<?xml version="1.0" encoding="UTF-8"?>
<gpx
  version="1.0"
  creator="pymavlink"
  xmlns:xsi="http://www.w3.org/2001/XMLSchema-instance"
  xmlns="http://www.topografix.com/GPX/1/0"
  xsi:schemaLocation="http://www.topografix.com/GPX/1/0 http://www.topografix.com/GPX/1/0/gpx.xsd">
<trk>
<trkseg>
<trkpt lat="39.654938" lon="-104.1331666">
  <ele>1569.54</ele>
  <time>2026-08-27T18:24:25Z</time>
  <course>168.11</course>
  <speed>0.0</speed>
  <fix>3d</fix>
</trkpt>
<trkpt lat="40.072842" lon="-105.230575">
  <ele>1586.09</ele>
  <time>2026-08-27T18:24:25Z</time>
  <course>2.1</course>
  <speed>0.0</speed>
  <fix>3d</fix>
</trkpt>
<trkpt lat="40.072842" lon="-105.230575">
  <ele>1586.09</ele>
  <time>2026-08-27T18:24:25Z</time>
  <course>238.4</course>
  <speed>0.0</speed>
  <fix>3d</fix>
</trkpt>
<trkpt lat="40.072842" lon="-105.230575">
  <ele>1586.09</ele>
  <time>2026-08-27T18:24:25Z</time>
  <course>2.68</course>
  <speed>0.0</speed>
  <fix>3d</fix>
</trkpt>
<trkpt lat="40.072842" lon="-105.230575">
  <ele>1586.09</ele>
  <time>2026-08-27T18:24:25Z</time>
  <course>194.29</course>
  <speed>0.0</speed>
  <fix>3d</fix>
</trkpt>
<trkpt lat="40.072842" lon="-105.230575">
  <ele>1586.09</ele>
  <time>2026-08-27T18:24:25Z</time>
  <course>3.42</course>
  <speed>0.0</speed>
  <fix>3d</fix>
</trkpt>
<trkpt lat="40.072842" lon="-105.230575">
  <ele>1586.09</ele>
  <time>2026-08-27T18:24:25Z</time>
  <course>193.66</course>
  <speed>0.0</speed>
  <fix>3d</fix>
</trkpt>
<trkpt lat="40.072842" lon="-105.230575">
  <ele>1586.09</ele>
  <time>2026-08-27T18:24:25Z</time>
  <course>4.08</course>
  <speed>0.0</speed>
  <fix>3d</fix>
</trkpt>
<trkpt lat="40.072842" lon="-105.230575">
  <ele>1586.09</ele>
  <time>2026-08-27T18:24:25Z</time>
  <course>303.54</course>
  <speed>0.0</speed>
  <fix>3d</fix>
</trkpt>
<trkpt lat="40.072842" lon="-105.230575">
  <ele>1586.09</ele>
  <time>2026-08-27T18:24:25Z</time>
  <course>4.68</course>
  <speed>0.0</speed>
  <fix>3d</fix>
</trkpt>
<trkpt lat="40.072842" lon="-105.230575">
  <ele>1586.09</ele>
  <time>2026-08-27T18:24:25Z</time>
  <course>110.94</course>
  <speed>0.0</speed>
  <fix>3d</fix>
</trkpt>
<trkpt lat="40.072842" lon="-105.230575">
  <ele>1586.09</ele>
  <time>2026-08-27T18:24:25Z</time>
  <course>5.26</course>
  <speed>0.0</speed>
  <fix>3d</fix>
</trkpt>
<trkpt lat="40.072842" lon="-105.230575">
  <ele>1586.09</ele>
  <time>2026-08-27T18:24:25Z</time>
  <course>191.21</course>
  <speed>0.0</speed>
  <fix>3d</fix>
</trkpt>
<trkpt lat="40.072842" lon="-105.230575">
  <ele>1586.09</ele>
  <time>2026-08-27T18:24:25Z</time>
  <course>5.81</course>
  <speed>0.0</speed>
  <fix>3d</fix>
</trkpt>
<trkpt lat="40.072842" lon="-105.230575">
  <ele>1586.09</ele>
  <time>2026-08-27T18:24:25Z</time>
  <course>252.23</course>
  <speed>0.0</speed>
  <fix>3d</fix>
</trkpt>
<trkpt lat="40.072842" lon="-105.230575">
  <ele>1586.09</ele>
  <time>2026-08-27T18:24:25Z</time>
  <course>6.33</course>
  <speed>0.0</speed>
  <fix>3d</fix>
</trkpt>
<trkpt lat="40.072842" lon="-105.230575">
  <ele>1586.09</ele>
  <time>2026-08-27T18:24:25Z</time>
  <course>170.36</course>
  <speed>0.0</speed>
  <fix>3d</fix>
</trkpt>
<trkpt lat="40.072842" lon="-105.230575">
  <ele>1586.09</ele>
  <time>2026-08-27T18:24:25Z</time>
  <course>6.81</course>
  <speed>0.0</speed>
  <fix>3d</fix>
</trkpt>
<trkpt lat="40.072842" lon="-105.230575">
  <ele>1586.09</ele>
  <time>2026-08-27T18:24:25Z</time>
  <course>179.36</course>
  <speed>0.0</speed>
  <fix>3d</fix>
</trkpt>
<trkpt lat="40.072842" lon="-105.230575">
  <ele>1586.09</ele>
  <time>2026-08-27T18:24:25Z</time>
  <course>7.26</course>
  <speed>0.0</speed>
  <fix>3d</fix>
</trkpt>
<trkpt lat="40.072842" lon="-105.230575">
  <ele>1586.09</ele>
  <time>2026-08-27T18:24:25Z</time>
  <course>19.98</course>
  <speed>0.0</speed>
  <fix>3d</fix>
</trkpt>
<trkpt lat="40.072842" lon="-105.230575">
  <ele>1586.09</ele>
  <time>2026-08-27T18:24:25Z</time>
  <course>7.67</course>
  <speed>0.0</speed>
  <fix>3d</fix>
</trkpt>
<trkpt lat="40.072842" lon="-105.230575">
  <ele>1586.09</ele>
  <time>2026-08-27T18:24:25Z</time>
  <course>17.49</course>
  <speed>0.0</speed>
  <fix>3d</fix>
</trkpt>
<trkpt lat="40.072842" lon="-105.230575">
  <ele>1586.09</ele>
  <time>2026-08-27T18:24:25Z</time>
  <course>8.06</course>
  <speed>0.0</speed>
  <fix>3d</fix>
</trkpt>
<trkpt lat="40.072842" lon="-105.230575">
  <ele>1586.09</ele>
  <time>2026-08-27T18:24:25Z</time>
  <course>356.19</course>
  <speed>0.0</speed>
  <fix>3d</fix>
</trkpt>
<trkpt lat="40.072842" lon="-105.230575">
  <ele>1586.09</ele>
  <time>2026-08-27T18:24:25Z</time>
  <course>8.41</course>
  <speed>0.0</speed>
  <fix>3d</fix>
</trkpt>
<trkpt lat="40.072842" lon="-105.230575">
  <ele>1586.09</ele>
  <time>2026-08-27T18:24:25Z</time>
  <course>77.32</course>
  <speed>0.0</speed>
  <fix>3d</fix>
</trkpt>
<trkpt lat="40.072842" lon="-105.230575">
  <ele>1586.09</ele>
  <time>2026-08-27T18:24:25Z</time>
  <course>8.74</course>
  <speed>0.0</speed>
  <fix>3d</fix>
</trkpt>
<trkpt lat="40.072842" lon="-105.230575">
  <ele>1586.09</ele>
  <time>2026-08-27T18:24:25Z</time>
  <course>290.54</course>
  <speed>0.0</speed>
  <fix>3d</fix>
</trkpt>
<trkpt lat="40.072842" lon="-105.230575">
  <ele>1586.09</ele>
  <time>2026-08-27T18:24:25Z</time>
  <course>9.04</course>
  <speed>0.0</speed>
  <fix>3d</fix>
</trkpt>
<trkpt lat="40.072842" lon="-105.230575">
  <ele>1586.09</ele>
  <time>2026-08-27T18:24:25Z</time>
  <course>338.69</course>
  <speed>0.0</speed>
  <fix>3d</fix>
</trkpt>
<trkpt lat="40.072842" lon="-105.230575">
  <ele>1586.09</ele>
  <time>2026-08-27T18:24:25Z</time>
  <course>9.32</course>
  <speed>0.0</speed>
  <fix>3d</fix>
</trkpt>
<trkpt lat="40.072842" lon="-105.230575">
  <ele>1586.09</ele>
  <time>2026-08-27T18:24:25Z</time>
  <course>326.81</course>
  <speed>0.0</speed>
  <fix>3d</fix>
</trkpt>
<trkpt lat="40.072842" lon="-105.230575">
  <ele>1586.09</ele>
  <time>2026-08-27T18:24:25Z</time>
  <course>9.58</course>
  <speed>0.0</speed>
  <fix>3d</fix>
</trkpt>
<trkpt lat="40.072842" lon="-105.230575">
  <ele>1586.09</ele>
  <time>2026-08-27T18:24:25Z</time>
  <course>262.23</course>
  <speed>0.0</speed>
  <fix>3d</fix>
</trkpt>
<trkpt lat="40.072842" lon="-105.230575">
  <ele>1586.09</ele>
  <time>2026-08-27T18:24:25Z</time>
  <course>9.81</course>
  <speed>0.0</speed>
  <fix>3d</fix>
</trkpt>
<trkpt lat="40.072842" lon="-105.230575">
  <ele>1586.09</ele>
  <time>2026-08-27T18:24:25Z</time>
  <course>159.08</course>
  <speed>0.0</speed>
  <fix>3d</fix>
</trkpt>
<trkpt lat="40.072842" lon="-105.230575">
  <ele>1586.09</ele>
  <time>2026-08-27T18:24:25Z</time>
  <course>10.03</course>
  <speed>0.0</speed>
  <fix>3d</fix>
</trkpt>
<trkpt lat="40.072842" lon="-105.230575">
  <ele>1586.09</ele>
  <time>2026-08-27T18:24:25Z</time>
  <course>287.98</course>
  <speed>0.0</speed>
  <fix>3d</fix>
</trkpt>
<trkpt lat="40.072842" lon="-105.230575">
  <ele>1586.09</ele>
  <time>2026-08-27T18:24:25Z</time>
  <course>10.23</course>
  <speed>0.0</speed>
  <fix>3d</fix>
</trkpt>
<trkpt lat="40.072842" lon="-105.230575">
  <ele>1586.09</ele>
  <time>2026-08-27T18:24:25Z</time>
  <course>278.3</course>
  <speed>0.0</speed>
  <fix>3d</fix>
</trkpt>
<trkpt lat="40.072842" lon="-105.230575">
  <ele>1586.09</ele>
  <time>2026-08-27T18:24:25Z</time>
  <course>10.41</course>
  <speed>0.0</speed>
  <fix>3d</fix>
</trkpt>
<trkpt lat="40.072842" lon="-105.230575">
  <ele>1586.09</ele>
  <time>2026-08-27T18:24:25Z</time>
  <course>261.72</course>
  <speed>0.0</speed>
  <fix>3d</fix>
</trkpt>
<trkpt lat="40.072842" lon="-105.230575">
  <ele>1586.09</ele>
  <time>2026-08-27T18:24:25Z</time>
  <course>10.57</course>
  <speed>0.0</speed>
  <fix>3d</fix>
</trkpt>
<trkpt lat="40.072842" lon="-105.230575">
  <ele>1586.09</ele>
  <time>2026-08-27T18:24:25Z</time>
  <course>264.4</course>
  <speed>0.0</speed>
  <fix>3d</fix>
</trkpt>
<trkpt lat="40.072842" lon="-105.230575">
  <ele>1586.09</ele>
  <time>2026-08-27T18:24:25Z</time>
  <course>10.73</course>
  <speed>0.0</speed>
  <fix>3d</fix>
</trkpt>
<trkpt lat="40.072842" lon="-105.230575">
  <ele>1586.09</ele>
  <time>2026-08-27T18:24:25Z</time>
  <course>266.8</course>
  <speed>0.0</speed>
  <fix>3d</fix>
</trkpt>
<trkpt lat="40.072842" lon="-105.230575">
  <ele>1586.09</ele>
  <time>2026-08-27T18:24:25Z</time>
  <course>10.86</course>
  <speed>0.0</speed>
  <fix>3d</fix>
</trkpt>
<trkpt lat="40.072842" lon="-105.230575">
  <ele>1586.09</ele>
  <time>2026-08-27T18:24:25Z</time>
  <course>266.15</course>
  <speed>0.0</speed>
  <fix>3d</fix>
</trkpt>
<trkpt lat="40.072842" lon="-105.230575">
  <ele>1586.09</ele>
  <time>2026-08-27T18:24:25Z</time>
  <course>10.99</course>
  <speed>0.0</speed>
  <fix>3d</fix>
</trkpt>
<trkpt lat="40.072842" lon="-105.230575">
  <ele>1586.09</ele>
  <time>2026-08-27T18:24:25Z</time>
  <course>265.92</course>
  <speed>0.0</speed>
  <fix>3d</fix>
</trkpt>
<trkpt lat="40.072842" lon="-105.230575">
  <ele>1586.09</ele>
  <time>2026-08-27T18:24:25Z</time>
  <course>11.11</course>
  <speed>0.0</speed>
  <fix>3d</fix>
</trkpt>
<trkpt lat="40.072842" lon="-105.230575">
  <ele>1586.09</ele>
  <time>2026-08-27T18:24:25Z</time>
  <course>266.03</course>
  <speed>0.0</speed>
  <fix>3d</fix>
</trkpt>
<trkpt lat="40.072842" lon="-105.230575">
  <ele>1586.09</ele>
  <time>2026-08-27T18:24:25Z</time>
  <course>11.22</course>
  <speed>0.0</speed>
  <fix>3d</fix>
</trkpt>
<trkpt lat="40.072842" lon="-105.230575">
  <ele>1586.09</ele>
  <time>2026-08-27T18:24:25Z</time>
  <course>266.05</course>
  <speed>0.0</speed>
  <fix>3d</fix>
</trkpt>
<trkpt lat="40.072842" lon="-105.230575">
  <ele>1586.09</ele>
  <time>2026-08-27T18:24:25Z</time>
  <course>11.31</course>
  <speed>0.0</speed>
  <fix>3d</fix>
</trkpt>
<trkpt lat="40.072842" lon="-105.230575">
  <ele>1586.09</ele>
  <time>2026-08-27T18:24:25Z</time>
  <course>266.03</course>
  <speed>0.0</speed>
  <fix>3d</fix>
</trkpt>
<trkpt lat="40.072842" lon="-105.230575">
  <ele>1586.09</ele>
  <time>2026-08-27T18:24:25Z</time>
  <course>11.4</course>
  <speed>0.0</speed>
  <fix>3d</fix>
</trkpt>
<trkpt lat="40.072842" lon="-105.230575">
  <ele>1586.09</ele>
  <time>2026-08-27T18:24:25Z</time>
  <course>266.03</course>
  <speed>0.0</speed>
  <fix>3d</fix>
</trkpt>
<trkpt lat="40.072842" lon="-105.230575">
  <ele>1586.09</ele>
  <time>2026-08-27T18:24:25Z</time>
  <course>11.48</course>
  <speed>0.0</speed>
  <fix>3d</fix>
</trkpt>
<trkpt lat="40.072842" lon="-105.230575">
  <ele>1586.09</ele>
  <time>2026-08-27T18:24:25Z</time>
  <course>266.03</course>
  <speed>0.0</speed>
  <fix>3d</fix>
</trkpt>
<trkpt lat="40.072842" lon="-105.230575">
  <ele>1586.09</ele>
  <time>2026-08-27T18:24:25Z</time>
  <course>11.55</course>
  <speed>0.0</speed>
  <fix>3d</fix>
</trkpt>
<trkpt lat="40.072842" lon="-105.230575">
  <ele>1586.09</ele>
  <time>2026-08-27T18:24:25Z</time>
  <course>266.03</course>
  <speed>0.0</speed>
  <fix>3d</fix>
</trkpt>
<trkpt lat="40.072842" lon="-105.230575">
  <ele>1586.09</ele>
  <time>2026-08-27T18:24:25Z</time>
  <course>11.62</course>
  <speed>0.0</speed>
  <fix>3d</fix>
</trkpt>
<trkpt lat="40.072842" lon="-105.230575">
  <ele>1586.09</ele>
  <time>2026-08-27T18:24:25Z</time>
  <course>266.03</course>
  <speed>0.0</speed>
  <fix>3d</fix>
</trkpt>
<trkpt lat="40.072842" lon="-105.230575">
  <ele>1586.09</ele>
  <time>2026-08-27T18:24:25Z</time>
  <course>11.68</course>
  <speed>0.0</speed>
  <fix>3d</fix>
</trkpt>
<trkpt lat="40.072842" lon="-105.230575">
  <ele>1586.09</ele>
  <time>2026-08-27T18:24:25Z</time>
  <course>266.03</course>
  <speed>0.0</speed>
  <fix>3d</fix>
</trkpt>
<trkpt lat="40.072842" lon="-105.230575">
  <ele>1586.09</ele>
  <time>2026-08-27T18:24:25Z</time>
  <course>11.73</course>
  <speed>0.0</speed>
  <fix>3d</fix>
</trkpt>
<trkpt lat="40.072842" lon="-105.230575">
  <ele>1586.09</ele>
  <time>2026-08-27T18:24:25Z</time>
  <course>266.03</course>
  <speed>0.0</speed>
  <fix>3d</fix>
</trkpt>
<trkpt lat="40.072842" lon="-105.230575">
  <ele>1586.09</ele>
  <time>2026-08-27T18:24:25Z</time>
  <course>11.78</course>
  <speed>0.0</speed>
  <fix>3d</fix>
</trkpt>
<trkpt lat="40.072842" lon="-105.230575">
  <ele>1586.09</ele>
  <time>2026-08-27T18:24:25Z</time>
  <course>266.03</course>
  <speed>0.0</speed>
  <fix>3d</fix>
</trkpt>
<trkpt lat="40.072842" lon="-105.230575">
  <ele>1586.09</ele>
  <time>2026-08-27T18:24:25Z</time>
  <course>11.82</course>
  <speed>0.0</speed>
  <fix>3d</fix>
</trkpt>
<trkpt lat="40.072842" lon="-105.230575">
  <ele>1586.09</ele>
  <time>2026-08-27T18:24:25Z</time>
  <course>266.03</course>
  <speed>0.0</speed>
  <fix>3d</fix>
</trkpt>
<trkpt lat="40.072842" lon="-105.230575">
  <ele>1586.09</ele>
  <time>2026-08-27T18:24:25Z</time>
  <course>11.86</course>
  <speed>0.0</speed>
  <fix>3d</fix>
</trkpt>
<trkpt lat="40.072842" lon="-105.230575">
  <ele>1586.09</ele>
  <time>2026-08-27T18:24:25Z</time>
  <course>266.03</course>
  <speed>0.0</speed>
  <fix>3d</fix>
</trkpt>
<trkpt lat="40.072842" lon="-105.230575">
  <ele>1586.09</ele>
  <time>2026-08-27T18:24:25Z</time>
  <course>11.9</course>
  <speed>0.0</speed>
  <fix>3d</fix>
</trkpt>
<trkpt lat="40.072842" lon="-105.230575">
  <ele>1586.09</ele>
  <time>2026-08-27T18:24:25Z</time>
  <course>266.03</course>
  <speed>0.0</speed>
  <fix>3d</fix>
</trkpt>
<trkpt lat="40.072842" lon="-105.230575">
  <ele>1586.09</ele>
  <time>2026-08-27T18:24:25Z</time>
  <course>11.93</course>
  <speed>0.0</speed>
  <fix>3d</fix>
</trkpt>
<trkpt lat="40.072842" lon="-105.230575">
  <ele>1586.09</ele>
  <time>2026-08-27T18:24:25Z</time>
  <course>266.03</course>
  <speed>0.0</speed>
  <fix>3d</fix>
</trkpt>
<trkpt lat="40.072842" lon="-105.230575">
  <ele>1586.09</ele>
  <time>2026-08-27T18:24:25Z</time>
  <course>11.96</course>
  <speed>0.0</speed>
  <fix>3d</fix>
</trkpt>
<trkpt lat="40.072842" lon="-105.230575">
  <ele>1586.09</ele>
  <time>2026-08-27T18:24:25Z</time>
  <course>266.03</course>
  <speed>0.0</speed>
  <fix>3d</fix>
</trkpt>
<trkpt lat="40.072842" lon="-105.230575">
  <ele>1586.09</ele>
  <time>2026-08-27T18:24:25Z</time>
  <course>11.98</course>
  <speed>0.0</speed>
  <fix>3d</fix>
</trkpt>
<trkpt lat="40.072842" lon="-105.230575">
  <ele>1586.09</ele>
  <time>2026-08-27T18:24:25Z</time>
  <course>266.03</course>
  <speed>0.0</speed>
  <fix>3d</fix>
</trkpt>
<trkpt lat="40.072842" lon="-105.230575">
  <ele>1586.09</ele>
  <time>2026-08-27T18:24:25Z</time>
  <course>12.01</course>
  <speed>0.0</speed>
  <fix>3d</fix>
</trkpt>
<trkpt lat="40.072842" lon="-105.230575">
  <ele>1586.09</ele>
  <time>2026-08-27T18:24:25Z</time>
  <course>266.03</course>
  <speed>0.0</speed>
  <fix>3d</fix>
</trkpt>
<trkpt lat="40.072842" lon="-105.230575">
  <ele>1586.09</ele>
  <time>2026-08-27T18:24:25Z</time>
  <course>12.03</course>
  <speed>0.0</speed>
  <fix>3d</fix>
</trkpt>
<trkpt lat="40.072842" lon="-105.230575">
  <ele>1586.09</ele>
  <time>2026-08-27T18:24:25Z</time>
  <course>266.03</course>
  <speed>0.0</speed>
  <fix>3d</fix>
</trkpt>
<trkpt lat="40.072842" lon="-105.230575">
  <ele>1586.09</ele>
  <time>2026-08-27T18:24:25Z</time>
  <course>12.04</course>
  <speed>0.0</speed>
  <fix>3d</fix>
</trkpt>
<trkpt lat="40.072842" lon="-105.230575">
  <ele>1586.09</ele>
  <time>2026-08-27T18:24:25Z</time>
  <course>266.03</course>
  <speed>0.0</speed>
  <fix>3d</fix>
</trkpt>
<trkpt lat="40.072842" lon="-105.230575">
  <ele>1586.09</ele>
  <time>2026-08-27T18:24:25Z</time>
  <course>12.06</course>
  <speed>0.0</speed>
  <fix>3d</fix>
</trkpt>
<trkpt lat="40.072842" lon="-105.230575">
  <ele>1586.09</ele>
  <time>2026-08-27T18:24:25Z</time>
  <course>266.03</course>
  <speed>0.0</speed>
  <fix>3d</fix>
</trkpt>
<trkpt lat="40.072842" lon="-105.230575">
  <ele>1586.09</ele>
  <time>2026-08-27T18:24:25Z</time>
  <course>12.07</course>
  <speed>0.0</speed>
  <fix>3d</fix>
</trkpt>
<trkpt lat="40.072842" lon="-105.230575">
  <ele>1586.09</ele>
  <time>2026-08-27T18:24:25Z</time>
  <course>266.03</course>
  <speed>0.0</speed>
  <fix>3d</fix>
</trkpt>
<trkpt lat="40.072842" lon="-105.230575">
  <ele>1586.09</ele>
  <time>2026-08-27T18:24:25Z</time>
  <course>12.08</course>
  <speed>0.0</speed>
  <fix>3d</fix>
</trkpt>
<trkpt lat="40.072842" lon="-105.230575">
  <ele>1586.09</ele>
  <time>2026-08-27T18:24:25Z</time>
  <course>266.03</course>
  <speed>0.0</speed>
  <fix>3d</fix>
</trkpt>
<trkpt lat="40.072842" lon="-105.230575">
  <ele>1586.09</ele>
  <time>2026-08-27T18:24:25Z</time>
  <course>12.09</course>
  <speed>0.0</speed>
  <fix>3d</fix>
</trkpt>
<trkpt lat="40.072842" lon="-105.230575">
  <ele>1586.09</ele>
  <time>2026-08-27T18:24:25Z</time>
  <course>266.03</course>
  <speed>0.0</speed>
  <fix>3d</fix>
</trkpt>
<trkpt lat="40.072842" lon="-105.230575">
  <ele>1586.09</ele>
  <time>2026-08-27T18:24:25Z</time>
  <course>12.1</course>
  <speed>0.0</speed>
  <fix>3d</fix>
</trkpt>
<trkpt lat="40.072842" lon="-105.230575">
  <ele>1586.09</ele>
  <time>2026-08-27T18:24:25Z</time>
  <course>266.03</course>
  <speed>0.0</speed>
  <fix>3d</fix>
</trkpt>
<trkpt lat="40.072842" lon="-105.230575">
  <ele>1586.09</ele>
  <time>2026-08-27T18:24:25Z</time>
  <course>12.11</course>
  <speed>0.0</speed>
  <fix>3d</fix>
</trkpt>
<trkpt lat="40.072842" lon="-105.230575">
  <ele>1586.09</ele>
  <time>2026-08-27T18:24:25Z</time>
  <course>266.03</course>
  <speed>0.0</speed>
  <fix>3d</fix>
</trkpt>
<trkpt lat="40.072842" lon="-105.230575">
  <ele>1586.09</ele>
  <time>2026-08-27T18:24:26Z</time>
  <course>12.12</course>
  <speed>0.0</speed>
  <fix>3d</fix>
</trkpt>
<trkpt lat="40.072842" lon="-105.230575">
  <ele>1586.09</ele>
  <time>2026-08-27T18:24:26Z</time>
  <course>266.03</course>
  <speed>0.0</speed>
  <fix>3d</fix>
</trkpt>
<trkpt lat="40.072842" lon="-105.230575">
  <ele>1586.09</ele>
  <time>2026-08-27T18:24:26Z</time>
  <course>12.12</course>
  <speed>0.0</speed>
  <fix>3d</fix>
</trkpt>
<trkpt lat="40.072842" lon="-105.230575">
  <ele>1586.09</ele>
  <time>2026-08-27T18:24:26Z</time>
  <course>266.03</course>
  <speed>0.0</speed>
  <fix>3d</fix>
</trkpt>
<trkpt lat="40.072842" lon="-105.230575">
  <ele>1586.09</ele>
  <time>2026-08-27T18:24:26Z</time>
  <course>12.12</course>
  <speed>0.0</speed>
  <fix>3d</fix>
</trkpt>
<trkpt lat="40.072842" lon="-105.230575">
  <ele>1586.09</ele>
  <time>2026-08-27T18:24:26Z</time>
  <course>266.03</course>
  <speed>0.0</speed>
  <fix>3d</fix>
</trkpt>
<trkpt lat="40.072842" lon="-105.230575">
  <ele>1586.09</ele>
  <time>2026-08-27T18:24:26Z</time>
  <course>12.13</course>
  <speed>0.0</speed>
  <fix>3d</fix>
</trkpt>
<trkpt lat="40.072842" lon="-105.230575">
  <ele>1586.09</ele>
  <time>2026-08-27T18:24:26Z</time>
  <course>266.03</course>
  <speed>0.0</speed>
  <fix>3d</fix>
</trkpt>
<trkpt lat="40.072842" lon="-105.230575">
  <ele>1586.09</ele>
  <time>2026-08-27T18:24:26Z</time>
  <course>12.13</course>
  <speed>0.0</speed>
  <fix>3d</fix>
</trkpt>
<trkpt lat="40.072842" lon="-105.230575">
  <ele>1586.09</ele>
  <time>2026-08-27T18:24:26Z</time>
  <course>266.03</course>
  <speed>0.0</speed>
  <fix>3d</fix>
</trkpt>
<trkpt lat="40.072842" lon="-105.230575">
  <ele>1586.09</ele>
  <time>2026-08-27T18:24:26Z</time>
  <course>12.13</course>
  <speed>0.0</speed>
  <fix>3d</fix>
</trkpt>
<trkpt lat="40.072842" lon="-105.230575">
  <ele>1586.09</ele>
  <time>2026-08-27T18:24:26Z</time>
  <course>266.03</course>
  <speed>0.0</speed>
  <fix>3d</fix>
</trkpt>
<trkpt lat="40.072842" lon="-105.230575">
  <ele>1586.09</ele>
  <time>2026-08-27T18:24:26Z</time>
  <course>12.13</course>
  <speed>0.0</speed>
  <fix>3d</fix>
</trkpt>
<trkpt lat="40.072842" lon="-105.230575">
  <ele>1586.09</ele>
  <time>2026-08-27T18:24:26Z</time>
  <course>266.03</course>
  <speed>0.0</speed>
  <fix>3d</fix>
</trkpt>
<trkpt lat="40.072842" lon="-105.230575">
  <ele>1586.09</ele>
  <time>2026-08-27T18:24:26Z</time>
  <course>12.12</course>
  <speed>0.01</speed>
  <fix>3d</fix>
</trkpt>
<trkpt lat="40.072842" lon="-105.230575">
  <ele>1586.09</ele>
  <time>2026-08-27T18:24:26Z</time>
  <course>266.03</course>
  <speed>0.0</speed>
  <fix>3d</fix>
</trkpt>
<trkpt lat="40.072842" lon="-105.230575">
  <ele>1586.09</ele>
  <time>2026-08-27T18:24:26Z</time>
  <course>12.12</course>
  <speed>0.01</speed>
  <fix>3d</fix>
</trkpt>
<trkpt lat="40.072842" lon="-105.230575">
  <ele>1586.09</ele>
  <time>2026-08-27T18:24:26Z</time>
  <course>266.03</course>
  <speed>0.0</speed>
  <fix>3d</fix>
</trkpt>
<trkpt lat="40.072842" lon="-105.230575">
  <ele>1586.09</ele>
  <time>2026-08-27T18:24:26Z</time>
  <course>12.12</course>
  <speed>0.01</speed>
  <fix>3d</fix>
</trkpt>
<trkpt lat="40.072842" lon="-105.230575">
  <ele>1586.09</ele>
  <time>2026-08-27T18:24:26Z</time>
  <course>266.03</course>
  <speed>0.0</speed>
  <fix>3d</fix>
</trkpt>
<trkpt lat="40.072842" lon="-105.230575">
  <ele>1586.09</ele>
  <time>2026-08-27T18:24:26Z</time>
  <course>12.12</course>
  <speed>0.01</speed>
  <fix>3d</fix>
</trkpt>
<trkpt lat="40.072842" lon="-105.230575">
  <ele>1586.09</ele>
  <time>2026-08-27T18:24:26Z</time>
  <course>266.03</course>
  <speed>0.0</speed>
  <fix>3d</fix>
</trkpt>
<trkpt lat="40.072842" lon="-105.230575">
  <ele>1586.09</ele>
  <time>2026-08-27T18:24:26Z</time>
  <course>12.11</course>
  <speed>0.01</speed>
  <fix>3d</fix>
</trkpt>
<trkpt lat="40.072842" lon="-105.230575">
  <ele>1586.09</ele>
  <time>2026-08-27T18:24:26Z</time>
  <course>266.03</course>
  <speed>0.0</speed>
  <fix>3d</fix>
</trkpt>
<trkpt lat="40.072842" lon="-105.230575">
  <ele>1586.09</ele>
  <time>2026-08-27T18:24:26Z</time>
  <course>12.11</course>
  <speed>0.01</speed>
  <fix>3d</fix>
</trkpt>
<trkpt lat="40.072842" lon="-105.230575">
  <ele>1586.09</ele>
  <time>2026-08-27T18:24:26Z</time>
  <course>266.03</course>
  <speed>0.0</speed>
  <fix>3d</fix>
</trkpt>
<trkpt lat="40.072842" lon="-105.230575">
  <ele>1586.09</ele>
  <time>2026-08-27T18:24:26Z</time>
  <course>12.1</course>
  <speed>0.01</speed>
  <fix>3d</fix>
</trkpt>
<trkpt lat="40.072842" lon="-105.230575">
  <ele>1586.09</ele>
  <time>2026-08-27T18:24:26Z</time>
  <course>266.03</course>
  <speed>0.0</speed>
  <fix>3d</fix>
</trkpt>
<trkpt lat="40.072842" lon="-105.230575">
  <ele>1586.09</ele>
  <time>2026-08-27T18:24:26Z</time>
  <course>12.1</course>
  <speed>0.01</speed>
  <fix>3d</fix>
</trkpt>
<trkpt lat="40.072842" lon="-105.230575">
  <ele>1586.09</ele>
  <time>2026-08-27T18:24:26Z</time>
  <course>266.03</course>
  <speed>0.0</speed>
  <fix>3d</fix>
</trkpt>
<trkpt lat="40.072842" lon="-105.230575">
  <ele>1586.09</ele>
  <time>2026-08-27T18:24:26Z</time>
  <course>12.09</course>
  <speed>0.01</speed>
  <fix>3d</fix>
</trkpt>
<trkpt lat="40.072842" lon="-105.230575">
  <ele>1586.09</ele>
  <time>2026-08-27T18:24:26Z</time>
  <course>266.03</course>
  <speed>0.0</speed>
  <fix>3d</fix>
</trkpt>
<trkpt lat="40.072842" lon="-105.230575">
  <ele>1586.09</ele>
  <time>2026-08-27T18:24:26Z</time>
  <course>12.09</course>
  <speed>0.01</speed>
  <fix>3d</fix>
</trkpt>
<trkpt lat="40.072842" lon="-105.230575">
  <ele>1586.09</ele>
  <time>2026-08-27T18:24:26Z</time>
  <course>266.03</course>
  <speed>0.0</speed>
  <fix>3d</fix>
</trkpt>
<trkpt lat="40.072842" lon="-105.230575">
  <ele>1586.09</ele>
  <time>2026-08-27T18:24:26Z</time>
  <course>12.08</course>
  <speed>0.01414213562373095</speed>
  <fix>3d</fix>
</trkpt>
<trkpt lat="40.072842" lon="-105.230575">
  <ele>1586.09</ele>
  <time>2026-08-27T18:24:26Z</time>
  <course>266.03</course>
  <speed>0.0</speed>
  <fix>3d</fix>
</trkpt>
<trkpt lat="40.072842" lon="-105.230575">
  <ele>1586.09</ele>
  <time>2026-08-27T18:24:26Z</time>
  <course>12.07</course>
  <speed>0.01414213562373095</speed>
  <fix>3d</fix>
</trkpt>
<trkpt lat="40.072842" lon="-105.230575">
  <ele>1586.09</ele>
  <time>2026-08-27T18:24:26Z</time>
  <course>266.03</course>
  <speed>0.0</speed>
  <fix>3d</fix>
</trkpt>
<trkpt lat="40.072842" lon="-105.230575">
  <ele>1586.09</ele>
  <time>2026-08-27T18:24:26Z</time>
  <course>12.07</course>
  <speed>0.01414213562373095</speed>
  <fix>3d</fix>
</trkpt>
<trkpt lat="40.072842" lon="-105.230575">
  <ele>1586.09</ele>
  <time>2026-08-27T18:24:26Z</time>
  <course>266.03</course>
  <speed>0.0</speed>
  <fix>3d</fix>
</trkpt>
<trkpt lat="40.072842" lon="-105.230575">
  <ele>1586.09</ele>
  <time>2026-08-27T18:24:26Z</time>
  <course>12.06</course>
  <speed>0.01414213562373095</speed>
  <fix>3d</fix>
</trkpt>
<trkpt lat="40.072842" lon="-105.230575">
  <ele>1586.09</ele>
  <time>2026-08-27T18:24:26Z</time>
  <course>266.03</course>
  <speed>0.0</speed>
  <fix>3d</fix>
</trkpt>
<trkpt lat="40.072842" lon="-105.230575">
  <ele>1586.09</ele>
  <time>2026-08-27T18:24:26Z</time>
  <course>12.05</course>
  <speed>0.01414213562373095</speed>
  <fix>3d</fix>
</trkpt>
<trkpt lat="40.072842" lon="-105.230575">
  <ele>1586.09</ele>
  <time>2026-08-27T18:24:26Z</time>
  <course>266.03</course>
  <speed>0.0</speed>
  <fix>3d</fix>
</trkpt>
<trkpt lat="40.072842" lon="-105.230575">
  <ele>1586.09</ele>
  <time>2026-08-27T18:24:26Z</time>
  <course>12.05</course>
  <speed>0.01414213562373095</speed>
  <fix>3d</fix>
</trkpt>
<trkpt lat="40.072842" lon="-105.230575">
  <ele>1586.09</ele>
  <time>2026-08-27T18:24:26Z</time>
  <course>266.03</course>
  <speed>0.0</speed>
  <fix>3d</fix>
</trkpt>
<trkpt lat="40.072842" lon="-105.230575">
  <ele>1586.09</ele>
  <time>2026-08-27T18:24:26Z</time>
  <course>12.04</course>
  <speed>0.01414213562373095</speed>
  <fix>3d</fix>
</trkpt>
<trkpt lat="40.072842" lon="-105.230575">
  <ele>1586.09</ele>
  <time>2026-08-27T18:24:26Z</time>
  <course>266.03</course>
  <speed>0.0</speed>
  <fix>3d</fix>
</trkpt>
<trkpt lat="40.072842" lon="-105.230575">
  <ele>1586.09</ele>
  <time>2026-08-27T18:24:26Z</time>
  <course>12.03</course>
  <speed>0.01414213562373095</speed>
  <fix>3d</fix>
</trkpt>
<trkpt lat="40.072842" lon="-105.230575">
  <ele>1586.09</ele>
  <time>2026-08-27T18:24:26Z</time>
  <course>266.03</course>
  <speed>0.0</speed>
  <fix>3d</fix>
</trkpt>
<trkpt lat="40.072842" lon="-105.230575">
  <ele>1586.09</ele>
  <time>2026-08-27T18:24:26Z</time>
  <course>12.02</course>
  <speed>0.01414213562373095</speed>
  <fix>3d</fix>
</trkpt>
<trkpt lat="40.072842" lon="-105.230575">
  <ele>1586.09</ele>
  <time>2026-08-27T18:24:26Z</time>
  <course>266.03</course>
  <speed>0.0</speed>
  <fix>3d</fix>
</trkpt>
<trkpt lat="40.072842" lon="-105.230575">
  <ele>1586.09</ele>
  <time>2026-08-27T18:24:26Z</time>
  <course>12.02</course>
  <speed>0.01414213562373095</speed>
  <fix>3d</fix>
</trkpt>
<trkpt lat="40.072842" lon="-105.230575">
  <ele>1586.09</ele>
  <time>2026-08-27T18:24:26Z</time>
  <course>266.03</course>
  <speed>0.0</speed>
  <fix>3d</fix>
</trkpt>
<trkpt lat="40.072842" lon="-105.230575">
  <ele>1586.09</ele>
  <time>2026-08-27T18:24:26Z</time>
  <course>12.01</course>
  <speed>0.01414213562373095</speed>
  <fix>3d</fix>
</trkpt>
<trkpt lat="40.072842" lon="-105.230575">
  <ele>1586.09</ele>
  <time>2026-08-27T18:24:26Z</time>
  <course>266.03</course>
  <speed>0.0</speed>
  <fix>3d</fix>
</trkpt>
<trkpt lat="40.072842" lon="-105.230575">
  <ele>1586.09</ele>
  <time>2026-08-27T18:24:26Z</time>
  <course>12.01</course>
  <speed>0.01414213562373095</speed>
  <fix>3d</fix>
</trkpt>
<trkpt lat="40.072842" lon="-105.230575">
  <ele>1586.09</ele>
  <time>2026-08-27T18:24:26Z</time>
  <course>266.03</course>
  <speed>0.0</speed>
  <fix>3d</fix>
</trkpt>
<trkpt lat="40.072842" lon="-105.230575">
  <ele>1586.09</ele>
  <time>2026-08-27T18:24:26Z</time>
  <course>12.0</course>
  <speed>0.01414213562373095</speed>
  <fix>3d</fix>
</trkpt>
<trkpt lat="40.072842" lon="-105.230575">
  <ele>1586.09</ele>
  <time>2026-08-27T18:24:26Z</time>
  <course>266.03</course>
  <speed>0.0</speed>
  <fix>3d</fix>
</trkpt>
<trkpt lat="40.072842" lon="-105.230575">
  <ele>1586.09</ele>
  <time>2026-08-27T18:24:26Z</time>
  <course>11.99</course>
  <speed>0.01414213562373095</speed>
  <fix>3d</fix>
</trkpt>
<trkpt lat="40.072842" lon="-105.230575">
  <ele>1586.09</ele>
  <time>2026-08-27T18:24:26Z</time>
  <course>266.03</course>
  <speed>0.0</speed>
  <fix>3d</fix>
</trkpt>
<trkpt lat="40.072842" lon="-105.230575">
  <ele>1586.09</ele>
  <time>2026-08-27T18:24:26Z</time>
  <course>11.98</course>
  <speed>0.01414213562373095</speed>
  <fix>3d</fix>
</trkpt>
<trkpt lat="40.072842" lon="-105.230575">
  <ele>1586.09</ele>
  <time>2026-08-27T18:24:26Z</time>
  <course>266.03</course>
  <speed>0.0</speed>
  <fix>3d</fix>
</trkpt>
<trkpt lat="40.072842" lon="-105.230575">
  <ele>1586.09</ele>
  <time>2026-08-27T18:24:26Z</time>
  <course>11.97</course>
  <speed>0.01414213562373095</speed>
  <fix>3d</fix>
</trkpt>
<trkpt lat="40.072842" lon="-105.230575">
  <ele>1586.09</ele>
  <time>2026-08-27T18:24:26Z</time>
  <course>266.03</course>
  <speed>0.0</speed>
  <fix>3d</fix>
</trkpt>
<trkpt lat="40.072842" lon="-105.230575">
  <ele>1586.09</ele>
  <time>2026-08-27T18:24:26Z</time>
  <course>11.96</course>
  <speed>0.022360679774997897</speed>
  <fix>3d</fix>
</trkpt>
<trkpt lat="40.072842" lon="-105.230575">
  <ele>1586.09</ele>
  <time>2026-08-27T18:24:26Z</time>
  <course>266.03</course>
  <speed>0.0</speed>
  <fix>3d</fix>
</trkpt>
<trkpt lat="40.072842" lon="-105.230575">
  <ele>1586.09</ele>
  <time>2026-08-27T18:24:26Z</time>
  <course>11.96</course>
  <speed>0.022360679774997897</speed>
  <fix>3d</fix>
</trkpt>
<trkpt lat="40.072842" lon="-105.230575">
  <ele>1586.09</ele>
  <time>2026-08-27T18:24:26Z</time>
  <course>266.03</course>
  <speed>0.0</speed>
  <fix>3d</fix>
</trkpt>
<trkpt lat="40.072842" lon="-105.230575">
  <ele>1586.09</ele>
  <time>2026-08-27T18:24:26Z</time>
  <course>11.95</course>
  <speed>0.022360679774997897</speed>
  <fix>3d</fix>
</trkpt>
<trkpt lat="40.072842" lon="-105.230575">
  <ele>1586.09</ele>
  <time>2026-08-27T18:24:26Z</time>
  <course>266.03</course>
  <speed>0.0</speed>
  <fix>3d</fix>
</trkpt>
<trkpt lat="40.072842" lon="-105.230575">
  <ele>1586.09</ele>
  <time>2026-08-27T18:24:26Z</time>
  <course>11.94</course>
  <speed>0.022360679774997897</speed>
  <fix>3d</fix>
</trkpt>
<trkpt lat="40.072842" lon="-105.230575">
  <ele>1586.09</ele>
  <time>2026-08-27T18:24:26Z</time>
  <course>266.03</course>
  <speed>0.0</speed>
  <fix>3d</fix>
</trkpt>
<trkpt lat="40.072842" lon="-105.230575">
  <ele>1586.09</ele>
  <time>2026-08-27T18:24:26Z</time>
  <course>11.93</course>
  <speed>0.022360679774997897</speed>
  <fix>3d</fix>
</trkpt>
<trkpt lat="40.072842" lon="-105.230575">
  <ele>1586.09</ele>
  <time>2026-08-27T18:24:26Z</time>
  <course>266.03</course>
  <speed>0.0</speed>
  <fix>3d</fix>
</trkpt>
<trkpt lat="40.072842" lon="-105.230575">
  <ele>1586.09</ele>
  <time>2026-08-27T18:24:26Z</time>
  <course>11.92</course>
  <speed>0.022360679774997897</speed>
  <fix>3d</fix>
</trkpt>
<trkpt lat="40.072842" lon="-105.230575">
  <ele>1586.09</ele>
  <time>2026-08-27T18:24:26Z</time>
  <course>266.03</course>
  <speed>0.0</speed>
  <fix>3d</fix>
</trkpt>
<trkpt lat="40.072842" lon="-105.230575">
  <ele>1586.09</ele>
  <time>2026-08-27T18:24:26Z</time>
  <course>11.91</course>
  <speed>0.022360679774997897</speed>
  <fix>3d</fix>
</trkpt>
<trkpt lat="40.072842" lon="-105.230575">
  <ele>1586.09</ele>
  <time>2026-08-27T18:24:26Z</time>
  <course>266.03</course>
  <speed>0.0</speed>
  <fix>3d</fix>
</trkpt>
<trkpt lat="40.072842" lon="-105.230575">
  <ele>1586.09</ele>
  <time>2026-08-27T18:24:26Z</time>
  <course>11.91</course>
  <speed>0.022360679774997897</speed>
  <fix>3d</fix>
</trkpt>
<trkpt lat="40.072842" lon="-105.230575">
  <ele>1586.09</ele>
  <time>2026-08-27T18:24:26Z</time>
  <course>266.03</course>
  <speed>0.0</speed>
  <fix>3d</fix>
</trkpt>
<trkpt lat="40.072842" lon="-105.230575">
  <ele>1586.09</ele>
  <time>2026-08-27T18:24:26Z</time>
  <course>11.9</course>
  <speed>0.022360679774997897</speed>
  <fix>3d</fix>
</trkpt>
<trkpt lat="40.072842" lon="-105.230575">
  <ele>1586.09</ele>
  <time>2026-08-27T18:24:26Z</time>
  <course>266.03</course>
  <speed>0.0</speed>
  <fix>3d</fix>
</trkpt>
<trkpt lat="40.072842" lon="-105.230575">
  <ele>1586.09</ele>
  <time>2026-08-27T18:24:26Z</time>
  <course>11.89</course>
  <speed>0.022360679774997897</speed>
  <fix>3d</fix>
</trkpt>
<trkpt lat="40.072842" lon="-105.230575">
  <ele>1586.09</ele>
  <time>2026-08-27T18:24:26Z</time>
  <course>266.03</course>
  <speed>0.0</speed>
  <fix>3d</fix>
</trkpt>
<trkpt lat="40.072842" lon="-105.230575">
  <ele>1586.09</ele>
  <time>2026-08-27T18:24:26Z</time>
  <course>11.88</course>
  <speed>0.022360679774997897</speed>
  <fix>3d</fix>
</trkpt>
<trkpt lat="40.072842" lon="-105.230575">
  <ele>1586.09</ele>
  <time>2026-08-27T18:24:26Z</time>
  <course>266.03</course>
  <speed>0.0</speed>
  <fix>3d</fix>
</trkpt>
<trkpt lat="40.072842" lon="-105.230575">
  <ele>1586.09</ele>
  <time>2026-08-27T18:24:26Z</time>
  <course>11.87</course>
  <speed>0.022360679774997897</speed>
  <fix>3d</fix>
</trkpt>
<trkpt lat="40.072842" lon="-105.230575">
  <ele>1586.09</ele>
  <time>2026-08-27T18:24:26Z</time>
  <course>266.03</course>
  <speed>0.0</speed>
  <fix>3d</fix>
</trkpt>
<trkpt lat="40.072842" lon="-105.230575">
  <ele>1586.09</ele>
  <time>2026-08-27T18:24:26Z</time>
  <course>11.86</course>
  <speed>0.022360679774997897</speed>
  <fix>3d</fix>
</trkpt>
<trkpt lat="40.072842" lon="-105.230575">
  <ele>1586.09</ele>
  <time>2026-08-27T18:24:26Z</time>
  <course>266.03</course>
  <speed>0.0</speed>
  <fix>3d</fix>
</trkpt>
<trkpt lat="40.072842" lon="-105.230575">
  <ele>1586.09</ele>
  <time>2026-08-27T18:24:26Z</time>
  <course>11.86</course>
  <speed>0.022360679774997897</speed>
  <fix>3d</fix>
</trkpt>
<trkpt lat="40.072842" lon="-105.230575">
  <ele>1586.09</ele>
  <time>2026-08-27T18:24:26Z</time>
  <course>266.03</course>
  <speed>0.0</speed>
  <fix>3d</fix>
</trkpt>
<trkpt lat="40.072842" lon="-105.230575">
  <ele>1586.09</ele>
  <time>2026-08-27T18:24:26Z</time>
  <course>11.85</course>
  <speed>0.0282842712474619</speed>
  <fix>3d</fix>
</trkpt>
<trkpt lat="40.072842" lon="-105.230575">
  <ele>1586.09</ele>
  <time>2026-08-27T18:24:26Z</time>
  <course>266.03</course>
  <speed>0.0</speed>
  <fix>3d</fix>
</trkpt>
<trkpt lat="40.072842" lon="-105.230575">
  <ele>1586.09</ele>
  <time>2026-08-27T18:24:26Z</time>
  <course>11.84</course>
  <speed>0.0282842712474619</speed>
  <fix>3d</fix>
</trkpt>
<trkpt lat="40.072842" lon="-105.230575">
  <ele>1586.09</ele>
  <time>2026-08-27T18:24:26Z</time>
  <course>266.03</course>
  <speed>0.0</speed>
  <fix>3d</fix>
</trkpt>
<trkpt lat="40.072842" lon="-105.230575">
  <ele>1586.09</ele>
  <time>2026-08-27T18:24:26Z</time>
  <course>11.83</course>
  <speed>0.0282842712474619</speed>
  <fix>3d</fix>
</trkpt>
<trkpt lat="40.072842" lon="-105.230575">
  <ele>1586.09</ele>
  <time>2026-08-27T18:24:26Z</time>
  <course>266.03</course>
  <speed>0.0</speed>
  <fix>3d</fix>
</trkpt>
<trkpt lat="40.072842" lon="-105.230575">
  <ele>1586.09</ele>
  <time>2026-08-27T18:24:26Z</time>
  <course>11.82</course>
  <speed>0.0282842712474619</speed>
  <fix>3d</fix>
</trkpt>
<trkpt lat="40.072842" lon="-105.230575">
  <ele>1586.09</ele>
  <time>2026-08-27T18:24:26Z</time>
  <course>266.03</course>
  <speed>0.0</speed>
  <fix>3d</fix>
</trkpt>
<trkpt lat="40.072842" lon="-105.230575">
  <ele>1586.09</ele>
  <time>2026-08-27T18:24:26Z</time>
  <course>11.82</course>
  <speed>0.0282842712474619</speed>
  <fix>3d</fix>
</trkpt>
<trkpt lat="40.072842" lon="-105.230575">
  <ele>1586.09</ele>
  <time>2026-08-27T18:24:26Z</time>
  <course>266.03</course>
  <speed>0.0</speed>
  <fix>3d</fix>
</trkpt>
<trkpt lat="40.072842" lon="-105.230575">
  <ele>1586.09</ele>
  <time>2026-08-27T18:24:26Z</time>
  <course>11.81</course>
  <speed>0.0282842712474619</speed>
  <fix>3d</fix>
</trkpt>
<trkpt lat="40.072842" lon="-105.230575">
  <ele>1586.09</ele>
  <time>2026-08-27T18:24:26Z</time>
  <course>266.03</course>
  <speed>0.0</speed>
  <fix>3d</fix>
</trkpt>
<trkpt lat="40.072842" lon="-105.230575">
  <ele>1586.09</ele>
  <time>2026-08-27T18:24:26Z</time>
  <course>11.8</course>
  <speed>0.0282842712474619</speed>
  <fix>3d</fix>
</trkpt>
<trkpt lat="40.072842" lon="-105.230575">
  <ele>1586.09</ele>
  <time>2026-08-27T18:24:26Z</time>
  <course>266.03</course>
  <speed>0.0</speed>
  <fix>3d</fix>
</trkpt>
<trkpt lat="40.072842" lon="-105.230575">
  <ele>1586.09</ele>
  <time>2026-08-27T18:24:26Z</time>
  <course>11.79</course>
  <speed>0.0282842712474619</speed>
  <fix>3d</fix>
</trkpt>
<trkpt lat="40.072842" lon="-105.230575">
  <ele>1586.09</ele>
  <time>2026-08-27T18:24:26Z</time>
  <course>266.03</course>
  <speed>0.0</speed>
  <fix>3d</fix>
</trkpt>
<trkpt lat="40.072842" lon="-105.230575">
  <ele>1586.09</ele>
  <time>2026-08-27T18:24:26Z</time>
  <course>11.78</course>
  <speed>0.0282842712474619</speed>
  <fix>3d</fix>
</trkpt>
<trkpt lat="40.072842" lon="-105.230575">
  <ele>1586.09</ele>
  <time>2026-08-27T18:24:26Z</time>
  <course>266.03</course>
  <speed>0.0</speed>
  <fix>3d</fix>
</trkpt>
<trkpt lat="40.072842" lon="-105.230575">
  <ele>1586.09</ele>
  <time>2026-08-27T18:24:26Z</time>
  <course>11.78</course>
  <speed>0.0282842712474619</speed>
  <fix>3d</fix>
</trkpt>
<trkpt lat="40.072842" lon="-105.230575">
  <ele>1586.09</ele>
  <time>2026-08-27T18:24:26Z</time>
  <course>266.03</course>
  <speed>0.0</speed>
  <fix>3d</fix>
</trkpt>
<trkpt lat="40.072842" lon="-105.230575">
  <ele>1586.09</ele>
  <time>2026-08-27T18:24:26Z</time>
  <course>11.77</course>
  <speed>0.0282842712474619</speed>
  <fix>3d</fix>
</trkpt>
<trkpt lat="40.072842" lon="-105.230575">
  <ele>1586.09</ele>
  <time>2026-08-27T18:24:26Z</time>
  <course>266.03</course>
  <speed>0.0</speed>
  <fix>3d</fix>
</trkpt>
<trkpt lat="40.072842" lon="-105.230575">
  <ele>1586.09</ele>
  <time>2026-08-27T18:24:26Z</time>
  <course>11.76</course>
  <speed>0.0282842712474619</speed>
  <fix>3d</fix>
</trkpt>
<trkpt lat="40.072842" lon="-105.230575">
  <ele>1586.09</ele>
  <time>2026-08-27T18:24:26Z</time>
  <course>266.03</course>
  <speed>0.0</speed>
  <fix>3d</fix>
</trkpt>
<trkpt lat="40.072842" lon="-105.230575">
  <ele>1586.09</ele>
  <time>2026-08-27T18:24:26Z</time>
  <course>11.76</course>
  <speed>0.0282842712474619</speed>
  <fix>3d</fix>
</trkpt>
<trkpt lat="40.072842" lon="-105.230575">
  <ele>1586.09</ele>
  <time>2026-08-27T18:24:26Z</time>
  <course>266.03</course>
  <speed>0.0</speed>
  <fix>3d</fix>
</trkpt>
<trkpt lat="40.072842" lon="-105.230575">
  <ele>1586.09</ele>
  <time>2026-08-27T18:24:26Z</time>
  <course>11.75</course>
  <speed>0.03605551275463989</speed>
  <fix>3d</fix>
</trkpt>
<trkpt lat="40.072842" lon="-105.230575">
  <ele>1586.09</ele>
  <time>2026-08-27T18:24:26Z</time>
  <course>266.03</course>
  <speed>0.0</speed>
  <fix>3d</fix>
</trkpt>
<trkpt lat="40.072842" lon="-105.230575">
  <ele>1586.09</ele>
  <time>2026-08-27T18:24:26Z</time>
  <course>11.74</course>
  <speed>0.03605551275463989</speed>
  <fix>3d</fix>
</trkpt>
<trkpt lat="40.072842" lon="-105.230575">
  <ele>1586.09</ele>
  <time>2026-08-27T18:24:26Z</time>
  <course>266.03</course>
  <speed>0.0</speed>
  <fix>3d</fix>
</trkpt>
<trkpt lat="40.072842" lon="-105.230575">
  <ele>1586.09</ele>
  <time>2026-08-27T18:24:26Z</time>
  <course>11.73</course>
  <speed>0.03605551275463989</speed>
  <fix>3d</fix>
</trkpt>
<trkpt lat="40.072842" lon="-105.230575">
  <ele>1586.09</ele>
  <time>2026-08-27T18:24:26Z</time>
  <course>266.03</course>
  <speed>0.0</speed>
  <fix>3d</fix>
</trkpt>
<trkpt lat="40.072842" lon="-105.230575">
  <ele>1586.09</ele>
  <time>2026-08-27T18:24:26Z</time>
  <course>11.72</course>
  <speed>0.03605551275463989</speed>
  <fix>3d</fix>
</trkpt>
<trkpt lat="40.072842" lon="-105.230575">
  <ele>1586.09</ele>
  <time>2026-08-27T18:24:26Z</time>
  <course>266.03</course>
  <speed>0.0</speed>
  <fix>3d</fix>
</trkpt>
<trkpt lat="40.072842" lon="-105.230575">
  <ele>1586.09</ele>
  <time>2026-08-27T18:24:26Z</time>
  <course>11.72</course>
  <speed>0.03605551275463989</speed>
  <fix>3d</fix>
</trkpt>
<trkpt lat="40.072842" lon="-105.230575">
  <ele>1586.09</ele>
  <time>2026-08-27T18:24:26Z</time>
  <course>266.03</course>
  <speed>0.0</speed>
  <fix>3d</fix>
</trkpt>
<trkpt lat="40.072842" lon="-105.230575">
  <ele>1586.09</ele>
  <time>2026-08-27T18:24:26Z</time>
  <course>11.71</course>
  <speed>0.03605551275463989</speed>
  <fix>3d</fix>
</trkpt>
<trkpt lat="40.072842" lon="-105.230575">
  <ele>1586.09</ele>
  <time>2026-08-27T18:24:26Z</time>
  <course>266.03</course>
  <speed>0.0</speed>
  <fix>3d</fix>
</trkpt>
<trkpt lat="40.072842" lon="-105.230575">
  <ele>1586.09</ele>
  <time>2026-08-27T18:24:26Z</time>
  <course>11.7</course>
  <speed>0.03605551275463989</speed>
  <fix>3d</fix>
</trkpt>
<trkpt lat="40.072842" lon="-105.230575">
  <ele>1586.09</ele>
  <time>2026-08-27T18:24:26Z</time>
  <course>266.03</course>
  <speed>0.0</speed>
  <fix>3d</fix>
</trkpt>
<trkpt lat="40.072842" lon="-105.230575">
  <ele>1586.09</ele>
  <time>2026-08-27T18:24:26Z</time>
  <course>11.7</course>
  <speed>0.03605551275463989</speed>
  <fix>3d</fix>
</trkpt>
<trkpt lat="40.072842" lon="-105.230575">
  <ele>1586.09</ele>
  <time>2026-08-27T18:24:26Z</time>
  <course>266.03</course>
  <speed>0.0</speed>
  <fix>3d</fix>
</trkpt>
<trkpt lat="40.072842" lon="-105.230575">
  <ele>1586.09</ele>
  <time>2026-08-27T18:24:26Z</time>
  <course>11.69</course>
  <speed>0.03605551275463989</speed>
  <fix>3d</fix>
</trkpt>
<trkpt lat="40.072842" lon="-105.230575">
  <ele>1586.09</ele>
  <time>2026-08-27T18:24:26Z</time>
  <course>266.03</course>
  <speed>0.0</speed>
  <fix>3d</fix>
</trkpt>
<trkpt lat="40.072842" lon="-105.230575">
  <ele>1586.09</ele>
  <time>2026-08-27T18:24:26Z</time>
  <course>11.68</course>
  <speed>0.03605551275463989</speed>
  <fix>3d</fix>
</trkpt>
<trkpt lat="40.072842" lon="-105.230575">
  <ele>1586.09</ele>
  <time>2026-08-27T18:24:26Z</time>
  <course>266.03</course>
  <speed>0.0</speed>
  <fix>3d</fix>
</trkpt>
<trkpt lat="40.072842" lon="-105.230575">
  <ele>1586.09</ele>
  <time>2026-08-27T18:24:26Z</time>
  <course>11.67</course>
  <speed>0.03605551275463989</speed>
  <fix>3d</fix>
</trkpt>
<trkpt lat="40.072842" lon="-105.230575">
  <ele>1586.09</ele>
  <time>2026-08-27T18:24:26Z</time>
  <course>266.03</course>
  <speed>0.0</speed>
  <fix>3d</fix>
</trkpt>
<trkpt lat="40.072842" lon="-105.230575">
  <ele>1586.09</ele>
  <time>2026-08-27T18:24:26Z</time>
  <course>11.67</course>
  <speed>0.03605551275463989</speed>
  <fix>3d</fix>
</trkpt>
<trkpt lat="40.072842" lon="-105.230575">
  <ele>1586.09</ele>
  <time>2026-08-27T18:24:26Z</time>
  <course>266.03</course>
  <speed>0.0</speed>
  <fix>3d</fix>
</trkpt>
<trkpt lat="40.072842" lon="-105.230575">
  <ele>1586.09</ele>
  <time>2026-08-27T18:24:26Z</time>
  <course>11.66</course>
  <speed>0.03605551275463989</speed>
  <fix>3d</fix>
</trkpt>
<trkpt lat="40.072842" lon="-105.230575">
  <ele>1586.09</ele>
  <time>2026-08-27T18:24:26Z</time>
  <course>266.03</course>
  <speed>0.0</speed>
  <fix>3d</fix>
</trkpt>
<trkpt lat="40.072842" lon="-105.230575">
  <ele>1586.09</ele>
  <time>2026-08-27T18:24:26Z</time>
  <course>11.65</course>
  <speed>0.03605551275463989</speed>
  <fix>3d</fix>
</trkpt>
<trkpt lat="40.072842" lon="-105.230575">
  <ele>1586.09</ele>
  <time>2026-08-27T18:24:26Z</time>
  <course>266.03</course>
  <speed>0.0</speed>
  <fix>3d</fix>
</trkpt>
<trkpt lat="40.072842" lon="-105.230575">
  <ele>1586.09</ele>
  <time>2026-08-27T18:24:26Z</time>
  <course>11.65</course>
  <speed>0.03605551275463989</speed>
  <fix>3d</fix>
</trkpt>
<trkpt lat="40.072842" lon="-105.230575">
  <ele>1586.09</ele>
  <time>2026-08-27T18:24:26Z</time>
  <course>266.03</course>
  <speed>0.0</speed>
  <fix>3d</fix>
</trkpt>
<trkpt lat="40.072842" lon="-105.230575">
  <ele>1586.09</ele>
  <time>2026-08-27T18:24:26Z</time>
  <course>11.64</course>
  <speed>0.03605551275463989</speed>
  <fix>3d</fix>
</trkpt>
<trkpt lat="40.072842" lon="-105.230575">
  <ele>1586.09</ele>
  <time>2026-08-27T18:24:26Z</time>
  <course>266.03</course>
  <speed>0.0</speed>
  <fix>3d</fix>
</trkpt>
<trkpt lat="40.072842" lon="-105.230575">
  <ele>1586.09</ele>
  <time>2026-08-27T18:24:26Z</time>
  <course>11.63</course>
  <speed>0.03605551275463989</speed>
  <fix>3d</fix>
</trkpt>
<trkpt lat="40.072842" lon="-105.230575">
  <ele>1586.09</ele>
  <time>2026-08-27T18:24:26Z</time>
  <course>266.03</course>
  <speed>0.0</speed>
  <fix>3d</fix>
</trkpt>
<trkpt lat="40.072842" lon="-105.230575">
  <ele>1586.09</ele>
  <time>2026-08-27T18:24:26Z</time>
  <course>11.63</course>
  <speed>0.03605551275463989</speed>
  <fix>3d</fix>
</trkpt>
<trkpt lat="40.072842" lon="-105.230575">
  <ele>1586.09</ele>
  <time>2026-08-27T18:24:26Z</time>
  <course>266.03</course>
  <speed>0.0</speed>
  <fix>3d</fix>
</trkpt>
<trkpt lat="40.072842" lon="-105.230575">
  <ele>1586.09</ele>
  <time>2026-08-27T18:24:26Z</time>
  <course>11.62</course>
  <speed>0.03605551275463989</speed>
  <fix>3d</fix>
</trkpt>
<trkpt lat="40.072842" lon="-105.230575">
  <ele>1586.09</ele>
  <time>2026-08-27T18:24:26Z</time>
  <course>266.03</course>
  <speed>0.0</speed>
  <fix>3d</fix>
</trkpt>
<trkpt lat="40.072842" lon="-105.230575">
  <ele>1586.09</ele>
  <time>2026-08-27T18:24:26Z</time>
  <course>11.61</course>
  <speed>0.03605551275463989</speed>
  <fix>3d</fix>
</trkpt>
<trkpt lat="40.072842" lon="-105.230575">
  <ele>1586.09</ele>
  <time>2026-08-27T18:24:26Z</time>
  <course>266.03</course>
  <speed>0.0</speed>
  <fix>3d</fix>
</trkpt>
<trkpt lat="40.072842" lon="-105.230575">
  <ele>1586.09</ele>
  <time>2026-08-27T18:24:26Z</time>
  <course>11.61</course>
  <speed>0.03605551275463989</speed>
  <fix>3d</fix>
</trkpt>
<trkpt lat="40.072842" lon="-105.230575">
  <ele>1586.09</ele>
  <time>2026-08-27T18:24:26Z</time>
  <course>266.03</course>
  <speed>0.0</speed>
  <fix>3d</fix>
</trkpt>
<trkpt lat="40.072842" lon="-105.230575">
  <ele>1586.09</ele>
  <time>2026-08-27T18:24:26Z</time>
  <course>11.6</course>
  <speed>0.03605551275463989</speed>
  <fix>3d</fix>
</trkpt>
<trkpt lat="40.072842" lon="-105.230575">
  <ele>1586.09</ele>
  <time>2026-08-27T18:24:26Z</time>
  <course>266.03</course>
  <speed>0.0</speed>
  <fix>3d</fix>
</trkpt>
<trkpt lat="40.072842" lon="-105.230575">
  <ele>1586.09</ele>
  <time>2026-08-27T18:24:26Z</time>
  <course>11.59</course>
  <speed>0.03605551275463989</speed>
  <fix>3d</fix>
</trkpt>
<trkpt lat="40.072842" lon="-105.230575">
  <ele>1586.09</ele>
  <time>2026-08-27T18:24:26Z</time>
  <course>266.03</course>
  <speed>0.0</speed>
  <fix>3d</fix>
</trkpt>
<trkpt lat="40.072842" lon="-105.230575">
  <ele>1586.09</ele>
  <time>2026-08-27T18:24:26Z</time>
  <course>11.59</course>
  <speed>0.03605551275463989</speed>
  <fix>3d</fix>
</trkpt>
<trkpt lat="40.072842" lon="-105.230575">
  <ele>1586.09</ele>
  <time>2026-08-27T18:24:26Z</time>
  <course>266.03</course>
  <speed>0.0</speed>
  <fix>3d</fix>
</trkpt>
<trkpt lat="40.072842" lon="-105.230575">
  <ele>1586.09</ele>
  <time>2026-08-27T18:24:26Z</time>
  <course>11.58</course>
  <speed>0.03605551275463989</speed>
  <fix>3d</fix>
</trkpt>
<trkpt lat="40.072842" lon="-105.230575">
  <ele>1586.09</ele>
  <time>2026-08-27T18:24:26Z</time>
  <course>266.03</course>
  <speed>0.0</speed>
  <fix>3d</fix>
</trkpt>
<trkpt lat="40.072842" lon="-105.230575">
  <ele>1586.09</ele>
  <time>2026-08-27T18:24:26Z</time>
  <course>11.58</course>
  <speed>0.03605551275463989</speed>
  <fix>3d</fix>
</trkpt>
<trkpt lat="40.072842" lon="-105.230575">
  <ele>1586.09</ele>
  <time>2026-08-27T18:24:26Z</time>
  <course>266.03</course>
  <speed>0.0</speed>
  <fix>3d</fix>
</trkpt>
<trkpt lat="40.072842" lon="-105.230575">
  <ele>1586.09</ele>
  <time>2026-08-27T18:24:26Z</time>
  <course>11.57</course>
  <speed>0.03605551275463989</speed>
  <fix>3d</fix>
</trkpt>
<trkpt lat="40.072842" lon="-105.230575">
  <ele>1586.09</ele>
  <time>2026-08-27T18:24:26Z</time>
  <course>266.03</course>
  <speed>0.0</speed>
  <fix>3d</fix>
</trkpt>
<trkpt lat="40.072842" lon="-105.230575">
  <ele>1586.09</ele>
  <time>2026-08-27T18:24:26Z</time>
  <course>11.56</course>
  <speed>0.03605551275463989</speed>
  <fix>3d</fix>
</trkpt>
<trkpt lat="40.072842" lon="-105.230575">
  <ele>1586.09</ele>
  <time>2026-08-27T18:24:26Z</time>
  <course>266.03</course>
  <speed>0.0</speed>
  <fix>3d</fix>
</trkpt>
<trkpt lat="40.072842" lon="-105.230575">
  <ele>1586.09</ele>
  <time>2026-08-27T18:24:26Z</time>
  <course>11.56</course>
  <speed>0.03605551275463989</speed>
  <fix>3d</fix>
</trkpt>
<trkpt lat="40.072842" lon="-105.230575">
  <ele>1586.09</ele>
  <time>2026-08-27T18:24:26Z</time>
  <course>266.03</course>
  <speed>0.0</speed>
  <fix>3d</fix>
</trkpt>
<trkpt lat="40.072842" lon="-105.230575">
  <ele>1586.09</ele>
  <time>2026-08-27T18:24:26Z</time>
  <course>11.55</course>
  <speed>0.03605551275463989</speed>
  <fix>3d</fix>
</trkpt>
<trkpt lat="40.072842" lon="-105.230575">
  <ele>1586.09</ele>
  <time>2026-08-27T18:24:26Z</time>
  <course>266.03</course>
  <speed>0.0</speed>
  <fix>3d</fix>
</trkpt>
<trkpt lat="40.072842" lon="-105.230575">
  <ele>1586.09</ele>
  <time>2026-08-27T18:24:26Z</time>
  <course>11.54</course>
  <speed>0.03605551275463989</speed>
  <fix>3d</fix>
</trkpt>
<trkpt lat="40.072842" lon="-105.230575">
  <ele>1586.09</ele>
  <time>2026-08-27T18:24:26Z</time>
  <course>266.03</course>
  <speed>0.0</speed>
  <fix>3d</fix>
</trkpt>
<trkpt lat="40.072842" lon="-105.230575">
  <ele>1586.09</ele>
  <time>2026-08-27T18:24:26Z</time>
  <course>11.54</course>
  <speed>0.03605551275463989</speed>
  <fix>3d</fix>
</trkpt>
<trkpt lat="40.072842" lon="-105.230575">
  <ele>1586.09</ele>
  <time>2026-08-27T18:24:26Z</time>
  <course>266.03</course>
  <speed>0.0</speed>
  <fix>3d</fix>
</trkpt>
<trkpt lat="40.072842" lon="-105.230575">
  <ele>1586.09</ele>
  <time>2026-08-27T18:24:26Z</time>
  <course>11.53</course>
  <speed>0.03605551275463989</speed>
  <fix>3d</fix>
</trkpt>
<trkpt lat="40.072842" lon="-105.230575">
  <ele>1586.09</ele>
  <time>2026-08-27T18:24:26Z</time>
  <course>266.03</course>
  <speed>0.0</speed>
  <fix>3d</fix>
</trkpt>
<trkpt lat="40.072842" lon="-105.230575">
  <ele>1586.09</ele>
  <time>2026-08-27T18:24:26Z</time>
  <course>11.53</course>
  <speed>0.03605551275463989</speed>
  <fix>3d</fix>
</trkpt>
<trkpt lat="40.072842" lon="-105.230575">
  <ele>1586.09</ele>
  <time>2026-08-27T18:24:26Z</time>
  <course>266.03</course>
  <speed>0.0</speed>
  <fix>3d</fix>
</trkpt>
<trkpt lat="40.072842" lon="-105.230575">
  <ele>1586.09</ele>
  <time>2026-08-27T18:24:26Z</time>
  <course>11.52</course>
  <speed>0.03605551275463989</speed>
  <fix>3d</fix>
</trkpt>
<trkpt lat="40.072842" lon="-105.230575">
  <ele>1586.09</ele>
  <time>2026-08-27T18:24:26Z</time>
  <course>266.03</course>
  <speed>0.0</speed>
  <fix>3d</fix>
</trkpt>
<trkpt lat="40.072842" lon="-105.230575">
  <ele>1586.09</ele>
  <time>2026-08-27T18:24:26Z</time>
  <course>11.51</course>
  <speed>0.03605551275463989</speed>
  <fix>3d</fix>
</trkpt>
<trkpt lat="40.072842" lon="-105.230575">
  <ele>1586.09</ele>
  <time>2026-08-27T18:24:26Z</time>
  <course>266.03</course>
  <speed>0.0</speed>
  <fix>3d</fix>
</trkpt>
<trkpt lat="40.072842" lon="-105.230575">
  <ele>1586.09</ele>
  <time>2026-08-27T18:24:26Z</time>
  <course>11.51</course>
  <speed>0.03605551275463989</speed>
  <fix>3d</fix>
</trkpt>
<trkpt lat="40.072842" lon="-105.230575">
  <ele>1586.09</ele>
  <time>2026-08-27T18:24:26Z</time>
  <course>266.03</course>
  <speed>0.0</speed>
  <fix>3d</fix>
</trkpt>
<trkpt lat="40.072842" lon="-105.230575">
  <ele>1586.09</ele>
  <time>2026-08-27T18:24:26Z</time>
  <course>11.5</course>
  <speed>0.044721359549995794</speed>
  <fix>3d</fix>
</trkpt>
<trkpt lat="40.072842" lon="-105.230575">
  <ele>1586.09</ele>
  <time>2026-08-27T18:24:26Z</time>
  <course>266.03</course>
  <speed>0.0</speed>
  <fix>3d</fix>
</trkpt>
<trkpt lat="40.072842" lon="-105.230575">
  <ele>1586.09</ele>
  <time>2026-08-27T18:24:26Z</time>
  <course>11.5</course>
  <speed>0.044721359549995794</speed>
  <fix>3d</fix>
</trkpt>
<trkpt lat="40.072842" lon="-105.230575">
  <ele>1586.09</ele>
  <time>2026-08-27T18:24:26Z</time>
  <course>266.03</course>
  <speed>0.0</speed>
  <fix>3d</fix>
</trkpt>
<trkpt lat="40.072842" lon="-105.230575">
  <ele>1586.09</ele>
  <time>2026-08-27T18:24:26Z</time>
  <course>11.49</course>
  <speed>0.044721359549995794</speed>
  <fix>3d</fix>
</trkpt>
<trkpt lat="40.072842" lon="-105.230575">
  <ele>1586.09</ele>
  <time>2026-08-27T18:24:26Z</time>
  <course>266.03</course>
  <speed>0.0</speed>
  <fix>3d</fix>
</trkpt>
<trkpt lat="40.072842" lon="-105.230575">
  <ele>1586.09</ele>
  <time>2026-08-27T18:24:26Z</time>
  <course>11.49</course>
  <speed>0.044721359549995794</speed>
  <fix>3d</fix>
</trkpt>
<trkpt lat="40.072842" lon="-105.230575">
  <ele>1586.09</ele>
  <time>2026-08-27T18:24:26Z</time>
  <course>266.03</course>
  <speed>0.0</speed>
  <fix>3d</fix>
</trkpt>
<trkpt lat="40.072842" lon="-105.230575">
  <ele>1586.09</ele>
  <time>2026-08-27T18:24:26Z</time>
  <course>11.48</course>
  <speed>0.044721359549995794</speed>
  <fix>3d</fix>
</trkpt>
<trkpt lat="40.072842" lon="-105.230575">
  <ele>1586.09</ele>
  <time>2026-08-27T18:24:26Z</time>
  <course>266.03</course>
  <speed>0.0</speed>
  <fix>3d</fix>
</trkpt>
<trkpt lat="40.072842" lon="-105.230575">
  <ele>1586.09</ele>
  <time>2026-08-27T18:24:26Z</time>
  <course>11.48</course>
  <speed>0.044721359549995794</speed>
  <fix>3d</fix>
</trkpt>
<trkpt lat="40.072842" lon="-105.230575">
  <ele>1586.09</ele>
  <time>2026-08-27T18:24:26Z</time>
  <course>266.03</course>
  <speed>0.0</speed>
  <fix>3d</fix>
</trkpt>
<trkpt lat="40.072842" lon="-105.230575">
  <ele>1586.09</ele>
  <time>2026-08-27T18:24:26Z</time>
  <course>11.47</course>
  <speed>0.044721359549995794</speed>
  <fix>3d</fix>
</trkpt>
<trkpt lat="40.072842" lon="-105.230575">
  <ele>1586.09</ele>
  <time>2026-08-27T18:24:26Z</time>
  <course>266.03</course>
  <speed>0.0</speed>
  <fix>3d</fix>
</trkpt>
<trkpt lat="40.072842" lon="-105.230575">
  <ele>1586.09</ele>
  <time>2026-08-27T18:24:26Z</time>
  <course>11.47</course>
  <speed>0.044721359549995794</speed>
  <fix>3d</fix>
</trkpt>
<trkpt lat="40.072842" lon="-105.230575">
  <ele>1586.09</ele>
  <time>2026-08-27T18:24:26Z</time>
  <course>266.03</course>
  <speed>0.0</speed>
  <fix>3d</fix>
</trkpt>
<trkpt lat="40.072842" lon="-105.230575">
  <ele>1586.09</ele>
  <time>2026-08-27T18:24:26Z</time>
  <course>11.46</course>
  <speed>0.044721359549995794</speed>
  <fix>3d</fix>
</trkpt>
<trkpt lat="40.072842" lon="-105.230575">
  <ele>1586.09</ele>
  <time>2026-08-27T18:24:26Z</time>
  <course>266.03</course>
  <speed>0.0</speed>
  <fix>3d</fix>
</trkpt>
<trkpt lat="40.072842" lon="-105.230575">
  <ele>1586.09</ele>
  <time>2026-08-27T18:24:26Z</time>
  <course>11.46</course>
  <speed>0.044721359549995794</speed>
  <fix>3d</fix>
</trkpt>
<trkpt lat="40.072842" lon="-105.230575">
  <ele>1586.09</ele>
  <time>2026-08-27T18:24:26Z</time>
  <course>266.03</course>
  <speed>0.0</speed>
  <fix>3d</fix>
</trkpt>
<trkpt lat="40.072842" lon="-105.230575">
  <ele>1586.16</ele>
  <time>2026-08-27T18:24:26Z</time>
  <course>11.45</course>
  <speed>0.0</speed>
  <fix>3d</fix>
</trkpt>
<trkpt lat="40.072842" lon="-105.230575">
  <ele>1586.09</ele>
  <time>2026-08-27T18:24:26Z</time>
  <course>297.19</course>
  <speed>0.0</speed>
  <fix>3d</fix>
</trkpt>
<trkpt lat="40.072842" lon="-105.230575">
  <ele>1586.16</ele>
  <time>2026-08-27T18:24:26Z</time>
  <course>11.45</course>
  <speed>0.0</speed>
  <fix>3d</fix>
</trkpt>
<trkpt lat="40.072842" lon="-105.230575">
  <ele>1586.09</ele>
  <time>2026-08-27T18:24:26Z</time>
  <course>269.87</course>
  <speed>0.0</speed>
  <fix>3d</fix>
</trkpt>
<trkpt lat="40.072842" lon="-105.230575">
  <ele>1586.16</ele>
  <time>2026-08-27T18:24:26Z</time>
  <course>11.44</course>
  <speed>0.0</speed>
  <fix>3d</fix>
</trkpt>
<trkpt lat="40.072842" lon="-105.230575">
  <ele>1586.09</ele>
  <time>2026-08-27T18:24:26Z</time>
  <course>241.23</course>
  <speed>0.0</speed>
  <fix>3d</fix>
</trkpt>
<trkpt lat="40.072842" lon="-105.230575">
  <ele>1586.16</ele>
  <time>2026-08-27T18:24:26Z</time>
  <course>11.44</course>
  <speed>0.0</speed>
  <fix>3d</fix>
</trkpt>
<trkpt lat="40.072842" lon="-105.230575">
  <ele>1586.09</ele>
  <time>2026-08-27T18:24:26Z</time>
  <course>93.08</course>
  <speed>0.0</speed>
  <fix>3d</fix>
</trkpt>
<trkpt lat="40.072842" lon="-105.230575">
  <ele>1586.17</ele>
  <time>2026-08-27T18:24:26Z</time>
  <course>11.43</course>
  <speed>0.0</speed>
  <fix>3d</fix>
</trkpt>
<trkpt lat="40.072842" lon="-105.230575">
  <ele>1586.09</ele>
  <time>2026-08-27T18:24:26Z</time>
  <course>317.31</course>
  <speed>0.0</speed>
  <fix>3d</fix>
</trkpt>
<trkpt lat="40.072842" lon="-105.230575">
  <ele>1586.17</ele>
  <time>2026-08-27T18:24:26Z</time>
  <course>11.43</course>
  <speed>0.01</speed>
  <fix>3d</fix>
</trkpt>
<trkpt lat="40.072842" lon="-105.230575">
  <ele>1586.09</ele>
  <time>2026-08-27T18:24:26Z</time>
  <course>265.24</course>
  <speed>0.0</speed>
  <fix>3d</fix>
</trkpt>
<trkpt lat="40.072842" lon="-105.230575">
  <ele>1586.17</ele>
  <time>2026-08-27T18:24:26Z</time>
  <course>11.43</course>
  <speed>0.01</speed>
  <fix>3d</fix>
</trkpt>
<trkpt lat="40.072842" lon="-105.230575">
  <ele>1586.09</ele>
  <time>2026-08-27T18:24:26Z</time>
  <course>261.76</course>
  <speed>0.0</speed>
  <fix>3d</fix>
</trkpt>
<trkpt lat="40.072842" lon="-105.230575">
  <ele>1586.17</ele>
  <time>2026-08-27T18:24:26Z</time>
  <course>11.42</course>
  <speed>0.01414213562373095</speed>
  <fix>3d</fix>
</trkpt>
<trkpt lat="40.072842" lon="-105.230575">
  <ele>1586.09</ele>
  <time>2026-08-27T18:24:26Z</time>
  <course>266.78</course>
  <speed>0.0</speed>
  <fix>3d</fix>
</trkpt>
<trkpt lat="40.072842" lon="-105.230575">
  <ele>1586.17</ele>
  <time>2026-08-27T18:24:26Z</time>
  <course>11.42</course>
  <speed>0.01414213562373095</speed>
  <fix>3d</fix>
</trkpt>
<trkpt lat="40.072842" lon="-105.230575">
  <ele>1586.09</ele>
  <time>2026-08-27T18:24:26Z</time>
  <course>266.53</course>
  <speed>0.0</speed>
  <fix>3d</fix>
</trkpt>
<trkpt lat="40.072842" lon="-105.230575">
  <ele>1586.17</ele>
  <time>2026-08-27T18:24:26Z</time>
  <course>11.41</course>
  <speed>0.01414213562373095</speed>
  <fix>3d</fix>
</trkpt>
<trkpt lat="40.072842" lon="-105.230575">
  <ele>1586.09</ele>
  <time>2026-08-27T18:24:26Z</time>
  <course>265.88</course>
  <speed>0.0</speed>
  <fix>3d</fix>
</trkpt>
<trkpt lat="40.072842" lon="-105.230575">
  <ele>1586.17</ele>
  <time>2026-08-27T18:24:26Z</time>
  <course>11.41</course>
  <speed>0.01414213562373095</speed>
  <fix>3d</fix>
</trkpt>
<trkpt lat="40.072842" lon="-105.230575">
  <ele>1586.09</ele>
  <time>2026-08-27T18:24:26Z</time>
  <course>265.99</course>
  <speed>0.0</speed>
  <fix>3d</fix>
</trkpt>
<trkpt lat="40.072842" lon="-105.230575">
  <ele>1586.17</ele>
  <time>2026-08-27T18:24:26Z</time>
  <course>11.41</course>
  <speed>0.022360679774997897</speed>
  <fix>3d</fix>
</trkpt>
<trkpt lat="40.072842" lon="-105.230575">
  <ele>1586.09</ele>
  <time>2026-08-27T18:24:26Z</time>
  <course>266.06</course>
  <speed>0.0</speed>
  <fix>3d</fix>
</trkpt>
<trkpt lat="40.072842" lon="-105.230575">
  <ele>1586.17</ele>
  <time>2026-08-27T18:24:26Z</time>
  <course>11.4</course>
  <speed>0.022360679774997897</speed>
  <fix>3d</fix>
</trkpt>
<trkpt lat="40.072842" lon="-105.230575">
  <ele>1586.09</ele>
  <time>2026-08-27T18:24:26Z</time>
  <course>266.04</course>
  <speed>0.0</speed>
  <fix>3d</fix>
</trkpt>
<trkpt lat="40.072842" lon="-105.230575">
  <ele>1586.17</ele>
  <time>2026-08-27T18:24:26Z</time>
  <course>11.4</course>
  <speed>0.022360679774997897</speed>
  <fix>3d</fix>
</trkpt>
<trkpt lat="40.072842" lon="-105.230575">
  <ele>1586.09</ele>
  <time>2026-08-27T18:24:26Z</time>
  <course>266.03</course>
  <speed>0.0</speed>
  <fix>3d</fix>
</trkpt>
<trkpt lat="40.072842" lon="-105.230575">
  <ele>1586.17</ele>
  <time>2026-08-27T18:24:26Z</time>
  <course>11.39</course>
  <speed>0.022360679774997897</speed>
  <fix>3d</fix>
</trkpt>
<trkpt lat="40.072842" lon="-105.230575">
  <ele>1586.09</ele>
  <time>2026-08-27T18:24:26Z</time>
  <course>266.04</course>
  <speed>0.0</speed>
  <fix>3d</fix>
</trkpt>
<trkpt lat="40.0728419" lon="-105.230575">
  <ele>1586.17</ele>
  <time>2026-08-27T18:24:26Z</time>
  <course>11.39</course>
  <speed>0.022360679774997897</speed>
  <fix>3d</fix>
</trkpt>
<trkpt lat="40.072842" lon="-105.230575">
  <ele>1586.09</ele>
  <time>2026-08-27T18:24:26Z</time>
  <course>266.04</course>
  <speed>0.0</speed>
  <fix>3d</fix>
</trkpt>
<trkpt lat="40.0728419" lon="-105.2305749">
  <ele>1586.17</ele>
  <time>2026-08-27T18:24:26Z</time>
  <course>11.39</course>
  <speed>0.022360679774997897</speed>
  <fix>3d</fix>
</trkpt>
<trkpt lat="40.072842" lon="-105.230575">
  <ele>1586.09</ele>
  <time>2026-08-27T18:24:26Z</time>
  <course>266.03</course>
  <speed>0.0</speed>
  <fix>3d</fix>
</trkpt>
<trkpt lat="40.0728419" lon="-105.2305749">
  <ele>1586.17</ele>
  <time>2026-08-27T18:24:26Z</time>
  <course>11.38</course>
  <speed>0.022360679774997897</speed>
  <fix>3d</fix>
</trkpt>
<trkpt lat="40.072842" lon="-105.230575">
  <ele>1586.09</ele>
  <time>2026-08-27T18:24:26Z</time>
  <course>266.03</course>
  <speed>0.0</speed>
  <fix>3d</fix>
</trkpt>
<trkpt lat="40.0728419" lon="-105.2305749">
  <ele>1586.18</ele>
  <time>2026-08-27T18:24:26Z</time>
  <course>11.38</course>
  <speed>0.022360679774997897</speed>
  <fix>3d</fix>
</trkpt>
<trkpt lat="40.072842" lon="-105.230575">
  <ele>1586.09</ele>
  <time>2026-08-27T18:24:26Z</time>
  <course>266.04</course>
  <speed>0.0</speed>
  <fix>3d</fix>
</trkpt>
<trkpt lat="40.0728419" lon="-105.2305749">
  <ele>1586.18</ele>
  <time>2026-08-27T18:24:26Z</time>
  <course>11.37</course>
  <speed>0.022360679774997897</speed>
  <fix>3d</fix>
</trkpt>
<trkpt lat="40.072842" lon="-105.230575">
  <ele>1586.09</ele>
  <time>2026-08-27T18:24:26Z</time>
  <course>266.04</course>
  <speed>0.0</speed>
  <fix>3d</fix>
</trkpt>
<trkpt lat="40.0728419" lon="-105.2305749">
  <ele>1586.17</ele>
  <time>2026-08-27T18:24:26Z</time>
  <course>11.37</course>
  <speed>0.022360679774997897</speed>
  <fix>3d</fix>
</trkpt>
<trkpt lat="40.072842" lon="-105.230575">
  <ele>1586.09</ele>
  <time>2026-08-27T18:24:26Z</time>
  <course>178.09</course>
  <speed>0.0</speed>
  <fix>3d</fix>
</trkpt>
<trkpt lat="40.0728419" lon="-105.2305749">
  <ele>1586.17</ele>
  <time>2026-08-27T18:24:26Z</time>
  <course>11.36</course>
  <speed>0.022360679774997897</speed>
  <fix>3d</fix>
</trkpt>
<trkpt lat="40.072842" lon="-105.230575">
  <ele>1586.09</ele>
  <time>2026-08-27T18:24:26Z</time>
  <course>82.55</course>
  <speed>0.0</speed>
  <fix>3d</fix>
</trkpt>
<trkpt lat="40.0728419" lon="-105.2305749">
  <ele>1586.17</ele>
  <time>2026-08-27T18:24:26Z</time>
  <course>11.36</course>
  <speed>0.022360679774997897</speed>
  <fix>3d</fix>
</trkpt>
<trkpt lat="40.072842" lon="-105.230575">
  <ele>1586.09</ele>
  <time>2026-08-27T18:24:26Z</time>
  <course>70.11</course>
  <speed>0.0</speed>
  <fix>3d</fix>
</trkpt>
<trkpt lat="40.0728419" lon="-105.2305749">
  <ele>1586.17</ele>
  <time>2026-08-27T18:24:26Z</time>
  <course>11.35</course>
  <speed>0.022360679774997897</speed>
  <fix>3d</fix>
</trkpt>
<trkpt lat="40.072842" lon="-105.230575">
  <ele>1586.09</ele>
  <time>2026-08-27T18:24:26Z</time>
  <course>280.93</course>
  <speed>0.0</speed>
  <fix>3d</fix>
</trkpt>
<trkpt lat="40.0728419" lon="-105.2305749">
  <ele>1586.17</ele>
  <time>2026-08-27T18:24:26Z</time>
  <course>11.35</course>
  <speed>0.01414213562373095</speed>
  <fix>3d</fix>
</trkpt>
<trkpt lat="40.072842" lon="-105.230575">
  <ele>1586.09</ele>
  <time>2026-08-27T18:24:26Z</time>
  <course>245.32</course>
  <speed>0.0</speed>
  <fix>3d</fix>
</trkpt>
<trkpt lat="40.0728419" lon="-105.2305749">
  <ele>1586.16</ele>
  <time>2026-08-27T18:24:27Z</time>
  <course>11.35</course>
  <speed>0.01414213562373095</speed>
  <fix>3d</fix>
</trkpt>
<trkpt lat="40.072842" lon="-105.230575">
  <ele>1586.09</ele>
  <time>2026-08-27T18:24:27Z</time>
  <course>117.15</course>
  <speed>0.0</speed>
  <fix>3d</fix>
</trkpt>
<trkpt lat="40.0728419" lon="-105.2305749">
  <ele>1586.16</ele>
  <time>2026-08-27T18:24:27Z</time>
  <course>11.34</course>
  <speed>0.01414213562373095</speed>
  <fix>3d</fix>
</trkpt>
<trkpt lat="40.072842" lon="-105.230575">
  <ele>1586.09</ele>
  <time>2026-08-27T18:24:27Z</time>
  <course>279.17</course>
  <speed>0.0</speed>
  <fix>3d</fix>
</trkpt>
<trkpt lat="40.0728419" lon="-105.2305749">
  <ele>1586.16</ele>
  <time>2026-08-27T18:24:27Z</time>
  <course>11.34</course>
  <speed>0.01414213562373095</speed>
  <fix>3d</fix>
</trkpt>
<trkpt lat="40.072842" lon="-105.230575">
  <ele>1586.09</ele>
  <time>2026-08-27T18:24:27Z</time>
  <course>265.73</course>
  <speed>0.0</speed>
  <fix>3d</fix>
</trkpt>
<trkpt lat="40.0728419" lon="-105.2305749">
  <ele>1586.16</ele>
  <time>2026-08-27T18:24:27Z</time>
  <course>11.33</course>
  <speed>0.01414213562373095</speed>
  <fix>3d</fix>
</trkpt>
<trkpt lat="40.072842" lon="-105.230575">
  <ele>1586.09</ele>
  <time>2026-08-27T18:24:27Z</time>
  <course>264.62</course>
  <speed>0.0</speed>
  <fix>3d</fix>
</trkpt>
<trkpt lat="40.0728419" lon="-105.2305749">
  <ele>1586.16</ele>
  <time>2026-08-27T18:24:27Z</time>
  <course>11.33</course>
  <speed>0.01414213562373095</speed>
  <fix>3d</fix>
</trkpt>
<trkpt lat="40.072842" lon="-105.230575">
  <ele>1586.09</ele>
  <time>2026-08-27T18:24:27Z</time>
  <course>266.26</course>
  <speed>0.0</speed>
  <fix>3d</fix>
</trkpt>
<trkpt lat="40.0728419" lon="-105.2305749">
  <ele>1586.15</ele>
  <time>2026-08-27T18:24:27Z</time>
  <course>11.32</course>
  <speed>0.01414213562373095</speed>
  <fix>3d</fix>
</trkpt>
<trkpt lat="40.072842" lon="-105.230575">
  <ele>1586.09</ele>
  <time>2026-08-27T18:24:27Z</time>
  <course>266.2</course>
  <speed>0.0</speed>
  <fix>3d</fix>
</trkpt>
<trkpt lat="40.0728419" lon="-105.2305749">
  <ele>1586.15</ele>
  <time>2026-08-27T18:24:27Z</time>
  <course>11.32</course>
  <speed>0.01414213562373095</speed>
  <fix>3d</fix>
</trkpt>
<trkpt lat="40.072842" lon="-105.230575">
  <ele>1586.09</ele>
  <time>2026-08-27T18:24:27Z</time>
  <course>265.99</course>
  <speed>0.0</speed>
  <fix>3d</fix>
</trkpt>
<trkpt lat="40.0728419" lon="-105.2305749">
  <ele>1586.15</ele>
  <time>2026-08-27T18:24:27Z</time>
  <course>11.31</course>
  <speed>0.01414213562373095</speed>
  <fix>3d</fix>
</trkpt>
<trkpt lat="40.072842" lon="-105.230575">
  <ele>1586.09</ele>
  <time>2026-08-27T18:24:27Z</time>
  <course>266.02</course>
  <speed>0.0</speed>
  <fix>3d</fix>
</trkpt>
<trkpt lat="40.0728419" lon="-105.2305749">
  <ele>1586.15</ele>
  <time>2026-08-27T18:24:27Z</time>
  <course>11.31</course>
  <speed>0.01414213562373095</speed>
  <fix>3d</fix>
</trkpt>
<trkpt lat="40.072842" lon="-105.230575">
  <ele>1586.09</ele>
  <time>2026-08-27T18:24:27Z</time>
  <course>266.04</course>
  <speed>0.0</speed>
  <fix>3d</fix>
</trkpt>
<trkpt lat="40.0728419" lon="-105.2305749">
  <ele>1586.16</ele>
  <time>2026-08-27T18:24:27Z</time>
  <course>11.3</course>
  <speed>0.01414213562373095</speed>
  <fix>3d</fix>
</trkpt>
<trkpt lat="40.072842" lon="-105.230575">
  <ele>1586.09</ele>
  <time>2026-08-27T18:24:27Z</time>
  <course>266.04</course>
  <speed>0.0</speed>
  <fix>3d</fix>
</trkpt>
<trkpt lat="40.0728419" lon="-105.2305749">
  <ele>1586.16</ele>
  <time>2026-08-27T18:24:27Z</time>
  <course>11.3</course>
  <speed>0.01414213562373095</speed>
  <fix>3d</fix>
</trkpt>
<trkpt lat="40.072842" lon="-105.230575">
  <ele>1586.09</ele>
  <time>2026-08-27T18:24:27Z</time>
  <course>266.03</course>
  <speed>0.0</speed>
  <fix>3d</fix>
</trkpt>
<trkpt lat="40.0728419" lon="-105.2305749">
  <ele>1586.16</ele>
  <time>2026-08-27T18:24:27Z</time>
  <course>11.29</course>
  <speed>0.01414213562373095</speed>
  <fix>3d</fix>
</trkpt>
<trkpt lat="40.072842" lon="-105.230575">
  <ele>1586.09</ele>
  <time>2026-08-27T18:24:27Z</time>
  <course>266.03</course>
  <speed>0.0</speed>
  <fix>3d</fix>
</trkpt>
<trkpt lat="40.0728419" lon="-105.2305749">
  <ele>1586.16</ele>
  <time>2026-08-27T18:24:27Z</time>
  <course>11.29</course>
  <speed>0.01414213562373095</speed>
  <fix>3d</fix>
</trkpt>
<trkpt lat="40.072842" lon="-105.230575">
  <ele>1586.09</ele>
  <time>2026-08-27T18:24:27Z</time>
  <course>266.03</course>
  <speed>0.0</speed>
  <fix>3d</fix>
</trkpt>
<trkpt lat="40.0728419" lon="-105.2305749">
  <ele>1586.16</ele>
  <time>2026-08-27T18:24:27Z</time>
  <course>11.28</course>
  <speed>0.01414213562373095</speed>
  <fix>3d</fix>
</trkpt>
<trkpt lat="40.072842" lon="-105.230575">
  <ele>1586.09</ele>
  <time>2026-08-27T18:24:27Z</time>
  <course>266.03</course>
  <speed>0.0</speed>
  <fix>3d</fix>
</trkpt>
<trkpt lat="40.0728419" lon="-105.2305749">
  <ele>1586.16</ele>
  <time>2026-08-27T18:24:27Z</time>
  <course>11.28</course>
  <speed>0.01414213562373095</speed>
  <fix>3d</fix>
</trkpt>
<trkpt lat="40.072842" lon="-105.230575">
  <ele>1586.09</ele>
  <time>2026-08-27T18:24:27Z</time>
  <course>266.03</course>
  <speed>0.0</speed>
  <fix>3d</fix>
</trkpt>
<trkpt lat="40.0728419" lon="-105.2305749">
  <ele>1586.15</ele>
  <time>2026-08-27T18:24:27Z</time>
  <course>11.27</course>
  <speed>0.01414213562373095</speed>
  <fix>3d</fix>
</trkpt>
<trkpt lat="40.072842" lon="-105.230575">
  <ele>1586.09</ele>
  <time>2026-08-27T18:24:27Z</time>
  <course>266.03</course>
  <speed>0.0</speed>
  <fix>3d</fix>
</trkpt>
<trkpt lat="40.0728419" lon="-105.2305749">
  <ele>1586.15</ele>
  <time>2026-08-27T18:24:27Z</time>
  <course>11.27</course>
  <speed>0.01414213562373095</speed>
  <fix>3d</fix>
</trkpt>
<trkpt lat="40.072842" lon="-105.230575">
  <ele>1586.09</ele>
  <time>2026-08-27T18:24:27Z</time>
  <course>266.03</course>
  <speed>0.0</speed>
  <fix>3d</fix>
</trkpt>
<trkpt lat="40.0728419" lon="-105.2305749">
  <ele>1586.15</ele>
  <time>2026-08-27T18:24:27Z</time>
  <course>11.27</course>
  <speed>0.01414213562373095</speed>
  <fix>3d</fix>
</trkpt>
<trkpt lat="40.072842" lon="-105.230575">
  <ele>1586.09</ele>
  <time>2026-08-27T18:24:27Z</time>
  <course>266.03</course>
  <speed>0.0</speed>
  <fix>3d</fix>
</trkpt>
<trkpt lat="40.0728419" lon="-105.2305749">
  <ele>1586.15</ele>
  <time>2026-08-27T18:24:27Z</time>
  <course>11.26</course>
  <speed>0.01414213562373095</speed>
  <fix>3d</fix>
</trkpt>
<trkpt lat="40.072842" lon="-105.230575">
  <ele>1586.09</ele>
  <time>2026-08-27T18:24:27Z</time>
  <course>266.03</course>
  <speed>0.0</speed>
  <fix>3d</fix>
</trkpt>
<trkpt lat="40.0728419" lon="-105.2305749">
  <ele>1586.15</ele>
  <time>2026-08-27T18:24:27Z</time>
  <course>11.26</course>
  <speed>0.01414213562373095</speed>
  <fix>3d</fix>
</trkpt>
<trkpt lat="40.072842" lon="-105.230575">
  <ele>1586.09</ele>
  <time>2026-08-27T18:24:27Z</time>
  <course>266.03</course>
  <speed>0.0</speed>
  <fix>3d</fix>
</trkpt>
<trkpt lat="40.0728419" lon="-105.2305749">
  <ele>1586.16</ele>
  <time>2026-08-27T18:24:27Z</time>
  <course>11.25</course>
  <speed>0.01414213562373095</speed>
  <fix>3d</fix>
</trkpt>
<trkpt lat="40.072842" lon="-105.230575">
  <ele>1586.09</ele>
  <time>2026-08-27T18:24:27Z</time>
  <course>266.03</course>
  <speed>0.0</speed>
  <fix>3d</fix>
</trkpt>
<trkpt lat="40.0728419" lon="-105.2305749">
  <ele>1586.17</ele>
  <time>2026-08-27T18:24:27Z</time>
  <course>11.25</course>
  <speed>0.01414213562373095</speed>
  <fix>3d</fix>
</trkpt>
<trkpt lat="40.072842" lon="-105.230575">
  <ele>1586.09</ele>
  <time>2026-08-27T18:24:27Z</time>
  <course>266.03</course>
  <speed>0.0</speed>
  <fix>3d</fix>
</trkpt>
<trkpt lat="40.0728419" lon="-105.2305749">
  <ele>1586.17</ele>
  <time>2026-08-27T18:24:27Z</time>
  <course>11.24</course>
  <speed>0.01414213562373095</speed>
  <fix>3d</fix>
</trkpt>
<trkpt lat="40.072842" lon="-105.230575">
  <ele>1586.09</ele>
  <time>2026-08-27T18:24:27Z</time>
  <course>266.03</course>
  <speed>0.0</speed>
  <fix>3d</fix>
</trkpt>
<trkpt lat="40.0728419" lon="-105.2305749">
  <ele>1586.17</ele>
  <time>2026-08-27T18:24:27Z</time>
  <course>11.24</course>
  <speed>0.01414213562373095</speed>
  <fix>3d</fix>
</trkpt>
<trkpt lat="40.072842" lon="-105.230575">
  <ele>1586.09</ele>
  <time>2026-08-27T18:24:27Z</time>
  <course>266.03</course>
  <speed>0.0</speed>
  <fix>3d</fix>
</trkpt>
<trkpt lat="40.0728419" lon="-105.2305749">
  <ele>1586.17</ele>
  <time>2026-08-27T18:24:27Z</time>
  <course>11.24</course>
  <speed>0.01414213562373095</speed>
  <fix>3d</fix>
</trkpt>
<trkpt lat="40.072842" lon="-105.230575">
  <ele>1586.09</ele>
  <time>2026-08-27T18:24:27Z</time>
  <course>266.03</course>
  <speed>0.0</speed>
  <fix>3d</fix>
</trkpt>
<trkpt lat="40.0728419" lon="-105.2305749">
  <ele>1586.17</ele>
  <time>2026-08-27T18:24:27Z</time>
  <course>11.23</course>
  <speed>0.01414213562373095</speed>
  <fix>3d</fix>
</trkpt>
<trkpt lat="40.072842" lon="-105.230575">
  <ele>1586.09</ele>
  <time>2026-08-27T18:24:27Z</time>
  <course>266.03</course>
  <speed>0.0</speed>
  <fix>3d</fix>
</trkpt>
<trkpt lat="40.0728419" lon="-105.2305749">
  <ele>1586.17</ele>
  <time>2026-08-27T18:24:27Z</time>
  <course>11.23</course>
  <speed>0.01414213562373095</speed>
  <fix>3d</fix>
</trkpt>
<trkpt lat="40.072842" lon="-105.230575">
  <ele>1586.09</ele>
  <time>2026-08-27T18:24:27Z</time>
  <course>266.03</course>
  <speed>0.0</speed>
  <fix>3d</fix>
</trkpt>
<trkpt lat="40.0728419" lon="-105.2305749">
  <ele>1586.17</ele>
  <time>2026-08-27T18:24:27Z</time>
  <course>11.22</course>
  <speed>0.01414213562373095</speed>
  <fix>3d</fix>
</trkpt>
<trkpt lat="40.072842" lon="-105.230575">
  <ele>1586.09</ele>
  <time>2026-08-27T18:24:27Z</time>
  <course>266.03</course>
  <speed>0.0</speed>
  <fix>3d</fix>
</trkpt>
<trkpt lat="40.0728419" lon="-105.2305749">
  <ele>1586.17</ele>
  <time>2026-08-27T18:24:27Z</time>
  <course>11.22</course>
  <speed>0.01414213562373095</speed>
  <fix>3d</fix>
</trkpt>
<trkpt lat="40.072842" lon="-105.230575">
  <ele>1586.09</ele>
  <time>2026-08-27T18:24:27Z</time>
  <course>266.03</course>
  <speed>0.0</speed>
  <fix>3d</fix>
</trkpt>
<trkpt lat="40.0728419" lon="-105.2305749">
  <ele>1586.17</ele>
  <time>2026-08-27T18:24:27Z</time>
  <course>11.22</course>
  <speed>0.01414213562373095</speed>
  <fix>3d</fix>
</trkpt>
<trkpt lat="40.072842" lon="-105.230575">
  <ele>1586.09</ele>
  <time>2026-08-27T18:24:27Z</time>
  <course>266.03</course>
  <speed>0.0</speed>
  <fix>3d</fix>
</trkpt>
<trkpt lat="40.0728419" lon="-105.2305749">
  <ele>1586.17</ele>
  <time>2026-08-27T18:24:27Z</time>
  <course>11.21</course>
  <speed>0.01414213562373095</speed>
  <fix>3d</fix>
</trkpt>
<trkpt lat="40.072842" lon="-105.230575">
  <ele>1586.09</ele>
  <time>2026-08-27T18:24:27Z</time>
  <course>266.03</course>
  <speed>0.0</speed>
  <fix>3d</fix>
</trkpt>
<trkpt lat="40.0728419" lon="-105.2305749">
  <ele>1586.17</ele>
  <time>2026-08-27T18:24:27Z</time>
  <course>11.21</course>
  <speed>0.01414213562373095</speed>
  <fix>3d</fix>
</trkpt>
<trkpt lat="40.072842" lon="-105.230575">
  <ele>1586.09</ele>
  <time>2026-08-27T18:24:27Z</time>
  <course>266.03</course>
  <speed>0.0</speed>
  <fix>3d</fix>
</trkpt>
<trkpt lat="40.0728419" lon="-105.2305749">
  <ele>1586.17</ele>
  <time>2026-08-27T18:24:27Z</time>
  <course>11.21</course>
  <speed>0.01414213562373095</speed>
  <fix>3d</fix>
</trkpt>
<trkpt lat="40.072842" lon="-105.230575">
  <ele>1586.09</ele>
  <time>2026-08-27T18:24:27Z</time>
  <course>266.03</course>
  <speed>0.0</speed>
  <fix>3d</fix>
</trkpt>
<trkpt lat="40.0728419" lon="-105.2305749">
  <ele>1586.17</ele>
  <time>2026-08-27T18:24:27Z</time>
  <course>11.2</course>
  <speed>0.01414213562373095</speed>
  <fix>3d</fix>
</trkpt>
<trkpt lat="40.072842" lon="-105.230575">
  <ele>1586.09</ele>
  <time>2026-08-27T18:24:27Z</time>
  <course>266.03</course>
  <speed>0.0</speed>
  <fix>3d</fix>
</trkpt>
<trkpt lat="40.0728419" lon="-105.2305749">
  <ele>1586.16</ele>
  <time>2026-08-27T18:24:27Z</time>
  <course>11.2</course>
  <speed>0.01414213562373095</speed>
  <fix>3d</fix>
</trkpt>
<trkpt lat="40.072842" lon="-105.230575">
  <ele>1586.09</ele>
  <time>2026-08-27T18:24:27Z</time>
  <course>266.03</course>
  <speed>0.0</speed>
  <fix>3d</fix>
</trkpt>
<trkpt lat="40.0728419" lon="-105.2305749">
  <ele>1586.15</ele>
  <time>2026-08-27T18:24:27Z</time>
  <course>11.19</course>
  <speed>0.01414213562373095</speed>
  <fix>3d</fix>
</trkpt>
<trkpt lat="40.072842" lon="-105.230575">
  <ele>1586.09</ele>
  <time>2026-08-27T18:24:27Z</time>
  <course>266.03</course>
  <speed>0.0</speed>
  <fix>3d</fix>
</trkpt>
<trkpt lat="40.0728419" lon="-105.2305749">
  <ele>1586.15</ele>
  <time>2026-08-27T18:24:27Z</time>
  <course>11.19</course>
  <speed>0.01414213562373095</speed>
  <fix>3d</fix>
</trkpt>
<trkpt lat="40.072842" lon="-105.230575">
  <ele>1586.09</ele>
  <time>2026-08-27T18:24:27Z</time>
  <course>266.03</course>
  <speed>0.0</speed>
  <fix>3d</fix>
</trkpt>
<trkpt lat="40.0728419" lon="-105.2305749">
  <ele>1586.15</ele>
  <time>2026-08-27T18:24:27Z</time>
  <course>11.19</course>
  <speed>0.01414213562373095</speed>
  <fix>3d</fix>
</trkpt>
<trkpt lat="40.072842" lon="-105.230575">
  <ele>1586.09</ele>
  <time>2026-08-27T18:24:27Z</time>
  <course>266.03</course>
  <speed>0.0</speed>
  <fix>3d</fix>
</trkpt>
<trkpt lat="40.0728419" lon="-105.2305749">
  <ele>1586.16</ele>
  <time>2026-08-27T18:24:27Z</time>
  <course>11.18</course>
  <speed>0.01414213562373095</speed>
  <fix>3d</fix>
</trkpt>
<trkpt lat="40.072842" lon="-105.230575">
  <ele>1586.09</ele>
  <time>2026-08-27T18:24:27Z</time>
  <course>266.03</course>
  <speed>0.0</speed>
  <fix>3d</fix>
</trkpt>
<trkpt lat="40.0728419" lon="-105.2305749">
  <ele>1586.16</ele>
  <time>2026-08-27T18:24:27Z</time>
  <course>11.18</course>
  <speed>0.01414213562373095</speed>
  <fix>3d</fix>
</trkpt>
<trkpt lat="40.072842" lon="-105.230575">
  <ele>1586.09</ele>
  <time>2026-08-27T18:24:27Z</time>
  <course>266.03</course>
  <speed>0.0</speed>
  <fix>3d</fix>
</trkpt>
<trkpt lat="40.0728419" lon="-105.2305749">
  <ele>1586.16</ele>
  <time>2026-08-27T18:24:27Z</time>
  <course>11.18</course>
  <speed>0.01414213562373095</speed>
  <fix>3d</fix>
</trkpt>
<trkpt lat="40.072842" lon="-105.230575">
  <ele>1586.09</ele>
  <time>2026-08-27T18:24:27Z</time>
  <course>266.03</course>
  <speed>0.0</speed>
  <fix>3d</fix>
</trkpt>
<trkpt lat="40.0728419" lon="-105.2305749">
  <ele>1586.16</ele>
  <time>2026-08-27T18:24:27Z</time>
  <course>11.17</course>
  <speed>0.01414213562373095</speed>
  <fix>3d</fix>
</trkpt>
<trkpt lat="40.072842" lon="-105.230575">
  <ele>1586.09</ele>
  <time>2026-08-27T18:24:27Z</time>
  <course>266.03</course>
  <speed>0.0</speed>
  <fix>3d</fix>
</trkpt>
<trkpt lat="40.0728419" lon="-105.2305749">
  <ele>1586.16</ele>
  <time>2026-08-27T18:24:27Z</time>
  <course>11.17</course>
  <speed>0.01414213562373095</speed>
  <fix>3d</fix>
</trkpt>
<trkpt lat="40.072842" lon="-105.230575">
  <ele>1586.09</ele>
  <time>2026-08-27T18:24:27Z</time>
  <course>266.03</course>
  <speed>0.0</speed>
  <fix>3d</fix>
</trkpt>
<trkpt lat="40.0728419" lon="-105.2305749">
  <ele>1586.17</ele>
  <time>2026-08-27T18:24:27Z</time>
  <course>11.17</course>
  <speed>0.01414213562373095</speed>
  <fix>3d</fix>
</trkpt>
<trkpt lat="40.072842" lon="-105.230575">
  <ele>1586.09</ele>
  <time>2026-08-27T18:24:27Z</time>
  <course>266.03</course>
  <speed>0.0</speed>
  <fix>3d</fix>
</trkpt>
<trkpt lat="40.0728419" lon="-105.2305749">
  <ele>1586.18</ele>
  <time>2026-08-27T18:24:27Z</time>
  <course>11.16</course>
  <speed>0.01414213562373095</speed>
  <fix>3d</fix>
</trkpt>
<trkpt lat="40.072842" lon="-105.230575">
  <ele>1586.09</ele>
  <time>2026-08-27T18:24:27Z</time>
  <course>266.03</course>
  <speed>0.0</speed>
  <fix>3d</fix>
</trkpt>
<trkpt lat="40.0728419" lon="-105.2305749">
  <ele>1586.18</ele>
  <time>2026-08-27T18:24:27Z</time>
  <course>11.16</course>
  <speed>0.01414213562373095</speed>
  <fix>3d</fix>
</trkpt>
<trkpt lat="40.072842" lon="-105.230575">
  <ele>1586.09</ele>
  <time>2026-08-27T18:24:27Z</time>
  <course>266.03</course>
  <speed>0.0</speed>
  <fix>3d</fix>
</trkpt>
<trkpt lat="40.0728419" lon="-105.2305749">
  <ele>1586.18</ele>
  <time>2026-08-27T18:24:27Z</time>
  <course>11.16</course>
  <speed>0.01414213562373095</speed>
  <fix>3d</fix>
</trkpt>
<trkpt lat="40.072842" lon="-105.230575">
  <ele>1586.09</ele>
  <time>2026-08-27T18:24:27Z</time>
  <course>266.03</course>
  <speed>0.0</speed>
  <fix>3d</fix>
</trkpt>
<trkpt lat="40.0728419" lon="-105.2305749">
  <ele>1586.18</ele>
  <time>2026-08-27T18:24:27Z</time>
  <course>11.15</course>
  <speed>0.01414213562373095</speed>
  <fix>3d</fix>
</trkpt>
<trkpt lat="40.072842" lon="-105.230575">
  <ele>1586.09</ele>
  <time>2026-08-27T18:24:27Z</time>
  <course>266.03</course>
  <speed>0.0</speed>
  <fix>3d</fix>
</trkpt>
<trkpt lat="40.0728419" lon="-105.2305749">
  <ele>1586.18</ele>
  <time>2026-08-27T18:24:27Z</time>
  <course>11.15</course>
  <speed>0.01414213562373095</speed>
  <fix>3d</fix>
</trkpt>
<trkpt lat="40.072842" lon="-105.230575">
  <ele>1586.09</ele>
  <time>2026-08-27T18:24:27Z</time>
  <course>266.03</course>
  <speed>0.0</speed>
  <fix>3d</fix>
</trkpt>
<trkpt lat="40.0728419" lon="-105.2305749">
  <ele>1586.17</ele>
  <time>2026-08-27T18:24:27Z</time>
  <course>11.15</course>
  <speed>0.01414213562373095</speed>
  <fix>3d</fix>
</trkpt>
<trkpt lat="40.072842" lon="-105.230575">
  <ele>1586.09</ele>
  <time>2026-08-27T18:24:27Z</time>
  <course>266.03</course>
  <speed>0.0</speed>
  <fix>3d</fix>
</trkpt>
<trkpt lat="40.0728419" lon="-105.2305749">
  <ele>1586.17</ele>
  <time>2026-08-27T18:24:27Z</time>
  <course>11.15</course>
  <speed>0.01414213562373095</speed>
  <fix>3d</fix>
</trkpt>
<trkpt lat="40.072842" lon="-105.230575">
  <ele>1586.09</ele>
  <time>2026-08-27T18:24:27Z</time>
  <course>266.03</course>
  <speed>0.0</speed>
  <fix>3d</fix>
</trkpt>
<trkpt lat="40.0728419" lon="-105.2305749">
  <ele>1586.17</ele>
  <time>2026-08-27T18:24:27Z</time>
  <course>11.14</course>
  <speed>0.01414213562373095</speed>
  <fix>3d</fix>
</trkpt>
<trkpt lat="40.072842" lon="-105.230575">
  <ele>1586.09</ele>
  <time>2026-08-27T18:24:27Z</time>
  <course>266.03</course>
  <speed>0.0</speed>
  <fix>3d</fix>
</trkpt>
<trkpt lat="40.0728419" lon="-105.2305749">
  <ele>1586.17</ele>
  <time>2026-08-27T18:24:27Z</time>
  <course>11.14</course>
  <speed>0.01414213562373095</speed>
  <fix>3d</fix>
</trkpt>
<trkpt lat="40.072842" lon="-105.230575">
  <ele>1586.09</ele>
  <time>2026-08-27T18:24:27Z</time>
  <course>266.03</course>
  <speed>0.0</speed>
  <fix>3d</fix>
</trkpt>
<trkpt lat="40.0728419" lon="-105.2305749">
  <ele>1586.17</ele>
  <time>2026-08-27T18:24:27Z</time>
  <course>11.14</course>
  <speed>0.01414213562373095</speed>
  <fix>3d</fix>
</trkpt>
<trkpt lat="40.072842" lon="-105.230575">
  <ele>1586.09</ele>
  <time>2026-08-27T18:24:27Z</time>
  <course>266.03</course>
  <speed>0.0</speed>
  <fix>3d</fix>
</trkpt>
<trkpt lat="40.0728419" lon="-105.2305749">
  <ele>1586.17</ele>
  <time>2026-08-27T18:24:27Z</time>
  <course>11.13</course>
  <speed>0.01414213562373095</speed>
  <fix>3d</fix>
</trkpt>
<trkpt lat="40.072842" lon="-105.230575">
  <ele>1586.09</ele>
  <time>2026-08-27T18:24:27Z</time>
  <course>266.03</course>
  <speed>0.0</speed>
  <fix>3d</fix>
</trkpt>
<trkpt lat="40.0728419" lon="-105.2305749">
  <ele>1586.17</ele>
  <time>2026-08-27T18:24:27Z</time>
  <course>11.13</course>
  <speed>0.01414213562373095</speed>
  <fix>3d</fix>
</trkpt>
<trkpt lat="40.072842" lon="-105.230575">
  <ele>1586.09</ele>
  <time>2026-08-27T18:24:27Z</time>
  <course>266.03</course>
  <speed>0.0</speed>
  <fix>3d</fix>
</trkpt>
<trkpt lat="40.0728419" lon="-105.2305749">
  <ele>1586.17</ele>
  <time>2026-08-27T18:24:27Z</time>
  <course>11.13</course>
  <speed>0.01414213562373095</speed>
  <fix>3d</fix>
</trkpt>
<trkpt lat="40.072842" lon="-105.230575">
  <ele>1586.09</ele>
  <time>2026-08-27T18:24:27Z</time>
  <course>266.03</course>
  <speed>0.0</speed>
  <fix>3d</fix>
</trkpt>
<trkpt lat="40.0728419" lon="-105.2305749">
  <ele>1586.16</ele>
  <time>2026-08-27T18:24:27Z</time>
  <course>11.13</course>
  <speed>0.01414213562373095</speed>
  <fix>3d</fix>
</trkpt>
<trkpt lat="40.072842" lon="-105.230575">
  <ele>1586.09</ele>
  <time>2026-08-27T18:24:27Z</time>
  <course>266.03</course>
  <speed>0.0</speed>
  <fix>3d</fix>
</trkpt>
<trkpt lat="40.0728419" lon="-105.2305749">
  <ele>1586.16</ele>
  <time>2026-08-27T18:24:27Z</time>
  <course>11.12</course>
  <speed>0.01414213562373095</speed>
  <fix>3d</fix>
</trkpt>
<trkpt lat="40.072842" lon="-105.230575">
  <ele>1586.09</ele>
  <time>2026-08-27T18:24:27Z</time>
  <course>266.03</course>
  <speed>0.0</speed>
  <fix>3d</fix>
</trkpt>
<trkpt lat="40.0728419" lon="-105.2305749">
  <ele>1586.16</ele>
  <time>2026-08-27T18:24:27Z</time>
  <course>11.12</course>
  <speed>0.01414213562373095</speed>
  <fix>3d</fix>
</trkpt>
<trkpt lat="40.072842" lon="-105.230575">
  <ele>1586.09</ele>
  <time>2026-08-27T18:24:27Z</time>
  <course>266.03</course>
  <speed>0.0</speed>
  <fix>3d</fix>
</trkpt>
<trkpt lat="40.0728419" lon="-105.2305749">
  <ele>1586.16</ele>
  <time>2026-08-27T18:24:27Z</time>
  <course>11.12</course>
  <speed>0.01414213562373095</speed>
  <fix>3d</fix>
</trkpt>
<trkpt lat="40.072842" lon="-105.230575">
  <ele>1586.09</ele>
  <time>2026-08-27T18:24:27Z</time>
  <course>266.03</course>
  <speed>0.0</speed>
  <fix>3d</fix>
</trkpt>
<trkpt lat="40.0728419" lon="-105.2305749">
  <ele>1586.15</ele>
  <time>2026-08-27T18:24:27Z</time>
  <course>11.12</course>
  <speed>0.01414213562373095</speed>
  <fix>3d</fix>
</trkpt>
<trkpt lat="40.072842" lon="-105.230575">
  <ele>1586.09</ele>
  <time>2026-08-27T18:24:27Z</time>
  <course>266.03</course>
  <speed>0.0</speed>
  <fix>3d</fix>
</trkpt>
<trkpt lat="40.0728419" lon="-105.2305749">
  <ele>1586.16</ele>
  <time>2026-08-27T18:24:27Z</time>
  <course>11.11</course>
  <speed>0.01414213562373095</speed>
  <fix>3d</fix>
</trkpt>
<trkpt lat="40.072842" lon="-105.230575">
  <ele>1586.09</ele>
  <time>2026-08-27T18:24:27Z</time>
  <course>266.03</course>
  <speed>0.0</speed>
  <fix>3d</fix>
</trkpt>
<trkpt lat="40.0728419" lon="-105.2305749">
  <ele>1586.16</ele>
  <time>2026-08-27T18:24:27Z</time>
  <course>11.11</course>
  <speed>0.01414213562373095</speed>
  <fix>3d</fix>
</trkpt>
<trkpt lat="40.072842" lon="-105.230575">
  <ele>1586.09</ele>
  <time>2026-08-27T18:24:27Z</time>
  <course>266.03</course>
  <speed>0.0</speed>
  <fix>3d</fix>
</trkpt>
<trkpt lat="40.0728419" lon="-105.2305749">
  <ele>1586.16</ele>
  <time>2026-08-27T18:24:27Z</time>
  <course>11.11</course>
  <speed>0.01414213562373095</speed>
  <fix>3d</fix>
</trkpt>
<trkpt lat="40.072842" lon="-105.230575">
  <ele>1586.09</ele>
  <time>2026-08-27T18:24:27Z</time>
  <course>266.03</course>
  <speed>0.0</speed>
  <fix>3d</fix>
</trkpt>
<trkpt lat="40.0728419" lon="-105.2305749">
  <ele>1586.15</ele>
  <time>2026-08-27T18:24:27Z</time>
  <course>11.1</course>
  <speed>0.01414213562373095</speed>
  <fix>3d</fix>
</trkpt>
<trkpt lat="40.072842" lon="-105.230575">
  <ele>1586.09</ele>
  <time>2026-08-27T18:24:27Z</time>
  <course>266.03</course>
  <speed>0.0</speed>
  <fix>3d</fix>
</trkpt>
<trkpt lat="40.0728419" lon="-105.2305749">
  <ele>1586.15</ele>
  <time>2026-08-27T18:24:27Z</time>
  <course>11.1</course>
  <speed>0.01414213562373095</speed>
  <fix>3d</fix>
</trkpt>
<trkpt lat="40.072842" lon="-105.230575">
  <ele>1586.09</ele>
  <time>2026-08-27T18:24:27Z</time>
  <course>266.03</course>
  <speed>0.0</speed>
  <fix>3d</fix>
</trkpt>
<trkpt lat="40.0728419" lon="-105.2305749">
  <ele>1586.15</ele>
  <time>2026-08-27T18:24:27Z</time>
  <course>11.1</course>
  <speed>0.01414213562373095</speed>
  <fix>3d</fix>
</trkpt>
<trkpt lat="40.072842" lon="-105.230575">
  <ele>1586.09</ele>
  <time>2026-08-27T18:24:27Z</time>
  <course>266.03</course>
  <speed>0.0</speed>
  <fix>3d</fix>
</trkpt>
<trkpt lat="40.0728419" lon="-105.2305749">
  <ele>1586.15</ele>
  <time>2026-08-27T18:24:27Z</time>
  <course>11.1</course>
  <speed>0.01414213562373095</speed>
  <fix>3d</fix>
</trkpt>
<trkpt lat="40.072842" lon="-105.230575">
  <ele>1586.09</ele>
  <time>2026-08-27T18:24:27Z</time>
  <course>266.03</course>
  <speed>0.0</speed>
  <fix>3d</fix>
</trkpt>
<trkpt lat="40.0728419" lon="-105.2305749">
  <ele>1586.14</ele>
  <time>2026-08-27T18:24:27Z</time>
  <course>11.1</course>
  <speed>0.01414213562373095</speed>
  <fix>3d</fix>
</trkpt>
<trkpt lat="40.072842" lon="-105.230575">
  <ele>1586.09</ele>
  <time>2026-08-27T18:24:27Z</time>
  <course>266.03</course>
  <speed>0.0</speed>
  <fix>3d</fix>
</trkpt>
<trkpt lat="40.0728419" lon="-105.2305749">
  <ele>1586.14</ele>
  <time>2026-08-27T18:24:27Z</time>
  <course>11.09</course>
  <speed>0.01414213562373095</speed>
  <fix>3d</fix>
</trkpt>
<trkpt lat="40.072842" lon="-105.230575">
  <ele>1586.09</ele>
  <time>2026-08-27T18:24:27Z</time>
  <course>266.03</course>
  <speed>0.0</speed>
  <fix>3d</fix>
</trkpt>
<trkpt lat="40.0728419" lon="-105.2305749">
  <ele>1586.15</ele>
  <time>2026-08-27T18:24:27Z</time>
  <course>11.09</course>
  <speed>0.01414213562373095</speed>
  <fix>3d</fix>
</trkpt>
<trkpt lat="40.072842" lon="-105.230575">
  <ele>1586.09</ele>
  <time>2026-08-27T18:24:27Z</time>
  <course>266.03</course>
  <speed>0.0</speed>
  <fix>3d</fix>
</trkpt>
<trkpt lat="40.0728419" lon="-105.2305749">
  <ele>1586.15</ele>
  <time>2026-08-27T18:24:27Z</time>
  <course>11.09</course>
  <speed>0.01414213562373095</speed>
  <fix>3d</fix>
</trkpt>
<trkpt lat="40.072842" lon="-105.230575">
  <ele>1586.09</ele>
  <time>2026-08-27T18:24:27Z</time>
  <course>266.03</course>
  <speed>0.0</speed>
  <fix>3d</fix>
</trkpt>
<trkpt lat="40.0728419" lon="-105.2305749">
  <ele>1586.15</ele>
  <time>2026-08-27T18:24:27Z</time>
  <course>11.09</course>
  <speed>0.01414213562373095</speed>
  <fix>3d</fix>
</trkpt>
<trkpt lat="40.072842" lon="-105.230575">
  <ele>1586.09</ele>
  <time>2026-08-27T18:24:27Z</time>
  <course>266.03</course>
  <speed>0.0</speed>
  <fix>3d</fix>
</trkpt>
<trkpt lat="40.0728419" lon="-105.2305749">
  <ele>1586.16</ele>
  <time>2026-08-27T18:24:27Z</time>
  <course>11.08</course>
  <speed>0.01414213562373095</speed>
  <fix>3d</fix>
</trkpt>
<trkpt lat="40.072842" lon="-105.230575">
  <ele>1586.09</ele>
  <time>2026-08-27T18:24:27Z</time>
  <course>266.03</course>
  <speed>0.0</speed>
  <fix>3d</fix>
</trkpt>
<trkpt lat="40.0728419" lon="-105.2305749">
  <ele>1586.16</ele>
  <time>2026-08-27T18:24:27Z</time>
  <course>11.08</course>
  <speed>0.01414213562373095</speed>
  <fix>3d</fix>
</trkpt>
<trkpt lat="40.072842" lon="-105.230575">
  <ele>1586.09</ele>
  <time>2026-08-27T18:24:27Z</time>
  <course>266.03</course>
  <speed>0.0</speed>
  <fix>3d</fix>
</trkpt>
<trkpt lat="40.0728419" lon="-105.2305749">
  <ele>1586.17</ele>
  <time>2026-08-27T18:24:27Z</time>
  <course>11.08</course>
  <speed>0.01414213562373095</speed>
  <fix>3d</fix>
</trkpt>
<trkpt lat="40.072842" lon="-105.230575">
  <ele>1586.09</ele>
  <time>2026-08-27T18:24:27Z</time>
  <course>266.03</course>
  <speed>0.0</speed>
  <fix>3d</fix>
</trkpt>
<trkpt lat="40.0728419" lon="-105.2305749">
  <ele>1586.17</ele>
  <time>2026-08-27T18:24:27Z</time>
  <course>11.08</course>
  <speed>0.01414213562373095</speed>
  <fix>3d</fix>
</trkpt>
<trkpt lat="40.072842" lon="-105.230575">
  <ele>1586.09</ele>
  <time>2026-08-27T18:24:27Z</time>
  <course>266.03</course>
  <speed>0.0</speed>
  <fix>3d</fix>
</trkpt>
<trkpt lat="40.0728419" lon="-105.2305749">
  <ele>1586.18</ele>
  <time>2026-08-27T18:24:27Z</time>
  <course>11.08</course>
  <speed>0.01414213562373095</speed>
  <fix>3d</fix>
</trkpt>
<trkpt lat="40.072842" lon="-105.230575">
  <ele>1586.09</ele>
  <time>2026-08-27T18:24:27Z</time>
  <course>266.03</course>
  <speed>0.0</speed>
  <fix>3d</fix>
</trkpt>
<trkpt lat="40.0728419" lon="-105.2305749">
  <ele>1586.18</ele>
  <time>2026-08-27T18:24:27Z</time>
  <course>11.07</course>
  <speed>0.01414213562373095</speed>
  <fix>3d</fix>
</trkpt>
<trkpt lat="40.072842" lon="-105.230575">
  <ele>1586.09</ele>
  <time>2026-08-27T18:24:27Z</time>
  <course>266.03</course>
  <speed>0.0</speed>
  <fix>3d</fix>
</trkpt>
<trkpt lat="40.0728419" lon="-105.2305749">
  <ele>1586.18</ele>
  <time>2026-08-27T18:24:27Z</time>
  <course>11.07</course>
  <speed>0.01414213562373095</speed>
  <fix>3d</fix>
</trkpt>
<trkpt lat="40.072842" lon="-105.230575">
  <ele>1586.09</ele>
  <time>2026-08-27T18:24:27Z</time>
  <course>266.03</course>
  <speed>0.0</speed>
  <fix>3d</fix>
</trkpt>
<trkpt lat="40.0728419" lon="-105.2305749">
  <ele>1586.18</ele>
  <time>2026-08-27T18:24:27Z</time>
  <course>11.07</course>
  <speed>0.01414213562373095</speed>
  <fix>3d</fix>
</trkpt>
<trkpt lat="40.072842" lon="-105.230575">
  <ele>1586.09</ele>
  <time>2026-08-27T18:24:27Z</time>
  <course>266.03</course>
  <speed>0.0</speed>
  <fix>3d</fix>
</trkpt>
<trkpt lat="40.0728419" lon="-105.2305749">
  <ele>1586.19</ele>
  <time>2026-08-27T18:24:27Z</time>
  <course>11.07</course>
  <speed>0.01414213562373095</speed>
  <fix>3d</fix>
</trkpt>
<trkpt lat="40.072842" lon="-105.230575">
  <ele>1586.09</ele>
  <time>2026-08-27T18:24:27Z</time>
  <course>266.03</course>
  <speed>0.0</speed>
  <fix>3d</fix>
</trkpt>
<trkpt lat="40.0728419" lon="-105.2305749">
  <ele>1586.19</ele>
  <time>2026-08-27T18:24:27Z</time>
  <course>11.06</course>
  <speed>0.01414213562373095</speed>
  <fix>3d</fix>
</trkpt>
<trkpt lat="40.072842" lon="-105.230575">
  <ele>1586.09</ele>
  <time>2026-08-27T18:24:27Z</time>
  <course>266.03</course>
  <speed>0.0</speed>
  <fix>3d</fix>
</trkpt>
<trkpt lat="40.0728419" lon="-105.2305749">
  <ele>1586.19</ele>
  <time>2026-08-27T18:24:27Z</time>
  <course>11.06</course>
  <speed>0.01414213562373095</speed>
  <fix>3d</fix>
</trkpt>
<trkpt lat="40.072842" lon="-105.230575">
  <ele>1586.09</ele>
  <time>2026-08-27T18:24:27Z</time>
  <course>266.03</course>
  <speed>0.0</speed>
  <fix>3d</fix>
</trkpt>
<trkpt lat="40.0728419" lon="-105.2305749">
  <ele>1586.18</ele>
  <time>2026-08-27T18:24:27Z</time>
  <course>11.06</course>
  <speed>0.01414213562373095</speed>
  <fix>3d</fix>
</trkpt>
<trkpt lat="40.072842" lon="-105.230575">
  <ele>1586.09</ele>
  <time>2026-08-27T18:24:27Z</time>
  <course>266.03</course>
  <speed>0.0</speed>
  <fix>3d</fix>
</trkpt>
<trkpt lat="40.0728419" lon="-105.2305749">
  <ele>1586.18</ele>
  <time>2026-08-27T18:24:27Z</time>
  <course>11.06</course>
  <speed>0.01414213562373095</speed>
  <fix>3d</fix>
</trkpt>
<trkpt lat="40.072842" lon="-105.230575">
  <ele>1586.09</ele>
  <time>2026-08-27T18:24:27Z</time>
  <course>266.03</course>
  <speed>0.0</speed>
  <fix>3d</fix>
</trkpt>
<trkpt lat="40.0728419" lon="-105.2305749">
  <ele>1586.18</ele>
  <time>2026-08-27T18:24:27Z</time>
  <course>11.06</course>
  <speed>0.01414213562373095</speed>
  <fix>3d</fix>
</trkpt>
<trkpt lat="40.072842" lon="-105.230575">
  <ele>1586.09</ele>
  <time>2026-08-27T18:24:27Z</time>
  <course>266.03</course>
  <speed>0.0</speed>
  <fix>3d</fix>
</trkpt>
<trkpt lat="40.0728419" lon="-105.2305749">
  <ele>1586.18</ele>
  <time>2026-08-27T18:24:27Z</time>
  <course>11.05</course>
  <speed>0.01414213562373095</speed>
  <fix>3d</fix>
</trkpt>
<trkpt lat="40.072842" lon="-105.230575">
  <ele>1586.09</ele>
  <time>2026-08-27T18:24:27Z</time>
  <course>266.03</course>
  <speed>0.0</speed>
  <fix>3d</fix>
</trkpt>
<trkpt lat="40.0728419" lon="-105.2305749">
  <ele>1586.18</ele>
  <time>2026-08-27T18:24:27Z</time>
  <course>11.05</course>
  <speed>0.01414213562373095</speed>
  <fix>3d</fix>
</trkpt>
<trkpt lat="40.072842" lon="-105.230575">
  <ele>1586.09</ele>
  <time>2026-08-27T18:24:27Z</time>
  <course>266.03</course>
  <speed>0.0</speed>
  <fix>3d</fix>
</trkpt>
<trkpt lat="40.0728419" lon="-105.2305749">
  <ele>1586.18</ele>
  <time>2026-08-27T18:24:27Z</time>
  <course>11.05</course>
  <speed>0.01414213562373095</speed>
  <fix>3d</fix>
</trkpt>
<trkpt lat="40.072842" lon="-105.230575">
  <ele>1586.09</ele>
  <time>2026-08-27T18:24:27Z</time>
  <course>266.03</course>
  <speed>0.0</speed>
  <fix>3d</fix>
</trkpt>
<trkpt lat="40.0728419" lon="-105.2305749">
  <ele>1586.18</ele>
  <time>2026-08-27T18:24:27Z</time>
  <course>11.05</course>
  <speed>0.01414213562373095</speed>
  <fix>3d</fix>
</trkpt>
<trkpt lat="40.072842" lon="-105.230575">
  <ele>1586.09</ele>
  <time>2026-08-27T18:24:27Z</time>
  <course>266.03</course>
  <speed>0.0</speed>
  <fix>3d</fix>
</trkpt>
<trkpt lat="40.0728419" lon="-105.2305749">
  <ele>1586.18</ele>
  <time>2026-08-27T18:24:27Z</time>
  <course>11.05</course>
  <speed>0.01414213562373095</speed>
  <fix>3d</fix>
</trkpt>
<trkpt lat="40.072842" lon="-105.230575">
  <ele>1586.09</ele>
  <time>2026-08-27T18:24:27Z</time>
  <course>266.03</course>
  <speed>0.0</speed>
  <fix>3d</fix>
</trkpt>
<trkpt lat="40.0728419" lon="-105.2305749">
  <ele>1586.18</ele>
  <time>2026-08-27T18:24:27Z</time>
  <course>11.04</course>
  <speed>0.01414213562373095</speed>
  <fix>3d</fix>
</trkpt>
<trkpt lat="40.072842" lon="-105.230575">
  <ele>1586.09</ele>
  <time>2026-08-27T18:24:27Z</time>
  <course>266.03</course>
  <speed>0.0</speed>
  <fix>3d</fix>
</trkpt>
<trkpt lat="40.0728419" lon="-105.2305749">
  <ele>1586.18</ele>
  <time>2026-08-27T18:24:27Z</time>
  <course>11.04</course>
  <speed>0.01414213562373095</speed>
  <fix>3d</fix>
</trkpt>
<trkpt lat="40.072842" lon="-105.230575">
  <ele>1586.09</ele>
  <time>2026-08-27T18:24:27Z</time>
  <course>266.03</course>
  <speed>0.0</speed>
  <fix>3d</fix>
</trkpt>
<trkpt lat="40.0728419" lon="-105.2305749">
  <ele>1586.18</ele>
  <time>2026-08-27T18:24:27Z</time>
  <course>11.04</course>
  <speed>0.01414213562373095</speed>
  <fix>3d</fix>
</trkpt>
<trkpt lat="40.072842" lon="-105.230575">
  <ele>1586.09</ele>
  <time>2026-08-27T18:24:27Z</time>
  <course>266.03</course>
  <speed>0.0</speed>
  <fix>3d</fix>
</trkpt>
<trkpt lat="40.0728419" lon="-105.2305749">
  <ele>1586.17</ele>
  <time>2026-08-27T18:24:27Z</time>
  <course>11.04</course>
  <speed>0.01414213562373095</speed>
  <fix>3d</fix>
</trkpt>
<trkpt lat="40.072842" lon="-105.230575">
  <ele>1586.09</ele>
  <time>2026-08-27T18:24:27Z</time>
  <course>266.03</course>
  <speed>0.0</speed>
  <fix>3d</fix>
</trkpt>
<trkpt lat="40.0728419" lon="-105.2305749">
  <ele>1586.17</ele>
  <time>2026-08-27T18:24:27Z</time>
  <course>11.04</course>
  <speed>0.01414213562373095</speed>
  <fix>3d</fix>
</trkpt>
<trkpt lat="40.072842" lon="-105.230575">
  <ele>1586.09</ele>
  <time>2026-08-27T18:24:27Z</time>
  <course>266.03</course>
  <speed>0.0</speed>
  <fix>3d</fix>
</trkpt>
<trkpt lat="40.0728419" lon="-105.2305749">
  <ele>1586.16</ele>
  <time>2026-08-27T18:24:27Z</time>
  <course>11.04</course>
  <speed>0.01414213562373095</speed>
  <fix>3d</fix>
</trkpt>
<trkpt lat="40.072842" lon="-105.230575">
  <ele>1586.09</ele>
  <time>2026-08-27T18:24:27Z</time>
  <course>266.03</course>
  <speed>0.0</speed>
  <fix>3d</fix>
</trkpt>
<trkpt lat="40.0728419" lon="-105.2305749">
  <ele>1586.16</ele>
  <time>2026-08-27T18:24:27Z</time>
  <course>11.03</course>
  <speed>0.01414213562373095</speed>
  <fix>3d</fix>
</trkpt>
<trkpt lat="40.072842" lon="-105.230575">
  <ele>1586.09</ele>
  <time>2026-08-27T18:24:27Z</time>
  <course>266.03</course>
  <speed>0.0</speed>
  <fix>3d</fix>
</trkpt>
<trkpt lat="40.0728419" lon="-105.2305749">
  <ele>1586.15</ele>
  <time>2026-08-27T18:24:27Z</time>
  <course>11.03</course>
  <speed>0.01414213562373095</speed>
  <fix>3d</fix>
</trkpt>
<trkpt lat="40.072842" lon="-105.230575">
  <ele>1586.09</ele>
  <time>2026-08-27T18:24:27Z</time>
  <course>266.03</course>
  <speed>0.0</speed>
  <fix>3d</fix>
</trkpt>
<trkpt lat="40.0728419" lon="-105.2305749">
  <ele>1586.16</ele>
  <time>2026-08-27T18:24:27Z</time>
  <course>11.03</course>
  <speed>0.01414213562373095</speed>
  <fix>3d</fix>
</trkpt>
<trkpt lat="40.072842" lon="-105.230575">
  <ele>1586.09</ele>
  <time>2026-08-27T18:24:27Z</time>
  <course>266.03</course>
  <speed>0.0</speed>
  <fix>3d</fix>
</trkpt>
<trkpt lat="40.0728419" lon="-105.2305749">
  <ele>1586.16</ele>
  <time>2026-08-27T18:24:27Z</time>
  <course>11.03</course>
  <speed>0.01414213562373095</speed>
  <fix>3d</fix>
</trkpt>
<trkpt lat="40.072842" lon="-105.230575">
  <ele>1586.09</ele>
  <time>2026-08-27T18:24:27Z</time>
  <course>266.03</course>
  <speed>0.0</speed>
  <fix>3d</fix>
</trkpt>
<trkpt lat="40.0728419" lon="-105.2305749">
  <ele>1586.17</ele>
  <time>2026-08-27T18:24:27Z</time>
  <course>11.03</course>
  <speed>0.01414213562373095</speed>
  <fix>3d</fix>
</trkpt>
<trkpt lat="40.072842" lon="-105.230575">
  <ele>1586.09</ele>
  <time>2026-08-27T18:24:27Z</time>
  <course>266.03</course>
  <speed>0.0</speed>
  <fix>3d</fix>
</trkpt>
<trkpt lat="40.0728419" lon="-105.2305749">
  <ele>1586.17</ele>
  <time>2026-08-27T18:24:27Z</time>
  <course>11.03</course>
  <speed>0.01414213562373095</speed>
  <fix>3d</fix>
</trkpt>
<trkpt lat="40.072842" lon="-105.230575">
  <ele>1586.09</ele>
  <time>2026-08-27T18:24:27Z</time>
  <course>266.03</course>
  <speed>0.0</speed>
  <fix>3d</fix>
</trkpt>
<trkpt lat="40.0728419" lon="-105.2305749">
  <ele>1586.17</ele>
  <time>2026-08-27T18:24:27Z</time>
  <course>11.03</course>
  <speed>0.01414213562373095</speed>
  <fix>3d</fix>
</trkpt>
<trkpt lat="40.072842" lon="-105.230575">
  <ele>1586.09</ele>
  <time>2026-08-27T18:24:27Z</time>
  <course>266.03</course>
  <speed>0.0</speed>
  <fix>3d</fix>
</trkpt>
<trkpt lat="40.0728419" lon="-105.2305749">
  <ele>1586.17</ele>
  <time>2026-08-27T18:24:27Z</time>
  <course>11.02</course>
  <speed>0.01414213562373095</speed>
  <fix>3d</fix>
</trkpt>
<trkpt lat="40.072842" lon="-105.230575">
  <ele>1586.09</ele>
  <time>2026-08-27T18:24:27Z</time>
  <course>266.03</course>
  <speed>0.0</speed>
  <fix>3d</fix>
</trkpt>
<trkpt lat="40.0728419" lon="-105.2305749">
  <ele>1586.18</ele>
  <time>2026-08-27T18:24:27Z</time>
  <course>11.02</course>
  <speed>0.01414213562373095</speed>
  <fix>3d</fix>
</trkpt>
<trkpt lat="40.072842" lon="-105.230575">
  <ele>1586.09</ele>
  <time>2026-08-27T18:24:27Z</time>
  <course>266.03</course>
  <speed>0.0</speed>
  <fix>3d</fix>
</trkpt>
<trkpt lat="40.0728419" lon="-105.2305749">
  <ele>1586.19</ele>
  <time>2026-08-27T18:24:27Z</time>
  <course>11.02</course>
  <speed>0.01414213562373095</speed>
  <fix>3d</fix>
</trkpt>
<trkpt lat="40.072842" lon="-105.230575">
  <ele>1586.09</ele>
  <time>2026-08-27T18:24:27Z</time>
  <course>266.03</course>
  <speed>0.0</speed>
  <fix>3d</fix>
</trkpt>
<trkpt lat="40.0728419" lon="-105.2305749">
  <ele>1586.2</ele>
  <time>2026-08-27T18:24:27Z</time>
  <course>11.02</course>
  <speed>0.01414213562373095</speed>
  <fix>3d</fix>
</trkpt>
<trkpt lat="40.072842" lon="-105.230575">
  <ele>1586.09</ele>
  <time>2026-08-27T18:24:27Z</time>
  <course>266.03</course>
  <speed>0.0</speed>
  <fix>3d</fix>
</trkpt>
<trkpt lat="40.0728419" lon="-105.2305749">
  <ele>1586.2</ele>
  <time>2026-08-27T18:24:27Z</time>
  <course>11.02</course>
  <speed>0.01414213562373095</speed>
  <fix>3d</fix>
</trkpt>
<trkpt lat="40.072842" lon="-105.230575">
  <ele>1586.09</ele>
  <time>2026-08-27T18:24:27Z</time>
  <course>266.03</course>
  <speed>0.0</speed>
  <fix>3d</fix>
</trkpt>
<trkpt lat="40.0728419" lon="-105.2305749">
  <ele>1586.2</ele>
  <time>2026-08-27T18:24:27Z</time>
  <course>11.02</course>
  <speed>0.01414213562373095</speed>
  <fix>3d</fix>
</trkpt>
<trkpt lat="40.072842" lon="-105.230575">
  <ele>1586.09</ele>
  <time>2026-08-27T18:24:27Z</time>
  <course>266.03</course>
  <speed>0.0</speed>
  <fix>3d</fix>
</trkpt>
<trkpt lat="40.0728419" lon="-105.2305749">
  <ele>1586.2</ele>
  <time>2026-08-27T18:24:27Z</time>
  <course>11.02</course>
  <speed>0.01414213562373095</speed>
  <fix>3d</fix>
</trkpt>
<trkpt lat="40.072842" lon="-105.230575">
  <ele>1586.09</ele>
  <time>2026-08-27T18:24:27Z</time>
  <course>266.03</course>
  <speed>0.0</speed>
  <fix>3d</fix>
</trkpt>
<trkpt lat="40.0728419" lon="-105.2305749">
  <ele>1586.2</ele>
  <time>2026-08-27T18:24:27Z</time>
  <course>11.01</course>
  <speed>0.01414213562373095</speed>
  <fix>3d</fix>
</trkpt>
<trkpt lat="40.072842" lon="-105.230575">
  <ele>1586.09</ele>
  <time>2026-08-27T18:24:27Z</time>
  <course>266.03</course>
  <speed>0.0</speed>
  <fix>3d</fix>
</trkpt>
<trkpt lat="40.0728419" lon="-105.2305749">
  <ele>1586.21</ele>
  <time>2026-08-27T18:24:27Z</time>
  <course>11.01</course>
  <speed>0.01414213562373095</speed>
  <fix>3d</fix>
</trkpt>
<trkpt lat="40.072842" lon="-105.230575">
  <ele>1586.09</ele>
  <time>2026-08-27T18:24:27Z</time>
  <course>266.03</course>
  <speed>0.0</speed>
  <fix>3d</fix>
</trkpt>
<trkpt lat="40.0728419" lon="-105.2305749">
  <ele>1586.21</ele>
  <time>2026-08-27T18:24:27Z</time>
  <course>11.01</course>
  <speed>0.01414213562373095</speed>
  <fix>3d</fix>
</trkpt>
<trkpt lat="40.072842" lon="-105.230575">
  <ele>1586.09</ele>
  <time>2026-08-27T18:24:27Z</time>
  <course>266.03</course>
  <speed>0.0</speed>
  <fix>3d</fix>
</trkpt>
<trkpt lat="40.0728419" lon="-105.2305749">
  <ele>1586.21</ele>
  <time>2026-08-27T18:24:27Z</time>
  <course>11.01</course>
  <speed>0.01414213562373095</speed>
  <fix>3d</fix>
</trkpt>
<trkpt lat="40.072842" lon="-105.230575">
  <ele>1586.09</ele>
  <time>2026-08-27T18:24:27Z</time>
  <course>266.03</course>
  <speed>0.0</speed>
  <fix>3d</fix>
</trkpt>
<trkpt lat="40.0728419" lon="-105.2305749">
  <ele>1586.21</ele>
  <time>2026-08-27T18:24:27Z</time>
  <course>11.01</course>
  <speed>0.01414213562373095</speed>
  <fix>3d</fix>
</trkpt>
<trkpt lat="40.072842" lon="-105.230575">
  <ele>1586.09</ele>
  <time>2026-08-27T18:24:27Z</time>
  <course>266.03</course>
  <speed>0.0</speed>
  <fix>3d</fix>
</trkpt>
<trkpt lat="40.0728419" lon="-105.2305749">
  <ele>1586.2</ele>
  <time>2026-08-27T18:24:27Z</time>
  <course>11.01</course>
  <speed>0.01414213562373095</speed>
  <fix>3d</fix>
</trkpt>
<trkpt lat="40.072842" lon="-105.230575">
  <ele>1586.09</ele>
  <time>2026-08-27T18:24:27Z</time>
  <course>266.03</course>
  <speed>0.0</speed>
  <fix>3d</fix>
</trkpt>
<trkpt lat="40.0728419" lon="-105.2305749">
  <ele>1586.2</ele>
  <time>2026-08-27T18:24:27Z</time>
  <course>11.01</course>
  <speed>0.01414213562373095</speed>
  <fix>3d</fix>
</trkpt>
<trkpt lat="40.072842" lon="-105.230575">
  <ele>1586.09</ele>
  <time>2026-08-27T18:24:27Z</time>
  <course>266.03</course>
  <speed>0.0</speed>
  <fix>3d</fix>
</trkpt>
<trkpt lat="40.0728419" lon="-105.2305749">
  <ele>1586.2</ele>
  <time>2026-08-27T18:24:27Z</time>
  <course>11.0</course>
  <speed>0.01414213562373095</speed>
  <fix>3d</fix>
</trkpt>
<trkpt lat="40.072842" lon="-105.230575">
  <ele>1586.09</ele>
  <time>2026-08-27T18:24:27Z</time>
  <course>266.03</course>
  <speed>0.0</speed>
  <fix>3d</fix>
</trkpt>
<trkpt lat="40.0728419" lon="-105.2305749">
  <ele>1586.19</ele>
  <time>2026-08-27T18:24:27Z</time>
  <course>11.0</course>
  <speed>0.01414213562373095</speed>
  <fix>3d</fix>
</trkpt>
<trkpt lat="40.072842" lon="-105.230575">
  <ele>1586.09</ele>
  <time>2026-08-27T18:24:27Z</time>
  <course>266.03</course>
  <speed>0.0</speed>
  <fix>3d</fix>
</trkpt>
<trkpt lat="40.0728419" lon="-105.2305749">
  <ele>1586.19</ele>
  <time>2026-08-27T18:24:27Z</time>
  <course>11.0</course>
  <speed>0.01414213562373095</speed>
  <fix>3d</fix>
</trkpt>
<trkpt lat="40.072842" lon="-105.230575">
  <ele>1586.09</ele>
  <time>2026-08-27T18:24:27Z</time>
  <course>266.03</course>
  <speed>0.0</speed>
  <fix>3d</fix>
</trkpt>
<trkpt lat="40.0728419" lon="-105.2305749">
  <ele>1586.19</ele>
  <time>2026-08-27T18:24:27Z</time>
  <course>11.0</course>
  <speed>0.01414213562373095</speed>
  <fix>3d</fix>
</trkpt>
<trkpt lat="40.072842" lon="-105.230575">
  <ele>1586.09</ele>
  <time>2026-08-27T18:24:27Z</time>
  <course>266.03</course>
  <speed>0.0</speed>
  <fix>3d</fix>
</trkpt>
<trkpt lat="40.0728419" lon="-105.2305749">
  <ele>1586.19</ele>
  <time>2026-08-27T18:24:27Z</time>
  <course>11.0</course>
  <speed>0.01414213562373095</speed>
  <fix>3d</fix>
</trkpt>
<trkpt lat="40.072842" lon="-105.230575">
  <ele>1586.09</ele>
  <time>2026-08-27T18:24:27Z</time>
  <course>266.03</course>
  <speed>0.0</speed>
  <fix>3d</fix>
</trkpt>
<trkpt lat="40.0728419" lon="-105.2305749">
  <ele>1586.2</ele>
  <time>2026-08-27T18:24:27Z</time>
  <course>11.0</course>
  <speed>0.01414213562373095</speed>
  <fix>3d</fix>
</trkpt>
<trkpt lat="40.072842" lon="-105.230575">
  <ele>1586.09</ele>
  <time>2026-08-27T18:24:27Z</time>
  <course>266.03</course>
  <speed>0.0</speed>
  <fix>3d</fix>
</trkpt>
<trkpt lat="40.0728419" lon="-105.2305749">
  <ele>1586.2</ele>
  <time>2026-08-27T18:24:27Z</time>
  <course>11.0</course>
  <speed>0.01414213562373095</speed>
  <fix>3d</fix>
</trkpt>
<trkpt lat="40.072842" lon="-105.230575">
  <ele>1586.09</ele>
  <time>2026-08-27T18:24:27Z</time>
  <course>266.03</course>
  <speed>0.0</speed>
  <fix>3d</fix>
</trkpt>
<trkpt lat="40.0728419" lon="-105.2305749">
  <ele>1586.2</ele>
  <time>2026-08-27T18:24:27Z</time>
  <course>11.0</course>
  <speed>0.01414213562373095</speed>
  <fix>3d</fix>
</trkpt>
<trkpt lat="40.072842" lon="-105.230575">
  <ele>1586.09</ele>
  <time>2026-08-27T18:24:27Z</time>
  <course>266.03</course>
  <speed>0.0</speed>
  <fix>3d</fix>
</trkpt>
<trkpt lat="40.0728419" lon="-105.2305749">
  <ele>1586.2</ele>
  <time>2026-08-27T18:24:27Z</time>
  <course>11.0</course>
  <speed>0.01414213562373095</speed>
  <fix>3d</fix>
</trkpt>
<trkpt lat="40.072842" lon="-105.230575">
  <ele>1586.09</ele>
  <time>2026-08-27T18:24:27Z</time>
  <course>266.03</course>
  <speed>0.0</speed>
  <fix>3d</fix>
</trkpt>
<trkpt lat="40.0728419" lon="-105.2305749">
  <ele>1586.2</ele>
  <time>2026-08-27T18:24:27Z</time>
  <course>10.99</course>
  <speed>0.01414213562373095</speed>
  <fix>3d</fix>
</trkpt>
<trkpt lat="40.072842" lon="-105.230575">
  <ele>1586.09</ele>
  <time>2026-08-27T18:24:27Z</time>
  <course>266.03</course>
  <speed>0.0</speed>
  <fix>3d</fix>
</trkpt>
<trkpt lat="40.0728419" lon="-105.2305749">
  <ele>1586.2</ele>
  <time>2026-08-27T18:24:27Z</time>
  <course>10.99</course>
  <speed>0.01414213562373095</speed>
  <fix>3d</fix>
</trkpt>
<trkpt lat="40.072842" lon="-105.230575">
  <ele>1586.09</ele>
  <time>2026-08-27T18:24:27Z</time>
  <course>266.03</course>
  <speed>0.0</speed>
  <fix>3d</fix>
</trkpt>
<trkpt lat="40.0728419" lon="-105.2305749">
  <ele>1586.19</ele>
  <time>2026-08-27T18:24:27Z</time>
  <course>10.99</course>
  <speed>0.01414213562373095</speed>
  <fix>3d</fix>
</trkpt>
<trkpt lat="40.072842" lon="-105.230575">
  <ele>1586.09</ele>
  <time>2026-08-27T18:24:27Z</time>
  <course>266.03</course>
  <speed>0.0</speed>
  <fix>3d</fix>
</trkpt>
<trkpt lat="40.0728419" lon="-105.2305749">
  <ele>1586.19</ele>
  <time>2026-08-27T18:24:27Z</time>
  <course>10.99</course>
  <speed>0.01414213562373095</speed>
  <fix>3d</fix>
</trkpt>
<trkpt lat="40.072842" lon="-105.230575">
  <ele>1586.09</ele>
  <time>2026-08-27T18:24:27Z</time>
  <course>266.03</course>
  <speed>0.0</speed>
  <fix>3d</fix>
</trkpt>
<trkpt lat="40.0728419" lon="-105.2305749">
  <ele>1586.18</ele>
  <time>2026-08-27T18:24:27Z</time>
  <course>10.99</course>
  <speed>0.01414213562373095</speed>
  <fix>3d</fix>
</trkpt>
<trkpt lat="40.072842" lon="-105.230575">
  <ele>1586.09</ele>
  <time>2026-08-27T18:24:27Z</time>
  <course>266.03</course>
  <speed>0.0</speed>
  <fix>3d</fix>
</trkpt>
<trkpt lat="40.0728419" lon="-105.2305749">
  <ele>1586.18</ele>
  <time>2026-08-27T18:24:27Z</time>
  <course>10.99</course>
  <speed>0.01414213562373095</speed>
  <fix>3d</fix>
</trkpt>
<trkpt lat="40.072842" lon="-105.230575">
  <ele>1586.09</ele>
  <time>2026-08-27T18:24:27Z</time>
  <course>266.03</course>
  <speed>0.0</speed>
  <fix>3d</fix>
</trkpt>
<trkpt lat="40.0728419" lon="-105.2305749">
  <ele>1586.18</ele>
  <time>2026-08-27T18:24:27Z</time>
  <course>10.99</course>
  <speed>0.01414213562373095</speed>
  <fix>3d</fix>
</trkpt>
<trkpt lat="40.072842" lon="-105.230575">
  <ele>1586.09</ele>
  <time>2026-08-27T18:24:28Z</time>
  <course>266.03</course>
  <speed>0.0</speed>
  <fix>3d</fix>
</trkpt>
<trkpt lat="40.0728419" lon="-105.2305749">
  <ele>1586.18</ele>
  <time>2026-08-27T18:24:28Z</time>
  <course>10.99</course>
  <speed>0.01414213562373095</speed>
  <fix>3d</fix>
</trkpt>
<trkpt lat="40.072842" lon="-105.230575">
  <ele>1586.09</ele>
  <time>2026-08-27T18:24:28Z</time>
  <course>266.03</course>
  <speed>0.0</speed>
  <fix>3d</fix>
</trkpt>
<trkpt lat="40.0728419" lon="-105.2305749">
  <ele>1586.18</ele>
  <time>2026-08-27T18:24:28Z</time>
  <course>10.99</course>
  <speed>0.01414213562373095</speed>
  <fix>3d</fix>
</trkpt>
<trkpt lat="40.072842" lon="-105.230575">
  <ele>1586.09</ele>
  <time>2026-08-27T18:24:28Z</time>
  <course>266.03</course>
  <speed>0.0</speed>
  <fix>3d</fix>
</trkpt>
<trkpt lat="40.0728419" lon="-105.2305749">
  <ele>1586.17</ele>
  <time>2026-08-27T18:24:28Z</time>
  <course>10.99</course>
  <speed>0.01414213562373095</speed>
  <fix>3d</fix>
</trkpt>
<trkpt lat="40.072842" lon="-105.230575">
  <ele>1586.09</ele>
  <time>2026-08-27T18:24:28Z</time>
  <course>266.03</course>
  <speed>0.0</speed>
  <fix>3d</fix>
</trkpt>
<trkpt lat="40.0728419" lon="-105.2305749">
  <ele>1586.17</ele>
  <time>2026-08-27T18:24:28Z</time>
  <course>10.98</course>
  <speed>0.01414213562373095</speed>
  <fix>3d</fix>
</trkpt>
<trkpt lat="40.072842" lon="-105.230575">
  <ele>1586.09</ele>
  <time>2026-08-27T18:24:28Z</time>
  <course>266.03</course>
  <speed>0.0</speed>
  <fix>3d</fix>
</trkpt>
<trkpt lat="40.0728419" lon="-105.2305749">
  <ele>1586.17</ele>
  <time>2026-08-27T18:24:28Z</time>
  <course>10.98</course>
  <speed>0.01414213562373095</speed>
  <fix>3d</fix>
</trkpt>
<trkpt lat="40.072842" lon="-105.230575">
  <ele>1586.09</ele>
  <time>2026-08-27T18:24:28Z</time>
  <course>266.03</course>
  <speed>0.0</speed>
  <fix>3d</fix>
</trkpt>
<trkpt lat="40.0728419" lon="-105.2305749">
  <ele>1586.17</ele>
  <time>2026-08-27T18:24:28Z</time>
  <course>10.98</course>
  <speed>0.01414213562373095</speed>
  <fix>3d</fix>
</trkpt>
<trkpt lat="40.072842" lon="-105.230575">
  <ele>1586.09</ele>
  <time>2026-08-27T18:24:28Z</time>
  <course>266.03</course>
  <speed>0.0</speed>
  <fix>3d</fix>
</trkpt>
<trkpt lat="40.0728419" lon="-105.2305749">
  <ele>1586.17</ele>
  <time>2026-08-27T18:24:28Z</time>
  <course>10.98</course>
  <speed>0.01414213562373095</speed>
  <fix>3d</fix>
</trkpt>
<trkpt lat="40.072842" lon="-105.230575">
  <ele>1586.09</ele>
  <time>2026-08-27T18:24:28Z</time>
  <course>266.03</course>
  <speed>0.0</speed>
  <fix>3d</fix>
</trkpt>
<trkpt lat="40.0728419" lon="-105.2305749">
  <ele>1586.16</ele>
  <time>2026-08-27T18:24:28Z</time>
  <course>10.98</course>
  <speed>0.01414213562373095</speed>
  <fix>3d</fix>
</trkpt>
<trkpt lat="40.072842" lon="-105.230575">
  <ele>1586.09</ele>
  <time>2026-08-27T18:24:28Z</time>
  <course>266.03</course>
  <speed>0.0</speed>
  <fix>3d</fix>
</trkpt>
<trkpt lat="40.0728419" lon="-105.2305749">
  <ele>1586.16</ele>
  <time>2026-08-27T18:24:28Z</time>
  <course>10.98</course>
  <speed>0.01414213562373095</speed>
  <fix>3d</fix>
</trkpt>
<trkpt lat="40.072842" lon="-105.230575">
  <ele>1586.09</ele>
  <time>2026-08-27T18:24:28Z</time>
  <course>266.03</course>
  <speed>0.0</speed>
  <fix>3d</fix>
</trkpt>
<trkpt lat="40.0728419" lon="-105.2305749">
  <ele>1586.16</ele>
  <time>2026-08-27T18:24:28Z</time>
  <course>10.98</course>
  <speed>0.01414213562373095</speed>
  <fix>3d</fix>
</trkpt>
<trkpt lat="40.072842" lon="-105.230575">
  <ele>1586.09</ele>
  <time>2026-08-27T18:24:28Z</time>
  <course>266.03</course>
  <speed>0.0</speed>
  <fix>3d</fix>
</trkpt>
<trkpt lat="40.0728419" lon="-105.2305749">
  <ele>1586.16</ele>
  <time>2026-08-27T18:24:28Z</time>
  <course>10.98</course>
  <speed>0.01414213562373095</speed>
  <fix>3d</fix>
</trkpt>
<trkpt lat="40.072842" lon="-105.230575">
  <ele>1586.09</ele>
  <time>2026-08-27T18:24:28Z</time>
  <course>266.03</course>
  <speed>0.0</speed>
  <fix>3d</fix>
</trkpt>
<trkpt lat="40.0728419" lon="-105.2305749">
  <ele>1586.16</ele>
  <time>2026-08-27T18:24:28Z</time>
  <course>10.98</course>
  <speed>0.01414213562373095</speed>
  <fix>3d</fix>
</trkpt>
<trkpt lat="40.072842" lon="-105.230575">
  <ele>1586.09</ele>
  <time>2026-08-27T18:24:28Z</time>
  <course>266.03</course>
  <speed>0.0</speed>
  <fix>3d</fix>
</trkpt>
<trkpt lat="40.0728419" lon="-105.2305749">
  <ele>1586.16</ele>
  <time>2026-08-27T18:24:28Z</time>
  <course>10.98</course>
  <speed>0.01414213562373095</speed>
  <fix>3d</fix>
</trkpt>
<trkpt lat="40.072842" lon="-105.230575">
  <ele>1586.09</ele>
  <time>2026-08-27T18:24:28Z</time>
  <course>266.03</course>
  <speed>0.0</speed>
  <fix>3d</fix>
</trkpt>
<trkpt lat="40.0728419" lon="-105.2305749">
  <ele>1586.15</ele>
  <time>2026-08-27T18:24:28Z</time>
  <course>10.98</course>
  <speed>0.01414213562373095</speed>
  <fix>3d</fix>
</trkpt>
<trkpt lat="40.072842" lon="-105.230575">
  <ele>1586.09</ele>
  <time>2026-08-27T18:24:28Z</time>
  <course>266.03</course>
  <speed>0.0</speed>
  <fix>3d</fix>
</trkpt>
<trkpt lat="40.0728419" lon="-105.2305749">
  <ele>1586.16</ele>
  <time>2026-08-27T18:24:28Z</time>
  <course>10.97</course>
  <speed>0.01414213562373095</speed>
  <fix>3d</fix>
</trkpt>
<trkpt lat="40.072842" lon="-105.230575">
  <ele>1586.09</ele>
  <time>2026-08-27T18:24:28Z</time>
  <course>266.03</course>
  <speed>0.0</speed>
  <fix>3d</fix>
</trkpt>
<trkpt lat="40.0728419" lon="-105.2305749">
  <ele>1586.16</ele>
  <time>2026-08-27T18:24:28Z</time>
  <course>10.97</course>
  <speed>0.01414213562373095</speed>
  <fix>3d</fix>
</trkpt>
<trkpt lat="40.072842" lon="-105.230575">
  <ele>1586.09</ele>
  <time>2026-08-27T18:24:28Z</time>
  <course>266.03</course>
  <speed>0.0</speed>
  <fix>3d</fix>
</trkpt>
<trkpt lat="40.0728419" lon="-105.2305749">
  <ele>1586.16</ele>
  <time>2026-08-27T18:24:28Z</time>
  <course>10.97</course>
  <speed>0.01414213562373095</speed>
  <fix>3d</fix>
</trkpt>
<trkpt lat="40.072842" lon="-105.230575">
  <ele>1586.09</ele>
  <time>2026-08-27T18:24:28Z</time>
  <course>266.03</course>
  <speed>0.0</speed>
  <fix>3d</fix>
</trkpt>
<trkpt lat="40.0728419" lon="-105.2305749">
  <ele>1586.15</ele>
  <time>2026-08-27T18:24:28Z</time>
  <course>10.97</course>
  <speed>0.01414213562373095</speed>
  <fix>3d</fix>
</trkpt>
<trkpt lat="40.072842" lon="-105.230575">
  <ele>1586.09</ele>
  <time>2026-08-27T18:24:28Z</time>
  <course>266.03</course>
  <speed>0.0</speed>
  <fix>3d</fix>
</trkpt>
<trkpt lat="40.0728419" lon="-105.2305749">
  <ele>1586.15</ele>
  <time>2026-08-27T18:24:28Z</time>
  <course>10.97</course>
  <speed>0.01414213562373095</speed>
  <fix>3d</fix>
</trkpt>
<trkpt lat="40.072842" lon="-105.230575">
  <ele>1586.09</ele>
  <time>2026-08-27T18:24:28Z</time>
  <course>266.03</course>
  <speed>0.0</speed>
  <fix>3d</fix>
</trkpt>
<trkpt lat="40.0728419" lon="-105.2305749">
  <ele>1586.16</ele>
  <time>2026-08-27T18:24:28Z</time>
  <course>10.97</course>
  <speed>0.01414213562373095</speed>
  <fix>3d</fix>
</trkpt>
<trkpt lat="40.072842" lon="-105.230575">
  <ele>1586.09</ele>
  <time>2026-08-27T18:24:28Z</time>
  <course>266.03</course>
  <speed>0.0</speed>
  <fix>3d</fix>
</trkpt>
<trkpt lat="40.0728419" lon="-105.2305749">
  <ele>1586.16</ele>
  <time>2026-08-27T18:24:28Z</time>
  <course>10.97</course>
  <speed>0.01414213562373095</speed>
  <fix>3d</fix>
</trkpt>
<trkpt lat="40.072842" lon="-105.230575">
  <ele>1586.09</ele>
  <time>2026-08-27T18:24:28Z</time>
  <course>266.03</course>
  <speed>0.0</speed>
  <fix>3d</fix>
</trkpt>
<trkpt lat="40.0728419" lon="-105.2305749">
  <ele>1586.16</ele>
  <time>2026-08-27T18:24:28Z</time>
  <course>10.97</course>
  <speed>0.01414213562373095</speed>
  <fix>3d</fix>
</trkpt>
<trkpt lat="40.072842" lon="-105.230575">
  <ele>1586.09</ele>
  <time>2026-08-27T18:24:28Z</time>
  <course>266.03</course>
  <speed>0.0</speed>
  <fix>3d</fix>
</trkpt>
<trkpt lat="40.0728419" lon="-105.2305749">
  <ele>1586.16</ele>
  <time>2026-08-27T18:24:28Z</time>
  <course>10.97</course>
  <speed>0.01414213562373095</speed>
  <fix>3d</fix>
</trkpt>
<trkpt lat="40.072842" lon="-105.230575">
  <ele>1586.09</ele>
  <time>2026-08-27T18:24:28Z</time>
  <course>266.03</course>
  <speed>0.0</speed>
  <fix>3d</fix>
</trkpt>
<trkpt lat="40.0728419" lon="-105.2305749">
  <ele>1586.15</ele>
  <time>2026-08-27T18:24:28Z</time>
  <course>10.97</course>
  <speed>0.01414213562373095</speed>
  <fix>3d</fix>
</trkpt>
<trkpt lat="40.072842" lon="-105.230575">
  <ele>1586.09</ele>
  <time>2026-08-27T18:24:28Z</time>
  <course>266.03</course>
  <speed>0.0</speed>
  <fix>3d</fix>
</trkpt>
<trkpt lat="40.0728419" lon="-105.2305749">
  <ele>1586.15</ele>
  <time>2026-08-27T18:24:28Z</time>
  <course>10.97</course>
  <speed>0.01414213562373095</speed>
  <fix>3d</fix>
</trkpt>
<trkpt lat="40.072842" lon="-105.230575">
  <ele>1586.09</ele>
  <time>2026-08-27T18:24:28Z</time>
  <course>266.03</course>
  <speed>0.0</speed>
  <fix>3d</fix>
</trkpt>
<trkpt lat="40.0728419" lon="-105.2305749">
  <ele>1586.15</ele>
  <time>2026-08-27T18:24:28Z</time>
  <course>10.97</course>
  <speed>0.01414213562373095</speed>
  <fix>3d</fix>
</trkpt>
<trkpt lat="40.072842" lon="-105.230575">
  <ele>1586.09</ele>
  <time>2026-08-27T18:24:28Z</time>
  <course>266.03</course>
  <speed>0.0</speed>
  <fix>3d</fix>
</trkpt>
<trkpt lat="40.0728419" lon="-105.2305749">
  <ele>1586.14</ele>
  <time>2026-08-27T18:24:28Z</time>
  <course>10.97</course>
  <speed>0.01414213562373095</speed>
  <fix>3d</fix>
</trkpt>
<trkpt lat="40.072842" lon="-105.230575">
  <ele>1586.09</ele>
  <time>2026-08-27T18:24:28Z</time>
  <course>266.03</course>
  <speed>0.0</speed>
  <fix>3d</fix>
</trkpt>
<trkpt lat="40.0728419" lon="-105.2305749">
  <ele>1586.14</ele>
  <time>2026-08-27T18:24:28Z</time>
  <course>10.97</course>
  <speed>0.01414213562373095</speed>
  <fix>3d</fix>
</trkpt>
<trkpt lat="40.072842" lon="-105.230575">
  <ele>1586.09</ele>
  <time>2026-08-27T18:24:28Z</time>
  <course>266.03</course>
  <speed>0.0</speed>
  <fix>3d</fix>
</trkpt>
<trkpt lat="40.0728419" lon="-105.2305749">
  <ele>1586.14</ele>
  <time>2026-08-27T18:24:28Z</time>
  <course>10.97</course>
  <speed>0.01414213562373095</speed>
  <fix>3d</fix>
</trkpt>
<trkpt lat="40.072842" lon="-105.230575">
  <ele>1586.09</ele>
  <time>2026-08-27T18:24:28Z</time>
  <course>266.03</course>
  <speed>0.0</speed>
  <fix>3d</fix>
</trkpt>
<trkpt lat="40.0728419" lon="-105.2305749">
  <ele>1586.14</ele>
  <time>2026-08-27T18:24:28Z</time>
  <course>10.97</course>
  <speed>0.01414213562373095</speed>
  <fix>3d</fix>
</trkpt>
<trkpt lat="40.072842" lon="-105.230575">
  <ele>1586.09</ele>
  <time>2026-08-27T18:24:28Z</time>
  <course>266.03</course>
  <speed>0.0</speed>
  <fix>3d</fix>
</trkpt>
<trkpt lat="40.0728419" lon="-105.2305749">
  <ele>1586.14</ele>
  <time>2026-08-27T18:24:28Z</time>
  <course>10.96</course>
  <speed>0.01414213562373095</speed>
  <fix>3d</fix>
</trkpt>
<trkpt lat="40.072842" lon="-105.230575">
  <ele>1586.09</ele>
  <time>2026-08-27T18:24:28Z</time>
  <course>266.03</course>
  <speed>0.0</speed>
  <fix>3d</fix>
</trkpt>
<trkpt lat="40.0728419" lon="-105.2305749">
  <ele>1586.13</ele>
  <time>2026-08-27T18:24:28Z</time>
  <course>10.96</course>
  <speed>0.01414213562373095</speed>
  <fix>3d</fix>
</trkpt>
<trkpt lat="40.072842" lon="-105.230575">
  <ele>1586.09</ele>
  <time>2026-08-27T18:24:28Z</time>
  <course>266.03</course>
  <speed>0.0</speed>
  <fix>3d</fix>
</trkpt>
<trkpt lat="40.0728419" lon="-105.2305749">
  <ele>1586.13</ele>
  <time>2026-08-27T18:24:28Z</time>
  <course>10.96</course>
  <speed>0.01414213562373095</speed>
  <fix>3d</fix>
</trkpt>
<trkpt lat="40.072842" lon="-105.230575">
  <ele>1586.09</ele>
  <time>2026-08-27T18:24:28Z</time>
  <course>266.03</course>
  <speed>0.0</speed>
  <fix>3d</fix>
</trkpt>
<trkpt lat="40.0728419" lon="-105.2305749">
  <ele>1586.13</ele>
  <time>2026-08-27T18:24:28Z</time>
  <course>10.96</course>
  <speed>0.01414213562373095</speed>
  <fix>3d</fix>
</trkpt>
<trkpt lat="40.072842" lon="-105.230575">
  <ele>1586.09</ele>
  <time>2026-08-27T18:24:28Z</time>
  <course>266.03</course>
  <speed>0.0</speed>
  <fix>3d</fix>
</trkpt>
<trkpt lat="40.0728419" lon="-105.2305749">
  <ele>1586.13</ele>
  <time>2026-08-27T18:24:28Z</time>
  <course>10.96</course>
  <speed>0.01414213562373095</speed>
  <fix>3d</fix>
</trkpt>
<trkpt lat="40.072842" lon="-105.230575">
  <ele>1586.09</ele>
  <time>2026-08-27T18:24:28Z</time>
  <course>266.03</course>
  <speed>0.0</speed>
  <fix>3d</fix>
</trkpt>
<trkpt lat="40.0728419" lon="-105.2305749">
  <ele>1586.14</ele>
  <time>2026-08-27T18:24:28Z</time>
  <course>10.96</course>
  <speed>0.01414213562373095</speed>
  <fix>3d</fix>
</trkpt>
<trkpt lat="40.072842" lon="-105.230575">
  <ele>1586.09</ele>
  <time>2026-08-27T18:24:28Z</time>
  <course>266.03</course>
  <speed>0.0</speed>
  <fix>3d</fix>
</trkpt>
<trkpt lat="40.0728419" lon="-105.2305749">
  <ele>1586.15</ele>
  <time>2026-08-27T18:24:28Z</time>
  <course>10.96</course>
  <speed>0.01414213562373095</speed>
  <fix>3d</fix>
</trkpt>
<trkpt lat="40.072842" lon="-105.230575">
  <ele>1586.09</ele>
  <time>2026-08-27T18:24:28Z</time>
  <course>266.03</course>
  <speed>0.0</speed>
  <fix>3d</fix>
</trkpt>
<trkpt lat="40.0728419" lon="-105.2305749">
  <ele>1586.15</ele>
  <time>2026-08-27T18:24:28Z</time>
  <course>10.96</course>
  <speed>0.01414213562373095</speed>
  <fix>3d</fix>
</trkpt>
<trkpt lat="40.072842" lon="-105.230575">
  <ele>1586.09</ele>
  <time>2026-08-27T18:24:28Z</time>
  <course>266.03</course>
  <speed>0.0</speed>
  <fix>3d</fix>
</trkpt>
<trkpt lat="40.0728419" lon="-105.2305749">
  <ele>1586.16</ele>
  <time>2026-08-27T18:24:28Z</time>
  <course>10.96</course>
  <speed>0.01414213562373095</speed>
  <fix>3d</fix>
</trkpt>
<trkpt lat="40.072842" lon="-105.230575">
  <ele>1586.09</ele>
  <time>2026-08-27T18:24:28Z</time>
  <course>266.03</course>
  <speed>0.0</speed>
  <fix>3d</fix>
</trkpt>
<trkpt lat="40.0728419" lon="-105.2305749">
  <ele>1586.16</ele>
  <time>2026-08-27T18:24:28Z</time>
  <course>10.96</course>
  <speed>0.01414213562373095</speed>
  <fix>3d</fix>
</trkpt>
<trkpt lat="40.072842" lon="-105.230575">
  <ele>1586.09</ele>
  <time>2026-08-27T18:24:28Z</time>
  <course>266.03</course>
  <speed>0.0</speed>
  <fix>3d</fix>
</trkpt>
<trkpt lat="40.0728419" lon="-105.2305749">
  <ele>1586.16</ele>
  <time>2026-08-27T18:24:28Z</time>
  <course>10.96</course>
  <speed>0.01414213562373095</speed>
  <fix>3d</fix>
</trkpt>
<trkpt lat="40.072842" lon="-105.230575">
  <ele>1586.09</ele>
  <time>2026-08-27T18:24:28Z</time>
  <course>266.03</course>
  <speed>0.0</speed>
  <fix>3d</fix>
</trkpt>
<trkpt lat="40.0728419" lon="-105.2305749">
  <ele>1586.16</ele>
  <time>2026-08-27T18:24:28Z</time>
  <course>10.96</course>
  <speed>0.01414213562373095</speed>
  <fix>3d</fix>
</trkpt>
<trkpt lat="40.072842" lon="-105.230575">
  <ele>1586.09</ele>
  <time>2026-08-27T18:24:28Z</time>
  <course>266.03</course>
  <speed>0.0</speed>
  <fix>3d</fix>
</trkpt>
<trkpt lat="40.0728419" lon="-105.2305749">
  <ele>1586.17</ele>
  <time>2026-08-27T18:24:28Z</time>
  <course>10.96</course>
  <speed>0.01414213562373095</speed>
  <fix>3d</fix>
</trkpt>
<trkpt lat="40.072842" lon="-105.230575">
  <ele>1586.09</ele>
  <time>2026-08-27T18:24:28Z</time>
  <course>266.03</course>
  <speed>0.0</speed>
  <fix>3d</fix>
</trkpt>
<trkpt lat="40.0728419" lon="-105.2305749">
  <ele>1586.17</ele>
  <time>2026-08-27T18:24:28Z</time>
  <course>10.96</course>
  <speed>0.01414213562373095</speed>
  <fix>3d</fix>
</trkpt>
<trkpt lat="40.072842" lon="-105.230575">
  <ele>1586.09</ele>
  <time>2026-08-27T18:24:28Z</time>
  <course>266.03</course>
  <speed>0.0</speed>
  <fix>3d</fix>
</trkpt>
<trkpt lat="40.0728419" lon="-105.2305749">
  <ele>1586.17</ele>
  <time>2026-08-27T18:24:28Z</time>
  <course>10.96</course>
  <speed>0.01414213562373095</speed>
  <fix>3d</fix>
</trkpt>
<trkpt lat="40.072842" lon="-105.230575">
  <ele>1586.09</ele>
  <time>2026-08-27T18:24:28Z</time>
  <course>266.03</course>
  <speed>0.0</speed>
  <fix>3d</fix>
</trkpt>
<trkpt lat="40.0728419" lon="-105.2305749">
  <ele>1586.16</ele>
  <time>2026-08-27T18:24:28Z</time>
  <course>10.96</course>
  <speed>0.01414213562373095</speed>
  <fix>3d</fix>
</trkpt>
<trkpt lat="40.072842" lon="-105.230575">
  <ele>1586.09</ele>
  <time>2026-08-27T18:24:28Z</time>
  <course>266.03</course>
  <speed>0.0</speed>
  <fix>3d</fix>
</trkpt>
<trkpt lat="40.0728419" lon="-105.2305749">
  <ele>1586.16</ele>
  <time>2026-08-27T18:24:28Z</time>
  <course>10.96</course>
  <speed>0.01414213562373095</speed>
  <fix>3d</fix>
</trkpt>
<trkpt lat="40.072842" lon="-105.230575">
  <ele>1586.09</ele>
  <time>2026-08-27T18:24:28Z</time>
  <course>266.03</course>
  <speed>0.0</speed>
  <fix>3d</fix>
</trkpt>
<trkpt lat="40.0728419" lon="-105.2305749">
  <ele>1586.16</ele>
  <time>2026-08-27T18:24:28Z</time>
  <course>10.96</course>
  <speed>0.01414213562373095</speed>
  <fix>3d</fix>
</trkpt>
<trkpt lat="40.072842" lon="-105.230575">
  <ele>1586.09</ele>
  <time>2026-08-27T18:24:28Z</time>
  <course>266.03</course>
  <speed>0.0</speed>
  <fix>3d</fix>
</trkpt>
<trkpt lat="40.0728419" lon="-105.2305749">
  <ele>1586.16</ele>
  <time>2026-08-27T18:24:28Z</time>
  <course>10.96</course>
  <speed>0.01414213562373095</speed>
  <fix>3d</fix>
</trkpt>
<trkpt lat="40.072842" lon="-105.230575">
  <ele>1586.09</ele>
  <time>2026-08-27T18:24:28Z</time>
  <course>266.03</course>
  <speed>0.0</speed>
  <fix>3d</fix>
</trkpt>
<trkpt lat="40.0728419" lon="-105.2305749">
  <ele>1586.16</ele>
  <time>2026-08-27T18:24:28Z</time>
  <course>10.96</course>
  <speed>0.01414213562373095</speed>
  <fix>3d</fix>
</trkpt>
<trkpt lat="40.072842" lon="-105.230575">
  <ele>1586.09</ele>
  <time>2026-08-27T18:24:28Z</time>
  <course>266.03</course>
  <speed>0.0</speed>
  <fix>3d</fix>
</trkpt>
<trkpt lat="40.0728419" lon="-105.2305749">
  <ele>1586.16</ele>
  <time>2026-08-27T18:24:28Z</time>
  <course>10.96</course>
  <speed>0.01414213562373095</speed>
  <fix>3d</fix>
</trkpt>
<trkpt lat="40.072842" lon="-105.230575">
  <ele>1586.09</ele>
  <time>2026-08-27T18:24:28Z</time>
  <course>266.03</course>
  <speed>0.0</speed>
  <fix>3d</fix>
</trkpt>
<trkpt lat="40.0728419" lon="-105.2305749">
  <ele>1586.17</ele>
  <time>2026-08-27T18:24:28Z</time>
  <course>10.95</course>
  <speed>0.01414213562373095</speed>
  <fix>3d</fix>
</trkpt>
<trkpt lat="40.072842" lon="-105.230575">
  <ele>1586.09</ele>
  <time>2026-08-27T18:24:28Z</time>
  <course>266.03</course>
  <speed>0.0</speed>
  <fix>3d</fix>
</trkpt>
<trkpt lat="40.0728419" lon="-105.2305749">
  <ele>1586.17</ele>
  <time>2026-08-27T18:24:28Z</time>
  <course>10.95</course>
  <speed>0.01414213562373095</speed>
  <fix>3d</fix>
</trkpt>
<trkpt lat="40.072842" lon="-105.230575">
  <ele>1586.09</ele>
  <time>2026-08-27T18:24:28Z</time>
  <course>266.03</course>
  <speed>0.0</speed>
  <fix>3d</fix>
</trkpt>
<trkpt lat="40.0728419" lon="-105.2305749">
  <ele>1586.17</ele>
  <time>2026-08-27T18:24:28Z</time>
  <course>10.95</course>
  <speed>0.01414213562373095</speed>
  <fix>3d</fix>
</trkpt>
<trkpt lat="40.072842" lon="-105.230575">
  <ele>1586.09</ele>
  <time>2026-08-27T18:24:28Z</time>
  <course>266.03</course>
  <speed>0.0</speed>
  <fix>3d</fix>
</trkpt>
<trkpt lat="40.0728419" lon="-105.2305749">
  <ele>1586.17</ele>
  <time>2026-08-27T18:24:28Z</time>
  <course>10.95</course>
  <speed>0.01414213562373095</speed>
  <fix>3d</fix>
</trkpt>
<trkpt lat="40.072842" lon="-105.230575">
  <ele>1586.09</ele>
  <time>2026-08-27T18:24:28Z</time>
  <course>266.03</course>
  <speed>0.0</speed>
  <fix>3d</fix>
</trkpt>
<trkpt lat="40.0728419" lon="-105.2305749">
  <ele>1586.17</ele>
  <time>2026-08-27T18:24:28Z</time>
  <course>10.95</course>
  <speed>0.01414213562373095</speed>
  <fix>3d</fix>
</trkpt>
<trkpt lat="40.072842" lon="-105.230575">
  <ele>1586.09</ele>
  <time>2026-08-27T18:24:28Z</time>
  <course>266.03</course>
  <speed>0.0</speed>
  <fix>3d</fix>
</trkpt>
<trkpt lat="40.0728419" lon="-105.2305749">
  <ele>1586.17</ele>
  <time>2026-08-27T18:24:28Z</time>
  <course>10.95</course>
  <speed>0.01414213562373095</speed>
  <fix>3d</fix>
</trkpt>
<trkpt lat="40.072842" lon="-105.230575">
  <ele>1586.09</ele>
  <time>2026-08-27T18:24:28Z</time>
  <course>266.03</course>
  <speed>0.0</speed>
  <fix>3d</fix>
</trkpt>
<trkpt lat="40.0728419" lon="-105.2305749">
  <ele>1586.17</ele>
  <time>2026-08-27T18:24:28Z</time>
  <course>10.95</course>
  <speed>0.01414213562373095</speed>
  <fix>3d</fix>
</trkpt>
<trkpt lat="40.072842" lon="-105.230575">
  <ele>1586.09</ele>
  <time>2026-08-27T18:24:28Z</time>
  <course>266.03</course>
  <speed>0.0</speed>
  <fix>3d</fix>
</trkpt>
<trkpt lat="40.0728419" lon="-105.2305749">
  <ele>1586.17</ele>
  <time>2026-08-27T18:24:28Z</time>
  <course>10.95</course>
  <speed>0.01414213562373095</speed>
  <fix>3d</fix>
</trkpt>
<trkpt lat="40.072842" lon="-105.230575">
  <ele>1586.09</ele>
  <time>2026-08-27T18:24:28Z</time>
  <course>266.03</course>
  <speed>0.0</speed>
  <fix>3d</fix>
</trkpt>
<trkpt lat="40.0728419" lon="-105.2305749">
  <ele>1586.17</ele>
  <time>2026-08-27T18:24:28Z</time>
  <course>10.95</course>
  <speed>0.01414213562373095</speed>
  <fix>3d</fix>
</trkpt>
<trkpt lat="40.072842" lon="-105.230575">
  <ele>1586.09</ele>
  <time>2026-08-27T18:24:28Z</time>
  <course>266.03</course>
  <speed>0.0</speed>
  <fix>3d</fix>
</trkpt>
<trkpt lat="40.0728419" lon="-105.2305749">
  <ele>1586.17</ele>
  <time>2026-08-27T18:24:28Z</time>
  <course>10.95</course>
  <speed>0.01414213562373095</speed>
  <fix>3d</fix>
</trkpt>
<trkpt lat="40.072842" lon="-105.230575">
  <ele>1586.09</ele>
  <time>2026-08-27T18:24:28Z</time>
  <course>266.03</course>
  <speed>0.0</speed>
  <fix>3d</fix>
</trkpt>
<trkpt lat="40.0728419" lon="-105.2305749">
  <ele>1586.18</ele>
  <time>2026-08-27T18:24:28Z</time>
  <course>10.95</course>
  <speed>0.01414213562373095</speed>
  <fix>3d</fix>
</trkpt>
<trkpt lat="40.072842" lon="-105.230575">
  <ele>1586.09</ele>
  <time>2026-08-27T18:24:28Z</time>
  <course>266.03</course>
  <speed>0.0</speed>
  <fix>3d</fix>
</trkpt>
<trkpt lat="40.0728419" lon="-105.2305749">
  <ele>1586.18</ele>
  <time>2026-08-27T18:24:28Z</time>
  <course>10.95</course>
  <speed>0.01414213562373095</speed>
  <fix>3d</fix>
</trkpt>
<trkpt lat="40.072842" lon="-105.230575">
  <ele>1586.09</ele>
  <time>2026-08-27T18:24:28Z</time>
  <course>266.03</course>
  <speed>0.0</speed>
  <fix>3d</fix>
</trkpt>
<trkpt lat="40.0728419" lon="-105.2305749">
  <ele>1586.18</ele>
  <time>2026-08-27T18:24:28Z</time>
  <course>10.95</course>
  <speed>0.01414213562373095</speed>
  <fix>3d</fix>
</trkpt>
<trkpt lat="40.072842" lon="-105.230575">
  <ele>1586.09</ele>
  <time>2026-08-27T18:24:28Z</time>
  <course>266.03</course>
  <speed>0.0</speed>
  <fix>3d</fix>
</trkpt>
<trkpt lat="40.0728419" lon="-105.2305749">
  <ele>1586.19</ele>
  <time>2026-08-27T18:24:28Z</time>
  <course>10.95</course>
  <speed>0.01414213562373095</speed>
  <fix>3d</fix>
</trkpt>
<trkpt lat="40.072842" lon="-105.230575">
  <ele>1586.09</ele>
  <time>2026-08-27T18:24:28Z</time>
  <course>266.03</course>
  <speed>0.0</speed>
  <fix>3d</fix>
</trkpt>
<trkpt lat="40.0728419" lon="-105.2305749">
  <ele>1586.19</ele>
  <time>2026-08-27T18:24:28Z</time>
  <course>10.95</course>
  <speed>0.01414213562373095</speed>
  <fix>3d</fix>
</trkpt>
<trkpt lat="40.072842" lon="-105.230575">
  <ele>1586.09</ele>
  <time>2026-08-27T18:24:28Z</time>
  <course>266.03</course>
  <speed>0.0</speed>
  <fix>3d</fix>
</trkpt>
<trkpt lat="40.0728419" lon="-105.2305749">
  <ele>1586.2</ele>
  <time>2026-08-27T18:24:28Z</time>
  <course>10.95</course>
  <speed>0.01414213562373095</speed>
  <fix>3d</fix>
</trkpt>
<trkpt lat="40.072842" lon="-105.230575">
  <ele>1586.09</ele>
  <time>2026-08-27T18:24:28Z</time>
  <course>266.03</course>
  <speed>0.0</speed>
  <fix>3d</fix>
</trkpt>
<trkpt lat="40.0728419" lon="-105.2305749">
  <ele>1586.2</ele>
  <time>2026-08-27T18:24:28Z</time>
  <course>10.95</course>
  <speed>0.01414213562373095</speed>
  <fix>3d</fix>
</trkpt>
<trkpt lat="40.072842" lon="-105.230575">
  <ele>1586.09</ele>
  <time>2026-08-27T18:24:28Z</time>
  <course>266.03</course>
  <speed>0.0</speed>
  <fix>3d</fix>
</trkpt>
<trkpt lat="40.0728419" lon="-105.2305749">
  <ele>1586.2</ele>
  <time>2026-08-27T18:24:28Z</time>
  <course>10.95</course>
  <speed>0.01414213562373095</speed>
  <fix>3d</fix>
</trkpt>
<trkpt lat="40.072842" lon="-105.230575">
  <ele>1586.09</ele>
  <time>2026-08-27T18:24:28Z</time>
  <course>266.03</course>
  <speed>0.0</speed>
  <fix>3d</fix>
</trkpt>
<trkpt lat="40.0728419" lon="-105.2305749">
  <ele>1586.2</ele>
  <time>2026-08-27T18:24:28Z</time>
  <course>10.95</course>
  <speed>0.01414213562373095</speed>
  <fix>3d</fix>
</trkpt>
<trkpt lat="40.072842" lon="-105.230575">
  <ele>1586.09</ele>
  <time>2026-08-27T18:24:28Z</time>
  <course>266.03</course>
  <speed>0.0</speed>
  <fix>3d</fix>
</trkpt>
<trkpt lat="40.0728419" lon="-105.2305749">
  <ele>1586.2</ele>
  <time>2026-08-27T18:24:28Z</time>
  <course>10.95</course>
  <speed>0.01414213562373095</speed>
  <fix>3d</fix>
</trkpt>
<trkpt lat="40.072842" lon="-105.230575">
  <ele>1586.09</ele>
  <time>2026-08-27T18:24:28Z</time>
  <course>266.03</course>
  <speed>0.0</speed>
  <fix>3d</fix>
</trkpt>
<trkpt lat="40.0728419" lon="-105.2305749">
  <ele>1586.2</ele>
  <time>2026-08-27T18:24:28Z</time>
  <course>10.95</course>
  <speed>0.01414213562373095</speed>
  <fix>3d</fix>
</trkpt>
<trkpt lat="40.072842" lon="-105.230575">
  <ele>1586.09</ele>
  <time>2026-08-27T18:24:28Z</time>
  <course>266.03</course>
  <speed>0.0</speed>
  <fix>3d</fix>
</trkpt>
<trkpt lat="40.0728419" lon="-105.2305749">
  <ele>1586.21</ele>
  <time>2026-08-27T18:24:28Z</time>
  <course>10.95</course>
  <speed>0.01414213562373095</speed>
  <fix>3d</fix>
</trkpt>
<trkpt lat="40.072842" lon="-105.230575">
  <ele>1586.09</ele>
  <time>2026-08-27T18:24:28Z</time>
  <course>266.03</course>
  <speed>0.0</speed>
  <fix>3d</fix>
</trkpt>
<trkpt lat="40.0728419" lon="-105.2305749">
  <ele>1586.2</ele>
  <time>2026-08-27T18:24:28Z</time>
  <course>10.95</course>
  <speed>0.01414213562373095</speed>
  <fix>3d</fix>
</trkpt>
<trkpt lat="40.072842" lon="-105.230575">
  <ele>1586.09</ele>
  <time>2026-08-27T18:24:28Z</time>
  <course>266.03</course>
  <speed>0.0</speed>
  <fix>3d</fix>
</trkpt>
<trkpt lat="40.0728419" lon="-105.2305749">
  <ele>1586.2</ele>
  <time>2026-08-27T18:24:28Z</time>
  <course>10.95</course>
  <speed>0.01414213562373095</speed>
  <fix>3d</fix>
</trkpt>
<trkpt lat="40.072842" lon="-105.230575">
  <ele>1586.09</ele>
  <time>2026-08-27T18:24:28Z</time>
  <course>266.03</course>
  <speed>0.0</speed>
  <fix>3d</fix>
</trkpt>
<trkpt lat="40.0728419" lon="-105.2305749">
  <ele>1586.19</ele>
  <time>2026-08-27T18:24:28Z</time>
  <course>10.95</course>
  <speed>0.01414213562373095</speed>
  <fix>3d</fix>
</trkpt>
<trkpt lat="40.072842" lon="-105.230575">
  <ele>1586.09</ele>
  <time>2026-08-27T18:24:28Z</time>
  <course>266.03</course>
  <speed>0.0</speed>
  <fix>3d</fix>
</trkpt>
<trkpt lat="40.0728419" lon="-105.2305749">
  <ele>1586.19</ele>
  <time>2026-08-27T18:24:28Z</time>
  <course>10.95</course>
  <speed>0.01414213562373095</speed>
  <fix>3d</fix>
</trkpt>
<trkpt lat="40.072842" lon="-105.230575">
  <ele>1586.09</ele>
  <time>2026-08-27T18:24:28Z</time>
  <course>266.03</course>
  <speed>0.0</speed>
  <fix>3d</fix>
</trkpt>
<trkpt lat="40.0728419" lon="-105.2305749">
  <ele>1586.18</ele>
  <time>2026-08-27T18:24:28Z</time>
  <course>10.95</course>
  <speed>0.01414213562373095</speed>
  <fix>3d</fix>
</trkpt>
<trkpt lat="40.072842" lon="-105.230575">
  <ele>1586.09</ele>
  <time>2026-08-27T18:24:28Z</time>
  <course>266.03</course>
  <speed>0.0</speed>
  <fix>3d</fix>
</trkpt>
<trkpt lat="40.0728419" lon="-105.2305749">
  <ele>1586.18</ele>
  <time>2026-08-27T18:24:28Z</time>
  <course>10.95</course>
  <speed>0.01414213562373095</speed>
  <fix>3d</fix>
</trkpt>
<trkpt lat="40.072842" lon="-105.230575">
  <ele>1586.09</ele>
  <time>2026-08-27T18:24:28Z</time>
  <course>266.03</course>
  <speed>0.0</speed>
  <fix>3d</fix>
</trkpt>
<trkpt lat="40.0728419" lon="-105.2305749">
  <ele>1586.18</ele>
  <time>2026-08-27T18:24:28Z</time>
  <course>10.95</course>
  <speed>0.01414213562373095</speed>
  <fix>3d</fix>
</trkpt>
<trkpt lat="40.072842" lon="-105.230575">
  <ele>1586.09</ele>
  <time>2026-08-27T18:24:28Z</time>
  <course>266.03</course>
  <speed>0.0</speed>
  <fix>3d</fix>
</trkpt>
<trkpt lat="40.0728419" lon="-105.2305749">
  <ele>1586.18</ele>
  <time>2026-08-27T18:24:28Z</time>
  <course>10.95</course>
  <speed>0.01414213562373095</speed>
  <fix>3d</fix>
</trkpt>
<trkpt lat="40.072842" lon="-105.230575">
  <ele>1586.09</ele>
  <time>2026-08-27T18:24:28Z</time>
  <course>266.03</course>
  <speed>0.0</speed>
  <fix>3d</fix>
</trkpt>
<trkpt lat="40.0728419" lon="-105.2305749">
  <ele>1586.18</ele>
  <time>2026-08-27T18:24:28Z</time>
  <course>10.95</course>
  <speed>0.01414213562373095</speed>
  <fix>3d</fix>
</trkpt>
<trkpt lat="40.072842" lon="-105.230575">
  <ele>1586.09</ele>
  <time>2026-08-27T18:24:28Z</time>
  <course>266.03</course>
  <speed>0.0</speed>
  <fix>3d</fix>
</trkpt>
<trkpt lat="40.0728419" lon="-105.2305749">
  <ele>1586.18</ele>
  <time>2026-08-27T18:24:28Z</time>
  <course>10.95</course>
  <speed>0.01414213562373095</speed>
  <fix>3d</fix>
</trkpt>
<trkpt lat="40.072842" lon="-105.230575">
  <ele>1586.09</ele>
  <time>2026-08-27T18:24:28Z</time>
  <course>266.03</course>
  <speed>0.0</speed>
  <fix>3d</fix>
</trkpt>
<trkpt lat="40.0728419" lon="-105.2305749">
  <ele>1586.18</ele>
  <time>2026-08-27T18:24:28Z</time>
  <course>10.95</course>
  <speed>0.01414213562373095</speed>
  <fix>3d</fix>
</trkpt>
<trkpt lat="40.072842" lon="-105.230575">
  <ele>1586.09</ele>
  <time>2026-08-27T18:24:28Z</time>
  <course>266.03</course>
  <speed>0.0</speed>
  <fix>3d</fix>
</trkpt>
<trkpt lat="40.0728419" lon="-105.2305749">
  <ele>1586.18</ele>
  <time>2026-08-27T18:24:28Z</time>
  <course>10.95</course>
  <speed>0.01414213562373095</speed>
  <fix>3d</fix>
</trkpt>
<trkpt lat="40.072842" lon="-105.230575">
  <ele>1586.09</ele>
  <time>2026-08-27T18:24:28Z</time>
  <course>266.03</course>
  <speed>0.0</speed>
  <fix>3d</fix>
</trkpt>
<trkpt lat="40.0728419" lon="-105.2305749">
  <ele>1586.18</ele>
  <time>2026-08-27T18:24:28Z</time>
  <course>10.95</course>
  <speed>0.01414213562373095</speed>
  <fix>3d</fix>
</trkpt>
<trkpt lat="40.072842" lon="-105.230575">
  <ele>1586.09</ele>
  <time>2026-08-27T18:24:28Z</time>
  <course>266.03</course>
  <speed>0.0</speed>
  <fix>3d</fix>
</trkpt>
<trkpt lat="40.0728419" lon="-105.2305749">
  <ele>1586.19</ele>
  <time>2026-08-27T18:24:28Z</time>
  <course>10.95</course>
  <speed>0.01414213562373095</speed>
  <fix>3d</fix>
</trkpt>
<trkpt lat="40.072842" lon="-105.230575">
  <ele>1586.09</ele>
  <time>2026-08-27T18:24:28Z</time>
  <course>266.03</course>
  <speed>0.0</speed>
  <fix>3d</fix>
</trkpt>
<trkpt lat="40.0728419" lon="-105.2305749">
  <ele>1586.19</ele>
  <time>2026-08-27T18:24:28Z</time>
  <course>10.95</course>
  <speed>0.01414213562373095</speed>
  <fix>3d</fix>
</trkpt>
<trkpt lat="40.072842" lon="-105.230575">
  <ele>1586.09</ele>
  <time>2026-08-27T18:24:28Z</time>
  <course>266.03</course>
  <speed>0.0</speed>
  <fix>3d</fix>
</trkpt>
<trkpt lat="40.0728419" lon="-105.2305749">
  <ele>1586.2</ele>
  <time>2026-08-27T18:24:28Z</time>
  <course>10.95</course>
  <speed>0.01414213562373095</speed>
  <fix>3d</fix>
</trkpt>
<trkpt lat="40.072842" lon="-105.230575">
  <ele>1586.09</ele>
  <time>2026-08-27T18:24:28Z</time>
  <course>266.03</course>
  <speed>0.0</speed>
  <fix>3d</fix>
</trkpt>
<trkpt lat="40.0728419" lon="-105.2305749">
  <ele>1586.2</ele>
  <time>2026-08-27T18:24:28Z</time>
  <course>10.95</course>
  <speed>0.01414213562373095</speed>
  <fix>3d</fix>
</trkpt>
<trkpt lat="40.072842" lon="-105.230575">
  <ele>1586.09</ele>
  <time>2026-08-27T18:24:28Z</time>
  <course>266.03</course>
  <speed>0.0</speed>
  <fix>3d</fix>
</trkpt>
<trkpt lat="40.0728419" lon="-105.2305749">
  <ele>1586.2</ele>
  <time>2026-08-27T18:24:28Z</time>
  <course>10.95</course>
  <speed>0.01414213562373095</speed>
  <fix>3d</fix>
</trkpt>
<trkpt lat="40.072842" lon="-105.230575">
  <ele>1586.09</ele>
  <time>2026-08-27T18:24:28Z</time>
  <course>266.03</course>
  <speed>0.0</speed>
  <fix>3d</fix>
</trkpt>
<trkpt lat="40.0728419" lon="-105.2305749">
  <ele>1586.19</ele>
  <time>2026-08-27T18:24:28Z</time>
  <course>10.95</course>
  <speed>0.01414213562373095</speed>
  <fix>3d</fix>
</trkpt>
<trkpt lat="40.072842" lon="-105.230575">
  <ele>1586.09</ele>
  <time>2026-08-27T18:24:28Z</time>
  <course>266.03</course>
  <speed>0.0</speed>
  <fix>3d</fix>
</trkpt>
<trkpt lat="40.0728419" lon="-105.2305749">
  <ele>1586.19</ele>
  <time>2026-08-27T18:24:28Z</time>
  <course>10.95</course>
  <speed>0.01414213562373095</speed>
  <fix>3d</fix>
</trkpt>
<trkpt lat="40.072842" lon="-105.230575">
  <ele>1586.09</ele>
  <time>2026-08-27T18:24:28Z</time>
  <course>266.03</course>
  <speed>0.0</speed>
  <fix>3d</fix>
</trkpt>
<trkpt lat="40.0728419" lon="-105.2305749">
  <ele>1586.19</ele>
  <time>2026-08-27T18:24:28Z</time>
  <course>10.95</course>
  <speed>0.01414213562373095</speed>
  <fix>3d</fix>
</trkpt>
<trkpt lat="40.072842" lon="-105.230575">
  <ele>1586.09</ele>
  <time>2026-08-27T18:24:28Z</time>
  <course>266.03</course>
  <speed>0.0</speed>
  <fix>3d</fix>
</trkpt>
<trkpt lat="40.0728419" lon="-105.2305749">
  <ele>1586.19</ele>
  <time>2026-08-27T18:24:28Z</time>
  <course>10.95</course>
  <speed>0.01414213562373095</speed>
  <fix>3d</fix>
</trkpt>
<trkpt lat="40.072842" lon="-105.230575">
  <ele>1586.09</ele>
  <time>2026-08-27T18:24:28Z</time>
  <course>266.03</course>
  <speed>0.0</speed>
  <fix>3d</fix>
</trkpt>
<trkpt lat="40.0728419" lon="-105.2305749">
  <ele>1586.19</ele>
  <time>2026-08-27T18:24:28Z</time>
  <course>10.95</course>
  <speed>0.01414213562373095</speed>
  <fix>3d</fix>
</trkpt>
<trkpt lat="40.072842" lon="-105.230575">
  <ele>1586.09</ele>
  <time>2026-08-27T18:24:28Z</time>
  <course>266.03</course>
  <speed>0.0</speed>
  <fix>3d</fix>
</trkpt>
<trkpt lat="40.0728419" lon="-105.2305749">
  <ele>1586.19</ele>
  <time>2026-08-27T18:24:28Z</time>
  <course>10.95</course>
  <speed>0.01414213562373095</speed>
  <fix>3d</fix>
</trkpt>
<trkpt lat="40.072842" lon="-105.230575">
  <ele>1586.09</ele>
  <time>2026-08-27T18:24:28Z</time>
  <course>266.03</course>
  <speed>0.0</speed>
  <fix>3d</fix>
</trkpt>
<trkpt lat="40.0728419" lon="-105.2305749">
  <ele>1586.18</ele>
  <time>2026-08-27T18:24:28Z</time>
  <course>10.95</course>
  <speed>0.01414213562373095</speed>
  <fix>3d</fix>
</trkpt>
<trkpt lat="40.072842" lon="-105.230575">
  <ele>1586.09</ele>
  <time>2026-08-27T18:24:28Z</time>
  <course>266.03</course>
  <speed>0.0</speed>
  <fix>3d</fix>
</trkpt>
<trkpt lat="40.0728419" lon="-105.2305749">
  <ele>1586.18</ele>
  <time>2026-08-27T18:24:28Z</time>
  <course>10.95</course>
  <speed>0.01414213562373095</speed>
  <fix>3d</fix>
</trkpt>
<trkpt lat="40.072842" lon="-105.230575">
  <ele>1586.09</ele>
  <time>2026-08-27T18:24:28Z</time>
  <course>266.03</course>
  <speed>0.0</speed>
  <fix>3d</fix>
</trkpt>
<trkpt lat="40.0728419" lon="-105.2305749">
  <ele>1586.17</ele>
  <time>2026-08-27T18:24:28Z</time>
  <course>10.95</course>
  <speed>0.01414213562373095</speed>
  <fix>3d</fix>
</trkpt>
<trkpt lat="40.072842" lon="-105.230575">
  <ele>1586.09</ele>
  <time>2026-08-27T18:24:28Z</time>
  <course>266.03</course>
  <speed>0.0</speed>
  <fix>3d</fix>
</trkpt>
<trkpt lat="40.0728419" lon="-105.2305749">
  <ele>1586.17</ele>
  <time>2026-08-27T18:24:28Z</time>
  <course>10.95</course>
  <speed>0.01414213562373095</speed>
  <fix>3d</fix>
</trkpt>
<trkpt lat="40.072842" lon="-105.230575">
  <ele>1586.09</ele>
  <time>2026-08-27T18:24:28Z</time>
  <course>266.03</course>
  <speed>0.0</speed>
  <fix>3d</fix>
</trkpt>
<trkpt lat="40.0728419" lon="-105.2305749">
  <ele>1586.17</ele>
  <time>2026-08-27T18:24:28Z</time>
  <course>10.95</course>
  <speed>0.01414213562373095</speed>
  <fix>3d</fix>
</trkpt>
<trkpt lat="40.072842" lon="-105.230575">
  <ele>1586.09</ele>
  <time>2026-08-27T18:24:28Z</time>
  <course>266.03</course>
  <speed>0.0</speed>
  <fix>3d</fix>
</trkpt>
<trkpt lat="40.0728419" lon="-105.2305749">
  <ele>1586.17</ele>
  <time>2026-08-27T18:24:28Z</time>
  <course>10.95</course>
  <speed>0.01414213562373095</speed>
  <fix>3d</fix>
</trkpt>
<trkpt lat="40.072842" lon="-105.230575">
  <ele>1586.09</ele>
  <time>2026-08-27T18:24:28Z</time>
  <course>266.03</course>
  <speed>0.0</speed>
  <fix>3d</fix>
</trkpt>
<trkpt lat="40.0728419" lon="-105.2305749">
  <ele>1586.18</ele>
  <time>2026-08-27T18:24:28Z</time>
  <course>10.95</course>
  <speed>0.01414213562373095</speed>
  <fix>3d</fix>
</trkpt>
<trkpt lat="40.072842" lon="-105.230575">
  <ele>1586.09</ele>
  <time>2026-08-27T18:24:28Z</time>
  <course>266.03</course>
  <speed>0.0</speed>
  <fix>3d</fix>
</trkpt>
<trkpt lat="40.0728419" lon="-105.2305749">
  <ele>1586.18</ele>
  <time>2026-08-27T18:24:28Z</time>
  <course>10.95</course>
  <speed>0.01414213562373095</speed>
  <fix>3d</fix>
</trkpt>
<trkpt lat="40.072842" lon="-105.230575">
  <ele>1586.09</ele>
  <time>2026-08-27T18:24:28Z</time>
  <course>266.03</course>
  <speed>0.0</speed>
  <fix>3d</fix>
</trkpt>
<trkpt lat="40.0728419" lon="-105.2305749">
  <ele>1586.18</ele>
  <time>2026-08-27T18:24:28Z</time>
  <course>10.95</course>
  <speed>0.01414213562373095</speed>
  <fix>3d</fix>
</trkpt>
<trkpt lat="40.072842" lon="-105.230575">
  <ele>1586.09</ele>
  <time>2026-08-27T18:24:28Z</time>
  <course>266.03</course>
  <speed>0.0</speed>
  <fix>3d</fix>
</trkpt>
<trkpt lat="40.0728419" lon="-105.2305749">
  <ele>1586.18</ele>
  <time>2026-08-27T18:24:28Z</time>
  <course>10.95</course>
  <speed>0.01414213562373095</speed>
  <fix>3d</fix>
</trkpt>
<trkpt lat="40.072842" lon="-105.230575">
  <ele>1586.09</ele>
  <time>2026-08-27T18:24:28Z</time>
  <course>266.03</course>
  <speed>0.0</speed>
  <fix>3d</fix>
</trkpt>
<trkpt lat="40.0728419" lon="-105.2305749">
  <ele>1586.18</ele>
  <time>2026-08-27T18:24:28Z</time>
  <course>10.95</course>
  <speed>0.01414213562373095</speed>
  <fix>3d</fix>
</trkpt>
<trkpt lat="40.072842" lon="-105.230575">
  <ele>1586.09</ele>
  <time>2026-08-27T18:24:28Z</time>
  <course>266.03</course>
  <speed>0.0</speed>
  <fix>3d</fix>
</trkpt>
<trkpt lat="40.0728419" lon="-105.2305749">
  <ele>1586.18</ele>
  <time>2026-08-27T18:24:28Z</time>
  <course>10.95</course>
  <speed>0.01414213562373095</speed>
  <fix>3d</fix>
</trkpt>
<trkpt lat="40.072842" lon="-105.230575">
  <ele>1586.09</ele>
  <time>2026-08-27T18:24:28Z</time>
  <course>266.03</course>
  <speed>0.0</speed>
  <fix>3d</fix>
</trkpt>
<trkpt lat="40.0728419" lon="-105.2305749">
  <ele>1586.18</ele>
  <time>2026-08-27T18:24:28Z</time>
  <course>10.95</course>
  <speed>0.01414213562373095</speed>
  <fix>3d</fix>
</trkpt>
<trkpt lat="40.072842" lon="-105.230575">
  <ele>1586.09</ele>
  <time>2026-08-27T18:24:28Z</time>
  <course>266.03</course>
  <speed>0.0</speed>
  <fix>3d</fix>
</trkpt>
<trkpt lat="40.0728419" lon="-105.2305749">
  <ele>1586.18</ele>
  <time>2026-08-27T18:24:28Z</time>
  <course>10.95</course>
  <speed>0.01414213562373095</speed>
  <fix>3d</fix>
</trkpt>
<trkpt lat="40.072842" lon="-105.230575">
  <ele>1586.09</ele>
  <time>2026-08-27T18:24:28Z</time>
  <course>266.03</course>
  <speed>0.0</speed>
  <fix>3d</fix>
</trkpt>
<trkpt lat="40.0728419" lon="-105.2305749">
  <ele>1586.18</ele>
  <time>2026-08-27T18:24:28Z</time>
  <course>10.95</course>
  <speed>0.01414213562373095</speed>
  <fix>3d</fix>
</trkpt>
<trkpt lat="40.072842" lon="-105.230575">
  <ele>1586.09</ele>
  <time>2026-08-27T18:24:28Z</time>
  <course>266.03</course>
  <speed>0.0</speed>
  <fix>3d</fix>
</trkpt>
<trkpt lat="40.0728419" lon="-105.2305749">
  <ele>1586.18</ele>
  <time>2026-08-27T18:24:28Z</time>
  <course>10.95</course>
  <speed>0.01414213562373095</speed>
  <fix>3d</fix>
</trkpt>
<trkpt lat="40.072842" lon="-105.230575">
  <ele>1586.09</ele>
  <time>2026-08-27T18:24:28Z</time>
  <course>266.03</course>
  <speed>0.0</speed>
  <fix>3d</fix>
</trkpt>
<trkpt lat="40.0728419" lon="-105.2305749">
  <ele>1586.18</ele>
  <time>2026-08-27T18:24:28Z</time>
  <course>10.95</course>
  <speed>0.01414213562373095</speed>
  <fix>3d</fix>
</trkpt>
<trkpt lat="40.072842" lon="-105.230575">
  <ele>1586.09</ele>
  <time>2026-08-27T18:24:28Z</time>
  <course>266.03</course>
  <speed>0.0</speed>
  <fix>3d</fix>
</trkpt>
<trkpt lat="40.0728419" lon="-105.2305749">
  <ele>1586.18</ele>
  <time>2026-08-27T18:24:28Z</time>
  <course>10.95</course>
  <speed>0.01414213562373095</speed>
  <fix>3d</fix>
</trkpt>
<trkpt lat="40.072842" lon="-105.230575">
  <ele>1586.09</ele>
  <time>2026-08-27T18:24:28Z</time>
  <course>266.03</course>
  <speed>0.0</speed>
  <fix>3d</fix>
</trkpt>
<trkpt lat="40.0728419" lon="-105.2305749">
  <ele>1586.18</ele>
  <time>2026-08-27T18:24:28Z</time>
  <course>10.95</course>
  <speed>0.01414213562373095</speed>
  <fix>3d</fix>
</trkpt>
<trkpt lat="40.072842" lon="-105.230575">
  <ele>1586.09</ele>
  <time>2026-08-27T18:24:28Z</time>
  <course>266.03</course>
  <speed>0.0</speed>
  <fix>3d</fix>
</trkpt>
<trkpt lat="40.0728419" lon="-105.2305749">
  <ele>1586.17</ele>
  <time>2026-08-27T18:24:28Z</time>
  <course>10.95</course>
  <speed>0.01414213562373095</speed>
  <fix>3d</fix>
</trkpt>
<trkpt lat="40.072842" lon="-105.230575">
  <ele>1586.09</ele>
  <time>2026-08-27T18:24:28Z</time>
  <course>266.03</course>
  <speed>0.0</speed>
  <fix>3d</fix>
</trkpt>
<trkpt lat="40.0728419" lon="-105.2305749">
  <ele>1586.17</ele>
  <time>2026-08-27T18:24:28Z</time>
  <course>10.95</course>
  <speed>0.01414213562373095</speed>
  <fix>3d</fix>
</trkpt>
<trkpt lat="40.072842" lon="-105.230575">
  <ele>1586.09</ele>
  <time>2026-08-27T18:24:28Z</time>
  <course>266.03</course>
  <speed>0.0</speed>
  <fix>3d</fix>
</trkpt>
<trkpt lat="40.0728419" lon="-105.2305749">
  <ele>1586.17</ele>
  <time>2026-08-27T18:24:28Z</time>
  <course>10.95</course>
  <speed>0.01414213562373095</speed>
  <fix>3d</fix>
</trkpt>
<trkpt lat="40.072842" lon="-105.230575">
  <ele>1586.09</ele>
  <time>2026-08-27T18:24:28Z</time>
  <course>266.03</course>
  <speed>0.0</speed>
  <fix>3d</fix>
</trkpt>
<trkpt lat="40.0728419" lon="-105.2305749">
  <ele>1586.18</ele>
  <time>2026-08-27T18:24:28Z</time>
  <course>10.95</course>
  <speed>0.01414213562373095</speed>
  <fix>3d</fix>
</trkpt>
<trkpt lat="40.072842" lon="-105.230575">
  <ele>1586.09</ele>
  <time>2026-08-27T18:24:28Z</time>
  <course>266.03</course>
  <speed>0.0</speed>
  <fix>3d</fix>
</trkpt>
<trkpt lat="40.0728419" lon="-105.2305749">
  <ele>1586.18</ele>
  <time>2026-08-27T18:24:28Z</time>
  <course>10.95</course>
  <speed>0.01414213562373095</speed>
  <fix>3d</fix>
</trkpt>
<trkpt lat="40.072842" lon="-105.230575">
  <ele>1586.09</ele>
  <time>2026-08-27T18:24:28Z</time>
  <course>266.03</course>
  <speed>0.0</speed>
  <fix>3d</fix>
</trkpt>
<trkpt lat="40.0728419" lon="-105.2305749">
  <ele>1586.18</ele>
  <time>2026-08-27T18:24:28Z</time>
  <course>10.95</course>
  <speed>0.01414213562373095</speed>
  <fix>3d</fix>
</trkpt>
<trkpt lat="40.072842" lon="-105.230575">
  <ele>1586.09</ele>
  <time>2026-08-27T18:24:28Z</time>
  <course>266.03</course>
  <speed>0.0</speed>
  <fix>3d</fix>
</trkpt>
<trkpt lat="40.0728419" lon="-105.2305749">
  <ele>1586.18</ele>
  <time>2026-08-27T18:24:28Z</time>
  <course>10.95</course>
  <speed>0.01414213562373095</speed>
  <fix>3d</fix>
</trkpt>
<trkpt lat="40.072842" lon="-105.230575">
  <ele>1586.09</ele>
  <time>2026-08-27T18:24:28Z</time>
  <course>266.03</course>
  <speed>0.0</speed>
  <fix>3d</fix>
</trkpt>
<trkpt lat="40.0728419" lon="-105.2305749">
  <ele>1586.18</ele>
  <time>2026-08-27T18:24:28Z</time>
  <course>10.95</course>
  <speed>0.01414213562373095</speed>
  <fix>3d</fix>
</trkpt>
<trkpt lat="40.072842" lon="-105.230575">
  <ele>1586.09</ele>
  <time>2026-08-27T18:24:28Z</time>
  <course>266.03</course>
  <speed>0.0</speed>
  <fix>3d</fix>
</trkpt>
<trkpt lat="40.0728419" lon="-105.2305749">
  <ele>1586.17</ele>
  <time>2026-08-27T18:24:28Z</time>
  <course>10.95</course>
  <speed>0.01414213562373095</speed>
  <fix>3d</fix>
</trkpt>
<trkpt lat="40.072842" lon="-105.230575">
  <ele>1586.09</ele>
  <time>2026-08-27T18:24:28Z</time>
  <course>266.03</course>
  <speed>0.0</speed>
  <fix>3d</fix>
</trkpt>
<trkpt lat="40.0728419" lon="-105.2305749">
  <ele>1586.17</ele>
  <time>2026-08-27T18:24:28Z</time>
  <course>10.95</course>
  <speed>0.01414213562373095</speed>
  <fix>3d</fix>
</trkpt>
<trkpt lat="40.072842" lon="-105.230575">
  <ele>1586.09</ele>
  <time>2026-08-27T18:24:28Z</time>
  <course>266.03</course>
  <speed>0.0</speed>
  <fix>3d</fix>
</trkpt>
<trkpt lat="40.0728419" lon="-105.2305749">
  <ele>1586.18</ele>
  <time>2026-08-27T18:24:28Z</time>
  <course>10.95</course>
  <speed>0.01414213562373095</speed>
  <fix>3d</fix>
</trkpt>
<trkpt lat="40.072842" lon="-105.230575">
  <ele>1586.09</ele>
  <time>2026-08-27T18:24:28Z</time>
  <course>266.03</course>
  <speed>0.0</speed>
  <fix>3d</fix>
</trkpt>
<trkpt lat="40.0728419" lon="-105.2305749">
  <ele>1586.18</ele>
  <time>2026-08-27T18:24:28Z</time>
  <course>10.95</course>
  <speed>0.01414213562373095</speed>
  <fix>3d</fix>
</trkpt>
<trkpt lat="40.072842" lon="-105.230575">
  <ele>1586.09</ele>
  <time>2026-08-27T18:24:28Z</time>
  <course>266.03</course>
  <speed>0.0</speed>
  <fix>3d</fix>
</trkpt>
<trkpt lat="40.0728419" lon="-105.2305749">
  <ele>1586.18</ele>
  <time>2026-08-27T18:24:28Z</time>
  <course>10.95</course>
  <speed>0.01414213562373095</speed>
  <fix>3d</fix>
</trkpt>
<trkpt lat="40.072842" lon="-105.230575">
  <ele>1586.09</ele>
  <time>2026-08-27T18:24:28Z</time>
  <course>266.03</course>
  <speed>0.0</speed>
  <fix>3d</fix>
</trkpt>
<trkpt lat="40.0728419" lon="-105.2305749">
  <ele>1586.18</ele>
  <time>2026-08-27T18:24:28Z</time>
  <course>10.95</course>
  <speed>0.01414213562373095</speed>
  <fix>3d</fix>
</trkpt>
<trkpt lat="40.072842" lon="-105.230575">
  <ele>1586.09</ele>
  <time>2026-08-27T18:24:28Z</time>
  <course>266.03</course>
  <speed>0.0</speed>
  <fix>3d</fix>
</trkpt>
<trkpt lat="40.0728419" lon="-105.2305749">
  <ele>1586.18</ele>
  <time>2026-08-27T18:24:28Z</time>
  <course>10.95</course>
  <speed>0.01414213562373095</speed>
  <fix>3d</fix>
</trkpt>
<trkpt lat="40.072842" lon="-105.230575">
  <ele>1586.09</ele>
  <time>2026-08-27T18:24:28Z</time>
  <course>266.03</course>
  <speed>0.0</speed>
  <fix>3d</fix>
</trkpt>
<trkpt lat="40.0728419" lon="-105.2305749">
  <ele>1586.18</ele>
  <time>2026-08-27T18:24:28Z</time>
  <course>10.95</course>
  <speed>0.01414213562373095</speed>
  <fix>3d</fix>
</trkpt>
<trkpt lat="40.072842" lon="-105.230575">
  <ele>1586.09</ele>
  <time>2026-08-27T18:24:28Z</time>
  <course>266.03</course>
  <speed>0.0</speed>
  <fix>3d</fix>
</trkpt>
<trkpt lat="40.0728419" lon="-105.2305749">
  <ele>1586.17</ele>
  <time>2026-08-27T18:24:28Z</time>
  <course>10.95</course>
  <speed>0.01414213562373095</speed>
  <fix>3d</fix>
</trkpt>
<trkpt lat="40.072842" lon="-105.230575">
  <ele>1586.09</ele>
  <time>2026-08-27T18:24:28Z</time>
  <course>266.03</course>
  <speed>0.0</speed>
  <fix>3d</fix>
</trkpt>
<trkpt lat="40.0728419" lon="-105.2305749">
  <ele>1586.17</ele>
  <time>2026-08-27T18:24:28Z</time>
  <course>10.95</course>
  <speed>0.01414213562373095</speed>
  <fix>3d</fix>
</trkpt>
<trkpt lat="40.072842" lon="-105.230575">
  <ele>1586.09</ele>
  <time>2026-08-27T18:24:28Z</time>
  <course>266.03</course>
  <speed>0.0</speed>
  <fix>3d</fix>
</trkpt>
<trkpt lat="40.0728419" lon="-105.2305749">
  <ele>1586.17</ele>
  <time>2026-08-27T18:24:28Z</time>
  <course>10.95</course>
  <speed>0.01414213562373095</speed>
  <fix>3d</fix>
</trkpt>
<trkpt lat="40.072842" lon="-105.230575">
  <ele>1586.09</ele>
  <time>2026-08-27T18:24:28Z</time>
  <course>266.03</course>
  <speed>0.0</speed>
  <fix>3d</fix>
</trkpt>
<trkpt lat="40.0728419" lon="-105.2305749">
  <ele>1586.17</ele>
  <time>2026-08-27T18:24:28Z</time>
  <course>10.95</course>
  <speed>0.01414213562373095</speed>
  <fix>3d</fix>
</trkpt>
<trkpt lat="40.072842" lon="-105.230575">
  <ele>1586.09</ele>
  <time>2026-08-27T18:24:29Z</time>
  <course>266.03</course>
  <speed>0.0</speed>
  <fix>3d</fix>
</trkpt>
<trkpt lat="40.0728419" lon="-105.2305749">
  <ele>1586.17</ele>
  <time>2026-08-27T18:24:29Z</time>
  <course>10.95</course>
  <speed>0.01414213562373095</speed>
  <fix>3d</fix>
</trkpt>
<trkpt lat="40.072842" lon="-105.230575">
  <ele>1586.09</ele>
  <time>2026-08-27T18:24:29Z</time>
  <course>266.03</course>
  <speed>0.0</speed>
  <fix>3d</fix>
</trkpt>
<trkpt lat="40.0728419" lon="-105.2305749">
  <ele>1586.17</ele>
  <time>2026-08-27T18:24:29Z</time>
  <course>10.95</course>
  <speed>0.01414213562373095</speed>
  <fix>3d</fix>
</trkpt>
<trkpt lat="40.072842" lon="-105.230575">
  <ele>1586.09</ele>
  <time>2026-08-27T18:24:29Z</time>
  <course>266.03</course>
  <speed>0.0</speed>
  <fix>3d</fix>
</trkpt>
<trkpt lat="40.0728419" lon="-105.2305749">
  <ele>1586.17</ele>
  <time>2026-08-27T18:24:29Z</time>
  <course>10.95</course>
  <speed>0.01414213562373095</speed>
  <fix>3d</fix>
</trkpt>
<trkpt lat="40.072842" lon="-105.230575">
  <ele>1586.09</ele>
  <time>2026-08-27T18:24:29Z</time>
  <course>266.03</course>
  <speed>0.0</speed>
  <fix>3d</fix>
</trkpt>
<trkpt lat="40.0728419" lon="-105.2305749">
  <ele>1586.17</ele>
  <time>2026-08-27T18:24:29Z</time>
  <course>10.95</course>
  <speed>0.01414213562373095</speed>
  <fix>3d</fix>
</trkpt>
<trkpt lat="40.072842" lon="-105.230575">
  <ele>1586.09</ele>
  <time>2026-08-27T18:24:29Z</time>
  <course>266.03</course>
  <speed>0.0</speed>
  <fix>3d</fix>
</trkpt>
<trkpt lat="40.0728419" lon="-105.2305749">
  <ele>1586.17</ele>
  <time>2026-08-27T18:24:29Z</time>
  <course>10.95</course>
  <speed>0.01414213562373095</speed>
  <fix>3d</fix>
</trkpt>
<trkpt lat="40.072842" lon="-105.230575">
  <ele>1586.09</ele>
  <time>2026-08-27T18:24:29Z</time>
  <course>266.03</course>
  <speed>0.0</speed>
  <fix>3d</fix>
</trkpt>
<trkpt lat="40.0728419" lon="-105.2305749">
  <ele>1586.16</ele>
  <time>2026-08-27T18:24:29Z</time>
  <course>10.96</course>
  <speed>0.01414213562373095</speed>
  <fix>3d</fix>
</trkpt>
<trkpt lat="40.072842" lon="-105.230575">
  <ele>1586.09</ele>
  <time>2026-08-27T18:24:29Z</time>
  <course>266.03</course>
  <speed>0.0</speed>
  <fix>3d</fix>
</trkpt>
<trkpt lat="40.0728419" lon="-105.2305749">
  <ele>1586.16</ele>
  <time>2026-08-27T18:24:29Z</time>
  <course>10.96</course>
  <speed>0.01414213562373095</speed>
  <fix>3d</fix>
</trkpt>
<trkpt lat="40.072842" lon="-105.230575">
  <ele>1586.09</ele>
  <time>2026-08-27T18:24:29Z</time>
  <course>266.03</course>
  <speed>0.0</speed>
  <fix>3d</fix>
</trkpt>
<trkpt lat="40.0728419" lon="-105.2305749">
  <ele>1586.16</ele>
  <time>2026-08-27T18:24:29Z</time>
  <course>10.96</course>
  <speed>0.01414213562373095</speed>
  <fix>3d</fix>
</trkpt>
<trkpt lat="40.072842" lon="-105.230575">
  <ele>1586.09</ele>
  <time>2026-08-27T18:24:29Z</time>
  <course>266.03</course>
  <speed>0.0</speed>
  <fix>3d</fix>
</trkpt>
<trkpt lat="40.0728419" lon="-105.2305749">
  <ele>1586.16</ele>
  <time>2026-08-27T18:24:29Z</time>
  <course>10.96</course>
  <speed>0.01414213562373095</speed>
  <fix>3d</fix>
</trkpt>
<trkpt lat="40.072842" lon="-105.230575">
  <ele>1586.09</ele>
  <time>2026-08-27T18:24:29Z</time>
  <course>266.03</course>
  <speed>0.0</speed>
  <fix>3d</fix>
</trkpt>
<trkpt lat="40.0728419" lon="-105.2305749">
  <ele>1586.16</ele>
  <time>2026-08-27T18:24:29Z</time>
  <course>10.96</course>
  <speed>0.01414213562373095</speed>
  <fix>3d</fix>
</trkpt>
<trkpt lat="40.072842" lon="-105.230575">
  <ele>1586.09</ele>
  <time>2026-08-27T18:24:29Z</time>
  <course>266.03</course>
  <speed>0.0</speed>
  <fix>3d</fix>
</trkpt>
<trkpt lat="40.0728419" lon="-105.2305749">
  <ele>1586.16</ele>
  <time>2026-08-27T18:24:29Z</time>
  <course>10.96</course>
  <speed>0.01414213562373095</speed>
  <fix>3d</fix>
</trkpt>
<trkpt lat="40.072842" lon="-105.230575">
  <ele>1586.09</ele>
  <time>2026-08-27T18:24:29Z</time>
  <course>266.03</course>
  <speed>0.0</speed>
  <fix>3d</fix>
</trkpt>
<trkpt lat="40.0728419" lon="-105.2305749">
  <ele>1586.16</ele>
  <time>2026-08-27T18:24:29Z</time>
  <course>10.96</course>
  <speed>0.01414213562373095</speed>
  <fix>3d</fix>
</trkpt>
<trkpt lat="40.072842" lon="-105.230575">
  <ele>1586.09</ele>
  <time>2026-08-27T18:24:29Z</time>
  <course>266.03</course>
  <speed>0.0</speed>
  <fix>3d</fix>
</trkpt>
<trkpt lat="40.0728419" lon="-105.2305749">
  <ele>1586.16</ele>
  <time>2026-08-27T18:24:29Z</time>
  <course>10.96</course>
  <speed>0.01414213562373095</speed>
  <fix>3d</fix>
</trkpt>
<trkpt lat="40.072842" lon="-105.230575">
  <ele>1586.09</ele>
  <time>2026-08-27T18:24:29Z</time>
  <course>266.03</course>
  <speed>0.0</speed>
  <fix>3d</fix>
</trkpt>
<trkpt lat="40.0728419" lon="-105.2305749">
  <ele>1586.15</ele>
  <time>2026-08-27T18:24:29Z</time>
  <course>10.96</course>
  <speed>0.01414213562373095</speed>
  <fix>3d</fix>
</trkpt>
<trkpt lat="40.072842" lon="-105.230575">
  <ele>1586.09</ele>
  <time>2026-08-27T18:24:29Z</time>
  <course>266.03</course>
  <speed>0.0</speed>
  <fix>3d</fix>
</trkpt>
<trkpt lat="40.0728419" lon="-105.2305749">
  <ele>1586.15</ele>
  <time>2026-08-27T18:24:29Z</time>
  <course>10.96</course>
  <speed>0.01414213562373095</speed>
  <fix>3d</fix>
</trkpt>
<trkpt lat="40.072842" lon="-105.230575">
  <ele>1586.09</ele>
  <time>2026-08-27T18:24:29Z</time>
  <course>266.03</course>
  <speed>0.0</speed>
  <fix>3d</fix>
</trkpt>
<trkpt lat="40.0728419" lon="-105.2305749">
  <ele>1586.15</ele>
  <time>2026-08-27T18:24:29Z</time>
  <course>10.96</course>
  <speed>0.01414213562373095</speed>
  <fix>3d</fix>
</trkpt>
<trkpt lat="40.072842" lon="-105.230575">
  <ele>1586.09</ele>
  <time>2026-08-27T18:24:29Z</time>
  <course>266.03</course>
  <speed>0.0</speed>
  <fix>3d</fix>
</trkpt>
<trkpt lat="40.0728419" lon="-105.2305749">
  <ele>1586.14</ele>
  <time>2026-08-27T18:24:29Z</time>
  <course>10.96</course>
  <speed>0.01414213562373095</speed>
  <fix>3d</fix>
</trkpt>
<trkpt lat="40.072842" lon="-105.230575">
  <ele>1586.09</ele>
  <time>2026-08-27T18:24:29Z</time>
  <course>266.03</course>
  <speed>0.0</speed>
  <fix>3d</fix>
</trkpt>
<trkpt lat="40.0728419" lon="-105.2305749">
  <ele>1586.14</ele>
  <time>2026-08-27T18:24:29Z</time>
  <course>10.96</course>
  <speed>0.01414213562373095</speed>
  <fix>3d</fix>
</trkpt>
<trkpt lat="40.072842" lon="-105.230575">
  <ele>1586.09</ele>
  <time>2026-08-27T18:24:29Z</time>
  <course>266.03</course>
  <speed>0.0</speed>
  <fix>3d</fix>
</trkpt>
<trkpt lat="40.0728419" lon="-105.2305749">
  <ele>1586.14</ele>
  <time>2026-08-27T18:24:29Z</time>
  <course>10.96</course>
  <speed>0.01414213562373095</speed>
  <fix>3d</fix>
</trkpt>
<trkpt lat="40.072842" lon="-105.230575">
  <ele>1586.09</ele>
  <time>2026-08-27T18:24:29Z</time>
  <course>266.03</course>
  <speed>0.0</speed>
  <fix>3d</fix>
</trkpt>
<trkpt lat="40.0728419" lon="-105.2305749">
  <ele>1586.15</ele>
  <time>2026-08-27T18:24:29Z</time>
  <course>10.96</course>
  <speed>0.01414213562373095</speed>
  <fix>3d</fix>
</trkpt>
<trkpt lat="40.072842" lon="-105.230575">
  <ele>1586.09</ele>
  <time>2026-08-27T18:24:29Z</time>
  <course>266.03</course>
  <speed>0.0</speed>
  <fix>3d</fix>
</trkpt>
<trkpt lat="40.0728419" lon="-105.2305749">
  <ele>1586.15</ele>
  <time>2026-08-27T18:24:29Z</time>
  <course>10.96</course>
  <speed>0.01414213562373095</speed>
  <fix>3d</fix>
</trkpt>
<trkpt lat="40.072842" lon="-105.230575">
  <ele>1586.09</ele>
  <time>2026-08-27T18:24:29Z</time>
  <course>266.03</course>
  <speed>0.0</speed>
  <fix>3d</fix>
</trkpt>
<trkpt lat="40.0728419" lon="-105.2305749">
  <ele>1586.15</ele>
  <time>2026-08-27T18:24:29Z</time>
  <course>10.96</course>
  <speed>0.01414213562373095</speed>
  <fix>3d</fix>
</trkpt>
<trkpt lat="40.072842" lon="-105.230575">
  <ele>1586.09</ele>
  <time>2026-08-27T18:24:29Z</time>
  <course>266.03</course>
  <speed>0.0</speed>
  <fix>3d</fix>
</trkpt>
<trkpt lat="40.0728419" lon="-105.2305749">
  <ele>1586.16</ele>
  <time>2026-08-27T18:24:29Z</time>
  <course>10.96</course>
  <speed>0.01414213562373095</speed>
  <fix>3d</fix>
</trkpt>
<trkpt lat="40.072842" lon="-105.230575">
  <ele>1586.09</ele>
  <time>2026-08-27T18:24:29Z</time>
  <course>266.03</course>
  <speed>0.0</speed>
  <fix>3d</fix>
</trkpt>
<trkpt lat="40.0728419" lon="-105.2305749">
  <ele>1586.17</ele>
  <time>2026-08-27T18:24:29Z</time>
  <course>10.96</course>
  <speed>0.01414213562373095</speed>
  <fix>3d</fix>
</trkpt>
<trkpt lat="40.072842" lon="-105.230575">
  <ele>1586.09</ele>
  <time>2026-08-27T18:24:29Z</time>
  <course>266.03</course>
  <speed>0.0</speed>
  <fix>3d</fix>
</trkpt>
<trkpt lat="40.0728419" lon="-105.2305749">
  <ele>1586.17</ele>
  <time>2026-08-27T18:24:29Z</time>
  <course>10.96</course>
  <speed>0.01414213562373095</speed>
  <fix>3d</fix>
</trkpt>
<trkpt lat="40.072842" lon="-105.230575">
  <ele>1586.09</ele>
  <time>2026-08-27T18:24:29Z</time>
  <course>266.03</course>
  <speed>0.0</speed>
  <fix>3d</fix>
</trkpt>
<trkpt lat="40.0728419" lon="-105.2305749">
  <ele>1586.17</ele>
  <time>2026-08-27T18:24:29Z</time>
  <course>10.96</course>
  <speed>0.01414213562373095</speed>
  <fix>3d</fix>
</trkpt>
<trkpt lat="40.072842" lon="-105.230575">
  <ele>1586.09</ele>
  <time>2026-08-27T18:24:29Z</time>
  <course>266.03</course>
  <speed>0.0</speed>
  <fix>3d</fix>
</trkpt>
<trkpt lat="40.0728419" lon="-105.2305749">
  <ele>1586.17</ele>
  <time>2026-08-27T18:24:29Z</time>
  <course>10.96</course>
  <speed>0.01414213562373095</speed>
  <fix>3d</fix>
</trkpt>
<trkpt lat="40.072842" lon="-105.230575">
  <ele>1586.09</ele>
  <time>2026-08-27T18:24:29Z</time>
  <course>266.03</course>
  <speed>0.0</speed>
  <fix>3d</fix>
</trkpt>
<trkpt lat="40.0728419" lon="-105.2305749">
  <ele>1586.17</ele>
  <time>2026-08-27T18:24:29Z</time>
  <course>10.96</course>
  <speed>0.01414213562373095</speed>
  <fix>3d</fix>
</trkpt>
<trkpt lat="40.072842" lon="-105.230575">
  <ele>1586.09</ele>
  <time>2026-08-27T18:24:29Z</time>
  <course>266.03</course>
  <speed>0.0</speed>
  <fix>3d</fix>
</trkpt>
<trkpt lat="40.0728419" lon="-105.2305749">
  <ele>1586.17</ele>
  <time>2026-08-27T18:24:29Z</time>
  <course>10.96</course>
  <speed>0.01414213562373095</speed>
  <fix>3d</fix>
</trkpt>
<trkpt lat="40.072842" lon="-105.230575">
  <ele>1586.09</ele>
  <time>2026-08-27T18:24:29Z</time>
  <course>266.03</course>
  <speed>0.0</speed>
  <fix>3d</fix>
</trkpt>
<trkpt lat="40.0728419" lon="-105.2305749">
  <ele>1586.17</ele>
  <time>2026-08-27T18:24:29Z</time>
  <course>10.96</course>
  <speed>0.01414213562373095</speed>
  <fix>3d</fix>
</trkpt>
<trkpt lat="40.072842" lon="-105.230575">
  <ele>1586.09</ele>
  <time>2026-08-27T18:24:29Z</time>
  <course>266.03</course>
  <speed>0.0</speed>
  <fix>3d</fix>
</trkpt>
<trkpt lat="40.0728419" lon="-105.2305749">
  <ele>1586.18</ele>
  <time>2026-08-27T18:24:29Z</time>
  <course>10.96</course>
  <speed>0.01414213562373095</speed>
  <fix>3d</fix>
</trkpt>
<trkpt lat="40.072842" lon="-105.230575">
  <ele>1586.09</ele>
  <time>2026-08-27T18:24:29Z</time>
  <course>266.03</course>
  <speed>0.0</speed>
  <fix>3d</fix>
</trkpt>
<trkpt lat="40.0728419" lon="-105.2305749">
  <ele>1586.18</ele>
  <time>2026-08-27T18:24:29Z</time>
  <course>10.96</course>
  <speed>0.01414213562373095</speed>
  <fix>3d</fix>
</trkpt>
<trkpt lat="40.072842" lon="-105.230575">
  <ele>1586.09</ele>
  <time>2026-08-27T18:24:29Z</time>
  <course>266.03</course>
  <speed>0.0</speed>
  <fix>3d</fix>
</trkpt>
<trkpt lat="40.0728419" lon="-105.2305749">
  <ele>1586.18</ele>
  <time>2026-08-27T18:24:29Z</time>
  <course>10.97</course>
  <speed>0.01414213562373095</speed>
  <fix>3d</fix>
</trkpt>
<trkpt lat="40.072842" lon="-105.230575">
  <ele>1586.09</ele>
  <time>2026-08-27T18:24:29Z</time>
  <course>266.03</course>
  <speed>0.0</speed>
  <fix>3d</fix>
</trkpt>
<trkpt lat="40.0728419" lon="-105.2305749">
  <ele>1586.19</ele>
  <time>2026-08-27T18:24:29Z</time>
  <course>10.97</course>
  <speed>0.01414213562373095</speed>
  <fix>3d</fix>
</trkpt>
<trkpt lat="40.072842" lon="-105.230575">
  <ele>1586.09</ele>
  <time>2026-08-27T18:24:29Z</time>
  <course>266.03</course>
  <speed>0.0</speed>
  <fix>3d</fix>
</trkpt>
<trkpt lat="40.0728419" lon="-105.2305749">
  <ele>1586.19</ele>
  <time>2026-08-27T18:24:29Z</time>
  <course>10.97</course>
  <speed>0.01414213562373095</speed>
  <fix>3d</fix>
</trkpt>
<trkpt lat="40.072842" lon="-105.230575">
  <ele>1586.09</ele>
  <time>2026-08-27T18:24:29Z</time>
  <course>266.03</course>
  <speed>0.0</speed>
  <fix>3d</fix>
</trkpt>
<trkpt lat="40.0728419" lon="-105.2305749">
  <ele>1586.19</ele>
  <time>2026-08-27T18:24:29Z</time>
  <course>10.97</course>
  <speed>0.01414213562373095</speed>
  <fix>3d</fix>
</trkpt>
<trkpt lat="40.072842" lon="-105.230575">
  <ele>1586.09</ele>
  <time>2026-08-27T18:24:29Z</time>
  <course>266.03</course>
  <speed>0.0</speed>
  <fix>3d</fix>
</trkpt>
<trkpt lat="40.0728419" lon="-105.2305749">
  <ele>1586.19</ele>
  <time>2026-08-27T18:24:29Z</time>
  <course>10.97</course>
  <speed>0.01414213562373095</speed>
  <fix>3d</fix>
</trkpt>
<trkpt lat="40.072842" lon="-105.230575">
  <ele>1586.09</ele>
  <time>2026-08-27T18:24:29Z</time>
  <course>266.03</course>
  <speed>0.0</speed>
  <fix>3d</fix>
</trkpt>
<trkpt lat="40.0728419" lon="-105.2305749">
  <ele>1586.18</ele>
  <time>2026-08-27T18:24:29Z</time>
  <course>10.97</course>
  <speed>0.01414213562373095</speed>
  <fix>3d</fix>
</trkpt>
<trkpt lat="40.072842" lon="-105.230575">
  <ele>1586.09</ele>
  <time>2026-08-27T18:24:29Z</time>
  <course>266.03</course>
  <speed>0.0</speed>
  <fix>3d</fix>
</trkpt>
<trkpt lat="40.0728419" lon="-105.2305749">
  <ele>1586.18</ele>
  <time>2026-08-27T18:24:29Z</time>
  <course>10.97</course>
  <speed>0.01414213562373095</speed>
  <fix>3d</fix>
</trkpt>
<trkpt lat="40.072842" lon="-105.230575">
  <ele>1586.09</ele>
  <time>2026-08-27T18:24:29Z</time>
  <course>266.03</course>
  <speed>0.0</speed>
  <fix>3d</fix>
</trkpt>
<trkpt lat="40.0728419" lon="-105.2305749">
  <ele>1586.19</ele>
  <time>2026-08-27T18:24:29Z</time>
  <course>10.97</course>
  <speed>0.01414213562373095</speed>
  <fix>3d</fix>
</trkpt>
<trkpt lat="40.072842" lon="-105.230575">
  <ele>1586.09</ele>
  <time>2026-08-27T18:24:29Z</time>
  <course>266.03</course>
  <speed>0.0</speed>
  <fix>3d</fix>
</trkpt>
<trkpt lat="40.0728419" lon="-105.2305749">
  <ele>1586.19</ele>
  <time>2026-08-27T18:24:29Z</time>
  <course>10.97</course>
  <speed>0.01414213562373095</speed>
  <fix>3d</fix>
</trkpt>
<trkpt lat="40.072842" lon="-105.230575">
  <ele>1586.09</ele>
  <time>2026-08-27T18:24:29Z</time>
  <course>266.03</course>
  <speed>0.0</speed>
  <fix>3d</fix>
</trkpt>
<trkpt lat="40.0728419" lon="-105.2305749">
  <ele>1586.19</ele>
  <time>2026-08-27T18:24:29Z</time>
  <course>10.97</course>
  <speed>0.01414213562373095</speed>
  <fix>3d</fix>
</trkpt>
<trkpt lat="40.072842" lon="-105.230575">
  <ele>1586.09</ele>
  <time>2026-08-27T18:24:29Z</time>
  <course>266.03</course>
  <speed>0.0</speed>
  <fix>3d</fix>
</trkpt>
<trkpt lat="40.0728419" lon="-105.2305749">
  <ele>1586.2</ele>
  <time>2026-08-27T18:24:29Z</time>
  <course>10.97</course>
  <speed>0.01414213562373095</speed>
  <fix>3d</fix>
</trkpt>
<trkpt lat="40.072842" lon="-105.230575">
  <ele>1586.09</ele>
  <time>2026-08-27T18:24:29Z</time>
  <course>266.03</course>
  <speed>0.0</speed>
  <fix>3d</fix>
</trkpt>
<trkpt lat="40.0728419" lon="-105.2305749">
  <ele>1586.2</ele>
  <time>2026-08-27T18:24:29Z</time>
  <course>10.97</course>
  <speed>0.01414213562373095</speed>
  <fix>3d</fix>
</trkpt>
<trkpt lat="40.072842" lon="-105.230575">
  <ele>1586.09</ele>
  <time>2026-08-27T18:24:29Z</time>
  <course>266.03</course>
  <speed>0.0</speed>
  <fix>3d</fix>
</trkpt>
<trkpt lat="40.0728419" lon="-105.2305749">
  <ele>1586.21</ele>
  <time>2026-08-27T18:24:29Z</time>
  <course>10.97</course>
  <speed>0.01414213562373095</speed>
  <fix>3d</fix>
</trkpt>
<trkpt lat="40.072842" lon="-105.230575">
  <ele>1586.09</ele>
  <time>2026-08-27T18:24:29Z</time>
  <course>266.03</course>
  <speed>0.0</speed>
  <fix>3d</fix>
</trkpt>
<trkpt lat="40.0728419" lon="-105.2305749">
  <ele>1586.22</ele>
  <time>2026-08-27T18:24:29Z</time>
  <course>10.97</course>
  <speed>0.01414213562373095</speed>
  <fix>3d</fix>
</trkpt>
<trkpt lat="40.072842" lon="-105.230575">
  <ele>1586.09</ele>
  <time>2026-08-27T18:24:29Z</time>
  <course>266.03</course>
  <speed>0.0</speed>
  <fix>3d</fix>
</trkpt>
<trkpt lat="40.0728419" lon="-105.2305749">
  <ele>1586.22</ele>
  <time>2026-08-27T18:24:29Z</time>
  <course>10.97</course>
  <speed>0.01414213562373095</speed>
  <fix>3d</fix>
</trkpt>
<trkpt lat="40.072842" lon="-105.230575">
  <ele>1586.09</ele>
  <time>2026-08-27T18:24:29Z</time>
  <course>266.03</course>
  <speed>0.0</speed>
  <fix>3d</fix>
</trkpt>
<trkpt lat="40.0728419" lon="-105.2305749">
  <ele>1586.22</ele>
  <time>2026-08-27T18:24:29Z</time>
  <course>10.97</course>
  <speed>0.01414213562373095</speed>
  <fix>3d</fix>
</trkpt>
<trkpt lat="40.072842" lon="-105.230575">
  <ele>1586.09</ele>
  <time>2026-08-27T18:24:29Z</time>
  <course>266.03</course>
  <speed>0.0</speed>
  <fix>3d</fix>
</trkpt>
<trkpt lat="40.0728419" lon="-105.2305749">
  <ele>1586.23</ele>
  <time>2026-08-27T18:24:29Z</time>
  <course>10.97</course>
  <speed>0.01414213562373095</speed>
  <fix>3d</fix>
</trkpt>
<trkpt lat="40.072842" lon="-105.230575">
  <ele>1586.09</ele>
  <time>2026-08-27T18:24:29Z</time>
  <course>266.03</course>
  <speed>0.0</speed>
  <fix>3d</fix>
</trkpt>
<trkpt lat="40.0728419" lon="-105.2305749">
  <ele>1586.23</ele>
  <time>2026-08-27T18:24:29Z</time>
  <course>10.97</course>
  <speed>0.01414213562373095</speed>
  <fix>3d</fix>
</trkpt>
<trkpt lat="40.072842" lon="-105.230575">
  <ele>1586.09</ele>
  <time>2026-08-27T18:24:29Z</time>
  <course>266.03</course>
  <speed>0.0</speed>
  <fix>3d</fix>
</trkpt>
<trkpt lat="40.0728419" lon="-105.2305749">
  <ele>1586.22</ele>
  <time>2026-08-27T18:24:29Z</time>
  <course>10.97</course>
  <speed>0.01414213562373095</speed>
  <fix>3d</fix>
</trkpt>
<trkpt lat="40.072842" lon="-105.230575">
  <ele>1586.09</ele>
  <time>2026-08-27T18:24:29Z</time>
  <course>266.03</course>
  <speed>0.0</speed>
  <fix>3d</fix>
</trkpt>
<trkpt lat="40.0728419" lon="-105.2305749">
  <ele>1586.22</ele>
  <time>2026-08-27T18:24:29Z</time>
  <course>10.97</course>
  <speed>0.01414213562373095</speed>
  <fix>3d</fix>
</trkpt>
<trkpt lat="40.072842" lon="-105.230575">
  <ele>1586.09</ele>
  <time>2026-08-27T18:24:29Z</time>
  <course>266.03</course>
  <speed>0.0</speed>
  <fix>3d</fix>
</trkpt>
<trkpt lat="40.0728419" lon="-105.2305749">
  <ele>1586.21</ele>
  <time>2026-08-27T18:24:29Z</time>
  <course>10.97</course>
  <speed>0.01414213562373095</speed>
  <fix>3d</fix>
</trkpt>
<trkpt lat="40.072842" lon="-105.230575">
  <ele>1586.09</ele>
  <time>2026-08-27T18:24:29Z</time>
  <course>266.03</course>
  <speed>0.0</speed>
  <fix>3d</fix>
</trkpt>
<trkpt lat="40.0728419" lon="-105.2305749">
  <ele>1586.2</ele>
  <time>2026-08-27T18:24:29Z</time>
  <course>10.97</course>
  <speed>0.01414213562373095</speed>
  <fix>3d</fix>
</trkpt>
<trkpt lat="40.072842" lon="-105.230575">
  <ele>1586.09</ele>
  <time>2026-08-27T18:24:29Z</time>
  <course>266.03</course>
  <speed>0.0</speed>
  <fix>3d</fix>
</trkpt>
<trkpt lat="40.0728419" lon="-105.2305749">
  <ele>1586.2</ele>
  <time>2026-08-27T18:24:29Z</time>
  <course>10.97</course>
  <speed>0.01414213562373095</speed>
  <fix>3d</fix>
</trkpt>
<trkpt lat="40.072842" lon="-105.230575">
  <ele>1586.09</ele>
  <time>2026-08-27T18:24:29Z</time>
  <course>266.03</course>
  <speed>0.0</speed>
  <fix>3d</fix>
</trkpt>
<trkpt lat="40.0728419" lon="-105.2305749">
  <ele>1586.2</ele>
  <time>2026-08-27T18:24:29Z</time>
  <course>10.97</course>
  <speed>0.01414213562373095</speed>
  <fix>3d</fix>
</trkpt>
<trkpt lat="40.072842" lon="-105.230575">
  <ele>1586.09</ele>
  <time>2026-08-27T18:24:29Z</time>
  <course>266.03</course>
  <speed>0.0</speed>
  <fix>3d</fix>
</trkpt>
<trkpt lat="40.0728419" lon="-105.2305749">
  <ele>1586.2</ele>
  <time>2026-08-27T18:24:29Z</time>
  <course>10.98</course>
  <speed>0.01414213562373095</speed>
  <fix>3d</fix>
</trkpt>
<trkpt lat="40.072842" lon="-105.230575">
  <ele>1586.09</ele>
  <time>2026-08-27T18:24:29Z</time>
  <course>266.03</course>
  <speed>0.0</speed>
  <fix>3d</fix>
</trkpt>
<trkpt lat="40.0728419" lon="-105.2305749">
  <ele>1586.2</ele>
  <time>2026-08-27T18:24:29Z</time>
  <course>10.98</course>
  <speed>0.01414213562373095</speed>
  <fix>3d</fix>
</trkpt>
<trkpt lat="40.072842" lon="-105.230575">
  <ele>1586.09</ele>
  <time>2026-08-27T18:24:29Z</time>
  <course>266.03</course>
  <speed>0.0</speed>
  <fix>3d</fix>
</trkpt>
<trkpt lat="40.0728419" lon="-105.2305749">
  <ele>1586.19</ele>
  <time>2026-08-27T18:24:29Z</time>
  <course>10.98</course>
  <speed>0.01414213562373095</speed>
  <fix>3d</fix>
</trkpt>
<trkpt lat="40.072842" lon="-105.230575">
  <ele>1586.09</ele>
  <time>2026-08-27T18:24:29Z</time>
  <course>266.03</course>
  <speed>0.0</speed>
  <fix>3d</fix>
</trkpt>
<trkpt lat="40.0728419" lon="-105.2305749">
  <ele>1586.19</ele>
  <time>2026-08-27T18:24:29Z</time>
  <course>10.98</course>
  <speed>0.01414213562373095</speed>
  <fix>3d</fix>
</trkpt>
<trkpt lat="40.072842" lon="-105.230575">
  <ele>1586.09</ele>
  <time>2026-08-27T18:24:29Z</time>
  <course>266.03</course>
  <speed>0.0</speed>
  <fix>3d</fix>
</trkpt>
<trkpt lat="40.0728419" lon="-105.2305749">
  <ele>1586.19</ele>
  <time>2026-08-27T18:24:29Z</time>
  <course>10.98</course>
  <speed>0.01414213562373095</speed>
  <fix>3d</fix>
</trkpt>
<trkpt lat="40.072842" lon="-105.230575">
  <ele>1586.09</ele>
  <time>2026-08-27T18:24:29Z</time>
  <course>266.03</course>
  <speed>0.0</speed>
  <fix>3d</fix>
</trkpt>
<trkpt lat="40.0728419" lon="-105.2305749">
  <ele>1586.2</ele>
  <time>2026-08-27T18:24:29Z</time>
  <course>10.98</course>
  <speed>0.01414213562373095</speed>
  <fix>3d</fix>
</trkpt>
<trkpt lat="40.072842" lon="-105.230575">
  <ele>1586.09</ele>
  <time>2026-08-27T18:24:29Z</time>
  <course>266.03</course>
  <speed>0.0</speed>
  <fix>3d</fix>
</trkpt>
<trkpt lat="40.0728419" lon="-105.2305749">
  <ele>1586.2</ele>
  <time>2026-08-27T18:24:29Z</time>
  <course>10.98</course>
  <speed>0.01414213562373095</speed>
  <fix>3d</fix>
</trkpt>
<trkpt lat="40.072842" lon="-105.230575">
  <ele>1586.09</ele>
  <time>2026-08-27T18:24:29Z</time>
  <course>266.03</course>
  <speed>0.0</speed>
  <fix>3d</fix>
</trkpt>
<trkpt lat="40.0728419" lon="-105.2305749">
  <ele>1586.2</ele>
  <time>2026-08-27T18:24:29Z</time>
  <course>10.98</course>
  <speed>0.01414213562373095</speed>
  <fix>3d</fix>
</trkpt>
<trkpt lat="40.072842" lon="-105.230575">
  <ele>1586.09</ele>
  <time>2026-08-27T18:24:29Z</time>
  <course>266.03</course>
  <speed>0.0</speed>
  <fix>3d</fix>
</trkpt>
<trkpt lat="40.0728419" lon="-105.2305749">
  <ele>1586.2</ele>
  <time>2026-08-27T18:24:29Z</time>
  <course>10.98</course>
  <speed>0.01414213562373095</speed>
  <fix>3d</fix>
</trkpt>
<trkpt lat="40.072842" lon="-105.230575">
  <ele>1586.09</ele>
  <time>2026-08-27T18:24:29Z</time>
  <course>266.03</course>
  <speed>0.0</speed>
  <fix>3d</fix>
</trkpt>
<trkpt lat="40.0728419" lon="-105.2305749">
  <ele>1586.21</ele>
  <time>2026-08-27T18:24:29Z</time>
  <course>10.98</course>
  <speed>0.01414213562373095</speed>
  <fix>3d</fix>
</trkpt>
<trkpt lat="40.072842" lon="-105.230575">
  <ele>1586.09</ele>
  <time>2026-08-27T18:24:29Z</time>
  <course>266.03</course>
  <speed>0.0</speed>
  <fix>3d</fix>
</trkpt>
<trkpt lat="40.0728419" lon="-105.2305749">
  <ele>1586.21</ele>
  <time>2026-08-27T18:24:29Z</time>
  <course>10.98</course>
  <speed>0.01414213562373095</speed>
  <fix>3d</fix>
</trkpt>
<trkpt lat="40.072842" lon="-105.230575">
  <ele>1586.09</ele>
  <time>2026-08-27T18:24:29Z</time>
  <course>266.03</course>
  <speed>0.0</speed>
  <fix>3d</fix>
</trkpt>
<trkpt lat="40.0728419" lon="-105.2305749">
  <ele>1586.2</ele>
  <time>2026-08-27T18:24:29Z</time>
  <course>10.98</course>
  <speed>0.01414213562373095</speed>
  <fix>3d</fix>
</trkpt>
<trkpt lat="40.072842" lon="-105.230575">
  <ele>1586.09</ele>
  <time>2026-08-27T18:24:29Z</time>
  <course>266.03</course>
  <speed>0.0</speed>
  <fix>3d</fix>
</trkpt>
<trkpt lat="40.0728419" lon="-105.2305749">
  <ele>1586.2</ele>
  <time>2026-08-27T18:24:29Z</time>
  <course>10.98</course>
  <speed>0.01414213562373095</speed>
  <fix>3d</fix>
</trkpt>
<trkpt lat="40.072842" lon="-105.230575">
  <ele>1586.09</ele>
  <time>2026-08-27T18:24:29Z</time>
  <course>266.03</course>
  <speed>0.0</speed>
  <fix>3d</fix>
</trkpt>
<trkpt lat="40.0728419" lon="-105.2305749">
  <ele>1586.2</ele>
  <time>2026-08-27T18:24:29Z</time>
  <course>10.98</course>
  <speed>0.01414213562373095</speed>
  <fix>3d</fix>
</trkpt>
<trkpt lat="40.072842" lon="-105.230575">
  <ele>1586.09</ele>
  <time>2026-08-27T18:24:29Z</time>
  <course>266.03</course>
  <speed>0.0</speed>
  <fix>3d</fix>
</trkpt>
<trkpt lat="40.0728419" lon="-105.2305749">
  <ele>1586.2</ele>
  <time>2026-08-27T18:24:29Z</time>
  <course>10.98</course>
  <speed>0.01414213562373095</speed>
  <fix>3d</fix>
</trkpt>
<trkpt lat="40.072842" lon="-105.230575">
  <ele>1586.09</ele>
  <time>2026-08-27T18:24:29Z</time>
  <course>266.03</course>
  <speed>0.0</speed>
  <fix>3d</fix>
</trkpt>
<trkpt lat="40.0728419" lon="-105.2305749">
  <ele>1586.2</ele>
  <time>2026-08-27T18:24:29Z</time>
  <course>10.98</course>
  <speed>0.01414213562373095</speed>
  <fix>3d</fix>
</trkpt>
<trkpt lat="40.072842" lon="-105.230575">
  <ele>1586.09</ele>
  <time>2026-08-27T18:24:29Z</time>
  <course>266.03</course>
  <speed>0.0</speed>
  <fix>3d</fix>
</trkpt>
<trkpt lat="40.0728419" lon="-105.2305749">
  <ele>1586.2</ele>
  <time>2026-08-27T18:24:29Z</time>
  <course>10.98</course>
  <speed>0.01414213562373095</speed>
  <fix>3d</fix>
</trkpt>
<trkpt lat="40.072842" lon="-105.230575">
  <ele>1586.09</ele>
  <time>2026-08-27T18:24:29Z</time>
  <course>266.03</course>
  <speed>0.0</speed>
  <fix>3d</fix>
</trkpt>
<trkpt lat="40.0728419" lon="-105.2305749">
  <ele>1586.2</ele>
  <time>2026-08-27T18:24:29Z</time>
  <course>10.98</course>
  <speed>0.01414213562373095</speed>
  <fix>3d</fix>
</trkpt>
<trkpt lat="40.072842" lon="-105.230575">
  <ele>1586.09</ele>
  <time>2026-08-27T18:24:29Z</time>
  <course>266.03</course>
  <speed>0.0</speed>
  <fix>3d</fix>
</trkpt>
<trkpt lat="40.0728419" lon="-105.2305749">
  <ele>1586.2</ele>
  <time>2026-08-27T18:24:29Z</time>
  <course>10.98</course>
  <speed>0.01414213562373095</speed>
  <fix>3d</fix>
</trkpt>
<trkpt lat="40.072842" lon="-105.230575">
  <ele>1586.09</ele>
  <time>2026-08-27T18:24:29Z</time>
  <course>266.03</course>
  <speed>0.0</speed>
  <fix>3d</fix>
</trkpt>
<trkpt lat="40.0728419" lon="-105.2305749">
  <ele>1586.2</ele>
  <time>2026-08-27T18:24:29Z</time>
  <course>10.98</course>
  <speed>0.01414213562373095</speed>
  <fix>3d</fix>
</trkpt>
<trkpt lat="40.072842" lon="-105.230575">
  <ele>1586.09</ele>
  <time>2026-08-27T18:24:29Z</time>
  <course>266.03</course>
  <speed>0.0</speed>
  <fix>3d</fix>
</trkpt>
<trkpt lat="40.0728419" lon="-105.2305749">
  <ele>1586.2</ele>
  <time>2026-08-27T18:24:29Z</time>
  <course>10.98</course>
  <speed>0.01414213562373095</speed>
  <fix>3d</fix>
</trkpt>
<trkpt lat="40.072842" lon="-105.230575">
  <ele>1586.09</ele>
  <time>2026-08-27T18:24:29Z</time>
  <course>266.03</course>
  <speed>0.0</speed>
  <fix>3d</fix>
</trkpt>
<trkpt lat="40.0728419" lon="-105.2305749">
  <ele>1586.19</ele>
  <time>2026-08-27T18:24:29Z</time>
  <course>10.98</course>
  <speed>0.01414213562373095</speed>
  <fix>3d</fix>
</trkpt>
<trkpt lat="40.072842" lon="-105.230575">
  <ele>1586.09</ele>
  <time>2026-08-27T18:24:29Z</time>
  <course>266.03</course>
  <speed>0.0</speed>
  <fix>3d</fix>
</trkpt>
<trkpt lat="40.0728419" lon="-105.2305749">
  <ele>1586.19</ele>
  <time>2026-08-27T18:24:29Z</time>
  <course>10.99</course>
  <speed>0.01414213562373095</speed>
  <fix>3d</fix>
</trkpt>
<trkpt lat="40.072842" lon="-105.230575">
  <ele>1586.09</ele>
  <time>2026-08-27T18:24:29Z</time>
  <course>266.03</course>
  <speed>0.0</speed>
  <fix>3d</fix>
</trkpt>
<trkpt lat="40.0728419" lon="-105.2305749">
  <ele>1586.19</ele>
  <time>2026-08-27T18:24:29Z</time>
  <course>10.99</course>
  <speed>0.01414213562373095</speed>
  <fix>3d</fix>
</trkpt>
<trkpt lat="40.072842" lon="-105.230575">
  <ele>1586.09</ele>
  <time>2026-08-27T18:24:29Z</time>
  <course>266.03</course>
  <speed>0.0</speed>
  <fix>3d</fix>
</trkpt>
<trkpt lat="40.0728419" lon="-105.2305749">
  <ele>1586.19</ele>
  <time>2026-08-27T18:24:29Z</time>
  <course>10.99</course>
  <speed>0.01414213562373095</speed>
  <fix>3d</fix>
</trkpt>
<trkpt lat="40.072842" lon="-105.230575">
  <ele>1586.09</ele>
  <time>2026-08-27T18:24:29Z</time>
  <course>266.03</course>
  <speed>0.0</speed>
  <fix>3d</fix>
</trkpt>
<trkpt lat="40.0728419" lon="-105.2305749">
  <ele>1586.19</ele>
  <time>2026-08-27T18:24:29Z</time>
  <course>10.99</course>
  <speed>0.01414213562373095</speed>
  <fix>3d</fix>
</trkpt>
<trkpt lat="40.072842" lon="-105.230575">
  <ele>1586.09</ele>
  <time>2026-08-27T18:24:29Z</time>
  <course>266.03</course>
  <speed>0.0</speed>
  <fix>3d</fix>
</trkpt>
<trkpt lat="40.0728419" lon="-105.2305749">
  <ele>1586.19</ele>
  <time>2026-08-27T18:24:29Z</time>
  <course>10.99</course>
  <speed>0.01414213562373095</speed>
  <fix>3d</fix>
</trkpt>
<trkpt lat="40.072842" lon="-105.230575">
  <ele>1586.09</ele>
  <time>2026-08-27T18:24:29Z</time>
  <course>266.03</course>
  <speed>0.0</speed>
  <fix>3d</fix>
</trkpt>
<trkpt lat="40.0728419" lon="-105.2305749">
  <ele>1586.2</ele>
  <time>2026-08-27T18:24:29Z</time>
  <course>10.99</course>
  <speed>0.01414213562373095</speed>
  <fix>3d</fix>
</trkpt>
<trkpt lat="40.072842" lon="-105.230575">
  <ele>1586.09</ele>
  <time>2026-08-27T18:24:29Z</time>
  <course>266.03</course>
  <speed>0.0</speed>
  <fix>3d</fix>
</trkpt>
<trkpt lat="40.0728419" lon="-105.2305749">
  <ele>1586.2</ele>
  <time>2026-08-27T18:24:29Z</time>
  <course>10.99</course>
  <speed>0.01414213562373095</speed>
  <fix>3d</fix>
</trkpt>
<trkpt lat="40.072842" lon="-105.230575">
  <ele>1586.09</ele>
  <time>2026-08-27T18:24:29Z</time>
  <course>266.03</course>
  <speed>0.0</speed>
  <fix>3d</fix>
</trkpt>
<trkpt lat="40.0728419" lon="-105.2305749">
  <ele>1586.2</ele>
  <time>2026-08-27T18:24:29Z</time>
  <course>10.99</course>
  <speed>0.01414213562373095</speed>
  <fix>3d</fix>
</trkpt>
<trkpt lat="40.072842" lon="-105.230575">
  <ele>1586.09</ele>
  <time>2026-08-27T18:24:29Z</time>
  <course>266.03</course>
  <speed>0.0</speed>
  <fix>3d</fix>
</trkpt>
<trkpt lat="40.0728419" lon="-105.2305749">
  <ele>1586.21</ele>
  <time>2026-08-27T18:24:29Z</time>
  <course>10.99</course>
  <speed>0.01414213562373095</speed>
  <fix>3d</fix>
</trkpt>
<trkpt lat="40.072842" lon="-105.230575">
  <ele>1586.09</ele>
  <time>2026-08-27T18:24:29Z</time>
  <course>266.03</course>
  <speed>0.0</speed>
  <fix>3d</fix>
</trkpt>
<trkpt lat="40.0728419" lon="-105.2305749">
  <ele>1586.21</ele>
  <time>2026-08-27T18:24:29Z</time>
  <course>10.99</course>
  <speed>0.01414213562373095</speed>
  <fix>3d</fix>
</trkpt>
<trkpt lat="40.072842" lon="-105.230575">
  <ele>1586.09</ele>
  <time>2026-08-27T18:24:29Z</time>
  <course>266.03</course>
  <speed>0.0</speed>
  <fix>3d</fix>
</trkpt>
<trkpt lat="40.0728419" lon="-105.2305749">
  <ele>1586.21</ele>
  <time>2026-08-27T18:24:29Z</time>
  <course>10.99</course>
  <speed>0.01414213562373095</speed>
  <fix>3d</fix>
</trkpt>
<trkpt lat="40.072842" lon="-105.230575">
  <ele>1586.09</ele>
  <time>2026-08-27T18:24:29Z</time>
  <course>266.03</course>
  <speed>0.0</speed>
  <fix>3d</fix>
</trkpt>
<trkpt lat="40.0728419" lon="-105.2305749">
  <ele>1586.21</ele>
  <time>2026-08-27T18:24:29Z</time>
  <course>10.99</course>
  <speed>0.01414213562373095</speed>
  <fix>3d</fix>
</trkpt>
<trkpt lat="40.072842" lon="-105.230575">
  <ele>1586.09</ele>
  <time>2026-08-27T18:24:29Z</time>
  <course>266.03</course>
  <speed>0.0</speed>
  <fix>3d</fix>
</trkpt>
<trkpt lat="40.0728419" lon="-105.2305749">
  <ele>1586.21</ele>
  <time>2026-08-27T18:24:29Z</time>
  <course>10.99</course>
  <speed>0.01414213562373095</speed>
  <fix>3d</fix>
</trkpt>
<trkpt lat="40.072842" lon="-105.230575">
  <ele>1586.09</ele>
  <time>2026-08-27T18:24:29Z</time>
  <course>266.03</course>
  <speed>0.0</speed>
  <fix>3d</fix>
</trkpt>
<trkpt lat="40.0728419" lon="-105.2305749">
  <ele>1586.21</ele>
  <time>2026-08-27T18:24:29Z</time>
  <course>10.99</course>
  <speed>0.01414213562373095</speed>
  <fix>3d</fix>
</trkpt>
<trkpt lat="40.072842" lon="-105.230575">
  <ele>1586.09</ele>
  <time>2026-08-27T18:24:29Z</time>
  <course>266.03</course>
  <speed>0.0</speed>
  <fix>3d</fix>
</trkpt>
<trkpt lat="40.0728419" lon="-105.2305749">
  <ele>1586.21</ele>
  <time>2026-08-27T18:24:29Z</time>
  <course>10.99</course>
  <speed>0.01414213562373095</speed>
  <fix>3d</fix>
</trkpt>
<trkpt lat="40.072842" lon="-105.230575">
  <ele>1586.09</ele>
  <time>2026-08-27T18:24:29Z</time>
  <course>266.03</course>
  <speed>0.0</speed>
  <fix>3d</fix>
</trkpt>
<trkpt lat="40.0728419" lon="-105.2305749">
  <ele>1586.21</ele>
  <time>2026-08-27T18:24:29Z</time>
  <course>10.99</course>
  <speed>0.01414213562373095</speed>
  <fix>3d</fix>
</trkpt>
<trkpt lat="40.072842" lon="-105.230575">
  <ele>1586.09</ele>
  <time>2026-08-27T18:24:29Z</time>
  <course>266.03</course>
  <speed>0.0</speed>
  <fix>3d</fix>
</trkpt>
<trkpt lat="40.0728419" lon="-105.2305749">
  <ele>1586.21</ele>
  <time>2026-08-27T18:24:29Z</time>
  <course>10.99</course>
  <speed>0.022360679774997897</speed>
  <fix>3d</fix>
</trkpt>
<trkpt lat="40.072842" lon="-105.230575">
  <ele>1586.09</ele>
  <time>2026-08-27T18:24:29Z</time>
  <course>266.03</course>
  <speed>0.0</speed>
  <fix>3d</fix>
</trkpt>
<trkpt lat="40.0728419" lon="-105.2305749">
  <ele>1586.21</ele>
  <time>2026-08-27T18:24:29Z</time>
  <course>10.99</course>
  <speed>0.022360679774997897</speed>
  <fix>3d</fix>
</trkpt>
<trkpt lat="40.072842" lon="-105.230575">
  <ele>1586.09</ele>
  <time>2026-08-27T18:24:29Z</time>
  <course>266.03</course>
  <speed>0.0</speed>
  <fix>3d</fix>
</trkpt>
<trkpt lat="40.0728419" lon="-105.2305749">
  <ele>1586.21</ele>
  <time>2026-08-27T18:24:29Z</time>
  <course>10.99</course>
  <speed>0.022360679774997897</speed>
  <fix>3d</fix>
</trkpt>
<trkpt lat="40.072842" lon="-105.230575">
  <ele>1586.09</ele>
  <time>2026-08-27T18:24:29Z</time>
  <course>266.03</course>
  <speed>0.0</speed>
  <fix>3d</fix>
</trkpt>
<trkpt lat="40.0728419" lon="-105.2305749">
  <ele>1586.2</ele>
  <time>2026-08-27T18:24:29Z</time>
  <course>10.99</course>
  <speed>0.022360679774997897</speed>
  <fix>3d</fix>
</trkpt>
<trkpt lat="40.072842" lon="-105.230575">
  <ele>1586.09</ele>
  <time>2026-08-27T18:24:29Z</time>
  <course>266.03</course>
  <speed>0.0</speed>
  <fix>3d</fix>
</trkpt>
<trkpt lat="40.0728419" lon="-105.2305749">
  <ele>1586.2</ele>
  <time>2026-08-27T18:24:29Z</time>
  <course>10.99</course>
  <speed>0.01414213562373095</speed>
  <fix>3d</fix>
</trkpt>
<trkpt lat="40.072842" lon="-105.230575">
  <ele>1586.09</ele>
  <time>2026-08-27T18:24:29Z</time>
  <course>266.03</course>
  <speed>0.0</speed>
  <fix>3d</fix>
</trkpt>
<trkpt lat="40.0728419" lon="-105.2305749">
  <ele>1586.2</ele>
  <time>2026-08-27T18:24:29Z</time>
  <course>10.99</course>
  <speed>0.01414213562373095</speed>
  <fix>3d</fix>
</trkpt>
<trkpt lat="40.072842" lon="-105.230575">
  <ele>1586.09</ele>
  <time>2026-08-27T18:24:29Z</time>
  <course>266.03</course>
  <speed>0.0</speed>
  <fix>3d</fix>
</trkpt>
<trkpt lat="40.0728419" lon="-105.2305749">
  <ele>1586.2</ele>
  <time>2026-08-27T18:24:29Z</time>
  <course>11.0</course>
  <speed>0.01414213562373095</speed>
  <fix>3d</fix>
</trkpt>
<trkpt lat="40.072842" lon="-105.230575">
  <ele>1586.09</ele>
  <time>2026-08-27T18:24:29Z</time>
  <course>266.03</course>
  <speed>0.0</speed>
  <fix>3d</fix>
</trkpt>
<trkpt lat="40.0728419" lon="-105.2305749">
  <ele>1586.19</ele>
  <time>2026-08-27T18:24:29Z</time>
  <course>11.0</course>
  <speed>0.01414213562373095</speed>
  <fix>3d</fix>
</trkpt>
<trkpt lat="40.072842" lon="-105.230575">
  <ele>1586.09</ele>
  <time>2026-08-27T18:24:29Z</time>
  <course>266.03</course>
  <speed>0.0</speed>
  <fix>3d</fix>
</trkpt>
<trkpt lat="40.0728419" lon="-105.2305749">
  <ele>1586.19</ele>
  <time>2026-08-27T18:24:29Z</time>
  <course>11.0</course>
  <speed>0.01414213562373095</speed>
  <fix>3d</fix>
</trkpt>
<trkpt lat="40.072842" lon="-105.230575">
  <ele>1586.09</ele>
  <time>2026-08-27T18:24:29Z</time>
  <course>266.03</course>
  <speed>0.0</speed>
  <fix>3d</fix>
</trkpt>
<trkpt lat="40.0728419" lon="-105.2305749">
  <ele>1586.19</ele>
  <time>2026-08-27T18:24:29Z</time>
  <course>11.0</course>
  <speed>0.01414213562373095</speed>
  <fix>3d</fix>
</trkpt>
<trkpt lat="40.072842" lon="-105.230575">
  <ele>1586.09</ele>
  <time>2026-08-27T18:24:29Z</time>
  <course>266.03</course>
  <speed>0.0</speed>
  <fix>3d</fix>
</trkpt>
<trkpt lat="40.0728419" lon="-105.2305749">
  <ele>1586.19</ele>
  <time>2026-08-27T18:24:29Z</time>
  <course>11.0</course>
  <speed>0.01414213562373095</speed>
  <fix>3d</fix>
</trkpt>
<trkpt lat="40.072842" lon="-105.230575">
  <ele>1586.09</ele>
  <time>2026-08-27T18:24:29Z</time>
  <course>266.03</course>
  <speed>0.0</speed>
  <fix>3d</fix>
</trkpt>
<trkpt lat="40.0728419" lon="-105.2305749">
  <ele>1586.19</ele>
  <time>2026-08-27T18:24:29Z</time>
  <course>11.0</course>
  <speed>0.01414213562373095</speed>
  <fix>3d</fix>
</trkpt>
<trkpt lat="40.072842" lon="-105.230575">
  <ele>1586.09</ele>
  <time>2026-08-27T18:24:29Z</time>
  <course>266.03</course>
  <speed>0.0</speed>
  <fix>3d</fix>
</trkpt>
<trkpt lat="40.0728419" lon="-105.2305749">
  <ele>1586.18</ele>
  <time>2026-08-27T18:24:29Z</time>
  <course>11.0</course>
  <speed>0.01414213562373095</speed>
  <fix>3d</fix>
</trkpt>
<trkpt lat="40.072842" lon="-105.230575">
  <ele>1586.09</ele>
  <time>2026-08-27T18:24:29Z</time>
  <course>266.03</course>
  <speed>0.0</speed>
  <fix>3d</fix>
</trkpt>
<trkpt lat="40.0728419" lon="-105.2305749">
  <ele>1586.18</ele>
  <time>2026-08-27T18:24:29Z</time>
  <course>11.0</course>
  <speed>0.01414213562373095</speed>
  <fix>3d</fix>
</trkpt>
<trkpt lat="40.072842" lon="-105.230575">
  <ele>1586.09</ele>
  <time>2026-08-27T18:24:29Z</time>
  <course>266.03</course>
  <speed>0.0</speed>
  <fix>3d</fix>
</trkpt>
<trkpt lat="40.0728419" lon="-105.2305749">
  <ele>1586.18</ele>
  <time>2026-08-27T18:24:29Z</time>
  <course>11.0</course>
  <speed>0.01414213562373095</speed>
  <fix>3d</fix>
</trkpt>
<trkpt lat="40.072842" lon="-105.230575">
  <ele>1586.09</ele>
  <time>2026-08-27T18:24:29Z</time>
  <course>266.03</course>
  <speed>0.0</speed>
  <fix>3d</fix>
</trkpt>
<trkpt lat="40.0728419" lon="-105.2305749">
  <ele>1586.17</ele>
  <time>2026-08-27T18:24:29Z</time>
  <course>11.0</course>
  <speed>0.01414213562373095</speed>
  <fix>3d</fix>
</trkpt>
<trkpt lat="40.072842" lon="-105.230575">
  <ele>1586.09</ele>
  <time>2026-08-27T18:24:29Z</time>
  <course>266.03</course>
  <speed>0.0</speed>
  <fix>3d</fix>
</trkpt>
<trkpt lat="40.0728419" lon="-105.2305749">
  <ele>1586.17</ele>
  <time>2026-08-27T18:24:29Z</time>
  <course>11.0</course>
  <speed>0.01414213562373095</speed>
  <fix>3d</fix>
</trkpt>
<trkpt lat="40.072842" lon="-105.230575">
  <ele>1586.09</ele>
  <time>2026-08-27T18:24:29Z</time>
  <course>266.03</course>
  <speed>0.0</speed>
  <fix>3d</fix>
</trkpt>
<trkpt lat="40.0728419" lon="-105.2305749">
  <ele>1586.17</ele>
  <time>2026-08-27T18:24:29Z</time>
  <course>11.0</course>
  <speed>0.01414213562373095</speed>
  <fix>3d</fix>
</trkpt>
<trkpt lat="40.072842" lon="-105.230575">
  <ele>1586.09</ele>
  <time>2026-08-27T18:24:29Z</time>
  <course>266.03</course>
  <speed>0.0</speed>
  <fix>3d</fix>
</trkpt>
<trkpt lat="40.0728419" lon="-105.2305749">
  <ele>1586.17</ele>
  <time>2026-08-27T18:24:29Z</time>
  <course>11.0</course>
  <speed>0.01414213562373095</speed>
  <fix>3d</fix>
</trkpt>
<trkpt lat="40.072842" lon="-105.230575">
  <ele>1586.09</ele>
  <time>2026-08-27T18:24:29Z</time>
  <course>266.03</course>
  <speed>0.0</speed>
  <fix>3d</fix>
</trkpt>
<trkpt lat="40.0728419" lon="-105.2305749">
  <ele>1586.17</ele>
  <time>2026-08-27T18:24:29Z</time>
  <course>11.0</course>
  <speed>0.01414213562373095</speed>
  <fix>3d</fix>
</trkpt>
<trkpt lat="40.072842" lon="-105.230575">
  <ele>1586.09</ele>
  <time>2026-08-27T18:24:29Z</time>
  <course>266.03</course>
  <speed>0.0</speed>
  <fix>3d</fix>
</trkpt>
<trkpt lat="40.0728419" lon="-105.2305749">
  <ele>1586.17</ele>
  <time>2026-08-27T18:24:29Z</time>
  <course>11.0</course>
  <speed>0.01414213562373095</speed>
  <fix>3d</fix>
</trkpt>
<trkpt lat="40.072842" lon="-105.230575">
  <ele>1586.09</ele>
  <time>2026-08-27T18:24:29Z</time>
  <course>266.03</course>
  <speed>0.0</speed>
  <fix>3d</fix>
</trkpt>
<trkpt lat="40.0728419" lon="-105.2305749">
  <ele>1586.17</ele>
  <time>2026-08-27T18:24:29Z</time>
  <course>11.0</course>
  <speed>0.01414213562373095</speed>
  <fix>3d</fix>
</trkpt>
<trkpt lat="40.072842" lon="-105.230575">
  <ele>1586.09</ele>
  <time>2026-08-27T18:24:29Z</time>
  <course>266.03</course>
  <speed>0.0</speed>
  <fix>3d</fix>
</trkpt>
<trkpt lat="40.0728419" lon="-105.2305749">
  <ele>1586.17</ele>
  <time>2026-08-27T18:24:29Z</time>
  <course>11.0</course>
  <speed>0.01414213562373095</speed>
  <fix>3d</fix>
</trkpt>
<trkpt lat="40.072842" lon="-105.230575">
  <ele>1586.09</ele>
  <time>2026-08-27T18:24:29Z</time>
  <course>266.03</course>
  <speed>0.0</speed>
  <fix>3d</fix>
</trkpt>
<trkpt lat="40.0728419" lon="-105.2305749">
  <ele>1586.17</ele>
  <time>2026-08-27T18:24:29Z</time>
  <course>11.0</course>
  <speed>0.01414213562373095</speed>
  <fix>3d</fix>
</trkpt>
<trkpt lat="40.072842" lon="-105.230575">
  <ele>1586.09</ele>
  <time>2026-08-27T18:24:29Z</time>
  <course>266.03</course>
  <speed>0.0</speed>
  <fix>3d</fix>
</trkpt>
<trkpt lat="40.0728419" lon="-105.2305749">
  <ele>1586.17</ele>
  <time>2026-08-27T18:24:29Z</time>
  <course>11.0</course>
  <speed>0.01414213562373095</speed>
  <fix>3d</fix>
</trkpt>
<trkpt lat="40.072842" lon="-105.230575">
  <ele>1586.09</ele>
  <time>2026-08-27T18:24:29Z</time>
  <course>266.03</course>
  <speed>0.0</speed>
  <fix>3d</fix>
</trkpt>
<trkpt lat="40.0728419" lon="-105.2305749">
  <ele>1586.16</ele>
  <time>2026-08-27T18:24:29Z</time>
  <course>11.0</course>
  <speed>0.01414213562373095</speed>
  <fix>3d</fix>
</trkpt>
<trkpt lat="40.072842" lon="-105.230575">
  <ele>1586.09</ele>
  <time>2026-08-27T18:24:29Z</time>
  <course>266.03</course>
  <speed>0.0</speed>
  <fix>3d</fix>
</trkpt>
<trkpt lat="40.0728419" lon="-105.2305749">
  <ele>1586.16</ele>
  <time>2026-08-27T18:24:29Z</time>
  <course>11.0</course>
  <speed>0.01414213562373095</speed>
  <fix>3d</fix>
</trkpt>
<trkpt lat="40.072842" lon="-105.230575">
  <ele>1586.09</ele>
  <time>2026-08-27T18:24:29Z</time>
  <course>266.03</course>
  <speed>0.0</speed>
  <fix>3d</fix>
</trkpt>
<trkpt lat="40.0728419" lon="-105.2305749">
  <ele>1586.17</ele>
  <time>2026-08-27T18:24:29Z</time>
  <course>11.01</course>
  <speed>0.01414213562373095</speed>
  <fix>3d</fix>
</trkpt>
<trkpt lat="40.072842" lon="-105.230575">
  <ele>1586.09</ele>
  <time>2026-08-27T18:24:29Z</time>
  <course>266.03</course>
  <speed>0.0</speed>
  <fix>3d</fix>
</trkpt>
<trkpt lat="40.0728419" lon="-105.2305749">
  <ele>1586.16</ele>
  <time>2026-08-27T18:24:29Z</time>
  <course>11.01</course>
  <speed>0.01414213562373095</speed>
  <fix>3d</fix>
</trkpt>
<trkpt lat="40.072842" lon="-105.230575">
  <ele>1586.09</ele>
  <time>2026-08-27T18:24:29Z</time>
  <course>266.03</course>
  <speed>0.0</speed>
  <fix>3d</fix>
</trkpt>
<trkpt lat="40.0728419" lon="-105.2305749">
  <ele>1586.16</ele>
  <time>2026-08-27T18:24:29Z</time>
  <course>11.01</course>
  <speed>0.01414213562373095</speed>
  <fix>3d</fix>
</trkpt>
<trkpt lat="40.072842" lon="-105.230575">
  <ele>1586.09</ele>
  <time>2026-08-27T18:24:29Z</time>
  <course>266.03</course>
  <speed>0.0</speed>
  <fix>3d</fix>
</trkpt>
<trkpt lat="40.0728419" lon="-105.2305749">
  <ele>1586.16</ele>
  <time>2026-08-27T18:24:29Z</time>
  <course>11.01</course>
  <speed>0.01414213562373095</speed>
  <fix>3d</fix>
</trkpt>
<trkpt lat="40.072842" lon="-105.230575">
  <ele>1586.09</ele>
  <time>2026-08-27T18:24:29Z</time>
  <course>266.03</course>
  <speed>0.0</speed>
  <fix>3d</fix>
</trkpt>
<trkpt lat="40.0728419" lon="-105.2305749">
  <ele>1586.17</ele>
  <time>2026-08-27T18:24:29Z</time>
  <course>11.01</course>
  <speed>0.01414213562373095</speed>
  <fix>3d</fix>
</trkpt>
<trkpt lat="40.072842" lon="-105.230575">
  <ele>1586.09</ele>
  <time>2026-08-27T18:24:29Z</time>
  <course>266.03</course>
  <speed>0.0</speed>
  <fix>3d</fix>
</trkpt>
<trkpt lat="40.0728419" lon="-105.2305749">
  <ele>1586.17</ele>
  <time>2026-08-27T18:24:29Z</time>
  <course>11.01</course>
  <speed>0.01414213562373095</speed>
  <fix>3d</fix>
</trkpt>
<trkpt lat="40.072842" lon="-105.230575">
  <ele>1586.09</ele>
  <time>2026-08-27T18:24:29Z</time>
  <course>266.03</course>
  <speed>0.0</speed>
  <fix>3d</fix>
</trkpt>
<trkpt lat="40.0728419" lon="-105.2305749">
  <ele>1586.17</ele>
  <time>2026-08-27T18:24:29Z</time>
  <course>11.01</course>
  <speed>0.01414213562373095</speed>
  <fix>3d</fix>
</trkpt>
<trkpt lat="40.072842" lon="-105.230575">
  <ele>1586.09</ele>
  <time>2026-08-27T18:24:29Z</time>
  <course>266.03</course>
  <speed>0.0</speed>
  <fix>3d</fix>
</trkpt>
<trkpt lat="40.0728419" lon="-105.2305749">
  <ele>1586.17</ele>
  <time>2026-08-27T18:24:29Z</time>
  <course>11.01</course>
  <speed>0.01414213562373095</speed>
  <fix>3d</fix>
</trkpt>
<trkpt lat="40.072842" lon="-105.230575">
  <ele>1586.09</ele>
  <time>2026-08-27T18:24:29Z</time>
  <course>266.03</course>
  <speed>0.0</speed>
  <fix>3d</fix>
</trkpt>
<trkpt lat="40.0728419" lon="-105.2305749">
  <ele>1586.17</ele>
  <time>2026-08-27T18:24:29Z</time>
  <course>11.01</course>
  <speed>0.01414213562373095</speed>
  <fix>3d</fix>
</trkpt>
<trkpt lat="40.072842" lon="-105.230575">
  <ele>1586.09</ele>
  <time>2026-08-27T18:24:29Z</time>
  <course>266.03</course>
  <speed>0.0</speed>
  <fix>3d</fix>
</trkpt>
<trkpt lat="40.0728419" lon="-105.2305749">
  <ele>1586.17</ele>
  <time>2026-08-27T18:24:29Z</time>
  <course>11.01</course>
  <speed>0.01414213562373095</speed>
  <fix>3d</fix>
</trkpt>
<trkpt lat="40.072842" lon="-105.230575">
  <ele>1586.09</ele>
  <time>2026-08-27T18:24:29Z</time>
  <course>266.03</course>
  <speed>0.0</speed>
  <fix>3d</fix>
</trkpt>
<trkpt lat="40.0728419" lon="-105.2305749">
  <ele>1586.17</ele>
  <time>2026-08-27T18:24:29Z</time>
  <course>11.01</course>
  <speed>0.01414213562373095</speed>
  <fix>3d</fix>
</trkpt>
<trkpt lat="40.072842" lon="-105.230575">
  <ele>1586.09</ele>
  <time>2026-08-27T18:24:29Z</time>
  <course>266.03</course>
  <speed>0.0</speed>
  <fix>3d</fix>
</trkpt>
<trkpt lat="40.0728419" lon="-105.2305749">
  <ele>1586.18</ele>
  <time>2026-08-27T18:24:29Z</time>
  <course>11.01</course>
  <speed>0.01414213562373095</speed>
  <fix>3d</fix>
</trkpt>
<trkpt lat="40.072842" lon="-105.230575">
  <ele>1586.09</ele>
  <time>2026-08-27T18:24:29Z</time>
  <course>266.03</course>
  <speed>0.0</speed>
  <fix>3d</fix>
</trkpt>
<trkpt lat="40.0728419" lon="-105.2305749">
  <ele>1586.18</ele>
  <time>2026-08-27T18:24:30Z</time>
  <course>11.01</course>
  <speed>0.01414213562373095</speed>
  <fix>3d</fix>
</trkpt>
<trkpt lat="40.072842" lon="-105.230575">
  <ele>1586.09</ele>
  <time>2026-08-27T18:24:30Z</time>
  <course>266.03</course>
  <speed>0.0</speed>
  <fix>3d</fix>
</trkpt>
<trkpt lat="40.0728419" lon="-105.2305749">
  <ele>1586.18</ele>
  <time>2026-08-27T18:24:30Z</time>
  <course>11.01</course>
  <speed>0.01414213562373095</speed>
  <fix>3d</fix>
</trkpt>
<trkpt lat="40.072842" lon="-105.230575">
  <ele>1586.09</ele>
  <time>2026-08-27T18:24:30Z</time>
  <course>266.03</course>
  <speed>0.0</speed>
  <fix>3d</fix>
</trkpt>
<trkpt lat="40.0728419" lon="-105.2305749">
  <ele>1586.18</ele>
  <time>2026-08-27T18:24:30Z</time>
  <course>11.01</course>
  <speed>0.01414213562373095</speed>
  <fix>3d</fix>
</trkpt>
<trkpt lat="40.072842" lon="-105.230575">
  <ele>1586.09</ele>
  <time>2026-08-27T18:24:30Z</time>
  <course>266.03</course>
  <speed>0.0</speed>
  <fix>3d</fix>
</trkpt>
<trkpt lat="40.0728419" lon="-105.2305749">
  <ele>1586.18</ele>
  <time>2026-08-27T18:24:30Z</time>
  <course>11.01</course>
  <speed>0.01414213562373095</speed>
  <fix>3d</fix>
</trkpt>
<trkpt lat="40.072842" lon="-105.230575">
  <ele>1586.09</ele>
  <time>2026-08-27T18:24:30Z</time>
  <course>266.03</course>
  <speed>0.0</speed>
  <fix>3d</fix>
</trkpt>
<trkpt lat="40.0728419" lon="-105.2305749">
  <ele>1586.18</ele>
  <time>2026-08-27T18:24:30Z</time>
  <course>11.01</course>
  <speed>0.01414213562373095</speed>
  <fix>3d</fix>
</trkpt>
<trkpt lat="40.072842" lon="-105.230575">
  <ele>1586.09</ele>
  <time>2026-08-27T18:24:30Z</time>
  <course>266.03</course>
  <speed>0.0</speed>
  <fix>3d</fix>
</trkpt>
<trkpt lat="40.0728419" lon="-105.2305749">
  <ele>1586.18</ele>
  <time>2026-08-27T18:24:30Z</time>
  <course>11.01</course>
  <speed>0.01414213562373095</speed>
  <fix>3d</fix>
</trkpt>
<trkpt lat="40.072842" lon="-105.230575">
  <ele>1586.09</ele>
  <time>2026-08-27T18:24:30Z</time>
  <course>266.03</course>
  <speed>0.0</speed>
  <fix>3d</fix>
</trkpt>
<trkpt lat="40.0728419" lon="-105.2305749">
  <ele>1586.18</ele>
  <time>2026-08-27T18:24:30Z</time>
  <course>11.01</course>
  <speed>0.01414213562373095</speed>
  <fix>3d</fix>
</trkpt>
<trkpt lat="40.072842" lon="-105.230575">
  <ele>1586.09</ele>
  <time>2026-08-27T18:24:30Z</time>
  <course>266.03</course>
  <speed>0.0</speed>
  <fix>3d</fix>
</trkpt>
<trkpt lat="40.0728419" lon="-105.2305749">
  <ele>1586.17</ele>
  <time>2026-08-27T18:24:30Z</time>
  <course>11.01</course>
  <speed>0.01414213562373095</speed>
  <fix>3d</fix>
</trkpt>
<trkpt lat="40.072842" lon="-105.230575">
  <ele>1586.09</ele>
  <time>2026-08-27T18:24:30Z</time>
  <course>266.03</course>
  <speed>0.0</speed>
  <fix>3d</fix>
</trkpt>
<trkpt lat="40.0728419" lon="-105.2305749">
  <ele>1586.17</ele>
  <time>2026-08-27T18:24:30Z</time>
  <course>11.01</course>
  <speed>0.01414213562373095</speed>
  <fix>3d</fix>
</trkpt>
<trkpt lat="40.072842" lon="-105.230575">
  <ele>1586.09</ele>
  <time>2026-08-27T18:24:30Z</time>
  <course>266.03</course>
  <speed>0.0</speed>
  <fix>3d</fix>
</trkpt>
<trkpt lat="40.0728419" lon="-105.2305749">
  <ele>1586.17</ele>
  <time>2026-08-27T18:24:30Z</time>
  <course>11.01</course>
  <speed>0.01414213562373095</speed>
  <fix>3d</fix>
</trkpt>
<trkpt lat="40.072842" lon="-105.230575">
  <ele>1586.09</ele>
  <time>2026-08-27T18:24:30Z</time>
  <course>266.03</course>
  <speed>0.0</speed>
  <fix>3d</fix>
</trkpt>
<trkpt lat="40.0728419" lon="-105.2305749">
  <ele>1586.17</ele>
  <time>2026-08-27T18:24:30Z</time>
  <course>11.01</course>
  <speed>0.01414213562373095</speed>
  <fix>3d</fix>
</trkpt>
<trkpt lat="40.072842" lon="-105.230575">
  <ele>1586.09</ele>
  <time>2026-08-27T18:24:30Z</time>
  <course>266.03</course>
  <speed>0.0</speed>
  <fix>3d</fix>
</trkpt>
<trkpt lat="40.0728419" lon="-105.2305749">
  <ele>1586.17</ele>
  <time>2026-08-27T18:24:30Z</time>
  <course>11.02</course>
  <speed>0.01414213562373095</speed>
  <fix>3d</fix>
</trkpt>
<trkpt lat="40.072842" lon="-105.230575">
  <ele>1586.09</ele>
  <time>2026-08-27T18:24:30Z</time>
  <course>266.03</course>
  <speed>0.0</speed>
  <fix>3d</fix>
</trkpt>
<trkpt lat="40.0728419" lon="-105.2305749">
  <ele>1586.17</ele>
  <time>2026-08-27T18:24:30Z</time>
  <course>11.02</course>
  <speed>0.01414213562373095</speed>
  <fix>3d</fix>
</trkpt>
<trkpt lat="40.072842" lon="-105.230575">
  <ele>1586.09</ele>
  <time>2026-08-27T18:24:30Z</time>
  <course>266.03</course>
  <speed>0.0</speed>
  <fix>3d</fix>
</trkpt>
<trkpt lat="40.0728419" lon="-105.2305749">
  <ele>1586.17</ele>
  <time>2026-08-27T18:24:30Z</time>
  <course>11.02</course>
  <speed>0.01414213562373095</speed>
  <fix>3d</fix>
</trkpt>
<trkpt lat="40.072842" lon="-105.230575">
  <ele>1586.09</ele>
  <time>2026-08-27T18:24:30Z</time>
  <course>266.03</course>
  <speed>0.0</speed>
  <fix>3d</fix>
</trkpt>
<trkpt lat="40.0728419" lon="-105.2305749">
  <ele>1586.17</ele>
  <time>2026-08-27T18:24:30Z</time>
  <course>11.02</course>
  <speed>0.01414213562373095</speed>
  <fix>3d</fix>
</trkpt>
<trkpt lat="40.072842" lon="-105.230575">
  <ele>1586.09</ele>
  <time>2026-08-27T18:24:30Z</time>
  <course>266.03</course>
  <speed>0.0</speed>
  <fix>3d</fix>
</trkpt>
<trkpt lat="40.0728419" lon="-105.2305749">
  <ele>1586.17</ele>
  <time>2026-08-27T18:24:30Z</time>
  <course>11.02</course>
  <speed>0.01414213562373095</speed>
  <fix>3d</fix>
</trkpt>
<trkpt lat="40.072842" lon="-105.230575">
  <ele>1586.09</ele>
  <time>2026-08-27T18:24:30Z</time>
  <course>266.03</course>
  <speed>0.0</speed>
  <fix>3d</fix>
</trkpt>
<trkpt lat="40.0728419" lon="-105.2305749">
  <ele>1586.18</ele>
  <time>2026-08-27T18:24:30Z</time>
  <course>11.02</course>
  <speed>0.01414213562373095</speed>
  <fix>3d</fix>
</trkpt>
<trkpt lat="40.072842" lon="-105.230575">
  <ele>1586.09</ele>
  <time>2026-08-27T18:24:30Z</time>
  <course>266.03</course>
  <speed>0.0</speed>
  <fix>3d</fix>
</trkpt>
<trkpt lat="40.0728419" lon="-105.2305749">
  <ele>1586.18</ele>
  <time>2026-08-27T18:24:30Z</time>
  <course>11.02</course>
  <speed>0.01414213562373095</speed>
  <fix>3d</fix>
</trkpt>
<trkpt lat="40.072842" lon="-105.230575">
  <ele>1586.09</ele>
  <time>2026-08-27T18:24:30Z</time>
  <course>266.03</course>
  <speed>0.0</speed>
  <fix>3d</fix>
</trkpt>
<trkpt lat="40.0728419" lon="-105.2305749">
  <ele>1586.17</ele>
  <time>2026-08-27T18:24:30Z</time>
  <course>11.02</course>
  <speed>0.01414213562373095</speed>
  <fix>3d</fix>
</trkpt>
<trkpt lat="40.072842" lon="-105.230575">
  <ele>1586.09</ele>
  <time>2026-08-27T18:24:30Z</time>
  <course>266.03</course>
  <speed>0.0</speed>
  <fix>3d</fix>
</trkpt>
<trkpt lat="40.0728419" lon="-105.2305749">
  <ele>1586.17</ele>
  <time>2026-08-27T18:24:30Z</time>
  <course>11.02</course>
  <speed>0.01414213562373095</speed>
  <fix>3d</fix>
</trkpt>
<trkpt lat="40.072842" lon="-105.230575">
  <ele>1586.09</ele>
  <time>2026-08-27T18:24:30Z</time>
  <course>266.03</course>
  <speed>0.0</speed>
  <fix>3d</fix>
</trkpt>
<trkpt lat="40.0728419" lon="-105.2305749">
  <ele>1586.18</ele>
  <time>2026-08-27T18:24:30Z</time>
  <course>11.02</course>
  <speed>0.01414213562373095</speed>
  <fix>3d</fix>
</trkpt>
<trkpt lat="40.072842" lon="-105.230575">
  <ele>1586.09</ele>
  <time>2026-08-27T18:24:30Z</time>
  <course>266.03</course>
  <speed>0.0</speed>
  <fix>3d</fix>
</trkpt>
<trkpt lat="40.0728419" lon="-105.2305749">
  <ele>1586.18</ele>
  <time>2026-08-27T18:24:30Z</time>
  <course>11.02</course>
  <speed>0.01414213562373095</speed>
  <fix>3d</fix>
</trkpt>
<trkpt lat="40.072842" lon="-105.230575">
  <ele>1586.09</ele>
  <time>2026-08-27T18:24:30Z</time>
  <course>266.03</course>
  <speed>0.0</speed>
  <fix>3d</fix>
</trkpt>
<trkpt lat="40.0728419" lon="-105.2305749">
  <ele>1586.18</ele>
  <time>2026-08-27T18:24:30Z</time>
  <course>11.02</course>
  <speed>0.01414213562373095</speed>
  <fix>3d</fix>
</trkpt>
<trkpt lat="40.072842" lon="-105.230575">
  <ele>1586.09</ele>
  <time>2026-08-27T18:24:30Z</time>
  <course>266.03</course>
  <speed>0.0</speed>
  <fix>3d</fix>
</trkpt>
<trkpt lat="40.0728419" lon="-105.2305749">
  <ele>1586.18</ele>
  <time>2026-08-27T18:24:30Z</time>
  <course>11.02</course>
  <speed>0.01414213562373095</speed>
  <fix>3d</fix>
</trkpt>
<trkpt lat="40.072842" lon="-105.230575">
  <ele>1586.09</ele>
  <time>2026-08-27T18:24:30Z</time>
  <course>266.03</course>
  <speed>0.0</speed>
  <fix>3d</fix>
</trkpt>
<trkpt lat="40.0728419" lon="-105.2305749">
  <ele>1586.18</ele>
  <time>2026-08-27T18:24:30Z</time>
  <course>11.02</course>
  <speed>0.01414213562373095</speed>
  <fix>3d</fix>
</trkpt>
<trkpt lat="40.072842" lon="-105.230575">
  <ele>1586.09</ele>
  <time>2026-08-27T18:24:30Z</time>
  <course>266.03</course>
  <speed>0.0</speed>
  <fix>3d</fix>
</trkpt>
<trkpt lat="40.0728419" lon="-105.2305749">
  <ele>1586.17</ele>
  <time>2026-08-27T18:24:30Z</time>
  <course>11.02</course>
  <speed>0.01414213562373095</speed>
  <fix>3d</fix>
</trkpt>
<trkpt lat="40.072842" lon="-105.230575">
  <ele>1586.09</ele>
  <time>2026-08-27T18:24:30Z</time>
  <course>266.03</course>
  <speed>0.0</speed>
  <fix>3d</fix>
</trkpt>
<trkpt lat="40.0728419" lon="-105.2305749">
  <ele>1586.17</ele>
  <time>2026-08-27T18:24:30Z</time>
  <course>11.02</course>
  <speed>0.01414213562373095</speed>
  <fix>3d</fix>
</trkpt>
<trkpt lat="40.072842" lon="-105.230575">
  <ele>1586.09</ele>
  <time>2026-08-27T18:24:30Z</time>
  <course>266.03</course>
  <speed>0.0</speed>
  <fix>3d</fix>
</trkpt>
<trkpt lat="40.0728419" lon="-105.2305749">
  <ele>1586.17</ele>
  <time>2026-08-27T18:24:30Z</time>
  <course>11.02</course>
  <speed>0.01414213562373095</speed>
  <fix>3d</fix>
</trkpt>
<trkpt lat="40.072842" lon="-105.230575">
  <ele>1586.09</ele>
  <time>2026-08-27T18:24:30Z</time>
  <course>266.03</course>
  <speed>0.0</speed>
  <fix>3d</fix>
</trkpt>
<trkpt lat="40.0728419" lon="-105.2305749">
  <ele>1586.17</ele>
  <time>2026-08-27T18:24:30Z</time>
  <course>11.02</course>
  <speed>0.01414213562373095</speed>
  <fix>3d</fix>
</trkpt>
<trkpt lat="40.072842" lon="-105.230575">
  <ele>1586.09</ele>
  <time>2026-08-27T18:24:30Z</time>
  <course>266.03</course>
  <speed>0.0</speed>
  <fix>3d</fix>
</trkpt>
<trkpt lat="40.0728419" lon="-105.2305749">
  <ele>1586.17</ele>
  <time>2026-08-27T18:24:30Z</time>
  <course>11.02</course>
  <speed>0.01414213562373095</speed>
  <fix>3d</fix>
</trkpt>
<trkpt lat="40.072842" lon="-105.230575">
  <ele>1586.09</ele>
  <time>2026-08-27T18:24:30Z</time>
  <course>266.03</course>
  <speed>0.0</speed>
  <fix>3d</fix>
</trkpt>
<trkpt lat="40.0728419" lon="-105.2305749">
  <ele>1586.17</ele>
  <time>2026-08-27T18:24:30Z</time>
  <course>11.02</course>
  <speed>0.01414213562373095</speed>
  <fix>3d</fix>
</trkpt>
<trkpt lat="40.072842" lon="-105.230575">
  <ele>1586.09</ele>
  <time>2026-08-27T18:24:30Z</time>
  <course>266.03</course>
  <speed>0.0</speed>
  <fix>3d</fix>
</trkpt>
<trkpt lat="40.0728419" lon="-105.2305749">
  <ele>1586.17</ele>
  <time>2026-08-27T18:24:30Z</time>
  <course>11.02</course>
  <speed>0.01414213562373095</speed>
  <fix>3d</fix>
</trkpt>
<trkpt lat="40.072842" lon="-105.230575">
  <ele>1586.09</ele>
  <time>2026-08-27T18:24:30Z</time>
  <course>266.03</course>
  <speed>0.0</speed>
  <fix>3d</fix>
</trkpt>
<trkpt lat="40.0728419" lon="-105.2305749">
  <ele>1586.17</ele>
  <time>2026-08-27T18:24:30Z</time>
  <course>11.02</course>
  <speed>0.01414213562373095</speed>
  <fix>3d</fix>
</trkpt>
<trkpt lat="40.072842" lon="-105.230575">
  <ele>1586.09</ele>
  <time>2026-08-27T18:24:30Z</time>
  <course>266.03</course>
  <speed>0.0</speed>
  <fix>3d</fix>
</trkpt>
<trkpt lat="40.0728419" lon="-105.2305749">
  <ele>1586.16</ele>
  <time>2026-08-27T18:24:30Z</time>
  <course>11.02</course>
  <speed>0.01414213562373095</speed>
  <fix>3d</fix>
</trkpt>
<trkpt lat="40.072842" lon="-105.230575">
  <ele>1586.09</ele>
  <time>2026-08-27T18:24:30Z</time>
  <course>266.03</course>
  <speed>0.0</speed>
  <fix>3d</fix>
</trkpt>
<trkpt lat="40.0728419" lon="-105.2305749">
  <ele>1586.16</ele>
  <time>2026-08-27T18:24:30Z</time>
  <course>11.02</course>
  <speed>0.01414213562373095</speed>
  <fix>3d</fix>
</trkpt>
<trkpt lat="40.072842" lon="-105.230575">
  <ele>1586.09</ele>
  <time>2026-08-27T18:24:30Z</time>
  <course>266.03</course>
  <speed>0.0</speed>
  <fix>3d</fix>
</trkpt>
<trkpt lat="40.0728419" lon="-105.2305749">
  <ele>1586.16</ele>
  <time>2026-08-27T18:24:30Z</time>
  <course>11.03</course>
  <speed>0.01414213562373095</speed>
  <fix>3d</fix>
</trkpt>
<trkpt lat="40.072842" lon="-105.230575">
  <ele>1586.09</ele>
  <time>2026-08-27T18:24:30Z</time>
  <course>266.03</course>
  <speed>0.0</speed>
  <fix>3d</fix>
</trkpt>
<trkpt lat="40.0728419" lon="-105.2305749">
  <ele>1586.16</ele>
  <time>2026-08-27T18:24:30Z</time>
  <course>11.03</course>
  <speed>0.01414213562373095</speed>
  <fix>3d</fix>
</trkpt>
<trkpt lat="40.072842" lon="-105.230575">
  <ele>1586.09</ele>
  <time>2026-08-27T18:24:30Z</time>
  <course>266.03</course>
  <speed>0.0</speed>
  <fix>3d</fix>
</trkpt>
<trkpt lat="40.0728419" lon="-105.2305749">
  <ele>1586.16</ele>
  <time>2026-08-27T18:24:30Z</time>
  <course>11.03</course>
  <speed>0.01414213562373095</speed>
  <fix>3d</fix>
</trkpt>
<trkpt lat="40.072842" lon="-105.230575">
  <ele>1586.09</ele>
  <time>2026-08-27T18:24:30Z</time>
  <course>266.03</course>
  <speed>0.0</speed>
  <fix>3d</fix>
</trkpt>
<trkpt lat="40.0728419" lon="-105.2305749">
  <ele>1586.16</ele>
  <time>2026-08-27T18:24:30Z</time>
  <course>11.03</course>
  <speed>0.01414213562373095</speed>
  <fix>3d</fix>
</trkpt>
<trkpt lat="40.072842" lon="-105.230575">
  <ele>1586.09</ele>
  <time>2026-08-27T18:24:30Z</time>
  <course>266.03</course>
  <speed>0.0</speed>
  <fix>3d</fix>
</trkpt>
<trkpt lat="40.0728419" lon="-105.2305749">
  <ele>1586.16</ele>
  <time>2026-08-27T18:24:30Z</time>
  <course>11.03</course>
  <speed>0.01414213562373095</speed>
  <fix>3d</fix>
</trkpt>
<trkpt lat="40.072842" lon="-105.230575">
  <ele>1586.09</ele>
  <time>2026-08-27T18:24:30Z</time>
  <course>266.03</course>
  <speed>0.0</speed>
  <fix>3d</fix>
</trkpt>
<trkpt lat="40.0728419" lon="-105.2305749">
  <ele>1586.16</ele>
  <time>2026-08-27T18:24:30Z</time>
  <course>11.03</course>
  <speed>0.01414213562373095</speed>
  <fix>3d</fix>
</trkpt>
<trkpt lat="40.072842" lon="-105.230575">
  <ele>1586.09</ele>
  <time>2026-08-27T18:24:30Z</time>
  <course>266.03</course>
  <speed>0.0</speed>
  <fix>3d</fix>
</trkpt>
<trkpt lat="40.0728419" lon="-105.2305749">
  <ele>1586.16</ele>
  <time>2026-08-27T18:24:30Z</time>
  <course>11.03</course>
  <speed>0.01414213562373095</speed>
  <fix>3d</fix>
</trkpt>
<trkpt lat="40.072842" lon="-105.230575">
  <ele>1586.09</ele>
  <time>2026-08-27T18:24:30Z</time>
  <course>266.03</course>
  <speed>0.0</speed>
  <fix>3d</fix>
</trkpt>
<trkpt lat="40.0728419" lon="-105.2305749">
  <ele>1586.16</ele>
  <time>2026-08-27T18:24:30Z</time>
  <course>11.03</course>
  <speed>0.01414213562373095</speed>
  <fix>3d</fix>
</trkpt>
<trkpt lat="40.072842" lon="-105.230575">
  <ele>1586.09</ele>
  <time>2026-08-27T18:24:30Z</time>
  <course>266.03</course>
  <speed>0.0</speed>
  <fix>3d</fix>
</trkpt>
<trkpt lat="40.0728419" lon="-105.2305749">
  <ele>1586.16</ele>
  <time>2026-08-27T18:24:30Z</time>
  <course>11.03</course>
  <speed>0.01414213562373095</speed>
  <fix>3d</fix>
</trkpt>
<trkpt lat="40.072842" lon="-105.230575">
  <ele>1586.09</ele>
  <time>2026-08-27T18:24:30Z</time>
  <course>266.03</course>
  <speed>0.0</speed>
  <fix>3d</fix>
</trkpt>
<trkpt lat="40.0728419" lon="-105.2305749">
  <ele>1586.15</ele>
  <time>2026-08-27T18:24:30Z</time>
  <course>11.03</course>
  <speed>0.022360679774997897</speed>
  <fix>3d</fix>
</trkpt>
<trkpt lat="40.072842" lon="-105.230575">
  <ele>1586.09</ele>
  <time>2026-08-27T18:24:30Z</time>
  <course>266.03</course>
  <speed>0.0</speed>
  <fix>3d</fix>
</trkpt>
<trkpt lat="40.0728419" lon="-105.2305749">
  <ele>1586.15</ele>
  <time>2026-08-27T18:24:30Z</time>
  <course>11.03</course>
  <speed>0.022360679774997897</speed>
  <fix>3d</fix>
</trkpt>
<trkpt lat="40.072842" lon="-105.230575">
  <ele>1586.09</ele>
  <time>2026-08-27T18:24:30Z</time>
  <course>266.03</course>
  <speed>0.0</speed>
  <fix>3d</fix>
</trkpt>
<trkpt lat="40.0728419" lon="-105.2305749">
  <ele>1586.14</ele>
  <time>2026-08-27T18:24:30Z</time>
  <course>11.03</course>
  <speed>0.022360679774997897</speed>
  <fix>3d</fix>
</trkpt>
<trkpt lat="40.072842" lon="-105.230575">
  <ele>1586.09</ele>
  <time>2026-08-27T18:24:30Z</time>
  <course>266.03</course>
  <speed>0.0</speed>
  <fix>3d</fix>
</trkpt>
<trkpt lat="40.0728419" lon="-105.2305749">
  <ele>1586.14</ele>
  <time>2026-08-27T18:24:30Z</time>
  <course>11.03</course>
  <speed>0.022360679774997897</speed>
  <fix>3d</fix>
</trkpt>
<trkpt lat="40.072842" lon="-105.230575">
  <ele>1586.09</ele>
  <time>2026-08-27T18:24:30Z</time>
  <course>266.03</course>
  <speed>0.0</speed>
  <fix>3d</fix>
</trkpt>
<trkpt lat="40.0728419" lon="-105.2305749">
  <ele>1586.14</ele>
  <time>2026-08-27T18:24:30Z</time>
  <course>11.03</course>
  <speed>0.022360679774997897</speed>
  <fix>3d</fix>
</trkpt>
<trkpt lat="40.072842" lon="-105.230575">
  <ele>1586.09</ele>
  <time>2026-08-27T18:24:30Z</time>
  <course>266.03</course>
  <speed>0.0</speed>
  <fix>3d</fix>
</trkpt>
<trkpt lat="40.0728419" lon="-105.2305749">
  <ele>1586.13</ele>
  <time>2026-08-27T18:24:30Z</time>
  <course>11.03</course>
  <speed>0.022360679774997897</speed>
  <fix>3d</fix>
</trkpt>
<trkpt lat="40.072842" lon="-105.230575">
  <ele>1586.09</ele>
  <time>2026-08-27T18:24:30Z</time>
  <course>266.03</course>
  <speed>0.0</speed>
  <fix>3d</fix>
</trkpt>
<trkpt lat="40.0728419" lon="-105.2305749">
  <ele>1586.14</ele>
  <time>2026-08-27T18:24:30Z</time>
  <course>11.03</course>
  <speed>0.022360679774997897</speed>
  <fix>3d</fix>
</trkpt>
<trkpt lat="40.072842" lon="-105.230575">
  <ele>1586.09</ele>
  <time>2026-08-27T18:24:30Z</time>
  <course>266.03</course>
  <speed>0.0</speed>
  <fix>3d</fix>
</trkpt>
<trkpt lat="40.0728419" lon="-105.2305749">
  <ele>1586.14</ele>
  <time>2026-08-27T18:24:30Z</time>
  <course>11.03</course>
  <speed>0.022360679774997897</speed>
  <fix>3d</fix>
</trkpt>
<trkpt lat="40.072842" lon="-105.230575">
  <ele>1586.09</ele>
  <time>2026-08-27T18:24:30Z</time>
  <course>266.03</course>
  <speed>0.0</speed>
  <fix>3d</fix>
</trkpt>
<trkpt lat="40.0728419" lon="-105.2305749">
  <ele>1586.14</ele>
  <time>2026-08-27T18:24:30Z</time>
  <course>11.03</course>
  <speed>0.022360679774997897</speed>
  <fix>3d</fix>
</trkpt>
<trkpt lat="40.072842" lon="-105.230575">
  <ele>1586.09</ele>
  <time>2026-08-27T18:24:30Z</time>
  <course>266.03</course>
  <speed>0.0</speed>
  <fix>3d</fix>
</trkpt>
<trkpt lat="40.0728419" lon="-105.2305749">
  <ele>1586.15</ele>
  <time>2026-08-27T18:24:30Z</time>
  <course>11.03</course>
  <speed>0.01414213562373095</speed>
  <fix>3d</fix>
</trkpt>
<trkpt lat="40.072842" lon="-105.230575">
  <ele>1586.09</ele>
  <time>2026-08-27T18:24:30Z</time>
  <course>266.03</course>
  <speed>0.0</speed>
  <fix>3d</fix>
</trkpt>
<trkpt lat="40.0728419" lon="-105.2305749">
  <ele>1586.15</ele>
  <time>2026-08-27T18:24:30Z</time>
  <course>11.03</course>
  <speed>0.01414213562373095</speed>
  <fix>3d</fix>
</trkpt>
<trkpt lat="40.072842" lon="-105.230575">
  <ele>1586.09</ele>
  <time>2026-08-27T18:24:30Z</time>
  <course>266.03</course>
  <speed>0.0</speed>
  <fix>3d</fix>
</trkpt>
<trkpt lat="40.0728419" lon="-105.2305749">
  <ele>1586.15</ele>
  <time>2026-08-27T18:24:30Z</time>
  <course>11.03</course>
  <speed>0.022360679774997897</speed>
  <fix>3d</fix>
</trkpt>
<trkpt lat="40.072842" lon="-105.230575">
  <ele>1586.09</ele>
  <time>2026-08-27T18:24:30Z</time>
  <course>266.03</course>
  <speed>0.0</speed>
  <fix>3d</fix>
</trkpt>
<trkpt lat="40.0728419" lon="-105.2305749">
  <ele>1586.16</ele>
  <time>2026-08-27T18:24:30Z</time>
  <course>11.03</course>
  <speed>0.022360679774997897</speed>
  <fix>3d</fix>
</trkpt>
<trkpt lat="40.072842" lon="-105.230575">
  <ele>1586.09</ele>
  <time>2026-08-27T18:24:30Z</time>
  <course>266.03</course>
  <speed>0.0</speed>
  <fix>3d</fix>
</trkpt>
<trkpt lat="40.0728419" lon="-105.2305749">
  <ele>1586.16</ele>
  <time>2026-08-27T18:24:30Z</time>
  <course>11.03</course>
  <speed>0.022360679774997897</speed>
  <fix>3d</fix>
</trkpt>
<trkpt lat="40.072842" lon="-105.230575">
  <ele>1586.09</ele>
  <time>2026-08-27T18:24:30Z</time>
  <course>266.03</course>
  <speed>0.0</speed>
  <fix>3d</fix>
</trkpt>
<trkpt lat="40.0728419" lon="-105.2305749">
  <ele>1586.17</ele>
  <time>2026-08-27T18:24:30Z</time>
  <course>11.03</course>
  <speed>0.01414213562373095</speed>
  <fix>3d</fix>
</trkpt>
<trkpt lat="40.072842" lon="-105.230575">
  <ele>1586.09</ele>
  <time>2026-08-27T18:24:30Z</time>
  <course>266.03</course>
  <speed>0.0</speed>
  <fix>3d</fix>
</trkpt>
<trkpt lat="40.0728419" lon="-105.2305749">
  <ele>1586.17</ele>
  <time>2026-08-27T18:24:30Z</time>
  <course>11.03</course>
  <speed>0.022360679774997897</speed>
  <fix>3d</fix>
</trkpt>
<trkpt lat="40.072842" lon="-105.230575">
  <ele>1586.09</ele>
  <time>2026-08-27T18:24:30Z</time>
  <course>266.03</course>
  <speed>0.0</speed>
  <fix>3d</fix>
</trkpt>
<trkpt lat="40.0728419" lon="-105.2305749">
  <ele>1586.17</ele>
  <time>2026-08-27T18:24:30Z</time>
  <course>11.03</course>
  <speed>0.01414213562373095</speed>
  <fix>3d</fix>
</trkpt>
<trkpt lat="40.072842" lon="-105.230575">
  <ele>1586.09</ele>
  <time>2026-08-27T18:24:30Z</time>
  <course>266.03</course>
  <speed>0.0</speed>
  <fix>3d</fix>
</trkpt>
<trkpt lat="40.0728419" lon="-105.2305749">
  <ele>1586.17</ele>
  <time>2026-08-27T18:24:30Z</time>
  <course>11.04</course>
  <speed>0.01414213562373095</speed>
  <fix>3d</fix>
</trkpt>
<trkpt lat="40.072842" lon="-105.230575">
  <ele>1586.09</ele>
  <time>2026-08-27T18:24:30Z</time>
  <course>266.03</course>
  <speed>0.0</speed>
  <fix>3d</fix>
</trkpt>
<trkpt lat="40.0728419" lon="-105.2305749">
  <ele>1586.17</ele>
  <time>2026-08-27T18:24:30Z</time>
  <course>11.04</course>
  <speed>0.01414213562373095</speed>
  <fix>3d</fix>
</trkpt>
<trkpt lat="40.072842" lon="-105.230575">
  <ele>1586.09</ele>
  <time>2026-08-27T18:24:30Z</time>
  <course>266.03</course>
  <speed>0.0</speed>
  <fix>3d</fix>
</trkpt>
<trkpt lat="40.0728419" lon="-105.2305749">
  <ele>1586.17</ele>
  <time>2026-08-27T18:24:30Z</time>
  <course>11.04</course>
  <speed>0.01414213562373095</speed>
  <fix>3d</fix>
</trkpt>
<trkpt lat="40.072842" lon="-105.230575">
  <ele>1586.09</ele>
  <time>2026-08-27T18:24:30Z</time>
  <course>266.03</course>
  <speed>0.0</speed>
  <fix>3d</fix>
</trkpt>
<trkpt lat="40.0728419" lon="-105.2305749">
  <ele>1586.17</ele>
  <time>2026-08-27T18:24:30Z</time>
  <course>11.04</course>
  <speed>0.01414213562373095</speed>
  <fix>3d</fix>
</trkpt>
<trkpt lat="40.072842" lon="-105.230575">
  <ele>1586.09</ele>
  <time>2026-08-27T18:24:30Z</time>
  <course>266.03</course>
  <speed>0.0</speed>
  <fix>3d</fix>
</trkpt>
<trkpt lat="40.0728419" lon="-105.2305749">
  <ele>1586.17</ele>
  <time>2026-08-27T18:24:30Z</time>
  <course>11.04</course>
  <speed>0.01414213562373095</speed>
  <fix>3d</fix>
</trkpt>
<trkpt lat="40.072842" lon="-105.230575">
  <ele>1586.09</ele>
  <time>2026-08-27T18:24:30Z</time>
  <course>266.03</course>
  <speed>0.0</speed>
  <fix>3d</fix>
</trkpt>
<trkpt lat="40.0728419" lon="-105.2305749">
  <ele>1586.17</ele>
  <time>2026-08-27T18:24:30Z</time>
  <course>11.04</course>
  <speed>0.022360679774997897</speed>
  <fix>3d</fix>
</trkpt>
<trkpt lat="40.072842" lon="-105.230575">
  <ele>1586.09</ele>
  <time>2026-08-27T18:24:30Z</time>
  <course>266.03</course>
  <speed>0.0</speed>
  <fix>3d</fix>
</trkpt>
<trkpt lat="40.0728419" lon="-105.2305749">
  <ele>1586.17</ele>
  <time>2026-08-27T18:24:30Z</time>
  <course>11.04</course>
  <speed>0.022360679774997897</speed>
  <fix>3d</fix>
</trkpt>
<trkpt lat="40.072842" lon="-105.230575">
  <ele>1586.09</ele>
  <time>2026-08-27T18:24:30Z</time>
  <course>266.03</course>
  <speed>0.0</speed>
  <fix>3d</fix>
</trkpt>
<trkpt lat="40.0728419" lon="-105.2305749">
  <ele>1586.17</ele>
  <time>2026-08-27T18:24:30Z</time>
  <course>11.04</course>
  <speed>0.022360679774997897</speed>
  <fix>3d</fix>
</trkpt>
<trkpt lat="40.072842" lon="-105.230575">
  <ele>1586.09</ele>
  <time>2026-08-27T18:24:30Z</time>
  <course>266.03</course>
  <speed>0.0</speed>
  <fix>3d</fix>
</trkpt>
<trkpt lat="40.0728419" lon="-105.2305749">
  <ele>1586.17</ele>
  <time>2026-08-27T18:24:30Z</time>
  <course>11.04</course>
  <speed>0.01414213562373095</speed>
  <fix>3d</fix>
</trkpt>
<trkpt lat="40.072842" lon="-105.230575">
  <ele>1586.09</ele>
  <time>2026-08-27T18:24:30Z</time>
  <course>266.03</course>
  <speed>0.0</speed>
  <fix>3d</fix>
</trkpt>
<trkpt lat="40.0728419" lon="-105.2305749">
  <ele>1586.17</ele>
  <time>2026-08-27T18:24:30Z</time>
  <course>11.04</course>
  <speed>0.01414213562373095</speed>
  <fix>3d</fix>
</trkpt>
<trkpt lat="40.072842" lon="-105.230575">
  <ele>1586.09</ele>
  <time>2026-08-27T18:24:30Z</time>
  <course>266.03</course>
  <speed>0.0</speed>
  <fix>3d</fix>
</trkpt>
<trkpt lat="40.0728419" lon="-105.2305749">
  <ele>1586.17</ele>
  <time>2026-08-27T18:24:30Z</time>
  <course>11.04</course>
  <speed>0.01414213562373095</speed>
  <fix>3d</fix>
</trkpt>
<trkpt lat="40.072842" lon="-105.230575">
  <ele>1586.09</ele>
  <time>2026-08-27T18:24:30Z</time>
  <course>266.03</course>
  <speed>0.0</speed>
  <fix>3d</fix>
</trkpt>
<trkpt lat="40.0728419" lon="-105.2305749">
  <ele>1586.18</ele>
  <time>2026-08-27T18:24:30Z</time>
  <course>11.04</course>
  <speed>0.01414213562373095</speed>
  <fix>3d</fix>
</trkpt>
<trkpt lat="40.072842" lon="-105.230575">
  <ele>1586.09</ele>
  <time>2026-08-27T18:24:30Z</time>
  <course>266.03</course>
  <speed>0.0</speed>
  <fix>3d</fix>
</trkpt>
<trkpt lat="40.0728419" lon="-105.2305749">
  <ele>1586.18</ele>
  <time>2026-08-27T18:24:30Z</time>
  <course>11.04</course>
  <speed>0.01414213562373095</speed>
  <fix>3d</fix>
</trkpt>
<trkpt lat="40.072842" lon="-105.230575">
  <ele>1586.09</ele>
  <time>2026-08-27T18:24:30Z</time>
  <course>266.03</course>
  <speed>0.0</speed>
  <fix>3d</fix>
</trkpt>
<trkpt lat="40.0728419" lon="-105.2305749">
  <ele>1586.18</ele>
  <time>2026-08-27T18:24:30Z</time>
  <course>11.04</course>
  <speed>0.01414213562373095</speed>
  <fix>3d</fix>
</trkpt>
<trkpt lat="40.072842" lon="-105.230575">
  <ele>1586.09</ele>
  <time>2026-08-27T18:24:30Z</time>
  <course>266.03</course>
  <speed>0.0</speed>
  <fix>3d</fix>
</trkpt>
<trkpt lat="40.0728419" lon="-105.2305749">
  <ele>1586.17</ele>
  <time>2026-08-27T18:24:30Z</time>
  <course>11.04</course>
  <speed>0.01414213562373095</speed>
  <fix>3d</fix>
</trkpt>
<trkpt lat="40.072842" lon="-105.230575">
  <ele>1586.09</ele>
  <time>2026-08-27T18:24:30Z</time>
  <course>266.03</course>
  <speed>0.0</speed>
  <fix>3d</fix>
</trkpt>
<trkpt lat="40.0728419" lon="-105.2305749">
  <ele>1586.17</ele>
  <time>2026-08-27T18:24:30Z</time>
  <course>11.04</course>
  <speed>0.01414213562373095</speed>
  <fix>3d</fix>
</trkpt>
<trkpt lat="40.072842" lon="-105.230575">
  <ele>1586.09</ele>
  <time>2026-08-27T18:24:30Z</time>
  <course>266.03</course>
  <speed>0.0</speed>
  <fix>3d</fix>
</trkpt>
<trkpt lat="40.0728419" lon="-105.2305749">
  <ele>1586.16</ele>
  <time>2026-08-27T18:24:30Z</time>
  <course>11.04</course>
  <speed>0.01414213562373095</speed>
  <fix>3d</fix>
</trkpt>
<trkpt lat="40.072842" lon="-105.230575">
  <ele>1586.09</ele>
  <time>2026-08-27T18:24:30Z</time>
  <course>266.03</course>
  <speed>0.0</speed>
  <fix>3d</fix>
</trkpt>
<trkpt lat="40.0728419" lon="-105.2305749">
  <ele>1586.16</ele>
  <time>2026-08-27T18:24:30Z</time>
  <course>11.04</course>
  <speed>0.01414213562373095</speed>
  <fix>3d</fix>
</trkpt>
<trkpt lat="40.072842" lon="-105.230575">
  <ele>1586.09</ele>
  <time>2026-08-27T18:24:30Z</time>
  <course>266.03</course>
  <speed>0.0</speed>
  <fix>3d</fix>
</trkpt>
<trkpt lat="40.0728419" lon="-105.2305749">
  <ele>1586.16</ele>
  <time>2026-08-27T18:24:30Z</time>
  <course>11.04</course>
  <speed>0.01414213562373095</speed>
  <fix>3d</fix>
</trkpt>
<trkpt lat="40.072842" lon="-105.230575">
  <ele>1586.09</ele>
  <time>2026-08-27T18:24:30Z</time>
  <course>266.03</course>
  <speed>0.0</speed>
  <fix>3d</fix>
</trkpt>
<trkpt lat="40.0728419" lon="-105.2305749">
  <ele>1586.16</ele>
  <time>2026-08-27T18:24:30Z</time>
  <course>11.04</course>
  <speed>0.01414213562373095</speed>
  <fix>3d</fix>
</trkpt>
<trkpt lat="40.072842" lon="-105.230575">
  <ele>1586.09</ele>
  <time>2026-08-27T18:24:30Z</time>
  <course>266.03</course>
  <speed>0.0</speed>
  <fix>3d</fix>
</trkpt>
<trkpt lat="40.0728419" lon="-105.2305749">
  <ele>1586.16</ele>
  <time>2026-08-27T18:24:30Z</time>
  <course>11.04</course>
  <speed>0.01414213562373095</speed>
  <fix>3d</fix>
</trkpt>
<trkpt lat="40.072842" lon="-105.230575">
  <ele>1586.09</ele>
  <time>2026-08-27T18:24:30Z</time>
  <course>266.03</course>
  <speed>0.0</speed>
  <fix>3d</fix>
</trkpt>
<trkpt lat="40.0728419" lon="-105.2305749">
  <ele>1586.17</ele>
  <time>2026-08-27T18:24:30Z</time>
  <course>11.04</course>
  <speed>0.01414213562373095</speed>
  <fix>3d</fix>
</trkpt>
<trkpt lat="40.072842" lon="-105.230575">
  <ele>1586.09</ele>
  <time>2026-08-27T18:24:30Z</time>
  <course>266.03</course>
  <speed>0.0</speed>
  <fix>3d</fix>
</trkpt>
<trkpt lat="40.0728419" lon="-105.2305749">
  <ele>1586.17</ele>
  <time>2026-08-27T18:24:30Z</time>
  <course>11.04</course>
  <speed>0.01414213562373095</speed>
  <fix>3d</fix>
</trkpt>
<trkpt lat="40.072842" lon="-105.230575">
  <ele>1586.09</ele>
  <time>2026-08-27T18:24:30Z</time>
  <course>266.03</course>
  <speed>0.0</speed>
  <fix>3d</fix>
</trkpt>
<trkpt lat="40.0728419" lon="-105.2305749">
  <ele>1586.17</ele>
  <time>2026-08-27T18:24:30Z</time>
  <course>11.04</course>
  <speed>0.01414213562373095</speed>
  <fix>3d</fix>
</trkpt>
<trkpt lat="40.072842" lon="-105.230575">
  <ele>1586.09</ele>
  <time>2026-08-27T18:24:30Z</time>
  <course>266.03</course>
  <speed>0.0</speed>
  <fix>3d</fix>
</trkpt>
<trkpt lat="40.0728419" lon="-105.2305749">
  <ele>1586.17</ele>
  <time>2026-08-27T18:24:30Z</time>
  <course>11.04</course>
  <speed>0.01414213562373095</speed>
  <fix>3d</fix>
</trkpt>
<trkpt lat="40.072842" lon="-105.230575">
  <ele>1586.09</ele>
  <time>2026-08-27T18:24:30Z</time>
  <course>266.03</course>
  <speed>0.0</speed>
  <fix>3d</fix>
</trkpt>
<trkpt lat="40.0728419" lon="-105.2305749">
  <ele>1586.17</ele>
  <time>2026-08-27T18:24:30Z</time>
  <course>11.04</course>
  <speed>0.01414213562373095</speed>
  <fix>3d</fix>
</trkpt>
<trkpt lat="40.072842" lon="-105.230575">
  <ele>1586.09</ele>
  <time>2026-08-27T18:24:30Z</time>
  <course>266.03</course>
  <speed>0.0</speed>
  <fix>3d</fix>
</trkpt>
<trkpt lat="40.0728419" lon="-105.2305749">
  <ele>1586.17</ele>
  <time>2026-08-27T18:24:30Z</time>
  <course>11.04</course>
  <speed>0.01414213562373095</speed>
  <fix>3d</fix>
</trkpt>
<trkpt lat="40.072842" lon="-105.230575">
  <ele>1586.09</ele>
  <time>2026-08-27T18:24:30Z</time>
  <course>266.03</course>
  <speed>0.0</speed>
  <fix>3d</fix>
</trkpt>
<trkpt lat="40.0728419" lon="-105.2305749">
  <ele>1586.18</ele>
  <time>2026-08-27T18:24:30Z</time>
  <course>11.04</course>
  <speed>0.01414213562373095</speed>
  <fix>3d</fix>
</trkpt>
<trkpt lat="40.072842" lon="-105.230575">
  <ele>1586.09</ele>
  <time>2026-08-27T18:24:30Z</time>
  <course>266.03</course>
  <speed>0.0</speed>
  <fix>3d</fix>
</trkpt>
<trkpt lat="40.0728419" lon="-105.2305749">
  <ele>1586.17</ele>
  <time>2026-08-27T18:24:30Z</time>
  <course>11.05</course>
  <speed>0.01414213562373095</speed>
  <fix>3d</fix>
</trkpt>
<trkpt lat="40.072842" lon="-105.230575">
  <ele>1586.09</ele>
  <time>2026-08-27T18:24:30Z</time>
  <course>266.03</course>
  <speed>0.0</speed>
  <fix>3d</fix>
</trkpt>
<trkpt lat="40.0728419" lon="-105.2305749">
  <ele>1586.17</ele>
  <time>2026-08-27T18:24:30Z</time>
  <course>11.05</course>
  <speed>0.01414213562373095</speed>
  <fix>3d</fix>
</trkpt>
<trkpt lat="40.072842" lon="-105.230575">
  <ele>1586.09</ele>
  <time>2026-08-27T18:24:30Z</time>
  <course>266.03</course>
  <speed>0.0</speed>
  <fix>3d</fix>
</trkpt>
<trkpt lat="40.0728419" lon="-105.2305749">
  <ele>1586.17</ele>
  <time>2026-08-27T18:24:30Z</time>
  <course>11.05</course>
  <speed>0.01414213562373095</speed>
  <fix>3d</fix>
</trkpt>
<trkpt lat="40.072842" lon="-105.230575">
  <ele>1586.09</ele>
  <time>2026-08-27T18:24:30Z</time>
  <course>266.03</course>
  <speed>0.0</speed>
  <fix>3d</fix>
</trkpt>
<trkpt lat="40.0728419" lon="-105.2305749">
  <ele>1586.17</ele>
  <time>2026-08-27T18:24:30Z</time>
  <course>11.05</course>
  <speed>0.01414213562373095</speed>
  <fix>3d</fix>
</trkpt>
<trkpt lat="40.072842" lon="-105.230575">
  <ele>1586.09</ele>
  <time>2026-08-27T18:24:30Z</time>
  <course>266.03</course>
  <speed>0.0</speed>
  <fix>3d</fix>
</trkpt>
<trkpt lat="40.0728419" lon="-105.2305749">
  <ele>1586.17</ele>
  <time>2026-08-27T18:24:30Z</time>
  <course>11.05</course>
  <speed>0.01414213562373095</speed>
  <fix>3d</fix>
</trkpt>
<trkpt lat="40.072842" lon="-105.230575">
  <ele>1586.09</ele>
  <time>2026-08-27T18:24:30Z</time>
  <course>266.03</course>
  <speed>0.0</speed>
  <fix>3d</fix>
</trkpt>
<trkpt lat="40.0728419" lon="-105.2305749">
  <ele>1586.17</ele>
  <time>2026-08-27T18:24:30Z</time>
  <course>11.05</course>
  <speed>0.01414213562373095</speed>
  <fix>3d</fix>
</trkpt>
<trkpt lat="40.072842" lon="-105.230575">
  <ele>1586.09</ele>
  <time>2026-08-27T18:24:30Z</time>
  <course>266.03</course>
  <speed>0.0</speed>
  <fix>3d</fix>
</trkpt>
<trkpt lat="40.0728419" lon="-105.2305749">
  <ele>1586.17</ele>
  <time>2026-08-27T18:24:30Z</time>
  <course>11.05</course>
  <speed>0.01414213562373095</speed>
  <fix>3d</fix>
</trkpt>
<trkpt lat="40.072842" lon="-105.230575">
  <ele>1586.09</ele>
  <time>2026-08-27T18:24:30Z</time>
  <course>266.03</course>
  <speed>0.0</speed>
  <fix>3d</fix>
</trkpt>
<trkpt lat="40.0728419" lon="-105.2305749">
  <ele>1586.17</ele>
  <time>2026-08-27T18:24:30Z</time>
  <course>11.05</course>
  <speed>0.01414213562373095</speed>
  <fix>3d</fix>
</trkpt>
<trkpt lat="40.072842" lon="-105.230575">
  <ele>1586.09</ele>
  <time>2026-08-27T18:24:30Z</time>
  <course>266.03</course>
  <speed>0.0</speed>
  <fix>3d</fix>
</trkpt>
<trkpt lat="40.0728419" lon="-105.2305749">
  <ele>1586.17</ele>
  <time>2026-08-27T18:24:30Z</time>
  <course>11.05</course>
  <speed>0.01414213562373095</speed>
  <fix>3d</fix>
</trkpt>
<trkpt lat="40.072842" lon="-105.230575">
  <ele>1586.09</ele>
  <time>2026-08-27T18:24:30Z</time>
  <course>266.03</course>
  <speed>0.0</speed>
  <fix>3d</fix>
</trkpt>
<trkpt lat="40.0728419" lon="-105.2305749">
  <ele>1586.17</ele>
  <time>2026-08-27T18:24:30Z</time>
  <course>11.05</course>
  <speed>0.01414213562373095</speed>
  <fix>3d</fix>
</trkpt>
<trkpt lat="40.072842" lon="-105.230575">
  <ele>1586.09</ele>
  <time>2026-08-27T18:24:30Z</time>
  <course>266.03</course>
  <speed>0.0</speed>
  <fix>3d</fix>
</trkpt>
<trkpt lat="40.0728419" lon="-105.2305749">
  <ele>1586.17</ele>
  <time>2026-08-27T18:24:30Z</time>
  <course>11.05</course>
  <speed>0.01414213562373095</speed>
  <fix>3d</fix>
</trkpt>
<trkpt lat="40.072842" lon="-105.230575">
  <ele>1586.09</ele>
  <time>2026-08-27T18:24:30Z</time>
  <course>266.03</course>
  <speed>0.0</speed>
  <fix>3d</fix>
</trkpt>
<trkpt lat="40.0728419" lon="-105.2305749">
  <ele>1586.17</ele>
  <time>2026-08-27T18:24:30Z</time>
  <course>11.05</course>
  <speed>0.01414213562373095</speed>
  <fix>3d</fix>
</trkpt>
<trkpt lat="40.072842" lon="-105.230575">
  <ele>1586.09</ele>
  <time>2026-08-27T18:24:30Z</time>
  <course>266.03</course>
  <speed>0.0</speed>
  <fix>3d</fix>
</trkpt>
<trkpt lat="40.0728419" lon="-105.2305749">
  <ele>1586.17</ele>
  <time>2026-08-27T18:24:30Z</time>
  <course>11.05</course>
  <speed>0.01414213562373095</speed>
  <fix>3d</fix>
</trkpt>
<trkpt lat="40.072842" lon="-105.230575">
  <ele>1586.09</ele>
  <time>2026-08-27T18:24:30Z</time>
  <course>266.03</course>
  <speed>0.0</speed>
  <fix>3d</fix>
</trkpt>
<trkpt lat="40.0728419" lon="-105.2305749">
  <ele>1586.17</ele>
  <time>2026-08-27T18:24:30Z</time>
  <course>11.05</course>
  <speed>0.01414213562373095</speed>
  <fix>3d</fix>
</trkpt>
<trkpt lat="40.072842" lon="-105.230575">
  <ele>1586.09</ele>
  <time>2026-08-27T18:24:30Z</time>
  <course>266.03</course>
  <speed>0.0</speed>
  <fix>3d</fix>
</trkpt>
<trkpt lat="40.0728419" lon="-105.2305749">
  <ele>1586.17</ele>
  <time>2026-08-27T18:24:30Z</time>
  <course>11.05</course>
  <speed>0.01414213562373095</speed>
  <fix>3d</fix>
</trkpt>
<trkpt lat="40.072842" lon="-105.230575">
  <ele>1586.09</ele>
  <time>2026-08-27T18:24:30Z</time>
  <course>266.03</course>
  <speed>0.0</speed>
  <fix>3d</fix>
</trkpt>
<trkpt lat="40.0728419" lon="-105.2305749">
  <ele>1586.17</ele>
  <time>2026-08-27T18:24:30Z</time>
  <course>11.05</course>
  <speed>0.01414213562373095</speed>
  <fix>3d</fix>
</trkpt>
<trkpt lat="40.072842" lon="-105.230575">
  <ele>1586.09</ele>
  <time>2026-08-27T18:24:30Z</time>
  <course>266.03</course>
  <speed>0.0</speed>
  <fix>3d</fix>
</trkpt>
<trkpt lat="40.0728419" lon="-105.2305749">
  <ele>1586.17</ele>
  <time>2026-08-27T18:24:30Z</time>
  <course>11.05</course>
  <speed>0.01414213562373095</speed>
  <fix>3d</fix>
</trkpt>
<trkpt lat="40.072842" lon="-105.230575">
  <ele>1586.09</ele>
  <time>2026-08-27T18:24:30Z</time>
  <course>266.03</course>
  <speed>0.0</speed>
  <fix>3d</fix>
</trkpt>
<trkpt lat="40.0728419" lon="-105.2305749">
  <ele>1586.17</ele>
  <time>2026-08-27T18:24:30Z</time>
  <course>11.05</course>
  <speed>0.01414213562373095</speed>
  <fix>3d</fix>
</trkpt>
<trkpt lat="40.072842" lon="-105.230575">
  <ele>1586.09</ele>
  <time>2026-08-27T18:24:30Z</time>
  <course>266.03</course>
  <speed>0.0</speed>
  <fix>3d</fix>
</trkpt>
<trkpt lat="40.0728419" lon="-105.2305749">
  <ele>1586.17</ele>
  <time>2026-08-27T18:24:30Z</time>
  <course>11.05</course>
  <speed>0.01414213562373095</speed>
  <fix>3d</fix>
</trkpt>
<trkpt lat="40.072842" lon="-105.230575">
  <ele>1586.09</ele>
  <time>2026-08-27T18:24:30Z</time>
  <course>266.03</course>
  <speed>0.0</speed>
  <fix>3d</fix>
</trkpt>
<trkpt lat="40.0728419" lon="-105.2305749">
  <ele>1586.17</ele>
  <time>2026-08-27T18:24:30Z</time>
  <course>11.05</course>
  <speed>0.01414213562373095</speed>
  <fix>3d</fix>
</trkpt>
<trkpt lat="40.072842" lon="-105.230575">
  <ele>1586.09</ele>
  <time>2026-08-27T18:24:30Z</time>
  <course>266.03</course>
  <speed>0.0</speed>
  <fix>3d</fix>
</trkpt>
<trkpt lat="40.0728419" lon="-105.2305749">
  <ele>1586.17</ele>
  <time>2026-08-27T18:24:30Z</time>
  <course>11.05</course>
  <speed>0.01414213562373095</speed>
  <fix>3d</fix>
</trkpt>
<trkpt lat="40.072842" lon="-105.230575">
  <ele>1586.09</ele>
  <time>2026-08-27T18:24:30Z</time>
  <course>266.03</course>
  <speed>0.0</speed>
  <fix>3d</fix>
</trkpt>
<trkpt lat="40.0728419" lon="-105.2305749">
  <ele>1586.17</ele>
  <time>2026-08-27T18:24:30Z</time>
  <course>11.05</course>
  <speed>0.01414213562373095</speed>
  <fix>3d</fix>
</trkpt>
<trkpt lat="40.072842" lon="-105.230575">
  <ele>1586.09</ele>
  <time>2026-08-27T18:24:30Z</time>
  <course>266.03</course>
  <speed>0.0</speed>
  <fix>3d</fix>
</trkpt>
<trkpt lat="40.0728419" lon="-105.2305749">
  <ele>1586.18</ele>
  <time>2026-08-27T18:24:30Z</time>
  <course>11.05</course>
  <speed>0.01414213562373095</speed>
  <fix>3d</fix>
</trkpt>
<trkpt lat="40.072842" lon="-105.230575">
  <ele>1586.09</ele>
  <time>2026-08-27T18:24:30Z</time>
  <course>266.03</course>
  <speed>0.0</speed>
  <fix>3d</fix>
</trkpt>
<trkpt lat="40.0728419" lon="-105.2305749">
  <ele>1586.19</ele>
  <time>2026-08-27T18:24:30Z</time>
  <course>11.05</course>
  <speed>0.01414213562373095</speed>
  <fix>3d</fix>
</trkpt>
<trkpt lat="40.072842" lon="-105.230575">
  <ele>1586.09</ele>
  <time>2026-08-27T18:24:30Z</time>
  <course>266.03</course>
  <speed>0.0</speed>
  <fix>3d</fix>
</trkpt>
<trkpt lat="40.0728419" lon="-105.2305749">
  <ele>1586.19</ele>
  <time>2026-08-27T18:24:30Z</time>
  <course>11.05</course>
  <speed>0.01414213562373095</speed>
  <fix>3d</fix>
</trkpt>
<trkpt lat="40.072842" lon="-105.230575">
  <ele>1586.09</ele>
  <time>2026-08-27T18:24:30Z</time>
  <course>266.03</course>
  <speed>0.0</speed>
  <fix>3d</fix>
</trkpt>
<trkpt lat="40.0728419" lon="-105.2305749">
  <ele>1586.19</ele>
  <time>2026-08-27T18:24:30Z</time>
  <course>11.05</course>
  <speed>0.01414213562373095</speed>
  <fix>3d</fix>
</trkpt>
<trkpt lat="40.072842" lon="-105.230575">
  <ele>1586.09</ele>
  <time>2026-08-27T18:24:30Z</time>
  <course>266.03</course>
  <speed>0.0</speed>
  <fix>3d</fix>
</trkpt>
<trkpt lat="40.0728419" lon="-105.2305749">
  <ele>1586.19</ele>
  <time>2026-08-27T18:24:30Z</time>
  <course>11.05</course>
  <speed>0.01414213562373095</speed>
  <fix>3d</fix>
</trkpt>
<trkpt lat="40.072842" lon="-105.230575">
  <ele>1586.09</ele>
  <time>2026-08-27T18:24:30Z</time>
  <course>266.03</course>
  <speed>0.0</speed>
  <fix>3d</fix>
</trkpt>
<trkpt lat="40.0728419" lon="-105.2305749">
  <ele>1586.18</ele>
  <time>2026-08-27T18:24:30Z</time>
  <course>11.05</course>
  <speed>0.01414213562373095</speed>
  <fix>3d</fix>
</trkpt>
<trkpt lat="40.072842" lon="-105.230575">
  <ele>1586.09</ele>
  <time>2026-08-27T18:24:30Z</time>
  <course>266.03</course>
  <speed>0.0</speed>
  <fix>3d</fix>
</trkpt>
<trkpt lat="40.0728419" lon="-105.2305749">
  <ele>1586.18</ele>
  <time>2026-08-27T18:24:30Z</time>
  <course>11.05</course>
  <speed>0.01414213562373095</speed>
  <fix>3d</fix>
</trkpt>
<trkpt lat="40.072842" lon="-105.230575">
  <ele>1586.09</ele>
  <time>2026-08-27T18:24:30Z</time>
  <course>266.03</course>
  <speed>0.0</speed>
  <fix>3d</fix>
</trkpt>
<trkpt lat="40.0728419" lon="-105.2305749">
  <ele>1586.17</ele>
  <time>2026-08-27T18:24:30Z</time>
  <course>11.05</course>
  <speed>0.01414213562373095</speed>
  <fix>3d</fix>
</trkpt>
<trkpt lat="40.072842" lon="-105.230575">
  <ele>1586.09</ele>
  <time>2026-08-27T18:24:30Z</time>
  <course>266.03</course>
  <speed>0.0</speed>
  <fix>3d</fix>
</trkpt>
<trkpt lat="40.0728419" lon="-105.2305749">
  <ele>1586.18</ele>
  <time>2026-08-27T18:24:30Z</time>
  <course>11.05</course>
  <speed>0.01414213562373095</speed>
  <fix>3d</fix>
</trkpt>
<trkpt lat="40.072842" lon="-105.230575">
  <ele>1586.09</ele>
  <time>2026-08-27T18:24:30Z</time>
  <course>266.03</course>
  <speed>0.0</speed>
  <fix>3d</fix>
</trkpt>
<trkpt lat="40.0728419" lon="-105.2305749">
  <ele>1586.18</ele>
  <time>2026-08-27T18:24:30Z</time>
  <course>11.05</course>
  <speed>0.01414213562373095</speed>
  <fix>3d</fix>
</trkpt>
<trkpt lat="40.072842" lon="-105.230575">
  <ele>1586.09</ele>
  <time>2026-08-27T18:24:30Z</time>
  <course>266.03</course>
  <speed>0.0</speed>
  <fix>3d</fix>
</trkpt>
<trkpt lat="40.0728419" lon="-105.2305749">
  <ele>1586.18</ele>
  <time>2026-08-27T18:24:31Z</time>
  <course>11.05</course>
  <speed>0.01414213562373095</speed>
  <fix>3d</fix>
</trkpt>
<trkpt lat="40.072842" lon="-105.230575">
  <ele>1586.09</ele>
  <time>2026-08-27T18:24:31Z</time>
  <course>266.03</course>
  <speed>0.0</speed>
  <fix>3d</fix>
</trkpt>
<trkpt lat="40.0728419" lon="-105.2305749">
  <ele>1586.17</ele>
  <time>2026-08-27T18:24:31Z</time>
  <course>11.05</course>
  <speed>0.01414213562373095</speed>
  <fix>3d</fix>
</trkpt>
<trkpt lat="40.072842" lon="-105.230575">
  <ele>1586.09</ele>
  <time>2026-08-27T18:24:31Z</time>
  <course>266.03</course>
  <speed>0.0</speed>
  <fix>3d</fix>
</trkpt>
<trkpt lat="40.0728419" lon="-105.2305749">
  <ele>1586.17</ele>
  <time>2026-08-27T18:24:31Z</time>
  <course>11.05</course>
  <speed>0.01414213562373095</speed>
  <fix>3d</fix>
</trkpt>
<trkpt lat="40.072842" lon="-105.230575">
  <ele>1586.09</ele>
  <time>2026-08-27T18:24:31Z</time>
  <course>266.03</course>
  <speed>0.0</speed>
  <fix>3d</fix>
</trkpt>
<trkpt lat="40.0728419" lon="-105.2305749">
  <ele>1586.17</ele>
  <time>2026-08-27T18:24:31Z</time>
  <course>11.05</course>
  <speed>0.01414213562373095</speed>
  <fix>3d</fix>
</trkpt>
<trkpt lat="40.072842" lon="-105.230575">
  <ele>1586.09</ele>
  <time>2026-08-27T18:24:31Z</time>
  <course>266.03</course>
  <speed>0.0</speed>
  <fix>3d</fix>
</trkpt>
<trkpt lat="40.0728419" lon="-105.2305749">
  <ele>1586.17</ele>
  <time>2026-08-27T18:24:31Z</time>
  <course>11.05</course>
  <speed>0.01414213562373095</speed>
  <fix>3d</fix>
</trkpt>
<trkpt lat="40.072842" lon="-105.230575">
  <ele>1586.09</ele>
  <time>2026-08-27T18:24:31Z</time>
  <course>266.03</course>
  <speed>0.0</speed>
  <fix>3d</fix>
</trkpt>
<trkpt lat="40.0728419" lon="-105.2305749">
  <ele>1586.18</ele>
  <time>2026-08-27T18:24:31Z</time>
  <course>11.05</course>
  <speed>0.01414213562373095</speed>
  <fix>3d</fix>
</trkpt>
<trkpt lat="40.072842" lon="-105.230575">
  <ele>1586.09</ele>
  <time>2026-08-27T18:24:31Z</time>
  <course>266.03</course>
  <speed>0.0</speed>
  <fix>3d</fix>
</trkpt>
<trkpt lat="40.0728419" lon="-105.2305749">
  <ele>1586.18</ele>
  <time>2026-08-27T18:24:31Z</time>
  <course>11.05</course>
  <speed>0.01414213562373095</speed>
  <fix>3d</fix>
</trkpt>
<trkpt lat="40.072842" lon="-105.230575">
  <ele>1586.09</ele>
  <time>2026-08-27T18:24:31Z</time>
  <course>266.03</course>
  <speed>0.0</speed>
  <fix>3d</fix>
</trkpt>
<trkpt lat="40.0728419" lon="-105.2305749">
  <ele>1586.18</ele>
  <time>2026-08-27T18:24:31Z</time>
  <course>11.05</course>
  <speed>0.01414213562373095</speed>
  <fix>3d</fix>
</trkpt>
<trkpt lat="40.072842" lon="-105.230575">
  <ele>1586.09</ele>
  <time>2026-08-27T18:24:31Z</time>
  <course>266.03</course>
  <speed>0.0</speed>
  <fix>3d</fix>
</trkpt>
<trkpt lat="40.0728419" lon="-105.2305749">
  <ele>1586.18</ele>
  <time>2026-08-27T18:24:31Z</time>
  <course>11.06</course>
  <speed>0.01414213562373095</speed>
  <fix>3d</fix>
</trkpt>
<trkpt lat="40.072842" lon="-105.230575">
  <ele>1586.09</ele>
  <time>2026-08-27T18:24:31Z</time>
  <course>266.03</course>
  <speed>0.0</speed>
  <fix>3d</fix>
</trkpt>
<trkpt lat="40.0728419" lon="-105.2305749">
  <ele>1586.17</ele>
  <time>2026-08-27T18:24:31Z</time>
  <course>11.06</course>
  <speed>0.01414213562373095</speed>
  <fix>3d</fix>
</trkpt>
<trkpt lat="40.072842" lon="-105.230575">
  <ele>1586.09</ele>
  <time>2026-08-27T18:24:31Z</time>
  <course>266.03</course>
  <speed>0.0</speed>
  <fix>3d</fix>
</trkpt>
<trkpt lat="40.0728419" lon="-105.2305749">
  <ele>1586.17</ele>
  <time>2026-08-27T18:24:31Z</time>
  <course>11.06</course>
  <speed>0.01414213562373095</speed>
  <fix>3d</fix>
</trkpt>
<trkpt lat="40.072842" lon="-105.230575">
  <ele>1586.09</ele>
  <time>2026-08-27T18:24:31Z</time>
  <course>266.03</course>
  <speed>0.0</speed>
  <fix>3d</fix>
</trkpt>
<trkpt lat="40.0728419" lon="-105.2305749">
  <ele>1586.17</ele>
  <time>2026-08-27T18:24:31Z</time>
  <course>11.06</course>
  <speed>0.01414213562373095</speed>
  <fix>3d</fix>
</trkpt>
<trkpt lat="40.072842" lon="-105.230575">
  <ele>1586.09</ele>
  <time>2026-08-27T18:24:31Z</time>
  <course>266.03</course>
  <speed>0.0</speed>
  <fix>3d</fix>
</trkpt>
<trkpt lat="40.0728419" lon="-105.2305749">
  <ele>1586.17</ele>
  <time>2026-08-27T18:24:31Z</time>
  <course>11.06</course>
  <speed>0.01414213562373095</speed>
  <fix>3d</fix>
</trkpt>
<trkpt lat="40.072842" lon="-105.230575">
  <ele>1586.09</ele>
  <time>2026-08-27T18:24:31Z</time>
  <course>266.03</course>
  <speed>0.0</speed>
  <fix>3d</fix>
</trkpt>
<trkpt lat="40.0728419" lon="-105.2305749">
  <ele>1586.16</ele>
  <time>2026-08-27T18:24:31Z</time>
  <course>11.06</course>
  <speed>0.01414213562373095</speed>
  <fix>3d</fix>
</trkpt>
<trkpt lat="40.072842" lon="-105.230575">
  <ele>1586.09</ele>
  <time>2026-08-27T18:24:31Z</time>
  <course>266.03</course>
  <speed>0.0</speed>
  <fix>3d</fix>
</trkpt>
<trkpt lat="40.0728419" lon="-105.2305749">
  <ele>1586.16</ele>
  <time>2026-08-27T18:24:31Z</time>
  <course>11.06</course>
  <speed>0.01414213562373095</speed>
  <fix>3d</fix>
</trkpt>
<trkpt lat="40.072842" lon="-105.230575">
  <ele>1586.09</ele>
  <time>2026-08-27T18:24:31Z</time>
  <course>266.03</course>
  <speed>0.0</speed>
  <fix>3d</fix>
</trkpt>
<trkpt lat="40.0728419" lon="-105.2305749">
  <ele>1586.17</ele>
  <time>2026-08-27T18:24:31Z</time>
  <course>11.06</course>
  <speed>0.01414213562373095</speed>
  <fix>3d</fix>
</trkpt>
<trkpt lat="40.072842" lon="-105.230575">
  <ele>1586.09</ele>
  <time>2026-08-27T18:24:31Z</time>
  <course>266.03</course>
  <speed>0.0</speed>
  <fix>3d</fix>
</trkpt>
<trkpt lat="40.0728419" lon="-105.2305749">
  <ele>1586.16</ele>
  <time>2026-08-27T18:24:31Z</time>
  <course>11.06</course>
  <speed>0.01414213562373095</speed>
  <fix>3d</fix>
</trkpt>
<trkpt lat="40.072842" lon="-105.230575">
  <ele>1586.09</ele>
  <time>2026-08-27T18:24:31Z</time>
  <course>266.03</course>
  <speed>0.0</speed>
  <fix>3d</fix>
</trkpt>
<trkpt lat="40.0728419" lon="-105.2305749">
  <ele>1586.17</ele>
  <time>2026-08-27T18:24:31Z</time>
  <course>11.06</course>
  <speed>0.01414213562373095</speed>
  <fix>3d</fix>
</trkpt>
<trkpt lat="40.072842" lon="-105.230575">
  <ele>1586.09</ele>
  <time>2026-08-27T18:24:31Z</time>
  <course>266.03</course>
  <speed>0.0</speed>
  <fix>3d</fix>
</trkpt>
<trkpt lat="40.0728419" lon="-105.2305749">
  <ele>1586.17</ele>
  <time>2026-08-27T18:24:31Z</time>
  <course>11.06</course>
  <speed>0.01414213562373095</speed>
  <fix>3d</fix>
</trkpt>
<trkpt lat="40.072842" lon="-105.230575">
  <ele>1586.09</ele>
  <time>2026-08-27T18:24:31Z</time>
  <course>266.03</course>
  <speed>0.0</speed>
  <fix>3d</fix>
</trkpt>
<trkpt lat="40.0728419" lon="-105.2305749">
  <ele>1586.18</ele>
  <time>2026-08-27T18:24:31Z</time>
  <course>11.06</course>
  <speed>0.01414213562373095</speed>
  <fix>3d</fix>
</trkpt>
<trkpt lat="40.072842" lon="-105.230575">
  <ele>1586.09</ele>
  <time>2026-08-27T18:24:31Z</time>
  <course>266.03</course>
  <speed>0.0</speed>
  <fix>3d</fix>
</trkpt>
<trkpt lat="40.0728419" lon="-105.2305749">
  <ele>1586.18</ele>
  <time>2026-08-27T18:24:31Z</time>
  <course>11.06</course>
  <speed>0.01414213562373095</speed>
  <fix>3d</fix>
</trkpt>
<trkpt lat="40.072842" lon="-105.230575">
  <ele>1586.09</ele>
  <time>2026-08-27T18:24:31Z</time>
  <course>266.03</course>
  <speed>0.0</speed>
  <fix>3d</fix>
</trkpt>
<trkpt lat="40.0728419" lon="-105.2305749">
  <ele>1586.19</ele>
  <time>2026-08-27T18:24:31Z</time>
  <course>11.06</course>
  <speed>0.01414213562373095</speed>
  <fix>3d</fix>
</trkpt>
<trkpt lat="40.072842" lon="-105.230575">
  <ele>1586.09</ele>
  <time>2026-08-27T18:24:31Z</time>
  <course>266.03</course>
  <speed>0.0</speed>
  <fix>3d</fix>
</trkpt>
<trkpt lat="40.0728419" lon="-105.2305749">
  <ele>1586.19</ele>
  <time>2026-08-27T18:24:31Z</time>
  <course>11.06</course>
  <speed>0.01414213562373095</speed>
  <fix>3d</fix>
</trkpt>
<trkpt lat="40.072842" lon="-105.230575">
  <ele>1586.09</ele>
  <time>2026-08-27T18:24:31Z</time>
  <course>266.03</course>
  <speed>0.0</speed>
  <fix>3d</fix>
</trkpt>
<trkpt lat="40.0728419" lon="-105.2305749">
  <ele>1586.2</ele>
  <time>2026-08-27T18:24:31Z</time>
  <course>11.06</course>
  <speed>0.01414213562373095</speed>
  <fix>3d</fix>
</trkpt>
<trkpt lat="40.072842" lon="-105.230575">
  <ele>1586.09</ele>
  <time>2026-08-27T18:24:31Z</time>
  <course>266.03</course>
  <speed>0.0</speed>
  <fix>3d</fix>
</trkpt>
<trkpt lat="40.0728419" lon="-105.2305749">
  <ele>1586.2</ele>
  <time>2026-08-27T18:24:31Z</time>
  <course>11.06</course>
  <speed>0.01414213562373095</speed>
  <fix>3d</fix>
</trkpt>
<trkpt lat="40.072842" lon="-105.230575">
  <ele>1586.09</ele>
  <time>2026-08-27T18:24:31Z</time>
  <course>266.03</course>
  <speed>0.0</speed>
  <fix>3d</fix>
</trkpt>
<trkpt lat="40.0728419" lon="-105.2305749">
  <ele>1586.2</ele>
  <time>2026-08-27T18:24:31Z</time>
  <course>11.06</course>
  <speed>0.01414213562373095</speed>
  <fix>3d</fix>
</trkpt>
<trkpt lat="40.072842" lon="-105.230575">
  <ele>1586.09</ele>
  <time>2026-08-27T18:24:31Z</time>
  <course>266.03</course>
  <speed>0.0</speed>
  <fix>3d</fix>
</trkpt>
<trkpt lat="40.0728419" lon="-105.2305749">
  <ele>1586.2</ele>
  <time>2026-08-27T18:24:31Z</time>
  <course>11.06</course>
  <speed>0.01414213562373095</speed>
  <fix>3d</fix>
</trkpt>
<trkpt lat="40.072842" lon="-105.230575">
  <ele>1586.09</ele>
  <time>2026-08-27T18:24:31Z</time>
  <course>266.03</course>
  <speed>0.0</speed>
  <fix>3d</fix>
</trkpt>
<trkpt lat="40.0728419" lon="-105.2305749">
  <ele>1586.2</ele>
  <time>2026-08-27T18:24:31Z</time>
  <course>11.06</course>
  <speed>0.01414213562373095</speed>
  <fix>3d</fix>
</trkpt>
<trkpt lat="40.072842" lon="-105.230575">
  <ele>1586.09</ele>
  <time>2026-08-27T18:24:31Z</time>
  <course>266.03</course>
  <speed>0.0</speed>
  <fix>3d</fix>
</trkpt>
<trkpt lat="40.0728419" lon="-105.2305749">
  <ele>1586.2</ele>
  <time>2026-08-27T18:24:31Z</time>
  <course>11.06</course>
  <speed>0.01414213562373095</speed>
  <fix>3d</fix>
</trkpt>
<trkpt lat="40.072842" lon="-105.230575">
  <ele>1586.09</ele>
  <time>2026-08-27T18:24:31Z</time>
  <course>266.03</course>
  <speed>0.0</speed>
  <fix>3d</fix>
</trkpt>
<trkpt lat="40.0728419" lon="-105.2305749">
  <ele>1586.19</ele>
  <time>2026-08-27T18:24:31Z</time>
  <course>11.06</course>
  <speed>0.01414213562373095</speed>
  <fix>3d</fix>
</trkpt>
<trkpt lat="40.072842" lon="-105.230575">
  <ele>1586.09</ele>
  <time>2026-08-27T18:24:31Z</time>
  <course>266.03</course>
  <speed>0.0</speed>
  <fix>3d</fix>
</trkpt>
<trkpt lat="40.0728419" lon="-105.2305749">
  <ele>1586.19</ele>
  <time>2026-08-27T18:24:31Z</time>
  <course>11.06</course>
  <speed>0.01414213562373095</speed>
  <fix>3d</fix>
</trkpt>
<trkpt lat="40.072842" lon="-105.230575">
  <ele>1586.09</ele>
  <time>2026-08-27T18:24:31Z</time>
  <course>266.03</course>
  <speed>0.0</speed>
  <fix>3d</fix>
</trkpt>
<trkpt lat="40.0728419" lon="-105.2305749">
  <ele>1586.19</ele>
  <time>2026-08-27T18:24:31Z</time>
  <course>11.06</course>
  <speed>0.01414213562373095</speed>
  <fix>3d</fix>
</trkpt>
<trkpt lat="40.072842" lon="-105.230575">
  <ele>1586.09</ele>
  <time>2026-08-27T18:24:31Z</time>
  <course>266.03</course>
  <speed>0.0</speed>
  <fix>3d</fix>
</trkpt>
<trkpt lat="40.0728419" lon="-105.2305749">
  <ele>1586.18</ele>
  <time>2026-08-27T18:24:31Z</time>
  <course>11.06</course>
  <speed>0.01414213562373095</speed>
  <fix>3d</fix>
</trkpt>
<trkpt lat="40.072842" lon="-105.230575">
  <ele>1586.09</ele>
  <time>2026-08-27T18:24:31Z</time>
  <course>266.03</course>
  <speed>0.0</speed>
  <fix>3d</fix>
</trkpt>
<trkpt lat="40.0728419" lon="-105.2305749">
  <ele>1586.18</ele>
  <time>2026-08-27T18:24:31Z</time>
  <course>11.06</course>
  <speed>0.01414213562373095</speed>
  <fix>3d</fix>
</trkpt>
<trkpt lat="40.072842" lon="-105.230575">
  <ele>1586.09</ele>
  <time>2026-08-27T18:24:31Z</time>
  <course>266.03</course>
  <speed>0.0</speed>
  <fix>3d</fix>
</trkpt>
<trkpt lat="40.0728419" lon="-105.2305749">
  <ele>1586.18</ele>
  <time>2026-08-27T18:24:31Z</time>
  <course>11.06</course>
  <speed>0.01414213562373095</speed>
  <fix>3d</fix>
</trkpt>
<trkpt lat="40.072842" lon="-105.230575">
  <ele>1586.09</ele>
  <time>2026-08-27T18:24:31Z</time>
  <course>266.03</course>
  <speed>0.0</speed>
  <fix>3d</fix>
</trkpt>
<trkpt lat="40.0728419" lon="-105.2305749">
  <ele>1586.18</ele>
  <time>2026-08-27T18:24:31Z</time>
  <course>11.06</course>
  <speed>0.01414213562373095</speed>
  <fix>3d</fix>
</trkpt>
<trkpt lat="40.072842" lon="-105.230575">
  <ele>1586.09</ele>
  <time>2026-08-27T18:24:31Z</time>
  <course>266.03</course>
  <speed>0.0</speed>
  <fix>3d</fix>
</trkpt>
<trkpt lat="40.0728419" lon="-105.2305749">
  <ele>1586.18</ele>
  <time>2026-08-27T18:24:31Z</time>
  <course>11.06</course>
  <speed>0.01414213562373095</speed>
  <fix>3d</fix>
</trkpt>
<trkpt lat="40.072842" lon="-105.230575">
  <ele>1586.09</ele>
  <time>2026-08-27T18:24:31Z</time>
  <course>266.03</course>
  <speed>0.0</speed>
  <fix>3d</fix>
</trkpt>
<trkpt lat="40.0728419" lon="-105.2305749">
  <ele>1586.18</ele>
  <time>2026-08-27T18:24:31Z</time>
  <course>11.06</course>
  <speed>0.01414213562373095</speed>
  <fix>3d</fix>
</trkpt>
<trkpt lat="40.072842" lon="-105.230575">
  <ele>1586.09</ele>
  <time>2026-08-27T18:24:31Z</time>
  <course>266.03</course>
  <speed>0.0</speed>
  <fix>3d</fix>
</trkpt>
<trkpt lat="40.0728419" lon="-105.2305749">
  <ele>1586.18</ele>
  <time>2026-08-27T18:24:31Z</time>
  <course>11.06</course>
  <speed>0.01414213562373095</speed>
  <fix>3d</fix>
</trkpt>
<trkpt lat="40.072842" lon="-105.230575">
  <ele>1586.09</ele>
  <time>2026-08-27T18:24:31Z</time>
  <course>266.03</course>
  <speed>0.0</speed>
  <fix>3d</fix>
</trkpt>
<trkpt lat="40.0728419" lon="-105.2305749">
  <ele>1586.18</ele>
  <time>2026-08-27T18:24:31Z</time>
  <course>11.06</course>
  <speed>0.01414213562373095</speed>
  <fix>3d</fix>
</trkpt>
<trkpt lat="40.072842" lon="-105.230575">
  <ele>1586.09</ele>
  <time>2026-08-27T18:24:31Z</time>
  <course>266.03</course>
  <speed>0.0</speed>
  <fix>3d</fix>
</trkpt>
<trkpt lat="40.0728419" lon="-105.2305749">
  <ele>1586.18</ele>
  <time>2026-08-27T18:24:31Z</time>
  <course>11.06</course>
  <speed>0.01414213562373095</speed>
  <fix>3d</fix>
</trkpt>
<trkpt lat="40.072842" lon="-105.230575">
  <ele>1586.09</ele>
  <time>2026-08-27T18:24:31Z</time>
  <course>266.03</course>
  <speed>0.0</speed>
  <fix>3d</fix>
</trkpt>
<trkpt lat="40.0728419" lon="-105.2305749">
  <ele>1586.18</ele>
  <time>2026-08-27T18:24:31Z</time>
  <course>11.06</course>
  <speed>0.01414213562373095</speed>
  <fix>3d</fix>
</trkpt>
<trkpt lat="40.072842" lon="-105.230575">
  <ele>1586.09</ele>
  <time>2026-08-27T18:24:31Z</time>
  <course>266.03</course>
  <speed>0.0</speed>
  <fix>3d</fix>
</trkpt>
<trkpt lat="40.0728419" lon="-105.2305749">
  <ele>1586.18</ele>
  <time>2026-08-27T18:24:31Z</time>
  <course>11.06</course>
  <speed>0.01414213562373095</speed>
  <fix>3d</fix>
</trkpt>
<trkpt lat="40.072842" lon="-105.230575">
  <ele>1586.09</ele>
  <time>2026-08-27T18:24:31Z</time>
  <course>266.03</course>
  <speed>0.0</speed>
  <fix>3d</fix>
</trkpt>
<trkpt lat="40.0728419" lon="-105.2305749">
  <ele>1586.18</ele>
  <time>2026-08-27T18:24:31Z</time>
  <course>11.06</course>
  <speed>0.01414213562373095</speed>
  <fix>3d</fix>
</trkpt>
<trkpt lat="40.072842" lon="-105.230575">
  <ele>1586.09</ele>
  <time>2026-08-27T18:24:31Z</time>
  <course>266.03</course>
  <speed>0.0</speed>
  <fix>3d</fix>
</trkpt>
<trkpt lat="40.0728419" lon="-105.2305749">
  <ele>1586.18</ele>
  <time>2026-08-27T18:24:31Z</time>
  <course>11.06</course>
  <speed>0.01414213562373095</speed>
  <fix>3d</fix>
</trkpt>
<trkpt lat="40.072842" lon="-105.230575">
  <ele>1586.09</ele>
  <time>2026-08-27T18:24:31Z</time>
  <course>266.03</course>
  <speed>0.0</speed>
  <fix>3d</fix>
</trkpt>
<trkpt lat="40.0728419" lon="-105.2305749">
  <ele>1586.18</ele>
  <time>2026-08-27T18:24:31Z</time>
  <course>11.06</course>
  <speed>0.01414213562373095</speed>
  <fix>3d</fix>
</trkpt>
<trkpt lat="40.072842" lon="-105.230575">
  <ele>1586.09</ele>
  <time>2026-08-27T18:24:31Z</time>
  <course>266.03</course>
  <speed>0.0</speed>
  <fix>3d</fix>
</trkpt>
<trkpt lat="40.0728419" lon="-105.2305749">
  <ele>1586.18</ele>
  <time>2026-08-27T18:24:31Z</time>
  <course>11.06</course>
  <speed>0.01414213562373095</speed>
  <fix>3d</fix>
</trkpt>
<trkpt lat="40.072842" lon="-105.230575">
  <ele>1586.09</ele>
  <time>2026-08-27T18:24:31Z</time>
  <course>266.03</course>
  <speed>0.0</speed>
  <fix>3d</fix>
</trkpt>
<trkpt lat="40.0728419" lon="-105.2305749">
  <ele>1586.18</ele>
  <time>2026-08-27T18:24:31Z</time>
  <course>11.06</course>
  <speed>0.01414213562373095</speed>
  <fix>3d</fix>
</trkpt>
<trkpt lat="40.072842" lon="-105.230575">
  <ele>1586.09</ele>
  <time>2026-08-27T18:24:31Z</time>
  <course>266.03</course>
  <speed>0.0</speed>
  <fix>3d</fix>
</trkpt>
<trkpt lat="40.0728419" lon="-105.2305749">
  <ele>1586.18</ele>
  <time>2026-08-27T18:24:31Z</time>
  <course>11.06</course>
  <speed>0.01414213562373095</speed>
  <fix>3d</fix>
</trkpt>
<trkpt lat="40.072842" lon="-105.230575">
  <ele>1586.09</ele>
  <time>2026-08-27T18:24:31Z</time>
  <course>266.03</course>
  <speed>0.0</speed>
  <fix>3d</fix>
</trkpt>
<trkpt lat="40.0728419" lon="-105.2305749">
  <ele>1586.17</ele>
  <time>2026-08-27T18:24:31Z</time>
  <course>11.06</course>
  <speed>0.01414213562373095</speed>
  <fix>3d</fix>
</trkpt>
<trkpt lat="40.072842" lon="-105.230575">
  <ele>1586.09</ele>
  <time>2026-08-27T18:24:31Z</time>
  <course>266.03</course>
  <speed>0.0</speed>
  <fix>3d</fix>
</trkpt>
<trkpt lat="40.0728419" lon="-105.2305749">
  <ele>1586.17</ele>
  <time>2026-08-27T18:24:31Z</time>
  <course>11.06</course>
  <speed>0.01414213562373095</speed>
  <fix>3d</fix>
</trkpt>
<trkpt lat="40.072842" lon="-105.230575">
  <ele>1586.09</ele>
  <time>2026-08-27T18:24:31Z</time>
  <course>266.03</course>
  <speed>0.0</speed>
  <fix>3d</fix>
</trkpt>
<trkpt lat="40.0728419" lon="-105.2305749">
  <ele>1586.17</ele>
  <time>2026-08-27T18:24:31Z</time>
  <course>11.06</course>
  <speed>0.01414213562373095</speed>
  <fix>3d</fix>
</trkpt>
<trkpt lat="40.072842" lon="-105.230575">
  <ele>1586.09</ele>
  <time>2026-08-27T18:24:31Z</time>
  <course>266.03</course>
  <speed>0.0</speed>
  <fix>3d</fix>
</trkpt>
<trkpt lat="40.0728419" lon="-105.2305749">
  <ele>1586.16</ele>
  <time>2026-08-27T18:24:31Z</time>
  <course>11.06</course>
  <speed>0.01414213562373095</speed>
  <fix>3d</fix>
</trkpt>
<trkpt lat="40.072842" lon="-105.230575">
  <ele>1586.09</ele>
  <time>2026-08-27T18:24:31Z</time>
  <course>266.03</course>
  <speed>0.0</speed>
  <fix>3d</fix>
</trkpt>
<trkpt lat="40.0728419" lon="-105.2305749">
  <ele>1586.16</ele>
  <time>2026-08-27T18:24:31Z</time>
  <course>11.06</course>
  <speed>0.01414213562373095</speed>
  <fix>3d</fix>
</trkpt>
<trkpt lat="40.072842" lon="-105.230575">
  <ele>1586.09</ele>
  <time>2026-08-27T18:24:31Z</time>
  <course>266.03</course>
  <speed>0.0</speed>
  <fix>3d</fix>
</trkpt>
<trkpt lat="40.0728419" lon="-105.2305749">
  <ele>1586.16</ele>
  <time>2026-08-27T18:24:31Z</time>
  <course>11.06</course>
  <speed>0.01414213562373095</speed>
  <fix>3d</fix>
</trkpt>
<trkpt lat="40.072842" lon="-105.230575">
  <ele>1586.09</ele>
  <time>2026-08-27T18:24:31Z</time>
  <course>266.03</course>
  <speed>0.0</speed>
  <fix>3d</fix>
</trkpt>
<trkpt lat="40.0728419" lon="-105.2305749">
  <ele>1586.16</ele>
  <time>2026-08-27T18:24:31Z</time>
  <course>11.06</course>
  <speed>0.01414213562373095</speed>
  <fix>3d</fix>
</trkpt>
<trkpt lat="40.072842" lon="-105.230575">
  <ele>1586.09</ele>
  <time>2026-08-27T18:24:31Z</time>
  <course>266.03</course>
  <speed>0.0</speed>
  <fix>3d</fix>
</trkpt>
<trkpt lat="40.0728419" lon="-105.2305749">
  <ele>1586.15</ele>
  <time>2026-08-27T18:24:31Z</time>
  <course>11.06</course>
  <speed>0.01414213562373095</speed>
  <fix>3d</fix>
</trkpt>
<trkpt lat="40.072842" lon="-105.230575">
  <ele>1586.09</ele>
  <time>2026-08-27T18:24:31Z</time>
  <course>266.03</course>
  <speed>0.0</speed>
  <fix>3d</fix>
</trkpt>
<trkpt lat="40.0728419" lon="-105.2305749">
  <ele>1586.15</ele>
  <time>2026-08-27T18:24:31Z</time>
  <course>11.06</course>
  <speed>0.01414213562373095</speed>
  <fix>3d</fix>
</trkpt>
<trkpt lat="40.072842" lon="-105.230575">
  <ele>1586.09</ele>
  <time>2026-08-27T18:24:31Z</time>
  <course>282.0</course>
  <speed>0.0</speed>
  <fix>3d</fix>
</trkpt>
<trkpt lat="40.0728419" lon="-105.2305749">
  <ele>1586.15</ele>
  <time>2026-08-27T18:24:31Z</time>
  <course>11.06</course>
  <speed>0.01414213562373095</speed>
  <fix>3d</fix>
</trkpt>
<trkpt lat="40.072842" lon="-105.230575">
  <ele>1586.09</ele>
  <time>2026-08-27T18:24:31Z</time>
  <course>275.64</course>
  <speed>0.0</speed>
  <fix>3d</fix>
</trkpt>
<trkpt lat="40.0728419" lon="-105.2305749">
  <ele>1586.15</ele>
  <time>2026-08-27T18:24:31Z</time>
  <course>11.06</course>
  <speed>0.01414213562373095</speed>
  <fix>3d</fix>
</trkpt>
<trkpt lat="40.072842" lon="-105.230575">
  <ele>1586.09</ele>
  <time>2026-08-27T18:24:31Z</time>
  <course>260.45</course>
  <speed>0.0</speed>
  <fix>3d</fix>
</trkpt>
<trkpt lat="40.0728419" lon="-105.2305749">
  <ele>1586.15</ele>
  <time>2026-08-27T18:24:31Z</time>
  <course>11.06</course>
  <speed>0.01</speed>
  <fix>3d</fix>
</trkpt>
<trkpt lat="40.072842" lon="-105.230575">
  <ele>1586.09</ele>
  <time>2026-08-27T18:24:31Z</time>
  <course>265.46</course>
  <speed>0.0</speed>
  <fix>3d</fix>
</trkpt>
<trkpt lat="40.0728419" lon="-105.2305749">
  <ele>1586.15</ele>
  <time>2026-08-27T18:24:31Z</time>
  <course>11.06</course>
  <speed>0.0</speed>
  <fix>3d</fix>
</trkpt>
<trkpt lat="40.072842" lon="-105.230575">
  <ele>1586.09</ele>
  <time>2026-08-27T18:24:31Z</time>
  <course>266.96</course>
  <speed>0.0</speed>
  <fix>3d</fix>
</trkpt>
<trkpt lat="40.0728419" lon="-105.2305749">
  <ele>1586.15</ele>
  <time>2026-08-27T18:24:31Z</time>
  <course>11.06</course>
  <speed>0.0</speed>
  <fix>3d</fix>
</trkpt>
<trkpt lat="40.072842" lon="-105.230575">
  <ele>1586.09</ele>
  <time>2026-08-27T18:24:31Z</time>
  <course>266.0</course>
  <speed>0.0</speed>
  <fix>3d</fix>
</trkpt>
<trkpt lat="40.0728419" lon="-105.2305749">
  <ele>1586.15</ele>
  <time>2026-08-27T18:24:31Z</time>
  <course>11.06</course>
  <speed>0.0</speed>
  <fix>3d</fix>
</trkpt>
<trkpt lat="40.072842" lon="-105.230575">
  <ele>1586.09</ele>
  <time>2026-08-27T18:24:31Z</time>
  <course>265.92</course>
  <speed>0.0</speed>
  <fix>3d</fix>
</trkpt>
<trkpt lat="40.0728419" lon="-105.2305749">
  <ele>1586.14</ele>
  <time>2026-08-27T18:24:31Z</time>
  <course>11.06</course>
  <speed>0.0</speed>
  <fix>3d</fix>
</trkpt>
<trkpt lat="40.072842" lon="-105.230575">
  <ele>1586.09</ele>
  <time>2026-08-27T18:24:31Z</time>
  <course>266.05</course>
  <speed>0.0</speed>
  <fix>3d</fix>
</trkpt>
<trkpt lat="40.0728419" lon="-105.2305749">
  <ele>1586.15</ele>
  <time>2026-08-27T18:24:31Z</time>
  <course>11.06</course>
  <speed>0.0</speed>
  <fix>3d</fix>
</trkpt>
<trkpt lat="40.072842" lon="-105.230575">
  <ele>1586.09</ele>
  <time>2026-08-27T18:24:31Z</time>
  <course>266.05</course>
  <speed>0.0</speed>
  <fix>3d</fix>
</trkpt>
<trkpt lat="40.0728419" lon="-105.2305749">
  <ele>1586.15</ele>
  <time>2026-08-27T18:24:31Z</time>
  <course>11.06</course>
  <speed>0.0</speed>
  <fix>3d</fix>
</trkpt>
<trkpt lat="40.072842" lon="-105.230575">
  <ele>1586.09</ele>
  <time>2026-08-27T18:24:31Z</time>
  <course>269.65</course>
  <speed>0.0</speed>
  <fix>3d</fix>
</trkpt>
<trkpt lat="40.0728419" lon="-105.2305749">
  <ele>1586.14</ele>
  <time>2026-08-27T18:24:31Z</time>
  <course>11.07</course>
  <speed>0.0</speed>
  <fix>3d</fix>
</trkpt>
<trkpt lat="40.072842" lon="-105.230575">
  <ele>1586.09</ele>
  <time>2026-08-27T18:24:31Z</time>
  <course>263.02</course>
  <speed>0.0</speed>
  <fix>3d</fix>
</trkpt>
<trkpt lat="40.0728419" lon="-105.2305749">
  <ele>1586.14</ele>
  <time>2026-08-27T18:24:31Z</time>
  <course>11.07</course>
  <speed>0.0</speed>
  <fix>3d</fix>
</trkpt>
<trkpt lat="40.072842" lon="-105.230575">
  <ele>1586.09</ele>
  <time>2026-08-27T18:24:31Z</time>
  <course>163.36</course>
  <speed>0.0</speed>
  <fix>3d</fix>
</trkpt>
<trkpt lat="40.0728419" lon="-105.2305749">
  <ele>1586.13</ele>
  <time>2026-08-27T18:24:31Z</time>
  <course>11.07</course>
  <speed>0.0</speed>
  <fix>3d</fix>
</trkpt>
<trkpt lat="40.072842" lon="-105.230575">
  <ele>1586.09</ele>
  <time>2026-08-27T18:24:31Z</time>
  <course>60.07</course>
  <speed>0.0</speed>
  <fix>3d</fix>
</trkpt>
<trkpt lat="40.0728419" lon="-105.2305749">
  <ele>1586.12</ele>
  <time>2026-08-27T18:24:31Z</time>
  <course>11.07</course>
  <speed>0.0</speed>
  <fix>3d</fix>
</trkpt>
<trkpt lat="40.072842" lon="-105.230575">
  <ele>1586.09</ele>
  <time>2026-08-27T18:24:31Z</time>
  <course>274.11</course>
  <speed>0.0</speed>
  <fix>3d</fix>
</trkpt>
<trkpt lat="40.0728419" lon="-105.2305749">
  <ele>1586.12</ele>
  <time>2026-08-27T18:24:31Z</time>
  <course>11.07</course>
  <speed>0.0</speed>
  <fix>3d</fix>
</trkpt>
<trkpt lat="40.072842" lon="-105.230575">
  <ele>1586.09</ele>
  <time>2026-08-27T18:24:31Z</time>
  <course>261.78</course>
  <speed>0.0</speed>
  <fix>3d</fix>
</trkpt>
<trkpt lat="40.0728419" lon="-105.2305749">
  <ele>1586.13</ele>
  <time>2026-08-27T18:24:31Z</time>
  <course>11.07</course>
  <speed>0.0</speed>
  <fix>3d</fix>
</trkpt>
<trkpt lat="40.072842" lon="-105.230575">
  <ele>1586.09</ele>
  <time>2026-08-27T18:24:31Z</time>
  <course>265.04</course>
  <speed>0.0</speed>
  <fix>3d</fix>
</trkpt>
<trkpt lat="40.0728419" lon="-105.2305749">
  <ele>1586.14</ele>
  <time>2026-08-27T18:24:31Z</time>
  <course>11.07</course>
  <speed>0.0</speed>
  <fix>3d</fix>
</trkpt>
<trkpt lat="40.072842" lon="-105.230575">
  <ele>1586.09</ele>
  <time>2026-08-27T18:24:31Z</time>
  <course>266.86</course>
  <speed>0.0</speed>
  <fix>3d</fix>
</trkpt>
<trkpt lat="40.0728419" lon="-105.2305749">
  <ele>1586.14</ele>
  <time>2026-08-27T18:24:31Z</time>
  <course>11.07</course>
  <speed>0.0</speed>
  <fix>3d</fix>
</trkpt>
<trkpt lat="40.072842" lon="-105.230575">
  <ele>1586.09</ele>
  <time>2026-08-27T18:24:31Z</time>
  <course>266.06</course>
  <speed>0.0</speed>
  <fix>3d</fix>
</trkpt>
<trkpt lat="40.0728419" lon="-105.2305749">
  <ele>1586.14</ele>
  <time>2026-08-27T18:24:31Z</time>
  <course>11.07</course>
  <speed>0.0</speed>
  <fix>3d</fix>
</trkpt>
<trkpt lat="40.072842" lon="-105.230575">
  <ele>1586.09</ele>
  <time>2026-08-27T18:24:31Z</time>
  <course>265.92</course>
  <speed>0.0</speed>
  <fix>3d</fix>
</trkpt>
<trkpt lat="40.0728419" lon="-105.2305749">
  <ele>1586.15</ele>
  <time>2026-08-27T18:24:31Z</time>
  <course>11.07</course>
  <speed>0.0</speed>
  <fix>3d</fix>
</trkpt>
<trkpt lat="40.072842" lon="-105.230575">
  <ele>1586.09</ele>
  <time>2026-08-27T18:24:31Z</time>
  <course>333.02</course>
  <speed>0.0</speed>
  <fix>3d</fix>
</trkpt>
<trkpt lat="40.0728419" lon="-105.2305749">
  <ele>1586.15</ele>
  <time>2026-08-27T18:24:31Z</time>
  <course>11.07</course>
  <speed>0.01</speed>
  <fix>3d</fix>
</trkpt>
<trkpt lat="40.072842" lon="-105.230575">
  <ele>1586.09</ele>
  <time>2026-08-27T18:24:31Z</time>
  <course>322.64</course>
  <speed>0.0</speed>
  <fix>3d</fix>
</trkpt>
<trkpt lat="40.0728419" lon="-105.2305749">
  <ele>1586.16</ele>
  <time>2026-08-27T18:24:31Z</time>
  <course>11.07</course>
  <speed>0.01</speed>
  <fix>3d</fix>
</trkpt>
<trkpt lat="40.072842" lon="-105.230575">
  <ele>1586.09</ele>
  <time>2026-08-27T18:24:31Z</time>
  <course>270.1</course>
  <speed>0.0</speed>
  <fix>3d</fix>
</trkpt>
<trkpt lat="40.0728419" lon="-105.2305749">
  <ele>1586.16</ele>
  <time>2026-08-27T18:24:31Z</time>
  <course>11.07</course>
  <speed>0.01</speed>
  <fix>3d</fix>
</trkpt>
<trkpt lat="40.072842" lon="-105.230575">
  <ele>1586.09</ele>
  <time>2026-08-27T18:24:31Z</time>
  <course>161.19</course>
  <speed>0.0</speed>
  <fix>3d</fix>
</trkpt>
<trkpt lat="40.0728419" lon="-105.2305749">
  <ele>1586.17</ele>
  <time>2026-08-27T18:24:31Z</time>
  <course>11.07</course>
  <speed>0.01</speed>
  <fix>3d</fix>
</trkpt>
<trkpt lat="40.072842" lon="-105.230575">
  <ele>1586.09</ele>
  <time>2026-08-27T18:24:31Z</time>
  <course>303.48</course>
  <speed>0.0</speed>
  <fix>3d</fix>
</trkpt>
<trkpt lat="40.0728419" lon="-105.2305749">
  <ele>1586.17</ele>
  <time>2026-08-27T18:24:31Z</time>
  <course>11.07</course>
  <speed>0.01</speed>
  <fix>3d</fix>
</trkpt>
<trkpt lat="40.072842" lon="-105.230575">
  <ele>1586.09</ele>
  <time>2026-08-27T18:24:31Z</time>
  <course>292.35</course>
  <speed>0.0</speed>
  <fix>3d</fix>
</trkpt>
<trkpt lat="40.0728419" lon="-105.2305749">
  <ele>1586.17</ele>
  <time>2026-08-27T18:24:31Z</time>
  <course>11.08</course>
  <speed>0.01</speed>
  <fix>3d</fix>
</trkpt>
<trkpt lat="40.072842" lon="-105.230575">
  <ele>1586.09</ele>
  <time>2026-08-27T18:24:31Z</time>
  <course>283.01</course>
  <speed>0.0</speed>
  <fix>3d</fix>
</trkpt>
<trkpt lat="40.0728419" lon="-105.2305749">
  <ele>1586.17</ele>
  <time>2026-08-27T18:24:31Z</time>
  <course>11.08</course>
  <speed>0.01</speed>
  <fix>3d</fix>
</trkpt>
<trkpt lat="40.072842" lon="-105.230575">
  <ele>1586.09</ele>
  <time>2026-08-27T18:24:31Z</time>
  <course>285.49</course>
  <speed>0.0</speed>
  <fix>3d</fix>
</trkpt>
<trkpt lat="40.0728419" lon="-105.2305749">
  <ele>1586.17</ele>
  <time>2026-08-27T18:24:31Z</time>
  <course>11.08</course>
  <speed>0.01414213562373095</speed>
  <fix>3d</fix>
</trkpt>
<trkpt lat="40.072842" lon="-105.230575">
  <ele>1586.09</ele>
  <time>2026-08-27T18:24:31Z</time>
  <course>286.69</course>
  <speed>0.0</speed>
  <fix>3d</fix>
</trkpt>
<trkpt lat="40.0728419" lon="-105.2305749">
  <ele>1586.17</ele>
  <time>2026-08-27T18:24:31Z</time>
  <course>11.08</course>
  <speed>0.01414213562373095</speed>
  <fix>3d</fix>
</trkpt>
<trkpt lat="40.072842" lon="-105.230575">
  <ele>1586.09</ele>
  <time>2026-08-27T18:24:31Z</time>
  <course>286.22</course>
  <speed>0.0</speed>
  <fix>3d</fix>
</trkpt>
<trkpt lat="40.0728419" lon="-105.2305749">
  <ele>1586.17</ele>
  <time>2026-08-27T18:24:31Z</time>
  <course>11.08</course>
  <speed>0.01414213562373095</speed>
  <fix>3d</fix>
</trkpt>
<trkpt lat="40.072842" lon="-105.230575">
  <ele>1586.09</ele>
  <time>2026-08-27T18:24:31Z</time>
  <course>286.12</course>
  <speed>0.0</speed>
  <fix>3d</fix>
</trkpt>
<trkpt lat="40.0728419" lon="-105.2305749">
  <ele>1586.17</ele>
  <time>2026-08-27T18:24:31Z</time>
  <course>11.08</course>
  <speed>0.01414213562373095</speed>
  <fix>3d</fix>
</trkpt>
<trkpt lat="40.072842" lon="-105.230575">
  <ele>1586.09</ele>
  <time>2026-08-27T18:24:31Z</time>
  <course>286.19</course>
  <speed>0.0</speed>
  <fix>3d</fix>
</trkpt>
<trkpt lat="40.0728419" lon="-105.2305749">
  <ele>1586.17</ele>
  <time>2026-08-27T18:24:31Z</time>
  <course>11.08</course>
  <speed>0.01414213562373095</speed>
  <fix>3d</fix>
</trkpt>
<trkpt lat="40.072842" lon="-105.230575">
  <ele>1586.09</ele>
  <time>2026-08-27T18:24:31Z</time>
  <course>286.2</course>
  <speed>0.0</speed>
  <fix>3d</fix>
</trkpt>
<trkpt lat="40.0728419" lon="-105.2305749">
  <ele>1586.18</ele>
  <time>2026-08-27T18:24:31Z</time>
  <course>11.08</course>
  <speed>0.01414213562373095</speed>
  <fix>3d</fix>
</trkpt>
<trkpt lat="40.072842" lon="-105.230575">
  <ele>1586.09</ele>
  <time>2026-08-27T18:24:31Z</time>
  <course>286.19</course>
  <speed>0.0</speed>
  <fix>3d</fix>
</trkpt>
<trkpt lat="40.0728419" lon="-105.2305749">
  <ele>1586.18</ele>
  <time>2026-08-27T18:24:31Z</time>
  <course>11.08</course>
  <speed>0.01414213562373095</speed>
  <fix>3d</fix>
</trkpt>
<trkpt lat="40.072842" lon="-105.230575">
  <ele>1586.09</ele>
  <time>2026-08-27T18:24:31Z</time>
  <course>286.19</course>
  <speed>0.0</speed>
  <fix>3d</fix>
</trkpt>
<trkpt lat="40.0728419" lon="-105.2305749">
  <ele>1586.18</ele>
  <time>2026-08-27T18:24:31Z</time>
  <course>11.08</course>
  <speed>0.01414213562373095</speed>
  <fix>3d</fix>
</trkpt>
<trkpt lat="40.072842" lon="-105.230575">
  <ele>1586.09</ele>
  <time>2026-08-27T18:24:31Z</time>
  <course>286.19</course>
  <speed>0.0</speed>
  <fix>3d</fix>
</trkpt>
<trkpt lat="40.0728419" lon="-105.2305749">
  <ele>1586.18</ele>
  <time>2026-08-27T18:24:31Z</time>
  <course>11.08</course>
  <speed>0.01414213562373095</speed>
  <fix>3d</fix>
</trkpt>
<trkpt lat="40.072842" lon="-105.230575">
  <ele>1586.09</ele>
  <time>2026-08-27T18:24:31Z</time>
  <course>286.19</course>
  <speed>0.0</speed>
  <fix>3d</fix>
</trkpt>
<trkpt lat="40.0728419" lon="-105.2305749">
  <ele>1586.19</ele>
  <time>2026-08-27T18:24:31Z</time>
  <course>11.09</course>
  <speed>0.01414213562373095</speed>
  <fix>3d</fix>
</trkpt>
<trkpt lat="40.072842" lon="-105.230575">
  <ele>1586.09</ele>
  <time>2026-08-27T18:24:31Z</time>
  <course>286.19</course>
  <speed>0.0</speed>
  <fix>3d</fix>
</trkpt>
<trkpt lat="40.0728419" lon="-105.2305749">
  <ele>1586.19</ele>
  <time>2026-08-27T18:24:31Z</time>
  <course>11.09</course>
  <speed>0.01414213562373095</speed>
  <fix>3d</fix>
</trkpt>
<trkpt lat="40.072842" lon="-105.230575">
  <ele>1586.09</ele>
  <time>2026-08-27T18:24:31Z</time>
  <course>286.19</course>
  <speed>0.0</speed>
  <fix>3d</fix>
</trkpt>
<trkpt lat="40.0728419" lon="-105.2305749">
  <ele>1586.18</ele>
  <time>2026-08-27T18:24:31Z</time>
  <course>11.09</course>
  <speed>0.01414213562373095</speed>
  <fix>3d</fix>
</trkpt>
<trkpt lat="40.072842" lon="-105.230575">
  <ele>1586.09</ele>
  <time>2026-08-27T18:24:31Z</time>
  <course>286.19</course>
  <speed>0.0</speed>
  <fix>3d</fix>
</trkpt>
<trkpt lat="40.0728419" lon="-105.2305749">
  <ele>1586.18</ele>
  <time>2026-08-27T18:24:31Z</time>
  <course>11.09</course>
  <speed>0.01414213562373095</speed>
  <fix>3d</fix>
</trkpt>
<trkpt lat="40.072842" lon="-105.230575">
  <ele>1586.09</ele>
  <time>2026-08-27T18:24:31Z</time>
  <course>286.19</course>
  <speed>0.0</speed>
  <fix>3d</fix>
</trkpt>
<trkpt lat="40.0728419" lon="-105.2305749">
  <ele>1586.19</ele>
  <time>2026-08-27T18:24:31Z</time>
  <course>11.09</course>
  <speed>0.01414213562373095</speed>
  <fix>3d</fix>
</trkpt>
<trkpt lat="40.072842" lon="-105.230575">
  <ele>1586.09</ele>
  <time>2026-08-27T18:24:31Z</time>
  <course>286.19</course>
  <speed>0.0</speed>
  <fix>3d</fix>
</trkpt>
<trkpt lat="40.0728419" lon="-105.2305749">
  <ele>1586.19</ele>
  <time>2026-08-27T18:24:31Z</time>
  <course>11.09</course>
  <speed>0.01414213562373095</speed>
  <fix>3d</fix>
</trkpt>
<trkpt lat="40.072842" lon="-105.230575">
  <ele>1586.09</ele>
  <time>2026-08-27T18:24:31Z</time>
  <course>286.19</course>
  <speed>0.0</speed>
  <fix>3d</fix>
</trkpt>
<trkpt lat="40.0728419" lon="-105.2305749">
  <ele>1586.19</ele>
  <time>2026-08-27T18:24:31Z</time>
  <course>11.09</course>
  <speed>0.022360679774997897</speed>
  <fix>3d</fix>
</trkpt>
<trkpt lat="40.072842" lon="-105.230575">
  <ele>1586.09</ele>
  <time>2026-08-27T18:24:31Z</time>
  <course>286.19</course>
  <speed>0.0</speed>
  <fix>3d</fix>
</trkpt>
<trkpt lat="40.0728419" lon="-105.2305749">
  <ele>1586.19</ele>
  <time>2026-08-27T18:24:31Z</time>
  <course>11.09</course>
  <speed>0.022360679774997897</speed>
  <fix>3d</fix>
</trkpt>
<trkpt lat="40.072842" lon="-105.230575">
  <ele>1586.09</ele>
  <time>2026-08-27T18:24:31Z</time>
  <course>286.19</course>
  <speed>0.0</speed>
  <fix>3d</fix>
</trkpt>
<trkpt lat="40.0728419" lon="-105.2305749">
  <ele>1586.19</ele>
  <time>2026-08-27T18:24:31Z</time>
  <course>11.09</course>
  <speed>0.022360679774997897</speed>
  <fix>3d</fix>
</trkpt>
<trkpt lat="40.072842" lon="-105.230575">
  <ele>1586.09</ele>
  <time>2026-08-27T18:24:31Z</time>
  <course>286.19</course>
  <speed>0.0</speed>
  <fix>3d</fix>
</trkpt>
<trkpt lat="40.0728419" lon="-105.2305749">
  <ele>1586.19</ele>
  <time>2026-08-27T18:24:31Z</time>
  <course>11.09</course>
  <speed>0.022360679774997897</speed>
  <fix>3d</fix>
</trkpt>
<trkpt lat="40.072842" lon="-105.230575">
  <ele>1586.09</ele>
  <time>2026-08-27T18:24:31Z</time>
  <course>286.19</course>
  <speed>0.0</speed>
  <fix>3d</fix>
</trkpt>
<trkpt lat="40.0728419" lon="-105.2305749">
  <ele>1586.19</ele>
  <time>2026-08-27T18:24:31Z</time>
  <course>11.1</course>
  <speed>0.022360679774997897</speed>
  <fix>3d</fix>
</trkpt>
<trkpt lat="40.072842" lon="-105.230575">
  <ele>1586.09</ele>
  <time>2026-08-27T18:24:31Z</time>
  <course>286.19</course>
  <speed>0.0</speed>
  <fix>3d</fix>
</trkpt>
<trkpt lat="40.0728419" lon="-105.2305749">
  <ele>1586.2</ele>
  <time>2026-08-27T18:24:31Z</time>
  <course>11.1</course>
  <speed>0.022360679774997897</speed>
  <fix>3d</fix>
</trkpt>
<trkpt lat="40.072842" lon="-105.230575">
  <ele>1586.09</ele>
  <time>2026-08-27T18:24:31Z</time>
  <course>286.19</course>
  <speed>0.0</speed>
  <fix>3d</fix>
</trkpt>
<trkpt lat="40.0728419" lon="-105.2305749">
  <ele>1586.2</ele>
  <time>2026-08-27T18:24:31Z</time>
  <course>11.1</course>
  <speed>0.022360679774997897</speed>
  <fix>3d</fix>
</trkpt>
<trkpt lat="40.072842" lon="-105.230575">
  <ele>1586.09</ele>
  <time>2026-08-27T18:24:31Z</time>
  <course>286.19</course>
  <speed>0.0</speed>
  <fix>3d</fix>
</trkpt>
<trkpt lat="40.0728419" lon="-105.2305749">
  <ele>1586.2</ele>
  <time>2026-08-27T18:24:31Z</time>
  <course>11.1</course>
  <speed>0.022360679774997897</speed>
  <fix>3d</fix>
</trkpt>
<trkpt lat="40.072842" lon="-105.230575">
  <ele>1586.09</ele>
  <time>2026-08-27T18:24:31Z</time>
  <course>286.19</course>
  <speed>0.0</speed>
  <fix>3d</fix>
</trkpt>
<trkpt lat="40.0728419" lon="-105.2305749">
  <ele>1586.2</ele>
  <time>2026-08-27T18:24:31Z</time>
  <course>11.1</course>
  <speed>0.022360679774997897</speed>
  <fix>3d</fix>
</trkpt>
<trkpt lat="40.072842" lon="-105.230575">
  <ele>1586.09</ele>
  <time>2026-08-27T18:24:31Z</time>
  <course>286.19</course>
  <speed>0.0</speed>
  <fix>3d</fix>
</trkpt>
<trkpt lat="40.0728419" lon="-105.2305749">
  <ele>1586.2</ele>
  <time>2026-08-27T18:24:31Z</time>
  <course>11.1</course>
  <speed>0.022360679774997897</speed>
  <fix>3d</fix>
</trkpt>
<trkpt lat="40.072842" lon="-105.230575">
  <ele>1586.09</ele>
  <time>2026-08-27T18:24:31Z</time>
  <course>286.19</course>
  <speed>0.0</speed>
  <fix>3d</fix>
</trkpt>
<trkpt lat="40.0728419" lon="-105.2305749">
  <ele>1586.2</ele>
  <time>2026-08-27T18:24:31Z</time>
  <course>11.1</course>
  <speed>0.022360679774997897</speed>
  <fix>3d</fix>
</trkpt>
<trkpt lat="40.072842" lon="-105.230575">
  <ele>1586.09</ele>
  <time>2026-08-27T18:24:31Z</time>
  <course>303.57</course>
  <speed>0.0</speed>
  <fix>3d</fix>
</trkpt>
<trkpt lat="40.0728419" lon="-105.2305749">
  <ele>1586.2</ele>
  <time>2026-08-27T18:24:31Z</time>
  <course>11.1</course>
  <speed>0.022360679774997897</speed>
  <fix>3d</fix>
</trkpt>
<trkpt lat="40.072842" lon="-105.230575">
  <ele>1586.09</ele>
  <time>2026-08-27T18:24:31Z</time>
  <course>296.63</course>
  <speed>0.0</speed>
  <fix>3d</fix>
</trkpt>
<trkpt lat="40.0728419" lon="-105.2305749">
  <ele>1586.2</ele>
  <time>2026-08-27T18:24:31Z</time>
  <course>11.1</course>
  <speed>0.01414213562373095</speed>
  <fix>3d</fix>
</trkpt>
<trkpt lat="40.072842" lon="-105.230575">
  <ele>1586.09</ele>
  <time>2026-08-27T18:24:31Z</time>
  <course>280.66</course>
  <speed>0.0</speed>
  <fix>3d</fix>
</trkpt>
<trkpt lat="40.0728419" lon="-105.2305749">
  <ele>1586.2</ele>
  <time>2026-08-27T18:24:31Z</time>
  <course>11.1</course>
  <speed>0.01414213562373095</speed>
  <fix>3d</fix>
</trkpt>
<trkpt lat="40.072842" lon="-105.230575">
  <ele>1586.09</ele>
  <time>2026-08-27T18:24:31Z</time>
  <course>285.41</course>
  <speed>0.0</speed>
  <fix>3d</fix>
</trkpt>
<trkpt lat="40.0728419" lon="-105.2305749">
  <ele>1586.19</ele>
  <time>2026-08-27T18:24:31Z</time>
  <course>11.1</course>
  <speed>0.01</speed>
  <fix>3d</fix>
</trkpt>
<trkpt lat="40.072842" lon="-105.230575">
  <ele>1586.09</ele>
  <time>2026-08-27T18:24:31Z</time>
  <course>287.14</course>
  <speed>0.0</speed>
  <fix>3d</fix>
</trkpt>
<trkpt lat="40.0728419" lon="-105.2305749">
  <ele>1586.19</ele>
  <time>2026-08-27T18:24:31Z</time>
  <course>11.11</course>
  <speed>0.0</speed>
  <fix>3d</fix>
</trkpt>
<trkpt lat="40.072842" lon="-105.230575">
  <ele>1586.09</ele>
  <time>2026-08-27T18:24:31Z</time>
  <course>286.18</course>
  <speed>0.0</speed>
  <fix>3d</fix>
</trkpt>
<trkpt lat="40.0728419" lon="-105.2305749">
  <ele>1586.19</ele>
  <time>2026-08-27T18:24:33Z</time>
  <course>11.11</course>
  <speed>0.0</speed>
  <fix>3d</fix>
</trkpt>
<trkpt lat="40.072842" lon="-105.230575">
  <ele>1586.09</ele>
  <time>2026-08-27T18:24:33Z</time>
  <course>286.07</course>
  <speed>0.0</speed>
  <fix>3d</fix>
</trkpt>
<trkpt lat="40.0728419" lon="-105.2305749">
  <ele>1586.19</ele>
  <time>2026-08-27T18:24:33Z</time>
  <course>11.11</course>
  <speed>0.0</speed>
  <fix>3d</fix>
</trkpt>
<trkpt lat="40.072842" lon="-105.230575">
  <ele>1586.09</ele>
  <time>2026-08-27T18:24:33Z</time>
  <course>286.21</course>
  <speed>0.0</speed>
  <fix>3d</fix>
</trkpt>
<trkpt lat="40.0728419" lon="-105.2305749">
  <ele>1586.19</ele>
  <time>2026-08-27T18:24:33Z</time>
  <course>11.11</course>
  <speed>0.0</speed>
  <fix>3d</fix>
</trkpt>
<trkpt lat="40.072842" lon="-105.230575">
  <ele>1586.09</ele>
  <time>2026-08-27T18:24:33Z</time>
  <course>286.2</course>
  <speed>0.0</speed>
  <fix>3d</fix>
</trkpt>
<trkpt lat="40.0728419" lon="-105.2305749">
  <ele>1586.19</ele>
  <time>2026-08-27T18:24:33Z</time>
  <course>11.11</course>
  <speed>0.0</speed>
  <fix>3d</fix>
</trkpt>
<trkpt lat="40.072842" lon="-105.230575">
  <ele>1586.09</ele>
  <time>2026-08-27T18:24:33Z</time>
  <course>286.19</course>
  <speed>0.0</speed>
  <fix>3d</fix>
</trkpt>
<trkpt lat="40.0728419" lon="-105.2305749">
  <ele>1586.19</ele>
  <time>2026-08-27T18:24:33Z</time>
  <course>11.11</course>
  <speed>0.0</speed>
  <fix>3d</fix>
</trkpt>
<trkpt lat="40.072842" lon="-105.230575">
  <ele>1586.09</ele>
  <time>2026-08-27T18:24:33Z</time>
  <course>286.19</course>
  <speed>0.0</speed>
  <fix>3d</fix>
</trkpt>
<trkpt lat="40.0728419" lon="-105.2305749">
  <ele>1586.2</ele>
  <time>2026-08-27T18:24:33Z</time>
  <course>11.11</course>
  <speed>0.0</speed>
  <fix>3d</fix>
</trkpt>
<trkpt lat="40.072842" lon="-105.230575">
  <ele>1586.09</ele>
  <time>2026-08-27T18:24:33Z</time>
  <course>286.19</course>
  <speed>0.0</speed>
  <fix>3d</fix>
</trkpt>
<trkpt lat="40.0728419" lon="-105.2305749">
  <ele>1586.2</ele>
  <time>2026-08-27T18:24:33Z</time>
  <course>11.11</course>
  <speed>0.0</speed>
  <fix>3d</fix>
</trkpt>
<trkpt lat="40.072842" lon="-105.230575">
  <ele>1586.09</ele>
  <time>2026-08-27T18:24:33Z</time>
  <course>295.1</course>
  <speed>0.0</speed>
  <fix>3d</fix>
</trkpt>
<trkpt lat="40.0728419" lon="-105.2305749">
  <ele>1586.2</ele>
  <time>2026-08-27T18:24:33Z</time>
  <course>11.12</course>
  <speed>0.0</speed>
  <fix>3d</fix>
</trkpt>
<trkpt lat="40.072842" lon="-105.230575">
  <ele>1586.09</ele>
  <time>2026-08-27T18:24:33Z</time>
  <course>264.02</course>
  <speed>0.0</speed>
  <fix>3d</fix>
</trkpt>
<trkpt lat="40.0728419" lon="-105.2305749">
  <ele>1586.2</ele>
  <time>2026-08-27T18:24:33Z</time>
  <course>11.12</course>
  <speed>0.0</speed>
  <fix>3d</fix>
</trkpt>
<trkpt lat="40.072842" lon="-105.230575">
  <ele>1586.09</ele>
  <time>2026-08-27T18:24:33Z</time>
  <course>255.79</course>
  <speed>0.0</speed>
  <fix>3d</fix>
</trkpt>
<trkpt lat="40.0728419" lon="-105.2305749">
  <ele>1586.2</ele>
  <time>2026-08-27T18:24:33Z</time>
  <course>11.12</course>
  <speed>0.0</speed>
  <fix>3d</fix>
</trkpt>
<trkpt lat="40.072842" lon="-105.230575">
  <ele>1586.09</ele>
  <time>2026-08-27T18:24:33Z</time>
  <course>111.67</course>
  <speed>0.0</speed>
  <fix>3d</fix>
</trkpt>
<trkpt lat="40.0728419" lon="-105.2305749">
  <ele>1586.2</ele>
  <time>2026-08-27T18:24:33Z</time>
  <course>11.12</course>
  <speed>0.0</speed>
  <fix>3d</fix>
</trkpt>
<trkpt lat="40.072842" lon="-105.230575">
  <ele>1586.09</ele>
  <time>2026-08-27T18:24:33Z</time>
  <course>336.04</course>
  <speed>0.0</speed>
  <fix>3d</fix>
</trkpt>
<trkpt lat="40.0728419" lon="-105.2305749">
  <ele>1586.19</ele>
  <time>2026-08-27T18:24:33Z</time>
  <course>11.12</course>
  <speed>0.0</speed>
  <fix>3d</fix>
</trkpt>
<trkpt lat="40.072842" lon="-105.230575">
  <ele>1586.09</ele>
  <time>2026-08-27T18:24:33Z</time>
  <course>279.08</course>
  <speed>0.0</speed>
  <fix>3d</fix>
</trkpt>
<trkpt lat="40.0728419" lon="-105.2305749">
  <ele>1586.19</ele>
  <time>2026-08-27T18:24:33Z</time>
  <course>11.12</course>
  <speed>0.0</speed>
  <fix>3d</fix>
</trkpt>
<trkpt lat="40.072842" lon="-105.230575">
  <ele>1586.09</ele>
  <time>2026-08-27T18:24:33Z</time>
  <course>277.13</course>
  <speed>0.0</speed>
  <fix>3d</fix>
</trkpt>
<trkpt lat="40.0728419" lon="-105.2305749">
  <ele>1586.19</ele>
  <time>2026-08-27T18:24:33Z</time>
  <course>11.13</course>
  <speed>0.01</speed>
  <fix>3d</fix>
</trkpt>
<trkpt lat="40.072842" lon="-105.230575">
  <ele>1586.09</ele>
  <time>2026-08-27T18:24:33Z</time>
  <course>281.62</course>
  <speed>0.0</speed>
  <fix>3d</fix>
</trkpt>
<trkpt lat="40.0728419" lon="-105.2305749">
  <ele>1586.19</ele>
  <time>2026-08-27T18:24:33Z</time>
  <course>11.13</course>
  <speed>0.01</speed>
  <fix>3d</fix>
</trkpt>
<trkpt lat="40.072842" lon="-105.230575">
  <ele>1586.09</ele>
  <time>2026-08-27T18:24:33Z</time>
  <course>281.24</course>
  <speed>0.0</speed>
  <fix>3d</fix>
</trkpt>
<trkpt lat="40.0728419" lon="-105.2305749">
  <ele>1586.19</ele>
  <time>2026-08-27T18:24:33Z</time>
  <course>11.13</course>
  <speed>0.01</speed>
  <fix>3d</fix>
</trkpt>
<trkpt lat="40.072842" lon="-105.230575">
  <ele>1586.09</ele>
  <time>2026-08-27T18:24:33Z</time>
  <course>280.66</course>
  <speed>0.0</speed>
  <fix>3d</fix>
</trkpt>
<trkpt lat="40.0728419" lon="-105.2305749">
  <ele>1586.18</ele>
  <time>2026-08-27T18:24:33Z</time>
  <course>11.13</course>
  <speed>0.01</speed>
  <fix>3d</fix>
</trkpt>
<trkpt lat="40.072842" lon="-105.230575">
  <ele>1586.09</ele>
  <time>2026-08-27T18:24:33Z</time>
  <course>280.78</course>
  <speed>0.0</speed>
  <fix>3d</fix>
</trkpt>
<trkpt lat="40.0728419" lon="-105.2305749">
  <ele>1586.18</ele>
  <time>2026-08-27T18:24:33Z</time>
  <course>11.13</course>
  <speed>0.01</speed>
  <fix>3d</fix>
</trkpt>
<trkpt lat="40.072842" lon="-105.230575">
  <ele>1586.09</ele>
  <time>2026-08-27T18:24:33Z</time>
  <course>280.84</course>
  <speed>0.0</speed>
  <fix>3d</fix>
</trkpt>
<trkpt lat="40.0728419" lon="-105.2305749">
  <ele>1586.18</ele>
  <time>2026-08-27T18:24:33Z</time>
  <course>11.13</course>
  <speed>0.01414213562373095</speed>
  <fix>3d</fix>
</trkpt>
<trkpt lat="40.072842" lon="-105.230575">
  <ele>1586.09</ele>
  <time>2026-08-27T18:24:33Z</time>
  <course>280.82</course>
  <speed>0.0</speed>
  <fix>3d</fix>
</trkpt>
<trkpt lat="40.0728419" lon="-105.2305749">
  <ele>1586.18</ele>
  <time>2026-08-27T18:24:33Z</time>
  <course>11.14</course>
  <speed>0.01414213562373095</speed>
  <fix>3d</fix>
</trkpt>
<trkpt lat="40.072842" lon="-105.230575">
  <ele>1586.09</ele>
  <time>2026-08-27T18:24:33Z</time>
  <course>280.81</course>
  <speed>0.0</speed>
  <fix>3d</fix>
</trkpt>
<trkpt lat="40.0728419" lon="-105.2305749">
  <ele>1586.18</ele>
  <time>2026-08-27T18:24:33Z</time>
  <course>11.14</course>
  <speed>0.01414213562373095</speed>
  <fix>3d</fix>
</trkpt>
<trkpt lat="40.072842" lon="-105.230575">
  <ele>1586.09</ele>
  <time>2026-08-27T18:24:33Z</time>
  <course>280.81</course>
  <speed>0.0</speed>
  <fix>3d</fix>
</trkpt>
<trkpt lat="40.0728419" lon="-105.2305749">
  <ele>1586.19</ele>
  <time>2026-08-27T18:24:33Z</time>
  <course>11.14</course>
  <speed>0.01414213562373095</speed>
  <fix>3d</fix>
</trkpt>
<trkpt lat="40.072842" lon="-105.230575">
  <ele>1586.09</ele>
  <time>2026-08-27T18:24:33Z</time>
  <course>280.81</course>
  <speed>0.0</speed>
  <fix>3d</fix>
</trkpt>
<trkpt lat="40.0728419" lon="-105.2305749">
  <ele>1586.19</ele>
  <time>2026-08-27T18:24:33Z</time>
  <course>11.14</course>
  <speed>0.01414213562373095</speed>
  <fix>3d</fix>
</trkpt>
<trkpt lat="40.072842" lon="-105.230575">
  <ele>1586.09</ele>
  <time>2026-08-27T18:24:33Z</time>
  <course>280.81</course>
  <speed>0.0</speed>
  <fix>3d</fix>
</trkpt>
<trkpt lat="40.0728419" lon="-105.2305749">
  <ele>1586.2</ele>
  <time>2026-08-27T18:24:33Z</time>
  <course>11.14</course>
  <speed>0.01414213562373095</speed>
  <fix>3d</fix>
</trkpt>
<trkpt lat="40.072842" lon="-105.230575">
  <ele>1586.09</ele>
  <time>2026-08-27T18:24:33Z</time>
  <course>280.81</course>
  <speed>0.0</speed>
  <fix>3d</fix>
</trkpt>
<trkpt lat="40.0728419" lon="-105.2305749">
  <ele>1586.2</ele>
  <time>2026-08-27T18:24:33Z</time>
  <course>11.14</course>
  <speed>0.01414213562373095</speed>
  <fix>3d</fix>
</trkpt>
<trkpt lat="40.072842" lon="-105.230575">
  <ele>1586.09</ele>
  <time>2026-08-27T18:24:33Z</time>
  <course>280.81</course>
  <speed>0.0</speed>
  <fix>3d</fix>
</trkpt>
<trkpt lat="40.0728419" lon="-105.2305749">
  <ele>1586.2</ele>
  <time>2026-08-27T18:24:33Z</time>
  <course>11.15</course>
  <speed>0.01414213562373095</speed>
  <fix>3d</fix>
</trkpt>
<trkpt lat="40.072842" lon="-105.230575">
  <ele>1586.09</ele>
  <time>2026-08-27T18:24:33Z</time>
  <course>280.81</course>
  <speed>0.0</speed>
  <fix>3d</fix>
</trkpt>
<trkpt lat="40.0728419" lon="-105.2305749">
  <ele>1586.19</ele>
  <time>2026-08-27T18:24:33Z</time>
  <course>11.15</course>
  <speed>0.01414213562373095</speed>
  <fix>3d</fix>
</trkpt>
<trkpt lat="40.072842" lon="-105.230575">
  <ele>1586.09</ele>
  <time>2026-08-27T18:24:33Z</time>
  <course>280.81</course>
  <speed>0.0</speed>
  <fix>3d</fix>
</trkpt>
<trkpt lat="40.0728419" lon="-105.2305749">
  <ele>1586.19</ele>
  <time>2026-08-27T18:24:33Z</time>
  <course>11.15</course>
  <speed>0.01414213562373095</speed>
  <fix>3d</fix>
</trkpt>
<trkpt lat="40.072842" lon="-105.230575">
  <ele>1586.09</ele>
  <time>2026-08-27T18:24:33Z</time>
  <course>280.81</course>
  <speed>0.0</speed>
  <fix>3d</fix>
</trkpt>
<trkpt lat="40.0728419" lon="-105.2305749">
  <ele>1586.19</ele>
  <time>2026-08-27T18:24:33Z</time>
  <course>11.15</course>
  <speed>0.01414213562373095</speed>
  <fix>3d</fix>
</trkpt>
<trkpt lat="40.072842" lon="-105.230575">
  <ele>1586.09</ele>
  <time>2026-08-27T18:24:33Z</time>
  <course>280.81</course>
  <speed>0.0</speed>
  <fix>3d</fix>
</trkpt>
<trkpt lat="40.0728419" lon="-105.2305749">
  <ele>1586.2</ele>
  <time>2026-08-27T18:24:33Z</time>
  <course>11.15</course>
  <speed>0.022360679774997897</speed>
  <fix>3d</fix>
</trkpt>
<trkpt lat="40.072842" lon="-105.230575">
  <ele>1586.09</ele>
  <time>2026-08-27T18:24:33Z</time>
  <course>280.81</course>
  <speed>0.0</speed>
  <fix>3d</fix>
</trkpt>
<trkpt lat="40.0728419" lon="-105.2305749">
  <ele>1586.2</ele>
  <time>2026-08-27T18:24:33Z</time>
  <course>11.15</course>
  <speed>0.022360679774997897</speed>
  <fix>3d</fix>
</trkpt>
<trkpt lat="40.072842" lon="-105.230575">
  <ele>1586.09</ele>
  <time>2026-08-27T18:24:33Z</time>
  <course>280.81</course>
  <speed>0.0</speed>
  <fix>3d</fix>
</trkpt>
<trkpt lat="40.0728419" lon="-105.2305749">
  <ele>1586.2</ele>
  <time>2026-08-27T18:24:33Z</time>
  <course>11.16</course>
  <speed>0.022360679774997897</speed>
  <fix>3d</fix>
</trkpt>
<trkpt lat="40.072842" lon="-105.230575">
  <ele>1586.09</ele>
  <time>2026-08-27T18:24:33Z</time>
  <course>280.81</course>
  <speed>0.0</speed>
  <fix>3d</fix>
</trkpt>
<trkpt lat="40.0728419" lon="-105.2305749">
  <ele>1586.2</ele>
  <time>2026-08-27T18:24:33Z</time>
  <course>11.16</course>
  <speed>0.022360679774997897</speed>
  <fix>3d</fix>
</trkpt>
<trkpt lat="40.072842" lon="-105.230575">
  <ele>1586.09</ele>
  <time>2026-08-27T18:24:33Z</time>
  <course>280.81</course>
  <speed>0.0</speed>
  <fix>3d</fix>
</trkpt>
<trkpt lat="40.0728419" lon="-105.2305749">
  <ele>1586.2</ele>
  <time>2026-08-27T18:24:33Z</time>
  <course>11.16</course>
  <speed>0.022360679774997897</speed>
  <fix>3d</fix>
</trkpt>
<trkpt lat="40.072842" lon="-105.230575">
  <ele>1586.09</ele>
  <time>2026-08-27T18:24:33Z</time>
  <course>280.81</course>
  <speed>0.0</speed>
  <fix>3d</fix>
</trkpt>
<trkpt lat="40.0728419" lon="-105.2305749">
  <ele>1586.2</ele>
  <time>2026-08-27T18:24:33Z</time>
  <course>11.16</course>
  <speed>0.022360679774997897</speed>
  <fix>3d</fix>
</trkpt>
<trkpt lat="40.072842" lon="-105.230575">
  <ele>1586.09</ele>
  <time>2026-08-27T18:24:33Z</time>
  <course>289.62</course>
  <speed>0.0</speed>
  <fix>3d</fix>
</trkpt>
<trkpt lat="40.0728419" lon="-105.2305749">
  <ele>1586.2</ele>
  <time>2026-08-27T18:24:33Z</time>
  <course>11.16</course>
  <speed>0.022360679774997897</speed>
  <fix>3d</fix>
</trkpt>
<trkpt lat="40.072842" lon="-105.230575">
  <ele>1586.09</ele>
  <time>2026-08-27T18:24:33Z</time>
  <course>324.83</course>
  <speed>0.0</speed>
  <fix>3d</fix>
</trkpt>
<trkpt lat="40.0728419" lon="-105.2305749">
  <ele>1586.19</ele>
  <time>2026-08-27T18:24:33Z</time>
  <course>11.17</course>
  <speed>0.022360679774997897</speed>
  <fix>3d</fix>
</trkpt>
<trkpt lat="40.072842" lon="-105.230575">
  <ele>1586.09</ele>
  <time>2026-08-27T18:24:33Z</time>
  <course>318.24</course>
  <speed>0.0</speed>
  <fix>3d</fix>
</trkpt>
<trkpt lat="40.0728419" lon="-105.2305749">
  <ele>1586.2</ele>
  <time>2026-08-27T18:24:33Z</time>
  <course>11.17</course>
  <speed>0.022360679774997897</speed>
  <fix>3d</fix>
</trkpt>
<trkpt lat="40.072842" lon="-105.230575">
  <ele>1586.09</ele>
  <time>2026-08-27T18:24:33Z</time>
  <course>233.65</course>
  <speed>0.0</speed>
  <fix>3d</fix>
</trkpt>
<trkpt lat="40.0728419" lon="-105.2305749">
  <ele>1586.2</ele>
  <time>2026-08-27T18:24:33Z</time>
  <course>11.17</course>
  <speed>0.022360679774997897</speed>
  <fix>3d</fix>
</trkpt>
<trkpt lat="40.072842" lon="-105.230575">
  <ele>1586.09</ele>
  <time>2026-08-27T18:24:33Z</time>
  <course>200.01</course>
  <speed>0.0</speed>
  <fix>3d</fix>
</trkpt>
<trkpt lat="40.0728419" lon="-105.2305749">
  <ele>1586.2</ele>
  <time>2026-08-27T18:24:33Z</time>
  <course>11.17</course>
  <speed>0.022360679774997897</speed>
  <fix>3d</fix>
</trkpt>
<trkpt lat="40.072842" lon="-105.230575">
  <ele>1586.09</ele>
  <time>2026-08-27T18:24:33Z</time>
  <course>301.24</course>
  <speed>0.0</speed>
  <fix>3d</fix>
</trkpt>
<trkpt lat="40.0728419" lon="-105.2305749">
  <ele>1586.2</ele>
  <time>2026-08-27T18:24:33Z</time>
  <course>11.17</course>
  <speed>0.022360679774997897</speed>
  <fix>3d</fix>
</trkpt>
<trkpt lat="40.072842" lon="-105.230575">
  <ele>1586.09</ele>
  <time>2026-08-27T18:24:33Z</time>
  <course>291.78</course>
  <speed>0.0</speed>
  <fix>3d</fix>
</trkpt>
<trkpt lat="40.0728419" lon="-105.2305749">
  <ele>1586.2</ele>
  <time>2026-08-27T18:24:33Z</time>
  <course>11.18</course>
  <speed>0.022360679774997897</speed>
  <fix>3d</fix>
</trkpt>
<trkpt lat="40.072842" lon="-105.230575">
  <ele>1586.09</ele>
  <time>2026-08-27T18:24:33Z</time>
  <course>288.69</course>
  <speed>0.0</speed>
  <fix>3d</fix>
</trkpt>
<trkpt lat="40.0728419" lon="-105.2305749">
  <ele>1586.19</ele>
  <time>2026-08-27T18:24:33Z</time>
  <course>11.18</course>
  <speed>0.022360679774997897</speed>
  <fix>3d</fix>
</trkpt>
<trkpt lat="40.072842" lon="-105.230575">
  <ele>1586.09</ele>
  <time>2026-08-27T18:24:33Z</time>
  <course>290.6</course>
  <speed>0.0</speed>
  <fix>3d</fix>
</trkpt>
<trkpt lat="40.0728419" lon="-105.2305749">
  <ele>1586.19</ele>
  <time>2026-08-27T18:24:33Z</time>
  <course>11.18</course>
  <speed>0.022360679774997897</speed>
  <fix>3d</fix>
</trkpt>
<trkpt lat="40.072842" lon="-105.230575">
  <ele>1586.09</ele>
  <time>2026-08-27T18:24:33Z</time>
  <course>290.8</course>
  <speed>0.0</speed>
  <fix>3d</fix>
</trkpt>
<trkpt lat="40.0728419" lon="-105.2305749">
  <ele>1586.19</ele>
  <time>2026-08-27T18:24:33Z</time>
  <course>11.18</course>
  <speed>0.022360679774997897</speed>
  <fix>3d</fix>
</trkpt>
<trkpt lat="40.072842" lon="-105.230575">
  <ele>1586.09</ele>
  <time>2026-08-27T18:24:33Z</time>
  <course>290.53</course>
  <speed>0.0</speed>
  <fix>3d</fix>
</trkpt>
<trkpt lat="40.0728419" lon="-105.2305749">
  <ele>1586.18</ele>
  <time>2026-08-27T18:24:33Z</time>
  <course>11.18</course>
  <speed>0.022360679774997897</speed>
  <fix>3d</fix>
</trkpt>
<trkpt lat="40.072842" lon="-105.230575">
  <ele>1586.09</ele>
  <time>2026-08-27T18:24:33Z</time>
  <course>290.53</course>
  <speed>0.0</speed>
  <fix>3d</fix>
</trkpt>
<trkpt lat="40.0728419" lon="-105.2305749">
  <ele>1586.18</ele>
  <time>2026-08-27T18:24:33Z</time>
  <course>11.18</course>
  <speed>0.022360679774997897</speed>
  <fix>3d</fix>
</trkpt>
<trkpt lat="40.072842" lon="-105.230575">
  <ele>1586.09</ele>
  <time>2026-08-27T18:24:33Z</time>
  <course>290.57</course>
  <speed>0.0</speed>
  <fix>3d</fix>
</trkpt>
<trkpt lat="40.0728419" lon="-105.2305749">
  <ele>1586.18</ele>
  <time>2026-08-27T18:24:33Z</time>
  <course>11.19</course>
  <speed>0.022360679774997897</speed>
  <fix>3d</fix>
</trkpt>
<trkpt lat="40.072842" lon="-105.230575">
  <ele>1586.09</ele>
  <time>2026-08-27T18:24:33Z</time>
  <course>290.57</course>
  <speed>0.0</speed>
  <fix>3d</fix>
</trkpt>
<trkpt lat="40.0728419" lon="-105.2305749">
  <ele>1586.18</ele>
  <time>2026-08-27T18:24:33Z</time>
  <course>11.19</course>
  <speed>0.022360679774997897</speed>
  <fix>3d</fix>
</trkpt>
<trkpt lat="40.072842" lon="-105.230575">
  <ele>1586.09</ele>
  <time>2026-08-27T18:24:33Z</time>
  <course>290.56</course>
  <speed>0.0</speed>
  <fix>3d</fix>
</trkpt>
<trkpt lat="40.0728419" lon="-105.2305749">
  <ele>1586.18</ele>
  <time>2026-08-27T18:24:33Z</time>
  <course>11.19</course>
  <speed>0.022360679774997897</speed>
  <fix>3d</fix>
</trkpt>
<trkpt lat="40.072842" lon="-105.230575">
  <ele>1586.09</ele>
  <time>2026-08-27T18:24:33Z</time>
  <course>290.56</course>
  <speed>0.0</speed>
  <fix>3d</fix>
</trkpt>
<trkpt lat="40.0728419" lon="-105.2305749">
  <ele>1586.19</ele>
  <time>2026-08-27T18:24:33Z</time>
  <course>11.19</course>
  <speed>0.022360679774997897</speed>
  <fix>3d</fix>
</trkpt>
<trkpt lat="40.072842" lon="-105.230575">
  <ele>1586.09</ele>
  <time>2026-08-27T18:24:33Z</time>
  <course>290.56</course>
  <speed>0.0</speed>
  <fix>3d</fix>
</trkpt>
<trkpt lat="40.0728419" lon="-105.2305749">
  <ele>1586.2</ele>
  <time>2026-08-27T18:24:33Z</time>
  <course>11.19</course>
  <speed>0.022360679774997897</speed>
  <fix>3d</fix>
</trkpt>
<trkpt lat="40.072842" lon="-105.230575">
  <ele>1586.09</ele>
  <time>2026-08-27T18:24:33Z</time>
  <course>290.56</course>
  <speed>0.0</speed>
  <fix>3d</fix>
</trkpt>
<trkpt lat="40.0728419" lon="-105.2305749">
  <ele>1586.2</ele>
  <time>2026-08-27T18:24:33Z</time>
  <course>11.19</course>
  <speed>0.022360679774997897</speed>
  <fix>3d</fix>
</trkpt>
<trkpt lat="40.072842" lon="-105.230575">
  <ele>1586.09</ele>
  <time>2026-08-27T18:24:33Z</time>
  <course>290.56</course>
  <speed>0.0</speed>
  <fix>3d</fix>
</trkpt>
<trkpt lat="40.0728419" lon="-105.2305749">
  <ele>1586.2</ele>
  <time>2026-08-27T18:24:33Z</time>
  <course>11.2</course>
  <speed>0.022360679774997897</speed>
  <fix>3d</fix>
</trkpt>
<trkpt lat="40.072842" lon="-105.230575">
  <ele>1586.09</ele>
  <time>2026-08-27T18:24:33Z</time>
  <course>290.56</course>
  <speed>0.0</speed>
  <fix>3d</fix>
</trkpt>
<trkpt lat="40.0728419" lon="-105.2305749">
  <ele>1586.19</ele>
  <time>2026-08-27T18:24:33Z</time>
  <course>11.2</course>
  <speed>0.022360679774997897</speed>
  <fix>3d</fix>
</trkpt>
<trkpt lat="40.072842" lon="-105.230575">
  <ele>1586.09</ele>
  <time>2026-08-27T18:24:33Z</time>
  <course>290.56</course>
  <speed>0.0</speed>
  <fix>3d</fix>
</trkpt>
<trkpt lat="40.0728419" lon="-105.2305749">
  <ele>1586.19</ele>
  <time>2026-08-27T18:24:33Z</time>
  <course>11.2</course>
  <speed>0.022360679774997897</speed>
  <fix>3d</fix>
</trkpt>
<trkpt lat="40.072842" lon="-105.230575">
  <ele>1586.09</ele>
  <time>2026-08-27T18:24:33Z</time>
  <course>290.56</course>
  <speed>0.0</speed>
  <fix>3d</fix>
</trkpt>
<trkpt lat="40.0728419" lon="-105.2305749">
  <ele>1586.18</ele>
  <time>2026-08-27T18:24:33Z</time>
  <course>11.2</course>
  <speed>0.022360679774997897</speed>
  <fix>3d</fix>
</trkpt>
<trkpt lat="40.072842" lon="-105.230575">
  <ele>1586.09</ele>
  <time>2026-08-27T18:24:33Z</time>
  <course>290.56</course>
  <speed>0.0</speed>
  <fix>3d</fix>
</trkpt>
<trkpt lat="40.0728419" lon="-105.2305749">
  <ele>1586.18</ele>
  <time>2026-08-27T18:24:33Z</time>
  <course>11.2</course>
  <speed>0.022360679774997897</speed>
  <fix>3d</fix>
</trkpt>
<trkpt lat="40.072842" lon="-105.230575">
  <ele>1586.09</ele>
  <time>2026-08-27T18:24:33Z</time>
  <course>290.56</course>
  <speed>0.0</speed>
  <fix>3d</fix>
</trkpt>
<trkpt lat="40.0728419" lon="-105.2305749">
  <ele>1586.18</ele>
  <time>2026-08-27T18:24:33Z</time>
  <course>11.2</course>
  <speed>0.022360679774997897</speed>
  <fix>3d</fix>
</trkpt>
<trkpt lat="40.072842" lon="-105.230575">
  <ele>1586.09</ele>
  <time>2026-08-27T18:24:33Z</time>
  <course>290.56</course>
  <speed>0.0</speed>
  <fix>3d</fix>
</trkpt>
<trkpt lat="40.0728419" lon="-105.2305749">
  <ele>1586.18</ele>
  <time>2026-08-27T18:24:33Z</time>
  <course>11.21</course>
  <speed>0.022360679774997897</speed>
  <fix>3d</fix>
</trkpt>
<trkpt lat="40.072842" lon="-105.230575">
  <ele>1586.09</ele>
  <time>2026-08-27T18:24:33Z</time>
  <course>290.56</course>
  <speed>0.0</speed>
  <fix>3d</fix>
</trkpt>
<trkpt lat="40.0728419" lon="-105.2305749">
  <ele>1586.18</ele>
  <time>2026-08-27T18:24:33Z</time>
  <course>11.21</course>
  <speed>0.022360679774997897</speed>
  <fix>3d</fix>
</trkpt>
<trkpt lat="40.072842" lon="-105.230575">
  <ele>1586.09</ele>
  <time>2026-08-27T18:24:33Z</time>
  <course>290.56</course>
  <speed>0.0</speed>
  <fix>3d</fix>
</trkpt>
<trkpt lat="40.0728419" lon="-105.2305749">
  <ele>1586.18</ele>
  <time>2026-08-27T18:24:33Z</time>
  <course>11.21</course>
  <speed>0.022360679774997897</speed>
  <fix>3d</fix>
</trkpt>
<trkpt lat="40.072842" lon="-105.230575">
  <ele>1586.09</ele>
  <time>2026-08-27T18:24:33Z</time>
  <course>290.56</course>
  <speed>0.0</speed>
  <fix>3d</fix>
</trkpt>
<trkpt lat="40.0728419" lon="-105.2305749">
  <ele>1586.18</ele>
  <time>2026-08-27T18:24:33Z</time>
  <course>11.21</course>
  <speed>0.022360679774997897</speed>
  <fix>3d</fix>
</trkpt>
<trkpt lat="40.072842" lon="-105.230575">
  <ele>1586.09</ele>
  <time>2026-08-27T18:24:33Z</time>
  <course>290.56</course>
  <speed>0.0</speed>
  <fix>3d</fix>
</trkpt>
<trkpt lat="40.0728419" lon="-105.2305749">
  <ele>1586.18</ele>
  <time>2026-08-27T18:24:33Z</time>
  <course>11.21</course>
  <speed>0.022360679774997897</speed>
  <fix>3d</fix>
</trkpt>
<trkpt lat="40.072842" lon="-105.230575">
  <ele>1586.09</ele>
  <time>2026-08-27T18:24:33Z</time>
  <course>290.56</course>
  <speed>0.0</speed>
  <fix>3d</fix>
</trkpt>
<trkpt lat="40.0728419" lon="-105.2305749">
  <ele>1586.19</ele>
  <time>2026-08-27T18:24:33Z</time>
  <course>11.21</course>
  <speed>0.022360679774997897</speed>
  <fix>3d</fix>
</trkpt>
<trkpt lat="40.072842" lon="-105.230575">
  <ele>1586.09</ele>
  <time>2026-08-27T18:24:33Z</time>
  <course>290.56</course>
  <speed>0.0</speed>
  <fix>3d</fix>
</trkpt>
<trkpt lat="40.0728419" lon="-105.2305749">
  <ele>1586.19</ele>
  <time>2026-08-27T18:24:33Z</time>
  <course>11.21</course>
  <speed>0.022360679774997897</speed>
  <fix>3d</fix>
</trkpt>
<trkpt lat="40.072842" lon="-105.230575">
  <ele>1586.09</ele>
  <time>2026-08-27T18:24:33Z</time>
  <course>290.56</course>
  <speed>0.0</speed>
  <fix>3d</fix>
</trkpt>
<trkpt lat="40.0728419" lon="-105.2305749">
  <ele>1586.19</ele>
  <time>2026-08-27T18:24:33Z</time>
  <course>11.22</course>
  <speed>0.022360679774997897</speed>
  <fix>3d</fix>
</trkpt>
<trkpt lat="40.072842" lon="-105.230575">
  <ele>1586.09</ele>
  <time>2026-08-27T18:24:33Z</time>
  <course>290.56</course>
  <speed>0.0</speed>
  <fix>3d</fix>
</trkpt>
<trkpt lat="40.0728419" lon="-105.2305749">
  <ele>1586.19</ele>
  <time>2026-08-27T18:24:33Z</time>
  <course>11.22</course>
  <speed>0.022360679774997897</speed>
  <fix>3d</fix>
</trkpt>
<trkpt lat="40.072842" lon="-105.230575">
  <ele>1586.09</ele>
  <time>2026-08-27T18:24:33Z</time>
  <course>290.56</course>
  <speed>0.0</speed>
  <fix>3d</fix>
</trkpt>
<trkpt lat="40.0728419" lon="-105.2305749">
  <ele>1586.18</ele>
  <time>2026-08-27T18:24:33Z</time>
  <course>11.22</course>
  <speed>0.022360679774997897</speed>
  <fix>3d</fix>
</trkpt>
<trkpt lat="40.072842" lon="-105.230575">
  <ele>1586.09</ele>
  <time>2026-08-27T18:24:33Z</time>
  <course>290.56</course>
  <speed>0.0</speed>
  <fix>3d</fix>
</trkpt>
<trkpt lat="40.0728419" lon="-105.2305749">
  <ele>1586.18</ele>
  <time>2026-08-27T18:24:33Z</time>
  <course>11.22</course>
  <speed>0.022360679774997897</speed>
  <fix>3d</fix>
</trkpt>
<trkpt lat="40.072842" lon="-105.230575">
  <ele>1586.09</ele>
  <time>2026-08-27T18:24:33Z</time>
  <course>290.56</course>
  <speed>0.0</speed>
  <fix>3d</fix>
</trkpt>
<trkpt lat="40.0728419" lon="-105.2305749">
  <ele>1586.18</ele>
  <time>2026-08-27T18:24:33Z</time>
  <course>11.22</course>
  <speed>0.022360679774997897</speed>
  <fix>3d</fix>
</trkpt>
<trkpt lat="40.072842" lon="-105.230575">
  <ele>1586.09</ele>
  <time>2026-08-27T18:24:33Z</time>
  <course>290.56</course>
  <speed>0.0</speed>
  <fix>3d</fix>
</trkpt>
<trkpt lat="40.0728419" lon="-105.2305749">
  <ele>1586.19</ele>
  <time>2026-08-27T18:24:33Z</time>
  <course>11.22</course>
  <speed>0.022360679774997897</speed>
  <fix>3d</fix>
</trkpt>
<trkpt lat="40.072842" lon="-105.230575">
  <ele>1586.09</ele>
  <time>2026-08-27T18:24:33Z</time>
  <course>290.56</course>
  <speed>0.0</speed>
  <fix>3d</fix>
</trkpt>
<trkpt lat="40.0728419" lon="-105.2305749">
  <ele>1586.19</ele>
  <time>2026-08-27T18:24:33Z</time>
  <course>11.23</course>
  <speed>0.022360679774997897</speed>
  <fix>3d</fix>
</trkpt>
<trkpt lat="40.072842" lon="-105.230575">
  <ele>1586.09</ele>
  <time>2026-08-27T18:24:33Z</time>
  <course>290.56</course>
  <speed>0.0</speed>
  <fix>3d</fix>
</trkpt>
<trkpt lat="40.0728419" lon="-105.2305749">
  <ele>1586.19</ele>
  <time>2026-08-27T18:24:33Z</time>
  <course>11.23</course>
  <speed>0.022360679774997897</speed>
  <fix>3d</fix>
</trkpt>
<trkpt lat="40.072842" lon="-105.230575">
  <ele>1586.09</ele>
  <time>2026-08-27T18:24:33Z</time>
  <course>290.56</course>
  <speed>0.0</speed>
  <fix>3d</fix>
</trkpt>
<trkpt lat="40.0728419" lon="-105.2305749">
  <ele>1586.19</ele>
  <time>2026-08-27T18:24:33Z</time>
  <course>11.23</course>
  <speed>0.022360679774997897</speed>
  <fix>3d</fix>
</trkpt>
<trkpt lat="40.072842" lon="-105.230575">
  <ele>1586.09</ele>
  <time>2026-08-27T18:24:33Z</time>
  <course>290.56</course>
  <speed>0.0</speed>
  <fix>3d</fix>
</trkpt>
<trkpt lat="40.0728419" lon="-105.2305749">
  <ele>1586.19</ele>
  <time>2026-08-27T18:24:33Z</time>
  <course>11.23</course>
  <speed>0.022360679774997897</speed>
  <fix>3d</fix>
</trkpt>
<trkpt lat="40.072842" lon="-105.230575">
  <ele>1586.09</ele>
  <time>2026-08-27T18:24:33Z</time>
  <course>290.56</course>
  <speed>0.0</speed>
  <fix>3d</fix>
</trkpt>
<trkpt lat="40.0728419" lon="-105.2305749">
  <ele>1586.19</ele>
  <time>2026-08-27T18:24:33Z</time>
  <course>11.23</course>
  <speed>0.022360679774997897</speed>
  <fix>3d</fix>
</trkpt>
<trkpt lat="40.072842" lon="-105.230575">
  <ele>1586.09</ele>
  <time>2026-08-27T18:24:33Z</time>
  <course>290.56</course>
  <speed>0.0</speed>
  <fix>3d</fix>
</trkpt>
<trkpt lat="40.0728419" lon="-105.2305749">
  <ele>1586.19</ele>
  <time>2026-08-27T18:24:33Z</time>
  <course>11.23</course>
  <speed>0.022360679774997897</speed>
  <fix>3d</fix>
</trkpt>
<trkpt lat="40.072842" lon="-105.230575">
  <ele>1586.09</ele>
  <time>2026-08-27T18:24:33Z</time>
  <course>290.56</course>
  <speed>0.0</speed>
  <fix>3d</fix>
</trkpt>
<trkpt lat="40.0728419" lon="-105.2305749">
  <ele>1586.18</ele>
  <time>2026-08-27T18:24:33Z</time>
  <course>11.23</course>
  <speed>0.022360679774997897</speed>
  <fix>3d</fix>
</trkpt>
<trkpt lat="40.072842" lon="-105.230575">
  <ele>1586.09</ele>
  <time>2026-08-27T18:24:33Z</time>
  <course>290.56</course>
  <speed>0.0</speed>
  <fix>3d</fix>
</trkpt>
<trkpt lat="40.0728419" lon="-105.2305749">
  <ele>1586.18</ele>
  <time>2026-08-27T18:24:33Z</time>
  <course>11.24</course>
  <speed>0.022360679774997897</speed>
  <fix>3d</fix>
</trkpt>
<trkpt lat="40.072842" lon="-105.230575">
  <ele>1586.09</ele>
  <time>2026-08-27T18:24:33Z</time>
  <course>290.56</course>
  <speed>0.0</speed>
  <fix>3d</fix>
</trkpt>
<trkpt lat="40.0728419" lon="-105.2305749">
  <ele>1586.18</ele>
  <time>2026-08-27T18:24:33Z</time>
  <course>11.24</course>
  <speed>0.022360679774997897</speed>
  <fix>3d</fix>
</trkpt>
<trkpt lat="40.072842" lon="-105.230575">
  <ele>1586.09</ele>
  <time>2026-08-27T18:24:33Z</time>
  <course>290.56</course>
  <speed>0.0</speed>
  <fix>3d</fix>
</trkpt>
<trkpt lat="40.0728419" lon="-105.2305749">
  <ele>1586.18</ele>
  <time>2026-08-27T18:24:33Z</time>
  <course>11.24</course>
  <speed>0.022360679774997897</speed>
  <fix>3d</fix>
</trkpt>
<trkpt lat="40.072842" lon="-105.230575">
  <ele>1586.09</ele>
  <time>2026-08-27T18:24:33Z</time>
  <course>290.56</course>
  <speed>0.0</speed>
  <fix>3d</fix>
</trkpt>
<trkpt lat="40.0728419" lon="-105.2305749">
  <ele>1586.18</ele>
  <time>2026-08-27T18:24:33Z</time>
  <course>11.24</course>
  <speed>0.022360679774997897</speed>
  <fix>3d</fix>
</trkpt>
<trkpt lat="40.072842" lon="-105.230575">
  <ele>1586.09</ele>
  <time>2026-08-27T18:24:33Z</time>
  <course>290.56</course>
  <speed>0.0</speed>
  <fix>3d</fix>
</trkpt>
<trkpt lat="40.0728419" lon="-105.2305749">
  <ele>1586.19</ele>
  <time>2026-08-27T18:24:33Z</time>
  <course>11.24</course>
  <speed>0.022360679774997897</speed>
  <fix>3d</fix>
</trkpt>
<trkpt lat="40.072842" lon="-105.230575">
  <ele>1586.09</ele>
  <time>2026-08-27T18:24:33Z</time>
  <course>273.51</course>
  <speed>0.0</speed>
  <fix>3d</fix>
</trkpt>
<trkpt lat="40.0728419" lon="-105.2305749">
  <ele>1586.19</ele>
  <time>2026-08-27T18:24:33Z</time>
  <course>11.24</course>
  <speed>0.022360679774997897</speed>
  <fix>3d</fix>
</trkpt>
<trkpt lat="40.072842" lon="-105.230575">
  <ele>1586.09</ele>
  <time>2026-08-27T18:24:33Z</time>
  <course>227.31</course>
  <speed>0.0</speed>
  <fix>3d</fix>
</trkpt>
<trkpt lat="40.0728419" lon="-105.2305749">
  <ele>1586.2</ele>
  <time>2026-08-27T18:24:33Z</time>
  <course>11.24</course>
  <speed>0.022360679774997897</speed>
  <fix>3d</fix>
</trkpt>
<trkpt lat="40.072842" lon="-105.230575">
  <ele>1586.09</ele>
  <time>2026-08-27T18:24:33Z</time>
  <course>170.31</course>
  <speed>0.0</speed>
  <fix>3d</fix>
</trkpt>
<trkpt lat="40.0728419" lon="-105.2305749">
  <ele>1586.19</ele>
  <time>2026-08-27T18:24:33Z</time>
  <course>11.24</course>
  <speed>0.022360679774997897</speed>
  <fix>3d</fix>
</trkpt>
<trkpt lat="40.072842" lon="-105.230575">
  <ele>1586.09</ele>
  <time>2026-08-27T18:24:33Z</time>
  <course>180.45</course>
  <speed>0.0</speed>
  <fix>3d</fix>
</trkpt>
<trkpt lat="40.0728419" lon="-105.2305749">
  <ele>1586.19</ele>
  <time>2026-08-27T18:24:33Z</time>
  <course>11.25</course>
  <speed>0.022360679774997897</speed>
  <fix>3d</fix>
</trkpt>
<trkpt lat="40.072842" lon="-105.230575">
  <ele>1586.09</ele>
  <time>2026-08-27T18:24:33Z</time>
  <course>278.68</course>
  <speed>0.0</speed>
  <fix>3d</fix>
</trkpt>
<trkpt lat="40.0728419" lon="-105.2305749">
  <ele>1586.19</ele>
  <time>2026-08-27T18:24:33Z</time>
  <course>11.25</course>
  <speed>0.022360679774997897</speed>
  <fix>3d</fix>
</trkpt>
<trkpt lat="40.072842" lon="-105.230575">
  <ele>1586.09</ele>
  <time>2026-08-27T18:24:33Z</time>
  <course>284.46</course>
  <speed>0.0</speed>
  <fix>3d</fix>
</trkpt>
<trkpt lat="40.0728419" lon="-105.2305749">
  <ele>1586.19</ele>
  <time>2026-08-27T18:24:33Z</time>
  <course>11.25</course>
  <speed>0.022360679774997897</speed>
  <fix>3d</fix>
</trkpt>
<trkpt lat="40.072842" lon="-105.230575">
  <ele>1586.09</ele>
  <time>2026-08-27T18:24:33Z</time>
  <course>296.92</course>
  <speed>0.0</speed>
  <fix>3d</fix>
</trkpt>
<trkpt lat="40.0728419" lon="-105.2305749">
  <ele>1586.18</ele>
  <time>2026-08-27T18:24:33Z</time>
  <course>11.25</course>
  <speed>0.022360679774997897</speed>
  <fix>3d</fix>
</trkpt>
<trkpt lat="40.072842" lon="-105.230575">
  <ele>1586.09</ele>
  <time>2026-08-27T18:24:33Z</time>
  <course>302.21</course>
  <speed>0.0</speed>
  <fix>3d</fix>
</trkpt>
<trkpt lat="40.0728419" lon="-105.2305749">
  <ele>1586.18</ele>
  <time>2026-08-27T18:24:33Z</time>
  <course>11.25</course>
  <speed>0.022360679774997897</speed>
  <fix>3d</fix>
</trkpt>
<trkpt lat="40.072842" lon="-105.230575">
  <ele>1586.09</ele>
  <time>2026-08-27T18:24:33Z</time>
  <course>246.79</course>
  <speed>0.0</speed>
  <fix>3d</fix>
</trkpt>
<trkpt lat="40.0728419" lon="-105.2305749">
  <ele>1586.18</ele>
  <time>2026-08-27T18:24:33Z</time>
  <course>11.25</course>
  <speed>0.022360679774997897</speed>
  <fix>3d</fix>
</trkpt>
<trkpt lat="40.072842" lon="-105.230575">
  <ele>1586.09</ele>
  <time>2026-08-27T18:24:33Z</time>
  <course>193.47</course>
  <speed>0.0</speed>
  <fix>3d</fix>
</trkpt>
<trkpt lat="40.0728419" lon="-105.2305749">
  <ele>1586.18</ele>
  <time>2026-08-27T18:24:33Z</time>
  <course>11.25</course>
  <speed>0.022360679774997897</speed>
  <fix>3d</fix>
</trkpt>
<trkpt lat="40.072842" lon="-105.230575">
  <ele>1586.09</ele>
  <time>2026-08-27T18:24:33Z</time>
  <course>181.81</course>
  <speed>0.0</speed>
  <fix>3d</fix>
</trkpt>
<trkpt lat="40.0728419" lon="-105.2305749">
  <ele>1586.18</ele>
  <time>2026-08-27T18:24:33Z</time>
  <course>11.25</course>
  <speed>0.022360679774997897</speed>
  <fix>3d</fix>
</trkpt>
<trkpt lat="40.072842" lon="-105.230575">
  <ele>1586.09</ele>
  <time>2026-08-27T18:24:33Z</time>
  <course>243.72</course>
  <speed>0.0</speed>
  <fix>3d</fix>
</trkpt>
<trkpt lat="40.0728419" lon="-105.2305749">
  <ele>1586.19</ele>
  <time>2026-08-27T18:24:33Z</time>
  <course>11.26</course>
  <speed>0.022360679774997897</speed>
  <fix>3d</fix>
</trkpt>
<trkpt lat="40.072842" lon="-105.230575">
  <ele>1586.09</ele>
  <time>2026-08-27T18:24:33Z</time>
  <course>292.11</course>
  <speed>0.0</speed>
  <fix>3d</fix>
</trkpt>
<trkpt lat="40.0728419" lon="-105.2305749">
  <ele>1586.19</ele>
  <time>2026-08-27T18:24:33Z</time>
  <course>11.26</course>
  <speed>0.022360679774997897</speed>
  <fix>3d</fix>
</trkpt>
<trkpt lat="40.072842" lon="-105.230575">
  <ele>1586.09</ele>
  <time>2026-08-27T18:24:33Z</time>
  <course>281.2</course>
  <speed>0.0</speed>
  <fix>3d</fix>
</trkpt>
<trkpt lat="40.0728419" lon="-105.2305749">
  <ele>1586.18</ele>
  <time>2026-08-27T18:24:33Z</time>
  <course>11.26</course>
  <speed>0.022360679774997897</speed>
  <fix>3d</fix>
</trkpt>
<trkpt lat="40.072842" lon="-105.230575">
  <ele>1586.09</ele>
  <time>2026-08-27T18:24:33Z</time>
  <course>278.87</course>
  <speed>0.0</speed>
  <fix>3d</fix>
</trkpt>
<trkpt lat="40.0728419" lon="-105.2305749">
  <ele>1586.18</ele>
  <time>2026-08-27T18:24:33Z</time>
  <course>11.26</course>
  <speed>0.022360679774997897</speed>
  <fix>3d</fix>
</trkpt>
<trkpt lat="40.072842" lon="-105.230575">
  <ele>1586.09</ele>
  <time>2026-08-27T18:24:33Z</time>
  <course>280.99</course>
  <speed>0.0</speed>
  <fix>3d</fix>
</trkpt>
<trkpt lat="40.0728419" lon="-105.2305749">
  <ele>1586.18</ele>
  <time>2026-08-27T18:24:33Z</time>
  <course>11.26</course>
  <speed>0.022360679774997897</speed>
  <fix>3d</fix>
</trkpt>
<trkpt lat="40.072842" lon="-105.230575">
  <ele>1586.09</ele>
  <time>2026-08-27T18:24:33Z</time>
  <course>281.04</course>
  <speed>0.0</speed>
  <fix>3d</fix>
</trkpt>
<trkpt lat="40.0728419" lon="-105.2305749">
  <ele>1586.17</ele>
  <time>2026-08-27T18:24:33Z</time>
  <course>11.26</course>
  <speed>0.022360679774997897</speed>
  <fix>3d</fix>
</trkpt>
<trkpt lat="40.072842" lon="-105.230575">
  <ele>1586.09</ele>
  <time>2026-08-27T18:24:33Z</time>
  <course>208.49</course>
  <speed>0.0</speed>
  <fix>3d</fix>
</trkpt>
<trkpt lat="40.0728419" lon="-105.2305749">
  <ele>1586.17</ele>
  <time>2026-08-27T18:24:33Z</time>
  <course>11.26</course>
  <speed>0.022360679774997897</speed>
  <fix>3d</fix>
</trkpt>
<trkpt lat="40.072842" lon="-105.230575">
  <ele>1586.09</ele>
  <time>2026-08-27T18:24:33Z</time>
  <course>198.73</course>
  <speed>0.0</speed>
  <fix>3d</fix>
</trkpt>
<trkpt lat="40.0728419" lon="-105.2305749">
  <ele>1586.16</ele>
  <time>2026-08-27T18:24:33Z</time>
  <course>11.26</course>
  <speed>0.022360679774997897</speed>
  <fix>3d</fix>
</trkpt>
<trkpt lat="40.072842" lon="-105.230575">
  <ele>1586.09</ele>
  <time>2026-08-27T18:24:33Z</time>
  <course>189.39</course>
  <speed>0.0</speed>
  <fix>3d</fix>
</trkpt>
<trkpt lat="40.0728419" lon="-105.2305749">
  <ele>1586.16</ele>
  <time>2026-08-27T18:24:33Z</time>
  <course>11.26</course>
  <speed>0.022360679774997897</speed>
  <fix>3d</fix>
</trkpt>
<trkpt lat="40.072842" lon="-105.230575">
  <ele>1586.09</ele>
  <time>2026-08-27T18:24:33Z</time>
  <course>24.63</course>
  <speed>0.0</speed>
  <fix>3d</fix>
</trkpt>
<trkpt lat="40.0728419" lon="-105.2305749">
  <ele>1586.16</ele>
  <time>2026-08-27T18:24:33Z</time>
  <course>11.27</course>
  <speed>0.022360679774997897</speed>
  <fix>3d</fix>
</trkpt>
<trkpt lat="40.072842" lon="-105.230575">
  <ele>1586.09</ele>
  <time>2026-08-27T18:24:33Z</time>
  <course>303.58</course>
  <speed>0.0</speed>
  <fix>3d</fix>
</trkpt>
<trkpt lat="40.0728419" lon="-105.2305749">
  <ele>1586.15</ele>
  <time>2026-08-27T18:24:33Z</time>
  <course>11.27</course>
  <speed>0.022360679774997897</speed>
  <fix>3d</fix>
</trkpt>
<trkpt lat="40.072842" lon="-105.230575">
  <ele>1586.09</ele>
  <time>2026-08-27T18:24:33Z</time>
  <course>231.14</course>
  <speed>0.0</speed>
  <fix>3d</fix>
</trkpt>
<trkpt lat="40.0728419" lon="-105.2305749">
  <ele>1586.15</ele>
  <time>2026-08-27T18:24:33Z</time>
  <course>11.27</course>
  <speed>0.022360679774997897</speed>
  <fix>3d</fix>
</trkpt>
<trkpt lat="40.072842" lon="-105.230575">
  <ele>1586.09</ele>
  <time>2026-08-27T18:24:33Z</time>
  <course>238.82</course>
  <speed>0.0</speed>
  <fix>3d</fix>
</trkpt>
<trkpt lat="40.0728419" lon="-105.2305749">
  <ele>1586.14</ele>
  <time>2026-08-27T18:24:33Z</time>
  <course>11.27</course>
  <speed>0.022360679774997897</speed>
  <fix>3d</fix>
</trkpt>
<trkpt lat="40.072842" lon="-105.230575">
  <ele>1586.09</ele>
  <time>2026-08-27T18:24:33Z</time>
  <course>248.69</course>
  <speed>0.0</speed>
  <fix>3d</fix>
</trkpt>
<trkpt lat="40.0728419" lon="-105.2305749">
  <ele>1586.14</ele>
  <time>2026-08-27T18:24:33Z</time>
  <course>11.27</course>
  <speed>0.022360679774997897</speed>
  <fix>3d</fix>
</trkpt>
<trkpt lat="40.072842" lon="-105.230575">
  <ele>1586.09</ele>
  <time>2026-08-27T18:24:33Z</time>
  <course>245.44</course>
  <speed>0.0</speed>
  <fix>3d</fix>
</trkpt>
<trkpt lat="40.0728419" lon="-105.2305749">
  <ele>1586.14</ele>
  <time>2026-08-27T18:24:33Z</time>
  <course>11.27</course>
  <speed>0.022360679774997897</speed>
  <fix>3d</fix>
</trkpt>
<trkpt lat="40.072842" lon="-105.230575">
  <ele>1586.09</ele>
  <time>2026-08-27T18:24:33Z</time>
  <course>244.53</course>
  <speed>0.0</speed>
  <fix>3d</fix>
</trkpt>
<trkpt lat="40.0728419" lon="-105.2305749">
  <ele>1586.14</ele>
  <time>2026-08-27T18:24:33Z</time>
  <course>11.27</course>
  <speed>0.022360679774997897</speed>
  <fix>3d</fix>
</trkpt>
<trkpt lat="40.072842" lon="-105.230575">
  <ele>1586.09</ele>
  <time>2026-08-27T18:24:33Z</time>
  <course>245.04</course>
  <speed>0.0</speed>
  <fix>3d</fix>
</trkpt>
<trkpt lat="40.0728419" lon="-105.2305749">
  <ele>1586.14</ele>
  <time>2026-08-27T18:24:33Z</time>
  <course>11.27</course>
  <speed>0.022360679774997897</speed>
  <fix>3d</fix>
</trkpt>
<trkpt lat="40.072842" lon="-105.230575">
  <ele>1586.09</ele>
  <time>2026-08-27T18:24:33Z</time>
  <course>245.1</course>
  <speed>0.0</speed>
  <fix>3d</fix>
</trkpt>
<trkpt lat="40.0728419" lon="-105.2305749">
  <ele>1586.14</ele>
  <time>2026-08-27T18:24:33Z</time>
  <course>11.27</course>
  <speed>0.022360679774997897</speed>
  <fix>3d</fix>
</trkpt>
<trkpt lat="40.072842" lon="-105.230575">
  <ele>1586.09</ele>
  <time>2026-08-27T18:24:33Z</time>
  <course>245.03</course>
  <speed>0.0</speed>
  <fix>3d</fix>
</trkpt>
<trkpt lat="40.0728419" lon="-105.2305749">
  <ele>1586.15</ele>
  <time>2026-08-27T18:24:33Z</time>
  <course>11.28</course>
  <speed>0.022360679774997897</speed>
  <fix>3d</fix>
</trkpt>
<trkpt lat="40.072842" lon="-105.230575">
  <ele>1586.09</ele>
  <time>2026-08-27T18:24:33Z</time>
  <course>245.03</course>
  <speed>0.0</speed>
  <fix>3d</fix>
</trkpt>
<trkpt lat="40.0728419" lon="-105.2305749">
  <ele>1586.15</ele>
  <time>2026-08-27T18:24:33Z</time>
  <course>11.28</course>
  <speed>0.022360679774997897</speed>
  <fix>3d</fix>
</trkpt>
<trkpt lat="40.072842" lon="-105.230575">
  <ele>1586.09</ele>
  <time>2026-08-27T18:24:33Z</time>
  <course>224.46</course>
  <speed>0.0</speed>
  <fix>3d</fix>
</trkpt>
<trkpt lat="40.0728419" lon="-105.2305749">
  <ele>1586.15</ele>
  <time>2026-08-27T18:24:33Z</time>
  <course>11.28</course>
  <speed>0.022360679774997897</speed>
  <fix>3d</fix>
</trkpt>
<trkpt lat="40.072842" lon="-105.230575">
  <ele>1586.09</ele>
  <time>2026-08-27T18:24:33Z</time>
  <course>241.28</course>
  <speed>0.0</speed>
  <fix>3d</fix>
</trkpt>
<trkpt lat="40.0728419" lon="-105.2305749">
  <ele>1586.15</ele>
  <time>2026-08-27T18:24:33Z</time>
  <course>11.28</course>
  <speed>0.022360679774997897</speed>
  <fix>3d</fix>
</trkpt>
<trkpt lat="40.072842" lon="-105.230575">
  <ele>1586.09</ele>
  <time>2026-08-27T18:24:33Z</time>
  <course>243.21</course>
  <speed>0.0</speed>
  <fix>3d</fix>
</trkpt>
<trkpt lat="40.0728419" lon="-105.2305749">
  <ele>1586.15</ele>
  <time>2026-08-27T18:24:33Z</time>
  <course>11.28</course>
  <speed>0.01414213562373095</speed>
  <fix>3d</fix>
</trkpt>
<trkpt lat="40.072842" lon="-105.230575">
  <ele>1586.09</ele>
  <time>2026-08-27T18:24:33Z</time>
  <course>241.41</course>
  <speed>0.0</speed>
  <fix>3d</fix>
</trkpt>
<trkpt lat="40.0728419" lon="-105.2305749">
  <ele>1586.15</ele>
  <time>2026-08-27T18:24:33Z</time>
  <course>11.28</course>
  <speed>0.01414213562373095</speed>
  <fix>3d</fix>
</trkpt>
<trkpt lat="40.072842" lon="-105.230575">
  <ele>1586.09</ele>
  <time>2026-08-27T18:24:33Z</time>
  <course>326.57</course>
  <speed>0.0</speed>
  <fix>3d</fix>
</trkpt>
<trkpt lat="40.0728419" lon="-105.2305749">
  <ele>1586.15</ele>
  <time>2026-08-27T18:24:33Z</time>
  <course>11.28</course>
  <speed>0.01</speed>
  <fix>3d</fix>
</trkpt>
<trkpt lat="40.072842" lon="-105.230575">
  <ele>1586.09</ele>
  <time>2026-08-27T18:24:33Z</time>
  <course>13.12</course>
  <speed>0.0</speed>
  <fix>3d</fix>
</trkpt>
<trkpt lat="40.0728419" lon="-105.2305749">
  <ele>1586.15</ele>
  <time>2026-08-27T18:24:33Z</time>
  <course>11.28</course>
  <speed>0.01</speed>
  <fix>3d</fix>
</trkpt>
<trkpt lat="40.072842" lon="-105.230575">
  <ele>1586.09</ele>
  <time>2026-08-27T18:24:33Z</time>
  <course>6.0</course>
  <speed>0.0</speed>
  <fix>3d</fix>
</trkpt>
<trkpt lat="40.0728419" lon="-105.2305749">
  <ele>1586.15</ele>
  <time>2026-08-27T18:24:33Z</time>
  <course>11.28</course>
  <speed>0.0</speed>
  <fix>3d</fix>
</trkpt>
<trkpt lat="40.072842" lon="-105.230575">
  <ele>1586.09</ele>
  <time>2026-08-27T18:24:33Z</time>
  <course>343.46</course>
  <speed>0.0</speed>
  <fix>3d</fix>
</trkpt>
<trkpt lat="40.0728419" lon="-105.2305749">
  <ele>1586.15</ele>
  <time>2026-08-27T18:24:33Z</time>
  <course>11.29</course>
  <speed>0.0</speed>
  <fix>3d</fix>
</trkpt>
<trkpt lat="40.072842" lon="-105.230575">
  <ele>1586.09</ele>
  <time>2026-08-27T18:24:33Z</time>
  <course>224.58</course>
  <speed>0.0</speed>
  <fix>3d</fix>
</trkpt>
<trkpt lat="40.0728419" lon="-105.2305749">
  <ele>1586.15</ele>
  <time>2026-08-27T18:24:33Z</time>
  <course>11.29</course>
  <speed>0.0</speed>
  <fix>3d</fix>
</trkpt>
<trkpt lat="40.072842" lon="-105.230575">
  <ele>1586.09</ele>
  <time>2026-08-27T18:24:33Z</time>
  <course>188.81</course>
  <speed>0.0</speed>
  <fix>3d</fix>
</trkpt>
<trkpt lat="40.0728419" lon="-105.2305749">
  <ele>1586.16</ele>
  <time>2026-08-27T18:24:33Z</time>
  <course>11.29</course>
  <speed>0.0</speed>
  <fix>3d</fix>
</trkpt>
<trkpt lat="40.072842" lon="-105.230575">
  <ele>1586.09</ele>
  <time>2026-08-27T18:24:33Z</time>
  <course>324.75</course>
  <speed>0.0</speed>
  <fix>3d</fix>
</trkpt>
<trkpt lat="40.0728419" lon="-105.2305749">
  <ele>1586.16</ele>
  <time>2026-08-27T18:24:33Z</time>
  <course>11.29</course>
  <speed>0.0</speed>
  <fix>3d</fix>
</trkpt>
<trkpt lat="40.072842" lon="-105.230575">
  <ele>1586.09</ele>
  <time>2026-08-27T18:24:33Z</time>
  <course>292.0</course>
  <speed>0.0</speed>
  <fix>3d</fix>
</trkpt>
<trkpt lat="40.0728419" lon="-105.2305749">
  <ele>1586.16</ele>
  <time>2026-08-27T18:24:33Z</time>
  <course>11.29</course>
  <speed>0.0</speed>
  <fix>3d</fix>
</trkpt>
<trkpt lat="40.072842" lon="-105.230575">
  <ele>1586.09</ele>
  <time>2026-08-27T18:24:33Z</time>
  <course>2.25</course>
  <speed>0.0</speed>
  <fix>3d</fix>
</trkpt>
<trkpt lat="40.0728419" lon="-105.2305749">
  <ele>1586.16</ele>
  <time>2026-08-27T18:24:33Z</time>
  <course>11.29</course>
  <speed>0.0</speed>
  <fix>3d</fix>
</trkpt>
<trkpt lat="40.072842" lon="-105.230575">
  <ele>1586.09</ele>
  <time>2026-08-27T18:24:33Z</time>
  <course>356.35</course>
  <speed>0.0</speed>
  <fix>3d</fix>
</trkpt>
<trkpt lat="40.0728419" lon="-105.2305749">
  <ele>1586.16</ele>
  <time>2026-08-27T18:24:33Z</time>
  <course>11.29</course>
  <speed>0.0</speed>
  <fix>3d</fix>
</trkpt>
<trkpt lat="40.072842" lon="-105.230575">
  <ele>1586.09</ele>
  <time>2026-08-27T18:24:33Z</time>
  <course>328.69</course>
  <speed>0.0</speed>
  <fix>3d</fix>
</trkpt>
<trkpt lat="40.0728419" lon="-105.2305749">
  <ele>1586.16</ele>
  <time>2026-08-27T18:24:33Z</time>
  <course>11.29</course>
  <speed>0.0</speed>
  <fix>3d</fix>
</trkpt>
<trkpt lat="40.072842" lon="-105.230575">
  <ele>1586.09</ele>
  <time>2026-08-27T18:24:33Z</time>
  <course>200.18</course>
  <speed>0.0</speed>
  <fix>3d</fix>
</trkpt>
<trkpt lat="40.0728419" lon="-105.2305749">
  <ele>1586.15</ele>
  <time>2026-08-27T18:24:33Z</time>
  <course>11.3</course>
  <speed>0.0</speed>
  <fix>3d</fix>
</trkpt>
<trkpt lat="40.072842" lon="-105.230575">
  <ele>1586.09</ele>
  <time>2026-08-27T18:24:33Z</time>
  <course>325.12</course>
  <speed>0.0</speed>
  <fix>3d</fix>
</trkpt>
<trkpt lat="40.0728419" lon="-105.2305749">
  <ele>1586.15</ele>
  <time>2026-08-27T18:24:33Z</time>
  <course>11.3</course>
  <speed>0.0</speed>
  <fix>3d</fix>
</trkpt>
<trkpt lat="40.072842" lon="-105.230575">
  <ele>1586.09</ele>
  <time>2026-08-27T18:24:33Z</time>
  <course>327.84</course>
  <speed>0.0</speed>
  <fix>3d</fix>
</trkpt>
<trkpt lat="40.0728419" lon="-105.2305749">
  <ele>1586.15</ele>
  <time>2026-08-27T18:24:33Z</time>
  <course>11.3</course>
  <speed>0.0</speed>
  <fix>3d</fix>
</trkpt>
<trkpt lat="40.072842" lon="-105.230575">
  <ele>1586.09</ele>
  <time>2026-08-27T18:24:33Z</time>
  <course>319.68</course>
  <speed>0.0</speed>
  <fix>3d</fix>
</trkpt>
<trkpt lat="40.0728419" lon="-105.2305749">
  <ele>1586.15</ele>
  <time>2026-08-27T18:24:33Z</time>
  <course>11.3</course>
  <speed>0.0</speed>
  <fix>3d</fix>
</trkpt>
<trkpt lat="40.072842" lon="-105.230575">
  <ele>1586.09</ele>
  <time>2026-08-27T18:24:33Z</time>
  <course>256.73</course>
  <speed>0.0</speed>
  <fix>3d</fix>
</trkpt>
<trkpt lat="40.0728419" lon="-105.2305749">
  <ele>1586.15</ele>
  <time>2026-08-27T18:24:33Z</time>
  <course>11.3</course>
  <speed>0.0</speed>
  <fix>3d</fix>
</trkpt>
<trkpt lat="40.072842" lon="-105.230575">
  <ele>1586.09</ele>
  <time>2026-08-27T18:24:33Z</time>
  <course>337.01</course>
  <speed>0.0</speed>
  <fix>3d</fix>
</trkpt>
<trkpt lat="40.0728419" lon="-105.2305749">
  <ele>1586.15</ele>
  <time>2026-08-27T18:24:33Z</time>
  <course>11.3</course>
  <speed>0.0</speed>
  <fix>3d</fix>
</trkpt>
<trkpt lat="40.072842" lon="-105.230575">
  <ele>1586.09</ele>
  <time>2026-08-27T18:24:33Z</time>
  <course>322.36</course>
  <speed>0.0</speed>
  <fix>3d</fix>
</trkpt>
<trkpt lat="40.0728419" lon="-105.2305749">
  <ele>1586.15</ele>
  <time>2026-08-27T18:24:33Z</time>
  <course>11.3</course>
  <speed>0.0</speed>
  <fix>3d</fix>
</trkpt>
<trkpt lat="40.072842" lon="-105.230575">
  <ele>1586.09</ele>
  <time>2026-08-27T18:24:33Z</time>
  <course>317.11</course>
  <speed>0.0</speed>
  <fix>3d</fix>
</trkpt>
<trkpt lat="40.0728419" lon="-105.2305749">
  <ele>1586.16</ele>
  <time>2026-08-27T18:24:33Z</time>
  <course>11.31</course>
  <speed>0.0</speed>
  <fix>3d</fix>
</trkpt>
<trkpt lat="40.072842" lon="-105.230575">
  <ele>1586.09</ele>
  <time>2026-08-27T18:24:33Z</time>
  <course>317.97</course>
  <speed>0.0</speed>
  <fix>3d</fix>
</trkpt>
<trkpt lat="40.0728419" lon="-105.2305749">
  <ele>1586.16</ele>
  <time>2026-08-27T18:24:33Z</time>
  <course>11.31</course>
  <speed>0.0</speed>
  <fix>3d</fix>
</trkpt>
<trkpt lat="40.072842" lon="-105.230575">
  <ele>1586.09</ele>
  <time>2026-08-27T18:24:33Z</time>
  <course>318.67</course>
  <speed>0.0</speed>
  <fix>3d</fix>
</trkpt>
<trkpt lat="40.0728419" lon="-105.2305749">
  <ele>1586.16</ele>
  <time>2026-08-27T18:24:33Z</time>
  <course>11.31</course>
  <speed>0.0</speed>
  <fix>3d</fix>
</trkpt>
<trkpt lat="40.072842" lon="-105.230575">
  <ele>1586.09</ele>
  <time>2026-08-27T18:24:33Z</time>
  <course>318.46</course>
  <speed>0.0</speed>
  <fix>3d</fix>
</trkpt>
<trkpt lat="40.0728419" lon="-105.2305749">
  <ele>1586.16</ele>
  <time>2026-08-27T18:24:33Z</time>
  <course>11.31</course>
  <speed>0.01</speed>
  <fix>3d</fix>
</trkpt>
<trkpt lat="40.072842" lon="-105.230575">
  <ele>1586.09</ele>
  <time>2026-08-27T18:24:33Z</time>
  <course>318.39</course>
  <speed>0.0</speed>
  <fix>3d</fix>
</trkpt>
<trkpt lat="40.0728419" lon="-105.2305749">
  <ele>1586.17</ele>
  <time>2026-08-27T18:24:33Z</time>
  <course>11.31</course>
  <speed>0.01</speed>
  <fix>3d</fix>
</trkpt>
<trkpt lat="40.072842" lon="-105.230575">
  <ele>1586.09</ele>
  <time>2026-08-27T18:24:33Z</time>
  <course>318.43</course>
  <speed>0.0</speed>
  <fix>3d</fix>
</trkpt>
<trkpt lat="40.0728419" lon="-105.2305749">
  <ele>1586.17</ele>
  <time>2026-08-27T18:24:33Z</time>
  <course>11.32</course>
  <speed>0.01</speed>
  <fix>3d</fix>
</trkpt>
<trkpt lat="40.072842" lon="-105.230575">
  <ele>1586.09</ele>
  <time>2026-08-27T18:24:33Z</time>
  <course>318.43</course>
  <speed>0.0</speed>
  <fix>3d</fix>
</trkpt>
<trkpt lat="40.0728419" lon="-105.2305749">
  <ele>1586.17</ele>
  <time>2026-08-27T18:24:33Z</time>
  <course>11.32</course>
  <speed>0.01</speed>
  <fix>3d</fix>
</trkpt>
<trkpt lat="40.072842" lon="-105.230575">
  <ele>1586.09</ele>
  <time>2026-08-27T18:24:33Z</time>
  <course>318.43</course>
  <speed>0.0</speed>
  <fix>3d</fix>
</trkpt>
<trkpt lat="40.0728419" lon="-105.2305749">
  <ele>1586.16</ele>
  <time>2026-08-27T18:24:33Z</time>
  <course>11.32</course>
  <speed>0.01414213562373095</speed>
  <fix>3d</fix>
</trkpt>
<trkpt lat="40.072842" lon="-105.230575">
  <ele>1586.09</ele>
  <time>2026-08-27T18:24:33Z</time>
  <course>215.64</course>
  <speed>0.0</speed>
  <fix>3d</fix>
</trkpt>
<trkpt lat="40.0728419" lon="-105.2305749">
  <ele>1586.16</ele>
  <time>2026-08-27T18:24:33Z</time>
  <course>11.32</course>
  <speed>0.01414213562373095</speed>
  <fix>3d</fix>
</trkpt>
<trkpt lat="40.072842" lon="-105.230575">
  <ele>1586.09</ele>
  <time>2026-08-27T18:24:33Z</time>
  <course>191.37</course>
  <speed>0.0</speed>
  <fix>3d</fix>
</trkpt>
<trkpt lat="40.0728419" lon="-105.2305749">
  <ele>1586.16</ele>
  <time>2026-08-27T18:24:33Z</time>
  <course>11.33</course>
  <speed>0.01414213562373095</speed>
  <fix>3d</fix>
</trkpt>
<trkpt lat="40.072842" lon="-105.230575">
  <ele>1586.09</ele>
  <time>2026-08-27T18:24:33Z</time>
  <course>154.14</course>
  <speed>0.0</speed>
  <fix>3d</fix>
</trkpt>
<trkpt lat="40.0728419" lon="-105.2305749">
  <ele>1586.17</ele>
  <time>2026-08-27T18:24:33Z</time>
  <course>11.33</course>
  <speed>0.01414213562373095</speed>
  <fix>3d</fix>
</trkpt>
<trkpt lat="40.072842" lon="-105.230575">
  <ele>1586.09</ele>
  <time>2026-08-27T18:24:33Z</time>
  <course>3.95</course>
  <speed>0.0</speed>
  <fix>3d</fix>
</trkpt>
<trkpt lat="40.0728419" lon="-105.2305749">
  <ele>1586.17</ele>
  <time>2026-08-27T18:24:33Z</time>
  <course>11.33</course>
  <speed>0.01414213562373095</speed>
  <fix>3d</fix>
</trkpt>
<trkpt lat="40.072842" lon="-105.230575">
  <ele>1586.09</ele>
  <time>2026-08-27T18:24:33Z</time>
  <course>295.47</course>
  <speed>0.0</speed>
  <fix>3d</fix>
</trkpt>
<trkpt lat="40.0728419" lon="-105.2305749">
  <ele>1586.17</ele>
  <time>2026-08-27T18:24:33Z</time>
  <course>11.33</course>
  <speed>0.01414213562373095</speed>
  <fix>3d</fix>
</trkpt>
<trkpt lat="40.072842" lon="-105.230575">
  <ele>1586.09</ele>
  <time>2026-08-27T18:24:33Z</time>
  <course>252.28</course>
  <speed>0.0</speed>
  <fix>3d</fix>
</trkpt>
<trkpt lat="40.0728419" lon="-105.2305749">
  <ele>1586.16</ele>
  <time>2026-08-27T18:24:33Z</time>
  <course>11.33</course>
  <speed>0.01414213562373095</speed>
  <fix>3d</fix>
</trkpt>
<trkpt lat="40.072842" lon="-105.230575">
  <ele>1586.09</ele>
  <time>2026-08-27T18:24:33Z</time>
  <course>288.12</course>
  <speed>0.0</speed>
  <fix>3d</fix>
</trkpt>
<trkpt lat="40.0728419" lon="-105.2305749">
  <ele>1586.16</ele>
  <time>2026-08-27T18:24:33Z</time>
  <course>11.34</course>
  <speed>0.01414213562373095</speed>
  <fix>3d</fix>
</trkpt>
<trkpt lat="40.072842" lon="-105.230575">
  <ele>1586.09</ele>
  <time>2026-08-27T18:24:33Z</time>
  <course>290.48</course>
  <speed>0.0</speed>
  <fix>3d</fix>
</trkpt>
<trkpt lat="40.0728419" lon="-105.2305749">
  <ele>1586.16</ele>
  <time>2026-08-27T18:24:33Z</time>
  <course>11.34</course>
  <speed>0.01414213562373095</speed>
  <fix>3d</fix>
</trkpt>
<trkpt lat="40.072842" lon="-105.230575">
  <ele>1586.09</ele>
  <time>2026-08-27T18:24:33Z</time>
  <course>285.45</course>
  <speed>0.0</speed>
  <fix>3d</fix>
</trkpt>
<trkpt lat="40.0728419" lon="-105.2305749">
  <ele>1586.16</ele>
  <time>2026-08-27T18:24:33Z</time>
  <course>11.34</course>
  <speed>0.01414213562373095</speed>
  <fix>3d</fix>
</trkpt>
<trkpt lat="40.072842" lon="-105.230575">
  <ele>1586.09</ele>
  <time>2026-08-27T18:24:33Z</time>
  <course>285.68</course>
  <speed>0.0</speed>
  <fix>3d</fix>
</trkpt>
<trkpt lat="40.0728419" lon="-105.2305749">
  <ele>1586.16</ele>
  <time>2026-08-27T18:24:33Z</time>
  <course>11.34</course>
  <speed>0.01414213562373095</speed>
  <fix>3d</fix>
</trkpt>
<trkpt lat="40.072842" lon="-105.230575">
  <ele>1586.09</ele>
  <time>2026-08-27T18:24:33Z</time>
  <course>282.9</course>
  <speed>0.0</speed>
  <fix>3d</fix>
</trkpt>
<trkpt lat="40.0728419" lon="-105.2305749">
  <ele>1586.16</ele>
  <time>2026-08-27T18:24:33Z</time>
  <course>11.34</course>
  <speed>0.01414213562373095</speed>
  <fix>3d</fix>
</trkpt>
<trkpt lat="40.072842" lon="-105.230575">
  <ele>1586.09</ele>
  <time>2026-08-27T18:24:33Z</time>
  <course>285.74</course>
  <speed>0.0</speed>
  <fix>3d</fix>
</trkpt>
<trkpt lat="40.0728419" lon="-105.2305749">
  <ele>1586.16</ele>
  <time>2026-08-27T18:24:33Z</time>
  <course>11.35</course>
  <speed>0.01414213562373095</speed>
  <fix>3d</fix>
</trkpt>
<trkpt lat="40.072842" lon="-105.230575">
  <ele>1586.09</ele>
  <time>2026-08-27T18:24:33Z</time>
  <course>293.76</course>
  <speed>0.0</speed>
  <fix>3d</fix>
</trkpt>
<trkpt lat="40.0728419" lon="-105.2305749">
  <ele>1586.16</ele>
  <time>2026-08-27T18:24:33Z</time>
  <course>11.35</course>
  <speed>0.01414213562373095</speed>
  <fix>3d</fix>
</trkpt>
<trkpt lat="40.072842" lon="-105.230575">
  <ele>1586.09</ele>
  <time>2026-08-27T18:24:33Z</time>
  <course>280.59</course>
  <speed>0.0</speed>
  <fix>3d</fix>
</trkpt>
<trkpt lat="40.0728419" lon="-105.2305749">
  <ele>1586.16</ele>
  <time>2026-08-27T18:24:33Z</time>
  <course>11.35</course>
  <speed>0.01414213562373095</speed>
  <fix>3d</fix>
</trkpt>
<trkpt lat="40.072842" lon="-105.230575">
  <ele>1586.09</ele>
  <time>2026-08-27T18:24:33Z</time>
  <course>217.03</course>
  <speed>0.0</speed>
  <fix>3d</fix>
</trkpt>
<trkpt lat="40.0728419" lon="-105.2305749">
  <ele>1586.17</ele>
  <time>2026-08-27T18:24:33Z</time>
  <course>11.35</course>
  <speed>0.01414213562373095</speed>
  <fix>3d</fix>
</trkpt>
<trkpt lat="40.072842" lon="-105.230575">
  <ele>1586.09</ele>
  <time>2026-08-27T18:24:33Z</time>
  <course>137.81</course>
  <speed>0.0</speed>
  <fix>3d</fix>
</trkpt>
<trkpt lat="40.0728419" lon="-105.2305749">
  <ele>1586.17</ele>
  <time>2026-08-27T18:24:33Z</time>
  <course>11.35</course>
  <speed>0.01414213562373095</speed>
  <fix>3d</fix>
</trkpt>
<trkpt lat="40.072842" lon="-105.230575">
  <ele>1586.09</ele>
  <time>2026-08-27T18:24:33Z</time>
  <course>311.45</course>
  <speed>0.0</speed>
  <fix>3d</fix>
</trkpt>
<trkpt lat="40.0728419" lon="-105.2305749">
  <ele>1586.17</ele>
  <time>2026-08-27T18:24:33Z</time>
  <course>11.36</course>
  <speed>0.01414213562373095</speed>
  <fix>3d</fix>
</trkpt>
<trkpt lat="40.072842" lon="-105.230575">
  <ele>1586.09</ele>
  <time>2026-08-27T18:24:33Z</time>
  <course>289.2</course>
  <speed>0.0</speed>
  <fix>3d</fix>
</trkpt>
<trkpt lat="40.0728419" lon="-105.2305749">
  <ele>1586.17</ele>
  <time>2026-08-27T18:24:33Z</time>
  <course>11.36</course>
  <speed>0.01414213562373095</speed>
  <fix>3d</fix>
</trkpt>
<trkpt lat="40.072842" lon="-105.230575">
  <ele>1586.09</ele>
  <time>2026-08-27T18:24:33Z</time>
  <course>279.7</course>
  <speed>0.0</speed>
  <fix>3d</fix>
</trkpt>
<trkpt lat="40.0728419" lon="-105.2305749">
  <ele>1586.17</ele>
  <time>2026-08-27T18:24:33Z</time>
  <course>11.36</course>
  <speed>0.01414213562373095</speed>
  <fix>3d</fix>
</trkpt>
<trkpt lat="40.072842" lon="-105.230575">
  <ele>1586.09</ele>
  <time>2026-08-27T18:24:33Z</time>
  <course>289.46</course>
  <speed>0.0</speed>
  <fix>3d</fix>
</trkpt>
<trkpt lat="40.0728419" lon="-105.2305749">
  <ele>1586.17</ele>
  <time>2026-08-27T18:24:33Z</time>
  <course>11.36</course>
  <speed>0.01414213562373095</speed>
  <fix>3d</fix>
</trkpt>
<trkpt lat="40.072842" lon="-105.230575">
  <ele>1586.09</ele>
  <time>2026-08-27T18:24:33Z</time>
  <course>322.48</course>
  <speed>0.0</speed>
  <fix>3d</fix>
</trkpt>
<trkpt lat="40.0728419" lon="-105.2305749">
  <ele>1586.17</ele>
  <time>2026-08-27T18:24:33Z</time>
  <course>11.36</course>
  <speed>0.01414213562373095</speed>
  <fix>3d</fix>
</trkpt>
<trkpt lat="40.072842" lon="-105.230575">
  <ele>1586.09</ele>
  <time>2026-08-27T18:24:33Z</time>
  <course>315.6</course>
  <speed>0.0</speed>
  <fix>3d</fix>
</trkpt>
<trkpt lat="40.0728419" lon="-105.2305749">
  <ele>1586.16</ele>
  <time>2026-08-27T18:24:33Z</time>
  <course>11.37</course>
  <speed>0.01414213562373095</speed>
  <fix>3d</fix>
</trkpt>
<trkpt lat="40.072842" lon="-105.230575">
  <ele>1586.09</ele>
  <time>2026-08-27T18:24:33Z</time>
  <course>237.72</course>
  <speed>0.0</speed>
  <fix>3d</fix>
</trkpt>
<trkpt lat="40.0728419" lon="-105.2305749">
  <ele>1586.16</ele>
  <time>2026-08-27T18:24:33Z</time>
  <course>11.37</course>
  <speed>0.01414213562373095</speed>
  <fix>3d</fix>
</trkpt>
<trkpt lat="40.072842" lon="-105.230575">
  <ele>1586.09</ele>
  <time>2026-08-27T18:24:33Z</time>
  <course>259.06</course>
  <speed>0.0</speed>
  <fix>3d</fix>
</trkpt>
<trkpt lat="40.0728419" lon="-105.2305749">
  <ele>1586.16</ele>
  <time>2026-08-27T18:24:33Z</time>
  <course>11.37</course>
  <speed>0.01414213562373095</speed>
  <fix>3d</fix>
</trkpt>
<trkpt lat="40.072842" lon="-105.230575">
  <ele>1586.09</ele>
  <time>2026-08-27T18:24:33Z</time>
  <course>300.17</course>
  <speed>0.0</speed>
  <fix>3d</fix>
</trkpt>
<trkpt lat="40.0728419" lon="-105.2305749">
  <ele>1586.16</ele>
  <time>2026-08-27T18:24:33Z</time>
  <course>11.37</course>
  <speed>0.01414213562373095</speed>
  <fix>3d</fix>
</trkpt>
<trkpt lat="40.072842" lon="-105.230575">
  <ele>1586.09</ele>
  <time>2026-08-27T18:24:33Z</time>
  <course>292.92</course>
  <speed>0.0</speed>
  <fix>3d</fix>
</trkpt>
<trkpt lat="40.0728419" lon="-105.2305749">
  <ele>1586.16</ele>
  <time>2026-08-27T18:24:33Z</time>
  <course>11.37</course>
  <speed>0.01414213562373095</speed>
  <fix>3d</fix>
</trkpt>
<trkpt lat="40.072842" lon="-105.230575">
  <ele>1586.09</ele>
  <time>2026-08-27T18:24:33Z</time>
  <course>291.18</course>
  <speed>0.0</speed>
  <fix>3d</fix>
</trkpt>
<trkpt lat="40.0728419" lon="-105.2305749">
  <ele>1586.16</ele>
  <time>2026-08-27T18:24:33Z</time>
  <course>11.38</course>
  <speed>0.022360679774997897</speed>
  <fix>3d</fix>
</trkpt>
<trkpt lat="40.072842" lon="-105.230575">
  <ele>1586.09</ele>
  <time>2026-08-27T18:24:33Z</time>
  <course>292.52</course>
  <speed>0.0</speed>
  <fix>3d</fix>
</trkpt>
<trkpt lat="40.0728419" lon="-105.2305749">
  <ele>1586.16</ele>
  <time>2026-08-27T18:24:33Z</time>
  <course>11.38</course>
  <speed>0.022360679774997897</speed>
  <fix>3d</fix>
</trkpt>
<trkpt lat="40.072842" lon="-105.230575">
  <ele>1586.09</ele>
  <time>2026-08-27T18:24:33Z</time>
  <course>292.6</course>
  <speed>0.0</speed>
  <fix>3d</fix>
</trkpt>
<trkpt lat="40.0728419" lon="-105.2305749">
  <ele>1586.16</ele>
  <time>2026-08-27T18:24:33Z</time>
  <course>11.38</course>
  <speed>0.022360679774997897</speed>
  <fix>3d</fix>
</trkpt>
<trkpt lat="40.072842" lon="-105.230575">
  <ele>1586.09</ele>
  <time>2026-08-27T18:24:33Z</time>
  <course>292.41</course>
  <speed>0.0</speed>
  <fix>3d</fix>
</trkpt>
<trkpt lat="40.0728419" lon="-105.2305749">
  <ele>1586.15</ele>
  <time>2026-08-27T18:24:33Z</time>
  <course>11.38</course>
  <speed>0.022360679774997897</speed>
  <fix>3d</fix>
</trkpt>
<trkpt lat="40.072842" lon="-105.230575">
  <ele>1586.09</ele>
  <time>2026-08-27T18:24:33Z</time>
  <course>292.42</course>
  <speed>0.0</speed>
  <fix>3d</fix>
</trkpt>
<trkpt lat="40.0728419" lon="-105.2305749">
  <ele>1586.15</ele>
  <time>2026-08-27T18:24:33Z</time>
  <course>11.38</course>
  <speed>0.022360679774997897</speed>
  <fix>3d</fix>
</trkpt>
<trkpt lat="40.072842" lon="-105.230575">
  <ele>1586.09</ele>
  <time>2026-08-27T18:24:33Z</time>
  <course>292.45</course>
  <speed>0.0</speed>
  <fix>3d</fix>
</trkpt>
<trkpt lat="40.0728419" lon="-105.2305749">
  <ele>1586.15</ele>
  <time>2026-08-27T18:24:33Z</time>
  <course>11.39</course>
  <speed>0.022360679774997897</speed>
  <fix>3d</fix>
</trkpt>
<trkpt lat="40.072842" lon="-105.230575">
  <ele>1586.09</ele>
  <time>2026-08-27T18:24:33Z</time>
  <course>292.44</course>
  <speed>0.0</speed>
  <fix>3d</fix>
</trkpt>
<trkpt lat="40.0728419" lon="-105.2305749">
  <ele>1586.15</ele>
  <time>2026-08-27T18:24:33Z</time>
  <course>11.39</course>
  <speed>0.022360679774997897</speed>
  <fix>3d</fix>
</trkpt>
<trkpt lat="40.072842" lon="-105.230575">
  <ele>1586.09</ele>
  <time>2026-08-27T18:24:33Z</time>
  <course>292.44</course>
  <speed>0.0</speed>
  <fix>3d</fix>
</trkpt>
<trkpt lat="40.0728419" lon="-105.2305749">
  <ele>1586.15</ele>
  <time>2026-08-27T18:24:33Z</time>
  <course>11.39</course>
  <speed>0.022360679774997897</speed>
  <fix>3d</fix>
</trkpt>
<trkpt lat="40.072842" lon="-105.230575">
  <ele>1586.09</ele>
  <time>2026-08-27T18:24:33Z</time>
  <course>292.44</course>
  <speed>0.0</speed>
  <fix>3d</fix>
</trkpt>
<trkpt lat="40.0728419" lon="-105.2305749">
  <ele>1586.16</ele>
  <time>2026-08-27T18:24:33Z</time>
  <course>11.39</course>
  <speed>0.022360679774997897</speed>
  <fix>3d</fix>
</trkpt>
<trkpt lat="40.072842" lon="-105.230575">
  <ele>1586.09</ele>
  <time>2026-08-27T18:24:33Z</time>
  <course>292.44</course>
  <speed>0.0</speed>
  <fix>3d</fix>
</trkpt>
<trkpt lat="40.0728419" lon="-105.2305749">
  <ele>1586.16</ele>
  <time>2026-08-27T18:24:33Z</time>
  <course>11.39</course>
  <speed>0.022360679774997897</speed>
  <fix>3d</fix>
</trkpt>
<trkpt lat="40.072842" lon="-105.230575">
  <ele>1586.09</ele>
  <time>2026-08-27T18:24:33Z</time>
  <course>292.44</course>
  <speed>0.0</speed>
  <fix>3d</fix>
</trkpt>
<trkpt lat="40.0728419" lon="-105.2305749">
  <ele>1586.16</ele>
  <time>2026-08-27T18:24:33Z</time>
  <course>11.4</course>
  <speed>0.022360679774997897</speed>
  <fix>3d</fix>
</trkpt>
<trkpt lat="40.072842" lon="-105.230575">
  <ele>1586.09</ele>
  <time>2026-08-27T18:24:33Z</time>
  <course>292.44</course>
  <speed>0.0</speed>
  <fix>3d</fix>
</trkpt>
<trkpt lat="40.0728419" lon="-105.2305749">
  <ele>1586.16</ele>
  <time>2026-08-27T18:24:33Z</time>
  <course>11.4</course>
  <speed>0.022360679774997897</speed>
  <fix>3d</fix>
</trkpt>
<trkpt lat="40.072842" lon="-105.230575">
  <ele>1586.09</ele>
  <time>2026-08-27T18:24:33Z</time>
  <course>292.44</course>
  <speed>0.0</speed>
  <fix>3d</fix>
</trkpt>
<trkpt lat="40.0728419" lon="-105.2305749">
  <ele>1586.16</ele>
  <time>2026-08-27T18:24:33Z</time>
  <course>11.4</course>
  <speed>0.022360679774997897</speed>
  <fix>3d</fix>
</trkpt>
<trkpt lat="40.072842" lon="-105.230575">
  <ele>1586.09</ele>
  <time>2026-08-27T18:24:33Z</time>
  <course>292.44</course>
  <speed>0.0</speed>
  <fix>3d</fix>
</trkpt>
<trkpt lat="40.0728419" lon="-105.2305749">
  <ele>1586.16</ele>
  <time>2026-08-27T18:24:33Z</time>
  <course>11.4</course>
  <speed>0.022360679774997897</speed>
  <fix>3d</fix>
</trkpt>
<trkpt lat="40.072842" lon="-105.230575">
  <ele>1586.09</ele>
  <time>2026-08-27T18:24:33Z</time>
  <course>292.44</course>
  <speed>0.0</speed>
  <fix>3d</fix>
</trkpt>
<trkpt lat="40.0728419" lon="-105.2305749">
  <ele>1586.16</ele>
  <time>2026-08-27T18:24:33Z</time>
  <course>11.4</course>
  <speed>0.022360679774997897</speed>
  <fix>3d</fix>
</trkpt>
<trkpt lat="40.072842" lon="-105.230575">
  <ele>1586.09</ele>
  <time>2026-08-27T18:24:33Z</time>
  <course>292.44</course>
  <speed>0.0</speed>
  <fix>3d</fix>
</trkpt>
<trkpt lat="40.0728419" lon="-105.2305749">
  <ele>1586.16</ele>
  <time>2026-08-27T18:24:33Z</time>
  <course>11.4</course>
  <speed>0.022360679774997897</speed>
  <fix>3d</fix>
</trkpt>
<trkpt lat="40.072842" lon="-105.230575">
  <ele>1586.09</ele>
  <time>2026-08-27T18:24:33Z</time>
  <course>292.44</course>
  <speed>0.0</speed>
  <fix>3d</fix>
</trkpt>
<trkpt lat="40.0728419" lon="-105.2305749">
  <ele>1586.16</ele>
  <time>2026-08-27T18:24:33Z</time>
  <course>11.41</course>
  <speed>0.022360679774997897</speed>
  <fix>3d</fix>
</trkpt>
<trkpt lat="40.072842" lon="-105.230575">
  <ele>1586.09</ele>
  <time>2026-08-27T18:24:33Z</time>
  <course>292.44</course>
  <speed>0.0</speed>
  <fix>3d</fix>
</trkpt>
<trkpt lat="40.0728419" lon="-105.2305749">
  <ele>1586.15</ele>
  <time>2026-08-27T18:24:33Z</time>
  <course>11.41</course>
  <speed>0.022360679774997897</speed>
  <fix>3d</fix>
</trkpt>
<trkpt lat="40.072842" lon="-105.230575">
  <ele>1586.09</ele>
  <time>2026-08-27T18:24:33Z</time>
  <course>292.44</course>
  <speed>0.0</speed>
  <fix>3d</fix>
</trkpt>
<trkpt lat="40.0728419" lon="-105.2305749">
  <ele>1586.15</ele>
  <time>2026-08-27T18:24:33Z</time>
  <course>11.41</course>
  <speed>0.022360679774997897</speed>
  <fix>3d</fix>
</trkpt>
<trkpt lat="40.072842" lon="-105.230575">
  <ele>1586.09</ele>
  <time>2026-08-27T18:24:33Z</time>
  <course>292.44</course>
  <speed>0.0</speed>
  <fix>3d</fix>
</trkpt>
<trkpt lat="40.0728419" lon="-105.2305749">
  <ele>1586.15</ele>
  <time>2026-08-27T18:24:34Z</time>
  <course>11.41</course>
  <speed>0.022360679774997897</speed>
  <fix>3d</fix>
</trkpt>
<trkpt lat="40.072842" lon="-105.230575">
  <ele>1586.09</ele>
  <time>2026-08-27T18:24:34Z</time>
  <course>292.44</course>
  <speed>0.0</speed>
  <fix>3d</fix>
</trkpt>
<trkpt lat="40.0728419" lon="-105.2305749">
  <ele>1586.15</ele>
  <time>2026-08-27T18:24:34Z</time>
  <course>11.41</course>
  <speed>0.022360679774997897</speed>
  <fix>3d</fix>
</trkpt>
<trkpt lat="40.072842" lon="-105.230575">
  <ele>1586.09</ele>
  <time>2026-08-27T18:24:34Z</time>
  <course>292.44</course>
  <speed>0.0</speed>
  <fix>3d</fix>
</trkpt>
<trkpt lat="40.0728419" lon="-105.2305749">
  <ele>1586.14</ele>
  <time>2026-08-27T18:24:34Z</time>
  <course>11.42</course>
  <speed>0.022360679774997897</speed>
  <fix>3d</fix>
</trkpt>
<trkpt lat="40.072842" lon="-105.230575">
  <ele>1586.09</ele>
  <time>2026-08-27T18:24:34Z</time>
  <course>292.44</course>
  <speed>0.0</speed>
  <fix>3d</fix>
</trkpt>
<trkpt lat="40.0728419" lon="-105.2305749">
  <ele>1586.14</ele>
  <time>2026-08-27T18:24:34Z</time>
  <course>11.42</course>
  <speed>0.022360679774997897</speed>
  <fix>3d</fix>
</trkpt>
<trkpt lat="40.072842" lon="-105.230575">
  <ele>1586.09</ele>
  <time>2026-08-27T18:24:34Z</time>
  <course>292.44</course>
  <speed>0.0</speed>
  <fix>3d</fix>
</trkpt>
<trkpt lat="40.0728419" lon="-105.2305749">
  <ele>1586.14</ele>
  <time>2026-08-27T18:24:34Z</time>
  <course>11.42</course>
  <speed>0.022360679774997897</speed>
  <fix>3d</fix>
</trkpt>
<trkpt lat="40.072842" lon="-105.230575">
  <ele>1586.09</ele>
  <time>2026-08-27T18:24:34Z</time>
  <course>292.44</course>
  <speed>0.0</speed>
  <fix>3d</fix>
</trkpt>
<trkpt lat="40.0728419" lon="-105.2305749">
  <ele>1586.14</ele>
  <time>2026-08-27T18:24:34Z</time>
  <course>11.42</course>
  <speed>0.022360679774997897</speed>
  <fix>3d</fix>
</trkpt>
<trkpt lat="40.072842" lon="-105.230575">
  <ele>1586.09</ele>
  <time>2026-08-27T18:24:34Z</time>
  <course>292.44</course>
  <speed>0.0</speed>
  <fix>3d</fix>
</trkpt>
<trkpt lat="40.0728419" lon="-105.2305749">
  <ele>1586.14</ele>
  <time>2026-08-27T18:24:34Z</time>
  <course>11.42</course>
  <speed>0.022360679774997897</speed>
  <fix>3d</fix>
</trkpt>
<trkpt lat="40.072842" lon="-105.230575">
  <ele>1586.09</ele>
  <time>2026-08-27T18:24:34Z</time>
  <course>229.45</course>
  <speed>0.0</speed>
  <fix>3d</fix>
</trkpt>
<trkpt lat="40.0728419" lon="-105.2305749">
  <ele>1586.14</ele>
  <time>2026-08-27T18:24:34Z</time>
  <course>11.43</course>
  <speed>0.022360679774997897</speed>
  <fix>3d</fix>
</trkpt>
<trkpt lat="40.072842" lon="-105.230575">
  <ele>1586.09</ele>
  <time>2026-08-27T18:24:34Z</time>
  <course>208.69</course>
  <speed>0.0</speed>
  <fix>3d</fix>
</trkpt>
<trkpt lat="40.0728419" lon="-105.2305749">
  <ele>1586.15</ele>
  <time>2026-08-27T18:24:34Z</time>
  <course>11.43</course>
  <speed>0.022360679774997897</speed>
  <fix>3d</fix>
</trkpt>
<trkpt lat="40.072842" lon="-105.230575">
  <ele>1586.09</ele>
  <time>2026-08-27T18:24:34Z</time>
  <course>193.48</course>
  <speed>0.0</speed>
  <fix>3d</fix>
</trkpt>
<trkpt lat="40.0728419" lon="-105.2305749">
  <ele>1586.15</ele>
  <time>2026-08-27T18:24:34Z</time>
  <course>11.43</course>
  <speed>0.022360679774997897</speed>
  <fix>3d</fix>
</trkpt>
<trkpt lat="40.072842" lon="-105.230575">
  <ele>1586.09</ele>
  <time>2026-08-27T18:24:34Z</time>
  <course>161.46</course>
  <speed>0.0</speed>
  <fix>3d</fix>
</trkpt>
<trkpt lat="40.0728419" lon="-105.2305749">
  <ele>1586.14</ele>
  <time>2026-08-27T18:24:34Z</time>
  <course>11.43</course>
  <speed>0.022360679774997897</speed>
  <fix>3d</fix>
</trkpt>
<trkpt lat="40.072842" lon="-105.230575">
  <ele>1586.09</ele>
  <time>2026-08-27T18:24:34Z</time>
  <course>355.16</course>
  <speed>0.0</speed>
  <fix>3d</fix>
</trkpt>
<trkpt lat="40.0728419" lon="-105.2305749">
  <ele>1586.14</ele>
  <time>2026-08-27T18:24:34Z</time>
  <course>11.43</course>
  <speed>0.022360679774997897</speed>
  <fix>3d</fix>
</trkpt>
<trkpt lat="40.072842" lon="-105.230575">
  <ele>1586.09</ele>
  <time>2026-08-27T18:24:34Z</time>
  <course>263.05</course>
  <speed>0.0</speed>
  <fix>3d</fix>
</trkpt>
<trkpt lat="40.0728419" lon="-105.2305749">
  <ele>1586.14</ele>
  <time>2026-08-27T18:24:34Z</time>
  <course>11.43</course>
  <speed>0.022360679774997897</speed>
  <fix>3d</fix>
</trkpt>
<trkpt lat="40.072842" lon="-105.230575">
  <ele>1586.09</ele>
  <time>2026-08-27T18:24:34Z</time>
  <course>232.18</course>
  <speed>0.0</speed>
  <fix>3d</fix>
</trkpt>
<trkpt lat="40.0728419" lon="-105.2305749">
  <ele>1586.14</ele>
  <time>2026-08-27T18:24:34Z</time>
  <course>11.44</course>
  <speed>0.022360679774997897</speed>
  <fix>3d</fix>
</trkpt>
<trkpt lat="40.072842" lon="-105.230575">
  <ele>1586.09</ele>
  <time>2026-08-27T18:24:34Z</time>
  <course>251.28</course>
  <speed>0.0</speed>
  <fix>3d</fix>
</trkpt>
<trkpt lat="40.0728419" lon="-105.2305749">
  <ele>1586.14</ele>
  <time>2026-08-27T18:24:34Z</time>
  <course>11.44</course>
  <speed>0.022360679774997897</speed>
  <fix>3d</fix>
</trkpt>
<trkpt lat="40.072842" lon="-105.230575">
  <ele>1586.09</ele>
  <time>2026-08-27T18:24:34Z</time>
  <course>253.86</course>
  <speed>0.0</speed>
  <fix>3d</fix>
</trkpt>
<trkpt lat="40.0728419" lon="-105.2305749">
  <ele>1586.14</ele>
  <time>2026-08-27T18:24:34Z</time>
  <course>11.44</course>
  <speed>0.022360679774997897</speed>
  <fix>3d</fix>
</trkpt>
<trkpt lat="40.072842" lon="-105.230575">
  <ele>1586.09</ele>
  <time>2026-08-27T18:24:34Z</time>
  <course>250.38</course>
  <speed>0.0</speed>
  <fix>3d</fix>
</trkpt>
<trkpt lat="40.0728419" lon="-105.2305749">
  <ele>1586.15</ele>
  <time>2026-08-27T18:24:34Z</time>
  <course>11.44</course>
  <speed>0.022360679774997897</speed>
  <fix>3d</fix>
</trkpt>
<trkpt lat="40.072842" lon="-105.230575">
  <ele>1586.09</ele>
  <time>2026-08-27T18:24:34Z</time>
  <course>250.44</course>
  <speed>0.0</speed>
  <fix>3d</fix>
</trkpt>
<trkpt lat="40.0728419" lon="-105.2305749">
  <ele>1586.15</ele>
  <time>2026-08-27T18:24:34Z</time>
  <course>11.44</course>
  <speed>0.022360679774997897</speed>
  <fix>3d</fix>
</trkpt>
<trkpt lat="40.072842" lon="-105.230575">
  <ele>1586.09</ele>
  <time>2026-08-27T18:24:34Z</time>
  <course>250.9</course>
  <speed>0.0</speed>
  <fix>3d</fix>
</trkpt>
<trkpt lat="40.0728419" lon="-105.2305749">
  <ele>1586.15</ele>
  <time>2026-08-27T18:24:34Z</time>
  <course>11.44</course>
  <speed>0.022360679774997897</speed>
  <fix>3d</fix>
</trkpt>
<trkpt lat="40.072842" lon="-105.230575">
  <ele>1586.09</ele>
  <time>2026-08-27T18:24:34Z</time>
  <course>250.83</course>
  <speed>0.0</speed>
  <fix>3d</fix>
</trkpt>
<trkpt lat="40.0728419" lon="-105.2305749">
  <ele>1586.15</ele>
  <time>2026-08-27T18:24:34Z</time>
  <course>11.44</course>
  <speed>0.022360679774997897</speed>
  <fix>3d</fix>
</trkpt>
<trkpt lat="40.072842" lon="-105.230575">
  <ele>1586.09</ele>
  <time>2026-08-27T18:24:34Z</time>
  <course>250.78</course>
  <speed>0.0</speed>
  <fix>3d</fix>
</trkpt>
<trkpt lat="40.0728419" lon="-105.2305749">
  <ele>1586.15</ele>
  <time>2026-08-27T18:24:34Z</time>
  <course>11.45</course>
  <speed>0.022360679774997897</speed>
  <fix>3d</fix>
</trkpt>
<trkpt lat="40.072842" lon="-105.230575">
  <ele>1586.09</ele>
  <time>2026-08-27T18:24:34Z</time>
  <course>250.79</course>
  <speed>0.0</speed>
  <fix>3d</fix>
</trkpt>
<trkpt lat="40.0728419" lon="-105.2305749">
  <ele>1586.15</ele>
  <time>2026-08-27T18:24:34Z</time>
  <course>11.45</course>
  <speed>0.022360679774997897</speed>
  <fix>3d</fix>
</trkpt>
<trkpt lat="40.072842" lon="-105.230575">
  <ele>1586.09</ele>
  <time>2026-08-27T18:24:34Z</time>
  <course>250.8</course>
  <speed>0.0</speed>
  <fix>3d</fix>
</trkpt>
<trkpt lat="40.0728419" lon="-105.2305749">
  <ele>1586.15</ele>
  <time>2026-08-27T18:24:34Z</time>
  <course>11.45</course>
  <speed>0.022360679774997897</speed>
  <fix>3d</fix>
</trkpt>
<trkpt lat="40.072842" lon="-105.230575">
  <ele>1586.09</ele>
  <time>2026-08-27T18:24:34Z</time>
  <course>250.8</course>
  <speed>0.0</speed>
  <fix>3d</fix>
</trkpt>
<trkpt lat="40.0728419" lon="-105.2305749">
  <ele>1586.15</ele>
  <time>2026-08-27T18:24:34Z</time>
  <course>11.45</course>
  <speed>0.022360679774997897</speed>
  <fix>3d</fix>
</trkpt>
<trkpt lat="40.072842" lon="-105.230575">
  <ele>1586.09</ele>
  <time>2026-08-27T18:24:34Z</time>
  <course>250.8</course>
  <speed>0.0</speed>
  <fix>3d</fix>
</trkpt>
<trkpt lat="40.0728419" lon="-105.2305749">
  <ele>1586.15</ele>
  <time>2026-08-27T18:24:34Z</time>
  <course>11.45</course>
  <speed>0.022360679774997897</speed>
  <fix>3d</fix>
</trkpt>
<trkpt lat="40.072842" lon="-105.230575">
  <ele>1586.09</ele>
  <time>2026-08-27T18:24:34Z</time>
  <course>250.8</course>
  <speed>0.0</speed>
  <fix>3d</fix>
</trkpt>
<trkpt lat="40.0728419" lon="-105.2305749">
  <ele>1586.16</ele>
  <time>2026-08-27T18:24:34Z</time>
  <course>11.45</course>
  <speed>0.022360679774997897</speed>
  <fix>3d</fix>
</trkpt>
<trkpt lat="40.072842" lon="-105.230575">
  <ele>1586.09</ele>
  <time>2026-08-27T18:24:34Z</time>
  <course>250.8</course>
  <speed>0.0</speed>
  <fix>3d</fix>
</trkpt>
<trkpt lat="40.0728419" lon="-105.2305749">
  <ele>1586.16</ele>
  <time>2026-08-27T18:24:34Z</time>
  <course>11.46</course>
  <speed>0.022360679774997897</speed>
  <fix>3d</fix>
</trkpt>
<trkpt lat="40.072842" lon="-105.230575">
  <ele>1586.09</ele>
  <time>2026-08-27T18:24:34Z</time>
  <course>250.8</course>
  <speed>0.0</speed>
  <fix>3d</fix>
</trkpt>
<trkpt lat="40.0728419" lon="-105.2305749">
  <ele>1586.17</ele>
  <time>2026-08-27T18:24:34Z</time>
  <course>11.46</course>
  <speed>0.022360679774997897</speed>
  <fix>3d</fix>
</trkpt>
<trkpt lat="40.072842" lon="-105.230575">
  <ele>1586.09</ele>
  <time>2026-08-27T18:24:34Z</time>
  <course>250.8</course>
  <speed>0.0</speed>
  <fix>3d</fix>
</trkpt>
<trkpt lat="40.0728419" lon="-105.2305749">
  <ele>1586.17</ele>
  <time>2026-08-27T18:24:34Z</time>
  <course>11.46</course>
  <speed>0.022360679774997897</speed>
  <fix>3d</fix>
</trkpt>
<trkpt lat="40.072842" lon="-105.230575">
  <ele>1586.09</ele>
  <time>2026-08-27T18:24:34Z</time>
  <course>250.8</course>
  <speed>0.0</speed>
  <fix>3d</fix>
</trkpt>
<trkpt lat="40.0728419" lon="-105.2305749">
  <ele>1586.17</ele>
  <time>2026-08-27T18:24:34Z</time>
  <course>11.46</course>
  <speed>0.022360679774997897</speed>
  <fix>3d</fix>
</trkpt>
<trkpt lat="40.072842" lon="-105.230575">
  <ele>1586.09</ele>
  <time>2026-08-27T18:24:34Z</time>
  <course>250.8</course>
  <speed>0.0</speed>
  <fix>3d</fix>
</trkpt>
<trkpt lat="40.0728419" lon="-105.2305749">
  <ele>1586.17</ele>
  <time>2026-08-27T18:24:34Z</time>
  <course>11.46</course>
  <speed>0.022360679774997897</speed>
  <fix>3d</fix>
</trkpt>
<trkpt lat="40.072842" lon="-105.230575">
  <ele>1586.09</ele>
  <time>2026-08-27T18:24:34Z</time>
  <course>250.8</course>
  <speed>0.0</speed>
  <fix>3d</fix>
</trkpt>
<trkpt lat="40.0728419" lon="-105.2305749">
  <ele>1586.17</ele>
  <time>2026-08-27T18:24:34Z</time>
  <course>11.46</course>
  <speed>0.022360679774997897</speed>
  <fix>3d</fix>
</trkpt>
<trkpt lat="40.072842" lon="-105.230575">
  <ele>1586.09</ele>
  <time>2026-08-27T18:24:34Z</time>
  <course>250.8</course>
  <speed>0.0</speed>
  <fix>3d</fix>
</trkpt>
<trkpt lat="40.0728419" lon="-105.2305749">
  <ele>1586.17</ele>
  <time>2026-08-27T18:24:34Z</time>
  <course>11.46</course>
  <speed>0.022360679774997897</speed>
  <fix>3d</fix>
</trkpt>
<trkpt lat="40.072842" lon="-105.230575">
  <ele>1586.09</ele>
  <time>2026-08-27T18:24:34Z</time>
  <course>250.8</course>
  <speed>0.0</speed>
  <fix>3d</fix>
</trkpt>
<trkpt lat="40.0728419" lon="-105.2305749">
  <ele>1586.17</ele>
  <time>2026-08-27T18:24:34Z</time>
  <course>11.47</course>
  <speed>0.022360679774997897</speed>
  <fix>3d</fix>
</trkpt>
<trkpt lat="40.072842" lon="-105.230575">
  <ele>1586.09</ele>
  <time>2026-08-27T18:24:34Z</time>
  <course>250.8</course>
  <speed>0.0</speed>
  <fix>3d</fix>
</trkpt>
<trkpt lat="40.0728419" lon="-105.2305749">
  <ele>1586.17</ele>
  <time>2026-08-27T18:24:34Z</time>
  <course>11.47</course>
  <speed>0.022360679774997897</speed>
  <fix>3d</fix>
</trkpt>
<trkpt lat="40.072842" lon="-105.230575">
  <ele>1586.09</ele>
  <time>2026-08-27T18:24:34Z</time>
  <course>250.8</course>
  <speed>0.0</speed>
  <fix>3d</fix>
</trkpt>
<trkpt lat="40.0728419" lon="-105.2305749">
  <ele>1586.18</ele>
  <time>2026-08-27T18:24:34Z</time>
  <course>11.47</course>
  <speed>0.022360679774997897</speed>
  <fix>3d</fix>
</trkpt>
<trkpt lat="40.072842" lon="-105.230575">
  <ele>1586.09</ele>
  <time>2026-08-27T18:24:34Z</time>
  <course>250.8</course>
  <speed>0.0</speed>
  <fix>3d</fix>
</trkpt>
<trkpt lat="40.0728419" lon="-105.2305749">
  <ele>1586.18</ele>
  <time>2026-08-27T18:24:34Z</time>
  <course>11.47</course>
  <speed>0.022360679774997897</speed>
  <fix>3d</fix>
</trkpt>
<trkpt lat="40.072842" lon="-105.230575">
  <ele>1586.09</ele>
  <time>2026-08-27T18:24:34Z</time>
  <course>250.8</course>
  <speed>0.0</speed>
  <fix>3d</fix>
</trkpt>
<trkpt lat="40.0728419" lon="-105.2305749">
  <ele>1586.18</ele>
  <time>2026-08-27T18:24:34Z</time>
  <course>11.47</course>
  <speed>0.022360679774997897</speed>
  <fix>3d</fix>
</trkpt>
<trkpt lat="40.072842" lon="-105.230575">
  <ele>1586.09</ele>
  <time>2026-08-27T18:24:34Z</time>
  <course>250.8</course>
  <speed>0.0</speed>
  <fix>3d</fix>
</trkpt>
<trkpt lat="40.0728419" lon="-105.2305749">
  <ele>1586.18</ele>
  <time>2026-08-27T18:24:34Z</time>
  <course>11.47</course>
  <speed>0.022360679774997897</speed>
  <fix>3d</fix>
</trkpt>
<trkpt lat="40.072842" lon="-105.230575">
  <ele>1586.09</ele>
  <time>2026-08-27T18:24:34Z</time>
  <course>250.8</course>
  <speed>0.0</speed>
  <fix>3d</fix>
</trkpt>
<trkpt lat="40.0728419" lon="-105.2305749">
  <ele>1586.18</ele>
  <time>2026-08-27T18:24:34Z</time>
  <course>11.47</course>
  <speed>0.022360679774997897</speed>
  <fix>3d</fix>
</trkpt>
<trkpt lat="40.072842" lon="-105.230575">
  <ele>1586.09</ele>
  <time>2026-08-27T18:24:34Z</time>
  <course>250.8</course>
  <speed>0.0</speed>
  <fix>3d</fix>
</trkpt>
<trkpt lat="40.0728419" lon="-105.2305749">
  <ele>1586.19</ele>
  <time>2026-08-27T18:24:34Z</time>
  <course>11.47</course>
  <speed>0.022360679774997897</speed>
  <fix>3d</fix>
</trkpt>
<trkpt lat="40.072842" lon="-105.230575">
  <ele>1586.09</ele>
  <time>2026-08-27T18:24:34Z</time>
  <course>250.8</course>
  <speed>0.0</speed>
  <fix>3d</fix>
</trkpt>
<trkpt lat="40.0728419" lon="-105.2305749">
  <ele>1586.19</ele>
  <time>2026-08-27T18:24:34Z</time>
  <course>11.48</course>
  <speed>0.022360679774997897</speed>
  <fix>3d</fix>
</trkpt>
<trkpt lat="40.072842" lon="-105.230575">
  <ele>1586.09</ele>
  <time>2026-08-27T18:24:34Z</time>
  <course>250.8</course>
  <speed>0.0</speed>
  <fix>3d</fix>
</trkpt>
<trkpt lat="40.0728419" lon="-105.2305749">
  <ele>1586.19</ele>
  <time>2026-08-27T18:24:34Z</time>
  <course>11.48</course>
  <speed>0.022360679774997897</speed>
  <fix>3d</fix>
</trkpt>
<trkpt lat="40.072842" lon="-105.230575">
  <ele>1586.09</ele>
  <time>2026-08-27T18:24:34Z</time>
  <course>250.8</course>
  <speed>0.0</speed>
  <fix>3d</fix>
</trkpt>
<trkpt lat="40.0728419" lon="-105.2305749">
  <ele>1586.2</ele>
  <time>2026-08-27T18:24:34Z</time>
  <course>11.48</course>
  <speed>0.022360679774997897</speed>
  <fix>3d</fix>
</trkpt>
<trkpt lat="40.072842" lon="-105.230575">
  <ele>1586.09</ele>
  <time>2026-08-27T18:24:34Z</time>
  <course>250.8</course>
  <speed>0.0</speed>
  <fix>3d</fix>
</trkpt>
<trkpt lat="40.0728419" lon="-105.2305749">
  <ele>1586.2</ele>
  <time>2026-08-27T18:24:34Z</time>
  <course>11.48</course>
  <speed>0.022360679774997897</speed>
  <fix>3d</fix>
</trkpt>
<trkpt lat="40.072842" lon="-105.230575">
  <ele>1586.09</ele>
  <time>2026-08-27T18:24:34Z</time>
  <course>250.8</course>
  <speed>0.0</speed>
  <fix>3d</fix>
</trkpt>
<trkpt lat="40.0728419" lon="-105.2305749">
  <ele>1586.2</ele>
  <time>2026-08-27T18:24:34Z</time>
  <course>11.48</course>
  <speed>0.022360679774997897</speed>
  <fix>3d</fix>
</trkpt>
<trkpt lat="40.072842" lon="-105.230575">
  <ele>1586.09</ele>
  <time>2026-08-27T18:24:34Z</time>
  <course>250.8</course>
  <speed>0.0</speed>
  <fix>3d</fix>
</trkpt>
<trkpt lat="40.0728419" lon="-105.2305749">
  <ele>1586.2</ele>
  <time>2026-08-27T18:24:34Z</time>
  <course>11.48</course>
  <speed>0.022360679774997897</speed>
  <fix>3d</fix>
</trkpt>
<trkpt lat="40.072842" lon="-105.230575">
  <ele>1586.09</ele>
  <time>2026-08-27T18:24:34Z</time>
  <course>250.8</course>
  <speed>0.0</speed>
  <fix>3d</fix>
</trkpt>
<trkpt lat="40.0728419" lon="-105.2305749">
  <ele>1586.2</ele>
  <time>2026-08-27T18:24:34Z</time>
  <course>11.48</course>
  <speed>0.022360679774997897</speed>
  <fix>3d</fix>
</trkpt>
<trkpt lat="40.072842" lon="-105.230575">
  <ele>1586.09</ele>
  <time>2026-08-27T18:24:34Z</time>
  <course>250.8</course>
  <speed>0.0</speed>
  <fix>3d</fix>
</trkpt>
<trkpt lat="40.0728419" lon="-105.2305749">
  <ele>1586.19</ele>
  <time>2026-08-27T18:24:34Z</time>
  <course>11.48</course>
  <speed>0.022360679774997897</speed>
  <fix>3d</fix>
</trkpt>
<trkpt lat="40.072842" lon="-105.230575">
  <ele>1586.09</ele>
  <time>2026-08-27T18:24:34Z</time>
  <course>250.8</course>
  <speed>0.0</speed>
  <fix>3d</fix>
</trkpt>
<trkpt lat="40.0728419" lon="-105.2305749">
  <ele>1586.19</ele>
  <time>2026-08-27T18:24:34Z</time>
  <course>11.49</course>
  <speed>0.022360679774997897</speed>
  <fix>3d</fix>
</trkpt>
<trkpt lat="40.072842" lon="-105.230575">
  <ele>1586.09</ele>
  <time>2026-08-27T18:24:34Z</time>
  <course>250.8</course>
  <speed>0.0</speed>
  <fix>3d</fix>
</trkpt>
<trkpt lat="40.0728419" lon="-105.2305749">
  <ele>1586.18</ele>
  <time>2026-08-27T18:24:34Z</time>
  <course>11.49</course>
  <speed>0.022360679774997897</speed>
  <fix>3d</fix>
</trkpt>
<trkpt lat="40.072842" lon="-105.230575">
  <ele>1586.09</ele>
  <time>2026-08-27T18:24:34Z</time>
  <course>250.8</course>
  <speed>0.0</speed>
  <fix>3d</fix>
</trkpt>
<trkpt lat="40.0728419" lon="-105.2305749">
  <ele>1586.19</ele>
  <time>2026-08-27T18:24:34Z</time>
  <course>11.49</course>
  <speed>0.022360679774997897</speed>
  <fix>3d</fix>
</trkpt>
<trkpt lat="40.072842" lon="-105.230575">
  <ele>1586.09</ele>
  <time>2026-08-27T18:24:34Z</time>
  <course>250.8</course>
  <speed>0.0</speed>
  <fix>3d</fix>
</trkpt>
<trkpt lat="40.0728419" lon="-105.2305749">
  <ele>1586.18</ele>
  <time>2026-08-27T18:24:34Z</time>
  <course>11.49</course>
  <speed>0.022360679774997897</speed>
  <fix>3d</fix>
</trkpt>
<trkpt lat="40.072842" lon="-105.230575">
  <ele>1586.09</ele>
  <time>2026-08-27T18:24:34Z</time>
  <course>250.8</course>
  <speed>0.0</speed>
  <fix>3d</fix>
</trkpt>
<trkpt lat="40.0728419" lon="-105.2305749">
  <ele>1586.18</ele>
  <time>2026-08-27T18:24:34Z</time>
  <course>11.49</course>
  <speed>0.022360679774997897</speed>
  <fix>3d</fix>
</trkpt>
<trkpt lat="40.072842" lon="-105.230575">
  <ele>1586.09</ele>
  <time>2026-08-27T18:24:34Z</time>
  <course>250.8</course>
  <speed>0.0</speed>
  <fix>3d</fix>
</trkpt>
<trkpt lat="40.0728419" lon="-105.2305749">
  <ele>1586.18</ele>
  <time>2026-08-27T18:24:34Z</time>
  <course>11.49</course>
  <speed>0.022360679774997897</speed>
  <fix>3d</fix>
</trkpt>
<trkpt lat="40.072842" lon="-105.230575">
  <ele>1586.09</ele>
  <time>2026-08-27T18:24:34Z</time>
  <course>250.8</course>
  <speed>0.0</speed>
  <fix>3d</fix>
</trkpt>
<trkpt lat="40.0728419" lon="-105.2305749">
  <ele>1586.18</ele>
  <time>2026-08-27T18:24:34Z</time>
  <course>11.49</course>
  <speed>0.022360679774997897</speed>
  <fix>3d</fix>
</trkpt>
<trkpt lat="40.072842" lon="-105.230575">
  <ele>1586.09</ele>
  <time>2026-08-27T18:24:34Z</time>
  <course>250.8</course>
  <speed>0.0</speed>
  <fix>3d</fix>
</trkpt>
<trkpt lat="40.0728419" lon="-105.2305749">
  <ele>1586.17</ele>
  <time>2026-08-27T18:24:34Z</time>
  <course>11.49</course>
  <speed>0.022360679774997897</speed>
  <fix>3d</fix>
</trkpt>
<trkpt lat="40.072842" lon="-105.230575">
  <ele>1586.09</ele>
  <time>2026-08-27T18:24:34Z</time>
  <course>250.8</course>
  <speed>0.0</speed>
  <fix>3d</fix>
</trkpt>
<trkpt lat="40.0728419" lon="-105.2305749">
  <ele>1586.17</ele>
  <time>2026-08-27T18:24:34Z</time>
  <course>11.49</course>
  <speed>0.022360679774997897</speed>
  <fix>3d</fix>
</trkpt>
<trkpt lat="40.072842" lon="-105.230575">
  <ele>1586.09</ele>
  <time>2026-08-27T18:24:34Z</time>
  <course>250.8</course>
  <speed>0.0</speed>
  <fix>3d</fix>
</trkpt>
<trkpt lat="40.0728419" lon="-105.2305749">
  <ele>1586.17</ele>
  <time>2026-08-27T18:24:34Z</time>
  <course>11.49</course>
  <speed>0.022360679774997897</speed>
  <fix>3d</fix>
</trkpt>
<trkpt lat="40.072842" lon="-105.230575">
  <ele>1586.09</ele>
  <time>2026-08-27T18:24:34Z</time>
  <course>250.8</course>
  <speed>0.0</speed>
  <fix>3d</fix>
</trkpt>
<trkpt lat="40.0728419" lon="-105.2305749">
  <ele>1586.18</ele>
  <time>2026-08-27T18:24:34Z</time>
  <course>11.5</course>
  <speed>0.022360679774997897</speed>
  <fix>3d</fix>
</trkpt>
<trkpt lat="40.072842" lon="-105.230575">
  <ele>1586.09</ele>
  <time>2026-08-27T18:24:34Z</time>
  <course>250.8</course>
  <speed>0.0</speed>
  <fix>3d</fix>
</trkpt>
<trkpt lat="40.0728419" lon="-105.2305749">
  <ele>1586.17</ele>
  <time>2026-08-27T18:24:34Z</time>
  <course>11.5</course>
  <speed>0.022360679774997897</speed>
  <fix>3d</fix>
</trkpt>
<trkpt lat="40.072842" lon="-105.230575">
  <ele>1586.09</ele>
  <time>2026-08-27T18:24:34Z</time>
  <course>250.8</course>
  <speed>0.0</speed>
  <fix>3d</fix>
</trkpt>
<trkpt lat="40.0728419" lon="-105.2305749">
  <ele>1586.17</ele>
  <time>2026-08-27T18:24:34Z</time>
  <course>11.5</course>
  <speed>0.022360679774997897</speed>
  <fix>3d</fix>
</trkpt>
<trkpt lat="40.072842" lon="-105.230575">
  <ele>1586.09</ele>
  <time>2026-08-27T18:24:34Z</time>
  <course>250.8</course>
  <speed>0.0</speed>
  <fix>3d</fix>
</trkpt>
<trkpt lat="40.0728419" lon="-105.2305749">
  <ele>1586.17</ele>
  <time>2026-08-27T18:24:34Z</time>
  <course>11.5</course>
  <speed>0.022360679774997897</speed>
  <fix>3d</fix>
</trkpt>
<trkpt lat="40.072842" lon="-105.230575">
  <ele>1586.09</ele>
  <time>2026-08-27T18:24:34Z</time>
  <course>250.8</course>
  <speed>0.0</speed>
  <fix>3d</fix>
</trkpt>
<trkpt lat="40.0728419" lon="-105.2305749">
  <ele>1586.17</ele>
  <time>2026-08-27T18:24:34Z</time>
  <course>11.5</course>
  <speed>0.022360679774997897</speed>
  <fix>3d</fix>
</trkpt>
<trkpt lat="40.072842" lon="-105.230575">
  <ele>1586.09</ele>
  <time>2026-08-27T18:24:34Z</time>
  <course>250.8</course>
  <speed>0.0</speed>
  <fix>3d</fix>
</trkpt>
<trkpt lat="40.0728419" lon="-105.2305749">
  <ele>1586.18</ele>
  <time>2026-08-27T18:24:34Z</time>
  <course>11.5</course>
  <speed>0.022360679774997897</speed>
  <fix>3d</fix>
</trkpt>
<trkpt lat="40.072842" lon="-105.230575">
  <ele>1586.09</ele>
  <time>2026-08-27T18:24:34Z</time>
  <course>250.8</course>
  <speed>0.0</speed>
  <fix>3d</fix>
</trkpt>
<trkpt lat="40.0728419" lon="-105.2305749">
  <ele>1586.18</ele>
  <time>2026-08-27T18:24:34Z</time>
  <course>11.5</course>
  <speed>0.022360679774997897</speed>
  <fix>3d</fix>
</trkpt>
<trkpt lat="40.072842" lon="-105.230575">
  <ele>1586.09</ele>
  <time>2026-08-27T18:24:34Z</time>
  <course>250.8</course>
  <speed>0.0</speed>
  <fix>3d</fix>
</trkpt>
<trkpt lat="40.0728419" lon="-105.2305749">
  <ele>1586.18</ele>
  <time>2026-08-27T18:24:34Z</time>
  <course>11.5</course>
  <speed>0.022360679774997897</speed>
  <fix>3d</fix>
</trkpt>
<trkpt lat="40.072842" lon="-105.230575">
  <ele>1586.09</ele>
  <time>2026-08-27T18:24:34Z</time>
  <course>250.8</course>
  <speed>0.0</speed>
  <fix>3d</fix>
</trkpt>
<trkpt lat="40.0728419" lon="-105.2305749">
  <ele>1586.18</ele>
  <time>2026-08-27T18:24:34Z</time>
  <course>11.5</course>
  <speed>0.022360679774997897</speed>
  <fix>3d</fix>
</trkpt>
<trkpt lat="40.072842" lon="-105.230575">
  <ele>1586.09</ele>
  <time>2026-08-27T18:24:34Z</time>
  <course>250.8</course>
  <speed>0.0</speed>
  <fix>3d</fix>
</trkpt>
<trkpt lat="40.0728419" lon="-105.2305749">
  <ele>1586.18</ele>
  <time>2026-08-27T18:24:34Z</time>
  <course>11.51</course>
  <speed>0.022360679774997897</speed>
  <fix>3d</fix>
</trkpt>
<trkpt lat="40.072842" lon="-105.230575">
  <ele>1586.09</ele>
  <time>2026-08-27T18:24:34Z</time>
  <course>250.8</course>
  <speed>0.0</speed>
  <fix>3d</fix>
</trkpt>
<trkpt lat="40.0728419" lon="-105.2305749">
  <ele>1586.18</ele>
  <time>2026-08-27T18:24:34Z</time>
  <course>11.51</course>
  <speed>0.022360679774997897</speed>
  <fix>3d</fix>
</trkpt>
<trkpt lat="40.072842" lon="-105.230575">
  <ele>1586.09</ele>
  <time>2026-08-27T18:24:34Z</time>
  <course>250.8</course>
  <speed>0.0</speed>
  <fix>3d</fix>
</trkpt>
<trkpt lat="40.0728419" lon="-105.2305749">
  <ele>1586.18</ele>
  <time>2026-08-27T18:24:34Z</time>
  <course>11.51</course>
  <speed>0.022360679774997897</speed>
  <fix>3d</fix>
</trkpt>
<trkpt lat="40.072842" lon="-105.230575">
  <ele>1586.09</ele>
  <time>2026-08-27T18:24:34Z</time>
  <course>250.8</course>
  <speed>0.0</speed>
  <fix>3d</fix>
</trkpt>
<trkpt lat="40.0728419" lon="-105.2305749">
  <ele>1586.18</ele>
  <time>2026-08-27T18:24:34Z</time>
  <course>11.51</course>
  <speed>0.022360679774997897</speed>
  <fix>3d</fix>
</trkpt>
<trkpt lat="40.072842" lon="-105.230575">
  <ele>1586.09</ele>
  <time>2026-08-27T18:24:34Z</time>
  <course>250.8</course>
  <speed>0.0</speed>
  <fix>3d</fix>
</trkpt>
<trkpt lat="40.0728419" lon="-105.2305749">
  <ele>1586.18</ele>
  <time>2026-08-27T18:24:34Z</time>
  <course>11.51</course>
  <speed>0.022360679774997897</speed>
  <fix>3d</fix>
</trkpt>
<trkpt lat="40.072842" lon="-105.230575">
  <ele>1586.09</ele>
  <time>2026-08-27T18:24:34Z</time>
  <course>250.8</course>
  <speed>0.0</speed>
  <fix>3d</fix>
</trkpt>
<trkpt lat="40.0728419" lon="-105.2305749">
  <ele>1586.18</ele>
  <time>2026-08-27T18:24:34Z</time>
  <course>11.51</course>
  <speed>0.022360679774997897</speed>
  <fix>3d</fix>
</trkpt>
<trkpt lat="40.072842" lon="-105.230575">
  <ele>1586.09</ele>
  <time>2026-08-27T18:24:34Z</time>
  <course>250.8</course>
  <speed>0.0</speed>
  <fix>3d</fix>
</trkpt>
<trkpt lat="40.0728419" lon="-105.2305749">
  <ele>1586.18</ele>
  <time>2026-08-27T18:24:34Z</time>
  <course>11.51</course>
  <speed>0.022360679774997897</speed>
  <fix>3d</fix>
</trkpt>
<trkpt lat="40.072842" lon="-105.230575">
  <ele>1586.09</ele>
  <time>2026-08-27T18:24:34Z</time>
  <course>250.8</course>
  <speed>0.0</speed>
  <fix>3d</fix>
</trkpt>
<trkpt lat="40.0728419" lon="-105.2305749">
  <ele>1586.17</ele>
  <time>2026-08-27T18:24:34Z</time>
  <course>11.51</course>
  <speed>0.022360679774997897</speed>
  <fix>3d</fix>
</trkpt>
<trkpt lat="40.072842" lon="-105.230575">
  <ele>1586.09</ele>
  <time>2026-08-27T18:24:34Z</time>
  <course>250.8</course>
  <speed>0.0</speed>
  <fix>3d</fix>
</trkpt>
<trkpt lat="40.0728419" lon="-105.2305749">
  <ele>1586.17</ele>
  <time>2026-08-27T18:24:34Z</time>
  <course>11.51</course>
  <speed>0.022360679774997897</speed>
  <fix>3d</fix>
</trkpt>
<trkpt lat="40.072842" lon="-105.230575">
  <ele>1586.09</ele>
  <time>2026-08-27T18:24:34Z</time>
  <course>250.8</course>
  <speed>0.0</speed>
  <fix>3d</fix>
</trkpt>
<trkpt lat="40.0728419" lon="-105.2305749">
  <ele>1586.17</ele>
  <time>2026-08-27T18:24:34Z</time>
  <course>11.51</course>
  <speed>0.022360679774997897</speed>
  <fix>3d</fix>
</trkpt>
<trkpt lat="40.072842" lon="-105.230575">
  <ele>1586.09</ele>
  <time>2026-08-27T18:24:34Z</time>
  <course>250.8</course>
  <speed>0.0</speed>
  <fix>3d</fix>
</trkpt>
<trkpt lat="40.0728419" lon="-105.2305749">
  <ele>1586.17</ele>
  <time>2026-08-27T18:24:34Z</time>
  <course>11.51</course>
  <speed>0.022360679774997897</speed>
  <fix>3d</fix>
</trkpt>
<trkpt lat="40.072842" lon="-105.230575">
  <ele>1586.09</ele>
  <time>2026-08-27T18:24:34Z</time>
  <course>250.8</course>
  <speed>0.0</speed>
  <fix>3d</fix>
</trkpt>
<trkpt lat="40.0728419" lon="-105.2305749">
  <ele>1586.17</ele>
  <time>2026-08-27T18:24:34Z</time>
  <course>11.52</course>
  <speed>0.022360679774997897</speed>
  <fix>3d</fix>
</trkpt>
<trkpt lat="40.072842" lon="-105.230575">
  <ele>1586.09</ele>
  <time>2026-08-27T18:24:34Z</time>
  <course>250.8</course>
  <speed>0.0</speed>
  <fix>3d</fix>
</trkpt>
<trkpt lat="40.0728419" lon="-105.2305749">
  <ele>1586.17</ele>
  <time>2026-08-27T18:24:34Z</time>
  <course>11.52</course>
  <speed>0.022360679774997897</speed>
  <fix>3d</fix>
</trkpt>
<trkpt lat="40.072842" lon="-105.230575">
  <ele>1586.09</ele>
  <time>2026-08-27T18:24:34Z</time>
  <course>250.8</course>
  <speed>0.0</speed>
  <fix>3d</fix>
</trkpt>
<trkpt lat="40.0728419" lon="-105.2305749">
  <ele>1586.16</ele>
  <time>2026-08-27T18:24:34Z</time>
  <course>11.52</course>
  <speed>0.022360679774997897</speed>
  <fix>3d</fix>
</trkpt>
<trkpt lat="40.072842" lon="-105.230575">
  <ele>1586.09</ele>
  <time>2026-08-27T18:24:34Z</time>
  <course>250.8</course>
  <speed>0.0</speed>
  <fix>3d</fix>
</trkpt>
<trkpt lat="40.0728419" lon="-105.2305749">
  <ele>1586.16</ele>
  <time>2026-08-27T18:24:34Z</time>
  <course>11.52</course>
  <speed>0.022360679774997897</speed>
  <fix>3d</fix>
</trkpt>
<trkpt lat="40.072842" lon="-105.230575">
  <ele>1586.09</ele>
  <time>2026-08-27T18:24:34Z</time>
  <course>250.8</course>
  <speed>0.0</speed>
  <fix>3d</fix>
</trkpt>
<trkpt lat="40.0728419" lon="-105.2305749">
  <ele>1586.16</ele>
  <time>2026-08-27T18:24:34Z</time>
  <course>11.52</course>
  <speed>0.022360679774997897</speed>
  <fix>3d</fix>
</trkpt>
<trkpt lat="40.072842" lon="-105.230575">
  <ele>1586.09</ele>
  <time>2026-08-27T18:24:34Z</time>
  <course>250.8</course>
  <speed>0.0</speed>
  <fix>3d</fix>
</trkpt>
<trkpt lat="40.0728419" lon="-105.2305749">
  <ele>1586.16</ele>
  <time>2026-08-27T18:24:34Z</time>
  <course>11.52</course>
  <speed>0.022360679774997897</speed>
  <fix>3d</fix>
</trkpt>
<trkpt lat="40.072842" lon="-105.230575">
  <ele>1586.09</ele>
  <time>2026-08-27T18:24:34Z</time>
  <course>250.8</course>
  <speed>0.0</speed>
  <fix>3d</fix>
</trkpt>
<trkpt lat="40.0728419" lon="-105.2305749">
  <ele>1586.17</ele>
  <time>2026-08-27T18:24:34Z</time>
  <course>11.52</course>
  <speed>0.022360679774997897</speed>
  <fix>3d</fix>
</trkpt>
<trkpt lat="40.072842" lon="-105.230575">
  <ele>1586.09</ele>
  <time>2026-08-27T18:24:34Z</time>
  <course>250.8</course>
  <speed>0.0</speed>
  <fix>3d</fix>
</trkpt>
<trkpt lat="40.0728419" lon="-105.2305749">
  <ele>1586.17</ele>
  <time>2026-08-27T18:24:34Z</time>
  <course>11.52</course>
  <speed>0.022360679774997897</speed>
  <fix>3d</fix>
</trkpt>
<trkpt lat="40.072842" lon="-105.230575">
  <ele>1586.09</ele>
  <time>2026-08-27T18:24:34Z</time>
  <course>250.8</course>
  <speed>0.0</speed>
  <fix>3d</fix>
</trkpt>
<trkpt lat="40.0728419" lon="-105.2305749">
  <ele>1586.17</ele>
  <time>2026-08-27T18:24:34Z</time>
  <course>11.52</course>
  <speed>0.022360679774997897</speed>
  <fix>3d</fix>
</trkpt>
<trkpt lat="40.072842" lon="-105.230575">
  <ele>1586.09</ele>
  <time>2026-08-27T18:24:34Z</time>
  <course>250.8</course>
  <speed>0.0</speed>
  <fix>3d</fix>
</trkpt>
<trkpt lat="40.0728419" lon="-105.2305749">
  <ele>1586.17</ele>
  <time>2026-08-27T18:24:34Z</time>
  <course>11.52</course>
  <speed>0.022360679774997897</speed>
  <fix>3d</fix>
</trkpt>
<trkpt lat="40.072842" lon="-105.230575">
  <ele>1586.09</ele>
  <time>2026-08-27T18:24:34Z</time>
  <course>250.8</course>
  <speed>0.0</speed>
  <fix>3d</fix>
</trkpt>
<trkpt lat="40.0728419" lon="-105.2305749">
  <ele>1586.17</ele>
  <time>2026-08-27T18:24:34Z</time>
  <course>11.52</course>
  <speed>0.022360679774997897</speed>
  <fix>3d</fix>
</trkpt>
<trkpt lat="40.072842" lon="-105.230575">
  <ele>1586.09</ele>
  <time>2026-08-27T18:24:34Z</time>
  <course>250.8</course>
  <speed>0.0</speed>
  <fix>3d</fix>
</trkpt>
<trkpt lat="40.0728419" lon="-105.2305749">
  <ele>1586.17</ele>
  <time>2026-08-27T18:24:34Z</time>
  <course>11.52</course>
  <speed>0.022360679774997897</speed>
  <fix>3d</fix>
</trkpt>
<trkpt lat="40.072842" lon="-105.230575">
  <ele>1586.09</ele>
  <time>2026-08-27T18:24:34Z</time>
  <course>250.8</course>
  <speed>0.0</speed>
  <fix>3d</fix>
</trkpt>
<trkpt lat="40.0728419" lon="-105.2305749">
  <ele>1586.17</ele>
  <time>2026-08-27T18:24:34Z</time>
  <course>11.52</course>
  <speed>0.022360679774997897</speed>
  <fix>3d</fix>
</trkpt>
<trkpt lat="40.072842" lon="-105.230575">
  <ele>1586.09</ele>
  <time>2026-08-27T18:24:34Z</time>
  <course>250.8</course>
  <speed>0.0</speed>
  <fix>3d</fix>
</trkpt>
<trkpt lat="40.0728419" lon="-105.2305749">
  <ele>1586.17</ele>
  <time>2026-08-27T18:24:34Z</time>
  <course>11.52</course>
  <speed>0.022360679774997897</speed>
  <fix>3d</fix>
</trkpt>
<trkpt lat="40.072842" lon="-105.230575">
  <ele>1586.09</ele>
  <time>2026-08-27T18:24:34Z</time>
  <course>250.8</course>
  <speed>0.0</speed>
  <fix>3d</fix>
</trkpt>
<trkpt lat="40.0728419" lon="-105.2305749">
  <ele>1586.17</ele>
  <time>2026-08-27T18:24:34Z</time>
  <course>11.53</course>
  <speed>0.022360679774997897</speed>
  <fix>3d</fix>
</trkpt>
<trkpt lat="40.072842" lon="-105.230575">
  <ele>1586.09</ele>
  <time>2026-08-27T18:24:34Z</time>
  <course>250.8</course>
  <speed>0.0</speed>
  <fix>3d</fix>
</trkpt>
<trkpt lat="40.0728419" lon="-105.2305749">
  <ele>1586.17</ele>
  <time>2026-08-27T18:24:34Z</time>
  <course>11.53</course>
  <speed>0.022360679774997897</speed>
  <fix>3d</fix>
</trkpt>
<trkpt lat="40.072842" lon="-105.230575">
  <ele>1586.09</ele>
  <time>2026-08-27T18:24:34Z</time>
  <course>250.8</course>
  <speed>0.0</speed>
  <fix>3d</fix>
</trkpt>
<trkpt lat="40.0728419" lon="-105.2305749">
  <ele>1586.17</ele>
  <time>2026-08-27T18:24:34Z</time>
  <course>11.53</course>
  <speed>0.022360679774997897</speed>
  <fix>3d</fix>
</trkpt>
<trkpt lat="40.072842" lon="-105.230575">
  <ele>1586.09</ele>
  <time>2026-08-27T18:24:34Z</time>
  <course>250.8</course>
  <speed>0.0</speed>
  <fix>3d</fix>
</trkpt>
<trkpt lat="40.0728419" lon="-105.2305749">
  <ele>1586.17</ele>
  <time>2026-08-27T18:24:34Z</time>
  <course>11.53</course>
  <speed>0.022360679774997897</speed>
  <fix>3d</fix>
</trkpt>
<trkpt lat="40.072842" lon="-105.230575">
  <ele>1586.09</ele>
  <time>2026-08-27T18:24:34Z</time>
  <course>250.8</course>
  <speed>0.0</speed>
  <fix>3d</fix>
</trkpt>
<trkpt lat="40.0728419" lon="-105.2305749">
  <ele>1586.17</ele>
  <time>2026-08-27T18:24:34Z</time>
  <course>11.53</course>
  <speed>0.022360679774997897</speed>
  <fix>3d</fix>
</trkpt>
<trkpt lat="40.072842" lon="-105.230575">
  <ele>1586.09</ele>
  <time>2026-08-27T18:24:34Z</time>
  <course>250.8</course>
  <speed>0.0</speed>
  <fix>3d</fix>
</trkpt>
<trkpt lat="40.0728419" lon="-105.2305749">
  <ele>1586.16</ele>
  <time>2026-08-27T18:24:34Z</time>
  <course>11.53</course>
  <speed>0.022360679774997897</speed>
  <fix>3d</fix>
</trkpt>
<trkpt lat="40.072842" lon="-105.230575">
  <ele>1586.09</ele>
  <time>2026-08-27T18:24:34Z</time>
  <course>250.8</course>
  <speed>0.0</speed>
  <fix>3d</fix>
</trkpt>
<trkpt lat="40.0728419" lon="-105.2305749">
  <ele>1586.16</ele>
  <time>2026-08-27T18:24:34Z</time>
  <course>11.53</course>
  <speed>0.022360679774997897</speed>
  <fix>3d</fix>
</trkpt>
<trkpt lat="40.072842" lon="-105.230575">
  <ele>1586.09</ele>
  <time>2026-08-27T18:24:34Z</time>
  <course>250.8</course>
  <speed>0.0</speed>
  <fix>3d</fix>
</trkpt>
<trkpt lat="40.0728419" lon="-105.2305749">
  <ele>1586.16</ele>
  <time>2026-08-27T18:24:34Z</time>
  <course>11.53</course>
  <speed>0.022360679774997897</speed>
  <fix>3d</fix>
</trkpt>
<trkpt lat="40.072842" lon="-105.230575">
  <ele>1586.09</ele>
  <time>2026-08-27T18:24:34Z</time>
  <course>250.8</course>
  <speed>0.0</speed>
  <fix>3d</fix>
</trkpt>
<trkpt lat="40.0728419" lon="-105.2305749">
  <ele>1586.15</ele>
  <time>2026-08-27T18:24:34Z</time>
  <course>11.53</course>
  <speed>0.022360679774997897</speed>
  <fix>3d</fix>
</trkpt>
<trkpt lat="40.072842" lon="-105.230575">
  <ele>1586.09</ele>
  <time>2026-08-27T18:24:34Z</time>
  <course>250.8</course>
  <speed>0.0</speed>
  <fix>3d</fix>
</trkpt>
<trkpt lat="40.0728419" lon="-105.2305749">
  <ele>1586.15</ele>
  <time>2026-08-27T18:24:34Z</time>
  <course>11.53</course>
  <speed>0.022360679774997897</speed>
  <fix>3d</fix>
</trkpt>
<trkpt lat="40.072842" lon="-105.230575">
  <ele>1586.09</ele>
  <time>2026-08-27T18:24:34Z</time>
  <course>250.8</course>
  <speed>0.0</speed>
  <fix>3d</fix>
</trkpt>
<trkpt lat="40.0728419" lon="-105.2305749">
  <ele>1586.15</ele>
  <time>2026-08-27T18:24:34Z</time>
  <course>11.53</course>
  <speed>0.022360679774997897</speed>
  <fix>3d</fix>
</trkpt>
<trkpt lat="40.072842" lon="-105.230575">
  <ele>1586.09</ele>
  <time>2026-08-27T18:24:34Z</time>
  <course>250.8</course>
  <speed>0.0</speed>
  <fix>3d</fix>
</trkpt>
<trkpt lat="40.0728419" lon="-105.2305749">
  <ele>1586.15</ele>
  <time>2026-08-27T18:24:34Z</time>
  <course>11.53</course>
  <speed>0.022360679774997897</speed>
  <fix>3d</fix>
</trkpt>
<trkpt lat="40.072842" lon="-105.230575">
  <ele>1586.09</ele>
  <time>2026-08-27T18:24:34Z</time>
  <course>250.8</course>
  <speed>0.0</speed>
  <fix>3d</fix>
</trkpt>
<trkpt lat="40.0728419" lon="-105.2305749">
  <ele>1586.15</ele>
  <time>2026-08-27T18:24:34Z</time>
  <course>11.53</course>
  <speed>0.022360679774997897</speed>
  <fix>3d</fix>
</trkpt>
<trkpt lat="40.072842" lon="-105.230575">
  <ele>1586.09</ele>
  <time>2026-08-27T18:24:34Z</time>
  <course>250.8</course>
  <speed>0.0</speed>
  <fix>3d</fix>
</trkpt>
<trkpt lat="40.0728419" lon="-105.2305749">
  <ele>1586.14</ele>
  <time>2026-08-27T18:24:34Z</time>
  <course>11.53</course>
  <speed>0.022360679774997897</speed>
  <fix>3d</fix>
</trkpt>
<trkpt lat="40.072842" lon="-105.230575">
  <ele>1586.09</ele>
  <time>2026-08-27T18:24:34Z</time>
  <course>250.8</course>
  <speed>0.0</speed>
  <fix>3d</fix>
</trkpt>
<trkpt lat="40.0728419" lon="-105.2305749">
  <ele>1586.14</ele>
  <time>2026-08-27T18:24:34Z</time>
  <course>11.53</course>
  <speed>0.022360679774997897</speed>
  <fix>3d</fix>
</trkpt>
<trkpt lat="40.072842" lon="-105.230575">
  <ele>1586.09</ele>
  <time>2026-08-27T18:24:34Z</time>
  <course>250.8</course>
  <speed>0.0</speed>
  <fix>3d</fix>
</trkpt>
<trkpt lat="40.0728419" lon="-105.2305749">
  <ele>1586.14</ele>
  <time>2026-08-27T18:24:34Z</time>
  <course>11.54</course>
  <speed>0.022360679774997897</speed>
  <fix>3d</fix>
</trkpt>
<trkpt lat="40.072842" lon="-105.230575">
  <ele>1586.09</ele>
  <time>2026-08-27T18:24:34Z</time>
  <course>250.8</course>
  <speed>0.0</speed>
  <fix>3d</fix>
</trkpt>
<trkpt lat="40.0728419" lon="-105.2305749">
  <ele>1586.13</ele>
  <time>2026-08-27T18:24:34Z</time>
  <course>11.54</course>
  <speed>0.022360679774997897</speed>
  <fix>3d</fix>
</trkpt>
<trkpt lat="40.072842" lon="-105.230575">
  <ele>1586.09</ele>
  <time>2026-08-27T18:24:34Z</time>
  <course>250.8</course>
  <speed>0.0</speed>
  <fix>3d</fix>
</trkpt>
<trkpt lat="40.0728419" lon="-105.2305749">
  <ele>1586.14</ele>
  <time>2026-08-27T18:24:34Z</time>
  <course>11.54</course>
  <speed>0.022360679774997897</speed>
  <fix>3d</fix>
</trkpt>
<trkpt lat="40.072842" lon="-105.230575">
  <ele>1586.09</ele>
  <time>2026-08-27T18:24:34Z</time>
  <course>250.8</course>
  <speed>0.0</speed>
  <fix>3d</fix>
</trkpt>
<trkpt lat="40.0728419" lon="-105.2305749">
  <ele>1586.14</ele>
  <time>2026-08-27T18:24:34Z</time>
  <course>11.54</course>
  <speed>0.022360679774997897</speed>
  <fix>3d</fix>
</trkpt>
<trkpt lat="40.072842" lon="-105.230575">
  <ele>1586.09</ele>
  <time>2026-08-27T18:24:34Z</time>
  <course>250.8</course>
  <speed>0.0</speed>
  <fix>3d</fix>
</trkpt>
<trkpt lat="40.0728419" lon="-105.2305749">
  <ele>1586.14</ele>
  <time>2026-08-27T18:24:34Z</time>
  <course>11.54</course>
  <speed>0.022360679774997897</speed>
  <fix>3d</fix>
</trkpt>
<trkpt lat="40.072842" lon="-105.230575">
  <ele>1586.09</ele>
  <time>2026-08-27T18:24:34Z</time>
  <course>250.8</course>
  <speed>0.0</speed>
  <fix>3d</fix>
</trkpt>
<trkpt lat="40.0728419" lon="-105.2305749">
  <ele>1586.15</ele>
  <time>2026-08-27T18:24:34Z</time>
  <course>11.54</course>
  <speed>0.022360679774997897</speed>
  <fix>3d</fix>
</trkpt>
<trkpt lat="40.072842" lon="-105.230575">
  <ele>1586.09</ele>
  <time>2026-08-27T18:24:34Z</time>
  <course>250.8</course>
  <speed>0.0</speed>
  <fix>3d</fix>
</trkpt>
<trkpt lat="40.0728419" lon="-105.2305749">
  <ele>1586.15</ele>
  <time>2026-08-27T18:24:34Z</time>
  <course>11.54</course>
  <speed>0.022360679774997897</speed>
  <fix>3d</fix>
</trkpt>
<trkpt lat="40.072842" lon="-105.230575">
  <ele>1586.09</ele>
  <time>2026-08-27T18:24:34Z</time>
  <course>27.12</course>
  <speed>0.0</speed>
  <fix>3d</fix>
</trkpt>
<trkpt lat="40.0728419" lon="-105.2305749">
  <ele>1586.16</ele>
  <time>2026-08-27T18:24:34Z</time>
  <course>11.54</course>
  <speed>0.022360679774997897</speed>
  <fix>3d</fix>
</trkpt>
<trkpt lat="40.072842" lon="-105.230575">
  <ele>1586.09</ele>
  <time>2026-08-27T18:24:34Z</time>
  <course>13.48</course>
  <speed>0.0</speed>
  <fix>3d</fix>
</trkpt>
<trkpt lat="40.0728419" lon="-105.2305749">
  <ele>1586.16</ele>
  <time>2026-08-27T18:24:34Z</time>
  <course>11.54</course>
  <speed>0.022360679774997897</speed>
  <fix>3d</fix>
</trkpt>
<trkpt lat="40.072842" lon="-105.230575">
  <ele>1586.09</ele>
  <time>2026-08-27T18:24:34Z</time>
  <course>347.35</course>
  <speed>0.0</speed>
  <fix>3d</fix>
</trkpt>
<trkpt lat="40.0728419" lon="-105.2305749">
  <ele>1586.16</ele>
  <time>2026-08-27T18:24:34Z</time>
  <course>11.54</course>
  <speed>0.022360679774997897</speed>
  <fix>3d</fix>
</trkpt>
<trkpt lat="40.072842" lon="-105.230575">
  <ele>1586.09</ele>
  <time>2026-08-27T18:24:34Z</time>
  <course>238.61</course>
  <speed>0.0</speed>
  <fix>3d</fix>
</trkpt>
<trkpt lat="40.0728419" lon="-105.2305749">
  <ele>1586.16</ele>
  <time>2026-08-27T18:24:34Z</time>
  <course>11.54</course>
  <speed>0.022360679774997897</speed>
  <fix>3d</fix>
</trkpt>
<trkpt lat="40.072842" lon="-105.230575">
  <ele>1586.09</ele>
  <time>2026-08-27T18:24:34Z</time>
  <course>186.32</course>
  <speed>0.0</speed>
  <fix>3d</fix>
</trkpt>
<trkpt lat="40.0728419" lon="-105.2305749">
  <ele>1586.16</ele>
  <time>2026-08-27T18:24:34Z</time>
  <course>11.54</course>
  <speed>0.022360679774997897</speed>
  <fix>3d</fix>
</trkpt>
<trkpt lat="40.072842" lon="-105.230575">
  <ele>1586.09</ele>
  <time>2026-08-27T18:24:34Z</time>
  <course>325.13</course>
  <speed>0.0</speed>
  <fix>3d</fix>
</trkpt>
<trkpt lat="40.0728419" lon="-105.2305749">
  <ele>1586.16</ele>
  <time>2026-08-27T18:24:34Z</time>
  <course>11.54</course>
  <speed>0.022360679774997897</speed>
  <fix>3d</fix>
</trkpt>
<trkpt lat="40.072842" lon="-105.230575">
  <ele>1586.09</ele>
  <time>2026-08-27T18:24:34Z</time>
  <course>297.56</course>
  <speed>0.0</speed>
  <fix>3d</fix>
</trkpt>
<trkpt lat="40.0728419" lon="-105.2305749">
  <ele>1586.16</ele>
  <time>2026-08-27T18:24:34Z</time>
  <course>11.54</course>
  <speed>0.022360679774997897</speed>
  <fix>3d</fix>
</trkpt>
<trkpt lat="40.072842" lon="-105.230575">
  <ele>1586.09</ele>
  <time>2026-08-27T18:24:34Z</time>
  <course>286.85</course>
  <speed>0.0</speed>
  <fix>3d</fix>
</trkpt>
<trkpt lat="40.0728419" lon="-105.2305749">
  <ele>1586.15</ele>
  <time>2026-08-27T18:24:34Z</time>
  <course>11.54</course>
  <speed>0.022360679774997897</speed>
  <fix>3d</fix>
</trkpt>
<trkpt lat="40.072842" lon="-105.230575">
  <ele>1586.09</ele>
  <time>2026-08-27T18:24:34Z</time>
  <course>292.27</course>
  <speed>0.0</speed>
  <fix>3d</fix>
</trkpt>
<trkpt lat="40.0728419" lon="-105.2305749">
  <ele>1586.15</ele>
  <time>2026-08-27T18:24:34Z</time>
  <course>11.54</course>
  <speed>0.022360679774997897</speed>
  <fix>3d</fix>
</trkpt>
<trkpt lat="40.072842" lon="-105.230575">
  <ele>1586.09</ele>
  <time>2026-08-27T18:24:34Z</time>
  <course>293.2</course>
  <speed>0.0</speed>
  <fix>3d</fix>
</trkpt>
<trkpt lat="40.0728419" lon="-105.2305749">
  <ele>1586.15</ele>
  <time>2026-08-27T18:24:34Z</time>
  <course>11.54</course>
  <speed>0.022360679774997897</speed>
  <fix>3d</fix>
</trkpt>
<trkpt lat="40.072842" lon="-105.230575">
  <ele>1586.09</ele>
  <time>2026-08-27T18:24:34Z</time>
  <course>292.37</course>
  <speed>0.0</speed>
  <fix>3d</fix>
</trkpt>
<trkpt lat="40.0728419" lon="-105.2305749">
  <ele>1586.15</ele>
  <time>2026-08-27T18:24:34Z</time>
  <course>11.54</course>
  <speed>0.022360679774997897</speed>
  <fix>3d</fix>
</trkpt>
<trkpt lat="40.072842" lon="-105.230575">
  <ele>1586.09</ele>
  <time>2026-08-27T18:24:34Z</time>
  <course>292.35</course>
  <speed>0.0</speed>
  <fix>3d</fix>
</trkpt>
<trkpt lat="40.0728419" lon="-105.2305749">
  <ele>1586.16</ele>
  <time>2026-08-27T18:24:34Z</time>
  <course>11.54</course>
  <speed>0.022360679774997897</speed>
  <fix>3d</fix>
</trkpt>
<trkpt lat="40.072842" lon="-105.230575">
  <ele>1586.09</ele>
  <time>2026-08-27T18:24:34Z</time>
  <course>292.46</course>
  <speed>0.0</speed>
  <fix>3d</fix>
</trkpt>
<trkpt lat="40.0728419" lon="-105.2305749">
  <ele>1586.16</ele>
  <time>2026-08-27T18:24:34Z</time>
  <course>11.54</course>
  <speed>0.022360679774997897</speed>
  <fix>3d</fix>
</trkpt>
<trkpt lat="40.072842" lon="-105.230575">
  <ele>1586.09</ele>
  <time>2026-08-27T18:24:34Z</time>
  <course>292.45</course>
  <speed>0.0</speed>
  <fix>3d</fix>
</trkpt>
<trkpt lat="40.0728419" lon="-105.2305749">
  <ele>1586.16</ele>
  <time>2026-08-27T18:24:35Z</time>
  <course>11.54</course>
  <speed>0.022360679774997897</speed>
  <fix>3d</fix>
</trkpt>
<trkpt lat="40.072842" lon="-105.230575">
  <ele>1586.09</ele>
  <time>2026-08-27T18:24:35Z</time>
  <course>292.44</course>
  <speed>0.0</speed>
  <fix>3d</fix>
</trkpt>
<trkpt lat="40.0728419" lon="-105.2305749">
  <ele>1586.16</ele>
  <time>2026-08-27T18:24:35Z</time>
  <course>11.54</course>
  <speed>0.022360679774997897</speed>
  <fix>3d</fix>
</trkpt>
<trkpt lat="40.072842" lon="-105.230575">
  <ele>1586.09</ele>
  <time>2026-08-27T18:24:35Z</time>
  <course>292.44</course>
  <speed>0.0</speed>
  <fix>3d</fix>
</trkpt>
<trkpt lat="40.0728419" lon="-105.2305749">
  <ele>1586.16</ele>
  <time>2026-08-27T18:24:35Z</time>
  <course>11.55</course>
  <speed>0.022360679774997897</speed>
  <fix>3d</fix>
</trkpt>
<trkpt lat="40.072842" lon="-105.230575">
  <ele>1586.09</ele>
  <time>2026-08-27T18:24:35Z</time>
  <course>292.44</course>
  <speed>0.0</speed>
  <fix>3d</fix>
</trkpt>
<trkpt lat="40.0728419" lon="-105.2305749">
  <ele>1586.16</ele>
  <time>2026-08-27T18:24:35Z</time>
  <course>11.55</course>
  <speed>0.022360679774997897</speed>
  <fix>3d</fix>
</trkpt>
<trkpt lat="40.072842" lon="-105.230575">
  <ele>1586.09</ele>
  <time>2026-08-27T18:24:35Z</time>
  <course>292.44</course>
  <speed>0.0</speed>
  <fix>3d</fix>
</trkpt>
<trkpt lat="40.0728419" lon="-105.2305749">
  <ele>1586.16</ele>
  <time>2026-08-27T18:24:35Z</time>
  <course>11.55</course>
  <speed>0.022360679774997897</speed>
  <fix>3d</fix>
</trkpt>
<trkpt lat="40.072842" lon="-105.230575">
  <ele>1586.09</ele>
  <time>2026-08-27T18:24:35Z</time>
  <course>292.44</course>
  <speed>0.0</speed>
  <fix>3d</fix>
</trkpt>
<trkpt lat="40.0728419" lon="-105.2305749">
  <ele>1586.16</ele>
  <time>2026-08-27T18:24:35Z</time>
  <course>11.55</course>
  <speed>0.022360679774997897</speed>
  <fix>3d</fix>
</trkpt>
<trkpt lat="40.072842" lon="-105.230575">
  <ele>1586.09</ele>
  <time>2026-08-27T18:24:35Z</time>
  <course>292.44</course>
  <speed>0.0</speed>
  <fix>3d</fix>
</trkpt>
<trkpt lat="40.0728419" lon="-105.2305749">
  <ele>1586.16</ele>
  <time>2026-08-27T18:24:35Z</time>
  <course>11.55</course>
  <speed>0.022360679774997897</speed>
  <fix>3d</fix>
</trkpt>
<trkpt lat="40.072842" lon="-105.230575">
  <ele>1586.09</ele>
  <time>2026-08-27T18:24:35Z</time>
  <course>292.44</course>
  <speed>0.0</speed>
  <fix>3d</fix>
</trkpt>
<trkpt lat="40.0728419" lon="-105.2305749">
  <ele>1586.16</ele>
  <time>2026-08-27T18:24:35Z</time>
  <course>11.55</course>
  <speed>0.022360679774997897</speed>
  <fix>3d</fix>
</trkpt>
<trkpt lat="40.072842" lon="-105.230575">
  <ele>1586.09</ele>
  <time>2026-08-27T18:24:35Z</time>
  <course>214.71</course>
  <speed>0.0</speed>
  <fix>3d</fix>
</trkpt>
<trkpt lat="40.0728419" lon="-105.2305749">
  <ele>1586.15</ele>
  <time>2026-08-27T18:24:35Z</time>
  <course>11.55</course>
  <speed>0.022360679774997897</speed>
  <fix>3d</fix>
</trkpt>
<trkpt lat="40.072842" lon="-105.230575">
  <ele>1586.09</ele>
  <time>2026-08-27T18:24:35Z</time>
  <course>278.27</course>
  <speed>0.0</speed>
  <fix>3d</fix>
</trkpt>
<trkpt lat="40.0728419" lon="-105.2305749">
  <ele>1586.15</ele>
  <time>2026-08-27T18:24:35Z</time>
  <course>11.55</course>
  <speed>0.022360679774997897</speed>
  <fix>3d</fix>
</trkpt>
<trkpt lat="40.072842" lon="-105.230575">
  <ele>1586.09</ele>
  <time>2026-08-27T18:24:35Z</time>
  <course>320.69</course>
  <speed>0.0</speed>
  <fix>3d</fix>
</trkpt>
<trkpt lat="40.0728419" lon="-105.2305749">
  <ele>1586.15</ele>
  <time>2026-08-27T18:24:35Z</time>
  <course>11.55</course>
  <speed>0.022360679774997897</speed>
  <fix>3d</fix>
</trkpt>
<trkpt lat="40.072842" lon="-105.230575">
  <ele>1586.09</ele>
  <time>2026-08-27T18:24:35Z</time>
  <course>241.29</course>
  <speed>0.0</speed>
  <fix>3d</fix>
</trkpt>
<trkpt lat="40.0728419" lon="-105.2305749">
  <ele>1586.16</ele>
  <time>2026-08-27T18:24:35Z</time>
  <course>11.55</course>
  <speed>0.022360679774997897</speed>
  <fix>3d</fix>
</trkpt>
<trkpt lat="40.072842" lon="-105.230575">
  <ele>1586.09</ele>
  <time>2026-08-27T18:24:35Z</time>
  <course>188.83</course>
  <speed>0.0</speed>
  <fix>3d</fix>
</trkpt>
<trkpt lat="40.0728419" lon="-105.2305749">
  <ele>1586.16</ele>
  <time>2026-08-27T18:24:35Z</time>
  <course>11.55</course>
  <speed>0.022360679774997897</speed>
  <fix>3d</fix>
</trkpt>
<trkpt lat="40.072842" lon="-105.230575">
  <ele>1586.09</ele>
  <time>2026-08-27T18:24:35Z</time>
  <course>327.1</course>
  <speed>0.0</speed>
  <fix>3d</fix>
</trkpt>
<trkpt lat="40.0728419" lon="-105.2305749">
  <ele>1586.16</ele>
  <time>2026-08-27T18:24:35Z</time>
  <course>11.55</course>
  <speed>0.022360679774997897</speed>
  <fix>3d</fix>
</trkpt>
<trkpt lat="40.072842" lon="-105.230575">
  <ele>1586.09</ele>
  <time>2026-08-27T18:24:35Z</time>
  <course>307.98</course>
  <speed>0.0</speed>
  <fix>3d</fix>
</trkpt>
<trkpt lat="40.0728419" lon="-105.2305749">
  <ele>1586.16</ele>
  <time>2026-08-27T18:24:35Z</time>
  <course>11.55</course>
  <speed>0.022360679774997897</speed>
  <fix>3d</fix>
</trkpt>
<trkpt lat="40.072842" lon="-105.230575">
  <ele>1586.09</ele>
  <time>2026-08-27T18:24:35Z</time>
  <course>298.33</course>
  <speed>0.0</speed>
  <fix>3d</fix>
</trkpt>
<trkpt lat="40.0728419" lon="-105.2305749">
  <ele>1586.16</ele>
  <time>2026-08-27T18:24:35Z</time>
  <course>11.55</course>
  <speed>0.022360679774997897</speed>
  <fix>3d</fix>
</trkpt>
<trkpt lat="40.072842" lon="-105.230575">
  <ele>1586.09</ele>
  <time>2026-08-27T18:24:35Z</time>
  <course>312.26</course>
  <speed>0.0</speed>
  <fix>3d</fix>
</trkpt>
<trkpt lat="40.0728419" lon="-105.2305749">
  <ele>1586.16</ele>
  <time>2026-08-27T18:24:35Z</time>
  <course>11.55</course>
  <speed>0.022360679774997897</speed>
  <fix>3d</fix>
</trkpt>
<trkpt lat="40.072842" lon="-105.230575">
  <ele>1586.09</ele>
  <time>2026-08-27T18:24:35Z</time>
  <course>295.18</course>
  <speed>0.0</speed>
  <fix>3d</fix>
</trkpt>
<trkpt lat="40.0728419" lon="-105.2305749">
  <ele>1586.16</ele>
  <time>2026-08-27T18:24:35Z</time>
  <course>11.55</course>
  <speed>0.022360679774997897</speed>
  <fix>3d</fix>
</trkpt>
<trkpt lat="40.072842" lon="-105.230575">
  <ele>1586.09</ele>
  <time>2026-08-27T18:24:35Z</time>
  <course>288.57</course>
  <speed>0.0</speed>
  <fix>3d</fix>
</trkpt>
<trkpt lat="40.0728419" lon="-105.2305749">
  <ele>1586.16</ele>
  <time>2026-08-27T18:24:35Z</time>
  <course>11.55</course>
  <speed>0.022360679774997897</speed>
  <fix>3d</fix>
</trkpt>
<trkpt lat="40.072842" lon="-105.230575">
  <ele>1586.09</ele>
  <time>2026-08-27T18:24:35Z</time>
  <course>292.38</course>
  <speed>0.0</speed>
  <fix>3d</fix>
</trkpt>
<trkpt lat="40.0728419" lon="-105.2305749">
  <ele>1586.16</ele>
  <time>2026-08-27T18:24:35Z</time>
  <course>11.55</course>
  <speed>0.022360679774997897</speed>
  <fix>3d</fix>
</trkpt>
<trkpt lat="40.072842" lon="-105.230575">
  <ele>1586.09</ele>
  <time>2026-08-27T18:24:35Z</time>
  <course>292.94</course>
  <speed>0.0</speed>
  <fix>3d</fix>
</trkpt>
<trkpt lat="40.0728419" lon="-105.2305749">
  <ele>1586.16</ele>
  <time>2026-08-27T18:24:35Z</time>
  <course>11.55</course>
  <speed>0.022360679774997897</speed>
  <fix>3d</fix>
</trkpt>
<trkpt lat="40.072842" lon="-105.230575">
  <ele>1586.09</ele>
  <time>2026-08-27T18:24:35Z</time>
  <course>292.39</course>
  <speed>0.0</speed>
  <fix>3d</fix>
</trkpt>
<trkpt lat="40.0728419" lon="-105.2305749">
  <ele>1586.15</ele>
  <time>2026-08-27T18:24:35Z</time>
  <course>11.55</course>
  <speed>0.022360679774997897</speed>
  <fix>3d</fix>
</trkpt>
<trkpt lat="40.072842" lon="-105.230575">
  <ele>1586.09</ele>
  <time>2026-08-27T18:24:35Z</time>
  <course>292.38</course>
  <speed>0.0</speed>
  <fix>3d</fix>
</trkpt>
<trkpt lat="40.0728419" lon="-105.2305749">
  <ele>1586.16</ele>
  <time>2026-08-27T18:24:35Z</time>
  <course>11.55</course>
  <speed>0.022360679774997897</speed>
  <fix>3d</fix>
</trkpt>
<trkpt lat="40.072842" lon="-105.230575">
  <ele>1586.09</ele>
  <time>2026-08-27T18:24:35Z</time>
  <course>292.46</course>
  <speed>0.0</speed>
  <fix>3d</fix>
</trkpt>
<trkpt lat="40.0728419" lon="-105.2305749">
  <ele>1586.17</ele>
  <time>2026-08-27T18:24:35Z</time>
  <course>11.55</course>
  <speed>0.022360679774997897</speed>
  <fix>3d</fix>
</trkpt>
<trkpt lat="40.072842" lon="-105.230575">
  <ele>1586.09</ele>
  <time>2026-08-27T18:24:35Z</time>
  <course>292.45</course>
  <speed>0.0</speed>
  <fix>3d</fix>
</trkpt>
<trkpt lat="40.0728419" lon="-105.2305749">
  <ele>1586.17</ele>
  <time>2026-08-27T18:24:35Z</time>
  <course>11.55</course>
  <speed>0.022360679774997897</speed>
  <fix>3d</fix>
</trkpt>
<trkpt lat="40.072842" lon="-105.230575">
  <ele>1586.09</ele>
  <time>2026-08-27T18:24:35Z</time>
  <course>292.44</course>
  <speed>0.0</speed>
  <fix>3d</fix>
</trkpt>
<trkpt lat="40.0728419" lon="-105.2305749">
  <ele>1586.17</ele>
  <time>2026-08-27T18:24:35Z</time>
  <course>11.55</course>
  <speed>0.022360679774997897</speed>
  <fix>3d</fix>
</trkpt>
<trkpt lat="40.072842" lon="-105.230575">
  <ele>1586.09</ele>
  <time>2026-08-27T18:24:35Z</time>
  <course>292.44</course>
  <speed>0.0</speed>
  <fix>3d</fix>
</trkpt>
<trkpt lat="40.0728419" lon="-105.2305749">
  <ele>1586.17</ele>
  <time>2026-08-27T18:24:35Z</time>
  <course>11.55</course>
  <speed>0.022360679774997897</speed>
  <fix>3d</fix>
</trkpt>
<trkpt lat="40.072842" lon="-105.230575">
  <ele>1586.09</ele>
  <time>2026-08-27T18:24:35Z</time>
  <course>292.44</course>
  <speed>0.0</speed>
  <fix>3d</fix>
</trkpt>
<trkpt lat="40.0728419" lon="-105.2305749">
  <ele>1586.17</ele>
  <time>2026-08-27T18:24:35Z</time>
  <course>11.55</course>
  <speed>0.022360679774997897</speed>
  <fix>3d</fix>
</trkpt>
<trkpt lat="40.072842" lon="-105.230575">
  <ele>1586.09</ele>
  <time>2026-08-27T18:24:35Z</time>
  <course>292.44</course>
  <speed>0.0</speed>
  <fix>3d</fix>
</trkpt>
<trkpt lat="40.0728419" lon="-105.2305749">
  <ele>1586.16</ele>
  <time>2026-08-27T18:24:35Z</time>
  <course>11.55</course>
  <speed>0.022360679774997897</speed>
  <fix>3d</fix>
</trkpt>
<trkpt lat="40.072842" lon="-105.230575">
  <ele>1586.09</ele>
  <time>2026-08-27T18:24:35Z</time>
  <course>208.88</course>
  <speed>0.0</speed>
  <fix>3d</fix>
</trkpt>
<trkpt lat="40.0728419" lon="-105.2305749">
  <ele>1586.16</ele>
  <time>2026-08-27T18:24:35Z</time>
  <course>11.56</course>
  <speed>0.022360679774997897</speed>
  <fix>3d</fix>
</trkpt>
<trkpt lat="40.072842" lon="-105.230575">
  <ele>1586.09</ele>
  <time>2026-08-27T18:24:35Z</time>
  <course>221.19</course>
  <speed>0.0</speed>
  <fix>3d</fix>
</trkpt>
<trkpt lat="40.0728419" lon="-105.2305749">
  <ele>1586.16</ele>
  <time>2026-08-27T18:24:35Z</time>
  <course>11.56</course>
  <speed>0.022360679774997897</speed>
  <fix>3d</fix>
</trkpt>
<trkpt lat="40.072842" lon="-105.230575">
  <ele>1586.09</ele>
  <time>2026-08-27T18:24:35Z</time>
  <course>279.96</course>
  <speed>0.0</speed>
  <fix>3d</fix>
</trkpt>
<trkpt lat="40.0728419" lon="-105.2305749">
  <ele>1586.16</ele>
  <time>2026-08-27T18:24:35Z</time>
  <course>11.56</course>
  <speed>0.022360679774997897</speed>
  <fix>3d</fix>
</trkpt>
<trkpt lat="40.072842" lon="-105.230575">
  <ele>1586.09</ele>
  <time>2026-08-27T18:24:35Z</time>
  <course>300.48</course>
  <speed>0.0</speed>
  <fix>3d</fix>
</trkpt>
<trkpt lat="40.0728419" lon="-105.2305749">
  <ele>1586.16</ele>
  <time>2026-08-27T18:24:35Z</time>
  <course>11.56</course>
  <speed>0.022360679774997897</speed>
  <fix>3d</fix>
</trkpt>
<trkpt lat="40.072842" lon="-105.230575">
  <ele>1586.09</ele>
  <time>2026-08-27T18:24:35Z</time>
  <course>294.78</course>
  <speed>0.0</speed>
  <fix>3d</fix>
</trkpt>
<trkpt lat="40.0728419" lon="-105.2305749">
  <ele>1586.15</ele>
  <time>2026-08-27T18:24:35Z</time>
  <course>11.56</course>
  <speed>0.022360679774997897</speed>
  <fix>3d</fix>
</trkpt>
<trkpt lat="40.072842" lon="-105.230575">
  <ele>1586.09</ele>
  <time>2026-08-27T18:24:35Z</time>
  <course>300.77</course>
  <speed>0.0</speed>
  <fix>3d</fix>
</trkpt>
<trkpt lat="40.0728419" lon="-105.2305749">
  <ele>1586.15</ele>
  <time>2026-08-27T18:24:35Z</time>
  <course>11.56</course>
  <speed>0.022360679774997897</speed>
  <fix>3d</fix>
</trkpt>
<trkpt lat="40.072842" lon="-105.230575">
  <ele>1586.09</ele>
  <time>2026-08-27T18:24:35Z</time>
  <course>289.75</course>
  <speed>0.0</speed>
  <fix>3d</fix>
</trkpt>
<trkpt lat="40.0728419" lon="-105.2305749">
  <ele>1586.15</ele>
  <time>2026-08-27T18:24:35Z</time>
  <course>11.56</course>
  <speed>0.022360679774997897</speed>
  <fix>3d</fix>
</trkpt>
<trkpt lat="40.072842" lon="-105.230575">
  <ele>1586.09</ele>
  <time>2026-08-27T18:24:35Z</time>
  <course>322.08</course>
  <speed>0.0</speed>
  <fix>3d</fix>
</trkpt>
<trkpt lat="40.0728419" lon="-105.2305749">
  <ele>1586.16</ele>
  <time>2026-08-27T18:24:35Z</time>
  <course>11.56</course>
  <speed>0.022360679774997897</speed>
  <fix>3d</fix>
</trkpt>
<trkpt lat="40.072842" lon="-105.230575">
  <ele>1586.09</ele>
  <time>2026-08-27T18:24:35Z</time>
  <course>323.73</course>
  <speed>0.0</speed>
  <fix>3d</fix>
</trkpt>
<trkpt lat="40.0728419" lon="-105.2305749">
  <ele>1586.16</ele>
  <time>2026-08-27T18:24:35Z</time>
  <course>11.56</course>
  <speed>0.022360679774997897</speed>
  <fix>3d</fix>
</trkpt>
<trkpt lat="40.072842" lon="-105.230575">
  <ele>1586.09</ele>
  <time>2026-08-27T18:24:35Z</time>
  <course>290.18</course>
  <speed>0.0</speed>
  <fix>3d</fix>
</trkpt>
<trkpt lat="40.0728419" lon="-105.2305749">
  <ele>1586.16</ele>
  <time>2026-08-27T18:24:35Z</time>
  <course>11.56</course>
  <speed>0.022360679774997897</speed>
  <fix>3d</fix>
</trkpt>
<trkpt lat="40.072842" lon="-105.230575">
  <ele>1586.09</ele>
  <time>2026-08-27T18:24:35Z</time>
  <course>178.7</course>
  <speed>0.0</speed>
  <fix>3d</fix>
</trkpt>
<trkpt lat="40.0728419" lon="-105.2305749">
  <ele>1586.15</ele>
  <time>2026-08-27T18:24:35Z</time>
  <course>11.56</course>
  <speed>0.022360679774997897</speed>
  <fix>3d</fix>
</trkpt>
<trkpt lat="40.072842" lon="-105.230575">
  <ele>1586.09</ele>
  <time>2026-08-27T18:24:35Z</time>
  <course>241.91</course>
  <speed>0.0</speed>
  <fix>3d</fix>
</trkpt>
<trkpt lat="40.0728419" lon="-105.2305749">
  <ele>1586.15</ele>
  <time>2026-08-27T18:24:35Z</time>
  <course>11.56</course>
  <speed>0.022360679774997897</speed>
  <fix>3d</fix>
</trkpt>
<trkpt lat="40.072842" lon="-105.230575">
  <ele>1586.09</ele>
  <time>2026-08-27T18:24:35Z</time>
  <course>327.46</course>
  <speed>0.0</speed>
  <fix>3d</fix>
</trkpt>
<trkpt lat="40.0728419" lon="-105.2305749">
  <ele>1586.16</ele>
  <time>2026-08-27T18:24:35Z</time>
  <course>11.56</course>
  <speed>0.022360679774997897</speed>
  <fix>3d</fix>
</trkpt>
<trkpt lat="40.072842" lon="-105.230575">
  <ele>1586.09</ele>
  <time>2026-08-27T18:24:35Z</time>
  <course>219.22</course>
  <speed>0.0</speed>
  <fix>3d</fix>
</trkpt>
<trkpt lat="40.0728419" lon="-105.2305749">
  <ele>1586.16</ele>
  <time>2026-08-27T18:24:35Z</time>
  <course>11.56</course>
  <speed>0.022360679774997897</speed>
  <fix>3d</fix>
</trkpt>
<trkpt lat="40.072842" lon="-105.230575">
  <ele>1586.09</ele>
  <time>2026-08-27T18:24:35Z</time>
  <course>165.04</course>
  <speed>0.0</speed>
  <fix>3d</fix>
</trkpt>
<trkpt lat="40.0728419" lon="-105.2305749">
  <ele>1586.16</ele>
  <time>2026-08-27T18:24:35Z</time>
  <course>11.56</course>
  <speed>0.022360679774997897</speed>
  <fix>3d</fix>
</trkpt>
<trkpt lat="40.072842" lon="-105.230575">
  <ele>1586.09</ele>
  <time>2026-08-27T18:24:35Z</time>
  <course>336.26</course>
  <speed>0.0</speed>
  <fix>3d</fix>
</trkpt>
<trkpt lat="40.0728419" lon="-105.2305749">
  <ele>1586.17</ele>
  <time>2026-08-27T18:24:35Z</time>
  <course>11.56</course>
  <speed>0.022360679774997897</speed>
  <fix>3d</fix>
</trkpt>
<trkpt lat="40.072842" lon="-105.230575">
  <ele>1586.09</ele>
  <time>2026-08-27T18:24:35Z</time>
  <course>311.02</course>
  <speed>0.0</speed>
  <fix>3d</fix>
</trkpt>
<trkpt lat="40.0728419" lon="-105.2305749">
  <ele>1586.17</ele>
  <time>2026-08-27T18:24:35Z</time>
  <course>11.56</course>
  <speed>0.022360679774997897</speed>
  <fix>3d</fix>
</trkpt>
<trkpt lat="40.072842" lon="-105.230575">
  <ele>1586.09</ele>
  <time>2026-08-27T18:24:35Z</time>
  <course>242.45</course>
  <speed>0.0</speed>
  <fix>3d</fix>
</trkpt>
<trkpt lat="40.0728419" lon="-105.2305749">
  <ele>1586.17</ele>
  <time>2026-08-27T18:24:35Z</time>
  <course>11.56</course>
  <speed>0.022360679774997897</speed>
  <fix>3d</fix>
</trkpt>
<trkpt lat="40.072842" lon="-105.230575">
  <ele>1586.09</ele>
  <time>2026-08-27T18:24:35Z</time>
  <course>311.97</course>
  <speed>0.0</speed>
  <fix>3d</fix>
</trkpt>
<trkpt lat="40.0728419" lon="-105.2305749">
  <ele>1586.17</ele>
  <time>2026-08-27T18:24:35Z</time>
  <course>11.56</course>
  <speed>0.022360679774997897</speed>
  <fix>3d</fix>
</trkpt>
<trkpt lat="40.072842" lon="-105.230575">
  <ele>1586.09</ele>
  <time>2026-08-27T18:24:35Z</time>
  <course>302.03</course>
  <speed>0.0</speed>
  <fix>3d</fix>
</trkpt>
<trkpt lat="40.0728419" lon="-105.2305749">
  <ele>1586.16</ele>
  <time>2026-08-27T18:24:35Z</time>
  <course>11.56</course>
  <speed>0.022360679774997897</speed>
  <fix>3d</fix>
</trkpt>
<trkpt lat="40.072842" lon="-105.230575">
  <ele>1586.09</ele>
  <time>2026-08-27T18:24:35Z</time>
  <course>181.5</course>
  <speed>0.0</speed>
  <fix>3d</fix>
</trkpt>
<trkpt lat="40.0728419" lon="-105.2305749">
  <ele>1586.16</ele>
  <time>2026-08-27T18:24:35Z</time>
  <course>11.56</course>
  <speed>0.022360679774997897</speed>
  <fix>3d</fix>
</trkpt>
<trkpt lat="40.072842" lon="-105.230575">
  <ele>1586.09</ele>
  <time>2026-08-27T18:24:35Z</time>
  <course>152.67</course>
  <speed>0.0</speed>
  <fix>3d</fix>
</trkpt>
<trkpt lat="40.0728419" lon="-105.2305749">
  <ele>1586.17</ele>
  <time>2026-08-27T18:24:35Z</time>
  <course>11.56</course>
  <speed>0.022360679774997897</speed>
  <fix>3d</fix>
</trkpt>
<trkpt lat="40.072842" lon="-105.230575">
  <ele>1586.09</ele>
  <time>2026-08-27T18:24:35Z</time>
  <course>313.85</course>
  <speed>0.0</speed>
  <fix>3d</fix>
</trkpt>
<trkpt lat="40.0728419" lon="-105.2305749">
  <ele>1586.17</ele>
  <time>2026-08-27T18:24:35Z</time>
  <course>11.56</course>
  <speed>0.022360679774997897</speed>
  <fix>3d</fix>
</trkpt>
<trkpt lat="40.072842" lon="-105.230575">
  <ele>1586.09</ele>
  <time>2026-08-27T18:24:35Z</time>
  <course>296.3</course>
  <speed>0.0</speed>
  <fix>3d</fix>
</trkpt>
<trkpt lat="40.0728419" lon="-105.2305749">
  <ele>1586.16</ele>
  <time>2026-08-27T18:24:35Z</time>
  <course>11.56</course>
  <speed>0.022360679774997897</speed>
  <fix>3d</fix>
</trkpt>
<trkpt lat="40.072842" lon="-105.230575">
  <ele>1586.09</ele>
  <time>2026-08-27T18:24:35Z</time>
  <course>281.78</course>
  <speed>0.0</speed>
  <fix>3d</fix>
</trkpt>
<trkpt lat="40.0728419" lon="-105.2305749">
  <ele>1586.16</ele>
  <time>2026-08-27T18:24:35Z</time>
  <course>11.56</course>
  <speed>0.022360679774997897</speed>
  <fix>3d</fix>
</trkpt>
<trkpt lat="40.072842" lon="-105.230575">
  <ele>1586.09</ele>
  <time>2026-08-27T18:24:35Z</time>
  <course>284.66</course>
  <speed>0.0</speed>
  <fix>3d</fix>
</trkpt>
<trkpt lat="40.0728419" lon="-105.2305749">
  <ele>1586.17</ele>
  <time>2026-08-27T18:24:35Z</time>
  <course>11.56</course>
  <speed>0.022360679774997897</speed>
  <fix>3d</fix>
</trkpt>
<trkpt lat="40.072842" lon="-105.230575">
  <ele>1586.09</ele>
  <time>2026-08-27T18:24:35Z</time>
  <course>286.95</course>
  <speed>0.0</speed>
  <fix>3d</fix>
</trkpt>
<trkpt lat="40.0728419" lon="-105.2305749">
  <ele>1586.17</ele>
  <time>2026-08-27T18:24:35Z</time>
  <course>11.56</course>
  <speed>0.022360679774997897</speed>
  <fix>3d</fix>
</trkpt>
<trkpt lat="40.072842" lon="-105.230575">
  <ele>1586.09</ele>
  <time>2026-08-27T18:24:35Z</time>
  <course>286.29</course>
  <speed>0.0</speed>
  <fix>3d</fix>
</trkpt>
<trkpt lat="40.0728419" lon="-105.2305749">
  <ele>1586.17</ele>
  <time>2026-08-27T18:24:35Z</time>
  <course>11.56</course>
  <speed>0.022360679774997897</speed>
  <fix>3d</fix>
</trkpt>
<trkpt lat="40.072842" lon="-105.230575">
  <ele>1586.09</ele>
  <time>2026-08-27T18:24:35Z</time>
  <course>286.07</course>
  <speed>0.0</speed>
  <fix>3d</fix>
</trkpt>
<trkpt lat="40.0728419" lon="-105.2305749">
  <ele>1586.17</ele>
  <time>2026-08-27T18:24:35Z</time>
  <course>11.56</course>
  <speed>0.022360679774997897</speed>
  <fix>3d</fix>
</trkpt>
<trkpt lat="40.072842" lon="-105.230575">
  <ele>1586.09</ele>
  <time>2026-08-27T18:24:35Z</time>
  <course>286.19</course>
  <speed>0.0</speed>
  <fix>3d</fix>
</trkpt>
<trkpt lat="40.0728419" lon="-105.2305749">
  <ele>1586.16</ele>
  <time>2026-08-27T18:24:35Z</time>
  <course>11.56</course>
  <speed>0.022360679774997897</speed>
  <fix>3d</fix>
</trkpt>
<trkpt lat="40.072842" lon="-105.230575">
  <ele>1586.09</ele>
  <time>2026-08-27T18:24:35Z</time>
  <course>286.21</course>
  <speed>0.0</speed>
  <fix>3d</fix>
</trkpt>
<trkpt lat="40.0728419" lon="-105.2305749">
  <ele>1586.16</ele>
  <time>2026-08-27T18:24:35Z</time>
  <course>11.56</course>
  <speed>0.022360679774997897</speed>
  <fix>3d</fix>
</trkpt>
<trkpt lat="40.072842" lon="-105.230575">
  <ele>1586.09</ele>
  <time>2026-08-27T18:24:35Z</time>
  <course>286.19</course>
  <speed>0.0</speed>
  <fix>3d</fix>
</trkpt>
<trkpt lat="40.0728419" lon="-105.2305749">
  <ele>1586.16</ele>
  <time>2026-08-27T18:24:35Z</time>
  <course>11.56</course>
  <speed>0.022360679774997897</speed>
  <fix>3d</fix>
</trkpt>
<trkpt lat="40.072842" lon="-105.230575">
  <ele>1586.09</ele>
  <time>2026-08-27T18:24:35Z</time>
  <course>286.19</course>
  <speed>0.0</speed>
  <fix>3d</fix>
</trkpt>
<trkpt lat="40.0728419" lon="-105.2305749">
  <ele>1586.17</ele>
  <time>2026-08-27T18:24:35Z</time>
  <course>11.56</course>
  <speed>0.022360679774997897</speed>
  <fix>3d</fix>
</trkpt>
<trkpt lat="40.072842" lon="-105.230575">
  <ele>1586.09</ele>
  <time>2026-08-27T18:24:35Z</time>
  <course>286.19</course>
  <speed>0.0</speed>
  <fix>3d</fix>
</trkpt>
<trkpt lat="40.0728419" lon="-105.2305749">
  <ele>1586.17</ele>
  <time>2026-08-27T18:24:35Z</time>
  <course>11.56</course>
  <speed>0.022360679774997897</speed>
  <fix>3d</fix>
</trkpt>
<trkpt lat="40.072842" lon="-105.230575">
  <ele>1586.09</ele>
  <time>2026-08-27T18:24:35Z</time>
  <course>286.19</course>
  <speed>0.0</speed>
  <fix>3d</fix>
</trkpt>
<trkpt lat="40.0728419" lon="-105.2305749">
  <ele>1586.18</ele>
  <time>2026-08-27T18:24:35Z</time>
  <course>11.56</course>
  <speed>0.022360679774997897</speed>
  <fix>3d</fix>
</trkpt>
<trkpt lat="40.072842" lon="-105.230575">
  <ele>1586.09</ele>
  <time>2026-08-27T18:24:35Z</time>
  <course>286.19</course>
  <speed>0.0</speed>
  <fix>3d</fix>
</trkpt>
<trkpt lat="40.0728419" lon="-105.2305749">
  <ele>1586.18</ele>
  <time>2026-08-27T18:24:35Z</time>
  <course>11.56</course>
  <speed>0.022360679774997897</speed>
  <fix>3d</fix>
</trkpt>
<trkpt lat="40.072842" lon="-105.230575">
  <ele>1586.09</ele>
  <time>2026-08-27T18:24:35Z</time>
  <course>286.19</course>
  <speed>0.0</speed>
  <fix>3d</fix>
</trkpt>
<trkpt lat="40.0728419" lon="-105.2305749">
  <ele>1586.17</ele>
  <time>2026-08-27T18:24:35Z</time>
  <course>11.56</course>
  <speed>0.022360679774997897</speed>
  <fix>3d</fix>
</trkpt>
<trkpt lat="40.072842" lon="-105.230575">
  <ele>1586.09</ele>
  <time>2026-08-27T18:24:35Z</time>
  <course>286.19</course>
  <speed>0.0</speed>
  <fix>3d</fix>
</trkpt>
<trkpt lat="40.0728419" lon="-105.2305749">
  <ele>1586.17</ele>
  <time>2026-08-27T18:24:35Z</time>
  <course>11.56</course>
  <speed>0.022360679774997897</speed>
  <fix>3d</fix>
</trkpt>
<trkpt lat="40.072842" lon="-105.230575">
  <ele>1586.09</ele>
  <time>2026-08-27T18:24:35Z</time>
  <course>286.19</course>
  <speed>0.0</speed>
  <fix>3d</fix>
</trkpt>
<trkpt lat="40.0728419" lon="-105.2305749">
  <ele>1586.18</ele>
  <time>2026-08-27T18:24:35Z</time>
  <course>11.56</course>
  <speed>0.022360679774997897</speed>
  <fix>3d</fix>
</trkpt>
<trkpt lat="40.072842" lon="-105.230575">
  <ele>1586.09</ele>
  <time>2026-08-27T18:24:35Z</time>
  <course>286.19</course>
  <speed>0.0</speed>
  <fix>3d</fix>
</trkpt>
<trkpt lat="40.0728419" lon="-105.2305749">
  <ele>1586.18</ele>
  <time>2026-08-27T18:24:35Z</time>
  <course>11.56</course>
  <speed>0.022360679774997897</speed>
  <fix>3d</fix>
</trkpt>
<trkpt lat="40.072842" lon="-105.230575">
  <ele>1586.09</ele>
  <time>2026-08-27T18:24:35Z</time>
  <course>286.19</course>
  <speed>0.0</speed>
  <fix>3d</fix>
</trkpt>
<trkpt lat="40.0728419" lon="-105.2305749">
  <ele>1586.18</ele>
  <time>2026-08-27T18:24:35Z</time>
  <course>11.56</course>
  <speed>0.022360679774997897</speed>
  <fix>3d</fix>
</trkpt>
<trkpt lat="40.072842" lon="-105.230575">
  <ele>1586.09</ele>
  <time>2026-08-27T18:24:35Z</time>
  <course>286.19</course>
  <speed>0.0</speed>
  <fix>3d</fix>
</trkpt>
<trkpt lat="40.0728419" lon="-105.2305749">
  <ele>1586.18</ele>
  <time>2026-08-27T18:24:35Z</time>
  <course>11.56</course>
  <speed>0.022360679774997897</speed>
  <fix>3d</fix>
</trkpt>
<trkpt lat="40.072842" lon="-105.230575">
  <ele>1586.09</ele>
  <time>2026-08-27T18:24:35Z</time>
  <course>286.19</course>
  <speed>0.0</speed>
  <fix>3d</fix>
</trkpt>
<trkpt lat="40.0728419" lon="-105.2305749">
  <ele>1586.18</ele>
  <time>2026-08-27T18:24:35Z</time>
  <course>11.56</course>
  <speed>0.022360679774997897</speed>
  <fix>3d</fix>
</trkpt>
<trkpt lat="40.072842" lon="-105.230575">
  <ele>1586.09</ele>
  <time>2026-08-27T18:24:35Z</time>
  <course>286.19</course>
  <speed>0.0</speed>
  <fix>3d</fix>
</trkpt>
<trkpt lat="40.0728419" lon="-105.2305749">
  <ele>1586.18</ele>
  <time>2026-08-27T18:24:35Z</time>
  <course>11.56</course>
  <speed>0.022360679774997897</speed>
  <fix>3d</fix>
</trkpt>
<trkpt lat="40.072842" lon="-105.230575">
  <ele>1586.09</ele>
  <time>2026-08-27T18:24:35Z</time>
  <course>286.19</course>
  <speed>0.0</speed>
  <fix>3d</fix>
</trkpt>
<trkpt lat="40.0728419" lon="-105.2305749">
  <ele>1586.18</ele>
  <time>2026-08-27T18:24:35Z</time>
  <course>11.56</course>
  <speed>0.022360679774997897</speed>
  <fix>3d</fix>
</trkpt>
<trkpt lat="40.072842" lon="-105.230575">
  <ele>1586.09</ele>
  <time>2026-08-27T18:24:35Z</time>
  <course>286.19</course>
  <speed>0.0</speed>
  <fix>3d</fix>
</trkpt>
<trkpt lat="40.0728419" lon="-105.2305749">
  <ele>1586.18</ele>
  <time>2026-08-27T18:24:35Z</time>
  <course>11.56</course>
  <speed>0.022360679774997897</speed>
  <fix>3d</fix>
</trkpt>
<trkpt lat="40.072842" lon="-105.230575">
  <ele>1586.09</ele>
  <time>2026-08-27T18:24:35Z</time>
  <course>286.19</course>
  <speed>0.0</speed>
  <fix>3d</fix>
</trkpt>
<trkpt lat="40.0728419" lon="-105.2305749">
  <ele>1586.17</ele>
  <time>2026-08-27T18:24:35Z</time>
  <course>11.56</course>
  <speed>0.01414213562373095</speed>
  <fix>3d</fix>
</trkpt>
<trkpt lat="40.072842" lon="-105.230575">
  <ele>1586.09</ele>
  <time>2026-08-27T18:24:35Z</time>
  <course>286.19</course>
  <speed>0.0</speed>
  <fix>3d</fix>
</trkpt>
<trkpt lat="40.0728419" lon="-105.2305749">
  <ele>1586.17</ele>
  <time>2026-08-27T18:24:35Z</time>
  <course>11.56</course>
  <speed>0.01414213562373095</speed>
  <fix>3d</fix>
</trkpt>
<trkpt lat="40.072842" lon="-105.230575">
  <ele>1586.09</ele>
  <time>2026-08-27T18:24:35Z</time>
  <course>286.19</course>
  <speed>0.0</speed>
  <fix>3d</fix>
</trkpt>
<trkpt lat="40.0728419" lon="-105.2305749">
  <ele>1586.17</ele>
  <time>2026-08-27T18:24:35Z</time>
  <course>11.56</course>
  <speed>0.01414213562373095</speed>
  <fix>3d</fix>
</trkpt>
<trkpt lat="40.072842" lon="-105.230575">
  <ele>1586.09</ele>
  <time>2026-08-27T18:24:35Z</time>
  <course>286.19</course>
  <speed>0.0</speed>
  <fix>3d</fix>
</trkpt>
<trkpt lat="40.0728419" lon="-105.2305749">
  <ele>1586.17</ele>
  <time>2026-08-27T18:24:35Z</time>
  <course>11.56</course>
  <speed>0.01414213562373095</speed>
  <fix>3d</fix>
</trkpt>
<trkpt lat="40.072842" lon="-105.230575">
  <ele>1586.09</ele>
  <time>2026-08-27T18:24:35Z</time>
  <course>286.19</course>
  <speed>0.0</speed>
  <fix>3d</fix>
</trkpt>
<trkpt lat="40.0728419" lon="-105.2305749">
  <ele>1586.17</ele>
  <time>2026-08-27T18:24:35Z</time>
  <course>11.56</course>
  <speed>0.01414213562373095</speed>
  <fix>3d</fix>
</trkpt>
<trkpt lat="40.072842" lon="-105.230575">
  <ele>1586.09</ele>
  <time>2026-08-27T18:24:35Z</time>
  <course>286.19</course>
  <speed>0.0</speed>
  <fix>3d</fix>
</trkpt>
<trkpt lat="40.0728419" lon="-105.2305749">
  <ele>1586.17</ele>
  <time>2026-08-27T18:24:35Z</time>
  <course>11.56</course>
  <speed>0.01414213562373095</speed>
  <fix>3d</fix>
</trkpt>
<trkpt lat="40.072842" lon="-105.230575">
  <ele>1586.09</ele>
  <time>2026-08-27T18:24:35Z</time>
  <course>286.19</course>
  <speed>0.0</speed>
  <fix>3d</fix>
</trkpt>
<trkpt lat="40.0728419" lon="-105.2305749">
  <ele>1586.17</ele>
  <time>2026-08-27T18:24:35Z</time>
  <course>11.56</course>
  <speed>0.01414213562373095</speed>
  <fix>3d</fix>
</trkpt>
<trkpt lat="40.072842" lon="-105.230575">
  <ele>1586.09</ele>
  <time>2026-08-27T18:24:35Z</time>
  <course>286.19</course>
  <speed>0.0</speed>
  <fix>3d</fix>
</trkpt>
<trkpt lat="40.0728419" lon="-105.2305749">
  <ele>1586.17</ele>
  <time>2026-08-27T18:24:35Z</time>
  <course>11.56</course>
  <speed>0.01414213562373095</speed>
  <fix>3d</fix>
</trkpt>
<trkpt lat="40.072842" lon="-105.230575">
  <ele>1586.09</ele>
  <time>2026-08-27T18:24:35Z</time>
  <course>286.19</course>
  <speed>0.0</speed>
  <fix>3d</fix>
</trkpt>
<trkpt lat="40.0728419" lon="-105.2305749">
  <ele>1586.16</ele>
  <time>2026-08-27T18:24:35Z</time>
  <course>11.56</course>
  <speed>0.022360679774997897</speed>
  <fix>3d</fix>
</trkpt>
<trkpt lat="40.072842" lon="-105.230575">
  <ele>1586.09</ele>
  <time>2026-08-27T18:24:35Z</time>
  <course>286.19</course>
  <speed>0.0</speed>
  <fix>3d</fix>
</trkpt>
<trkpt lat="40.0728419" lon="-105.2305749">
  <ele>1586.16</ele>
  <time>2026-08-27T18:24:35Z</time>
  <course>11.56</course>
  <speed>0.01414213562373095</speed>
  <fix>3d</fix>
</trkpt>
<trkpt lat="40.072842" lon="-105.230575">
  <ele>1586.09</ele>
  <time>2026-08-27T18:24:35Z</time>
  <course>286.19</course>
  <speed>0.0</speed>
  <fix>3d</fix>
</trkpt>
<trkpt lat="40.0728419" lon="-105.2305749">
  <ele>1586.15</ele>
  <time>2026-08-27T18:24:35Z</time>
  <course>11.56</course>
  <speed>0.022360679774997897</speed>
  <fix>3d</fix>
</trkpt>
<trkpt lat="40.072842" lon="-105.230575">
  <ele>1586.09</ele>
  <time>2026-08-27T18:24:35Z</time>
  <course>286.19</course>
  <speed>0.0</speed>
  <fix>3d</fix>
</trkpt>
<trkpt lat="40.0728419" lon="-105.2305749">
  <ele>1586.15</ele>
  <time>2026-08-27T18:24:35Z</time>
  <course>11.56</course>
  <speed>0.01414213562373095</speed>
  <fix>3d</fix>
</trkpt>
<trkpt lat="40.072842" lon="-105.230575">
  <ele>1586.09</ele>
  <time>2026-08-27T18:24:35Z</time>
  <course>286.19</course>
  <speed>0.0</speed>
  <fix>3d</fix>
</trkpt>
<trkpt lat="40.0728419" lon="-105.2305749">
  <ele>1586.15</ele>
  <time>2026-08-27T18:24:35Z</time>
  <course>11.56</course>
  <speed>0.01414213562373095</speed>
  <fix>3d</fix>
</trkpt>
<trkpt lat="40.072842" lon="-105.230575">
  <ele>1586.09</ele>
  <time>2026-08-27T18:24:35Z</time>
  <course>286.19</course>
  <speed>0.0</speed>
  <fix>3d</fix>
</trkpt>
<trkpt lat="40.0728419" lon="-105.2305749">
  <ele>1586.15</ele>
  <time>2026-08-27T18:24:35Z</time>
  <course>11.56</course>
  <speed>0.022360679774997897</speed>
  <fix>3d</fix>
</trkpt>
<trkpt lat="40.072842" lon="-105.230575">
  <ele>1586.09</ele>
  <time>2026-08-27T18:24:35Z</time>
  <course>286.19</course>
  <speed>0.0</speed>
  <fix>3d</fix>
</trkpt>
<trkpt lat="40.0728419" lon="-105.2305749">
  <ele>1586.14</ele>
  <time>2026-08-27T18:24:35Z</time>
  <course>11.56</course>
  <speed>0.01414213562373095</speed>
  <fix>3d</fix>
</trkpt>
<trkpt lat="40.072842" lon="-105.230575">
  <ele>1586.09</ele>
  <time>2026-08-27T18:24:35Z</time>
  <course>286.19</course>
  <speed>0.0</speed>
  <fix>3d</fix>
</trkpt>
<trkpt lat="40.0728419" lon="-105.2305749">
  <ele>1586.14</ele>
  <time>2026-08-27T18:24:35Z</time>
  <course>11.56</course>
  <speed>0.01414213562373095</speed>
  <fix>3d</fix>
</trkpt>
<trkpt lat="40.072842" lon="-105.230575">
  <ele>1586.09</ele>
  <time>2026-08-27T18:24:35Z</time>
  <course>286.19</course>
  <speed>0.0</speed>
  <fix>3d</fix>
</trkpt>
<trkpt lat="40.0728419" lon="-105.2305749">
  <ele>1586.14</ele>
  <time>2026-08-27T18:24:35Z</time>
  <course>11.56</course>
  <speed>0.01414213562373095</speed>
  <fix>3d</fix>
</trkpt>
<trkpt lat="40.072842" lon="-105.230575">
  <ele>1586.09</ele>
  <time>2026-08-27T18:24:35Z</time>
  <course>286.19</course>
  <speed>0.0</speed>
  <fix>3d</fix>
</trkpt>
<trkpt lat="40.0728419" lon="-105.2305749">
  <ele>1586.14</ele>
  <time>2026-08-27T18:24:35Z</time>
  <course>11.56</course>
  <speed>0.01414213562373095</speed>
  <fix>3d</fix>
</trkpt>
<trkpt lat="40.072842" lon="-105.230575">
  <ele>1586.09</ele>
  <time>2026-08-27T18:24:35Z</time>
  <course>286.19</course>
  <speed>0.0</speed>
  <fix>3d</fix>
</trkpt>
<trkpt lat="40.0728419" lon="-105.2305749">
  <ele>1586.14</ele>
  <time>2026-08-27T18:24:35Z</time>
  <course>11.56</course>
  <speed>0.01414213562373095</speed>
  <fix>3d</fix>
</trkpt>
<trkpt lat="40.072842" lon="-105.230575">
  <ele>1586.09</ele>
  <time>2026-08-27T18:24:35Z</time>
  <course>286.19</course>
  <speed>0.0</speed>
  <fix>3d</fix>
</trkpt>
<trkpt lat="40.0728419" lon="-105.2305749">
  <ele>1586.14</ele>
  <time>2026-08-27T18:24:35Z</time>
  <course>11.56</course>
  <speed>0.01414213562373095</speed>
  <fix>3d</fix>
</trkpt>
<trkpt lat="40.072842" lon="-105.230575">
  <ele>1586.09</ele>
  <time>2026-08-27T18:24:35Z</time>
  <course>286.19</course>
  <speed>0.0</speed>
  <fix>3d</fix>
</trkpt>
<trkpt lat="40.0728419" lon="-105.2305749">
  <ele>1586.15</ele>
  <time>2026-08-27T18:24:35Z</time>
  <course>11.56</course>
  <speed>0.01414213562373095</speed>
  <fix>3d</fix>
</trkpt>
<trkpt lat="40.072842" lon="-105.230575">
  <ele>1586.09</ele>
  <time>2026-08-27T18:24:35Z</time>
  <course>286.19</course>
  <speed>0.0</speed>
  <fix>3d</fix>
</trkpt>
<trkpt lat="40.0728419" lon="-105.2305749">
  <ele>1586.15</ele>
  <time>2026-08-27T18:24:35Z</time>
  <course>11.56</course>
  <speed>0.01414213562373095</speed>
  <fix>3d</fix>
</trkpt>
<trkpt lat="40.072842" lon="-105.230575">
  <ele>1586.09</ele>
  <time>2026-08-27T18:24:35Z</time>
  <course>286.19</course>
  <speed>0.0</speed>
  <fix>3d</fix>
</trkpt>
<trkpt lat="40.0728419" lon="-105.2305749">
  <ele>1586.15</ele>
  <time>2026-08-27T18:24:35Z</time>
  <course>11.56</course>
  <speed>0.01414213562373095</speed>
  <fix>3d</fix>
</trkpt>
<trkpt lat="40.072842" lon="-105.230575">
  <ele>1586.09</ele>
  <time>2026-08-27T18:24:35Z</time>
  <course>286.19</course>
  <speed>0.0</speed>
  <fix>3d</fix>
</trkpt>
<trkpt lat="40.0728419" lon="-105.2305749">
  <ele>1586.15</ele>
  <time>2026-08-27T18:24:35Z</time>
  <course>11.56</course>
  <speed>0.01414213562373095</speed>
  <fix>3d</fix>
</trkpt>
<trkpt lat="40.072842" lon="-105.230575">
  <ele>1586.09</ele>
  <time>2026-08-27T18:24:35Z</time>
  <course>286.19</course>
  <speed>0.0</speed>
  <fix>3d</fix>
</trkpt>
<trkpt lat="40.0728419" lon="-105.2305749">
  <ele>1586.16</ele>
  <time>2026-08-27T18:24:35Z</time>
  <course>11.56</course>
  <speed>0.01414213562373095</speed>
  <fix>3d</fix>
</trkpt>
<trkpt lat="40.072842" lon="-105.230575">
  <ele>1586.09</ele>
  <time>2026-08-27T18:24:35Z</time>
  <course>286.19</course>
  <speed>0.0</speed>
  <fix>3d</fix>
</trkpt>
<trkpt lat="40.0728419" lon="-105.2305749">
  <ele>1586.16</ele>
  <time>2026-08-27T18:24:35Z</time>
  <course>11.56</course>
  <speed>0.01414213562373095</speed>
  <fix>3d</fix>
</trkpt>
<trkpt lat="40.072842" lon="-105.230575">
  <ele>1586.09</ele>
  <time>2026-08-27T18:24:35Z</time>
  <course>286.19</course>
  <speed>0.0</speed>
  <fix>3d</fix>
</trkpt>
<trkpt lat="40.0728419" lon="-105.2305749">
  <ele>1586.16</ele>
  <time>2026-08-27T18:24:35Z</time>
  <course>11.56</course>
  <speed>0.01414213562373095</speed>
  <fix>3d</fix>
</trkpt>
<trkpt lat="40.072842" lon="-105.230575">
  <ele>1586.09</ele>
  <time>2026-08-27T18:24:35Z</time>
  <course>286.19</course>
  <speed>0.0</speed>
  <fix>3d</fix>
</trkpt>
<trkpt lat="40.0728419" lon="-105.2305749">
  <ele>1586.16</ele>
  <time>2026-08-27T18:24:35Z</time>
  <course>11.56</course>
  <speed>0.01414213562373095</speed>
  <fix>3d</fix>
</trkpt>
<trkpt lat="40.072842" lon="-105.230575">
  <ele>1586.09</ele>
  <time>2026-08-27T18:24:35Z</time>
  <course>286.19</course>
  <speed>0.0</speed>
  <fix>3d</fix>
</trkpt>
<trkpt lat="40.0728419" lon="-105.2305749">
  <ele>1586.16</ele>
  <time>2026-08-27T18:24:35Z</time>
  <course>11.56</course>
  <speed>0.01414213562373095</speed>
  <fix>3d</fix>
</trkpt>
<trkpt lat="40.072842" lon="-105.230575">
  <ele>1586.09</ele>
  <time>2026-08-27T18:24:35Z</time>
  <course>286.19</course>
  <speed>0.0</speed>
  <fix>3d</fix>
</trkpt>
<trkpt lat="40.0728419" lon="-105.2305749">
  <ele>1586.16</ele>
  <time>2026-08-27T18:24:35Z</time>
  <course>11.56</course>
  <speed>0.01414213562373095</speed>
  <fix>3d</fix>
</trkpt>
<trkpt lat="40.072842" lon="-105.230575">
  <ele>1586.09</ele>
  <time>2026-08-27T18:24:35Z</time>
  <course>286.19</course>
  <speed>0.0</speed>
  <fix>3d</fix>
</trkpt>
<trkpt lat="40.0728419" lon="-105.2305749">
  <ele>1586.16</ele>
  <time>2026-08-27T18:24:35Z</time>
  <course>11.56</course>
  <speed>0.01414213562373095</speed>
  <fix>3d</fix>
</trkpt>
<trkpt lat="40.072842" lon="-105.230575">
  <ele>1586.09</ele>
  <time>2026-08-27T18:24:35Z</time>
  <course>286.19</course>
  <speed>0.0</speed>
  <fix>3d</fix>
</trkpt>
<trkpt lat="40.0728419" lon="-105.2305749">
  <ele>1586.16</ele>
  <time>2026-08-27T18:24:35Z</time>
  <course>11.56</course>
  <speed>0.01414213562373095</speed>
  <fix>3d</fix>
</trkpt>
<trkpt lat="40.072842" lon="-105.230575">
  <ele>1586.09</ele>
  <time>2026-08-27T18:24:35Z</time>
  <course>286.19</course>
  <speed>0.0</speed>
  <fix>3d</fix>
</trkpt>
<trkpt lat="40.0728419" lon="-105.2305749">
  <ele>1586.16</ele>
  <time>2026-08-27T18:24:35Z</time>
  <course>11.56</course>
  <speed>0.022360679774997897</speed>
  <fix>3d</fix>
</trkpt>
<trkpt lat="40.072842" lon="-105.230575">
  <ele>1586.09</ele>
  <time>2026-08-27T18:24:35Z</time>
  <course>286.19</course>
  <speed>0.0</speed>
  <fix>3d</fix>
</trkpt>
<trkpt lat="40.0728419" lon="-105.2305749">
  <ele>1586.15</ele>
  <time>2026-08-27T18:24:35Z</time>
  <course>11.56</course>
  <speed>0.022360679774997897</speed>
  <fix>3d</fix>
</trkpt>
<trkpt lat="40.072842" lon="-105.230575">
  <ele>1586.09</ele>
  <time>2026-08-27T18:24:35Z</time>
  <course>251.22</course>
  <speed>0.0</speed>
  <fix>3d</fix>
</trkpt>
<trkpt lat="40.0728419" lon="-105.2305749">
  <ele>1586.15</ele>
  <time>2026-08-27T18:24:35Z</time>
  <course>11.56</course>
  <speed>0.022360679774997897</speed>
  <fix>3d</fix>
</trkpt>
<trkpt lat="40.072842" lon="-105.230575">
  <ele>1586.09</ele>
  <time>2026-08-27T18:24:35Z</time>
  <course>213.37</course>
  <speed>0.0</speed>
  <fix>3d</fix>
</trkpt>
<trkpt lat="40.0728419" lon="-105.2305749">
  <ele>1586.16</ele>
  <time>2026-08-27T18:24:35Z</time>
  <course>11.56</course>
  <speed>0.01414213562373095</speed>
  <fix>3d</fix>
</trkpt>
<trkpt lat="40.072842" lon="-105.230575">
  <ele>1586.09</ele>
  <time>2026-08-27T18:24:35Z</time>
  <course>201.39</course>
  <speed>0.0</speed>
  <fix>3d</fix>
</trkpt>
<trkpt lat="40.0728419" lon="-105.2305749">
  <ele>1586.16</ele>
  <time>2026-08-27T18:24:35Z</time>
  <course>11.56</course>
  <speed>0.01414213562373095</speed>
  <fix>3d</fix>
</trkpt>
<trkpt lat="40.072842" lon="-105.230575">
  <ele>1586.09</ele>
  <time>2026-08-27T18:24:35Z</time>
  <course>182.18</course>
  <speed>0.0</speed>
  <fix>3d</fix>
</trkpt>
<trkpt lat="40.0728419" lon="-105.2305749">
  <ele>1586.16</ele>
  <time>2026-08-27T18:24:35Z</time>
  <course>11.56</course>
  <speed>0.01414213562373095</speed>
  <fix>3d</fix>
</trkpt>
<trkpt lat="40.072842" lon="-105.230575">
  <ele>1586.09</ele>
  <time>2026-08-27T18:24:35Z</time>
  <course>4.43</course>
  <speed>0.0</speed>
  <fix>3d</fix>
</trkpt>
<trkpt lat="40.0728419" lon="-105.2305749">
  <ele>1586.16</ele>
  <time>2026-08-27T18:24:35Z</time>
  <course>11.56</course>
  <speed>0.01414213562373095</speed>
  <fix>3d</fix>
</trkpt>
<trkpt lat="40.072842" lon="-105.230575">
  <ele>1586.09</ele>
  <time>2026-08-27T18:24:35Z</time>
  <course>268.88</course>
  <speed>0.0</speed>
  <fix>3d</fix>
</trkpt>
<trkpt lat="40.0728419" lon="-105.2305749">
  <ele>1586.17</ele>
  <time>2026-08-27T18:24:35Z</time>
  <course>11.56</course>
  <speed>0.01414213562373095</speed>
  <fix>3d</fix>
</trkpt>
<trkpt lat="40.072842" lon="-105.230575">
  <ele>1586.09</ele>
  <time>2026-08-27T18:24:35Z</time>
  <course>236.16</course>
  <speed>0.0</speed>
  <fix>3d</fix>
</trkpt>
<trkpt lat="40.0728419" lon="-105.2305749">
  <ele>1586.17</ele>
  <time>2026-08-27T18:24:35Z</time>
  <course>11.56</course>
  <speed>0.01414213562373095</speed>
  <fix>3d</fix>
</trkpt>
<trkpt lat="40.072842" lon="-105.230575">
  <ele>1586.09</ele>
  <time>2026-08-27T18:24:35Z</time>
  <course>250.07</course>
  <speed>0.0</speed>
  <fix>3d</fix>
</trkpt>
<trkpt lat="40.0728419" lon="-105.2305749">
  <ele>1586.17</ele>
  <time>2026-08-27T18:24:35Z</time>
  <course>11.56</course>
  <speed>0.01414213562373095</speed>
  <fix>3d</fix>
</trkpt>
<trkpt lat="40.072842" lon="-105.230575">
  <ele>1586.09</ele>
  <time>2026-08-27T18:24:35Z</time>
  <course>253.43</course>
  <speed>0.0</speed>
  <fix>3d</fix>
</trkpt>
<trkpt lat="40.0728419" lon="-105.2305749">
  <ele>1586.17</ele>
  <time>2026-08-27T18:24:35Z</time>
  <course>11.56</course>
  <speed>0.01414213562373095</speed>
  <fix>3d</fix>
</trkpt>
<trkpt lat="40.072842" lon="-105.230575">
  <ele>1586.09</ele>
  <time>2026-08-27T18:24:35Z</time>
  <course>250.59</course>
  <speed>0.0</speed>
  <fix>3d</fix>
</trkpt>
<trkpt lat="40.0728419" lon="-105.2305749">
  <ele>1586.18</ele>
  <time>2026-08-27T18:24:35Z</time>
  <course>11.56</course>
  <speed>0.01414213562373095</speed>
  <fix>3d</fix>
</trkpt>
<trkpt lat="40.072842" lon="-105.230575">
  <ele>1586.09</ele>
  <time>2026-08-27T18:24:35Z</time>
  <course>250.48</course>
  <speed>0.0</speed>
  <fix>3d</fix>
</trkpt>
<trkpt lat="40.0728419" lon="-105.2305749">
  <ele>1586.18</ele>
  <time>2026-08-27T18:24:35Z</time>
  <course>11.56</course>
  <speed>0.01414213562373095</speed>
  <fix>3d</fix>
</trkpt>
<trkpt lat="40.072842" lon="-105.230575">
  <ele>1586.09</ele>
  <time>2026-08-27T18:24:35Z</time>
  <course>250.86</course>
  <speed>0.0</speed>
  <fix>3d</fix>
</trkpt>
<trkpt lat="40.0728419" lon="-105.2305749">
  <ele>1586.18</ele>
  <time>2026-08-27T18:24:35Z</time>
  <course>11.56</course>
  <speed>0.01414213562373095</speed>
  <fix>3d</fix>
</trkpt>
<trkpt lat="40.072842" lon="-105.230575">
  <ele>1586.09</ele>
  <time>2026-08-27T18:24:35Z</time>
  <course>250.83</course>
  <speed>0.0</speed>
  <fix>3d</fix>
</trkpt>
<trkpt lat="40.0728419" lon="-105.2305749">
  <ele>1586.18</ele>
  <time>2026-08-27T18:24:35Z</time>
  <course>11.56</course>
  <speed>0.01414213562373095</speed>
  <fix>3d</fix>
</trkpt>
<trkpt lat="40.072842" lon="-105.230575">
  <ele>1586.09</ele>
  <time>2026-08-27T18:24:35Z</time>
  <course>250.78</course>
  <speed>0.0</speed>
  <fix>3d</fix>
</trkpt>
<trkpt lat="40.0728419" lon="-105.2305749">
  <ele>1586.18</ele>
  <time>2026-08-27T18:24:35Z</time>
  <course>11.56</course>
  <speed>0.01414213562373095</speed>
  <fix>3d</fix>
</trkpt>
<trkpt lat="40.072842" lon="-105.230575">
  <ele>1586.09</ele>
  <time>2026-08-27T18:24:35Z</time>
  <course>250.79</course>
  <speed>0.0</speed>
  <fix>3d</fix>
</trkpt>
<trkpt lat="40.0728419" lon="-105.2305749">
  <ele>1586.19</ele>
  <time>2026-08-27T18:24:35Z</time>
  <course>11.56</course>
  <speed>0.01414213562373095</speed>
  <fix>3d</fix>
</trkpt>
<trkpt lat="40.072842" lon="-105.230575">
  <ele>1586.09</ele>
  <time>2026-08-27T18:24:35Z</time>
  <course>250.8</course>
  <speed>0.0</speed>
  <fix>3d</fix>
</trkpt>
<trkpt lat="40.0728419" lon="-105.2305749">
  <ele>1586.19</ele>
  <time>2026-08-27T18:24:35Z</time>
  <course>11.56</course>
  <speed>0.01414213562373095</speed>
  <fix>3d</fix>
</trkpt>
<trkpt lat="40.072842" lon="-105.230575">
  <ele>1586.09</ele>
  <time>2026-08-27T18:24:35Z</time>
  <course>250.8</course>
  <speed>0.0</speed>
  <fix>3d</fix>
</trkpt>
<trkpt lat="40.0728419" lon="-105.2305749">
  <ele>1586.19</ele>
  <time>2026-08-27T18:24:35Z</time>
  <course>11.56</course>
  <speed>0.01414213562373095</speed>
  <fix>3d</fix>
</trkpt>
<trkpt lat="40.072842" lon="-105.230575">
  <ele>1586.09</ele>
  <time>2026-08-27T18:24:35Z</time>
  <course>250.8</course>
  <speed>0.0</speed>
  <fix>3d</fix>
</trkpt>
<trkpt lat="40.0728419" lon="-105.2305749">
  <ele>1586.19</ele>
  <time>2026-08-27T18:24:36Z</time>
  <course>11.56</course>
  <speed>0.022360679774997897</speed>
  <fix>3d</fix>
</trkpt>
<trkpt lat="40.072842" lon="-105.230575">
  <ele>1586.09</ele>
  <time>2026-08-27T18:24:36Z</time>
  <course>250.8</course>
  <speed>0.0</speed>
  <fix>3d</fix>
</trkpt>
<trkpt lat="40.0728419" lon="-105.2305749">
  <ele>1586.18</ele>
  <time>2026-08-27T18:24:36Z</time>
  <course>11.56</course>
  <speed>0.022360679774997897</speed>
  <fix>3d</fix>
</trkpt>
<trkpt lat="40.072842" lon="-105.230575">
  <ele>1586.09</ele>
  <time>2026-08-27T18:24:36Z</time>
  <course>250.8</course>
  <speed>0.0</speed>
  <fix>3d</fix>
</trkpt>
<trkpt lat="40.0728419" lon="-105.2305749">
  <ele>1586.18</ele>
  <time>2026-08-27T18:24:36Z</time>
  <course>11.56</course>
  <speed>0.022360679774997897</speed>
  <fix>3d</fix>
</trkpt>
<trkpt lat="40.072842" lon="-105.230575">
  <ele>1586.09</ele>
  <time>2026-08-27T18:24:36Z</time>
  <course>250.8</course>
  <speed>0.0</speed>
  <fix>3d</fix>
</trkpt>
<trkpt lat="40.0728419" lon="-105.2305749">
  <ele>1586.17</ele>
  <time>2026-08-27T18:24:36Z</time>
  <course>11.56</course>
  <speed>0.022360679774997897</speed>
  <fix>3d</fix>
</trkpt>
<trkpt lat="40.072842" lon="-105.230575">
  <ele>1586.09</ele>
  <time>2026-08-27T18:24:36Z</time>
  <course>250.8</course>
  <speed>0.0</speed>
  <fix>3d</fix>
</trkpt>
<trkpt lat="40.0728419" lon="-105.2305749">
  <ele>1586.17</ele>
  <time>2026-08-27T18:24:36Z</time>
  <course>11.56</course>
  <speed>0.022360679774997897</speed>
  <fix>3d</fix>
</trkpt>
<trkpt lat="40.072842" lon="-105.230575">
  <ele>1586.09</ele>
  <time>2026-08-27T18:24:36Z</time>
  <course>250.8</course>
  <speed>0.0</speed>
  <fix>3d</fix>
</trkpt>
<trkpt lat="40.0728419" lon="-105.2305749">
  <ele>1586.17</ele>
  <time>2026-08-27T18:24:36Z</time>
  <course>11.56</course>
  <speed>0.01414213562373095</speed>
  <fix>3d</fix>
</trkpt>
<trkpt lat="40.072842" lon="-105.230575">
  <ele>1586.09</ele>
  <time>2026-08-27T18:24:36Z</time>
  <course>250.8</course>
  <speed>0.0</speed>
  <fix>3d</fix>
</trkpt>
<trkpt lat="40.0728419" lon="-105.2305749">
  <ele>1586.17</ele>
  <time>2026-08-27T18:24:36Z</time>
  <course>11.56</course>
  <speed>0.01414213562373095</speed>
  <fix>3d</fix>
</trkpt>
<trkpt lat="40.072842" lon="-105.230575">
  <ele>1586.09</ele>
  <time>2026-08-27T18:24:36Z</time>
  <course>250.8</course>
  <speed>0.0</speed>
  <fix>3d</fix>
</trkpt>
<trkpt lat="40.0728419" lon="-105.2305749">
  <ele>1586.16</ele>
  <time>2026-08-27T18:24:36Z</time>
  <course>11.56</course>
  <speed>0.01414213562373095</speed>
  <fix>3d</fix>
</trkpt>
<trkpt lat="40.072842" lon="-105.230575">
  <ele>1586.09</ele>
  <time>2026-08-27T18:24:36Z</time>
  <course>250.8</course>
  <speed>0.0</speed>
  <fix>3d</fix>
</trkpt>
<trkpt lat="40.0728419" lon="-105.2305749">
  <ele>1586.16</ele>
  <time>2026-08-27T18:24:36Z</time>
  <course>11.56</course>
  <speed>0.022360679774997897</speed>
  <fix>3d</fix>
</trkpt>
<trkpt lat="40.072842" lon="-105.230575">
  <ele>1586.09</ele>
  <time>2026-08-27T18:24:36Z</time>
  <course>250.8</course>
  <speed>0.0</speed>
  <fix>3d</fix>
</trkpt>
<trkpt lat="40.0728419" lon="-105.2305749">
  <ele>1586.16</ele>
  <time>2026-08-27T18:24:36Z</time>
  <course>11.56</course>
  <speed>0.022360679774997897</speed>
  <fix>3d</fix>
</trkpt>
<trkpt lat="40.072842" lon="-105.230575">
  <ele>1586.09</ele>
  <time>2026-08-27T18:24:36Z</time>
  <course>250.8</course>
  <speed>0.0</speed>
  <fix>3d</fix>
</trkpt>
<trkpt lat="40.0728419" lon="-105.2305749">
  <ele>1586.15</ele>
  <time>2026-08-27T18:24:36Z</time>
  <course>11.56</course>
  <speed>0.022360679774997897</speed>
  <fix>3d</fix>
</trkpt>
<trkpt lat="40.072842" lon="-105.230575">
  <ele>1586.09</ele>
  <time>2026-08-27T18:24:36Z</time>
  <course>250.8</course>
  <speed>0.0</speed>
  <fix>3d</fix>
</trkpt>
<trkpt lat="40.0728419" lon="-105.2305749">
  <ele>1586.15</ele>
  <time>2026-08-27T18:24:36Z</time>
  <course>11.56</course>
  <speed>0.022360679774997897</speed>
  <fix>3d</fix>
</trkpt>
<trkpt lat="40.072842" lon="-105.230575">
  <ele>1586.09</ele>
  <time>2026-08-27T18:24:36Z</time>
  <course>250.8</course>
  <speed>0.0</speed>
  <fix>3d</fix>
</trkpt>
<trkpt lat="40.0728419" lon="-105.2305749">
  <ele>1586.14</ele>
  <time>2026-08-27T18:24:36Z</time>
  <course>11.56</course>
  <speed>0.022360679774997897</speed>
  <fix>3d</fix>
</trkpt>
<trkpt lat="40.072842" lon="-105.230575">
  <ele>1586.09</ele>
  <time>2026-08-27T18:24:36Z</time>
  <course>250.8</course>
  <speed>0.0</speed>
  <fix>3d</fix>
</trkpt>
<trkpt lat="40.0728419" lon="-105.2305749">
  <ele>1586.14</ele>
  <time>2026-08-27T18:24:36Z</time>
  <course>11.56</course>
  <speed>0.022360679774997897</speed>
  <fix>3d</fix>
</trkpt>
<trkpt lat="40.072842" lon="-105.230575">
  <ele>1586.09</ele>
  <time>2026-08-27T18:24:36Z</time>
  <course>250.8</course>
  <speed>0.0</speed>
  <fix>3d</fix>
</trkpt>
<trkpt lat="40.0728419" lon="-105.2305749">
  <ele>1586.14</ele>
  <time>2026-08-27T18:24:36Z</time>
  <course>11.56</course>
  <speed>0.022360679774997897</speed>
  <fix>3d</fix>
</trkpt>
<trkpt lat="40.072842" lon="-105.230575">
  <ele>1586.09</ele>
  <time>2026-08-27T18:24:36Z</time>
  <course>250.8</course>
  <speed>0.0</speed>
  <fix>3d</fix>
</trkpt>
<trkpt lat="40.0728419" lon="-105.2305749">
  <ele>1586.15</ele>
  <time>2026-08-27T18:24:36Z</time>
  <course>11.56</course>
  <speed>0.01414213562373095</speed>
  <fix>3d</fix>
</trkpt>
<trkpt lat="40.072842" lon="-105.230575">
  <ele>1586.09</ele>
  <time>2026-08-27T18:24:36Z</time>
  <course>250.8</course>
  <speed>0.0</speed>
  <fix>3d</fix>
</trkpt>
<trkpt lat="40.0728419" lon="-105.2305749">
  <ele>1586.15</ele>
  <time>2026-08-27T18:24:36Z</time>
  <course>11.56</course>
  <speed>0.01414213562373095</speed>
  <fix>3d</fix>
</trkpt>
<trkpt lat="40.072842" lon="-105.230575">
  <ele>1586.09</ele>
  <time>2026-08-27T18:24:36Z</time>
  <course>250.8</course>
  <speed>0.0</speed>
  <fix>3d</fix>
</trkpt>
<trkpt lat="40.0728419" lon="-105.2305749">
  <ele>1586.16</ele>
  <time>2026-08-27T18:24:36Z</time>
  <course>11.56</course>
  <speed>0.01414213562373095</speed>
  <fix>3d</fix>
</trkpt>
<trkpt lat="40.072842" lon="-105.230575">
  <ele>1586.09</ele>
  <time>2026-08-27T18:24:36Z</time>
  <course>250.8</course>
  <speed>0.0</speed>
  <fix>3d</fix>
</trkpt>
<trkpt lat="40.0728419" lon="-105.2305749">
  <ele>1586.16</ele>
  <time>2026-08-27T18:24:36Z</time>
  <course>11.56</course>
  <speed>0.022360679774997897</speed>
  <fix>3d</fix>
</trkpt>
<trkpt lat="40.072842" lon="-105.230575">
  <ele>1586.09</ele>
  <time>2026-08-27T18:24:36Z</time>
  <course>250.8</course>
  <speed>0.0</speed>
  <fix>3d</fix>
</trkpt>
<trkpt lat="40.0728419" lon="-105.2305749">
  <ele>1586.16</ele>
  <time>2026-08-27T18:24:36Z</time>
  <course>11.56</course>
  <speed>0.022360679774997897</speed>
  <fix>3d</fix>
</trkpt>
<trkpt lat="40.072842" lon="-105.230575">
  <ele>1586.09</ele>
  <time>2026-08-27T18:24:36Z</time>
  <course>250.8</course>
  <speed>0.0</speed>
  <fix>3d</fix>
</trkpt>
<trkpt lat="40.0728419" lon="-105.2305749">
  <ele>1586.16</ele>
  <time>2026-08-27T18:24:36Z</time>
  <course>11.56</course>
  <speed>0.022360679774997897</speed>
  <fix>3d</fix>
</trkpt>
<trkpt lat="40.072842" lon="-105.230575">
  <ele>1586.09</ele>
  <time>2026-08-27T18:24:36Z</time>
  <course>250.8</course>
  <speed>0.0</speed>
  <fix>3d</fix>
</trkpt>
<trkpt lat="40.0728419" lon="-105.2305749">
  <ele>1586.15</ele>
  <time>2026-08-27T18:24:36Z</time>
  <course>11.56</course>
  <speed>0.022360679774997897</speed>
  <fix>3d</fix>
</trkpt>
<trkpt lat="40.072842" lon="-105.230575">
  <ele>1586.09</ele>
  <time>2026-08-27T18:24:36Z</time>
  <course>250.8</course>
  <speed>0.0</speed>
  <fix>3d</fix>
</trkpt>
<trkpt lat="40.0728419" lon="-105.2305749">
  <ele>1586.15</ele>
  <time>2026-08-27T18:24:36Z</time>
  <course>11.56</course>
  <speed>0.022360679774997897</speed>
  <fix>3d</fix>
</trkpt>
<trkpt lat="40.072842" lon="-105.230575">
  <ele>1586.09</ele>
  <time>2026-08-27T18:24:36Z</time>
  <course>250.8</course>
  <speed>0.0</speed>
  <fix>3d</fix>
</trkpt>
<trkpt lat="40.0728419" lon="-105.2305749">
  <ele>1586.15</ele>
  <time>2026-08-27T18:24:36Z</time>
  <course>11.56</course>
  <speed>0.022360679774997897</speed>
  <fix>3d</fix>
</trkpt>
<trkpt lat="40.072842" lon="-105.230575">
  <ele>1586.09</ele>
  <time>2026-08-27T18:24:36Z</time>
  <course>250.8</course>
  <speed>0.0</speed>
  <fix>3d</fix>
</trkpt>
<trkpt lat="40.0728419" lon="-105.2305749">
  <ele>1586.15</ele>
  <time>2026-08-27T18:24:36Z</time>
  <course>11.56</course>
  <speed>0.022360679774997897</speed>
  <fix>3d</fix>
</trkpt>
<trkpt lat="40.072842" lon="-105.230575">
  <ele>1586.09</ele>
  <time>2026-08-27T18:24:36Z</time>
  <course>250.8</course>
  <speed>0.0</speed>
  <fix>3d</fix>
</trkpt>
<trkpt lat="40.0728419" lon="-105.2305749">
  <ele>1586.14</ele>
  <time>2026-08-27T18:24:36Z</time>
  <course>11.56</course>
  <speed>0.022360679774997897</speed>
  <fix>3d</fix>
</trkpt>
<trkpt lat="40.072842" lon="-105.230575">
  <ele>1586.09</ele>
  <time>2026-08-27T18:24:36Z</time>
  <course>250.8</course>
  <speed>0.0</speed>
  <fix>3d</fix>
</trkpt>
<trkpt lat="40.0728419" lon="-105.2305749">
  <ele>1586.14</ele>
  <time>2026-08-27T18:24:36Z</time>
  <course>11.55</course>
  <speed>0.022360679774997897</speed>
  <fix>3d</fix>
</trkpt>
<trkpt lat="40.072842" lon="-105.230575">
  <ele>1586.09</ele>
  <time>2026-08-27T18:24:36Z</time>
  <course>250.8</course>
  <speed>0.0</speed>
  <fix>3d</fix>
</trkpt>
<trkpt lat="40.0728419" lon="-105.2305749">
  <ele>1586.13</ele>
  <time>2026-08-27T18:24:36Z</time>
  <course>11.55</course>
  <speed>0.022360679774997897</speed>
  <fix>3d</fix>
</trkpt>
<trkpt lat="40.072842" lon="-105.230575">
  <ele>1586.09</ele>
  <time>2026-08-27T18:24:36Z</time>
  <course>250.8</course>
  <speed>0.0</speed>
  <fix>3d</fix>
</trkpt>
<trkpt lat="40.0728419" lon="-105.2305749">
  <ele>1586.13</ele>
  <time>2026-08-27T18:24:36Z</time>
  <course>11.55</course>
  <speed>0.022360679774997897</speed>
  <fix>3d</fix>
</trkpt>
<trkpt lat="40.072842" lon="-105.230575">
  <ele>1586.09</ele>
  <time>2026-08-27T18:24:36Z</time>
  <course>250.8</course>
  <speed>0.0</speed>
  <fix>3d</fix>
</trkpt>
<trkpt lat="40.0728419" lon="-105.2305749">
  <ele>1586.14</ele>
  <time>2026-08-27T18:24:36Z</time>
  <course>11.55</course>
  <speed>0.022360679774997897</speed>
  <fix>3d</fix>
</trkpt>
<trkpt lat="40.072842" lon="-105.230575">
  <ele>1586.09</ele>
  <time>2026-08-27T18:24:36Z</time>
  <course>250.8</course>
  <speed>0.0</speed>
  <fix>3d</fix>
</trkpt>
<trkpt lat="40.0728419" lon="-105.2305749">
  <ele>1586.14</ele>
  <time>2026-08-27T18:24:36Z</time>
  <course>11.55</course>
  <speed>0.022360679774997897</speed>
  <fix>3d</fix>
</trkpt>
<trkpt lat="40.072842" lon="-105.230575">
  <ele>1586.09</ele>
  <time>2026-08-27T18:24:36Z</time>
  <course>250.8</course>
  <speed>0.0</speed>
  <fix>3d</fix>
</trkpt>
<trkpt lat="40.0728419" lon="-105.2305749">
  <ele>1586.14</ele>
  <time>2026-08-27T18:24:36Z</time>
  <course>11.55</course>
  <speed>0.022360679774997897</speed>
  <fix>3d</fix>
</trkpt>
<trkpt lat="40.072842" lon="-105.230575">
  <ele>1586.09</ele>
  <time>2026-08-27T18:24:36Z</time>
  <course>250.8</course>
  <speed>0.0</speed>
  <fix>3d</fix>
</trkpt>
<trkpt lat="40.0728419" lon="-105.2305749">
  <ele>1586.15</ele>
  <time>2026-08-27T18:24:36Z</time>
  <course>11.55</course>
  <speed>0.022360679774997897</speed>
  <fix>3d</fix>
</trkpt>
<trkpt lat="40.072842" lon="-105.230575">
  <ele>1586.09</ele>
  <time>2026-08-27T18:24:36Z</time>
  <course>250.8</course>
  <speed>0.0</speed>
  <fix>3d</fix>
</trkpt>
<trkpt lat="40.0728419" lon="-105.2305749">
  <ele>1586.15</ele>
  <time>2026-08-27T18:24:36Z</time>
  <course>11.55</course>
  <speed>0.022360679774997897</speed>
  <fix>3d</fix>
</trkpt>
<trkpt lat="40.072842" lon="-105.230575">
  <ele>1586.09</ele>
  <time>2026-08-27T18:24:36Z</time>
  <course>250.8</course>
  <speed>0.0</speed>
  <fix>3d</fix>
</trkpt>
<trkpt lat="40.0728419" lon="-105.2305749">
  <ele>1586.16</ele>
  <time>2026-08-27T18:24:36Z</time>
  <course>11.55</course>
  <speed>0.022360679774997897</speed>
  <fix>3d</fix>
</trkpt>
<trkpt lat="40.072842" lon="-105.230575">
  <ele>1586.09</ele>
  <time>2026-08-27T18:24:36Z</time>
  <course>250.8</course>
  <speed>0.0</speed>
  <fix>3d</fix>
</trkpt>
<trkpt lat="40.0728419" lon="-105.2305749">
  <ele>1586.16</ele>
  <time>2026-08-27T18:24:36Z</time>
  <course>11.55</course>
  <speed>0.022360679774997897</speed>
  <fix>3d</fix>
</trkpt>
<trkpt lat="40.072842" lon="-105.230575">
  <ele>1586.09</ele>
  <time>2026-08-27T18:24:36Z</time>
  <course>250.8</course>
  <speed>0.0</speed>
  <fix>3d</fix>
</trkpt>
<trkpt lat="40.0728419" lon="-105.2305749">
  <ele>1586.17</ele>
  <time>2026-08-27T18:24:36Z</time>
  <course>11.55</course>
  <speed>0.022360679774997897</speed>
  <fix>3d</fix>
</trkpt>
<trkpt lat="40.072842" lon="-105.230575">
  <ele>1586.09</ele>
  <time>2026-08-27T18:24:36Z</time>
  <course>250.8</course>
  <speed>0.0</speed>
  <fix>3d</fix>
</trkpt>
<trkpt lat="40.0728419" lon="-105.2305749">
  <ele>1586.18</ele>
  <time>2026-08-27T18:24:36Z</time>
  <course>11.55</course>
  <speed>0.022360679774997897</speed>
  <fix>3d</fix>
</trkpt>
<trkpt lat="40.072842" lon="-105.230575">
  <ele>1586.09</ele>
  <time>2026-08-27T18:24:36Z</time>
  <course>250.8</course>
  <speed>0.0</speed>
  <fix>3d</fix>
</trkpt>
<trkpt lat="40.0728419" lon="-105.2305749">
  <ele>1586.18</ele>
  <time>2026-08-27T18:24:36Z</time>
  <course>11.55</course>
  <speed>0.022360679774997897</speed>
  <fix>3d</fix>
</trkpt>
<trkpt lat="40.072842" lon="-105.230575">
  <ele>1586.09</ele>
  <time>2026-08-27T18:24:36Z</time>
  <course>250.8</course>
  <speed>0.0</speed>
  <fix>3d</fix>
</trkpt>
<trkpt lat="40.0728419" lon="-105.2305749">
  <ele>1586.18</ele>
  <time>2026-08-27T18:24:36Z</time>
  <course>11.55</course>
  <speed>0.022360679774997897</speed>
  <fix>3d</fix>
</trkpt>
<trkpt lat="40.072842" lon="-105.230575">
  <ele>1586.09</ele>
  <time>2026-08-27T18:24:36Z</time>
  <course>250.8</course>
  <speed>0.0</speed>
  <fix>3d</fix>
</trkpt>
<trkpt lat="40.0728419" lon="-105.2305749">
  <ele>1586.18</ele>
  <time>2026-08-27T18:24:36Z</time>
  <course>11.55</course>
  <speed>0.022360679774997897</speed>
  <fix>3d</fix>
</trkpt>
<trkpt lat="40.072842" lon="-105.230575">
  <ele>1586.09</ele>
  <time>2026-08-27T18:24:36Z</time>
  <course>250.8</course>
  <speed>0.0</speed>
  <fix>3d</fix>
</trkpt>
<trkpt lat="40.0728419" lon="-105.2305749">
  <ele>1586.17</ele>
  <time>2026-08-27T18:24:36Z</time>
  <course>11.55</course>
  <speed>0.01414213562373095</speed>
  <fix>3d</fix>
</trkpt>
<trkpt lat="40.072842" lon="-105.230575">
  <ele>1586.09</ele>
  <time>2026-08-27T18:24:36Z</time>
  <course>250.8</course>
  <speed>0.0</speed>
  <fix>3d</fix>
</trkpt>
<trkpt lat="40.0728419" lon="-105.2305749">
  <ele>1586.17</ele>
  <time>2026-08-27T18:24:36Z</time>
  <course>11.55</course>
  <speed>0.01414213562373095</speed>
  <fix>3d</fix>
</trkpt>
<trkpt lat="40.072842" lon="-105.230575">
  <ele>1586.09</ele>
  <time>2026-08-27T18:24:36Z</time>
  <course>250.8</course>
  <speed>0.0</speed>
  <fix>3d</fix>
</trkpt>
<trkpt lat="40.0728419" lon="-105.2305749">
  <ele>1586.16</ele>
  <time>2026-08-27T18:24:36Z</time>
  <course>11.55</course>
  <speed>0.01414213562373095</speed>
  <fix>3d</fix>
</trkpt>
<trkpt lat="40.072842" lon="-105.230575">
  <ele>1586.09</ele>
  <time>2026-08-27T18:24:36Z</time>
  <course>250.8</course>
  <speed>0.0</speed>
  <fix>3d</fix>
</trkpt>
<trkpt lat="40.0728419" lon="-105.2305749">
  <ele>1586.16</ele>
  <time>2026-08-27T18:24:36Z</time>
  <course>11.55</course>
  <speed>0.01414213562373095</speed>
  <fix>3d</fix>
</trkpt>
<trkpt lat="40.072842" lon="-105.230575">
  <ele>1586.09</ele>
  <time>2026-08-27T18:24:36Z</time>
  <course>250.8</course>
  <speed>0.0</speed>
  <fix>3d</fix>
</trkpt>
<trkpt lat="40.0728419" lon="-105.2305749">
  <ele>1586.17</ele>
  <time>2026-08-27T18:24:36Z</time>
  <course>11.55</course>
  <speed>0.01414213562373095</speed>
  <fix>3d</fix>
</trkpt>
<trkpt lat="40.072842" lon="-105.230575">
  <ele>1586.09</ele>
  <time>2026-08-27T18:24:36Z</time>
  <course>250.8</course>
  <speed>0.0</speed>
  <fix>3d</fix>
</trkpt>
<trkpt lat="40.0728419" lon="-105.2305749">
  <ele>1586.18</ele>
  <time>2026-08-27T18:24:36Z</time>
  <course>11.55</course>
  <speed>0.01414213562373095</speed>
  <fix>3d</fix>
</trkpt>
<trkpt lat="40.072842" lon="-105.230575">
  <ele>1586.09</ele>
  <time>2026-08-27T18:24:36Z</time>
  <course>250.8</course>
  <speed>0.0</speed>
  <fix>3d</fix>
</trkpt>
<trkpt lat="40.0728419" lon="-105.2305749">
  <ele>1586.17</ele>
  <time>2026-08-27T18:24:36Z</time>
  <course>11.55</course>
  <speed>0.01414213562373095</speed>
  <fix>3d</fix>
</trkpt>
<trkpt lat="40.072842" lon="-105.230575">
  <ele>1586.09</ele>
  <time>2026-08-27T18:24:36Z</time>
  <course>250.8</course>
  <speed>0.0</speed>
  <fix>3d</fix>
</trkpt>
<trkpt lat="40.0728419" lon="-105.2305749">
  <ele>1586.17</ele>
  <time>2026-08-27T18:24:36Z</time>
  <course>11.55</course>
  <speed>0.01414213562373095</speed>
  <fix>3d</fix>
</trkpt>
<trkpt lat="40.072842" lon="-105.230575">
  <ele>1586.09</ele>
  <time>2026-08-27T18:24:36Z</time>
  <course>250.8</course>
  <speed>0.0</speed>
  <fix>3d</fix>
</trkpt>
<trkpt lat="40.0728419" lon="-105.2305749">
  <ele>1586.17</ele>
  <time>2026-08-27T18:24:36Z</time>
  <course>11.55</course>
  <speed>0.01414213562373095</speed>
  <fix>3d</fix>
</trkpt>
<trkpt lat="40.072842" lon="-105.230575">
  <ele>1586.09</ele>
  <time>2026-08-27T18:24:36Z</time>
  <course>250.8</course>
  <speed>0.0</speed>
  <fix>3d</fix>
</trkpt>
<trkpt lat="40.0728419" lon="-105.2305749">
  <ele>1586.18</ele>
  <time>2026-08-27T18:24:36Z</time>
  <course>11.55</course>
  <speed>0.01414213562373095</speed>
  <fix>3d</fix>
</trkpt>
<trkpt lat="40.072842" lon="-105.230575">
  <ele>1586.09</ele>
  <time>2026-08-27T18:24:36Z</time>
  <course>250.8</course>
  <speed>0.0</speed>
  <fix>3d</fix>
</trkpt>
<trkpt lat="40.0728419" lon="-105.2305749">
  <ele>1586.17</ele>
  <time>2026-08-27T18:24:36Z</time>
  <course>11.55</course>
  <speed>0.01414213562373095</speed>
  <fix>3d</fix>
</trkpt>
<trkpt lat="40.072842" lon="-105.230575">
  <ele>1586.09</ele>
  <time>2026-08-27T18:24:36Z</time>
  <course>250.8</course>
  <speed>0.0</speed>
  <fix>3d</fix>
</trkpt>
<trkpt lat="40.0728419" lon="-105.2305749">
  <ele>1586.17</ele>
  <time>2026-08-27T18:24:36Z</time>
  <course>11.55</course>
  <speed>0.01414213562373095</speed>
  <fix>3d</fix>
</trkpt>
<trkpt lat="40.072842" lon="-105.230575">
  <ele>1586.09</ele>
  <time>2026-08-27T18:24:36Z</time>
  <course>250.8</course>
  <speed>0.0</speed>
  <fix>3d</fix>
</trkpt>
<trkpt lat="40.0728419" lon="-105.2305749">
  <ele>1586.17</ele>
  <time>2026-08-27T18:24:36Z</time>
  <course>11.55</course>
  <speed>0.01414213562373095</speed>
  <fix>3d</fix>
</trkpt>
<trkpt lat="40.072842" lon="-105.230575">
  <ele>1586.09</ele>
  <time>2026-08-27T18:24:36Z</time>
  <course>250.8</course>
  <speed>0.0</speed>
  <fix>3d</fix>
</trkpt>
<trkpt lat="40.0728419" lon="-105.2305749">
  <ele>1586.17</ele>
  <time>2026-08-27T18:24:36Z</time>
  <course>11.55</course>
  <speed>0.01414213562373095</speed>
  <fix>3d</fix>
</trkpt>
<trkpt lat="40.072842" lon="-105.230575">
  <ele>1586.09</ele>
  <time>2026-08-27T18:24:36Z</time>
  <course>250.8</course>
  <speed>0.0</speed>
  <fix>3d</fix>
</trkpt>
<trkpt lat="40.0728419" lon="-105.2305749">
  <ele>1586.18</ele>
  <time>2026-08-27T18:24:36Z</time>
  <course>11.55</course>
  <speed>0.01414213562373095</speed>
  <fix>3d</fix>
</trkpt>
<trkpt lat="40.072842" lon="-105.230575">
  <ele>1586.09</ele>
  <time>2026-08-27T18:24:36Z</time>
  <course>250.8</course>
  <speed>0.0</speed>
  <fix>3d</fix>
</trkpt>
<trkpt lat="40.0728419" lon="-105.2305749">
  <ele>1586.18</ele>
  <time>2026-08-27T18:24:36Z</time>
  <course>11.55</course>
  <speed>0.01414213562373095</speed>
  <fix>3d</fix>
</trkpt>
<trkpt lat="40.072842" lon="-105.230575">
  <ele>1586.09</ele>
  <time>2026-08-27T18:24:36Z</time>
  <course>250.8</course>
  <speed>0.0</speed>
  <fix>3d</fix>
</trkpt>
<trkpt lat="40.0728419" lon="-105.2305749">
  <ele>1586.19</ele>
  <time>2026-08-27T18:24:36Z</time>
  <course>11.55</course>
  <speed>0.01414213562373095</speed>
  <fix>3d</fix>
</trkpt>
<trkpt lat="40.072842" lon="-105.230575">
  <ele>1586.09</ele>
  <time>2026-08-27T18:24:36Z</time>
  <course>250.8</course>
  <speed>0.0</speed>
  <fix>3d</fix>
</trkpt>
<trkpt lat="40.0728419" lon="-105.2305749">
  <ele>1586.18</ele>
  <time>2026-08-27T18:24:36Z</time>
  <course>11.55</course>
  <speed>0.01414213562373095</speed>
  <fix>3d</fix>
</trkpt>
<trkpt lat="40.072842" lon="-105.230575">
  <ele>1586.09</ele>
  <time>2026-08-27T18:24:36Z</time>
  <course>250.8</course>
  <speed>0.0</speed>
  <fix>3d</fix>
</trkpt>
<trkpt lat="40.0728419" lon="-105.2305749">
  <ele>1586.18</ele>
  <time>2026-08-27T18:24:36Z</time>
  <course>11.55</course>
  <speed>0.01414213562373095</speed>
  <fix>3d</fix>
</trkpt>
<trkpt lat="40.072842" lon="-105.230575">
  <ele>1586.09</ele>
  <time>2026-08-27T18:24:36Z</time>
  <course>250.8</course>
  <speed>0.0</speed>
  <fix>3d</fix>
</trkpt>
<trkpt lat="40.0728419" lon="-105.2305749">
  <ele>1586.18</ele>
  <time>2026-08-27T18:24:36Z</time>
  <course>11.55</course>
  <speed>0.01414213562373095</speed>
  <fix>3d</fix>
</trkpt>
<trkpt lat="40.072842" lon="-105.230575">
  <ele>1586.09</ele>
  <time>2026-08-27T18:24:36Z</time>
  <course>250.8</course>
  <speed>0.0</speed>
  <fix>3d</fix>
</trkpt>
<trkpt lat="40.0728419" lon="-105.2305749">
  <ele>1586.18</ele>
  <time>2026-08-27T18:24:36Z</time>
  <course>11.55</course>
  <speed>0.01414213562373095</speed>
  <fix>3d</fix>
</trkpt>
<trkpt lat="40.072842" lon="-105.230575">
  <ele>1586.09</ele>
  <time>2026-08-27T18:24:36Z</time>
  <course>250.8</course>
  <speed>0.0</speed>
  <fix>3d</fix>
</trkpt>
<trkpt lat="40.0728419" lon="-105.2305749">
  <ele>1586.18</ele>
  <time>2026-08-27T18:24:36Z</time>
  <course>11.55</course>
  <speed>0.01414213562373095</speed>
  <fix>3d</fix>
</trkpt>
<trkpt lat="40.072842" lon="-105.230575">
  <ele>1586.09</ele>
  <time>2026-08-27T18:24:36Z</time>
  <course>250.8</course>
  <speed>0.0</speed>
  <fix>3d</fix>
</trkpt>
<trkpt lat="40.0728419" lon="-105.2305749">
  <ele>1586.18</ele>
  <time>2026-08-27T18:24:36Z</time>
  <course>11.55</course>
  <speed>0.01414213562373095</speed>
  <fix>3d</fix>
</trkpt>
<trkpt lat="40.072842" lon="-105.230575">
  <ele>1586.09</ele>
  <time>2026-08-27T18:24:36Z</time>
  <course>250.8</course>
  <speed>0.0</speed>
  <fix>3d</fix>
</trkpt>
<trkpt lat="40.0728419" lon="-105.2305749">
  <ele>1586.18</ele>
  <time>2026-08-27T18:24:36Z</time>
  <course>11.55</course>
  <speed>0.01414213562373095</speed>
  <fix>3d</fix>
</trkpt>
<trkpt lat="40.072842" lon="-105.230575">
  <ele>1586.09</ele>
  <time>2026-08-27T18:24:36Z</time>
  <course>250.8</course>
  <speed>0.0</speed>
  <fix>3d</fix>
</trkpt>
<trkpt lat="40.0728419" lon="-105.2305749">
  <ele>1586.18</ele>
  <time>2026-08-27T18:24:36Z</time>
  <course>11.55</course>
  <speed>0.01414213562373095</speed>
  <fix>3d</fix>
</trkpt>
<trkpt lat="40.072842" lon="-105.230575">
  <ele>1586.09</ele>
  <time>2026-08-27T18:24:36Z</time>
  <course>250.8</course>
  <speed>0.0</speed>
  <fix>3d</fix>
</trkpt>
<trkpt lat="40.0728419" lon="-105.2305749">
  <ele>1586.17</ele>
  <time>2026-08-27T18:24:36Z</time>
  <course>11.55</course>
  <speed>0.01414213562373095</speed>
  <fix>3d</fix>
</trkpt>
<trkpt lat="40.072842" lon="-105.230575">
  <ele>1586.09</ele>
  <time>2026-08-27T18:24:36Z</time>
  <course>250.8</course>
  <speed>0.0</speed>
  <fix>3d</fix>
</trkpt>
<trkpt lat="40.0728419" lon="-105.2305749">
  <ele>1586.17</ele>
  <time>2026-08-27T18:24:36Z</time>
  <course>11.55</course>
  <speed>0.01414213562373095</speed>
  <fix>3d</fix>
</trkpt>
<trkpt lat="40.072842" lon="-105.230575">
  <ele>1586.09</ele>
  <time>2026-08-27T18:24:36Z</time>
  <course>250.8</course>
  <speed>0.0</speed>
  <fix>3d</fix>
</trkpt>
<trkpt lat="40.0728419" lon="-105.2305749">
  <ele>1586.17</ele>
  <time>2026-08-27T18:24:36Z</time>
  <course>11.55</course>
  <speed>0.01414213562373095</speed>
  <fix>3d</fix>
</trkpt>
<trkpt lat="40.072842" lon="-105.230575">
  <ele>1586.09</ele>
  <time>2026-08-27T18:24:36Z</time>
  <course>250.8</course>
  <speed>0.0</speed>
  <fix>3d</fix>
</trkpt>
<trkpt lat="40.0728419" lon="-105.2305749">
  <ele>1586.16</ele>
  <time>2026-08-27T18:24:36Z</time>
  <course>11.55</course>
  <speed>0.01414213562373095</speed>
  <fix>3d</fix>
</trkpt>
<trkpt lat="40.072842" lon="-105.230575">
  <ele>1586.09</ele>
  <time>2026-08-27T18:24:36Z</time>
  <course>250.8</course>
  <speed>0.0</speed>
  <fix>3d</fix>
</trkpt>
<trkpt lat="40.0728419" lon="-105.2305749">
  <ele>1586.16</ele>
  <time>2026-08-27T18:24:36Z</time>
  <course>11.55</course>
  <speed>0.01414213562373095</speed>
  <fix>3d</fix>
</trkpt>
<trkpt lat="40.072842" lon="-105.230575">
  <ele>1586.09</ele>
  <time>2026-08-27T18:24:36Z</time>
  <course>250.8</course>
  <speed>0.0</speed>
  <fix>3d</fix>
</trkpt>
<trkpt lat="40.0728419" lon="-105.2305749">
  <ele>1586.16</ele>
  <time>2026-08-27T18:24:36Z</time>
  <course>11.55</course>
  <speed>0.01414213562373095</speed>
  <fix>3d</fix>
</trkpt>
<trkpt lat="40.072842" lon="-105.230575">
  <ele>1586.09</ele>
  <time>2026-08-27T18:24:36Z</time>
  <course>250.8</course>
  <speed>0.0</speed>
  <fix>3d</fix>
</trkpt>
<trkpt lat="40.0728419" lon="-105.2305749">
  <ele>1586.16</ele>
  <time>2026-08-27T18:24:36Z</time>
  <course>11.55</course>
  <speed>0.01414213562373095</speed>
  <fix>3d</fix>
</trkpt>
<trkpt lat="40.072842" lon="-105.230575">
  <ele>1586.09</ele>
  <time>2026-08-27T18:24:36Z</time>
  <course>250.8</course>
  <speed>0.0</speed>
  <fix>3d</fix>
</trkpt>
<trkpt lat="40.0728419" lon="-105.2305749">
  <ele>1586.17</ele>
  <time>2026-08-27T18:24:36Z</time>
  <course>11.55</course>
  <speed>0.01414213562373095</speed>
  <fix>3d</fix>
</trkpt>
<trkpt lat="40.072842" lon="-105.230575">
  <ele>1586.09</ele>
  <time>2026-08-27T18:24:36Z</time>
  <course>250.8</course>
  <speed>0.0</speed>
  <fix>3d</fix>
</trkpt>
<trkpt lat="40.0728419" lon="-105.2305749">
  <ele>1586.17</ele>
  <time>2026-08-27T18:24:36Z</time>
  <course>11.55</course>
  <speed>0.01414213562373095</speed>
  <fix>3d</fix>
</trkpt>
<trkpt lat="40.072842" lon="-105.230575">
  <ele>1586.09</ele>
  <time>2026-08-27T18:24:36Z</time>
  <course>250.8</course>
  <speed>0.0</speed>
  <fix>3d</fix>
</trkpt>
<trkpt lat="40.0728419" lon="-105.2305749">
  <ele>1586.17</ele>
  <time>2026-08-27T18:24:36Z</time>
  <course>11.55</course>
  <speed>0.01414213562373095</speed>
  <fix>3d</fix>
</trkpt>
<trkpt lat="40.072842" lon="-105.230575">
  <ele>1586.09</ele>
  <time>2026-08-27T18:24:36Z</time>
  <course>250.8</course>
  <speed>0.0</speed>
  <fix>3d</fix>
</trkpt>
<trkpt lat="40.0728419" lon="-105.2305749">
  <ele>1586.17</ele>
  <time>2026-08-27T18:24:36Z</time>
  <course>11.55</course>
  <speed>0.01414213562373095</speed>
  <fix>3d</fix>
</trkpt>
<trkpt lat="40.072842" lon="-105.230575">
  <ele>1586.09</ele>
  <time>2026-08-27T18:24:36Z</time>
  <course>250.8</course>
  <speed>0.0</speed>
  <fix>3d</fix>
</trkpt>
<trkpt lat="40.0728419" lon="-105.2305749">
  <ele>1586.17</ele>
  <time>2026-08-27T18:24:36Z</time>
  <course>11.55</course>
  <speed>0.01414213562373095</speed>
  <fix>3d</fix>
</trkpt>
<trkpt lat="40.072842" lon="-105.230575">
  <ele>1586.09</ele>
  <time>2026-08-27T18:24:36Z</time>
  <course>250.8</course>
  <speed>0.0</speed>
  <fix>3d</fix>
</trkpt>
<trkpt lat="40.0728419" lon="-105.2305749">
  <ele>1586.17</ele>
  <time>2026-08-27T18:24:36Z</time>
  <course>11.54</course>
  <speed>0.01414213562373095</speed>
  <fix>3d</fix>
</trkpt>
<trkpt lat="40.072842" lon="-105.230575">
  <ele>1586.09</ele>
  <time>2026-08-27T18:24:36Z</time>
  <course>250.8</course>
  <speed>0.0</speed>
  <fix>3d</fix>
</trkpt>
<trkpt lat="40.0728419" lon="-105.2305749">
  <ele>1586.17</ele>
  <time>2026-08-27T18:24:36Z</time>
  <course>11.54</course>
  <speed>0.01414213562373095</speed>
  <fix>3d</fix>
</trkpt>
<trkpt lat="40.072842" lon="-105.230575">
  <ele>1586.09</ele>
  <time>2026-08-27T18:24:36Z</time>
  <course>250.8</course>
  <speed>0.0</speed>
  <fix>3d</fix>
</trkpt>
<trkpt lat="40.0728419" lon="-105.2305749">
  <ele>1586.17</ele>
  <time>2026-08-27T18:24:36Z</time>
  <course>11.54</course>
  <speed>0.01414213562373095</speed>
  <fix>3d</fix>
</trkpt>
<trkpt lat="40.072842" lon="-105.230575">
  <ele>1586.09</ele>
  <time>2026-08-27T18:24:36Z</time>
  <course>250.8</course>
  <speed>0.0</speed>
  <fix>3d</fix>
</trkpt>
<trkpt lat="40.0728419" lon="-105.2305749">
  <ele>1586.17</ele>
  <time>2026-08-27T18:24:36Z</time>
  <course>11.54</course>
  <speed>0.01414213562373095</speed>
  <fix>3d</fix>
</trkpt>
<trkpt lat="40.072842" lon="-105.230575">
  <ele>1586.09</ele>
  <time>2026-08-27T18:24:36Z</time>
  <course>250.8</course>
  <speed>0.0</speed>
  <fix>3d</fix>
</trkpt>
<trkpt lat="40.0728419" lon="-105.2305749">
  <ele>1586.18</ele>
  <time>2026-08-27T18:24:36Z</time>
  <course>11.54</course>
  <speed>0.01414213562373095</speed>
  <fix>3d</fix>
</trkpt>
<trkpt lat="40.072842" lon="-105.230575">
  <ele>1586.09</ele>
  <time>2026-08-27T18:24:36Z</time>
  <course>250.8</course>
  <speed>0.0</speed>
  <fix>3d</fix>
</trkpt>
<trkpt lat="40.0728419" lon="-105.2305749">
  <ele>1586.18</ele>
  <time>2026-08-27T18:24:36Z</time>
  <course>11.54</course>
  <speed>0.01414213562373095</speed>
  <fix>3d</fix>
</trkpt>
<trkpt lat="40.072842" lon="-105.230575">
  <ele>1586.09</ele>
  <time>2026-08-27T18:24:36Z</time>
  <course>250.8</course>
  <speed>0.0</speed>
  <fix>3d</fix>
</trkpt>
<trkpt lat="40.0728419" lon="-105.2305749">
  <ele>1586.18</ele>
  <time>2026-08-27T18:24:36Z</time>
  <course>11.54</course>
  <speed>0.01414213562373095</speed>
  <fix>3d</fix>
</trkpt>
<trkpt lat="40.072842" lon="-105.230575">
  <ele>1586.09</ele>
  <time>2026-08-27T18:24:36Z</time>
  <course>250.8</course>
  <speed>0.0</speed>
  <fix>3d</fix>
</trkpt>
<trkpt lat="40.0728419" lon="-105.2305749">
  <ele>1586.18</ele>
  <time>2026-08-27T18:24:36Z</time>
  <course>11.54</course>
  <speed>0.01414213562373095</speed>
  <fix>3d</fix>
</trkpt>
<trkpt lat="40.072842" lon="-105.230575">
  <ele>1586.09</ele>
  <time>2026-08-27T18:24:36Z</time>
  <course>250.8</course>
  <speed>0.0</speed>
  <fix>3d</fix>
</trkpt>
<trkpt lat="40.0728419" lon="-105.2305749">
  <ele>1586.18</ele>
  <time>2026-08-27T18:24:36Z</time>
  <course>11.54</course>
  <speed>0.01414213562373095</speed>
  <fix>3d</fix>
</trkpt>
<trkpt lat="40.072842" lon="-105.230575">
  <ele>1586.09</ele>
  <time>2026-08-27T18:24:36Z</time>
  <course>250.8</course>
  <speed>0.0</speed>
  <fix>3d</fix>
</trkpt>
<trkpt lat="40.0728419" lon="-105.2305749">
  <ele>1586.18</ele>
  <time>2026-08-27T18:24:36Z</time>
  <course>11.54</course>
  <speed>0.01414213562373095</speed>
  <fix>3d</fix>
</trkpt>
<trkpt lat="40.072842" lon="-105.230575">
  <ele>1586.09</ele>
  <time>2026-08-27T18:24:36Z</time>
  <course>250.8</course>
  <speed>0.0</speed>
  <fix>3d</fix>
</trkpt>
<trkpt lat="40.0728419" lon="-105.2305749">
  <ele>1586.18</ele>
  <time>2026-08-27T18:24:36Z</time>
  <course>11.54</course>
  <speed>0.01414213562373095</speed>
  <fix>3d</fix>
</trkpt>
<trkpt lat="40.072842" lon="-105.230575">
  <ele>1586.09</ele>
  <time>2026-08-27T18:24:36Z</time>
  <course>250.8</course>
  <speed>0.0</speed>
  <fix>3d</fix>
</trkpt>
<trkpt lat="40.0728419" lon="-105.2305749">
  <ele>1586.18</ele>
  <time>2026-08-27T18:24:36Z</time>
  <course>11.54</course>
  <speed>0.01414213562373095</speed>
  <fix>3d</fix>
</trkpt>
<trkpt lat="40.072842" lon="-105.230575">
  <ele>1586.09</ele>
  <time>2026-08-27T18:24:36Z</time>
  <course>299.43</course>
  <speed>0.0</speed>
  <fix>3d</fix>
</trkpt>
<trkpt lat="40.0728419" lon="-105.2305749">
  <ele>1586.18</ele>
  <time>2026-08-27T18:24:36Z</time>
  <course>11.54</course>
  <speed>0.01414213562373095</speed>
  <fix>3d</fix>
</trkpt>
<trkpt lat="40.072842" lon="-105.230575">
  <ele>1586.09</ele>
  <time>2026-08-27T18:24:36Z</time>
  <course>28.01</course>
  <speed>0.0</speed>
  <fix>3d</fix>
</trkpt>
<trkpt lat="40.0728419" lon="-105.2305749">
  <ele>1586.18</ele>
  <time>2026-08-27T18:24:36Z</time>
  <course>11.54</course>
  <speed>0.01414213562373095</speed>
  <fix>3d</fix>
</trkpt>
<trkpt lat="40.072842" lon="-105.230575">
  <ele>1586.09</ele>
  <time>2026-08-27T18:24:36Z</time>
  <course>18.64</course>
  <speed>0.0</speed>
  <fix>3d</fix>
</trkpt>
<trkpt lat="40.0728419" lon="-105.2305749">
  <ele>1586.18</ele>
  <time>2026-08-27T18:24:36Z</time>
  <course>11.54</course>
  <speed>0.01414213562373095</speed>
  <fix>3d</fix>
</trkpt>
<trkpt lat="40.072842" lon="-105.230575">
  <ele>1586.09</ele>
  <time>2026-08-27T18:24:36Z</time>
  <course>351.92</course>
  <speed>0.0</speed>
  <fix>3d</fix>
</trkpt>
<trkpt lat="40.0728419" lon="-105.2305749">
  <ele>1586.18</ele>
  <time>2026-08-27T18:24:36Z</time>
  <course>11.54</course>
  <speed>0.01414213562373095</speed>
  <fix>3d</fix>
</trkpt>
<trkpt lat="40.072842" lon="-105.230575">
  <ele>1586.09</ele>
  <time>2026-08-27T18:24:36Z</time>
  <course>226.08</course>
  <speed>0.0</speed>
  <fix>3d</fix>
</trkpt>
<trkpt lat="40.0728419" lon="-105.2305749">
  <ele>1586.18</ele>
  <time>2026-08-27T18:24:36Z</time>
  <course>11.54</course>
  <speed>0.01414213562373095</speed>
  <fix>3d</fix>
</trkpt>
<trkpt lat="40.072842" lon="-105.230575">
  <ele>1586.09</ele>
  <time>2026-08-27T18:24:36Z</time>
  <course>268.47</course>
  <speed>0.0</speed>
  <fix>3d</fix>
</trkpt>
<trkpt lat="40.0728419" lon="-105.2305749">
  <ele>1586.18</ele>
  <time>2026-08-27T18:24:36Z</time>
  <course>11.54</course>
  <speed>0.01414213562373095</speed>
  <fix>3d</fix>
</trkpt>
<trkpt lat="40.072842" lon="-105.230575">
  <ele>1586.09</ele>
  <time>2026-08-27T18:24:36Z</time>
  <course>331.73</course>
  <speed>0.0</speed>
  <fix>3d</fix>
</trkpt>
<trkpt lat="40.0728419" lon="-105.2305749">
  <ele>1586.18</ele>
  <time>2026-08-27T18:24:36Z</time>
  <course>11.54</course>
  <speed>0.01414213562373095</speed>
  <fix>3d</fix>
</trkpt>
<trkpt lat="40.072842" lon="-105.230575">
  <ele>1586.09</ele>
  <time>2026-08-27T18:24:36Z</time>
  <course>321.95</course>
  <speed>0.0</speed>
  <fix>3d</fix>
</trkpt>
<trkpt lat="40.0728419" lon="-105.2305749">
  <ele>1586.18</ele>
  <time>2026-08-27T18:24:36Z</time>
  <course>11.54</course>
  <speed>0.01414213562373095</speed>
  <fix>3d</fix>
</trkpt>
<trkpt lat="40.072842" lon="-105.230575">
  <ele>1586.09</ele>
  <time>2026-08-27T18:24:36Z</time>
  <course>262.6</course>
  <speed>0.0</speed>
  <fix>3d</fix>
</trkpt>
<trkpt lat="40.0728419" lon="-105.2305749">
  <ele>1586.18</ele>
  <time>2026-08-27T18:24:36Z</time>
  <course>11.54</course>
  <speed>0.01414213562373095</speed>
  <fix>3d</fix>
</trkpt>
<trkpt lat="40.072842" lon="-105.230575">
  <ele>1586.09</ele>
  <time>2026-08-27T18:24:36Z</time>
  <course>219.31</course>
  <speed>0.0</speed>
  <fix>3d</fix>
</trkpt>
<trkpt lat="40.0728419" lon="-105.2305749">
  <ele>1586.18</ele>
  <time>2026-08-27T18:24:36Z</time>
  <course>11.54</course>
  <speed>0.01414213562373095</speed>
  <fix>3d</fix>
</trkpt>
<trkpt lat="40.072842" lon="-105.230575">
  <ele>1586.09</ele>
  <time>2026-08-27T18:24:36Z</time>
  <course>301.09</course>
  <speed>0.0</speed>
  <fix>3d</fix>
</trkpt>
<trkpt lat="40.0728419" lon="-105.2305749">
  <ele>1586.18</ele>
  <time>2026-08-27T18:24:36Z</time>
  <course>11.54</course>
  <speed>0.01414213562373095</speed>
  <fix>3d</fix>
</trkpt>
<trkpt lat="40.072842" lon="-105.230575">
  <ele>1586.09</ele>
  <time>2026-08-27T18:24:36Z</time>
  <course>294.16</course>
  <speed>0.0</speed>
  <fix>3d</fix>
</trkpt>
<trkpt lat="40.0728419" lon="-105.2305749">
  <ele>1586.18</ele>
  <time>2026-08-27T18:24:36Z</time>
  <course>11.54</course>
  <speed>0.01414213562373095</speed>
  <fix>3d</fix>
</trkpt>
<trkpt lat="40.072842" lon="-105.230575">
  <ele>1586.09</ele>
  <time>2026-08-27T18:24:36Z</time>
  <course>290.97</course>
  <speed>0.0</speed>
  <fix>3d</fix>
</trkpt>
<trkpt lat="40.0728419" lon="-105.2305749">
  <ele>1586.19</ele>
  <time>2026-08-27T18:24:36Z</time>
  <course>11.54</course>
  <speed>0.01414213562373095</speed>
  <fix>3d</fix>
</trkpt>
<trkpt lat="40.072842" lon="-105.230575">
  <ele>1586.09</ele>
  <time>2026-08-27T18:24:36Z</time>
  <course>292.36</course>
  <speed>0.0</speed>
  <fix>3d</fix>
</trkpt>
<trkpt lat="40.0728419" lon="-105.2305749">
  <ele>1586.19</ele>
  <time>2026-08-27T18:24:36Z</time>
  <course>11.54</course>
  <speed>0.01</speed>
  <fix>3d</fix>
</trkpt>
<trkpt lat="40.072842" lon="-105.230575">
  <ele>1586.09</ele>
  <time>2026-08-27T18:24:36Z</time>
  <course>8.24</course>
  <speed>0.0</speed>
  <fix>3d</fix>
</trkpt>
<trkpt lat="40.0728419" lon="-105.2305749">
  <ele>1586.19</ele>
  <time>2026-08-27T18:24:36Z</time>
  <course>11.54</course>
  <speed>0.01</speed>
  <fix>3d</fix>
</trkpt>
<trkpt lat="40.072842" lon="-105.230575">
  <ele>1586.09</ele>
  <time>2026-08-27T18:24:36Z</time>
  <course>19.93</course>
  <speed>0.0</speed>
  <fix>3d</fix>
</trkpt>
<trkpt lat="40.0728419" lon="-105.2305749">
  <ele>1586.18</ele>
  <time>2026-08-27T18:24:36Z</time>
  <course>11.54</course>
  <speed>0.01</speed>
  <fix>3d</fix>
</trkpt>
<trkpt lat="40.072842" lon="-105.230575">
  <ele>1586.09</ele>
  <time>2026-08-27T18:24:36Z</time>
  <course>25.0</course>
  <speed>0.0</speed>
  <fix>3d</fix>
</trkpt>
<trkpt lat="40.0728419" lon="-105.2305749">
  <ele>1586.18</ele>
  <time>2026-08-27T18:24:36Z</time>
  <course>11.54</course>
  <speed>0.01</speed>
  <fix>3d</fix>
</trkpt>
<trkpt lat="40.072842" lon="-105.230575">
  <ele>1586.09</ele>
  <time>2026-08-27T18:24:36Z</time>
  <course>318.54</course>
  <speed>0.0</speed>
  <fix>3d</fix>
</trkpt>
<trkpt lat="40.0728419" lon="-105.2305749">
  <ele>1586.18</ele>
  <time>2026-08-27T18:24:36Z</time>
  <course>11.54</course>
  <speed>0.01</speed>
  <fix>3d</fix>
</trkpt>
<trkpt lat="40.072842" lon="-105.230575">
  <ele>1586.09</ele>
  <time>2026-08-27T18:24:36Z</time>
  <course>319.8</course>
  <speed>0.0</speed>
  <fix>3d</fix>
</trkpt>
<trkpt lat="40.0728419" lon="-105.2305749">
  <ele>1586.18</ele>
  <time>2026-08-27T18:24:36Z</time>
  <course>11.54</course>
  <speed>0.01</speed>
  <fix>3d</fix>
</trkpt>
<trkpt lat="40.072842" lon="-105.230575">
  <ele>1586.09</ele>
  <time>2026-08-27T18:24:36Z</time>
  <course>305.81</course>
  <speed>0.0</speed>
  <fix>3d</fix>
</trkpt>
<trkpt lat="40.0728419" lon="-105.2305749">
  <ele>1586.18</ele>
  <time>2026-08-27T18:24:36Z</time>
  <course>11.54</course>
  <speed>0.01</speed>
  <fix>3d</fix>
</trkpt>
<trkpt lat="40.072842" lon="-105.230575">
  <ele>1586.09</ele>
  <time>2026-08-27T18:24:36Z</time>
  <course>354.74</course>
  <speed>0.0</speed>
  <fix>3d</fix>
</trkpt>
<trkpt lat="40.0728419" lon="-105.2305749">
  <ele>1586.18</ele>
  <time>2026-08-27T18:24:36Z</time>
  <course>11.54</course>
  <speed>0.01</speed>
  <fix>3d</fix>
</trkpt>
<trkpt lat="40.072842" lon="-105.230575">
  <ele>1586.09</ele>
  <time>2026-08-27T18:24:36Z</time>
  <course>327.68</course>
  <speed>0.0</speed>
  <fix>3d</fix>
</trkpt>
<trkpt lat="40.0728419" lon="-105.2305749">
  <ele>1586.18</ele>
  <time>2026-08-27T18:24:36Z</time>
  <course>11.54</course>
  <speed>0.01</speed>
  <fix>3d</fix>
</trkpt>
<trkpt lat="40.072842" lon="-105.230575">
  <ele>1586.09</ele>
  <time>2026-08-27T18:24:36Z</time>
  <course>324.01</course>
  <speed>0.0</speed>
  <fix>3d</fix>
</trkpt>
<trkpt lat="40.0728419" lon="-105.2305749">
  <ele>1586.18</ele>
  <time>2026-08-27T18:24:36Z</time>
  <course>11.54</course>
  <speed>0.01</speed>
  <fix>3d</fix>
</trkpt>
<trkpt lat="40.072842" lon="-105.230575">
  <ele>1586.09</ele>
  <time>2026-08-27T18:24:36Z</time>
  <course>325.24</course>
  <speed>0.0</speed>
  <fix>3d</fix>
</trkpt>
<trkpt lat="40.0728419" lon="-105.2305749">
  <ele>1586.18</ele>
  <time>2026-08-27T18:24:36Z</time>
  <course>11.54</course>
  <speed>0.01</speed>
  <fix>3d</fix>
</trkpt>
<trkpt lat="40.072842" lon="-105.230575">
  <ele>1586.09</ele>
  <time>2026-08-27T18:24:36Z</time>
  <course>303.38</course>
  <speed>0.0</speed>
  <fix>3d</fix>
</trkpt>
<trkpt lat="40.0728419" lon="-105.2305749">
  <ele>1586.18</ele>
  <time>2026-08-27T18:24:36Z</time>
  <course>11.54</course>
  <speed>0.01</speed>
  <fix>3d</fix>
</trkpt>
<trkpt lat="40.072842" lon="-105.230575">
  <ele>1586.09</ele>
  <time>2026-08-27T18:24:36Z</time>
  <course>280.95</course>
  <speed>0.0</speed>
  <fix>3d</fix>
</trkpt>
<trkpt lat="40.0728419" lon="-105.2305749">
  <ele>1586.19</ele>
  <time>2026-08-27T18:24:36Z</time>
  <course>11.54</course>
  <speed>0.01</speed>
  <fix>3d</fix>
</trkpt>
<trkpt lat="40.072842" lon="-105.230575">
  <ele>1586.09</ele>
  <time>2026-08-27T18:24:36Z</time>
  <course>264.67</course>
  <speed>0.0</speed>
  <fix>3d</fix>
</trkpt>
<trkpt lat="40.0728419" lon="-105.2305749">
  <ele>1586.19</ele>
  <time>2026-08-27T18:24:36Z</time>
  <course>11.54</course>
  <speed>0.01</speed>
  <fix>3d</fix>
</trkpt>
<trkpt lat="40.072842" lon="-105.230575">
  <ele>1586.09</ele>
  <time>2026-08-27T18:24:36Z</time>
  <course>10.94</course>
  <speed>0.0</speed>
  <fix>3d</fix>
</trkpt>
<trkpt lat="40.0728419" lon="-105.2305749">
  <ele>1586.19</ele>
  <time>2026-08-27T18:24:36Z</time>
  <course>11.54</course>
  <speed>0.01</speed>
  <fix>3d</fix>
</trkpt>
<trkpt lat="40.072842" lon="-105.230575">
  <ele>1586.09</ele>
  <time>2026-08-27T18:24:36Z</time>
  <course>326.73</course>
  <speed>0.0</speed>
  <fix>3d</fix>
</trkpt>
<trkpt lat="40.0728419" lon="-105.2305749">
  <ele>1586.19</ele>
  <time>2026-08-27T18:24:36Z</time>
  <course>11.54</course>
  <speed>0.01</speed>
  <fix>3d</fix>
</trkpt>
<trkpt lat="40.072842" lon="-105.230575">
  <ele>1586.09</ele>
  <time>2026-08-27T18:24:36Z</time>
  <course>314.75</course>
  <speed>0.0</speed>
  <fix>3d</fix>
</trkpt>
<trkpt lat="40.0728419" lon="-105.2305749">
  <ele>1586.19</ele>
  <time>2026-08-27T18:24:36Z</time>
  <course>11.54</course>
  <speed>0.01</speed>
  <fix>3d</fix>
</trkpt>
<trkpt lat="40.072842" lon="-105.230575">
  <ele>1586.09</ele>
  <time>2026-08-27T18:24:36Z</time>
  <course>319.78</course>
  <speed>0.0</speed>
  <fix>3d</fix>
</trkpt>
<trkpt lat="40.0728419" lon="-105.2305749">
  <ele>1586.19</ele>
  <time>2026-08-27T18:24:37Z</time>
  <course>11.54</course>
  <speed>0.01</speed>
  <fix>3d</fix>
</trkpt>
<trkpt lat="40.072842" lon="-105.230575">
  <ele>1586.09</ele>
  <time>2026-08-27T18:24:37Z</time>
  <course>320.86</course>
  <speed>0.0</speed>
  <fix>3d</fix>
</trkpt>
<trkpt lat="40.0728419" lon="-105.2305749">
  <ele>1586.19</ele>
  <time>2026-08-27T18:24:37Z</time>
  <course>11.54</course>
  <speed>0.01</speed>
  <fix>3d</fix>
</trkpt>
<trkpt lat="40.072842" lon="-105.230575">
  <ele>1586.09</ele>
  <time>2026-08-27T18:24:37Z</time>
  <course>320.0</course>
  <speed>0.0</speed>
  <fix>3d</fix>
</trkpt>
<trkpt lat="40.0728419" lon="-105.2305749">
  <ele>1586.19</ele>
  <time>2026-08-27T18:24:37Z</time>
  <course>11.54</course>
  <speed>0.01414213562373095</speed>
  <fix>3d</fix>
</trkpt>
<trkpt lat="40.072842" lon="-105.230575">
  <ele>1586.09</ele>
  <time>2026-08-27T18:24:37Z</time>
  <course>319.96</course>
  <speed>0.0</speed>
  <fix>3d</fix>
</trkpt>
<trkpt lat="40.0728419" lon="-105.2305749">
  <ele>1586.19</ele>
  <time>2026-08-27T18:24:37Z</time>
  <course>11.54</course>
  <speed>0.01414213562373095</speed>
  <fix>3d</fix>
</trkpt>
<trkpt lat="40.072842" lon="-105.230575">
  <ele>1586.09</ele>
  <time>2026-08-27T18:24:37Z</time>
  <course>320.08</course>
  <speed>0.0</speed>
  <fix>3d</fix>
</trkpt>
<trkpt lat="40.0728419" lon="-105.2305749">
  <ele>1586.19</ele>
  <time>2026-08-27T18:24:37Z</time>
  <course>11.54</course>
  <speed>0.01414213562373095</speed>
  <fix>3d</fix>
</trkpt>
<trkpt lat="40.072842" lon="-105.230575">
  <ele>1586.09</ele>
  <time>2026-08-27T18:24:37Z</time>
  <course>320.07</course>
  <speed>0.0</speed>
  <fix>3d</fix>
</trkpt>
<trkpt lat="40.0728419" lon="-105.2305749">
  <ele>1586.19</ele>
  <time>2026-08-27T18:24:37Z</time>
  <course>11.54</course>
  <speed>0.01414213562373095</speed>
  <fix>3d</fix>
</trkpt>
<trkpt lat="40.072842" lon="-105.230575">
  <ele>1586.09</ele>
  <time>2026-08-27T18:24:37Z</time>
  <course>320.06</course>
  <speed>0.0</speed>
  <fix>3d</fix>
</trkpt>
<trkpt lat="40.0728419" lon="-105.2305749">
  <ele>1586.19</ele>
  <time>2026-08-27T18:24:37Z</time>
  <course>11.55</course>
  <speed>0.01414213562373095</speed>
  <fix>3d</fix>
</trkpt>
<trkpt lat="40.072842" lon="-105.230575">
  <ele>1586.09</ele>
  <time>2026-08-27T18:24:37Z</time>
  <course>320.06</course>
  <speed>0.0</speed>
  <fix>3d</fix>
</trkpt>
<trkpt lat="40.0728419" lon="-105.2305749">
  <ele>1586.19</ele>
  <time>2026-08-27T18:24:37Z</time>
  <course>11.55</course>
  <speed>0.01414213562373095</speed>
  <fix>3d</fix>
</trkpt>
<trkpt lat="40.072842" lon="-105.230575">
  <ele>1586.09</ele>
  <time>2026-08-27T18:24:37Z</time>
  <course>320.06</course>
  <speed>0.0</speed>
  <fix>3d</fix>
</trkpt>
<trkpt lat="40.0728419" lon="-105.2305749">
  <ele>1586.19</ele>
  <time>2026-08-27T18:24:37Z</time>
  <course>11.55</course>
  <speed>0.01414213562373095</speed>
  <fix>3d</fix>
</trkpt>
<trkpt lat="40.072842" lon="-105.230575">
  <ele>1586.09</ele>
  <time>2026-08-27T18:24:37Z</time>
  <course>320.06</course>
  <speed>0.0</speed>
  <fix>3d</fix>
</trkpt>
<trkpt lat="40.0728419" lon="-105.2305749">
  <ele>1586.19</ele>
  <time>2026-08-27T18:24:37Z</time>
  <course>11.55</course>
  <speed>0.01414213562373095</speed>
  <fix>3d</fix>
</trkpt>
<trkpt lat="40.072842" lon="-105.230575">
  <ele>1586.09</ele>
  <time>2026-08-27T18:24:37Z</time>
  <course>320.06</course>
  <speed>0.0</speed>
  <fix>3d</fix>
</trkpt>
<trkpt lat="40.0728419" lon="-105.2305749">
  <ele>1586.19</ele>
  <time>2026-08-27T18:24:37Z</time>
  <course>11.55</course>
  <speed>0.01414213562373095</speed>
  <fix>3d</fix>
</trkpt>
<trkpt lat="40.072842" lon="-105.230575">
  <ele>1586.09</ele>
  <time>2026-08-27T18:24:37Z</time>
  <course>320.06</course>
  <speed>0.0</speed>
  <fix>3d</fix>
</trkpt>
<trkpt lat="40.0728419" lon="-105.2305749">
  <ele>1586.19</ele>
  <time>2026-08-27T18:24:37Z</time>
  <course>11.55</course>
  <speed>0.022360679774997897</speed>
  <fix>3d</fix>
</trkpt>
<trkpt lat="40.072842" lon="-105.230575">
  <ele>1586.09</ele>
  <time>2026-08-27T18:24:37Z</time>
  <course>320.06</course>
  <speed>0.0</speed>
  <fix>3d</fix>
</trkpt>
<trkpt lat="40.0728419" lon="-105.2305749">
  <ele>1586.2</ele>
  <time>2026-08-27T18:24:37Z</time>
  <course>11.55</course>
  <speed>0.022360679774997897</speed>
  <fix>3d</fix>
</trkpt>
<trkpt lat="40.072842" lon="-105.230575">
  <ele>1586.09</ele>
  <time>2026-08-27T18:24:37Z</time>
  <course>320.06</course>
  <speed>0.0</speed>
  <fix>3d</fix>
</trkpt>
<trkpt lat="40.0728419" lon="-105.2305749">
  <ele>1586.2</ele>
  <time>2026-08-27T18:24:37Z</time>
  <course>11.55</course>
  <speed>0.022360679774997897</speed>
  <fix>3d</fix>
</trkpt>
<trkpt lat="40.072842" lon="-105.230575">
  <ele>1586.09</ele>
  <time>2026-08-27T18:24:37Z</time>
  <course>320.06</course>
  <speed>0.0</speed>
  <fix>3d</fix>
</trkpt>
<trkpt lat="40.0728419" lon="-105.2305749">
  <ele>1586.2</ele>
  <time>2026-08-27T18:24:37Z</time>
  <course>11.55</course>
  <speed>0.022360679774997897</speed>
  <fix>3d</fix>
</trkpt>
<trkpt lat="40.072842" lon="-105.230575">
  <ele>1586.09</ele>
  <time>2026-08-27T18:24:37Z</time>
  <course>320.06</course>
  <speed>0.0</speed>
  <fix>3d</fix>
</trkpt>
<trkpt lat="40.0728419" lon="-105.2305749">
  <ele>1586.2</ele>
  <time>2026-08-27T18:24:37Z</time>
  <course>11.55</course>
  <speed>0.022360679774997897</speed>
  <fix>3d</fix>
</trkpt>
<trkpt lat="40.072842" lon="-105.230575">
  <ele>1586.09</ele>
  <time>2026-08-27T18:24:37Z</time>
  <course>320.06</course>
  <speed>0.0</speed>
  <fix>3d</fix>
</trkpt>
<trkpt lat="40.0728419" lon="-105.2305749">
  <ele>1586.2</ele>
  <time>2026-08-27T18:24:37Z</time>
  <course>11.55</course>
  <speed>0.022360679774997897</speed>
  <fix>3d</fix>
</trkpt>
<trkpt lat="40.072842" lon="-105.230575">
  <ele>1586.09</ele>
  <time>2026-08-27T18:24:37Z</time>
  <course>320.06</course>
  <speed>0.0</speed>
  <fix>3d</fix>
</trkpt>
<trkpt lat="40.0728419" lon="-105.2305749">
  <ele>1586.2</ele>
  <time>2026-08-27T18:24:37Z</time>
  <course>11.55</course>
  <speed>0.022360679774997897</speed>
  <fix>3d</fix>
</trkpt>
<trkpt lat="40.072842" lon="-105.230575">
  <ele>1586.09</ele>
  <time>2026-08-27T18:24:37Z</time>
  <course>320.06</course>
  <speed>0.0</speed>
  <fix>3d</fix>
</trkpt>
<trkpt lat="40.0728419" lon="-105.2305749">
  <ele>1586.19</ele>
  <time>2026-08-27T18:24:37Z</time>
  <course>11.55</course>
  <speed>0.022360679774997897</speed>
  <fix>3d</fix>
</trkpt>
<trkpt lat="40.072842" lon="-105.230575">
  <ele>1586.09</ele>
  <time>2026-08-27T18:24:37Z</time>
  <course>320.06</course>
  <speed>0.0</speed>
  <fix>3d</fix>
</trkpt>
<trkpt lat="40.0728419" lon="-105.2305749">
  <ele>1586.19</ele>
  <time>2026-08-27T18:24:37Z</time>
  <course>11.55</course>
  <speed>0.022360679774997897</speed>
  <fix>3d</fix>
</trkpt>
<trkpt lat="40.072842" lon="-105.230575">
  <ele>1586.09</ele>
  <time>2026-08-27T18:24:37Z</time>
  <course>320.06</course>
  <speed>0.0</speed>
  <fix>3d</fix>
</trkpt>
<trkpt lat="40.0728419" lon="-105.2305749">
  <ele>1586.19</ele>
  <time>2026-08-27T18:24:37Z</time>
  <course>11.55</course>
  <speed>0.022360679774997897</speed>
  <fix>3d</fix>
</trkpt>
<trkpt lat="40.072842" lon="-105.230575">
  <ele>1586.09</ele>
  <time>2026-08-27T18:24:37Z</time>
  <course>320.06</course>
  <speed>0.0</speed>
  <fix>3d</fix>
</trkpt>
<trkpt lat="40.0728419" lon="-105.2305749">
  <ele>1586.19</ele>
  <time>2026-08-27T18:24:37Z</time>
  <course>11.55</course>
  <speed>0.022360679774997897</speed>
  <fix>3d</fix>
</trkpt>
<trkpt lat="40.072842" lon="-105.230575">
  <ele>1586.09</ele>
  <time>2026-08-27T18:24:37Z</time>
  <course>320.06</course>
  <speed>0.0</speed>
  <fix>3d</fix>
</trkpt>
<trkpt lat="40.0728419" lon="-105.2305749">
  <ele>1586.19</ele>
  <time>2026-08-27T18:24:37Z</time>
  <course>11.56</course>
  <speed>0.022360679774997897</speed>
  <fix>3d</fix>
</trkpt>
<trkpt lat="40.072842" lon="-105.230575">
  <ele>1586.09</ele>
  <time>2026-08-27T18:24:37Z</time>
  <course>320.06</course>
  <speed>0.0</speed>
  <fix>3d</fix>
</trkpt>
<trkpt lat="40.0728419" lon="-105.2305749">
  <ele>1586.19</ele>
  <time>2026-08-27T18:24:37Z</time>
  <course>11.56</course>
  <speed>0.022360679774997897</speed>
  <fix>3d</fix>
</trkpt>
<trkpt lat="40.072842" lon="-105.230575">
  <ele>1586.09</ele>
  <time>2026-08-27T18:24:37Z</time>
  <course>320.06</course>
  <speed>0.0</speed>
  <fix>3d</fix>
</trkpt>
<trkpt lat="40.0728419" lon="-105.2305749">
  <ele>1586.18</ele>
  <time>2026-08-27T18:24:37Z</time>
  <course>11.56</course>
  <speed>0.022360679774997897</speed>
  <fix>3d</fix>
</trkpt>
<trkpt lat="40.072842" lon="-105.230575">
  <ele>1586.09</ele>
  <time>2026-08-27T18:24:37Z</time>
  <course>320.06</course>
  <speed>0.0</speed>
  <fix>3d</fix>
</trkpt>
<trkpt lat="40.0728419" lon="-105.2305749">
  <ele>1586.18</ele>
  <time>2026-08-27T18:24:37Z</time>
  <course>11.56</course>
  <speed>0.022360679774997897</speed>
  <fix>3d</fix>
</trkpt>
<trkpt lat="40.072842" lon="-105.230575">
  <ele>1586.09</ele>
  <time>2026-08-27T18:24:37Z</time>
  <course>320.06</course>
  <speed>0.0</speed>
  <fix>3d</fix>
</trkpt>
<trkpt lat="40.0728419" lon="-105.2305749">
  <ele>1586.18</ele>
  <time>2026-08-27T18:24:37Z</time>
  <course>11.56</course>
  <speed>0.022360679774997897</speed>
  <fix>3d</fix>
</trkpt>
<trkpt lat="40.072842" lon="-105.230575">
  <ele>1586.09</ele>
  <time>2026-08-27T18:24:37Z</time>
  <course>320.06</course>
  <speed>0.0</speed>
  <fix>3d</fix>
</trkpt>
<trkpt lat="40.0728419" lon="-105.2305749">
  <ele>1586.18</ele>
  <time>2026-08-27T18:24:37Z</time>
  <course>11.56</course>
  <speed>0.022360679774997897</speed>
  <fix>3d</fix>
</trkpt>
<trkpt lat="40.072842" lon="-105.230575">
  <ele>1586.09</ele>
  <time>2026-08-27T18:24:37Z</time>
  <course>320.06</course>
  <speed>0.0</speed>
  <fix>3d</fix>
</trkpt>
<trkpt lat="40.0728419" lon="-105.2305749">
  <ele>1586.18</ele>
  <time>2026-08-27T18:24:37Z</time>
  <course>11.56</course>
  <speed>0.022360679774997897</speed>
  <fix>3d</fix>
</trkpt>
<trkpt lat="40.072842" lon="-105.230575">
  <ele>1586.09</ele>
  <time>2026-08-27T18:24:37Z</time>
  <course>320.06</course>
  <speed>0.0</speed>
  <fix>3d</fix>
</trkpt>
<trkpt lat="40.0728419" lon="-105.2305749">
  <ele>1586.18</ele>
  <time>2026-08-27T18:24:37Z</time>
  <course>11.56</course>
  <speed>0.022360679774997897</speed>
  <fix>3d</fix>
</trkpt>
<trkpt lat="40.072842" lon="-105.230575">
  <ele>1586.09</ele>
  <time>2026-08-27T18:24:37Z</time>
  <course>320.06</course>
  <speed>0.0</speed>
  <fix>3d</fix>
</trkpt>
<trkpt lat="40.0728419" lon="-105.2305749">
  <ele>1586.18</ele>
  <time>2026-08-27T18:24:37Z</time>
  <course>11.56</course>
  <speed>0.022360679774997897</speed>
  <fix>3d</fix>
</trkpt>
<trkpt lat="40.072842" lon="-105.230575">
  <ele>1586.09</ele>
  <time>2026-08-27T18:24:37Z</time>
  <course>320.06</course>
  <speed>0.0</speed>
  <fix>3d</fix>
</trkpt>
<trkpt lat="40.0728419" lon="-105.2305749">
  <ele>1586.18</ele>
  <time>2026-08-27T18:24:37Z</time>
  <course>11.56</course>
  <speed>0.022360679774997897</speed>
  <fix>3d</fix>
</trkpt>
<trkpt lat="40.072842" lon="-105.230575">
  <ele>1586.09</ele>
  <time>2026-08-27T18:24:37Z</time>
  <course>320.06</course>
  <speed>0.0</speed>
  <fix>3d</fix>
</trkpt>
<trkpt lat="40.0728419" lon="-105.2305749">
  <ele>1586.18</ele>
  <time>2026-08-27T18:24:37Z</time>
  <course>11.56</course>
  <speed>0.022360679774997897</speed>
  <fix>3d</fix>
</trkpt>
<trkpt lat="40.072842" lon="-105.230575">
  <ele>1586.09</ele>
  <time>2026-08-27T18:24:37Z</time>
  <course>320.06</course>
  <speed>0.0</speed>
  <fix>3d</fix>
</trkpt>
<trkpt lat="40.0728419" lon="-105.2305749">
  <ele>1586.18</ele>
  <time>2026-08-27T18:24:37Z</time>
  <course>11.56</course>
  <speed>0.022360679774997897</speed>
  <fix>3d</fix>
</trkpt>
<trkpt lat="40.072842" lon="-105.230575">
  <ele>1586.09</ele>
  <time>2026-08-27T18:24:37Z</time>
  <course>320.06</course>
  <speed>0.0</speed>
  <fix>3d</fix>
</trkpt>
<trkpt lat="40.0728419" lon="-105.2305749">
  <ele>1586.18</ele>
  <time>2026-08-27T18:24:37Z</time>
  <course>11.56</course>
  <speed>0.022360679774997897</speed>
  <fix>3d</fix>
</trkpt>
<trkpt lat="40.072842" lon="-105.230575">
  <ele>1586.09</ele>
  <time>2026-08-27T18:24:37Z</time>
  <course>320.06</course>
  <speed>0.0</speed>
  <fix>3d</fix>
</trkpt>
<trkpt lat="40.0728419" lon="-105.2305749">
  <ele>1586.18</ele>
  <time>2026-08-27T18:24:37Z</time>
  <course>11.56</course>
  <speed>0.022360679774997897</speed>
  <fix>3d</fix>
</trkpt>
<trkpt lat="40.072842" lon="-105.230575">
  <ele>1586.09</ele>
  <time>2026-08-27T18:24:37Z</time>
  <course>320.06</course>
  <speed>0.0</speed>
  <fix>3d</fix>
</trkpt>
<trkpt lat="40.0728419" lon="-105.2305749">
  <ele>1586.18</ele>
  <time>2026-08-27T18:24:37Z</time>
  <course>11.56</course>
  <speed>0.022360679774997897</speed>
  <fix>3d</fix>
</trkpt>
<trkpt lat="40.072842" lon="-105.230575">
  <ele>1586.09</ele>
  <time>2026-08-27T18:24:37Z</time>
  <course>320.06</course>
  <speed>0.0</speed>
  <fix>3d</fix>
</trkpt>
<trkpt lat="40.0728419" lon="-105.2305749">
  <ele>1586.18</ele>
  <time>2026-08-27T18:24:37Z</time>
  <course>11.56</course>
  <speed>0.022360679774997897</speed>
  <fix>3d</fix>
</trkpt>
<trkpt lat="40.072842" lon="-105.230575">
  <ele>1586.09</ele>
  <time>2026-08-27T18:24:37Z</time>
  <course>320.06</course>
  <speed>0.0</speed>
  <fix>3d</fix>
</trkpt>
<trkpt lat="40.0728419" lon="-105.2305749">
  <ele>1586.18</ele>
  <time>2026-08-27T18:24:37Z</time>
  <course>11.56</course>
  <speed>0.022360679774997897</speed>
  <fix>3d</fix>
</trkpt>
<trkpt lat="40.072842" lon="-105.230575">
  <ele>1586.09</ele>
  <time>2026-08-27T18:24:37Z</time>
  <course>320.06</course>
  <speed>0.0</speed>
  <fix>3d</fix>
</trkpt>
<trkpt lat="40.0728419" lon="-105.2305749">
  <ele>1586.18</ele>
  <time>2026-08-27T18:24:37Z</time>
  <course>11.56</course>
  <speed>0.022360679774997897</speed>
  <fix>3d</fix>
</trkpt>
<trkpt lat="40.072842" lon="-105.230575">
  <ele>1586.09</ele>
  <time>2026-08-27T18:24:37Z</time>
  <course>320.06</course>
  <speed>0.0</speed>
  <fix>3d</fix>
</trkpt>
<trkpt lat="40.0728419" lon="-105.2305749">
  <ele>1586.18</ele>
  <time>2026-08-27T18:24:37Z</time>
  <course>11.56</course>
  <speed>0.022360679774997897</speed>
  <fix>3d</fix>
</trkpt>
<trkpt lat="40.072842" lon="-105.230575">
  <ele>1586.09</ele>
  <time>2026-08-27T18:24:37Z</time>
  <course>320.06</course>
  <speed>0.0</speed>
  <fix>3d</fix>
</trkpt>
<trkpt lat="40.0728419" lon="-105.2305749">
  <ele>1586.18</ele>
  <time>2026-08-27T18:24:37Z</time>
  <course>11.56</course>
  <speed>0.022360679774997897</speed>
  <fix>3d</fix>
</trkpt>
<trkpt lat="40.072842" lon="-105.230575">
  <ele>1586.09</ele>
  <time>2026-08-27T18:24:37Z</time>
  <course>320.06</course>
  <speed>0.0</speed>
  <fix>3d</fix>
</trkpt>
<trkpt lat="40.0728419" lon="-105.2305749">
  <ele>1586.17</ele>
  <time>2026-08-27T18:24:37Z</time>
  <course>11.56</course>
  <speed>0.022360679774997897</speed>
  <fix>3d</fix>
</trkpt>
<trkpt lat="40.072842" lon="-105.230575">
  <ele>1586.09</ele>
  <time>2026-08-27T18:24:37Z</time>
  <course>320.06</course>
  <speed>0.0</speed>
  <fix>3d</fix>
</trkpt>
<trkpt lat="40.0728419" lon="-105.2305749">
  <ele>1586.17</ele>
  <time>2026-08-27T18:24:37Z</time>
  <course>11.57</course>
  <speed>0.022360679774997897</speed>
  <fix>3d</fix>
</trkpt>
<trkpt lat="40.072842" lon="-105.230575">
  <ele>1586.09</ele>
  <time>2026-08-27T18:24:37Z</time>
  <course>320.06</course>
  <speed>0.0</speed>
  <fix>3d</fix>
</trkpt>
<trkpt lat="40.0728419" lon="-105.2305749">
  <ele>1586.17</ele>
  <time>2026-08-27T18:24:37Z</time>
  <course>11.57</course>
  <speed>0.022360679774997897</speed>
  <fix>3d</fix>
</trkpt>
<trkpt lat="40.072842" lon="-105.230575">
  <ele>1586.09</ele>
  <time>2026-08-27T18:24:37Z</time>
  <course>320.06</course>
  <speed>0.0</speed>
  <fix>3d</fix>
</trkpt>
<trkpt lat="40.0728419" lon="-105.2305749">
  <ele>1586.17</ele>
  <time>2026-08-27T18:24:37Z</time>
  <course>11.57</course>
  <speed>0.022360679774997897</speed>
  <fix>3d</fix>
</trkpt>
<trkpt lat="40.072842" lon="-105.230575">
  <ele>1586.09</ele>
  <time>2026-08-27T18:24:37Z</time>
  <course>320.06</course>
  <speed>0.0</speed>
  <fix>3d</fix>
</trkpt>
<trkpt lat="40.0728419" lon="-105.2305749">
  <ele>1586.17</ele>
  <time>2026-08-27T18:24:37Z</time>
  <course>11.57</course>
  <speed>0.022360679774997897</speed>
  <fix>3d</fix>
</trkpt>
<trkpt lat="40.072842" lon="-105.230575">
  <ele>1586.09</ele>
  <time>2026-08-27T18:24:37Z</time>
  <course>320.06</course>
  <speed>0.0</speed>
  <fix>3d</fix>
</trkpt>
<trkpt lat="40.0728419" lon="-105.2305749">
  <ele>1586.17</ele>
  <time>2026-08-27T18:24:37Z</time>
  <course>11.57</course>
  <speed>0.022360679774997897</speed>
  <fix>3d</fix>
</trkpt>
<trkpt lat="40.072842" lon="-105.230575">
  <ele>1586.09</ele>
  <time>2026-08-27T18:24:37Z</time>
  <course>320.06</course>
  <speed>0.0</speed>
  <fix>3d</fix>
</trkpt>
<trkpt lat="40.0728419" lon="-105.2305749">
  <ele>1586.17</ele>
  <time>2026-08-27T18:24:37Z</time>
  <course>11.57</course>
  <speed>0.022360679774997897</speed>
  <fix>3d</fix>
</trkpt>
<trkpt lat="40.072842" lon="-105.230575">
  <ele>1586.09</ele>
  <time>2026-08-27T18:24:37Z</time>
  <course>320.06</course>
  <speed>0.0</speed>
  <fix>3d</fix>
</trkpt>
<trkpt lat="40.0728419" lon="-105.2305749">
  <ele>1586.17</ele>
  <time>2026-08-27T18:24:37Z</time>
  <course>11.57</course>
  <speed>0.022360679774997897</speed>
  <fix>3d</fix>
</trkpt>
<trkpt lat="40.072842" lon="-105.230575">
  <ele>1586.09</ele>
  <time>2026-08-27T18:24:37Z</time>
  <course>320.06</course>
  <speed>0.0</speed>
  <fix>3d</fix>
</trkpt>
<trkpt lat="40.0728419" lon="-105.2305749">
  <ele>1586.17</ele>
  <time>2026-08-27T18:24:37Z</time>
  <course>11.57</course>
  <speed>0.022360679774997897</speed>
  <fix>3d</fix>
</trkpt>
<trkpt lat="40.072842" lon="-105.230575">
  <ele>1586.09</ele>
  <time>2026-08-27T18:24:37Z</time>
  <course>320.06</course>
  <speed>0.0</speed>
  <fix>3d</fix>
</trkpt>
<trkpt lat="40.0728419" lon="-105.2305749">
  <ele>1586.17</ele>
  <time>2026-08-27T18:24:37Z</time>
  <course>11.57</course>
  <speed>0.022360679774997897</speed>
  <fix>3d</fix>
</trkpt>
<trkpt lat="40.072842" lon="-105.230575">
  <ele>1586.09</ele>
  <time>2026-08-27T18:24:37Z</time>
  <course>320.06</course>
  <speed>0.0</speed>
  <fix>3d</fix>
</trkpt>
<trkpt lat="40.0728419" lon="-105.2305749">
  <ele>1586.17</ele>
  <time>2026-08-27T18:24:37Z</time>
  <course>11.57</course>
  <speed>0.022360679774997897</speed>
  <fix>3d</fix>
</trkpt>
<trkpt lat="40.072842" lon="-105.230575">
  <ele>1586.09</ele>
  <time>2026-08-27T18:24:37Z</time>
  <course>320.06</course>
  <speed>0.0</speed>
  <fix>3d</fix>
</trkpt>
<trkpt lat="40.0728419" lon="-105.2305749">
  <ele>1586.17</ele>
  <time>2026-08-27T18:24:37Z</time>
  <course>11.57</course>
  <speed>0.022360679774997897</speed>
  <fix>3d</fix>
</trkpt>
<trkpt lat="40.072842" lon="-105.230575">
  <ele>1586.09</ele>
  <time>2026-08-27T18:24:37Z</time>
  <course>320.06</course>
  <speed>0.0</speed>
  <fix>3d</fix>
</trkpt>
<trkpt lat="40.0728419" lon="-105.2305749">
  <ele>1586.17</ele>
  <time>2026-08-27T18:24:37Z</time>
  <course>11.57</course>
  <speed>0.022360679774997897</speed>
  <fix>3d</fix>
</trkpt>
<trkpt lat="40.072842" lon="-105.230575">
  <ele>1586.09</ele>
  <time>2026-08-27T18:24:37Z</time>
  <course>320.06</course>
  <speed>0.0</speed>
  <fix>3d</fix>
</trkpt>
<trkpt lat="40.0728419" lon="-105.2305749">
  <ele>1586.17</ele>
  <time>2026-08-27T18:24:37Z</time>
  <course>11.57</course>
  <speed>0.022360679774997897</speed>
  <fix>3d</fix>
</trkpt>
<trkpt lat="40.072842" lon="-105.230575">
  <ele>1586.09</ele>
  <time>2026-08-27T18:24:37Z</time>
  <course>320.06</course>
  <speed>0.0</speed>
  <fix>3d</fix>
</trkpt>
<trkpt lat="40.0728419" lon="-105.2305749">
  <ele>1586.16</ele>
  <time>2026-08-27T18:24:37Z</time>
  <course>11.57</course>
  <speed>0.022360679774997897</speed>
  <fix>3d</fix>
</trkpt>
<trkpt lat="40.072842" lon="-105.230575">
  <ele>1586.09</ele>
  <time>2026-08-27T18:24:37Z</time>
  <course>320.06</course>
  <speed>0.0</speed>
  <fix>3d</fix>
</trkpt>
<trkpt lat="40.0728419" lon="-105.2305749">
  <ele>1586.16</ele>
  <time>2026-08-27T18:24:37Z</time>
  <course>11.57</course>
  <speed>0.022360679774997897</speed>
  <fix>3d</fix>
</trkpt>
<trkpt lat="40.072842" lon="-105.230575">
  <ele>1586.09</ele>
  <time>2026-08-27T18:24:37Z</time>
  <course>320.06</course>
  <speed>0.0</speed>
  <fix>3d</fix>
</trkpt>
<trkpt lat="40.0728419" lon="-105.2305749">
  <ele>1586.16</ele>
  <time>2026-08-27T18:24:37Z</time>
  <course>11.57</course>
  <speed>0.022360679774997897</speed>
  <fix>3d</fix>
</trkpt>
<trkpt lat="40.072842" lon="-105.230575">
  <ele>1586.09</ele>
  <time>2026-08-27T18:24:37Z</time>
  <course>320.06</course>
  <speed>0.0</speed>
  <fix>3d</fix>
</trkpt>
<trkpt lat="40.0728419" lon="-105.2305749">
  <ele>1586.16</ele>
  <time>2026-08-27T18:24:37Z</time>
  <course>11.57</course>
  <speed>0.022360679774997897</speed>
  <fix>3d</fix>
</trkpt>
<trkpt lat="40.072842" lon="-105.230575">
  <ele>1586.09</ele>
  <time>2026-08-27T18:24:37Z</time>
  <course>320.06</course>
  <speed>0.0</speed>
  <fix>3d</fix>
</trkpt>
<trkpt lat="40.0728419" lon="-105.2305749">
  <ele>1586.16</ele>
  <time>2026-08-27T18:24:37Z</time>
  <course>11.57</course>
  <speed>0.022360679774997897</speed>
  <fix>3d</fix>
</trkpt>
<trkpt lat="40.072842" lon="-105.230575">
  <ele>1586.09</ele>
  <time>2026-08-27T18:24:37Z</time>
  <course>320.06</course>
  <speed>0.0</speed>
  <fix>3d</fix>
</trkpt>
<trkpt lat="40.0728419" lon="-105.2305749">
  <ele>1586.16</ele>
  <time>2026-08-27T18:24:37Z</time>
  <course>11.57</course>
  <speed>0.022360679774997897</speed>
  <fix>3d</fix>
</trkpt>
<trkpt lat="40.072842" lon="-105.230575">
  <ele>1586.09</ele>
  <time>2026-08-27T18:24:37Z</time>
  <course>320.06</course>
  <speed>0.0</speed>
  <fix>3d</fix>
</trkpt>
<trkpt lat="40.0728419" lon="-105.2305749">
  <ele>1586.16</ele>
  <time>2026-08-27T18:24:37Z</time>
  <course>11.57</course>
  <speed>0.022360679774997897</speed>
  <fix>3d</fix>
</trkpt>
<trkpt lat="40.072842" lon="-105.230575">
  <ele>1586.09</ele>
  <time>2026-08-27T18:24:37Z</time>
  <course>320.06</course>
  <speed>0.0</speed>
  <fix>3d</fix>
</trkpt>
<trkpt lat="40.0728419" lon="-105.2305749">
  <ele>1586.16</ele>
  <time>2026-08-27T18:24:37Z</time>
  <course>11.57</course>
  <speed>0.022360679774997897</speed>
  <fix>3d</fix>
</trkpt>
<trkpt lat="40.072842" lon="-105.230575">
  <ele>1586.09</ele>
  <time>2026-08-27T18:24:37Z</time>
  <course>320.06</course>
  <speed>0.0</speed>
  <fix>3d</fix>
</trkpt>
<trkpt lat="40.0728419" lon="-105.2305749">
  <ele>1586.16</ele>
  <time>2026-08-27T18:24:37Z</time>
  <course>11.57</course>
  <speed>0.022360679774997897</speed>
  <fix>3d</fix>
</trkpt>
<trkpt lat="40.072842" lon="-105.230575">
  <ele>1586.09</ele>
  <time>2026-08-27T18:24:37Z</time>
  <course>320.06</course>
  <speed>0.0</speed>
  <fix>3d</fix>
</trkpt>
<trkpt lat="40.0728419" lon="-105.2305749">
  <ele>1586.16</ele>
  <time>2026-08-27T18:24:37Z</time>
  <course>11.57</course>
  <speed>0.022360679774997897</speed>
  <fix>3d</fix>
</trkpt>
<trkpt lat="40.072842" lon="-105.230575">
  <ele>1586.09</ele>
  <time>2026-08-27T18:24:37Z</time>
  <course>320.06</course>
  <speed>0.0</speed>
  <fix>3d</fix>
</trkpt>
<trkpt lat="40.0728419" lon="-105.2305749">
  <ele>1586.16</ele>
  <time>2026-08-27T18:24:37Z</time>
  <course>11.57</course>
  <speed>0.022360679774997897</speed>
  <fix>3d</fix>
</trkpt>
<trkpt lat="40.072842" lon="-105.230575">
  <ele>1586.09</ele>
  <time>2026-08-27T18:24:37Z</time>
  <course>320.06</course>
  <speed>0.0</speed>
  <fix>3d</fix>
</trkpt>
<trkpt lat="40.0728419" lon="-105.2305749">
  <ele>1586.15</ele>
  <time>2026-08-27T18:24:37Z</time>
  <course>11.57</course>
  <speed>0.022360679774997897</speed>
  <fix>3d</fix>
</trkpt>
<trkpt lat="40.072842" lon="-105.230575">
  <ele>1586.09</ele>
  <time>2026-08-27T18:24:37Z</time>
  <course>320.06</course>
  <speed>0.0</speed>
  <fix>3d</fix>
</trkpt>
<trkpt lat="40.0728419" lon="-105.2305749">
  <ele>1586.15</ele>
  <time>2026-08-27T18:24:37Z</time>
  <course>11.57</course>
  <speed>0.022360679774997897</speed>
  <fix>3d</fix>
</trkpt>
<trkpt lat="40.072842" lon="-105.230575">
  <ele>1586.09</ele>
  <time>2026-08-27T18:24:37Z</time>
  <course>320.06</course>
  <speed>0.0</speed>
  <fix>3d</fix>
</trkpt>
<trkpt lat="40.0728419" lon="-105.2305749">
  <ele>1586.16</ele>
  <time>2026-08-27T18:24:37Z</time>
  <course>11.57</course>
  <speed>0.022360679774997897</speed>
  <fix>3d</fix>
</trkpt>
<trkpt lat="40.072842" lon="-105.230575">
  <ele>1586.09</ele>
  <time>2026-08-27T18:24:37Z</time>
  <course>320.06</course>
  <speed>0.0</speed>
  <fix>3d</fix>
</trkpt>
<trkpt lat="40.0728419" lon="-105.2305749">
  <ele>1586.16</ele>
  <time>2026-08-27T18:24:37Z</time>
  <course>11.57</course>
  <speed>0.022360679774997897</speed>
  <fix>3d</fix>
</trkpt>
<trkpt lat="40.072842" lon="-105.230575">
  <ele>1586.09</ele>
  <time>2026-08-27T18:24:37Z</time>
  <course>320.06</course>
  <speed>0.0</speed>
  <fix>3d</fix>
</trkpt>
<trkpt lat="40.0728419" lon="-105.2305749">
  <ele>1586.16</ele>
  <time>2026-08-27T18:24:37Z</time>
  <course>11.57</course>
  <speed>0.022360679774997897</speed>
  <fix>3d</fix>
</trkpt>
<trkpt lat="40.072842" lon="-105.230575">
  <ele>1586.09</ele>
  <time>2026-08-27T18:24:37Z</time>
  <course>320.06</course>
  <speed>0.0</speed>
  <fix>3d</fix>
</trkpt>
<trkpt lat="40.0728419" lon="-105.2305749">
  <ele>1586.16</ele>
  <time>2026-08-27T18:24:37Z</time>
  <course>11.56</course>
  <speed>0.01414213562373095</speed>
  <fix>3d</fix>
</trkpt>
<trkpt lat="40.072842" lon="-105.230575">
  <ele>1586.09</ele>
  <time>2026-08-27T18:24:37Z</time>
  <course>320.06</course>
  <speed>0.0</speed>
  <fix>3d</fix>
</trkpt>
<trkpt lat="40.0728419" lon="-105.2305749">
  <ele>1586.16</ele>
  <time>2026-08-27T18:24:37Z</time>
  <course>11.56</course>
  <speed>0.01414213562373095</speed>
  <fix>3d</fix>
</trkpt>
<trkpt lat="40.072842" lon="-105.230575">
  <ele>1586.09</ele>
  <time>2026-08-27T18:24:37Z</time>
  <course>320.06</course>
  <speed>0.0</speed>
  <fix>3d</fix>
</trkpt>
<trkpt lat="40.0728419" lon="-105.2305749">
  <ele>1586.16</ele>
  <time>2026-08-27T18:24:37Z</time>
  <course>11.56</course>
  <speed>0.01414213562373095</speed>
  <fix>3d</fix>
</trkpt>
<trkpt lat="40.072842" lon="-105.230575">
  <ele>1586.09</ele>
  <time>2026-08-27T18:24:37Z</time>
  <course>322.23</course>
  <speed>0.0</speed>
  <fix>3d</fix>
</trkpt>
<trkpt lat="40.0728419" lon="-105.2305749">
  <ele>1586.16</ele>
  <time>2026-08-27T18:24:37Z</time>
  <course>11.56</course>
  <speed>0.01414213562373095</speed>
  <fix>3d</fix>
</trkpt>
<trkpt lat="40.072842" lon="-105.230575">
  <ele>1586.09</ele>
  <time>2026-08-27T18:24:37Z</time>
  <course>67.05</course>
  <speed>0.0</speed>
  <fix>3d</fix>
</trkpt>
<trkpt lat="40.0728419" lon="-105.2305749">
  <ele>1586.16</ele>
  <time>2026-08-27T18:24:37Z</time>
  <course>11.56</course>
  <speed>0.01414213562373095</speed>
  <fix>3d</fix>
</trkpt>
<trkpt lat="40.072842" lon="-105.230575">
  <ele>1586.09</ele>
  <time>2026-08-27T18:24:37Z</time>
  <course>54.26</course>
  <speed>0.0</speed>
  <fix>3d</fix>
</trkpt>
<trkpt lat="40.0728419" lon="-105.2305749">
  <ele>1586.16</ele>
  <time>2026-08-27T18:24:37Z</time>
  <course>11.56</course>
  <speed>0.01414213562373095</speed>
  <fix>3d</fix>
</trkpt>
<trkpt lat="40.072842" lon="-105.230575">
  <ele>1586.09</ele>
  <time>2026-08-27T18:24:37Z</time>
  <course>313.99</course>
  <speed>0.0</speed>
  <fix>3d</fix>
</trkpt>
<trkpt lat="40.0728419" lon="-105.2305749">
  <ele>1586.16</ele>
  <time>2026-08-27T18:24:37Z</time>
  <course>11.56</course>
  <speed>0.01414213562373095</speed>
  <fix>3d</fix>
</trkpt>
<trkpt lat="40.072842" lon="-105.230575">
  <ele>1586.09</ele>
  <time>2026-08-27T18:24:37Z</time>
  <course>306.77</course>
  <speed>0.0</speed>
  <fix>3d</fix>
</trkpt>
<trkpt lat="40.0728419" lon="-105.2305749">
  <ele>1586.16</ele>
  <time>2026-08-27T18:24:37Z</time>
  <course>11.56</course>
  <speed>0.01414213562373095</speed>
  <fix>3d</fix>
</trkpt>
<trkpt lat="40.072842" lon="-105.230575">
  <ele>1586.09</ele>
  <time>2026-08-27T18:24:37Z</time>
  <course>330.66</course>
  <speed>0.0</speed>
  <fix>3d</fix>
</trkpt>
<trkpt lat="40.0728419" lon="-105.2305749">
  <ele>1586.16</ele>
  <time>2026-08-27T18:24:37Z</time>
  <course>11.55</course>
  <speed>0.01414213562373095</speed>
  <fix>3d</fix>
</trkpt>
<trkpt lat="40.072842" lon="-105.230575">
  <ele>1586.09</ele>
  <time>2026-08-27T18:24:37Z</time>
  <course>327.55</course>
  <speed>0.0</speed>
  <fix>3d</fix>
</trkpt>
<trkpt lat="40.0728419" lon="-105.2305749">
  <ele>1586.16</ele>
  <time>2026-08-27T18:24:37Z</time>
  <course>11.55</course>
  <speed>0.01414213562373095</speed>
  <fix>3d</fix>
</trkpt>
<trkpt lat="40.072842" lon="-105.230575">
  <ele>1586.09</ele>
  <time>2026-08-27T18:24:37Z</time>
  <course>324.48</course>
  <speed>0.0</speed>
  <fix>3d</fix>
</trkpt>
<trkpt lat="40.0728419" lon="-105.2305749">
  <ele>1586.16</ele>
  <time>2026-08-27T18:24:37Z</time>
  <course>11.55</course>
  <speed>0.01414213562373095</speed>
  <fix>3d</fix>
</trkpt>
<trkpt lat="40.072842" lon="-105.230575">
  <ele>1586.09</ele>
  <time>2026-08-27T18:24:37Z</time>
  <course>325.2</course>
  <speed>0.0</speed>
  <fix>3d</fix>
</trkpt>
<trkpt lat="40.0728419" lon="-105.2305749">
  <ele>1586.16</ele>
  <time>2026-08-27T18:24:37Z</time>
  <course>11.55</course>
  <speed>0.01414213562373095</speed>
  <fix>3d</fix>
</trkpt>
<trkpt lat="40.072842" lon="-105.230575">
  <ele>1586.09</ele>
  <time>2026-08-27T18:24:37Z</time>
  <course>325.53</course>
  <speed>0.0</speed>
  <fix>3d</fix>
</trkpt>
<trkpt lat="40.0728419" lon="-105.2305749">
  <ele>1586.16</ele>
  <time>2026-08-27T18:24:37Z</time>
  <course>11.55</course>
  <speed>0.01414213562373095</speed>
  <fix>3d</fix>
</trkpt>
<trkpt lat="40.072842" lon="-105.230575">
  <ele>1586.09</ele>
  <time>2026-08-27T18:24:37Z</time>
  <course>325.39</course>
  <speed>0.0</speed>
  <fix>3d</fix>
</trkpt>
<trkpt lat="40.0728419" lon="-105.2305749">
  <ele>1586.17</ele>
  <time>2026-08-27T18:24:37Z</time>
  <course>11.55</course>
  <speed>0.01414213562373095</speed>
  <fix>3d</fix>
</trkpt>
<trkpt lat="40.072842" lon="-105.230575">
  <ele>1586.09</ele>
  <time>2026-08-27T18:24:37Z</time>
  <course>325.36</course>
  <speed>0.0</speed>
  <fix>3d</fix>
</trkpt>
<trkpt lat="40.0728419" lon="-105.2305749">
  <ele>1586.16</ele>
  <time>2026-08-27T18:24:37Z</time>
  <course>11.54</course>
  <speed>0.01414213562373095</speed>
  <fix>3d</fix>
</trkpt>
<trkpt lat="40.072842" lon="-105.230575">
  <ele>1586.09</ele>
  <time>2026-08-27T18:24:37Z</time>
  <course>202.39</course>
  <speed>0.0</speed>
  <fix>3d</fix>
</trkpt>
<trkpt lat="40.0728419" lon="-105.2305749">
  <ele>1586.16</ele>
  <time>2026-08-27T18:24:37Z</time>
  <course>11.54</course>
  <speed>0.01414213562373095</speed>
  <fix>3d</fix>
</trkpt>
<trkpt lat="40.072842" lon="-105.230575">
  <ele>1586.09</ele>
  <time>2026-08-27T18:24:37Z</time>
  <course>150.46</course>
  <speed>0.0</speed>
  <fix>3d</fix>
</trkpt>
<trkpt lat="40.0728419" lon="-105.2305749">
  <ele>1586.16</ele>
  <time>2026-08-27T18:24:37Z</time>
  <course>11.54</course>
  <speed>0.01414213562373095</speed>
  <fix>3d</fix>
</trkpt>
<trkpt lat="40.072842" lon="-105.230575">
  <ele>1586.09</ele>
  <time>2026-08-27T18:24:37Z</time>
  <course>101.72</course>
  <speed>0.0</speed>
  <fix>3d</fix>
</trkpt>
<trkpt lat="40.0728419" lon="-105.2305749">
  <ele>1586.16</ele>
  <time>2026-08-27T18:24:37Z</time>
  <course>11.54</course>
  <speed>0.01</speed>
  <fix>3d</fix>
</trkpt>
<trkpt lat="40.072842" lon="-105.230575">
  <ele>1586.09</ele>
  <time>2026-08-27T18:24:37Z</time>
  <course>272.77</course>
  <speed>0.0</speed>
  <fix>3d</fix>
</trkpt>
<trkpt lat="40.0728419" lon="-105.2305749">
  <ele>1586.16</ele>
  <time>2026-08-27T18:24:37Z</time>
  <course>11.54</course>
  <speed>0.01</speed>
  <fix>3d</fix>
</trkpt>
<trkpt lat="40.072842" lon="-105.230575">
  <ele>1586.09</ele>
  <time>2026-08-27T18:24:37Z</time>
  <course>213.6</course>
  <speed>0.0</speed>
  <fix>3d</fix>
</trkpt>
<trkpt lat="40.0728419" lon="-105.2305749">
  <ele>1586.17</ele>
  <time>2026-08-27T18:24:37Z</time>
  <course>11.53</course>
  <speed>0.01</speed>
  <fix>3d</fix>
</trkpt>
<trkpt lat="40.072842" lon="-105.230575">
  <ele>1586.09</ele>
  <time>2026-08-27T18:24:37Z</time>
  <course>194.57</course>
  <speed>0.0</speed>
  <fix>3d</fix>
</trkpt>
<trkpt lat="40.0728419" lon="-105.2305749">
  <ele>1586.17</ele>
  <time>2026-08-27T18:24:37Z</time>
  <course>11.53</course>
  <speed>0.01</speed>
  <fix>3d</fix>
</trkpt>
<trkpt lat="40.072842" lon="-105.230575">
  <ele>1586.09</ele>
  <time>2026-08-27T18:24:37Z</time>
  <course>138.69</course>
  <speed>0.0</speed>
  <fix>3d</fix>
</trkpt>
<trkpt lat="40.0728419" lon="-105.2305749">
  <ele>1586.16</ele>
  <time>2026-08-27T18:24:37Z</time>
  <course>11.53</course>
  <speed>0.01</speed>
  <fix>3d</fix>
</trkpt>
<trkpt lat="40.072842" lon="-105.230575">
  <ele>1586.09</ele>
  <time>2026-08-27T18:24:37Z</time>
  <course>120.15</course>
  <speed>0.0</speed>
  <fix>3d</fix>
</trkpt>
<trkpt lat="40.0728419" lon="-105.2305749">
  <ele>1586.17</ele>
  <time>2026-08-27T18:24:37Z</time>
  <course>11.53</course>
  <speed>0.01</speed>
  <fix>3d</fix>
</trkpt>
<trkpt lat="40.072842" lon="-105.230575">
  <ele>1586.09</ele>
  <time>2026-08-27T18:24:37Z</time>
  <course>150.08</course>
  <speed>0.0</speed>
  <fix>3d</fix>
</trkpt>
<trkpt lat="40.0728419" lon="-105.2305749">
  <ele>1586.17</ele>
  <time>2026-08-27T18:24:37Z</time>
  <course>11.52</course>
  <speed>0.01</speed>
  <fix>3d</fix>
</trkpt>
<trkpt lat="40.072842" lon="-105.230575">
  <ele>1586.09</ele>
  <time>2026-08-27T18:24:37Z</time>
  <course>320.09</course>
  <speed>0.0</speed>
  <fix>3d</fix>
</trkpt>
<trkpt lat="40.0728419" lon="-105.2305749">
  <ele>1586.17</ele>
  <time>2026-08-27T18:24:37Z</time>
  <course>11.52</course>
  <speed>0.01</speed>
  <fix>3d</fix>
</trkpt>
<trkpt lat="40.072842" lon="-105.230575">
  <ele>1586.09</ele>
  <time>2026-08-27T18:24:37Z</time>
  <course>299.6</course>
  <speed>0.0</speed>
  <fix>3d</fix>
</trkpt>
<trkpt lat="40.0728419" lon="-105.2305749">
  <ele>1586.16</ele>
  <time>2026-08-27T18:24:37Z</time>
  <course>11.52</course>
  <speed>0.01</speed>
  <fix>3d</fix>
</trkpt>
<trkpt lat="40.072842" lon="-105.230575">
  <ele>1586.09</ele>
  <time>2026-08-27T18:24:37Z</time>
  <course>277.43</course>
  <speed>0.0</speed>
  <fix>3d</fix>
</trkpt>
<trkpt lat="40.0728419" lon="-105.2305749">
  <ele>1586.16</ele>
  <time>2026-08-27T18:24:37Z</time>
  <course>11.52</course>
  <speed>0.01</speed>
  <fix>3d</fix>
</trkpt>
<trkpt lat="40.072842" lon="-105.230575">
  <ele>1586.09</ele>
  <time>2026-08-27T18:24:37Z</time>
  <course>283.72</course>
  <speed>0.0</speed>
  <fix>3d</fix>
</trkpt>
<trkpt lat="40.0728419" lon="-105.2305749">
  <ele>1586.15</ele>
  <time>2026-08-27T18:24:37Z</time>
  <course>11.51</course>
  <speed>0.0</speed>
  <fix>3d</fix>
</trkpt>
<trkpt lat="40.072842" lon="-105.230575">
  <ele>1586.09</ele>
  <time>2026-08-27T18:24:37Z</time>
  <course>287.5</course>
  <speed>0.0</speed>
  <fix>3d</fix>
</trkpt>
<trkpt lat="40.0728419" lon="-105.2305749">
  <ele>1586.14</ele>
  <time>2026-08-27T18:24:37Z</time>
  <course>11.51</course>
  <speed>0.0</speed>
  <fix>3d</fix>
</trkpt>
<trkpt lat="40.072842" lon="-105.230575">
  <ele>1586.09</ele>
  <time>2026-08-27T18:24:37Z</time>
  <course>286.33</course>
  <speed>0.0</speed>
  <fix>3d</fix>
</trkpt>
<trkpt lat="40.0728419" lon="-105.2305749">
  <ele>1586.13</ele>
  <time>2026-08-27T18:24:37Z</time>
  <course>11.51</course>
  <speed>0.0</speed>
  <fix>3d</fix>
</trkpt>
<trkpt lat="40.072842" lon="-105.230575">
  <ele>1586.09</ele>
  <time>2026-08-27T18:24:37Z</time>
  <course>285.99</course>
  <speed>0.0</speed>
  <fix>3d</fix>
</trkpt>
<trkpt lat="40.0728419" lon="-105.2305749">
  <ele>1586.13</ele>
  <time>2026-08-27T18:24:37Z</time>
  <course>11.5</course>
  <speed>0.0</speed>
  <fix>3d</fix>
</trkpt>
<trkpt lat="40.072842" lon="-105.230575">
  <ele>1586.09</ele>
  <time>2026-08-27T18:24:37Z</time>
  <course>286.19</course>
  <speed>0.0</speed>
  <fix>3d</fix>
</trkpt>
<trkpt lat="40.0728419" lon="-105.2305749">
  <ele>1586.13</ele>
  <time>2026-08-27T18:24:37Z</time>
  <course>11.5</course>
  <speed>0.0</speed>
  <fix>3d</fix>
</trkpt>
<trkpt lat="40.072842" lon="-105.230575">
  <ele>1586.09</ele>
  <time>2026-08-27T18:24:37Z</time>
  <course>286.22</course>
  <speed>0.0</speed>
  <fix>3d</fix>
</trkpt>
<trkpt lat="40.0728419" lon="-105.2305749">
  <ele>1586.13</ele>
  <time>2026-08-27T18:24:37Z</time>
  <course>11.5</course>
  <speed>0.0</speed>
  <fix>3d</fix>
</trkpt>
<trkpt lat="40.072842" lon="-105.230575">
  <ele>1586.09</ele>
  <time>2026-08-27T18:24:37Z</time>
  <course>286.19</course>
  <speed>0.0</speed>
  <fix>3d</fix>
</trkpt>
<trkpt lat="40.0728419" lon="-105.2305749">
  <ele>1586.14</ele>
  <time>2026-08-27T18:24:37Z</time>
  <course>11.49</course>
  <speed>0.0</speed>
  <fix>3d</fix>
</trkpt>
<trkpt lat="40.072842" lon="-105.230575">
  <ele>1586.09</ele>
  <time>2026-08-27T18:24:37Z</time>
  <course>302.07</course>
  <speed>0.0</speed>
  <fix>3d</fix>
</trkpt>
<trkpt lat="40.0728419" lon="-105.2305749">
  <ele>1586.14</ele>
  <time>2026-08-27T18:24:37Z</time>
  <course>11.49</course>
  <speed>0.0</speed>
  <fix>3d</fix>
</trkpt>
<trkpt lat="40.072842" lon="-105.230575">
  <ele>1586.09</ele>
  <time>2026-08-27T18:24:37Z</time>
  <course>295.77</course>
  <speed>0.0</speed>
  <fix>3d</fix>
</trkpt>
<trkpt lat="40.0728419" lon="-105.2305749">
  <ele>1586.14</ele>
  <time>2026-08-27T18:24:37Z</time>
  <course>11.49</course>
  <speed>0.0</speed>
  <fix>3d</fix>
</trkpt>
<trkpt lat="40.072842" lon="-105.230575">
  <ele>1586.09</ele>
  <time>2026-08-27T18:24:37Z</time>
  <course>280.62</course>
  <speed>0.0</speed>
  <fix>3d</fix>
</trkpt>
<trkpt lat="40.0728419" lon="-105.2305749">
  <ele>1586.14</ele>
  <time>2026-08-27T18:24:37Z</time>
  <course>11.48</course>
  <speed>0.0</speed>
  <fix>3d</fix>
</trkpt>
<trkpt lat="40.072842" lon="-105.230575">
  <ele>1586.09</ele>
  <time>2026-08-27T18:24:37Z</time>
  <course>285.61</course>
  <speed>0.0</speed>
  <fix>3d</fix>
</trkpt>
<trkpt lat="40.0728419" lon="-105.2305749">
  <ele>1586.14</ele>
  <time>2026-08-27T18:24:37Z</time>
  <course>11.48</course>
  <speed>0.0</speed>
  <fix>3d</fix>
</trkpt>
<trkpt lat="40.072842" lon="-105.230575">
  <ele>1586.09</ele>
  <time>2026-08-27T18:24:37Z</time>
  <course>287.11</course>
  <speed>0.0</speed>
  <fix>3d</fix>
</trkpt>
<trkpt lat="40.0728419" lon="-105.2305749">
  <ele>1586.14</ele>
  <time>2026-08-27T18:24:37Z</time>
  <course>11.48</course>
  <speed>0.0</speed>
  <fix>3d</fix>
</trkpt>
<trkpt lat="40.072842" lon="-105.230575">
  <ele>1586.09</ele>
  <time>2026-08-27T18:24:37Z</time>
  <course>286.16</course>
  <speed>0.0</speed>
  <fix>3d</fix>
</trkpt>
<trkpt lat="40.0728419" lon="-105.2305749">
  <ele>1586.14</ele>
  <time>2026-08-27T18:24:37Z</time>
  <course>11.47</course>
  <speed>0.0</speed>
  <fix>3d</fix>
</trkpt>
<trkpt lat="40.072842" lon="-105.230575">
  <ele>1586.09</ele>
  <time>2026-08-27T18:24:37Z</time>
  <course>286.07</course>
  <speed>0.0</speed>
  <fix>3d</fix>
</trkpt>
<trkpt lat="40.0728419" lon="-105.2305749">
  <ele>1586.14</ele>
  <time>2026-08-27T18:24:37Z</time>
  <course>11.47</course>
  <speed>0.0</speed>
  <fix>3d</fix>
</trkpt>
<trkpt lat="40.072842" lon="-105.230575">
  <ele>1586.09</ele>
  <time>2026-08-27T18:24:37Z</time>
  <course>313.92</course>
  <speed>0.0</speed>
  <fix>3d</fix>
</trkpt>
<trkpt lat="40.0728419" lon="-105.2305749">
  <ele>1586.14</ele>
  <time>2026-08-27T18:24:37Z</time>
  <course>11.46</course>
  <speed>0.0</speed>
  <fix>3d</fix>
</trkpt>
<trkpt lat="40.072842" lon="-105.230575">
  <ele>1586.09</ele>
  <time>2026-08-27T18:24:37Z</time>
  <course>25.74</course>
  <speed>0.0</speed>
  <fix>3d</fix>
</trkpt>
<trkpt lat="40.0728419" lon="-105.2305749">
  <ele>1586.14</ele>
  <time>2026-08-27T18:24:37Z</time>
  <course>11.46</course>
  <speed>0.0</speed>
  <fix>3d</fix>
</trkpt>
<trkpt lat="40.072842" lon="-105.230575">
  <ele>1586.09</ele>
  <time>2026-08-27T18:24:37Z</time>
  <course>7.04</course>
  <speed>0.0</speed>
  <fix>3d</fix>
</trkpt>
<trkpt lat="40.0728419" lon="-105.2305749">
  <ele>1586.15</ele>
  <time>2026-08-27T18:24:37Z</time>
  <course>11.46</course>
  <speed>0.0</speed>
  <fix>3d</fix>
</trkpt>
<trkpt lat="40.072842" lon="-105.230575">
  <ele>1586.09</ele>
  <time>2026-08-27T18:24:37Z</time>
  <course>324.57</course>
  <speed>0.0</speed>
  <fix>3d</fix>
</trkpt>
<trkpt lat="40.0728419" lon="-105.2305749">
  <ele>1586.15</ele>
  <time>2026-08-27T18:24:37Z</time>
  <course>11.45</course>
  <speed>0.0</speed>
  <fix>3d</fix>
</trkpt>
<trkpt lat="40.072842" lon="-105.230575">
  <ele>1586.09</ele>
  <time>2026-08-27T18:24:37Z</time>
  <course>212.72</course>
  <speed>0.0</speed>
  <fix>3d</fix>
</trkpt>
<trkpt lat="40.0728419" lon="-105.2305749">
  <ele>1586.15</ele>
  <time>2026-08-27T18:24:37Z</time>
  <course>11.45</course>
  <speed>0.0</speed>
  <fix>3d</fix>
</trkpt>
<trkpt lat="40.072842" lon="-105.230575">
  <ele>1586.09</ele>
  <time>2026-08-27T18:24:37Z</time>
  <course>350.13</course>
  <speed>0.0</speed>
  <fix>3d</fix>
</trkpt>
<trkpt lat="40.0728419" lon="-105.2305749">
  <ele>1586.15</ele>
  <time>2026-08-27T18:24:37Z</time>
  <course>11.44</course>
  <speed>0.0</speed>
  <fix>3d</fix>
</trkpt>
<trkpt lat="40.072842" lon="-105.230575">
  <ele>1586.09</ele>
  <time>2026-08-27T18:24:37Z</time>
  <course>331.78</course>
  <speed>0.0</speed>
  <fix>3d</fix>
</trkpt>
<trkpt lat="40.0728419" lon="-105.2305749">
  <ele>1586.15</ele>
  <time>2026-08-27T18:24:37Z</time>
  <course>11.44</course>
  <speed>0.0</speed>
  <fix>3d</fix>
</trkpt>
<trkpt lat="40.072842" lon="-105.230575">
  <ele>1586.09</ele>
  <time>2026-08-27T18:24:37Z</time>
  <course>314.59</course>
  <speed>0.0</speed>
  <fix>3d</fix>
</trkpt>
<trkpt lat="40.0728419" lon="-105.2305749">
  <ele>1586.16</ele>
  <time>2026-08-27T18:24:37Z</time>
  <course>11.44</course>
  <speed>0.0</speed>
  <fix>3d</fix>
</trkpt>
<trkpt lat="40.072842" lon="-105.230575">
  <ele>1586.09</ele>
  <time>2026-08-27T18:24:37Z</time>
  <course>316.45</course>
  <speed>0.0</speed>
  <fix>3d</fix>
</trkpt>
<trkpt lat="40.0728419" lon="-105.2305749">
  <ele>1586.16</ele>
  <time>2026-08-27T18:24:37Z</time>
  <course>11.43</course>
  <speed>0.0</speed>
  <fix>3d</fix>
</trkpt>
<trkpt lat="40.072842" lon="-105.230575">
  <ele>1586.09</ele>
  <time>2026-08-27T18:24:37Z</time>
  <course>319.19</course>
  <speed>0.0</speed>
  <fix>3d</fix>
</trkpt>
<trkpt lat="40.0728419" lon="-105.2305749">
  <ele>1586.16</ele>
  <time>2026-08-27T18:24:37Z</time>
  <course>11.43</course>
  <speed>0.0</speed>
  <fix>3d</fix>
</trkpt>
<trkpt lat="40.072842" lon="-105.230575">
  <ele>1586.09</ele>
  <time>2026-08-27T18:24:37Z</time>
  <course>318.59</course>
  <speed>0.0</speed>
  <fix>3d</fix>
</trkpt>
<trkpt lat="40.0728419" lon="-105.2305749">
  <ele>1586.16</ele>
  <time>2026-08-27T18:24:37Z</time>
  <course>11.42</course>
  <speed>0.0</speed>
  <fix>3d</fix>
</trkpt>
<trkpt lat="40.072842" lon="-105.230575">
  <ele>1586.09</ele>
  <time>2026-08-27T18:24:37Z</time>
  <course>318.31</course>
  <speed>0.0</speed>
  <fix>3d</fix>
</trkpt>
<trkpt lat="40.0728419" lon="-105.2305749">
  <ele>1586.16</ele>
  <time>2026-08-27T18:24:37Z</time>
  <course>11.42</course>
  <speed>0.0</speed>
  <fix>3d</fix>
</trkpt>
<trkpt lat="40.072842" lon="-105.230575">
  <ele>1586.09</ele>
  <time>2026-08-27T18:24:37Z</time>
  <course>318.42</course>
  <speed>0.0</speed>
  <fix>3d</fix>
</trkpt>
<trkpt lat="40.0728419" lon="-105.2305749">
  <ele>1586.16</ele>
  <time>2026-08-27T18:24:37Z</time>
  <course>11.42</course>
  <speed>0.0</speed>
  <fix>3d</fix>
</trkpt>
<trkpt lat="40.072842" lon="-105.230575">
  <ele>1586.09</ele>
  <time>2026-08-27T18:24:37Z</time>
  <course>318.45</course>
  <speed>0.0</speed>
  <fix>3d</fix>
</trkpt>
<trkpt lat="40.0728419" lon="-105.2305749">
  <ele>1586.16</ele>
  <time>2026-08-27T18:24:37Z</time>
  <course>11.41</course>
  <speed>0.0</speed>
  <fix>3d</fix>
</trkpt>
<trkpt lat="40.072842" lon="-105.230575">
  <ele>1586.09</ele>
  <time>2026-08-27T18:24:37Z</time>
  <course>318.43</course>
  <speed>0.0</speed>
  <fix>3d</fix>
</trkpt>
<trkpt lat="40.0728419" lon="-105.2305749">
  <ele>1586.16</ele>
  <time>2026-08-27T18:24:37Z</time>
  <course>11.41</course>
  <speed>0.0</speed>
  <fix>3d</fix>
</trkpt>
<trkpt lat="40.072842" lon="-105.230575">
  <ele>1586.09</ele>
  <time>2026-08-27T18:24:37Z</time>
  <course>318.43</course>
  <speed>0.0</speed>
  <fix>3d</fix>
</trkpt>
<trkpt lat="40.0728419" lon="-105.2305749">
  <ele>1586.16</ele>
  <time>2026-08-27T18:24:37Z</time>
  <course>11.4</course>
  <speed>0.0</speed>
  <fix>3d</fix>
</trkpt>
<trkpt lat="40.072842" lon="-105.230575">
  <ele>1586.09</ele>
  <time>2026-08-27T18:24:37Z</time>
  <course>318.43</course>
  <speed>0.0</speed>
  <fix>3d</fix>
</trkpt>
<trkpt lat="40.0728419" lon="-105.2305749">
  <ele>1586.17</ele>
  <time>2026-08-27T18:24:38Z</time>
  <course>11.4</course>
  <speed>0.0</speed>
  <fix>3d</fix>
</trkpt>
<trkpt lat="40.072842" lon="-105.230575">
  <ele>1586.09</ele>
  <time>2026-08-27T18:24:38Z</time>
  <course>318.43</course>
  <speed>0.0</speed>
  <fix>3d</fix>
</trkpt>
<trkpt lat="40.0728419" lon="-105.2305749">
  <ele>1586.17</ele>
  <time>2026-08-27T18:24:38Z</time>
  <course>11.39</course>
  <speed>0.0</speed>
  <fix>3d</fix>
</trkpt>
<trkpt lat="40.072842" lon="-105.230575">
  <ele>1586.09</ele>
  <time>2026-08-27T18:24:38Z</time>
  <course>318.43</course>
  <speed>0.0</speed>
  <fix>3d</fix>
</trkpt>
<trkpt lat="40.0728419" lon="-105.2305749">
  <ele>1586.17</ele>
  <time>2026-08-27T18:24:38Z</time>
  <course>11.39</course>
  <speed>0.0</speed>
  <fix>3d</fix>
</trkpt>
<trkpt lat="40.072842" lon="-105.230575">
  <ele>1586.09</ele>
  <time>2026-08-27T18:24:38Z</time>
  <course>318.43</course>
  <speed>0.0</speed>
  <fix>3d</fix>
</trkpt>
<trkpt lat="40.0728419" lon="-105.2305749">
  <ele>1586.17</ele>
  <time>2026-08-27T18:24:38Z</time>
  <course>11.38</course>
  <speed>0.0</speed>
  <fix>3d</fix>
</trkpt>
<trkpt lat="40.072842" lon="-105.230575">
  <ele>1586.09</ele>
  <time>2026-08-27T18:24:38Z</time>
  <course>318.43</course>
  <speed>0.0</speed>
  <fix>3d</fix>
</trkpt>
<trkpt lat="40.0728419" lon="-105.2305749">
  <ele>1586.17</ele>
  <time>2026-08-27T18:24:38Z</time>
  <course>11.38</course>
  <speed>0.0</speed>
  <fix>3d</fix>
</trkpt>
<trkpt lat="40.072842" lon="-105.230575">
  <ele>1586.09</ele>
  <time>2026-08-27T18:24:38Z</time>
  <course>318.43</course>
  <speed>0.0</speed>
  <fix>3d</fix>
</trkpt>
<trkpt lat="40.0728419" lon="-105.2305749">
  <ele>1586.17</ele>
  <time>2026-08-27T18:24:38Z</time>
  <course>11.37</course>
  <speed>0.0</speed>
  <fix>3d</fix>
</trkpt>
<trkpt lat="40.072842" lon="-105.230575">
  <ele>1586.09</ele>
  <time>2026-08-27T18:24:38Z</time>
  <course>318.43</course>
  <speed>0.0</speed>
  <fix>3d</fix>
</trkpt>
<trkpt lat="40.072842" lon="-105.2305749">
  <ele>1586.17</ele>
  <time>2026-08-27T18:24:38Z</time>
  <course>11.37</course>
  <speed>0.0</speed>
  <fix>3d</fix>
</trkpt>
<trkpt lat="40.072842" lon="-105.230575">
  <ele>1586.09</ele>
  <time>2026-08-27T18:24:38Z</time>
  <course>318.43</course>
  <speed>0.0</speed>
  <fix>3d</fix>
</trkpt>
<trkpt lat="40.072842" lon="-105.2305749">
  <ele>1586.17</ele>
  <time>2026-08-27T18:24:38Z</time>
  <course>11.36</course>
  <speed>0.0</speed>
  <fix>3d</fix>
</trkpt>
<trkpt lat="40.072842" lon="-105.230575">
  <ele>1586.09</ele>
  <time>2026-08-27T18:24:38Z</time>
  <course>318.43</course>
  <speed>0.0</speed>
  <fix>3d</fix>
</trkpt>
<trkpt lat="40.072842" lon="-105.230575">
  <ele>1586.17</ele>
  <time>2026-08-27T18:24:38Z</time>
  <course>11.36</course>
  <speed>0.0</speed>
  <fix>3d</fix>
</trkpt>
<trkpt lat="40.072842" lon="-105.230575">
  <ele>1586.09</ele>
  <time>2026-08-27T18:24:38Z</time>
  <course>318.43</course>
  <speed>0.0</speed>
  <fix>3d</fix>
</trkpt>
<trkpt lat="40.072842" lon="-105.230575">
  <ele>1586.17</ele>
  <time>2026-08-27T18:24:38Z</time>
  <course>11.35</course>
  <speed>0.0</speed>
  <fix>3d</fix>
</trkpt>
<trkpt lat="40.072842" lon="-105.230575">
  <ele>1586.09</ele>
  <time>2026-08-27T18:24:38Z</time>
  <course>318.43</course>
  <speed>0.0</speed>
  <fix>3d</fix>
</trkpt>
<trkpt lat="40.072842" lon="-105.230575">
  <ele>1586.17</ele>
  <time>2026-08-27T18:24:38Z</time>
  <course>11.35</course>
  <speed>0.0</speed>
  <fix>3d</fix>
</trkpt>
<trkpt lat="40.072842" lon="-105.230575">
  <ele>1586.09</ele>
  <time>2026-08-27T18:24:38Z</time>
  <course>318.43</course>
  <speed>0.0</speed>
  <fix>3d</fix>
</trkpt>
<trkpt lat="40.072842" lon="-105.230575">
  <ele>1586.17</ele>
  <time>2026-08-27T18:24:38Z</time>
  <course>11.34</course>
  <speed>0.0</speed>
  <fix>3d</fix>
</trkpt>
<trkpt lat="40.072842" lon="-105.230575">
  <ele>1586.09</ele>
  <time>2026-08-27T18:24:38Z</time>
  <course>318.43</course>
  <speed>0.0</speed>
  <fix>3d</fix>
</trkpt>
<trkpt lat="40.072842" lon="-105.230575">
  <ele>1586.17</ele>
  <time>2026-08-27T18:24:38Z</time>
  <course>11.34</course>
  <speed>0.0</speed>
  <fix>3d</fix>
</trkpt>
<trkpt lat="40.072842" lon="-105.230575">
  <ele>1586.09</ele>
  <time>2026-08-27T18:24:38Z</time>
  <course>318.43</course>
  <speed>0.0</speed>
  <fix>3d</fix>
</trkpt>
<trkpt lat="40.072842" lon="-105.230575">
  <ele>1586.17</ele>
  <time>2026-08-27T18:24:38Z</time>
  <course>11.33</course>
  <speed>0.0</speed>
  <fix>3d</fix>
</trkpt>
<trkpt lat="40.072842" lon="-105.230575">
  <ele>1586.09</ele>
  <time>2026-08-27T18:24:38Z</time>
  <course>318.43</course>
  <speed>0.0</speed>
  <fix>3d</fix>
</trkpt>
<trkpt lat="40.072842" lon="-105.230575">
  <ele>1586.17</ele>
  <time>2026-08-27T18:24:38Z</time>
  <course>11.33</course>
  <speed>0.0</speed>
  <fix>3d</fix>
</trkpt>
<trkpt lat="40.072842" lon="-105.230575">
  <ele>1586.09</ele>
  <time>2026-08-27T18:24:38Z</time>
  <course>318.43</course>
  <speed>0.0</speed>
  <fix>3d</fix>
</trkpt>
<trkpt lat="40.072842" lon="-105.230575">
  <ele>1586.17</ele>
  <time>2026-08-27T18:24:38Z</time>
  <course>11.32</course>
  <speed>0.0</speed>
  <fix>3d</fix>
</trkpt>
<trkpt lat="40.072842" lon="-105.230575">
  <ele>1586.09</ele>
  <time>2026-08-27T18:24:38Z</time>
  <course>318.43</course>
  <speed>0.0</speed>
  <fix>3d</fix>
</trkpt>
<trkpt lat="40.072842" lon="-105.230575">
  <ele>1586.17</ele>
  <time>2026-08-27T18:24:38Z</time>
  <course>11.32</course>
  <speed>0.0</speed>
  <fix>3d</fix>
</trkpt>
<trkpt lat="40.072842" lon="-105.230575">
  <ele>1586.09</ele>
  <time>2026-08-27T18:24:38Z</time>
  <course>318.43</course>
  <speed>0.0</speed>
  <fix>3d</fix>
</trkpt>
<trkpt lat="40.072842" lon="-105.230575">
  <ele>1586.18</ele>
  <time>2026-08-27T18:24:38Z</time>
  <course>11.32</course>
  <speed>0.0</speed>
  <fix>3d</fix>
</trkpt>
<trkpt lat="40.072842" lon="-105.230575">
  <ele>1586.09</ele>
  <time>2026-08-27T18:24:38Z</time>
  <course>318.43</course>
  <speed>0.0</speed>
  <fix>3d</fix>
</trkpt>
<trkpt lat="40.072842" lon="-105.230575">
  <ele>1586.18</ele>
  <time>2026-08-27T18:24:38Z</time>
  <course>11.31</course>
  <speed>0.0</speed>
  <fix>3d</fix>
</trkpt>
<trkpt lat="40.072842" lon="-105.230575">
  <ele>1586.09</ele>
  <time>2026-08-27T18:24:38Z</time>
  <course>318.43</course>
  <speed>0.0</speed>
  <fix>3d</fix>
</trkpt>
<trkpt lat="40.072842" lon="-105.230575">
  <ele>1586.18</ele>
  <time>2026-08-27T18:24:38Z</time>
  <course>11.3</course>
  <speed>0.0</speed>
  <fix>3d</fix>
</trkpt>
<trkpt lat="40.072842" lon="-105.230575">
  <ele>1586.09</ele>
  <time>2026-08-27T18:24:38Z</time>
  <course>318.43</course>
  <speed>0.0</speed>
  <fix>3d</fix>
</trkpt>
<trkpt lat="40.072842" lon="-105.230575">
  <ele>1586.18</ele>
  <time>2026-08-27T18:24:38Z</time>
  <course>11.3</course>
  <speed>0.0</speed>
  <fix>3d</fix>
</trkpt>
<trkpt lat="40.072842" lon="-105.230575">
  <ele>1586.09</ele>
  <time>2026-08-27T18:24:38Z</time>
  <course>318.43</course>
  <speed>0.0</speed>
  <fix>3d</fix>
</trkpt>
<trkpt lat="40.072842" lon="-105.230575">
  <ele>1586.18</ele>
  <time>2026-08-27T18:24:38Z</time>
  <course>11.29</course>
  <speed>0.0</speed>
  <fix>3d</fix>
</trkpt>
<trkpt lat="40.072842" lon="-105.230575">
  <ele>1586.09</ele>
  <time>2026-08-27T18:24:38Z</time>
  <course>318.43</course>
  <speed>0.0</speed>
  <fix>3d</fix>
</trkpt>
<trkpt lat="40.072842" lon="-105.230575">
  <ele>1586.17</ele>
  <time>2026-08-27T18:24:38Z</time>
  <course>11.29</course>
  <speed>0.0</speed>
  <fix>3d</fix>
</trkpt>
<trkpt lat="40.072842" lon="-105.230575">
  <ele>1586.09</ele>
  <time>2026-08-27T18:24:38Z</time>
  <course>210.71</course>
  <speed>0.0</speed>
  <fix>3d</fix>
</trkpt>
<trkpt lat="40.072842" lon="-105.230575">
  <ele>1586.17</ele>
  <time>2026-08-27T18:24:38Z</time>
  <course>11.28</course>
  <speed>0.0</speed>
  <fix>3d</fix>
</trkpt>
<trkpt lat="40.072842" lon="-105.230575">
  <ele>1586.09</ele>
  <time>2026-08-27T18:24:38Z</time>
  <course>145.23</course>
  <speed>0.0</speed>
  <fix>3d</fix>
</trkpt>
<trkpt lat="40.072842" lon="-105.230575">
  <ele>1586.17</ele>
  <time>2026-08-27T18:24:38Z</time>
  <course>11.28</course>
  <speed>0.0</speed>
  <fix>3d</fix>
</trkpt>
<trkpt lat="40.072842" lon="-105.230575">
  <ele>1586.09</ele>
  <time>2026-08-27T18:24:38Z</time>
  <course>123.66</course>
  <speed>0.0</speed>
  <fix>3d</fix>
</trkpt>
<trkpt lat="40.072842" lon="-105.230575">
  <ele>1586.17</ele>
  <time>2026-08-27T18:24:38Z</time>
  <course>11.27</course>
  <speed>0.0</speed>
  <fix>3d</fix>
</trkpt>
<trkpt lat="40.072842" lon="-105.230575">
  <ele>1586.09</ele>
  <time>2026-08-27T18:24:38Z</time>
  <course>328.5</course>
  <speed>0.0</speed>
  <fix>3d</fix>
</trkpt>
<trkpt lat="40.072842" lon="-105.230575">
  <ele>1586.17</ele>
  <time>2026-08-27T18:24:38Z</time>
  <course>11.27</course>
  <speed>0.0</speed>
  <fix>3d</fix>
</trkpt>
<trkpt lat="40.072842" lon="-105.230575">
  <ele>1586.09</ele>
  <time>2026-08-27T18:24:38Z</time>
  <course>310.42</course>
  <speed>0.0</speed>
  <fix>3d</fix>
</trkpt>
<trkpt lat="40.072842" lon="-105.230575">
  <ele>1586.17</ele>
  <time>2026-08-27T18:24:38Z</time>
  <course>11.26</course>
  <speed>0.0</speed>
  <fix>3d</fix>
</trkpt>
<trkpt lat="40.072842" lon="-105.230575">
  <ele>1586.09</ele>
  <time>2026-08-27T18:24:38Z</time>
  <course>314.36</course>
  <speed>0.0</speed>
  <fix>3d</fix>
</trkpt>
<trkpt lat="40.072842" lon="-105.230575">
  <ele>1586.17</ele>
  <time>2026-08-27T18:24:38Z</time>
  <course>11.26</course>
  <speed>0.0</speed>
  <fix>3d</fix>
</trkpt>
<trkpt lat="40.072842" lon="-105.230575">
  <ele>1586.09</ele>
  <time>2026-08-27T18:24:38Z</time>
  <course>318.71</course>
  <speed>0.0</speed>
  <fix>3d</fix>
</trkpt>
<trkpt lat="40.072842" lon="-105.230575">
  <ele>1586.17</ele>
  <time>2026-08-27T18:24:38Z</time>
  <course>11.25</course>
  <speed>0.0</speed>
  <fix>3d</fix>
</trkpt>
<trkpt lat="40.072842" lon="-105.230575">
  <ele>1586.09</ele>
  <time>2026-08-27T18:24:38Z</time>
  <course>317.29</course>
  <speed>0.0</speed>
  <fix>3d</fix>
</trkpt>
<trkpt lat="40.072842" lon="-105.230575">
  <ele>1586.17</ele>
  <time>2026-08-27T18:24:38Z</time>
  <course>11.24</course>
  <speed>0.0</speed>
  <fix>3d</fix>
</trkpt>
<trkpt lat="40.072842" lon="-105.230575">
  <ele>1586.09</ele>
  <time>2026-08-27T18:24:38Z</time>
  <course>316.96</course>
  <speed>0.0</speed>
  <fix>3d</fix>
</trkpt>
<trkpt lat="40.072842" lon="-105.230575">
  <ele>1586.17</ele>
  <time>2026-08-27T18:24:38Z</time>
  <course>11.24</course>
  <speed>0.0</speed>
  <fix>3d</fix>
</trkpt>
<trkpt lat="40.072842" lon="-105.230575">
  <ele>1586.09</ele>
  <time>2026-08-27T18:24:38Z</time>
  <course>317.18</course>
  <speed>0.0</speed>
  <fix>3d</fix>
</trkpt>
<trkpt lat="40.072842" lon="-105.230575">
  <ele>1586.17</ele>
  <time>2026-08-27T18:24:38Z</time>
  <course>11.23</course>
  <speed>0.0</speed>
  <fix>3d</fix>
</trkpt>
<trkpt lat="40.072842" lon="-105.230575">
  <ele>1586.09</ele>
  <time>2026-08-27T18:24:38Z</time>
  <course>317.2</course>
  <speed>0.0</speed>
  <fix>3d</fix>
</trkpt>
<trkpt lat="40.072842" lon="-105.230575">
  <ele>1586.17</ele>
  <time>2026-08-27T18:24:38Z</time>
  <course>11.23</course>
  <speed>0.0</speed>
  <fix>3d</fix>
</trkpt>
<trkpt lat="40.072842" lon="-105.230575">
  <ele>1586.09</ele>
  <time>2026-08-27T18:24:38Z</time>
  <course>317.17</course>
  <speed>0.0</speed>
  <fix>3d</fix>
</trkpt>
<trkpt lat="40.072842" lon="-105.230575">
  <ele>1586.17</ele>
  <time>2026-08-27T18:24:38Z</time>
  <course>11.22</course>
  <speed>0.0</speed>
  <fix>3d</fix>
</trkpt>
<trkpt lat="40.072842" lon="-105.230575">
  <ele>1586.09</ele>
  <time>2026-08-27T18:24:38Z</time>
  <course>317.17</course>
  <speed>0.0</speed>
  <fix>3d</fix>
</trkpt>
<trkpt lat="40.072842" lon="-105.230575">
  <ele>1586.17</ele>
  <time>2026-08-27T18:24:38Z</time>
  <course>11.22</course>
  <speed>0.0</speed>
  <fix>3d</fix>
</trkpt>
<trkpt lat="40.072842" lon="-105.230575">
  <ele>1586.09</ele>
  <time>2026-08-27T18:24:38Z</time>
  <course>317.17</course>
  <speed>0.0</speed>
  <fix>3d</fix>
</trkpt>
<trkpt lat="40.072842" lon="-105.230575">
  <ele>1586.17</ele>
  <time>2026-08-27T18:24:38Z</time>
  <course>11.21</course>
  <speed>0.0</speed>
  <fix>3d</fix>
</trkpt>
<trkpt lat="40.072842" lon="-105.230575">
  <ele>1586.09</ele>
  <time>2026-08-27T18:24:38Z</time>
  <course>317.17</course>
  <speed>0.0</speed>
  <fix>3d</fix>
</trkpt>
<trkpt lat="40.072842" lon="-105.230575">
  <ele>1586.17</ele>
  <time>2026-08-27T18:24:38Z</time>
  <course>11.21</course>
  <speed>0.0</speed>
  <fix>3d</fix>
</trkpt>
<trkpt lat="40.072842" lon="-105.230575">
  <ele>1586.09</ele>
  <time>2026-08-27T18:24:38Z</time>
  <course>317.17</course>
  <speed>0.0</speed>
  <fix>3d</fix>
</trkpt>
<trkpt lat="40.072842" lon="-105.230575">
  <ele>1586.17</ele>
  <time>2026-08-27T18:24:38Z</time>
  <course>11.2</course>
  <speed>0.0</speed>
  <fix>3d</fix>
</trkpt>
<trkpt lat="40.072842" lon="-105.230575">
  <ele>1586.09</ele>
  <time>2026-08-27T18:24:38Z</time>
  <course>317.17</course>
  <speed>0.0</speed>
  <fix>3d</fix>
</trkpt>
<trkpt lat="40.072842" lon="-105.230575">
  <ele>1586.17</ele>
  <time>2026-08-27T18:24:38Z</time>
  <course>11.19</course>
  <speed>0.0</speed>
  <fix>3d</fix>
</trkpt>
<trkpt lat="40.072842" lon="-105.230575">
  <ele>1586.09</ele>
  <time>2026-08-27T18:24:38Z</time>
  <course>317.17</course>
  <speed>0.0</speed>
  <fix>3d</fix>
</trkpt>
<trkpt lat="40.072842" lon="-105.230575">
  <ele>1586.17</ele>
  <time>2026-08-27T18:24:38Z</time>
  <course>11.19</course>
  <speed>0.0</speed>
  <fix>3d</fix>
</trkpt>
<trkpt lat="40.072842" lon="-105.230575">
  <ele>1586.09</ele>
  <time>2026-08-27T18:24:38Z</time>
  <course>317.17</course>
  <speed>0.0</speed>
  <fix>3d</fix>
</trkpt>
<trkpt lat="40.072842" lon="-105.230575">
  <ele>1586.17</ele>
  <time>2026-08-27T18:24:38Z</time>
  <course>11.18</course>
  <speed>0.0</speed>
  <fix>3d</fix>
</trkpt>
<trkpt lat="40.072842" lon="-105.230575">
  <ele>1586.09</ele>
  <time>2026-08-27T18:24:38Z</time>
  <course>317.17</course>
  <speed>0.0</speed>
  <fix>3d</fix>
</trkpt>
<trkpt lat="40.072842" lon="-105.230575">
  <ele>1586.17</ele>
  <time>2026-08-27T18:24:38Z</time>
  <course>11.18</course>
  <speed>0.0</speed>
  <fix>3d</fix>
</trkpt>
<trkpt lat="40.072842" lon="-105.230575">
  <ele>1586.09</ele>
  <time>2026-08-27T18:24:38Z</time>
  <course>317.17</course>
  <speed>0.0</speed>
  <fix>3d</fix>
</trkpt>
<trkpt lat="40.072842" lon="-105.230575">
  <ele>1586.17</ele>
  <time>2026-08-27T18:24:38Z</time>
  <course>11.17</course>
  <speed>0.0</speed>
  <fix>3d</fix>
</trkpt>
<trkpt lat="40.072842" lon="-105.230575">
  <ele>1586.09</ele>
  <time>2026-08-27T18:24:38Z</time>
  <course>317.17</course>
  <speed>0.0</speed>
  <fix>3d</fix>
</trkpt>
<trkpt lat="40.072842" lon="-105.230575">
  <ele>1586.16</ele>
  <time>2026-08-27T18:24:38Z</time>
  <course>11.16</course>
  <speed>0.0</speed>
  <fix>3d</fix>
</trkpt>
<trkpt lat="40.072842" lon="-105.230575">
  <ele>1586.09</ele>
  <time>2026-08-27T18:24:38Z</time>
  <course>317.17</course>
  <speed>0.0</speed>
  <fix>3d</fix>
</trkpt>
<trkpt lat="40.072842" lon="-105.230575">
  <ele>1586.16</ele>
  <time>2026-08-27T18:24:38Z</time>
  <course>11.16</course>
  <speed>0.0</speed>
  <fix>3d</fix>
</trkpt>
<trkpt lat="40.072842" lon="-105.230575">
  <ele>1586.09</ele>
  <time>2026-08-27T18:24:38Z</time>
  <course>317.17</course>
  <speed>0.0</speed>
  <fix>3d</fix>
</trkpt>
<trkpt lat="40.072842" lon="-105.230575">
  <ele>1586.16</ele>
  <time>2026-08-27T18:24:38Z</time>
  <course>11.15</course>
  <speed>0.0</speed>
  <fix>3d</fix>
</trkpt>
<trkpt lat="40.072842" lon="-105.230575">
  <ele>1586.09</ele>
  <time>2026-08-27T18:24:38Z</time>
  <course>317.17</course>
  <speed>0.0</speed>
  <fix>3d</fix>
</trkpt>
<trkpt lat="40.072842" lon="-105.230575">
  <ele>1586.16</ele>
  <time>2026-08-27T18:24:38Z</time>
  <course>11.15</course>
  <speed>0.0</speed>
  <fix>3d</fix>
</trkpt>
<trkpt lat="40.072842" lon="-105.230575">
  <ele>1586.09</ele>
  <time>2026-08-27T18:24:38Z</time>
  <course>317.17</course>
  <speed>0.0</speed>
  <fix>3d</fix>
</trkpt>
<trkpt lat="40.072842" lon="-105.230575">
  <ele>1586.16</ele>
  <time>2026-08-27T18:24:38Z</time>
  <course>11.14</course>
  <speed>0.0</speed>
  <fix>3d</fix>
</trkpt>
<trkpt lat="40.072842" lon="-105.230575">
  <ele>1586.09</ele>
  <time>2026-08-27T18:24:38Z</time>
  <course>317.17</course>
  <speed>0.0</speed>
  <fix>3d</fix>
</trkpt>
<trkpt lat="40.072842" lon="-105.230575">
  <ele>1586.16</ele>
  <time>2026-08-27T18:24:38Z</time>
  <course>11.13</course>
  <speed>0.0</speed>
  <fix>3d</fix>
</trkpt>
<trkpt lat="40.072842" lon="-105.230575">
  <ele>1586.09</ele>
  <time>2026-08-27T18:24:38Z</time>
  <course>317.17</course>
  <speed>0.0</speed>
  <fix>3d</fix>
</trkpt>
<trkpt lat="40.072842" lon="-105.230575">
  <ele>1586.16</ele>
  <time>2026-08-27T18:24:38Z</time>
  <course>11.13</course>
  <speed>0.0</speed>
  <fix>3d</fix>
</trkpt>
<trkpt lat="40.072842" lon="-105.230575">
  <ele>1586.09</ele>
  <time>2026-08-27T18:24:38Z</time>
  <course>317.17</course>
  <speed>0.0</speed>
  <fix>3d</fix>
</trkpt>
<trkpt lat="40.072842" lon="-105.230575">
  <ele>1586.16</ele>
  <time>2026-08-27T18:24:38Z</time>
  <course>11.12</course>
  <speed>0.0</speed>
  <fix>3d</fix>
</trkpt>
<trkpt lat="40.072842" lon="-105.230575">
  <ele>1586.09</ele>
  <time>2026-08-27T18:24:38Z</time>
  <course>317.17</course>
  <speed>0.0</speed>
  <fix>3d</fix>
</trkpt>
<trkpt lat="40.072842" lon="-105.230575">
  <ele>1586.16</ele>
  <time>2026-08-27T18:24:38Z</time>
  <course>11.12</course>
  <speed>0.0</speed>
  <fix>3d</fix>
</trkpt>
<trkpt lat="40.072842" lon="-105.230575">
  <ele>1586.09</ele>
  <time>2026-08-27T18:24:38Z</time>
  <course>317.17</course>
  <speed>0.0</speed>
  <fix>3d</fix>
</trkpt>
<trkpt lat="40.072842" lon="-105.230575">
  <ele>1586.15</ele>
  <time>2026-08-27T18:24:38Z</time>
  <course>11.11</course>
  <speed>0.0</speed>
  <fix>3d</fix>
</trkpt>
<trkpt lat="40.072842" lon="-105.230575">
  <ele>1586.09</ele>
  <time>2026-08-27T18:24:38Z</time>
  <course>317.17</course>
  <speed>0.0</speed>
  <fix>3d</fix>
</trkpt>
<trkpt lat="40.072842" lon="-105.230575">
  <ele>1586.16</ele>
  <time>2026-08-27T18:24:38Z</time>
  <course>11.1</course>
  <speed>0.0</speed>
  <fix>3d</fix>
</trkpt>
<trkpt lat="40.072842" lon="-105.230575">
  <ele>1586.09</ele>
  <time>2026-08-27T18:24:38Z</time>
  <course>317.17</course>
  <speed>0.0</speed>
  <fix>3d</fix>
</trkpt>
<trkpt lat="40.072842" lon="-105.230575">
  <ele>1586.16</ele>
  <time>2026-08-27T18:24:38Z</time>
  <course>11.1</course>
  <speed>0.0</speed>
  <fix>3d</fix>
</trkpt>
<trkpt lat="40.072842" lon="-105.230575">
  <ele>1586.09</ele>
  <time>2026-08-27T18:24:38Z</time>
  <course>317.17</course>
  <speed>0.0</speed>
  <fix>3d</fix>
</trkpt>
<trkpt lat="40.072842" lon="-105.230575">
  <ele>1586.16</ele>
  <time>2026-08-27T18:24:38Z</time>
  <course>11.09</course>
  <speed>0.0</speed>
  <fix>3d</fix>
</trkpt>
<trkpt lat="40.072842" lon="-105.230575">
  <ele>1586.09</ele>
  <time>2026-08-27T18:24:38Z</time>
  <course>317.17</course>
  <speed>0.0</speed>
  <fix>3d</fix>
</trkpt>
<trkpt lat="40.072842" lon="-105.230575">
  <ele>1586.16</ele>
  <time>2026-08-27T18:24:38Z</time>
  <course>11.09</course>
  <speed>0.0</speed>
  <fix>3d</fix>
</trkpt>
<trkpt lat="40.072842" lon="-105.230575">
  <ele>1586.09</ele>
  <time>2026-08-27T18:24:38Z</time>
  <course>317.17</course>
  <speed>0.0</speed>
  <fix>3d</fix>
</trkpt>
<trkpt lat="40.072842" lon="-105.230575">
  <ele>1586.17</ele>
  <time>2026-08-27T18:24:38Z</time>
  <course>11.08</course>
  <speed>0.0</speed>
  <fix>3d</fix>
</trkpt>
<trkpt lat="40.072842" lon="-105.230575">
  <ele>1586.09</ele>
  <time>2026-08-27T18:24:38Z</time>
  <course>317.17</course>
  <speed>0.0</speed>
  <fix>3d</fix>
</trkpt>
<trkpt lat="40.072842" lon="-105.230575">
  <ele>1586.17</ele>
  <time>2026-08-27T18:24:38Z</time>
  <course>11.07</course>
  <speed>0.0</speed>
  <fix>3d</fix>
</trkpt>
<trkpt lat="40.072842" lon="-105.230575">
  <ele>1586.09</ele>
  <time>2026-08-27T18:24:38Z</time>
  <course>317.17</course>
  <speed>0.0</speed>
  <fix>3d</fix>
</trkpt>
<trkpt lat="40.072842" lon="-105.230575">
  <ele>1586.17</ele>
  <time>2026-08-27T18:24:38Z</time>
  <course>11.07</course>
  <speed>0.0</speed>
  <fix>3d</fix>
</trkpt>
<trkpt lat="40.072842" lon="-105.230575">
  <ele>1586.09</ele>
  <time>2026-08-27T18:24:38Z</time>
  <course>317.17</course>
  <speed>0.0</speed>
  <fix>3d</fix>
</trkpt>
<trkpt lat="40.072842" lon="-105.230575">
  <ele>1586.17</ele>
  <time>2026-08-27T18:24:38Z</time>
  <course>11.06</course>
  <speed>0.0</speed>
  <fix>3d</fix>
</trkpt>
<trkpt lat="40.072842" lon="-105.230575">
  <ele>1586.09</ele>
  <time>2026-08-27T18:24:38Z</time>
  <course>317.17</course>
  <speed>0.0</speed>
  <fix>3d</fix>
</trkpt>
<trkpt lat="40.072842" lon="-105.230575">
  <ele>1586.17</ele>
  <time>2026-08-27T18:24:38Z</time>
  <course>11.05</course>
  <speed>0.0</speed>
  <fix>3d</fix>
</trkpt>
<trkpt lat="40.072842" lon="-105.230575">
  <ele>1586.09</ele>
  <time>2026-08-27T18:24:38Z</time>
  <course>317.17</course>
  <speed>0.0</speed>
  <fix>3d</fix>
</trkpt>
<trkpt lat="40.072842" lon="-105.230575">
  <ele>1586.17</ele>
  <time>2026-08-27T18:24:38Z</time>
  <course>11.05</course>
  <speed>0.01</speed>
  <fix>3d</fix>
</trkpt>
<trkpt lat="40.072842" lon="-105.230575">
  <ele>1586.09</ele>
  <time>2026-08-27T18:24:38Z</time>
  <course>317.17</course>
  <speed>0.0</speed>
  <fix>3d</fix>
</trkpt>
<trkpt lat="40.072842" lon="-105.230575">
  <ele>1586.17</ele>
  <time>2026-08-27T18:24:38Z</time>
  <course>11.04</course>
  <speed>0.01</speed>
  <fix>3d</fix>
</trkpt>
<trkpt lat="40.072842" lon="-105.230575">
  <ele>1586.09</ele>
  <time>2026-08-27T18:24:38Z</time>
  <course>317.17</course>
  <speed>0.0</speed>
  <fix>3d</fix>
</trkpt>
<trkpt lat="40.072842" lon="-105.230575">
  <ele>1586.18</ele>
  <time>2026-08-27T18:24:38Z</time>
  <course>11.04</course>
  <speed>0.01</speed>
  <fix>3d</fix>
</trkpt>
<trkpt lat="40.072842" lon="-105.230575">
  <ele>1586.09</ele>
  <time>2026-08-27T18:24:38Z</time>
  <course>317.17</course>
  <speed>0.0</speed>
  <fix>3d</fix>
</trkpt>
<trkpt lat="40.072842" lon="-105.230575">
  <ele>1586.18</ele>
  <time>2026-08-27T18:24:38Z</time>
  <course>11.03</course>
  <speed>0.01</speed>
  <fix>3d</fix>
</trkpt>
<trkpt lat="40.072842" lon="-105.230575">
  <ele>1586.09</ele>
  <time>2026-08-27T18:24:38Z</time>
  <course>317.17</course>
  <speed>0.0</speed>
  <fix>3d</fix>
</trkpt>
<trkpt lat="40.072842" lon="-105.230575">
  <ele>1586.18</ele>
  <time>2026-08-27T18:24:38Z</time>
  <course>11.02</course>
  <speed>0.01</speed>
  <fix>3d</fix>
</trkpt>
<trkpt lat="40.072842" lon="-105.230575">
  <ele>1586.09</ele>
  <time>2026-08-27T18:24:38Z</time>
  <course>317.17</course>
  <speed>0.0</speed>
  <fix>3d</fix>
</trkpt>
<trkpt lat="40.072842" lon="-105.230575">
  <ele>1586.18</ele>
  <time>2026-08-27T18:24:38Z</time>
  <course>11.02</course>
  <speed>0.01</speed>
  <fix>3d</fix>
</trkpt>
<trkpt lat="40.072842" lon="-105.230575">
  <ele>1586.09</ele>
  <time>2026-08-27T18:24:38Z</time>
  <course>317.17</course>
  <speed>0.0</speed>
  <fix>3d</fix>
</trkpt>
<trkpt lat="40.072842" lon="-105.230575">
  <ele>1586.18</ele>
  <time>2026-08-27T18:24:38Z</time>
  <course>11.01</course>
  <speed>0.01</speed>
  <fix>3d</fix>
</trkpt>
<trkpt lat="40.072842" lon="-105.230575">
  <ele>1586.09</ele>
  <time>2026-08-27T18:24:38Z</time>
  <course>317.17</course>
  <speed>0.0</speed>
  <fix>3d</fix>
</trkpt>
<trkpt lat="40.072842" lon="-105.230575">
  <ele>1586.18</ele>
  <time>2026-08-27T18:24:38Z</time>
  <course>11.0</course>
  <speed>0.01</speed>
  <fix>3d</fix>
</trkpt>
<trkpt lat="40.072842" lon="-105.230575">
  <ele>1586.09</ele>
  <time>2026-08-27T18:24:38Z</time>
  <course>317.17</course>
  <speed>0.0</speed>
  <fix>3d</fix>
</trkpt>
<trkpt lat="40.072842" lon="-105.230575">
  <ele>1586.18</ele>
  <time>2026-08-27T18:24:38Z</time>
  <course>11.0</course>
  <speed>0.01</speed>
  <fix>3d</fix>
</trkpt>
<trkpt lat="40.072842" lon="-105.230575">
  <ele>1586.09</ele>
  <time>2026-08-27T18:24:38Z</time>
  <course>317.17</course>
  <speed>0.0</speed>
  <fix>3d</fix>
</trkpt>
<trkpt lat="40.072842" lon="-105.230575">
  <ele>1586.18</ele>
  <time>2026-08-27T18:24:38Z</time>
  <course>10.99</course>
  <speed>0.01</speed>
  <fix>3d</fix>
</trkpt>
<trkpt lat="40.072842" lon="-105.230575">
  <ele>1586.09</ele>
  <time>2026-08-27T18:24:38Z</time>
  <course>317.17</course>
  <speed>0.0</speed>
  <fix>3d</fix>
</trkpt>
<trkpt lat="40.072842" lon="-105.230575">
  <ele>1586.18</ele>
  <time>2026-08-27T18:24:38Z</time>
  <course>10.98</course>
  <speed>0.01</speed>
  <fix>3d</fix>
</trkpt>
<trkpt lat="40.072842" lon="-105.230575">
  <ele>1586.09</ele>
  <time>2026-08-27T18:24:38Z</time>
  <course>317.17</course>
  <speed>0.0</speed>
  <fix>3d</fix>
</trkpt>
<trkpt lat="40.072842" lon="-105.230575">
  <ele>1586.18</ele>
  <time>2026-08-27T18:24:38Z</time>
  <course>10.98</course>
  <speed>0.01</speed>
  <fix>3d</fix>
</trkpt>
<trkpt lat="40.072842" lon="-105.230575">
  <ele>1586.09</ele>
  <time>2026-08-27T18:24:38Z</time>
  <course>317.17</course>
  <speed>0.0</speed>
  <fix>3d</fix>
</trkpt>
<trkpt lat="40.072842" lon="-105.230575">
  <ele>1586.18</ele>
  <time>2026-08-27T18:24:38Z</time>
  <course>10.97</course>
  <speed>0.01</speed>
  <fix>3d</fix>
</trkpt>
<trkpt lat="40.072842" lon="-105.230575">
  <ele>1586.09</ele>
  <time>2026-08-27T18:24:38Z</time>
  <course>317.17</course>
  <speed>0.0</speed>
  <fix>3d</fix>
</trkpt>
<trkpt lat="40.072842" lon="-105.230575">
  <ele>1586.18</ele>
  <time>2026-08-27T18:24:38Z</time>
  <course>10.96</course>
  <speed>0.01</speed>
  <fix>3d</fix>
</trkpt>
<trkpt lat="40.072842" lon="-105.230575">
  <ele>1586.09</ele>
  <time>2026-08-27T18:24:38Z</time>
  <course>317.17</course>
  <speed>0.0</speed>
  <fix>3d</fix>
</trkpt>
<trkpt lat="40.072842" lon="-105.230575">
  <ele>1586.18</ele>
  <time>2026-08-27T18:24:38Z</time>
  <course>10.96</course>
  <speed>0.01</speed>
  <fix>3d</fix>
</trkpt>
<trkpt lat="40.072842" lon="-105.230575">
  <ele>1586.09</ele>
  <time>2026-08-27T18:24:38Z</time>
  <course>317.17</course>
  <speed>0.0</speed>
  <fix>3d</fix>
</trkpt>
<trkpt lat="40.072842" lon="-105.230575">
  <ele>1586.18</ele>
  <time>2026-08-27T18:24:38Z</time>
  <course>10.95</course>
  <speed>0.01</speed>
  <fix>3d</fix>
</trkpt>
<trkpt lat="40.072842" lon="-105.230575">
  <ele>1586.09</ele>
  <time>2026-08-27T18:24:38Z</time>
  <course>317.17</course>
  <speed>0.0</speed>
  <fix>3d</fix>
</trkpt>
<trkpt lat="40.072842" lon="-105.230575">
  <ele>1586.18</ele>
  <time>2026-08-27T18:24:38Z</time>
  <course>10.95</course>
  <speed>0.01</speed>
  <fix>3d</fix>
</trkpt>
<trkpt lat="40.072842" lon="-105.230575">
  <ele>1586.09</ele>
  <time>2026-08-27T18:24:38Z</time>
  <course>317.17</course>
  <speed>0.0</speed>
  <fix>3d</fix>
</trkpt>
<trkpt lat="40.072842" lon="-105.230575">
  <ele>1586.18</ele>
  <time>2026-08-27T18:24:38Z</time>
  <course>10.94</course>
  <speed>0.01</speed>
  <fix>3d</fix>
</trkpt>
<trkpt lat="40.072842" lon="-105.230575">
  <ele>1586.09</ele>
  <time>2026-08-27T18:24:38Z</time>
  <course>317.17</course>
  <speed>0.0</speed>
  <fix>3d</fix>
</trkpt>
<trkpt lat="40.072842" lon="-105.230575">
  <ele>1586.18</ele>
  <time>2026-08-27T18:24:38Z</time>
  <course>10.93</course>
  <speed>0.01</speed>
  <fix>3d</fix>
</trkpt>
<trkpt lat="40.072842" lon="-105.230575">
  <ele>1586.09</ele>
  <time>2026-08-27T18:24:38Z</time>
  <course>317.17</course>
  <speed>0.0</speed>
  <fix>3d</fix>
</trkpt>
<trkpt lat="40.072842" lon="-105.230575">
  <ele>1586.18</ele>
  <time>2026-08-27T18:24:38Z</time>
  <course>10.93</course>
  <speed>0.01</speed>
  <fix>3d</fix>
</trkpt>
<trkpt lat="40.072842" lon="-105.230575">
  <ele>1586.09</ele>
  <time>2026-08-27T18:24:38Z</time>
  <course>317.17</course>
  <speed>0.0</speed>
  <fix>3d</fix>
</trkpt>
<trkpt lat="40.072842" lon="-105.230575">
  <ele>1586.18</ele>
  <time>2026-08-27T18:24:38Z</time>
  <course>10.92</course>
  <speed>0.01</speed>
  <fix>3d</fix>
</trkpt>
<trkpt lat="40.072842" lon="-105.230575">
  <ele>1586.09</ele>
  <time>2026-08-27T18:24:38Z</time>
  <course>317.17</course>
  <speed>0.0</speed>
  <fix>3d</fix>
</trkpt>
<trkpt lat="40.072842" lon="-105.230575">
  <ele>1586.18</ele>
  <time>2026-08-27T18:24:38Z</time>
  <course>10.91</course>
  <speed>0.01</speed>
  <fix>3d</fix>
</trkpt>
<trkpt lat="40.072842" lon="-105.230575">
  <ele>1586.09</ele>
  <time>2026-08-27T18:24:38Z</time>
  <course>317.17</course>
  <speed>0.0</speed>
  <fix>3d</fix>
</trkpt>
<trkpt lat="40.072842" lon="-105.230575">
  <ele>1586.18</ele>
  <time>2026-08-27T18:24:38Z</time>
  <course>10.91</course>
  <speed>0.01</speed>
  <fix>3d</fix>
</trkpt>
<trkpt lat="40.072842" lon="-105.230575">
  <ele>1586.09</ele>
  <time>2026-08-27T18:24:38Z</time>
  <course>317.17</course>
  <speed>0.0</speed>
  <fix>3d</fix>
</trkpt>
<trkpt lat="40.072842" lon="-105.230575">
  <ele>1586.18</ele>
  <time>2026-08-27T18:24:38Z</time>
  <course>10.9</course>
  <speed>0.01</speed>
  <fix>3d</fix>
</trkpt>
<trkpt lat="40.072842" lon="-105.230575">
  <ele>1586.09</ele>
  <time>2026-08-27T18:24:38Z</time>
  <course>317.17</course>
  <speed>0.0</speed>
  <fix>3d</fix>
</trkpt>
<trkpt lat="40.072842" lon="-105.230575">
  <ele>1586.18</ele>
  <time>2026-08-27T18:24:38Z</time>
  <course>10.89</course>
  <speed>0.01</speed>
  <fix>3d</fix>
</trkpt>
<trkpt lat="40.072842" lon="-105.230575">
  <ele>1586.09</ele>
  <time>2026-08-27T18:24:38Z</time>
  <course>317.17</course>
  <speed>0.0</speed>
  <fix>3d</fix>
</trkpt>
<trkpt lat="40.072842" lon="-105.230575">
  <ele>1586.19</ele>
  <time>2026-08-27T18:24:38Z</time>
  <course>10.89</course>
  <speed>0.01</speed>
  <fix>3d</fix>
</trkpt>
<trkpt lat="40.072842" lon="-105.230575">
  <ele>1586.09</ele>
  <time>2026-08-27T18:24:38Z</time>
  <course>317.17</course>
  <speed>0.0</speed>
  <fix>3d</fix>
</trkpt>
<trkpt lat="40.072842" lon="-105.230575">
  <ele>1586.19</ele>
  <time>2026-08-27T18:24:38Z</time>
  <course>10.88</course>
  <speed>0.01</speed>
  <fix>3d</fix>
</trkpt>
<trkpt lat="40.072842" lon="-105.230575">
  <ele>1586.09</ele>
  <time>2026-08-27T18:24:38Z</time>
  <course>317.17</course>
  <speed>0.0</speed>
  <fix>3d</fix>
</trkpt>
<trkpt lat="40.072842" lon="-105.230575">
  <ele>1586.19</ele>
  <time>2026-08-27T18:24:38Z</time>
  <course>10.87</course>
  <speed>0.01</speed>
  <fix>3d</fix>
</trkpt>
<trkpt lat="40.072842" lon="-105.230575">
  <ele>1586.09</ele>
  <time>2026-08-27T18:24:38Z</time>
  <course>317.17</course>
  <speed>0.0</speed>
  <fix>3d</fix>
</trkpt>
<trkpt lat="40.072842" lon="-105.230575">
  <ele>1586.19</ele>
  <time>2026-08-27T18:24:38Z</time>
  <course>10.87</course>
  <speed>0.01</speed>
  <fix>3d</fix>
</trkpt>
<trkpt lat="40.072842" lon="-105.230575">
  <ele>1586.09</ele>
  <time>2026-08-27T18:24:38Z</time>
  <course>185.14</course>
  <speed>0.0</speed>
  <fix>3d</fix>
</trkpt>
<trkpt lat="40.072842" lon="-105.230575">
  <ele>1586.19</ele>
  <time>2026-08-27T18:24:38Z</time>
  <course>10.86</course>
  <speed>0.01</speed>
  <fix>3d</fix>
</trkpt>
<trkpt lat="40.072842" lon="-105.230575">
  <ele>1586.09</ele>
  <time>2026-08-27T18:24:38Z</time>
  <course>179.22</course>
  <speed>0.0</speed>
  <fix>3d</fix>
</trkpt>
<trkpt lat="40.072842" lon="-105.230575">
  <ele>1586.19</ele>
  <time>2026-08-27T18:24:38Z</time>
  <course>10.85</course>
  <speed>0.01</speed>
  <fix>3d</fix>
</trkpt>
<trkpt lat="40.072842" lon="-105.230575">
  <ele>1586.09</ele>
  <time>2026-08-27T18:24:38Z</time>
  <course>164.26</course>
  <speed>0.0</speed>
  <fix>3d</fix>
</trkpt>
<trkpt lat="40.072842" lon="-105.230575">
  <ele>1586.19</ele>
  <time>2026-08-27T18:24:38Z</time>
  <course>10.85</course>
  <speed>0.01</speed>
  <fix>3d</fix>
</trkpt>
<trkpt lat="40.072842" lon="-105.230575">
  <ele>1586.09</ele>
  <time>2026-08-27T18:24:38Z</time>
  <course>345.74</course>
  <speed>0.0</speed>
  <fix>3d</fix>
</trkpt>
<trkpt lat="40.072842" lon="-105.230575">
  <ele>1586.19</ele>
  <time>2026-08-27T18:24:38Z</time>
  <course>10.84</course>
  <speed>0.01</speed>
  <fix>3d</fix>
</trkpt>
<trkpt lat="40.072842" lon="-105.230575">
  <ele>1586.09</ele>
  <time>2026-08-27T18:24:38Z</time>
  <course>290.61</course>
  <speed>0.0</speed>
  <fix>3d</fix>
</trkpt>
<trkpt lat="40.072842" lon="-105.230575">
  <ele>1586.19</ele>
  <time>2026-08-27T18:24:38Z</time>
  <course>10.83</course>
  <speed>0.01</speed>
  <fix>3d</fix>
</trkpt>
<trkpt lat="40.072842" lon="-105.230575">
  <ele>1586.09</ele>
  <time>2026-08-27T18:24:38Z</time>
  <course>263.75</course>
  <speed>0.0</speed>
  <fix>3d</fix>
</trkpt>
<trkpt lat="40.072842" lon="-105.230575">
  <ele>1586.19</ele>
  <time>2026-08-27T18:24:38Z</time>
  <course>10.83</course>
  <speed>0.01</speed>
  <fix>3d</fix>
</trkpt>
<trkpt lat="40.072842" lon="-105.230575">
  <ele>1586.09</ele>
  <time>2026-08-27T18:24:38Z</time>
  <course>293.39</course>
  <speed>0.0</speed>
  <fix>3d</fix>
</trkpt>
<trkpt lat="40.072842" lon="-105.230575">
  <ele>1586.18</ele>
  <time>2026-08-27T18:24:38Z</time>
  <course>10.82</course>
  <speed>0.01</speed>
  <fix>3d</fix>
</trkpt>
<trkpt lat="40.072842" lon="-105.230575">
  <ele>1586.09</ele>
  <time>2026-08-27T18:24:38Z</time>
  <course>293.32</course>
  <speed>0.0</speed>
  <fix>3d</fix>
</trkpt>
<trkpt lat="40.072842" lon="-105.230575">
  <ele>1586.18</ele>
  <time>2026-08-27T18:24:38Z</time>
  <course>10.81</course>
  <speed>0.01</speed>
  <fix>3d</fix>
</trkpt>
<trkpt lat="40.072842" lon="-105.230575">
  <ele>1586.09</ele>
  <time>2026-08-27T18:24:38Z</time>
  <course>289.85</course>
  <speed>0.0</speed>
  <fix>3d</fix>
</trkpt>
<trkpt lat="40.072842" lon="-105.230575">
  <ele>1586.17</ele>
  <time>2026-08-27T18:24:38Z</time>
  <course>10.81</course>
  <speed>0.01</speed>
  <fix>3d</fix>
</trkpt>
<trkpt lat="40.072842" lon="-105.230575">
  <ele>1586.09</ele>
  <time>2026-08-27T18:24:38Z</time>
  <course>290.27</course>
  <speed>0.0</speed>
  <fix>3d</fix>
</trkpt>
<trkpt lat="40.072842" lon="-105.230575">
  <ele>1586.17</ele>
  <time>2026-08-27T18:24:38Z</time>
  <course>10.8</course>
  <speed>0.01</speed>
  <fix>3d</fix>
</trkpt>
<trkpt lat="40.072842" lon="-105.230575">
  <ele>1586.09</ele>
  <time>2026-08-27T18:24:38Z</time>
  <course>290.69</course>
  <speed>0.0</speed>
  <fix>3d</fix>
</trkpt>
<trkpt lat="40.072842" lon="-105.230575">
  <ele>1586.17</ele>
  <time>2026-08-27T18:24:38Z</time>
  <course>10.79</course>
  <speed>0.01</speed>
  <fix>3d</fix>
</trkpt>
<trkpt lat="40.072842" lon="-105.230575">
  <ele>1586.09</ele>
  <time>2026-08-27T18:24:38Z</time>
  <course>290.59</course>
  <speed>0.0</speed>
  <fix>3d</fix>
</trkpt>
<trkpt lat="40.072842" lon="-105.230575">
  <ele>1586.17</ele>
  <time>2026-08-27T18:24:38Z</time>
  <course>10.79</course>
  <speed>0.01</speed>
  <fix>3d</fix>
</trkpt>
<trkpt lat="40.072842" lon="-105.230575">
  <ele>1586.09</ele>
  <time>2026-08-27T18:24:38Z</time>
  <course>290.54</course>
  <speed>0.0</speed>
  <fix>3d</fix>
</trkpt>
<trkpt lat="40.072842" lon="-105.230575">
  <ele>1586.17</ele>
  <time>2026-08-27T18:24:38Z</time>
  <course>10.78</course>
  <speed>0.01</speed>
  <fix>3d</fix>
</trkpt>
<trkpt lat="40.072842" lon="-105.230575">
  <ele>1586.09</ele>
  <time>2026-08-27T18:24:38Z</time>
  <course>290.56</course>
  <speed>0.0</speed>
  <fix>3d</fix>
</trkpt>
<trkpt lat="40.072842" lon="-105.230575">
  <ele>1586.17</ele>
  <time>2026-08-27T18:24:38Z</time>
  <course>10.77</course>
  <speed>0.01</speed>
  <fix>3d</fix>
</trkpt>
<trkpt lat="40.072842" lon="-105.230575">
  <ele>1586.09</ele>
  <time>2026-08-27T18:24:38Z</time>
  <course>290.56</course>
  <speed>0.0</speed>
  <fix>3d</fix>
</trkpt>
<trkpt lat="40.072842" lon="-105.230575">
  <ele>1586.17</ele>
  <time>2026-08-27T18:24:38Z</time>
  <course>10.77</course>
  <speed>0.01</speed>
  <fix>3d</fix>
</trkpt>
<trkpt lat="40.072842" lon="-105.230575">
  <ele>1586.09</ele>
  <time>2026-08-27T18:24:38Z</time>
  <course>290.56</course>
  <speed>0.0</speed>
  <fix>3d</fix>
</trkpt>
<trkpt lat="40.072842" lon="-105.230575">
  <ele>1586.17</ele>
  <time>2026-08-27T18:24:38Z</time>
  <course>10.76</course>
  <speed>0.01</speed>
  <fix>3d</fix>
</trkpt>
<trkpt lat="40.072842" lon="-105.230575">
  <ele>1586.09</ele>
  <time>2026-08-27T18:24:38Z</time>
  <course>290.56</course>
  <speed>0.0</speed>
  <fix>3d</fix>
</trkpt>
<trkpt lat="40.072842" lon="-105.230575">
  <ele>1586.17</ele>
  <time>2026-08-27T18:24:38Z</time>
  <course>10.75</course>
  <speed>0.01</speed>
  <fix>3d</fix>
</trkpt>
<trkpt lat="40.072842" lon="-105.230575">
  <ele>1586.09</ele>
  <time>2026-08-27T18:24:38Z</time>
  <course>290.56</course>
  <speed>0.0</speed>
  <fix>3d</fix>
</trkpt>
<trkpt lat="40.072842" lon="-105.230575">
  <ele>1586.17</ele>
  <time>2026-08-27T18:24:38Z</time>
  <course>10.75</course>
  <speed>0.01</speed>
  <fix>3d</fix>
</trkpt>
<trkpt lat="40.072842" lon="-105.230575">
  <ele>1586.09</ele>
  <time>2026-08-27T18:24:38Z</time>
  <course>290.56</course>
  <speed>0.0</speed>
  <fix>3d</fix>
</trkpt>
<trkpt lat="40.072842" lon="-105.230575">
  <ele>1586.16</ele>
  <time>2026-08-27T18:24:38Z</time>
  <course>10.74</course>
  <speed>0.01</speed>
  <fix>3d</fix>
</trkpt>
<trkpt lat="40.072842" lon="-105.230575">
  <ele>1586.09</ele>
  <time>2026-08-27T18:24:38Z</time>
  <course>290.56</course>
  <speed>0.0</speed>
  <fix>3d</fix>
</trkpt>
<trkpt lat="40.072842" lon="-105.230575">
  <ele>1586.16</ele>
  <time>2026-08-27T18:24:38Z</time>
  <course>10.73</course>
  <speed>0.01</speed>
  <fix>3d</fix>
</trkpt>
<trkpt lat="40.072842" lon="-105.230575">
  <ele>1586.09</ele>
  <time>2026-08-27T18:24:38Z</time>
  <course>191.6</course>
  <speed>0.0</speed>
  <fix>3d</fix>
</trkpt>
<trkpt lat="40.072842" lon="-105.230575">
  <ele>1586.16</ele>
  <time>2026-08-27T18:24:38Z</time>
  <course>10.73</course>
  <speed>0.01</speed>
  <fix>3d</fix>
</trkpt>
<trkpt lat="40.072842" lon="-105.230575">
  <ele>1586.09</ele>
  <time>2026-08-27T18:24:38Z</time>
  <course>205.97</course>
  <speed>0.0</speed>
  <fix>3d</fix>
</trkpt>
<trkpt lat="40.072842" lon="-105.230575">
  <ele>1586.16</ele>
  <time>2026-08-27T18:24:38Z</time>
  <course>10.72</course>
  <speed>0.01</speed>
  <fix>3d</fix>
</trkpt>
<trkpt lat="40.072842" lon="-105.230575">
  <ele>1586.09</ele>
  <time>2026-08-27T18:24:38Z</time>
  <course>193.91</course>
  <speed>0.0</speed>
  <fix>3d</fix>
</trkpt>
<trkpt lat="40.072842" lon="-105.230575">
  <ele>1586.16</ele>
  <time>2026-08-27T18:24:38Z</time>
  <course>10.71</course>
  <speed>0.01</speed>
  <fix>3d</fix>
</trkpt>
<trkpt lat="40.072842" lon="-105.230575">
  <ele>1586.09</ele>
  <time>2026-08-27T18:24:38Z</time>
  <course>164.28</course>
  <speed>0.0</speed>
  <fix>3d</fix>
</trkpt>
<trkpt lat="40.072842" lon="-105.230575">
  <ele>1586.16</ele>
  <time>2026-08-27T18:24:38Z</time>
  <course>10.71</course>
  <speed>0.01</speed>
  <fix>3d</fix>
</trkpt>
<trkpt lat="40.072842" lon="-105.230575">
  <ele>1586.09</ele>
  <time>2026-08-27T18:24:38Z</time>
  <course>9.42</course>
  <speed>0.0</speed>
  <fix>3d</fix>
</trkpt>
<trkpt lat="40.072842" lon="-105.230575">
  <ele>1586.16</ele>
  <time>2026-08-27T18:24:38Z</time>
  <course>10.7</course>
  <speed>0.01</speed>
  <fix>3d</fix>
</trkpt>
<trkpt lat="40.072842" lon="-105.230575">
  <ele>1586.09</ele>
  <time>2026-08-27T18:24:38Z</time>
  <course>273.82</course>
  <speed>0.0</speed>
  <fix>3d</fix>
</trkpt>
<trkpt lat="40.072842" lon="-105.230575">
  <ele>1586.16</ele>
  <time>2026-08-27T18:24:38Z</time>
  <course>10.69</course>
  <speed>0.01</speed>
  <fix>3d</fix>
</trkpt>
<trkpt lat="40.072842" lon="-105.230575">
  <ele>1586.09</ele>
  <time>2026-08-27T18:24:38Z</time>
  <course>227.18</course>
  <speed>0.0</speed>
  <fix>3d</fix>
</trkpt>
<trkpt lat="40.072842" lon="-105.230575">
  <ele>1586.16</ele>
  <time>2026-08-27T18:24:38Z</time>
  <course>10.69</course>
  <speed>0.01</speed>
  <fix>3d</fix>
</trkpt>
<trkpt lat="40.072842" lon="-105.230575">
  <ele>1586.09</ele>
  <time>2026-08-27T18:24:38Z</time>
  <course>241.97</course>
  <speed>0.0</speed>
  <fix>3d</fix>
</trkpt>
<trkpt lat="40.072842" lon="-105.230575">
  <ele>1586.16</ele>
  <time>2026-08-27T18:24:38Z</time>
  <course>10.68</course>
  <speed>0.01</speed>
  <fix>3d</fix>
</trkpt>
<trkpt lat="40.072842" lon="-105.230575">
  <ele>1586.09</ele>
  <time>2026-08-27T18:24:38Z</time>
  <course>248.78</course>
  <speed>0.0</speed>
  <fix>3d</fix>
</trkpt>
<trkpt lat="40.072842" lon="-105.230575">
  <ele>1586.16</ele>
  <time>2026-08-27T18:24:38Z</time>
  <course>10.67</course>
  <speed>0.01</speed>
  <fix>3d</fix>
</trkpt>
<trkpt lat="40.072842" lon="-105.230575">
  <ele>1586.09</ele>
  <time>2026-08-27T18:24:38Z</time>
  <course>244.98</course>
  <speed>0.0</speed>
  <fix>3d</fix>
</trkpt>
<trkpt lat="40.072842" lon="-105.230575">
  <ele>1586.16</ele>
  <time>2026-08-27T18:24:38Z</time>
  <course>10.67</course>
  <speed>0.01</speed>
  <fix>3d</fix>
</trkpt>
<trkpt lat="40.072842" lon="-105.230575">
  <ele>1586.09</ele>
  <time>2026-08-27T18:24:38Z</time>
  <course>244.56</course>
  <speed>0.0</speed>
  <fix>3d</fix>
</trkpt>
<trkpt lat="40.072842" lon="-105.230575">
  <ele>1586.15</ele>
  <time>2026-08-27T18:24:38Z</time>
  <course>10.66</course>
  <speed>0.01</speed>
  <fix>3d</fix>
</trkpt>
<trkpt lat="40.072842" lon="-105.230575">
  <ele>1586.09</ele>
  <time>2026-08-27T18:24:38Z</time>
  <course>245.1</course>
  <speed>0.0</speed>
  <fix>3d</fix>
</trkpt>
<trkpt lat="40.072842" lon="-105.230575">
  <ele>1586.15</ele>
  <time>2026-08-27T18:24:38Z</time>
  <course>10.65</course>
  <speed>0.01</speed>
  <fix>3d</fix>
</trkpt>
<trkpt lat="40.072842" lon="-105.230575">
  <ele>1586.09</ele>
  <time>2026-08-27T18:24:38Z</time>
  <course>245.09</course>
  <speed>0.0</speed>
  <fix>3d</fix>
</trkpt>
<trkpt lat="40.072842" lon="-105.230575">
  <ele>1586.15</ele>
  <time>2026-08-27T18:24:38Z</time>
  <course>10.65</course>
  <speed>0.01</speed>
  <fix>3d</fix>
</trkpt>
<trkpt lat="40.072842" lon="-105.230575">
  <ele>1586.09</ele>
  <time>2026-08-27T18:24:38Z</time>
  <course>245.02</course>
  <speed>0.0</speed>
  <fix>3d</fix>
</trkpt>
<trkpt lat="40.072842" lon="-105.230575">
  <ele>1586.16</ele>
  <time>2026-08-27T18:24:38Z</time>
  <course>10.64</course>
  <speed>0.01</speed>
  <fix>3d</fix>
</trkpt>
<trkpt lat="40.072842" lon="-105.230575">
  <ele>1586.09</ele>
  <time>2026-08-27T18:24:38Z</time>
  <course>245.03</course>
  <speed>0.0</speed>
  <fix>3d</fix>
</trkpt>
<trkpt lat="40.072842" lon="-105.230575">
  <ele>1586.16</ele>
  <time>2026-08-27T18:24:38Z</time>
  <course>10.64</course>
  <speed>0.01</speed>
  <fix>3d</fix>
</trkpt>
<trkpt lat="40.072842" lon="-105.230575">
  <ele>1586.09</ele>
  <time>2026-08-27T18:24:38Z</time>
  <course>245.04</course>
  <speed>0.0</speed>
  <fix>3d</fix>
</trkpt>
<trkpt lat="40.072842" lon="-105.230575">
  <ele>1586.16</ele>
  <time>2026-08-27T18:24:38Z</time>
  <course>10.63</course>
  <speed>0.01414213562373095</speed>
  <fix>3d</fix>
</trkpt>
<trkpt lat="40.072842" lon="-105.230575">
  <ele>1586.09</ele>
  <time>2026-08-27T18:24:38Z</time>
  <course>245.04</course>
  <speed>0.0</speed>
  <fix>3d</fix>
</trkpt>
<trkpt lat="40.072842" lon="-105.230575">
  <ele>1586.15</ele>
  <time>2026-08-27T18:24:38Z</time>
  <course>10.62</course>
  <speed>0.01414213562373095</speed>
  <fix>3d</fix>
</trkpt>
<trkpt lat="40.072842" lon="-105.230575">
  <ele>1586.09</ele>
  <time>2026-08-27T18:24:38Z</time>
  <course>245.04</course>
  <speed>0.0</speed>
  <fix>3d</fix>
</trkpt>
<trkpt lat="40.072842" lon="-105.230575">
  <ele>1586.16</ele>
  <time>2026-08-27T18:24:38Z</time>
  <course>10.61</course>
  <speed>0.01414213562373095</speed>
  <fix>3d</fix>
</trkpt>
<trkpt lat="40.072842" lon="-105.230575">
  <ele>1586.09</ele>
  <time>2026-08-27T18:24:38Z</time>
  <course>245.04</course>
  <speed>0.0</speed>
  <fix>3d</fix>
</trkpt>
<trkpt lat="40.072842" lon="-105.230575">
  <ele>1586.16</ele>
  <time>2026-08-27T18:24:39Z</time>
  <course>10.61</course>
  <speed>0.01414213562373095</speed>
  <fix>3d</fix>
</trkpt>
<trkpt lat="40.072842" lon="-105.230575">
  <ele>1586.09</ele>
  <time>2026-08-27T18:24:39Z</time>
  <course>245.04</course>
  <speed>0.0</speed>
  <fix>3d</fix>
</trkpt>
<trkpt lat="40.072842" lon="-105.230575">
  <ele>1586.16</ele>
  <time>2026-08-27T18:24:39Z</time>
  <course>10.6</course>
  <speed>0.01414213562373095</speed>
  <fix>3d</fix>
</trkpt>
<trkpt lat="40.072842" lon="-105.230575">
  <ele>1586.09</ele>
  <time>2026-08-27T18:24:39Z</time>
  <course>245.04</course>
  <speed>0.0</speed>
  <fix>3d</fix>
</trkpt>
<trkpt lat="40.072842" lon="-105.230575">
  <ele>1586.17</ele>
  <time>2026-08-27T18:24:39Z</time>
  <course>10.59</course>
  <speed>0.01414213562373095</speed>
  <fix>3d</fix>
</trkpt>
<trkpt lat="40.072842" lon="-105.230575">
  <ele>1586.09</ele>
  <time>2026-08-27T18:24:39Z</time>
  <course>245.04</course>
  <speed>0.0</speed>
  <fix>3d</fix>
</trkpt>
<trkpt lat="40.0728421" lon="-105.230575">
  <ele>1586.17</ele>
  <time>2026-08-27T18:24:39Z</time>
  <course>10.59</course>
  <speed>0.01414213562373095</speed>
  <fix>3d</fix>
</trkpt>
<trkpt lat="40.072842" lon="-105.230575">
  <ele>1586.09</ele>
  <time>2026-08-27T18:24:39Z</time>
  <course>245.04</course>
  <speed>0.0</speed>
  <fix>3d</fix>
</trkpt>
<trkpt lat="40.0728421" lon="-105.230575">
  <ele>1586.18</ele>
  <time>2026-08-27T18:24:39Z</time>
  <course>10.58</course>
  <speed>0.01414213562373095</speed>
  <fix>3d</fix>
</trkpt>
<trkpt lat="40.072842" lon="-105.230575">
  <ele>1586.09</ele>
  <time>2026-08-27T18:24:39Z</time>
  <course>245.04</course>
  <speed>0.0</speed>
  <fix>3d</fix>
</trkpt>
<trkpt lat="40.0728421" lon="-105.230575">
  <ele>1586.18</ele>
  <time>2026-08-27T18:24:39Z</time>
  <course>10.57</course>
  <speed>0.01414213562373095</speed>
  <fix>3d</fix>
</trkpt>
<trkpt lat="40.072842" lon="-105.230575">
  <ele>1586.09</ele>
  <time>2026-08-27T18:24:39Z</time>
  <course>245.04</course>
  <speed>0.0</speed>
  <fix>3d</fix>
</trkpt>
<trkpt lat="40.0728421" lon="-105.230575">
  <ele>1586.18</ele>
  <time>2026-08-27T18:24:39Z</time>
  <course>10.57</course>
  <speed>0.01414213562373095</speed>
  <fix>3d</fix>
</trkpt>
<trkpt lat="40.072842" lon="-105.230575">
  <ele>1586.09</ele>
  <time>2026-08-27T18:24:39Z</time>
  <course>245.04</course>
  <speed>0.0</speed>
  <fix>3d</fix>
</trkpt>
<trkpt lat="40.0728421" lon="-105.230575">
  <ele>1586.18</ele>
  <time>2026-08-27T18:24:39Z</time>
  <course>10.56</course>
  <speed>0.01414213562373095</speed>
  <fix>3d</fix>
</trkpt>
<trkpt lat="40.072842" lon="-105.230575">
  <ele>1586.09</ele>
  <time>2026-08-27T18:24:39Z</time>
  <course>245.04</course>
  <speed>0.0</speed>
  <fix>3d</fix>
</trkpt>
<trkpt lat="40.0728421" lon="-105.2305751">
  <ele>1586.19</ele>
  <time>2026-08-27T18:24:39Z</time>
  <course>10.55</course>
  <speed>0.01414213562373095</speed>
  <fix>3d</fix>
</trkpt>
<trkpt lat="40.072842" lon="-105.230575">
  <ele>1586.09</ele>
  <time>2026-08-27T18:24:39Z</time>
  <course>245.04</course>
  <speed>0.0</speed>
  <fix>3d</fix>
</trkpt>
<trkpt lat="40.0728421" lon="-105.2305751">
  <ele>1586.19</ele>
  <time>2026-08-27T18:24:39Z</time>
  <course>10.55</course>
  <speed>0.01414213562373095</speed>
  <fix>3d</fix>
</trkpt>
<trkpt lat="40.072842" lon="-105.230575">
  <ele>1586.09</ele>
  <time>2026-08-27T18:24:39Z</time>
  <course>245.04</course>
  <speed>0.0</speed>
  <fix>3d</fix>
</trkpt>
<trkpt lat="40.0728421" lon="-105.2305751">
  <ele>1586.19</ele>
  <time>2026-08-27T18:24:39Z</time>
  <course>10.54</course>
  <speed>0.01414213562373095</speed>
  <fix>3d</fix>
</trkpt>
<trkpt lat="40.072842" lon="-105.230575">
  <ele>1586.09</ele>
  <time>2026-08-27T18:24:39Z</time>
  <course>245.04</course>
  <speed>0.0</speed>
  <fix>3d</fix>
</trkpt>
<trkpt lat="40.0728421" lon="-105.2305751">
  <ele>1586.19</ele>
  <time>2026-08-27T18:24:39Z</time>
  <course>10.53</course>
  <speed>0.01414213562373095</speed>
  <fix>3d</fix>
</trkpt>
<trkpt lat="40.072842" lon="-105.230575">
  <ele>1586.09</ele>
  <time>2026-08-27T18:24:39Z</time>
  <course>245.04</course>
  <speed>0.0</speed>
  <fix>3d</fix>
</trkpt>
<trkpt lat="40.0728421" lon="-105.2305751">
  <ele>1586.19</ele>
  <time>2026-08-27T18:24:39Z</time>
  <course>10.53</course>
  <speed>0.01414213562373095</speed>
  <fix>3d</fix>
</trkpt>
<trkpt lat="40.072842" lon="-105.230575">
  <ele>1586.09</ele>
  <time>2026-08-27T18:24:39Z</time>
  <course>245.04</course>
  <speed>0.0</speed>
  <fix>3d</fix>
</trkpt>
<trkpt lat="40.0728421" lon="-105.2305751">
  <ele>1586.19</ele>
  <time>2026-08-27T18:24:39Z</time>
  <course>10.52</course>
  <speed>0.01414213562373095</speed>
  <fix>3d</fix>
</trkpt>
<trkpt lat="40.072842" lon="-105.230575">
  <ele>1586.09</ele>
  <time>2026-08-27T18:24:39Z</time>
  <course>245.04</course>
  <speed>0.0</speed>
  <fix>3d</fix>
</trkpt>
<trkpt lat="40.0728421" lon="-105.2305751">
  <ele>1586.19</ele>
  <time>2026-08-27T18:24:39Z</time>
  <course>10.51</course>
  <speed>0.01414213562373095</speed>
  <fix>3d</fix>
</trkpt>
<trkpt lat="40.072842" lon="-105.230575">
  <ele>1586.09</ele>
  <time>2026-08-27T18:24:39Z</time>
  <course>245.04</course>
  <speed>0.0</speed>
  <fix>3d</fix>
</trkpt>
<trkpt lat="40.0728421" lon="-105.2305751">
  <ele>1586.19</ele>
  <time>2026-08-27T18:24:39Z</time>
  <course>10.51</course>
  <speed>0.01414213562373095</speed>
  <fix>3d</fix>
</trkpt>
<trkpt lat="40.072842" lon="-105.230575">
  <ele>1586.09</ele>
  <time>2026-08-27T18:24:39Z</time>
  <course>245.04</course>
  <speed>0.0</speed>
  <fix>3d</fix>
</trkpt>
<trkpt lat="40.0728421" lon="-105.2305751">
  <ele>1586.19</ele>
  <time>2026-08-27T18:24:39Z</time>
  <course>10.5</course>
  <speed>0.01414213562373095</speed>
  <fix>3d</fix>
</trkpt>
<trkpt lat="40.072842" lon="-105.230575">
  <ele>1586.09</ele>
  <time>2026-08-27T18:24:39Z</time>
  <course>245.04</course>
  <speed>0.0</speed>
  <fix>3d</fix>
</trkpt>
<trkpt lat="40.0728421" lon="-105.2305751">
  <ele>1586.19</ele>
  <time>2026-08-27T18:24:39Z</time>
  <course>10.49</course>
  <speed>0.01414213562373095</speed>
  <fix>3d</fix>
</trkpt>
<trkpt lat="40.072842" lon="-105.230575">
  <ele>1586.09</ele>
  <time>2026-08-27T18:24:39Z</time>
  <course>245.04</course>
  <speed>0.0</speed>
  <fix>3d</fix>
</trkpt>
<trkpt lat="40.0728421" lon="-105.2305751">
  <ele>1586.19</ele>
  <time>2026-08-27T18:24:39Z</time>
  <course>10.49</course>
  <speed>0.01414213562373095</speed>
  <fix>3d</fix>
</trkpt>
<trkpt lat="40.072842" lon="-105.230575">
  <ele>1586.09</ele>
  <time>2026-08-27T18:24:39Z</time>
  <course>245.04</course>
  <speed>0.0</speed>
  <fix>3d</fix>
</trkpt>
<trkpt lat="40.0728421" lon="-105.2305751">
  <ele>1586.19</ele>
  <time>2026-08-27T18:24:39Z</time>
  <course>10.48</course>
  <speed>0.01414213562373095</speed>
  <fix>3d</fix>
</trkpt>
<trkpt lat="40.072842" lon="-105.230575">
  <ele>1586.09</ele>
  <time>2026-08-27T18:24:39Z</time>
  <course>245.04</course>
  <speed>0.0</speed>
  <fix>3d</fix>
</trkpt>
<trkpt lat="40.0728421" lon="-105.2305751">
  <ele>1586.18</ele>
  <time>2026-08-27T18:24:39Z</time>
  <course>10.47</course>
  <speed>0.01414213562373095</speed>
  <fix>3d</fix>
</trkpt>
<trkpt lat="40.072842" lon="-105.230575">
  <ele>1586.09</ele>
  <time>2026-08-27T18:24:39Z</time>
  <course>245.04</course>
  <speed>0.0</speed>
  <fix>3d</fix>
</trkpt>
<trkpt lat="40.0728421" lon="-105.2305751">
  <ele>1586.18</ele>
  <time>2026-08-27T18:24:39Z</time>
  <course>10.47</course>
  <speed>0.01414213562373095</speed>
  <fix>3d</fix>
</trkpt>
<trkpt lat="40.072842" lon="-105.230575">
  <ele>1586.09</ele>
  <time>2026-08-27T18:24:39Z</time>
  <course>245.04</course>
  <speed>0.0</speed>
  <fix>3d</fix>
</trkpt>
<trkpt lat="40.0728421" lon="-105.2305751">
  <ele>1586.18</ele>
  <time>2026-08-27T18:24:39Z</time>
  <course>10.46</course>
  <speed>0.01414213562373095</speed>
  <fix>3d</fix>
</trkpt>
<trkpt lat="40.072842" lon="-105.230575">
  <ele>1586.09</ele>
  <time>2026-08-27T18:24:39Z</time>
  <course>245.04</course>
  <speed>0.0</speed>
  <fix>3d</fix>
</trkpt>
<trkpt lat="40.0728421" lon="-105.2305751">
  <ele>1586.17</ele>
  <time>2026-08-27T18:24:39Z</time>
  <course>10.45</course>
  <speed>0.01414213562373095</speed>
  <fix>3d</fix>
</trkpt>
<trkpt lat="40.072842" lon="-105.230575">
  <ele>1586.09</ele>
  <time>2026-08-27T18:24:39Z</time>
  <course>245.04</course>
  <speed>0.0</speed>
  <fix>3d</fix>
</trkpt>
<trkpt lat="40.0728421" lon="-105.2305751">
  <ele>1586.17</ele>
  <time>2026-08-27T18:24:39Z</time>
  <course>10.45</course>
  <speed>0.01414213562373095</speed>
  <fix>3d</fix>
</trkpt>
<trkpt lat="40.072842" lon="-105.230575">
  <ele>1586.09</ele>
  <time>2026-08-27T18:24:39Z</time>
  <course>245.04</course>
  <speed>0.0</speed>
  <fix>3d</fix>
</trkpt>
<trkpt lat="40.0728421" lon="-105.2305751">
  <ele>1586.17</ele>
  <time>2026-08-27T18:24:39Z</time>
  <course>10.44</course>
  <speed>0.01414213562373095</speed>
  <fix>3d</fix>
</trkpt>
<trkpt lat="40.072842" lon="-105.230575">
  <ele>1586.09</ele>
  <time>2026-08-27T18:24:39Z</time>
  <course>245.04</course>
  <speed>0.0</speed>
  <fix>3d</fix>
</trkpt>
<trkpt lat="40.0728421" lon="-105.2305751">
  <ele>1586.17</ele>
  <time>2026-08-27T18:24:39Z</time>
  <course>10.43</course>
  <speed>0.01414213562373095</speed>
  <fix>3d</fix>
</trkpt>
<trkpt lat="40.072842" lon="-105.230575">
  <ele>1586.09</ele>
  <time>2026-08-27T18:24:39Z</time>
  <course>245.04</course>
  <speed>0.0</speed>
  <fix>3d</fix>
</trkpt>
<trkpt lat="40.0728421" lon="-105.2305751">
  <ele>1586.17</ele>
  <time>2026-08-27T18:24:39Z</time>
  <course>10.43</course>
  <speed>0.01414213562373095</speed>
  <fix>3d</fix>
</trkpt>
<trkpt lat="40.072842" lon="-105.230575">
  <ele>1586.09</ele>
  <time>2026-08-27T18:24:39Z</time>
  <course>245.04</course>
  <speed>0.0</speed>
  <fix>3d</fix>
</trkpt>
<trkpt lat="40.0728421" lon="-105.2305751">
  <ele>1586.16</ele>
  <time>2026-08-27T18:24:39Z</time>
  <course>10.42</course>
  <speed>0.01414213562373095</speed>
  <fix>3d</fix>
</trkpt>
<trkpt lat="40.072842" lon="-105.230575">
  <ele>1586.09</ele>
  <time>2026-08-27T18:24:39Z</time>
  <course>245.04</course>
  <speed>0.0</speed>
  <fix>3d</fix>
</trkpt>
<trkpt lat="40.0728421" lon="-105.2305751">
  <ele>1586.16</ele>
  <time>2026-08-27T18:24:39Z</time>
  <course>10.41</course>
  <speed>0.01414213562373095</speed>
  <fix>3d</fix>
</trkpt>
<trkpt lat="40.072842" lon="-105.230575">
  <ele>1586.09</ele>
  <time>2026-08-27T18:24:39Z</time>
  <course>245.04</course>
  <speed>0.0</speed>
  <fix>3d</fix>
</trkpt>
<trkpt lat="40.0728421" lon="-105.2305751">
  <ele>1586.16</ele>
  <time>2026-08-27T18:24:39Z</time>
  <course>10.41</course>
  <speed>0.01414213562373095</speed>
  <fix>3d</fix>
</trkpt>
<trkpt lat="40.072842" lon="-105.230575">
  <ele>1586.09</ele>
  <time>2026-08-27T18:24:39Z</time>
  <course>245.04</course>
  <speed>0.0</speed>
  <fix>3d</fix>
</trkpt>
<trkpt lat="40.0728421" lon="-105.2305751">
  <ele>1586.16</ele>
  <time>2026-08-27T18:24:39Z</time>
  <course>10.4</course>
  <speed>0.01414213562373095</speed>
  <fix>3d</fix>
</trkpt>
<trkpt lat="40.072842" lon="-105.230575">
  <ele>1586.09</ele>
  <time>2026-08-27T18:24:39Z</time>
  <course>245.04</course>
  <speed>0.0</speed>
  <fix>3d</fix>
</trkpt>
<trkpt lat="40.0728421" lon="-105.2305751">
  <ele>1586.16</ele>
  <time>2026-08-27T18:24:39Z</time>
  <course>10.39</course>
  <speed>0.01414213562373095</speed>
  <fix>3d</fix>
</trkpt>
<trkpt lat="40.072842" lon="-105.230575">
  <ele>1586.09</ele>
  <time>2026-08-27T18:24:39Z</time>
  <course>245.04</course>
  <speed>0.0</speed>
  <fix>3d</fix>
</trkpt>
<trkpt lat="40.0728421" lon="-105.2305751">
  <ele>1586.15</ele>
  <time>2026-08-27T18:24:39Z</time>
  <course>10.39</course>
  <speed>0.01414213562373095</speed>
  <fix>3d</fix>
</trkpt>
<trkpt lat="40.072842" lon="-105.230575">
  <ele>1586.09</ele>
  <time>2026-08-27T18:24:39Z</time>
  <course>245.04</course>
  <speed>0.0</speed>
  <fix>3d</fix>
</trkpt>
<trkpt lat="40.0728421" lon="-105.2305751">
  <ele>1586.15</ele>
  <time>2026-08-27T18:24:39Z</time>
  <course>10.38</course>
  <speed>0.01414213562373095</speed>
  <fix>3d</fix>
</trkpt>
<trkpt lat="40.072842" lon="-105.230575">
  <ele>1586.09</ele>
  <time>2026-08-27T18:24:39Z</time>
  <course>245.04</course>
  <speed>0.0</speed>
  <fix>3d</fix>
</trkpt>
<trkpt lat="40.0728421" lon="-105.2305751">
  <ele>1586.15</ele>
  <time>2026-08-27T18:24:39Z</time>
  <course>10.37</course>
  <speed>0.01414213562373095</speed>
  <fix>3d</fix>
</trkpt>
<trkpt lat="40.072842" lon="-105.230575">
  <ele>1586.09</ele>
  <time>2026-08-27T18:24:39Z</time>
  <course>245.04</course>
  <speed>0.0</speed>
  <fix>3d</fix>
</trkpt>
<trkpt lat="40.0728421" lon="-105.2305751">
  <ele>1586.15</ele>
  <time>2026-08-27T18:24:39Z</time>
  <course>10.37</course>
  <speed>0.01414213562373095</speed>
  <fix>3d</fix>
</trkpt>
<trkpt lat="40.072842" lon="-105.230575">
  <ele>1586.09</ele>
  <time>2026-08-27T18:24:39Z</time>
  <course>245.04</course>
  <speed>0.0</speed>
  <fix>3d</fix>
</trkpt>
<trkpt lat="40.0728421" lon="-105.2305751">
  <ele>1586.15</ele>
  <time>2026-08-27T18:24:39Z</time>
  <course>10.36</course>
  <speed>0.01414213562373095</speed>
  <fix>3d</fix>
</trkpt>
<trkpt lat="40.072842" lon="-105.230575">
  <ele>1586.09</ele>
  <time>2026-08-27T18:24:39Z</time>
  <course>245.04</course>
  <speed>0.0</speed>
  <fix>3d</fix>
</trkpt>
<trkpt lat="40.0728421" lon="-105.2305751">
  <ele>1586.15</ele>
  <time>2026-08-27T18:24:39Z</time>
  <course>10.35</course>
  <speed>0.01414213562373095</speed>
  <fix>3d</fix>
</trkpt>
<trkpt lat="40.072842" lon="-105.230575">
  <ele>1586.09</ele>
  <time>2026-08-27T18:24:39Z</time>
  <course>245.04</course>
  <speed>0.0</speed>
  <fix>3d</fix>
</trkpt>
<trkpt lat="40.0728421" lon="-105.2305751">
  <ele>1586.15</ele>
  <time>2026-08-27T18:24:39Z</time>
  <course>10.35</course>
  <speed>0.01414213562373095</speed>
  <fix>3d</fix>
</trkpt>
<trkpt lat="40.072842" lon="-105.230575">
  <ele>1586.09</ele>
  <time>2026-08-27T18:24:39Z</time>
  <course>245.04</course>
  <speed>0.0</speed>
  <fix>3d</fix>
</trkpt>
<trkpt lat="40.0728421" lon="-105.2305751">
  <ele>1586.16</ele>
  <time>2026-08-27T18:24:39Z</time>
  <course>10.34</course>
  <speed>0.01414213562373095</speed>
  <fix>3d</fix>
</trkpt>
<trkpt lat="40.072842" lon="-105.230575">
  <ele>1586.09</ele>
  <time>2026-08-27T18:24:39Z</time>
  <course>245.04</course>
  <speed>0.0</speed>
  <fix>3d</fix>
</trkpt>
<trkpt lat="40.0728421" lon="-105.2305751">
  <ele>1586.16</ele>
  <time>2026-08-27T18:24:39Z</time>
  <course>10.33</course>
  <speed>0.01414213562373095</speed>
  <fix>3d</fix>
</trkpt>
<trkpt lat="40.072842" lon="-105.230575">
  <ele>1586.09</ele>
  <time>2026-08-27T18:24:39Z</time>
  <course>245.04</course>
  <speed>0.0</speed>
  <fix>3d</fix>
</trkpt>
<trkpt lat="40.0728421" lon="-105.2305751">
  <ele>1586.16</ele>
  <time>2026-08-27T18:24:39Z</time>
  <course>10.33</course>
  <speed>0.01414213562373095</speed>
  <fix>3d</fix>
</trkpt>
<trkpt lat="40.072842" lon="-105.230575">
  <ele>1586.09</ele>
  <time>2026-08-27T18:24:39Z</time>
  <course>245.04</course>
  <speed>0.0</speed>
  <fix>3d</fix>
</trkpt>
<trkpt lat="40.0728421" lon="-105.2305751">
  <ele>1586.16</ele>
  <time>2026-08-27T18:24:39Z</time>
  <course>10.32</course>
  <speed>0.01414213562373095</speed>
  <fix>3d</fix>
</trkpt>
<trkpt lat="40.072842" lon="-105.230575">
  <ele>1586.09</ele>
  <time>2026-08-27T18:24:39Z</time>
  <course>245.04</course>
  <speed>0.0</speed>
  <fix>3d</fix>
</trkpt>
<trkpt lat="40.0728421" lon="-105.2305751">
  <ele>1586.16</ele>
  <time>2026-08-27T18:24:39Z</time>
  <course>10.32</course>
  <speed>0.01414213562373095</speed>
  <fix>3d</fix>
</trkpt>
<trkpt lat="40.072842" lon="-105.230575">
  <ele>1586.09</ele>
  <time>2026-08-27T18:24:39Z</time>
  <course>245.04</course>
  <speed>0.0</speed>
  <fix>3d</fix>
</trkpt>
<trkpt lat="40.0728421" lon="-105.2305751">
  <ele>1586.16</ele>
  <time>2026-08-27T18:24:39Z</time>
  <course>10.31</course>
  <speed>0.01414213562373095</speed>
  <fix>3d</fix>
</trkpt>
<trkpt lat="40.072842" lon="-105.230575">
  <ele>1586.09</ele>
  <time>2026-08-27T18:24:39Z</time>
  <course>245.04</course>
  <speed>0.0</speed>
  <fix>3d</fix>
</trkpt>
<trkpt lat="40.0728421" lon="-105.2305751">
  <ele>1586.16</ele>
  <time>2026-08-27T18:24:39Z</time>
  <course>10.3</course>
  <speed>0.01414213562373095</speed>
  <fix>3d</fix>
</trkpt>
<trkpt lat="40.072842" lon="-105.230575">
  <ele>1586.09</ele>
  <time>2026-08-27T18:24:39Z</time>
  <course>245.04</course>
  <speed>0.0</speed>
  <fix>3d</fix>
</trkpt>
<trkpt lat="40.0728421" lon="-105.2305751">
  <ele>1586.16</ele>
  <time>2026-08-27T18:24:39Z</time>
  <course>10.3</course>
  <speed>0.01414213562373095</speed>
  <fix>3d</fix>
</trkpt>
<trkpt lat="40.072842" lon="-105.230575">
  <ele>1586.09</ele>
  <time>2026-08-27T18:24:39Z</time>
  <course>245.04</course>
  <speed>0.0</speed>
  <fix>3d</fix>
</trkpt>
<trkpt lat="40.0728421" lon="-105.2305751">
  <ele>1586.16</ele>
  <time>2026-08-27T18:24:39Z</time>
  <course>10.29</course>
  <speed>0.01414213562373095</speed>
  <fix>3d</fix>
</trkpt>
<trkpt lat="40.072842" lon="-105.230575">
  <ele>1586.09</ele>
  <time>2026-08-27T18:24:39Z</time>
  <course>245.04</course>
  <speed>0.0</speed>
  <fix>3d</fix>
</trkpt>
<trkpt lat="40.0728421" lon="-105.2305751">
  <ele>1586.16</ele>
  <time>2026-08-27T18:24:39Z</time>
  <course>10.28</course>
  <speed>0.01414213562373095</speed>
  <fix>3d</fix>
</trkpt>
<trkpt lat="40.072842" lon="-105.230575">
  <ele>1586.09</ele>
  <time>2026-08-27T18:24:39Z</time>
  <course>245.04</course>
  <speed>0.0</speed>
  <fix>3d</fix>
</trkpt>
<trkpt lat="40.0728421" lon="-105.2305751">
  <ele>1586.15</ele>
  <time>2026-08-27T18:24:39Z</time>
  <course>10.28</course>
  <speed>0.01414213562373095</speed>
  <fix>3d</fix>
</trkpt>
<trkpt lat="40.072842" lon="-105.230575">
  <ele>1586.09</ele>
  <time>2026-08-27T18:24:39Z</time>
  <course>245.04</course>
  <speed>0.0</speed>
  <fix>3d</fix>
</trkpt>
<trkpt lat="40.0728421" lon="-105.2305751">
  <ele>1586.15</ele>
  <time>2026-08-27T18:24:39Z</time>
  <course>10.27</course>
  <speed>0.01414213562373095</speed>
  <fix>3d</fix>
</trkpt>
<trkpt lat="40.072842" lon="-105.230575">
  <ele>1586.09</ele>
  <time>2026-08-27T18:24:39Z</time>
  <course>245.04</course>
  <speed>0.0</speed>
  <fix>3d</fix>
</trkpt>
<trkpt lat="40.0728421" lon="-105.2305751">
  <ele>1586.15</ele>
  <time>2026-08-27T18:24:39Z</time>
  <course>10.26</course>
  <speed>0.01414213562373095</speed>
  <fix>3d</fix>
</trkpt>
<trkpt lat="40.072842" lon="-105.230575">
  <ele>1586.09</ele>
  <time>2026-08-27T18:24:39Z</time>
  <course>245.04</course>
  <speed>0.0</speed>
  <fix>3d</fix>
</trkpt>
<trkpt lat="40.0728421" lon="-105.2305751">
  <ele>1586.16</ele>
  <time>2026-08-27T18:24:39Z</time>
  <course>10.26</course>
  <speed>0.01414213562373095</speed>
  <fix>3d</fix>
</trkpt>
<trkpt lat="40.072842" lon="-105.230575">
  <ele>1586.09</ele>
  <time>2026-08-27T18:24:39Z</time>
  <course>245.04</course>
  <speed>0.0</speed>
  <fix>3d</fix>
</trkpt>
<trkpt lat="40.0728421" lon="-105.2305751">
  <ele>1586.16</ele>
  <time>2026-08-27T18:24:39Z</time>
  <course>10.25</course>
  <speed>0.01414213562373095</speed>
  <fix>3d</fix>
</trkpt>
<trkpt lat="40.072842" lon="-105.230575">
  <ele>1586.09</ele>
  <time>2026-08-27T18:24:39Z</time>
  <course>245.04</course>
  <speed>0.0</speed>
  <fix>3d</fix>
</trkpt>
<trkpt lat="40.0728421" lon="-105.2305751">
  <ele>1586.16</ele>
  <time>2026-08-27T18:24:39Z</time>
  <course>10.24</course>
  <speed>0.01414213562373095</speed>
  <fix>3d</fix>
</trkpt>
<trkpt lat="40.072842" lon="-105.230575">
  <ele>1586.09</ele>
  <time>2026-08-27T18:24:39Z</time>
  <course>245.04</course>
  <speed>0.0</speed>
  <fix>3d</fix>
</trkpt>
<trkpt lat="40.0728421" lon="-105.2305751">
  <ele>1586.17</ele>
  <time>2026-08-27T18:24:39Z</time>
  <course>10.24</course>
  <speed>0.01414213562373095</speed>
  <fix>3d</fix>
</trkpt>
<trkpt lat="40.072842" lon="-105.230575">
  <ele>1586.09</ele>
  <time>2026-08-27T18:24:39Z</time>
  <course>245.04</course>
  <speed>0.0</speed>
  <fix>3d</fix>
</trkpt>
<trkpt lat="40.0728421" lon="-105.2305751">
  <ele>1586.18</ele>
  <time>2026-08-27T18:24:39Z</time>
  <course>10.23</course>
  <speed>0.01414213562373095</speed>
  <fix>3d</fix>
</trkpt>
<trkpt lat="40.072842" lon="-105.230575">
  <ele>1586.09</ele>
  <time>2026-08-27T18:24:39Z</time>
  <course>245.04</course>
  <speed>0.0</speed>
  <fix>3d</fix>
</trkpt>
<trkpt lat="40.0728421" lon="-105.2305751">
  <ele>1586.18</ele>
  <time>2026-08-27T18:24:39Z</time>
  <course>10.23</course>
  <speed>0.01414213562373095</speed>
  <fix>3d</fix>
</trkpt>
<trkpt lat="40.072842" lon="-105.230575">
  <ele>1586.09</ele>
  <time>2026-08-27T18:24:39Z</time>
  <course>245.04</course>
  <speed>0.0</speed>
  <fix>3d</fix>
</trkpt>
<trkpt lat="40.0728421" lon="-105.2305751">
  <ele>1586.19</ele>
  <time>2026-08-27T18:24:39Z</time>
  <course>10.22</course>
  <speed>0.01414213562373095</speed>
  <fix>3d</fix>
</trkpt>
<trkpt lat="40.072842" lon="-105.230575">
  <ele>1586.09</ele>
  <time>2026-08-27T18:24:39Z</time>
  <course>245.04</course>
  <speed>0.0</speed>
  <fix>3d</fix>
</trkpt>
<trkpt lat="40.0728421" lon="-105.2305751">
  <ele>1586.19</ele>
  <time>2026-08-27T18:24:39Z</time>
  <course>10.21</course>
  <speed>0.01414213562373095</speed>
  <fix>3d</fix>
</trkpt>
<trkpt lat="40.072842" lon="-105.230575">
  <ele>1586.09</ele>
  <time>2026-08-27T18:24:39Z</time>
  <course>245.04</course>
  <speed>0.0</speed>
  <fix>3d</fix>
</trkpt>
<trkpt lat="40.0728421" lon="-105.2305751">
  <ele>1586.19</ele>
  <time>2026-08-27T18:24:39Z</time>
  <course>10.21</course>
  <speed>0.01414213562373095</speed>
  <fix>3d</fix>
</trkpt>
<trkpt lat="40.072842" lon="-105.230575">
  <ele>1586.09</ele>
  <time>2026-08-27T18:24:39Z</time>
  <course>245.04</course>
  <speed>0.0</speed>
  <fix>3d</fix>
</trkpt>
<trkpt lat="40.0728421" lon="-105.2305751">
  <ele>1586.2</ele>
  <time>2026-08-27T18:24:39Z</time>
  <course>10.2</course>
  <speed>0.01414213562373095</speed>
  <fix>3d</fix>
</trkpt>
<trkpt lat="40.072842" lon="-105.230575">
  <ele>1586.09</ele>
  <time>2026-08-27T18:24:39Z</time>
  <course>245.04</course>
  <speed>0.0</speed>
  <fix>3d</fix>
</trkpt>
<trkpt lat="40.0728421" lon="-105.2305751">
  <ele>1586.2</ele>
  <time>2026-08-27T18:24:39Z</time>
  <course>10.19</course>
  <speed>0.01414213562373095</speed>
  <fix>3d</fix>
</trkpt>
<trkpt lat="40.072842" lon="-105.230575">
  <ele>1586.09</ele>
  <time>2026-08-27T18:24:39Z</time>
  <course>245.04</course>
  <speed>0.0</speed>
  <fix>3d</fix>
</trkpt>
<trkpt lat="40.0728421" lon="-105.2305751">
  <ele>1586.2</ele>
  <time>2026-08-27T18:24:39Z</time>
  <course>10.19</course>
  <speed>0.01414213562373095</speed>
  <fix>3d</fix>
</trkpt>
<trkpt lat="40.072842" lon="-105.230575">
  <ele>1586.09</ele>
  <time>2026-08-27T18:24:39Z</time>
  <course>245.04</course>
  <speed>0.0</speed>
  <fix>3d</fix>
</trkpt>
<trkpt lat="40.0728421" lon="-105.2305751">
  <ele>1586.21</ele>
  <time>2026-08-27T18:24:39Z</time>
  <course>10.18</course>
  <speed>0.01414213562373095</speed>
  <fix>3d</fix>
</trkpt>
<trkpt lat="40.072842" lon="-105.230575">
  <ele>1586.09</ele>
  <time>2026-08-27T18:24:39Z</time>
  <course>245.04</course>
  <speed>0.0</speed>
  <fix>3d</fix>
</trkpt>
<trkpt lat="40.0728421" lon="-105.2305751">
  <ele>1586.21</ele>
  <time>2026-08-27T18:24:39Z</time>
  <course>10.18</course>
  <speed>0.01414213562373095</speed>
  <fix>3d</fix>
</trkpt>
<trkpt lat="40.072842" lon="-105.230575">
  <ele>1586.09</ele>
  <time>2026-08-27T18:24:39Z</time>
  <course>245.04</course>
  <speed>0.0</speed>
  <fix>3d</fix>
</trkpt>
<trkpt lat="40.0728421" lon="-105.2305751">
  <ele>1586.21</ele>
  <time>2026-08-27T18:24:39Z</time>
  <course>10.17</course>
  <speed>0.01414213562373095</speed>
  <fix>3d</fix>
</trkpt>
<trkpt lat="40.072842" lon="-105.230575">
  <ele>1586.09</ele>
  <time>2026-08-27T18:24:39Z</time>
  <course>245.04</course>
  <speed>0.0</speed>
  <fix>3d</fix>
</trkpt>
<trkpt lat="40.0728421" lon="-105.2305751">
  <ele>1586.2</ele>
  <time>2026-08-27T18:24:39Z</time>
  <course>10.16</course>
  <speed>0.01414213562373095</speed>
  <fix>3d</fix>
</trkpt>
<trkpt lat="40.072842" lon="-105.230575">
  <ele>1586.09</ele>
  <time>2026-08-27T18:24:39Z</time>
  <course>245.04</course>
  <speed>0.0</speed>
  <fix>3d</fix>
</trkpt>
<trkpt lat="40.0728421" lon="-105.2305751">
  <ele>1586.2</ele>
  <time>2026-08-27T18:24:39Z</time>
  <course>10.16</course>
  <speed>0.01414213562373095</speed>
  <fix>3d</fix>
</trkpt>
<trkpt lat="40.072842" lon="-105.230575">
  <ele>1586.09</ele>
  <time>2026-08-27T18:24:39Z</time>
  <course>245.04</course>
  <speed>0.0</speed>
  <fix>3d</fix>
</trkpt>
<trkpt lat="40.0728421" lon="-105.2305751">
  <ele>1586.19</ele>
  <time>2026-08-27T18:24:39Z</time>
  <course>10.15</course>
  <speed>0.01414213562373095</speed>
  <fix>3d</fix>
</trkpt>
<trkpt lat="40.072842" lon="-105.230575">
  <ele>1586.09</ele>
  <time>2026-08-27T18:24:39Z</time>
  <course>245.04</course>
  <speed>0.0</speed>
  <fix>3d</fix>
</trkpt>
<trkpt lat="40.0728421" lon="-105.2305751">
  <ele>1586.19</ele>
  <time>2026-08-27T18:24:39Z</time>
  <course>10.14</course>
  <speed>0.01414213562373095</speed>
  <fix>3d</fix>
</trkpt>
<trkpt lat="40.072842" lon="-105.230575">
  <ele>1586.09</ele>
  <time>2026-08-27T18:24:39Z</time>
  <course>245.04</course>
  <speed>0.0</speed>
  <fix>3d</fix>
</trkpt>
<trkpt lat="40.0728421" lon="-105.2305751">
  <ele>1586.2</ele>
  <time>2026-08-27T18:24:39Z</time>
  <course>10.14</course>
  <speed>0.01414213562373095</speed>
  <fix>3d</fix>
</trkpt>
<trkpt lat="40.072842" lon="-105.230575">
  <ele>1586.09</ele>
  <time>2026-08-27T18:24:39Z</time>
  <course>245.04</course>
  <speed>0.0</speed>
  <fix>3d</fix>
</trkpt>
<trkpt lat="40.0728421" lon="-105.2305751">
  <ele>1586.2</ele>
  <time>2026-08-27T18:24:39Z</time>
  <course>10.13</course>
  <speed>0.01414213562373095</speed>
  <fix>3d</fix>
</trkpt>
<trkpt lat="40.072842" lon="-105.230575">
  <ele>1586.09</ele>
  <time>2026-08-27T18:24:39Z</time>
  <course>245.04</course>
  <speed>0.0</speed>
  <fix>3d</fix>
</trkpt>
<trkpt lat="40.0728421" lon="-105.2305751">
  <ele>1586.2</ele>
  <time>2026-08-27T18:24:39Z</time>
  <course>10.13</course>
  <speed>0.01414213562373095</speed>
  <fix>3d</fix>
</trkpt>
<trkpt lat="40.072842" lon="-105.230575">
  <ele>1586.09</ele>
  <time>2026-08-27T18:24:39Z</time>
  <course>245.04</course>
  <speed>0.0</speed>
  <fix>3d</fix>
</trkpt>
<trkpt lat="40.0728421" lon="-105.2305751">
  <ele>1586.21</ele>
  <time>2026-08-27T18:24:39Z</time>
  <course>10.12</course>
  <speed>0.01414213562373095</speed>
  <fix>3d</fix>
</trkpt>
<trkpt lat="40.072842" lon="-105.230575">
  <ele>1586.09</ele>
  <time>2026-08-27T18:24:39Z</time>
  <course>245.04</course>
  <speed>0.0</speed>
  <fix>3d</fix>
</trkpt>
<trkpt lat="40.0728421" lon="-105.2305751">
  <ele>1586.21</ele>
  <time>2026-08-27T18:24:39Z</time>
  <course>10.11</course>
  <speed>0.01414213562373095</speed>
  <fix>3d</fix>
</trkpt>
<trkpt lat="40.072842" lon="-105.230575">
  <ele>1586.09</ele>
  <time>2026-08-27T18:24:39Z</time>
  <course>245.04</course>
  <speed>0.0</speed>
  <fix>3d</fix>
</trkpt>
<trkpt lat="40.0728421" lon="-105.2305751">
  <ele>1586.21</ele>
  <time>2026-08-27T18:24:39Z</time>
  <course>10.11</course>
  <speed>0.01414213562373095</speed>
  <fix>3d</fix>
</trkpt>
<trkpt lat="40.072842" lon="-105.230575">
  <ele>1586.09</ele>
  <time>2026-08-27T18:24:39Z</time>
  <course>245.04</course>
  <speed>0.0</speed>
  <fix>3d</fix>
</trkpt>
<trkpt lat="40.0728421" lon="-105.2305751">
  <ele>1586.2</ele>
  <time>2026-08-27T18:24:39Z</time>
  <course>10.1</course>
  <speed>0.01414213562373095</speed>
  <fix>3d</fix>
</trkpt>
<trkpt lat="40.072842" lon="-105.230575">
  <ele>1586.09</ele>
  <time>2026-08-27T18:24:39Z</time>
  <course>245.04</course>
  <speed>0.0</speed>
  <fix>3d</fix>
</trkpt>
<trkpt lat="40.0728421" lon="-105.2305751">
  <ele>1586.2</ele>
  <time>2026-08-27T18:24:39Z</time>
  <course>10.1</course>
  <speed>0.01414213562373095</speed>
  <fix>3d</fix>
</trkpt>
<trkpt lat="40.072842" lon="-105.230575">
  <ele>1586.09</ele>
  <time>2026-08-27T18:24:39Z</time>
  <course>245.04</course>
  <speed>0.0</speed>
  <fix>3d</fix>
</trkpt>
<trkpt lat="40.0728421" lon="-105.2305751">
  <ele>1586.2</ele>
  <time>2026-08-27T18:24:39Z</time>
  <course>10.09</course>
  <speed>0.01414213562373095</speed>
  <fix>3d</fix>
</trkpt>
<trkpt lat="40.072842" lon="-105.230575">
  <ele>1586.09</ele>
  <time>2026-08-27T18:24:39Z</time>
  <course>245.04</course>
  <speed>0.0</speed>
  <fix>3d</fix>
</trkpt>
<trkpt lat="40.0728421" lon="-105.2305751">
  <ele>1586.2</ele>
  <time>2026-08-27T18:24:39Z</time>
  <course>10.08</course>
  <speed>0.01414213562373095</speed>
  <fix>3d</fix>
</trkpt>
<trkpt lat="40.072842" lon="-105.230575">
  <ele>1586.09</ele>
  <time>2026-08-27T18:24:39Z</time>
  <course>245.04</course>
  <speed>0.0</speed>
  <fix>3d</fix>
</trkpt>
<trkpt lat="40.0728421" lon="-105.2305751">
  <ele>1586.2</ele>
  <time>2026-08-27T18:24:39Z</time>
  <course>10.08</course>
  <speed>0.01414213562373095</speed>
  <fix>3d</fix>
</trkpt>
<trkpt lat="40.072842" lon="-105.230575">
  <ele>1586.09</ele>
  <time>2026-08-27T18:24:39Z</time>
  <course>245.04</course>
  <speed>0.0</speed>
  <fix>3d</fix>
</trkpt>
<trkpt lat="40.0728421" lon="-105.2305751">
  <ele>1586.2</ele>
  <time>2026-08-27T18:24:39Z</time>
  <course>10.07</course>
  <speed>0.01414213562373095</speed>
  <fix>3d</fix>
</trkpt>
<trkpt lat="40.072842" lon="-105.230575">
  <ele>1586.09</ele>
  <time>2026-08-27T18:24:39Z</time>
  <course>245.04</course>
  <speed>0.0</speed>
  <fix>3d</fix>
</trkpt>
<trkpt lat="40.0728421" lon="-105.2305751">
  <ele>1586.2</ele>
  <time>2026-08-27T18:24:39Z</time>
  <course>10.07</course>
  <speed>0.01414213562373095</speed>
  <fix>3d</fix>
</trkpt>
<trkpt lat="40.072842" lon="-105.230575">
  <ele>1586.09</ele>
  <time>2026-08-27T18:24:39Z</time>
  <course>245.04</course>
  <speed>0.0</speed>
  <fix>3d</fix>
</trkpt>
<trkpt lat="40.0728421" lon="-105.2305751">
  <ele>1586.2</ele>
  <time>2026-08-27T18:24:39Z</time>
  <course>10.06</course>
  <speed>0.01414213562373095</speed>
  <fix>3d</fix>
</trkpt>
<trkpt lat="40.072842" lon="-105.230575">
  <ele>1586.09</ele>
  <time>2026-08-27T18:24:39Z</time>
  <course>245.04</course>
  <speed>0.0</speed>
  <fix>3d</fix>
</trkpt>
<trkpt lat="40.0728421" lon="-105.2305751">
  <ele>1586.19</ele>
  <time>2026-08-27T18:24:39Z</time>
  <course>10.05</course>
  <speed>0.01414213562373095</speed>
  <fix>3d</fix>
</trkpt>
<trkpt lat="40.072842" lon="-105.230575">
  <ele>1586.09</ele>
  <time>2026-08-27T18:24:39Z</time>
  <course>245.04</course>
  <speed>0.0</speed>
  <fix>3d</fix>
</trkpt>
<trkpt lat="40.0728421" lon="-105.2305751">
  <ele>1586.2</ele>
  <time>2026-08-27T18:24:39Z</time>
  <course>10.05</course>
  <speed>0.01414213562373095</speed>
  <fix>3d</fix>
</trkpt>
<trkpt lat="40.072842" lon="-105.230575">
  <ele>1586.09</ele>
  <time>2026-08-27T18:24:39Z</time>
  <course>245.04</course>
  <speed>0.0</speed>
  <fix>3d</fix>
</trkpt>
<trkpt lat="40.0728421" lon="-105.2305751">
  <ele>1586.2</ele>
  <time>2026-08-27T18:24:39Z</time>
  <course>10.04</course>
  <speed>0.01414213562373095</speed>
  <fix>3d</fix>
</trkpt>
<trkpt lat="40.072842" lon="-105.230575">
  <ele>1586.09</ele>
  <time>2026-08-27T18:24:39Z</time>
  <course>245.04</course>
  <speed>0.0</speed>
  <fix>3d</fix>
</trkpt>
<trkpt lat="40.0728421" lon="-105.2305751">
  <ele>1586.2</ele>
  <time>2026-08-27T18:24:39Z</time>
  <course>10.04</course>
  <speed>0.01414213562373095</speed>
  <fix>3d</fix>
</trkpt>
<trkpt lat="40.072842" lon="-105.230575">
  <ele>1586.09</ele>
  <time>2026-08-27T18:24:39Z</time>
  <course>245.04</course>
  <speed>0.0</speed>
  <fix>3d</fix>
</trkpt>
<trkpt lat="40.0728421" lon="-105.2305751">
  <ele>1586.19</ele>
  <time>2026-08-27T18:24:39Z</time>
  <course>10.03</course>
  <speed>0.01414213562373095</speed>
  <fix>3d</fix>
</trkpt>
<trkpt lat="40.072842" lon="-105.230575">
  <ele>1586.09</ele>
  <time>2026-08-27T18:24:39Z</time>
  <course>125.97</course>
  <speed>0.0</speed>
  <fix>3d</fix>
</trkpt>
<trkpt lat="40.0728421" lon="-105.2305751">
  <ele>1586.19</ele>
  <time>2026-08-27T18:24:39Z</time>
  <course>10.02</course>
  <speed>0.01414213562373095</speed>
  <fix>3d</fix>
</trkpt>
<trkpt lat="40.072842" lon="-105.230575">
  <ele>1586.09</ele>
  <time>2026-08-27T18:24:39Z</time>
  <course>21.88</course>
  <speed>0.0</speed>
  <fix>3d</fix>
</trkpt>
<trkpt lat="40.0728421" lon="-105.2305751">
  <ele>1586.19</ele>
  <time>2026-08-27T18:24:39Z</time>
  <course>10.02</course>
  <speed>0.01414213562373095</speed>
  <fix>3d</fix>
</trkpt>
<trkpt lat="40.072842" lon="-105.230575">
  <ele>1586.09</ele>
  <time>2026-08-27T18:24:39Z</time>
  <course>2.75</course>
  <speed>0.0</speed>
  <fix>3d</fix>
</trkpt>
<trkpt lat="40.0728421" lon="-105.2305751">
  <ele>1586.19</ele>
  <time>2026-08-27T18:24:39Z</time>
  <course>10.01</course>
  <speed>0.01414213562373095</speed>
  <fix>3d</fix>
</trkpt>
<trkpt lat="40.072842" lon="-105.230575">
  <ele>1586.09</ele>
  <time>2026-08-27T18:24:39Z</time>
  <course>311.28</course>
  <speed>0.0</speed>
  <fix>3d</fix>
</trkpt>
<trkpt lat="40.0728421" lon="-105.2305751">
  <ele>1586.18</ele>
  <time>2026-08-27T18:24:39Z</time>
  <course>10.01</course>
  <speed>0.01414213562373095</speed>
  <fix>3d</fix>
</trkpt>
<trkpt lat="40.072842" lon="-105.230575">
  <ele>1586.09</ele>
  <time>2026-08-27T18:24:39Z</time>
  <course>206.17</course>
  <speed>0.0</speed>
  <fix>3d</fix>
</trkpt>
<trkpt lat="40.0728421" lon="-105.2305751">
  <ele>1586.18</ele>
  <time>2026-08-27T18:24:39Z</time>
  <course>10.0</course>
  <speed>0.01414213562373095</speed>
  <fix>3d</fix>
</trkpt>
<trkpt lat="40.072842" lon="-105.230575">
  <ele>1586.09</ele>
  <time>2026-08-27T18:24:39Z</time>
  <course>291.57</course>
  <speed>0.0</speed>
  <fix>3d</fix>
</trkpt>
<trkpt lat="40.0728421" lon="-105.2305751">
  <ele>1586.18</ele>
  <time>2026-08-27T18:24:39Z</time>
  <course>9.99</course>
  <speed>0.01414213562373095</speed>
  <fix>3d</fix>
</trkpt>
<trkpt lat="40.072842" lon="-105.230575">
  <ele>1586.09</ele>
  <time>2026-08-27T18:24:39Z</time>
  <course>303.47</course>
  <speed>0.0</speed>
  <fix>3d</fix>
</trkpt>
<trkpt lat="40.0728421" lon="-105.2305751">
  <ele>1586.17</ele>
  <time>2026-08-27T18:24:39Z</time>
  <course>9.99</course>
  <speed>0.01414213562373095</speed>
  <fix>3d</fix>
</trkpt>
<trkpt lat="40.072842" lon="-105.230575">
  <ele>1586.09</ele>
  <time>2026-08-27T18:24:39Z</time>
  <course>277.1</course>
  <speed>0.0</speed>
  <fix>3d</fix>
</trkpt>
<trkpt lat="40.0728421" lon="-105.2305751">
  <ele>1586.17</ele>
  <time>2026-08-27T18:24:39Z</time>
  <course>9.98</course>
  <speed>0.01414213562373095</speed>
  <fix>3d</fix>
</trkpt>
<trkpt lat="40.072842" lon="-105.230575">
  <ele>1586.09</ele>
  <time>2026-08-27T18:24:39Z</time>
  <course>277.85</course>
  <speed>0.0</speed>
  <fix>3d</fix>
</trkpt>
<trkpt lat="40.0728421" lon="-105.2305751">
  <ele>1586.16</ele>
  <time>2026-08-27T18:24:39Z</time>
  <course>9.98</course>
  <speed>0.01414213562373095</speed>
  <fix>3d</fix>
</trkpt>
<trkpt lat="40.072842" lon="-105.230575">
  <ele>1586.09</ele>
  <time>2026-08-27T18:24:39Z</time>
  <course>281.69</course>
  <speed>0.0</speed>
  <fix>3d</fix>
</trkpt>
<trkpt lat="40.0728421" lon="-105.2305751">
  <ele>1586.16</ele>
  <time>2026-08-27T18:24:39Z</time>
  <course>9.97</course>
  <speed>0.01414213562373095</speed>
  <fix>3d</fix>
</trkpt>
<trkpt lat="40.072842" lon="-105.230575">
  <ele>1586.09</ele>
  <time>2026-08-27T18:24:39Z</time>
  <course>281.1</course>
  <speed>0.0</speed>
  <fix>3d</fix>
</trkpt>
<trkpt lat="40.0728421" lon="-105.2305751">
  <ele>1586.16</ele>
  <time>2026-08-27T18:24:39Z</time>
  <course>9.97</course>
  <speed>0.01414213562373095</speed>
  <fix>3d</fix>
</trkpt>
<trkpt lat="40.072842" lon="-105.230575">
  <ele>1586.09</ele>
  <time>2026-08-27T18:24:39Z</time>
  <course>280.66</course>
  <speed>0.0</speed>
  <fix>3d</fix>
</trkpt>
<trkpt lat="40.0728421" lon="-105.2305751">
  <ele>1586.16</ele>
  <time>2026-08-27T18:24:39Z</time>
  <course>9.96</course>
  <speed>0.01414213562373095</speed>
  <fix>3d</fix>
</trkpt>
<trkpt lat="40.072842" lon="-105.230575">
  <ele>1586.09</ele>
  <time>2026-08-27T18:24:39Z</time>
  <course>280.79</course>
  <speed>0.0</speed>
  <fix>3d</fix>
</trkpt>
<trkpt lat="40.0728421" lon="-105.2305751">
  <ele>1586.16</ele>
  <time>2026-08-27T18:24:39Z</time>
  <course>9.96</course>
  <speed>0.01414213562373095</speed>
  <fix>3d</fix>
</trkpt>
<trkpt lat="40.072842" lon="-105.230575">
  <ele>1586.09</ele>
  <time>2026-08-27T18:24:39Z</time>
  <course>280.84</course>
  <speed>0.0</speed>
  <fix>3d</fix>
</trkpt>
<trkpt lat="40.0728421" lon="-105.2305751">
  <ele>1586.15</ele>
  <time>2026-08-27T18:24:39Z</time>
  <course>9.95</course>
  <speed>0.01414213562373095</speed>
  <fix>3d</fix>
</trkpt>
<trkpt lat="40.072842" lon="-105.230575">
  <ele>1586.09</ele>
  <time>2026-08-27T18:24:39Z</time>
  <course>280.81</course>
  <speed>0.0</speed>
  <fix>3d</fix>
</trkpt>
<trkpt lat="40.0728421" lon="-105.2305751">
  <ele>1586.15</ele>
  <time>2026-08-27T18:24:39Z</time>
  <course>9.94</course>
  <speed>0.01414213562373095</speed>
  <fix>3d</fix>
</trkpt>
<trkpt lat="40.072842" lon="-105.230575">
  <ele>1586.09</ele>
  <time>2026-08-27T18:24:39Z</time>
  <course>280.81</course>
  <speed>0.0</speed>
  <fix>3d</fix>
</trkpt>
<trkpt lat="40.0728421" lon="-105.2305751">
  <ele>1586.15</ele>
  <time>2026-08-27T18:24:39Z</time>
  <course>9.94</course>
  <speed>0.01414213562373095</speed>
  <fix>3d</fix>
</trkpt>
<trkpt lat="40.072842" lon="-105.230575">
  <ele>1586.09</ele>
  <time>2026-08-27T18:24:39Z</time>
  <course>280.81</course>
  <speed>0.0</speed>
  <fix>3d</fix>
</trkpt>
<trkpt lat="40.0728421" lon="-105.2305751">
  <ele>1586.14</ele>
  <time>2026-08-27T18:24:39Z</time>
  <course>9.93</course>
  <speed>0.01414213562373095</speed>
  <fix>3d</fix>
</trkpt>
<trkpt lat="40.072842" lon="-105.230575">
  <ele>1586.09</ele>
  <time>2026-08-27T18:24:39Z</time>
  <course>280.81</course>
  <speed>0.0</speed>
  <fix>3d</fix>
</trkpt>
<trkpt lat="40.0728421" lon="-105.2305751">
  <ele>1586.15</ele>
  <time>2026-08-27T18:24:39Z</time>
  <course>9.93</course>
  <speed>0.01414213562373095</speed>
  <fix>3d</fix>
</trkpt>
<trkpt lat="40.072842" lon="-105.230575">
  <ele>1586.09</ele>
  <time>2026-08-27T18:24:39Z</time>
  <course>280.81</course>
  <speed>0.0</speed>
  <fix>3d</fix>
</trkpt>
<trkpt lat="40.0728421" lon="-105.2305751">
  <ele>1586.15</ele>
  <time>2026-08-27T18:24:39Z</time>
  <course>9.92</course>
  <speed>0.01414213562373095</speed>
  <fix>3d</fix>
</trkpt>
<trkpt lat="40.072842" lon="-105.230575">
  <ele>1586.09</ele>
  <time>2026-08-27T18:24:39Z</time>
  <course>280.81</course>
  <speed>0.0</speed>
  <fix>3d</fix>
</trkpt>
<trkpt lat="40.0728421" lon="-105.2305751">
  <ele>1586.15</ele>
  <time>2026-08-27T18:24:39Z</time>
  <course>9.91</course>
  <speed>0.01414213562373095</speed>
  <fix>3d</fix>
</trkpt>
<trkpt lat="40.072842" lon="-105.230575">
  <ele>1586.09</ele>
  <time>2026-08-27T18:24:39Z</time>
  <course>280.81</course>
  <speed>0.0</speed>
  <fix>3d</fix>
</trkpt>
<trkpt lat="40.0728421" lon="-105.2305751">
  <ele>1586.15</ele>
  <time>2026-08-27T18:24:39Z</time>
  <course>9.91</course>
  <speed>0.01414213562373095</speed>
  <fix>3d</fix>
</trkpt>
<trkpt lat="40.072842" lon="-105.230575">
  <ele>1586.09</ele>
  <time>2026-08-27T18:24:39Z</time>
  <course>280.81</course>
  <speed>0.0</speed>
  <fix>3d</fix>
</trkpt>
<trkpt lat="40.0728421" lon="-105.2305751">
  <ele>1586.15</ele>
  <time>2026-08-27T18:24:39Z</time>
  <course>9.9</course>
  <speed>0.01414213562373095</speed>
  <fix>3d</fix>
</trkpt>
<trkpt lat="40.072842" lon="-105.230575">
  <ele>1586.09</ele>
  <time>2026-08-27T18:24:39Z</time>
  <course>280.81</course>
  <speed>0.0</speed>
  <fix>3d</fix>
</trkpt>
<trkpt lat="40.0728421" lon="-105.2305751">
  <ele>1586.15</ele>
  <time>2026-08-27T18:24:39Z</time>
  <course>9.9</course>
  <speed>0.01414213562373095</speed>
  <fix>3d</fix>
</trkpt>
<trkpt lat="40.072842" lon="-105.230575">
  <ele>1586.09</ele>
  <time>2026-08-27T18:24:39Z</time>
  <course>280.81</course>
  <speed>0.0</speed>
  <fix>3d</fix>
</trkpt>
<trkpt lat="40.0728421" lon="-105.2305751">
  <ele>1586.15</ele>
  <time>2026-08-27T18:24:39Z</time>
  <course>9.89</course>
  <speed>0.01414213562373095</speed>
  <fix>3d</fix>
</trkpt>
<trkpt lat="40.072842" lon="-105.230575">
  <ele>1586.09</ele>
  <time>2026-08-27T18:24:39Z</time>
  <course>280.81</course>
  <speed>0.0</speed>
  <fix>3d</fix>
</trkpt>
<trkpt lat="40.0728421" lon="-105.2305751">
  <ele>1586.16</ele>
  <time>2026-08-27T18:24:39Z</time>
  <course>9.89</course>
  <speed>0.01414213562373095</speed>
  <fix>3d</fix>
</trkpt>
<trkpt lat="40.072842" lon="-105.230575">
  <ele>1586.09</ele>
  <time>2026-08-27T18:24:39Z</time>
  <course>280.81</course>
  <speed>0.0</speed>
  <fix>3d</fix>
</trkpt>
<trkpt lat="40.0728421" lon="-105.2305751">
  <ele>1586.16</ele>
  <time>2026-08-27T18:24:39Z</time>
  <course>9.88</course>
  <speed>0.01414213562373095</speed>
  <fix>3d</fix>
</trkpt>
<trkpt lat="40.072842" lon="-105.230575">
  <ele>1586.09</ele>
  <time>2026-08-27T18:24:39Z</time>
  <course>280.81</course>
  <speed>0.0</speed>
  <fix>3d</fix>
</trkpt>
<trkpt lat="40.0728421" lon="-105.2305751">
  <ele>1586.17</ele>
  <time>2026-08-27T18:24:39Z</time>
  <course>9.88</course>
  <speed>0.01414213562373095</speed>
  <fix>3d</fix>
</trkpt>
<trkpt lat="40.072842" lon="-105.230575">
  <ele>1586.09</ele>
  <time>2026-08-27T18:24:39Z</time>
  <course>280.81</course>
  <speed>0.0</speed>
  <fix>3d</fix>
</trkpt>
<trkpt lat="40.0728421" lon="-105.2305751">
  <ele>1586.17</ele>
  <time>2026-08-27T18:24:39Z</time>
  <course>9.87</course>
  <speed>0.01414213562373095</speed>
  <fix>3d</fix>
</trkpt>
<trkpt lat="40.072842" lon="-105.230575">
  <ele>1586.09</ele>
  <time>2026-08-27T18:24:39Z</time>
  <course>280.81</course>
  <speed>0.0</speed>
  <fix>3d</fix>
</trkpt>
<trkpt lat="40.0728421" lon="-105.2305751">
  <ele>1586.18</ele>
  <time>2026-08-27T18:24:39Z</time>
  <course>9.87</course>
  <speed>0.01414213562373095</speed>
  <fix>3d</fix>
</trkpt>
<trkpt lat="40.072842" lon="-105.230575">
  <ele>1586.09</ele>
  <time>2026-08-27T18:24:39Z</time>
  <course>280.81</course>
  <speed>0.0</speed>
  <fix>3d</fix>
</trkpt>
<trkpt lat="40.0728421" lon="-105.2305751">
  <ele>1586.18</ele>
  <time>2026-08-27T18:24:39Z</time>
  <course>9.86</course>
  <speed>0.01414213562373095</speed>
  <fix>3d</fix>
</trkpt>
<trkpt lat="40.072842" lon="-105.230575">
  <ele>1586.09</ele>
  <time>2026-08-27T18:24:39Z</time>
  <course>280.81</course>
  <speed>0.0</speed>
  <fix>3d</fix>
</trkpt>
<trkpt lat="40.0728421" lon="-105.2305751">
  <ele>1586.18</ele>
  <time>2026-08-27T18:24:39Z</time>
  <course>9.85</course>
  <speed>0.01414213562373095</speed>
  <fix>3d</fix>
</trkpt>
<trkpt lat="40.072842" lon="-105.230575">
  <ele>1586.09</ele>
  <time>2026-08-27T18:24:39Z</time>
  <course>280.81</course>
  <speed>0.0</speed>
  <fix>3d</fix>
</trkpt>
<trkpt lat="40.0728421" lon="-105.2305751">
  <ele>1586.18</ele>
  <time>2026-08-27T18:24:39Z</time>
  <course>9.85</course>
  <speed>0.01414213562373095</speed>
  <fix>3d</fix>
</trkpt>
<trkpt lat="40.072842" lon="-105.230575">
  <ele>1586.09</ele>
  <time>2026-08-27T18:24:39Z</time>
  <course>280.81</course>
  <speed>0.0</speed>
  <fix>3d</fix>
</trkpt>
<trkpt lat="40.0728421" lon="-105.2305751">
  <ele>1586.18</ele>
  <time>2026-08-27T18:24:39Z</time>
  <course>9.84</course>
  <speed>0.01414213562373095</speed>
  <fix>3d</fix>
</trkpt>
<trkpt lat="40.072842" lon="-105.230575">
  <ele>1586.09</ele>
  <time>2026-08-27T18:24:39Z</time>
  <course>280.81</course>
  <speed>0.0</speed>
  <fix>3d</fix>
</trkpt>
<trkpt lat="40.0728421" lon="-105.2305751">
  <ele>1586.17</ele>
  <time>2026-08-27T18:24:39Z</time>
  <course>9.84</course>
  <speed>0.01414213562373095</speed>
  <fix>3d</fix>
</trkpt>
<trkpt lat="40.072842" lon="-105.230575">
  <ele>1586.09</ele>
  <time>2026-08-27T18:24:39Z</time>
  <course>280.81</course>
  <speed>0.0</speed>
  <fix>3d</fix>
</trkpt>
<trkpt lat="40.0728421" lon="-105.2305751">
  <ele>1586.17</ele>
  <time>2026-08-27T18:24:39Z</time>
  <course>9.83</course>
  <speed>0.01414213562373095</speed>
  <fix>3d</fix>
</trkpt>
<trkpt lat="40.072842" lon="-105.230575">
  <ele>1586.09</ele>
  <time>2026-08-27T18:24:39Z</time>
  <course>280.81</course>
  <speed>0.0</speed>
  <fix>3d</fix>
</trkpt>
<trkpt lat="40.0728421" lon="-105.2305751">
  <ele>1586.17</ele>
  <time>2026-08-27T18:24:39Z</time>
  <course>9.83</course>
  <speed>0.01414213562373095</speed>
  <fix>3d</fix>
</trkpt>
<trkpt lat="40.072842" lon="-105.230575">
  <ele>1586.09</ele>
  <time>2026-08-27T18:24:39Z</time>
  <course>280.81</course>
  <speed>0.0</speed>
  <fix>3d</fix>
</trkpt>
<trkpt lat="40.0728421" lon="-105.2305751">
  <ele>1586.17</ele>
  <time>2026-08-27T18:24:40Z</time>
  <course>9.82</course>
  <speed>0.01414213562373095</speed>
  <fix>3d</fix>
</trkpt>
<trkpt lat="40.072842" lon="-105.230575">
  <ele>1586.09</ele>
  <time>2026-08-27T18:24:40Z</time>
  <course>280.81</course>
  <speed>0.0</speed>
  <fix>3d</fix>
</trkpt>
<trkpt lat="40.0728421" lon="-105.2305751">
  <ele>1586.17</ele>
  <time>2026-08-27T18:24:40Z</time>
  <course>9.82</course>
  <speed>0.01414213562373095</speed>
  <fix>3d</fix>
</trkpt>
<trkpt lat="40.072842" lon="-105.230575">
  <ele>1586.09</ele>
  <time>2026-08-27T18:24:40Z</time>
  <course>280.81</course>
  <speed>0.0</speed>
  <fix>3d</fix>
</trkpt>
<trkpt lat="40.0728421" lon="-105.2305751">
  <ele>1586.17</ele>
  <time>2026-08-27T18:24:40Z</time>
  <course>9.81</course>
  <speed>0.01414213562373095</speed>
  <fix>3d</fix>
</trkpt>
<trkpt lat="40.072842" lon="-105.230575">
  <ele>1586.09</ele>
  <time>2026-08-27T18:24:40Z</time>
  <course>280.81</course>
  <speed>0.0</speed>
  <fix>3d</fix>
</trkpt>
<trkpt lat="40.0728421" lon="-105.2305751">
  <ele>1586.17</ele>
  <time>2026-08-27T18:24:40Z</time>
  <course>9.81</course>
  <speed>0.01414213562373095</speed>
  <fix>3d</fix>
</trkpt>
<trkpt lat="40.072842" lon="-105.230575">
  <ele>1586.09</ele>
  <time>2026-08-27T18:24:40Z</time>
  <course>280.81</course>
  <speed>0.0</speed>
  <fix>3d</fix>
</trkpt>
<trkpt lat="40.0728421" lon="-105.2305751">
  <ele>1586.17</ele>
  <time>2026-08-27T18:24:40Z</time>
  <course>9.8</course>
  <speed>0.01414213562373095</speed>
  <fix>3d</fix>
</trkpt>
<trkpt lat="40.072842" lon="-105.230575">
  <ele>1586.09</ele>
  <time>2026-08-27T18:24:40Z</time>
  <course>280.81</course>
  <speed>0.0</speed>
  <fix>3d</fix>
</trkpt>
<trkpt lat="40.0728421" lon="-105.2305751">
  <ele>1586.17</ele>
  <time>2026-08-27T18:24:40Z</time>
  <course>9.8</course>
  <speed>0.01414213562373095</speed>
  <fix>3d</fix>
</trkpt>
<trkpt lat="40.072842" lon="-105.230575">
  <ele>1586.09</ele>
  <time>2026-08-27T18:24:40Z</time>
  <course>280.81</course>
  <speed>0.0</speed>
  <fix>3d</fix>
</trkpt>
<trkpt lat="40.0728421" lon="-105.2305751">
  <ele>1586.17</ele>
  <time>2026-08-27T18:24:40Z</time>
  <course>9.79</course>
  <speed>0.01414213562373095</speed>
  <fix>3d</fix>
</trkpt>
<trkpt lat="40.072842" lon="-105.230575">
  <ele>1586.09</ele>
  <time>2026-08-27T18:24:40Z</time>
  <course>280.81</course>
  <speed>0.0</speed>
  <fix>3d</fix>
</trkpt>
<trkpt lat="40.0728421" lon="-105.2305751">
  <ele>1586.17</ele>
  <time>2026-08-27T18:24:40Z</time>
  <course>9.78</course>
  <speed>0.01414213562373095</speed>
  <fix>3d</fix>
</trkpt>
<trkpt lat="40.072842" lon="-105.230575">
  <ele>1586.09</ele>
  <time>2026-08-27T18:24:40Z</time>
  <course>280.81</course>
  <speed>0.0</speed>
  <fix>3d</fix>
</trkpt>
<trkpt lat="40.0728421" lon="-105.2305751">
  <ele>1586.18</ele>
  <time>2026-08-27T18:24:40Z</time>
  <course>9.78</course>
  <speed>0.01414213562373095</speed>
  <fix>3d</fix>
</trkpt>
<trkpt lat="40.072842" lon="-105.230575">
  <ele>1586.09</ele>
  <time>2026-08-27T18:24:40Z</time>
  <course>280.81</course>
  <speed>0.0</speed>
  <fix>3d</fix>
</trkpt>
<trkpt lat="40.0728421" lon="-105.2305751">
  <ele>1586.17</ele>
  <time>2026-08-27T18:24:40Z</time>
  <course>9.77</course>
  <speed>0.01414213562373095</speed>
  <fix>3d</fix>
</trkpt>
<trkpt lat="40.072842" lon="-105.230575">
  <ele>1586.09</ele>
  <time>2026-08-27T18:24:40Z</time>
  <course>280.81</course>
  <speed>0.0</speed>
  <fix>3d</fix>
</trkpt>
<trkpt lat="40.0728421" lon="-105.2305751">
  <ele>1586.17</ele>
  <time>2026-08-27T18:24:40Z</time>
  <course>9.77</course>
  <speed>0.01414213562373095</speed>
  <fix>3d</fix>
</trkpt>
<trkpt lat="40.072842" lon="-105.230575">
  <ele>1586.09</ele>
  <time>2026-08-27T18:24:40Z</time>
  <course>280.81</course>
  <speed>0.0</speed>
  <fix>3d</fix>
</trkpt>
<trkpt lat="40.0728421" lon="-105.2305751">
  <ele>1586.17</ele>
  <time>2026-08-27T18:24:40Z</time>
  <course>9.76</course>
  <speed>0.01414213562373095</speed>
  <fix>3d</fix>
</trkpt>
<trkpt lat="40.072842" lon="-105.230575">
  <ele>1586.09</ele>
  <time>2026-08-27T18:24:40Z</time>
  <course>280.81</course>
  <speed>0.0</speed>
  <fix>3d</fix>
</trkpt>
<trkpt lat="40.0728421" lon="-105.2305751">
  <ele>1586.17</ele>
  <time>2026-08-27T18:24:40Z</time>
  <course>9.76</course>
  <speed>0.01414213562373095</speed>
  <fix>3d</fix>
</trkpt>
<trkpt lat="40.072842" lon="-105.230575">
  <ele>1586.09</ele>
  <time>2026-08-27T18:24:40Z</time>
  <course>280.81</course>
  <speed>0.0</speed>
  <fix>3d</fix>
</trkpt>
<trkpt lat="40.0728421" lon="-105.2305751">
  <ele>1586.17</ele>
  <time>2026-08-27T18:24:40Z</time>
  <course>9.75</course>
  <speed>0.01414213562373095</speed>
  <fix>3d</fix>
</trkpt>
<trkpt lat="40.072842" lon="-105.230575">
  <ele>1586.09</ele>
  <time>2026-08-27T18:24:40Z</time>
  <course>280.81</course>
  <speed>0.0</speed>
  <fix>3d</fix>
</trkpt>
<trkpt lat="40.0728421" lon="-105.2305751">
  <ele>1586.17</ele>
  <time>2026-08-27T18:24:40Z</time>
  <course>9.75</course>
  <speed>0.01414213562373095</speed>
  <fix>3d</fix>
</trkpt>
<trkpt lat="40.072842" lon="-105.230575">
  <ele>1586.09</ele>
  <time>2026-08-27T18:24:40Z</time>
  <course>280.81</course>
  <speed>0.0</speed>
  <fix>3d</fix>
</trkpt>
<trkpt lat="40.0728421" lon="-105.2305751">
  <ele>1586.17</ele>
  <time>2026-08-27T18:24:40Z</time>
  <course>9.74</course>
  <speed>0.01414213562373095</speed>
  <fix>3d</fix>
</trkpt>
<trkpt lat="40.072842" lon="-105.230575">
  <ele>1586.09</ele>
  <time>2026-08-27T18:24:40Z</time>
  <course>280.81</course>
  <speed>0.0</speed>
  <fix>3d</fix>
</trkpt>
<trkpt lat="40.0728421" lon="-105.2305751">
  <ele>1586.16</ele>
  <time>2026-08-27T18:24:40Z</time>
  <course>9.74</course>
  <speed>0.01414213562373095</speed>
  <fix>3d</fix>
</trkpt>
<trkpt lat="40.072842" lon="-105.230575">
  <ele>1586.09</ele>
  <time>2026-08-27T18:24:40Z</time>
  <course>280.81</course>
  <speed>0.0</speed>
  <fix>3d</fix>
</trkpt>
<trkpt lat="40.0728421" lon="-105.2305751">
  <ele>1586.16</ele>
  <time>2026-08-27T18:24:40Z</time>
  <course>9.73</course>
  <speed>0.01414213562373095</speed>
  <fix>3d</fix>
</trkpt>
<trkpt lat="40.072842" lon="-105.230575">
  <ele>1586.09</ele>
  <time>2026-08-27T18:24:40Z</time>
  <course>280.81</course>
  <speed>0.0</speed>
  <fix>3d</fix>
</trkpt>
<trkpt lat="40.0728421" lon="-105.2305751">
  <ele>1586.16</ele>
  <time>2026-08-27T18:24:40Z</time>
  <course>9.73</course>
  <speed>0.01414213562373095</speed>
  <fix>3d</fix>
</trkpt>
<trkpt lat="40.072842" lon="-105.230575">
  <ele>1586.09</ele>
  <time>2026-08-27T18:24:40Z</time>
  <course>280.81</course>
  <speed>0.0</speed>
  <fix>3d</fix>
</trkpt>
<trkpt lat="40.0728421" lon="-105.2305751">
  <ele>1586.15</ele>
  <time>2026-08-27T18:24:40Z</time>
  <course>9.72</course>
  <speed>0.01414213562373095</speed>
  <fix>3d</fix>
</trkpt>
<trkpt lat="40.072842" lon="-105.230575">
  <ele>1586.09</ele>
  <time>2026-08-27T18:24:40Z</time>
  <course>280.81</course>
  <speed>0.0</speed>
  <fix>3d</fix>
</trkpt>
<trkpt lat="40.0728421" lon="-105.2305751">
  <ele>1586.16</ele>
  <time>2026-08-27T18:24:40Z</time>
  <course>9.72</course>
  <speed>0.01414213562373095</speed>
  <fix>3d</fix>
</trkpt>
<trkpt lat="40.072842" lon="-105.230575">
  <ele>1586.09</ele>
  <time>2026-08-27T18:24:40Z</time>
  <course>280.81</course>
  <speed>0.0</speed>
  <fix>3d</fix>
</trkpt>
<trkpt lat="40.0728421" lon="-105.2305751">
  <ele>1586.16</ele>
  <time>2026-08-27T18:24:40Z</time>
  <course>9.71</course>
  <speed>0.01414213562373095</speed>
  <fix>3d</fix>
</trkpt>
<trkpt lat="40.072842" lon="-105.230575">
  <ele>1586.09</ele>
  <time>2026-08-27T18:24:40Z</time>
  <course>280.81</course>
  <speed>0.0</speed>
  <fix>3d</fix>
</trkpt>
<trkpt lat="40.0728421" lon="-105.2305751">
  <ele>1586.16</ele>
  <time>2026-08-27T18:24:40Z</time>
  <course>9.71</course>
  <speed>0.01414213562373095</speed>
  <fix>3d</fix>
</trkpt>
<trkpt lat="40.072842" lon="-105.230575">
  <ele>1586.09</ele>
  <time>2026-08-27T18:24:40Z</time>
  <course>280.81</course>
  <speed>0.0</speed>
  <fix>3d</fix>
</trkpt>
<trkpt lat="40.0728421" lon="-105.2305751">
  <ele>1586.16</ele>
  <time>2026-08-27T18:24:40Z</time>
  <course>9.7</course>
  <speed>0.01414213562373095</speed>
  <fix>3d</fix>
</trkpt>
<trkpt lat="40.072842" lon="-105.230575">
  <ele>1586.09</ele>
  <time>2026-08-27T18:24:40Z</time>
  <course>280.81</course>
  <speed>0.0</speed>
  <fix>3d</fix>
</trkpt>
<trkpt lat="40.0728421" lon="-105.2305751">
  <ele>1586.16</ele>
  <time>2026-08-27T18:24:40Z</time>
  <course>9.7</course>
  <speed>0.01414213562373095</speed>
  <fix>3d</fix>
</trkpt>
<trkpt lat="40.072842" lon="-105.230575">
  <ele>1586.09</ele>
  <time>2026-08-27T18:24:40Z</time>
  <course>280.81</course>
  <speed>0.0</speed>
  <fix>3d</fix>
</trkpt>
<trkpt lat="40.0728421" lon="-105.2305751">
  <ele>1586.17</ele>
  <time>2026-08-27T18:24:40Z</time>
  <course>9.69</course>
  <speed>0.01414213562373095</speed>
  <fix>3d</fix>
</trkpt>
<trkpt lat="40.072842" lon="-105.230575">
  <ele>1586.09</ele>
  <time>2026-08-27T18:24:40Z</time>
  <course>280.81</course>
  <speed>0.0</speed>
  <fix>3d</fix>
</trkpt>
<trkpt lat="40.0728421" lon="-105.2305751">
  <ele>1586.17</ele>
  <time>2026-08-27T18:24:40Z</time>
  <course>9.69</course>
  <speed>0.01414213562373095</speed>
  <fix>3d</fix>
</trkpt>
<trkpt lat="40.072842" lon="-105.230575">
  <ele>1586.09</ele>
  <time>2026-08-27T18:24:40Z</time>
  <course>280.81</course>
  <speed>0.0</speed>
  <fix>3d</fix>
</trkpt>
<trkpt lat="40.0728421" lon="-105.2305751">
  <ele>1586.16</ele>
  <time>2026-08-27T18:24:40Z</time>
  <course>9.68</course>
  <speed>0.01414213562373095</speed>
  <fix>3d</fix>
</trkpt>
<trkpt lat="40.072842" lon="-105.230575">
  <ele>1586.09</ele>
  <time>2026-08-27T18:24:40Z</time>
  <course>280.81</course>
  <speed>0.0</speed>
  <fix>3d</fix>
</trkpt>
<trkpt lat="40.0728421" lon="-105.2305751">
  <ele>1586.16</ele>
  <time>2026-08-27T18:24:40Z</time>
  <course>9.68</course>
  <speed>0.01414213562373095</speed>
  <fix>3d</fix>
</trkpt>
<trkpt lat="40.072842" lon="-105.230575">
  <ele>1586.09</ele>
  <time>2026-08-27T18:24:40Z</time>
  <course>280.81</course>
  <speed>0.0</speed>
  <fix>3d</fix>
</trkpt>
<trkpt lat="40.0728421" lon="-105.2305751">
  <ele>1586.17</ele>
  <time>2026-08-27T18:24:40Z</time>
  <course>9.67</course>
  <speed>0.01414213562373095</speed>
  <fix>3d</fix>
</trkpt>
<trkpt lat="40.072842" lon="-105.230575">
  <ele>1586.09</ele>
  <time>2026-08-27T18:24:40Z</time>
  <course>280.81</course>
  <speed>0.0</speed>
  <fix>3d</fix>
</trkpt>
<trkpt lat="40.0728421" lon="-105.2305751">
  <ele>1586.16</ele>
  <time>2026-08-27T18:24:40Z</time>
  <course>9.67</course>
  <speed>0.01414213562373095</speed>
  <fix>3d</fix>
</trkpt>
<trkpt lat="40.072842" lon="-105.230575">
  <ele>1586.09</ele>
  <time>2026-08-27T18:24:40Z</time>
  <course>280.81</course>
  <speed>0.0</speed>
  <fix>3d</fix>
</trkpt>
<trkpt lat="40.0728421" lon="-105.2305751">
  <ele>1586.16</ele>
  <time>2026-08-27T18:24:40Z</time>
  <course>9.66</course>
  <speed>0.01414213562373095</speed>
  <fix>3d</fix>
</trkpt>
<trkpt lat="40.072842" lon="-105.230575">
  <ele>1586.09</ele>
  <time>2026-08-27T18:24:40Z</time>
  <course>280.81</course>
  <speed>0.0</speed>
  <fix>3d</fix>
</trkpt>
<trkpt lat="40.0728421" lon="-105.2305751">
  <ele>1586.16</ele>
  <time>2026-08-27T18:24:40Z</time>
  <course>9.66</course>
  <speed>0.01414213562373095</speed>
  <fix>3d</fix>
</trkpt>
<trkpt lat="40.072842" lon="-105.230575">
  <ele>1586.09</ele>
  <time>2026-08-27T18:24:40Z</time>
  <course>280.81</course>
  <speed>0.0</speed>
  <fix>3d</fix>
</trkpt>
<trkpt lat="40.0728421" lon="-105.2305751">
  <ele>1586.16</ele>
  <time>2026-08-27T18:24:40Z</time>
  <course>9.65</course>
  <speed>0.01414213562373095</speed>
  <fix>3d</fix>
</trkpt>
<trkpt lat="40.072842" lon="-105.230575">
  <ele>1586.09</ele>
  <time>2026-08-27T18:24:40Z</time>
  <course>280.81</course>
  <speed>0.0</speed>
  <fix>3d</fix>
</trkpt>
<trkpt lat="40.0728421" lon="-105.2305751">
  <ele>1586.16</ele>
  <time>2026-08-27T18:24:40Z</time>
  <course>9.65</course>
  <speed>0.01414213562373095</speed>
  <fix>3d</fix>
</trkpt>
<trkpt lat="40.072842" lon="-105.230575">
  <ele>1586.09</ele>
  <time>2026-08-27T18:24:40Z</time>
  <course>280.81</course>
  <speed>0.0</speed>
  <fix>3d</fix>
</trkpt>
<trkpt lat="40.0728421" lon="-105.2305751">
  <ele>1586.16</ele>
  <time>2026-08-27T18:24:40Z</time>
  <course>9.64</course>
  <speed>0.01414213562373095</speed>
  <fix>3d</fix>
</trkpt>
<trkpt lat="40.072842" lon="-105.230575">
  <ele>1586.09</ele>
  <time>2026-08-27T18:24:40Z</time>
  <course>280.81</course>
  <speed>0.0</speed>
  <fix>3d</fix>
</trkpt>
<trkpt lat="40.0728421" lon="-105.2305751">
  <ele>1586.16</ele>
  <time>2026-08-27T18:24:40Z</time>
  <course>9.64</course>
  <speed>0.01414213562373095</speed>
  <fix>3d</fix>
</trkpt>
<trkpt lat="40.072842" lon="-105.230575">
  <ele>1586.09</ele>
  <time>2026-08-27T18:24:40Z</time>
  <course>280.81</course>
  <speed>0.0</speed>
  <fix>3d</fix>
</trkpt>
<trkpt lat="40.0728421" lon="-105.2305751">
  <ele>1586.16</ele>
  <time>2026-08-27T18:24:40Z</time>
  <course>9.63</course>
  <speed>0.01414213562373095</speed>
  <fix>3d</fix>
</trkpt>
<trkpt lat="40.072842" lon="-105.230575">
  <ele>1586.09</ele>
  <time>2026-08-27T18:24:40Z</time>
  <course>280.81</course>
  <speed>0.0</speed>
  <fix>3d</fix>
</trkpt>
<trkpt lat="40.0728421" lon="-105.2305751">
  <ele>1586.16</ele>
  <time>2026-08-27T18:24:40Z</time>
  <course>9.63</course>
  <speed>0.01414213562373095</speed>
  <fix>3d</fix>
</trkpt>
<trkpt lat="40.072842" lon="-105.230575">
  <ele>1586.09</ele>
  <time>2026-08-27T18:24:40Z</time>
  <course>280.81</course>
  <speed>0.0</speed>
  <fix>3d</fix>
</trkpt>
<trkpt lat="40.0728421" lon="-105.2305751">
  <ele>1586.16</ele>
  <time>2026-08-27T18:24:40Z</time>
  <course>9.62</course>
  <speed>0.01414213562373095</speed>
  <fix>3d</fix>
</trkpt>
<trkpt lat="40.072842" lon="-105.230575">
  <ele>1586.09</ele>
  <time>2026-08-27T18:24:40Z</time>
  <course>280.81</course>
  <speed>0.0</speed>
  <fix>3d</fix>
</trkpt>
<trkpt lat="40.0728421" lon="-105.2305751">
  <ele>1586.16</ele>
  <time>2026-08-27T18:24:40Z</time>
  <course>9.62</course>
  <speed>0.01414213562373095</speed>
  <fix>3d</fix>
</trkpt>
<trkpt lat="40.072842" lon="-105.230575">
  <ele>1586.09</ele>
  <time>2026-08-27T18:24:40Z</time>
  <course>280.81</course>
  <speed>0.0</speed>
  <fix>3d</fix>
</trkpt>
<trkpt lat="40.0728421" lon="-105.2305751">
  <ele>1586.16</ele>
  <time>2026-08-27T18:24:40Z</time>
  <course>9.62</course>
  <speed>0.01414213562373095</speed>
  <fix>3d</fix>
</trkpt>
<trkpt lat="40.072842" lon="-105.230575">
  <ele>1586.09</ele>
  <time>2026-08-27T18:24:40Z</time>
  <course>280.81</course>
  <speed>0.0</speed>
  <fix>3d</fix>
</trkpt>
<trkpt lat="40.0728421" lon="-105.2305751">
  <ele>1586.16</ele>
  <time>2026-08-27T18:24:40Z</time>
  <course>9.61</course>
  <speed>0.01414213562373095</speed>
  <fix>3d</fix>
</trkpt>
<trkpt lat="40.072842" lon="-105.230575">
  <ele>1586.09</ele>
  <time>2026-08-27T18:24:40Z</time>
  <course>280.81</course>
  <speed>0.0</speed>
  <fix>3d</fix>
</trkpt>
<trkpt lat="40.0728421" lon="-105.2305751">
  <ele>1586.17</ele>
  <time>2026-08-27T18:24:40Z</time>
  <course>9.61</course>
  <speed>0.01414213562373095</speed>
  <fix>3d</fix>
</trkpt>
<trkpt lat="40.072842" lon="-105.230575">
  <ele>1586.09</ele>
  <time>2026-08-27T18:24:40Z</time>
  <course>280.81</course>
  <speed>0.0</speed>
  <fix>3d</fix>
</trkpt>
<trkpt lat="40.0728421" lon="-105.2305751">
  <ele>1586.17</ele>
  <time>2026-08-27T18:24:40Z</time>
  <course>9.6</course>
  <speed>0.01414213562373095</speed>
  <fix>3d</fix>
</trkpt>
<trkpt lat="40.072842" lon="-105.230575">
  <ele>1586.09</ele>
  <time>2026-08-27T18:24:40Z</time>
  <course>280.81</course>
  <speed>0.0</speed>
  <fix>3d</fix>
</trkpt>
<trkpt lat="40.0728421" lon="-105.2305751">
  <ele>1586.17</ele>
  <time>2026-08-27T18:24:40Z</time>
  <course>9.6</course>
  <speed>0.01414213562373095</speed>
  <fix>3d</fix>
</trkpt>
<trkpt lat="40.072842" lon="-105.230575">
  <ele>1586.09</ele>
  <time>2026-08-27T18:24:40Z</time>
  <course>280.81</course>
  <speed>0.0</speed>
  <fix>3d</fix>
</trkpt>
<trkpt lat="40.0728421" lon="-105.2305751">
  <ele>1586.17</ele>
  <time>2026-08-27T18:24:40Z</time>
  <course>9.59</course>
  <speed>0.01414213562373095</speed>
  <fix>3d</fix>
</trkpt>
<trkpt lat="40.072842" lon="-105.230575">
  <ele>1586.09</ele>
  <time>2026-08-27T18:24:40Z</time>
  <course>280.81</course>
  <speed>0.0</speed>
  <fix>3d</fix>
</trkpt>
<trkpt lat="40.0728421" lon="-105.2305751">
  <ele>1586.17</ele>
  <time>2026-08-27T18:24:40Z</time>
  <course>9.59</course>
  <speed>0.01414213562373095</speed>
  <fix>3d</fix>
</trkpt>
<trkpt lat="40.072842" lon="-105.230575">
  <ele>1586.09</ele>
  <time>2026-08-27T18:24:40Z</time>
  <course>280.81</course>
  <speed>0.0</speed>
  <fix>3d</fix>
</trkpt>
<trkpt lat="40.0728421" lon="-105.2305751">
  <ele>1586.17</ele>
  <time>2026-08-27T18:24:40Z</time>
  <course>9.58</course>
  <speed>0.01414213562373095</speed>
  <fix>3d</fix>
</trkpt>
<trkpt lat="40.072842" lon="-105.230575">
  <ele>1586.09</ele>
  <time>2026-08-27T18:24:40Z</time>
  <course>280.81</course>
  <speed>0.0</speed>
  <fix>3d</fix>
</trkpt>
<trkpt lat="40.0728421" lon="-105.2305751">
  <ele>1586.17</ele>
  <time>2026-08-27T18:24:40Z</time>
  <course>9.58</course>
  <speed>0.01414213562373095</speed>
  <fix>3d</fix>
</trkpt>
<trkpt lat="40.072842" lon="-105.230575">
  <ele>1586.09</ele>
  <time>2026-08-27T18:24:40Z</time>
  <course>280.81</course>
  <speed>0.0</speed>
  <fix>3d</fix>
</trkpt>
<trkpt lat="40.0728421" lon="-105.2305751">
  <ele>1586.17</ele>
  <time>2026-08-27T18:24:40Z</time>
  <course>9.57</course>
  <speed>0.01414213562373095</speed>
  <fix>3d</fix>
</trkpt>
<trkpt lat="40.072842" lon="-105.230575">
  <ele>1586.09</ele>
  <time>2026-08-27T18:24:40Z</time>
  <course>280.81</course>
  <speed>0.0</speed>
  <fix>3d</fix>
</trkpt>
<trkpt lat="40.0728421" lon="-105.2305751">
  <ele>1586.17</ele>
  <time>2026-08-27T18:24:40Z</time>
  <course>9.57</course>
  <speed>0.01414213562373095</speed>
  <fix>3d</fix>
</trkpt>
<trkpt lat="40.072842" lon="-105.230575">
  <ele>1586.09</ele>
  <time>2026-08-27T18:24:40Z</time>
  <course>280.81</course>
  <speed>0.0</speed>
  <fix>3d</fix>
</trkpt>
<trkpt lat="40.0728421" lon="-105.2305751">
  <ele>1586.17</ele>
  <time>2026-08-27T18:24:40Z</time>
  <course>9.56</course>
  <speed>0.01414213562373095</speed>
  <fix>3d</fix>
</trkpt>
<trkpt lat="40.072842" lon="-105.230575">
  <ele>1586.09</ele>
  <time>2026-08-27T18:24:40Z</time>
  <course>280.81</course>
  <speed>0.0</speed>
  <fix>3d</fix>
</trkpt>
<trkpt lat="40.0728421" lon="-105.2305751">
  <ele>1586.17</ele>
  <time>2026-08-27T18:24:40Z</time>
  <course>9.56</course>
  <speed>0.01414213562373095</speed>
  <fix>3d</fix>
</trkpt>
<trkpt lat="40.072842" lon="-105.230575">
  <ele>1586.09</ele>
  <time>2026-08-27T18:24:40Z</time>
  <course>280.81</course>
  <speed>0.0</speed>
  <fix>3d</fix>
</trkpt>
<trkpt lat="40.0728421" lon="-105.2305751">
  <ele>1586.16</ele>
  <time>2026-08-27T18:24:40Z</time>
  <course>9.55</course>
  <speed>0.01414213562373095</speed>
  <fix>3d</fix>
</trkpt>
<trkpt lat="40.072842" lon="-105.230575">
  <ele>1586.09</ele>
  <time>2026-08-27T18:24:40Z</time>
  <course>280.81</course>
  <speed>0.0</speed>
  <fix>3d</fix>
</trkpt>
<trkpt lat="40.0728421" lon="-105.2305751">
  <ele>1586.16</ele>
  <time>2026-08-27T18:24:40Z</time>
  <course>9.55</course>
  <speed>0.01414213562373095</speed>
  <fix>3d</fix>
</trkpt>
<trkpt lat="40.072842" lon="-105.230575">
  <ele>1586.09</ele>
  <time>2026-08-27T18:24:40Z</time>
  <course>280.81</course>
  <speed>0.0</speed>
  <fix>3d</fix>
</trkpt>
<trkpt lat="40.0728421" lon="-105.2305751">
  <ele>1586.16</ele>
  <time>2026-08-27T18:24:40Z</time>
  <course>9.55</course>
  <speed>0.01414213562373095</speed>
  <fix>3d</fix>
</trkpt>
<trkpt lat="40.072842" lon="-105.230575">
  <ele>1586.09</ele>
  <time>2026-08-27T18:24:40Z</time>
  <course>280.81</course>
  <speed>0.0</speed>
  <fix>3d</fix>
</trkpt>
<trkpt lat="40.0728421" lon="-105.2305751">
  <ele>1586.16</ele>
  <time>2026-08-27T18:24:40Z</time>
  <course>9.54</course>
  <speed>0.01414213562373095</speed>
  <fix>3d</fix>
</trkpt>
<trkpt lat="40.072842" lon="-105.230575">
  <ele>1586.09</ele>
  <time>2026-08-27T18:24:40Z</time>
  <course>280.81</course>
  <speed>0.0</speed>
  <fix>3d</fix>
</trkpt>
<trkpt lat="40.0728421" lon="-105.2305751">
  <ele>1586.16</ele>
  <time>2026-08-27T18:24:40Z</time>
  <course>9.54</course>
  <speed>0.01414213562373095</speed>
  <fix>3d</fix>
</trkpt>
<trkpt lat="40.072842" lon="-105.230575">
  <ele>1586.09</ele>
  <time>2026-08-27T18:24:40Z</time>
  <course>280.81</course>
  <speed>0.0</speed>
  <fix>3d</fix>
</trkpt>
<trkpt lat="40.0728421" lon="-105.2305751">
  <ele>1586.15</ele>
  <time>2026-08-27T18:24:40Z</time>
  <course>9.53</course>
  <speed>0.01414213562373095</speed>
  <fix>3d</fix>
</trkpt>
<trkpt lat="40.072842" lon="-105.230575">
  <ele>1586.09</ele>
  <time>2026-08-27T18:24:40Z</time>
  <course>280.81</course>
  <speed>0.0</speed>
  <fix>3d</fix>
</trkpt>
<trkpt lat="40.0728421" lon="-105.2305751">
  <ele>1586.14</ele>
  <time>2026-08-27T18:24:40Z</time>
  <course>9.53</course>
  <speed>0.01414213562373095</speed>
  <fix>3d</fix>
</trkpt>
<trkpt lat="40.072842" lon="-105.230575">
  <ele>1586.09</ele>
  <time>2026-08-27T18:24:40Z</time>
  <course>280.81</course>
  <speed>0.0</speed>
  <fix>3d</fix>
</trkpt>
<trkpt lat="40.0728421" lon="-105.2305751">
  <ele>1586.14</ele>
  <time>2026-08-27T18:24:40Z</time>
  <course>9.52</course>
  <speed>0.01414213562373095</speed>
  <fix>3d</fix>
</trkpt>
<trkpt lat="40.072842" lon="-105.230575">
  <ele>1586.09</ele>
  <time>2026-08-27T18:24:40Z</time>
  <course>280.81</course>
  <speed>0.0</speed>
  <fix>3d</fix>
</trkpt>
<trkpt lat="40.0728421" lon="-105.2305751">
  <ele>1586.14</ele>
  <time>2026-08-27T18:24:40Z</time>
  <course>9.52</course>
  <speed>0.01414213562373095</speed>
  <fix>3d</fix>
</trkpt>
<trkpt lat="40.072842" lon="-105.230575">
  <ele>1586.09</ele>
  <time>2026-08-27T18:24:40Z</time>
  <course>280.81</course>
  <speed>0.0</speed>
  <fix>3d</fix>
</trkpt>
<trkpt lat="40.0728421" lon="-105.2305751">
  <ele>1586.15</ele>
  <time>2026-08-27T18:24:40Z</time>
  <course>9.52</course>
  <speed>0.01414213562373095</speed>
  <fix>3d</fix>
</trkpt>
<trkpt lat="40.072842" lon="-105.230575">
  <ele>1586.09</ele>
  <time>2026-08-27T18:24:40Z</time>
  <course>280.81</course>
  <speed>0.0</speed>
  <fix>3d</fix>
</trkpt>
<trkpt lat="40.0728421" lon="-105.2305751">
  <ele>1586.15</ele>
  <time>2026-08-27T18:24:40Z</time>
  <course>9.51</course>
  <speed>0.01414213562373095</speed>
  <fix>3d</fix>
</trkpt>
<trkpt lat="40.072842" lon="-105.230575">
  <ele>1586.09</ele>
  <time>2026-08-27T18:24:40Z</time>
  <course>280.81</course>
  <speed>0.0</speed>
  <fix>3d</fix>
</trkpt>
<trkpt lat="40.0728421" lon="-105.2305751">
  <ele>1586.15</ele>
  <time>2026-08-27T18:24:40Z</time>
  <course>9.51</course>
  <speed>0.01414213562373095</speed>
  <fix>3d</fix>
</trkpt>
<trkpt lat="40.072842" lon="-105.230575">
  <ele>1586.09</ele>
  <time>2026-08-27T18:24:40Z</time>
  <course>280.81</course>
  <speed>0.0</speed>
  <fix>3d</fix>
</trkpt>
<trkpt lat="40.0728421" lon="-105.2305751">
  <ele>1586.14</ele>
  <time>2026-08-27T18:24:40Z</time>
  <course>9.5</course>
  <speed>0.01414213562373095</speed>
  <fix>3d</fix>
</trkpt>
<trkpt lat="40.072842" lon="-105.230575">
  <ele>1586.09</ele>
  <time>2026-08-27T18:24:40Z</time>
  <course>280.81</course>
  <speed>0.0</speed>
  <fix>3d</fix>
</trkpt>
<trkpt lat="40.0728421" lon="-105.2305751">
  <ele>1586.14</ele>
  <time>2026-08-27T18:24:40Z</time>
  <course>9.5</course>
  <speed>0.01414213562373095</speed>
  <fix>3d</fix>
</trkpt>
<trkpt lat="40.072842" lon="-105.230575">
  <ele>1586.09</ele>
  <time>2026-08-27T18:24:40Z</time>
  <course>280.81</course>
  <speed>0.0</speed>
  <fix>3d</fix>
</trkpt>
<trkpt lat="40.0728421" lon="-105.2305751">
  <ele>1586.14</ele>
  <time>2026-08-27T18:24:40Z</time>
  <course>9.49</course>
  <speed>0.01414213562373095</speed>
  <fix>3d</fix>
</trkpt>
<trkpt lat="40.072842" lon="-105.230575">
  <ele>1586.09</ele>
  <time>2026-08-27T18:24:40Z</time>
  <course>280.81</course>
  <speed>0.0</speed>
  <fix>3d</fix>
</trkpt>
<trkpt lat="40.0728421" lon="-105.2305751">
  <ele>1586.13</ele>
  <time>2026-08-27T18:24:40Z</time>
  <course>9.49</course>
  <speed>0.01414213562373095</speed>
  <fix>3d</fix>
</trkpt>
<trkpt lat="40.072842" lon="-105.230575">
  <ele>1586.09</ele>
  <time>2026-08-27T18:24:40Z</time>
  <course>280.81</course>
  <speed>0.0</speed>
  <fix>3d</fix>
</trkpt>
<trkpt lat="40.0728421" lon="-105.2305751">
  <ele>1586.13</ele>
  <time>2026-08-27T18:24:40Z</time>
  <course>9.48</course>
  <speed>0.01414213562373095</speed>
  <fix>3d</fix>
</trkpt>
<trkpt lat="40.072842" lon="-105.230575">
  <ele>1586.09</ele>
  <time>2026-08-27T18:24:40Z</time>
  <course>280.81</course>
  <speed>0.0</speed>
  <fix>3d</fix>
</trkpt>
<trkpt lat="40.0728421" lon="-105.2305751">
  <ele>1586.14</ele>
  <time>2026-08-27T18:24:40Z</time>
  <course>9.48</course>
  <speed>0.01414213562373095</speed>
  <fix>3d</fix>
</trkpt>
<trkpt lat="40.072842" lon="-105.230575">
  <ele>1586.09</ele>
  <time>2026-08-27T18:24:40Z</time>
  <course>280.81</course>
  <speed>0.0</speed>
  <fix>3d</fix>
</trkpt>
<trkpt lat="40.0728421" lon="-105.2305751">
  <ele>1586.14</ele>
  <time>2026-08-27T18:24:40Z</time>
  <course>9.48</course>
  <speed>0.01414213562373095</speed>
  <fix>3d</fix>
</trkpt>
<trkpt lat="40.072842" lon="-105.230575">
  <ele>1586.09</ele>
  <time>2026-08-27T18:24:40Z</time>
  <course>280.81</course>
  <speed>0.0</speed>
  <fix>3d</fix>
</trkpt>
<trkpt lat="40.0728421" lon="-105.2305751">
  <ele>1586.15</ele>
  <time>2026-08-27T18:24:40Z</time>
  <course>9.47</course>
  <speed>0.01414213562373095</speed>
  <fix>3d</fix>
</trkpt>
<trkpt lat="40.072842" lon="-105.230575">
  <ele>1586.09</ele>
  <time>2026-08-27T18:24:40Z</time>
  <course>280.81</course>
  <speed>0.0</speed>
  <fix>3d</fix>
</trkpt>
<trkpt lat="40.0728421" lon="-105.2305751">
  <ele>1586.15</ele>
  <time>2026-08-27T18:24:40Z</time>
  <course>9.47</course>
  <speed>0.01414213562373095</speed>
  <fix>3d</fix>
</trkpt>
<trkpt lat="40.072842" lon="-105.230575">
  <ele>1586.09</ele>
  <time>2026-08-27T18:24:40Z</time>
  <course>280.81</course>
  <speed>0.0</speed>
  <fix>3d</fix>
</trkpt>
<trkpt lat="40.0728421" lon="-105.2305751">
  <ele>1586.16</ele>
  <time>2026-08-27T18:24:40Z</time>
  <course>9.46</course>
  <speed>0.01414213562373095</speed>
  <fix>3d</fix>
</trkpt>
<trkpt lat="40.072842" lon="-105.230575">
  <ele>1586.09</ele>
  <time>2026-08-27T18:24:40Z</time>
  <course>280.81</course>
  <speed>0.0</speed>
  <fix>3d</fix>
</trkpt>
<trkpt lat="40.0728421" lon="-105.2305751">
  <ele>1586.16</ele>
  <time>2026-08-27T18:24:40Z</time>
  <course>9.46</course>
  <speed>0.01414213562373095</speed>
  <fix>3d</fix>
</trkpt>
<trkpt lat="40.072842" lon="-105.230575">
  <ele>1586.09</ele>
  <time>2026-08-27T18:24:40Z</time>
  <course>280.81</course>
  <speed>0.0</speed>
  <fix>3d</fix>
</trkpt>
<trkpt lat="40.0728421" lon="-105.2305751">
  <ele>1586.17</ele>
  <time>2026-08-27T18:24:40Z</time>
  <course>9.46</course>
  <speed>0.01414213562373095</speed>
  <fix>3d</fix>
</trkpt>
<trkpt lat="40.072842" lon="-105.230575">
  <ele>1586.09</ele>
  <time>2026-08-27T18:24:40Z</time>
  <course>280.81</course>
  <speed>0.0</speed>
  <fix>3d</fix>
</trkpt>
<trkpt lat="40.0728421" lon="-105.2305751">
  <ele>1586.17</ele>
  <time>2026-08-27T18:24:40Z</time>
  <course>9.45</course>
  <speed>0.01414213562373095</speed>
  <fix>3d</fix>
</trkpt>
<trkpt lat="40.072842" lon="-105.230575">
  <ele>1586.09</ele>
  <time>2026-08-27T18:24:40Z</time>
  <course>280.81</course>
  <speed>0.0</speed>
  <fix>3d</fix>
</trkpt>
<trkpt lat="40.0728421" lon="-105.2305751">
  <ele>1586.17</ele>
  <time>2026-08-27T18:24:40Z</time>
  <course>9.45</course>
  <speed>0.01414213562373095</speed>
  <fix>3d</fix>
</trkpt>
<trkpt lat="40.072842" lon="-105.230575">
  <ele>1586.09</ele>
  <time>2026-08-27T18:24:40Z</time>
  <course>280.81</course>
  <speed>0.0</speed>
  <fix>3d</fix>
</trkpt>
<trkpt lat="40.0728421" lon="-105.2305751">
  <ele>1586.17</ele>
  <time>2026-08-27T18:24:40Z</time>
  <course>9.44</course>
  <speed>0.01414213562373095</speed>
  <fix>3d</fix>
</trkpt>
<trkpt lat="40.072842" lon="-105.230575">
  <ele>1586.09</ele>
  <time>2026-08-27T18:24:40Z</time>
  <course>280.81</course>
  <speed>0.0</speed>
  <fix>3d</fix>
</trkpt>
<trkpt lat="40.0728421" lon="-105.2305751">
  <ele>1586.17</ele>
  <time>2026-08-27T18:24:40Z</time>
  <course>9.44</course>
  <speed>0.01414213562373095</speed>
  <fix>3d</fix>
</trkpt>
<trkpt lat="40.072842" lon="-105.230575">
  <ele>1586.09</ele>
  <time>2026-08-27T18:24:40Z</time>
  <course>280.81</course>
  <speed>0.0</speed>
  <fix>3d</fix>
</trkpt>
<trkpt lat="40.0728421" lon="-105.2305751">
  <ele>1586.17</ele>
  <time>2026-08-27T18:24:40Z</time>
  <course>9.43</course>
  <speed>0.01414213562373095</speed>
  <fix>3d</fix>
</trkpt>
<trkpt lat="40.072842" lon="-105.230575">
  <ele>1586.09</ele>
  <time>2026-08-27T18:24:40Z</time>
  <course>280.81</course>
  <speed>0.0</speed>
  <fix>3d</fix>
</trkpt>
<trkpt lat="40.0728421" lon="-105.2305751">
  <ele>1586.17</ele>
  <time>2026-08-27T18:24:40Z</time>
  <course>9.43</course>
  <speed>0.01414213562373095</speed>
  <fix>3d</fix>
</trkpt>
<trkpt lat="40.072842" lon="-105.230575">
  <ele>1586.09</ele>
  <time>2026-08-27T18:24:40Z</time>
  <course>280.81</course>
  <speed>0.0</speed>
  <fix>3d</fix>
</trkpt>
<trkpt lat="40.0728421" lon="-105.2305751">
  <ele>1586.16</ele>
  <time>2026-08-27T18:24:40Z</time>
  <course>9.43</course>
  <speed>0.01414213562373095</speed>
  <fix>3d</fix>
</trkpt>
<trkpt lat="40.072842" lon="-105.230575">
  <ele>1586.09</ele>
  <time>2026-08-27T18:24:40Z</time>
  <course>280.81</course>
  <speed>0.0</speed>
  <fix>3d</fix>
</trkpt>
<trkpt lat="40.0728421" lon="-105.2305751">
  <ele>1586.16</ele>
  <time>2026-08-27T18:24:40Z</time>
  <course>9.42</course>
  <speed>0.01414213562373095</speed>
  <fix>3d</fix>
</trkpt>
<trkpt lat="40.072842" lon="-105.230575">
  <ele>1586.09</ele>
  <time>2026-08-27T18:24:40Z</time>
  <course>280.81</course>
  <speed>0.0</speed>
  <fix>3d</fix>
</trkpt>
<trkpt lat="40.0728421" lon="-105.2305751">
  <ele>1586.16</ele>
  <time>2026-08-27T18:24:40Z</time>
  <course>9.42</course>
  <speed>0.01414213562373095</speed>
  <fix>3d</fix>
</trkpt>
<trkpt lat="40.072842" lon="-105.230575">
  <ele>1586.09</ele>
  <time>2026-08-27T18:24:40Z</time>
  <course>280.81</course>
  <speed>0.0</speed>
  <fix>3d</fix>
</trkpt>
<trkpt lat="40.0728421" lon="-105.2305751">
  <ele>1586.16</ele>
  <time>2026-08-27T18:24:40Z</time>
  <course>9.41</course>
  <speed>0.01414213562373095</speed>
  <fix>3d</fix>
</trkpt>
<trkpt lat="40.072842" lon="-105.230575">
  <ele>1586.09</ele>
  <time>2026-08-27T18:24:40Z</time>
  <course>280.81</course>
  <speed>0.0</speed>
  <fix>3d</fix>
</trkpt>
<trkpt lat="40.0728421" lon="-105.2305751">
  <ele>1586.16</ele>
  <time>2026-08-27T18:24:40Z</time>
  <course>9.41</course>
  <speed>0.01414213562373095</speed>
  <fix>3d</fix>
</trkpt>
<trkpt lat="40.072842" lon="-105.230575">
  <ele>1586.09</ele>
  <time>2026-08-27T18:24:40Z</time>
  <course>280.81</course>
  <speed>0.0</speed>
  <fix>3d</fix>
</trkpt>
<trkpt lat="40.0728421" lon="-105.2305751">
  <ele>1586.17</ele>
  <time>2026-08-27T18:24:40Z</time>
  <course>9.41</course>
  <speed>0.01414213562373095</speed>
  <fix>3d</fix>
</trkpt>
<trkpt lat="40.072842" lon="-105.230575">
  <ele>1586.09</ele>
  <time>2026-08-27T18:24:40Z</time>
  <course>280.81</course>
  <speed>0.0</speed>
  <fix>3d</fix>
</trkpt>
<trkpt lat="40.0728421" lon="-105.2305751">
  <ele>1586.17</ele>
  <time>2026-08-27T18:24:40Z</time>
  <course>9.4</course>
  <speed>0.01414213562373095</speed>
  <fix>3d</fix>
</trkpt>
<trkpt lat="40.072842" lon="-105.230575">
  <ele>1586.09</ele>
  <time>2026-08-27T18:24:40Z</time>
  <course>280.81</course>
  <speed>0.0</speed>
  <fix>3d</fix>
</trkpt>
<trkpt lat="40.0728421" lon="-105.2305751">
  <ele>1586.17</ele>
  <time>2026-08-27T18:24:40Z</time>
  <course>9.4</course>
  <speed>0.01414213562373095</speed>
  <fix>3d</fix>
</trkpt>
<trkpt lat="40.072842" lon="-105.230575">
  <ele>1586.09</ele>
  <time>2026-08-27T18:24:40Z</time>
  <course>280.81</course>
  <speed>0.0</speed>
  <fix>3d</fix>
</trkpt>
<trkpt lat="40.0728421" lon="-105.2305751">
  <ele>1586.17</ele>
  <time>2026-08-27T18:24:40Z</time>
  <course>9.39</course>
  <speed>0.01414213562373095</speed>
  <fix>3d</fix>
</trkpt>
<trkpt lat="40.072842" lon="-105.230575">
  <ele>1586.09</ele>
  <time>2026-08-27T18:24:40Z</time>
  <course>280.81</course>
  <speed>0.0</speed>
  <fix>3d</fix>
</trkpt>
<trkpt lat="40.0728421" lon="-105.2305751">
  <ele>1586.17</ele>
  <time>2026-08-27T18:24:40Z</time>
  <course>9.39</course>
  <speed>0.01414213562373095</speed>
  <fix>3d</fix>
</trkpt>
<trkpt lat="40.072842" lon="-105.230575">
  <ele>1586.09</ele>
  <time>2026-08-27T18:24:40Z</time>
  <course>280.81</course>
  <speed>0.0</speed>
  <fix>3d</fix>
</trkpt>
<trkpt lat="40.0728421" lon="-105.2305751">
  <ele>1586.17</ele>
  <time>2026-08-27T18:24:40Z</time>
  <course>9.39</course>
  <speed>0.01414213562373095</speed>
  <fix>3d</fix>
</trkpt>
<trkpt lat="40.072842" lon="-105.230575">
  <ele>1586.09</ele>
  <time>2026-08-27T18:24:40Z</time>
  <course>280.81</course>
  <speed>0.0</speed>
  <fix>3d</fix>
</trkpt>
<trkpt lat="40.0728421" lon="-105.2305751">
  <ele>1586.18</ele>
  <time>2026-08-27T18:24:40Z</time>
  <course>9.38</course>
  <speed>0.01414213562373095</speed>
  <fix>3d</fix>
</trkpt>
<trkpt lat="40.072842" lon="-105.230575">
  <ele>1586.09</ele>
  <time>2026-08-27T18:24:40Z</time>
  <course>280.81</course>
  <speed>0.0</speed>
  <fix>3d</fix>
</trkpt>
<trkpt lat="40.0728421" lon="-105.2305751">
  <ele>1586.18</ele>
  <time>2026-08-27T18:24:40Z</time>
  <course>9.38</course>
  <speed>0.01414213562373095</speed>
  <fix>3d</fix>
</trkpt>
<trkpt lat="40.072842" lon="-105.230575">
  <ele>1586.09</ele>
  <time>2026-08-27T18:24:40Z</time>
  <course>280.81</course>
  <speed>0.0</speed>
  <fix>3d</fix>
</trkpt>
<trkpt lat="40.0728421" lon="-105.2305751">
  <ele>1586.18</ele>
  <time>2026-08-27T18:24:40Z</time>
  <course>9.38</course>
  <speed>0.01414213562373095</speed>
  <fix>3d</fix>
</trkpt>
<trkpt lat="40.072842" lon="-105.230575">
  <ele>1586.09</ele>
  <time>2026-08-27T18:24:40Z</time>
  <course>280.81</course>
  <speed>0.0</speed>
  <fix>3d</fix>
</trkpt>
<trkpt lat="40.0728421" lon="-105.2305751">
  <ele>1586.18</ele>
  <time>2026-08-27T18:24:40Z</time>
  <course>9.37</course>
  <speed>0.01414213562373095</speed>
  <fix>3d</fix>
</trkpt>
<trkpt lat="40.072842" lon="-105.230575">
  <ele>1586.09</ele>
  <time>2026-08-27T18:24:40Z</time>
  <course>280.81</course>
  <speed>0.0</speed>
  <fix>3d</fix>
</trkpt>
<trkpt lat="40.0728421" lon="-105.2305751">
  <ele>1586.18</ele>
  <time>2026-08-27T18:24:40Z</time>
  <course>9.37</course>
  <speed>0.01414213562373095</speed>
  <fix>3d</fix>
</trkpt>
<trkpt lat="40.072842" lon="-105.230575">
  <ele>1586.09</ele>
  <time>2026-08-27T18:24:40Z</time>
  <course>280.81</course>
  <speed>0.0</speed>
  <fix>3d</fix>
</trkpt>
<trkpt lat="40.0728421" lon="-105.2305751">
  <ele>1586.18</ele>
  <time>2026-08-27T18:24:40Z</time>
  <course>9.36</course>
  <speed>0.01414213562373095</speed>
  <fix>3d</fix>
</trkpt>
<trkpt lat="40.072842" lon="-105.230575">
  <ele>1586.09</ele>
  <time>2026-08-27T18:24:40Z</time>
  <course>280.81</course>
  <speed>0.0</speed>
  <fix>3d</fix>
</trkpt>
<trkpt lat="40.0728421" lon="-105.2305751">
  <ele>1586.18</ele>
  <time>2026-08-27T18:24:40Z</time>
  <course>9.36</course>
  <speed>0.01414213562373095</speed>
  <fix>3d</fix>
</trkpt>
<trkpt lat="40.072842" lon="-105.230575">
  <ele>1586.09</ele>
  <time>2026-08-27T18:24:40Z</time>
  <course>280.81</course>
  <speed>0.0</speed>
  <fix>3d</fix>
</trkpt>
<trkpt lat="40.0728421" lon="-105.2305751">
  <ele>1586.18</ele>
  <time>2026-08-27T18:24:40Z</time>
  <course>9.36</course>
  <speed>0.01414213562373095</speed>
  <fix>3d</fix>
</trkpt>
<trkpt lat="40.072842" lon="-105.230575">
  <ele>1586.09</ele>
  <time>2026-08-27T18:24:40Z</time>
  <course>280.81</course>
  <speed>0.0</speed>
  <fix>3d</fix>
</trkpt>
<trkpt lat="40.0728421" lon="-105.2305751">
  <ele>1586.17</ele>
  <time>2026-08-27T18:24:40Z</time>
  <course>9.35</course>
  <speed>0.01414213562373095</speed>
  <fix>3d</fix>
</trkpt>
<trkpt lat="40.072842" lon="-105.230575">
  <ele>1586.09</ele>
  <time>2026-08-27T18:24:40Z</time>
  <course>280.81</course>
  <speed>0.0</speed>
  <fix>3d</fix>
</trkpt>
<trkpt lat="40.0728421" lon="-105.2305751">
  <ele>1586.17</ele>
  <time>2026-08-27T18:24:40Z</time>
  <course>9.35</course>
  <speed>0.01414213562373095</speed>
  <fix>3d</fix>
</trkpt>
<trkpt lat="40.072842" lon="-105.230575">
  <ele>1586.09</ele>
  <time>2026-08-27T18:24:40Z</time>
  <course>280.81</course>
  <speed>0.0</speed>
  <fix>3d</fix>
</trkpt>
<trkpt lat="40.0728421" lon="-105.2305751">
  <ele>1586.17</ele>
  <time>2026-08-27T18:24:40Z</time>
  <course>9.35</course>
  <speed>0.01414213562373095</speed>
  <fix>3d</fix>
</trkpt>
<trkpt lat="40.072842" lon="-105.230575">
  <ele>1586.09</ele>
  <time>2026-08-27T18:24:40Z</time>
  <course>280.81</course>
  <speed>0.0</speed>
  <fix>3d</fix>
</trkpt>
<trkpt lat="40.0728421" lon="-105.2305751">
  <ele>1586.17</ele>
  <time>2026-08-27T18:24:40Z</time>
  <course>9.34</course>
  <speed>0.01414213562373095</speed>
  <fix>3d</fix>
</trkpt>
<trkpt lat="40.072842" lon="-105.230575">
  <ele>1586.09</ele>
  <time>2026-08-27T18:24:40Z</time>
  <course>280.81</course>
  <speed>0.0</speed>
  <fix>3d</fix>
</trkpt>
<trkpt lat="40.0728421" lon="-105.2305751">
  <ele>1586.17</ele>
  <time>2026-08-27T18:24:40Z</time>
  <course>9.34</course>
  <speed>0.01414213562373095</speed>
  <fix>3d</fix>
</trkpt>
<trkpt lat="40.072842" lon="-105.230575">
  <ele>1586.09</ele>
  <time>2026-08-27T18:24:40Z</time>
  <course>280.81</course>
  <speed>0.0</speed>
  <fix>3d</fix>
</trkpt>
<trkpt lat="40.0728421" lon="-105.2305751">
  <ele>1586.17</ele>
  <time>2026-08-27T18:24:40Z</time>
  <course>9.33</course>
  <speed>0.01414213562373095</speed>
  <fix>3d</fix>
</trkpt>
<trkpt lat="40.072842" lon="-105.230575">
  <ele>1586.09</ele>
  <time>2026-08-27T18:24:40Z</time>
  <course>280.81</course>
  <speed>0.0</speed>
  <fix>3d</fix>
</trkpt>
<trkpt lat="40.0728421" lon="-105.2305751">
  <ele>1586.17</ele>
  <time>2026-08-27T18:24:40Z</time>
  <course>9.33</course>
  <speed>0.01414213562373095</speed>
  <fix>3d</fix>
</trkpt>
<trkpt lat="40.072842" lon="-105.230575">
  <ele>1586.09</ele>
  <time>2026-08-27T18:24:40Z</time>
  <course>280.81</course>
  <speed>0.0</speed>
  <fix>3d</fix>
</trkpt>
<trkpt lat="40.0728421" lon="-105.2305751">
  <ele>1586.17</ele>
  <time>2026-08-27T18:24:40Z</time>
  <course>9.33</course>
  <speed>0.01414213562373095</speed>
  <fix>3d</fix>
</trkpt>
<trkpt lat="40.072842" lon="-105.230575">
  <ele>1586.09</ele>
  <time>2026-08-27T18:24:40Z</time>
  <course>280.81</course>
  <speed>0.0</speed>
  <fix>3d</fix>
</trkpt>
<trkpt lat="40.0728421" lon="-105.2305751">
  <ele>1586.17</ele>
  <time>2026-08-27T18:24:40Z</time>
  <course>9.32</course>
  <speed>0.01414213562373095</speed>
  <fix>3d</fix>
</trkpt>
<trkpt lat="40.072842" lon="-105.230575">
  <ele>1586.09</ele>
  <time>2026-08-27T18:24:40Z</time>
  <course>280.81</course>
  <speed>0.0</speed>
  <fix>3d</fix>
</trkpt>
<trkpt lat="40.0728421" lon="-105.2305751">
  <ele>1586.17</ele>
  <time>2026-08-27T18:24:40Z</time>
  <course>9.32</course>
  <speed>0.01414213562373095</speed>
  <fix>3d</fix>
</trkpt>
<trkpt lat="40.072842" lon="-105.230575">
  <ele>1586.09</ele>
  <time>2026-08-27T18:24:40Z</time>
  <course>280.81</course>
  <speed>0.0</speed>
  <fix>3d</fix>
</trkpt>
<trkpt lat="40.0728421" lon="-105.2305751">
  <ele>1586.17</ele>
  <time>2026-08-27T18:24:40Z</time>
  <course>9.32</course>
  <speed>0.01414213562373095</speed>
  <fix>3d</fix>
</trkpt>
<trkpt lat="40.072842" lon="-105.230575">
  <ele>1586.09</ele>
  <time>2026-08-27T18:24:40Z</time>
  <course>280.81</course>
  <speed>0.0</speed>
  <fix>3d</fix>
</trkpt>
<trkpt lat="40.0728421" lon="-105.2305751">
  <ele>1586.17</ele>
  <time>2026-08-27T18:24:40Z</time>
  <course>9.31</course>
  <speed>0.01414213562373095</speed>
  <fix>3d</fix>
</trkpt>
<trkpt lat="40.072842" lon="-105.230575">
  <ele>1586.09</ele>
  <time>2026-08-27T18:24:40Z</time>
  <course>280.81</course>
  <speed>0.0</speed>
  <fix>3d</fix>
</trkpt>
<trkpt lat="40.0728421" lon="-105.2305751">
  <ele>1586.17</ele>
  <time>2026-08-27T18:24:40Z</time>
  <course>9.31</course>
  <speed>0.01414213562373095</speed>
  <fix>3d</fix>
</trkpt>
<trkpt lat="40.072842" lon="-105.230575">
  <ele>1586.09</ele>
  <time>2026-08-27T18:24:40Z</time>
  <course>280.81</course>
  <speed>0.0</speed>
  <fix>3d</fix>
</trkpt>
<trkpt lat="40.0728421" lon="-105.2305751">
  <ele>1586.16</ele>
  <time>2026-08-27T18:24:40Z</time>
  <course>9.31</course>
  <speed>0.01414213562373095</speed>
  <fix>3d</fix>
</trkpt>
<trkpt lat="40.072842" lon="-105.230575">
  <ele>1586.09</ele>
  <time>2026-08-27T18:24:40Z</time>
  <course>280.81</course>
  <speed>0.0</speed>
  <fix>3d</fix>
</trkpt>
<trkpt lat="40.0728421" lon="-105.2305751">
  <ele>1586.17</ele>
  <time>2026-08-27T18:24:40Z</time>
  <course>9.3</course>
  <speed>0.01414213562373095</speed>
  <fix>3d</fix>
</trkpt>
<trkpt lat="40.072842" lon="-105.230575">
  <ele>1586.09</ele>
  <time>2026-08-27T18:24:40Z</time>
  <course>280.81</course>
  <speed>0.0</speed>
  <fix>3d</fix>
</trkpt>
<trkpt lat="40.0728421" lon="-105.2305751">
  <ele>1586.17</ele>
  <time>2026-08-27T18:24:40Z</time>
  <course>9.3</course>
  <speed>0.01414213562373095</speed>
  <fix>3d</fix>
</trkpt>
<trkpt lat="40.072842" lon="-105.230575">
  <ele>1586.09</ele>
  <time>2026-08-27T18:24:40Z</time>
  <course>280.81</course>
  <speed>0.0</speed>
  <fix>3d</fix>
</trkpt>
<trkpt lat="40.0728421" lon="-105.2305751">
  <ele>1586.17</ele>
  <time>2026-08-27T18:24:40Z</time>
  <course>9.3</course>
  <speed>0.01414213562373095</speed>
  <fix>3d</fix>
</trkpt>
<trkpt lat="40.072842" lon="-105.230575">
  <ele>1586.09</ele>
  <time>2026-08-27T18:24:40Z</time>
  <course>280.81</course>
  <speed>0.0</speed>
  <fix>3d</fix>
</trkpt>
<trkpt lat="40.0728421" lon="-105.2305751">
  <ele>1586.17</ele>
  <time>2026-08-27T18:24:40Z</time>
  <course>9.29</course>
  <speed>0.01414213562373095</speed>
  <fix>3d</fix>
</trkpt>
<trkpt lat="40.072842" lon="-105.230575">
  <ele>1586.09</ele>
  <time>2026-08-27T18:24:40Z</time>
  <course>280.81</course>
  <speed>0.0</speed>
  <fix>3d</fix>
</trkpt>
<trkpt lat="40.0728421" lon="-105.2305751">
  <ele>1586.17</ele>
  <time>2026-08-27T18:24:40Z</time>
  <course>9.29</course>
  <speed>0.01414213562373095</speed>
  <fix>3d</fix>
</trkpt>
<trkpt lat="40.072842" lon="-105.230575">
  <ele>1586.09</ele>
  <time>2026-08-27T18:24:40Z</time>
  <course>280.81</course>
  <speed>0.0</speed>
  <fix>3d</fix>
</trkpt>
<trkpt lat="40.0728421" lon="-105.2305751">
  <ele>1586.17</ele>
  <time>2026-08-27T18:24:40Z</time>
  <course>9.29</course>
  <speed>0.01414213562373095</speed>
  <fix>3d</fix>
</trkpt>
<trkpt lat="40.072842" lon="-105.230575">
  <ele>1586.09</ele>
  <time>2026-08-27T18:24:40Z</time>
  <course>280.81</course>
  <speed>0.0</speed>
  <fix>3d</fix>
</trkpt>
<trkpt lat="40.0728421" lon="-105.2305751">
  <ele>1586.18</ele>
  <time>2026-08-27T18:24:40Z</time>
  <course>9.28</course>
  <speed>0.01414213562373095</speed>
  <fix>3d</fix>
</trkpt>
<trkpt lat="40.072842" lon="-105.230575">
  <ele>1586.09</ele>
  <time>2026-08-27T18:24:40Z</time>
  <course>280.81</course>
  <speed>0.0</speed>
  <fix>3d</fix>
</trkpt>
<trkpt lat="40.0728421" lon="-105.2305751">
  <ele>1586.18</ele>
  <time>2026-08-27T18:24:40Z</time>
  <course>9.28</course>
  <speed>0.01414213562373095</speed>
  <fix>3d</fix>
</trkpt>
<trkpt lat="40.072842" lon="-105.230575">
  <ele>1586.09</ele>
  <time>2026-08-27T18:24:40Z</time>
  <course>280.81</course>
  <speed>0.0</speed>
  <fix>3d</fix>
</trkpt>
<trkpt lat="40.0728421" lon="-105.2305751">
  <ele>1586.18</ele>
  <time>2026-08-27T18:24:41Z</time>
  <course>9.27</course>
  <speed>0.01414213562373095</speed>
  <fix>3d</fix>
</trkpt>
<trkpt lat="40.072842" lon="-105.230575">
  <ele>1586.09</ele>
  <time>2026-08-27T18:24:41Z</time>
  <course>280.81</course>
  <speed>0.0</speed>
  <fix>3d</fix>
</trkpt>
<trkpt lat="40.0728421" lon="-105.2305751">
  <ele>1586.18</ele>
  <time>2026-08-27T18:24:41Z</time>
  <course>9.27</course>
  <speed>0.01414213562373095</speed>
  <fix>3d</fix>
</trkpt>
<trkpt lat="40.072842" lon="-105.230575">
  <ele>1586.09</ele>
  <time>2026-08-27T18:24:41Z</time>
  <course>280.81</course>
  <speed>0.0</speed>
  <fix>3d</fix>
</trkpt>
<trkpt lat="40.0728421" lon="-105.2305751">
  <ele>1586.18</ele>
  <time>2026-08-27T18:24:41Z</time>
  <course>9.27</course>
  <speed>0.01414213562373095</speed>
  <fix>3d</fix>
</trkpt>
<trkpt lat="40.072842" lon="-105.230575">
  <ele>1586.09</ele>
  <time>2026-08-27T18:24:41Z</time>
  <course>280.81</course>
  <speed>0.0</speed>
  <fix>3d</fix>
</trkpt>
<trkpt lat="40.0728421" lon="-105.2305751">
  <ele>1586.18</ele>
  <time>2026-08-27T18:24:41Z</time>
  <course>9.26</course>
  <speed>0.01414213562373095</speed>
  <fix>3d</fix>
</trkpt>
<trkpt lat="40.072842" lon="-105.230575">
  <ele>1586.09</ele>
  <time>2026-08-27T18:24:41Z</time>
  <course>280.81</course>
  <speed>0.0</speed>
  <fix>3d</fix>
</trkpt>
<trkpt lat="40.0728421" lon="-105.2305751">
  <ele>1586.18</ele>
  <time>2026-08-27T18:24:41Z</time>
  <course>9.26</course>
  <speed>0.01414213562373095</speed>
  <fix>3d</fix>
</trkpt>
<trkpt lat="40.072842" lon="-105.230575">
  <ele>1586.09</ele>
  <time>2026-08-27T18:24:41Z</time>
  <course>280.81</course>
  <speed>0.0</speed>
  <fix>3d</fix>
</trkpt>
<trkpt lat="40.0728421" lon="-105.2305751">
  <ele>1586.18</ele>
  <time>2026-08-27T18:24:41Z</time>
  <course>9.26</course>
  <speed>0.01414213562373095</speed>
  <fix>3d</fix>
</trkpt>
<trkpt lat="40.072842" lon="-105.230575">
  <ele>1586.09</ele>
  <time>2026-08-27T18:24:41Z</time>
  <course>280.81</course>
  <speed>0.0</speed>
  <fix>3d</fix>
</trkpt>
<trkpt lat="40.0728421" lon="-105.2305751">
  <ele>1586.19</ele>
  <time>2026-08-27T18:24:41Z</time>
  <course>9.25</course>
  <speed>0.01414213562373095</speed>
  <fix>3d</fix>
</trkpt>
<trkpt lat="40.072842" lon="-105.230575">
  <ele>1586.09</ele>
  <time>2026-08-27T18:24:41Z</time>
  <course>280.81</course>
  <speed>0.0</speed>
  <fix>3d</fix>
</trkpt>
<trkpt lat="40.0728421" lon="-105.2305751">
  <ele>1586.19</ele>
  <time>2026-08-27T18:24:41Z</time>
  <course>9.25</course>
  <speed>0.01414213562373095</speed>
  <fix>3d</fix>
</trkpt>
<trkpt lat="40.072842" lon="-105.230575">
  <ele>1586.09</ele>
  <time>2026-08-27T18:24:41Z</time>
  <course>280.81</course>
  <speed>0.0</speed>
  <fix>3d</fix>
</trkpt>
<trkpt lat="40.0728421" lon="-105.2305751">
  <ele>1586.2</ele>
  <time>2026-08-27T18:24:41Z</time>
  <course>9.25</course>
  <speed>0.01414213562373095</speed>
  <fix>3d</fix>
</trkpt>
<trkpt lat="40.072842" lon="-105.230575">
  <ele>1586.09</ele>
  <time>2026-08-27T18:24:41Z</time>
  <course>280.81</course>
  <speed>0.0</speed>
  <fix>3d</fix>
</trkpt>
<trkpt lat="40.0728421" lon="-105.2305751">
  <ele>1586.2</ele>
  <time>2026-08-27T18:24:41Z</time>
  <course>9.25</course>
  <speed>0.01414213562373095</speed>
  <fix>3d</fix>
</trkpt>
<trkpt lat="40.072842" lon="-105.230575">
  <ele>1586.09</ele>
  <time>2026-08-27T18:24:41Z</time>
  <course>280.81</course>
  <speed>0.0</speed>
  <fix>3d</fix>
</trkpt>
<trkpt lat="40.0728421" lon="-105.2305751">
  <ele>1586.2</ele>
  <time>2026-08-27T18:24:41Z</time>
  <course>9.24</course>
  <speed>0.01414213562373095</speed>
  <fix>3d</fix>
</trkpt>
<trkpt lat="40.072842" lon="-105.230575">
  <ele>1586.09</ele>
  <time>2026-08-27T18:24:41Z</time>
  <course>280.81</course>
  <speed>0.0</speed>
  <fix>3d</fix>
</trkpt>
<trkpt lat="40.0728421" lon="-105.2305751">
  <ele>1586.2</ele>
  <time>2026-08-27T18:24:41Z</time>
  <course>9.24</course>
  <speed>0.01414213562373095</speed>
  <fix>3d</fix>
</trkpt>
<trkpt lat="40.072842" lon="-105.230575">
  <ele>1586.09</ele>
  <time>2026-08-27T18:24:41Z</time>
  <course>280.81</course>
  <speed>0.0</speed>
  <fix>3d</fix>
</trkpt>
<trkpt lat="40.0728421" lon="-105.2305751">
  <ele>1586.2</ele>
  <time>2026-08-27T18:24:41Z</time>
  <course>9.24</course>
  <speed>0.01414213562373095</speed>
  <fix>3d</fix>
</trkpt>
<trkpt lat="40.072842" lon="-105.230575">
  <ele>1586.09</ele>
  <time>2026-08-27T18:24:41Z</time>
  <course>280.81</course>
  <speed>0.0</speed>
  <fix>3d</fix>
</trkpt>
<trkpt lat="40.0728421" lon="-105.2305751">
  <ele>1586.2</ele>
  <time>2026-08-27T18:24:41Z</time>
  <course>9.23</course>
  <speed>0.01414213562373095</speed>
  <fix>3d</fix>
</trkpt>
<trkpt lat="40.072842" lon="-105.230575">
  <ele>1586.09</ele>
  <time>2026-08-27T18:24:41Z</time>
  <course>280.81</course>
  <speed>0.0</speed>
  <fix>3d</fix>
</trkpt>
<trkpt lat="40.0728421" lon="-105.2305751">
  <ele>1586.2</ele>
  <time>2026-08-27T18:24:41Z</time>
  <course>9.23</course>
  <speed>0.01414213562373095</speed>
  <fix>3d</fix>
</trkpt>
<trkpt lat="40.072842" lon="-105.230575">
  <ele>1586.09</ele>
  <time>2026-08-27T18:24:41Z</time>
  <course>280.81</course>
  <speed>0.0</speed>
  <fix>3d</fix>
</trkpt>
<trkpt lat="40.0728421" lon="-105.2305751">
  <ele>1586.2</ele>
  <time>2026-08-27T18:24:41Z</time>
  <course>9.23</course>
  <speed>0.01414213562373095</speed>
  <fix>3d</fix>
</trkpt>
<trkpt lat="40.072842" lon="-105.230575">
  <ele>1586.09</ele>
  <time>2026-08-27T18:24:41Z</time>
  <course>280.81</course>
  <speed>0.0</speed>
  <fix>3d</fix>
</trkpt>
<trkpt lat="40.0728421" lon="-105.2305751">
  <ele>1586.2</ele>
  <time>2026-08-27T18:24:41Z</time>
  <course>9.22</course>
  <speed>0.01414213562373095</speed>
  <fix>3d</fix>
</trkpt>
<trkpt lat="40.072842" lon="-105.230575">
  <ele>1586.09</ele>
  <time>2026-08-27T18:24:41Z</time>
  <course>280.81</course>
  <speed>0.0</speed>
  <fix>3d</fix>
</trkpt>
<trkpt lat="40.0728421" lon="-105.2305751">
  <ele>1586.2</ele>
  <time>2026-08-27T18:24:41Z</time>
  <course>9.22</course>
  <speed>0.01414213562373095</speed>
  <fix>3d</fix>
</trkpt>
<trkpt lat="40.072842" lon="-105.230575">
  <ele>1586.09</ele>
  <time>2026-08-27T18:24:41Z</time>
  <course>280.81</course>
  <speed>0.0</speed>
  <fix>3d</fix>
</trkpt>
<trkpt lat="40.0728421" lon="-105.2305751">
  <ele>1586.2</ele>
  <time>2026-08-27T18:24:41Z</time>
  <course>9.22</course>
  <speed>0.01414213562373095</speed>
  <fix>3d</fix>
</trkpt>
<trkpt lat="40.072842" lon="-105.230575">
  <ele>1586.09</ele>
  <time>2026-08-27T18:24:41Z</time>
  <course>280.81</course>
  <speed>0.0</speed>
  <fix>3d</fix>
</trkpt>
<trkpt lat="40.0728421" lon="-105.2305751">
  <ele>1586.19</ele>
  <time>2026-08-27T18:24:41Z</time>
  <course>9.21</course>
  <speed>0.01414213562373095</speed>
  <fix>3d</fix>
</trkpt>
<trkpt lat="40.072842" lon="-105.230575">
  <ele>1586.09</ele>
  <time>2026-08-27T18:24:41Z</time>
  <course>280.81</course>
  <speed>0.0</speed>
  <fix>3d</fix>
</trkpt>
<trkpt lat="40.0728421" lon="-105.2305751">
  <ele>1586.19</ele>
  <time>2026-08-27T18:24:41Z</time>
  <course>9.21</course>
  <speed>0.01414213562373095</speed>
  <fix>3d</fix>
</trkpt>
<trkpt lat="40.072842" lon="-105.230575">
  <ele>1586.09</ele>
  <time>2026-08-27T18:24:41Z</time>
  <course>280.81</course>
  <speed>0.0</speed>
  <fix>3d</fix>
</trkpt>
<trkpt lat="40.0728421" lon="-105.2305751">
  <ele>1586.18</ele>
  <time>2026-08-27T18:24:41Z</time>
  <course>9.21</course>
  <speed>0.01414213562373095</speed>
  <fix>3d</fix>
</trkpt>
<trkpt lat="40.072842" lon="-105.230575">
  <ele>1586.09</ele>
  <time>2026-08-27T18:24:41Z</time>
  <course>280.81</course>
  <speed>0.0</speed>
  <fix>3d</fix>
</trkpt>
<trkpt lat="40.0728421" lon="-105.2305751">
  <ele>1586.18</ele>
  <time>2026-08-27T18:24:41Z</time>
  <course>9.2</course>
  <speed>0.01414213562373095</speed>
  <fix>3d</fix>
</trkpt>
<trkpt lat="40.072842" lon="-105.230575">
  <ele>1586.09</ele>
  <time>2026-08-27T18:24:41Z</time>
  <course>280.81</course>
  <speed>0.0</speed>
  <fix>3d</fix>
</trkpt>
<trkpt lat="40.0728421" lon="-105.2305751">
  <ele>1586.18</ele>
  <time>2026-08-27T18:24:41Z</time>
  <course>9.2</course>
  <speed>0.01414213562373095</speed>
  <fix>3d</fix>
</trkpt>
<trkpt lat="40.072842" lon="-105.230575">
  <ele>1586.09</ele>
  <time>2026-08-27T18:24:41Z</time>
  <course>280.81</course>
  <speed>0.0</speed>
  <fix>3d</fix>
</trkpt>
<trkpt lat="40.0728421" lon="-105.2305751">
  <ele>1586.18</ele>
  <time>2026-08-27T18:24:41Z</time>
  <course>9.2</course>
  <speed>0.01414213562373095</speed>
  <fix>3d</fix>
</trkpt>
<trkpt lat="40.072842" lon="-105.230575">
  <ele>1586.09</ele>
  <time>2026-08-27T18:24:41Z</time>
  <course>280.81</course>
  <speed>0.0</speed>
  <fix>3d</fix>
</trkpt>
<trkpt lat="40.0728421" lon="-105.2305751">
  <ele>1586.18</ele>
  <time>2026-08-27T18:24:41Z</time>
  <course>9.2</course>
  <speed>0.01414213562373095</speed>
  <fix>3d</fix>
</trkpt>
<trkpt lat="40.072842" lon="-105.230575">
  <ele>1586.09</ele>
  <time>2026-08-27T18:24:41Z</time>
  <course>280.81</course>
  <speed>0.0</speed>
  <fix>3d</fix>
</trkpt>
<trkpt lat="40.0728421" lon="-105.2305751">
  <ele>1586.18</ele>
  <time>2026-08-27T18:24:41Z</time>
  <course>9.19</course>
  <speed>0.01414213562373095</speed>
  <fix>3d</fix>
</trkpt>
<trkpt lat="40.072842" lon="-105.230575">
  <ele>1586.09</ele>
  <time>2026-08-27T18:24:41Z</time>
  <course>280.81</course>
  <speed>0.0</speed>
  <fix>3d</fix>
</trkpt>
<trkpt lat="40.0728421" lon="-105.2305751">
  <ele>1586.17</ele>
  <time>2026-08-27T18:24:41Z</time>
  <course>9.19</course>
  <speed>0.01414213562373095</speed>
  <fix>3d</fix>
</trkpt>
<trkpt lat="40.072842" lon="-105.230575">
  <ele>1586.09</ele>
  <time>2026-08-27T18:24:41Z</time>
  <course>280.81</course>
  <speed>0.0</speed>
  <fix>3d</fix>
</trkpt>
<trkpt lat="40.0728421" lon="-105.2305751">
  <ele>1586.17</ele>
  <time>2026-08-27T18:24:41Z</time>
  <course>9.19</course>
  <speed>0.01414213562373095</speed>
  <fix>3d</fix>
</trkpt>
<trkpt lat="40.072842" lon="-105.230575">
  <ele>1586.09</ele>
  <time>2026-08-27T18:24:41Z</time>
  <course>280.81</course>
  <speed>0.0</speed>
  <fix>3d</fix>
</trkpt>
<trkpt lat="40.0728421" lon="-105.2305751">
  <ele>1586.17</ele>
  <time>2026-08-27T18:24:41Z</time>
  <course>9.18</course>
  <speed>0.01414213562373095</speed>
  <fix>3d</fix>
</trkpt>
<trkpt lat="40.072842" lon="-105.230575">
  <ele>1586.09</ele>
  <time>2026-08-27T18:24:41Z</time>
  <course>280.81</course>
  <speed>0.0</speed>
  <fix>3d</fix>
</trkpt>
<trkpt lat="40.0728421" lon="-105.2305751">
  <ele>1586.17</ele>
  <time>2026-08-27T18:24:41Z</time>
  <course>9.18</course>
  <speed>0.01414213562373095</speed>
  <fix>3d</fix>
</trkpt>
<trkpt lat="40.072842" lon="-105.230575">
  <ele>1586.09</ele>
  <time>2026-08-27T18:24:41Z</time>
  <course>280.81</course>
  <speed>0.0</speed>
  <fix>3d</fix>
</trkpt>
<trkpt lat="40.0728421" lon="-105.2305751">
  <ele>1586.17</ele>
  <time>2026-08-27T18:24:41Z</time>
  <course>9.18</course>
  <speed>0.01414213562373095</speed>
  <fix>3d</fix>
</trkpt>
<trkpt lat="40.072842" lon="-105.230575">
  <ele>1586.09</ele>
  <time>2026-08-27T18:24:41Z</time>
  <course>280.81</course>
  <speed>0.0</speed>
  <fix>3d</fix>
</trkpt>
<trkpt lat="40.0728421" lon="-105.2305751">
  <ele>1586.16</ele>
  <time>2026-08-27T18:24:41Z</time>
  <course>9.17</course>
  <speed>0.01414213562373095</speed>
  <fix>3d</fix>
</trkpt>
<trkpt lat="40.072842" lon="-105.230575">
  <ele>1586.09</ele>
  <time>2026-08-27T18:24:41Z</time>
  <course>280.81</course>
  <speed>0.0</speed>
  <fix>3d</fix>
</trkpt>
<trkpt lat="40.0728421" lon="-105.2305751">
  <ele>1586.16</ele>
  <time>2026-08-27T18:24:41Z</time>
  <course>9.17</course>
  <speed>0.01414213562373095</speed>
  <fix>3d</fix>
</trkpt>
<trkpt lat="40.072842" lon="-105.230575">
  <ele>1586.09</ele>
  <time>2026-08-27T18:24:41Z</time>
  <course>280.81</course>
  <speed>0.0</speed>
  <fix>3d</fix>
</trkpt>
<trkpt lat="40.0728421" lon="-105.2305751">
  <ele>1586.16</ele>
  <time>2026-08-27T18:24:41Z</time>
  <course>9.17</course>
  <speed>0.01414213562373095</speed>
  <fix>3d</fix>
</trkpt>
<trkpt lat="40.072842" lon="-105.230575">
  <ele>1586.09</ele>
  <time>2026-08-27T18:24:41Z</time>
  <course>280.81</course>
  <speed>0.0</speed>
  <fix>3d</fix>
</trkpt>
<trkpt lat="40.0728421" lon="-105.2305751">
  <ele>1586.16</ele>
  <time>2026-08-27T18:24:41Z</time>
  <course>9.17</course>
  <speed>0.01414213562373095</speed>
  <fix>3d</fix>
</trkpt>
<trkpt lat="40.072842" lon="-105.230575">
  <ele>1586.09</ele>
  <time>2026-08-27T18:24:41Z</time>
  <course>280.81</course>
  <speed>0.0</speed>
  <fix>3d</fix>
</trkpt>
<trkpt lat="40.0728421" lon="-105.2305751">
  <ele>1586.16</ele>
  <time>2026-08-27T18:24:41Z</time>
  <course>9.16</course>
  <speed>0.01414213562373095</speed>
  <fix>3d</fix>
</trkpt>
<trkpt lat="40.072842" lon="-105.230575">
  <ele>1586.09</ele>
  <time>2026-08-27T18:24:41Z</time>
  <course>280.81</course>
  <speed>0.0</speed>
  <fix>3d</fix>
</trkpt>
<trkpt lat="40.0728421" lon="-105.2305751">
  <ele>1586.16</ele>
  <time>2026-08-27T18:24:41Z</time>
  <course>9.16</course>
  <speed>0.01414213562373095</speed>
  <fix>3d</fix>
</trkpt>
<trkpt lat="40.072842" lon="-105.230575">
  <ele>1586.09</ele>
  <time>2026-08-27T18:24:41Z</time>
  <course>280.81</course>
  <speed>0.0</speed>
  <fix>3d</fix>
</trkpt>
<trkpt lat="40.0728421" lon="-105.2305751">
  <ele>1586.17</ele>
  <time>2026-08-27T18:24:41Z</time>
  <course>9.16</course>
  <speed>0.01414213562373095</speed>
  <fix>3d</fix>
</trkpt>
<trkpt lat="40.072842" lon="-105.230575">
  <ele>1586.09</ele>
  <time>2026-08-27T18:24:41Z</time>
  <course>280.81</course>
  <speed>0.0</speed>
  <fix>3d</fix>
</trkpt>
<trkpt lat="40.0728421" lon="-105.2305751">
  <ele>1586.17</ele>
  <time>2026-08-27T18:24:41Z</time>
  <course>9.16</course>
  <speed>0.01414213562373095</speed>
  <fix>3d</fix>
</trkpt>
<trkpt lat="40.072842" lon="-105.230575">
  <ele>1586.09</ele>
  <time>2026-08-27T18:24:41Z</time>
  <course>280.81</course>
  <speed>0.0</speed>
  <fix>3d</fix>
</trkpt>
<trkpt lat="40.0728421" lon="-105.2305751">
  <ele>1586.17</ele>
  <time>2026-08-27T18:24:41Z</time>
  <course>9.15</course>
  <speed>0.01414213562373095</speed>
  <fix>3d</fix>
</trkpt>
<trkpt lat="40.072842" lon="-105.230575">
  <ele>1586.09</ele>
  <time>2026-08-27T18:24:41Z</time>
  <course>280.81</course>
  <speed>0.0</speed>
  <fix>3d</fix>
</trkpt>
<trkpt lat="40.0728421" lon="-105.2305751">
  <ele>1586.17</ele>
  <time>2026-08-27T18:24:41Z</time>
  <course>9.15</course>
  <speed>0.01414213562373095</speed>
  <fix>3d</fix>
</trkpt>
<trkpt lat="40.072842" lon="-105.230575">
  <ele>1586.09</ele>
  <time>2026-08-27T18:24:41Z</time>
  <course>280.81</course>
  <speed>0.0</speed>
  <fix>3d</fix>
</trkpt>
<trkpt lat="40.0728421" lon="-105.2305751">
  <ele>1586.17</ele>
  <time>2026-08-27T18:24:41Z</time>
  <course>9.15</course>
  <speed>0.01414213562373095</speed>
  <fix>3d</fix>
</trkpt>
<trkpt lat="40.072842" lon="-105.230575">
  <ele>1586.09</ele>
  <time>2026-08-27T18:24:41Z</time>
  <course>280.81</course>
  <speed>0.0</speed>
  <fix>3d</fix>
</trkpt>
<trkpt lat="40.0728421" lon="-105.2305751">
  <ele>1586.16</ele>
  <time>2026-08-27T18:24:41Z</time>
  <course>9.14</course>
  <speed>0.01414213562373095</speed>
  <fix>3d</fix>
</trkpt>
<trkpt lat="40.072842" lon="-105.230575">
  <ele>1586.09</ele>
  <time>2026-08-27T18:24:41Z</time>
  <course>280.81</course>
  <speed>0.0</speed>
  <fix>3d</fix>
</trkpt>
<trkpt lat="40.0728421" lon="-105.2305751">
  <ele>1586.16</ele>
  <time>2026-08-27T18:24:41Z</time>
  <course>9.14</course>
  <speed>0.01414213562373095</speed>
  <fix>3d</fix>
</trkpt>
<trkpt lat="40.072842" lon="-105.230575">
  <ele>1586.09</ele>
  <time>2026-08-27T18:24:41Z</time>
  <course>280.81</course>
  <speed>0.0</speed>
  <fix>3d</fix>
</trkpt>
<trkpt lat="40.0728421" lon="-105.2305751">
  <ele>1586.16</ele>
  <time>2026-08-27T18:24:41Z</time>
  <course>9.14</course>
  <speed>0.01414213562373095</speed>
  <fix>3d</fix>
</trkpt>
<trkpt lat="40.072842" lon="-105.230575">
  <ele>1586.09</ele>
  <time>2026-08-27T18:24:41Z</time>
  <course>280.81</course>
  <speed>0.0</speed>
  <fix>3d</fix>
</trkpt>
<trkpt lat="40.0728421" lon="-105.2305751">
  <ele>1586.16</ele>
  <time>2026-08-27T18:24:41Z</time>
  <course>9.14</course>
  <speed>0.01414213562373095</speed>
  <fix>3d</fix>
</trkpt>
<trkpt lat="40.072842" lon="-105.230575">
  <ele>1586.09</ele>
  <time>2026-08-27T18:24:41Z</time>
  <course>280.81</course>
  <speed>0.0</speed>
  <fix>3d</fix>
</trkpt>
<trkpt lat="40.0728421" lon="-105.2305751">
  <ele>1586.15</ele>
  <time>2026-08-27T18:24:41Z</time>
  <course>9.13</course>
  <speed>0.01414213562373095</speed>
  <fix>3d</fix>
</trkpt>
<trkpt lat="40.072842" lon="-105.230575">
  <ele>1586.09</ele>
  <time>2026-08-27T18:24:41Z</time>
  <course>280.81</course>
  <speed>0.0</speed>
  <fix>3d</fix>
</trkpt>
<trkpt lat="40.0728421" lon="-105.2305751">
  <ele>1586.14</ele>
  <time>2026-08-27T18:24:41Z</time>
  <course>9.13</course>
  <speed>0.01414213562373095</speed>
  <fix>3d</fix>
</trkpt>
<trkpt lat="40.072842" lon="-105.230575">
  <ele>1586.09</ele>
  <time>2026-08-27T18:24:41Z</time>
  <course>280.81</course>
  <speed>0.0</speed>
  <fix>3d</fix>
</trkpt>
<trkpt lat="40.0728421" lon="-105.2305751">
  <ele>1586.14</ele>
  <time>2026-08-27T18:24:41Z</time>
  <course>9.13</course>
  <speed>0.01414213562373095</speed>
  <fix>3d</fix>
</trkpt>
<trkpt lat="40.072842" lon="-105.230575">
  <ele>1586.09</ele>
  <time>2026-08-27T18:24:41Z</time>
  <course>280.81</course>
  <speed>0.0</speed>
  <fix>3d</fix>
</trkpt>
<trkpt lat="40.0728421" lon="-105.2305751">
  <ele>1586.14</ele>
  <time>2026-08-27T18:24:41Z</time>
  <course>9.12</course>
  <speed>0.01414213562373095</speed>
  <fix>3d</fix>
</trkpt>
<trkpt lat="40.072842" lon="-105.230575">
  <ele>1586.09</ele>
  <time>2026-08-27T18:24:41Z</time>
  <course>280.81</course>
  <speed>0.0</speed>
  <fix>3d</fix>
</trkpt>
<trkpt lat="40.0728421" lon="-105.2305751">
  <ele>1586.14</ele>
  <time>2026-08-27T18:24:41Z</time>
  <course>9.12</course>
  <speed>0.01414213562373095</speed>
  <fix>3d</fix>
</trkpt>
<trkpt lat="40.072842" lon="-105.230575">
  <ele>1586.09</ele>
  <time>2026-08-27T18:24:41Z</time>
  <course>280.81</course>
  <speed>0.0</speed>
  <fix>3d</fix>
</trkpt>
<trkpt lat="40.0728421" lon="-105.2305751">
  <ele>1586.14</ele>
  <time>2026-08-27T18:24:41Z</time>
  <course>9.12</course>
  <speed>0.01414213562373095</speed>
  <fix>3d</fix>
</trkpt>
<trkpt lat="40.072842" lon="-105.230575">
  <ele>1586.09</ele>
  <time>2026-08-27T18:24:41Z</time>
  <course>280.81</course>
  <speed>0.0</speed>
  <fix>3d</fix>
</trkpt>
<trkpt lat="40.0728421" lon="-105.2305751">
  <ele>1586.14</ele>
  <time>2026-08-27T18:24:41Z</time>
  <course>9.12</course>
  <speed>0.01414213562373095</speed>
  <fix>3d</fix>
</trkpt>
<trkpt lat="40.072842" lon="-105.230575">
  <ele>1586.09</ele>
  <time>2026-08-27T18:24:41Z</time>
  <course>280.81</course>
  <speed>0.0</speed>
  <fix>3d</fix>
</trkpt>
<trkpt lat="40.0728421" lon="-105.2305751">
  <ele>1586.15</ele>
  <time>2026-08-27T18:24:41Z</time>
  <course>9.11</course>
  <speed>0.01414213562373095</speed>
  <fix>3d</fix>
</trkpt>
<trkpt lat="40.072842" lon="-105.230575">
  <ele>1586.09</ele>
  <time>2026-08-27T18:24:41Z</time>
  <course>280.81</course>
  <speed>0.0</speed>
  <fix>3d</fix>
</trkpt>
<trkpt lat="40.0728421" lon="-105.2305751">
  <ele>1586.15</ele>
  <time>2026-08-27T18:24:41Z</time>
  <course>9.11</course>
  <speed>0.01414213562373095</speed>
  <fix>3d</fix>
</trkpt>
<trkpt lat="40.072842" lon="-105.230575">
  <ele>1586.09</ele>
  <time>2026-08-27T18:24:41Z</time>
  <course>280.81</course>
  <speed>0.0</speed>
  <fix>3d</fix>
</trkpt>
<trkpt lat="40.0728421" lon="-105.2305751">
  <ele>1586.15</ele>
  <time>2026-08-27T18:24:41Z</time>
  <course>9.11</course>
  <speed>0.01414213562373095</speed>
  <fix>3d</fix>
</trkpt>
<trkpt lat="40.072842" lon="-105.230575">
  <ele>1586.09</ele>
  <time>2026-08-27T18:24:41Z</time>
  <course>280.81</course>
  <speed>0.0</speed>
  <fix>3d</fix>
</trkpt>
<trkpt lat="40.0728421" lon="-105.2305751">
  <ele>1586.16</ele>
  <time>2026-08-27T18:24:41Z</time>
  <course>9.11</course>
  <speed>0.01414213562373095</speed>
  <fix>3d</fix>
</trkpt>
<trkpt lat="40.072842" lon="-105.230575">
  <ele>1586.09</ele>
  <time>2026-08-27T18:24:41Z</time>
  <course>280.81</course>
  <speed>0.0</speed>
  <fix>3d</fix>
</trkpt>
<trkpt lat="40.0728421" lon="-105.2305751">
  <ele>1586.16</ele>
  <time>2026-08-27T18:24:41Z</time>
  <course>9.1</course>
  <speed>0.01414213562373095</speed>
  <fix>3d</fix>
</trkpt>
<trkpt lat="40.072842" lon="-105.230575">
  <ele>1586.09</ele>
  <time>2026-08-27T18:24:41Z</time>
  <course>280.81</course>
  <speed>0.0</speed>
  <fix>3d</fix>
</trkpt>
<trkpt lat="40.0728421" lon="-105.2305751">
  <ele>1586.16</ele>
  <time>2026-08-27T18:24:41Z</time>
  <course>9.1</course>
  <speed>0.01414213562373095</speed>
  <fix>3d</fix>
</trkpt>
<trkpt lat="40.072842" lon="-105.230575">
  <ele>1586.09</ele>
  <time>2026-08-27T18:24:41Z</time>
  <course>280.81</course>
  <speed>0.0</speed>
  <fix>3d</fix>
</trkpt>
<trkpt lat="40.0728421" lon="-105.2305751">
  <ele>1586.16</ele>
  <time>2026-08-27T18:24:41Z</time>
  <course>9.1</course>
  <speed>0.01414213562373095</speed>
  <fix>3d</fix>
</trkpt>
<trkpt lat="40.072842" lon="-105.230575">
  <ele>1586.09</ele>
  <time>2026-08-27T18:24:41Z</time>
  <course>280.81</course>
  <speed>0.0</speed>
  <fix>3d</fix>
</trkpt>
<trkpt lat="40.0728421" lon="-105.2305751">
  <ele>1586.16</ele>
  <time>2026-08-27T18:24:41Z</time>
  <course>9.1</course>
  <speed>0.01414213562373095</speed>
  <fix>3d</fix>
</trkpt>
<trkpt lat="40.072842" lon="-105.230575">
  <ele>1586.09</ele>
  <time>2026-08-27T18:24:41Z</time>
  <course>280.81</course>
  <speed>0.0</speed>
  <fix>3d</fix>
</trkpt>
<trkpt lat="40.0728421" lon="-105.2305751">
  <ele>1586.16</ele>
  <time>2026-08-27T18:24:41Z</time>
  <course>9.09</course>
  <speed>0.01414213562373095</speed>
  <fix>3d</fix>
</trkpt>
<trkpt lat="40.072842" lon="-105.230575">
  <ele>1586.09</ele>
  <time>2026-08-27T18:24:41Z</time>
  <course>280.81</course>
  <speed>0.0</speed>
  <fix>3d</fix>
</trkpt>
<trkpt lat="40.0728421" lon="-105.2305751">
  <ele>1586.16</ele>
  <time>2026-08-27T18:24:41Z</time>
  <course>9.09</course>
  <speed>0.01414213562373095</speed>
  <fix>3d</fix>
</trkpt>
<trkpt lat="40.072842" lon="-105.230575">
  <ele>1586.09</ele>
  <time>2026-08-27T18:24:41Z</time>
  <course>280.81</course>
  <speed>0.0</speed>
  <fix>3d</fix>
</trkpt>
<trkpt lat="40.0728421" lon="-105.2305751">
  <ele>1586.16</ele>
  <time>2026-08-27T18:24:41Z</time>
  <course>9.09</course>
  <speed>0.01414213562373095</speed>
  <fix>3d</fix>
</trkpt>
<trkpt lat="40.072842" lon="-105.230575">
  <ele>1586.09</ele>
  <time>2026-08-27T18:24:41Z</time>
  <course>280.81</course>
  <speed>0.0</speed>
  <fix>3d</fix>
</trkpt>
<trkpt lat="40.0728421" lon="-105.2305751">
  <ele>1586.16</ele>
  <time>2026-08-27T18:24:41Z</time>
  <course>9.09</course>
  <speed>0.01414213562373095</speed>
  <fix>3d</fix>
</trkpt>
<trkpt lat="40.072842" lon="-105.230575">
  <ele>1586.09</ele>
  <time>2026-08-27T18:24:41Z</time>
  <course>280.81</course>
  <speed>0.0</speed>
  <fix>3d</fix>
</trkpt>
<trkpt lat="40.0728421" lon="-105.2305751">
  <ele>1586.16</ele>
  <time>2026-08-27T18:24:41Z</time>
  <course>9.08</course>
  <speed>0.01414213562373095</speed>
  <fix>3d</fix>
</trkpt>
<trkpt lat="40.072842" lon="-105.230575">
  <ele>1586.09</ele>
  <time>2026-08-27T18:24:41Z</time>
  <course>280.81</course>
  <speed>0.0</speed>
  <fix>3d</fix>
</trkpt>
<trkpt lat="40.0728421" lon="-105.2305751">
  <ele>1586.16</ele>
  <time>2026-08-27T18:24:41Z</time>
  <course>9.08</course>
  <speed>0.01414213562373095</speed>
  <fix>3d</fix>
</trkpt>
<trkpt lat="40.072842" lon="-105.230575">
  <ele>1586.09</ele>
  <time>2026-08-27T18:24:41Z</time>
  <course>280.81</course>
  <speed>0.0</speed>
  <fix>3d</fix>
</trkpt>
<trkpt lat="40.0728421" lon="-105.2305751">
  <ele>1586.16</ele>
  <time>2026-08-27T18:24:41Z</time>
  <course>9.08</course>
  <speed>0.01414213562373095</speed>
  <fix>3d</fix>
</trkpt>
<trkpt lat="40.072842" lon="-105.230575">
  <ele>1586.09</ele>
  <time>2026-08-27T18:24:41Z</time>
  <course>280.81</course>
  <speed>0.0</speed>
  <fix>3d</fix>
</trkpt>
<trkpt lat="40.0728421" lon="-105.2305751">
  <ele>1586.16</ele>
  <time>2026-08-27T18:24:41Z</time>
  <course>9.08</course>
  <speed>0.01414213562373095</speed>
  <fix>3d</fix>
</trkpt>
<trkpt lat="40.072842" lon="-105.230575">
  <ele>1586.09</ele>
  <time>2026-08-27T18:24:41Z</time>
  <course>280.81</course>
  <speed>0.0</speed>
  <fix>3d</fix>
</trkpt>
<trkpt lat="40.0728421" lon="-105.2305751">
  <ele>1586.16</ele>
  <time>2026-08-27T18:24:41Z</time>
  <course>9.08</course>
  <speed>0.01414213562373095</speed>
  <fix>3d</fix>
</trkpt>
<trkpt lat="40.072842" lon="-105.230575">
  <ele>1586.09</ele>
  <time>2026-08-27T18:24:41Z</time>
  <course>280.81</course>
  <speed>0.0</speed>
  <fix>3d</fix>
</trkpt>
<trkpt lat="40.0728421" lon="-105.2305751">
  <ele>1586.16</ele>
  <time>2026-08-27T18:24:41Z</time>
  <course>9.07</course>
  <speed>0.01414213562373095</speed>
  <fix>3d</fix>
</trkpt>
<trkpt lat="40.072842" lon="-105.230575">
  <ele>1586.09</ele>
  <time>2026-08-27T18:24:41Z</time>
  <course>280.81</course>
  <speed>0.0</speed>
  <fix>3d</fix>
</trkpt>
<trkpt lat="40.0728421" lon="-105.2305751">
  <ele>1586.16</ele>
  <time>2026-08-27T18:24:41Z</time>
  <course>9.07</course>
  <speed>0.01414213562373095</speed>
  <fix>3d</fix>
</trkpt>
<trkpt lat="40.072842" lon="-105.230575">
  <ele>1586.09</ele>
  <time>2026-08-27T18:24:41Z</time>
  <course>280.81</course>
  <speed>0.0</speed>
  <fix>3d</fix>
</trkpt>
<trkpt lat="40.0728421" lon="-105.2305751">
  <ele>1586.16</ele>
  <time>2026-08-27T18:24:41Z</time>
  <course>9.07</course>
  <speed>0.01414213562373095</speed>
  <fix>3d</fix>
</trkpt>
<trkpt lat="40.072842" lon="-105.230575">
  <ele>1586.09</ele>
  <time>2026-08-27T18:24:41Z</time>
  <course>280.81</course>
  <speed>0.0</speed>
  <fix>3d</fix>
</trkpt>
<trkpt lat="40.0728421" lon="-105.2305751">
  <ele>1586.16</ele>
  <time>2026-08-27T18:24:41Z</time>
  <course>9.07</course>
  <speed>0.01414213562373095</speed>
  <fix>3d</fix>
</trkpt>
<trkpt lat="40.072842" lon="-105.230575">
  <ele>1586.09</ele>
  <time>2026-08-27T18:24:41Z</time>
  <course>280.81</course>
  <speed>0.0</speed>
  <fix>3d</fix>
</trkpt>
<trkpt lat="40.0728421" lon="-105.2305751">
  <ele>1586.16</ele>
  <time>2026-08-27T18:24:41Z</time>
  <course>9.06</course>
  <speed>0.01414213562373095</speed>
  <fix>3d</fix>
</trkpt>
<trkpt lat="40.072842" lon="-105.230575">
  <ele>1586.09</ele>
  <time>2026-08-27T18:24:41Z</time>
  <course>280.81</course>
  <speed>0.0</speed>
  <fix>3d</fix>
</trkpt>
<trkpt lat="40.0728421" lon="-105.2305751">
  <ele>1586.16</ele>
  <time>2026-08-27T18:24:41Z</time>
  <course>9.06</course>
  <speed>0.01414213562373095</speed>
  <fix>3d</fix>
</trkpt>
<trkpt lat="40.072842" lon="-105.230575">
  <ele>1586.09</ele>
  <time>2026-08-27T18:24:41Z</time>
  <course>280.81</course>
  <speed>0.0</speed>
  <fix>3d</fix>
</trkpt>
<trkpt lat="40.0728421" lon="-105.2305751">
  <ele>1586.16</ele>
  <time>2026-08-27T18:24:41Z</time>
  <course>9.06</course>
  <speed>0.01414213562373095</speed>
  <fix>3d</fix>
</trkpt>
<trkpt lat="40.072842" lon="-105.230575">
  <ele>1586.09</ele>
  <time>2026-08-27T18:24:41Z</time>
  <course>280.81</course>
  <speed>0.0</speed>
  <fix>3d</fix>
</trkpt>
<trkpt lat="40.0728421" lon="-105.2305751">
  <ele>1586.16</ele>
  <time>2026-08-27T18:24:41Z</time>
  <course>9.06</course>
  <speed>0.01414213562373095</speed>
  <fix>3d</fix>
</trkpt>
<trkpt lat="40.072842" lon="-105.230575">
  <ele>1586.09</ele>
  <time>2026-08-27T18:24:41Z</time>
  <course>280.81</course>
  <speed>0.0</speed>
  <fix>3d</fix>
</trkpt>
<trkpt lat="40.0728421" lon="-105.2305751">
  <ele>1586.16</ele>
  <time>2026-08-27T18:24:41Z</time>
  <course>9.06</course>
  <speed>0.01414213562373095</speed>
  <fix>3d</fix>
</trkpt>
<trkpt lat="40.072842" lon="-105.230575">
  <ele>1586.09</ele>
  <time>2026-08-27T18:24:41Z</time>
  <course>280.81</course>
  <speed>0.0</speed>
  <fix>3d</fix>
</trkpt>
<trkpt lat="40.0728421" lon="-105.2305751">
  <ele>1586.16</ele>
  <time>2026-08-27T18:24:41Z</time>
  <course>9.05</course>
  <speed>0.01414213562373095</speed>
  <fix>3d</fix>
</trkpt>
<trkpt lat="40.072842" lon="-105.230575">
  <ele>1586.09</ele>
  <time>2026-08-27T18:24:41Z</time>
  <course>280.81</course>
  <speed>0.0</speed>
  <fix>3d</fix>
</trkpt>
<trkpt lat="40.0728421" lon="-105.2305751">
  <ele>1586.16</ele>
  <time>2026-08-27T18:24:41Z</time>
  <course>9.05</course>
  <speed>0.01414213562373095</speed>
  <fix>3d</fix>
</trkpt>
<trkpt lat="40.072842" lon="-105.230575">
  <ele>1586.09</ele>
  <time>2026-08-27T18:24:41Z</time>
  <course>280.81</course>
  <speed>0.0</speed>
  <fix>3d</fix>
</trkpt>
<trkpt lat="40.0728421" lon="-105.2305751">
  <ele>1586.15</ele>
  <time>2026-08-27T18:24:41Z</time>
  <course>9.05</course>
  <speed>0.01414213562373095</speed>
  <fix>3d</fix>
</trkpt>
<trkpt lat="40.072842" lon="-105.230575">
  <ele>1586.09</ele>
  <time>2026-08-27T18:24:41Z</time>
  <course>280.81</course>
  <speed>0.0</speed>
  <fix>3d</fix>
</trkpt>
<trkpt lat="40.0728421" lon="-105.2305751">
  <ele>1586.15</ele>
  <time>2026-08-27T18:24:41Z</time>
  <course>9.05</course>
  <speed>0.01414213562373095</speed>
  <fix>3d</fix>
</trkpt>
<trkpt lat="40.072842" lon="-105.230575">
  <ele>1586.09</ele>
  <time>2026-08-27T18:24:41Z</time>
  <course>280.81</course>
  <speed>0.0</speed>
  <fix>3d</fix>
</trkpt>
<trkpt lat="40.0728421" lon="-105.2305751">
  <ele>1586.15</ele>
  <time>2026-08-27T18:24:41Z</time>
  <course>9.04</course>
  <speed>0.01414213562373095</speed>
  <fix>3d</fix>
</trkpt>
<trkpt lat="40.072842" lon="-105.230575">
  <ele>1586.09</ele>
  <time>2026-08-27T18:24:41Z</time>
  <course>280.81</course>
  <speed>0.0</speed>
  <fix>3d</fix>
</trkpt>
<trkpt lat="40.0728421" lon="-105.2305751">
  <ele>1586.16</ele>
  <time>2026-08-27T18:24:41Z</time>
  <course>9.04</course>
  <speed>0.01414213562373095</speed>
  <fix>3d</fix>
</trkpt>
<trkpt lat="40.072842" lon="-105.230575">
  <ele>1586.09</ele>
  <time>2026-08-27T18:24:41Z</time>
  <course>280.81</course>
  <speed>0.0</speed>
  <fix>3d</fix>
</trkpt>
<trkpt lat="40.0728421" lon="-105.2305751">
  <ele>1586.16</ele>
  <time>2026-08-27T18:24:41Z</time>
  <course>9.04</course>
  <speed>0.01414213562373095</speed>
  <fix>3d</fix>
</trkpt>
<trkpt lat="40.072842" lon="-105.230575">
  <ele>1586.09</ele>
  <time>2026-08-27T18:24:41Z</time>
  <course>280.81</course>
  <speed>0.0</speed>
  <fix>3d</fix>
</trkpt>
<trkpt lat="40.0728421" lon="-105.2305751">
  <ele>1586.17</ele>
  <time>2026-08-27T18:24:41Z</time>
  <course>9.04</course>
  <speed>0.01414213562373095</speed>
  <fix>3d</fix>
</trkpt>
<trkpt lat="40.072842" lon="-105.230575">
  <ele>1586.09</ele>
  <time>2026-08-27T18:24:41Z</time>
  <course>280.81</course>
  <speed>0.0</speed>
  <fix>3d</fix>
</trkpt>
<trkpt lat="40.0728421" lon="-105.2305751">
  <ele>1586.17</ele>
  <time>2026-08-27T18:24:41Z</time>
  <course>9.04</course>
  <speed>0.01414213562373095</speed>
  <fix>3d</fix>
</trkpt>
<trkpt lat="40.072842" lon="-105.230575">
  <ele>1586.09</ele>
  <time>2026-08-27T18:24:41Z</time>
  <course>280.81</course>
  <speed>0.0</speed>
  <fix>3d</fix>
</trkpt>
<trkpt lat="40.0728421" lon="-105.2305751">
  <ele>1586.18</ele>
  <time>2026-08-27T18:24:41Z</time>
  <course>9.03</course>
  <speed>0.01414213562373095</speed>
  <fix>3d</fix>
</trkpt>
<trkpt lat="40.072842" lon="-105.230575">
  <ele>1586.09</ele>
  <time>2026-08-27T18:24:41Z</time>
  <course>280.81</course>
  <speed>0.0</speed>
  <fix>3d</fix>
</trkpt>
<trkpt lat="40.0728421" lon="-105.2305751">
  <ele>1586.18</ele>
  <time>2026-08-27T18:24:41Z</time>
  <course>9.03</course>
  <speed>0.01414213562373095</speed>
  <fix>3d</fix>
</trkpt>
<trkpt lat="40.072842" lon="-105.230575">
  <ele>1586.09</ele>
  <time>2026-08-27T18:24:41Z</time>
  <course>280.81</course>
  <speed>0.0</speed>
  <fix>3d</fix>
</trkpt>
<trkpt lat="40.0728421" lon="-105.2305751">
  <ele>1586.18</ele>
  <time>2026-08-27T18:24:41Z</time>
  <course>9.03</course>
  <speed>0.01414213562373095</speed>
  <fix>3d</fix>
</trkpt>
<trkpt lat="40.072842" lon="-105.230575">
  <ele>1586.09</ele>
  <time>2026-08-27T18:24:41Z</time>
  <course>280.81</course>
  <speed>0.0</speed>
  <fix>3d</fix>
</trkpt>
<trkpt lat="40.0728421" lon="-105.2305751">
  <ele>1586.18</ele>
  <time>2026-08-27T18:24:41Z</time>
  <course>9.03</course>
  <speed>0.01414213562373095</speed>
  <fix>3d</fix>
</trkpt>
<trkpt lat="40.072842" lon="-105.230575">
  <ele>1586.09</ele>
  <time>2026-08-27T18:24:41Z</time>
  <course>297.22</course>
  <speed>0.0</speed>
  <fix>3d</fix>
</trkpt>
<trkpt lat="40.0728421" lon="-105.2305751">
  <ele>1586.18</ele>
  <time>2026-08-27T18:24:41Z</time>
  <course>9.02</course>
  <speed>0.01414213562373095</speed>
  <fix>3d</fix>
</trkpt>
<trkpt lat="40.072842" lon="-105.230575">
  <ele>1586.09</ele>
  <time>2026-08-27T18:24:41Z</time>
  <course>290.71</course>
  <speed>0.0</speed>
  <fix>3d</fix>
</trkpt>
<trkpt lat="40.0728421" lon="-105.2305751">
  <ele>1586.18</ele>
  <time>2026-08-27T18:24:41Z</time>
  <course>9.02</course>
  <speed>0.01414213562373095</speed>
  <fix>3d</fix>
</trkpt>
<trkpt lat="40.072842" lon="-105.230575">
  <ele>1586.09</ele>
  <time>2026-08-27T18:24:41Z</time>
  <course>275.24</course>
  <speed>0.0</speed>
  <fix>3d</fix>
</trkpt>
<trkpt lat="40.0728421" lon="-105.2305751">
  <ele>1586.18</ele>
  <time>2026-08-27T18:24:41Z</time>
  <course>9.02</course>
  <speed>0.01414213562373095</speed>
  <fix>3d</fix>
</trkpt>
<trkpt lat="40.072842" lon="-105.230575">
  <ele>1586.09</ele>
  <time>2026-08-27T18:24:41Z</time>
  <course>280.19</course>
  <speed>0.0</speed>
  <fix>3d</fix>
</trkpt>
<trkpt lat="40.0728421" lon="-105.2305751">
  <ele>1586.18</ele>
  <time>2026-08-27T18:24:41Z</time>
  <course>9.02</course>
  <speed>0.01414213562373095</speed>
  <fix>3d</fix>
</trkpt>
<trkpt lat="40.072842" lon="-105.230575">
  <ele>1586.09</ele>
  <time>2026-08-27T18:24:41Z</time>
  <course>281.74</course>
  <speed>0.0</speed>
  <fix>3d</fix>
</trkpt>
<trkpt lat="40.0728421" lon="-105.2305751">
  <ele>1586.18</ele>
  <time>2026-08-27T18:24:41Z</time>
  <course>9.02</course>
  <speed>0.01414213562373095</speed>
  <fix>3d</fix>
</trkpt>
<trkpt lat="40.072842" lon="-105.230575">
  <ele>1586.09</ele>
  <time>2026-08-27T18:24:41Z</time>
  <course>280.79</course>
  <speed>0.0</speed>
  <fix>3d</fix>
</trkpt>
<trkpt lat="40.0728421" lon="-105.2305751">
  <ele>1586.18</ele>
  <time>2026-08-27T18:24:41Z</time>
  <course>9.01</course>
  <speed>0.01414213562373095</speed>
  <fix>3d</fix>
</trkpt>
<trkpt lat="40.072842" lon="-105.230575">
  <ele>1586.09</ele>
  <time>2026-08-27T18:24:41Z</time>
  <course>280.69</course>
  <speed>0.0</speed>
  <fix>3d</fix>
</trkpt>
<trkpt lat="40.0728421" lon="-105.2305751">
  <ele>1586.18</ele>
  <time>2026-08-27T18:24:41Z</time>
  <course>9.01</course>
  <speed>0.01414213562373095</speed>
  <fix>3d</fix>
</trkpt>
<trkpt lat="40.072842" lon="-105.230575">
  <ele>1586.09</ele>
  <time>2026-08-27T18:24:41Z</time>
  <course>280.83</course>
  <speed>0.0</speed>
  <fix>3d</fix>
</trkpt>
<trkpt lat="40.0728421" lon="-105.2305751">
  <ele>1586.17</ele>
  <time>2026-08-27T18:24:41Z</time>
  <course>9.01</course>
  <speed>0.01414213562373095</speed>
  <fix>3d</fix>
</trkpt>
<trkpt lat="40.072842" lon="-105.230575">
  <ele>1586.09</ele>
  <time>2026-08-27T18:24:41Z</time>
  <course>280.83</course>
  <speed>0.0</speed>
  <fix>3d</fix>
</trkpt>
<trkpt lat="40.0728421" lon="-105.2305751">
  <ele>1586.17</ele>
  <time>2026-08-27T18:24:41Z</time>
  <course>9.01</course>
  <speed>0.01414213562373095</speed>
  <fix>3d</fix>
</trkpt>
<trkpt lat="40.072842" lon="-105.230575">
  <ele>1586.09</ele>
  <time>2026-08-27T18:24:41Z</time>
  <course>280.81</course>
  <speed>0.0</speed>
  <fix>3d</fix>
</trkpt>
<trkpt lat="40.0728421" lon="-105.2305751">
  <ele>1586.17</ele>
  <time>2026-08-27T18:24:41Z</time>
  <course>9.01</course>
  <speed>0.01414213562373095</speed>
  <fix>3d</fix>
</trkpt>
<trkpt lat="40.072842" lon="-105.230575">
  <ele>1586.09</ele>
  <time>2026-08-27T18:24:41Z</time>
  <course>108.14</course>
  <speed>0.0</speed>
  <fix>3d</fix>
</trkpt>
<trkpt lat="40.0728421" lon="-105.2305751">
  <ele>1586.16</ele>
  <time>2026-08-27T18:24:41Z</time>
  <course>9.0</course>
  <speed>0.01414213562373095</speed>
  <fix>3d</fix>
</trkpt>
<trkpt lat="40.072842" lon="-105.230575">
  <ele>1586.09</ele>
  <time>2026-08-27T18:24:41Z</time>
  <course>99.68</course>
  <speed>0.0</speed>
  <fix>3d</fix>
</trkpt>
<trkpt lat="40.0728421" lon="-105.2305751">
  <ele>1586.16</ele>
  <time>2026-08-27T18:24:41Z</time>
  <course>9.0</course>
  <speed>0.01414213562373095</speed>
  <fix>3d</fix>
</trkpt>
<trkpt lat="40.072842" lon="-105.230575">
  <ele>1586.09</ele>
  <time>2026-08-27T18:24:41Z</time>
  <course>324.79</course>
  <speed>0.0</speed>
  <fix>3d</fix>
</trkpt>
<trkpt lat="40.0728421" lon="-105.2305751">
  <ele>1586.16</ele>
  <time>2026-08-27T18:24:41Z</time>
  <course>9.0</course>
  <speed>0.01414213562373095</speed>
  <fix>3d</fix>
</trkpt>
<trkpt lat="40.072842" lon="-105.230575">
  <ele>1586.09</ele>
  <time>2026-08-27T18:24:41Z</time>
  <course>267.07</course>
  <speed>0.0</speed>
  <fix>3d</fix>
</trkpt>
<trkpt lat="40.0728421" lon="-105.2305751">
  <ele>1586.17</ele>
  <time>2026-08-27T18:24:41Z</time>
  <course>9.0</course>
  <speed>0.01414213562373095</speed>
  <fix>3d</fix>
</trkpt>
<trkpt lat="40.072842" lon="-105.230575">
  <ele>1586.09</ele>
  <time>2026-08-27T18:24:41Z</time>
  <course>139.34</course>
  <speed>0.0</speed>
  <fix>3d</fix>
</trkpt>
<trkpt lat="40.0728421" lon="-105.2305751">
  <ele>1586.17</ele>
  <time>2026-08-27T18:24:41Z</time>
  <course>9.0</course>
  <speed>0.01414213562373095</speed>
  <fix>3d</fix>
</trkpt>
<trkpt lat="40.072842" lon="-105.230575">
  <ele>1586.09</ele>
  <time>2026-08-27T18:24:41Z</time>
  <course>3.57</course>
  <speed>0.0</speed>
  <fix>3d</fix>
</trkpt>
<trkpt lat="40.0728421" lon="-105.2305751">
  <ele>1586.17</ele>
  <time>2026-08-27T18:24:41Z</time>
  <course>9.0</course>
  <speed>0.01414213562373095</speed>
  <fix>3d</fix>
</trkpt>
<trkpt lat="40.072842" lon="-105.230575">
  <ele>1586.09</ele>
  <time>2026-08-27T18:24:41Z</time>
  <course>280.29</course>
  <speed>0.0</speed>
  <fix>3d</fix>
</trkpt>
<trkpt lat="40.0728421" lon="-105.2305751">
  <ele>1586.17</ele>
  <time>2026-08-27T18:24:41Z</time>
  <course>8.99</course>
  <speed>0.01414213562373095</speed>
  <fix>3d</fix>
</trkpt>
<trkpt lat="40.072842" lon="-105.230575">
  <ele>1586.09</ele>
  <time>2026-08-27T18:24:41Z</time>
  <course>258.42</course>
  <speed>0.0</speed>
  <fix>3d</fix>
</trkpt>
<trkpt lat="40.0728421" lon="-105.2305751">
  <ele>1586.17</ele>
  <time>2026-08-27T18:24:41Z</time>
  <course>8.99</course>
  <speed>0.01414213562373095</speed>
  <fix>3d</fix>
</trkpt>
<trkpt lat="40.072842" lon="-105.230575">
  <ele>1586.09</ele>
  <time>2026-08-27T18:24:41Z</time>
  <course>263.55</course>
  <speed>0.0</speed>
  <fix>3d</fix>
</trkpt>
<trkpt lat="40.0728421" lon="-105.2305751">
  <ele>1586.17</ele>
  <time>2026-08-27T18:24:41Z</time>
  <course>8.99</course>
  <speed>0.01414213562373095</speed>
  <fix>3d</fix>
</trkpt>
<trkpt lat="40.072842" lon="-105.230575">
  <ele>1586.09</ele>
  <time>2026-08-27T18:24:41Z</time>
  <course>267.6</course>
  <speed>0.0</speed>
  <fix>3d</fix>
</trkpt>
<trkpt lat="40.0728421" lon="-105.2305751">
  <ele>1586.18</ele>
  <time>2026-08-27T18:24:41Z</time>
  <course>8.99</course>
  <speed>0.01414213562373095</speed>
  <fix>3d</fix>
</trkpt>
<trkpt lat="40.072842" lon="-105.230575">
  <ele>1586.09</ele>
  <time>2026-08-27T18:24:41Z</time>
  <course>266.13</course>
  <speed>0.0</speed>
  <fix>3d</fix>
</trkpt>
<trkpt lat="40.0728421" lon="-105.2305751">
  <ele>1586.18</ele>
  <time>2026-08-27T18:24:41Z</time>
  <course>8.99</course>
  <speed>0.01414213562373095</speed>
  <fix>3d</fix>
</trkpt>
<trkpt lat="40.072842" lon="-105.230575">
  <ele>1586.09</ele>
  <time>2026-08-27T18:24:41Z</time>
  <course>265.82</course>
  <speed>0.0</speed>
  <fix>3d</fix>
</trkpt>
<trkpt lat="40.0728421" lon="-105.2305751">
  <ele>1586.19</ele>
  <time>2026-08-27T18:24:41Z</time>
  <course>8.98</course>
  <speed>0.01414213562373095</speed>
  <fix>3d</fix>
</trkpt>
<trkpt lat="40.072842" lon="-105.230575">
  <ele>1586.09</ele>
  <time>2026-08-27T18:24:41Z</time>
  <course>266.05</course>
  <speed>0.0</speed>
  <fix>3d</fix>
</trkpt>
<trkpt lat="40.0728421" lon="-105.2305751">
  <ele>1586.19</ele>
  <time>2026-08-27T18:24:41Z</time>
  <course>8.98</course>
  <speed>0.01414213562373095</speed>
  <fix>3d</fix>
</trkpt>
<trkpt lat="40.072842" lon="-105.230575">
  <ele>1586.09</ele>
  <time>2026-08-27T18:24:41Z</time>
  <course>266.06</course>
  <speed>0.0</speed>
  <fix>3d</fix>
</trkpt>
<trkpt lat="40.0728421" lon="-105.2305751">
  <ele>1586.19</ele>
  <time>2026-08-27T18:24:41Z</time>
  <course>8.98</course>
  <speed>0.01414213562373095</speed>
  <fix>3d</fix>
</trkpt>
<trkpt lat="40.072842" lon="-105.230575">
  <ele>1586.09</ele>
  <time>2026-08-27T18:24:41Z</time>
  <course>266.03</course>
  <speed>0.0</speed>
  <fix>3d</fix>
</trkpt>
<trkpt lat="40.0728421" lon="-105.2305751">
  <ele>1586.18</ele>
  <time>2026-08-27T18:24:42Z</time>
  <course>8.98</course>
  <speed>0.01414213562373095</speed>
  <fix>3d</fix>
</trkpt>
<trkpt lat="40.072842" lon="-105.230575">
  <ele>1586.09</ele>
  <time>2026-08-27T18:24:42Z</time>
  <course>297.63</course>
  <speed>0.0</speed>
  <fix>3d</fix>
</trkpt>
<trkpt lat="40.0728421" lon="-105.2305751">
  <ele>1586.18</ele>
  <time>2026-08-27T18:24:42Z</time>
  <course>8.98</course>
  <speed>0.01414213562373095</speed>
  <fix>3d</fix>
</trkpt>
<trkpt lat="40.072842" lon="-105.230575">
  <ele>1586.09</ele>
  <time>2026-08-27T18:24:42Z</time>
  <course>296.05</course>
  <speed>0.0</speed>
  <fix>3d</fix>
</trkpt>
<trkpt lat="40.0728421" lon="-105.2305751">
  <ele>1586.18</ele>
  <time>2026-08-27T18:24:42Z</time>
  <course>8.98</course>
  <speed>0.01414213562373095</speed>
  <fix>3d</fix>
</trkpt>
<trkpt lat="40.072842" lon="-105.230575">
  <ele>1586.09</ele>
  <time>2026-08-27T18:24:42Z</time>
  <course>276.98</course>
  <speed>0.0</speed>
  <fix>3d</fix>
</trkpt>
<trkpt lat="40.0728421" lon="-105.2305751">
  <ele>1586.17</ele>
  <time>2026-08-27T18:24:42Z</time>
  <course>8.97</course>
  <speed>0.01414213562373095</speed>
  <fix>3d</fix>
</trkpt>
<trkpt lat="40.072842" lon="-105.230575">
  <ele>1586.09</ele>
  <time>2026-08-27T18:24:42Z</time>
  <course>211.58</course>
  <speed>0.0</speed>
  <fix>3d</fix>
</trkpt>
<trkpt lat="40.0728421" lon="-105.2305751">
  <ele>1586.17</ele>
  <time>2026-08-27T18:24:42Z</time>
  <course>8.97</course>
  <speed>0.01414213562373095</speed>
  <fix>3d</fix>
</trkpt>
<trkpt lat="40.072842" lon="-105.230575">
  <ele>1586.09</ele>
  <time>2026-08-27T18:24:42Z</time>
  <course>85.93</course>
  <speed>0.0</speed>
  <fix>3d</fix>
</trkpt>
<trkpt lat="40.0728421" lon="-105.2305751">
  <ele>1586.16</ele>
  <time>2026-08-27T18:24:42Z</time>
  <course>8.97</course>
  <speed>0.01414213562373095</speed>
  <fix>3d</fix>
</trkpt>
<trkpt lat="40.072842" lon="-105.230575">
  <ele>1586.09</ele>
  <time>2026-08-27T18:24:42Z</time>
  <course>315.81</course>
  <speed>0.0</speed>
  <fix>3d</fix>
</trkpt>
<trkpt lat="40.0728421" lon="-105.2305751">
  <ele>1586.16</ele>
  <time>2026-08-27T18:24:42Z</time>
  <course>8.97</course>
  <speed>0.01414213562373095</speed>
  <fix>3d</fix>
</trkpt>
<trkpt lat="40.072842" lon="-105.230575">
  <ele>1586.09</ele>
  <time>2026-08-27T18:24:42Z</time>
  <course>286.08</course>
  <speed>0.0</speed>
  <fix>3d</fix>
</trkpt>
<trkpt lat="40.0728421" lon="-105.2305751">
  <ele>1586.16</ele>
  <time>2026-08-27T18:24:42Z</time>
  <course>8.97</course>
  <speed>0.01414213562373095</speed>
  <fix>3d</fix>
</trkpt>
<trkpt lat="40.072842" lon="-105.230575">
  <ele>1586.09</ele>
  <time>2026-08-27T18:24:42Z</time>
  <course>272.23</course>
  <speed>0.0</speed>
  <fix>3d</fix>
</trkpt>
<trkpt lat="40.0728421" lon="-105.2305751">
  <ele>1586.16</ele>
  <time>2026-08-27T18:24:42Z</time>
  <course>8.96</course>
  <speed>0.01414213562373095</speed>
  <fix>3d</fix>
</trkpt>
<trkpt lat="40.072842" lon="-105.230575">
  <ele>1586.09</ele>
  <time>2026-08-27T18:24:42Z</time>
  <course>281.3</course>
  <speed>0.0</speed>
  <fix>3d</fix>
</trkpt>
<trkpt lat="40.0728421" lon="-105.2305751">
  <ele>1586.16</ele>
  <time>2026-08-27T18:24:42Z</time>
  <course>8.96</course>
  <speed>0.01414213562373095</speed>
  <fix>3d</fix>
</trkpt>
<trkpt lat="40.072842" lon="-105.230575">
  <ele>1586.09</ele>
  <time>2026-08-27T18:24:42Z</time>
  <course>282.08</course>
  <speed>0.0</speed>
  <fix>3d</fix>
</trkpt>
<trkpt lat="40.0728421" lon="-105.2305751">
  <ele>1586.16</ele>
  <time>2026-08-27T18:24:42Z</time>
  <course>8.96</course>
  <speed>0.01414213562373095</speed>
  <fix>3d</fix>
</trkpt>
<trkpt lat="40.072842" lon="-105.230575">
  <ele>1586.09</ele>
  <time>2026-08-27T18:24:42Z</time>
  <course>280.61</course>
  <speed>0.0</speed>
  <fix>3d</fix>
</trkpt>
<trkpt lat="40.0728421" lon="-105.2305751">
  <ele>1586.16</ele>
  <time>2026-08-27T18:24:42Z</time>
  <course>8.96</course>
  <speed>0.01414213562373095</speed>
  <fix>3d</fix>
</trkpt>
<trkpt lat="40.072842" lon="-105.230575">
  <ele>1586.09</ele>
  <time>2026-08-27T18:24:42Z</time>
  <course>280.67</course>
  <speed>0.0</speed>
  <fix>3d</fix>
</trkpt>
<trkpt lat="40.0728421" lon="-105.2305751">
  <ele>1586.16</ele>
  <time>2026-08-27T18:24:42Z</time>
  <course>8.96</course>
  <speed>0.01414213562373095</speed>
  <fix>3d</fix>
</trkpt>
<trkpt lat="40.072842" lon="-105.230575">
  <ele>1586.09</ele>
  <time>2026-08-27T18:24:42Z</time>
  <course>280.86</course>
  <speed>0.0</speed>
  <fix>3d</fix>
</trkpt>
<trkpt lat="40.0728421" lon="-105.2305751">
  <ele>1586.16</ele>
  <time>2026-08-27T18:24:42Z</time>
  <course>8.96</course>
  <speed>0.01414213562373095</speed>
  <fix>3d</fix>
</trkpt>
<trkpt lat="40.072842" lon="-105.230575">
  <ele>1586.09</ele>
  <time>2026-08-27T18:24:42Z</time>
  <course>280.83</course>
  <speed>0.0</speed>
  <fix>3d</fix>
</trkpt>
<trkpt lat="40.0728421" lon="-105.2305751">
  <ele>1586.17</ele>
  <time>2026-08-27T18:24:42Z</time>
  <course>8.95</course>
  <speed>0.01414213562373095</speed>
  <fix>3d</fix>
</trkpt>
<trkpt lat="40.072842" lon="-105.230575">
  <ele>1586.09</ele>
  <time>2026-08-27T18:24:42Z</time>
  <course>280.81</course>
  <speed>0.0</speed>
  <fix>3d</fix>
</trkpt>
<trkpt lat="40.0728421" lon="-105.2305751">
  <ele>1586.17</ele>
  <time>2026-08-27T18:24:42Z</time>
  <course>8.95</course>
  <speed>0.01414213562373095</speed>
  <fix>3d</fix>
</trkpt>
<trkpt lat="40.072842" lon="-105.230575">
  <ele>1586.09</ele>
  <time>2026-08-27T18:24:42Z</time>
  <course>280.81</course>
  <speed>0.0</speed>
  <fix>3d</fix>
</trkpt>
<trkpt lat="40.0728421" lon="-105.2305751">
  <ele>1586.17</ele>
  <time>2026-08-27T18:24:42Z</time>
  <course>8.95</course>
  <speed>0.01414213562373095</speed>
  <fix>3d</fix>
</trkpt>
<trkpt lat="40.072842" lon="-105.230575">
  <ele>1586.09</ele>
  <time>2026-08-27T18:24:42Z</time>
  <course>280.81</course>
  <speed>0.0</speed>
  <fix>3d</fix>
</trkpt>
<trkpt lat="40.0728421" lon="-105.2305751">
  <ele>1586.17</ele>
  <time>2026-08-27T18:24:42Z</time>
  <course>8.95</course>
  <speed>0.01414213562373095</speed>
  <fix>3d</fix>
</trkpt>
<trkpt lat="40.072842" lon="-105.230575">
  <ele>1586.09</ele>
  <time>2026-08-27T18:24:42Z</time>
  <course>280.81</course>
  <speed>0.0</speed>
  <fix>3d</fix>
</trkpt>
<trkpt lat="40.0728421" lon="-105.2305751">
  <ele>1586.17</ele>
  <time>2026-08-27T18:24:42Z</time>
  <course>8.95</course>
  <speed>0.01414213562373095</speed>
  <fix>3d</fix>
</trkpt>
<trkpt lat="40.072842" lon="-105.230575">
  <ele>1586.09</ele>
  <time>2026-08-27T18:24:42Z</time>
  <course>280.81</course>
  <speed>0.0</speed>
  <fix>3d</fix>
</trkpt>
<trkpt lat="40.0728421" lon="-105.2305751">
  <ele>1586.17</ele>
  <time>2026-08-27T18:24:42Z</time>
  <course>8.94</course>
  <speed>0.01414213562373095</speed>
  <fix>3d</fix>
</trkpt>
<trkpt lat="40.072842" lon="-105.230575">
  <ele>1586.09</ele>
  <time>2026-08-27T18:24:42Z</time>
  <course>280.81</course>
  <speed>0.0</speed>
  <fix>3d</fix>
</trkpt>
<trkpt lat="40.0728421" lon="-105.2305751">
  <ele>1586.17</ele>
  <time>2026-08-27T18:24:42Z</time>
  <course>8.94</course>
  <speed>0.01414213562373095</speed>
  <fix>3d</fix>
</trkpt>
<trkpt lat="40.072842" lon="-105.230575">
  <ele>1586.09</ele>
  <time>2026-08-27T18:24:42Z</time>
  <course>280.81</course>
  <speed>0.0</speed>
  <fix>3d</fix>
</trkpt>
<trkpt lat="40.0728421" lon="-105.2305751">
  <ele>1586.18</ele>
  <time>2026-08-27T18:24:42Z</time>
  <course>8.94</course>
  <speed>0.01414213562373095</speed>
  <fix>3d</fix>
</trkpt>
<trkpt lat="40.072842" lon="-105.230575">
  <ele>1586.09</ele>
  <time>2026-08-27T18:24:42Z</time>
  <course>280.81</course>
  <speed>0.0</speed>
  <fix>3d</fix>
</trkpt>
<trkpt lat="40.0728421" lon="-105.2305751">
  <ele>1586.18</ele>
  <time>2026-08-27T18:24:42Z</time>
  <course>8.94</course>
  <speed>0.01414213562373095</speed>
  <fix>3d</fix>
</trkpt>
<trkpt lat="40.072842" lon="-105.230575">
  <ele>1586.09</ele>
  <time>2026-08-27T18:24:42Z</time>
  <course>280.81</course>
  <speed>0.0</speed>
  <fix>3d</fix>
</trkpt>
<trkpt lat="40.0728421" lon="-105.2305751">
  <ele>1586.18</ele>
  <time>2026-08-27T18:24:42Z</time>
  <course>8.94</course>
  <speed>0.01414213562373095</speed>
  <fix>3d</fix>
</trkpt>
<trkpt lat="40.072842" lon="-105.230575">
  <ele>1586.09</ele>
  <time>2026-08-27T18:24:42Z</time>
  <course>280.81</course>
  <speed>0.0</speed>
  <fix>3d</fix>
</trkpt>
<trkpt lat="40.0728421" lon="-105.2305751">
  <ele>1586.18</ele>
  <time>2026-08-27T18:24:42Z</time>
  <course>8.94</course>
  <speed>0.01414213562373095</speed>
  <fix>3d</fix>
</trkpt>
<trkpt lat="40.072842" lon="-105.230575">
  <ele>1586.09</ele>
  <time>2026-08-27T18:24:42Z</time>
  <course>280.81</course>
  <speed>0.0</speed>
  <fix>3d</fix>
</trkpt>
<trkpt lat="40.0728421" lon="-105.2305751">
  <ele>1586.19</ele>
  <time>2026-08-27T18:24:42Z</time>
  <course>8.93</course>
  <speed>0.01414213562373095</speed>
  <fix>3d</fix>
</trkpt>
<trkpt lat="40.072842" lon="-105.230575">
  <ele>1586.09</ele>
  <time>2026-08-27T18:24:42Z</time>
  <course>296.23</course>
  <speed>0.0</speed>
  <fix>3d</fix>
</trkpt>
<trkpt lat="40.0728421" lon="-105.2305751">
  <ele>1586.19</ele>
  <time>2026-08-27T18:24:42Z</time>
  <course>8.93</course>
  <speed>0.01414213562373095</speed>
  <fix>3d</fix>
</trkpt>
<trkpt lat="40.072842" lon="-105.230575">
  <ele>1586.09</ele>
  <time>2026-08-27T18:24:42Z</time>
  <course>290.1</course>
  <speed>0.0</speed>
  <fix>3d</fix>
</trkpt>
<trkpt lat="40.0728421" lon="-105.2305751">
  <ele>1586.19</ele>
  <time>2026-08-27T18:24:42Z</time>
  <course>8.93</course>
  <speed>0.01414213562373095</speed>
  <fix>3d</fix>
</trkpt>
<trkpt lat="40.072842" lon="-105.230575">
  <ele>1586.09</ele>
  <time>2026-08-27T18:24:42Z</time>
  <course>275.23</course>
  <speed>0.0</speed>
  <fix>3d</fix>
</trkpt>
<trkpt lat="40.0728421" lon="-105.2305751">
  <ele>1586.19</ele>
  <time>2026-08-27T18:24:42Z</time>
  <course>8.93</course>
  <speed>0.01414213562373095</speed>
  <fix>3d</fix>
</trkpt>
<trkpt lat="40.072842" lon="-105.230575">
  <ele>1586.09</ele>
  <time>2026-08-27T18:24:42Z</time>
  <course>280.3</course>
  <speed>0.0</speed>
  <fix>3d</fix>
</trkpt>
<trkpt lat="40.0728421" lon="-105.2305751">
  <ele>1586.19</ele>
  <time>2026-08-27T18:24:42Z</time>
  <course>8.93</course>
  <speed>0.01414213562373095</speed>
  <fix>3d</fix>
</trkpt>
<trkpt lat="40.072842" lon="-105.230575">
  <ele>1586.09</ele>
  <time>2026-08-27T18:24:42Z</time>
  <course>281.72</course>
  <speed>0.0</speed>
  <fix>3d</fix>
</trkpt>
<trkpt lat="40.0728421" lon="-105.2305751">
  <ele>1586.19</ele>
  <time>2026-08-27T18:24:42Z</time>
  <course>8.93</course>
  <speed>0.01414213562373095</speed>
  <fix>3d</fix>
</trkpt>
<trkpt lat="40.072842" lon="-105.230575">
  <ele>1586.09</ele>
  <time>2026-08-27T18:24:42Z</time>
  <course>280.77</course>
  <speed>0.0</speed>
  <fix>3d</fix>
</trkpt>
<trkpt lat="40.0728421" lon="-105.2305751">
  <ele>1586.19</ele>
  <time>2026-08-27T18:24:42Z</time>
  <course>8.93</course>
  <speed>0.01414213562373095</speed>
  <fix>3d</fix>
</trkpt>
<trkpt lat="40.072842" lon="-105.230575">
  <ele>1586.09</ele>
  <time>2026-08-27T18:24:42Z</time>
  <course>280.7</course>
  <speed>0.0</speed>
  <fix>3d</fix>
</trkpt>
<trkpt lat="40.0728421" lon="-105.2305751">
  <ele>1586.19</ele>
  <time>2026-08-27T18:24:42Z</time>
  <course>8.92</course>
  <speed>0.01414213562373095</speed>
  <fix>3d</fix>
</trkpt>
<trkpt lat="40.072842" lon="-105.230575">
  <ele>1586.09</ele>
  <time>2026-08-27T18:24:42Z</time>
  <course>280.83</course>
  <speed>0.0</speed>
  <fix>3d</fix>
</trkpt>
<trkpt lat="40.0728421" lon="-105.2305751">
  <ele>1586.19</ele>
  <time>2026-08-27T18:24:42Z</time>
  <course>8.92</course>
  <speed>0.01414213562373095</speed>
  <fix>3d</fix>
</trkpt>
<trkpt lat="40.072842" lon="-105.230575">
  <ele>1586.09</ele>
  <time>2026-08-27T18:24:42Z</time>
  <course>280.83</course>
  <speed>0.0</speed>
  <fix>3d</fix>
</trkpt>
<trkpt lat="40.0728421" lon="-105.2305751">
  <ele>1586.18</ele>
  <time>2026-08-27T18:24:42Z</time>
  <course>8.92</course>
  <speed>0.01414213562373095</speed>
  <fix>3d</fix>
</trkpt>
<trkpt lat="40.072842" lon="-105.230575">
  <ele>1586.09</ele>
  <time>2026-08-27T18:24:42Z</time>
  <course>280.81</course>
  <speed>0.0</speed>
  <fix>3d</fix>
</trkpt>
<trkpt lat="40.0728421" lon="-105.2305751">
  <ele>1586.19</ele>
  <time>2026-08-27T18:24:42Z</time>
  <course>8.92</course>
  <speed>0.01414213562373095</speed>
  <fix>3d</fix>
</trkpt>
<trkpt lat="40.072842" lon="-105.230575">
  <ele>1586.09</ele>
  <time>2026-08-27T18:24:42Z</time>
  <course>280.81</course>
  <speed>0.0</speed>
  <fix>3d</fix>
</trkpt>
<trkpt lat="40.0728421" lon="-105.2305751">
  <ele>1586.19</ele>
  <time>2026-08-27T18:24:42Z</time>
  <course>8.92</course>
  <speed>0.01414213562373095</speed>
  <fix>3d</fix>
</trkpt>
<trkpt lat="40.072842" lon="-105.230575">
  <ele>1586.09</ele>
  <time>2026-08-27T18:24:42Z</time>
  <course>280.81</course>
  <speed>0.0</speed>
  <fix>3d</fix>
</trkpt>
<trkpt lat="40.0728421" lon="-105.2305751">
  <ele>1586.19</ele>
  <time>2026-08-27T18:24:42Z</time>
  <course>8.92</course>
  <speed>0.01414213562373095</speed>
  <fix>3d</fix>
</trkpt>
<trkpt lat="40.072842" lon="-105.230575">
  <ele>1586.09</ele>
  <time>2026-08-27T18:24:42Z</time>
  <course>280.81</course>
  <speed>0.0</speed>
  <fix>3d</fix>
</trkpt>
<trkpt lat="40.0728421" lon="-105.2305751">
  <ele>1586.19</ele>
  <time>2026-08-27T18:24:42Z</time>
  <course>8.91</course>
  <speed>0.01414213562373095</speed>
  <fix>3d</fix>
</trkpt>
<trkpt lat="40.072842" lon="-105.230575">
  <ele>1586.09</ele>
  <time>2026-08-27T18:24:42Z</time>
  <course>280.81</course>
  <speed>0.0</speed>
  <fix>3d</fix>
</trkpt>
<trkpt lat="40.0728421" lon="-105.2305751">
  <ele>1586.19</ele>
  <time>2026-08-27T18:24:42Z</time>
  <course>8.91</course>
  <speed>0.01414213562373095</speed>
  <fix>3d</fix>
</trkpt>
<trkpt lat="40.072842" lon="-105.230575">
  <ele>1586.09</ele>
  <time>2026-08-27T18:24:42Z</time>
  <course>280.81</course>
  <speed>0.0</speed>
  <fix>3d</fix>
</trkpt>
<trkpt lat="40.0728421" lon="-105.2305751">
  <ele>1586.19</ele>
  <time>2026-08-27T18:24:42Z</time>
  <course>8.91</course>
  <speed>0.01414213562373095</speed>
  <fix>3d</fix>
</trkpt>
<trkpt lat="40.072842" lon="-105.230575">
  <ele>1586.09</ele>
  <time>2026-08-27T18:24:42Z</time>
  <course>280.81</course>
  <speed>0.0</speed>
  <fix>3d</fix>
</trkpt>
<trkpt lat="40.0728421" lon="-105.2305751">
  <ele>1586.19</ele>
  <time>2026-08-27T18:24:42Z</time>
  <course>8.91</course>
  <speed>0.01414213562373095</speed>
  <fix>3d</fix>
</trkpt>
<trkpt lat="40.072842" lon="-105.230575">
  <ele>1586.09</ele>
  <time>2026-08-27T18:24:42Z</time>
  <course>280.81</course>
  <speed>0.0</speed>
  <fix>3d</fix>
</trkpt>
<trkpt lat="40.0728421" lon="-105.2305751">
  <ele>1586.19</ele>
  <time>2026-08-27T18:24:42Z</time>
  <course>8.91</course>
  <speed>0.022360679774997897</speed>
  <fix>3d</fix>
</trkpt>
<trkpt lat="40.072842" lon="-105.230575">
  <ele>1586.09</ele>
  <time>2026-08-27T18:24:42Z</time>
  <course>280.81</course>
  <speed>0.0</speed>
  <fix>3d</fix>
</trkpt>
<trkpt lat="40.0728422" lon="-105.2305752">
  <ele>1586.18</ele>
  <time>2026-08-27T18:24:42Z</time>
  <course>8.91</course>
  <speed>0.022360679774997897</speed>
  <fix>3d</fix>
</trkpt>
<trkpt lat="40.072842" lon="-105.230575">
  <ele>1586.09</ele>
  <time>2026-08-27T18:24:42Z</time>
  <course>280.81</course>
  <speed>0.0</speed>
  <fix>3d</fix>
</trkpt>
<trkpt lat="40.0728423" lon="-105.2305752">
  <ele>1586.18</ele>
  <time>2026-08-27T18:24:42Z</time>
  <course>8.9</course>
  <speed>0.0282842712474619</speed>
  <fix>3d</fix>
</trkpt>
<trkpt lat="40.072842" lon="-105.230575">
  <ele>1586.09</ele>
  <time>2026-08-27T18:24:42Z</time>
  <course>280.81</course>
  <speed>0.0</speed>
  <fix>3d</fix>
</trkpt>
<trkpt lat="40.0728423" lon="-105.2305753">
  <ele>1586.18</ele>
  <time>2026-08-27T18:24:42Z</time>
  <course>8.9</course>
  <speed>0.03605551275463989</speed>
  <fix>3d</fix>
</trkpt>
<trkpt lat="40.072842" lon="-105.230575">
  <ele>1586.09</ele>
  <time>2026-08-27T18:24:42Z</time>
  <course>280.81</course>
  <speed>0.0</speed>
  <fix>3d</fix>
</trkpt>
<trkpt lat="40.0728424" lon="-105.2305754">
  <ele>1586.19</ele>
  <time>2026-08-27T18:24:42Z</time>
  <course>8.9</course>
  <speed>0.03605551275463989</speed>
  <fix>3d</fix>
</trkpt>
<trkpt lat="40.072842" lon="-105.230575">
  <ele>1586.09</ele>
  <time>2026-08-27T18:24:42Z</time>
  <course>280.81</course>
  <speed>0.0</speed>
  <fix>3d</fix>
</trkpt>
<trkpt lat="40.0728424" lon="-105.2305754">
  <ele>1586.19</ele>
  <time>2026-08-27T18:24:42Z</time>
  <course>8.9</course>
  <speed>0.03605551275463989</speed>
  <fix>3d</fix>
</trkpt>
<trkpt lat="40.072842" lon="-105.230575">
  <ele>1586.09</ele>
  <time>2026-08-27T18:24:42Z</time>
  <course>280.81</course>
  <speed>0.0</speed>
  <fix>3d</fix>
</trkpt>
<trkpt lat="40.0728425" lon="-105.2305755">
  <ele>1586.2</ele>
  <time>2026-08-27T18:24:42Z</time>
  <course>8.9</course>
  <speed>0.05</speed>
  <fix>3d</fix>
</trkpt>
<trkpt lat="40.072842" lon="-105.230575">
  <ele>1586.09</ele>
  <time>2026-08-27T18:24:42Z</time>
  <course>280.81</course>
  <speed>0.0</speed>
  <fix>3d</fix>
</trkpt>
<trkpt lat="40.0728426" lon="-105.2305756">
  <ele>1586.2</ele>
  <time>2026-08-27T18:24:42Z</time>
  <course>8.89</course>
  <speed>0.05</speed>
  <fix>3d</fix>
</trkpt>
<trkpt lat="40.072842" lon="-105.230575">
  <ele>1586.09</ele>
  <time>2026-08-27T18:24:42Z</time>
  <course>81.45</course>
  <speed>0.0</speed>
  <fix>3d</fix>
</trkpt>
<trkpt lat="40.0728427" lon="-105.2305757">
  <ele>1586.2</ele>
  <time>2026-08-27T18:24:42Z</time>
  <course>8.89</course>
  <speed>0.05</speed>
  <fix>3d</fix>
</trkpt>
<trkpt lat="40.072842" lon="-105.230575">
  <ele>1586.09</ele>
  <time>2026-08-27T18:24:42Z</time>
  <course>73.31</course>
  <speed>0.0</speed>
  <fix>3d</fix>
</trkpt>
<trkpt lat="40.0728428" lon="-105.2305757">
  <ele>1586.2</ele>
  <time>2026-08-27T18:24:42Z</time>
  <course>8.89</course>
  <speed>0.05830951894845301</speed>
  <fix>3d</fix>
</trkpt>
<trkpt lat="40.072842" lon="-105.230575">
  <ele>1586.09</ele>
  <time>2026-08-27T18:24:42Z</time>
  <course>291.41</course>
  <speed>0.0</speed>
  <fix>3d</fix>
</trkpt>
<trkpt lat="40.0728429" lon="-105.2305758">
  <ele>1586.2</ele>
  <time>2026-08-27T18:24:42Z</time>
  <course>8.89</course>
  <speed>0.06403124237432849</speed>
  <fix>3d</fix>
</trkpt>
<trkpt lat="40.072842" lon="-105.230575">
  <ele>1586.09</ele>
  <time>2026-08-27T18:24:42Z</time>
  <course>262.4</course>
  <speed>0.0</speed>
  <fix>3d</fix>
</trkpt>
<trkpt lat="40.072843" lon="-105.2305759">
  <ele>1586.19</ele>
  <time>2026-08-27T18:24:42Z</time>
  <course>8.89</course>
  <speed>0.07211102550927978</speed>
  <fix>3d</fix>
</trkpt>
<trkpt lat="40.072842" lon="-105.230575">
  <ele>1586.09</ele>
  <time>2026-08-27T18:24:42Z</time>
  <course>292.55</course>
  <speed>0.0</speed>
  <fix>3d</fix>
</trkpt>
<trkpt lat="40.0728431" lon="-105.2305761">
  <ele>1586.19</ele>
  <time>2026-08-27T18:24:42Z</time>
  <course>8.88</course>
  <speed>0.07211102550927978</speed>
  <fix>3d</fix>
</trkpt>
<trkpt lat="40.072842" lon="-105.230575">
  <ele>1586.09</ele>
  <time>2026-08-27T18:24:42Z</time>
  <course>293.01</course>
  <speed>0.0</speed>
  <fix>3d</fix>
</trkpt>
<trkpt lat="40.0728432" lon="-105.2305761">
  <ele>1586.18</ele>
  <time>2026-08-27T18:24:42Z</time>
  <course>8.88</course>
  <speed>0.07810249675906654</speed>
  <fix>3d</fix>
</trkpt>
<trkpt lat="40.072842" lon="-105.230575">
  <ele>1586.09</ele>
  <time>2026-08-27T18:24:42Z</time>
  <course>285.04</course>
  <speed>0.0</speed>
  <fix>3d</fix>
</trkpt>
<trkpt lat="40.0728433" lon="-105.2305762">
  <ele>1586.19</ele>
  <time>2026-08-27T18:24:42Z</time>
  <course>8.88</course>
  <speed>0.08602325267042626</speed>
  <fix>3d</fix>
</trkpt>
<trkpt lat="40.072842" lon="-105.230575">
  <ele>1586.09</ele>
  <time>2026-08-27T18:24:42Z</time>
  <course>285.49</course>
  <speed>0.0</speed>
  <fix>3d</fix>
</trkpt>
<trkpt lat="40.0728434" lon="-105.2305764">
  <ele>1586.19</ele>
  <time>2026-08-27T18:24:42Z</time>
  <course>8.88</course>
  <speed>0.08602325267042626</speed>
  <fix>3d</fix>
</trkpt>
<trkpt lat="40.072842" lon="-105.230575">
  <ele>1586.09</ele>
  <time>2026-08-27T18:24:42Z</time>
  <course>286.44</course>
  <speed>0.0</speed>
  <fix>3d</fix>
</trkpt>
<trkpt lat="40.0728435" lon="-105.2305765">
  <ele>1586.2</ele>
  <time>2026-08-27T18:24:42Z</time>
  <course>8.87</course>
  <speed>0.08602325267042626</speed>
  <fix>3d</fix>
</trkpt>
<trkpt lat="40.072842" lon="-105.230575">
  <ele>1586.09</ele>
  <time>2026-08-27T18:24:42Z</time>
  <course>286.25</course>
  <speed>0.0</speed>
  <fix>3d</fix>
</trkpt>
<trkpt lat="40.0728437" lon="-105.2305766">
  <ele>1586.2</ele>
  <time>2026-08-27T18:24:42Z</time>
  <course>8.87</course>
  <speed>0.1</speed>
  <fix>3d</fix>
</trkpt>
<trkpt lat="40.072842" lon="-105.230575">
  <ele>1586.09</ele>
  <time>2026-08-27T18:24:42Z</time>
  <course>286.15</course>
  <speed>0.0</speed>
  <fix>3d</fix>
</trkpt>
<trkpt lat="40.0728438" lon="-105.2305768">
  <ele>1586.2</ele>
  <time>2026-08-27T18:24:42Z</time>
  <course>8.87</course>
  <speed>0.1</speed>
  <fix>3d</fix>
</trkpt>
<trkpt lat="40.072842" lon="-105.230575">
  <ele>1586.09</ele>
  <time>2026-08-27T18:24:42Z</time>
  <course>286.19</course>
  <speed>0.0</speed>
  <fix>3d</fix>
</trkpt>
<trkpt lat="40.0728439" lon="-105.2305769">
  <ele>1586.2</ele>
  <time>2026-08-27T18:24:42Z</time>
  <course>8.87</course>
  <speed>0.10816653826391968</speed>
  <fix>3d</fix>
</trkpt>
<trkpt lat="40.072842" lon="-105.230575">
  <ele>1586.09</ele>
  <time>2026-08-27T18:24:42Z</time>
  <course>286.2</course>
  <speed>0.0</speed>
  <fix>3d</fix>
</trkpt>
<trkpt lat="40.072844" lon="-105.230577">
  <ele>1586.2</ele>
  <time>2026-08-27T18:24:42Z</time>
  <course>8.86</course>
  <speed>0.11401754250991379</speed>
  <fix>3d</fix>
</trkpt>
<trkpt lat="40.072842" lon="-105.230575">
  <ele>1586.09</ele>
  <time>2026-08-27T18:24:42Z</time>
  <course>286.19</course>
  <speed>0.0</speed>
  <fix>3d</fix>
</trkpt>
<trkpt lat="40.0728442" lon="-105.2305771">
  <ele>1586.2</ele>
  <time>2026-08-27T18:24:42Z</time>
  <course>8.86</course>
  <speed>0.11401754250991379</speed>
  <fix>3d</fix>
</trkpt>
<trkpt lat="40.072842" lon="-105.230575">
  <ele>1586.09</ele>
  <time>2026-08-27T18:24:42Z</time>
  <course>286.19</course>
  <speed>0.0</speed>
  <fix>3d</fix>
</trkpt>
<trkpt lat="40.0728444" lon="-105.2305773">
  <ele>1586.2</ele>
  <time>2026-08-27T18:24:42Z</time>
  <course>8.86</course>
  <speed>0.12206555615733702</speed>
  <fix>3d</fix>
</trkpt>
<trkpt lat="40.072842" lon="-105.230575">
  <ele>1586.09</ele>
  <time>2026-08-27T18:24:42Z</time>
  <course>286.19</course>
  <speed>0.0</speed>
  <fix>3d</fix>
</trkpt>
<trkpt lat="40.0728445" lon="-105.2305774">
  <ele>1586.2</ele>
  <time>2026-08-27T18:24:42Z</time>
  <course>8.86</course>
  <speed>0.12806248474865697</speed>
  <fix>3d</fix>
</trkpt>
<trkpt lat="40.072842" lon="-105.230575">
  <ele>1586.09</ele>
  <time>2026-08-27T18:24:42Z</time>
  <course>186.36</course>
  <speed>0.0</speed>
  <fix>3d</fix>
</trkpt>
<trkpt lat="40.0728446" lon="-105.2305775">
  <ele>1586.2</ele>
  <time>2026-08-27T18:24:42Z</time>
  <course>8.85</course>
  <speed>0.12806248474865697</speed>
  <fix>3d</fix>
</trkpt>
<trkpt lat="40.072842" lon="-105.230575">
  <ele>1586.09</ele>
  <time>2026-08-27T18:24:42Z</time>
  <course>152.26</course>
  <speed>0.0</speed>
  <fix>3d</fix>
</trkpt>
<trkpt lat="40.0728447" lon="-105.2305776">
  <ele>1586.19</ele>
  <time>2026-08-27T18:24:42Z</time>
  <course>8.85</course>
  <speed>0.13601470508735444</speed>
  <fix>3d</fix>
</trkpt>
<trkpt lat="40.072842" lon="-105.230575">
  <ele>1586.09</ele>
  <time>2026-08-27T18:24:42Z</time>
  <course>116.59</course>
  <speed>0.0</speed>
  <fix>3d</fix>
</trkpt>
<trkpt lat="40.0728448" lon="-105.2305778">
  <ele>1586.19</ele>
  <time>2026-08-27T18:24:42Z</time>
  <course>8.85</course>
  <speed>0.13601470508735444</speed>
  <fix>3d</fix>
</trkpt>
<trkpt lat="40.072842" lon="-105.230575">
  <ele>1586.09</ele>
  <time>2026-08-27T18:24:42Z</time>
  <course>322.95</course>
  <speed>0.0</speed>
  <fix>3d</fix>
</trkpt>
<trkpt lat="40.072845" lon="-105.230578">
  <ele>1586.18</ele>
  <time>2026-08-27T18:24:42Z</time>
  <course>8.85</course>
  <speed>0.15</speed>
  <fix>3d</fix>
</trkpt>
<trkpt lat="40.072842" lon="-105.230575">
  <ele>1586.09</ele>
  <time>2026-08-27T18:24:42Z</time>
  <course>249.59</course>
  <speed>0.0</speed>
  <fix>3d</fix>
</trkpt>
<trkpt lat="40.0728453" lon="-105.2305782">
  <ele>1586.18</ele>
  <time>2026-08-27T18:24:42Z</time>
  <course>8.84</course>
  <speed>0.15</speed>
  <fix>3d</fix>
</trkpt>
<trkpt lat="40.072842" lon="-105.230575">
  <ele>1586.09</ele>
  <time>2026-08-27T18:24:42Z</time>
  <course>223.22</course>
  <speed>0.0</speed>
  <fix>3d</fix>
</trkpt>
<trkpt lat="40.0728453" lon="-105.2305782">
  <ele>1586.18</ele>
  <time>2026-08-27T18:24:42Z</time>
  <course>8.84</course>
  <speed>0.15</speed>
  <fix>3d</fix>
</trkpt>
<trkpt lat="40.072842" lon="-105.230575">
  <ele>1586.09</ele>
  <time>2026-08-27T18:24:42Z</time>
  <course>272.89</course>
  <speed>0.0</speed>
  <fix>3d</fix>
</trkpt>
<trkpt lat="40.0728453" lon="-105.2305782">
  <ele>1586.18</ele>
  <time>2026-08-27T18:24:42Z</time>
  <course>8.84</course>
  <speed>0.15</speed>
  <fix>3d</fix>
</trkpt>
<trkpt lat="40.072842" lon="-105.230575">
  <ele>1586.09</ele>
  <time>2026-08-27T18:24:42Z</time>
  <course>269.0</course>
  <speed>0.0</speed>
  <fix>3d</fix>
</trkpt>
<trkpt lat="40.0728455" lon="-105.2305784">
  <ele>1586.18</ele>
  <time>2026-08-27T18:24:42Z</time>
  <course>8.84</course>
  <speed>0.15811388300841897</speed>
  <fix>3d</fix>
</trkpt>
<trkpt lat="40.072842" lon="-105.230575">
  <ele>1586.09</ele>
  <time>2026-08-27T18:24:42Z</time>
  <course>264.74</course>
  <speed>0.0</speed>
  <fix>3d</fix>
</trkpt>
<trkpt lat="40.0728457" lon="-105.2305786">
  <ele>1586.19</ele>
  <time>2026-08-27T18:24:42Z</time>
  <course>8.83</course>
  <speed>0.16401219466856726</speed>
  <fix>3d</fix>
</trkpt>
<trkpt lat="40.072842" lon="-105.230575">
  <ele>1586.09</ele>
  <time>2026-08-27T18:24:42Z</time>
  <course>265.76</course>
  <speed>0.0</speed>
  <fix>3d</fix>
</trkpt>
<trkpt lat="40.0728459" lon="-105.2305788">
  <ele>1586.19</ele>
  <time>2026-08-27T18:24:42Z</time>
  <course>8.83</course>
  <speed>0.17204650534085253</speed>
  <fix>3d</fix>
</trkpt>
<trkpt lat="40.072842" lon="-105.230575">
  <ele>1586.09</ele>
  <time>2026-08-27T18:24:42Z</time>
  <course>266.24</course>
  <speed>0.0</speed>
  <fix>3d</fix>
</trkpt>
<trkpt lat="40.0728458" lon="-105.2305787">
  <ele>1586.19</ele>
  <time>2026-08-27T18:24:42Z</time>
  <course>8.83</course>
  <speed>0.16401219466856726</speed>
  <fix>3d</fix>
</trkpt>
<trkpt lat="40.072842" lon="-105.230575">
  <ele>1586.09</ele>
  <time>2026-08-27T18:24:42Z</time>
  <course>108.89</course>
  <speed>0.0</speed>
  <fix>3d</fix>
</trkpt>
<trkpt lat="40.0728458" lon="-105.2305787">
  <ele>1586.2</ele>
  <time>2026-08-27T18:24:42Z</time>
  <course>8.82</course>
  <speed>0.16401219466856726</speed>
  <fix>3d</fix>
</trkpt>
<trkpt lat="40.072842" lon="-105.230575">
  <ele>1586.09</ele>
  <time>2026-08-27T18:24:42Z</time>
  <course>64.63</course>
  <speed>0.0</speed>
  <fix>3d</fix>
</trkpt>
<trkpt lat="40.072846" lon="-105.2305788">
  <ele>1586.19</ele>
  <time>2026-08-27T18:24:42Z</time>
  <course>8.82</course>
  <speed>0.16401219466856726</speed>
  <fix>3d</fix>
</trkpt>
<trkpt lat="40.072842" lon="-105.230575">
  <ele>1586.09</ele>
  <time>2026-08-27T18:24:42Z</time>
  <course>285.04</course>
  <speed>0.0</speed>
  <fix>3d</fix>
</trkpt>
<trkpt lat="40.0728462" lon="-105.230579">
  <ele>1586.19</ele>
  <time>2026-08-27T18:24:42Z</time>
  <course>8.82</course>
  <speed>0.17204650534085253</speed>
  <fix>3d</fix>
</trkpt>
<trkpt lat="40.072842" lon="-105.230575">
  <ele>1586.09</ele>
  <time>2026-08-27T18:24:42Z</time>
  <course>243.3</course>
  <speed>0.0</speed>
  <fix>3d</fix>
</trkpt>
<trkpt lat="40.0728464" lon="-105.2305793">
  <ele>1586.19</ele>
  <time>2026-08-27T18:24:42Z</time>
  <course>8.82</course>
  <speed>0.18601075237738274</speed>
  <fix>3d</fix>
</trkpt>
<trkpt lat="40.072842" lon="-105.230575">
  <ele>1586.09</ele>
  <time>2026-08-27T18:24:42Z</time>
  <course>103.1</course>
  <speed>0.0</speed>
  <fix>3d</fix>
</trkpt>
<trkpt lat="40.0728465" lon="-105.2305794">
  <ele>1586.19</ele>
  <time>2026-08-27T18:24:42Z</time>
  <course>8.81</course>
  <speed>0.18601075237738274</speed>
  <fix>3d</fix>
</trkpt>
<trkpt lat="40.072842" lon="-105.230575">
  <ele>1586.09</ele>
  <time>2026-08-27T18:24:42Z</time>
  <course>88.73</course>
  <speed>0.0</speed>
  <fix>3d</fix>
</trkpt>
<trkpt lat="40.0728463" lon="-105.2305792">
  <ele>1586.2</ele>
  <time>2026-08-27T18:24:42Z</time>
  <course>8.81</course>
  <speed>0.17204650534085253</speed>
  <fix>3d</fix>
</trkpt>
<trkpt lat="40.072842" lon="-105.230575">
  <ele>1586.09</ele>
  <time>2026-08-27T18:24:42Z</time>
  <course>11.72</course>
  <speed>0.0</speed>
  <fix>3d</fix>
</trkpt>
<trkpt lat="40.0728463" lon="-105.2305792">
  <ele>1586.2</ele>
  <time>2026-08-27T18:24:42Z</time>
  <course>8.81</course>
  <speed>0.17204650534085253</speed>
  <fix>3d</fix>
</trkpt>
<trkpt lat="40.072842" lon="-105.230575">
  <ele>1586.09</ele>
  <time>2026-08-27T18:24:42Z</time>
  <course>283.07</course>
  <speed>0.0</speed>
  <fix>3d</fix>
</trkpt>
<trkpt lat="40.0728465" lon="-105.2305793">
  <ele>1586.2</ele>
  <time>2026-08-27T18:24:42Z</time>
  <course>8.81</course>
  <speed>0.18601075237738274</speed>
  <fix>3d</fix>
</trkpt>
<trkpt lat="40.072842" lon="-105.230575">
  <ele>1586.09</ele>
  <time>2026-08-27T18:24:42Z</time>
  <course>270.3</course>
  <speed>0.0</speed>
  <fix>3d</fix>
</trkpt>
<trkpt lat="40.0728467" lon="-105.2305796">
  <ele>1586.2</ele>
  <time>2026-08-27T18:24:42Z</time>
  <course>8.8</course>
  <speed>0.18601075237738274</speed>
  <fix>3d</fix>
</trkpt>
<trkpt lat="40.072842" lon="-105.230575">
  <ele>1586.09</ele>
  <time>2026-08-27T18:24:42Z</time>
  <course>103.41</course>
  <speed>0.0</speed>
  <fix>3d</fix>
</trkpt>
<trkpt lat="40.072847" lon="-105.2305798">
  <ele>1586.19</ele>
  <time>2026-08-27T18:24:42Z</time>
  <course>8.8</course>
  <speed>0.194164878389476</speed>
  <fix>3d</fix>
</trkpt>
<trkpt lat="40.072842" lon="-105.230575">
  <ele>1586.09</ele>
  <time>2026-08-27T18:24:42Z</time>
  <course>79.87</course>
  <speed>0.0</speed>
  <fix>3d</fix>
</trkpt>
<trkpt lat="40.0728467" lon="-105.2305796">
  <ele>1586.19</ele>
  <time>2026-08-27T18:24:42Z</time>
  <course>8.8</course>
  <speed>0.18601075237738274</speed>
  <fix>3d</fix>
</trkpt>
<trkpt lat="40.072842" lon="-105.230575">
  <ele>1586.09</ele>
  <time>2026-08-27T18:24:42Z</time>
  <course>305.07</course>
  <speed>0.0</speed>
  <fix>3d</fix>
</trkpt>
<trkpt lat="40.0728466" lon="-105.2305794">
  <ele>1586.19</ele>
  <time>2026-08-27T18:24:42Z</time>
  <course>8.8</course>
  <speed>0.18601075237738274</speed>
  <fix>3d</fix>
</trkpt>
<trkpt lat="40.072842" lon="-105.230575">
  <ele>1586.09</ele>
  <time>2026-08-27T18:24:42Z</time>
  <course>252.43</course>
  <speed>0.0</speed>
  <fix>3d</fix>
</trkpt>
<trkpt lat="40.0728466" lon="-105.2305795">
  <ele>1586.19</ele>
  <time>2026-08-27T18:24:42Z</time>
  <course>8.79</course>
  <speed>0.18601075237738274</speed>
  <fix>3d</fix>
</trkpt>
<trkpt lat="40.072842" lon="-105.230575">
  <ele>1586.09</ele>
  <time>2026-08-27T18:24:42Z</time>
  <course>276.22</course>
  <speed>0.0</speed>
  <fix>3d</fix>
</trkpt>
<trkpt lat="40.0728468" lon="-105.2305796">
  <ele>1586.19</ele>
  <time>2026-08-27T18:24:42Z</time>
  <course>8.79</course>
  <speed>0.18601075237738274</speed>
  <fix>3d</fix>
</trkpt>
<trkpt lat="40.072842" lon="-105.230575">
  <ele>1586.09</ele>
  <time>2026-08-27T18:24:42Z</time>
  <course>229.66</course>
  <speed>0.0</speed>
  <fix>3d</fix>
</trkpt>
<trkpt lat="40.0728471" lon="-105.2305799">
  <ele>1586.19</ele>
  <time>2026-08-27T18:24:42Z</time>
  <course>8.79</course>
  <speed>0.2</speed>
  <fix>3d</fix>
</trkpt>
<trkpt lat="40.072842" lon="-105.230575">
  <ele>1586.09</ele>
  <time>2026-08-27T18:24:42Z</time>
  <course>93.69</course>
  <speed>0.0</speed>
  <fix>3d</fix>
</trkpt>
<trkpt lat="40.0728471" lon="-105.2305799">
  <ele>1586.19</ele>
  <time>2026-08-27T18:24:42Z</time>
  <course>8.78</course>
  <speed>0.2</speed>
  <fix>3d</fix>
</trkpt>
<trkpt lat="40.072842" lon="-105.230575">
  <ele>1586.09</ele>
  <time>2026-08-27T18:24:42Z</time>
  <course>18.79</course>
  <speed>0.0</speed>
  <fix>3d</fix>
</trkpt>
<trkpt lat="40.0728467" lon="-105.2305795">
  <ele>1586.19</ele>
  <time>2026-08-27T18:24:42Z</time>
  <course>8.78</course>
  <speed>0.18601075237738274</speed>
  <fix>3d</fix>
</trkpt>
<trkpt lat="40.072842" lon="-105.230575">
  <ele>1586.09</ele>
  <time>2026-08-27T18:24:42Z</time>
  <course>261.97</course>
  <speed>0.0</speed>
  <fix>3d</fix>
</trkpt>
<trkpt lat="40.0728466" lon="-105.2305795">
  <ele>1586.19</ele>
  <time>2026-08-27T18:24:42Z</time>
  <course>8.78</course>
  <speed>0.18601075237738274</speed>
  <fix>3d</fix>
</trkpt>
<trkpt lat="40.072842" lon="-105.230575">
  <ele>1586.09</ele>
  <time>2026-08-27T18:24:42Z</time>
  <course>262.46</course>
  <speed>0.0</speed>
  <fix>3d</fix>
</trkpt>
<trkpt lat="40.0728467" lon="-105.2305796">
  <ele>1586.19</ele>
  <time>2026-08-27T18:24:42Z</time>
  <course>8.78</course>
  <speed>0.18601075237738274</speed>
  <fix>3d</fix>
</trkpt>
<trkpt lat="40.072842" lon="-105.230575">
  <ele>1586.09</ele>
  <time>2026-08-27T18:24:42Z</time>
  <course>178.14</course>
  <speed>0.0</speed>
  <fix>3d</fix>
</trkpt>
<trkpt lat="40.0728421" lon="-105.2305751">
  <ele>1586.19</ele>
  <time>2026-08-27T18:24:42Z</time>
  <course>8.77</course>
  <speed>0.13601470508735444</speed>
  <fix>3d</fix>
</trkpt>
<trkpt lat="40.072842" lon="-105.230575">
  <ele>1586.09</ele>
  <time>2026-08-27T18:24:42Z</time>
  <course>124.78</course>
  <speed>0.0</speed>
  <fix>3d</fix>
</trkpt>
<trkpt lat="40.0728421" lon="-105.2305751">
  <ele>1586.19</ele>
  <time>2026-08-27T18:24:42Z</time>
  <course>8.77</course>
  <speed>0.07211102550927978</speed>
  <fix>3d</fix>
</trkpt>
<trkpt lat="40.072842" lon="-105.230575">
  <ele>1586.09</ele>
  <time>2026-08-27T18:24:42Z</time>
  <course>320.52</course>
  <speed>0.0</speed>
  <fix>3d</fix>
</trkpt>
<trkpt lat="40.072842" lon="-105.230575">
  <ele>1586.19</ele>
  <time>2026-08-27T18:24:42Z</time>
  <course>8.77</course>
  <speed>0.03605551275463989</speed>
  <fix>3d</fix>
</trkpt>
<trkpt lat="40.072842" lon="-105.230575">
  <ele>1586.09</ele>
  <time>2026-08-27T18:24:42Z</time>
  <course>294.06</course>
  <speed>0.0</speed>
  <fix>3d</fix>
</trkpt>
<trkpt lat="40.072842" lon="-105.230575">
  <ele>1586.19</ele>
  <time>2026-08-27T18:24:42Z</time>
  <course>8.77</course>
  <speed>0.022360679774997897</speed>
  <fix>3d</fix>
</trkpt>
<trkpt lat="40.072842" lon="-105.230575">
  <ele>1586.09</ele>
  <time>2026-08-27T18:24:42Z</time>
  <course>287.47</course>
  <speed>0.0</speed>
  <fix>3d</fix>
</trkpt>
<trkpt lat="40.0728419" lon="-105.2305749">
  <ele>1586.19</ele>
  <time>2026-08-27T18:24:42Z</time>
  <course>8.77</course>
  <speed>0.01</speed>
  <fix>3d</fix>
</trkpt>
<trkpt lat="40.072842" lon="-105.230575">
  <ele>1586.09</ele>
  <time>2026-08-27T18:24:42Z</time>
  <course>130.39</course>
  <speed>0.0</speed>
  <fix>3d</fix>
</trkpt>
<trkpt lat="40.0728419" lon="-105.2305749">
  <ele>1586.19</ele>
  <time>2026-08-27T18:24:42Z</time>
  <course>8.77</course>
  <speed>0.0</speed>
  <fix>3d</fix>
</trkpt>
<trkpt lat="40.072842" lon="-105.230575">
  <ele>1586.09</ele>
  <time>2026-08-27T18:24:42Z</time>
  <course>59.32</course>
  <speed>0.0</speed>
  <fix>3d</fix>
</trkpt>
<trkpt lat="40.0728419" lon="-105.2305749">
  <ele>1586.2</ele>
  <time>2026-08-27T18:24:42Z</time>
  <course>8.77</course>
  <speed>0.0</speed>
  <fix>3d</fix>
</trkpt>
<trkpt lat="40.072842" lon="-105.230575">
  <ele>1586.09</ele>
  <time>2026-08-27T18:24:42Z</time>
  <course>291.91</course>
  <speed>0.0</speed>
  <fix>3d</fix>
</trkpt>
<trkpt lat="40.0728419" lon="-105.2305749">
  <ele>1586.2</ele>
  <time>2026-08-27T18:24:42Z</time>
  <course>8.76</course>
  <speed>0.0</speed>
  <fix>3d</fix>
</trkpt>
<trkpt lat="40.072842" lon="-105.230575">
  <ele>1586.09</ele>
  <time>2026-08-27T18:24:42Z</time>
  <course>283.71</course>
  <speed>0.0</speed>
  <fix>3d</fix>
</trkpt>
<trkpt lat="40.072842" lon="-105.230575">
  <ele>1586.19</ele>
  <time>2026-08-27T18:24:42Z</time>
  <course>8.76</course>
  <speed>0.0</speed>
  <fix>3d</fix>
</trkpt>
<trkpt lat="40.072842" lon="-105.230575">
  <ele>1586.09</ele>
  <time>2026-08-27T18:24:42Z</time>
  <course>285.07</course>
  <speed>0.0</speed>
  <fix>3d</fix>
</trkpt>
<trkpt lat="40.072842" lon="-105.230575">
  <ele>1586.19</ele>
  <time>2026-08-27T18:24:42Z</time>
  <course>8.76</course>
  <speed>0.01</speed>
  <fix>3d</fix>
</trkpt>
<trkpt lat="40.072842" lon="-105.230575">
  <ele>1586.09</ele>
  <time>2026-08-27T18:24:42Z</time>
  <course>301.91</course>
  <speed>0.0</speed>
  <fix>3d</fix>
</trkpt>
<trkpt lat="40.072842" lon="-105.230575">
  <ele>1586.19</ele>
  <time>2026-08-27T18:24:42Z</time>
  <course>8.76</course>
  <speed>0.01</speed>
  <fix>3d</fix>
</trkpt>
<trkpt lat="40.072842" lon="-105.230575">
  <ele>1586.09</ele>
  <time>2026-08-27T18:24:42Z</time>
  <course>295.44</course>
  <speed>0.0</speed>
  <fix>3d</fix>
</trkpt>
<trkpt lat="40.072842" lon="-105.230575">
  <ele>1586.19</ele>
  <time>2026-08-27T18:24:42Z</time>
  <course>8.76</course>
  <speed>0.01</speed>
  <fix>3d</fix>
</trkpt>
<trkpt lat="40.072842" lon="-105.230575">
  <ele>1586.09</ele>
  <time>2026-08-27T18:24:42Z</time>
  <course>280.54</course>
  <speed>0.0</speed>
  <fix>3d</fix>
</trkpt>
<trkpt lat="40.072842" lon="-105.230575">
  <ele>1586.19</ele>
  <time>2026-08-27T18:24:42Z</time>
  <course>8.76</course>
  <speed>0.01414213562373095</speed>
  <fix>3d</fix>
</trkpt>
<trkpt lat="40.072842" lon="-105.230575">
  <ele>1586.09</ele>
  <time>2026-08-27T18:24:42Z</time>
  <course>285.67</course>
  <speed>0.0</speed>
  <fix>3d</fix>
</trkpt>
<trkpt lat="40.0728421" lon="-105.2305751">
  <ele>1586.19</ele>
  <time>2026-08-27T18:24:42Z</time>
  <course>8.76</course>
  <speed>0.01414213562373095</speed>
  <fix>3d</fix>
</trkpt>
<trkpt lat="40.072842" lon="-105.230575">
  <ele>1586.09</ele>
  <time>2026-08-27T18:24:42Z</time>
  <course>287.11</course>
  <speed>0.0</speed>
  <fix>3d</fix>
</trkpt>
<trkpt lat="40.0728421" lon="-105.2305751">
  <ele>1586.19</ele>
  <time>2026-08-27T18:24:42Z</time>
  <course>8.76</course>
  <speed>0.01414213562373095</speed>
  <fix>3d</fix>
</trkpt>
<trkpt lat="40.072842" lon="-105.230575">
  <ele>1586.09</ele>
  <time>2026-08-27T18:24:42Z</time>
  <course>286.15</course>
  <speed>0.0</speed>
  <fix>3d</fix>
</trkpt>
<trkpt lat="40.0728421" lon="-105.2305751">
  <ele>1586.19</ele>
  <time>2026-08-27T18:24:42Z</time>
  <course>8.76</course>
  <speed>0.01414213562373095</speed>
  <fix>3d</fix>
</trkpt>
<trkpt lat="40.072842" lon="-105.230575">
  <ele>1586.09</ele>
  <time>2026-08-27T18:24:42Z</time>
  <course>286.07</course>
  <speed>0.0</speed>
  <fix>3d</fix>
</trkpt>
<trkpt lat="40.0728421" lon="-105.2305751">
  <ele>1586.19</ele>
  <time>2026-08-27T18:24:42Z</time>
  <course>8.76</course>
  <speed>0.01414213562373095</speed>
  <fix>3d</fix>
</trkpt>
<trkpt lat="40.072842" lon="-105.230575">
  <ele>1586.09</ele>
  <time>2026-08-27T18:24:42Z</time>
  <course>286.21</course>
  <speed>0.0</speed>
  <fix>3d</fix>
</trkpt>
<trkpt lat="40.0728421" lon="-105.2305751">
  <ele>1586.19</ele>
  <time>2026-08-27T18:24:42Z</time>
  <course>8.75</course>
  <speed>0.01414213562373095</speed>
  <fix>3d</fix>
</trkpt>
<trkpt lat="40.072842" lon="-105.230575">
  <ele>1586.09</ele>
  <time>2026-08-27T18:24:42Z</time>
  <course>286.2</course>
  <speed>0.0</speed>
  <fix>3d</fix>
</trkpt>
<trkpt lat="40.0728421" lon="-105.2305751">
  <ele>1586.19</ele>
  <time>2026-08-27T18:24:42Z</time>
  <course>8.75</course>
  <speed>0.01414213562373095</speed>
  <fix>3d</fix>
</trkpt>
<trkpt lat="40.072842" lon="-105.230575">
  <ele>1586.09</ele>
  <time>2026-08-27T18:24:42Z</time>
  <course>286.19</course>
  <speed>0.0</speed>
  <fix>3d</fix>
</trkpt>
<trkpt lat="40.0728421" lon="-105.2305751">
  <ele>1586.18</ele>
  <time>2026-08-27T18:24:42Z</time>
  <course>8.75</course>
  <speed>0.01414213562373095</speed>
  <fix>3d</fix>
</trkpt>
<trkpt lat="40.072842" lon="-105.230575">
  <ele>1586.09</ele>
  <time>2026-08-27T18:24:42Z</time>
  <course>286.19</course>
  <speed>0.0</speed>
  <fix>3d</fix>
</trkpt>
<trkpt lat="40.0728421" lon="-105.2305751">
  <ele>1586.18</ele>
  <time>2026-08-27T18:24:42Z</time>
  <course>8.75</course>
  <speed>0.01414213562373095</speed>
  <fix>3d</fix>
</trkpt>
<trkpt lat="40.072842" lon="-105.230575">
  <ele>1586.09</ele>
  <time>2026-08-27T18:24:42Z</time>
  <course>286.19</course>
  <speed>0.0</speed>
  <fix>3d</fix>
</trkpt>
<trkpt lat="40.0728421" lon="-105.2305751">
  <ele>1586.18</ele>
  <time>2026-08-27T18:24:42Z</time>
  <course>8.75</course>
  <speed>0.01414213562373095</speed>
  <fix>3d</fix>
</trkpt>
<trkpt lat="40.072842" lon="-105.230575">
  <ele>1586.09</ele>
  <time>2026-08-27T18:24:42Z</time>
  <course>286.19</course>
  <speed>0.0</speed>
  <fix>3d</fix>
</trkpt>
<trkpt lat="40.0728421" lon="-105.2305751">
  <ele>1586.19</ele>
  <time>2026-08-27T18:24:42Z</time>
  <course>8.75</course>
  <speed>0.01414213562373095</speed>
  <fix>3d</fix>
</trkpt>
<trkpt lat="40.072842" lon="-105.230575">
  <ele>1586.09</ele>
  <time>2026-08-27T18:24:42Z</time>
  <course>286.19</course>
  <speed>0.0</speed>
  <fix>3d</fix>
</trkpt>
<trkpt lat="40.0728421" lon="-105.2305751">
  <ele>1586.19</ele>
  <time>2026-08-27T18:24:42Z</time>
  <course>8.75</course>
  <speed>0.01414213562373095</speed>
  <fix>3d</fix>
</trkpt>
<trkpt lat="40.072842" lon="-105.230575">
  <ele>1586.09</ele>
  <time>2026-08-27T18:24:42Z</time>
  <course>286.19</course>
  <speed>0.0</speed>
  <fix>3d</fix>
</trkpt>
<trkpt lat="40.0728421" lon="-105.2305751">
  <ele>1586.19</ele>
  <time>2026-08-27T18:24:43Z</time>
  <course>8.75</course>
  <speed>0.022360679774997897</speed>
  <fix>3d</fix>
</trkpt>
<trkpt lat="40.072842" lon="-105.230575">
  <ele>1586.09</ele>
  <time>2026-08-27T18:24:43Z</time>
  <course>286.19</course>
  <speed>0.0</speed>
  <fix>3d</fix>
</trkpt>
<trkpt lat="40.0728421" lon="-105.2305751">
  <ele>1586.19</ele>
  <time>2026-08-27T18:24:43Z</time>
  <course>8.75</course>
  <speed>0.022360679774997897</speed>
  <fix>3d</fix>
</trkpt>
<trkpt lat="40.072842" lon="-105.230575">
  <ele>1586.09</ele>
  <time>2026-08-27T18:24:43Z</time>
  <course>286.19</course>
  <speed>0.0</speed>
  <fix>3d</fix>
</trkpt>
<trkpt lat="40.0728422" lon="-105.2305752">
  <ele>1586.19</ele>
  <time>2026-08-27T18:24:43Z</time>
  <course>8.74</course>
  <speed>0.022360679774997897</speed>
  <fix>3d</fix>
</trkpt>
<trkpt lat="40.072842" lon="-105.230575">
  <ele>1586.09</ele>
  <time>2026-08-27T18:24:43Z</time>
  <course>286.19</course>
  <speed>0.0</speed>
  <fix>3d</fix>
</trkpt>
<trkpt lat="40.0728422" lon="-105.2305752">
  <ele>1586.19</ele>
  <time>2026-08-27T18:24:43Z</time>
  <course>8.74</course>
  <speed>0.03605551275463989</speed>
  <fix>3d</fix>
</trkpt>
<trkpt lat="40.072842" lon="-105.230575">
  <ele>1586.09</ele>
  <time>2026-08-27T18:24:43Z</time>
  <course>286.19</course>
  <speed>0.0</speed>
  <fix>3d</fix>
</trkpt>
<trkpt lat="40.0728423" lon="-105.2305753">
  <ele>1586.18</ele>
  <time>2026-08-27T18:24:43Z</time>
  <course>8.74</course>
  <speed>0.03605551275463989</speed>
  <fix>3d</fix>
</trkpt>
<trkpt lat="40.072842" lon="-105.230575">
  <ele>1586.09</ele>
  <time>2026-08-27T18:24:43Z</time>
  <course>286.19</course>
  <speed>0.0</speed>
  <fix>3d</fix>
</trkpt>
<trkpt lat="40.0728424" lon="-105.2305754">
  <ele>1586.18</ele>
  <time>2026-08-27T18:24:43Z</time>
  <course>8.74</course>
  <speed>0.03605551275463989</speed>
  <fix>3d</fix>
</trkpt>
<trkpt lat="40.072842" lon="-105.230575">
  <ele>1586.09</ele>
  <time>2026-08-27T18:24:43Z</time>
  <course>286.19</course>
  <speed>0.0</speed>
  <fix>3d</fix>
</trkpt>
<trkpt lat="40.0728425" lon="-105.2305754">
  <ele>1586.17</ele>
  <time>2026-08-27T18:24:43Z</time>
  <course>8.74</course>
  <speed>0.05</speed>
  <fix>3d</fix>
</trkpt>
<trkpt lat="40.072842" lon="-105.230575">
  <ele>1586.09</ele>
  <time>2026-08-27T18:24:43Z</time>
  <course>286.19</course>
  <speed>0.0</speed>
  <fix>3d</fix>
</trkpt>
<trkpt lat="40.0728426" lon="-105.2305755">
  <ele>1586.17</ele>
  <time>2026-08-27T18:24:43Z</time>
  <course>8.74</course>
  <speed>0.05</speed>
  <fix>3d</fix>
</trkpt>
<trkpt lat="40.072842" lon="-105.230575">
  <ele>1586.09</ele>
  <time>2026-08-27T18:24:43Z</time>
  <course>286.19</course>
  <speed>0.0</speed>
  <fix>3d</fix>
</trkpt>
<trkpt lat="40.0728427" lon="-105.2305756">
  <ele>1586.17</ele>
  <time>2026-08-27T18:24:43Z</time>
  <course>8.74</course>
  <speed>0.05830951894845301</speed>
  <fix>3d</fix>
</trkpt>
<trkpt lat="40.072842" lon="-105.230575">
  <ele>1586.09</ele>
  <time>2026-08-27T18:24:43Z</time>
  <course>286.19</course>
  <speed>0.0</speed>
  <fix>3d</fix>
</trkpt>
<trkpt lat="40.0728428" lon="-105.2305757">
  <ele>1586.17</ele>
  <time>2026-08-27T18:24:43Z</time>
  <course>8.74</course>
  <speed>0.06403124237432849</speed>
  <fix>3d</fix>
</trkpt>
<trkpt lat="40.072842" lon="-105.230575">
  <ele>1586.09</ele>
  <time>2026-08-27T18:24:43Z</time>
  <course>286.19</course>
  <speed>0.0</speed>
  <fix>3d</fix>
</trkpt>
<trkpt lat="40.0728429" lon="-105.2305758">
  <ele>1586.17</ele>
  <time>2026-08-27T18:24:43Z</time>
  <course>8.73</course>
  <speed>0.06403124237432849</speed>
  <fix>3d</fix>
</trkpt>
<trkpt lat="40.072842" lon="-105.230575">
  <ele>1586.09</ele>
  <time>2026-08-27T18:24:43Z</time>
  <course>286.19</course>
  <speed>0.0</speed>
  <fix>3d</fix>
</trkpt>
<trkpt lat="40.072843" lon="-105.2305759">
  <ele>1586.17</ele>
  <time>2026-08-27T18:24:43Z</time>
  <course>8.73</course>
  <speed>0.07211102550927978</speed>
  <fix>3d</fix>
</trkpt>
<trkpt lat="40.072842" lon="-105.230575">
  <ele>1586.09</ele>
  <time>2026-08-27T18:24:43Z</time>
  <course>286.19</course>
  <speed>0.0</speed>
  <fix>3d</fix>
</trkpt>
<trkpt lat="40.0728431" lon="-105.230576">
  <ele>1586.16</ele>
  <time>2026-08-27T18:24:43Z</time>
  <course>8.73</course>
  <speed>0.07810249675906654</speed>
  <fix>3d</fix>
</trkpt>
<trkpt lat="40.072842" lon="-105.230575">
  <ele>1586.09</ele>
  <time>2026-08-27T18:24:43Z</time>
  <course>286.19</course>
  <speed>0.0</speed>
  <fix>3d</fix>
</trkpt>
<trkpt lat="40.0728432" lon="-105.2305762">
  <ele>1586.16</ele>
  <time>2026-08-27T18:24:43Z</time>
  <course>8.73</course>
  <speed>0.08602325267042626</speed>
  <fix>3d</fix>
</trkpt>
<trkpt lat="40.072842" lon="-105.230575">
  <ele>1586.09</ele>
  <time>2026-08-27T18:24:43Z</time>
  <course>286.19</course>
  <speed>0.0</speed>
  <fix>3d</fix>
</trkpt>
<trkpt lat="40.0728434" lon="-105.2305763">
  <ele>1586.16</ele>
  <time>2026-08-27T18:24:43Z</time>
  <course>8.73</course>
  <speed>0.08602325267042626</speed>
  <fix>3d</fix>
</trkpt>
<trkpt lat="40.072842" lon="-105.230575">
  <ele>1586.09</ele>
  <time>2026-08-27T18:24:43Z</time>
  <course>169.05</course>
  <speed>0.0</speed>
  <fix>3d</fix>
</trkpt>
<trkpt lat="40.0728435" lon="-105.2305764">
  <ele>1586.17</ele>
  <time>2026-08-27T18:24:43Z</time>
  <course>8.73</course>
  <speed>0.1</speed>
  <fix>3d</fix>
</trkpt>
<trkpt lat="40.072842" lon="-105.230575">
  <ele>1586.09</ele>
  <time>2026-08-27T18:24:43Z</time>
  <course>152.78</course>
  <speed>0.0</speed>
  <fix>3d</fix>
</trkpt>
<trkpt lat="40.0728436" lon="-105.2305765">
  <ele>1586.17</ele>
  <time>2026-08-27T18:24:43Z</time>
  <course>8.73</course>
  <speed>0.1</speed>
  <fix>3d</fix>
</trkpt>
<trkpt lat="40.072842" lon="-105.230575">
  <ele>1586.09</ele>
  <time>2026-08-27T18:24:43Z</time>
  <course>94.41</course>
  <speed>0.0</speed>
  <fix>3d</fix>
</trkpt>
<trkpt lat="40.0728437" lon="-105.2305767">
  <ele>1586.17</ele>
  <time>2026-08-27T18:24:43Z</time>
  <course>8.72</course>
  <speed>0.10816653826391968</speed>
  <fix>3d</fix>
</trkpt>
<trkpt lat="40.072842" lon="-105.230575">
  <ele>1586.09</ele>
  <time>2026-08-27T18:24:43Z</time>
  <course>310.82</course>
  <speed>0.0</speed>
  <fix>3d</fix>
</trkpt>
<trkpt lat="40.0728439" lon="-105.2305768">
  <ele>1586.17</ele>
  <time>2026-08-27T18:24:43Z</time>
  <course>8.72</course>
  <speed>0.11401754250991379</speed>
  <fix>3d</fix>
</trkpt>
<trkpt lat="40.072842" lon="-105.230575">
  <ele>1586.09</ele>
  <time>2026-08-27T18:24:43Z</time>
  <course>253.89</course>
  <speed>0.0</speed>
  <fix>3d</fix>
</trkpt>
<trkpt lat="40.0728441" lon="-105.230577">
  <ele>1586.17</ele>
  <time>2026-08-27T18:24:43Z</time>
  <course>8.72</course>
  <speed>0.12206555615733702</speed>
  <fix>3d</fix>
</trkpt>
<trkpt lat="40.072842" lon="-105.230575">
  <ele>1586.09</ele>
  <time>2026-08-27T18:24:43Z</time>
  <course>236.99</course>
  <speed>0.0</speed>
  <fix>3d</fix>
</trkpt>
<trkpt lat="40.0728442" lon="-105.2305771">
  <ele>1586.17</ele>
  <time>2026-08-27T18:24:43Z</time>
  <course>8.72</course>
  <speed>0.12206555615733702</speed>
  <fix>3d</fix>
</trkpt>
<trkpt lat="40.072842" lon="-105.230575">
  <ele>1586.09</ele>
  <time>2026-08-27T18:24:43Z</time>
  <course>270.92</course>
  <speed>0.0</speed>
  <fix>3d</fix>
</trkpt>
<trkpt lat="40.0728443" lon="-105.2305772">
  <ele>1586.17</ele>
  <time>2026-08-27T18:24:43Z</time>
  <course>8.72</course>
  <speed>0.12206555615733702</speed>
  <fix>3d</fix>
</trkpt>
<trkpt lat="40.072842" lon="-105.230575">
  <ele>1586.09</ele>
  <time>2026-08-27T18:24:43Z</time>
  <course>268.26</course>
  <speed>0.0</speed>
  <fix>3d</fix>
</trkpt>
<trkpt lat="40.0728445" lon="-105.2305774">
  <ele>1586.17</ele>
  <time>2026-08-27T18:24:43Z</time>
  <course>8.71</course>
  <speed>0.13601470508735444</speed>
  <fix>3d</fix>
</trkpt>
<trkpt lat="40.072842" lon="-105.230575">
  <ele>1586.09</ele>
  <time>2026-08-27T18:24:43Z</time>
  <course>265.11</course>
  <speed>0.0</speed>
  <fix>3d</fix>
</trkpt>
<trkpt lat="40.0728447" lon="-105.2305776">
  <ele>1586.17</ele>
  <time>2026-08-27T18:24:43Z</time>
  <course>8.71</course>
  <speed>0.13601470508735444</speed>
  <fix>3d</fix>
</trkpt>
<trkpt lat="40.072842" lon="-105.230575">
  <ele>1586.09</ele>
  <time>2026-08-27T18:24:43Z</time>
  <course>143.49</course>
  <speed>0.0</speed>
  <fix>3d</fix>
</trkpt>
<trkpt lat="40.0728449" lon="-105.2305778">
  <ele>1586.17</ele>
  <time>2026-08-27T18:24:43Z</time>
  <course>8.71</course>
  <speed>0.15</speed>
  <fix>3d</fix>
</trkpt>
<trkpt lat="40.072842" lon="-105.230575">
  <ele>1586.09</ele>
  <time>2026-08-27T18:24:43Z</time>
  <course>84.84</course>
  <speed>0.0</speed>
  <fix>3d</fix>
</trkpt>
<trkpt lat="40.072845" lon="-105.2305779">
  <ele>1586.17</ele>
  <time>2026-08-27T18:24:43Z</time>
  <course>8.71</course>
  <speed>0.15</speed>
  <fix>3d</fix>
</trkpt>
<trkpt lat="40.072842" lon="-105.230575">
  <ele>1586.09</ele>
  <time>2026-08-27T18:24:43Z</time>
  <course>66.55</course>
  <speed>0.0</speed>
  <fix>3d</fix>
</trkpt>
<trkpt lat="40.0728451" lon="-105.230578">
  <ele>1586.17</ele>
  <time>2026-08-27T18:24:43Z</time>
  <course>8.71</course>
  <speed>0.15</speed>
  <fix>3d</fix>
</trkpt>
<trkpt lat="40.072842" lon="-105.230575">
  <ele>1586.09</ele>
  <time>2026-08-27T18:24:43Z</time>
  <course>277.12</course>
  <speed>0.0</speed>
  <fix>3d</fix>
</trkpt>
<trkpt lat="40.0728452" lon="-105.2305781">
  <ele>1586.17</ele>
  <time>2026-08-27T18:24:43Z</time>
  <course>8.7</course>
  <speed>0.15</speed>
  <fix>3d</fix>
</trkpt>
<trkpt lat="40.072842" lon="-105.230575">
  <ele>1586.09</ele>
  <time>2026-08-27T18:24:43Z</time>
  <course>242.94</course>
  <speed>0.0</speed>
  <fix>3d</fix>
</trkpt>
<trkpt lat="40.0728454" lon="-105.2305783">
  <ele>1586.17</ele>
  <time>2026-08-27T18:24:43Z</time>
  <course>8.7</course>
  <speed>0.15811388300841897</speed>
  <fix>3d</fix>
</trkpt>
<trkpt lat="40.072842" lon="-105.230575">
  <ele>1586.09</ele>
  <time>2026-08-27T18:24:43Z</time>
  <course>104.29</course>
  <speed>0.0</speed>
  <fix>3d</fix>
</trkpt>
<trkpt lat="40.0728456" lon="-105.2305785">
  <ele>1586.17</ele>
  <time>2026-08-27T18:24:43Z</time>
  <course>8.7</course>
  <speed>0.16401219466856726</speed>
  <fix>3d</fix>
</trkpt>
<trkpt lat="40.072842" lon="-105.230575">
  <ele>1586.09</ele>
  <time>2026-08-27T18:24:43Z</time>
  <course>277.62</course>
  <speed>0.0</speed>
  <fix>3d</fix>
</trkpt>
<trkpt lat="40.0728459" lon="-105.2305787">
  <ele>1586.17</ele>
  <time>2026-08-27T18:24:43Z</time>
  <course>8.7</course>
  <speed>0.17204650534085253</speed>
  <fix>3d</fix>
</trkpt>
<trkpt lat="40.072842" lon="-105.230575">
  <ele>1586.09</ele>
  <time>2026-08-27T18:24:43Z</time>
  <course>265.43</course>
  <speed>0.0</speed>
  <fix>3d</fix>
</trkpt>
<trkpt lat="40.0728458" lon="-105.2305787">
  <ele>1586.18</ele>
  <time>2026-08-27T18:24:43Z</time>
  <course>8.7</course>
  <speed>0.17204650534085253</speed>
  <fix>3d</fix>
</trkpt>
<trkpt lat="40.072842" lon="-105.230575">
  <ele>1586.09</ele>
  <time>2026-08-27T18:24:43Z</time>
  <course>264.73</course>
  <speed>0.0</speed>
  <fix>3d</fix>
</trkpt>
<trkpt lat="40.0728459" lon="-105.2305787">
  <ele>1586.18</ele>
  <time>2026-08-27T18:24:43Z</time>
  <course>8.69</course>
  <speed>0.17204650534085253</speed>
  <fix>3d</fix>
</trkpt>
<trkpt lat="40.072842" lon="-105.230575">
  <ele>1586.09</ele>
  <time>2026-08-27T18:24:43Z</time>
  <course>266.29</course>
  <speed>0.0</speed>
  <fix>3d</fix>
</trkpt>
<trkpt lat="40.072846" lon="-105.2305789">
  <ele>1586.18</ele>
  <time>2026-08-27T18:24:43Z</time>
  <course>8.69</course>
  <speed>0.17204650534085253</speed>
  <fix>3d</fix>
</trkpt>
<trkpt lat="40.072842" lon="-105.230575">
  <ele>1586.09</ele>
  <time>2026-08-27T18:24:43Z</time>
  <course>266.18</course>
  <speed>0.0</speed>
  <fix>3d</fix>
</trkpt>
<trkpt lat="40.0728462" lon="-105.2305791">
  <ele>1586.17</ele>
  <time>2026-08-27T18:24:43Z</time>
  <course>8.69</course>
  <speed>0.18601075237738274</speed>
  <fix>3d</fix>
</trkpt>
<trkpt lat="40.072842" lon="-105.230575">
  <ele>1586.09</ele>
  <time>2026-08-27T18:24:43Z</time>
  <course>265.98</course>
  <speed>0.0</speed>
  <fix>3d</fix>
</trkpt>
<trkpt lat="40.0728465" lon="-105.2305793">
  <ele>1586.17</ele>
  <time>2026-08-27T18:24:43Z</time>
  <course>8.69</course>
  <speed>0.18601075237738274</speed>
  <fix>3d</fix>
</trkpt>
<trkpt lat="40.072842" lon="-105.230575">
  <ele>1586.09</ele>
  <time>2026-08-27T18:24:43Z</time>
  <course>266.02</course>
  <speed>0.0</speed>
  <fix>3d</fix>
</trkpt>
<trkpt lat="40.0728464" lon="-105.2305792">
  <ele>1586.16</ele>
  <time>2026-08-27T18:24:43Z</time>
  <course>8.69</course>
  <speed>0.18601075237738274</speed>
  <fix>3d</fix>
</trkpt>
<trkpt lat="40.072842" lon="-105.230575">
  <ele>1586.09</ele>
  <time>2026-08-27T18:24:43Z</time>
  <course>266.04</course>
  <speed>0.0</speed>
  <fix>3d</fix>
</trkpt>
<trkpt lat="40.0728464" lon="-105.2305792">
  <ele>1586.16</ele>
  <time>2026-08-27T18:24:43Z</time>
  <course>8.68</course>
  <speed>0.18601075237738274</speed>
  <fix>3d</fix>
</trkpt>
<trkpt lat="40.072842" lon="-105.230575">
  <ele>1586.09</ele>
  <time>2026-08-27T18:24:43Z</time>
  <course>266.03</course>
  <speed>0.0</speed>
  <fix>3d</fix>
</trkpt>
<trkpt lat="40.0728465" lon="-105.2305793">
  <ele>1586.15</ele>
  <time>2026-08-27T18:24:43Z</time>
  <course>8.68</course>
  <speed>0.18601075237738274</speed>
  <fix>3d</fix>
</trkpt>
<trkpt lat="40.072842" lon="-105.230575">
  <ele>1586.09</ele>
  <time>2026-08-27T18:24:43Z</time>
  <course>266.03</course>
  <speed>0.0</speed>
  <fix>3d</fix>
</trkpt>
<trkpt lat="40.0728467" lon="-105.2305795">
  <ele>1586.15</ele>
  <time>2026-08-27T18:24:43Z</time>
  <course>8.68</course>
  <speed>0.18601075237738274</speed>
  <fix>3d</fix>
</trkpt>
<trkpt lat="40.072842" lon="-105.230575">
  <ele>1586.09</ele>
  <time>2026-08-27T18:24:43Z</time>
  <course>266.03</course>
  <speed>0.0</speed>
  <fix>3d</fix>
</trkpt>
<trkpt lat="40.0728469" lon="-105.2305798">
  <ele>1586.15</ele>
  <time>2026-08-27T18:24:43Z</time>
  <course>8.68</course>
  <speed>0.2</speed>
  <fix>3d</fix>
</trkpt>
<trkpt lat="40.072842" lon="-105.230575">
  <ele>1586.09</ele>
  <time>2026-08-27T18:24:43Z</time>
  <course>266.03</course>
  <speed>0.0</speed>
  <fix>3d</fix>
</trkpt>
<trkpt lat="40.0728471" lon="-105.2305799">
  <ele>1586.14</ele>
  <time>2026-08-27T18:24:43Z</time>
  <course>8.68</course>
  <speed>0.2</speed>
  <fix>3d</fix>
</trkpt>
<trkpt lat="40.072842" lon="-105.230575">
  <ele>1586.09</ele>
  <time>2026-08-27T18:24:43Z</time>
  <course>266.03</course>
  <speed>0.0</speed>
  <fix>3d</fix>
</trkpt>
<trkpt lat="40.0728468" lon="-105.2305796">
  <ele>1586.14</ele>
  <time>2026-08-27T18:24:43Z</time>
  <course>8.67</course>
  <speed>0.18601075237738274</speed>
  <fix>3d</fix>
</trkpt>
<trkpt lat="40.072842" lon="-105.230575">
  <ele>1586.09</ele>
  <time>2026-08-27T18:24:43Z</time>
  <course>266.03</course>
  <speed>0.0</speed>
  <fix>3d</fix>
</trkpt>
<trkpt lat="40.0728468" lon="-105.2305796">
  <ele>1586.13</ele>
  <time>2026-08-27T18:24:43Z</time>
  <course>8.67</course>
  <speed>0.18601075237738274</speed>
  <fix>3d</fix>
</trkpt>
<trkpt lat="40.072842" lon="-105.230575">
  <ele>1586.09</ele>
  <time>2026-08-27T18:24:43Z</time>
  <course>266.03</course>
  <speed>0.0</speed>
  <fix>3d</fix>
</trkpt>
<trkpt lat="40.0728469" lon="-105.2305797">
  <ele>1586.13</ele>
  <time>2026-08-27T18:24:43Z</time>
  <course>8.67</course>
  <speed>0.194164878389476</speed>
  <fix>3d</fix>
</trkpt>
<trkpt lat="40.072842" lon="-105.230575">
  <ele>1586.09</ele>
  <time>2026-08-27T18:24:43Z</time>
  <course>266.03</course>
  <speed>0.0</speed>
  <fix>3d</fix>
</trkpt>
<trkpt lat="40.0728472" lon="-105.23058">
  <ele>1586.13</ele>
  <time>2026-08-27T18:24:43Z</time>
  <course>8.67</course>
  <speed>0.2</speed>
  <fix>3d</fix>
</trkpt>
<trkpt lat="40.072842" lon="-105.230575">
  <ele>1586.09</ele>
  <time>2026-08-27T18:24:43Z</time>
  <course>266.03</course>
  <speed>0.0</speed>
  <fix>3d</fix>
</trkpt>
<trkpt lat="40.0728475" lon="-105.2305803">
  <ele>1586.13</ele>
  <time>2026-08-27T18:24:43Z</time>
  <course>8.67</course>
  <speed>0.20808652046684814</speed>
  <fix>3d</fix>
</trkpt>
<trkpt lat="40.072842" lon="-105.230575">
  <ele>1586.09</ele>
  <time>2026-08-27T18:24:43Z</time>
  <course>266.03</course>
  <speed>0.0</speed>
  <fix>3d</fix>
</trkpt>
<trkpt lat="40.0728471" lon="-105.23058">
  <ele>1586.13</ele>
  <time>2026-08-27T18:24:43Z</time>
  <course>8.67</course>
  <speed>0.2</speed>
  <fix>3d</fix>
</trkpt>
<trkpt lat="40.072842" lon="-105.230575">
  <ele>1586.09</ele>
  <time>2026-08-27T18:24:43Z</time>
  <course>266.03</course>
  <speed>0.0</speed>
  <fix>3d</fix>
</trkpt>
<trkpt lat="40.0728469" lon="-105.2305797">
  <ele>1586.13</ele>
  <time>2026-08-27T18:24:43Z</time>
  <course>8.66</course>
  <speed>0.18601075237738274</speed>
  <fix>3d</fix>
</trkpt>
<trkpt lat="40.072842" lon="-105.230575">
  <ele>1586.09</ele>
  <time>2026-08-27T18:24:43Z</time>
  <course>266.03</course>
  <speed>0.0</speed>
  <fix>3d</fix>
</trkpt>
<trkpt lat="40.072847" lon="-105.2305798">
  <ele>1586.13</ele>
  <time>2026-08-27T18:24:43Z</time>
  <course>8.66</course>
  <speed>0.18601075237738274</speed>
  <fix>3d</fix>
</trkpt>
<trkpt lat="40.072842" lon="-105.230575">
  <ele>1586.09</ele>
  <time>2026-08-27T18:24:43Z</time>
  <course>266.03</course>
  <speed>0.0</speed>
  <fix>3d</fix>
</trkpt>
<trkpt lat="40.0728472" lon="-105.23058">
  <ele>1586.13</ele>
  <time>2026-08-27T18:24:43Z</time>
  <course>8.66</course>
  <speed>0.2</speed>
  <fix>3d</fix>
</trkpt>
<trkpt lat="40.072842" lon="-105.230575">
  <ele>1586.09</ele>
  <time>2026-08-27T18:24:43Z</time>
  <course>266.03</course>
  <speed>0.0</speed>
  <fix>3d</fix>
</trkpt>
<trkpt lat="40.0728474" lon="-105.2305802">
  <ele>1586.13</ele>
  <time>2026-08-27T18:24:43Z</time>
  <course>8.66</course>
  <speed>0.2</speed>
  <fix>3d</fix>
</trkpt>
<trkpt lat="40.072842" lon="-105.230575">
  <ele>1586.09</ele>
  <time>2026-08-27T18:24:43Z</time>
  <course>266.03</course>
  <speed>0.0</speed>
  <fix>3d</fix>
</trkpt>
<trkpt lat="40.072847" lon="-105.2305798">
  <ele>1586.14</ele>
  <time>2026-08-27T18:24:43Z</time>
  <course>8.66</course>
  <speed>0.18601075237738274</speed>
  <fix>3d</fix>
</trkpt>
<trkpt lat="40.072842" lon="-105.230575">
  <ele>1586.09</ele>
  <time>2026-08-27T18:24:43Z</time>
  <course>266.03</course>
  <speed>0.0</speed>
  <fix>3d</fix>
</trkpt>
<trkpt lat="40.0728468" lon="-105.2305796">
  <ele>1586.14</ele>
  <time>2026-08-27T18:24:43Z</time>
  <course>8.65</course>
  <speed>0.18601075237738274</speed>
  <fix>3d</fix>
</trkpt>
<trkpt lat="40.072842" lon="-105.230575">
  <ele>1586.09</ele>
  <time>2026-08-27T18:24:43Z</time>
  <course>266.03</course>
  <speed>0.0</speed>
  <fix>3d</fix>
</trkpt>
<trkpt lat="40.0728468" lon="-105.2305796">
  <ele>1586.15</ele>
  <time>2026-08-27T18:24:43Z</time>
  <course>8.65</course>
  <speed>0.18601075237738274</speed>
  <fix>3d</fix>
</trkpt>
<trkpt lat="40.072842" lon="-105.230575">
  <ele>1586.09</ele>
  <time>2026-08-27T18:24:43Z</time>
  <course>266.03</course>
  <speed>0.0</speed>
  <fix>3d</fix>
</trkpt>
<trkpt lat="40.072847" lon="-105.2305798">
  <ele>1586.15</ele>
  <time>2026-08-27T18:24:43Z</time>
  <course>8.65</course>
  <speed>0.18601075237738274</speed>
  <fix>3d</fix>
</trkpt>
<trkpt lat="40.072842" lon="-105.230575">
  <ele>1586.09</ele>
  <time>2026-08-27T18:24:43Z</time>
  <course>266.03</course>
  <speed>0.0</speed>
  <fix>3d</fix>
</trkpt>
<trkpt lat="40.0728421" lon="-105.2305751">
  <ele>1586.15</ele>
  <time>2026-08-27T18:24:43Z</time>
  <course>8.65</course>
  <speed>0.13601470508735444</speed>
  <fix>3d</fix>
</trkpt>
<trkpt lat="40.072842" lon="-105.230575">
  <ele>1586.09</ele>
  <time>2026-08-27T18:24:43Z</time>
  <course>266.03</course>
  <speed>0.0</speed>
  <fix>3d</fix>
</trkpt>
<trkpt lat="40.0728421" lon="-105.2305751">
  <ele>1586.14</ele>
  <time>2026-08-27T18:24:43Z</time>
  <course>8.65</course>
  <speed>0.07810249675906654</speed>
  <fix>3d</fix>
</trkpt>
<trkpt lat="40.072842" lon="-105.230575">
  <ele>1586.09</ele>
  <time>2026-08-27T18:24:43Z</time>
  <course>301.2</course>
  <speed>0.0</speed>
  <fix>3d</fix>
</trkpt>
<trkpt lat="40.072842" lon="-105.230575">
  <ele>1586.14</ele>
  <time>2026-08-27T18:24:43Z</time>
  <course>8.65</course>
  <speed>0.03605551275463989</speed>
  <fix>3d</fix>
</trkpt>
<trkpt lat="40.072842" lon="-105.230575">
  <ele>1586.09</ele>
  <time>2026-08-27T18:24:43Z</time>
  <course>299.71</course>
  <speed>0.0</speed>
  <fix>3d</fix>
</trkpt>
<trkpt lat="40.072842" lon="-105.230575">
  <ele>1586.15</ele>
  <time>2026-08-27T18:24:43Z</time>
  <course>8.65</course>
  <speed>0.022360679774997897</speed>
  <fix>3d</fix>
</trkpt>
<trkpt lat="40.072842" lon="-105.230575">
  <ele>1586.09</ele>
  <time>2026-08-27T18:24:43Z</time>
  <course>294.57</course>
  <speed>0.0</speed>
  <fix>3d</fix>
</trkpt>
<trkpt lat="40.0728419" lon="-105.2305749">
  <ele>1586.15</ele>
  <time>2026-08-27T18:24:43Z</time>
  <course>8.65</course>
  <speed>0.01</speed>
  <fix>3d</fix>
</trkpt>
<trkpt lat="40.072842" lon="-105.230575">
  <ele>1586.09</ele>
  <time>2026-08-27T18:24:43Z</time>
  <course>148.17</course>
  <speed>0.0</speed>
  <fix>3d</fix>
</trkpt>
<trkpt lat="40.0728419" lon="-105.2305749">
  <ele>1586.15</ele>
  <time>2026-08-27T18:24:43Z</time>
  <course>8.65</course>
  <speed>0.0</speed>
  <fix>3d</fix>
</trkpt>
<trkpt lat="40.072842" lon="-105.230575">
  <ele>1586.09</ele>
  <time>2026-08-27T18:24:43Z</time>
  <course>307.38</course>
  <speed>0.0</speed>
  <fix>3d</fix>
</trkpt>
<trkpt lat="40.0728419" lon="-105.2305749">
  <ele>1586.15</ele>
  <time>2026-08-27T18:24:43Z</time>
  <course>8.65</course>
  <speed>0.0</speed>
  <fix>3d</fix>
</trkpt>
<trkpt lat="40.072842" lon="-105.230575">
  <ele>1586.09</ele>
  <time>2026-08-27T18:24:43Z</time>
  <course>271.12</course>
  <speed>0.0</speed>
  <fix>3d</fix>
</trkpt>
<trkpt lat="40.0728419" lon="-105.2305749">
  <ele>1586.14</ele>
  <time>2026-08-27T18:24:43Z</time>
  <course>8.65</course>
  <speed>0.0</speed>
  <fix>3d</fix>
</trkpt>
<trkpt lat="40.072842" lon="-105.230575">
  <ele>1586.09</ele>
  <time>2026-08-27T18:24:43Z</time>
  <course>249.16</course>
  <speed>0.0</speed>
  <fix>3d</fix>
</trkpt>
<trkpt lat="40.0728419" lon="-105.2305749">
  <ele>1586.15</ele>
  <time>2026-08-27T18:24:43Z</time>
  <course>8.65</course>
  <speed>0.0</speed>
  <fix>3d</fix>
</trkpt>
<trkpt lat="40.072842" lon="-105.230575">
  <ele>1586.09</ele>
  <time>2026-08-27T18:24:43Z</time>
  <course>90.49</course>
  <speed>0.0</speed>
  <fix>3d</fix>
</trkpt>
<trkpt lat="40.072842" lon="-105.230575">
  <ele>1586.15</ele>
  <time>2026-08-27T18:24:43Z</time>
  <course>8.65</course>
  <speed>0.0</speed>
  <fix>3d</fix>
</trkpt>
<trkpt lat="40.072842" lon="-105.230575">
  <ele>1586.09</ele>
  <time>2026-08-27T18:24:43Z</time>
  <course>339.36</course>
  <speed>0.0</speed>
  <fix>3d</fix>
</trkpt>
<trkpt lat="40.072842" lon="-105.230575">
  <ele>1586.14</ele>
  <time>2026-08-27T18:24:43Z</time>
  <course>8.64</course>
  <speed>0.01</speed>
  <fix>3d</fix>
</trkpt>
<trkpt lat="40.072842" lon="-105.230575">
  <ele>1586.09</ele>
  <time>2026-08-27T18:24:43Z</time>
  <course>325.69</course>
  <speed>0.0</speed>
  <fix>3d</fix>
</trkpt>
<trkpt lat="40.072842" lon="-105.230575">
  <ele>1586.14</ele>
  <time>2026-08-27T18:24:43Z</time>
  <course>8.64</course>
  <speed>0.01</speed>
  <fix>3d</fix>
</trkpt>
<trkpt lat="40.072842" lon="-105.230575">
  <ele>1586.09</ele>
  <time>2026-08-27T18:24:43Z</time>
  <course>118.87</course>
  <speed>0.0</speed>
  <fix>3d</fix>
</trkpt>
<trkpt lat="40.072842" lon="-105.230575">
  <ele>1586.14</ele>
  <time>2026-08-27T18:24:43Z</time>
  <course>8.64</course>
  <speed>0.01414213562373095</speed>
  <fix>3d</fix>
</trkpt>
<trkpt lat="40.072842" lon="-105.230575">
  <ele>1586.09</ele>
  <time>2026-08-27T18:24:43Z</time>
  <course>78.77</course>
  <speed>0.0</speed>
  <fix>3d</fix>
</trkpt>
<trkpt lat="40.072842" lon="-105.230575">
  <ele>1586.14</ele>
  <time>2026-08-27T18:24:43Z</time>
  <course>8.64</course>
  <speed>0.01414213562373095</speed>
  <fix>3d</fix>
</trkpt>
<trkpt lat="40.072842" lon="-105.230575">
  <ele>1586.09</ele>
  <time>2026-08-27T18:24:43Z</time>
  <course>311.21</course>
  <speed>0.0</speed>
  <fix>3d</fix>
</trkpt>
<trkpt lat="40.0728421" lon="-105.2305751">
  <ele>1586.15</ele>
  <time>2026-08-27T18:24:43Z</time>
  <course>8.64</course>
  <speed>0.01414213562373095</speed>
  <fix>3d</fix>
</trkpt>
<trkpt lat="40.072842" lon="-105.230575">
  <ele>1586.09</ele>
  <time>2026-08-27T18:24:43Z</time>
  <course>259.44</course>
  <speed>0.0</speed>
  <fix>3d</fix>
</trkpt>
<trkpt lat="40.0728421" lon="-105.2305751">
  <ele>1586.15</ele>
  <time>2026-08-27T18:24:43Z</time>
  <course>8.64</course>
  <speed>0.01414213562373095</speed>
  <fix>3d</fix>
</trkpt>
<trkpt lat="40.072842" lon="-105.230575">
  <ele>1586.09</ele>
  <time>2026-08-27T18:24:43Z</time>
  <course>271.69</course>
  <speed>0.0</speed>
  <fix>3d</fix>
</trkpt>
<trkpt lat="40.0728421" lon="-105.2305751">
  <ele>1586.16</ele>
  <time>2026-08-27T18:24:43Z</time>
  <course>8.64</course>
  <speed>0.01414213562373095</speed>
  <fix>3d</fix>
</trkpt>
<trkpt lat="40.072842" lon="-105.230575">
  <ele>1586.09</ele>
  <time>2026-08-27T18:24:43Z</time>
  <course>297.6</course>
  <speed>0.0</speed>
  <fix>3d</fix>
</trkpt>
<trkpt lat="40.0728421" lon="-105.2305751">
  <ele>1586.16</ele>
  <time>2026-08-27T18:24:43Z</time>
  <course>8.64</course>
  <speed>0.01414213562373095</speed>
  <fix>3d</fix>
</trkpt>
<trkpt lat="40.072842" lon="-105.230575">
  <ele>1586.09</ele>
  <time>2026-08-27T18:24:43Z</time>
  <course>285.84</course>
  <speed>0.0</speed>
  <fix>3d</fix>
</trkpt>
<trkpt lat="40.0728421" lon="-105.2305751">
  <ele>1586.16</ele>
  <time>2026-08-27T18:24:43Z</time>
  <course>8.64</course>
  <speed>0.01414213562373095</speed>
  <fix>3d</fix>
</trkpt>
<trkpt lat="40.072842" lon="-105.230575">
  <ele>1586.09</ele>
  <time>2026-08-27T18:24:43Z</time>
  <course>284.88</course>
  <speed>0.0</speed>
  <fix>3d</fix>
</trkpt>
<trkpt lat="40.0728421" lon="-105.2305751">
  <ele>1586.15</ele>
  <time>2026-08-27T18:24:43Z</time>
  <course>8.64</course>
  <speed>0.01414213562373095</speed>
  <fix>3d</fix>
</trkpt>
<trkpt lat="40.072842" lon="-105.230575">
  <ele>1586.09</ele>
  <time>2026-08-27T18:24:43Z</time>
  <course>286.4</course>
  <speed>0.0</speed>
  <fix>3d</fix>
</trkpt>
<trkpt lat="40.0728421" lon="-105.2305751">
  <ele>1586.15</ele>
  <time>2026-08-27T18:24:43Z</time>
  <course>8.64</course>
  <speed>0.022360679774997897</speed>
  <fix>3d</fix>
</trkpt>
<trkpt lat="40.072842" lon="-105.230575">
  <ele>1586.09</ele>
  <time>2026-08-27T18:24:43Z</time>
  <course>286.34</course>
  <speed>0.0</speed>
  <fix>3d</fix>
</trkpt>
<trkpt lat="40.0728421" lon="-105.2305751">
  <ele>1586.15</ele>
  <time>2026-08-27T18:24:43Z</time>
  <course>8.64</course>
  <speed>0.022360679774997897</speed>
  <fix>3d</fix>
</trkpt>
<trkpt lat="40.072842" lon="-105.230575">
  <ele>1586.09</ele>
  <time>2026-08-27T18:24:43Z</time>
  <course>286.14</course>
  <speed>0.0</speed>
  <fix>3d</fix>
</trkpt>
<trkpt lat="40.0728421" lon="-105.2305751">
  <ele>1586.16</ele>
  <time>2026-08-27T18:24:43Z</time>
  <course>8.64</course>
  <speed>0.022360679774997897</speed>
  <fix>3d</fix>
</trkpt>
<trkpt lat="40.072842" lon="-105.230575">
  <ele>1586.09</ele>
  <time>2026-08-27T18:24:43Z</time>
  <course>150.27</course>
  <speed>0.0</speed>
  <fix>3d</fix>
</trkpt>
<trkpt lat="40.0728421" lon="-105.2305751">
  <ele>1586.16</ele>
  <time>2026-08-27T18:24:43Z</time>
  <course>8.64</course>
  <speed>0.022360679774997897</speed>
  <fix>3d</fix>
</trkpt>
<trkpt lat="40.072842" lon="-105.230575">
  <ele>1586.09</ele>
  <time>2026-08-27T18:24:43Z</time>
  <course>100.39</course>
  <speed>0.0</speed>
  <fix>3d</fix>
</trkpt>
<trkpt lat="40.0728421" lon="-105.2305751">
  <ele>1586.16</ele>
  <time>2026-08-27T18:24:43Z</time>
  <course>8.64</course>
  <speed>0.022360679774997897</speed>
  <fix>3d</fix>
</trkpt>
<trkpt lat="40.072842" lon="-105.230575">
  <ele>1586.09</ele>
  <time>2026-08-27T18:24:43Z</time>
  <course>41.23</course>
  <speed>0.0</speed>
  <fix>3d</fix>
</trkpt>
<trkpt lat="40.0728421" lon="-105.2305751">
  <ele>1586.16</ele>
  <time>2026-08-27T18:24:43Z</time>
  <course>8.64</course>
  <speed>0.022360679774997897</speed>
  <fix>3d</fix>
</trkpt>
<trkpt lat="40.072842" lon="-105.230575">
  <ele>1586.09</ele>
  <time>2026-08-27T18:24:43Z</time>
  <course>210.74</course>
  <speed>0.0</speed>
  <fix>3d</fix>
</trkpt>
<trkpt lat="40.0728421" lon="-105.2305751">
  <ele>1586.16</ele>
  <time>2026-08-27T18:24:43Z</time>
  <course>8.64</course>
  <speed>0.022360679774997897</speed>
  <fix>3d</fix>
</trkpt>
<trkpt lat="40.072842" lon="-105.230575">
  <ele>1586.09</ele>
  <time>2026-08-27T18:24:43Z</time>
  <course>151.32</course>
  <speed>0.0</speed>
  <fix>3d</fix>
</trkpt>
<trkpt lat="40.0728421" lon="-105.2305751">
  <ele>1586.16</ele>
  <time>2026-08-27T18:24:43Z</time>
  <course>8.64</course>
  <speed>0.022360679774997897</speed>
  <fix>3d</fix>
</trkpt>
<trkpt lat="40.072842" lon="-105.230575">
  <ele>1586.09</ele>
  <time>2026-08-27T18:24:43Z</time>
  <course>75.16</course>
  <speed>0.0</speed>
  <fix>3d</fix>
</trkpt>
<trkpt lat="40.0728421" lon="-105.2305751">
  <ele>1586.16</ele>
  <time>2026-08-27T18:24:43Z</time>
  <course>8.64</course>
  <speed>0.022360679774997897</speed>
  <fix>3d</fix>
</trkpt>
<trkpt lat="40.072842" lon="-105.230575">
  <ele>1586.09</ele>
  <time>2026-08-27T18:24:43Z</time>
  <course>319.46</course>
  <speed>0.0</speed>
  <fix>3d</fix>
</trkpt>
<trkpt lat="40.0728421" lon="-105.2305751">
  <ele>1586.16</ele>
  <time>2026-08-27T18:24:43Z</time>
  <course>8.64</course>
  <speed>0.022360679774997897</speed>
  <fix>3d</fix>
</trkpt>
<trkpt lat="40.072842" lon="-105.230575">
  <ele>1586.09</ele>
  <time>2026-08-27T18:24:43Z</time>
  <course>271.16</course>
  <speed>0.0</speed>
  <fix>3d</fix>
</trkpt>
<trkpt lat="40.0728421" lon="-105.2305751">
  <ele>1586.16</ele>
  <time>2026-08-27T18:24:43Z</time>
  <course>8.64</course>
  <speed>0.01414213562373095</speed>
  <fix>3d</fix>
</trkpt>
<trkpt lat="40.072842" lon="-105.230575">
  <ele>1586.09</ele>
  <time>2026-08-27T18:24:43Z</time>
  <course>281.84</course>
  <speed>0.0</speed>
  <fix>3d</fix>
</trkpt>
<trkpt lat="40.0728421" lon="-105.2305751">
  <ele>1586.16</ele>
  <time>2026-08-27T18:24:43Z</time>
  <course>8.64</course>
  <speed>0.01414213562373095</speed>
  <fix>3d</fix>
</trkpt>
<trkpt lat="40.072842" lon="-105.230575">
  <ele>1586.09</ele>
  <time>2026-08-27T18:24:43Z</time>
  <course>281.16</course>
  <speed>0.0</speed>
  <fix>3d</fix>
</trkpt>
<trkpt lat="40.0728421" lon="-105.2305751">
  <ele>1586.16</ele>
  <time>2026-08-27T18:24:43Z</time>
  <course>8.64</course>
  <speed>0.01414213562373095</speed>
  <fix>3d</fix>
</trkpt>
<trkpt lat="40.072842" lon="-105.230575">
  <ele>1586.09</ele>
  <time>2026-08-27T18:24:43Z</time>
  <course>105.97</course>
  <speed>0.0</speed>
  <fix>3d</fix>
</trkpt>
<trkpt lat="40.0728421" lon="-105.2305751">
  <ele>1586.16</ele>
  <time>2026-08-27T18:24:43Z</time>
  <course>8.64</course>
  <speed>0.01414213562373095</speed>
  <fix>3d</fix>
</trkpt>
<trkpt lat="40.072842" lon="-105.230575">
  <ele>1586.09</ele>
  <time>2026-08-27T18:24:43Z</time>
  <course>271.23</course>
  <speed>0.0</speed>
  <fix>3d</fix>
</trkpt>
<trkpt lat="40.0728421" lon="-105.2305751">
  <ele>1586.16</ele>
  <time>2026-08-27T18:24:43Z</time>
  <course>8.64</course>
  <speed>0.01414213562373095</speed>
  <fix>3d</fix>
</trkpt>
<trkpt lat="40.072842" lon="-105.230575">
  <ele>1586.09</ele>
  <time>2026-08-27T18:24:43Z</time>
  <course>275.35</course>
  <speed>0.0</speed>
  <fix>3d</fix>
</trkpt>
<trkpt lat="40.0728421" lon="-105.2305751">
  <ele>1586.16</ele>
  <time>2026-08-27T18:24:43Z</time>
  <course>8.64</course>
  <speed>0.01414213562373095</speed>
  <fix>3d</fix>
</trkpt>
<trkpt lat="40.072842" lon="-105.230575">
  <ele>1586.09</ele>
  <time>2026-08-27T18:24:43Z</time>
  <course>262.11</course>
  <speed>0.0</speed>
  <fix>3d</fix>
</trkpt>
<trkpt lat="40.0728421" lon="-105.2305751">
  <ele>1586.17</ele>
  <time>2026-08-27T18:24:43Z</time>
  <course>8.64</course>
  <speed>0.01414213562373095</speed>
  <fix>3d</fix>
</trkpt>
<trkpt lat="40.072842" lon="-105.230575">
  <ele>1586.09</ele>
  <time>2026-08-27T18:24:43Z</time>
  <course>263.48</course>
  <speed>0.0</speed>
  <fix>3d</fix>
</trkpt>
<trkpt lat="40.0728421" lon="-105.2305751">
  <ele>1586.17</ele>
  <time>2026-08-27T18:24:43Z</time>
  <course>8.64</course>
  <speed>0.01414213562373095</speed>
  <fix>3d</fix>
</trkpt>
<trkpt lat="40.072842" lon="-105.230575">
  <ele>1586.09</ele>
  <time>2026-08-27T18:24:43Z</time>
  <course>266.71</course>
  <speed>0.0</speed>
  <fix>3d</fix>
</trkpt>
<trkpt lat="40.0728421" lon="-105.2305751">
  <ele>1586.18</ele>
  <time>2026-08-27T18:24:43Z</time>
  <course>8.64</course>
  <speed>0.01414213562373095</speed>
  <fix>3d</fix>
</trkpt>
<trkpt lat="40.072842" lon="-105.230575">
  <ele>1586.09</ele>
  <time>2026-08-27T18:24:43Z</time>
  <course>266.25</course>
  <speed>0.0</speed>
  <fix>3d</fix>
</trkpt>
<trkpt lat="40.0728421" lon="-105.2305751">
  <ele>1586.19</ele>
  <time>2026-08-27T18:24:43Z</time>
  <course>8.64</course>
  <speed>0.01414213562373095</speed>
  <fix>3d</fix>
</trkpt>
<trkpt lat="40.072842" lon="-105.230575">
  <ele>1586.09</ele>
  <time>2026-08-27T18:24:43Z</time>
  <course>265.91</course>
  <speed>0.0</speed>
  <fix>3d</fix>
</trkpt>
<trkpt lat="40.0728421" lon="-105.2305751">
  <ele>1586.19</ele>
  <time>2026-08-27T18:24:43Z</time>
  <course>8.64</course>
  <speed>0.022360679774997897</speed>
  <fix>3d</fix>
</trkpt>
<trkpt lat="40.072842" lon="-105.230575">
  <ele>1586.09</ele>
  <time>2026-08-27T18:24:43Z</time>
  <course>266.02</course>
  <speed>0.0</speed>
  <fix>3d</fix>
</trkpt>
<trkpt lat="40.0728422" lon="-105.2305752">
  <ele>1586.19</ele>
  <time>2026-08-27T18:24:43Z</time>
  <course>8.64</course>
  <speed>0.022360679774997897</speed>
  <fix>3d</fix>
</trkpt>
<trkpt lat="40.072842" lon="-105.230575">
  <ele>1586.09</ele>
  <time>2026-08-27T18:24:43Z</time>
  <course>266.05</course>
  <speed>0.0</speed>
  <fix>3d</fix>
</trkpt>
<trkpt lat="40.0728422" lon="-105.2305752">
  <ele>1586.19</ele>
  <time>2026-08-27T18:24:43Z</time>
  <course>8.64</course>
  <speed>0.022360679774997897</speed>
  <fix>3d</fix>
</trkpt>
<trkpt lat="40.072842" lon="-105.230575">
  <ele>1586.09</ele>
  <time>2026-08-27T18:24:43Z</time>
  <course>160.52</course>
  <speed>0.0</speed>
  <fix>3d</fix>
</trkpt>
<trkpt lat="40.0728423" lon="-105.2305753">
  <ele>1586.19</ele>
  <time>2026-08-27T18:24:43Z</time>
  <course>8.64</course>
  <speed>0.0282842712474619</speed>
  <fix>3d</fix>
</trkpt>
<trkpt lat="40.072842" lon="-105.230575">
  <ele>1586.09</ele>
  <time>2026-08-27T18:24:43Z</time>
  <course>87.54</course>
  <speed>0.0</speed>
  <fix>3d</fix>
</trkpt>
<trkpt lat="40.0728423" lon="-105.2305753">
  <ele>1586.19</ele>
  <time>2026-08-27T18:24:43Z</time>
  <course>8.64</course>
  <speed>0.03605551275463989</speed>
  <fix>3d</fix>
</trkpt>
<trkpt lat="40.072842" lon="-105.230575">
  <ele>1586.09</ele>
  <time>2026-08-27T18:24:43Z</time>
  <course>60.17</course>
  <speed>0.0</speed>
  <fix>3d</fix>
</trkpt>
<trkpt lat="40.0728424" lon="-105.2305754">
  <ele>1586.19</ele>
  <time>2026-08-27T18:24:43Z</time>
  <course>8.64</course>
  <speed>0.03605551275463989</speed>
  <fix>3d</fix>
</trkpt>
<trkpt lat="40.072842" lon="-105.230575">
  <ele>1586.09</ele>
  <time>2026-08-27T18:24:43Z</time>
  <course>284.22</course>
  <speed>0.0</speed>
  <fix>3d</fix>
</trkpt>
<trkpt lat="40.0728425" lon="-105.2305755">
  <ele>1586.18</ele>
  <time>2026-08-27T18:24:43Z</time>
  <course>8.64</course>
  <speed>0.04242640687119285</speed>
  <fix>3d</fix>
</trkpt>
<trkpt lat="40.072842" lon="-105.230575">
  <ele>1586.09</ele>
  <time>2026-08-27T18:24:43Z</time>
  <course>98.57</course>
  <speed>0.0</speed>
  <fix>3d</fix>
</trkpt>
<trkpt lat="40.0728426" lon="-105.2305756">
  <ele>1586.18</ele>
  <time>2026-08-27T18:24:43Z</time>
  <course>8.64</course>
  <speed>0.05</speed>
  <fix>3d</fix>
</trkpt>
<trkpt lat="40.072842" lon="-105.230575">
  <ele>1586.09</ele>
  <time>2026-08-27T18:24:43Z</time>
  <course>110.28</course>
  <speed>0.0</speed>
  <fix>3d</fix>
</trkpt>
<trkpt lat="40.0728427" lon="-105.2305756">
  <ele>1586.18</ele>
  <time>2026-08-27T18:24:43Z</time>
  <course>8.64</course>
  <speed>0.05</speed>
  <fix>3d</fix>
</trkpt>
<trkpt lat="40.072842" lon="-105.230575">
  <ele>1586.09</ele>
  <time>2026-08-27T18:24:43Z</time>
  <course>129.34</course>
  <speed>0.0</speed>
  <fix>3d</fix>
</trkpt>
<trkpt lat="40.0728427" lon="-105.2305757">
  <ele>1586.17</ele>
  <time>2026-08-27T18:24:43Z</time>
  <course>8.64</course>
  <speed>0.05830951894845301</speed>
  <fix>3d</fix>
</trkpt>
<trkpt lat="40.072842" lon="-105.230575">
  <ele>1586.09</ele>
  <time>2026-08-27T18:24:43Z</time>
  <course>75.39</course>
  <speed>0.0</speed>
  <fix>3d</fix>
</trkpt>
<trkpt lat="40.0728428" lon="-105.2305758">
  <ele>1586.17</ele>
  <time>2026-08-27T18:24:43Z</time>
  <course>8.64</course>
  <speed>0.06403124237432849</speed>
  <fix>3d</fix>
</trkpt>
<trkpt lat="40.072842" lon="-105.230575">
  <ele>1586.09</ele>
  <time>2026-08-27T18:24:43Z</time>
  <course>120.17</course>
  <speed>0.0</speed>
  <fix>3d</fix>
</trkpt>
<trkpt lat="40.0728429" lon="-105.2305759">
  <ele>1586.17</ele>
  <time>2026-08-27T18:24:43Z</time>
  <course>8.64</course>
  <speed>0.06403124237432849</speed>
  <fix>3d</fix>
</trkpt>
<trkpt lat="40.072842" lon="-105.230575">
  <ele>1586.09</ele>
  <time>2026-08-27T18:24:43Z</time>
  <course>145.28</course>
  <speed>0.0</speed>
  <fix>3d</fix>
</trkpt>
<trkpt lat="40.072843" lon="-105.230576">
  <ele>1586.17</ele>
  <time>2026-08-27T18:24:43Z</time>
  <course>8.64</course>
  <speed>0.07211102550927978</speed>
  <fix>3d</fix>
</trkpt>
<trkpt lat="40.072842" lon="-105.230575">
  <ele>1586.09</ele>
  <time>2026-08-27T18:24:43Z</time>
  <course>89.92</course>
  <speed>0.0</speed>
  <fix>3d</fix>
</trkpt>
<trkpt lat="40.0728432" lon="-105.2305761">
  <ele>1586.18</ele>
  <time>2026-08-27T18:24:43Z</time>
  <course>8.64</course>
  <speed>0.07810249675906654</speed>
  <fix>3d</fix>
</trkpt>
<trkpt lat="40.072842" lon="-105.230575">
  <ele>1586.09</ele>
  <time>2026-08-27T18:24:43Z</time>
  <course>78.4</course>
  <speed>0.0</speed>
  <fix>3d</fix>
</trkpt>
<trkpt lat="40.0728433" lon="-105.2305762">
  <ele>1586.19</ele>
  <time>2026-08-27T18:24:43Z</time>
  <course>8.64</course>
  <speed>0.08602325267042626</speed>
  <fix>3d</fix>
</trkpt>
<trkpt lat="40.072842" lon="-105.230575">
  <ele>1586.09</ele>
  <time>2026-08-27T18:24:43Z</time>
  <course>124.42</course>
  <speed>0.0</speed>
  <fix>3d</fix>
</trkpt>
<trkpt lat="40.0728434" lon="-105.2305763">
  <ele>1586.19</ele>
  <time>2026-08-27T18:24:43Z</time>
  <course>8.64</course>
  <speed>0.08602325267042626</speed>
  <fix>3d</fix>
</trkpt>
<trkpt lat="40.072842" lon="-105.230575">
  <ele>1586.09</ele>
  <time>2026-08-27T18:24:43Z</time>
  <course>104.71</course>
  <speed>0.0</speed>
  <fix>3d</fix>
</trkpt>
<trkpt lat="40.0728435" lon="-105.2305765">
  <ele>1586.19</ele>
  <time>2026-08-27T18:24:43Z</time>
  <course>8.64</course>
  <speed>0.08602325267042626</speed>
  <fix>3d</fix>
</trkpt>
<trkpt lat="40.072842" lon="-105.230575">
  <ele>1586.09</ele>
  <time>2026-08-27T18:24:43Z</time>
  <course>25.55</course>
  <speed>0.0</speed>
  <fix>3d</fix>
</trkpt>
<trkpt lat="40.0728436" lon="-105.2305766">
  <ele>1586.2</ele>
  <time>2026-08-27T18:24:43Z</time>
  <course>8.63</course>
  <speed>0.1</speed>
  <fix>3d</fix>
</trkpt>
<trkpt lat="40.072842" lon="-105.230575">
  <ele>1586.09</ele>
  <time>2026-08-27T18:24:43Z</time>
  <course>91.09</course>
  <speed>0.0</speed>
  <fix>3d</fix>
</trkpt>
<trkpt lat="40.0728438" lon="-105.2305768">
  <ele>1586.2</ele>
  <time>2026-08-27T18:24:43Z</time>
  <course>8.63</course>
  <speed>0.1</speed>
  <fix>3d</fix>
</trkpt>
<trkpt lat="40.072842" lon="-105.230575">
  <ele>1586.09</ele>
  <time>2026-08-27T18:24:43Z</time>
  <course>87.58</course>
  <speed>0.0</speed>
  <fix>3d</fix>
</trkpt>
<trkpt lat="40.0728439" lon="-105.2305769">
  <ele>1586.2</ele>
  <time>2026-08-27T18:24:43Z</time>
  <course>8.63</course>
  <speed>0.10816653826391968</speed>
  <fix>3d</fix>
</trkpt>
<trkpt lat="40.072842" lon="-105.230575">
  <ele>1586.09</ele>
  <time>2026-08-27T18:24:43Z</time>
  <course>102.38</course>
  <speed>0.0</speed>
  <fix>3d</fix>
</trkpt>
<trkpt lat="40.072844" lon="-105.230577">
  <ele>1586.2</ele>
  <time>2026-08-27T18:24:43Z</time>
  <course>8.63</course>
  <speed>0.11401754250991379</speed>
  <fix>3d</fix>
</trkpt>
<trkpt lat="40.072842" lon="-105.230575">
  <ele>1586.09</ele>
  <time>2026-08-27T18:24:43Z</time>
  <course>119.75</course>
  <speed>0.0</speed>
  <fix>3d</fix>
</trkpt>
<trkpt lat="40.0728441" lon="-105.2305771">
  <ele>1586.2</ele>
  <time>2026-08-27T18:24:43Z</time>
  <course>8.63</course>
  <speed>0.11401754250991379</speed>
  <fix>3d</fix>
</trkpt>
<trkpt lat="40.072842" lon="-105.230575">
  <ele>1586.09</ele>
  <time>2026-08-27T18:24:43Z</time>
  <course>117.23</course>
  <speed>0.0</speed>
  <fix>3d</fix>
</trkpt>
<trkpt lat="40.0728443" lon="-105.2305773">
  <ele>1586.2</ele>
  <time>2026-08-27T18:24:43Z</time>
  <course>8.63</course>
  <speed>0.12206555615733702</speed>
  <fix>3d</fix>
</trkpt>
<trkpt lat="40.072842" lon="-105.230575">
  <ele>1586.09</ele>
  <time>2026-08-27T18:24:43Z</time>
  <course>86.45</course>
  <speed>0.0</speed>
  <fix>3d</fix>
</trkpt>
<trkpt lat="40.0728445" lon="-105.2305774">
  <ele>1586.19</ele>
  <time>2026-08-27T18:24:43Z</time>
  <course>8.63</course>
  <speed>0.12806248474865697</speed>
  <fix>3d</fix>
</trkpt>
<trkpt lat="40.072842" lon="-105.230575">
  <ele>1586.09</ele>
  <time>2026-08-27T18:24:43Z</time>
  <course>115.38</course>
  <speed>0.0</speed>
  <fix>3d</fix>
</trkpt>
<trkpt lat="40.0728447" lon="-105.2305776">
  <ele>1586.19</ele>
  <time>2026-08-27T18:24:43Z</time>
  <course>8.63</course>
  <speed>0.13601470508735444</speed>
  <fix>3d</fix>
</trkpt>
<trkpt lat="40.072842" lon="-105.230575">
  <ele>1586.09</ele>
  <time>2026-08-27T18:24:43Z</time>
  <course>137.05</course>
  <speed>0.0</speed>
  <fix>3d</fix>
</trkpt>
<trkpt lat="40.0728447" lon="-105.2305777">
  <ele>1586.19</ele>
  <time>2026-08-27T18:24:43Z</time>
  <course>8.63</course>
  <speed>0.13601470508735444</speed>
  <fix>3d</fix>
</trkpt>
<trkpt lat="40.072842" lon="-105.230575">
  <ele>1586.09</ele>
  <time>2026-08-27T18:24:43Z</time>
  <course>98.59</course>
  <speed>0.0</speed>
  <fix>3d</fix>
</trkpt>
<trkpt lat="40.0728448" lon="-105.2305778">
  <ele>1586.19</ele>
  <time>2026-08-27T18:24:44Z</time>
  <course>8.62</course>
  <speed>0.13601470508735444</speed>
  <fix>3d</fix>
</trkpt>
<trkpt lat="40.072842" lon="-105.230575">
  <ele>1586.09</ele>
  <time>2026-08-27T18:24:44Z</time>
  <course>116.93</course>
  <speed>0.0</speed>
  <fix>3d</fix>
</trkpt>
<trkpt lat="40.072845" lon="-105.2305779">
  <ele>1586.19</ele>
  <time>2026-08-27T18:24:44Z</time>
  <course>8.62</course>
  <speed>0.13601470508735444</speed>
  <fix>3d</fix>
</trkpt>
<trkpt lat="40.072842" lon="-105.230575">
  <ele>1586.09</ele>
  <time>2026-08-27T18:24:44Z</time>
  <course>135.95</course>
  <speed>0.0</speed>
  <fix>3d</fix>
</trkpt>
<trkpt lat="40.0728452" lon="-105.2305781">
  <ele>1586.19</ele>
  <time>2026-08-27T18:24:44Z</time>
  <course>8.62</course>
  <speed>0.15</speed>
  <fix>3d</fix>
</trkpt>
<trkpt lat="40.072842" lon="-105.230575">
  <ele>1586.09</ele>
  <time>2026-08-27T18:24:44Z</time>
  <course>91.95</course>
  <speed>0.0</speed>
  <fix>3d</fix>
</trkpt>
<trkpt lat="40.0728454" lon="-105.2305783">
  <ele>1586.18</ele>
  <time>2026-08-27T18:24:44Z</time>
  <course>8.62</course>
  <speed>0.15811388300841897</speed>
  <fix>3d</fix>
</trkpt>
<trkpt lat="40.072842" lon="-105.230575">
  <ele>1586.09</ele>
  <time>2026-08-27T18:24:44Z</time>
  <course>72.34</course>
  <speed>0.0</speed>
  <fix>3d</fix>
</trkpt>
<trkpt lat="40.0728455" lon="-105.2305785">
  <ele>1586.17</ele>
  <time>2026-08-27T18:24:44Z</time>
  <course>8.62</course>
  <speed>0.15811388300841897</speed>
  <fix>3d</fix>
</trkpt>
<trkpt lat="40.072842" lon="-105.230575">
  <ele>1586.09</ele>
  <time>2026-08-27T18:24:44Z</time>
  <course>126.8</course>
  <speed>0.0</speed>
  <fix>3d</fix>
</trkpt>
<trkpt lat="40.0728455" lon="-105.2305784">
  <ele>1586.16</ele>
  <time>2026-08-27T18:24:44Z</time>
  <course>8.62</course>
  <speed>0.15811388300841897</speed>
  <fix>3d</fix>
</trkpt>
<trkpt lat="40.072842" lon="-105.230575">
  <ele>1586.09</ele>
  <time>2026-08-27T18:24:44Z</time>
  <course>98.8</course>
  <speed>0.0</speed>
  <fix>3d</fix>
</trkpt>
<trkpt lat="40.0728456" lon="-105.2305785">
  <ele>1586.17</ele>
  <time>2026-08-27T18:24:44Z</time>
  <course>8.62</course>
  <speed>0.15811388300841897</speed>
  <fix>3d</fix>
</trkpt>
<trkpt lat="40.072842" lon="-105.230575">
  <ele>1586.09</ele>
  <time>2026-08-27T18:24:44Z</time>
  <course>50.85</course>
  <speed>0.0</speed>
  <fix>3d</fix>
</trkpt>
<trkpt lat="40.0728458" lon="-105.2305787">
  <ele>1586.17</ele>
  <time>2026-08-27T18:24:44Z</time>
  <course>8.62</course>
  <speed>0.16401219466856726</speed>
  <fix>3d</fix>
</trkpt>
<trkpt lat="40.072842" lon="-105.230575">
  <ele>1586.09</ele>
  <time>2026-08-27T18:24:44Z</time>
  <course>167.68</course>
  <speed>0.0</speed>
  <fix>3d</fix>
</trkpt>
<trkpt lat="40.072846" lon="-105.2305789">
  <ele>1586.17</ele>
  <time>2026-08-27T18:24:44Z</time>
  <course>8.61</course>
  <speed>0.17204650534085253</speed>
  <fix>3d</fix>
</trkpt>
<trkpt lat="40.072842" lon="-105.230575">
  <ele>1586.09</ele>
  <time>2026-08-27T18:24:44Z</time>
  <course>118.95</course>
  <speed>0.0</speed>
  <fix>3d</fix>
</trkpt>
<trkpt lat="40.0728463" lon="-105.2305792">
  <ele>1586.17</ele>
  <time>2026-08-27T18:24:44Z</time>
  <course>8.61</course>
  <speed>0.17804493814764857</speed>
  <fix>3d</fix>
</trkpt>
<trkpt lat="40.072842" lon="-105.230575">
  <ele>1586.09</ele>
  <time>2026-08-27T18:24:44Z</time>
  <course>118.12</course>
  <speed>0.0</speed>
  <fix>3d</fix>
</trkpt>
<trkpt lat="40.0728461" lon="-105.2305791">
  <ele>1586.17</ele>
  <time>2026-08-27T18:24:44Z</time>
  <course>8.61</course>
  <speed>0.17204650534085253</speed>
  <fix>3d</fix>
</trkpt>
<trkpt lat="40.072842" lon="-105.230575">
  <ele>1586.09</ele>
  <time>2026-08-27T18:24:44Z</time>
  <course>115.61</course>
  <speed>0.0</speed>
  <fix>3d</fix>
</trkpt>
<trkpt lat="40.0728461" lon="-105.230579">
  <ele>1586.17</ele>
  <time>2026-08-27T18:24:44Z</time>
  <course>8.61</course>
  <speed>0.17204650534085253</speed>
  <fix>3d</fix>
</trkpt>
<trkpt lat="40.072842" lon="-105.230575">
  <ele>1586.09</ele>
  <time>2026-08-27T18:24:44Z</time>
  <course>84.72</course>
  <speed>0.0</speed>
  <fix>3d</fix>
</trkpt>
<trkpt lat="40.0728462" lon="-105.2305792">
  <ele>1586.17</ele>
  <time>2026-08-27T18:24:44Z</time>
  <course>8.61</course>
  <speed>0.17204650534085253</speed>
  <fix>3d</fix>
</trkpt>
<trkpt lat="40.072842" lon="-105.230575">
  <ele>1586.09</ele>
  <time>2026-08-27T18:24:44Z</time>
  <course>58.59</course>
  <speed>0.0</speed>
  <fix>3d</fix>
</trkpt>
<trkpt lat="40.0728464" lon="-105.2305794">
  <ele>1586.18</ele>
  <time>2026-08-27T18:24:44Z</time>
  <course>8.61</course>
  <speed>0.18601075237738274</speed>
  <fix>3d</fix>
</trkpt>
<trkpt lat="40.072842" lon="-105.230575">
  <ele>1586.09</ele>
  <time>2026-08-27T18:24:44Z</time>
  <course>262.42</course>
  <speed>0.0</speed>
  <fix>3d</fix>
</trkpt>
<trkpt lat="40.0728467" lon="-105.2305796">
  <ele>1586.18</ele>
  <time>2026-08-27T18:24:44Z</time>
  <course>8.61</course>
  <speed>0.18601075237738274</speed>
  <fix>3d</fix>
</trkpt>
<trkpt lat="40.072842" lon="-105.230575">
  <ele>1586.09</ele>
  <time>2026-08-27T18:24:44Z</time>
  <course>108.75</course>
  <speed>0.0</speed>
  <fix>3d</fix>
</trkpt>
<trkpt lat="40.0728465" lon="-105.2305794">
  <ele>1586.18</ele>
  <time>2026-08-27T18:24:44Z</time>
  <course>8.61</course>
  <speed>0.18601075237738274</speed>
  <fix>3d</fix>
</trkpt>
<trkpt lat="40.072842" lon="-105.230575">
  <ele>1586.09</ele>
  <time>2026-08-27T18:24:44Z</time>
  <course>113.69</course>
  <speed>0.0</speed>
  <fix>3d</fix>
</trkpt>
<trkpt lat="40.0728464" lon="-105.2305793">
  <ele>1586.18</ele>
  <time>2026-08-27T18:24:44Z</time>
  <course>8.6</course>
  <speed>0.17804493814764857</speed>
  <fix>3d</fix>
</trkpt>
<trkpt lat="40.072842" lon="-105.230575">
  <ele>1586.09</ele>
  <time>2026-08-27T18:24:44Z</time>
  <course>133.65</course>
  <speed>0.0</speed>
  <fix>3d</fix>
</trkpt>
<trkpt lat="40.0728465" lon="-105.2305794">
  <ele>1586.18</ele>
  <time>2026-08-27T18:24:44Z</time>
  <course>8.6</course>
  <speed>0.17804493814764857</speed>
  <fix>3d</fix>
</trkpt>
<trkpt lat="40.072842" lon="-105.230575">
  <ele>1586.09</ele>
  <time>2026-08-27T18:24:44Z</time>
  <course>100.96</course>
  <speed>0.0</speed>
  <fix>3d</fix>
</trkpt>
<trkpt lat="40.0728467" lon="-105.2305796">
  <ele>1586.18</ele>
  <time>2026-08-27T18:24:44Z</time>
  <course>8.6</course>
  <speed>0.18601075237738274</speed>
  <fix>3d</fix>
</trkpt>
<trkpt lat="40.072842" lon="-105.230575">
  <ele>1586.09</ele>
  <time>2026-08-27T18:24:44Z</time>
  <course>97.31</course>
  <speed>0.0</speed>
  <fix>3d</fix>
</trkpt>
<trkpt lat="40.0728469" lon="-105.2305799">
  <ele>1586.19</ele>
  <time>2026-08-27T18:24:44Z</time>
  <course>8.6</course>
  <speed>0.2</speed>
  <fix>3d</fix>
</trkpt>
<trkpt lat="40.072842" lon="-105.230575">
  <ele>1586.09</ele>
  <time>2026-08-27T18:24:44Z</time>
  <course>108.77</course>
  <speed>0.0</speed>
  <fix>3d</fix>
</trkpt>
<trkpt lat="40.0728471" lon="-105.23058">
  <ele>1586.19</ele>
  <time>2026-08-27T18:24:44Z</time>
  <course>8.6</course>
  <speed>0.2</speed>
  <fix>3d</fix>
</trkpt>
<trkpt lat="40.072842" lon="-105.230575">
  <ele>1586.09</ele>
  <time>2026-08-27T18:24:44Z</time>
  <course>113.05</course>
  <speed>0.0</speed>
  <fix>3d</fix>
</trkpt>
<trkpt lat="40.0728467" lon="-105.2305796">
  <ele>1586.19</ele>
  <time>2026-08-27T18:24:44Z</time>
  <course>8.6</course>
  <speed>0.18601075237738274</speed>
  <fix>3d</fix>
</trkpt>
<trkpt lat="40.072842" lon="-105.230575">
  <ele>1586.09</ele>
  <time>2026-08-27T18:24:44Z</time>
  <course>94.41</course>
  <speed>0.0</speed>
  <fix>3d</fix>
</trkpt>
<trkpt lat="40.0728466" lon="-105.2305795">
  <ele>1586.19</ele>
  <time>2026-08-27T18:24:44Z</time>
  <course>8.6</course>
  <speed>0.18601075237738274</speed>
  <fix>3d</fix>
</trkpt>
<trkpt lat="40.072842" lon="-105.230575">
  <ele>1586.09</ele>
  <time>2026-08-27T18:24:44Z</time>
  <course>85.7</course>
  <speed>0.0</speed>
  <fix>3d</fix>
</trkpt>
<trkpt lat="40.0728468" lon="-105.2305797">
  <ele>1586.19</ele>
  <time>2026-08-27T18:24:44Z</time>
  <course>8.6</course>
  <speed>0.18601075237738274</speed>
  <fix>3d</fix>
</trkpt>
<trkpt lat="40.072842" lon="-105.230575">
  <ele>1586.09</ele>
  <time>2026-08-27T18:24:44Z</time>
  <course>265.22</course>
  <speed>0.0</speed>
  <fix>3d</fix>
</trkpt>
<trkpt lat="40.072847" lon="-105.2305799">
  <ele>1586.2</ele>
  <time>2026-08-27T18:24:44Z</time>
  <course>8.59</course>
  <speed>0.2</speed>
  <fix>3d</fix>
</trkpt>
<trkpt lat="40.072842" lon="-105.230575">
  <ele>1586.09</ele>
  <time>2026-08-27T18:24:44Z</time>
  <course>243.52</course>
  <speed>0.0</speed>
  <fix>3d</fix>
</trkpt>
<trkpt lat="40.0728473" lon="-105.2305802">
  <ele>1586.2</ele>
  <time>2026-08-27T18:24:44Z</time>
  <course>8.59</course>
  <speed>0.2</speed>
  <fix>3d</fix>
</trkpt>
<trkpt lat="40.072842" lon="-105.230575">
  <ele>1586.09</ele>
  <time>2026-08-27T18:24:44Z</time>
  <course>116.09</course>
  <speed>0.0</speed>
  <fix>3d</fix>
</trkpt>
<trkpt lat="40.0728469" lon="-105.2305798">
  <ele>1586.2</ele>
  <time>2026-08-27T18:24:44Z</time>
  <course>8.59</course>
  <speed>0.18601075237738274</speed>
  <fix>3d</fix>
</trkpt>
<trkpt lat="40.072842" lon="-105.230575">
  <ele>1586.09</ele>
  <time>2026-08-27T18:24:44Z</time>
  <course>95.0</course>
  <speed>0.0</speed>
  <fix>3d</fix>
</trkpt>
<trkpt lat="40.0728467" lon="-105.2305796">
  <ele>1586.2</ele>
  <time>2026-08-27T18:24:44Z</time>
  <course>8.59</course>
  <speed>0.18601075237738274</speed>
  <fix>3d</fix>
</trkpt>
<trkpt lat="40.072842" lon="-105.230575">
  <ele>1586.09</ele>
  <time>2026-08-27T18:24:44Z</time>
  <course>115.27</course>
  <speed>0.0</speed>
  <fix>3d</fix>
</trkpt>
<trkpt lat="40.0728467" lon="-105.2305796">
  <ele>1586.2</ele>
  <time>2026-08-27T18:24:44Z</time>
  <course>8.59</course>
  <speed>0.18601075237738274</speed>
  <fix>3d</fix>
</trkpt>
<trkpt lat="40.072842" lon="-105.230575">
  <ele>1586.09</ele>
  <time>2026-08-27T18:24:44Z</time>
  <course>105.76</course>
  <speed>0.0</speed>
  <fix>3d</fix>
</trkpt>
<trkpt lat="40.0728421" lon="-105.2305751">
  <ele>1586.19</ele>
  <time>2026-08-27T18:24:44Z</time>
  <course>8.59</course>
  <speed>0.13601470508735444</speed>
  <fix>3d</fix>
</trkpt>
<trkpt lat="40.072842" lon="-105.230575">
  <ele>1586.09</ele>
  <time>2026-08-27T18:24:44Z</time>
  <course>298.74</course>
  <speed>0.0</speed>
  <fix>3d</fix>
</trkpt>
<trkpt lat="40.0728421" lon="-105.2305751">
  <ele>1586.19</ele>
  <time>2026-08-27T18:24:44Z</time>
  <course>8.59</course>
  <speed>0.07211102550927978</speed>
  <fix>3d</fix>
</trkpt>
<trkpt lat="40.072842" lon="-105.230575">
  <ele>1586.09</ele>
  <time>2026-08-27T18:24:44Z</time>
  <course>284.07</course>
  <speed>0.0</speed>
  <fix>3d</fix>
</trkpt>
<trkpt lat="40.072842" lon="-105.230575">
  <ele>1586.19</ele>
  <time>2026-08-27T18:24:44Z</time>
  <course>8.59</course>
  <speed>0.03605551275463989</speed>
  <fix>3d</fix>
</trkpt>
<trkpt lat="40.072842" lon="-105.230575">
  <ele>1586.09</ele>
  <time>2026-08-27T18:24:44Z</time>
  <course>295.1</course>
  <speed>0.0</speed>
  <fix>3d</fix>
</trkpt>
<trkpt lat="40.072842" lon="-105.230575">
  <ele>1586.19</ele>
  <time>2026-08-27T18:24:44Z</time>
  <course>8.59</course>
  <speed>0.022360679774997897</speed>
  <fix>3d</fix>
</trkpt>
<trkpt lat="40.072842" lon="-105.230575">
  <ele>1586.09</ele>
  <time>2026-08-27T18:24:44Z</time>
  <course>285.23</course>
  <speed>0.0</speed>
  <fix>3d</fix>
</trkpt>
<trkpt lat="40.0728419" lon="-105.2305749">
  <ele>1586.19</ele>
  <time>2026-08-27T18:24:44Z</time>
  <course>8.59</course>
  <speed>0.01</speed>
  <fix>3d</fix>
</trkpt>
<trkpt lat="40.072842" lon="-105.230575">
  <ele>1586.09</ele>
  <time>2026-08-27T18:24:44Z</time>
  <course>279.45</course>
  <speed>0.0</speed>
  <fix>3d</fix>
</trkpt>
<trkpt lat="40.0728419" lon="-105.2305749">
  <ele>1586.19</ele>
  <time>2026-08-27T18:24:44Z</time>
  <course>8.59</course>
  <speed>0.0</speed>
  <fix>3d</fix>
</trkpt>
<trkpt lat="40.072842" lon="-105.230575">
  <ele>1586.09</ele>
  <time>2026-08-27T18:24:44Z</time>
  <course>280.13</course>
  <speed>0.0</speed>
  <fix>3d</fix>
</trkpt>
<trkpt lat="40.0728419" lon="-105.2305749">
  <ele>1586.19</ele>
  <time>2026-08-27T18:24:44Z</time>
  <course>8.59</course>
  <speed>0.0</speed>
  <fix>3d</fix>
</trkpt>
<trkpt lat="40.072842" lon="-105.230575">
  <ele>1586.09</ele>
  <time>2026-08-27T18:24:44Z</time>
  <course>282.81</course>
  <speed>0.0</speed>
  <fix>3d</fix>
</trkpt>
<trkpt lat="40.0728419" lon="-105.2305749">
  <ele>1586.18</ele>
  <time>2026-08-27T18:24:44Z</time>
  <course>8.59</course>
  <speed>0.0</speed>
  <fix>3d</fix>
</trkpt>
<trkpt lat="40.072842" lon="-105.230575">
  <ele>1586.09</ele>
  <time>2026-08-27T18:24:44Z</time>
  <course>291.9</course>
  <speed>0.0</speed>
  <fix>3d</fix>
</trkpt>
<trkpt lat="40.072842" lon="-105.230575">
  <ele>1586.18</ele>
  <time>2026-08-27T18:24:44Z</time>
  <course>8.59</course>
  <speed>0.0</speed>
  <fix>3d</fix>
</trkpt>
<trkpt lat="40.072842" lon="-105.230575">
  <ele>1586.09</ele>
  <time>2026-08-27T18:24:44Z</time>
  <course>300.19</course>
  <speed>0.0</speed>
  <fix>3d</fix>
</trkpt>
<trkpt lat="40.072842" lon="-105.230575">
  <ele>1586.18</ele>
  <time>2026-08-27T18:24:44Z</time>
  <course>8.59</course>
  <speed>0.01</speed>
  <fix>3d</fix>
</trkpt>
<trkpt lat="40.072842" lon="-105.230575">
  <ele>1586.09</ele>
  <time>2026-08-27T18:24:44Z</time>
  <course>133.3</course>
  <speed>0.0</speed>
  <fix>3d</fix>
</trkpt>
<trkpt lat="40.072842" lon="-105.230575">
  <ele>1586.17</ele>
  <time>2026-08-27T18:24:44Z</time>
  <course>8.59</course>
  <speed>0.01</speed>
  <fix>3d</fix>
</trkpt>
<trkpt lat="40.072842" lon="-105.230575">
  <ele>1586.09</ele>
  <time>2026-08-27T18:24:44Z</time>
  <course>149.18</course>
  <speed>0.0</speed>
  <fix>3d</fix>
</trkpt>
<trkpt lat="40.072842" lon="-105.230575">
  <ele>1586.17</ele>
  <time>2026-08-27T18:24:44Z</time>
  <course>8.59</course>
  <speed>0.01</speed>
  <fix>3d</fix>
</trkpt>
<trkpt lat="40.072842" lon="-105.230575">
  <ele>1586.09</ele>
  <time>2026-08-27T18:24:44Z</time>
  <course>289.49</course>
  <speed>0.0</speed>
  <fix>3d</fix>
</trkpt>
<trkpt lat="40.072842" lon="-105.230575">
  <ele>1586.17</ele>
  <time>2026-08-27T18:24:44Z</time>
  <course>8.59</course>
  <speed>0.01414213562373095</speed>
  <fix>3d</fix>
</trkpt>
<trkpt lat="40.072842" lon="-105.230575">
  <ele>1586.09</ele>
  <time>2026-08-27T18:24:44Z</time>
  <course>264.42</course>
  <speed>0.0</speed>
  <fix>3d</fix>
</trkpt>
<trkpt lat="40.0728421" lon="-105.2305751">
  <ele>1586.17</ele>
  <time>2026-08-27T18:24:44Z</time>
  <course>8.59</course>
  <speed>0.01414213562373095</speed>
  <fix>3d</fix>
</trkpt>
<trkpt lat="40.072842" lon="-105.230575">
  <ele>1586.09</ele>
  <time>2026-08-27T18:24:44Z</time>
  <course>258.27</course>
  <speed>0.0</speed>
  <fix>3d</fix>
</trkpt>
<trkpt lat="40.0728421" lon="-105.2305751">
  <ele>1586.17</ele>
  <time>2026-08-27T18:24:44Z</time>
  <course>8.59</course>
  <speed>0.01414213562373095</speed>
  <fix>3d</fix>
</trkpt>
<trkpt lat="40.072842" lon="-105.230575">
  <ele>1586.09</ele>
  <time>2026-08-27T18:24:44Z</time>
  <course>267.04</course>
  <speed>0.0</speed>
  <fix>3d</fix>
</trkpt>
<trkpt lat="40.0728421" lon="-105.2305751">
  <ele>1586.17</ele>
  <time>2026-08-27T18:24:44Z</time>
  <course>8.59</course>
  <speed>0.01414213562373095</speed>
  <fix>3d</fix>
</trkpt>
<trkpt lat="40.072842" lon="-105.230575">
  <ele>1586.09</ele>
  <time>2026-08-27T18:24:44Z</time>
  <course>266.79</course>
  <speed>0.0</speed>
  <fix>3d</fix>
</trkpt>
<trkpt lat="40.0728421" lon="-105.2305751">
  <ele>1586.17</ele>
  <time>2026-08-27T18:24:44Z</time>
  <course>8.59</course>
  <speed>0.01414213562373095</speed>
  <fix>3d</fix>
</trkpt>
<trkpt lat="40.072842" lon="-105.230575">
  <ele>1586.09</ele>
  <time>2026-08-27T18:24:44Z</time>
  <course>265.8</course>
  <speed>0.0</speed>
  <fix>3d</fix>
</trkpt>
<trkpt lat="40.0728421" lon="-105.2305751">
  <ele>1586.17</ele>
  <time>2026-08-27T18:24:44Z</time>
  <course>8.59</course>
  <speed>0.01414213562373095</speed>
  <fix>3d</fix>
</trkpt>
<trkpt lat="40.072842" lon="-105.230575">
  <ele>1586.09</ele>
  <time>2026-08-27T18:24:44Z</time>
  <course>265.96</course>
  <speed>0.0</speed>
  <fix>3d</fix>
</trkpt>
<trkpt lat="40.0728421" lon="-105.2305751">
  <ele>1586.18</ele>
  <time>2026-08-27T18:24:44Z</time>
  <course>8.59</course>
  <speed>0.01414213562373095</speed>
  <fix>3d</fix>
</trkpt>
<trkpt lat="40.072842" lon="-105.230575">
  <ele>1586.09</ele>
  <time>2026-08-27T18:24:44Z</time>
  <course>266.07</course>
  <speed>0.0</speed>
  <fix>3d</fix>
</trkpt>
<trkpt lat="40.0728421" lon="-105.2305751">
  <ele>1586.19</ele>
  <time>2026-08-27T18:24:44Z</time>
  <course>8.59</course>
  <speed>0.022360679774997897</speed>
  <fix>3d</fix>
</trkpt>
<trkpt lat="40.072842" lon="-105.230575">
  <ele>1586.09</ele>
  <time>2026-08-27T18:24:44Z</time>
  <course>126.13</course>
  <speed>0.0</speed>
  <fix>3d</fix>
</trkpt>
<trkpt lat="40.0728421" lon="-105.2305751">
  <ele>1586.19</ele>
  <time>2026-08-27T18:24:44Z</time>
  <course>8.59</course>
  <speed>0.022360679774997897</speed>
  <fix>3d</fix>
</trkpt>
<trkpt lat="40.072842" lon="-105.230575">
  <ele>1586.09</ele>
  <time>2026-08-27T18:24:44Z</time>
  <course>110.2</course>
  <speed>0.0</speed>
  <fix>3d</fix>
</trkpt>
<trkpt lat="40.0728421" lon="-105.2305751">
  <ele>1586.19</ele>
  <time>2026-08-27T18:24:44Z</time>
  <course>8.59</course>
  <speed>0.022360679774997897</speed>
  <fix>3d</fix>
</trkpt>
<trkpt lat="40.072842" lon="-105.230575">
  <ele>1586.09</ele>
  <time>2026-08-27T18:24:44Z</time>
  <course>60.59</course>
  <speed>0.0</speed>
  <fix>3d</fix>
</trkpt>
<trkpt lat="40.0728421" lon="-105.2305751">
  <ele>1586.19</ele>
  <time>2026-08-27T18:24:44Z</time>
  <course>8.59</course>
  <speed>0.022360679774997897</speed>
  <fix>3d</fix>
</trkpt>
<trkpt lat="40.072842" lon="-105.230575">
  <ele>1586.09</ele>
  <time>2026-08-27T18:24:44Z</time>
  <course>27.7</course>
  <speed>0.0</speed>
  <fix>3d</fix>
</trkpt>
<trkpt lat="40.0728421" lon="-105.2305751">
  <ele>1586.2</ele>
  <time>2026-08-27T18:24:44Z</time>
  <course>8.59</course>
  <speed>0.022360679774997897</speed>
  <fix>3d</fix>
</trkpt>
<trkpt lat="40.072842" lon="-105.230575">
  <ele>1586.09</ele>
  <time>2026-08-27T18:24:44Z</time>
  <course>161.03</course>
  <speed>0.0</speed>
  <fix>3d</fix>
</trkpt>
<trkpt lat="40.0728421" lon="-105.2305751">
  <ele>1586.19</ele>
  <time>2026-08-27T18:24:44Z</time>
  <course>8.59</course>
  <speed>0.022360679774997897</speed>
  <fix>3d</fix>
</trkpt>
<trkpt lat="40.072842" lon="-105.230575">
  <ele>1586.09</ele>
  <time>2026-08-27T18:24:44Z</time>
  <course>272.3</course>
  <speed>0.0</speed>
  <fix>3d</fix>
</trkpt>
<trkpt lat="40.0728421" lon="-105.2305751">
  <ele>1586.19</ele>
  <time>2026-08-27T18:24:44Z</time>
  <course>8.59</course>
  <speed>0.022360679774997897</speed>
  <fix>3d</fix>
</trkpt>
<trkpt lat="40.072842" lon="-105.230575">
  <ele>1586.09</ele>
  <time>2026-08-27T18:24:44Z</time>
  <course>291.67</course>
  <speed>0.0</speed>
  <fix>3d</fix>
</trkpt>
<trkpt lat="40.0728421" lon="-105.2305751">
  <ele>1586.19</ele>
  <time>2026-08-27T18:24:44Z</time>
  <course>8.59</course>
  <speed>0.022360679774997897</speed>
  <fix>3d</fix>
</trkpt>
<trkpt lat="40.072842" lon="-105.230575">
  <ele>1586.09</ele>
  <time>2026-08-27T18:24:44Z</time>
  <course>334.46</course>
  <speed>0.0</speed>
  <fix>3d</fix>
</trkpt>
<trkpt lat="40.0728421" lon="-105.2305751">
  <ele>1586.19</ele>
  <time>2026-08-27T18:24:44Z</time>
  <course>8.59</course>
  <speed>0.022360679774997897</speed>
  <fix>3d</fix>
</trkpt>
<trkpt lat="40.072842" lon="-105.230575">
  <ele>1586.09</ele>
  <time>2026-08-27T18:24:44Z</time>
  <course>11.1</course>
  <speed>0.0</speed>
  <fix>3d</fix>
</trkpt>
<trkpt lat="40.0728421" lon="-105.2305751">
  <ele>1586.2</ele>
  <time>2026-08-27T18:24:44Z</time>
  <course>8.59</course>
  <speed>0.022360679774997897</speed>
  <fix>3d</fix>
</trkpt>
<trkpt lat="40.072842" lon="-105.230575">
  <ele>1586.09</ele>
  <time>2026-08-27T18:24:44Z</time>
  <course>303.94</course>
  <speed>0.0</speed>
  <fix>3d</fix>
</trkpt>
<trkpt lat="40.0728421" lon="-105.2305751">
  <ele>1586.19</ele>
  <time>2026-08-27T18:24:44Z</time>
  <course>8.59</course>
  <speed>0.022360679774997897</speed>
  <fix>3d</fix>
</trkpt>
<trkpt lat="40.072842" lon="-105.230575">
  <ele>1586.09</ele>
  <time>2026-08-27T18:24:44Z</time>
  <course>234.05</course>
  <speed>0.0</speed>
  <fix>3d</fix>
</trkpt>
<trkpt lat="40.0728421" lon="-105.2305751">
  <ele>1586.19</ele>
  <time>2026-08-27T18:24:44Z</time>
  <course>8.59</course>
  <speed>0.022360679774997897</speed>
  <fix>3d</fix>
</trkpt>
<trkpt lat="40.072842" lon="-105.230575">
  <ele>1586.09</ele>
  <time>2026-08-27T18:24:44Z</time>
  <course>54.58</course>
  <speed>0.0</speed>
  <fix>3d</fix>
</trkpt>
<trkpt lat="40.0728421" lon="-105.2305751">
  <ele>1586.19</ele>
  <time>2026-08-27T18:24:44Z</time>
  <course>8.59</course>
  <speed>0.022360679774997897</speed>
  <fix>3d</fix>
</trkpt>
<trkpt lat="40.072842" lon="-105.230575">
  <ele>1586.09</ele>
  <time>2026-08-27T18:24:44Z</time>
  <course>67.96</course>
  <speed>0.0</speed>
  <fix>3d</fix>
</trkpt>
<trkpt lat="40.0728421" lon="-105.2305751">
  <ele>1586.19</ele>
  <time>2026-08-27T18:24:44Z</time>
  <course>8.6</course>
  <speed>0.022360679774997897</speed>
  <fix>3d</fix>
</trkpt>
<trkpt lat="40.072842" lon="-105.230575">
  <ele>1586.09</ele>
  <time>2026-08-27T18:24:44Z</time>
  <course>209.58</course>
  <speed>0.0</speed>
  <fix>3d</fix>
</trkpt>
<trkpt lat="40.0728421" lon="-105.2305751">
  <ele>1586.18</ele>
  <time>2026-08-27T18:24:44Z</time>
  <course>8.6</course>
  <speed>0.022360679774997897</speed>
  <fix>3d</fix>
</trkpt>
<trkpt lat="40.072842" lon="-105.230575">
  <ele>1586.09</ele>
  <time>2026-08-27T18:24:44Z</time>
  <course>236.1</course>
  <speed>0.0</speed>
  <fix>3d</fix>
</trkpt>
<trkpt lat="40.0728421" lon="-105.2305751">
  <ele>1586.18</ele>
  <time>2026-08-27T18:24:44Z</time>
  <course>8.6</course>
  <speed>0.022360679774997897</speed>
  <fix>3d</fix>
</trkpt>
<trkpt lat="40.072842" lon="-105.230575">
  <ele>1586.09</ele>
  <time>2026-08-27T18:24:44Z</time>
  <course>284.5</course>
  <speed>0.0</speed>
  <fix>3d</fix>
</trkpt>
<trkpt lat="40.0728421" lon="-105.2305751">
  <ele>1586.18</ele>
  <time>2026-08-27T18:24:44Z</time>
  <course>8.6</course>
  <speed>0.022360679774997897</speed>
  <fix>3d</fix>
</trkpt>
<trkpt lat="40.072842" lon="-105.230575">
  <ele>1586.09</ele>
  <time>2026-08-27T18:24:44Z</time>
  <course>245.39</course>
  <speed>0.0</speed>
  <fix>3d</fix>
</trkpt>
<trkpt lat="40.0728421" lon="-105.2305751">
  <ele>1586.18</ele>
  <time>2026-08-27T18:24:44Z</time>
  <course>8.6</course>
  <speed>0.01414213562373095</speed>
  <fix>3d</fix>
</trkpt>
<trkpt lat="40.072842" lon="-105.230575">
  <ele>1586.09</ele>
  <time>2026-08-27T18:24:44Z</time>
  <course>188.24</course>
  <speed>0.0</speed>
  <fix>3d</fix>
</trkpt>
<trkpt lat="40.0728421" lon="-105.2305751">
  <ele>1586.17</ele>
  <time>2026-08-27T18:24:44Z</time>
  <course>8.6</course>
  <speed>0.01414213562373095</speed>
  <fix>3d</fix>
</trkpt>
<trkpt lat="40.072842" lon="-105.230575">
  <ele>1586.09</ele>
  <time>2026-08-27T18:24:44Z</time>
  <course>104.75</course>
  <speed>0.0</speed>
  <fix>3d</fix>
</trkpt>
<trkpt lat="40.0728421" lon="-105.2305751">
  <ele>1586.17</ele>
  <time>2026-08-27T18:24:44Z</time>
  <course>8.6</course>
  <speed>0.01414213562373095</speed>
  <fix>3d</fix>
</trkpt>
<trkpt lat="40.072842" lon="-105.230575">
  <ele>1586.09</ele>
  <time>2026-08-27T18:24:44Z</time>
  <course>209.48</course>
  <speed>0.0</speed>
  <fix>3d</fix>
</trkpt>
<trkpt lat="40.0728421" lon="-105.2305751">
  <ele>1586.17</ele>
  <time>2026-08-27T18:24:44Z</time>
  <course>8.6</course>
  <speed>0.01414213562373095</speed>
  <fix>3d</fix>
</trkpt>
<trkpt lat="40.072842" lon="-105.230575">
  <ele>1586.09</ele>
  <time>2026-08-27T18:24:44Z</time>
  <course>322.05</course>
  <speed>0.0</speed>
  <fix>3d</fix>
</trkpt>
<trkpt lat="40.0728421" lon="-105.2305751">
  <ele>1586.17</ele>
  <time>2026-08-27T18:24:44Z</time>
  <course>8.6</course>
  <speed>0.01414213562373095</speed>
  <fix>3d</fix>
</trkpt>
<trkpt lat="40.072842" lon="-105.230575">
  <ele>1586.09</ele>
  <time>2026-08-27T18:24:44Z</time>
  <course>278.57</course>
  <speed>0.0</speed>
  <fix>3d</fix>
</trkpt>
<trkpt lat="40.0728421" lon="-105.2305751">
  <ele>1586.18</ele>
  <time>2026-08-27T18:24:44Z</time>
  <course>8.6</course>
  <speed>0.01414213562373095</speed>
  <fix>3d</fix>
</trkpt>
<trkpt lat="40.072842" lon="-105.230575">
  <ele>1586.09</ele>
  <time>2026-08-27T18:24:44Z</time>
  <course>214.65</course>
  <speed>0.0</speed>
  <fix>3d</fix>
</trkpt>
<trkpt lat="40.0728421" lon="-105.2305751">
  <ele>1586.18</ele>
  <time>2026-08-27T18:24:44Z</time>
  <course>8.6</course>
  <speed>0.01414213562373095</speed>
  <fix>3d</fix>
</trkpt>
<trkpt lat="40.072842" lon="-105.230575">
  <ele>1586.09</ele>
  <time>2026-08-27T18:24:44Z</time>
  <course>266.82</course>
  <speed>0.0</speed>
  <fix>3d</fix>
</trkpt>
<trkpt lat="40.0728421" lon="-105.2305751">
  <ele>1586.18</ele>
  <time>2026-08-27T18:24:44Z</time>
  <course>8.6</course>
  <speed>0.01414213562373095</speed>
  <fix>3d</fix>
</trkpt>
<trkpt lat="40.072842" lon="-105.230575">
  <ele>1586.09</ele>
  <time>2026-08-27T18:24:44Z</time>
  <course>270.71</course>
  <speed>0.0</speed>
  <fix>3d</fix>
</trkpt>
<trkpt lat="40.0728421" lon="-105.2305751">
  <ele>1586.18</ele>
  <time>2026-08-27T18:24:44Z</time>
  <course>8.6</course>
  <speed>0.01414213562373095</speed>
  <fix>3d</fix>
</trkpt>
<trkpt lat="40.072842" lon="-105.230575">
  <ele>1586.09</ele>
  <time>2026-08-27T18:24:44Z</time>
  <course>265.34</course>
  <speed>0.0</speed>
  <fix>3d</fix>
</trkpt>
<trkpt lat="40.0728421" lon="-105.2305751">
  <ele>1586.17</ele>
  <time>2026-08-27T18:24:44Z</time>
  <course>8.6</course>
  <speed>0.01414213562373095</speed>
  <fix>3d</fix>
</trkpt>
<trkpt lat="40.072842" lon="-105.230575">
  <ele>1586.09</ele>
  <time>2026-08-27T18:24:44Z</time>
  <course>265.43</course>
  <speed>0.0</speed>
  <fix>3d</fix>
</trkpt>
<trkpt lat="40.0728421" lon="-105.2305751">
  <ele>1586.17</ele>
  <time>2026-08-27T18:24:44Z</time>
  <course>8.6</course>
  <speed>0.01414213562373095</speed>
  <fix>3d</fix>
</trkpt>
<trkpt lat="40.072842" lon="-105.230575">
  <ele>1586.09</ele>
  <time>2026-08-27T18:24:44Z</time>
  <course>266.2</course>
  <speed>0.0</speed>
  <fix>3d</fix>
</trkpt>
<trkpt lat="40.0728421" lon="-105.2305751">
  <ele>1586.17</ele>
  <time>2026-08-27T18:24:44Z</time>
  <course>8.61</course>
  <speed>0.01414213562373095</speed>
  <fix>3d</fix>
</trkpt>
<trkpt lat="40.072842" lon="-105.230575">
  <ele>1586.09</ele>
  <time>2026-08-27T18:24:44Z</time>
  <course>266.09</course>
  <speed>0.0</speed>
  <fix>3d</fix>
</trkpt>
<trkpt lat="40.0728421" lon="-105.2305751">
  <ele>1586.17</ele>
  <time>2026-08-27T18:24:44Z</time>
  <course>8.61</course>
  <speed>0.01414213562373095</speed>
  <fix>3d</fix>
</trkpt>
<trkpt lat="40.072842" lon="-105.230575">
  <ele>1586.09</ele>
  <time>2026-08-27T18:24:44Z</time>
  <course>266.0</course>
  <speed>0.0</speed>
  <fix>3d</fix>
</trkpt>
<trkpt lat="40.0728421" lon="-105.2305751">
  <ele>1586.17</ele>
  <time>2026-08-27T18:24:44Z</time>
  <course>8.61</course>
  <speed>0.01414213562373095</speed>
  <fix>3d</fix>
</trkpt>
<trkpt lat="40.072842" lon="-105.230575">
  <ele>1586.09</ele>
  <time>2026-08-27T18:24:44Z</time>
  <course>266.03</course>
  <speed>0.0</speed>
  <fix>3d</fix>
</trkpt>
<trkpt lat="40.0728421" lon="-105.2305751">
  <ele>1586.17</ele>
  <time>2026-08-27T18:24:44Z</time>
  <course>8.61</course>
  <speed>0.01414213562373095</speed>
  <fix>3d</fix>
</trkpt>
<trkpt lat="40.072842" lon="-105.230575">
  <ele>1586.09</ele>
  <time>2026-08-27T18:24:44Z</time>
  <course>266.04</course>
  <speed>0.0</speed>
  <fix>3d</fix>
</trkpt>
<trkpt lat="40.0728421" lon="-105.2305751">
  <ele>1586.17</ele>
  <time>2026-08-27T18:24:44Z</time>
  <course>8.61</course>
  <speed>0.01414213562373095</speed>
  <fix>3d</fix>
</trkpt>
<trkpt lat="40.072842" lon="-105.230575">
  <ele>1586.09</ele>
  <time>2026-08-27T18:24:44Z</time>
  <course>266.03</course>
  <speed>0.0</speed>
  <fix>3d</fix>
</trkpt>
<trkpt lat="40.0728421" lon="-105.2305751">
  <ele>1586.17</ele>
  <time>2026-08-27T18:24:44Z</time>
  <course>8.61</course>
  <speed>0.01414213562373095</speed>
  <fix>3d</fix>
</trkpt>
<trkpt lat="40.072842" lon="-105.230575">
  <ele>1586.09</ele>
  <time>2026-08-27T18:24:44Z</time>
  <course>266.03</course>
  <speed>0.0</speed>
  <fix>3d</fix>
</trkpt>
<trkpt lat="40.0728421" lon="-105.2305751">
  <ele>1586.17</ele>
  <time>2026-08-27T18:24:44Z</time>
  <course>8.61</course>
  <speed>0.01414213562373095</speed>
  <fix>3d</fix>
</trkpt>
<trkpt lat="40.072842" lon="-105.230575">
  <ele>1586.09</ele>
  <time>2026-08-27T18:24:44Z</time>
  <course>266.03</course>
  <speed>0.0</speed>
  <fix>3d</fix>
</trkpt>
<trkpt lat="40.0728421" lon="-105.2305751">
  <ele>1586.16</ele>
  <time>2026-08-27T18:24:44Z</time>
  <course>8.61</course>
  <speed>0.01414213562373095</speed>
  <fix>3d</fix>
</trkpt>
<trkpt lat="40.072842" lon="-105.230575">
  <ele>1586.09</ele>
  <time>2026-08-27T18:24:44Z</time>
  <course>266.03</course>
  <speed>0.0</speed>
  <fix>3d</fix>
</trkpt>
<trkpt lat="40.0728421" lon="-105.2305751">
  <ele>1586.16</ele>
  <time>2026-08-27T18:24:44Z</time>
  <course>8.61</course>
  <speed>0.01414213562373095</speed>
  <fix>3d</fix>
</trkpt>
<trkpt lat="40.072842" lon="-105.230575">
  <ele>1586.09</ele>
  <time>2026-08-27T18:24:44Z</time>
  <course>266.03</course>
  <speed>0.0</speed>
  <fix>3d</fix>
</trkpt>
<trkpt lat="40.0728421" lon="-105.2305751">
  <ele>1586.16</ele>
  <time>2026-08-27T18:24:44Z</time>
  <course>8.61</course>
  <speed>0.01414213562373095</speed>
  <fix>3d</fix>
</trkpt>
<trkpt lat="40.072842" lon="-105.230575">
  <ele>1586.09</ele>
  <time>2026-08-27T18:24:44Z</time>
  <course>266.03</course>
  <speed>0.0</speed>
  <fix>3d</fix>
</trkpt>
<trkpt lat="40.0728421" lon="-105.2305751">
  <ele>1586.16</ele>
  <time>2026-08-27T18:24:44Z</time>
  <course>8.61</course>
  <speed>0.01414213562373095</speed>
  <fix>3d</fix>
</trkpt>
<trkpt lat="40.072842" lon="-105.230575">
  <ele>1586.09</ele>
  <time>2026-08-27T18:24:44Z</time>
  <course>266.03</course>
  <speed>0.0</speed>
  <fix>3d</fix>
</trkpt>
<trkpt lat="40.0728421" lon="-105.2305751">
  <ele>1586.17</ele>
  <time>2026-08-27T18:24:44Z</time>
  <course>8.61</course>
  <speed>0.01414213562373095</speed>
  <fix>3d</fix>
</trkpt>
<trkpt lat="40.072842" lon="-105.230575">
  <ele>1586.09</ele>
  <time>2026-08-27T18:24:44Z</time>
  <course>266.03</course>
  <speed>0.0</speed>
  <fix>3d</fix>
</trkpt>
<trkpt lat="40.0728421" lon="-105.2305751">
  <ele>1586.17</ele>
  <time>2026-08-27T18:24:44Z</time>
  <course>8.61</course>
  <speed>0.01414213562373095</speed>
  <fix>3d</fix>
</trkpt>
<trkpt lat="40.072842" lon="-105.230575">
  <ele>1586.09</ele>
  <time>2026-08-27T18:24:44Z</time>
  <course>266.03</course>
  <speed>0.0</speed>
  <fix>3d</fix>
</trkpt>
<trkpt lat="40.0728421" lon="-105.2305751">
  <ele>1586.16</ele>
  <time>2026-08-27T18:24:44Z</time>
  <course>8.61</course>
  <speed>0.01414213562373095</speed>
  <fix>3d</fix>
</trkpt>
<trkpt lat="40.072842" lon="-105.230575">
  <ele>1586.09</ele>
  <time>2026-08-27T18:24:44Z</time>
  <course>266.03</course>
  <speed>0.0</speed>
  <fix>3d</fix>
</trkpt>
<trkpt lat="40.0728421" lon="-105.2305751">
  <ele>1586.16</ele>
  <time>2026-08-27T18:24:44Z</time>
  <course>8.61</course>
  <speed>0.01414213562373095</speed>
  <fix>3d</fix>
</trkpt>
<trkpt lat="40.072842" lon="-105.230575">
  <ele>1586.09</ele>
  <time>2026-08-27T18:24:44Z</time>
  <course>266.03</course>
  <speed>0.0</speed>
  <fix>3d</fix>
</trkpt>
<trkpt lat="40.0728421" lon="-105.2305751">
  <ele>1586.16</ele>
  <time>2026-08-27T18:24:44Z</time>
  <course>8.62</course>
  <speed>0.01414213562373095</speed>
  <fix>3d</fix>
</trkpt>
<trkpt lat="40.072842" lon="-105.230575">
  <ele>1586.09</ele>
  <time>2026-08-27T18:24:44Z</time>
  <course>266.03</course>
  <speed>0.0</speed>
  <fix>3d</fix>
</trkpt>
<trkpt lat="40.0728421" lon="-105.2305751">
  <ele>1586.17</ele>
  <time>2026-08-27T18:24:44Z</time>
  <course>8.62</course>
  <speed>0.01414213562373095</speed>
  <fix>3d</fix>
</trkpt>
<trkpt lat="40.072842" lon="-105.230575">
  <ele>1586.09</ele>
  <time>2026-08-27T18:24:44Z</time>
  <course>266.03</course>
  <speed>0.0</speed>
  <fix>3d</fix>
</trkpt>
<trkpt lat="40.0728421" lon="-105.2305751">
  <ele>1586.17</ele>
  <time>2026-08-27T18:24:44Z</time>
  <course>8.62</course>
  <speed>0.01414213562373095</speed>
  <fix>3d</fix>
</trkpt>
<trkpt lat="40.072842" lon="-105.230575">
  <ele>1586.09</ele>
  <time>2026-08-27T18:24:44Z</time>
  <course>266.03</course>
  <speed>0.0</speed>
  <fix>3d</fix>
</trkpt>
<trkpt lat="40.0728421" lon="-105.2305751">
  <ele>1586.17</ele>
  <time>2026-08-27T18:24:44Z</time>
  <course>8.62</course>
  <speed>0.01414213562373095</speed>
  <fix>3d</fix>
</trkpt>
<trkpt lat="40.072842" lon="-105.230575">
  <ele>1586.09</ele>
  <time>2026-08-27T18:24:44Z</time>
  <course>266.03</course>
  <speed>0.0</speed>
  <fix>3d</fix>
</trkpt>
<trkpt lat="40.0728421" lon="-105.2305751">
  <ele>1586.17</ele>
  <time>2026-08-27T18:24:44Z</time>
  <course>8.62</course>
  <speed>0.01414213562373095</speed>
  <fix>3d</fix>
</trkpt>
<trkpt lat="40.072842" lon="-105.230575">
  <ele>1586.09</ele>
  <time>2026-08-27T18:24:44Z</time>
  <course>266.03</course>
  <speed>0.0</speed>
  <fix>3d</fix>
</trkpt>
<trkpt lat="40.0728421" lon="-105.2305751">
  <ele>1586.17</ele>
  <time>2026-08-27T18:24:44Z</time>
  <course>8.62</course>
  <speed>0.01414213562373095</speed>
  <fix>3d</fix>
</trkpt>
<trkpt lat="40.072842" lon="-105.230575">
  <ele>1586.09</ele>
  <time>2026-08-27T18:24:44Z</time>
  <course>266.03</course>
  <speed>0.0</speed>
  <fix>3d</fix>
</trkpt>
<trkpt lat="40.0728421" lon="-105.2305751">
  <ele>1586.17</ele>
  <time>2026-08-27T18:24:44Z</time>
  <course>8.62</course>
  <speed>0.01414213562373095</speed>
  <fix>3d</fix>
</trkpt>
<trkpt lat="40.072842" lon="-105.230575">
  <ele>1586.09</ele>
  <time>2026-08-27T18:24:44Z</time>
  <course>266.03</course>
  <speed>0.0</speed>
  <fix>3d</fix>
</trkpt>
<trkpt lat="40.0728421" lon="-105.2305751">
  <ele>1586.16</ele>
  <time>2026-08-27T18:24:44Z</time>
  <course>8.62</course>
  <speed>0.01414213562373095</speed>
  <fix>3d</fix>
</trkpt>
<trkpt lat="40.072842" lon="-105.230575">
  <ele>1586.09</ele>
  <time>2026-08-27T18:24:44Z</time>
  <course>266.03</course>
  <speed>0.0</speed>
  <fix>3d</fix>
</trkpt>
<trkpt lat="40.0728421" lon="-105.2305751">
  <ele>1586.16</ele>
  <time>2026-08-27T18:24:44Z</time>
  <course>8.62</course>
  <speed>0.01414213562373095</speed>
  <fix>3d</fix>
</trkpt>
<trkpt lat="40.072842" lon="-105.230575">
  <ele>1586.09</ele>
  <time>2026-08-27T18:24:44Z</time>
  <course>266.03</course>
  <speed>0.0</speed>
  <fix>3d</fix>
</trkpt>
<trkpt lat="40.0728421" lon="-105.2305751">
  <ele>1586.16</ele>
  <time>2026-08-27T18:24:44Z</time>
  <course>8.62</course>
  <speed>0.01414213562373095</speed>
  <fix>3d</fix>
</trkpt>
<trkpt lat="40.072842" lon="-105.230575">
  <ele>1586.09</ele>
  <time>2026-08-27T18:24:44Z</time>
  <course>266.03</course>
  <speed>0.0</speed>
  <fix>3d</fix>
</trkpt>
<trkpt lat="40.0728421" lon="-105.2305751">
  <ele>1586.16</ele>
  <time>2026-08-27T18:24:44Z</time>
  <course>8.62</course>
  <speed>0.01414213562373095</speed>
  <fix>3d</fix>
</trkpt>
<trkpt lat="40.072842" lon="-105.230575">
  <ele>1586.09</ele>
  <time>2026-08-27T18:24:44Z</time>
  <course>266.03</course>
  <speed>0.0</speed>
  <fix>3d</fix>
</trkpt>
<trkpt lat="40.0728421" lon="-105.2305751">
  <ele>1586.16</ele>
  <time>2026-08-27T18:24:44Z</time>
  <course>8.62</course>
  <speed>0.01414213562373095</speed>
  <fix>3d</fix>
</trkpt>
<trkpt lat="40.072842" lon="-105.230575">
  <ele>1586.09</ele>
  <time>2026-08-27T18:24:44Z</time>
  <course>266.03</course>
  <speed>0.0</speed>
  <fix>3d</fix>
</trkpt>
<trkpt lat="40.0728421" lon="-105.2305751">
  <ele>1586.16</ele>
  <time>2026-08-27T18:24:44Z</time>
  <course>8.62</course>
  <speed>0.01414213562373095</speed>
  <fix>3d</fix>
</trkpt>
<trkpt lat="40.072842" lon="-105.230575">
  <ele>1586.09</ele>
  <time>2026-08-27T18:24:44Z</time>
  <course>266.03</course>
  <speed>0.0</speed>
  <fix>3d</fix>
</trkpt>
<trkpt lat="40.0728421" lon="-105.2305751">
  <ele>1586.16</ele>
  <time>2026-08-27T18:24:44Z</time>
  <course>8.63</course>
  <speed>0.01414213562373095</speed>
  <fix>3d</fix>
</trkpt>
<trkpt lat="40.072842" lon="-105.230575">
  <ele>1586.09</ele>
  <time>2026-08-27T18:24:44Z</time>
  <course>266.03</course>
  <speed>0.0</speed>
  <fix>3d</fix>
</trkpt>
<trkpt lat="40.0728421" lon="-105.2305751">
  <ele>1586.15</ele>
  <time>2026-08-27T18:24:44Z</time>
  <course>8.63</course>
  <speed>0.01414213562373095</speed>
  <fix>3d</fix>
</trkpt>
<trkpt lat="40.072842" lon="-105.230575">
  <ele>1586.09</ele>
  <time>2026-08-27T18:24:44Z</time>
  <course>266.03</course>
  <speed>0.0</speed>
  <fix>3d</fix>
</trkpt>
<trkpt lat="40.0728421" lon="-105.2305751">
  <ele>1586.15</ele>
  <time>2026-08-27T18:24:44Z</time>
  <course>8.63</course>
  <speed>0.01414213562373095</speed>
  <fix>3d</fix>
</trkpt>
<trkpt lat="40.072842" lon="-105.230575">
  <ele>1586.09</ele>
  <time>2026-08-27T18:24:44Z</time>
  <course>266.03</course>
  <speed>0.0</speed>
  <fix>3d</fix>
</trkpt>
<trkpt lat="40.0728421" lon="-105.2305751">
  <ele>1586.15</ele>
  <time>2026-08-27T18:24:44Z</time>
  <course>8.63</course>
  <speed>0.01414213562373095</speed>
  <fix>3d</fix>
</trkpt>
<trkpt lat="40.072842" lon="-105.230575">
  <ele>1586.09</ele>
  <time>2026-08-27T18:24:44Z</time>
  <course>266.03</course>
  <speed>0.0</speed>
  <fix>3d</fix>
</trkpt>
<trkpt lat="40.0728421" lon="-105.2305751">
  <ele>1586.15</ele>
  <time>2026-08-27T18:24:44Z</time>
  <course>8.63</course>
  <speed>0.01414213562373095</speed>
  <fix>3d</fix>
</trkpt>
<trkpt lat="40.072842" lon="-105.230575">
  <ele>1586.09</ele>
  <time>2026-08-27T18:24:44Z</time>
  <course>266.03</course>
  <speed>0.0</speed>
  <fix>3d</fix>
</trkpt>
<trkpt lat="40.0728421" lon="-105.2305751">
  <ele>1586.16</ele>
  <time>2026-08-27T18:24:44Z</time>
  <course>8.63</course>
  <speed>0.01414213562373095</speed>
  <fix>3d</fix>
</trkpt>
<trkpt lat="40.072842" lon="-105.230575">
  <ele>1586.09</ele>
  <time>2026-08-27T18:24:44Z</time>
  <course>266.03</course>
  <speed>0.0</speed>
  <fix>3d</fix>
</trkpt>
<trkpt lat="40.0728421" lon="-105.2305751">
  <ele>1586.16</ele>
  <time>2026-08-27T18:24:44Z</time>
  <course>8.63</course>
  <speed>0.01414213562373095</speed>
  <fix>3d</fix>
</trkpt>
<trkpt lat="40.072842" lon="-105.230575">
  <ele>1586.09</ele>
  <time>2026-08-27T18:24:44Z</time>
  <course>266.03</course>
  <speed>0.0</speed>
  <fix>3d</fix>
</trkpt>
<trkpt lat="40.0728421" lon="-105.2305751">
  <ele>1586.15</ele>
  <time>2026-08-27T18:24:44Z</time>
  <course>8.63</course>
  <speed>0.01414213562373095</speed>
  <fix>3d</fix>
</trkpt>
<trkpt lat="40.072842" lon="-105.230575">
  <ele>1586.09</ele>
  <time>2026-08-27T18:24:44Z</time>
  <course>266.03</course>
  <speed>0.0</speed>
  <fix>3d</fix>
</trkpt>
<trkpt lat="40.0728421" lon="-105.2305751">
  <ele>1586.15</ele>
  <time>2026-08-27T18:24:44Z</time>
  <course>8.63</course>
  <speed>0.01414213562373095</speed>
  <fix>3d</fix>
</trkpt>
<trkpt lat="40.072842" lon="-105.230575">
  <ele>1586.09</ele>
  <time>2026-08-27T18:24:44Z</time>
  <course>266.03</course>
  <speed>0.0</speed>
  <fix>3d</fix>
</trkpt>
<trkpt lat="40.0728421" lon="-105.2305751">
  <ele>1586.15</ele>
  <time>2026-08-27T18:24:44Z</time>
  <course>8.63</course>
  <speed>0.01414213562373095</speed>
  <fix>3d</fix>
</trkpt>
<trkpt lat="40.072842" lon="-105.230575">
  <ele>1586.09</ele>
  <time>2026-08-27T18:24:44Z</time>
  <course>266.03</course>
  <speed>0.0</speed>
  <fix>3d</fix>
</trkpt>
<trkpt lat="40.0728421" lon="-105.2305751">
  <ele>1586.14</ele>
  <time>2026-08-27T18:24:44Z</time>
  <course>8.63</course>
  <speed>0.01414213562373095</speed>
  <fix>3d</fix>
</trkpt>
<trkpt lat="40.072842" lon="-105.230575">
  <ele>1586.09</ele>
  <time>2026-08-27T18:24:44Z</time>
  <course>266.03</course>
  <speed>0.0</speed>
  <fix>3d</fix>
</trkpt>
<trkpt lat="40.0728421" lon="-105.2305751">
  <ele>1586.14</ele>
  <time>2026-08-27T18:24:44Z</time>
  <course>8.63</course>
  <speed>0.01414213562373095</speed>
  <fix>3d</fix>
</trkpt>
<trkpt lat="40.072842" lon="-105.230575">
  <ele>1586.09</ele>
  <time>2026-08-27T18:24:44Z</time>
  <course>266.03</course>
  <speed>0.0</speed>
  <fix>3d</fix>
</trkpt>
<trkpt lat="40.0728421" lon="-105.2305751">
  <ele>1586.14</ele>
  <time>2026-08-27T18:24:44Z</time>
  <course>8.63</course>
  <speed>0.01414213562373095</speed>
  <fix>3d</fix>
</trkpt>
<trkpt lat="40.072842" lon="-105.230575">
  <ele>1586.09</ele>
  <time>2026-08-27T18:24:44Z</time>
  <course>266.03</course>
  <speed>0.0</speed>
  <fix>3d</fix>
</trkpt>
<trkpt lat="40.0728421" lon="-105.2305751">
  <ele>1586.14</ele>
  <time>2026-08-27T18:24:44Z</time>
  <course>8.63</course>
  <speed>0.01414213562373095</speed>
  <fix>3d</fix>
</trkpt>
<trkpt lat="40.072842" lon="-105.230575">
  <ele>1586.09</ele>
  <time>2026-08-27T18:24:44Z</time>
  <course>266.03</course>
  <speed>0.0</speed>
  <fix>3d</fix>
</trkpt>
<trkpt lat="40.0728421" lon="-105.2305751">
  <ele>1586.14</ele>
  <time>2026-08-27T18:24:44Z</time>
  <course>8.64</course>
  <speed>0.01414213562373095</speed>
  <fix>3d</fix>
</trkpt>
<trkpt lat="40.072842" lon="-105.230575">
  <ele>1586.09</ele>
  <time>2026-08-27T18:24:44Z</time>
  <course>266.03</course>
  <speed>0.0</speed>
  <fix>3d</fix>
</trkpt>
<trkpt lat="40.0728421" lon="-105.2305751">
  <ele>1586.14</ele>
  <time>2026-08-27T18:24:44Z</time>
  <course>8.64</course>
  <speed>0.01414213562373095</speed>
  <fix>3d</fix>
</trkpt>
<trkpt lat="40.072842" lon="-105.230575">
  <ele>1586.09</ele>
  <time>2026-08-27T18:24:44Z</time>
  <course>266.03</course>
  <speed>0.0</speed>
  <fix>3d</fix>
</trkpt>
<trkpt lat="40.0728421" lon="-105.2305751">
  <ele>1586.13</ele>
  <time>2026-08-27T18:24:44Z</time>
  <course>8.64</course>
  <speed>0.01414213562373095</speed>
  <fix>3d</fix>
</trkpt>
<trkpt lat="40.072842" lon="-105.230575">
  <ele>1586.09</ele>
  <time>2026-08-27T18:24:44Z</time>
  <course>266.03</course>
  <speed>0.0</speed>
  <fix>3d</fix>
</trkpt>
<trkpt lat="40.0728421" lon="-105.2305751">
  <ele>1586.13</ele>
  <time>2026-08-27T18:24:44Z</time>
  <course>8.64</course>
  <speed>0.01414213562373095</speed>
  <fix>3d</fix>
</trkpt>
<trkpt lat="40.072842" lon="-105.230575">
  <ele>1586.09</ele>
  <time>2026-08-27T18:24:44Z</time>
  <course>266.03</course>
  <speed>0.0</speed>
  <fix>3d</fix>
</trkpt>
<trkpt lat="40.0728421" lon="-105.2305751">
  <ele>1586.14</ele>
  <time>2026-08-27T18:24:45Z</time>
  <course>8.64</course>
  <speed>0.01414213562373095</speed>
  <fix>3d</fix>
</trkpt>
<trkpt lat="40.072842" lon="-105.230575">
  <ele>1586.09</ele>
  <time>2026-08-27T18:24:45Z</time>
  <course>266.03</course>
  <speed>0.0</speed>
  <fix>3d</fix>
</trkpt>
<trkpt lat="40.0728421" lon="-105.2305751">
  <ele>1586.14</ele>
  <time>2026-08-27T18:24:45Z</time>
  <course>8.64</course>
  <speed>0.01414213562373095</speed>
  <fix>3d</fix>
</trkpt>
<trkpt lat="40.072842" lon="-105.230575">
  <ele>1586.09</ele>
  <time>2026-08-27T18:24:45Z</time>
  <course>266.03</course>
  <speed>0.0</speed>
  <fix>3d</fix>
</trkpt>
<trkpt lat="40.0728421" lon="-105.2305751">
  <ele>1586.14</ele>
  <time>2026-08-27T18:24:45Z</time>
  <course>8.64</course>
  <speed>0.01414213562373095</speed>
  <fix>3d</fix>
</trkpt>
<trkpt lat="40.072842" lon="-105.230575">
  <ele>1586.09</ele>
  <time>2026-08-27T18:24:45Z</time>
  <course>266.03</course>
  <speed>0.0</speed>
  <fix>3d</fix>
</trkpt>
<trkpt lat="40.0728421" lon="-105.2305751">
  <ele>1586.14</ele>
  <time>2026-08-27T18:24:45Z</time>
  <course>8.64</course>
  <speed>0.01414213562373095</speed>
  <fix>3d</fix>
</trkpt>
<trkpt lat="40.072842" lon="-105.230575">
  <ele>1586.09</ele>
  <time>2026-08-27T18:24:45Z</time>
  <course>266.03</course>
  <speed>0.0</speed>
  <fix>3d</fix>
</trkpt>
<trkpt lat="40.0728421" lon="-105.2305751">
  <ele>1586.14</ele>
  <time>2026-08-27T18:24:45Z</time>
  <course>8.64</course>
  <speed>0.01414213562373095</speed>
  <fix>3d</fix>
</trkpt>
<trkpt lat="40.072842" lon="-105.230575">
  <ele>1586.09</ele>
  <time>2026-08-27T18:24:45Z</time>
  <course>266.03</course>
  <speed>0.0</speed>
  <fix>3d</fix>
</trkpt>
<trkpt lat="40.0728421" lon="-105.2305751">
  <ele>1586.15</ele>
  <time>2026-08-27T18:24:45Z</time>
  <course>8.64</course>
  <speed>0.01414213562373095</speed>
  <fix>3d</fix>
</trkpt>
<trkpt lat="40.072842" lon="-105.230575">
  <ele>1586.09</ele>
  <time>2026-08-27T18:24:45Z</time>
  <course>266.03</course>
  <speed>0.0</speed>
  <fix>3d</fix>
</trkpt>
<trkpt lat="40.0728421" lon="-105.2305751">
  <ele>1586.15</ele>
  <time>2026-08-27T18:24:45Z</time>
  <course>8.64</course>
  <speed>0.01414213562373095</speed>
  <fix>3d</fix>
</trkpt>
<trkpt lat="40.072842" lon="-105.230575">
  <ele>1586.09</ele>
  <time>2026-08-27T18:24:45Z</time>
  <course>266.03</course>
  <speed>0.0</speed>
  <fix>3d</fix>
</trkpt>
<trkpt lat="40.0728421" lon="-105.2305751">
  <ele>1586.15</ele>
  <time>2026-08-27T18:24:45Z</time>
  <course>8.64</course>
  <speed>0.01414213562373095</speed>
  <fix>3d</fix>
</trkpt>
<trkpt lat="40.072842" lon="-105.230575">
  <ele>1586.09</ele>
  <time>2026-08-27T18:24:45Z</time>
  <course>266.03</course>
  <speed>0.0</speed>
  <fix>3d</fix>
</trkpt>
<trkpt lat="40.0728421" lon="-105.2305751">
  <ele>1586.15</ele>
  <time>2026-08-27T18:24:45Z</time>
  <course>8.64</course>
  <speed>0.01414213562373095</speed>
  <fix>3d</fix>
</trkpt>
<trkpt lat="40.072842" lon="-105.230575">
  <ele>1586.09</ele>
  <time>2026-08-27T18:24:45Z</time>
  <course>266.03</course>
  <speed>0.0</speed>
  <fix>3d</fix>
</trkpt>
<trkpt lat="40.0728421" lon="-105.2305751">
  <ele>1586.16</ele>
  <time>2026-08-27T18:24:45Z</time>
  <course>8.65</course>
  <speed>0.01414213562373095</speed>
  <fix>3d</fix>
</trkpt>
<trkpt lat="40.072842" lon="-105.230575">
  <ele>1586.09</ele>
  <time>2026-08-27T18:24:45Z</time>
  <course>266.03</course>
  <speed>0.0</speed>
  <fix>3d</fix>
</trkpt>
<trkpt lat="40.0728421" lon="-105.2305751">
  <ele>1586.16</ele>
  <time>2026-08-27T18:24:45Z</time>
  <course>8.65</course>
  <speed>0.01414213562373095</speed>
  <fix>3d</fix>
</trkpt>
<trkpt lat="40.072842" lon="-105.230575">
  <ele>1586.09</ele>
  <time>2026-08-27T18:24:45Z</time>
  <course>266.03</course>
  <speed>0.0</speed>
  <fix>3d</fix>
</trkpt>
<trkpt lat="40.0728421" lon="-105.2305751">
  <ele>1586.16</ele>
  <time>2026-08-27T18:24:45Z</time>
  <course>8.65</course>
  <speed>0.01414213562373095</speed>
  <fix>3d</fix>
</trkpt>
<trkpt lat="40.072842" lon="-105.230575">
  <ele>1586.09</ele>
  <time>2026-08-27T18:24:45Z</time>
  <course>266.03</course>
  <speed>0.0</speed>
  <fix>3d</fix>
</trkpt>
<trkpt lat="40.0728421" lon="-105.2305751">
  <ele>1586.15</ele>
  <time>2026-08-27T18:24:45Z</time>
  <course>8.65</course>
  <speed>0.01414213562373095</speed>
  <fix>3d</fix>
</trkpt>
<trkpt lat="40.072842" lon="-105.230575">
  <ele>1586.09</ele>
  <time>2026-08-27T18:24:45Z</time>
  <course>266.03</course>
  <speed>0.0</speed>
  <fix>3d</fix>
</trkpt>
<trkpt lat="40.0728421" lon="-105.2305751">
  <ele>1586.15</ele>
  <time>2026-08-27T18:24:45Z</time>
  <course>8.65</course>
  <speed>0.01414213562373095</speed>
  <fix>3d</fix>
</trkpt>
<trkpt lat="40.072842" lon="-105.230575">
  <ele>1586.09</ele>
  <time>2026-08-27T18:24:45Z</time>
  <course>266.03</course>
  <speed>0.0</speed>
  <fix>3d</fix>
</trkpt>
<trkpt lat="40.0728421" lon="-105.2305751">
  <ele>1586.15</ele>
  <time>2026-08-27T18:24:45Z</time>
  <course>8.65</course>
  <speed>0.01414213562373095</speed>
  <fix>3d</fix>
</trkpt>
<trkpt lat="40.072842" lon="-105.230575">
  <ele>1586.09</ele>
  <time>2026-08-27T18:24:45Z</time>
  <course>266.03</course>
  <speed>0.0</speed>
  <fix>3d</fix>
</trkpt>
<trkpt lat="40.0728421" lon="-105.2305751">
  <ele>1586.15</ele>
  <time>2026-08-27T18:24:45Z</time>
  <course>8.65</course>
  <speed>0.01414213562373095</speed>
  <fix>3d</fix>
</trkpt>
<trkpt lat="40.072842" lon="-105.230575">
  <ele>1586.09</ele>
  <time>2026-08-27T18:24:45Z</time>
  <course>266.03</course>
  <speed>0.0</speed>
  <fix>3d</fix>
</trkpt>
<trkpt lat="40.0728421" lon="-105.2305751">
  <ele>1586.14</ele>
  <time>2026-08-27T18:24:45Z</time>
  <course>8.65</course>
  <speed>0.01414213562373095</speed>
  <fix>3d</fix>
</trkpt>
<trkpt lat="40.072842" lon="-105.230575">
  <ele>1586.09</ele>
  <time>2026-08-27T18:24:45Z</time>
  <course>266.03</course>
  <speed>0.0</speed>
  <fix>3d</fix>
</trkpt>
<trkpt lat="40.0728421" lon="-105.2305751">
  <ele>1586.14</ele>
  <time>2026-08-27T18:24:45Z</time>
  <course>8.65</course>
  <speed>0.01414213562373095</speed>
  <fix>3d</fix>
</trkpt>
<trkpt lat="40.072842" lon="-105.230575">
  <ele>1586.09</ele>
  <time>2026-08-27T18:24:45Z</time>
  <course>266.03</course>
  <speed>0.0</speed>
  <fix>3d</fix>
</trkpt>
<trkpt lat="40.0728421" lon="-105.2305751">
  <ele>1586.14</ele>
  <time>2026-08-27T18:24:45Z</time>
  <course>8.65</course>
  <speed>0.01414213562373095</speed>
  <fix>3d</fix>
</trkpt>
<trkpt lat="40.072842" lon="-105.230575">
  <ele>1586.09</ele>
  <time>2026-08-27T18:24:45Z</time>
  <course>266.03</course>
  <speed>0.0</speed>
  <fix>3d</fix>
</trkpt>
<trkpt lat="40.0728421" lon="-105.2305751">
  <ele>1586.15</ele>
  <time>2026-08-27T18:24:45Z</time>
  <course>8.65</course>
  <speed>0.01414213562373095</speed>
  <fix>3d</fix>
</trkpt>
<trkpt lat="40.072842" lon="-105.230575">
  <ele>1586.09</ele>
  <time>2026-08-27T18:24:45Z</time>
  <course>266.03</course>
  <speed>0.0</speed>
  <fix>3d</fix>
</trkpt>
<trkpt lat="40.0728421" lon="-105.2305751">
  <ele>1586.15</ele>
  <time>2026-08-27T18:24:45Z</time>
  <course>8.65</course>
  <speed>0.01414213562373095</speed>
  <fix>3d</fix>
</trkpt>
<trkpt lat="40.072842" lon="-105.230575">
  <ele>1586.09</ele>
  <time>2026-08-27T18:24:45Z</time>
  <course>266.03</course>
  <speed>0.0</speed>
  <fix>3d</fix>
</trkpt>
<trkpt lat="40.0728421" lon="-105.2305751">
  <ele>1586.15</ele>
  <time>2026-08-27T18:24:45Z</time>
  <course>8.65</course>
  <speed>0.01414213562373095</speed>
  <fix>3d</fix>
</trkpt>
<trkpt lat="40.072842" lon="-105.230575">
  <ele>1586.09</ele>
  <time>2026-08-27T18:24:45Z</time>
  <course>266.03</course>
  <speed>0.0</speed>
  <fix>3d</fix>
</trkpt>
<trkpt lat="40.0728421" lon="-105.2305751">
  <ele>1586.15</ele>
  <time>2026-08-27T18:24:45Z</time>
  <course>8.65</course>
  <speed>0.01414213562373095</speed>
  <fix>3d</fix>
</trkpt>
<trkpt lat="40.072842" lon="-105.230575">
  <ele>1586.09</ele>
  <time>2026-08-27T18:24:45Z</time>
  <course>266.03</course>
  <speed>0.0</speed>
  <fix>3d</fix>
</trkpt>
<trkpt lat="40.0728421" lon="-105.2305751">
  <ele>1586.15</ele>
  <time>2026-08-27T18:24:45Z</time>
  <course>8.66</course>
  <speed>0.01414213562373095</speed>
  <fix>3d</fix>
</trkpt>
<trkpt lat="40.072842" lon="-105.230575">
  <ele>1586.09</ele>
  <time>2026-08-27T18:24:45Z</time>
  <course>266.03</course>
  <speed>0.0</speed>
  <fix>3d</fix>
</trkpt>
<trkpt lat="40.0728421" lon="-105.2305751">
  <ele>1586.15</ele>
  <time>2026-08-27T18:24:45Z</time>
  <course>8.66</course>
  <speed>0.01414213562373095</speed>
  <fix>3d</fix>
</trkpt>
<trkpt lat="40.072842" lon="-105.230575">
  <ele>1586.09</ele>
  <time>2026-08-27T18:24:45Z</time>
  <course>266.03</course>
  <speed>0.0</speed>
  <fix>3d</fix>
</trkpt>
<trkpt lat="40.0728421" lon="-105.2305751">
  <ele>1586.15</ele>
  <time>2026-08-27T18:24:45Z</time>
  <course>8.66</course>
  <speed>0.01414213562373095</speed>
  <fix>3d</fix>
</trkpt>
<trkpt lat="40.072842" lon="-105.230575">
  <ele>1586.09</ele>
  <time>2026-08-27T18:24:45Z</time>
  <course>266.03</course>
  <speed>0.0</speed>
  <fix>3d</fix>
</trkpt>
<trkpt lat="40.0728421" lon="-105.2305751">
  <ele>1586.15</ele>
  <time>2026-08-27T18:24:45Z</time>
  <course>8.66</course>
  <speed>0.01414213562373095</speed>
  <fix>3d</fix>
</trkpt>
<trkpt lat="40.072842" lon="-105.230575">
  <ele>1586.09</ele>
  <time>2026-08-27T18:24:45Z</time>
  <course>266.03</course>
  <speed>0.0</speed>
  <fix>3d</fix>
</trkpt>
<trkpt lat="40.0728421" lon="-105.2305751">
  <ele>1586.15</ele>
  <time>2026-08-27T18:24:45Z</time>
  <course>8.66</course>
  <speed>0.01414213562373095</speed>
  <fix>3d</fix>
</trkpt>
<trkpt lat="40.072842" lon="-105.230575">
  <ele>1586.09</ele>
  <time>2026-08-27T18:24:45Z</time>
  <course>266.03</course>
  <speed>0.0</speed>
  <fix>3d</fix>
</trkpt>
<trkpt lat="40.0728421" lon="-105.2305751">
  <ele>1586.15</ele>
  <time>2026-08-27T18:24:45Z</time>
  <course>8.66</course>
  <speed>0.01414213562373095</speed>
  <fix>3d</fix>
</trkpt>
<trkpt lat="40.072842" lon="-105.230575">
  <ele>1586.09</ele>
  <time>2026-08-27T18:24:45Z</time>
  <course>266.03</course>
  <speed>0.0</speed>
  <fix>3d</fix>
</trkpt>
<trkpt lat="40.0728421" lon="-105.2305751">
  <ele>1586.15</ele>
  <time>2026-08-27T18:24:45Z</time>
  <course>8.66</course>
  <speed>0.01414213562373095</speed>
  <fix>3d</fix>
</trkpt>
<trkpt lat="40.072842" lon="-105.230575">
  <ele>1586.09</ele>
  <time>2026-08-27T18:24:45Z</time>
  <course>266.03</course>
  <speed>0.0</speed>
  <fix>3d</fix>
</trkpt>
<trkpt lat="40.0728421" lon="-105.2305751">
  <ele>1586.15</ele>
  <time>2026-08-27T18:24:45Z</time>
  <course>8.66</course>
  <speed>0.01414213562373095</speed>
  <fix>3d</fix>
</trkpt>
<trkpt lat="40.072842" lon="-105.230575">
  <ele>1586.09</ele>
  <time>2026-08-27T18:24:45Z</time>
  <course>266.03</course>
  <speed>0.0</speed>
  <fix>3d</fix>
</trkpt>
<trkpt lat="40.0728421" lon="-105.2305751">
  <ele>1586.16</ele>
  <time>2026-08-27T18:24:45Z</time>
  <course>8.66</course>
  <speed>0.01414213562373095</speed>
  <fix>3d</fix>
</trkpt>
<trkpt lat="40.072842" lon="-105.230575">
  <ele>1586.09</ele>
  <time>2026-08-27T18:24:45Z</time>
  <course>266.03</course>
  <speed>0.0</speed>
  <fix>3d</fix>
</trkpt>
<trkpt lat="40.0728421" lon="-105.2305751">
  <ele>1586.16</ele>
  <time>2026-08-27T18:24:45Z</time>
  <course>8.66</course>
  <speed>0.01414213562373095</speed>
  <fix>3d</fix>
</trkpt>
<trkpt lat="40.072842" lon="-105.230575">
  <ele>1586.09</ele>
  <time>2026-08-27T18:24:45Z</time>
  <course>266.03</course>
  <speed>0.0</speed>
  <fix>3d</fix>
</trkpt>
<trkpt lat="40.0728421" lon="-105.2305751">
  <ele>1586.16</ele>
  <time>2026-08-27T18:24:45Z</time>
  <course>8.66</course>
  <speed>0.01414213562373095</speed>
  <fix>3d</fix>
</trkpt>
<trkpt lat="40.072842" lon="-105.230575">
  <ele>1586.09</ele>
  <time>2026-08-27T18:24:45Z</time>
  <course>266.03</course>
  <speed>0.0</speed>
  <fix>3d</fix>
</trkpt>
<trkpt lat="40.0728421" lon="-105.2305751">
  <ele>1586.16</ele>
  <time>2026-08-27T18:24:45Z</time>
  <course>8.66</course>
  <speed>0.01414213562373095</speed>
  <fix>3d</fix>
</trkpt>
<trkpt lat="40.072842" lon="-105.230575">
  <ele>1586.09</ele>
  <time>2026-08-27T18:24:45Z</time>
  <course>266.03</course>
  <speed>0.0</speed>
  <fix>3d</fix>
</trkpt>
<trkpt lat="40.0728421" lon="-105.2305751">
  <ele>1586.17</ele>
  <time>2026-08-27T18:24:45Z</time>
  <course>8.66</course>
  <speed>0.01414213562373095</speed>
  <fix>3d</fix>
</trkpt>
<trkpt lat="40.072842" lon="-105.230575">
  <ele>1586.09</ele>
  <time>2026-08-27T18:24:45Z</time>
  <course>266.03</course>
  <speed>0.0</speed>
  <fix>3d</fix>
</trkpt>
<trkpt lat="40.0728421" lon="-105.2305751">
  <ele>1586.17</ele>
  <time>2026-08-27T18:24:45Z</time>
  <course>8.67</course>
  <speed>0.01414213562373095</speed>
  <fix>3d</fix>
</trkpt>
<trkpt lat="40.072842" lon="-105.230575">
  <ele>1586.09</ele>
  <time>2026-08-27T18:24:45Z</time>
  <course>266.03</course>
  <speed>0.0</speed>
  <fix>3d</fix>
</trkpt>
<trkpt lat="40.0728421" lon="-105.2305751">
  <ele>1586.17</ele>
  <time>2026-08-27T18:24:45Z</time>
  <course>8.67</course>
  <speed>0.01414213562373095</speed>
  <fix>3d</fix>
</trkpt>
<trkpt lat="40.072842" lon="-105.230575">
  <ele>1586.09</ele>
  <time>2026-08-27T18:24:45Z</time>
  <course>266.03</course>
  <speed>0.0</speed>
  <fix>3d</fix>
</trkpt>
<trkpt lat="40.0728421" lon="-105.2305751">
  <ele>1586.16</ele>
  <time>2026-08-27T18:24:45Z</time>
  <course>8.67</course>
  <speed>0.01414213562373095</speed>
  <fix>3d</fix>
</trkpt>
<trkpt lat="40.072842" lon="-105.230575">
  <ele>1586.09</ele>
  <time>2026-08-27T18:24:45Z</time>
  <course>266.03</course>
  <speed>0.0</speed>
  <fix>3d</fix>
</trkpt>
<trkpt lat="40.0728421" lon="-105.2305751">
  <ele>1586.16</ele>
  <time>2026-08-27T18:24:45Z</time>
  <course>8.67</course>
  <speed>0.01414213562373095</speed>
  <fix>3d</fix>
</trkpt>
<trkpt lat="40.072842" lon="-105.230575">
  <ele>1586.09</ele>
  <time>2026-08-27T18:24:45Z</time>
  <course>266.03</course>
  <speed>0.0</speed>
  <fix>3d</fix>
</trkpt>
<trkpt lat="40.0728421" lon="-105.2305751">
  <ele>1586.17</ele>
  <time>2026-08-27T18:24:45Z</time>
  <course>8.67</course>
  <speed>0.01414213562373095</speed>
  <fix>3d</fix>
</trkpt>
<trkpt lat="40.072842" lon="-105.230575">
  <ele>1586.09</ele>
  <time>2026-08-27T18:24:45Z</time>
  <course>266.03</course>
  <speed>0.0</speed>
  <fix>3d</fix>
</trkpt>
<trkpt lat="40.0728421" lon="-105.2305751">
  <ele>1586.17</ele>
  <time>2026-08-27T18:24:45Z</time>
  <course>8.67</course>
  <speed>0.01414213562373095</speed>
  <fix>3d</fix>
</trkpt>
<trkpt lat="40.072842" lon="-105.230575">
  <ele>1586.09</ele>
  <time>2026-08-27T18:24:45Z</time>
  <course>266.03</course>
  <speed>0.0</speed>
  <fix>3d</fix>
</trkpt>
<trkpt lat="40.0728421" lon="-105.2305751">
  <ele>1586.18</ele>
  <time>2026-08-27T18:24:45Z</time>
  <course>8.67</course>
  <speed>0.01414213562373095</speed>
  <fix>3d</fix>
</trkpt>
<trkpt lat="40.072842" lon="-105.230575">
  <ele>1586.09</ele>
  <time>2026-08-27T18:24:45Z</time>
  <course>266.03</course>
  <speed>0.0</speed>
  <fix>3d</fix>
</trkpt>
<trkpt lat="40.0728421" lon="-105.2305751">
  <ele>1586.18</ele>
  <time>2026-08-27T18:24:45Z</time>
  <course>8.67</course>
  <speed>0.01414213562373095</speed>
  <fix>3d</fix>
</trkpt>
<trkpt lat="40.072842" lon="-105.230575">
  <ele>1586.09</ele>
  <time>2026-08-27T18:24:45Z</time>
  <course>266.03</course>
  <speed>0.0</speed>
  <fix>3d</fix>
</trkpt>
<trkpt lat="40.0728421" lon="-105.2305751">
  <ele>1586.18</ele>
  <time>2026-08-27T18:24:45Z</time>
  <course>8.67</course>
  <speed>0.01414213562373095</speed>
  <fix>3d</fix>
</trkpt>
<trkpt lat="40.072842" lon="-105.230575">
  <ele>1586.09</ele>
  <time>2026-08-27T18:24:45Z</time>
  <course>266.03</course>
  <speed>0.0</speed>
  <fix>3d</fix>
</trkpt>
<trkpt lat="40.0728421" lon="-105.2305751">
  <ele>1586.19</ele>
  <time>2026-08-27T18:24:45Z</time>
  <course>8.67</course>
  <speed>0.01414213562373095</speed>
  <fix>3d</fix>
</trkpt>
<trkpt lat="40.072842" lon="-105.230575">
  <ele>1586.09</ele>
  <time>2026-08-27T18:24:45Z</time>
  <course>266.03</course>
  <speed>0.0</speed>
  <fix>3d</fix>
</trkpt>
<trkpt lat="40.0728421" lon="-105.2305751">
  <ele>1586.18</ele>
  <time>2026-08-27T18:24:45Z</time>
  <course>8.67</course>
  <speed>0.01414213562373095</speed>
  <fix>3d</fix>
</trkpt>
<trkpt lat="40.072842" lon="-105.230575">
  <ele>1586.09</ele>
  <time>2026-08-27T18:24:45Z</time>
  <course>266.03</course>
  <speed>0.0</speed>
  <fix>3d</fix>
</trkpt>
<trkpt lat="40.0728421" lon="-105.2305751">
  <ele>1586.18</ele>
  <time>2026-08-27T18:24:45Z</time>
  <course>8.67</course>
  <speed>0.01414213562373095</speed>
  <fix>3d</fix>
</trkpt>
<trkpt lat="40.072842" lon="-105.230575">
  <ele>1586.09</ele>
  <time>2026-08-27T18:24:45Z</time>
  <course>266.03</course>
  <speed>0.0</speed>
  <fix>3d</fix>
</trkpt>
<trkpt lat="40.0728421" lon="-105.2305751">
  <ele>1586.19</ele>
  <time>2026-08-27T18:24:45Z</time>
  <course>8.67</course>
  <speed>0.01414213562373095</speed>
  <fix>3d</fix>
</trkpt>
<trkpt lat="40.072842" lon="-105.230575">
  <ele>1586.09</ele>
  <time>2026-08-27T18:24:45Z</time>
  <course>266.03</course>
  <speed>0.0</speed>
  <fix>3d</fix>
</trkpt>
<trkpt lat="40.0728421" lon="-105.2305751">
  <ele>1586.19</ele>
  <time>2026-08-27T18:24:45Z</time>
  <course>8.67</course>
  <speed>0.01414213562373095</speed>
  <fix>3d</fix>
</trkpt>
<trkpt lat="40.072842" lon="-105.230575">
  <ele>1586.09</ele>
  <time>2026-08-27T18:24:45Z</time>
  <course>266.03</course>
  <speed>0.0</speed>
  <fix>3d</fix>
</trkpt>
<trkpt lat="40.0728421" lon="-105.2305751">
  <ele>1586.19</ele>
  <time>2026-08-27T18:24:45Z</time>
  <course>8.68</course>
  <speed>0.01414213562373095</speed>
  <fix>3d</fix>
</trkpt>
<trkpt lat="40.072842" lon="-105.230575">
  <ele>1586.09</ele>
  <time>2026-08-27T18:24:45Z</time>
  <course>266.03</course>
  <speed>0.0</speed>
  <fix>3d</fix>
</trkpt>
<trkpt lat="40.0728421" lon="-105.2305751">
  <ele>1586.19</ele>
  <time>2026-08-27T18:24:45Z</time>
  <course>8.68</course>
  <speed>0.01414213562373095</speed>
  <fix>3d</fix>
</trkpt>
<trkpt lat="40.072842" lon="-105.230575">
  <ele>1586.09</ele>
  <time>2026-08-27T18:24:45Z</time>
  <course>266.03</course>
  <speed>0.0</speed>
  <fix>3d</fix>
</trkpt>
<trkpt lat="40.0728421" lon="-105.2305751">
  <ele>1586.19</ele>
  <time>2026-08-27T18:24:45Z</time>
  <course>8.68</course>
  <speed>0.01414213562373095</speed>
  <fix>3d</fix>
</trkpt>
<trkpt lat="40.072842" lon="-105.230575">
  <ele>1586.09</ele>
  <time>2026-08-27T18:24:45Z</time>
  <course>266.03</course>
  <speed>0.0</speed>
  <fix>3d</fix>
</trkpt>
<trkpt lat="40.0728421" lon="-105.2305751">
  <ele>1586.19</ele>
  <time>2026-08-27T18:24:45Z</time>
  <course>8.68</course>
  <speed>0.01414213562373095</speed>
  <fix>3d</fix>
</trkpt>
<trkpt lat="40.072842" lon="-105.230575">
  <ele>1586.09</ele>
  <time>2026-08-27T18:24:45Z</time>
  <course>266.03</course>
  <speed>0.0</speed>
  <fix>3d</fix>
</trkpt>
<trkpt lat="40.0728421" lon="-105.2305751">
  <ele>1586.19</ele>
  <time>2026-08-27T18:24:45Z</time>
  <course>8.68</course>
  <speed>0.01414213562373095</speed>
  <fix>3d</fix>
</trkpt>
<trkpt lat="40.072842" lon="-105.230575">
  <ele>1586.09</ele>
  <time>2026-08-27T18:24:45Z</time>
  <course>266.03</course>
  <speed>0.0</speed>
  <fix>3d</fix>
</trkpt>
<trkpt lat="40.0728421" lon="-105.2305751">
  <ele>1586.19</ele>
  <time>2026-08-27T18:24:45Z</time>
  <course>8.68</course>
  <speed>0.01414213562373095</speed>
  <fix>3d</fix>
</trkpt>
<trkpt lat="40.072842" lon="-105.230575">
  <ele>1586.09</ele>
  <time>2026-08-27T18:24:45Z</time>
  <course>266.03</course>
  <speed>0.0</speed>
  <fix>3d</fix>
</trkpt>
<trkpt lat="40.0728421" lon="-105.2305751">
  <ele>1586.19</ele>
  <time>2026-08-27T18:24:45Z</time>
  <course>8.68</course>
  <speed>0.01414213562373095</speed>
  <fix>3d</fix>
</trkpt>
<trkpt lat="40.072842" lon="-105.230575">
  <ele>1586.09</ele>
  <time>2026-08-27T18:24:45Z</time>
  <course>266.03</course>
  <speed>0.0</speed>
  <fix>3d</fix>
</trkpt>
<trkpt lat="40.0728421" lon="-105.2305751">
  <ele>1586.19</ele>
  <time>2026-08-27T18:24:45Z</time>
  <course>8.68</course>
  <speed>0.01414213562373095</speed>
  <fix>3d</fix>
</trkpt>
<trkpt lat="40.072842" lon="-105.230575">
  <ele>1586.09</ele>
  <time>2026-08-27T18:24:45Z</time>
  <course>266.03</course>
  <speed>0.0</speed>
  <fix>3d</fix>
</trkpt>
<trkpt lat="40.0728421" lon="-105.2305751">
  <ele>1586.19</ele>
  <time>2026-08-27T18:24:45Z</time>
  <course>8.68</course>
  <speed>0.01414213562373095</speed>
  <fix>3d</fix>
</trkpt>
<trkpt lat="40.072842" lon="-105.230575">
  <ele>1586.09</ele>
  <time>2026-08-27T18:24:45Z</time>
  <course>266.03</course>
  <speed>0.0</speed>
  <fix>3d</fix>
</trkpt>
<trkpt lat="40.0728421" lon="-105.2305751">
  <ele>1586.19</ele>
  <time>2026-08-27T18:24:45Z</time>
  <course>8.68</course>
  <speed>0.01414213562373095</speed>
  <fix>3d</fix>
</trkpt>
<trkpt lat="40.072842" lon="-105.230575">
  <ele>1586.09</ele>
  <time>2026-08-27T18:24:45Z</time>
  <course>266.03</course>
  <speed>0.0</speed>
  <fix>3d</fix>
</trkpt>
<trkpt lat="40.0728421" lon="-105.2305751">
  <ele>1586.19</ele>
  <time>2026-08-27T18:24:45Z</time>
  <course>8.68</course>
  <speed>0.01414213562373095</speed>
  <fix>3d</fix>
</trkpt>
<trkpt lat="40.072842" lon="-105.230575">
  <ele>1586.09</ele>
  <time>2026-08-27T18:24:45Z</time>
  <course>266.03</course>
  <speed>0.0</speed>
  <fix>3d</fix>
</trkpt>
<trkpt lat="40.0728421" lon="-105.2305751">
  <ele>1586.18</ele>
  <time>2026-08-27T18:24:45Z</time>
  <course>8.68</course>
  <speed>0.01414213562373095</speed>
  <fix>3d</fix>
</trkpt>
<trkpt lat="40.072842" lon="-105.230575">
  <ele>1586.09</ele>
  <time>2026-08-27T18:24:45Z</time>
  <course>266.03</course>
  <speed>0.0</speed>
  <fix>3d</fix>
</trkpt>
<trkpt lat="40.0728421" lon="-105.2305751">
  <ele>1586.17</ele>
  <time>2026-08-27T18:24:45Z</time>
  <course>8.68</course>
  <speed>0.01414213562373095</speed>
  <fix>3d</fix>
</trkpt>
<trkpt lat="40.072842" lon="-105.230575">
  <ele>1586.09</ele>
  <time>2026-08-27T18:24:45Z</time>
  <course>266.03</course>
  <speed>0.0</speed>
  <fix>3d</fix>
</trkpt>
<trkpt lat="40.0728421" lon="-105.2305751">
  <ele>1586.17</ele>
  <time>2026-08-27T18:24:45Z</time>
  <course>8.68</course>
  <speed>0.01414213562373095</speed>
  <fix>3d</fix>
</trkpt>
<trkpt lat="40.072842" lon="-105.230575">
  <ele>1586.09</ele>
  <time>2026-08-27T18:24:45Z</time>
  <course>266.03</course>
  <speed>0.0</speed>
  <fix>3d</fix>
</trkpt>
<trkpt lat="40.0728421" lon="-105.2305751">
  <ele>1586.17</ele>
  <time>2026-08-27T18:24:45Z</time>
  <course>8.68</course>
  <speed>0.01414213562373095</speed>
  <fix>3d</fix>
</trkpt>
<trkpt lat="40.072842" lon="-105.230575">
  <ele>1586.09</ele>
  <time>2026-08-27T18:24:45Z</time>
  <course>266.03</course>
  <speed>0.0</speed>
  <fix>3d</fix>
</trkpt>
<trkpt lat="40.0728421" lon="-105.2305751">
  <ele>1586.17</ele>
  <time>2026-08-27T18:24:45Z</time>
  <course>8.68</course>
  <speed>0.01414213562373095</speed>
  <fix>3d</fix>
</trkpt>
<trkpt lat="40.072842" lon="-105.230575">
  <ele>1586.09</ele>
  <time>2026-08-27T18:24:45Z</time>
  <course>266.03</course>
  <speed>0.0</speed>
  <fix>3d</fix>
</trkpt>
<trkpt lat="40.0728421" lon="-105.2305751">
  <ele>1586.17</ele>
  <time>2026-08-27T18:24:45Z</time>
  <course>8.69</course>
  <speed>0.01414213562373095</speed>
  <fix>3d</fix>
</trkpt>
<trkpt lat="40.072842" lon="-105.230575">
  <ele>1586.09</ele>
  <time>2026-08-27T18:24:45Z</time>
  <course>266.03</course>
  <speed>0.0</speed>
  <fix>3d</fix>
</trkpt>
<trkpt lat="40.0728421" lon="-105.2305751">
  <ele>1586.17</ele>
  <time>2026-08-27T18:24:45Z</time>
  <course>8.69</course>
  <speed>0.01414213562373095</speed>
  <fix>3d</fix>
</trkpt>
<trkpt lat="40.072842" lon="-105.230575">
  <ele>1586.09</ele>
  <time>2026-08-27T18:24:45Z</time>
  <course>266.03</course>
  <speed>0.0</speed>
  <fix>3d</fix>
</trkpt>
<trkpt lat="40.0728421" lon="-105.2305751">
  <ele>1586.17</ele>
  <time>2026-08-27T18:24:45Z</time>
  <course>8.69</course>
  <speed>0.01414213562373095</speed>
  <fix>3d</fix>
</trkpt>
<trkpt lat="40.072842" lon="-105.230575">
  <ele>1586.09</ele>
  <time>2026-08-27T18:24:45Z</time>
  <course>266.03</course>
  <speed>0.0</speed>
  <fix>3d</fix>
</trkpt>
<trkpt lat="40.0728421" lon="-105.2305751">
  <ele>1586.17</ele>
  <time>2026-08-27T18:24:45Z</time>
  <course>8.69</course>
  <speed>0.01414213562373095</speed>
  <fix>3d</fix>
</trkpt>
<trkpt lat="40.072842" lon="-105.230575">
  <ele>1586.09</ele>
  <time>2026-08-27T18:24:45Z</time>
  <course>266.03</course>
  <speed>0.0</speed>
  <fix>3d</fix>
</trkpt>
<trkpt lat="40.0728421" lon="-105.2305751">
  <ele>1586.17</ele>
  <time>2026-08-27T18:24:45Z</time>
  <course>8.69</course>
  <speed>0.01414213562373095</speed>
  <fix>3d</fix>
</trkpt>
<trkpt lat="40.072842" lon="-105.230575">
  <ele>1586.09</ele>
  <time>2026-08-27T18:24:45Z</time>
  <course>266.03</course>
  <speed>0.0</speed>
  <fix>3d</fix>
</trkpt>
<trkpt lat="40.0728421" lon="-105.2305751">
  <ele>1586.16</ele>
  <time>2026-08-27T18:24:45Z</time>
  <course>8.69</course>
  <speed>0.01414213562373095</speed>
  <fix>3d</fix>
</trkpt>
<trkpt lat="40.072842" lon="-105.230575">
  <ele>1586.09</ele>
  <time>2026-08-27T18:24:45Z</time>
  <course>266.03</course>
  <speed>0.0</speed>
  <fix>3d</fix>
</trkpt>
<trkpt lat="40.0728421" lon="-105.2305751">
  <ele>1586.16</ele>
  <time>2026-08-27T18:24:45Z</time>
  <course>8.69</course>
  <speed>0.01414213562373095</speed>
  <fix>3d</fix>
</trkpt>
<trkpt lat="40.072842" lon="-105.230575">
  <ele>1586.09</ele>
  <time>2026-08-27T18:24:45Z</time>
  <course>266.03</course>
  <speed>0.0</speed>
  <fix>3d</fix>
</trkpt>
<trkpt lat="40.0728421" lon="-105.2305751">
  <ele>1586.16</ele>
  <time>2026-08-27T18:24:45Z</time>
  <course>8.69</course>
  <speed>0.01414213562373095</speed>
  <fix>3d</fix>
</trkpt>
<trkpt lat="40.072842" lon="-105.230575">
  <ele>1586.09</ele>
  <time>2026-08-27T18:24:45Z</time>
  <course>295.24</course>
  <speed>0.0</speed>
  <fix>3d</fix>
</trkpt>
<trkpt lat="40.0728421" lon="-105.2305751">
  <ele>1586.17</ele>
  <time>2026-08-27T18:24:45Z</time>
  <course>8.69</course>
  <speed>0.01414213562373095</speed>
  <fix>3d</fix>
</trkpt>
<trkpt lat="40.072842" lon="-105.230575">
  <ele>1586.09</ele>
  <time>2026-08-27T18:24:45Z</time>
  <course>301.63</course>
  <speed>0.0</speed>
  <fix>3d</fix>
</trkpt>
<trkpt lat="40.0728421" lon="-105.2305751">
  <ele>1586.17</ele>
  <time>2026-08-27T18:24:45Z</time>
  <course>8.69</course>
  <speed>0.01414213562373095</speed>
  <fix>3d</fix>
</trkpt>
<trkpt lat="40.072842" lon="-105.230575">
  <ele>1586.09</ele>
  <time>2026-08-27T18:24:45Z</time>
  <course>300.79</course>
  <speed>0.0</speed>
  <fix>3d</fix>
</trkpt>
<trkpt lat="40.0728421" lon="-105.2305751">
  <ele>1586.18</ele>
  <time>2026-08-27T18:24:45Z</time>
  <course>8.69</course>
  <speed>0.01414213562373095</speed>
  <fix>3d</fix>
</trkpt>
<trkpt lat="40.072842" lon="-105.230575">
  <ele>1586.09</ele>
  <time>2026-08-27T18:24:45Z</time>
  <course>288.31</course>
  <speed>0.0</speed>
  <fix>3d</fix>
</trkpt>
<trkpt lat="40.0728421" lon="-105.2305751">
  <ele>1586.18</ele>
  <time>2026-08-27T18:24:45Z</time>
  <course>8.69</course>
  <speed>0.01414213562373095</speed>
  <fix>3d</fix>
</trkpt>
<trkpt lat="40.072842" lon="-105.230575">
  <ele>1586.09</ele>
  <time>2026-08-27T18:24:45Z</time>
  <course>269.61</course>
  <speed>0.0</speed>
  <fix>3d</fix>
</trkpt>
<trkpt lat="40.0728421" lon="-105.2305751">
  <ele>1586.18</ele>
  <time>2026-08-27T18:24:45Z</time>
  <course>8.69</course>
  <speed>0.01414213562373095</speed>
  <fix>3d</fix>
</trkpt>
<trkpt lat="40.072842" lon="-105.230575">
  <ele>1586.09</ele>
  <time>2026-08-27T18:24:45Z</time>
  <course>248.72</course>
  <speed>0.0</speed>
  <fix>3d</fix>
</trkpt>
<trkpt lat="40.0728421" lon="-105.2305751">
  <ele>1586.18</ele>
  <time>2026-08-27T18:24:45Z</time>
  <course>8.69</course>
  <speed>0.01414213562373095</speed>
  <fix>3d</fix>
</trkpt>
<trkpt lat="40.072842" lon="-105.230575">
  <ele>1586.09</ele>
  <time>2026-08-27T18:24:45Z</time>
  <course>77.99</course>
  <speed>0.0</speed>
  <fix>3d</fix>
</trkpt>
<trkpt lat="40.0728421" lon="-105.2305751">
  <ele>1586.18</ele>
  <time>2026-08-27T18:24:45Z</time>
  <course>8.7</course>
  <speed>0.01414213562373095</speed>
  <fix>3d</fix>
</trkpt>
<trkpt lat="40.072842" lon="-105.230575">
  <ele>1586.09</ele>
  <time>2026-08-27T18:24:45Z</time>
  <course>305.11</course>
  <speed>0.0</speed>
  <fix>3d</fix>
</trkpt>
<trkpt lat="40.0728421" lon="-105.2305751">
  <ele>1586.18</ele>
  <time>2026-08-27T18:24:45Z</time>
  <course>8.7</course>
  <speed>0.01414213562373095</speed>
  <fix>3d</fix>
</trkpt>
<trkpt lat="40.072842" lon="-105.230575">
  <ele>1586.09</ele>
  <time>2026-08-27T18:24:45Z</time>
  <course>276.73</course>
  <speed>0.0</speed>
  <fix>3d</fix>
</trkpt>
<trkpt lat="40.0728421" lon="-105.2305751">
  <ele>1586.18</ele>
  <time>2026-08-27T18:24:45Z</time>
  <course>8.7</course>
  <speed>0.01414213562373095</speed>
  <fix>3d</fix>
</trkpt>
<trkpt lat="40.072842" lon="-105.230575">
  <ele>1586.09</ele>
  <time>2026-08-27T18:24:45Z</time>
  <course>278.83</course>
  <speed>0.0</speed>
  <fix>3d</fix>
</trkpt>
<trkpt lat="40.0728421" lon="-105.2305751">
  <ele>1586.18</ele>
  <time>2026-08-27T18:24:45Z</time>
  <course>8.7</course>
  <speed>0.01414213562373095</speed>
  <fix>3d</fix>
</trkpt>
<trkpt lat="40.072842" lon="-105.230575">
  <ele>1586.09</ele>
  <time>2026-08-27T18:24:45Z</time>
  <course>281.8</course>
  <speed>0.0</speed>
  <fix>3d</fix>
</trkpt>
<trkpt lat="40.0728421" lon="-105.2305751">
  <ele>1586.18</ele>
  <time>2026-08-27T18:24:45Z</time>
  <course>8.7</course>
  <speed>0.01414213562373095</speed>
  <fix>3d</fix>
</trkpt>
<trkpt lat="40.072842" lon="-105.230575">
  <ele>1586.09</ele>
  <time>2026-08-27T18:24:45Z</time>
  <course>280.97</course>
  <speed>0.0</speed>
  <fix>3d</fix>
</trkpt>
<trkpt lat="40.0728421" lon="-105.2305751">
  <ele>1586.18</ele>
  <time>2026-08-27T18:24:45Z</time>
  <course>8.7</course>
  <speed>0.01414213562373095</speed>
  <fix>3d</fix>
</trkpt>
<trkpt lat="40.072842" lon="-105.230575">
  <ele>1586.09</ele>
  <time>2026-08-27T18:24:45Z</time>
  <course>280.67</course>
  <speed>0.0</speed>
  <fix>3d</fix>
</trkpt>
<trkpt lat="40.0728421" lon="-105.2305751">
  <ele>1586.18</ele>
  <time>2026-08-27T18:24:45Z</time>
  <course>8.7</course>
  <speed>0.01414213562373095</speed>
  <fix>3d</fix>
</trkpt>
<trkpt lat="40.072842" lon="-105.230575">
  <ele>1586.09</ele>
  <time>2026-08-27T18:24:45Z</time>
  <course>83.36</course>
  <speed>0.0</speed>
  <fix>3d</fix>
</trkpt>
<trkpt lat="40.0728421" lon="-105.2305751">
  <ele>1586.18</ele>
  <time>2026-08-27T18:24:45Z</time>
  <course>8.7</course>
  <speed>0.01414213562373095</speed>
  <fix>3d</fix>
</trkpt>
<trkpt lat="40.072842" lon="-105.230575">
  <ele>1586.09</ele>
  <time>2026-08-27T18:24:45Z</time>
  <course>75.2</course>
  <speed>0.0</speed>
  <fix>3d</fix>
</trkpt>
<trkpt lat="40.0728421" lon="-105.2305751">
  <ele>1586.18</ele>
  <time>2026-08-27T18:24:45Z</time>
  <course>8.7</course>
  <speed>0.01414213562373095</speed>
  <fix>3d</fix>
</trkpt>
<trkpt lat="40.072842" lon="-105.230575">
  <ele>1586.09</ele>
  <time>2026-08-27T18:24:45Z</time>
  <course>294.64</course>
  <speed>0.0</speed>
  <fix>3d</fix>
</trkpt>
<trkpt lat="40.0728421" lon="-105.2305751">
  <ele>1586.19</ele>
  <time>2026-08-27T18:24:45Z</time>
  <course>8.7</course>
  <speed>0.01414213562373095</speed>
  <fix>3d</fix>
</trkpt>
<trkpt lat="40.072842" lon="-105.230575">
  <ele>1586.09</ele>
  <time>2026-08-27T18:24:45Z</time>
  <course>262.69</course>
  <speed>0.0</speed>
  <fix>3d</fix>
</trkpt>
<trkpt lat="40.0728421" lon="-105.2305751">
  <ele>1586.19</ele>
  <time>2026-08-27T18:24:45Z</time>
  <course>8.7</course>
  <speed>0.01414213562373095</speed>
  <fix>3d</fix>
</trkpt>
<trkpt lat="40.072842" lon="-105.230575">
  <ele>1586.09</ele>
  <time>2026-08-27T18:24:45Z</time>
  <course>290.61</course>
  <speed>0.0</speed>
  <fix>3d</fix>
</trkpt>
<trkpt lat="40.0728421" lon="-105.2305751">
  <ele>1586.19</ele>
  <time>2026-08-27T18:24:45Z</time>
  <course>8.7</course>
  <speed>0.01414213562373095</speed>
  <fix>3d</fix>
</trkpt>
<trkpt lat="40.072842" lon="-105.230575">
  <ele>1586.09</ele>
  <time>2026-08-27T18:24:45Z</time>
  <course>293.53</course>
  <speed>0.0</speed>
  <fix>3d</fix>
</trkpt>
<trkpt lat="40.0728421" lon="-105.2305751">
  <ele>1586.19</ele>
  <time>2026-08-27T18:24:45Z</time>
  <course>8.7</course>
  <speed>0.01414213562373095</speed>
  <fix>3d</fix>
</trkpt>
<trkpt lat="40.072842" lon="-105.230575">
  <ele>1586.09</ele>
  <time>2026-08-27T18:24:45Z</time>
  <course>285.12</course>
  <speed>0.0</speed>
  <fix>3d</fix>
</trkpt>
<trkpt lat="40.0728422" lon="-105.2305751">
  <ele>1586.19</ele>
  <time>2026-08-27T18:24:45Z</time>
  <course>8.7</course>
  <speed>0.022360679774997897</speed>
  <fix>3d</fix>
</trkpt>
<trkpt lat="40.072842" lon="-105.230575">
  <ele>1586.09</ele>
  <time>2026-08-27T18:24:45Z</time>
  <course>285.44</course>
  <speed>0.0</speed>
  <fix>3d</fix>
</trkpt>
<trkpt lat="40.0728422" lon="-105.2305752">
  <ele>1586.19</ele>
  <time>2026-08-27T18:24:45Z</time>
  <course>8.7</course>
  <speed>0.022360679774997897</speed>
  <fix>3d</fix>
</trkpt>
<trkpt lat="40.072842" lon="-105.230575">
  <ele>1586.09</ele>
  <time>2026-08-27T18:24:45Z</time>
  <course>286.44</course>
  <speed>0.0</speed>
  <fix>3d</fix>
</trkpt>
<trkpt lat="40.0728423" lon="-105.2305752">
  <ele>1586.19</ele>
  <time>2026-08-27T18:24:45Z</time>
  <course>8.7</course>
  <speed>0.0282842712474619</speed>
  <fix>3d</fix>
</trkpt>
<trkpt lat="40.072842" lon="-105.230575">
  <ele>1586.09</ele>
  <time>2026-08-27T18:24:45Z</time>
  <course>286.26</course>
  <speed>0.0</speed>
  <fix>3d</fix>
</trkpt>
<trkpt lat="40.0728423" lon="-105.2305753">
  <ele>1586.19</ele>
  <time>2026-08-27T18:24:45Z</time>
  <course>8.7</course>
  <speed>0.03605551275463989</speed>
  <fix>3d</fix>
</trkpt>
<trkpt lat="40.072842" lon="-105.230575">
  <ele>1586.09</ele>
  <time>2026-08-27T18:24:45Z</time>
  <course>286.15</course>
  <speed>0.0</speed>
  <fix>3d</fix>
</trkpt>
<trkpt lat="40.0728424" lon="-105.2305754">
  <ele>1586.19</ele>
  <time>2026-08-27T18:24:45Z</time>
  <course>8.7</course>
  <speed>0.03605551275463989</speed>
  <fix>3d</fix>
</trkpt>
<trkpt lat="40.072842" lon="-105.230575">
  <ele>1586.09</ele>
  <time>2026-08-27T18:24:45Z</time>
  <course>286.19</course>
  <speed>0.0</speed>
  <fix>3d</fix>
</trkpt>
<trkpt lat="40.0728424" lon="-105.2305754">
  <ele>1586.19</ele>
  <time>2026-08-27T18:24:45Z</time>
  <course>8.7</course>
  <speed>0.03605551275463989</speed>
  <fix>3d</fix>
</trkpt>
<trkpt lat="40.072842" lon="-105.230575">
  <ele>1586.09</ele>
  <time>2026-08-27T18:24:45Z</time>
  <course>286.2</course>
  <speed>0.0</speed>
  <fix>3d</fix>
</trkpt>
<trkpt lat="40.0728425" lon="-105.2305755">
  <ele>1586.2</ele>
  <time>2026-08-27T18:24:45Z</time>
  <course>8.7</course>
  <speed>0.05</speed>
  <fix>3d</fix>
</trkpt>
<trkpt lat="40.072842" lon="-105.230575">
  <ele>1586.09</ele>
  <time>2026-08-27T18:24:45Z</time>
  <course>286.19</course>
  <speed>0.0</speed>
  <fix>3d</fix>
</trkpt>
<trkpt lat="40.0728426" lon="-105.2305756">
  <ele>1586.2</ele>
  <time>2026-08-27T18:24:45Z</time>
  <course>8.7</course>
  <speed>0.05</speed>
  <fix>3d</fix>
</trkpt>
<trkpt lat="40.072842" lon="-105.230575">
  <ele>1586.09</ele>
  <time>2026-08-27T18:24:45Z</time>
  <course>286.19</course>
  <speed>0.0</speed>
  <fix>3d</fix>
</trkpt>
<trkpt lat="40.0728427" lon="-105.2305757">
  <ele>1586.2</ele>
  <time>2026-08-27T18:24:45Z</time>
  <course>8.7</course>
  <speed>0.05</speed>
  <fix>3d</fix>
</trkpt>
<trkpt lat="40.072842" lon="-105.230575">
  <ele>1586.09</ele>
  <time>2026-08-27T18:24:45Z</time>
  <course>286.19</course>
  <speed>0.0</speed>
  <fix>3d</fix>
</trkpt>
<trkpt lat="40.0728428" lon="-105.2305758">
  <ele>1586.2</ele>
  <time>2026-08-27T18:24:45Z</time>
  <course>8.7</course>
  <speed>0.05830951894845301</speed>
  <fix>3d</fix>
</trkpt>
<trkpt lat="40.072842" lon="-105.230575">
  <ele>1586.09</ele>
  <time>2026-08-27T18:24:45Z</time>
  <course>286.19</course>
  <speed>0.0</speed>
  <fix>3d</fix>
</trkpt>
<trkpt lat="40.0728429" lon="-105.2305758">
  <ele>1586.2</ele>
  <time>2026-08-27T18:24:45Z</time>
  <course>8.7</course>
  <speed>0.06403124237432849</speed>
  <fix>3d</fix>
</trkpt>
<trkpt lat="40.072842" lon="-105.230575">
  <ele>1586.09</ele>
  <time>2026-08-27T18:24:45Z</time>
  <course>286.19</course>
  <speed>0.0</speed>
  <fix>3d</fix>
</trkpt>
<trkpt lat="40.072843" lon="-105.2305759">
  <ele>1586.2</ele>
  <time>2026-08-27T18:24:45Z</time>
  <course>8.7</course>
  <speed>0.06403124237432849</speed>
  <fix>3d</fix>
</trkpt>
<trkpt lat="40.072842" lon="-105.230575">
  <ele>1586.09</ele>
  <time>2026-08-27T18:24:45Z</time>
  <course>286.19</course>
  <speed>0.0</speed>
  <fix>3d</fix>
</trkpt>
<trkpt lat="40.0728431" lon="-105.2305761">
  <ele>1586.2</ele>
  <time>2026-08-27T18:24:45Z</time>
  <course>8.7</course>
  <speed>0.07211102550927978</speed>
  <fix>3d</fix>
</trkpt>
<trkpt lat="40.072842" lon="-105.230575">
  <ele>1586.09</ele>
  <time>2026-08-27T18:24:45Z</time>
  <course>286.19</course>
  <speed>0.0</speed>
  <fix>3d</fix>
</trkpt>
<trkpt lat="40.0728432" lon="-105.2305762">
  <ele>1586.2</ele>
  <time>2026-08-27T18:24:45Z</time>
  <course>8.7</course>
  <speed>0.07810249675906654</speed>
  <fix>3d</fix>
</trkpt>
<trkpt lat="40.072842" lon="-105.230575">
  <ele>1586.09</ele>
  <time>2026-08-27T18:24:45Z</time>
  <course>286.19</course>
  <speed>0.0</speed>
  <fix>3d</fix>
</trkpt>
<trkpt lat="40.0728433" lon="-105.2305763">
  <ele>1586.2</ele>
  <time>2026-08-27T18:24:45Z</time>
  <course>8.7</course>
  <speed>0.08602325267042626</speed>
  <fix>3d</fix>
</trkpt>
<trkpt lat="40.072842" lon="-105.230575">
  <ele>1586.09</ele>
  <time>2026-08-27T18:24:45Z</time>
  <course>156.57</course>
  <speed>0.0</speed>
  <fix>3d</fix>
</trkpt>
<trkpt lat="40.0728434" lon="-105.2305764">
  <ele>1586.19</ele>
  <time>2026-08-27T18:24:45Z</time>
  <course>8.7</course>
  <speed>0.08602325267042626</speed>
  <fix>3d</fix>
</trkpt>
<trkpt lat="40.072842" lon="-105.230575">
  <ele>1586.09</ele>
  <time>2026-08-27T18:24:45Z</time>
  <course>146.82</course>
  <speed>0.0</speed>
  <fix>3d</fix>
</trkpt>
<trkpt lat="40.0728435" lon="-105.2305765">
  <ele>1586.19</ele>
  <time>2026-08-27T18:24:45Z</time>
  <course>8.7</course>
  <speed>0.08602325267042626</speed>
  <fix>3d</fix>
</trkpt>
<trkpt lat="40.072842" lon="-105.230575">
  <ele>1586.09</ele>
  <time>2026-08-27T18:24:45Z</time>
  <course>20.29</course>
  <speed>0.0</speed>
  <fix>3d</fix>
</trkpt>
<trkpt lat="40.0728437" lon="-105.2305766">
  <ele>1586.19</ele>
  <time>2026-08-27T18:24:45Z</time>
  <course>8.7</course>
  <speed>0.1</speed>
  <fix>3d</fix>
</trkpt>
<trkpt lat="40.072842" lon="-105.230575">
  <ele>1586.09</ele>
  <time>2026-08-27T18:24:45Z</time>
  <course>302.22</course>
  <speed>0.0</speed>
  <fix>3d</fix>
</trkpt>
<trkpt lat="40.0728438" lon="-105.2305768">
  <ele>1586.19</ele>
  <time>2026-08-27T18:24:45Z</time>
  <course>8.7</course>
  <speed>0.1</speed>
  <fix>3d</fix>
</trkpt>
<trkpt lat="40.072842" lon="-105.230575">
  <ele>1586.09</ele>
  <time>2026-08-27T18:24:45Z</time>
  <course>238.82</course>
  <speed>0.0</speed>
  <fix>3d</fix>
</trkpt>
<trkpt lat="40.0728439" lon="-105.2305769">
  <ele>1586.19</ele>
  <time>2026-08-27T18:24:45Z</time>
  <course>8.7</course>
  <speed>0.10816653826391968</speed>
  <fix>3d</fix>
</trkpt>
<trkpt lat="40.072842" lon="-105.230575">
  <ele>1586.09</ele>
  <time>2026-08-27T18:24:45Z</time>
  <course>249.48</course>
  <speed>0.0</speed>
  <fix>3d</fix>
</trkpt>
<trkpt lat="40.072844" lon="-105.230577">
  <ele>1586.19</ele>
  <time>2026-08-27T18:24:45Z</time>
  <course>8.7</course>
  <speed>0.10816653826391968</speed>
  <fix>3d</fix>
</trkpt>
<trkpt lat="40.072842" lon="-105.230575">
  <ele>1586.09</ele>
  <time>2026-08-27T18:24:45Z</time>
  <course>271.45</course>
  <speed>0.0</speed>
  <fix>3d</fix>
</trkpt>
<trkpt lat="40.0728442" lon="-105.2305771">
  <ele>1586.19</ele>
  <time>2026-08-27T18:24:45Z</time>
  <course>8.7</course>
  <speed>0.11401754250991379</speed>
  <fix>3d</fix>
</trkpt>
<trkpt lat="40.072842" lon="-105.230575">
  <ele>1586.09</ele>
  <time>2026-08-27T18:24:45Z</time>
  <course>267.03</course>
  <speed>0.0</speed>
  <fix>3d</fix>
</trkpt>
<trkpt lat="40.0728443" lon="-105.2305773">
  <ele>1586.19</ele>
  <time>2026-08-27T18:24:45Z</time>
  <course>8.7</course>
  <speed>0.12206555615733702</speed>
  <fix>3d</fix>
</trkpt>
<trkpt lat="40.072842" lon="-105.230575">
  <ele>1586.09</ele>
  <time>2026-08-27T18:24:45Z</time>
  <course>265.16</course>
  <speed>0.0</speed>
  <fix>3d</fix>
</trkpt>
<trkpt lat="40.0728445" lon="-105.2305774">
  <ele>1586.2</ele>
  <time>2026-08-27T18:24:45Z</time>
  <course>8.7</course>
  <speed>0.12206555615733702</speed>
  <fix>3d</fix>
</trkpt>
<trkpt lat="40.072842" lon="-105.230575">
  <ele>1586.09</ele>
  <time>2026-08-27T18:24:45Z</time>
  <course>87.56</course>
  <speed>0.0</speed>
  <fix>3d</fix>
</trkpt>
<trkpt lat="40.0728446" lon="-105.2305775">
  <ele>1586.2</ele>
  <time>2026-08-27T18:24:46Z</time>
  <course>8.7</course>
  <speed>0.12806248474865697</speed>
  <fix>3d</fix>
</trkpt>
<trkpt lat="40.072842" lon="-105.230575">
  <ele>1586.09</ele>
  <time>2026-08-27T18:24:46Z</time>
  <course>79.55</course>
  <speed>0.0</speed>
  <fix>3d</fix>
</trkpt>
<trkpt lat="40.0728447" lon="-105.2305776">
  <ele>1586.19</ele>
  <time>2026-08-27T18:24:46Z</time>
  <course>8.7</course>
  <speed>0.12806248474865697</speed>
  <fix>3d</fix>
</trkpt>
<trkpt lat="40.072842" lon="-105.230575">
  <ele>1586.09</ele>
  <time>2026-08-27T18:24:46Z</time>
  <course>300.39</course>
  <speed>0.0</speed>
  <fix>3d</fix>
</trkpt>
<trkpt lat="40.0728448" lon="-105.2305777">
  <ele>1586.19</ele>
  <time>2026-08-27T18:24:46Z</time>
  <course>8.7</course>
  <speed>0.13601470508735444</speed>
  <fix>3d</fix>
</trkpt>
<trkpt lat="40.072842" lon="-105.230575">
  <ele>1586.09</ele>
  <time>2026-08-27T18:24:46Z</time>
  <course>251.88</course>
  <speed>0.0</speed>
  <fix>3d</fix>
</trkpt>
<trkpt lat="40.072845" lon="-105.2305779">
  <ele>1586.2</ele>
  <time>2026-08-27T18:24:46Z</time>
  <course>8.69</course>
  <speed>0.13601470508735444</speed>
  <fix>3d</fix>
</trkpt>
<trkpt lat="40.072842" lon="-105.230575">
  <ele>1586.09</ele>
  <time>2026-08-27T18:24:46Z</time>
  <course>161.22</course>
  <speed>0.0</speed>
  <fix>3d</fix>
</trkpt>
<trkpt lat="40.0728452" lon="-105.2305781">
  <ele>1586.2</ele>
  <time>2026-08-27T18:24:46Z</time>
  <course>8.69</course>
  <speed>0.15</speed>
  <fix>3d</fix>
</trkpt>
<trkpt lat="40.072842" lon="-105.230575">
  <ele>1586.09</ele>
  <time>2026-08-27T18:24:46Z</time>
  <course>285.94</course>
  <speed>0.0</speed>
  <fix>3d</fix>
</trkpt>
<trkpt lat="40.0728453" lon="-105.2305782">
  <ele>1586.21</ele>
  <time>2026-08-27T18:24:46Z</time>
  <course>8.69</course>
  <speed>0.15</speed>
  <fix>3d</fix>
</trkpt>
<trkpt lat="40.072842" lon="-105.230575">
  <ele>1586.09</ele>
  <time>2026-08-27T18:24:46Z</time>
  <course>267.11</course>
  <speed>0.0</speed>
  <fix>3d</fix>
</trkpt>
<trkpt lat="40.0728453" lon="-105.2305782">
  <ele>1586.21</ele>
  <time>2026-08-27T18:24:46Z</time>
  <course>8.69</course>
  <speed>0.15</speed>
  <fix>3d</fix>
</trkpt>
<trkpt lat="40.072842" lon="-105.230575">
  <ele>1586.09</ele>
  <time>2026-08-27T18:24:46Z</time>
  <course>264.31</course>
  <speed>0.0</speed>
  <fix>3d</fix>
</trkpt>
<trkpt lat="40.0728454" lon="-105.2305783">
  <ele>1586.22</ele>
  <time>2026-08-27T18:24:46Z</time>
  <course>8.69</course>
  <speed>0.15</speed>
  <fix>3d</fix>
</trkpt>
<trkpt lat="40.072842" lon="-105.230575">
  <ele>1586.09</ele>
  <time>2026-08-27T18:24:46Z</time>
  <course>266.08</course>
  <speed>0.0</speed>
  <fix>3d</fix>
</trkpt>
<trkpt lat="40.0728456" lon="-105.2305785">
  <ele>1586.21</ele>
  <time>2026-08-27T18:24:46Z</time>
  <course>8.69</course>
  <speed>0.15811388300841897</speed>
  <fix>3d</fix>
</trkpt>
<trkpt lat="40.072842" lon="-105.230575">
  <ele>1586.09</ele>
  <time>2026-08-27T18:24:46Z</time>
  <course>266.27</course>
  <speed>0.0</speed>
  <fix>3d</fix>
</trkpt>
<trkpt lat="40.0728458" lon="-105.2305787">
  <ele>1586.22</ele>
  <time>2026-08-27T18:24:46Z</time>
  <course>8.69</course>
  <speed>0.16401219466856726</speed>
  <fix>3d</fix>
</trkpt>
<trkpt lat="40.072842" lon="-105.230575">
  <ele>1586.09</ele>
  <time>2026-08-27T18:24:46Z</time>
  <course>266.0</course>
  <speed>0.0</speed>
  <fix>3d</fix>
</trkpt>
<trkpt lat="40.072846" lon="-105.2305788">
  <ele>1586.21</ele>
  <time>2026-08-27T18:24:46Z</time>
  <course>8.69</course>
  <speed>0.17204650534085253</speed>
  <fix>3d</fix>
</trkpt>
<trkpt lat="40.072842" lon="-105.230575">
  <ele>1586.09</ele>
  <time>2026-08-27T18:24:46Z</time>
  <course>266.01</course>
  <speed>0.0</speed>
  <fix>3d</fix>
</trkpt>
<trkpt lat="40.0728458" lon="-105.2305787">
  <ele>1586.21</ele>
  <time>2026-08-27T18:24:46Z</time>
  <course>8.69</course>
  <speed>0.16401219466856726</speed>
  <fix>3d</fix>
</trkpt>
<trkpt lat="40.072842" lon="-105.230575">
  <ele>1586.09</ele>
  <time>2026-08-27T18:24:46Z</time>
  <course>266.04</course>
  <speed>0.0</speed>
  <fix>3d</fix>
</trkpt>
<trkpt lat="40.0728459" lon="-105.2305788">
  <ele>1586.21</ele>
  <time>2026-08-27T18:24:46Z</time>
  <course>8.69</course>
  <speed>0.16401219466856726</speed>
  <fix>3d</fix>
</trkpt>
<trkpt lat="40.072842" lon="-105.230575">
  <ele>1586.09</ele>
  <time>2026-08-27T18:24:46Z</time>
  <course>266.04</course>
  <speed>0.0</speed>
  <fix>3d</fix>
</trkpt>
<trkpt lat="40.0728461" lon="-105.2305789">
  <ele>1586.2</ele>
  <time>2026-08-27T18:24:46Z</time>
  <course>8.68</course>
  <speed>0.17204650534085253</speed>
  <fix>3d</fix>
</trkpt>
<trkpt lat="40.072842" lon="-105.230575">
  <ele>1586.09</ele>
  <time>2026-08-27T18:24:46Z</time>
  <course>266.03</course>
  <speed>0.0</speed>
  <fix>3d</fix>
</trkpt>
<trkpt lat="40.0728463" lon="-105.2305792">
  <ele>1586.19</ele>
  <time>2026-08-27T18:24:46Z</time>
  <course>8.68</course>
  <speed>0.17204650534085253</speed>
  <fix>3d</fix>
</trkpt>
<trkpt lat="40.072842" lon="-105.230575">
  <ele>1586.09</ele>
  <time>2026-08-27T18:24:46Z</time>
  <course>266.03</course>
  <speed>0.0</speed>
  <fix>3d</fix>
</trkpt>
<trkpt lat="40.0728465" lon="-105.2305794">
  <ele>1586.18</ele>
  <time>2026-08-27T18:24:46Z</time>
  <course>8.68</course>
  <speed>0.18601075237738274</speed>
  <fix>3d</fix>
</trkpt>
<trkpt lat="40.072842" lon="-105.230575">
  <ele>1586.09</ele>
  <time>2026-08-27T18:24:46Z</time>
  <course>266.03</course>
  <speed>0.0</speed>
  <fix>3d</fix>
</trkpt>
<trkpt lat="40.0728464" lon="-105.2305793">
  <ele>1586.18</ele>
  <time>2026-08-27T18:24:46Z</time>
  <course>8.68</course>
  <speed>0.17204650534085253</speed>
  <fix>3d</fix>
</trkpt>
<trkpt lat="40.072842" lon="-105.230575">
  <ele>1586.09</ele>
  <time>2026-08-27T18:24:46Z</time>
  <course>266.03</course>
  <speed>0.0</speed>
  <fix>3d</fix>
</trkpt>
<trkpt lat="40.0728463" lon="-105.2305792">
  <ele>1586.18</ele>
  <time>2026-08-27T18:24:46Z</time>
  <course>8.68</course>
  <speed>0.17204650534085253</speed>
  <fix>3d</fix>
</trkpt>
<trkpt lat="40.072842" lon="-105.230575">
  <ele>1586.09</ele>
  <time>2026-08-27T18:24:46Z</time>
  <course>266.03</course>
  <speed>0.0</speed>
  <fix>3d</fix>
</trkpt>
<trkpt lat="40.0728464" lon="-105.2305793">
  <ele>1586.17</ele>
  <time>2026-08-27T18:24:46Z</time>
  <course>8.68</course>
  <speed>0.17204650534085253</speed>
  <fix>3d</fix>
</trkpt>
<trkpt lat="40.072842" lon="-105.230575">
  <ele>1586.09</ele>
  <time>2026-08-27T18:24:46Z</time>
  <course>266.03</course>
  <speed>0.0</speed>
  <fix>3d</fix>
</trkpt>
<trkpt lat="40.0728466" lon="-105.2305794">
  <ele>1586.17</ele>
  <time>2026-08-27T18:24:46Z</time>
  <course>8.68</course>
  <speed>0.18601075237738274</speed>
  <fix>3d</fix>
</trkpt>
<trkpt lat="40.072842" lon="-105.230575">
  <ele>1586.09</ele>
  <time>2026-08-27T18:24:46Z</time>
  <course>266.03</course>
  <speed>0.0</speed>
  <fix>3d</fix>
</trkpt>
<trkpt lat="40.0728468" lon="-105.2305797">
  <ele>1586.17</ele>
  <time>2026-08-27T18:24:46Z</time>
  <course>8.68</course>
  <speed>0.18601075237738274</speed>
  <fix>3d</fix>
</trkpt>
<trkpt lat="40.072842" lon="-105.230575">
  <ele>1586.09</ele>
  <time>2026-08-27T18:24:46Z</time>
  <course>266.03</course>
  <speed>0.0</speed>
  <fix>3d</fix>
</trkpt>
<trkpt lat="40.0728469" lon="-105.2305798">
  <ele>1586.17</ele>
  <time>2026-08-27T18:24:46Z</time>
  <course>8.68</course>
  <speed>0.18601075237738274</speed>
  <fix>3d</fix>
</trkpt>
<trkpt lat="40.072842" lon="-105.230575">
  <ele>1586.09</ele>
  <time>2026-08-27T18:24:46Z</time>
  <course>266.03</course>
  <speed>0.0</speed>
  <fix>3d</fix>
</trkpt>
<trkpt lat="40.0728466" lon="-105.2305794">
  <ele>1586.17</ele>
  <time>2026-08-27T18:24:46Z</time>
  <course>8.67</course>
  <speed>0.17804493814764857</speed>
  <fix>3d</fix>
</trkpt>
<trkpt lat="40.072842" lon="-105.230575">
  <ele>1586.09</ele>
  <time>2026-08-27T18:24:46Z</time>
  <course>266.03</course>
  <speed>0.0</speed>
  <fix>3d</fix>
</trkpt>
<trkpt lat="40.0728465" lon="-105.2305794">
  <ele>1586.18</ele>
  <time>2026-08-27T18:24:46Z</time>
  <course>8.67</course>
  <speed>0.17204650534085253</speed>
  <fix>3d</fix>
</trkpt>
<trkpt lat="40.072842" lon="-105.230575">
  <ele>1586.09</ele>
  <time>2026-08-27T18:24:46Z</time>
  <course>266.03</course>
  <speed>0.0</speed>
  <fix>3d</fix>
</trkpt>
<trkpt lat="40.0728467" lon="-105.2305795">
  <ele>1586.19</ele>
  <time>2026-08-27T18:24:46Z</time>
  <course>8.67</course>
  <speed>0.18601075237738274</speed>
  <fix>3d</fix>
</trkpt>
<trkpt lat="40.072842" lon="-105.230575">
  <ele>1586.09</ele>
  <time>2026-08-27T18:24:46Z</time>
  <course>266.03</course>
  <speed>0.0</speed>
  <fix>3d</fix>
</trkpt>
<trkpt lat="40.0728469" lon="-105.2305798">
  <ele>1586.18</ele>
  <time>2026-08-27T18:24:46Z</time>
  <course>8.67</course>
  <speed>0.18601075237738274</speed>
  <fix>3d</fix>
</trkpt>
<trkpt lat="40.072842" lon="-105.230575">
  <ele>1586.09</ele>
  <time>2026-08-27T18:24:46Z</time>
  <course>266.03</course>
  <speed>0.0</speed>
  <fix>3d</fix>
</trkpt>
<trkpt lat="40.0728472" lon="-105.23058">
  <ele>1586.18</ele>
  <time>2026-08-27T18:24:46Z</time>
  <course>8.67</course>
  <speed>0.2</speed>
  <fix>3d</fix>
</trkpt>
<trkpt lat="40.072842" lon="-105.230575">
  <ele>1586.09</ele>
  <time>2026-08-27T18:24:46Z</time>
  <course>266.03</course>
  <speed>0.0</speed>
  <fix>3d</fix>
</trkpt>
<trkpt lat="40.0728468" lon="-105.2305796">
  <ele>1586.17</ele>
  <time>2026-08-27T18:24:46Z</time>
  <course>8.67</course>
  <speed>0.18601075237738274</speed>
  <fix>3d</fix>
</trkpt>
<trkpt lat="40.072842" lon="-105.230575">
  <ele>1586.09</ele>
  <time>2026-08-27T18:24:46Z</time>
  <course>266.03</course>
  <speed>0.0</speed>
  <fix>3d</fix>
</trkpt>
<trkpt lat="40.0728466" lon="-105.2305794">
  <ele>1586.17</ele>
  <time>2026-08-27T18:24:46Z</time>
  <course>8.67</course>
  <speed>0.17804493814764857</speed>
  <fix>3d</fix>
</trkpt>
<trkpt lat="40.072842" lon="-105.230575">
  <ele>1586.09</ele>
  <time>2026-08-27T18:24:46Z</time>
  <course>266.03</course>
  <speed>0.0</speed>
  <fix>3d</fix>
</trkpt>
<trkpt lat="40.0728466" lon="-105.2305795">
  <ele>1586.16</ele>
  <time>2026-08-27T18:24:46Z</time>
  <course>8.67</course>
  <speed>0.18601075237738274</speed>
  <fix>3d</fix>
</trkpt>
<trkpt lat="40.072842" lon="-105.230575">
  <ele>1586.09</ele>
  <time>2026-08-27T18:24:46Z</time>
  <course>266.03</course>
  <speed>0.0</speed>
  <fix>3d</fix>
</trkpt>
<trkpt lat="40.0728421" lon="-105.2305751">
  <ele>1586.17</ele>
  <time>2026-08-27T18:24:46Z</time>
  <course>8.67</course>
  <speed>0.13601470508735444</speed>
  <fix>3d</fix>
</trkpt>
<trkpt lat="40.072842" lon="-105.230575">
  <ele>1586.09</ele>
  <time>2026-08-27T18:24:46Z</time>
  <course>266.03</course>
  <speed>0.0</speed>
  <fix>3d</fix>
</trkpt>
<trkpt lat="40.0728421" lon="-105.2305751">
  <ele>1586.16</ele>
  <time>2026-08-27T18:24:46Z</time>
  <course>8.67</course>
  <speed>0.07211102550927978</speed>
  <fix>3d</fix>
</trkpt>
<trkpt lat="40.072842" lon="-105.230575">
  <ele>1586.09</ele>
  <time>2026-08-27T18:24:46Z</time>
  <course>293.31</course>
  <speed>0.0</speed>
  <fix>3d</fix>
</trkpt>
<trkpt lat="40.072842" lon="-105.230575">
  <ele>1586.16</ele>
  <time>2026-08-27T18:24:46Z</time>
  <course>8.67</course>
  <speed>0.03605551275463989</speed>
  <fix>3d</fix>
</trkpt>
<trkpt lat="40.072842" lon="-105.230575">
  <ele>1586.09</ele>
  <time>2026-08-27T18:24:46Z</time>
  <course>303.26</course>
  <speed>0.0</speed>
  <fix>3d</fix>
</trkpt>
<trkpt lat="40.072842" lon="-105.230575">
  <ele>1586.16</ele>
  <time>2026-08-27T18:24:46Z</time>
  <course>8.67</course>
  <speed>0.022360679774997897</speed>
  <fix>3d</fix>
</trkpt>
<trkpt lat="40.072842" lon="-105.230575">
  <ele>1586.09</ele>
  <time>2026-08-27T18:24:46Z</time>
  <course>298.77</course>
  <speed>0.0</speed>
  <fix>3d</fix>
</trkpt>
<trkpt lat="40.0728419" lon="-105.2305749">
  <ele>1586.15</ele>
  <time>2026-08-27T18:24:46Z</time>
  <course>8.67</course>
  <speed>0.01</speed>
  <fix>3d</fix>
</trkpt>
<trkpt lat="40.072842" lon="-105.230575">
  <ele>1586.09</ele>
  <time>2026-08-27T18:24:46Z</time>
  <course>200.7</course>
  <speed>0.0</speed>
  <fix>3d</fix>
</trkpt>
<trkpt lat="40.0728419" lon="-105.2305749">
  <ele>1586.15</ele>
  <time>2026-08-27T18:24:46Z</time>
  <course>8.67</course>
  <speed>0.0</speed>
  <fix>3d</fix>
</trkpt>
<trkpt lat="40.072842" lon="-105.230575">
  <ele>1586.09</ele>
  <time>2026-08-27T18:24:46Z</time>
  <course>119.32</course>
  <speed>0.0</speed>
  <fix>3d</fix>
</trkpt>
<trkpt lat="40.0728419" lon="-105.2305749">
  <ele>1586.16</ele>
  <time>2026-08-27T18:24:46Z</time>
  <course>8.67</course>
  <speed>0.0</speed>
  <fix>3d</fix>
</trkpt>
<trkpt lat="40.072842" lon="-105.230575">
  <ele>1586.09</ele>
  <time>2026-08-27T18:24:46Z</time>
  <course>296.56</course>
  <speed>0.0</speed>
  <fix>3d</fix>
</trkpt>
<trkpt lat="40.0728419" lon="-105.2305749">
  <ele>1586.15</ele>
  <time>2026-08-27T18:24:46Z</time>
  <course>8.67</course>
  <speed>0.0</speed>
  <fix>3d</fix>
</trkpt>
<trkpt lat="40.072842" lon="-105.230575">
  <ele>1586.09</ele>
  <time>2026-08-27T18:24:46Z</time>
  <course>287.31</course>
  <speed>0.0</speed>
  <fix>3d</fix>
</trkpt>
<trkpt lat="40.072842" lon="-105.230575">
  <ele>1586.15</ele>
  <time>2026-08-27T18:24:46Z</time>
  <course>8.67</course>
  <speed>0.0</speed>
  <fix>3d</fix>
</trkpt>
<trkpt lat="40.072842" lon="-105.230575">
  <ele>1586.09</ele>
  <time>2026-08-27T18:24:46Z</time>
  <course>283.72</course>
  <speed>0.0</speed>
  <fix>3d</fix>
</trkpt>
<trkpt lat="40.072842" lon="-105.230575">
  <ele>1586.15</ele>
  <time>2026-08-27T18:24:46Z</time>
  <course>8.67</course>
  <speed>0.0</speed>
  <fix>3d</fix>
</trkpt>
<trkpt lat="40.072842" lon="-105.230575">
  <ele>1586.09</ele>
  <time>2026-08-27T18:24:46Z</time>
  <course>286.26</course>
  <speed>0.0</speed>
  <fix>3d</fix>
</trkpt>
<trkpt lat="40.072842" lon="-105.230575">
  <ele>1586.15</ele>
  <time>2026-08-27T18:24:46Z</time>
  <course>8.67</course>
  <speed>0.01</speed>
  <fix>3d</fix>
</trkpt>
<trkpt lat="40.072842" lon="-105.230575">
  <ele>1586.09</ele>
  <time>2026-08-27T18:24:46Z</time>
  <course>286.48</course>
  <speed>0.0</speed>
  <fix>3d</fix>
</trkpt>
<trkpt lat="40.072842" lon="-105.230575">
  <ele>1586.14</ele>
  <time>2026-08-27T18:24:46Z</time>
  <course>8.67</course>
  <speed>0.01</speed>
  <fix>3d</fix>
</trkpt>
<trkpt lat="40.072842" lon="-105.230575">
  <ele>1586.09</ele>
  <time>2026-08-27T18:24:46Z</time>
  <course>286.15</course>
  <speed>0.0</speed>
  <fix>3d</fix>
</trkpt>
<trkpt lat="40.072842" lon="-105.230575">
  <ele>1586.14</ele>
  <time>2026-08-27T18:24:46Z</time>
  <course>8.67</course>
  <speed>0.01414213562373095</speed>
  <fix>3d</fix>
</trkpt>
<trkpt lat="40.072842" lon="-105.230575">
  <ele>1586.09</ele>
  <time>2026-08-27T18:24:46Z</time>
  <course>286.16</course>
  <speed>0.0</speed>
  <fix>3d</fix>
</trkpt>
<trkpt lat="40.0728421" lon="-105.2305751">
  <ele>1586.13</ele>
  <time>2026-08-27T18:24:46Z</time>
  <course>8.67</course>
  <speed>0.01414213562373095</speed>
  <fix>3d</fix>
</trkpt>
<trkpt lat="40.072842" lon="-105.230575">
  <ele>1586.09</ele>
  <time>2026-08-27T18:24:46Z</time>
  <course>286.2</course>
  <speed>0.0</speed>
  <fix>3d</fix>
</trkpt>
<trkpt lat="40.0728421" lon="-105.2305751">
  <ele>1586.13</ele>
  <time>2026-08-27T18:24:46Z</time>
  <course>8.67</course>
  <speed>0.01414213562373095</speed>
  <fix>3d</fix>
</trkpt>
<trkpt lat="40.072842" lon="-105.230575">
  <ele>1586.09</ele>
  <time>2026-08-27T18:24:46Z</time>
  <course>286.19</course>
  <speed>0.0</speed>
  <fix>3d</fix>
</trkpt>
<trkpt lat="40.0728421" lon="-105.2305751">
  <ele>1586.14</ele>
  <time>2026-08-27T18:24:46Z</time>
  <course>8.67</course>
  <speed>0.01414213562373095</speed>
  <fix>3d</fix>
</trkpt>
<trkpt lat="40.072842" lon="-105.230575">
  <ele>1586.09</ele>
  <time>2026-08-27T18:24:46Z</time>
  <course>286.19</course>
  <speed>0.0</speed>
  <fix>3d</fix>
</trkpt>
<trkpt lat="40.0728421" lon="-105.2305751">
  <ele>1586.14</ele>
  <time>2026-08-27T18:24:46Z</time>
  <course>8.67</course>
  <speed>0.01414213562373095</speed>
  <fix>3d</fix>
</trkpt>
<trkpt lat="40.072842" lon="-105.230575">
  <ele>1586.09</ele>
  <time>2026-08-27T18:24:46Z</time>
  <course>286.19</course>
  <speed>0.0</speed>
  <fix>3d</fix>
</trkpt>
<trkpt lat="40.0728421" lon="-105.2305751">
  <ele>1586.14</ele>
  <time>2026-08-27T18:24:46Z</time>
  <course>8.67</course>
  <speed>0.01414213562373095</speed>
  <fix>3d</fix>
</trkpt>
<trkpt lat="40.072842" lon="-105.230575">
  <ele>1586.09</ele>
  <time>2026-08-27T18:24:46Z</time>
  <course>286.19</course>
  <speed>0.0</speed>
  <fix>3d</fix>
</trkpt>
<trkpt lat="40.0728421" lon="-105.2305751">
  <ele>1586.14</ele>
  <time>2026-08-27T18:24:46Z</time>
  <course>8.67</course>
  <speed>0.01414213562373095</speed>
  <fix>3d</fix>
</trkpt>
<trkpt lat="40.072842" lon="-105.230575">
  <ele>1586.09</ele>
  <time>2026-08-27T18:24:46Z</time>
  <course>286.19</course>
  <speed>0.0</speed>
  <fix>3d</fix>
</trkpt>
<trkpt lat="40.0728421" lon="-105.2305751">
  <ele>1586.14</ele>
  <time>2026-08-27T18:24:46Z</time>
  <course>8.67</course>
  <speed>0.01414213562373095</speed>
  <fix>3d</fix>
</trkpt>
<trkpt lat="40.072842" lon="-105.230575">
  <ele>1586.09</ele>
  <time>2026-08-27T18:24:46Z</time>
  <course>306.08</course>
  <speed>0.0</speed>
  <fix>3d</fix>
</trkpt>
<trkpt lat="40.0728421" lon="-105.2305751">
  <ele>1586.14</ele>
  <time>2026-08-27T18:24:46Z</time>
  <course>8.67</course>
  <speed>0.022360679774997897</speed>
  <fix>3d</fix>
</trkpt>
<trkpt lat="40.072842" lon="-105.230575">
  <ele>1586.09</ele>
  <time>2026-08-27T18:24:46Z</time>
  <course>297.89</course>
  <speed>0.0</speed>
  <fix>3d</fix>
</trkpt>
<trkpt lat="40.0728421" lon="-105.2305751">
  <ele>1586.14</ele>
  <time>2026-08-27T18:24:46Z</time>
  <course>8.67</course>
  <speed>0.022360679774997897</speed>
  <fix>3d</fix>
</trkpt>
<trkpt lat="40.072842" lon="-105.230575">
  <ele>1586.09</ele>
  <time>2026-08-27T18:24:46Z</time>
  <course>280.82</course>
  <speed>0.0</speed>
  <fix>3d</fix>
</trkpt>
<trkpt lat="40.0728421" lon="-105.2305751">
  <ele>1586.14</ele>
  <time>2026-08-27T18:24:46Z</time>
  <course>8.67</course>
  <speed>0.022360679774997897</speed>
  <fix>3d</fix>
</trkpt>
<trkpt lat="40.072842" lon="-105.230575">
  <ele>1586.09</ele>
  <time>2026-08-27T18:24:46Z</time>
  <course>285.06</course>
  <speed>0.0</speed>
  <fix>3d</fix>
</trkpt>
<trkpt lat="40.0728421" lon="-105.2305751">
  <ele>1586.14</ele>
  <time>2026-08-27T18:24:46Z</time>
  <course>8.67</course>
  <speed>0.022360679774997897</speed>
  <fix>3d</fix>
</trkpt>
<trkpt lat="40.072842" lon="-105.230575">
  <ele>1586.09</ele>
  <time>2026-08-27T18:24:46Z</time>
  <course>287.19</course>
  <speed>0.0</speed>
  <fix>3d</fix>
</trkpt>
<trkpt lat="40.0728421" lon="-105.2305751">
  <ele>1586.13</ele>
  <time>2026-08-27T18:24:46Z</time>
  <course>8.67</course>
  <speed>0.022360679774997897</speed>
  <fix>3d</fix>
</trkpt>
<trkpt lat="40.072842" lon="-105.230575">
  <ele>1586.09</ele>
  <time>2026-08-27T18:24:46Z</time>
  <course>286.22</course>
  <speed>0.0</speed>
  <fix>3d</fix>
</trkpt>
<trkpt lat="40.0728421" lon="-105.2305751">
  <ele>1586.13</ele>
  <time>2026-08-27T18:24:46Z</time>
  <course>8.67</course>
  <speed>0.022360679774997897</speed>
  <fix>3d</fix>
</trkpt>
<trkpt lat="40.072842" lon="-105.230575">
  <ele>1586.09</ele>
  <time>2026-08-27T18:24:46Z</time>
  <course>286.06</course>
  <speed>0.0</speed>
  <fix>3d</fix>
</trkpt>
<trkpt lat="40.0728421" lon="-105.2305751">
  <ele>1586.13</ele>
  <time>2026-08-27T18:24:46Z</time>
  <course>8.67</course>
  <speed>0.022360679774997897</speed>
  <fix>3d</fix>
</trkpt>
<trkpt lat="40.072842" lon="-105.230575">
  <ele>1586.09</ele>
  <time>2026-08-27T18:24:46Z</time>
  <course>286.2</course>
  <speed>0.0</speed>
  <fix>3d</fix>
</trkpt>
<trkpt lat="40.0728421" lon="-105.2305751">
  <ele>1586.13</ele>
  <time>2026-08-27T18:24:46Z</time>
  <course>8.67</course>
  <speed>0.022360679774997897</speed>
  <fix>3d</fix>
</trkpt>
<trkpt lat="40.072842" lon="-105.230575">
  <ele>1586.09</ele>
  <time>2026-08-27T18:24:46Z</time>
  <course>286.21</course>
  <speed>0.0</speed>
  <fix>3d</fix>
</trkpt>
<trkpt lat="40.0728421" lon="-105.2305751">
  <ele>1586.13</ele>
  <time>2026-08-27T18:24:46Z</time>
  <course>8.68</course>
  <speed>0.022360679774997897</speed>
  <fix>3d</fix>
</trkpt>
<trkpt lat="40.072842" lon="-105.230575">
  <ele>1586.09</ele>
  <time>2026-08-27T18:24:46Z</time>
  <course>286.19</course>
  <speed>0.0</speed>
  <fix>3d</fix>
</trkpt>
<trkpt lat="40.0728421" lon="-105.2305751">
  <ele>1586.14</ele>
  <time>2026-08-27T18:24:46Z</time>
  <course>8.68</course>
  <speed>0.022360679774997897</speed>
  <fix>3d</fix>
</trkpt>
<trkpt lat="40.072842" lon="-105.230575">
  <ele>1586.09</ele>
  <time>2026-08-27T18:24:46Z</time>
  <course>286.19</course>
  <speed>0.0</speed>
  <fix>3d</fix>
</trkpt>
<trkpt lat="40.0728421" lon="-105.2305751">
  <ele>1586.14</ele>
  <time>2026-08-27T18:24:46Z</time>
  <course>8.68</course>
  <speed>0.022360679774997897</speed>
  <fix>3d</fix>
</trkpt>
<trkpt lat="40.072842" lon="-105.230575">
  <ele>1586.09</ele>
  <time>2026-08-27T18:24:46Z</time>
  <course>310.29</course>
  <speed>0.0</speed>
  <fix>3d</fix>
</trkpt>
<trkpt lat="40.0728421" lon="-105.2305751">
  <ele>1586.15</ele>
  <time>2026-08-27T18:24:46Z</time>
  <course>8.68</course>
  <speed>0.022360679774997897</speed>
  <fix>3d</fix>
</trkpt>
<trkpt lat="40.072842" lon="-105.230575">
  <ele>1586.09</ele>
  <time>2026-08-27T18:24:46Z</time>
  <course>300.6</course>
  <speed>0.0</speed>
  <fix>3d</fix>
</trkpt>
<trkpt lat="40.0728421" lon="-105.2305751">
  <ele>1586.15</ele>
  <time>2026-08-27T18:24:46Z</time>
  <course>8.68</course>
  <speed>0.01414213562373095</speed>
  <fix>3d</fix>
</trkpt>
<trkpt lat="40.072842" lon="-105.230575">
  <ele>1586.09</ele>
  <time>2026-08-27T18:24:46Z</time>
  <course>148.1</course>
  <speed>0.0</speed>
  <fix>3d</fix>
</trkpt>
<trkpt lat="40.0728421" lon="-105.2305751">
  <ele>1586.15</ele>
  <time>2026-08-27T18:24:46Z</time>
  <course>8.68</course>
  <speed>0.01414213562373095</speed>
  <fix>3d</fix>
</trkpt>
<trkpt lat="40.072842" lon="-105.230575">
  <ele>1586.09</ele>
  <time>2026-08-27T18:24:46Z</time>
  <course>109.26</course>
  <speed>0.0</speed>
  <fix>3d</fix>
</trkpt>
<trkpt lat="40.0728421" lon="-105.2305751">
  <ele>1586.16</ele>
  <time>2026-08-27T18:24:46Z</time>
  <course>8.68</course>
  <speed>0.01414213562373095</speed>
  <fix>3d</fix>
</trkpt>
<trkpt lat="40.072842" lon="-105.230575">
  <ele>1586.09</ele>
  <time>2026-08-27T18:24:46Z</time>
  <course>100.25</course>
  <speed>0.0</speed>
  <fix>3d</fix>
</trkpt>
<trkpt lat="40.0728421" lon="-105.2305751">
  <ele>1586.16</ele>
  <time>2026-08-27T18:24:46Z</time>
  <course>8.68</course>
  <speed>0.01414213562373095</speed>
  <fix>3d</fix>
</trkpt>
<trkpt lat="40.072842" lon="-105.230575">
  <ele>1586.09</ele>
  <time>2026-08-27T18:24:46Z</time>
  <course>106.54</course>
  <speed>0.0</speed>
  <fix>3d</fix>
</trkpt>
<trkpt lat="40.0728421" lon="-105.2305751">
  <ele>1586.17</ele>
  <time>2026-08-27T18:24:46Z</time>
  <course>8.68</course>
  <speed>0.01414213562373095</speed>
  <fix>3d</fix>
</trkpt>
<trkpt lat="40.072842" lon="-105.230575">
  <ele>1586.09</ele>
  <time>2026-08-27T18:24:46Z</time>
  <course>112.74</course>
  <speed>0.0</speed>
  <fix>3d</fix>
</trkpt>
<trkpt lat="40.0728421" lon="-105.2305751">
  <ele>1586.17</ele>
  <time>2026-08-27T18:24:46Z</time>
  <course>8.68</course>
  <speed>0.01414213562373095</speed>
  <fix>3d</fix>
</trkpt>
<trkpt lat="40.072842" lon="-105.230575">
  <ele>1586.09</ele>
  <time>2026-08-27T18:24:46Z</time>
  <course>277.51</course>
  <speed>0.0</speed>
  <fix>3d</fix>
</trkpt>
<trkpt lat="40.0728421" lon="-105.2305751">
  <ele>1586.17</ele>
  <time>2026-08-27T18:24:46Z</time>
  <course>8.68</course>
  <speed>0.01414213562373095</speed>
  <fix>3d</fix>
</trkpt>
<trkpt lat="40.072842" lon="-105.230575">
  <ele>1586.09</ele>
  <time>2026-08-27T18:24:46Z</time>
  <course>274.88</course>
  <speed>0.0</speed>
  <fix>3d</fix>
</trkpt>
<trkpt lat="40.0728421" lon="-105.2305751">
  <ele>1586.17</ele>
  <time>2026-08-27T18:24:46Z</time>
  <course>8.68</course>
  <speed>0.01414213562373095</speed>
  <fix>3d</fix>
</trkpt>
<trkpt lat="40.072842" lon="-105.230575">
  <ele>1586.09</ele>
  <time>2026-08-27T18:24:46Z</time>
  <course>275.39</course>
  <speed>0.0</speed>
  <fix>3d</fix>
</trkpt>
<trkpt lat="40.0728421" lon="-105.2305751">
  <ele>1586.17</ele>
  <time>2026-08-27T18:24:46Z</time>
  <course>8.68</course>
  <speed>0.01414213562373095</speed>
  <fix>3d</fix>
</trkpt>
<trkpt lat="40.072842" lon="-105.230575">
  <ele>1586.09</ele>
  <time>2026-08-27T18:24:46Z</time>
  <course>314.89</course>
  <speed>0.0</speed>
  <fix>3d</fix>
</trkpt>
<trkpt lat="40.0728421" lon="-105.2305751">
  <ele>1586.17</ele>
  <time>2026-08-27T18:24:46Z</time>
  <course>8.68</course>
  <speed>0.01414213562373095</speed>
  <fix>3d</fix>
</trkpt>
<trkpt lat="40.072842" lon="-105.230575">
  <ele>1586.09</ele>
  <time>2026-08-27T18:24:46Z</time>
  <course>48.73</course>
  <speed>0.0</speed>
  <fix>3d</fix>
</trkpt>
<trkpt lat="40.0728421" lon="-105.2305751">
  <ele>1586.17</ele>
  <time>2026-08-27T18:24:46Z</time>
  <course>8.68</course>
  <speed>0.01414213562373095</speed>
  <fix>3d</fix>
</trkpt>
<trkpt lat="40.072842" lon="-105.230575">
  <ele>1586.09</ele>
  <time>2026-08-27T18:24:46Z</time>
  <course>134.0</course>
  <speed>0.0</speed>
  <fix>3d</fix>
</trkpt>
<trkpt lat="40.0728421" lon="-105.2305751">
  <ele>1586.17</ele>
  <time>2026-08-27T18:24:46Z</time>
  <course>8.68</course>
  <speed>0.01414213562373095</speed>
  <fix>3d</fix>
</trkpt>
<trkpt lat="40.072842" lon="-105.230575">
  <ele>1586.09</ele>
  <time>2026-08-27T18:24:46Z</time>
  <course>128.67</course>
  <speed>0.0</speed>
  <fix>3d</fix>
</trkpt>
<trkpt lat="40.0728421" lon="-105.2305751">
  <ele>1586.16</ele>
  <time>2026-08-27T18:24:46Z</time>
  <course>8.69</course>
  <speed>0.01414213562373095</speed>
  <fix>3d</fix>
</trkpt>
<trkpt lat="40.072842" lon="-105.230575">
  <ele>1586.09</ele>
  <time>2026-08-27T18:24:46Z</time>
  <course>50.6</course>
  <speed>0.0</speed>
  <fix>3d</fix>
</trkpt>
<trkpt lat="40.0728421" lon="-105.2305751">
  <ele>1586.16</ele>
  <time>2026-08-27T18:24:46Z</time>
  <course>8.69</course>
  <speed>0.01414213562373095</speed>
  <fix>3d</fix>
</trkpt>
<trkpt lat="40.072842" lon="-105.230575">
  <ele>1586.09</ele>
  <time>2026-08-27T18:24:46Z</time>
  <course>282.0</course>
  <speed>0.0</speed>
  <fix>3d</fix>
</trkpt>
<trkpt lat="40.0728421" lon="-105.2305751">
  <ele>1586.16</ele>
  <time>2026-08-27T18:24:46Z</time>
  <course>8.69</course>
  <speed>0.01414213562373095</speed>
  <fix>3d</fix>
</trkpt>
<trkpt lat="40.072842" lon="-105.230575">
  <ele>1586.09</ele>
  <time>2026-08-27T18:24:46Z</time>
  <course>274.6</course>
  <speed>0.0</speed>
  <fix>3d</fix>
</trkpt>
<trkpt lat="40.0728421" lon="-105.2305751">
  <ele>1586.16</ele>
  <time>2026-08-27T18:24:46Z</time>
  <course>8.69</course>
  <speed>0.01414213562373095</speed>
  <fix>3d</fix>
</trkpt>
<trkpt lat="40.072842" lon="-105.230575">
  <ele>1586.09</ele>
  <time>2026-08-27T18:24:46Z</time>
  <course>289.57</course>
  <speed>0.0</speed>
  <fix>3d</fix>
</trkpt>
<trkpt lat="40.0728421" lon="-105.2305751">
  <ele>1586.15</ele>
  <time>2026-08-27T18:24:46Z</time>
  <course>8.69</course>
  <speed>0.01414213562373095</speed>
  <fix>3d</fix>
</trkpt>
<trkpt lat="40.072842" lon="-105.230575">
  <ele>1586.09</ele>
  <time>2026-08-27T18:24:46Z</time>
  <course>287.74</course>
  <speed>0.0</speed>
  <fix>3d</fix>
</trkpt>
<trkpt lat="40.0728421" lon="-105.2305751">
  <ele>1586.15</ele>
  <time>2026-08-27T18:24:46Z</time>
  <course>8.69</course>
  <speed>0.01414213562373095</speed>
  <fix>3d</fix>
</trkpt>
<trkpt lat="40.072842" lon="-105.230575">
  <ele>1586.09</ele>
  <time>2026-08-27T18:24:46Z</time>
  <course>285.65</course>
  <speed>0.0</speed>
  <fix>3d</fix>
</trkpt>
<trkpt lat="40.0728421" lon="-105.2305751">
  <ele>1586.15</ele>
  <time>2026-08-27T18:24:46Z</time>
  <course>8.69</course>
  <speed>0.01414213562373095</speed>
  <fix>3d</fix>
</trkpt>
<trkpt lat="40.072842" lon="-105.230575">
  <ele>1586.09</ele>
  <time>2026-08-27T18:24:46Z</time>
  <course>286.05</course>
  <speed>0.0</speed>
  <fix>3d</fix>
</trkpt>
<trkpt lat="40.0728421" lon="-105.2305751">
  <ele>1586.15</ele>
  <time>2026-08-27T18:24:46Z</time>
  <course>8.69</course>
  <speed>0.01414213562373095</speed>
  <fix>3d</fix>
</trkpt>
<trkpt lat="40.072842" lon="-105.230575">
  <ele>1586.09</ele>
  <time>2026-08-27T18:24:46Z</time>
  <course>286.28</course>
  <speed>0.0</speed>
  <fix>3d</fix>
</trkpt>
<trkpt lat="40.0728421" lon="-105.2305751">
  <ele>1586.15</ele>
  <time>2026-08-27T18:24:46Z</time>
  <course>8.69</course>
  <speed>0.01414213562373095</speed>
  <fix>3d</fix>
</trkpt>
<trkpt lat="40.072842" lon="-105.230575">
  <ele>1586.09</ele>
  <time>2026-08-27T18:24:46Z</time>
  <course>286.2</course>
  <speed>0.0</speed>
  <fix>3d</fix>
</trkpt>
<trkpt lat="40.0728421" lon="-105.2305751">
  <ele>1586.16</ele>
  <time>2026-08-27T18:24:46Z</time>
  <course>8.69</course>
  <speed>0.01414213562373095</speed>
  <fix>3d</fix>
</trkpt>
<trkpt lat="40.072842" lon="-105.230575">
  <ele>1586.09</ele>
  <time>2026-08-27T18:24:46Z</time>
  <course>286.18</course>
  <speed>0.0</speed>
  <fix>3d</fix>
</trkpt>
<trkpt lat="40.0728421" lon="-105.2305751">
  <ele>1586.16</ele>
  <time>2026-08-27T18:24:46Z</time>
  <course>8.69</course>
  <speed>0.01414213562373095</speed>
  <fix>3d</fix>
</trkpt>
<trkpt lat="40.072842" lon="-105.230575">
  <ele>1586.09</ele>
  <time>2026-08-27T18:24:46Z</time>
  <course>286.19</course>
  <speed>0.0</speed>
  <fix>3d</fix>
</trkpt>
<trkpt lat="40.0728421" lon="-105.2305751">
  <ele>1586.16</ele>
  <time>2026-08-27T18:24:46Z</time>
  <course>8.69</course>
  <speed>0.01414213562373095</speed>
  <fix>3d</fix>
</trkpt>
<trkpt lat="40.072842" lon="-105.230575">
  <ele>1586.09</ele>
  <time>2026-08-27T18:24:46Z</time>
  <course>286.19</course>
  <speed>0.0</speed>
  <fix>3d</fix>
</trkpt>
<trkpt lat="40.0728421" lon="-105.2305751">
  <ele>1586.15</ele>
  <time>2026-08-27T18:24:46Z</time>
  <course>8.69</course>
  <speed>0.01414213562373095</speed>
  <fix>3d</fix>
</trkpt>
<trkpt lat="40.072842" lon="-105.230575">
  <ele>1586.09</ele>
  <time>2026-08-27T18:24:46Z</time>
  <course>286.19</course>
  <speed>0.0</speed>
  <fix>3d</fix>
</trkpt>
<trkpt lat="40.0728421" lon="-105.2305751">
  <ele>1586.15</ele>
  <time>2026-08-27T18:24:46Z</time>
  <course>8.69</course>
  <speed>0.01414213562373095</speed>
  <fix>3d</fix>
</trkpt>
<trkpt lat="40.072842" lon="-105.230575">
  <ele>1586.09</ele>
  <time>2026-08-27T18:24:46Z</time>
  <course>286.19</course>
  <speed>0.0</speed>
  <fix>3d</fix>
</trkpt>
<trkpt lat="40.0728421" lon="-105.2305751">
  <ele>1586.15</ele>
  <time>2026-08-27T18:24:46Z</time>
  <course>8.69</course>
  <speed>0.01414213562373095</speed>
  <fix>3d</fix>
</trkpt>
<trkpt lat="40.072842" lon="-105.230575">
  <ele>1586.09</ele>
  <time>2026-08-27T18:24:46Z</time>
  <course>286.19</course>
  <speed>0.0</speed>
  <fix>3d</fix>
</trkpt>
<trkpt lat="40.0728421" lon="-105.2305751">
  <ele>1586.15</ele>
  <time>2026-08-27T18:24:46Z</time>
  <course>8.69</course>
  <speed>0.01414213562373095</speed>
  <fix>3d</fix>
</trkpt>
<trkpt lat="40.072842" lon="-105.230575">
  <ele>1586.09</ele>
  <time>2026-08-27T18:24:46Z</time>
  <course>286.19</course>
  <speed>0.0</speed>
  <fix>3d</fix>
</trkpt>
<trkpt lat="40.0728421" lon="-105.2305751">
  <ele>1586.15</ele>
  <time>2026-08-27T18:24:46Z</time>
  <course>8.7</course>
  <speed>0.01414213562373095</speed>
  <fix>3d</fix>
</trkpt>
<trkpt lat="40.072842" lon="-105.230575">
  <ele>1586.09</ele>
  <time>2026-08-27T18:24:46Z</time>
  <course>286.19</course>
  <speed>0.0</speed>
  <fix>3d</fix>
</trkpt>
<trkpt lat="40.0728421" lon="-105.2305751">
  <ele>1586.15</ele>
  <time>2026-08-27T18:24:46Z</time>
  <course>8.7</course>
  <speed>0.01414213562373095</speed>
  <fix>3d</fix>
</trkpt>
<trkpt lat="40.072842" lon="-105.230575">
  <ele>1586.09</ele>
  <time>2026-08-27T18:24:46Z</time>
  <course>286.19</course>
  <speed>0.0</speed>
  <fix>3d</fix>
</trkpt>
<trkpt lat="40.0728421" lon="-105.2305751">
  <ele>1586.15</ele>
  <time>2026-08-27T18:24:46Z</time>
  <course>8.7</course>
  <speed>0.01414213562373095</speed>
  <fix>3d</fix>
</trkpt>
<trkpt lat="40.072842" lon="-105.230575">
  <ele>1586.09</ele>
  <time>2026-08-27T18:24:46Z</time>
  <course>286.19</course>
  <speed>0.0</speed>
  <fix>3d</fix>
</trkpt>
<trkpt lat="40.0728421" lon="-105.2305751">
  <ele>1586.15</ele>
  <time>2026-08-27T18:24:46Z</time>
  <course>8.7</course>
  <speed>0.01414213562373095</speed>
  <fix>3d</fix>
</trkpt>
<trkpt lat="40.072842" lon="-105.230575">
  <ele>1586.09</ele>
  <time>2026-08-27T18:24:46Z</time>
  <course>286.19</course>
  <speed>0.0</speed>
  <fix>3d</fix>
</trkpt>
<trkpt lat="40.0728421" lon="-105.2305751">
  <ele>1586.15</ele>
  <time>2026-08-27T18:24:46Z</time>
  <course>8.7</course>
  <speed>0.01414213562373095</speed>
  <fix>3d</fix>
</trkpt>
<trkpt lat="40.072842" lon="-105.230575">
  <ele>1586.09</ele>
  <time>2026-08-27T18:24:46Z</time>
  <course>286.19</course>
  <speed>0.0</speed>
  <fix>3d</fix>
</trkpt>
<trkpt lat="40.0728421" lon="-105.2305751">
  <ele>1586.15</ele>
  <time>2026-08-27T18:24:46Z</time>
  <course>8.7</course>
  <speed>0.01414213562373095</speed>
  <fix>3d</fix>
</trkpt>
<trkpt lat="40.072842" lon="-105.230575">
  <ele>1586.09</ele>
  <time>2026-08-27T18:24:46Z</time>
  <course>286.19</course>
  <speed>0.0</speed>
  <fix>3d</fix>
</trkpt>
<trkpt lat="40.0728421" lon="-105.2305751">
  <ele>1586.15</ele>
  <time>2026-08-27T18:24:46Z</time>
  <course>8.7</course>
  <speed>0.01414213562373095</speed>
  <fix>3d</fix>
</trkpt>
<trkpt lat="40.072842" lon="-105.230575">
  <ele>1586.09</ele>
  <time>2026-08-27T18:24:46Z</time>
  <course>286.19</course>
  <speed>0.0</speed>
  <fix>3d</fix>
</trkpt>
<trkpt lat="40.0728421" lon="-105.2305751">
  <ele>1586.15</ele>
  <time>2026-08-27T18:24:47Z</time>
  <course>8.7</course>
  <speed>0.01414213562373095</speed>
  <fix>3d</fix>
</trkpt>
<trkpt lat="40.072842" lon="-105.230575">
  <ele>1586.09</ele>
  <time>2026-08-27T18:24:47Z</time>
  <course>286.19</course>
  <speed>0.0</speed>
  <fix>3d</fix>
</trkpt>
<trkpt lat="40.0728421" lon="-105.2305751">
  <ele>1586.14</ele>
  <time>2026-08-27T18:24:47Z</time>
  <course>8.7</course>
  <speed>0.01414213562373095</speed>
  <fix>3d</fix>
</trkpt>
<trkpt lat="40.072842" lon="-105.230575">
  <ele>1586.09</ele>
  <time>2026-08-27T18:24:47Z</time>
  <course>286.19</course>
  <speed>0.0</speed>
  <fix>3d</fix>
</trkpt>
<trkpt lat="40.0728421" lon="-105.2305751">
  <ele>1586.14</ele>
  <time>2026-08-27T18:24:47Z</time>
  <course>8.7</course>
  <speed>0.01414213562373095</speed>
  <fix>3d</fix>
</trkpt>
<trkpt lat="40.072842" lon="-105.230575">
  <ele>1586.09</ele>
  <time>2026-08-27T18:24:47Z</time>
  <course>286.19</course>
  <speed>0.0</speed>
  <fix>3d</fix>
</trkpt>
<trkpt lat="40.0728421" lon="-105.2305751">
  <ele>1586.14</ele>
  <time>2026-08-27T18:24:47Z</time>
  <course>8.7</course>
  <speed>0.01414213562373095</speed>
  <fix>3d</fix>
</trkpt>
<trkpt lat="40.072842" lon="-105.230575">
  <ele>1586.09</ele>
  <time>2026-08-27T18:24:47Z</time>
  <course>286.19</course>
  <speed>0.0</speed>
  <fix>3d</fix>
</trkpt>
<trkpt lat="40.0728421" lon="-105.2305751">
  <ele>1586.14</ele>
  <time>2026-08-27T18:24:47Z</time>
  <course>8.7</course>
  <speed>0.01414213562373095</speed>
  <fix>3d</fix>
</trkpt>
<trkpt lat="40.072842" lon="-105.230575">
  <ele>1586.09</ele>
  <time>2026-08-27T18:24:47Z</time>
  <course>286.19</course>
  <speed>0.0</speed>
  <fix>3d</fix>
</trkpt>
<trkpt lat="40.0728421" lon="-105.2305751">
  <ele>1586.14</ele>
  <time>2026-08-27T18:24:47Z</time>
  <course>8.71</course>
  <speed>0.01414213562373095</speed>
  <fix>3d</fix>
</trkpt>
<trkpt lat="40.072842" lon="-105.230575">
  <ele>1586.09</ele>
  <time>2026-08-27T18:24:47Z</time>
  <course>286.19</course>
  <speed>0.0</speed>
  <fix>3d</fix>
</trkpt>
<trkpt lat="40.0728421" lon="-105.2305751">
  <ele>1586.14</ele>
  <time>2026-08-27T18:24:47Z</time>
  <course>8.71</course>
  <speed>0.01414213562373095</speed>
  <fix>3d</fix>
</trkpt>
<trkpt lat="40.072842" lon="-105.230575">
  <ele>1586.09</ele>
  <time>2026-08-27T18:24:47Z</time>
  <course>286.19</course>
  <speed>0.0</speed>
  <fix>3d</fix>
</trkpt>
<trkpt lat="40.0728421" lon="-105.2305751">
  <ele>1586.14</ele>
  <time>2026-08-27T18:24:47Z</time>
  <course>8.71</course>
  <speed>0.01414213562373095</speed>
  <fix>3d</fix>
</trkpt>
<trkpt lat="40.072842" lon="-105.230575">
  <ele>1586.09</ele>
  <time>2026-08-27T18:24:47Z</time>
  <course>286.19</course>
  <speed>0.0</speed>
  <fix>3d</fix>
</trkpt>
<trkpt lat="40.0728421" lon="-105.2305751">
  <ele>1586.14</ele>
  <time>2026-08-27T18:24:47Z</time>
  <course>8.71</course>
  <speed>0.01414213562373095</speed>
  <fix>3d</fix>
</trkpt>
<trkpt lat="40.072842" lon="-105.230575">
  <ele>1586.09</ele>
  <time>2026-08-27T18:24:47Z</time>
  <course>286.19</course>
  <speed>0.0</speed>
  <fix>3d</fix>
</trkpt>
<trkpt lat="40.0728421" lon="-105.2305751">
  <ele>1586.14</ele>
  <time>2026-08-27T18:24:47Z</time>
  <course>8.71</course>
  <speed>0.01414213562373095</speed>
  <fix>3d</fix>
</trkpt>
<trkpt lat="40.072842" lon="-105.230575">
  <ele>1586.09</ele>
  <time>2026-08-27T18:24:47Z</time>
  <course>286.19</course>
  <speed>0.0</speed>
  <fix>3d</fix>
</trkpt>
<trkpt lat="40.0728421" lon="-105.2305751">
  <ele>1586.14</ele>
  <time>2026-08-27T18:24:47Z</time>
  <course>8.71</course>
  <speed>0.01414213562373095</speed>
  <fix>3d</fix>
</trkpt>
<trkpt lat="40.072842" lon="-105.230575">
  <ele>1586.09</ele>
  <time>2026-08-27T18:24:47Z</time>
  <course>286.19</course>
  <speed>0.0</speed>
  <fix>3d</fix>
</trkpt>
<trkpt lat="40.0728421" lon="-105.2305751">
  <ele>1586.14</ele>
  <time>2026-08-27T18:24:47Z</time>
  <course>8.71</course>
  <speed>0.01414213562373095</speed>
  <fix>3d</fix>
</trkpt>
<trkpt lat="40.072842" lon="-105.230575">
  <ele>1586.09</ele>
  <time>2026-08-27T18:24:47Z</time>
  <course>286.19</course>
  <speed>0.0</speed>
  <fix>3d</fix>
</trkpt>
<trkpt lat="40.0728421" lon="-105.2305751">
  <ele>1586.13</ele>
  <time>2026-08-27T18:24:47Z</time>
  <course>8.71</course>
  <speed>0.01414213562373095</speed>
  <fix>3d</fix>
</trkpt>
<trkpt lat="40.072842" lon="-105.230575">
  <ele>1586.09</ele>
  <time>2026-08-27T18:24:47Z</time>
  <course>286.19</course>
  <speed>0.0</speed>
  <fix>3d</fix>
</trkpt>
<trkpt lat="40.0728421" lon="-105.2305751">
  <ele>1586.13</ele>
  <time>2026-08-27T18:24:47Z</time>
  <course>8.71</course>
  <speed>0.01414213562373095</speed>
  <fix>3d</fix>
</trkpt>
<trkpt lat="40.072842" lon="-105.230575">
  <ele>1586.09</ele>
  <time>2026-08-27T18:24:47Z</time>
  <course>286.19</course>
  <speed>0.0</speed>
  <fix>3d</fix>
</trkpt>
<trkpt lat="39.654938" lon="-104.1331666">
  <ele>1569.54</ele>
  <time>2026-08-27T18:24:47Z</time>
  <course>168.11</course>
  <speed>0.0</speed>
  <fix>3d</fix>
</trkpt>
<trkpt lat="40.072842" lon="-105.230575">
  <ele>1586.09</ele>
  <time>2026-08-27T18:24:47Z</time>
  <course>2.03</course>
  <speed>0.0</speed>
  <fix>3d</fix>
</trkpt>
<trkpt lat="40.072842" lon="-105.230575">
  <ele>1586.09</ele>
  <time>2026-08-27T18:24:47Z</time>
  <course>238.4</course>
  <speed>0.0</speed>
  <fix>3d</fix>
</trkpt>
<trkpt lat="40.072842" lon="-105.230575">
  <ele>1586.09</ele>
  <time>2026-08-27T18:24:47Z</time>
  <course>2.43</course>
  <speed>0.0</speed>
  <fix>3d</fix>
</trkpt>
<trkpt lat="40.072842" lon="-105.230575">
  <ele>1586.09</ele>
  <time>2026-08-27T18:24:47Z</time>
  <course>194.29</course>
  <speed>0.0</speed>
  <fix>3d</fix>
</trkpt>
<trkpt lat="40.072842" lon="-105.230575">
  <ele>1586.09</ele>
  <time>2026-08-27T18:24:47Z</time>
  <course>3.17</course>
  <speed>0.0</speed>
  <fix>3d</fix>
</trkpt>
<trkpt lat="40.072842" lon="-105.230575">
  <ele>1586.09</ele>
  <time>2026-08-27T18:24:47Z</time>
  <course>193.66</course>
  <speed>0.0</speed>
  <fix>3d</fix>
</trkpt>
<trkpt lat="40.072842" lon="-105.230575">
  <ele>1586.09</ele>
  <time>2026-08-27T18:24:47Z</time>
  <course>3.85</course>
  <speed>0.0</speed>
  <fix>3d</fix>
</trkpt>
<trkpt lat="40.072842" lon="-105.230575">
  <ele>1586.09</ele>
  <time>2026-08-27T18:24:47Z</time>
  <course>303.54</course>
  <speed>0.0</speed>
  <fix>3d</fix>
</trkpt>
<trkpt lat="40.072842" lon="-105.230575">
  <ele>1586.09</ele>
  <time>2026-08-27T18:24:47Z</time>
  <course>4.48</course>
  <speed>0.0</speed>
  <fix>3d</fix>
</trkpt>
<trkpt lat="40.072842" lon="-105.230575">
  <ele>1586.09</ele>
  <time>2026-08-27T18:24:47Z</time>
  <course>110.94</course>
  <speed>0.0</speed>
  <fix>3d</fix>
</trkpt>
<trkpt lat="40.072842" lon="-105.230575">
  <ele>1586.09</ele>
  <time>2026-08-27T18:24:47Z</time>
  <course>5.06</course>
  <speed>0.0</speed>
  <fix>3d</fix>
</trkpt>
<trkpt lat="40.072842" lon="-105.230575">
  <ele>1586.09</ele>
  <time>2026-08-27T18:24:47Z</time>
  <course>191.21</course>
  <speed>0.0</speed>
  <fix>3d</fix>
</trkpt>
<trkpt lat="40.072842" lon="-105.230575">
  <ele>1586.09</ele>
  <time>2026-08-27T18:24:47Z</time>
  <course>5.62</course>
  <speed>0.0</speed>
  <fix>3d</fix>
</trkpt>
<trkpt lat="40.072842" lon="-105.230575">
  <ele>1586.09</ele>
  <time>2026-08-27T18:24:47Z</time>
  <course>252.23</course>
  <speed>0.0</speed>
  <fix>3d</fix>
</trkpt>
<trkpt lat="40.072842" lon="-105.230575">
  <ele>1586.09</ele>
  <time>2026-08-27T18:24:47Z</time>
  <course>6.15</course>
  <speed>0.0</speed>
  <fix>3d</fix>
</trkpt>
<trkpt lat="40.072842" lon="-105.230575">
  <ele>1586.09</ele>
  <time>2026-08-27T18:24:47Z</time>
  <course>170.36</course>
  <speed>0.0</speed>
  <fix>3d</fix>
</trkpt>
<trkpt lat="40.072842" lon="-105.230575">
  <ele>1586.09</ele>
  <time>2026-08-27T18:24:47Z</time>
  <course>6.65</course>
  <speed>0.0</speed>
  <fix>3d</fix>
</trkpt>
<trkpt lat="40.072842" lon="-105.230575">
  <ele>1586.09</ele>
  <time>2026-08-27T18:24:47Z</time>
  <course>179.36</course>
  <speed>0.0</speed>
  <fix>3d</fix>
</trkpt>
<trkpt lat="40.072842" lon="-105.230575">
  <ele>1586.09</ele>
  <time>2026-08-27T18:24:47Z</time>
  <course>7.11</course>
  <speed>0.0</speed>
  <fix>3d</fix>
</trkpt>
<trkpt lat="40.072842" lon="-105.230575">
  <ele>1586.09</ele>
  <time>2026-08-27T18:24:47Z</time>
  <course>19.98</course>
  <speed>0.0</speed>
  <fix>3d</fix>
</trkpt>
<trkpt lat="40.072842" lon="-105.230575">
  <ele>1586.09</ele>
  <time>2026-08-27T18:24:47Z</time>
  <course>7.53</course>
  <speed>0.0</speed>
  <fix>3d</fix>
</trkpt>
<trkpt lat="40.072842" lon="-105.230575">
  <ele>1586.09</ele>
  <time>2026-08-27T18:24:47Z</time>
  <course>17.49</course>
  <speed>0.0</speed>
  <fix>3d</fix>
</trkpt>
<trkpt lat="40.072842" lon="-105.230575">
  <ele>1586.09</ele>
  <time>2026-08-27T18:24:47Z</time>
  <course>7.92</course>
  <speed>0.0</speed>
  <fix>3d</fix>
</trkpt>
<trkpt lat="40.072842" lon="-105.230575">
  <ele>1586.09</ele>
  <time>2026-08-27T18:24:47Z</time>
  <course>356.19</course>
  <speed>0.0</speed>
  <fix>3d</fix>
</trkpt>
<trkpt lat="40.072842" lon="-105.230575">
  <ele>1586.09</ele>
  <time>2026-08-27T18:24:47Z</time>
  <course>8.29</course>
  <speed>0.0</speed>
  <fix>3d</fix>
</trkpt>
<trkpt lat="40.072842" lon="-105.230575">
  <ele>1586.09</ele>
  <time>2026-08-27T18:24:47Z</time>
  <course>77.32</course>
  <speed>0.0</speed>
  <fix>3d</fix>
</trkpt>
<trkpt lat="40.072842" lon="-105.230575">
  <ele>1586.09</ele>
  <time>2026-08-27T18:24:47Z</time>
  <course>8.63</course>
  <speed>0.0</speed>
  <fix>3d</fix>
</trkpt>
<trkpt lat="40.072842" lon="-105.230575">
  <ele>1586.09</ele>
  <time>2026-08-27T18:24:47Z</time>
  <course>290.54</course>
  <speed>0.0</speed>
  <fix>3d</fix>
</trkpt>
<trkpt lat="40.072842" lon="-105.230575">
  <ele>1586.09</ele>
  <time>2026-08-27T18:24:47Z</time>
  <course>8.94</course>
  <speed>0.0</speed>
  <fix>3d</fix>
</trkpt>
<trkpt lat="40.072842" lon="-105.230575">
  <ele>1586.09</ele>
  <time>2026-08-27T18:24:47Z</time>
  <course>338.69</course>
  <speed>0.0</speed>
  <fix>3d</fix>
</trkpt>
<trkpt lat="40.072842" lon="-105.230575">
  <ele>1586.09</ele>
  <time>2026-08-27T18:24:47Z</time>
  <course>9.23</course>
  <speed>0.0</speed>
  <fix>3d</fix>
</trkpt>
<trkpt lat="40.072842" lon="-105.230575">
  <ele>1586.09</ele>
  <time>2026-08-27T18:24:47Z</time>
  <course>326.81</course>
  <speed>0.0</speed>
  <fix>3d</fix>
</trkpt>
<trkpt lat="40.072842" lon="-105.230575">
  <ele>1586.09</ele>
  <time>2026-08-27T18:24:47Z</time>
  <course>9.49</course>
  <speed>0.0</speed>
  <fix>3d</fix>
</trkpt>
<trkpt lat="40.072842" lon="-105.230575">
  <ele>1586.09</ele>
  <time>2026-08-27T18:24:47Z</time>
  <course>262.23</course>
  <speed>0.0</speed>
  <fix>3d</fix>
</trkpt>
<trkpt lat="40.072842" lon="-105.230575">
  <ele>1586.09</ele>
  <time>2026-08-27T18:24:47Z</time>
  <course>9.73</course>
  <speed>0.0</speed>
  <fix>3d</fix>
</trkpt>
<trkpt lat="40.072842" lon="-105.230575">
  <ele>1586.09</ele>
  <time>2026-08-27T18:24:47Z</time>
  <course>159.08</course>
  <speed>0.0</speed>
  <fix>3d</fix>
</trkpt>
<trkpt lat="40.072842" lon="-105.230575">
  <ele>1586.09</ele>
  <time>2026-08-27T18:24:47Z</time>
  <course>9.96</course>
  <speed>0.0</speed>
  <fix>3d</fix>
</trkpt>
<trkpt lat="40.072842" lon="-105.230575">
  <ele>1586.09</ele>
  <time>2026-08-27T18:24:47Z</time>
  <course>287.98</course>
  <speed>0.0</speed>
  <fix>3d</fix>
</trkpt>
<trkpt lat="40.072842" lon="-105.230575">
  <ele>1586.09</ele>
  <time>2026-08-27T18:24:47Z</time>
  <course>10.16</course>
  <speed>0.0</speed>
  <fix>3d</fix>
</trkpt>
<trkpt lat="40.072842" lon="-105.230575">
  <ele>1586.09</ele>
  <time>2026-08-27T18:24:47Z</time>
  <course>278.3</course>
  <speed>0.0</speed>
  <fix>3d</fix>
</trkpt>
<trkpt lat="40.072842" lon="-105.230575">
  <ele>1586.09</ele>
  <time>2026-08-27T18:24:47Z</time>
  <course>10.35</course>
  <speed>0.0</speed>
  <fix>3d</fix>
</trkpt>
<trkpt lat="40.072842" lon="-105.230575">
  <ele>1586.09</ele>
  <time>2026-08-27T18:24:47Z</time>
  <course>261.72</course>
  <speed>0.0</speed>
  <fix>3d</fix>
</trkpt>
<trkpt lat="40.072842" lon="-105.230575">
  <ele>1586.09</ele>
  <time>2026-08-27T18:24:47Z</time>
  <course>10.52</course>
  <speed>0.0</speed>
  <fix>3d</fix>
</trkpt>
<trkpt lat="40.072842" lon="-105.230575">
  <ele>1586.09</ele>
  <time>2026-08-27T18:24:47Z</time>
  <course>264.4</course>
  <speed>0.0</speed>
  <fix>3d</fix>
</trkpt>
<trkpt lat="40.072842" lon="-105.230575">
  <ele>1586.09</ele>
  <time>2026-08-27T18:24:47Z</time>
  <course>10.67</course>
  <speed>0.0</speed>
  <fix>3d</fix>
</trkpt>
<trkpt lat="40.072842" lon="-105.230575">
  <ele>1586.09</ele>
  <time>2026-08-27T18:24:47Z</time>
  <course>266.8</course>
  <speed>0.0</speed>
  <fix>3d</fix>
</trkpt>
<trkpt lat="40.072842" lon="-105.230575">
  <ele>1586.09</ele>
  <time>2026-08-27T18:24:47Z</time>
  <course>10.82</course>
  <speed>0.0</speed>
  <fix>3d</fix>
</trkpt>
<trkpt lat="40.072842" lon="-105.230575">
  <ele>1586.09</ele>
  <time>2026-08-27T18:24:47Z</time>
  <course>266.15</course>
  <speed>0.0</speed>
  <fix>3d</fix>
</trkpt>
<trkpt lat="40.072842" lon="-105.230575">
  <ele>1586.09</ele>
  <time>2026-08-27T18:24:47Z</time>
  <course>10.95</course>
  <speed>0.0</speed>
  <fix>3d</fix>
</trkpt>
<trkpt lat="40.072842" lon="-105.230575">
  <ele>1586.09</ele>
  <time>2026-08-27T18:24:47Z</time>
  <course>265.92</course>
  <speed>0.0</speed>
  <fix>3d</fix>
</trkpt>
<trkpt lat="40.072842" lon="-105.230575">
  <ele>1586.09</ele>
  <time>2026-08-27T18:24:47Z</time>
  <course>11.07</course>
  <speed>0.0</speed>
  <fix>3d</fix>
</trkpt>
<trkpt lat="40.072842" lon="-105.230575">
  <ele>1586.09</ele>
  <time>2026-08-27T18:24:47Z</time>
  <course>266.03</course>
  <speed>0.0</speed>
  <fix>3d</fix>
</trkpt>
<trkpt lat="40.072842" lon="-105.230575">
  <ele>1586.09</ele>
  <time>2026-08-27T18:24:47Z</time>
  <course>11.18</course>
  <speed>0.0</speed>
  <fix>3d</fix>
</trkpt>
<trkpt lat="40.072842" lon="-105.230575">
  <ele>1586.09</ele>
  <time>2026-08-27T18:24:47Z</time>
  <course>266.05</course>
  <speed>0.0</speed>
  <fix>3d</fix>
</trkpt>
<trkpt lat="40.072842" lon="-105.230575">
  <ele>1586.09</ele>
  <time>2026-08-27T18:24:47Z</time>
  <course>11.28</course>
  <speed>0.0</speed>
  <fix>3d</fix>
</trkpt>
<trkpt lat="40.072842" lon="-105.230575">
  <ele>1586.09</ele>
  <time>2026-08-27T18:24:47Z</time>
  <course>266.03</course>
  <speed>0.0</speed>
  <fix>3d</fix>
</trkpt>
<trkpt lat="40.072842" lon="-105.230575">
  <ele>1586.09</ele>
  <time>2026-08-27T18:24:47Z</time>
  <course>11.37</course>
  <speed>0.0</speed>
  <fix>3d</fix>
</trkpt>
<trkpt lat="40.072842" lon="-105.230575">
  <ele>1586.09</ele>
  <time>2026-08-27T18:24:47Z</time>
  <course>266.03</course>
  <speed>0.0</speed>
  <fix>3d</fix>
</trkpt>
<trkpt lat="40.072842" lon="-105.230575">
  <ele>1586.09</ele>
  <time>2026-08-27T18:24:47Z</time>
  <course>11.45</course>
  <speed>0.0</speed>
  <fix>3d</fix>
</trkpt>
<trkpt lat="40.072842" lon="-105.230575">
  <ele>1586.09</ele>
  <time>2026-08-27T18:24:47Z</time>
  <course>266.03</course>
  <speed>0.0</speed>
  <fix>3d</fix>
</trkpt>
<trkpt lat="40.072842" lon="-105.230575">
  <ele>1586.09</ele>
  <time>2026-08-27T18:24:47Z</time>
  <course>11.53</course>
  <speed>0.0</speed>
  <fix>3d</fix>
</trkpt>
<trkpt lat="40.072842" lon="-105.230575">
  <ele>1586.09</ele>
  <time>2026-08-27T18:24:47Z</time>
  <course>266.03</course>
  <speed>0.0</speed>
  <fix>3d</fix>
</trkpt>
<trkpt lat="40.072842" lon="-105.230575">
  <ele>1586.09</ele>
  <time>2026-08-27T18:24:47Z</time>
  <course>11.6</course>
  <speed>0.0</speed>
  <fix>3d</fix>
</trkpt>
<trkpt lat="40.072842" lon="-105.230575">
  <ele>1586.09</ele>
  <time>2026-08-27T18:24:47Z</time>
  <course>266.03</course>
  <speed>0.0</speed>
  <fix>3d</fix>
</trkpt>
<trkpt lat="40.072842" lon="-105.230575">
  <ele>1586.09</ele>
  <time>2026-08-27T18:24:47Z</time>
  <course>11.66</course>
  <speed>0.0</speed>
  <fix>3d</fix>
</trkpt>
<trkpt lat="40.072842" lon="-105.230575">
  <ele>1586.09</ele>
  <time>2026-08-27T18:24:47Z</time>
  <course>266.03</course>
  <speed>0.0</speed>
  <fix>3d</fix>
</trkpt>
<trkpt lat="40.072842" lon="-105.230575">
  <ele>1586.09</ele>
  <time>2026-08-27T18:24:47Z</time>
  <course>11.71</course>
  <speed>0.0</speed>
  <fix>3d</fix>
</trkpt>
<trkpt lat="40.072842" lon="-105.230575">
  <ele>1586.09</ele>
  <time>2026-08-27T18:24:47Z</time>
  <course>266.03</course>
  <speed>0.0</speed>
  <fix>3d</fix>
</trkpt>
<trkpt lat="40.072842" lon="-105.230575">
  <ele>1586.09</ele>
  <time>2026-08-27T18:24:47Z</time>
  <course>11.76</course>
  <speed>0.0</speed>
  <fix>3d</fix>
</trkpt>
<trkpt lat="40.072842" lon="-105.230575">
  <ele>1586.09</ele>
  <time>2026-08-27T18:24:47Z</time>
  <course>266.03</course>
  <speed>0.0</speed>
  <fix>3d</fix>
</trkpt>
<trkpt lat="40.072842" lon="-105.230575">
  <ele>1586.09</ele>
  <time>2026-08-27T18:24:47Z</time>
  <course>11.81</course>
  <speed>0.0</speed>
  <fix>3d</fix>
</trkpt>
<trkpt lat="40.072842" lon="-105.230575">
  <ele>1586.09</ele>
  <time>2026-08-27T18:24:47Z</time>
  <course>266.03</course>
  <speed>0.0</speed>
  <fix>3d</fix>
</trkpt>
<trkpt lat="40.072842" lon="-105.230575">
  <ele>1586.09</ele>
  <time>2026-08-27T18:24:47Z</time>
  <course>11.85</course>
  <speed>0.0</speed>
  <fix>3d</fix>
</trkpt>
<trkpt lat="40.072842" lon="-105.230575">
  <ele>1586.09</ele>
  <time>2026-08-27T18:24:47Z</time>
  <course>266.03</course>
  <speed>0.0</speed>
  <fix>3d</fix>
</trkpt>
<trkpt lat="40.072842" lon="-105.230575">
  <ele>1586.09</ele>
  <time>2026-08-27T18:24:47Z</time>
  <course>11.89</course>
  <speed>0.0</speed>
  <fix>3d</fix>
</trkpt>
<trkpt lat="40.072842" lon="-105.230575">
  <ele>1586.09</ele>
  <time>2026-08-27T18:24:47Z</time>
  <course>266.03</course>
  <speed>0.0</speed>
  <fix>3d</fix>
</trkpt>
<trkpt lat="40.072842" lon="-105.230575">
  <ele>1586.09</ele>
  <time>2026-08-27T18:24:47Z</time>
  <course>11.92</course>
  <speed>0.0</speed>
  <fix>3d</fix>
</trkpt>
<trkpt lat="40.072842" lon="-105.230575">
  <ele>1586.09</ele>
  <time>2026-08-27T18:24:47Z</time>
  <course>266.03</course>
  <speed>0.0</speed>
  <fix>3d</fix>
</trkpt>
<trkpt lat="40.072842" lon="-105.230575">
  <ele>1586.09</ele>
  <time>2026-08-27T18:24:47Z</time>
  <course>11.95</course>
  <speed>0.0</speed>
  <fix>3d</fix>
</trkpt>
<trkpt lat="40.072842" lon="-105.230575">
  <ele>1586.09</ele>
  <time>2026-08-27T18:24:47Z</time>
  <course>266.03</course>
  <speed>0.0</speed>
  <fix>3d</fix>
</trkpt>
<trkpt lat="40.072842" lon="-105.230575">
  <ele>1586.09</ele>
  <time>2026-08-27T18:24:47Z</time>
  <course>11.97</course>
  <speed>0.0</speed>
  <fix>3d</fix>
</trkpt>
<trkpt lat="40.072842" lon="-105.230575">
  <ele>1586.09</ele>
  <time>2026-08-27T18:24:47Z</time>
  <course>266.03</course>
  <speed>0.0</speed>
  <fix>3d</fix>
</trkpt>
<trkpt lat="40.072842" lon="-105.230575">
  <ele>1586.09</ele>
  <time>2026-08-27T18:24:47Z</time>
  <course>12.0</course>
  <speed>0.0</speed>
  <fix>3d</fix>
</trkpt>
<trkpt lat="40.072842" lon="-105.230575">
  <ele>1586.09</ele>
  <time>2026-08-27T18:24:47Z</time>
  <course>266.03</course>
  <speed>0.0</speed>
  <fix>3d</fix>
</trkpt>
<trkpt lat="40.072842" lon="-105.230575">
  <ele>1586.09</ele>
  <time>2026-08-27T18:24:47Z</time>
  <course>12.02</course>
  <speed>0.0</speed>
  <fix>3d</fix>
</trkpt>
<trkpt lat="40.072842" lon="-105.230575">
  <ele>1586.09</ele>
  <time>2026-08-27T18:24:47Z</time>
  <course>266.03</course>
  <speed>0.0</speed>
  <fix>3d</fix>
</trkpt>
<trkpt lat="40.072842" lon="-105.230575">
  <ele>1586.09</ele>
  <time>2026-08-27T18:24:47Z</time>
  <course>12.04</course>
  <speed>0.0</speed>
  <fix>3d</fix>
</trkpt>
<trkpt lat="40.072842" lon="-105.230575">
  <ele>1586.09</ele>
  <time>2026-08-27T18:24:47Z</time>
  <course>266.03</course>
  <speed>0.0</speed>
  <fix>3d</fix>
</trkpt>
<trkpt lat="40.072842" lon="-105.230575">
  <ele>1586.09</ele>
  <time>2026-08-27T18:24:47Z</time>
  <course>12.05</course>
  <speed>0.0</speed>
  <fix>3d</fix>
</trkpt>
<trkpt lat="40.072842" lon="-105.230575">
  <ele>1586.09</ele>
  <time>2026-08-27T18:24:47Z</time>
  <course>266.03</course>
  <speed>0.0</speed>
  <fix>3d</fix>
</trkpt>
<trkpt lat="40.072842" lon="-105.230575">
  <ele>1586.09</ele>
  <time>2026-08-27T18:24:47Z</time>
  <course>12.07</course>
  <speed>0.0</speed>
  <fix>3d</fix>
</trkpt>
<trkpt lat="40.072842" lon="-105.230575">
  <ele>1586.09</ele>
  <time>2026-08-27T18:24:47Z</time>
  <course>266.03</course>
  <speed>0.0</speed>
  <fix>3d</fix>
</trkpt>
<trkpt lat="40.072842" lon="-105.230575">
  <ele>1586.09</ele>
  <time>2026-08-27T18:24:47Z</time>
  <course>12.08</course>
  <speed>0.0</speed>
  <fix>3d</fix>
</trkpt>
<trkpt lat="40.072842" lon="-105.230575">
  <ele>1586.09</ele>
  <time>2026-08-27T18:24:47Z</time>
  <course>266.03</course>
  <speed>0.0</speed>
  <fix>3d</fix>
</trkpt>
<trkpt lat="40.072842" lon="-105.230575">
  <ele>1586.09</ele>
  <time>2026-08-27T18:24:47Z</time>
  <course>12.09</course>
  <speed>0.0</speed>
  <fix>3d</fix>
</trkpt>
<trkpt lat="40.072842" lon="-105.230575">
  <ele>1586.09</ele>
  <time>2026-08-27T18:24:47Z</time>
  <course>266.03</course>
  <speed>0.0</speed>
  <fix>3d</fix>
</trkpt>
<trkpt lat="40.072842" lon="-105.230575">
  <ele>1586.09</ele>
  <time>2026-08-27T18:24:47Z</time>
  <course>12.1</course>
  <speed>0.0</speed>
  <fix>3d</fix>
</trkpt>
<trkpt lat="40.072842" lon="-105.230575">
  <ele>1586.09</ele>
  <time>2026-08-27T18:24:47Z</time>
  <course>266.03</course>
  <speed>0.0</speed>
  <fix>3d</fix>
</trkpt>
<trkpt lat="40.072842" lon="-105.230575">
  <ele>1586.09</ele>
  <time>2026-08-27T18:24:47Z</time>
  <course>12.1</course>
  <speed>0.0</speed>
  <fix>3d</fix>
</trkpt>
<trkpt lat="40.072842" lon="-105.230575">
  <ele>1586.09</ele>
  <time>2026-08-27T18:24:47Z</time>
  <course>266.03</course>
  <speed>0.0</speed>
  <fix>3d</fix>
</trkpt>
<trkpt lat="40.072842" lon="-105.230575">
  <ele>1586.09</ele>
  <time>2026-08-27T18:24:47Z</time>
  <course>12.11</course>
  <speed>0.0</speed>
  <fix>3d</fix>
</trkpt>
<trkpt lat="40.072842" lon="-105.230575">
  <ele>1586.09</ele>
  <time>2026-08-27T18:24:47Z</time>
  <course>266.03</course>
  <speed>0.0</speed>
  <fix>3d</fix>
</trkpt>
<trkpt lat="40.072842" lon="-105.230575">
  <ele>1586.09</ele>
  <time>2026-08-27T18:24:47Z</time>
  <course>12.12</course>
  <speed>0.0</speed>
  <fix>3d</fix>
</trkpt>
<trkpt lat="40.072842" lon="-105.230575">
  <ele>1586.09</ele>
  <time>2026-08-27T18:24:47Z</time>
  <course>266.03</course>
  <speed>0.0</speed>
  <fix>3d</fix>
</trkpt>
<trkpt lat="40.072842" lon="-105.230575">
  <ele>1586.09</ele>
  <time>2026-08-27T18:24:47Z</time>
  <course>12.12</course>
  <speed>0.0</speed>
  <fix>3d</fix>
</trkpt>
<trkpt lat="40.072842" lon="-105.230575">
  <ele>1586.09</ele>
  <time>2026-08-27T18:24:47Z</time>
  <course>266.03</course>
  <speed>0.0</speed>
  <fix>3d</fix>
</trkpt>
<trkpt lat="40.072842" lon="-105.230575">
  <ele>1586.09</ele>
  <time>2026-08-27T18:24:47Z</time>
  <course>12.12</course>
  <speed>0.0</speed>
  <fix>3d</fix>
</trkpt>
<trkpt lat="40.072842" lon="-105.230575">
  <ele>1586.09</ele>
  <time>2026-08-27T18:24:47Z</time>
  <course>266.03</course>
  <speed>0.0</speed>
  <fix>3d</fix>
</trkpt>
<trkpt lat="40.072842" lon="-105.230575">
  <ele>1586.09</ele>
  <time>2026-08-27T18:24:47Z</time>
  <course>12.13</course>
  <speed>0.0</speed>
  <fix>3d</fix>
</trkpt>
<trkpt lat="40.072842" lon="-105.230575">
  <ele>1586.09</ele>
  <time>2026-08-27T18:24:47Z</time>
  <course>266.03</course>
  <speed>0.0</speed>
  <fix>3d</fix>
</trkpt>
<trkpt lat="40.072842" lon="-105.230575">
  <ele>1586.09</ele>
  <time>2026-08-27T18:24:47Z</time>
  <course>12.13</course>
  <speed>0.0</speed>
  <fix>3d</fix>
</trkpt>
<trkpt lat="40.072842" lon="-105.230575">
  <ele>1586.09</ele>
  <time>2026-08-27T18:24:47Z</time>
  <course>266.03</course>
  <speed>0.0</speed>
  <fix>3d</fix>
</trkpt>
<trkpt lat="40.072842" lon="-105.230575">
  <ele>1586.09</ele>
  <time>2026-08-27T18:24:47Z</time>
  <course>12.13</course>
  <speed>0.0</speed>
  <fix>3d</fix>
</trkpt>
<trkpt lat="40.072842" lon="-105.230575">
  <ele>1586.09</ele>
  <time>2026-08-27T18:24:47Z</time>
  <course>266.03</course>
  <speed>0.0</speed>
  <fix>3d</fix>
</trkpt>
<trkpt lat="40.072842" lon="-105.230575">
  <ele>1586.09</ele>
  <time>2026-08-27T18:24:47Z</time>
  <course>12.12</course>
  <speed>0.01</speed>
  <fix>3d</fix>
</trkpt>
<trkpt lat="40.072842" lon="-105.230575">
  <ele>1586.09</ele>
  <time>2026-08-27T18:24:47Z</time>
  <course>266.03</course>
  <speed>0.0</speed>
  <fix>3d</fix>
</trkpt>
<trkpt lat="40.072842" lon="-105.230575">
  <ele>1586.09</ele>
  <time>2026-08-27T18:24:47Z</time>
  <course>12.12</course>
  <speed>0.01</speed>
  <fix>3d</fix>
</trkpt>
<trkpt lat="40.072842" lon="-105.230575">
  <ele>1586.09</ele>
  <time>2026-08-27T18:24:47Z</time>
  <course>266.03</course>
  <speed>0.0</speed>
  <fix>3d</fix>
</trkpt>
<trkpt lat="40.072842" lon="-105.230575">
  <ele>1586.09</ele>
  <time>2026-08-27T18:24:47Z</time>
  <course>12.12</course>
  <speed>0.01</speed>
  <fix>3d</fix>
</trkpt>
<trkpt lat="40.072842" lon="-105.230575">
  <ele>1586.09</ele>
  <time>2026-08-27T18:24:47Z</time>
  <course>266.03</course>
  <speed>0.0</speed>
  <fix>3d</fix>
</trkpt>
<trkpt lat="40.072842" lon="-105.230575">
  <ele>1586.09</ele>
  <time>2026-08-27T18:24:47Z</time>
  <course>12.12</course>
  <speed>0.01</speed>
  <fix>3d</fix>
</trkpt>
<trkpt lat="40.072842" lon="-105.230575">
  <ele>1586.09</ele>
  <time>2026-08-27T18:24:47Z</time>
  <course>266.03</course>
  <speed>0.0</speed>
  <fix>3d</fix>
</trkpt>
<trkpt lat="40.072842" lon="-105.230575">
  <ele>1586.09</ele>
  <time>2026-08-27T18:24:47Z</time>
  <course>12.11</course>
  <speed>0.01</speed>
  <fix>3d</fix>
</trkpt>
<trkpt lat="40.072842" lon="-105.230575">
  <ele>1586.09</ele>
  <time>2026-08-27T18:24:47Z</time>
  <course>266.03</course>
  <speed>0.0</speed>
  <fix>3d</fix>
</trkpt>
<trkpt lat="40.072842" lon="-105.230575">
  <ele>1586.09</ele>
  <time>2026-08-27T18:24:47Z</time>
  <course>12.11</course>
  <speed>0.01</speed>
  <fix>3d</fix>
</trkpt>
<trkpt lat="40.072842" lon="-105.230575">
  <ele>1586.09</ele>
  <time>2026-08-27T18:24:47Z</time>
  <course>266.03</course>
  <speed>0.0</speed>
  <fix>3d</fix>
</trkpt>
<trkpt lat="40.072842" lon="-105.230575">
  <ele>1586.09</ele>
  <time>2026-08-27T18:24:48Z</time>
  <course>12.1</course>
  <speed>0.01</speed>
  <fix>3d</fix>
</trkpt>
<trkpt lat="40.072842" lon="-105.230575">
  <ele>1586.09</ele>
  <time>2026-08-27T18:24:48Z</time>
  <course>266.03</course>
  <speed>0.0</speed>
  <fix>3d</fix>
</trkpt>
<trkpt lat="40.072842" lon="-105.230575">
  <ele>1586.09</ele>
  <time>2026-08-27T18:24:48Z</time>
  <course>12.1</course>
  <speed>0.01</speed>
  <fix>3d</fix>
</trkpt>
<trkpt lat="40.072842" lon="-105.230575">
  <ele>1586.09</ele>
  <time>2026-08-27T18:24:48Z</time>
  <course>266.03</course>
  <speed>0.0</speed>
  <fix>3d</fix>
</trkpt>
<trkpt lat="40.072842" lon="-105.230575">
  <ele>1586.09</ele>
  <time>2026-08-27T18:24:48Z</time>
  <course>12.09</course>
  <speed>0.01</speed>
  <fix>3d</fix>
</trkpt>
<trkpt lat="40.072842" lon="-105.230575">
  <ele>1586.09</ele>
  <time>2026-08-27T18:24:48Z</time>
  <course>266.03</course>
  <speed>0.0</speed>
  <fix>3d</fix>
</trkpt>
<trkpt lat="40.072842" lon="-105.230575">
  <ele>1586.09</ele>
  <time>2026-08-27T18:24:48Z</time>
  <course>12.09</course>
  <speed>0.01</speed>
  <fix>3d</fix>
</trkpt>
<trkpt lat="40.072842" lon="-105.230575">
  <ele>1586.09</ele>
  <time>2026-08-27T18:24:48Z</time>
  <course>266.03</course>
  <speed>0.0</speed>
  <fix>3d</fix>
</trkpt>
<trkpt lat="40.072842" lon="-105.230575">
  <ele>1586.09</ele>
  <time>2026-08-27T18:24:48Z</time>
  <course>12.08</course>
  <speed>0.01</speed>
  <fix>3d</fix>
</trkpt>
<trkpt lat="40.072842" lon="-105.230575">
  <ele>1586.09</ele>
  <time>2026-08-27T18:24:48Z</time>
  <course>266.03</course>
  <speed>0.0</speed>
  <fix>3d</fix>
</trkpt>
<trkpt lat="40.072842" lon="-105.230575">
  <ele>1586.09</ele>
  <time>2026-08-27T18:24:48Z</time>
  <course>12.08</course>
  <speed>0.01414213562373095</speed>
  <fix>3d</fix>
</trkpt>
<trkpt lat="40.072842" lon="-105.230575">
  <ele>1586.09</ele>
  <time>2026-08-27T18:24:48Z</time>
  <course>266.03</course>
  <speed>0.0</speed>
  <fix>3d</fix>
</trkpt>
<trkpt lat="40.072842" lon="-105.230575">
  <ele>1586.09</ele>
  <time>2026-08-27T18:24:48Z</time>
  <course>12.07</course>
  <speed>0.01414213562373095</speed>
  <fix>3d</fix>
</trkpt>
<trkpt lat="40.072842" lon="-105.230575">
  <ele>1586.09</ele>
  <time>2026-08-27T18:24:48Z</time>
  <course>266.03</course>
  <speed>0.0</speed>
  <fix>3d</fix>
</trkpt>
<trkpt lat="40.072842" lon="-105.230575">
  <ele>1586.09</ele>
  <time>2026-08-27T18:24:48Z</time>
  <course>12.06</course>
  <speed>0.01414213562373095</speed>
  <fix>3d</fix>
</trkpt>
<trkpt lat="40.072842" lon="-105.230575">
  <ele>1586.09</ele>
  <time>2026-08-27T18:24:48Z</time>
  <course>266.03</course>
  <speed>0.0</speed>
  <fix>3d</fix>
</trkpt>
<trkpt lat="40.072842" lon="-105.230575">
  <ele>1586.09</ele>
  <time>2026-08-27T18:24:48Z</time>
  <course>12.05</course>
  <speed>0.01414213562373095</speed>
  <fix>3d</fix>
</trkpt>
<trkpt lat="40.072842" lon="-105.230575">
  <ele>1586.09</ele>
  <time>2026-08-27T18:24:48Z</time>
  <course>266.03</course>
  <speed>0.0</speed>
  <fix>3d</fix>
</trkpt>
<trkpt lat="40.072842" lon="-105.230575">
  <ele>1586.09</ele>
  <time>2026-08-27T18:24:48Z</time>
  <course>12.05</course>
  <speed>0.01414213562373095</speed>
  <fix>3d</fix>
</trkpt>
<trkpt lat="40.072842" lon="-105.230575">
  <ele>1586.09</ele>
  <time>2026-08-27T18:24:48Z</time>
  <course>266.03</course>
  <speed>0.0</speed>
  <fix>3d</fix>
</trkpt>
<trkpt lat="40.072842" lon="-105.230575">
  <ele>1586.09</ele>
  <time>2026-08-27T18:24:48Z</time>
  <course>12.04</course>
  <speed>0.01414213562373095</speed>
  <fix>3d</fix>
</trkpt>
<trkpt lat="40.072842" lon="-105.230575">
  <ele>1586.09</ele>
  <time>2026-08-27T18:24:48Z</time>
  <course>266.03</course>
  <speed>0.0</speed>
  <fix>3d</fix>
</trkpt>
<trkpt lat="40.072842" lon="-105.230575">
  <ele>1586.09</ele>
  <time>2026-08-27T18:24:48Z</time>
  <course>12.03</course>
  <speed>0.01414213562373095</speed>
  <fix>3d</fix>
</trkpt>
<trkpt lat="40.072842" lon="-105.230575">
  <ele>1586.09</ele>
  <time>2026-08-27T18:24:48Z</time>
  <course>266.03</course>
  <speed>0.0</speed>
  <fix>3d</fix>
</trkpt>
<trkpt lat="40.072842" lon="-105.230575">
  <ele>1586.09</ele>
  <time>2026-08-27T18:24:48Z</time>
  <course>12.03</course>
  <speed>0.01414213562373095</speed>
  <fix>3d</fix>
</trkpt>
<trkpt lat="40.072842" lon="-105.230575">
  <ele>1586.09</ele>
  <time>2026-08-27T18:24:48Z</time>
  <course>266.03</course>
  <speed>0.0</speed>
  <fix>3d</fix>
</trkpt>
<trkpt lat="40.072842" lon="-105.230575">
  <ele>1586.09</ele>
  <time>2026-08-27T18:24:48Z</time>
  <course>12.02</course>
  <speed>0.01414213562373095</speed>
  <fix>3d</fix>
</trkpt>
<trkpt lat="40.072842" lon="-105.230575">
  <ele>1586.09</ele>
  <time>2026-08-27T18:24:48Z</time>
  <course>266.03</course>
  <speed>0.0</speed>
  <fix>3d</fix>
</trkpt>
<trkpt lat="40.072842" lon="-105.230575">
  <ele>1586.09</ele>
  <time>2026-08-27T18:24:48Z</time>
  <course>12.01</course>
  <speed>0.01414213562373095</speed>
  <fix>3d</fix>
</trkpt>
<trkpt lat="40.072842" lon="-105.230575">
  <ele>1586.09</ele>
  <time>2026-08-27T18:24:48Z</time>
  <course>266.03</course>
  <speed>0.0</speed>
  <fix>3d</fix>
</trkpt>
<trkpt lat="40.072842" lon="-105.230575">
  <ele>1586.09</ele>
  <time>2026-08-27T18:24:48Z</time>
  <course>12.01</course>
  <speed>0.01414213562373095</speed>
  <fix>3d</fix>
</trkpt>
<trkpt lat="40.072842" lon="-105.230575">
  <ele>1586.09</ele>
  <time>2026-08-27T18:24:48Z</time>
  <course>266.03</course>
  <speed>0.0</speed>
  <fix>3d</fix>
</trkpt>
<trkpt lat="40.072842" lon="-105.230575">
  <ele>1586.09</ele>
  <time>2026-08-27T18:24:48Z</time>
  <course>12.0</course>
  <speed>0.01414213562373095</speed>
  <fix>3d</fix>
</trkpt>
<trkpt lat="40.072842" lon="-105.230575">
  <ele>1586.09</ele>
  <time>2026-08-27T18:24:48Z</time>
  <course>266.03</course>
  <speed>0.0</speed>
  <fix>3d</fix>
</trkpt>
<trkpt lat="40.072842" lon="-105.230575">
  <ele>1586.09</ele>
  <time>2026-08-27T18:24:48Z</time>
  <course>11.99</course>
  <speed>0.01414213562373095</speed>
  <fix>3d</fix>
</trkpt>
<trkpt lat="40.072842" lon="-105.230575">
  <ele>1586.09</ele>
  <time>2026-08-27T18:24:48Z</time>
  <course>266.03</course>
  <speed>0.0</speed>
  <fix>3d</fix>
</trkpt>
<trkpt lat="40.072842" lon="-105.230575">
  <ele>1586.09</ele>
  <time>2026-08-27T18:24:48Z</time>
  <course>11.98</course>
  <speed>0.01414213562373095</speed>
  <fix>3d</fix>
</trkpt>
<trkpt lat="40.072842" lon="-105.230575">
  <ele>1586.09</ele>
  <time>2026-08-27T18:24:48Z</time>
  <course>266.03</course>
  <speed>0.0</speed>
  <fix>3d</fix>
</trkpt>
<trkpt lat="40.072842" lon="-105.230575">
  <ele>1586.09</ele>
  <time>2026-08-27T18:24:48Z</time>
  <course>11.98</course>
  <speed>0.01414213562373095</speed>
  <fix>3d</fix>
</trkpt>
<trkpt lat="40.072842" lon="-105.230575">
  <ele>1586.09</ele>
  <time>2026-08-27T18:24:48Z</time>
  <course>266.03</course>
  <speed>0.0</speed>
  <fix>3d</fix>
</trkpt>
<trkpt lat="40.072842" lon="-105.230575">
  <ele>1586.09</ele>
  <time>2026-08-27T18:24:48Z</time>
  <course>11.97</course>
  <speed>0.022360679774997897</speed>
  <fix>3d</fix>
</trkpt>
<trkpt lat="40.072842" lon="-105.230575">
  <ele>1586.09</ele>
  <time>2026-08-27T18:24:48Z</time>
  <course>266.03</course>
  <speed>0.0</speed>
  <fix>3d</fix>
</trkpt>
<trkpt lat="40.072842" lon="-105.230575">
  <ele>1586.09</ele>
  <time>2026-08-27T18:24:48Z</time>
  <course>11.96</course>
  <speed>0.022360679774997897</speed>
  <fix>3d</fix>
</trkpt>
<trkpt lat="40.072842" lon="-105.230575">
  <ele>1586.09</ele>
  <time>2026-08-27T18:24:48Z</time>
  <course>266.03</course>
  <speed>0.0</speed>
  <fix>3d</fix>
</trkpt>
<trkpt lat="40.072842" lon="-105.230575">
  <ele>1586.09</ele>
  <time>2026-08-27T18:24:48Z</time>
  <course>11.95</course>
  <speed>0.022360679774997897</speed>
  <fix>3d</fix>
</trkpt>
<trkpt lat="40.072842" lon="-105.230575">
  <ele>1586.09</ele>
  <time>2026-08-27T18:24:48Z</time>
  <course>266.03</course>
  <speed>0.0</speed>
  <fix>3d</fix>
</trkpt>
<trkpt lat="40.072842" lon="-105.230575">
  <ele>1586.09</ele>
  <time>2026-08-27T18:24:48Z</time>
  <course>11.94</course>
  <speed>0.022360679774997897</speed>
  <fix>3d</fix>
</trkpt>
<trkpt lat="40.072842" lon="-105.230575">
  <ele>1586.09</ele>
  <time>2026-08-27T18:24:48Z</time>
  <course>266.03</course>
  <speed>0.0</speed>
  <fix>3d</fix>
</trkpt>
<trkpt lat="40.072842" lon="-105.230575">
  <ele>1586.09</ele>
  <time>2026-08-27T18:24:48Z</time>
  <course>11.93</course>
  <speed>0.022360679774997897</speed>
  <fix>3d</fix>
</trkpt>
<trkpt lat="40.072842" lon="-105.230575">
  <ele>1586.09</ele>
  <time>2026-08-27T18:24:48Z</time>
  <course>266.03</course>
  <speed>0.0</speed>
  <fix>3d</fix>
</trkpt>
<trkpt lat="40.072842" lon="-105.230575">
  <ele>1586.09</ele>
  <time>2026-08-27T18:24:48Z</time>
  <course>11.92</course>
  <speed>0.022360679774997897</speed>
  <fix>3d</fix>
</trkpt>
<trkpt lat="40.072842" lon="-105.230575">
  <ele>1586.09</ele>
  <time>2026-08-27T18:24:48Z</time>
  <course>266.03</course>
  <speed>0.0</speed>
  <fix>3d</fix>
</trkpt>
<trkpt lat="40.072842" lon="-105.230575">
  <ele>1586.09</ele>
  <time>2026-08-27T18:24:48Z</time>
  <course>11.92</course>
  <speed>0.022360679774997897</speed>
  <fix>3d</fix>
</trkpt>
<trkpt lat="40.072842" lon="-105.230575">
  <ele>1586.09</ele>
  <time>2026-08-27T18:24:48Z</time>
  <course>266.03</course>
  <speed>0.0</speed>
  <fix>3d</fix>
</trkpt>
<trkpt lat="40.072842" lon="-105.230575">
  <ele>1586.09</ele>
  <time>2026-08-27T18:24:48Z</time>
  <course>11.91</course>
  <speed>0.022360679774997897</speed>
  <fix>3d</fix>
</trkpt>
<trkpt lat="40.072842" lon="-105.230575">
  <ele>1586.09</ele>
  <time>2026-08-27T18:24:48Z</time>
  <course>266.03</course>
  <speed>0.0</speed>
  <fix>3d</fix>
</trkpt>
<trkpt lat="40.072842" lon="-105.230575">
  <ele>1586.09</ele>
  <time>2026-08-27T18:24:48Z</time>
  <course>11.9</course>
  <speed>0.022360679774997897</speed>
  <fix>3d</fix>
</trkpt>
<trkpt lat="40.072842" lon="-105.230575">
  <ele>1586.09</ele>
  <time>2026-08-27T18:24:48Z</time>
  <course>266.03</course>
  <speed>0.0</speed>
  <fix>3d</fix>
</trkpt>
<trkpt lat="40.072842" lon="-105.230575">
  <ele>1586.09</ele>
  <time>2026-08-27T18:24:48Z</time>
  <course>11.89</course>
  <speed>0.022360679774997897</speed>
  <fix>3d</fix>
</trkpt>
<trkpt lat="40.072842" lon="-105.230575">
  <ele>1586.09</ele>
  <time>2026-08-27T18:24:48Z</time>
  <course>266.03</course>
  <speed>0.0</speed>
  <fix>3d</fix>
</trkpt>
<trkpt lat="40.072842" lon="-105.230575">
  <ele>1586.09</ele>
  <time>2026-08-27T18:24:48Z</time>
  <course>11.88</course>
  <speed>0.022360679774997897</speed>
  <fix>3d</fix>
</trkpt>
<trkpt lat="40.072842" lon="-105.230575">
  <ele>1586.09</ele>
  <time>2026-08-27T18:24:48Z</time>
  <course>266.03</course>
  <speed>0.0</speed>
  <fix>3d</fix>
</trkpt>
<trkpt lat="40.072842" lon="-105.230575">
  <ele>1586.09</ele>
  <time>2026-08-27T18:24:48Z</time>
  <course>11.87</course>
  <speed>0.022360679774997897</speed>
  <fix>3d</fix>
</trkpt>
<trkpt lat="40.072842" lon="-105.230575">
  <ele>1586.09</ele>
  <time>2026-08-27T18:24:48Z</time>
  <course>266.03</course>
  <speed>0.0</speed>
  <fix>3d</fix>
</trkpt>
<trkpt lat="40.072842" lon="-105.230575">
  <ele>1586.09</ele>
  <time>2026-08-27T18:24:48Z</time>
  <course>11.87</course>
  <speed>0.022360679774997897</speed>
  <fix>3d</fix>
</trkpt>
<trkpt lat="40.072842" lon="-105.230575">
  <ele>1586.09</ele>
  <time>2026-08-27T18:24:48Z</time>
  <course>266.03</course>
  <speed>0.0</speed>
  <fix>3d</fix>
</trkpt>
<trkpt lat="40.072842" lon="-105.230575">
  <ele>1586.09</ele>
  <time>2026-08-27T18:24:48Z</time>
  <course>11.86</course>
  <speed>0.022360679774997897</speed>
  <fix>3d</fix>
</trkpt>
<trkpt lat="40.072842" lon="-105.230575">
  <ele>1586.09</ele>
  <time>2026-08-27T18:24:48Z</time>
  <course>266.03</course>
  <speed>0.0</speed>
  <fix>3d</fix>
</trkpt>
<trkpt lat="40.072842" lon="-105.230575">
  <ele>1586.09</ele>
  <time>2026-08-27T18:24:48Z</time>
  <course>11.85</course>
  <speed>0.022360679774997897</speed>
  <fix>3d</fix>
</trkpt>
<trkpt lat="40.072842" lon="-105.230575">
  <ele>1586.09</ele>
  <time>2026-08-27T18:24:48Z</time>
  <course>266.03</course>
  <speed>0.0</speed>
  <fix>3d</fix>
</trkpt>
<trkpt lat="40.072842" lon="-105.230575">
  <ele>1586.09</ele>
  <time>2026-08-27T18:24:48Z</time>
  <course>11.84</course>
  <speed>0.0282842712474619</speed>
  <fix>3d</fix>
</trkpt>
<trkpt lat="40.072842" lon="-105.230575">
  <ele>1586.09</ele>
  <time>2026-08-27T18:24:48Z</time>
  <course>266.03</course>
  <speed>0.0</speed>
  <fix>3d</fix>
</trkpt>
<trkpt lat="40.072842" lon="-105.230575">
  <ele>1586.09</ele>
  <time>2026-08-27T18:24:48Z</time>
  <course>11.83</course>
  <speed>0.0282842712474619</speed>
  <fix>3d</fix>
</trkpt>
<trkpt lat="40.072842" lon="-105.230575">
  <ele>1586.09</ele>
  <time>2026-08-27T18:24:48Z</time>
  <course>266.03</course>
  <speed>0.0</speed>
  <fix>3d</fix>
</trkpt>
<trkpt lat="40.072842" lon="-105.230575">
  <ele>1586.09</ele>
  <time>2026-08-27T18:24:48Z</time>
  <course>11.83</course>
  <speed>0.0282842712474619</speed>
  <fix>3d</fix>
</trkpt>
<trkpt lat="40.072842" lon="-105.230575">
  <ele>1586.09</ele>
  <time>2026-08-27T18:24:48Z</time>
  <course>266.03</course>
  <speed>0.0</speed>
  <fix>3d</fix>
</trkpt>
<trkpt lat="40.072842" lon="-105.230575">
  <ele>1586.09</ele>
  <time>2026-08-27T18:24:48Z</time>
  <course>11.82</course>
  <speed>0.0282842712474619</speed>
  <fix>3d</fix>
</trkpt>
<trkpt lat="40.072842" lon="-105.230575">
  <ele>1586.09</ele>
  <time>2026-08-27T18:24:48Z</time>
  <course>266.03</course>
  <speed>0.0</speed>
  <fix>3d</fix>
</trkpt>
<trkpt lat="40.072842" lon="-105.230575">
  <ele>1586.09</ele>
  <time>2026-08-27T18:24:48Z</time>
  <course>11.81</course>
  <speed>0.0282842712474619</speed>
  <fix>3d</fix>
</trkpt>
<trkpt lat="40.072842" lon="-105.230575">
  <ele>1586.09</ele>
  <time>2026-08-27T18:24:48Z</time>
  <course>266.03</course>
  <speed>0.0</speed>
  <fix>3d</fix>
</trkpt>
<trkpt lat="40.072842" lon="-105.230575">
  <ele>1586.09</ele>
  <time>2026-08-27T18:24:48Z</time>
  <course>11.8</course>
  <speed>0.0282842712474619</speed>
  <fix>3d</fix>
</trkpt>
<trkpt lat="40.072842" lon="-105.230575">
  <ele>1586.09</ele>
  <time>2026-08-27T18:24:48Z</time>
  <course>266.03</course>
  <speed>0.0</speed>
  <fix>3d</fix>
</trkpt>
<trkpt lat="40.072842" lon="-105.230575">
  <ele>1586.09</ele>
  <time>2026-08-27T18:24:48Z</time>
  <course>11.79</course>
  <speed>0.0282842712474619</speed>
  <fix>3d</fix>
</trkpt>
<trkpt lat="40.072842" lon="-105.230575">
  <ele>1586.09</ele>
  <time>2026-08-27T18:24:48Z</time>
  <course>266.03</course>
  <speed>0.0</speed>
  <fix>3d</fix>
</trkpt>
<trkpt lat="40.072842" lon="-105.230575">
  <ele>1586.09</ele>
  <time>2026-08-27T18:24:48Z</time>
  <course>11.79</course>
  <speed>0.0282842712474619</speed>
  <fix>3d</fix>
</trkpt>
<trkpt lat="40.072842" lon="-105.230575">
  <ele>1586.09</ele>
  <time>2026-08-27T18:24:48Z</time>
  <course>266.03</course>
  <speed>0.0</speed>
  <fix>3d</fix>
</trkpt>
<trkpt lat="40.072842" lon="-105.230575">
  <ele>1586.09</ele>
  <time>2026-08-27T18:24:48Z</time>
  <course>11.78</course>
  <speed>0.0282842712474619</speed>
  <fix>3d</fix>
</trkpt>
<trkpt lat="40.072842" lon="-105.230575">
  <ele>1586.09</ele>
  <time>2026-08-27T18:24:48Z</time>
  <course>266.03</course>
  <speed>0.0</speed>
  <fix>3d</fix>
</trkpt>
<trkpt lat="40.072842" lon="-105.230575">
  <ele>1586.09</ele>
  <time>2026-08-27T18:24:48Z</time>
  <course>11.77</course>
  <speed>0.0282842712474619</speed>
  <fix>3d</fix>
</trkpt>
<trkpt lat="40.072842" lon="-105.230575">
  <ele>1586.09</ele>
  <time>2026-08-27T18:24:48Z</time>
  <course>266.03</course>
  <speed>0.0</speed>
  <fix>3d</fix>
</trkpt>
<trkpt lat="40.072842" lon="-105.230575">
  <ele>1586.09</ele>
  <time>2026-08-27T18:24:48Z</time>
  <course>11.77</course>
  <speed>0.0282842712474619</speed>
  <fix>3d</fix>
</trkpt>
<trkpt lat="40.072842" lon="-105.230575">
  <ele>1586.09</ele>
  <time>2026-08-27T18:24:48Z</time>
  <course>266.03</course>
  <speed>0.0</speed>
  <fix>3d</fix>
</trkpt>
<trkpt lat="40.072842" lon="-105.230575">
  <ele>1586.09</ele>
  <time>2026-08-27T18:24:48Z</time>
  <course>11.76</course>
  <speed>0.0282842712474619</speed>
  <fix>3d</fix>
</trkpt>
<trkpt lat="40.072842" lon="-105.230575">
  <ele>1586.09</ele>
  <time>2026-08-27T18:24:48Z</time>
  <course>266.03</course>
  <speed>0.0</speed>
  <fix>3d</fix>
</trkpt>
<trkpt lat="40.072842" lon="-105.230575">
  <ele>1586.09</ele>
  <time>2026-08-27T18:24:48Z</time>
  <course>11.75</course>
  <speed>0.0282842712474619</speed>
  <fix>3d</fix>
</trkpt>
<trkpt lat="40.072842" lon="-105.230575">
  <ele>1586.09</ele>
  <time>2026-08-27T18:24:48Z</time>
  <course>266.03</course>
  <speed>0.0</speed>
  <fix>3d</fix>
</trkpt>
<trkpt lat="40.072842" lon="-105.230575">
  <ele>1586.09</ele>
  <time>2026-08-27T18:24:48Z</time>
  <course>11.74</course>
  <speed>0.03605551275463989</speed>
  <fix>3d</fix>
</trkpt>
<trkpt lat="40.072842" lon="-105.230575">
  <ele>1586.09</ele>
  <time>2026-08-27T18:24:48Z</time>
  <course>266.03</course>
  <speed>0.0</speed>
  <fix>3d</fix>
</trkpt>
<trkpt lat="40.072842" lon="-105.230575">
  <ele>1586.09</ele>
  <time>2026-08-27T18:24:48Z</time>
  <course>11.73</course>
  <speed>0.03605551275463989</speed>
  <fix>3d</fix>
</trkpt>
<trkpt lat="40.072842" lon="-105.230575">
  <ele>1586.09</ele>
  <time>2026-08-27T18:24:48Z</time>
  <course>266.03</course>
  <speed>0.0</speed>
  <fix>3d</fix>
</trkpt>
<trkpt lat="40.072842" lon="-105.230575">
  <ele>1586.09</ele>
  <time>2026-08-27T18:24:48Z</time>
  <course>11.73</course>
  <speed>0.03605551275463989</speed>
  <fix>3d</fix>
</trkpt>
<trkpt lat="40.072842" lon="-105.230575">
  <ele>1586.09</ele>
  <time>2026-08-27T18:24:48Z</time>
  <course>266.03</course>
  <speed>0.0</speed>
  <fix>3d</fix>
</trkpt>
<trkpt lat="40.072842" lon="-105.230575">
  <ele>1586.09</ele>
  <time>2026-08-27T18:24:48Z</time>
  <course>11.72</course>
  <speed>0.03605551275463989</speed>
  <fix>3d</fix>
</trkpt>
<trkpt lat="40.072842" lon="-105.230575">
  <ele>1586.09</ele>
  <time>2026-08-27T18:24:48Z</time>
  <course>266.03</course>
  <speed>0.0</speed>
  <fix>3d</fix>
</trkpt>
<trkpt lat="40.072842" lon="-105.230575">
  <ele>1586.09</ele>
  <time>2026-08-27T18:24:48Z</time>
  <course>11.71</course>
  <speed>0.03605551275463989</speed>
  <fix>3d</fix>
</trkpt>
<trkpt lat="40.072842" lon="-105.230575">
  <ele>1586.09</ele>
  <time>2026-08-27T18:24:48Z</time>
  <course>266.03</course>
  <speed>0.0</speed>
  <fix>3d</fix>
</trkpt>
<trkpt lat="40.072842" lon="-105.230575">
  <ele>1586.09</ele>
  <time>2026-08-27T18:24:48Z</time>
  <course>11.7</course>
  <speed>0.03605551275463989</speed>
  <fix>3d</fix>
</trkpt>
<trkpt lat="40.072842" lon="-105.230575">
  <ele>1586.09</ele>
  <time>2026-08-27T18:24:48Z</time>
  <course>266.03</course>
  <speed>0.0</speed>
  <fix>3d</fix>
</trkpt>
<trkpt lat="40.072842" lon="-105.230575">
  <ele>1586.09</ele>
  <time>2026-08-27T18:24:48Z</time>
  <course>11.7</course>
  <speed>0.03605551275463989</speed>
  <fix>3d</fix>
</trkpt>
<trkpt lat="40.072842" lon="-105.230575">
  <ele>1586.09</ele>
  <time>2026-08-27T18:24:48Z</time>
  <course>266.03</course>
  <speed>0.0</speed>
  <fix>3d</fix>
</trkpt>
<trkpt lat="40.072842" lon="-105.230575">
  <ele>1586.09</ele>
  <time>2026-08-27T18:24:48Z</time>
  <course>11.69</course>
  <speed>0.03605551275463989</speed>
  <fix>3d</fix>
</trkpt>
<trkpt lat="40.072842" lon="-105.230575">
  <ele>1586.09</ele>
  <time>2026-08-27T18:24:48Z</time>
  <course>266.03</course>
  <speed>0.0</speed>
  <fix>3d</fix>
</trkpt>
<trkpt lat="40.072842" lon="-105.230575">
  <ele>1586.09</ele>
  <time>2026-08-27T18:24:48Z</time>
  <course>11.68</course>
  <speed>0.03605551275463989</speed>
  <fix>3d</fix>
</trkpt>
<trkpt lat="40.072842" lon="-105.230575">
  <ele>1586.09</ele>
  <time>2026-08-27T18:24:48Z</time>
  <course>266.03</course>
  <speed>0.0</speed>
  <fix>3d</fix>
</trkpt>
<trkpt lat="40.072842" lon="-105.230575">
  <ele>1586.09</ele>
  <time>2026-08-27T18:24:48Z</time>
  <course>11.68</course>
  <speed>0.03605551275463989</speed>
  <fix>3d</fix>
</trkpt>
<trkpt lat="40.072842" lon="-105.230575">
  <ele>1586.09</ele>
  <time>2026-08-27T18:24:48Z</time>
  <course>266.03</course>
  <speed>0.0</speed>
  <fix>3d</fix>
</trkpt>
<trkpt lat="40.072842" lon="-105.230575">
  <ele>1586.09</ele>
  <time>2026-08-27T18:24:48Z</time>
  <course>11.67</course>
  <speed>0.03605551275463989</speed>
  <fix>3d</fix>
</trkpt>
<trkpt lat="40.072842" lon="-105.230575">
  <ele>1586.09</ele>
  <time>2026-08-27T18:24:48Z</time>
  <course>266.03</course>
  <speed>0.0</speed>
  <fix>3d</fix>
</trkpt>
<trkpt lat="40.072842" lon="-105.230575">
  <ele>1586.09</ele>
  <time>2026-08-27T18:24:48Z</time>
  <course>11.66</course>
  <speed>0.03605551275463989</speed>
  <fix>3d</fix>
</trkpt>
<trkpt lat="40.072842" lon="-105.230575">
  <ele>1586.09</ele>
  <time>2026-08-27T18:24:48Z</time>
  <course>266.03</course>
  <speed>0.0</speed>
  <fix>3d</fix>
</trkpt>
<trkpt lat="40.072842" lon="-105.230575">
  <ele>1586.09</ele>
  <time>2026-08-27T18:24:48Z</time>
  <course>11.65</course>
  <speed>0.03605551275463989</speed>
  <fix>3d</fix>
</trkpt>
<trkpt lat="40.072842" lon="-105.230575">
  <ele>1586.09</ele>
  <time>2026-08-27T18:24:48Z</time>
  <course>266.03</course>
  <speed>0.0</speed>
  <fix>3d</fix>
</trkpt>
<trkpt lat="40.072842" lon="-105.230575">
  <ele>1586.09</ele>
  <time>2026-08-27T18:24:48Z</time>
  <course>11.65</course>
  <speed>0.03605551275463989</speed>
  <fix>3d</fix>
</trkpt>
<trkpt lat="40.072842" lon="-105.230575">
  <ele>1586.09</ele>
  <time>2026-08-27T18:24:48Z</time>
  <course>266.03</course>
  <speed>0.0</speed>
  <fix>3d</fix>
</trkpt>
<trkpt lat="40.072842" lon="-105.230575">
  <ele>1586.09</ele>
  <time>2026-08-27T18:24:48Z</time>
  <course>11.64</course>
  <speed>0.03605551275463989</speed>
  <fix>3d</fix>
</trkpt>
<trkpt lat="40.072842" lon="-105.230575">
  <ele>1586.09</ele>
  <time>2026-08-27T18:24:48Z</time>
  <course>266.03</course>
  <speed>0.0</speed>
  <fix>3d</fix>
</trkpt>
<trkpt lat="40.072842" lon="-105.230575">
  <ele>1586.09</ele>
  <time>2026-08-27T18:24:48Z</time>
  <course>11.63</course>
  <speed>0.03605551275463989</speed>
  <fix>3d</fix>
</trkpt>
<trkpt lat="40.072842" lon="-105.230575">
  <ele>1586.09</ele>
  <time>2026-08-27T18:24:48Z</time>
  <course>266.03</course>
  <speed>0.0</speed>
  <fix>3d</fix>
</trkpt>
<trkpt lat="40.072842" lon="-105.230575">
  <ele>1586.09</ele>
  <time>2026-08-27T18:24:48Z</time>
  <course>11.63</course>
  <speed>0.03605551275463989</speed>
  <fix>3d</fix>
</trkpt>
<trkpt lat="40.072842" lon="-105.230575">
  <ele>1586.09</ele>
  <time>2026-08-27T18:24:48Z</time>
  <course>266.03</course>
  <speed>0.0</speed>
  <fix>3d</fix>
</trkpt>
<trkpt lat="40.072842" lon="-105.230575">
  <ele>1586.09</ele>
  <time>2026-08-27T18:24:48Z</time>
  <course>11.62</course>
  <speed>0.03605551275463989</speed>
  <fix>3d</fix>
</trkpt>
<trkpt lat="40.072842" lon="-105.230575">
  <ele>1586.09</ele>
  <time>2026-08-27T18:24:48Z</time>
  <course>266.03</course>
  <speed>0.0</speed>
  <fix>3d</fix>
</trkpt>
<trkpt lat="40.072842" lon="-105.230575">
  <ele>1586.09</ele>
  <time>2026-08-27T18:24:48Z</time>
  <course>11.61</course>
  <speed>0.03605551275463989</speed>
  <fix>3d</fix>
</trkpt>
<trkpt lat="40.072842" lon="-105.230575">
  <ele>1586.09</ele>
  <time>2026-08-27T18:24:48Z</time>
  <course>266.03</course>
  <speed>0.0</speed>
  <fix>3d</fix>
</trkpt>
<trkpt lat="40.072842" lon="-105.230575">
  <ele>1586.09</ele>
  <time>2026-08-27T18:24:48Z</time>
  <course>11.61</course>
  <speed>0.03605551275463989</speed>
  <fix>3d</fix>
</trkpt>
<trkpt lat="40.072842" lon="-105.230575">
  <ele>1586.09</ele>
  <time>2026-08-27T18:24:48Z</time>
  <course>266.03</course>
  <speed>0.0</speed>
  <fix>3d</fix>
</trkpt>
<trkpt lat="40.072842" lon="-105.230575">
  <ele>1586.09</ele>
  <time>2026-08-27T18:24:48Z</time>
  <course>11.6</course>
  <speed>0.03605551275463989</speed>
  <fix>3d</fix>
</trkpt>
<trkpt lat="40.072842" lon="-105.230575">
  <ele>1586.09</ele>
  <time>2026-08-27T18:24:48Z</time>
  <course>266.03</course>
  <speed>0.0</speed>
  <fix>3d</fix>
</trkpt>
<trkpt lat="40.072842" lon="-105.230575">
  <ele>1586.09</ele>
  <time>2026-08-27T18:24:48Z</time>
  <course>11.6</course>
  <speed>0.03605551275463989</speed>
  <fix>3d</fix>
</trkpt>
<trkpt lat="40.072842" lon="-105.230575">
  <ele>1586.09</ele>
  <time>2026-08-27T18:24:48Z</time>
  <course>266.03</course>
  <speed>0.0</speed>
  <fix>3d</fix>
</trkpt>
<trkpt lat="40.072842" lon="-105.230575">
  <ele>1586.09</ele>
  <time>2026-08-27T18:24:48Z</time>
  <course>11.59</course>
  <speed>0.03605551275463989</speed>
  <fix>3d</fix>
</trkpt>
<trkpt lat="40.072842" lon="-105.230575">
  <ele>1586.09</ele>
  <time>2026-08-27T18:24:48Z</time>
  <course>266.03</course>
  <speed>0.0</speed>
  <fix>3d</fix>
</trkpt>
<trkpt lat="40.072842" lon="-105.230575">
  <ele>1586.09</ele>
  <time>2026-08-27T18:24:48Z</time>
  <course>11.58</course>
  <speed>0.03605551275463989</speed>
  <fix>3d</fix>
</trkpt>
<trkpt lat="40.072842" lon="-105.230575">
  <ele>1586.09</ele>
  <time>2026-08-27T18:24:48Z</time>
  <course>266.03</course>
  <speed>0.0</speed>
  <fix>3d</fix>
</trkpt>
<trkpt lat="40.072842" lon="-105.230575">
  <ele>1586.09</ele>
  <time>2026-08-27T18:24:48Z</time>
  <course>11.58</course>
  <speed>0.03605551275463989</speed>
  <fix>3d</fix>
</trkpt>
<trkpt lat="40.072842" lon="-105.230575">
  <ele>1586.09</ele>
  <time>2026-08-27T18:24:48Z</time>
  <course>266.03</course>
  <speed>0.0</speed>
  <fix>3d</fix>
</trkpt>
<trkpt lat="40.072842" lon="-105.230575">
  <ele>1586.09</ele>
  <time>2026-08-27T18:24:48Z</time>
  <course>11.57</course>
  <speed>0.03605551275463989</speed>
  <fix>3d</fix>
</trkpt>
<trkpt lat="40.072842" lon="-105.230575">
  <ele>1586.09</ele>
  <time>2026-08-27T18:24:48Z</time>
  <course>266.03</course>
  <speed>0.0</speed>
  <fix>3d</fix>
</trkpt>
<trkpt lat="40.072842" lon="-105.230575">
  <ele>1586.09</ele>
  <time>2026-08-27T18:24:48Z</time>
  <course>11.56</course>
  <speed>0.03605551275463989</speed>
  <fix>3d</fix>
</trkpt>
<trkpt lat="40.072842" lon="-105.230575">
  <ele>1586.09</ele>
  <time>2026-08-27T18:24:48Z</time>
  <course>266.03</course>
  <speed>0.0</speed>
  <fix>3d</fix>
</trkpt>
<trkpt lat="40.072842" lon="-105.230575">
  <ele>1586.09</ele>
  <time>2026-08-27T18:24:48Z</time>
  <course>11.56</course>
  <speed>0.03605551275463989</speed>
  <fix>3d</fix>
</trkpt>
<trkpt lat="40.072842" lon="-105.230575">
  <ele>1586.09</ele>
  <time>2026-08-27T18:24:48Z</time>
  <course>266.03</course>
  <speed>0.0</speed>
  <fix>3d</fix>
</trkpt>
<trkpt lat="40.072842" lon="-105.230575">
  <ele>1586.09</ele>
  <time>2026-08-27T18:24:48Z</time>
  <course>11.55</course>
  <speed>0.03605551275463989</speed>
  <fix>3d</fix>
</trkpt>
<trkpt lat="40.072842" lon="-105.230575">
  <ele>1586.09</ele>
  <time>2026-08-27T18:24:48Z</time>
  <course>266.03</course>
  <speed>0.0</speed>
  <fix>3d</fix>
</trkpt>
<trkpt lat="40.072842" lon="-105.230575">
  <ele>1586.09</ele>
  <time>2026-08-27T18:24:48Z</time>
  <course>11.55</course>
  <speed>0.03605551275463989</speed>
  <fix>3d</fix>
</trkpt>
<trkpt lat="40.072842" lon="-105.230575">
  <ele>1586.09</ele>
  <time>2026-08-27T18:24:48Z</time>
  <course>266.03</course>
  <speed>0.0</speed>
  <fix>3d</fix>
</trkpt>
<trkpt lat="40.072842" lon="-105.230575">
  <ele>1586.09</ele>
  <time>2026-08-27T18:24:48Z</time>
  <course>11.54</course>
  <speed>0.03605551275463989</speed>
  <fix>3d</fix>
</trkpt>
<trkpt lat="40.072842" lon="-105.230575">
  <ele>1586.09</ele>
  <time>2026-08-27T18:24:48Z</time>
  <course>266.03</course>
  <speed>0.0</speed>
  <fix>3d</fix>
</trkpt>
<trkpt lat="40.072842" lon="-105.230575">
  <ele>1586.09</ele>
  <time>2026-08-27T18:24:48Z</time>
  <course>11.53</course>
  <speed>0.03605551275463989</speed>
  <fix>3d</fix>
</trkpt>
<trkpt lat="40.072842" lon="-105.230575">
  <ele>1586.09</ele>
  <time>2026-08-27T18:24:48Z</time>
  <course>266.03</course>
  <speed>0.0</speed>
  <fix>3d</fix>
</trkpt>
<trkpt lat="40.072842" lon="-105.230575">
  <ele>1586.09</ele>
  <time>2026-08-27T18:24:48Z</time>
  <course>11.53</course>
  <speed>0.03605551275463989</speed>
  <fix>3d</fix>
</trkpt>
<trkpt lat="40.072842" lon="-105.230575">
  <ele>1586.09</ele>
  <time>2026-08-27T18:24:48Z</time>
  <course>266.03</course>
  <speed>0.0</speed>
  <fix>3d</fix>
</trkpt>
<trkpt lat="40.072842" lon="-105.230575">
  <ele>1586.09</ele>
  <time>2026-08-27T18:24:48Z</time>
  <course>11.52</course>
  <speed>0.03605551275463989</speed>
  <fix>3d</fix>
</trkpt>
<trkpt lat="40.072842" lon="-105.230575">
  <ele>1586.09</ele>
  <time>2026-08-27T18:24:48Z</time>
  <course>266.03</course>
  <speed>0.0</speed>
  <fix>3d</fix>
</trkpt>
<trkpt lat="40.072842" lon="-105.230575">
  <ele>1586.09</ele>
  <time>2026-08-27T18:24:48Z</time>
  <course>11.52</course>
  <speed>0.03605551275463989</speed>
  <fix>3d</fix>
</trkpt>
<trkpt lat="40.072842" lon="-105.230575">
  <ele>1586.09</ele>
  <time>2026-08-27T18:24:48Z</time>
  <course>266.03</course>
  <speed>0.0</speed>
  <fix>3d</fix>
</trkpt>
<trkpt lat="40.072842" lon="-105.230575">
  <ele>1586.09</ele>
  <time>2026-08-27T18:24:48Z</time>
  <course>11.51</course>
  <speed>0.03605551275463989</speed>
  <fix>3d</fix>
</trkpt>
<trkpt lat="40.072842" lon="-105.230575">
  <ele>1586.09</ele>
  <time>2026-08-27T18:24:48Z</time>
  <course>266.03</course>
  <speed>0.0</speed>
  <fix>3d</fix>
</trkpt>
<trkpt lat="40.072842" lon="-105.230575">
  <ele>1586.09</ele>
  <time>2026-08-27T18:24:48Z</time>
  <course>11.51</course>
  <speed>0.044721359549995794</speed>
  <fix>3d</fix>
</trkpt>
<trkpt lat="40.072842" lon="-105.230575">
  <ele>1586.09</ele>
  <time>2026-08-27T18:24:48Z</time>
  <course>266.03</course>
  <speed>0.0</speed>
  <fix>3d</fix>
</trkpt>
<trkpt lat="40.072842" lon="-105.230575">
  <ele>1586.09</ele>
  <time>2026-08-27T18:24:48Z</time>
  <course>11.5</course>
  <speed>0.044721359549995794</speed>
  <fix>3d</fix>
</trkpt>
<trkpt lat="40.072842" lon="-105.230575">
  <ele>1586.09</ele>
  <time>2026-08-27T18:24:48Z</time>
  <course>266.03</course>
  <speed>0.0</speed>
  <fix>3d</fix>
</trkpt>
<trkpt lat="40.072842" lon="-105.230575">
  <ele>1586.09</ele>
  <time>2026-08-27T18:24:48Z</time>
  <course>11.49</course>
  <speed>0.044721359549995794</speed>
  <fix>3d</fix>
</trkpt>
<trkpt lat="40.072842" lon="-105.230575">
  <ele>1586.09</ele>
  <time>2026-08-27T18:24:48Z</time>
  <course>266.03</course>
  <speed>0.0</speed>
  <fix>3d</fix>
</trkpt>
<trkpt lat="40.072842" lon="-105.230575">
  <ele>1586.09</ele>
  <time>2026-08-27T18:24:48Z</time>
  <course>11.49</course>
  <speed>0.044721359549995794</speed>
  <fix>3d</fix>
</trkpt>
<trkpt lat="40.072842" lon="-105.230575">
  <ele>1586.09</ele>
  <time>2026-08-27T18:24:48Z</time>
  <course>266.03</course>
  <speed>0.0</speed>
  <fix>3d</fix>
</trkpt>
<trkpt lat="40.072842" lon="-105.230575">
  <ele>1586.09</ele>
  <time>2026-08-27T18:24:48Z</time>
  <course>11.48</course>
  <speed>0.044721359549995794</speed>
  <fix>3d</fix>
</trkpt>
<trkpt lat="40.072842" lon="-105.230575">
  <ele>1586.09</ele>
  <time>2026-08-27T18:24:48Z</time>
  <course>266.03</course>
  <speed>0.0</speed>
  <fix>3d</fix>
</trkpt>
<trkpt lat="40.072842" lon="-105.230575">
  <ele>1586.09</ele>
  <time>2026-08-27T18:24:48Z</time>
  <course>11.48</course>
  <speed>0.044721359549995794</speed>
  <fix>3d</fix>
</trkpt>
<trkpt lat="40.072842" lon="-105.230575">
  <ele>1586.09</ele>
  <time>2026-08-27T18:24:48Z</time>
  <course>266.03</course>
  <speed>0.0</speed>
  <fix>3d</fix>
</trkpt>
<trkpt lat="40.072842" lon="-105.230575">
  <ele>1586.09</ele>
  <time>2026-08-27T18:24:48Z</time>
  <course>11.47</course>
  <speed>0.044721359549995794</speed>
  <fix>3d</fix>
</trkpt>
<trkpt lat="40.072842" lon="-105.230575">
  <ele>1586.09</ele>
  <time>2026-08-27T18:24:48Z</time>
  <course>266.03</course>
  <speed>0.0</speed>
  <fix>3d</fix>
</trkpt>
<trkpt lat="40.072842" lon="-105.230575">
  <ele>1586.09</ele>
  <time>2026-08-27T18:24:48Z</time>
  <course>11.47</course>
  <speed>0.044721359549995794</speed>
  <fix>3d</fix>
</trkpt>
<trkpt lat="40.072842" lon="-105.230575">
  <ele>1586.09</ele>
  <time>2026-08-27T18:24:48Z</time>
  <course>266.03</course>
  <speed>0.0</speed>
  <fix>3d</fix>
</trkpt>
<trkpt lat="40.072842" lon="-105.230575">
  <ele>1586.09</ele>
  <time>2026-08-27T18:24:48Z</time>
  <course>11.46</course>
  <speed>0.044721359549995794</speed>
  <fix>3d</fix>
</trkpt>
<trkpt lat="40.072842" lon="-105.230575">
  <ele>1586.09</ele>
  <time>2026-08-27T18:24:48Z</time>
  <course>266.03</course>
  <speed>0.0</speed>
  <fix>3d</fix>
</trkpt>
<trkpt lat="40.072842" lon="-105.230575">
  <ele>1586.09</ele>
  <time>2026-08-27T18:24:48Z</time>
  <course>11.46</course>
  <speed>0.044721359549995794</speed>
  <fix>3d</fix>
</trkpt>
<trkpt lat="40.072842" lon="-105.230575">
  <ele>1586.09</ele>
  <time>2026-08-27T18:24:48Z</time>
  <course>266.03</course>
  <speed>0.0</speed>
  <fix>3d</fix>
</trkpt>
<trkpt lat="40.072842" lon="-105.230575">
  <ele>1586.16</ele>
  <time>2026-08-27T18:24:48Z</time>
  <course>11.45</course>
  <speed>0.0</speed>
  <fix>3d</fix>
</trkpt>
<trkpt lat="40.072842" lon="-105.230575">
  <ele>1586.09</ele>
  <time>2026-08-27T18:24:48Z</time>
  <course>297.19</course>
  <speed>0.0</speed>
  <fix>3d</fix>
</trkpt>
<trkpt lat="40.072842" lon="-105.230575">
  <ele>1586.16</ele>
  <time>2026-08-27T18:24:48Z</time>
  <course>11.45</course>
  <speed>0.0</speed>
  <fix>3d</fix>
</trkpt>
<trkpt lat="40.072842" lon="-105.230575">
  <ele>1586.09</ele>
  <time>2026-08-27T18:24:48Z</time>
  <course>269.87</course>
  <speed>0.0</speed>
  <fix>3d</fix>
</trkpt>
<trkpt lat="40.072842" lon="-105.230575">
  <ele>1586.16</ele>
  <time>2026-08-27T18:24:48Z</time>
  <course>11.44</course>
  <speed>0.0</speed>
  <fix>3d</fix>
</trkpt>
<trkpt lat="40.072842" lon="-105.230575">
  <ele>1586.09</ele>
  <time>2026-08-27T18:24:48Z</time>
  <course>241.23</course>
  <speed>0.0</speed>
  <fix>3d</fix>
</trkpt>
<trkpt lat="40.072842" lon="-105.230575">
  <ele>1586.16</ele>
  <time>2026-08-27T18:24:48Z</time>
  <course>11.44</course>
  <speed>0.0</speed>
  <fix>3d</fix>
</trkpt>
<trkpt lat="40.072842" lon="-105.230575">
  <ele>1586.09</ele>
  <time>2026-08-27T18:24:48Z</time>
  <course>93.08</course>
  <speed>0.0</speed>
  <fix>3d</fix>
</trkpt>
<trkpt lat="40.072842" lon="-105.230575">
  <ele>1586.17</ele>
  <time>2026-08-27T18:24:48Z</time>
  <course>11.44</course>
  <speed>0.0</speed>
  <fix>3d</fix>
</trkpt>
<trkpt lat="40.072842" lon="-105.230575">
  <ele>1586.09</ele>
  <time>2026-08-27T18:24:48Z</time>
  <course>317.31</course>
  <speed>0.0</speed>
  <fix>3d</fix>
</trkpt>
<trkpt lat="40.072842" lon="-105.230575">
  <ele>1586.17</ele>
  <time>2026-08-27T18:24:48Z</time>
  <course>11.43</course>
  <speed>0.01</speed>
  <fix>3d</fix>
</trkpt>
<trkpt lat="40.072842" lon="-105.230575">
  <ele>1586.09</ele>
  <time>2026-08-27T18:24:48Z</time>
  <course>265.24</course>
  <speed>0.0</speed>
  <fix>3d</fix>
</trkpt>
<trkpt lat="40.072842" lon="-105.230575">
  <ele>1586.17</ele>
  <time>2026-08-27T18:24:48Z</time>
  <course>11.43</course>
  <speed>0.01</speed>
  <fix>3d</fix>
</trkpt>
<trkpt lat="40.072842" lon="-105.230575">
  <ele>1586.09</ele>
  <time>2026-08-27T18:24:48Z</time>
  <course>261.76</course>
  <speed>0.0</speed>
  <fix>3d</fix>
</trkpt>
<trkpt lat="40.072842" lon="-105.230575">
  <ele>1586.17</ele>
  <time>2026-08-27T18:24:48Z</time>
  <course>11.42</course>
  <speed>0.01</speed>
  <fix>3d</fix>
</trkpt>
<trkpt lat="40.072842" lon="-105.230575">
  <ele>1586.09</ele>
  <time>2026-08-27T18:24:48Z</time>
  <course>266.78</course>
  <speed>0.0</speed>
  <fix>3d</fix>
</trkpt>
<trkpt lat="40.072842" lon="-105.230575">
  <ele>1586.17</ele>
  <time>2026-08-27T18:24:48Z</time>
  <course>11.42</course>
  <speed>0.01414213562373095</speed>
  <fix>3d</fix>
</trkpt>
<trkpt lat="40.072842" lon="-105.230575">
  <ele>1586.09</ele>
  <time>2026-08-27T18:24:48Z</time>
  <course>266.53</course>
  <speed>0.0</speed>
  <fix>3d</fix>
</trkpt>
<trkpt lat="40.072842" lon="-105.230575">
  <ele>1586.17</ele>
  <time>2026-08-27T18:24:48Z</time>
  <course>11.42</course>
  <speed>0.01414213562373095</speed>
  <fix>3d</fix>
</trkpt>
<trkpt lat="40.072842" lon="-105.230575">
  <ele>1586.09</ele>
  <time>2026-08-27T18:24:48Z</time>
  <course>265.88</course>
  <speed>0.0</speed>
  <fix>3d</fix>
</trkpt>
<trkpt lat="40.072842" lon="-105.230575">
  <ele>1586.17</ele>
  <time>2026-08-27T18:24:48Z</time>
  <course>11.41</course>
  <speed>0.01414213562373095</speed>
  <fix>3d</fix>
</trkpt>
<trkpt lat="40.072842" lon="-105.230575">
  <ele>1586.09</ele>
  <time>2026-08-27T18:24:48Z</time>
  <course>265.99</course>
  <speed>0.0</speed>
  <fix>3d</fix>
</trkpt>
<trkpt lat="40.072842" lon="-105.230575">
  <ele>1586.17</ele>
  <time>2026-08-27T18:24:48Z</time>
  <course>11.41</course>
  <speed>0.022360679774997897</speed>
  <fix>3d</fix>
</trkpt>
<trkpt lat="40.072842" lon="-105.230575">
  <ele>1586.09</ele>
  <time>2026-08-27T18:24:48Z</time>
  <course>266.06</course>
  <speed>0.0</speed>
  <fix>3d</fix>
</trkpt>
<trkpt lat="40.072842" lon="-105.230575">
  <ele>1586.17</ele>
  <time>2026-08-27T18:24:48Z</time>
  <course>11.4</course>
  <speed>0.022360679774997897</speed>
  <fix>3d</fix>
</trkpt>
<trkpt lat="40.072842" lon="-105.230575">
  <ele>1586.09</ele>
  <time>2026-08-27T18:24:48Z</time>
  <course>266.04</course>
  <speed>0.0</speed>
  <fix>3d</fix>
</trkpt>
<trkpt lat="40.072842" lon="-105.230575">
  <ele>1586.17</ele>
  <time>2026-08-27T18:24:48Z</time>
  <course>11.4</course>
  <speed>0.022360679774997897</speed>
  <fix>3d</fix>
</trkpt>
<trkpt lat="40.072842" lon="-105.230575">
  <ele>1586.09</ele>
  <time>2026-08-27T18:24:48Z</time>
  <course>266.03</course>
  <speed>0.0</speed>
  <fix>3d</fix>
</trkpt>
<trkpt lat="40.072842" lon="-105.230575">
  <ele>1586.17</ele>
  <time>2026-08-27T18:24:48Z</time>
  <course>11.4</course>
  <speed>0.022360679774997897</speed>
  <fix>3d</fix>
</trkpt>
<trkpt lat="40.072842" lon="-105.230575">
  <ele>1586.09</ele>
  <time>2026-08-27T18:24:48Z</time>
  <course>266.04</course>
  <speed>0.0</speed>
  <fix>3d</fix>
</trkpt>
<trkpt lat="40.0728419" lon="-105.230575">
  <ele>1586.17</ele>
  <time>2026-08-27T18:24:48Z</time>
  <course>11.39</course>
  <speed>0.022360679774997897</speed>
  <fix>3d</fix>
</trkpt>
<trkpt lat="40.072842" lon="-105.230575">
  <ele>1586.09</ele>
  <time>2026-08-27T18:24:48Z</time>
  <course>266.04</course>
  <speed>0.0</speed>
  <fix>3d</fix>
</trkpt>
<trkpt lat="40.0728419" lon="-105.230575">
  <ele>1586.17</ele>
  <time>2026-08-27T18:24:48Z</time>
  <course>11.39</course>
  <speed>0.022360679774997897</speed>
  <fix>3d</fix>
</trkpt>
<trkpt lat="40.072842" lon="-105.230575">
  <ele>1586.09</ele>
  <time>2026-08-27T18:24:48Z</time>
  <course>266.03</course>
  <speed>0.0</speed>
  <fix>3d</fix>
</trkpt>
<trkpt lat="40.0728419" lon="-105.2305749">
  <ele>1586.17</ele>
  <time>2026-08-27T18:24:48Z</time>
  <course>11.38</course>
  <speed>0.022360679774997897</speed>
  <fix>3d</fix>
</trkpt>
<trkpt lat="40.072842" lon="-105.230575">
  <ele>1586.09</ele>
  <time>2026-08-27T18:24:48Z</time>
  <course>266.03</course>
  <speed>0.0</speed>
  <fix>3d</fix>
</trkpt>
<trkpt lat="40.0728419" lon="-105.2305749">
  <ele>1586.18</ele>
  <time>2026-08-27T18:24:48Z</time>
  <course>11.38</course>
  <speed>0.022360679774997897</speed>
  <fix>3d</fix>
</trkpt>
<trkpt lat="40.072842" lon="-105.230575">
  <ele>1586.09</ele>
  <time>2026-08-27T18:24:48Z</time>
  <course>266.04</course>
  <speed>0.0</speed>
  <fix>3d</fix>
</trkpt>
<trkpt lat="40.0728419" lon="-105.2305749">
  <ele>1586.18</ele>
  <time>2026-08-27T18:24:48Z</time>
  <course>11.37</course>
  <speed>0.022360679774997897</speed>
  <fix>3d</fix>
</trkpt>
<trkpt lat="40.072842" lon="-105.230575">
  <ele>1586.09</ele>
  <time>2026-08-27T18:24:48Z</time>
  <course>266.04</course>
  <speed>0.0</speed>
  <fix>3d</fix>
</trkpt>
<trkpt lat="40.0728419" lon="-105.2305749">
  <ele>1586.18</ele>
  <time>2026-08-27T18:24:48Z</time>
  <course>11.37</course>
  <speed>0.022360679774997897</speed>
  <fix>3d</fix>
</trkpt>
<trkpt lat="40.072842" lon="-105.230575">
  <ele>1586.09</ele>
  <time>2026-08-27T18:24:48Z</time>
  <course>178.09</course>
  <speed>0.0</speed>
  <fix>3d</fix>
</trkpt>
<trkpt lat="40.0728419" lon="-105.2305749">
  <ele>1586.17</ele>
  <time>2026-08-27T18:24:48Z</time>
  <course>11.37</course>
  <speed>0.022360679774997897</speed>
  <fix>3d</fix>
</trkpt>
<trkpt lat="40.072842" lon="-105.230575">
  <ele>1586.09</ele>
  <time>2026-08-27T18:24:48Z</time>
  <course>82.55</course>
  <speed>0.0</speed>
  <fix>3d</fix>
</trkpt>
<trkpt lat="40.0728419" lon="-105.2305749">
  <ele>1586.17</ele>
  <time>2026-08-27T18:24:48Z</time>
  <course>11.36</course>
  <speed>0.022360679774997897</speed>
  <fix>3d</fix>
</trkpt>
<trkpt lat="40.072842" lon="-105.230575">
  <ele>1586.09</ele>
  <time>2026-08-27T18:24:48Z</time>
  <course>70.11</course>
  <speed>0.0</speed>
  <fix>3d</fix>
</trkpt>
<trkpt lat="40.0728419" lon="-105.2305749">
  <ele>1586.17</ele>
  <time>2026-08-27T18:24:48Z</time>
  <course>11.36</course>
  <speed>0.022360679774997897</speed>
  <fix>3d</fix>
</trkpt>
<trkpt lat="40.072842" lon="-105.230575">
  <ele>1586.09</ele>
  <time>2026-08-27T18:24:48Z</time>
  <course>280.93</course>
  <speed>0.0</speed>
  <fix>3d</fix>
</trkpt>
<trkpt lat="40.0728419" lon="-105.2305749">
  <ele>1586.17</ele>
  <time>2026-08-27T18:24:48Z</time>
  <course>11.35</course>
  <speed>0.022360679774997897</speed>
  <fix>3d</fix>
</trkpt>
<trkpt lat="40.072842" lon="-105.230575">
  <ele>1586.09</ele>
  <time>2026-08-27T18:24:48Z</time>
  <course>245.32</course>
  <speed>0.0</speed>
  <fix>3d</fix>
</trkpt>
<trkpt lat="40.0728419" lon="-105.2305749">
  <ele>1586.16</ele>
  <time>2026-08-27T18:24:48Z</time>
  <course>11.35</course>
  <speed>0.01414213562373095</speed>
  <fix>3d</fix>
</trkpt>
<trkpt lat="40.072842" lon="-105.230575">
  <ele>1586.09</ele>
  <time>2026-08-27T18:24:48Z</time>
  <course>117.15</course>
  <speed>0.0</speed>
  <fix>3d</fix>
</trkpt>
<trkpt lat="40.0728419" lon="-105.2305749">
  <ele>1586.16</ele>
  <time>2026-08-27T18:24:48Z</time>
  <course>11.34</course>
  <speed>0.01414213562373095</speed>
  <fix>3d</fix>
</trkpt>
<trkpt lat="40.072842" lon="-105.230575">
  <ele>1586.09</ele>
  <time>2026-08-27T18:24:48Z</time>
  <course>279.17</course>
  <speed>0.0</speed>
  <fix>3d</fix>
</trkpt>
<trkpt lat="40.0728419" lon="-105.2305749">
  <ele>1586.16</ele>
  <time>2026-08-27T18:24:48Z</time>
  <course>11.34</course>
  <speed>0.01414213562373095</speed>
  <fix>3d</fix>
</trkpt>
<trkpt lat="40.072842" lon="-105.230575">
  <ele>1586.09</ele>
  <time>2026-08-27T18:24:48Z</time>
  <course>265.73</course>
  <speed>0.0</speed>
  <fix>3d</fix>
</trkpt>
<trkpt lat="40.0728419" lon="-105.2305749">
  <ele>1586.16</ele>
  <time>2026-08-27T18:24:48Z</time>
  <course>11.33</course>
  <speed>0.01414213562373095</speed>
  <fix>3d</fix>
</trkpt>
<trkpt lat="40.072842" lon="-105.230575">
  <ele>1586.09</ele>
  <time>2026-08-27T18:24:48Z</time>
  <course>264.62</course>
  <speed>0.0</speed>
  <fix>3d</fix>
</trkpt>
<trkpt lat="40.0728419" lon="-105.2305749">
  <ele>1586.16</ele>
  <time>2026-08-27T18:24:48Z</time>
  <course>11.33</course>
  <speed>0.01414213562373095</speed>
  <fix>3d</fix>
</trkpt>
<trkpt lat="40.072842" lon="-105.230575">
  <ele>1586.09</ele>
  <time>2026-08-27T18:24:48Z</time>
  <course>266.26</course>
  <speed>0.0</speed>
  <fix>3d</fix>
</trkpt>
<trkpt lat="40.0728419" lon="-105.2305749">
  <ele>1586.15</ele>
  <time>2026-08-27T18:24:48Z</time>
  <course>11.32</course>
  <speed>0.01414213562373095</speed>
  <fix>3d</fix>
</trkpt>
<trkpt lat="40.072842" lon="-105.230575">
  <ele>1586.09</ele>
  <time>2026-08-27T18:24:48Z</time>
  <course>266.2</course>
  <speed>0.0</speed>
  <fix>3d</fix>
</trkpt>
<trkpt lat="40.0728419" lon="-105.2305749">
  <ele>1586.15</ele>
  <time>2026-08-27T18:24:48Z</time>
  <course>11.32</course>
  <speed>0.01414213562373095</speed>
  <fix>3d</fix>
</trkpt>
<trkpt lat="40.072842" lon="-105.230575">
  <ele>1586.09</ele>
  <time>2026-08-27T18:24:48Z</time>
  <course>265.99</course>
  <speed>0.0</speed>
  <fix>3d</fix>
</trkpt>
<trkpt lat="40.0728419" lon="-105.2305749">
  <ele>1586.15</ele>
  <time>2026-08-27T18:24:48Z</time>
  <course>11.31</course>
  <speed>0.01414213562373095</speed>
  <fix>3d</fix>
</trkpt>
<trkpt lat="40.072842" lon="-105.230575">
  <ele>1586.09</ele>
  <time>2026-08-27T18:24:48Z</time>
  <course>266.02</course>
  <speed>0.0</speed>
  <fix>3d</fix>
</trkpt>
<trkpt lat="40.0728419" lon="-105.2305749">
  <ele>1586.15</ele>
  <time>2026-08-27T18:24:48Z</time>
  <course>11.31</course>
  <speed>0.01414213562373095</speed>
  <fix>3d</fix>
</trkpt>
<trkpt lat="40.072842" lon="-105.230575">
  <ele>1586.09</ele>
  <time>2026-08-27T18:24:48Z</time>
  <course>266.04</course>
  <speed>0.0</speed>
  <fix>3d</fix>
</trkpt>
<trkpt lat="40.0728419" lon="-105.2305749">
  <ele>1586.15</ele>
  <time>2026-08-27T18:24:48Z</time>
  <course>11.3</course>
  <speed>0.01414213562373095</speed>
  <fix>3d</fix>
</trkpt>
<trkpt lat="40.072842" lon="-105.230575">
  <ele>1586.09</ele>
  <time>2026-08-27T18:24:48Z</time>
  <course>266.04</course>
  <speed>0.0</speed>
  <fix>3d</fix>
</trkpt>
<trkpt lat="40.0728419" lon="-105.2305749">
  <ele>1586.16</ele>
  <time>2026-08-27T18:24:48Z</time>
  <course>11.3</course>
  <speed>0.01414213562373095</speed>
  <fix>3d</fix>
</trkpt>
<trkpt lat="40.072842" lon="-105.230575">
  <ele>1586.09</ele>
  <time>2026-08-27T18:24:48Z</time>
  <course>266.03</course>
  <speed>0.0</speed>
  <fix>3d</fix>
</trkpt>
<trkpt lat="40.0728419" lon="-105.2305749">
  <ele>1586.16</ele>
  <time>2026-08-27T18:24:48Z</time>
  <course>11.3</course>
  <speed>0.01414213562373095</speed>
  <fix>3d</fix>
</trkpt>
<trkpt lat="40.072842" lon="-105.230575">
  <ele>1586.09</ele>
  <time>2026-08-27T18:24:48Z</time>
  <course>266.03</course>
  <speed>0.0</speed>
  <fix>3d</fix>
</trkpt>
<trkpt lat="40.0728419" lon="-105.2305749">
  <ele>1586.16</ele>
  <time>2026-08-27T18:24:48Z</time>
  <course>11.29</course>
  <speed>0.01414213562373095</speed>
  <fix>3d</fix>
</trkpt>
<trkpt lat="40.072842" lon="-105.230575">
  <ele>1586.09</ele>
  <time>2026-08-27T18:24:48Z</time>
  <course>266.03</course>
  <speed>0.0</speed>
  <fix>3d</fix>
</trkpt>
<trkpt lat="40.0728419" lon="-105.2305749">
  <ele>1586.16</ele>
  <time>2026-08-27T18:24:49Z</time>
  <course>11.29</course>
  <speed>0.01414213562373095</speed>
  <fix>3d</fix>
</trkpt>
<trkpt lat="40.072842" lon="-105.230575">
  <ele>1586.09</ele>
  <time>2026-08-27T18:24:49Z</time>
  <course>266.03</course>
  <speed>0.0</speed>
  <fix>3d</fix>
</trkpt>
<trkpt lat="40.0728419" lon="-105.2305749">
  <ele>1586.16</ele>
  <time>2026-08-27T18:24:49Z</time>
  <course>11.28</course>
  <speed>0.01414213562373095</speed>
  <fix>3d</fix>
</trkpt>
<trkpt lat="40.072842" lon="-105.230575">
  <ele>1586.09</ele>
  <time>2026-08-27T18:24:49Z</time>
  <course>266.03</course>
  <speed>0.0</speed>
  <fix>3d</fix>
</trkpt>
<trkpt lat="40.0728419" lon="-105.2305749">
  <ele>1586.15</ele>
  <time>2026-08-27T18:24:49Z</time>
  <course>11.28</course>
  <speed>0.01414213562373095</speed>
  <fix>3d</fix>
</trkpt>
<trkpt lat="40.072842" lon="-105.230575">
  <ele>1586.09</ele>
  <time>2026-08-27T18:24:49Z</time>
  <course>266.03</course>
  <speed>0.0</speed>
  <fix>3d</fix>
</trkpt>
<trkpt lat="40.0728419" lon="-105.2305749">
  <ele>1586.15</ele>
  <time>2026-08-27T18:24:49Z</time>
  <course>11.27</course>
  <speed>0.01414213562373095</speed>
  <fix>3d</fix>
</trkpt>
<trkpt lat="40.072842" lon="-105.230575">
  <ele>1586.09</ele>
  <time>2026-08-27T18:24:49Z</time>
  <course>266.03</course>
  <speed>0.0</speed>
  <fix>3d</fix>
</trkpt>
<trkpt lat="40.0728419" lon="-105.2305749">
  <ele>1586.15</ele>
  <time>2026-08-27T18:24:49Z</time>
  <course>11.27</course>
  <speed>0.01414213562373095</speed>
  <fix>3d</fix>
</trkpt>
<trkpt lat="40.072842" lon="-105.230575">
  <ele>1586.09</ele>
  <time>2026-08-27T18:24:49Z</time>
  <course>266.03</course>
  <speed>0.0</speed>
  <fix>3d</fix>
</trkpt>
<trkpt lat="40.0728419" lon="-105.2305749">
  <ele>1586.15</ele>
  <time>2026-08-27T18:24:49Z</time>
  <course>11.26</course>
  <speed>0.01414213562373095</speed>
  <fix>3d</fix>
</trkpt>
<trkpt lat="40.072842" lon="-105.230575">
  <ele>1586.09</ele>
  <time>2026-08-27T18:24:49Z</time>
  <course>266.03</course>
  <speed>0.0</speed>
  <fix>3d</fix>
</trkpt>
<trkpt lat="40.0728419" lon="-105.2305749">
  <ele>1586.15</ele>
  <time>2026-08-27T18:24:49Z</time>
  <course>11.26</course>
  <speed>0.01414213562373095</speed>
  <fix>3d</fix>
</trkpt>
<trkpt lat="40.072842" lon="-105.230575">
  <ele>1586.09</ele>
  <time>2026-08-27T18:24:49Z</time>
  <course>266.03</course>
  <speed>0.0</speed>
  <fix>3d</fix>
</trkpt>
<trkpt lat="40.0728419" lon="-105.2305749">
  <ele>1586.16</ele>
  <time>2026-08-27T18:24:49Z</time>
  <course>11.25</course>
  <speed>0.01414213562373095</speed>
  <fix>3d</fix>
</trkpt>
<trkpt lat="40.072842" lon="-105.230575">
  <ele>1586.09</ele>
  <time>2026-08-27T18:24:49Z</time>
  <course>266.03</course>
  <speed>0.0</speed>
  <fix>3d</fix>
</trkpt>
<trkpt lat="40.0728419" lon="-105.2305749">
  <ele>1586.16</ele>
  <time>2026-08-27T18:24:49Z</time>
  <course>11.25</course>
  <speed>0.01414213562373095</speed>
  <fix>3d</fix>
</trkpt>
<trkpt lat="40.072842" lon="-105.230575">
  <ele>1586.09</ele>
  <time>2026-08-27T18:24:49Z</time>
  <course>266.03</course>
  <speed>0.0</speed>
  <fix>3d</fix>
</trkpt>
<trkpt lat="40.0728419" lon="-105.2305749">
  <ele>1586.17</ele>
  <time>2026-08-27T18:24:49Z</time>
  <course>11.25</course>
  <speed>0.01414213562373095</speed>
  <fix>3d</fix>
</trkpt>
<trkpt lat="40.072842" lon="-105.230575">
  <ele>1586.09</ele>
  <time>2026-08-27T18:24:49Z</time>
  <course>266.03</course>
  <speed>0.0</speed>
  <fix>3d</fix>
</trkpt>
<trkpt lat="40.0728419" lon="-105.2305749">
  <ele>1586.17</ele>
  <time>2026-08-27T18:24:49Z</time>
  <course>11.24</course>
  <speed>0.01414213562373095</speed>
  <fix>3d</fix>
</trkpt>
<trkpt lat="40.072842" lon="-105.230575">
  <ele>1586.09</ele>
  <time>2026-08-27T18:24:49Z</time>
  <course>266.03</course>
  <speed>0.0</speed>
  <fix>3d</fix>
</trkpt>
<trkpt lat="40.0728419" lon="-105.2305749">
  <ele>1586.17</ele>
  <time>2026-08-27T18:24:49Z</time>
  <course>11.24</course>
  <speed>0.01414213562373095</speed>
  <fix>3d</fix>
</trkpt>
<trkpt lat="40.072842" lon="-105.230575">
  <ele>1586.09</ele>
  <time>2026-08-27T18:24:49Z</time>
  <course>266.03</course>
  <speed>0.0</speed>
  <fix>3d</fix>
</trkpt>
<trkpt lat="40.0728419" lon="-105.2305749">
  <ele>1586.17</ele>
  <time>2026-08-27T18:24:49Z</time>
  <course>11.23</course>
  <speed>0.01414213562373095</speed>
  <fix>3d</fix>
</trkpt>
<trkpt lat="40.072842" lon="-105.230575">
  <ele>1586.09</ele>
  <time>2026-08-27T18:24:49Z</time>
  <course>266.03</course>
  <speed>0.0</speed>
  <fix>3d</fix>
</trkpt>
<trkpt lat="40.0728419" lon="-105.2305749">
  <ele>1586.17</ele>
  <time>2026-08-27T18:24:49Z</time>
  <course>11.23</course>
  <speed>0.01414213562373095</speed>
  <fix>3d</fix>
</trkpt>
<trkpt lat="40.072842" lon="-105.230575">
  <ele>1586.09</ele>
  <time>2026-08-27T18:24:49Z</time>
  <course>266.03</course>
  <speed>0.0</speed>
  <fix>3d</fix>
</trkpt>
<trkpt lat="40.0728419" lon="-105.2305749">
  <ele>1586.17</ele>
  <time>2026-08-27T18:24:49Z</time>
  <course>11.23</course>
  <speed>0.01414213562373095</speed>
  <fix>3d</fix>
</trkpt>
<trkpt lat="40.072842" lon="-105.230575">
  <ele>1586.09</ele>
  <time>2026-08-27T18:24:49Z</time>
  <course>266.03</course>
  <speed>0.0</speed>
  <fix>3d</fix>
</trkpt>
<trkpt lat="40.0728419" lon="-105.2305749">
  <ele>1586.17</ele>
  <time>2026-08-27T18:24:49Z</time>
  <course>11.22</course>
  <speed>0.01414213562373095</speed>
  <fix>3d</fix>
</trkpt>
<trkpt lat="40.072842" lon="-105.230575">
  <ele>1586.09</ele>
  <time>2026-08-27T18:24:49Z</time>
  <course>266.03</course>
  <speed>0.0</speed>
  <fix>3d</fix>
</trkpt>
<trkpt lat="40.0728419" lon="-105.2305749">
  <ele>1586.17</ele>
  <time>2026-08-27T18:24:49Z</time>
  <course>11.22</course>
  <speed>0.01414213562373095</speed>
  <fix>3d</fix>
</trkpt>
<trkpt lat="40.072842" lon="-105.230575">
  <ele>1586.09</ele>
  <time>2026-08-27T18:24:49Z</time>
  <course>266.03</course>
  <speed>0.0</speed>
  <fix>3d</fix>
</trkpt>
<trkpt lat="40.0728419" lon="-105.2305749">
  <ele>1586.17</ele>
  <time>2026-08-27T18:24:49Z</time>
  <course>11.21</course>
  <speed>0.01414213562373095</speed>
  <fix>3d</fix>
</trkpt>
<trkpt lat="40.072842" lon="-105.230575">
  <ele>1586.09</ele>
  <time>2026-08-27T18:24:49Z</time>
  <course>266.03</course>
  <speed>0.0</speed>
  <fix>3d</fix>
</trkpt>
<trkpt lat="40.0728419" lon="-105.2305749">
  <ele>1586.17</ele>
  <time>2026-08-27T18:24:49Z</time>
  <course>11.21</course>
  <speed>0.01414213562373095</speed>
  <fix>3d</fix>
</trkpt>
<trkpt lat="40.072842" lon="-105.230575">
  <ele>1586.09</ele>
  <time>2026-08-27T18:24:49Z</time>
  <course>266.03</course>
  <speed>0.0</speed>
  <fix>3d</fix>
</trkpt>
<trkpt lat="40.0728419" lon="-105.2305749">
  <ele>1586.17</ele>
  <time>2026-08-27T18:24:49Z</time>
  <course>11.21</course>
  <speed>0.01414213562373095</speed>
  <fix>3d</fix>
</trkpt>
<trkpt lat="40.072842" lon="-105.230575">
  <ele>1586.09</ele>
  <time>2026-08-27T18:24:49Z</time>
  <course>266.03</course>
  <speed>0.0</speed>
  <fix>3d</fix>
</trkpt>
<trkpt lat="40.0728419" lon="-105.2305749">
  <ele>1586.17</ele>
  <time>2026-08-27T18:24:49Z</time>
  <course>11.2</course>
  <speed>0.01414213562373095</speed>
  <fix>3d</fix>
</trkpt>
<trkpt lat="40.072842" lon="-105.230575">
  <ele>1586.09</ele>
  <time>2026-08-27T18:24:49Z</time>
  <course>266.03</course>
  <speed>0.0</speed>
  <fix>3d</fix>
</trkpt>
<trkpt lat="40.0728419" lon="-105.2305749">
  <ele>1586.16</ele>
  <time>2026-08-27T18:24:49Z</time>
  <course>11.2</course>
  <speed>0.01414213562373095</speed>
  <fix>3d</fix>
</trkpt>
<trkpt lat="40.072842" lon="-105.230575">
  <ele>1586.09</ele>
  <time>2026-08-27T18:24:49Z</time>
  <course>266.03</course>
  <speed>0.0</speed>
  <fix>3d</fix>
</trkpt>
<trkpt lat="40.0728419" lon="-105.2305749">
  <ele>1586.16</ele>
  <time>2026-08-27T18:24:49Z</time>
  <course>11.2</course>
  <speed>0.01414213562373095</speed>
  <fix>3d</fix>
</trkpt>
<trkpt lat="40.072842" lon="-105.230575">
  <ele>1586.09</ele>
  <time>2026-08-27T18:24:49Z</time>
  <course>266.03</course>
  <speed>0.0</speed>
  <fix>3d</fix>
</trkpt>
<trkpt lat="40.0728419" lon="-105.2305749">
  <ele>1586.15</ele>
  <time>2026-08-27T18:24:49Z</time>
  <course>11.19</course>
  <speed>0.01414213562373095</speed>
  <fix>3d</fix>
</trkpt>
<trkpt lat="40.072842" lon="-105.230575">
  <ele>1586.09</ele>
  <time>2026-08-27T18:24:49Z</time>
  <course>266.03</course>
  <speed>0.0</speed>
  <fix>3d</fix>
</trkpt>
<trkpt lat="40.0728419" lon="-105.2305749">
  <ele>1586.15</ele>
  <time>2026-08-27T18:24:49Z</time>
  <course>11.19</course>
  <speed>0.01414213562373095</speed>
  <fix>3d</fix>
</trkpt>
<trkpt lat="40.072842" lon="-105.230575">
  <ele>1586.09</ele>
  <time>2026-08-27T18:24:49Z</time>
  <course>266.03</course>
  <speed>0.0</speed>
  <fix>3d</fix>
</trkpt>
<trkpt lat="40.0728419" lon="-105.2305749">
  <ele>1586.16</ele>
  <time>2026-08-27T18:24:49Z</time>
  <course>11.19</course>
  <speed>0.01414213562373095</speed>
  <fix>3d</fix>
</trkpt>
<trkpt lat="40.072842" lon="-105.230575">
  <ele>1586.09</ele>
  <time>2026-08-27T18:24:49Z</time>
  <course>266.03</course>
  <speed>0.0</speed>
  <fix>3d</fix>
</trkpt>
<trkpt lat="40.0728419" lon="-105.2305749">
  <ele>1586.16</ele>
  <time>2026-08-27T18:24:49Z</time>
  <course>11.18</course>
  <speed>0.01414213562373095</speed>
  <fix>3d</fix>
</trkpt>
<trkpt lat="40.072842" lon="-105.230575">
  <ele>1586.09</ele>
  <time>2026-08-27T18:24:49Z</time>
  <course>266.03</course>
  <speed>0.0</speed>
  <fix>3d</fix>
</trkpt>
<trkpt lat="40.0728419" lon="-105.2305749">
  <ele>1586.16</ele>
  <time>2026-08-27T18:24:49Z</time>
  <course>11.18</course>
  <speed>0.01414213562373095</speed>
  <fix>3d</fix>
</trkpt>
<trkpt lat="40.072842" lon="-105.230575">
  <ele>1586.09</ele>
  <time>2026-08-27T18:24:49Z</time>
  <course>266.03</course>
  <speed>0.0</speed>
  <fix>3d</fix>
</trkpt>
<trkpt lat="40.0728419" lon="-105.2305749">
  <ele>1586.16</ele>
  <time>2026-08-27T18:24:49Z</time>
  <course>11.17</course>
  <speed>0.01414213562373095</speed>
  <fix>3d</fix>
</trkpt>
<trkpt lat="40.072842" lon="-105.230575">
  <ele>1586.09</ele>
  <time>2026-08-27T18:24:49Z</time>
  <course>266.03</course>
  <speed>0.0</speed>
  <fix>3d</fix>
</trkpt>
<trkpt lat="40.0728419" lon="-105.2305749">
  <ele>1586.16</ele>
  <time>2026-08-27T18:24:49Z</time>
  <course>11.17</course>
  <speed>0.01414213562373095</speed>
  <fix>3d</fix>
</trkpt>
<trkpt lat="40.072842" lon="-105.230575">
  <ele>1586.09</ele>
  <time>2026-08-27T18:24:49Z</time>
  <course>266.03</course>
  <speed>0.0</speed>
  <fix>3d</fix>
</trkpt>
<trkpt lat="40.0728419" lon="-105.2305749">
  <ele>1586.17</ele>
  <time>2026-08-27T18:24:49Z</time>
  <course>11.17</course>
  <speed>0.01414213562373095</speed>
  <fix>3d</fix>
</trkpt>
<trkpt lat="40.072842" lon="-105.230575">
  <ele>1586.09</ele>
  <time>2026-08-27T18:24:49Z</time>
  <course>266.03</course>
  <speed>0.0</speed>
  <fix>3d</fix>
</trkpt>
<trkpt lat="40.0728419" lon="-105.2305749">
  <ele>1586.18</ele>
  <time>2026-08-27T18:24:49Z</time>
  <course>11.16</course>
  <speed>0.01414213562373095</speed>
  <fix>3d</fix>
</trkpt>
<trkpt lat="40.072842" lon="-105.230575">
  <ele>1586.09</ele>
  <time>2026-08-27T18:24:49Z</time>
  <course>266.03</course>
  <speed>0.0</speed>
  <fix>3d</fix>
</trkpt>
<trkpt lat="40.0728419" lon="-105.2305749">
  <ele>1586.18</ele>
  <time>2026-08-27T18:24:49Z</time>
  <course>11.16</course>
  <speed>0.01414213562373095</speed>
  <fix>3d</fix>
</trkpt>
<trkpt lat="40.072842" lon="-105.230575">
  <ele>1586.09</ele>
  <time>2026-08-27T18:24:49Z</time>
  <course>266.03</course>
  <speed>0.0</speed>
  <fix>3d</fix>
</trkpt>
<trkpt lat="40.0728419" lon="-105.2305749">
  <ele>1586.18</ele>
  <time>2026-08-27T18:24:49Z</time>
  <course>11.16</course>
  <speed>0.01414213562373095</speed>
  <fix>3d</fix>
</trkpt>
<trkpt lat="40.072842" lon="-105.230575">
  <ele>1586.09</ele>
  <time>2026-08-27T18:24:49Z</time>
  <course>266.03</course>
  <speed>0.0</speed>
  <fix>3d</fix>
</trkpt>
<trkpt lat="40.0728419" lon="-105.2305749">
  <ele>1586.18</ele>
  <time>2026-08-27T18:24:49Z</time>
  <course>11.16</course>
  <speed>0.01414213562373095</speed>
  <fix>3d</fix>
</trkpt>
<trkpt lat="40.072842" lon="-105.230575">
  <ele>1586.09</ele>
  <time>2026-08-27T18:24:49Z</time>
  <course>266.03</course>
  <speed>0.0</speed>
  <fix>3d</fix>
</trkpt>
<trkpt lat="40.0728419" lon="-105.2305749">
  <ele>1586.18</ele>
  <time>2026-08-27T18:24:49Z</time>
  <course>11.15</course>
  <speed>0.01414213562373095</speed>
  <fix>3d</fix>
</trkpt>
<trkpt lat="40.072842" lon="-105.230575">
  <ele>1586.09</ele>
  <time>2026-08-27T18:24:49Z</time>
  <course>266.03</course>
  <speed>0.0</speed>
  <fix>3d</fix>
</trkpt>
<trkpt lat="40.0728419" lon="-105.2305749">
  <ele>1586.17</ele>
  <time>2026-08-27T18:24:49Z</time>
  <course>11.15</course>
  <speed>0.01414213562373095</speed>
  <fix>3d</fix>
</trkpt>
<trkpt lat="40.072842" lon="-105.230575">
  <ele>1586.09</ele>
  <time>2026-08-27T18:24:49Z</time>
  <course>266.03</course>
  <speed>0.0</speed>
  <fix>3d</fix>
</trkpt>
<trkpt lat="40.0728419" lon="-105.2305749">
  <ele>1586.17</ele>
  <time>2026-08-27T18:24:49Z</time>
  <course>11.15</course>
  <speed>0.01414213562373095</speed>
  <fix>3d</fix>
</trkpt>
<trkpt lat="40.072842" lon="-105.230575">
  <ele>1586.09</ele>
  <time>2026-08-27T18:24:49Z</time>
  <course>266.03</course>
  <speed>0.0</speed>
  <fix>3d</fix>
</trkpt>
<trkpt lat="40.0728419" lon="-105.2305749">
  <ele>1586.17</ele>
  <time>2026-08-27T18:24:49Z</time>
  <course>11.14</course>
  <speed>0.01414213562373095</speed>
  <fix>3d</fix>
</trkpt>
<trkpt lat="40.072842" lon="-105.230575">
  <ele>1586.09</ele>
  <time>2026-08-27T18:24:49Z</time>
  <course>266.03</course>
  <speed>0.0</speed>
  <fix>3d</fix>
</trkpt>
<trkpt lat="40.0728419" lon="-105.2305749">
  <ele>1586.17</ele>
  <time>2026-08-27T18:24:49Z</time>
  <course>11.14</course>
  <speed>0.01414213562373095</speed>
  <fix>3d</fix>
</trkpt>
<trkpt lat="40.072842" lon="-105.230575">
  <ele>1586.09</ele>
  <time>2026-08-27T18:24:49Z</time>
  <course>266.03</course>
  <speed>0.0</speed>
  <fix>3d</fix>
</trkpt>
<trkpt lat="40.0728419" lon="-105.2305749">
  <ele>1586.17</ele>
  <time>2026-08-27T18:24:49Z</time>
  <course>11.14</course>
  <speed>0.01414213562373095</speed>
  <fix>3d</fix>
</trkpt>
<trkpt lat="40.072842" lon="-105.230575">
  <ele>1586.09</ele>
  <time>2026-08-27T18:24:49Z</time>
  <course>266.03</course>
  <speed>0.0</speed>
  <fix>3d</fix>
</trkpt>
<trkpt lat="40.0728419" lon="-105.2305749">
  <ele>1586.17</ele>
  <time>2026-08-27T18:24:49Z</time>
  <course>11.14</course>
  <speed>0.01414213562373095</speed>
  <fix>3d</fix>
</trkpt>
<trkpt lat="40.072842" lon="-105.230575">
  <ele>1586.09</ele>
  <time>2026-08-27T18:24:49Z</time>
  <course>266.03</course>
  <speed>0.0</speed>
  <fix>3d</fix>
</trkpt>
<trkpt lat="40.0728419" lon="-105.2305749">
  <ele>1586.17</ele>
  <time>2026-08-27T18:24:49Z</time>
  <course>11.13</course>
  <speed>0.01414213562373095</speed>
  <fix>3d</fix>
</trkpt>
<trkpt lat="40.072842" lon="-105.230575">
  <ele>1586.09</ele>
  <time>2026-08-27T18:24:49Z</time>
  <course>266.03</course>
  <speed>0.0</speed>
  <fix>3d</fix>
</trkpt>
<trkpt lat="40.0728419" lon="-105.2305749">
  <ele>1586.17</ele>
  <time>2026-08-27T18:24:49Z</time>
  <course>11.13</course>
  <speed>0.01414213562373095</speed>
  <fix>3d</fix>
</trkpt>
<trkpt lat="40.072842" lon="-105.230575">
  <ele>1586.09</ele>
  <time>2026-08-27T18:24:49Z</time>
  <course>266.03</course>
  <speed>0.0</speed>
  <fix>3d</fix>
</trkpt>
<trkpt lat="40.0728419" lon="-105.2305749">
  <ele>1586.16</ele>
  <time>2026-08-27T18:24:49Z</time>
  <course>11.13</course>
  <speed>0.01414213562373095</speed>
  <fix>3d</fix>
</trkpt>
<trkpt lat="40.072842" lon="-105.230575">
  <ele>1586.09</ele>
  <time>2026-08-27T18:24:49Z</time>
  <course>266.03</course>
  <speed>0.0</speed>
  <fix>3d</fix>
</trkpt>
<trkpt lat="40.0728419" lon="-105.2305749">
  <ele>1586.16</ele>
  <time>2026-08-27T18:24:49Z</time>
  <course>11.12</course>
  <speed>0.01414213562373095</speed>
  <fix>3d</fix>
</trkpt>
<trkpt lat="40.072842" lon="-105.230575">
  <ele>1586.09</ele>
  <time>2026-08-27T18:24:49Z</time>
  <course>266.03</course>
  <speed>0.0</speed>
  <fix>3d</fix>
</trkpt>
<trkpt lat="40.0728419" lon="-105.2305749">
  <ele>1586.16</ele>
  <time>2026-08-27T18:24:49Z</time>
  <course>11.12</course>
  <speed>0.01414213562373095</speed>
  <fix>3d</fix>
</trkpt>
<trkpt lat="40.072842" lon="-105.230575">
  <ele>1586.09</ele>
  <time>2026-08-27T18:24:49Z</time>
  <course>266.03</course>
  <speed>0.0</speed>
  <fix>3d</fix>
</trkpt>
<trkpt lat="40.0728419" lon="-105.2305749">
  <ele>1586.16</ele>
  <time>2026-08-27T18:24:49Z</time>
  <course>11.12</course>
  <speed>0.01414213562373095</speed>
  <fix>3d</fix>
</trkpt>
<trkpt lat="40.072842" lon="-105.230575">
  <ele>1586.09</ele>
  <time>2026-08-27T18:24:49Z</time>
  <course>266.03</course>
  <speed>0.0</speed>
  <fix>3d</fix>
</trkpt>
<trkpt lat="39.654938" lon="-104.1331666">
  <ele>1569.54</ele>
  <time>2026-08-27T18:24:50Z</time>
  <course>168.11</course>
  <speed>0.0</speed>
  <fix>3d</fix>
</trkpt>
<trkpt lat="40.072842" lon="-105.230575">
  <ele>1586.09</ele>
  <time>2026-08-27T18:24:50Z</time>
  <course>2.03</course>
  <speed>0.0</speed>
  <fix>3d</fix>
</trkpt>
<trkpt lat="40.072842" lon="-105.230575">
  <ele>1586.09</ele>
  <time>2026-08-27T18:24:50Z</time>
  <course>238.4</course>
  <speed>0.0</speed>
  <fix>3d</fix>
</trkpt>
<trkpt lat="40.072842" lon="-105.230575">
  <ele>1586.09</ele>
  <time>2026-08-27T18:24:50Z</time>
  <course>2.43</course>
  <speed>0.0</speed>
  <fix>3d</fix>
</trkpt>
<trkpt lat="40.072842" lon="-105.230575">
  <ele>1586.09</ele>
  <time>2026-08-27T18:24:50Z</time>
  <course>194.29</course>
  <speed>0.0</speed>
  <fix>3d</fix>
</trkpt>
<trkpt lat="40.072842" lon="-105.230575">
  <ele>1586.09</ele>
  <time>2026-08-27T18:24:50Z</time>
  <course>3.16</course>
  <speed>0.0</speed>
  <fix>3d</fix>
</trkpt>
<trkpt lat="40.072842" lon="-105.230575">
  <ele>1586.09</ele>
  <time>2026-08-27T18:24:50Z</time>
  <course>193.66</course>
  <speed>0.0</speed>
  <fix>3d</fix>
</trkpt>
<trkpt lat="39.654938" lon="-104.1331666">
  <ele>1569.54</ele>
  <time>2026-08-27T18:24:51Z</time>
  <course>168.11</course>
  <speed>0.0</speed>
  <fix>3d</fix>
</trkpt>
<trkpt lat="40.072842" lon="-105.230575">
  <ele>1586.09</ele>
  <time>2026-08-27T18:24:51Z</time>
  <course>2.05</course>
  <speed>0.0</speed>
  <fix>3d</fix>
</trkpt>
<trkpt lat="40.072842" lon="-105.230575">
  <ele>1586.09</ele>
  <time>2026-08-27T18:24:51Z</time>
  <course>238.4</course>
  <speed>0.0</speed>
  <fix>3d</fix>
</trkpt>
<trkpt lat="40.072842" lon="-105.230575">
  <ele>1586.09</ele>
  <time>2026-08-27T18:24:51Z</time>
  <course>2.59</course>
  <speed>0.0</speed>
  <fix>3d</fix>
</trkpt>
<trkpt lat="40.072842" lon="-105.230575">
  <ele>1586.09</ele>
  <time>2026-08-27T18:24:51Z</time>
  <course>194.29</course>
  <speed>0.0</speed>
  <fix>3d</fix>
</trkpt>
<trkpt lat="40.072842" lon="-105.230575">
  <ele>1586.09</ele>
  <time>2026-08-27T18:24:51Z</time>
  <course>3.33</course>
  <speed>0.0</speed>
  <fix>3d</fix>
</trkpt>
<trkpt lat="40.072842" lon="-105.230575">
  <ele>1586.09</ele>
  <time>2026-08-27T18:24:51Z</time>
  <course>193.66</course>
  <speed>0.0</speed>
  <fix>3d</fix>
</trkpt>
<trkpt lat="40.072842" lon="-105.230575">
  <ele>1586.09</ele>
  <time>2026-08-27T18:24:51Z</time>
  <course>4.0</course>
  <speed>0.0</speed>
  <fix>3d</fix>
</trkpt>
<trkpt lat="40.072842" lon="-105.230575">
  <ele>1586.09</ele>
  <time>2026-08-27T18:24:51Z</time>
  <course>303.54</course>
  <speed>0.0</speed>
  <fix>3d</fix>
</trkpt>
<trkpt lat="40.072842" lon="-105.230575">
  <ele>1586.09</ele>
  <time>2026-08-27T18:24:51Z</time>
  <course>4.61</course>
  <speed>0.0</speed>
  <fix>3d</fix>
</trkpt>
<trkpt lat="40.072842" lon="-105.230575">
  <ele>1586.09</ele>
  <time>2026-08-27T18:24:51Z</time>
  <course>110.94</course>
  <speed>0.0</speed>
  <fix>3d</fix>
</trkpt>
<trkpt lat="40.072842" lon="-105.230575">
  <ele>1586.09</ele>
  <time>2026-08-27T18:24:51Z</time>
  <course>5.19</course>
  <speed>0.0</speed>
  <fix>3d</fix>
</trkpt>
<trkpt lat="40.072842" lon="-105.230575">
  <ele>1586.09</ele>
  <time>2026-08-27T18:24:51Z</time>
  <course>191.21</course>
  <speed>0.0</speed>
  <fix>3d</fix>
</trkpt>
<trkpt lat="40.072842" lon="-105.230575">
  <ele>1586.09</ele>
  <time>2026-08-27T18:24:51Z</time>
  <course>5.74</course>
  <speed>0.0</speed>
  <fix>3d</fix>
</trkpt>
<trkpt lat="40.072842" lon="-105.230575">
  <ele>1586.09</ele>
  <time>2026-08-27T18:24:51Z</time>
  <course>252.23</course>
  <speed>0.0</speed>
  <fix>3d</fix>
</trkpt>
<trkpt lat="40.072842" lon="-105.230575">
  <ele>1586.09</ele>
  <time>2026-08-27T18:24:51Z</time>
  <course>6.26</course>
  <speed>0.0</speed>
  <fix>3d</fix>
</trkpt>
<trkpt lat="40.072842" lon="-105.230575">
  <ele>1586.09</ele>
  <time>2026-08-27T18:24:51Z</time>
  <course>170.36</course>
  <speed>0.0</speed>
  <fix>3d</fix>
</trkpt>
<trkpt lat="40.072842" lon="-105.230575">
  <ele>1586.09</ele>
  <time>2026-08-27T18:24:51Z</time>
  <course>6.75</course>
  <speed>0.0</speed>
  <fix>3d</fix>
</trkpt>
<trkpt lat="40.072842" lon="-105.230575">
  <ele>1586.09</ele>
  <time>2026-08-27T18:24:51Z</time>
  <course>179.36</course>
  <speed>0.0</speed>
  <fix>3d</fix>
</trkpt>
<trkpt lat="40.072842" lon="-105.230575">
  <ele>1586.09</ele>
  <time>2026-08-27T18:24:51Z</time>
  <course>7.2</course>
  <speed>0.0</speed>
  <fix>3d</fix>
</trkpt>
<trkpt lat="40.072842" lon="-105.230575">
  <ele>1586.09</ele>
  <time>2026-08-27T18:24:51Z</time>
  <course>19.98</course>
  <speed>0.0</speed>
  <fix>3d</fix>
</trkpt>
<trkpt lat="40.072842" lon="-105.230575">
  <ele>1586.09</ele>
  <time>2026-08-27T18:24:51Z</time>
  <course>7.62</course>
  <speed>0.0</speed>
  <fix>3d</fix>
</trkpt>
<trkpt lat="40.072842" lon="-105.230575">
  <ele>1586.09</ele>
  <time>2026-08-27T18:24:51Z</time>
  <course>17.49</course>
  <speed>0.0</speed>
  <fix>3d</fix>
</trkpt>
<trkpt lat="40.072842" lon="-105.230575">
  <ele>1586.09</ele>
  <time>2026-08-27T18:24:51Z</time>
  <course>8.01</course>
  <speed>0.0</speed>
  <fix>3d</fix>
</trkpt>
<trkpt lat="40.072842" lon="-105.230575">
  <ele>1586.09</ele>
  <time>2026-08-27T18:24:51Z</time>
  <course>356.19</course>
  <speed>0.0</speed>
  <fix>3d</fix>
</trkpt>
<trkpt lat="40.072842" lon="-105.230575">
  <ele>1586.09</ele>
  <time>2026-08-27T18:24:51Z</time>
  <course>8.37</course>
  <speed>0.0</speed>
  <fix>3d</fix>
</trkpt>
<trkpt lat="40.072842" lon="-105.230575">
  <ele>1586.09</ele>
  <time>2026-08-27T18:24:51Z</time>
  <course>77.32</course>
  <speed>0.0</speed>
  <fix>3d</fix>
</trkpt>
<trkpt lat="40.072842" lon="-105.230575">
  <ele>1586.09</ele>
  <time>2026-08-27T18:24:51Z</time>
  <course>8.7</course>
  <speed>0.0</speed>
  <fix>3d</fix>
</trkpt>
<trkpt lat="40.072842" lon="-105.230575">
  <ele>1586.09</ele>
  <time>2026-08-27T18:24:51Z</time>
  <course>290.54</course>
  <speed>0.0</speed>
  <fix>3d</fix>
</trkpt>
<trkpt lat="40.072842" lon="-105.230575">
  <ele>1586.09</ele>
  <time>2026-08-27T18:24:51Z</time>
  <course>9.01</course>
  <speed>0.0</speed>
  <fix>3d</fix>
</trkpt>
<trkpt lat="40.072842" lon="-105.230575">
  <ele>1586.09</ele>
  <time>2026-08-27T18:24:51Z</time>
  <course>338.69</course>
  <speed>0.0</speed>
  <fix>3d</fix>
</trkpt>
<trkpt lat="40.072842" lon="-105.230575">
  <ele>1586.09</ele>
  <time>2026-08-27T18:24:51Z</time>
  <course>9.29</course>
  <speed>0.0</speed>
  <fix>3d</fix>
</trkpt>
<trkpt lat="40.072842" lon="-105.230575">
  <ele>1586.09</ele>
  <time>2026-08-27T18:24:51Z</time>
  <course>326.81</course>
  <speed>0.0</speed>
  <fix>3d</fix>
</trkpt>
<trkpt lat="40.072842" lon="-105.230575">
  <ele>1586.09</ele>
  <time>2026-08-27T18:24:51Z</time>
  <course>9.55</course>
  <speed>0.0</speed>
  <fix>3d</fix>
</trkpt>
<trkpt lat="40.072842" lon="-105.230575">
  <ele>1586.09</ele>
  <time>2026-08-27T18:24:51Z</time>
  <course>262.23</course>
  <speed>0.0</speed>
  <fix>3d</fix>
</trkpt>
<trkpt lat="40.072842" lon="-105.230575">
  <ele>1586.09</ele>
  <time>2026-08-27T18:24:51Z</time>
  <course>9.79</course>
  <speed>0.0</speed>
  <fix>3d</fix>
</trkpt>
<trkpt lat="40.072842" lon="-105.230575">
  <ele>1586.09</ele>
  <time>2026-08-27T18:24:51Z</time>
  <course>159.08</course>
  <speed>0.0</speed>
  <fix>3d</fix>
</trkpt>
<trkpt lat="40.072842" lon="-105.230575">
  <ele>1586.09</ele>
  <time>2026-08-27T18:24:51Z</time>
  <course>10.01</course>
  <speed>0.0</speed>
  <fix>3d</fix>
</trkpt>
<trkpt lat="40.072842" lon="-105.230575">
  <ele>1586.09</ele>
  <time>2026-08-27T18:24:51Z</time>
  <course>287.98</course>
  <speed>0.0</speed>
  <fix>3d</fix>
</trkpt>
<trkpt lat="40.072842" lon="-105.230575">
  <ele>1586.09</ele>
  <time>2026-08-27T18:24:51Z</time>
  <course>10.21</course>
  <speed>0.0</speed>
  <fix>3d</fix>
</trkpt>
<trkpt lat="40.072842" lon="-105.230575">
  <ele>1586.09</ele>
  <time>2026-08-27T18:24:51Z</time>
  <course>278.3</course>
  <speed>0.0</speed>
  <fix>3d</fix>
</trkpt>
<trkpt lat="40.072842" lon="-105.230575">
  <ele>1586.09</ele>
  <time>2026-08-27T18:24:51Z</time>
  <course>10.39</course>
  <speed>0.0</speed>
  <fix>3d</fix>
</trkpt>
<trkpt lat="40.072842" lon="-105.230575">
  <ele>1586.09</ele>
  <time>2026-08-27T18:24:51Z</time>
  <course>261.72</course>
  <speed>0.0</speed>
  <fix>3d</fix>
</trkpt>
<trkpt lat="40.072842" lon="-105.230575">
  <ele>1586.09</ele>
  <time>2026-08-27T18:24:51Z</time>
  <course>10.56</course>
  <speed>0.0</speed>
  <fix>3d</fix>
</trkpt>
<trkpt lat="40.072842" lon="-105.230575">
  <ele>1586.09</ele>
  <time>2026-08-27T18:24:51Z</time>
  <course>264.4</course>
  <speed>0.0</speed>
  <fix>3d</fix>
</trkpt>
<trkpt lat="40.072842" lon="-105.230575">
  <ele>1586.09</ele>
  <time>2026-08-27T18:24:51Z</time>
  <course>10.71</course>
  <speed>0.0</speed>
  <fix>3d</fix>
</trkpt>
<trkpt lat="40.072842" lon="-105.230575">
  <ele>1586.09</ele>
  <time>2026-08-27T18:24:51Z</time>
  <course>266.8</course>
  <speed>0.0</speed>
  <fix>3d</fix>
</trkpt>
<trkpt lat="40.072842" lon="-105.230575">
  <ele>1586.09</ele>
  <time>2026-08-27T18:24:51Z</time>
  <course>10.85</course>
  <speed>0.0</speed>
  <fix>3d</fix>
</trkpt>
<trkpt lat="40.072842" lon="-105.230575">
  <ele>1586.09</ele>
  <time>2026-08-27T18:24:51Z</time>
  <course>266.15</course>
  <speed>0.0</speed>
  <fix>3d</fix>
</trkpt>
<trkpt lat="40.072842" lon="-105.230575">
  <ele>1586.09</ele>
  <time>2026-08-27T18:24:51Z</time>
  <course>10.98</course>
  <speed>0.0</speed>
  <fix>3d</fix>
</trkpt>
<trkpt lat="40.072842" lon="-105.230575">
  <ele>1586.09</ele>
  <time>2026-08-27T18:24:51Z</time>
  <course>265.92</course>
  <speed>0.0</speed>
  <fix>3d</fix>
</trkpt>
<trkpt lat="40.072842" lon="-105.230575">
  <ele>1586.09</ele>
  <time>2026-08-27T18:24:51Z</time>
  <course>11.1</course>
  <speed>0.0</speed>
  <fix>3d</fix>
</trkpt>
<trkpt lat="40.072842" lon="-105.230575">
  <ele>1586.09</ele>
  <time>2026-08-27T18:24:51Z</time>
  <course>266.03</course>
  <speed>0.0</speed>
  <fix>3d</fix>
</trkpt>
<trkpt lat="40.072842" lon="-105.230575">
  <ele>1586.09</ele>
  <time>2026-08-27T18:24:51Z</time>
  <course>11.21</course>
  <speed>0.0</speed>
  <fix>3d</fix>
</trkpt>
<trkpt lat="40.072842" lon="-105.230575">
  <ele>1586.09</ele>
  <time>2026-08-27T18:24:51Z</time>
  <course>266.05</course>
  <speed>0.0</speed>
  <fix>3d</fix>
</trkpt>
<trkpt lat="40.072842" lon="-105.230575">
  <ele>1586.09</ele>
  <time>2026-08-27T18:24:51Z</time>
  <course>11.31</course>
  <speed>0.0</speed>
  <fix>3d</fix>
</trkpt>
<trkpt lat="40.072842" lon="-105.230575">
  <ele>1586.09</ele>
  <time>2026-08-27T18:24:51Z</time>
  <course>266.03</course>
  <speed>0.0</speed>
  <fix>3d</fix>
</trkpt>
<trkpt lat="40.072842" lon="-105.230575">
  <ele>1586.09</ele>
  <time>2026-08-27T18:24:51Z</time>
  <course>11.39</course>
  <speed>0.0</speed>
  <fix>3d</fix>
</trkpt>
<trkpt lat="40.072842" lon="-105.230575">
  <ele>1586.09</ele>
  <time>2026-08-27T18:24:51Z</time>
  <course>266.03</course>
  <speed>0.0</speed>
  <fix>3d</fix>
</trkpt>
<trkpt lat="40.072842" lon="-105.230575">
  <ele>1586.09</ele>
  <time>2026-08-27T18:24:51Z</time>
  <course>11.47</course>
  <speed>0.0</speed>
  <fix>3d</fix>
</trkpt>
<trkpt lat="40.072842" lon="-105.230575">
  <ele>1586.09</ele>
  <time>2026-08-27T18:24:51Z</time>
  <course>266.03</course>
  <speed>0.0</speed>
  <fix>3d</fix>
</trkpt>
<trkpt lat="40.072842" lon="-105.230575">
  <ele>1586.09</ele>
  <time>2026-08-27T18:24:51Z</time>
  <course>11.55</course>
  <speed>0.0</speed>
  <fix>3d</fix>
</trkpt>
<trkpt lat="40.072842" lon="-105.230575">
  <ele>1586.09</ele>
  <time>2026-08-27T18:24:51Z</time>
  <course>266.03</course>
  <speed>0.0</speed>
  <fix>3d</fix>
</trkpt>
<trkpt lat="40.072842" lon="-105.230575">
  <ele>1586.09</ele>
  <time>2026-08-27T18:24:51Z</time>
  <course>11.61</course>
  <speed>0.0</speed>
  <fix>3d</fix>
</trkpt>
<trkpt lat="40.072842" lon="-105.230575">
  <ele>1586.09</ele>
  <time>2026-08-27T18:24:51Z</time>
  <course>266.03</course>
  <speed>0.0</speed>
  <fix>3d</fix>
</trkpt>
<trkpt lat="40.072842" lon="-105.230575">
  <ele>1586.09</ele>
  <time>2026-08-27T18:24:51Z</time>
  <course>11.67</course>
  <speed>0.0</speed>
  <fix>3d</fix>
</trkpt>
<trkpt lat="40.072842" lon="-105.230575">
  <ele>1586.09</ele>
  <time>2026-08-27T18:24:51Z</time>
  <course>266.03</course>
  <speed>0.0</speed>
  <fix>3d</fix>
</trkpt>
<trkpt lat="40.072842" lon="-105.230575">
  <ele>1586.09</ele>
  <time>2026-08-27T18:24:51Z</time>
  <course>11.73</course>
  <speed>0.0</speed>
  <fix>3d</fix>
</trkpt>
<trkpt lat="40.072842" lon="-105.230575">
  <ele>1586.09</ele>
  <time>2026-08-27T18:24:51Z</time>
  <course>266.03</course>
  <speed>0.0</speed>
  <fix>3d</fix>
</trkpt>
<trkpt lat="40.072842" lon="-105.230575">
  <ele>1586.09</ele>
  <time>2026-08-27T18:24:51Z</time>
  <course>11.78</course>
  <speed>0.0</speed>
  <fix>3d</fix>
</trkpt>
<trkpt lat="40.072842" lon="-105.230575">
  <ele>1586.09</ele>
  <time>2026-08-27T18:24:51Z</time>
  <course>266.03</course>
  <speed>0.0</speed>
  <fix>3d</fix>
</trkpt>
<trkpt lat="40.072842" lon="-105.230575">
  <ele>1586.09</ele>
  <time>2026-08-27T18:24:51Z</time>
  <course>11.82</course>
  <speed>0.0</speed>
  <fix>3d</fix>
</trkpt>
<trkpt lat="40.072842" lon="-105.230575">
  <ele>1586.09</ele>
  <time>2026-08-27T18:24:51Z</time>
  <course>266.03</course>
  <speed>0.0</speed>
  <fix>3d</fix>
</trkpt>
<trkpt lat="40.072842" lon="-105.230575">
  <ele>1586.09</ele>
  <time>2026-08-27T18:24:51Z</time>
  <course>11.86</course>
  <speed>0.0</speed>
  <fix>3d</fix>
</trkpt>
<trkpt lat="40.072842" lon="-105.230575">
  <ele>1586.09</ele>
  <time>2026-08-27T18:24:51Z</time>
  <course>266.03</course>
  <speed>0.0</speed>
  <fix>3d</fix>
</trkpt>
<trkpt lat="40.072842" lon="-105.230575">
  <ele>1586.09</ele>
  <time>2026-08-27T18:24:51Z</time>
  <course>11.9</course>
  <speed>0.0</speed>
  <fix>3d</fix>
</trkpt>
<trkpt lat="40.072842" lon="-105.230575">
  <ele>1586.09</ele>
  <time>2026-08-27T18:24:51Z</time>
  <course>266.03</course>
  <speed>0.0</speed>
  <fix>3d</fix>
</trkpt>
<trkpt lat="40.072842" lon="-105.230575">
  <ele>1586.09</ele>
  <time>2026-08-27T18:24:51Z</time>
  <course>11.93</course>
  <speed>0.0</speed>
  <fix>3d</fix>
</trkpt>
<trkpt lat="40.072842" lon="-105.230575">
  <ele>1586.09</ele>
  <time>2026-08-27T18:24:51Z</time>
  <course>266.03</course>
  <speed>0.0</speed>
  <fix>3d</fix>
</trkpt>
<trkpt lat="40.072842" lon="-105.230575">
  <ele>1586.09</ele>
  <time>2026-08-27T18:24:51Z</time>
  <course>11.96</course>
  <speed>0.0</speed>
  <fix>3d</fix>
</trkpt>
<trkpt lat="40.072842" lon="-105.230575">
  <ele>1586.09</ele>
  <time>2026-08-27T18:24:51Z</time>
  <course>266.03</course>
  <speed>0.0</speed>
  <fix>3d</fix>
</trkpt>
<trkpt lat="40.072842" lon="-105.230575">
  <ele>1586.09</ele>
  <time>2026-08-27T18:24:51Z</time>
  <course>11.98</course>
  <speed>0.0</speed>
  <fix>3d</fix>
</trkpt>
<trkpt lat="40.072842" lon="-105.230575">
  <ele>1586.09</ele>
  <time>2026-08-27T18:24:51Z</time>
  <course>266.03</course>
  <speed>0.0</speed>
  <fix>3d</fix>
</trkpt>
<trkpt lat="40.072842" lon="-105.230575">
  <ele>1586.09</ele>
  <time>2026-08-27T18:24:51Z</time>
  <course>12.01</course>
  <speed>0.0</speed>
  <fix>3d</fix>
</trkpt>
<trkpt lat="40.072842" lon="-105.230575">
  <ele>1586.09</ele>
  <time>2026-08-27T18:24:51Z</time>
  <course>266.03</course>
  <speed>0.0</speed>
  <fix>3d</fix>
</trkpt>
<trkpt lat="40.072842" lon="-105.230575">
  <ele>1586.09</ele>
  <time>2026-08-27T18:24:51Z</time>
  <course>12.03</course>
  <speed>0.0</speed>
  <fix>3d</fix>
</trkpt>
<trkpt lat="40.072842" lon="-105.230575">
  <ele>1586.09</ele>
  <time>2026-08-27T18:24:51Z</time>
  <course>266.03</course>
  <speed>0.0</speed>
  <fix>3d</fix>
</trkpt>
<trkpt lat="40.072842" lon="-105.230575">
  <ele>1586.09</ele>
  <time>2026-08-27T18:24:51Z</time>
  <course>12.04</course>
  <speed>0.0</speed>
  <fix>3d</fix>
</trkpt>
<trkpt lat="40.072842" lon="-105.230575">
  <ele>1586.09</ele>
  <time>2026-08-27T18:24:51Z</time>
  <course>266.03</course>
  <speed>0.0</speed>
  <fix>3d</fix>
</trkpt>
<trkpt lat="40.072842" lon="-105.230575">
  <ele>1586.09</ele>
  <time>2026-08-27T18:24:51Z</time>
  <course>12.06</course>
  <speed>0.0</speed>
  <fix>3d</fix>
</trkpt>
<trkpt lat="40.072842" lon="-105.230575">
  <ele>1586.09</ele>
  <time>2026-08-27T18:24:51Z</time>
  <course>266.03</course>
  <speed>0.0</speed>
  <fix>3d</fix>
</trkpt>
<trkpt lat="40.072842" lon="-105.230575">
  <ele>1586.09</ele>
  <time>2026-08-27T18:24:51Z</time>
  <course>12.07</course>
  <speed>0.0</speed>
  <fix>3d</fix>
</trkpt>
<trkpt lat="40.072842" lon="-105.230575">
  <ele>1586.09</ele>
  <time>2026-08-27T18:24:51Z</time>
  <course>266.03</course>
  <speed>0.0</speed>
  <fix>3d</fix>
</trkpt>
<trkpt lat="40.072842" lon="-105.230575">
  <ele>1586.09</ele>
  <time>2026-08-27T18:24:51Z</time>
  <course>12.08</course>
  <speed>0.0</speed>
  <fix>3d</fix>
</trkpt>
<trkpt lat="40.072842" lon="-105.230575">
  <ele>1586.09</ele>
  <time>2026-08-27T18:24:51Z</time>
  <course>266.03</course>
  <speed>0.0</speed>
  <fix>3d</fix>
</trkpt>
<trkpt lat="40.072842" lon="-105.230575">
  <ele>1586.09</ele>
  <time>2026-08-27T18:24:51Z</time>
  <course>12.09</course>
  <speed>0.0</speed>
  <fix>3d</fix>
</trkpt>
<trkpt lat="40.072842" lon="-105.230575">
  <ele>1586.09</ele>
  <time>2026-08-27T18:24:51Z</time>
  <course>266.03</course>
  <speed>0.0</speed>
  <fix>3d</fix>
</trkpt>
<trkpt lat="40.072842" lon="-105.230575">
  <ele>1586.09</ele>
  <time>2026-08-27T18:24:51Z</time>
  <course>12.1</course>
  <speed>0.0</speed>
  <fix>3d</fix>
</trkpt>
<trkpt lat="40.072842" lon="-105.230575">
  <ele>1586.09</ele>
  <time>2026-08-27T18:24:51Z</time>
  <course>266.03</course>
  <speed>0.0</speed>
  <fix>3d</fix>
</trkpt>
<trkpt lat="40.072842" lon="-105.230575">
  <ele>1586.09</ele>
  <time>2026-08-27T18:24:51Z</time>
  <course>12.11</course>
  <speed>0.0</speed>
  <fix>3d</fix>
</trkpt>
<trkpt lat="40.072842" lon="-105.230575">
  <ele>1586.09</ele>
  <time>2026-08-27T18:24:51Z</time>
  <course>266.03</course>
  <speed>0.0</speed>
  <fix>3d</fix>
</trkpt>
<trkpt lat="40.072842" lon="-105.230575">
  <ele>1586.09</ele>
  <time>2026-08-27T18:24:51Z</time>
  <course>12.12</course>
  <speed>0.0</speed>
  <fix>3d</fix>
</trkpt>
<trkpt lat="40.072842" lon="-105.230575">
  <ele>1586.09</ele>
  <time>2026-08-27T18:24:51Z</time>
  <course>266.03</course>
  <speed>0.0</speed>
  <fix>3d</fix>
</trkpt>
<trkpt lat="40.072842" lon="-105.230575">
  <ele>1586.09</ele>
  <time>2026-08-27T18:24:51Z</time>
  <course>12.12</course>
  <speed>0.0</speed>
  <fix>3d</fix>
</trkpt>
<trkpt lat="40.072842" lon="-105.230575">
  <ele>1586.09</ele>
  <time>2026-08-27T18:24:51Z</time>
  <course>266.03</course>
  <speed>0.0</speed>
  <fix>3d</fix>
</trkpt>
<trkpt lat="40.072842" lon="-105.230575">
  <ele>1586.09</ele>
  <time>2026-08-27T18:24:51Z</time>
  <course>12.13</course>
  <speed>0.0</speed>
  <fix>3d</fix>
</trkpt>
<trkpt lat="40.072842" lon="-105.230575">
  <ele>1586.09</ele>
  <time>2026-08-27T18:24:51Z</time>
  <course>266.03</course>
  <speed>0.0</speed>
  <fix>3d</fix>
</trkpt>
<trkpt lat="40.072842" lon="-105.230575">
  <ele>1586.09</ele>
  <time>2026-08-27T18:24:51Z</time>
  <course>12.13</course>
  <speed>0.0</speed>
  <fix>3d</fix>
</trkpt>
<trkpt lat="40.072842" lon="-105.230575">
  <ele>1586.09</ele>
  <time>2026-08-27T18:24:51Z</time>
  <course>266.03</course>
  <speed>0.0</speed>
  <fix>3d</fix>
</trkpt>
<trkpt lat="40.072842" lon="-105.230575">
  <ele>1586.09</ele>
  <time>2026-08-27T18:24:52Z</time>
  <course>12.13</course>
  <speed>0.0</speed>
  <fix>3d</fix>
</trkpt>
<trkpt lat="40.072842" lon="-105.230575">
  <ele>1586.09</ele>
  <time>2026-08-27T18:24:52Z</time>
  <course>266.03</course>
  <speed>0.0</speed>
  <fix>3d</fix>
</trkpt>
<trkpt lat="40.072842" lon="-105.230575">
  <ele>1586.09</ele>
  <time>2026-08-27T18:24:52Z</time>
  <course>12.13</course>
  <speed>0.0</speed>
  <fix>3d</fix>
</trkpt>
<trkpt lat="40.072842" lon="-105.230575">
  <ele>1586.09</ele>
  <time>2026-08-27T18:24:52Z</time>
  <course>266.03</course>
  <speed>0.0</speed>
  <fix>3d</fix>
</trkpt>
<trkpt lat="40.072842" lon="-105.230575">
  <ele>1586.09</ele>
  <time>2026-08-27T18:24:52Z</time>
  <course>12.13</course>
  <speed>0.0</speed>
  <fix>3d</fix>
</trkpt>
<trkpt lat="40.072842" lon="-105.230575">
  <ele>1586.09</ele>
  <time>2026-08-27T18:24:52Z</time>
  <course>266.03</course>
  <speed>0.0</speed>
  <fix>3d</fix>
</trkpt>
<trkpt lat="40.072842" lon="-105.230575">
  <ele>1586.09</ele>
  <time>2026-08-27T18:24:52Z</time>
  <course>12.13</course>
  <speed>0.01</speed>
  <fix>3d</fix>
</trkpt>
<trkpt lat="40.072842" lon="-105.230575">
  <ele>1586.09</ele>
  <time>2026-08-27T18:24:52Z</time>
  <course>266.03</course>
  <speed>0.0</speed>
  <fix>3d</fix>
</trkpt>
<trkpt lat="40.072842" lon="-105.230575">
  <ele>1586.09</ele>
  <time>2026-08-27T18:24:52Z</time>
  <course>12.12</course>
  <speed>0.01</speed>
  <fix>3d</fix>
</trkpt>
<trkpt lat="40.072842" lon="-105.230575">
  <ele>1586.09</ele>
  <time>2026-08-27T18:24:52Z</time>
  <course>266.03</course>
  <speed>0.0</speed>
  <fix>3d</fix>
</trkpt>
<trkpt lat="40.072842" lon="-105.230575">
  <ele>1586.09</ele>
  <time>2026-08-27T18:24:52Z</time>
  <course>12.12</course>
  <speed>0.01</speed>
  <fix>3d</fix>
</trkpt>
<trkpt lat="40.072842" lon="-105.230575">
  <ele>1586.09</ele>
  <time>2026-08-27T18:24:52Z</time>
  <course>266.03</course>
  <speed>0.0</speed>
  <fix>3d</fix>
</trkpt>
<trkpt lat="40.072842" lon="-105.230575">
  <ele>1586.09</ele>
  <time>2026-08-27T18:24:52Z</time>
  <course>12.12</course>
  <speed>0.01</speed>
  <fix>3d</fix>
</trkpt>
<trkpt lat="40.072842" lon="-105.230575">
  <ele>1586.09</ele>
  <time>2026-08-27T18:24:52Z</time>
  <course>266.03</course>
  <speed>0.0</speed>
  <fix>3d</fix>
</trkpt>
<trkpt lat="40.072842" lon="-105.230575">
  <ele>1586.09</ele>
  <time>2026-08-27T18:24:52Z</time>
  <course>12.11</course>
  <speed>0.01</speed>
  <fix>3d</fix>
</trkpt>
<trkpt lat="40.072842" lon="-105.230575">
  <ele>1586.09</ele>
  <time>2026-08-27T18:24:52Z</time>
  <course>266.03</course>
  <speed>0.0</speed>
  <fix>3d</fix>
</trkpt>
<trkpt lat="40.072842" lon="-105.230575">
  <ele>1586.09</ele>
  <time>2026-08-27T18:24:52Z</time>
  <course>12.11</course>
  <speed>0.01</speed>
  <fix>3d</fix>
</trkpt>
<trkpt lat="40.072842" lon="-105.230575">
  <ele>1586.09</ele>
  <time>2026-08-27T18:24:52Z</time>
  <course>266.03</course>
  <speed>0.0</speed>
  <fix>3d</fix>
</trkpt>
<trkpt lat="40.072842" lon="-105.230575">
  <ele>1586.09</ele>
  <time>2026-08-27T18:24:52Z</time>
  <course>12.11</course>
  <speed>0.01</speed>
  <fix>3d</fix>
</trkpt>
<trkpt lat="40.072842" lon="-105.230575">
  <ele>1586.09</ele>
  <time>2026-08-27T18:24:52Z</time>
  <course>266.03</course>
  <speed>0.0</speed>
  <fix>3d</fix>
</trkpt>
<trkpt lat="40.072842" lon="-105.230575">
  <ele>1586.09</ele>
  <time>2026-08-27T18:24:52Z</time>
  <course>12.1</course>
  <speed>0.01</speed>
  <fix>3d</fix>
</trkpt>
<trkpt lat="40.072842" lon="-105.230575">
  <ele>1586.09</ele>
  <time>2026-08-27T18:24:52Z</time>
  <course>266.03</course>
  <speed>0.0</speed>
  <fix>3d</fix>
</trkpt>
<trkpt lat="40.072842" lon="-105.230575">
  <ele>1586.09</ele>
  <time>2026-08-27T18:24:52Z</time>
  <course>12.1</course>
  <speed>0.01</speed>
  <fix>3d</fix>
</trkpt>
<trkpt lat="40.072842" lon="-105.230575">
  <ele>1586.09</ele>
  <time>2026-08-27T18:24:52Z</time>
  <course>266.03</course>
  <speed>0.0</speed>
  <fix>3d</fix>
</trkpt>
<trkpt lat="40.072842" lon="-105.230575">
  <ele>1586.09</ele>
  <time>2026-08-27T18:24:52Z</time>
  <course>12.09</course>
  <speed>0.01</speed>
  <fix>3d</fix>
</trkpt>
<trkpt lat="40.072842" lon="-105.230575">
  <ele>1586.09</ele>
  <time>2026-08-27T18:24:52Z</time>
  <course>266.03</course>
  <speed>0.0</speed>
  <fix>3d</fix>
</trkpt>
<trkpt lat="40.072842" lon="-105.230575">
  <ele>1586.09</ele>
  <time>2026-08-27T18:24:52Z</time>
  <course>12.08</course>
  <speed>0.01414213562373095</speed>
  <fix>3d</fix>
</trkpt>
<trkpt lat="40.072842" lon="-105.230575">
  <ele>1586.09</ele>
  <time>2026-08-27T18:24:52Z</time>
  <course>266.03</course>
  <speed>0.0</speed>
  <fix>3d</fix>
</trkpt>
<trkpt lat="40.072842" lon="-105.230575">
  <ele>1586.09</ele>
  <time>2026-08-27T18:24:52Z</time>
  <course>12.08</course>
  <speed>0.01414213562373095</speed>
  <fix>3d</fix>
</trkpt>
<trkpt lat="40.072842" lon="-105.230575">
  <ele>1586.09</ele>
  <time>2026-08-27T18:24:52Z</time>
  <course>266.03</course>
  <speed>0.0</speed>
  <fix>3d</fix>
</trkpt>
<trkpt lat="40.072842" lon="-105.230575">
  <ele>1586.09</ele>
  <time>2026-08-27T18:24:52Z</time>
  <course>12.07</course>
  <speed>0.01414213562373095</speed>
  <fix>3d</fix>
</trkpt>
<trkpt lat="40.072842" lon="-105.230575">
  <ele>1586.09</ele>
  <time>2026-08-27T18:24:52Z</time>
  <course>266.03</course>
  <speed>0.0</speed>
  <fix>3d</fix>
</trkpt>
<trkpt lat="40.072842" lon="-105.230575">
  <ele>1586.09</ele>
  <time>2026-08-27T18:24:52Z</time>
  <course>12.06</course>
  <speed>0.01414213562373095</speed>
  <fix>3d</fix>
</trkpt>
<trkpt lat="40.072842" lon="-105.230575">
  <ele>1586.09</ele>
  <time>2026-08-27T18:24:52Z</time>
  <course>266.03</course>
  <speed>0.0</speed>
  <fix>3d</fix>
</trkpt>
<trkpt lat="40.072842" lon="-105.230575">
  <ele>1586.09</ele>
  <time>2026-08-27T18:24:52Z</time>
  <course>12.05</course>
  <speed>0.01414213562373095</speed>
  <fix>3d</fix>
</trkpt>
<trkpt lat="40.072842" lon="-105.230575">
  <ele>1586.09</ele>
  <time>2026-08-27T18:24:52Z</time>
  <course>266.03</course>
  <speed>0.0</speed>
  <fix>3d</fix>
</trkpt>
<trkpt lat="40.072842" lon="-105.230575">
  <ele>1586.09</ele>
  <time>2026-08-27T18:24:52Z</time>
  <course>12.05</course>
  <speed>0.01414213562373095</speed>
  <fix>3d</fix>
</trkpt>
<trkpt lat="40.072842" lon="-105.230575">
  <ele>1586.09</ele>
  <time>2026-08-27T18:24:52Z</time>
  <course>266.03</course>
  <speed>0.0</speed>
  <fix>3d</fix>
</trkpt>
<trkpt lat="40.072842" lon="-105.230575">
  <ele>1586.09</ele>
  <time>2026-08-27T18:24:52Z</time>
  <course>12.04</course>
  <speed>0.01414213562373095</speed>
  <fix>3d</fix>
</trkpt>
<trkpt lat="40.072842" lon="-105.230575">
  <ele>1586.09</ele>
  <time>2026-08-27T18:24:52Z</time>
  <course>266.03</course>
  <speed>0.0</speed>
  <fix>3d</fix>
</trkpt>
<trkpt lat="40.072842" lon="-105.230575">
  <ele>1586.09</ele>
  <time>2026-08-27T18:24:52Z</time>
  <course>12.03</course>
  <speed>0.01414213562373095</speed>
  <fix>3d</fix>
</trkpt>
<trkpt lat="40.072842" lon="-105.230575">
  <ele>1586.09</ele>
  <time>2026-08-27T18:24:52Z</time>
  <course>266.03</course>
  <speed>0.0</speed>
  <fix>3d</fix>
</trkpt>
<trkpt lat="40.072842" lon="-105.230575">
  <ele>1586.09</ele>
  <time>2026-08-27T18:24:52Z</time>
  <course>12.03</course>
  <speed>0.01414213562373095</speed>
  <fix>3d</fix>
</trkpt>
<trkpt lat="40.072842" lon="-105.230575">
  <ele>1586.09</ele>
  <time>2026-08-27T18:24:52Z</time>
  <course>266.03</course>
  <speed>0.0</speed>
  <fix>3d</fix>
</trkpt>
<trkpt lat="40.072842" lon="-105.230575">
  <ele>1586.09</ele>
  <time>2026-08-27T18:24:52Z</time>
  <course>12.02</course>
  <speed>0.01414213562373095</speed>
  <fix>3d</fix>
</trkpt>
<trkpt lat="40.072842" lon="-105.230575">
  <ele>1586.09</ele>
  <time>2026-08-27T18:24:52Z</time>
  <course>266.03</course>
  <speed>0.0</speed>
  <fix>3d</fix>
</trkpt>
<trkpt lat="40.072842" lon="-105.230575">
  <ele>1586.09</ele>
  <time>2026-08-27T18:24:52Z</time>
  <course>12.01</course>
  <speed>0.01414213562373095</speed>
  <fix>3d</fix>
</trkpt>
<trkpt lat="40.072842" lon="-105.230575">
  <ele>1586.09</ele>
  <time>2026-08-27T18:24:52Z</time>
  <course>266.03</course>
  <speed>0.0</speed>
  <fix>3d</fix>
</trkpt>
<trkpt lat="40.072842" lon="-105.230575">
  <ele>1586.09</ele>
  <time>2026-08-27T18:24:52Z</time>
  <course>12.01</course>
  <speed>0.01414213562373095</speed>
  <fix>3d</fix>
</trkpt>
<trkpt lat="40.072842" lon="-105.230575">
  <ele>1586.09</ele>
  <time>2026-08-27T18:24:52Z</time>
  <course>266.03</course>
  <speed>0.0</speed>
  <fix>3d</fix>
</trkpt>
<trkpt lat="40.072842" lon="-105.230575">
  <ele>1586.09</ele>
  <time>2026-08-27T18:24:52Z</time>
  <course>12.0</course>
  <speed>0.01414213562373095</speed>
  <fix>3d</fix>
</trkpt>
<trkpt lat="40.072842" lon="-105.230575">
  <ele>1586.09</ele>
  <time>2026-08-27T18:24:52Z</time>
  <course>266.03</course>
  <speed>0.0</speed>
  <fix>3d</fix>
</trkpt>
<trkpt lat="40.072842" lon="-105.230575">
  <ele>1586.09</ele>
  <time>2026-08-27T18:24:52Z</time>
  <course>11.99</course>
  <speed>0.01414213562373095</speed>
  <fix>3d</fix>
</trkpt>
<trkpt lat="40.072842" lon="-105.230575">
  <ele>1586.09</ele>
  <time>2026-08-27T18:24:52Z</time>
  <course>266.03</course>
  <speed>0.0</speed>
  <fix>3d</fix>
</trkpt>
<trkpt lat="40.072842" lon="-105.230575">
  <ele>1586.09</ele>
  <time>2026-08-27T18:24:52Z</time>
  <course>11.98</course>
  <speed>0.01414213562373095</speed>
  <fix>3d</fix>
</trkpt>
<trkpt lat="40.072842" lon="-105.230575">
  <ele>1586.09</ele>
  <time>2026-08-27T18:24:52Z</time>
  <course>266.03</course>
  <speed>0.0</speed>
  <fix>3d</fix>
</trkpt>
<trkpt lat="40.072842" lon="-105.230575">
  <ele>1586.09</ele>
  <time>2026-08-27T18:24:52Z</time>
  <course>11.98</course>
  <speed>0.01414213562373095</speed>
  <fix>3d</fix>
</trkpt>
<trkpt lat="40.072842" lon="-105.230575">
  <ele>1586.09</ele>
  <time>2026-08-27T18:24:52Z</time>
  <course>266.03</course>
  <speed>0.0</speed>
  <fix>3d</fix>
</trkpt>
<trkpt lat="40.072842" lon="-105.230575">
  <ele>1586.09</ele>
  <time>2026-08-27T18:24:52Z</time>
  <course>11.97</course>
  <speed>0.022360679774997897</speed>
  <fix>3d</fix>
</trkpt>
<trkpt lat="40.072842" lon="-105.230575">
  <ele>1586.09</ele>
  <time>2026-08-27T18:24:52Z</time>
  <course>266.03</course>
  <speed>0.0</speed>
  <fix>3d</fix>
</trkpt>
<trkpt lat="40.072842" lon="-105.230575">
  <ele>1586.09</ele>
  <time>2026-08-27T18:24:52Z</time>
  <course>11.96</course>
  <speed>0.022360679774997897</speed>
  <fix>3d</fix>
</trkpt>
<trkpt lat="40.072842" lon="-105.230575">
  <ele>1586.09</ele>
  <time>2026-08-27T18:24:52Z</time>
  <course>266.03</course>
  <speed>0.0</speed>
  <fix>3d</fix>
</trkpt>
<trkpt lat="40.072842" lon="-105.230575">
  <ele>1586.09</ele>
  <time>2026-08-27T18:24:52Z</time>
  <course>11.95</course>
  <speed>0.022360679774997897</speed>
  <fix>3d</fix>
</trkpt>
<trkpt lat="40.072842" lon="-105.230575">
  <ele>1586.09</ele>
  <time>2026-08-27T18:24:52Z</time>
  <course>266.03</course>
  <speed>0.0</speed>
  <fix>3d</fix>
</trkpt>
<trkpt lat="40.072842" lon="-105.230575">
  <ele>1586.09</ele>
  <time>2026-08-27T18:24:52Z</time>
  <course>11.94</course>
  <speed>0.022360679774997897</speed>
  <fix>3d</fix>
</trkpt>
<trkpt lat="40.072842" lon="-105.230575">
  <ele>1586.09</ele>
  <time>2026-08-27T18:24:52Z</time>
  <course>266.03</course>
  <speed>0.0</speed>
  <fix>3d</fix>
</trkpt>
<trkpt lat="40.072842" lon="-105.230575">
  <ele>1586.09</ele>
  <time>2026-08-27T18:24:52Z</time>
  <course>11.93</course>
  <speed>0.022360679774997897</speed>
  <fix>3d</fix>
</trkpt>
<trkpt lat="40.072842" lon="-105.230575">
  <ele>1586.09</ele>
  <time>2026-08-27T18:24:52Z</time>
  <course>266.03</course>
  <speed>0.0</speed>
  <fix>3d</fix>
</trkpt>
<trkpt lat="40.072842" lon="-105.230575">
  <ele>1586.09</ele>
  <time>2026-08-27T18:24:52Z</time>
  <course>11.92</course>
  <speed>0.022360679774997897</speed>
  <fix>3d</fix>
</trkpt>
<trkpt lat="40.072842" lon="-105.230575">
  <ele>1586.09</ele>
  <time>2026-08-27T18:24:52Z</time>
  <course>266.03</course>
  <speed>0.0</speed>
  <fix>3d</fix>
</trkpt>
<trkpt lat="40.072842" lon="-105.230575">
  <ele>1586.09</ele>
  <time>2026-08-27T18:24:52Z</time>
  <course>11.92</course>
  <speed>0.022360679774997897</speed>
  <fix>3d</fix>
</trkpt>
<trkpt lat="40.072842" lon="-105.230575">
  <ele>1586.09</ele>
  <time>2026-08-27T18:24:52Z</time>
  <course>266.03</course>
  <speed>0.0</speed>
  <fix>3d</fix>
</trkpt>
<trkpt lat="40.072842" lon="-105.230575">
  <ele>1586.09</ele>
  <time>2026-08-27T18:24:52Z</time>
  <course>11.91</course>
  <speed>0.022360679774997897</speed>
  <fix>3d</fix>
</trkpt>
<trkpt lat="40.072842" lon="-105.230575">
  <ele>1586.09</ele>
  <time>2026-08-27T18:24:52Z</time>
  <course>266.03</course>
  <speed>0.0</speed>
  <fix>3d</fix>
</trkpt>
<trkpt lat="40.072842" lon="-105.230575">
  <ele>1586.09</ele>
  <time>2026-08-27T18:24:52Z</time>
  <course>11.9</course>
  <speed>0.022360679774997897</speed>
  <fix>3d</fix>
</trkpt>
<trkpt lat="40.072842" lon="-105.230575">
  <ele>1586.09</ele>
  <time>2026-08-27T18:24:52Z</time>
  <course>266.03</course>
  <speed>0.0</speed>
  <fix>3d</fix>
</trkpt>
<trkpt lat="40.072842" lon="-105.230575">
  <ele>1586.09</ele>
  <time>2026-08-27T18:24:52Z</time>
  <course>11.89</course>
  <speed>0.022360679774997897</speed>
  <fix>3d</fix>
</trkpt>
<trkpt lat="40.072842" lon="-105.230575">
  <ele>1586.09</ele>
  <time>2026-08-27T18:24:52Z</time>
  <course>266.03</course>
  <speed>0.0</speed>
  <fix>3d</fix>
</trkpt>
<trkpt lat="40.072842" lon="-105.230575">
  <ele>1586.09</ele>
  <time>2026-08-27T18:24:52Z</time>
  <course>11.88</course>
  <speed>0.022360679774997897</speed>
  <fix>3d</fix>
</trkpt>
<trkpt lat="40.072842" lon="-105.230575">
  <ele>1586.09</ele>
  <time>2026-08-27T18:24:52Z</time>
  <course>266.03</course>
  <speed>0.0</speed>
  <fix>3d</fix>
</trkpt>
<trkpt lat="40.072842" lon="-105.230575">
  <ele>1586.09</ele>
  <time>2026-08-27T18:24:52Z</time>
  <course>11.87</course>
  <speed>0.022360679774997897</speed>
  <fix>3d</fix>
</trkpt>
<trkpt lat="40.072842" lon="-105.230575">
  <ele>1586.09</ele>
  <time>2026-08-27T18:24:52Z</time>
  <course>266.03</course>
  <speed>0.0</speed>
  <fix>3d</fix>
</trkpt>
<trkpt lat="40.072842" lon="-105.230575">
  <ele>1586.09</ele>
  <time>2026-08-27T18:24:52Z</time>
  <course>11.87</course>
  <speed>0.022360679774997897</speed>
  <fix>3d</fix>
</trkpt>
<trkpt lat="40.072842" lon="-105.230575">
  <ele>1586.09</ele>
  <time>2026-08-27T18:24:52Z</time>
  <course>266.03</course>
  <speed>0.0</speed>
  <fix>3d</fix>
</trkpt>
<trkpt lat="40.072842" lon="-105.230575">
  <ele>1586.09</ele>
  <time>2026-08-27T18:24:52Z</time>
  <course>11.86</course>
  <speed>0.022360679774997897</speed>
  <fix>3d</fix>
</trkpt>
<trkpt lat="40.072842" lon="-105.230575">
  <ele>1586.09</ele>
  <time>2026-08-27T18:24:52Z</time>
  <course>266.03</course>
  <speed>0.0</speed>
  <fix>3d</fix>
</trkpt>
<trkpt lat="40.072842" lon="-105.230575">
  <ele>1586.09</ele>
  <time>2026-08-27T18:24:52Z</time>
  <course>11.85</course>
  <speed>0.0282842712474619</speed>
  <fix>3d</fix>
</trkpt>
<trkpt lat="40.072842" lon="-105.230575">
  <ele>1586.09</ele>
  <time>2026-08-27T18:24:52Z</time>
  <course>266.03</course>
  <speed>0.0</speed>
  <fix>3d</fix>
</trkpt>
<trkpt lat="40.072842" lon="-105.230575">
  <ele>1586.09</ele>
  <time>2026-08-27T18:24:52Z</time>
  <course>11.84</course>
  <speed>0.0282842712474619</speed>
  <fix>3d</fix>
</trkpt>
<trkpt lat="40.072842" lon="-105.230575">
  <ele>1586.09</ele>
  <time>2026-08-27T18:24:52Z</time>
  <course>266.03</course>
  <speed>0.0</speed>
  <fix>3d</fix>
</trkpt>
<trkpt lat="40.072842" lon="-105.230575">
  <ele>1586.09</ele>
  <time>2026-08-27T18:24:52Z</time>
  <course>11.83</course>
  <speed>0.0282842712474619</speed>
  <fix>3d</fix>
</trkpt>
<trkpt lat="40.072842" lon="-105.230575">
  <ele>1586.09</ele>
  <time>2026-08-27T18:24:52Z</time>
  <course>266.03</course>
  <speed>0.0</speed>
  <fix>3d</fix>
</trkpt>
<trkpt lat="40.072842" lon="-105.230575">
  <ele>1586.09</ele>
  <time>2026-08-27T18:24:52Z</time>
  <course>11.83</course>
  <speed>0.0282842712474619</speed>
  <fix>3d</fix>
</trkpt>
<trkpt lat="40.072842" lon="-105.230575">
  <ele>1586.09</ele>
  <time>2026-08-27T18:24:52Z</time>
  <course>266.03</course>
  <speed>0.0</speed>
  <fix>3d</fix>
</trkpt>
<trkpt lat="40.072842" lon="-105.230575">
  <ele>1586.09</ele>
  <time>2026-08-27T18:24:52Z</time>
  <course>11.82</course>
  <speed>0.0282842712474619</speed>
  <fix>3d</fix>
</trkpt>
<trkpt lat="40.072842" lon="-105.230575">
  <ele>1586.09</ele>
  <time>2026-08-27T18:24:52Z</time>
  <course>266.03</course>
  <speed>0.0</speed>
  <fix>3d</fix>
</trkpt>
<trkpt lat="40.072842" lon="-105.230575">
  <ele>1586.09</ele>
  <time>2026-08-27T18:24:52Z</time>
  <course>11.81</course>
  <speed>0.0282842712474619</speed>
  <fix>3d</fix>
</trkpt>
<trkpt lat="40.072842" lon="-105.230575">
  <ele>1586.09</ele>
  <time>2026-08-27T18:24:52Z</time>
  <course>266.03</course>
  <speed>0.0</speed>
  <fix>3d</fix>
</trkpt>
<trkpt lat="40.072842" lon="-105.230575">
  <ele>1586.09</ele>
  <time>2026-08-27T18:24:52Z</time>
  <course>11.8</course>
  <speed>0.0282842712474619</speed>
  <fix>3d</fix>
</trkpt>
<trkpt lat="40.072842" lon="-105.230575">
  <ele>1586.09</ele>
  <time>2026-08-27T18:24:52Z</time>
  <course>266.03</course>
  <speed>0.0</speed>
  <fix>3d</fix>
</trkpt>
<trkpt lat="40.072842" lon="-105.230575">
  <ele>1586.09</ele>
  <time>2026-08-27T18:24:52Z</time>
  <course>11.79</course>
  <speed>0.0282842712474619</speed>
  <fix>3d</fix>
</trkpt>
<trkpt lat="40.072842" lon="-105.230575">
  <ele>1586.09</ele>
  <time>2026-08-27T18:24:52Z</time>
  <course>266.03</course>
  <speed>0.0</speed>
  <fix>3d</fix>
</trkpt>
<trkpt lat="40.072842" lon="-105.230575">
  <ele>1586.09</ele>
  <time>2026-08-27T18:24:52Z</time>
  <course>11.79</course>
  <speed>0.0282842712474619</speed>
  <fix>3d</fix>
</trkpt>
<trkpt lat="40.072842" lon="-105.230575">
  <ele>1586.09</ele>
  <time>2026-08-27T18:24:52Z</time>
  <course>266.03</course>
  <speed>0.0</speed>
  <fix>3d</fix>
</trkpt>
<trkpt lat="40.072842" lon="-105.230575">
  <ele>1586.09</ele>
  <time>2026-08-27T18:24:52Z</time>
  <course>11.78</course>
  <speed>0.0282842712474619</speed>
  <fix>3d</fix>
</trkpt>
<trkpt lat="40.072842" lon="-105.230575">
  <ele>1586.09</ele>
  <time>2026-08-27T18:24:52Z</time>
  <course>266.03</course>
  <speed>0.0</speed>
  <fix>3d</fix>
</trkpt>
<trkpt lat="40.072842" lon="-105.230575">
  <ele>1586.09</ele>
  <time>2026-08-27T18:24:52Z</time>
  <course>11.77</course>
  <speed>0.0282842712474619</speed>
  <fix>3d</fix>
</trkpt>
<trkpt lat="40.072842" lon="-105.230575">
  <ele>1586.09</ele>
  <time>2026-08-27T18:24:52Z</time>
  <course>266.03</course>
  <speed>0.0</speed>
  <fix>3d</fix>
</trkpt>
<trkpt lat="40.072842" lon="-105.230575">
  <ele>1586.09</ele>
  <time>2026-08-27T18:24:52Z</time>
  <course>11.77</course>
  <speed>0.0282842712474619</speed>
  <fix>3d</fix>
</trkpt>
<trkpt lat="40.072842" lon="-105.230575">
  <ele>1586.09</ele>
  <time>2026-08-27T18:24:52Z</time>
  <course>266.03</course>
  <speed>0.0</speed>
  <fix>3d</fix>
</trkpt>
<trkpt lat="40.072842" lon="-105.230575">
  <ele>1586.09</ele>
  <time>2026-08-27T18:24:52Z</time>
  <course>11.76</course>
  <speed>0.0282842712474619</speed>
  <fix>3d</fix>
</trkpt>
<trkpt lat="40.072842" lon="-105.230575">
  <ele>1586.09</ele>
  <time>2026-08-27T18:24:52Z</time>
  <course>266.03</course>
  <speed>0.0</speed>
  <fix>3d</fix>
</trkpt>
<trkpt lat="40.072842" lon="-105.230575">
  <ele>1586.09</ele>
  <time>2026-08-27T18:24:52Z</time>
  <course>11.75</course>
  <speed>0.03605551275463989</speed>
  <fix>3d</fix>
</trkpt>
<trkpt lat="40.072842" lon="-105.230575">
  <ele>1586.09</ele>
  <time>2026-08-27T18:24:52Z</time>
  <course>266.03</course>
  <speed>0.0</speed>
  <fix>3d</fix>
</trkpt>
<trkpt lat="40.072842" lon="-105.230575">
  <ele>1586.09</ele>
  <time>2026-08-27T18:24:52Z</time>
  <course>11.74</course>
  <speed>0.03605551275463989</speed>
  <fix>3d</fix>
</trkpt>
<trkpt lat="40.072842" lon="-105.230575">
  <ele>1586.09</ele>
  <time>2026-08-27T18:24:52Z</time>
  <course>266.03</course>
  <speed>0.0</speed>
  <fix>3d</fix>
</trkpt>
<trkpt lat="40.072842" lon="-105.230575">
  <ele>1586.09</ele>
  <time>2026-08-27T18:24:52Z</time>
  <course>11.73</course>
  <speed>0.03605551275463989</speed>
  <fix>3d</fix>
</trkpt>
<trkpt lat="40.072842" lon="-105.230575">
  <ele>1586.09</ele>
  <time>2026-08-27T18:24:52Z</time>
  <course>266.03</course>
  <speed>0.0</speed>
  <fix>3d</fix>
</trkpt>
<trkpt lat="40.072842" lon="-105.230575">
  <ele>1586.09</ele>
  <time>2026-08-27T18:24:52Z</time>
  <course>11.73</course>
  <speed>0.03605551275463989</speed>
  <fix>3d</fix>
</trkpt>
<trkpt lat="40.072842" lon="-105.230575">
  <ele>1586.09</ele>
  <time>2026-08-27T18:24:52Z</time>
  <course>266.03</course>
  <speed>0.0</speed>
  <fix>3d</fix>
</trkpt>
<trkpt lat="40.072842" lon="-105.230575">
  <ele>1586.09</ele>
  <time>2026-08-27T18:24:52Z</time>
  <course>11.72</course>
  <speed>0.03605551275463989</speed>
  <fix>3d</fix>
</trkpt>
<trkpt lat="40.072842" lon="-105.230575">
  <ele>1586.09</ele>
  <time>2026-08-27T18:24:52Z</time>
  <course>266.03</course>
  <speed>0.0</speed>
  <fix>3d</fix>
</trkpt>
<trkpt lat="40.072842" lon="-105.230575">
  <ele>1586.09</ele>
  <time>2026-08-27T18:24:52Z</time>
  <course>11.71</course>
  <speed>0.03605551275463989</speed>
  <fix>3d</fix>
</trkpt>
<trkpt lat="40.072842" lon="-105.230575">
  <ele>1586.09</ele>
  <time>2026-08-27T18:24:52Z</time>
  <course>266.03</course>
  <speed>0.0</speed>
  <fix>3d</fix>
</trkpt>
<trkpt lat="40.072842" lon="-105.230575">
  <ele>1586.09</ele>
  <time>2026-08-27T18:24:52Z</time>
  <course>11.7</course>
  <speed>0.03605551275463989</speed>
  <fix>3d</fix>
</trkpt>
<trkpt lat="40.072842" lon="-105.230575">
  <ele>1586.09</ele>
  <time>2026-08-27T18:24:52Z</time>
  <course>266.03</course>
  <speed>0.0</speed>
  <fix>3d</fix>
</trkpt>
<trkpt lat="40.072842" lon="-105.230575">
  <ele>1586.09</ele>
  <time>2026-08-27T18:24:52Z</time>
  <course>11.7</course>
  <speed>0.03605551275463989</speed>
  <fix>3d</fix>
</trkpt>
<trkpt lat="40.072842" lon="-105.230575">
  <ele>1586.09</ele>
  <time>2026-08-27T18:24:52Z</time>
  <course>266.03</course>
  <speed>0.0</speed>
  <fix>3d</fix>
</trkpt>
<trkpt lat="40.072842" lon="-105.230575">
  <ele>1586.09</ele>
  <time>2026-08-27T18:24:52Z</time>
  <course>11.69</course>
  <speed>0.03605551275463989</speed>
  <fix>3d</fix>
</trkpt>
<trkpt lat="40.072842" lon="-105.230575">
  <ele>1586.09</ele>
  <time>2026-08-27T18:24:52Z</time>
  <course>266.03</course>
  <speed>0.0</speed>
  <fix>3d</fix>
</trkpt>
<trkpt lat="40.072842" lon="-105.230575">
  <ele>1586.09</ele>
  <time>2026-08-27T18:24:52Z</time>
  <course>11.68</course>
  <speed>0.03605551275463989</speed>
  <fix>3d</fix>
</trkpt>
<trkpt lat="40.072842" lon="-105.230575">
  <ele>1586.09</ele>
  <time>2026-08-27T18:24:52Z</time>
  <course>266.03</course>
  <speed>0.0</speed>
  <fix>3d</fix>
</trkpt>
<trkpt lat="40.072842" lon="-105.230575">
  <ele>1586.09</ele>
  <time>2026-08-27T18:24:52Z</time>
  <course>11.67</course>
  <speed>0.03605551275463989</speed>
  <fix>3d</fix>
</trkpt>
<trkpt lat="40.072842" lon="-105.230575">
  <ele>1586.09</ele>
  <time>2026-08-27T18:24:52Z</time>
  <course>266.03</course>
  <speed>0.0</speed>
  <fix>3d</fix>
</trkpt>
<trkpt lat="40.072842" lon="-105.230575">
  <ele>1586.09</ele>
  <time>2026-08-27T18:24:52Z</time>
  <course>11.67</course>
  <speed>0.03605551275463989</speed>
  <fix>3d</fix>
</trkpt>
<trkpt lat="40.072842" lon="-105.230575">
  <ele>1586.09</ele>
  <time>2026-08-27T18:24:52Z</time>
  <course>266.03</course>
  <speed>0.0</speed>
  <fix>3d</fix>
</trkpt>
<trkpt lat="40.072842" lon="-105.230575">
  <ele>1586.09</ele>
  <time>2026-08-27T18:24:52Z</time>
  <course>11.66</course>
  <speed>0.03605551275463989</speed>
  <fix>3d</fix>
</trkpt>
<trkpt lat="40.072842" lon="-105.230575">
  <ele>1586.09</ele>
  <time>2026-08-27T18:24:52Z</time>
  <course>266.03</course>
  <speed>0.0</speed>
  <fix>3d</fix>
</trkpt>
<trkpt lat="40.072842" lon="-105.230575">
  <ele>1586.09</ele>
  <time>2026-08-27T18:24:52Z</time>
  <course>11.65</course>
  <speed>0.03605551275463989</speed>
  <fix>3d</fix>
</trkpt>
<trkpt lat="40.072842" lon="-105.230575">
  <ele>1586.09</ele>
  <time>2026-08-27T18:24:52Z</time>
  <course>266.03</course>
  <speed>0.0</speed>
  <fix>3d</fix>
</trkpt>
<trkpt lat="40.072842" lon="-105.230575">
  <ele>1586.09</ele>
  <time>2026-08-27T18:24:52Z</time>
  <course>11.65</course>
  <speed>0.03605551275463989</speed>
  <fix>3d</fix>
</trkpt>
<trkpt lat="40.072842" lon="-105.230575">
  <ele>1586.09</ele>
  <time>2026-08-27T18:24:52Z</time>
  <course>266.03</course>
  <speed>0.0</speed>
  <fix>3d</fix>
</trkpt>
<trkpt lat="40.072842" lon="-105.230575">
  <ele>1586.09</ele>
  <time>2026-08-27T18:24:52Z</time>
  <course>11.64</course>
  <speed>0.03605551275463989</speed>
  <fix>3d</fix>
</trkpt>
<trkpt lat="40.072842" lon="-105.230575">
  <ele>1586.09</ele>
  <time>2026-08-27T18:24:52Z</time>
  <course>266.03</course>
  <speed>0.0</speed>
  <fix>3d</fix>
</trkpt>
<trkpt lat="40.072842" lon="-105.230575">
  <ele>1586.09</ele>
  <time>2026-08-27T18:24:52Z</time>
  <course>11.63</course>
  <speed>0.03605551275463989</speed>
  <fix>3d</fix>
</trkpt>
<trkpt lat="40.072842" lon="-105.230575">
  <ele>1586.09</ele>
  <time>2026-08-27T18:24:52Z</time>
  <course>266.03</course>
  <speed>0.0</speed>
  <fix>3d</fix>
</trkpt>
<trkpt lat="40.072842" lon="-105.230575">
  <ele>1586.09</ele>
  <time>2026-08-27T18:24:52Z</time>
  <course>11.63</course>
  <speed>0.03605551275463989</speed>
  <fix>3d</fix>
</trkpt>
<trkpt lat="40.072842" lon="-105.230575">
  <ele>1586.09</ele>
  <time>2026-08-27T18:24:52Z</time>
  <course>266.03</course>
  <speed>0.0</speed>
  <fix>3d</fix>
</trkpt>
<trkpt lat="40.072842" lon="-105.230575">
  <ele>1586.09</ele>
  <time>2026-08-27T18:24:52Z</time>
  <course>11.62</course>
  <speed>0.03605551275463989</speed>
  <fix>3d</fix>
</trkpt>
<trkpt lat="40.072842" lon="-105.230575">
  <ele>1586.09</ele>
  <time>2026-08-27T18:24:52Z</time>
  <course>266.03</course>
  <speed>0.0</speed>
  <fix>3d</fix>
</trkpt>
<trkpt lat="40.072842" lon="-105.230575">
  <ele>1586.09</ele>
  <time>2026-08-27T18:24:52Z</time>
  <course>11.61</course>
  <speed>0.03605551275463989</speed>
  <fix>3d</fix>
</trkpt>
<trkpt lat="40.072842" lon="-105.230575">
  <ele>1586.09</ele>
  <time>2026-08-27T18:24:52Z</time>
  <course>266.03</course>
  <speed>0.0</speed>
  <fix>3d</fix>
</trkpt>
<trkpt lat="40.072842" lon="-105.230575">
  <ele>1586.09</ele>
  <time>2026-08-27T18:24:52Z</time>
  <course>11.61</course>
  <speed>0.03605551275463989</speed>
  <fix>3d</fix>
</trkpt>
<trkpt lat="40.072842" lon="-105.230575">
  <ele>1586.09</ele>
  <time>2026-08-27T18:24:52Z</time>
  <course>266.03</course>
  <speed>0.0</speed>
  <fix>3d</fix>
</trkpt>
<trkpt lat="40.072842" lon="-105.230575">
  <ele>1586.09</ele>
  <time>2026-08-27T18:24:52Z</time>
  <course>11.6</course>
  <speed>0.03605551275463989</speed>
  <fix>3d</fix>
</trkpt>
<trkpt lat="40.072842" lon="-105.230575">
  <ele>1586.09</ele>
  <time>2026-08-27T18:24:52Z</time>
  <course>266.03</course>
  <speed>0.0</speed>
  <fix>3d</fix>
</trkpt>
<trkpt lat="40.072842" lon="-105.230575">
  <ele>1586.09</ele>
  <time>2026-08-27T18:24:52Z</time>
  <course>11.6</course>
  <speed>0.03605551275463989</speed>
  <fix>3d</fix>
</trkpt>
<trkpt lat="40.072842" lon="-105.230575">
  <ele>1586.09</ele>
  <time>2026-08-27T18:24:52Z</time>
  <course>266.03</course>
  <speed>0.0</speed>
  <fix>3d</fix>
</trkpt>
<trkpt lat="40.072842" lon="-105.230575">
  <ele>1586.09</ele>
  <time>2026-08-27T18:24:52Z</time>
  <course>11.59</course>
  <speed>0.03605551275463989</speed>
  <fix>3d</fix>
</trkpt>
<trkpt lat="40.072842" lon="-105.230575">
  <ele>1586.09</ele>
  <time>2026-08-27T18:24:52Z</time>
  <course>266.03</course>
  <speed>0.0</speed>
  <fix>3d</fix>
</trkpt>
<trkpt lat="40.072842" lon="-105.230575">
  <ele>1586.09</ele>
  <time>2026-08-27T18:24:52Z</time>
  <course>11.58</course>
  <speed>0.03605551275463989</speed>
  <fix>3d</fix>
</trkpt>
<trkpt lat="40.072842" lon="-105.230575">
  <ele>1586.09</ele>
  <time>2026-08-27T18:24:52Z</time>
  <course>266.03</course>
  <speed>0.0</speed>
  <fix>3d</fix>
</trkpt>
<trkpt lat="40.072842" lon="-105.230575">
  <ele>1586.09</ele>
  <time>2026-08-27T18:24:52Z</time>
  <course>11.58</course>
  <speed>0.03605551275463989</speed>
  <fix>3d</fix>
</trkpt>
<trkpt lat="40.072842" lon="-105.230575">
  <ele>1586.09</ele>
  <time>2026-08-27T18:24:52Z</time>
  <course>266.03</course>
  <speed>0.0</speed>
  <fix>3d</fix>
</trkpt>
<trkpt lat="40.072842" lon="-105.230575">
  <ele>1586.09</ele>
  <time>2026-08-27T18:24:52Z</time>
  <course>11.57</course>
  <speed>0.03605551275463989</speed>
  <fix>3d</fix>
</trkpt>
<trkpt lat="40.072842" lon="-105.230575">
  <ele>1586.09</ele>
  <time>2026-08-27T18:24:52Z</time>
  <course>266.03</course>
  <speed>0.0</speed>
  <fix>3d</fix>
</trkpt>
<trkpt lat="40.072842" lon="-105.230575">
  <ele>1586.09</ele>
  <time>2026-08-27T18:24:52Z</time>
  <course>11.56</course>
  <speed>0.03605551275463989</speed>
  <fix>3d</fix>
</trkpt>
<trkpt lat="40.072842" lon="-105.230575">
  <ele>1586.09</ele>
  <time>2026-08-27T18:24:52Z</time>
  <course>266.03</course>
  <speed>0.0</speed>
  <fix>3d</fix>
</trkpt>
<trkpt lat="40.072842" lon="-105.230575">
  <ele>1586.09</ele>
  <time>2026-08-27T18:24:52Z</time>
  <course>11.56</course>
  <speed>0.03605551275463989</speed>
  <fix>3d</fix>
</trkpt>
<trkpt lat="40.072842" lon="-105.230575">
  <ele>1586.09</ele>
  <time>2026-08-27T18:24:52Z</time>
  <course>266.03</course>
  <speed>0.0</speed>
  <fix>3d</fix>
</trkpt>
<trkpt lat="40.072842" lon="-105.230575">
  <ele>1586.09</ele>
  <time>2026-08-27T18:24:52Z</time>
  <course>11.55</course>
  <speed>0.03605551275463989</speed>
  <fix>3d</fix>
</trkpt>
<trkpt lat="40.072842" lon="-105.230575">
  <ele>1586.09</ele>
  <time>2026-08-27T18:24:52Z</time>
  <course>266.03</course>
  <speed>0.0</speed>
  <fix>3d</fix>
</trkpt>
<trkpt lat="40.072842" lon="-105.230575">
  <ele>1586.09</ele>
  <time>2026-08-27T18:24:52Z</time>
  <course>11.55</course>
  <speed>0.03605551275463989</speed>
  <fix>3d</fix>
</trkpt>
<trkpt lat="40.072842" lon="-105.230575">
  <ele>1586.09</ele>
  <time>2026-08-27T18:24:52Z</time>
  <course>266.03</course>
  <speed>0.0</speed>
  <fix>3d</fix>
</trkpt>
<trkpt lat="40.072842" lon="-105.230575">
  <ele>1586.09</ele>
  <time>2026-08-27T18:24:52Z</time>
  <course>11.54</course>
  <speed>0.03605551275463989</speed>
  <fix>3d</fix>
</trkpt>
<trkpt lat="40.072842" lon="-105.230575">
  <ele>1586.09</ele>
  <time>2026-08-27T18:24:52Z</time>
  <course>266.03</course>
  <speed>0.0</speed>
  <fix>3d</fix>
</trkpt>
<trkpt lat="40.072842" lon="-105.230575">
  <ele>1586.09</ele>
  <time>2026-08-27T18:24:52Z</time>
  <course>11.53</course>
  <speed>0.03605551275463989</speed>
  <fix>3d</fix>
</trkpt>
<trkpt lat="40.072842" lon="-105.230575">
  <ele>1586.09</ele>
  <time>2026-08-27T18:24:52Z</time>
  <course>266.03</course>
  <speed>0.0</speed>
  <fix>3d</fix>
</trkpt>
<trkpt lat="40.072842" lon="-105.230575">
  <ele>1586.09</ele>
  <time>2026-08-27T18:24:52Z</time>
  <course>11.53</course>
  <speed>0.03605551275463989</speed>
  <fix>3d</fix>
</trkpt>
<trkpt lat="40.072842" lon="-105.230575">
  <ele>1586.09</ele>
  <time>2026-08-27T18:24:52Z</time>
  <course>266.03</course>
  <speed>0.0</speed>
  <fix>3d</fix>
</trkpt>
<trkpt lat="40.072842" lon="-105.230575">
  <ele>1586.09</ele>
  <time>2026-08-27T18:24:52Z</time>
  <course>11.52</course>
  <speed>0.03605551275463989</speed>
  <fix>3d</fix>
</trkpt>
<trkpt lat="40.072842" lon="-105.230575">
  <ele>1586.09</ele>
  <time>2026-08-27T18:24:52Z</time>
  <course>266.03</course>
  <speed>0.0</speed>
  <fix>3d</fix>
</trkpt>
<trkpt lat="40.072842" lon="-105.230575">
  <ele>1586.09</ele>
  <time>2026-08-27T18:24:52Z</time>
  <course>11.52</course>
  <speed>0.03605551275463989</speed>
  <fix>3d</fix>
</trkpt>
<trkpt lat="40.072842" lon="-105.230575">
  <ele>1586.09</ele>
  <time>2026-08-27T18:24:52Z</time>
  <course>266.03</course>
  <speed>0.0</speed>
  <fix>3d</fix>
</trkpt>
<trkpt lat="40.072842" lon="-105.230575">
  <ele>1586.09</ele>
  <time>2026-08-27T18:24:52Z</time>
  <course>11.51</course>
  <speed>0.03605551275463989</speed>
  <fix>3d</fix>
</trkpt>
<trkpt lat="40.072842" lon="-105.230575">
  <ele>1586.09</ele>
  <time>2026-08-27T18:24:52Z</time>
  <course>266.03</course>
  <speed>0.0</speed>
  <fix>3d</fix>
</trkpt>
<trkpt lat="40.072842" lon="-105.230575">
  <ele>1586.09</ele>
  <time>2026-08-27T18:24:52Z</time>
  <course>11.51</course>
  <speed>0.044721359549995794</speed>
  <fix>3d</fix>
</trkpt>
<trkpt lat="40.072842" lon="-105.230575">
  <ele>1586.09</ele>
  <time>2026-08-27T18:24:52Z</time>
  <course>266.03</course>
  <speed>0.0</speed>
  <fix>3d</fix>
</trkpt>
<trkpt lat="40.072842" lon="-105.230575">
  <ele>1586.09</ele>
  <time>2026-08-27T18:24:52Z</time>
  <course>11.5</course>
  <speed>0.044721359549995794</speed>
  <fix>3d</fix>
</trkpt>
<trkpt lat="40.072842" lon="-105.230575">
  <ele>1586.09</ele>
  <time>2026-08-27T18:24:52Z</time>
  <course>266.03</course>
  <speed>0.0</speed>
  <fix>3d</fix>
</trkpt>
<trkpt lat="40.072842" lon="-105.230575">
  <ele>1586.09</ele>
  <time>2026-08-27T18:24:52Z</time>
  <course>11.49</course>
  <speed>0.044721359549995794</speed>
  <fix>3d</fix>
</trkpt>
<trkpt lat="40.072842" lon="-105.230575">
  <ele>1586.09</ele>
  <time>2026-08-27T18:24:52Z</time>
  <course>266.03</course>
  <speed>0.0</speed>
  <fix>3d</fix>
</trkpt>
<trkpt lat="40.072842" lon="-105.230575">
  <ele>1586.09</ele>
  <time>2026-08-27T18:24:52Z</time>
  <course>11.49</course>
  <speed>0.044721359549995794</speed>
  <fix>3d</fix>
</trkpt>
<trkpt lat="40.072842" lon="-105.230575">
  <ele>1586.09</ele>
  <time>2026-08-27T18:24:52Z</time>
  <course>266.03</course>
  <speed>0.0</speed>
  <fix>3d</fix>
</trkpt>
<trkpt lat="40.072842" lon="-105.230575">
  <ele>1586.09</ele>
  <time>2026-08-27T18:24:52Z</time>
  <course>11.48</course>
  <speed>0.044721359549995794</speed>
  <fix>3d</fix>
</trkpt>
<trkpt lat="40.072842" lon="-105.230575">
  <ele>1586.09</ele>
  <time>2026-08-27T18:24:52Z</time>
  <course>266.03</course>
  <speed>0.0</speed>
  <fix>3d</fix>
</trkpt>
<trkpt lat="40.072842" lon="-105.230575">
  <ele>1586.09</ele>
  <time>2026-08-27T18:24:52Z</time>
  <course>11.48</course>
  <speed>0.044721359549995794</speed>
  <fix>3d</fix>
</trkpt>
<trkpt lat="40.072842" lon="-105.230575">
  <ele>1586.09</ele>
  <time>2026-08-27T18:24:52Z</time>
  <course>266.03</course>
  <speed>0.0</speed>
  <fix>3d</fix>
</trkpt>
<trkpt lat="40.072842" lon="-105.230575">
  <ele>1586.09</ele>
  <time>2026-08-27T18:24:52Z</time>
  <course>11.47</course>
  <speed>0.044721359549995794</speed>
  <fix>3d</fix>
</trkpt>
<trkpt lat="40.072842" lon="-105.230575">
  <ele>1586.09</ele>
  <time>2026-08-27T18:24:52Z</time>
  <course>266.03</course>
  <speed>0.0</speed>
  <fix>3d</fix>
</trkpt>
<trkpt lat="40.072842" lon="-105.230575">
  <ele>1586.09</ele>
  <time>2026-08-27T18:24:52Z</time>
  <course>11.47</course>
  <speed>0.044721359549995794</speed>
  <fix>3d</fix>
</trkpt>
<trkpt lat="40.072842" lon="-105.230575">
  <ele>1586.09</ele>
  <time>2026-08-27T18:24:52Z</time>
  <course>266.03</course>
  <speed>0.0</speed>
  <fix>3d</fix>
</trkpt>
<trkpt lat="40.072842" lon="-105.230575">
  <ele>1586.09</ele>
  <time>2026-08-27T18:24:52Z</time>
  <course>11.46</course>
  <speed>0.044721359549995794</speed>
  <fix>3d</fix>
</trkpt>
<trkpt lat="40.072842" lon="-105.230575">
  <ele>1586.09</ele>
  <time>2026-08-27T18:24:52Z</time>
  <course>266.03</course>
  <speed>0.0</speed>
  <fix>3d</fix>
</trkpt>
<trkpt lat="40.072842" lon="-105.230575">
  <ele>1586.09</ele>
  <time>2026-08-27T18:24:52Z</time>
  <course>11.46</course>
  <speed>0.044721359549995794</speed>
  <fix>3d</fix>
</trkpt>
<trkpt lat="40.072842" lon="-105.230575">
  <ele>1586.09</ele>
  <time>2026-08-27T18:24:52Z</time>
  <course>266.03</course>
  <speed>0.0</speed>
  <fix>3d</fix>
</trkpt>
<trkpt lat="40.072842" lon="-105.230575">
  <ele>1586.16</ele>
  <time>2026-08-27T18:24:52Z</time>
  <course>11.45</course>
  <speed>0.0</speed>
  <fix>3d</fix>
</trkpt>
<trkpt lat="40.072842" lon="-105.230575">
  <ele>1586.09</ele>
  <time>2026-08-27T18:24:52Z</time>
  <course>297.19</course>
  <speed>0.0</speed>
  <fix>3d</fix>
</trkpt>
<trkpt lat="40.072842" lon="-105.230575">
  <ele>1586.16</ele>
  <time>2026-08-27T18:24:52Z</time>
  <course>11.45</course>
  <speed>0.0</speed>
  <fix>3d</fix>
</trkpt>
<trkpt lat="40.072842" lon="-105.230575">
  <ele>1586.09</ele>
  <time>2026-08-27T18:24:52Z</time>
  <course>269.87</course>
  <speed>0.0</speed>
  <fix>3d</fix>
</trkpt>
<trkpt lat="40.072842" lon="-105.230575">
  <ele>1586.16</ele>
  <time>2026-08-27T18:24:52Z</time>
  <course>11.44</course>
  <speed>0.0</speed>
  <fix>3d</fix>
</trkpt>
<trkpt lat="40.072842" lon="-105.230575">
  <ele>1586.09</ele>
  <time>2026-08-27T18:24:52Z</time>
  <course>241.23</course>
  <speed>0.0</speed>
  <fix>3d</fix>
</trkpt>
<trkpt lat="40.072842" lon="-105.230575">
  <ele>1586.16</ele>
  <time>2026-08-27T18:24:52Z</time>
  <course>11.44</course>
  <speed>0.0</speed>
  <fix>3d</fix>
</trkpt>
<trkpt lat="40.072842" lon="-105.230575">
  <ele>1586.09</ele>
  <time>2026-08-27T18:24:52Z</time>
  <course>93.08</course>
  <speed>0.0</speed>
  <fix>3d</fix>
</trkpt>
<trkpt lat="40.072842" lon="-105.230575">
  <ele>1586.17</ele>
  <time>2026-08-27T18:24:52Z</time>
  <course>11.44</course>
  <speed>0.0</speed>
  <fix>3d</fix>
</trkpt>
<trkpt lat="40.072842" lon="-105.230575">
  <ele>1586.09</ele>
  <time>2026-08-27T18:24:52Z</time>
  <course>317.31</course>
  <speed>0.0</speed>
  <fix>3d</fix>
</trkpt>
<trkpt lat="40.072842" lon="-105.230575">
  <ele>1586.17</ele>
  <time>2026-08-27T18:24:52Z</time>
  <course>11.43</course>
  <speed>0.01</speed>
  <fix>3d</fix>
</trkpt>
<trkpt lat="40.072842" lon="-105.230575">
  <ele>1586.09</ele>
  <time>2026-08-27T18:24:52Z</time>
  <course>265.24</course>
  <speed>0.0</speed>
  <fix>3d</fix>
</trkpt>
<trkpt lat="40.072842" lon="-105.230575">
  <ele>1586.17</ele>
  <time>2026-08-27T18:24:52Z</time>
  <course>11.43</course>
  <speed>0.01</speed>
  <fix>3d</fix>
</trkpt>
<trkpt lat="40.072842" lon="-105.230575">
  <ele>1586.09</ele>
  <time>2026-08-27T18:24:52Z</time>
  <course>261.76</course>
  <speed>0.0</speed>
  <fix>3d</fix>
</trkpt>
<trkpt lat="40.072842" lon="-105.230575">
  <ele>1586.17</ele>
  <time>2026-08-27T18:24:52Z</time>
  <course>11.42</course>
  <speed>0.01</speed>
  <fix>3d</fix>
</trkpt>
<trkpt lat="40.072842" lon="-105.230575">
  <ele>1586.09</ele>
  <time>2026-08-27T18:24:52Z</time>
  <course>266.78</course>
  <speed>0.0</speed>
  <fix>3d</fix>
</trkpt>
<trkpt lat="40.072842" lon="-105.230575">
  <ele>1586.17</ele>
  <time>2026-08-27T18:24:52Z</time>
  <course>11.42</course>
  <speed>0.01414213562373095</speed>
  <fix>3d</fix>
</trkpt>
<trkpt lat="40.072842" lon="-105.230575">
  <ele>1586.09</ele>
  <time>2026-08-27T18:24:52Z</time>
  <course>266.53</course>
  <speed>0.0</speed>
  <fix>3d</fix>
</trkpt>
<trkpt lat="40.072842" lon="-105.230575">
  <ele>1586.17</ele>
  <time>2026-08-27T18:24:52Z</time>
  <course>11.42</course>
  <speed>0.01414213562373095</speed>
  <fix>3d</fix>
</trkpt>
<trkpt lat="40.072842" lon="-105.230575">
  <ele>1586.09</ele>
  <time>2026-08-27T18:24:52Z</time>
  <course>265.88</course>
  <speed>0.0</speed>
  <fix>3d</fix>
</trkpt>
<trkpt lat="40.072842" lon="-105.230575">
  <ele>1586.17</ele>
  <time>2026-08-27T18:24:52Z</time>
  <course>11.41</course>
  <speed>0.01414213562373095</speed>
  <fix>3d</fix>
</trkpt>
<trkpt lat="40.072842" lon="-105.230575">
  <ele>1586.09</ele>
  <time>2026-08-27T18:24:52Z</time>
  <course>265.51</course>
  <speed>0.0</speed>
  <fix>3d</fix>
</trkpt>
<trkpt lat="40.072842" lon="-105.230575">
  <ele>1586.17</ele>
  <time>2026-08-27T18:24:52Z</time>
  <course>11.41</course>
  <speed>0.022360679774997897</speed>
  <fix>3d</fix>
</trkpt>
<trkpt lat="40.072842" lon="-105.230575">
  <ele>1586.09</ele>
  <time>2026-08-27T18:24:52Z</time>
  <course>278.37</course>
  <speed>0.0</speed>
  <fix>3d</fix>
</trkpt>
<trkpt lat="40.072842" lon="-105.230575">
  <ele>1586.17</ele>
  <time>2026-08-27T18:24:52Z</time>
  <course>11.4</course>
  <speed>0.01414213562373095</speed>
  <fix>3d</fix>
</trkpt>
<trkpt lat="40.072842" lon="-105.230575">
  <ele>1586.09</ele>
  <time>2026-08-27T18:24:52Z</time>
  <course>273.46</course>
  <speed>0.0</speed>
  <fix>3d</fix>
</trkpt>
<trkpt lat="40.072842" lon="-105.230575">
  <ele>1586.17</ele>
  <time>2026-08-27T18:24:52Z</time>
  <course>11.4</course>
  <speed>0.01414213562373095</speed>
  <fix>3d</fix>
</trkpt>
<trkpt lat="40.072842" lon="-105.230575">
  <ele>1586.09</ele>
  <time>2026-08-27T18:24:52Z</time>
  <course>260.47</course>
  <speed>0.0</speed>
  <fix>3d</fix>
</trkpt>
<trkpt lat="40.072842" lon="-105.230575">
  <ele>1586.17</ele>
  <time>2026-08-27T18:24:52Z</time>
  <course>11.4</course>
  <speed>0.01414213562373095</speed>
  <fix>3d</fix>
</trkpt>
<trkpt lat="40.072842" lon="-105.230575">
  <ele>1586.09</ele>
  <time>2026-08-27T18:24:52Z</time>
  <course>265.88</course>
  <speed>0.0</speed>
  <fix>3d</fix>
</trkpt>
<trkpt lat="39.654938" lon="-104.1331666">
  <ele>1569.54</ele>
  <time>2026-08-27T18:24:57Z</time>
  <course>168.11</course>
  <speed>0.0</speed>
  <fix>3d</fix>
</trkpt>
<trkpt lat="40.072842" lon="-105.230575">
  <ele>1586.09</ele>
  <time>2026-08-27T18:24:57Z</time>
  <course>2.1</course>
  <speed>0.0</speed>
  <fix>3d</fix>
</trkpt>
<trkpt lat="40.072842" lon="-105.230575">
  <ele>1586.09</ele>
  <time>2026-08-27T18:24:57Z</time>
  <course>238.4</course>
  <speed>0.0</speed>
  <fix>3d</fix>
</trkpt>
<trkpt lat="40.072842" lon="-105.230575">
  <ele>1586.09</ele>
  <time>2026-08-27T18:24:57Z</time>
  <course>2.68</course>
  <speed>0.0</speed>
  <fix>3d</fix>
</trkpt>
<trkpt lat="40.072842" lon="-105.230575">
  <ele>1586.09</ele>
  <time>2026-08-27T18:24:57Z</time>
  <course>194.29</course>
  <speed>0.0</speed>
  <fix>3d</fix>
</trkpt>
<trkpt lat="40.072842" lon="-105.230575">
  <ele>1586.09</ele>
  <time>2026-08-27T18:24:57Z</time>
  <course>3.42</course>
  <speed>0.0</speed>
  <fix>3d</fix>
</trkpt>
<trkpt lat="40.072842" lon="-105.230575">
  <ele>1586.09</ele>
  <time>2026-08-27T18:24:57Z</time>
  <course>193.66</course>
  <speed>0.0</speed>
  <fix>3d</fix>
</trkpt>
<trkpt lat="40.072842" lon="-105.230575">
  <ele>1586.09</ele>
  <time>2026-08-27T18:24:57Z</time>
  <course>4.08</course>
  <speed>0.0</speed>
  <fix>3d</fix>
</trkpt>
<trkpt lat="40.072842" lon="-105.230575">
  <ele>1586.09</ele>
  <time>2026-08-27T18:24:57Z</time>
  <course>303.54</course>
  <speed>0.0</speed>
  <fix>3d</fix>
</trkpt>
<trkpt lat="40.072842" lon="-105.230575">
  <ele>1586.09</ele>
  <time>2026-08-27T18:24:57Z</time>
  <course>4.68</course>
  <speed>0.0</speed>
  <fix>3d</fix>
</trkpt>
<trkpt lat="40.072842" lon="-105.230575">
  <ele>1586.09</ele>
  <time>2026-08-27T18:24:57Z</time>
  <course>110.94</course>
  <speed>0.0</speed>
  <fix>3d</fix>
</trkpt>
<trkpt lat="40.072842" lon="-105.230575">
  <ele>1586.09</ele>
  <time>2026-08-27T18:24:57Z</time>
  <course>5.26</course>
  <speed>0.0</speed>
  <fix>3d</fix>
</trkpt>
<trkpt lat="40.072842" lon="-105.230575">
  <ele>1586.09</ele>
  <time>2026-08-27T18:24:57Z</time>
  <course>191.21</course>
  <speed>0.0</speed>
  <fix>3d</fix>
</trkpt>
<trkpt lat="40.072842" lon="-105.230575">
  <ele>1586.09</ele>
  <time>2026-08-27T18:24:57Z</time>
  <course>5.81</course>
  <speed>0.0</speed>
  <fix>3d</fix>
</trkpt>
<trkpt lat="40.072842" lon="-105.230575">
  <ele>1586.09</ele>
  <time>2026-08-27T18:24:57Z</time>
  <course>252.23</course>
  <speed>0.0</speed>
  <fix>3d</fix>
</trkpt>
<trkpt lat="40.072842" lon="-105.230575">
  <ele>1586.09</ele>
  <time>2026-08-27T18:24:57Z</time>
  <course>6.33</course>
  <speed>0.0</speed>
  <fix>3d</fix>
</trkpt>
<trkpt lat="40.072842" lon="-105.230575">
  <ele>1586.09</ele>
  <time>2026-08-27T18:24:57Z</time>
  <course>170.36</course>
  <speed>0.0</speed>
  <fix>3d</fix>
</trkpt>
<trkpt lat="40.072842" lon="-105.230575">
  <ele>1586.09</ele>
  <time>2026-08-27T18:24:57Z</time>
  <course>6.81</course>
  <speed>0.0</speed>
  <fix>3d</fix>
</trkpt>
<trkpt lat="40.072842" lon="-105.230575">
  <ele>1586.09</ele>
  <time>2026-08-27T18:24:57Z</time>
  <course>179.36</course>
  <speed>0.0</speed>
  <fix>3d</fix>
</trkpt>
<trkpt lat="40.072842" lon="-105.230575">
  <ele>1586.09</ele>
  <time>2026-08-27T18:24:57Z</time>
  <course>7.26</course>
  <speed>0.0</speed>
  <fix>3d</fix>
</trkpt>
<trkpt lat="40.072842" lon="-105.230575">
  <ele>1586.09</ele>
  <time>2026-08-27T18:24:57Z</time>
  <course>19.98</course>
  <speed>0.0</speed>
  <fix>3d</fix>
</trkpt>
<trkpt lat="40.072842" lon="-105.230575">
  <ele>1586.09</ele>
  <time>2026-08-27T18:24:57Z</time>
  <course>7.67</course>
  <speed>0.0</speed>
  <fix>3d</fix>
</trkpt>
<trkpt lat="40.072842" lon="-105.230575">
  <ele>1586.09</ele>
  <time>2026-08-27T18:24:57Z</time>
  <course>17.49</course>
  <speed>0.0</speed>
  <fix>3d</fix>
</trkpt>
<trkpt lat="40.072842" lon="-105.230575">
  <ele>1586.09</ele>
  <time>2026-08-27T18:24:57Z</time>
  <course>8.06</course>
  <speed>0.0</speed>
  <fix>3d</fix>
</trkpt>
<trkpt lat="40.072842" lon="-105.230575">
  <ele>1586.09</ele>
  <time>2026-08-27T18:24:57Z</time>
  <course>356.19</course>
  <speed>0.0</speed>
  <fix>3d</fix>
</trkpt>
<trkpt lat="40.072842" lon="-105.230575">
  <ele>1586.09</ele>
  <time>2026-08-27T18:24:57Z</time>
  <course>8.41</course>
  <speed>0.0</speed>
  <fix>3d</fix>
</trkpt>
<trkpt lat="40.072842" lon="-105.230575">
  <ele>1586.09</ele>
  <time>2026-08-27T18:24:57Z</time>
  <course>77.32</course>
  <speed>0.0</speed>
  <fix>3d</fix>
</trkpt>
<trkpt lat="40.072842" lon="-105.230575">
  <ele>1586.09</ele>
  <time>2026-08-27T18:24:57Z</time>
  <course>8.74</course>
  <speed>0.0</speed>
  <fix>3d</fix>
</trkpt>
<trkpt lat="40.072842" lon="-105.230575">
  <ele>1586.09</ele>
  <time>2026-08-27T18:24:57Z</time>
  <course>290.54</course>
  <speed>0.0</speed>
  <fix>3d</fix>
</trkpt>
<trkpt lat="40.072842" lon="-105.230575">
  <ele>1586.09</ele>
  <time>2026-08-27T18:24:57Z</time>
  <course>9.04</course>
  <speed>0.0</speed>
  <fix>3d</fix>
</trkpt>
<trkpt lat="40.072842" lon="-105.230575">
  <ele>1586.09</ele>
  <time>2026-08-27T18:24:57Z</time>
  <course>338.69</course>
  <speed>0.0</speed>
  <fix>3d</fix>
</trkpt>
<trkpt lat="40.072842" lon="-105.230575">
  <ele>1586.09</ele>
  <time>2026-08-27T18:24:57Z</time>
  <course>9.32</course>
  <speed>0.0</speed>
  <fix>3d</fix>
</trkpt>
<trkpt lat="40.072842" lon="-105.230575">
  <ele>1586.09</ele>
  <time>2026-08-27T18:24:57Z</time>
  <course>326.81</course>
  <speed>0.0</speed>
  <fix>3d</fix>
</trkpt>
<trkpt lat="40.072842" lon="-105.230575">
  <ele>1586.09</ele>
  <time>2026-08-27T18:24:57Z</time>
  <course>9.58</course>
  <speed>0.0</speed>
  <fix>3d</fix>
</trkpt>
<trkpt lat="40.072842" lon="-105.230575">
  <ele>1586.09</ele>
  <time>2026-08-27T18:24:57Z</time>
  <course>262.23</course>
  <speed>0.0</speed>
  <fix>3d</fix>
</trkpt>
<trkpt lat="40.072842" lon="-105.230575">
  <ele>1586.09</ele>
  <time>2026-08-27T18:24:57Z</time>
  <course>9.81</course>
  <speed>0.0</speed>
  <fix>3d</fix>
</trkpt>
<trkpt lat="40.072842" lon="-105.230575">
  <ele>1586.09</ele>
  <time>2026-08-27T18:24:57Z</time>
  <course>159.08</course>
  <speed>0.0</speed>
  <fix>3d</fix>
</trkpt>
<trkpt lat="40.072842" lon="-105.230575">
  <ele>1586.09</ele>
  <time>2026-08-27T18:24:57Z</time>
  <course>10.03</course>
  <speed>0.0</speed>
  <fix>3d</fix>
</trkpt>
<trkpt lat="40.072842" lon="-105.230575">
  <ele>1586.09</ele>
  <time>2026-08-27T18:24:57Z</time>
  <course>287.98</course>
  <speed>0.0</speed>
  <fix>3d</fix>
</trkpt>
<trkpt lat="40.072842" lon="-105.230575">
  <ele>1586.09</ele>
  <time>2026-08-27T18:24:57Z</time>
  <course>10.23</course>
  <speed>0.0</speed>
  <fix>3d</fix>
</trkpt>
<trkpt lat="40.072842" lon="-105.230575">
  <ele>1586.09</ele>
  <time>2026-08-27T18:24:57Z</time>
  <course>278.3</course>
  <speed>0.0</speed>
  <fix>3d</fix>
</trkpt>
<trkpt lat="40.072842" lon="-105.230575">
  <ele>1586.09</ele>
  <time>2026-08-27T18:24:57Z</time>
  <course>10.41</course>
  <speed>0.0</speed>
  <fix>3d</fix>
</trkpt>
<trkpt lat="40.072842" lon="-105.230575">
  <ele>1586.09</ele>
  <time>2026-08-27T18:24:57Z</time>
  <course>261.72</course>
  <speed>0.0</speed>
  <fix>3d</fix>
</trkpt>
<trkpt lat="40.072842" lon="-105.230575">
  <ele>1586.09</ele>
  <time>2026-08-27T18:24:57Z</time>
  <course>10.57</course>
  <speed>0.0</speed>
  <fix>3d</fix>
</trkpt>
<trkpt lat="40.072842" lon="-105.230575">
  <ele>1586.09</ele>
  <time>2026-08-27T18:24:57Z</time>
  <course>264.4</course>
  <speed>0.0</speed>
  <fix>3d</fix>
</trkpt>
<trkpt lat="40.072842" lon="-105.230575">
  <ele>1586.09</ele>
  <time>2026-08-27T18:24:57Z</time>
  <course>10.73</course>
  <speed>0.0</speed>
  <fix>3d</fix>
</trkpt>
<trkpt lat="40.072842" lon="-105.230575">
  <ele>1586.09</ele>
  <time>2026-08-27T18:24:57Z</time>
  <course>266.8</course>
  <speed>0.0</speed>
  <fix>3d</fix>
</trkpt>
<trkpt lat="40.072842" lon="-105.230575">
  <ele>1586.09</ele>
  <time>2026-08-27T18:24:57Z</time>
  <course>10.86</course>
  <speed>0.0</speed>
  <fix>3d</fix>
</trkpt>
<trkpt lat="40.072842" lon="-105.230575">
  <ele>1586.09</ele>
  <time>2026-08-27T18:24:57Z</time>
  <course>266.15</course>
  <speed>0.0</speed>
  <fix>3d</fix>
</trkpt>
<trkpt lat="40.072842" lon="-105.230575">
  <ele>1586.09</ele>
  <time>2026-08-27T18:24:57Z</time>
  <course>10.99</course>
  <speed>0.0</speed>
  <fix>3d</fix>
</trkpt>
<trkpt lat="40.072842" lon="-105.230575">
  <ele>1586.09</ele>
  <time>2026-08-27T18:24:57Z</time>
  <course>265.92</course>
  <speed>0.0</speed>
  <fix>3d</fix>
</trkpt>
<trkpt lat="40.072842" lon="-105.230575">
  <ele>1586.09</ele>
  <time>2026-08-27T18:24:57Z</time>
  <course>11.11</course>
  <speed>0.0</speed>
  <fix>3d</fix>
</trkpt>
<trkpt lat="40.072842" lon="-105.230575">
  <ele>1586.09</ele>
  <time>2026-08-27T18:24:57Z</time>
  <course>266.03</course>
  <speed>0.0</speed>
  <fix>3d</fix>
</trkpt>
<trkpt lat="40.072842" lon="-105.230575">
  <ele>1586.09</ele>
  <time>2026-08-27T18:24:57Z</time>
  <course>11.22</course>
  <speed>0.0</speed>
  <fix>3d</fix>
</trkpt>
<trkpt lat="40.072842" lon="-105.230575">
  <ele>1586.09</ele>
  <time>2026-08-27T18:24:57Z</time>
  <course>266.05</course>
  <speed>0.0</speed>
  <fix>3d</fix>
</trkpt>
<trkpt lat="40.072842" lon="-105.230575">
  <ele>1586.09</ele>
  <time>2026-08-27T18:24:57Z</time>
  <course>11.31</course>
  <speed>0.0</speed>
  <fix>3d</fix>
</trkpt>
<trkpt lat="40.072842" lon="-105.230575">
  <ele>1586.09</ele>
  <time>2026-08-27T18:24:57Z</time>
  <course>266.03</course>
  <speed>0.0</speed>
  <fix>3d</fix>
</trkpt>
<trkpt lat="40.072842" lon="-105.230575">
  <ele>1586.09</ele>
  <time>2026-08-27T18:24:57Z</time>
  <course>11.4</course>
  <speed>0.0</speed>
  <fix>3d</fix>
</trkpt>
<trkpt lat="40.072842" lon="-105.230575">
  <ele>1586.09</ele>
  <time>2026-08-27T18:24:57Z</time>
  <course>266.03</course>
  <speed>0.0</speed>
  <fix>3d</fix>
</trkpt>
<trkpt lat="40.072842" lon="-105.230575">
  <ele>1586.09</ele>
  <time>2026-08-27T18:24:57Z</time>
  <course>11.48</course>
  <speed>0.0</speed>
  <fix>3d</fix>
</trkpt>
<trkpt lat="40.072842" lon="-105.230575">
  <ele>1586.09</ele>
  <time>2026-08-27T18:24:57Z</time>
  <course>266.03</course>
  <speed>0.0</speed>
  <fix>3d</fix>
</trkpt>
<trkpt lat="40.072842" lon="-105.230575">
  <ele>1586.09</ele>
  <time>2026-08-27T18:24:57Z</time>
  <course>11.55</course>
  <speed>0.0</speed>
  <fix>3d</fix>
</trkpt>
<trkpt lat="40.072842" lon="-105.230575">
  <ele>1586.09</ele>
  <time>2026-08-27T18:24:57Z</time>
  <course>266.03</course>
  <speed>0.0</speed>
  <fix>3d</fix>
</trkpt>
<trkpt lat="40.072842" lon="-105.230575">
  <ele>1586.09</ele>
  <time>2026-08-27T18:24:57Z</time>
  <course>11.62</course>
  <speed>0.0</speed>
  <fix>3d</fix>
</trkpt>
<trkpt lat="40.072842" lon="-105.230575">
  <ele>1586.09</ele>
  <time>2026-08-27T18:24:57Z</time>
  <course>266.03</course>
  <speed>0.0</speed>
  <fix>3d</fix>
</trkpt>
<trkpt lat="40.072842" lon="-105.230575">
  <ele>1586.09</ele>
  <time>2026-08-27T18:24:57Z</time>
  <course>11.68</course>
  <speed>0.0</speed>
  <fix>3d</fix>
</trkpt>
<trkpt lat="40.072842" lon="-105.230575">
  <ele>1586.09</ele>
  <time>2026-08-27T18:24:57Z</time>
  <course>266.03</course>
  <speed>0.0</speed>
  <fix>3d</fix>
</trkpt>
<trkpt lat="40.072842" lon="-105.230575">
  <ele>1586.09</ele>
  <time>2026-08-27T18:24:57Z</time>
  <course>11.73</course>
  <speed>0.0</speed>
  <fix>3d</fix>
</trkpt>
<trkpt lat="40.072842" lon="-105.230575">
  <ele>1586.09</ele>
  <time>2026-08-27T18:24:57Z</time>
  <course>266.03</course>
  <speed>0.0</speed>
  <fix>3d</fix>
</trkpt>
<trkpt lat="40.072842" lon="-105.230575">
  <ele>1586.09</ele>
  <time>2026-08-27T18:24:57Z</time>
  <course>11.78</course>
  <speed>0.0</speed>
  <fix>3d</fix>
</trkpt>
<trkpt lat="40.072842" lon="-105.230575">
  <ele>1586.09</ele>
  <time>2026-08-27T18:24:57Z</time>
  <course>266.03</course>
  <speed>0.0</speed>
  <fix>3d</fix>
</trkpt>
<trkpt lat="40.072842" lon="-105.230575">
  <ele>1586.09</ele>
  <time>2026-08-27T18:24:57Z</time>
  <course>11.82</course>
  <speed>0.0</speed>
  <fix>3d</fix>
</trkpt>
<trkpt lat="40.072842" lon="-105.230575">
  <ele>1586.09</ele>
  <time>2026-08-27T18:24:57Z</time>
  <course>266.03</course>
  <speed>0.0</speed>
  <fix>3d</fix>
</trkpt>
<trkpt lat="40.072842" lon="-105.230575">
  <ele>1586.09</ele>
  <time>2026-08-27T18:24:57Z</time>
  <course>11.86</course>
  <speed>0.0</speed>
  <fix>3d</fix>
</trkpt>
<trkpt lat="40.072842" lon="-105.230575">
  <ele>1586.09</ele>
  <time>2026-08-27T18:24:57Z</time>
  <course>266.03</course>
  <speed>0.0</speed>
  <fix>3d</fix>
</trkpt>
<trkpt lat="40.072842" lon="-105.230575">
  <ele>1586.09</ele>
  <time>2026-08-27T18:24:57Z</time>
  <course>11.9</course>
  <speed>0.0</speed>
  <fix>3d</fix>
</trkpt>
<trkpt lat="40.072842" lon="-105.230575">
  <ele>1586.09</ele>
  <time>2026-08-27T18:24:57Z</time>
  <course>266.03</course>
  <speed>0.0</speed>
  <fix>3d</fix>
</trkpt>
<trkpt lat="40.072842" lon="-105.230575">
  <ele>1586.09</ele>
  <time>2026-08-27T18:24:57Z</time>
  <course>11.93</course>
  <speed>0.0</speed>
  <fix>3d</fix>
</trkpt>
<trkpt lat="40.072842" lon="-105.230575">
  <ele>1586.09</ele>
  <time>2026-08-27T18:24:57Z</time>
  <course>266.03</course>
  <speed>0.0</speed>
  <fix>3d</fix>
</trkpt>
<trkpt lat="40.072842" lon="-105.230575">
  <ele>1586.09</ele>
  <time>2026-08-27T18:24:57Z</time>
  <course>11.96</course>
  <speed>0.0</speed>
  <fix>3d</fix>
</trkpt>
<trkpt lat="40.072842" lon="-105.230575">
  <ele>1586.09</ele>
  <time>2026-08-27T18:24:57Z</time>
  <course>266.03</course>
  <speed>0.0</speed>
  <fix>3d</fix>
</trkpt>
<trkpt lat="40.072842" lon="-105.230575">
  <ele>1586.09</ele>
  <time>2026-08-27T18:24:57Z</time>
  <course>11.98</course>
  <speed>0.0</speed>
  <fix>3d</fix>
</trkpt>
<trkpt lat="40.072842" lon="-105.230575">
  <ele>1586.09</ele>
  <time>2026-08-27T18:24:57Z</time>
  <course>266.03</course>
  <speed>0.0</speed>
  <fix>3d</fix>
</trkpt>
<trkpt lat="40.072842" lon="-105.230575">
  <ele>1586.09</ele>
  <time>2026-08-27T18:24:57Z</time>
  <course>12.01</course>
  <speed>0.0</speed>
  <fix>3d</fix>
</trkpt>
<trkpt lat="40.072842" lon="-105.230575">
  <ele>1586.09</ele>
  <time>2026-08-27T18:24:57Z</time>
  <course>266.03</course>
  <speed>0.0</speed>
  <fix>3d</fix>
</trkpt>
<trkpt lat="40.072842" lon="-105.230575">
  <ele>1586.09</ele>
  <time>2026-08-27T18:24:57Z</time>
  <course>12.03</course>
  <speed>0.0</speed>
  <fix>3d</fix>
</trkpt>
<trkpt lat="40.072842" lon="-105.230575">
  <ele>1586.09</ele>
  <time>2026-08-27T18:24:57Z</time>
  <course>266.03</course>
  <speed>0.0</speed>
  <fix>3d</fix>
</trkpt>
<trkpt lat="40.072842" lon="-105.230575">
  <ele>1586.09</ele>
  <time>2026-08-27T18:24:57Z</time>
  <course>12.04</course>
  <speed>0.0</speed>
  <fix>3d</fix>
</trkpt>
<trkpt lat="40.072842" lon="-105.230575">
  <ele>1586.09</ele>
  <time>2026-08-27T18:24:57Z</time>
  <course>266.03</course>
  <speed>0.0</speed>
  <fix>3d</fix>
</trkpt>
<trkpt lat="40.072842" lon="-105.230575">
  <ele>1586.09</ele>
  <time>2026-08-27T18:24:57Z</time>
  <course>12.06</course>
  <speed>0.0</speed>
  <fix>3d</fix>
</trkpt>
<trkpt lat="40.072842" lon="-105.230575">
  <ele>1586.09</ele>
  <time>2026-08-27T18:24:57Z</time>
  <course>266.03</course>
  <speed>0.0</speed>
  <fix>3d</fix>
</trkpt>
<trkpt lat="40.072842" lon="-105.230575">
  <ele>1586.09</ele>
  <time>2026-08-27T18:24:57Z</time>
  <course>12.07</course>
  <speed>0.0</speed>
  <fix>3d</fix>
</trkpt>
<trkpt lat="40.072842" lon="-105.230575">
  <ele>1586.09</ele>
  <time>2026-08-27T18:24:57Z</time>
  <course>266.03</course>
  <speed>0.0</speed>
  <fix>3d</fix>
</trkpt>
<trkpt lat="40.072842" lon="-105.230575">
  <ele>1586.09</ele>
  <time>2026-08-27T18:24:57Z</time>
  <course>12.08</course>
  <speed>0.0</speed>
  <fix>3d</fix>
</trkpt>
<trkpt lat="40.072842" lon="-105.230575">
  <ele>1586.09</ele>
  <time>2026-08-27T18:24:57Z</time>
  <course>266.03</course>
  <speed>0.0</speed>
  <fix>3d</fix>
</trkpt>
<trkpt lat="40.072842" lon="-105.230575">
  <ele>1586.09</ele>
  <time>2026-08-27T18:24:57Z</time>
  <course>12.09</course>
  <speed>0.0</speed>
  <fix>3d</fix>
</trkpt>
<trkpt lat="40.072842" lon="-105.230575">
  <ele>1586.09</ele>
  <time>2026-08-27T18:24:57Z</time>
  <course>266.03</course>
  <speed>0.0</speed>
  <fix>3d</fix>
</trkpt>
<trkpt lat="40.072842" lon="-105.230575">
  <ele>1586.09</ele>
  <time>2026-08-27T18:24:57Z</time>
  <course>12.1</course>
  <speed>0.0</speed>
  <fix>3d</fix>
</trkpt>
<trkpt lat="40.072842" lon="-105.230575">
  <ele>1586.09</ele>
  <time>2026-08-27T18:24:57Z</time>
  <course>266.03</course>
  <speed>0.0</speed>
  <fix>3d</fix>
</trkpt>
<trkpt lat="40.072842" lon="-105.230575">
  <ele>1586.09</ele>
  <time>2026-08-27T18:24:57Z</time>
  <course>12.11</course>
  <speed>0.0</speed>
  <fix>3d</fix>
</trkpt>
<trkpt lat="40.072842" lon="-105.230575">
  <ele>1586.09</ele>
  <time>2026-08-27T18:24:57Z</time>
  <course>266.03</course>
  <speed>0.0</speed>
  <fix>3d</fix>
</trkpt>
<trkpt lat="40.072842" lon="-105.230575">
  <ele>1586.09</ele>
  <time>2026-08-27T18:24:57Z</time>
  <course>12.12</course>
  <speed>0.0</speed>
  <fix>3d</fix>
</trkpt>
<trkpt lat="40.072842" lon="-105.230575">
  <ele>1586.09</ele>
  <time>2026-08-27T18:24:57Z</time>
  <course>266.03</course>
  <speed>0.0</speed>
  <fix>3d</fix>
</trkpt>
<trkpt lat="40.072842" lon="-105.230575">
  <ele>1586.09</ele>
  <time>2026-08-27T18:24:57Z</time>
  <course>12.12</course>
  <speed>0.0</speed>
  <fix>3d</fix>
</trkpt>
<trkpt lat="40.072842" lon="-105.230575">
  <ele>1586.09</ele>
  <time>2026-08-27T18:24:57Z</time>
  <course>266.03</course>
  <speed>0.0</speed>
  <fix>3d</fix>
</trkpt>
<trkpt lat="40.072842" lon="-105.230575">
  <ele>1586.09</ele>
  <time>2026-08-27T18:24:57Z</time>
  <course>12.12</course>
  <speed>0.0</speed>
  <fix>3d</fix>
</trkpt>
<trkpt lat="40.072842" lon="-105.230575">
  <ele>1586.09</ele>
  <time>2026-08-27T18:24:57Z</time>
  <course>266.03</course>
  <speed>0.0</speed>
  <fix>3d</fix>
</trkpt>
<trkpt lat="40.072842" lon="-105.230575">
  <ele>1586.09</ele>
  <time>2026-08-27T18:24:57Z</time>
  <course>12.13</course>
  <speed>0.0</speed>
  <fix>3d</fix>
</trkpt>
<trkpt lat="40.072842" lon="-105.230575">
  <ele>1586.09</ele>
  <time>2026-08-27T18:24:57Z</time>
  <course>266.03</course>
  <speed>0.0</speed>
  <fix>3d</fix>
</trkpt>
<trkpt lat="40.072842" lon="-105.230575">
  <ele>1586.09</ele>
  <time>2026-08-27T18:24:57Z</time>
  <course>12.13</course>
  <speed>0.0</speed>
  <fix>3d</fix>
</trkpt>
<trkpt lat="40.072842" lon="-105.230575">
  <ele>1586.09</ele>
  <time>2026-08-27T18:24:57Z</time>
  <course>266.03</course>
  <speed>0.0</speed>
  <fix>3d</fix>
</trkpt>
<trkpt lat="40.072842" lon="-105.230575">
  <ele>1586.09</ele>
  <time>2026-08-27T18:24:57Z</time>
  <course>12.13</course>
  <speed>0.0</speed>
  <fix>3d</fix>
</trkpt>
<trkpt lat="40.072842" lon="-105.230575">
  <ele>1586.09</ele>
  <time>2026-08-27T18:24:57Z</time>
  <course>266.03</course>
  <speed>0.0</speed>
  <fix>3d</fix>
</trkpt>
<trkpt lat="40.072842" lon="-105.230575">
  <ele>1586.09</ele>
  <time>2026-08-27T18:24:57Z</time>
  <course>12.13</course>
  <speed>0.0</speed>
  <fix>3d</fix>
</trkpt>
<trkpt lat="40.072842" lon="-105.230575">
  <ele>1586.09</ele>
  <time>2026-08-27T18:24:57Z</time>
  <course>266.03</course>
  <speed>0.0</speed>
  <fix>3d</fix>
</trkpt>
<trkpt lat="40.072842" lon="-105.230575">
  <ele>1586.09</ele>
  <time>2026-08-27T18:24:57Z</time>
  <course>12.12</course>
  <speed>0.01</speed>
  <fix>3d</fix>
</trkpt>
<trkpt lat="40.072842" lon="-105.230575">
  <ele>1586.09</ele>
  <time>2026-08-27T18:24:57Z</time>
  <course>266.03</course>
  <speed>0.0</speed>
  <fix>3d</fix>
</trkpt>
<trkpt lat="40.072842" lon="-105.230575">
  <ele>1586.09</ele>
  <time>2026-08-27T18:24:57Z</time>
  <course>12.12</course>
  <speed>0.01</speed>
  <fix>3d</fix>
</trkpt>
<trkpt lat="40.072842" lon="-105.230575">
  <ele>1586.09</ele>
  <time>2026-08-27T18:24:57Z</time>
  <course>266.03</course>
  <speed>0.0</speed>
  <fix>3d</fix>
</trkpt>
<trkpt lat="40.072842" lon="-105.230575">
  <ele>1586.09</ele>
  <time>2026-08-27T18:24:57Z</time>
  <course>12.12</course>
  <speed>0.01</speed>
  <fix>3d</fix>
</trkpt>
<trkpt lat="40.072842" lon="-105.230575">
  <ele>1586.09</ele>
  <time>2026-08-27T18:24:57Z</time>
  <course>266.03</course>
  <speed>0.0</speed>
  <fix>3d</fix>
</trkpt>
<trkpt lat="40.072842" lon="-105.230575">
  <ele>1586.09</ele>
  <time>2026-08-27T18:24:57Z</time>
  <course>12.12</course>
  <speed>0.01</speed>
  <fix>3d</fix>
</trkpt>
<trkpt lat="40.072842" lon="-105.230575">
  <ele>1586.09</ele>
  <time>2026-08-27T18:24:57Z</time>
  <course>266.03</course>
  <speed>0.0</speed>
  <fix>3d</fix>
</trkpt>
<trkpt lat="40.072842" lon="-105.230575">
  <ele>1586.09</ele>
  <time>2026-08-27T18:24:57Z</time>
  <course>12.11</course>
  <speed>0.01</speed>
  <fix>3d</fix>
</trkpt>
<trkpt lat="40.072842" lon="-105.230575">
  <ele>1586.09</ele>
  <time>2026-08-27T18:24:57Z</time>
  <course>266.03</course>
  <speed>0.0</speed>
  <fix>3d</fix>
</trkpt>
<trkpt lat="40.072842" lon="-105.230575">
  <ele>1586.09</ele>
  <time>2026-08-27T18:24:57Z</time>
  <course>12.11</course>
  <speed>0.01</speed>
  <fix>3d</fix>
</trkpt>
<trkpt lat="40.072842" lon="-105.230575">
  <ele>1586.09</ele>
  <time>2026-08-27T18:24:57Z</time>
  <course>266.03</course>
  <speed>0.0</speed>
  <fix>3d</fix>
</trkpt>
<trkpt lat="40.072842" lon="-105.230575">
  <ele>1586.09</ele>
  <time>2026-08-27T18:24:57Z</time>
  <course>12.1</course>
  <speed>0.01</speed>
  <fix>3d</fix>
</trkpt>
<trkpt lat="40.072842" lon="-105.230575">
  <ele>1586.09</ele>
  <time>2026-08-27T18:24:57Z</time>
  <course>266.03</course>
  <speed>0.0</speed>
  <fix>3d</fix>
</trkpt>
<trkpt lat="40.072842" lon="-105.230575">
  <ele>1586.09</ele>
  <time>2026-08-27T18:24:57Z</time>
  <course>12.1</course>
  <speed>0.01</speed>
  <fix>3d</fix>
</trkpt>
<trkpt lat="40.072842" lon="-105.230575">
  <ele>1586.09</ele>
  <time>2026-08-27T18:24:57Z</time>
  <course>266.03</course>
  <speed>0.0</speed>
  <fix>3d</fix>
</trkpt>
<trkpt lat="40.072842" lon="-105.230575">
  <ele>1586.09</ele>
  <time>2026-08-27T18:24:57Z</time>
  <course>12.09</course>
  <speed>0.01</speed>
  <fix>3d</fix>
</trkpt>
<trkpt lat="40.072842" lon="-105.230575">
  <ele>1586.09</ele>
  <time>2026-08-27T18:24:57Z</time>
  <course>266.03</course>
  <speed>0.0</speed>
  <fix>3d</fix>
</trkpt>
<trkpt lat="40.072842" lon="-105.230575">
  <ele>1586.09</ele>
  <time>2026-08-27T18:24:57Z</time>
  <course>12.09</course>
  <speed>0.01</speed>
  <fix>3d</fix>
</trkpt>
<trkpt lat="40.072842" lon="-105.230575">
  <ele>1586.09</ele>
  <time>2026-08-27T18:24:57Z</time>
  <course>266.03</course>
  <speed>0.0</speed>
  <fix>3d</fix>
</trkpt>
<trkpt lat="40.072842" lon="-105.230575">
  <ele>1586.09</ele>
  <time>2026-08-27T18:24:57Z</time>
  <course>12.08</course>
  <speed>0.01414213562373095</speed>
  <fix>3d</fix>
</trkpt>
<trkpt lat="40.072842" lon="-105.230575">
  <ele>1586.09</ele>
  <time>2026-08-27T18:24:57Z</time>
  <course>266.03</course>
  <speed>0.0</speed>
  <fix>3d</fix>
</trkpt>
<trkpt lat="40.072842" lon="-105.230575">
  <ele>1586.09</ele>
  <time>2026-08-27T18:24:57Z</time>
  <course>12.07</course>
  <speed>0.01414213562373095</speed>
  <fix>3d</fix>
</trkpt>
<trkpt lat="40.072842" lon="-105.230575">
  <ele>1586.09</ele>
  <time>2026-08-27T18:24:57Z</time>
  <course>266.03</course>
  <speed>0.0</speed>
  <fix>3d</fix>
</trkpt>
<trkpt lat="40.072842" lon="-105.230575">
  <ele>1586.09</ele>
  <time>2026-08-27T18:24:57Z</time>
  <course>12.07</course>
  <speed>0.01414213562373095</speed>
  <fix>3d</fix>
</trkpt>
<trkpt lat="40.072842" lon="-105.230575">
  <ele>1586.09</ele>
  <time>2026-08-27T18:24:57Z</time>
  <course>266.03</course>
  <speed>0.0</speed>
  <fix>3d</fix>
</trkpt>
<trkpt lat="40.072842" lon="-105.230575">
  <ele>1586.09</ele>
  <time>2026-08-27T18:24:57Z</time>
  <course>12.06</course>
  <speed>0.01414213562373095</speed>
  <fix>3d</fix>
</trkpt>
<trkpt lat="40.072842" lon="-105.230575">
  <ele>1586.09</ele>
  <time>2026-08-27T18:24:57Z</time>
  <course>266.03</course>
  <speed>0.0</speed>
  <fix>3d</fix>
</trkpt>
<trkpt lat="40.072842" lon="-105.230575">
  <ele>1586.09</ele>
  <time>2026-08-27T18:24:57Z</time>
  <course>12.05</course>
  <speed>0.01414213562373095</speed>
  <fix>3d</fix>
</trkpt>
<trkpt lat="40.072842" lon="-105.230575">
  <ele>1586.09</ele>
  <time>2026-08-27T18:24:57Z</time>
  <course>266.03</course>
  <speed>0.0</speed>
  <fix>3d</fix>
</trkpt>
<trkpt lat="40.072842" lon="-105.230575">
  <ele>1586.09</ele>
  <time>2026-08-27T18:24:57Z</time>
  <course>12.05</course>
  <speed>0.01414213562373095</speed>
  <fix>3d</fix>
</trkpt>
<trkpt lat="40.072842" lon="-105.230575">
  <ele>1586.09</ele>
  <time>2026-08-27T18:24:57Z</time>
  <course>266.03</course>
  <speed>0.0</speed>
  <fix>3d</fix>
</trkpt>
<trkpt lat="40.072842" lon="-105.230575">
  <ele>1586.09</ele>
  <time>2026-08-27T18:24:57Z</time>
  <course>12.04</course>
  <speed>0.01414213562373095</speed>
  <fix>3d</fix>
</trkpt>
<trkpt lat="40.072842" lon="-105.230575">
  <ele>1586.09</ele>
  <time>2026-08-27T18:24:57Z</time>
  <course>266.03</course>
  <speed>0.0</speed>
  <fix>3d</fix>
</trkpt>
<trkpt lat="40.072842" lon="-105.230575">
  <ele>1586.09</ele>
  <time>2026-08-27T18:24:57Z</time>
  <course>12.03</course>
  <speed>0.01414213562373095</speed>
  <fix>3d</fix>
</trkpt>
<trkpt lat="40.072842" lon="-105.230575">
  <ele>1586.09</ele>
  <time>2026-08-27T18:24:57Z</time>
  <course>266.03</course>
  <speed>0.0</speed>
  <fix>3d</fix>
</trkpt>
<trkpt lat="40.072842" lon="-105.230575">
  <ele>1586.09</ele>
  <time>2026-08-27T18:24:57Z</time>
  <course>12.02</course>
  <speed>0.01414213562373095</speed>
  <fix>3d</fix>
</trkpt>
<trkpt lat="40.072842" lon="-105.230575">
  <ele>1586.09</ele>
  <time>2026-08-27T18:24:57Z</time>
  <course>266.03</course>
  <speed>0.0</speed>
  <fix>3d</fix>
</trkpt>
<trkpt lat="40.072842" lon="-105.230575">
  <ele>1586.09</ele>
  <time>2026-08-27T18:24:57Z</time>
  <course>12.02</course>
  <speed>0.01414213562373095</speed>
  <fix>3d</fix>
</trkpt>
<trkpt lat="40.072842" lon="-105.230575">
  <ele>1586.09</ele>
  <time>2026-08-27T18:24:57Z</time>
  <course>266.03</course>
  <speed>0.0</speed>
  <fix>3d</fix>
</trkpt>
<trkpt lat="40.072842" lon="-105.230575">
  <ele>1586.09</ele>
  <time>2026-08-27T18:24:57Z</time>
  <course>12.01</course>
  <speed>0.01414213562373095</speed>
  <fix>3d</fix>
</trkpt>
<trkpt lat="40.072842" lon="-105.230575">
  <ele>1586.09</ele>
  <time>2026-08-27T18:24:57Z</time>
  <course>266.03</course>
  <speed>0.0</speed>
  <fix>3d</fix>
</trkpt>
<trkpt lat="40.072842" lon="-105.230575">
  <ele>1586.09</ele>
  <time>2026-08-27T18:24:57Z</time>
  <course>12.01</course>
  <speed>0.01414213562373095</speed>
  <fix>3d</fix>
</trkpt>
<trkpt lat="40.072842" lon="-105.230575">
  <ele>1586.09</ele>
  <time>2026-08-27T18:24:57Z</time>
  <course>266.03</course>
  <speed>0.0</speed>
  <fix>3d</fix>
</trkpt>
<trkpt lat="40.072842" lon="-105.230575">
  <ele>1586.09</ele>
  <time>2026-08-27T18:24:57Z</time>
  <course>12.0</course>
  <speed>0.01414213562373095</speed>
  <fix>3d</fix>
</trkpt>
<trkpt lat="40.072842" lon="-105.230575">
  <ele>1586.09</ele>
  <time>2026-08-27T18:24:57Z</time>
  <course>266.03</course>
  <speed>0.0</speed>
  <fix>3d</fix>
</trkpt>
<trkpt lat="40.072842" lon="-105.230575">
  <ele>1586.09</ele>
  <time>2026-08-27T18:24:57Z</time>
  <course>11.99</course>
  <speed>0.01414213562373095</speed>
  <fix>3d</fix>
</trkpt>
<trkpt lat="40.072842" lon="-105.230575">
  <ele>1586.09</ele>
  <time>2026-08-27T18:24:57Z</time>
  <course>266.03</course>
  <speed>0.0</speed>
  <fix>3d</fix>
</trkpt>
<trkpt lat="40.072842" lon="-105.230575">
  <ele>1586.09</ele>
  <time>2026-08-27T18:24:57Z</time>
  <course>11.98</course>
  <speed>0.01414213562373095</speed>
  <fix>3d</fix>
</trkpt>
<trkpt lat="40.072842" lon="-105.230575">
  <ele>1586.09</ele>
  <time>2026-08-27T18:24:57Z</time>
  <course>266.03</course>
  <speed>0.0</speed>
  <fix>3d</fix>
</trkpt>
<trkpt lat="40.072842" lon="-105.230575">
  <ele>1586.09</ele>
  <time>2026-08-27T18:24:57Z</time>
  <course>11.97</course>
  <speed>0.01414213562373095</speed>
  <fix>3d</fix>
</trkpt>
<trkpt lat="40.072842" lon="-105.230575">
  <ele>1586.09</ele>
  <time>2026-08-27T18:24:57Z</time>
  <course>266.03</course>
  <speed>0.0</speed>
  <fix>3d</fix>
</trkpt>
<trkpt lat="40.072842" lon="-105.230575">
  <ele>1586.09</ele>
  <time>2026-08-27T18:24:57Z</time>
  <course>11.96</course>
  <speed>0.022360679774997897</speed>
  <fix>3d</fix>
</trkpt>
<trkpt lat="40.072842" lon="-105.230575">
  <ele>1586.09</ele>
  <time>2026-08-27T18:24:57Z</time>
  <course>266.03</course>
  <speed>0.0</speed>
  <fix>3d</fix>
</trkpt>
<trkpt lat="40.072842" lon="-105.230575">
  <ele>1586.09</ele>
  <time>2026-08-27T18:24:57Z</time>
  <course>11.96</course>
  <speed>0.022360679774997897</speed>
  <fix>3d</fix>
</trkpt>
<trkpt lat="40.072842" lon="-105.230575">
  <ele>1586.09</ele>
  <time>2026-08-27T18:24:57Z</time>
  <course>266.03</course>
  <speed>0.0</speed>
  <fix>3d</fix>
</trkpt>
<trkpt lat="40.072842" lon="-105.230575">
  <ele>1586.09</ele>
  <time>2026-08-27T18:24:57Z</time>
  <course>11.95</course>
  <speed>0.022360679774997897</speed>
  <fix>3d</fix>
</trkpt>
<trkpt lat="40.072842" lon="-105.230575">
  <ele>1586.09</ele>
  <time>2026-08-27T18:24:57Z</time>
  <course>266.03</course>
  <speed>0.0</speed>
  <fix>3d</fix>
</trkpt>
<trkpt lat="40.072842" lon="-105.230575">
  <ele>1586.09</ele>
  <time>2026-08-27T18:24:57Z</time>
  <course>11.94</course>
  <speed>0.022360679774997897</speed>
  <fix>3d</fix>
</trkpt>
<trkpt lat="40.072842" lon="-105.230575">
  <ele>1586.09</ele>
  <time>2026-08-27T18:24:57Z</time>
  <course>266.03</course>
  <speed>0.0</speed>
  <fix>3d</fix>
</trkpt>
<trkpt lat="40.072842" lon="-105.230575">
  <ele>1586.09</ele>
  <time>2026-08-27T18:24:57Z</time>
  <course>11.93</course>
  <speed>0.022360679774997897</speed>
  <fix>3d</fix>
</trkpt>
<trkpt lat="40.072842" lon="-105.230575">
  <ele>1586.09</ele>
  <time>2026-08-27T18:24:57Z</time>
  <course>266.03</course>
  <speed>0.0</speed>
  <fix>3d</fix>
</trkpt>
<trkpt lat="40.072842" lon="-105.230575">
  <ele>1586.09</ele>
  <time>2026-08-27T18:24:57Z</time>
  <course>11.92</course>
  <speed>0.022360679774997897</speed>
  <fix>3d</fix>
</trkpt>
<trkpt lat="40.072842" lon="-105.230575">
  <ele>1586.09</ele>
  <time>2026-08-27T18:24:57Z</time>
  <course>266.03</course>
  <speed>0.0</speed>
  <fix>3d</fix>
</trkpt>
<trkpt lat="40.072842" lon="-105.230575">
  <ele>1586.09</ele>
  <time>2026-08-27T18:24:57Z</time>
  <course>11.91</course>
  <speed>0.022360679774997897</speed>
  <fix>3d</fix>
</trkpt>
<trkpt lat="40.072842" lon="-105.230575">
  <ele>1586.09</ele>
  <time>2026-08-27T18:24:57Z</time>
  <course>266.03</course>
  <speed>0.0</speed>
  <fix>3d</fix>
</trkpt>
<trkpt lat="40.072842" lon="-105.230575">
  <ele>1586.09</ele>
  <time>2026-08-27T18:24:57Z</time>
  <course>11.91</course>
  <speed>0.022360679774997897</speed>
  <fix>3d</fix>
</trkpt>
<trkpt lat="40.072842" lon="-105.230575">
  <ele>1586.09</ele>
  <time>2026-08-27T18:24:57Z</time>
  <course>266.03</course>
  <speed>0.0</speed>
  <fix>3d</fix>
</trkpt>
<trkpt lat="40.072842" lon="-105.230575">
  <ele>1586.09</ele>
  <time>2026-08-27T18:24:57Z</time>
  <course>11.9</course>
  <speed>0.022360679774997897</speed>
  <fix>3d</fix>
</trkpt>
<trkpt lat="40.072842" lon="-105.230575">
  <ele>1586.09</ele>
  <time>2026-08-27T18:24:57Z</time>
  <course>266.03</course>
  <speed>0.0</speed>
  <fix>3d</fix>
</trkpt>
<trkpt lat="40.072842" lon="-105.230575">
  <ele>1586.09</ele>
  <time>2026-08-27T18:24:57Z</time>
  <course>11.89</course>
  <speed>0.022360679774997897</speed>
  <fix>3d</fix>
</trkpt>
<trkpt lat="40.072842" lon="-105.230575">
  <ele>1586.09</ele>
  <time>2026-08-27T18:24:57Z</time>
  <course>266.03</course>
  <speed>0.0</speed>
  <fix>3d</fix>
</trkpt>
<trkpt lat="40.072842" lon="-105.230575">
  <ele>1586.09</ele>
  <time>2026-08-27T18:24:57Z</time>
  <course>11.88</course>
  <speed>0.022360679774997897</speed>
  <fix>3d</fix>
</trkpt>
<trkpt lat="40.072842" lon="-105.230575">
  <ele>1586.09</ele>
  <time>2026-08-27T18:24:57Z</time>
  <course>266.03</course>
  <speed>0.0</speed>
  <fix>3d</fix>
</trkpt>
<trkpt lat="40.072842" lon="-105.230575">
  <ele>1586.09</ele>
  <time>2026-08-27T18:24:57Z</time>
  <course>11.87</course>
  <speed>0.022360679774997897</speed>
  <fix>3d</fix>
</trkpt>
<trkpt lat="40.072842" lon="-105.230575">
  <ele>1586.09</ele>
  <time>2026-08-27T18:24:57Z</time>
  <course>266.03</course>
  <speed>0.0</speed>
  <fix>3d</fix>
</trkpt>
<trkpt lat="40.072842" lon="-105.230575">
  <ele>1586.09</ele>
  <time>2026-08-27T18:24:57Z</time>
  <course>11.86</course>
  <speed>0.022360679774997897</speed>
  <fix>3d</fix>
</trkpt>
<trkpt lat="40.072842" lon="-105.230575">
  <ele>1586.09</ele>
  <time>2026-08-27T18:24:57Z</time>
  <course>266.03</course>
  <speed>0.0</speed>
  <fix>3d</fix>
</trkpt>
<trkpt lat="40.072842" lon="-105.230575">
  <ele>1586.09</ele>
  <time>2026-08-27T18:24:57Z</time>
  <course>11.86</course>
  <speed>0.022360679774997897</speed>
  <fix>3d</fix>
</trkpt>
<trkpt lat="40.072842" lon="-105.230575">
  <ele>1586.09</ele>
  <time>2026-08-27T18:24:57Z</time>
  <course>266.03</course>
  <speed>0.0</speed>
  <fix>3d</fix>
</trkpt>
<trkpt lat="40.072842" lon="-105.230575">
  <ele>1586.09</ele>
  <time>2026-08-27T18:24:57Z</time>
  <course>11.85</course>
  <speed>0.0282842712474619</speed>
  <fix>3d</fix>
</trkpt>
<trkpt lat="40.072842" lon="-105.230575">
  <ele>1586.09</ele>
  <time>2026-08-27T18:24:57Z</time>
  <course>266.03</course>
  <speed>0.0</speed>
  <fix>3d</fix>
</trkpt>
<trkpt lat="40.072842" lon="-105.230575">
  <ele>1586.09</ele>
  <time>2026-08-27T18:24:57Z</time>
  <course>11.84</course>
  <speed>0.0282842712474619</speed>
  <fix>3d</fix>
</trkpt>
<trkpt lat="40.072842" lon="-105.230575">
  <ele>1586.09</ele>
  <time>2026-08-27T18:24:57Z</time>
  <course>266.03</course>
  <speed>0.0</speed>
  <fix>3d</fix>
</trkpt>
<trkpt lat="40.072842" lon="-105.230575">
  <ele>1586.09</ele>
  <time>2026-08-27T18:24:57Z</time>
  <course>11.83</course>
  <speed>0.0282842712474619</speed>
  <fix>3d</fix>
</trkpt>
<trkpt lat="40.072842" lon="-105.230575">
  <ele>1586.09</ele>
  <time>2026-08-27T18:24:57Z</time>
  <course>266.03</course>
  <speed>0.0</speed>
  <fix>3d</fix>
</trkpt>
<trkpt lat="40.072842" lon="-105.230575">
  <ele>1586.09</ele>
  <time>2026-08-27T18:24:57Z</time>
  <course>11.82</course>
  <speed>0.0282842712474619</speed>
  <fix>3d</fix>
</trkpt>
<trkpt lat="40.072842" lon="-105.230575">
  <ele>1586.09</ele>
  <time>2026-08-27T18:24:57Z</time>
  <course>266.03</course>
  <speed>0.0</speed>
  <fix>3d</fix>
</trkpt>
<trkpt lat="40.072842" lon="-105.230575">
  <ele>1586.09</ele>
  <time>2026-08-27T18:24:57Z</time>
  <course>11.82</course>
  <speed>0.0282842712474619</speed>
  <fix>3d</fix>
</trkpt>
<trkpt lat="40.072842" lon="-105.230575">
  <ele>1586.09</ele>
  <time>2026-08-27T18:24:57Z</time>
  <course>266.03</course>
  <speed>0.0</speed>
  <fix>3d</fix>
</trkpt>
<trkpt lat="40.072842" lon="-105.230575">
  <ele>1586.09</ele>
  <time>2026-08-27T18:24:57Z</time>
  <course>11.81</course>
  <speed>0.0282842712474619</speed>
  <fix>3d</fix>
</trkpt>
<trkpt lat="40.072842" lon="-105.230575">
  <ele>1586.09</ele>
  <time>2026-08-27T18:24:57Z</time>
  <course>266.03</course>
  <speed>0.0</speed>
  <fix>3d</fix>
</trkpt>
<trkpt lat="40.072842" lon="-105.230575">
  <ele>1586.09</ele>
  <time>2026-08-27T18:24:57Z</time>
  <course>11.8</course>
  <speed>0.0282842712474619</speed>
  <fix>3d</fix>
</trkpt>
<trkpt lat="40.072842" lon="-105.230575">
  <ele>1586.09</ele>
  <time>2026-08-27T18:24:57Z</time>
  <course>266.03</course>
  <speed>0.0</speed>
  <fix>3d</fix>
</trkpt>
<trkpt lat="40.072842" lon="-105.230575">
  <ele>1586.09</ele>
  <time>2026-08-27T18:24:57Z</time>
  <course>11.79</course>
  <speed>0.0282842712474619</speed>
  <fix>3d</fix>
</trkpt>
<trkpt lat="40.072842" lon="-105.230575">
  <ele>1586.09</ele>
  <time>2026-08-27T18:24:57Z</time>
  <course>266.03</course>
  <speed>0.0</speed>
  <fix>3d</fix>
</trkpt>
<trkpt lat="40.072842" lon="-105.230575">
  <ele>1586.09</ele>
  <time>2026-08-27T18:24:57Z</time>
  <course>11.78</course>
  <speed>0.0282842712474619</speed>
  <fix>3d</fix>
</trkpt>
<trkpt lat="40.072842" lon="-105.230575">
  <ele>1586.09</ele>
  <time>2026-08-27T18:24:57Z</time>
  <course>266.03</course>
  <speed>0.0</speed>
  <fix>3d</fix>
</trkpt>
<trkpt lat="40.072842" lon="-105.230575">
  <ele>1586.09</ele>
  <time>2026-08-27T18:24:57Z</time>
  <course>11.78</course>
  <speed>0.0282842712474619</speed>
  <fix>3d</fix>
</trkpt>
<trkpt lat="40.072842" lon="-105.230575">
  <ele>1586.09</ele>
  <time>2026-08-27T18:24:57Z</time>
  <course>266.03</course>
  <speed>0.0</speed>
  <fix>3d</fix>
</trkpt>
<trkpt lat="40.072842" lon="-105.230575">
  <ele>1586.09</ele>
  <time>2026-08-27T18:24:57Z</time>
  <course>11.77</course>
  <speed>0.0282842712474619</speed>
  <fix>3d</fix>
</trkpt>
<trkpt lat="40.072842" lon="-105.230575">
  <ele>1586.09</ele>
  <time>2026-08-27T18:24:57Z</time>
  <course>266.03</course>
  <speed>0.0</speed>
  <fix>3d</fix>
</trkpt>
<trkpt lat="40.072842" lon="-105.230575">
  <ele>1586.09</ele>
  <time>2026-08-27T18:24:57Z</time>
  <course>11.76</course>
  <speed>0.0282842712474619</speed>
  <fix>3d</fix>
</trkpt>
<trkpt lat="40.072842" lon="-105.230575">
  <ele>1586.09</ele>
  <time>2026-08-27T18:24:57Z</time>
  <course>266.03</course>
  <speed>0.0</speed>
  <fix>3d</fix>
</trkpt>
<trkpt lat="40.072842" lon="-105.230575">
  <ele>1586.09</ele>
  <time>2026-08-27T18:24:57Z</time>
  <course>11.76</course>
  <speed>0.0282842712474619</speed>
  <fix>3d</fix>
</trkpt>
<trkpt lat="40.072842" lon="-105.230575">
  <ele>1586.09</ele>
  <time>2026-08-27T18:24:57Z</time>
  <course>266.03</course>
  <speed>0.0</speed>
  <fix>3d</fix>
</trkpt>
<trkpt lat="40.072842" lon="-105.230575">
  <ele>1586.09</ele>
  <time>2026-08-27T18:24:57Z</time>
  <course>11.75</course>
  <speed>0.03605551275463989</speed>
  <fix>3d</fix>
</trkpt>
<trkpt lat="40.072842" lon="-105.230575">
  <ele>1586.09</ele>
  <time>2026-08-27T18:24:57Z</time>
  <course>266.03</course>
  <speed>0.0</speed>
  <fix>3d</fix>
</trkpt>
<trkpt lat="40.072842" lon="-105.230575">
  <ele>1586.09</ele>
  <time>2026-08-27T18:24:57Z</time>
  <course>11.74</course>
  <speed>0.03605551275463989</speed>
  <fix>3d</fix>
</trkpt>
<trkpt lat="40.072842" lon="-105.230575">
  <ele>1586.09</ele>
  <time>2026-08-27T18:24:57Z</time>
  <course>266.03</course>
  <speed>0.0</speed>
  <fix>3d</fix>
</trkpt>
<trkpt lat="40.072842" lon="-105.230575">
  <ele>1586.09</ele>
  <time>2026-08-27T18:24:57Z</time>
  <course>11.73</course>
  <speed>0.03605551275463989</speed>
  <fix>3d</fix>
</trkpt>
<trkpt lat="40.072842" lon="-105.230575">
  <ele>1586.09</ele>
  <time>2026-08-27T18:24:57Z</time>
  <course>266.03</course>
  <speed>0.0</speed>
  <fix>3d</fix>
</trkpt>
<trkpt lat="40.072842" lon="-105.230575">
  <ele>1586.09</ele>
  <time>2026-08-27T18:24:57Z</time>
  <course>11.72</course>
  <speed>0.03605551275463989</speed>
  <fix>3d</fix>
</trkpt>
<trkpt lat="40.072842" lon="-105.230575">
  <ele>1586.09</ele>
  <time>2026-08-27T18:24:57Z</time>
  <course>266.03</course>
  <speed>0.0</speed>
  <fix>3d</fix>
</trkpt>
<trkpt lat="40.072842" lon="-105.230575">
  <ele>1586.09</ele>
  <time>2026-08-27T18:24:57Z</time>
  <course>11.72</course>
  <speed>0.03605551275463989</speed>
  <fix>3d</fix>
</trkpt>
<trkpt lat="40.072842" lon="-105.230575">
  <ele>1586.09</ele>
  <time>2026-08-27T18:24:57Z</time>
  <course>266.03</course>
  <speed>0.0</speed>
  <fix>3d</fix>
</trkpt>
<trkpt lat="40.072842" lon="-105.230575">
  <ele>1586.09</ele>
  <time>2026-08-27T18:24:57Z</time>
  <course>11.71</course>
  <speed>0.03605551275463989</speed>
  <fix>3d</fix>
</trkpt>
<trkpt lat="40.072842" lon="-105.230575">
  <ele>1586.09</ele>
  <time>2026-08-27T18:24:57Z</time>
  <course>266.03</course>
  <speed>0.0</speed>
  <fix>3d</fix>
</trkpt>
<trkpt lat="40.072842" lon="-105.230575">
  <ele>1586.09</ele>
  <time>2026-08-27T18:24:57Z</time>
  <course>11.7</course>
  <speed>0.03605551275463989</speed>
  <fix>3d</fix>
</trkpt>
<trkpt lat="40.072842" lon="-105.230575">
  <ele>1586.09</ele>
  <time>2026-08-27T18:24:57Z</time>
  <course>266.03</course>
  <speed>0.0</speed>
  <fix>3d</fix>
</trkpt>
<trkpt lat="40.072842" lon="-105.230575">
  <ele>1586.09</ele>
  <time>2026-08-27T18:24:57Z</time>
  <course>11.7</course>
  <speed>0.03605551275463989</speed>
  <fix>3d</fix>
</trkpt>
<trkpt lat="40.072842" lon="-105.230575">
  <ele>1586.09</ele>
  <time>2026-08-27T18:24:57Z</time>
  <course>266.03</course>
  <speed>0.0</speed>
  <fix>3d</fix>
</trkpt>
<trkpt lat="40.072842" lon="-105.230575">
  <ele>1586.09</ele>
  <time>2026-08-27T18:24:57Z</time>
  <course>11.69</course>
  <speed>0.03605551275463989</speed>
  <fix>3d</fix>
</trkpt>
<trkpt lat="40.072842" lon="-105.230575">
  <ele>1586.09</ele>
  <time>2026-08-27T18:24:57Z</time>
  <course>266.03</course>
  <speed>0.0</speed>
  <fix>3d</fix>
</trkpt>
<trkpt lat="40.072842" lon="-105.230575">
  <ele>1586.09</ele>
  <time>2026-08-27T18:24:57Z</time>
  <course>11.68</course>
  <speed>0.03605551275463989</speed>
  <fix>3d</fix>
</trkpt>
<trkpt lat="40.072842" lon="-105.230575">
  <ele>1586.09</ele>
  <time>2026-08-27T18:24:57Z</time>
  <course>266.03</course>
  <speed>0.0</speed>
  <fix>3d</fix>
</trkpt>
<trkpt lat="40.072842" lon="-105.230575">
  <ele>1586.09</ele>
  <time>2026-08-27T18:24:57Z</time>
  <course>11.67</course>
  <speed>0.03605551275463989</speed>
  <fix>3d</fix>
</trkpt>
<trkpt lat="40.072842" lon="-105.230575">
  <ele>1586.09</ele>
  <time>2026-08-27T18:24:57Z</time>
  <course>266.03</course>
  <speed>0.0</speed>
  <fix>3d</fix>
</trkpt>
<trkpt lat="40.072842" lon="-105.230575">
  <ele>1586.09</ele>
  <time>2026-08-27T18:24:57Z</time>
  <course>11.67</course>
  <speed>0.03605551275463989</speed>
  <fix>3d</fix>
</trkpt>
<trkpt lat="40.072842" lon="-105.230575">
  <ele>1586.09</ele>
  <time>2026-08-27T18:24:57Z</time>
  <course>266.03</course>
  <speed>0.0</speed>
  <fix>3d</fix>
</trkpt>
<trkpt lat="40.072842" lon="-105.230575">
  <ele>1586.09</ele>
  <time>2026-08-27T18:24:57Z</time>
  <course>11.66</course>
  <speed>0.03605551275463989</speed>
  <fix>3d</fix>
</trkpt>
<trkpt lat="40.072842" lon="-105.230575">
  <ele>1586.09</ele>
  <time>2026-08-27T18:24:57Z</time>
  <course>266.03</course>
  <speed>0.0</speed>
  <fix>3d</fix>
</trkpt>
<trkpt lat="40.072842" lon="-105.230575">
  <ele>1586.09</ele>
  <time>2026-08-27T18:24:57Z</time>
  <course>11.65</course>
  <speed>0.03605551275463989</speed>
  <fix>3d</fix>
</trkpt>
<trkpt lat="40.072842" lon="-105.230575">
  <ele>1586.09</ele>
  <time>2026-08-27T18:24:57Z</time>
  <course>266.03</course>
  <speed>0.0</speed>
  <fix>3d</fix>
</trkpt>
<trkpt lat="40.072842" lon="-105.230575">
  <ele>1586.09</ele>
  <time>2026-08-27T18:24:57Z</time>
  <course>11.65</course>
  <speed>0.03605551275463989</speed>
  <fix>3d</fix>
</trkpt>
<trkpt lat="40.072842" lon="-105.230575">
  <ele>1586.09</ele>
  <time>2026-08-27T18:24:57Z</time>
  <course>266.03</course>
  <speed>0.0</speed>
  <fix>3d</fix>
</trkpt>
<trkpt lat="40.072842" lon="-105.230575">
  <ele>1586.09</ele>
  <time>2026-08-27T18:24:57Z</time>
  <course>11.64</course>
  <speed>0.03605551275463989</speed>
  <fix>3d</fix>
</trkpt>
<trkpt lat="40.072842" lon="-105.230575">
  <ele>1586.09</ele>
  <time>2026-08-27T18:24:57Z</time>
  <course>266.03</course>
  <speed>0.0</speed>
  <fix>3d</fix>
</trkpt>
<trkpt lat="40.072842" lon="-105.230575">
  <ele>1586.09</ele>
  <time>2026-08-27T18:24:57Z</time>
  <course>11.63</course>
  <speed>0.03605551275463989</speed>
  <fix>3d</fix>
</trkpt>
<trkpt lat="40.072842" lon="-105.230575">
  <ele>1586.09</ele>
  <time>2026-08-27T18:24:57Z</time>
  <course>266.03</course>
  <speed>0.0</speed>
  <fix>3d</fix>
</trkpt>
<trkpt lat="40.072842" lon="-105.230575">
  <ele>1586.09</ele>
  <time>2026-08-27T18:24:57Z</time>
  <course>11.63</course>
  <speed>0.03605551275463989</speed>
  <fix>3d</fix>
</trkpt>
<trkpt lat="40.072842" lon="-105.230575">
  <ele>1586.09</ele>
  <time>2026-08-27T18:24:57Z</time>
  <course>266.03</course>
  <speed>0.0</speed>
  <fix>3d</fix>
</trkpt>
<trkpt lat="40.072842" lon="-105.230575">
  <ele>1586.09</ele>
  <time>2026-08-27T18:24:57Z</time>
  <course>11.62</course>
  <speed>0.03605551275463989</speed>
  <fix>3d</fix>
</trkpt>
<trkpt lat="40.072842" lon="-105.230575">
  <ele>1586.09</ele>
  <time>2026-08-27T18:24:57Z</time>
  <course>266.03</course>
  <speed>0.0</speed>
  <fix>3d</fix>
</trkpt>
<trkpt lat="40.072842" lon="-105.230575">
  <ele>1586.09</ele>
  <time>2026-08-27T18:24:57Z</time>
  <course>11.61</course>
  <speed>0.03605551275463989</speed>
  <fix>3d</fix>
</trkpt>
<trkpt lat="40.072842" lon="-105.230575">
  <ele>1586.09</ele>
  <time>2026-08-27T18:24:57Z</time>
  <course>266.03</course>
  <speed>0.0</speed>
  <fix>3d</fix>
</trkpt>
<trkpt lat="40.072842" lon="-105.230575">
  <ele>1586.09</ele>
  <time>2026-08-27T18:24:57Z</time>
  <course>11.61</course>
  <speed>0.03605551275463989</speed>
  <fix>3d</fix>
</trkpt>
<trkpt lat="40.072842" lon="-105.230575">
  <ele>1586.09</ele>
  <time>2026-08-27T18:24:57Z</time>
  <course>266.03</course>
  <speed>0.0</speed>
  <fix>3d</fix>
</trkpt>
<trkpt lat="40.072842" lon="-105.230575">
  <ele>1586.09</ele>
  <time>2026-08-27T18:24:57Z</time>
  <course>11.6</course>
  <speed>0.03605551275463989</speed>
  <fix>3d</fix>
</trkpt>
<trkpt lat="40.072842" lon="-105.230575">
  <ele>1586.09</ele>
  <time>2026-08-27T18:24:57Z</time>
  <course>266.03</course>
  <speed>0.0</speed>
  <fix>3d</fix>
</trkpt>
<trkpt lat="40.072842" lon="-105.230575">
  <ele>1586.09</ele>
  <time>2026-08-27T18:24:57Z</time>
  <course>11.59</course>
  <speed>0.03605551275463989</speed>
  <fix>3d</fix>
</trkpt>
<trkpt lat="40.072842" lon="-105.230575">
  <ele>1586.09</ele>
  <time>2026-08-27T18:24:57Z</time>
  <course>266.03</course>
  <speed>0.0</speed>
  <fix>3d</fix>
</trkpt>
<trkpt lat="40.072842" lon="-105.230575">
  <ele>1586.09</ele>
  <time>2026-08-27T18:24:57Z</time>
  <course>11.59</course>
  <speed>0.03605551275463989</speed>
  <fix>3d</fix>
</trkpt>
<trkpt lat="40.072842" lon="-105.230575">
  <ele>1586.09</ele>
  <time>2026-08-27T18:24:57Z</time>
  <course>266.03</course>
  <speed>0.0</speed>
  <fix>3d</fix>
</trkpt>
<trkpt lat="40.072842" lon="-105.230575">
  <ele>1586.09</ele>
  <time>2026-08-27T18:24:57Z</time>
  <course>11.58</course>
  <speed>0.03605551275463989</speed>
  <fix>3d</fix>
</trkpt>
<trkpt lat="40.072842" lon="-105.230575">
  <ele>1586.09</ele>
  <time>2026-08-27T18:24:57Z</time>
  <course>266.03</course>
  <speed>0.0</speed>
  <fix>3d</fix>
</trkpt>
<trkpt lat="40.072842" lon="-105.230575">
  <ele>1586.09</ele>
  <time>2026-08-27T18:24:57Z</time>
  <course>11.58</course>
  <speed>0.03605551275463989</speed>
  <fix>3d</fix>
</trkpt>
<trkpt lat="40.072842" lon="-105.230575">
  <ele>1586.09</ele>
  <time>2026-08-27T18:24:57Z</time>
  <course>266.03</course>
  <speed>0.0</speed>
  <fix>3d</fix>
</trkpt>
<trkpt lat="39.654938" lon="-104.1331666">
  <ele>1569.54</ele>
  <time>2026-08-27T18:24:59Z</time>
  <course>168.11</course>
  <speed>0.0</speed>
  <fix>3d</fix>
</trkpt>
<trkpt lat="40.072842" lon="-105.230575">
  <ele>1586.09</ele>
  <time>2026-08-27T18:24:59Z</time>
  <course>2.03</course>
  <speed>0.0</speed>
  <fix>3d</fix>
</trkpt>
<trkpt lat="40.072842" lon="-105.230575">
  <ele>1586.09</ele>
  <time>2026-08-27T18:24:59Z</time>
  <course>238.4</course>
  <speed>0.0</speed>
  <fix>3d</fix>
</trkpt>
<trkpt lat="40.072842" lon="-105.230575">
  <ele>1586.09</ele>
  <time>2026-08-27T18:24:59Z</time>
  <course>2.44</course>
  <speed>0.0</speed>
  <fix>3d</fix>
</trkpt>
<trkpt lat="40.072842" lon="-105.230575">
  <ele>1586.09</ele>
  <time>2026-08-27T18:24:59Z</time>
  <course>194.29</course>
  <speed>0.0</speed>
  <fix>3d</fix>
</trkpt>
<trkpt lat="40.072842" lon="-105.230575">
  <ele>1586.09</ele>
  <time>2026-08-27T18:24:59Z</time>
  <course>3.18</course>
  <speed>0.0</speed>
  <fix>3d</fix>
</trkpt>
<trkpt lat="40.072842" lon="-105.230575">
  <ele>1586.09</ele>
  <time>2026-08-27T18:24:59Z</time>
  <course>193.66</course>
  <speed>0.0</speed>
  <fix>3d</fix>
</trkpt>
<trkpt lat="40.072842" lon="-105.230575">
  <ele>1586.09</ele>
  <time>2026-08-27T18:24:59Z</time>
  <course>3.86</course>
  <speed>0.0</speed>
  <fix>3d</fix>
</trkpt>
<trkpt lat="40.072842" lon="-105.230575">
  <ele>1586.09</ele>
  <time>2026-08-27T18:24:59Z</time>
  <course>303.54</course>
  <speed>0.0</speed>
  <fix>3d</fix>
</trkpt>
<trkpt lat="40.072842" lon="-105.230575">
  <ele>1586.09</ele>
  <time>2026-08-27T18:24:59Z</time>
  <course>4.49</course>
  <speed>0.0</speed>
  <fix>3d</fix>
</trkpt>
<trkpt lat="40.072842" lon="-105.230575">
  <ele>1586.09</ele>
  <time>2026-08-27T18:24:59Z</time>
  <course>110.94</course>
  <speed>0.0</speed>
  <fix>3d</fix>
</trkpt>
<trkpt lat="40.072842" lon="-105.230575">
  <ele>1586.09</ele>
  <time>2026-08-27T18:24:59Z</time>
  <course>5.07</course>
  <speed>0.0</speed>
  <fix>3d</fix>
</trkpt>
<trkpt lat="40.072842" lon="-105.230575">
  <ele>1586.09</ele>
  <time>2026-08-27T18:24:59Z</time>
  <course>191.21</course>
  <speed>0.0</speed>
  <fix>3d</fix>
</trkpt>
<trkpt lat="40.072842" lon="-105.230575">
  <ele>1586.09</ele>
  <time>2026-08-27T18:24:59Z</time>
  <course>5.63</course>
  <speed>0.0</speed>
  <fix>3d</fix>
</trkpt>
<trkpt lat="40.072842" lon="-105.230575">
  <ele>1586.09</ele>
  <time>2026-08-27T18:24:59Z</time>
  <course>252.23</course>
  <speed>0.0</speed>
  <fix>3d</fix>
</trkpt>
<trkpt lat="40.072842" lon="-105.230575">
  <ele>1586.09</ele>
  <time>2026-08-27T18:24:59Z</time>
  <course>6.16</course>
  <speed>0.0</speed>
  <fix>3d</fix>
</trkpt>
<trkpt lat="40.072842" lon="-105.230575">
  <ele>1586.09</ele>
  <time>2026-08-27T18:24:59Z</time>
  <course>170.36</course>
  <speed>0.0</speed>
  <fix>3d</fix>
</trkpt>
<trkpt lat="40.072842" lon="-105.230575">
  <ele>1586.09</ele>
  <time>2026-08-27T18:24:59Z</time>
  <course>6.65</course>
  <speed>0.0</speed>
  <fix>3d</fix>
</trkpt>
<trkpt lat="40.072842" lon="-105.230575">
  <ele>1586.09</ele>
  <time>2026-08-27T18:24:59Z</time>
  <course>179.36</course>
  <speed>0.0</speed>
  <fix>3d</fix>
</trkpt>
<trkpt lat="40.072842" lon="-105.230575">
  <ele>1586.09</ele>
  <time>2026-08-27T18:24:59Z</time>
  <course>7.11</course>
  <speed>0.0</speed>
  <fix>3d</fix>
</trkpt>
<trkpt lat="40.072842" lon="-105.230575">
  <ele>1586.09</ele>
  <time>2026-08-27T18:24:59Z</time>
  <course>19.98</course>
  <speed>0.0</speed>
  <fix>3d</fix>
</trkpt>
<trkpt lat="40.072842" lon="-105.230575">
  <ele>1586.09</ele>
  <time>2026-08-27T18:24:59Z</time>
  <course>7.54</course>
  <speed>0.0</speed>
  <fix>3d</fix>
</trkpt>
<trkpt lat="40.072842" lon="-105.230575">
  <ele>1586.09</ele>
  <time>2026-08-27T18:24:59Z</time>
  <course>17.49</course>
  <speed>0.0</speed>
  <fix>3d</fix>
</trkpt>
<trkpt lat="40.072842" lon="-105.230575">
  <ele>1586.09</ele>
  <time>2026-08-27T18:24:59Z</time>
  <course>7.93</course>
  <speed>0.0</speed>
  <fix>3d</fix>
</trkpt>
<trkpt lat="40.072842" lon="-105.230575">
  <ele>1586.09</ele>
  <time>2026-08-27T18:24:59Z</time>
  <course>356.19</course>
  <speed>0.0</speed>
  <fix>3d</fix>
</trkpt>
<trkpt lat="40.072842" lon="-105.230575">
  <ele>1586.09</ele>
  <time>2026-08-27T18:24:59Z</time>
  <course>8.29</course>
  <speed>0.0</speed>
  <fix>3d</fix>
</trkpt>
<trkpt lat="40.072842" lon="-105.230575">
  <ele>1586.09</ele>
  <time>2026-08-27T18:24:59Z</time>
  <course>77.32</course>
  <speed>0.0</speed>
  <fix>3d</fix>
</trkpt>
<trkpt lat="40.072842" lon="-105.230575">
  <ele>1586.09</ele>
  <time>2026-08-27T18:24:59Z</time>
  <course>8.63</course>
  <speed>0.0</speed>
  <fix>3d</fix>
</trkpt>
<trkpt lat="40.072842" lon="-105.230575">
  <ele>1586.09</ele>
  <time>2026-08-27T18:24:59Z</time>
  <course>290.54</course>
  <speed>0.0</speed>
  <fix>3d</fix>
</trkpt>
<trkpt lat="40.072842" lon="-105.230575">
  <ele>1586.09</ele>
  <time>2026-08-27T18:24:59Z</time>
  <course>8.94</course>
  <speed>0.0</speed>
  <fix>3d</fix>
</trkpt>
<trkpt lat="40.072842" lon="-105.230575">
  <ele>1586.09</ele>
  <time>2026-08-27T18:24:59Z</time>
  <course>338.69</course>
  <speed>0.0</speed>
  <fix>3d</fix>
</trkpt>
<trkpt lat="40.072842" lon="-105.230575">
  <ele>1586.09</ele>
  <time>2026-08-27T18:24:59Z</time>
  <course>9.23</course>
  <speed>0.0</speed>
  <fix>3d</fix>
</trkpt>
<trkpt lat="40.072842" lon="-105.230575">
  <ele>1586.09</ele>
  <time>2026-08-27T18:24:59Z</time>
  <course>326.81</course>
  <speed>0.0</speed>
  <fix>3d</fix>
</trkpt>
<trkpt lat="40.072842" lon="-105.230575">
  <ele>1586.09</ele>
  <time>2026-08-27T18:24:59Z</time>
  <course>9.49</course>
  <speed>0.0</speed>
  <fix>3d</fix>
</trkpt>
<trkpt lat="40.072842" lon="-105.230575">
  <ele>1586.09</ele>
  <time>2026-08-27T18:24:59Z</time>
  <course>262.23</course>
  <speed>0.0</speed>
  <fix>3d</fix>
</trkpt>
<trkpt lat="40.072842" lon="-105.230575">
  <ele>1586.09</ele>
  <time>2026-08-27T18:24:59Z</time>
  <course>9.74</course>
  <speed>0.0</speed>
  <fix>3d</fix>
</trkpt>
<trkpt lat="40.072842" lon="-105.230575">
  <ele>1586.09</ele>
  <time>2026-08-27T18:24:59Z</time>
  <course>159.08</course>
  <speed>0.0</speed>
  <fix>3d</fix>
</trkpt>
<trkpt lat="40.072842" lon="-105.230575">
  <ele>1586.09</ele>
  <time>2026-08-27T18:24:59Z</time>
  <course>9.96</course>
  <speed>0.0</speed>
  <fix>3d</fix>
</trkpt>
<trkpt lat="40.072842" lon="-105.230575">
  <ele>1586.09</ele>
  <time>2026-08-27T18:24:59Z</time>
  <course>287.98</course>
  <speed>0.0</speed>
  <fix>3d</fix>
</trkpt>
<trkpt lat="40.072842" lon="-105.230575">
  <ele>1586.09</ele>
  <time>2026-08-27T18:24:59Z</time>
  <course>10.16</course>
  <speed>0.0</speed>
  <fix>3d</fix>
</trkpt>
<trkpt lat="40.072842" lon="-105.230575">
  <ele>1586.09</ele>
  <time>2026-08-27T18:24:59Z</time>
  <course>278.3</course>
  <speed>0.0</speed>
  <fix>3d</fix>
</trkpt>
<trkpt lat="40.072842" lon="-105.230575">
  <ele>1586.09</ele>
  <time>2026-08-27T18:24:59Z</time>
  <course>10.35</course>
  <speed>0.0</speed>
  <fix>3d</fix>
</trkpt>
<trkpt lat="40.072842" lon="-105.230575">
  <ele>1586.09</ele>
  <time>2026-08-27T18:24:59Z</time>
  <course>261.72</course>
  <speed>0.0</speed>
  <fix>3d</fix>
</trkpt>
<trkpt lat="40.072842" lon="-105.230575">
  <ele>1586.09</ele>
  <time>2026-08-27T18:24:59Z</time>
  <course>10.52</course>
  <speed>0.0</speed>
  <fix>3d</fix>
</trkpt>
<trkpt lat="40.072842" lon="-105.230575">
  <ele>1586.09</ele>
  <time>2026-08-27T18:24:59Z</time>
  <course>264.4</course>
  <speed>0.0</speed>
  <fix>3d</fix>
</trkpt>
<trkpt lat="40.072842" lon="-105.230575">
  <ele>1586.09</ele>
  <time>2026-08-27T18:24:59Z</time>
  <course>10.68</course>
  <speed>0.0</speed>
  <fix>3d</fix>
</trkpt>
<trkpt lat="40.072842" lon="-105.230575">
  <ele>1586.09</ele>
  <time>2026-08-27T18:24:59Z</time>
  <course>266.8</course>
  <speed>0.0</speed>
  <fix>3d</fix>
</trkpt>
<trkpt lat="40.072842" lon="-105.230575">
  <ele>1586.09</ele>
  <time>2026-08-27T18:24:59Z</time>
  <course>10.82</course>
  <speed>0.0</speed>
  <fix>3d</fix>
</trkpt>
<trkpt lat="40.072842" lon="-105.230575">
  <ele>1586.09</ele>
  <time>2026-08-27T18:24:59Z</time>
  <course>266.15</course>
  <speed>0.0</speed>
  <fix>3d</fix>
</trkpt>
<trkpt lat="40.072842" lon="-105.230575">
  <ele>1586.09</ele>
  <time>2026-08-27T18:24:59Z</time>
  <course>10.95</course>
  <speed>0.0</speed>
  <fix>3d</fix>
</trkpt>
<trkpt lat="40.072842" lon="-105.230575">
  <ele>1586.09</ele>
  <time>2026-08-27T18:24:59Z</time>
  <course>265.92</course>
  <speed>0.0</speed>
  <fix>3d</fix>
</trkpt>
<trkpt lat="40.072842" lon="-105.230575">
  <ele>1586.09</ele>
  <time>2026-08-27T18:24:59Z</time>
  <course>11.07</course>
  <speed>0.0</speed>
  <fix>3d</fix>
</trkpt>
<trkpt lat="40.072842" lon="-105.230575">
  <ele>1586.09</ele>
  <time>2026-08-27T18:24:59Z</time>
  <course>266.03</course>
  <speed>0.0</speed>
  <fix>3d</fix>
</trkpt>
<trkpt lat="40.072842" lon="-105.230575">
  <ele>1586.09</ele>
  <time>2026-08-27T18:24:59Z</time>
  <course>11.18</course>
  <speed>0.0</speed>
  <fix>3d</fix>
</trkpt>
<trkpt lat="40.072842" lon="-105.230575">
  <ele>1586.09</ele>
  <time>2026-08-27T18:24:59Z</time>
  <course>266.05</course>
  <speed>0.0</speed>
  <fix>3d</fix>
</trkpt>
<trkpt lat="40.072842" lon="-105.230575">
  <ele>1586.09</ele>
  <time>2026-08-27T18:24:59Z</time>
  <course>11.28</course>
  <speed>0.0</speed>
  <fix>3d</fix>
</trkpt>
<trkpt lat="40.072842" lon="-105.230575">
  <ele>1586.09</ele>
  <time>2026-08-27T18:24:59Z</time>
  <course>266.03</course>
  <speed>0.0</speed>
  <fix>3d</fix>
</trkpt>
<trkpt lat="40.072842" lon="-105.230575">
  <ele>1586.09</ele>
  <time>2026-08-27T18:24:59Z</time>
  <course>11.37</course>
  <speed>0.0</speed>
  <fix>3d</fix>
</trkpt>
<trkpt lat="40.072842" lon="-105.230575">
  <ele>1586.09</ele>
  <time>2026-08-27T18:24:59Z</time>
  <course>266.03</course>
  <speed>0.0</speed>
  <fix>3d</fix>
</trkpt>
<trkpt lat="40.072842" lon="-105.230575">
  <ele>1586.09</ele>
  <time>2026-08-27T18:24:59Z</time>
  <course>11.45</course>
  <speed>0.0</speed>
  <fix>3d</fix>
</trkpt>
<trkpt lat="40.072842" lon="-105.230575">
  <ele>1586.09</ele>
  <time>2026-08-27T18:24:59Z</time>
  <course>266.03</course>
  <speed>0.0</speed>
  <fix>3d</fix>
</trkpt>
<trkpt lat="40.072842" lon="-105.230575">
  <ele>1586.09</ele>
  <time>2026-08-27T18:24:59Z</time>
  <course>11.53</course>
  <speed>0.0</speed>
  <fix>3d</fix>
</trkpt>
<trkpt lat="40.072842" lon="-105.230575">
  <ele>1586.09</ele>
  <time>2026-08-27T18:24:59Z</time>
  <course>266.03</course>
  <speed>0.0</speed>
  <fix>3d</fix>
</trkpt>
<trkpt lat="40.072842" lon="-105.230575">
  <ele>1586.09</ele>
  <time>2026-08-27T18:24:59Z</time>
  <course>11.6</course>
  <speed>0.0</speed>
  <fix>3d</fix>
</trkpt>
<trkpt lat="40.072842" lon="-105.230575">
  <ele>1586.09</ele>
  <time>2026-08-27T18:24:59Z</time>
  <course>266.03</course>
  <speed>0.0</speed>
  <fix>3d</fix>
</trkpt>
<trkpt lat="40.072842" lon="-105.230575">
  <ele>1586.09</ele>
  <time>2026-08-27T18:24:59Z</time>
  <course>11.66</course>
  <speed>0.0</speed>
  <fix>3d</fix>
</trkpt>
<trkpt lat="40.072842" lon="-105.230575">
  <ele>1586.09</ele>
  <time>2026-08-27T18:24:59Z</time>
  <course>266.03</course>
  <speed>0.0</speed>
  <fix>3d</fix>
</trkpt>
<trkpt lat="40.072842" lon="-105.230575">
  <ele>1586.09</ele>
  <time>2026-08-27T18:24:59Z</time>
  <course>11.71</course>
  <speed>0.0</speed>
  <fix>3d</fix>
</trkpt>
<trkpt lat="40.072842" lon="-105.230575">
  <ele>1586.09</ele>
  <time>2026-08-27T18:24:59Z</time>
  <course>266.03</course>
  <speed>0.0</speed>
  <fix>3d</fix>
</trkpt>
<trkpt lat="40.072842" lon="-105.230575">
  <ele>1586.09</ele>
  <time>2026-08-27T18:24:59Z</time>
  <course>11.76</course>
  <speed>0.0</speed>
  <fix>3d</fix>
</trkpt>
<trkpt lat="40.072842" lon="-105.230575">
  <ele>1586.09</ele>
  <time>2026-08-27T18:24:59Z</time>
  <course>266.03</course>
  <speed>0.0</speed>
  <fix>3d</fix>
</trkpt>
<trkpt lat="40.072842" lon="-105.230575">
  <ele>1586.09</ele>
  <time>2026-08-27T18:24:59Z</time>
  <course>11.81</course>
  <speed>0.0</speed>
  <fix>3d</fix>
</trkpt>
<trkpt lat="40.072842" lon="-105.230575">
  <ele>1586.09</ele>
  <time>2026-08-27T18:24:59Z</time>
  <course>266.03</course>
  <speed>0.0</speed>
  <fix>3d</fix>
</trkpt>
<trkpt lat="40.072842" lon="-105.230575">
  <ele>1586.09</ele>
  <time>2026-08-27T18:24:59Z</time>
  <course>11.85</course>
  <speed>0.0</speed>
  <fix>3d</fix>
</trkpt>
<trkpt lat="40.072842" lon="-105.230575">
  <ele>1586.09</ele>
  <time>2026-08-27T18:24:59Z</time>
  <course>266.03</course>
  <speed>0.0</speed>
  <fix>3d</fix>
</trkpt>
<trkpt lat="40.072842" lon="-105.230575">
  <ele>1586.09</ele>
  <time>2026-08-27T18:24:59Z</time>
  <course>11.89</course>
  <speed>0.0</speed>
  <fix>3d</fix>
</trkpt>
<trkpt lat="40.072842" lon="-105.230575">
  <ele>1586.09</ele>
  <time>2026-08-27T18:24:59Z</time>
  <course>266.03</course>
  <speed>0.0</speed>
  <fix>3d</fix>
</trkpt>
<trkpt lat="40.072842" lon="-105.230575">
  <ele>1586.09</ele>
  <time>2026-08-27T18:24:59Z</time>
  <course>11.92</course>
  <speed>0.0</speed>
  <fix>3d</fix>
</trkpt>
<trkpt lat="40.072842" lon="-105.230575">
  <ele>1586.09</ele>
  <time>2026-08-27T18:24:59Z</time>
  <course>266.03</course>
  <speed>0.0</speed>
  <fix>3d</fix>
</trkpt>
<trkpt lat="40.072842" lon="-105.230575">
  <ele>1586.09</ele>
  <time>2026-08-27T18:24:59Z</time>
  <course>11.95</course>
  <speed>0.0</speed>
  <fix>3d</fix>
</trkpt>
<trkpt lat="40.072842" lon="-105.230575">
  <ele>1586.09</ele>
  <time>2026-08-27T18:24:59Z</time>
  <course>266.03</course>
  <speed>0.0</speed>
  <fix>3d</fix>
</trkpt>
<trkpt lat="40.072842" lon="-105.230575">
  <ele>1586.09</ele>
  <time>2026-08-27T18:24:59Z</time>
  <course>11.97</course>
  <speed>0.0</speed>
  <fix>3d</fix>
</trkpt>
<trkpt lat="40.072842" lon="-105.230575">
  <ele>1586.09</ele>
  <time>2026-08-27T18:24:59Z</time>
  <course>266.03</course>
  <speed>0.0</speed>
  <fix>3d</fix>
</trkpt>
<trkpt lat="40.072842" lon="-105.230575">
  <ele>1586.09</ele>
  <time>2026-08-27T18:24:59Z</time>
  <course>12.0</course>
  <speed>0.0</speed>
  <fix>3d</fix>
</trkpt>
<trkpt lat="40.072842" lon="-105.230575">
  <ele>1586.09</ele>
  <time>2026-08-27T18:24:59Z</time>
  <course>266.03</course>
  <speed>0.0</speed>
  <fix>3d</fix>
</trkpt>
<trkpt lat="40.072842" lon="-105.230575">
  <ele>1586.09</ele>
  <time>2026-08-27T18:24:59Z</time>
  <course>12.02</course>
  <speed>0.0</speed>
  <fix>3d</fix>
</trkpt>
<trkpt lat="40.072842" lon="-105.230575">
  <ele>1586.09</ele>
  <time>2026-08-27T18:24:59Z</time>
  <course>266.03</course>
  <speed>0.0</speed>
  <fix>3d</fix>
</trkpt>
<trkpt lat="40.072842" lon="-105.230575">
  <ele>1586.09</ele>
  <time>2026-08-27T18:24:59Z</time>
  <course>12.04</course>
  <speed>0.0</speed>
  <fix>3d</fix>
</trkpt>
<trkpt lat="40.072842" lon="-105.230575">
  <ele>1586.09</ele>
  <time>2026-08-27T18:24:59Z</time>
  <course>266.03</course>
  <speed>0.0</speed>
  <fix>3d</fix>
</trkpt>
<trkpt lat="40.072842" lon="-105.230575">
  <ele>1586.09</ele>
  <time>2026-08-27T18:24:59Z</time>
  <course>12.05</course>
  <speed>0.0</speed>
  <fix>3d</fix>
</trkpt>
<trkpt lat="40.072842" lon="-105.230575">
  <ele>1586.09</ele>
  <time>2026-08-27T18:24:59Z</time>
  <course>266.03</course>
  <speed>0.0</speed>
  <fix>3d</fix>
</trkpt>
<trkpt lat="40.072842" lon="-105.230575">
  <ele>1586.09</ele>
  <time>2026-08-27T18:24:59Z</time>
  <course>12.07</course>
  <speed>0.0</speed>
  <fix>3d</fix>
</trkpt>
<trkpt lat="40.072842" lon="-105.230575">
  <ele>1586.09</ele>
  <time>2026-08-27T18:24:59Z</time>
  <course>266.03</course>
  <speed>0.0</speed>
  <fix>3d</fix>
</trkpt>
<trkpt lat="40.072842" lon="-105.230575">
  <ele>1586.09</ele>
  <time>2026-08-27T18:24:59Z</time>
  <course>12.08</course>
  <speed>0.0</speed>
  <fix>3d</fix>
</trkpt>
<trkpt lat="40.072842" lon="-105.230575">
  <ele>1586.09</ele>
  <time>2026-08-27T18:24:59Z</time>
  <course>266.03</course>
  <speed>0.0</speed>
  <fix>3d</fix>
</trkpt>
<trkpt lat="40.072842" lon="-105.230575">
  <ele>1586.09</ele>
  <time>2026-08-27T18:24:59Z</time>
  <course>12.09</course>
  <speed>0.0</speed>
  <fix>3d</fix>
</trkpt>
<trkpt lat="40.072842" lon="-105.230575">
  <ele>1586.09</ele>
  <time>2026-08-27T18:24:59Z</time>
  <course>266.03</course>
  <speed>0.0</speed>
  <fix>3d</fix>
</trkpt>
<trkpt lat="40.072842" lon="-105.230575">
  <ele>1586.09</ele>
  <time>2026-08-27T18:24:59Z</time>
  <course>12.1</course>
  <speed>0.0</speed>
  <fix>3d</fix>
</trkpt>
<trkpt lat="40.072842" lon="-105.230575">
  <ele>1586.09</ele>
  <time>2026-08-27T18:24:59Z</time>
  <course>266.03</course>
  <speed>0.0</speed>
  <fix>3d</fix>
</trkpt>
<trkpt lat="40.072842" lon="-105.230575">
  <ele>1586.09</ele>
  <time>2026-08-27T18:24:59Z</time>
  <course>12.1</course>
  <speed>0.0</speed>
  <fix>3d</fix>
</trkpt>
<trkpt lat="40.072842" lon="-105.230575">
  <ele>1586.09</ele>
  <time>2026-08-27T18:24:59Z</time>
  <course>266.03</course>
  <speed>0.0</speed>
  <fix>3d</fix>
</trkpt>
<trkpt lat="40.072842" lon="-105.230575">
  <ele>1586.09</ele>
  <time>2026-08-27T18:24:59Z</time>
  <course>12.11</course>
  <speed>0.0</speed>
  <fix>3d</fix>
</trkpt>
<trkpt lat="40.072842" lon="-105.230575">
  <ele>1586.09</ele>
  <time>2026-08-27T18:24:59Z</time>
  <course>266.03</course>
  <speed>0.0</speed>
  <fix>3d</fix>
</trkpt>
<trkpt lat="40.072842" lon="-105.230575">
  <ele>1586.09</ele>
  <time>2026-08-27T18:24:59Z</time>
  <course>12.12</course>
  <speed>0.0</speed>
  <fix>3d</fix>
</trkpt>
<trkpt lat="40.072842" lon="-105.230575">
  <ele>1586.09</ele>
  <time>2026-08-27T18:24:59Z</time>
  <course>266.03</course>
  <speed>0.0</speed>
  <fix>3d</fix>
</trkpt>
<trkpt lat="40.072842" lon="-105.230575">
  <ele>1586.09</ele>
  <time>2026-08-27T18:24:59Z</time>
  <course>12.12</course>
  <speed>0.0</speed>
  <fix>3d</fix>
</trkpt>
<trkpt lat="40.072842" lon="-105.230575">
  <ele>1586.09</ele>
  <time>2026-08-27T18:24:59Z</time>
  <course>266.03</course>
  <speed>0.0</speed>
  <fix>3d</fix>
</trkpt>
<trkpt lat="40.072842" lon="-105.230575">
  <ele>1586.09</ele>
  <time>2026-08-27T18:24:59Z</time>
  <course>12.12</course>
  <speed>0.0</speed>
  <fix>3d</fix>
</trkpt>
<trkpt lat="40.072842" lon="-105.230575">
  <ele>1586.09</ele>
  <time>2026-08-27T18:24:59Z</time>
  <course>266.03</course>
  <speed>0.0</speed>
  <fix>3d</fix>
</trkpt>
<trkpt lat="40.072842" lon="-105.230575">
  <ele>1586.09</ele>
  <time>2026-08-27T18:24:59Z</time>
  <course>12.13</course>
  <speed>0.0</speed>
  <fix>3d</fix>
</trkpt>
<trkpt lat="40.072842" lon="-105.230575">
  <ele>1586.09</ele>
  <time>2026-08-27T18:24:59Z</time>
  <course>266.03</course>
  <speed>0.0</speed>
  <fix>3d</fix>
</trkpt>
<trkpt lat="40.072842" lon="-105.230575">
  <ele>1586.09</ele>
  <time>2026-08-27T18:24:59Z</time>
  <course>12.13</course>
  <speed>0.0</speed>
  <fix>3d</fix>
</trkpt>
<trkpt lat="40.072842" lon="-105.230575">
  <ele>1586.09</ele>
  <time>2026-08-27T18:24:59Z</time>
  <course>266.03</course>
  <speed>0.0</speed>
  <fix>3d</fix>
</trkpt>
<trkpt lat="40.072842" lon="-105.230575">
  <ele>1586.09</ele>
  <time>2026-08-27T18:24:59Z</time>
  <course>12.13</course>
  <speed>0.0</speed>
  <fix>3d</fix>
</trkpt>
<trkpt lat="40.072842" lon="-105.230575">
  <ele>1586.09</ele>
  <time>2026-08-27T18:24:59Z</time>
  <course>266.03</course>
  <speed>0.0</speed>
  <fix>3d</fix>
</trkpt>
<trkpt lat="40.072842" lon="-105.230575">
  <ele>1586.09</ele>
  <time>2026-08-27T18:24:59Z</time>
  <course>12.12</course>
  <speed>0.01</speed>
  <fix>3d</fix>
</trkpt>
<trkpt lat="40.072842" lon="-105.230575">
  <ele>1586.09</ele>
  <time>2026-08-27T18:24:59Z</time>
  <course>266.03</course>
  <speed>0.0</speed>
  <fix>3d</fix>
</trkpt>
<trkpt lat="40.072842" lon="-105.230575">
  <ele>1586.09</ele>
  <time>2026-08-27T18:24:59Z</time>
  <course>12.12</course>
  <speed>0.01</speed>
  <fix>3d</fix>
</trkpt>
<trkpt lat="40.072842" lon="-105.230575">
  <ele>1586.09</ele>
  <time>2026-08-27T18:24:59Z</time>
  <course>266.03</course>
  <speed>0.0</speed>
  <fix>3d</fix>
</trkpt>
<trkpt lat="40.072842" lon="-105.230575">
  <ele>1586.09</ele>
  <time>2026-08-27T18:24:59Z</time>
  <course>12.12</course>
  <speed>0.01</speed>
  <fix>3d</fix>
</trkpt>
<trkpt lat="40.072842" lon="-105.230575">
  <ele>1586.09</ele>
  <time>2026-08-27T18:24:59Z</time>
  <course>266.03</course>
  <speed>0.0</speed>
  <fix>3d</fix>
</trkpt>
<trkpt lat="40.072842" lon="-105.230575">
  <ele>1586.09</ele>
  <time>2026-08-27T18:24:59Z</time>
  <course>12.12</course>
  <speed>0.01</speed>
  <fix>3d</fix>
</trkpt>
<trkpt lat="40.072842" lon="-105.230575">
  <ele>1586.09</ele>
  <time>2026-08-27T18:24:59Z</time>
  <course>266.03</course>
  <speed>0.0</speed>
  <fix>3d</fix>
</trkpt>
<trkpt lat="40.072842" lon="-105.230575">
  <ele>1586.09</ele>
  <time>2026-08-27T18:24:59Z</time>
  <course>12.11</course>
  <speed>0.01</speed>
  <fix>3d</fix>
</trkpt>
<trkpt lat="40.072842" lon="-105.230575">
  <ele>1586.09</ele>
  <time>2026-08-27T18:24:59Z</time>
  <course>266.03</course>
  <speed>0.0</speed>
  <fix>3d</fix>
</trkpt>
<trkpt lat="40.072842" lon="-105.230575">
  <ele>1586.09</ele>
  <time>2026-08-27T18:24:59Z</time>
  <course>12.11</course>
  <speed>0.01</speed>
  <fix>3d</fix>
</trkpt>
<trkpt lat="40.072842" lon="-105.230575">
  <ele>1586.09</ele>
  <time>2026-08-27T18:24:59Z</time>
  <course>266.03</course>
  <speed>0.0</speed>
  <fix>3d</fix>
</trkpt>
<trkpt lat="40.072842" lon="-105.230575">
  <ele>1586.09</ele>
  <time>2026-08-27T18:24:59Z</time>
  <course>12.1</course>
  <speed>0.01</speed>
  <fix>3d</fix>
</trkpt>
<trkpt lat="40.072842" lon="-105.230575">
  <ele>1586.09</ele>
  <time>2026-08-27T18:24:59Z</time>
  <course>266.03</course>
  <speed>0.0</speed>
  <fix>3d</fix>
</trkpt>
<trkpt lat="40.072842" lon="-105.230575">
  <ele>1586.09</ele>
  <time>2026-08-27T18:25:00Z</time>
  <course>12.1</course>
  <speed>0.01</speed>
  <fix>3d</fix>
</trkpt>
<trkpt lat="40.072842" lon="-105.230575">
  <ele>1586.09</ele>
  <time>2026-08-27T18:25:00Z</time>
  <course>266.03</course>
  <speed>0.0</speed>
  <fix>3d</fix>
</trkpt>
<trkpt lat="40.072842" lon="-105.230575">
  <ele>1586.09</ele>
  <time>2026-08-27T18:25:00Z</time>
  <course>12.09</course>
  <speed>0.01</speed>
  <fix>3d</fix>
</trkpt>
<trkpt lat="40.072842" lon="-105.230575">
  <ele>1586.09</ele>
  <time>2026-08-27T18:25:00Z</time>
  <course>266.03</course>
  <speed>0.0</speed>
  <fix>3d</fix>
</trkpt>
<trkpt lat="40.072842" lon="-105.230575">
  <ele>1586.09</ele>
  <time>2026-08-27T18:25:00Z</time>
  <course>12.09</course>
  <speed>0.01</speed>
  <fix>3d</fix>
</trkpt>
<trkpt lat="40.072842" lon="-105.230575">
  <ele>1586.09</ele>
  <time>2026-08-27T18:25:00Z</time>
  <course>266.03</course>
  <speed>0.0</speed>
  <fix>3d</fix>
</trkpt>
<trkpt lat="40.072842" lon="-105.230575">
  <ele>1586.09</ele>
  <time>2026-08-27T18:25:00Z</time>
  <course>12.08</course>
  <speed>0.01</speed>
  <fix>3d</fix>
</trkpt>
<trkpt lat="40.072842" lon="-105.230575">
  <ele>1586.09</ele>
  <time>2026-08-27T18:25:00Z</time>
  <course>266.03</course>
  <speed>0.0</speed>
  <fix>3d</fix>
</trkpt>
<trkpt lat="39.654938" lon="-104.1331666">
  <ele>1569.54</ele>
  <time>2026-08-27T18:25:02Z</time>
  <course>168.11</course>
  <speed>0.0</speed>
  <fix>3d</fix>
</trkpt>
<trkpt lat="40.072842" lon="-105.230575">
  <ele>1586.09</ele>
  <time>2026-08-27T18:25:02Z</time>
  <course>238.4</course>
  <speed>0.0</speed>
  <fix>3d</fix>
</trkpt>
<trkpt lat="40.072842" lon="-105.230575">
  <ele>1586.09</ele>
  <time>2026-08-27T18:25:02Z</time>
  <course>194.29</course>
  <speed>0.0</speed>
  <fix>3d</fix>
</trkpt>
<trkpt lat="40.072842" lon="-105.230575">
  <ele>1586.09</ele>
  <time>2026-08-27T18:25:02Z</time>
  <course>193.66</course>
  <speed>0.0</speed>
  <fix>3d</fix>
</trkpt>
<trkpt lat="40.072842" lon="-105.230575">
  <ele>1586.09</ele>
  <time>2026-08-27T18:25:02Z</time>
  <course>306.34</course>
  <speed>0.0</speed>
  <fix>3d</fix>
</trkpt>
<trkpt lat="40.072842" lon="-105.230575">
  <ele>1586.09</ele>
  <time>2026-08-27T18:25:02Z</time>
  <course>99.93</course>
  <speed>0.0</speed>
  <fix>3d</fix>
</trkpt>
<trkpt lat="40.072842" lon="-105.230575">
  <ele>1586.09</ele>
  <time>2026-08-27T18:25:02Z</time>
  <course>199.49</course>
  <speed>0.0</speed>
  <fix>3d</fix>
</trkpt>
<trkpt lat="40.072842" lon="-105.230575">
  <ele>1586.09</ele>
  <time>2026-08-27T18:25:02Z</time>
  <course>250.01</course>
  <speed>0.0</speed>
  <fix>3d</fix>
</trkpt>
<trkpt lat="40.072842" lon="-105.230575">
  <ele>1586.09</ele>
  <time>2026-08-27T18:25:02Z</time>
  <course>170.23</course>
  <speed>0.0</speed>
  <fix>3d</fix>
</trkpt>
<trkpt lat="40.072842" lon="-105.230575">
  <ele>1586.09</ele>
  <time>2026-08-27T18:25:02Z</time>
  <course>179.69</course>
  <speed>0.0</speed>
  <fix>3d</fix>
</trkpt>
<trkpt lat="40.072842" lon="-105.230575">
  <ele>1586.09</ele>
  <time>2026-08-27T18:25:02Z</time>
  <course>358.42</course>
  <speed>0.0</speed>
  <fix>3d</fix>
</trkpt>
<trkpt lat="40.072842" lon="-105.230575">
  <ele>1586.09</ele>
  <time>2026-08-27T18:25:02Z</time>
  <course>22.34</course>
  <speed>0.0</speed>
  <fix>3d</fix>
</trkpt>
<trkpt lat="40.072842" lon="-105.230575">
  <ele>1586.09</ele>
  <time>2026-08-27T18:25:02Z</time>
  <course>1.07</course>
  <speed>0.0</speed>
  <fix>3d</fix>
</trkpt>
<trkpt lat="40.072842" lon="-105.230575">
  <ele>1586.09</ele>
  <time>2026-08-27T18:25:02Z</time>
  <course>41.15</course>
  <speed>0.0</speed>
  <fix>3d</fix>
</trkpt>
<trkpt lat="40.072842" lon="-105.230575">
  <ele>1586.09</ele>
  <time>2026-08-27T18:25:02Z</time>
  <course>293.7</course>
  <speed>0.0</speed>
  <fix>3d</fix>
</trkpt>
<trkpt lat="40.072842" lon="-105.230575">
  <ele>1586.09</ele>
  <time>2026-08-27T18:25:02Z</time>
  <course>334.27</course>
  <speed>0.0</speed>
  <fix>3d</fix>
</trkpt>
<trkpt lat="40.072842" lon="-105.230575">
  <ele>1586.09</ele>
  <time>2026-08-27T18:25:02Z</time>
  <course>124.45</course>
  <speed>0.0</speed>
  <fix>3d</fix>
</trkpt>
<trkpt lat="40.072842" lon="-105.230575">
  <ele>1586.09</ele>
  <time>2026-08-27T18:25:02Z</time>
  <course>305.07</course>
  <speed>0.0</speed>
  <fix>3d</fix>
</trkpt>
<trkpt lat="40.072842" lon="-105.230575">
  <ele>1586.09</ele>
  <time>2026-08-27T18:25:02Z</time>
  <course>249.97</course>
  <speed>0.0</speed>
  <fix>3d</fix>
</trkpt>
<trkpt lat="40.072842" lon="-105.230575">
  <ele>1586.09</ele>
  <time>2026-08-27T18:25:02Z</time>
  <course>235.5</course>
  <speed>0.0</speed>
  <fix>3d</fix>
</trkpt>
<trkpt lat="40.072842" lon="-105.230575">
  <ele>1586.09</ele>
  <time>2026-08-27T18:25:02Z</time>
  <course>261.16</course>
  <speed>0.0</speed>
  <fix>3d</fix>
</trkpt>
<trkpt lat="40.072842" lon="-105.230575">
  <ele>1586.09</ele>
  <time>2026-08-27T18:25:02Z</time>
  <course>283.85</course>
  <speed>0.0</speed>
  <fix>3d</fix>
</trkpt>
<trkpt lat="40.072842" lon="-105.230575">
  <ele>1586.09</ele>
  <time>2026-08-27T18:25:02Z</time>
  <course>324.1</course>
  <speed>0.0</speed>
  <fix>3d</fix>
</trkpt>
<trkpt lat="40.072842" lon="-105.230575">
  <ele>1586.09</ele>
  <time>2026-08-27T18:25:02Z</time>
  <course>318.11</course>
  <speed>0.0</speed>
  <fix>3d</fix>
</trkpt>
<trkpt lat="40.072842" lon="-105.230575">
  <ele>1586.09</ele>
  <time>2026-08-27T18:25:02Z</time>
  <course>210.79</course>
  <speed>0.0</speed>
  <fix>3d</fix>
</trkpt>
<trkpt lat="40.072842" lon="-105.230575">
  <ele>1586.09</ele>
  <time>2026-08-27T18:25:02Z</time>
  <course>161.31</course>
  <speed>0.0</speed>
  <fix>3d</fix>
</trkpt>
<trkpt lat="40.072842" lon="-105.230575">
  <ele>1586.09</ele>
  <time>2026-08-27T18:25:02Z</time>
  <course>288.96</course>
  <speed>0.0</speed>
  <fix>3d</fix>
</trkpt>
<trkpt lat="40.072842" lon="-105.230575">
  <ele>1586.09</ele>
  <time>2026-08-27T18:25:02Z</time>
  <course>271.8</course>
  <speed>0.0</speed>
  <fix>3d</fix>
</trkpt>
<trkpt lat="40.072842" lon="-105.230575">
  <ele>1586.09</ele>
  <time>2026-08-27T18:25:02Z</time>
  <course>261.59</course>
  <speed>0.0</speed>
  <fix>3d</fix>
</trkpt>
<trkpt lat="40.072842" lon="-105.230575">
  <ele>1586.09</ele>
  <time>2026-08-27T18:25:02Z</time>
  <course>265.65</course>
  <speed>0.0</speed>
  <fix>3d</fix>
</trkpt>
<trkpt lat="40.072842" lon="-105.230575">
  <ele>1586.09</ele>
  <time>2026-08-27T18:25:02Z</time>
  <course>266.66</course>
  <speed>0.0</speed>
  <fix>3d</fix>
</trkpt>
<trkpt lat="40.072842" lon="-105.230575">
  <ele>1586.09</ele>
  <time>2026-08-27T18:25:02Z</time>
  <course>266.01</course>
  <speed>0.0</speed>
  <fix>3d</fix>
</trkpt>
<trkpt lat="40.072842" lon="-105.230575">
  <ele>1586.09</ele>
  <time>2026-08-27T18:25:02Z</time>
  <course>265.95</course>
  <speed>0.0</speed>
  <fix>3d</fix>
</trkpt>
<trkpt lat="40.072842" lon="-105.230575">
  <ele>1586.09</ele>
  <time>2026-08-27T18:25:02Z</time>
  <course>266.05</course>
  <speed>0.0</speed>
  <fix>3d</fix>
</trkpt>
<trkpt lat="40.072842" lon="-105.230575">
  <ele>1586.09</ele>
  <time>2026-08-27T18:25:02Z</time>
  <course>266.04</course>
  <speed>0.0</speed>
  <fix>3d</fix>
</trkpt>
<trkpt lat="40.072842" lon="-105.230575">
  <ele>1586.09</ele>
  <time>2026-08-27T18:25:02Z</time>
  <course>266.03</course>
  <speed>0.0</speed>
  <fix>3d</fix>
</trkpt>
<trkpt lat="40.072842" lon="-105.230575">
  <ele>1586.09</ele>
  <time>2026-08-27T18:25:02Z</time>
  <course>266.03</course>
  <speed>0.0</speed>
  <fix>3d</fix>
</trkpt>
<trkpt lat="40.072842" lon="-105.230575">
  <ele>1586.09</ele>
  <time>2026-08-27T18:25:02Z</time>
  <course>266.03</course>
  <speed>0.0</speed>
  <fix>3d</fix>
</trkpt>
<trkpt lat="40.072842" lon="-105.230575">
  <ele>1586.09</ele>
  <time>2026-08-27T18:25:02Z</time>
  <course>266.03</course>
  <speed>0.0</speed>
  <fix>3d</fix>
</trkpt>
<trkpt lat="40.072842" lon="-105.230575">
  <ele>1586.09</ele>
  <time>2026-08-27T18:25:02Z</time>
  <course>266.03</course>
  <speed>0.0</speed>
  <fix>3d</fix>
</trkpt>
<trkpt lat="40.072842" lon="-105.230575">
  <ele>1586.09</ele>
  <time>2026-08-27T18:25:02Z</time>
  <course>266.03</course>
  <speed>0.0</speed>
  <fix>3d</fix>
</trkpt>
<trkpt lat="40.072842" lon="-105.230575">
  <ele>1586.09</ele>
  <time>2026-08-27T18:25:02Z</time>
  <course>266.03</course>
  <speed>0.0</speed>
  <fix>3d</fix>
</trkpt>
<trkpt lat="40.072842" lon="-105.230575">
  <ele>1586.09</ele>
  <time>2026-08-27T18:25:02Z</time>
  <course>266.03</course>
  <speed>0.0</speed>
  <fix>3d</fix>
</trkpt>
<trkpt lat="40.072842" lon="-105.230575">
  <ele>1586.09</ele>
  <time>2026-08-27T18:25:02Z</time>
  <course>266.03</course>
  <speed>0.0</speed>
  <fix>3d</fix>
</trkpt>
<trkpt lat="40.072842" lon="-105.230575">
  <ele>1586.09</ele>
  <time>2026-08-27T18:25:02Z</time>
  <course>266.03</course>
  <speed>0.0</speed>
  <fix>3d</fix>
</trkpt>
<trkpt lat="40.072842" lon="-105.230575">
  <ele>1586.09</ele>
  <time>2026-08-27T18:25:02Z</time>
  <course>266.03</course>
  <speed>0.0</speed>
  <fix>3d</fix>
</trkpt>
<trkpt lat="40.072842" lon="-105.230575">
  <ele>1586.09</ele>
  <time>2026-08-27T18:25:02Z</time>
  <course>266.03</course>
  <speed>0.0</speed>
  <fix>3d</fix>
</trkpt>
<trkpt lat="40.072842" lon="-105.230575">
  <ele>1586.09</ele>
  <time>2026-08-27T18:25:02Z</time>
  <course>266.03</course>
  <speed>0.0</speed>
  <fix>3d</fix>
</trkpt>
<trkpt lat="40.072842" lon="-105.230575">
  <ele>1586.09</ele>
  <time>2026-08-27T18:25:02Z</time>
  <course>266.03</course>
  <speed>0.0</speed>
  <fix>3d</fix>
</trkpt>
<trkpt lat="40.072842" lon="-105.230575">
  <ele>1586.09</ele>
  <time>2026-08-27T18:25:02Z</time>
  <course>266.03</course>
  <speed>0.0</speed>
  <fix>3d</fix>
</trkpt>
<trkpt lat="40.072842" lon="-105.230575">
  <ele>1586.09</ele>
  <time>2026-08-27T18:25:02Z</time>
  <course>266.03</course>
  <speed>0.0</speed>
  <fix>3d</fix>
</trkpt>
<trkpt lat="40.072842" lon="-105.230575">
  <ele>1586.09</ele>
  <time>2026-08-27T18:25:02Z</time>
  <course>266.03</course>
  <speed>0.0</speed>
  <fix>3d</fix>
</trkpt>
<trkpt lat="40.072842" lon="-105.230575">
  <ele>1586.09</ele>
  <time>2026-08-27T18:25:02Z</time>
  <course>266.03</course>
  <speed>0.0</speed>
  <fix>3d</fix>
</trkpt>
<trkpt lat="40.072842" lon="-105.230575">
  <ele>1586.09</ele>
  <time>2026-08-27T18:25:02Z</time>
  <course>266.03</course>
  <speed>0.0</speed>
  <fix>3d</fix>
</trkpt>
<trkpt lat="40.072842" lon="-105.230575">
  <ele>1586.09</ele>
  <time>2026-08-27T18:25:02Z</time>
  <course>266.03</course>
  <speed>0.0</speed>
  <fix>3d</fix>
</trkpt>
<trkpt lat="40.072842" lon="-105.230575">
  <ele>1586.09</ele>
  <time>2026-08-27T18:25:02Z</time>
  <course>266.03</course>
  <speed>0.0</speed>
  <fix>3d</fix>
</trkpt>
<trkpt lat="40.072842" lon="-105.230575">
  <ele>1586.09</ele>
  <time>2026-08-27T18:25:02Z</time>
  <course>266.03</course>
  <speed>0.0</speed>
  <fix>3d</fix>
</trkpt>
<trkpt lat="40.072842" lon="-105.230575">
  <ele>1586.09</ele>
  <time>2026-08-27T18:25:02Z</time>
  <course>266.03</course>
  <speed>0.0</speed>
  <fix>3d</fix>
</trkpt>
<trkpt lat="40.072842" lon="-105.230575">
  <ele>1586.09</ele>
  <time>2026-08-27T18:25:02Z</time>
  <course>266.03</course>
  <speed>0.0</speed>
  <fix>3d</fix>
</trkpt>
<trkpt lat="40.072842" lon="-105.230575">
  <ele>1586.09</ele>
  <time>2026-08-27T18:25:02Z</time>
  <course>266.03</course>
  <speed>0.0</speed>
  <fix>3d</fix>
</trkpt>
<trkpt lat="40.072842" lon="-105.230575">
  <ele>1586.09</ele>
  <time>2026-08-27T18:25:02Z</time>
  <course>266.03</course>
  <speed>0.0</speed>
  <fix>3d</fix>
</trkpt>
<trkpt lat="40.072842" lon="-105.230575">
  <ele>1586.09</ele>
  <time>2026-08-27T18:25:02Z</time>
  <course>266.03</course>
  <speed>0.0</speed>
  <fix>3d</fix>
</trkpt>
<trkpt lat="40.072842" lon="-105.230575">
  <ele>1586.09</ele>
  <time>2026-08-27T18:25:02Z</time>
  <course>266.03</course>
  <speed>0.0</speed>
  <fix>3d</fix>
</trkpt>
<trkpt lat="40.072842" lon="-105.230575">
  <ele>1586.09</ele>
  <time>2026-08-27T18:25:02Z</time>
  <course>266.03</course>
  <speed>0.0</speed>
  <fix>3d</fix>
</trkpt>
<trkpt lat="40.072842" lon="-105.230575">
  <ele>1586.09</ele>
  <time>2026-08-27T18:25:02Z</time>
  <course>266.03</course>
  <speed>0.0</speed>
  <fix>3d</fix>
</trkpt>
<trkpt lat="40.072842" lon="-105.230575">
  <ele>1586.09</ele>
  <time>2026-08-27T18:25:02Z</time>
  <course>266.03</course>
  <speed>0.0</speed>
  <fix>3d</fix>
</trkpt>
<trkpt lat="40.072842" lon="-105.230575">
  <ele>1586.09</ele>
  <time>2026-08-27T18:25:02Z</time>
  <course>266.03</course>
  <speed>0.0</speed>
  <fix>3d</fix>
</trkpt>
<trkpt lat="40.072842" lon="-105.230575">
  <ele>1586.09</ele>
  <time>2026-08-27T18:25:02Z</time>
  <course>266.03</course>
  <speed>0.0</speed>
  <fix>3d</fix>
</trkpt>
<trkpt lat="40.072842" lon="-105.230575">
  <ele>1586.09</ele>
  <time>2026-08-27T18:25:02Z</time>
  <course>266.03</course>
  <speed>0.0</speed>
  <fix>3d</fix>
</trkpt>
<trkpt lat="40.072842" lon="-105.230575">
  <ele>1586.09</ele>
  <time>2026-08-27T18:25:02Z</time>
  <course>266.03</course>
  <speed>0.0</speed>
  <fix>3d</fix>
</trkpt>
<trkpt lat="40.072842" lon="-105.230575">
  <ele>1586.09</ele>
  <time>2026-08-27T18:25:02Z</time>
  <course>266.03</course>
  <speed>0.0</speed>
  <fix>3d</fix>
</trkpt>
<trkpt lat="40.072842" lon="-105.230575">
  <ele>1586.09</ele>
  <time>2026-08-27T18:25:02Z</time>
  <course>266.03</course>
  <speed>0.0</speed>
  <fix>3d</fix>
</trkpt>
<trkpt lat="40.072842" lon="-105.230575">
  <ele>1586.09</ele>
  <time>2026-08-27T18:25:02Z</time>
  <course>266.03</course>
  <speed>0.0</speed>
  <fix>3d</fix>
</trkpt>
<trkpt lat="40.072842" lon="-105.230575">
  <ele>1586.09</ele>
  <time>2026-08-27T18:25:02Z</time>
  <course>266.03</course>
  <speed>0.0</speed>
  <fix>3d</fix>
</trkpt>
<trkpt lat="40.072842" lon="-105.230575">
  <ele>1586.09</ele>
  <time>2026-08-27T18:25:02Z</time>
  <course>266.03</course>
  <speed>0.0</speed>
  <fix>3d</fix>
</trkpt>
<trkpt lat="40.072842" lon="-105.230575">
  <ele>1586.09</ele>
  <time>2026-08-27T18:25:02Z</time>
  <course>266.03</course>
  <speed>0.0</speed>
  <fix>3d</fix>
</trkpt>
<trkpt lat="40.072842" lon="-105.230575">
  <ele>1586.09</ele>
  <time>2026-08-27T18:25:02Z</time>
  <course>266.03</course>
  <speed>0.0</speed>
  <fix>3d</fix>
</trkpt>
<trkpt lat="40.072842" lon="-105.230575">
  <ele>1586.09</ele>
  <time>2026-08-27T18:25:02Z</time>
  <course>266.03</course>
  <speed>0.0</speed>
  <fix>3d</fix>
</trkpt>
<trkpt lat="40.072842" lon="-105.230575">
  <ele>1586.09</ele>
  <time>2026-08-27T18:25:02Z</time>
  <course>266.03</course>
  <speed>0.0</speed>
  <fix>3d</fix>
</trkpt>
<trkpt lat="40.072842" lon="-105.230575">
  <ele>1586.09</ele>
  <time>2026-08-27T18:25:02Z</time>
  <course>266.03</course>
  <speed>0.0</speed>
  <fix>3d</fix>
</trkpt>
<trkpt lat="40.072842" lon="-105.230575">
  <ele>1586.09</ele>
  <time>2026-08-27T18:25:02Z</time>
  <course>266.03</course>
  <speed>0.0</speed>
  <fix>3d</fix>
</trkpt>
<trkpt lat="40.072842" lon="-105.230575">
  <ele>1586.09</ele>
  <time>2026-08-27T18:25:02Z</time>
  <course>266.03</course>
  <speed>0.0</speed>
  <fix>3d</fix>
</trkpt>
<trkpt lat="40.072842" lon="-105.230575">
  <ele>1586.09</ele>
  <time>2026-08-27T18:25:02Z</time>
  <course>266.03</course>
  <speed>0.0</speed>
  <fix>3d</fix>
</trkpt>
<trkpt lat="40.072842" lon="-105.230575">
  <ele>1586.09</ele>
  <time>2026-08-27T18:25:02Z</time>
  <course>266.03</course>
  <speed>0.0</speed>
  <fix>3d</fix>
</trkpt>
<trkpt lat="40.072842" lon="-105.230575">
  <ele>1586.09</ele>
  <time>2026-08-27T18:25:02Z</time>
  <course>266.03</course>
  <speed>0.0</speed>
  <fix>3d</fix>
</trkpt>
<trkpt lat="40.072842" lon="-105.230575">
  <ele>1586.09</ele>
  <time>2026-08-27T18:25:02Z</time>
  <course>266.03</course>
  <speed>0.0</speed>
  <fix>3d</fix>
</trkpt>
<trkpt lat="40.072842" lon="-105.230575">
  <ele>1586.09</ele>
  <time>2026-08-27T18:25:02Z</time>
  <course>266.03</course>
  <speed>0.0</speed>
  <fix>3d</fix>
</trkpt>
<trkpt lat="40.072842" lon="-105.230575">
  <ele>1586.09</ele>
  <time>2026-08-27T18:25:02Z</time>
  <course>266.03</course>
  <speed>0.0</speed>
  <fix>3d</fix>
</trkpt>
<trkpt lat="40.072842" lon="-105.230575">
  <ele>1586.09</ele>
  <time>2026-08-27T18:25:02Z</time>
  <course>266.03</course>
  <speed>0.0</speed>
  <fix>3d</fix>
</trkpt>
<trkpt lat="40.072842" lon="-105.230575">
  <ele>1586.09</ele>
  <time>2026-08-27T18:25:02Z</time>
  <course>266.03</course>
  <speed>0.0</speed>
  <fix>3d</fix>
</trkpt>
<trkpt lat="40.072842" lon="-105.230575">
  <ele>1586.09</ele>
  <time>2026-08-27T18:25:02Z</time>
  <course>266.03</course>
  <speed>0.0</speed>
  <fix>3d</fix>
</trkpt>
<trkpt lat="40.072842" lon="-105.230575">
  <ele>1586.09</ele>
  <time>2026-08-27T18:25:02Z</time>
  <course>266.03</course>
  <speed>0.0</speed>
  <fix>3d</fix>
</trkpt>
<trkpt lat="40.072842" lon="-105.230575">
  <ele>1586.09</ele>
  <time>2026-08-27T18:25:02Z</time>
  <course>266.03</course>
  <speed>0.0</speed>
  <fix>3d</fix>
</trkpt>
<trkpt lat="40.072842" lon="-105.230575">
  <ele>1586.09</ele>
  <time>2026-08-27T18:25:02Z</time>
  <course>266.03</course>
  <speed>0.0</speed>
  <fix>3d</fix>
</trkpt>
<trkpt lat="40.072842" lon="-105.230575">
  <ele>1586.09</ele>
  <time>2026-08-27T18:25:02Z</time>
  <course>266.03</course>
  <speed>0.0</speed>
  <fix>3d</fix>
</trkpt>
<trkpt lat="40.072842" lon="-105.230575">
  <ele>1586.09</ele>
  <time>2026-08-27T18:25:02Z</time>
  <course>266.03</course>
  <speed>0.0</speed>
  <fix>3d</fix>
</trkpt>
<trkpt lat="40.072842" lon="-105.230575">
  <ele>1586.09</ele>
  <time>2026-08-27T18:25:02Z</time>
  <course>266.03</course>
  <speed>0.0</speed>
  <fix>3d</fix>
</trkpt>
<trkpt lat="40.072842" lon="-105.230575">
  <ele>1586.09</ele>
  <time>2026-08-27T18:25:02Z</time>
  <course>266.03</course>
  <speed>0.0</speed>
  <fix>3d</fix>
</trkpt>
<trkpt lat="40.072842" lon="-105.230575">
  <ele>1586.09</ele>
  <time>2026-08-27T18:25:02Z</time>
  <course>266.03</course>
  <speed>0.0</speed>
  <fix>3d</fix>
</trkpt>
<trkpt lat="40.072842" lon="-105.230575">
  <ele>1586.09</ele>
  <time>2026-08-27T18:25:02Z</time>
  <course>266.03</course>
  <speed>0.0</speed>
  <fix>3d</fix>
</trkpt>
<trkpt lat="40.072842" lon="-105.230575">
  <ele>1586.09</ele>
  <time>2026-08-27T18:25:02Z</time>
  <course>2.15</course>
  <speed>0.01414213562373095</speed>
  <fix>3d</fix>
</trkpt>
<trkpt lat="40.072842" lon="-105.230575">
  <ele>1586.09</ele>
  <time>2026-08-27T18:25:02Z</time>
  <course>266.03</course>
  <speed>0.0</speed>
  <fix>3d</fix>
</trkpt>
<trkpt lat="40.072842" lon="-105.230575">
  <ele>1586.09</ele>
  <time>2026-08-27T18:25:02Z</time>
  <course>2.29</course>
  <speed>0.01414213562373095</speed>
  <fix>3d</fix>
</trkpt>
<trkpt lat="40.072842" lon="-105.230575">
  <ele>1586.09</ele>
  <time>2026-08-27T18:25:02Z</time>
  <course>266.03</course>
  <speed>0.0</speed>
  <fix>3d</fix>
</trkpt>
<trkpt lat="40.072842" lon="-105.230575">
  <ele>1586.09</ele>
  <time>2026-08-27T18:25:02Z</time>
  <course>2.55</course>
  <speed>0.01414213562373095</speed>
  <fix>3d</fix>
</trkpt>
<trkpt lat="40.072842" lon="-105.230575">
  <ele>1586.09</ele>
  <time>2026-08-27T18:25:02Z</time>
  <course>266.03</course>
  <speed>0.0</speed>
  <fix>3d</fix>
</trkpt>
<trkpt lat="40.072842" lon="-105.230575">
  <ele>1586.09</ele>
  <time>2026-08-27T18:25:03Z</time>
  <course>2.8</course>
  <speed>0.01414213562373095</speed>
  <fix>3d</fix>
</trkpt>
<trkpt lat="40.072842" lon="-105.230575">
  <ele>1586.09</ele>
  <time>2026-08-27T18:25:03Z</time>
  <course>266.03</course>
  <speed>0.0</speed>
  <fix>3d</fix>
</trkpt>
<trkpt lat="39.654938" lon="-104.1331666">
  <ele>1569.54</ele>
  <time>2026-08-27T18:25:17Z</time>
  <course>168.11</course>
  <speed>0.0</speed>
  <fix>3d</fix>
</trkpt>
<trkpt lat="40.072842" lon="-105.230575">
  <ele>1586.09</ele>
  <time>2026-08-27T18:25:17Z</time>
  <course>2.03</course>
  <speed>0.0</speed>
  <fix>3d</fix>
</trkpt>
<trkpt lat="40.072842" lon="-105.230575">
  <ele>1586.09</ele>
  <time>2026-08-27T18:25:17Z</time>
  <course>238.4</course>
  <speed>0.0</speed>
  <fix>3d</fix>
</trkpt>
<trkpt lat="40.072842" lon="-105.230575">
  <ele>1586.09</ele>
  <time>2026-08-27T18:25:17Z</time>
  <course>2.43</course>
  <speed>0.0</speed>
  <fix>3d</fix>
</trkpt>
<trkpt lat="40.072842" lon="-105.230575">
  <ele>1586.09</ele>
  <time>2026-08-27T18:25:17Z</time>
  <course>194.29</course>
  <speed>0.0</speed>
  <fix>3d</fix>
</trkpt>
<trkpt lat="40.072842" lon="-105.230575">
  <ele>1586.09</ele>
  <time>2026-08-27T18:25:17Z</time>
  <course>3.16</course>
  <speed>0.0</speed>
  <fix>3d</fix>
</trkpt>
<trkpt lat="40.072842" lon="-105.230575">
  <ele>1586.09</ele>
  <time>2026-08-27T18:25:17Z</time>
  <course>193.66</course>
  <speed>0.0</speed>
  <fix>3d</fix>
</trkpt>
<trkpt lat="40.072842" lon="-105.230575">
  <ele>1586.09</ele>
  <time>2026-08-27T18:25:17Z</time>
  <course>3.85</course>
  <speed>0.0</speed>
  <fix>3d</fix>
</trkpt>
<trkpt lat="40.072842" lon="-105.230575">
  <ele>1586.09</ele>
  <time>2026-08-27T18:25:17Z</time>
  <course>303.54</course>
  <speed>0.0</speed>
  <fix>3d</fix>
</trkpt>
<trkpt lat="40.072842" lon="-105.230575">
  <ele>1586.09</ele>
  <time>2026-08-27T18:25:17Z</time>
  <course>4.47</course>
  <speed>0.0</speed>
  <fix>3d</fix>
</trkpt>
<trkpt lat="40.072842" lon="-105.230575">
  <ele>1586.09</ele>
  <time>2026-08-27T18:25:17Z</time>
  <course>110.94</course>
  <speed>0.0</speed>
  <fix>3d</fix>
</trkpt>
<trkpt lat="40.072842" lon="-105.230575">
  <ele>1586.09</ele>
  <time>2026-08-27T18:25:17Z</time>
  <course>5.06</course>
  <speed>0.0</speed>
  <fix>3d</fix>
</trkpt>
<trkpt lat="40.072842" lon="-105.230575">
  <ele>1586.09</ele>
  <time>2026-08-27T18:25:17Z</time>
  <course>191.21</course>
  <speed>0.0</speed>
  <fix>3d</fix>
</trkpt>
<trkpt lat="40.072842" lon="-105.230575">
  <ele>1586.09</ele>
  <time>2026-08-27T18:25:17Z</time>
  <course>5.62</course>
  <speed>0.0</speed>
  <fix>3d</fix>
</trkpt>
<trkpt lat="40.072842" lon="-105.230575">
  <ele>1586.09</ele>
  <time>2026-08-27T18:25:17Z</time>
  <course>252.23</course>
  <speed>0.0</speed>
  <fix>3d</fix>
</trkpt>
<trkpt lat="40.072842" lon="-105.230575">
  <ele>1586.09</ele>
  <time>2026-08-27T18:25:17Z</time>
  <course>6.14</course>
  <speed>0.0</speed>
  <fix>3d</fix>
</trkpt>
<trkpt lat="40.072842" lon="-105.230575">
  <ele>1586.09</ele>
  <time>2026-08-27T18:25:17Z</time>
  <course>170.36</course>
  <speed>0.0</speed>
  <fix>3d</fix>
</trkpt>
<trkpt lat="40.072842" lon="-105.230575">
  <ele>1586.09</ele>
  <time>2026-08-27T18:25:17Z</time>
  <course>6.64</course>
  <speed>0.0</speed>
  <fix>3d</fix>
</trkpt>
<trkpt lat="40.072842" lon="-105.230575">
  <ele>1586.09</ele>
  <time>2026-08-27T18:25:17Z</time>
  <course>179.36</course>
  <speed>0.0</speed>
  <fix>3d</fix>
</trkpt>
<trkpt lat="40.072842" lon="-105.230575">
  <ele>1586.09</ele>
  <time>2026-08-27T18:25:17Z</time>
  <course>7.1</course>
  <speed>0.0</speed>
  <fix>3d</fix>
</trkpt>
<trkpt lat="40.072842" lon="-105.230575">
  <ele>1586.09</ele>
  <time>2026-08-27T18:25:17Z</time>
  <course>19.98</course>
  <speed>0.0</speed>
  <fix>3d</fix>
</trkpt>
<trkpt lat="40.072842" lon="-105.230575">
  <ele>1586.09</ele>
  <time>2026-08-27T18:25:17Z</time>
  <course>7.53</course>
  <speed>0.0</speed>
  <fix>3d</fix>
</trkpt>
<trkpt lat="40.072842" lon="-105.230575">
  <ele>1586.09</ele>
  <time>2026-08-27T18:25:17Z</time>
  <course>17.49</course>
  <speed>0.0</speed>
  <fix>3d</fix>
</trkpt>
<trkpt lat="40.072842" lon="-105.230575">
  <ele>1586.09</ele>
  <time>2026-08-27T18:25:17Z</time>
  <course>7.92</course>
  <speed>0.0</speed>
  <fix>3d</fix>
</trkpt>
<trkpt lat="40.072842" lon="-105.230575">
  <ele>1586.09</ele>
  <time>2026-08-27T18:25:17Z</time>
  <course>356.19</course>
  <speed>0.0</speed>
  <fix>3d</fix>
</trkpt>
<trkpt lat="40.072842" lon="-105.230575">
  <ele>1586.09</ele>
  <time>2026-08-27T18:25:17Z</time>
  <course>8.29</course>
  <speed>0.0</speed>
  <fix>3d</fix>
</trkpt>
<trkpt lat="40.072842" lon="-105.230575">
  <ele>1586.09</ele>
  <time>2026-08-27T18:25:17Z</time>
  <course>77.32</course>
  <speed>0.0</speed>
  <fix>3d</fix>
</trkpt>
<trkpt lat="40.072842" lon="-105.230575">
  <ele>1586.09</ele>
  <time>2026-08-27T18:25:17Z</time>
  <course>8.62</course>
  <speed>0.0</speed>
  <fix>3d</fix>
</trkpt>
<trkpt lat="40.072842" lon="-105.230575">
  <ele>1586.09</ele>
  <time>2026-08-27T18:25:17Z</time>
  <course>290.54</course>
  <speed>0.0</speed>
  <fix>3d</fix>
</trkpt>
<trkpt lat="40.072842" lon="-105.230575">
  <ele>1586.09</ele>
  <time>2026-08-27T18:25:17Z</time>
  <course>8.93</course>
  <speed>0.0</speed>
  <fix>3d</fix>
</trkpt>
<trkpt lat="40.072842" lon="-105.230575">
  <ele>1586.09</ele>
  <time>2026-08-27T18:25:17Z</time>
  <course>338.69</course>
  <speed>0.0</speed>
  <fix>3d</fix>
</trkpt>
<trkpt lat="40.072842" lon="-105.230575">
  <ele>1586.09</ele>
  <time>2026-08-27T18:25:17Z</time>
  <course>9.22</course>
  <speed>0.0</speed>
  <fix>3d</fix>
</trkpt>
<trkpt lat="40.072842" lon="-105.230575">
  <ele>1586.09</ele>
  <time>2026-08-27T18:25:17Z</time>
  <course>326.81</course>
  <speed>0.0</speed>
  <fix>3d</fix>
</trkpt>
<trkpt lat="40.072842" lon="-105.230575">
  <ele>1586.09</ele>
  <time>2026-08-27T18:25:17Z</time>
  <course>9.49</course>
  <speed>0.0</speed>
  <fix>3d</fix>
</trkpt>
<trkpt lat="40.072842" lon="-105.230575">
  <ele>1586.09</ele>
  <time>2026-08-27T18:25:17Z</time>
  <course>262.23</course>
  <speed>0.0</speed>
  <fix>3d</fix>
</trkpt>
<trkpt lat="40.072842" lon="-105.230575">
  <ele>1586.09</ele>
  <time>2026-08-27T18:25:17Z</time>
  <course>9.73</course>
  <speed>0.0</speed>
  <fix>3d</fix>
</trkpt>
<trkpt lat="40.072842" lon="-105.230575">
  <ele>1586.09</ele>
  <time>2026-08-27T18:25:17Z</time>
  <course>159.08</course>
  <speed>0.0</speed>
  <fix>3d</fix>
</trkpt>
<trkpt lat="40.072842" lon="-105.230575">
  <ele>1586.09</ele>
  <time>2026-08-27T18:25:17Z</time>
  <course>9.95</course>
  <speed>0.0</speed>
  <fix>3d</fix>
</trkpt>
<trkpt lat="40.072842" lon="-105.230575">
  <ele>1586.09</ele>
  <time>2026-08-27T18:25:17Z</time>
  <course>287.98</course>
  <speed>0.0</speed>
  <fix>3d</fix>
</trkpt>
<trkpt lat="40.072842" lon="-105.230575">
  <ele>1586.09</ele>
  <time>2026-08-27T18:25:17Z</time>
  <course>10.16</course>
  <speed>0.0</speed>
  <fix>3d</fix>
</trkpt>
<trkpt lat="40.072842" lon="-105.230575">
  <ele>1586.09</ele>
  <time>2026-08-27T18:25:17Z</time>
  <course>278.3</course>
  <speed>0.0</speed>
  <fix>3d</fix>
</trkpt>
<trkpt lat="40.072842" lon="-105.230575">
  <ele>1586.09</ele>
  <time>2026-08-27T18:25:17Z</time>
  <course>10.34</course>
  <speed>0.0</speed>
  <fix>3d</fix>
</trkpt>
<trkpt lat="40.072842" lon="-105.230575">
  <ele>1586.09</ele>
  <time>2026-08-27T18:25:17Z</time>
  <course>261.72</course>
  <speed>0.0</speed>
  <fix>3d</fix>
</trkpt>
<trkpt lat="40.072842" lon="-105.230575">
  <ele>1586.09</ele>
  <time>2026-08-27T18:25:17Z</time>
  <course>10.52</course>
  <speed>0.0</speed>
  <fix>3d</fix>
</trkpt>
<trkpt lat="40.072842" lon="-105.230575">
  <ele>1586.09</ele>
  <time>2026-08-27T18:25:17Z</time>
  <course>264.4</course>
  <speed>0.0</speed>
  <fix>3d</fix>
</trkpt>
<trkpt lat="40.072842" lon="-105.230575">
  <ele>1586.09</ele>
  <time>2026-08-27T18:25:17Z</time>
  <course>10.67</course>
  <speed>0.0</speed>
  <fix>3d</fix>
</trkpt>
<trkpt lat="40.072842" lon="-105.230575">
  <ele>1586.09</ele>
  <time>2026-08-27T18:25:17Z</time>
  <course>266.8</course>
  <speed>0.0</speed>
  <fix>3d</fix>
</trkpt>
<trkpt lat="40.072842" lon="-105.230575">
  <ele>1586.09</ele>
  <time>2026-08-27T18:25:17Z</time>
  <course>10.82</course>
  <speed>0.0</speed>
  <fix>3d</fix>
</trkpt>
<trkpt lat="40.072842" lon="-105.230575">
  <ele>1586.09</ele>
  <time>2026-08-27T18:25:17Z</time>
  <course>266.15</course>
  <speed>0.0</speed>
  <fix>3d</fix>
</trkpt>
<trkpt lat="40.072842" lon="-105.230575">
  <ele>1586.09</ele>
  <time>2026-08-27T18:25:17Z</time>
  <course>10.95</course>
  <speed>0.0</speed>
  <fix>3d</fix>
</trkpt>
<trkpt lat="40.072842" lon="-105.230575">
  <ele>1586.09</ele>
  <time>2026-08-27T18:25:17Z</time>
  <course>265.92</course>
  <speed>0.0</speed>
  <fix>3d</fix>
</trkpt>
<trkpt lat="40.072842" lon="-105.230575">
  <ele>1586.09</ele>
  <time>2026-08-27T18:25:17Z</time>
  <course>11.07</course>
  <speed>0.0</speed>
  <fix>3d</fix>
</trkpt>
<trkpt lat="40.072842" lon="-105.230575">
  <ele>1586.09</ele>
  <time>2026-08-27T18:25:17Z</time>
  <course>266.03</course>
  <speed>0.0</speed>
  <fix>3d</fix>
</trkpt>
<trkpt lat="40.072842" lon="-105.230575">
  <ele>1586.09</ele>
  <time>2026-08-27T18:25:17Z</time>
  <course>11.18</course>
  <speed>0.0</speed>
  <fix>3d</fix>
</trkpt>
<trkpt lat="40.072842" lon="-105.230575">
  <ele>1586.09</ele>
  <time>2026-08-27T18:25:17Z</time>
  <course>266.05</course>
  <speed>0.0</speed>
  <fix>3d</fix>
</trkpt>
<trkpt lat="40.072842" lon="-105.230575">
  <ele>1586.09</ele>
  <time>2026-08-27T18:25:17Z</time>
  <course>11.28</course>
  <speed>0.0</speed>
  <fix>3d</fix>
</trkpt>
<trkpt lat="40.072842" lon="-105.230575">
  <ele>1586.09</ele>
  <time>2026-08-27T18:25:17Z</time>
  <course>266.03</course>
  <speed>0.0</speed>
  <fix>3d</fix>
</trkpt>
<trkpt lat="40.072842" lon="-105.230575">
  <ele>1586.09</ele>
  <time>2026-08-27T18:25:17Z</time>
  <course>11.37</course>
  <speed>0.0</speed>
  <fix>3d</fix>
</trkpt>
<trkpt lat="40.072842" lon="-105.230575">
  <ele>1586.09</ele>
  <time>2026-08-27T18:25:17Z</time>
  <course>266.03</course>
  <speed>0.0</speed>
  <fix>3d</fix>
</trkpt>
<trkpt lat="40.072842" lon="-105.230575">
  <ele>1586.09</ele>
  <time>2026-08-27T18:25:17Z</time>
  <course>11.45</course>
  <speed>0.0</speed>
  <fix>3d</fix>
</trkpt>
<trkpt lat="40.072842" lon="-105.230575">
  <ele>1586.09</ele>
  <time>2026-08-27T18:25:17Z</time>
  <course>266.03</course>
  <speed>0.0</speed>
  <fix>3d</fix>
</trkpt>
<trkpt lat="40.072842" lon="-105.230575">
  <ele>1586.09</ele>
  <time>2026-08-27T18:25:17Z</time>
  <course>11.53</course>
  <speed>0.0</speed>
  <fix>3d</fix>
</trkpt>
<trkpt lat="40.072842" lon="-105.230575">
  <ele>1586.09</ele>
  <time>2026-08-27T18:25:17Z</time>
  <course>266.03</course>
  <speed>0.0</speed>
  <fix>3d</fix>
</trkpt>
<trkpt lat="40.072842" lon="-105.230575">
  <ele>1586.09</ele>
  <time>2026-08-27T18:25:17Z</time>
  <course>11.59</course>
  <speed>0.0</speed>
  <fix>3d</fix>
</trkpt>
<trkpt lat="40.072842" lon="-105.230575">
  <ele>1586.09</ele>
  <time>2026-08-27T18:25:17Z</time>
  <course>266.03</course>
  <speed>0.0</speed>
  <fix>3d</fix>
</trkpt>
<trkpt lat="40.072842" lon="-105.230575">
  <ele>1586.09</ele>
  <time>2026-08-27T18:25:17Z</time>
  <course>11.66</course>
  <speed>0.0</speed>
  <fix>3d</fix>
</trkpt>
<trkpt lat="40.072842" lon="-105.230575">
  <ele>1586.09</ele>
  <time>2026-08-27T18:25:17Z</time>
  <course>266.03</course>
  <speed>0.0</speed>
  <fix>3d</fix>
</trkpt>
<trkpt lat="40.072842" lon="-105.230575">
  <ele>1586.09</ele>
  <time>2026-08-27T18:25:17Z</time>
  <course>11.71</course>
  <speed>0.0</speed>
  <fix>3d</fix>
</trkpt>
<trkpt lat="40.072842" lon="-105.230575">
  <ele>1586.09</ele>
  <time>2026-08-27T18:25:17Z</time>
  <course>266.03</course>
  <speed>0.0</speed>
  <fix>3d</fix>
</trkpt>
<trkpt lat="40.072842" lon="-105.230575">
  <ele>1586.09</ele>
  <time>2026-08-27T18:25:17Z</time>
  <course>11.76</course>
  <speed>0.0</speed>
  <fix>3d</fix>
</trkpt>
<trkpt lat="40.072842" lon="-105.230575">
  <ele>1586.09</ele>
  <time>2026-08-27T18:25:17Z</time>
  <course>266.03</course>
  <speed>0.0</speed>
  <fix>3d</fix>
</trkpt>
<trkpt lat="40.072842" lon="-105.230575">
  <ele>1586.09</ele>
  <time>2026-08-27T18:25:17Z</time>
  <course>11.81</course>
  <speed>0.0</speed>
  <fix>3d</fix>
</trkpt>
<trkpt lat="40.072842" lon="-105.230575">
  <ele>1586.09</ele>
  <time>2026-08-27T18:25:17Z</time>
  <course>266.03</course>
  <speed>0.0</speed>
  <fix>3d</fix>
</trkpt>
<trkpt lat="40.072842" lon="-105.230575">
  <ele>1586.09</ele>
  <time>2026-08-27T18:25:17Z</time>
  <course>11.85</course>
  <speed>0.0</speed>
  <fix>3d</fix>
</trkpt>
<trkpt lat="40.072842" lon="-105.230575">
  <ele>1586.09</ele>
  <time>2026-08-27T18:25:17Z</time>
  <course>266.03</course>
  <speed>0.0</speed>
  <fix>3d</fix>
</trkpt>
<trkpt lat="40.072842" lon="-105.230575">
  <ele>1586.09</ele>
  <time>2026-08-27T18:25:17Z</time>
  <course>11.88</course>
  <speed>0.0</speed>
  <fix>3d</fix>
</trkpt>
<trkpt lat="40.072842" lon="-105.230575">
  <ele>1586.09</ele>
  <time>2026-08-27T18:25:17Z</time>
  <course>266.03</course>
  <speed>0.0</speed>
  <fix>3d</fix>
</trkpt>
<trkpt lat="40.072842" lon="-105.230575">
  <ele>1586.09</ele>
  <time>2026-08-27T18:25:17Z</time>
  <course>11.92</course>
  <speed>0.0</speed>
  <fix>3d</fix>
</trkpt>
<trkpt lat="40.072842" lon="-105.230575">
  <ele>1586.09</ele>
  <time>2026-08-27T18:25:17Z</time>
  <course>266.03</course>
  <speed>0.0</speed>
  <fix>3d</fix>
</trkpt>
<trkpt lat="40.072842" lon="-105.230575">
  <ele>1586.09</ele>
  <time>2026-08-27T18:25:17Z</time>
  <course>11.95</course>
  <speed>0.0</speed>
  <fix>3d</fix>
</trkpt>
<trkpt lat="40.072842" lon="-105.230575">
  <ele>1586.09</ele>
  <time>2026-08-27T18:25:17Z</time>
  <course>266.03</course>
  <speed>0.0</speed>
  <fix>3d</fix>
</trkpt>
<trkpt lat="40.072842" lon="-105.230575">
  <ele>1586.09</ele>
  <time>2026-08-27T18:25:17Z</time>
  <course>11.97</course>
  <speed>0.0</speed>
  <fix>3d</fix>
</trkpt>
<trkpt lat="40.072842" lon="-105.230575">
  <ele>1586.09</ele>
  <time>2026-08-27T18:25:17Z</time>
  <course>266.03</course>
  <speed>0.0</speed>
  <fix>3d</fix>
</trkpt>
<trkpt lat="40.072842" lon="-105.230575">
  <ele>1586.09</ele>
  <time>2026-08-27T18:25:17Z</time>
  <course>12.0</course>
  <speed>0.0</speed>
  <fix>3d</fix>
</trkpt>
<trkpt lat="40.072842" lon="-105.230575">
  <ele>1586.09</ele>
  <time>2026-08-27T18:25:17Z</time>
  <course>266.03</course>
  <speed>0.0</speed>
  <fix>3d</fix>
</trkpt>
<trkpt lat="40.072842" lon="-105.230575">
  <ele>1586.09</ele>
  <time>2026-08-27T18:25:17Z</time>
  <course>12.02</course>
  <speed>0.0</speed>
  <fix>3d</fix>
</trkpt>
<trkpt lat="40.072842" lon="-105.230575">
  <ele>1586.09</ele>
  <time>2026-08-27T18:25:17Z</time>
  <course>266.03</course>
  <speed>0.0</speed>
  <fix>3d</fix>
</trkpt>
<trkpt lat="40.072842" lon="-105.230575">
  <ele>1586.09</ele>
  <time>2026-08-27T18:25:17Z</time>
  <course>12.04</course>
  <speed>0.0</speed>
  <fix>3d</fix>
</trkpt>
<trkpt lat="40.072842" lon="-105.230575">
  <ele>1586.09</ele>
  <time>2026-08-27T18:25:17Z</time>
  <course>266.03</course>
  <speed>0.0</speed>
  <fix>3d</fix>
</trkpt>
<trkpt lat="40.072842" lon="-105.230575">
  <ele>1586.09</ele>
  <time>2026-08-27T18:25:17Z</time>
  <course>12.05</course>
  <speed>0.0</speed>
  <fix>3d</fix>
</trkpt>
<trkpt lat="40.072842" lon="-105.230575">
  <ele>1586.09</ele>
  <time>2026-08-27T18:25:17Z</time>
  <course>266.03</course>
  <speed>0.0</speed>
  <fix>3d</fix>
</trkpt>
<trkpt lat="40.072842" lon="-105.230575">
  <ele>1586.09</ele>
  <time>2026-08-27T18:25:17Z</time>
  <course>12.07</course>
  <speed>0.0</speed>
  <fix>3d</fix>
</trkpt>
<trkpt lat="40.072842" lon="-105.230575">
  <ele>1586.09</ele>
  <time>2026-08-27T18:25:17Z</time>
  <course>266.03</course>
  <speed>0.0</speed>
  <fix>3d</fix>
</trkpt>
<trkpt lat="40.072842" lon="-105.230575">
  <ele>1586.09</ele>
  <time>2026-08-27T18:25:17Z</time>
  <course>12.08</course>
  <speed>0.0</speed>
  <fix>3d</fix>
</trkpt>
<trkpt lat="40.072842" lon="-105.230575">
  <ele>1586.09</ele>
  <time>2026-08-27T18:25:17Z</time>
  <course>266.03</course>
  <speed>0.0</speed>
  <fix>3d</fix>
</trkpt>
<trkpt lat="40.072842" lon="-105.230575">
  <ele>1586.09</ele>
  <time>2026-08-27T18:25:17Z</time>
  <course>12.09</course>
  <speed>0.0</speed>
  <fix>3d</fix>
</trkpt>
<trkpt lat="40.072842" lon="-105.230575">
  <ele>1586.09</ele>
  <time>2026-08-27T18:25:17Z</time>
  <course>266.03</course>
  <speed>0.0</speed>
  <fix>3d</fix>
</trkpt>
<trkpt lat="40.072842" lon="-105.230575">
  <ele>1586.09</ele>
  <time>2026-08-27T18:25:17Z</time>
  <course>12.1</course>
  <speed>0.0</speed>
  <fix>3d</fix>
</trkpt>
<trkpt lat="40.072842" lon="-105.230575">
  <ele>1586.09</ele>
  <time>2026-08-27T18:25:17Z</time>
  <course>266.03</course>
  <speed>0.0</speed>
  <fix>3d</fix>
</trkpt>
<trkpt lat="40.072842" lon="-105.230575">
  <ele>1586.09</ele>
  <time>2026-08-27T18:25:17Z</time>
  <course>12.1</course>
  <speed>0.0</speed>
  <fix>3d</fix>
</trkpt>
<trkpt lat="40.072842" lon="-105.230575">
  <ele>1586.09</ele>
  <time>2026-08-27T18:25:17Z</time>
  <course>266.03</course>
  <speed>0.0</speed>
  <fix>3d</fix>
</trkpt>
<trkpt lat="40.072842" lon="-105.230575">
  <ele>1586.09</ele>
  <time>2026-08-27T18:25:17Z</time>
  <course>12.11</course>
  <speed>0.0</speed>
  <fix>3d</fix>
</trkpt>
<trkpt lat="40.072842" lon="-105.230575">
  <ele>1586.09</ele>
  <time>2026-08-27T18:25:17Z</time>
  <course>266.03</course>
  <speed>0.0</speed>
  <fix>3d</fix>
</trkpt>
<trkpt lat="40.072842" lon="-105.230575">
  <ele>1586.09</ele>
  <time>2026-08-27T18:25:17Z</time>
  <course>12.12</course>
  <speed>0.0</speed>
  <fix>3d</fix>
</trkpt>
<trkpt lat="40.072842" lon="-105.230575">
  <ele>1586.09</ele>
  <time>2026-08-27T18:25:17Z</time>
  <course>266.03</course>
  <speed>0.0</speed>
  <fix>3d</fix>
</trkpt>
<trkpt lat="40.072842" lon="-105.230575">
  <ele>1586.09</ele>
  <time>2026-08-27T18:25:17Z</time>
  <course>12.12</course>
  <speed>0.0</speed>
  <fix>3d</fix>
</trkpt>
<trkpt lat="40.072842" lon="-105.230575">
  <ele>1586.09</ele>
  <time>2026-08-27T18:25:17Z</time>
  <course>266.03</course>
  <speed>0.0</speed>
  <fix>3d</fix>
</trkpt>
<trkpt lat="40.072842" lon="-105.230575">
  <ele>1586.09</ele>
  <time>2026-08-27T18:25:17Z</time>
  <course>12.12</course>
  <speed>0.0</speed>
  <fix>3d</fix>
</trkpt>
<trkpt lat="40.072842" lon="-105.230575">
  <ele>1586.09</ele>
  <time>2026-08-27T18:25:17Z</time>
  <course>266.03</course>
  <speed>0.0</speed>
  <fix>3d</fix>
</trkpt>
<trkpt lat="40.072842" lon="-105.230575">
  <ele>1586.09</ele>
  <time>2026-08-27T18:25:17Z</time>
  <course>12.13</course>
  <speed>0.0</speed>
  <fix>3d</fix>
</trkpt>
<trkpt lat="40.072842" lon="-105.230575">
  <ele>1586.09</ele>
  <time>2026-08-27T18:25:17Z</time>
  <course>266.03</course>
  <speed>0.0</speed>
  <fix>3d</fix>
</trkpt>
<trkpt lat="40.072842" lon="-105.230575">
  <ele>1586.09</ele>
  <time>2026-08-27T18:25:17Z</time>
  <course>12.13</course>
  <speed>0.0</speed>
  <fix>3d</fix>
</trkpt>
<trkpt lat="40.072842" lon="-105.230575">
  <ele>1586.09</ele>
  <time>2026-08-27T18:25:17Z</time>
  <course>266.03</course>
  <speed>0.0</speed>
  <fix>3d</fix>
</trkpt>
<trkpt lat="40.072842" lon="-105.230575">
  <ele>1586.09</ele>
  <time>2026-08-27T18:25:17Z</time>
  <course>12.13</course>
  <speed>0.0</speed>
  <fix>3d</fix>
</trkpt>
<trkpt lat="40.072842" lon="-105.230575">
  <ele>1586.09</ele>
  <time>2026-08-27T18:25:17Z</time>
  <course>266.03</course>
  <speed>0.0</speed>
  <fix>3d</fix>
</trkpt>
<trkpt lat="40.072842" lon="-105.230575">
  <ele>1586.09</ele>
  <time>2026-08-27T18:25:17Z</time>
  <course>12.12</course>
  <speed>0.01</speed>
  <fix>3d</fix>
</trkpt>
<trkpt lat="40.072842" lon="-105.230575">
  <ele>1586.09</ele>
  <time>2026-08-27T18:25:17Z</time>
  <course>266.03</course>
  <speed>0.0</speed>
  <fix>3d</fix>
</trkpt>
<trkpt lat="40.072842" lon="-105.230575">
  <ele>1586.09</ele>
  <time>2026-08-27T18:25:17Z</time>
  <course>12.12</course>
  <speed>0.01</speed>
  <fix>3d</fix>
</trkpt>
<trkpt lat="40.072842" lon="-105.230575">
  <ele>1586.09</ele>
  <time>2026-08-27T18:25:17Z</time>
  <course>266.03</course>
  <speed>0.0</speed>
  <fix>3d</fix>
</trkpt>
<trkpt lat="40.072842" lon="-105.230575">
  <ele>1586.09</ele>
  <time>2026-08-27T18:25:17Z</time>
  <course>12.12</course>
  <speed>0.01</speed>
  <fix>3d</fix>
</trkpt>
<trkpt lat="40.072842" lon="-105.230575">
  <ele>1586.09</ele>
  <time>2026-08-27T18:25:17Z</time>
  <course>266.03</course>
  <speed>0.0</speed>
  <fix>3d</fix>
</trkpt>
<trkpt lat="40.072842" lon="-105.230575">
  <ele>1586.09</ele>
  <time>2026-08-27T18:25:17Z</time>
  <course>12.12</course>
  <speed>0.01</speed>
  <fix>3d</fix>
</trkpt>
<trkpt lat="40.072842" lon="-105.230575">
  <ele>1586.09</ele>
  <time>2026-08-27T18:25:17Z</time>
  <course>266.03</course>
  <speed>0.0</speed>
  <fix>3d</fix>
</trkpt>
<trkpt lat="40.072842" lon="-105.230575">
  <ele>1586.09</ele>
  <time>2026-08-27T18:25:17Z</time>
  <course>12.11</course>
  <speed>0.01</speed>
  <fix>3d</fix>
</trkpt>
<trkpt lat="40.072842" lon="-105.230575">
  <ele>1586.09</ele>
  <time>2026-08-27T18:25:17Z</time>
  <course>266.03</course>
  <speed>0.0</speed>
  <fix>3d</fix>
</trkpt>
<trkpt lat="40.072842" lon="-105.230575">
  <ele>1586.09</ele>
  <time>2026-08-27T18:25:17Z</time>
  <course>12.11</course>
  <speed>0.01</speed>
  <fix>3d</fix>
</trkpt>
<trkpt lat="40.072842" lon="-105.230575">
  <ele>1586.09</ele>
  <time>2026-08-27T18:25:17Z</time>
  <course>266.03</course>
  <speed>0.0</speed>
  <fix>3d</fix>
</trkpt>
<trkpt lat="40.072842" lon="-105.230575">
  <ele>1586.09</ele>
  <time>2026-08-27T18:25:17Z</time>
  <course>12.1</course>
  <speed>0.01</speed>
  <fix>3d</fix>
</trkpt>
<trkpt lat="40.072842" lon="-105.230575">
  <ele>1586.09</ele>
  <time>2026-08-27T18:25:17Z</time>
  <course>266.03</course>
  <speed>0.0</speed>
  <fix>3d</fix>
</trkpt>
<trkpt lat="40.072842" lon="-105.230575">
  <ele>1586.09</ele>
  <time>2026-08-27T18:25:17Z</time>
  <course>12.1</course>
  <speed>0.01</speed>
  <fix>3d</fix>
</trkpt>
<trkpt lat="40.072842" lon="-105.230575">
  <ele>1586.09</ele>
  <time>2026-08-27T18:25:17Z</time>
  <course>266.03</course>
  <speed>0.0</speed>
  <fix>3d</fix>
</trkpt>
<trkpt lat="40.072842" lon="-105.230575">
  <ele>1586.09</ele>
  <time>2026-08-27T18:25:17Z</time>
  <course>12.09</course>
  <speed>0.01</speed>
  <fix>3d</fix>
</trkpt>
<trkpt lat="40.072842" lon="-105.230575">
  <ele>1586.09</ele>
  <time>2026-08-27T18:25:17Z</time>
  <course>266.03</course>
  <speed>0.0</speed>
  <fix>3d</fix>
</trkpt>
<trkpt lat="40.072842" lon="-105.230575">
  <ele>1586.09</ele>
  <time>2026-08-27T18:25:17Z</time>
  <course>12.09</course>
  <speed>0.01</speed>
  <fix>3d</fix>
</trkpt>
<trkpt lat="40.072842" lon="-105.230575">
  <ele>1586.09</ele>
  <time>2026-08-27T18:25:17Z</time>
  <course>266.03</course>
  <speed>0.0</speed>
  <fix>3d</fix>
</trkpt>
<trkpt lat="40.072842" lon="-105.230575">
  <ele>1586.09</ele>
  <time>2026-08-27T18:25:17Z</time>
  <course>12.08</course>
  <speed>0.01</speed>
  <fix>3d</fix>
</trkpt>
<trkpt lat="40.072842" lon="-105.230575">
  <ele>1586.09</ele>
  <time>2026-08-27T18:25:17Z</time>
  <course>266.03</course>
  <speed>0.0</speed>
  <fix>3d</fix>
</trkpt>
<trkpt lat="40.072842" lon="-105.230575">
  <ele>1586.09</ele>
  <time>2026-08-27T18:25:17Z</time>
  <course>12.08</course>
  <speed>0.01414213562373095</speed>
  <fix>3d</fix>
</trkpt>
<trkpt lat="40.072842" lon="-105.230575">
  <ele>1586.09</ele>
  <time>2026-08-27T18:25:17Z</time>
  <course>266.03</course>
  <speed>0.0</speed>
  <fix>3d</fix>
</trkpt>
<trkpt lat="40.072842" lon="-105.230575">
  <ele>1586.09</ele>
  <time>2026-08-27T18:25:17Z</time>
  <course>12.07</course>
  <speed>0.01414213562373095</speed>
  <fix>3d</fix>
</trkpt>
<trkpt lat="40.072842" lon="-105.230575">
  <ele>1586.09</ele>
  <time>2026-08-27T18:25:17Z</time>
  <course>266.03</course>
  <speed>0.0</speed>
  <fix>3d</fix>
</trkpt>
<trkpt lat="40.072842" lon="-105.230575">
  <ele>1586.09</ele>
  <time>2026-08-27T18:25:17Z</time>
  <course>12.06</course>
  <speed>0.01414213562373095</speed>
  <fix>3d</fix>
</trkpt>
<trkpt lat="40.072842" lon="-105.230575">
  <ele>1586.09</ele>
  <time>2026-08-27T18:25:17Z</time>
  <course>266.03</course>
  <speed>0.0</speed>
  <fix>3d</fix>
</trkpt>
<trkpt lat="40.072842" lon="-105.230575">
  <ele>1586.09</ele>
  <time>2026-08-27T18:25:17Z</time>
  <course>12.05</course>
  <speed>0.01414213562373095</speed>
  <fix>3d</fix>
</trkpt>
<trkpt lat="40.072842" lon="-105.230575">
  <ele>1586.09</ele>
  <time>2026-08-27T18:25:17Z</time>
  <course>266.03</course>
  <speed>0.0</speed>
  <fix>3d</fix>
</trkpt>
<trkpt lat="40.072842" lon="-105.230575">
  <ele>1586.09</ele>
  <time>2026-08-27T18:25:17Z</time>
  <course>12.05</course>
  <speed>0.01414213562373095</speed>
  <fix>3d</fix>
</trkpt>
<trkpt lat="40.072842" lon="-105.230575">
  <ele>1586.09</ele>
  <time>2026-08-27T18:25:17Z</time>
  <course>266.03</course>
  <speed>0.0</speed>
  <fix>3d</fix>
</trkpt>
<trkpt lat="40.072842" lon="-105.230575">
  <ele>1586.09</ele>
  <time>2026-08-27T18:25:17Z</time>
  <course>12.04</course>
  <speed>0.01414213562373095</speed>
  <fix>3d</fix>
</trkpt>
<trkpt lat="40.072842" lon="-105.230575">
  <ele>1586.09</ele>
  <time>2026-08-27T18:25:17Z</time>
  <course>266.03</course>
  <speed>0.0</speed>
  <fix>3d</fix>
</trkpt>
<trkpt lat="40.072842" lon="-105.230575">
  <ele>1586.09</ele>
  <time>2026-08-27T18:25:17Z</time>
  <course>12.03</course>
  <speed>0.01414213562373095</speed>
  <fix>3d</fix>
</trkpt>
<trkpt lat="40.072842" lon="-105.230575">
  <ele>1586.09</ele>
  <time>2026-08-27T18:25:17Z</time>
  <course>266.03</course>
  <speed>0.0</speed>
  <fix>3d</fix>
</trkpt>
<trkpt lat="40.072842" lon="-105.230575">
  <ele>1586.09</ele>
  <time>2026-08-27T18:25:17Z</time>
  <course>12.03</course>
  <speed>0.01414213562373095</speed>
  <fix>3d</fix>
</trkpt>
<trkpt lat="40.072842" lon="-105.230575">
  <ele>1586.09</ele>
  <time>2026-08-27T18:25:17Z</time>
  <course>266.03</course>
  <speed>0.0</speed>
  <fix>3d</fix>
</trkpt>
<trkpt lat="40.072842" lon="-105.230575">
  <ele>1586.09</ele>
  <time>2026-08-27T18:25:17Z</time>
  <course>12.02</course>
  <speed>0.01414213562373095</speed>
  <fix>3d</fix>
</trkpt>
<trkpt lat="40.072842" lon="-105.230575">
  <ele>1586.09</ele>
  <time>2026-08-27T18:25:17Z</time>
  <course>266.03</course>
  <speed>0.0</speed>
  <fix>3d</fix>
</trkpt>
<trkpt lat="40.072842" lon="-105.230575">
  <ele>1586.09</ele>
  <time>2026-08-27T18:25:17Z</time>
  <course>12.01</course>
  <speed>0.01414213562373095</speed>
  <fix>3d</fix>
</trkpt>
<trkpt lat="40.072842" lon="-105.230575">
  <ele>1586.09</ele>
  <time>2026-08-27T18:25:17Z</time>
  <course>266.03</course>
  <speed>0.0</speed>
  <fix>3d</fix>
</trkpt>
<trkpt lat="40.072842" lon="-105.230575">
  <ele>1586.09</ele>
  <time>2026-08-27T18:25:17Z</time>
  <course>12.01</course>
  <speed>0.01414213562373095</speed>
  <fix>3d</fix>
</trkpt>
<trkpt lat="40.072842" lon="-105.230575">
  <ele>1586.09</ele>
  <time>2026-08-27T18:25:17Z</time>
  <course>266.03</course>
  <speed>0.0</speed>
  <fix>3d</fix>
</trkpt>
<trkpt lat="40.072842" lon="-105.230575">
  <ele>1586.09</ele>
  <time>2026-08-27T18:25:17Z</time>
  <course>12.0</course>
  <speed>0.01414213562373095</speed>
  <fix>3d</fix>
</trkpt>
<trkpt lat="40.072842" lon="-105.230575">
  <ele>1586.09</ele>
  <time>2026-08-27T18:25:17Z</time>
  <course>266.03</course>
  <speed>0.0</speed>
  <fix>3d</fix>
</trkpt>
<trkpt lat="40.072842" lon="-105.230575">
  <ele>1586.09</ele>
  <time>2026-08-27T18:25:17Z</time>
  <course>11.99</course>
  <speed>0.01414213562373095</speed>
  <fix>3d</fix>
</trkpt>
<trkpt lat="40.072842" lon="-105.230575">
  <ele>1586.09</ele>
  <time>2026-08-27T18:25:17Z</time>
  <course>266.03</course>
  <speed>0.0</speed>
  <fix>3d</fix>
</trkpt>
<trkpt lat="40.072842" lon="-105.230575">
  <ele>1586.09</ele>
  <time>2026-08-27T18:25:17Z</time>
  <course>11.98</course>
  <speed>0.01414213562373095</speed>
  <fix>3d</fix>
</trkpt>
<trkpt lat="40.072842" lon="-105.230575">
  <ele>1586.09</ele>
  <time>2026-08-27T18:25:17Z</time>
  <course>266.03</course>
  <speed>0.0</speed>
  <fix>3d</fix>
</trkpt>
<trkpt lat="40.072842" lon="-105.230575">
  <ele>1586.09</ele>
  <time>2026-08-27T18:25:17Z</time>
  <course>11.98</course>
  <speed>0.01414213562373095</speed>
  <fix>3d</fix>
</trkpt>
<trkpt lat="40.072842" lon="-105.230575">
  <ele>1586.09</ele>
  <time>2026-08-27T18:25:17Z</time>
  <course>266.03</course>
  <speed>0.0</speed>
  <fix>3d</fix>
</trkpt>
<trkpt lat="40.072842" lon="-105.230575">
  <ele>1586.09</ele>
  <time>2026-08-27T18:25:17Z</time>
  <course>11.97</course>
  <speed>0.022360679774997897</speed>
  <fix>3d</fix>
</trkpt>
<trkpt lat="40.072842" lon="-105.230575">
  <ele>1586.09</ele>
  <time>2026-08-27T18:25:17Z</time>
  <course>266.03</course>
  <speed>0.0</speed>
  <fix>3d</fix>
</trkpt>
<trkpt lat="40.072842" lon="-105.230575">
  <ele>1586.09</ele>
  <time>2026-08-27T18:25:17Z</time>
  <course>11.96</course>
  <speed>0.022360679774997897</speed>
  <fix>3d</fix>
</trkpt>
<trkpt lat="40.072842" lon="-105.230575">
  <ele>1586.09</ele>
  <time>2026-08-27T18:25:17Z</time>
  <course>266.03</course>
  <speed>0.0</speed>
  <fix>3d</fix>
</trkpt>
<trkpt lat="40.072842" lon="-105.230575">
  <ele>1586.09</ele>
  <time>2026-08-27T18:25:17Z</time>
  <course>11.95</course>
  <speed>0.022360679774997897</speed>
  <fix>3d</fix>
</trkpt>
<trkpt lat="40.072842" lon="-105.230575">
  <ele>1586.09</ele>
  <time>2026-08-27T18:25:17Z</time>
  <course>266.03</course>
  <speed>0.0</speed>
  <fix>3d</fix>
</trkpt>
<trkpt lat="40.072842" lon="-105.230575">
  <ele>1586.09</ele>
  <time>2026-08-27T18:25:17Z</time>
  <course>11.94</course>
  <speed>0.022360679774997897</speed>
  <fix>3d</fix>
</trkpt>
<trkpt lat="40.072842" lon="-105.230575">
  <ele>1586.09</ele>
  <time>2026-08-27T18:25:17Z</time>
  <course>266.03</course>
  <speed>0.0</speed>
  <fix>3d</fix>
</trkpt>
<trkpt lat="40.072842" lon="-105.230575">
  <ele>1586.09</ele>
  <time>2026-08-27T18:25:17Z</time>
  <course>11.93</course>
  <speed>0.022360679774997897</speed>
  <fix>3d</fix>
</trkpt>
<trkpt lat="40.072842" lon="-105.230575">
  <ele>1586.09</ele>
  <time>2026-08-27T18:25:17Z</time>
  <course>266.03</course>
  <speed>0.0</speed>
  <fix>3d</fix>
</trkpt>
<trkpt lat="40.072842" lon="-105.230575">
  <ele>1586.09</ele>
  <time>2026-08-27T18:25:17Z</time>
  <course>11.92</course>
  <speed>0.022360679774997897</speed>
  <fix>3d</fix>
</trkpt>
<trkpt lat="40.072842" lon="-105.230575">
  <ele>1586.09</ele>
  <time>2026-08-27T18:25:17Z</time>
  <course>266.03</course>
  <speed>0.0</speed>
  <fix>3d</fix>
</trkpt>
<trkpt lat="40.072842" lon="-105.230575">
  <ele>1586.09</ele>
  <time>2026-08-27T18:25:17Z</time>
  <course>11.92</course>
  <speed>0.022360679774997897</speed>
  <fix>3d</fix>
</trkpt>
<trkpt lat="40.072842" lon="-105.230575">
  <ele>1586.09</ele>
  <time>2026-08-27T18:25:17Z</time>
  <course>266.03</course>
  <speed>0.0</speed>
  <fix>3d</fix>
</trkpt>
<trkpt lat="40.072842" lon="-105.230575">
  <ele>1586.09</ele>
  <time>2026-08-27T18:25:17Z</time>
  <course>11.91</course>
  <speed>0.022360679774997897</speed>
  <fix>3d</fix>
</trkpt>
<trkpt lat="40.072842" lon="-105.230575">
  <ele>1586.09</ele>
  <time>2026-08-27T18:25:17Z</time>
  <course>266.03</course>
  <speed>0.0</speed>
  <fix>3d</fix>
</trkpt>
<trkpt lat="40.072842" lon="-105.230575">
  <ele>1586.09</ele>
  <time>2026-08-27T18:25:17Z</time>
  <course>11.9</course>
  <speed>0.022360679774997897</speed>
  <fix>3d</fix>
</trkpt>
<trkpt lat="40.072842" lon="-105.230575">
  <ele>1586.09</ele>
  <time>2026-08-27T18:25:17Z</time>
  <course>266.03</course>
  <speed>0.0</speed>
  <fix>3d</fix>
</trkpt>
<trkpt lat="40.072842" lon="-105.230575">
  <ele>1586.09</ele>
  <time>2026-08-27T18:25:17Z</time>
  <course>11.89</course>
  <speed>0.022360679774997897</speed>
  <fix>3d</fix>
</trkpt>
<trkpt lat="40.072842" lon="-105.230575">
  <ele>1586.09</ele>
  <time>2026-08-27T18:25:17Z</time>
  <course>266.03</course>
  <speed>0.0</speed>
  <fix>3d</fix>
</trkpt>
<trkpt lat="40.072842" lon="-105.230575">
  <ele>1586.09</ele>
  <time>2026-08-27T18:25:17Z</time>
  <course>11.88</course>
  <speed>0.022360679774997897</speed>
  <fix>3d</fix>
</trkpt>
<trkpt lat="40.072842" lon="-105.230575">
  <ele>1586.09</ele>
  <time>2026-08-27T18:25:17Z</time>
  <course>266.03</course>
  <speed>0.0</speed>
  <fix>3d</fix>
</trkpt>
<trkpt lat="40.072842" lon="-105.230575">
  <ele>1586.09</ele>
  <time>2026-08-27T18:25:17Z</time>
  <course>11.87</course>
  <speed>0.022360679774997897</speed>
  <fix>3d</fix>
</trkpt>
<trkpt lat="40.072842" lon="-105.230575">
  <ele>1586.09</ele>
  <time>2026-08-27T18:25:17Z</time>
  <course>266.03</course>
  <speed>0.0</speed>
  <fix>3d</fix>
</trkpt>
<trkpt lat="40.072842" lon="-105.230575">
  <ele>1586.09</ele>
  <time>2026-08-27T18:25:17Z</time>
  <course>11.87</course>
  <speed>0.022360679774997897</speed>
  <fix>3d</fix>
</trkpt>
<trkpt lat="40.072842" lon="-105.230575">
  <ele>1586.09</ele>
  <time>2026-08-27T18:25:17Z</time>
  <course>266.03</course>
  <speed>0.0</speed>
  <fix>3d</fix>
</trkpt>
<trkpt lat="40.072842" lon="-105.230575">
  <ele>1586.09</ele>
  <time>2026-08-27T18:25:17Z</time>
  <course>11.86</course>
  <speed>0.022360679774997897</speed>
  <fix>3d</fix>
</trkpt>
<trkpt lat="40.072842" lon="-105.230575">
  <ele>1586.09</ele>
  <time>2026-08-27T18:25:17Z</time>
  <course>266.03</course>
  <speed>0.0</speed>
  <fix>3d</fix>
</trkpt>
<trkpt lat="40.072842" lon="-105.230575">
  <ele>1586.09</ele>
  <time>2026-08-27T18:25:17Z</time>
  <course>11.85</course>
  <speed>0.022360679774997897</speed>
  <fix>3d</fix>
</trkpt>
<trkpt lat="40.072842" lon="-105.230575">
  <ele>1586.09</ele>
  <time>2026-08-27T18:25:17Z</time>
  <course>266.03</course>
  <speed>0.0</speed>
  <fix>3d</fix>
</trkpt>
<trkpt lat="40.072842" lon="-105.230575">
  <ele>1586.09</ele>
  <time>2026-08-27T18:25:17Z</time>
  <course>11.84</course>
  <speed>0.0282842712474619</speed>
  <fix>3d</fix>
</trkpt>
<trkpt lat="40.072842" lon="-105.230575">
  <ele>1586.09</ele>
  <time>2026-08-27T18:25:17Z</time>
  <course>266.03</course>
  <speed>0.0</speed>
  <fix>3d</fix>
</trkpt>
<trkpt lat="40.072842" lon="-105.230575">
  <ele>1586.09</ele>
  <time>2026-08-27T18:25:17Z</time>
  <course>11.83</course>
  <speed>0.0282842712474619</speed>
  <fix>3d</fix>
</trkpt>
<trkpt lat="40.072842" lon="-105.230575">
  <ele>1586.09</ele>
  <time>2026-08-27T18:25:17Z</time>
  <course>266.03</course>
  <speed>0.0</speed>
  <fix>3d</fix>
</trkpt>
<trkpt lat="40.072842" lon="-105.230575">
  <ele>1586.09</ele>
  <time>2026-08-27T18:25:17Z</time>
  <course>11.83</course>
  <speed>0.0282842712474619</speed>
  <fix>3d</fix>
</trkpt>
<trkpt lat="40.072842" lon="-105.230575">
  <ele>1586.09</ele>
  <time>2026-08-27T18:25:17Z</time>
  <course>266.03</course>
  <speed>0.0</speed>
  <fix>3d</fix>
</trkpt>
<trkpt lat="40.072842" lon="-105.230575">
  <ele>1586.09</ele>
  <time>2026-08-27T18:25:17Z</time>
  <course>11.82</course>
  <speed>0.0282842712474619</speed>
  <fix>3d</fix>
</trkpt>
<trkpt lat="40.072842" lon="-105.230575">
  <ele>1586.09</ele>
  <time>2026-08-27T18:25:17Z</time>
  <course>266.03</course>
  <speed>0.0</speed>
  <fix>3d</fix>
</trkpt>
<trkpt lat="40.072842" lon="-105.230575">
  <ele>1586.09</ele>
  <time>2026-08-27T18:25:17Z</time>
  <course>11.81</course>
  <speed>0.0282842712474619</speed>
  <fix>3d</fix>
</trkpt>
<trkpt lat="40.072842" lon="-105.230575">
  <ele>1586.09</ele>
  <time>2026-08-27T18:25:17Z</time>
  <course>266.03</course>
  <speed>0.0</speed>
  <fix>3d</fix>
</trkpt>
<trkpt lat="40.072842" lon="-105.230575">
  <ele>1586.09</ele>
  <time>2026-08-27T18:25:17Z</time>
  <course>11.8</course>
  <speed>0.0282842712474619</speed>
  <fix>3d</fix>
</trkpt>
<trkpt lat="40.072842" lon="-105.230575">
  <ele>1586.09</ele>
  <time>2026-08-27T18:25:17Z</time>
  <course>266.03</course>
  <speed>0.0</speed>
  <fix>3d</fix>
</trkpt>
<trkpt lat="40.072842" lon="-105.230575">
  <ele>1586.09</ele>
  <time>2026-08-27T18:25:17Z</time>
  <course>11.79</course>
  <speed>0.0282842712474619</speed>
  <fix>3d</fix>
</trkpt>
<trkpt lat="40.072842" lon="-105.230575">
  <ele>1586.09</ele>
  <time>2026-08-27T18:25:17Z</time>
  <course>266.03</course>
  <speed>0.0</speed>
  <fix>3d</fix>
</trkpt>
<trkpt lat="40.072842" lon="-105.230575">
  <ele>1586.09</ele>
  <time>2026-08-27T18:25:17Z</time>
  <course>11.79</course>
  <speed>0.0282842712474619</speed>
  <fix>3d</fix>
</trkpt>
<trkpt lat="40.072842" lon="-105.230575">
  <ele>1586.09</ele>
  <time>2026-08-27T18:25:17Z</time>
  <course>266.03</course>
  <speed>0.0</speed>
  <fix>3d</fix>
</trkpt>
<trkpt lat="40.072842" lon="-105.230575">
  <ele>1586.09</ele>
  <time>2026-08-27T18:25:17Z</time>
  <course>11.78</course>
  <speed>0.0282842712474619</speed>
  <fix>3d</fix>
</trkpt>
<trkpt lat="40.072842" lon="-105.230575">
  <ele>1586.09</ele>
  <time>2026-08-27T18:25:17Z</time>
  <course>266.03</course>
  <speed>0.0</speed>
  <fix>3d</fix>
</trkpt>
<trkpt lat="40.072842" lon="-105.230575">
  <ele>1586.09</ele>
  <time>2026-08-27T18:25:17Z</time>
  <course>11.77</course>
  <speed>0.0282842712474619</speed>
  <fix>3d</fix>
</trkpt>
<trkpt lat="40.072842" lon="-105.230575">
  <ele>1586.09</ele>
  <time>2026-08-27T18:25:17Z</time>
  <course>266.03</course>
  <speed>0.0</speed>
  <fix>3d</fix>
</trkpt>
<trkpt lat="40.072842" lon="-105.230575">
  <ele>1586.09</ele>
  <time>2026-08-27T18:25:17Z</time>
  <course>11.77</course>
  <speed>0.0282842712474619</speed>
  <fix>3d</fix>
</trkpt>
<trkpt lat="40.072842" lon="-105.230575">
  <ele>1586.09</ele>
  <time>2026-08-27T18:25:17Z</time>
  <course>266.03</course>
  <speed>0.0</speed>
  <fix>3d</fix>
</trkpt>
<trkpt lat="40.072842" lon="-105.230575">
  <ele>1586.09</ele>
  <time>2026-08-27T18:25:17Z</time>
  <course>11.76</course>
  <speed>0.0282842712474619</speed>
  <fix>3d</fix>
</trkpt>
<trkpt lat="40.072842" lon="-105.230575">
  <ele>1586.09</ele>
  <time>2026-08-27T18:25:17Z</time>
  <course>266.03</course>
  <speed>0.0</speed>
  <fix>3d</fix>
</trkpt>
<trkpt lat="40.072842" lon="-105.230575">
  <ele>1586.09</ele>
  <time>2026-08-27T18:25:17Z</time>
  <course>11.75</course>
  <speed>0.0282842712474619</speed>
  <fix>3d</fix>
</trkpt>
<trkpt lat="40.072842" lon="-105.230575">
  <ele>1586.09</ele>
  <time>2026-08-27T18:25:17Z</time>
  <course>266.03</course>
  <speed>0.0</speed>
  <fix>3d</fix>
</trkpt>
<trkpt lat="40.072842" lon="-105.230575">
  <ele>1586.09</ele>
  <time>2026-08-27T18:25:17Z</time>
  <course>11.74</course>
  <speed>0.03605551275463989</speed>
  <fix>3d</fix>
</trkpt>
<trkpt lat="40.072842" lon="-105.230575">
  <ele>1586.09</ele>
  <time>2026-08-27T18:25:17Z</time>
  <course>266.03</course>
  <speed>0.0</speed>
  <fix>3d</fix>
</trkpt>
<trkpt lat="40.072842" lon="-105.230575">
  <ele>1586.09</ele>
  <time>2026-08-27T18:25:17Z</time>
  <course>11.73</course>
  <speed>0.03605551275463989</speed>
  <fix>3d</fix>
</trkpt>
<trkpt lat="40.072842" lon="-105.230575">
  <ele>1586.09</ele>
  <time>2026-08-27T18:25:17Z</time>
  <course>266.03</course>
  <speed>0.0</speed>
  <fix>3d</fix>
</trkpt>
<trkpt lat="40.072842" lon="-105.230575">
  <ele>1586.09</ele>
  <time>2026-08-27T18:25:17Z</time>
  <course>11.73</course>
  <speed>0.03605551275463989</speed>
  <fix>3d</fix>
</trkpt>
<trkpt lat="40.072842" lon="-105.230575">
  <ele>1586.09</ele>
  <time>2026-08-27T18:25:17Z</time>
  <course>266.03</course>
  <speed>0.0</speed>
  <fix>3d</fix>
</trkpt>
<trkpt lat="40.072842" lon="-105.230575">
  <ele>1586.09</ele>
  <time>2026-08-27T18:25:17Z</time>
  <course>11.72</course>
  <speed>0.03605551275463989</speed>
  <fix>3d</fix>
</trkpt>
<trkpt lat="40.072842" lon="-105.230575">
  <ele>1586.09</ele>
  <time>2026-08-27T18:25:17Z</time>
  <course>266.03</course>
  <speed>0.0</speed>
  <fix>3d</fix>
</trkpt>
<trkpt lat="40.072842" lon="-105.230575">
  <ele>1586.09</ele>
  <time>2026-08-27T18:25:17Z</time>
  <course>11.71</course>
  <speed>0.03605551275463989</speed>
  <fix>3d</fix>
</trkpt>
<trkpt lat="40.072842" lon="-105.230575">
  <ele>1586.09</ele>
  <time>2026-08-27T18:25:17Z</time>
  <course>266.03</course>
  <speed>0.0</speed>
  <fix>3d</fix>
</trkpt>
<trkpt lat="40.072842" lon="-105.230575">
  <ele>1586.09</ele>
  <time>2026-08-27T18:25:17Z</time>
  <course>11.71</course>
  <speed>0.03605551275463989</speed>
  <fix>3d</fix>
</trkpt>
<trkpt lat="40.072842" lon="-105.230575">
  <ele>1586.09</ele>
  <time>2026-08-27T18:25:17Z</time>
  <course>266.03</course>
  <speed>0.0</speed>
  <fix>3d</fix>
</trkpt>
<trkpt lat="40.072842" lon="-105.230575">
  <ele>1586.09</ele>
  <time>2026-08-27T18:25:17Z</time>
  <course>11.7</course>
  <speed>0.03605551275463989</speed>
  <fix>3d</fix>
</trkpt>
<trkpt lat="40.072842" lon="-105.230575">
  <ele>1586.09</ele>
  <time>2026-08-27T18:25:17Z</time>
  <course>266.03</course>
  <speed>0.0</speed>
  <fix>3d</fix>
</trkpt>
<trkpt lat="40.072842" lon="-105.230575">
  <ele>1586.09</ele>
  <time>2026-08-27T18:25:17Z</time>
  <course>11.69</course>
  <speed>0.03605551275463989</speed>
  <fix>3d</fix>
</trkpt>
<trkpt lat="40.072842" lon="-105.230575">
  <ele>1586.09</ele>
  <time>2026-08-27T18:25:17Z</time>
  <course>266.03</course>
  <speed>0.0</speed>
  <fix>3d</fix>
</trkpt>
<trkpt lat="40.072842" lon="-105.230575">
  <ele>1586.09</ele>
  <time>2026-08-27T18:25:17Z</time>
  <course>11.68</course>
  <speed>0.03605551275463989</speed>
  <fix>3d</fix>
</trkpt>
<trkpt lat="40.072842" lon="-105.230575">
  <ele>1586.09</ele>
  <time>2026-08-27T18:25:17Z</time>
  <course>266.03</course>
  <speed>0.0</speed>
  <fix>3d</fix>
</trkpt>
<trkpt lat="40.072842" lon="-105.230575">
  <ele>1586.09</ele>
  <time>2026-08-27T18:25:17Z</time>
  <course>11.68</course>
  <speed>0.03605551275463989</speed>
  <fix>3d</fix>
</trkpt>
<trkpt lat="40.072842" lon="-105.230575">
  <ele>1586.09</ele>
  <time>2026-08-27T18:25:17Z</time>
  <course>266.03</course>
  <speed>0.0</speed>
  <fix>3d</fix>
</trkpt>
<trkpt lat="40.072842" lon="-105.230575">
  <ele>1586.09</ele>
  <time>2026-08-27T18:25:17Z</time>
  <course>11.67</course>
  <speed>0.03605551275463989</speed>
  <fix>3d</fix>
</trkpt>
<trkpt lat="40.072842" lon="-105.230575">
  <ele>1586.09</ele>
  <time>2026-08-27T18:25:17Z</time>
  <course>266.03</course>
  <speed>0.0</speed>
  <fix>3d</fix>
</trkpt>
<trkpt lat="40.072842" lon="-105.230575">
  <ele>1586.09</ele>
  <time>2026-08-27T18:25:17Z</time>
  <course>11.66</course>
  <speed>0.03605551275463989</speed>
  <fix>3d</fix>
</trkpt>
<trkpt lat="40.072842" lon="-105.230575">
  <ele>1586.09</ele>
  <time>2026-08-27T18:25:17Z</time>
  <course>266.03</course>
  <speed>0.0</speed>
  <fix>3d</fix>
</trkpt>
<trkpt lat="40.072842" lon="-105.230575">
  <ele>1586.09</ele>
  <time>2026-08-27T18:25:17Z</time>
  <course>11.65</course>
  <speed>0.03605551275463989</speed>
  <fix>3d</fix>
</trkpt>
<trkpt lat="40.072842" lon="-105.230575">
  <ele>1586.09</ele>
  <time>2026-08-27T18:25:17Z</time>
  <course>266.03</course>
  <speed>0.0</speed>
  <fix>3d</fix>
</trkpt>
<trkpt lat="40.072842" lon="-105.230575">
  <ele>1586.09</ele>
  <time>2026-08-27T18:25:17Z</time>
  <course>11.65</course>
  <speed>0.03605551275463989</speed>
  <fix>3d</fix>
</trkpt>
<trkpt lat="40.072842" lon="-105.230575">
  <ele>1586.09</ele>
  <time>2026-08-27T18:25:17Z</time>
  <course>266.03</course>
  <speed>0.0</speed>
  <fix>3d</fix>
</trkpt>
<trkpt lat="40.072842" lon="-105.230575">
  <ele>1586.09</ele>
  <time>2026-08-27T18:25:17Z</time>
  <course>11.64</course>
  <speed>0.03605551275463989</speed>
  <fix>3d</fix>
</trkpt>
<trkpt lat="40.072842" lon="-105.230575">
  <ele>1586.09</ele>
  <time>2026-08-27T18:25:17Z</time>
  <course>266.03</course>
  <speed>0.0</speed>
  <fix>3d</fix>
</trkpt>
<trkpt lat="40.072842" lon="-105.230575">
  <ele>1586.09</ele>
  <time>2026-08-27T18:25:17Z</time>
  <course>11.63</course>
  <speed>0.03605551275463989</speed>
  <fix>3d</fix>
</trkpt>
<trkpt lat="40.072842" lon="-105.230575">
  <ele>1586.09</ele>
  <time>2026-08-27T18:25:17Z</time>
  <course>266.03</course>
  <speed>0.0</speed>
  <fix>3d</fix>
</trkpt>
<trkpt lat="40.072842" lon="-105.230575">
  <ele>1586.09</ele>
  <time>2026-08-27T18:25:17Z</time>
  <course>11.63</course>
  <speed>0.03605551275463989</speed>
  <fix>3d</fix>
</trkpt>
<trkpt lat="40.072842" lon="-105.230575">
  <ele>1586.09</ele>
  <time>2026-08-27T18:25:17Z</time>
  <course>266.03</course>
  <speed>0.0</speed>
  <fix>3d</fix>
</trkpt>
<trkpt lat="40.072842" lon="-105.230575">
  <ele>1586.09</ele>
  <time>2026-08-27T18:25:17Z</time>
  <course>11.62</course>
  <speed>0.03605551275463989</speed>
  <fix>3d</fix>
</trkpt>
<trkpt lat="40.072842" lon="-105.230575">
  <ele>1586.09</ele>
  <time>2026-08-27T18:25:17Z</time>
  <course>266.03</course>
  <speed>0.0</speed>
  <fix>3d</fix>
</trkpt>
<trkpt lat="40.072842" lon="-105.230575">
  <ele>1586.09</ele>
  <time>2026-08-27T18:25:17Z</time>
  <course>11.61</course>
  <speed>0.03605551275463989</speed>
  <fix>3d</fix>
</trkpt>
<trkpt lat="40.072842" lon="-105.230575">
  <ele>1586.09</ele>
  <time>2026-08-27T18:25:17Z</time>
  <course>266.03</course>
  <speed>0.0</speed>
  <fix>3d</fix>
</trkpt>
<trkpt lat="40.072842" lon="-105.230575">
  <ele>1586.09</ele>
  <time>2026-08-27T18:25:17Z</time>
  <course>11.61</course>
  <speed>0.03605551275463989</speed>
  <fix>3d</fix>
</trkpt>
<trkpt lat="40.072842" lon="-105.230575">
  <ele>1586.09</ele>
  <time>2026-08-27T18:25:17Z</time>
  <course>266.03</course>
  <speed>0.0</speed>
  <fix>3d</fix>
</trkpt>
<trkpt lat="40.072842" lon="-105.230575">
  <ele>1586.09</ele>
  <time>2026-08-27T18:25:17Z</time>
  <course>11.58</course>
  <speed>0.03605551275463989</speed>
  <fix>3d</fix>
</trkpt>
<trkpt lat="40.072842" lon="-105.230575">
  <ele>1586.09</ele>
  <time>2026-08-27T18:25:17Z</time>
  <course>266.03</course>
  <speed>0.0</speed>
  <fix>3d</fix>
</trkpt>
<trkpt lat="40.072842" lon="-105.230575">
  <ele>1586.09</ele>
  <time>2026-08-27T18:25:17Z</time>
  <course>11.58</course>
  <speed>0.03605551275463989</speed>
  <fix>3d</fix>
</trkpt>
<trkpt lat="40.072842" lon="-105.230575">
  <ele>1586.09</ele>
  <time>2026-08-27T18:25:17Z</time>
  <course>266.03</course>
  <speed>0.0</speed>
  <fix>3d</fix>
</trkpt>
<trkpt lat="40.072842" lon="-105.230575">
  <ele>1586.09</ele>
  <time>2026-08-27T18:25:17Z</time>
  <course>11.57</course>
  <speed>0.03605551275463989</speed>
  <fix>3d</fix>
</trkpt>
<trkpt lat="40.072842" lon="-105.230575">
  <ele>1586.09</ele>
  <time>2026-08-27T18:25:17Z</time>
  <course>266.03</course>
  <speed>0.0</speed>
  <fix>3d</fix>
</trkpt>
<trkpt lat="40.072842" lon="-105.230575">
  <ele>1586.09</ele>
  <time>2026-08-27T18:25:17Z</time>
  <course>11.56</course>
  <speed>0.03605551275463989</speed>
  <fix>3d</fix>
</trkpt>
<trkpt lat="40.072842" lon="-105.230575">
  <ele>1586.09</ele>
  <time>2026-08-27T18:25:17Z</time>
  <course>266.03</course>
  <speed>0.0</speed>
  <fix>3d</fix>
</trkpt>
<trkpt lat="40.072842" lon="-105.230575">
  <ele>1586.09</ele>
  <time>2026-08-27T18:25:17Z</time>
  <course>11.56</course>
  <speed>0.03605551275463989</speed>
  <fix>3d</fix>
</trkpt>
<trkpt lat="40.072842" lon="-105.230575">
  <ele>1586.09</ele>
  <time>2026-08-27T18:25:17Z</time>
  <course>266.03</course>
  <speed>0.0</speed>
  <fix>3d</fix>
</trkpt>
<trkpt lat="40.072842" lon="-105.230575">
  <ele>1586.09</ele>
  <time>2026-08-27T18:25:17Z</time>
  <course>11.55</course>
  <speed>0.03605551275463989</speed>
  <fix>3d</fix>
</trkpt>
<trkpt lat="40.072842" lon="-105.230575">
  <ele>1586.09</ele>
  <time>2026-08-27T18:25:17Z</time>
  <course>266.03</course>
  <speed>0.0</speed>
  <fix>3d</fix>
</trkpt>
<trkpt lat="40.072842" lon="-105.230575">
  <ele>1586.09</ele>
  <time>2026-08-27T18:25:17Z</time>
  <course>11.55</course>
  <speed>0.03605551275463989</speed>
  <fix>3d</fix>
</trkpt>
<trkpt lat="40.072842" lon="-105.230575">
  <ele>1586.09</ele>
  <time>2026-08-27T18:25:17Z</time>
  <course>266.03</course>
  <speed>0.0</speed>
  <fix>3d</fix>
</trkpt>
<trkpt lat="40.072842" lon="-105.230575">
  <ele>1586.09</ele>
  <time>2026-08-27T18:25:17Z</time>
  <course>11.54</course>
  <speed>0.03605551275463989</speed>
  <fix>3d</fix>
</trkpt>
<trkpt lat="40.072842" lon="-105.230575">
  <ele>1586.09</ele>
  <time>2026-08-27T18:25:17Z</time>
  <course>266.03</course>
  <speed>0.0</speed>
  <fix>3d</fix>
</trkpt>
<trkpt lat="40.072842" lon="-105.230575">
  <ele>1586.09</ele>
  <time>2026-08-27T18:25:17Z</time>
  <course>11.53</course>
  <speed>0.03605551275463989</speed>
  <fix>3d</fix>
</trkpt>
<trkpt lat="40.072842" lon="-105.230575">
  <ele>1586.09</ele>
  <time>2026-08-27T18:25:17Z</time>
  <course>266.03</course>
  <speed>0.0</speed>
  <fix>3d</fix>
</trkpt>
<trkpt lat="40.072842" lon="-105.230575">
  <ele>1586.09</ele>
  <time>2026-08-27T18:25:17Z</time>
  <course>11.53</course>
  <speed>0.03605551275463989</speed>
  <fix>3d</fix>
</trkpt>
<trkpt lat="40.072842" lon="-105.230575">
  <ele>1586.09</ele>
  <time>2026-08-27T18:25:17Z</time>
  <course>266.03</course>
  <speed>0.0</speed>
  <fix>3d</fix>
</trkpt>
<trkpt lat="40.072842" lon="-105.230575">
  <ele>1586.09</ele>
  <time>2026-08-27T18:25:17Z</time>
  <course>11.52</course>
  <speed>0.03605551275463989</speed>
  <fix>3d</fix>
</trkpt>
<trkpt lat="40.072842" lon="-105.230575">
  <ele>1586.09</ele>
  <time>2026-08-27T18:25:17Z</time>
  <course>266.03</course>
  <speed>0.0</speed>
  <fix>3d</fix>
</trkpt>
<trkpt lat="40.072842" lon="-105.230575">
  <ele>1586.09</ele>
  <time>2026-08-27T18:25:17Z</time>
  <course>11.52</course>
  <speed>0.03605551275463989</speed>
  <fix>3d</fix>
</trkpt>
<trkpt lat="40.072842" lon="-105.230575">
  <ele>1586.09</ele>
  <time>2026-08-27T18:25:17Z</time>
  <course>266.03</course>
  <speed>0.0</speed>
  <fix>3d</fix>
</trkpt>
<trkpt lat="40.072842" lon="-105.230575">
  <ele>1586.09</ele>
  <time>2026-08-27T18:25:17Z</time>
  <course>11.51</course>
  <speed>0.03605551275463989</speed>
  <fix>3d</fix>
</trkpt>
<trkpt lat="40.072842" lon="-105.230575">
  <ele>1586.09</ele>
  <time>2026-08-27T18:25:17Z</time>
  <course>266.03</course>
  <speed>0.0</speed>
  <fix>3d</fix>
</trkpt>
<trkpt lat="40.072842" lon="-105.230575">
  <ele>1586.09</ele>
  <time>2026-08-27T18:25:17Z</time>
  <course>11.51</course>
  <speed>0.044721359549995794</speed>
  <fix>3d</fix>
</trkpt>
<trkpt lat="40.072842" lon="-105.230575">
  <ele>1586.09</ele>
  <time>2026-08-27T18:25:17Z</time>
  <course>266.03</course>
  <speed>0.0</speed>
  <fix>3d</fix>
</trkpt>
<trkpt lat="39.654938" lon="-104.1331666">
  <ele>1569.54</ele>
  <time>2026-08-27T18:25:18Z</time>
  <course>168.11</course>
  <speed>0.0</speed>
  <fix>3d</fix>
</trkpt>
<trkpt lat="40.072842" lon="-105.230575">
  <ele>1586.09</ele>
  <time>2026-08-27T18:25:18Z</time>
  <course>2.03</course>
  <speed>0.0</speed>
  <fix>3d</fix>
</trkpt>
<trkpt lat="40.072842" lon="-105.230575">
  <ele>1586.09</ele>
  <time>2026-08-27T18:25:18Z</time>
  <course>238.4</course>
  <speed>0.0</speed>
  <fix>3d</fix>
</trkpt>
<trkpt lat="40.072842" lon="-105.230575">
  <ele>1586.09</ele>
  <time>2026-08-27T18:25:18Z</time>
  <course>2.43</course>
  <speed>0.0</speed>
  <fix>3d</fix>
</trkpt>
<trkpt lat="40.072842" lon="-105.230575">
  <ele>1586.09</ele>
  <time>2026-08-27T18:25:18Z</time>
  <course>194.29</course>
  <speed>0.0</speed>
  <fix>3d</fix>
</trkpt>
<trkpt lat="40.072842" lon="-105.230575">
  <ele>1586.09</ele>
  <time>2026-08-27T18:25:18Z</time>
  <course>3.17</course>
  <speed>0.0</speed>
  <fix>3d</fix>
</trkpt>
<trkpt lat="40.072842" lon="-105.230575">
  <ele>1586.09</ele>
  <time>2026-08-27T18:25:18Z</time>
  <course>193.66</course>
  <speed>0.0</speed>
  <fix>3d</fix>
</trkpt>
<trkpt lat="40.072842" lon="-105.230575">
  <ele>1586.09</ele>
  <time>2026-08-27T18:25:18Z</time>
  <course>3.85</course>
  <speed>0.0</speed>
  <fix>3d</fix>
</trkpt>
<trkpt lat="40.072842" lon="-105.230575">
  <ele>1586.09</ele>
  <time>2026-08-27T18:25:18Z</time>
  <course>303.54</course>
  <speed>0.0</speed>
  <fix>3d</fix>
</trkpt>
<trkpt lat="40.072842" lon="-105.230575">
  <ele>1586.09</ele>
  <time>2026-08-27T18:25:18Z</time>
  <course>4.48</course>
  <speed>0.0</speed>
  <fix>3d</fix>
</trkpt>
<trkpt lat="40.072842" lon="-105.230575">
  <ele>1586.09</ele>
  <time>2026-08-27T18:25:18Z</time>
  <course>110.94</course>
  <speed>0.0</speed>
  <fix>3d</fix>
</trkpt>
<trkpt lat="40.072842" lon="-105.230575">
  <ele>1586.09</ele>
  <time>2026-08-27T18:25:18Z</time>
  <course>5.06</course>
  <speed>0.0</speed>
  <fix>3d</fix>
</trkpt>
<trkpt lat="40.072842" lon="-105.230575">
  <ele>1586.09</ele>
  <time>2026-08-27T18:25:18Z</time>
  <course>191.21</course>
  <speed>0.0</speed>
  <fix>3d</fix>
</trkpt>
<trkpt lat="40.072842" lon="-105.230575">
  <ele>1586.09</ele>
  <time>2026-08-27T18:25:18Z</time>
  <course>5.62</course>
  <speed>0.0</speed>
  <fix>3d</fix>
</trkpt>
<trkpt lat="40.072842" lon="-105.230575">
  <ele>1586.09</ele>
  <time>2026-08-27T18:25:18Z</time>
  <course>252.23</course>
  <speed>0.0</speed>
  <fix>3d</fix>
</trkpt>
<trkpt lat="40.072842" lon="-105.230575">
  <ele>1586.09</ele>
  <time>2026-08-27T18:25:18Z</time>
  <course>6.15</course>
  <speed>0.0</speed>
  <fix>3d</fix>
</trkpt>
<trkpt lat="40.072842" lon="-105.230575">
  <ele>1586.09</ele>
  <time>2026-08-27T18:25:18Z</time>
  <course>170.36</course>
  <speed>0.0</speed>
  <fix>3d</fix>
</trkpt>
<trkpt lat="40.072842" lon="-105.230575">
  <ele>1586.09</ele>
  <time>2026-08-27T18:25:18Z</time>
  <course>6.65</course>
  <speed>0.0</speed>
  <fix>3d</fix>
</trkpt>
<trkpt lat="40.072842" lon="-105.230575">
  <ele>1586.09</ele>
  <time>2026-08-27T18:25:18Z</time>
  <course>179.36</course>
  <speed>0.0</speed>
  <fix>3d</fix>
</trkpt>
<trkpt lat="40.072842" lon="-105.230575">
  <ele>1586.09</ele>
  <time>2026-08-27T18:25:18Z</time>
  <course>7.11</course>
  <speed>0.0</speed>
  <fix>3d</fix>
</trkpt>
<trkpt lat="40.072842" lon="-105.230575">
  <ele>1586.09</ele>
  <time>2026-08-27T18:25:18Z</time>
  <course>19.98</course>
  <speed>0.0</speed>
  <fix>3d</fix>
</trkpt>
<trkpt lat="40.072842" lon="-105.230575">
  <ele>1586.09</ele>
  <time>2026-08-27T18:25:18Z</time>
  <course>7.53</course>
  <speed>0.0</speed>
  <fix>3d</fix>
</trkpt>
<trkpt lat="40.072842" lon="-105.230575">
  <ele>1586.09</ele>
  <time>2026-08-27T18:25:18Z</time>
  <course>17.49</course>
  <speed>0.0</speed>
  <fix>3d</fix>
</trkpt>
<trkpt lat="40.072842" lon="-105.230575">
  <ele>1586.09</ele>
  <time>2026-08-27T18:25:18Z</time>
  <course>7.92</course>
  <speed>0.0</speed>
  <fix>3d</fix>
</trkpt>
<trkpt lat="40.072842" lon="-105.230575">
  <ele>1586.09</ele>
  <time>2026-08-27T18:25:18Z</time>
  <course>356.19</course>
  <speed>0.0</speed>
  <fix>3d</fix>
</trkpt>
<trkpt lat="40.072842" lon="-105.230575">
  <ele>1586.09</ele>
  <time>2026-08-27T18:25:18Z</time>
  <course>8.29</course>
  <speed>0.0</speed>
  <fix>3d</fix>
</trkpt>
<trkpt lat="40.072842" lon="-105.230575">
  <ele>1586.09</ele>
  <time>2026-08-27T18:25:18Z</time>
  <course>77.32</course>
  <speed>0.0</speed>
  <fix>3d</fix>
</trkpt>
<trkpt lat="40.072842" lon="-105.230575">
  <ele>1586.09</ele>
  <time>2026-08-27T18:25:18Z</time>
  <course>8.63</course>
  <speed>0.0</speed>
  <fix>3d</fix>
</trkpt>
<trkpt lat="40.072842" lon="-105.230575">
  <ele>1586.09</ele>
  <time>2026-08-27T18:25:18Z</time>
  <course>290.54</course>
  <speed>0.0</speed>
  <fix>3d</fix>
</trkpt>
<trkpt lat="40.072842" lon="-105.230575">
  <ele>1586.09</ele>
  <time>2026-08-27T18:25:18Z</time>
  <course>8.94</course>
  <speed>0.0</speed>
  <fix>3d</fix>
</trkpt>
<trkpt lat="40.072842" lon="-105.230575">
  <ele>1586.09</ele>
  <time>2026-08-27T18:25:18Z</time>
  <course>338.69</course>
  <speed>0.0</speed>
  <fix>3d</fix>
</trkpt>
<trkpt lat="40.072842" lon="-105.230575">
  <ele>1586.09</ele>
  <time>2026-08-27T18:25:18Z</time>
  <course>9.23</course>
  <speed>0.0</speed>
  <fix>3d</fix>
</trkpt>
<trkpt lat="40.072842" lon="-105.230575">
  <ele>1586.09</ele>
  <time>2026-08-27T18:25:18Z</time>
  <course>326.81</course>
  <speed>0.0</speed>
  <fix>3d</fix>
</trkpt>
<trkpt lat="40.072842" lon="-105.230575">
  <ele>1586.09</ele>
  <time>2026-08-27T18:25:18Z</time>
  <course>9.49</course>
  <speed>0.0</speed>
  <fix>3d</fix>
</trkpt>
<trkpt lat="40.072842" lon="-105.230575">
  <ele>1586.09</ele>
  <time>2026-08-27T18:25:18Z</time>
  <course>262.23</course>
  <speed>0.0</speed>
  <fix>3d</fix>
</trkpt>
<trkpt lat="40.072842" lon="-105.230575">
  <ele>1586.09</ele>
  <time>2026-08-27T18:25:18Z</time>
  <course>9.73</course>
  <speed>0.0</speed>
  <fix>3d</fix>
</trkpt>
<trkpt lat="40.072842" lon="-105.230575">
  <ele>1586.09</ele>
  <time>2026-08-27T18:25:18Z</time>
  <course>159.08</course>
  <speed>0.0</speed>
  <fix>3d</fix>
</trkpt>
<trkpt lat="40.072842" lon="-105.230575">
  <ele>1586.09</ele>
  <time>2026-08-27T18:25:18Z</time>
  <course>9.96</course>
  <speed>0.0</speed>
  <fix>3d</fix>
</trkpt>
<trkpt lat="40.072842" lon="-105.230575">
  <ele>1586.09</ele>
  <time>2026-08-27T18:25:18Z</time>
  <course>287.98</course>
  <speed>0.0</speed>
  <fix>3d</fix>
</trkpt>
<trkpt lat="40.072842" lon="-105.230575">
  <ele>1586.09</ele>
  <time>2026-08-27T18:25:18Z</time>
  <course>10.16</course>
  <speed>0.0</speed>
  <fix>3d</fix>
</trkpt>
<trkpt lat="40.072842" lon="-105.230575">
  <ele>1586.09</ele>
  <time>2026-08-27T18:25:18Z</time>
  <course>278.3</course>
  <speed>0.0</speed>
  <fix>3d</fix>
</trkpt>
<trkpt lat="40.072842" lon="-105.230575">
  <ele>1586.09</ele>
  <time>2026-08-27T18:25:18Z</time>
  <course>10.35</course>
  <speed>0.0</speed>
  <fix>3d</fix>
</trkpt>
<trkpt lat="40.072842" lon="-105.230575">
  <ele>1586.09</ele>
  <time>2026-08-27T18:25:18Z</time>
  <course>261.72</course>
  <speed>0.0</speed>
  <fix>3d</fix>
</trkpt>
<trkpt lat="40.072842" lon="-105.230575">
  <ele>1586.09</ele>
  <time>2026-08-27T18:25:18Z</time>
  <course>10.52</course>
  <speed>0.0</speed>
  <fix>3d</fix>
</trkpt>
<trkpt lat="40.072842" lon="-105.230575">
  <ele>1586.09</ele>
  <time>2026-08-27T18:25:18Z</time>
  <course>264.4</course>
  <speed>0.0</speed>
  <fix>3d</fix>
</trkpt>
<trkpt lat="40.072842" lon="-105.230575">
  <ele>1586.09</ele>
  <time>2026-08-27T18:25:18Z</time>
  <course>10.67</course>
  <speed>0.0</speed>
  <fix>3d</fix>
</trkpt>
<trkpt lat="40.072842" lon="-105.230575">
  <ele>1586.09</ele>
  <time>2026-08-27T18:25:18Z</time>
  <course>266.8</course>
  <speed>0.0</speed>
  <fix>3d</fix>
</trkpt>
<trkpt lat="40.072842" lon="-105.230575">
  <ele>1586.09</ele>
  <time>2026-08-27T18:25:18Z</time>
  <course>10.82</course>
  <speed>0.0</speed>
  <fix>3d</fix>
</trkpt>
<trkpt lat="40.072842" lon="-105.230575">
  <ele>1586.09</ele>
  <time>2026-08-27T18:25:18Z</time>
  <course>266.15</course>
  <speed>0.0</speed>
  <fix>3d</fix>
</trkpt>
<trkpt lat="40.072842" lon="-105.230575">
  <ele>1586.09</ele>
  <time>2026-08-27T18:25:18Z</time>
  <course>10.95</course>
  <speed>0.0</speed>
  <fix>3d</fix>
</trkpt>
<trkpt lat="40.072842" lon="-105.230575">
  <ele>1586.09</ele>
  <time>2026-08-27T18:25:18Z</time>
  <course>265.92</course>
  <speed>0.0</speed>
  <fix>3d</fix>
</trkpt>
<trkpt lat="40.072842" lon="-105.230575">
  <ele>1586.09</ele>
  <time>2026-08-27T18:25:18Z</time>
  <course>11.07</course>
  <speed>0.0</speed>
  <fix>3d</fix>
</trkpt>
<trkpt lat="40.072842" lon="-105.230575">
  <ele>1586.09</ele>
  <time>2026-08-27T18:25:18Z</time>
  <course>266.03</course>
  <speed>0.0</speed>
  <fix>3d</fix>
</trkpt>
<trkpt lat="40.072842" lon="-105.230575">
  <ele>1586.09</ele>
  <time>2026-08-27T18:25:18Z</time>
  <course>11.18</course>
  <speed>0.0</speed>
  <fix>3d</fix>
</trkpt>
<trkpt lat="40.072842" lon="-105.230575">
  <ele>1586.09</ele>
  <time>2026-08-27T18:25:18Z</time>
  <course>266.05</course>
  <speed>0.0</speed>
  <fix>3d</fix>
</trkpt>
<trkpt lat="40.072842" lon="-105.230575">
  <ele>1586.09</ele>
  <time>2026-08-27T18:25:18Z</time>
  <course>11.28</course>
  <speed>0.0</speed>
  <fix>3d</fix>
</trkpt>
<trkpt lat="40.072842" lon="-105.230575">
  <ele>1586.09</ele>
  <time>2026-08-27T18:25:18Z</time>
  <course>266.03</course>
  <speed>0.0</speed>
  <fix>3d</fix>
</trkpt>
<trkpt lat="40.072842" lon="-105.230575">
  <ele>1586.09</ele>
  <time>2026-08-27T18:25:18Z</time>
  <course>11.37</course>
  <speed>0.0</speed>
  <fix>3d</fix>
</trkpt>
<trkpt lat="40.072842" lon="-105.230575">
  <ele>1586.09</ele>
  <time>2026-08-27T18:25:18Z</time>
  <course>266.03</course>
  <speed>0.0</speed>
  <fix>3d</fix>
</trkpt>
<trkpt lat="40.072842" lon="-105.230575">
  <ele>1586.09</ele>
  <time>2026-08-27T18:25:18Z</time>
  <course>11.45</course>
  <speed>0.0</speed>
  <fix>3d</fix>
</trkpt>
<trkpt lat="40.072842" lon="-105.230575">
  <ele>1586.09</ele>
  <time>2026-08-27T18:25:18Z</time>
  <course>266.03</course>
  <speed>0.0</speed>
  <fix>3d</fix>
</trkpt>
<trkpt lat="40.072842" lon="-105.230575">
  <ele>1586.09</ele>
  <time>2026-08-27T18:25:18Z</time>
  <course>11.53</course>
  <speed>0.0</speed>
  <fix>3d</fix>
</trkpt>
<trkpt lat="40.072842" lon="-105.230575">
  <ele>1586.09</ele>
  <time>2026-08-27T18:25:18Z</time>
  <course>266.03</course>
  <speed>0.0</speed>
  <fix>3d</fix>
</trkpt>
<trkpt lat="40.072842" lon="-105.230575">
  <ele>1586.09</ele>
  <time>2026-08-27T18:25:18Z</time>
  <course>11.6</course>
  <speed>0.0</speed>
  <fix>3d</fix>
</trkpt>
<trkpt lat="40.072842" lon="-105.230575">
  <ele>1586.09</ele>
  <time>2026-08-27T18:25:18Z</time>
  <course>266.03</course>
  <speed>0.0</speed>
  <fix>3d</fix>
</trkpt>
<trkpt lat="40.072842" lon="-105.230575">
  <ele>1586.09</ele>
  <time>2026-08-27T18:25:18Z</time>
  <course>11.66</course>
  <speed>0.0</speed>
  <fix>3d</fix>
</trkpt>
<trkpt lat="40.072842" lon="-105.230575">
  <ele>1586.09</ele>
  <time>2026-08-27T18:25:18Z</time>
  <course>266.03</course>
  <speed>0.0</speed>
  <fix>3d</fix>
</trkpt>
<trkpt lat="40.072842" lon="-105.230575">
  <ele>1586.09</ele>
  <time>2026-08-27T18:25:18Z</time>
  <course>11.71</course>
  <speed>0.0</speed>
  <fix>3d</fix>
</trkpt>
<trkpt lat="40.072842" lon="-105.230575">
  <ele>1586.09</ele>
  <time>2026-08-27T18:25:18Z</time>
  <course>266.03</course>
  <speed>0.0</speed>
  <fix>3d</fix>
</trkpt>
<trkpt lat="40.072842" lon="-105.230575">
  <ele>1586.09</ele>
  <time>2026-08-27T18:25:18Z</time>
  <course>11.76</course>
  <speed>0.0</speed>
  <fix>3d</fix>
</trkpt>
<trkpt lat="40.072842" lon="-105.230575">
  <ele>1586.09</ele>
  <time>2026-08-27T18:25:18Z</time>
  <course>266.03</course>
  <speed>0.0</speed>
  <fix>3d</fix>
</trkpt>
<trkpt lat="40.072842" lon="-105.230575">
  <ele>1586.09</ele>
  <time>2026-08-27T18:25:18Z</time>
  <course>11.81</course>
  <speed>0.0</speed>
  <fix>3d</fix>
</trkpt>
<trkpt lat="40.072842" lon="-105.230575">
  <ele>1586.09</ele>
  <time>2026-08-27T18:25:18Z</time>
  <course>266.03</course>
  <speed>0.0</speed>
  <fix>3d</fix>
</trkpt>
<trkpt lat="40.072842" lon="-105.230575">
  <ele>1586.09</ele>
  <time>2026-08-27T18:25:18Z</time>
  <course>11.85</course>
  <speed>0.0</speed>
  <fix>3d</fix>
</trkpt>
<trkpt lat="40.072842" lon="-105.230575">
  <ele>1586.09</ele>
  <time>2026-08-27T18:25:18Z</time>
  <course>266.03</course>
  <speed>0.0</speed>
  <fix>3d</fix>
</trkpt>
<trkpt lat="40.072842" lon="-105.230575">
  <ele>1586.09</ele>
  <time>2026-08-27T18:25:18Z</time>
  <course>11.89</course>
  <speed>0.0</speed>
  <fix>3d</fix>
</trkpt>
<trkpt lat="40.072842" lon="-105.230575">
  <ele>1586.09</ele>
  <time>2026-08-27T18:25:18Z</time>
  <course>266.03</course>
  <speed>0.0</speed>
  <fix>3d</fix>
</trkpt>
<trkpt lat="40.072842" lon="-105.230575">
  <ele>1586.09</ele>
  <time>2026-08-27T18:25:18Z</time>
  <course>11.92</course>
  <speed>0.0</speed>
  <fix>3d</fix>
</trkpt>
<trkpt lat="40.072842" lon="-105.230575">
  <ele>1586.09</ele>
  <time>2026-08-27T18:25:18Z</time>
  <course>266.03</course>
  <speed>0.0</speed>
  <fix>3d</fix>
</trkpt>
<trkpt lat="40.072842" lon="-105.230575">
  <ele>1586.09</ele>
  <time>2026-08-27T18:25:18Z</time>
  <course>11.95</course>
  <speed>0.0</speed>
  <fix>3d</fix>
</trkpt>
<trkpt lat="40.072842" lon="-105.230575">
  <ele>1586.09</ele>
  <time>2026-08-27T18:25:18Z</time>
  <course>266.03</course>
  <speed>0.0</speed>
  <fix>3d</fix>
</trkpt>
<trkpt lat="40.072842" lon="-105.230575">
  <ele>1586.09</ele>
  <time>2026-08-27T18:25:18Z</time>
  <course>11.97</course>
  <speed>0.0</speed>
  <fix>3d</fix>
</trkpt>
<trkpt lat="40.072842" lon="-105.230575">
  <ele>1586.09</ele>
  <time>2026-08-27T18:25:18Z</time>
  <course>266.03</course>
  <speed>0.0</speed>
  <fix>3d</fix>
</trkpt>
<trkpt lat="40.072842" lon="-105.230575">
  <ele>1586.09</ele>
  <time>2026-08-27T18:25:18Z</time>
  <course>12.0</course>
  <speed>0.0</speed>
  <fix>3d</fix>
</trkpt>
<trkpt lat="40.072842" lon="-105.230575">
  <ele>1586.09</ele>
  <time>2026-08-27T18:25:18Z</time>
  <course>266.03</course>
  <speed>0.0</speed>
  <fix>3d</fix>
</trkpt>
<trkpt lat="40.072842" lon="-105.230575">
  <ele>1586.09</ele>
  <time>2026-08-27T18:25:18Z</time>
  <course>12.02</course>
  <speed>0.0</speed>
  <fix>3d</fix>
</trkpt>
<trkpt lat="40.072842" lon="-105.230575">
  <ele>1586.09</ele>
  <time>2026-08-27T18:25:18Z</time>
  <course>266.03</course>
  <speed>0.0</speed>
  <fix>3d</fix>
</trkpt>
<trkpt lat="40.072842" lon="-105.230575">
  <ele>1586.09</ele>
  <time>2026-08-27T18:25:18Z</time>
  <course>12.04</course>
  <speed>0.0</speed>
  <fix>3d</fix>
</trkpt>
<trkpt lat="40.072842" lon="-105.230575">
  <ele>1586.09</ele>
  <time>2026-08-27T18:25:18Z</time>
  <course>266.03</course>
  <speed>0.0</speed>
  <fix>3d</fix>
</trkpt>
<trkpt lat="40.072842" lon="-105.230575">
  <ele>1586.09</ele>
  <time>2026-08-27T18:25:18Z</time>
  <course>12.05</course>
  <speed>0.0</speed>
  <fix>3d</fix>
</trkpt>
<trkpt lat="40.072842" lon="-105.230575">
  <ele>1586.09</ele>
  <time>2026-08-27T18:25:18Z</time>
  <course>266.03</course>
  <speed>0.0</speed>
  <fix>3d</fix>
</trkpt>
<trkpt lat="40.072842" lon="-105.230575">
  <ele>1586.09</ele>
  <time>2026-08-27T18:25:18Z</time>
  <course>12.07</course>
  <speed>0.0</speed>
  <fix>3d</fix>
</trkpt>
<trkpt lat="40.072842" lon="-105.230575">
  <ele>1586.09</ele>
  <time>2026-08-27T18:25:18Z</time>
  <course>266.03</course>
  <speed>0.0</speed>
  <fix>3d</fix>
</trkpt>
<trkpt lat="40.072842" lon="-105.230575">
  <ele>1586.09</ele>
  <time>2026-08-27T18:25:18Z</time>
  <course>12.08</course>
  <speed>0.0</speed>
  <fix>3d</fix>
</trkpt>
<trkpt lat="40.072842" lon="-105.230575">
  <ele>1586.09</ele>
  <time>2026-08-27T18:25:18Z</time>
  <course>266.03</course>
  <speed>0.0</speed>
  <fix>3d</fix>
</trkpt>
<trkpt lat="40.072842" lon="-105.230575">
  <ele>1586.09</ele>
  <time>2026-08-27T18:25:18Z</time>
  <course>12.09</course>
  <speed>0.0</speed>
  <fix>3d</fix>
</trkpt>
<trkpt lat="40.072842" lon="-105.230575">
  <ele>1586.09</ele>
  <time>2026-08-27T18:25:18Z</time>
  <course>266.03</course>
  <speed>0.0</speed>
  <fix>3d</fix>
</trkpt>
<trkpt lat="40.072842" lon="-105.230575">
  <ele>1586.09</ele>
  <time>2026-08-27T18:25:18Z</time>
  <course>12.1</course>
  <speed>0.0</speed>
  <fix>3d</fix>
</trkpt>
<trkpt lat="40.072842" lon="-105.230575">
  <ele>1586.09</ele>
  <time>2026-08-27T18:25:18Z</time>
  <course>266.03</course>
  <speed>0.0</speed>
  <fix>3d</fix>
</trkpt>
<trkpt lat="40.072842" lon="-105.230575">
  <ele>1586.09</ele>
  <time>2026-08-27T18:25:18Z</time>
  <course>12.1</course>
  <speed>0.0</speed>
  <fix>3d</fix>
</trkpt>
<trkpt lat="40.072842" lon="-105.230575">
  <ele>1586.09</ele>
  <time>2026-08-27T18:25:18Z</time>
  <course>266.03</course>
  <speed>0.0</speed>
  <fix>3d</fix>
</trkpt>
<trkpt lat="40.072842" lon="-105.230575">
  <ele>1586.09</ele>
  <time>2026-08-27T18:25:18Z</time>
  <course>12.11</course>
  <speed>0.0</speed>
  <fix>3d</fix>
</trkpt>
<trkpt lat="40.072842" lon="-105.230575">
  <ele>1586.09</ele>
  <time>2026-08-27T18:25:18Z</time>
  <course>266.03</course>
  <speed>0.0</speed>
  <fix>3d</fix>
</trkpt>
<trkpt lat="40.072842" lon="-105.230575">
  <ele>1586.09</ele>
  <time>2026-08-27T18:25:18Z</time>
  <course>12.12</course>
  <speed>0.0</speed>
  <fix>3d</fix>
</trkpt>
<trkpt lat="40.072842" lon="-105.230575">
  <ele>1586.09</ele>
  <time>2026-08-27T18:25:18Z</time>
  <course>266.03</course>
  <speed>0.0</speed>
  <fix>3d</fix>
</trkpt>
<trkpt lat="40.072842" lon="-105.230575">
  <ele>1586.09</ele>
  <time>2026-08-27T18:25:18Z</time>
  <course>12.12</course>
  <speed>0.0</speed>
  <fix>3d</fix>
</trkpt>
<trkpt lat="40.072842" lon="-105.230575">
  <ele>1586.09</ele>
  <time>2026-08-27T18:25:18Z</time>
  <course>266.03</course>
  <speed>0.0</speed>
  <fix>3d</fix>
</trkpt>
<trkpt lat="40.072842" lon="-105.230575">
  <ele>1586.09</ele>
  <time>2026-08-27T18:25:18Z</time>
  <course>12.12</course>
  <speed>0.0</speed>
  <fix>3d</fix>
</trkpt>
<trkpt lat="40.072842" lon="-105.230575">
  <ele>1586.09</ele>
  <time>2026-08-27T18:25:18Z</time>
  <course>266.03</course>
  <speed>0.0</speed>
  <fix>3d</fix>
</trkpt>
<trkpt lat="40.072842" lon="-105.230575">
  <ele>1586.09</ele>
  <time>2026-08-27T18:25:18Z</time>
  <course>12.13</course>
  <speed>0.0</speed>
  <fix>3d</fix>
</trkpt>
<trkpt lat="40.072842" lon="-105.230575">
  <ele>1586.09</ele>
  <time>2026-08-27T18:25:18Z</time>
  <course>266.03</course>
  <speed>0.0</speed>
  <fix>3d</fix>
</trkpt>
<trkpt lat="40.072842" lon="-105.230575">
  <ele>1586.09</ele>
  <time>2026-08-27T18:25:18Z</time>
  <course>12.13</course>
  <speed>0.0</speed>
  <fix>3d</fix>
</trkpt>
<trkpt lat="40.072842" lon="-105.230575">
  <ele>1586.09</ele>
  <time>2026-08-27T18:25:18Z</time>
  <course>266.03</course>
  <speed>0.0</speed>
  <fix>3d</fix>
</trkpt>
<trkpt lat="40.072842" lon="-105.230575">
  <ele>1586.09</ele>
  <time>2026-08-27T18:25:18Z</time>
  <course>12.13</course>
  <speed>0.0</speed>
  <fix>3d</fix>
</trkpt>
<trkpt lat="40.072842" lon="-105.230575">
  <ele>1586.09</ele>
  <time>2026-08-27T18:25:18Z</time>
  <course>266.03</course>
  <speed>0.0</speed>
  <fix>3d</fix>
</trkpt>
<trkpt lat="40.072842" lon="-105.230575">
  <ele>1586.09</ele>
  <time>2026-08-27T18:25:18Z</time>
  <course>12.12</course>
  <speed>0.01</speed>
  <fix>3d</fix>
</trkpt>
<trkpt lat="40.072842" lon="-105.230575">
  <ele>1586.09</ele>
  <time>2026-08-27T18:25:18Z</time>
  <course>266.03</course>
  <speed>0.0</speed>
  <fix>3d</fix>
</trkpt>
<trkpt lat="40.072842" lon="-105.230575">
  <ele>1586.09</ele>
  <time>2026-08-27T18:25:18Z</time>
  <course>12.12</course>
  <speed>0.01</speed>
  <fix>3d</fix>
</trkpt>
<trkpt lat="40.072842" lon="-105.230575">
  <ele>1586.09</ele>
  <time>2026-08-27T18:25:18Z</time>
  <course>266.03</course>
  <speed>0.0</speed>
  <fix>3d</fix>
</trkpt>
<trkpt lat="40.072842" lon="-105.230575">
  <ele>1586.09</ele>
  <time>2026-08-27T18:25:18Z</time>
  <course>12.12</course>
  <speed>0.01</speed>
  <fix>3d</fix>
</trkpt>
<trkpt lat="40.072842" lon="-105.230575">
  <ele>1586.09</ele>
  <time>2026-08-27T18:25:18Z</time>
  <course>266.03</course>
  <speed>0.0</speed>
  <fix>3d</fix>
</trkpt>
<trkpt lat="40.072842" lon="-105.230575">
  <ele>1586.09</ele>
  <time>2026-08-27T18:25:18Z</time>
  <course>12.12</course>
  <speed>0.01</speed>
  <fix>3d</fix>
</trkpt>
<trkpt lat="40.072842" lon="-105.230575">
  <ele>1586.09</ele>
  <time>2026-08-27T18:25:18Z</time>
  <course>266.03</course>
  <speed>0.0</speed>
  <fix>3d</fix>
</trkpt>
<trkpt lat="40.072842" lon="-105.230575">
  <ele>1586.09</ele>
  <time>2026-08-27T18:25:18Z</time>
  <course>12.11</course>
  <speed>0.01</speed>
  <fix>3d</fix>
</trkpt>
<trkpt lat="40.072842" lon="-105.230575">
  <ele>1586.09</ele>
  <time>2026-08-27T18:25:18Z</time>
  <course>266.03</course>
  <speed>0.0</speed>
  <fix>3d</fix>
</trkpt>
<trkpt lat="40.072842" lon="-105.230575">
  <ele>1586.09</ele>
  <time>2026-08-27T18:25:18Z</time>
  <course>12.11</course>
  <speed>0.01</speed>
  <fix>3d</fix>
</trkpt>
<trkpt lat="40.072842" lon="-105.230575">
  <ele>1586.09</ele>
  <time>2026-08-27T18:25:18Z</time>
  <course>266.03</course>
  <speed>0.0</speed>
  <fix>3d</fix>
</trkpt>
<trkpt lat="40.072842" lon="-105.230575">
  <ele>1586.09</ele>
  <time>2026-08-27T18:25:18Z</time>
  <course>12.1</course>
  <speed>0.01</speed>
  <fix>3d</fix>
</trkpt>
<trkpt lat="40.072842" lon="-105.230575">
  <ele>1586.09</ele>
  <time>2026-08-27T18:25:18Z</time>
  <course>266.03</course>
  <speed>0.0</speed>
  <fix>3d</fix>
</trkpt>
<trkpt lat="40.072842" lon="-105.230575">
  <ele>1586.09</ele>
  <time>2026-08-27T18:25:18Z</time>
  <course>12.1</course>
  <speed>0.01</speed>
  <fix>3d</fix>
</trkpt>
<trkpt lat="40.072842" lon="-105.230575">
  <ele>1586.09</ele>
  <time>2026-08-27T18:25:18Z</time>
  <course>266.03</course>
  <speed>0.0</speed>
  <fix>3d</fix>
</trkpt>
<trkpt lat="40.072842" lon="-105.230575">
  <ele>1586.09</ele>
  <time>2026-08-27T18:25:18Z</time>
  <course>12.09</course>
  <speed>0.01</speed>
  <fix>3d</fix>
</trkpt>
<trkpt lat="40.072842" lon="-105.230575">
  <ele>1586.09</ele>
  <time>2026-08-27T18:25:18Z</time>
  <course>266.03</course>
  <speed>0.0</speed>
  <fix>3d</fix>
</trkpt>
<trkpt lat="40.072842" lon="-105.230575">
  <ele>1586.09</ele>
  <time>2026-08-27T18:25:18Z</time>
  <course>12.09</course>
  <speed>0.01</speed>
  <fix>3d</fix>
</trkpt>
<trkpt lat="40.072842" lon="-105.230575">
  <ele>1586.09</ele>
  <time>2026-08-27T18:25:18Z</time>
  <course>266.03</course>
  <speed>0.0</speed>
  <fix>3d</fix>
</trkpt>
<trkpt lat="40.072842" lon="-105.230575">
  <ele>1586.09</ele>
  <time>2026-08-27T18:25:18Z</time>
  <course>12.08</course>
  <speed>0.01</speed>
  <fix>3d</fix>
</trkpt>
<trkpt lat="40.072842" lon="-105.230575">
  <ele>1586.09</ele>
  <time>2026-08-27T18:25:18Z</time>
  <course>266.03</course>
  <speed>0.0</speed>
  <fix>3d</fix>
</trkpt>
<trkpt lat="40.072842" lon="-105.230575">
  <ele>1586.09</ele>
  <time>2026-08-27T18:25:18Z</time>
  <course>12.08</course>
  <speed>0.01414213562373095</speed>
  <fix>3d</fix>
</trkpt>
<trkpt lat="40.072842" lon="-105.230575">
  <ele>1586.09</ele>
  <time>2026-08-27T18:25:18Z</time>
  <course>266.03</course>
  <speed>0.0</speed>
  <fix>3d</fix>
</trkpt>
<trkpt lat="40.072842" lon="-105.230575">
  <ele>1586.09</ele>
  <time>2026-08-27T18:25:18Z</time>
  <course>12.07</course>
  <speed>0.01414213562373095</speed>
  <fix>3d</fix>
</trkpt>
<trkpt lat="40.072842" lon="-105.230575">
  <ele>1586.09</ele>
  <time>2026-08-27T18:25:18Z</time>
  <course>266.03</course>
  <speed>0.0</speed>
  <fix>3d</fix>
</trkpt>
<trkpt lat="40.072842" lon="-105.230575">
  <ele>1586.09</ele>
  <time>2026-08-27T18:25:18Z</time>
  <course>12.06</course>
  <speed>0.01414213562373095</speed>
  <fix>3d</fix>
</trkpt>
<trkpt lat="40.072842" lon="-105.230575">
  <ele>1586.09</ele>
  <time>2026-08-27T18:25:18Z</time>
  <course>266.03</course>
  <speed>0.0</speed>
  <fix>3d</fix>
</trkpt>
<trkpt lat="40.072842" lon="-105.230575">
  <ele>1586.09</ele>
  <time>2026-08-27T18:25:18Z</time>
  <course>12.05</course>
  <speed>0.01414213562373095</speed>
  <fix>3d</fix>
</trkpt>
<trkpt lat="40.072842" lon="-105.230575">
  <ele>1586.09</ele>
  <time>2026-08-27T18:25:18Z</time>
  <course>266.03</course>
  <speed>0.0</speed>
  <fix>3d</fix>
</trkpt>
<trkpt lat="40.072842" lon="-105.230575">
  <ele>1586.09</ele>
  <time>2026-08-27T18:25:18Z</time>
  <course>12.05</course>
  <speed>0.01414213562373095</speed>
  <fix>3d</fix>
</trkpt>
<trkpt lat="40.072842" lon="-105.230575">
  <ele>1586.09</ele>
  <time>2026-08-27T18:25:18Z</time>
  <course>266.03</course>
  <speed>0.0</speed>
  <fix>3d</fix>
</trkpt>
<trkpt lat="40.072842" lon="-105.230575">
  <ele>1586.09</ele>
  <time>2026-08-27T18:25:18Z</time>
  <course>12.04</course>
  <speed>0.01414213562373095</speed>
  <fix>3d</fix>
</trkpt>
<trkpt lat="40.072842" lon="-105.230575">
  <ele>1586.09</ele>
  <time>2026-08-27T18:25:18Z</time>
  <course>266.03</course>
  <speed>0.0</speed>
  <fix>3d</fix>
</trkpt>
<trkpt lat="40.072842" lon="-105.230575">
  <ele>1586.09</ele>
  <time>2026-08-27T18:25:18Z</time>
  <course>12.03</course>
  <speed>0.01414213562373095</speed>
  <fix>3d</fix>
</trkpt>
<trkpt lat="40.072842" lon="-105.230575">
  <ele>1586.09</ele>
  <time>2026-08-27T18:25:18Z</time>
  <course>266.03</course>
  <speed>0.0</speed>
  <fix>3d</fix>
</trkpt>
<trkpt lat="40.072842" lon="-105.230575">
  <ele>1586.09</ele>
  <time>2026-08-27T18:25:18Z</time>
  <course>12.03</course>
  <speed>0.01414213562373095</speed>
  <fix>3d</fix>
</trkpt>
<trkpt lat="40.072842" lon="-105.230575">
  <ele>1586.09</ele>
  <time>2026-08-27T18:25:18Z</time>
  <course>266.03</course>
  <speed>0.0</speed>
  <fix>3d</fix>
</trkpt>
<trkpt lat="40.072842" lon="-105.230575">
  <ele>1586.09</ele>
  <time>2026-08-27T18:25:18Z</time>
  <course>12.02</course>
  <speed>0.01414213562373095</speed>
  <fix>3d</fix>
</trkpt>
<trkpt lat="40.072842" lon="-105.230575">
  <ele>1586.09</ele>
  <time>2026-08-27T18:25:18Z</time>
  <course>266.03</course>
  <speed>0.0</speed>
  <fix>3d</fix>
</trkpt>
<trkpt lat="40.072842" lon="-105.230575">
  <ele>1586.09</ele>
  <time>2026-08-27T18:25:18Z</time>
  <course>12.01</course>
  <speed>0.01414213562373095</speed>
  <fix>3d</fix>
</trkpt>
<trkpt lat="40.072842" lon="-105.230575">
  <ele>1586.09</ele>
  <time>2026-08-27T18:25:18Z</time>
  <course>266.03</course>
  <speed>0.0</speed>
  <fix>3d</fix>
</trkpt>
<trkpt lat="40.072842" lon="-105.230575">
  <ele>1586.09</ele>
  <time>2026-08-27T18:25:18Z</time>
  <course>12.01</course>
  <speed>0.01414213562373095</speed>
  <fix>3d</fix>
</trkpt>
<trkpt lat="40.072842" lon="-105.230575">
  <ele>1586.09</ele>
  <time>2026-08-27T18:25:18Z</time>
  <course>266.03</course>
  <speed>0.0</speed>
  <fix>3d</fix>
</trkpt>
<trkpt lat="40.072842" lon="-105.230575">
  <ele>1586.09</ele>
  <time>2026-08-27T18:25:18Z</time>
  <course>12.0</course>
  <speed>0.01414213562373095</speed>
  <fix>3d</fix>
</trkpt>
<trkpt lat="40.072842" lon="-105.230575">
  <ele>1586.09</ele>
  <time>2026-08-27T18:25:18Z</time>
  <course>266.03</course>
  <speed>0.0</speed>
  <fix>3d</fix>
</trkpt>
<trkpt lat="40.072842" lon="-105.230575">
  <ele>1586.09</ele>
  <time>2026-08-27T18:25:18Z</time>
  <course>11.99</course>
  <speed>0.01414213562373095</speed>
  <fix>3d</fix>
</trkpt>
<trkpt lat="40.072842" lon="-105.230575">
  <ele>1586.09</ele>
  <time>2026-08-27T18:25:18Z</time>
  <course>266.03</course>
  <speed>0.0</speed>
  <fix>3d</fix>
</trkpt>
<trkpt lat="40.072842" lon="-105.230575">
  <ele>1586.09</ele>
  <time>2026-08-27T18:25:18Z</time>
  <course>11.98</course>
  <speed>0.01414213562373095</speed>
  <fix>3d</fix>
</trkpt>
<trkpt lat="40.072842" lon="-105.230575">
  <ele>1586.09</ele>
  <time>2026-08-27T18:25:18Z</time>
  <course>266.03</course>
  <speed>0.0</speed>
  <fix>3d</fix>
</trkpt>
<trkpt lat="40.072842" lon="-105.230575">
  <ele>1586.09</ele>
  <time>2026-08-27T18:25:18Z</time>
  <course>11.98</course>
  <speed>0.01414213562373095</speed>
  <fix>3d</fix>
</trkpt>
<trkpt lat="40.072842" lon="-105.230575">
  <ele>1586.09</ele>
  <time>2026-08-27T18:25:18Z</time>
  <course>266.03</course>
  <speed>0.0</speed>
  <fix>3d</fix>
</trkpt>
<trkpt lat="40.072842" lon="-105.230575">
  <ele>1586.09</ele>
  <time>2026-08-27T18:25:18Z</time>
  <course>11.97</course>
  <speed>0.022360679774997897</speed>
  <fix>3d</fix>
</trkpt>
<trkpt lat="40.072842" lon="-105.230575">
  <ele>1586.09</ele>
  <time>2026-08-27T18:25:18Z</time>
  <course>266.03</course>
  <speed>0.0</speed>
  <fix>3d</fix>
</trkpt>
<trkpt lat="40.072842" lon="-105.230575">
  <ele>1586.09</ele>
  <time>2026-08-27T18:25:18Z</time>
  <course>11.96</course>
  <speed>0.022360679774997897</speed>
  <fix>3d</fix>
</trkpt>
<trkpt lat="40.072842" lon="-105.230575">
  <ele>1586.09</ele>
  <time>2026-08-27T18:25:18Z</time>
  <course>266.03</course>
  <speed>0.0</speed>
  <fix>3d</fix>
</trkpt>
<trkpt lat="40.072842" lon="-105.230575">
  <ele>1586.09</ele>
  <time>2026-08-27T18:25:18Z</time>
  <course>11.95</course>
  <speed>0.022360679774997897</speed>
  <fix>3d</fix>
</trkpt>
<trkpt lat="40.072842" lon="-105.230575">
  <ele>1586.09</ele>
  <time>2026-08-27T18:25:18Z</time>
  <course>266.03</course>
  <speed>0.0</speed>
  <fix>3d</fix>
</trkpt>
<trkpt lat="40.072842" lon="-105.230575">
  <ele>1586.09</ele>
  <time>2026-08-27T18:25:18Z</time>
  <course>11.94</course>
  <speed>0.022360679774997897</speed>
  <fix>3d</fix>
</trkpt>
<trkpt lat="40.072842" lon="-105.230575">
  <ele>1586.09</ele>
  <time>2026-08-27T18:25:18Z</time>
  <course>266.03</course>
  <speed>0.0</speed>
  <fix>3d</fix>
</trkpt>
<trkpt lat="40.072842" lon="-105.230575">
  <ele>1586.09</ele>
  <time>2026-08-27T18:25:18Z</time>
  <course>11.93</course>
  <speed>0.022360679774997897</speed>
  <fix>3d</fix>
</trkpt>
<trkpt lat="40.072842" lon="-105.230575">
  <ele>1586.09</ele>
  <time>2026-08-27T18:25:18Z</time>
  <course>266.03</course>
  <speed>0.0</speed>
  <fix>3d</fix>
</trkpt>
<trkpt lat="40.072842" lon="-105.230575">
  <ele>1586.09</ele>
  <time>2026-08-27T18:25:18Z</time>
  <course>11.92</course>
  <speed>0.022360679774997897</speed>
  <fix>3d</fix>
</trkpt>
<trkpt lat="40.072842" lon="-105.230575">
  <ele>1586.09</ele>
  <time>2026-08-27T18:25:18Z</time>
  <course>266.03</course>
  <speed>0.0</speed>
  <fix>3d</fix>
</trkpt>
<trkpt lat="40.072842" lon="-105.230575">
  <ele>1586.09</ele>
  <time>2026-08-27T18:25:18Z</time>
  <course>11.92</course>
  <speed>0.022360679774997897</speed>
  <fix>3d</fix>
</trkpt>
<trkpt lat="40.072842" lon="-105.230575">
  <ele>1586.09</ele>
  <time>2026-08-27T18:25:18Z</time>
  <course>266.03</course>
  <speed>0.0</speed>
  <fix>3d</fix>
</trkpt>
<trkpt lat="40.072842" lon="-105.230575">
  <ele>1586.09</ele>
  <time>2026-08-27T18:25:19Z</time>
  <course>11.91</course>
  <speed>0.022360679774997897</speed>
  <fix>3d</fix>
</trkpt>
<trkpt lat="40.072842" lon="-105.230575">
  <ele>1586.09</ele>
  <time>2026-08-27T18:25:19Z</time>
  <course>266.03</course>
  <speed>0.0</speed>
  <fix>3d</fix>
</trkpt>
<trkpt lat="40.072842" lon="-105.230575">
  <ele>1586.09</ele>
  <time>2026-08-27T18:25:19Z</time>
  <course>11.9</course>
  <speed>0.022360679774997897</speed>
  <fix>3d</fix>
</trkpt>
<trkpt lat="40.072842" lon="-105.230575">
  <ele>1586.09</ele>
  <time>2026-08-27T18:25:19Z</time>
  <course>266.03</course>
  <speed>0.0</speed>
  <fix>3d</fix>
</trkpt>
<trkpt lat="40.072842" lon="-105.230575">
  <ele>1586.09</ele>
  <time>2026-08-27T18:25:19Z</time>
  <course>11.89</course>
  <speed>0.022360679774997897</speed>
  <fix>3d</fix>
</trkpt>
<trkpt lat="40.072842" lon="-105.230575">
  <ele>1586.09</ele>
  <time>2026-08-27T18:25:19Z</time>
  <course>266.03</course>
  <speed>0.0</speed>
  <fix>3d</fix>
</trkpt>
<trkpt lat="40.072842" lon="-105.230575">
  <ele>1586.09</ele>
  <time>2026-08-27T18:25:19Z</time>
  <course>11.88</course>
  <speed>0.022360679774997897</speed>
  <fix>3d</fix>
</trkpt>
<trkpt lat="40.072842" lon="-105.230575">
  <ele>1586.09</ele>
  <time>2026-08-27T18:25:19Z</time>
  <course>266.03</course>
  <speed>0.0</speed>
  <fix>3d</fix>
</trkpt>
<trkpt lat="40.072842" lon="-105.230575">
  <ele>1586.09</ele>
  <time>2026-08-27T18:25:19Z</time>
  <course>11.87</course>
  <speed>0.022360679774997897</speed>
  <fix>3d</fix>
</trkpt>
<trkpt lat="40.072842" lon="-105.230575">
  <ele>1586.09</ele>
  <time>2026-08-27T18:25:19Z</time>
  <course>266.03</course>
  <speed>0.0</speed>
  <fix>3d</fix>
</trkpt>
<trkpt lat="40.072842" lon="-105.230575">
  <ele>1586.09</ele>
  <time>2026-08-27T18:25:19Z</time>
  <course>11.87</course>
  <speed>0.022360679774997897</speed>
  <fix>3d</fix>
</trkpt>
<trkpt lat="40.072842" lon="-105.230575">
  <ele>1586.09</ele>
  <time>2026-08-27T18:25:19Z</time>
  <course>266.03</course>
  <speed>0.0</speed>
  <fix>3d</fix>
</trkpt>
<trkpt lat="40.072842" lon="-105.230575">
  <ele>1586.09</ele>
  <time>2026-08-27T18:25:19Z</time>
  <course>11.86</course>
  <speed>0.022360679774997897</speed>
  <fix>3d</fix>
</trkpt>
<trkpt lat="40.072842" lon="-105.230575">
  <ele>1586.09</ele>
  <time>2026-08-27T18:25:19Z</time>
  <course>266.03</course>
  <speed>0.0</speed>
  <fix>3d</fix>
</trkpt>
<trkpt lat="40.072842" lon="-105.230575">
  <ele>1586.09</ele>
  <time>2026-08-27T18:25:19Z</time>
  <course>11.85</course>
  <speed>0.022360679774997897</speed>
  <fix>3d</fix>
</trkpt>
<trkpt lat="40.072842" lon="-105.230575">
  <ele>1586.09</ele>
  <time>2026-08-27T18:25:19Z</time>
  <course>266.03</course>
  <speed>0.0</speed>
  <fix>3d</fix>
</trkpt>
<trkpt lat="40.072842" lon="-105.230575">
  <ele>1586.09</ele>
  <time>2026-08-27T18:25:19Z</time>
  <course>11.84</course>
  <speed>0.0282842712474619</speed>
  <fix>3d</fix>
</trkpt>
<trkpt lat="40.072842" lon="-105.230575">
  <ele>1586.09</ele>
  <time>2026-08-27T18:25:19Z</time>
  <course>266.03</course>
  <speed>0.0</speed>
  <fix>3d</fix>
</trkpt>
<trkpt lat="40.072842" lon="-105.230575">
  <ele>1586.09</ele>
  <time>2026-08-27T18:25:19Z</time>
  <course>11.83</course>
  <speed>0.0282842712474619</speed>
  <fix>3d</fix>
</trkpt>
<trkpt lat="40.072842" lon="-105.230575">
  <ele>1586.09</ele>
  <time>2026-08-27T18:25:19Z</time>
  <course>266.03</course>
  <speed>0.0</speed>
  <fix>3d</fix>
</trkpt>
<trkpt lat="40.072842" lon="-105.230575">
  <ele>1586.09</ele>
  <time>2026-08-27T18:25:19Z</time>
  <course>11.83</course>
  <speed>0.0282842712474619</speed>
  <fix>3d</fix>
</trkpt>
<trkpt lat="40.072842" lon="-105.230575">
  <ele>1586.09</ele>
  <time>2026-08-27T18:25:19Z</time>
  <course>266.03</course>
  <speed>0.0</speed>
  <fix>3d</fix>
</trkpt>
<trkpt lat="40.072842" lon="-105.230575">
  <ele>1586.09</ele>
  <time>2026-08-27T18:25:19Z</time>
  <course>11.82</course>
  <speed>0.0282842712474619</speed>
  <fix>3d</fix>
</trkpt>
<trkpt lat="40.072842" lon="-105.230575">
  <ele>1586.09</ele>
  <time>2026-08-27T18:25:19Z</time>
  <course>266.03</course>
  <speed>0.0</speed>
  <fix>3d</fix>
</trkpt>
<trkpt lat="40.072842" lon="-105.230575">
  <ele>1586.09</ele>
  <time>2026-08-27T18:25:19Z</time>
  <course>11.81</course>
  <speed>0.0282842712474619</speed>
  <fix>3d</fix>
</trkpt>
<trkpt lat="40.072842" lon="-105.230575">
  <ele>1586.09</ele>
  <time>2026-08-27T18:25:19Z</time>
  <course>266.03</course>
  <speed>0.0</speed>
  <fix>3d</fix>
</trkpt>
<trkpt lat="40.072842" lon="-105.230575">
  <ele>1586.09</ele>
  <time>2026-08-27T18:25:19Z</time>
  <course>11.8</course>
  <speed>0.0282842712474619</speed>
  <fix>3d</fix>
</trkpt>
<trkpt lat="40.072842" lon="-105.230575">
  <ele>1586.09</ele>
  <time>2026-08-27T18:25:19Z</time>
  <course>266.03</course>
  <speed>0.0</speed>
  <fix>3d</fix>
</trkpt>
<trkpt lat="40.072842" lon="-105.230575">
  <ele>1586.09</ele>
  <time>2026-08-27T18:25:19Z</time>
  <course>11.79</course>
  <speed>0.0282842712474619</speed>
  <fix>3d</fix>
</trkpt>
<trkpt lat="40.072842" lon="-105.230575">
  <ele>1586.09</ele>
  <time>2026-08-27T18:25:19Z</time>
  <course>266.03</course>
  <speed>0.0</speed>
  <fix>3d</fix>
</trkpt>
<trkpt lat="40.072842" lon="-105.230575">
  <ele>1586.09</ele>
  <time>2026-08-27T18:25:19Z</time>
  <course>11.79</course>
  <speed>0.0282842712474619</speed>
  <fix>3d</fix>
</trkpt>
<trkpt lat="40.072842" lon="-105.230575">
  <ele>1586.09</ele>
  <time>2026-08-27T18:25:19Z</time>
  <course>266.03</course>
  <speed>0.0</speed>
  <fix>3d</fix>
</trkpt>
<trkpt lat="40.072842" lon="-105.230575">
  <ele>1586.09</ele>
  <time>2026-08-27T18:25:19Z</time>
  <course>11.78</course>
  <speed>0.0282842712474619</speed>
  <fix>3d</fix>
</trkpt>
<trkpt lat="40.072842" lon="-105.230575">
  <ele>1586.09</ele>
  <time>2026-08-27T18:25:19Z</time>
  <course>266.03</course>
  <speed>0.0</speed>
  <fix>3d</fix>
</trkpt>
<trkpt lat="40.072842" lon="-105.230575">
  <ele>1586.09</ele>
  <time>2026-08-27T18:25:19Z</time>
  <course>11.77</course>
  <speed>0.0282842712474619</speed>
  <fix>3d</fix>
</trkpt>
<trkpt lat="40.072842" lon="-105.230575">
  <ele>1586.09</ele>
  <time>2026-08-27T18:25:19Z</time>
  <course>266.03</course>
  <speed>0.0</speed>
  <fix>3d</fix>
</trkpt>
<trkpt lat="40.072842" lon="-105.230575">
  <ele>1586.09</ele>
  <time>2026-08-27T18:25:19Z</time>
  <course>11.77</course>
  <speed>0.0282842712474619</speed>
  <fix>3d</fix>
</trkpt>
<trkpt lat="40.072842" lon="-105.230575">
  <ele>1586.09</ele>
  <time>2026-08-27T18:25:19Z</time>
  <course>266.03</course>
  <speed>0.0</speed>
  <fix>3d</fix>
</trkpt>
<trkpt lat="40.072842" lon="-105.230575">
  <ele>1586.09</ele>
  <time>2026-08-27T18:25:19Z</time>
  <course>11.76</course>
  <speed>0.0282842712474619</speed>
  <fix>3d</fix>
</trkpt>
<trkpt lat="40.072842" lon="-105.230575">
  <ele>1586.09</ele>
  <time>2026-08-27T18:25:19Z</time>
  <course>266.03</course>
  <speed>0.0</speed>
  <fix>3d</fix>
</trkpt>
<trkpt lat="40.072842" lon="-105.230575">
  <ele>1586.09</ele>
  <time>2026-08-27T18:25:19Z</time>
  <course>11.75</course>
  <speed>0.0282842712474619</speed>
  <fix>3d</fix>
</trkpt>
<trkpt lat="40.072842" lon="-105.230575">
  <ele>1586.09</ele>
  <time>2026-08-27T18:25:19Z</time>
  <course>266.03</course>
  <speed>0.0</speed>
  <fix>3d</fix>
</trkpt>
<trkpt lat="40.072842" lon="-105.230575">
  <ele>1586.09</ele>
  <time>2026-08-27T18:25:19Z</time>
  <course>11.74</course>
  <speed>0.03605551275463989</speed>
  <fix>3d</fix>
</trkpt>
<trkpt lat="40.072842" lon="-105.230575">
  <ele>1586.09</ele>
  <time>2026-08-27T18:25:19Z</time>
  <course>266.03</course>
  <speed>0.0</speed>
  <fix>3d</fix>
</trkpt>
<trkpt lat="40.072842" lon="-105.230575">
  <ele>1586.09</ele>
  <time>2026-08-27T18:25:19Z</time>
  <course>11.73</course>
  <speed>0.03605551275463989</speed>
  <fix>3d</fix>
</trkpt>
<trkpt lat="40.072842" lon="-105.230575">
  <ele>1586.09</ele>
  <time>2026-08-27T18:25:19Z</time>
  <course>266.03</course>
  <speed>0.0</speed>
  <fix>3d</fix>
</trkpt>
<trkpt lat="40.072842" lon="-105.230575">
  <ele>1586.09</ele>
  <time>2026-08-27T18:25:19Z</time>
  <course>11.73</course>
  <speed>0.03605551275463989</speed>
  <fix>3d</fix>
</trkpt>
<trkpt lat="40.072842" lon="-105.230575">
  <ele>1586.09</ele>
  <time>2026-08-27T18:25:19Z</time>
  <course>266.03</course>
  <speed>0.0</speed>
  <fix>3d</fix>
</trkpt>
<trkpt lat="40.072842" lon="-105.230575">
  <ele>1586.09</ele>
  <time>2026-08-27T18:25:19Z</time>
  <course>11.72</course>
  <speed>0.03605551275463989</speed>
  <fix>3d</fix>
</trkpt>
<trkpt lat="40.072842" lon="-105.230575">
  <ele>1586.09</ele>
  <time>2026-08-27T18:25:19Z</time>
  <course>266.03</course>
  <speed>0.0</speed>
  <fix>3d</fix>
</trkpt>
<trkpt lat="40.072842" lon="-105.230575">
  <ele>1586.09</ele>
  <time>2026-08-27T18:25:19Z</time>
  <course>11.71</course>
  <speed>0.03605551275463989</speed>
  <fix>3d</fix>
</trkpt>
<trkpt lat="40.072842" lon="-105.230575">
  <ele>1586.09</ele>
  <time>2026-08-27T18:25:19Z</time>
  <course>266.03</course>
  <speed>0.0</speed>
  <fix>3d</fix>
</trkpt>
<trkpt lat="40.072842" lon="-105.230575">
  <ele>1586.09</ele>
  <time>2026-08-27T18:25:19Z</time>
  <course>11.7</course>
  <speed>0.03605551275463989</speed>
  <fix>3d</fix>
</trkpt>
<trkpt lat="40.072842" lon="-105.230575">
  <ele>1586.09</ele>
  <time>2026-08-27T18:25:19Z</time>
  <course>266.03</course>
  <speed>0.0</speed>
  <fix>3d</fix>
</trkpt>
<trkpt lat="40.072842" lon="-105.230575">
  <ele>1586.09</ele>
  <time>2026-08-27T18:25:19Z</time>
  <course>11.7</course>
  <speed>0.03605551275463989</speed>
  <fix>3d</fix>
</trkpt>
<trkpt lat="40.072842" lon="-105.230575">
  <ele>1586.09</ele>
  <time>2026-08-27T18:25:19Z</time>
  <course>266.03</course>
  <speed>0.0</speed>
  <fix>3d</fix>
</trkpt>
<trkpt lat="40.072842" lon="-105.230575">
  <ele>1586.09</ele>
  <time>2026-08-27T18:25:19Z</time>
  <course>11.69</course>
  <speed>0.03605551275463989</speed>
  <fix>3d</fix>
</trkpt>
<trkpt lat="40.072842" lon="-105.230575">
  <ele>1586.09</ele>
  <time>2026-08-27T18:25:19Z</time>
  <course>266.03</course>
  <speed>0.0</speed>
  <fix>3d</fix>
</trkpt>
<trkpt lat="40.072842" lon="-105.230575">
  <ele>1586.09</ele>
  <time>2026-08-27T18:25:19Z</time>
  <course>11.68</course>
  <speed>0.03605551275463989</speed>
  <fix>3d</fix>
</trkpt>
<trkpt lat="40.072842" lon="-105.230575">
  <ele>1586.09</ele>
  <time>2026-08-27T18:25:19Z</time>
  <course>266.03</course>
  <speed>0.0</speed>
  <fix>3d</fix>
</trkpt>
<trkpt lat="40.072842" lon="-105.230575">
  <ele>1586.09</ele>
  <time>2026-08-27T18:25:19Z</time>
  <course>11.68</course>
  <speed>0.03605551275463989</speed>
  <fix>3d</fix>
</trkpt>
<trkpt lat="40.072842" lon="-105.230575">
  <ele>1586.09</ele>
  <time>2026-08-27T18:25:19Z</time>
  <course>266.03</course>
  <speed>0.0</speed>
  <fix>3d</fix>
</trkpt>
<trkpt lat="40.072842" lon="-105.230575">
  <ele>1586.09</ele>
  <time>2026-08-27T18:25:19Z</time>
  <course>11.67</course>
  <speed>0.03605551275463989</speed>
  <fix>3d</fix>
</trkpt>
<trkpt lat="40.072842" lon="-105.230575">
  <ele>1586.09</ele>
  <time>2026-08-27T18:25:19Z</time>
  <course>266.03</course>
  <speed>0.0</speed>
  <fix>3d</fix>
</trkpt>
<trkpt lat="40.072842" lon="-105.230575">
  <ele>1586.09</ele>
  <time>2026-08-27T18:25:19Z</time>
  <course>11.66</course>
  <speed>0.03605551275463989</speed>
  <fix>3d</fix>
</trkpt>
<trkpt lat="40.072842" lon="-105.230575">
  <ele>1586.09</ele>
  <time>2026-08-27T18:25:19Z</time>
  <course>266.03</course>
  <speed>0.0</speed>
  <fix>3d</fix>
</trkpt>
<trkpt lat="40.072842" lon="-105.230575">
  <ele>1586.09</ele>
  <time>2026-08-27T18:25:19Z</time>
  <course>11.65</course>
  <speed>0.03605551275463989</speed>
  <fix>3d</fix>
</trkpt>
<trkpt lat="40.072842" lon="-105.230575">
  <ele>1586.09</ele>
  <time>2026-08-27T18:25:19Z</time>
  <course>266.03</course>
  <speed>0.0</speed>
  <fix>3d</fix>
</trkpt>
<trkpt lat="40.072842" lon="-105.230575">
  <ele>1586.09</ele>
  <time>2026-08-27T18:25:19Z</time>
  <course>11.65</course>
  <speed>0.03605551275463989</speed>
  <fix>3d</fix>
</trkpt>
<trkpt lat="40.072842" lon="-105.230575">
  <ele>1586.09</ele>
  <time>2026-08-27T18:25:19Z</time>
  <course>266.03</course>
  <speed>0.0</speed>
  <fix>3d</fix>
</trkpt>
<trkpt lat="40.072842" lon="-105.230575">
  <ele>1586.09</ele>
  <time>2026-08-27T18:25:19Z</time>
  <course>11.64</course>
  <speed>0.03605551275463989</speed>
  <fix>3d</fix>
</trkpt>
<trkpt lat="40.072842" lon="-105.230575">
  <ele>1586.09</ele>
  <time>2026-08-27T18:25:19Z</time>
  <course>266.03</course>
  <speed>0.0</speed>
  <fix>3d</fix>
</trkpt>
<trkpt lat="40.072842" lon="-105.230575">
  <ele>1586.09</ele>
  <time>2026-08-27T18:25:19Z</time>
  <course>11.63</course>
  <speed>0.03605551275463989</speed>
  <fix>3d</fix>
</trkpt>
<trkpt lat="40.072842" lon="-105.230575">
  <ele>1586.09</ele>
  <time>2026-08-27T18:25:19Z</time>
  <course>266.03</course>
  <speed>0.0</speed>
  <fix>3d</fix>
</trkpt>
<trkpt lat="40.072842" lon="-105.230575">
  <ele>1586.09</ele>
  <time>2026-08-27T18:25:19Z</time>
  <course>11.63</course>
  <speed>0.03605551275463989</speed>
  <fix>3d</fix>
</trkpt>
<trkpt lat="40.072842" lon="-105.230575">
  <ele>1586.09</ele>
  <time>2026-08-27T18:25:19Z</time>
  <course>266.03</course>
  <speed>0.0</speed>
  <fix>3d</fix>
</trkpt>
<trkpt lat="40.072842" lon="-105.230575">
  <ele>1586.09</ele>
  <time>2026-08-27T18:25:19Z</time>
  <course>11.62</course>
  <speed>0.03605551275463989</speed>
  <fix>3d</fix>
</trkpt>
<trkpt lat="40.072842" lon="-105.230575">
  <ele>1586.09</ele>
  <time>2026-08-27T18:25:19Z</time>
  <course>266.03</course>
  <speed>0.0</speed>
  <fix>3d</fix>
</trkpt>
<trkpt lat="40.072842" lon="-105.230575">
  <ele>1586.09</ele>
  <time>2026-08-27T18:25:19Z</time>
  <course>11.61</course>
  <speed>0.03605551275463989</speed>
  <fix>3d</fix>
</trkpt>
<trkpt lat="40.072842" lon="-105.230575">
  <ele>1586.09</ele>
  <time>2026-08-27T18:25:19Z</time>
  <course>266.03</course>
  <speed>0.0</speed>
  <fix>3d</fix>
</trkpt>
<trkpt lat="40.072842" lon="-105.230575">
  <ele>1586.09</ele>
  <time>2026-08-27T18:25:19Z</time>
  <course>11.61</course>
  <speed>0.03605551275463989</speed>
  <fix>3d</fix>
</trkpt>
<trkpt lat="40.072842" lon="-105.230575">
  <ele>1586.09</ele>
  <time>2026-08-27T18:25:19Z</time>
  <course>266.03</course>
  <speed>0.0</speed>
  <fix>3d</fix>
</trkpt>
<trkpt lat="40.072842" lon="-105.230575">
  <ele>1586.09</ele>
  <time>2026-08-27T18:25:19Z</time>
  <course>11.6</course>
  <speed>0.03605551275463989</speed>
  <fix>3d</fix>
</trkpt>
<trkpt lat="40.072842" lon="-105.230575">
  <ele>1586.09</ele>
  <time>2026-08-27T18:25:19Z</time>
  <course>266.03</course>
  <speed>0.0</speed>
  <fix>3d</fix>
</trkpt>
<trkpt lat="40.072842" lon="-105.230575">
  <ele>1586.09</ele>
  <time>2026-08-27T18:25:19Z</time>
  <course>11.6</course>
  <speed>0.03605551275463989</speed>
  <fix>3d</fix>
</trkpt>
<trkpt lat="40.072842" lon="-105.230575">
  <ele>1586.09</ele>
  <time>2026-08-27T18:25:19Z</time>
  <course>266.03</course>
  <speed>0.0</speed>
  <fix>3d</fix>
</trkpt>
<trkpt lat="40.072842" lon="-105.230575">
  <ele>1586.09</ele>
  <time>2026-08-27T18:25:19Z</time>
  <course>11.59</course>
  <speed>0.03605551275463989</speed>
  <fix>3d</fix>
</trkpt>
<trkpt lat="40.072842" lon="-105.230575">
  <ele>1586.09</ele>
  <time>2026-08-27T18:25:19Z</time>
  <course>266.03</course>
  <speed>0.0</speed>
  <fix>3d</fix>
</trkpt>
<trkpt lat="40.072842" lon="-105.230575">
  <ele>1586.09</ele>
  <time>2026-08-27T18:25:19Z</time>
  <course>11.58</course>
  <speed>0.03605551275463989</speed>
  <fix>3d</fix>
</trkpt>
<trkpt lat="40.072842" lon="-105.230575">
  <ele>1586.09</ele>
  <time>2026-08-27T18:25:19Z</time>
  <course>266.03</course>
  <speed>0.0</speed>
  <fix>3d</fix>
</trkpt>
<trkpt lat="40.072842" lon="-105.230575">
  <ele>1586.09</ele>
  <time>2026-08-27T18:25:19Z</time>
  <course>11.58</course>
  <speed>0.03605551275463989</speed>
  <fix>3d</fix>
</trkpt>
<trkpt lat="40.072842" lon="-105.230575">
  <ele>1586.09</ele>
  <time>2026-08-27T18:25:19Z</time>
  <course>266.03</course>
  <speed>0.0</speed>
  <fix>3d</fix>
</trkpt>
<trkpt lat="40.072842" lon="-105.230575">
  <ele>1586.09</ele>
  <time>2026-08-27T18:25:19Z</time>
  <course>11.57</course>
  <speed>0.03605551275463989</speed>
  <fix>3d</fix>
</trkpt>
<trkpt lat="40.072842" lon="-105.230575">
  <ele>1586.09</ele>
  <time>2026-08-27T18:25:19Z</time>
  <course>266.03</course>
  <speed>0.0</speed>
  <fix>3d</fix>
</trkpt>
<trkpt lat="40.072842" lon="-105.230575">
  <ele>1586.09</ele>
  <time>2026-08-27T18:25:19Z</time>
  <course>11.56</course>
  <speed>0.03605551275463989</speed>
  <fix>3d</fix>
</trkpt>
<trkpt lat="40.072842" lon="-105.230575">
  <ele>1586.09</ele>
  <time>2026-08-27T18:25:19Z</time>
  <course>266.03</course>
  <speed>0.0</speed>
  <fix>3d</fix>
</trkpt>
<trkpt lat="40.072842" lon="-105.230575">
  <ele>1586.09</ele>
  <time>2026-08-27T18:25:19Z</time>
  <course>11.56</course>
  <speed>0.03605551275463989</speed>
  <fix>3d</fix>
</trkpt>
<trkpt lat="40.072842" lon="-105.230575">
  <ele>1586.09</ele>
  <time>2026-08-27T18:25:19Z</time>
  <course>266.03</course>
  <speed>0.0</speed>
  <fix>3d</fix>
</trkpt>
<trkpt lat="40.072842" lon="-105.230575">
  <ele>1586.09</ele>
  <time>2026-08-27T18:25:19Z</time>
  <course>11.55</course>
  <speed>0.03605551275463989</speed>
  <fix>3d</fix>
</trkpt>
<trkpt lat="40.072842" lon="-105.230575">
  <ele>1586.09</ele>
  <time>2026-08-27T18:25:19Z</time>
  <course>266.03</course>
  <speed>0.0</speed>
  <fix>3d</fix>
</trkpt>
<trkpt lat="40.072842" lon="-105.230575">
  <ele>1586.09</ele>
  <time>2026-08-27T18:25:19Z</time>
  <course>11.55</course>
  <speed>0.03605551275463989</speed>
  <fix>3d</fix>
</trkpt>
<trkpt lat="40.072842" lon="-105.230575">
  <ele>1586.09</ele>
  <time>2026-08-27T18:25:19Z</time>
  <course>266.03</course>
  <speed>0.0</speed>
  <fix>3d</fix>
</trkpt>
<trkpt lat="40.072842" lon="-105.230575">
  <ele>1586.09</ele>
  <time>2026-08-27T18:25:19Z</time>
  <course>11.54</course>
  <speed>0.03605551275463989</speed>
  <fix>3d</fix>
</trkpt>
<trkpt lat="40.072842" lon="-105.230575">
  <ele>1586.09</ele>
  <time>2026-08-27T18:25:19Z</time>
  <course>266.03</course>
  <speed>0.0</speed>
  <fix>3d</fix>
</trkpt>
<trkpt lat="40.072842" lon="-105.230575">
  <ele>1586.09</ele>
  <time>2026-08-27T18:25:19Z</time>
  <course>11.53</course>
  <speed>0.03605551275463989</speed>
  <fix>3d</fix>
</trkpt>
<trkpt lat="40.072842" lon="-105.230575">
  <ele>1586.09</ele>
  <time>2026-08-27T18:25:19Z</time>
  <course>266.03</course>
  <speed>0.0</speed>
  <fix>3d</fix>
</trkpt>
<trkpt lat="40.072842" lon="-105.230575">
  <ele>1586.09</ele>
  <time>2026-08-27T18:25:19Z</time>
  <course>11.53</course>
  <speed>0.03605551275463989</speed>
  <fix>3d</fix>
</trkpt>
<trkpt lat="40.072842" lon="-105.230575">
  <ele>1586.09</ele>
  <time>2026-08-27T18:25:19Z</time>
  <course>266.03</course>
  <speed>0.0</speed>
  <fix>3d</fix>
</trkpt>
<trkpt lat="40.072842" lon="-105.230575">
  <ele>1586.09</ele>
  <time>2026-08-27T18:25:19Z</time>
  <course>11.52</course>
  <speed>0.03605551275463989</speed>
  <fix>3d</fix>
</trkpt>
<trkpt lat="40.072842" lon="-105.230575">
  <ele>1586.09</ele>
  <time>2026-08-27T18:25:19Z</time>
  <course>266.03</course>
  <speed>0.0</speed>
  <fix>3d</fix>
</trkpt>
<trkpt lat="40.072842" lon="-105.230575">
  <ele>1586.09</ele>
  <time>2026-08-27T18:25:19Z</time>
  <course>11.52</course>
  <speed>0.03605551275463989</speed>
  <fix>3d</fix>
</trkpt>
<trkpt lat="40.072842" lon="-105.230575">
  <ele>1586.09</ele>
  <time>2026-08-27T18:25:19Z</time>
  <course>266.03</course>
  <speed>0.0</speed>
  <fix>3d</fix>
</trkpt>
<trkpt lat="40.072842" lon="-105.230575">
  <ele>1586.09</ele>
  <time>2026-08-27T18:25:19Z</time>
  <course>11.51</course>
  <speed>0.03605551275463989</speed>
  <fix>3d</fix>
</trkpt>
<trkpt lat="40.072842" lon="-105.230575">
  <ele>1586.09</ele>
  <time>2026-08-27T18:25:19Z</time>
  <course>266.03</course>
  <speed>0.0</speed>
  <fix>3d</fix>
</trkpt>
<trkpt lat="40.072842" lon="-105.230575">
  <ele>1586.09</ele>
  <time>2026-08-27T18:25:19Z</time>
  <course>11.51</course>
  <speed>0.044721359549995794</speed>
  <fix>3d</fix>
</trkpt>
<trkpt lat="40.072842" lon="-105.230575">
  <ele>1586.09</ele>
  <time>2026-08-27T18:25:19Z</time>
  <course>266.03</course>
  <speed>0.0</speed>
  <fix>3d</fix>
</trkpt>
<trkpt lat="40.072842" lon="-105.230575">
  <ele>1586.09</ele>
  <time>2026-08-27T18:25:19Z</time>
  <course>11.5</course>
  <speed>0.044721359549995794</speed>
  <fix>3d</fix>
</trkpt>
<trkpt lat="40.072842" lon="-105.230575">
  <ele>1586.09</ele>
  <time>2026-08-27T18:25:19Z</time>
  <course>266.03</course>
  <speed>0.0</speed>
  <fix>3d</fix>
</trkpt>
<trkpt lat="40.072842" lon="-105.230575">
  <ele>1586.09</ele>
  <time>2026-08-27T18:25:19Z</time>
  <course>11.49</course>
  <speed>0.044721359549995794</speed>
  <fix>3d</fix>
</trkpt>
<trkpt lat="40.072842" lon="-105.230575">
  <ele>1586.09</ele>
  <time>2026-08-27T18:25:19Z</time>
  <course>266.03</course>
  <speed>0.0</speed>
  <fix>3d</fix>
</trkpt>
<trkpt lat="40.072842" lon="-105.230575">
  <ele>1586.09</ele>
  <time>2026-08-27T18:25:19Z</time>
  <course>11.49</course>
  <speed>0.044721359549995794</speed>
  <fix>3d</fix>
</trkpt>
<trkpt lat="40.072842" lon="-105.230575">
  <ele>1586.09</ele>
  <time>2026-08-27T18:25:19Z</time>
  <course>266.03</course>
  <speed>0.0</speed>
  <fix>3d</fix>
</trkpt>
<trkpt lat="40.072842" lon="-105.230575">
  <ele>1586.09</ele>
  <time>2026-08-27T18:25:19Z</time>
  <course>11.48</course>
  <speed>0.044721359549995794</speed>
  <fix>3d</fix>
</trkpt>
<trkpt lat="40.072842" lon="-105.230575">
  <ele>1586.09</ele>
  <time>2026-08-27T18:25:19Z</time>
  <course>266.03</course>
  <speed>0.0</speed>
  <fix>3d</fix>
</trkpt>
<trkpt lat="40.072842" lon="-105.230575">
  <ele>1586.09</ele>
  <time>2026-08-27T18:25:19Z</time>
  <course>11.48</course>
  <speed>0.044721359549995794</speed>
  <fix>3d</fix>
</trkpt>
<trkpt lat="40.072842" lon="-105.230575">
  <ele>1586.09</ele>
  <time>2026-08-27T18:25:19Z</time>
  <course>266.03</course>
  <speed>0.0</speed>
  <fix>3d</fix>
</trkpt>
<trkpt lat="40.072842" lon="-105.230575">
  <ele>1586.09</ele>
  <time>2026-08-27T18:25:19Z</time>
  <course>11.47</course>
  <speed>0.044721359549995794</speed>
  <fix>3d</fix>
</trkpt>
<trkpt lat="40.072842" lon="-105.230575">
  <ele>1586.09</ele>
  <time>2026-08-27T18:25:19Z</time>
  <course>266.03</course>
  <speed>0.0</speed>
  <fix>3d</fix>
</trkpt>
<trkpt lat="40.072842" lon="-105.230575">
  <ele>1586.09</ele>
  <time>2026-08-27T18:25:19Z</time>
  <course>11.47</course>
  <speed>0.044721359549995794</speed>
  <fix>3d</fix>
</trkpt>
<trkpt lat="40.072842" lon="-105.230575">
  <ele>1586.09</ele>
  <time>2026-08-27T18:25:19Z</time>
  <course>266.03</course>
  <speed>0.0</speed>
  <fix>3d</fix>
</trkpt>
<trkpt lat="40.072842" lon="-105.230575">
  <ele>1586.09</ele>
  <time>2026-08-27T18:25:19Z</time>
  <course>11.46</course>
  <speed>0.044721359549995794</speed>
  <fix>3d</fix>
</trkpt>
<trkpt lat="40.072842" lon="-105.230575">
  <ele>1586.09</ele>
  <time>2026-08-27T18:25:19Z</time>
  <course>266.03</course>
  <speed>0.0</speed>
  <fix>3d</fix>
</trkpt>
<trkpt lat="40.072842" lon="-105.230575">
  <ele>1586.09</ele>
  <time>2026-08-27T18:25:19Z</time>
  <course>11.46</course>
  <speed>0.044721359549995794</speed>
  <fix>3d</fix>
</trkpt>
<trkpt lat="40.072842" lon="-105.230575">
  <ele>1586.09</ele>
  <time>2026-08-27T18:25:19Z</time>
  <course>266.03</course>
  <speed>0.0</speed>
  <fix>3d</fix>
</trkpt>
<trkpt lat="40.072842" lon="-105.230575">
  <ele>1586.16</ele>
  <time>2026-08-27T18:25:19Z</time>
  <course>11.45</course>
  <speed>0.0</speed>
  <fix>3d</fix>
</trkpt>
<trkpt lat="40.072842" lon="-105.230575">
  <ele>1586.09</ele>
  <time>2026-08-27T18:25:19Z</time>
  <course>297.19</course>
  <speed>0.0</speed>
  <fix>3d</fix>
</trkpt>
<trkpt lat="40.072842" lon="-105.230575">
  <ele>1586.16</ele>
  <time>2026-08-27T18:25:19Z</time>
  <course>11.45</course>
  <speed>0.0</speed>
  <fix>3d</fix>
</trkpt>
<trkpt lat="40.072842" lon="-105.230575">
  <ele>1586.09</ele>
  <time>2026-08-27T18:25:19Z</time>
  <course>269.87</course>
  <speed>0.0</speed>
  <fix>3d</fix>
</trkpt>
<trkpt lat="40.072842" lon="-105.230575">
  <ele>1586.16</ele>
  <time>2026-08-27T18:25:19Z</time>
  <course>11.44</course>
  <speed>0.0</speed>
  <fix>3d</fix>
</trkpt>
<trkpt lat="40.072842" lon="-105.230575">
  <ele>1586.09</ele>
  <time>2026-08-27T18:25:19Z</time>
  <course>241.23</course>
  <speed>0.0</speed>
  <fix>3d</fix>
</trkpt>
<trkpt lat="40.072842" lon="-105.230575">
  <ele>1586.16</ele>
  <time>2026-08-27T18:25:19Z</time>
  <course>11.44</course>
  <speed>0.0</speed>
  <fix>3d</fix>
</trkpt>
<trkpt lat="40.072842" lon="-105.230575">
  <ele>1586.09</ele>
  <time>2026-08-27T18:25:19Z</time>
  <course>93.08</course>
  <speed>0.0</speed>
  <fix>3d</fix>
</trkpt>
<trkpt lat="40.072842" lon="-105.230575">
  <ele>1586.17</ele>
  <time>2026-08-27T18:25:19Z</time>
  <course>11.44</course>
  <speed>0.0</speed>
  <fix>3d</fix>
</trkpt>
<trkpt lat="40.072842" lon="-105.230575">
  <ele>1586.09</ele>
  <time>2026-08-27T18:25:19Z</time>
  <course>317.31</course>
  <speed>0.0</speed>
  <fix>3d</fix>
</trkpt>
<trkpt lat="40.072842" lon="-105.230575">
  <ele>1586.17</ele>
  <time>2026-08-27T18:25:19Z</time>
  <course>11.43</course>
  <speed>0.01</speed>
  <fix>3d</fix>
</trkpt>
<trkpt lat="40.072842" lon="-105.230575">
  <ele>1586.09</ele>
  <time>2026-08-27T18:25:19Z</time>
  <course>265.24</course>
  <speed>0.0</speed>
  <fix>3d</fix>
</trkpt>
<trkpt lat="40.072842" lon="-105.230575">
  <ele>1586.17</ele>
  <time>2026-08-27T18:25:19Z</time>
  <course>11.43</course>
  <speed>0.01</speed>
  <fix>3d</fix>
</trkpt>
<trkpt lat="40.072842" lon="-105.230575">
  <ele>1586.09</ele>
  <time>2026-08-27T18:25:19Z</time>
  <course>261.76</course>
  <speed>0.0</speed>
  <fix>3d</fix>
</trkpt>
<trkpt lat="40.072842" lon="-105.230575">
  <ele>1586.17</ele>
  <time>2026-08-27T18:25:19Z</time>
  <course>11.42</course>
  <speed>0.01</speed>
  <fix>3d</fix>
</trkpt>
<trkpt lat="40.072842" lon="-105.230575">
  <ele>1586.09</ele>
  <time>2026-08-27T18:25:19Z</time>
  <course>266.78</course>
  <speed>0.0</speed>
  <fix>3d</fix>
</trkpt>
<trkpt lat="40.072842" lon="-105.230575">
  <ele>1586.17</ele>
  <time>2026-08-27T18:25:19Z</time>
  <course>11.42</course>
  <speed>0.01414213562373095</speed>
  <fix>3d</fix>
</trkpt>
<trkpt lat="40.072842" lon="-105.230575">
  <ele>1586.09</ele>
  <time>2026-08-27T18:25:19Z</time>
  <course>266.53</course>
  <speed>0.0</speed>
  <fix>3d</fix>
</trkpt>
<trkpt lat="40.072842" lon="-105.230575">
  <ele>1586.17</ele>
  <time>2026-08-27T18:25:19Z</time>
  <course>11.42</course>
  <speed>0.01414213562373095</speed>
  <fix>3d</fix>
</trkpt>
<trkpt lat="40.072842" lon="-105.230575">
  <ele>1586.09</ele>
  <time>2026-08-27T18:25:19Z</time>
  <course>265.88</course>
  <speed>0.0</speed>
  <fix>3d</fix>
</trkpt>
<trkpt lat="40.072842" lon="-105.230575">
  <ele>1586.17</ele>
  <time>2026-08-27T18:25:19Z</time>
  <course>11.41</course>
  <speed>0.01414213562373095</speed>
  <fix>3d</fix>
</trkpt>
<trkpt lat="40.072842" lon="-105.230575">
  <ele>1586.09</ele>
  <time>2026-08-27T18:25:19Z</time>
  <course>218.16</course>
  <speed>0.0</speed>
  <fix>3d</fix>
</trkpt>
<trkpt lat="40.072842" lon="-105.230575">
  <ele>1586.17</ele>
  <time>2026-08-27T18:25:19Z</time>
  <course>11.41</course>
  <speed>0.022360679774997897</speed>
  <fix>3d</fix>
</trkpt>
<trkpt lat="40.072842" lon="-105.230575">
  <ele>1586.09</ele>
  <time>2026-08-27T18:25:19Z</time>
  <course>250.02</course>
  <speed>0.0</speed>
  <fix>3d</fix>
</trkpt>
<trkpt lat="40.072842" lon="-105.230575">
  <ele>1586.17</ele>
  <time>2026-08-27T18:25:19Z</time>
  <course>11.4</course>
  <speed>0.022360679774997897</speed>
  <fix>3d</fix>
</trkpt>
<trkpt lat="40.072842" lon="-105.230575">
  <ele>1586.09</ele>
  <time>2026-08-27T18:25:19Z</time>
  <course>269.72</course>
  <speed>0.0</speed>
  <fix>3d</fix>
</trkpt>
<trkpt lat="40.072842" lon="-105.230575">
  <ele>1586.17</ele>
  <time>2026-08-27T18:25:19Z</time>
  <course>11.4</course>
  <speed>0.01414213562373095</speed>
  <fix>3d</fix>
</trkpt>
<trkpt lat="40.072842" lon="-105.230575">
  <ele>1586.09</ele>
  <time>2026-08-27T18:25:19Z</time>
  <course>260.87</course>
  <speed>0.0</speed>
  <fix>3d</fix>
</trkpt>
<trkpt lat="40.072842" lon="-105.230575">
  <ele>1586.17</ele>
  <time>2026-08-27T18:25:19Z</time>
  <course>11.4</course>
  <speed>0.01414213562373095</speed>
  <fix>3d</fix>
</trkpt>
<trkpt lat="40.072842" lon="-105.230575">
  <ele>1586.09</ele>
  <time>2026-08-27T18:25:19Z</time>
  <course>266.45</course>
  <speed>0.0</speed>
  <fix>3d</fix>
</trkpt>
<trkpt lat="40.072842" lon="-105.230575">
  <ele>1586.17</ele>
  <time>2026-08-27T18:25:19Z</time>
  <course>11.39</course>
  <speed>0.01</speed>
  <fix>3d</fix>
</trkpt>
<trkpt lat="40.072842" lon="-105.230575">
  <ele>1586.09</ele>
  <time>2026-08-27T18:25:19Z</time>
  <course>266.71</course>
  <speed>0.0</speed>
  <fix>3d</fix>
</trkpt>
<trkpt lat="40.072842" lon="-105.230575">
  <ele>1586.17</ele>
  <time>2026-08-27T18:25:19Z</time>
  <course>11.39</course>
  <speed>0.0</speed>
  <fix>3d</fix>
</trkpt>
<trkpt lat="40.072842" lon="-105.230575">
  <ele>1586.09</ele>
  <time>2026-08-27T18:25:19Z</time>
  <course>265.91</course>
  <speed>0.0</speed>
  <fix>3d</fix>
</trkpt>
<trkpt lat="40.072842" lon="-105.230575">
  <ele>1586.17</ele>
  <time>2026-08-27T18:25:19Z</time>
  <course>11.39</course>
  <speed>0.0</speed>
  <fix>3d</fix>
</trkpt>
<trkpt lat="40.072842" lon="-105.230575">
  <ele>1586.09</ele>
  <time>2026-08-27T18:25:19Z</time>
  <course>265.96</course>
  <speed>0.0</speed>
  <fix>3d</fix>
</trkpt>
<trkpt lat="40.072842" lon="-105.230575">
  <ele>1586.17</ele>
  <time>2026-08-27T18:25:19Z</time>
  <course>11.38</course>
  <speed>0.0</speed>
  <fix>3d</fix>
</trkpt>
<trkpt lat="40.072842" lon="-105.230575">
  <ele>1586.09</ele>
  <time>2026-08-27T18:25:19Z</time>
  <course>329.9</course>
  <speed>0.0</speed>
  <fix>3d</fix>
</trkpt>
<trkpt lat="40.072842" lon="-105.230575">
  <ele>1586.17</ele>
  <time>2026-08-27T18:25:19Z</time>
  <course>11.38</course>
  <speed>0.0</speed>
  <fix>3d</fix>
</trkpt>
<trkpt lat="40.072842" lon="-105.230575">
  <ele>1586.09</ele>
  <time>2026-08-27T18:25:19Z</time>
  <course>321.43</course>
  <speed>0.0</speed>
  <fix>3d</fix>
</trkpt>
<trkpt lat="40.072842" lon="-105.230575">
  <ele>1586.17</ele>
  <time>2026-08-27T18:25:19Z</time>
  <course>11.37</course>
  <speed>0.0</speed>
  <fix>3d</fix>
</trkpt>
<trkpt lat="40.072842" lon="-105.230575">
  <ele>1586.09</ele>
  <time>2026-08-27T18:25:19Z</time>
  <course>240.77</course>
  <speed>0.0</speed>
  <fix>3d</fix>
</trkpt>
<trkpt lat="40.072842" lon="-105.230575">
  <ele>1586.17</ele>
  <time>2026-08-27T18:25:19Z</time>
  <course>11.37</course>
  <speed>0.0</speed>
  <fix>3d</fix>
</trkpt>
<trkpt lat="40.072842" lon="-105.230575">
  <ele>1586.09</ele>
  <time>2026-08-27T18:25:19Z</time>
  <course>156.86</course>
  <speed>0.0</speed>
  <fix>3d</fix>
</trkpt>
<trkpt lat="40.072842" lon="-105.230575">
  <ele>1586.17</ele>
  <time>2026-08-27T18:25:19Z</time>
  <course>11.37</course>
  <speed>0.0</speed>
  <fix>3d</fix>
</trkpt>
<trkpt lat="40.072842" lon="-105.230575">
  <ele>1586.09</ele>
  <time>2026-08-27T18:25:19Z</time>
  <course>304.08</course>
  <speed>0.0</speed>
  <fix>3d</fix>
</trkpt>
<trkpt lat="40.072842" lon="-105.230575">
  <ele>1586.17</ele>
  <time>2026-08-27T18:25:19Z</time>
  <course>11.37</course>
  <speed>0.0</speed>
  <fix>3d</fix>
</trkpt>
<trkpt lat="40.072842" lon="-105.230575">
  <ele>1586.09</ele>
  <time>2026-08-27T18:25:19Z</time>
  <course>290.22</course>
  <speed>0.0</speed>
  <fix>3d</fix>
</trkpt>
<trkpt lat="40.072842" lon="-105.230575">
  <ele>1586.17</ele>
  <time>2026-08-27T18:25:19Z</time>
  <course>11.36</course>
  <speed>0.0</speed>
  <fix>3d</fix>
</trkpt>
<trkpt lat="40.072842" lon="-105.230575">
  <ele>1586.09</ele>
  <time>2026-08-27T18:25:19Z</time>
  <course>282.71</course>
  <speed>0.0</speed>
  <fix>3d</fix>
</trkpt>
<trkpt lat="40.072842" lon="-105.230575">
  <ele>1586.17</ele>
  <time>2026-08-27T18:25:19Z</time>
  <course>11.36</course>
  <speed>0.0</speed>
  <fix>3d</fix>
</trkpt>
<trkpt lat="40.072842" lon="-105.230575">
  <ele>1586.09</ele>
  <time>2026-08-27T18:25:19Z</time>
  <course>285.91</course>
  <speed>0.0</speed>
  <fix>3d</fix>
</trkpt>
<trkpt lat="40.072842" lon="-105.230575">
  <ele>1586.17</ele>
  <time>2026-08-27T18:25:19Z</time>
  <course>11.36</course>
  <speed>0.0</speed>
  <fix>3d</fix>
</trkpt>
<trkpt lat="40.072842" lon="-105.230575">
  <ele>1586.09</ele>
  <time>2026-08-27T18:25:19Z</time>
  <course>286.67</course>
  <speed>0.0</speed>
  <fix>3d</fix>
</trkpt>
<trkpt lat="40.072842" lon="-105.230575">
  <ele>1586.16</ele>
  <time>2026-08-27T18:25:19Z</time>
  <course>11.36</course>
  <speed>0.0</speed>
  <fix>3d</fix>
</trkpt>
<trkpt lat="40.072842" lon="-105.230575">
  <ele>1586.09</ele>
  <time>2026-08-27T18:25:19Z</time>
  <course>286.17</course>
  <speed>0.0</speed>
  <fix>3d</fix>
</trkpt>
<trkpt lat="40.072842" lon="-105.230575">
  <ele>1586.16</ele>
  <time>2026-08-27T18:25:19Z</time>
  <course>11.36</course>
  <speed>0.0</speed>
  <fix>3d</fix>
</trkpt>
<trkpt lat="40.072842" lon="-105.230575">
  <ele>1586.09</ele>
  <time>2026-08-27T18:25:19Z</time>
  <course>286.13</course>
  <speed>0.0</speed>
  <fix>3d</fix>
</trkpt>
<trkpt lat="40.072842" lon="-105.230575">
  <ele>1586.16</ele>
  <time>2026-08-27T18:25:19Z</time>
  <course>11.35</course>
  <speed>0.0</speed>
  <fix>3d</fix>
</trkpt>
<trkpt lat="40.072842" lon="-105.230575">
  <ele>1586.09</ele>
  <time>2026-08-27T18:25:19Z</time>
  <course>286.2</course>
  <speed>0.0</speed>
  <fix>3d</fix>
</trkpt>
<trkpt lat="40.072842" lon="-105.230575">
  <ele>1586.16</ele>
  <time>2026-08-27T18:25:19Z</time>
  <course>11.35</course>
  <speed>0.0</speed>
  <fix>3d</fix>
</trkpt>
<trkpt lat="40.072842" lon="-105.230575">
  <ele>1586.09</ele>
  <time>2026-08-27T18:25:19Z</time>
  <course>286.2</course>
  <speed>0.0</speed>
  <fix>3d</fix>
</trkpt>
<trkpt lat="40.072842" lon="-105.230575">
  <ele>1586.16</ele>
  <time>2026-08-27T18:25:19Z</time>
  <course>11.35</course>
  <speed>0.0</speed>
  <fix>3d</fix>
</trkpt>
<trkpt lat="40.072842" lon="-105.230575">
  <ele>1586.09</ele>
  <time>2026-08-27T18:25:19Z</time>
  <course>286.19</course>
  <speed>0.0</speed>
  <fix>3d</fix>
</trkpt>
<trkpt lat="40.072842" lon="-105.230575">
  <ele>1586.16</ele>
  <time>2026-08-27T18:25:19Z</time>
  <course>11.35</course>
  <speed>0.0</speed>
  <fix>3d</fix>
</trkpt>
<trkpt lat="40.072842" lon="-105.230575">
  <ele>1586.09</ele>
  <time>2026-08-27T18:25:19Z</time>
  <course>286.19</course>
  <speed>0.0</speed>
  <fix>3d</fix>
</trkpt>
<trkpt lat="40.072842" lon="-105.230575">
  <ele>1586.16</ele>
  <time>2026-08-27T18:25:19Z</time>
  <course>11.35</course>
  <speed>0.0</speed>
  <fix>3d</fix>
</trkpt>
<trkpt lat="40.072842" lon="-105.230575">
  <ele>1586.09</ele>
  <time>2026-08-27T18:25:19Z</time>
  <course>286.19</course>
  <speed>0.0</speed>
  <fix>3d</fix>
</trkpt>
<trkpt lat="40.072842" lon="-105.230575">
  <ele>1586.16</ele>
  <time>2026-08-27T18:25:19Z</time>
  <course>11.35</course>
  <speed>0.0</speed>
  <fix>3d</fix>
</trkpt>
<trkpt lat="40.072842" lon="-105.230575">
  <ele>1586.09</ele>
  <time>2026-08-27T18:25:19Z</time>
  <course>272.62</course>
  <speed>0.0</speed>
  <fix>3d</fix>
</trkpt>
<trkpt lat="40.072842" lon="-105.230575">
  <ele>1586.16</ele>
  <time>2026-08-27T18:25:19Z</time>
  <course>11.34</course>
  <speed>0.0</speed>
  <fix>3d</fix>
</trkpt>
<trkpt lat="40.072842" lon="-105.230575">
  <ele>1586.09</ele>
  <time>2026-08-27T18:25:19Z</time>
  <course>264.73</course>
  <speed>0.0</speed>
  <fix>3d</fix>
</trkpt>
<trkpt lat="40.072842" lon="-105.230575">
  <ele>1586.16</ele>
  <time>2026-08-27T18:25:19Z</time>
  <course>11.34</course>
  <speed>0.0</speed>
  <fix>3d</fix>
</trkpt>
<trkpt lat="40.072842" lon="-105.230575">
  <ele>1586.09</ele>
  <time>2026-08-27T18:25:19Z</time>
  <course>186.43</course>
  <speed>0.0</speed>
  <fix>3d</fix>
</trkpt>
<trkpt lat="40.072842" lon="-105.230575">
  <ele>1586.16</ele>
  <time>2026-08-27T18:25:19Z</time>
  <course>11.34</course>
  <speed>0.0</speed>
  <fix>3d</fix>
</trkpt>
<trkpt lat="40.072842" lon="-105.230575">
  <ele>1586.09</ele>
  <time>2026-08-27T18:25:19Z</time>
  <course>24.68</course>
  <speed>0.0</speed>
  <fix>3d</fix>
</trkpt>
<trkpt lat="40.072842" lon="-105.230575">
  <ele>1586.16</ele>
  <time>2026-08-27T18:25:19Z</time>
  <course>11.34</course>
  <speed>0.01</speed>
  <fix>3d</fix>
</trkpt>
<trkpt lat="40.072842" lon="-105.230575">
  <ele>1586.09</ele>
  <time>2026-08-27T18:25:19Z</time>
  <course>283.35</course>
  <speed>0.0</speed>
  <fix>3d</fix>
</trkpt>
<trkpt lat="40.072842" lon="-105.230575">
  <ele>1586.16</ele>
  <time>2026-08-27T18:25:19Z</time>
  <course>11.34</course>
  <speed>0.01</speed>
  <fix>3d</fix>
</trkpt>
<trkpt lat="40.072842" lon="-105.230575">
  <ele>1586.09</ele>
  <time>2026-08-27T18:25:19Z</time>
  <course>276.14</course>
  <speed>0.0</speed>
  <fix>3d</fix>
</trkpt>
<trkpt lat="40.072842" lon="-105.230575">
  <ele>1586.16</ele>
  <time>2026-08-27T18:25:19Z</time>
  <course>11.34</course>
  <speed>0.01</speed>
  <fix>3d</fix>
</trkpt>
<trkpt lat="40.072842" lon="-105.230575">
  <ele>1586.09</ele>
  <time>2026-08-27T18:25:19Z</time>
  <course>281.01</course>
  <speed>0.0</speed>
  <fix>3d</fix>
</trkpt>
<trkpt lat="40.072842" lon="-105.230575">
  <ele>1586.16</ele>
  <time>2026-08-27T18:25:19Z</time>
  <course>11.34</course>
  <speed>0.01</speed>
  <fix>3d</fix>
</trkpt>
<trkpt lat="40.072842" lon="-105.230575">
  <ele>1586.09</ele>
  <time>2026-08-27T18:25:19Z</time>
  <course>281.5</course>
  <speed>0.0</speed>
  <fix>3d</fix>
</trkpt>
<trkpt lat="40.072842" lon="-105.230575">
  <ele>1586.16</ele>
  <time>2026-08-27T18:25:19Z</time>
  <course>11.34</course>
  <speed>0.01</speed>
  <fix>3d</fix>
</trkpt>
<trkpt lat="40.072842" lon="-105.230575">
  <ele>1586.09</ele>
  <time>2026-08-27T18:25:19Z</time>
  <course>280.71</course>
  <speed>0.0</speed>
  <fix>3d</fix>
</trkpt>
<trkpt lat="40.072842" lon="-105.230575">
  <ele>1586.16</ele>
  <time>2026-08-27T18:25:19Z</time>
  <course>11.34</course>
  <speed>0.01</speed>
  <fix>3d</fix>
</trkpt>
<trkpt lat="40.072842" lon="-105.230575">
  <ele>1586.09</ele>
  <time>2026-08-27T18:25:19Z</time>
  <course>280.73</course>
  <speed>0.0</speed>
  <fix>3d</fix>
</trkpt>
<trkpt lat="40.072842" lon="-105.230575">
  <ele>1586.16</ele>
  <time>2026-08-27T18:25:19Z</time>
  <course>11.34</course>
  <speed>0.01414213562373095</speed>
  <fix>3d</fix>
</trkpt>
<trkpt lat="40.072842" lon="-105.230575">
  <ele>1586.09</ele>
  <time>2026-08-27T18:25:19Z</time>
  <course>280.84</course>
  <speed>0.0</speed>
  <fix>3d</fix>
</trkpt>
<trkpt lat="40.072842" lon="-105.230575">
  <ele>1586.16</ele>
  <time>2026-08-27T18:25:19Z</time>
  <course>11.34</course>
  <speed>0.01414213562373095</speed>
  <fix>3d</fix>
</trkpt>
<trkpt lat="40.072842" lon="-105.230575">
  <ele>1586.09</ele>
  <time>2026-08-27T18:25:19Z</time>
  <course>280.82</course>
  <speed>0.0</speed>
  <fix>3d</fix>
</trkpt>
<trkpt lat="40.072842" lon="-105.230575">
  <ele>1586.16</ele>
  <time>2026-08-27T18:25:19Z</time>
  <course>11.34</course>
  <speed>0.01414213562373095</speed>
  <fix>3d</fix>
</trkpt>
<trkpt lat="40.072842" lon="-105.230575">
  <ele>1586.09</ele>
  <time>2026-08-27T18:25:19Z</time>
  <course>280.81</course>
  <speed>0.0</speed>
  <fix>3d</fix>
</trkpt>
<trkpt lat="40.072842" lon="-105.230575">
  <ele>1586.17</ele>
  <time>2026-08-27T18:25:19Z</time>
  <course>11.34</course>
  <speed>0.01414213562373095</speed>
  <fix>3d</fix>
</trkpt>
<trkpt lat="40.072842" lon="-105.230575">
  <ele>1586.09</ele>
  <time>2026-08-27T18:25:19Z</time>
  <course>280.81</course>
  <speed>0.0</speed>
  <fix>3d</fix>
</trkpt>
<trkpt lat="40.072842" lon="-105.230575">
  <ele>1586.17</ele>
  <time>2026-08-27T18:25:19Z</time>
  <course>11.34</course>
  <speed>0.01414213562373095</speed>
  <fix>3d</fix>
</trkpt>
<trkpt lat="40.072842" lon="-105.230575">
  <ele>1586.09</ele>
  <time>2026-08-27T18:25:19Z</time>
  <course>280.81</course>
  <speed>0.0</speed>
  <fix>3d</fix>
</trkpt>
<trkpt lat="40.0728419" lon="-105.230575">
  <ele>1586.17</ele>
  <time>2026-08-27T18:25:19Z</time>
  <course>11.34</course>
  <speed>0.01414213562373095</speed>
  <fix>3d</fix>
</trkpt>
<trkpt lat="40.072842" lon="-105.230575">
  <ele>1586.09</ele>
  <time>2026-08-27T18:25:19Z</time>
  <course>280.81</course>
  <speed>0.0</speed>
  <fix>3d</fix>
</trkpt>
<trkpt lat="40.0728419" lon="-105.230575">
  <ele>1586.17</ele>
  <time>2026-08-27T18:25:19Z</time>
  <course>11.34</course>
  <speed>0.022360679774997897</speed>
  <fix>3d</fix>
</trkpt>
<trkpt lat="40.072842" lon="-105.230575">
  <ele>1586.09</ele>
  <time>2026-08-27T18:25:19Z</time>
  <course>280.81</course>
  <speed>0.0</speed>
  <fix>3d</fix>
</trkpt>
<trkpt lat="40.0728419" lon="-105.230575">
  <ele>1586.17</ele>
  <time>2026-08-27T18:25:19Z</time>
  <course>11.34</course>
  <speed>0.022360679774997897</speed>
  <fix>3d</fix>
</trkpt>
<trkpt lat="40.072842" lon="-105.230575">
  <ele>1586.09</ele>
  <time>2026-08-27T18:25:19Z</time>
  <course>280.81</course>
  <speed>0.0</speed>
  <fix>3d</fix>
</trkpt>
<trkpt lat="40.0728419" lon="-105.2305749">
  <ele>1586.17</ele>
  <time>2026-08-27T18:25:19Z</time>
  <course>11.34</course>
  <speed>0.022360679774997897</speed>
  <fix>3d</fix>
</trkpt>
<trkpt lat="40.072842" lon="-105.230575">
  <ele>1586.09</ele>
  <time>2026-08-27T18:25:19Z</time>
  <course>280.81</course>
  <speed>0.0</speed>
  <fix>3d</fix>
</trkpt>
<trkpt lat="40.0728419" lon="-105.2305749">
  <ele>1586.17</ele>
  <time>2026-08-27T18:25:19Z</time>
  <course>11.34</course>
  <speed>0.022360679774997897</speed>
  <fix>3d</fix>
</trkpt>
<trkpt lat="40.072842" lon="-105.230575">
  <ele>1586.09</ele>
  <time>2026-08-27T18:25:19Z</time>
  <course>325.66</course>
  <speed>0.0</speed>
  <fix>3d</fix>
</trkpt>
<trkpt lat="40.0728419" lon="-105.2305749">
  <ele>1586.17</ele>
  <time>2026-08-27T18:25:19Z</time>
  <course>11.34</course>
  <speed>0.022360679774997897</speed>
  <fix>3d</fix>
</trkpt>
<trkpt lat="40.072842" lon="-105.230575">
  <ele>1586.09</ele>
  <time>2026-08-27T18:25:19Z</time>
  <course>308.37</course>
  <speed>0.0</speed>
  <fix>3d</fix>
</trkpt>
<trkpt lat="40.0728419" lon="-105.2305749">
  <ele>1586.17</ele>
  <time>2026-08-27T18:25:19Z</time>
  <course>11.34</course>
  <speed>0.022360679774997897</speed>
  <fix>3d</fix>
</trkpt>
<trkpt lat="40.072842" lon="-105.230575">
  <ele>1586.09</ele>
  <time>2026-08-27T18:25:19Z</time>
  <course>189.12</course>
  <speed>0.0</speed>
  <fix>3d</fix>
</trkpt>
<trkpt lat="40.0728419" lon="-105.2305749">
  <ele>1586.17</ele>
  <time>2026-08-27T18:25:19Z</time>
  <course>11.34</course>
  <speed>0.022360679774997897</speed>
  <fix>3d</fix>
</trkpt>
<trkpt lat="40.072842" lon="-105.230575">
  <ele>1586.09</ele>
  <time>2026-08-27T18:25:19Z</time>
  <course>151.55</course>
  <speed>0.0</speed>
  <fix>3d</fix>
</trkpt>
<trkpt lat="40.0728419" lon="-105.2305749">
  <ele>1586.17</ele>
  <time>2026-08-27T18:25:19Z</time>
  <course>11.34</course>
  <speed>0.022360679774997897</speed>
  <fix>3d</fix>
</trkpt>
<trkpt lat="40.072842" lon="-105.230575">
  <ele>1586.09</ele>
  <time>2026-08-27T18:25:19Z</time>
  <course>178.74</course>
  <speed>0.0</speed>
  <fix>3d</fix>
</trkpt>
<trkpt lat="40.0728419" lon="-105.2305749">
  <ele>1586.17</ele>
  <time>2026-08-27T18:25:19Z</time>
  <course>11.34</course>
  <speed>0.022360679774997897</speed>
  <fix>3d</fix>
</trkpt>
<trkpt lat="40.072842" lon="-105.230575">
  <ele>1586.09</ele>
  <time>2026-08-27T18:25:19Z</time>
  <course>294.81</course>
  <speed>0.0</speed>
  <fix>3d</fix>
</trkpt>
<trkpt lat="40.0728419" lon="-105.2305749">
  <ele>1586.16</ele>
  <time>2026-08-27T18:25:19Z</time>
  <course>11.34</course>
  <speed>0.022360679774997897</speed>
  <fix>3d</fix>
</trkpt>
<trkpt lat="40.072842" lon="-105.230575">
  <ele>1586.09</ele>
  <time>2026-08-27T18:25:19Z</time>
  <course>285.56</course>
  <speed>0.0</speed>
  <fix>3d</fix>
</trkpt>
<trkpt lat="40.0728419" lon="-105.2305749">
  <ele>1586.16</ele>
  <time>2026-08-27T18:25:19Z</time>
  <course>11.34</course>
  <speed>0.022360679774997897</speed>
  <fix>3d</fix>
</trkpt>
<trkpt lat="40.072842" lon="-105.230575">
  <ele>1586.09</ele>
  <time>2026-08-27T18:25:19Z</time>
  <course>278.16</course>
  <speed>0.0</speed>
  <fix>3d</fix>
</trkpt>
<trkpt lat="40.0728419" lon="-105.2305749">
  <ele>1586.16</ele>
  <time>2026-08-27T18:25:19Z</time>
  <course>11.34</course>
  <speed>0.022360679774997897</speed>
  <fix>3d</fix>
</trkpt>
<trkpt lat="40.072842" lon="-105.230575">
  <ele>1586.09</ele>
  <time>2026-08-27T18:25:19Z</time>
  <course>280.36</course>
  <speed>0.0</speed>
  <fix>3d</fix>
</trkpt>
<trkpt lat="40.0728419" lon="-105.2305749">
  <ele>1586.16</ele>
  <time>2026-08-27T18:25:19Z</time>
  <course>11.34</course>
  <speed>0.022360679774997897</speed>
  <fix>3d</fix>
</trkpt>
<trkpt lat="40.072842" lon="-105.230575">
  <ele>1586.09</ele>
  <time>2026-08-27T18:25:19Z</time>
  <course>281.21</course>
  <speed>0.0</speed>
  <fix>3d</fix>
</trkpt>
<trkpt lat="40.0728419" lon="-105.2305749">
  <ele>1586.16</ele>
  <time>2026-08-27T18:25:20Z</time>
  <course>11.34</course>
  <speed>0.022360679774997897</speed>
  <fix>3d</fix>
</trkpt>
<trkpt lat="40.072842" lon="-105.230575">
  <ele>1586.09</ele>
  <time>2026-08-27T18:25:20Z</time>
  <course>280.83</course>
  <speed>0.0</speed>
  <fix>3d</fix>
</trkpt>
<trkpt lat="40.0728419" lon="-105.2305749">
  <ele>1586.17</ele>
  <time>2026-08-27T18:25:20Z</time>
  <course>11.34</course>
  <speed>0.022360679774997897</speed>
  <fix>3d</fix>
</trkpt>
<trkpt lat="40.072842" lon="-105.230575">
  <ele>1586.09</ele>
  <time>2026-08-27T18:25:20Z</time>
  <course>280.76</course>
  <speed>0.0</speed>
  <fix>3d</fix>
</trkpt>
<trkpt lat="40.0728419" lon="-105.2305749">
  <ele>1586.17</ele>
  <time>2026-08-27T18:25:20Z</time>
  <course>11.33</course>
  <speed>0.01414213562373095</speed>
  <fix>3d</fix>
</trkpt>
<trkpt lat="40.072842" lon="-105.230575">
  <ele>1586.09</ele>
  <time>2026-08-27T18:25:20Z</time>
  <course>280.82</course>
  <speed>0.0</speed>
  <fix>3d</fix>
</trkpt>
<trkpt lat="40.0728419" lon="-105.2305749">
  <ele>1586.17</ele>
  <time>2026-08-27T18:25:20Z</time>
  <course>11.33</course>
  <speed>0.01414213562373095</speed>
  <fix>3d</fix>
</trkpt>
<trkpt lat="40.072842" lon="-105.230575">
  <ele>1586.09</ele>
  <time>2026-08-27T18:25:20Z</time>
  <course>280.82</course>
  <speed>0.0</speed>
  <fix>3d</fix>
</trkpt>
<trkpt lat="40.0728419" lon="-105.2305749">
  <ele>1586.17</ele>
  <time>2026-08-27T18:25:20Z</time>
  <course>11.33</course>
  <speed>0.01414213562373095</speed>
  <fix>3d</fix>
</trkpt>
<trkpt lat="40.072842" lon="-105.230575">
  <ele>1586.09</ele>
  <time>2026-08-27T18:25:20Z</time>
  <course>102.84</course>
  <speed>0.0</speed>
  <fix>3d</fix>
</trkpt>
<trkpt lat="40.0728419" lon="-105.2305749">
  <ele>1586.18</ele>
  <time>2026-08-27T18:25:20Z</time>
  <course>11.33</course>
  <speed>0.01</speed>
  <fix>3d</fix>
</trkpt>
<trkpt lat="40.072842" lon="-105.230575">
  <ele>1586.09</ele>
  <time>2026-08-27T18:25:20Z</time>
  <course>88.68</course>
  <speed>0.0</speed>
  <fix>3d</fix>
</trkpt>
<trkpt lat="40.0728419" lon="-105.230575">
  <ele>1586.19</ele>
  <time>2026-08-27T18:25:20Z</time>
  <course>11.33</course>
  <speed>0.01</speed>
  <fix>3d</fix>
</trkpt>
<trkpt lat="40.072842" lon="-105.230575">
  <ele>1586.09</ele>
  <time>2026-08-27T18:25:20Z</time>
  <course>0.91</course>
  <speed>0.0</speed>
  <fix>3d</fix>
</trkpt>
<trkpt lat="40.0728419" lon="-105.230575">
  <ele>1586.19</ele>
  <time>2026-08-27T18:25:20Z</time>
  <course>11.33</course>
  <speed>0.01</speed>
  <fix>3d</fix>
</trkpt>
<trkpt lat="40.072842" lon="-105.230575">
  <ele>1586.09</ele>
  <time>2026-08-27T18:25:20Z</time>
  <course>267.79</course>
  <speed>0.0</speed>
  <fix>3d</fix>
</trkpt>
<trkpt lat="40.0728419" lon="-105.230575">
  <ele>1586.19</ele>
  <time>2026-08-27T18:25:20Z</time>
  <course>11.32</course>
  <speed>0.0</speed>
  <fix>3d</fix>
</trkpt>
<trkpt lat="40.072842" lon="-105.230575">
  <ele>1586.09</ele>
  <time>2026-08-27T18:25:20Z</time>
  <course>269.89</course>
  <speed>0.0</speed>
  <fix>3d</fix>
</trkpt>
<trkpt lat="40.0728419" lon="-105.230575">
  <ele>1586.19</ele>
  <time>2026-08-27T18:25:20Z</time>
  <course>11.32</course>
  <speed>0.0</speed>
  <fix>3d</fix>
</trkpt>
<trkpt lat="40.072842" lon="-105.230575">
  <ele>1586.09</ele>
  <time>2026-08-27T18:25:20Z</time>
  <course>298.83</course>
  <speed>0.0</speed>
  <fix>3d</fix>
</trkpt>
<trkpt lat="40.0728419" lon="-105.230575">
  <ele>1586.19</ele>
  <time>2026-08-27T18:25:20Z</time>
  <course>11.32</course>
  <speed>0.0</speed>
  <fix>3d</fix>
</trkpt>
<trkpt lat="40.072842" lon="-105.230575">
  <ele>1586.09</ele>
  <time>2026-08-27T18:25:20Z</time>
  <course>286.78</course>
  <speed>0.0</speed>
  <fix>3d</fix>
</trkpt>
<trkpt lat="40.0728419" lon="-105.230575">
  <ele>1586.18</ele>
  <time>2026-08-27T18:25:20Z</time>
  <course>11.32</course>
  <speed>0.0</speed>
  <fix>3d</fix>
</trkpt>
<trkpt lat="40.072842" lon="-105.230575">
  <ele>1586.09</ele>
  <time>2026-08-27T18:25:20Z</time>
  <course>284.87</course>
  <speed>0.0</speed>
  <fix>3d</fix>
</trkpt>
<trkpt lat="40.0728419" lon="-105.230575">
  <ele>1586.18</ele>
  <time>2026-08-27T18:25:20Z</time>
  <course>11.32</course>
  <speed>0.0</speed>
  <fix>3d</fix>
</trkpt>
<trkpt lat="40.072842" lon="-105.230575">
  <ele>1586.09</ele>
  <time>2026-08-27T18:25:20Z</time>
  <course>286.27</course>
  <speed>0.0</speed>
  <fix>3d</fix>
</trkpt>
<trkpt lat="40.0728419" lon="-105.230575">
  <ele>1586.18</ele>
  <time>2026-08-27T18:25:20Z</time>
  <course>11.32</course>
  <speed>0.0</speed>
  <fix>3d</fix>
</trkpt>
<trkpt lat="40.072842" lon="-105.230575">
  <ele>1586.09</ele>
  <time>2026-08-27T18:25:20Z</time>
  <course>286.36</course>
  <speed>0.0</speed>
  <fix>3d</fix>
</trkpt>
<trkpt lat="40.0728419" lon="-105.230575">
  <ele>1586.18</ele>
  <time>2026-08-27T18:25:20Z</time>
  <course>11.32</course>
  <speed>0.0</speed>
  <fix>3d</fix>
</trkpt>
<trkpt lat="40.072842" lon="-105.230575">
  <ele>1586.09</ele>
  <time>2026-08-27T18:25:20Z</time>
  <course>286.16</course>
  <speed>0.0</speed>
  <fix>3d</fix>
</trkpt>
<trkpt lat="40.0728419" lon="-105.230575">
  <ele>1586.18</ele>
  <time>2026-08-27T18:25:20Z</time>
  <course>11.31</course>
  <speed>0.0</speed>
  <fix>3d</fix>
</trkpt>
<trkpt lat="40.072842" lon="-105.230575">
  <ele>1586.09</ele>
  <time>2026-08-27T18:25:20Z</time>
  <course>286.17</course>
  <speed>0.0</speed>
  <fix>3d</fix>
</trkpt>
<trkpt lat="40.0728419" lon="-105.230575">
  <ele>1586.18</ele>
  <time>2026-08-27T18:25:20Z</time>
  <course>11.31</course>
  <speed>0.0</speed>
  <fix>3d</fix>
</trkpt>
<trkpt lat="40.072842" lon="-105.230575">
  <ele>1586.09</ele>
  <time>2026-08-27T18:25:20Z</time>
  <course>286.2</course>
  <speed>0.0</speed>
  <fix>3d</fix>
</trkpt>
<trkpt lat="40.0728419" lon="-105.230575">
  <ele>1586.18</ele>
  <time>2026-08-27T18:25:20Z</time>
  <course>11.31</course>
  <speed>0.0</speed>
  <fix>3d</fix>
</trkpt>
<trkpt lat="40.072842" lon="-105.230575">
  <ele>1586.09</ele>
  <time>2026-08-27T18:25:20Z</time>
  <course>286.19</course>
  <speed>0.0</speed>
  <fix>3d</fix>
</trkpt>
<trkpt lat="40.0728419" lon="-105.230575">
  <ele>1586.17</ele>
  <time>2026-08-27T18:25:20Z</time>
  <course>11.31</course>
  <speed>0.0</speed>
  <fix>3d</fix>
</trkpt>
<trkpt lat="40.072842" lon="-105.230575">
  <ele>1586.09</ele>
  <time>2026-08-27T18:25:20Z</time>
  <course>286.19</course>
  <speed>0.0</speed>
  <fix>3d</fix>
</trkpt>
<trkpt lat="40.0728419" lon="-105.230575">
  <ele>1586.17</ele>
  <time>2026-08-27T18:25:20Z</time>
  <course>11.31</course>
  <speed>0.0</speed>
  <fix>3d</fix>
</trkpt>
<trkpt lat="40.072842" lon="-105.230575">
  <ele>1586.09</ele>
  <time>2026-08-27T18:25:20Z</time>
  <course>286.19</course>
  <speed>0.0</speed>
  <fix>3d</fix>
</trkpt>
<trkpt lat="40.0728419" lon="-105.230575">
  <ele>1586.16</ele>
  <time>2026-08-27T18:25:20Z</time>
  <course>11.31</course>
  <speed>0.0</speed>
  <fix>3d</fix>
</trkpt>
<trkpt lat="40.072842" lon="-105.230575">
  <ele>1586.09</ele>
  <time>2026-08-27T18:25:20Z</time>
  <course>286.19</course>
  <speed>0.0</speed>
  <fix>3d</fix>
</trkpt>
<trkpt lat="40.0728419" lon="-105.230575">
  <ele>1586.16</ele>
  <time>2026-08-27T18:25:20Z</time>
  <course>11.31</course>
  <speed>0.0</speed>
  <fix>3d</fix>
</trkpt>
<trkpt lat="40.072842" lon="-105.230575">
  <ele>1586.09</ele>
  <time>2026-08-27T18:25:20Z</time>
  <course>275.28</course>
  <speed>0.0</speed>
  <fix>3d</fix>
</trkpt>
<trkpt lat="40.0728419" lon="-105.230575">
  <ele>1586.16</ele>
  <time>2026-08-27T18:25:20Z</time>
  <course>11.3</course>
  <speed>0.01</speed>
  <fix>3d</fix>
</trkpt>
<trkpt lat="40.072842" lon="-105.230575">
  <ele>1586.09</ele>
  <time>2026-08-27T18:25:20Z</time>
  <course>266.64</course>
  <speed>0.0</speed>
  <fix>3d</fix>
</trkpt>
<trkpt lat="40.0728419" lon="-105.230575">
  <ele>1586.16</ele>
  <time>2026-08-27T18:25:20Z</time>
  <course>11.3</course>
  <speed>0.01</speed>
  <fix>3d</fix>
</trkpt>
<trkpt lat="40.072842" lon="-105.230575">
  <ele>1586.09</ele>
  <time>2026-08-27T18:25:20Z</time>
  <course>200.3</course>
  <speed>0.0</speed>
  <fix>3d</fix>
</trkpt>
<trkpt lat="40.0728419" lon="-105.230575">
  <ele>1586.16</ele>
  <time>2026-08-27T18:25:20Z</time>
  <course>11.3</course>
  <speed>0.01</speed>
  <fix>3d</fix>
</trkpt>
<trkpt lat="40.072842" lon="-105.230575">
  <ele>1586.09</ele>
  <time>2026-08-27T18:25:20Z</time>
  <course>35.9</course>
  <speed>0.0</speed>
  <fix>3d</fix>
</trkpt>
<trkpt lat="40.0728419" lon="-105.230575">
  <ele>1586.16</ele>
  <time>2026-08-27T18:25:20Z</time>
  <course>11.3</course>
  <speed>0.01</speed>
  <fix>3d</fix>
</trkpt>
<trkpt lat="40.072842" lon="-105.230575">
  <ele>1586.09</ele>
  <time>2026-08-27T18:25:20Z</time>
  <course>284.85</course>
  <speed>0.0</speed>
  <fix>3d</fix>
</trkpt>
<trkpt lat="40.0728419" lon="-105.230575">
  <ele>1586.16</ele>
  <time>2026-08-27T18:25:20Z</time>
  <course>11.3</course>
  <speed>0.01</speed>
  <fix>3d</fix>
</trkpt>
<trkpt lat="40.072842" lon="-105.230575">
  <ele>1586.09</ele>
  <time>2026-08-27T18:25:20Z</time>
  <course>275.97</course>
  <speed>0.0</speed>
  <fix>3d</fix>
</trkpt>
<trkpt lat="40.0728419" lon="-105.230575">
  <ele>1586.15</ele>
  <time>2026-08-27T18:25:20Z</time>
  <course>11.3</course>
  <speed>0.01</speed>
  <fix>3d</fix>
</trkpt>
<trkpt lat="40.072842" lon="-105.230575">
  <ele>1586.09</ele>
  <time>2026-08-27T18:25:20Z</time>
  <course>280.81</course>
  <speed>0.0</speed>
  <fix>3d</fix>
</trkpt>
<trkpt lat="40.0728419" lon="-105.230575">
  <ele>1586.15</ele>
  <time>2026-08-27T18:25:20Z</time>
  <course>11.3</course>
  <speed>0.01414213562373095</speed>
  <fix>3d</fix>
</trkpt>
<trkpt lat="40.072842" lon="-105.230575">
  <ele>1586.09</ele>
  <time>2026-08-27T18:25:20Z</time>
  <course>281.57</course>
  <speed>0.0</speed>
  <fix>3d</fix>
</trkpt>
<trkpt lat="40.0728419" lon="-105.230575">
  <ele>1586.15</ele>
  <time>2026-08-27T18:25:20Z</time>
  <course>11.3</course>
  <speed>0.01414213562373095</speed>
  <fix>3d</fix>
</trkpt>
<trkpt lat="40.072842" lon="-105.230575">
  <ele>1586.09</ele>
  <time>2026-08-27T18:25:20Z</time>
  <course>280.73</course>
  <speed>0.0</speed>
  <fix>3d</fix>
</trkpt>
<trkpt lat="40.0728419" lon="-105.230575">
  <ele>1586.15</ele>
  <time>2026-08-27T18:25:20Z</time>
  <course>11.3</course>
  <speed>0.01414213562373095</speed>
  <fix>3d</fix>
</trkpt>
<trkpt lat="40.072842" lon="-105.230575">
  <ele>1586.09</ele>
  <time>2026-08-27T18:25:20Z</time>
  <course>280.72</course>
  <speed>0.0</speed>
  <fix>3d</fix>
</trkpt>
<trkpt lat="40.0728419" lon="-105.230575">
  <ele>1586.15</ele>
  <time>2026-08-27T18:25:20Z</time>
  <course>11.3</course>
  <speed>0.01414213562373095</speed>
  <fix>3d</fix>
</trkpt>
<trkpt lat="40.072842" lon="-105.230575">
  <ele>1586.09</ele>
  <time>2026-08-27T18:25:20Z</time>
  <course>280.84</course>
  <speed>0.0</speed>
  <fix>3d</fix>
</trkpt>
<trkpt lat="40.0728419" lon="-105.230575">
  <ele>1586.15</ele>
  <time>2026-08-27T18:25:20Z</time>
  <course>11.3</course>
  <speed>0.01414213562373095</speed>
  <fix>3d</fix>
</trkpt>
<trkpt lat="40.072842" lon="-105.230575">
  <ele>1586.09</ele>
  <time>2026-08-27T18:25:20Z</time>
  <course>280.82</course>
  <speed>0.0</speed>
  <fix>3d</fix>
</trkpt>
<trkpt lat="40.0728419" lon="-105.230575">
  <ele>1586.15</ele>
  <time>2026-08-27T18:25:20Z</time>
  <course>11.3</course>
  <speed>0.01414213562373095</speed>
  <fix>3d</fix>
</trkpt>
<trkpt lat="40.072842" lon="-105.230575">
  <ele>1586.09</ele>
  <time>2026-08-27T18:25:20Z</time>
  <course>280.81</course>
  <speed>0.0</speed>
  <fix>3d</fix>
</trkpt>
<trkpt lat="40.0728419" lon="-105.230575">
  <ele>1586.15</ele>
  <time>2026-08-27T18:25:20Z</time>
  <course>11.3</course>
  <speed>0.01414213562373095</speed>
  <fix>3d</fix>
</trkpt>
<trkpt lat="40.072842" lon="-105.230575">
  <ele>1586.09</ele>
  <time>2026-08-27T18:25:20Z</time>
  <course>280.81</course>
  <speed>0.0</speed>
  <fix>3d</fix>
</trkpt>
<trkpt lat="40.0728419" lon="-105.230575">
  <ele>1586.15</ele>
  <time>2026-08-27T18:25:20Z</time>
  <course>11.3</course>
  <speed>0.01414213562373095</speed>
  <fix>3d</fix>
</trkpt>
<trkpt lat="40.072842" lon="-105.230575">
  <ele>1586.09</ele>
  <time>2026-08-27T18:25:20Z</time>
  <course>280.81</course>
  <speed>0.0</speed>
  <fix>3d</fix>
</trkpt>
<trkpt lat="40.0728419" lon="-105.2305749">
  <ele>1586.16</ele>
  <time>2026-08-27T18:25:20Z</time>
  <course>11.3</course>
  <speed>0.022360679774997897</speed>
  <fix>3d</fix>
</trkpt>
<trkpt lat="40.072842" lon="-105.230575">
  <ele>1586.09</ele>
  <time>2026-08-27T18:25:20Z</time>
  <course>280.81</course>
  <speed>0.0</speed>
  <fix>3d</fix>
</trkpt>
<trkpt lat="39.654938" lon="-104.1331666">
  <ele>1569.54</ele>
  <time>2026-08-27T18:25:20Z</time>
  <course>168.11</course>
  <speed>0.0</speed>
  <fix>3d</fix>
</trkpt>
<trkpt lat="40.072842" lon="-105.230575">
  <ele>1586.09</ele>
  <time>2026-08-27T18:25:20Z</time>
  <course>2.03</course>
  <speed>0.0</speed>
  <fix>3d</fix>
</trkpt>
<trkpt lat="40.072842" lon="-105.230575">
  <ele>1586.09</ele>
  <time>2026-08-27T18:25:20Z</time>
  <course>238.4</course>
  <speed>0.0</speed>
  <fix>3d</fix>
</trkpt>
<trkpt lat="40.072842" lon="-105.230575">
  <ele>1586.09</ele>
  <time>2026-08-27T18:25:20Z</time>
  <course>2.39</course>
  <speed>0.0</speed>
  <fix>3d</fix>
</trkpt>
<trkpt lat="40.072842" lon="-105.230575">
  <ele>1586.09</ele>
  <time>2026-08-27T18:25:20Z</time>
  <course>194.29</course>
  <speed>0.0</speed>
  <fix>3d</fix>
</trkpt>
<trkpt lat="40.072842" lon="-105.230575">
  <ele>1586.09</ele>
  <time>2026-08-27T18:25:20Z</time>
  <course>3.12</course>
  <speed>0.0</speed>
  <fix>3d</fix>
</trkpt>
<trkpt lat="40.072842" lon="-105.230575">
  <ele>1586.09</ele>
  <time>2026-08-27T18:25:20Z</time>
  <course>193.66</course>
  <speed>0.0</speed>
  <fix>3d</fix>
</trkpt>
<trkpt lat="40.072842" lon="-105.230575">
  <ele>1586.09</ele>
  <time>2026-08-27T18:25:20Z</time>
  <course>3.81</course>
  <speed>0.0</speed>
  <fix>3d</fix>
</trkpt>
<trkpt lat="40.072842" lon="-105.230575">
  <ele>1586.09</ele>
  <time>2026-08-27T18:25:20Z</time>
  <course>303.54</course>
  <speed>0.0</speed>
  <fix>3d</fix>
</trkpt>
<trkpt lat="40.072842" lon="-105.230575">
  <ele>1586.09</ele>
  <time>2026-08-27T18:25:20Z</time>
  <course>4.44</course>
  <speed>0.0</speed>
  <fix>3d</fix>
</trkpt>
<trkpt lat="40.072842" lon="-105.230575">
  <ele>1586.09</ele>
  <time>2026-08-27T18:25:20Z</time>
  <course>110.94</course>
  <speed>0.0</speed>
  <fix>3d</fix>
</trkpt>
<trkpt lat="40.072842" lon="-105.230575">
  <ele>1586.09</ele>
  <time>2026-08-27T18:25:20Z</time>
  <course>5.03</course>
  <speed>0.0</speed>
  <fix>3d</fix>
</trkpt>
<trkpt lat="40.072842" lon="-105.230575">
  <ele>1586.09</ele>
  <time>2026-08-27T18:25:20Z</time>
  <course>191.21</course>
  <speed>0.0</speed>
  <fix>3d</fix>
</trkpt>
<trkpt lat="40.072842" lon="-105.230575">
  <ele>1586.09</ele>
  <time>2026-08-27T18:25:20Z</time>
  <course>5.59</course>
  <speed>0.0</speed>
  <fix>3d</fix>
</trkpt>
<trkpt lat="40.072842" lon="-105.230575">
  <ele>1586.09</ele>
  <time>2026-08-27T18:25:20Z</time>
  <course>252.23</course>
  <speed>0.0</speed>
  <fix>3d</fix>
</trkpt>
<trkpt lat="40.072842" lon="-105.230575">
  <ele>1586.09</ele>
  <time>2026-08-27T18:25:20Z</time>
  <course>6.12</course>
  <speed>0.0</speed>
  <fix>3d</fix>
</trkpt>
<trkpt lat="40.072842" lon="-105.230575">
  <ele>1586.09</ele>
  <time>2026-08-27T18:25:20Z</time>
  <course>170.36</course>
  <speed>0.0</speed>
  <fix>3d</fix>
</trkpt>
<trkpt lat="40.072842" lon="-105.230575">
  <ele>1586.09</ele>
  <time>2026-08-27T18:25:20Z</time>
  <course>6.62</course>
  <speed>0.0</speed>
  <fix>3d</fix>
</trkpt>
<trkpt lat="40.072842" lon="-105.230575">
  <ele>1586.09</ele>
  <time>2026-08-27T18:25:20Z</time>
  <course>179.36</course>
  <speed>0.0</speed>
  <fix>3d</fix>
</trkpt>
<trkpt lat="40.072842" lon="-105.230575">
  <ele>1586.09</ele>
  <time>2026-08-27T18:25:20Z</time>
  <course>7.08</course>
  <speed>0.0</speed>
  <fix>3d</fix>
</trkpt>
<trkpt lat="40.072842" lon="-105.230575">
  <ele>1586.09</ele>
  <time>2026-08-27T18:25:20Z</time>
  <course>19.98</course>
  <speed>0.0</speed>
  <fix>3d</fix>
</trkpt>
<trkpt lat="40.072842" lon="-105.230575">
  <ele>1586.09</ele>
  <time>2026-08-27T18:25:20Z</time>
  <course>7.51</course>
  <speed>0.0</speed>
  <fix>3d</fix>
</trkpt>
<trkpt lat="40.072842" lon="-105.230575">
  <ele>1586.09</ele>
  <time>2026-08-27T18:25:20Z</time>
  <course>17.49</course>
  <speed>0.0</speed>
  <fix>3d</fix>
</trkpt>
<trkpt lat="40.072842" lon="-105.230575">
  <ele>1586.09</ele>
  <time>2026-08-27T18:25:20Z</time>
  <course>7.9</course>
  <speed>0.0</speed>
  <fix>3d</fix>
</trkpt>
<trkpt lat="40.072842" lon="-105.230575">
  <ele>1586.09</ele>
  <time>2026-08-27T18:25:20Z</time>
  <course>356.19</course>
  <speed>0.0</speed>
  <fix>3d</fix>
</trkpt>
<trkpt lat="40.072842" lon="-105.230575">
  <ele>1586.09</ele>
  <time>2026-08-27T18:25:20Z</time>
  <course>8.27</course>
  <speed>0.0</speed>
  <fix>3d</fix>
</trkpt>
<trkpt lat="40.072842" lon="-105.230575">
  <ele>1586.09</ele>
  <time>2026-08-27T18:25:20Z</time>
  <course>77.32</course>
  <speed>0.0</speed>
  <fix>3d</fix>
</trkpt>
<trkpt lat="40.072842" lon="-105.230575">
  <ele>1586.09</ele>
  <time>2026-08-27T18:25:20Z</time>
  <course>8.61</course>
  <speed>0.0</speed>
  <fix>3d</fix>
</trkpt>
<trkpt lat="40.072842" lon="-105.230575">
  <ele>1586.09</ele>
  <time>2026-08-27T18:25:20Z</time>
  <course>290.54</course>
  <speed>0.0</speed>
  <fix>3d</fix>
</trkpt>
<trkpt lat="40.072842" lon="-105.230575">
  <ele>1586.09</ele>
  <time>2026-08-27T18:25:20Z</time>
  <course>8.92</course>
  <speed>0.0</speed>
  <fix>3d</fix>
</trkpt>
<trkpt lat="40.072842" lon="-105.230575">
  <ele>1586.09</ele>
  <time>2026-08-27T18:25:20Z</time>
  <course>338.69</course>
  <speed>0.0</speed>
  <fix>3d</fix>
</trkpt>
<trkpt lat="40.072842" lon="-105.230575">
  <ele>1586.09</ele>
  <time>2026-08-27T18:25:20Z</time>
  <course>9.21</course>
  <speed>0.0</speed>
  <fix>3d</fix>
</trkpt>
<trkpt lat="40.072842" lon="-105.230575">
  <ele>1586.09</ele>
  <time>2026-08-27T18:25:20Z</time>
  <course>326.81</course>
  <speed>0.0</speed>
  <fix>3d</fix>
</trkpt>
<trkpt lat="40.072842" lon="-105.230575">
  <ele>1586.09</ele>
  <time>2026-08-27T18:25:20Z</time>
  <course>9.47</course>
  <speed>0.0</speed>
  <fix>3d</fix>
</trkpt>
<trkpt lat="40.072842" lon="-105.230575">
  <ele>1586.09</ele>
  <time>2026-08-27T18:25:20Z</time>
  <course>262.23</course>
  <speed>0.0</speed>
  <fix>3d</fix>
</trkpt>
<trkpt lat="40.072842" lon="-105.230575">
  <ele>1586.09</ele>
  <time>2026-08-27T18:25:20Z</time>
  <course>9.72</course>
  <speed>0.0</speed>
  <fix>3d</fix>
</trkpt>
<trkpt lat="40.072842" lon="-105.230575">
  <ele>1586.09</ele>
  <time>2026-08-27T18:25:20Z</time>
  <course>159.08</course>
  <speed>0.0</speed>
  <fix>3d</fix>
</trkpt>
<trkpt lat="40.072842" lon="-105.230575">
  <ele>1586.09</ele>
  <time>2026-08-27T18:25:21Z</time>
  <course>9.94</course>
  <speed>0.0</speed>
  <fix>3d</fix>
</trkpt>
<trkpt lat="40.072842" lon="-105.230575">
  <ele>1586.09</ele>
  <time>2026-08-27T18:25:21Z</time>
  <course>287.98</course>
  <speed>0.0</speed>
  <fix>3d</fix>
</trkpt>
<trkpt lat="40.072842" lon="-105.230575">
  <ele>1586.09</ele>
  <time>2026-08-27T18:25:21Z</time>
  <course>10.15</course>
  <speed>0.0</speed>
  <fix>3d</fix>
</trkpt>
<trkpt lat="40.072842" lon="-105.230575">
  <ele>1586.09</ele>
  <time>2026-08-27T18:25:21Z</time>
  <course>278.3</course>
  <speed>0.0</speed>
  <fix>3d</fix>
</trkpt>
<trkpt lat="40.072842" lon="-105.230575">
  <ele>1586.09</ele>
  <time>2026-08-27T18:25:21Z</time>
  <course>10.34</course>
  <speed>0.0</speed>
  <fix>3d</fix>
</trkpt>
<trkpt lat="40.072842" lon="-105.230575">
  <ele>1586.09</ele>
  <time>2026-08-27T18:25:21Z</time>
  <course>261.72</course>
  <speed>0.0</speed>
  <fix>3d</fix>
</trkpt>
<trkpt lat="40.072842" lon="-105.230575">
  <ele>1586.09</ele>
  <time>2026-08-27T18:25:21Z</time>
  <course>10.51</course>
  <speed>0.0</speed>
  <fix>3d</fix>
</trkpt>
<trkpt lat="40.072842" lon="-105.230575">
  <ele>1586.09</ele>
  <time>2026-08-27T18:25:21Z</time>
  <course>264.4</course>
  <speed>0.0</speed>
  <fix>3d</fix>
</trkpt>
<trkpt lat="40.072842" lon="-105.230575">
  <ele>1586.09</ele>
  <time>2026-08-27T18:25:21Z</time>
  <course>10.67</course>
  <speed>0.0</speed>
  <fix>3d</fix>
</trkpt>
<trkpt lat="40.072842" lon="-105.230575">
  <ele>1586.09</ele>
  <time>2026-08-27T18:25:21Z</time>
  <course>266.8</course>
  <speed>0.0</speed>
  <fix>3d</fix>
</trkpt>
<trkpt lat="40.072842" lon="-105.230575">
  <ele>1586.09</ele>
  <time>2026-08-27T18:25:21Z</time>
  <course>10.81</course>
  <speed>0.0</speed>
  <fix>3d</fix>
</trkpt>
<trkpt lat="40.072842" lon="-105.230575">
  <ele>1586.09</ele>
  <time>2026-08-27T18:25:21Z</time>
  <course>266.15</course>
  <speed>0.0</speed>
  <fix>3d</fix>
</trkpt>
<trkpt lat="40.072842" lon="-105.230575">
  <ele>1586.09</ele>
  <time>2026-08-27T18:25:21Z</time>
  <course>10.94</course>
  <speed>0.0</speed>
  <fix>3d</fix>
</trkpt>
<trkpt lat="40.072842" lon="-105.230575">
  <ele>1586.09</ele>
  <time>2026-08-27T18:25:21Z</time>
  <course>265.92</course>
  <speed>0.0</speed>
  <fix>3d</fix>
</trkpt>
<trkpt lat="40.072842" lon="-105.230575">
  <ele>1586.09</ele>
  <time>2026-08-27T18:25:21Z</time>
  <course>11.06</course>
  <speed>0.0</speed>
  <fix>3d</fix>
</trkpt>
<trkpt lat="40.072842" lon="-105.230575">
  <ele>1586.09</ele>
  <time>2026-08-27T18:25:21Z</time>
  <course>266.03</course>
  <speed>0.0</speed>
  <fix>3d</fix>
</trkpt>
<trkpt lat="40.072842" lon="-105.230575">
  <ele>1586.09</ele>
  <time>2026-08-27T18:25:21Z</time>
  <course>11.18</course>
  <speed>0.0</speed>
  <fix>3d</fix>
</trkpt>
<trkpt lat="40.072842" lon="-105.230575">
  <ele>1586.09</ele>
  <time>2026-08-27T18:25:21Z</time>
  <course>266.05</course>
  <speed>0.0</speed>
  <fix>3d</fix>
</trkpt>
<trkpt lat="40.072842" lon="-105.230575">
  <ele>1586.09</ele>
  <time>2026-08-27T18:25:21Z</time>
  <course>11.28</course>
  <speed>0.0</speed>
  <fix>3d</fix>
</trkpt>
<trkpt lat="40.072842" lon="-105.230575">
  <ele>1586.09</ele>
  <time>2026-08-27T18:25:21Z</time>
  <course>266.03</course>
  <speed>0.0</speed>
  <fix>3d</fix>
</trkpt>
<trkpt lat="40.072842" lon="-105.230575">
  <ele>1586.09</ele>
  <time>2026-08-27T18:25:21Z</time>
  <course>11.37</course>
  <speed>0.0</speed>
  <fix>3d</fix>
</trkpt>
<trkpt lat="40.072842" lon="-105.230575">
  <ele>1586.09</ele>
  <time>2026-08-27T18:25:21Z</time>
  <course>266.03</course>
  <speed>0.0</speed>
  <fix>3d</fix>
</trkpt>
<trkpt lat="40.072842" lon="-105.230575">
  <ele>1586.09</ele>
  <time>2026-08-27T18:25:21Z</time>
  <course>11.45</course>
  <speed>0.0</speed>
  <fix>3d</fix>
</trkpt>
<trkpt lat="40.072842" lon="-105.230575">
  <ele>1586.09</ele>
  <time>2026-08-27T18:25:21Z</time>
  <course>266.03</course>
  <speed>0.0</speed>
  <fix>3d</fix>
</trkpt>
<trkpt lat="40.072842" lon="-105.230575">
  <ele>1586.09</ele>
  <time>2026-08-27T18:25:21Z</time>
  <course>11.52</course>
  <speed>0.0</speed>
  <fix>3d</fix>
</trkpt>
<trkpt lat="40.072842" lon="-105.230575">
  <ele>1586.09</ele>
  <time>2026-08-27T18:25:21Z</time>
  <course>266.03</course>
  <speed>0.0</speed>
  <fix>3d</fix>
</trkpt>
<trkpt lat="40.072842" lon="-105.230575">
  <ele>1586.09</ele>
  <time>2026-08-27T18:25:21Z</time>
  <course>11.59</course>
  <speed>0.0</speed>
  <fix>3d</fix>
</trkpt>
<trkpt lat="40.072842" lon="-105.230575">
  <ele>1586.09</ele>
  <time>2026-08-27T18:25:21Z</time>
  <course>266.03</course>
  <speed>0.0</speed>
  <fix>3d</fix>
</trkpt>
<trkpt lat="40.072842" lon="-105.230575">
  <ele>1586.09</ele>
  <time>2026-08-27T18:25:21Z</time>
  <course>11.65</course>
  <speed>0.0</speed>
  <fix>3d</fix>
</trkpt>
<trkpt lat="40.072842" lon="-105.230575">
  <ele>1586.09</ele>
  <time>2026-08-27T18:25:21Z</time>
  <course>266.03</course>
  <speed>0.0</speed>
  <fix>3d</fix>
</trkpt>
<trkpt lat="40.072842" lon="-105.230575">
  <ele>1586.09</ele>
  <time>2026-08-27T18:25:21Z</time>
  <course>11.71</course>
  <speed>0.0</speed>
  <fix>3d</fix>
</trkpt>
<trkpt lat="40.072842" lon="-105.230575">
  <ele>1586.09</ele>
  <time>2026-08-27T18:25:21Z</time>
  <course>266.03</course>
  <speed>0.0</speed>
  <fix>3d</fix>
</trkpt>
<trkpt lat="40.072842" lon="-105.230575">
  <ele>1586.09</ele>
  <time>2026-08-27T18:25:21Z</time>
  <course>11.76</course>
  <speed>0.0</speed>
  <fix>3d</fix>
</trkpt>
<trkpt lat="40.072842" lon="-105.230575">
  <ele>1586.09</ele>
  <time>2026-08-27T18:25:21Z</time>
  <course>266.03</course>
  <speed>0.0</speed>
  <fix>3d</fix>
</trkpt>
<trkpt lat="40.072842" lon="-105.230575">
  <ele>1586.09</ele>
  <time>2026-08-27T18:25:21Z</time>
  <course>11.81</course>
  <speed>0.0</speed>
  <fix>3d</fix>
</trkpt>
<trkpt lat="40.072842" lon="-105.230575">
  <ele>1586.09</ele>
  <time>2026-08-27T18:25:21Z</time>
  <course>266.03</course>
  <speed>0.0</speed>
  <fix>3d</fix>
</trkpt>
<trkpt lat="40.072842" lon="-105.230575">
  <ele>1586.09</ele>
  <time>2026-08-27T18:25:21Z</time>
  <course>11.85</course>
  <speed>0.0</speed>
  <fix>3d</fix>
</trkpt>
<trkpt lat="40.072842" lon="-105.230575">
  <ele>1586.09</ele>
  <time>2026-08-27T18:25:21Z</time>
  <course>266.03</course>
  <speed>0.0</speed>
  <fix>3d</fix>
</trkpt>
<trkpt lat="40.072842" lon="-105.230575">
  <ele>1586.09</ele>
  <time>2026-08-27T18:25:21Z</time>
  <course>11.88</course>
  <speed>0.0</speed>
  <fix>3d</fix>
</trkpt>
<trkpt lat="40.072842" lon="-105.230575">
  <ele>1586.09</ele>
  <time>2026-08-27T18:25:21Z</time>
  <course>266.03</course>
  <speed>0.0</speed>
  <fix>3d</fix>
</trkpt>
<trkpt lat="40.072842" lon="-105.230575">
  <ele>1586.09</ele>
  <time>2026-08-27T18:25:21Z</time>
  <course>11.92</course>
  <speed>0.0</speed>
  <fix>3d</fix>
</trkpt>
<trkpt lat="40.072842" lon="-105.230575">
  <ele>1586.09</ele>
  <time>2026-08-27T18:25:21Z</time>
  <course>266.03</course>
  <speed>0.0</speed>
  <fix>3d</fix>
</trkpt>
<trkpt lat="40.072842" lon="-105.230575">
  <ele>1586.09</ele>
  <time>2026-08-27T18:25:21Z</time>
  <course>11.95</course>
  <speed>0.0</speed>
  <fix>3d</fix>
</trkpt>
<trkpt lat="40.072842" lon="-105.230575">
  <ele>1586.09</ele>
  <time>2026-08-27T18:25:21Z</time>
  <course>266.03</course>
  <speed>0.0</speed>
  <fix>3d</fix>
</trkpt>
<trkpt lat="40.072842" lon="-105.230575">
  <ele>1586.09</ele>
  <time>2026-08-27T18:25:21Z</time>
  <course>11.97</course>
  <speed>0.0</speed>
  <fix>3d</fix>
</trkpt>
<trkpt lat="40.072842" lon="-105.230575">
  <ele>1586.09</ele>
  <time>2026-08-27T18:25:21Z</time>
  <course>266.03</course>
  <speed>0.0</speed>
  <fix>3d</fix>
</trkpt>
<trkpt lat="40.072842" lon="-105.230575">
  <ele>1586.09</ele>
  <time>2026-08-27T18:25:21Z</time>
  <course>12.0</course>
  <speed>0.0</speed>
  <fix>3d</fix>
</trkpt>
<trkpt lat="40.072842" lon="-105.230575">
  <ele>1586.09</ele>
  <time>2026-08-27T18:25:21Z</time>
  <course>266.03</course>
  <speed>0.0</speed>
  <fix>3d</fix>
</trkpt>
<trkpt lat="40.072842" lon="-105.230575">
  <ele>1586.09</ele>
  <time>2026-08-27T18:25:21Z</time>
  <course>12.02</course>
  <speed>0.0</speed>
  <fix>3d</fix>
</trkpt>
<trkpt lat="40.072842" lon="-105.230575">
  <ele>1586.09</ele>
  <time>2026-08-27T18:25:21Z</time>
  <course>266.03</course>
  <speed>0.0</speed>
  <fix>3d</fix>
</trkpt>
<trkpt lat="40.072842" lon="-105.230575">
  <ele>1586.09</ele>
  <time>2026-08-27T18:25:21Z</time>
  <course>12.04</course>
  <speed>0.0</speed>
  <fix>3d</fix>
</trkpt>
<trkpt lat="40.072842" lon="-105.230575">
  <ele>1586.09</ele>
  <time>2026-08-27T18:25:21Z</time>
  <course>266.03</course>
  <speed>0.0</speed>
  <fix>3d</fix>
</trkpt>
<trkpt lat="40.072842" lon="-105.230575">
  <ele>1586.09</ele>
  <time>2026-08-27T18:25:21Z</time>
  <course>12.05</course>
  <speed>0.0</speed>
  <fix>3d</fix>
</trkpt>
<trkpt lat="40.072842" lon="-105.230575">
  <ele>1586.09</ele>
  <time>2026-08-27T18:25:21Z</time>
  <course>266.03</course>
  <speed>0.0</speed>
  <fix>3d</fix>
</trkpt>
<trkpt lat="40.072842" lon="-105.230575">
  <ele>1586.09</ele>
  <time>2026-08-27T18:25:21Z</time>
  <course>12.07</course>
  <speed>0.0</speed>
  <fix>3d</fix>
</trkpt>
<trkpt lat="40.072842" lon="-105.230575">
  <ele>1586.09</ele>
  <time>2026-08-27T18:25:21Z</time>
  <course>266.03</course>
  <speed>0.0</speed>
  <fix>3d</fix>
</trkpt>
<trkpt lat="40.072842" lon="-105.230575">
  <ele>1586.09</ele>
  <time>2026-08-27T18:25:21Z</time>
  <course>12.08</course>
  <speed>0.0</speed>
  <fix>3d</fix>
</trkpt>
<trkpt lat="40.072842" lon="-105.230575">
  <ele>1586.09</ele>
  <time>2026-08-27T18:25:21Z</time>
  <course>266.03</course>
  <speed>0.0</speed>
  <fix>3d</fix>
</trkpt>
<trkpt lat="40.072842" lon="-105.230575">
  <ele>1586.09</ele>
  <time>2026-08-27T18:25:21Z</time>
  <course>12.09</course>
  <speed>0.0</speed>
  <fix>3d</fix>
</trkpt>
<trkpt lat="40.072842" lon="-105.230575">
  <ele>1586.09</ele>
  <time>2026-08-27T18:25:21Z</time>
  <course>266.03</course>
  <speed>0.0</speed>
  <fix>3d</fix>
</trkpt>
<trkpt lat="40.072842" lon="-105.230575">
  <ele>1586.09</ele>
  <time>2026-08-27T18:25:21Z</time>
  <course>12.09</course>
  <speed>0.0</speed>
  <fix>3d</fix>
</trkpt>
<trkpt lat="40.072842" lon="-105.230575">
  <ele>1586.09</ele>
  <time>2026-08-27T18:25:21Z</time>
  <course>266.03</course>
  <speed>0.0</speed>
  <fix>3d</fix>
</trkpt>
<trkpt lat="40.072842" lon="-105.230575">
  <ele>1586.09</ele>
  <time>2026-08-27T18:25:21Z</time>
  <course>12.1</course>
  <speed>0.0</speed>
  <fix>3d</fix>
</trkpt>
<trkpt lat="40.072842" lon="-105.230575">
  <ele>1586.09</ele>
  <time>2026-08-27T18:25:21Z</time>
  <course>266.03</course>
  <speed>0.0</speed>
  <fix>3d</fix>
</trkpt>
<trkpt lat="40.072842" lon="-105.230575">
  <ele>1586.09</ele>
  <time>2026-08-27T18:25:21Z</time>
  <course>12.11</course>
  <speed>0.0</speed>
  <fix>3d</fix>
</trkpt>
<trkpt lat="40.072842" lon="-105.230575">
  <ele>1586.09</ele>
  <time>2026-08-27T18:25:21Z</time>
  <course>266.03</course>
  <speed>0.0</speed>
  <fix>3d</fix>
</trkpt>
<trkpt lat="40.072842" lon="-105.230575">
  <ele>1586.09</ele>
  <time>2026-08-27T18:25:21Z</time>
  <course>12.12</course>
  <speed>0.0</speed>
  <fix>3d</fix>
</trkpt>
<trkpt lat="40.072842" lon="-105.230575">
  <ele>1586.09</ele>
  <time>2026-08-27T18:25:21Z</time>
  <course>266.03</course>
  <speed>0.0</speed>
  <fix>3d</fix>
</trkpt>
<trkpt lat="40.072842" lon="-105.230575">
  <ele>1586.09</ele>
  <time>2026-08-27T18:25:21Z</time>
  <course>12.12</course>
  <speed>0.0</speed>
  <fix>3d</fix>
</trkpt>
<trkpt lat="40.072842" lon="-105.230575">
  <ele>1586.09</ele>
  <time>2026-08-27T18:25:21Z</time>
  <course>266.03</course>
  <speed>0.0</speed>
  <fix>3d</fix>
</trkpt>
<trkpt lat="40.072842" lon="-105.230575">
  <ele>1586.09</ele>
  <time>2026-08-27T18:25:21Z</time>
  <course>12.12</course>
  <speed>0.0</speed>
  <fix>3d</fix>
</trkpt>
<trkpt lat="40.072842" lon="-105.230575">
  <ele>1586.09</ele>
  <time>2026-08-27T18:25:21Z</time>
  <course>266.03</course>
  <speed>0.0</speed>
  <fix>3d</fix>
</trkpt>
<trkpt lat="40.072842" lon="-105.230575">
  <ele>1586.09</ele>
  <time>2026-08-27T18:25:21Z</time>
  <course>12.13</course>
  <speed>0.0</speed>
  <fix>3d</fix>
</trkpt>
<trkpt lat="40.072842" lon="-105.230575">
  <ele>1586.09</ele>
  <time>2026-08-27T18:25:21Z</time>
  <course>266.03</course>
  <speed>0.0</speed>
  <fix>3d</fix>
</trkpt>
<trkpt lat="40.072842" lon="-105.230575">
  <ele>1586.09</ele>
  <time>2026-08-27T18:25:21Z</time>
  <course>12.13</course>
  <speed>0.0</speed>
  <fix>3d</fix>
</trkpt>
<trkpt lat="40.072842" lon="-105.230575">
  <ele>1586.09</ele>
  <time>2026-08-27T18:25:21Z</time>
  <course>266.03</course>
  <speed>0.0</speed>
  <fix>3d</fix>
</trkpt>
<trkpt lat="40.072842" lon="-105.230575">
  <ele>1586.09</ele>
  <time>2026-08-27T18:25:21Z</time>
  <course>12.13</course>
  <speed>0.0</speed>
  <fix>3d</fix>
</trkpt>
<trkpt lat="40.072842" lon="-105.230575">
  <ele>1586.09</ele>
  <time>2026-08-27T18:25:21Z</time>
  <course>266.03</course>
  <speed>0.0</speed>
  <fix>3d</fix>
</trkpt>
<trkpt lat="40.072842" lon="-105.230575">
  <ele>1586.09</ele>
  <time>2026-08-27T18:25:21Z</time>
  <course>12.12</course>
  <speed>0.01</speed>
  <fix>3d</fix>
</trkpt>
<trkpt lat="40.072842" lon="-105.230575">
  <ele>1586.09</ele>
  <time>2026-08-27T18:25:21Z</time>
  <course>266.03</course>
  <speed>0.0</speed>
  <fix>3d</fix>
</trkpt>
<trkpt lat="40.072842" lon="-105.230575">
  <ele>1586.09</ele>
  <time>2026-08-27T18:25:21Z</time>
  <course>12.12</course>
  <speed>0.01</speed>
  <fix>3d</fix>
</trkpt>
<trkpt lat="40.072842" lon="-105.230575">
  <ele>1586.09</ele>
  <time>2026-08-27T18:25:21Z</time>
  <course>266.03</course>
  <speed>0.0</speed>
  <fix>3d</fix>
</trkpt>
<trkpt lat="40.072842" lon="-105.230575">
  <ele>1586.09</ele>
  <time>2026-08-27T18:25:21Z</time>
  <course>12.12</course>
  <speed>0.01</speed>
  <fix>3d</fix>
</trkpt>
<trkpt lat="40.072842" lon="-105.230575">
  <ele>1586.09</ele>
  <time>2026-08-27T18:25:21Z</time>
  <course>266.03</course>
  <speed>0.0</speed>
  <fix>3d</fix>
</trkpt>
<trkpt lat="40.072842" lon="-105.230575">
  <ele>1586.09</ele>
  <time>2026-08-27T18:25:21Z</time>
  <course>12.12</course>
  <speed>0.01</speed>
  <fix>3d</fix>
</trkpt>
<trkpt lat="40.072842" lon="-105.230575">
  <ele>1586.09</ele>
  <time>2026-08-27T18:25:21Z</time>
  <course>266.03</course>
  <speed>0.0</speed>
  <fix>3d</fix>
</trkpt>
<trkpt lat="40.072842" lon="-105.230575">
  <ele>1586.09</ele>
  <time>2026-08-27T18:25:21Z</time>
  <course>12.11</course>
  <speed>0.01</speed>
  <fix>3d</fix>
</trkpt>
<trkpt lat="40.072842" lon="-105.230575">
  <ele>1586.09</ele>
  <time>2026-08-27T18:25:21Z</time>
  <course>266.03</course>
  <speed>0.0</speed>
  <fix>3d</fix>
</trkpt>
<trkpt lat="40.072842" lon="-105.230575">
  <ele>1586.09</ele>
  <time>2026-08-27T18:25:21Z</time>
  <course>12.11</course>
  <speed>0.01</speed>
  <fix>3d</fix>
</trkpt>
<trkpt lat="40.072842" lon="-105.230575">
  <ele>1586.09</ele>
  <time>2026-08-27T18:25:21Z</time>
  <course>266.03</course>
  <speed>0.0</speed>
  <fix>3d</fix>
</trkpt>
<trkpt lat="40.072842" lon="-105.230575">
  <ele>1586.09</ele>
  <time>2026-08-27T18:25:21Z</time>
  <course>12.1</course>
  <speed>0.01</speed>
  <fix>3d</fix>
</trkpt>
<trkpt lat="40.072842" lon="-105.230575">
  <ele>1586.09</ele>
  <time>2026-08-27T18:25:21Z</time>
  <course>266.03</course>
  <speed>0.0</speed>
  <fix>3d</fix>
</trkpt>
<trkpt lat="40.072842" lon="-105.230575">
  <ele>1586.09</ele>
  <time>2026-08-27T18:25:21Z</time>
  <course>12.1</course>
  <speed>0.01</speed>
  <fix>3d</fix>
</trkpt>
<trkpt lat="40.072842" lon="-105.230575">
  <ele>1586.09</ele>
  <time>2026-08-27T18:25:21Z</time>
  <course>266.03</course>
  <speed>0.0</speed>
  <fix>3d</fix>
</trkpt>
<trkpt lat="40.072842" lon="-105.230575">
  <ele>1586.09</ele>
  <time>2026-08-27T18:25:21Z</time>
  <course>12.09</course>
  <speed>0.01</speed>
  <fix>3d</fix>
</trkpt>
<trkpt lat="40.072842" lon="-105.230575">
  <ele>1586.09</ele>
  <time>2026-08-27T18:25:21Z</time>
  <course>266.03</course>
  <speed>0.0</speed>
  <fix>3d</fix>
</trkpt>
<trkpt lat="40.072842" lon="-105.230575">
  <ele>1586.09</ele>
  <time>2026-08-27T18:25:21Z</time>
  <course>12.09</course>
  <speed>0.01</speed>
  <fix>3d</fix>
</trkpt>
<trkpt lat="40.072842" lon="-105.230575">
  <ele>1586.09</ele>
  <time>2026-08-27T18:25:21Z</time>
  <course>266.03</course>
  <speed>0.0</speed>
  <fix>3d</fix>
</trkpt>
<trkpt lat="40.072842" lon="-105.230575">
  <ele>1586.09</ele>
  <time>2026-08-27T18:25:21Z</time>
  <course>12.08</course>
  <speed>0.01</speed>
  <fix>3d</fix>
</trkpt>
<trkpt lat="40.072842" lon="-105.230575">
  <ele>1586.09</ele>
  <time>2026-08-27T18:25:21Z</time>
  <course>266.03</course>
  <speed>0.0</speed>
  <fix>3d</fix>
</trkpt>
<trkpt lat="40.072842" lon="-105.230575">
  <ele>1586.09</ele>
  <time>2026-08-27T18:25:21Z</time>
  <course>12.08</course>
  <speed>0.01414213562373095</speed>
  <fix>3d</fix>
</trkpt>
<trkpt lat="40.072842" lon="-105.230575">
  <ele>1586.09</ele>
  <time>2026-08-27T18:25:21Z</time>
  <course>266.03</course>
  <speed>0.0</speed>
  <fix>3d</fix>
</trkpt>
<trkpt lat="40.072842" lon="-105.230575">
  <ele>1586.09</ele>
  <time>2026-08-27T18:25:21Z</time>
  <course>12.07</course>
  <speed>0.01414213562373095</speed>
  <fix>3d</fix>
</trkpt>
<trkpt lat="40.072842" lon="-105.230575">
  <ele>1586.09</ele>
  <time>2026-08-27T18:25:21Z</time>
  <course>266.03</course>
  <speed>0.0</speed>
  <fix>3d</fix>
</trkpt>
<trkpt lat="40.072842" lon="-105.230575">
  <ele>1586.09</ele>
  <time>2026-08-27T18:25:21Z</time>
  <course>12.06</course>
  <speed>0.01414213562373095</speed>
  <fix>3d</fix>
</trkpt>
<trkpt lat="40.072842" lon="-105.230575">
  <ele>1586.09</ele>
  <time>2026-08-27T18:25:21Z</time>
  <course>266.03</course>
  <speed>0.0</speed>
  <fix>3d</fix>
</trkpt>
<trkpt lat="40.072842" lon="-105.230575">
  <ele>1586.09</ele>
  <time>2026-08-27T18:25:21Z</time>
  <course>12.05</course>
  <speed>0.01414213562373095</speed>
  <fix>3d</fix>
</trkpt>
<trkpt lat="40.072842" lon="-105.230575">
  <ele>1586.09</ele>
  <time>2026-08-27T18:25:21Z</time>
  <course>266.03</course>
  <speed>0.0</speed>
  <fix>3d</fix>
</trkpt>
<trkpt lat="40.072842" lon="-105.230575">
  <ele>1586.09</ele>
  <time>2026-08-27T18:25:21Z</time>
  <course>12.05</course>
  <speed>0.01414213562373095</speed>
  <fix>3d</fix>
</trkpt>
<trkpt lat="40.072842" lon="-105.230575">
  <ele>1586.09</ele>
  <time>2026-08-27T18:25:21Z</time>
  <course>266.03</course>
  <speed>0.0</speed>
  <fix>3d</fix>
</trkpt>
<trkpt lat="40.072842" lon="-105.230575">
  <ele>1586.09</ele>
  <time>2026-08-27T18:25:21Z</time>
  <course>12.04</course>
  <speed>0.01414213562373095</speed>
  <fix>3d</fix>
</trkpt>
<trkpt lat="40.072842" lon="-105.230575">
  <ele>1586.09</ele>
  <time>2026-08-27T18:25:21Z</time>
  <course>266.03</course>
  <speed>0.0</speed>
  <fix>3d</fix>
</trkpt>
<trkpt lat="40.072842" lon="-105.230575">
  <ele>1586.09</ele>
  <time>2026-08-27T18:25:21Z</time>
  <course>12.03</course>
  <speed>0.01414213562373095</speed>
  <fix>3d</fix>
</trkpt>
<trkpt lat="40.072842" lon="-105.230575">
  <ele>1586.09</ele>
  <time>2026-08-27T18:25:21Z</time>
  <course>266.03</course>
  <speed>0.0</speed>
  <fix>3d</fix>
</trkpt>
<trkpt lat="40.072842" lon="-105.230575">
  <ele>1586.09</ele>
  <time>2026-08-27T18:25:21Z</time>
  <course>12.03</course>
  <speed>0.01414213562373095</speed>
  <fix>3d</fix>
</trkpt>
<trkpt lat="40.072842" lon="-105.230575">
  <ele>1586.09</ele>
  <time>2026-08-27T18:25:21Z</time>
  <course>266.03</course>
  <speed>0.0</speed>
  <fix>3d</fix>
</trkpt>
<trkpt lat="40.072842" lon="-105.230575">
  <ele>1586.09</ele>
  <time>2026-08-27T18:25:21Z</time>
  <course>12.02</course>
  <speed>0.01414213562373095</speed>
  <fix>3d</fix>
</trkpt>
<trkpt lat="40.072842" lon="-105.230575">
  <ele>1586.09</ele>
  <time>2026-08-27T18:25:21Z</time>
  <course>266.03</course>
  <speed>0.0</speed>
  <fix>3d</fix>
</trkpt>
<trkpt lat="40.072842" lon="-105.230575">
  <ele>1586.09</ele>
  <time>2026-08-27T18:25:21Z</time>
  <course>12.01</course>
  <speed>0.01414213562373095</speed>
  <fix>3d</fix>
</trkpt>
<trkpt lat="40.072842" lon="-105.230575">
  <ele>1586.09</ele>
  <time>2026-08-27T18:25:21Z</time>
  <course>266.03</course>
  <speed>0.0</speed>
  <fix>3d</fix>
</trkpt>
<trkpt lat="40.072842" lon="-105.230575">
  <ele>1586.09</ele>
  <time>2026-08-27T18:25:21Z</time>
  <course>12.01</course>
  <speed>0.01414213562373095</speed>
  <fix>3d</fix>
</trkpt>
<trkpt lat="40.072842" lon="-105.230575">
  <ele>1586.09</ele>
  <time>2026-08-27T18:25:21Z</time>
  <course>266.03</course>
  <speed>0.0</speed>
  <fix>3d</fix>
</trkpt>
<trkpt lat="40.072842" lon="-105.230575">
  <ele>1586.09</ele>
  <time>2026-08-27T18:25:21Z</time>
  <course>12.0</course>
  <speed>0.01414213562373095</speed>
  <fix>3d</fix>
</trkpt>
<trkpt lat="40.072842" lon="-105.230575">
  <ele>1586.09</ele>
  <time>2026-08-27T18:25:21Z</time>
  <course>266.03</course>
  <speed>0.0</speed>
  <fix>3d</fix>
</trkpt>
<trkpt lat="40.072842" lon="-105.230575">
  <ele>1586.09</ele>
  <time>2026-08-27T18:25:21Z</time>
  <course>11.99</course>
  <speed>0.01414213562373095</speed>
  <fix>3d</fix>
</trkpt>
<trkpt lat="40.072842" lon="-105.230575">
  <ele>1586.09</ele>
  <time>2026-08-27T18:25:21Z</time>
  <course>266.03</course>
  <speed>0.0</speed>
  <fix>3d</fix>
</trkpt>
<trkpt lat="40.072842" lon="-105.230575">
  <ele>1586.09</ele>
  <time>2026-08-27T18:25:21Z</time>
  <course>11.98</course>
  <speed>0.01414213562373095</speed>
  <fix>3d</fix>
</trkpt>
<trkpt lat="40.072842" lon="-105.230575">
  <ele>1586.09</ele>
  <time>2026-08-27T18:25:21Z</time>
  <course>266.03</course>
  <speed>0.0</speed>
  <fix>3d</fix>
</trkpt>
<trkpt lat="40.072842" lon="-105.230575">
  <ele>1586.09</ele>
  <time>2026-08-27T18:25:21Z</time>
  <course>11.98</course>
  <speed>0.01414213562373095</speed>
  <fix>3d</fix>
</trkpt>
<trkpt lat="40.072842" lon="-105.230575">
  <ele>1586.09</ele>
  <time>2026-08-27T18:25:21Z</time>
  <course>266.03</course>
  <speed>0.0</speed>
  <fix>3d</fix>
</trkpt>
<trkpt lat="40.072842" lon="-105.230575">
  <ele>1586.09</ele>
  <time>2026-08-27T18:25:21Z</time>
  <course>11.97</course>
  <speed>0.022360679774997897</speed>
  <fix>3d</fix>
</trkpt>
<trkpt lat="40.072842" lon="-105.230575">
  <ele>1586.09</ele>
  <time>2026-08-27T18:25:21Z</time>
  <course>266.03</course>
  <speed>0.0</speed>
  <fix>3d</fix>
</trkpt>
<trkpt lat="40.072842" lon="-105.230575">
  <ele>1586.09</ele>
  <time>2026-08-27T18:25:21Z</time>
  <course>11.96</course>
  <speed>0.022360679774997897</speed>
  <fix>3d</fix>
</trkpt>
<trkpt lat="40.072842" lon="-105.230575">
  <ele>1586.09</ele>
  <time>2026-08-27T18:25:21Z</time>
  <course>266.03</course>
  <speed>0.0</speed>
  <fix>3d</fix>
</trkpt>
<trkpt lat="40.072842" lon="-105.230575">
  <ele>1586.09</ele>
  <time>2026-08-27T18:25:21Z</time>
  <course>11.95</course>
  <speed>0.022360679774997897</speed>
  <fix>3d</fix>
</trkpt>
<trkpt lat="40.072842" lon="-105.230575">
  <ele>1586.09</ele>
  <time>2026-08-27T18:25:21Z</time>
  <course>266.03</course>
  <speed>0.0</speed>
  <fix>3d</fix>
</trkpt>
<trkpt lat="40.072842" lon="-105.230575">
  <ele>1586.09</ele>
  <time>2026-08-27T18:25:21Z</time>
  <course>11.94</course>
  <speed>0.022360679774997897</speed>
  <fix>3d</fix>
</trkpt>
<trkpt lat="40.072842" lon="-105.230575">
  <ele>1586.09</ele>
  <time>2026-08-27T18:25:21Z</time>
  <course>266.03</course>
  <speed>0.0</speed>
  <fix>3d</fix>
</trkpt>
<trkpt lat="40.072842" lon="-105.230575">
  <ele>1586.09</ele>
  <time>2026-08-27T18:25:21Z</time>
  <course>11.93</course>
  <speed>0.022360679774997897</speed>
  <fix>3d</fix>
</trkpt>
<trkpt lat="40.072842" lon="-105.230575">
  <ele>1586.09</ele>
  <time>2026-08-27T18:25:21Z</time>
  <course>266.03</course>
  <speed>0.0</speed>
  <fix>3d</fix>
</trkpt>
<trkpt lat="40.072842" lon="-105.230575">
  <ele>1586.09</ele>
  <time>2026-08-27T18:25:21Z</time>
  <course>11.92</course>
  <speed>0.022360679774997897</speed>
  <fix>3d</fix>
</trkpt>
<trkpt lat="40.072842" lon="-105.230575">
  <ele>1586.09</ele>
  <time>2026-08-27T18:25:21Z</time>
  <course>266.03</course>
  <speed>0.0</speed>
  <fix>3d</fix>
</trkpt>
<trkpt lat="40.072842" lon="-105.230575">
  <ele>1586.09</ele>
  <time>2026-08-27T18:25:21Z</time>
  <course>11.92</course>
  <speed>0.022360679774997897</speed>
  <fix>3d</fix>
</trkpt>
<trkpt lat="40.072842" lon="-105.230575">
  <ele>1586.09</ele>
  <time>2026-08-27T18:25:21Z</time>
  <course>266.03</course>
  <speed>0.0</speed>
  <fix>3d</fix>
</trkpt>
<trkpt lat="40.072842" lon="-105.230575">
  <ele>1586.09</ele>
  <time>2026-08-27T18:25:21Z</time>
  <course>11.91</course>
  <speed>0.022360679774997897</speed>
  <fix>3d</fix>
</trkpt>
<trkpt lat="40.072842" lon="-105.230575">
  <ele>1586.09</ele>
  <time>2026-08-27T18:25:21Z</time>
  <course>266.03</course>
  <speed>0.0</speed>
  <fix>3d</fix>
</trkpt>
<trkpt lat="40.072842" lon="-105.230575">
  <ele>1586.09</ele>
  <time>2026-08-27T18:25:21Z</time>
  <course>11.9</course>
  <speed>0.022360679774997897</speed>
  <fix>3d</fix>
</trkpt>
<trkpt lat="40.072842" lon="-105.230575">
  <ele>1586.09</ele>
  <time>2026-08-27T18:25:21Z</time>
  <course>266.03</course>
  <speed>0.0</speed>
  <fix>3d</fix>
</trkpt>
<trkpt lat="40.072842" lon="-105.230575">
  <ele>1586.09</ele>
  <time>2026-08-27T18:25:21Z</time>
  <course>11.89</course>
  <speed>0.022360679774997897</speed>
  <fix>3d</fix>
</trkpt>
<trkpt lat="40.072842" lon="-105.230575">
  <ele>1586.09</ele>
  <time>2026-08-27T18:25:21Z</time>
  <course>266.03</course>
  <speed>0.0</speed>
  <fix>3d</fix>
</trkpt>
<trkpt lat="40.072842" lon="-105.230575">
  <ele>1586.09</ele>
  <time>2026-08-27T18:25:21Z</time>
  <course>11.88</course>
  <speed>0.022360679774997897</speed>
  <fix>3d</fix>
</trkpt>
<trkpt lat="40.072842" lon="-105.230575">
  <ele>1586.09</ele>
  <time>2026-08-27T18:25:21Z</time>
  <course>266.03</course>
  <speed>0.0</speed>
  <fix>3d</fix>
</trkpt>
<trkpt lat="40.072842" lon="-105.230575">
  <ele>1586.09</ele>
  <time>2026-08-27T18:25:21Z</time>
  <course>11.88</course>
  <speed>0.022360679774997897</speed>
  <fix>3d</fix>
</trkpt>
<trkpt lat="40.072842" lon="-105.230575">
  <ele>1586.09</ele>
  <time>2026-08-27T18:25:21Z</time>
  <course>266.03</course>
  <speed>0.0</speed>
  <fix>3d</fix>
</trkpt>
<trkpt lat="40.072842" lon="-105.230575">
  <ele>1586.09</ele>
  <time>2026-08-27T18:25:21Z</time>
  <course>11.87</course>
  <speed>0.022360679774997897</speed>
  <fix>3d</fix>
</trkpt>
<trkpt lat="40.072842" lon="-105.230575">
  <ele>1586.09</ele>
  <time>2026-08-27T18:25:21Z</time>
  <course>266.03</course>
  <speed>0.0</speed>
  <fix>3d</fix>
</trkpt>
<trkpt lat="40.072842" lon="-105.230575">
  <ele>1586.09</ele>
  <time>2026-08-27T18:25:21Z</time>
  <course>11.86</course>
  <speed>0.022360679774997897</speed>
  <fix>3d</fix>
</trkpt>
<trkpt lat="40.072842" lon="-105.230575">
  <ele>1586.09</ele>
  <time>2026-08-27T18:25:21Z</time>
  <course>266.03</course>
  <speed>0.0</speed>
  <fix>3d</fix>
</trkpt>
<trkpt lat="40.072842" lon="-105.230575">
  <ele>1586.09</ele>
  <time>2026-08-27T18:25:21Z</time>
  <course>11.85</course>
  <speed>0.022360679774997897</speed>
  <fix>3d</fix>
</trkpt>
<trkpt lat="40.072842" lon="-105.230575">
  <ele>1586.09</ele>
  <time>2026-08-27T18:25:21Z</time>
  <course>266.03</course>
  <speed>0.0</speed>
  <fix>3d</fix>
</trkpt>
<trkpt lat="40.072842" lon="-105.230575">
  <ele>1586.09</ele>
  <time>2026-08-27T18:25:21Z</time>
  <course>11.84</course>
  <speed>0.0282842712474619</speed>
  <fix>3d</fix>
</trkpt>
<trkpt lat="40.072842" lon="-105.230575">
  <ele>1586.09</ele>
  <time>2026-08-27T18:25:21Z</time>
  <course>266.03</course>
  <speed>0.0</speed>
  <fix>3d</fix>
</trkpt>
<trkpt lat="40.072842" lon="-105.230575">
  <ele>1586.09</ele>
  <time>2026-08-27T18:25:21Z</time>
  <course>11.83</course>
  <speed>0.0282842712474619</speed>
  <fix>3d</fix>
</trkpt>
<trkpt lat="40.072842" lon="-105.230575">
  <ele>1586.09</ele>
  <time>2026-08-27T18:25:21Z</time>
  <course>266.03</course>
  <speed>0.0</speed>
  <fix>3d</fix>
</trkpt>
<trkpt lat="40.072842" lon="-105.230575">
  <ele>1586.09</ele>
  <time>2026-08-27T18:25:21Z</time>
  <course>11.83</course>
  <speed>0.0282842712474619</speed>
  <fix>3d</fix>
</trkpt>
<trkpt lat="40.072842" lon="-105.230575">
  <ele>1586.09</ele>
  <time>2026-08-27T18:25:21Z</time>
  <course>266.03</course>
  <speed>0.0</speed>
  <fix>3d</fix>
</trkpt>
<trkpt lat="40.072842" lon="-105.230575">
  <ele>1586.09</ele>
  <time>2026-08-27T18:25:21Z</time>
  <course>11.82</course>
  <speed>0.0282842712474619</speed>
  <fix>3d</fix>
</trkpt>
<trkpt lat="40.072842" lon="-105.230575">
  <ele>1586.09</ele>
  <time>2026-08-27T18:25:21Z</time>
  <course>266.03</course>
  <speed>0.0</speed>
  <fix>3d</fix>
</trkpt>
<trkpt lat="40.072842" lon="-105.230575">
  <ele>1586.09</ele>
  <time>2026-08-27T18:25:21Z</time>
  <course>11.81</course>
  <speed>0.0282842712474619</speed>
  <fix>3d</fix>
</trkpt>
<trkpt lat="40.072842" lon="-105.230575">
  <ele>1586.09</ele>
  <time>2026-08-27T18:25:21Z</time>
  <course>266.03</course>
  <speed>0.0</speed>
  <fix>3d</fix>
</trkpt>
<trkpt lat="40.072842" lon="-105.230575">
  <ele>1586.09</ele>
  <time>2026-08-27T18:25:21Z</time>
  <course>11.8</course>
  <speed>0.0282842712474619</speed>
  <fix>3d</fix>
</trkpt>
<trkpt lat="40.072842" lon="-105.230575">
  <ele>1586.09</ele>
  <time>2026-08-27T18:25:21Z</time>
  <course>266.03</course>
  <speed>0.0</speed>
  <fix>3d</fix>
</trkpt>
<trkpt lat="40.072842" lon="-105.230575">
  <ele>1586.09</ele>
  <time>2026-08-27T18:25:21Z</time>
  <course>11.79</course>
  <speed>0.0282842712474619</speed>
  <fix>3d</fix>
</trkpt>
<trkpt lat="40.072842" lon="-105.230575">
  <ele>1586.09</ele>
  <time>2026-08-27T18:25:21Z</time>
  <course>266.03</course>
  <speed>0.0</speed>
  <fix>3d</fix>
</trkpt>
<trkpt lat="40.072842" lon="-105.230575">
  <ele>1586.09</ele>
  <time>2026-08-27T18:25:21Z</time>
  <course>11.79</course>
  <speed>0.0282842712474619</speed>
  <fix>3d</fix>
</trkpt>
<trkpt lat="40.072842" lon="-105.230575">
  <ele>1586.09</ele>
  <time>2026-08-27T18:25:21Z</time>
  <course>266.03</course>
  <speed>0.0</speed>
  <fix>3d</fix>
</trkpt>
<trkpt lat="40.072842" lon="-105.230575">
  <ele>1586.09</ele>
  <time>2026-08-27T18:25:21Z</time>
  <course>11.78</course>
  <speed>0.0282842712474619</speed>
  <fix>3d</fix>
</trkpt>
<trkpt lat="40.072842" lon="-105.230575">
  <ele>1586.09</ele>
  <time>2026-08-27T18:25:21Z</time>
  <course>266.03</course>
  <speed>0.0</speed>
  <fix>3d</fix>
</trkpt>
<trkpt lat="40.072842" lon="-105.230575">
  <ele>1586.09</ele>
  <time>2026-08-27T18:25:21Z</time>
  <course>11.77</course>
  <speed>0.0282842712474619</speed>
  <fix>3d</fix>
</trkpt>
<trkpt lat="40.072842" lon="-105.230575">
  <ele>1586.09</ele>
  <time>2026-08-27T18:25:21Z</time>
  <course>266.03</course>
  <speed>0.0</speed>
  <fix>3d</fix>
</trkpt>
<trkpt lat="40.072842" lon="-105.230575">
  <ele>1586.09</ele>
  <time>2026-08-27T18:25:21Z</time>
  <course>11.77</course>
  <speed>0.0282842712474619</speed>
  <fix>3d</fix>
</trkpt>
<trkpt lat="40.072842" lon="-105.230575">
  <ele>1586.09</ele>
  <time>2026-08-27T18:25:21Z</time>
  <course>266.03</course>
  <speed>0.0</speed>
  <fix>3d</fix>
</trkpt>
<trkpt lat="40.072842" lon="-105.230575">
  <ele>1586.09</ele>
  <time>2026-08-27T18:25:21Z</time>
  <course>11.76</course>
  <speed>0.0282842712474619</speed>
  <fix>3d</fix>
</trkpt>
<trkpt lat="40.072842" lon="-105.230575">
  <ele>1586.09</ele>
  <time>2026-08-27T18:25:21Z</time>
  <course>266.03</course>
  <speed>0.0</speed>
  <fix>3d</fix>
</trkpt>
<trkpt lat="40.072842" lon="-105.230575">
  <ele>1586.09</ele>
  <time>2026-08-27T18:25:21Z</time>
  <course>11.75</course>
  <speed>0.0282842712474619</speed>
  <fix>3d</fix>
</trkpt>
<trkpt lat="40.072842" lon="-105.230575">
  <ele>1586.09</ele>
  <time>2026-08-27T18:25:21Z</time>
  <course>266.03</course>
  <speed>0.0</speed>
  <fix>3d</fix>
</trkpt>
<trkpt lat="40.072842" lon="-105.230575">
  <ele>1586.09</ele>
  <time>2026-08-27T18:25:21Z</time>
  <course>11.74</course>
  <speed>0.03605551275463989</speed>
  <fix>3d</fix>
</trkpt>
<trkpt lat="40.072842" lon="-105.230575">
  <ele>1586.09</ele>
  <time>2026-08-27T18:25:21Z</time>
  <course>266.03</course>
  <speed>0.0</speed>
  <fix>3d</fix>
</trkpt>
<trkpt lat="40.072842" lon="-105.230575">
  <ele>1586.09</ele>
  <time>2026-08-27T18:25:21Z</time>
  <course>11.73</course>
  <speed>0.03605551275463989</speed>
  <fix>3d</fix>
</trkpt>
<trkpt lat="40.072842" lon="-105.230575">
  <ele>1586.09</ele>
  <time>2026-08-27T18:25:21Z</time>
  <course>266.03</course>
  <speed>0.0</speed>
  <fix>3d</fix>
</trkpt>
<trkpt lat="40.072842" lon="-105.230575">
  <ele>1586.09</ele>
  <time>2026-08-27T18:25:21Z</time>
  <course>11.73</course>
  <speed>0.03605551275463989</speed>
  <fix>3d</fix>
</trkpt>
<trkpt lat="40.072842" lon="-105.230575">
  <ele>1586.09</ele>
  <time>2026-08-27T18:25:21Z</time>
  <course>266.03</course>
  <speed>0.0</speed>
  <fix>3d</fix>
</trkpt>
<trkpt lat="40.072842" lon="-105.230575">
  <ele>1586.09</ele>
  <time>2026-08-27T18:25:21Z</time>
  <course>11.72</course>
  <speed>0.03605551275463989</speed>
  <fix>3d</fix>
</trkpt>
<trkpt lat="40.072842" lon="-105.230575">
  <ele>1586.09</ele>
  <time>2026-08-27T18:25:21Z</time>
  <course>266.03</course>
  <speed>0.0</speed>
  <fix>3d</fix>
</trkpt>
<trkpt lat="40.072842" lon="-105.230575">
  <ele>1586.09</ele>
  <time>2026-08-27T18:25:21Z</time>
  <course>11.71</course>
  <speed>0.03605551275463989</speed>
  <fix>3d</fix>
</trkpt>
<trkpt lat="40.072842" lon="-105.230575">
  <ele>1586.09</ele>
  <time>2026-08-27T18:25:21Z</time>
  <course>266.03</course>
  <speed>0.0</speed>
  <fix>3d</fix>
</trkpt>
<trkpt lat="40.072842" lon="-105.230575">
  <ele>1586.09</ele>
  <time>2026-08-27T18:25:21Z</time>
  <course>11.71</course>
  <speed>0.03605551275463989</speed>
  <fix>3d</fix>
</trkpt>
<trkpt lat="40.072842" lon="-105.230575">
  <ele>1586.09</ele>
  <time>2026-08-27T18:25:21Z</time>
  <course>266.03</course>
  <speed>0.0</speed>
  <fix>3d</fix>
</trkpt>
<trkpt lat="40.072842" lon="-105.230575">
  <ele>1586.09</ele>
  <time>2026-08-27T18:25:21Z</time>
  <course>11.7</course>
  <speed>0.03605551275463989</speed>
  <fix>3d</fix>
</trkpt>
<trkpt lat="40.072842" lon="-105.230575">
  <ele>1586.09</ele>
  <time>2026-08-27T18:25:21Z</time>
  <course>266.03</course>
  <speed>0.0</speed>
  <fix>3d</fix>
</trkpt>
<trkpt lat="40.072842" lon="-105.230575">
  <ele>1586.09</ele>
  <time>2026-08-27T18:25:21Z</time>
  <course>11.69</course>
  <speed>0.03605551275463989</speed>
  <fix>3d</fix>
</trkpt>
<trkpt lat="40.072842" lon="-105.230575">
  <ele>1586.09</ele>
  <time>2026-08-27T18:25:21Z</time>
  <course>266.03</course>
  <speed>0.0</speed>
  <fix>3d</fix>
</trkpt>
<trkpt lat="40.072842" lon="-105.230575">
  <ele>1586.09</ele>
  <time>2026-08-27T18:25:21Z</time>
  <course>11.68</course>
  <speed>0.03605551275463989</speed>
  <fix>3d</fix>
</trkpt>
<trkpt lat="40.072842" lon="-105.230575">
  <ele>1586.09</ele>
  <time>2026-08-27T18:25:21Z</time>
  <course>266.03</course>
  <speed>0.0</speed>
  <fix>3d</fix>
</trkpt>
<trkpt lat="40.072842" lon="-105.230575">
  <ele>1586.09</ele>
  <time>2026-08-27T18:25:21Z</time>
  <course>11.68</course>
  <speed>0.03605551275463989</speed>
  <fix>3d</fix>
</trkpt>
<trkpt lat="40.072842" lon="-105.230575">
  <ele>1586.09</ele>
  <time>2026-08-27T18:25:21Z</time>
  <course>266.03</course>
  <speed>0.0</speed>
  <fix>3d</fix>
</trkpt>
<trkpt lat="40.072842" lon="-105.230575">
  <ele>1586.09</ele>
  <time>2026-08-27T18:25:21Z</time>
  <course>11.67</course>
  <speed>0.03605551275463989</speed>
  <fix>3d</fix>
</trkpt>
<trkpt lat="40.072842" lon="-105.230575">
  <ele>1586.09</ele>
  <time>2026-08-27T18:25:21Z</time>
  <course>266.03</course>
  <speed>0.0</speed>
  <fix>3d</fix>
</trkpt>
<trkpt lat="40.072842" lon="-105.230575">
  <ele>1586.09</ele>
  <time>2026-08-27T18:25:21Z</time>
  <course>11.66</course>
  <speed>0.03605551275463989</speed>
  <fix>3d</fix>
</trkpt>
<trkpt lat="40.072842" lon="-105.230575">
  <ele>1586.09</ele>
  <time>2026-08-27T18:25:21Z</time>
  <course>266.03</course>
  <speed>0.0</speed>
  <fix>3d</fix>
</trkpt>
<trkpt lat="39.654938" lon="-104.1331666">
  <ele>1569.54</ele>
  <time>2026-08-27T18:25:22Z</time>
  <course>168.11</course>
  <speed>0.0</speed>
  <fix>3d</fix>
</trkpt>
<trkpt lat="40.072842" lon="-105.230575">
  <ele>1586.09</ele>
  <time>2026-08-27T18:25:22Z</time>
  <course>2.03</course>
  <speed>0.0</speed>
  <fix>3d</fix>
</trkpt>
<trkpt lat="40.072842" lon="-105.230575">
  <ele>1586.09</ele>
  <time>2026-08-27T18:25:22Z</time>
  <course>238.4</course>
  <speed>0.0</speed>
  <fix>3d</fix>
</trkpt>
<trkpt lat="40.072842" lon="-105.230575">
  <ele>1586.09</ele>
  <time>2026-08-27T18:25:22Z</time>
  <course>2.41</course>
  <speed>0.0</speed>
  <fix>3d</fix>
</trkpt>
<trkpt lat="40.072842" lon="-105.230575">
  <ele>1586.09</ele>
  <time>2026-08-27T18:25:22Z</time>
  <course>194.29</course>
  <speed>0.0</speed>
  <fix>3d</fix>
</trkpt>
<trkpt lat="40.072842" lon="-105.230575">
  <ele>1586.09</ele>
  <time>2026-08-27T18:25:22Z</time>
  <course>3.14</course>
  <speed>0.0</speed>
  <fix>3d</fix>
</trkpt>
<trkpt lat="40.072842" lon="-105.230575">
  <ele>1586.09</ele>
  <time>2026-08-27T18:25:22Z</time>
  <course>193.66</course>
  <speed>0.0</speed>
  <fix>3d</fix>
</trkpt>
<trkpt lat="40.072842" lon="-105.230575">
  <ele>1586.09</ele>
  <time>2026-08-27T18:25:22Z</time>
  <course>3.83</course>
  <speed>0.0</speed>
  <fix>3d</fix>
</trkpt>
<trkpt lat="40.072842" lon="-105.230575">
  <ele>1586.09</ele>
  <time>2026-08-27T18:25:22Z</time>
  <course>303.54</course>
  <speed>0.0</speed>
  <fix>3d</fix>
</trkpt>
<trkpt lat="40.072842" lon="-105.230575">
  <ele>1586.09</ele>
  <time>2026-08-27T18:25:22Z</time>
  <course>4.46</course>
  <speed>0.0</speed>
  <fix>3d</fix>
</trkpt>
<trkpt lat="40.072842" lon="-105.230575">
  <ele>1586.09</ele>
  <time>2026-08-27T18:25:22Z</time>
  <course>110.94</course>
  <speed>0.0</speed>
  <fix>3d</fix>
</trkpt>
<trkpt lat="40.072842" lon="-105.230575">
  <ele>1586.09</ele>
  <time>2026-08-27T18:25:22Z</time>
  <course>5.04</course>
  <speed>0.0</speed>
  <fix>3d</fix>
</trkpt>
<trkpt lat="40.072842" lon="-105.230575">
  <ele>1586.09</ele>
  <time>2026-08-27T18:25:22Z</time>
  <course>191.21</course>
  <speed>0.0</speed>
  <fix>3d</fix>
</trkpt>
<trkpt lat="40.072842" lon="-105.230575">
  <ele>1586.09</ele>
  <time>2026-08-27T18:25:22Z</time>
  <course>5.6</course>
  <speed>0.0</speed>
  <fix>3d</fix>
</trkpt>
<trkpt lat="40.072842" lon="-105.230575">
  <ele>1586.09</ele>
  <time>2026-08-27T18:25:22Z</time>
  <course>252.23</course>
  <speed>0.0</speed>
  <fix>3d</fix>
</trkpt>
<trkpt lat="40.072842" lon="-105.230575">
  <ele>1586.09</ele>
  <time>2026-08-27T18:25:22Z</time>
  <course>6.13</course>
  <speed>0.0</speed>
  <fix>3d</fix>
</trkpt>
<trkpt lat="40.072842" lon="-105.230575">
  <ele>1586.09</ele>
  <time>2026-08-27T18:25:22Z</time>
  <course>170.36</course>
  <speed>0.0</speed>
  <fix>3d</fix>
</trkpt>
<trkpt lat="40.072842" lon="-105.230575">
  <ele>1586.09</ele>
  <time>2026-08-27T18:25:22Z</time>
  <course>6.63</course>
  <speed>0.0</speed>
  <fix>3d</fix>
</trkpt>
<trkpt lat="40.072842" lon="-105.230575">
  <ele>1586.09</ele>
  <time>2026-08-27T18:25:22Z</time>
  <course>179.36</course>
  <speed>0.0</speed>
  <fix>3d</fix>
</trkpt>
<trkpt lat="40.072842" lon="-105.230575">
  <ele>1586.09</ele>
  <time>2026-08-27T18:25:22Z</time>
  <course>7.09</course>
  <speed>0.0</speed>
  <fix>3d</fix>
</trkpt>
<trkpt lat="40.072842" lon="-105.230575">
  <ele>1586.09</ele>
  <time>2026-08-27T18:25:22Z</time>
  <course>19.98</course>
  <speed>0.0</speed>
  <fix>3d</fix>
</trkpt>
<trkpt lat="40.072842" lon="-105.230575">
  <ele>1586.09</ele>
  <time>2026-08-27T18:25:22Z</time>
  <course>7.52</course>
  <speed>0.0</speed>
  <fix>3d</fix>
</trkpt>
<trkpt lat="40.072842" lon="-105.230575">
  <ele>1586.09</ele>
  <time>2026-08-27T18:25:22Z</time>
  <course>17.49</course>
  <speed>0.0</speed>
  <fix>3d</fix>
</trkpt>
<trkpt lat="40.072842" lon="-105.230575">
  <ele>1586.09</ele>
  <time>2026-08-27T18:25:22Z</time>
  <course>7.91</course>
  <speed>0.0</speed>
  <fix>3d</fix>
</trkpt>
<trkpt lat="40.072842" lon="-105.230575">
  <ele>1586.09</ele>
  <time>2026-08-27T18:25:22Z</time>
  <course>356.19</course>
  <speed>0.0</speed>
  <fix>3d</fix>
</trkpt>
<trkpt lat="40.072842" lon="-105.230575">
  <ele>1586.09</ele>
  <time>2026-08-27T18:25:22Z</time>
  <course>8.28</course>
  <speed>0.0</speed>
  <fix>3d</fix>
</trkpt>
<trkpt lat="40.072842" lon="-105.230575">
  <ele>1586.09</ele>
  <time>2026-08-27T18:25:22Z</time>
  <course>77.32</course>
  <speed>0.0</speed>
  <fix>3d</fix>
</trkpt>
<trkpt lat="40.072842" lon="-105.230575">
  <ele>1586.09</ele>
  <time>2026-08-27T18:25:22Z</time>
  <course>8.62</course>
  <speed>0.0</speed>
  <fix>3d</fix>
</trkpt>
<trkpt lat="40.072842" lon="-105.230575">
  <ele>1586.09</ele>
  <time>2026-08-27T18:25:22Z</time>
  <course>290.54</course>
  <speed>0.0</speed>
  <fix>3d</fix>
</trkpt>
<trkpt lat="40.072842" lon="-105.230575">
  <ele>1586.09</ele>
  <time>2026-08-27T18:25:22Z</time>
  <course>8.93</course>
  <speed>0.0</speed>
  <fix>3d</fix>
</trkpt>
<trkpt lat="40.072842" lon="-105.230575">
  <ele>1586.09</ele>
  <time>2026-08-27T18:25:22Z</time>
  <course>338.69</course>
  <speed>0.0</speed>
  <fix>3d</fix>
</trkpt>
<trkpt lat="40.072842" lon="-105.230575">
  <ele>1586.09</ele>
  <time>2026-08-27T18:25:22Z</time>
  <course>9.22</course>
  <speed>0.0</speed>
  <fix>3d</fix>
</trkpt>
<trkpt lat="40.072842" lon="-105.230575">
  <ele>1586.09</ele>
  <time>2026-08-27T18:25:22Z</time>
  <course>326.81</course>
  <speed>0.0</speed>
  <fix>3d</fix>
</trkpt>
<trkpt lat="40.072842" lon="-105.230575">
  <ele>1586.09</ele>
  <time>2026-08-27T18:25:22Z</time>
  <course>9.48</course>
  <speed>0.0</speed>
  <fix>3d</fix>
</trkpt>
<trkpt lat="40.072842" lon="-105.230575">
  <ele>1586.09</ele>
  <time>2026-08-27T18:25:22Z</time>
  <course>262.23</course>
  <speed>0.0</speed>
  <fix>3d</fix>
</trkpt>
<trkpt lat="40.072842" lon="-105.230575">
  <ele>1586.09</ele>
  <time>2026-08-27T18:25:22Z</time>
  <course>9.72</course>
  <speed>0.0</speed>
  <fix>3d</fix>
</trkpt>
<trkpt lat="40.072842" lon="-105.230575">
  <ele>1586.09</ele>
  <time>2026-08-27T18:25:22Z</time>
  <course>159.08</course>
  <speed>0.0</speed>
  <fix>3d</fix>
</trkpt>
<trkpt lat="40.072842" lon="-105.230575">
  <ele>1586.09</ele>
  <time>2026-08-27T18:25:22Z</time>
  <course>9.95</course>
  <speed>0.0</speed>
  <fix>3d</fix>
</trkpt>
<trkpt lat="40.072842" lon="-105.230575">
  <ele>1586.09</ele>
  <time>2026-08-27T18:25:22Z</time>
  <course>287.98</course>
  <speed>0.0</speed>
  <fix>3d</fix>
</trkpt>
<trkpt lat="40.072842" lon="-105.230575">
  <ele>1586.09</ele>
  <time>2026-08-27T18:25:22Z</time>
  <course>10.15</course>
  <speed>0.0</speed>
  <fix>3d</fix>
</trkpt>
<trkpt lat="40.072842" lon="-105.230575">
  <ele>1586.09</ele>
  <time>2026-08-27T18:25:22Z</time>
  <course>278.3</course>
  <speed>0.0</speed>
  <fix>3d</fix>
</trkpt>
<trkpt lat="40.072842" lon="-105.230575">
  <ele>1586.09</ele>
  <time>2026-08-27T18:25:22Z</time>
  <course>10.34</course>
  <speed>0.0</speed>
  <fix>3d</fix>
</trkpt>
<trkpt lat="40.072842" lon="-105.230575">
  <ele>1586.09</ele>
  <time>2026-08-27T18:25:22Z</time>
  <course>261.72</course>
  <speed>0.0</speed>
  <fix>3d</fix>
</trkpt>
<trkpt lat="40.072842" lon="-105.230575">
  <ele>1586.09</ele>
  <time>2026-08-27T18:25:22Z</time>
  <course>10.51</course>
  <speed>0.0</speed>
  <fix>3d</fix>
</trkpt>
<trkpt lat="40.072842" lon="-105.230575">
  <ele>1586.09</ele>
  <time>2026-08-27T18:25:22Z</time>
  <course>264.4</course>
  <speed>0.0</speed>
  <fix>3d</fix>
</trkpt>
<trkpt lat="40.072842" lon="-105.230575">
  <ele>1586.09</ele>
  <time>2026-08-27T18:25:22Z</time>
  <course>10.67</course>
  <speed>0.0</speed>
  <fix>3d</fix>
</trkpt>
<trkpt lat="40.072842" lon="-105.230575">
  <ele>1586.09</ele>
  <time>2026-08-27T18:25:22Z</time>
  <course>266.8</course>
  <speed>0.0</speed>
  <fix>3d</fix>
</trkpt>
<trkpt lat="40.072842" lon="-105.230575">
  <ele>1586.09</ele>
  <time>2026-08-27T18:25:22Z</time>
  <course>10.81</course>
  <speed>0.0</speed>
  <fix>3d</fix>
</trkpt>
<trkpt lat="40.072842" lon="-105.230575">
  <ele>1586.09</ele>
  <time>2026-08-27T18:25:22Z</time>
  <course>266.15</course>
  <speed>0.0</speed>
  <fix>3d</fix>
</trkpt>
<trkpt lat="40.072842" lon="-105.230575">
  <ele>1586.09</ele>
  <time>2026-08-27T18:25:22Z</time>
  <course>10.94</course>
  <speed>0.0</speed>
  <fix>3d</fix>
</trkpt>
<trkpt lat="40.072842" lon="-105.230575">
  <ele>1586.09</ele>
  <time>2026-08-27T18:25:22Z</time>
  <course>265.92</course>
  <speed>0.0</speed>
  <fix>3d</fix>
</trkpt>
<trkpt lat="40.072842" lon="-105.230575">
  <ele>1586.09</ele>
  <time>2026-08-27T18:25:22Z</time>
  <course>11.07</course>
  <speed>0.0</speed>
  <fix>3d</fix>
</trkpt>
<trkpt lat="40.072842" lon="-105.230575">
  <ele>1586.09</ele>
  <time>2026-08-27T18:25:22Z</time>
  <course>266.03</course>
  <speed>0.0</speed>
  <fix>3d</fix>
</trkpt>
<trkpt lat="40.072842" lon="-105.230575">
  <ele>1586.09</ele>
  <time>2026-08-27T18:25:22Z</time>
  <course>11.18</course>
  <speed>0.0</speed>
  <fix>3d</fix>
</trkpt>
<trkpt lat="40.072842" lon="-105.230575">
  <ele>1586.09</ele>
  <time>2026-08-27T18:25:22Z</time>
  <course>266.05</course>
  <speed>0.0</speed>
  <fix>3d</fix>
</trkpt>
<trkpt lat="40.072842" lon="-105.230575">
  <ele>1586.09</ele>
  <time>2026-08-27T18:25:22Z</time>
  <course>11.28</course>
  <speed>0.0</speed>
  <fix>3d</fix>
</trkpt>
<trkpt lat="40.072842" lon="-105.230575">
  <ele>1586.09</ele>
  <time>2026-08-27T18:25:22Z</time>
  <course>266.03</course>
  <speed>0.0</speed>
  <fix>3d</fix>
</trkpt>
<trkpt lat="40.072842" lon="-105.230575">
  <ele>1586.09</ele>
  <time>2026-08-27T18:25:22Z</time>
  <course>11.37</course>
  <speed>0.0</speed>
  <fix>3d</fix>
</trkpt>
<trkpt lat="40.072842" lon="-105.230575">
  <ele>1586.09</ele>
  <time>2026-08-27T18:25:22Z</time>
  <course>266.03</course>
  <speed>0.0</speed>
  <fix>3d</fix>
</trkpt>
<trkpt lat="40.072842" lon="-105.230575">
  <ele>1586.09</ele>
  <time>2026-08-27T18:25:22Z</time>
  <course>11.45</course>
  <speed>0.0</speed>
  <fix>3d</fix>
</trkpt>
<trkpt lat="40.072842" lon="-105.230575">
  <ele>1586.09</ele>
  <time>2026-08-27T18:25:22Z</time>
  <course>266.03</course>
  <speed>0.0</speed>
  <fix>3d</fix>
</trkpt>
<trkpt lat="40.072842" lon="-105.230575">
  <ele>1586.09</ele>
  <time>2026-08-27T18:25:22Z</time>
  <course>11.53</course>
  <speed>0.0</speed>
  <fix>3d</fix>
</trkpt>
<trkpt lat="40.072842" lon="-105.230575">
  <ele>1586.09</ele>
  <time>2026-08-27T18:25:22Z</time>
  <course>266.03</course>
  <speed>0.0</speed>
  <fix>3d</fix>
</trkpt>
<trkpt lat="40.072842" lon="-105.230575">
  <ele>1586.09</ele>
  <time>2026-08-27T18:25:22Z</time>
  <course>11.59</course>
  <speed>0.0</speed>
  <fix>3d</fix>
</trkpt>
<trkpt lat="40.072842" lon="-105.230575">
  <ele>1586.09</ele>
  <time>2026-08-27T18:25:22Z</time>
  <course>266.03</course>
  <speed>0.0</speed>
  <fix>3d</fix>
</trkpt>
<trkpt lat="40.072842" lon="-105.230575">
  <ele>1586.09</ele>
  <time>2026-08-27T18:25:22Z</time>
  <course>11.65</course>
  <speed>0.0</speed>
  <fix>3d</fix>
</trkpt>
<trkpt lat="40.072842" lon="-105.230575">
  <ele>1586.09</ele>
  <time>2026-08-27T18:25:22Z</time>
  <course>266.03</course>
  <speed>0.0</speed>
  <fix>3d</fix>
</trkpt>
<trkpt lat="40.072842" lon="-105.230575">
  <ele>1586.09</ele>
  <time>2026-08-27T18:25:22Z</time>
  <course>11.71</course>
  <speed>0.0</speed>
  <fix>3d</fix>
</trkpt>
<trkpt lat="40.072842" lon="-105.230575">
  <ele>1586.09</ele>
  <time>2026-08-27T18:25:22Z</time>
  <course>266.03</course>
  <speed>0.0</speed>
  <fix>3d</fix>
</trkpt>
<trkpt lat="40.072842" lon="-105.230575">
  <ele>1586.09</ele>
  <time>2026-08-27T18:25:22Z</time>
  <course>11.76</course>
  <speed>0.0</speed>
  <fix>3d</fix>
</trkpt>
<trkpt lat="40.072842" lon="-105.230575">
  <ele>1586.09</ele>
  <time>2026-08-27T18:25:22Z</time>
  <course>266.03</course>
  <speed>0.0</speed>
  <fix>3d</fix>
</trkpt>
<trkpt lat="40.072842" lon="-105.230575">
  <ele>1586.09</ele>
  <time>2026-08-27T18:25:22Z</time>
  <course>11.81</course>
  <speed>0.0</speed>
  <fix>3d</fix>
</trkpt>
<trkpt lat="40.072842" lon="-105.230575">
  <ele>1586.09</ele>
  <time>2026-08-27T18:25:22Z</time>
  <course>266.03</course>
  <speed>0.0</speed>
  <fix>3d</fix>
</trkpt>
<trkpt lat="40.072842" lon="-105.230575">
  <ele>1586.09</ele>
  <time>2026-08-27T18:25:22Z</time>
  <course>11.85</course>
  <speed>0.0</speed>
  <fix>3d</fix>
</trkpt>
<trkpt lat="40.072842" lon="-105.230575">
  <ele>1586.09</ele>
  <time>2026-08-27T18:25:22Z</time>
  <course>266.03</course>
  <speed>0.0</speed>
  <fix>3d</fix>
</trkpt>
<trkpt lat="40.072842" lon="-105.230575">
  <ele>1586.09</ele>
  <time>2026-08-27T18:25:22Z</time>
  <course>11.88</course>
  <speed>0.0</speed>
  <fix>3d</fix>
</trkpt>
<trkpt lat="40.072842" lon="-105.230575">
  <ele>1586.09</ele>
  <time>2026-08-27T18:25:22Z</time>
  <course>266.03</course>
  <speed>0.0</speed>
  <fix>3d</fix>
</trkpt>
<trkpt lat="40.072842" lon="-105.230575">
  <ele>1586.09</ele>
  <time>2026-08-27T18:25:22Z</time>
  <course>11.92</course>
  <speed>0.0</speed>
  <fix>3d</fix>
</trkpt>
<trkpt lat="40.072842" lon="-105.230575">
  <ele>1586.09</ele>
  <time>2026-08-27T18:25:22Z</time>
  <course>266.03</course>
  <speed>0.0</speed>
  <fix>3d</fix>
</trkpt>
<trkpt lat="40.072842" lon="-105.230575">
  <ele>1586.09</ele>
  <time>2026-08-27T18:25:22Z</time>
  <course>11.95</course>
  <speed>0.0</speed>
  <fix>3d</fix>
</trkpt>
<trkpt lat="40.072842" lon="-105.230575">
  <ele>1586.09</ele>
  <time>2026-08-27T18:25:22Z</time>
  <course>266.03</course>
  <speed>0.0</speed>
  <fix>3d</fix>
</trkpt>
<trkpt lat="40.072842" lon="-105.230575">
  <ele>1586.09</ele>
  <time>2026-08-27T18:25:22Z</time>
  <course>11.97</course>
  <speed>0.0</speed>
  <fix>3d</fix>
</trkpt>
<trkpt lat="40.072842" lon="-105.230575">
  <ele>1586.09</ele>
  <time>2026-08-27T18:25:22Z</time>
  <course>266.03</course>
  <speed>0.0</speed>
  <fix>3d</fix>
</trkpt>
<trkpt lat="40.072842" lon="-105.230575">
  <ele>1586.09</ele>
  <time>2026-08-27T18:25:22Z</time>
  <course>12.0</course>
  <speed>0.0</speed>
  <fix>3d</fix>
</trkpt>
<trkpt lat="40.072842" lon="-105.230575">
  <ele>1586.09</ele>
  <time>2026-08-27T18:25:22Z</time>
  <course>266.03</course>
  <speed>0.0</speed>
  <fix>3d</fix>
</trkpt>
<trkpt lat="40.072842" lon="-105.230575">
  <ele>1586.09</ele>
  <time>2026-08-27T18:25:22Z</time>
  <course>12.02</course>
  <speed>0.0</speed>
  <fix>3d</fix>
</trkpt>
<trkpt lat="40.072842" lon="-105.230575">
  <ele>1586.09</ele>
  <time>2026-08-27T18:25:22Z</time>
  <course>266.03</course>
  <speed>0.0</speed>
  <fix>3d</fix>
</trkpt>
<trkpt lat="40.072842" lon="-105.230575">
  <ele>1586.09</ele>
  <time>2026-08-27T18:25:22Z</time>
  <course>12.04</course>
  <speed>0.0</speed>
  <fix>3d</fix>
</trkpt>
<trkpt lat="40.072842" lon="-105.230575">
  <ele>1586.09</ele>
  <time>2026-08-27T18:25:22Z</time>
  <course>266.03</course>
  <speed>0.0</speed>
  <fix>3d</fix>
</trkpt>
<trkpt lat="40.072842" lon="-105.230575">
  <ele>1586.09</ele>
  <time>2026-08-27T18:25:22Z</time>
  <course>12.05</course>
  <speed>0.0</speed>
  <fix>3d</fix>
</trkpt>
<trkpt lat="40.072842" lon="-105.230575">
  <ele>1586.09</ele>
  <time>2026-08-27T18:25:22Z</time>
  <course>266.03</course>
  <speed>0.0</speed>
  <fix>3d</fix>
</trkpt>
<trkpt lat="40.072842" lon="-105.230575">
  <ele>1586.09</ele>
  <time>2026-08-27T18:25:22Z</time>
  <course>12.07</course>
  <speed>0.0</speed>
  <fix>3d</fix>
</trkpt>
<trkpt lat="40.072842" lon="-105.230575">
  <ele>1586.09</ele>
  <time>2026-08-27T18:25:22Z</time>
  <course>266.03</course>
  <speed>0.0</speed>
  <fix>3d</fix>
</trkpt>
<trkpt lat="40.072842" lon="-105.230575">
  <ele>1586.09</ele>
  <time>2026-08-27T18:25:22Z</time>
  <course>12.08</course>
  <speed>0.0</speed>
  <fix>3d</fix>
</trkpt>
<trkpt lat="40.072842" lon="-105.230575">
  <ele>1586.09</ele>
  <time>2026-08-27T18:25:22Z</time>
  <course>266.03</course>
  <speed>0.0</speed>
  <fix>3d</fix>
</trkpt>
<trkpt lat="40.072842" lon="-105.230575">
  <ele>1586.09</ele>
  <time>2026-08-27T18:25:22Z</time>
  <course>12.09</course>
  <speed>0.0</speed>
  <fix>3d</fix>
</trkpt>
<trkpt lat="40.072842" lon="-105.230575">
  <ele>1586.09</ele>
  <time>2026-08-27T18:25:22Z</time>
  <course>266.03</course>
  <speed>0.0</speed>
  <fix>3d</fix>
</trkpt>
<trkpt lat="40.072842" lon="-105.230575">
  <ele>1586.09</ele>
  <time>2026-08-27T18:25:22Z</time>
  <course>12.1</course>
  <speed>0.0</speed>
  <fix>3d</fix>
</trkpt>
<trkpt lat="40.072842" lon="-105.230575">
  <ele>1586.09</ele>
  <time>2026-08-27T18:25:22Z</time>
  <course>266.03</course>
  <speed>0.0</speed>
  <fix>3d</fix>
</trkpt>
<trkpt lat="40.072842" lon="-105.230575">
  <ele>1586.09</ele>
  <time>2026-08-27T18:25:22Z</time>
  <course>12.1</course>
  <speed>0.0</speed>
  <fix>3d</fix>
</trkpt>
<trkpt lat="40.072842" lon="-105.230575">
  <ele>1586.09</ele>
  <time>2026-08-27T18:25:22Z</time>
  <course>266.03</course>
  <speed>0.0</speed>
  <fix>3d</fix>
</trkpt>
<trkpt lat="40.072842" lon="-105.230575">
  <ele>1586.09</ele>
  <time>2026-08-27T18:25:22Z</time>
  <course>12.11</course>
  <speed>0.0</speed>
  <fix>3d</fix>
</trkpt>
<trkpt lat="40.072842" lon="-105.230575">
  <ele>1586.09</ele>
  <time>2026-08-27T18:25:22Z</time>
  <course>266.03</course>
  <speed>0.0</speed>
  <fix>3d</fix>
</trkpt>
<trkpt lat="40.072842" lon="-105.230575">
  <ele>1586.09</ele>
  <time>2026-08-27T18:25:22Z</time>
  <course>12.12</course>
  <speed>0.0</speed>
  <fix>3d</fix>
</trkpt>
<trkpt lat="40.072842" lon="-105.230575">
  <ele>1586.09</ele>
  <time>2026-08-27T18:25:22Z</time>
  <course>266.03</course>
  <speed>0.0</speed>
  <fix>3d</fix>
</trkpt>
<trkpt lat="40.072842" lon="-105.230575">
  <ele>1586.09</ele>
  <time>2026-08-27T18:25:22Z</time>
  <course>12.12</course>
  <speed>0.0</speed>
  <fix>3d</fix>
</trkpt>
<trkpt lat="40.072842" lon="-105.230575">
  <ele>1586.09</ele>
  <time>2026-08-27T18:25:22Z</time>
  <course>266.03</course>
  <speed>0.0</speed>
  <fix>3d</fix>
</trkpt>
<trkpt lat="40.072842" lon="-105.230575">
  <ele>1586.09</ele>
  <time>2026-08-27T18:25:22Z</time>
  <course>12.12</course>
  <speed>0.0</speed>
  <fix>3d</fix>
</trkpt>
<trkpt lat="40.072842" lon="-105.230575">
  <ele>1586.09</ele>
  <time>2026-08-27T18:25:22Z</time>
  <course>266.03</course>
  <speed>0.0</speed>
  <fix>3d</fix>
</trkpt>
<trkpt lat="40.072842" lon="-105.230575">
  <ele>1586.09</ele>
  <time>2026-08-27T18:25:22Z</time>
  <course>12.13</course>
  <speed>0.0</speed>
  <fix>3d</fix>
</trkpt>
<trkpt lat="40.072842" lon="-105.230575">
  <ele>1586.09</ele>
  <time>2026-08-27T18:25:22Z</time>
  <course>266.03</course>
  <speed>0.0</speed>
  <fix>3d</fix>
</trkpt>
<trkpt lat="40.072842" lon="-105.230575">
  <ele>1586.09</ele>
  <time>2026-08-27T18:25:22Z</time>
  <course>12.13</course>
  <speed>0.0</speed>
  <fix>3d</fix>
</trkpt>
<trkpt lat="40.072842" lon="-105.230575">
  <ele>1586.09</ele>
  <time>2026-08-27T18:25:22Z</time>
  <course>266.03</course>
  <speed>0.0</speed>
  <fix>3d</fix>
</trkpt>
<trkpt lat="40.072842" lon="-105.230575">
  <ele>1586.09</ele>
  <time>2026-08-27T18:25:22Z</time>
  <course>12.13</course>
  <speed>0.0</speed>
  <fix>3d</fix>
</trkpt>
<trkpt lat="40.072842" lon="-105.230575">
  <ele>1586.09</ele>
  <time>2026-08-27T18:25:22Z</time>
  <course>266.03</course>
  <speed>0.0</speed>
  <fix>3d</fix>
</trkpt>
<trkpt lat="40.072842" lon="-105.230575">
  <ele>1586.09</ele>
  <time>2026-08-27T18:25:22Z</time>
  <course>12.12</course>
  <speed>0.01</speed>
  <fix>3d</fix>
</trkpt>
<trkpt lat="40.072842" lon="-105.230575">
  <ele>1586.09</ele>
  <time>2026-08-27T18:25:22Z</time>
  <course>266.03</course>
  <speed>0.0</speed>
  <fix>3d</fix>
</trkpt>
<trkpt lat="40.072842" lon="-105.230575">
  <ele>1586.09</ele>
  <time>2026-08-27T18:25:22Z</time>
  <course>12.12</course>
  <speed>0.01</speed>
  <fix>3d</fix>
</trkpt>
<trkpt lat="40.072842" lon="-105.230575">
  <ele>1586.09</ele>
  <time>2026-08-27T18:25:22Z</time>
  <course>266.03</course>
  <speed>0.0</speed>
  <fix>3d</fix>
</trkpt>
<trkpt lat="40.072842" lon="-105.230575">
  <ele>1586.09</ele>
  <time>2026-08-27T18:25:22Z</time>
  <course>12.12</course>
  <speed>0.01</speed>
  <fix>3d</fix>
</trkpt>
<trkpt lat="40.072842" lon="-105.230575">
  <ele>1586.09</ele>
  <time>2026-08-27T18:25:22Z</time>
  <course>266.03</course>
  <speed>0.0</speed>
  <fix>3d</fix>
</trkpt>
<trkpt lat="40.072842" lon="-105.230575">
  <ele>1586.09</ele>
  <time>2026-08-27T18:25:22Z</time>
  <course>12.12</course>
  <speed>0.01</speed>
  <fix>3d</fix>
</trkpt>
<trkpt lat="40.072842" lon="-105.230575">
  <ele>1586.09</ele>
  <time>2026-08-27T18:25:22Z</time>
  <course>266.03</course>
  <speed>0.0</speed>
  <fix>3d</fix>
</trkpt>
<trkpt lat="40.072842" lon="-105.230575">
  <ele>1586.09</ele>
  <time>2026-08-27T18:25:22Z</time>
  <course>12.11</course>
  <speed>0.01</speed>
  <fix>3d</fix>
</trkpt>
<trkpt lat="40.072842" lon="-105.230575">
  <ele>1586.09</ele>
  <time>2026-08-27T18:25:22Z</time>
  <course>266.03</course>
  <speed>0.0</speed>
  <fix>3d</fix>
</trkpt>
<trkpt lat="40.072842" lon="-105.230575">
  <ele>1586.09</ele>
  <time>2026-08-27T18:25:22Z</time>
  <course>12.11</course>
  <speed>0.01</speed>
  <fix>3d</fix>
</trkpt>
<trkpt lat="40.072842" lon="-105.230575">
  <ele>1586.09</ele>
  <time>2026-08-27T18:25:22Z</time>
  <course>266.03</course>
  <speed>0.0</speed>
  <fix>3d</fix>
</trkpt>
<trkpt lat="40.072842" lon="-105.230575">
  <ele>1586.09</ele>
  <time>2026-08-27T18:25:22Z</time>
  <course>12.1</course>
  <speed>0.01</speed>
  <fix>3d</fix>
</trkpt>
<trkpt lat="40.072842" lon="-105.230575">
  <ele>1586.09</ele>
  <time>2026-08-27T18:25:22Z</time>
  <course>266.03</course>
  <speed>0.0</speed>
  <fix>3d</fix>
</trkpt>
<trkpt lat="40.072842" lon="-105.230575">
  <ele>1586.09</ele>
  <time>2026-08-27T18:25:22Z</time>
  <course>12.1</course>
  <speed>0.01</speed>
  <fix>3d</fix>
</trkpt>
<trkpt lat="40.072842" lon="-105.230575">
  <ele>1586.09</ele>
  <time>2026-08-27T18:25:22Z</time>
  <course>266.03</course>
  <speed>0.0</speed>
  <fix>3d</fix>
</trkpt>
<trkpt lat="40.072842" lon="-105.230575">
  <ele>1586.09</ele>
  <time>2026-08-27T18:25:22Z</time>
  <course>12.09</course>
  <speed>0.01</speed>
  <fix>3d</fix>
</trkpt>
<trkpt lat="40.072842" lon="-105.230575">
  <ele>1586.09</ele>
  <time>2026-08-27T18:25:22Z</time>
  <course>266.03</course>
  <speed>0.0</speed>
  <fix>3d</fix>
</trkpt>
<trkpt lat="40.072842" lon="-105.230575">
  <ele>1586.09</ele>
  <time>2026-08-27T18:25:22Z</time>
  <course>12.09</course>
  <speed>0.01</speed>
  <fix>3d</fix>
</trkpt>
<trkpt lat="40.072842" lon="-105.230575">
  <ele>1586.09</ele>
  <time>2026-08-27T18:25:22Z</time>
  <course>266.03</course>
  <speed>0.0</speed>
  <fix>3d</fix>
</trkpt>
<trkpt lat="40.072842" lon="-105.230575">
  <ele>1586.09</ele>
  <time>2026-08-27T18:25:22Z</time>
  <course>12.08</course>
  <speed>0.01</speed>
  <fix>3d</fix>
</trkpt>
<trkpt lat="40.072842" lon="-105.230575">
  <ele>1586.09</ele>
  <time>2026-08-27T18:25:22Z</time>
  <course>266.03</course>
  <speed>0.0</speed>
  <fix>3d</fix>
</trkpt>
<trkpt lat="40.072842" lon="-105.230575">
  <ele>1586.09</ele>
  <time>2026-08-27T18:25:22Z</time>
  <course>12.08</course>
  <speed>0.01414213562373095</speed>
  <fix>3d</fix>
</trkpt>
<trkpt lat="40.072842" lon="-105.230575">
  <ele>1586.09</ele>
  <time>2026-08-27T18:25:22Z</time>
  <course>266.03</course>
  <speed>0.0</speed>
  <fix>3d</fix>
</trkpt>
<trkpt lat="40.072842" lon="-105.230575">
  <ele>1586.09</ele>
  <time>2026-08-27T18:25:22Z</time>
  <course>12.07</course>
  <speed>0.01414213562373095</speed>
  <fix>3d</fix>
</trkpt>
<trkpt lat="40.072842" lon="-105.230575">
  <ele>1586.09</ele>
  <time>2026-08-27T18:25:22Z</time>
  <course>266.03</course>
  <speed>0.0</speed>
  <fix>3d</fix>
</trkpt>
<trkpt lat="40.072842" lon="-105.230575">
  <ele>1586.09</ele>
  <time>2026-08-27T18:25:22Z</time>
  <course>12.06</course>
  <speed>0.01414213562373095</speed>
  <fix>3d</fix>
</trkpt>
<trkpt lat="40.072842" lon="-105.230575">
  <ele>1586.09</ele>
  <time>2026-08-27T18:25:22Z</time>
  <course>266.03</course>
  <speed>0.0</speed>
  <fix>3d</fix>
</trkpt>
<trkpt lat="40.072842" lon="-105.230575">
  <ele>1586.09</ele>
  <time>2026-08-27T18:25:22Z</time>
  <course>12.05</course>
  <speed>0.01414213562373095</speed>
  <fix>3d</fix>
</trkpt>
<trkpt lat="40.072842" lon="-105.230575">
  <ele>1586.09</ele>
  <time>2026-08-27T18:25:22Z</time>
  <course>266.03</course>
  <speed>0.0</speed>
  <fix>3d</fix>
</trkpt>
<trkpt lat="40.072842" lon="-105.230575">
  <ele>1586.09</ele>
  <time>2026-08-27T18:25:22Z</time>
  <course>12.05</course>
  <speed>0.01414213562373095</speed>
  <fix>3d</fix>
</trkpt>
<trkpt lat="40.072842" lon="-105.230575">
  <ele>1586.09</ele>
  <time>2026-08-27T18:25:22Z</time>
  <course>266.03</course>
  <speed>0.0</speed>
  <fix>3d</fix>
</trkpt>
<trkpt lat="40.072842" lon="-105.230575">
  <ele>1586.09</ele>
  <time>2026-08-27T18:25:22Z</time>
  <course>12.04</course>
  <speed>0.01414213562373095</speed>
  <fix>3d</fix>
</trkpt>
<trkpt lat="40.072842" lon="-105.230575">
  <ele>1586.09</ele>
  <time>2026-08-27T18:25:22Z</time>
  <course>266.03</course>
  <speed>0.0</speed>
  <fix>3d</fix>
</trkpt>
<trkpt lat="40.072842" lon="-105.230575">
  <ele>1586.09</ele>
  <time>2026-08-27T18:25:22Z</time>
  <course>12.03</course>
  <speed>0.01414213562373095</speed>
  <fix>3d</fix>
</trkpt>
<trkpt lat="40.072842" lon="-105.230575">
  <ele>1586.09</ele>
  <time>2026-08-27T18:25:22Z</time>
  <course>266.03</course>
  <speed>0.0</speed>
  <fix>3d</fix>
</trkpt>
<trkpt lat="40.072842" lon="-105.230575">
  <ele>1586.09</ele>
  <time>2026-08-27T18:25:22Z</time>
  <course>12.03</course>
  <speed>0.01414213562373095</speed>
  <fix>3d</fix>
</trkpt>
<trkpt lat="40.072842" lon="-105.230575">
  <ele>1586.09</ele>
  <time>2026-08-27T18:25:22Z</time>
  <course>266.03</course>
  <speed>0.0</speed>
  <fix>3d</fix>
</trkpt>
<trkpt lat="40.072842" lon="-105.230575">
  <ele>1586.09</ele>
  <time>2026-08-27T18:25:22Z</time>
  <course>12.02</course>
  <speed>0.01414213562373095</speed>
  <fix>3d</fix>
</trkpt>
<trkpt lat="40.072842" lon="-105.230575">
  <ele>1586.09</ele>
  <time>2026-08-27T18:25:22Z</time>
  <course>266.03</course>
  <speed>0.0</speed>
  <fix>3d</fix>
</trkpt>
<trkpt lat="40.072842" lon="-105.230575">
  <ele>1586.09</ele>
  <time>2026-08-27T18:25:22Z</time>
  <course>12.01</course>
  <speed>0.01414213562373095</speed>
  <fix>3d</fix>
</trkpt>
<trkpt lat="40.072842" lon="-105.230575">
  <ele>1586.09</ele>
  <time>2026-08-27T18:25:22Z</time>
  <course>266.03</course>
  <speed>0.0</speed>
  <fix>3d</fix>
</trkpt>
<trkpt lat="40.072842" lon="-105.230575">
  <ele>1586.09</ele>
  <time>2026-08-27T18:25:22Z</time>
  <course>12.01</course>
  <speed>0.01414213562373095</speed>
  <fix>3d</fix>
</trkpt>
<trkpt lat="40.072842" lon="-105.230575">
  <ele>1586.09</ele>
  <time>2026-08-27T18:25:22Z</time>
  <course>266.03</course>
  <speed>0.0</speed>
  <fix>3d</fix>
</trkpt>
<trkpt lat="40.072842" lon="-105.230575">
  <ele>1586.09</ele>
  <time>2026-08-27T18:25:22Z</time>
  <course>12.0</course>
  <speed>0.01414213562373095</speed>
  <fix>3d</fix>
</trkpt>
<trkpt lat="40.072842" lon="-105.230575">
  <ele>1586.09</ele>
  <time>2026-08-27T18:25:22Z</time>
  <course>266.03</course>
  <speed>0.0</speed>
  <fix>3d</fix>
</trkpt>
<trkpt lat="40.072842" lon="-105.230575">
  <ele>1586.09</ele>
  <time>2026-08-27T18:25:22Z</time>
  <course>11.99</course>
  <speed>0.01414213562373095</speed>
  <fix>3d</fix>
</trkpt>
<trkpt lat="40.072842" lon="-105.230575">
  <ele>1586.09</ele>
  <time>2026-08-27T18:25:22Z</time>
  <course>266.03</course>
  <speed>0.0</speed>
  <fix>3d</fix>
</trkpt>
<trkpt lat="40.072842" lon="-105.230575">
  <ele>1586.09</ele>
  <time>2026-08-27T18:25:22Z</time>
  <course>11.98</course>
  <speed>0.01414213562373095</speed>
  <fix>3d</fix>
</trkpt>
<trkpt lat="40.072842" lon="-105.230575">
  <ele>1586.09</ele>
  <time>2026-08-27T18:25:22Z</time>
  <course>266.03</course>
  <speed>0.0</speed>
  <fix>3d</fix>
</trkpt>
<trkpt lat="40.072842" lon="-105.230575">
  <ele>1586.09</ele>
  <time>2026-08-27T18:25:22Z</time>
  <course>11.98</course>
  <speed>0.01414213562373095</speed>
  <fix>3d</fix>
</trkpt>
<trkpt lat="40.072842" lon="-105.230575">
  <ele>1586.09</ele>
  <time>2026-08-27T18:25:22Z</time>
  <course>266.03</course>
  <speed>0.0</speed>
  <fix>3d</fix>
</trkpt>
<trkpt lat="40.072842" lon="-105.230575">
  <ele>1586.09</ele>
  <time>2026-08-27T18:25:22Z</time>
  <course>11.97</course>
  <speed>0.022360679774997897</speed>
  <fix>3d</fix>
</trkpt>
<trkpt lat="40.072842" lon="-105.230575">
  <ele>1586.09</ele>
  <time>2026-08-27T18:25:22Z</time>
  <course>266.03</course>
  <speed>0.0</speed>
  <fix>3d</fix>
</trkpt>
<trkpt lat="40.072842" lon="-105.230575">
  <ele>1586.09</ele>
  <time>2026-08-27T18:25:22Z</time>
  <course>11.96</course>
  <speed>0.022360679774997897</speed>
  <fix>3d</fix>
</trkpt>
<trkpt lat="40.072842" lon="-105.230575">
  <ele>1586.09</ele>
  <time>2026-08-27T18:25:22Z</time>
  <course>266.03</course>
  <speed>0.0</speed>
  <fix>3d</fix>
</trkpt>
<trkpt lat="40.072842" lon="-105.230575">
  <ele>1586.09</ele>
  <time>2026-08-27T18:25:22Z</time>
  <course>11.95</course>
  <speed>0.022360679774997897</speed>
  <fix>3d</fix>
</trkpt>
<trkpt lat="40.072842" lon="-105.230575">
  <ele>1586.09</ele>
  <time>2026-08-27T18:25:22Z</time>
  <course>266.03</course>
  <speed>0.0</speed>
  <fix>3d</fix>
</trkpt>
<trkpt lat="40.072842" lon="-105.230575">
  <ele>1586.09</ele>
  <time>2026-08-27T18:25:22Z</time>
  <course>11.94</course>
  <speed>0.022360679774997897</speed>
  <fix>3d</fix>
</trkpt>
<trkpt lat="40.072842" lon="-105.230575">
  <ele>1586.09</ele>
  <time>2026-08-27T18:25:22Z</time>
  <course>266.03</course>
  <speed>0.0</speed>
  <fix>3d</fix>
</trkpt>
<trkpt lat="40.072842" lon="-105.230575">
  <ele>1586.09</ele>
  <time>2026-08-27T18:25:22Z</time>
  <course>11.93</course>
  <speed>0.022360679774997897</speed>
  <fix>3d</fix>
</trkpt>
<trkpt lat="40.072842" lon="-105.230575">
  <ele>1586.09</ele>
  <time>2026-08-27T18:25:22Z</time>
  <course>266.03</course>
  <speed>0.0</speed>
  <fix>3d</fix>
</trkpt>
<trkpt lat="40.072842" lon="-105.230575">
  <ele>1586.09</ele>
  <time>2026-08-27T18:25:22Z</time>
  <course>11.92</course>
  <speed>0.022360679774997897</speed>
  <fix>3d</fix>
</trkpt>
<trkpt lat="40.072842" lon="-105.230575">
  <ele>1586.09</ele>
  <time>2026-08-27T18:25:22Z</time>
  <course>266.03</course>
  <speed>0.0</speed>
  <fix>3d</fix>
</trkpt>
<trkpt lat="40.072842" lon="-105.230575">
  <ele>1586.09</ele>
  <time>2026-08-27T18:25:22Z</time>
  <course>11.92</course>
  <speed>0.022360679774997897</speed>
  <fix>3d</fix>
</trkpt>
<trkpt lat="40.072842" lon="-105.230575">
  <ele>1586.09</ele>
  <time>2026-08-27T18:25:22Z</time>
  <course>266.03</course>
  <speed>0.0</speed>
  <fix>3d</fix>
</trkpt>
<trkpt lat="40.072842" lon="-105.230575">
  <ele>1586.09</ele>
  <time>2026-08-27T18:25:22Z</time>
  <course>11.91</course>
  <speed>0.022360679774997897</speed>
  <fix>3d</fix>
</trkpt>
<trkpt lat="40.072842" lon="-105.230575">
  <ele>1586.09</ele>
  <time>2026-08-27T18:25:22Z</time>
  <course>266.03</course>
  <speed>0.0</speed>
  <fix>3d</fix>
</trkpt>
<trkpt lat="40.072842" lon="-105.230575">
  <ele>1586.09</ele>
  <time>2026-08-27T18:25:22Z</time>
  <course>11.9</course>
  <speed>0.022360679774997897</speed>
  <fix>3d</fix>
</trkpt>
<trkpt lat="40.072842" lon="-105.230575">
  <ele>1586.09</ele>
  <time>2026-08-27T18:25:22Z</time>
  <course>266.03</course>
  <speed>0.0</speed>
  <fix>3d</fix>
</trkpt>
<trkpt lat="40.072842" lon="-105.230575">
  <ele>1586.09</ele>
  <time>2026-08-27T18:25:22Z</time>
  <course>11.89</course>
  <speed>0.022360679774997897</speed>
  <fix>3d</fix>
</trkpt>
<trkpt lat="40.072842" lon="-105.230575">
  <ele>1586.09</ele>
  <time>2026-08-27T18:25:22Z</time>
  <course>266.03</course>
  <speed>0.0</speed>
  <fix>3d</fix>
</trkpt>
<trkpt lat="40.072842" lon="-105.230575">
  <ele>1586.09</ele>
  <time>2026-08-27T18:25:22Z</time>
  <course>11.88</course>
  <speed>0.022360679774997897</speed>
  <fix>3d</fix>
</trkpt>
<trkpt lat="40.072842" lon="-105.230575">
  <ele>1586.09</ele>
  <time>2026-08-27T18:25:22Z</time>
  <course>266.03</course>
  <speed>0.0</speed>
  <fix>3d</fix>
</trkpt>
<trkpt lat="40.072842" lon="-105.230575">
  <ele>1586.09</ele>
  <time>2026-08-27T18:25:22Z</time>
  <course>11.87</course>
  <speed>0.022360679774997897</speed>
  <fix>3d</fix>
</trkpt>
<trkpt lat="40.072842" lon="-105.230575">
  <ele>1586.09</ele>
  <time>2026-08-27T18:25:22Z</time>
  <course>266.03</course>
  <speed>0.0</speed>
  <fix>3d</fix>
</trkpt>
<trkpt lat="40.072842" lon="-105.230575">
  <ele>1586.09</ele>
  <time>2026-08-27T18:25:22Z</time>
  <course>11.87</course>
  <speed>0.022360679774997897</speed>
  <fix>3d</fix>
</trkpt>
<trkpt lat="40.072842" lon="-105.230575">
  <ele>1586.09</ele>
  <time>2026-08-27T18:25:22Z</time>
  <course>266.03</course>
  <speed>0.0</speed>
  <fix>3d</fix>
</trkpt>
<trkpt lat="40.072842" lon="-105.230575">
  <ele>1586.09</ele>
  <time>2026-08-27T18:25:22Z</time>
  <course>11.86</course>
  <speed>0.022360679774997897</speed>
  <fix>3d</fix>
</trkpt>
<trkpt lat="40.072842" lon="-105.230575">
  <ele>1586.09</ele>
  <time>2026-08-27T18:25:22Z</time>
  <course>266.03</course>
  <speed>0.0</speed>
  <fix>3d</fix>
</trkpt>
<trkpt lat="40.072842" lon="-105.230575">
  <ele>1586.09</ele>
  <time>2026-08-27T18:25:22Z</time>
  <course>11.85</course>
  <speed>0.022360679774997897</speed>
  <fix>3d</fix>
</trkpt>
<trkpt lat="40.072842" lon="-105.230575">
  <ele>1586.09</ele>
  <time>2026-08-27T18:25:22Z</time>
  <course>266.03</course>
  <speed>0.0</speed>
  <fix>3d</fix>
</trkpt>
<trkpt lat="40.072842" lon="-105.230575">
  <ele>1586.09</ele>
  <time>2026-08-27T18:25:22Z</time>
  <course>11.84</course>
  <speed>0.0282842712474619</speed>
  <fix>3d</fix>
</trkpt>
<trkpt lat="40.072842" lon="-105.230575">
  <ele>1586.09</ele>
  <time>2026-08-27T18:25:22Z</time>
  <course>266.03</course>
  <speed>0.0</speed>
  <fix>3d</fix>
</trkpt>
<trkpt lat="40.072842" lon="-105.230575">
  <ele>1586.09</ele>
  <time>2026-08-27T18:25:22Z</time>
  <course>11.83</course>
  <speed>0.0282842712474619</speed>
  <fix>3d</fix>
</trkpt>
<trkpt lat="40.072842" lon="-105.230575">
  <ele>1586.09</ele>
  <time>2026-08-27T18:25:22Z</time>
  <course>266.03</course>
  <speed>0.0</speed>
  <fix>3d</fix>
</trkpt>
<trkpt lat="40.072842" lon="-105.230575">
  <ele>1586.09</ele>
  <time>2026-08-27T18:25:22Z</time>
  <course>11.83</course>
  <speed>0.0282842712474619</speed>
  <fix>3d</fix>
</trkpt>
<trkpt lat="40.072842" lon="-105.230575">
  <ele>1586.09</ele>
  <time>2026-08-27T18:25:22Z</time>
  <course>266.03</course>
  <speed>0.0</speed>
  <fix>3d</fix>
</trkpt>
<trkpt lat="40.072842" lon="-105.230575">
  <ele>1586.09</ele>
  <time>2026-08-27T18:25:22Z</time>
  <course>11.82</course>
  <speed>0.0282842712474619</speed>
  <fix>3d</fix>
</trkpt>
<trkpt lat="40.072842" lon="-105.230575">
  <ele>1586.09</ele>
  <time>2026-08-27T18:25:22Z</time>
  <course>266.03</course>
  <speed>0.0</speed>
  <fix>3d</fix>
</trkpt>
<trkpt lat="40.072842" lon="-105.230575">
  <ele>1586.09</ele>
  <time>2026-08-27T18:25:22Z</time>
  <course>11.81</course>
  <speed>0.0282842712474619</speed>
  <fix>3d</fix>
</trkpt>
<trkpt lat="40.072842" lon="-105.230575">
  <ele>1586.09</ele>
  <time>2026-08-27T18:25:22Z</time>
  <course>266.03</course>
  <speed>0.0</speed>
  <fix>3d</fix>
</trkpt>
<trkpt lat="40.072842" lon="-105.230575">
  <ele>1586.09</ele>
  <time>2026-08-27T18:25:22Z</time>
  <course>11.8</course>
  <speed>0.0282842712474619</speed>
  <fix>3d</fix>
</trkpt>
<trkpt lat="40.072842" lon="-105.230575">
  <ele>1586.09</ele>
  <time>2026-08-27T18:25:22Z</time>
  <course>266.03</course>
  <speed>0.0</speed>
  <fix>3d</fix>
</trkpt>
<trkpt lat="40.072842" lon="-105.230575">
  <ele>1586.09</ele>
  <time>2026-08-27T18:25:22Z</time>
  <course>11.79</course>
  <speed>0.0282842712474619</speed>
  <fix>3d</fix>
</trkpt>
<trkpt lat="40.072842" lon="-105.230575">
  <ele>1586.09</ele>
  <time>2026-08-27T18:25:22Z</time>
  <course>266.03</course>
  <speed>0.0</speed>
  <fix>3d</fix>
</trkpt>
<trkpt lat="40.072842" lon="-105.230575">
  <ele>1586.09</ele>
  <time>2026-08-27T18:25:23Z</time>
  <course>11.79</course>
  <speed>0.0282842712474619</speed>
  <fix>3d</fix>
</trkpt>
<trkpt lat="40.072842" lon="-105.230575">
  <ele>1586.09</ele>
  <time>2026-08-27T18:25:23Z</time>
  <course>266.03</course>
  <speed>0.0</speed>
  <fix>3d</fix>
</trkpt>
<trkpt lat="40.072842" lon="-105.230575">
  <ele>1586.09</ele>
  <time>2026-08-27T18:25:23Z</time>
  <course>11.78</course>
  <speed>0.0282842712474619</speed>
  <fix>3d</fix>
</trkpt>
<trkpt lat="40.072842" lon="-105.230575">
  <ele>1586.09</ele>
  <time>2026-08-27T18:25:23Z</time>
  <course>266.03</course>
  <speed>0.0</speed>
  <fix>3d</fix>
</trkpt>
<trkpt lat="40.072842" lon="-105.230575">
  <ele>1586.09</ele>
  <time>2026-08-27T18:25:23Z</time>
  <course>11.77</course>
  <speed>0.0282842712474619</speed>
  <fix>3d</fix>
</trkpt>
<trkpt lat="40.072842" lon="-105.230575">
  <ele>1586.09</ele>
  <time>2026-08-27T18:25:23Z</time>
  <course>266.03</course>
  <speed>0.0</speed>
  <fix>3d</fix>
</trkpt>
<trkpt lat="40.072842" lon="-105.230575">
  <ele>1586.09</ele>
  <time>2026-08-27T18:25:23Z</time>
  <course>11.77</course>
  <speed>0.0282842712474619</speed>
  <fix>3d</fix>
</trkpt>
<trkpt lat="40.072842" lon="-105.230575">
  <ele>1586.09</ele>
  <time>2026-08-27T18:25:23Z</time>
  <course>266.03</course>
  <speed>0.0</speed>
  <fix>3d</fix>
</trkpt>
<trkpt lat="40.072842" lon="-105.230575">
  <ele>1586.09</ele>
  <time>2026-08-27T18:25:23Z</time>
  <course>11.76</course>
  <speed>0.0282842712474619</speed>
  <fix>3d</fix>
</trkpt>
<trkpt lat="40.072842" lon="-105.230575">
  <ele>1586.09</ele>
  <time>2026-08-27T18:25:23Z</time>
  <course>266.03</course>
  <speed>0.0</speed>
  <fix>3d</fix>
</trkpt>
<trkpt lat="40.072842" lon="-105.230575">
  <ele>1586.09</ele>
  <time>2026-08-27T18:25:23Z</time>
  <course>11.75</course>
  <speed>0.0282842712474619</speed>
  <fix>3d</fix>
</trkpt>
<trkpt lat="40.072842" lon="-105.230575">
  <ele>1586.09</ele>
  <time>2026-08-27T18:25:23Z</time>
  <course>266.03</course>
  <speed>0.0</speed>
  <fix>3d</fix>
</trkpt>
<trkpt lat="40.072842" lon="-105.230575">
  <ele>1586.09</ele>
  <time>2026-08-27T18:25:23Z</time>
  <course>11.74</course>
  <speed>0.03605551275463989</speed>
  <fix>3d</fix>
</trkpt>
<trkpt lat="40.072842" lon="-105.230575">
  <ele>1586.09</ele>
  <time>2026-08-27T18:25:23Z</time>
  <course>266.03</course>
  <speed>0.0</speed>
  <fix>3d</fix>
</trkpt>
<trkpt lat="40.072842" lon="-105.230575">
  <ele>1586.09</ele>
  <time>2026-08-27T18:25:23Z</time>
  <course>11.73</course>
  <speed>0.03605551275463989</speed>
  <fix>3d</fix>
</trkpt>
<trkpt lat="40.072842" lon="-105.230575">
  <ele>1586.09</ele>
  <time>2026-08-27T18:25:23Z</time>
  <course>266.03</course>
  <speed>0.0</speed>
  <fix>3d</fix>
</trkpt>
<trkpt lat="40.072842" lon="-105.230575">
  <ele>1586.09</ele>
  <time>2026-08-27T18:25:23Z</time>
  <course>11.73</course>
  <speed>0.03605551275463989</speed>
  <fix>3d</fix>
</trkpt>
<trkpt lat="40.072842" lon="-105.230575">
  <ele>1586.09</ele>
  <time>2026-08-27T18:25:23Z</time>
  <course>266.03</course>
  <speed>0.0</speed>
  <fix>3d</fix>
</trkpt>
<trkpt lat="40.072842" lon="-105.230575">
  <ele>1586.09</ele>
  <time>2026-08-27T18:25:23Z</time>
  <course>11.72</course>
  <speed>0.03605551275463989</speed>
  <fix>3d</fix>
</trkpt>
<trkpt lat="40.072842" lon="-105.230575">
  <ele>1586.09</ele>
  <time>2026-08-27T18:25:23Z</time>
  <course>266.03</course>
  <speed>0.0</speed>
  <fix>3d</fix>
</trkpt>
<trkpt lat="40.072842" lon="-105.230575">
  <ele>1586.09</ele>
  <time>2026-08-27T18:25:23Z</time>
  <course>11.71</course>
  <speed>0.03605551275463989</speed>
  <fix>3d</fix>
</trkpt>
<trkpt lat="40.072842" lon="-105.230575">
  <ele>1586.09</ele>
  <time>2026-08-27T18:25:23Z</time>
  <course>266.03</course>
  <speed>0.0</speed>
  <fix>3d</fix>
</trkpt>
<trkpt lat="40.072842" lon="-105.230575">
  <ele>1586.09</ele>
  <time>2026-08-27T18:25:23Z</time>
  <course>11.71</course>
  <speed>0.03605551275463989</speed>
  <fix>3d</fix>
</trkpt>
<trkpt lat="40.072842" lon="-105.230575">
  <ele>1586.09</ele>
  <time>2026-08-27T18:25:23Z</time>
  <course>266.03</course>
  <speed>0.0</speed>
  <fix>3d</fix>
</trkpt>
<trkpt lat="40.072842" lon="-105.230575">
  <ele>1586.09</ele>
  <time>2026-08-27T18:25:23Z</time>
  <course>11.7</course>
  <speed>0.03605551275463989</speed>
  <fix>3d</fix>
</trkpt>
<trkpt lat="40.072842" lon="-105.230575">
  <ele>1586.09</ele>
  <time>2026-08-27T18:25:23Z</time>
  <course>266.03</course>
  <speed>0.0</speed>
  <fix>3d</fix>
</trkpt>
<trkpt lat="39.654938" lon="-104.1331666">
  <ele>1569.54</ele>
  <time>2026-08-27T18:25:23Z</time>
  <course>168.11</course>
  <speed>0.0</speed>
  <fix>3d</fix>
</trkpt>
<trkpt lat="40.072842" lon="-105.230575">
  <ele>1586.09</ele>
  <time>2026-08-27T18:25:23Z</time>
  <course>2.03</course>
  <speed>0.0</speed>
  <fix>3d</fix>
</trkpt>
<trkpt lat="40.072842" lon="-105.230575">
  <ele>1586.09</ele>
  <time>2026-08-27T18:25:23Z</time>
  <course>238.4</course>
  <speed>0.0</speed>
  <fix>3d</fix>
</trkpt>
<trkpt lat="40.072842" lon="-105.230575">
  <ele>1586.09</ele>
  <time>2026-08-27T18:25:23Z</time>
  <course>2.42</course>
  <speed>0.0</speed>
  <fix>3d</fix>
</trkpt>
<trkpt lat="40.072842" lon="-105.230575">
  <ele>1586.09</ele>
  <time>2026-08-27T18:25:23Z</time>
  <course>194.29</course>
  <speed>0.0</speed>
  <fix>3d</fix>
</trkpt>
<trkpt lat="40.072842" lon="-105.230575">
  <ele>1586.09</ele>
  <time>2026-08-27T18:25:23Z</time>
  <course>3.15</course>
  <speed>0.0</speed>
  <fix>3d</fix>
</trkpt>
<trkpt lat="40.072842" lon="-105.230575">
  <ele>1586.09</ele>
  <time>2026-08-27T18:25:23Z</time>
  <course>193.66</course>
  <speed>0.0</speed>
  <fix>3d</fix>
</trkpt>
<trkpt lat="40.072842" lon="-105.230575">
  <ele>1586.09</ele>
  <time>2026-08-27T18:25:23Z</time>
  <course>3.84</course>
  <speed>0.0</speed>
  <fix>3d</fix>
</trkpt>
<trkpt lat="40.072842" lon="-105.230575">
  <ele>1586.09</ele>
  <time>2026-08-27T18:25:23Z</time>
  <course>303.54</course>
  <speed>0.0</speed>
  <fix>3d</fix>
</trkpt>
<trkpt lat="40.072842" lon="-105.230575">
  <ele>1586.09</ele>
  <time>2026-08-27T18:25:23Z</time>
  <course>4.47</course>
  <speed>0.0</speed>
  <fix>3d</fix>
</trkpt>
<trkpt lat="40.072842" lon="-105.230575">
  <ele>1586.09</ele>
  <time>2026-08-27T18:25:23Z</time>
  <course>110.94</course>
  <speed>0.0</speed>
  <fix>3d</fix>
</trkpt>
<trkpt lat="40.072842" lon="-105.230575">
  <ele>1586.09</ele>
  <time>2026-08-27T18:25:23Z</time>
  <course>5.05</course>
  <speed>0.0</speed>
  <fix>3d</fix>
</trkpt>
<trkpt lat="40.072842" lon="-105.230575">
  <ele>1586.09</ele>
  <time>2026-08-27T18:25:23Z</time>
  <course>191.21</course>
  <speed>0.0</speed>
  <fix>3d</fix>
</trkpt>
<trkpt lat="40.072842" lon="-105.230575">
  <ele>1586.09</ele>
  <time>2026-08-27T18:25:23Z</time>
  <course>5.61</course>
  <speed>0.0</speed>
  <fix>3d</fix>
</trkpt>
<trkpt lat="40.072842" lon="-105.230575">
  <ele>1586.09</ele>
  <time>2026-08-27T18:25:23Z</time>
  <course>252.23</course>
  <speed>0.0</speed>
  <fix>3d</fix>
</trkpt>
<trkpt lat="40.072842" lon="-105.230575">
  <ele>1586.09</ele>
  <time>2026-08-27T18:25:23Z</time>
  <course>6.14</course>
  <speed>0.0</speed>
  <fix>3d</fix>
</trkpt>
<trkpt lat="40.072842" lon="-105.230575">
  <ele>1586.09</ele>
  <time>2026-08-27T18:25:23Z</time>
  <course>170.36</course>
  <speed>0.0</speed>
  <fix>3d</fix>
</trkpt>
<trkpt lat="40.072842" lon="-105.230575">
  <ele>1586.09</ele>
  <time>2026-08-27T18:25:23Z</time>
  <course>6.64</course>
  <speed>0.0</speed>
  <fix>3d</fix>
</trkpt>
<trkpt lat="40.072842" lon="-105.230575">
  <ele>1586.09</ele>
  <time>2026-08-27T18:25:23Z</time>
  <course>179.36</course>
  <speed>0.0</speed>
  <fix>3d</fix>
</trkpt>
<trkpt lat="40.072842" lon="-105.230575">
  <ele>1586.09</ele>
  <time>2026-08-27T18:25:23Z</time>
  <course>7.09</course>
  <speed>0.0</speed>
  <fix>3d</fix>
</trkpt>
<trkpt lat="40.072842" lon="-105.230575">
  <ele>1586.09</ele>
  <time>2026-08-27T18:25:23Z</time>
  <course>19.98</course>
  <speed>0.0</speed>
  <fix>3d</fix>
</trkpt>
<trkpt lat="40.072842" lon="-105.230575">
  <ele>1586.09</ele>
  <time>2026-08-27T18:25:23Z</time>
  <course>7.52</course>
  <speed>0.0</speed>
  <fix>3d</fix>
</trkpt>
<trkpt lat="40.072842" lon="-105.230575">
  <ele>1586.09</ele>
  <time>2026-08-27T18:25:23Z</time>
  <course>17.49</course>
  <speed>0.0</speed>
  <fix>3d</fix>
</trkpt>
<trkpt lat="40.072842" lon="-105.230575">
  <ele>1586.09</ele>
  <time>2026-08-27T18:25:23Z</time>
  <course>7.92</course>
  <speed>0.0</speed>
  <fix>3d</fix>
</trkpt>
<trkpt lat="40.072842" lon="-105.230575">
  <ele>1586.09</ele>
  <time>2026-08-27T18:25:23Z</time>
  <course>356.19</course>
  <speed>0.0</speed>
  <fix>3d</fix>
</trkpt>
<trkpt lat="40.072842" lon="-105.230575">
  <ele>1586.09</ele>
  <time>2026-08-27T18:25:23Z</time>
  <course>8.28</course>
  <speed>0.0</speed>
  <fix>3d</fix>
</trkpt>
<trkpt lat="40.072842" lon="-105.230575">
  <ele>1586.09</ele>
  <time>2026-08-27T18:25:23Z</time>
  <course>77.32</course>
  <speed>0.0</speed>
  <fix>3d</fix>
</trkpt>
<trkpt lat="40.072842" lon="-105.230575">
  <ele>1586.09</ele>
  <time>2026-08-27T18:25:23Z</time>
  <course>8.62</course>
  <speed>0.0</speed>
  <fix>3d</fix>
</trkpt>
<trkpt lat="40.072842" lon="-105.230575">
  <ele>1586.09</ele>
  <time>2026-08-27T18:25:23Z</time>
  <course>290.54</course>
  <speed>0.0</speed>
  <fix>3d</fix>
</trkpt>
<trkpt lat="40.072842" lon="-105.230575">
  <ele>1586.09</ele>
  <time>2026-08-27T18:25:23Z</time>
  <course>8.93</course>
  <speed>0.0</speed>
  <fix>3d</fix>
</trkpt>
<trkpt lat="40.072842" lon="-105.230575">
  <ele>1586.09</ele>
  <time>2026-08-27T18:25:23Z</time>
  <course>338.69</course>
  <speed>0.0</speed>
  <fix>3d</fix>
</trkpt>
<trkpt lat="40.072842" lon="-105.230575">
  <ele>1586.09</ele>
  <time>2026-08-27T18:25:23Z</time>
  <course>9.22</course>
  <speed>0.0</speed>
  <fix>3d</fix>
</trkpt>
<trkpt lat="40.072842" lon="-105.230575">
  <ele>1586.09</ele>
  <time>2026-08-27T18:25:23Z</time>
  <course>326.81</course>
  <speed>0.0</speed>
  <fix>3d</fix>
</trkpt>
<trkpt lat="40.072842" lon="-105.230575">
  <ele>1586.09</ele>
  <time>2026-08-27T18:25:23Z</time>
  <course>9.48</course>
  <speed>0.0</speed>
  <fix>3d</fix>
</trkpt>
<trkpt lat="40.072842" lon="-105.230575">
  <ele>1586.09</ele>
  <time>2026-08-27T18:25:23Z</time>
  <course>262.23</course>
  <speed>0.0</speed>
  <fix>3d</fix>
</trkpt>
<trkpt lat="40.072842" lon="-105.230575">
  <ele>1586.09</ele>
  <time>2026-08-27T18:25:23Z</time>
  <course>9.73</course>
  <speed>0.0</speed>
  <fix>3d</fix>
</trkpt>
<trkpt lat="40.072842" lon="-105.230575">
  <ele>1586.09</ele>
  <time>2026-08-27T18:25:23Z</time>
  <course>159.08</course>
  <speed>0.0</speed>
  <fix>3d</fix>
</trkpt>
<trkpt lat="40.072842" lon="-105.230575">
  <ele>1586.09</ele>
  <time>2026-08-27T18:25:23Z</time>
  <course>9.95</course>
  <speed>0.0</speed>
  <fix>3d</fix>
</trkpt>
<trkpt lat="40.072842" lon="-105.230575">
  <ele>1586.09</ele>
  <time>2026-08-27T18:25:23Z</time>
  <course>287.98</course>
  <speed>0.0</speed>
  <fix>3d</fix>
</trkpt>
<trkpt lat="40.072842" lon="-105.230575">
  <ele>1586.09</ele>
  <time>2026-08-27T18:25:23Z</time>
  <course>10.16</course>
  <speed>0.0</speed>
  <fix>3d</fix>
</trkpt>
<trkpt lat="40.072842" lon="-105.230575">
  <ele>1586.09</ele>
  <time>2026-08-27T18:25:23Z</time>
  <course>278.3</course>
  <speed>0.0</speed>
  <fix>3d</fix>
</trkpt>
<trkpt lat="40.072842" lon="-105.230575">
  <ele>1586.09</ele>
  <time>2026-08-27T18:25:23Z</time>
  <course>10.34</course>
  <speed>0.0</speed>
  <fix>3d</fix>
</trkpt>
<trkpt lat="40.072842" lon="-105.230575">
  <ele>1586.09</ele>
  <time>2026-08-27T18:25:23Z</time>
  <course>261.72</course>
  <speed>0.0</speed>
  <fix>3d</fix>
</trkpt>
<trkpt lat="40.072842" lon="-105.230575">
  <ele>1586.09</ele>
  <time>2026-08-27T18:25:23Z</time>
  <course>10.51</course>
  <speed>0.0</speed>
  <fix>3d</fix>
</trkpt>
<trkpt lat="40.072842" lon="-105.230575">
  <ele>1586.09</ele>
  <time>2026-08-27T18:25:23Z</time>
  <course>264.4</course>
  <speed>0.0</speed>
  <fix>3d</fix>
</trkpt>
<trkpt lat="40.072842" lon="-105.230575">
  <ele>1586.09</ele>
  <time>2026-08-27T18:25:23Z</time>
  <course>10.67</course>
  <speed>0.0</speed>
  <fix>3d</fix>
</trkpt>
<trkpt lat="40.072842" lon="-105.230575">
  <ele>1586.09</ele>
  <time>2026-08-27T18:25:23Z</time>
  <course>266.8</course>
  <speed>0.0</speed>
  <fix>3d</fix>
</trkpt>
<trkpt lat="40.072842" lon="-105.230575">
  <ele>1586.09</ele>
  <time>2026-08-27T18:25:23Z</time>
  <course>10.81</course>
  <speed>0.0</speed>
  <fix>3d</fix>
</trkpt>
<trkpt lat="40.072842" lon="-105.230575">
  <ele>1586.09</ele>
  <time>2026-08-27T18:25:23Z</time>
  <course>266.15</course>
  <speed>0.0</speed>
  <fix>3d</fix>
</trkpt>
<trkpt lat="40.072842" lon="-105.230575">
  <ele>1586.09</ele>
  <time>2026-08-27T18:25:23Z</time>
  <course>10.95</course>
  <speed>0.0</speed>
  <fix>3d</fix>
</trkpt>
<trkpt lat="40.072842" lon="-105.230575">
  <ele>1586.09</ele>
  <time>2026-08-27T18:25:23Z</time>
  <course>265.92</course>
  <speed>0.0</speed>
  <fix>3d</fix>
</trkpt>
<trkpt lat="40.072842" lon="-105.230575">
  <ele>1586.09</ele>
  <time>2026-08-27T18:25:23Z</time>
  <course>11.07</course>
  <speed>0.0</speed>
  <fix>3d</fix>
</trkpt>
<trkpt lat="40.072842" lon="-105.230575">
  <ele>1586.09</ele>
  <time>2026-08-27T18:25:23Z</time>
  <course>266.03</course>
  <speed>0.0</speed>
  <fix>3d</fix>
</trkpt>
<trkpt lat="40.072842" lon="-105.230575">
  <ele>1586.09</ele>
  <time>2026-08-27T18:25:23Z</time>
  <course>11.18</course>
  <speed>0.0</speed>
  <fix>3d</fix>
</trkpt>
<trkpt lat="40.072842" lon="-105.230575">
  <ele>1586.09</ele>
  <time>2026-08-27T18:25:23Z</time>
  <course>266.05</course>
  <speed>0.0</speed>
  <fix>3d</fix>
</trkpt>
<trkpt lat="40.072842" lon="-105.230575">
  <ele>1586.09</ele>
  <time>2026-08-27T18:25:23Z</time>
  <course>11.28</course>
  <speed>0.0</speed>
  <fix>3d</fix>
</trkpt>
<trkpt lat="40.072842" lon="-105.230575">
  <ele>1586.09</ele>
  <time>2026-08-27T18:25:23Z</time>
  <course>266.03</course>
  <speed>0.0</speed>
  <fix>3d</fix>
</trkpt>
<trkpt lat="40.072842" lon="-105.230575">
  <ele>1586.09</ele>
  <time>2026-08-27T18:25:23Z</time>
  <course>11.37</course>
  <speed>0.0</speed>
  <fix>3d</fix>
</trkpt>
<trkpt lat="40.072842" lon="-105.230575">
  <ele>1586.09</ele>
  <time>2026-08-27T18:25:23Z</time>
  <course>266.03</course>
  <speed>0.0</speed>
  <fix>3d</fix>
</trkpt>
<trkpt lat="40.072842" lon="-105.230575">
  <ele>1586.09</ele>
  <time>2026-08-27T18:25:23Z</time>
  <course>11.45</course>
  <speed>0.0</speed>
  <fix>3d</fix>
</trkpt>
<trkpt lat="40.072842" lon="-105.230575">
  <ele>1586.09</ele>
  <time>2026-08-27T18:25:23Z</time>
  <course>266.03</course>
  <speed>0.0</speed>
  <fix>3d</fix>
</trkpt>
<trkpt lat="40.072842" lon="-105.230575">
  <ele>1586.09</ele>
  <time>2026-08-27T18:25:23Z</time>
  <course>11.53</course>
  <speed>0.0</speed>
  <fix>3d</fix>
</trkpt>
<trkpt lat="40.072842" lon="-105.230575">
  <ele>1586.09</ele>
  <time>2026-08-27T18:25:23Z</time>
  <course>266.03</course>
  <speed>0.0</speed>
  <fix>3d</fix>
</trkpt>
<trkpt lat="40.072842" lon="-105.230575">
  <ele>1586.09</ele>
  <time>2026-08-27T18:25:23Z</time>
  <course>11.59</course>
  <speed>0.0</speed>
  <fix>3d</fix>
</trkpt>
<trkpt lat="40.072842" lon="-105.230575">
  <ele>1586.09</ele>
  <time>2026-08-27T18:25:23Z</time>
  <course>266.03</course>
  <speed>0.0</speed>
  <fix>3d</fix>
</trkpt>
<trkpt lat="40.072842" lon="-105.230575">
  <ele>1586.09</ele>
  <time>2026-08-27T18:25:23Z</time>
  <course>11.66</course>
  <speed>0.0</speed>
  <fix>3d</fix>
</trkpt>
<trkpt lat="40.072842" lon="-105.230575">
  <ele>1586.09</ele>
  <time>2026-08-27T18:25:23Z</time>
  <course>266.03</course>
  <speed>0.0</speed>
  <fix>3d</fix>
</trkpt>
<trkpt lat="40.072842" lon="-105.230575">
  <ele>1586.09</ele>
  <time>2026-08-27T18:25:23Z</time>
  <course>11.71</course>
  <speed>0.0</speed>
  <fix>3d</fix>
</trkpt>
<trkpt lat="40.072842" lon="-105.230575">
  <ele>1586.09</ele>
  <time>2026-08-27T18:25:23Z</time>
  <course>266.03</course>
  <speed>0.0</speed>
  <fix>3d</fix>
</trkpt>
<trkpt lat="40.072842" lon="-105.230575">
  <ele>1586.09</ele>
  <time>2026-08-27T18:25:23Z</time>
  <course>11.76</course>
  <speed>0.0</speed>
  <fix>3d</fix>
</trkpt>
<trkpt lat="40.072842" lon="-105.230575">
  <ele>1586.09</ele>
  <time>2026-08-27T18:25:23Z</time>
  <course>266.03</course>
  <speed>0.0</speed>
  <fix>3d</fix>
</trkpt>
<trkpt lat="40.072842" lon="-105.230575">
  <ele>1586.09</ele>
  <time>2026-08-27T18:25:23Z</time>
  <course>11.81</course>
  <speed>0.0</speed>
  <fix>3d</fix>
</trkpt>
<trkpt lat="40.072842" lon="-105.230575">
  <ele>1586.09</ele>
  <time>2026-08-27T18:25:23Z</time>
  <course>266.03</course>
  <speed>0.0</speed>
  <fix>3d</fix>
</trkpt>
<trkpt lat="40.072842" lon="-105.230575">
  <ele>1586.09</ele>
  <time>2026-08-27T18:25:23Z</time>
  <course>11.85</course>
  <speed>0.0</speed>
  <fix>3d</fix>
</trkpt>
<trkpt lat="40.072842" lon="-105.230575">
  <ele>1586.09</ele>
  <time>2026-08-27T18:25:23Z</time>
  <course>266.03</course>
  <speed>0.0</speed>
  <fix>3d</fix>
</trkpt>
<trkpt lat="40.072842" lon="-105.230575">
  <ele>1586.09</ele>
  <time>2026-08-27T18:25:23Z</time>
  <course>11.88</course>
  <speed>0.0</speed>
  <fix>3d</fix>
</trkpt>
<trkpt lat="40.072842" lon="-105.230575">
  <ele>1586.09</ele>
  <time>2026-08-27T18:25:23Z</time>
  <course>266.03</course>
  <speed>0.0</speed>
  <fix>3d</fix>
</trkpt>
<trkpt lat="40.072842" lon="-105.230575">
  <ele>1586.09</ele>
  <time>2026-08-27T18:25:23Z</time>
  <course>11.92</course>
  <speed>0.0</speed>
  <fix>3d</fix>
</trkpt>
<trkpt lat="40.072842" lon="-105.230575">
  <ele>1586.09</ele>
  <time>2026-08-27T18:25:23Z</time>
  <course>266.03</course>
  <speed>0.0</speed>
  <fix>3d</fix>
</trkpt>
<trkpt lat="40.072842" lon="-105.230575">
  <ele>1586.09</ele>
  <time>2026-08-27T18:25:23Z</time>
  <course>11.95</course>
  <speed>0.0</speed>
  <fix>3d</fix>
</trkpt>
<trkpt lat="40.072842" lon="-105.230575">
  <ele>1586.09</ele>
  <time>2026-08-27T18:25:23Z</time>
  <course>266.03</course>
  <speed>0.0</speed>
  <fix>3d</fix>
</trkpt>
<trkpt lat="40.072842" lon="-105.230575">
  <ele>1586.09</ele>
  <time>2026-08-27T18:25:23Z</time>
  <course>11.97</course>
  <speed>0.0</speed>
  <fix>3d</fix>
</trkpt>
<trkpt lat="40.072842" lon="-105.230575">
  <ele>1586.09</ele>
  <time>2026-08-27T18:25:23Z</time>
  <course>266.03</course>
  <speed>0.0</speed>
  <fix>3d</fix>
</trkpt>
<trkpt lat="40.072842" lon="-105.230575">
  <ele>1586.09</ele>
  <time>2026-08-27T18:25:23Z</time>
  <course>12.0</course>
  <speed>0.0</speed>
  <fix>3d</fix>
</trkpt>
<trkpt lat="40.072842" lon="-105.230575">
  <ele>1586.09</ele>
  <time>2026-08-27T18:25:23Z</time>
  <course>266.03</course>
  <speed>0.0</speed>
  <fix>3d</fix>
</trkpt>
<trkpt lat="40.072842" lon="-105.230575">
  <ele>1586.09</ele>
  <time>2026-08-27T18:25:23Z</time>
  <course>12.02</course>
  <speed>0.0</speed>
  <fix>3d</fix>
</trkpt>
<trkpt lat="40.072842" lon="-105.230575">
  <ele>1586.09</ele>
  <time>2026-08-27T18:25:23Z</time>
  <course>266.03</course>
  <speed>0.0</speed>
  <fix>3d</fix>
</trkpt>
<trkpt lat="40.072842" lon="-105.230575">
  <ele>1586.09</ele>
  <time>2026-08-27T18:25:23Z</time>
  <course>12.04</course>
  <speed>0.0</speed>
  <fix>3d</fix>
</trkpt>
<trkpt lat="40.072842" lon="-105.230575">
  <ele>1586.09</ele>
  <time>2026-08-27T18:25:23Z</time>
  <course>266.03</course>
  <speed>0.0</speed>
  <fix>3d</fix>
</trkpt>
<trkpt lat="40.072842" lon="-105.230575">
  <ele>1586.09</ele>
  <time>2026-08-27T18:25:23Z</time>
  <course>12.05</course>
  <speed>0.0</speed>
  <fix>3d</fix>
</trkpt>
<trkpt lat="40.072842" lon="-105.230575">
  <ele>1586.09</ele>
  <time>2026-08-27T18:25:23Z</time>
  <course>266.03</course>
  <speed>0.0</speed>
  <fix>3d</fix>
</trkpt>
<trkpt lat="40.072842" lon="-105.230575">
  <ele>1586.09</ele>
  <time>2026-08-27T18:25:23Z</time>
  <course>12.07</course>
  <speed>0.0</speed>
  <fix>3d</fix>
</trkpt>
<trkpt lat="40.072842" lon="-105.230575">
  <ele>1586.09</ele>
  <time>2026-08-27T18:25:23Z</time>
  <course>266.03</course>
  <speed>0.0</speed>
  <fix>3d</fix>
</trkpt>
<trkpt lat="40.072842" lon="-105.230575">
  <ele>1586.09</ele>
  <time>2026-08-27T18:25:23Z</time>
  <course>12.08</course>
  <speed>0.0</speed>
  <fix>3d</fix>
</trkpt>
<trkpt lat="40.072842" lon="-105.230575">
  <ele>1586.09</ele>
  <time>2026-08-27T18:25:23Z</time>
  <course>266.03</course>
  <speed>0.0</speed>
  <fix>3d</fix>
</trkpt>
<trkpt lat="40.072842" lon="-105.230575">
  <ele>1586.09</ele>
  <time>2026-08-27T18:25:23Z</time>
  <course>12.09</course>
  <speed>0.0</speed>
  <fix>3d</fix>
</trkpt>
<trkpt lat="40.072842" lon="-105.230575">
  <ele>1586.09</ele>
  <time>2026-08-27T18:25:23Z</time>
  <course>266.03</course>
  <speed>0.0</speed>
  <fix>3d</fix>
</trkpt>
<trkpt lat="40.072842" lon="-105.230575">
  <ele>1586.09</ele>
  <time>2026-08-27T18:25:23Z</time>
  <course>12.1</course>
  <speed>0.0</speed>
  <fix>3d</fix>
</trkpt>
<trkpt lat="40.072842" lon="-105.230575">
  <ele>1586.09</ele>
  <time>2026-08-27T18:25:23Z</time>
  <course>266.03</course>
  <speed>0.0</speed>
  <fix>3d</fix>
</trkpt>
<trkpt lat="40.072842" lon="-105.230575">
  <ele>1586.09</ele>
  <time>2026-08-27T18:25:23Z</time>
  <course>12.1</course>
  <speed>0.0</speed>
  <fix>3d</fix>
</trkpt>
<trkpt lat="40.072842" lon="-105.230575">
  <ele>1586.09</ele>
  <time>2026-08-27T18:25:23Z</time>
  <course>266.03</course>
  <speed>0.0</speed>
  <fix>3d</fix>
</trkpt>
<trkpt lat="40.072842" lon="-105.230575">
  <ele>1586.09</ele>
  <time>2026-08-27T18:25:23Z</time>
  <course>12.11</course>
  <speed>0.0</speed>
  <fix>3d</fix>
</trkpt>
<trkpt lat="40.072842" lon="-105.230575">
  <ele>1586.09</ele>
  <time>2026-08-27T18:25:23Z</time>
  <course>266.03</course>
  <speed>0.0</speed>
  <fix>3d</fix>
</trkpt>
<trkpt lat="40.072842" lon="-105.230575">
  <ele>1586.09</ele>
  <time>2026-08-27T18:25:23Z</time>
  <course>12.12</course>
  <speed>0.0</speed>
  <fix>3d</fix>
</trkpt>
<trkpt lat="40.072842" lon="-105.230575">
  <ele>1586.09</ele>
  <time>2026-08-27T18:25:23Z</time>
  <course>266.03</course>
  <speed>0.0</speed>
  <fix>3d</fix>
</trkpt>
<trkpt lat="40.072842" lon="-105.230575">
  <ele>1586.09</ele>
  <time>2026-08-27T18:25:23Z</time>
  <course>12.12</course>
  <speed>0.0</speed>
  <fix>3d</fix>
</trkpt>
<trkpt lat="40.072842" lon="-105.230575">
  <ele>1586.09</ele>
  <time>2026-08-27T18:25:23Z</time>
  <course>266.03</course>
  <speed>0.0</speed>
  <fix>3d</fix>
</trkpt>
<trkpt lat="40.072842" lon="-105.230575">
  <ele>1586.09</ele>
  <time>2026-08-27T18:25:23Z</time>
  <course>12.12</course>
  <speed>0.0</speed>
  <fix>3d</fix>
</trkpt>
<trkpt lat="40.072842" lon="-105.230575">
  <ele>1586.09</ele>
  <time>2026-08-27T18:25:23Z</time>
  <course>266.03</course>
  <speed>0.0</speed>
  <fix>3d</fix>
</trkpt>
<trkpt lat="40.072842" lon="-105.230575">
  <ele>1586.09</ele>
  <time>2026-08-27T18:25:23Z</time>
  <course>12.13</course>
  <speed>0.0</speed>
  <fix>3d</fix>
</trkpt>
<trkpt lat="40.072842" lon="-105.230575">
  <ele>1586.09</ele>
  <time>2026-08-27T18:25:24Z</time>
  <course>266.03</course>
  <speed>0.0</speed>
  <fix>3d</fix>
</trkpt>
<trkpt lat="40.072842" lon="-105.230575">
  <ele>1586.09</ele>
  <time>2026-08-27T18:25:24Z</time>
  <course>12.13</course>
  <speed>0.0</speed>
  <fix>3d</fix>
</trkpt>
<trkpt lat="40.072842" lon="-105.230575">
  <ele>1586.09</ele>
  <time>2026-08-27T18:25:24Z</time>
  <course>266.03</course>
  <speed>0.0</speed>
  <fix>3d</fix>
</trkpt>
<trkpt lat="40.072842" lon="-105.230575">
  <ele>1586.09</ele>
  <time>2026-08-27T18:25:24Z</time>
  <course>12.13</course>
  <speed>0.0</speed>
  <fix>3d</fix>
</trkpt>
<trkpt lat="40.072842" lon="-105.230575">
  <ele>1586.09</ele>
  <time>2026-08-27T18:25:24Z</time>
  <course>266.03</course>
  <speed>0.0</speed>
  <fix>3d</fix>
</trkpt>
<trkpt lat="40.072842" lon="-105.230575">
  <ele>1586.09</ele>
  <time>2026-08-27T18:25:24Z</time>
  <course>12.12</course>
  <speed>0.01</speed>
  <fix>3d</fix>
</trkpt>
<trkpt lat="40.072842" lon="-105.230575">
  <ele>1586.09</ele>
  <time>2026-08-27T18:25:24Z</time>
  <course>266.03</course>
  <speed>0.0</speed>
  <fix>3d</fix>
</trkpt>
<trkpt lat="40.072842" lon="-105.230575">
  <ele>1586.09</ele>
  <time>2026-08-27T18:25:24Z</time>
  <course>12.12</course>
  <speed>0.01</speed>
  <fix>3d</fix>
</trkpt>
<trkpt lat="40.072842" lon="-105.230575">
  <ele>1586.09</ele>
  <time>2026-08-27T18:25:24Z</time>
  <course>266.03</course>
  <speed>0.0</speed>
  <fix>3d</fix>
</trkpt>
<trkpt lat="40.072842" lon="-105.230575">
  <ele>1586.09</ele>
  <time>2026-08-27T18:25:24Z</time>
  <course>12.12</course>
  <speed>0.01</speed>
  <fix>3d</fix>
</trkpt>
<trkpt lat="40.072842" lon="-105.230575">
  <ele>1586.09</ele>
  <time>2026-08-27T18:25:24Z</time>
  <course>266.03</course>
  <speed>0.0</speed>
  <fix>3d</fix>
</trkpt>
<trkpt lat="40.072842" lon="-105.230575">
  <ele>1586.09</ele>
  <time>2026-08-27T18:25:24Z</time>
  <course>12.12</course>
  <speed>0.01</speed>
  <fix>3d</fix>
</trkpt>
<trkpt lat="40.072842" lon="-105.230575">
  <ele>1586.09</ele>
  <time>2026-08-27T18:25:24Z</time>
  <course>266.03</course>
  <speed>0.0</speed>
  <fix>3d</fix>
</trkpt>
<trkpt lat="40.072842" lon="-105.230575">
  <ele>1586.09</ele>
  <time>2026-08-27T18:25:24Z</time>
  <course>12.11</course>
  <speed>0.01</speed>
  <fix>3d</fix>
</trkpt>
<trkpt lat="40.072842" lon="-105.230575">
  <ele>1586.09</ele>
  <time>2026-08-27T18:25:24Z</time>
  <course>266.03</course>
  <speed>0.0</speed>
  <fix>3d</fix>
</trkpt>
<trkpt lat="40.072842" lon="-105.230575">
  <ele>1586.09</ele>
  <time>2026-08-27T18:25:24Z</time>
  <course>12.11</course>
  <speed>0.01</speed>
  <fix>3d</fix>
</trkpt>
<trkpt lat="40.072842" lon="-105.230575">
  <ele>1586.09</ele>
  <time>2026-08-27T18:25:24Z</time>
  <course>266.03</course>
  <speed>0.0</speed>
  <fix>3d</fix>
</trkpt>
<trkpt lat="40.072842" lon="-105.230575">
  <ele>1586.09</ele>
  <time>2026-08-27T18:25:24Z</time>
  <course>12.1</course>
  <speed>0.01</speed>
  <fix>3d</fix>
</trkpt>
<trkpt lat="40.072842" lon="-105.230575">
  <ele>1586.09</ele>
  <time>2026-08-27T18:25:24Z</time>
  <course>266.03</course>
  <speed>0.0</speed>
  <fix>3d</fix>
</trkpt>
<trkpt lat="40.072842" lon="-105.230575">
  <ele>1586.09</ele>
  <time>2026-08-27T18:25:24Z</time>
  <course>12.1</course>
  <speed>0.01</speed>
  <fix>3d</fix>
</trkpt>
<trkpt lat="40.072842" lon="-105.230575">
  <ele>1586.09</ele>
  <time>2026-08-27T18:25:24Z</time>
  <course>266.03</course>
  <speed>0.0</speed>
  <fix>3d</fix>
</trkpt>
<trkpt lat="40.072842" lon="-105.230575">
  <ele>1586.09</ele>
  <time>2026-08-27T18:25:24Z</time>
  <course>12.09</course>
  <speed>0.01</speed>
  <fix>3d</fix>
</trkpt>
<trkpt lat="40.072842" lon="-105.230575">
  <ele>1586.09</ele>
  <time>2026-08-27T18:25:24Z</time>
  <course>266.03</course>
  <speed>0.0</speed>
  <fix>3d</fix>
</trkpt>
<trkpt lat="40.072842" lon="-105.230575">
  <ele>1586.09</ele>
  <time>2026-08-27T18:25:24Z</time>
  <course>12.09</course>
  <speed>0.01</speed>
  <fix>3d</fix>
</trkpt>
<trkpt lat="40.072842" lon="-105.230575">
  <ele>1586.09</ele>
  <time>2026-08-27T18:25:24Z</time>
  <course>266.03</course>
  <speed>0.0</speed>
  <fix>3d</fix>
</trkpt>
<trkpt lat="40.072842" lon="-105.230575">
  <ele>1586.09</ele>
  <time>2026-08-27T18:25:24Z</time>
  <course>12.08</course>
  <speed>0.01</speed>
  <fix>3d</fix>
</trkpt>
<trkpt lat="40.072842" lon="-105.230575">
  <ele>1586.09</ele>
  <time>2026-08-27T18:25:24Z</time>
  <course>266.03</course>
  <speed>0.0</speed>
  <fix>3d</fix>
</trkpt>
<trkpt lat="40.072842" lon="-105.230575">
  <ele>1586.09</ele>
  <time>2026-08-27T18:25:24Z</time>
  <course>12.08</course>
  <speed>0.01414213562373095</speed>
  <fix>3d</fix>
</trkpt>
<trkpt lat="40.072842" lon="-105.230575">
  <ele>1586.09</ele>
  <time>2026-08-27T18:25:24Z</time>
  <course>266.03</course>
  <speed>0.0</speed>
  <fix>3d</fix>
</trkpt>
<trkpt lat="40.072842" lon="-105.230575">
  <ele>1586.09</ele>
  <time>2026-08-27T18:25:24Z</time>
  <course>12.07</course>
  <speed>0.01414213562373095</speed>
  <fix>3d</fix>
</trkpt>
<trkpt lat="40.072842" lon="-105.230575">
  <ele>1586.09</ele>
  <time>2026-08-27T18:25:24Z</time>
  <course>266.03</course>
  <speed>0.0</speed>
  <fix>3d</fix>
</trkpt>
<trkpt lat="40.072842" lon="-105.230575">
  <ele>1586.09</ele>
  <time>2026-08-27T18:25:24Z</time>
  <course>12.06</course>
  <speed>0.01414213562373095</speed>
  <fix>3d</fix>
</trkpt>
<trkpt lat="40.072842" lon="-105.230575">
  <ele>1586.09</ele>
  <time>2026-08-27T18:25:24Z</time>
  <course>266.03</course>
  <speed>0.0</speed>
  <fix>3d</fix>
</trkpt>
<trkpt lat="40.072842" lon="-105.230575">
  <ele>1586.09</ele>
  <time>2026-08-27T18:25:24Z</time>
  <course>12.05</course>
  <speed>0.01414213562373095</speed>
  <fix>3d</fix>
</trkpt>
<trkpt lat="40.072842" lon="-105.230575">
  <ele>1586.09</ele>
  <time>2026-08-27T18:25:24Z</time>
  <course>266.03</course>
  <speed>0.0</speed>
  <fix>3d</fix>
</trkpt>
<trkpt lat="40.072842" lon="-105.230575">
  <ele>1586.09</ele>
  <time>2026-08-27T18:25:24Z</time>
  <course>12.05</course>
  <speed>0.01414213562373095</speed>
  <fix>3d</fix>
</trkpt>
<trkpt lat="40.072842" lon="-105.230575">
  <ele>1586.09</ele>
  <time>2026-08-27T18:25:24Z</time>
  <course>266.03</course>
  <speed>0.0</speed>
  <fix>3d</fix>
</trkpt>
<trkpt lat="40.072842" lon="-105.230575">
  <ele>1586.09</ele>
  <time>2026-08-27T18:25:24Z</time>
  <course>12.04</course>
  <speed>0.01414213562373095</speed>
  <fix>3d</fix>
</trkpt>
<trkpt lat="40.072842" lon="-105.230575">
  <ele>1586.09</ele>
  <time>2026-08-27T18:25:24Z</time>
  <course>266.03</course>
  <speed>0.0</speed>
  <fix>3d</fix>
</trkpt>
<trkpt lat="40.072842" lon="-105.230575">
  <ele>1586.09</ele>
  <time>2026-08-27T18:25:24Z</time>
  <course>12.03</course>
  <speed>0.01414213562373095</speed>
  <fix>3d</fix>
</trkpt>
<trkpt lat="40.072842" lon="-105.230575">
  <ele>1586.09</ele>
  <time>2026-08-27T18:25:24Z</time>
  <course>266.03</course>
  <speed>0.0</speed>
  <fix>3d</fix>
</trkpt>
<trkpt lat="40.072842" lon="-105.230575">
  <ele>1586.09</ele>
  <time>2026-08-27T18:25:24Z</time>
  <course>12.03</course>
  <speed>0.01414213562373095</speed>
  <fix>3d</fix>
</trkpt>
<trkpt lat="40.072842" lon="-105.230575">
  <ele>1586.09</ele>
  <time>2026-08-27T18:25:24Z</time>
  <course>266.03</course>
  <speed>0.0</speed>
  <fix>3d</fix>
</trkpt>
<trkpt lat="40.072842" lon="-105.230575">
  <ele>1586.09</ele>
  <time>2026-08-27T18:25:24Z</time>
  <course>12.02</course>
  <speed>0.01414213562373095</speed>
  <fix>3d</fix>
</trkpt>
<trkpt lat="40.072842" lon="-105.230575">
  <ele>1586.09</ele>
  <time>2026-08-27T18:25:24Z</time>
  <course>266.03</course>
  <speed>0.0</speed>
  <fix>3d</fix>
</trkpt>
<trkpt lat="40.072842" lon="-105.230575">
  <ele>1586.09</ele>
  <time>2026-08-27T18:25:24Z</time>
  <course>12.01</course>
  <speed>0.01414213562373095</speed>
  <fix>3d</fix>
</trkpt>
<trkpt lat="40.072842" lon="-105.230575">
  <ele>1586.09</ele>
  <time>2026-08-27T18:25:24Z</time>
  <course>266.03</course>
  <speed>0.0</speed>
  <fix>3d</fix>
</trkpt>
<trkpt lat="40.072842" lon="-105.230575">
  <ele>1586.09</ele>
  <time>2026-08-27T18:25:24Z</time>
  <course>12.01</course>
  <speed>0.01414213562373095</speed>
  <fix>3d</fix>
</trkpt>
<trkpt lat="40.072842" lon="-105.230575">
  <ele>1586.09</ele>
  <time>2026-08-27T18:25:24Z</time>
  <course>266.03</course>
  <speed>0.0</speed>
  <fix>3d</fix>
</trkpt>
<trkpt lat="40.072842" lon="-105.230575">
  <ele>1586.09</ele>
  <time>2026-08-27T18:25:24Z</time>
  <course>12.0</course>
  <speed>0.01414213562373095</speed>
  <fix>3d</fix>
</trkpt>
<trkpt lat="40.072842" lon="-105.230575">
  <ele>1586.09</ele>
  <time>2026-08-27T18:25:24Z</time>
  <course>266.03</course>
  <speed>0.0</speed>
  <fix>3d</fix>
</trkpt>
<trkpt lat="40.072842" lon="-105.230575">
  <ele>1586.09</ele>
  <time>2026-08-27T18:25:24Z</time>
  <course>11.99</course>
  <speed>0.01414213562373095</speed>
  <fix>3d</fix>
</trkpt>
<trkpt lat="40.072842" lon="-105.230575">
  <ele>1586.09</ele>
  <time>2026-08-27T18:25:24Z</time>
  <course>266.03</course>
  <speed>0.0</speed>
  <fix>3d</fix>
</trkpt>
<trkpt lat="40.072842" lon="-105.230575">
  <ele>1586.09</ele>
  <time>2026-08-27T18:25:24Z</time>
  <course>11.98</course>
  <speed>0.01414213562373095</speed>
  <fix>3d</fix>
</trkpt>
<trkpt lat="40.072842" lon="-105.230575">
  <ele>1586.09</ele>
  <time>2026-08-27T18:25:24Z</time>
  <course>266.03</course>
  <speed>0.0</speed>
  <fix>3d</fix>
</trkpt>
<trkpt lat="40.072842" lon="-105.230575">
  <ele>1586.09</ele>
  <time>2026-08-27T18:25:24Z</time>
  <course>11.98</course>
  <speed>0.01414213562373095</speed>
  <fix>3d</fix>
</trkpt>
<trkpt lat="40.072842" lon="-105.230575">
  <ele>1586.09</ele>
  <time>2026-08-27T18:25:24Z</time>
  <course>266.03</course>
  <speed>0.0</speed>
  <fix>3d</fix>
</trkpt>
<trkpt lat="40.072842" lon="-105.230575">
  <ele>1586.09</ele>
  <time>2026-08-27T18:25:24Z</time>
  <course>11.97</course>
  <speed>0.022360679774997897</speed>
  <fix>3d</fix>
</trkpt>
<trkpt lat="40.072842" lon="-105.230575">
  <ele>1586.09</ele>
  <time>2026-08-27T18:25:24Z</time>
  <course>266.03</course>
  <speed>0.0</speed>
  <fix>3d</fix>
</trkpt>
<trkpt lat="40.072842" lon="-105.230575">
  <ele>1586.09</ele>
  <time>2026-08-27T18:25:24Z</time>
  <course>11.96</course>
  <speed>0.022360679774997897</speed>
  <fix>3d</fix>
</trkpt>
<trkpt lat="40.072842" lon="-105.230575">
  <ele>1586.09</ele>
  <time>2026-08-27T18:25:24Z</time>
  <course>266.03</course>
  <speed>0.0</speed>
  <fix>3d</fix>
</trkpt>
<trkpt lat="40.072842" lon="-105.230575">
  <ele>1586.09</ele>
  <time>2026-08-27T18:25:24Z</time>
  <course>11.95</course>
  <speed>0.022360679774997897</speed>
  <fix>3d</fix>
</trkpt>
<trkpt lat="40.072842" lon="-105.230575">
  <ele>1586.09</ele>
  <time>2026-08-27T18:25:24Z</time>
  <course>266.03</course>
  <speed>0.0</speed>
  <fix>3d</fix>
</trkpt>
<trkpt lat="40.072842" lon="-105.230575">
  <ele>1586.09</ele>
  <time>2026-08-27T18:25:24Z</time>
  <course>11.94</course>
  <speed>0.022360679774997897</speed>
  <fix>3d</fix>
</trkpt>
<trkpt lat="40.072842" lon="-105.230575">
  <ele>1586.09</ele>
  <time>2026-08-27T18:25:24Z</time>
  <course>266.03</course>
  <speed>0.0</speed>
  <fix>3d</fix>
</trkpt>
<trkpt lat="40.072842" lon="-105.230575">
  <ele>1586.09</ele>
  <time>2026-08-27T18:25:24Z</time>
  <course>11.93</course>
  <speed>0.022360679774997897</speed>
  <fix>3d</fix>
</trkpt>
<trkpt lat="40.072842" lon="-105.230575">
  <ele>1586.09</ele>
  <time>2026-08-27T18:25:24Z</time>
  <course>266.03</course>
  <speed>0.0</speed>
  <fix>3d</fix>
</trkpt>
<trkpt lat="40.072842" lon="-105.230575">
  <ele>1586.09</ele>
  <time>2026-08-27T18:25:24Z</time>
  <course>11.92</course>
  <speed>0.022360679774997897</speed>
  <fix>3d</fix>
</trkpt>
<trkpt lat="40.072842" lon="-105.230575">
  <ele>1586.09</ele>
  <time>2026-08-27T18:25:24Z</time>
  <course>266.03</course>
  <speed>0.0</speed>
  <fix>3d</fix>
</trkpt>
<trkpt lat="40.072842" lon="-105.230575">
  <ele>1586.09</ele>
  <time>2026-08-27T18:25:24Z</time>
  <course>11.92</course>
  <speed>0.022360679774997897</speed>
  <fix>3d</fix>
</trkpt>
<trkpt lat="40.072842" lon="-105.230575">
  <ele>1586.09</ele>
  <time>2026-08-27T18:25:24Z</time>
  <course>266.03</course>
  <speed>0.0</speed>
  <fix>3d</fix>
</trkpt>
<trkpt lat="40.072842" lon="-105.230575">
  <ele>1586.09</ele>
  <time>2026-08-27T18:25:24Z</time>
  <course>11.91</course>
  <speed>0.022360679774997897</speed>
  <fix>3d</fix>
</trkpt>
<trkpt lat="40.072842" lon="-105.230575">
  <ele>1586.09</ele>
  <time>2026-08-27T18:25:24Z</time>
  <course>266.03</course>
  <speed>0.0</speed>
  <fix>3d</fix>
</trkpt>
<trkpt lat="40.072842" lon="-105.230575">
  <ele>1586.09</ele>
  <time>2026-08-27T18:25:24Z</time>
  <course>11.9</course>
  <speed>0.022360679774997897</speed>
  <fix>3d</fix>
</trkpt>
<trkpt lat="40.072842" lon="-105.230575">
  <ele>1586.09</ele>
  <time>2026-08-27T18:25:24Z</time>
  <course>266.03</course>
  <speed>0.0</speed>
  <fix>3d</fix>
</trkpt>
<trkpt lat="40.072842" lon="-105.230575">
  <ele>1586.09</ele>
  <time>2026-08-27T18:25:24Z</time>
  <course>11.89</course>
  <speed>0.022360679774997897</speed>
  <fix>3d</fix>
</trkpt>
<trkpt lat="40.072842" lon="-105.230575">
  <ele>1586.09</ele>
  <time>2026-08-27T18:25:24Z</time>
  <course>266.03</course>
  <speed>0.0</speed>
  <fix>3d</fix>
</trkpt>
<trkpt lat="40.072842" lon="-105.230575">
  <ele>1586.09</ele>
  <time>2026-08-27T18:25:24Z</time>
  <course>11.88</course>
  <speed>0.022360679774997897</speed>
  <fix>3d</fix>
</trkpt>
<trkpt lat="40.072842" lon="-105.230575">
  <ele>1586.09</ele>
  <time>2026-08-27T18:25:24Z</time>
  <course>266.03</course>
  <speed>0.0</speed>
  <fix>3d</fix>
</trkpt>
<trkpt lat="40.072842" lon="-105.230575">
  <ele>1586.09</ele>
  <time>2026-08-27T18:25:24Z</time>
  <course>11.87</course>
  <speed>0.022360679774997897</speed>
  <fix>3d</fix>
</trkpt>
<trkpt lat="40.072842" lon="-105.230575">
  <ele>1586.09</ele>
  <time>2026-08-27T18:25:24Z</time>
  <course>266.03</course>
  <speed>0.0</speed>
  <fix>3d</fix>
</trkpt>
<trkpt lat="40.072842" lon="-105.230575">
  <ele>1586.09</ele>
  <time>2026-08-27T18:25:24Z</time>
  <course>11.87</course>
  <speed>0.022360679774997897</speed>
  <fix>3d</fix>
</trkpt>
<trkpt lat="40.072842" lon="-105.230575">
  <ele>1586.09</ele>
  <time>2026-08-27T18:25:24Z</time>
  <course>266.03</course>
  <speed>0.0</speed>
  <fix>3d</fix>
</trkpt>
<trkpt lat="40.072842" lon="-105.230575">
  <ele>1586.09</ele>
  <time>2026-08-27T18:25:24Z</time>
  <course>11.86</course>
  <speed>0.022360679774997897</speed>
  <fix>3d</fix>
</trkpt>
<trkpt lat="40.072842" lon="-105.230575">
  <ele>1586.09</ele>
  <time>2026-08-27T18:25:24Z</time>
  <course>266.03</course>
  <speed>0.0</speed>
  <fix>3d</fix>
</trkpt>
<trkpt lat="40.072842" lon="-105.230575">
  <ele>1586.09</ele>
  <time>2026-08-27T18:25:24Z</time>
  <course>11.85</course>
  <speed>0.022360679774997897</speed>
  <fix>3d</fix>
</trkpt>
<trkpt lat="40.072842" lon="-105.230575">
  <ele>1586.09</ele>
  <time>2026-08-27T18:25:24Z</time>
  <course>266.03</course>
  <speed>0.0</speed>
  <fix>3d</fix>
</trkpt>
<trkpt lat="40.072842" lon="-105.230575">
  <ele>1586.09</ele>
  <time>2026-08-27T18:25:24Z</time>
  <course>11.84</course>
  <speed>0.0282842712474619</speed>
  <fix>3d</fix>
</trkpt>
<trkpt lat="40.072842" lon="-105.230575">
  <ele>1586.09</ele>
  <time>2026-08-27T18:25:24Z</time>
  <course>266.03</course>
  <speed>0.0</speed>
  <fix>3d</fix>
</trkpt>
<trkpt lat="40.072842" lon="-105.230575">
  <ele>1586.09</ele>
  <time>2026-08-27T18:25:24Z</time>
  <course>11.83</course>
  <speed>0.0282842712474619</speed>
  <fix>3d</fix>
</trkpt>
<trkpt lat="40.072842" lon="-105.230575">
  <ele>1586.09</ele>
  <time>2026-08-27T18:25:24Z</time>
  <course>266.03</course>
  <speed>0.0</speed>
  <fix>3d</fix>
</trkpt>
<trkpt lat="40.072842" lon="-105.230575">
  <ele>1586.09</ele>
  <time>2026-08-27T18:25:24Z</time>
  <course>11.83</course>
  <speed>0.0282842712474619</speed>
  <fix>3d</fix>
</trkpt>
<trkpt lat="40.072842" lon="-105.230575">
  <ele>1586.09</ele>
  <time>2026-08-27T18:25:24Z</time>
  <course>266.03</course>
  <speed>0.0</speed>
  <fix>3d</fix>
</trkpt>
<trkpt lat="40.072842" lon="-105.230575">
  <ele>1586.09</ele>
  <time>2026-08-27T18:25:24Z</time>
  <course>11.82</course>
  <speed>0.0282842712474619</speed>
  <fix>3d</fix>
</trkpt>
<trkpt lat="40.072842" lon="-105.230575">
  <ele>1586.09</ele>
  <time>2026-08-27T18:25:24Z</time>
  <course>266.03</course>
  <speed>0.0</speed>
  <fix>3d</fix>
</trkpt>
<trkpt lat="40.072842" lon="-105.230575">
  <ele>1586.09</ele>
  <time>2026-08-27T18:25:24Z</time>
  <course>11.81</course>
  <speed>0.0282842712474619</speed>
  <fix>3d</fix>
</trkpt>
<trkpt lat="40.072842" lon="-105.230575">
  <ele>1586.09</ele>
  <time>2026-08-27T18:25:24Z</time>
  <course>266.03</course>
  <speed>0.0</speed>
  <fix>3d</fix>
</trkpt>
<trkpt lat="40.072842" lon="-105.230575">
  <ele>1586.09</ele>
  <time>2026-08-27T18:25:24Z</time>
  <course>11.8</course>
  <speed>0.0282842712474619</speed>
  <fix>3d</fix>
</trkpt>
<trkpt lat="40.072842" lon="-105.230575">
  <ele>1586.09</ele>
  <time>2026-08-27T18:25:24Z</time>
  <course>266.03</course>
  <speed>0.0</speed>
  <fix>3d</fix>
</trkpt>
<trkpt lat="40.072842" lon="-105.230575">
  <ele>1586.09</ele>
  <time>2026-08-27T18:25:24Z</time>
  <course>11.79</course>
  <speed>0.0282842712474619</speed>
  <fix>3d</fix>
</trkpt>
<trkpt lat="40.072842" lon="-105.230575">
  <ele>1586.09</ele>
  <time>2026-08-27T18:25:24Z</time>
  <course>266.03</course>
  <speed>0.0</speed>
  <fix>3d</fix>
</trkpt>
<trkpt lat="40.072842" lon="-105.230575">
  <ele>1586.09</ele>
  <time>2026-08-27T18:25:24Z</time>
  <course>11.79</course>
  <speed>0.0282842712474619</speed>
  <fix>3d</fix>
</trkpt>
<trkpt lat="40.072842" lon="-105.230575">
  <ele>1586.09</ele>
  <time>2026-08-27T18:25:24Z</time>
  <course>266.03</course>
  <speed>0.0</speed>
  <fix>3d</fix>
</trkpt>
<trkpt lat="40.072842" lon="-105.230575">
  <ele>1586.09</ele>
  <time>2026-08-27T18:25:24Z</time>
  <course>11.78</course>
  <speed>0.0282842712474619</speed>
  <fix>3d</fix>
</trkpt>
<trkpt lat="40.072842" lon="-105.230575">
  <ele>1586.09</ele>
  <time>2026-08-27T18:25:24Z</time>
  <course>266.03</course>
  <speed>0.0</speed>
  <fix>3d</fix>
</trkpt>
<trkpt lat="40.072842" lon="-105.230575">
  <ele>1586.09</ele>
  <time>2026-08-27T18:25:24Z</time>
  <course>11.77</course>
  <speed>0.0282842712474619</speed>
  <fix>3d</fix>
</trkpt>
<trkpt lat="40.072842" lon="-105.230575">
  <ele>1586.09</ele>
  <time>2026-08-27T18:25:24Z</time>
  <course>266.03</course>
  <speed>0.0</speed>
  <fix>3d</fix>
</trkpt>
<trkpt lat="40.072842" lon="-105.230575">
  <ele>1586.09</ele>
  <time>2026-08-27T18:25:24Z</time>
  <course>11.77</course>
  <speed>0.0282842712474619</speed>
  <fix>3d</fix>
</trkpt>
<trkpt lat="40.072842" lon="-105.230575">
  <ele>1586.09</ele>
  <time>2026-08-27T18:25:24Z</time>
  <course>266.03</course>
  <speed>0.0</speed>
  <fix>3d</fix>
</trkpt>
<trkpt lat="40.072842" lon="-105.230575">
  <ele>1586.09</ele>
  <time>2026-08-27T18:25:24Z</time>
  <course>11.76</course>
  <speed>0.0282842712474619</speed>
  <fix>3d</fix>
</trkpt>
<trkpt lat="40.072842" lon="-105.230575">
  <ele>1586.09</ele>
  <time>2026-08-27T18:25:24Z</time>
  <course>266.03</course>
  <speed>0.0</speed>
  <fix>3d</fix>
</trkpt>
<trkpt lat="40.072842" lon="-105.230575">
  <ele>1586.09</ele>
  <time>2026-08-27T18:25:24Z</time>
  <course>11.75</course>
  <speed>0.0282842712474619</speed>
  <fix>3d</fix>
</trkpt>
<trkpt lat="40.072842" lon="-105.230575">
  <ele>1586.09</ele>
  <time>2026-08-27T18:25:24Z</time>
  <course>266.03</course>
  <speed>0.0</speed>
  <fix>3d</fix>
</trkpt>
<trkpt lat="40.072842" lon="-105.230575">
  <ele>1586.09</ele>
  <time>2026-08-27T18:25:24Z</time>
  <course>11.74</course>
  <speed>0.03605551275463989</speed>
  <fix>3d</fix>
</trkpt>
<trkpt lat="40.072842" lon="-105.230575">
  <ele>1586.09</ele>
  <time>2026-08-27T18:25:24Z</time>
  <course>266.03</course>
  <speed>0.0</speed>
  <fix>3d</fix>
</trkpt>
<trkpt lat="40.072842" lon="-105.230575">
  <ele>1586.09</ele>
  <time>2026-08-27T18:25:24Z</time>
  <course>11.73</course>
  <speed>0.03605551275463989</speed>
  <fix>3d</fix>
</trkpt>
<trkpt lat="40.072842" lon="-105.230575">
  <ele>1586.09</ele>
  <time>2026-08-27T18:25:24Z</time>
  <course>266.03</course>
  <speed>0.0</speed>
  <fix>3d</fix>
</trkpt>
<trkpt lat="40.072842" lon="-105.230575">
  <ele>1586.09</ele>
  <time>2026-08-27T18:25:24Z</time>
  <course>11.73</course>
  <speed>0.03605551275463989</speed>
  <fix>3d</fix>
</trkpt>
<trkpt lat="40.072842" lon="-105.230575">
  <ele>1586.09</ele>
  <time>2026-08-27T18:25:24Z</time>
  <course>266.03</course>
  <speed>0.0</speed>
  <fix>3d</fix>
</trkpt>
<trkpt lat="40.072842" lon="-105.230575">
  <ele>1586.09</ele>
  <time>2026-08-27T18:25:24Z</time>
  <course>11.72</course>
  <speed>0.03605551275463989</speed>
  <fix>3d</fix>
</trkpt>
<trkpt lat="40.072842" lon="-105.230575">
  <ele>1586.09</ele>
  <time>2026-08-27T18:25:24Z</time>
  <course>266.03</course>
  <speed>0.0</speed>
  <fix>3d</fix>
</trkpt>
<trkpt lat="40.072842" lon="-105.230575">
  <ele>1586.09</ele>
  <time>2026-08-27T18:25:24Z</time>
  <course>11.71</course>
  <speed>0.03605551275463989</speed>
  <fix>3d</fix>
</trkpt>
<trkpt lat="40.072842" lon="-105.230575">
  <ele>1586.09</ele>
  <time>2026-08-27T18:25:24Z</time>
  <course>266.03</course>
  <speed>0.0</speed>
  <fix>3d</fix>
</trkpt>
<trkpt lat="40.072842" lon="-105.230575">
  <ele>1586.09</ele>
  <time>2026-08-27T18:25:24Z</time>
  <course>11.71</course>
  <speed>0.03605551275463989</speed>
  <fix>3d</fix>
</trkpt>
<trkpt lat="40.072842" lon="-105.230575">
  <ele>1586.09</ele>
  <time>2026-08-27T18:25:24Z</time>
  <course>266.03</course>
  <speed>0.0</speed>
  <fix>3d</fix>
</trkpt>
<trkpt lat="40.072842" lon="-105.230575">
  <ele>1586.09</ele>
  <time>2026-08-27T18:25:24Z</time>
  <course>11.7</course>
  <speed>0.03605551275463989</speed>
  <fix>3d</fix>
</trkpt>
<trkpt lat="40.072842" lon="-105.230575">
  <ele>1586.09</ele>
  <time>2026-08-27T18:25:24Z</time>
  <course>266.03</course>
  <speed>0.0</speed>
  <fix>3d</fix>
</trkpt>
<trkpt lat="40.072842" lon="-105.230575">
  <ele>1586.09</ele>
  <time>2026-08-27T18:25:24Z</time>
  <course>11.69</course>
  <speed>0.03605551275463989</speed>
  <fix>3d</fix>
</trkpt>
<trkpt lat="40.072842" lon="-105.230575">
  <ele>1586.09</ele>
  <time>2026-08-27T18:25:24Z</time>
  <course>266.03</course>
  <speed>0.0</speed>
  <fix>3d</fix>
</trkpt>
<trkpt lat="40.072842" lon="-105.230575">
  <ele>1586.09</ele>
  <time>2026-08-27T18:25:24Z</time>
  <course>11.68</course>
  <speed>0.03605551275463989</speed>
  <fix>3d</fix>
</trkpt>
<trkpt lat="40.072842" lon="-105.230575">
  <ele>1586.09</ele>
  <time>2026-08-27T18:25:24Z</time>
  <course>266.03</course>
  <speed>0.0</speed>
  <fix>3d</fix>
</trkpt>
<trkpt lat="40.072842" lon="-105.230575">
  <ele>1586.09</ele>
  <time>2026-08-27T18:25:24Z</time>
  <course>11.68</course>
  <speed>0.03605551275463989</speed>
  <fix>3d</fix>
</trkpt>
<trkpt lat="40.072842" lon="-105.230575">
  <ele>1586.09</ele>
  <time>2026-08-27T18:25:24Z</time>
  <course>266.03</course>
  <speed>0.0</speed>
  <fix>3d</fix>
</trkpt>
<trkpt lat="40.072842" lon="-105.230575">
  <ele>1586.09</ele>
  <time>2026-08-27T18:25:24Z</time>
  <course>11.67</course>
  <speed>0.03605551275463989</speed>
  <fix>3d</fix>
</trkpt>
<trkpt lat="40.072842" lon="-105.230575">
  <ele>1586.09</ele>
  <time>2026-08-27T18:25:24Z</time>
  <course>266.03</course>
  <speed>0.0</speed>
  <fix>3d</fix>
</trkpt>
<trkpt lat="40.072842" lon="-105.230575">
  <ele>1586.09</ele>
  <time>2026-08-27T18:25:24Z</time>
  <course>11.66</course>
  <speed>0.03605551275463989</speed>
  <fix>3d</fix>
</trkpt>
<trkpt lat="40.072842" lon="-105.230575">
  <ele>1586.09</ele>
  <time>2026-08-27T18:25:24Z</time>
  <course>266.03</course>
  <speed>0.0</speed>
  <fix>3d</fix>
</trkpt>
<trkpt lat="40.072842" lon="-105.230575">
  <ele>1586.09</ele>
  <time>2026-08-27T18:25:24Z</time>
  <course>11.65</course>
  <speed>0.03605551275463989</speed>
  <fix>3d</fix>
</trkpt>
<trkpt lat="40.072842" lon="-105.230575">
  <ele>1586.09</ele>
  <time>2026-08-27T18:25:24Z</time>
  <course>266.03</course>
  <speed>0.0</speed>
  <fix>3d</fix>
</trkpt>
<trkpt lat="40.072842" lon="-105.230575">
  <ele>1586.09</ele>
  <time>2026-08-27T18:25:24Z</time>
  <course>11.65</course>
  <speed>0.03605551275463989</speed>
  <fix>3d</fix>
</trkpt>
<trkpt lat="40.072842" lon="-105.230575">
  <ele>1586.09</ele>
  <time>2026-08-27T18:25:24Z</time>
  <course>266.03</course>
  <speed>0.0</speed>
  <fix>3d</fix>
</trkpt>
<trkpt lat="40.072842" lon="-105.230575">
  <ele>1586.09</ele>
  <time>2026-08-27T18:25:24Z</time>
  <course>11.64</course>
  <speed>0.03605551275463989</speed>
  <fix>3d</fix>
</trkpt>
<trkpt lat="40.072842" lon="-105.230575">
  <ele>1586.09</ele>
  <time>2026-08-27T18:25:24Z</time>
  <course>266.03</course>
  <speed>0.0</speed>
  <fix>3d</fix>
</trkpt>
<trkpt lat="40.072842" lon="-105.230575">
  <ele>1586.09</ele>
  <time>2026-08-27T18:25:24Z</time>
  <course>11.63</course>
  <speed>0.03605551275463989</speed>
  <fix>3d</fix>
</trkpt>
<trkpt lat="40.072842" lon="-105.230575">
  <ele>1586.09</ele>
  <time>2026-08-27T18:25:24Z</time>
  <course>266.03</course>
  <speed>0.0</speed>
  <fix>3d</fix>
</trkpt>
<trkpt lat="40.072842" lon="-105.230575">
  <ele>1586.09</ele>
  <time>2026-08-27T18:25:24Z</time>
  <course>11.63</course>
  <speed>0.03605551275463989</speed>
  <fix>3d</fix>
</trkpt>
<trkpt lat="40.072842" lon="-105.230575">
  <ele>1586.09</ele>
  <time>2026-08-27T18:25:24Z</time>
  <course>266.03</course>
  <speed>0.0</speed>
  <fix>3d</fix>
</trkpt>
<trkpt lat="40.072842" lon="-105.230575">
  <ele>1586.09</ele>
  <time>2026-08-27T18:25:24Z</time>
  <course>11.62</course>
  <speed>0.03605551275463989</speed>
  <fix>3d</fix>
</trkpt>
<trkpt lat="40.072842" lon="-105.230575">
  <ele>1586.09</ele>
  <time>2026-08-27T18:25:24Z</time>
  <course>266.03</course>
  <speed>0.0</speed>
  <fix>3d</fix>
</trkpt>
<trkpt lat="40.072842" lon="-105.230575">
  <ele>1586.09</ele>
  <time>2026-08-27T18:25:24Z</time>
  <course>11.61</course>
  <speed>0.03605551275463989</speed>
  <fix>3d</fix>
</trkpt>
<trkpt lat="40.072842" lon="-105.230575">
  <ele>1586.09</ele>
  <time>2026-08-27T18:25:24Z</time>
  <course>266.03</course>
  <speed>0.0</speed>
  <fix>3d</fix>
</trkpt>
<trkpt lat="40.072842" lon="-105.230575">
  <ele>1586.09</ele>
  <time>2026-08-27T18:25:24Z</time>
  <course>11.61</course>
  <speed>0.03605551275463989</speed>
  <fix>3d</fix>
</trkpt>
<trkpt lat="40.072842" lon="-105.230575">
  <ele>1586.09</ele>
  <time>2026-08-27T18:25:24Z</time>
  <course>266.03</course>
  <speed>0.0</speed>
  <fix>3d</fix>
</trkpt>
<trkpt lat="40.072842" lon="-105.230575">
  <ele>1586.09</ele>
  <time>2026-08-27T18:25:24Z</time>
  <course>11.6</course>
  <speed>0.03605551275463989</speed>
  <fix>3d</fix>
</trkpt>
<trkpt lat="40.072842" lon="-105.230575">
  <ele>1586.09</ele>
  <time>2026-08-27T18:25:24Z</time>
  <course>266.03</course>
  <speed>0.0</speed>
  <fix>3d</fix>
</trkpt>
<trkpt lat="40.072842" lon="-105.230575">
  <ele>1586.09</ele>
  <time>2026-08-27T18:25:24Z</time>
  <course>11.6</course>
  <speed>0.03605551275463989</speed>
  <fix>3d</fix>
</trkpt>
<trkpt lat="40.072842" lon="-105.230575">
  <ele>1586.09</ele>
  <time>2026-08-27T18:25:24Z</time>
  <course>266.03</course>
  <speed>0.0</speed>
  <fix>3d</fix>
</trkpt>
<trkpt lat="40.072842" lon="-105.230575">
  <ele>1586.09</ele>
  <time>2026-08-27T18:25:24Z</time>
  <course>11.59</course>
  <speed>0.03605551275463989</speed>
  <fix>3d</fix>
</trkpt>
<trkpt lat="40.072842" lon="-105.230575">
  <ele>1586.09</ele>
  <time>2026-08-27T18:25:24Z</time>
  <course>266.03</course>
  <speed>0.0</speed>
  <fix>3d</fix>
</trkpt>
<trkpt lat="40.072842" lon="-105.230575">
  <ele>1586.09</ele>
  <time>2026-08-27T18:25:24Z</time>
  <course>11.58</course>
  <speed>0.03605551275463989</speed>
  <fix>3d</fix>
</trkpt>
<trkpt lat="40.072842" lon="-105.230575">
  <ele>1586.09</ele>
  <time>2026-08-27T18:25:24Z</time>
  <course>266.03</course>
  <speed>0.0</speed>
  <fix>3d</fix>
</trkpt>
<trkpt lat="40.072842" lon="-105.230575">
  <ele>1586.09</ele>
  <time>2026-08-27T18:25:24Z</time>
  <course>11.58</course>
  <speed>0.03605551275463989</speed>
  <fix>3d</fix>
</trkpt>
<trkpt lat="40.072842" lon="-105.230575">
  <ele>1586.09</ele>
  <time>2026-08-27T18:25:24Z</time>
  <course>266.03</course>
  <speed>0.0</speed>
  <fix>3d</fix>
</trkpt>
<trkpt lat="40.072842" lon="-105.230575">
  <ele>1586.09</ele>
  <time>2026-08-27T18:25:24Z</time>
  <course>11.57</course>
  <speed>0.03605551275463989</speed>
  <fix>3d</fix>
</trkpt>
<trkpt lat="40.072842" lon="-105.230575">
  <ele>1586.09</ele>
  <time>2026-08-27T18:25:24Z</time>
  <course>266.03</course>
  <speed>0.0</speed>
  <fix>3d</fix>
</trkpt>
<trkpt lat="40.072842" lon="-105.230575">
  <ele>1586.09</ele>
  <time>2026-08-27T18:25:24Z</time>
  <course>11.56</course>
  <speed>0.03605551275463989</speed>
  <fix>3d</fix>
</trkpt>
<trkpt lat="40.072842" lon="-105.230575">
  <ele>1586.09</ele>
  <time>2026-08-27T18:25:24Z</time>
  <course>266.03</course>
  <speed>0.0</speed>
  <fix>3d</fix>
</trkpt>
<trkpt lat="40.072842" lon="-105.230575">
  <ele>1586.09</ele>
  <time>2026-08-27T18:25:24Z</time>
  <course>11.56</course>
  <speed>0.03605551275463989</speed>
  <fix>3d</fix>
</trkpt>
<trkpt lat="40.072842" lon="-105.230575">
  <ele>1586.09</ele>
  <time>2026-08-27T18:25:24Z</time>
  <course>266.03</course>
  <speed>0.0</speed>
  <fix>3d</fix>
</trkpt>
<trkpt lat="40.072842" lon="-105.230575">
  <ele>1586.09</ele>
  <time>2026-08-27T18:25:24Z</time>
  <course>11.55</course>
  <speed>0.03605551275463989</speed>
  <fix>3d</fix>
</trkpt>
<trkpt lat="40.072842" lon="-105.230575">
  <ele>1586.09</ele>
  <time>2026-08-27T18:25:24Z</time>
  <course>266.03</course>
  <speed>0.0</speed>
  <fix>3d</fix>
</trkpt>
<trkpt lat="40.072842" lon="-105.230575">
  <ele>1586.09</ele>
  <time>2026-08-27T18:25:24Z</time>
  <course>11.55</course>
  <speed>0.03605551275463989</speed>
  <fix>3d</fix>
</trkpt>
<trkpt lat="40.072842" lon="-105.230575">
  <ele>1586.09</ele>
  <time>2026-08-27T18:25:24Z</time>
  <course>266.03</course>
  <speed>0.0</speed>
  <fix>3d</fix>
</trkpt>
<trkpt lat="40.072842" lon="-105.230575">
  <ele>1586.09</ele>
  <time>2026-08-27T18:25:24Z</time>
  <course>11.54</course>
  <speed>0.03605551275463989</speed>
  <fix>3d</fix>
</trkpt>
<trkpt lat="40.072842" lon="-105.230575">
  <ele>1586.09</ele>
  <time>2026-08-27T18:25:24Z</time>
  <course>266.03</course>
  <speed>0.0</speed>
  <fix>3d</fix>
</trkpt>
<trkpt lat="40.072842" lon="-105.230575">
  <ele>1586.09</ele>
  <time>2026-08-27T18:25:24Z</time>
  <course>11.53</course>
  <speed>0.03605551275463989</speed>
  <fix>3d</fix>
</trkpt>
<trkpt lat="40.072842" lon="-105.230575">
  <ele>1586.09</ele>
  <time>2026-08-27T18:25:24Z</time>
  <course>266.03</course>
  <speed>0.0</speed>
  <fix>3d</fix>
</trkpt>
<trkpt lat="40.072842" lon="-105.230575">
  <ele>1586.09</ele>
  <time>2026-08-27T18:25:24Z</time>
  <course>11.53</course>
  <speed>0.03605551275463989</speed>
  <fix>3d</fix>
</trkpt>
<trkpt lat="40.072842" lon="-105.230575">
  <ele>1586.09</ele>
  <time>2026-08-27T18:25:24Z</time>
  <course>266.03</course>
  <speed>0.0</speed>
  <fix>3d</fix>
</trkpt>
<trkpt lat="40.072842" lon="-105.230575">
  <ele>1586.09</ele>
  <time>2026-08-27T18:25:24Z</time>
  <course>11.52</course>
  <speed>0.03605551275463989</speed>
  <fix>3d</fix>
</trkpt>
<trkpt lat="40.072842" lon="-105.230575">
  <ele>1586.09</ele>
  <time>2026-08-27T18:25:24Z</time>
  <course>266.03</course>
  <speed>0.0</speed>
  <fix>3d</fix>
</trkpt>
<trkpt lat="40.072842" lon="-105.230575">
  <ele>1586.09</ele>
  <time>2026-08-27T18:25:24Z</time>
  <course>11.52</course>
  <speed>0.03605551275463989</speed>
  <fix>3d</fix>
</trkpt>
<trkpt lat="40.072842" lon="-105.230575">
  <ele>1586.09</ele>
  <time>2026-08-27T18:25:24Z</time>
  <course>266.03</course>
  <speed>0.0</speed>
  <fix>3d</fix>
</trkpt>
<trkpt lat="40.072842" lon="-105.230575">
  <ele>1586.09</ele>
  <time>2026-08-27T18:25:24Z</time>
  <course>11.51</course>
  <speed>0.03605551275463989</speed>
  <fix>3d</fix>
</trkpt>
<trkpt lat="40.072842" lon="-105.230575">
  <ele>1586.09</ele>
  <time>2026-08-27T18:25:24Z</time>
  <course>266.03</course>
  <speed>0.0</speed>
  <fix>3d</fix>
</trkpt>
<trkpt lat="40.072842" lon="-105.230575">
  <ele>1586.09</ele>
  <time>2026-08-27T18:25:24Z</time>
  <course>11.51</course>
  <speed>0.03605551275463989</speed>
  <fix>3d</fix>
</trkpt>
<trkpt lat="40.072842" lon="-105.230575">
  <ele>1586.09</ele>
  <time>2026-08-27T18:25:24Z</time>
  <course>266.03</course>
  <speed>0.0</speed>
  <fix>3d</fix>
</trkpt>
<trkpt lat="40.072842" lon="-105.230575">
  <ele>1586.09</ele>
  <time>2026-08-27T18:25:24Z</time>
  <course>11.5</course>
  <speed>0.044721359549995794</speed>
  <fix>3d</fix>
</trkpt>
<trkpt lat="40.072842" lon="-105.230575">
  <ele>1586.09</ele>
  <time>2026-08-27T18:25:24Z</time>
  <course>266.03</course>
  <speed>0.0</speed>
  <fix>3d</fix>
</trkpt>
<trkpt lat="40.072842" lon="-105.230575">
  <ele>1586.09</ele>
  <time>2026-08-27T18:25:24Z</time>
  <course>11.49</course>
  <speed>0.044721359549995794</speed>
  <fix>3d</fix>
</trkpt>
<trkpt lat="40.072842" lon="-105.230575">
  <ele>1586.09</ele>
  <time>2026-08-27T18:25:24Z</time>
  <course>266.03</course>
  <speed>0.0</speed>
  <fix>3d</fix>
</trkpt>
<trkpt lat="40.072842" lon="-105.230575">
  <ele>1586.09</ele>
  <time>2026-08-27T18:25:24Z</time>
  <course>11.49</course>
  <speed>0.044721359549995794</speed>
  <fix>3d</fix>
</trkpt>
<trkpt lat="40.072842" lon="-105.230575">
  <ele>1586.09</ele>
  <time>2026-08-27T18:25:24Z</time>
  <course>266.03</course>
  <speed>0.0</speed>
  <fix>3d</fix>
</trkpt>
<trkpt lat="40.072842" lon="-105.230575">
  <ele>1586.09</ele>
  <time>2026-08-27T18:25:24Z</time>
  <course>11.48</course>
  <speed>0.044721359549995794</speed>
  <fix>3d</fix>
</trkpt>
<trkpt lat="40.072842" lon="-105.230575">
  <ele>1586.09</ele>
  <time>2026-08-27T18:25:24Z</time>
  <course>266.03</course>
  <speed>0.0</speed>
  <fix>3d</fix>
</trkpt>
<trkpt lat="40.072842" lon="-105.230575">
  <ele>1586.09</ele>
  <time>2026-08-27T18:25:24Z</time>
  <course>11.48</course>
  <speed>0.044721359549995794</speed>
  <fix>3d</fix>
</trkpt>
<trkpt lat="40.072842" lon="-105.230575">
  <ele>1586.09</ele>
  <time>2026-08-27T18:25:24Z</time>
  <course>266.03</course>
  <speed>0.0</speed>
  <fix>3d</fix>
</trkpt>
<trkpt lat="40.072842" lon="-105.230575">
  <ele>1586.09</ele>
  <time>2026-08-27T18:25:24Z</time>
  <course>11.47</course>
  <speed>0.044721359549995794</speed>
  <fix>3d</fix>
</trkpt>
<trkpt lat="40.072842" lon="-105.230575">
  <ele>1586.09</ele>
  <time>2026-08-27T18:25:24Z</time>
  <course>266.03</course>
  <speed>0.0</speed>
  <fix>3d</fix>
</trkpt>
<trkpt lat="40.072842" lon="-105.230575">
  <ele>1586.09</ele>
  <time>2026-08-27T18:25:24Z</time>
  <course>11.47</course>
  <speed>0.044721359549995794</speed>
  <fix>3d</fix>
</trkpt>
<trkpt lat="40.072842" lon="-105.230575">
  <ele>1586.09</ele>
  <time>2026-08-27T18:25:24Z</time>
  <course>266.03</course>
  <speed>0.0</speed>
  <fix>3d</fix>
</trkpt>
<trkpt lat="40.072842" lon="-105.230575">
  <ele>1586.09</ele>
  <time>2026-08-27T18:25:24Z</time>
  <course>11.47</course>
  <speed>0.044721359549995794</speed>
  <fix>3d</fix>
</trkpt>
<trkpt lat="40.072842" lon="-105.230575">
  <ele>1586.09</ele>
  <time>2026-08-27T18:25:24Z</time>
  <course>266.03</course>
  <speed>0.0</speed>
  <fix>3d</fix>
</trkpt>
<trkpt lat="40.072842" lon="-105.230575">
  <ele>1586.09</ele>
  <time>2026-08-27T18:25:24Z</time>
  <course>11.46</course>
  <speed>0.044721359549995794</speed>
  <fix>3d</fix>
</trkpt>
<trkpt lat="40.072842" lon="-105.230575">
  <ele>1586.09</ele>
  <time>2026-08-27T18:25:24Z</time>
  <course>266.03</course>
  <speed>0.0</speed>
  <fix>3d</fix>
</trkpt>
<trkpt lat="40.072842" lon="-105.230575">
  <ele>1586.16</ele>
  <time>2026-08-27T18:25:24Z</time>
  <course>11.45</course>
  <speed>0.0</speed>
  <fix>3d</fix>
</trkpt>
<trkpt lat="40.072842" lon="-105.230575">
  <ele>1586.09</ele>
  <time>2026-08-27T18:25:24Z</time>
  <course>297.19</course>
  <speed>0.0</speed>
  <fix>3d</fix>
</trkpt>
<trkpt lat="40.072842" lon="-105.230575">
  <ele>1586.16</ele>
  <time>2026-08-27T18:25:24Z</time>
  <course>11.45</course>
  <speed>0.0</speed>
  <fix>3d</fix>
</trkpt>
<trkpt lat="40.072842" lon="-105.230575">
  <ele>1586.09</ele>
  <time>2026-08-27T18:25:24Z</time>
  <course>269.87</course>
  <speed>0.0</speed>
  <fix>3d</fix>
</trkpt>
<trkpt lat="40.072842" lon="-105.230575">
  <ele>1586.16</ele>
  <time>2026-08-27T18:25:24Z</time>
  <course>11.44</course>
  <speed>0.0</speed>
  <fix>3d</fix>
</trkpt>
<trkpt lat="40.072842" lon="-105.230575">
  <ele>1586.09</ele>
  <time>2026-08-27T18:25:24Z</time>
  <course>241.23</course>
  <speed>0.0</speed>
  <fix>3d</fix>
</trkpt>
<trkpt lat="40.072842" lon="-105.230575">
  <ele>1586.16</ele>
  <time>2026-08-27T18:25:24Z</time>
  <course>11.44</course>
  <speed>0.0</speed>
  <fix>3d</fix>
</trkpt>
<trkpt lat="40.072842" lon="-105.230575">
  <ele>1586.09</ele>
  <time>2026-08-27T18:25:24Z</time>
  <course>93.08</course>
  <speed>0.0</speed>
  <fix>3d</fix>
</trkpt>
<trkpt lat="40.072842" lon="-105.230575">
  <ele>1586.17</ele>
  <time>2026-08-27T18:25:24Z</time>
  <course>11.44</course>
  <speed>0.0</speed>
  <fix>3d</fix>
</trkpt>
<trkpt lat="40.072842" lon="-105.230575">
  <ele>1586.09</ele>
  <time>2026-08-27T18:25:24Z</time>
  <course>317.31</course>
  <speed>0.0</speed>
  <fix>3d</fix>
</trkpt>
<trkpt lat="40.072842" lon="-105.230575">
  <ele>1586.17</ele>
  <time>2026-08-27T18:25:24Z</time>
  <course>11.43</course>
  <speed>0.01</speed>
  <fix>3d</fix>
</trkpt>
<trkpt lat="40.072842" lon="-105.230575">
  <ele>1586.09</ele>
  <time>2026-08-27T18:25:24Z</time>
  <course>265.24</course>
  <speed>0.0</speed>
  <fix>3d</fix>
</trkpt>
<trkpt lat="40.072842" lon="-105.230575">
  <ele>1586.17</ele>
  <time>2026-08-27T18:25:24Z</time>
  <course>11.43</course>
  <speed>0.01</speed>
  <fix>3d</fix>
</trkpt>
<trkpt lat="40.072842" lon="-105.230575">
  <ele>1586.09</ele>
  <time>2026-08-27T18:25:24Z</time>
  <course>261.76</course>
  <speed>0.0</speed>
  <fix>3d</fix>
</trkpt>
<trkpt lat="40.072842" lon="-105.230575">
  <ele>1586.17</ele>
  <time>2026-08-27T18:25:24Z</time>
  <course>11.42</course>
  <speed>0.01</speed>
  <fix>3d</fix>
</trkpt>
<trkpt lat="40.072842" lon="-105.230575">
  <ele>1586.09</ele>
  <time>2026-08-27T18:25:24Z</time>
  <course>266.78</course>
  <speed>0.0</speed>
  <fix>3d</fix>
</trkpt>
<trkpt lat="40.072842" lon="-105.230575">
  <ele>1586.17</ele>
  <time>2026-08-27T18:25:24Z</time>
  <course>11.42</course>
  <speed>0.01414213562373095</speed>
  <fix>3d</fix>
</trkpt>
<trkpt lat="40.072842" lon="-105.230575">
  <ele>1586.09</ele>
  <time>2026-08-27T18:25:24Z</time>
  <course>266.53</course>
  <speed>0.0</speed>
  <fix>3d</fix>
</trkpt>
<trkpt lat="40.072842" lon="-105.230575">
  <ele>1586.17</ele>
  <time>2026-08-27T18:25:24Z</time>
  <course>11.42</course>
  <speed>0.01414213562373095</speed>
  <fix>3d</fix>
</trkpt>
<trkpt lat="40.072842" lon="-105.230575">
  <ele>1586.09</ele>
  <time>2026-08-27T18:25:24Z</time>
  <course>265.88</course>
  <speed>0.0</speed>
  <fix>3d</fix>
</trkpt>
<trkpt lat="40.072842" lon="-105.230575">
  <ele>1586.17</ele>
  <time>2026-08-27T18:25:24Z</time>
  <course>11.41</course>
  <speed>0.01414213562373095</speed>
  <fix>3d</fix>
</trkpt>
<trkpt lat="40.072842" lon="-105.230575">
  <ele>1586.09</ele>
  <time>2026-08-27T18:25:24Z</time>
  <course>265.99</course>
  <speed>0.0</speed>
  <fix>3d</fix>
</trkpt>
<trkpt lat="40.072842" lon="-105.230575">
  <ele>1586.17</ele>
  <time>2026-08-27T18:25:24Z</time>
  <course>11.41</course>
  <speed>0.022360679774997897</speed>
  <fix>3d</fix>
</trkpt>
<trkpt lat="40.072842" lon="-105.230575">
  <ele>1586.09</ele>
  <time>2026-08-27T18:25:24Z</time>
  <course>266.06</course>
  <speed>0.0</speed>
  <fix>3d</fix>
</trkpt>
<trkpt lat="40.072842" lon="-105.230575">
  <ele>1586.17</ele>
  <time>2026-08-27T18:25:24Z</time>
  <course>11.4</course>
  <speed>0.022360679774997897</speed>
  <fix>3d</fix>
</trkpt>
<trkpt lat="40.072842" lon="-105.230575">
  <ele>1586.09</ele>
  <time>2026-08-27T18:25:24Z</time>
  <course>266.04</course>
  <speed>0.0</speed>
  <fix>3d</fix>
</trkpt>
<trkpt lat="40.072842" lon="-105.230575">
  <ele>1586.17</ele>
  <time>2026-08-27T18:25:24Z</time>
  <course>11.4</course>
  <speed>0.022360679774997897</speed>
  <fix>3d</fix>
</trkpt>
<trkpt lat="40.072842" lon="-105.230575">
  <ele>1586.09</ele>
  <time>2026-08-27T18:25:24Z</time>
  <course>266.03</course>
  <speed>0.0</speed>
  <fix>3d</fix>
</trkpt>
<trkpt lat="40.072842" lon="-105.230575">
  <ele>1586.17</ele>
  <time>2026-08-27T18:25:25Z</time>
  <course>11.4</course>
  <speed>0.022360679774997897</speed>
  <fix>3d</fix>
</trkpt>
<trkpt lat="40.072842" lon="-105.230575">
  <ele>1586.09</ele>
  <time>2026-08-27T18:25:25Z</time>
  <course>266.04</course>
  <speed>0.0</speed>
  <fix>3d</fix>
</trkpt>
<trkpt lat="40.0728419" lon="-105.230575">
  <ele>1586.17</ele>
  <time>2026-08-27T18:25:25Z</time>
  <course>11.39</course>
  <speed>0.022360679774997897</speed>
  <fix>3d</fix>
</trkpt>
<trkpt lat="40.072842" lon="-105.230575">
  <ele>1586.09</ele>
  <time>2026-08-27T18:25:25Z</time>
  <course>266.04</course>
  <speed>0.0</speed>
  <fix>3d</fix>
</trkpt>
<trkpt lat="40.0728419" lon="-105.2305749">
  <ele>1586.17</ele>
  <time>2026-08-27T18:25:25Z</time>
  <course>11.39</course>
  <speed>0.022360679774997897</speed>
  <fix>3d</fix>
</trkpt>
<trkpt lat="40.072842" lon="-105.230575">
  <ele>1586.09</ele>
  <time>2026-08-27T18:25:25Z</time>
  <course>266.03</course>
  <speed>0.0</speed>
  <fix>3d</fix>
</trkpt>
<trkpt lat="40.0728419" lon="-105.2305749">
  <ele>1586.17</ele>
  <time>2026-08-27T18:25:25Z</time>
  <course>11.38</course>
  <speed>0.022360679774997897</speed>
  <fix>3d</fix>
</trkpt>
<trkpt lat="40.072842" lon="-105.230575">
  <ele>1586.09</ele>
  <time>2026-08-27T18:25:25Z</time>
  <course>266.03</course>
  <speed>0.0</speed>
  <fix>3d</fix>
</trkpt>
<trkpt lat="40.0728419" lon="-105.2305749">
  <ele>1586.18</ele>
  <time>2026-08-27T18:25:25Z</time>
  <course>11.38</course>
  <speed>0.022360679774997897</speed>
  <fix>3d</fix>
</trkpt>
<trkpt lat="40.072842" lon="-105.230575">
  <ele>1586.09</ele>
  <time>2026-08-27T18:25:25Z</time>
  <course>266.04</course>
  <speed>0.0</speed>
  <fix>3d</fix>
</trkpt>
<trkpt lat="40.0728419" lon="-105.2305749">
  <ele>1586.18</ele>
  <time>2026-08-27T18:25:25Z</time>
  <course>11.37</course>
  <speed>0.022360679774997897</speed>
  <fix>3d</fix>
</trkpt>
<trkpt lat="40.072842" lon="-105.230575">
  <ele>1586.09</ele>
  <time>2026-08-27T18:25:25Z</time>
  <course>266.04</course>
  <speed>0.0</speed>
  <fix>3d</fix>
</trkpt>
<trkpt lat="40.0728419" lon="-105.2305749">
  <ele>1586.18</ele>
  <time>2026-08-27T18:25:25Z</time>
  <course>11.37</course>
  <speed>0.022360679774997897</speed>
  <fix>3d</fix>
</trkpt>
<trkpt lat="40.072842" lon="-105.230575">
  <ele>1586.09</ele>
  <time>2026-08-27T18:25:25Z</time>
  <course>178.09</course>
  <speed>0.0</speed>
  <fix>3d</fix>
</trkpt>
<trkpt lat="40.0728419" lon="-105.2305749">
  <ele>1586.17</ele>
  <time>2026-08-27T18:25:25Z</time>
  <course>11.37</course>
  <speed>0.022360679774997897</speed>
  <fix>3d</fix>
</trkpt>
<trkpt lat="40.072842" lon="-105.230575">
  <ele>1586.09</ele>
  <time>2026-08-27T18:25:25Z</time>
  <course>82.55</course>
  <speed>0.0</speed>
  <fix>3d</fix>
</trkpt>
<trkpt lat="40.0728419" lon="-105.2305749">
  <ele>1586.17</ele>
  <time>2026-08-27T18:25:25Z</time>
  <course>11.36</course>
  <speed>0.022360679774997897</speed>
  <fix>3d</fix>
</trkpt>
<trkpt lat="40.072842" lon="-105.230575">
  <ele>1586.09</ele>
  <time>2026-08-27T18:25:25Z</time>
  <course>70.11</course>
  <speed>0.0</speed>
  <fix>3d</fix>
</trkpt>
<trkpt lat="40.0728419" lon="-105.2305749">
  <ele>1586.17</ele>
  <time>2026-08-27T18:25:25Z</time>
  <course>11.36</course>
  <speed>0.022360679774997897</speed>
  <fix>3d</fix>
</trkpt>
<trkpt lat="40.072842" lon="-105.230575">
  <ele>1586.09</ele>
  <time>2026-08-27T18:25:25Z</time>
  <course>280.93</course>
  <speed>0.0</speed>
  <fix>3d</fix>
</trkpt>
<trkpt lat="40.0728419" lon="-105.2305749">
  <ele>1586.17</ele>
  <time>2026-08-27T18:25:25Z</time>
  <course>11.35</course>
  <speed>0.022360679774997897</speed>
  <fix>3d</fix>
</trkpt>
<trkpt lat="40.072842" lon="-105.230575">
  <ele>1586.09</ele>
  <time>2026-08-27T18:25:25Z</time>
  <course>245.32</course>
  <speed>0.0</speed>
  <fix>3d</fix>
</trkpt>
<trkpt lat="40.0728419" lon="-105.2305749">
  <ele>1586.16</ele>
  <time>2026-08-27T18:25:25Z</time>
  <course>11.35</course>
  <speed>0.01414213562373095</speed>
  <fix>3d</fix>
</trkpt>
<trkpt lat="40.072842" lon="-105.230575">
  <ele>1586.09</ele>
  <time>2026-08-27T18:25:25Z</time>
  <course>117.15</course>
  <speed>0.0</speed>
  <fix>3d</fix>
</trkpt>
<trkpt lat="40.0728419" lon="-105.2305749">
  <ele>1586.16</ele>
  <time>2026-08-27T18:25:25Z</time>
  <course>11.34</course>
  <speed>0.01414213562373095</speed>
  <fix>3d</fix>
</trkpt>
<trkpt lat="40.072842" lon="-105.230575">
  <ele>1586.09</ele>
  <time>2026-08-27T18:25:25Z</time>
  <course>279.17</course>
  <speed>0.0</speed>
  <fix>3d</fix>
</trkpt>
<trkpt lat="40.0728419" lon="-105.2305749">
  <ele>1586.16</ele>
  <time>2026-08-27T18:25:25Z</time>
  <course>11.34</course>
  <speed>0.01414213562373095</speed>
  <fix>3d</fix>
</trkpt>
<trkpt lat="40.072842" lon="-105.230575">
  <ele>1586.09</ele>
  <time>2026-08-27T18:25:25Z</time>
  <course>265.73</course>
  <speed>0.0</speed>
  <fix>3d</fix>
</trkpt>
<trkpt lat="40.0728419" lon="-105.2305749">
  <ele>1586.16</ele>
  <time>2026-08-27T18:25:25Z</time>
  <course>11.33</course>
  <speed>0.01414213562373095</speed>
  <fix>3d</fix>
</trkpt>
<trkpt lat="40.072842" lon="-105.230575">
  <ele>1586.09</ele>
  <time>2026-08-27T18:25:25Z</time>
  <course>264.62</course>
  <speed>0.0</speed>
  <fix>3d</fix>
</trkpt>
<trkpt lat="40.0728419" lon="-105.2305749">
  <ele>1586.16</ele>
  <time>2026-08-27T18:25:25Z</time>
  <course>11.33</course>
  <speed>0.01414213562373095</speed>
  <fix>3d</fix>
</trkpt>
<trkpt lat="40.072842" lon="-105.230575">
  <ele>1586.09</ele>
  <time>2026-08-27T18:25:25Z</time>
  <course>266.26</course>
  <speed>0.0</speed>
  <fix>3d</fix>
</trkpt>
<trkpt lat="40.0728419" lon="-105.2305749">
  <ele>1586.15</ele>
  <time>2026-08-27T18:25:25Z</time>
  <course>11.32</course>
  <speed>0.01414213562373095</speed>
  <fix>3d</fix>
</trkpt>
<trkpt lat="40.072842" lon="-105.230575">
  <ele>1586.09</ele>
  <time>2026-08-27T18:25:25Z</time>
  <course>266.2</course>
  <speed>0.0</speed>
  <fix>3d</fix>
</trkpt>
<trkpt lat="40.0728419" lon="-105.2305749">
  <ele>1586.15</ele>
  <time>2026-08-27T18:25:25Z</time>
  <course>11.32</course>
  <speed>0.01414213562373095</speed>
  <fix>3d</fix>
</trkpt>
<trkpt lat="40.072842" lon="-105.230575">
  <ele>1586.09</ele>
  <time>2026-08-27T18:25:25Z</time>
  <course>265.99</course>
  <speed>0.0</speed>
  <fix>3d</fix>
</trkpt>
<trkpt lat="40.0728419" lon="-105.2305749">
  <ele>1586.15</ele>
  <time>2026-08-27T18:25:25Z</time>
  <course>11.31</course>
  <speed>0.01414213562373095</speed>
  <fix>3d</fix>
</trkpt>
<trkpt lat="40.072842" lon="-105.230575">
  <ele>1586.09</ele>
  <time>2026-08-27T18:25:25Z</time>
  <course>266.02</course>
  <speed>0.0</speed>
  <fix>3d</fix>
</trkpt>
<trkpt lat="40.0728419" lon="-105.2305749">
  <ele>1586.15</ele>
  <time>2026-08-27T18:25:25Z</time>
  <course>11.31</course>
  <speed>0.01414213562373095</speed>
  <fix>3d</fix>
</trkpt>
<trkpt lat="40.072842" lon="-105.230575">
  <ele>1586.09</ele>
  <time>2026-08-27T18:25:25Z</time>
  <course>266.04</course>
  <speed>0.0</speed>
  <fix>3d</fix>
</trkpt>
<trkpt lat="40.0728419" lon="-105.2305749">
  <ele>1586.15</ele>
  <time>2026-08-27T18:25:25Z</time>
  <course>11.3</course>
  <speed>0.01414213562373095</speed>
  <fix>3d</fix>
</trkpt>
<trkpt lat="40.072842" lon="-105.230575">
  <ele>1586.09</ele>
  <time>2026-08-27T18:25:25Z</time>
  <course>266.04</course>
  <speed>0.0</speed>
  <fix>3d</fix>
</trkpt>
<trkpt lat="40.0728419" lon="-105.2305749">
  <ele>1586.16</ele>
  <time>2026-08-27T18:25:25Z</time>
  <course>11.3</course>
  <speed>0.01414213562373095</speed>
  <fix>3d</fix>
</trkpt>
<trkpt lat="40.072842" lon="-105.230575">
  <ele>1586.09</ele>
  <time>2026-08-27T18:25:25Z</time>
  <course>266.03</course>
  <speed>0.0</speed>
  <fix>3d</fix>
</trkpt>
<trkpt lat="40.0728419" lon="-105.2305749">
  <ele>1586.16</ele>
  <time>2026-08-27T18:25:25Z</time>
  <course>11.3</course>
  <speed>0.01414213562373095</speed>
  <fix>3d</fix>
</trkpt>
<trkpt lat="40.072842" lon="-105.230575">
  <ele>1586.09</ele>
  <time>2026-08-27T18:25:25Z</time>
  <course>266.03</course>
  <speed>0.0</speed>
  <fix>3d</fix>
</trkpt>
<trkpt lat="40.0728419" lon="-105.2305749">
  <ele>1586.16</ele>
  <time>2026-08-27T18:25:25Z</time>
  <course>11.29</course>
  <speed>0.01414213562373095</speed>
  <fix>3d</fix>
</trkpt>
<trkpt lat="40.072842" lon="-105.230575">
  <ele>1586.09</ele>
  <time>2026-08-27T18:25:25Z</time>
  <course>266.03</course>
  <speed>0.0</speed>
  <fix>3d</fix>
</trkpt>
<trkpt lat="40.0728419" lon="-105.2305749">
  <ele>1586.16</ele>
  <time>2026-08-27T18:25:25Z</time>
  <course>11.29</course>
  <speed>0.01414213562373095</speed>
  <fix>3d</fix>
</trkpt>
<trkpt lat="40.072842" lon="-105.230575">
  <ele>1586.09</ele>
  <time>2026-08-27T18:25:25Z</time>
  <course>266.03</course>
  <speed>0.0</speed>
  <fix>3d</fix>
</trkpt>
<trkpt lat="40.0728419" lon="-105.2305749">
  <ele>1586.16</ele>
  <time>2026-08-27T18:25:25Z</time>
  <course>11.28</course>
  <speed>0.01414213562373095</speed>
  <fix>3d</fix>
</trkpt>
<trkpt lat="40.072842" lon="-105.230575">
  <ele>1586.09</ele>
  <time>2026-08-27T18:25:25Z</time>
  <course>266.03</course>
  <speed>0.0</speed>
  <fix>3d</fix>
</trkpt>
<trkpt lat="40.0728419" lon="-105.2305749">
  <ele>1586.16</ele>
  <time>2026-08-27T18:25:25Z</time>
  <course>11.28</course>
  <speed>0.01414213562373095</speed>
  <fix>3d</fix>
</trkpt>
<trkpt lat="40.072842" lon="-105.230575">
  <ele>1586.09</ele>
  <time>2026-08-27T18:25:25Z</time>
  <course>266.03</course>
  <speed>0.0</speed>
  <fix>3d</fix>
</trkpt>
<trkpt lat="40.0728419" lon="-105.2305749">
  <ele>1586.15</ele>
  <time>2026-08-27T18:25:25Z</time>
  <course>11.27</course>
  <speed>0.01414213562373095</speed>
  <fix>3d</fix>
</trkpt>
<trkpt lat="40.072842" lon="-105.230575">
  <ele>1586.09</ele>
  <time>2026-08-27T18:25:25Z</time>
  <course>266.03</course>
  <speed>0.0</speed>
  <fix>3d</fix>
</trkpt>
<trkpt lat="40.0728419" lon="-105.2305749">
  <ele>1586.15</ele>
  <time>2026-08-27T18:25:25Z</time>
  <course>11.27</course>
  <speed>0.01414213562373095</speed>
  <fix>3d</fix>
</trkpt>
<trkpt lat="40.072842" lon="-105.230575">
  <ele>1586.09</ele>
  <time>2026-08-27T18:25:25Z</time>
  <course>266.03</course>
  <speed>0.0</speed>
  <fix>3d</fix>
</trkpt>
<trkpt lat="40.0728419" lon="-105.2305749">
  <ele>1586.15</ele>
  <time>2026-08-27T18:25:25Z</time>
  <course>11.26</course>
  <speed>0.01414213562373095</speed>
  <fix>3d</fix>
</trkpt>
<trkpt lat="40.072842" lon="-105.230575">
  <ele>1586.09</ele>
  <time>2026-08-27T18:25:25Z</time>
  <course>266.03</course>
  <speed>0.0</speed>
  <fix>3d</fix>
</trkpt>
<trkpt lat="40.0728419" lon="-105.2305749">
  <ele>1586.15</ele>
  <time>2026-08-27T18:25:25Z</time>
  <course>11.26</course>
  <speed>0.01414213562373095</speed>
  <fix>3d</fix>
</trkpt>
<trkpt lat="40.072842" lon="-105.230575">
  <ele>1586.09</ele>
  <time>2026-08-27T18:25:25Z</time>
  <course>266.03</course>
  <speed>0.0</speed>
  <fix>3d</fix>
</trkpt>
<trkpt lat="40.0728419" lon="-105.2305749">
  <ele>1586.16</ele>
  <time>2026-08-27T18:25:25Z</time>
  <course>11.25</course>
  <speed>0.01414213562373095</speed>
  <fix>3d</fix>
</trkpt>
<trkpt lat="40.072842" lon="-105.230575">
  <ele>1586.09</ele>
  <time>2026-08-27T18:25:25Z</time>
  <course>266.03</course>
  <speed>0.0</speed>
  <fix>3d</fix>
</trkpt>
<trkpt lat="40.0728419" lon="-105.2305749">
  <ele>1586.16</ele>
  <time>2026-08-27T18:25:25Z</time>
  <course>11.25</course>
  <speed>0.01414213562373095</speed>
  <fix>3d</fix>
</trkpt>
<trkpt lat="40.072842" lon="-105.230575">
  <ele>1586.09</ele>
  <time>2026-08-27T18:25:25Z</time>
  <course>266.03</course>
  <speed>0.0</speed>
  <fix>3d</fix>
</trkpt>
<trkpt lat="40.0728419" lon="-105.2305749">
  <ele>1586.17</ele>
  <time>2026-08-27T18:25:25Z</time>
  <course>11.25</course>
  <speed>0.01414213562373095</speed>
  <fix>3d</fix>
</trkpt>
<trkpt lat="40.072842" lon="-105.230575">
  <ele>1586.09</ele>
  <time>2026-08-27T18:25:25Z</time>
  <course>266.03</course>
  <speed>0.0</speed>
  <fix>3d</fix>
</trkpt>
<trkpt lat="40.0728419" lon="-105.2305749">
  <ele>1586.17</ele>
  <time>2026-08-27T18:25:25Z</time>
  <course>11.24</course>
  <speed>0.01414213562373095</speed>
  <fix>3d</fix>
</trkpt>
<trkpt lat="40.072842" lon="-105.230575">
  <ele>1586.09</ele>
  <time>2026-08-27T18:25:25Z</time>
  <course>266.03</course>
  <speed>0.0</speed>
  <fix>3d</fix>
</trkpt>
<trkpt lat="40.0728419" lon="-105.2305749">
  <ele>1586.17</ele>
  <time>2026-08-27T18:25:25Z</time>
  <course>11.24</course>
  <speed>0.01414213562373095</speed>
  <fix>3d</fix>
</trkpt>
<trkpt lat="40.072842" lon="-105.230575">
  <ele>1586.09</ele>
  <time>2026-08-27T18:25:25Z</time>
  <course>266.03</course>
  <speed>0.0</speed>
  <fix>3d</fix>
</trkpt>
<trkpt lat="40.0728419" lon="-105.2305749">
  <ele>1586.17</ele>
  <time>2026-08-27T18:25:25Z</time>
  <course>11.23</course>
  <speed>0.01414213562373095</speed>
  <fix>3d</fix>
</trkpt>
<trkpt lat="40.072842" lon="-105.230575">
  <ele>1586.09</ele>
  <time>2026-08-27T18:25:25Z</time>
  <course>266.03</course>
  <speed>0.0</speed>
  <fix>3d</fix>
</trkpt>
<trkpt lat="40.0728419" lon="-105.2305749">
  <ele>1586.17</ele>
  <time>2026-08-27T18:25:25Z</time>
  <course>11.23</course>
  <speed>0.01414213562373095</speed>
  <fix>3d</fix>
</trkpt>
<trkpt lat="40.072842" lon="-105.230575">
  <ele>1586.09</ele>
  <time>2026-08-27T18:25:25Z</time>
  <course>266.03</course>
  <speed>0.0</speed>
  <fix>3d</fix>
</trkpt>
<trkpt lat="40.0728419" lon="-105.2305749">
  <ele>1586.17</ele>
  <time>2026-08-27T18:25:25Z</time>
  <course>11.23</course>
  <speed>0.01414213562373095</speed>
  <fix>3d</fix>
</trkpt>
<trkpt lat="40.072842" lon="-105.230575">
  <ele>1586.09</ele>
  <time>2026-08-27T18:25:25Z</time>
  <course>266.03</course>
  <speed>0.0</speed>
  <fix>3d</fix>
</trkpt>
<trkpt lat="40.0728419" lon="-105.2305749">
  <ele>1586.17</ele>
  <time>2026-08-27T18:25:25Z</time>
  <course>11.22</course>
  <speed>0.01414213562373095</speed>
  <fix>3d</fix>
</trkpt>
<trkpt lat="40.072842" lon="-105.230575">
  <ele>1586.09</ele>
  <time>2026-08-27T18:25:25Z</time>
  <course>266.03</course>
  <speed>0.0</speed>
  <fix>3d</fix>
</trkpt>
<trkpt lat="40.0728419" lon="-105.2305749">
  <ele>1586.17</ele>
  <time>2026-08-27T18:25:25Z</time>
  <course>11.22</course>
  <speed>0.01414213562373095</speed>
  <fix>3d</fix>
</trkpt>
<trkpt lat="40.072842" lon="-105.230575">
  <ele>1586.09</ele>
  <time>2026-08-27T18:25:25Z</time>
  <course>266.03</course>
  <speed>0.0</speed>
  <fix>3d</fix>
</trkpt>
<trkpt lat="40.0728419" lon="-105.2305749">
  <ele>1586.17</ele>
  <time>2026-08-27T18:25:25Z</time>
  <course>11.21</course>
  <speed>0.01414213562373095</speed>
  <fix>3d</fix>
</trkpt>
<trkpt lat="40.072842" lon="-105.230575">
  <ele>1586.09</ele>
  <time>2026-08-27T18:25:25Z</time>
  <course>266.03</course>
  <speed>0.0</speed>
  <fix>3d</fix>
</trkpt>
<trkpt lat="40.0728419" lon="-105.2305749">
  <ele>1586.17</ele>
  <time>2026-08-27T18:25:25Z</time>
  <course>11.21</course>
  <speed>0.01414213562373095</speed>
  <fix>3d</fix>
</trkpt>
<trkpt lat="40.072842" lon="-105.230575">
  <ele>1586.09</ele>
  <time>2026-08-27T18:25:25Z</time>
  <course>266.03</course>
  <speed>0.0</speed>
  <fix>3d</fix>
</trkpt>
<trkpt lat="40.0728419" lon="-105.2305749">
  <ele>1586.17</ele>
  <time>2026-08-27T18:25:25Z</time>
  <course>11.21</course>
  <speed>0.01414213562373095</speed>
  <fix>3d</fix>
</trkpt>
<trkpt lat="40.072842" lon="-105.230575">
  <ele>1586.09</ele>
  <time>2026-08-27T18:25:25Z</time>
  <course>266.03</course>
  <speed>0.0</speed>
  <fix>3d</fix>
</trkpt>
<trkpt lat="40.0728419" lon="-105.2305749">
  <ele>1586.17</ele>
  <time>2026-08-27T18:25:26Z</time>
  <course>11.2</course>
  <speed>0.01414213562373095</speed>
  <fix>3d</fix>
</trkpt>
<trkpt lat="40.072842" lon="-105.230575">
  <ele>1586.09</ele>
  <time>2026-08-27T18:25:26Z</time>
  <course>266.03</course>
  <speed>0.0</speed>
  <fix>3d</fix>
</trkpt>
<trkpt lat="40.0728419" lon="-105.2305749">
  <ele>1586.16</ele>
  <time>2026-08-27T18:25:26Z</time>
  <course>11.2</course>
  <speed>0.01414213562373095</speed>
  <fix>3d</fix>
</trkpt>
<trkpt lat="40.072842" lon="-105.230575">
  <ele>1586.09</ele>
  <time>2026-08-27T18:25:26Z</time>
  <course>245.13</course>
  <speed>0.0</speed>
  <fix>3d</fix>
</trkpt>
<trkpt lat="40.0728419" lon="-105.2305749">
  <ele>1586.16</ele>
  <time>2026-08-27T18:25:26Z</time>
  <course>11.2</course>
  <speed>0.01414213562373095</speed>
  <fix>3d</fix>
</trkpt>
<trkpt lat="40.072842" lon="-105.230575">
  <ele>1586.09</ele>
  <time>2026-08-27T18:25:26Z</time>
  <course>262.23</course>
  <speed>0.0</speed>
  <fix>3d</fix>
</trkpt>
<trkpt lat="40.0728419" lon="-105.2305749">
  <ele>1586.16</ele>
  <time>2026-08-27T18:25:26Z</time>
  <course>11.19</course>
  <speed>0.01414213562373095</speed>
  <fix>3d</fix>
</trkpt>
<trkpt lat="40.072842" lon="-105.230575">
  <ele>1586.09</ele>
  <time>2026-08-27T18:25:26Z</time>
  <course>264.21</course>
  <speed>0.0</speed>
  <fix>3d</fix>
</trkpt>
<trkpt lat="40.0728419" lon="-105.2305749">
  <ele>1586.16</ele>
  <time>2026-08-27T18:25:26Z</time>
  <course>11.19</course>
  <speed>0.01</speed>
  <fix>3d</fix>
</trkpt>
<trkpt lat="40.072842" lon="-105.230575">
  <ele>1586.09</ele>
  <time>2026-08-27T18:25:26Z</time>
  <course>262.37</course>
  <speed>0.0</speed>
  <fix>3d</fix>
</trkpt>
<trkpt lat="40.0728419" lon="-105.2305749">
  <ele>1586.16</ele>
  <time>2026-08-27T18:25:27Z</time>
  <course>11.19</course>
  <speed>0.01</speed>
  <fix>3d</fix>
</trkpt>
<trkpt lat="40.072842" lon="-105.230575">
  <ele>1586.09</ele>
  <time>2026-08-27T18:25:27Z</time>
  <course>267.02</course>
  <speed>0.0</speed>
  <fix>3d</fix>
</trkpt>
<trkpt lat="40.0728419" lon="-105.2305749">
  <ele>1586.16</ele>
  <time>2026-08-27T18:25:27Z</time>
  <course>11.18</course>
  <speed>0.01</speed>
  <fix>3d</fix>
</trkpt>
<trkpt lat="40.072842" lon="-105.230575">
  <ele>1586.09</ele>
  <time>2026-08-27T18:25:27Z</time>
  <course>266.4</course>
  <speed>0.0</speed>
  <fix>3d</fix>
</trkpt>
<trkpt lat="40.0728419" lon="-105.2305749">
  <ele>1586.16</ele>
  <time>2026-08-27T18:25:27Z</time>
  <course>11.18</course>
  <speed>0.01</speed>
  <fix>3d</fix>
</trkpt>
<trkpt lat="40.072842" lon="-105.230575">
  <ele>1586.09</ele>
  <time>2026-08-27T18:25:27Z</time>
  <course>265.87</course>
  <speed>0.0</speed>
  <fix>3d</fix>
</trkpt>
<trkpt lat="40.0728419" lon="-105.2305749">
  <ele>1586.16</ele>
  <time>2026-08-27T18:25:27Z</time>
  <course>11.18</course>
  <speed>0.01</speed>
  <fix>3d</fix>
</trkpt>
<trkpt lat="40.072842" lon="-105.230575">
  <ele>1586.09</ele>
  <time>2026-08-27T18:25:27Z</time>
  <course>266.0</course>
  <speed>0.0</speed>
  <fix>3d</fix>
</trkpt>
<trkpt lat="40.0728419" lon="-105.2305749">
  <ele>1586.17</ele>
  <time>2026-08-27T18:25:27Z</time>
  <course>11.17</course>
  <speed>0.01</speed>
  <fix>3d</fix>
</trkpt>
<trkpt lat="40.072842" lon="-105.230575">
  <ele>1586.09</ele>
  <time>2026-08-27T18:25:27Z</time>
  <course>266.06</course>
  <speed>0.0</speed>
  <fix>3d</fix>
</trkpt>
<trkpt lat="40.0728419" lon="-105.2305749">
  <ele>1586.17</ele>
  <time>2026-08-27T18:25:27Z</time>
  <course>11.17</course>
  <speed>0.01</speed>
  <fix>3d</fix>
</trkpt>
<trkpt lat="40.072842" lon="-105.230575">
  <ele>1586.09</ele>
  <time>2026-08-27T18:25:27Z</time>
  <course>266.03</course>
  <speed>0.0</speed>
  <fix>3d</fix>
</trkpt>
<trkpt lat="40.0728419" lon="-105.2305749">
  <ele>1586.18</ele>
  <time>2026-08-27T18:25:27Z</time>
  <course>11.17</course>
  <speed>0.01</speed>
  <fix>3d</fix>
</trkpt>
<trkpt lat="40.072842" lon="-105.230575">
  <ele>1586.09</ele>
  <time>2026-08-27T18:25:27Z</time>
  <course>266.03</course>
  <speed>0.0</speed>
  <fix>3d</fix>
</trkpt>
<trkpt lat="40.0728419" lon="-105.2305749">
  <ele>1586.18</ele>
  <time>2026-08-27T18:25:27Z</time>
  <course>11.16</course>
  <speed>0.01</speed>
  <fix>3d</fix>
</trkpt>
<trkpt lat="40.072842" lon="-105.230575">
  <ele>1586.09</ele>
  <time>2026-08-27T18:25:27Z</time>
  <course>266.03</course>
  <speed>0.0</speed>
  <fix>3d</fix>
</trkpt>
<trkpt lat="40.0728419" lon="-105.2305749">
  <ele>1586.18</ele>
  <time>2026-08-27T18:25:27Z</time>
  <course>11.16</course>
  <speed>0.01</speed>
  <fix>3d</fix>
</trkpt>
<trkpt lat="40.072842" lon="-105.230575">
  <ele>1586.09</ele>
  <time>2026-08-27T18:25:27Z</time>
  <course>266.03</course>
  <speed>0.0</speed>
  <fix>3d</fix>
</trkpt>
<trkpt lat="40.0728419" lon="-105.2305749">
  <ele>1586.18</ele>
  <time>2026-08-27T18:25:27Z</time>
  <course>11.16</course>
  <speed>0.01</speed>
  <fix>3d</fix>
</trkpt>
<trkpt lat="40.072842" lon="-105.230575">
  <ele>1586.09</ele>
  <time>2026-08-27T18:25:27Z</time>
  <course>266.03</course>
  <speed>0.0</speed>
  <fix>3d</fix>
</trkpt>
<trkpt lat="40.0728419" lon="-105.2305749">
  <ele>1586.18</ele>
  <time>2026-08-27T18:25:27Z</time>
  <course>11.15</course>
  <speed>0.01</speed>
  <fix>3d</fix>
</trkpt>
<trkpt lat="40.072842" lon="-105.230575">
  <ele>1586.09</ele>
  <time>2026-08-27T18:25:27Z</time>
  <course>266.03</course>
  <speed>0.0</speed>
  <fix>3d</fix>
</trkpt>
<trkpt lat="40.0728419" lon="-105.2305749">
  <ele>1586.18</ele>
  <time>2026-08-27T18:25:27Z</time>
  <course>11.15</course>
  <speed>0.01</speed>
  <fix>3d</fix>
</trkpt>
<trkpt lat="40.072842" lon="-105.230575">
  <ele>1586.09</ele>
  <time>2026-08-27T18:25:27Z</time>
  <course>266.03</course>
  <speed>0.0</speed>
  <fix>3d</fix>
</trkpt>
<trkpt lat="40.0728419" lon="-105.2305749">
  <ele>1586.17</ele>
  <time>2026-08-27T18:25:27Z</time>
  <course>11.15</course>
  <speed>0.01</speed>
  <fix>3d</fix>
</trkpt>
<trkpt lat="40.072842" lon="-105.230575">
  <ele>1586.09</ele>
  <time>2026-08-27T18:25:27Z</time>
  <course>266.03</course>
  <speed>0.0</speed>
  <fix>3d</fix>
</trkpt>
<trkpt lat="40.0728419" lon="-105.2305749">
  <ele>1586.17</ele>
  <time>2026-08-27T18:25:27Z</time>
  <course>11.15</course>
  <speed>0.01</speed>
  <fix>3d</fix>
</trkpt>
<trkpt lat="40.072842" lon="-105.230575">
  <ele>1586.09</ele>
  <time>2026-08-27T18:25:27Z</time>
  <course>266.03</course>
  <speed>0.0</speed>
  <fix>3d</fix>
</trkpt>
<trkpt lat="40.0728419" lon="-105.2305749">
  <ele>1586.18</ele>
  <time>2026-08-27T18:25:27Z</time>
  <course>11.14</course>
  <speed>0.01414213562373095</speed>
  <fix>3d</fix>
</trkpt>
<trkpt lat="40.072842" lon="-105.230575">
  <ele>1586.09</ele>
  <time>2026-08-27T18:25:27Z</time>
  <course>266.03</course>
  <speed>0.0</speed>
  <fix>3d</fix>
</trkpt>
<trkpt lat="40.0728419" lon="-105.2305749">
  <ele>1586.18</ele>
  <time>2026-08-27T18:25:27Z</time>
  <course>11.14</course>
  <speed>0.01414213562373095</speed>
  <fix>3d</fix>
</trkpt>
<trkpt lat="40.072842" lon="-105.230575">
  <ele>1586.09</ele>
  <time>2026-08-27T18:25:27Z</time>
  <course>266.03</course>
  <speed>0.0</speed>
  <fix>3d</fix>
</trkpt>
<trkpt lat="40.0728419" lon="-105.2305749">
  <ele>1586.17</ele>
  <time>2026-08-27T18:25:27Z</time>
  <course>11.14</course>
  <speed>0.01414213562373095</speed>
  <fix>3d</fix>
</trkpt>
<trkpt lat="40.072842" lon="-105.230575">
  <ele>1586.09</ele>
  <time>2026-08-27T18:25:27Z</time>
  <course>266.03</course>
  <speed>0.0</speed>
  <fix>3d</fix>
</trkpt>
<trkpt lat="40.0728419" lon="-105.2305749">
  <ele>1586.17</ele>
  <time>2026-08-27T18:25:27Z</time>
  <course>11.14</course>
  <speed>0.01414213562373095</speed>
  <fix>3d</fix>
</trkpt>
<trkpt lat="40.072842" lon="-105.230575">
  <ele>1586.09</ele>
  <time>2026-08-27T18:25:27Z</time>
  <course>266.03</course>
  <speed>0.0</speed>
  <fix>3d</fix>
</trkpt>
<trkpt lat="40.0728419" lon="-105.2305749">
  <ele>1586.17</ele>
  <time>2026-08-27T18:25:27Z</time>
  <course>11.14</course>
  <speed>0.01414213562373095</speed>
  <fix>3d</fix>
</trkpt>
<trkpt lat="40.072842" lon="-105.230575">
  <ele>1586.09</ele>
  <time>2026-08-27T18:25:27Z</time>
  <course>266.03</course>
  <speed>0.0</speed>
  <fix>3d</fix>
</trkpt>
<trkpt lat="40.0728419" lon="-105.2305749">
  <ele>1586.17</ele>
  <time>2026-08-27T18:25:27Z</time>
  <course>11.13</course>
  <speed>0.01414213562373095</speed>
  <fix>3d</fix>
</trkpt>
<trkpt lat="40.072842" lon="-105.230575">
  <ele>1586.09</ele>
  <time>2026-08-27T18:25:27Z</time>
  <course>266.03</course>
  <speed>0.0</speed>
  <fix>3d</fix>
</trkpt>
<trkpt lat="40.0728419" lon="-105.2305749">
  <ele>1586.16</ele>
  <time>2026-08-27T18:25:27Z</time>
  <course>11.13</course>
  <speed>0.01414213562373095</speed>
  <fix>3d</fix>
</trkpt>
<trkpt lat="40.072842" lon="-105.230575">
  <ele>1586.09</ele>
  <time>2026-08-27T18:25:27Z</time>
  <course>266.03</course>
  <speed>0.0</speed>
  <fix>3d</fix>
</trkpt>
<trkpt lat="40.0728419" lon="-105.2305749">
  <ele>1586.16</ele>
  <time>2026-08-27T18:25:27Z</time>
  <course>11.13</course>
  <speed>0.01414213562373095</speed>
  <fix>3d</fix>
</trkpt>
<trkpt lat="40.072842" lon="-105.230575">
  <ele>1586.09</ele>
  <time>2026-08-27T18:25:27Z</time>
  <course>266.03</course>
  <speed>0.0</speed>
  <fix>3d</fix>
</trkpt>
<trkpt lat="40.0728419" lon="-105.2305749">
  <ele>1586.16</ele>
  <time>2026-08-27T18:25:27Z</time>
  <course>11.13</course>
  <speed>0.01414213562373095</speed>
  <fix>3d</fix>
</trkpt>
<trkpt lat="40.072842" lon="-105.230575">
  <ele>1586.09</ele>
  <time>2026-08-27T18:25:27Z</time>
  <course>266.03</course>
  <speed>0.0</speed>
  <fix>3d</fix>
</trkpt>
<trkpt lat="40.0728419" lon="-105.2305749">
  <ele>1586.16</ele>
  <time>2026-08-27T18:25:27Z</time>
  <course>11.12</course>
  <speed>0.01414213562373095</speed>
  <fix>3d</fix>
</trkpt>
<trkpt lat="40.072842" lon="-105.230575">
  <ele>1586.09</ele>
  <time>2026-08-27T18:25:27Z</time>
  <course>266.03</course>
  <speed>0.0</speed>
  <fix>3d</fix>
</trkpt>
<trkpt lat="40.0728419" lon="-105.2305749">
  <ele>1586.16</ele>
  <time>2026-08-27T18:25:27Z</time>
  <course>11.12</course>
  <speed>0.01414213562373095</speed>
  <fix>3d</fix>
</trkpt>
<trkpt lat="40.072842" lon="-105.230575">
  <ele>1586.09</ele>
  <time>2026-08-27T18:25:27Z</time>
  <course>266.03</course>
  <speed>0.0</speed>
  <fix>3d</fix>
</trkpt>
<trkpt lat="40.0728419" lon="-105.2305749">
  <ele>1586.16</ele>
  <time>2026-08-27T18:25:27Z</time>
  <course>11.12</course>
  <speed>0.01414213562373095</speed>
  <fix>3d</fix>
</trkpt>
<trkpt lat="40.072842" lon="-105.230575">
  <ele>1586.09</ele>
  <time>2026-08-27T18:25:27Z</time>
  <course>266.03</course>
  <speed>0.0</speed>
  <fix>3d</fix>
</trkpt>
<trkpt lat="40.0728419" lon="-105.2305749">
  <ele>1586.16</ele>
  <time>2026-08-27T18:25:27Z</time>
  <course>11.12</course>
  <speed>0.01414213562373095</speed>
  <fix>3d</fix>
</trkpt>
<trkpt lat="40.072842" lon="-105.230575">
  <ele>1586.09</ele>
  <time>2026-08-27T18:25:27Z</time>
  <course>266.03</course>
  <speed>0.0</speed>
  <fix>3d</fix>
</trkpt>
<trkpt lat="40.0728419" lon="-105.2305749">
  <ele>1586.15</ele>
  <time>2026-08-27T18:25:27Z</time>
  <course>11.12</course>
  <speed>0.01414213562373095</speed>
  <fix>3d</fix>
</trkpt>
<trkpt lat="40.072842" lon="-105.230575">
  <ele>1586.09</ele>
  <time>2026-08-27T18:25:27Z</time>
  <course>266.03</course>
  <speed>0.0</speed>
  <fix>3d</fix>
</trkpt>
<trkpt lat="40.0728419" lon="-105.2305749">
  <ele>1586.15</ele>
  <time>2026-08-27T18:25:27Z</time>
  <course>11.11</course>
  <speed>0.01414213562373095</speed>
  <fix>3d</fix>
</trkpt>
<trkpt lat="40.072842" lon="-105.230575">
  <ele>1586.09</ele>
  <time>2026-08-27T18:25:27Z</time>
  <course>257.61</course>
  <speed>0.0</speed>
  <fix>3d</fix>
</trkpt>
<trkpt lat="40.0728419" lon="-105.2305749">
  <ele>1586.15</ele>
  <time>2026-08-27T18:25:27Z</time>
  <course>11.11</course>
  <speed>0.01414213562373095</speed>
  <fix>3d</fix>
</trkpt>
<trkpt lat="40.072842" lon="-105.230575">
  <ele>1586.09</ele>
  <time>2026-08-27T18:25:27Z</time>
  <course>265.97</course>
  <speed>0.0</speed>
  <fix>3d</fix>
</trkpt>
<trkpt lat="40.0728419" lon="-105.2305749">
  <ele>1586.15</ele>
  <time>2026-08-27T18:25:27Z</time>
  <course>11.11</course>
  <speed>0.01414213562373095</speed>
  <fix>3d</fix>
</trkpt>
<trkpt lat="40.072842" lon="-105.230575">
  <ele>1586.09</ele>
  <time>2026-08-27T18:25:27Z</time>
  <course>261.47</course>
  <speed>0.0</speed>
  <fix>3d</fix>
</trkpt>
<trkpt lat="40.0728419" lon="-105.2305749">
  <ele>1586.14</ele>
  <time>2026-08-27T18:25:27Z</time>
  <course>11.11</course>
  <speed>0.01414213562373095</speed>
  <fix>3d</fix>
</trkpt>
<trkpt lat="40.072842" lon="-105.230575">
  <ele>1586.09</ele>
  <time>2026-08-27T18:25:27Z</time>
  <course>145.71</course>
  <speed>0.0</speed>
  <fix>3d</fix>
</trkpt>
<trkpt lat="40.0728419" lon="-105.2305749">
  <ele>1586.14</ele>
  <time>2026-08-27T18:25:27Z</time>
  <course>11.11</course>
  <speed>0.01414213562373095</speed>
  <fix>3d</fix>
</trkpt>
<trkpt lat="40.072842" lon="-105.230575">
  <ele>1586.09</ele>
  <time>2026-08-27T18:25:27Z</time>
  <course>58.16</course>
  <speed>0.0</speed>
  <fix>3d</fix>
</trkpt>
<trkpt lat="40.0728419" lon="-105.2305749">
  <ele>1586.14</ele>
  <time>2026-08-27T18:25:27Z</time>
  <course>11.1</course>
  <speed>0.01414213562373095</speed>
  <fix>3d</fix>
</trkpt>
<trkpt lat="40.072842" lon="-105.230575">
  <ele>1586.09</ele>
  <time>2026-08-27T18:25:27Z</time>
  <course>271.84</course>
  <speed>0.0</speed>
  <fix>3d</fix>
</trkpt>
<trkpt lat="40.0728419" lon="-105.2305749">
  <ele>1586.14</ele>
  <time>2026-08-27T18:25:27Z</time>
  <course>11.1</course>
  <speed>0.01414213562373095</speed>
  <fix>3d</fix>
</trkpt>
<trkpt lat="40.072842" lon="-105.230575">
  <ele>1586.09</ele>
  <time>2026-08-27T18:25:27Z</time>
  <course>260.5</course>
  <speed>0.0</speed>
  <fix>3d</fix>
</trkpt>
<trkpt lat="40.0728419" lon="-105.2305749">
  <ele>1586.14</ele>
  <time>2026-08-27T18:25:27Z</time>
  <course>11.1</course>
  <speed>0.01414213562373095</speed>
  <fix>3d</fix>
</trkpt>
<trkpt lat="40.072842" lon="-105.230575">
  <ele>1586.09</ele>
  <time>2026-08-27T18:25:27Z</time>
  <course>265.61</course>
  <speed>0.0</speed>
  <fix>3d</fix>
</trkpt>
<trkpt lat="40.0728419" lon="-105.2305749">
  <ele>1586.14</ele>
  <time>2026-08-27T18:25:27Z</time>
  <course>11.1</course>
  <speed>0.01</speed>
  <fix>3d</fix>
</trkpt>
<trkpt lat="40.072842" lon="-105.230575">
  <ele>1586.09</ele>
  <time>2026-08-27T18:25:27Z</time>
  <course>266.97</course>
  <speed>0.0</speed>
  <fix>3d</fix>
</trkpt>
<trkpt lat="40.0728419" lon="-105.2305749">
  <ele>1586.15</ele>
  <time>2026-08-27T18:25:27Z</time>
  <course>11.1</course>
  <speed>0.01</speed>
  <fix>3d</fix>
</trkpt>
<trkpt lat="40.072842" lon="-105.230575">
  <ele>1586.09</ele>
  <time>2026-08-27T18:25:27Z</time>
  <course>265.98</course>
  <speed>0.0</speed>
  <fix>3d</fix>
</trkpt>
<trkpt lat="40.0728419" lon="-105.2305749">
  <ele>1586.15</ele>
  <time>2026-08-27T18:25:27Z</time>
  <course>11.1</course>
  <speed>0.01</speed>
  <fix>3d</fix>
</trkpt>
<trkpt lat="40.072842" lon="-105.230575">
  <ele>1586.09</ele>
  <time>2026-08-27T18:25:27Z</time>
  <course>265.92</course>
  <speed>0.0</speed>
  <fix>3d</fix>
</trkpt>
<trkpt lat="40.0728419" lon="-105.2305749">
  <ele>1586.15</ele>
  <time>2026-08-27T18:25:27Z</time>
  <course>11.09</course>
  <speed>0.01</speed>
  <fix>3d</fix>
</trkpt>
<trkpt lat="40.072842" lon="-105.230575">
  <ele>1586.09</ele>
  <time>2026-08-27T18:25:27Z</time>
  <course>266.06</course>
  <speed>0.0</speed>
  <fix>3d</fix>
</trkpt>
<trkpt lat="40.0728419" lon="-105.2305749">
  <ele>1586.16</ele>
  <time>2026-08-27T18:25:27Z</time>
  <course>11.09</course>
  <speed>0.01</speed>
  <fix>3d</fix>
</trkpt>
<trkpt lat="40.072842" lon="-105.230575">
  <ele>1586.09</ele>
  <time>2026-08-27T18:25:27Z</time>
  <course>266.05</course>
  <speed>0.0</speed>
  <fix>3d</fix>
</trkpt>
<trkpt lat="40.0728419" lon="-105.2305749">
  <ele>1586.16</ele>
  <time>2026-08-27T18:25:27Z</time>
  <course>11.09</course>
  <speed>0.01</speed>
  <fix>3d</fix>
</trkpt>
<trkpt lat="40.072842" lon="-105.230575">
  <ele>1586.09</ele>
  <time>2026-08-27T18:25:27Z</time>
  <course>266.03</course>
  <speed>0.0</speed>
  <fix>3d</fix>
</trkpt>
<trkpt lat="40.0728419" lon="-105.2305749">
  <ele>1586.16</ele>
  <time>2026-08-27T18:25:27Z</time>
  <course>11.09</course>
  <speed>0.01</speed>
  <fix>3d</fix>
</trkpt>
<trkpt lat="40.072842" lon="-105.230575">
  <ele>1586.09</ele>
  <time>2026-08-27T18:25:27Z</time>
  <course>266.03</course>
  <speed>0.0</speed>
  <fix>3d</fix>
</trkpt>
<trkpt lat="40.0728419" lon="-105.2305749">
  <ele>1586.16</ele>
  <time>2026-08-27T18:25:27Z</time>
  <course>11.09</course>
  <speed>0.01414213562373095</speed>
  <fix>3d</fix>
</trkpt>
<trkpt lat="40.072842" lon="-105.230575">
  <ele>1586.09</ele>
  <time>2026-08-27T18:25:27Z</time>
  <course>266.04</course>
  <speed>0.0</speed>
  <fix>3d</fix>
</trkpt>
<trkpt lat="40.0728419" lon="-105.2305749">
  <ele>1586.16</ele>
  <time>2026-08-27T18:25:27Z</time>
  <course>11.09</course>
  <speed>0.01414213562373095</speed>
  <fix>3d</fix>
</trkpt>
<trkpt lat="40.072842" lon="-105.230575">
  <ele>1586.09</ele>
  <time>2026-08-27T18:25:27Z</time>
  <course>266.04</course>
  <speed>0.0</speed>
  <fix>3d</fix>
</trkpt>
<trkpt lat="40.0728419" lon="-105.2305749">
  <ele>1586.16</ele>
  <time>2026-08-27T18:25:27Z</time>
  <course>11.09</course>
  <speed>0.01414213562373095</speed>
  <fix>3d</fix>
</trkpt>
<trkpt lat="40.072842" lon="-105.230575">
  <ele>1586.09</ele>
  <time>2026-08-27T18:25:27Z</time>
  <course>266.04</course>
  <speed>0.0</speed>
  <fix>3d</fix>
</trkpt>
<trkpt lat="40.0728419" lon="-105.2305749">
  <ele>1586.16</ele>
  <time>2026-08-27T18:25:27Z</time>
  <course>11.08</course>
  <speed>0.01414213562373095</speed>
  <fix>3d</fix>
</trkpt>
<trkpt lat="40.072842" lon="-105.230575">
  <ele>1586.09</ele>
  <time>2026-08-27T18:25:27Z</time>
  <course>266.04</course>
  <speed>0.0</speed>
  <fix>3d</fix>
</trkpt>
<trkpt lat="40.0728419" lon="-105.2305749">
  <ele>1586.15</ele>
  <time>2026-08-27T18:25:27Z</time>
  <course>11.08</course>
  <speed>0.01414213562373095</speed>
  <fix>3d</fix>
</trkpt>
<trkpt lat="40.072842" lon="-105.230575">
  <ele>1586.09</ele>
  <time>2026-08-27T18:25:27Z</time>
  <course>266.04</course>
  <speed>0.0</speed>
  <fix>3d</fix>
</trkpt>
<trkpt lat="40.0728419" lon="-105.2305749">
  <ele>1586.15</ele>
  <time>2026-08-27T18:25:27Z</time>
  <course>11.08</course>
  <speed>0.01414213562373095</speed>
  <fix>3d</fix>
</trkpt>
<trkpt lat="40.072842" lon="-105.230575">
  <ele>1586.09</ele>
  <time>2026-08-27T18:25:27Z</time>
  <course>266.04</course>
  <speed>0.0</speed>
  <fix>3d</fix>
</trkpt>
<trkpt lat="40.0728419" lon="-105.2305749">
  <ele>1586.15</ele>
  <time>2026-08-27T18:25:27Z</time>
  <course>11.08</course>
  <speed>0.01414213562373095</speed>
  <fix>3d</fix>
</trkpt>
<trkpt lat="40.072842" lon="-105.230575">
  <ele>1586.09</ele>
  <time>2026-08-27T18:25:27Z</time>
  <course>266.04</course>
  <speed>0.0</speed>
  <fix>3d</fix>
</trkpt>
<trkpt lat="40.0728419" lon="-105.2305749">
  <ele>1586.16</ele>
  <time>2026-08-27T18:25:27Z</time>
  <course>11.08</course>
  <speed>0.01414213562373095</speed>
  <fix>3d</fix>
</trkpt>
<trkpt lat="40.072842" lon="-105.230575">
  <ele>1586.09</ele>
  <time>2026-08-27T18:25:27Z</time>
  <course>266.04</course>
  <speed>0.0</speed>
  <fix>3d</fix>
</trkpt>
<trkpt lat="40.0728419" lon="-105.2305749">
  <ele>1586.16</ele>
  <time>2026-08-27T18:25:27Z</time>
  <course>11.08</course>
  <speed>0.01414213562373095</speed>
  <fix>3d</fix>
</trkpt>
<trkpt lat="40.072842" lon="-105.230575">
  <ele>1586.09</ele>
  <time>2026-08-27T18:25:27Z</time>
  <course>266.04</course>
  <speed>0.0</speed>
  <fix>3d</fix>
</trkpt>
<trkpt lat="40.0728419" lon="-105.2305749">
  <ele>1586.16</ele>
  <time>2026-08-27T18:25:27Z</time>
  <course>11.08</course>
  <speed>0.01414213562373095</speed>
  <fix>3d</fix>
</trkpt>
<trkpt lat="40.072842" lon="-105.230575">
  <ele>1586.09</ele>
  <time>2026-08-27T18:25:27Z</time>
  <course>266.04</course>
  <speed>0.0</speed>
  <fix>3d</fix>
</trkpt>
<trkpt lat="40.0728419" lon="-105.2305749">
  <ele>1586.17</ele>
  <time>2026-08-27T18:25:27Z</time>
  <course>11.08</course>
  <speed>0.01414213562373095</speed>
  <fix>3d</fix>
</trkpt>
<trkpt lat="40.072842" lon="-105.230575">
  <ele>1586.09</ele>
  <time>2026-08-27T18:25:27Z</time>
  <course>266.04</course>
  <speed>0.0</speed>
  <fix>3d</fix>
</trkpt>
<trkpt lat="40.0728419" lon="-105.2305749">
  <ele>1586.17</ele>
  <time>2026-08-27T18:25:27Z</time>
  <course>11.07</course>
  <speed>0.01414213562373095</speed>
  <fix>3d</fix>
</trkpt>
<trkpt lat="40.072842" lon="-105.230575">
  <ele>1586.09</ele>
  <time>2026-08-27T18:25:27Z</time>
  <course>266.04</course>
  <speed>0.0</speed>
  <fix>3d</fix>
</trkpt>
<trkpt lat="40.0728419" lon="-105.2305749">
  <ele>1586.17</ele>
  <time>2026-08-27T18:25:27Z</time>
  <course>11.07</course>
  <speed>0.01414213562373095</speed>
  <fix>3d</fix>
</trkpt>
<trkpt lat="40.072842" lon="-105.230575">
  <ele>1586.09</ele>
  <time>2026-08-27T18:25:27Z</time>
  <course>266.04</course>
  <speed>0.0</speed>
  <fix>3d</fix>
</trkpt>
<trkpt lat="40.0728419" lon="-105.2305749">
  <ele>1586.17</ele>
  <time>2026-08-27T18:25:27Z</time>
  <course>11.07</course>
  <speed>0.01414213562373095</speed>
  <fix>3d</fix>
</trkpt>
<trkpt lat="40.072842" lon="-105.230575">
  <ele>1586.09</ele>
  <time>2026-08-27T18:25:27Z</time>
  <course>266.04</course>
  <speed>0.0</speed>
  <fix>3d</fix>
</trkpt>
<trkpt lat="40.0728419" lon="-105.2305749">
  <ele>1586.17</ele>
  <time>2026-08-27T18:25:27Z</time>
  <course>11.07</course>
  <speed>0.01414213562373095</speed>
  <fix>3d</fix>
</trkpt>
<trkpt lat="40.072842" lon="-105.230575">
  <ele>1586.09</ele>
  <time>2026-08-27T18:25:27Z</time>
  <course>266.04</course>
  <speed>0.0</speed>
  <fix>3d</fix>
</trkpt>
<trkpt lat="40.0728419" lon="-105.2305749">
  <ele>1586.17</ele>
  <time>2026-08-27T18:25:27Z</time>
  <course>11.07</course>
  <speed>0.01414213562373095</speed>
  <fix>3d</fix>
</trkpt>
<trkpt lat="40.072842" lon="-105.230575">
  <ele>1586.09</ele>
  <time>2026-08-27T18:25:27Z</time>
  <course>266.04</course>
  <speed>0.0</speed>
  <fix>3d</fix>
</trkpt>
<trkpt lat="40.0728419" lon="-105.2305749">
  <ele>1586.16</ele>
  <time>2026-08-27T18:25:27Z</time>
  <course>11.07</course>
  <speed>0.01414213562373095</speed>
  <fix>3d</fix>
</trkpt>
<trkpt lat="40.072842" lon="-105.230575">
  <ele>1586.09</ele>
  <time>2026-08-27T18:25:27Z</time>
  <course>266.04</course>
  <speed>0.0</speed>
  <fix>3d</fix>
</trkpt>
<trkpt lat="40.0728419" lon="-105.2305749">
  <ele>1586.16</ele>
  <time>2026-08-27T18:25:27Z</time>
  <course>11.07</course>
  <speed>0.01414213562373095</speed>
  <fix>3d</fix>
</trkpt>
<trkpt lat="40.072842" lon="-105.230575">
  <ele>1586.09</ele>
  <time>2026-08-27T18:25:27Z</time>
  <course>266.04</course>
  <speed>0.0</speed>
  <fix>3d</fix>
</trkpt>
<trkpt lat="40.0728419" lon="-105.2305749">
  <ele>1586.16</ele>
  <time>2026-08-27T18:25:27Z</time>
  <course>11.07</course>
  <speed>0.01414213562373095</speed>
  <fix>3d</fix>
</trkpt>
<trkpt lat="40.072842" lon="-105.230575">
  <ele>1586.09</ele>
  <time>2026-08-27T18:25:27Z</time>
  <course>266.04</course>
  <speed>0.0</speed>
  <fix>3d</fix>
</trkpt>
<trkpt lat="40.0728419" lon="-105.2305749">
  <ele>1586.16</ele>
  <time>2026-08-27T18:25:27Z</time>
  <course>11.07</course>
  <speed>0.01414213562373095</speed>
  <fix>3d</fix>
</trkpt>
<trkpt lat="40.072842" lon="-105.230575">
  <ele>1586.09</ele>
  <time>2026-08-27T18:25:27Z</time>
  <course>266.04</course>
  <speed>0.0</speed>
  <fix>3d</fix>
</trkpt>
<trkpt lat="40.0728419" lon="-105.2305749">
  <ele>1586.16</ele>
  <time>2026-08-27T18:25:27Z</time>
  <course>11.07</course>
  <speed>0.01414213562373095</speed>
  <fix>3d</fix>
</trkpt>
<trkpt lat="40.072842" lon="-105.230575">
  <ele>1586.09</ele>
  <time>2026-08-27T18:25:27Z</time>
  <course>266.04</course>
  <speed>0.0</speed>
  <fix>3d</fix>
</trkpt>
<trkpt lat="40.0728419" lon="-105.2305749">
  <ele>1586.16</ele>
  <time>2026-08-27T18:25:27Z</time>
  <course>11.07</course>
  <speed>0.01414213562373095</speed>
  <fix>3d</fix>
</trkpt>
<trkpt lat="40.072842" lon="-105.230575">
  <ele>1586.09</ele>
  <time>2026-08-27T18:25:27Z</time>
  <course>266.04</course>
  <speed>0.0</speed>
  <fix>3d</fix>
</trkpt>
<trkpt lat="40.0728419" lon="-105.2305749">
  <ele>1586.16</ele>
  <time>2026-08-27T18:25:27Z</time>
  <course>11.07</course>
  <speed>0.01414213562373095</speed>
  <fix>3d</fix>
</trkpt>
<trkpt lat="40.072842" lon="-105.230575">
  <ele>1586.09</ele>
  <time>2026-08-27T18:25:27Z</time>
  <course>266.04</course>
  <speed>0.0</speed>
  <fix>3d</fix>
</trkpt>
<trkpt lat="40.0728419" lon="-105.2305749">
  <ele>1586.16</ele>
  <time>2026-08-27T18:25:27Z</time>
  <course>11.06</course>
  <speed>0.01414213562373095</speed>
  <fix>3d</fix>
</trkpt>
<trkpt lat="40.072842" lon="-105.230575">
  <ele>1586.09</ele>
  <time>2026-08-27T18:25:27Z</time>
  <course>266.04</course>
  <speed>0.0</speed>
  <fix>3d</fix>
</trkpt>
<trkpt lat="40.0728419" lon="-105.2305749">
  <ele>1586.16</ele>
  <time>2026-08-27T18:25:27Z</time>
  <course>11.06</course>
  <speed>0.01414213562373095</speed>
  <fix>3d</fix>
</trkpt>
<trkpt lat="40.072842" lon="-105.230575">
  <ele>1586.09</ele>
  <time>2026-08-27T18:25:27Z</time>
  <course>266.04</course>
  <speed>0.0</speed>
  <fix>3d</fix>
</trkpt>
<trkpt lat="40.0728419" lon="-105.2305749">
  <ele>1586.16</ele>
  <time>2026-08-27T18:25:27Z</time>
  <course>11.06</course>
  <speed>0.01414213562373095</speed>
  <fix>3d</fix>
</trkpt>
<trkpt lat="40.072842" lon="-105.230575">
  <ele>1586.09</ele>
  <time>2026-08-27T18:25:27Z</time>
  <course>266.04</course>
  <speed>0.0</speed>
  <fix>3d</fix>
</trkpt>
<trkpt lat="40.0728419" lon="-105.2305749">
  <ele>1586.16</ele>
  <time>2026-08-27T18:25:27Z</time>
  <course>11.06</course>
  <speed>0.01414213562373095</speed>
  <fix>3d</fix>
</trkpt>
<trkpt lat="40.072842" lon="-105.230575">
  <ele>1586.09</ele>
  <time>2026-08-27T18:25:27Z</time>
  <course>266.04</course>
  <speed>0.0</speed>
  <fix>3d</fix>
</trkpt>
<trkpt lat="40.0728419" lon="-105.2305749">
  <ele>1586.16</ele>
  <time>2026-08-27T18:25:27Z</time>
  <course>11.06</course>
  <speed>0.01414213562373095</speed>
  <fix>3d</fix>
</trkpt>
<trkpt lat="40.072842" lon="-105.230575">
  <ele>1586.09</ele>
  <time>2026-08-27T18:25:27Z</time>
  <course>266.04</course>
  <speed>0.0</speed>
  <fix>3d</fix>
</trkpt>
<trkpt lat="40.0728419" lon="-105.2305749">
  <ele>1586.16</ele>
  <time>2026-08-27T18:25:27Z</time>
  <course>11.06</course>
  <speed>0.01414213562373095</speed>
  <fix>3d</fix>
</trkpt>
<trkpt lat="40.072842" lon="-105.230575">
  <ele>1586.09</ele>
  <time>2026-08-27T18:25:27Z</time>
  <course>266.04</course>
  <speed>0.0</speed>
  <fix>3d</fix>
</trkpt>
<trkpt lat="40.0728419" lon="-105.2305749">
  <ele>1586.16</ele>
  <time>2026-08-27T18:25:27Z</time>
  <course>11.06</course>
  <speed>0.01414213562373095</speed>
  <fix>3d</fix>
</trkpt>
<trkpt lat="40.072842" lon="-105.230575">
  <ele>1586.09</ele>
  <time>2026-08-27T18:25:27Z</time>
  <course>266.04</course>
  <speed>0.0</speed>
  <fix>3d</fix>
</trkpt>
<trkpt lat="40.0728419" lon="-105.2305749">
  <ele>1586.16</ele>
  <time>2026-08-27T18:25:27Z</time>
  <course>11.06</course>
  <speed>0.01414213562373095</speed>
  <fix>3d</fix>
</trkpt>
<trkpt lat="40.072842" lon="-105.230575">
  <ele>1586.09</ele>
  <time>2026-08-27T18:25:27Z</time>
  <course>266.04</course>
  <speed>0.0</speed>
  <fix>3d</fix>
</trkpt>
<trkpt lat="40.0728419" lon="-105.2305749">
  <ele>1586.16</ele>
  <time>2026-08-27T18:25:28Z</time>
  <course>11.06</course>
  <speed>0.01414213562373095</speed>
  <fix>3d</fix>
</trkpt>
<trkpt lat="40.072842" lon="-105.230575">
  <ele>1586.09</ele>
  <time>2026-08-27T18:25:28Z</time>
  <course>266.04</course>
  <speed>0.0</speed>
  <fix>3d</fix>
</trkpt>
<trkpt lat="40.0728419" lon="-105.2305749">
  <ele>1586.16</ele>
  <time>2026-08-27T18:25:28Z</time>
  <course>11.06</course>
  <speed>0.01414213562373095</speed>
  <fix>3d</fix>
</trkpt>
<trkpt lat="40.072842" lon="-105.230575">
  <ele>1586.09</ele>
  <time>2026-08-27T18:25:28Z</time>
  <course>266.04</course>
  <speed>0.0</speed>
  <fix>3d</fix>
</trkpt>
<trkpt lat="40.0728419" lon="-105.2305749">
  <ele>1586.16</ele>
  <time>2026-08-27T18:25:28Z</time>
  <course>11.06</course>
  <speed>0.022360679774997897</speed>
  <fix>3d</fix>
</trkpt>
<trkpt lat="40.072842" lon="-105.230575">
  <ele>1586.09</ele>
  <time>2026-08-27T18:25:28Z</time>
  <course>266.04</course>
  <speed>0.0</speed>
  <fix>3d</fix>
</trkpt>
<trkpt lat="40.0728419" lon="-105.2305749">
  <ele>1586.17</ele>
  <time>2026-08-27T18:25:28Z</time>
  <course>11.06</course>
  <speed>0.022360679774997897</speed>
  <fix>3d</fix>
</trkpt>
<trkpt lat="40.072842" lon="-105.230575">
  <ele>1586.09</ele>
  <time>2026-08-27T18:25:28Z</time>
  <course>266.04</course>
  <speed>0.0</speed>
  <fix>3d</fix>
</trkpt>
<trkpt lat="40.0728419" lon="-105.2305749">
  <ele>1586.17</ele>
  <time>2026-08-27T18:25:28Z</time>
  <course>11.05</course>
  <speed>0.022360679774997897</speed>
  <fix>3d</fix>
</trkpt>
<trkpt lat="40.072842" lon="-105.230575">
  <ele>1586.09</ele>
  <time>2026-08-27T18:25:28Z</time>
  <course>266.04</course>
  <speed>0.0</speed>
  <fix>3d</fix>
</trkpt>
<trkpt lat="40.0728419" lon="-105.2305749">
  <ele>1586.17</ele>
  <time>2026-08-27T18:25:28Z</time>
  <course>11.05</course>
  <speed>0.022360679774997897</speed>
  <fix>3d</fix>
</trkpt>
<trkpt lat="40.072842" lon="-105.230575">
  <ele>1586.09</ele>
  <time>2026-08-27T18:25:28Z</time>
  <course>266.04</course>
  <speed>0.0</speed>
  <fix>3d</fix>
</trkpt>
<trkpt lat="40.0728419" lon="-105.2305749">
  <ele>1586.17</ele>
  <time>2026-08-27T18:25:28Z</time>
  <course>11.05</course>
  <speed>0.022360679774997897</speed>
  <fix>3d</fix>
</trkpt>
<trkpt lat="40.072842" lon="-105.230575">
  <ele>1586.09</ele>
  <time>2026-08-27T18:25:28Z</time>
  <course>266.04</course>
  <speed>0.0</speed>
  <fix>3d</fix>
</trkpt>
<trkpt lat="40.0728419" lon="-105.2305749">
  <ele>1586.17</ele>
  <time>2026-08-27T18:25:28Z</time>
  <course>11.05</course>
  <speed>0.022360679774997897</speed>
  <fix>3d</fix>
</trkpt>
<trkpt lat="40.072842" lon="-105.230575">
  <ele>1586.09</ele>
  <time>2026-08-27T18:25:28Z</time>
  <course>266.04</course>
  <speed>0.0</speed>
  <fix>3d</fix>
</trkpt>
<trkpt lat="40.0728419" lon="-105.2305749">
  <ele>1586.17</ele>
  <time>2026-08-27T18:25:28Z</time>
  <course>11.05</course>
  <speed>0.022360679774997897</speed>
  <fix>3d</fix>
</trkpt>
<trkpt lat="40.072842" lon="-105.230575">
  <ele>1586.09</ele>
  <time>2026-08-27T18:25:28Z</time>
  <course>266.04</course>
  <speed>0.0</speed>
  <fix>3d</fix>
</trkpt>
<trkpt lat="40.0728419" lon="-105.2305749">
  <ele>1586.17</ele>
  <time>2026-08-27T18:25:28Z</time>
  <course>11.05</course>
  <speed>0.022360679774997897</speed>
  <fix>3d</fix>
</trkpt>
<trkpt lat="40.072842" lon="-105.230575">
  <ele>1586.09</ele>
  <time>2026-08-27T18:25:28Z</time>
  <course>266.04</course>
  <speed>0.0</speed>
  <fix>3d</fix>
</trkpt>
<trkpt lat="40.0728419" lon="-105.2305749">
  <ele>1586.17</ele>
  <time>2026-08-27T18:25:28Z</time>
  <course>11.05</course>
  <speed>0.022360679774997897</speed>
  <fix>3d</fix>
</trkpt>
<trkpt lat="40.072842" lon="-105.230575">
  <ele>1586.09</ele>
  <time>2026-08-27T18:25:28Z</time>
  <course>266.04</course>
  <speed>0.0</speed>
  <fix>3d</fix>
</trkpt>
<trkpt lat="40.0728419" lon="-105.2305749">
  <ele>1586.17</ele>
  <time>2026-08-27T18:25:28Z</time>
  <course>11.05</course>
  <speed>0.022360679774997897</speed>
  <fix>3d</fix>
</trkpt>
<trkpt lat="40.072842" lon="-105.230575">
  <ele>1586.09</ele>
  <time>2026-08-27T18:25:28Z</time>
  <course>266.04</course>
  <speed>0.0</speed>
  <fix>3d</fix>
</trkpt>
<trkpt lat="40.0728419" lon="-105.2305749">
  <ele>1586.17</ele>
  <time>2026-08-27T18:25:28Z</time>
  <course>11.05</course>
  <speed>0.022360679774997897</speed>
  <fix>3d</fix>
</trkpt>
<trkpt lat="40.072842" lon="-105.230575">
  <ele>1586.09</ele>
  <time>2026-08-27T18:25:28Z</time>
  <course>266.04</course>
  <speed>0.0</speed>
  <fix>3d</fix>
</trkpt>
<trkpt lat="40.0728419" lon="-105.2305749">
  <ele>1586.17</ele>
  <time>2026-08-27T18:25:28Z</time>
  <course>11.05</course>
  <speed>0.022360679774997897</speed>
  <fix>3d</fix>
</trkpt>
<trkpt lat="40.072842" lon="-105.230575">
  <ele>1586.09</ele>
  <time>2026-08-27T18:25:28Z</time>
  <course>266.04</course>
  <speed>0.0</speed>
  <fix>3d</fix>
</trkpt>
<trkpt lat="40.0728419" lon="-105.2305749">
  <ele>1586.17</ele>
  <time>2026-08-27T18:25:28Z</time>
  <course>11.05</course>
  <speed>0.022360679774997897</speed>
  <fix>3d</fix>
</trkpt>
<trkpt lat="40.072842" lon="-105.230575">
  <ele>1586.09</ele>
  <time>2026-08-27T18:25:28Z</time>
  <course>266.04</course>
  <speed>0.0</speed>
  <fix>3d</fix>
</trkpt>
<trkpt lat="40.0728419" lon="-105.2305749">
  <ele>1586.17</ele>
  <time>2026-08-27T18:25:28Z</time>
  <course>11.05</course>
  <speed>0.022360679774997897</speed>
  <fix>3d</fix>
</trkpt>
<trkpt lat="40.072842" lon="-105.230575">
  <ele>1586.09</ele>
  <time>2026-08-27T18:25:28Z</time>
  <course>266.04</course>
  <speed>0.0</speed>
  <fix>3d</fix>
</trkpt>
<trkpt lat="40.0728419" lon="-105.2305749">
  <ele>1586.17</ele>
  <time>2026-08-27T18:25:28Z</time>
  <course>11.05</course>
  <speed>0.022360679774997897</speed>
  <fix>3d</fix>
</trkpt>
<trkpt lat="40.072842" lon="-105.230575">
  <ele>1586.09</ele>
  <time>2026-08-27T18:25:28Z</time>
  <course>266.04</course>
  <speed>0.0</speed>
  <fix>3d</fix>
</trkpt>
<trkpt lat="40.0728419" lon="-105.2305749">
  <ele>1586.17</ele>
  <time>2026-08-27T18:25:28Z</time>
  <course>11.05</course>
  <speed>0.022360679774997897</speed>
  <fix>3d</fix>
</trkpt>
<trkpt lat="40.072842" lon="-105.230575">
  <ele>1586.09</ele>
  <time>2026-08-27T18:25:28Z</time>
  <course>266.04</course>
  <speed>0.0</speed>
  <fix>3d</fix>
</trkpt>
<trkpt lat="40.0728419" lon="-105.2305749">
  <ele>1586.17</ele>
  <time>2026-08-27T18:25:28Z</time>
  <course>11.05</course>
  <speed>0.022360679774997897</speed>
  <fix>3d</fix>
</trkpt>
<trkpt lat="40.072842" lon="-105.230575">
  <ele>1586.09</ele>
  <time>2026-08-27T18:25:28Z</time>
  <course>266.04</course>
  <speed>0.0</speed>
  <fix>3d</fix>
</trkpt>
<trkpt lat="40.0728419" lon="-105.2305749">
  <ele>1586.17</ele>
  <time>2026-08-27T18:25:28Z</time>
  <course>11.05</course>
  <speed>0.022360679774997897</speed>
  <fix>3d</fix>
</trkpt>
<trkpt lat="40.072842" lon="-105.230575">
  <ele>1586.09</ele>
  <time>2026-08-27T18:25:28Z</time>
  <course>266.04</course>
  <speed>0.0</speed>
  <fix>3d</fix>
</trkpt>
<trkpt lat="40.0728419" lon="-105.2305749">
  <ele>1586.17</ele>
  <time>2026-08-27T18:25:28Z</time>
  <course>11.05</course>
  <speed>0.022360679774997897</speed>
  <fix>3d</fix>
</trkpt>
<trkpt lat="40.072842" lon="-105.230575">
  <ele>1586.09</ele>
  <time>2026-08-27T18:25:28Z</time>
  <course>266.04</course>
  <speed>0.0</speed>
  <fix>3d</fix>
</trkpt>
<trkpt lat="40.0728419" lon="-105.2305749">
  <ele>1586.17</ele>
  <time>2026-08-27T18:25:28Z</time>
  <course>11.04</course>
  <speed>0.022360679774997897</speed>
  <fix>3d</fix>
</trkpt>
<trkpt lat="40.072842" lon="-105.230575">
  <ele>1586.09</ele>
  <time>2026-08-27T18:25:28Z</time>
  <course>266.04</course>
  <speed>0.0</speed>
  <fix>3d</fix>
</trkpt>
<trkpt lat="40.0728419" lon="-105.2305749">
  <ele>1586.17</ele>
  <time>2026-08-27T18:25:28Z</time>
  <course>11.04</course>
  <speed>0.022360679774997897</speed>
  <fix>3d</fix>
</trkpt>
<trkpt lat="40.072842" lon="-105.230575">
  <ele>1586.09</ele>
  <time>2026-08-27T18:25:28Z</time>
  <course>266.04</course>
  <speed>0.0</speed>
  <fix>3d</fix>
</trkpt>
<trkpt lat="40.0728419" lon="-105.2305749">
  <ele>1586.17</ele>
  <time>2026-08-27T18:25:28Z</time>
  <course>11.04</course>
  <speed>0.022360679774997897</speed>
  <fix>3d</fix>
</trkpt>
<trkpt lat="40.072842" lon="-105.230575">
  <ele>1586.09</ele>
  <time>2026-08-27T18:25:28Z</time>
  <course>266.04</course>
  <speed>0.0</speed>
  <fix>3d</fix>
</trkpt>
<trkpt lat="40.0728419" lon="-105.2305749">
  <ele>1586.17</ele>
  <time>2026-08-27T18:25:28Z</time>
  <course>11.04</course>
  <speed>0.022360679774997897</speed>
  <fix>3d</fix>
</trkpt>
<trkpt lat="40.072842" lon="-105.230575">
  <ele>1586.09</ele>
  <time>2026-08-27T18:25:28Z</time>
  <course>266.04</course>
  <speed>0.0</speed>
  <fix>3d</fix>
</trkpt>
<trkpt lat="40.0728419" lon="-105.2305749">
  <ele>1586.16</ele>
  <time>2026-08-27T18:25:28Z</time>
  <course>11.04</course>
  <speed>0.022360679774997897</speed>
  <fix>3d</fix>
</trkpt>
<trkpt lat="40.072842" lon="-105.230575">
  <ele>1586.09</ele>
  <time>2026-08-27T18:25:28Z</time>
  <course>266.04</course>
  <speed>0.0</speed>
  <fix>3d</fix>
</trkpt>
<trkpt lat="40.0728419" lon="-105.2305749">
  <ele>1586.16</ele>
  <time>2026-08-27T18:25:28Z</time>
  <course>11.04</course>
  <speed>0.022360679774997897</speed>
  <fix>3d</fix>
</trkpt>
<trkpt lat="40.072842" lon="-105.230575">
  <ele>1586.09</ele>
  <time>2026-08-27T18:25:28Z</time>
  <course>266.04</course>
  <speed>0.0</speed>
  <fix>3d</fix>
</trkpt>
<trkpt lat="40.0728419" lon="-105.2305749">
  <ele>1586.15</ele>
  <time>2026-08-27T18:25:28Z</time>
  <course>11.04</course>
  <speed>0.022360679774997897</speed>
  <fix>3d</fix>
</trkpt>
<trkpt lat="40.072842" lon="-105.230575">
  <ele>1586.09</ele>
  <time>2026-08-27T18:25:28Z</time>
  <course>266.04</course>
  <speed>0.0</speed>
  <fix>3d</fix>
</trkpt>
<trkpt lat="40.0728419" lon="-105.2305749">
  <ele>1586.15</ele>
  <time>2026-08-27T18:25:28Z</time>
  <course>11.04</course>
  <speed>0.022360679774997897</speed>
  <fix>3d</fix>
</trkpt>
<trkpt lat="40.072842" lon="-105.230575">
  <ele>1586.09</ele>
  <time>2026-08-27T18:25:28Z</time>
  <course>266.04</course>
  <speed>0.0</speed>
  <fix>3d</fix>
</trkpt>
<trkpt lat="40.0728419" lon="-105.2305749">
  <ele>1586.14</ele>
  <time>2026-08-27T18:25:28Z</time>
  <course>11.04</course>
  <speed>0.022360679774997897</speed>
  <fix>3d</fix>
</trkpt>
<trkpt lat="40.072842" lon="-105.230575">
  <ele>1586.09</ele>
  <time>2026-08-27T18:25:28Z</time>
  <course>266.04</course>
  <speed>0.0</speed>
  <fix>3d</fix>
</trkpt>
<trkpt lat="40.0728419" lon="-105.2305749">
  <ele>1586.14</ele>
  <time>2026-08-27T18:25:28Z</time>
  <course>11.04</course>
  <speed>0.022360679774997897</speed>
  <fix>3d</fix>
</trkpt>
<trkpt lat="40.072842" lon="-105.230575">
  <ele>1586.09</ele>
  <time>2026-08-27T18:25:28Z</time>
  <course>266.04</course>
  <speed>0.0</speed>
  <fix>3d</fix>
</trkpt>
<trkpt lat="40.0728419" lon="-105.2305749">
  <ele>1586.14</ele>
  <time>2026-08-27T18:25:28Z</time>
  <course>11.04</course>
  <speed>0.022360679774997897</speed>
  <fix>3d</fix>
</trkpt>
<trkpt lat="40.072842" lon="-105.230575">
  <ele>1586.09</ele>
  <time>2026-08-27T18:25:28Z</time>
  <course>266.04</course>
  <speed>0.0</speed>
  <fix>3d</fix>
</trkpt>
<trkpt lat="40.0728419" lon="-105.2305749">
  <ele>1586.14</ele>
  <time>2026-08-27T18:25:28Z</time>
  <course>11.04</course>
  <speed>0.022360679774997897</speed>
  <fix>3d</fix>
</trkpt>
<trkpt lat="40.072842" lon="-105.230575">
  <ele>1586.09</ele>
  <time>2026-08-27T18:25:28Z</time>
  <course>266.04</course>
  <speed>0.0</speed>
  <fix>3d</fix>
</trkpt>
<trkpt lat="40.0728419" lon="-105.2305749">
  <ele>1586.14</ele>
  <time>2026-08-27T18:25:28Z</time>
  <course>11.04</course>
  <speed>0.022360679774997897</speed>
  <fix>3d</fix>
</trkpt>
<trkpt lat="40.072842" lon="-105.230575">
  <ele>1586.09</ele>
  <time>2026-08-27T18:25:28Z</time>
  <course>266.04</course>
  <speed>0.0</speed>
  <fix>3d</fix>
</trkpt>
<trkpt lat="40.0728419" lon="-105.2305749">
  <ele>1586.14</ele>
  <time>2026-08-27T18:25:28Z</time>
  <course>11.04</course>
  <speed>0.022360679774997897</speed>
  <fix>3d</fix>
</trkpt>
<trkpt lat="40.072842" lon="-105.230575">
  <ele>1586.09</ele>
  <time>2026-08-27T18:25:28Z</time>
  <course>266.04</course>
  <speed>0.0</speed>
  <fix>3d</fix>
</trkpt>
<trkpt lat="40.0728419" lon="-105.2305749">
  <ele>1586.13</ele>
  <time>2026-08-27T18:25:28Z</time>
  <course>11.04</course>
  <speed>0.022360679774997897</speed>
  <fix>3d</fix>
</trkpt>
<trkpt lat="40.072842" lon="-105.230575">
  <ele>1586.09</ele>
  <time>2026-08-27T18:25:28Z</time>
  <course>266.04</course>
  <speed>0.0</speed>
  <fix>3d</fix>
</trkpt>
<trkpt lat="40.0728419" lon="-105.2305749">
  <ele>1586.13</ele>
  <time>2026-08-27T18:25:28Z</time>
  <course>11.04</course>
  <speed>0.022360679774997897</speed>
  <fix>3d</fix>
</trkpt>
<trkpt lat="40.072842" lon="-105.230575">
  <ele>1586.09</ele>
  <time>2026-08-27T18:25:28Z</time>
  <course>266.04</course>
  <speed>0.0</speed>
  <fix>3d</fix>
</trkpt>
<trkpt lat="40.0728419" lon="-105.2305749">
  <ele>1586.14</ele>
  <time>2026-08-27T18:25:28Z</time>
  <course>11.04</course>
  <speed>0.022360679774997897</speed>
  <fix>3d</fix>
</trkpt>
<trkpt lat="40.072842" lon="-105.230575">
  <ele>1586.09</ele>
  <time>2026-08-27T18:25:28Z</time>
  <course>266.04</course>
  <speed>0.0</speed>
  <fix>3d</fix>
</trkpt>
<trkpt lat="40.0728419" lon="-105.2305749">
  <ele>1586.14</ele>
  <time>2026-08-27T18:25:28Z</time>
  <course>11.04</course>
  <speed>0.022360679774997897</speed>
  <fix>3d</fix>
</trkpt>
<trkpt lat="40.072842" lon="-105.230575">
  <ele>1586.09</ele>
  <time>2026-08-27T18:25:28Z</time>
  <course>266.04</course>
  <speed>0.0</speed>
  <fix>3d</fix>
</trkpt>
<trkpt lat="40.0728419" lon="-105.2305749">
  <ele>1586.14</ele>
  <time>2026-08-27T18:25:28Z</time>
  <course>11.04</course>
  <speed>0.022360679774997897</speed>
  <fix>3d</fix>
</trkpt>
<trkpt lat="40.072842" lon="-105.230575">
  <ele>1586.09</ele>
  <time>2026-08-27T18:25:28Z</time>
  <course>266.04</course>
  <speed>0.0</speed>
  <fix>3d</fix>
</trkpt>
<trkpt lat="40.0728419" lon="-105.2305749">
  <ele>1586.14</ele>
  <time>2026-08-27T18:25:28Z</time>
  <course>11.04</course>
  <speed>0.022360679774997897</speed>
  <fix>3d</fix>
</trkpt>
<trkpt lat="40.072842" lon="-105.230575">
  <ele>1586.09</ele>
  <time>2026-08-27T18:25:28Z</time>
  <course>266.04</course>
  <speed>0.0</speed>
  <fix>3d</fix>
</trkpt>
<trkpt lat="40.0728419" lon="-105.2305749">
  <ele>1586.14</ele>
  <time>2026-08-27T18:25:28Z</time>
  <course>11.04</course>
  <speed>0.022360679774997897</speed>
  <fix>3d</fix>
</trkpt>
<trkpt lat="40.072842" lon="-105.230575">
  <ele>1586.09</ele>
  <time>2026-08-27T18:25:28Z</time>
  <course>266.04</course>
  <speed>0.0</speed>
  <fix>3d</fix>
</trkpt>
<trkpt lat="40.0728419" lon="-105.2305749">
  <ele>1586.15</ele>
  <time>2026-08-27T18:25:28Z</time>
  <course>11.04</course>
  <speed>0.022360679774997897</speed>
  <fix>3d</fix>
</trkpt>
<trkpt lat="40.072842" lon="-105.230575">
  <ele>1586.09</ele>
  <time>2026-08-27T18:25:28Z</time>
  <course>266.04</course>
  <speed>0.0</speed>
  <fix>3d</fix>
</trkpt>
<trkpt lat="40.0728419" lon="-105.2305749">
  <ele>1586.15</ele>
  <time>2026-08-27T18:25:28Z</time>
  <course>11.04</course>
  <speed>0.022360679774997897</speed>
  <fix>3d</fix>
</trkpt>
<trkpt lat="40.072842" lon="-105.230575">
  <ele>1586.09</ele>
  <time>2026-08-27T18:25:28Z</time>
  <course>266.04</course>
  <speed>0.0</speed>
  <fix>3d</fix>
</trkpt>
<trkpt lat="40.0728419" lon="-105.2305749">
  <ele>1586.15</ele>
  <time>2026-08-27T18:25:28Z</time>
  <course>11.04</course>
  <speed>0.022360679774997897</speed>
  <fix>3d</fix>
</trkpt>
<trkpt lat="40.072842" lon="-105.230575">
  <ele>1586.09</ele>
  <time>2026-08-27T18:25:28Z</time>
  <course>266.04</course>
  <speed>0.0</speed>
  <fix>3d</fix>
</trkpt>
<trkpt lat="40.0728419" lon="-105.2305749">
  <ele>1586.15</ele>
  <time>2026-08-27T18:25:28Z</time>
  <course>11.04</course>
  <speed>0.022360679774997897</speed>
  <fix>3d</fix>
</trkpt>
<trkpt lat="40.072842" lon="-105.230575">
  <ele>1586.09</ele>
  <time>2026-08-27T18:25:28Z</time>
  <course>266.04</course>
  <speed>0.0</speed>
  <fix>3d</fix>
</trkpt>
<trkpt lat="40.0728419" lon="-105.2305749">
  <ele>1586.15</ele>
  <time>2026-08-27T18:25:28Z</time>
  <course>11.04</course>
  <speed>0.022360679774997897</speed>
  <fix>3d</fix>
</trkpt>
<trkpt lat="40.072842" lon="-105.230575">
  <ele>1586.09</ele>
  <time>2026-08-27T18:25:28Z</time>
  <course>266.04</course>
  <speed>0.0</speed>
  <fix>3d</fix>
</trkpt>
<trkpt lat="40.0728419" lon="-105.2305749">
  <ele>1586.16</ele>
  <time>2026-08-27T18:25:28Z</time>
  <course>11.03</course>
  <speed>0.022360679774997897</speed>
  <fix>3d</fix>
</trkpt>
<trkpt lat="40.072842" lon="-105.230575">
  <ele>1586.09</ele>
  <time>2026-08-27T18:25:28Z</time>
  <course>266.04</course>
  <speed>0.0</speed>
  <fix>3d</fix>
</trkpt>
<trkpt lat="40.0728419" lon="-105.2305749">
  <ele>1586.16</ele>
  <time>2026-08-27T18:25:28Z</time>
  <course>11.03</course>
  <speed>0.022360679774997897</speed>
  <fix>3d</fix>
</trkpt>
<trkpt lat="40.072842" lon="-105.230575">
  <ele>1586.09</ele>
  <time>2026-08-27T18:25:28Z</time>
  <course>266.04</course>
  <speed>0.0</speed>
  <fix>3d</fix>
</trkpt>
<trkpt lat="40.0728419" lon="-105.2305749">
  <ele>1586.15</ele>
  <time>2026-08-27T18:25:28Z</time>
  <course>11.03</course>
  <speed>0.022360679774997897</speed>
  <fix>3d</fix>
</trkpt>
<trkpt lat="40.072842" lon="-105.230575">
  <ele>1586.09</ele>
  <time>2026-08-27T18:25:28Z</time>
  <course>266.04</course>
  <speed>0.0</speed>
  <fix>3d</fix>
</trkpt>
<trkpt lat="40.0728419" lon="-105.2305749">
  <ele>1586.15</ele>
  <time>2026-08-27T18:25:28Z</time>
  <course>11.03</course>
  <speed>0.022360679774997897</speed>
  <fix>3d</fix>
</trkpt>
<trkpt lat="40.072842" lon="-105.230575">
  <ele>1586.09</ele>
  <time>2026-08-27T18:25:28Z</time>
  <course>266.04</course>
  <speed>0.0</speed>
  <fix>3d</fix>
</trkpt>
<trkpt lat="40.0728419" lon="-105.2305749">
  <ele>1586.15</ele>
  <time>2026-08-27T18:25:28Z</time>
  <course>11.03</course>
  <speed>0.022360679774997897</speed>
  <fix>3d</fix>
</trkpt>
<trkpt lat="40.072842" lon="-105.230575">
  <ele>1586.09</ele>
  <time>2026-08-27T18:25:28Z</time>
  <course>266.04</course>
  <speed>0.0</speed>
  <fix>3d</fix>
</trkpt>
<trkpt lat="40.0728419" lon="-105.2305749">
  <ele>1586.15</ele>
  <time>2026-08-27T18:25:28Z</time>
  <course>11.03</course>
  <speed>0.022360679774997897</speed>
  <fix>3d</fix>
</trkpt>
<trkpt lat="40.072842" lon="-105.230575">
  <ele>1586.09</ele>
  <time>2026-08-27T18:25:28Z</time>
  <course>266.04</course>
  <speed>0.0</speed>
  <fix>3d</fix>
</trkpt>
<trkpt lat="40.0728419" lon="-105.2305749">
  <ele>1586.15</ele>
  <time>2026-08-27T18:25:28Z</time>
  <course>11.03</course>
  <speed>0.022360679774997897</speed>
  <fix>3d</fix>
</trkpt>
<trkpt lat="40.072842" lon="-105.230575">
  <ele>1586.09</ele>
  <time>2026-08-27T18:25:28Z</time>
  <course>266.04</course>
  <speed>0.0</speed>
  <fix>3d</fix>
</trkpt>
<trkpt lat="40.0728419" lon="-105.2305749">
  <ele>1586.15</ele>
  <time>2026-08-27T18:25:28Z</time>
  <course>11.03</course>
  <speed>0.022360679774997897</speed>
  <fix>3d</fix>
</trkpt>
<trkpt lat="40.072842" lon="-105.230575">
  <ele>1586.09</ele>
  <time>2026-08-27T18:25:28Z</time>
  <course>266.04</course>
  <speed>0.0</speed>
  <fix>3d</fix>
</trkpt>
<trkpt lat="40.0728419" lon="-105.2305749">
  <ele>1586.15</ele>
  <time>2026-08-27T18:25:28Z</time>
  <course>11.03</course>
  <speed>0.022360679774997897</speed>
  <fix>3d</fix>
</trkpt>
<trkpt lat="40.072842" lon="-105.230575">
  <ele>1586.09</ele>
  <time>2026-08-27T18:25:28Z</time>
  <course>266.04</course>
  <speed>0.0</speed>
  <fix>3d</fix>
</trkpt>
<trkpt lat="40.0728419" lon="-105.2305749">
  <ele>1586.14</ele>
  <time>2026-08-27T18:25:28Z</time>
  <course>11.03</course>
  <speed>0.022360679774997897</speed>
  <fix>3d</fix>
</trkpt>
<trkpt lat="40.072842" lon="-105.230575">
  <ele>1586.09</ele>
  <time>2026-08-27T18:25:28Z</time>
  <course>266.04</course>
  <speed>0.0</speed>
  <fix>3d</fix>
</trkpt>
<trkpt lat="40.0728419" lon="-105.2305749">
  <ele>1586.14</ele>
  <time>2026-08-27T18:25:28Z</time>
  <course>11.03</course>
  <speed>0.022360679774997897</speed>
  <fix>3d</fix>
</trkpt>
<trkpt lat="40.072842" lon="-105.230575">
  <ele>1586.09</ele>
  <time>2026-08-27T18:25:28Z</time>
  <course>266.04</course>
  <speed>0.0</speed>
  <fix>3d</fix>
</trkpt>
<trkpt lat="40.0728419" lon="-105.2305749">
  <ele>1586.14</ele>
  <time>2026-08-27T18:25:28Z</time>
  <course>11.03</course>
  <speed>0.022360679774997897</speed>
  <fix>3d</fix>
</trkpt>
<trkpt lat="40.072842" lon="-105.230575">
  <ele>1586.09</ele>
  <time>2026-08-27T18:25:28Z</time>
  <course>266.04</course>
  <speed>0.0</speed>
  <fix>3d</fix>
</trkpt>
<trkpt lat="40.0728419" lon="-105.2305749">
  <ele>1586.14</ele>
  <time>2026-08-27T18:25:28Z</time>
  <course>11.03</course>
  <speed>0.022360679774997897</speed>
  <fix>3d</fix>
</trkpt>
<trkpt lat="40.072842" lon="-105.230575">
  <ele>1586.09</ele>
  <time>2026-08-27T18:25:28Z</time>
  <course>266.04</course>
  <speed>0.0</speed>
  <fix>3d</fix>
</trkpt>
<trkpt lat="40.0728419" lon="-105.2305749">
  <ele>1586.14</ele>
  <time>2026-08-27T18:25:28Z</time>
  <course>11.03</course>
  <speed>0.022360679774997897</speed>
  <fix>3d</fix>
</trkpt>
<trkpt lat="40.072842" lon="-105.230575">
  <ele>1586.09</ele>
  <time>2026-08-27T18:25:28Z</time>
  <course>266.04</course>
  <speed>0.0</speed>
  <fix>3d</fix>
</trkpt>
<trkpt lat="40.0728419" lon="-105.2305749">
  <ele>1586.14</ele>
  <time>2026-08-27T18:25:28Z</time>
  <course>11.03</course>
  <speed>0.022360679774997897</speed>
  <fix>3d</fix>
</trkpt>
<trkpt lat="40.072842" lon="-105.230575">
  <ele>1586.09</ele>
  <time>2026-08-27T18:25:28Z</time>
  <course>266.04</course>
  <speed>0.0</speed>
  <fix>3d</fix>
</trkpt>
<trkpt lat="40.0728419" lon="-105.2305749">
  <ele>1586.13</ele>
  <time>2026-08-27T18:25:28Z</time>
  <course>11.03</course>
  <speed>0.022360679774997897</speed>
  <fix>3d</fix>
</trkpt>
<trkpt lat="40.072842" lon="-105.230575">
  <ele>1586.09</ele>
  <time>2026-08-27T18:25:28Z</time>
  <course>266.04</course>
  <speed>0.0</speed>
  <fix>3d</fix>
</trkpt>
<trkpt lat="40.0728419" lon="-105.2305749">
  <ele>1586.13</ele>
  <time>2026-08-27T18:25:28Z</time>
  <course>11.03</course>
  <speed>0.022360679774997897</speed>
  <fix>3d</fix>
</trkpt>
<trkpt lat="40.072842" lon="-105.230575">
  <ele>1586.09</ele>
  <time>2026-08-27T18:25:28Z</time>
  <course>266.04</course>
  <speed>0.0</speed>
  <fix>3d</fix>
</trkpt>
<trkpt lat="40.0728419" lon="-105.2305749">
  <ele>1586.13</ele>
  <time>2026-08-27T18:25:28Z</time>
  <course>11.03</course>
  <speed>0.022360679774997897</speed>
  <fix>3d</fix>
</trkpt>
<trkpt lat="40.072842" lon="-105.230575">
  <ele>1586.09</ele>
  <time>2026-08-27T18:25:28Z</time>
  <course>266.04</course>
  <speed>0.0</speed>
  <fix>3d</fix>
</trkpt>
<trkpt lat="40.0728419" lon="-105.2305749">
  <ele>1586.13</ele>
  <time>2026-08-27T18:25:28Z</time>
  <course>11.03</course>
  <speed>0.022360679774997897</speed>
  <fix>3d</fix>
</trkpt>
<trkpt lat="40.072842" lon="-105.230575">
  <ele>1586.09</ele>
  <time>2026-08-27T18:25:28Z</time>
  <course>266.04</course>
  <speed>0.0</speed>
  <fix>3d</fix>
</trkpt>
<trkpt lat="40.0728419" lon="-105.2305749">
  <ele>1586.12</ele>
  <time>2026-08-27T18:25:28Z</time>
  <course>11.03</course>
  <speed>0.022360679774997897</speed>
  <fix>3d</fix>
</trkpt>
<trkpt lat="40.072842" lon="-105.230575">
  <ele>1586.09</ele>
  <time>2026-08-27T18:25:28Z</time>
  <course>266.04</course>
  <speed>0.0</speed>
  <fix>3d</fix>
</trkpt>
<trkpt lat="40.0728419" lon="-105.2305749">
  <ele>1586.12</ele>
  <time>2026-08-27T18:25:28Z</time>
  <course>11.03</course>
  <speed>0.022360679774997897</speed>
  <fix>3d</fix>
</trkpt>
<trkpt lat="40.072842" lon="-105.230575">
  <ele>1586.09</ele>
  <time>2026-08-27T18:25:28Z</time>
  <course>266.04</course>
  <speed>0.0</speed>
  <fix>3d</fix>
</trkpt>
<trkpt lat="40.0728419" lon="-105.2305749">
  <ele>1586.12</ele>
  <time>2026-08-27T18:25:28Z</time>
  <course>11.03</course>
  <speed>0.022360679774997897</speed>
  <fix>3d</fix>
</trkpt>
<trkpt lat="40.072842" lon="-105.230575">
  <ele>1586.09</ele>
  <time>2026-08-27T18:25:28Z</time>
  <course>266.04</course>
  <speed>0.0</speed>
  <fix>3d</fix>
</trkpt>
<trkpt lat="40.0728419" lon="-105.2305749">
  <ele>1586.13</ele>
  <time>2026-08-27T18:25:28Z</time>
  <course>11.03</course>
  <speed>0.022360679774997897</speed>
  <fix>3d</fix>
</trkpt>
<trkpt lat="40.072842" lon="-105.230575">
  <ele>1586.09</ele>
  <time>2026-08-27T18:25:28Z</time>
  <course>266.04</course>
  <speed>0.0</speed>
  <fix>3d</fix>
</trkpt>
<trkpt lat="40.0728419" lon="-105.2305749">
  <ele>1586.12</ele>
  <time>2026-08-27T18:25:28Z</time>
  <course>11.03</course>
  <speed>0.022360679774997897</speed>
  <fix>3d</fix>
</trkpt>
<trkpt lat="40.072842" lon="-105.230575">
  <ele>1586.09</ele>
  <time>2026-08-27T18:25:28Z</time>
  <course>266.04</course>
  <speed>0.0</speed>
  <fix>3d</fix>
</trkpt>
<trkpt lat="40.0728419" lon="-105.2305749">
  <ele>1586.13</ele>
  <time>2026-08-27T18:25:28Z</time>
  <course>11.03</course>
  <speed>0.022360679774997897</speed>
  <fix>3d</fix>
</trkpt>
<trkpt lat="40.072842" lon="-105.230575">
  <ele>1586.09</ele>
  <time>2026-08-27T18:25:28Z</time>
  <course>266.04</course>
  <speed>0.0</speed>
  <fix>3d</fix>
</trkpt>
<trkpt lat="40.0728419" lon="-105.2305749">
  <ele>1586.13</ele>
  <time>2026-08-27T18:25:28Z</time>
  <course>11.03</course>
  <speed>0.022360679774997897</speed>
  <fix>3d</fix>
</trkpt>
<trkpt lat="40.072842" lon="-105.230575">
  <ele>1586.09</ele>
  <time>2026-08-27T18:25:28Z</time>
  <course>266.04</course>
  <speed>0.0</speed>
  <fix>3d</fix>
</trkpt>
<trkpt lat="40.0728419" lon="-105.2305749">
  <ele>1586.13</ele>
  <time>2026-08-27T18:25:28Z</time>
  <course>11.03</course>
  <speed>0.022360679774997897</speed>
  <fix>3d</fix>
</trkpt>
<trkpt lat="40.072842" lon="-105.230575">
  <ele>1586.09</ele>
  <time>2026-08-27T18:25:28Z</time>
  <course>266.04</course>
  <speed>0.0</speed>
  <fix>3d</fix>
</trkpt>
<trkpt lat="40.0728419" lon="-105.2305749">
  <ele>1586.13</ele>
  <time>2026-08-27T18:25:28Z</time>
  <course>11.03</course>
  <speed>0.022360679774997897</speed>
  <fix>3d</fix>
</trkpt>
<trkpt lat="40.072842" lon="-105.230575">
  <ele>1586.09</ele>
  <time>2026-08-27T18:25:28Z</time>
  <course>266.04</course>
  <speed>0.0</speed>
  <fix>3d</fix>
</trkpt>
<trkpt lat="40.0728419" lon="-105.2305749">
  <ele>1586.13</ele>
  <time>2026-08-27T18:25:28Z</time>
  <course>11.03</course>
  <speed>0.022360679774997897</speed>
  <fix>3d</fix>
</trkpt>
<trkpt lat="40.072842" lon="-105.230575">
  <ele>1586.09</ele>
  <time>2026-08-27T18:25:28Z</time>
  <course>266.04</course>
  <speed>0.0</speed>
  <fix>3d</fix>
</trkpt>
<trkpt lat="40.0728419" lon="-105.2305749">
  <ele>1586.13</ele>
  <time>2026-08-27T18:25:28Z</time>
  <course>11.03</course>
  <speed>0.022360679774997897</speed>
  <fix>3d</fix>
</trkpt>
<trkpt lat="40.072842" lon="-105.230575">
  <ele>1586.09</ele>
  <time>2026-08-27T18:25:28Z</time>
  <course>266.04</course>
  <speed>0.0</speed>
  <fix>3d</fix>
</trkpt>
<trkpt lat="40.0728419" lon="-105.2305749">
  <ele>1586.13</ele>
  <time>2026-08-27T18:25:28Z</time>
  <course>11.03</course>
  <speed>0.022360679774997897</speed>
  <fix>3d</fix>
</trkpt>
<trkpt lat="40.072842" lon="-105.230575">
  <ele>1586.09</ele>
  <time>2026-08-27T18:25:28Z</time>
  <course>266.04</course>
  <speed>0.0</speed>
  <fix>3d</fix>
</trkpt>
<trkpt lat="40.0728419" lon="-105.2305749">
  <ele>1586.13</ele>
  <time>2026-08-27T18:25:28Z</time>
  <course>11.03</course>
  <speed>0.022360679774997897</speed>
  <fix>3d</fix>
</trkpt>
<trkpt lat="40.072842" lon="-105.230575">
  <ele>1586.09</ele>
  <time>2026-08-27T18:25:28Z</time>
  <course>266.04</course>
  <speed>0.0</speed>
  <fix>3d</fix>
</trkpt>
<trkpt lat="40.0728419" lon="-105.2305749">
  <ele>1586.13</ele>
  <time>2026-08-27T18:25:28Z</time>
  <course>11.03</course>
  <speed>0.022360679774997897</speed>
  <fix>3d</fix>
</trkpt>
<trkpt lat="40.072842" lon="-105.230575">
  <ele>1586.09</ele>
  <time>2026-08-27T18:25:28Z</time>
  <course>266.04</course>
  <speed>0.0</speed>
  <fix>3d</fix>
</trkpt>
<trkpt lat="40.0728419" lon="-105.2305749">
  <ele>1586.13</ele>
  <time>2026-08-27T18:25:28Z</time>
  <course>11.03</course>
  <speed>0.022360679774997897</speed>
  <fix>3d</fix>
</trkpt>
<trkpt lat="40.072842" lon="-105.230575">
  <ele>1586.09</ele>
  <time>2026-08-27T18:25:28Z</time>
  <course>266.04</course>
  <speed>0.0</speed>
  <fix>3d</fix>
</trkpt>
<trkpt lat="40.0728419" lon="-105.2305749">
  <ele>1586.14</ele>
  <time>2026-08-27T18:25:28Z</time>
  <course>11.03</course>
  <speed>0.01414213562373095</speed>
  <fix>3d</fix>
</trkpt>
<trkpt lat="40.072842" lon="-105.230575">
  <ele>1586.09</ele>
  <time>2026-08-27T18:25:28Z</time>
  <course>266.04</course>
  <speed>0.0</speed>
  <fix>3d</fix>
</trkpt>
<trkpt lat="40.0728419" lon="-105.2305749">
  <ele>1586.15</ele>
  <time>2026-08-27T18:25:28Z</time>
  <course>11.03</course>
  <speed>0.01414213562373095</speed>
  <fix>3d</fix>
</trkpt>
<trkpt lat="40.072842" lon="-105.230575">
  <ele>1586.09</ele>
  <time>2026-08-27T18:25:28Z</time>
  <course>266.04</course>
  <speed>0.0</speed>
  <fix>3d</fix>
</trkpt>
<trkpt lat="40.0728419" lon="-105.2305749">
  <ele>1586.15</ele>
  <time>2026-08-27T18:25:28Z</time>
  <course>11.03</course>
  <speed>0.01414213562373095</speed>
  <fix>3d</fix>
</trkpt>
<trkpt lat="40.072842" lon="-105.230575">
  <ele>1586.09</ele>
  <time>2026-08-27T18:25:28Z</time>
  <course>266.04</course>
  <speed>0.0</speed>
  <fix>3d</fix>
</trkpt>
<trkpt lat="40.0728419" lon="-105.2305749">
  <ele>1586.15</ele>
  <time>2026-08-27T18:25:28Z</time>
  <course>11.03</course>
  <speed>0.01414213562373095</speed>
  <fix>3d</fix>
</trkpt>
<trkpt lat="40.072842" lon="-105.230575">
  <ele>1586.09</ele>
  <time>2026-08-27T18:25:28Z</time>
  <course>266.04</course>
  <speed>0.0</speed>
  <fix>3d</fix>
</trkpt>
<trkpt lat="40.0728419" lon="-105.2305749">
  <ele>1586.15</ele>
  <time>2026-08-27T18:25:28Z</time>
  <course>11.03</course>
  <speed>0.022360679774997897</speed>
  <fix>3d</fix>
</trkpt>
<trkpt lat="40.072842" lon="-105.230575">
  <ele>1586.09</ele>
  <time>2026-08-27T18:25:28Z</time>
  <course>266.04</course>
  <speed>0.0</speed>
  <fix>3d</fix>
</trkpt>
<trkpt lat="40.0728419" lon="-105.2305749">
  <ele>1586.15</ele>
  <time>2026-08-27T18:25:28Z</time>
  <course>11.03</course>
  <speed>0.01414213562373095</speed>
  <fix>3d</fix>
</trkpt>
<trkpt lat="40.072842" lon="-105.230575">
  <ele>1586.09</ele>
  <time>2026-08-27T18:25:28Z</time>
  <course>266.04</course>
  <speed>0.0</speed>
  <fix>3d</fix>
</trkpt>
<trkpt lat="40.0728419" lon="-105.2305749">
  <ele>1586.15</ele>
  <time>2026-08-27T18:25:28Z</time>
  <course>11.03</course>
  <speed>0.022360679774997897</speed>
  <fix>3d</fix>
</trkpt>
<trkpt lat="40.072842" lon="-105.230575">
  <ele>1586.09</ele>
  <time>2026-08-27T18:25:28Z</time>
  <course>266.04</course>
  <speed>0.0</speed>
  <fix>3d</fix>
</trkpt>
<trkpt lat="40.0728419" lon="-105.2305749">
  <ele>1586.15</ele>
  <time>2026-08-27T18:25:28Z</time>
  <course>11.03</course>
  <speed>0.022360679774997897</speed>
  <fix>3d</fix>
</trkpt>
<trkpt lat="40.072842" lon="-105.230575">
  <ele>1586.09</ele>
  <time>2026-08-27T18:25:28Z</time>
  <course>266.04</course>
  <speed>0.0</speed>
  <fix>3d</fix>
</trkpt>
<trkpt lat="40.0728419" lon="-105.2305749">
  <ele>1586.16</ele>
  <time>2026-08-27T18:25:28Z</time>
  <course>11.03</course>
  <speed>0.022360679774997897</speed>
  <fix>3d</fix>
</trkpt>
<trkpt lat="40.072842" lon="-105.230575">
  <ele>1586.09</ele>
  <time>2026-08-27T18:25:28Z</time>
  <course>266.04</course>
  <speed>0.0</speed>
  <fix>3d</fix>
</trkpt>
<trkpt lat="40.0728419" lon="-105.2305749">
  <ele>1586.16</ele>
  <time>2026-08-27T18:25:28Z</time>
  <course>11.03</course>
  <speed>0.022360679774997897</speed>
  <fix>3d</fix>
</trkpt>
<trkpt lat="40.072842" lon="-105.230575">
  <ele>1586.09</ele>
  <time>2026-08-27T18:25:28Z</time>
  <course>266.04</course>
  <speed>0.0</speed>
  <fix>3d</fix>
</trkpt>
<trkpt lat="40.0728419" lon="-105.2305749">
  <ele>1586.16</ele>
  <time>2026-08-27T18:25:28Z</time>
  <course>11.03</course>
  <speed>0.022360679774997897</speed>
  <fix>3d</fix>
</trkpt>
<trkpt lat="40.072842" lon="-105.230575">
  <ele>1586.09</ele>
  <time>2026-08-27T18:25:28Z</time>
  <course>266.04</course>
  <speed>0.0</speed>
  <fix>3d</fix>
</trkpt>
<trkpt lat="40.0728419" lon="-105.2305749">
  <ele>1586.16</ele>
  <time>2026-08-27T18:25:28Z</time>
  <course>11.03</course>
  <speed>0.022360679774997897</speed>
  <fix>3d</fix>
</trkpt>
<trkpt lat="40.072842" lon="-105.230575">
  <ele>1586.09</ele>
  <time>2026-08-27T18:25:28Z</time>
  <course>266.04</course>
  <speed>0.0</speed>
  <fix>3d</fix>
</trkpt>
<trkpt lat="40.0728419" lon="-105.2305749">
  <ele>1586.16</ele>
  <time>2026-08-27T18:25:28Z</time>
  <course>11.03</course>
  <speed>0.022360679774997897</speed>
  <fix>3d</fix>
</trkpt>
<trkpt lat="40.072842" lon="-105.230575">
  <ele>1586.09</ele>
  <time>2026-08-27T18:25:28Z</time>
  <course>266.04</course>
  <speed>0.0</speed>
  <fix>3d</fix>
</trkpt>
<trkpt lat="40.0728419" lon="-105.2305749">
  <ele>1586.16</ele>
  <time>2026-08-27T18:25:28Z</time>
  <course>11.03</course>
  <speed>0.022360679774997897</speed>
  <fix>3d</fix>
</trkpt>
<trkpt lat="40.072842" lon="-105.230575">
  <ele>1586.09</ele>
  <time>2026-08-27T18:25:28Z</time>
  <course>266.04</course>
  <speed>0.0</speed>
  <fix>3d</fix>
</trkpt>
<trkpt lat="40.0728419" lon="-105.2305749">
  <ele>1586.16</ele>
  <time>2026-08-27T18:25:28Z</time>
  <course>11.03</course>
  <speed>0.01414213562373095</speed>
  <fix>3d</fix>
</trkpt>
<trkpt lat="40.072842" lon="-105.230575">
  <ele>1586.09</ele>
  <time>2026-08-27T18:25:28Z</time>
  <course>266.04</course>
  <speed>0.0</speed>
  <fix>3d</fix>
</trkpt>
<trkpt lat="40.0728419" lon="-105.2305749">
  <ele>1586.16</ele>
  <time>2026-08-27T18:25:28Z</time>
  <course>11.03</course>
  <speed>0.01414213562373095</speed>
  <fix>3d</fix>
</trkpt>
<trkpt lat="40.072842" lon="-105.230575">
  <ele>1586.09</ele>
  <time>2026-08-27T18:25:28Z</time>
  <course>266.04</course>
  <speed>0.0</speed>
  <fix>3d</fix>
</trkpt>
<trkpt lat="40.0728419" lon="-105.2305749">
  <ele>1586.16</ele>
  <time>2026-08-27T18:25:28Z</time>
  <course>11.03</course>
  <speed>0.01414213562373095</speed>
  <fix>3d</fix>
</trkpt>
<trkpt lat="40.072842" lon="-105.230575">
  <ele>1586.09</ele>
  <time>2026-08-27T18:25:28Z</time>
  <course>266.04</course>
  <speed>0.0</speed>
  <fix>3d</fix>
</trkpt>
<trkpt lat="40.0728419" lon="-105.2305749">
  <ele>1586.17</ele>
  <time>2026-08-27T18:25:28Z</time>
  <course>11.03</course>
  <speed>0.01414213562373095</speed>
  <fix>3d</fix>
</trkpt>
<trkpt lat="40.072842" lon="-105.230575">
  <ele>1586.09</ele>
  <time>2026-08-27T18:25:28Z</time>
  <course>266.04</course>
  <speed>0.0</speed>
  <fix>3d</fix>
</trkpt>
<trkpt lat="40.0728419" lon="-105.2305749">
  <ele>1586.17</ele>
  <time>2026-08-27T18:25:28Z</time>
  <course>11.03</course>
  <speed>0.01414213562373095</speed>
  <fix>3d</fix>
</trkpt>
<trkpt lat="40.072842" lon="-105.230575">
  <ele>1586.09</ele>
  <time>2026-08-27T18:25:28Z</time>
  <course>266.04</course>
  <speed>0.0</speed>
  <fix>3d</fix>
</trkpt>
<trkpt lat="40.0728419" lon="-105.2305749">
  <ele>1586.17</ele>
  <time>2026-08-27T18:25:28Z</time>
  <course>11.03</course>
  <speed>0.01414213562373095</speed>
  <fix>3d</fix>
</trkpt>
<trkpt lat="40.072842" lon="-105.230575">
  <ele>1586.09</ele>
  <time>2026-08-27T18:25:28Z</time>
  <course>266.04</course>
  <speed>0.0</speed>
  <fix>3d</fix>
</trkpt>
<trkpt lat="40.0728419" lon="-105.2305749">
  <ele>1586.16</ele>
  <time>2026-08-27T18:25:28Z</time>
  <course>11.03</course>
  <speed>0.01414213562373095</speed>
  <fix>3d</fix>
</trkpt>
<trkpt lat="40.072842" lon="-105.230575">
  <ele>1586.09</ele>
  <time>2026-08-27T18:25:28Z</time>
  <course>266.04</course>
  <speed>0.0</speed>
  <fix>3d</fix>
</trkpt>
<trkpt lat="40.0728419" lon="-105.2305749">
  <ele>1586.16</ele>
  <time>2026-08-27T18:25:28Z</time>
  <course>11.03</course>
  <speed>0.01414213562373095</speed>
  <fix>3d</fix>
</trkpt>
<trkpt lat="40.072842" lon="-105.230575">
  <ele>1586.09</ele>
  <time>2026-08-27T18:25:28Z</time>
  <course>266.04</course>
  <speed>0.0</speed>
  <fix>3d</fix>
</trkpt>
<trkpt lat="40.0728419" lon="-105.2305749">
  <ele>1586.17</ele>
  <time>2026-08-27T18:25:28Z</time>
  <course>11.03</course>
  <speed>0.01414213562373095</speed>
  <fix>3d</fix>
</trkpt>
<trkpt lat="40.072842" lon="-105.230575">
  <ele>1586.09</ele>
  <time>2026-08-27T18:25:28Z</time>
  <course>266.04</course>
  <speed>0.0</speed>
  <fix>3d</fix>
</trkpt>
<trkpt lat="40.0728419" lon="-105.2305749">
  <ele>1586.17</ele>
  <time>2026-08-27T18:25:28Z</time>
  <course>11.03</course>
  <speed>0.01414213562373095</speed>
  <fix>3d</fix>
</trkpt>
<trkpt lat="40.072842" lon="-105.230575">
  <ele>1586.09</ele>
  <time>2026-08-27T18:25:28Z</time>
  <course>266.04</course>
  <speed>0.0</speed>
  <fix>3d</fix>
</trkpt>
<trkpt lat="40.0728419" lon="-105.2305749">
  <ele>1586.17</ele>
  <time>2026-08-27T18:25:28Z</time>
  <course>11.03</course>
  <speed>0.01414213562373095</speed>
  <fix>3d</fix>
</trkpt>
<trkpt lat="40.072842" lon="-105.230575">
  <ele>1586.09</ele>
  <time>2026-08-27T18:25:28Z</time>
  <course>266.04</course>
  <speed>0.0</speed>
  <fix>3d</fix>
</trkpt>
<trkpt lat="40.0728419" lon="-105.2305749">
  <ele>1586.17</ele>
  <time>2026-08-27T18:25:28Z</time>
  <course>11.03</course>
  <speed>0.01414213562373095</speed>
  <fix>3d</fix>
</trkpt>
<trkpt lat="40.072842" lon="-105.230575">
  <ele>1586.09</ele>
  <time>2026-08-27T18:25:28Z</time>
  <course>266.04</course>
  <speed>0.0</speed>
  <fix>3d</fix>
</trkpt>
<trkpt lat="40.0728419" lon="-105.2305749">
  <ele>1586.17</ele>
  <time>2026-08-27T18:25:28Z</time>
  <course>11.03</course>
  <speed>0.01414213562373095</speed>
  <fix>3d</fix>
</trkpt>
<trkpt lat="40.072842" lon="-105.230575">
  <ele>1586.09</ele>
  <time>2026-08-27T18:25:28Z</time>
  <course>266.04</course>
  <speed>0.0</speed>
  <fix>3d</fix>
</trkpt>
<trkpt lat="40.0728419" lon="-105.2305749">
  <ele>1586.18</ele>
  <time>2026-08-27T18:25:28Z</time>
  <course>11.03</course>
  <speed>0.01414213562373095</speed>
  <fix>3d</fix>
</trkpt>
<trkpt lat="40.072842" lon="-105.230575">
  <ele>1586.09</ele>
  <time>2026-08-27T18:25:28Z</time>
  <course>266.04</course>
  <speed>0.0</speed>
  <fix>3d</fix>
</trkpt>
<trkpt lat="40.0728419" lon="-105.2305749">
  <ele>1586.18</ele>
  <time>2026-08-27T18:25:28Z</time>
  <course>11.03</course>
  <speed>0.01414213562373095</speed>
  <fix>3d</fix>
</trkpt>
<trkpt lat="40.072842" lon="-105.230575">
  <ele>1586.09</ele>
  <time>2026-08-27T18:25:28Z</time>
  <course>266.04</course>
  <speed>0.0</speed>
  <fix>3d</fix>
</trkpt>
<trkpt lat="40.0728419" lon="-105.2305749">
  <ele>1586.18</ele>
  <time>2026-08-27T18:25:28Z</time>
  <course>11.03</course>
  <speed>0.01414213562373095</speed>
  <fix>3d</fix>
</trkpt>
<trkpt lat="40.072842" lon="-105.230575">
  <ele>1586.09</ele>
  <time>2026-08-27T18:25:28Z</time>
  <course>266.04</course>
  <speed>0.0</speed>
  <fix>3d</fix>
</trkpt>
<trkpt lat="40.0728419" lon="-105.2305749">
  <ele>1586.18</ele>
  <time>2026-08-27T18:25:28Z</time>
  <course>11.03</course>
  <speed>0.01414213562373095</speed>
  <fix>3d</fix>
</trkpt>
<trkpt lat="40.072842" lon="-105.230575">
  <ele>1586.09</ele>
  <time>2026-08-27T18:25:28Z</time>
  <course>266.04</course>
  <speed>0.0</speed>
  <fix>3d</fix>
</trkpt>
<trkpt lat="40.0728419" lon="-105.2305749">
  <ele>1586.18</ele>
  <time>2026-08-27T18:25:28Z</time>
  <course>11.03</course>
  <speed>0.01414213562373095</speed>
  <fix>3d</fix>
</trkpt>
<trkpt lat="40.072842" lon="-105.230575">
  <ele>1586.09</ele>
  <time>2026-08-27T18:25:28Z</time>
  <course>266.04</course>
  <speed>0.0</speed>
  <fix>3d</fix>
</trkpt>
<trkpt lat="40.0728419" lon="-105.2305749">
  <ele>1586.18</ele>
  <time>2026-08-27T18:25:28Z</time>
  <course>11.03</course>
  <speed>0.01414213562373095</speed>
  <fix>3d</fix>
</trkpt>
<trkpt lat="40.072842" lon="-105.230575">
  <ele>1586.09</ele>
  <time>2026-08-27T18:25:28Z</time>
  <course>266.04</course>
  <speed>0.0</speed>
  <fix>3d</fix>
</trkpt>
<trkpt lat="40.0728419" lon="-105.2305749">
  <ele>1586.18</ele>
  <time>2026-08-27T18:25:28Z</time>
  <course>11.03</course>
  <speed>0.01414213562373095</speed>
  <fix>3d</fix>
</trkpt>
<trkpt lat="40.072842" lon="-105.230575">
  <ele>1586.09</ele>
  <time>2026-08-27T18:25:28Z</time>
  <course>266.04</course>
  <speed>0.0</speed>
  <fix>3d</fix>
</trkpt>
<trkpt lat="40.0728419" lon="-105.2305749">
  <ele>1586.18</ele>
  <time>2026-08-27T18:25:28Z</time>
  <course>11.03</course>
  <speed>0.01414213562373095</speed>
  <fix>3d</fix>
</trkpt>
<trkpt lat="40.072842" lon="-105.230575">
  <ele>1586.09</ele>
  <time>2026-08-27T18:25:28Z</time>
  <course>266.04</course>
  <speed>0.0</speed>
  <fix>3d</fix>
</trkpt>
<trkpt lat="40.0728419" lon="-105.2305749">
  <ele>1586.17</ele>
  <time>2026-08-27T18:25:28Z</time>
  <course>11.03</course>
  <speed>0.01414213562373095</speed>
  <fix>3d</fix>
</trkpt>
<trkpt lat="40.072842" lon="-105.230575">
  <ele>1586.09</ele>
  <time>2026-08-27T18:25:28Z</time>
  <course>266.04</course>
  <speed>0.0</speed>
  <fix>3d</fix>
</trkpt>
<trkpt lat="40.0728419" lon="-105.2305749">
  <ele>1586.17</ele>
  <time>2026-08-27T18:25:28Z</time>
  <course>11.03</course>
  <speed>0.01414213562373095</speed>
  <fix>3d</fix>
</trkpt>
<trkpt lat="40.072842" lon="-105.230575">
  <ele>1586.09</ele>
  <time>2026-08-27T18:25:28Z</time>
  <course>266.04</course>
  <speed>0.0</speed>
  <fix>3d</fix>
</trkpt>
<trkpt lat="40.0728419" lon="-105.2305749">
  <ele>1586.17</ele>
  <time>2026-08-27T18:25:28Z</time>
  <course>11.03</course>
  <speed>0.01414213562373095</speed>
  <fix>3d</fix>
</trkpt>
<trkpt lat="40.072842" lon="-105.230575">
  <ele>1586.09</ele>
  <time>2026-08-27T18:25:28Z</time>
  <course>266.04</course>
  <speed>0.0</speed>
  <fix>3d</fix>
</trkpt>
<trkpt lat="40.0728419" lon="-105.2305749">
  <ele>1586.16</ele>
  <time>2026-08-27T18:25:28Z</time>
  <course>11.03</course>
  <speed>0.01414213562373095</speed>
  <fix>3d</fix>
</trkpt>
<trkpt lat="40.072842" lon="-105.230575">
  <ele>1586.09</ele>
  <time>2026-08-27T18:25:28Z</time>
  <course>266.04</course>
  <speed>0.0</speed>
  <fix>3d</fix>
</trkpt>
<trkpt lat="40.0728419" lon="-105.2305749">
  <ele>1586.16</ele>
  <time>2026-08-27T18:25:28Z</time>
  <course>11.03</course>
  <speed>0.01414213562373095</speed>
  <fix>3d</fix>
</trkpt>
<trkpt lat="40.072842" lon="-105.230575">
  <ele>1586.09</ele>
  <time>2026-08-27T18:25:28Z</time>
  <course>266.04</course>
  <speed>0.0</speed>
  <fix>3d</fix>
</trkpt>
<trkpt lat="40.0728419" lon="-105.2305749">
  <ele>1586.16</ele>
  <time>2026-08-27T18:25:28Z</time>
  <course>11.03</course>
  <speed>0.01414213562373095</speed>
  <fix>3d</fix>
</trkpt>
<trkpt lat="40.072842" lon="-105.230575">
  <ele>1586.09</ele>
  <time>2026-08-27T18:25:28Z</time>
  <course>266.04</course>
  <speed>0.0</speed>
  <fix>3d</fix>
</trkpt>
<trkpt lat="40.0728419" lon="-105.2305749">
  <ele>1586.16</ele>
  <time>2026-08-27T18:25:28Z</time>
  <course>11.03</course>
  <speed>0.01414213562373095</speed>
  <fix>3d</fix>
</trkpt>
<trkpt lat="40.072842" lon="-105.230575">
  <ele>1586.09</ele>
  <time>2026-08-27T18:25:28Z</time>
  <course>266.04</course>
  <speed>0.0</speed>
  <fix>3d</fix>
</trkpt>
<trkpt lat="40.0728419" lon="-105.2305749">
  <ele>1586.16</ele>
  <time>2026-08-27T18:25:28Z</time>
  <course>11.03</course>
  <speed>0.022360679774997897</speed>
  <fix>3d</fix>
</trkpt>
<trkpt lat="40.072842" lon="-105.230575">
  <ele>1586.09</ele>
  <time>2026-08-27T18:25:28Z</time>
  <course>266.04</course>
  <speed>0.0</speed>
  <fix>3d</fix>
</trkpt>
<trkpt lat="39.654938" lon="-104.1331666">
  <ele>1569.54</ele>
  <time>2026-08-27T18:25:29Z</time>
  <course>168.11</course>
  <speed>0.0</speed>
  <fix>3d</fix>
</trkpt>
<trkpt lat="40.072842" lon="-105.230575">
  <ele>1586.09</ele>
  <time>2026-08-27T18:25:29Z</time>
  <course>2.03</course>
  <speed>0.0</speed>
  <fix>3d</fix>
</trkpt>
<trkpt lat="40.072842" lon="-105.230575">
  <ele>1586.09</ele>
  <time>2026-08-27T18:25:29Z</time>
  <course>238.4</course>
  <speed>0.0</speed>
  <fix>3d</fix>
</trkpt>
<trkpt lat="40.072842" lon="-105.230575">
  <ele>1586.09</ele>
  <time>2026-08-27T18:25:29Z</time>
  <course>4.46</course>
  <speed>0.0</speed>
  <fix>3d</fix>
</trkpt>
<trkpt lat="40.072842" lon="-105.230575">
  <ele>1586.09</ele>
  <time>2026-08-27T18:25:29Z</time>
  <course>110.94</course>
  <speed>0.0</speed>
  <fix>3d</fix>
</trkpt>
<trkpt lat="40.072842" lon="-105.230575">
  <ele>1586.09</ele>
  <time>2026-08-27T18:25:29Z</time>
  <course>5.04</course>
  <speed>0.0</speed>
  <fix>3d</fix>
</trkpt>
<trkpt lat="40.072842" lon="-105.230575">
  <ele>1586.09</ele>
  <time>2026-08-27T18:25:29Z</time>
  <course>191.21</course>
  <speed>0.0</speed>
  <fix>3d</fix>
</trkpt>
<trkpt lat="40.072842" lon="-105.230575">
  <ele>1586.09</ele>
  <time>2026-08-27T18:25:29Z</time>
  <course>5.6</course>
  <speed>0.0</speed>
  <fix>3d</fix>
</trkpt>
<trkpt lat="40.072842" lon="-105.230575">
  <ele>1586.09</ele>
  <time>2026-08-27T18:25:29Z</time>
  <course>252.23</course>
  <speed>0.0</speed>
  <fix>3d</fix>
</trkpt>
<trkpt lat="40.072842" lon="-105.230575">
  <ele>1586.09</ele>
  <time>2026-08-27T18:25:29Z</time>
  <course>6.13</course>
  <speed>0.0</speed>
  <fix>3d</fix>
</trkpt>
<trkpt lat="40.072842" lon="-105.230575">
  <ele>1586.09</ele>
  <time>2026-08-27T18:25:29Z</time>
  <course>170.36</course>
  <speed>0.0</speed>
  <fix>3d</fix>
</trkpt>
<trkpt lat="40.072842" lon="-105.230575">
  <ele>1586.09</ele>
  <time>2026-08-27T18:25:29Z</time>
  <course>6.63</course>
  <speed>0.0</speed>
  <fix>3d</fix>
</trkpt>
<trkpt lat="40.072842" lon="-105.230575">
  <ele>1586.09</ele>
  <time>2026-08-27T18:25:29Z</time>
  <course>179.36</course>
  <speed>0.0</speed>
  <fix>3d</fix>
</trkpt>
<trkpt lat="40.072842" lon="-105.230575">
  <ele>1586.09</ele>
  <time>2026-08-27T18:25:29Z</time>
  <course>7.09</course>
  <speed>0.0</speed>
  <fix>3d</fix>
</trkpt>
<trkpt lat="40.072842" lon="-105.230575">
  <ele>1586.09</ele>
  <time>2026-08-27T18:25:29Z</time>
  <course>19.98</course>
  <speed>0.0</speed>
  <fix>3d</fix>
</trkpt>
<trkpt lat="40.072842" lon="-105.230575">
  <ele>1586.09</ele>
  <time>2026-08-27T18:25:29Z</time>
  <course>7.52</course>
  <speed>0.0</speed>
  <fix>3d</fix>
</trkpt>
<trkpt lat="40.072842" lon="-105.230575">
  <ele>1586.09</ele>
  <time>2026-08-27T18:25:29Z</time>
  <course>17.49</course>
  <speed>0.0</speed>
  <fix>3d</fix>
</trkpt>
<trkpt lat="40.072842" lon="-105.230575">
  <ele>1586.09</ele>
  <time>2026-08-27T18:25:29Z</time>
  <course>7.91</course>
  <speed>0.0</speed>
  <fix>3d</fix>
</trkpt>
<trkpt lat="40.072842" lon="-105.230575">
  <ele>1586.09</ele>
  <time>2026-08-27T18:25:29Z</time>
  <course>356.19</course>
  <speed>0.0</speed>
  <fix>3d</fix>
</trkpt>
<trkpt lat="40.072842" lon="-105.230575">
  <ele>1586.09</ele>
  <time>2026-08-27T18:25:29Z</time>
  <course>8.28</course>
  <speed>0.0</speed>
  <fix>3d</fix>
</trkpt>
<trkpt lat="40.072842" lon="-105.230575">
  <ele>1586.09</ele>
  <time>2026-08-27T18:25:29Z</time>
  <course>77.32</course>
  <speed>0.0</speed>
  <fix>3d</fix>
</trkpt>
<trkpt lat="40.072842" lon="-105.230575">
  <ele>1586.09</ele>
  <time>2026-08-27T18:25:29Z</time>
  <course>8.62</course>
  <speed>0.0</speed>
  <fix>3d</fix>
</trkpt>
<trkpt lat="40.072842" lon="-105.230575">
  <ele>1586.09</ele>
  <time>2026-08-27T18:25:29Z</time>
  <course>290.54</course>
  <speed>0.0</speed>
  <fix>3d</fix>
</trkpt>
<trkpt lat="40.072842" lon="-105.230575">
  <ele>1586.09</ele>
  <time>2026-08-27T18:25:29Z</time>
  <course>8.93</course>
  <speed>0.0</speed>
  <fix>3d</fix>
</trkpt>
<trkpt lat="40.072842" lon="-105.230575">
  <ele>1586.09</ele>
  <time>2026-08-27T18:25:29Z</time>
  <course>338.69</course>
  <speed>0.0</speed>
  <fix>3d</fix>
</trkpt>
<trkpt lat="40.072842" lon="-105.230575">
  <ele>1586.09</ele>
  <time>2026-08-27T18:25:29Z</time>
  <course>9.22</course>
  <speed>0.0</speed>
  <fix>3d</fix>
</trkpt>
<trkpt lat="40.072842" lon="-105.230575">
  <ele>1586.09</ele>
  <time>2026-08-27T18:25:29Z</time>
  <course>326.81</course>
  <speed>0.0</speed>
  <fix>3d</fix>
</trkpt>
<trkpt lat="40.072842" lon="-105.230575">
  <ele>1586.09</ele>
  <time>2026-08-27T18:25:29Z</time>
  <course>9.48</course>
  <speed>0.0</speed>
  <fix>3d</fix>
</trkpt>
<trkpt lat="40.072842" lon="-105.230575">
  <ele>1586.09</ele>
  <time>2026-08-27T18:25:29Z</time>
  <course>262.23</course>
  <speed>0.0</speed>
  <fix>3d</fix>
</trkpt>
<trkpt lat="40.072842" lon="-105.230575">
  <ele>1586.09</ele>
  <time>2026-08-27T18:25:29Z</time>
  <course>9.72</course>
  <speed>0.0</speed>
  <fix>3d</fix>
</trkpt>
<trkpt lat="40.072842" lon="-105.230575">
  <ele>1586.09</ele>
  <time>2026-08-27T18:25:29Z</time>
  <course>159.08</course>
  <speed>0.0</speed>
  <fix>3d</fix>
</trkpt>
<trkpt lat="40.072842" lon="-105.230575">
  <ele>1586.09</ele>
  <time>2026-08-27T18:25:29Z</time>
  <course>9.95</course>
  <speed>0.0</speed>
  <fix>3d</fix>
</trkpt>
<trkpt lat="40.072842" lon="-105.230575">
  <ele>1586.09</ele>
  <time>2026-08-27T18:25:29Z</time>
  <course>287.98</course>
  <speed>0.0</speed>
  <fix>3d</fix>
</trkpt>
<trkpt lat="40.072842" lon="-105.230575">
  <ele>1586.09</ele>
  <time>2026-08-27T18:25:29Z</time>
  <course>10.15</course>
  <speed>0.0</speed>
  <fix>3d</fix>
</trkpt>
<trkpt lat="40.072842" lon="-105.230575">
  <ele>1586.09</ele>
  <time>2026-08-27T18:25:29Z</time>
  <course>278.3</course>
  <speed>0.0</speed>
  <fix>3d</fix>
</trkpt>
<trkpt lat="40.072842" lon="-105.230575">
  <ele>1586.09</ele>
  <time>2026-08-27T18:25:29Z</time>
  <course>10.34</course>
  <speed>0.0</speed>
  <fix>3d</fix>
</trkpt>
<trkpt lat="40.072842" lon="-105.230575">
  <ele>1586.09</ele>
  <time>2026-08-27T18:25:29Z</time>
  <course>261.72</course>
  <speed>0.0</speed>
  <fix>3d</fix>
</trkpt>
<trkpt lat="40.072842" lon="-105.230575">
  <ele>1586.09</ele>
  <time>2026-08-27T18:25:29Z</time>
  <course>10.51</course>
  <speed>0.0</speed>
  <fix>3d</fix>
</trkpt>
<trkpt lat="40.072842" lon="-105.230575">
  <ele>1586.09</ele>
  <time>2026-08-27T18:25:29Z</time>
  <course>264.4</course>
  <speed>0.0</speed>
  <fix>3d</fix>
</trkpt>
<trkpt lat="40.072842" lon="-105.230575">
  <ele>1586.09</ele>
  <time>2026-08-27T18:25:29Z</time>
  <course>10.67</course>
  <speed>0.0</speed>
  <fix>3d</fix>
</trkpt>
<trkpt lat="40.072842" lon="-105.230575">
  <ele>1586.09</ele>
  <time>2026-08-27T18:25:29Z</time>
  <course>266.8</course>
  <speed>0.0</speed>
  <fix>3d</fix>
</trkpt>
<trkpt lat="39.654938" lon="-104.1331666">
  <ele>1569.54</ele>
  <time>2026-08-27T18:25:30Z</time>
  <course>167.12</course>
  <speed>0.0</speed>
  <fix>3d</fix>
</trkpt>
<trkpt lat="39.654938" lon="-104.1331666">
  <ele>1569.54</ele>
  <time>2026-08-27T18:25:31Z</time>
  <course>168.11</course>
  <speed>0.0</speed>
  <fix>3d</fix>
</trkpt>
<trkpt lat="40.072842" lon="-105.230575">
  <ele>1586.09</ele>
  <time>2026-08-27T18:25:31Z</time>
  <course>2.03</course>
  <speed>0.0</speed>
  <fix>3d</fix>
</trkpt>
<trkpt lat="40.072842" lon="-105.230575">
  <ele>1586.09</ele>
  <time>2026-08-27T18:25:31Z</time>
  <course>238.4</course>
  <speed>0.0</speed>
  <fix>3d</fix>
</trkpt>
<trkpt lat="40.072842" lon="-105.230575">
  <ele>1586.09</ele>
  <time>2026-08-27T18:25:31Z</time>
  <course>2.41</course>
  <speed>0.0</speed>
  <fix>3d</fix>
</trkpt>
<trkpt lat="40.072842" lon="-105.230575">
  <ele>1586.09</ele>
  <time>2026-08-27T18:25:31Z</time>
  <course>194.29</course>
  <speed>0.0</speed>
  <fix>3d</fix>
</trkpt>
<trkpt lat="40.072842" lon="-105.230575">
  <ele>1586.09</ele>
  <time>2026-08-27T18:25:31Z</time>
  <course>3.14</course>
  <speed>0.0</speed>
  <fix>3d</fix>
</trkpt>
<trkpt lat="40.072842" lon="-105.230575">
  <ele>1586.09</ele>
  <time>2026-08-27T18:25:31Z</time>
  <course>193.66</course>
  <speed>0.0</speed>
  <fix>3d</fix>
</trkpt>
<trkpt lat="40.072842" lon="-105.230575">
  <ele>1586.09</ele>
  <time>2026-08-27T18:25:31Z</time>
  <course>3.83</course>
  <speed>0.0</speed>
  <fix>3d</fix>
</trkpt>
<trkpt lat="40.072842" lon="-105.230575">
  <ele>1586.09</ele>
  <time>2026-08-27T18:25:31Z</time>
  <course>303.54</course>
  <speed>0.0</speed>
  <fix>3d</fix>
</trkpt>
<trkpt lat="40.072842" lon="-105.230575">
  <ele>1586.09</ele>
  <time>2026-08-27T18:25:31Z</time>
  <course>4.46</course>
  <speed>0.0</speed>
  <fix>3d</fix>
</trkpt>
<trkpt lat="40.072842" lon="-105.230575">
  <ele>1586.09</ele>
  <time>2026-08-27T18:25:31Z</time>
  <course>110.94</course>
  <speed>0.0</speed>
  <fix>3d</fix>
</trkpt>
<trkpt lat="40.072842" lon="-105.230575">
  <ele>1586.09</ele>
  <time>2026-08-27T18:25:31Z</time>
  <course>5.04</course>
  <speed>0.0</speed>
  <fix>3d</fix>
</trkpt>
<trkpt lat="40.072842" lon="-105.230575">
  <ele>1586.09</ele>
  <time>2026-08-27T18:25:31Z</time>
  <course>191.21</course>
  <speed>0.0</speed>
  <fix>3d</fix>
</trkpt>
<trkpt lat="40.072842" lon="-105.230575">
  <ele>1586.09</ele>
  <time>2026-08-27T18:25:31Z</time>
  <course>5.6</course>
  <speed>0.0</speed>
  <fix>3d</fix>
</trkpt>
<trkpt lat="40.072842" lon="-105.230575">
  <ele>1586.09</ele>
  <time>2026-08-27T18:25:31Z</time>
  <course>252.23</course>
  <speed>0.0</speed>
  <fix>3d</fix>
</trkpt>
<trkpt lat="40.072842" lon="-105.230575">
  <ele>1586.09</ele>
  <time>2026-08-27T18:25:31Z</time>
  <course>6.13</course>
  <speed>0.0</speed>
  <fix>3d</fix>
</trkpt>
<trkpt lat="40.072842" lon="-105.230575">
  <ele>1586.09</ele>
  <time>2026-08-27T18:25:31Z</time>
  <course>170.36</course>
  <speed>0.0</speed>
  <fix>3d</fix>
</trkpt>
<trkpt lat="40.072842" lon="-105.230575">
  <ele>1586.09</ele>
  <time>2026-08-27T18:25:31Z</time>
  <course>6.63</course>
  <speed>0.0</speed>
  <fix>3d</fix>
</trkpt>
<trkpt lat="40.072842" lon="-105.230575">
  <ele>1586.09</ele>
  <time>2026-08-27T18:25:31Z</time>
  <course>179.36</course>
  <speed>0.0</speed>
  <fix>3d</fix>
</trkpt>
<trkpt lat="40.072842" lon="-105.230575">
  <ele>1586.09</ele>
  <time>2026-08-27T18:25:31Z</time>
  <course>7.09</course>
  <speed>0.0</speed>
  <fix>3d</fix>
</trkpt>
<trkpt lat="40.072842" lon="-105.230575">
  <ele>1586.09</ele>
  <time>2026-08-27T18:25:31Z</time>
  <course>19.98</course>
  <speed>0.0</speed>
  <fix>3d</fix>
</trkpt>
<trkpt lat="40.072842" lon="-105.230575">
  <ele>1586.09</ele>
  <time>2026-08-27T18:25:31Z</time>
  <course>7.52</course>
  <speed>0.0</speed>
  <fix>3d</fix>
</trkpt>
<trkpt lat="40.072842" lon="-105.230575">
  <ele>1586.09</ele>
  <time>2026-08-27T18:25:31Z</time>
  <course>17.49</course>
  <speed>0.0</speed>
  <fix>3d</fix>
</trkpt>
<trkpt lat="40.072842" lon="-105.230575">
  <ele>1586.09</ele>
  <time>2026-08-27T18:25:31Z</time>
  <course>7.91</course>
  <speed>0.0</speed>
  <fix>3d</fix>
</trkpt>
<trkpt lat="40.072842" lon="-105.230575">
  <ele>1586.09</ele>
  <time>2026-08-27T18:25:31Z</time>
  <course>356.19</course>
  <speed>0.0</speed>
  <fix>3d</fix>
</trkpt>
<trkpt lat="40.072842" lon="-105.230575">
  <ele>1586.09</ele>
  <time>2026-08-27T18:25:31Z</time>
  <course>8.28</course>
  <speed>0.0</speed>
  <fix>3d</fix>
</trkpt>
<trkpt lat="40.072842" lon="-105.230575">
  <ele>1586.09</ele>
  <time>2026-08-27T18:25:31Z</time>
  <course>77.32</course>
  <speed>0.0</speed>
  <fix>3d</fix>
</trkpt>
<trkpt lat="40.072842" lon="-105.230575">
  <ele>1586.09</ele>
  <time>2026-08-27T18:25:31Z</time>
  <course>8.62</course>
  <speed>0.0</speed>
  <fix>3d</fix>
</trkpt>
<trkpt lat="40.072842" lon="-105.230575">
  <ele>1586.09</ele>
  <time>2026-08-27T18:25:31Z</time>
  <course>290.54</course>
  <speed>0.0</speed>
  <fix>3d</fix>
</trkpt>
<trkpt lat="40.072842" lon="-105.230575">
  <ele>1586.09</ele>
  <time>2026-08-27T18:25:31Z</time>
  <course>8.93</course>
  <speed>0.0</speed>
  <fix>3d</fix>
</trkpt>
<trkpt lat="40.072842" lon="-105.230575">
  <ele>1586.09</ele>
  <time>2026-08-27T18:25:31Z</time>
  <course>338.69</course>
  <speed>0.0</speed>
  <fix>3d</fix>
</trkpt>
<trkpt lat="40.072842" lon="-105.230575">
  <ele>1586.09</ele>
  <time>2026-08-27T18:25:31Z</time>
  <course>9.22</course>
  <speed>0.0</speed>
  <fix>3d</fix>
</trkpt>
<trkpt lat="40.072842" lon="-105.230575">
  <ele>1586.09</ele>
  <time>2026-08-27T18:25:31Z</time>
  <course>326.81</course>
  <speed>0.0</speed>
  <fix>3d</fix>
</trkpt>
<trkpt lat="40.072842" lon="-105.230575">
  <ele>1586.09</ele>
  <time>2026-08-27T18:25:31Z</time>
  <course>9.48</course>
  <speed>0.0</speed>
  <fix>3d</fix>
</trkpt>
<trkpt lat="40.072842" lon="-105.230575">
  <ele>1586.09</ele>
  <time>2026-08-27T18:25:31Z</time>
  <course>262.23</course>
  <speed>0.0</speed>
  <fix>3d</fix>
</trkpt>
<trkpt lat="40.072842" lon="-105.230575">
  <ele>1586.09</ele>
  <time>2026-08-27T18:25:31Z</time>
  <course>9.72</course>
  <speed>0.0</speed>
  <fix>3d</fix>
</trkpt>
<trkpt lat="40.072842" lon="-105.230575">
  <ele>1586.09</ele>
  <time>2026-08-27T18:25:31Z</time>
  <course>159.08</course>
  <speed>0.0</speed>
  <fix>3d</fix>
</trkpt>
<trkpt lat="40.072842" lon="-105.230575">
  <ele>1586.09</ele>
  <time>2026-08-27T18:25:31Z</time>
  <course>9.95</course>
  <speed>0.0</speed>
  <fix>3d</fix>
</trkpt>
<trkpt lat="40.072842" lon="-105.230575">
  <ele>1586.09</ele>
  <time>2026-08-27T18:25:31Z</time>
  <course>287.98</course>
  <speed>0.0</speed>
  <fix>3d</fix>
</trkpt>
<trkpt lat="40.072842" lon="-105.230575">
  <ele>1586.09</ele>
  <time>2026-08-27T18:25:31Z</time>
  <course>10.15</course>
  <speed>0.0</speed>
  <fix>3d</fix>
</trkpt>
<trkpt lat="40.072842" lon="-105.230575">
  <ele>1586.09</ele>
  <time>2026-08-27T18:25:31Z</time>
  <course>278.3</course>
  <speed>0.0</speed>
  <fix>3d</fix>
</trkpt>
<trkpt lat="40.072842" lon="-105.230575">
  <ele>1586.09</ele>
  <time>2026-08-27T18:25:31Z</time>
  <course>10.34</course>
  <speed>0.0</speed>
  <fix>3d</fix>
</trkpt>
<trkpt lat="40.072842" lon="-105.230575">
  <ele>1586.09</ele>
  <time>2026-08-27T18:25:31Z</time>
  <course>261.72</course>
  <speed>0.0</speed>
  <fix>3d</fix>
</trkpt>
<trkpt lat="40.072842" lon="-105.230575">
  <ele>1586.09</ele>
  <time>2026-08-27T18:25:31Z</time>
  <course>10.51</course>
  <speed>0.0</speed>
  <fix>3d</fix>
</trkpt>
<trkpt lat="40.072842" lon="-105.230575">
  <ele>1586.09</ele>
  <time>2026-08-27T18:25:31Z</time>
  <course>264.4</course>
  <speed>0.0</speed>
  <fix>3d</fix>
</trkpt>
<trkpt lat="40.072842" lon="-105.230575">
  <ele>1586.09</ele>
  <time>2026-08-27T18:25:31Z</time>
  <course>10.67</course>
  <speed>0.0</speed>
  <fix>3d</fix>
</trkpt>
<trkpt lat="40.072842" lon="-105.230575">
  <ele>1586.09</ele>
  <time>2026-08-27T18:25:31Z</time>
  <course>266.8</course>
  <speed>0.0</speed>
  <fix>3d</fix>
</trkpt>
<trkpt lat="40.072842" lon="-105.230575">
  <ele>1586.09</ele>
  <time>2026-08-27T18:25:31Z</time>
  <course>10.81</course>
  <speed>0.0</speed>
  <fix>3d</fix>
</trkpt>
<trkpt lat="40.072842" lon="-105.230575">
  <ele>1586.09</ele>
  <time>2026-08-27T18:25:31Z</time>
  <course>266.15</course>
  <speed>0.0</speed>
  <fix>3d</fix>
</trkpt>
<trkpt lat="40.072842" lon="-105.230575">
  <ele>1586.09</ele>
  <time>2026-08-27T18:25:31Z</time>
  <course>10.94</course>
  <speed>0.0</speed>
  <fix>3d</fix>
</trkpt>
<trkpt lat="40.072842" lon="-105.230575">
  <ele>1586.09</ele>
  <time>2026-08-27T18:25:31Z</time>
  <course>265.92</course>
  <speed>0.0</speed>
  <fix>3d</fix>
</trkpt>
<trkpt lat="40.072842" lon="-105.230575">
  <ele>1586.09</ele>
  <time>2026-08-27T18:25:31Z</time>
  <course>11.07</course>
  <speed>0.0</speed>
  <fix>3d</fix>
</trkpt>
<trkpt lat="40.072842" lon="-105.230575">
  <ele>1586.09</ele>
  <time>2026-08-27T18:25:31Z</time>
  <course>266.03</course>
  <speed>0.0</speed>
  <fix>3d</fix>
</trkpt>
<trkpt lat="40.072842" lon="-105.230575">
  <ele>1586.09</ele>
  <time>2026-08-27T18:25:31Z</time>
  <course>11.18</course>
  <speed>0.0</speed>
  <fix>3d</fix>
</trkpt>
<trkpt lat="40.072842" lon="-105.230575">
  <ele>1586.09</ele>
  <time>2026-08-27T18:25:31Z</time>
  <course>266.05</course>
  <speed>0.0</speed>
  <fix>3d</fix>
</trkpt>
<trkpt lat="40.072842" lon="-105.230575">
  <ele>1586.09</ele>
  <time>2026-08-27T18:25:31Z</time>
  <course>11.28</course>
  <speed>0.0</speed>
  <fix>3d</fix>
</trkpt>
<trkpt lat="40.072842" lon="-105.230575">
  <ele>1586.09</ele>
  <time>2026-08-27T18:25:31Z</time>
  <course>266.03</course>
  <speed>0.0</speed>
  <fix>3d</fix>
</trkpt>
<trkpt lat="40.072842" lon="-105.230575">
  <ele>1586.09</ele>
  <time>2026-08-27T18:25:31Z</time>
  <course>11.37</course>
  <speed>0.0</speed>
  <fix>3d</fix>
</trkpt>
<trkpt lat="40.072842" lon="-105.230575">
  <ele>1586.09</ele>
  <time>2026-08-27T18:25:31Z</time>
  <course>266.03</course>
  <speed>0.0</speed>
  <fix>3d</fix>
</trkpt>
<trkpt lat="40.072842" lon="-105.230575">
  <ele>1586.09</ele>
  <time>2026-08-27T18:25:31Z</time>
  <course>11.45</course>
  <speed>0.0</speed>
  <fix>3d</fix>
</trkpt>
<trkpt lat="40.072842" lon="-105.230575">
  <ele>1586.09</ele>
  <time>2026-08-27T18:25:31Z</time>
  <course>266.03</course>
  <speed>0.0</speed>
  <fix>3d</fix>
</trkpt>
<trkpt lat="40.072842" lon="-105.230575">
  <ele>1586.09</ele>
  <time>2026-08-27T18:25:31Z</time>
  <course>11.53</course>
  <speed>0.0</speed>
  <fix>3d</fix>
</trkpt>
<trkpt lat="40.072842" lon="-105.230575">
  <ele>1586.09</ele>
  <time>2026-08-27T18:25:31Z</time>
  <course>266.03</course>
  <speed>0.0</speed>
  <fix>3d</fix>
</trkpt>
<trkpt lat="40.072842" lon="-105.230575">
  <ele>1586.09</ele>
  <time>2026-08-27T18:25:31Z</time>
  <course>11.59</course>
  <speed>0.0</speed>
  <fix>3d</fix>
</trkpt>
<trkpt lat="40.072842" lon="-105.230575">
  <ele>1586.09</ele>
  <time>2026-08-27T18:25:31Z</time>
  <course>266.03</course>
  <speed>0.0</speed>
  <fix>3d</fix>
</trkpt>
<trkpt lat="40.072842" lon="-105.230575">
  <ele>1586.09</ele>
  <time>2026-08-27T18:25:31Z</time>
  <course>11.65</course>
  <speed>0.0</speed>
  <fix>3d</fix>
</trkpt>
<trkpt lat="40.072842" lon="-105.230575">
  <ele>1586.09</ele>
  <time>2026-08-27T18:25:31Z</time>
  <course>266.03</course>
  <speed>0.0</speed>
  <fix>3d</fix>
</trkpt>
<trkpt lat="40.072842" lon="-105.230575">
  <ele>1586.09</ele>
  <time>2026-08-27T18:25:31Z</time>
  <course>11.71</course>
  <speed>0.0</speed>
  <fix>3d</fix>
</trkpt>
<trkpt lat="40.072842" lon="-105.230575">
  <ele>1586.09</ele>
  <time>2026-08-27T18:25:31Z</time>
  <course>266.03</course>
  <speed>0.0</speed>
  <fix>3d</fix>
</trkpt>
<trkpt lat="40.072842" lon="-105.230575">
  <ele>1586.09</ele>
  <time>2026-08-27T18:25:31Z</time>
  <course>11.76</course>
  <speed>0.0</speed>
  <fix>3d</fix>
</trkpt>
<trkpt lat="40.072842" lon="-105.230575">
  <ele>1586.09</ele>
  <time>2026-08-27T18:25:31Z</time>
  <course>266.03</course>
  <speed>0.0</speed>
  <fix>3d</fix>
</trkpt>
<trkpt lat="40.072842" lon="-105.230575">
  <ele>1586.09</ele>
  <time>2026-08-27T18:25:31Z</time>
  <course>11.81</course>
  <speed>0.0</speed>
  <fix>3d</fix>
</trkpt>
<trkpt lat="40.072842" lon="-105.230575">
  <ele>1586.09</ele>
  <time>2026-08-27T18:25:31Z</time>
  <course>266.03</course>
  <speed>0.0</speed>
  <fix>3d</fix>
</trkpt>
<trkpt lat="40.072842" lon="-105.230575">
  <ele>1586.09</ele>
  <time>2026-08-27T18:25:31Z</time>
  <course>11.85</course>
  <speed>0.0</speed>
  <fix>3d</fix>
</trkpt>
<trkpt lat="40.072842" lon="-105.230575">
  <ele>1586.09</ele>
  <time>2026-08-27T18:25:31Z</time>
  <course>266.03</course>
  <speed>0.0</speed>
  <fix>3d</fix>
</trkpt>
<trkpt lat="40.072842" lon="-105.230575">
  <ele>1586.09</ele>
  <time>2026-08-27T18:25:31Z</time>
  <course>11.88</course>
  <speed>0.0</speed>
  <fix>3d</fix>
</trkpt>
<trkpt lat="40.072842" lon="-105.230575">
  <ele>1586.09</ele>
  <time>2026-08-27T18:25:31Z</time>
  <course>266.03</course>
  <speed>0.0</speed>
  <fix>3d</fix>
</trkpt>
<trkpt lat="40.072842" lon="-105.230575">
  <ele>1586.09</ele>
  <time>2026-08-27T18:25:31Z</time>
  <course>11.92</course>
  <speed>0.0</speed>
  <fix>3d</fix>
</trkpt>
<trkpt lat="40.072842" lon="-105.230575">
  <ele>1586.09</ele>
  <time>2026-08-27T18:25:31Z</time>
  <course>266.03</course>
  <speed>0.0</speed>
  <fix>3d</fix>
</trkpt>
<trkpt lat="40.072842" lon="-105.230575">
  <ele>1586.09</ele>
  <time>2026-08-27T18:25:31Z</time>
  <course>11.95</course>
  <speed>0.0</speed>
  <fix>3d</fix>
</trkpt>
<trkpt lat="40.072842" lon="-105.230575">
  <ele>1586.09</ele>
  <time>2026-08-27T18:25:31Z</time>
  <course>266.03</course>
  <speed>0.0</speed>
  <fix>3d</fix>
</trkpt>
<trkpt lat="40.072842" lon="-105.230575">
  <ele>1586.09</ele>
  <time>2026-08-27T18:25:31Z</time>
  <course>11.97</course>
  <speed>0.0</speed>
  <fix>3d</fix>
</trkpt>
<trkpt lat="40.072842" lon="-105.230575">
  <ele>1586.09</ele>
  <time>2026-08-27T18:25:31Z</time>
  <course>266.03</course>
  <speed>0.0</speed>
  <fix>3d</fix>
</trkpt>
<trkpt lat="40.072842" lon="-105.230575">
  <ele>1586.09</ele>
  <time>2026-08-27T18:25:31Z</time>
  <course>12.0</course>
  <speed>0.0</speed>
  <fix>3d</fix>
</trkpt>
<trkpt lat="40.072842" lon="-105.230575">
  <ele>1586.09</ele>
  <time>2026-08-27T18:25:31Z</time>
  <course>266.03</course>
  <speed>0.0</speed>
  <fix>3d</fix>
</trkpt>
<trkpt lat="40.072842" lon="-105.230575">
  <ele>1586.09</ele>
  <time>2026-08-27T18:25:31Z</time>
  <course>12.02</course>
  <speed>0.0</speed>
  <fix>3d</fix>
</trkpt>
<trkpt lat="40.072842" lon="-105.230575">
  <ele>1586.09</ele>
  <time>2026-08-27T18:25:31Z</time>
  <course>266.03</course>
  <speed>0.0</speed>
  <fix>3d</fix>
</trkpt>
<trkpt lat="40.072842" lon="-105.230575">
  <ele>1586.09</ele>
  <time>2026-08-27T18:25:31Z</time>
  <course>12.04</course>
  <speed>0.0</speed>
  <fix>3d</fix>
</trkpt>
<trkpt lat="40.072842" lon="-105.230575">
  <ele>1586.09</ele>
  <time>2026-08-27T18:25:31Z</time>
  <course>266.03</course>
  <speed>0.0</speed>
  <fix>3d</fix>
</trkpt>
<trkpt lat="40.072842" lon="-105.230575">
  <ele>1586.09</ele>
  <time>2026-08-27T18:25:31Z</time>
  <course>12.05</course>
  <speed>0.0</speed>
  <fix>3d</fix>
</trkpt>
<trkpt lat="40.072842" lon="-105.230575">
  <ele>1586.09</ele>
  <time>2026-08-27T18:25:31Z</time>
  <course>266.03</course>
  <speed>0.0</speed>
  <fix>3d</fix>
</trkpt>
<trkpt lat="40.072842" lon="-105.230575">
  <ele>1586.09</ele>
  <time>2026-08-27T18:25:31Z</time>
  <course>12.07</course>
  <speed>0.0</speed>
  <fix>3d</fix>
</trkpt>
<trkpt lat="40.072842" lon="-105.230575">
  <ele>1586.09</ele>
  <time>2026-08-27T18:25:31Z</time>
  <course>266.03</course>
  <speed>0.0</speed>
  <fix>3d</fix>
</trkpt>
<trkpt lat="40.072842" lon="-105.230575">
  <ele>1586.09</ele>
  <time>2026-08-27T18:25:31Z</time>
  <course>12.08</course>
  <speed>0.0</speed>
  <fix>3d</fix>
</trkpt>
<trkpt lat="40.072842" lon="-105.230575">
  <ele>1586.09</ele>
  <time>2026-08-27T18:25:31Z</time>
  <course>266.03</course>
  <speed>0.0</speed>
  <fix>3d</fix>
</trkpt>
<trkpt lat="40.072842" lon="-105.230575">
  <ele>1586.09</ele>
  <time>2026-08-27T18:25:31Z</time>
  <course>12.09</course>
  <speed>0.0</speed>
  <fix>3d</fix>
</trkpt>
<trkpt lat="40.072842" lon="-105.230575">
  <ele>1586.09</ele>
  <time>2026-08-27T18:25:31Z</time>
  <course>266.03</course>
  <speed>0.0</speed>
  <fix>3d</fix>
</trkpt>
<trkpt lat="40.072842" lon="-105.230575">
  <ele>1586.09</ele>
  <time>2026-08-27T18:25:31Z</time>
  <course>12.1</course>
  <speed>0.0</speed>
  <fix>3d</fix>
</trkpt>
<trkpt lat="40.072842" lon="-105.230575">
  <ele>1586.09</ele>
  <time>2026-08-27T18:25:31Z</time>
  <course>266.03</course>
  <speed>0.0</speed>
  <fix>3d</fix>
</trkpt>
<trkpt lat="40.072842" lon="-105.230575">
  <ele>1586.09</ele>
  <time>2026-08-27T18:25:31Z</time>
  <course>12.1</course>
  <speed>0.0</speed>
  <fix>3d</fix>
</trkpt>
<trkpt lat="40.072842" lon="-105.230575">
  <ele>1586.09</ele>
  <time>2026-08-27T18:25:31Z</time>
  <course>266.03</course>
  <speed>0.0</speed>
  <fix>3d</fix>
</trkpt>
<trkpt lat="40.072842" lon="-105.230575">
  <ele>1586.09</ele>
  <time>2026-08-27T18:25:31Z</time>
  <course>12.11</course>
  <speed>0.0</speed>
  <fix>3d</fix>
</trkpt>
<trkpt lat="40.072842" lon="-105.230575">
  <ele>1586.09</ele>
  <time>2026-08-27T18:25:31Z</time>
  <course>266.03</course>
  <speed>0.0</speed>
  <fix>3d</fix>
</trkpt>
<trkpt lat="40.072842" lon="-105.230575">
  <ele>1586.09</ele>
  <time>2026-08-27T18:25:31Z</time>
  <course>12.12</course>
  <speed>0.0</speed>
  <fix>3d</fix>
</trkpt>
<trkpt lat="40.072842" lon="-105.230575">
  <ele>1586.09</ele>
  <time>2026-08-27T18:25:31Z</time>
  <course>266.03</course>
  <speed>0.0</speed>
  <fix>3d</fix>
</trkpt>
<trkpt lat="40.072842" lon="-105.230575">
  <ele>1586.09</ele>
  <time>2026-08-27T18:25:31Z</time>
  <course>12.12</course>
  <speed>0.0</speed>
  <fix>3d</fix>
</trkpt>
<trkpt lat="40.072842" lon="-105.230575">
  <ele>1586.09</ele>
  <time>2026-08-27T18:25:31Z</time>
  <course>266.03</course>
  <speed>0.0</speed>
  <fix>3d</fix>
</trkpt>
<trkpt lat="40.072842" lon="-105.230575">
  <ele>1586.09</ele>
  <time>2026-08-27T18:25:31Z</time>
  <course>12.12</course>
  <speed>0.0</speed>
  <fix>3d</fix>
</trkpt>
<trkpt lat="40.072842" lon="-105.230575">
  <ele>1586.09</ele>
  <time>2026-08-27T18:25:31Z</time>
  <course>266.03</course>
  <speed>0.0</speed>
  <fix>3d</fix>
</trkpt>
<trkpt lat="40.072842" lon="-105.230575">
  <ele>1586.09</ele>
  <time>2026-08-27T18:25:31Z</time>
  <course>12.13</course>
  <speed>0.0</speed>
  <fix>3d</fix>
</trkpt>
<trkpt lat="40.072842" lon="-105.230575">
  <ele>1586.09</ele>
  <time>2026-08-27T18:25:31Z</time>
  <course>266.03</course>
  <speed>0.0</speed>
  <fix>3d</fix>
</trkpt>
<trkpt lat="40.072842" lon="-105.230575">
  <ele>1586.09</ele>
  <time>2026-08-27T18:25:31Z</time>
  <course>12.13</course>
  <speed>0.0</speed>
  <fix>3d</fix>
</trkpt>
<trkpt lat="40.072842" lon="-105.230575">
  <ele>1586.09</ele>
  <time>2026-08-27T18:25:31Z</time>
  <course>266.03</course>
  <speed>0.0</speed>
  <fix>3d</fix>
</trkpt>
<trkpt lat="40.072842" lon="-105.230575">
  <ele>1586.09</ele>
  <time>2026-08-27T18:25:31Z</time>
  <course>12.13</course>
  <speed>0.0</speed>
  <fix>3d</fix>
</trkpt>
<trkpt lat="40.072842" lon="-105.230575">
  <ele>1586.09</ele>
  <time>2026-08-27T18:25:31Z</time>
  <course>266.03</course>
  <speed>0.0</speed>
  <fix>3d</fix>
</trkpt>
<trkpt lat="40.072842" lon="-105.230575">
  <ele>1586.09</ele>
  <time>2026-08-27T18:25:31Z</time>
  <course>12.12</course>
  <speed>0.01</speed>
  <fix>3d</fix>
</trkpt>
<trkpt lat="40.072842" lon="-105.230575">
  <ele>1586.09</ele>
  <time>2026-08-27T18:25:31Z</time>
  <course>266.03</course>
  <speed>0.0</speed>
  <fix>3d</fix>
</trkpt>
<trkpt lat="40.072842" lon="-105.230575">
  <ele>1586.09</ele>
  <time>2026-08-27T18:25:31Z</time>
  <course>12.12</course>
  <speed>0.01</speed>
  <fix>3d</fix>
</trkpt>
<trkpt lat="40.072842" lon="-105.230575">
  <ele>1586.09</ele>
  <time>2026-08-27T18:25:31Z</time>
  <course>266.03</course>
  <speed>0.0</speed>
  <fix>3d</fix>
</trkpt>
<trkpt lat="40.072842" lon="-105.230575">
  <ele>1586.09</ele>
  <time>2026-08-27T18:25:31Z</time>
  <course>12.12</course>
  <speed>0.01</speed>
  <fix>3d</fix>
</trkpt>
<trkpt lat="40.072842" lon="-105.230575">
  <ele>1586.09</ele>
  <time>2026-08-27T18:25:31Z</time>
  <course>266.03</course>
  <speed>0.0</speed>
  <fix>3d</fix>
</trkpt>
<trkpt lat="40.072842" lon="-105.230575">
  <ele>1586.09</ele>
  <time>2026-08-27T18:25:31Z</time>
  <course>12.12</course>
  <speed>0.01</speed>
  <fix>3d</fix>
</trkpt>
<trkpt lat="40.072842" lon="-105.230575">
  <ele>1586.09</ele>
  <time>2026-08-27T18:25:31Z</time>
  <course>266.03</course>
  <speed>0.0</speed>
  <fix>3d</fix>
</trkpt>
<trkpt lat="40.072842" lon="-105.230575">
  <ele>1586.09</ele>
  <time>2026-08-27T18:25:31Z</time>
  <course>12.11</course>
  <speed>0.01</speed>
  <fix>3d</fix>
</trkpt>
<trkpt lat="40.072842" lon="-105.230575">
  <ele>1586.09</ele>
  <time>2026-08-27T18:25:31Z</time>
  <course>266.03</course>
  <speed>0.0</speed>
  <fix>3d</fix>
</trkpt>
<trkpt lat="40.072842" lon="-105.230575">
  <ele>1586.09</ele>
  <time>2026-08-27T18:25:31Z</time>
  <course>12.11</course>
  <speed>0.01</speed>
  <fix>3d</fix>
</trkpt>
<trkpt lat="40.072842" lon="-105.230575">
  <ele>1586.09</ele>
  <time>2026-08-27T18:25:31Z</time>
  <course>266.03</course>
  <speed>0.0</speed>
  <fix>3d</fix>
</trkpt>
<trkpt lat="40.072842" lon="-105.230575">
  <ele>1586.09</ele>
  <time>2026-08-27T18:25:31Z</time>
  <course>12.1</course>
  <speed>0.01</speed>
  <fix>3d</fix>
</trkpt>
<trkpt lat="40.072842" lon="-105.230575">
  <ele>1586.09</ele>
  <time>2026-08-27T18:25:31Z</time>
  <course>266.03</course>
  <speed>0.0</speed>
  <fix>3d</fix>
</trkpt>
<trkpt lat="40.072842" lon="-105.230575">
  <ele>1586.09</ele>
  <time>2026-08-27T18:25:31Z</time>
  <course>12.1</course>
  <speed>0.01</speed>
  <fix>3d</fix>
</trkpt>
<trkpt lat="40.072842" lon="-105.230575">
  <ele>1586.09</ele>
  <time>2026-08-27T18:25:31Z</time>
  <course>266.03</course>
  <speed>0.0</speed>
  <fix>3d</fix>
</trkpt>
<trkpt lat="40.072842" lon="-105.230575">
  <ele>1586.09</ele>
  <time>2026-08-27T18:25:31Z</time>
  <course>12.09</course>
  <speed>0.01</speed>
  <fix>3d</fix>
</trkpt>
<trkpt lat="40.072842" lon="-105.230575">
  <ele>1586.09</ele>
  <time>2026-08-27T18:25:31Z</time>
  <course>266.03</course>
  <speed>0.0</speed>
  <fix>3d</fix>
</trkpt>
<trkpt lat="40.072842" lon="-105.230575">
  <ele>1586.09</ele>
  <time>2026-08-27T18:25:31Z</time>
  <course>12.09</course>
  <speed>0.01</speed>
  <fix>3d</fix>
</trkpt>
<trkpt lat="40.072842" lon="-105.230575">
  <ele>1586.09</ele>
  <time>2026-08-27T18:25:31Z</time>
  <course>266.03</course>
  <speed>0.0</speed>
  <fix>3d</fix>
</trkpt>
<trkpt lat="40.072842" lon="-105.230575">
  <ele>1586.09</ele>
  <time>2026-08-27T18:25:31Z</time>
  <course>12.08</course>
  <speed>0.01</speed>
  <fix>3d</fix>
</trkpt>
<trkpt lat="40.072842" lon="-105.230575">
  <ele>1586.09</ele>
  <time>2026-08-27T18:25:31Z</time>
  <course>266.03</course>
  <speed>0.0</speed>
  <fix>3d</fix>
</trkpt>
<trkpt lat="40.072842" lon="-105.230575">
  <ele>1586.09</ele>
  <time>2026-08-27T18:25:31Z</time>
  <course>12.08</course>
  <speed>0.01414213562373095</speed>
  <fix>3d</fix>
</trkpt>
<trkpt lat="40.072842" lon="-105.230575">
  <ele>1586.09</ele>
  <time>2026-08-27T18:25:31Z</time>
  <course>266.03</course>
  <speed>0.0</speed>
  <fix>3d</fix>
</trkpt>
<trkpt lat="40.072842" lon="-105.230575">
  <ele>1586.09</ele>
  <time>2026-08-27T18:25:31Z</time>
  <course>12.07</course>
  <speed>0.01414213562373095</speed>
  <fix>3d</fix>
</trkpt>
<trkpt lat="40.072842" lon="-105.230575">
  <ele>1586.09</ele>
  <time>2026-08-27T18:25:31Z</time>
  <course>266.03</course>
  <speed>0.0</speed>
  <fix>3d</fix>
</trkpt>
<trkpt lat="40.072842" lon="-105.230575">
  <ele>1586.09</ele>
  <time>2026-08-27T18:25:31Z</time>
  <course>12.06</course>
  <speed>0.01414213562373095</speed>
  <fix>3d</fix>
</trkpt>
<trkpt lat="40.072842" lon="-105.230575">
  <ele>1586.09</ele>
  <time>2026-08-27T18:25:31Z</time>
  <course>266.03</course>
  <speed>0.0</speed>
  <fix>3d</fix>
</trkpt>
<trkpt lat="40.072842" lon="-105.230575">
  <ele>1586.09</ele>
  <time>2026-08-27T18:25:31Z</time>
  <course>12.05</course>
  <speed>0.01414213562373095</speed>
  <fix>3d</fix>
</trkpt>
<trkpt lat="40.072842" lon="-105.230575">
  <ele>1586.09</ele>
  <time>2026-08-27T18:25:31Z</time>
  <course>266.03</course>
  <speed>0.0</speed>
  <fix>3d</fix>
</trkpt>
<trkpt lat="40.072842" lon="-105.230575">
  <ele>1586.09</ele>
  <time>2026-08-27T18:25:31Z</time>
  <course>12.05</course>
  <speed>0.01414213562373095</speed>
  <fix>3d</fix>
</trkpt>
<trkpt lat="40.072842" lon="-105.230575">
  <ele>1586.09</ele>
  <time>2026-08-27T18:25:31Z</time>
  <course>266.03</course>
  <speed>0.0</speed>
  <fix>3d</fix>
</trkpt>
<trkpt lat="40.072842" lon="-105.230575">
  <ele>1586.09</ele>
  <time>2026-08-27T18:25:31Z</time>
  <course>12.04</course>
  <speed>0.01414213562373095</speed>
  <fix>3d</fix>
</trkpt>
<trkpt lat="40.072842" lon="-105.230575">
  <ele>1586.09</ele>
  <time>2026-08-27T18:25:31Z</time>
  <course>266.03</course>
  <speed>0.0</speed>
  <fix>3d</fix>
</trkpt>
<trkpt lat="40.072842" lon="-105.230575">
  <ele>1586.09</ele>
  <time>2026-08-27T18:25:31Z</time>
  <course>12.03</course>
  <speed>0.01414213562373095</speed>
  <fix>3d</fix>
</trkpt>
<trkpt lat="40.072842" lon="-105.230575">
  <ele>1586.09</ele>
  <time>2026-08-27T18:25:31Z</time>
  <course>266.03</course>
  <speed>0.0</speed>
  <fix>3d</fix>
</trkpt>
<trkpt lat="40.072842" lon="-105.230575">
  <ele>1586.09</ele>
  <time>2026-08-27T18:25:31Z</time>
  <course>12.03</course>
  <speed>0.01414213562373095</speed>
  <fix>3d</fix>
</trkpt>
<trkpt lat="40.072842" lon="-105.230575">
  <ele>1586.09</ele>
  <time>2026-08-27T18:25:31Z</time>
  <course>266.03</course>
  <speed>0.0</speed>
  <fix>3d</fix>
</trkpt>
<trkpt lat="40.072842" lon="-105.230575">
  <ele>1586.09</ele>
  <time>2026-08-27T18:25:31Z</time>
  <course>12.02</course>
  <speed>0.01414213562373095</speed>
  <fix>3d</fix>
</trkpt>
<trkpt lat="40.072842" lon="-105.230575">
  <ele>1586.09</ele>
  <time>2026-08-27T18:25:31Z</time>
  <course>266.03</course>
  <speed>0.0</speed>
  <fix>3d</fix>
</trkpt>
<trkpt lat="40.072842" lon="-105.230575">
  <ele>1586.09</ele>
  <time>2026-08-27T18:25:31Z</time>
  <course>12.01</course>
  <speed>0.01414213562373095</speed>
  <fix>3d</fix>
</trkpt>
<trkpt lat="40.072842" lon="-105.230575">
  <ele>1586.09</ele>
  <time>2026-08-27T18:25:31Z</time>
  <course>266.03</course>
  <speed>0.0</speed>
  <fix>3d</fix>
</trkpt>
<trkpt lat="40.072842" lon="-105.230575">
  <ele>1586.09</ele>
  <time>2026-08-27T18:25:31Z</time>
  <course>12.01</course>
  <speed>0.01414213562373095</speed>
  <fix>3d</fix>
</trkpt>
<trkpt lat="40.072842" lon="-105.230575">
  <ele>1586.09</ele>
  <time>2026-08-27T18:25:31Z</time>
  <course>266.03</course>
  <speed>0.0</speed>
  <fix>3d</fix>
</trkpt>
<trkpt lat="40.072842" lon="-105.230575">
  <ele>1586.09</ele>
  <time>2026-08-27T18:25:31Z</time>
  <course>12.0</course>
  <speed>0.01414213562373095</speed>
  <fix>3d</fix>
</trkpt>
<trkpt lat="40.072842" lon="-105.230575">
  <ele>1586.09</ele>
  <time>2026-08-27T18:25:31Z</time>
  <course>266.03</course>
  <speed>0.0</speed>
  <fix>3d</fix>
</trkpt>
<trkpt lat="40.072842" lon="-105.230575">
  <ele>1586.09</ele>
  <time>2026-08-27T18:25:31Z</time>
  <course>11.99</course>
  <speed>0.01414213562373095</speed>
  <fix>3d</fix>
</trkpt>
<trkpt lat="40.072842" lon="-105.230575">
  <ele>1586.09</ele>
  <time>2026-08-27T18:25:31Z</time>
  <course>266.03</course>
  <speed>0.0</speed>
  <fix>3d</fix>
</trkpt>
<trkpt lat="40.072842" lon="-105.230575">
  <ele>1586.09</ele>
  <time>2026-08-27T18:25:31Z</time>
  <course>11.98</course>
  <speed>0.01414213562373095</speed>
  <fix>3d</fix>
</trkpt>
<trkpt lat="40.072842" lon="-105.230575">
  <ele>1586.09</ele>
  <time>2026-08-27T18:25:31Z</time>
  <course>266.03</course>
  <speed>0.0</speed>
  <fix>3d</fix>
</trkpt>
<trkpt lat="40.072842" lon="-105.230575">
  <ele>1586.09</ele>
  <time>2026-08-27T18:25:31Z</time>
  <course>11.98</course>
  <speed>0.01414213562373095</speed>
  <fix>3d</fix>
</trkpt>
<trkpt lat="40.072842" lon="-105.230575">
  <ele>1586.09</ele>
  <time>2026-08-27T18:25:31Z</time>
  <course>266.03</course>
  <speed>0.0</speed>
  <fix>3d</fix>
</trkpt>
<trkpt lat="40.072842" lon="-105.230575">
  <ele>1586.09</ele>
  <time>2026-08-27T18:25:31Z</time>
  <course>11.97</course>
  <speed>0.022360679774997897</speed>
  <fix>3d</fix>
</trkpt>
<trkpt lat="40.072842" lon="-105.230575">
  <ele>1586.09</ele>
  <time>2026-08-27T18:25:31Z</time>
  <course>266.03</course>
  <speed>0.0</speed>
  <fix>3d</fix>
</trkpt>
<trkpt lat="40.072842" lon="-105.230575">
  <ele>1586.09</ele>
  <time>2026-08-27T18:25:31Z</time>
  <course>11.96</course>
  <speed>0.022360679774997897</speed>
  <fix>3d</fix>
</trkpt>
<trkpt lat="40.072842" lon="-105.230575">
  <ele>1586.09</ele>
  <time>2026-08-27T18:25:31Z</time>
  <course>266.03</course>
  <speed>0.0</speed>
  <fix>3d</fix>
</trkpt>
<trkpt lat="40.072842" lon="-105.230575">
  <ele>1586.09</ele>
  <time>2026-08-27T18:25:31Z</time>
  <course>11.95</course>
  <speed>0.022360679774997897</speed>
  <fix>3d</fix>
</trkpt>
<trkpt lat="40.072842" lon="-105.230575">
  <ele>1586.09</ele>
  <time>2026-08-27T18:25:31Z</time>
  <course>266.03</course>
  <speed>0.0</speed>
  <fix>3d</fix>
</trkpt>
<trkpt lat="40.072842" lon="-105.230575">
  <ele>1586.09</ele>
  <time>2026-08-27T18:25:31Z</time>
  <course>11.94</course>
  <speed>0.022360679774997897</speed>
  <fix>3d</fix>
</trkpt>
<trkpt lat="40.072842" lon="-105.230575">
  <ele>1586.09</ele>
  <time>2026-08-27T18:25:31Z</time>
  <course>266.03</course>
  <speed>0.0</speed>
  <fix>3d</fix>
</trkpt>
<trkpt lat="40.072842" lon="-105.230575">
  <ele>1586.09</ele>
  <time>2026-08-27T18:25:31Z</time>
  <course>11.93</course>
  <speed>0.022360679774997897</speed>
  <fix>3d</fix>
</trkpt>
<trkpt lat="40.072842" lon="-105.230575">
  <ele>1586.09</ele>
  <time>2026-08-27T18:25:31Z</time>
  <course>266.03</course>
  <speed>0.0</speed>
  <fix>3d</fix>
</trkpt>
<trkpt lat="40.072842" lon="-105.230575">
  <ele>1586.09</ele>
  <time>2026-08-27T18:25:32Z</time>
  <course>11.92</course>
  <speed>0.022360679774997897</speed>
  <fix>3d</fix>
</trkpt>
<trkpt lat="40.072842" lon="-105.230575">
  <ele>1586.09</ele>
  <time>2026-08-27T18:25:32Z</time>
  <course>266.03</course>
  <speed>0.0</speed>
  <fix>3d</fix>
</trkpt>
<trkpt lat="40.072842" lon="-105.230575">
  <ele>1586.09</ele>
  <time>2026-08-27T18:25:32Z</time>
  <course>11.92</course>
  <speed>0.022360679774997897</speed>
  <fix>3d</fix>
</trkpt>
<trkpt lat="40.072842" lon="-105.230575">
  <ele>1586.09</ele>
  <time>2026-08-27T18:25:32Z</time>
  <course>266.03</course>
  <speed>0.0</speed>
  <fix>3d</fix>
</trkpt>
<trkpt lat="40.072842" lon="-105.230575">
  <ele>1586.09</ele>
  <time>2026-08-27T18:25:32Z</time>
  <course>11.91</course>
  <speed>0.022360679774997897</speed>
  <fix>3d</fix>
</trkpt>
<trkpt lat="40.072842" lon="-105.230575">
  <ele>1586.09</ele>
  <time>2026-08-27T18:25:32Z</time>
  <course>266.03</course>
  <speed>0.0</speed>
  <fix>3d</fix>
</trkpt>
<trkpt lat="40.072842" lon="-105.230575">
  <ele>1586.09</ele>
  <time>2026-08-27T18:25:32Z</time>
  <course>11.9</course>
  <speed>0.022360679774997897</speed>
  <fix>3d</fix>
</trkpt>
<trkpt lat="40.072842" lon="-105.230575">
  <ele>1586.09</ele>
  <time>2026-08-27T18:25:32Z</time>
  <course>266.03</course>
  <speed>0.0</speed>
  <fix>3d</fix>
</trkpt>
<trkpt lat="40.072842" lon="-105.230575">
  <ele>1586.09</ele>
  <time>2026-08-27T18:25:32Z</time>
  <course>11.89</course>
  <speed>0.022360679774997897</speed>
  <fix>3d</fix>
</trkpt>
<trkpt lat="40.072842" lon="-105.230575">
  <ele>1586.09</ele>
  <time>2026-08-27T18:25:32Z</time>
  <course>266.03</course>
  <speed>0.0</speed>
  <fix>3d</fix>
</trkpt>
<trkpt lat="40.072842" lon="-105.230575">
  <ele>1586.09</ele>
  <time>2026-08-27T18:25:32Z</time>
  <course>11.88</course>
  <speed>0.022360679774997897</speed>
  <fix>3d</fix>
</trkpt>
<trkpt lat="40.072842" lon="-105.230575">
  <ele>1586.09</ele>
  <time>2026-08-27T18:25:32Z</time>
  <course>266.03</course>
  <speed>0.0</speed>
  <fix>3d</fix>
</trkpt>
<trkpt lat="40.072842" lon="-105.230575">
  <ele>1586.09</ele>
  <time>2026-08-27T18:25:32Z</time>
  <course>11.87</course>
  <speed>0.022360679774997897</speed>
  <fix>3d</fix>
</trkpt>
<trkpt lat="40.072842" lon="-105.230575">
  <ele>1586.09</ele>
  <time>2026-08-27T18:25:32Z</time>
  <course>266.03</course>
  <speed>0.0</speed>
  <fix>3d</fix>
</trkpt>
<trkpt lat="40.072842" lon="-105.230575">
  <ele>1586.09</ele>
  <time>2026-08-27T18:25:32Z</time>
  <course>11.87</course>
  <speed>0.022360679774997897</speed>
  <fix>3d</fix>
</trkpt>
<trkpt lat="40.072842" lon="-105.230575">
  <ele>1586.09</ele>
  <time>2026-08-27T18:25:32Z</time>
  <course>266.03</course>
  <speed>0.0</speed>
  <fix>3d</fix>
</trkpt>
<trkpt lat="40.072842" lon="-105.230575">
  <ele>1586.09</ele>
  <time>2026-08-27T18:25:32Z</time>
  <course>11.86</course>
  <speed>0.022360679774997897</speed>
  <fix>3d</fix>
</trkpt>
<trkpt lat="40.072842" lon="-105.230575">
  <ele>1586.09</ele>
  <time>2026-08-27T18:25:32Z</time>
  <course>266.03</course>
  <speed>0.0</speed>
  <fix>3d</fix>
</trkpt>
<trkpt lat="40.072842" lon="-105.230575">
  <ele>1586.09</ele>
  <time>2026-08-27T18:25:32Z</time>
  <course>11.85</course>
  <speed>0.022360679774997897</speed>
  <fix>3d</fix>
</trkpt>
<trkpt lat="40.072842" lon="-105.230575">
  <ele>1586.09</ele>
  <time>2026-08-27T18:25:32Z</time>
  <course>266.03</course>
  <speed>0.0</speed>
  <fix>3d</fix>
</trkpt>
<trkpt lat="40.072842" lon="-105.230575">
  <ele>1586.09</ele>
  <time>2026-08-27T18:25:32Z</time>
  <course>11.84</course>
  <speed>0.0282842712474619</speed>
  <fix>3d</fix>
</trkpt>
<trkpt lat="40.072842" lon="-105.230575">
  <ele>1586.09</ele>
  <time>2026-08-27T18:25:32Z</time>
  <course>266.03</course>
  <speed>0.0</speed>
  <fix>3d</fix>
</trkpt>
<trkpt lat="40.072842" lon="-105.230575">
  <ele>1586.09</ele>
  <time>2026-08-27T18:25:32Z</time>
  <course>11.83</course>
  <speed>0.0282842712474619</speed>
  <fix>3d</fix>
</trkpt>
<trkpt lat="40.072842" lon="-105.230575">
  <ele>1586.09</ele>
  <time>2026-08-27T18:25:32Z</time>
  <course>266.03</course>
  <speed>0.0</speed>
  <fix>3d</fix>
</trkpt>
<trkpt lat="40.072842" lon="-105.230575">
  <ele>1586.09</ele>
  <time>2026-08-27T18:25:32Z</time>
  <course>11.83</course>
  <speed>0.0282842712474619</speed>
  <fix>3d</fix>
</trkpt>
<trkpt lat="40.072842" lon="-105.230575">
  <ele>1586.09</ele>
  <time>2026-08-27T18:25:32Z</time>
  <course>266.03</course>
  <speed>0.0</speed>
  <fix>3d</fix>
</trkpt>
<trkpt lat="40.072842" lon="-105.230575">
  <ele>1586.09</ele>
  <time>2026-08-27T18:25:32Z</time>
  <course>11.82</course>
  <speed>0.0282842712474619</speed>
  <fix>3d</fix>
</trkpt>
<trkpt lat="40.072842" lon="-105.230575">
  <ele>1586.09</ele>
  <time>2026-08-27T18:25:32Z</time>
  <course>266.03</course>
  <speed>0.0</speed>
  <fix>3d</fix>
</trkpt>
<trkpt lat="40.072842" lon="-105.230575">
  <ele>1586.09</ele>
  <time>2026-08-27T18:25:32Z</time>
  <course>11.81</course>
  <speed>0.0282842712474619</speed>
  <fix>3d</fix>
</trkpt>
<trkpt lat="40.072842" lon="-105.230575">
  <ele>1586.09</ele>
  <time>2026-08-27T18:25:32Z</time>
  <course>266.03</course>
  <speed>0.0</speed>
  <fix>3d</fix>
</trkpt>
<trkpt lat="40.072842" lon="-105.230575">
  <ele>1586.09</ele>
  <time>2026-08-27T18:25:32Z</time>
  <course>11.8</course>
  <speed>0.0282842712474619</speed>
  <fix>3d</fix>
</trkpt>
<trkpt lat="40.072842" lon="-105.230575">
  <ele>1586.09</ele>
  <time>2026-08-27T18:25:32Z</time>
  <course>266.03</course>
  <speed>0.0</speed>
  <fix>3d</fix>
</trkpt>
<trkpt lat="40.072842" lon="-105.230575">
  <ele>1586.09</ele>
  <time>2026-08-27T18:25:32Z</time>
  <course>11.79</course>
  <speed>0.0282842712474619</speed>
  <fix>3d</fix>
</trkpt>
<trkpt lat="40.072842" lon="-105.230575">
  <ele>1586.09</ele>
  <time>2026-08-27T18:25:32Z</time>
  <course>266.03</course>
  <speed>0.0</speed>
  <fix>3d</fix>
</trkpt>
<trkpt lat="40.072842" lon="-105.230575">
  <ele>1586.09</ele>
  <time>2026-08-27T18:25:32Z</time>
  <course>11.79</course>
  <speed>0.0282842712474619</speed>
  <fix>3d</fix>
</trkpt>
<trkpt lat="40.072842" lon="-105.230575">
  <ele>1586.09</ele>
  <time>2026-08-27T18:25:32Z</time>
  <course>266.03</course>
  <speed>0.0</speed>
  <fix>3d</fix>
</trkpt>
<trkpt lat="40.072842" lon="-105.230575">
  <ele>1586.09</ele>
  <time>2026-08-27T18:25:32Z</time>
  <course>11.78</course>
  <speed>0.0282842712474619</speed>
  <fix>3d</fix>
</trkpt>
<trkpt lat="40.072842" lon="-105.230575">
  <ele>1586.09</ele>
  <time>2026-08-27T18:25:32Z</time>
  <course>266.03</course>
  <speed>0.0</speed>
  <fix>3d</fix>
</trkpt>
<trkpt lat="40.072842" lon="-105.230575">
  <ele>1586.09</ele>
  <time>2026-08-27T18:25:32Z</time>
  <course>11.77</course>
  <speed>0.0282842712474619</speed>
  <fix>3d</fix>
</trkpt>
<trkpt lat="40.072842" lon="-105.230575">
  <ele>1586.09</ele>
  <time>2026-08-27T18:25:32Z</time>
  <course>266.03</course>
  <speed>0.0</speed>
  <fix>3d</fix>
</trkpt>
<trkpt lat="40.072842" lon="-105.230575">
  <ele>1586.09</ele>
  <time>2026-08-27T18:25:32Z</time>
  <course>11.77</course>
  <speed>0.0282842712474619</speed>
  <fix>3d</fix>
</trkpt>
<trkpt lat="40.072842" lon="-105.230575">
  <ele>1586.09</ele>
  <time>2026-08-27T18:25:32Z</time>
  <course>266.03</course>
  <speed>0.0</speed>
  <fix>3d</fix>
</trkpt>
<trkpt lat="40.072842" lon="-105.230575">
  <ele>1586.09</ele>
  <time>2026-08-27T18:25:32Z</time>
  <course>11.76</course>
  <speed>0.0282842712474619</speed>
  <fix>3d</fix>
</trkpt>
<trkpt lat="40.072842" lon="-105.230575">
  <ele>1586.09</ele>
  <time>2026-08-27T18:25:32Z</time>
  <course>266.03</course>
  <speed>0.0</speed>
  <fix>3d</fix>
</trkpt>
<trkpt lat="40.072842" lon="-105.230575">
  <ele>1586.09</ele>
  <time>2026-08-27T18:25:32Z</time>
  <course>11.75</course>
  <speed>0.0282842712474619</speed>
  <fix>3d</fix>
</trkpt>
<trkpt lat="40.072842" lon="-105.230575">
  <ele>1586.09</ele>
  <time>2026-08-27T18:25:32Z</time>
  <course>266.03</course>
  <speed>0.0</speed>
  <fix>3d</fix>
</trkpt>
<trkpt lat="40.072842" lon="-105.230575">
  <ele>1586.09</ele>
  <time>2026-08-27T18:25:32Z</time>
  <course>11.74</course>
  <speed>0.03605551275463989</speed>
  <fix>3d</fix>
</trkpt>
<trkpt lat="40.072842" lon="-105.230575">
  <ele>1586.09</ele>
  <time>2026-08-27T18:25:32Z</time>
  <course>266.03</course>
  <speed>0.0</speed>
  <fix>3d</fix>
</trkpt>
<trkpt lat="40.072842" lon="-105.230575">
  <ele>1586.09</ele>
  <time>2026-08-27T18:25:32Z</time>
  <course>11.73</course>
  <speed>0.03605551275463989</speed>
  <fix>3d</fix>
</trkpt>
<trkpt lat="40.072842" lon="-105.230575">
  <ele>1586.09</ele>
  <time>2026-08-27T18:25:32Z</time>
  <course>266.03</course>
  <speed>0.0</speed>
  <fix>3d</fix>
</trkpt>
<trkpt lat="40.072842" lon="-105.230575">
  <ele>1586.09</ele>
  <time>2026-08-27T18:25:32Z</time>
  <course>11.73</course>
  <speed>0.03605551275463989</speed>
  <fix>3d</fix>
</trkpt>
<trkpt lat="40.072842" lon="-105.230575">
  <ele>1586.09</ele>
  <time>2026-08-27T18:25:32Z</time>
  <course>266.03</course>
  <speed>0.0</speed>
  <fix>3d</fix>
</trkpt>
<trkpt lat="40.072842" lon="-105.230575">
  <ele>1586.09</ele>
  <time>2026-08-27T18:25:32Z</time>
  <course>11.72</course>
  <speed>0.03605551275463989</speed>
  <fix>3d</fix>
</trkpt>
<trkpt lat="40.072842" lon="-105.230575">
  <ele>1586.09</ele>
  <time>2026-08-27T18:25:32Z</time>
  <course>266.03</course>
  <speed>0.0</speed>
  <fix>3d</fix>
</trkpt>
<trkpt lat="40.072842" lon="-105.230575">
  <ele>1586.09</ele>
  <time>2026-08-27T18:25:32Z</time>
  <course>11.71</course>
  <speed>0.03605551275463989</speed>
  <fix>3d</fix>
</trkpt>
<trkpt lat="40.072842" lon="-105.230575">
  <ele>1586.09</ele>
  <time>2026-08-27T18:25:32Z</time>
  <course>266.03</course>
  <speed>0.0</speed>
  <fix>3d</fix>
</trkpt>
<trkpt lat="40.072842" lon="-105.230575">
  <ele>1586.09</ele>
  <time>2026-08-27T18:25:32Z</time>
  <course>11.71</course>
  <speed>0.03605551275463989</speed>
  <fix>3d</fix>
</trkpt>
<trkpt lat="40.072842" lon="-105.230575">
  <ele>1586.09</ele>
  <time>2026-08-27T18:25:32Z</time>
  <course>266.03</course>
  <speed>0.0</speed>
  <fix>3d</fix>
</trkpt>
<trkpt lat="40.072842" lon="-105.230575">
  <ele>1586.09</ele>
  <time>2026-08-27T18:25:32Z</time>
  <course>11.7</course>
  <speed>0.03605551275463989</speed>
  <fix>3d</fix>
</trkpt>
<trkpt lat="40.072842" lon="-105.230575">
  <ele>1586.09</ele>
  <time>2026-08-27T18:25:32Z</time>
  <course>266.03</course>
  <speed>0.0</speed>
  <fix>3d</fix>
</trkpt>
<trkpt lat="40.072842" lon="-105.230575">
  <ele>1586.09</ele>
  <time>2026-08-27T18:25:32Z</time>
  <course>11.69</course>
  <speed>0.03605551275463989</speed>
  <fix>3d</fix>
</trkpt>
<trkpt lat="40.072842" lon="-105.230575">
  <ele>1586.09</ele>
  <time>2026-08-27T18:25:32Z</time>
  <course>266.03</course>
  <speed>0.0</speed>
  <fix>3d</fix>
</trkpt>
<trkpt lat="40.072842" lon="-105.230575">
  <ele>1586.09</ele>
  <time>2026-08-27T18:25:32Z</time>
  <course>11.68</course>
  <speed>0.03605551275463989</speed>
  <fix>3d</fix>
</trkpt>
<trkpt lat="40.072842" lon="-105.230575">
  <ele>1586.09</ele>
  <time>2026-08-27T18:25:32Z</time>
  <course>266.03</course>
  <speed>0.0</speed>
  <fix>3d</fix>
</trkpt>
<trkpt lat="40.072842" lon="-105.230575">
  <ele>1586.09</ele>
  <time>2026-08-27T18:25:32Z</time>
  <course>11.68</course>
  <speed>0.03605551275463989</speed>
  <fix>3d</fix>
</trkpt>
<trkpt lat="40.072842" lon="-105.230575">
  <ele>1586.09</ele>
  <time>2026-08-27T18:25:32Z</time>
  <course>266.03</course>
  <speed>0.0</speed>
  <fix>3d</fix>
</trkpt>
<trkpt lat="40.072842" lon="-105.230575">
  <ele>1586.09</ele>
  <time>2026-08-27T18:25:32Z</time>
  <course>11.67</course>
  <speed>0.03605551275463989</speed>
  <fix>3d</fix>
</trkpt>
<trkpt lat="40.072842" lon="-105.230575">
  <ele>1586.09</ele>
  <time>2026-08-27T18:25:32Z</time>
  <course>266.03</course>
  <speed>0.0</speed>
  <fix>3d</fix>
</trkpt>
<trkpt lat="40.072842" lon="-105.230575">
  <ele>1586.09</ele>
  <time>2026-08-27T18:25:32Z</time>
  <course>11.66</course>
  <speed>0.03605551275463989</speed>
  <fix>3d</fix>
</trkpt>
<trkpt lat="40.072842" lon="-105.230575">
  <ele>1586.09</ele>
  <time>2026-08-27T18:25:32Z</time>
  <course>266.03</course>
  <speed>0.0</speed>
  <fix>3d</fix>
</trkpt>
<trkpt lat="40.072842" lon="-105.230575">
  <ele>1586.09</ele>
  <time>2026-08-27T18:25:32Z</time>
  <course>11.65</course>
  <speed>0.03605551275463989</speed>
  <fix>3d</fix>
</trkpt>
<trkpt lat="40.072842" lon="-105.230575">
  <ele>1586.09</ele>
  <time>2026-08-27T18:25:32Z</time>
  <course>266.03</course>
  <speed>0.0</speed>
  <fix>3d</fix>
</trkpt>
<trkpt lat="40.072842" lon="-105.230575">
  <ele>1586.09</ele>
  <time>2026-08-27T18:25:32Z</time>
  <course>11.65</course>
  <speed>0.03605551275463989</speed>
  <fix>3d</fix>
</trkpt>
<trkpt lat="40.072842" lon="-105.230575">
  <ele>1586.09</ele>
  <time>2026-08-27T18:25:32Z</time>
  <course>266.03</course>
  <speed>0.0</speed>
  <fix>3d</fix>
</trkpt>
<trkpt lat="40.072842" lon="-105.230575">
  <ele>1586.09</ele>
  <time>2026-08-27T18:25:32Z</time>
  <course>11.64</course>
  <speed>0.03605551275463989</speed>
  <fix>3d</fix>
</trkpt>
<trkpt lat="40.072842" lon="-105.230575">
  <ele>1586.09</ele>
  <time>2026-08-27T18:25:32Z</time>
  <course>266.03</course>
  <speed>0.0</speed>
  <fix>3d</fix>
</trkpt>
<trkpt lat="40.072842" lon="-105.230575">
  <ele>1586.09</ele>
  <time>2026-08-27T18:25:32Z</time>
  <course>11.63</course>
  <speed>0.03605551275463989</speed>
  <fix>3d</fix>
</trkpt>
<trkpt lat="40.072842" lon="-105.230575">
  <ele>1586.09</ele>
  <time>2026-08-27T18:25:32Z</time>
  <course>266.03</course>
  <speed>0.0</speed>
  <fix>3d</fix>
</trkpt>
<trkpt lat="40.072842" lon="-105.230575">
  <ele>1586.09</ele>
  <time>2026-08-27T18:25:32Z</time>
  <course>11.63</course>
  <speed>0.03605551275463989</speed>
  <fix>3d</fix>
</trkpt>
<trkpt lat="40.072842" lon="-105.230575">
  <ele>1586.09</ele>
  <time>2026-08-27T18:25:32Z</time>
  <course>266.03</course>
  <speed>0.0</speed>
  <fix>3d</fix>
</trkpt>
<trkpt lat="40.072842" lon="-105.230575">
  <ele>1586.09</ele>
  <time>2026-08-27T18:25:32Z</time>
  <course>11.62</course>
  <speed>0.03605551275463989</speed>
  <fix>3d</fix>
</trkpt>
<trkpt lat="40.072842" lon="-105.230575">
  <ele>1586.09</ele>
  <time>2026-08-27T18:25:32Z</time>
  <course>266.03</course>
  <speed>0.0</speed>
  <fix>3d</fix>
</trkpt>
<trkpt lat="40.072842" lon="-105.230575">
  <ele>1586.09</ele>
  <time>2026-08-27T18:25:32Z</time>
  <course>11.61</course>
  <speed>0.03605551275463989</speed>
  <fix>3d</fix>
</trkpt>
<trkpt lat="40.072842" lon="-105.230575">
  <ele>1586.09</ele>
  <time>2026-08-27T18:25:32Z</time>
  <course>266.03</course>
  <speed>0.0</speed>
  <fix>3d</fix>
</trkpt>
<trkpt lat="40.072842" lon="-105.230575">
  <ele>1586.09</ele>
  <time>2026-08-27T18:25:32Z</time>
  <course>11.61</course>
  <speed>0.03605551275463989</speed>
  <fix>3d</fix>
</trkpt>
<trkpt lat="40.072842" lon="-105.230575">
  <ele>1586.09</ele>
  <time>2026-08-27T18:25:32Z</time>
  <course>266.03</course>
  <speed>0.0</speed>
  <fix>3d</fix>
</trkpt>
<trkpt lat="40.072842" lon="-105.230575">
  <ele>1586.09</ele>
  <time>2026-08-27T18:25:32Z</time>
  <course>11.6</course>
  <speed>0.03605551275463989</speed>
  <fix>3d</fix>
</trkpt>
<trkpt lat="40.072842" lon="-105.230575">
  <ele>1586.09</ele>
  <time>2026-08-27T18:25:32Z</time>
  <course>266.03</course>
  <speed>0.0</speed>
  <fix>3d</fix>
</trkpt>
<trkpt lat="40.072842" lon="-105.230575">
  <ele>1586.09</ele>
  <time>2026-08-27T18:25:32Z</time>
  <course>11.6</course>
  <speed>0.03605551275463989</speed>
  <fix>3d</fix>
</trkpt>
<trkpt lat="40.072842" lon="-105.230575">
  <ele>1586.09</ele>
  <time>2026-08-27T18:25:32Z</time>
  <course>266.03</course>
  <speed>0.0</speed>
  <fix>3d</fix>
</trkpt>
<trkpt lat="40.072842" lon="-105.230575">
  <ele>1586.09</ele>
  <time>2026-08-27T18:25:32Z</time>
  <course>11.59</course>
  <speed>0.03605551275463989</speed>
  <fix>3d</fix>
</trkpt>
<trkpt lat="40.072842" lon="-105.230575">
  <ele>1586.09</ele>
  <time>2026-08-27T18:25:32Z</time>
  <course>266.03</course>
  <speed>0.0</speed>
  <fix>3d</fix>
</trkpt>
<trkpt lat="40.072842" lon="-105.230575">
  <ele>1586.09</ele>
  <time>2026-08-27T18:25:32Z</time>
  <course>11.58</course>
  <speed>0.03605551275463989</speed>
  <fix>3d</fix>
</trkpt>
<trkpt lat="40.072842" lon="-105.230575">
  <ele>1586.09</ele>
  <time>2026-08-27T18:25:32Z</time>
  <course>266.03</course>
  <speed>0.0</speed>
  <fix>3d</fix>
</trkpt>
<trkpt lat="40.072842" lon="-105.230575">
  <ele>1586.09</ele>
  <time>2026-08-27T18:25:32Z</time>
  <course>11.58</course>
  <speed>0.03605551275463989</speed>
  <fix>3d</fix>
</trkpt>
<trkpt lat="40.072842" lon="-105.230575">
  <ele>1586.09</ele>
  <time>2026-08-27T18:25:32Z</time>
  <course>266.03</course>
  <speed>0.0</speed>
  <fix>3d</fix>
</trkpt>
<trkpt lat="40.072842" lon="-105.230575">
  <ele>1586.09</ele>
  <time>2026-08-27T18:25:32Z</time>
  <course>11.57</course>
  <speed>0.03605551275463989</speed>
  <fix>3d</fix>
</trkpt>
<trkpt lat="40.072842" lon="-105.230575">
  <ele>1586.09</ele>
  <time>2026-08-27T18:25:32Z</time>
  <course>266.03</course>
  <speed>0.0</speed>
  <fix>3d</fix>
</trkpt>
<trkpt lat="40.072842" lon="-105.230575">
  <ele>1586.09</ele>
  <time>2026-08-27T18:25:32Z</time>
  <course>11.56</course>
  <speed>0.03605551275463989</speed>
  <fix>3d</fix>
</trkpt>
<trkpt lat="40.072842" lon="-105.230575">
  <ele>1586.09</ele>
  <time>2026-08-27T18:25:32Z</time>
  <course>266.03</course>
  <speed>0.0</speed>
  <fix>3d</fix>
</trkpt>
<trkpt lat="40.072842" lon="-105.230575">
  <ele>1586.09</ele>
  <time>2026-08-27T18:25:32Z</time>
  <course>11.56</course>
  <speed>0.03605551275463989</speed>
  <fix>3d</fix>
</trkpt>
<trkpt lat="40.072842" lon="-105.230575">
  <ele>1586.09</ele>
  <time>2026-08-27T18:25:32Z</time>
  <course>266.03</course>
  <speed>0.0</speed>
  <fix>3d</fix>
</trkpt>
<trkpt lat="40.072842" lon="-105.230575">
  <ele>1586.09</ele>
  <time>2026-08-27T18:25:32Z</time>
  <course>11.55</course>
  <speed>0.03605551275463989</speed>
  <fix>3d</fix>
</trkpt>
<trkpt lat="40.072842" lon="-105.230575">
  <ele>1586.09</ele>
  <time>2026-08-27T18:25:32Z</time>
  <course>266.03</course>
  <speed>0.0</speed>
  <fix>3d</fix>
</trkpt>
<trkpt lat="40.072842" lon="-105.230575">
  <ele>1586.09</ele>
  <time>2026-08-27T18:25:32Z</time>
  <course>11.55</course>
  <speed>0.03605551275463989</speed>
  <fix>3d</fix>
</trkpt>
<trkpt lat="40.072842" lon="-105.230575">
  <ele>1586.09</ele>
  <time>2026-08-27T18:25:32Z</time>
  <course>266.03</course>
  <speed>0.0</speed>
  <fix>3d</fix>
</trkpt>
<trkpt lat="40.072842" lon="-105.230575">
  <ele>1586.09</ele>
  <time>2026-08-27T18:25:32Z</time>
  <course>11.54</course>
  <speed>0.03605551275463989</speed>
  <fix>3d</fix>
</trkpt>
<trkpt lat="40.072842" lon="-105.230575">
  <ele>1586.09</ele>
  <time>2026-08-27T18:25:32Z</time>
  <course>266.03</course>
  <speed>0.0</speed>
  <fix>3d</fix>
</trkpt>
<trkpt lat="40.072842" lon="-105.230575">
  <ele>1586.09</ele>
  <time>2026-08-27T18:25:32Z</time>
  <course>11.53</course>
  <speed>0.03605551275463989</speed>
  <fix>3d</fix>
</trkpt>
<trkpt lat="40.072842" lon="-105.230575">
  <ele>1586.09</ele>
  <time>2026-08-27T18:25:32Z</time>
  <course>266.03</course>
  <speed>0.0</speed>
  <fix>3d</fix>
</trkpt>
<trkpt lat="40.072842" lon="-105.230575">
  <ele>1586.09</ele>
  <time>2026-08-27T18:25:32Z</time>
  <course>11.53</course>
  <speed>0.03605551275463989</speed>
  <fix>3d</fix>
</trkpt>
<trkpt lat="40.072842" lon="-105.230575">
  <ele>1586.09</ele>
  <time>2026-08-27T18:25:32Z</time>
  <course>266.03</course>
  <speed>0.0</speed>
  <fix>3d</fix>
</trkpt>
<trkpt lat="40.072842" lon="-105.230575">
  <ele>1586.09</ele>
  <time>2026-08-27T18:25:32Z</time>
  <course>11.52</course>
  <speed>0.03605551275463989</speed>
  <fix>3d</fix>
</trkpt>
<trkpt lat="40.072842" lon="-105.230575">
  <ele>1586.09</ele>
  <time>2026-08-27T18:25:32Z</time>
  <course>266.03</course>
  <speed>0.0</speed>
  <fix>3d</fix>
</trkpt>
<trkpt lat="40.072842" lon="-105.230575">
  <ele>1586.09</ele>
  <time>2026-08-27T18:25:32Z</time>
  <course>11.52</course>
  <speed>0.03605551275463989</speed>
  <fix>3d</fix>
</trkpt>
<trkpt lat="40.072842" lon="-105.230575">
  <ele>1586.09</ele>
  <time>2026-08-27T18:25:32Z</time>
  <course>266.03</course>
  <speed>0.0</speed>
  <fix>3d</fix>
</trkpt>
<trkpt lat="40.072842" lon="-105.230575">
  <ele>1586.09</ele>
  <time>2026-08-27T18:25:32Z</time>
  <course>11.51</course>
  <speed>0.03605551275463989</speed>
  <fix>3d</fix>
</trkpt>
<trkpt lat="40.072842" lon="-105.230575">
  <ele>1586.09</ele>
  <time>2026-08-27T18:25:32Z</time>
  <course>266.03</course>
  <speed>0.0</speed>
  <fix>3d</fix>
</trkpt>
<trkpt lat="40.072842" lon="-105.230575">
  <ele>1586.09</ele>
  <time>2026-08-27T18:25:32Z</time>
  <course>11.51</course>
  <speed>0.03605551275463989</speed>
  <fix>3d</fix>
</trkpt>
<trkpt lat="40.072842" lon="-105.230575">
  <ele>1586.09</ele>
  <time>2026-08-27T18:25:32Z</time>
  <course>266.03</course>
  <speed>0.0</speed>
  <fix>3d</fix>
</trkpt>
<trkpt lat="40.072842" lon="-105.230575">
  <ele>1586.09</ele>
  <time>2026-08-27T18:25:32Z</time>
  <course>11.5</course>
  <speed>0.044721359549995794</speed>
  <fix>3d</fix>
</trkpt>
<trkpt lat="40.072842" lon="-105.230575">
  <ele>1586.09</ele>
  <time>2026-08-27T18:25:32Z</time>
  <course>266.03</course>
  <speed>0.0</speed>
  <fix>3d</fix>
</trkpt>
<trkpt lat="40.072842" lon="-105.230575">
  <ele>1586.09</ele>
  <time>2026-08-27T18:25:32Z</time>
  <course>11.49</course>
  <speed>0.044721359549995794</speed>
  <fix>3d</fix>
</trkpt>
<trkpt lat="40.072842" lon="-105.230575">
  <ele>1586.09</ele>
  <time>2026-08-27T18:25:32Z</time>
  <course>266.03</course>
  <speed>0.0</speed>
  <fix>3d</fix>
</trkpt>
<trkpt lat="40.072842" lon="-105.230575">
  <ele>1586.09</ele>
  <time>2026-08-27T18:25:32Z</time>
  <course>11.49</course>
  <speed>0.044721359549995794</speed>
  <fix>3d</fix>
</trkpt>
<trkpt lat="40.072842" lon="-105.230575">
  <ele>1586.09</ele>
  <time>2026-08-27T18:25:32Z</time>
  <course>266.03</course>
  <speed>0.0</speed>
  <fix>3d</fix>
</trkpt>
<trkpt lat="40.072842" lon="-105.230575">
  <ele>1586.09</ele>
  <time>2026-08-27T18:25:32Z</time>
  <course>11.48</course>
  <speed>0.044721359549995794</speed>
  <fix>3d</fix>
</trkpt>
<trkpt lat="40.072842" lon="-105.230575">
  <ele>1586.09</ele>
  <time>2026-08-27T18:25:32Z</time>
  <course>266.03</course>
  <speed>0.0</speed>
  <fix>3d</fix>
</trkpt>
<trkpt lat="40.072842" lon="-105.230575">
  <ele>1586.09</ele>
  <time>2026-08-27T18:25:32Z</time>
  <course>11.48</course>
  <speed>0.044721359549995794</speed>
  <fix>3d</fix>
</trkpt>
<trkpt lat="40.072842" lon="-105.230575">
  <ele>1586.09</ele>
  <time>2026-08-27T18:25:32Z</time>
  <course>266.03</course>
  <speed>0.0</speed>
  <fix>3d</fix>
</trkpt>
<trkpt lat="40.072842" lon="-105.230575">
  <ele>1586.09</ele>
  <time>2026-08-27T18:25:32Z</time>
  <course>11.47</course>
  <speed>0.044721359549995794</speed>
  <fix>3d</fix>
</trkpt>
<trkpt lat="40.072842" lon="-105.230575">
  <ele>1586.09</ele>
  <time>2026-08-27T18:25:32Z</time>
  <course>266.03</course>
  <speed>0.0</speed>
  <fix>3d</fix>
</trkpt>
<trkpt lat="40.072842" lon="-105.230575">
  <ele>1586.09</ele>
  <time>2026-08-27T18:25:32Z</time>
  <course>11.47</course>
  <speed>0.044721359549995794</speed>
  <fix>3d</fix>
</trkpt>
<trkpt lat="40.072842" lon="-105.230575">
  <ele>1586.09</ele>
  <time>2026-08-27T18:25:32Z</time>
  <course>266.03</course>
  <speed>0.0</speed>
  <fix>3d</fix>
</trkpt>
<trkpt lat="40.072842" lon="-105.230575">
  <ele>1586.09</ele>
  <time>2026-08-27T18:25:32Z</time>
  <course>11.47</course>
  <speed>0.044721359549995794</speed>
  <fix>3d</fix>
</trkpt>
<trkpt lat="40.072842" lon="-105.230575">
  <ele>1586.09</ele>
  <time>2026-08-27T18:25:32Z</time>
  <course>266.03</course>
  <speed>0.0</speed>
  <fix>3d</fix>
</trkpt>
<trkpt lat="40.072842" lon="-105.230575">
  <ele>1586.09</ele>
  <time>2026-08-27T18:25:32Z</time>
  <course>11.46</course>
  <speed>0.044721359549995794</speed>
  <fix>3d</fix>
</trkpt>
<trkpt lat="40.072842" lon="-105.230575">
  <ele>1586.09</ele>
  <time>2026-08-27T18:25:32Z</time>
  <course>266.03</course>
  <speed>0.0</speed>
  <fix>3d</fix>
</trkpt>
<trkpt lat="40.072842" lon="-105.230575">
  <ele>1586.16</ele>
  <time>2026-08-27T18:25:32Z</time>
  <course>11.45</course>
  <speed>0.0</speed>
  <fix>3d</fix>
</trkpt>
<trkpt lat="40.072842" lon="-105.230575">
  <ele>1586.09</ele>
  <time>2026-08-27T18:25:32Z</time>
  <course>297.19</course>
  <speed>0.0</speed>
  <fix>3d</fix>
</trkpt>
<trkpt lat="40.072842" lon="-105.230575">
  <ele>1586.16</ele>
  <time>2026-08-27T18:25:32Z</time>
  <course>11.45</course>
  <speed>0.0</speed>
  <fix>3d</fix>
</trkpt>
<trkpt lat="40.072842" lon="-105.230575">
  <ele>1586.09</ele>
  <time>2026-08-27T18:25:32Z</time>
  <course>269.87</course>
  <speed>0.0</speed>
  <fix>3d</fix>
</trkpt>
<trkpt lat="40.072842" lon="-105.230575">
  <ele>1586.16</ele>
  <time>2026-08-27T18:25:32Z</time>
  <course>11.44</course>
  <speed>0.0</speed>
  <fix>3d</fix>
</trkpt>
<trkpt lat="40.072842" lon="-105.230575">
  <ele>1586.09</ele>
  <time>2026-08-27T18:25:32Z</time>
  <course>241.23</course>
  <speed>0.0</speed>
  <fix>3d</fix>
</trkpt>
<trkpt lat="40.072842" lon="-105.230575">
  <ele>1586.16</ele>
  <time>2026-08-27T18:25:32Z</time>
  <course>11.44</course>
  <speed>0.0</speed>
  <fix>3d</fix>
</trkpt>
<trkpt lat="40.072842" lon="-105.230575">
  <ele>1586.09</ele>
  <time>2026-08-27T18:25:32Z</time>
  <course>93.08</course>
  <speed>0.0</speed>
  <fix>3d</fix>
</trkpt>
<trkpt lat="40.072842" lon="-105.230575">
  <ele>1586.17</ele>
  <time>2026-08-27T18:25:32Z</time>
  <course>11.44</course>
  <speed>0.0</speed>
  <fix>3d</fix>
</trkpt>
<trkpt lat="40.072842" lon="-105.230575">
  <ele>1586.09</ele>
  <time>2026-08-27T18:25:32Z</time>
  <course>317.31</course>
  <speed>0.0</speed>
  <fix>3d</fix>
</trkpt>
<trkpt lat="40.072842" lon="-105.230575">
  <ele>1586.17</ele>
  <time>2026-08-27T18:25:32Z</time>
  <course>11.43</course>
  <speed>0.01</speed>
  <fix>3d</fix>
</trkpt>
<trkpt lat="40.072842" lon="-105.230575">
  <ele>1586.09</ele>
  <time>2026-08-27T18:25:32Z</time>
  <course>265.24</course>
  <speed>0.0</speed>
  <fix>3d</fix>
</trkpt>
<trkpt lat="40.072842" lon="-105.230575">
  <ele>1586.17</ele>
  <time>2026-08-27T18:25:32Z</time>
  <course>11.43</course>
  <speed>0.01</speed>
  <fix>3d</fix>
</trkpt>
<trkpt lat="40.072842" lon="-105.230575">
  <ele>1586.09</ele>
  <time>2026-08-27T18:25:32Z</time>
  <course>261.76</course>
  <speed>0.0</speed>
  <fix>3d</fix>
</trkpt>
<trkpt lat="40.072842" lon="-105.230575">
  <ele>1586.17</ele>
  <time>2026-08-27T18:25:32Z</time>
  <course>11.42</course>
  <speed>0.01</speed>
  <fix>3d</fix>
</trkpt>
<trkpt lat="40.072842" lon="-105.230575">
  <ele>1586.09</ele>
  <time>2026-08-27T18:25:32Z</time>
  <course>266.78</course>
  <speed>0.0</speed>
  <fix>3d</fix>
</trkpt>
<trkpt lat="40.072842" lon="-105.230575">
  <ele>1586.17</ele>
  <time>2026-08-27T18:25:32Z</time>
  <course>11.42</course>
  <speed>0.01414213562373095</speed>
  <fix>3d</fix>
</trkpt>
<trkpt lat="40.072842" lon="-105.230575">
  <ele>1586.09</ele>
  <time>2026-08-27T18:25:32Z</time>
  <course>266.53</course>
  <speed>0.0</speed>
  <fix>3d</fix>
</trkpt>
<trkpt lat="40.072842" lon="-105.230575">
  <ele>1586.17</ele>
  <time>2026-08-27T18:25:32Z</time>
  <course>11.42</course>
  <speed>0.01414213562373095</speed>
  <fix>3d</fix>
</trkpt>
<trkpt lat="40.072842" lon="-105.230575">
  <ele>1586.09</ele>
  <time>2026-08-27T18:25:32Z</time>
  <course>265.88</course>
  <speed>0.0</speed>
  <fix>3d</fix>
</trkpt>
<trkpt lat="40.072842" lon="-105.230575">
  <ele>1586.17</ele>
  <time>2026-08-27T18:25:32Z</time>
  <course>11.41</course>
  <speed>0.01414213562373095</speed>
  <fix>3d</fix>
</trkpt>
<trkpt lat="40.072842" lon="-105.230575">
  <ele>1586.09</ele>
  <time>2026-08-27T18:25:32Z</time>
  <course>265.99</course>
  <speed>0.0</speed>
  <fix>3d</fix>
</trkpt>
<trkpt lat="40.072842" lon="-105.230575">
  <ele>1586.17</ele>
  <time>2026-08-27T18:25:32Z</time>
  <course>11.41</course>
  <speed>0.022360679774997897</speed>
  <fix>3d</fix>
</trkpt>
<trkpt lat="40.072842" lon="-105.230575">
  <ele>1586.09</ele>
  <time>2026-08-27T18:25:32Z</time>
  <course>266.06</course>
  <speed>0.0</speed>
  <fix>3d</fix>
</trkpt>
<trkpt lat="40.072842" lon="-105.230575">
  <ele>1586.17</ele>
  <time>2026-08-27T18:25:32Z</time>
  <course>11.4</course>
  <speed>0.022360679774997897</speed>
  <fix>3d</fix>
</trkpt>
<trkpt lat="40.072842" lon="-105.230575">
  <ele>1586.09</ele>
  <time>2026-08-27T18:25:32Z</time>
  <course>266.04</course>
  <speed>0.0</speed>
  <fix>3d</fix>
</trkpt>
<trkpt lat="40.072842" lon="-105.230575">
  <ele>1586.17</ele>
  <time>2026-08-27T18:25:32Z</time>
  <course>11.4</course>
  <speed>0.022360679774997897</speed>
  <fix>3d</fix>
</trkpt>
<trkpt lat="40.072842" lon="-105.230575">
  <ele>1586.09</ele>
  <time>2026-08-27T18:25:32Z</time>
  <course>266.03</course>
  <speed>0.0</speed>
  <fix>3d</fix>
</trkpt>
<trkpt lat="40.072842" lon="-105.230575">
  <ele>1586.17</ele>
  <time>2026-08-27T18:25:32Z</time>
  <course>11.4</course>
  <speed>0.022360679774997897</speed>
  <fix>3d</fix>
</trkpt>
<trkpt lat="40.072842" lon="-105.230575">
  <ele>1586.09</ele>
  <time>2026-08-27T18:25:32Z</time>
  <course>266.04</course>
  <speed>0.0</speed>
  <fix>3d</fix>
</trkpt>
<trkpt lat="40.0728419" lon="-105.230575">
  <ele>1586.17</ele>
  <time>2026-08-27T18:25:32Z</time>
  <course>11.39</course>
  <speed>0.022360679774997897</speed>
  <fix>3d</fix>
</trkpt>
<trkpt lat="40.072842" lon="-105.230575">
  <ele>1586.09</ele>
  <time>2026-08-27T18:25:32Z</time>
  <course>266.04</course>
  <speed>0.0</speed>
  <fix>3d</fix>
</trkpt>
<trkpt lat="40.0728419" lon="-105.230575">
  <ele>1586.17</ele>
  <time>2026-08-27T18:25:32Z</time>
  <course>11.39</course>
  <speed>0.022360679774997897</speed>
  <fix>3d</fix>
</trkpt>
<trkpt lat="40.072842" lon="-105.230575">
  <ele>1586.09</ele>
  <time>2026-08-27T18:25:32Z</time>
  <course>266.03</course>
  <speed>0.0</speed>
  <fix>3d</fix>
</trkpt>
<trkpt lat="40.0728419" lon="-105.2305749">
  <ele>1586.17</ele>
  <time>2026-08-27T18:25:32Z</time>
  <course>11.38</course>
  <speed>0.022360679774997897</speed>
  <fix>3d</fix>
</trkpt>
<trkpt lat="40.072842" lon="-105.230575">
  <ele>1586.09</ele>
  <time>2026-08-27T18:25:32Z</time>
  <course>266.03</course>
  <speed>0.0</speed>
  <fix>3d</fix>
</trkpt>
<trkpt lat="40.0728419" lon="-105.2305749">
  <ele>1586.18</ele>
  <time>2026-08-27T18:25:32Z</time>
  <course>11.38</course>
  <speed>0.022360679774997897</speed>
  <fix>3d</fix>
</trkpt>
<trkpt lat="40.072842" lon="-105.230575">
  <ele>1586.09</ele>
  <time>2026-08-27T18:25:32Z</time>
  <course>266.04</course>
  <speed>0.0</speed>
  <fix>3d</fix>
</trkpt>
<trkpt lat="40.0728419" lon="-105.2305749">
  <ele>1586.18</ele>
  <time>2026-08-27T18:25:32Z</time>
  <course>11.37</course>
  <speed>0.022360679774997897</speed>
  <fix>3d</fix>
</trkpt>
<trkpt lat="40.072842" lon="-105.230575">
  <ele>1586.09</ele>
  <time>2026-08-27T18:25:32Z</time>
  <course>266.04</course>
  <speed>0.0</speed>
  <fix>3d</fix>
</trkpt>
<trkpt lat="40.0728419" lon="-105.2305749">
  <ele>1586.18</ele>
  <time>2026-08-27T18:25:32Z</time>
  <course>11.37</course>
  <speed>0.022360679774997897</speed>
  <fix>3d</fix>
</trkpt>
<trkpt lat="40.072842" lon="-105.230575">
  <ele>1586.09</ele>
  <time>2026-08-27T18:25:32Z</time>
  <course>178.09</course>
  <speed>0.0</speed>
  <fix>3d</fix>
</trkpt>
<trkpt lat="40.0728419" lon="-105.2305749">
  <ele>1586.17</ele>
  <time>2026-08-27T18:25:32Z</time>
  <course>11.37</course>
  <speed>0.022360679774997897</speed>
  <fix>3d</fix>
</trkpt>
<trkpt lat="40.072842" lon="-105.230575">
  <ele>1586.09</ele>
  <time>2026-08-27T18:25:32Z</time>
  <course>83.41</course>
  <speed>0.0</speed>
  <fix>3d</fix>
</trkpt>
<trkpt lat="40.0728419" lon="-105.2305749">
  <ele>1586.17</ele>
  <time>2026-08-27T18:25:32Z</time>
  <course>11.36</course>
  <speed>0.022360679774997897</speed>
  <fix>3d</fix>
</trkpt>
<trkpt lat="40.072842" lon="-105.230575">
  <ele>1586.09</ele>
  <time>2026-08-27T18:25:32Z</time>
  <course>70.9</course>
  <speed>0.0</speed>
  <fix>3d</fix>
</trkpt>
<trkpt lat="40.0728419" lon="-105.2305749">
  <ele>1586.17</ele>
  <time>2026-08-27T18:25:32Z</time>
  <course>11.36</course>
  <speed>0.01414213562373095</speed>
  <fix>3d</fix>
</trkpt>
<trkpt lat="40.072842" lon="-105.230575">
  <ele>1586.09</ele>
  <time>2026-08-27T18:25:32Z</time>
  <course>280.14</course>
  <speed>0.0</speed>
  <fix>3d</fix>
</trkpt>
<trkpt lat="40.0728419" lon="-105.2305749">
  <ele>1586.17</ele>
  <time>2026-08-27T18:25:32Z</time>
  <course>11.35</course>
  <speed>0.01414213562373095</speed>
  <fix>3d</fix>
</trkpt>
<trkpt lat="40.072842" lon="-105.230575">
  <ele>1586.09</ele>
  <time>2026-08-27T18:25:32Z</time>
  <course>244.21</course>
  <speed>0.0</speed>
  <fix>3d</fix>
</trkpt>
<trkpt lat="40.0728419" lon="-105.2305749">
  <ele>1586.17</ele>
  <time>2026-08-27T18:25:32Z</time>
  <course>11.35</course>
  <speed>0.01</speed>
  <fix>3d</fix>
</trkpt>
<trkpt lat="40.072842" lon="-105.230575">
  <ele>1586.09</ele>
  <time>2026-08-27T18:25:32Z</time>
  <course>107.59</course>
  <speed>0.0</speed>
  <fix>3d</fix>
</trkpt>
<trkpt lat="40.0728419" lon="-105.2305749">
  <ele>1586.17</ele>
  <time>2026-08-27T18:25:32Z</time>
  <course>11.34</course>
  <speed>0.0</speed>
  <fix>3d</fix>
</trkpt>
<trkpt lat="40.072842" lon="-105.230575">
  <ele>1586.09</ele>
  <time>2026-08-27T18:25:32Z</time>
  <course>279.7</course>
  <speed>0.0</speed>
  <fix>3d</fix>
</trkpt>
<trkpt lat="40.0728419" lon="-105.2305749">
  <ele>1586.17</ele>
  <time>2026-08-27T18:25:32Z</time>
  <course>11.34</course>
  <speed>0.0</speed>
  <fix>3d</fix>
</trkpt>
<trkpt lat="40.072842" lon="-105.230575">
  <ele>1586.09</ele>
  <time>2026-08-27T18:25:32Z</time>
  <course>265.61</course>
  <speed>0.0</speed>
  <fix>3d</fix>
</trkpt>
<trkpt lat="40.0728419" lon="-105.2305749">
  <ele>1586.17</ele>
  <time>2026-08-27T18:25:32Z</time>
  <course>11.34</course>
  <speed>0.0</speed>
  <fix>3d</fix>
</trkpt>
<trkpt lat="40.072842" lon="-105.230575">
  <ele>1586.09</ele>
  <time>2026-08-27T18:25:32Z</time>
  <course>300.18</course>
  <speed>0.0</speed>
  <fix>3d</fix>
</trkpt>
<trkpt lat="40.0728419" lon="-105.2305749">
  <ele>1586.17</ele>
  <time>2026-08-27T18:25:32Z</time>
  <course>11.33</course>
  <speed>0.0</speed>
  <fix>3d</fix>
</trkpt>
<trkpt lat="40.072842" lon="-105.230575">
  <ele>1586.09</ele>
  <time>2026-08-27T18:25:32Z</time>
  <course>262.88</course>
  <speed>0.0</speed>
  <fix>3d</fix>
</trkpt>
<trkpt lat="40.0728419" lon="-105.2305749">
  <ele>1586.17</ele>
  <time>2026-08-27T18:25:32Z</time>
  <course>11.33</course>
  <speed>0.0</speed>
  <fix>3d</fix>
</trkpt>
<trkpt lat="40.072842" lon="-105.230575">
  <ele>1586.09</ele>
  <time>2026-08-27T18:25:32Z</time>
  <course>251.8</course>
  <speed>0.0</speed>
  <fix>3d</fix>
</trkpt>
<trkpt lat="40.0728419" lon="-105.2305749">
  <ele>1586.16</ele>
  <time>2026-08-27T18:25:32Z</time>
  <course>11.32</course>
  <speed>0.0</speed>
  <fix>3d</fix>
</trkpt>
<trkpt lat="40.072842" lon="-105.230575">
  <ele>1586.09</ele>
  <time>2026-08-27T18:25:32Z</time>
  <course>109.26</course>
  <speed>0.0</speed>
  <fix>3d</fix>
</trkpt>
<trkpt lat="40.0728419" lon="-105.2305749">
  <ele>1586.16</ele>
  <time>2026-08-27T18:25:32Z</time>
  <course>11.32</course>
  <speed>0.0</speed>
  <fix>3d</fix>
</trkpt>
<trkpt lat="40.072842" lon="-105.230575">
  <ele>1586.09</ele>
  <time>2026-08-27T18:25:32Z</time>
  <course>15.11</course>
  <speed>0.0</speed>
  <fix>3d</fix>
</trkpt>
<trkpt lat="40.0728419" lon="-105.2305749">
  <ele>1586.16</ele>
  <time>2026-08-27T18:25:32Z</time>
  <course>11.32</course>
  <speed>0.0</speed>
  <fix>3d</fix>
</trkpt>
<trkpt lat="40.072842" lon="-105.230575">
  <ele>1586.09</ele>
  <time>2026-08-27T18:25:32Z</time>
  <course>346.33</course>
  <speed>0.0</speed>
  <fix>3d</fix>
</trkpt>
<trkpt lat="40.0728419" lon="-105.2305749">
  <ele>1586.16</ele>
  <time>2026-08-27T18:25:32Z</time>
  <course>11.31</course>
  <speed>0.0</speed>
  <fix>3d</fix>
</trkpt>
<trkpt lat="40.072842" lon="-105.230575">
  <ele>1586.09</ele>
  <time>2026-08-27T18:25:32Z</time>
  <course>327.16</course>
  <speed>0.0</speed>
  <fix>3d</fix>
</trkpt>
<trkpt lat="40.0728419" lon="-105.230575">
  <ele>1586.17</ele>
  <time>2026-08-27T18:25:32Z</time>
  <course>11.3</course>
  <speed>0.0</speed>
  <fix>3d</fix>
</trkpt>
<trkpt lat="40.072842" lon="-105.230575">
  <ele>1586.09</ele>
  <time>2026-08-27T18:25:32Z</time>
  <course>294.19</course>
  <speed>0.0</speed>
  <fix>3d</fix>
</trkpt>
<trkpt lat="40.072842" lon="-105.230575">
  <ele>1586.17</ele>
  <time>2026-08-27T18:25:32Z</time>
  <course>11.3</course>
  <speed>0.0</speed>
  <fix>3d</fix>
</trkpt>
<trkpt lat="40.072842" lon="-105.230575">
  <ele>1586.09</ele>
  <time>2026-08-27T18:25:32Z</time>
  <course>165.6</course>
  <speed>0.0</speed>
  <fix>3d</fix>
</trkpt>
<trkpt lat="40.072842" lon="-105.230575">
  <ele>1586.17</ele>
  <time>2026-08-27T18:25:32Z</time>
  <course>11.29</course>
  <speed>0.0</speed>
  <fix>3d</fix>
</trkpt>
<trkpt lat="40.072842" lon="-105.230575">
  <ele>1586.09</ele>
  <time>2026-08-27T18:25:32Z</time>
  <course>300.67</course>
  <speed>0.0</speed>
  <fix>3d</fix>
</trkpt>
<trkpt lat="40.072842" lon="-105.230575">
  <ele>1586.17</ele>
  <time>2026-08-27T18:25:32Z</time>
  <course>11.28</course>
  <speed>0.0</speed>
  <fix>3d</fix>
</trkpt>
<trkpt lat="40.072842" lon="-105.230575">
  <ele>1586.09</ele>
  <time>2026-08-27T18:25:32Z</time>
  <course>292.21</course>
  <speed>0.0</speed>
  <fix>3d</fix>
</trkpt>
<trkpt lat="40.0728419" lon="-105.230575">
  <ele>1586.17</ele>
  <time>2026-08-27T18:25:32Z</time>
  <course>11.26</course>
  <speed>0.0</speed>
  <fix>3d</fix>
</trkpt>
<trkpt lat="40.072842" lon="-105.230575">
  <ele>1586.09</ele>
  <time>2026-08-27T18:25:32Z</time>
  <course>272.38</course>
  <speed>0.0</speed>
  <fix>3d</fix>
</trkpt>
<trkpt lat="40.0728419" lon="-105.2305749">
  <ele>1586.16</ele>
  <time>2026-08-27T18:25:32Z</time>
  <course>11.25</course>
  <speed>0.0</speed>
  <fix>3d</fix>
</trkpt>
<trkpt lat="40.072842" lon="-105.230575">
  <ele>1586.09</ele>
  <time>2026-08-27T18:25:32Z</time>
  <course>237.79</course>
  <speed>0.0</speed>
  <fix>3d</fix>
</trkpt>
<trkpt lat="40.0728419" lon="-105.2305749">
  <ele>1586.16</ele>
  <time>2026-08-27T18:25:32Z</time>
  <course>11.24</course>
  <speed>0.0</speed>
  <fix>3d</fix>
</trkpt>
<trkpt lat="40.072842" lon="-105.230575">
  <ele>1586.09</ele>
  <time>2026-08-27T18:25:32Z</time>
  <course>71.84</course>
  <speed>0.0</speed>
  <fix>3d</fix>
</trkpt>
<trkpt lat="40.0728419" lon="-105.2305749">
  <ele>1586.16</ele>
  <time>2026-08-27T18:25:32Z</time>
  <course>11.22</course>
  <speed>0.0</speed>
  <fix>3d</fix>
</trkpt>
<trkpt lat="40.072842" lon="-105.230575">
  <ele>1586.09</ele>
  <time>2026-08-27T18:25:32Z</time>
  <course>325.74</course>
  <speed>0.0</speed>
  <fix>3d</fix>
</trkpt>
<trkpt lat="40.0728419" lon="-105.2305749">
  <ele>1586.16</ele>
  <time>2026-08-27T18:25:32Z</time>
  <course>11.2</course>
  <speed>0.0</speed>
  <fix>3d</fix>
</trkpt>
<trkpt lat="40.072842" lon="-105.230575">
  <ele>1586.09</ele>
  <time>2026-08-27T18:25:32Z</time>
  <course>312.62</course>
  <speed>0.0</speed>
  <fix>3d</fix>
</trkpt>
<trkpt lat="40.0728419" lon="-105.2305749">
  <ele>1586.16</ele>
  <time>2026-08-27T18:25:32Z</time>
  <course>11.18</course>
  <speed>0.0</speed>
  <fix>3d</fix>
</trkpt>
<trkpt lat="40.072842" lon="-105.230575">
  <ele>1586.09</ele>
  <time>2026-08-27T18:25:32Z</time>
  <course>265.87</course>
  <speed>0.0</speed>
  <fix>3d</fix>
</trkpt>
<trkpt lat="40.0728419" lon="-105.2305749">
  <ele>1586.16</ele>
  <time>2026-08-27T18:25:32Z</time>
  <course>11.16</course>
  <speed>0.0</speed>
  <fix>3d</fix>
</trkpt>
<trkpt lat="40.072842" lon="-105.230575">
  <ele>1586.09</ele>
  <time>2026-08-27T18:25:32Z</time>
  <course>263.14</course>
  <speed>0.0</speed>
  <fix>3d</fix>
</trkpt>
<trkpt lat="40.0728419" lon="-105.2305749">
  <ele>1586.17</ele>
  <time>2026-08-27T18:25:32Z</time>
  <course>11.14</course>
  <speed>0.0</speed>
  <fix>3d</fix>
</trkpt>
<trkpt lat="40.072842" lon="-105.230575">
  <ele>1586.09</ele>
  <time>2026-08-27T18:25:32Z</time>
  <course>258.77</course>
  <speed>0.0</speed>
  <fix>3d</fix>
</trkpt>
<trkpt lat="40.0728419" lon="-105.2305749">
  <ele>1586.17</ele>
  <time>2026-08-27T18:25:32Z</time>
  <course>11.11</course>
  <speed>0.0</speed>
  <fix>3d</fix>
</trkpt>
<trkpt lat="40.072842" lon="-105.230575">
  <ele>1586.09</ele>
  <time>2026-08-27T18:25:32Z</time>
  <course>275.88</course>
  <speed>0.0</speed>
  <fix>3d</fix>
</trkpt>
<trkpt lat="40.0728419" lon="-105.2305749">
  <ele>1586.17</ele>
  <time>2026-08-27T18:25:32Z</time>
  <course>11.09</course>
  <speed>0.0</speed>
  <fix>3d</fix>
</trkpt>
<trkpt lat="40.072842" lon="-105.230575">
  <ele>1586.09</ele>
  <time>2026-08-27T18:25:32Z</time>
  <course>275.07</course>
  <speed>0.0</speed>
  <fix>3d</fix>
</trkpt>
<trkpt lat="40.0728419" lon="-105.2305749">
  <ele>1586.17</ele>
  <time>2026-08-27T18:25:32Z</time>
  <course>11.06</course>
  <speed>0.0</speed>
  <fix>3d</fix>
</trkpt>
<trkpt lat="40.072842" lon="-105.230575">
  <ele>1586.09</ele>
  <time>2026-08-27T18:25:32Z</time>
  <course>301.34</course>
  <speed>0.0</speed>
  <fix>3d</fix>
</trkpt>
<trkpt lat="40.0728419" lon="-105.2305749">
  <ele>1586.17</ele>
  <time>2026-08-27T18:25:32Z</time>
  <course>11.04</course>
  <speed>0.01</speed>
  <fix>3d</fix>
</trkpt>
<trkpt lat="40.072842" lon="-105.230575">
  <ele>1586.09</ele>
  <time>2026-08-27T18:25:32Z</time>
  <course>296.87</course>
  <speed>0.0</speed>
  <fix>3d</fix>
</trkpt>
<trkpt lat="40.0728419" lon="-105.2305749">
  <ele>1586.17</ele>
  <time>2026-08-27T18:25:32Z</time>
  <course>11.01</course>
  <speed>0.01</speed>
  <fix>3d</fix>
</trkpt>
<trkpt lat="40.072842" lon="-105.230575">
  <ele>1586.09</ele>
  <time>2026-08-27T18:25:32Z</time>
  <course>266.63</course>
  <speed>0.0</speed>
  <fix>3d</fix>
</trkpt>
<trkpt lat="40.0728419" lon="-105.2305749">
  <ele>1586.17</ele>
  <time>2026-08-27T18:25:32Z</time>
  <course>10.98</course>
  <speed>0.01</speed>
  <fix>3d</fix>
</trkpt>
<trkpt lat="40.072842" lon="-105.230575">
  <ele>1586.09</ele>
  <time>2026-08-27T18:25:32Z</time>
  <course>262.65</course>
  <speed>0.0</speed>
  <fix>3d</fix>
</trkpt>
<trkpt lat="40.0728419" lon="-105.2305749">
  <ele>1586.17</ele>
  <time>2026-08-27T18:25:33Z</time>
  <course>10.95</course>
  <speed>0.01</speed>
  <fix>3d</fix>
</trkpt>
<trkpt lat="40.072842" lon="-105.230575">
  <ele>1586.09</ele>
  <time>2026-08-27T18:25:33Z</time>
  <course>278.33</course>
  <speed>0.0</speed>
  <fix>3d</fix>
</trkpt>
<trkpt lat="40.0728419" lon="-105.2305749">
  <ele>1586.17</ele>
  <time>2026-08-27T18:25:33Z</time>
  <course>10.91</course>
  <speed>0.01</speed>
  <fix>3d</fix>
</trkpt>
<trkpt lat="40.072842" lon="-105.230575">
  <ele>1586.09</ele>
  <time>2026-08-27T18:25:33Z</time>
  <course>273.06</course>
  <speed>0.0</speed>
  <fix>3d</fix>
</trkpt>
<trkpt lat="40.0728419" lon="-105.2305749">
  <ele>1586.17</ele>
  <time>2026-08-27T18:25:33Z</time>
  <course>10.88</course>
  <speed>0.01</speed>
  <fix>3d</fix>
</trkpt>
<trkpt lat="40.072842" lon="-105.230575">
  <ele>1586.09</ele>
  <time>2026-08-27T18:25:33Z</time>
  <course>291.02</course>
  <speed>0.0</speed>
  <fix>3d</fix>
</trkpt>
<trkpt lat="40.0728419" lon="-105.2305749">
  <ele>1586.17</ele>
  <time>2026-08-27T18:25:33Z</time>
  <course>10.85</course>
  <speed>0.01414213562373095</speed>
  <fix>3d</fix>
</trkpt>
<trkpt lat="40.072842" lon="-105.230575">
  <ele>1586.09</ele>
  <time>2026-08-27T18:25:33Z</time>
  <course>283.02</course>
  <speed>0.0</speed>
  <fix>3d</fix>
</trkpt>
<trkpt lat="40.0728419" lon="-105.2305749">
  <ele>1586.17</ele>
  <time>2026-08-27T18:25:33Z</time>
  <course>10.81</course>
  <speed>0.01414213562373095</speed>
  <fix>3d</fix>
</trkpt>
<trkpt lat="40.072842" lon="-105.230575">
  <ele>1586.09</ele>
  <time>2026-08-27T18:25:33Z</time>
  <course>246.08</course>
  <speed>0.0</speed>
  <fix>3d</fix>
</trkpt>
<trkpt lat="40.0728419" lon="-105.2305749">
  <ele>1586.17</ele>
  <time>2026-08-27T18:25:33Z</time>
  <course>10.77</course>
  <speed>0.01414213562373095</speed>
  <fix>3d</fix>
</trkpt>
<trkpt lat="40.072842" lon="-105.230575">
  <ele>1586.09</ele>
  <time>2026-08-27T18:25:33Z</time>
  <course>256.29</course>
  <speed>0.0</speed>
  <fix>3d</fix>
</trkpt>
<trkpt lat="40.0728419" lon="-105.2305749">
  <ele>1586.16</ele>
  <time>2026-08-27T18:25:33Z</time>
  <course>10.73</course>
  <speed>0.01414213562373095</speed>
  <fix>3d</fix>
</trkpt>
<trkpt lat="40.072842" lon="-105.230575">
  <ele>1586.09</ele>
  <time>2026-08-27T18:25:33Z</time>
  <course>279.99</course>
  <speed>0.0</speed>
  <fix>3d</fix>
</trkpt>
<trkpt lat="40.0728419" lon="-105.2305749">
  <ele>1586.16</ele>
  <time>2026-08-27T18:25:33Z</time>
  <course>10.69</course>
  <speed>0.01414213562373095</speed>
  <fix>3d</fix>
</trkpt>
<trkpt lat="40.072842" lon="-105.230575">
  <ele>1586.09</ele>
  <time>2026-08-27T18:25:33Z</time>
  <course>275.5</course>
  <speed>0.0</speed>
  <fix>3d</fix>
</trkpt>
<trkpt lat="40.0728419" lon="-105.2305749">
  <ele>1586.16</ele>
  <time>2026-08-27T18:25:33Z</time>
  <course>10.65</course>
  <speed>0.01414213562373095</speed>
  <fix>3d</fix>
</trkpt>
<trkpt lat="40.072842" lon="-105.230575">
  <ele>1586.09</ele>
  <time>2026-08-27T18:25:33Z</time>
  <course>282.09</course>
  <speed>0.0</speed>
  <fix>3d</fix>
</trkpt>
<trkpt lat="40.0728419" lon="-105.2305749">
  <ele>1586.16</ele>
  <time>2026-08-27T18:25:33Z</time>
  <course>10.61</course>
  <speed>0.022360679774997897</speed>
  <fix>3d</fix>
</trkpt>
<trkpt lat="40.072842" lon="-105.230575">
  <ele>1586.09</ele>
  <time>2026-08-27T18:25:33Z</time>
  <course>281.82</course>
  <speed>0.0</speed>
  <fix>3d</fix>
</trkpt>
<trkpt lat="40.0728419" lon="-105.2305749">
  <ele>1586.16</ele>
  <time>2026-08-27T18:25:33Z</time>
  <course>10.57</course>
  <speed>0.022360679774997897</speed>
  <fix>3d</fix>
</trkpt>
<trkpt lat="40.072842" lon="-105.230575">
  <ele>1586.09</ele>
  <time>2026-08-27T18:25:33Z</time>
  <course>269.75</course>
  <speed>0.0</speed>
  <fix>3d</fix>
</trkpt>
<trkpt lat="40.0728419" lon="-105.2305749">
  <ele>1586.16</ele>
  <time>2026-08-27T18:25:33Z</time>
  <course>10.53</course>
  <speed>0.022360679774997897</speed>
  <fix>3d</fix>
</trkpt>
<trkpt lat="40.072842" lon="-105.230575">
  <ele>1586.09</ele>
  <time>2026-08-27T18:25:33Z</time>
  <course>267.93</course>
  <speed>0.0</speed>
  <fix>3d</fix>
</trkpt>
<trkpt lat="40.0728419" lon="-105.2305749">
  <ele>1586.16</ele>
  <time>2026-08-27T18:25:33Z</time>
  <course>10.48</course>
  <speed>0.022360679774997897</speed>
  <fix>3d</fix>
</trkpt>
<trkpt lat="40.072842" lon="-105.230575">
  <ele>1586.09</ele>
  <time>2026-08-27T18:25:33Z</time>
  <course>270.47</course>
  <speed>0.0</speed>
  <fix>3d</fix>
</trkpt>
<trkpt lat="40.0728419" lon="-105.2305749">
  <ele>1586.16</ele>
  <time>2026-08-27T18:25:33Z</time>
  <course>10.44</course>
  <speed>0.022360679774997897</speed>
  <fix>3d</fix>
</trkpt>
<trkpt lat="40.072842" lon="-105.230575">
  <ele>1586.09</ele>
  <time>2026-08-27T18:25:33Z</time>
  <course>268.38</course>
  <speed>0.0</speed>
  <fix>3d</fix>
</trkpt>
<trkpt lat="40.0728419" lon="-105.2305749">
  <ele>1586.16</ele>
  <time>2026-08-27T18:25:33Z</time>
  <course>10.39</course>
  <speed>0.022360679774997897</speed>
  <fix>3d</fix>
</trkpt>
<trkpt lat="40.072842" lon="-105.230575">
  <ele>1586.09</ele>
  <time>2026-08-27T18:25:33Z</time>
  <course>272.14</course>
  <speed>0.0</speed>
  <fix>3d</fix>
</trkpt>
<trkpt lat="40.0728419" lon="-105.2305749">
  <ele>1586.17</ele>
  <time>2026-08-27T18:25:33Z</time>
  <course>10.34</course>
  <speed>0.022360679774997897</speed>
  <fix>3d</fix>
</trkpt>
<trkpt lat="40.072842" lon="-105.230575">
  <ele>1586.09</ele>
  <time>2026-08-27T18:25:33Z</time>
  <course>280.3</course>
  <speed>0.0</speed>
  <fix>3d</fix>
</trkpt>
<trkpt lat="40.0728419" lon="-105.2305749">
  <ele>1586.17</ele>
  <time>2026-08-27T18:25:33Z</time>
  <course>10.3</course>
  <speed>0.022360679774997897</speed>
  <fix>3d</fix>
</trkpt>
<trkpt lat="40.072842" lon="-105.230575">
  <ele>1586.09</ele>
  <time>2026-08-27T18:25:33Z</time>
  <course>274.07</course>
  <speed>0.0</speed>
  <fix>3d</fix>
</trkpt>
<trkpt lat="40.0728419" lon="-105.2305749">
  <ele>1586.17</ele>
  <time>2026-08-27T18:25:33Z</time>
  <course>10.25</course>
  <speed>0.022360679774997897</speed>
  <fix>3d</fix>
</trkpt>
<trkpt lat="40.072842" lon="-105.230575">
  <ele>1586.09</ele>
  <time>2026-08-27T18:25:33Z</time>
  <course>267.07</course>
  <speed>0.0</speed>
  <fix>3d</fix>
</trkpt>
<trkpt lat="40.0728419" lon="-105.2305749">
  <ele>1586.17</ele>
  <time>2026-08-27T18:25:33Z</time>
  <course>10.2</course>
  <speed>0.022360679774997897</speed>
  <fix>3d</fix>
</trkpt>
<trkpt lat="40.072842" lon="-105.230575">
  <ele>1586.09</ele>
  <time>2026-08-27T18:25:33Z</time>
  <course>272.21</course>
  <speed>0.0</speed>
  <fix>3d</fix>
</trkpt>
<trkpt lat="40.0728419" lon="-105.2305749">
  <ele>1586.17</ele>
  <time>2026-08-27T18:25:33Z</time>
  <course>10.15</course>
  <speed>0.022360679774997897</speed>
  <fix>3d</fix>
</trkpt>
<trkpt lat="40.072842" lon="-105.230575">
  <ele>1586.09</ele>
  <time>2026-08-27T18:25:33Z</time>
  <course>270.0</course>
  <speed>0.0</speed>
  <fix>3d</fix>
</trkpt>
<trkpt lat="40.0728419" lon="-105.2305749">
  <ele>1586.17</ele>
  <time>2026-08-27T18:25:33Z</time>
  <course>10.1</course>
  <speed>0.022360679774997897</speed>
  <fix>3d</fix>
</trkpt>
<trkpt lat="40.072842" lon="-105.230575">
  <ele>1586.09</ele>
  <time>2026-08-27T18:25:33Z</time>
  <course>266.52</course>
  <speed>0.0</speed>
  <fix>3d</fix>
</trkpt>
<trkpt lat="40.0728419" lon="-105.2305749">
  <ele>1586.17</ele>
  <time>2026-08-27T18:25:33Z</time>
  <course>10.04</course>
  <speed>0.022360679774997897</speed>
  <fix>3d</fix>
</trkpt>
<trkpt lat="40.072842" lon="-105.230575">
  <ele>1586.09</ele>
  <time>2026-08-27T18:25:33Z</time>
  <course>278.26</course>
  <speed>0.0</speed>
  <fix>3d</fix>
</trkpt>
<trkpt lat="40.0728419" lon="-105.2305749">
  <ele>1586.17</ele>
  <time>2026-08-27T18:25:33Z</time>
  <course>9.99</course>
  <speed>0.022360679774997897</speed>
  <fix>3d</fix>
</trkpt>
<trkpt lat="40.072842" lon="-105.230575">
  <ele>1586.09</ele>
  <time>2026-08-27T18:25:33Z</time>
  <course>281.22</course>
  <speed>0.0</speed>
  <fix>3d</fix>
</trkpt>
<trkpt lat="40.0728419" lon="-105.2305749">
  <ele>1586.17</ele>
  <time>2026-08-27T18:25:33Z</time>
  <course>9.94</course>
  <speed>0.022360679774997897</speed>
  <fix>3d</fix>
</trkpt>
<trkpt lat="40.072842" lon="-105.230575">
  <ele>1586.09</ele>
  <time>2026-08-27T18:25:33Z</time>
  <course>271.21</course>
  <speed>0.0</speed>
  <fix>3d</fix>
</trkpt>
<trkpt lat="40.0728419" lon="-105.2305749">
  <ele>1586.17</ele>
  <time>2026-08-27T18:25:33Z</time>
  <course>9.9</course>
  <speed>0.022360679774997897</speed>
  <fix>3d</fix>
</trkpt>
<trkpt lat="40.072842" lon="-105.230575">
  <ele>1586.09</ele>
  <time>2026-08-27T18:25:33Z</time>
  <course>266.61</course>
  <speed>0.0</speed>
  <fix>3d</fix>
</trkpt>
<trkpt lat="40.0728419" lon="-105.2305749">
  <ele>1586.17</ele>
  <time>2026-08-27T18:25:33Z</time>
  <course>9.85</course>
  <speed>0.022360679774997897</speed>
  <fix>3d</fix>
</trkpt>
<trkpt lat="40.072842" lon="-105.230575">
  <ele>1586.09</ele>
  <time>2026-08-27T18:25:33Z</time>
  <course>267.89</course>
  <speed>0.0</speed>
  <fix>3d</fix>
</trkpt>
<trkpt lat="40.0728419" lon="-105.2305749">
  <ele>1586.17</ele>
  <time>2026-08-27T18:25:33Z</time>
  <course>9.8</course>
  <speed>0.022360679774997897</speed>
  <fix>3d</fix>
</trkpt>
<trkpt lat="40.072842" lon="-105.230575">
  <ele>1586.09</ele>
  <time>2026-08-27T18:25:33Z</time>
  <course>266.78</course>
  <speed>0.0</speed>
  <fix>3d</fix>
</trkpt>
<trkpt lat="40.0728419" lon="-105.2305749">
  <ele>1586.17</ele>
  <time>2026-08-27T18:25:33Z</time>
  <course>9.75</course>
  <speed>0.022360679774997897</speed>
  <fix>3d</fix>
</trkpt>
<trkpt lat="40.072842" lon="-105.230575">
  <ele>1586.09</ele>
  <time>2026-08-27T18:25:33Z</time>
  <course>268.29</course>
  <speed>0.0</speed>
  <fix>3d</fix>
</trkpt>
<trkpt lat="40.0728419" lon="-105.2305749">
  <ele>1586.17</ele>
  <time>2026-08-27T18:25:33Z</time>
  <course>9.71</course>
  <speed>0.022360679774997897</speed>
  <fix>3d</fix>
</trkpt>
<trkpt lat="40.072842" lon="-105.230575">
  <ele>1586.09</ele>
  <time>2026-08-27T18:25:33Z</time>
  <course>269.8</course>
  <speed>0.0</speed>
  <fix>3d</fix>
</trkpt>
<trkpt lat="40.0728419" lon="-105.2305749">
  <ele>1586.17</ele>
  <time>2026-08-27T18:25:33Z</time>
  <course>9.66</course>
  <speed>0.022360679774997897</speed>
  <fix>3d</fix>
</trkpt>
<trkpt lat="40.072842" lon="-105.230575">
  <ele>1586.09</ele>
  <time>2026-08-27T18:25:33Z</time>
  <course>277.95</course>
  <speed>0.0</speed>
  <fix>3d</fix>
</trkpt>
<trkpt lat="40.0728419" lon="-105.2305749">
  <ele>1586.16</ele>
  <time>2026-08-27T18:25:33Z</time>
  <course>9.62</course>
  <speed>0.022360679774997897</speed>
  <fix>3d</fix>
</trkpt>
<trkpt lat="40.072842" lon="-105.230575">
  <ele>1586.09</ele>
  <time>2026-08-27T18:25:33Z</time>
  <course>279.47</course>
  <speed>0.0</speed>
  <fix>3d</fix>
</trkpt>
<trkpt lat="40.0728419" lon="-105.2305749">
  <ele>1586.16</ele>
  <time>2026-08-27T18:25:33Z</time>
  <course>9.57</course>
  <speed>0.022360679774997897</speed>
  <fix>3d</fix>
</trkpt>
<trkpt lat="40.072842" lon="-105.230575">
  <ele>1586.09</ele>
  <time>2026-08-27T18:25:33Z</time>
  <course>267.88</course>
  <speed>0.0</speed>
  <fix>3d</fix>
</trkpt>
<trkpt lat="40.0728419" lon="-105.2305749">
  <ele>1586.16</ele>
  <time>2026-08-27T18:25:33Z</time>
  <course>9.53</course>
  <speed>0.022360679774997897</speed>
  <fix>3d</fix>
</trkpt>
<trkpt lat="40.072842" lon="-105.230575">
  <ele>1586.09</ele>
  <time>2026-08-27T18:25:33Z</time>
  <course>266.98</course>
  <speed>0.0</speed>
  <fix>3d</fix>
</trkpt>
<trkpt lat="40.0728419" lon="-105.2305749">
  <ele>1586.16</ele>
  <time>2026-08-27T18:25:33Z</time>
  <course>9.49</course>
  <speed>0.022360679774997897</speed>
  <fix>3d</fix>
</trkpt>
<trkpt lat="40.072842" lon="-105.230575">
  <ele>1586.09</ele>
  <time>2026-08-27T18:25:33Z</time>
  <course>267.41</course>
  <speed>0.0</speed>
  <fix>3d</fix>
</trkpt>
<trkpt lat="40.0728419" lon="-105.2305749">
  <ele>1586.16</ele>
  <time>2026-08-27T18:25:33Z</time>
  <course>9.44</course>
  <speed>0.022360679774997897</speed>
  <fix>3d</fix>
</trkpt>
<trkpt lat="40.072842" lon="-105.230575">
  <ele>1586.09</ele>
  <time>2026-08-27T18:25:33Z</time>
  <course>268.31</course>
  <speed>0.0</speed>
  <fix>3d</fix>
</trkpt>
<trkpt lat="40.0728419" lon="-105.2305749">
  <ele>1586.16</ele>
  <time>2026-08-27T18:25:33Z</time>
  <course>9.4</course>
  <speed>0.022360679774997897</speed>
  <fix>3d</fix>
</trkpt>
<trkpt lat="40.072842" lon="-105.230575">
  <ele>1586.09</ele>
  <time>2026-08-27T18:25:33Z</time>
  <course>269.43</course>
  <speed>0.0</speed>
  <fix>3d</fix>
</trkpt>
<trkpt lat="40.0728419" lon="-105.2305749">
  <ele>1586.16</ele>
  <time>2026-08-27T18:25:33Z</time>
  <course>9.36</course>
  <speed>0.022360679774997897</speed>
  <fix>3d</fix>
</trkpt>
<trkpt lat="40.072842" lon="-105.230575">
  <ele>1586.09</ele>
  <time>2026-08-27T18:25:33Z</time>
  <course>268.82</course>
  <speed>0.0</speed>
  <fix>3d</fix>
</trkpt>
<trkpt lat="40.0728419" lon="-105.2305749">
  <ele>1586.16</ele>
  <time>2026-08-27T18:25:33Z</time>
  <course>9.33</course>
  <speed>0.022360679774997897</speed>
  <fix>3d</fix>
</trkpt>
<trkpt lat="40.072842" lon="-105.230575">
  <ele>1586.09</ele>
  <time>2026-08-27T18:25:33Z</time>
  <course>268.6</course>
  <speed>0.0</speed>
  <fix>3d</fix>
</trkpt>
<trkpt lat="40.0728419" lon="-105.2305749">
  <ele>1586.16</ele>
  <time>2026-08-27T18:25:33Z</time>
  <course>9.29</course>
  <speed>0.022360679774997897</speed>
  <fix>3d</fix>
</trkpt>
<trkpt lat="40.072842" lon="-105.230575">
  <ele>1586.09</ele>
  <time>2026-08-27T18:25:33Z</time>
  <course>275.32</course>
  <speed>0.0</speed>
  <fix>3d</fix>
</trkpt>
<trkpt lat="40.0728419" lon="-105.2305749">
  <ele>1586.16</ele>
  <time>2026-08-27T18:25:33Z</time>
  <course>9.25</course>
  <speed>0.022360679774997897</speed>
  <fix>3d</fix>
</trkpt>
<trkpt lat="40.072842" lon="-105.230575">
  <ele>1586.09</ele>
  <time>2026-08-27T18:25:33Z</time>
  <course>277.5</course>
  <speed>0.0</speed>
  <fix>3d</fix>
</trkpt>
<trkpt lat="40.0728419" lon="-105.2305749">
  <ele>1586.15</ele>
  <time>2026-08-27T18:25:33Z</time>
  <course>9.22</course>
  <speed>0.022360679774997897</speed>
  <fix>3d</fix>
</trkpt>
<trkpt lat="40.072842" lon="-105.230575">
  <ele>1586.09</ele>
  <time>2026-08-27T18:25:33Z</time>
  <course>266.62</course>
  <speed>0.0</speed>
  <fix>3d</fix>
</trkpt>
<trkpt lat="40.0728419" lon="-105.2305749">
  <ele>1586.15</ele>
  <time>2026-08-27T18:25:33Z</time>
  <course>9.18</course>
  <speed>0.022360679774997897</speed>
  <fix>3d</fix>
</trkpt>
<trkpt lat="40.072842" lon="-105.230575">
  <ele>1586.09</ele>
  <time>2026-08-27T18:25:33Z</time>
  <course>265.95</course>
  <speed>0.0</speed>
  <fix>3d</fix>
</trkpt>
<trkpt lat="40.0728419" lon="-105.2305749">
  <ele>1586.15</ele>
  <time>2026-08-27T18:25:33Z</time>
  <course>9.15</course>
  <speed>0.022360679774997897</speed>
  <fix>3d</fix>
</trkpt>
<trkpt lat="40.072842" lon="-105.230575">
  <ele>1586.09</ele>
  <time>2026-08-27T18:25:33Z</time>
  <course>268.66</course>
  <speed>0.0</speed>
  <fix>3d</fix>
</trkpt>
<trkpt lat="40.0728419" lon="-105.2305749">
  <ele>1586.15</ele>
  <time>2026-08-27T18:25:33Z</time>
  <course>9.11</course>
  <speed>0.022360679774997897</speed>
  <fix>3d</fix>
</trkpt>
<trkpt lat="40.072842" lon="-105.230575">
  <ele>1586.09</ele>
  <time>2026-08-27T18:25:33Z</time>
  <course>269.05</course>
  <speed>0.0</speed>
  <fix>3d</fix>
</trkpt>
<trkpt lat="40.0728419" lon="-105.2305749">
  <ele>1586.16</ele>
  <time>2026-08-27T18:25:33Z</time>
  <course>9.08</course>
  <speed>0.022360679774997897</speed>
  <fix>3d</fix>
</trkpt>
<trkpt lat="40.072842" lon="-105.230575">
  <ele>1586.09</ele>
  <time>2026-08-27T18:25:33Z</time>
  <course>268.7</course>
  <speed>0.0</speed>
  <fix>3d</fix>
</trkpt>
<trkpt lat="40.0728419" lon="-105.2305749">
  <ele>1586.16</ele>
  <time>2026-08-27T18:25:33Z</time>
  <course>9.05</course>
  <speed>0.022360679774997897</speed>
  <fix>3d</fix>
</trkpt>
<trkpt lat="40.072842" lon="-105.230575">
  <ele>1586.09</ele>
  <time>2026-08-27T18:25:33Z</time>
  <course>268.58</course>
  <speed>0.0</speed>
  <fix>3d</fix>
</trkpt>
<trkpt lat="40.0728419" lon="-105.2305749">
  <ele>1586.16</ele>
  <time>2026-08-27T18:25:33Z</time>
  <course>9.02</course>
  <speed>0.022360679774997897</speed>
  <fix>3d</fix>
</trkpt>
<trkpt lat="40.072842" lon="-105.230575">
  <ele>1586.09</ele>
  <time>2026-08-27T18:25:33Z</time>
  <course>268.49</course>
  <speed>0.0</speed>
  <fix>3d</fix>
</trkpt>
<trkpt lat="40.0728419" lon="-105.2305749">
  <ele>1586.16</ele>
  <time>2026-08-27T18:25:33Z</time>
  <course>8.99</course>
  <speed>0.022360679774997897</speed>
  <fix>3d</fix>
</trkpt>
<trkpt lat="40.072842" lon="-105.230575">
  <ele>1586.09</ele>
  <time>2026-08-27T18:25:33Z</time>
  <course>269.87</course>
  <speed>0.0</speed>
  <fix>3d</fix>
</trkpt>
<trkpt lat="40.0728419" lon="-105.2305749">
  <ele>1586.16</ele>
  <time>2026-08-27T18:25:33Z</time>
  <course>8.96</course>
  <speed>0.022360679774997897</speed>
  <fix>3d</fix>
</trkpt>
<trkpt lat="40.072842" lon="-105.230575">
  <ele>1586.09</ele>
  <time>2026-08-27T18:25:33Z</time>
  <course>275.47</course>
  <speed>0.0</speed>
  <fix>3d</fix>
</trkpt>
<trkpt lat="40.0728419" lon="-105.2305749">
  <ele>1586.17</ele>
  <time>2026-08-27T18:25:33Z</time>
  <course>8.93</course>
  <speed>0.022360679774997897</speed>
  <fix>3d</fix>
</trkpt>
<trkpt lat="40.072842" lon="-105.230575">
  <ele>1586.09</ele>
  <time>2026-08-27T18:25:33Z</time>
  <course>271.38</course>
  <speed>0.0</speed>
  <fix>3d</fix>
</trkpt>
<trkpt lat="40.0728419" lon="-105.2305749">
  <ele>1586.17</ele>
  <time>2026-08-27T18:25:33Z</time>
  <course>8.91</course>
  <speed>0.022360679774997897</speed>
  <fix>3d</fix>
</trkpt>
<trkpt lat="40.072842" lon="-105.230575">
  <ele>1586.09</ele>
  <time>2026-08-27T18:25:33Z</time>
  <course>265.64</course>
  <speed>0.0</speed>
  <fix>3d</fix>
</trkpt>
<trkpt lat="40.0728419" lon="-105.2305749">
  <ele>1586.17</ele>
  <time>2026-08-27T18:25:33Z</time>
  <course>8.88</course>
  <speed>0.022360679774997897</speed>
  <fix>3d</fix>
</trkpt>
<trkpt lat="40.072842" lon="-105.230575">
  <ele>1586.09</ele>
  <time>2026-08-27T18:25:33Z</time>
  <course>268.78</course>
  <speed>0.0</speed>
  <fix>3d</fix>
</trkpt>
<trkpt lat="40.0728419" lon="-105.2305749">
  <ele>1586.17</ele>
  <time>2026-08-27T18:25:33Z</time>
  <course>8.85</course>
  <speed>0.022360679774997897</speed>
  <fix>3d</fix>
</trkpt>
<trkpt lat="40.072842" lon="-105.230575">
  <ele>1586.09</ele>
  <time>2026-08-27T18:25:33Z</time>
  <course>260.96</course>
  <speed>0.0</speed>
  <fix>3d</fix>
</trkpt>
<trkpt lat="40.0728419" lon="-105.2305749">
  <ele>1586.17</ele>
  <time>2026-08-27T18:25:33Z</time>
  <course>8.83</course>
  <speed>0.022360679774997897</speed>
  <fix>3d</fix>
</trkpt>
<trkpt lat="40.072842" lon="-105.230575">
  <ele>1586.09</ele>
  <time>2026-08-27T18:25:33Z</time>
  <course>260.96</course>
  <speed>0.0</speed>
  <fix>3d</fix>
</trkpt>
<trkpt lat="40.0728419" lon="-105.2305749">
  <ele>1586.17</ele>
  <time>2026-08-27T18:25:33Z</time>
  <course>8.81</course>
  <speed>0.01414213562373095</speed>
  <fix>3d</fix>
</trkpt>
<trkpt lat="40.072842" lon="-105.230575">
  <ele>1586.09</ele>
  <time>2026-08-27T18:25:33Z</time>
  <course>268.88</course>
  <speed>0.0</speed>
  <fix>3d</fix>
</trkpt>
<trkpt lat="40.0728419" lon="-105.2305749">
  <ele>1586.18</ele>
  <time>2026-08-27T18:25:33Z</time>
  <course>8.78</course>
  <speed>0.01414213562373095</speed>
  <fix>3d</fix>
</trkpt>
<trkpt lat="40.072842" lon="-105.230575">
  <ele>1586.09</ele>
  <time>2026-08-27T18:25:33Z</time>
  <course>269.55</course>
  <speed>0.0</speed>
  <fix>3d</fix>
</trkpt>
<trkpt lat="40.0728419" lon="-105.2305749">
  <ele>1586.18</ele>
  <time>2026-08-27T18:25:33Z</time>
  <course>8.76</course>
  <speed>0.01414213562373095</speed>
  <fix>3d</fix>
</trkpt>
<trkpt lat="40.072842" lon="-105.230575">
  <ele>1586.09</ele>
  <time>2026-08-27T18:25:33Z</time>
  <course>268.27</course>
  <speed>0.0</speed>
  <fix>3d</fix>
</trkpt>
<trkpt lat="40.0728419" lon="-105.2305749">
  <ele>1586.18</ele>
  <time>2026-08-27T18:25:33Z</time>
  <course>8.74</course>
  <speed>0.01414213562373095</speed>
  <fix>3d</fix>
</trkpt>
<trkpt lat="40.072842" lon="-105.230575">
  <ele>1586.09</ele>
  <time>2026-08-27T18:25:33Z</time>
  <course>269.78</course>
  <speed>0.0</speed>
  <fix>3d</fix>
</trkpt>
<trkpt lat="40.0728419" lon="-105.2305749">
  <ele>1586.17</ele>
  <time>2026-08-27T18:25:33Z</time>
  <course>8.72</course>
  <speed>0.01414213562373095</speed>
  <fix>3d</fix>
</trkpt>
<trkpt lat="40.072842" lon="-105.230575">
  <ele>1586.09</ele>
  <time>2026-08-27T18:25:33Z</time>
  <course>274.29</course>
  <speed>0.0</speed>
  <fix>3d</fix>
</trkpt>
<trkpt lat="40.0728419" lon="-105.2305749">
  <ele>1586.17</ele>
  <time>2026-08-27T18:25:33Z</time>
  <course>8.7</course>
  <speed>0.01414213562373095</speed>
  <fix>3d</fix>
</trkpt>
<trkpt lat="40.072842" lon="-105.230575">
  <ele>1586.09</ele>
  <time>2026-08-27T18:25:33Z</time>
  <course>274.68</course>
  <speed>0.0</speed>
  <fix>3d</fix>
</trkpt>
<trkpt lat="40.0728419" lon="-105.2305749">
  <ele>1586.17</ele>
  <time>2026-08-27T18:25:33Z</time>
  <course>8.69</course>
  <speed>0.01414213562373095</speed>
  <fix>3d</fix>
</trkpt>
<trkpt lat="40.072842" lon="-105.230575">
  <ele>1586.09</ele>
  <time>2026-08-27T18:25:33Z</time>
  <course>268.3</course>
  <speed>0.0</speed>
  <fix>3d</fix>
</trkpt>
<trkpt lat="40.0728419" lon="-105.2305749">
  <ele>1586.17</ele>
  <time>2026-08-27T18:25:33Z</time>
  <course>8.67</course>
  <speed>0.01414213562373095</speed>
  <fix>3d</fix>
</trkpt>
<trkpt lat="40.072842" lon="-105.230575">
  <ele>1586.09</ele>
  <time>2026-08-27T18:25:33Z</time>
  <course>267.59</course>
  <speed>0.0</speed>
  <fix>3d</fix>
</trkpt>
<trkpt lat="40.0728419" lon="-105.2305749">
  <ele>1586.17</ele>
  <time>2026-08-27T18:25:33Z</time>
  <course>8.65</course>
  <speed>0.01414213562373095</speed>
  <fix>3d</fix>
</trkpt>
<trkpt lat="40.072842" lon="-105.230575">
  <ele>1586.09</ele>
  <time>2026-08-27T18:25:33Z</time>
  <course>268.77</course>
  <speed>0.0</speed>
  <fix>3d</fix>
</trkpt>
<trkpt lat="40.0728419" lon="-105.2305749">
  <ele>1586.17</ele>
  <time>2026-08-27T18:25:33Z</time>
  <course>8.64</course>
  <speed>0.01414213562373095</speed>
  <fix>3d</fix>
</trkpt>
<trkpt lat="40.072842" lon="-105.230575">
  <ele>1586.09</ele>
  <time>2026-08-27T18:25:33Z</time>
  <course>268.67</course>
  <speed>0.0</speed>
  <fix>3d</fix>
</trkpt>
<trkpt lat="40.0728419" lon="-105.2305749">
  <ele>1586.17</ele>
  <time>2026-08-27T18:25:33Z</time>
  <course>8.62</course>
  <speed>0.01414213562373095</speed>
  <fix>3d</fix>
</trkpt>
<trkpt lat="40.072842" lon="-105.230575">
  <ele>1586.09</ele>
  <time>2026-08-27T18:25:33Z</time>
  <course>268.37</course>
  <speed>0.0</speed>
  <fix>3d</fix>
</trkpt>
<trkpt lat="40.0728419" lon="-105.2305749">
  <ele>1586.17</ele>
  <time>2026-08-27T18:25:33Z</time>
  <course>8.61</course>
  <speed>0.01414213562373095</speed>
  <fix>3d</fix>
</trkpt>
<trkpt lat="40.072842" lon="-105.230575">
  <ele>1586.09</ele>
  <time>2026-08-27T18:25:33Z</time>
  <course>268.59</course>
  <speed>0.0</speed>
  <fix>3d</fix>
</trkpt>
<trkpt lat="40.0728419" lon="-105.2305749">
  <ele>1586.17</ele>
  <time>2026-08-27T18:25:33Z</time>
  <course>8.59</course>
  <speed>0.01414213562373095</speed>
  <fix>3d</fix>
</trkpt>
<trkpt lat="40.072842" lon="-105.230575">
  <ele>1586.09</ele>
  <time>2026-08-27T18:25:33Z</time>
  <course>268.7</course>
  <speed>0.0</speed>
  <fix>3d</fix>
</trkpt>
<trkpt lat="40.0728419" lon="-105.2305749">
  <ele>1586.18</ele>
  <time>2026-08-27T18:25:33Z</time>
  <course>8.58</course>
  <speed>0.01414213562373095</speed>
  <fix>3d</fix>
</trkpt>
<trkpt lat="40.072842" lon="-105.230575">
  <ele>1586.09</ele>
  <time>2026-08-27T18:25:33Z</time>
  <course>269.48</course>
  <speed>0.0</speed>
  <fix>3d</fix>
</trkpt>
<trkpt lat="40.0728419" lon="-105.2305749">
  <ele>1586.17</ele>
  <time>2026-08-27T18:25:33Z</time>
  <course>8.57</course>
  <speed>0.01414213562373095</speed>
  <fix>3d</fix>
</trkpt>
<trkpt lat="40.072842" lon="-105.230575">
  <ele>1586.09</ele>
  <time>2026-08-27T18:25:33Z</time>
  <course>268.3</course>
  <speed>0.0</speed>
  <fix>3d</fix>
</trkpt>
<trkpt lat="40.0728419" lon="-105.2305749">
  <ele>1586.17</ele>
  <time>2026-08-27T18:25:33Z</time>
  <course>8.56</course>
  <speed>0.01414213562373095</speed>
  <fix>3d</fix>
</trkpt>
<trkpt lat="40.072842" lon="-105.230575">
  <ele>1586.09</ele>
  <time>2026-08-27T18:25:33Z</time>
  <course>267.45</course>
  <speed>0.0</speed>
  <fix>3d</fix>
</trkpt>
<trkpt lat="40.0728419" lon="-105.2305749">
  <ele>1586.16</ele>
  <time>2026-08-27T18:25:33Z</time>
  <course>8.55</course>
  <speed>0.01414213562373095</speed>
  <fix>3d</fix>
</trkpt>
<trkpt lat="40.072842" lon="-105.230575">
  <ele>1586.09</ele>
  <time>2026-08-27T18:25:33Z</time>
  <course>273.46</course>
  <speed>0.0</speed>
  <fix>3d</fix>
</trkpt>
<trkpt lat="40.0728419" lon="-105.2305749">
  <ele>1586.16</ele>
  <time>2026-08-27T18:25:33Z</time>
  <course>8.54</course>
  <speed>0.01414213562373095</speed>
  <fix>3d</fix>
</trkpt>
<trkpt lat="40.072842" lon="-105.230575">
  <ele>1586.09</ele>
  <time>2026-08-27T18:25:33Z</time>
  <course>272.88</course>
  <speed>0.0</speed>
  <fix>3d</fix>
</trkpt>
<trkpt lat="40.0728419" lon="-105.2305749">
  <ele>1586.16</ele>
  <time>2026-08-27T18:25:33Z</time>
  <course>8.53</course>
  <speed>0.01414213562373095</speed>
  <fix>3d</fix>
</trkpt>
<trkpt lat="40.072842" lon="-105.230575">
  <ele>1586.09</ele>
  <time>2026-08-27T18:25:33Z</time>
  <course>267.17</course>
  <speed>0.0</speed>
  <fix>3d</fix>
</trkpt>
<trkpt lat="40.0728419" lon="-105.2305749">
  <ele>1586.16</ele>
  <time>2026-08-27T18:25:33Z</time>
  <course>8.52</course>
  <speed>0.01414213562373095</speed>
  <fix>3d</fix>
</trkpt>
<trkpt lat="40.072842" lon="-105.230575">
  <ele>1586.09</ele>
  <time>2026-08-27T18:25:33Z</time>
  <course>268.46</course>
  <speed>0.0</speed>
  <fix>3d</fix>
</trkpt>
<trkpt lat="40.0728419" lon="-105.2305749">
  <ele>1586.16</ele>
  <time>2026-08-27T18:25:33Z</time>
  <course>8.52</course>
  <speed>0.01414213562373095</speed>
  <fix>3d</fix>
</trkpt>
<trkpt lat="40.072842" lon="-105.230575">
  <ele>1586.09</ele>
  <time>2026-08-27T18:25:33Z</time>
  <course>269.23</course>
  <speed>0.0</speed>
  <fix>3d</fix>
</trkpt>
<trkpt lat="40.0728419" lon="-105.2305749">
  <ele>1586.17</ele>
  <time>2026-08-27T18:25:33Z</time>
  <course>8.51</course>
  <speed>0.01414213562373095</speed>
  <fix>3d</fix>
</trkpt>
<trkpt lat="40.072842" lon="-105.230575">
  <ele>1586.09</ele>
  <time>2026-08-27T18:25:33Z</time>
  <course>268.71</course>
  <speed>0.0</speed>
  <fix>3d</fix>
</trkpt>
<trkpt lat="40.0728419" lon="-105.2305749">
  <ele>1586.17</ele>
  <time>2026-08-27T18:25:33Z</time>
  <course>8.51</course>
  <speed>0.01414213562373095</speed>
  <fix>3d</fix>
</trkpt>
<trkpt lat="40.072842" lon="-105.230575">
  <ele>1586.09</ele>
  <time>2026-08-27T18:25:33Z</time>
  <course>268.86</course>
  <speed>0.0</speed>
  <fix>3d</fix>
</trkpt>
<trkpt lat="40.0728419" lon="-105.2305749">
  <ele>1586.17</ele>
  <time>2026-08-27T18:25:33Z</time>
  <course>8.5</course>
  <speed>0.01414213562373095</speed>
  <fix>3d</fix>
</trkpt>
<trkpt lat="40.072842" lon="-105.230575">
  <ele>1586.09</ele>
  <time>2026-08-27T18:25:33Z</time>
  <course>269.01</course>
  <speed>0.0</speed>
  <fix>3d</fix>
</trkpt>
<trkpt lat="40.0728419" lon="-105.2305749">
  <ele>1586.17</ele>
  <time>2026-08-27T18:25:33Z</time>
  <course>8.5</course>
  <speed>0.01414213562373095</speed>
  <fix>3d</fix>
</trkpt>
<trkpt lat="40.072842" lon="-105.230575">
  <ele>1586.09</ele>
  <time>2026-08-27T18:25:33Z</time>
  <course>268.0</course>
  <speed>0.0</speed>
  <fix>3d</fix>
</trkpt>
<trkpt lat="40.0728419" lon="-105.2305749">
  <ele>1586.17</ele>
  <time>2026-08-27T18:25:33Z</time>
  <course>8.5</course>
  <speed>0.01414213562373095</speed>
  <fix>3d</fix>
</trkpt>
<trkpt lat="40.072842" lon="-105.230575">
  <ele>1586.09</ele>
  <time>2026-08-27T18:25:33Z</time>
  <course>267.35</course>
  <speed>0.0</speed>
  <fix>3d</fix>
</trkpt>
<trkpt lat="40.0728419" lon="-105.2305749">
  <ele>1586.18</ele>
  <time>2026-08-27T18:25:33Z</time>
  <course>8.49</course>
  <speed>0.01414213562373095</speed>
  <fix>3d</fix>
</trkpt>
<trkpt lat="40.072842" lon="-105.230575">
  <ele>1586.09</ele>
  <time>2026-08-27T18:25:33Z</time>
  <course>268.34</course>
  <speed>0.0</speed>
  <fix>3d</fix>
</trkpt>
<trkpt lat="40.0728419" lon="-105.2305749">
  <ele>1586.18</ele>
  <time>2026-08-27T18:25:33Z</time>
  <course>8.49</course>
  <speed>0.01414213562373095</speed>
  <fix>3d</fix>
</trkpt>
<trkpt lat="40.072842" lon="-105.230575">
  <ele>1586.09</ele>
  <time>2026-08-27T18:25:33Z</time>
  <course>269.26</course>
  <speed>0.0</speed>
  <fix>3d</fix>
</trkpt>
<trkpt lat="40.0728419" lon="-105.2305749">
  <ele>1586.19</ele>
  <time>2026-08-27T18:25:33Z</time>
  <course>8.49</course>
  <speed>0.0282842712474619</speed>
  <fix>3d</fix>
</trkpt>
<trkpt lat="40.072842" lon="-105.230575">
  <ele>1586.09</ele>
  <time>2026-08-27T18:25:33Z</time>
  <course>95.15</course>
  <speed>0.0</speed>
  <fix>3d</fix>
</trkpt>
<trkpt lat="40.0728419" lon="-105.2305749">
  <ele>1586.19</ele>
  <time>2026-08-27T18:25:33Z</time>
  <course>8.46</course>
  <speed>0.01414213562373095</speed>
  <fix>3d</fix>
</trkpt>
<trkpt lat="40.072842" lon="-105.230575">
  <ele>1586.09</ele>
  <time>2026-08-27T18:25:33Z</time>
  <course>91.83</course>
  <speed>0.0</speed>
  <fix>3d</fix>
</trkpt>
<trkpt lat="40.0728419" lon="-105.2305749">
  <ele>1586.19</ele>
  <time>2026-08-27T18:25:33Z</time>
  <course>8.44</course>
  <speed>0.01414213562373095</speed>
  <fix>3d</fix>
</trkpt>
<trkpt lat="40.072842" lon="-105.230575">
  <ele>1586.09</ele>
  <time>2026-08-27T18:25:33Z</time>
  <course>85.3</course>
  <speed>0.0</speed>
  <fix>3d</fix>
</trkpt>
<trkpt lat="40.0728419" lon="-105.2305749">
  <ele>1586.19</ele>
  <time>2026-08-27T18:25:33Z</time>
  <course>8.41</course>
  <speed>0.01414213562373095</speed>
  <fix>3d</fix>
</trkpt>
<trkpt lat="40.072842" lon="-105.230575">
  <ele>1586.09</ele>
  <time>2026-08-27T18:25:33Z</time>
  <course>273.01</course>
  <speed>0.0</speed>
  <fix>3d</fix>
</trkpt>
<trkpt lat="40.0728419" lon="-105.2305749">
  <ele>1586.19</ele>
  <time>2026-08-27T18:25:33Z</time>
  <course>8.37</course>
  <speed>0.01414213562373095</speed>
  <fix>3d</fix>
</trkpt>
<trkpt lat="40.072842" lon="-105.230575">
  <ele>1586.09</ele>
  <time>2026-08-27T18:25:33Z</time>
  <course>262.77</course>
  <speed>0.0</speed>
  <fix>3d</fix>
</trkpt>
<trkpt lat="40.0728419" lon="-105.2305749">
  <ele>1586.19</ele>
  <time>2026-08-27T18:25:33Z</time>
  <course>8.31</course>
  <speed>0.01414213562373095</speed>
  <fix>3d</fix>
</trkpt>
<trkpt lat="40.072842" lon="-105.230575">
  <ele>1586.09</ele>
  <time>2026-08-27T18:25:33Z</time>
  <course>259.56</course>
  <speed>0.0</speed>
  <fix>3d</fix>
</trkpt>
<trkpt lat="40.0728419" lon="-105.2305749">
  <ele>1586.22</ele>
  <time>2026-08-27T18:25:33Z</time>
  <course>8.24</course>
  <speed>0.01414213562373095</speed>
  <fix>3d</fix>
</trkpt>
<trkpt lat="40.072842" lon="-105.230575">
  <ele>1586.1</ele>
  <time>2026-08-27T18:25:33Z</time>
  <course>271.66</course>
  <speed>0.0</speed>
  <fix>3d</fix>
</trkpt>
<trkpt lat="40.0728419" lon="-105.2305749">
  <ele>1586.25</ele>
  <time>2026-08-27T18:25:33Z</time>
  <course>8.16</course>
  <speed>0.01414213562373095</speed>
  <fix>3d</fix>
</trkpt>
<trkpt lat="40.072842" lon="-105.230575">
  <ele>1586.12</ele>
  <time>2026-08-27T18:25:33Z</time>
  <course>270.7</course>
  <speed>0.0</speed>
  <fix>3d</fix>
</trkpt>
<trkpt lat="40.0728419" lon="-105.2305749">
  <ele>1586.29</ele>
  <time>2026-08-27T18:25:33Z</time>
  <course>8.07</course>
  <speed>0.01414213562373095</speed>
  <fix>3d</fix>
</trkpt>
<trkpt lat="40.072842" lon="-105.230575">
  <ele>1586.16</ele>
  <time>2026-08-27T18:25:33Z</time>
  <course>267.61</course>
  <speed>0.0</speed>
  <fix>3d</fix>
</trkpt>
<trkpt lat="40.0728419" lon="-105.2305749">
  <ele>1586.39</ele>
  <time>2026-08-27T18:25:33Z</time>
  <course>3.49</course>
  <speed>0.0412310562561766</speed>
  <fix>3d</fix>
</trkpt>
<trkpt lat="40.072842" lon="-105.230575">
  <ele>1586.21</ele>
  <time>2026-08-27T18:25:33Z</time>
  <course>268.08</course>
  <speed>0.0</speed>
  <fix>3d</fix>
</trkpt>
<trkpt lat="40.0728419" lon="-105.2305752">
  <ele>1586.67</ele>
  <time>2026-08-27T18:25:33Z</time>
  <course>0.52</course>
  <speed>0.21</speed>
  <fix>3d</fix>
</trkpt>
<trkpt lat="40.072842" lon="-105.2305751">
  <ele>1586.37</ele>
  <time>2026-08-27T18:25:33Z</time>
  <course>264.25</course>
  <speed>0.1</speed>
  <fix>3d</fix>
</trkpt>
<trkpt lat="40.0728419" lon="-105.2305758">
  <ele>1586.93</ele>
  <time>2026-08-27T18:25:33Z</time>
  <course>359.84</course>
  <speed>0.27</speed>
  <fix>3d</fix>
</trkpt>
<trkpt lat="40.072842" lon="-105.2305755">
  <ele>1586.63</ele>
  <time>2026-08-27T18:25:33Z</time>
  <course>263.34</course>
  <speed>0.23</speed>
  <fix>3d</fix>
</trkpt>
<trkpt lat="40.0728419" lon="-105.2305765">
  <ele>1587.18</ele>
  <time>2026-08-27T18:25:33Z</time>
  <course>358.31</course>
  <speed>0.29017236257093815</speed>
  <fix>3d</fix>
</trkpt>
<trkpt lat="40.0728419" lon="-105.2305761">
  <ele>1586.9</ele>
  <time>2026-08-27T18:25:33Z</time>
  <course>261.76</course>
  <speed>0.29</speed>
  <fix>3d</fix>
</trkpt>
<trkpt lat="40.0728418" lon="-105.2305772">
  <ele>1587.48</ele>
  <time>2026-08-27T18:25:33Z</time>
  <course>357.17</course>
  <speed>0.291547594742265</speed>
  <fix>3d</fix>
</trkpt>
<trkpt lat="40.0728418" lon="-105.2305768">
  <ele>1587.17</ele>
  <time>2026-08-27T18:25:33Z</time>
  <course>260.03</course>
  <speed>0.31</speed>
  <fix>3d</fix>
</trkpt>
<trkpt lat="40.0728418" lon="-105.2305779">
  <ele>1587.83</ele>
  <time>2026-08-27T18:25:33Z</time>
  <course>356.36</course>
  <speed>0.27166155414412246</speed>
  <fix>3d</fix>
</trkpt>
<trkpt lat="40.0728417" lon="-105.2305776">
  <ele>1587.47</ele>
  <time>2026-08-27T18:25:33Z</time>
  <course>259.29</course>
  <speed>0.31</speed>
  <fix>3d</fix>
</trkpt>
<trkpt lat="40.0728417" lon="-105.2305785">
  <ele>1588.21</ele>
  <time>2026-08-27T18:25:33Z</time>
  <course>355.66</course>
  <speed>0.24186773244895649</speed>
  <fix>3d</fix>
</trkpt>
<trkpt lat="40.0728416" lon="-105.2305782">
  <ele>1587.81</ele>
  <time>2026-08-27T18:25:33Z</time>
  <course>259.9</course>
  <speed>0.28</speed>
  <fix>3d</fix>
</trkpt>
<trkpt lat="40.0728416" lon="-105.2305791">
  <ele>1588.64</ele>
  <time>2026-08-27T18:25:33Z</time>
  <course>355.04</course>
  <speed>0.2009975124224178</speed>
  <fix>3d</fix>
</trkpt>
<trkpt lat="40.0728415" lon="-105.2305789">
  <ele>1588.19</ele>
  <time>2026-08-27T18:25:33Z</time>
  <course>261.81</course>
  <speed>0.25</speed>
  <fix>3d</fix>
</trkpt>
<trkpt lat="40.0728415" lon="-105.2305795">
  <ele>1589.1</ele>
  <time>2026-08-27T18:25:33Z</time>
  <course>352.7</course>
  <speed>0.16124515496597097</speed>
  <fix>3d</fix>
</trkpt>
<trkpt lat="40.0728414" lon="-105.2305795">
  <ele>1588.62</ele>
  <time>2026-08-27T18:25:33Z</time>
  <course>264.95</course>
  <speed>0.21</speed>
  <fix>3d</fix>
</trkpt>
<trkpt lat="40.0728415" lon="-105.2305799">
  <ele>1589.6</ele>
  <time>2026-08-27T18:25:33Z</time>
  <course>352.17</course>
  <speed>0.12041594578792296</speed>
  <fix>3d</fix>
</trkpt>
<trkpt lat="40.0728414" lon="-105.23058">
  <ele>1589.08</ele>
  <time>2026-08-27T18:25:33Z</time>
  <course>269.35</course>
  <speed>0.18</speed>
  <fix>3d</fix>
</trkpt>
<trkpt lat="40.0728414" lon="-105.2305802">
  <ele>1590.11</ele>
  <time>2026-08-27T18:25:33Z</time>
  <course>352.44</course>
  <speed>0.08062257748298549</speed>
  <fix>3d</fix>
</trkpt>
<trkpt lat="40.0728414" lon="-105.2305803">
  <ele>1589.57</ele>
  <time>2026-08-27T18:25:33Z</time>
  <course>275.47</course>
  <speed>0.14</speed>
  <fix>3d</fix>
</trkpt>
<trkpt lat="40.0728415" lon="-105.2305805">
  <ele>1590.63</ele>
  <time>2026-08-27T18:25:33Z</time>
  <course>353.04</course>
  <speed>0.04</speed>
  <fix>3d</fix>
</trkpt>
<trkpt lat="40.0728414" lon="-105.2305806">
  <ele>1590.08</ele>
  <time>2026-08-27T18:25:33Z</time>
  <course>285.5</course>
  <speed>0.1</speed>
  <fix>3d</fix>
</trkpt>
<trkpt lat="40.0728415" lon="-105.2305806">
  <ele>1591.14</ele>
  <time>2026-08-27T18:25:33Z</time>
  <course>353.63</course>
  <speed>0.01</speed>
  <fix>3d</fix>
</trkpt>
<trkpt lat="40.0728415" lon="-105.2305807">
  <ele>1590.59</ele>
  <time>2026-08-27T18:25:33Z</time>
  <course>305.63</course>
  <speed>0.06</speed>
  <fix>3d</fix>
</trkpt>
<trkpt lat="40.0728415" lon="-105.2305806">
  <ele>1591.65</ele>
  <time>2026-08-27T18:25:33Z</time>
  <course>354.19</course>
  <speed>0.044721359549995794</speed>
  <fix>3d</fix>
</trkpt>
<trkpt lat="40.0728415" lon="-105.2305808">
  <ele>1591.11</ele>
  <time>2026-08-27T18:25:33Z</time>
  <course>347.02</course>
  <speed>0.05</speed>
  <fix>3d</fix>
</trkpt>
<trkpt lat="40.0728416" lon="-105.2305806">
  <ele>1592.16</ele>
  <time>2026-08-27T18:25:33Z</time>
  <course>354.75</course>
  <speed>0.0854400374531753</speed>
  <fix>3d</fix>
</trkpt>
<trkpt lat="40.0728416" lon="-105.2305808">
  <ele>1591.62</ele>
  <time>2026-08-27T18:25:33Z</time>
  <course>32.64</course>
  <speed>0.06</speed>
  <fix>3d</fix>
</trkpt>
<trkpt lat="40.0728417" lon="-105.2305804">
  <ele>1592.67</ele>
  <time>2026-08-27T18:25:33Z</time>
  <course>355.29</course>
  <speed>0.11401754250991379</speed>
  <fix>3d</fix>
</trkpt>
<trkpt lat="40.0728417" lon="-105.2305806">
  <ele>1592.13</ele>
  <time>2026-08-27T18:25:33Z</time>
  <course>57.62</course>
  <speed>0.09</speed>
  <fix>3d</fix>
</trkpt>
<trkpt lat="40.0728418" lon="-105.2305801">
  <ele>1593.18</ele>
  <time>2026-08-27T18:25:33Z</time>
  <course>355.91</course>
  <speed>0.1414213562373095</speed>
  <fix>3d</fix>
</trkpt>
<trkpt lat="40.0728418" lon="-105.2305805">
  <ele>1592.63</ele>
  <time>2026-08-27T18:25:33Z</time>
  <course>70.95</course>
  <speed>0.12</speed>
  <fix>3d</fix>
</trkpt>
<trkpt lat="40.0728419" lon="-105.2305798">
  <ele>1593.67</ele>
  <time>2026-08-27T18:25:33Z</time>
  <course>356.85</course>
  <speed>0.16124515496597097</speed>
  <fix>3d</fix>
</trkpt>
<trkpt lat="40.0728419" lon="-105.2305803">
  <ele>1593.14</ele>
  <time>2026-08-27T18:25:33Z</time>
  <course>78.76</course>
  <speed>0.15</speed>
  <fix>3d</fix>
</trkpt>
<trkpt lat="40.0728419" lon="-105.2305794">
  <ele>1594.13</ele>
  <time>2026-08-27T18:25:33Z</time>
  <course>358.0</course>
  <speed>0.18110770276274835</speed>
  <fix>3d</fix>
</trkpt>
<trkpt lat="40.072842" lon="-105.2305799">
  <ele>1593.62</ele>
  <time>2026-08-27T18:25:33Z</time>
  <course>83.48</course>
  <speed>0.17</speed>
  <fix>3d</fix>
</trkpt>
<trkpt lat="40.072842" lon="-105.230579">
  <ele>1594.55</ele>
  <time>2026-08-27T18:25:33Z</time>
  <course>359.23</course>
  <speed>0.2009975124224178</speed>
  <fix>3d</fix>
</trkpt>
<trkpt lat="40.072842" lon="-105.2305794">
  <ele>1594.06</ele>
  <time>2026-08-27T18:25:33Z</time>
  <course>86.3</course>
  <speed>0.2</speed>
  <fix>3d</fix>
</trkpt>
<trkpt lat="40.072842" lon="-105.2305785">
  <ele>1594.92</ele>
  <time>2026-08-27T18:25:33Z</time>
  <course>0.41</course>
  <speed>0.2109502310972899</speed>
  <fix>3d</fix>
</trkpt>
<trkpt lat="40.072842" lon="-105.2305789">
  <ele>1594.47</ele>
  <time>2026-08-27T18:25:33Z</time>
  <course>87.92</course>
  <speed>0.21</speed>
  <fix>3d</fix>
</trkpt>
<trkpt lat="40.072842" lon="-105.230578">
  <ele>1595.25</ele>
  <time>2026-08-27T18:25:33Z</time>
  <course>1.49</course>
  <speed>0.2308679276123039</speed>
  <fix>3d</fix>
</trkpt>
<trkpt lat="40.072842" lon="-105.2305784">
  <ele>1594.83</ele>
  <time>2026-08-27T18:25:33Z</time>
  <course>88.85</course>
  <speed>0.23</speed>
  <fix>3d</fix>
</trkpt>
<trkpt lat="40.072842" lon="-105.2305774">
  <ele>1595.53</ele>
  <time>2026-08-27T18:25:33Z</time>
  <course>2.46</course>
  <speed>0.2308679276123039</speed>
  <fix>3d</fix>
</trkpt>
<trkpt lat="40.072842" lon="-105.2305778">
  <ele>1595.14</ele>
  <time>2026-08-27T18:25:33Z</time>
  <course>89.39</course>
  <speed>0.24</speed>
  <fix>3d</fix>
</trkpt>
<trkpt lat="40.072842" lon="-105.2305769">
  <ele>1595.76</ele>
  <time>2026-08-27T18:25:33Z</time>
  <course>3.3</course>
  <speed>0.2308679276123039</speed>
  <fix>3d</fix>
</trkpt>
<trkpt lat="40.072842" lon="-105.2305772">
  <ele>1595.41</ele>
  <time>2026-08-27T18:25:33Z</time>
  <course>89.77</course>
  <speed>0.24</speed>
  <fix>3d</fix>
</trkpt>
<trkpt lat="40.072842" lon="-105.2305763">
  <ele>1595.95</ele>
  <time>2026-08-27T18:25:33Z</time>
  <course>4.02</course>
  <speed>0.2308679276123039</speed>
  <fix>3d</fix>
</trkpt>
<trkpt lat="40.072842" lon="-105.2305767">
  <ele>1595.64</ele>
  <time>2026-08-27T18:25:33Z</time>
  <course>90.13</course>
  <speed>0.24</speed>
  <fix>3d</fix>
</trkpt>
<trkpt lat="40.072842" lon="-105.2305758">
  <ele>1596.1</ele>
  <time>2026-08-27T18:25:33Z</time>
  <course>4.63</course>
  <speed>0.22090722034374521</speed>
  <fix>3d</fix>
</trkpt>
<trkpt lat="40.072842" lon="-105.230576">
  <ele>1595.82</ele>
  <time>2026-08-27T18:25:33Z</time>
  <course>90.59</course>
  <speed>0.24</speed>
  <fix>3d</fix>
</trkpt>
<trkpt lat="40.072842" lon="-105.2305752">
  <ele>1596.21</ele>
  <time>2026-08-27T18:25:33Z</time>
  <course>5.14</course>
  <speed>0.2109502310972899</speed>
  <fix>3d</fix>
</trkpt>
<trkpt lat="40.072842" lon="-105.2305755">
  <ele>1595.96</ele>
  <time>2026-08-27T18:25:33Z</time>
  <course>91.23</course>
  <speed>0.23</speed>
  <fix>3d</fix>
</trkpt>
<trkpt lat="40.072842" lon="-105.2305747">
  <ele>1596.28</ele>
  <time>2026-08-27T18:25:33Z</time>
  <course>5.6</course>
  <speed>0.2009975124224178</speed>
  <fix>3d</fix>
</trkpt>
<trkpt lat="40.072842" lon="-105.230575">
  <ele>1596.06</ele>
  <time>2026-08-27T18:25:33Z</time>
  <course>92.13</course>
  <speed>0.21</speed>
  <fix>3d</fix>
</trkpt>
<trkpt lat="40.072842" lon="-105.2305742">
  <ele>1596.3</ele>
  <time>2026-08-27T18:25:33Z</time>
  <course>5.91</course>
  <speed>0.18110770276274835</speed>
  <fix>3d</fix>
</trkpt>
<trkpt lat="40.072842" lon="-105.2305745">
  <ele>1596.12</ele>
  <time>2026-08-27T18:25:33Z</time>
  <course>93.33</course>
  <speed>0.2</speed>
  <fix>3d</fix>
</trkpt>
<trkpt lat="40.072842" lon="-105.2305738">
  <ele>1596.29</ele>
  <time>2026-08-27T18:25:33Z</time>
  <course>1.41</course>
  <speed>0.140356688476182</speed>
  <fix>3d</fix>
</trkpt>
<trkpt lat="40.072842" lon="-105.230574">
  <ele>1596.14</ele>
  <time>2026-08-27T18:25:33Z</time>
  <course>95.23</course>
  <speed>0.18</speed>
  <fix>3d</fix>
</trkpt>
<trkpt lat="40.072842" lon="-105.2305735">
  <ele>1596.26</ele>
  <time>2026-08-27T18:25:33Z</time>
  <course>2.45</course>
  <speed>0.09</speed>
  <fix>3d</fix>
</trkpt>
<trkpt lat="40.072842" lon="-105.2305736">
  <ele>1596.13</ele>
  <time>2026-08-27T18:25:33Z</time>
  <course>101.02</course>
  <speed>0.15</speed>
  <fix>3d</fix>
</trkpt>
<trkpt lat="40.072842" lon="-105.2305733">
  <ele>1596.23</ele>
  <time>2026-08-27T18:25:33Z</time>
  <course>2.42</course>
  <speed>0.0316227766016838</speed>
  <fix>3d</fix>
</trkpt>
<trkpt lat="40.0728419" lon="-105.2305734">
  <ele>1596.1</ele>
  <time>2026-08-27T18:25:33Z</time>
  <course>114.84</course>
  <speed>0.09</speed>
  <fix>3d</fix>
</trkpt>
<trkpt lat="40.072842" lon="-105.2305733">
  <ele>1596.2</ele>
  <time>2026-08-27T18:25:33Z</time>
  <course>2.31</course>
  <speed>0.05830951894845301</speed>
  <fix>3d</fix>
</trkpt>
<trkpt lat="40.0728419" lon="-105.2305732">
  <ele>1596.07</ele>
  <time>2026-08-27T18:25:33Z</time>
  <course>147.08</course>
  <speed>0.03</speed>
  <fix>3d</fix>
</trkpt>
<trkpt lat="40.072842" lon="-105.2305735">
  <ele>1596.18</ele>
  <time>2026-08-27T18:25:34Z</time>
  <course>2.23</course>
  <speed>0.16401219466856726</speed>
  <fix>3d</fix>
</trkpt>
<trkpt lat="40.0728419" lon="-105.2305733">
  <ele>1596.05</ele>
  <time>2026-08-27T18:25:34Z</time>
  <course>282.92</course>
  <speed>0.06</speed>
  <fix>3d</fix>
</trkpt>
<trkpt lat="40.0728422" lon="-105.2305738">
  <ele>1596.16</ele>
  <time>2026-08-27T18:25:34Z</time>
  <course>2.14</course>
  <speed>0.3</speed>
  <fix>3d</fix>
</trkpt>
<trkpt lat="40.0728419" lon="-105.2305734">
  <ele>1596.03</ele>
  <time>2026-08-27T18:25:34Z</time>
  <course>302.74</course>
  <speed>0.17</speed>
  <fix>3d</fix>
</trkpt>
<trkpt lat="40.0728427" lon="-105.2305742">
  <ele>1596.15</ele>
  <time>2026-08-27T18:25:34Z</time>
  <course>2.05</course>
  <speed>0.45803929962395146</speed>
  <fix>3d</fix>
</trkpt>
<trkpt lat="40.0728421" lon="-105.2305739">
  <ele>1596.02</ele>
  <time>2026-08-27T18:25:34Z</time>
  <course>310.43</course>
  <speed>0.32</speed>
  <fix>3d</fix>
</trkpt>
<trkpt lat="40.0728434" lon="-105.230575">
  <ele>1596.15</ele>
  <time>2026-08-27T18:25:34Z</time>
  <course>1.99</course>
  <speed>0.6324555320336759</speed>
  <fix>3d</fix>
</trkpt>
<trkpt lat="40.0728426" lon="-105.2305746">
  <ele>1596.02</ele>
  <time>2026-08-27T18:25:34Z</time>
  <course>314.99</course>
  <speed>0.49</speed>
  <fix>3d</fix>
</trkpt>
<trkpt lat="40.0728443" lon="-105.230576">
  <ele>1596.16</ele>
  <time>2026-08-27T18:25:34Z</time>
  <course>1.96</course>
  <speed>0.8154140052758475</speed>
  <fix>3d</fix>
</trkpt>
<trkpt lat="40.0728434" lon="-105.2305755">
  <ele>1596.02</ele>
  <time>2026-08-27T18:25:34Z</time>
  <course>318.3</course>
  <speed>0.67</speed>
  <fix>3d</fix>
</trkpt>
<trkpt lat="40.0728456" lon="-105.2305773">
  <ele>1596.16</ele>
  <time>2026-08-27T18:25:34Z</time>
  <course>1.98</course>
  <speed>1.010198000393982</speed>
  <fix>3d</fix>
</trkpt>
<trkpt lat="40.0728444" lon="-105.2305767">
  <ele>1596.03</ele>
  <time>2026-08-27T18:25:34Z</time>
  <course>321.1</course>
  <speed>0.86</speed>
  <fix>3d</fix>
</trkpt>
<trkpt lat="40.0728472" lon="-105.2305787">
  <ele>1596.16</ele>
  <time>2026-08-27T18:25:34Z</time>
  <course>357.74</course>
  <speed>1.1853269591129698</speed>
  <fix>3d</fix>
</trkpt>
<trkpt lat="40.0728458" lon="-105.2305781">
  <ele>1596.03</ele>
  <time>2026-08-27T18:25:34Z</time>
  <course>324.45</course>
  <speed>1.06</speed>
  <fix>3d</fix>
</trkpt>
<trkpt lat="40.0728491" lon="-105.2305803">
  <ele>1596.17</ele>
  <time>2026-08-27T18:25:34Z</time>
  <course>343.58</course>
  <speed>1.40470637501223</speed>
  <fix>3d</fix>
</trkpt>
<trkpt lat="40.0728475" lon="-105.2305796">
  <ele>1596.04</ele>
  <time>2026-08-27T18:25:34Z</time>
  <course>327.54</course>
  <speed>1.26</speed>
  <fix>3d</fix>
</trkpt>
<trkpt lat="40.0728514" lon="-105.2305821">
  <ele>1596.17</ele>
  <time>2026-08-27T18:25:34Z</time>
  <course>331.16</course>
  <speed>1.6288953311984167</speed>
  <fix>3d</fix>
</trkpt>
<trkpt lat="40.0728496" lon="-105.2305813">
  <ele>1596.05</ele>
  <time>2026-08-27T18:25:34Z</time>
  <course>328.67</course>
  <speed>1.48</speed>
  <fix>3d</fix>
</trkpt>
<trkpt lat="40.072854" lon="-105.2305843">
  <ele>1596.17</ele>
  <time>2026-08-27T18:25:34Z</time>
  <course>324.51</course>
  <speed>1.8607794065928394</speed>
  <fix>3d</fix>
</trkpt>
<trkpt lat="40.0728521" lon="-105.2305832">
  <ele>1596.06</ele>
  <time>2026-08-27T18:25:34Z</time>
  <course>328.05</course>
  <speed>1.71</speed>
  <fix>3d</fix>
</trkpt>
<trkpt lat="40.072857" lon="-105.2305868">
  <ele>1596.18</ele>
  <time>2026-08-27T18:25:34Z</time>
  <course>324.59</course>
  <speed>2.106181378704123</speed>
  <fix>3d</fix>
</trkpt>
<trkpt lat="40.0728549" lon="-105.2305855">
  <ele>1596.07</ele>
  <time>2026-08-27T18:25:34Z</time>
  <course>327.76</course>
  <speed>1.95</speed>
  <fix>3d</fix>
</trkpt>
<trkpt lat="40.0728604" lon="-105.2305896">
  <ele>1596.19</ele>
  <time>2026-08-27T18:25:34Z</time>
  <course>326.03</course>
  <speed>2.403039741660549</speed>
  <fix>3d</fix>
</trkpt>
<trkpt lat="40.0728581" lon="-105.2305881">
  <ele>1596.08</ele>
  <time>2026-08-27T18:25:34Z</time>
  <course>328.86</course>
  <speed>2.22</speed>
  <fix>3d</fix>
</trkpt>
<trkpt lat="40.0728645" lon="-105.2305925">
  <ele>1596.2</ele>
  <time>2026-08-27T18:25:34Z</time>
  <course>327.61</course>
  <speed>2.7415506561068685</speed>
  <fix>3d</fix>
</trkpt>
<trkpt lat="40.0728618" lon="-105.2305909">
  <ele>1596.1</ele>
  <time>2026-08-27T18:25:34Z</time>
  <course>330.54</course>
  <speed>2.53</speed>
  <fix>3d</fix>
</trkpt>
<trkpt lat="40.0728691" lon="-105.2305957">
  <ele>1596.21</ele>
  <time>2026-08-27T18:25:34Z</time>
  <course>328.8</course>
  <speed>3.1351714466676297</speed>
  <fix>3d</fix>
</trkpt>
<trkpt lat="40.0728661" lon="-105.230594">
  <ele>1596.11</ele>
  <time>2026-08-27T18:25:34Z</time>
  <course>332.15</course>
  <speed>2.89</speed>
  <fix>3d</fix>
</trkpt>
<trkpt lat="40.0728745" lon="-105.2305993">
  <ele>1596.22</ele>
  <time>2026-08-27T18:25:34Z</time>
  <course>329.55</course>
  <speed>3.5564729719203547</speed>
  <fix>3d</fix>
</trkpt>
<trkpt lat="40.072871" lon="-105.2305973">
  <ele>1596.12</ele>
  <time>2026-08-27T18:25:34Z</time>
  <course>333.42</course>
  <speed>3.29</speed>
  <fix>3d</fix>
</trkpt>
<trkpt lat="40.0728807" lon="-105.2306031">
  <ele>1596.23</ele>
  <time>2026-08-27T18:25:34Z</time>
  <course>329.96</course>
  <speed>3.995722713102099</speed>
  <fix>3d</fix>
</trkpt>
<trkpt lat="40.0728766" lon="-105.2306009">
  <ele>1596.13</ele>
  <time>2026-08-27T18:25:34Z</time>
  <course>334.31</course>
  <speed>3.72</speed>
  <fix>3d</fix>
</trkpt>
<trkpt lat="40.0728875" lon="-105.2306073">
  <ele>1596.24</ele>
  <time>2026-08-27T18:25:34Z</time>
  <course>330.14</course>
  <speed>4.412799564902082</speed>
  <fix>3d</fix>
</trkpt>
<trkpt lat="40.0728831" lon="-105.2306049">
  <ele>1596.15</ele>
  <time>2026-08-27T18:25:34Z</time>
  <course>334.89</course>
  <speed>4.15</speed>
  <fix>3d</fix>
</trkpt>
<trkpt lat="40.0728951" lon="-105.2306119">
  <ele>1596.26</ele>
  <time>2026-08-27T18:25:34Z</time>
  <course>330.21</course>
  <speed>4.834097640718483</speed>
  <fix>3d</fix>
</trkpt>
<trkpt lat="40.0728902" lon="-105.2306092">
  <ele>1596.17</ele>
  <time>2026-08-27T18:25:34Z</time>
  <course>335.26</course>
  <speed>4.58</speed>
  <fix>3d</fix>
</trkpt>
<trkpt lat="40.0729034" lon="-105.2306169">
  <ele>1596.29</ele>
  <time>2026-08-27T18:25:34Z</time>
  <course>330.23</course>
  <speed>5.24630346053295</speed>
  <fix>3d</fix>
</trkpt>
<trkpt lat="40.0728981" lon="-105.2306139">
  <ele>1596.19</ele>
  <time>2026-08-27T18:25:34Z</time>
  <course>335.54</course>
  <speed>5.0</speed>
  <fix>3d</fix>
</trkpt>
<trkpt lat="40.0729123" lon="-105.2306222">
  <ele>1596.33</ele>
  <time>2026-08-27T18:25:34Z</time>
  <course>330.21</course>
  <speed>5.654467260494131</speed>
  <fix>3d</fix>
</trkpt>
<trkpt lat="40.0729066" lon="-105.2306189">
  <ele>1596.22</ele>
  <time>2026-08-27T18:25:34Z</time>
  <course>335.76</course>
  <speed>5.42</speed>
  <fix>3d</fix>
</trkpt>
<trkpt lat="40.072922" lon="-105.2306278">
  <ele>1596.37</ele>
  <time>2026-08-27T18:25:34Z</time>
  <course>330.14</course>
  <speed>6.066712454039667</speed>
  <fix>3d</fix>
</trkpt>
<trkpt lat="40.0729158" lon="-105.2306244">
  <ele>1596.26</ele>
  <time>2026-08-27T18:25:34Z</time>
  <course>335.93</course>
  <speed>5.83</speed>
  <fix>3d</fix>
</trkpt>
<trkpt lat="40.0729323" lon="-105.2306338">
  <ele>1596.41</ele>
  <time>2026-08-27T18:25:34Z</time>
  <course>329.98</course>
  <speed>6.488119912578681</speed>
  <fix>3d</fix>
</trkpt>
<trkpt lat="40.0729257" lon="-105.2306301">
  <ele>1596.29</ele>
  <time>2026-08-27T18:25:34Z</time>
  <course>336.06</course>
  <speed>6.25</speed>
  <fix>3d</fix>
</trkpt>
<trkpt lat="40.0729433" lon="-105.2306402">
  <ele>1596.45</ele>
  <time>2026-08-27T18:25:34Z</time>
  <course>329.69</course>
  <speed>6.9044043914011874</speed>
  <fix>3d</fix>
</trkpt>
<trkpt lat="40.0729363" lon="-105.2306362">
  <ele>1596.33</ele>
  <time>2026-08-27T18:25:34Z</time>
  <course>336.12</course>
  <speed>6.67</speed>
  <fix>3d</fix>
</trkpt>
<trkpt lat="40.0729551" lon="-105.230647">
  <ele>1596.49</ele>
  <time>2026-08-27T18:25:34Z</time>
  <course>329.38</course>
  <speed>7.324725250819992</speed>
  <fix>3d</fix>
</trkpt>
<trkpt lat="40.0729477" lon="-105.2306428">
  <ele>1596.36</ele>
  <time>2026-08-27T18:25:34Z</time>
  <course>336.13</course>
  <speed>7.09</speed>
  <fix>3d</fix>
</trkpt>
<trkpt lat="40.0729675" lon="-105.2306543">
  <ele>1596.53</ele>
  <time>2026-08-27T18:25:34Z</time>
  <course>329.13</course>
  <speed>7.713585417949295</speed>
  <fix>3d</fix>
</trkpt>
<trkpt lat="40.0729596" lon="-105.2306498">
  <ele>1596.4</ele>
  <time>2026-08-27T18:25:34Z</time>
  <course>336.07</course>
  <speed>7.5</speed>
  <fix>3d</fix>
</trkpt>
<trkpt lat="40.0729806" lon="-105.2306619">
  <ele>1596.58</ele>
  <time>2026-08-27T18:25:34Z</time>
  <course>329.01</course>
  <speed>8.061867029416945</speed>
  <fix>3d</fix>
</trkpt>
<trkpt lat="40.0729723" lon="-105.2306571">
  <ele>1596.44</ele>
  <time>2026-08-27T18:25:34Z</time>
  <course>335.96</course>
  <speed>7.88</speed>
  <fix>3d</fix>
</trkpt>
<trkpt lat="40.0729942" lon="-105.2306699">
  <ele>1596.64</ele>
  <time>2026-08-27T18:25:34Z</time>
  <course>329.12</course>
  <speed>8.365512536599297</speed>
  <fix>3d</fix>
</trkpt>
<trkpt lat="40.0729855" lon="-105.2306648">
  <ele>1596.5</ele>
  <time>2026-08-27T18:25:34Z</time>
  <course>335.85</course>
  <speed>8.22</speed>
  <fix>3d</fix>
</trkpt>
<trkpt lat="40.0730082" lon="-105.2306781">
  <ele>1596.71</ele>
  <time>2026-08-27T18:25:34Z</time>
  <course>329.41</course>
  <speed>8.620394422530794</speed>
  <fix>3d</fix>
</trkpt>
<trkpt lat="40.0729992" lon="-105.2306729">
  <ele>1596.56</ele>
  <time>2026-08-27T18:25:34Z</time>
  <course>335.76</course>
  <speed>8.51</speed>
  <fix>3d</fix>
</trkpt>
<trkpt lat="40.0730227" lon="-105.2306867">
  <ele>1596.78</ele>
  <time>2026-08-27T18:25:34Z</time>
  <course>329.8</course>
  <speed>8.839711533754933</speed>
  <fix>3d</fix>
</trkpt>
<trkpt lat="40.0730134" lon="-105.2306812">
  <ele>1596.62</ele>
  <time>2026-08-27T18:25:34Z</time>
  <course>335.72</course>
  <speed>8.75</speed>
  <fix>3d</fix>
</trkpt>
<trkpt lat="40.0730374" lon="-105.2306953">
  <ele>1596.85</ele>
  <time>2026-08-27T18:25:34Z</time>
  <course>330.21</course>
  <speed>9.023463858186611</speed>
  <fix>3d</fix>
</trkpt>
<trkpt lat="40.0730279" lon="-105.2306898">
  <ele>1596.69</ele>
  <time>2026-08-27T18:25:34Z</time>
  <course>335.72</course>
  <speed>8.96</speed>
  <fix>3d</fix>
</trkpt>
<trkpt lat="40.0730524" lon="-105.2307042">
  <ele>1596.91</ele>
  <time>2026-08-27T18:25:34Z</time>
  <course>330.63</course>
  <speed>9.184878877807808</speed>
  <fix>3d</fix>
</trkpt>
<trkpt lat="40.0730427" lon="-105.2306986">
  <ele>1596.76</ele>
  <time>2026-08-27T18:25:34Z</time>
  <course>335.76</course>
  <speed>9.14</speed>
  <fix>3d</fix>
</trkpt>
<trkpt lat="40.0730677" lon="-105.2307132">
  <ele>1596.97</ele>
  <time>2026-08-27T18:25:34Z</time>
  <course>331.04</course>
  <speed>9.323958386865527</speed>
  <fix>3d</fix>
</trkpt>
<trkpt lat="40.0730578" lon="-105.2307074">
  <ele>1596.83</ele>
  <time>2026-08-27T18:25:34Z</time>
  <course>335.81</course>
  <speed>9.29</speed>
  <fix>3d</fix>
</trkpt>
<trkpt lat="40.0730832" lon="-105.2307222">
  <ele>1597.04</ele>
  <time>2026-08-27T18:25:34Z</time>
  <course>331.44</course>
  <speed>9.427497016705972</speed>
  <fix>3d</fix>
</trkpt>
<trkpt lat="40.0730732" lon="-105.2307164">
  <ele>1596.9</ele>
  <time>2026-08-27T18:25:34Z</time>
  <course>335.87</course>
  <speed>9.42</speed>
  <fix>3d</fix>
</trkpt>
<trkpt lat="40.0730988" lon="-105.2307313">
  <ele>1597.11</ele>
  <time>2026-08-27T18:25:34Z</time>
  <course>331.86</course>
  <speed>9.503646668516248</speed>
  <fix>3d</fix>
</trkpt>
<trkpt lat="40.0730887" lon="-105.2307255">
  <ele>1596.97</ele>
  <time>2026-08-27T18:25:34Z</time>
  <course>335.92</course>
  <speed>9.51</speed>
  <fix>3d</fix>
</trkpt>
<trkpt lat="40.0731146" lon="-105.2307405">
  <ele>1597.19</ele>
  <time>2026-08-27T18:25:34Z</time>
  <course>332.3</course>
  <speed>9.544254816380375</speed>
  <fix>3d</fix>
</trkpt>
<trkpt lat="40.0731044" lon="-105.2307346">
  <ele>1597.04</ele>
  <time>2026-08-27T18:25:34Z</time>
  <course>335.96</course>
  <speed>9.58</speed>
  <fix>3d</fix>
</trkpt>
<trkpt lat="40.0731304" lon="-105.2307497">
  <ele>1597.26</ele>
  <time>2026-08-27T18:25:34Z</time>
  <course>332.77</course>
  <speed>9.553392067742221</speed>
  <fix>3d</fix>
</trkpt>
<trkpt lat="40.0731202" lon="-105.2307438">
  <ele>1597.11</ele>
  <time>2026-08-27T18:25:34Z</time>
  <course>336.0</course>
  <speed>9.6</speed>
  <fix>3d</fix>
</trkpt>
<trkpt lat="40.0731461" lon="-105.2307588">
  <ele>1597.33</ele>
  <time>2026-08-27T18:25:34Z</time>
  <course>333.2</course>
  <speed>9.540193918364553</speed>
  <fix>3d</fix>
</trkpt>
<trkpt lat="40.073136" lon="-105.2307529">
  <ele>1597.18</ele>
  <time>2026-08-27T18:25:34Z</time>
  <course>336.04</course>
  <speed>9.61</speed>
  <fix>3d</fix>
</trkpt>
<trkpt lat="40.0731618" lon="-105.2307679">
  <ele>1597.39</ele>
  <time>2026-08-27T18:25:34Z</time>
  <course>333.48</course>
  <speed>9.536141777469544</speed>
  <fix>3d</fix>
</trkpt>
<trkpt lat="40.0731518" lon="-105.2307621">
  <ele>1597.25</ele>
  <time>2026-08-27T18:25:34Z</time>
  <course>336.07</course>
  <speed>9.59</speed>
  <fix>3d</fix>
</trkpt>
<trkpt lat="40.0731776" lon="-105.230777">
  <ele>1597.43</ele>
  <time>2026-08-27T18:25:34Z</time>
  <course>333.55</course>
  <speed>9.545286795062786</speed>
  <fix>3d</fix>
</trkpt>
<trkpt lat="40.0731675" lon="-105.2307712">
  <ele>1597.3</ele>
  <time>2026-08-27T18:25:34Z</time>
  <course>336.11</course>
  <speed>9.58</speed>
  <fix>3d</fix>
</trkpt>
<trkpt lat="40.0731933" lon="-105.2307861">
  <ele>1597.47</ele>
  <time>2026-08-27T18:25:34Z</time>
  <course>333.46</course>
  <speed>9.567622484191148</speed>
  <fix>3d</fix>
</trkpt>
<trkpt lat="40.0731832" lon="-105.2307803">
  <ele>1597.35</ele>
  <time>2026-08-27T18:25:34Z</time>
  <course>336.12</course>
  <speed>9.59</speed>
  <fix>3d</fix>
</trkpt>
<trkpt lat="40.0732091" lon="-105.2307953">
  <ele>1597.51</ele>
  <time>2026-08-27T18:25:34Z</time>
  <course>333.25</course>
  <speed>9.60720562910985</speed>
  <fix>3d</fix>
</trkpt>
<trkpt lat="40.073199" lon="-105.2307895">
  <ele>1597.39</ele>
  <time>2026-08-27T18:25:34Z</time>
  <course>336.08</course>
  <speed>9.62</speed>
  <fix>3d</fix>
</trkpt>
<trkpt lat="40.0732249" lon="-105.2308045">
  <ele>1597.54</ele>
  <time>2026-08-27T18:25:34Z</time>
  <course>333.0</course>
  <speed>9.664103683218634</speed>
  <fix>3d</fix>
</trkpt>
<trkpt lat="40.0732148" lon="-105.2307987">
  <ele>1597.42</ele>
  <time>2026-08-27T18:25:34Z</time>
  <course>335.98</course>
  <speed>9.67</speed>
  <fix>3d</fix>
</trkpt>
<trkpt lat="40.0732408" lon="-105.2308138">
  <ele>1597.59</ele>
  <time>2026-08-27T18:25:34Z</time>
  <course>332.74</course>
  <speed>9.721090473810024</speed>
  <fix>3d</fix>
</trkpt>
<trkpt lat="40.0732308" lon="-105.230808">
  <ele>1597.47</ele>
  <time>2026-08-27T18:25:34Z</time>
  <course>335.82</course>
  <speed>9.72</speed>
  <fix>3d</fix>
</trkpt>
<trkpt lat="40.0732568" lon="-105.2308233">
  <ele>1597.64</ele>
  <time>2026-08-27T18:25:34Z</time>
  <course>332.51</course>
  <speed>9.778164449425056</speed>
  <fix>3d</fix>
</trkpt>
<trkpt lat="40.0732468" lon="-105.2308174">
  <ele>1597.51</ele>
  <time>2026-08-27T18:25:34Z</time>
  <course>335.63</course>
  <speed>9.78</speed>
  <fix>3d</fix>
</trkpt>
<trkpt lat="40.0732728" lon="-105.2308329">
  <ele>1597.69</ele>
  <time>2026-08-27T18:25:34Z</time>
  <course>332.31</course>
  <speed>9.839496938360213</speed>
  <fix>3d</fix>
</trkpt>
<trkpt lat="40.0732627" lon="-105.2308269">
  <ele>1597.56</ele>
  <time>2026-08-27T18:25:34Z</time>
  <course>335.42</course>
  <speed>9.83</speed>
  <fix>3d</fix>
</trkpt>
<trkpt lat="40.073289" lon="-105.2308427">
  <ele>1597.75</ele>
  <time>2026-08-27T18:25:34Z</time>
  <course>332.15</course>
  <speed>9.887694372299338</speed>
  <fix>3d</fix>
</trkpt>
<trkpt lat="40.0732789" lon="-105.2308366">
  <ele>1597.61</ele>
  <time>2026-08-27T18:25:34Z</time>
  <course>335.23</course>
  <speed>9.88</speed>
  <fix>3d</fix>
</trkpt>
<trkpt lat="40.0733053" lon="-105.2308526">
  <ele>1597.81</ele>
  <time>2026-08-27T18:25:34Z</time>
  <course>332.03</course>
  <speed>9.93176721434811</speed>
  <fix>3d</fix>
</trkpt>
<trkpt lat="40.073295" lon="-105.2308463">
  <ele>1597.66</ele>
  <time>2026-08-27T18:25:34Z</time>
  <course>335.05</course>
  <speed>9.93</speed>
  <fix>3d</fix>
</trkpt>
<trkpt lat="40.0733215" lon="-105.2308625">
  <ele>1597.87</ele>
  <time>2026-08-27T18:25:34Z</time>
  <course>331.98</course>
  <speed>9.97589594973805</speed>
  <fix>3d</fix>
</trkpt>
<trkpt lat="40.0733112" lon="-105.2308563">
  <ele>1597.73</ele>
  <time>2026-08-27T18:25:34Z</time>
  <course>334.89</course>
  <speed>9.97</speed>
  <fix>3d</fix>
</trkpt>
<trkpt lat="40.0733378" lon="-105.2308726">
  <ele>1597.94</ele>
  <time>2026-08-27T18:25:34Z</time>
  <course>331.97</course>
  <speed>10.00250468632732</speed>
  <fix>3d</fix>
</trkpt>
<trkpt lat="40.0733275" lon="-105.2308663">
  <ele>1597.79</ele>
  <time>2026-08-27T18:25:34Z</time>
  <course>334.76</course>
  <speed>10.0</speed>
  <fix>3d</fix>
</trkpt>
<trkpt lat="40.0733542" lon="-105.2308827">
  <ele>1598.0</ele>
  <time>2026-08-27T18:25:34Z</time>
  <course>332.03</course>
  <speed>10.020079840001276</speed>
  <fix>3d</fix>
</trkpt>
<trkpt lat="40.0733438" lon="-105.2308763">
  <ele>1597.85</ele>
  <time>2026-08-27T18:25:34Z</time>
  <course>334.67</course>
  <speed>10.02</speed>
  <fix>3d</fix>
</trkpt>
<trkpt lat="40.0733705" lon="-105.2308928">
  <ele>1598.07</ele>
  <time>2026-08-27T18:25:34Z</time>
  <course>332.09</course>
  <speed>10.033394241232624</speed>
  <fix>3d</fix>
</trkpt>
<trkpt lat="40.0733601" lon="-105.2308864">
  <ele>1597.91</ele>
  <time>2026-08-27T18:25:34Z</time>
  <course>334.62</course>
  <speed>10.04</speed>
  <fix>3d</fix>
</trkpt>
<trkpt lat="40.0733869" lon="-105.2309029">
  <ele>1598.13</ele>
  <time>2026-08-27T18:25:34Z</time>
  <course>332.2</course>
  <speed>10.033394241232624</speed>
  <fix>3d</fix>
</trkpt>
<trkpt lat="40.0733764" lon="-105.2308965">
  <ele>1597.98</ele>
  <time>2026-08-27T18:25:34Z</time>
  <course>334.6</course>
  <speed>10.04</speed>
  <fix>3d</fix>
</trkpt>
<trkpt lat="40.0734032" lon="-105.2309131">
  <ele>1598.19</ele>
  <time>2026-08-27T18:25:34Z</time>
  <course>332.3</course>
  <speed>10.04243496369282</speed>
  <fix>3d</fix>
</trkpt>
<trkpt lat="40.0733927" lon="-105.2309066">
  <ele>1598.03</ele>
  <time>2026-08-27T18:25:34Z</time>
  <course>334.61</course>
  <speed>10.05</speed>
  <fix>3d</fix>
</trkpt>
<trkpt lat="40.0734196" lon="-105.2309232">
  <ele>1598.25</ele>
  <time>2026-08-27T18:25:34Z</time>
  <course>332.44</course>
  <speed>10.047213544062851</speed>
  <fix>3d</fix>
</trkpt>
<trkpt lat="40.073409" lon="-105.2309167">
  <ele>1598.09</ele>
  <time>2026-08-27T18:25:34Z</time>
  <course>334.65</course>
  <speed>10.05</speed>
  <fix>3d</fix>
</trkpt>
<trkpt lat="40.0734359" lon="-105.2309332">
  <ele>1598.3</ele>
  <time>2026-08-27T18:25:34Z</time>
  <course>332.55</course>
  <speed>10.042957731664512</speed>
  <fix>3d</fix>
</trkpt>
<trkpt lat="40.0734253" lon="-105.2309268">
  <ele>1598.14</ele>
  <time>2026-08-27T18:25:34Z</time>
  <course>334.71</course>
  <speed>10.05</speed>
  <fix>3d</fix>
</trkpt>
<trkpt lat="40.0734524" lon="-105.2309433">
  <ele>1598.36</ele>
  <time>2026-08-27T18:25:34Z</time>
  <course>332.68</course>
  <speed>10.038710076498873</speed>
  <fix>3d</fix>
</trkpt>
<trkpt lat="40.0734416" lon="-105.2309368">
  <ele>1598.2</ele>
  <time>2026-08-27T18:25:34Z</time>
  <course>334.77</course>
  <speed>10.05</speed>
  <fix>3d</fix>
</trkpt>
<trkpt lat="40.0734687" lon="-105.2309534">
  <ele>1598.41</ele>
  <time>2026-08-27T18:25:34Z</time>
  <course>332.85</course>
  <speed>10.030239279299373</speed>
  <fix>3d</fix>
</trkpt>
<trkpt lat="40.073458" lon="-105.2309469">
  <ele>1598.25</ele>
  <time>2026-08-27T18:25:34Z</time>
  <course>334.85</course>
  <speed>10.04</speed>
  <fix>3d</fix>
</trkpt>
<trkpt lat="40.073485" lon="-105.2309633">
  <ele>1598.47</ele>
  <time>2026-08-27T18:25:34Z</time>
  <course>333.0</course>
  <speed>10.021801235306954</speed>
  <fix>3d</fix>
</trkpt>
<trkpt lat="40.0734743" lon="-105.2309569">
  <ele>1598.31</ele>
  <time>2026-08-27T18:25:34Z</time>
  <course>334.93</course>
  <speed>10.03</speed>
  <fix>3d</fix>
</trkpt>
<trkpt lat="40.0735013" lon="-105.2309733">
  <ele>1598.52</ele>
  <time>2026-08-27T18:25:34Z</time>
  <course>333.14</course>
  <speed>10.008521369313252</speed>
  <fix>3d</fix>
</trkpt>
<trkpt lat="40.0734907" lon="-105.2309669">
  <ele>1598.36</ele>
  <time>2026-08-27T18:25:34Z</time>
  <course>335.01</course>
  <speed>10.02</speed>
  <fix>3d</fix>
</trkpt>
<trkpt lat="40.0735178" lon="-105.2309832">
  <ele>1598.57</ele>
  <time>2026-08-27T18:25:34Z</time>
  <course>333.27</course>
  <speed>10.000124999218759</speed>
  <fix>3d</fix>
</trkpt>
<trkpt lat="40.073507" lon="-105.2309768">
  <ele>1598.41</ele>
  <time>2026-08-27T18:25:34Z</time>
  <course>335.1</course>
  <speed>10.0</speed>
  <fix>3d</fix>
</trkpt>
<trkpt lat="40.0735341" lon="-105.2309931">
  <ele>1598.62</ele>
  <time>2026-08-27T18:25:34Z</time>
  <course>333.38</course>
  <speed>9.982674992205245</speed>
  <fix>3d</fix>
</trkpt>
<trkpt lat="40.0735233" lon="-105.2309867">
  <ele>1598.47</ele>
  <time>2026-08-27T18:25:34Z</time>
  <course>335.17</course>
  <speed>9.99</speed>
  <fix>3d</fix>
</trkpt>
<trkpt lat="40.0735504" lon="-105.2310029">
  <ele>1598.67</ele>
  <time>2026-08-27T18:25:34Z</time>
  <course>333.46</course>
  <speed>9.969413222451962</speed>
  <fix>3d</fix>
</trkpt>
<trkpt lat="40.0735396" lon="-105.2309966">
  <ele>1598.53</ele>
  <time>2026-08-27T18:25:34Z</time>
  <course>335.24</course>
  <speed>9.98</speed>
  <fix>3d</fix>
</trkpt>
<trkpt lat="40.0735667" lon="-105.2310127">
  <ele>1598.73</ele>
  <time>2026-08-27T18:25:34Z</time>
  <course>333.55</course>
  <speed>9.951989750798582</speed>
  <fix>3d</fix>
</trkpt>
<trkpt lat="40.0735559" lon="-105.2310063">
  <ele>1598.59</ele>
  <time>2026-08-27T18:25:34Z</time>
  <course>335.3</course>
  <speed>9.96</speed>
  <fix>3d</fix>
</trkpt>
<trkpt lat="40.0735829" lon="-105.2310224">
  <ele>1598.78</ele>
  <time>2026-08-27T18:25:34Z</time>
  <course>333.62</course>
  <speed>9.947833935083557</speed>
  <fix>3d</fix>
</trkpt>
<trkpt lat="40.0735721" lon="-105.2310161">
  <ele>1598.64</ele>
  <time>2026-08-27T18:25:34Z</time>
  <course>335.34</course>
  <speed>9.95</speed>
  <fix>3d</fix>
</trkpt>
<trkpt lat="40.0735992" lon="-105.2310322">
  <ele>1598.84</ele>
  <time>2026-08-27T18:25:34Z</time>
  <course>333.68</course>
  <speed>9.938737344351143</speed>
  <fix>3d</fix>
</trkpt>
<trkpt lat="40.0735884" lon="-105.2310258">
  <ele>1598.7</ele>
  <time>2026-08-27T18:25:34Z</time>
  <course>335.37</course>
  <speed>9.94</speed>
  <fix>3d</fix>
</trkpt>
<trkpt lat="40.0736154" lon="-105.2310419">
  <ele>1598.9</ele>
  <time>2026-08-27T18:25:34Z</time>
  <course>333.73</course>
  <speed>9.925487393574182</speed>
  <fix>3d</fix>
</trkpt>
<trkpt lat="40.0736045" lon="-105.2310355">
  <ele>1598.76</ele>
  <time>2026-08-27T18:25:34Z</time>
  <course>335.39</course>
  <speed>9.93</speed>
  <fix>3d</fix>
</trkpt>
<trkpt lat="40.0736316" lon="-105.2310516">
  <ele>1598.96</ele>
  <time>2026-08-27T18:25:34Z</time>
  <course>333.74</course>
  <speed>9.91639047234426</speed>
  <fix>3d</fix>
</trkpt>
<trkpt lat="40.0736208" lon="-105.2310452">
  <ele>1598.82</ele>
  <time>2026-08-27T18:25:34Z</time>
  <course>335.41</course>
  <speed>9.92</speed>
  <fix>3d</fix>
</trkpt>
<trkpt lat="40.0736478" lon="-105.2310612">
  <ele>1599.01</ele>
  <time>2026-08-27T18:25:34Z</time>
  <course>333.76</course>
  <speed>9.91639047234426</speed>
  <fix>3d</fix>
</trkpt>
<trkpt lat="40.073637" lon="-105.2310549">
  <ele>1598.88</ele>
  <time>2026-08-27T18:25:34Z</time>
  <course>335.41</course>
  <speed>9.91</speed>
  <fix>3d</fix>
</trkpt>
<trkpt lat="40.0736639" lon="-105.2310709">
  <ele>1599.07</ele>
  <time>2026-08-27T18:25:34Z</time>
  <course>333.73</course>
  <speed>9.91639047234426</speed>
  <fix>3d</fix>
</trkpt>
<trkpt lat="40.0736533" lon="-105.2310646">
  <ele>1598.94</ele>
  <time>2026-08-27T18:25:34Z</time>
  <course>335.39</course>
  <speed>9.91</speed>
  <fix>3d</fix>
</trkpt>
<trkpt lat="40.0736801" lon="-105.2310806">
  <ele>1599.13</ele>
  <time>2026-08-27T18:25:34Z</time>
  <course>333.72</course>
  <speed>9.91639047234426</speed>
  <fix>3d</fix>
</trkpt>
<trkpt lat="40.0736694" lon="-105.2310743">
  <ele>1598.99</ele>
  <time>2026-08-27T18:25:34Z</time>
  <course>335.37</course>
  <speed>9.91</speed>
  <fix>3d</fix>
</trkpt>
<trkpt lat="40.0736963" lon="-105.2310903">
  <ele>1599.19</ele>
  <time>2026-08-27T18:25:34Z</time>
  <course>333.68</course>
  <speed>9.920549379948673</speed>
  <fix>3d</fix>
</trkpt>
<trkpt lat="40.0736857" lon="-105.231084">
  <ele>1599.05</ele>
  <time>2026-08-27T18:25:34Z</time>
  <course>335.34</course>
  <speed>9.92</speed>
  <fix>3d</fix>
</trkpt>
<trkpt lat="40.0737125" lon="-105.2311">
  <ele>1599.25</ele>
  <time>2026-08-27T18:25:34Z</time>
  <course>333.66</course>
  <speed>9.924716620639604</speed>
  <fix>3d</fix>
</trkpt>
<trkpt lat="40.0737019" lon="-105.2310938">
  <ele>1599.11</ele>
  <time>2026-08-27T18:25:34Z</time>
  <course>335.31</course>
  <speed>9.93</speed>
  <fix>3d</fix>
</trkpt>
<trkpt lat="40.0737287" lon="-105.2311097">
  <ele>1599.31</ele>
  <time>2026-08-27T18:25:34Z</time>
  <course>333.62</course>
  <speed>9.937977661476202</speed>
  <fix>3d</fix>
</trkpt>
<trkpt lat="40.073718" lon="-105.2311035">
  <ele>1599.16</ele>
  <time>2026-08-27T18:25:34Z</time>
  <course>335.27</course>
  <speed>9.94</speed>
  <fix>3d</fix>
</trkpt>
<trkpt lat="40.0737449" lon="-105.2311195">
  <ele>1599.37</ele>
  <time>2026-08-27T18:25:34Z</time>
  <course>333.6</course>
  <speed>9.951241128623103</speed>
  <fix>3d</fix>
</trkpt>
<trkpt lat="40.0737343" lon="-105.2311133">
  <ele>1599.22</ele>
  <time>2026-08-27T18:25:34Z</time>
  <course>335.22</course>
  <speed>9.95</speed>
  <fix>3d</fix>
</trkpt>
<trkpt lat="40.0737611" lon="-105.2311293">
  <ele>1599.43</ele>
  <time>2026-08-27T18:25:34Z</time>
  <course>333.59</course>
  <speed>9.955425656394606</speed>
  <fix>3d</fix>
</trkpt>
<trkpt lat="40.0737505" lon="-105.231123">
  <ele>1599.27</ele>
  <time>2026-08-27T18:25:34Z</time>
  <course>335.18</course>
  <speed>9.96</speed>
  <fix>3d</fix>
</trkpt>
<trkpt lat="40.0737774" lon="-105.2311392">
  <ele>1599.48</ele>
  <time>2026-08-27T18:25:34Z</time>
  <course>333.56</course>
  <speed>9.968696002988555</speed>
  <fix>3d</fix>
</trkpt>
<trkpt lat="40.0737668" lon="-105.2311329">
  <ele>1599.33</ele>
  <time>2026-08-27T18:25:34Z</time>
  <course>335.14</course>
  <speed>9.97</speed>
  <fix>3d</fix>
</trkpt>
<trkpt lat="40.0737937" lon="-105.231149">
  <ele>1599.53</ele>
  <time>2026-08-27T18:25:34Z</time>
  <course>333.54</course>
  <speed>9.97777530314248</speed>
  <fix>3d</fix>
</trkpt>
<trkpt lat="40.073783" lon="-105.2311427">
  <ele>1599.38</ele>
  <time>2026-08-27T18:25:34Z</time>
  <course>335.11</course>
  <speed>9.98</speed>
  <fix>3d</fix>
</trkpt>
<trkpt lat="40.07381" lon="-105.2311589">
  <ele>1599.59</ele>
  <time>2026-08-27T18:25:34Z</time>
  <course>333.55</course>
  <speed>9.991045991286397</speed>
  <fix>3d</fix>
</trkpt>
<trkpt lat="40.0737993" lon="-105.2311526">
  <ele>1599.44</ele>
  <time>2026-08-27T18:25:34Z</time>
  <course>335.08</course>
  <speed>9.99</speed>
  <fix>3d</fix>
</trkpt>
<trkpt lat="40.0738263" lon="-105.2311688">
  <ele>1599.65</ele>
  <time>2026-08-27T18:25:34Z</time>
  <course>333.55</course>
  <speed>9.995243868960877</speed>
  <fix>3d</fix>
</trkpt>
<trkpt lat="40.0738157" lon="-105.2311625">
  <ele>1599.5</ele>
  <time>2026-08-27T18:25:34Z</time>
  <course>335.06</course>
  <speed>10.0</speed>
  <fix>3d</fix>
</trkpt>
<trkpt lat="40.0738426" lon="-105.2311787">
  <ele>1599.71</ele>
  <time>2026-08-27T18:25:34Z</time>
  <course>333.58</course>
  <speed>10.004319067282891</speed>
  <fix>3d</fix>
</trkpt>
<trkpt lat="40.073832" lon="-105.2311725">
  <ele>1599.56</ele>
  <time>2026-08-27T18:25:34Z</time>
  <course>335.04</course>
  <speed>10.01</speed>
  <fix>3d</fix>
</trkpt>
<trkpt lat="40.073859" lon="-105.2311887">
  <ele>1599.77</ele>
  <time>2026-08-27T18:25:34Z</time>
  <course>333.66</course>
  <speed>10.004319067282891</speed>
  <fix>3d</fix>
</trkpt>
<trkpt lat="40.0738483" lon="-105.2311824">
  <ele>1599.62</ele>
  <time>2026-08-27T18:25:34Z</time>
  <course>335.04</course>
  <speed>10.01</speed>
  <fix>3d</fix>
</trkpt>
<trkpt lat="40.0738753" lon="-105.2311986">
  <ele>1599.82</ele>
  <time>2026-08-27T18:25:34Z</time>
  <course>333.69</course>
  <speed>10.004319067282891</speed>
  <fix>3d</fix>
</trkpt>
<trkpt lat="40.0738646" lon="-105.2311923">
  <ele>1599.67</ele>
  <time>2026-08-27T18:25:34Z</time>
  <course>335.04</course>
  <speed>10.01</speed>
  <fix>3d</fix>
</trkpt>
<trkpt lat="40.0738916" lon="-105.2312085">
  <ele>1599.88</ele>
  <time>2026-08-27T18:25:34Z</time>
  <course>333.77</course>
  <speed>9.991045991286397</speed>
  <fix>3d</fix>
</trkpt>
<trkpt lat="40.0738809" lon="-105.2312022">
  <ele>1599.74</ele>
  <time>2026-08-27T18:25:34Z</time>
  <course>335.06</course>
  <speed>10.01</speed>
  <fix>3d</fix>
</trkpt>
<trkpt lat="40.0739079" lon="-105.2312184">
  <ele>1599.93</ele>
  <time>2026-08-27T18:25:34Z</time>
  <course>333.82</course>
  <speed>9.991045991286397</speed>
  <fix>3d</fix>
</trkpt>
<trkpt lat="40.0738972" lon="-105.2312121">
  <ele>1599.8</ele>
  <time>2026-08-27T18:25:34Z</time>
  <course>335.08</course>
  <speed>10.01</speed>
  <fix>3d</fix>
</trkpt>
<trkpt lat="40.0739242" lon="-105.2312283">
  <ele>1599.99</ele>
  <time>2026-08-27T18:25:34Z</time>
  <course>333.87</course>
  <speed>9.98685636223932</speed>
  <fix>3d</fix>
</trkpt>
<trkpt lat="40.0739135" lon="-105.231222">
  <ele>1599.86</ele>
  <time>2026-08-27T18:25:34Z</time>
  <course>335.1</course>
  <speed>10.0</speed>
  <fix>3d</fix>
</trkpt>
<trkpt lat="40.0739405" lon="-105.2312382">
  <ele>1600.05</ele>
  <time>2026-08-27T18:25:34Z</time>
  <course>333.89</course>
  <speed>9.98685636223932</speed>
  <fix>3d</fix>
</trkpt>
<trkpt lat="40.0739298" lon="-105.2312319">
  <ele>1599.91</ele>
  <time>2026-08-27T18:25:34Z</time>
  <course>335.13</course>
  <speed>10.0</speed>
  <fix>3d</fix>
</trkpt>
<trkpt lat="40.0739569" lon="-105.231248">
  <ele>1600.11</ele>
  <time>2026-08-27T18:25:34Z</time>
  <course>333.94</course>
  <speed>9.982674992205245</speed>
  <fix>3d</fix>
</trkpt>
<trkpt lat="40.0739461" lon="-105.2312417">
  <ele>1599.98</ele>
  <time>2026-08-27T18:25:34Z</time>
  <course>335.15</course>
  <speed>10.0</speed>
  <fix>3d</fix>
</trkpt>
<trkpt lat="40.0739732" lon="-105.2312579">
  <ele>1600.17</ele>
  <time>2026-08-27T18:25:34Z</time>
  <course>334.0</course>
  <speed>9.982674992205245</speed>
  <fix>3d</fix>
</trkpt>
<trkpt lat="40.0739624" lon="-105.2312516">
  <ele>1600.04</ele>
  <time>2026-08-27T18:25:34Z</time>
  <course>335.18</course>
  <speed>10.0</speed>
  <fix>3d</fix>
</trkpt>
<trkpt lat="40.0739895" lon="-105.2312677">
  <ele>1600.23</ele>
  <time>2026-08-27T18:25:34Z</time>
  <course>334.04</course>
  <speed>9.982674992205245</speed>
  <fix>3d</fix>
</trkpt>
<trkpt lat="40.0739787" lon="-105.2312615">
  <ele>1600.1</ele>
  <time>2026-08-27T18:25:34Z</time>
  <course>335.2</course>
  <speed>10.0</speed>
  <fix>3d</fix>
</trkpt>
<trkpt lat="40.0740058" lon="-105.2312775">
  <ele>1600.29</ele>
  <time>2026-08-27T18:25:34Z</time>
  <course>334.12</course>
  <speed>9.97850189156669</speed>
  <fix>3d</fix>
</trkpt>
<trkpt lat="40.0739951" lon="-105.2312714">
  <ele>1600.15</ele>
  <time>2026-08-27T18:25:34Z</time>
  <course>335.22</course>
  <speed>10.0</speed>
  <fix>3d</fix>
</trkpt>
<trkpt lat="40.0740221" lon="-105.2312874">
  <ele>1600.35</ele>
  <time>2026-08-27T18:25:34Z</time>
  <course>334.13</course>
  <speed>9.97850189156669</speed>
  <fix>3d</fix>
</trkpt>
<trkpt lat="40.0740114" lon="-105.2312812">
  <ele>1600.21</ele>
  <time>2026-08-27T18:25:34Z</time>
  <course>335.24</course>
  <speed>9.99</speed>
  <fix>3d</fix>
</trkpt>
<trkpt lat="40.0740383" lon="-105.2312972">
  <ele>1600.41</ele>
  <time>2026-08-27T18:25:34Z</time>
  <course>334.16</course>
  <speed>9.974337070702996</speed>
  <fix>3d</fix>
</trkpt>
<trkpt lat="40.0740277" lon="-105.231291">
  <ele>1600.27</ele>
  <time>2026-08-27T18:25:34Z</time>
  <course>335.26</course>
  <speed>9.99</speed>
  <fix>3d</fix>
</trkpt>
<trkpt lat="40.0740546" lon="-105.231307">
  <ele>1600.47</ele>
  <time>2026-08-27T18:25:34Z</time>
  <course>334.18</course>
  <speed>9.974337070702996</speed>
  <fix>3d</fix>
</trkpt>
<trkpt lat="40.074044" lon="-105.2313009">
  <ele>1600.33</ele>
  <time>2026-08-27T18:25:34Z</time>
  <course>335.27</course>
  <speed>9.99</speed>
  <fix>3d</fix>
</trkpt>
<trkpt lat="40.0740709" lon="-105.2313167">
  <ele>1600.52</ele>
  <time>2026-08-27T18:25:34Z</time>
  <course>334.19</course>
  <speed>9.974337070702996</speed>
  <fix>3d</fix>
</trkpt>
<trkpt lat="40.0740603" lon="-105.2313107">
  <ele>1600.38</ele>
  <time>2026-08-27T18:25:34Z</time>
  <course>335.29</course>
  <speed>10.0</speed>
  <fix>3d</fix>
</trkpt>
<trkpt lat="40.0740872" lon="-105.2313265">
  <ele>1600.58</ele>
  <time>2026-08-27T18:25:34Z</time>
  <course>334.2</course>
  <speed>9.983431273865714</speed>
  <fix>3d</fix>
</trkpt>
<trkpt lat="40.0740766" lon="-105.2313205">
  <ele>1600.44</ele>
  <time>2026-08-27T18:25:34Z</time>
  <course>335.29</course>
  <speed>10.0</speed>
  <fix>3d</fix>
</trkpt>
<trkpt lat="40.0741035" lon="-105.2313364">
  <ele>1600.63</ele>
  <time>2026-08-27T18:25:34Z</time>
  <course>334.21</course>
  <speed>9.987592302452079</speed>
  <fix>3d</fix>
</trkpt>
<trkpt lat="40.074093" lon="-105.2313303">
  <ele>1600.49</ele>
  <time>2026-08-27T18:25:34Z</time>
  <course>335.29</course>
  <speed>10.01</speed>
  <fix>3d</fix>
</trkpt>
<trkpt lat="40.0741198" lon="-105.2313462">
  <ele>1600.69</ele>
  <time>2026-08-27T18:25:34Z</time>
  <course>334.19</course>
  <speed>9.987592302452079</speed>
  <fix>3d</fix>
</trkpt>
<trkpt lat="40.0741094" lon="-105.2313401">
  <ele>1600.55</ele>
  <time>2026-08-27T18:25:34Z</time>
  <course>335.28</course>
  <speed>10.01</speed>
  <fix>3d</fix>
</trkpt>
<trkpt lat="40.0741362" lon="-105.2313561">
  <ele>1600.75</ele>
  <time>2026-08-27T18:25:34Z</time>
  <course>334.19</course>
  <speed>9.996684450356527</speed>
  <fix>3d</fix>
</trkpt>
<trkpt lat="40.0741257" lon="-105.2313499">
  <ele>1600.6</ele>
  <time>2026-08-27T18:25:34Z</time>
  <course>335.27</course>
  <speed>10.02</speed>
  <fix>3d</fix>
</trkpt>
<trkpt lat="40.0741526" lon="-105.2313659">
  <ele>1600.8</ele>
  <time>2026-08-27T18:25:34Z</time>
  <course>334.24</course>
  <speed>10.00084996387807</speed>
  <fix>3d</fix>
</trkpt>
<trkpt lat="40.0741421" lon="-105.2313598">
  <ele>1600.65</ele>
  <time>2026-08-27T18:25:34Z</time>
  <course>335.26</course>
  <speed>10.02</speed>
  <fix>3d</fix>
</trkpt>
<trkpt lat="40.074169" lon="-105.2313758">
  <ele>1600.86</ele>
  <time>2026-08-27T18:25:34Z</time>
  <course>334.27</course>
  <speed>10.00084996387807</speed>
  <fix>3d</fix>
</trkpt>
<trkpt lat="40.0741584" lon="-105.2313696">
  <ele>1600.72</ele>
  <time>2026-08-27T18:25:34Z</time>
  <course>335.25</course>
  <speed>10.02</speed>
  <fix>3d</fix>
</trkpt>
<trkpt lat="40.0741853" lon="-105.2313856">
  <ele>1600.92</ele>
  <time>2026-08-27T18:25:34Z</time>
  <course>334.33</course>
  <speed>9.99176160644358</speed>
  <fix>3d</fix>
</trkpt>
<trkpt lat="40.0741748" lon="-105.2313795">
  <ele>1600.78</ele>
  <time>2026-08-27T18:25:34Z</time>
  <course>335.24</course>
  <speed>10.01</speed>
  <fix>3d</fix>
</trkpt>
<trkpt lat="40.0742017" lon="-105.2313955">
  <ele>1600.97</ele>
  <time>2026-08-27T18:25:34Z</time>
  <course>334.35</course>
  <speed>9.97850189156669</speed>
  <fix>3d</fix>
</trkpt>
<trkpt lat="40.0741911" lon="-105.2313893">
  <ele>1600.84</ele>
  <time>2026-08-27T18:25:34Z</time>
  <course>335.24</course>
  <speed>10.0</speed>
  <fix>3d</fix>
</trkpt>
<trkpt lat="40.074218" lon="-105.2314053">
  <ele>1601.03</ele>
  <time>2026-08-27T18:25:35Z</time>
  <course>334.37</course>
  <speed>9.97850189156669</speed>
  <fix>3d</fix>
</trkpt>
<trkpt lat="40.0742074" lon="-105.2313992">
  <ele>1600.9</ele>
  <time>2026-08-27T18:25:35Z</time>
  <course>335.24</course>
  <speed>10.0</speed>
  <fix>3d</fix>
</trkpt>
<trkpt lat="40.0742343" lon="-105.2314152">
  <ele>1601.09</ele>
  <time>2026-08-27T18:25:35Z</time>
  <course>334.37</course>
  <speed>9.969413222451962</speed>
  <fix>3d</fix>
</trkpt>
<trkpt lat="40.0742237" lon="-105.231409">
  <ele>1600.96</ele>
  <time>2026-08-27T18:25:35Z</time>
  <course>335.24</course>
  <speed>9.99</speed>
  <fix>3d</fix>
</trkpt>
<trkpt lat="40.0742506" lon="-105.231425">
  <ele>1601.15</ele>
  <time>2026-08-27T18:25:35Z</time>
  <course>334.39</course>
  <speed>9.960326299875923</speed>
  <fix>3d</fix>
</trkpt>
<trkpt lat="40.07424" lon="-105.2314189">
  <ele>1601.02</ele>
  <time>2026-08-27T18:25:35Z</time>
  <course>335.23</course>
  <speed>9.98</speed>
  <fix>3d</fix>
</trkpt>
<trkpt lat="40.0742669" lon="-105.2314348">
  <ele>1601.21</ele>
  <time>2026-08-27T18:25:35Z</time>
  <course>334.41</course>
  <speed>9.956153875869939</speed>
  <fix>3d</fix>
</trkpt>
<trkpt lat="40.0742563" lon="-105.2314287">
  <ele>1601.07</ele>
  <time>2026-08-27T18:25:35Z</time>
  <course>335.23</course>
  <speed>9.98</speed>
  <fix>3d</fix>
</trkpt>
<trkpt lat="40.0742831" lon="-105.2314446">
  <ele>1601.27</ele>
  <time>2026-08-27T18:25:35Z</time>
  <course>334.4</course>
  <speed>9.960326299875923</speed>
  <fix>3d</fix>
</trkpt>
<trkpt lat="40.0742726" lon="-105.2314385">
  <ele>1601.13</ele>
  <time>2026-08-27T18:25:35Z</time>
  <course>335.22</course>
  <speed>9.98</speed>
  <fix>3d</fix>
</trkpt>
<trkpt lat="40.0742994" lon="-105.2314544">
  <ele>1601.32</ele>
  <time>2026-08-27T18:25:35Z</time>
  <course>334.37</course>
  <speed>9.960326299875923</speed>
  <fix>3d</fix>
</trkpt>
<trkpt lat="40.0742889" lon="-105.2314482">
  <ele>1601.18</ele>
  <time>2026-08-27T18:25:35Z</time>
  <course>335.22</course>
  <speed>9.98</speed>
  <fix>3d</fix>
</trkpt>
<trkpt lat="40.0743157" lon="-105.2314643">
  <ele>1601.37</ele>
  <time>2026-08-27T18:25:35Z</time>
  <course>334.36</course>
  <speed>9.960326299875923</speed>
  <fix>3d</fix>
</trkpt>
<trkpt lat="40.0743052" lon="-105.2314581">
  <ele>1601.24</ele>
  <time>2026-08-27T18:25:35Z</time>
  <course>335.2</course>
  <speed>9.98</speed>
  <fix>3d</fix>
</trkpt>
<trkpt lat="40.074332" lon="-105.2314741">
  <ele>1601.43</ele>
  <time>2026-08-27T18:25:35Z</time>
  <course>334.35</course>
  <speed>9.960326299875923</speed>
  <fix>3d</fix>
</trkpt>
<trkpt lat="40.0743214" lon="-105.231468">
  <ele>1601.3</ele>
  <time>2026-08-27T18:25:35Z</time>
  <course>335.19</course>
  <speed>9.98</speed>
  <fix>3d</fix>
</trkpt>
<trkpt lat="40.0743483" lon="-105.2314839">
  <ele>1601.49</ele>
  <time>2026-08-27T18:25:35Z</time>
  <course>334.33</course>
  <speed>9.96450701239153</speed>
  <fix>3d</fix>
</trkpt>
<trkpt lat="40.0743378" lon="-105.2314778">
  <ele>1601.36</ele>
  <time>2026-08-27T18:25:35Z</time>
  <course>335.18</course>
  <speed>9.98</speed>
  <fix>3d</fix>
</trkpt>
<trkpt lat="40.0743647" lon="-105.2314938">
  <ele>1601.55</ele>
  <time>2026-08-27T18:25:35Z</time>
  <course>334.34</course>
  <speed>9.96450701239153</speed>
  <fix>3d</fix>
</trkpt>
<trkpt lat="40.074354" lon="-105.2314877">
  <ele>1601.41</ele>
  <time>2026-08-27T18:25:35Z</time>
  <course>335.17</course>
  <speed>9.98</speed>
  <fix>3d</fix>
</trkpt>
<trkpt lat="40.0743809" lon="-105.2315037">
  <ele>1601.61</ele>
  <time>2026-08-27T18:25:35Z</time>
  <course>334.37</course>
  <speed>9.96450701239153</speed>
  <fix>3d</fix>
</trkpt>
<trkpt lat="40.0743703" lon="-105.2314975">
  <ele>1601.47</ele>
  <time>2026-08-27T18:25:35Z</time>
  <course>335.16</course>
  <speed>9.98</speed>
  <fix>3d</fix>
</trkpt>
<trkpt lat="40.0743971" lon="-105.2315135">
  <ele>1601.67</ele>
  <time>2026-08-27T18:25:35Z</time>
  <course>334.39</course>
  <speed>9.96450701239153</speed>
  <fix>3d</fix>
</trkpt>
<trkpt lat="40.0743866" lon="-105.2315074">
  <ele>1601.53</ele>
  <time>2026-08-27T18:25:35Z</time>
  <course>335.16</course>
  <speed>9.98</speed>
  <fix>3d</fix>
</trkpt>
<trkpt lat="40.0744133" lon="-105.2315233">
  <ele>1601.73</ele>
  <time>2026-08-27T18:25:35Z</time>
  <course>334.4</course>
  <speed>9.960326299875923</speed>
  <fix>3d</fix>
</trkpt>
<trkpt lat="40.0744029" lon="-105.2315171">
  <ele>1601.59</ele>
  <time>2026-08-27T18:25:35Z</time>
  <course>335.16</course>
  <speed>9.98</speed>
  <fix>3d</fix>
</trkpt>
<trkpt lat="40.0744296" lon="-105.2315331">
  <ele>1601.78</ele>
  <time>2026-08-27T18:25:35Z</time>
  <course>334.4</course>
  <speed>9.960326299875923</speed>
  <fix>3d</fix>
</trkpt>
<trkpt lat="40.0744191" lon="-105.231527">
  <ele>1601.64</ele>
  <time>2026-08-27T18:25:35Z</time>
  <course>335.16</course>
  <speed>9.98</speed>
  <fix>3d</fix>
</trkpt>
<trkpt lat="40.0744458" lon="-105.2315429">
  <ele>1601.83</ele>
  <time>2026-08-27T18:25:35Z</time>
  <course>334.37</course>
  <speed>9.973590125927574</speed>
  <fix>3d</fix>
</trkpt>
<trkpt lat="40.0744354" lon="-105.2315369">
  <ele>1601.7</ele>
  <time>2026-08-27T18:25:35Z</time>
  <course>335.17</course>
  <speed>9.99</speed>
  <fix>3d</fix>
</trkpt>
<trkpt lat="40.0744621" lon="-105.2315527">
  <ele>1601.89</ele>
  <time>2026-08-27T18:25:35Z</time>
  <course>334.35</course>
  <speed>9.982674992205245</speed>
  <fix>3d</fix>
</trkpt>
<trkpt lat="40.0744517" lon="-105.2315467">
  <ele>1601.75</ele>
  <time>2026-08-27T18:25:35Z</time>
  <course>335.17</course>
  <speed>10.0</speed>
  <fix>3d</fix>
</trkpt>
<trkpt lat="40.0744784" lon="-105.2315626">
  <ele>1601.95</ele>
  <time>2026-08-27T18:25:35Z</time>
  <course>334.34</course>
  <speed>9.99176160644358</speed>
  <fix>3d</fix>
</trkpt>
<trkpt lat="40.0744681" lon="-105.2315566">
  <ele>1601.81</ele>
  <time>2026-08-27T18:25:35Z</time>
  <course>335.17</course>
  <speed>10.01</speed>
  <fix>3d</fix>
</trkpt>
<trkpt lat="40.0744947" lon="-105.2315725">
  <ele>1602.0</ele>
  <time>2026-08-27T18:25:35Z</time>
  <course>334.35</course>
  <speed>9.995939175485212</speed>
  <fix>3d</fix>
</trkpt>
<trkpt lat="40.0744844" lon="-105.2315665">
  <ele>1601.87</ele>
  <time>2026-08-27T18:25:35Z</time>
  <course>335.17</course>
  <speed>10.02</speed>
  <fix>3d</fix>
</trkpt>
<trkpt lat="40.0745111" lon="-105.2315824">
  <ele>1602.06</ele>
  <time>2026-08-27T18:25:35Z</time>
  <course>334.38</course>
  <speed>10.005023738102773</speed>
  <fix>3d</fix>
</trkpt>
<trkpt lat="40.0745008" lon="-105.2315764">
  <ele>1601.92</ele>
  <time>2026-08-27T18:25:35Z</time>
  <course>335.17</course>
  <speed>10.02</speed>
  <fix>3d</fix>
</trkpt>
<trkpt lat="40.0745274" lon="-105.2315923">
  <ele>1602.13</ele>
  <time>2026-08-27T18:25:35Z</time>
  <course>334.44</course>
  <speed>10.005023738102773</speed>
  <fix>3d</fix>
</trkpt>
<trkpt lat="40.0745172" lon="-105.2315863">
  <ele>1601.99</ele>
  <time>2026-08-27T18:25:35Z</time>
  <course>335.17</course>
  <speed>10.03</speed>
  <fix>3d</fix>
</trkpt>
<trkpt lat="40.0745439" lon="-105.2316022">
  <ele>1602.19</ele>
  <time>2026-08-27T18:25:35Z</time>
  <course>334.47</course>
  <speed>10.005023738102773</speed>
  <fix>3d</fix>
</trkpt>
<trkpt lat="40.0745335" lon="-105.2315961">
  <ele>1602.05</ele>
  <time>2026-08-27T18:25:35Z</time>
  <course>335.17</course>
  <speed>10.03</speed>
  <fix>3d</fix>
</trkpt>
<trkpt lat="40.0745602" lon="-105.231612">
  <ele>1602.24</ele>
  <time>2026-08-27T18:25:35Z</time>
  <course>334.52</course>
  <speed>9.99176160644358</speed>
  <fix>3d</fix>
</trkpt>
<trkpt lat="40.0745498" lon="-105.231606">
  <ele>1602.11</ele>
  <time>2026-08-27T18:25:35Z</time>
  <course>335.19</course>
  <speed>10.02</speed>
  <fix>3d</fix>
</trkpt>
<trkpt lat="40.0745765" lon="-105.2316219">
  <ele>1602.3</ele>
  <time>2026-08-27T18:25:35Z</time>
  <course>334.56</course>
  <speed>9.99176160644358</speed>
  <fix>3d</fix>
</trkpt>
<trkpt lat="40.0745662" lon="-105.2316159">
  <ele>1602.16</ele>
  <time>2026-08-27T18:25:35Z</time>
  <course>335.2</course>
  <speed>10.02</speed>
  <fix>3d</fix>
</trkpt>
<trkpt lat="40.0745929" lon="-105.2316317">
  <ele>1602.35</ele>
  <time>2026-08-27T18:25:35Z</time>
  <course>334.59</course>
  <speed>9.99176160644358</speed>
  <fix>3d</fix>
</trkpt>
<trkpt lat="40.0745825" lon="-105.2316257">
  <ele>1602.22</ele>
  <time>2026-08-27T18:25:35Z</time>
  <course>335.21</course>
  <speed>10.02</speed>
  <fix>3d</fix>
</trkpt>
<trkpt lat="40.0746092" lon="-105.2316416">
  <ele>1602.41</ele>
  <time>2026-08-27T18:25:35Z</time>
  <course>334.62</course>
  <speed>9.987592302452079</speed>
  <fix>3d</fix>
</trkpt>
<trkpt lat="40.0745989" lon="-105.2316356">
  <ele>1602.28</ele>
  <time>2026-08-27T18:25:35Z</time>
  <course>335.23</course>
  <speed>10.01</speed>
  <fix>3d</fix>
</trkpt>
<trkpt lat="40.0746255" lon="-105.2316514">
  <ele>1602.46</ele>
  <time>2026-08-27T18:25:35Z</time>
  <course>334.63</course>
  <speed>9.987592302452079</speed>
  <fix>3d</fix>
</trkpt>
<trkpt lat="40.0746152" lon="-105.2316454">
  <ele>1602.34</ele>
  <time>2026-08-27T18:25:35Z</time>
  <course>335.24</course>
  <speed>10.01</speed>
  <fix>3d</fix>
</trkpt>
<trkpt lat="40.0746419" lon="-105.2316613">
  <ele>1602.52</ele>
  <time>2026-08-27T18:25:35Z</time>
  <course>334.63</course>
  <speed>9.987592302452079</speed>
  <fix>3d</fix>
</trkpt>
<trkpt lat="40.0746316" lon="-105.2316553">
  <ele>1602.4</ele>
  <time>2026-08-27T18:25:35Z</time>
  <course>335.25</course>
  <speed>10.01</speed>
  <fix>3d</fix>
</trkpt>
<trkpt lat="40.0746583" lon="-105.2316712">
  <ele>1602.58</ele>
  <time>2026-08-27T18:25:35Z</time>
  <course>334.66</course>
  <speed>9.987592302452079</speed>
  <fix>3d</fix>
</trkpt>
<trkpt lat="40.0746479" lon="-105.2316652">
  <ele>1602.46</ele>
  <time>2026-08-27T18:25:35Z</time>
  <course>335.26</course>
  <speed>10.01</speed>
  <fix>3d</fix>
</trkpt>
<trkpt lat="40.0746746" lon="-105.231681">
  <ele>1602.64</ele>
  <time>2026-08-27T18:25:35Z</time>
  <course>334.66</course>
  <speed>9.987592302452079</speed>
  <fix>3d</fix>
</trkpt>
<trkpt lat="40.0746642" lon="-105.231675">
  <ele>1602.52</ele>
  <time>2026-08-27T18:25:35Z</time>
  <course>335.26</course>
  <speed>10.0</speed>
  <fix>3d</fix>
</trkpt>
<trkpt lat="40.074691" lon="-105.2316909">
  <ele>1602.7</ele>
  <time>2026-08-27T18:25:35Z</time>
  <course>334.68</course>
  <speed>9.97850189156669</speed>
  <fix>3d</fix>
</trkpt>
<trkpt lat="40.0746806" lon="-105.2316849">
  <ele>1602.58</ele>
  <time>2026-08-27T18:25:35Z</time>
  <course>335.26</course>
  <speed>10.0</speed>
  <fix>3d</fix>
</trkpt>
<trkpt lat="40.0747074" lon="-105.2317007">
  <ele>1602.76</ele>
  <time>2026-08-27T18:25:35Z</time>
  <course>334.73</course>
  <speed>9.965244603119384</speed>
  <fix>3d</fix>
</trkpt>
<trkpt lat="40.0746969" lon="-105.2316946">
  <ele>1602.64</ele>
  <time>2026-08-27T18:25:35Z</time>
  <course>335.26</course>
  <speed>9.99</speed>
  <fix>3d</fix>
</trkpt>
<trkpt lat="40.0747237" lon="-105.2317106">
  <ele>1602.81</ele>
  <time>2026-08-27T18:25:35Z</time>
  <course>334.75</course>
  <speed>9.965244603119384</speed>
  <fix>3d</fix>
</trkpt>
<trkpt lat="40.0747132" lon="-105.2317045">
  <ele>1602.7</ele>
  <time>2026-08-27T18:25:35Z</time>
  <course>335.26</course>
  <speed>9.98</speed>
  <fix>3d</fix>
</trkpt>
<trkpt lat="40.0747401" lon="-105.2317204">
  <ele>1602.87</ele>
  <time>2026-08-27T18:25:35Z</time>
  <course>334.77</course>
  <speed>9.956153875869939</speed>
  <fix>3d</fix>
</trkpt>
<trkpt lat="40.0747295" lon="-105.2317142">
  <ele>1602.76</ele>
  <time>2026-08-27T18:25:35Z</time>
  <course>335.26</course>
  <speed>9.97</speed>
  <fix>3d</fix>
</trkpt>
<trkpt lat="40.0747563" lon="-105.2317302">
  <ele>1602.93</ele>
  <time>2026-08-27T18:25:35Z</time>
  <course>334.79</course>
  <speed>9.942896962153435</speed>
  <fix>3d</fix>
</trkpt>
<trkpt lat="40.0747458" lon="-105.2317241">
  <ele>1602.81</ele>
  <time>2026-08-27T18:25:35Z</time>
  <course>335.26</course>
  <speed>9.96</speed>
  <fix>3d</fix>
</trkpt>
<trkpt lat="40.0747726" lon="-105.23174">
  <ele>1602.98</ele>
  <time>2026-08-27T18:25:35Z</time>
  <course>334.75</course>
  <speed>9.942896962153435</speed>
  <fix>3d</fix>
</trkpt>
<trkpt lat="40.074762" lon="-105.2317339">
  <ele>1602.87</ele>
  <time>2026-08-27T18:25:35Z</time>
  <course>335.26</course>
  <speed>9.95</speed>
  <fix>3d</fix>
</trkpt>
<trkpt lat="40.0747889" lon="-105.2317498">
  <ele>1603.04</ele>
  <time>2026-08-27T18:25:35Z</time>
  <course>334.75</course>
  <speed>9.942896962153435</speed>
  <fix>3d</fix>
</trkpt>
<trkpt lat="40.0747783" lon="-105.2317437">
  <ele>1602.92</ele>
  <time>2026-08-27T18:25:35Z</time>
  <course>335.26</course>
  <speed>9.95</speed>
  <fix>3d</fix>
</trkpt>
<trkpt lat="40.0748052" lon="-105.2317596">
  <ele>1603.1</ele>
  <time>2026-08-27T18:25:35Z</time>
  <course>334.72</course>
  <speed>9.933805917169913</speed>
  <fix>3d</fix>
</trkpt>
<trkpt lat="40.0747944" lon="-105.2317534">
  <ele>1602.99</ele>
  <time>2026-08-27T18:25:35Z</time>
  <course>335.25</course>
  <speed>9.95</speed>
  <fix>3d</fix>
</trkpt>
<trkpt lat="40.0748215" lon="-105.2317695">
  <ele>1603.16</ele>
  <time>2026-08-27T18:25:35Z</time>
  <course>334.71</course>
  <speed>9.937977661476202</speed>
  <fix>3d</fix>
</trkpt>
<trkpt lat="40.0748107" lon="-105.2317631">
  <ele>1603.05</ele>
  <time>2026-08-27T18:25:35Z</time>
  <course>335.24</course>
  <speed>9.94</speed>
  <fix>3d</fix>
</trkpt>
<trkpt lat="40.0748377" lon="-105.2317792">
  <ele>1603.22</ele>
  <time>2026-08-27T18:25:35Z</time>
  <course>334.72</course>
  <speed>9.937977661476202</speed>
  <fix>3d</fix>
</trkpt>
<trkpt lat="40.074827" lon="-105.231773">
  <ele>1603.11</ele>
  <time>2026-08-27T18:25:35Z</time>
  <course>335.22</course>
  <speed>9.94</speed>
  <fix>3d</fix>
</trkpt>
<trkpt lat="40.0748539" lon="-105.231789">
  <ele>1603.28</ele>
  <time>2026-08-27T18:25:35Z</time>
  <course>334.71</course>
  <speed>9.937977661476202</speed>
  <fix>3d</fix>
</trkpt>
<trkpt lat="40.0748432" lon="-105.2317827">
  <ele>1603.16</ele>
  <time>2026-08-27T18:25:35Z</time>
  <course>335.21</course>
  <speed>9.94</speed>
  <fix>3d</fix>
</trkpt>
<trkpt lat="40.0748701" lon="-105.2317988">
  <ele>1603.35</ele>
  <time>2026-08-27T18:25:35Z</time>
  <course>334.7</course>
  <speed>9.937977661476202</speed>
  <fix>3d</fix>
</trkpt>
<trkpt lat="40.0748595" lon="-105.2317926">
  <ele>1603.22</ele>
  <time>2026-08-27T18:25:35Z</time>
  <course>335.2</course>
  <speed>9.94</speed>
  <fix>3d</fix>
</trkpt>
<trkpt lat="40.0748863" lon="-105.2318085">
  <ele>1603.4</ele>
  <time>2026-08-27T18:25:35Z</time>
  <course>334.66</course>
  <speed>9.937977661476202</speed>
  <fix>3d</fix>
</trkpt>
<trkpt lat="40.0748756" lon="-105.2318023">
  <ele>1603.28</ele>
  <time>2026-08-27T18:25:35Z</time>
  <course>335.19</course>
  <speed>9.95</speed>
  <fix>3d</fix>
</trkpt>
<trkpt lat="40.0749024" lon="-105.2318183">
  <ele>1603.46</ele>
  <time>2026-08-27T18:25:35Z</time>
  <course>334.64</course>
  <speed>9.951241128623103</speed>
  <fix>3d</fix>
</trkpt>
<trkpt lat="40.0748919" lon="-105.2318122">
  <ele>1603.33</ele>
  <time>2026-08-27T18:25:35Z</time>
  <course>335.17</course>
  <speed>9.96</speed>
  <fix>3d</fix>
</trkpt>
<trkpt lat="40.0749186" lon="-105.2318281">
  <ele>1603.52</ele>
  <time>2026-08-27T18:25:35Z</time>
  <course>334.6</course>
  <speed>9.960326299875923</speed>
  <fix>3d</fix>
</trkpt>
<trkpt lat="40.0749081" lon="-105.231822">
  <ele>1603.38</ele>
  <time>2026-08-27T18:25:35Z</time>
  <course>335.16</course>
  <speed>9.97</speed>
  <fix>3d</fix>
</trkpt>
<trkpt lat="40.0749349" lon="-105.2318379">
  <ele>1603.57</ele>
  <time>2026-08-27T18:25:35Z</time>
  <course>334.55</course>
  <speed>9.973590125927574</speed>
  <fix>3d</fix>
</trkpt>
<trkpt lat="40.0749244" lon="-105.2318319">
  <ele>1603.44</ele>
  <time>2026-08-27T18:25:35Z</time>
  <course>335.14</course>
  <speed>9.98</speed>
  <fix>3d</fix>
</trkpt>
<trkpt lat="40.0749511" lon="-105.2318478">
  <ele>1603.62</ele>
  <time>2026-08-27T18:25:35Z</time>
  <course>334.52</course>
  <speed>9.98685636223932</speed>
  <fix>3d</fix>
</trkpt>
<trkpt lat="40.0749407" lon="-105.2318417">
  <ele>1603.49</ele>
  <time>2026-08-27T18:25:35Z</time>
  <course>335.13</course>
  <speed>10.0</speed>
  <fix>3d</fix>
</trkpt>
<trkpt lat="40.0749674" lon="-105.2318576">
  <ele>1603.68</ele>
  <time>2026-08-27T18:25:35Z</time>
  <course>334.49</course>
  <speed>10.000124999218759</speed>
  <fix>3d</fix>
</trkpt>
<trkpt lat="40.074957" lon="-105.2318516">
  <ele>1603.54</ele>
  <time>2026-08-27T18:25:35Z</time>
  <course>335.11</course>
  <speed>10.01</speed>
  <fix>3d</fix>
</trkpt>
<trkpt lat="40.0749838" lon="-105.2318676">
  <ele>1603.74</ele>
  <time>2026-08-27T18:25:35Z</time>
  <course>334.47</course>
  <speed>10.00920576269666</speed>
  <fix>3d</fix>
</trkpt>
<trkpt lat="40.0749733" lon="-105.2318615">
  <ele>1603.6</ele>
  <time>2026-08-27T18:25:35Z</time>
  <course>335.1</course>
  <speed>10.03</speed>
  <fix>3d</fix>
</trkpt>
<trkpt lat="40.0750002" lon="-105.2318775">
  <ele>1603.8</ele>
  <time>2026-08-27T18:25:35Z</time>
  <course>334.51</course>
  <speed>10.022474744293447</speed>
  <fix>3d</fix>
</trkpt>
<trkpt lat="40.0749897" lon="-105.2318714">
  <ele>1603.65</ele>
  <time>2026-08-27T18:25:35Z</time>
  <course>335.1</course>
  <speed>10.04</speed>
  <fix>3d</fix>
</trkpt>
<trkpt lat="40.0750166" lon="-105.2318875">
  <ele>1603.86</ele>
  <time>2026-08-27T18:25:35Z</time>
  <course>334.56</course>
  <speed>10.031555213425285</speed>
  <fix>3d</fix>
</trkpt>
<trkpt lat="40.0750061" lon="-105.2318813">
  <ele>1603.71</ele>
  <time>2026-08-27T18:25:35Z</time>
  <course>335.11</course>
  <speed>10.05</speed>
  <fix>3d</fix>
</trkpt>
<trkpt lat="40.075033" lon="-105.2318974">
  <ele>1603.92</ele>
  <time>2026-08-27T18:25:35Z</time>
  <course>334.64</course>
  <speed>10.031555213425285</speed>
  <fix>3d</fix>
</trkpt>
<trkpt lat="40.0750225" lon="-105.2318913">
  <ele>1603.77</ele>
  <time>2026-08-27T18:25:35Z</time>
  <course>335.12</course>
  <speed>10.05</speed>
  <fix>3d</fix>
</trkpt>
<trkpt lat="40.0750495" lon="-105.2319074">
  <ele>1603.98</ele>
  <time>2026-08-27T18:25:35Z</time>
  <course>334.72</course>
  <speed>10.018288276946317</speed>
  <fix>3d</fix>
</trkpt>
<trkpt lat="40.0750388" lon="-105.2319012">
  <ele>1603.83</ele>
  <time>2026-08-27T18:25:35Z</time>
  <course>335.14</course>
  <speed>10.05</speed>
  <fix>3d</fix>
</trkpt>
<trkpt lat="40.0750658" lon="-105.2319173">
  <ele>1604.04</ele>
  <time>2026-08-27T18:25:35Z</time>
  <course>334.78</course>
  <speed>10.014110045331037</speed>
  <fix>3d</fix>
</trkpt>
<trkpt lat="40.0750553" lon="-105.2319111">
  <ele>1603.89</ele>
  <time>2026-08-27T18:25:35Z</time>
  <course>335.16</course>
  <speed>10.04</speed>
  <fix>3d</fix>
</trkpt>
<trkpt lat="40.0750822" lon="-105.2319272">
  <ele>1604.1</ele>
  <time>2026-08-27T18:25:35Z</time>
  <course>334.86</course>
  <speed>10.00084996387807</speed>
  <fix>3d</fix>
</trkpt>
<trkpt lat="40.0750716" lon="-105.231921">
  <ele>1603.95</ele>
  <time>2026-08-27T18:25:35Z</time>
  <course>335.19</course>
  <speed>10.03</speed>
  <fix>3d</fix>
</trkpt>
<trkpt lat="40.0750986" lon="-105.231937">
  <ele>1604.15</ele>
  <time>2026-08-27T18:25:35Z</time>
  <course>334.9</course>
  <speed>9.996684450356527</speed>
  <fix>3d</fix>
</trkpt>
<trkpt lat="40.075088" lon="-105.2319309">
  <ele>1604.0</ele>
  <time>2026-08-27T18:25:35Z</time>
  <course>335.23</course>
  <speed>10.02</speed>
  <fix>3d</fix>
</trkpt>
<trkpt lat="40.0751149" lon="-105.2319469">
  <ele>1604.21</ele>
  <time>2026-08-27T18:25:35Z</time>
  <course>334.92</course>
  <speed>9.996684450356527</speed>
  <fix>3d</fix>
</trkpt>
<trkpt lat="40.0751043" lon="-105.2319407">
  <ele>1604.06</ele>
  <time>2026-08-27T18:25:35Z</time>
  <course>335.27</course>
  <speed>10.01</speed>
  <fix>3d</fix>
</trkpt>
<trkpt lat="40.0751313" lon="-105.2319567">
  <ele>1604.26</ele>
  <time>2026-08-27T18:25:35Z</time>
  <course>334.96</course>
  <speed>9.983431273865714</speed>
  <fix>3d</fix>
</trkpt>
<trkpt lat="40.0751207" lon="-105.2319506">
  <ele>1604.11</ele>
  <time>2026-08-27T18:25:35Z</time>
  <course>335.29</course>
  <speed>10.01</speed>
  <fix>3d</fix>
</trkpt>
<trkpt lat="40.0751476" lon="-105.2319665">
  <ele>1604.32</ele>
  <time>2026-08-27T18:25:35Z</time>
  <course>334.95</course>
  <speed>9.983431273865714</speed>
  <fix>3d</fix>
</trkpt>
<trkpt lat="40.075137" lon="-105.2319603">
  <ele>1604.16</ele>
  <time>2026-08-27T18:25:35Z</time>
  <course>335.32</course>
  <speed>10.0</speed>
  <fix>3d</fix>
</trkpt>
<trkpt lat="40.075164" lon="-105.2319764">
  <ele>1604.37</ele>
  <time>2026-08-27T18:25:35Z</time>
  <course>334.95</course>
  <speed>9.974337070702996</speed>
  <fix>3d</fix>
</trkpt>
<trkpt lat="40.0751533" lon="-105.2319702">
  <ele>1604.22</ele>
  <time>2026-08-27T18:25:35Z</time>
  <course>335.33</course>
  <speed>10.0</speed>
  <fix>3d</fix>
</trkpt>
<trkpt lat="40.0751803" lon="-105.2319861">
  <ele>1604.43</ele>
  <time>2026-08-27T18:25:35Z</time>
  <course>334.97</course>
  <speed>9.970180539990237</speed>
  <fix>3d</fix>
</trkpt>
<trkpt lat="40.0751697" lon="-105.23198">
  <ele>1604.28</ele>
  <time>2026-08-27T18:25:35Z</time>
  <course>335.33</course>
  <speed>9.99</speed>
  <fix>3d</fix>
</trkpt>
<trkpt lat="40.0751966" lon="-105.2319959">
  <ele>1604.49</ele>
  <time>2026-08-27T18:25:35Z</time>
  <course>334.98</course>
  <speed>9.961084278330347</speed>
  <fix>3d</fix>
</trkpt>
<trkpt lat="40.075186" lon="-105.2319899">
  <ele>1604.33</ele>
  <time>2026-08-27T18:25:35Z</time>
  <course>335.32</course>
  <speed>9.98</speed>
  <fix>3d</fix>
</trkpt>
<trkpt lat="40.075213" lon="-105.2320058">
  <ele>1604.55</ele>
  <time>2026-08-27T18:25:35Z</time>
  <course>334.99</course>
  <speed>9.961084278330347</speed>
  <fix>3d</fix>
</trkpt>
<trkpt lat="40.0752023" lon="-105.2319996">
  <ele>1604.39</ele>
  <time>2026-08-27T18:25:35Z</time>
  <course>335.31</course>
  <speed>9.98</speed>
  <fix>3d</fix>
</trkpt>
<trkpt lat="40.0752293" lon="-105.2320156">
  <ele>1604.62</ele>
  <time>2026-08-27T18:25:35Z</time>
  <course>334.98</course>
  <speed>9.951989750798582</speed>
  <fix>3d</fix>
</trkpt>
<trkpt lat="40.0752186" lon="-105.2320094">
  <ele>1604.45</ele>
  <time>2026-08-27T18:25:35Z</time>
  <course>335.31</course>
  <speed>9.97</speed>
  <fix>3d</fix>
</trkpt>
<trkpt lat="40.0752456" lon="-105.2320254">
  <ele>1604.68</ele>
  <time>2026-08-27T18:25:35Z</time>
  <course>335.0</course>
  <speed>9.942896962153435</speed>
  <fix>3d</fix>
</trkpt>
<trkpt lat="40.0752349" lon="-105.2320192">
  <ele>1604.5</ele>
  <time>2026-08-27T18:25:35Z</time>
  <course>335.3</course>
  <speed>9.96</speed>
  <fix>3d</fix>
</trkpt>
<trkpt lat="40.0752619" lon="-105.2320352">
  <ele>1604.74</ele>
  <time>2026-08-27T18:25:35Z</time>
  <course>334.97</course>
  <speed>9.942896962153435</speed>
  <fix>3d</fix>
</trkpt>
<trkpt lat="40.0752511" lon="-105.2320289">
  <ele>1604.55</ele>
  <time>2026-08-27T18:25:35Z</time>
  <course>335.29</course>
  <speed>9.96</speed>
  <fix>3d</fix>
</trkpt>
<trkpt lat="40.0752781" lon="-105.232045">
  <ele>1604.79</ele>
  <time>2026-08-27T18:25:35Z</time>
  <course>334.96</course>
  <speed>9.942896962153435</speed>
  <fix>3d</fix>
</trkpt>
<trkpt lat="40.0752674" lon="-105.2320387">
  <ele>1604.61</ele>
  <time>2026-08-27T18:25:35Z</time>
  <course>335.28</course>
  <speed>9.95</speed>
  <fix>3d</fix>
</trkpt>
<trkpt lat="40.0752944" lon="-105.2320547">
  <ele>1604.84</ele>
  <time>2026-08-27T18:25:35Z</time>
  <course>334.94</course>
  <speed>9.942896962153435</speed>
  <fix>3d</fix>
</trkpt>
<trkpt lat="40.0752837" lon="-105.2320484">
  <ele>1604.66</ele>
  <time>2026-08-27T18:25:35Z</time>
  <course>335.26</course>
  <speed>9.95</speed>
  <fix>3d</fix>
</trkpt>
<trkpt lat="40.0753107" lon="-105.2320645">
  <ele>1604.9</ele>
  <time>2026-08-27T18:25:35Z</time>
  <course>334.92</course>
  <speed>9.94706489372619</speed>
  <fix>3d</fix>
</trkpt>
<trkpt lat="40.0752999" lon="-105.2320583">
  <ele>1604.71</ele>
  <time>2026-08-27T18:25:35Z</time>
  <course>335.25</course>
  <speed>9.95</speed>
  <fix>3d</fix>
</trkpt>
<trkpt lat="40.075327" lon="-105.2320744">
  <ele>1604.95</ele>
  <time>2026-08-27T18:25:35Z</time>
  <course>334.88</course>
  <speed>9.94706489372619</speed>
  <fix>3d</fix>
</trkpt>
<trkpt lat="40.0753161" lon="-105.232068">
  <ele>1604.76</ele>
  <time>2026-08-27T18:25:35Z</time>
  <course>335.23</course>
  <speed>9.95</speed>
  <fix>3d</fix>
</trkpt>
<trkpt lat="40.0753433" lon="-105.2320842">
  <ele>1605.0</ele>
  <time>2026-08-27T18:25:35Z</time>
  <course>334.83</course>
  <speed>9.94706489372619</speed>
  <fix>3d</fix>
</trkpt>
<trkpt lat="40.0753323" lon="-105.2320779">
  <ele>1604.81</ele>
  <time>2026-08-27T18:25:35Z</time>
  <course>335.21</course>
  <speed>9.96</speed>
  <fix>3d</fix>
</trkpt>
<trkpt lat="40.0753595" lon="-105.232094">
  <ele>1605.04</ele>
  <time>2026-08-27T18:25:35Z</time>
  <course>334.8</course>
  <speed>9.951241128623103</speed>
  <fix>3d</fix>
</trkpt>
<trkpt lat="40.0753486" lon="-105.2320876">
  <ele>1604.87</ele>
  <time>2026-08-27T18:25:35Z</time>
  <course>335.19</course>
  <speed>9.96</speed>
  <fix>3d</fix>
</trkpt>
<trkpt lat="40.0753757" lon="-105.2321038">
  <ele>1605.09</ele>
  <time>2026-08-27T18:25:35Z</time>
  <course>334.75</course>
  <speed>9.951241128623103</speed>
  <fix>3d</fix>
</trkpt>
<trkpt lat="40.0753649" lon="-105.2320975">
  <ele>1604.92</ele>
  <time>2026-08-27T18:25:35Z</time>
  <course>335.16</course>
  <speed>9.96</speed>
  <fix>3d</fix>
</trkpt>
<trkpt lat="40.0753919" lon="-105.2321136">
  <ele>1605.14</ele>
  <time>2026-08-27T18:25:35Z</time>
  <course>334.71</course>
  <speed>9.951241128623103</speed>
  <fix>3d</fix>
</trkpt>
<trkpt lat="40.0753811" lon="-105.2321073">
  <ele>1604.98</ele>
  <time>2026-08-27T18:25:35Z</time>
  <course>335.14</course>
  <speed>9.96</speed>
  <fix>3d</fix>
</trkpt>
<trkpt lat="40.0754081" lon="-105.2321234">
  <ele>1605.2</ele>
  <time>2026-08-27T18:25:35Z</time>
  <course>334.67</course>
  <speed>9.955425656394606</speed>
  <fix>3d</fix>
</trkpt>
<trkpt lat="40.0753974" lon="-105.2321172">
  <ele>1605.04</ele>
  <time>2026-08-27T18:25:35Z</time>
  <course>335.13</course>
  <speed>9.97</speed>
  <fix>3d</fix>
</trkpt>
<trkpt lat="40.0754244" lon="-105.2321333">
  <ele>1605.27</ele>
  <time>2026-08-27T18:25:35Z</time>
  <course>334.61</course>
  <speed>9.96450701239153</speed>
  <fix>3d</fix>
</trkpt>
<trkpt lat="40.0754137" lon="-105.232127">
  <ele>1605.1</ele>
  <time>2026-08-27T18:25:35Z</time>
  <course>335.11</course>
  <speed>9.98</speed>
  <fix>3d</fix>
</trkpt>
<trkpt lat="40.0754406" lon="-105.2321431">
  <ele>1605.33</ele>
  <time>2026-08-27T18:25:35Z</time>
  <course>334.6</course>
  <speed>9.96450701239153</speed>
  <fix>3d</fix>
</trkpt>
<trkpt lat="40.0754299" lon="-105.2321369">
  <ele>1605.15</ele>
  <time>2026-08-27T18:25:35Z</time>
  <course>335.1</course>
  <speed>9.98</speed>
  <fix>3d</fix>
</trkpt>
<trkpt lat="40.0754568" lon="-105.232153">
  <ele>1605.39</ele>
  <time>2026-08-27T18:25:35Z</time>
  <course>334.68</course>
  <speed>9.937268236291098</speed>
  <fix>3d</fix>
</trkpt>
<trkpt lat="40.0754462" lon="-105.2321468">
  <ele>1605.22</ele>
  <time>2026-08-27T18:25:35Z</time>
  <course>335.09</course>
  <speed>9.98</speed>
  <fix>3d</fix>
</trkpt>
<trkpt lat="40.075473" lon="-105.2321628">
  <ele>1605.46</ele>
  <time>2026-08-27T18:25:35Z</time>
  <course>334.94</course>
  <speed>9.870217829409846</speed>
  <fix>3d</fix>
</trkpt>
<trkpt lat="40.0754625" lon="-105.2321566">
  <ele>1605.29</ele>
  <time>2026-08-27T18:25:35Z</time>
  <course>335.09</course>
  <speed>9.94</speed>
  <fix>3d</fix>
</trkpt>
<trkpt lat="40.0754891" lon="-105.2321725">
  <ele>1605.55</ele>
  <time>2026-08-27T18:25:35Z</time>
  <course>335.39</course>
  <speed>9.73611832302792</speed>
  <fix>3d</fix>
</trkpt>
<trkpt lat="40.0754786" lon="-105.2321664">
  <ele>1605.37</ele>
  <time>2026-08-27T18:25:35Z</time>
  <course>335.09</course>
  <speed>9.86</speed>
  <fix>3d</fix>
</trkpt>
<trkpt lat="40.0755048" lon="-105.2321821">
  <ele>1605.64</ele>
  <time>2026-08-27T18:25:35Z</time>
  <course>335.98</course>
  <speed>9.544055741664547</speed>
  <fix>3d</fix>
</trkpt>
<trkpt lat="40.0754946" lon="-105.232176">
  <ele>1605.45</ele>
  <time>2026-08-27T18:25:35Z</time>
  <course>335.14</course>
  <speed>9.72</speed>
  <fix>3d</fix>
</trkpt>
<trkpt lat="40.0755202" lon="-105.2321914">
  <ele>1605.73</ele>
  <time>2026-08-27T18:25:35Z</time>
  <course>336.63</course>
  <speed>9.303144629640023</speed>
  <fix>3d</fix>
</trkpt>
<trkpt lat="40.0755103" lon="-105.2321855">
  <ele>1605.54</ele>
  <time>2026-08-27T18:25:35Z</time>
  <course>335.24</course>
  <speed>9.51</speed>
  <fix>3d</fix>
</trkpt>
<trkpt lat="40.0755353" lon="-105.2322004">
  <ele>1605.82</ele>
  <time>2026-08-27T18:25:35Z</time>
  <course>337.29</course>
  <speed>9.008490439579765</speed>
  <fix>3d</fix>
</trkpt>
<trkpt lat="40.0755256" lon="-105.2321948">
  <ele>1605.63</ele>
  <time>2026-08-27T18:25:35Z</time>
  <course>335.4</course>
  <speed>9.26</speed>
  <fix>3d</fix>
</trkpt>
<trkpt lat="40.0755499" lon="-105.232209">
  <ele>1605.89</ele>
  <time>2026-08-27T18:25:35Z</time>
  <course>337.91</course>
  <speed>8.665079341817938</speed>
  <fix>3d</fix>
</trkpt>
<trkpt lat="40.0755405" lon="-105.2322037">
  <ele>1605.71</ele>
  <time>2026-08-27T18:25:35Z</time>
  <course>335.61</course>
  <speed>8.96</speed>
  <fix>3d</fix>
</trkpt>
<trkpt lat="40.0755638" lon="-105.2322173">
  <ele>1605.96</ele>
  <time>2026-08-27T18:25:35Z</time>
  <course>338.47</course>
  <speed>8.281183490298956</speed>
  <fix>3d</fix>
</trkpt>
<trkpt lat="40.0755549" lon="-105.2322121">
  <ele>1605.78</ele>
  <time>2026-08-27T18:25:35Z</time>
  <course>335.85</course>
  <speed>8.6</speed>
  <fix>3d</fix>
</trkpt>
<trkpt lat="40.0755772" lon="-105.232225">
  <ele>1606.02</ele>
  <time>2026-08-27T18:25:35Z</time>
  <course>338.97</course>
  <speed>7.852693805312925</speed>
  <fix>3d</fix>
</trkpt>
<trkpt lat="40.0755687" lon="-105.2322202">
  <ele>1605.85</ele>
  <time>2026-08-27T18:25:35Z</time>
  <course>336.11</course>
  <speed>8.21</speed>
  <fix>3d</fix>
</trkpt>
<trkpt lat="40.0755898" lon="-105.2322323">
  <ele>1606.06</ele>
  <time>2026-08-27T18:25:35Z</time>
  <course>339.39</course>
  <speed>7.383664401907769</speed>
  <fix>3d</fix>
</trkpt>
<trkpt lat="40.0755819" lon="-105.2322278">
  <ele>1605.9</ele>
  <time>2026-08-27T18:25:35Z</time>
  <course>336.37</course>
  <speed>7.77</speed>
  <fix>3d</fix>
</trkpt>
<trkpt lat="40.0756016" lon="-105.232239">
  <ele>1606.09</ele>
  <time>2026-08-27T18:25:35Z</time>
  <course>339.73</course>
  <speed>6.874045388270287</speed>
  <fix>3d</fix>
</trkpt>
<trkpt lat="40.0755943" lon="-105.2322348">
  <ele>1605.93</ele>
  <time>2026-08-27T18:25:35Z</time>
  <course>336.63</course>
  <speed>7.28</speed>
  <fix>3d</fix>
</trkpt>
<trkpt lat="40.0756126" lon="-105.2322452">
  <ele>1606.11</ele>
  <time>2026-08-27T18:25:35Z</time>
  <course>339.98</course>
  <speed>6.310641805711999</speed>
  <fix>3d</fix>
</trkpt>
<trkpt lat="40.0756059" lon="-105.2322413">
  <ele>1605.96</ele>
  <time>2026-08-27T18:25:35Z</time>
  <course>336.87</course>
  <speed>6.75</speed>
  <fix>3d</fix>
</trkpt>
<trkpt lat="40.0756227" lon="-105.2322508">
  <ele>1606.12</ele>
  <time>2026-08-27T18:25:35Z</time>
  <course>340.1</course>
  <speed>5.738100731078186</speed>
  <fix>3d</fix>
</trkpt>
<trkpt lat="40.0756166" lon="-105.2322473">
  <ele>1605.99</ele>
  <time>2026-08-27T18:25:35Z</time>
  <course>337.1</course>
  <speed>6.19</speed>
  <fix>3d</fix>
</trkpt>
<trkpt lat="40.0756319" lon="-105.2322559">
  <ele>1606.13</ele>
  <time>2026-08-27T18:25:35Z</time>
  <course>340.09</course>
  <speed>5.1564037855854545</speed>
  <fix>3d</fix>
</trkpt>
<trkpt lat="40.0756263" lon="-105.2322526">
  <ele>1606.0</ele>
  <time>2026-08-27T18:25:35Z</time>
  <course>337.3</course>
  <speed>5.61</speed>
  <fix>3d</fix>
</trkpt>
<trkpt lat="40.07564" lon="-105.2322603">
  <ele>1606.12</ele>
  <time>2026-08-27T18:25:35Z</time>
  <course>339.95</course>
  <speed>4.591786144846034</speed>
  <fix>3d</fix>
</trkpt>
<trkpt lat="40.0756352" lon="-105.2322574">
  <ele>1606.0</ele>
  <time>2026-08-27T18:25:35Z</time>
  <course>337.47</course>
  <speed>5.02</speed>
  <fix>3d</fix>
</trkpt>
<trkpt lat="40.0756473" lon="-105.2322642">
  <ele>1606.11</ele>
  <time>2026-08-27T18:25:35Z</time>
  <course>339.7</course>
  <speed>4.0363597461078715</speed>
  <fix>3d</fix>
</trkpt>
<trkpt lat="40.0756431" lon="-105.2322617">
  <ele>1605.99</ele>
  <time>2026-08-27T18:25:35Z</time>
  <course>337.59</course>
  <speed>4.45</speed>
  <fix>3d</fix>
</trkpt>
<trkpt lat="40.0756536" lon="-105.2322677">
  <ele>1606.1</ele>
  <time>2026-08-27T18:25:35Z</time>
  <course>339.32</course>
  <speed>3.4980280158969568</speed>
  <fix>3d</fix>
</trkpt>
<trkpt lat="40.07565" lon="-105.2322654">
  <ele>1605.98</ele>
  <time>2026-08-27T18:25:35Z</time>
  <course>337.6</course>
  <speed>3.89</speed>
  <fix>3d</fix>
</trkpt>
<trkpt lat="40.0756591" lon="-105.2322707">
  <ele>1606.09</ele>
  <time>2026-08-27T18:25:35Z</time>
  <course>338.74</course>
  <speed>2.9729446681699274</speed>
  <fix>3d</fix>
</trkpt>
<trkpt lat="40.075656" lon="-105.2322686">
  <ele>1605.97</ele>
  <time>2026-08-27T18:25:35Z</time>
  <course>337.43</course>
  <speed>3.35</speed>
  <fix>3d</fix>
</trkpt>
<trkpt lat="40.0756636" lon="-105.2322732">
  <ele>1606.08</ele>
  <time>2026-08-27T18:25:35Z</time>
  <course>337.91</course>
  <speed>2.465461417260469</speed>
  <fix>3d</fix>
</trkpt>
<trkpt lat="40.0756611" lon="-105.2322715">
  <ele>1605.97</ele>
  <time>2026-08-27T18:25:35Z</time>
  <course>337.0</course>
  <speed>2.82</speed>
  <fix>3d</fix>
</trkpt>
<trkpt lat="40.0756674" lon="-105.2322753">
  <ele>1606.08</ele>
  <time>2026-08-27T18:25:35Z</time>
  <course>336.72</course>
  <speed>1.9768662069042509</speed>
  <fix>3d</fix>
</trkpt>
<trkpt lat="40.0756654" lon="-105.2322739">
  <ele>1605.96</ele>
  <time>2026-08-27T18:25:36Z</time>
  <course>336.21</course>
  <speed>2.31</speed>
  <fix>3d</fix>
</trkpt>
<trkpt lat="40.0756702" lon="-105.2322771">
  <ele>1606.07</ele>
  <time>2026-08-27T18:25:36Z</time>
  <course>334.97</course>
  <speed>1.525319638633162</speed>
  <fix>3d</fix>
</trkpt>
<trkpt lat="40.0756688" lon="-105.2322758">
  <ele>1605.96</ele>
  <time>2026-08-27T18:25:36Z</time>
  <course>334.95</course>
  <speed>1.83</speed>
  <fix>3d</fix>
</trkpt>
<trkpt lat="40.0756724" lon="-105.2322785">
  <ele>1606.07</ele>
  <time>2026-08-27T18:25:36Z</time>
  <course>332.56</course>
  <speed>1.1337107214805724</speed>
  <fix>3d</fix>
</trkpt>
<trkpt lat="40.0756714" lon="-105.2322775">
  <ele>1605.96</ele>
  <time>2026-08-27T18:25:36Z</time>
  <course>333.02</course>
  <speed>1.38</speed>
  <fix>3d</fix>
</trkpt>
<trkpt lat="40.075674" lon="-105.2322797">
  <ele>1606.07</ele>
  <time>2026-08-27T18:25:36Z</time>
  <course>329.35</course>
  <speed>0.8127115109311545</speed>
  <fix>3d</fix>
</trkpt>
<trkpt lat="40.0756733" lon="-105.2322788">
  <ele>1605.96</ele>
  <time>2026-08-27T18:25:36Z</time>
  <course>330.04</course>
  <speed>1.0</speed>
  <fix>3d</fix>
</trkpt>
<trkpt lat="40.0756749" lon="-105.2322806">
  <ele>1606.08</ele>
  <time>2026-08-27T18:25:36Z</time>
  <course>329.42</course>
  <speed>0.5517245689653489</speed>
  <fix>3d</fix>
</trkpt>
<trkpt lat="40.0756745" lon="-105.2322799">
  <ele>1605.96</ele>
  <time>2026-08-27T18:25:36Z</time>
  <course>324.05</course>
  <speed>0.69</speed>
  <fix>3d</fix>
</trkpt>
<trkpt lat="40.0756755" lon="-105.2322813">
  <ele>1606.09</ele>
  <time>2026-08-27T18:25:36Z</time>
  <course>329.41</course>
  <speed>0.3522782990761707</speed>
  <fix>3d</fix>
</trkpt>
<trkpt lat="40.0756753" lon="-105.2322807">
  <ele>1605.97</ele>
  <time>2026-08-27T18:25:36Z</time>
  <course>312.9</course>
  <speed>0.44</speed>
  <fix>3d</fix>
</trkpt>
<trkpt lat="40.0756757" lon="-105.2322819">
  <ele>1606.11</ele>
  <time>2026-08-27T18:25:36Z</time>
  <course>329.39</course>
  <speed>0.2353720459187964</speed>
  <fix>3d</fix>
</trkpt>
<trkpt lat="40.0756757" lon="-105.2322815">
  <ele>1605.98</ele>
  <time>2026-08-27T18:25:36Z</time>
  <course>293.28</course>
  <speed>0.28</speed>
  <fix>3d</fix>
</trkpt>
<trkpt lat="40.0756757" lon="-105.2322823">
  <ele>1606.12</ele>
  <time>2026-08-27T18:25:36Z</time>
  <course>329.39</course>
  <speed>0.194164878389476</speed>
  <fix>3d</fix>
</trkpt>
<trkpt lat="40.0756757" lon="-105.232282">
  <ele>1605.99</ele>
  <time>2026-08-27T18:25:36Z</time>
  <course>261.52</course>
  <speed>0.21</speed>
  <fix>3d</fix>
</trkpt>
<trkpt lat="40.0756755" lon="-105.2322827">
  <ele>1606.13</ele>
  <time>2026-08-27T18:25:36Z</time>
  <course>329.34</course>
  <speed>0.18867962264113206</speed>
  <fix>3d</fix>
</trkpt>
<trkpt lat="40.0756756" lon="-105.2322825">
  <ele>1606.0</ele>
  <time>2026-08-27T18:25:36Z</time>
  <course>234.58</course>
  <speed>0.21</speed>
  <fix>3d</fix>
</trkpt>
<trkpt lat="40.0756753" lon="-105.2322831">
  <ele>1606.14</ele>
  <time>2026-08-27T18:25:36Z</time>
  <course>329.32</course>
  <speed>0.19209372712298545</speed>
  <fix>3d</fix>
</trkpt>
<trkpt lat="40.0756754" lon="-105.2322829">
  <ele>1606.01</ele>
  <time>2026-08-27T18:25:36Z</time>
  <course>221.91</course>
  <speed>0.23</speed>
  <fix>3d</fix>
</trkpt>
<trkpt lat="40.075675" lon="-105.2322834">
  <ele>1606.15</ele>
  <time>2026-08-27T18:25:36Z</time>
  <course>329.32</course>
  <speed>0.17804493814764857</speed>
  <fix>3d</fix>
</trkpt>
<trkpt lat="40.0756751" lon="-105.2322832">
  <ele>1606.02</ele>
  <time>2026-08-27T18:25:36Z</time>
  <course>218.9</course>
  <speed>0.24</speed>
  <fix>3d</fix>
</trkpt>
<trkpt lat="40.0756748" lon="-105.2322838">
  <ele>1606.16</ele>
  <time>2026-08-27T18:25:36Z</time>
  <course>329.28</course>
  <speed>0.16124515496597097</speed>
  <fix>3d</fix>
</trkpt>
<trkpt lat="40.0756747" lon="-105.2322835">
  <ele>1606.03</ele>
  <time>2026-08-27T18:25:36Z</time>
  <course>222.82</course>
  <speed>0.23</speed>
  <fix>3d</fix>
</trkpt>
<trkpt lat="40.0756746" lon="-105.2322841">
  <ele>1606.17</ele>
  <time>2026-08-27T18:25:36Z</time>
  <course>329.23</course>
  <speed>0.16124515496597097</speed>
  <fix>3d</fix>
</trkpt>
<trkpt lat="40.0756745" lon="-105.2322839">
  <ele>1606.03</ele>
  <time>2026-08-27T18:25:36Z</time>
  <course>233.74</course>
  <speed>0.21</speed>
  <fix>3d</fix>
</trkpt>
<trkpt lat="40.0756745" lon="-105.2322846">
  <ele>1606.17</ele>
  <time>2026-08-27T18:25:36Z</time>
  <course>329.17</course>
  <speed>0.1772004514666935</speed>
  <fix>3d</fix>
</trkpt>
<trkpt lat="40.0756743" lon="-105.2322844">
  <ele>1606.04</ele>
  <time>2026-08-27T18:25:36Z</time>
  <course>251.93</course>
  <speed>0.2</speed>
  <fix>3d</fix>
</trkpt>
<trkpt lat="40.0756746" lon="-105.232285">
  <ele>1606.17</ele>
  <time>2026-08-27T18:25:36Z</time>
  <course>329.11</course>
  <speed>0.22472205054244232</speed>
  <fix>3d</fix>
</trkpt>
<trkpt lat="40.0756742" lon="-105.2322849">
  <ele>1606.04</ele>
  <time>2026-08-27T18:25:36Z</time>
  <course>273.29</course>
  <speed>0.22</speed>
  <fix>3d</fix>
</trkpt>
<trkpt lat="40.0756748" lon="-105.2322856">
  <ele>1606.17</ele>
  <time>2026-08-27T18:25:36Z</time>
  <course>329.07</course>
  <speed>0.29</speed>
  <fix>3d</fix>
</trkpt>
<trkpt lat="40.0756743" lon="-105.2322854">
  <ele>1606.04</ele>
  <time>2026-08-27T18:25:36Z</time>
  <course>290.67</course>
  <speed>0.26</speed>
  <fix>3d</fix>
</trkpt>
<trkpt lat="40.075675" lon="-105.2322862">
  <ele>1606.17</ele>
  <time>2026-08-27T18:25:36Z</time>
  <course>329.06</course>
  <speed>0.3330165161069343</speed>
  <fix>3d</fix>
</trkpt>
<trkpt lat="40.0756745" lon="-105.2322861">
  <ele>1606.04</ele>
  <time>2026-08-27T18:25:36Z</time>
  <course>301.91</course>
  <speed>0.31</speed>
  <fix>3d</fix>
</trkpt>
<trkpt lat="40.0756754" lon="-105.2322868">
  <ele>1606.17</ele>
  <time>2026-08-27T18:25:36Z</time>
  <course>329.07</course>
  <speed>0.35805027579936316</speed>
  <fix>3d</fix>
</trkpt>
<trkpt lat="40.0756748" lon="-105.2322867">
  <ele>1606.04</ele>
  <time>2026-08-27T18:25:36Z</time>
  <course>308.81</course>
  <speed>0.35</speed>
  <fix>3d</fix>
</trkpt>
<trkpt lat="40.0756759" lon="-105.2322874">
  <ele>1606.17</ele>
  <time>2026-08-27T18:25:36Z</time>
  <course>329.07</course>
  <speed>0.3605551275463989</speed>
  <fix>3d</fix>
</trkpt>
<trkpt lat="40.0756752" lon="-105.2322873">
  <ele>1606.04</ele>
  <time>2026-08-27T18:25:36Z</time>
  <course>313.45</course>
  <speed>0.37</speed>
  <fix>3d</fix>
</trkpt>
<trkpt lat="40.0756763" lon="-105.2322879">
  <ele>1606.17</ele>
  <time>2026-08-27T18:25:36Z</time>
  <course>329.08</course>
  <speed>0.34481879299133333</speed>
  <fix>3d</fix>
</trkpt>
<trkpt lat="40.0756757" lon="-105.232288">
  <ele>1606.05</ele>
  <time>2026-08-27T18:25:36Z</time>
  <course>317.22</course>
  <speed>0.37</speed>
  <fix>3d</fix>
</trkpt>
<trkpt lat="40.0756768" lon="-105.2322884">
  <ele>1606.16</ele>
  <time>2026-08-27T18:25:36Z</time>
  <course>329.08</course>
  <speed>0.3178049716414141</speed>
  <fix>3d</fix>
</trkpt>
<trkpt lat="40.0756762" lon="-105.2322886">
  <ele>1606.05</ele>
  <time>2026-08-27T18:25:36Z</time>
  <course>320.91</course>
  <speed>0.36</speed>
  <fix>3d</fix>
</trkpt>
<trkpt lat="40.0756772" lon="-105.2322888">
  <ele>1606.16</ele>
  <time>2026-08-27T18:25:36Z</time>
  <course>329.1</course>
  <speed>0.2751363298439521</speed>
  <fix>3d</fix>
</trkpt>
<trkpt lat="40.0756767" lon="-105.2322891">
  <ele>1606.05</ele>
  <time>2026-08-27T18:25:36Z</time>
  <course>324.97</course>
  <speed>0.33</speed>
  <fix>3d</fix>
</trkpt>
<trkpt lat="40.0756776" lon="-105.2322892">
  <ele>1606.17</ele>
  <time>2026-08-27T18:25:36Z</time>
  <course>329.09</course>
  <speed>0.2353720459187964</speed>
  <fix>3d</fix>
</trkpt>
<trkpt lat="40.0756772" lon="-105.2322894">
  <ele>1606.05</ele>
  <time>2026-08-27T18:25:36Z</time>
  <course>329.9</course>
  <speed>0.29</speed>
  <fix>3d</fix>
</trkpt>
<trkpt lat="40.075678" lon="-105.2322894">
  <ele>1606.17</ele>
  <time>2026-08-27T18:25:36Z</time>
  <course>329.08</course>
  <speed>0.2</speed>
  <fix>3d</fix>
</trkpt>
<trkpt lat="40.0756777" lon="-105.2322897">
  <ele>1606.05</ele>
  <time>2026-08-27T18:25:36Z</time>
  <course>336.52</course>
  <speed>0.24</speed>
  <fix>3d</fix>
</trkpt>
<trkpt lat="40.0756783" lon="-105.2322895">
  <ele>1606.17</ele>
  <time>2026-08-27T18:25:36Z</time>
  <course>329.07</course>
  <speed>0.1649242250247064</speed>
  <fix>3d</fix>
</trkpt>
<trkpt lat="40.075678" lon="-105.2322899">
  <ele>1606.05</ele>
  <time>2026-08-27T18:25:36Z</time>
  <course>345.91</course>
  <speed>0.19</speed>
  <fix>3d</fix>
</trkpt>
<trkpt lat="40.0756785" lon="-105.2322895">
  <ele>1606.16</ele>
  <time>2026-08-27T18:25:36Z</time>
  <course>329.06</course>
  <speed>0.13601470508735444</speed>
  <fix>3d</fix>
</trkpt>
<trkpt lat="40.0756783" lon="-105.2322899">
  <ele>1606.06</ele>
  <time>2026-08-27T18:25:36Z</time>
  <course>0.33</course>
  <speed>0.15</speed>
  <fix>3d</fix>
</trkpt>
<trkpt lat="40.0756787" lon="-105.2322894">
  <ele>1606.16</ele>
  <time>2026-08-27T18:25:36Z</time>
  <course>329.06</course>
  <speed>0.1341640786499874</speed>
  <fix>3d</fix>
</trkpt>
<trkpt lat="40.0756785" lon="-105.2322899">
  <ele>1606.06</ele>
  <time>2026-08-27T18:25:36Z</time>
  <course>23.25</course>
  <speed>0.11</speed>
  <fix>3d</fix>
</trkpt>
<trkpt lat="40.0756788" lon="-105.2322892">
  <ele>1606.16</ele>
  <time>2026-08-27T18:25:36Z</time>
  <course>329.04</course>
  <speed>0.16124515496597097</speed>
  <fix>3d</fix>
</trkpt>
<trkpt lat="40.0756787" lon="-105.2322898">
  <ele>1606.06</ele>
  <time>2026-08-27T18:25:36Z</time>
  <course>53.52</course>
  <speed>0.11</speed>
  <fix>3d</fix>
</trkpt>
<trkpt lat="40.0756788" lon="-105.2322889">
  <ele>1606.17</ele>
  <time>2026-08-27T18:25:36Z</time>
  <course>329.0</course>
  <speed>0.19026297590440447</speed>
  <fix>3d</fix>
</trkpt>
<trkpt lat="40.0756788" lon="-105.2322896">
  <ele>1606.06</ele>
  <time>2026-08-27T18:25:36Z</time>
  <course>79.38</course>
  <speed>0.12</speed>
  <fix>3d</fix>
</trkpt>
<trkpt lat="40.0756787" lon="-105.2322886">
  <ele>1606.17</ele>
  <time>2026-08-27T18:25:36Z</time>
  <course>328.96</course>
  <speed>0.215870331449229</speed>
  <fix>3d</fix>
</trkpt>
<trkpt lat="40.0756788" lon="-105.2322892">
  <ele>1606.06</ele>
  <time>2026-08-27T18:25:36Z</time>
  <course>95.71</course>
  <speed>0.15</speed>
  <fix>3d</fix>
</trkpt>
<trkpt lat="40.0756786" lon="-105.2322881">
  <ele>1606.16</ele>
  <time>2026-08-27T18:25:36Z</time>
  <course>328.97</course>
  <speed>0.24351591323771843</speed>
  <fix>3d</fix>
</trkpt>
<trkpt lat="40.0756787" lon="-105.2322888">
  <ele>1606.07</ele>
  <time>2026-08-27T18:25:36Z</time>
  <course>105.88</course>
  <speed>0.18</speed>
  <fix>3d</fix>
</trkpt>
<trkpt lat="40.0756785" lon="-105.2322877">
  <ele>1606.16</ele>
  <time>2026-08-27T18:25:36Z</time>
  <course>328.96</course>
  <speed>0.25495097567963926</speed>
  <fix>3d</fix>
</trkpt>
<trkpt lat="40.0756787" lon="-105.2322884">
  <ele>1606.07</ele>
  <time>2026-08-27T18:25:36Z</time>
  <course>112.85</course>
  <speed>0.21</speed>
  <fix>3d</fix>
</trkpt>
<trkpt lat="40.0756783" lon="-105.2322872">
  <ele>1606.16</ele>
  <time>2026-08-27T18:25:36Z</time>
  <course>328.94</course>
  <speed>0.27294688127912364</speed>
  <fix>3d</fix>
</trkpt>
<trkpt lat="40.0756785" lon="-105.2322879">
  <ele>1606.07</ele>
  <time>2026-08-27T18:25:36Z</time>
  <course>118.05</course>
  <speed>0.23</speed>
  <fix>3d</fix>
</trkpt>
<trkpt lat="40.0756781" lon="-105.2322868">
  <ele>1606.16</ele>
  <time>2026-08-27T18:25:36Z</time>
  <course>328.92</course>
  <speed>0.2745906043549196</speed>
  <fix>3d</fix>
</trkpt>
<trkpt lat="40.0756783" lon="-105.2322874">
  <ele>1606.07</ele>
  <time>2026-08-27T18:25:36Z</time>
  <course>122.17</course>
  <speed>0.24</speed>
  <fix>3d</fix>
</trkpt>
<trkpt lat="40.0756778" lon="-105.2322863">
  <ele>1606.17</ele>
  <time>2026-08-27T18:25:36Z</time>
  <course>328.92</course>
  <speed>0.2720294101747089</speed>
  <fix>3d</fix>
</trkpt>
<trkpt lat="40.0756781" lon="-105.232287">
  <ele>1606.08</ele>
  <time>2026-08-27T18:25:36Z</time>
  <course>125.72</course>
  <speed>0.25</speed>
  <fix>3d</fix>
</trkpt>
<trkpt lat="40.0756775" lon="-105.2322859">
  <ele>1606.17</ele>
  <time>2026-08-27T18:25:36Z</time>
  <course>328.89</course>
  <speed>0.27018512172212594</speed>
  <fix>3d</fix>
</trkpt>
<trkpt lat="40.0756778" lon="-105.2322865">
  <ele>1606.08</ele>
  <time>2026-08-27T18:25:36Z</time>
  <course>128.99</course>
  <speed>0.24</speed>
  <fix>3d</fix>
</trkpt>
<trkpt lat="40.0756773" lon="-105.2322855">
  <ele>1606.17</ele>
  <time>2026-08-27T18:25:36Z</time>
  <course>328.87</course>
  <speed>0.25495097567963926</speed>
  <fix>3d</fix>
</trkpt>
<trkpt lat="40.0756775" lon="-105.2322861">
  <ele>1606.08</ele>
  <time>2026-08-27T18:25:36Z</time>
  <course>132.08</course>
  <speed>0.24</speed>
  <fix>3d</fix>
</trkpt>
<trkpt lat="40.075677" lon="-105.2322851">
  <ele>1606.17</ele>
  <time>2026-08-27T18:25:36Z</time>
  <course>328.87</course>
  <speed>0.23345235059857505</speed>
  <fix>3d</fix>
</trkpt>
<trkpt lat="40.0756772" lon="-105.2322856">
  <ele>1606.09</ele>
  <time>2026-08-27T18:25:36Z</time>
  <course>135.14</course>
  <speed>0.22</speed>
  <fix>3d</fix>
</trkpt>
<trkpt lat="40.0756767" lon="-105.2322848">
  <ele>1606.18</ele>
  <time>2026-08-27T18:25:36Z</time>
  <course>328.87</course>
  <speed>0.21213203435596426</speed>
  <fix>3d</fix>
</trkpt>
<trkpt lat="40.0756769" lon="-105.2322853">
  <ele>1606.09</ele>
  <time>2026-08-27T18:25:36Z</time>
  <course>138.21</course>
  <speed>0.2</speed>
  <fix>3d</fix>
</trkpt>
<trkpt lat="40.0756765" lon="-105.2322846">
  <ele>1606.18</ele>
  <time>2026-08-27T18:25:36Z</time>
  <course>328.85</course>
  <speed>0.18439088914585774</speed>
  <fix>3d</fix>
</trkpt>
<trkpt lat="40.0756767" lon="-105.232285">
  <ele>1606.09</ele>
  <time>2026-08-27T18:25:36Z</time>
  <course>141.5</course>
  <speed>0.18</speed>
  <fix>3d</fix>
</trkpt>
<trkpt lat="40.0756762" lon="-105.2322844">
  <ele>1606.18</ele>
  <time>2026-08-27T18:25:36Z</time>
  <course>328.84</course>
  <speed>0.15</speed>
  <fix>3d</fix>
</trkpt>
<trkpt lat="40.0756764" lon="-105.2322848">
  <ele>1606.09</ele>
  <time>2026-08-27T18:25:36Z</time>
  <course>145.5</course>
  <speed>0.15</speed>
  <fix>3d</fix>
</trkpt>
<trkpt lat="40.075676" lon="-105.2322843">
  <ele>1606.18</ele>
  <time>2026-08-27T18:25:36Z</time>
  <course>328.82</course>
  <speed>0.12206555615733702</speed>
  <fix>3d</fix>
</trkpt>
<trkpt lat="40.0756761" lon="-105.2322846">
  <ele>1606.09</ele>
  <time>2026-08-27T18:25:36Z</time>
  <course>150.78</course>
  <speed>0.13</speed>
  <fix>3d</fix>
</trkpt>
<trkpt lat="40.0756759" lon="-105.2322842">
  <ele>1606.17</ele>
  <time>2026-08-27T18:25:36Z</time>
  <course>328.78</course>
  <speed>0.10295630140987001</speed>
  <fix>3d</fix>
</trkpt>
<trkpt lat="40.075676" lon="-105.2322845">
  <ele>1606.1</ele>
  <time>2026-08-27T18:25:36Z</time>
  <course>158.27</course>
  <speed>0.1</speed>
  <fix>3d</fix>
</trkpt>
<trkpt lat="40.0756757" lon="-105.2322842">
  <ele>1606.17</ele>
  <time>2026-08-27T18:25:36Z</time>
  <course>328.76</course>
  <speed>0.1044030650891055</speed>
  <fix>3d</fix>
</trkpt>
<trkpt lat="40.0756759" lon="-105.2322844">
  <ele>1606.1</ele>
  <time>2026-08-27T18:25:36Z</time>
  <course>169.74</course>
  <speed>0.09</speed>
  <fix>3d</fix>
</trkpt>
<trkpt lat="40.0756755" lon="-105.2322842">
  <ele>1606.17</ele>
  <time>2026-08-27T18:25:36Z</time>
  <course>328.77</course>
  <speed>0.16031219541881397</speed>
  <fix>3d</fix>
</trkpt>
<trkpt lat="40.0756757" lon="-105.2322844">
  <ele>1606.1</ele>
  <time>2026-08-27T18:25:36Z</time>
  <course>180.77</course>
  <speed>0.11</speed>
  <fix>3d</fix>
</trkpt>
<trkpt lat="40.0756751" lon="-105.2322842">
  <ele>1606.17</ele>
  <time>2026-08-27T18:25:36Z</time>
  <course>328.77</course>
  <speed>0.2601922366251538</speed>
  <fix>3d</fix>
</trkpt>
<trkpt lat="40.0756754" lon="-105.2322844">
  <ele>1606.1</ele>
  <time>2026-08-27T18:25:36Z</time>
  <course>183.52</course>
  <speed>0.17</speed>
  <fix>3d</fix>
</trkpt>
<trkpt lat="40.0756745" lon="-105.2322842">
  <ele>1606.17</ele>
  <time>2026-08-27T18:25:36Z</time>
  <course>328.77</course>
  <speed>0.42107006542854597</speed>
  <fix>3d</fix>
</trkpt>
<trkpt lat="40.075675" lon="-105.2322844">
  <ele>1606.1</ele>
  <time>2026-08-27T18:25:36Z</time>
  <course>181.4</course>
  <speed>0.29</speed>
  <fix>3d</fix>
</trkpt>
<trkpt lat="40.0756736" lon="-105.2322842">
  <ele>1606.17</ele>
  <time>2026-08-27T18:25:36Z</time>
  <course>328.69</course>
  <speed>0.6228964600958975</speed>
  <fix>3d</fix>
</trkpt>
<trkpt lat="40.0756743" lon="-105.2322844">
  <ele>1606.1</ele>
  <time>2026-08-27T18:25:36Z</time>
  <course>178.35</course>
  <speed>0.45</speed>
  <fix>3d</fix>
</trkpt>
<trkpt lat="40.0756723" lon="-105.232284">
  <ele>1606.17</ele>
  <time>2026-08-27T18:25:36Z</time>
  <course>328.63</course>
  <speed>0.8570880934886448</speed>
  <fix>3d</fix>
</trkpt>
<trkpt lat="40.0756734" lon="-105.2322844">
  <ele>1606.09</ele>
  <time>2026-08-27T18:25:36Z</time>
  <course>175.67</course>
  <speed>0.66</speed>
  <fix>3d</fix>
</trkpt>
<trkpt lat="40.0756706" lon="-105.2322838">
  <ele>1606.17</ele>
  <time>2026-08-27T18:25:36Z</time>
  <course>328.44</course>
  <speed>1.1328283188550683</speed>
  <fix>3d</fix>
</trkpt>
<trkpt lat="40.0756719" lon="-105.2322842">
  <ele>1606.09</ele>
  <time>2026-08-27T18:25:36Z</time>
  <course>173.58</course>
  <speed>0.91</speed>
  <fix>3d</fix>
</trkpt>
<trkpt lat="40.0756684" lon="-105.2322832">
  <ele>1606.16</ele>
  <time>2026-08-27T18:25:36Z</time>
  <course>317.55</course>
  <speed>1.4220056258679148</speed>
  <fix>3d</fix>
</trkpt>
<trkpt lat="40.07567" lon="-105.2322839">
  <ele>1606.08</ele>
  <time>2026-08-27T18:25:36Z</time>
  <course>170.51</course>
  <speed>1.18</speed>
  <fix>3d</fix>
</trkpt>
<trkpt lat="40.0756657" lon="-105.2322825">
  <ele>1606.16</ele>
  <time>2026-08-27T18:25:36Z</time>
  <course>304.34</course>
  <speed>1.7810109488714547</speed>
  <fix>3d</fix>
</trkpt>
<trkpt lat="40.0756676" lon="-105.2322833">
  <ele>1606.08</ele>
  <time>2026-08-27T18:25:36Z</time>
  <course>168.4</course>
  <speed>1.5</speed>
  <fix>3d</fix>
</trkpt>
<trkpt lat="40.0756623" lon="-105.2322816">
  <ele>1606.15</ele>
  <time>2026-08-27T18:25:36Z</time>
  <course>291.88</course>
  <speed>2.1489765005695154</speed>
  <fix>3d</fix>
</trkpt>
<trkpt lat="40.0756647" lon="-105.2322824">
  <ele>1606.07</ele>
  <time>2026-08-27T18:25:36Z</time>
  <course>167.56</course>
  <speed>1.86</speed>
  <fix>3d</fix>
</trkpt>
<trkpt lat="40.0756583" lon="-105.2322803">
  <ele>1606.14</ele>
  <time>2026-08-27T18:25:36Z</time>
  <course>279.72</course>
  <speed>2.527231687044146</speed>
  <fix>3d</fix>
</trkpt>
<trkpt lat="40.0756611" lon="-105.2322814">
  <ele>1606.06</ele>
  <time>2026-08-27T18:25:36Z</time>
  <course>166.54</course>
  <speed>2.24</speed>
  <fix>3d</fix>
</trkpt>
<trkpt lat="40.0756536" lon="-105.2322788">
  <ele>1606.13</ele>
  <time>2026-08-27T18:25:36Z</time>
  <course>267.81</course>
  <speed>2.91547594742265</speed>
  <fix>3d</fix>
</trkpt>
<trkpt lat="40.0756569" lon="-105.23228">
  <ele>1606.05</ele>
  <time>2026-08-27T18:25:36Z</time>
  <course>165.76</course>
  <speed>2.62</speed>
  <fix>3d</fix>
</trkpt>
<trkpt lat="40.0756483" lon="-105.232277">
  <ele>1606.13</ele>
  <time>2026-08-27T18:25:36Z</time>
  <course>256.1</course>
  <speed>3.3033921959101376</speed>
  <fix>3d</fix>
</trkpt>
<trkpt lat="40.075652" lon="-105.2322784">
  <ele>1606.04</ele>
  <time>2026-08-27T18:25:36Z</time>
  <course>165.45</course>
  <speed>3.01</speed>
  <fix>3d</fix>
</trkpt>
<trkpt lat="40.0756422" lon="-105.232275">
  <ele>1606.12</ele>
  <time>2026-08-27T18:25:36Z</time>
  <course>244.41</course>
  <speed>3.7083823966791774</speed>
  <fix>3d</fix>
</trkpt>
<trkpt lat="40.0756463" lon="-105.2322765">
  <ele>1606.03</ele>
  <time>2026-08-27T18:25:36Z</time>
  <course>165.67</course>
  <speed>3.41</speed>
  <fix>3d</fix>
</trkpt>
<trkpt lat="40.0756354" lon="-105.2322729">
  <ele>1606.1</ele>
  <time>2026-08-27T18:25:36Z</time>
  <course>232.63</course>
  <speed>4.135915859879163</speed>
  <fix>3d</fix>
</trkpt>
<trkpt lat="40.07564" lon="-105.2322744">
  <ele>1606.02</ele>
  <time>2026-08-27T18:25:36Z</time>
  <course>166.29</course>
  <speed>3.83</speed>
  <fix>3d</fix>
</trkpt>
<trkpt lat="40.0756278" lon="-105.2322707">
  <ele>1606.09</ele>
  <time>2026-08-27T18:25:36Z</time>
  <course>220.62</course>
  <speed>4.593582479938725</speed>
  <fix>3d</fix>
</trkpt>
<trkpt lat="40.0756329" lon="-105.2322722">
  <ele>1606.01</ele>
  <time>2026-08-27T18:25:36Z</time>
  <course>167.08</course>
  <speed>4.27</speed>
  <fix>3d</fix>
</trkpt>
<trkpt lat="40.0756194" lon="-105.2322684">
  <ele>1606.09</ele>
  <time>2026-08-27T18:25:36Z</time>
  <course>208.27</course>
  <speed>5.0637930447442265</speed>
  <fix>3d</fix>
</trkpt>
<trkpt lat="40.075625" lon="-105.2322699">
  <ele>1606.0</ele>
  <time>2026-08-27T18:25:36Z</time>
  <course>167.82</course>
  <speed>4.73</speed>
  <fix>3d</fix>
</trkpt>
<trkpt lat="40.07561" lon="-105.2322659">
  <ele>1606.08</ele>
  <time>2026-08-27T18:25:36Z</time>
  <course>195.66</course>
  <speed>5.538321045226613</speed>
  <fix>3d</fix>
</trkpt>
<trkpt lat="40.0756163" lon="-105.2322675">
  <ele>1605.99</ele>
  <time>2026-08-27T18:25:36Z</time>
  <course>168.33</course>
  <speed>5.2</speed>
  <fix>3d</fix>
</trkpt>
<trkpt lat="40.0755999" lon="-105.2322632">
  <ele>1606.08</ele>
  <time>2026-08-27T18:25:36Z</time>
  <course>182.95</course>
  <speed>6.0188121751721075</speed>
  <fix>3d</fix>
</trkpt>
<trkpt lat="40.0756067" lon="-105.2322649">
  <ele>1605.98</ele>
  <time>2026-08-27T18:25:36Z</time>
  <course>168.5</course>
  <speed>5.69</speed>
  <fix>3d</fix>
</trkpt>
<trkpt lat="40.0755889" lon="-105.2322602">
  <ele>1606.07</ele>
  <time>2026-08-27T18:25:36Z</time>
  <course>170.2</course>
  <speed>6.468214591369089</speed>
  <fix>3d</fix>
</trkpt>
<trkpt lat="40.0755963" lon="-105.2322621">
  <ele>1605.98</ele>
  <time>2026-08-27T18:25:36Z</time>
  <course>168.32</course>
  <speed>6.16</speed>
  <fix>3d</fix>
</trkpt>
<trkpt lat="40.0755772" lon="-105.2322568">
  <ele>1606.07</ele>
  <time>2026-08-27T18:25:36Z</time>
  <course>161.61</course>
  <speed>6.884453500460295</speed>
  <fix>3d</fix>
</trkpt>
<trkpt lat="40.0755851" lon="-105.232259">
  <ele>1605.98</ele>
  <time>2026-08-27T18:25:36Z</time>
  <course>167.72</course>
  <speed>6.61</speed>
  <fix>3d</fix>
</trkpt>
<trkpt lat="40.0755648" lon="-105.232253">
  <ele>1606.06</ele>
  <time>2026-08-27T18:25:36Z</time>
  <course>161.92</course>
  <speed>7.2817374300368725</speed>
  <fix>3d</fix>
</trkpt>
<trkpt lat="40.0755731" lon="-105.2322555">
  <ele>1605.98</ele>
  <time>2026-08-27T18:25:36Z</time>
  <course>167.04</course>
  <speed>7.03</speed>
  <fix>3d</fix>
</trkpt>
<trkpt lat="40.0755517" lon="-105.232249">
  <ele>1606.07</ele>
  <time>2026-08-27T18:25:36Z</time>
  <course>162.29</course>
  <speed>7.6654614994793375</speed>
  <fix>3d</fix>
</trkpt>
<trkpt lat="40.0755604" lon="-105.2322517">
  <ele>1605.98</ele>
  <time>2026-08-27T18:25:36Z</time>
  <course>166.83</course>
  <speed>7.42</speed>
  <fix>3d</fix>
</trkpt>
<trkpt lat="40.075538" lon="-105.232245">
  <ele>1606.08</ele>
  <time>2026-08-27T18:25:36Z</time>
  <course>162.68</course>
  <speed>8.021003677844812</speed>
  <fix>3d</fix>
</trkpt>
<trkpt lat="40.0755471" lon="-105.2322476">
  <ele>1605.98</ele>
  <time>2026-08-27T18:25:36Z</time>
  <course>167.07</course>
  <speed>7.8</speed>
  <fix>3d</fix>
</trkpt>
<trkpt lat="40.0755235" lon="-105.2322408">
  <ele>1606.09</ele>
  <time>2026-08-27T18:25:36Z</time>
  <course>163.2</course>
  <speed>8.355321657482733</speed>
  <fix>3d</fix>
</trkpt>
<trkpt lat="40.0755331" lon="-105.2322435">
  <ele>1605.99</ele>
  <time>2026-08-27T18:25:36Z</time>
  <course>167.48</course>
  <speed>8.16</speed>
  <fix>3d</fix>
</trkpt>
<trkpt lat="40.0755086" lon="-105.2322367">
  <ele>1606.1</ele>
  <time>2026-08-27T18:25:36Z</time>
  <course>163.89</course>
  <speed>8.637082840867048</speed>
  <fix>3d</fix>
</trkpt>
<trkpt lat="40.0755185" lon="-105.2322394">
  <ele>1606.01</ele>
  <time>2026-08-27T18:25:36Z</time>
  <course>167.94</course>
  <speed>8.48</speed>
  <fix>3d</fix>
</trkpt>
<trkpt lat="40.0754931" lon="-105.2322326">
  <ele>1606.13</ele>
  <time>2026-08-27T18:25:36Z</time>
  <course>164.66</course>
  <speed>8.88608462710096</speed>
  <fix>3d</fix>
</trkpt>
<trkpt lat="40.0755032" lon="-105.2322352">
  <ele>1606.03</ele>
  <time>2026-08-27T18:25:36Z</time>
  <course>168.44</course>
  <speed>8.75</speed>
  <fix>3d</fix>
</trkpt>
<trkpt lat="40.0754771" lon="-105.2322286">
  <ele>1606.14</ele>
  <time>2026-08-27T18:25:36Z</time>
  <course>165.51</course>
  <speed>9.09281034664201</speed>
  <fix>3d</fix>
</trkpt>
<trkpt lat="40.0754876" lon="-105.2322311">
  <ele>1606.05</ele>
  <time>2026-08-27T18:25:36Z</time>
  <course>168.98</course>
  <speed>8.99</speed>
  <fix>3d</fix>
</trkpt>
<trkpt lat="40.0754608" lon="-105.2322247">
  <ele>1606.16</ele>
  <time>2026-08-27T18:25:36Z</time>
  <course>166.36</course>
  <speed>9.280716567162258</speed>
  <fix>3d</fix>
</trkpt>
<trkpt lat="40.0754716" lon="-105.2322271">
  <ele>1606.06</ele>
  <time>2026-08-27T18:25:36Z</time>
  <course>169.53</course>
  <speed>9.2</speed>
  <fix>3d</fix>
</trkpt>
<trkpt lat="40.0754442" lon="-105.2322209">
  <ele>1606.18</ele>
  <time>2026-08-27T18:25:36Z</time>
  <course>167.25</course>
  <speed>9.418418126203571</speed>
  <fix>3d</fix>
</trkpt>
<trkpt lat="40.0754551" lon="-105.2322233">
  <ele>1606.08</ele>
  <time>2026-08-27T18:25:36Z</time>
  <course>170.09</course>
  <speed>9.37</speed>
  <fix>3d</fix>
</trkpt>
<trkpt lat="40.0754273" lon="-105.2322173">
  <ele>1606.2</ele>
  <time>2026-08-27T18:25:36Z</time>
  <course>168.14</course>
  <speed>9.537111722109582</speed>
  <fix>3d</fix>
</trkpt>
<trkpt lat="40.0754384" lon="-105.2322196">
  <ele>1606.1</ele>
  <time>2026-08-27T18:25:36Z</time>
  <course>170.63</course>
  <speed>9.5</speed>
  <fix>3d</fix>
</trkpt>
<trkpt lat="40.0754102" lon="-105.2322139">
  <ele>1606.21</ele>
  <time>2026-08-27T18:25:36Z</time>
  <course>168.97</course>
  <speed>9.615430307583743</speed>
  <fix>3d</fix>
</trkpt>
<trkpt lat="40.0754215" lon="-105.232216">
  <ele>1606.11</ele>
  <time>2026-08-27T18:25:36Z</time>
  <course>171.14</course>
  <speed>9.61</speed>
  <fix>3d</fix>
</trkpt>
<trkpt lat="40.075393" lon="-105.2322105">
  <ele>1606.22</ele>
  <time>2026-08-27T18:25:36Z</time>
  <course>169.75</course>
  <speed>9.666152285164971</speed>
  <fix>3d</fix>
</trkpt>
<trkpt lat="40.0754043" lon="-105.2322126">
  <ele>1606.12</ele>
  <time>2026-08-27T18:25:36Z</time>
  <course>171.6</course>
  <speed>9.68</speed>
  <fix>3d</fix>
</trkpt>
<trkpt lat="40.0753757" lon="-105.2322074">
  <ele>1606.24</ele>
  <time>2026-08-27T18:25:36Z</time>
  <course>170.49</course>
  <speed>9.688967953296162</speed>
  <fix>3d</fix>
</trkpt>
<trkpt lat="40.0753871" lon="-105.2322093">
  <ele>1606.13</ele>
  <time>2026-08-27T18:25:36Z</time>
  <course>172.0</course>
  <speed>9.72</speed>
  <fix>3d</fix>
</trkpt>
<trkpt lat="40.0753583" lon="-105.2322043">
  <ele>1606.25</ele>
  <time>2026-08-27T18:25:36Z</time>
  <course>171.2</course>
  <speed>9.67372730647293</speed>
  <fix>3d</fix>
</trkpt>
<trkpt lat="40.0753698" lon="-105.2322063">
  <ele>1606.15</ele>
  <time>2026-08-27T18:25:36Z</time>
  <course>172.33</course>
  <speed>9.73</speed>
  <fix>3d</fix>
</trkpt>
<trkpt lat="40.075341" lon="-105.2322014">
  <ele>1606.26</ele>
  <time>2026-08-27T18:25:36Z</time>
  <course>171.75</course>
  <speed>9.648720122378926</speed>
  <fix>3d</fix>
</trkpt>
<trkpt lat="40.0753525" lon="-105.2322033">
  <ele>1606.16</ele>
  <time>2026-08-27T18:25:36Z</time>
  <course>172.59</course>
  <speed>9.71</speed>
  <fix>3d</fix>
</trkpt>
<trkpt lat="40.0753238" lon="-105.2321985">
  <ele>1606.26</ele>
  <time>2026-08-27T18:25:36Z</time>
  <course>172.08</course>
  <speed>9.626349256078338</speed>
  <fix>3d</fix>
</trkpt>
<trkpt lat="40.0753352" lon="-105.2322004">
  <ele>1606.16</ele>
  <time>2026-08-27T18:25:36Z</time>
  <course>172.77</course>
  <speed>9.68</speed>
  <fix>3d</fix>
</trkpt>
<trkpt lat="40.0753066" lon="-105.2321957">
  <ele>1606.24</ele>
  <time>2026-08-27T18:25:36Z</time>
  <course>172.18</course>
  <speed>9.615175505418504</speed>
  <fix>3d</fix>
</trkpt>
<trkpt lat="40.0753179" lon="-105.2321975">
  <ele>1606.16</ele>
  <time>2026-08-27T18:25:36Z</time>
  <course>172.87</course>
  <speed>9.65</speed>
  <fix>3d</fix>
</trkpt>
<trkpt lat="40.0752894" lon="-105.2321928">
  <ele>1606.22</ele>
  <time>2026-08-27T18:25:36Z</time>
  <course>172.03</course>
  <speed>9.627611334074512</speed>
  <fix>3d</fix>
</trkpt>
<trkpt lat="40.0753007" lon="-105.2321948">
  <ele>1606.15</ele>
  <time>2026-08-27T18:25:36Z</time>
  <course>172.87</course>
  <speed>9.64</speed>
  <fix>3d</fix>
</trkpt>
<trkpt lat="40.0752722" lon="-105.23219">
  <ele>1606.2</ele>
  <time>2026-08-27T18:25:36Z</time>
  <course>171.73</course>
  <speed>9.652590325917702</speed>
  <fix>3d</fix>
</trkpt>
<trkpt lat="40.0752835" lon="-105.2321919">
  <ele>1606.13</ele>
  <time>2026-08-27T18:25:36Z</time>
  <course>172.74</course>
  <speed>9.65</speed>
  <fix>3d</fix>
</trkpt>
<trkpt lat="40.075255" lon="-105.232187">
  <ele>1606.17</ele>
  <time>2026-08-27T18:25:36Z</time>
  <course>171.3</course>
  <speed>9.690325071946761</speed>
  <fix>3d</fix>
</trkpt>
<trkpt lat="40.0752662" lon="-105.232189">
  <ele>1606.11</ele>
  <time>2026-08-27T18:25:36Z</time>
  <course>172.49</course>
  <speed>9.68</speed>
  <fix>3d</fix>
</trkpt>
<trkpt lat="40.0752377" lon="-105.2321838">
  <ele>1606.16</ele>
  <time>2026-08-27T18:25:36Z</time>
  <course>170.8</course>
  <speed>9.729799586836307</speed>
  <fix>3d</fix>
</trkpt>
<trkpt lat="40.075249" lon="-105.2321859">
  <ele>1606.09</ele>
  <time>2026-08-27T18:25:36Z</time>
  <course>172.14</course>
  <speed>9.72</speed>
  <fix>3d</fix>
</trkpt>
<trkpt lat="40.0752203" lon="-105.2321805">
  <ele>1606.15</ele>
  <time>2026-08-27T18:25:36Z</time>
  <course>170.29</course>
  <speed>9.771207704270747</speed>
  <fix>3d</fix>
</trkpt>
<trkpt lat="40.0752317" lon="-105.2321827">
  <ele>1606.07</ele>
  <time>2026-08-27T18:25:36Z</time>
  <course>171.71</course>
  <speed>9.76</speed>
  <fix>3d</fix>
</trkpt>
<trkpt lat="40.0752029" lon="-105.2321769">
  <ele>1606.15</ele>
  <time>2026-08-27T18:25:36Z</time>
  <course>169.79</course>
  <speed>9.814769482774416</speed>
  <fix>3d</fix>
</trkpt>
<trkpt lat="40.0752143" lon="-105.2321793">
  <ele>1606.07</ele>
  <time>2026-08-27T18:25:36Z</time>
  <course>171.25</course>
  <speed>9.8</speed>
  <fix>3d</fix>
</trkpt>
<trkpt lat="40.0751855" lon="-105.2321732">
  <ele>1606.15</ele>
  <time>2026-08-27T18:25:36Z</time>
  <course>169.31</course>
  <speed>9.857383019848625</speed>
  <fix>3d</fix>
</trkpt>
<trkpt lat="40.0751968" lon="-105.2321757">
  <ele>1606.07</ele>
  <time>2026-08-27T18:25:36Z</time>
  <course>170.77</course>
  <speed>9.84</speed>
  <fix>3d</fix>
</trkpt>
<trkpt lat="40.0751679" lon="-105.2321693">
  <ele>1606.15</ele>
  <time>2026-08-27T18:25:36Z</time>
  <course>168.86</course>
  <speed>9.900550489745507</speed>
  <fix>3d</fix>
</trkpt>
<trkpt lat="40.0751794" lon="-105.2321719">
  <ele>1606.07</ele>
  <time>2026-08-27T18:25:36Z</time>
  <course>170.32</course>
  <speed>9.88</speed>
  <fix>3d</fix>
</trkpt>
<trkpt lat="40.0751504" lon="-105.2321652">
  <ele>1606.15</ele>
  <time>2026-08-27T18:25:36Z</time>
  <course>168.45</course>
  <speed>9.942459454279911</speed>
  <fix>3d</fix>
</trkpt>
<trkpt lat="40.0751619" lon="-105.2321679">
  <ele>1606.07</ele>
  <time>2026-08-27T18:25:36Z</time>
  <course>169.9</course>
  <speed>9.92</speed>
  <fix>3d</fix>
</trkpt>
<trkpt lat="40.0751328" lon="-105.2321609">
  <ele>1606.15</ele>
  <time>2026-08-27T18:25:36Z</time>
  <course>168.11</course>
  <speed>9.973088789337032</speed>
  <fix>3d</fix>
</trkpt>
<trkpt lat="40.0751443" lon="-105.2321638">
  <ele>1606.08</ele>
  <time>2026-08-27T18:25:36Z</time>
  <course>169.52</course>
  <speed>9.95</speed>
  <fix>3d</fix>
</trkpt>
<trkpt lat="40.075115" lon="-105.2321565">
  <ele>1606.16</ele>
  <time>2026-08-27T18:25:36Z</time>
  <course>167.85</course>
  <speed>10.002119775327628</speed>
  <fix>3d</fix>
</trkpt>
<trkpt lat="40.0751267" lon="-105.2321595">
  <ele>1606.08</ele>
  <time>2026-08-27T18:25:36Z</time>
  <course>169.2</course>
  <speed>9.98</speed>
  <fix>3d</fix>
</trkpt>
<trkpt lat="40.0750974" lon="-105.232152">
  <ele>1606.16</ele>
  <time>2026-08-27T18:25:36Z</time>
  <course>167.64</course>
  <speed>10.01960578066822</speed>
  <fix>3d</fix>
</trkpt>
<trkpt lat="40.075109" lon="-105.232155">
  <ele>1606.09</ele>
  <time>2026-08-27T18:25:36Z</time>
  <course>168.94</course>
  <speed>10.01</speed>
  <fix>3d</fix>
</trkpt>
<trkpt lat="40.0750797" lon="-105.2321474">
  <ele>1606.17</ele>
  <time>2026-08-27T18:25:36Z</time>
  <course>167.5</course>
  <speed>10.043112067481871</speed>
  <fix>3d</fix>
</trkpt>
<trkpt lat="40.0750914" lon="-105.2321504">
  <ele>1606.1</ele>
  <time>2026-08-27T18:25:36Z</time>
  <course>168.75</course>
  <speed>10.03</speed>
  <fix>3d</fix>
</trkpt>
<trkpt lat="40.075062" lon="-105.2321428">
  <ele>1606.17</ele>
  <time>2026-08-27T18:25:36Z</time>
  <course>167.47</course>
  <speed>10.056838469419702</speed>
  <fix>3d</fix>
</trkpt>
<trkpt lat="40.0750737" lon="-105.2321458">
  <ele>1606.1</ele>
  <time>2026-08-27T18:25:36Z</time>
  <course>168.62</course>
  <speed>10.05</speed>
  <fix>3d</fix>
</trkpt>
<trkpt lat="40.0750443" lon="-105.2321381">
  <ele>1606.18</ele>
  <time>2026-08-27T18:25:36Z</time>
  <course>167.47</course>
  <speed>10.06664293595437</speed>
  <fix>3d</fix>
</trkpt>
<trkpt lat="40.075056" lon="-105.2321411">
  <ele>1606.11</ele>
  <time>2026-08-27T18:25:36Z</time>
  <course>168.55</course>
  <speed>10.06</speed>
  <fix>3d</fix>
</trkpt>
<trkpt lat="40.0750265" lon="-105.2321334">
  <ele>1606.19</ele>
  <time>2026-08-27T18:25:36Z</time>
  <course>167.52</course>
  <speed>10.07644778679471</speed>
  <fix>3d</fix>
</trkpt>
<trkpt lat="40.0750382" lon="-105.2321364">
  <ele>1606.11</ele>
  <time>2026-08-27T18:25:36Z</time>
  <course>168.54</course>
  <speed>10.07</speed>
  <fix>3d</fix>
</trkpt>
<trkpt lat="40.0750088" lon="-105.2321288">
  <ele>1606.19</ele>
  <time>2026-08-27T18:25:36Z</time>
  <course>167.62</course>
  <speed>10.082345957166913</speed>
  <fix>3d</fix>
</trkpt>
<trkpt lat="40.0750204" lon="-105.2321317">
  <ele>1606.12</ele>
  <time>2026-08-27T18:25:36Z</time>
  <course>168.58</course>
  <speed>10.08</speed>
  <fix>3d</fix>
</trkpt>
<trkpt lat="40.0749909" lon="-105.2321241">
  <ele>1606.19</ele>
  <time>2026-08-27T18:25:36Z</time>
  <course>167.78</course>
  <speed>10.078477067493878</speed>
  <fix>3d</fix>
</trkpt>
<trkpt lat="40.0750027" lon="-105.232127">
  <ele>1606.12</ele>
  <time>2026-08-27T18:25:36Z</time>
  <course>168.66</course>
  <speed>10.09</speed>
  <fix>3d</fix>
</trkpt>
<trkpt lat="40.0749732" lon="-105.2321195">
  <ele>1606.19</ele>
  <time>2026-08-27T18:25:36Z</time>
  <course>167.96</course>
  <speed>10.074646395779855</speed>
  <fix>3d</fix>
</trkpt>
<trkpt lat="40.0749849" lon="-105.2321225">
  <ele>1606.12</ele>
  <time>2026-08-27T18:25:36Z</time>
  <course>168.79</course>
  <speed>10.09</speed>
  <fix>3d</fix>
</trkpt>
<trkpt lat="40.0749555" lon="-105.232115">
  <ele>1606.19</ele>
  <time>2026-08-27T18:25:36Z</time>
  <course>168.18</course>
  <speed>10.068972142180154</speed>
  <fix>3d</fix>
</trkpt>
<trkpt lat="40.074967" lon="-105.2321178">
  <ele>1606.12</ele>
  <time>2026-08-27T18:25:36Z</time>
  <course>168.94</course>
  <speed>10.08</speed>
  <fix>3d</fix>
</trkpt>
<trkpt lat="40.0749377" lon="-105.2321106">
  <ele>1606.18</ele>
  <time>2026-08-27T18:25:36Z</time>
  <course>168.4</course>
  <speed>10.061540637496824</speed>
  <fix>3d</fix>
</trkpt>
<trkpt lat="40.0749493" lon="-105.2321133">
  <ele>1606.13</ele>
  <time>2026-08-27T18:25:36Z</time>
  <course>169.11</course>
  <speed>10.08</speed>
  <fix>3d</fix>
</trkpt>
<trkpt lat="40.0749199" lon="-105.2321062">
  <ele>1606.18</ele>
  <time>2026-08-27T18:25:36Z</time>
  <course>168.61</course>
  <speed>10.056067819978145</speed>
  <fix>3d</fix>
</trkpt>
<trkpt lat="40.0749316" lon="-105.2321089">
  <ele>1606.13</ele>
  <time>2026-08-27T18:25:36Z</time>
  <course>169.29</course>
  <speed>10.07</speed>
  <fix>3d</fix>
</trkpt>
<trkpt lat="40.0749022" lon="-105.232102">
  <ele>1606.17</ele>
  <time>2026-08-27T18:25:36Z</time>
  <course>168.8</course>
  <speed>10.050681568928548</speed>
  <fix>3d</fix>
</trkpt>
<trkpt lat="40.0749138" lon="-105.2321046">
  <ele>1606.13</ele>
  <time>2026-08-27T18:25:36Z</time>
  <course>169.48</course>
  <speed>10.07</speed>
  <fix>3d</fix>
</trkpt>
<trkpt lat="40.0748845" lon="-105.2320977">
  <ele>1606.17</ele>
  <time>2026-08-27T18:25:36Z</time>
  <course>168.99</course>
  <speed>10.03553685659118</speed>
  <fix>3d</fix>
</trkpt>
<trkpt lat="40.0748959" lon="-105.2321003">
  <ele>1606.13</ele>
  <time>2026-08-27T18:25:36Z</time>
  <course>169.66</course>
  <speed>10.06</speed>
  <fix>3d</fix>
</trkpt>
<trkpt lat="40.0748667" lon="-105.2320936">
  <ele>1606.17</ele>
  <time>2026-08-27T18:25:37Z</time>
  <course>169.16</course>
  <speed>10.030319037797351</speed>
  <fix>3d</fix>
</trkpt>
<trkpt lat="40.0748782" lon="-105.232096">
  <ele>1606.13</ele>
  <time>2026-08-27T18:25:37Z</time>
  <course>169.81</course>
  <speed>10.06</speed>
  <fix>3d</fix>
</trkpt>
<trkpt lat="40.074849" lon="-105.2320895">
  <ele>1606.17</ele>
  <time>2026-08-27T18:25:37Z</time>
  <course>169.35</course>
  <speed>10.026888849488659</speed>
  <fix>3d</fix>
</trkpt>
<trkpt lat="40.0748604" lon="-105.2320919">
  <ele>1606.13</ele>
  <time>2026-08-27T18:25:37Z</time>
  <course>169.96</course>
  <speed>10.05</speed>
  <fix>3d</fix>
</trkpt>
<trkpt lat="40.0748312" lon="-105.2320855">
  <ele>1606.18</ele>
  <time>2026-08-27T18:25:37Z</time>
  <course>169.48</course>
  <speed>10.013640696569855</speed>
  <fix>3d</fix>
</trkpt>
<trkpt lat="40.0748426" lon="-105.2320879">
  <ele>1606.13</ele>
  <time>2026-08-27T18:25:37Z</time>
  <course>170.08</course>
  <speed>10.04</speed>
  <fix>3d</fix>
</trkpt>
<trkpt lat="40.0748134" lon="-105.2320814">
  <ele>1606.19</ele>
  <time>2026-08-27T18:25:37Z</time>
  <course>169.61</course>
  <speed>10.000424990969133</speed>
  <fix>3d</fix>
</trkpt>
<trkpt lat="40.0748248" lon="-105.2320838">
  <ele>1606.14</ele>
  <time>2026-08-27T18:25:37Z</time>
  <course>170.19</course>
  <speed>10.03</speed>
  <fix>3d</fix>
</trkpt>
<trkpt lat="40.0747957" lon="-105.2320775">
  <ele>1606.19</ele>
  <time>2026-08-27T18:25:37Z</time>
  <course>169.75</course>
  <speed>9.988898838210346</speed>
  <fix>3d</fix>
</trkpt>
<trkpt lat="40.0748071" lon="-105.2320798">
  <ele>1606.14</ele>
  <time>2026-08-27T18:25:37Z</time>
  <course>170.27</course>
  <speed>10.02</speed>
  <fix>3d</fix>
</trkpt>
<trkpt lat="40.074778" lon="-105.2320735">
  <ele>1606.19</ele>
  <time>2026-08-27T18:25:37Z</time>
  <course>169.83</course>
  <speed>9.987241861495095</speed>
  <fix>3d</fix>
</trkpt>
<trkpt lat="40.0747893" lon="-105.2320758">
  <ele>1606.14</ele>
  <time>2026-08-27T18:25:37Z</time>
  <course>170.33</course>
  <speed>10.01</speed>
  <fix>3d</fix>
</trkpt>
<trkpt lat="40.0747603" lon="-105.2320696">
  <ele>1606.19</ele>
  <time>2026-08-27T18:25:37Z</time>
  <course>169.89</course>
  <speed>9.965866746048734</speed>
  <fix>3d</fix>
</trkpt>
<trkpt lat="40.0747715" lon="-105.2320719">
  <ele>1606.14</ele>
  <time>2026-08-27T18:25:37Z</time>
  <course>170.36</course>
  <speed>10.0</speed>
  <fix>3d</fix>
</trkpt>
<trkpt lat="40.0747425" lon="-105.2320657">
  <ele>1606.2</ele>
  <time>2026-08-27T18:25:37Z</time>
  <course>169.92</course>
  <speed>9.956003214141708</speed>
  <fix>3d</fix>
</trkpt>
<trkpt lat="40.0747538" lon="-105.232068">
  <ele>1606.14</ele>
  <time>2026-08-27T18:25:37Z</time>
  <course>170.37</course>
  <speed>9.99</speed>
  <fix>3d</fix>
</trkpt>
<trkpt lat="40.0747248" lon="-105.2320617">
  <ele>1606.2</ele>
  <time>2026-08-27T18:25:37Z</time>
  <course>169.93</course>
  <speed>9.946139954776426</speed>
  <fix>3d</fix>
</trkpt>
<trkpt lat="40.0747362" lon="-105.2320641">
  <ele>1606.14</ele>
  <time>2026-08-27T18:25:37Z</time>
  <course>170.37</course>
  <speed>9.97</speed>
  <fix>3d</fix>
</trkpt>
<trkpt lat="40.0747072" lon="-105.2320578">
  <ele>1606.2</ele>
  <time>2026-08-27T18:25:37Z</time>
  <course>169.93</course>
  <speed>9.93793238053067</speed>
  <fix>3d</fix>
</trkpt>
<trkpt lat="40.0747185" lon="-105.2320601">
  <ele>1606.14</ele>
  <time>2026-08-27T18:25:37Z</time>
  <course>170.34</course>
  <speed>9.96</speed>
  <fix>3d</fix>
</trkpt>
<trkpt lat="40.0746895" lon="-105.2320539">
  <ele>1606.2</ele>
  <time>2026-08-27T18:25:37Z</time>
  <course>169.88</course>
  <speed>9.919879031520495</speed>
  <fix>3d</fix>
</trkpt>
<trkpt lat="40.0747008" lon="-105.2320562">
  <ele>1606.13</ele>
  <time>2026-08-27T18:25:37Z</time>
  <course>170.29</course>
  <speed>9.95</speed>
  <fix>3d</fix>
</trkpt>
<trkpt lat="40.074672" lon="-105.2320499">
  <ele>1606.2</ele>
  <time>2026-08-27T18:25:37Z</time>
  <course>169.82</course>
  <speed>9.921557337434482</speed>
  <fix>3d</fix>
</trkpt>
<trkpt lat="40.0746833" lon="-105.2320522">
  <ele>1606.13</ele>
  <time>2026-08-27T18:25:37Z</time>
  <course>170.24</course>
  <speed>9.94</speed>
  <fix>3d</fix>
</trkpt>
<trkpt lat="40.0746544" lon="-105.2320459">
  <ele>1606.19</ele>
  <time>2026-08-27T18:25:37Z</time>
  <course>169.71</course>
  <speed>9.913389934830567</speed>
  <fix>3d</fix>
</trkpt>
<trkpt lat="40.0746657" lon="-105.2320483">
  <ele>1606.12</ele>
  <time>2026-08-27T18:25:37Z</time>
  <course>170.17</course>
  <speed>9.93</speed>
  <fix>3d</fix>
</trkpt>
<trkpt lat="40.0746368" lon="-105.2320419">
  <ele>1606.19</ele>
  <time>2026-08-27T18:25:37Z</time>
  <course>169.62</course>
  <speed>9.915089510438118</speed>
  <fix>3d</fix>
</trkpt>
<trkpt lat="40.0746481" lon="-105.2320443">
  <ele>1606.12</ele>
  <time>2026-08-27T18:25:37Z</time>
  <course>170.09</course>
  <speed>9.93</speed>
  <fix>3d</fix>
</trkpt>
<trkpt lat="40.0746191" lon="-105.2320379">
  <ele>1606.18</ele>
  <time>2026-08-27T18:25:37Z</time>
  <course>169.48</course>
  <speed>9.918518034464624</speed>
  <fix>3d</fix>
</trkpt>
<trkpt lat="40.0746305" lon="-105.2320403">
  <ele>1606.11</ele>
  <time>2026-08-27T18:25:37Z</time>
  <course>170.01</course>
  <speed>9.93</speed>
  <fix>3d</fix>
</trkpt>
<trkpt lat="40.0746016" lon="-105.2320338">
  <ele>1606.18</ele>
  <time>2026-08-27T18:25:37Z</time>
  <course>169.38</course>
  <speed>9.92024697273208</speed>
  <fix>3d</fix>
</trkpt>
<trkpt lat="40.074613" lon="-105.2320362">
  <ele>1606.11</ele>
  <time>2026-08-27T18:25:37Z</time>
  <course>169.92</course>
  <speed>9.93</speed>
  <fix>3d</fix>
</trkpt>
<trkpt lat="40.074584" lon="-105.2320297">
  <ele>1606.18</ele>
  <time>2026-08-27T18:25:37Z</time>
  <course>169.29</course>
  <speed>9.92373417620605</speed>
  <fix>3d</fix>
</trkpt>
<trkpt lat="40.0745953" lon="-105.2320321">
  <ele>1606.1</ele>
  <time>2026-08-27T18:25:37Z</time>
  <course>169.83</course>
  <speed>9.93</speed>
  <fix>3d</fix>
</trkpt>
<trkpt lat="40.0745663" lon="-105.2320255">
  <ele>1606.17</ele>
  <time>2026-08-27T18:25:37Z</time>
  <course>169.19</course>
  <speed>9.9353359278889</speed>
  <fix>3d</fix>
</trkpt>
<trkpt lat="40.0745778" lon="-105.2320279">
  <ele>1606.1</ele>
  <time>2026-08-27T18:25:37Z</time>
  <course>169.75</course>
  <speed>9.94</speed>
  <fix>3d</fix>
</trkpt>
<trkpt lat="40.0745487" lon="-105.2320213">
  <ele>1606.17</ele>
  <time>2026-08-27T18:25:37Z</time>
  <course>169.14</course>
  <speed>9.937102193295589</speed>
  <fix>3d</fix>
</trkpt>
<trkpt lat="40.0745602" lon="-105.2320238">
  <ele>1606.1</ele>
  <time>2026-08-27T18:25:37Z</time>
  <course>169.68</course>
  <speed>9.94</speed>
  <fix>3d</fix>
</trkpt>
<trkpt lat="40.0745312" lon="-105.2320171">
  <ele>1606.17</ele>
  <time>2026-08-27T18:25:37Z</time>
  <course>169.09</course>
  <speed>9.938878206316849</speed>
  <fix>3d</fix>
</trkpt>
<trkpt lat="40.0745426" lon="-105.2320197">
  <ele>1606.1</ele>
  <time>2026-08-27T18:25:37Z</time>
  <course>169.62</course>
  <speed>9.94</speed>
  <fix>3d</fix>
</trkpt>
<trkpt lat="40.0745136" lon="-105.2320129">
  <ele>1606.17</ele>
  <time>2026-08-27T18:25:37Z</time>
  <course>169.04</course>
  <speed>9.938878206316849</speed>
  <fix>3d</fix>
</trkpt>
<trkpt lat="40.0745251" lon="-105.2320154">
  <ele>1606.1</ele>
  <time>2026-08-27T18:25:37Z</time>
  <course>169.58</course>
  <speed>9.95</speed>
  <fix>3d</fix>
</trkpt>
<trkpt lat="40.0744961" lon="-105.2320087">
  <ele>1606.17</ele>
  <time>2026-08-27T18:25:37Z</time>
  <course>169.01</course>
  <speed>9.94066396172811</speed>
  <fix>3d</fix>
</trkpt>
<trkpt lat="40.0745074" lon="-105.2320111">
  <ele>1606.1</ele>
  <time>2026-08-27T18:25:37Z</time>
  <course>169.55</course>
  <speed>9.95</speed>
  <fix>3d</fix>
</trkpt>
<trkpt lat="40.0744786" lon="-105.2320044">
  <ele>1606.17</ele>
  <time>2026-08-27T18:25:37Z</time>
  <course>168.98</course>
  <speed>9.950502499874064</speed>
  <fix>3d</fix>
</trkpt>
<trkpt lat="40.0744899" lon="-105.232007">
  <ele>1606.1</ele>
  <time>2026-08-27T18:25:37Z</time>
  <course>169.54</course>
  <speed>9.96</speed>
  <fix>3d</fix>
</trkpt>
<trkpt lat="40.074461" lon="-105.2320002">
  <ele>1606.18</ele>
  <time>2026-08-27T18:25:37Z</time>
  <course>168.95</course>
  <speed>9.960341359612128</speed>
  <fix>3d</fix>
</trkpt>
<trkpt lat="40.0744722" lon="-105.2320027">
  <ele>1606.1</ele>
  <time>2026-08-27T18:25:37Z</time>
  <course>169.53</course>
  <speed>9.97</speed>
  <fix>3d</fix>
</trkpt>
<trkpt lat="40.0744433" lon="-105.2319959">
  <ele>1606.17</ele>
  <time>2026-08-27T18:25:37Z</time>
  <course>168.92</course>
  <speed>9.98002004006004</speed>
  <fix>3d</fix>
</trkpt>
<trkpt lat="40.0744547" lon="-105.2319985">
  <ele>1606.1</ele>
  <time>2026-08-27T18:25:37Z</time>
  <course>169.54</course>
  <speed>9.99</speed>
  <fix>3d</fix>
</trkpt>
<trkpt lat="40.0744256" lon="-105.2319917">
  <ele>1606.17</ele>
  <time>2026-08-27T18:25:37Z</time>
  <course>168.93</course>
  <speed>9.989859858876901</speed>
  <fix>3d</fix>
</trkpt>
<trkpt lat="40.074437" lon="-105.2319942">
  <ele>1606.09</ele>
  <time>2026-08-27T18:25:37Z</time>
  <course>169.55</course>
  <speed>10.0</speed>
  <fix>3d</fix>
</trkpt>
<trkpt lat="40.0744079" lon="-105.2319874">
  <ele>1606.17</ele>
  <time>2026-08-27T18:25:37Z</time>
  <course>168.96</course>
  <speed>10.009540448991652</speed>
  <fix>3d</fix>
</trkpt>
<trkpt lat="40.0744193" lon="-105.2319899">
  <ele>1606.09</ele>
  <time>2026-08-27T18:25:37Z</time>
  <course>169.56</course>
  <speed>10.02</speed>
  <fix>3d</fix>
</trkpt>
<trkpt lat="40.0743902" lon="-105.2319832">
  <ele>1606.17</ele>
  <time>2026-08-27T18:25:37Z</time>
  <course>169.02</course>
  <speed>10.009540448991652</speed>
  <fix>3d</fix>
</trkpt>
<trkpt lat="40.0744015" lon="-105.2319857">
  <ele>1606.09</ele>
  <time>2026-08-27T18:25:37Z</time>
  <course>169.58</course>
  <speed>10.03</speed>
  <fix>3d</fix>
</trkpt>
<trkpt lat="40.0743724" lon="-105.2319789">
  <ele>1606.17</ele>
  <time>2026-08-27T18:25:37Z</time>
  <course>169.08</course>
  <speed>10.017609495283793</speed>
  <fix>3d</fix>
</trkpt>
<trkpt lat="40.0743838" lon="-105.2319814">
  <ele>1606.09</ele>
  <time>2026-08-27T18:25:37Z</time>
  <course>169.61</course>
  <speed>10.03</speed>
  <fix>3d</fix>
</trkpt>
<trkpt lat="40.0743547" lon="-105.2319747">
  <ele>1606.17</ele>
  <time>2026-08-27T18:25:37Z</time>
  <course>169.15</course>
  <speed>10.015847442927633</speed>
  <fix>3d</fix>
</trkpt>
<trkpt lat="40.0743661" lon="-105.2319771">
  <ele>1606.1</ele>
  <time>2026-08-27T18:25:37Z</time>
  <course>169.66</course>
  <speed>10.03</speed>
  <fix>3d</fix>
</trkpt>
<trkpt lat="40.074337" lon="-105.2319705">
  <ele>1606.17</ele>
  <time>2026-08-27T18:25:37Z</time>
  <course>169.24</course>
  <speed>10.015847442927633</speed>
  <fix>3d</fix>
</trkpt>
<trkpt lat="40.0743483" lon="-105.231973">
  <ele>1606.1</ele>
  <time>2026-08-27T18:25:37Z</time>
  <course>169.71</course>
  <speed>10.03</speed>
  <fix>3d</fix>
</trkpt>
<trkpt lat="40.0743193" lon="-105.2319663">
  <ele>1606.18</ele>
  <time>2026-08-27T18:25:37Z</time>
  <course>169.29</course>
  <speed>10.01409506645508</speed>
  <fix>3d</fix>
</trkpt>
<trkpt lat="40.0743305" lon="-105.2319688">
  <ele>1606.1</ele>
  <time>2026-08-27T18:25:37Z</time>
  <course>169.76</course>
  <speed>10.03</speed>
  <fix>3d</fix>
</trkpt>
<trkpt lat="40.0743015" lon="-105.2319622">
  <ele>1606.18</ele>
  <time>2026-08-27T18:25:37Z</time>
  <course>169.37</course>
  <speed>10.0123523709466</speed>
  <fix>3d</fix>
</trkpt>
<trkpt lat="40.0743128" lon="-105.2319646">
  <ele>1606.11</ele>
  <time>2026-08-27T18:25:37Z</time>
  <course>169.81</course>
  <speed>10.03</speed>
  <fix>3d</fix>
</trkpt>
<trkpt lat="40.0742838" lon="-105.231958">
  <ele>1606.18</ele>
  <time>2026-08-27T18:25:37Z</time>
  <course>169.42</course>
  <speed>10.010619361458112</speed>
  <fix>3d</fix>
</trkpt>
<trkpt lat="40.0742951" lon="-105.2319604">
  <ele>1606.11</ele>
  <time>2026-08-27T18:25:37Z</time>
  <course>169.86</course>
  <speed>10.03</speed>
  <fix>3d</fix>
</trkpt>
<trkpt lat="40.0742661" lon="-105.2319539">
  <ele>1606.19</ele>
  <time>2026-08-27T18:25:37Z</time>
  <course>169.46</course>
  <speed>10.008896043020929</speed>
  <fix>3d</fix>
</trkpt>
<trkpt lat="40.0742774" lon="-105.2319563">
  <ele>1606.11</ele>
  <time>2026-08-27T18:25:37Z</time>
  <course>169.9</course>
  <speed>10.03</speed>
  <fix>3d</fix>
</trkpt>
<trkpt lat="40.0742482" lon="-105.2319498">
  <ele>1606.18</ele>
  <time>2026-08-27T18:25:37Z</time>
  <course>169.55</course>
  <speed>10.008896043020929</speed>
  <fix>3d</fix>
</trkpt>
<trkpt lat="40.0742596" lon="-105.2319522">
  <ele>1606.11</ele>
  <time>2026-08-27T18:25:37Z</time>
  <course>169.94</course>
  <speed>10.03</speed>
  <fix>3d</fix>
</trkpt>
<trkpt lat="40.0742305" lon="-105.2319457">
  <ele>1606.18</ele>
  <time>2026-08-27T18:25:37Z</time>
  <course>169.57</course>
  <speed>10.008896043020929</speed>
  <fix>3d</fix>
</trkpt>
<trkpt lat="40.0742418" lon="-105.231948">
  <ele>1606.11</ele>
  <time>2026-08-27T18:25:37Z</time>
  <course>169.97</course>
  <speed>10.03</speed>
  <fix>3d</fix>
</trkpt>
<trkpt lat="40.0742127" lon="-105.2319416">
  <ele>1606.19</ele>
  <time>2026-08-27T18:25:37Z</time>
  <course>169.62</course>
  <speed>10.007182420641687</speed>
  <fix>3d</fix>
</trkpt>
<trkpt lat="40.074224" lon="-105.2319439">
  <ele>1606.11</ele>
  <time>2026-08-27T18:25:37Z</time>
  <course>169.99</course>
  <speed>10.02</speed>
  <fix>3d</fix>
</trkpt>
<trkpt lat="40.0741949" lon="-105.2319375">
  <ele>1606.19</ele>
  <time>2026-08-27T18:25:37Z</time>
  <course>169.66</course>
  <speed>9.997329643459798</speed>
  <fix>3d</fix>
</trkpt>
<trkpt lat="40.0742063" lon="-105.2319398">
  <ele>1606.11</ele>
  <time>2026-08-27T18:25:37Z</time>
  <course>170.01</course>
  <speed>10.02</speed>
  <fix>3d</fix>
</trkpt>
<trkpt lat="40.0741771" lon="-105.2319334">
  <ele>1606.19</ele>
  <time>2026-08-27T18:25:37Z</time>
  <course>169.71</course>
  <speed>9.987477158922568</speed>
  <fix>3d</fix>
</trkpt>
<trkpt lat="40.0741886" lon="-105.2319358">
  <ele>1606.11</ele>
  <time>2026-08-27T18:25:37Z</time>
  <course>170.02</course>
  <speed>10.01</speed>
  <fix>3d</fix>
</trkpt>
<trkpt lat="40.0741594" lon="-105.2319293">
  <ele>1606.19</ele>
  <time>2026-08-27T18:25:37Z</time>
  <course>169.76</course>
  <speed>9.975915998042485</speed>
  <fix>3d</fix>
</trkpt>
<trkpt lat="40.0741709" lon="-105.2319317">
  <ele>1606.11</ele>
  <time>2026-08-27T18:25:37Z</time>
  <course>170.03</course>
  <speed>10.0</speed>
  <fix>3d</fix>
</trkpt>
<trkpt lat="40.0741417" lon="-105.2319252">
  <ele>1606.19</ele>
  <time>2026-08-27T18:25:37Z</time>
  <course>169.78</course>
  <speed>9.966062412006057</speed>
  <fix>3d</fix>
</trkpt>
<trkpt lat="40.0741532" lon="-105.2319277">
  <ele>1606.11</ele>
  <time>2026-08-27T18:25:37Z</time>
  <course>170.03</course>
  <speed>9.98</speed>
  <fix>3d</fix>
</trkpt>
<trkpt lat="40.074124" lon="-105.2319212">
  <ele>1606.19</ele>
  <time>2026-08-27T18:25:37Z</time>
  <course>169.76</course>
  <speed>9.956209117932387</speed>
  <fix>3d</fix>
</trkpt>
<trkpt lat="40.0741355" lon="-105.2319236">
  <ele>1606.11</ele>
  <time>2026-08-27T18:25:37Z</time>
  <course>170.03</course>
  <speed>9.97</speed>
  <fix>3d</fix>
</trkpt>
<trkpt lat="40.0741063" lon="-105.2319171">
  <ele>1606.18</ele>
  <time>2026-08-27T18:25:37Z</time>
  <course>169.75</course>
  <speed>9.948070164609819</speed>
  <fix>3d</fix>
</trkpt>
<trkpt lat="40.0741179" lon="-105.2319196">
  <ele>1606.1</ele>
  <time>2026-08-27T18:25:37Z</time>
  <course>170.02</course>
  <speed>9.96</speed>
  <fix>3d</fix>
</trkpt>
<trkpt lat="40.0740887" lon="-105.231913">
  <ele>1606.18</ele>
  <time>2026-08-27T18:25:37Z</time>
  <course>169.69</course>
  <speed>9.948070164609819</speed>
  <fix>3d</fix>
</trkpt>
<trkpt lat="40.0741003" lon="-105.2319155">
  <ele>1606.1</ele>
  <time>2026-08-27T18:25:37Z</time>
  <course>170.0</course>
  <speed>9.96</speed>
  <fix>3d</fix>
</trkpt>
<trkpt lat="40.074071" lon="-105.2319089">
  <ele>1606.17</ele>
  <time>2026-08-27T18:25:37Z</time>
  <course>169.64</course>
  <speed>9.938219156368005</speed>
  <fix>3d</fix>
</trkpt>
<trkpt lat="40.0740827" lon="-105.2319114">
  <ele>1606.1</ele>
  <time>2026-08-27T18:25:37Z</time>
  <course>169.98</course>
  <speed>9.95</speed>
  <fix>3d</fix>
</trkpt>
<trkpt lat="40.0740534" lon="-105.2319049">
  <ele>1606.17</ele>
  <time>2026-08-27T18:25:37Z</time>
  <course>169.61</course>
  <speed>9.939944667854041</speed>
  <fix>3d</fix>
</trkpt>
<trkpt lat="40.0740651" lon="-105.2319074">
  <ele>1606.1</ele>
  <time>2026-08-27T18:25:37Z</time>
  <course>169.95</course>
  <speed>9.95</speed>
  <fix>3d</fix>
</trkpt>
<trkpt lat="40.0740358" lon="-105.2319008">
  <ele>1606.17</ele>
  <time>2026-08-27T18:25:37Z</time>
  <course>169.57</course>
  <speed>9.930095669226958</speed>
  <fix>3d</fix>
</trkpt>
<trkpt lat="40.0740474" lon="-105.2319033">
  <ele>1606.09</ele>
  <time>2026-08-27T18:25:37Z</time>
  <course>169.92</course>
  <speed>9.94</speed>
  <fix>3d</fix>
</trkpt>
<trkpt lat="40.0740183" lon="-105.2318967">
  <ele>1606.17</ele>
  <time>2026-08-27T18:25:37Z</time>
  <course>169.52</course>
  <speed>9.931832660692587</speed>
  <fix>3d</fix>
</trkpt>
<trkpt lat="40.0740298" lon="-105.2318992">
  <ele>1606.09</ele>
  <time>2026-08-27T18:25:37Z</time>
  <course>169.88</course>
  <speed>9.94</speed>
  <fix>3d</fix>
</trkpt>
<trkpt lat="40.0740007" lon="-105.2318926">
  <ele>1606.17</ele>
  <time>2026-08-27T18:25:37Z</time>
  <course>169.47</course>
  <speed>9.931832660692587</speed>
  <fix>3d</fix>
</trkpt>
<trkpt lat="40.0740122" lon="-105.2318951">
  <ele>1606.09</ele>
  <time>2026-08-27T18:25:37Z</time>
  <course>169.85</course>
  <speed>9.94</speed>
  <fix>3d</fix>
</trkpt>
<trkpt lat="40.0739832" lon="-105.2318885">
  <ele>1606.17</ele>
  <time>2026-08-27T18:25:37Z</time>
  <course>169.41</course>
  <speed>9.933579415296382</speed>
  <fix>3d</fix>
</trkpt>
<trkpt lat="40.0739947" lon="-105.2318909">
  <ele>1606.09</ele>
  <time>2026-08-27T18:25:37Z</time>
  <course>169.81</course>
  <speed>9.94</speed>
  <fix>3d</fix>
</trkpt>
<trkpt lat="40.0739656" lon="-105.2318843">
  <ele>1606.17</ele>
  <time>2026-08-27T18:25:37Z</time>
  <course>169.36</course>
  <speed>9.94517973693789</speed>
  <fix>3d</fix>
</trkpt>
<trkpt lat="40.073977" lon="-105.2318868">
  <ele>1606.09</ele>
  <time>2026-08-27T18:25:37Z</time>
  <course>169.78</course>
  <speed>9.95</speed>
  <fix>3d</fix>
</trkpt>
<trkpt lat="40.0739481" lon="-105.2318802">
  <ele>1606.17</ele>
  <time>2026-08-27T18:25:37Z</time>
  <course>169.3</course>
  <speed>9.94517973693789</speed>
  <fix>3d</fix>
</trkpt>
<trkpt lat="40.0739595" lon="-105.2318827">
  <ele>1606.09</ele>
  <time>2026-08-27T18:25:37Z</time>
  <course>169.75</course>
  <speed>9.96</speed>
  <fix>3d</fix>
</trkpt>
<trkpt lat="40.0739305" lon="-105.231876">
  <ele>1606.16</ele>
  <time>2026-08-27T18:25:37Z</time>
  <course>169.22</course>
  <speed>9.966629319885435</speed>
  <fix>3d</fix>
</trkpt>
<trkpt lat="40.0739418" lon="-105.2318784">
  <ele>1606.09</ele>
  <time>2026-08-27T18:25:37Z</time>
  <course>169.72</course>
  <speed>9.97</speed>
  <fix>3d</fix>
</trkpt>
<trkpt lat="40.0739129" lon="-105.2318718">
  <ele>1606.17</ele>
  <time>2026-08-27T18:25:37Z</time>
  <course>169.15</course>
  <speed>9.978241328009661</speed>
  <fix>3d</fix>
</trkpt>
<trkpt lat="40.0739241" lon="-105.2318742">
  <ele>1606.09</ele>
  <time>2026-08-27T18:25:37Z</time>
  <course>169.7</course>
  <speed>9.99</speed>
  <fix>3d</fix>
</trkpt>
<trkpt lat="40.0738952" lon="-105.2318676">
  <ele>1606.17</ele>
  <time>2026-08-27T18:25:37Z</time>
  <course>169.16</course>
  <speed>9.98808289913535</speed>
  <fix>3d</fix>
</trkpt>
<trkpt lat="40.0739065" lon="-105.2318701">
  <ele>1606.09</ele>
  <time>2026-08-27T18:25:37Z</time>
  <course>169.68</course>
  <speed>10.01</speed>
  <fix>3d</fix>
</trkpt>
<trkpt lat="40.0738775" lon="-105.2318634">
  <ele>1606.17</ele>
  <time>2026-08-27T18:25:37Z</time>
  <course>169.14</course>
  <speed>9.997924784674067</speed>
  <fix>3d</fix>
</trkpt>
<trkpt lat="40.0738888" lon="-105.2318659">
  <ele>1606.09</ele>
  <time>2026-08-27T18:25:37Z</time>
  <course>169.67</course>
  <speed>10.02</speed>
  <fix>3d</fix>
</trkpt>
<trkpt lat="40.0738598" lon="-105.2318592">
  <ele>1606.17</ele>
  <time>2026-08-27T18:25:37Z</time>
  <course>169.16</course>
  <speed>10.017609495283793</speed>
  <fix>3d</fix>
</trkpt>
<trkpt lat="40.0738711" lon="-105.2318617">
  <ele>1606.09</ele>
  <time>2026-08-27T18:25:37Z</time>
  <course>169.66</course>
  <speed>10.03</speed>
  <fix>3d</fix>
</trkpt>
<trkpt lat="40.073842" lon="-105.2318549">
  <ele>1606.17</ele>
  <time>2026-08-27T18:25:37Z</time>
  <course>169.2</course>
  <speed>10.017609495283793</speed>
  <fix>3d</fix>
</trkpt>
<trkpt lat="40.0738532" lon="-105.2318574">
  <ele>1606.09</ele>
  <time>2026-08-27T18:25:37Z</time>
  <course>169.67</course>
  <speed>10.04</speed>
  <fix>3d</fix>
</trkpt>
<trkpt lat="40.0738242" lon="-105.2318507">
  <ele>1606.18</ele>
  <time>2026-08-27T18:25:37Z</time>
  <course>169.25</course>
  <speed>10.017609495283793</speed>
  <fix>3d</fix>
</trkpt>
<trkpt lat="40.0738355" lon="-105.2318531">
  <ele>1606.09</ele>
  <time>2026-08-27T18:25:37Z</time>
  <course>169.68</course>
  <speed>10.04</speed>
  <fix>3d</fix>
</trkpt>
<trkpt lat="40.0738064" lon="-105.2318465">
  <ele>1606.18</ele>
  <time>2026-08-27T18:25:37Z</time>
  <course>169.33</course>
  <speed>10.017609495283793</speed>
  <fix>3d</fix>
</trkpt>
<trkpt lat="40.0738178" lon="-105.231849">
  <ele>1606.1</ele>
  <time>2026-08-27T18:25:37Z</time>
  <course>169.7</course>
  <speed>10.04</speed>
  <fix>3d</fix>
</trkpt>
<trkpt lat="40.0737886" lon="-105.2318423">
  <ele>1606.18</ele>
  <time>2026-08-27T18:25:37Z</time>
  <course>169.42</course>
  <speed>10.015847442927633</speed>
  <fix>3d</fix>
</trkpt>
<trkpt lat="40.0738" lon="-105.2318448">
  <ele>1606.1</ele>
  <time>2026-08-27T18:25:37Z</time>
  <course>169.73</course>
  <speed>10.04</speed>
  <fix>3d</fix>
</trkpt>
<trkpt lat="40.0737709" lon="-105.2318381">
  <ele>1606.18</ele>
  <time>2026-08-27T18:25:37Z</time>
  <course>169.47</course>
  <speed>10.01409506645508</speed>
  <fix>3d</fix>
</trkpt>
<trkpt lat="40.0737822" lon="-105.2318406">
  <ele>1606.1</ele>
  <time>2026-08-27T18:25:37Z</time>
  <course>169.76</course>
  <speed>10.03</speed>
  <fix>3d</fix>
</trkpt>
<trkpt lat="40.0737531" lon="-105.2318339">
  <ele>1606.18</ele>
  <time>2026-08-27T18:25:37Z</time>
  <course>169.52</course>
  <speed>10.00250468632732</speed>
  <fix>3d</fix>
</trkpt>
<trkpt lat="40.0737645" lon="-105.2318364">
  <ele>1606.1</ele>
  <time>2026-08-27T18:25:37Z</time>
  <course>169.81</course>
  <speed>10.03</speed>
  <fix>3d</fix>
</trkpt>
<trkpt lat="40.0737354" lon="-105.2318298">
  <ele>1606.18</ele>
  <time>2026-08-27T18:25:37Z</time>
  <course>169.59</course>
  <speed>10.00250468632732</speed>
  <fix>3d</fix>
</trkpt>
<trkpt lat="40.0737467" lon="-105.2318322">
  <ele>1606.1</ele>
  <time>2026-08-27T18:25:37Z</time>
  <course>169.84</course>
  <speed>10.02</speed>
  <fix>3d</fix>
</trkpt>
<trkpt lat="40.0737176" lon="-105.2318256">
  <ele>1606.19</ele>
  <time>2026-08-27T18:25:37Z</time>
  <course>169.61</course>
  <speed>9.990920878477619</speed>
  <fix>3d</fix>
</trkpt>
<trkpt lat="40.073729" lon="-105.2318281">
  <ele>1606.1</ele>
  <time>2026-08-27T18:25:37Z</time>
  <course>169.88</course>
  <speed>10.01</speed>
  <fix>3d</fix>
</trkpt>
<trkpt lat="40.0736998" lon="-105.2318215">
  <ele>1606.19</ele>
  <time>2026-08-27T18:25:37Z</time>
  <course>169.64</course>
  <speed>9.990920878477619</speed>
  <fix>3d</fix>
</trkpt>
<trkpt lat="40.0737113" lon="-105.231824">
  <ele>1606.1</ele>
  <time>2026-08-27T18:25:37Z</time>
  <course>169.91</course>
  <speed>10.01</speed>
  <fix>3d</fix>
</trkpt>
<trkpt lat="40.0736821" lon="-105.2318174">
  <ele>1606.19</ele>
  <time>2026-08-27T18:25:37Z</time>
  <course>169.7</course>
  <speed>9.979343665792857</speed>
  <fix>3d</fix>
</trkpt>
<trkpt lat="40.0736936" lon="-105.2318199">
  <ele>1606.1</ele>
  <time>2026-08-27T18:25:37Z</time>
  <course>169.93</course>
  <speed>10.0</speed>
  <fix>3d</fix>
</trkpt>
<trkpt lat="40.0736644" lon="-105.2318133">
  <ele>1606.19</ele>
  <time>2026-08-27T18:25:37Z</time>
  <course>169.74</course>
  <speed>9.969493467573967</speed>
  <fix>3d</fix>
</trkpt>
<trkpt lat="40.0736759" lon="-105.2318157">
  <ele>1606.1</ele>
  <time>2026-08-27T18:25:37Z</time>
  <course>169.95</course>
  <speed>9.99</speed>
  <fix>3d</fix>
</trkpt>
<trkpt lat="40.0736467" lon="-105.2318092">
  <ele>1606.19</ele>
  <time>2026-08-27T18:25:37Z</time>
  <course>169.76</course>
  <speed>9.959643567919485</speed>
  <fix>3d</fix>
</trkpt>
<trkpt lat="40.0736582" lon="-105.2318117">
  <ele>1606.1</ele>
  <time>2026-08-27T18:25:37Z</time>
  <course>169.96</course>
  <speed>9.98</speed>
  <fix>3d</fix>
</trkpt>
<trkpt lat="40.073629" lon="-105.2318051">
  <ele>1606.18</ele>
  <time>2026-08-27T18:25:37Z</time>
  <course>169.77</course>
  <speed>9.959643567919485</speed>
  <fix>3d</fix>
</trkpt>
<trkpt lat="40.0736406" lon="-105.2318076">
  <ele>1606.09</ele>
  <time>2026-08-27T18:25:37Z</time>
  <course>169.97</course>
  <speed>9.97</speed>
  <fix>3d</fix>
</trkpt>
<trkpt lat="40.0736113" lon="-105.231801">
  <ele>1606.18</ele>
  <time>2026-08-27T18:25:37Z</time>
  <course>169.75</course>
  <speed>9.948070164609819</speed>
  <fix>3d</fix>
</trkpt>
<trkpt lat="40.073623" lon="-105.2318035">
  <ele>1606.09</ele>
  <time>2026-08-27T18:25:37Z</time>
  <course>169.97</course>
  <speed>9.97</speed>
  <fix>3d</fix>
</trkpt>
<trkpt lat="40.0735937" lon="-105.2317969">
  <ele>1606.17</ele>
  <time>2026-08-27T18:25:37Z</time>
  <course>169.7</course>
  <speed>9.949793967716115</speed>
  <fix>3d</fix>
</trkpt>
<trkpt lat="40.0736053" lon="-105.2317994">
  <ele>1606.09</ele>
  <time>2026-08-27T18:25:37Z</time>
  <course>169.97</course>
  <speed>9.96</speed>
  <fix>3d</fix>
</trkpt>
<trkpt lat="40.073576" lon="-105.2317928">
  <ele>1606.17</ele>
  <time>2026-08-27T18:25:37Z</time>
  <course>169.67</course>
  <speed>9.949793967716115</speed>
  <fix>3d</fix>
</trkpt>
<trkpt lat="40.0735877" lon="-105.2317954">
  <ele>1606.09</ele>
  <time>2026-08-27T18:25:37Z</time>
  <course>169.95</course>
  <speed>9.96</speed>
  <fix>3d</fix>
</trkpt>
<trkpt lat="40.0735584" lon="-105.2317888">
  <ele>1606.17</ele>
  <time>2026-08-27T18:25:37Z</time>
  <course>169.67</course>
  <speed>9.939944667854041</speed>
  <fix>3d</fix>
</trkpt>
<trkpt lat="40.0735701" lon="-105.2317913">
  <ele>1606.09</ele>
  <time>2026-08-27T18:25:38Z</time>
  <course>169.93</course>
  <speed>9.95</speed>
  <fix>3d</fix>
</trkpt>
<trkpt lat="40.0735408" lon="-105.2317847">
  <ele>1606.17</ele>
  <time>2026-08-27T18:25:38Z</time>
  <course>169.61</course>
  <speed>9.941679938521457</speed>
  <fix>3d</fix>
</trkpt>
<trkpt lat="40.0735525" lon="-105.2317872">
  <ele>1606.09</ele>
  <time>2026-08-27T18:25:38Z</time>
  <course>169.91</course>
  <speed>9.95</speed>
  <fix>3d</fix>
</trkpt>
<trkpt lat="40.0735231" lon="-105.2317805">
  <ele>1606.17</ele>
  <time>2026-08-27T18:25:38Z</time>
  <course>169.58</course>
  <speed>9.941679938521457</speed>
  <fix>3d</fix>
</trkpt>
<trkpt lat="40.0735349" lon="-105.2317831">
  <ele>1606.09</ele>
  <time>2026-08-27T18:25:38Z</time>
  <course>169.89</course>
  <speed>9.95</speed>
  <fix>3d</fix>
</trkpt>
<trkpt lat="40.0735056" lon="-105.2317764">
  <ele>1606.17</ele>
  <time>2026-08-27T18:25:38Z</time>
  <course>169.57</course>
  <speed>9.941679938521457</speed>
  <fix>3d</fix>
</trkpt>
<trkpt lat="40.0735172" lon="-105.231779">
  <ele>1606.09</ele>
  <time>2026-08-27T18:25:38Z</time>
  <course>169.87</course>
  <speed>9.95</speed>
  <fix>3d</fix>
</trkpt>
<trkpt lat="40.073488" lon="-105.2317723">
  <ele>1606.16</ele>
  <time>2026-08-27T18:25:38Z</time>
  <course>169.5</course>
  <speed>9.943424963260899</speed>
  <fix>3d</fix>
</trkpt>
<trkpt lat="40.0734996" lon="-105.2317749">
  <ele>1606.08</ele>
  <time>2026-08-27T18:25:38Z</time>
  <course>169.84</course>
  <speed>9.95</speed>
  <fix>3d</fix>
</trkpt>
<trkpt lat="40.0734704" lon="-105.2317682">
  <ele>1606.17</ele>
  <time>2026-08-27T18:25:38Z</time>
  <course>169.45</course>
  <speed>9.95327081918301</speed>
  <fix>3d</fix>
</trkpt>
<trkpt lat="40.073482" lon="-105.2317707">
  <ele>1606.08</ele>
  <time>2026-08-27T18:25:38Z</time>
  <course>169.82</course>
  <speed>9.96</speed>
  <fix>3d</fix>
</trkpt>
<trkpt lat="40.0734528" lon="-105.231764">
  <ele>1606.17</ele>
  <time>2026-08-27T18:25:38Z</time>
  <course>169.42</course>
  <speed>9.955023857329525</speed>
  <fix>3d</fix>
</trkpt>
<trkpt lat="40.0734643" lon="-105.2317666">
  <ele>1606.08</ele>
  <time>2026-08-27T18:25:38Z</time>
  <course>169.79</course>
  <speed>9.96</speed>
  <fix>3d</fix>
</trkpt>
<trkpt lat="40.0734352" lon="-105.2317599">
  <ele>1606.17</ele>
  <time>2026-08-27T18:25:38Z</time>
  <course>169.39</course>
  <speed>9.964868288141094</speed>
  <fix>3d</fix>
</trkpt>
<trkpt lat="40.0734468" lon="-105.2317625">
  <ele>1606.09</ele>
  <time>2026-08-27T18:25:38Z</time>
  <course>169.77</course>
  <speed>9.97</speed>
  <fix>3d</fix>
</trkpt>
<trkpt lat="40.0734176" lon="-105.2317557">
  <ele>1606.17</ele>
  <time>2026-08-27T18:25:38Z</time>
  <course>169.37</course>
  <speed>9.966629319885435</speed>
  <fix>3d</fix>
</trkpt>
<trkpt lat="40.0734291" lon="-105.2317583">
  <ele>1606.09</ele>
  <time>2026-08-27T18:25:38Z</time>
  <course>169.76</course>
  <speed>9.98</speed>
  <fix>3d</fix>
</trkpt>
<trkpt lat="40.0733999" lon="-105.2317516">
  <ele>1606.17</ele>
  <time>2026-08-27T18:25:38Z</time>
  <course>169.35</course>
  <speed>9.976472322419383</speed>
  <fix>3d</fix>
</trkpt>
<trkpt lat="40.0734114" lon="-105.2317542">
  <ele>1606.09</ele>
  <time>2026-08-27T18:25:38Z</time>
  <course>169.74</course>
  <speed>9.99</speed>
  <fix>3d</fix>
</trkpt>
<trkpt lat="40.0733823" lon="-105.2317474">
  <ele>1606.17</ele>
  <time>2026-08-27T18:25:38Z</time>
  <course>169.33</course>
  <speed>9.98631563691034</speed>
  <fix>3d</fix>
</trkpt>
<trkpt lat="40.0733938" lon="-105.23175">
  <ele>1606.09</ele>
  <time>2026-08-27T18:25:38Z</time>
  <course>169.72</course>
  <speed>10.0</speed>
  <fix>3d</fix>
</trkpt>
<trkpt lat="40.0733646" lon="-105.2317432">
  <ele>1606.17</ele>
  <time>2026-08-27T18:25:38Z</time>
  <course>169.32</course>
  <speed>9.996159262436748</speed>
  <fix>3d</fix>
</trkpt>
<trkpt lat="40.0733761" lon="-105.2317458">
  <ele>1606.09</ele>
  <time>2026-08-27T18:25:38Z</time>
  <course>169.72</course>
  <speed>10.01</speed>
  <fix>3d</fix>
</trkpt>
<trkpt lat="40.0733469" lon="-105.231739">
  <ele>1606.17</ele>
  <time>2026-08-27T18:25:38Z</time>
  <course>169.33</course>
  <speed>9.996159262436748</speed>
  <fix>3d</fix>
</trkpt>
<trkpt lat="40.0733584" lon="-105.2317415">
  <ele>1606.09</ele>
  <time>2026-08-27T18:25:38Z</time>
  <course>169.72</course>
  <speed>10.01</speed>
  <fix>3d</fix>
</trkpt>
<trkpt lat="40.0733291" lon="-105.2317348">
  <ele>1606.17</ele>
  <time>2026-08-27T18:25:38Z</time>
  <course>169.34</course>
  <speed>10.00600319808064</speed>
  <fix>3d</fix>
</trkpt>
<trkpt lat="40.0733407" lon="-105.2317373">
  <ele>1606.09</ele>
  <time>2026-08-27T18:25:38Z</time>
  <course>169.72</course>
  <speed>10.02</speed>
  <fix>3d</fix>
</trkpt>
<trkpt lat="40.0733114" lon="-105.2317306">
  <ele>1606.17</ele>
  <time>2026-08-27T18:25:38Z</time>
  <course>169.37</course>
  <speed>10.015847442927633</speed>
  <fix>3d</fix>
</trkpt>
<trkpt lat="40.073323" lon="-105.2317331">
  <ele>1606.09</ele>
  <time>2026-08-27T18:25:38Z</time>
  <course>169.73</course>
  <speed>10.03</speed>
  <fix>3d</fix>
</trkpt>
<trkpt lat="40.0732937" lon="-105.2317264">
  <ele>1606.17</ele>
  <time>2026-08-27T18:25:38Z</time>
  <course>169.39</course>
  <speed>10.015847442927633</speed>
  <fix>3d</fix>
</trkpt>
<trkpt lat="40.0733051" lon="-105.231729">
  <ele>1606.09</ele>
  <time>2026-08-27T18:25:38Z</time>
  <course>169.74</course>
  <speed>10.03</speed>
  <fix>3d</fix>
</trkpt>
<trkpt lat="40.0732758" lon="-105.2317222">
  <ele>1606.17</ele>
  <time>2026-08-27T18:25:38Z</time>
  <course>169.45</course>
  <speed>10.015847442927633</speed>
  <fix>3d</fix>
</trkpt>
<trkpt lat="40.0732874" lon="-105.2317248">
  <ele>1606.09</ele>
  <time>2026-08-27T18:25:38Z</time>
  <course>169.76</course>
  <speed>10.03</speed>
  <fix>3d</fix>
</trkpt>
<trkpt lat="40.0732581" lon="-105.231718">
  <ele>1606.17</ele>
  <time>2026-08-27T18:25:38Z</time>
  <course>169.51</course>
  <speed>10.004249097258624</speed>
  <fix>3d</fix>
</trkpt>
<trkpt lat="40.0732697" lon="-105.2317205">
  <ele>1606.09</ele>
  <time>2026-08-27T18:25:38Z</time>
  <course>169.78</course>
  <speed>10.03</speed>
  <fix>3d</fix>
</trkpt>
<trkpt lat="40.0732404" lon="-105.2317139">
  <ele>1606.18</ele>
  <time>2026-08-27T18:25:38Z</time>
  <course>169.56</course>
  <speed>10.004249097258624</speed>
  <fix>3d</fix>
</trkpt>
<trkpt lat="40.0732519" lon="-105.2317164">
  <ele>1606.1</ele>
  <time>2026-08-27T18:25:38Z</time>
  <course>169.81</course>
  <speed>10.02</speed>
  <fix>3d</fix>
</trkpt>
<trkpt lat="40.0732227" lon="-105.2317097">
  <ele>1606.18</ele>
  <time>2026-08-27T18:25:38Z</time>
  <course>169.59</course>
  <speed>9.99265730424095</speed>
  <fix>3d</fix>
</trkpt>
<trkpt lat="40.0732342" lon="-105.2317123">
  <ele>1606.1</ele>
  <time>2026-08-27T18:25:38Z</time>
  <course>169.84</course>
  <speed>10.02</speed>
  <fix>3d</fix>
</trkpt>
<trkpt lat="40.0732049" lon="-105.2317056">
  <ele>1606.19</ele>
  <time>2026-08-27T18:25:38Z</time>
  <course>169.64</course>
  <speed>9.99265730424095</speed>
  <fix>3d</fix>
</trkpt>
<trkpt lat="40.0732165" lon="-105.2317081">
  <ele>1606.1</ele>
  <time>2026-08-27T18:25:38Z</time>
  <course>169.86</course>
  <speed>10.01</speed>
  <fix>3d</fix>
</trkpt>
<trkpt lat="40.0731872" lon="-105.2317015">
  <ele>1606.19</ele>
  <time>2026-08-27T18:25:38Z</time>
  <course>169.69</course>
  <speed>9.981072086704915</speed>
  <fix>3d</fix>
</trkpt>
<trkpt lat="40.0731988" lon="-105.231704">
  <ele>1606.1</ele>
  <time>2026-08-27T18:25:38Z</time>
  <course>169.89</course>
  <speed>10.0</speed>
  <fix>3d</fix>
</trkpt>
<trkpt lat="40.0731695" lon="-105.2316973">
  <ele>1606.2</ele>
  <time>2026-08-27T18:25:38Z</time>
  <course>169.69</course>
  <speed>9.981072086704915</speed>
  <fix>3d</fix>
</trkpt>
<trkpt lat="40.0731811" lon="-105.2316999">
  <ele>1606.1</ele>
  <time>2026-08-27T18:25:38Z</time>
  <course>169.91</course>
  <speed>10.0</speed>
  <fix>3d</fix>
</trkpt>
<trkpt lat="40.0731518" lon="-105.2316932">
  <ele>1606.2</ele>
  <time>2026-08-27T18:25:38Z</time>
  <course>169.71</course>
  <speed>9.981072086704915</speed>
  <fix>3d</fix>
</trkpt>
<trkpt lat="40.0731634" lon="-105.2316958">
  <ele>1606.1</ele>
  <time>2026-08-27T18:25:38Z</time>
  <course>169.92</course>
  <speed>10.0</speed>
  <fix>3d</fix>
</trkpt>
<trkpt lat="40.0731341" lon="-105.2316891">
  <ele>1606.2</ele>
  <time>2026-08-27T18:25:38Z</time>
  <course>169.74</course>
  <speed>9.971223595928436</speed>
  <fix>3d</fix>
</trkpt>
<trkpt lat="40.0731458" lon="-105.2316917">
  <ele>1606.1</ele>
  <time>2026-08-27T18:25:38Z</time>
  <course>169.93</course>
  <speed>9.99</speed>
  <fix>3d</fix>
</trkpt>
<trkpt lat="40.0731165" lon="-105.231685">
  <ele>1606.19</ele>
  <time>2026-08-27T18:25:38Z</time>
  <course>169.78</course>
  <speed>9.971223595928436</speed>
  <fix>3d</fix>
</trkpt>
<trkpt lat="40.0731281" lon="-105.2316875">
  <ele>1606.09</ele>
  <time>2026-08-27T18:25:38Z</time>
  <course>169.93</course>
  <speed>9.99</speed>
  <fix>3d</fix>
</trkpt>
<trkpt lat="40.0730988" lon="-105.2316809">
  <ele>1606.19</ele>
  <time>2026-08-27T18:25:38Z</time>
  <course>169.76</course>
  <speed>9.971223595928436</speed>
  <fix>3d</fix>
</trkpt>
<trkpt lat="40.0731104" lon="-105.2316834">
  <ele>1606.09</ele>
  <time>2026-08-27T18:25:38Z</time>
  <course>169.93</course>
  <speed>9.98</speed>
  <fix>3d</fix>
</trkpt>
<trkpt lat="40.0730812" lon="-105.2316768">
  <ele>1606.19</ele>
  <time>2026-08-27T18:25:38Z</time>
  <course>169.71</course>
  <speed>9.961375407040936</speed>
  <fix>3d</fix>
</trkpt>
<trkpt lat="40.0730927" lon="-105.2316793">
  <ele>1606.08</ele>
  <time>2026-08-27T18:25:38Z</time>
  <course>169.93</course>
  <speed>9.98</speed>
  <fix>3d</fix>
</trkpt>
<trkpt lat="40.0730636" lon="-105.2316727">
  <ele>1606.18</ele>
  <time>2026-08-27T18:25:38Z</time>
  <course>169.68</course>
  <speed>9.961375407040936</speed>
  <fix>3d</fix>
</trkpt>
<trkpt lat="40.073075" lon="-105.2316753">
  <ele>1606.08</ele>
  <time>2026-08-27T18:25:38Z</time>
  <course>169.92</course>
  <speed>9.98</speed>
  <fix>3d</fix>
</trkpt>
<trkpt lat="40.073046" lon="-105.2316686">
  <ele>1606.18</ele>
  <time>2026-08-27T18:25:38Z</time>
  <course>169.64</course>
  <speed>9.961375407040936</speed>
  <fix>3d</fix>
</trkpt>
<trkpt lat="40.0730574" lon="-105.2316711">
  <ele>1606.07</ele>
  <time>2026-08-27T18:25:38Z</time>
  <course>169.91</course>
  <speed>9.98</speed>
  <fix>3d</fix>
</trkpt>
<trkpt lat="40.0730283" lon="-105.2316645">
  <ele>1606.17</ele>
  <time>2026-08-27T18:25:38Z</time>
  <course>169.6</course>
  <speed>9.961375407040936</speed>
  <fix>3d</fix>
</trkpt>
<trkpt lat="40.0730397" lon="-105.231667">
  <ele>1606.07</ele>
  <time>2026-08-27T18:25:38Z</time>
  <course>169.9</course>
  <speed>9.98</speed>
  <fix>3d</fix>
</trkpt>
<trkpt lat="40.0730107" lon="-105.2316604">
  <ele>1606.17</ele>
  <time>2026-08-27T18:25:38Z</time>
  <course>169.55</course>
  <speed>9.972963451251589</speed>
  <fix>3d</fix>
</trkpt>
<trkpt lat="40.0730221" lon="-105.2316629">
  <ele>1606.07</ele>
  <time>2026-08-27T18:25:38Z</time>
  <course>169.88</course>
  <speed>9.99</speed>
  <fix>3d</fix>
</trkpt>
<trkpt lat="40.0729931" lon="-105.2316563">
  <ele>1606.16</ele>
  <time>2026-08-27T18:25:38Z</time>
  <course>169.52</course>
  <speed>9.972963451251589</speed>
  <fix>3d</fix>
</trkpt>
<trkpt lat="40.0730044" lon="-105.2316588">
  <ele>1606.07</ele>
  <time>2026-08-27T18:25:38Z</time>
  <course>169.86</course>
  <speed>10.0</speed>
  <fix>3d</fix>
</trkpt>
<trkpt lat="40.0729753" lon="-105.2316521">
  <ele>1606.16</ele>
  <time>2026-08-27T18:25:38Z</time>
  <course>169.5</course>
  <speed>9.984558077351245</speed>
  <fix>3d</fix>
</trkpt>
<trkpt lat="40.0729867" lon="-105.2316546">
  <ele>1606.06</ele>
  <time>2026-08-27T18:25:38Z</time>
  <course>169.83</course>
  <speed>10.0</speed>
  <fix>3d</fix>
</trkpt>
<trkpt lat="40.0729576" lon="-105.231648">
  <ele>1606.16</ele>
  <time>2026-08-27T18:25:38Z</time>
  <course>169.47</course>
  <speed>9.984558077351245</speed>
  <fix>3d</fix>
</trkpt>
<trkpt lat="40.072969" lon="-105.2316505">
  <ele>1606.06</ele>
  <time>2026-08-27T18:25:38Z</time>
  <course>169.81</course>
  <speed>10.01</speed>
  <fix>3d</fix>
</trkpt>
<trkpt lat="40.07294" lon="-105.2316438">
  <ele>1606.16</ele>
  <time>2026-08-27T18:25:38Z</time>
  <course>169.46</course>
  <speed>9.984558077351245</speed>
  <fix>3d</fix>
</trkpt>
<trkpt lat="40.0729513" lon="-105.2316463">
  <ele>1606.07</ele>
  <time>2026-08-27T18:25:38Z</time>
  <course>169.8</course>
  <speed>10.01</speed>
  <fix>3d</fix>
</trkpt>
<trkpt lat="40.0729222" lon="-105.2316396">
  <ele>1606.17</ele>
  <time>2026-08-27T18:25:38Z</time>
  <course>169.47</course>
  <speed>9.98631563691034</speed>
  <fix>3d</fix>
</trkpt>
<trkpt lat="40.0729335" lon="-105.2316422">
  <ele>1606.07</ele>
  <time>2026-08-27T18:25:38Z</time>
  <course>169.79</course>
  <speed>10.01</speed>
  <fix>3d</fix>
</trkpt>
<trkpt lat="40.0729044" lon="-105.2316355">
  <ele>1606.17</ele>
  <time>2026-08-27T18:25:38Z</time>
  <course>169.47</course>
  <speed>9.98631563691034</speed>
  <fix>3d</fix>
</trkpt>
<trkpt lat="40.0729158" lon="-105.231638">
  <ele>1606.07</ele>
  <time>2026-08-27T18:25:38Z</time>
  <course>169.78</course>
  <speed>10.01</speed>
  <fix>3d</fix>
</trkpt>
<trkpt lat="40.0728867" lon="-105.2316313">
  <ele>1606.17</ele>
  <time>2026-08-27T18:25:38Z</time>
  <course>169.5</course>
  <speed>9.98631563691034</speed>
  <fix>3d</fix>
</trkpt>
<trkpt lat="40.0728981" lon="-105.2316338">
  <ele>1606.08</ele>
  <time>2026-08-27T18:25:38Z</time>
  <course>169.77</course>
  <speed>10.01</speed>
  <fix>3d</fix>
</trkpt>
<trkpt lat="40.0728691" lon="-105.2316271">
  <ele>1606.17</ele>
  <time>2026-08-27T18:25:38Z</time>
  <course>169.53</course>
  <speed>9.98631563691034</speed>
  <fix>3d</fix>
</trkpt>
<trkpt lat="40.0728804" lon="-105.2316296">
  <ele>1606.08</ele>
  <time>2026-08-27T18:25:38Z</time>
  <course>169.77</course>
  <speed>10.0</speed>
  <fix>3d</fix>
</trkpt>
<trkpt lat="40.0728514" lon="-105.2316229">
  <ele>1606.18</ele>
  <time>2026-08-27T18:25:38Z</time>
  <course>169.53</course>
  <speed>9.9747130284535</speed>
  <fix>3d</fix>
</trkpt>
<trkpt lat="40.0728627" lon="-105.2316255">
  <ele>1606.08</ele>
  <time>2026-08-27T18:25:38Z</time>
  <course>169.77</course>
  <speed>10.0</speed>
  <fix>3d</fix>
</trkpt>
<trkpt lat="40.0728337" lon="-105.2316188">
  <ele>1606.17</ele>
  <time>2026-08-27T18:25:38Z</time>
  <course>169.53</course>
  <speed>9.9747130284535</speed>
  <fix>3d</fix>
</trkpt>
<trkpt lat="40.0728451" lon="-105.2316214">
  <ele>1606.08</ele>
  <time>2026-08-27T18:25:38Z</time>
  <course>169.78</course>
  <speed>9.99</speed>
  <fix>3d</fix>
</trkpt>
<trkpt lat="40.072816" lon="-105.2316146">
  <ele>1606.17</ele>
  <time>2026-08-27T18:25:38Z</time>
  <course>169.54</course>
  <speed>9.9747130284535</speed>
  <fix>3d</fix>
</trkpt>
<trkpt lat="40.0728274" lon="-105.2316172">
  <ele>1606.08</ele>
  <time>2026-08-27T18:25:38Z</time>
  <course>169.79</course>
  <speed>9.99</speed>
  <fix>3d</fix>
</trkpt>
<trkpt lat="40.0727984" lon="-105.2316105">
  <ele>1606.17</ele>
  <time>2026-08-27T18:25:38Z</time>
  <course>169.56</course>
  <speed>9.9747130284535</speed>
  <fix>3d</fix>
</trkpt>
<trkpt lat="40.0728098" lon="-105.2316131">
  <ele>1606.08</ele>
  <time>2026-08-27T18:25:38Z</time>
  <course>169.81</course>
  <speed>9.99</speed>
  <fix>3d</fix>
</trkpt>
<trkpt lat="40.0727806" lon="-105.2316063">
  <ele>1606.17</ele>
  <time>2026-08-27T18:25:38Z</time>
  <course>169.52</course>
  <speed>9.9747130284535</speed>
  <fix>3d</fix>
</trkpt>
<trkpt lat="40.0727921" lon="-105.2316089">
  <ele>1606.08</ele>
  <time>2026-08-27T18:25:38Z</time>
  <course>169.82</course>
  <speed>9.99</speed>
  <fix>3d</fix>
</trkpt>
<trkpt lat="40.072763" lon="-105.2316022">
  <ele>1606.18</ele>
  <time>2026-08-27T18:25:38Z</time>
  <course>169.52</course>
  <speed>9.963116982149714</speed>
  <fix>3d</fix>
</trkpt>
<trkpt lat="40.0727744" lon="-105.2316047">
  <ele>1606.08</ele>
  <time>2026-08-27T18:25:38Z</time>
  <course>169.82</course>
  <speed>9.99</speed>
  <fix>3d</fix>
</trkpt>
<trkpt lat="40.0727454" lon="-105.2315981">
  <ele>1606.19</ele>
  <time>2026-08-27T18:25:38Z</time>
  <course>169.67</course>
  <speed>9.913889246910115</speed>
  <fix>3d</fix>
</trkpt>
<trkpt lat="40.0727567" lon="-105.2316006">
  <ele>1606.09</ele>
  <time>2026-08-27T18:25:38Z</time>
  <course>169.82</course>
  <speed>9.97</speed>
  <fix>3d</fix>
</trkpt>
<trkpt lat="40.0727278" lon="-105.2315939">
  <ele>1606.21</ele>
  <time>2026-08-27T18:25:38Z</time>
  <course>169.97</course>
  <speed>9.811931512194732</speed>
  <fix>3d</fix>
</trkpt>
<trkpt lat="40.0727391" lon="-105.2315965">
  <ele>1606.1</ele>
  <time>2026-08-27T18:25:38Z</time>
  <course>169.81</course>
  <speed>9.91</speed>
  <fix>3d</fix>
</trkpt>
<trkpt lat="40.0727105" lon="-105.2315899">
  <ele>1606.23</ele>
  <time>2026-08-27T18:25:38Z</time>
  <course>170.43</course>
  <speed>9.65899580701845</speed>
  <fix>3d</fix>
</trkpt>
<trkpt lat="40.0727217" lon="-105.2315924">
  <ele>1606.12</ele>
  <time>2026-08-27T18:25:38Z</time>
  <course>169.82</course>
  <speed>9.79</speed>
  <fix>3d</fix>
</trkpt>
<trkpt lat="40.0726936" lon="-105.2315859">
  <ele>1606.26</ele>
  <time>2026-08-27T18:25:38Z</time>
  <course>171.0</course>
  <speed>9.4336472268153</speed>
  <fix>3d</fix>
</trkpt>
<trkpt lat="40.0727045" lon="-105.2315883">
  <ele>1606.15</ele>
  <time>2026-08-27T18:25:38Z</time>
  <course>169.87</course>
  <speed>9.62</speed>
  <fix>3d</fix>
</trkpt>
<trkpt lat="40.0726771" lon="-105.2315821">
  <ele>1606.29</ele>
  <time>2026-08-27T18:25:38Z</time>
  <course>171.59</course>
  <speed>9.167186045892164</speed>
  <fix>3d</fix>
</trkpt>
<trkpt lat="40.0726877" lon="-105.2315845">
  <ele>1606.18</ele>
  <time>2026-08-27T18:25:38Z</time>
  <course>169.96</course>
  <speed>9.39</speed>
  <fix>3d</fix>
</trkpt>
<trkpt lat="40.0726611" lon="-105.2315785">
  <ele>1606.32</ele>
  <time>2026-08-27T18:25:38Z</time>
  <course>172.14</course>
  <speed>8.857928651778586</speed>
  <fix>3d</fix>
</trkpt>
<trkpt lat="40.0726713" lon="-105.2315807">
  <ele>1606.21</ele>
  <time>2026-08-27T18:25:38Z</time>
  <course>170.1</course>
  <speed>9.12</speed>
  <fix>3d</fix>
</trkpt>
<trkpt lat="40.0726457" lon="-105.231575">
  <ele>1606.33</ele>
  <time>2026-08-27T18:25:38Z</time>
  <course>172.65</course>
  <speed>8.509318421589358</speed>
  <fix>3d</fix>
</trkpt>
<trkpt lat="40.0726554" lon="-105.2315771">
  <ele>1606.24</ele>
  <time>2026-08-27T18:25:38Z</time>
  <course>170.28</course>
  <speed>8.8</speed>
  <fix>3d</fix>
</trkpt>
<trkpt lat="40.072631" lon="-105.2315718">
  <ele>1606.34</ele>
  <time>2026-08-27T18:25:38Z</time>
  <course>173.09</course>
  <speed>8.119667480876295</speed>
  <fix>3d</fix>
</trkpt>
<trkpt lat="40.0726401" lon="-105.2315737">
  <ele>1606.25</ele>
  <time>2026-08-27T18:25:38Z</time>
  <course>170.48</course>
  <speed>8.44</speed>
  <fix>3d</fix>
</trkpt>
<trkpt lat="40.0726168" lon="-105.2315687">
  <ele>1606.34</ele>
  <time>2026-08-27T18:25:38Z</time>
  <course>173.47</course>
  <speed>7.680755171205497</speed>
  <fix>3d</fix>
</trkpt>
<trkpt lat="40.0726255" lon="-105.2315706">
  <ele>1606.26</ele>
  <time>2026-08-27T18:25:38Z</time>
  <course>170.67</course>
  <speed>8.03</speed>
  <fix>3d</fix>
</trkpt>
<trkpt lat="40.0726035" lon="-105.2315659">
  <ele>1606.34</ele>
  <time>2026-08-27T18:25:38Z</time>
  <course>173.78</course>
  <speed>7.202402376985057</speed>
  <fix>3d</fix>
</trkpt>
<trkpt lat="40.0726117" lon="-105.2315676">
  <ele>1606.27</ele>
  <time>2026-08-27T18:25:38Z</time>
  <course>170.86</course>
  <speed>7.58</speed>
  <fix>3d</fix>
</trkpt>
<trkpt lat="40.0725912" lon="-105.2315633">
  <ele>1606.33</ele>
  <time>2026-08-27T18:25:38Z</time>
  <course>174.02</course>
  <speed>6.684579268734869</speed>
  <fix>3d</fix>
</trkpt>
<trkpt lat="40.0725987" lon="-105.2315649">
  <ele>1606.26</ele>
  <time>2026-08-27T18:25:38Z</time>
  <course>171.03</course>
  <speed>7.08</speed>
  <fix>3d</fix>
</trkpt>
<trkpt lat="40.0725797" lon="-105.2315609">
  <ele>1606.31</ele>
  <time>2026-08-27T18:25:38Z</time>
  <course>174.16</course>
  <speed>6.1158155629482485</speed>
  <fix>3d</fix>
</trkpt>
<trkpt lat="40.0725865" lon="-105.2315624">
  <ele>1606.25</ele>
  <time>2026-08-27T18:25:38Z</time>
  <course>171.18</course>
  <speed>6.55</speed>
  <fix>3d</fix>
</trkpt>
<trkpt lat="40.0725692" lon="-105.2315588">
  <ele>1606.3</ele>
  <time>2026-08-27T18:25:38Z</time>
  <course>174.18</course>
  <speed>5.548630461654479</speed>
  <fix>3d</fix>
</trkpt>
<trkpt lat="40.0725754" lon="-105.2315602">
  <ele>1606.24</ele>
  <time>2026-08-27T18:25:38Z</time>
  <course>171.3</course>
  <speed>5.98</speed>
  <fix>3d</fix>
</trkpt>
<trkpt lat="40.0725597" lon="-105.2315569">
  <ele>1606.28</ele>
  <time>2026-08-27T18:25:38Z</time>
  <course>174.09</course>
  <speed>4.971569168783635</speed>
  <fix>3d</fix>
</trkpt>
<trkpt lat="40.0725653" lon="-105.2315582">
  <ele>1606.22</ele>
  <time>2026-08-27T18:25:38Z</time>
  <course>171.39</course>
  <speed>5.4</speed>
  <fix>3d</fix>
</trkpt>
<trkpt lat="40.0725513" lon="-105.2315553">
  <ele>1606.24</ele>
  <time>2026-08-27T18:25:38Z</time>
  <course>173.88</course>
  <speed>4.414260980050908</speed>
  <fix>3d</fix>
</trkpt>
<trkpt lat="40.0725562" lon="-105.2315564">
  <ele>1606.19</ele>
  <time>2026-08-27T18:25:38Z</time>
  <course>171.48</course>
  <speed>4.83</speed>
  <fix>3d</fix>
</trkpt>
<trkpt lat="40.0725439" lon="-105.2315538">
  <ele>1606.2</ele>
  <time>2026-08-27T18:25:38Z</time>
  <course>173.56</course>
  <speed>3.8782728114458376</speed>
  <fix>3d</fix>
</trkpt>
<trkpt lat="40.0725482" lon="-105.2315548">
  <ele>1606.16</ele>
  <time>2026-08-27T18:25:38Z</time>
  <course>171.5</course>
  <speed>4.26</speed>
  <fix>3d</fix>
</trkpt>
<trkpt lat="40.0725374" lon="-105.2315525">
  <ele>1606.17</ele>
  <time>2026-08-27T18:25:38Z</time>
  <course>173.1</course>
  <speed>3.3438899503422657</speed>
  <fix>3d</fix>
</trkpt>
<trkpt lat="40.072541" lon="-105.2315534">
  <ele>1606.13</ele>
  <time>2026-08-27T18:25:38Z</time>
  <course>171.41</course>
  <speed>3.72</speed>
  <fix>3d</fix>
</trkpt>
<trkpt lat="40.0725318" lon="-105.2315513">
  <ele>1606.14</ele>
  <time>2026-08-27T18:25:38Z</time>
  <course>172.45</course>
  <speed>2.8211345235560814</speed>
  <fix>3d</fix>
</trkpt>
<trkpt lat="40.0725349" lon="-105.2315522">
  <ele>1606.1</ele>
  <time>2026-08-27T18:25:38Z</time>
  <course>171.14</course>
  <speed>3.18</speed>
  <fix>3d</fix>
</trkpt>
<trkpt lat="40.0725272" lon="-105.2315503">
  <ele>1606.12</ele>
  <time>2026-08-27T18:25:38Z</time>
  <course>171.56</course>
  <speed>2.3201939574095958</speed>
  <fix>3d</fix>
</trkpt>
<trkpt lat="40.0725297" lon="-105.2315511">
  <ele>1606.08</ele>
  <time>2026-08-27T18:25:38Z</time>
  <course>170.62</course>
  <speed>2.66</speed>
  <fix>3d</fix>
</trkpt>
<trkpt lat="40.0725234" lon="-105.2315495">
  <ele>1606.11</ele>
  <time>2026-08-27T18:25:38Z</time>
  <course>170.33</course>
  <speed>1.8494593804677084</speed>
  <fix>3d</fix>
</trkpt>
<trkpt lat="40.0725255" lon="-105.2315501">
  <ele>1606.06</ele>
  <time>2026-08-27T18:25:38Z</time>
  <course>169.76</course>
  <speed>2.16</speed>
  <fix>3d</fix>
</trkpt>
<trkpt lat="40.0725205" lon="-105.2315487">
  <ele>1606.1</ele>
  <time>2026-08-27T18:25:38Z</time>
  <course>168.67</course>
  <speed>1.4189080308462563</speed>
  <fix>3d</fix>
</trkpt>
<trkpt lat="40.0725221" lon="-105.2315493">
  <ele>1606.04</ele>
  <time>2026-08-27T18:25:38Z</time>
  <course>168.46</course>
  <speed>1.69</speed>
  <fix>3d</fix>
</trkpt>
<trkpt lat="40.0725184" lon="-105.231548">
  <ele>1606.09</ele>
  <time>2026-08-27T18:25:38Z</time>
  <course>166.41</course>
  <speed>1.0508092119885513</speed>
  <fix>3d</fix>
</trkpt>
<trkpt lat="40.0725195" lon="-105.2315485">
  <ele>1606.04</ele>
  <time>2026-08-27T18:25:38Z</time>
  <course>166.58</course>
  <speed>1.27</speed>
  <fix>3d</fix>
</trkpt>
<trkpt lat="40.0725168" lon="-105.2315474">
  <ele>1606.09</ele>
  <time>2026-08-27T18:25:38Z</time>
  <course>164.1</course>
  <speed>0.7373601562330311</speed>
  <fix>3d</fix>
</trkpt>
<trkpt lat="40.0725176" lon="-105.2315479">
  <ele>1606.03</ele>
  <time>2026-08-27T18:25:38Z</time>
  <course>163.59</course>
  <speed>0.91</speed>
  <fix>3d</fix>
</trkpt>
<trkpt lat="40.0725158" lon="-105.2315469">
  <ele>1606.09</ele>
  <time>2026-08-27T18:25:38Z</time>
  <course>164.47</course>
  <speed>0.49648766349225637</speed>
  <fix>3d</fix>
</trkpt>
<trkpt lat="40.0725162" lon="-105.2315473">
  <ele>1606.03</ele>
  <time>2026-08-27T18:25:38Z</time>
  <course>157.94</course>
  <speed>0.62</speed>
  <fix>3d</fix>
</trkpt>
<trkpt lat="40.0725152" lon="-105.2315464">
  <ele>1606.08</ele>
  <time>2026-08-27T18:25:38Z</time>
  <course>164.38</course>
  <speed>0.32015621187164245</speed>
  <fix>3d</fix>
</trkpt>
<trkpt lat="40.0725154" lon="-105.2315468">
  <ele>1606.03</ele>
  <time>2026-08-27T18:25:38Z</time>
  <course>147.78</course>
  <speed>0.39</speed>
  <fix>3d</fix>
</trkpt>
<trkpt lat="40.0725149" lon="-105.231546">
  <ele>1606.09</ele>
  <time>2026-08-27T18:25:38Z</time>
  <course>164.35</course>
  <speed>0.1972308292331602</speed>
  <fix>3d</fix>
</trkpt>
<trkpt lat="40.072515" lon="-105.2315464">
  <ele>1606.04</ele>
  <time>2026-08-27T18:25:38Z</time>
  <course>128.92</course>
  <speed>0.24</speed>
  <fix>3d</fix>
</trkpt>
<trkpt lat="40.0725149" lon="-105.2315457">
  <ele>1606.1</ele>
  <time>2026-08-27T18:25:38Z</time>
  <course>164.32</course>
  <speed>0.16031219541881397</speed>
  <fix>3d</fix>
</trkpt>
<trkpt lat="40.0725149" lon="-105.231546">
  <ele>1606.05</ele>
  <time>2026-08-27T18:25:38Z</time>
  <course>96.27</course>
  <speed>0.17</speed>
  <fix>3d</fix>
</trkpt>
<trkpt lat="40.0725149" lon="-105.2315453">
  <ele>1606.11</ele>
  <time>2026-08-27T18:25:38Z</time>
  <course>164.27</course>
  <speed>0.14560219778561037</speed>
  <fix>3d</fix>
</trkpt>
<trkpt lat="40.0725149" lon="-105.2315456">
  <ele>1606.06</ele>
  <time>2026-08-27T18:25:38Z</time>
  <course>67.22</course>
  <speed>0.17</speed>
  <fix>3d</fix>
</trkpt>
<trkpt lat="40.0725151" lon="-105.231545">
  <ele>1606.13</ele>
  <time>2026-08-27T18:25:38Z</time>
  <course>164.25</course>
  <speed>0.14317821063276354</speed>
  <fix>3d</fix>
</trkpt>
<trkpt lat="40.072515" lon="-105.2315452">
  <ele>1606.08</ele>
  <time>2026-08-27T18:25:38Z</time>
  <course>54.23</course>
  <speed>0.19</speed>
  <fix>3d</fix>
</trkpt>
<trkpt lat="40.0725152" lon="-105.2315447">
  <ele>1606.15</ele>
  <time>2026-08-27T18:25:38Z</time>
  <course>164.26</course>
  <speed>0.13601470508735444</speed>
  <fix>3d</fix>
</trkpt>
<trkpt lat="40.0725153" lon="-105.2315448">
  <ele>1606.09</ele>
  <time>2026-08-27T18:25:38Z</time>
  <course>52.38</course>
  <speed>0.19</speed>
  <fix>3d</fix>
</trkpt>
<trkpt lat="40.0725153" lon="-105.2315443">
  <ele>1606.16</ele>
  <time>2026-08-27T18:25:39Z</time>
  <course>164.24</course>
  <speed>0.13</speed>
  <fix>3d</fix>
</trkpt>
<trkpt lat="40.0725154" lon="-105.2315445">
  <ele>1606.1</ele>
  <time>2026-08-27T18:25:39Z</time>
  <course>59.14</course>
  <speed>0.18</speed>
  <fix>3d</fix>
</trkpt>
<trkpt lat="40.0725153" lon="-105.231544">
  <ele>1606.17</ele>
  <time>2026-08-27T18:25:39Z</time>
  <course>164.2</course>
  <speed>0.1392838827718412</speed>
  <fix>3d</fix>
</trkpt>
<trkpt lat="40.0725155" lon="-105.231544">
  <ele>1606.11</ele>
  <time>2026-08-27T18:25:39Z</time>
  <course>75.5</course>
  <speed>0.16</speed>
  <fix>3d</fix>
</trkpt>
<trkpt lat="40.0725152" lon="-105.2315436">
  <ele>1606.18</ele>
  <time>2026-08-27T18:25:39Z</time>
  <course>164.18</course>
  <speed>0.18384776310850234</speed>
  <fix>3d</fix>
</trkpt>
<trkpt lat="40.0725155" lon="-105.2315437">
  <ele>1606.12</ele>
  <time>2026-08-27T18:25:39Z</time>
  <course>100.2</course>
  <speed>0.16</speed>
  <fix>3d</fix>
</trkpt>
<trkpt lat="40.0725151" lon="-105.2315433">
  <ele>1606.18</ele>
  <time>2026-08-27T18:25:39Z</time>
  <course>164.13</course>
  <speed>0.23853720883753127</speed>
  <fix>3d</fix>
</trkpt>
<trkpt lat="40.0725155" lon="-105.2315433">
  <ele>1606.12</ele>
  <time>2026-08-27T18:25:39Z</time>
  <course>123.08</course>
  <speed>0.2</speed>
  <fix>3d</fix>
</trkpt>
<trkpt lat="40.0725147" lon="-105.2315429">
  <ele>1606.19</ele>
  <time>2026-08-27T18:25:39Z</time>
  <course>164.12</course>
  <speed>0.29966648127543394</speed>
  <fix>3d</fix>
</trkpt>
<trkpt lat="40.0725153" lon="-105.2315429">
  <ele>1606.12</ele>
  <time>2026-08-27T18:25:39Z</time>
  <course>137.63</course>
  <speed>0.25</speed>
  <fix>3d</fix>
</trkpt>
<trkpt lat="40.0725143" lon="-105.2315425">
  <ele>1606.19</ele>
  <time>2026-08-27T18:25:39Z</time>
  <course>164.13</course>
  <speed>0.33241540277189324</speed>
  <fix>3d</fix>
</trkpt>
<trkpt lat="40.0725149" lon="-105.2315425">
  <ele>1606.12</ele>
  <time>2026-08-27T18:25:39Z</time>
  <course>145.78</course>
  <speed>0.3</speed>
  <fix>3d</fix>
</trkpt>
<trkpt lat="40.0725138" lon="-105.2315422">
  <ele>1606.19</ele>
  <time>2026-08-27T18:25:39Z</time>
  <course>164.13</course>
  <speed>0.3478505426185217</speed>
  <fix>3d</fix>
</trkpt>
<trkpt lat="40.0725144" lon="-105.2315421">
  <ele>1606.12</ele>
  <time>2026-08-27T18:25:39Z</time>
  <course>150.67</course>
  <speed>0.34</speed>
  <fix>3d</fix>
</trkpt>
<trkpt lat="40.0725133" lon="-105.2315418">
  <ele>1606.19</ele>
  <time>2026-08-27T18:25:39Z</time>
  <course>164.17</course>
  <speed>0.3420526275297414</speed>
  <fix>3d</fix>
</trkpt>
<trkpt lat="40.0725138" lon="-105.2315417">
  <ele>1606.12</ele>
  <time>2026-08-27T18:25:39Z</time>
  <course>154.16</course>
  <speed>0.35</speed>
  <fix>3d</fix>
</trkpt>
<trkpt lat="40.0725127" lon="-105.2315415">
  <ele>1606.19</ele>
  <time>2026-08-27T18:25:39Z</time>
  <course>164.17</course>
  <speed>0.327566787083184</speed>
  <fix>3d</fix>
</trkpt>
<trkpt lat="40.0725133" lon="-105.2315414">
  <ele>1606.11</ele>
  <time>2026-08-27T18:25:39Z</time>
  <course>157.31</course>
  <speed>0.35</speed>
  <fix>3d</fix>
</trkpt>
<trkpt lat="40.0725122" lon="-105.2315413">
  <ele>1606.19</ele>
  <time>2026-08-27T18:25:39Z</time>
  <course>164.18</course>
  <speed>0.29274562336608895</speed>
  <fix>3d</fix>
</trkpt>
<trkpt lat="40.0725127" lon="-105.2315411">
  <ele>1606.11</ele>
  <time>2026-08-27T18:25:39Z</time>
  <course>160.63</course>
  <speed>0.33</speed>
  <fix>3d</fix>
</trkpt>
<trkpt lat="40.0725117" lon="-105.2315411">
  <ele>1606.18</ele>
  <time>2026-08-27T18:25:39Z</time>
  <course>164.17</course>
  <speed>0.2501999200639361</speed>
  <fix>3d</fix>
</trkpt>
<trkpt lat="40.0725121" lon="-105.2315409">
  <ele>1606.11</ele>
  <time>2026-08-27T18:25:39Z</time>
  <course>164.41</course>
  <speed>0.3</speed>
  <fix>3d</fix>
</trkpt>
<trkpt lat="40.0725113" lon="-105.231541">
  <ele>1606.18</ele>
  <time>2026-08-27T18:25:39Z</time>
  <course>164.22</course>
  <speed>0.2102379604162864</speed>
  <fix>3d</fix>
</trkpt>
<trkpt lat="40.0725116" lon="-105.2315407">
  <ele>1606.1</ele>
  <time>2026-08-27T18:25:39Z</time>
  <course>169.13</course>
  <speed>0.26</speed>
  <fix>3d</fix>
</trkpt>
<trkpt lat="40.072511" lon="-105.231541">
  <ele>1606.16</ele>
  <time>2026-08-27T18:25:39Z</time>
  <course>164.32</course>
  <speed>0.1649242250247064</speed>
  <fix>3d</fix>
</trkpt>
<trkpt lat="40.0725111" lon="-105.2315407">
  <ele>1606.09</ele>
  <time>2026-08-27T18:25:39Z</time>
  <course>175.43</course>
  <speed>0.21</speed>
  <fix>3d</fix>
</trkpt>
<trkpt lat="40.0725107" lon="-105.2315409">
  <ele>1606.14</ele>
  <time>2026-08-27T18:25:39Z</time>
  <course>164.46</course>
  <speed>0.130384048104053</speed>
  <fix>3d</fix>
</trkpt>
<trkpt lat="40.0725108" lon="-105.2315407">
  <ele>1606.08</ele>
  <time>2026-08-27T18:25:39Z</time>
  <course>184.67</course>
  <speed>0.16</speed>
  <fix>3d</fix>
</trkpt>
<trkpt lat="40.0725105" lon="-105.2315411">
  <ele>1606.1</ele>
  <time>2026-08-27T18:25:39Z</time>
  <course>164.61</course>
  <speed>0.10816653826391968</speed>
  <fix>3d</fix>
</trkpt>
<trkpt lat="40.0725106" lon="-105.2315407">
  <ele>1606.05</ele>
  <time>2026-08-27T18:25:39Z</time>
  <course>199.79</course>
  <speed>0.12</speed>
  <fix>3d</fix>
</trkpt>
<trkpt lat="40.0725105" lon="-105.2315412">
  <ele>1606.05</ele>
  <time>2026-08-27T18:25:39Z</time>
  <course>164.79</course>
  <speed>0.11045361017187261</speed>
  <fix>3d</fix>
</trkpt>
<trkpt lat="40.0725104" lon="-105.2315408">
  <ele>1606.01</ele>
  <time>2026-08-27T18:25:39Z</time>
  <course>225.21</course>
  <speed>0.09</speed>
  <fix>3d</fix>
</trkpt>
<trkpt lat="40.0725105" lon="-105.2315414">
  <ele>1605.96</ele>
  <time>2026-08-27T18:25:39Z</time>
  <course>164.98</course>
  <speed>0.13341664064126335</speed>
  <fix>3d</fix>
</trkpt>
<trkpt lat="40.0725104" lon="-105.2315409">
  <ele>1605.94</ele>
  <time>2026-08-27T18:25:39Z</time>
  <course>258.04</course>
  <speed>0.09</speed>
  <fix>3d</fix>
</trkpt>
<trkpt lat="40.0725105" lon="-105.2315417">
  <ele>1605.85</ele>
  <time>2026-08-27T18:25:39Z</time>
  <course>165.16</course>
  <speed>0.17</speed>
  <fix>3d</fix>
</trkpt>
<trkpt lat="40.0725104" lon="-105.2315412">
  <ele>1605.85</ele>
  <time>2026-08-27T18:25:39Z</time>
  <course>283.14</course>
  <speed>0.11</speed>
  <fix>3d</fix>
</trkpt>
<trkpt lat="40.0725106" lon="-105.231542">
  <ele>1605.71</ele>
  <time>2026-08-27T18:25:39Z</time>
  <course>165.33</course>
  <speed>0.194164878389476</speed>
  <fix>3d</fix>
</trkpt>
<trkpt lat="40.0725104" lon="-105.2315414">
  <ele>1605.73</ele>
  <time>2026-08-27T18:25:39Z</time>
  <course>297.54</course>
  <speed>0.14</speed>
  <fix>3d</fix>
</trkpt>
<trkpt lat="40.0725108" lon="-105.2315423">
  <ele>1605.53</ele>
  <time>2026-08-27T18:25:39Z</time>
  <course>165.47</course>
  <speed>0.22022715545545238</speed>
  <fix>3d</fix>
</trkpt>
<trkpt lat="40.0725105" lon="-105.2315418">
  <ele>1605.58</ele>
  <time>2026-08-27T18:25:39Z</time>
  <course>305.85</course>
  <speed>0.17</speed>
  <fix>3d</fix>
</trkpt>
<trkpt lat="40.072511" lon="-105.2315426">
  <ele>1605.32</ele>
  <time>2026-08-27T18:25:39Z</time>
  <course>165.58</course>
  <speed>0.24758836806279894</speed>
  <fix>3d</fix>
</trkpt>
<trkpt lat="40.0725107" lon="-105.2315421">
  <ele>1605.4</ele>
  <time>2026-08-27T18:25:39Z</time>
  <course>311.07</course>
  <speed>0.2</speed>
  <fix>3d</fix>
</trkpt>
<trkpt lat="40.0725113" lon="-105.231543">
  <ele>1605.09</ele>
  <time>2026-08-27T18:25:39Z</time>
  <course>165.63</course>
  <speed>0.261725046566048</speed>
  <fix>3d</fix>
</trkpt>
<trkpt lat="40.072511" lon="-105.2315424">
  <ele>1605.18</ele>
  <time>2026-08-27T18:25:39Z</time>
  <course>314.69</course>
  <speed>0.22</speed>
  <fix>3d</fix>
</trkpt>
<trkpt lat="40.0725116" lon="-105.2315433">
  <ele>1604.84</ele>
  <time>2026-08-27T18:25:39Z</time>
  <course>165.62</course>
  <speed>0.2690724809414742</speed>
  <fix>3d</fix>
</trkpt>
<trkpt lat="40.0725113" lon="-105.2315428">
  <ele>1604.95</ele>
  <time>2026-08-27T18:25:39Z</time>
  <course>317.43</course>
  <speed>0.23</speed>
  <fix>3d</fix>
</trkpt>
<trkpt lat="40.072512" lon="-105.2315437">
  <ele>1604.57</ele>
  <time>2026-08-27T18:25:39Z</time>
  <course>165.63</course>
  <speed>0.27018512172212594</speed>
  <fix>3d</fix>
</trkpt>
<trkpt lat="40.0725116" lon="-105.2315433">
  <ele>1604.69</ele>
  <time>2026-08-27T18:25:39Z</time>
  <course>319.76</course>
  <speed>0.24</speed>
  <fix>3d</fix>
</trkpt>
<trkpt lat="40.0725123" lon="-105.231544">
  <ele>1604.3</ele>
  <time>2026-08-27T18:25:39Z</time>
  <course>165.57</course>
  <speed>0.2640075756488817</speed>
  <fix>3d</fix>
</trkpt>
<trkpt lat="40.0725119" lon="-105.2315436">
  <ele>1604.42</ele>
  <time>2026-08-27T18:25:39Z</time>
  <course>321.91</course>
  <speed>0.24</speed>
  <fix>3d</fix>
</trkpt>
<trkpt lat="40.0725126" lon="-105.2315443">
  <ele>1604.02</ele>
  <time>2026-08-27T18:25:39Z</time>
  <course>165.49</course>
  <speed>0.24413111231467405</speed>
  <fix>3d</fix>
</trkpt>
<trkpt lat="40.0725123" lon="-105.2315439">
  <ele>1604.15</ele>
  <time>2026-08-27T18:25:39Z</time>
  <course>323.97</course>
  <speed>0.23</speed>
  <fix>3d</fix>
</trkpt>
<trkpt lat="40.072513" lon="-105.2315446">
  <ele>1603.74</ele>
  <time>2026-08-27T18:25:39Z</time>
  <course>165.37</course>
  <speed>0.23021728866442676</speed>
  <fix>3d</fix>
</trkpt>
<trkpt lat="40.0725126" lon="-105.2315442">
  <ele>1603.88</ele>
  <time>2026-08-27T18:25:39Z</time>
  <course>326.14</course>
  <speed>0.22</speed>
  <fix>3d</fix>
</trkpt>
<trkpt lat="40.0725133" lon="-105.2315448">
  <ele>1603.46</ele>
  <time>2026-08-27T18:25:39Z</time>
  <course>165.31</course>
  <speed>0.20591260281974003</speed>
  <fix>3d</fix>
</trkpt>
<trkpt lat="40.0725129" lon="-105.2315445">
  <ele>1603.6</ele>
  <time>2026-08-27T18:25:39Z</time>
  <course>328.8</course>
  <speed>0.2</speed>
  <fix>3d</fix>
</trkpt>
<trkpt lat="40.0725135" lon="-105.231545">
  <ele>1603.19</ele>
  <time>2026-08-27T18:25:39Z</time>
  <course>165.26</course>
  <speed>0.17888543819998318</speed>
  <fix>3d</fix>
</trkpt>
<trkpt lat="40.0725132" lon="-105.2315448">
  <ele>1603.32</ele>
  <time>2026-08-27T18:25:39Z</time>
  <course>332.17</course>
  <speed>0.18</speed>
  <fix>3d</fix>
</trkpt>
<trkpt lat="40.0725138" lon="-105.2315451">
  <ele>1602.91</ele>
  <time>2026-08-27T18:25:39Z</time>
  <course>165.22</course>
  <speed>0.15231546211727817</speed>
  <fix>3d</fix>
</trkpt>
<trkpt lat="40.0725135" lon="-105.2315449">
  <ele>1603.05</ele>
  <time>2026-08-27T18:25:39Z</time>
  <course>336.36</course>
  <speed>0.15</speed>
  <fix>3d</fix>
</trkpt>
<trkpt lat="40.072514" lon="-105.2315452">
  <ele>1602.65</ele>
  <time>2026-08-27T18:25:39Z</time>
  <course>165.19</course>
  <speed>0.1264911064067352</speed>
  <fix>3d</fix>
</trkpt>
<trkpt lat="40.0725137" lon="-105.231545">
  <ele>1602.78</ele>
  <time>2026-08-27T18:25:39Z</time>
  <course>341.85</course>
  <speed>0.12</speed>
  <fix>3d</fix>
</trkpt>
<trkpt lat="40.0725141" lon="-105.2315453">
  <ele>1602.38</ele>
  <time>2026-08-27T18:25:39Z</time>
  <course>165.16</course>
  <speed>0.1019803902718557</speed>
  <fix>3d</fix>
</trkpt>
<trkpt lat="40.072514" lon="-105.2315451">
  <ele>1602.51</ele>
  <time>2026-08-27T18:25:39Z</time>
  <course>349.64</course>
  <speed>0.1</speed>
  <fix>3d</fix>
</trkpt>
<trkpt lat="40.0725143" lon="-105.2315452">
  <ele>1602.11</ele>
  <time>2026-08-27T18:25:39Z</time>
  <course>165.15</course>
  <speed>0.07</speed>
  <fix>3d</fix>
</trkpt>
<trkpt lat="40.0725141" lon="-105.2315452">
  <ele>1602.24</ele>
  <time>2026-08-27T18:25:39Z</time>
  <course>1.57</course>
  <speed>0.07</speed>
  <fix>3d</fix>
</trkpt>
<trkpt lat="40.0725144" lon="-105.2315452">
  <ele>1601.83</ele>
  <time>2026-08-27T18:25:39Z</time>
  <course>165.15</course>
  <speed>0.05</speed>
  <fix>3d</fix>
</trkpt>
<trkpt lat="40.0725142" lon="-105.2315451">
  <ele>1601.97</ele>
  <time>2026-08-27T18:25:39Z</time>
  <course>20.18</course>
  <speed>0.05</speed>
  <fix>3d</fix>
</trkpt>
<trkpt lat="40.0725144" lon="-105.2315452">
  <ele>1601.56</ele>
  <time>2026-08-27T18:25:39Z</time>
  <course>165.12</course>
  <speed>0.03605551275463989</speed>
  <fix>3d</fix>
</trkpt>
<trkpt lat="40.0725143" lon="-105.231545">
  <ele>1601.7</ele>
  <time>2026-08-27T18:25:39Z</time>
  <course>46.62</course>
  <speed>0.04</speed>
  <fix>3d</fix>
</trkpt>
<trkpt lat="40.0725144" lon="-105.2315451">
  <ele>1601.28</ele>
  <time>2026-08-27T18:25:39Z</time>
  <course>165.06</course>
  <speed>0.0316227766016838</speed>
  <fix>3d</fix>
</trkpt>
<trkpt lat="40.0725143" lon="-105.231545">
  <ele>1601.43</ele>
  <time>2026-08-27T18:25:39Z</time>
  <course>73.94</course>
  <speed>0.05</speed>
  <fix>3d</fix>
</trkpt>
<trkpt lat="40.0725144" lon="-105.231545">
  <ele>1601.0</ele>
  <time>2026-08-27T18:25:39Z</time>
  <course>165.07</course>
  <speed>0.04</speed>
  <fix>3d</fix>
</trkpt>
<trkpt lat="40.0725143" lon="-105.2315449">
  <ele>1601.16</ele>
  <time>2026-08-27T18:25:39Z</time>
  <course>93.6</course>
  <speed>0.06</speed>
  <fix>3d</fix>
</trkpt>
<trkpt lat="40.0725144" lon="-105.2315448">
  <ele>1600.73</ele>
  <time>2026-08-27T18:25:39Z</time>
  <course>165.05</course>
  <speed>0.0412310562561766</speed>
  <fix>3d</fix>
</trkpt>
<trkpt lat="40.0725143" lon="-105.2315448">
  <ele>1600.88</ele>
  <time>2026-08-27T18:25:39Z</time>
  <course>105.97</course>
  <speed>0.07</speed>
  <fix>3d</fix>
</trkpt>
<trkpt lat="40.0725143" lon="-105.2315446">
  <ele>1600.45</ele>
  <time>2026-08-27T18:25:39Z</time>
  <course>165.03</course>
  <speed>0.053851648071345036</speed>
  <fix>3d</fix>
</trkpt>
<trkpt lat="40.0725143" lon="-105.2315446">
  <ele>1600.61</ele>
  <time>2026-08-27T18:25:39Z</time>
  <course>114.07</course>
  <speed>0.08</speed>
  <fix>3d</fix>
</trkpt>
<trkpt lat="40.0725143" lon="-105.2315445">
  <ele>1600.16</ele>
  <time>2026-08-27T18:25:39Z</time>
  <course>165.01</course>
  <speed>0.05830951894845301</speed>
  <fix>3d</fix>
</trkpt>
<trkpt lat="40.0725143" lon="-105.2315444">
  <ele>1600.33</ele>
  <time>2026-08-27T18:25:39Z</time>
  <course>119.73</course>
  <speed>0.08</speed>
  <fix>3d</fix>
</trkpt>
<trkpt lat="40.0725142" lon="-105.2315443">
  <ele>1599.88</ele>
  <time>2026-08-27T18:25:39Z</time>
  <course>164.98</course>
  <speed>0.05830951894845301</speed>
  <fix>3d</fix>
</trkpt>
<trkpt lat="40.0725142" lon="-105.2315443">
  <ele>1600.05</ele>
  <time>2026-08-27T18:25:39Z</time>
  <course>123.9</course>
  <speed>0.09</speed>
  <fix>3d</fix>
</trkpt>
<trkpt lat="40.0725142" lon="-105.2315442">
  <ele>1599.59</ele>
  <time>2026-08-27T18:25:39Z</time>
  <course>164.95</course>
  <speed>0.05</speed>
  <fix>3d</fix>
</trkpt>
<trkpt lat="40.0725141" lon="-105.2315441">
  <ele>1599.76</ele>
  <time>2026-08-27T18:25:39Z</time>
  <course>127.12</course>
  <speed>0.09</speed>
  <fix>3d</fix>
</trkpt>
<trkpt lat="40.0725141" lon="-105.231544">
  <ele>1599.31</ele>
  <time>2026-08-27T18:25:39Z</time>
  <course>164.94</course>
  <speed>0.05</speed>
  <fix>3d</fix>
</trkpt>
<trkpt lat="40.072514" lon="-105.2315438">
  <ele>1599.48</ele>
  <time>2026-08-27T18:25:39Z</time>
  <course>129.66</course>
  <speed>0.09</speed>
  <fix>3d</fix>
</trkpt>
<trkpt lat="40.072514" lon="-105.2315439">
  <ele>1599.02</ele>
  <time>2026-08-27T18:25:39Z</time>
  <course>164.93</course>
  <speed>0.04242640687119285</speed>
  <fix>3d</fix>
</trkpt>
<trkpt lat="40.0725139" lon="-105.2315437">
  <ele>1599.2</ele>
  <time>2026-08-27T18:25:39Z</time>
  <course>131.64</course>
  <speed>0.08</speed>
  <fix>3d</fix>
</trkpt>
<trkpt lat="40.0725139" lon="-105.2315437">
  <ele>1598.74</ele>
  <time>2026-08-27T18:25:39Z</time>
  <course>164.9</course>
  <speed>0.03605551275463989</speed>
  <fix>3d</fix>
</trkpt>
<trkpt lat="40.0725138" lon="-105.2315436">
  <ele>1598.91</ele>
  <time>2026-08-27T18:25:39Z</time>
  <course>133.59</course>
  <speed>0.07</speed>
  <fix>3d</fix>
</trkpt>
<trkpt lat="40.0725138" lon="-105.2315436">
  <ele>1598.45</ele>
  <time>2026-08-27T18:25:39Z</time>
  <course>164.87</course>
  <speed>0.022360679774997897</speed>
  <fix>3d</fix>
</trkpt>
<trkpt lat="40.0725137" lon="-105.2315434">
  <ele>1598.62</ele>
  <time>2026-08-27T18:25:39Z</time>
  <course>136.08</course>
  <speed>0.07</speed>
  <fix>3d</fix>
</trkpt>
<trkpt lat="40.0725137" lon="-105.2315435">
  <ele>1598.17</ele>
  <time>2026-08-27T18:25:39Z</time>
  <course>164.89</course>
  <speed>0.02</speed>
  <fix>3d</fix>
</trkpt>
<trkpt lat="40.0725136" lon="-105.2315433">
  <ele>1598.33</ele>
  <time>2026-08-27T18:25:39Z</time>
  <course>138.93</course>
  <speed>0.06</speed>
  <fix>3d</fix>
</trkpt>
<trkpt lat="40.0725137" lon="-105.2315435">
  <ele>1597.88</ele>
  <time>2026-08-27T18:25:39Z</time>
  <course>164.87</course>
  <speed>0.01</speed>
  <fix>3d</fix>
</trkpt>
<trkpt lat="40.0725136" lon="-105.2315433">
  <ele>1598.04</ele>
  <time>2026-08-27T18:25:39Z</time>
  <course>142.32</course>
  <speed>0.04</speed>
  <fix>3d</fix>
</trkpt>
<trkpt lat="40.0725136" lon="-105.2315434">
  <ele>1597.58</ele>
  <time>2026-08-27T18:25:39Z</time>
  <course>164.85</course>
  <speed>0.0</speed>
  <fix>3d</fix>
</trkpt>
<trkpt lat="40.0725135" lon="-105.2315432">
  <ele>1597.75</ele>
  <time>2026-08-27T18:25:39Z</time>
  <course>147.22</course>
  <speed>0.03</speed>
  <fix>3d</fix>
</trkpt>
<trkpt lat="40.0725136" lon="-105.2315434">
  <ele>1597.29</ele>
  <time>2026-08-27T18:25:39Z</time>
  <course>164.81</course>
  <speed>0.01</speed>
  <fix>3d</fix>
</trkpt>
<trkpt lat="40.0725135" lon="-105.2315431">
  <ele>1597.46</ele>
  <time>2026-08-27T18:25:39Z</time>
  <course>156.15</course>
  <speed>0.02</speed>
  <fix>3d</fix>
</trkpt>
<trkpt lat="40.0725136" lon="-105.2315434">
  <ele>1596.99</ele>
  <time>2026-08-27T18:25:39Z</time>
  <course>164.78</course>
  <speed>0.02</speed>
  <fix>3d</fix>
</trkpt>
<trkpt lat="40.0725134" lon="-105.2315431">
  <ele>1597.16</ele>
  <time>2026-08-27T18:25:40Z</time>
  <course>174.33</course>
  <speed>0.01</speed>
  <fix>3d</fix>
</trkpt>
<trkpt lat="40.0725135" lon="-105.2315434">
  <ele>1596.7</ele>
  <time>2026-08-27T18:25:40Z</time>
  <course>164.78</course>
  <speed>0.0316227766016838</speed>
  <fix>3d</fix>
</trkpt>
<trkpt lat="40.0725134" lon="-105.2315431">
  <ele>1596.87</ele>
  <time>2026-08-27T18:25:40Z</time>
  <course>216.36</course>
  <speed>0.0</speed>
  <fix>3d</fix>
</trkpt>
<trkpt lat="40.0725136" lon="-105.2315434">
  <ele>1596.39</ele>
  <time>2026-08-27T18:25:40Z</time>
  <course>164.72</course>
  <speed>0.03605551275463989</speed>
  <fix>3d</fix>
</trkpt>
<trkpt lat="40.0725134" lon="-105.2315431">
  <ele>1596.58</ele>
  <time>2026-08-27T18:25:40Z</time>
  <course>266.86</course>
  <speed>0.01</speed>
  <fix>3d</fix>
</trkpt>
<trkpt lat="40.0725136" lon="-105.2315434">
  <ele>1596.1</ele>
  <time>2026-08-27T18:25:40Z</time>
  <course>164.68</course>
  <speed>0.03605551275463989</speed>
  <fix>3d</fix>
</trkpt>
<trkpt lat="40.0725134" lon="-105.2315431">
  <ele>1596.29</ele>
  <time>2026-08-27T18:25:40Z</time>
  <course>288.47</course>
  <speed>0.01</speed>
  <fix>3d</fix>
</trkpt>
<trkpt lat="40.0725135" lon="-105.2315434">
  <ele>1595.81</ele>
  <time>2026-08-27T18:25:40Z</time>
  <course>164.64</course>
  <speed>0.05</speed>
  <fix>3d</fix>
</trkpt>
<trkpt lat="40.0725134" lon="-105.2315431">
  <ele>1595.99</ele>
  <time>2026-08-27T18:25:40Z</time>
  <course>297.97</course>
  <speed>0.02</speed>
  <fix>3d</fix>
</trkpt>
<trkpt lat="40.0725135" lon="-105.2315434">
  <ele>1595.51</ele>
  <time>2026-08-27T18:25:40Z</time>
  <course>164.64</course>
  <speed>0.05</speed>
  <fix>3d</fix>
</trkpt>
<trkpt lat="40.0725134" lon="-105.2315432">
  <ele>1595.7</ele>
  <time>2026-08-27T18:25:40Z</time>
  <course>303.29</course>
  <speed>0.02</speed>
  <fix>3d</fix>
</trkpt>
<trkpt lat="40.0725136" lon="-105.2315435">
  <ele>1595.21</ele>
  <time>2026-08-27T18:25:40Z</time>
  <course>164.61</course>
  <speed>0.05</speed>
  <fix>3d</fix>
</trkpt>
<trkpt lat="40.0725134" lon="-105.2315433">
  <ele>1595.41</ele>
  <time>2026-08-27T18:25:40Z</time>
  <course>307.18</course>
  <speed>0.03</speed>
  <fix>3d</fix>
</trkpt>
<trkpt lat="40.0725136" lon="-105.2315435">
  <ele>1594.92</ele>
  <time>2026-08-27T18:25:40Z</time>
  <course>164.6</course>
  <speed>0.05</speed>
  <fix>3d</fix>
</trkpt>
<trkpt lat="40.0725134" lon="-105.2315433">
  <ele>1595.11</ele>
  <time>2026-08-27T18:25:40Z</time>
  <course>310.41</course>
  <speed>0.03</speed>
  <fix>3d</fix>
</trkpt>
<trkpt lat="40.0725136" lon="-105.2315436">
  <ele>1594.62</ele>
  <time>2026-08-27T18:25:40Z</time>
  <course>164.59</course>
  <speed>0.0565685424949238</speed>
  <fix>3d</fix>
</trkpt>
<trkpt lat="40.0725135" lon="-105.2315434">
  <ele>1594.82</ele>
  <time>2026-08-27T18:25:40Z</time>
  <course>312.93</course>
  <speed>0.03</speed>
  <fix>3d</fix>
</trkpt>
<trkpt lat="40.0725137" lon="-105.2315437">
  <ele>1594.33</ele>
  <time>2026-08-27T18:25:40Z</time>
  <course>164.59</course>
  <speed>0.0565685424949238</speed>
  <fix>3d</fix>
</trkpt>
<trkpt lat="40.0725135" lon="-105.2315435">
  <ele>1594.53</ele>
  <time>2026-08-27T18:25:40Z</time>
  <course>315.05</course>
  <speed>0.04</speed>
  <fix>3d</fix>
</trkpt>
<trkpt lat="40.0725137" lon="-105.2315437">
  <ele>1594.04</ele>
  <time>2026-08-27T18:25:40Z</time>
  <course>164.56</course>
  <speed>0.0565685424949238</speed>
  <fix>3d</fix>
</trkpt>
<trkpt lat="40.0725136" lon="-105.2315435">
  <ele>1594.23</ele>
  <time>2026-08-27T18:25:40Z</time>
  <course>317.06</course>
  <speed>0.04</speed>
  <fix>3d</fix>
</trkpt>
<trkpt lat="40.0725138" lon="-105.2315438">
  <ele>1593.75</ele>
  <time>2026-08-27T18:25:40Z</time>
  <course>164.56</course>
  <speed>0.0565685424949238</speed>
  <fix>3d</fix>
</trkpt>
<trkpt lat="40.0725136" lon="-105.2315436">
  <ele>1593.94</ele>
  <time>2026-08-27T18:25:40Z</time>
  <course>319.0</course>
  <speed>0.04</speed>
  <fix>3d</fix>
</trkpt>
<trkpt lat="40.0725138" lon="-105.2315438">
  <ele>1593.46</ele>
  <time>2026-08-27T18:25:40Z</time>
  <course>164.54</course>
  <speed>0.04242640687119285</speed>
  <fix>3d</fix>
</trkpt>
<trkpt lat="40.0725136" lon="-105.2315436">
  <ele>1593.64</ele>
  <time>2026-08-27T18:25:40Z</time>
  <course>320.57</course>
  <speed>0.03</speed>
  <fix>3d</fix>
</trkpt>
<trkpt lat="40.0725138" lon="-105.2315438">
  <ele>1593.16</ele>
  <time>2026-08-27T18:25:40Z</time>
  <course>164.53</course>
  <speed>0.04242640687119285</speed>
  <fix>3d</fix>
</trkpt>
<trkpt lat="40.0725137" lon="-105.2315437">
  <ele>1593.35</ele>
  <time>2026-08-27T18:25:40Z</time>
  <course>322.02</course>
  <speed>0.03</speed>
  <fix>3d</fix>
</trkpt>
<trkpt lat="40.0725139" lon="-105.2315439">
  <ele>1592.87</ele>
  <time>2026-08-27T18:25:40Z</time>
  <course>164.5</course>
  <speed>0.04242640687119285</speed>
  <fix>3d</fix>
</trkpt>
<trkpt lat="40.0725137" lon="-105.2315438">
  <ele>1593.05</ele>
  <time>2026-08-27T18:25:40Z</time>
  <course>323.95</course>
  <speed>0.03</speed>
  <fix>3d</fix>
</trkpt>
<trkpt lat="40.0725139" lon="-105.2315439">
  <ele>1592.57</ele>
  <time>2026-08-27T18:25:40Z</time>
  <course>164.49</course>
  <speed>0.0282842712474619</speed>
  <fix>3d</fix>
</trkpt>
<trkpt lat="40.0725138" lon="-105.2315438">
  <ele>1592.75</ele>
  <time>2026-08-27T18:25:40Z</time>
  <course>326.16</course>
  <speed>0.02</speed>
  <fix>3d</fix>
</trkpt>
<trkpt lat="40.0725139" lon="-105.2315439">
  <ele>1592.26</ele>
  <time>2026-08-27T18:25:40Z</time>
  <course>164.47</course>
  <speed>0.0282842712474619</speed>
  <fix>3d</fix>
</trkpt>
<trkpt lat="40.0725139" lon="-105.2315438">
  <ele>1592.45</ele>
  <time>2026-08-27T18:25:40Z</time>
  <course>329.17</course>
  <speed>0.02</speed>
  <fix>3d</fix>
</trkpt>
<trkpt lat="40.0725139" lon="-105.231544">
  <ele>1591.96</ele>
  <time>2026-08-27T18:25:40Z</time>
  <course>164.45</course>
  <speed>0.0282842712474619</speed>
  <fix>3d</fix>
</trkpt>
<trkpt lat="40.0725139" lon="-105.2315438">
  <ele>1592.15</ele>
  <time>2026-08-27T18:25:40Z</time>
  <course>333.19</course>
  <speed>0.02</speed>
  <fix>3d</fix>
</trkpt>
<trkpt lat="40.072514" lon="-105.231544">
  <ele>1591.66</ele>
  <time>2026-08-27T18:25:40Z</time>
  <course>164.42</course>
  <speed>0.022360679774997897</speed>
  <fix>3d</fix>
</trkpt>
<trkpt lat="40.0725139" lon="-105.2315438">
  <ele>1591.85</ele>
  <time>2026-08-27T18:25:40Z</time>
  <course>337.91</course>
  <speed>0.01</speed>
  <fix>3d</fix>
</trkpt>
<trkpt lat="40.072514" lon="-105.231544">
  <ele>1591.36</ele>
  <time>2026-08-27T18:25:40Z</time>
  <course>164.39</course>
  <speed>0.01414213562373095</speed>
  <fix>3d</fix>
</trkpt>
<trkpt lat="40.072514" lon="-105.2315438">
  <ele>1591.55</ele>
  <time>2026-08-27T18:25:40Z</time>
  <course>343.82</course>
  <speed>0.01</speed>
  <fix>3d</fix>
</trkpt>
<trkpt lat="40.072514" lon="-105.231544">
  <ele>1591.07</ele>
  <time>2026-08-27T18:25:40Z</time>
  <course>164.4</course>
  <speed>0.01414213562373095</speed>
  <fix>3d</fix>
</trkpt>
<trkpt lat="40.072514" lon="-105.2315438">
  <ele>1591.25</ele>
  <time>2026-08-27T18:25:40Z</time>
  <course>355.61</course>
  <speed>0.0</speed>
  <fix>3d</fix>
</trkpt>
<trkpt lat="40.072514" lon="-105.231544">
  <ele>1590.77</ele>
  <time>2026-08-27T18:25:40Z</time>
  <course>164.36</course>
  <speed>0.01414213562373095</speed>
  <fix>3d</fix>
</trkpt>
<trkpt lat="40.072514" lon="-105.2315438">
  <ele>1590.95</ele>
  <time>2026-08-27T18:25:40Z</time>
  <course>19.11</course>
  <speed>0.0</speed>
  <fix>3d</fix>
</trkpt>
<trkpt lat="40.072514" lon="-105.231544">
  <ele>1590.48</ele>
  <time>2026-08-27T18:25:40Z</time>
  <course>164.29</course>
  <speed>0.0</speed>
  <fix>3d</fix>
</trkpt>
<trkpt lat="40.072514" lon="-105.2315438">
  <ele>1590.65</ele>
  <time>2026-08-27T18:25:40Z</time>
  <course>65.98</course>
  <speed>0.0</speed>
  <fix>3d</fix>
</trkpt>
<trkpt lat="40.072514" lon="-105.231544">
  <ele>1590.19</ele>
  <time>2026-08-27T18:25:40Z</time>
  <course>164.14</course>
  <speed>0.01</speed>
  <fix>3d</fix>
</trkpt>
<trkpt lat="40.072514" lon="-105.2315438">
  <ele>1590.35</ele>
  <time>2026-08-27T18:25:40Z</time>
  <course>94.23</course>
  <speed>0.01</speed>
  <fix>3d</fix>
</trkpt>
<trkpt lat="40.072514" lon="-105.2315438">
  <ele>1589.91</ele>
  <time>2026-08-27T18:25:40Z</time>
  <course>163.94</course>
  <speed>0.07</speed>
  <fix>3d</fix>
</trkpt>
<trkpt lat="40.072514" lon="-105.2315438">
  <ele>1590.07</ele>
  <time>2026-08-27T18:25:40Z</time>
  <course>92.2</course>
  <speed>0.04</speed>
  <fix>3d</fix>
</trkpt>
<trkpt lat="40.072514" lon="-105.2315435">
  <ele>1589.67</ele>
  <time>2026-08-27T18:25:40Z</time>
  <course>163.68</course>
  <speed>0.191049731745428</speed>
  <fix>3d</fix>
</trkpt>
<trkpt lat="40.072514" lon="-105.2315437">
  <ele>1589.8</ele>
  <time>2026-08-27T18:25:40Z</time>
  <course>88.55</course>
  <speed>0.11</speed>
  <fix>3d</fix>
</trkpt>
<trkpt lat="40.0725141" lon="-105.2315428">
  <ele>1589.45</ele>
  <time>2026-08-27T18:25:40Z</time>
  <course>163.35</course>
  <speed>0.3622154055254967</speed>
  <fix>3d</fix>
</trkpt>
<trkpt lat="40.072514" lon="-105.2315433">
  <ele>1589.57</ele>
  <time>2026-08-27T18:25:40Z</time>
  <course>85.6</course>
  <speed>0.24</speed>
  <fix>3d</fix>
</trkpt>
<trkpt lat="40.0725142" lon="-105.2315417">
  <ele>1589.28</ele>
  <time>2026-08-27T18:25:40Z</time>
  <course>162.99</course>
  <speed>0.5854912467321779</speed>
  <fix>3d</fix>
</trkpt>
<trkpt lat="40.0725141" lon="-105.2315426">
  <ele>1589.37</ele>
  <time>2026-08-27T18:25:40Z</time>
  <course>83.3</course>
  <speed>0.43</speed>
  <fix>3d</fix>
</trkpt>
<trkpt lat="40.0725144" lon="-105.2315401">
  <ele>1589.16</ele>
  <time>2026-08-27T18:25:40Z</time>
  <course>162.63</course>
  <speed>0.8614522621712709</speed>
  <fix>3d</fix>
</trkpt>
<trkpt lat="40.0725142" lon="-105.2315413">
  <ele>1589.21</ele>
  <time>2026-08-27T18:25:40Z</time>
  <course>81.57</course>
  <speed>0.66</speed>
  <fix>3d</fix>
</trkpt>
<trkpt lat="40.0725147" lon="-105.2315378">
  <ele>1589.07</ele>
  <time>2026-08-27T18:25:40Z</time>
  <course>162.13</course>
  <speed>1.169016680804855</speed>
  <fix>3d</fix>
</trkpt>
<trkpt lat="40.0725144" lon="-105.2315394">
  <ele>1589.09</ele>
  <time>2026-08-27T18:25:40Z</time>
  <course>80.33</course>
  <speed>0.95</speed>
  <fix>3d</fix>
</trkpt>
<trkpt lat="40.0725151" lon="-105.2315348">
  <ele>1589.03</ele>
  <time>2026-08-27T18:25:40Z</time>
  <course>150.51</course>
  <speed>1.4650938536489735</speed>
  <fix>3d</fix>
</trkpt>
<trkpt lat="40.0725147" lon="-105.2315368">
  <ele>1589.02</ele>
  <time>2026-08-27T18:25:40Z</time>
  <course>79.69</course>
  <speed>1.24</speed>
  <fix>3d</fix>
</trkpt>
<trkpt lat="40.0725157" lon="-105.231531">
  <ele>1589.01</ele>
  <time>2026-08-27T18:25:40Z</time>
  <course>137.82</course>
  <speed>1.871095935541521</speed>
  <fix>3d</fix>
</trkpt>
<trkpt lat="40.0725152" lon="-105.2315336">
  <ele>1588.98</ele>
  <time>2026-08-27T18:25:40Z</time>
  <course>78.79</course>
  <speed>1.58</speed>
  <fix>3d</fix>
</trkpt>
<trkpt lat="40.0725164" lon="-105.2315263">
  <ele>1589.01</ele>
  <time>2026-08-27T18:25:40Z</time>
  <course>125.54</course>
  <speed>2.265855246921127</speed>
  <fix>3d</fix>
</trkpt>
<trkpt lat="40.0725159" lon="-105.2315294">
  <ele>1588.97</ele>
  <time>2026-08-27T18:25:40Z</time>
  <course>77.68</course>
  <speed>1.98</speed>
  <fix>3d</fix>
</trkpt>
<trkpt lat="40.0725174" lon="-105.2315207">
  <ele>1589.03</ele>
  <time>2026-08-27T18:25:40Z</time>
  <course>113.38</course>
  <speed>2.634008352302627</speed>
  <fix>3d</fix>
</trkpt>
<trkpt lat="40.0725168" lon="-105.2315245">
  <ele>1588.98</ele>
  <time>2026-08-27T18:25:40Z</time>
  <course>76.82</course>
  <speed>2.38</speed>
  <fix>3d</fix>
</trkpt>
<trkpt lat="40.0725186" lon="-105.2315143">
  <ele>1589.05</ele>
  <time>2026-08-27T18:25:40Z</time>
  <course>101.25</course>
  <speed>2.971077245714086</speed>
  <fix>3d</fix>
</trkpt>
<trkpt lat="40.0725179" lon="-105.2315185">
  <ele>1589.0</ele>
  <time>2026-08-27T18:25:40Z</time>
  <course>76.14</course>
  <speed>2.75</speed>
  <fix>3d</fix>
</trkpt>
<trkpt lat="40.07252" lon="-105.2315073">
  <ele>1589.08</ele>
  <time>2026-08-27T18:25:40Z</time>
  <course>89.08</course>
  <speed>3.247845439672276</speed>
  <fix>3d</fix>
</trkpt>
<trkpt lat="40.0725192" lon="-105.2315118">
  <ele>1589.02</ele>
  <time>2026-08-27T18:25:40Z</time>
  <course>75.56</course>
  <speed>3.07</speed>
  <fix>3d</fix>
</trkpt>
<trkpt lat="40.0725216" lon="-105.2314996">
  <ele>1589.1</ele>
  <time>2026-08-27T18:25:40Z</time>
  <course>77.03</course>
  <speed>3.4547503527751466</speed>
  <fix>3d</fix>
</trkpt>
<trkpt lat="40.0725206" lon="-105.2315045">
  <ele>1589.04</ele>
  <time>2026-08-27T18:25:40Z</time>
  <course>74.93</course>
  <speed>3.34</speed>
  <fix>3d</fix>
</trkpt>
<trkpt lat="40.0725234" lon="-105.2314917">
  <ele>1589.13</ele>
  <time>2026-08-27T18:25:40Z</time>
  <course>69.67</course>
  <speed>3.587115833089308</speed>
  <fix>3d</fix>
</trkpt>
<trkpt lat="40.0725223" lon="-105.2314968">
  <ele>1589.07</ele>
  <time>2026-08-27T18:25:40Z</time>
  <course>73.95</course>
  <speed>3.53</speed>
  <fix>3d</fix>
</trkpt>
<trkpt lat="40.0725253" lon="-105.2314835">
  <ele>1589.16</ele>
  <time>2026-08-27T18:25:40Z</time>
  <course>70.12</course>
  <speed>3.6658014130609966</speed>
  <fix>3d</fix>
</trkpt>
<trkpt lat="40.0725241" lon="-105.2314887">
  <ele>1589.09</ele>
  <time>2026-08-27T18:25:40Z</time>
  <course>73.01</course>
  <speed>3.66</speed>
  <fix>3d</fix>
</trkpt>
<trkpt lat="40.0725273" lon="-105.2314752">
  <ele>1589.18</ele>
  <time>2026-08-27T18:25:40Z</time>
  <course>70.86</course>
  <speed>3.7202150475476548</speed>
  <fix>3d</fix>
</trkpt>
<trkpt lat="40.0725261" lon="-105.2314804">
  <ele>1589.12</ele>
  <time>2026-08-27T18:25:40Z</time>
  <course>72.81</course>
  <speed>3.73</speed>
  <fix>3d</fix>
</trkpt>
<trkpt lat="40.0725292" lon="-105.2314667">
  <ele>1589.21</ele>
  <time>2026-08-27T18:25:40Z</time>
  <course>71.72</course>
  <speed>3.7404010480161083</speed>
  <fix>3d</fix>
</trkpt>
<trkpt lat="40.0725281" lon="-105.231472">
  <ele>1589.14</ele>
  <time>2026-08-27T18:25:40Z</time>
  <course>73.24</course>
  <speed>3.78</speed>
  <fix>3d</fix>
</trkpt>
<trkpt lat="40.0725311" lon="-105.2314582">
  <ele>1589.23</ele>
  <time>2026-08-27T18:25:40Z</time>
  <course>72.69</course>
  <speed>3.7336443322844777</speed>
  <fix>3d</fix>
</trkpt>
<trkpt lat="40.07253" lon="-105.2314634">
  <ele>1589.15</ele>
  <time>2026-08-27T18:25:40Z</time>
  <course>73.94</course>
  <speed>3.79</speed>
  <fix>3d</fix>
</trkpt>
<trkpt lat="40.0725328" lon="-105.2314497">
  <ele>1589.24</ele>
  <time>2026-08-27T18:25:40Z</time>
  <course>73.76</course>
  <speed>3.6988241374793693</speed>
  <fix>3d</fix>
</trkpt>
<trkpt lat="40.0725317" lon="-105.2314548">
  <ele>1589.16</ele>
  <time>2026-08-27T18:25:40Z</time>
  <course>74.77</course>
  <speed>3.78</speed>
  <fix>3d</fix>
</trkpt>
<trkpt lat="40.0725345" lon="-105.2314412">
  <ele>1589.24</ele>
  <time>2026-08-27T18:25:40Z</time>
  <course>74.9</course>
  <speed>3.6406180793925635</speed>
  <fix>3d</fix>
</trkpt>
<trkpt lat="40.0725335" lon="-105.2314463">
  <ele>1589.16</ele>
  <time>2026-08-27T18:25:40Z</time>
  <course>75.7</course>
  <speed>3.74</speed>
  <fix>3d</fix>
</trkpt>
<trkpt lat="40.072536" lon="-105.2314328">
  <ele>1589.24</ele>
  <time>2026-08-27T18:25:40Z</time>
  <course>76.03</course>
  <speed>3.5836992061276574</speed>
  <fix>3d</fix>
</trkpt>
<trkpt lat="40.0725351" lon="-105.2314379">
  <ele>1589.16</ele>
  <time>2026-08-27T18:25:40Z</time>
  <course>76.73</course>
  <speed>3.67</speed>
  <fix>3d</fix>
</trkpt>
<trkpt lat="40.0725373" lon="-105.2314245">
  <ele>1589.23</ele>
  <time>2026-08-27T18:25:40Z</time>
  <course>77.17</course>
  <speed>3.528129816205747</speed>
  <fix>3d</fix>
</trkpt>
<trkpt lat="40.0725366" lon="-105.2314295">
  <ele>1589.15</ele>
  <time>2026-08-27T18:25:40Z</time>
  <course>77.88</course>
  <speed>3.61</speed>
  <fix>3d</fix>
</trkpt>
<trkpt lat="40.0725385" lon="-105.2314163">
  <ele>1589.21</ele>
  <time>2026-08-27T18:25:40Z</time>
  <course>78.34</course>
  <speed>3.464130482530934</speed>
  <fix>3d</fix>
</trkpt>
<trkpt lat="40.0725379" lon="-105.2314212">
  <ele>1589.14</ele>
  <time>2026-08-27T18:25:40Z</time>
  <course>79.07</course>
  <speed>3.55</speed>
  <fix>3d</fix>
</trkpt>
<trkpt lat="40.0725396" lon="-105.2314083">
  <ele>1589.2</ele>
  <time>2026-08-27T18:25:40Z</time>
  <course>79.48</course>
  <speed>3.373499666518436</speed>
  <fix>3d</fix>
</trkpt>
<trkpt lat="40.072539" lon="-105.2314131">
  <ele>1589.13</ele>
  <time>2026-08-27T18:25:40Z</time>
  <course>80.2</course>
  <speed>3.47</speed>
  <fix>3d</fix>
</trkpt>
<trkpt lat="40.0725405" lon="-105.2314004">
  <ele>1589.19</ele>
  <time>2026-08-27T18:25:40Z</time>
  <course>80.5</course>
  <speed>3.2541204648875555</speed>
  <fix>3d</fix>
</trkpt>
<trkpt lat="40.0725399" lon="-105.2314052">
  <ele>1589.13</ele>
  <time>2026-08-27T18:25:40Z</time>
  <course>81.18</course>
  <speed>3.37</speed>
  <fix>3d</fix>
</trkpt>
<trkpt lat="40.0725413" lon="-105.2313929">
  <ele>1589.2</ele>
  <time>2026-08-27T18:25:40Z</time>
  <course>81.27</course>
  <speed>3.0985964564621833</speed>
  <fix>3d</fix>
</trkpt>
<trkpt lat="40.0725408" lon="-105.2313975">
  <ele>1589.13</ele>
  <time>2026-08-27T18:25:40Z</time>
  <course>81.97</course>
  <speed>3.24</speed>
  <fix>3d</fix>
</trkpt>
<trkpt lat="40.072542" lon="-105.2313858">
  <ele>1589.21</ele>
  <time>2026-08-27T18:25:40Z</time>
  <course>81.61</course>
  <speed>2.9373627627516488</speed>
  <fix>3d</fix>
</trkpt>
<trkpt lat="40.0725416" lon="-105.2313901">
  <ele>1589.13</ele>
  <time>2026-08-27T18:25:40Z</time>
  <course>82.43</course>
  <speed>3.08</speed>
  <fix>3d</fix>
</trkpt>
<trkpt lat="40.0725427" lon="-105.2313791">
  <ele>1589.22</ele>
  <time>2026-08-27T18:25:40Z</time>
  <course>81.3</course>
  <speed>2.770505369061753</speed>
  <fix>3d</fix>
</trkpt>
<trkpt lat="40.0725423" lon="-105.231383">
  <ele>1589.13</ele>
  <time>2026-08-27T18:25:40Z</time>
  <course>82.38</course>
  <speed>2.92</speed>
  <fix>3d</fix>
</trkpt>
<trkpt lat="40.0725435" lon="-105.2313727">
  <ele>1589.23</ele>
  <time>2026-08-27T18:25:40Z</time>
  <course>80.08</course>
  <speed>2.600999807766237</speed>
  <fix>3d</fix>
</trkpt>
<trkpt lat="40.072543" lon="-105.2313765">
  <ele>1589.14</ele>
  <time>2026-08-27T18:25:40Z</time>
  <course>81.53</course>
  <speed>2.74</speed>
  <fix>3d</fix>
</trkpt>
<trkpt lat="40.0725444" lon="-105.2313668">
  <ele>1589.25</ele>
  <time>2026-08-27T18:25:40Z</time>
  <course>77.57</course>
  <speed>2.4232416305436812</speed>
  <fix>3d</fix>
</trkpt>
<trkpt lat="40.0725438" lon="-105.2313704">
  <ele>1589.15</ele>
  <time>2026-08-27T18:25:40Z</time>
  <course>79.61</course>
  <speed>2.57</speed>
  <fix>3d</fix>
</trkpt>
<trkpt lat="40.0725455" lon="-105.2313615">
  <ele>1589.28</ele>
  <time>2026-08-27T18:25:40Z</time>
  <course>73.64</course>
  <speed>2.2549722836434154</speed>
  <fix>3d</fix>
</trkpt>
<trkpt lat="40.0725447" lon="-105.2313647">
  <ele>1589.17</ele>
  <time>2026-08-27T18:25:40Z</time>
  <course>76.33</course>
  <speed>2.39</speed>
  <fix>3d</fix>
</trkpt>
<trkpt lat="40.0725468" lon="-105.2313566">
  <ele>1589.32</ele>
  <time>2026-08-27T18:25:40Z</time>
  <course>68.24</course>
  <speed>2.118041548223264</speed>
  <fix>3d</fix>
</trkpt>
<trkpt lat="40.0725459" lon="-105.2313595">
  <ele>1589.2</ele>
  <time>2026-08-27T18:25:40Z</time>
  <course>71.42</course>
  <speed>2.22</speed>
  <fix>3d</fix>
</trkpt>
<trkpt lat="40.0725485" lon="-105.2313522">
  <ele>1589.37</ele>
  <time>2026-08-27T18:25:40Z</time>
  <course>61.45</course>
  <speed>2.049414550548522</speed>
  <fix>3d</fix>
</trkpt>
<trkpt lat="40.0725472" lon="-105.2313547">
  <ele>1589.24</ele>
  <time>2026-08-27T18:25:40Z</time>
  <course>64.97</course>
  <speed>2.09</speed>
  <fix>3d</fix>
</trkpt>
<trkpt lat="40.0725505" lon="-105.2313482">
  <ele>1589.43</ele>
  <time>2026-08-27T18:25:40Z</time>
  <course>53.86</course>
  <speed>2.0506096654409878</speed>
  <fix>3d</fix>
</trkpt>
<trkpt lat="40.0725491" lon="-105.2313505">
  <ele>1589.29</ele>
  <time>2026-08-27T18:25:40Z</time>
  <course>57.53</course>
  <speed>2.03</speed>
  <fix>3d</fix>
</trkpt>
<trkpt lat="40.072553" lon="-105.2313445">
  <ele>1589.5</ele>
  <time>2026-08-27T18:25:40Z</time>
  <course>46.44</course>
  <speed>2.1142611002428247</speed>
  <fix>3d</fix>
</trkpt>
<trkpt lat="40.0725513" lon="-105.2313466">
  <ele>1589.35</ele>
  <time>2026-08-27T18:25:40Z</time>
  <course>50.1</course>
  <speed>2.05</speed>
  <fix>3d</fix>
</trkpt>
<trkpt lat="40.0725558" lon="-105.231341">
  <ele>1589.57</ele>
  <time>2026-08-27T18:25:41Z</time>
  <course>40.18</course>
  <speed>2.2073740054644118</speed>
  <fix>3d</fix>
</trkpt>
<trkpt lat="40.0725538" lon="-105.2313431">
  <ele>1589.41</ele>
  <time>2026-08-27T18:25:41Z</time>
  <course>43.66</course>
  <speed>2.12</speed>
  <fix>3d</fix>
</trkpt>
<trkpt lat="40.0725589" lon="-105.2313377">
  <ele>1589.67</ele>
  <time>2026-08-27T18:25:41Z</time>
  <course>35.56</course>
  <speed>2.2961053982777013</speed>
  <fix>3d</fix>
</trkpt>
<trkpt lat="40.0725567" lon="-105.2313398">
  <ele>1589.5</ele>
  <time>2026-08-27T18:25:41Z</time>
  <course>38.68</course>
  <speed>2.21</speed>
  <fix>3d</fix>
</trkpt>
<trkpt lat="40.0725623" lon="-105.2313346">
  <ele>1589.78</ele>
  <time>2026-08-27T18:25:41Z</time>
  <course>32.63</course>
  <speed>2.376930794112441</speed>
  <fix>3d</fix>
</trkpt>
<trkpt lat="40.0725599" lon="-105.2313365">
  <ele>1589.6</ele>
  <time>2026-08-27T18:25:41Z</time>
  <course>35.2</course>
  <speed>2.31</speed>
  <fix>3d</fix>
</trkpt>
<trkpt lat="40.0725658" lon="-105.2313315">
  <ele>1589.89</ele>
  <time>2026-08-27T18:25:41Z</time>
  <course>31.12</course>
  <speed>2.4298148077579906</speed>
  <fix>3d</fix>
</trkpt>
<trkpt lat="40.0725635" lon="-105.2313335">
  <ele>1589.7</ele>
  <time>2026-08-27T18:25:41Z</time>
  <course>33.06</course>
  <speed>2.38</speed>
  <fix>3d</fix>
</trkpt>
<trkpt lat="40.0725695" lon="-105.2313284">
  <ele>1590.01</ele>
  <time>2026-08-27T18:25:41Z</time>
  <course>30.63</course>
  <speed>2.4742675683927153</speed>
  <fix>3d</fix>
</trkpt>
<trkpt lat="40.0725671" lon="-105.2313304">
  <ele>1589.82</ele>
  <time>2026-08-27T18:25:41Z</time>
  <course>32.07</course>
  <speed>2.44</speed>
  <fix>3d</fix>
</trkpt>
<trkpt lat="40.0725733" lon="-105.2313253">
  <ele>1590.13</ele>
  <time>2026-08-27T18:25:41Z</time>
  <course>31.04</course>
  <speed>2.49899979991996</speed>
  <fix>3d</fix>
</trkpt>
<trkpt lat="40.0725709" lon="-105.2313273">
  <ele>1589.93</ele>
  <time>2026-08-27T18:25:41Z</time>
  <course>32.05</course>
  <speed>2.48</speed>
  <fix>3d</fix>
</trkpt>
<trkpt lat="40.0725771" lon="-105.231322">
  <ele>1590.24</ele>
  <time>2026-08-27T18:25:41Z</time>
  <course>32.16</course>
  <speed>2.5241434190631877</speed>
  <fix>3d</fix>
</trkpt>
<trkpt lat="40.0725748" lon="-105.2313241">
  <ele>1590.04</ele>
  <time>2026-08-27T18:25:41Z</time>
  <course>32.8</course>
  <speed>2.51</speed>
  <fix>3d</fix>
</trkpt>
<trkpt lat="40.0725808" lon="-105.2313186">
  <ele>1590.35</ele>
  <time>2026-08-27T18:25:41Z</time>
  <course>33.8</course>
  <speed>2.5401771591761078</speed>
  <fix>3d</fix>
</trkpt>
<trkpt lat="40.0725786" lon="-105.2313209">
  <ele>1590.15</ele>
  <time>2026-08-27T18:25:41Z</time>
  <course>34.16</course>
  <speed>2.53</speed>
  <fix>3d</fix>
</trkpt>
<trkpt lat="40.0725845" lon="-105.231315">
  <ele>1590.46</ele>
  <time>2026-08-27T18:25:41Z</time>
  <course>35.68</course>
  <speed>2.55049014897137</speed>
  <fix>3d</fix>
</trkpt>
<trkpt lat="40.0725823" lon="-105.2313175">
  <ele>1590.26</ele>
  <time>2026-08-27T18:25:41Z</time>
  <course>35.88</course>
  <speed>2.55</speed>
  <fix>3d</fix>
</trkpt>
<trkpt lat="40.0725881" lon="-105.2313113">
  <ele>1590.56</ele>
  <time>2026-08-27T18:25:41Z</time>
  <course>37.56</course>
  <speed>2.569708154635464</speed>
  <fix>3d</fix>
</trkpt>
<trkpt lat="40.072586" lon="-105.2313139">
  <ele>1590.37</ele>
  <time>2026-08-27T18:25:41Z</time>
  <course>37.72</course>
  <speed>2.57</speed>
  <fix>3d</fix>
</trkpt>
<trkpt lat="40.0725917" lon="-105.2313074">
  <ele>1590.65</ele>
  <time>2026-08-27T18:25:41Z</time>
  <course>39.47</course>
  <speed>2.585207922005501</speed>
  <fix>3d</fix>
</trkpt>
<trkpt lat="40.0725896" lon="-105.2313101">
  <ele>1590.47</ele>
  <time>2026-08-27T18:25:41Z</time>
  <course>39.61</course>
  <speed>2.58</speed>
  <fix>3d</fix>
</trkpt>
<trkpt lat="40.0725952" lon="-105.2313033">
  <ele>1590.75</ele>
  <time>2026-08-27T18:25:41Z</time>
  <course>41.53</course>
  <speed>2.5886289807540983</speed>
  <fix>3d</fix>
</trkpt>
<trkpt lat="40.0725931" lon="-105.2313061">
  <ele>1590.57</ele>
  <time>2026-08-27T18:25:41Z</time>
  <course>41.6</course>
  <speed>2.59</speed>
  <fix>3d</fix>
</trkpt>
<trkpt lat="40.0725985" lon="-105.2312991">
  <ele>1590.84</ele>
  <time>2026-08-27T18:25:41Z</time>
  <course>43.8</course>
  <speed>2.5814143410154053</speed>
  <fix>3d</fix>
</trkpt>
<trkpt lat="40.0725966" lon="-105.231302">
  <ele>1590.66</ele>
  <time>2026-08-27T18:25:41Z</time>
  <course>43.77</course>
  <speed>2.6</speed>
  <fix>3d</fix>
</trkpt>
<trkpt lat="40.0726017" lon="-105.2312946">
  <ele>1590.92</ele>
  <time>2026-08-27T18:25:41Z</time>
  <course>46.37</course>
  <speed>2.586058777367599</speed>
  <fix>3d</fix>
</trkpt>
<trkpt lat="40.0725999" lon="-105.2312977">
  <ele>1590.75</ele>
  <time>2026-08-27T18:25:41Z</time>
  <course>46.18</course>
  <speed>2.6</speed>
  <fix>3d</fix>
</trkpt>
<trkpt lat="40.0726048" lon="-105.23129">
  <ele>1591.0</ele>
  <time>2026-08-27T18:25:41Z</time>
  <course>49.21</course>
  <speed>2.5909457732650445</speed>
  <fix>3d</fix>
</trkpt>
<trkpt lat="40.072603" lon="-105.2312932">
  <ele>1590.83</ele>
  <time>2026-08-27T18:25:41Z</time>
  <course>48.85</course>
  <speed>2.6</speed>
  <fix>3d</fix>
</trkpt>
<trkpt lat="40.0726077" lon="-105.2312851">
  <ele>1591.07</ele>
  <time>2026-08-27T18:25:41Z</time>
  <course>52.33</course>
  <speed>2.596998267230843</speed>
  <fix>3d</fix>
</trkpt>
<trkpt lat="40.072606" lon="-105.2312884">
  <ele>1590.9</ele>
  <time>2026-08-27T18:25:41Z</time>
  <course>51.78</course>
  <speed>2.61</speed>
  <fix>3d</fix>
</trkpt>
<trkpt lat="40.0726103" lon="-105.23128">
  <ele>1591.12</ele>
  <time>2026-08-27T18:25:41Z</time>
  <course>55.69</course>
  <speed>2.6192556194461054</speed>
  <fix>3d</fix>
</trkpt>
<trkpt lat="40.0726088" lon="-105.2312835">
  <ele>1590.96</ele>
  <time>2026-08-27T18:25:41Z</time>
  <course>54.94</course>
  <speed>2.62</speed>
  <fix>3d</fix>
</trkpt>
<trkpt lat="40.0726128" lon="-105.2312747">
  <ele>1591.16</ele>
  <time>2026-08-27T18:25:41Z</time>
  <course>59.14</course>
  <speed>2.667208278331484</speed>
  <fix>3d</fix>
</trkpt>
<trkpt lat="40.0726114" lon="-105.2312783">
  <ele>1591.01</ele>
  <time>2026-08-27T18:25:41Z</time>
  <course>58.28</course>
  <speed>2.65</speed>
  <fix>3d</fix>
</trkpt>
<trkpt lat="40.0726151" lon="-105.231269">
  <ele>1591.18</ele>
  <time>2026-08-27T18:25:41Z</time>
  <course>62.53</course>
  <speed>2.7687722911066555</speed>
  <fix>3d</fix>
</trkpt>
<trkpt lat="40.0726138" lon="-105.2312728">
  <ele>1591.04</ele>
  <time>2026-08-27T18:25:41Z</time>
  <course>61.67</course>
  <speed>2.71</speed>
  <fix>3d</fix>
</trkpt>
<trkpt lat="40.0726172" lon="-105.2312629">
  <ele>1591.18</ele>
  <time>2026-08-27T18:25:41Z</time>
  <course>65.56</course>
  <speed>2.936153946917634</speed>
  <fix>3d</fix>
</trkpt>
<trkpt lat="40.0726161" lon="-105.2312671">
  <ele>1591.05</ele>
  <time>2026-08-27T18:25:41Z</time>
  <course>64.85</course>
  <speed>2.82</speed>
  <fix>3d</fix>
</trkpt>
<trkpt lat="40.0726193" lon="-105.2312562">
  <ele>1591.17</ele>
  <time>2026-08-27T18:25:41Z</time>
  <course>67.81</course>
  <speed>3.1835200643313057</speed>
  <fix>3d</fix>
</trkpt>
<trkpt lat="40.0726181" lon="-105.2312608">
  <ele>1591.06</ele>
  <time>2026-08-27T18:25:41Z</time>
  <course>67.49</course>
  <speed>3.01</speed>
  <fix>3d</fix>
</trkpt>
<trkpt lat="40.0726214" lon="-105.2312489">
  <ele>1591.16</ele>
  <time>2026-08-27T18:25:41Z</time>
  <course>69.06</course>
  <speed>3.4696541614403014</speed>
  <fix>3d</fix>
</trkpt>
<trkpt lat="40.0726202" lon="-105.2312539">
  <ele>1591.05</ele>
  <time>2026-08-27T18:25:41Z</time>
  <course>69.27</course>
  <speed>3.26</speed>
  <fix>3d</fix>
</trkpt>
<trkpt lat="40.0726236" lon="-105.2312409">
  <ele>1591.14</ele>
  <time>2026-08-27T18:25:41Z</time>
  <course>69.4</course>
  <speed>3.7730756684699553</speed>
  <fix>3d</fix>
</trkpt>
<trkpt lat="40.0726224" lon="-105.2312465">
  <ele>1591.04</ele>
  <time>2026-08-27T18:25:41Z</time>
  <course>70.11</course>
  <speed>3.56</speed>
  <fix>3d</fix>
</trkpt>
<trkpt lat="40.072626" lon="-105.2312322">
  <ele>1591.12</ele>
  <time>2026-08-27T18:25:41Z</time>
  <course>69.02</course>
  <speed>4.071031810241723</speed>
  <fix>3d</fix>
</trkpt>
<trkpt lat="40.0726246" lon="-105.2312383">
  <ele>1591.03</ele>
  <time>2026-08-27T18:25:41Z</time>
  <course>70.13</course>
  <speed>3.86</speed>
  <fix>3d</fix>
</trkpt>
<trkpt lat="40.0726287" lon="-105.231223">
  <ele>1591.12</ele>
  <time>2026-08-27T18:25:41Z</time>
  <course>68.23</course>
  <speed>4.332908953578416</speed>
  <fix>3d</fix>
</trkpt>
<trkpt lat="40.0726271" lon="-105.2312294">
  <ele>1591.01</ele>
  <time>2026-08-27T18:25:41Z</time>
  <course>69.58</course>
  <speed>4.15</speed>
  <fix>3d</fix>
</trkpt>
<trkpt lat="40.0726317" lon="-105.2312133">
  <ele>1591.12</ele>
  <time>2026-08-27T18:25:41Z</time>
  <course>67.2</course>
  <speed>4.564394812020538</speed>
  <fix>3d</fix>
</trkpt>
<trkpt lat="40.0726298" lon="-105.23122">
  <ele>1591.01</ele>
  <time>2026-08-27T18:25:41Z</time>
  <course>68.72</course>
  <speed>4.41</speed>
  <fix>3d</fix>
</trkpt>
<trkpt lat="40.0726349" lon="-105.2312032">
  <ele>1591.13</ele>
  <time>2026-08-27T18:25:41Z</time>
  <course>66.19</course>
  <speed>4.750789408087881</speed>
  <fix>3d</fix>
</trkpt>
<trkpt lat="40.0726329" lon="-105.2312101">
  <ele>1591.01</ele>
  <time>2026-08-27T18:25:41Z</time>
  <course>67.73</course>
  <speed>4.63</speed>
  <fix>3d</fix>
</trkpt>
<trkpt lat="40.0726383" lon="-105.2311928">
  <ele>1591.14</ele>
  <time>2026-08-27T18:25:41Z</time>
  <course>65.3</course>
  <speed>4.889989775040434</speed>
  <fix>3d</fix>
</trkpt>
<trkpt lat="40.0726362" lon="-105.2311998">
  <ele>1591.02</ele>
  <time>2026-08-27T18:25:41Z</time>
  <course>66.78</course>
  <speed>4.82</speed>
  <fix>3d</fix>
</trkpt>
<trkpt lat="40.0726419" lon="-105.2311823">
  <ele>1591.16</ele>
  <time>2026-08-27T18:25:41Z</time>
  <course>64.67</course>
  <speed>4.981375312100063</speed>
  <fix>3d</fix>
</trkpt>
<trkpt lat="40.0726396" lon="-105.2311893">
  <ele>1591.03</ele>
  <time>2026-08-27T18:25:41Z</time>
  <course>65.95</course>
  <speed>4.95</speed>
  <fix>3d</fix>
</trkpt>
<trkpt lat="40.0726457" lon="-105.2311715">
  <ele>1591.17</ele>
  <time>2026-08-27T18:25:41Z</time>
  <course>64.31</course>
  <speed>5.024509926351027</speed>
  <fix>3d</fix>
</trkpt>
<trkpt lat="40.0726433" lon="-105.2311786">
  <ele>1591.05</ele>
  <time>2026-08-27T18:25:41Z</time>
  <course>65.3</course>
  <speed>5.04</speed>
  <fix>3d</fix>
</trkpt>
<trkpt lat="40.0726496" lon="-105.2311608">
  <ele>1591.18</ele>
  <time>2026-08-27T18:25:41Z</time>
  <course>64.16</course>
  <speed>5.014828013003038</speed>
  <fix>3d</fix>
</trkpt>
<trkpt lat="40.0726472" lon="-105.2311679">
  <ele>1591.07</ele>
  <time>2026-08-27T18:25:41Z</time>
  <course>64.84</course>
  <speed>5.07</speed>
  <fix>3d</fix>
</trkpt>
<trkpt lat="40.0726534" lon="-105.2311502">
  <ele>1591.2</ele>
  <time>2026-08-27T18:25:41Z</time>
  <course>64.19</course>
  <speed>4.978644393808419</speed>
  <fix>3d</fix>
</trkpt>
<trkpt lat="40.0726511" lon="-105.2311571">
  <ele>1591.09</ele>
  <time>2026-08-27T18:25:41Z</time>
  <course>64.56</course>
  <speed>5.06</speed>
  <fix>3d</fix>
</trkpt>
<trkpt lat="40.0726573" lon="-105.2311397">
  <ele>1591.21</ele>
  <time>2026-08-27T18:25:41Z</time>
  <course>64.35</course>
  <speed>4.898264998956263</speed>
  <fix>3d</fix>
</trkpt>
<trkpt lat="40.072655" lon="-105.2311465">
  <ele>1591.1</ele>
  <time>2026-08-27T18:25:41Z</time>
  <course>64.44</course>
  <speed>5.0</speed>
  <fix>3d</fix>
</trkpt>
<trkpt lat="40.0726611" lon="-105.2311293">
  <ele>1591.21</ele>
  <time>2026-08-27T18:25:41Z</time>
  <course>64.58</course>
  <speed>4.8178937306669605</speed>
  <fix>3d</fix>
</trkpt>
<trkpt lat="40.0726589" lon="-105.2311359">
  <ele>1591.11</ele>
  <time>2026-08-27T18:25:41Z</time>
  <course>64.48</course>
  <speed>4.93</speed>
  <fix>3d</fix>
</trkpt>
<trkpt lat="40.0726648" lon="-105.2311191">
  <ele>1591.21</ele>
  <time>2026-08-27T18:25:41Z</time>
  <course>64.87</course>
  <speed>4.742362280551751</speed>
  <fix>3d</fix>
</trkpt>
<trkpt lat="40.0726626" lon="-105.2311255">
  <ele>1591.12</ele>
  <time>2026-08-27T18:25:41Z</time>
  <course>64.66</course>
  <speed>4.85</speed>
  <fix>3d</fix>
</trkpt>
<trkpt lat="40.0726684" lon="-105.2311089">
  <ele>1591.21</ele>
  <time>2026-08-27T18:25:41Z</time>
  <course>65.18</course>
  <speed>4.694187895685472</speed>
  <fix>3d</fix>
</trkpt>
<trkpt lat="40.0726663" lon="-105.2311153">
  <ele>1591.13</ele>
  <time>2026-08-27T18:25:41Z</time>
  <course>64.97</course>
  <speed>4.78</speed>
  <fix>3d</fix>
</trkpt>
<trkpt lat="40.0726719" lon="-105.2310988">
  <ele>1591.2</ele>
  <time>2026-08-27T18:25:41Z</time>
  <course>65.52</course>
  <speed>4.664504260904903</speed>
  <fix>3d</fix>
</trkpt>
<trkpt lat="40.0726699" lon="-105.2311052">
  <ele>1591.12</ele>
  <time>2026-08-27T18:25:41Z</time>
  <course>65.35</course>
  <speed>4.73</speed>
  <fix>3d</fix>
</trkpt>
<trkpt lat="40.0726754" lon="-105.2310888">
  <ele>1591.18</ele>
  <time>2026-08-27T18:25:41Z</time>
  <course>65.81</course>
  <speed>4.652364989980902</speed>
  <fix>3d</fix>
</trkpt>
<trkpt lat="40.0726734" lon="-105.2310951">
  <ele>1591.11</ele>
  <time>2026-08-27T18:25:41Z</time>
  <course>65.75</course>
  <speed>4.7</speed>
  <fix>3d</fix>
</trkpt>
<trkpt lat="40.0726788" lon="-105.2310787">
  <ele>1591.17</ele>
  <time>2026-08-27T18:25:41Z</time>
  <course>66.06</course>
  <speed>4.65353628974783</speed>
  <fix>3d</fix>
</trkpt>
<trkpt lat="40.0726769" lon="-105.231085">
  <ele>1591.11</ele>
  <time>2026-08-27T18:25:41Z</time>
  <course>66.11</course>
  <speed>4.68</speed>
  <fix>3d</fix>
</trkpt>
<trkpt lat="40.0726822" lon="-105.2310686">
  <ele>1591.16</ele>
  <time>2026-08-27T18:25:41Z</time>
  <course>66.25</course>
  <speed>4.6679438728416605</speed>
  <fix>3d</fix>
</trkpt>
<trkpt lat="40.0726803" lon="-105.2310749">
  <ele>1591.1</ele>
  <time>2026-08-27T18:25:41Z</time>
  <course>66.41</course>
  <speed>4.68</speed>
  <fix>3d</fix>
</trkpt>
<trkpt lat="40.0726855" lon="-105.2310584">
  <ele>1591.15</ele>
  <time>2026-08-27T18:25:41Z</time>
  <course>66.4</course>
  <speed>4.682413907377262</speed>
  <fix>3d</fix>
</trkpt>
<trkpt lat="40.0726836" lon="-105.2310648">
  <ele>1591.09</ele>
  <time>2026-08-27T18:25:41Z</time>
  <course>66.65</course>
  <speed>4.7</speed>
  <fix>3d</fix>
</trkpt>
<trkpt lat="40.0726889" lon="-105.2310481">
  <ele>1591.15</ele>
  <time>2026-08-27T18:25:41Z</time>
  <course>66.53</course>
  <speed>4.710042462653601</speed>
  <fix>3d</fix>
</trkpt>
<trkpt lat="40.0726869" lon="-105.2310546">
  <ele>1591.09</ele>
  <time>2026-08-27T18:25:41Z</time>
  <course>66.84</course>
  <speed>4.72</speed>
  <fix>3d</fix>
</trkpt>
<trkpt lat="40.0726922" lon="-105.2310378">
  <ele>1591.15</ele>
  <time>2026-08-27T18:25:41Z</time>
  <course>66.64</course>
  <speed>4.750789408087881</speed>
  <fix>3d</fix>
</trkpt>
<trkpt lat="40.0726903" lon="-105.2310445">
  <ele>1591.09</ele>
  <time>2026-08-27T18:25:41Z</time>
  <course>66.98</course>
  <speed>4.74</speed>
  <fix>3d</fix>
</trkpt>
<trkpt lat="40.0726956" lon="-105.2310275">
  <ele>1591.16</ele>
  <time>2026-08-27T18:25:41Z</time>
  <course>66.67</course>
  <speed>4.778462095695644</speed>
  <fix>3d</fix>
</trkpt>
<trkpt lat="40.0726936" lon="-105.2310342">
  <ele>1591.1</ele>
  <time>2026-08-27T18:25:41Z</time>
  <course>67.07</course>
  <speed>4.78</speed>
  <fix>3d</fix>
</trkpt>
<trkpt lat="40.072699" lon="-105.231017">
  <ele>1591.17</ele>
  <time>2026-08-27T18:25:41Z</time>
  <course>66.72</course>
  <speed>4.823079928842151</speed>
  <fix>3d</fix>
</trkpt>
<trkpt lat="40.072697" lon="-105.2310238">
  <ele>1591.1</ele>
  <time>2026-08-27T18:25:41Z</time>
  <course>67.12</course>
  <speed>4.81</speed>
  <fix>3d</fix>
</trkpt>
<trkpt lat="40.0727024" lon="-105.2310065">
  <ele>1591.17</ele>
  <time>2026-08-27T18:25:41Z</time>
  <course>66.71</course>
  <speed>4.863846214674144</speed>
  <fix>3d</fix>
</trkpt>
<trkpt lat="40.0727004" lon="-105.2310133">
  <ele>1591.1</ele>
  <time>2026-08-27T18:25:41Z</time>
  <course>67.14</course>
  <speed>4.85</speed>
  <fix>3d</fix>
</trkpt>
<trkpt lat="40.0727058" lon="-105.2309959">
  <ele>1591.17</ele>
  <time>2026-08-27T18:25:41Z</time>
  <course>66.69</course>
  <speed>4.899234634103576</speed>
  <fix>3d</fix>
</trkpt>
<trkpt lat="40.0727038" lon="-105.2310028">
  <ele>1591.11</ele>
  <time>2026-08-27T18:25:41Z</time>
  <course>67.13</course>
  <speed>4.89</speed>
  <fix>3d</fix>
</trkpt>
<trkpt lat="40.0727093" lon="-105.2309852">
  <ele>1591.17</ele>
  <time>2026-08-27T18:25:41Z</time>
  <course>66.67</course>
  <speed>4.934632711762852</speed>
  <fix>3d</fix>
</trkpt>
<trkpt lat="40.0727071" lon="-105.2309922">
  <ele>1591.11</ele>
  <time>2026-08-27T18:25:41Z</time>
  <course>67.1</course>
  <speed>4.93</speed>
  <fix>3d</fix>
</trkpt>
<trkpt lat="40.0727127" lon="-105.2309745">
  <ele>1591.18</ele>
  <time>2026-08-27T18:25:41Z</time>
  <course>66.61</course>
  <speed>4.970040241285778</speed>
  <fix>3d</fix>
</trkpt>
<trkpt lat="40.0727106" lon="-105.2309814">
  <ele>1591.11</ele>
  <time>2026-08-27T18:25:41Z</time>
  <course>67.05</course>
  <speed>4.96</speed>
  <fix>3d</fix>
</trkpt>
<trkpt lat="40.0727163" lon="-105.2309637">
  <ele>1591.18</ele>
  <time>2026-08-27T18:25:41Z</time>
  <course>66.59</course>
  <speed>5.0015697535873676</speed>
  <fix>3d</fix>
</trkpt>
<trkpt lat="40.0727141" lon="-105.2309707">
  <ele>1591.11</ele>
  <time>2026-08-27T18:25:41Z</time>
  <course>66.99</course>
  <speed>5.0</speed>
  <fix>3d</fix>
</trkpt>
<trkpt lat="40.0727198" lon="-105.2309528">
  <ele>1591.18</ele>
  <time>2026-08-27T18:25:41Z</time>
  <course>66.56</course>
  <speed>5.027772866787043</speed>
  <fix>3d</fix>
</trkpt>
<trkpt lat="40.0727177" lon="-105.2309598">
  <ele>1591.12</ele>
  <time>2026-08-27T18:25:41Z</time>
  <course>66.92</course>
  <speed>5.03</speed>
  <fix>3d</fix>
</trkpt>
<trkpt lat="40.0727234" lon="-105.2309419">
  <ele>1591.19</ele>
  <time>2026-08-27T18:25:41Z</time>
  <course>66.51</course>
  <speed>5.040882859182506</speed>
  <fix>3d</fix>
</trkpt>
<trkpt lat="40.0727213" lon="-105.2309489">
  <ele>1591.12</ele>
  <time>2026-08-27T18:25:41Z</time>
  <course>66.85</course>
  <speed>5.05</speed>
  <fix>3d</fix>
</trkpt>
<trkpt lat="40.072727" lon="-105.230931">
  <ele>1591.19</ele>
  <time>2026-08-27T18:25:41Z</time>
  <course>66.45</course>
  <speed>5.063200568810206</speed>
  <fix>3d</fix>
</trkpt>
<trkpt lat="40.0727248" lon="-105.230938">
  <ele>1591.12</ele>
  <time>2026-08-27T18:25:41Z</time>
  <course>66.78</course>
  <speed>5.07</speed>
  <fix>3d</fix>
</trkpt>
<trkpt lat="40.0727306" lon="-105.2309201">
  <ele>1591.19</ele>
  <time>2026-08-27T18:25:41Z</time>
  <course>66.4</course>
  <speed>5.076317562958409</speed>
  <fix>3d</fix>
</trkpt>
<trkpt lat="40.0727284" lon="-105.2309271">
  <ele>1591.12</ele>
  <time>2026-08-27T18:25:41Z</time>
  <course>66.71</course>
  <speed>5.09</speed>
  <fix>3d</fix>
</trkpt>
<trkpt lat="40.0727342" lon="-105.2309091">
  <ele>1591.19</ele>
  <time>2026-08-27T18:25:41Z</time>
  <course>66.37</course>
  <speed>5.080246057033064</speed>
  <fix>3d</fix>
</trkpt>
<trkpt lat="40.072732" lon="-105.2309161">
  <ele>1591.12</ele>
  <time>2026-08-27T18:25:41Z</time>
  <course>66.65</course>
  <speed>5.1</speed>
  <fix>3d</fix>
</trkpt>
<trkpt lat="40.0727378" lon="-105.2308981">
  <ele>1591.2</ele>
  <time>2026-08-27T18:25:41Z</time>
  <course>66.37</course>
  <speed>5.084191184446156</speed>
  <fix>3d</fix>
</trkpt>
<trkpt lat="40.0727356" lon="-105.2309051">
  <ele>1591.12</ele>
  <time>2026-08-27T18:25:41Z</time>
  <course>66.59</course>
  <speed>5.1</speed>
  <fix>3d</fix>
</trkpt>
<trkpt lat="40.0727415" lon="-105.2308871">
  <ele>1591.2</ele>
  <time>2026-08-27T18:25:41Z</time>
  <course>66.35</course>
  <speed>5.084191184446156</speed>
  <fix>3d</fix>
</trkpt>
<trkpt lat="40.0727393" lon="-105.2308941">
  <ele>1591.12</ele>
  <time>2026-08-27T18:25:41Z</time>
  <course>66.54</course>
  <speed>5.1</speed>
  <fix>3d</fix>
</trkpt>
<trkpt lat="40.0727451" lon="-105.2308761">
  <ele>1591.21</ele>
  <time>2026-08-27T18:25:41Z</time>
  <course>66.37</course>
  <speed>5.075007389157182</speed>
  <fix>3d</fix>
</trkpt>
<trkpt lat="40.0727429" lon="-105.2308831">
  <ele>1591.12</ele>
  <time>2026-08-27T18:25:41Z</time>
  <course>66.51</course>
  <speed>5.1</speed>
  <fix>3d</fix>
</trkpt>
<trkpt lat="40.0727488" lon="-105.2308651">
  <ele>1591.2</ele>
  <time>2026-08-27T18:25:42Z</time>
  <course>66.36</course>
  <speed>5.065826684757385</speed>
  <fix>3d</fix>
</trkpt>
<trkpt lat="40.0727466" lon="-105.2308721">
  <ele>1591.12</ele>
  <time>2026-08-27T18:25:42Z</time>
  <course>66.48</course>
  <speed>5.09</speed>
  <fix>3d</fix>
</trkpt>
<trkpt lat="40.0727524" lon="-105.2308542">
  <ele>1591.19</ele>
  <time>2026-08-27T18:25:42Z</time>
  <course>66.36</course>
  <speed>5.0526824558842005</speed>
  <fix>3d</fix>
</trkpt>
<trkpt lat="40.0727503" lon="-105.2308611">
  <ele>1591.12</ele>
  <time>2026-08-27T18:25:42Z</time>
  <course>66.46</course>
  <speed>5.08</speed>
  <fix>3d</fix>
</trkpt>
<trkpt lat="40.0727561" lon="-105.2308432">
  <ele>1591.19</ele>
  <time>2026-08-27T18:25:42Z</time>
  <course>66.36</course>
  <speed>5.043500768315595</speed>
  <fix>3d</fix>
</trkpt>
<trkpt lat="40.0727539" lon="-105.2308501">
  <ele>1591.11</ele>
  <time>2026-08-27T18:25:42Z</time>
  <course>66.45</course>
  <speed>5.07</speed>
  <fix>3d</fix>
</trkpt>
<trkpt lat="40.0727597" lon="-105.2308323">
  <ele>1591.18</ele>
  <time>2026-08-27T18:25:42Z</time>
  <course>66.36</course>
  <speed>5.021175161254584</speed>
  <fix>3d</fix>
</trkpt>
<trkpt lat="40.0727575" lon="-105.2308392">
  <ele>1591.11</ele>
  <time>2026-08-27T18:25:42Z</time>
  <course>66.44</course>
  <speed>5.05</speed>
  <fix>3d</fix>
</trkpt>
<trkpt lat="40.0727633" lon="-105.2308215">
  <ele>1591.18</ele>
  <time>2026-08-27T18:25:42Z</time>
  <course>66.38</course>
  <speed>5.0080335462135235</speed>
  <fix>3d</fix>
</trkpt>
<trkpt lat="40.0727611" lon="-105.2308284">
  <ele>1591.11</ele>
  <time>2026-08-27T18:25:42Z</time>
  <course>66.45</course>
  <speed>5.03</speed>
  <fix>3d</fix>
</trkpt>
<trkpt lat="40.0727669" lon="-105.2308107">
  <ele>1591.18</ele>
  <time>2026-08-27T18:25:42Z</time>
  <course>66.38</course>
  <speed>4.9896693277210264</speed>
  <fix>3d</fix>
</trkpt>
<trkpt lat="40.0727648" lon="-105.2308176">
  <ele>1591.11</ele>
  <time>2026-08-27T18:25:42Z</time>
  <course>66.45</course>
  <speed>5.02</speed>
  <fix>3d</fix>
</trkpt>
<trkpt lat="40.0727705" lon="-105.2307999">
  <ele>1591.17</ele>
  <time>2026-08-27T18:25:42Z</time>
  <course>66.38</course>
  <speed>4.976524891930111</speed>
  <fix>3d</fix>
</trkpt>
<trkpt lat="40.0727684" lon="-105.2308067">
  <ele>1591.11</ele>
  <time>2026-08-27T18:25:42Z</time>
  <course>66.45</course>
  <speed>5.0</speed>
  <fix>3d</fix>
</trkpt>
<trkpt lat="40.0727741" lon="-105.2307892">
  <ele>1591.17</ele>
  <time>2026-08-27T18:25:42Z</time>
  <course>66.38</course>
  <speed>4.967343354349485</speed>
  <fix>3d</fix>
</trkpt>
<trkpt lat="40.072772" lon="-105.230796">
  <ele>1591.11</ele>
  <time>2026-08-27T18:25:42Z</time>
  <course>66.44</course>
  <speed>4.99</speed>
  <fix>3d</fix>
</trkpt>
<trkpt lat="40.0727777" lon="-105.2307785">
  <ele>1591.17</ele>
  <time>2026-08-27T18:25:42Z</time>
  <course>66.36</course>
  <speed>4.9542002381817385</speed>
  <fix>3d</fix>
</trkpt>
<trkpt lat="40.0727756" lon="-105.2307853">
  <ele>1591.11</ele>
  <time>2026-08-27T18:25:42Z</time>
  <course>66.44</course>
  <speed>4.97</speed>
  <fix>3d</fix>
</trkpt>
<trkpt lat="40.0727813" lon="-105.2307677">
  <ele>1591.17</ele>
  <time>2026-08-27T18:25:42Z</time>
  <course>66.36</course>
  <speed>4.945017694609393</speed>
  <fix>3d</fix>
</trkpt>
<trkpt lat="40.0727792" lon="-105.2307746">
  <ele>1591.11</ele>
  <time>2026-08-27T18:25:42Z</time>
  <course>66.44</course>
  <speed>4.96</speed>
  <fix>3d</fix>
</trkpt>
<trkpt lat="40.0727848" lon="-105.230757">
  <ele>1591.18</ele>
  <time>2026-08-27T18:25:42Z</time>
  <course>66.35</course>
  <speed>4.935838327984416</speed>
  <fix>3d</fix>
</trkpt>
<trkpt lat="40.0727827" lon="-105.2307639">
  <ele>1591.11</ele>
  <time>2026-08-27T18:25:42Z</time>
  <course>66.44</course>
  <speed>4.95</speed>
  <fix>3d</fix>
</trkpt>
<trkpt lat="40.0727884" lon="-105.2307464">
  <ele>1591.18</ele>
  <time>2026-08-27T18:25:42Z</time>
  <course>66.36</course>
  <speed>4.922692352767944</speed>
  <fix>3d</fix>
</trkpt>
<trkpt lat="40.0727863" lon="-105.2307533">
  <ele>1591.11</ele>
  <time>2026-08-27T18:25:42Z</time>
  <course>66.44</course>
  <speed>4.94</speed>
  <fix>3d</fix>
</trkpt>
<trkpt lat="40.0727919" lon="-105.2307357">
  <ele>1591.18</ele>
  <time>2026-08-27T18:25:42Z</time>
  <course>66.37</course>
  <speed>4.922692352767944</speed>
  <fix>3d</fix>
</trkpt>
<trkpt lat="40.0727898" lon="-105.2307426">
  <ele>1591.11</ele>
  <time>2026-08-27T18:25:42Z</time>
  <course>66.44</course>
  <speed>4.93</speed>
  <fix>3d</fix>
</trkpt>
<trkpt lat="40.0727955" lon="-105.230725">
  <ele>1591.18</ele>
  <time>2026-08-27T18:25:42Z</time>
  <course>66.37</course>
  <speed>4.922692352767944</speed>
  <fix>3d</fix>
</trkpt>
<trkpt lat="40.0727933" lon="-105.2307319">
  <ele>1591.11</ele>
  <time>2026-08-27T18:25:42Z</time>
  <course>66.45</course>
  <speed>4.93</speed>
  <fix>3d</fix>
</trkpt>
<trkpt lat="40.072799" lon="-105.2307144">
  <ele>1591.19</ele>
  <time>2026-08-27T18:25:42Z</time>
  <course>66.39</course>
  <speed>4.922692352767944</speed>
  <fix>3d</fix>
</trkpt>
<trkpt lat="40.0727969" lon="-105.2307213">
  <ele>1591.11</ele>
  <time>2026-08-27T18:25:42Z</time>
  <course>66.46</course>
  <speed>4.93</speed>
  <fix>3d</fix>
</trkpt>
<trkpt lat="40.0728026" lon="-105.2307038">
  <ele>1591.18</ele>
  <time>2026-08-27T18:25:42Z</time>
  <course>66.38</course>
  <speed>4.922692352767944</speed>
  <fix>3d</fix>
</trkpt>
<trkpt lat="40.0728004" lon="-105.2307108">
  <ele>1591.11</ele>
  <time>2026-08-27T18:25:42Z</time>
  <course>66.47</course>
  <speed>4.93</speed>
  <fix>3d</fix>
</trkpt>
<trkpt lat="40.0728061" lon="-105.2306933">
  <ele>1591.18</ele>
  <time>2026-08-27T18:25:42Z</time>
  <course>66.39</course>
  <speed>4.922692352767944</speed>
  <fix>3d</fix>
</trkpt>
<trkpt lat="40.072804" lon="-105.2307002">
  <ele>1591.11</ele>
  <time>2026-08-27T18:25:42Z</time>
  <course>66.47</course>
  <speed>4.93</speed>
  <fix>3d</fix>
</trkpt>
<trkpt lat="40.0728096" lon="-105.2306827">
  <ele>1591.18</ele>
  <time>2026-08-27T18:25:42Z</time>
  <course>66.34</course>
  <speed>4.922692352767944</speed>
  <fix>3d</fix>
</trkpt>
<trkpt lat="40.0728075" lon="-105.2306895">
  <ele>1591.1</ele>
  <time>2026-08-27T18:25:42Z</time>
  <course>66.47</course>
  <speed>4.93</speed>
  <fix>3d</fix>
</trkpt>
<trkpt lat="40.0728132" lon="-105.2306721">
  <ele>1591.17</ele>
  <time>2026-08-27T18:25:42Z</time>
  <course>66.3</course>
  <speed>4.91351198227907</speed>
  <fix>3d</fix>
</trkpt>
<trkpt lat="40.072811" lon="-105.2306789">
  <ele>1591.1</ele>
  <time>2026-08-27T18:25:42Z</time>
  <course>66.46</course>
  <speed>4.94</speed>
  <fix>3d</fix>
</trkpt>
<trkpt lat="40.0728167" lon="-105.2306615">
  <ele>1591.18</ele>
  <time>2026-08-27T18:25:42Z</time>
  <course>66.32</course>
  <speed>4.8728328516377415</speed>
  <fix>3d</fix>
</trkpt>
<trkpt lat="40.0728146" lon="-105.2306682">
  <ele>1591.1</ele>
  <time>2026-08-27T18:25:42Z</time>
  <course>66.43</course>
  <speed>4.92</speed>
  <fix>3d</fix>
</trkpt>
<trkpt lat="40.0728202" lon="-105.2306511">
  <ele>1591.19</ele>
  <time>2026-08-27T18:25:42Z</time>
  <course>66.42</course>
  <speed>4.765175757514092</speed>
  <fix>3d</fix>
</trkpt>
<trkpt lat="40.0728181" lon="-105.2306577">
  <ele>1591.1</ele>
  <time>2026-08-27T18:25:42Z</time>
  <course>66.35</course>
  <speed>4.86</speed>
  <fix>3d</fix>
</trkpt>
<trkpt lat="40.0728236" lon="-105.230641">
  <ele>1591.21</ele>
  <time>2026-08-27T18:25:42Z</time>
  <course>66.56</course>
  <speed>4.616860405080491</speed>
  <fix>3d</fix>
</trkpt>
<trkpt lat="40.0728216" lon="-105.2306474">
  <ele>1591.12</ele>
  <time>2026-08-27T18:25:42Z</time>
  <course>66.27</course>
  <speed>4.75</speed>
  <fix>3d</fix>
</trkpt>
<trkpt lat="40.0728269" lon="-105.2306312">
  <ele>1591.22</ele>
  <time>2026-08-27T18:25:42Z</time>
  <course>66.77</course>
  <speed>4.397556139493844</speed>
  <fix>3d</fix>
</trkpt>
<trkpt lat="40.072825" lon="-105.2306373">
  <ele>1591.13</ele>
  <time>2026-08-27T18:25:42Z</time>
  <course>66.21</course>
  <speed>4.58</speed>
  <fix>3d</fix>
</trkpt>
<trkpt lat="40.07283" lon="-105.230622">
  <ele>1591.23</ele>
  <time>2026-08-27T18:25:42Z</time>
  <course>67.03</course>
  <speed>4.146757769631595</speed>
  <fix>3d</fix>
</trkpt>
<trkpt lat="40.0728282" lon="-105.2306277">
  <ele>1591.15</ele>
  <time>2026-08-27T18:25:42Z</time>
  <course>66.22</course>
  <speed>4.36</speed>
  <fix>3d</fix>
</trkpt>
<trkpt lat="40.0728329" lon="-105.2306133">
  <ele>1591.24</ele>
  <time>2026-08-27T18:25:42Z</time>
  <course>67.31</course>
  <speed>3.834162229222963</speed>
  <fix>3d</fix>
</trkpt>
<trkpt lat="40.0728313" lon="-105.2306186">
  <ele>1591.16</ele>
  <time>2026-08-27T18:25:42Z</time>
  <course>66.31</course>
  <speed>4.08</speed>
  <fix>3d</fix>
</trkpt>
<trkpt lat="40.0728356" lon="-105.2306054">
  <ele>1591.24</ele>
  <time>2026-08-27T18:25:42Z</time>
  <course>67.59</course>
  <speed>3.471743078051716</speed>
  <fix>3d</fix>
</trkpt>
<trkpt lat="40.0728341" lon="-105.2306102">
  <ele>1591.17</ele>
  <time>2026-08-27T18:25:42Z</time>
  <course>66.47</course>
  <speed>3.76</speed>
  <fix>3d</fix>
</trkpt>
<trkpt lat="40.0728379" lon="-105.2305982">
  <ele>1591.24</ele>
  <time>2026-08-27T18:25:42Z</time>
  <course>67.89</course>
  <speed>3.0739063095676813</speed>
  <fix>3d</fix>
</trkpt>
<trkpt lat="40.0728366" lon="-105.2306024">
  <ele>1591.17</ele>
  <time>2026-08-27T18:25:42Z</time>
  <course>66.69</course>
  <speed>3.4</speed>
  <fix>3d</fix>
</trkpt>
<trkpt lat="40.07284" lon="-105.2305919">
  <ele>1591.24</ele>
  <time>2026-08-27T18:25:42Z</time>
  <course>68.22</course>
  <speed>2.6353937087274075</speed>
  <fix>3d</fix>
</trkpt>
<trkpt lat="40.0728389" lon="-105.2305955">
  <ele>1591.17</ele>
  <time>2026-08-27T18:25:42Z</time>
  <course>66.96</course>
  <speed>2.98</speed>
  <fix>3d</fix>
</trkpt>
<trkpt lat="40.0728417" lon="-105.2305866">
  <ele>1591.24</ele>
  <time>2026-08-27T18:25:42Z</time>
  <course>68.54</course>
  <speed>2.1615735009478625</speed>
  <fix>3d</fix>
</trkpt>
<trkpt lat="40.0728409" lon="-105.2305896">
  <ele>1591.17</ele>
  <time>2026-08-27T18:25:42Z</time>
  <course>67.3</course>
  <speed>2.53</speed>
  <fix>3d</fix>
</trkpt>
<trkpt lat="40.072843" lon="-105.2305823">
  <ele>1591.23</ele>
  <time>2026-08-27T18:25:42Z</time>
  <course>68.94</course>
  <speed>1.6824089871371941</speed>
  <fix>3d</fix>
</trkpt>
<trkpt lat="40.0728425" lon="-105.2305846">
  <ele>1591.16</ele>
  <time>2026-08-27T18:25:42Z</time>
  <course>67.79</course>
  <speed>2.05</speed>
  <fix>3d</fix>
</trkpt>
<trkpt lat="40.072844" lon="-105.230579">
  <ele>1591.21</ele>
  <time>2026-08-27T18:25:42Z</time>
  <course>69.59</course>
  <speed>1.218400590938793</speed>
  <fix>3d</fix>
</trkpt>
<trkpt lat="40.0728437" lon="-105.2305806">
  <ele>1591.14</ele>
  <time>2026-08-27T18:25:42Z</time>
  <course>68.63</course>
  <speed>1.57</speed>
  <fix>3d</fix>
</trkpt>
<trkpt lat="40.0728447" lon="-105.2305767">
  <ele>1591.19</ele>
  <time>2026-08-27T18:25:42Z</time>
  <course>70.89</course>
  <speed>0.8000624975587844</speed>
  <fix>3d</fix>
</trkpt>
<trkpt lat="40.0728445" lon="-105.2305777">
  <ele>1591.13</ele>
  <time>2026-08-27T18:25:42Z</time>
  <course>70.17</course>
  <speed>1.11</speed>
  <fix>3d</fix>
</trkpt>
<trkpt lat="40.072845" lon="-105.2305752">
  <ele>1591.18</ele>
  <time>2026-08-27T18:25:42Z</time>
  <course>70.82</course>
  <speed>0.4589117562233506</speed>
  <fix>3d</fix>
</trkpt>
<trkpt lat="40.072845" lon="-105.2305757">
  <ele>1591.1</ele>
  <time>2026-08-27T18:25:42Z</time>
  <course>73.96</course>
  <speed>0.71</speed>
  <fix>3d</fix>
</trkpt>
<trkpt lat="40.0728451" lon="-105.2305744">
  <ele>1591.16</ele>
  <time>2026-08-27T18:25:42Z</time>
  <course>70.53</course>
  <speed>0.2009975124224178</speed>
  <fix>3d</fix>
</trkpt>
<trkpt lat="40.0728452" lon="-105.2305744">
  <ele>1591.08</ele>
  <time>2026-08-27T18:25:42Z</time>
  <course>83.36</course>
  <speed>0.38</speed>
  <fix>3d</fix>
</trkpt>
<trkpt lat="40.072845" lon="-105.2305741">
  <ele>1591.15</ele>
  <time>2026-08-27T18:25:42Z</time>
  <course>70.39</course>
  <speed>0.1</speed>
  <fix>3d</fix>
</trkpt>
<trkpt lat="40.0728453" lon="-105.2305738">
  <ele>1591.06</ele>
  <time>2026-08-27T18:25:42Z</time>
  <course>116.74</course>
  <speed>0.14</speed>
  <fix>3d</fix>
</trkpt>
<trkpt lat="40.0728448" lon="-105.2305742">
  <ele>1591.14</ele>
  <time>2026-08-27T18:25:42Z</time>
  <course>70.28</course>
  <speed>0.19849433241279207</speed>
  <fix>3d</fix>
</trkpt>
<trkpt lat="40.0728451" lon="-105.2305738">
  <ele>1591.05</ele>
  <time>2026-08-27T18:25:42Z</time>
  <course>201.98</course>
  <speed>0.15</speed>
  <fix>3d</fix>
</trkpt>
<trkpt lat="40.0728445" lon="-105.2305746">
  <ele>1591.13</ele>
  <time>2026-08-27T18:25:42Z</time>
  <course>70.21</course>
  <speed>0.28600699292150183</speed>
  <fix>3d</fix>
</trkpt>
<trkpt lat="40.0728448" lon="-105.2305741">
  <ele>1591.04</ele>
  <time>2026-08-27T18:25:42Z</time>
  <course>226.57</course>
  <speed>0.26</speed>
  <fix>3d</fix>
</trkpt>
<trkpt lat="40.0728442" lon="-105.2305752">
  <ele>1591.13</ele>
  <time>2026-08-27T18:25:42Z</time>
  <course>70.17</course>
  <speed>0.31906112267087633</speed>
  <fix>3d</fix>
</trkpt>
<trkpt lat="40.0728445" lon="-105.2305746">
  <ele>1591.04</ele>
  <time>2026-08-27T18:25:42Z</time>
  <course>234.86</course>
  <speed>0.34</speed>
  <fix>3d</fix>
</trkpt>
<trkpt lat="40.0728439" lon="-105.2305758">
  <ele>1591.14</ele>
  <time>2026-08-27T18:25:42Z</time>
  <course>70.15</course>
  <speed>0.30886890422961</speed>
  <fix>3d</fix>
</trkpt>
<trkpt lat="40.0728441" lon="-105.2305753">
  <ele>1591.05</ele>
  <time>2026-08-27T18:25:42Z</time>
  <course>239.62</course>
  <speed>0.36</speed>
  <fix>3d</fix>
</trkpt>
<trkpt lat="40.0728437" lon="-105.2305764">
  <ele>1591.14</ele>
  <time>2026-08-27T18:25:42Z</time>
  <course>70.15</course>
  <speed>0.2640075756488817</speed>
  <fix>3d</fix>
</trkpt>
<trkpt lat="40.0728438" lon="-105.230576">
  <ele>1591.05</ele>
  <time>2026-08-27T18:25:42Z</time>
  <course>243.58</course>
  <speed>0.34</speed>
  <fix>3d</fix>
</trkpt>
<trkpt lat="40.0728435" lon="-105.230577">
  <ele>1591.15</ele>
  <time>2026-08-27T18:25:42Z</time>
  <course>70.14</course>
  <speed>0.1772004514666935</speed>
  <fix>3d</fix>
</trkpt>
<trkpt lat="40.0728436" lon="-105.2305767">
  <ele>1591.06</ele>
  <time>2026-08-27T18:25:42Z</time>
  <course>248.31</course>
  <speed>0.28</speed>
  <fix>3d</fix>
</trkpt>
<trkpt lat="40.0728434" lon="-105.2305773">
  <ele>1591.15</ele>
  <time>2026-08-27T18:25:42Z</time>
  <course>70.11</course>
  <speed>0.08</speed>
  <fix>3d</fix>
</trkpt>
<trkpt lat="40.0728434" lon="-105.2305772">
  <ele>1591.06</ele>
  <time>2026-08-27T18:25:42Z</time>
  <course>256.91</course>
  <speed>0.19</speed>
  <fix>3d</fix>
</trkpt>
<trkpt lat="40.0728435" lon="-105.2305775">
  <ele>1591.15</ele>
  <time>2026-08-27T18:25:42Z</time>
  <course>70.31</course>
  <speed>0.06</speed>
  <fix>3d</fix>
</trkpt>
<trkpt lat="40.0728434" lon="-105.2305776">
  <ele>1591.07</ele>
  <time>2026-08-27T18:25:42Z</time>
  <course>281.15</course>
  <speed>0.11</speed>
  <fix>3d</fix>
</trkpt>
<trkpt lat="40.0728435" lon="-105.2305776">
  <ele>1591.12</ele>
  <time>2026-08-27T18:25:42Z</time>
  <course>70.74</course>
  <speed>0.12083045973594572</speed>
  <fix>3d</fix>
</trkpt>
<trkpt lat="40.0728435" lon="-105.2305777">
  <ele>1591.06</ele>
  <time>2026-08-27T18:25:42Z</time>
  <course>340.0</course>
  <speed>0.09</speed>
  <fix>3d</fix>
</trkpt>
<trkpt lat="40.0728438" lon="-105.2305775">
  <ele>1591.06</ele>
  <time>2026-08-27T18:25:42Z</time>
  <course>70.98</course>
  <speed>0.17804493814764857</speed>
  <fix>3d</fix>
</trkpt>
<trkpt lat="40.0728437" lon="-105.2305777">
  <ele>1591.03</ele>
  <time>2026-08-27T18:25:42Z</time>
  <course>14.9</course>
  <speed>0.14</speed>
  <fix>3d</fix>
</trkpt>
<trkpt lat="40.0728441" lon="-105.2305772">
  <ele>1590.97</ele>
  <time>2026-08-27T18:25:42Z</time>
  <course>71.0</course>
  <speed>0.22671568097509268</speed>
  <fix>3d</fix>
</trkpt>
<trkpt lat="40.0728439" lon="-105.2305777">
  <ele>1590.96</ele>
  <time>2026-08-27T18:25:42Z</time>
  <course>27.93</course>
  <speed>0.19</speed>
  <fix>3d</fix>
</trkpt>
<trkpt lat="40.0728444" lon="-105.2305769">
  <ele>1590.87</ele>
  <time>2026-08-27T18:25:42Z</time>
  <course>71.03</course>
  <speed>0.261725046566048</speed>
  <fix>3d</fix>
</trkpt>
<trkpt lat="40.0728442" lon="-105.2305774">
  <ele>1590.87</ele>
  <time>2026-08-27T18:25:42Z</time>
  <course>34.63</course>
  <speed>0.24</speed>
  <fix>3d</fix>
</trkpt>
<trkpt lat="40.0728448" lon="-105.2305765">
  <ele>1590.76</ele>
  <time>2026-08-27T18:25:42Z</time>
  <course>70.99</course>
  <speed>0.2765863337187866</speed>
  <fix>3d</fix>
</trkpt>
<trkpt lat="40.0728445" lon="-105.230577">
  <ele>1590.76</ele>
  <time>2026-08-27T18:25:42Z</time>
  <course>38.98</course>
  <speed>0.27</speed>
  <fix>3d</fix>
</trkpt>
<trkpt lat="40.0728451" lon="-105.2305761">
  <ele>1590.65</ele>
  <time>2026-08-27T18:25:42Z</time>
  <course>70.94</course>
  <speed>0.2842534080710379</speed>
  <fix>3d</fix>
</trkpt>
<trkpt lat="40.072845" lon="-105.2305766">
  <ele>1590.65</ele>
  <time>2026-08-27T18:25:42Z</time>
  <course>42.15</course>
  <speed>0.29</speed>
  <fix>3d</fix>
</trkpt>
<trkpt lat="40.0728455" lon="-105.2305756">
  <ele>1590.54</ele>
  <time>2026-08-27T18:25:42Z</time>
  <course>70.91</course>
  <speed>0.2720294101747089</speed>
  <fix>3d</fix>
</trkpt>
<trkpt lat="40.0728454" lon="-105.2305761">
  <ele>1590.54</ele>
  <time>2026-08-27T18:25:42Z</time>
  <course>44.61</course>
  <speed>0.29</speed>
  <fix>3d</fix>
</trkpt>
<trkpt lat="40.0728458" lon="-105.2305751">
  <ele>1590.43</ele>
  <time>2026-08-27T18:25:42Z</time>
  <course>70.89</course>
  <speed>0.25238858928247926</speed>
  <fix>3d</fix>
</trkpt>
<trkpt lat="40.0728457" lon="-105.2305756">
  <ele>1590.42</ele>
  <time>2026-08-27T18:25:42Z</time>
  <course>46.67</course>
  <speed>0.29</speed>
  <fix>3d</fix>
</trkpt>
<trkpt lat="40.0728461" lon="-105.2305747">
  <ele>1590.32</ele>
  <time>2026-08-27T18:25:42Z</time>
  <course>70.87</course>
  <speed>0.22472205054244232</speed>
  <fix>3d</fix>
</trkpt>
<trkpt lat="40.0728461" lon="-105.2305751">
  <ele>1590.32</ele>
  <time>2026-08-27T18:25:42Z</time>
  <course>48.55</course>
  <speed>0.27</speed>
  <fix>3d</fix>
</trkpt>
<trkpt lat="40.0728463" lon="-105.2305743">
  <ele>1590.21</ele>
  <time>2026-08-27T18:25:42Z</time>
  <course>70.85</course>
  <speed>0.19235384061671343</speed>
  <fix>3d</fix>
</trkpt>
<trkpt lat="40.0728464" lon="-105.2305746">
  <ele>1590.21</ele>
  <time>2026-08-27T18:25:42Z</time>
  <course>50.47</course>
  <speed>0.24</speed>
  <fix>3d</fix>
</trkpt>
<trkpt lat="40.0728465" lon="-105.230574">
  <ele>1590.11</ele>
  <time>2026-08-27T18:25:42Z</time>
  <course>70.86</course>
  <speed>0.15231546211727817</speed>
  <fix>3d</fix>
</trkpt>
<trkpt lat="40.0728467" lon="-105.2305743">
  <ele>1590.11</ele>
  <time>2026-08-27T18:25:42Z</time>
  <course>52.46</course>
  <speed>0.2</speed>
  <fix>3d</fix>
</trkpt>
<trkpt lat="40.0728467" lon="-105.2305737">
  <ele>1590.01</ele>
  <time>2026-08-27T18:25:42Z</time>
  <course>70.86</course>
  <speed>0.1044030650891055</speed>
  <fix>3d</fix>
</trkpt>
<trkpt lat="40.0728469" lon="-105.2305739">
  <ele>1590.01</ele>
  <time>2026-08-27T18:25:42Z</time>
  <course>54.97</course>
  <speed>0.16</speed>
  <fix>3d</fix>
</trkpt>
<trkpt lat="40.0728468" lon="-105.2305735">
  <ele>1589.91</ele>
  <time>2026-08-27T18:25:43Z</time>
  <course>70.83</course>
  <speed>0.07</speed>
  <fix>3d</fix>
</trkpt>
<trkpt lat="40.072847" lon="-105.2305736">
  <ele>1589.9</ele>
  <time>2026-08-27T18:25:43Z</time>
  <course>58.87</course>
  <speed>0.12</speed>
  <fix>3d</fix>
</trkpt>
<trkpt lat="40.0728468" lon="-105.2305733">
  <ele>1589.81</ele>
  <time>2026-08-27T18:25:43Z</time>
  <course>70.84</course>
  <speed>0.03605551275463989</speed>
  <fix>3d</fix>
</trkpt>
<trkpt lat="40.0728471" lon="-105.2305734">
  <ele>1589.8</ele>
  <time>2026-08-27T18:25:43Z</time>
  <course>65.92</course>
  <speed>0.08</speed>
  <fix>3d</fix>
</trkpt>
<trkpt lat="40.0728468" lon="-105.2305733">
  <ele>1589.7</ele>
  <time>2026-08-27T18:25:43Z</time>
  <course>70.8</course>
  <speed>0.05</speed>
  <fix>3d</fix>
</trkpt>
<trkpt lat="40.0728471" lon="-105.2305733">
  <ele>1589.7</ele>
  <time>2026-08-27T18:25:43Z</time>
  <course>85.29</course>
  <speed>0.04</speed>
  <fix>3d</fix>
</trkpt>
<trkpt lat="40.0728469" lon="-105.2305732">
  <ele>1589.6</ele>
  <time>2026-08-27T18:25:43Z</time>
  <course>70.81</course>
  <speed>0.07280109889280519</speed>
  <fix>3d</fix>
</trkpt>
<trkpt lat="40.0728471" lon="-105.2305732">
  <ele>1589.6</ele>
  <time>2026-08-27T18:25:43Z</time>
  <course>159.57</course>
  <speed>0.02</speed>
  <fix>3d</fix>
</trkpt>
<trkpt lat="40.0728468" lon="-105.2305733">
  <ele>1589.5</ele>
  <time>2026-08-27T18:25:43Z</time>
  <course>70.74</course>
  <speed>0.10295630140987001</speed>
  <fix>3d</fix>
</trkpt>
<trkpt lat="40.0728471" lon="-105.2305732">
  <ele>1589.5</ele>
  <time>2026-08-27T18:25:43Z</time>
  <course>203.39</course>
  <speed>0.05</speed>
  <fix>3d</fix>
</trkpt>
<trkpt lat="40.0728467" lon="-105.2305734">
  <ele>1589.41</ele>
  <time>2026-08-27T18:25:43Z</time>
  <course>70.72</course>
  <speed>0.130384048104053</speed>
  <fix>3d</fix>
</trkpt>
<trkpt lat="40.072847" lon="-105.2305732">
  <ele>1589.39</ele>
  <time>2026-08-27T18:25:43Z</time>
  <course>214.69</course>
  <speed>0.08</speed>
  <fix>3d</fix>
</trkpt>
<trkpt lat="40.0728465" lon="-105.2305736">
  <ele>1589.3</ele>
  <time>2026-08-27T18:25:43Z</time>
  <course>70.74</course>
  <speed>0.15</speed>
  <fix>3d</fix>
</trkpt>
<trkpt lat="40.0728469" lon="-105.2305734">
  <ele>1589.3</ele>
  <time>2026-08-27T18:25:43Z</time>
  <course>219.68</course>
  <speed>0.11</speed>
  <fix>3d</fix>
</trkpt>
<trkpt lat="40.0728464" lon="-105.2305738">
  <ele>1589.2</ele>
  <time>2026-08-27T18:25:43Z</time>
  <course>70.72</course>
  <speed>0.17029386365926402</speed>
  <fix>3d</fix>
</trkpt>
<trkpt lat="40.0728467" lon="-105.2305735">
  <ele>1589.21</ele>
  <time>2026-08-27T18:25:43Z</time>
  <course>222.42</course>
  <speed>0.13</speed>
  <fix>3d</fix>
</trkpt>
<trkpt lat="40.0728462" lon="-105.230574">
  <ele>1589.1</ele>
  <time>2026-08-27T18:25:43Z</time>
  <course>70.69</course>
  <speed>0.1769180601295413</speed>
  <fix>3d</fix>
</trkpt>
<trkpt lat="40.0728466" lon="-105.2305738">
  <ele>1589.11</ele>
  <time>2026-08-27T18:25:43Z</time>
  <course>224.29</course>
  <speed>0.14</speed>
  <fix>3d</fix>
</trkpt>
<trkpt lat="40.072846" lon="-105.2305743">
  <ele>1589.0</ele>
  <time>2026-08-27T18:25:43Z</time>
  <course>70.69</course>
  <speed>0.18384776310850234</speed>
  <fix>3d</fix>
</trkpt>
<trkpt lat="40.0728463" lon="-105.230574">
  <ele>1589.01</ele>
  <time>2026-08-27T18:25:43Z</time>
  <course>225.82</course>
  <speed>0.15</speed>
  <fix>3d</fix>
</trkpt>
<trkpt lat="40.0728458" lon="-105.2305746">
  <ele>1588.9</ele>
  <time>2026-08-27T18:25:43Z</time>
  <course>70.65</course>
  <speed>0.18384776310850234</speed>
  <fix>3d</fix>
</trkpt>
<trkpt lat="40.0728462" lon="-105.2305743">
  <ele>1588.9</ele>
  <time>2026-08-27T18:25:43Z</time>
  <course>227.13</course>
  <speed>0.16</speed>
  <fix>3d</fix>
</trkpt>
<trkpt lat="40.0728456" lon="-105.2305748">
  <ele>1588.8</ele>
  <time>2026-08-27T18:25:43Z</time>
  <course>70.62</course>
  <speed>0.18384776310850234</speed>
  <fix>3d</fix>
</trkpt>
<trkpt lat="40.072846" lon="-105.2305746">
  <ele>1588.81</ele>
  <time>2026-08-27T18:25:43Z</time>
  <course>228.36</course>
  <speed>0.16</speed>
  <fix>3d</fix>
</trkpt>
<trkpt lat="40.0728455" lon="-105.2305751">
  <ele>1588.7</ele>
  <time>2026-08-27T18:25:43Z</time>
  <course>70.59</course>
  <speed>0.1697056274847714</speed>
  <fix>3d</fix>
</trkpt>
<trkpt lat="40.0728457" lon="-105.2305749">
  <ele>1588.71</ele>
  <time>2026-08-27T18:25:43Z</time>
  <course>229.5</course>
  <speed>0.15</speed>
  <fix>3d</fix>
</trkpt>
<trkpt lat="40.0728453" lon="-105.2305754">
  <ele>1588.6</ele>
  <time>2026-08-27T18:25:43Z</time>
  <course>70.57</course>
  <speed>0.16278820596099705</speed>
  <fix>3d</fix>
</trkpt>
<trkpt lat="40.0728455" lon="-105.2305752">
  <ele>1588.61</ele>
  <time>2026-08-27T18:25:43Z</time>
  <course>230.6</course>
  <speed>0.15</speed>
  <fix>3d</fix>
</trkpt>
<trkpt lat="40.0728452" lon="-105.2305756">
  <ele>1588.5</ele>
  <time>2026-08-27T18:25:43Z</time>
  <course>70.59</course>
  <speed>0.14866068747318506</speed>
  <fix>3d</fix>
</trkpt>
<trkpt lat="40.0728454" lon="-105.2305754">
  <ele>1588.52</ele>
  <time>2026-08-27T18:25:43Z</time>
  <course>231.71</course>
  <speed>0.13</speed>
  <fix>3d</fix>
</trkpt>
<trkpt lat="40.072845" lon="-105.2305759">
  <ele>1588.41</ele>
  <time>2026-08-27T18:25:43Z</time>
  <course>70.61</course>
  <speed>0.12041594578792296</speed>
  <fix>3d</fix>
</trkpt>
<trkpt lat="40.0728453" lon="-105.2305757">
  <ele>1588.41</ele>
  <time>2026-08-27T18:25:43Z</time>
  <course>232.97</course>
  <speed>0.12</speed>
  <fix>3d</fix>
</trkpt>
<trkpt lat="40.0728449" lon="-105.230576">
  <ele>1588.31</ele>
  <time>2026-08-27T18:25:43Z</time>
  <course>70.59</course>
  <speed>0.1063014581273465</speed>
  <fix>3d</fix>
</trkpt>
<trkpt lat="40.0728451" lon="-105.2305758">
  <ele>1588.32</ele>
  <time>2026-08-27T18:25:43Z</time>
  <course>234.58</course>
  <speed>0.1</speed>
  <fix>3d</fix>
</trkpt>
<trkpt lat="40.0728449" lon="-105.2305762">
  <ele>1588.21</ele>
  <time>2026-08-27T18:25:43Z</time>
  <course>70.58</course>
  <speed>0.07810249675906654</speed>
  <fix>3d</fix>
</trkpt>
<trkpt lat="40.072845" lon="-105.2305761">
  <ele>1588.22</ele>
  <time>2026-08-27T18:25:43Z</time>
  <course>236.72</course>
  <speed>0.08</speed>
  <fix>3d</fix>
</trkpt>
<trkpt lat="40.0728448" lon="-105.2305763">
  <ele>1588.11</ele>
  <time>2026-08-27T18:25:43Z</time>
  <course>70.57</course>
  <speed>0.06403124237432849</speed>
  <fix>3d</fix>
</trkpt>
<trkpt lat="40.072845" lon="-105.2305762">
  <ele>1588.12</ele>
  <time>2026-08-27T18:25:43Z</time>
  <course>239.76</course>
  <speed>0.06</speed>
  <fix>3d</fix>
</trkpt>
<trkpt lat="40.0728448" lon="-105.2305764">
  <ele>1588.01</ele>
  <time>2026-08-27T18:25:43Z</time>
  <course>70.56</course>
  <speed>0.04242640687119285</speed>
  <fix>3d</fix>
</trkpt>
<trkpt lat="40.0728449" lon="-105.2305763">
  <ele>1588.02</ele>
  <time>2026-08-27T18:25:43Z</time>
  <course>244.97</course>
  <speed>0.04</speed>
  <fix>3d</fix>
</trkpt>
<trkpt lat="40.0728448" lon="-105.2305765">
  <ele>1587.9</ele>
  <time>2026-08-27T18:25:43Z</time>
  <course>70.56</course>
  <speed>0.0282842712474619</speed>
  <fix>3d</fix>
</trkpt>
<trkpt lat="40.0728449" lon="-105.2305764">
  <ele>1587.92</ele>
  <time>2026-08-27T18:25:43Z</time>
  <course>256.31</course>
  <speed>0.02</speed>
  <fix>3d</fix>
</trkpt>
<trkpt lat="40.0728448" lon="-105.2305765">
  <ele>1587.8</ele>
  <time>2026-08-27T18:25:43Z</time>
  <course>70.55</course>
  <speed>0.01414213562373095</speed>
  <fix>3d</fix>
</trkpt>
<trkpt lat="40.0728449" lon="-105.2305765">
  <ele>1587.83</ele>
  <time>2026-08-27T18:25:43Z</time>
  <course>293.85</course>
  <speed>0.01</speed>
  <fix>3d</fix>
</trkpt>
<trkpt lat="40.0728448" lon="-105.2305765">
  <ele>1587.71</ele>
  <time>2026-08-27T18:25:43Z</time>
  <course>70.54</course>
  <speed>0.0</speed>
  <fix>3d</fix>
</trkpt>
<trkpt lat="40.0728449" lon="-105.2305765">
  <ele>1587.73</ele>
  <time>2026-08-27T18:25:43Z</time>
  <course>6.57</course>
  <speed>0.01</speed>
  <fix>3d</fix>
</trkpt>
<trkpt lat="40.0728448" lon="-105.2305764">
  <ele>1587.61</ele>
  <time>2026-08-27T18:25:43Z</time>
  <course>70.53</course>
  <speed>0.0</speed>
  <fix>3d</fix>
</trkpt>
<trkpt lat="40.072845" lon="-105.2305765">
  <ele>1587.63</ele>
  <time>2026-08-27T18:25:43Z</time>
  <course>29.71</course>
  <speed>0.02</speed>
  <fix>3d</fix>
</trkpt>
<trkpt lat="40.0728448" lon="-105.2305764">
  <ele>1587.51</ele>
  <time>2026-08-27T18:25:43Z</time>
  <course>70.55</course>
  <speed>0.01</speed>
  <fix>3d</fix>
</trkpt>
<trkpt lat="40.072845" lon="-105.2305765">
  <ele>1587.53</ele>
  <time>2026-08-27T18:25:43Z</time>
  <course>37.6</course>
  <speed>0.03</speed>
  <fix>3d</fix>
</trkpt>
<trkpt lat="40.0728449" lon="-105.2305764">
  <ele>1587.41</ele>
  <time>2026-08-27T18:25:43Z</time>
  <course>70.52</course>
  <speed>0.022360679774997897</speed>
  <fix>3d</fix>
</trkpt>
<trkpt lat="40.072845" lon="-105.2305764">
  <ele>1587.42</ele>
  <time>2026-08-27T18:25:43Z</time>
  <course>41.88</course>
  <speed>0.04</speed>
  <fix>3d</fix>
</trkpt>
<trkpt lat="40.0728449" lon="-105.2305764">
  <ele>1587.31</ele>
  <time>2026-08-27T18:25:43Z</time>
  <course>70.54</course>
  <speed>0.022360679774997897</speed>
  <fix>3d</fix>
</trkpt>
<trkpt lat="40.072845" lon="-105.2305763">
  <ele>1587.33</ele>
  <time>2026-08-27T18:25:43Z</time>
  <course>45.14</course>
  <speed>0.05</speed>
  <fix>3d</fix>
</trkpt>
<trkpt lat="40.072845" lon="-105.2305763">
  <ele>1587.21</ele>
  <time>2026-08-27T18:25:43Z</time>
  <course>70.52</course>
  <speed>0.0316227766016838</speed>
  <fix>3d</fix>
</trkpt>
<trkpt lat="40.0728451" lon="-105.2305762">
  <ele>1587.23</ele>
  <time>2026-08-27T18:25:43Z</time>
  <course>47.78</course>
  <speed>0.05</speed>
  <fix>3d</fix>
</trkpt>
<trkpt lat="40.072845" lon="-105.2305762">
  <ele>1587.11</ele>
  <time>2026-08-27T18:25:43Z</time>
  <course>70.52</course>
  <speed>0.0316227766016838</speed>
  <fix>3d</fix>
</trkpt>
<trkpt lat="40.0728451" lon="-105.2305761">
  <ele>1587.13</ele>
  <time>2026-08-27T18:25:43Z</time>
  <course>50.03</course>
  <speed>0.05</speed>
  <fix>3d</fix>
</trkpt>
<trkpt lat="40.0728451" lon="-105.2305761">
  <ele>1587.01</ele>
  <time>2026-08-27T18:25:43Z</time>
  <course>70.53</course>
  <speed>0.03</speed>
  <fix>3d</fix>
</trkpt>
<trkpt lat="40.0728452" lon="-105.230576">
  <ele>1587.03</ele>
  <time>2026-08-27T18:25:43Z</time>
  <course>51.52</course>
  <speed>0.05</speed>
  <fix>3d</fix>
</trkpt>
<trkpt lat="40.0728451" lon="-105.230576">
  <ele>1586.91</ele>
  <time>2026-08-27T18:25:43Z</time>
  <course>70.51</course>
  <speed>0.02</speed>
  <fix>3d</fix>
</trkpt>
<trkpt lat="40.0728453" lon="-105.2305759">
  <ele>1586.92</ele>
  <time>2026-08-27T18:25:43Z</time>
  <course>52.71</course>
  <speed>0.05</speed>
  <fix>3d</fix>
</trkpt>
<trkpt lat="40.0728452" lon="-105.2305759">
  <ele>1586.81</ele>
  <time>2026-08-27T18:25:43Z</time>
  <course>70.52</course>
  <speed>0.02</speed>
  <fix>3d</fix>
</trkpt>
<trkpt lat="40.0728453" lon="-105.2305758">
  <ele>1586.83</ele>
  <time>2026-08-27T18:25:43Z</time>
  <course>53.81</course>
  <speed>0.05</speed>
  <fix>3d</fix>
</trkpt>
<trkpt lat="40.0728452" lon="-105.2305758">
  <ele>1586.71</ele>
  <time>2026-08-27T18:25:43Z</time>
  <course>70.51</course>
  <speed>0.02</speed>
  <fix>3d</fix>
</trkpt>
<trkpt lat="40.0728454" lon="-105.2305758">
  <ele>1586.73</ele>
  <time>2026-08-27T18:25:43Z</time>
  <course>54.72</course>
  <speed>0.04</speed>
  <fix>3d</fix>
</trkpt>
<trkpt lat="40.0728453" lon="-105.2305757">
  <ele>1586.61</ele>
  <time>2026-08-27T18:25:43Z</time>
  <course>70.5</course>
  <speed>0.01</speed>
  <fix>3d</fix>
</trkpt>
<trkpt lat="40.0728454" lon="-105.2305757">
  <ele>1586.63</ele>
  <time>2026-08-27T18:25:43Z</time>
  <course>56.08</course>
  <speed>0.03</speed>
  <fix>3d</fix>
</trkpt>
<trkpt lat="40.0728453" lon="-105.2305757">
  <ele>1586.51</ele>
  <time>2026-08-27T18:25:43Z</time>
  <course>70.5</course>
  <speed>0.01</speed>
  <fix>3d</fix>
</trkpt>
<trkpt lat="40.0728455" lon="-105.2305756">
  <ele>1586.53</ele>
  <time>2026-08-27T18:25:43Z</time>
  <course>57.99</course>
  <speed>0.03</speed>
  <fix>3d</fix>
</trkpt>
<trkpt lat="40.0728453" lon="-105.2305756">
  <ele>1586.42</ele>
  <time>2026-08-27T18:25:43Z</time>
  <course>70.51</course>
  <speed>0.01</speed>
  <fix>3d</fix>
</trkpt>
<trkpt lat="40.0728455" lon="-105.2305756">
  <ele>1586.42</ele>
  <time>2026-08-27T18:25:43Z</time>
  <course>60.11</course>
  <speed>0.02</speed>
  <fix>3d</fix>
</trkpt>
<trkpt lat="40.0728453" lon="-105.2305756">
  <ele>1586.32</ele>
  <time>2026-08-27T18:25:43Z</time>
  <course>70.48</course>
  <speed>0.01</speed>
  <fix>3d</fix>
</trkpt>
<trkpt lat="40.0728455" lon="-105.2305755">
  <ele>1586.33</ele>
  <time>2026-08-27T18:25:43Z</time>
  <course>63.78</course>
  <speed>0.01</speed>
  <fix>3d</fix>
</trkpt>
<trkpt lat="40.0728453" lon="-105.2305756">
  <ele>1586.22</ele>
  <time>2026-08-27T18:25:43Z</time>
  <course>70.48</course>
  <speed>0.02</speed>
  <fix>3d</fix>
</trkpt>
<trkpt lat="40.0728455" lon="-105.2305755">
  <ele>1586.23</ele>
  <time>2026-08-27T18:25:43Z</time>
  <course>73.28</course>
  <speed>0.0</speed>
  <fix>3d</fix>
</trkpt>
<trkpt lat="40.0728453" lon="-105.2305756">
  <ele>1586.13</ele>
  <time>2026-08-27T18:25:43Z</time>
  <course>70.49</course>
  <speed>0.01</speed>
  <fix>3d</fix>
</trkpt>
<trkpt lat="40.0728456" lon="-105.2305755">
  <ele>1586.13</ele>
  <time>2026-08-27T18:25:43Z</time>
  <course>60.81</course>
  <speed>0.0</speed>
  <fix>3d</fix>
</trkpt>
<trkpt lat="40.0728454" lon="-105.2305756">
  <ele>1586.14</ele>
  <time>2026-08-27T18:25:43Z</time>
  <course>70.51</course>
  <speed>0.01414213562373095</speed>
  <fix>3d</fix>
</trkpt>
<trkpt lat="40.0728456" lon="-105.2305755">
  <ele>1586.07</ele>
  <time>2026-08-27T18:25:43Z</time>
  <course>345.36</course>
  <speed>0.0</speed>
  <fix>3d</fix>
</trkpt>
<trkpt lat="40.0728454" lon="-105.2305756">
  <ele>1586.14</ele>
  <time>2026-08-27T18:25:43Z</time>
  <course>70.54</course>
  <speed>0.02</speed>
  <fix>3d</fix>
</trkpt>
<trkpt lat="40.0728456" lon="-105.2305755">
  <ele>1586.07</ele>
  <time>2026-08-27T18:25:43Z</time>
  <course>355.63</course>
  <speed>0.0</speed>
  <fix>3d</fix>
</trkpt>
<trkpt lat="40.0728454" lon="-105.2305756">
  <ele>1586.13</ele>
  <time>2026-08-27T18:25:43Z</time>
  <course>70.58</course>
  <speed>0.01414213562373095</speed>
  <fix>3d</fix>
</trkpt>
<trkpt lat="40.0728456" lon="-105.2305755">
  <ele>1586.09</ele>
  <time>2026-08-27T18:25:43Z</time>
  <course>145.02</course>
  <speed>0.0</speed>
  <fix>3d</fix>
</trkpt>
<trkpt lat="40.0728454" lon="-105.2305756">
  <ele>1586.13</ele>
  <time>2026-08-27T18:25:43Z</time>
  <course>70.62</course>
  <speed>0.01414213562373095</speed>
  <fix>3d</fix>
</trkpt>
<trkpt lat="40.0728456" lon="-105.2305755">
  <ele>1586.08</ele>
  <time>2026-08-27T18:25:43Z</time>
  <course>172.19</course>
  <speed>0.0</speed>
  <fix>3d</fix>
</trkpt>
<trkpt lat="40.0728454" lon="-105.2305756">
  <ele>1586.13</ele>
  <time>2026-08-27T18:25:43Z</time>
  <course>70.65</course>
  <speed>0.01414213562373095</speed>
  <fix>3d</fix>
</trkpt>
<trkpt lat="40.0728456" lon="-105.2305755">
  <ele>1586.08</ele>
  <time>2026-08-27T18:25:43Z</time>
  <course>47.69</course>
  <speed>0.0</speed>
  <fix>3d</fix>
</trkpt>
<trkpt lat="40.0728454" lon="-105.2305756">
  <ele>1586.13</ele>
  <time>2026-08-27T18:25:43Z</time>
  <course>70.68</course>
  <speed>0.01414213562373095</speed>
  <fix>3d</fix>
</trkpt>
<trkpt lat="40.0728456" lon="-105.2305755">
  <ele>1586.08</ele>
  <time>2026-08-27T18:25:43Z</time>
  <course>111.46</course>
  <speed>0.0</speed>
  <fix>3d</fix>
</trkpt>
<trkpt lat="40.0728454" lon="-105.2305756">
  <ele>1586.13</ele>
  <time>2026-08-27T18:25:43Z</time>
  <course>70.71</course>
  <speed>0.01</speed>
  <fix>3d</fix>
</trkpt>
<trkpt lat="40.0728456" lon="-105.2305755">
  <ele>1586.08</ele>
  <time>2026-08-27T18:25:43Z</time>
  <course>60.7</course>
  <speed>0.0</speed>
  <fix>3d</fix>
</trkpt>
<trkpt lat="40.0728454" lon="-105.2305756">
  <ele>1586.14</ele>
  <time>2026-08-27T18:25:43Z</time>
  <course>70.73</course>
  <speed>0.01</speed>
  <fix>3d</fix>
</trkpt>
<trkpt lat="40.0728456" lon="-105.2305755">
  <ele>1586.08</ele>
  <time>2026-08-27T18:25:43Z</time>
  <course>37.62</course>
  <speed>0.0</speed>
  <fix>3d</fix>
</trkpt>
<trkpt lat="40.0728454" lon="-105.2305756">
  <ele>1586.14</ele>
  <time>2026-08-27T18:25:43Z</time>
  <course>70.76</course>
  <speed>0.01</speed>
  <fix>3d</fix>
</trkpt>
<trkpt lat="40.0728456" lon="-105.2305755">
  <ele>1586.08</ele>
  <time>2026-08-27T18:25:43Z</time>
  <course>52.73</course>
  <speed>0.0</speed>
  <fix>3d</fix>
</trkpt>
<trkpt lat="40.0728454" lon="-105.2305756">
  <ele>1586.14</ele>
  <time>2026-08-27T18:25:43Z</time>
  <course>70.78</course>
  <speed>0.02</speed>
  <fix>3d</fix>
</trkpt>
<trkpt lat="40.0728456" lon="-105.2305755">
  <ele>1586.08</ele>
  <time>2026-08-27T18:25:43Z</time>
  <course>123.67</course>
  <speed>0.0</speed>
  <fix>3d</fix>
</trkpt>
<trkpt lat="40.0728454" lon="-105.2305756">
  <ele>1586.14</ele>
  <time>2026-08-27T18:25:43Z</time>
  <course>70.78</course>
  <speed>0.02</speed>
  <fix>3d</fix>
</trkpt>
<trkpt lat="40.0728456" lon="-105.2305755">
  <ele>1586.08</ele>
  <time>2026-08-27T18:25:43Z</time>
  <course>161.49</course>
  <speed>0.0</speed>
  <fix>3d</fix>
</trkpt>
<trkpt lat="40.0728454" lon="-105.2305756">
  <ele>1586.15</ele>
  <time>2026-08-27T18:25:43Z</time>
  <course>70.76</course>
  <speed>0.01</speed>
  <fix>3d</fix>
</trkpt>
<trkpt lat="40.0728456" lon="-105.2305755">
  <ele>1586.08</ele>
  <time>2026-08-27T18:25:43Z</time>
  <course>165.41</course>
  <speed>0.01</speed>
  <fix>3d</fix>
</trkpt>
<trkpt lat="40.0728454" lon="-105.2305756">
  <ele>1586.15</ele>
  <time>2026-08-27T18:25:43Z</time>
  <course>70.74</course>
  <speed>0.01414213562373095</speed>
  <fix>3d</fix>
</trkpt>
<trkpt lat="40.0728456" lon="-105.2305755">
  <ele>1586.08</ele>
  <time>2026-08-27T18:25:43Z</time>
  <course>187.01</course>
  <speed>0.0</speed>
  <fix>3d</fix>
</trkpt>
<trkpt lat="40.0728454" lon="-105.2305756">
  <ele>1586.15</ele>
  <time>2026-08-27T18:25:43Z</time>
  <course>70.73</course>
  <speed>0.01</speed>
  <fix>3d</fix>
</trkpt>
<trkpt lat="40.0728456" lon="-105.2305755">
  <ele>1586.08</ele>
  <time>2026-08-27T18:25:43Z</time>
  <course>320.62</course>
  <speed>0.0</speed>
  <fix>3d</fix>
</trkpt>
<trkpt lat="40.0728454" lon="-105.2305756">
  <ele>1586.16</ele>
  <time>2026-08-27T18:25:43Z</time>
  <course>70.73</course>
  <speed>0.01</speed>
  <fix>3d</fix>
</trkpt>
<trkpt lat="40.0728456" lon="-105.2305755">
  <ele>1586.08</ele>
  <time>2026-08-27T18:25:43Z</time>
  <course>309.64</course>
  <speed>0.0</speed>
  <fix>3d</fix>
</trkpt>
<trkpt lat="40.0728454" lon="-105.2305756">
  <ele>1586.16</ele>
  <time>2026-08-27T18:25:43Z</time>
  <course>70.72</course>
  <speed>0.01</speed>
  <fix>3d</fix>
</trkpt>
<trkpt lat="40.0728456" lon="-105.2305755">
  <ele>1586.08</ele>
  <time>2026-08-27T18:25:43Z</time>
  <course>293.01</course>
  <speed>0.0</speed>
  <fix>3d</fix>
</trkpt>
<trkpt lat="40.0728454" lon="-105.2305756">
  <ele>1586.16</ele>
  <time>2026-08-27T18:25:43Z</time>
  <course>70.72</course>
  <speed>0.01</speed>
  <fix>3d</fix>
</trkpt>
<trkpt lat="40.0728456" lon="-105.2305755">
  <ele>1586.08</ele>
  <time>2026-08-27T18:25:43Z</time>
  <course>295.65</course>
  <speed>0.0</speed>
  <fix>3d</fix>
</trkpt>
<trkpt lat="40.0728454" lon="-105.2305756">
  <ele>1586.15</ele>
  <time>2026-08-27T18:25:43Z</time>
  <course>70.72</course>
  <speed>0.01</speed>
  <fix>3d</fix>
</trkpt>
<trkpt lat="40.0728456" lon="-105.2305755">
  <ele>1586.08</ele>
  <time>2026-08-27T18:25:43Z</time>
  <course>321.98</course>
  <speed>0.0</speed>
  <fix>3d</fix>
</trkpt>
<trkpt lat="40.0728454" lon="-105.2305756">
  <ele>1586.15</ele>
  <time>2026-08-27T18:25:43Z</time>
  <course>70.72</course>
  <speed>0.01</speed>
  <fix>3d</fix>
</trkpt>
<trkpt lat="40.0728456" lon="-105.2305755">
  <ele>1586.08</ele>
  <time>2026-08-27T18:25:43Z</time>
  <course>31.96</course>
  <speed>0.0</speed>
  <fix>3d</fix>
</trkpt>
<trkpt lat="40.0728454" lon="-105.2305756">
  <ele>1586.15</ele>
  <time>2026-08-27T18:25:43Z</time>
  <course>70.72</course>
  <speed>0.01</speed>
  <fix>3d</fix>
</trkpt>
<trkpt lat="40.0728456" lon="-105.2305755">
  <ele>1586.08</ele>
  <time>2026-08-27T18:25:43Z</time>
  <course>343.0</course>
  <speed>0.0</speed>
  <fix>3d</fix>
</trkpt>
<trkpt lat="40.0728454" lon="-105.2305756">
  <ele>1586.15</ele>
  <time>2026-08-27T18:25:43Z</time>
  <course>70.72</course>
  <speed>0.01</speed>
  <fix>3d</fix>
</trkpt>
<trkpt lat="40.0728456" lon="-105.2305755">
  <ele>1586.08</ele>
  <time>2026-08-27T18:25:43Z</time>
  <course>336.49</course>
  <speed>0.0</speed>
  <fix>3d</fix>
</trkpt>
<trkpt lat="40.0728454" lon="-105.2305756">
  <ele>1586.15</ele>
  <time>2026-08-27T18:25:43Z</time>
  <course>70.72</course>
  <speed>0.01</speed>
  <fix>3d</fix>
</trkpt>
<trkpt lat="40.0728456" lon="-105.2305755">
  <ele>1586.08</ele>
  <time>2026-08-27T18:25:43Z</time>
  <course>343.12</course>
  <speed>0.0</speed>
  <fix>3d</fix>
</trkpt>
<trkpt lat="40.0728454" lon="-105.2305756">
  <ele>1586.15</ele>
  <time>2026-08-27T18:25:43Z</time>
  <course>70.72</course>
  <speed>0.01</speed>
  <fix>3d</fix>
</trkpt>
<trkpt lat="40.0728456" lon="-105.2305755">
  <ele>1586.08</ele>
  <time>2026-08-27T18:25:43Z</time>
  <course>343.9</course>
  <speed>0.0</speed>
  <fix>3d</fix>
</trkpt>
<trkpt lat="40.0728454" lon="-105.2305756">
  <ele>1586.15</ele>
  <time>2026-08-27T18:25:43Z</time>
  <course>70.72</course>
  <speed>0.01</speed>
  <fix>3d</fix>
</trkpt>
<trkpt lat="40.0728456" lon="-105.2305755">
  <ele>1586.08</ele>
  <time>2026-08-27T18:25:43Z</time>
  <course>342.98</course>
  <speed>0.0</speed>
  <fix>3d</fix>
</trkpt>
<trkpt lat="40.0728454" lon="-105.2305756">
  <ele>1586.15</ele>
  <time>2026-08-27T18:25:43Z</time>
  <course>70.72</course>
  <speed>0.01</speed>
  <fix>3d</fix>
</trkpt>
<trkpt lat="40.0728456" lon="-105.2305755">
  <ele>1586.08</ele>
  <time>2026-08-27T18:25:43Z</time>
  <course>343.54</course>
  <speed>0.0</speed>
  <fix>3d</fix>
</trkpt>
<trkpt lat="40.0728454" lon="-105.2305756">
  <ele>1586.15</ele>
  <time>2026-08-27T18:25:43Z</time>
  <course>70.72</course>
  <speed>0.01</speed>
  <fix>3d</fix>
</trkpt>
<trkpt lat="40.0728456" lon="-105.2305755">
  <ele>1586.08</ele>
  <time>2026-08-27T18:25:43Z</time>
  <course>344.25</course>
  <speed>0.0</speed>
  <fix>3d</fix>
</trkpt>
<trkpt lat="40.0728454" lon="-105.2305756">
  <ele>1586.15</ele>
  <time>2026-08-27T18:25:43Z</time>
  <course>70.72</course>
  <speed>0.01</speed>
  <fix>3d</fix>
</trkpt>
<trkpt lat="40.0728456" lon="-105.2305755">
  <ele>1586.08</ele>
  <time>2026-08-27T18:25:43Z</time>
  <course>344.74</course>
  <speed>0.0</speed>
  <fix>3d</fix>
</trkpt>
<trkpt lat="40.0728454" lon="-105.2305756">
  <ele>1586.15</ele>
  <time>2026-08-27T18:25:43Z</time>
  <course>70.72</course>
  <speed>0.01</speed>
  <fix>3d</fix>
</trkpt>
<trkpt lat="40.0728456" lon="-105.2305755">
  <ele>1586.08</ele>
  <time>2026-08-27T18:25:43Z</time>
  <course>345.29</course>
  <speed>0.0</speed>
  <fix>3d</fix>
</trkpt>
<trkpt lat="40.0728454" lon="-105.2305756">
  <ele>1586.15</ele>
  <time>2026-08-27T18:25:43Z</time>
  <course>70.72</course>
  <speed>0.01</speed>
  <fix>3d</fix>
</trkpt>
<trkpt lat="40.0728456" lon="-105.2305755">
  <ele>1586.08</ele>
  <time>2026-08-27T18:25:43Z</time>
  <course>345.92</course>
  <speed>0.0</speed>
  <fix>3d</fix>
</trkpt>
<trkpt lat="40.0728454" lon="-105.2305756">
  <ele>1586.15</ele>
  <time>2026-08-27T18:25:43Z</time>
  <course>70.72</course>
  <speed>0.01</speed>
  <fix>3d</fix>
</trkpt>
<trkpt lat="40.0728456" lon="-105.2305755">
  <ele>1586.08</ele>
  <time>2026-08-27T18:25:43Z</time>
  <course>346.6</course>
  <speed>0.0</speed>
  <fix>3d</fix>
</trkpt>
<trkpt lat="40.0728454" lon="-105.2305756">
  <ele>1586.15</ele>
  <time>2026-08-27T18:25:43Z</time>
  <course>70.72</course>
  <speed>0.01</speed>
  <fix>3d</fix>
</trkpt>
<trkpt lat="40.0728456" lon="-105.2305755">
  <ele>1586.08</ele>
  <time>2026-08-27T18:25:43Z</time>
  <course>347.31</course>
  <speed>0.0</speed>
  <fix>3d</fix>
</trkpt>
<trkpt lat="40.0728454" lon="-105.2305756">
  <ele>1586.15</ele>
  <time>2026-08-27T18:25:43Z</time>
  <course>70.72</course>
  <speed>0.01</speed>
  <fix>3d</fix>
</trkpt>
<trkpt lat="40.0728456" lon="-105.2305755">
  <ele>1586.08</ele>
  <time>2026-08-27T18:25:43Z</time>
  <course>348.07</course>
  <speed>0.0</speed>
  <fix>3d</fix>
</trkpt>
<trkpt lat="40.0728454" lon="-105.2305756">
  <ele>1586.15</ele>
  <time>2026-08-27T18:25:43Z</time>
  <course>70.72</course>
  <speed>0.01</speed>
  <fix>3d</fix>
</trkpt>
<trkpt lat="40.0728456" lon="-105.2305755">
  <ele>1586.08</ele>
  <time>2026-08-27T18:25:43Z</time>
  <course>348.87</course>
  <speed>0.0</speed>
  <fix>3d</fix>
</trkpt>
<trkpt lat="40.0728454" lon="-105.2305756">
  <ele>1586.15</ele>
  <time>2026-08-27T18:25:43Z</time>
  <course>70.72</course>
  <speed>0.01</speed>
  <fix>3d</fix>
</trkpt>
<trkpt lat="40.0728456" lon="-105.2305755">
  <ele>1586.08</ele>
  <time>2026-08-27T18:25:43Z</time>
  <course>349.72</course>
  <speed>0.0</speed>
  <fix>3d</fix>
</trkpt>
<trkpt lat="40.0728454" lon="-105.2305756">
  <ele>1586.16</ele>
  <time>2026-08-27T18:25:43Z</time>
  <course>70.72</course>
  <speed>0.02</speed>
  <fix>3d</fix>
</trkpt>
<trkpt lat="40.0728456" lon="-105.2305755">
  <ele>1586.08</ele>
  <time>2026-08-27T18:25:43Z</time>
  <course>350.6</course>
  <speed>0.0</speed>
  <fix>3d</fix>
</trkpt>
<trkpt lat="40.0728454" lon="-105.2305756">
  <ele>1586.16</ele>
  <time>2026-08-27T18:25:43Z</time>
  <course>70.72</course>
  <speed>0.02</speed>
  <fix>3d</fix>
</trkpt>
<trkpt lat="40.0728456" lon="-105.2305755">
  <ele>1586.08</ele>
  <time>2026-08-27T18:25:43Z</time>
  <course>351.53</course>
  <speed>0.0</speed>
  <fix>3d</fix>
</trkpt>
<trkpt lat="40.0728454" lon="-105.2305756">
  <ele>1586.16</ele>
  <time>2026-08-27T18:25:43Z</time>
  <course>70.72</course>
  <speed>0.02</speed>
  <fix>3d</fix>
</trkpt>
<trkpt lat="40.0728456" lon="-105.2305755">
  <ele>1586.08</ele>
  <time>2026-08-27T18:25:43Z</time>
  <course>352.5</course>
  <speed>0.0</speed>
  <fix>3d</fix>
</trkpt>
<trkpt lat="40.0728454" lon="-105.2305756">
  <ele>1586.16</ele>
  <time>2026-08-27T18:25:44Z</time>
  <course>70.73</course>
  <speed>0.02</speed>
  <fix>3d</fix>
</trkpt>
<trkpt lat="40.0728456" lon="-105.2305755">
  <ele>1586.08</ele>
  <time>2026-08-27T18:25:44Z</time>
  <course>353.5</course>
  <speed>0.0</speed>
  <fix>3d</fix>
</trkpt>
<trkpt lat="40.0728454" lon="-105.2305756">
  <ele>1586.16</ele>
  <time>2026-08-27T18:25:44Z</time>
  <course>70.73</course>
  <speed>0.02</speed>
  <fix>3d</fix>
</trkpt>
<trkpt lat="40.0728456" lon="-105.2305755">
  <ele>1586.08</ele>
  <time>2026-08-27T18:25:44Z</time>
  <course>354.53</course>
  <speed>0.0</speed>
  <fix>3d</fix>
</trkpt>
<trkpt lat="40.0728454" lon="-105.2305756">
  <ele>1586.16</ele>
  <time>2026-08-27T18:25:44Z</time>
  <course>70.73</course>
  <speed>0.02</speed>
  <fix>3d</fix>
</trkpt>
<trkpt lat="40.0728456" lon="-105.2305755">
  <ele>1586.08</ele>
  <time>2026-08-27T18:25:44Z</time>
  <course>355.6</course>
  <speed>0.0</speed>
  <fix>3d</fix>
</trkpt>
<trkpt lat="40.0728454" lon="-105.2305756">
  <ele>1586.16</ele>
  <time>2026-08-27T18:25:44Z</time>
  <course>70.73</course>
  <speed>0.02</speed>
  <fix>3d</fix>
</trkpt>
<trkpt lat="40.0728456" lon="-105.2305755">
  <ele>1586.08</ele>
  <time>2026-08-27T18:25:44Z</time>
  <course>356.69</course>
  <speed>0.0</speed>
  <fix>3d</fix>
</trkpt>
<trkpt lat="40.0728454" lon="-105.2305756">
  <ele>1586.16</ele>
  <time>2026-08-27T18:25:44Z</time>
  <course>70.73</course>
  <speed>0.02</speed>
  <fix>3d</fix>
</trkpt>
<trkpt lat="40.0728456" lon="-105.2305755">
  <ele>1586.08</ele>
  <time>2026-08-27T18:25:44Z</time>
  <course>357.8</course>
  <speed>0.0</speed>
  <fix>3d</fix>
</trkpt>
<trkpt lat="40.0728454" lon="-105.2305756">
  <ele>1586.16</ele>
  <time>2026-08-27T18:25:44Z</time>
  <course>70.73</course>
  <speed>0.02</speed>
  <fix>3d</fix>
</trkpt>
<trkpt lat="40.0728456" lon="-105.2305755">
  <ele>1586.08</ele>
  <time>2026-08-27T18:25:44Z</time>
  <course>358.93</course>
  <speed>0.0</speed>
  <fix>3d</fix>
</trkpt>
<trkpt lat="40.0728454" lon="-105.2305756">
  <ele>1586.16</ele>
  <time>2026-08-27T18:25:44Z</time>
  <course>70.73</course>
  <speed>0.02</speed>
  <fix>3d</fix>
</trkpt>
<trkpt lat="40.0728456" lon="-105.2305755">
  <ele>1586.08</ele>
  <time>2026-08-27T18:25:44Z</time>
  <course>0.08</course>
  <speed>0.0</speed>
  <fix>3d</fix>
</trkpt>
<trkpt lat="40.0728454" lon="-105.2305756">
  <ele>1586.16</ele>
  <time>2026-08-27T18:25:44Z</time>
  <course>70.73</course>
  <speed>0.02</speed>
  <fix>3d</fix>
</trkpt>
<trkpt lat="40.0728456" lon="-105.2305755">
  <ele>1586.08</ele>
  <time>2026-08-27T18:25:44Z</time>
  <course>1.24</course>
  <speed>0.0</speed>
  <fix>3d</fix>
</trkpt>
<trkpt lat="40.0728454" lon="-105.2305756">
  <ele>1586.16</ele>
  <time>2026-08-27T18:25:44Z</time>
  <course>70.73</course>
  <speed>0.02</speed>
  <fix>3d</fix>
</trkpt>
<trkpt lat="40.0728456" lon="-105.2305755">
  <ele>1586.08</ele>
  <time>2026-08-27T18:25:44Z</time>
  <course>2.4</course>
  <speed>0.0</speed>
  <fix>3d</fix>
</trkpt>
<trkpt lat="40.0728454" lon="-105.2305756">
  <ele>1586.16</ele>
  <time>2026-08-27T18:25:44Z</time>
  <course>70.73</course>
  <speed>0.02</speed>
  <fix>3d</fix>
</trkpt>
<trkpt lat="40.0728456" lon="-105.2305755">
  <ele>1586.08</ele>
  <time>2026-08-27T18:25:44Z</time>
  <course>3.57</course>
  <speed>0.0</speed>
  <fix>3d</fix>
</trkpt>
<trkpt lat="40.0728454" lon="-105.2305756">
  <ele>1586.15</ele>
  <time>2026-08-27T18:25:44Z</time>
  <course>70.73</course>
  <speed>0.02</speed>
  <fix>3d</fix>
</trkpt>
<trkpt lat="40.0728456" lon="-105.2305755">
  <ele>1586.08</ele>
  <time>2026-08-27T18:25:44Z</time>
  <course>4.73</course>
  <speed>0.0</speed>
  <fix>3d</fix>
</trkpt>
<trkpt lat="40.0728454" lon="-105.2305756">
  <ele>1586.15</ele>
  <time>2026-08-27T18:25:44Z</time>
  <course>70.73</course>
  <speed>0.02</speed>
  <fix>3d</fix>
</trkpt>
<trkpt lat="40.0728456" lon="-105.2305755">
  <ele>1586.08</ele>
  <time>2026-08-27T18:25:44Z</time>
  <course>5.89</course>
  <speed>0.0</speed>
  <fix>3d</fix>
</trkpt>
<trkpt lat="40.0728454" lon="-105.2305756">
  <ele>1586.16</ele>
  <time>2026-08-27T18:25:44Z</time>
  <course>70.73</course>
  <speed>0.02</speed>
  <fix>3d</fix>
</trkpt>
<trkpt lat="40.0728456" lon="-105.2305755">
  <ele>1586.08</ele>
  <time>2026-08-27T18:25:44Z</time>
  <course>7.03</course>
  <speed>0.0</speed>
  <fix>3d</fix>
</trkpt>
<trkpt lat="40.0728454" lon="-105.2305756">
  <ele>1586.15</ele>
  <time>2026-08-27T18:25:44Z</time>
  <course>70.73</course>
  <speed>0.02</speed>
  <fix>3d</fix>
</trkpt>
<trkpt lat="40.0728456" lon="-105.2305755">
  <ele>1586.08</ele>
  <time>2026-08-27T18:25:44Z</time>
  <course>8.17</course>
  <speed>0.0</speed>
  <fix>3d</fix>
</trkpt>
<trkpt lat="40.0728454" lon="-105.2305756">
  <ele>1586.15</ele>
  <time>2026-08-27T18:25:44Z</time>
  <course>70.73</course>
  <speed>0.02</speed>
  <fix>3d</fix>
</trkpt>
<trkpt lat="40.0728456" lon="-105.2305755">
  <ele>1586.08</ele>
  <time>2026-08-27T18:25:44Z</time>
  <course>9.28</course>
  <speed>0.0</speed>
  <fix>3d</fix>
</trkpt>
<trkpt lat="40.0728454" lon="-105.2305756">
  <ele>1586.15</ele>
  <time>2026-08-27T18:25:44Z</time>
  <course>70.73</course>
  <speed>0.02</speed>
  <fix>3d</fix>
</trkpt>
<trkpt lat="40.0728456" lon="-105.2305755">
  <ele>1586.08</ele>
  <time>2026-08-27T18:25:44Z</time>
  <course>10.38</course>
  <speed>0.0</speed>
  <fix>3d</fix>
</trkpt>
<trkpt lat="40.0728454" lon="-105.2305756">
  <ele>1586.15</ele>
  <time>2026-08-27T18:25:44Z</time>
  <course>70.73</course>
  <speed>0.02</speed>
  <fix>3d</fix>
</trkpt>
<trkpt lat="40.0728456" lon="-105.2305755">
  <ele>1586.08</ele>
  <time>2026-08-27T18:25:44Z</time>
  <course>11.46</course>
  <speed>0.0</speed>
  <fix>3d</fix>
</trkpt>
<trkpt lat="40.0728454" lon="-105.2305756">
  <ele>1586.15</ele>
  <time>2026-08-27T18:25:44Z</time>
  <course>70.73</course>
  <speed>0.02</speed>
  <fix>3d</fix>
</trkpt>
<trkpt lat="40.0728456" lon="-105.2305755">
  <ele>1586.08</ele>
  <time>2026-08-27T18:25:44Z</time>
  <course>12.51</course>
  <speed>0.0</speed>
  <fix>3d</fix>
</trkpt>
<trkpt lat="40.0728454" lon="-105.2305756">
  <ele>1586.16</ele>
  <time>2026-08-27T18:25:44Z</time>
  <course>70.73</course>
  <speed>0.02</speed>
  <fix>3d</fix>
</trkpt>
<trkpt lat="40.0728456" lon="-105.2305755">
  <ele>1586.08</ele>
  <time>2026-08-27T18:25:44Z</time>
  <course>13.53</course>
  <speed>0.0</speed>
  <fix>3d</fix>
</trkpt>
<trkpt lat="40.0728454" lon="-105.2305756">
  <ele>1586.16</ele>
  <time>2026-08-27T18:25:44Z</time>
  <course>70.73</course>
  <speed>0.02</speed>
  <fix>3d</fix>
</trkpt>
<trkpt lat="40.0728456" lon="-105.2305755">
  <ele>1586.08</ele>
  <time>2026-08-27T18:25:44Z</time>
  <course>284.47</course>
  <speed>0.0</speed>
  <fix>3d</fix>
</trkpt>
<trkpt lat="40.0728454" lon="-105.2305756">
  <ele>1586.16</ele>
  <time>2026-08-27T18:25:44Z</time>
  <course>70.73</course>
  <speed>0.02</speed>
  <fix>3d</fix>
</trkpt>
<trkpt lat="40.0728456" lon="-105.2305755">
  <ele>1586.08</ele>
  <time>2026-08-27T18:25:44Z</time>
  <course>281.17</course>
  <speed>0.0</speed>
  <fix>3d</fix>
</trkpt>
<trkpt lat="40.0728454" lon="-105.2305756">
  <ele>1586.16</ele>
  <time>2026-08-27T18:25:44Z</time>
  <course>70.73</course>
  <speed>0.02</speed>
  <fix>3d</fix>
</trkpt>
<trkpt lat="40.0728456" lon="-105.2305755">
  <ele>1586.08</ele>
  <time>2026-08-27T18:25:44Z</time>
  <course>276.11</course>
  <speed>0.0</speed>
  <fix>3d</fix>
</trkpt>
<trkpt lat="40.0728454" lon="-105.2305756">
  <ele>1586.16</ele>
  <time>2026-08-27T18:25:44Z</time>
  <course>70.73</course>
  <speed>0.02</speed>
  <fix>3d</fix>
</trkpt>
<trkpt lat="40.0728456" lon="-105.2305755">
  <ele>1586.08</ele>
  <time>2026-08-27T18:25:44Z</time>
  <course>72.6</course>
  <speed>0.0</speed>
  <fix>3d</fix>
</trkpt>
<trkpt lat="40.0728454" lon="-105.2305756">
  <ele>1586.16</ele>
  <time>2026-08-27T18:25:44Z</time>
  <course>70.75</course>
  <speed>0.02</speed>
  <fix>3d</fix>
</trkpt>
<trkpt lat="40.0728456" lon="-105.2305755">
  <ele>1586.08</ele>
  <time>2026-08-27T18:25:44Z</time>
  <course>48.71</course>
  <speed>0.0</speed>
  <fix>3d</fix>
</trkpt>
<trkpt lat="40.0728454" lon="-105.2305756">
  <ele>1586.16</ele>
  <time>2026-08-27T18:25:44Z</time>
  <course>70.77</course>
  <speed>0.02</speed>
  <fix>3d</fix>
</trkpt>
<trkpt lat="40.0728456" lon="-105.2305755">
  <ele>1586.08</ele>
  <time>2026-08-27T18:25:44Z</time>
  <course>57.79</course>
  <speed>0.0</speed>
  <fix>3d</fix>
</trkpt>
<trkpt lat="40.0728454" lon="-105.2305756">
  <ele>1586.17</ele>
  <time>2026-08-27T18:25:44Z</time>
  <course>70.79</course>
  <speed>0.02</speed>
  <fix>3d</fix>
</trkpt>
<trkpt lat="40.0728456" lon="-105.2305755">
  <ele>1586.08</ele>
  <time>2026-08-27T18:25:44Z</time>
  <course>89.52</course>
  <speed>0.0</speed>
  <fix>3d</fix>
</trkpt>
<trkpt lat="40.0728454" lon="-105.2305756">
  <ele>1586.17</ele>
  <time>2026-08-27T18:25:44Z</time>
  <course>70.81</course>
  <speed>0.02</speed>
  <fix>3d</fix>
</trkpt>
<trkpt lat="40.0728456" lon="-105.2305755">
  <ele>1586.08</ele>
  <time>2026-08-27T18:25:44Z</time>
  <course>299.4</course>
  <speed>0.0</speed>
  <fix>3d</fix>
</trkpt>
<trkpt lat="40.0728454" lon="-105.2305756">
  <ele>1586.17</ele>
  <time>2026-08-27T18:25:44Z</time>
  <course>70.83</course>
  <speed>0.02</speed>
  <fix>3d</fix>
</trkpt>
<trkpt lat="40.0728456" lon="-105.2305755">
  <ele>1586.08</ele>
  <time>2026-08-27T18:25:44Z</time>
  <course>336.56</course>
  <speed>0.0</speed>
  <fix>3d</fix>
</trkpt>
<trkpt lat="40.0728454" lon="-105.2305756">
  <ele>1586.16</ele>
  <time>2026-08-27T18:25:44Z</time>
  <course>70.86</course>
  <speed>0.02</speed>
  <fix>3d</fix>
</trkpt>
<trkpt lat="40.0728456" lon="-105.2305755">
  <ele>1586.08</ele>
  <time>2026-08-27T18:25:44Z</time>
  <course>50.89</course>
  <speed>0.0</speed>
  <fix>3d</fix>
</trkpt>
<trkpt lat="40.0728454" lon="-105.2305756">
  <ele>1586.16</ele>
  <time>2026-08-27T18:25:44Z</time>
  <course>70.88</course>
  <speed>0.02</speed>
  <fix>3d</fix>
</trkpt>
<trkpt lat="40.0728456" lon="-105.2305755">
  <ele>1586.08</ele>
  <time>2026-08-27T18:25:44Z</time>
  <course>39.11</course>
  <speed>0.0</speed>
  <fix>3d</fix>
</trkpt>
<trkpt lat="40.0728454" lon="-105.2305756">
  <ele>1586.16</ele>
  <time>2026-08-27T18:25:44Z</time>
  <course>70.9</course>
  <speed>0.02</speed>
  <fix>3d</fix>
</trkpt>
<trkpt lat="40.0728456" lon="-105.2305755">
  <ele>1586.08</ele>
  <time>2026-08-27T18:25:44Z</time>
  <course>32.33</course>
  <speed>0.0</speed>
  <fix>3d</fix>
</trkpt>
<trkpt lat="40.0728454" lon="-105.2305756">
  <ele>1586.15</ele>
  <time>2026-08-27T18:25:44Z</time>
  <course>70.92</course>
  <speed>0.02</speed>
  <fix>3d</fix>
</trkpt>
<trkpt lat="40.0728456" lon="-105.2305755">
  <ele>1586.08</ele>
  <time>2026-08-27T18:25:44Z</time>
  <course>35.34</course>
  <speed>0.0</speed>
  <fix>3d</fix>
</trkpt>
<trkpt lat="40.0728454" lon="-105.2305756">
  <ele>1586.14</ele>
  <time>2026-08-27T18:25:44Z</time>
  <course>71.0</course>
  <speed>0.02</speed>
  <fix>3d</fix>
</trkpt>
<trkpt lat="40.0728456" lon="-105.2305755">
  <ele>1586.08</ele>
  <time>2026-08-27T18:25:44Z</time>
  <course>35.5</course>
  <speed>0.0</speed>
  <fix>3d</fix>
</trkpt>
<trkpt lat="40.0728454" lon="-105.2305756">
  <ele>1586.14</ele>
  <time>2026-08-27T18:25:44Z</time>
  <course>71.03</course>
  <speed>0.01</speed>
  <fix>3d</fix>
</trkpt>
<trkpt lat="40.0728456" lon="-105.2305755">
  <ele>1586.08</ele>
  <time>2026-08-27T18:25:44Z</time>
  <course>35.49</course>
  <speed>0.0</speed>
  <fix>3d</fix>
</trkpt>
<trkpt lat="40.0728454" lon="-105.2305756">
  <ele>1586.14</ele>
  <time>2026-08-27T18:25:44Z</time>
  <course>71.05</course>
  <speed>0.01</speed>
  <fix>3d</fix>
</trkpt>
<trkpt lat="40.0728456" lon="-105.2305755">
  <ele>1586.08</ele>
  <time>2026-08-27T18:25:44Z</time>
  <course>35.49</course>
  <speed>0.0</speed>
  <fix>3d</fix>
</trkpt>
<trkpt lat="40.0728454" lon="-105.2305756">
  <ele>1586.14</ele>
  <time>2026-08-27T18:25:44Z</time>
  <course>71.07</course>
  <speed>0.01</speed>
  <fix>3d</fix>
</trkpt>
<trkpt lat="40.0728456" lon="-105.2305755">
  <ele>1586.08</ele>
  <time>2026-08-27T18:25:44Z</time>
  <course>35.49</course>
  <speed>0.0</speed>
  <fix>3d</fix>
</trkpt>
<trkpt lat="40.0728454" lon="-105.2305756">
  <ele>1586.13</ele>
  <time>2026-08-27T18:25:44Z</time>
  <course>71.09</course>
  <speed>0.01</speed>
  <fix>3d</fix>
</trkpt>
<trkpt lat="40.0728456" lon="-105.2305755">
  <ele>1586.08</ele>
  <time>2026-08-27T18:25:44Z</time>
  <course>35.49</course>
  <speed>0.0</speed>
  <fix>3d</fix>
</trkpt>
<trkpt lat="40.0728454" lon="-105.2305756">
  <ele>1586.13</ele>
  <time>2026-08-27T18:25:44Z</time>
  <course>71.11</course>
  <speed>0.01</speed>
  <fix>3d</fix>
</trkpt>
<trkpt lat="40.0728456" lon="-105.2305755">
  <ele>1586.08</ele>
  <time>2026-08-27T18:25:44Z</time>
  <course>35.49</course>
  <speed>0.0</speed>
  <fix>3d</fix>
</trkpt>
<trkpt lat="40.0728454" lon="-105.2305756">
  <ele>1586.12</ele>
  <time>2026-08-27T18:25:44Z</time>
  <course>71.14</course>
  <speed>0.01</speed>
  <fix>3d</fix>
</trkpt>
<trkpt lat="40.0728456" lon="-105.2305755">
  <ele>1586.08</ele>
  <time>2026-08-27T18:25:44Z</time>
  <course>35.49</course>
  <speed>0.0</speed>
  <fix>3d</fix>
</trkpt>
<trkpt lat="40.0728454" lon="-105.2305756">
  <ele>1586.12</ele>
  <time>2026-08-27T18:25:44Z</time>
  <course>71.16</course>
  <speed>0.01</speed>
  <fix>3d</fix>
</trkpt>
<trkpt lat="40.0728456" lon="-105.2305755">
  <ele>1586.08</ele>
  <time>2026-08-27T18:25:44Z</time>
  <course>35.49</course>
  <speed>0.0</speed>
  <fix>3d</fix>
</trkpt>
<trkpt lat="40.0728454" lon="-105.2305756">
  <ele>1586.13</ele>
  <time>2026-08-27T18:25:44Z</time>
  <course>71.18</course>
  <speed>0.01</speed>
  <fix>3d</fix>
</trkpt>
<trkpt lat="40.0728456" lon="-105.2305755">
  <ele>1586.08</ele>
  <time>2026-08-27T18:25:44Z</time>
  <course>35.49</course>
  <speed>0.0</speed>
  <fix>3d</fix>
</trkpt>
<trkpt lat="40.0728454" lon="-105.2305756">
  <ele>1586.13</ele>
  <time>2026-08-27T18:25:44Z</time>
  <course>71.2</course>
  <speed>0.01</speed>
  <fix>3d</fix>
</trkpt>
<trkpt lat="40.0728456" lon="-105.2305755">
  <ele>1586.08</ele>
  <time>2026-08-27T18:25:44Z</time>
  <course>35.49</course>
  <speed>0.0</speed>
  <fix>3d</fix>
</trkpt>
<trkpt lat="40.0728454" lon="-105.2305756">
  <ele>1586.14</ele>
  <time>2026-08-27T18:25:44Z</time>
  <course>71.22</course>
  <speed>0.01</speed>
  <fix>3d</fix>
</trkpt>
<trkpt lat="40.0728456" lon="-105.2305755">
  <ele>1586.08</ele>
  <time>2026-08-27T18:25:44Z</time>
  <course>35.49</course>
  <speed>0.0</speed>
  <fix>3d</fix>
</trkpt>
<trkpt lat="40.0728454" lon="-105.2305756">
  <ele>1586.14</ele>
  <time>2026-08-27T18:25:44Z</time>
  <course>71.25</course>
  <speed>0.01</speed>
  <fix>3d</fix>
</trkpt>
<trkpt lat="40.0728456" lon="-105.2305755">
  <ele>1586.08</ele>
  <time>2026-08-27T18:25:44Z</time>
  <course>35.49</course>
  <speed>0.0</speed>
  <fix>3d</fix>
</trkpt>
<trkpt lat="40.0728454" lon="-105.2305756">
  <ele>1586.15</ele>
  <time>2026-08-27T18:25:44Z</time>
  <course>71.27</course>
  <speed>0.01</speed>
  <fix>3d</fix>
</trkpt>
<trkpt lat="40.0728456" lon="-105.2305755">
  <ele>1586.08</ele>
  <time>2026-08-27T18:25:44Z</time>
  <course>35.49</course>
  <speed>0.0</speed>
  <fix>3d</fix>
</trkpt>
<trkpt lat="40.0728454" lon="-105.2305756">
  <ele>1586.15</ele>
  <time>2026-08-27T18:25:44Z</time>
  <course>71.29</course>
  <speed>0.01</speed>
  <fix>3d</fix>
</trkpt>
<trkpt lat="40.0728456" lon="-105.2305755">
  <ele>1586.08</ele>
  <time>2026-08-27T18:25:44Z</time>
  <course>35.49</course>
  <speed>0.0</speed>
  <fix>3d</fix>
</trkpt>
<trkpt lat="40.0728454" lon="-105.2305756">
  <ele>1586.15</ele>
  <time>2026-08-27T18:25:44Z</time>
  <course>71.31</course>
  <speed>0.01</speed>
  <fix>3d</fix>
</trkpt>
<trkpt lat="40.0728456" lon="-105.2305755">
  <ele>1586.08</ele>
  <time>2026-08-27T18:25:44Z</time>
  <course>35.49</course>
  <speed>0.0</speed>
  <fix>3d</fix>
</trkpt>
<trkpt lat="40.0728454" lon="-105.2305756">
  <ele>1586.15</ele>
  <time>2026-08-27T18:25:44Z</time>
  <course>71.34</course>
  <speed>0.02</speed>
  <fix>3d</fix>
</trkpt>
<trkpt lat="40.0728456" lon="-105.2305755">
  <ele>1586.08</ele>
  <time>2026-08-27T18:25:44Z</time>
  <course>35.49</course>
  <speed>0.0</speed>
  <fix>3d</fix>
</trkpt>
<trkpt lat="40.0728454" lon="-105.2305756">
  <ele>1586.15</ele>
  <time>2026-08-27T18:25:44Z</time>
  <course>71.36</course>
  <speed>0.022360679774997897</speed>
  <fix>3d</fix>
</trkpt>
<trkpt lat="40.0728456" lon="-105.2305755">
  <ele>1586.08</ele>
  <time>2026-08-27T18:25:44Z</time>
  <course>35.49</course>
  <speed>0.0</speed>
  <fix>3d</fix>
</trkpt>
<trkpt lat="40.0728454" lon="-105.2305756">
  <ele>1586.15</ele>
  <time>2026-08-27T18:25:44Z</time>
  <course>71.38</course>
  <speed>0.022360679774997897</speed>
  <fix>3d</fix>
</trkpt>
<trkpt lat="40.0728456" lon="-105.2305755">
  <ele>1586.08</ele>
  <time>2026-08-27T18:25:44Z</time>
  <course>35.49</course>
  <speed>0.0</speed>
  <fix>3d</fix>
</trkpt>
<trkpt lat="40.0728454" lon="-105.2305756">
  <ele>1586.15</ele>
  <time>2026-08-27T18:25:44Z</time>
  <course>71.4</course>
  <speed>0.022360679774997897</speed>
  <fix>3d</fix>
</trkpt>
<trkpt lat="40.0728456" lon="-105.2305755">
  <ele>1586.08</ele>
  <time>2026-08-27T18:25:44Z</time>
  <course>35.49</course>
  <speed>0.0</speed>
  <fix>3d</fix>
</trkpt>
<trkpt lat="40.0728454" lon="-105.2305756">
  <ele>1586.15</ele>
  <time>2026-08-27T18:25:44Z</time>
  <course>71.43</course>
  <speed>0.022360679774997897</speed>
  <fix>3d</fix>
</trkpt>
<trkpt lat="40.0728456" lon="-105.2305755">
  <ele>1586.08</ele>
  <time>2026-08-27T18:25:44Z</time>
  <course>35.49</course>
  <speed>0.0</speed>
  <fix>3d</fix>
</trkpt>
<trkpt lat="40.0728454" lon="-105.2305756">
  <ele>1586.14</ele>
  <time>2026-08-27T18:25:44Z</time>
  <course>71.45</course>
  <speed>0.022360679774997897</speed>
  <fix>3d</fix>
</trkpt>
<trkpt lat="40.0728456" lon="-105.2305755">
  <ele>1586.08</ele>
  <time>2026-08-27T18:25:44Z</time>
  <course>35.49</course>
  <speed>0.0</speed>
  <fix>3d</fix>
</trkpt>
<trkpt lat="40.0728454" lon="-105.2305756">
  <ele>1586.14</ele>
  <time>2026-08-27T18:25:44Z</time>
  <course>71.47</course>
  <speed>0.022360679774997897</speed>
  <fix>3d</fix>
</trkpt>
<trkpt lat="40.0728456" lon="-105.2305755">
  <ele>1586.08</ele>
  <time>2026-08-27T18:25:44Z</time>
  <course>35.49</course>
  <speed>0.0</speed>
  <fix>3d</fix>
</trkpt>
<trkpt lat="40.0728454" lon="-105.2305756">
  <ele>1586.14</ele>
  <time>2026-08-27T18:25:44Z</time>
  <course>71.49</course>
  <speed>0.022360679774997897</speed>
  <fix>3d</fix>
</trkpt>
<trkpt lat="40.0728456" lon="-105.2305755">
  <ele>1586.08</ele>
  <time>2026-08-27T18:25:44Z</time>
  <course>35.49</course>
  <speed>0.0</speed>
  <fix>3d</fix>
</trkpt>
<trkpt lat="40.0728454" lon="-105.2305756">
  <ele>1586.15</ele>
  <time>2026-08-27T18:25:44Z</time>
  <course>71.52</course>
  <speed>0.022360679774997897</speed>
  <fix>3d</fix>
</trkpt>
<trkpt lat="40.0728456" lon="-105.2305755">
  <ele>1586.08</ele>
  <time>2026-08-27T18:25:44Z</time>
  <course>35.49</course>
  <speed>0.0</speed>
  <fix>3d</fix>
</trkpt>
<trkpt lat="40.0728454" lon="-105.2305756">
  <ele>1586.15</ele>
  <time>2026-08-27T18:25:44Z</time>
  <course>71.54</course>
  <speed>0.022360679774997897</speed>
  <fix>3d</fix>
</trkpt>
<trkpt lat="40.0728456" lon="-105.2305755">
  <ele>1586.08</ele>
  <time>2026-08-27T18:25:44Z</time>
  <course>35.49</course>
  <speed>0.0</speed>
  <fix>3d</fix>
</trkpt>
<trkpt lat="40.0728454" lon="-105.2305756">
  <ele>1586.15</ele>
  <time>2026-08-27T18:25:44Z</time>
  <course>71.56</course>
  <speed>0.022360679774997897</speed>
  <fix>3d</fix>
</trkpt>
<trkpt lat="40.0728456" lon="-105.2305755">
  <ele>1586.08</ele>
  <time>2026-08-27T18:25:44Z</time>
  <course>35.49</course>
  <speed>0.0</speed>
  <fix>3d</fix>
</trkpt>
<trkpt lat="40.0728454" lon="-105.2305756">
  <ele>1586.15</ele>
  <time>2026-08-27T18:25:44Z</time>
  <course>71.59</course>
  <speed>0.022360679774997897</speed>
  <fix>3d</fix>
</trkpt>
<trkpt lat="40.0728456" lon="-105.2305755">
  <ele>1586.08</ele>
  <time>2026-08-27T18:25:44Z</time>
  <course>44.43</course>
  <speed>0.0</speed>
  <fix>3d</fix>
</trkpt>
<trkpt lat="40.0728454" lon="-105.2305756">
  <ele>1586.15</ele>
  <time>2026-08-27T18:25:44Z</time>
  <course>71.61</course>
  <speed>0.022360679774997897</speed>
  <fix>3d</fix>
</trkpt>
<trkpt lat="40.0728456" lon="-105.2305755">
  <ele>1586.08</ele>
  <time>2026-08-27T18:25:44Z</time>
  <course>36.46</course>
  <speed>0.0</speed>
  <fix>3d</fix>
</trkpt>
<trkpt lat="40.0728454" lon="-105.2305756">
  <ele>1586.15</ele>
  <time>2026-08-27T18:25:44Z</time>
  <course>71.63</course>
  <speed>0.022360679774997897</speed>
  <fix>3d</fix>
</trkpt>
<trkpt lat="40.0728456" lon="-105.2305755">
  <ele>1586.08</ele>
  <time>2026-08-27T18:25:44Z</time>
  <course>346.13</course>
  <speed>0.0</speed>
  <fix>3d</fix>
</trkpt>
<trkpt lat="40.0728454" lon="-105.2305756">
  <ele>1586.15</ele>
  <time>2026-08-27T18:25:44Z</time>
  <course>71.65</course>
  <speed>0.022360679774997897</speed>
  <fix>3d</fix>
</trkpt>
<trkpt lat="40.0728456" lon="-105.2305755">
  <ele>1586.08</ele>
  <time>2026-08-27T18:25:44Z</time>
  <course>227.31</course>
  <speed>0.0</speed>
  <fix>3d</fix>
</trkpt>
<trkpt lat="40.0728454" lon="-105.2305756">
  <ele>1586.15</ele>
  <time>2026-08-27T18:25:44Z</time>
  <course>71.68</course>
  <speed>0.022360679774997897</speed>
  <fix>3d</fix>
</trkpt>
<trkpt lat="40.0728456" lon="-105.2305755">
  <ele>1586.08</ele>
  <time>2026-08-27T18:25:45Z</time>
  <course>11.42</course>
  <speed>0.0</speed>
  <fix>3d</fix>
</trkpt>
<trkpt lat="40.0728454" lon="-105.2305756">
  <ele>1586.15</ele>
  <time>2026-08-27T18:25:45Z</time>
  <course>71.7</course>
  <speed>0.022360679774997897</speed>
  <fix>3d</fix>
</trkpt>
<trkpt lat="40.0728456" lon="-105.2305755">
  <ele>1586.08</ele>
  <time>2026-08-27T18:25:45Z</time>
  <course>354.05</course>
  <speed>0.0</speed>
  <fix>3d</fix>
</trkpt>
<trkpt lat="40.0728454" lon="-105.2305756">
  <ele>1586.15</ele>
  <time>2026-08-27T18:25:45Z</time>
  <course>71.72</course>
  <speed>0.022360679774997897</speed>
  <fix>3d</fix>
</trkpt>
<trkpt lat="40.0728456" lon="-105.2305755">
  <ele>1586.08</ele>
  <time>2026-08-27T18:25:45Z</time>
  <course>338.97</course>
  <speed>0.0</speed>
  <fix>3d</fix>
</trkpt>
<trkpt lat="40.0728454" lon="-105.2305756">
  <ele>1586.15</ele>
  <time>2026-08-27T18:25:45Z</time>
  <course>71.75</course>
  <speed>0.022360679774997897</speed>
  <fix>3d</fix>
</trkpt>
<trkpt lat="40.0728456" lon="-105.2305755">
  <ele>1586.08</ele>
  <time>2026-08-27T18:25:45Z</time>
  <course>270.31</course>
  <speed>0.0</speed>
  <fix>3d</fix>
</trkpt>
<trkpt lat="40.0728454" lon="-105.2305756">
  <ele>1586.15</ele>
  <time>2026-08-27T18:25:45Z</time>
  <course>71.77</course>
  <speed>0.022360679774997897</speed>
  <fix>3d</fix>
</trkpt>
<trkpt lat="40.0728456" lon="-105.2305755">
  <ele>1586.08</ele>
  <time>2026-08-27T18:25:45Z</time>
  <course>116.58</course>
  <speed>0.0</speed>
  <fix>3d</fix>
</trkpt>
<trkpt lat="40.0728454" lon="-105.2305756">
  <ele>1586.15</ele>
  <time>2026-08-27T18:25:45Z</time>
  <course>71.79</course>
  <speed>0.022360679774997897</speed>
  <fix>3d</fix>
</trkpt>
<trkpt lat="40.0728456" lon="-105.2305755">
  <ele>1586.08</ele>
  <time>2026-08-27T18:25:45Z</time>
  <course>18.34</course>
  <speed>0.0</speed>
  <fix>3d</fix>
</trkpt>
<trkpt lat="40.0728454" lon="-105.2305756">
  <ele>1586.15</ele>
  <time>2026-08-27T18:25:45Z</time>
  <course>71.81</course>
  <speed>0.022360679774997897</speed>
  <fix>3d</fix>
</trkpt>
<trkpt lat="40.0728456" lon="-105.2305755">
  <ele>1586.08</ele>
  <time>2026-08-27T18:25:45Z</time>
  <course>6.9</course>
  <speed>0.0</speed>
  <fix>3d</fix>
</trkpt>
<trkpt lat="40.0728454" lon="-105.2305756">
  <ele>1586.15</ele>
  <time>2026-08-27T18:25:45Z</time>
  <course>71.84</course>
  <speed>0.022360679774997897</speed>
  <fix>3d</fix>
</trkpt>
<trkpt lat="40.0728456" lon="-105.2305755">
  <ele>1586.08</ele>
  <time>2026-08-27T18:25:45Z</time>
  <course>19.22</course>
  <speed>0.0</speed>
  <fix>3d</fix>
</trkpt>
<trkpt lat="40.0728454" lon="-105.2305756">
  <ele>1586.15</ele>
  <time>2026-08-27T18:25:45Z</time>
  <course>71.86</course>
  <speed>0.022360679774997897</speed>
  <fix>3d</fix>
</trkpt>
<trkpt lat="40.0728456" lon="-105.2305755">
  <ele>1586.08</ele>
  <time>2026-08-27T18:25:45Z</time>
  <course>19.28</course>
  <speed>0.0</speed>
  <fix>3d</fix>
</trkpt>
<trkpt lat="40.0728454" lon="-105.2305756">
  <ele>1586.15</ele>
  <time>2026-08-27T18:25:45Z</time>
  <course>71.88</course>
  <speed>0.022360679774997897</speed>
  <fix>3d</fix>
</trkpt>
<trkpt lat="40.0728456" lon="-105.2305755">
  <ele>1586.08</ele>
  <time>2026-08-27T18:25:45Z</time>
  <course>17.4</course>
  <speed>0.0</speed>
  <fix>3d</fix>
</trkpt>
<trkpt lat="40.0728454" lon="-105.2305756">
  <ele>1586.15</ele>
  <time>2026-08-27T18:25:45Z</time>
  <course>71.91</course>
  <speed>0.022360679774997897</speed>
  <fix>3d</fix>
</trkpt>
<trkpt lat="40.0728456" lon="-105.2305755">
  <ele>1586.08</ele>
  <time>2026-08-27T18:25:45Z</time>
  <course>17.6</course>
  <speed>0.0</speed>
  <fix>3d</fix>
</trkpt>
<trkpt lat="40.0728454" lon="-105.2305756">
  <ele>1586.15</ele>
  <time>2026-08-27T18:25:45Z</time>
  <course>71.93</course>
  <speed>0.022360679774997897</speed>
  <fix>3d</fix>
</trkpt>
<trkpt lat="40.0728456" lon="-105.2305755">
  <ele>1586.08</ele>
  <time>2026-08-27T18:25:45Z</time>
  <course>17.83</course>
  <speed>0.0</speed>
  <fix>3d</fix>
</trkpt>
<trkpt lat="40.0728454" lon="-105.2305756">
  <ele>1586.15</ele>
  <time>2026-08-27T18:25:45Z</time>
  <course>71.95</course>
  <speed>0.022360679774997897</speed>
  <fix>3d</fix>
</trkpt>
<trkpt lat="40.0728456" lon="-105.2305755">
  <ele>1586.08</ele>
  <time>2026-08-27T18:25:45Z</time>
  <course>17.76</course>
  <speed>0.0</speed>
  <fix>3d</fix>
</trkpt>
<trkpt lat="40.0728454" lon="-105.2305756">
  <ele>1586.15</ele>
  <time>2026-08-27T18:25:45Z</time>
  <course>71.97</course>
  <speed>0.022360679774997897</speed>
  <fix>3d</fix>
</trkpt>
<trkpt lat="40.0728456" lon="-105.2305755">
  <ele>1586.08</ele>
  <time>2026-08-27T18:25:45Z</time>
  <course>17.64</course>
  <speed>0.0</speed>
  <fix>3d</fix>
</trkpt>
<trkpt lat="40.0728454" lon="-105.2305756">
  <ele>1586.15</ele>
  <time>2026-08-27T18:25:45Z</time>
  <course>71.99</course>
  <speed>0.022360679774997897</speed>
  <fix>3d</fix>
</trkpt>
<trkpt lat="40.0728456" lon="-105.2305755">
  <ele>1586.08</ele>
  <time>2026-08-27T18:25:45Z</time>
  <course>18.63</course>
  <speed>0.0</speed>
  <fix>3d</fix>
</trkpt>
<trkpt lat="40.0728454" lon="-105.2305756">
  <ele>1586.15</ele>
  <time>2026-08-27T18:25:45Z</time>
  <course>72.01</course>
  <speed>0.022360679774997897</speed>
  <fix>3d</fix>
</trkpt>
<trkpt lat="40.0728456" lon="-105.2305755">
  <ele>1586.08</ele>
  <time>2026-08-27T18:25:45Z</time>
  <course>20.83</course>
  <speed>0.0</speed>
  <fix>3d</fix>
</trkpt>
<trkpt lat="40.0728454" lon="-105.2305756">
  <ele>1586.15</ele>
  <time>2026-08-27T18:25:45Z</time>
  <course>72.03</course>
  <speed>0.022360679774997897</speed>
  <fix>3d</fix>
</trkpt>
<trkpt lat="40.0728456" lon="-105.2305755">
  <ele>1586.08</ele>
  <time>2026-08-27T18:25:45Z</time>
  <course>24.26</course>
  <speed>0.0</speed>
  <fix>3d</fix>
</trkpt>
<trkpt lat="40.0728454" lon="-105.2305756">
  <ele>1586.15</ele>
  <time>2026-08-27T18:25:45Z</time>
  <course>72.04</course>
  <speed>0.01414213562373095</speed>
  <fix>3d</fix>
</trkpt>
<trkpt lat="40.0728456" lon="-105.2305755">
  <ele>1586.08</ele>
  <time>2026-08-27T18:25:45Z</time>
  <course>30.88</course>
  <speed>0.0</speed>
  <fix>3d</fix>
</trkpt>
<trkpt lat="40.0728454" lon="-105.2305756">
  <ele>1586.15</ele>
  <time>2026-08-27T18:25:45Z</time>
  <course>72.05</course>
  <speed>0.01414213562373095</speed>
  <fix>3d</fix>
</trkpt>
<trkpt lat="40.0728456" lon="-105.2305755">
  <ele>1586.08</ele>
  <time>2026-08-27T18:25:45Z</time>
  <course>42.46</course>
  <speed>0.0</speed>
  <fix>3d</fix>
</trkpt>
<trkpt lat="40.0728454" lon="-105.2305756">
  <ele>1586.16</ele>
  <time>2026-08-27T18:25:45Z</time>
  <course>72.07</course>
  <speed>0.01414213562373095</speed>
  <fix>3d</fix>
</trkpt>
<trkpt lat="40.0728456" lon="-105.2305755">
  <ele>1586.08</ele>
  <time>2026-08-27T18:25:45Z</time>
  <course>60.78</course>
  <speed>0.0</speed>
  <fix>3d</fix>
</trkpt>
<trkpt lat="40.0728454" lon="-105.2305756">
  <ele>1586.16</ele>
  <time>2026-08-27T18:25:45Z</time>
  <course>72.08</course>
  <speed>0.01414213562373095</speed>
  <fix>3d</fix>
</trkpt>
<trkpt lat="40.0728456" lon="-105.2305755">
  <ele>1586.08</ele>
  <time>2026-08-27T18:25:45Z</time>
  <course>84.02</course>
  <speed>0.0</speed>
  <fix>3d</fix>
</trkpt>
<trkpt lat="40.0728454" lon="-105.2305756">
  <ele>1586.16</ele>
  <time>2026-08-27T18:25:45Z</time>
  <course>72.08</course>
  <speed>0.022360679774997897</speed>
  <fix>3d</fix>
</trkpt>
<trkpt lat="40.0728456" lon="-105.2305755">
  <ele>1586.08</ele>
  <time>2026-08-27T18:25:45Z</time>
  <course>147.5</course>
  <speed>0.0</speed>
  <fix>3d</fix>
</trkpt>
<trkpt lat="40.0728454" lon="-105.2305756">
  <ele>1586.16</ele>
  <time>2026-08-27T18:25:45Z</time>
  <course>72.09</course>
  <speed>0.01414213562373095</speed>
  <fix>3d</fix>
</trkpt>
<trkpt lat="40.0728456" lon="-105.2305755">
  <ele>1586.08</ele>
  <time>2026-08-27T18:25:45Z</time>
  <course>151.45</course>
  <speed>0.0</speed>
  <fix>3d</fix>
</trkpt>
<trkpt lat="40.0728454" lon="-105.2305756">
  <ele>1586.15</ele>
  <time>2026-08-27T18:25:45Z</time>
  <course>72.09</course>
  <speed>0.022360679774997897</speed>
  <fix>3d</fix>
</trkpt>
<trkpt lat="40.0728456" lon="-105.2305755">
  <ele>1586.08</ele>
  <time>2026-08-27T18:25:45Z</time>
  <course>147.12</course>
  <speed>0.0</speed>
  <fix>3d</fix>
</trkpt>
<trkpt lat="40.0728454" lon="-105.2305756">
  <ele>1586.15</ele>
  <time>2026-08-27T18:25:45Z</time>
  <course>72.1</course>
  <speed>0.022360679774997897</speed>
  <fix>3d</fix>
</trkpt>
<trkpt lat="40.0728456" lon="-105.2305755">
  <ele>1586.08</ele>
  <time>2026-08-27T18:25:45Z</time>
  <course>148.09</course>
  <speed>0.0</speed>
  <fix>3d</fix>
</trkpt>
<trkpt lat="40.0728454" lon="-105.2305756">
  <ele>1586.15</ele>
  <time>2026-08-27T18:25:45Z</time>
  <course>72.1</course>
  <speed>0.022360679774997897</speed>
  <fix>3d</fix>
</trkpt>
<trkpt lat="40.0728456" lon="-105.2305755">
  <ele>1586.08</ele>
  <time>2026-08-27T18:25:45Z</time>
  <course>150.17</course>
  <speed>0.0</speed>
  <fix>3d</fix>
</trkpt>
<trkpt lat="40.0728454" lon="-105.2305756">
  <ele>1586.15</ele>
  <time>2026-08-27T18:25:45Z</time>
  <course>72.1</course>
  <speed>0.022360679774997897</speed>
  <fix>3d</fix>
</trkpt>
<trkpt lat="40.0728456" lon="-105.2305755">
  <ele>1586.08</ele>
  <time>2026-08-27T18:25:45Z</time>
  <course>150.82</course>
  <speed>0.0</speed>
  <fix>3d</fix>
</trkpt>
<trkpt lat="40.0728454" lon="-105.2305756">
  <ele>1586.15</ele>
  <time>2026-08-27T18:25:45Z</time>
  <course>72.1</course>
  <speed>0.022360679774997897</speed>
  <fix>3d</fix>
</trkpt>
<trkpt lat="40.0728456" lon="-105.2305755">
  <ele>1586.08</ele>
  <time>2026-08-27T18:25:45Z</time>
  <course>151.13</course>
  <speed>0.0</speed>
  <fix>3d</fix>
</trkpt>
<trkpt lat="40.0728454" lon="-105.2305756">
  <ele>1586.15</ele>
  <time>2026-08-27T18:25:45Z</time>
  <course>72.09</course>
  <speed>0.022360679774997897</speed>
  <fix>3d</fix>
</trkpt>
<trkpt lat="40.0728456" lon="-105.2305755">
  <ele>1586.08</ele>
  <time>2026-08-27T18:25:45Z</time>
  <course>151.34</course>
  <speed>0.0</speed>
  <fix>3d</fix>
</trkpt>
<trkpt lat="40.0728454" lon="-105.2305756">
  <ele>1586.15</ele>
  <time>2026-08-27T18:25:45Z</time>
  <course>72.09</course>
  <speed>0.022360679774997897</speed>
  <fix>3d</fix>
</trkpt>
<trkpt lat="40.0728456" lon="-105.2305755">
  <ele>1586.08</ele>
  <time>2026-08-27T18:25:45Z</time>
  <course>151.41</course>
  <speed>0.0</speed>
  <fix>3d</fix>
</trkpt>
<trkpt lat="40.0728454" lon="-105.2305756">
  <ele>1586.15</ele>
  <time>2026-08-27T18:25:45Z</time>
  <course>72.08</course>
  <speed>0.022360679774997897</speed>
  <fix>3d</fix>
</trkpt>
<trkpt lat="40.0728456" lon="-105.2305755">
  <ele>1586.08</ele>
  <time>2026-08-27T18:25:45Z</time>
  <course>71.67</course>
  <speed>0.0</speed>
  <fix>3d</fix>
</trkpt>
<trkpt lat="40.0728454" lon="-105.2305756">
  <ele>1586.15</ele>
  <time>2026-08-27T18:25:45Z</time>
  <course>72.07</course>
  <speed>0.022360679774997897</speed>
  <fix>3d</fix>
</trkpt>
<trkpt lat="40.0728456" lon="-105.2305755">
  <ele>1586.08</ele>
  <time>2026-08-27T18:25:45Z</time>
  <course>343.61</course>
  <speed>0.0</speed>
  <fix>3d</fix>
</trkpt>
<trkpt lat="40.0728454" lon="-105.2305756">
  <ele>1586.15</ele>
  <time>2026-08-27T18:25:45Z</time>
  <course>72.06</course>
  <speed>0.022360679774997897</speed>
  <fix>3d</fix>
</trkpt>
<trkpt lat="40.0728456" lon="-105.2305755">
  <ele>1586.08</ele>
  <time>2026-08-27T18:25:45Z</time>
  <course>346.75</course>
  <speed>0.0</speed>
  <fix>3d</fix>
</trkpt>
<trkpt lat="40.0728454" lon="-105.2305756">
  <ele>1586.15</ele>
  <time>2026-08-27T18:25:45Z</time>
  <course>72.05</course>
  <speed>0.022360679774997897</speed>
  <fix>3d</fix>
</trkpt>
<trkpt lat="40.0728456" lon="-105.2305755">
  <ele>1586.08</ele>
  <time>2026-08-27T18:25:45Z</time>
  <course>150.83</course>
  <speed>0.0</speed>
  <fix>3d</fix>
</trkpt>
<trkpt lat="40.0728454" lon="-105.2305756">
  <ele>1586.15</ele>
  <time>2026-08-27T18:25:45Z</time>
  <course>72.04</course>
  <speed>0.022360679774997897</speed>
  <fix>3d</fix>
</trkpt>
<trkpt lat="40.0728456" lon="-105.2305755">
  <ele>1586.08</ele>
  <time>2026-08-27T18:25:45Z</time>
  <course>144.34</course>
  <speed>0.0</speed>
  <fix>3d</fix>
</trkpt>
<trkpt lat="40.0728454" lon="-105.2305756">
  <ele>1586.15</ele>
  <time>2026-08-27T18:25:45Z</time>
  <course>72.02</course>
  <speed>0.022360679774997897</speed>
  <fix>3d</fix>
</trkpt>
<trkpt lat="40.0728456" lon="-105.2305755">
  <ele>1586.08</ele>
  <time>2026-08-27T18:25:45Z</time>
  <course>132.78</course>
  <speed>0.0</speed>
  <fix>3d</fix>
</trkpt>
<trkpt lat="40.0728454" lon="-105.2305756">
  <ele>1586.15</ele>
  <time>2026-08-27T18:25:45Z</time>
  <course>72.01</course>
  <speed>0.022360679774997897</speed>
  <fix>3d</fix>
</trkpt>
<trkpt lat="40.0728456" lon="-105.2305755">
  <ele>1586.08</ele>
  <time>2026-08-27T18:25:45Z</time>
  <course>137.85</course>
  <speed>0.0</speed>
  <fix>3d</fix>
</trkpt>
<trkpt lat="40.0728454" lon="-105.2305756">
  <ele>1586.15</ele>
  <time>2026-08-27T18:25:45Z</time>
  <course>71.99</course>
  <speed>0.022360679774997897</speed>
  <fix>3d</fix>
</trkpt>
<trkpt lat="40.0728456" lon="-105.2305755">
  <ele>1586.08</ele>
  <time>2026-08-27T18:25:45Z</time>
  <course>138.82</course>
  <speed>0.0</speed>
  <fix>3d</fix>
</trkpt>
<trkpt lat="40.0728454" lon="-105.2305756">
  <ele>1586.15</ele>
  <time>2026-08-27T18:25:45Z</time>
  <course>71.97</course>
  <speed>0.022360679774997897</speed>
  <fix>3d</fix>
</trkpt>
<trkpt lat="40.0728456" lon="-105.2305755">
  <ele>1586.08</ele>
  <time>2026-08-27T18:25:45Z</time>
  <course>341.53</course>
  <speed>0.0</speed>
  <fix>3d</fix>
</trkpt>
<trkpt lat="40.0728454" lon="-105.2305756">
  <ele>1586.15</ele>
  <time>2026-08-27T18:25:45Z</time>
  <course>71.95</course>
  <speed>0.022360679774997897</speed>
  <fix>3d</fix>
</trkpt>
<trkpt lat="40.0728456" lon="-105.2305755">
  <ele>1586.08</ele>
  <time>2026-08-27T18:25:45Z</time>
  <course>341.36</course>
  <speed>0.0</speed>
  <fix>3d</fix>
</trkpt>
<trkpt lat="40.0728454" lon="-105.2305756">
  <ele>1586.16</ele>
  <time>2026-08-27T18:25:45Z</time>
  <course>71.93</course>
  <speed>0.022360679774997897</speed>
  <fix>3d</fix>
</trkpt>
<trkpt lat="40.0728456" lon="-105.2305755">
  <ele>1586.08</ele>
  <time>2026-08-27T18:25:45Z</time>
  <course>140.37</course>
  <speed>0.0</speed>
  <fix>3d</fix>
</trkpt>
<trkpt lat="40.0728454" lon="-105.2305756">
  <ele>1586.16</ele>
  <time>2026-08-27T18:25:45Z</time>
  <course>71.91</course>
  <speed>0.022360679774997897</speed>
  <fix>3d</fix>
</trkpt>
<trkpt lat="40.0728456" lon="-105.2305755">
  <ele>1586.08</ele>
  <time>2026-08-27T18:25:45Z</time>
  <course>134.08</course>
  <speed>0.0</speed>
  <fix>3d</fix>
</trkpt>
<trkpt lat="40.0728454" lon="-105.2305756">
  <ele>1586.16</ele>
  <time>2026-08-27T18:25:45Z</time>
  <course>71.88</course>
  <speed>0.022360679774997897</speed>
  <fix>3d</fix>
</trkpt>
<trkpt lat="40.0728456" lon="-105.2305755">
  <ele>1586.08</ele>
  <time>2026-08-27T18:25:45Z</time>
  <course>1.73</course>
  <speed>0.0</speed>
  <fix>3d</fix>
</trkpt>
<trkpt lat="40.0728454" lon="-105.2305756">
  <ele>1586.15</ele>
  <time>2026-08-27T18:25:45Z</time>
  <course>71.85</course>
  <speed>0.022360679774997897</speed>
  <fix>3d</fix>
</trkpt>
<trkpt lat="40.0728456" lon="-105.2305755">
  <ele>1586.08</ele>
  <time>2026-08-27T18:25:45Z</time>
  <course>8.38</course>
  <speed>0.0</speed>
  <fix>3d</fix>
</trkpt>
<trkpt lat="40.0728454" lon="-105.2305756">
  <ele>1586.15</ele>
  <time>2026-08-27T18:25:45Z</time>
  <course>71.83</course>
  <speed>0.022360679774997897</speed>
  <fix>3d</fix>
</trkpt>
<trkpt lat="40.0728456" lon="-105.2305755">
  <ele>1586.08</ele>
  <time>2026-08-27T18:25:45Z</time>
  <course>17.41</course>
  <speed>0.0</speed>
  <fix>3d</fix>
</trkpt>
<trkpt lat="40.0728454" lon="-105.2305756">
  <ele>1586.15</ele>
  <time>2026-08-27T18:25:45Z</time>
  <course>71.8</course>
  <speed>0.022360679774997897</speed>
  <fix>3d</fix>
</trkpt>
<trkpt lat="40.0728456" lon="-105.2305755">
  <ele>1586.08</ele>
  <time>2026-08-27T18:25:45Z</time>
  <course>14.21</course>
  <speed>0.0</speed>
  <fix>3d</fix>
</trkpt>
<trkpt lat="40.0728454" lon="-105.2305756">
  <ele>1586.16</ele>
  <time>2026-08-27T18:25:45Z</time>
  <course>71.76</course>
  <speed>0.022360679774997897</speed>
  <fix>3d</fix>
</trkpt>
<trkpt lat="40.0728456" lon="-105.2305755">
  <ele>1586.08</ele>
  <time>2026-08-27T18:25:45Z</time>
  <course>340.29</course>
  <speed>0.0</speed>
  <fix>3d</fix>
</trkpt>
<trkpt lat="40.0728454" lon="-105.2305756">
  <ele>1586.15</ele>
  <time>2026-08-27T18:25:45Z</time>
  <course>71.73</course>
  <speed>0.022360679774997897</speed>
  <fix>3d</fix>
</trkpt>
<trkpt lat="40.0728456" lon="-105.2305755">
  <ele>1586.08</ele>
  <time>2026-08-27T18:25:45Z</time>
  <course>339.96</course>
  <speed>0.0</speed>
  <fix>3d</fix>
</trkpt>
<trkpt lat="40.0728454" lon="-105.2305756">
  <ele>1586.15</ele>
  <time>2026-08-27T18:25:45Z</time>
  <course>71.7</course>
  <speed>0.022360679774997897</speed>
  <fix>3d</fix>
</trkpt>
<trkpt lat="40.0728456" lon="-105.2305755">
  <ele>1586.08</ele>
  <time>2026-08-27T18:25:45Z</time>
  <course>343.69</course>
  <speed>0.0</speed>
  <fix>3d</fix>
</trkpt>
<trkpt lat="40.0728454" lon="-105.2305756">
  <ele>1586.15</ele>
  <time>2026-08-27T18:25:45Z</time>
  <course>71.66</course>
  <speed>0.022360679774997897</speed>
  <fix>3d</fix>
</trkpt>
<trkpt lat="40.0728456" lon="-105.2305755">
  <ele>1586.08</ele>
  <time>2026-08-27T18:25:45Z</time>
  <course>339.92</course>
  <speed>0.0</speed>
  <fix>3d</fix>
</trkpt>
<trkpt lat="40.0728454" lon="-105.2305756">
  <ele>1586.16</ele>
  <time>2026-08-27T18:25:45Z</time>
  <course>71.63</course>
  <speed>0.022360679774997897</speed>
  <fix>3d</fix>
</trkpt>
<trkpt lat="40.0728456" lon="-105.2305755">
  <ele>1586.08</ele>
  <time>2026-08-27T18:25:45Z</time>
  <course>339.62</course>
  <speed>0.0</speed>
  <fix>3d</fix>
</trkpt>
<trkpt lat="40.0728454" lon="-105.2305756">
  <ele>1586.16</ele>
  <time>2026-08-27T18:25:45Z</time>
  <course>71.59</course>
  <speed>0.022360679774997897</speed>
  <fix>3d</fix>
</trkpt>
<trkpt lat="40.0728456" lon="-105.2305755">
  <ele>1586.08</ele>
  <time>2026-08-27T18:25:45Z</time>
  <course>342.58</course>
  <speed>0.0</speed>
  <fix>3d</fix>
</trkpt>
<trkpt lat="40.0728454" lon="-105.2305756">
  <ele>1586.16</ele>
  <time>2026-08-27T18:25:45Z</time>
  <course>71.55</course>
  <speed>0.022360679774997897</speed>
  <fix>3d</fix>
</trkpt>
<trkpt lat="40.0728456" lon="-105.2305755">
  <ele>1586.08</ele>
  <time>2026-08-27T18:25:45Z</time>
  <course>339.57</course>
  <speed>0.0</speed>
  <fix>3d</fix>
</trkpt>
<trkpt lat="40.0728454" lon="-105.2305756">
  <ele>1586.15</ele>
  <time>2026-08-27T18:25:45Z</time>
  <course>71.52</course>
  <speed>0.022360679774997897</speed>
  <fix>3d</fix>
</trkpt>
<trkpt lat="40.0728456" lon="-105.2305755">
  <ele>1586.08</ele>
  <time>2026-08-27T18:25:45Z</time>
  <course>339.44</course>
  <speed>0.0</speed>
  <fix>3d</fix>
</trkpt>
<trkpt lat="40.0728454" lon="-105.2305756">
  <ele>1586.15</ele>
  <time>2026-08-27T18:25:45Z</time>
  <course>71.48</course>
  <speed>0.022360679774997897</speed>
  <fix>3d</fix>
</trkpt>
<trkpt lat="40.0728456" lon="-105.2305755">
  <ele>1586.08</ele>
  <time>2026-08-27T18:25:45Z</time>
  <course>339.49</course>
  <speed>0.0</speed>
  <fix>3d</fix>
</trkpt>
<trkpt lat="40.0728454" lon="-105.2305756">
  <ele>1586.15</ele>
  <time>2026-08-27T18:25:45Z</time>
  <course>71.45</course>
  <speed>0.022360679774997897</speed>
  <fix>3d</fix>
</trkpt>
<trkpt lat="40.0728456" lon="-105.2305755">
  <ele>1586.08</ele>
  <time>2026-08-27T18:25:45Z</time>
  <course>339.08</course>
  <speed>0.0</speed>
  <fix>3d</fix>
</trkpt>
<trkpt lat="40.0728454" lon="-105.2305756">
  <ele>1586.15</ele>
  <time>2026-08-27T18:25:45Z</time>
  <course>71.41</course>
  <speed>0.022360679774997897</speed>
  <fix>3d</fix>
</trkpt>
<trkpt lat="40.0728456" lon="-105.2305755">
  <ele>1586.08</ele>
  <time>2026-08-27T18:25:45Z</time>
  <course>339.59</course>
  <speed>0.0</speed>
  <fix>3d</fix>
</trkpt>
<trkpt lat="40.0728454" lon="-105.2305756">
  <ele>1586.16</ele>
  <time>2026-08-27T18:25:45Z</time>
  <course>71.37</course>
  <speed>0.022360679774997897</speed>
  <fix>3d</fix>
</trkpt>
<trkpt lat="40.0728456" lon="-105.2305755">
  <ele>1586.08</ele>
  <time>2026-08-27T18:25:45Z</time>
  <course>339.16</course>
  <speed>0.0</speed>
  <fix>3d</fix>
</trkpt>
<trkpt lat="40.0728454" lon="-105.2305756">
  <ele>1586.16</ele>
  <time>2026-08-27T18:25:45Z</time>
  <course>71.34</course>
  <speed>0.022360679774997897</speed>
  <fix>3d</fix>
</trkpt>
<trkpt lat="40.0728456" lon="-105.2305755">
  <ele>1586.08</ele>
  <time>2026-08-27T18:25:45Z</time>
  <course>338.8</course>
  <speed>0.0</speed>
  <fix>3d</fix>
</trkpt>
<trkpt lat="40.0728454" lon="-105.2305756">
  <ele>1586.16</ele>
  <time>2026-08-27T18:25:45Z</time>
  <course>71.31</course>
  <speed>0.022360679774997897</speed>
  <fix>3d</fix>
</trkpt>
<trkpt lat="40.0728456" lon="-105.2305755">
  <ele>1586.08</ele>
  <time>2026-08-27T18:25:45Z</time>
  <course>336.06</course>
  <speed>0.0</speed>
  <fix>3d</fix>
</trkpt>
<trkpt lat="40.0728454" lon="-105.2305756">
  <ele>1586.16</ele>
  <time>2026-08-27T18:25:45Z</time>
  <course>71.28</course>
  <speed>0.022360679774997897</speed>
  <fix>3d</fix>
</trkpt>
<trkpt lat="40.0728456" lon="-105.2305755">
  <ele>1586.08</ele>
  <time>2026-08-27T18:25:45Z</time>
  <course>335.13</course>
  <speed>0.0</speed>
  <fix>3d</fix>
</trkpt>
<trkpt lat="40.0728454" lon="-105.2305756">
  <ele>1586.16</ele>
  <time>2026-08-27T18:25:45Z</time>
  <course>71.25</course>
  <speed>0.022360679774997897</speed>
  <fix>3d</fix>
</trkpt>
<trkpt lat="40.0728456" lon="-105.2305755">
  <ele>1586.08</ele>
  <time>2026-08-27T18:25:45Z</time>
  <course>341.6</course>
  <speed>0.0</speed>
  <fix>3d</fix>
</trkpt>
<trkpt lat="40.0728454" lon="-105.2305756">
  <ele>1586.16</ele>
  <time>2026-08-27T18:25:45Z</time>
  <course>71.23</course>
  <speed>0.022360679774997897</speed>
  <fix>3d</fix>
</trkpt>
<trkpt lat="40.0728456" lon="-105.2305755">
  <ele>1586.08</ele>
  <time>2026-08-27T18:25:45Z</time>
  <course>356.63</course>
  <speed>0.0</speed>
  <fix>3d</fix>
</trkpt>
<trkpt lat="40.0728454" lon="-105.2305756">
  <ele>1586.16</ele>
  <time>2026-08-27T18:25:45Z</time>
  <course>71.19</course>
  <speed>0.022360679774997897</speed>
  <fix>3d</fix>
</trkpt>
<trkpt lat="40.0728456" lon="-105.2305755">
  <ele>1586.08</ele>
  <time>2026-08-27T18:25:45Z</time>
  <course>344.72</course>
  <speed>0.0</speed>
  <fix>3d</fix>
</trkpt>
<trkpt lat="40.0728454" lon="-105.2305756">
  <ele>1586.16</ele>
  <time>2026-08-27T18:25:45Z</time>
  <course>71.14</course>
  <speed>0.022360679774997897</speed>
  <fix>3d</fix>
</trkpt>
<trkpt lat="40.0728456" lon="-105.2305755">
  <ele>1586.08</ele>
  <time>2026-08-27T18:25:45Z</time>
  <course>341.62</course>
  <speed>0.0</speed>
  <fix>3d</fix>
</trkpt>
<trkpt lat="40.0728454" lon="-105.2305756">
  <ele>1586.18</ele>
  <time>2026-08-27T18:25:45Z</time>
  <course>71.07</course>
  <speed>0.022360679774997897</speed>
  <fix>3d</fix>
</trkpt>
<trkpt lat="40.0728456" lon="-105.2305755">
  <ele>1586.08</ele>
  <time>2026-08-27T18:25:45Z</time>
  <course>341.8</course>
  <speed>0.0</speed>
  <fix>3d</fix>
</trkpt>
<trkpt lat="40.0728454" lon="-105.2305756">
  <ele>1586.23</ele>
  <time>2026-08-27T18:25:45Z</time>
  <course>70.99</course>
  <speed>0.022360679774997897</speed>
  <fix>3d</fix>
</trkpt>
<trkpt lat="40.0728456" lon="-105.2305755">
  <ele>1586.11</ele>
  <time>2026-08-27T18:25:45Z</time>
  <course>340.99</course>
  <speed>0.0</speed>
  <fix>3d</fix>
</trkpt>
<trkpt lat="40.0728454" lon="-105.2305756">
  <ele>1586.28</ele>
  <time>2026-08-27T18:25:45Z</time>
  <course>70.89</course>
  <speed>0.022360679774997897</speed>
  <fix>3d</fix>
</trkpt>
<trkpt lat="40.0728456" lon="-105.2305755">
  <ele>1586.16</ele>
  <time>2026-08-27T18:25:45Z</time>
  <course>339.23</course>
  <speed>0.0</speed>
  <fix>3d</fix>
</trkpt>
<trkpt lat="40.0728454" lon="-105.2305756">
  <ele>1586.39</ele>
  <time>2026-08-27T18:25:45Z</time>
  <course>63.83</course>
  <speed>0.07211102550927978</speed>
  <fix>3d</fix>
</trkpt>
<trkpt lat="40.0728456" lon="-105.2305755">
  <ele>1586.22</ele>
  <time>2026-08-27T18:25:45Z</time>
  <course>337.92</course>
  <speed>0.01</speed>
  <fix>3d</fix>
</trkpt>
<trkpt lat="40.0728457" lon="-105.2305758">
  <ele>1586.62</ele>
  <time>2026-08-27T18:25:45Z</time>
  <course>63.15</course>
  <speed>0.19235384061671343</speed>
  <fix>3d</fix>
</trkpt>
<trkpt lat="40.0728457" lon="-105.2305755">
  <ele>1586.37</ele>
  <time>2026-08-27T18:25:45Z</time>
  <course>334.63</course>
  <speed>0.12</speed>
  <fix>3d</fix>
</trkpt>
<trkpt lat="40.0728461" lon="-105.230576">
  <ele>1586.71</ele>
  <time>2026-08-27T18:25:45Z</time>
  <course>63.64</course>
  <speed>0.23706539182259395</speed>
  <fix>3d</fix>
</trkpt>
<trkpt lat="40.072846" lon="-105.2305757">
  <ele>1586.55</ele>
  <time>2026-08-27T18:25:45Z</time>
  <course>333.74</course>
  <speed>0.22</speed>
  <fix>3d</fix>
</trkpt>
<trkpt lat="40.0728465" lon="-105.2305762">
  <ele>1586.68</ele>
  <time>2026-08-27T18:25:45Z</time>
  <course>63.97</course>
  <speed>0.24596747752497689</speed>
  <fix>3d</fix>
</trkpt>
<trkpt lat="40.0728464" lon="-105.2305759">
  <ele>1586.62</ele>
  <time>2026-08-27T18:25:45Z</time>
  <course>333.23</course>
  <speed>0.25</speed>
  <fix>3d</fix>
</trkpt>
<trkpt lat="40.0728469" lon="-105.2305765">
  <ele>1586.6</ele>
  <time>2026-08-27T18:25:45Z</time>
  <course>64.35</course>
  <speed>0.23706539182259395</speed>
  <fix>3d</fix>
</trkpt>
<trkpt lat="40.0728467" lon="-105.2305762">
  <ele>1586.58</ele>
  <time>2026-08-27T18:25:45Z</time>
  <course>333.09</course>
  <speed>0.26</speed>
  <fix>3d</fix>
</trkpt>
<trkpt lat="40.0728473" lon="-105.2305767">
  <ele>1586.47</ele>
  <time>2026-08-27T18:25:45Z</time>
  <course>64.63</course>
  <speed>0.2102379604162864</speed>
  <fix>3d</fix>
</trkpt>
<trkpt lat="40.0728472" lon="-105.2305764">
  <ele>1586.48</ele>
  <time>2026-08-27T18:25:45Z</time>
  <course>333.86</course>
  <speed>0.25</speed>
  <fix>3d</fix>
</trkpt>
<trkpt lat="40.0728477" lon="-105.2305769">
  <ele>1586.33</ele>
  <time>2026-08-27T18:25:45Z</time>
  <course>64.72</course>
  <speed>0.17464249196572978</speed>
  <fix>3d</fix>
</trkpt>
<trkpt lat="40.0728476" lon="-105.2305767">
  <ele>1586.34</ele>
  <time>2026-08-27T18:25:46Z</time>
  <course>335.5</course>
  <speed>0.22</speed>
  <fix>3d</fix>
</trkpt>
<trkpt lat="40.0728479" lon="-105.230577">
  <ele>1586.17</ele>
  <time>2026-08-27T18:25:46Z</time>
  <course>64.74</course>
  <speed>0.13</speed>
  <fix>3d</fix>
</trkpt>
<trkpt lat="40.0728479" lon="-105.2305768">
  <ele>1586.19</ele>
  <time>2026-08-27T18:25:46Z</time>
  <course>337.93</course>
  <speed>0.19</speed>
  <fix>3d</fix>
</trkpt>
<trkpt lat="40.072848" lon="-105.2305771">
  <ele>1586.14</ele>
  <time>2026-08-27T18:25:46Z</time>
  <course>64.77</course>
  <speed>0.05</speed>
  <fix>3d</fix>
</trkpt>
<trkpt lat="40.0728481" lon="-105.230577">
  <ele>1586.07</ele>
  <time>2026-08-27T18:25:46Z</time>
  <course>338.54</course>
  <speed>0.08</speed>
  <fix>3d</fix>
</trkpt>
<trkpt lat="40.072848" lon="-105.2305771">
  <ele>1586.17</ele>
  <time>2026-08-27T18:25:46Z</time>
  <course>64.84</course>
  <speed>0.0412310562561766</speed>
  <fix>3d</fix>
</trkpt>
<trkpt lat="40.0728482" lon="-105.230577">
  <ele>1586.05</ele>
  <time>2026-08-27T18:25:46Z</time>
  <course>162.61</course>
  <speed>0.01</speed>
  <fix>3d</fix>
</trkpt>
<trkpt lat="40.072848" lon="-105.2305771">
  <ele>1586.16</ele>
  <time>2026-08-27T18:25:46Z</time>
  <course>64.9</course>
  <speed>0.022360679774997897</speed>
  <fix>3d</fix>
</trkpt>
<trkpt lat="40.0728481" lon="-105.230577">
  <ele>1586.07</ele>
  <time>2026-08-27T18:25:46Z</time>
  <course>154.44</course>
  <speed>0.01</speed>
  <fix>3d</fix>
</trkpt>
<trkpt lat="40.072848" lon="-105.2305771">
  <ele>1586.15</ele>
  <time>2026-08-27T18:25:46Z</time>
  <course>64.97</course>
  <speed>0.022360679774997897</speed>
  <fix>3d</fix>
</trkpt>
<trkpt lat="40.0728481" lon="-105.230577">
  <ele>1586.07</ele>
  <time>2026-08-27T18:25:46Z</time>
  <course>357.85</course>
  <speed>0.0</speed>
  <fix>3d</fix>
</trkpt>
<trkpt lat="40.072848" lon="-105.2305771">
  <ele>1586.15</ele>
  <time>2026-08-27T18:25:46Z</time>
  <course>65.02</course>
  <speed>0.022360679774997897</speed>
  <fix>3d</fix>
</trkpt>
<trkpt lat="40.0728481" lon="-105.230577">
  <ele>1586.07</ele>
  <time>2026-08-27T18:25:46Z</time>
  <course>19.69</course>
  <speed>0.0</speed>
  <fix>3d</fix>
</trkpt>
<trkpt lat="40.072848" lon="-105.2305771">
  <ele>1586.15</ele>
  <time>2026-08-27T18:25:46Z</time>
  <course>65.08</course>
  <speed>0.022360679774997897</speed>
  <fix>3d</fix>
</trkpt>
<trkpt lat="40.0728481" lon="-105.230577">
  <ele>1586.07</ele>
  <time>2026-08-27T18:25:46Z</time>
  <course>348.44</course>
  <speed>0.0</speed>
  <fix>3d</fix>
</trkpt>
<trkpt lat="40.072848" lon="-105.2305771">
  <ele>1586.14</ele>
  <time>2026-08-27T18:25:46Z</time>
  <course>65.14</course>
  <speed>0.022360679774997897</speed>
  <fix>3d</fix>
</trkpt>
<trkpt lat="40.0728481" lon="-105.230577">
  <ele>1586.07</ele>
  <time>2026-08-27T18:25:46Z</time>
  <course>309.04</course>
  <speed>0.0</speed>
  <fix>3d</fix>
</trkpt>
<trkpt lat="40.072848" lon="-105.2305771">
  <ele>1586.14</ele>
  <time>2026-08-27T18:25:46Z</time>
  <course>65.2</course>
  <speed>0.022360679774997897</speed>
  <fix>3d</fix>
</trkpt>
<trkpt lat="40.0728481" lon="-105.230577">
  <ele>1586.07</ele>
  <time>2026-08-27T18:25:46Z</time>
  <course>303.33</course>
  <speed>0.0</speed>
  <fix>3d</fix>
</trkpt>
<trkpt lat="40.072848" lon="-105.2305771">
  <ele>1586.14</ele>
  <time>2026-08-27T18:25:46Z</time>
  <course>65.26</course>
  <speed>0.022360679774997897</speed>
  <fix>3d</fix>
</trkpt>
<trkpt lat="40.0728481" lon="-105.230577">
  <ele>1586.07</ele>
  <time>2026-08-27T18:25:46Z</time>
  <course>78.59</course>
  <speed>0.0</speed>
  <fix>3d</fix>
</trkpt>
<trkpt lat="40.072848" lon="-105.2305771">
  <ele>1586.14</ele>
  <time>2026-08-27T18:25:46Z</time>
  <course>65.32</course>
  <speed>0.03</speed>
  <fix>3d</fix>
</trkpt>
<trkpt lat="40.0728481" lon="-105.230577">
  <ele>1586.07</ele>
  <time>2026-08-27T18:25:46Z</time>
  <course>150.69</course>
  <speed>0.0</speed>
  <fix>3d</fix>
</trkpt>
<trkpt lat="40.072848" lon="-105.2305771">
  <ele>1586.14</ele>
  <time>2026-08-27T18:25:46Z</time>
  <course>65.38</course>
  <speed>0.0316227766016838</speed>
  <fix>3d</fix>
</trkpt>
<trkpt lat="40.0728481" lon="-105.230577">
  <ele>1586.07</ele>
  <time>2026-08-27T18:25:46Z</time>
  <course>164.59</course>
  <speed>0.0</speed>
  <fix>3d</fix>
</trkpt>
<trkpt lat="40.072848" lon="-105.2305771">
  <ele>1586.14</ele>
  <time>2026-08-27T18:25:46Z</time>
  <course>65.45</course>
  <speed>0.02</speed>
  <fix>3d</fix>
</trkpt>
<trkpt lat="40.0728481" lon="-105.230577">
  <ele>1586.07</ele>
  <time>2026-08-27T18:25:46Z</time>
  <course>170.75</course>
  <speed>0.0</speed>
  <fix>3d</fix>
</trkpt>
<trkpt lat="40.072848" lon="-105.2305771">
  <ele>1586.14</ele>
  <time>2026-08-27T18:25:46Z</time>
  <course>65.52</course>
  <speed>0.02</speed>
  <fix>3d</fix>
</trkpt>
<trkpt lat="40.0728481" lon="-105.230577">
  <ele>1586.07</ele>
  <time>2026-08-27T18:25:46Z</time>
  <course>176.32</course>
  <speed>0.0</speed>
  <fix>3d</fix>
</trkpt>
<trkpt lat="40.072848" lon="-105.2305771">
  <ele>1586.14</ele>
  <time>2026-08-27T18:25:46Z</time>
  <course>65.6</course>
  <speed>0.02</speed>
  <fix>3d</fix>
</trkpt>
<trkpt lat="40.0728481" lon="-105.230577">
  <ele>1586.07</ele>
  <time>2026-08-27T18:25:46Z</time>
  <course>176.17</course>
  <speed>0.0</speed>
  <fix>3d</fix>
</trkpt>
<trkpt lat="40.072848" lon="-105.2305771">
  <ele>1586.14</ele>
  <time>2026-08-27T18:25:46Z</time>
  <course>65.66</course>
  <speed>0.02</speed>
  <fix>3d</fix>
</trkpt>
<trkpt lat="40.0728481" lon="-105.230577">
  <ele>1586.07</ele>
  <time>2026-08-27T18:25:46Z</time>
  <course>179.14</course>
  <speed>0.0</speed>
  <fix>3d</fix>
</trkpt>
<trkpt lat="40.072848" lon="-105.2305771">
  <ele>1586.14</ele>
  <time>2026-08-27T18:25:46Z</time>
  <course>65.73</course>
  <speed>0.02</speed>
  <fix>3d</fix>
</trkpt>
<trkpt lat="40.0728481" lon="-105.230577">
  <ele>1586.07</ele>
  <time>2026-08-27T18:25:46Z</time>
  <course>174.86</course>
  <speed>0.0</speed>
  <fix>3d</fix>
</trkpt>
<trkpt lat="40.072848" lon="-105.2305771">
  <ele>1586.14</ele>
  <time>2026-08-27T18:25:46Z</time>
  <course>65.78</course>
  <speed>0.02</speed>
  <fix>3d</fix>
</trkpt>
<trkpt lat="40.0728481" lon="-105.230577">
  <ele>1586.07</ele>
  <time>2026-08-27T18:25:46Z</time>
  <course>152.37</course>
  <speed>0.0</speed>
  <fix>3d</fix>
</trkpt>
<trkpt lat="40.072848" lon="-105.2305771">
  <ele>1586.14</ele>
  <time>2026-08-27T18:25:46Z</time>
  <course>65.84</course>
  <speed>0.02</speed>
  <fix>3d</fix>
</trkpt>
<trkpt lat="40.0728481" lon="-105.230577">
  <ele>1586.07</ele>
  <time>2026-08-27T18:25:46Z</time>
  <course>148.6</course>
  <speed>0.0</speed>
  <fix>3d</fix>
</trkpt>
<trkpt lat="40.072848" lon="-105.2305771">
  <ele>1586.14</ele>
  <time>2026-08-27T18:25:46Z</time>
  <course>65.89</course>
  <speed>0.02</speed>
  <fix>3d</fix>
</trkpt>
<trkpt lat="40.0728481" lon="-105.230577">
  <ele>1586.07</ele>
  <time>2026-08-27T18:25:46Z</time>
  <course>160.09</course>
  <speed>0.0</speed>
  <fix>3d</fix>
</trkpt>
<trkpt lat="40.072848" lon="-105.2305771">
  <ele>1586.14</ele>
  <time>2026-08-27T18:25:46Z</time>
  <course>65.94</course>
  <speed>0.02</speed>
  <fix>3d</fix>
</trkpt>
<trkpt lat="40.0728481" lon="-105.230577">
  <ele>1586.07</ele>
  <time>2026-08-27T18:25:46Z</time>
  <course>151.58</course>
  <speed>0.0</speed>
  <fix>3d</fix>
</trkpt>
<trkpt lat="40.072848" lon="-105.2305771">
  <ele>1586.14</ele>
  <time>2026-08-27T18:25:46Z</time>
  <course>65.99</course>
  <speed>0.02</speed>
  <fix>3d</fix>
</trkpt>
<trkpt lat="40.0728481" lon="-105.230577">
  <ele>1586.07</ele>
  <time>2026-08-27T18:25:46Z</time>
  <course>143.48</course>
  <speed>0.0</speed>
  <fix>3d</fix>
</trkpt>
<trkpt lat="40.072848" lon="-105.2305771">
  <ele>1586.14</ele>
  <time>2026-08-27T18:25:46Z</time>
  <course>66.03</course>
  <speed>0.02</speed>
  <fix>3d</fix>
</trkpt>
<trkpt lat="40.0728481" lon="-105.230577">
  <ele>1586.07</ele>
  <time>2026-08-27T18:25:46Z</time>
  <course>145.99</course>
  <speed>0.0</speed>
  <fix>3d</fix>
</trkpt>
<trkpt lat="40.072848" lon="-105.2305771">
  <ele>1586.14</ele>
  <time>2026-08-27T18:25:46Z</time>
  <course>66.07</course>
  <speed>0.02</speed>
  <fix>3d</fix>
</trkpt>
<trkpt lat="40.0728481" lon="-105.230577">
  <ele>1586.07</ele>
  <time>2026-08-27T18:25:46Z</time>
  <course>153.74</course>
  <speed>0.0</speed>
  <fix>3d</fix>
</trkpt>
<trkpt lat="40.072848" lon="-105.2305771">
  <ele>1586.15</ele>
  <time>2026-08-27T18:25:46Z</time>
  <course>66.12</course>
  <speed>0.02</speed>
  <fix>3d</fix>
</trkpt>
<trkpt lat="40.0728481" lon="-105.230577">
  <ele>1586.07</ele>
  <time>2026-08-27T18:25:46Z</time>
  <course>151.87</course>
  <speed>0.0</speed>
  <fix>3d</fix>
</trkpt>
<trkpt lat="40.072848" lon="-105.2305771">
  <ele>1586.15</ele>
  <time>2026-08-27T18:25:46Z</time>
  <course>66.16</course>
  <speed>0.02</speed>
  <fix>3d</fix>
</trkpt>
<trkpt lat="40.0728481" lon="-105.230577">
  <ele>1586.07</ele>
  <time>2026-08-27T18:25:46Z</time>
  <course>150.77</course>
  <speed>0.0</speed>
  <fix>3d</fix>
</trkpt>
<trkpt lat="40.072848" lon="-105.2305771">
  <ele>1586.14</ele>
  <time>2026-08-27T18:25:46Z</time>
  <course>66.19</course>
  <speed>0.02</speed>
  <fix>3d</fix>
</trkpt>
<trkpt lat="40.0728481" lon="-105.230577">
  <ele>1586.07</ele>
  <time>2026-08-27T18:25:46Z</time>
  <course>150.91</course>
  <speed>0.0</speed>
  <fix>3d</fix>
</trkpt>
<trkpt lat="40.072848" lon="-105.2305771">
  <ele>1586.14</ele>
  <time>2026-08-27T18:25:46Z</time>
  <course>66.23</course>
  <speed>0.02</speed>
  <fix>3d</fix>
</trkpt>
<trkpt lat="40.0728481" lon="-105.230577">
  <ele>1586.07</ele>
  <time>2026-08-27T18:25:46Z</time>
  <course>150.99</course>
  <speed>0.0</speed>
  <fix>3d</fix>
</trkpt>
<trkpt lat="40.072848" lon="-105.2305771">
  <ele>1586.14</ele>
  <time>2026-08-27T18:25:46Z</time>
  <course>66.27</course>
  <speed>0.02</speed>
  <fix>3d</fix>
</trkpt>
<trkpt lat="40.0728481" lon="-105.230577">
  <ele>1586.07</ele>
  <time>2026-08-27T18:25:46Z</time>
  <course>150.96</course>
  <speed>0.0</speed>
  <fix>3d</fix>
</trkpt>
<trkpt lat="40.072848" lon="-105.2305771">
  <ele>1586.14</ele>
  <time>2026-08-27T18:25:46Z</time>
  <course>66.3</course>
  <speed>0.02</speed>
  <fix>3d</fix>
</trkpt>
<trkpt lat="40.0728481" lon="-105.230577">
  <ele>1586.07</ele>
  <time>2026-08-27T18:25:46Z</time>
  <course>150.76</course>
  <speed>0.0</speed>
  <fix>3d</fix>
</trkpt>
<trkpt lat="40.072848" lon="-105.2305771">
  <ele>1586.14</ele>
  <time>2026-08-27T18:25:46Z</time>
  <course>66.34</course>
  <speed>0.02</speed>
  <fix>3d</fix>
</trkpt>
<trkpt lat="40.0728481" lon="-105.230577">
  <ele>1586.07</ele>
  <time>2026-08-27T18:25:46Z</time>
  <course>150.37</course>
  <speed>0.0</speed>
  <fix>3d</fix>
</trkpt>
<trkpt lat="40.072848" lon="-105.2305771">
  <ele>1586.14</ele>
  <time>2026-08-27T18:25:46Z</time>
  <course>66.37</course>
  <speed>0.02</speed>
  <fix>3d</fix>
</trkpt>
<trkpt lat="40.0728481" lon="-105.230577">
  <ele>1586.07</ele>
  <time>2026-08-27T18:25:46Z</time>
  <course>150.26</course>
  <speed>0.0</speed>
  <fix>3d</fix>
</trkpt>
<trkpt lat="40.072848" lon="-105.2305771">
  <ele>1586.15</ele>
  <time>2026-08-27T18:25:46Z</time>
  <course>66.41</course>
  <speed>0.02</speed>
  <fix>3d</fix>
</trkpt>
<trkpt lat="40.0728481" lon="-105.230577">
  <ele>1586.07</ele>
  <time>2026-08-27T18:25:46Z</time>
  <course>150.48</course>
  <speed>0.0</speed>
  <fix>3d</fix>
</trkpt>
<trkpt lat="40.072848" lon="-105.2305771">
  <ele>1586.15</ele>
  <time>2026-08-27T18:25:46Z</time>
  <course>66.44</course>
  <speed>0.02</speed>
  <fix>3d</fix>
</trkpt>
<trkpt lat="40.0728481" lon="-105.230577">
  <ele>1586.07</ele>
  <time>2026-08-27T18:25:46Z</time>
  <course>150.35</course>
  <speed>0.0</speed>
  <fix>3d</fix>
</trkpt>
<trkpt lat="40.072848" lon="-105.2305771">
  <ele>1586.15</ele>
  <time>2026-08-27T18:25:46Z</time>
  <course>66.47</course>
  <speed>0.02</speed>
  <fix>3d</fix>
</trkpt>
<trkpt lat="40.0728481" lon="-105.230577">
  <ele>1586.07</ele>
  <time>2026-08-27T18:25:46Z</time>
  <course>149.57</course>
  <speed>0.0</speed>
  <fix>3d</fix>
</trkpt>
<trkpt lat="40.072848" lon="-105.2305771">
  <ele>1586.15</ele>
  <time>2026-08-27T18:25:46Z</time>
  <course>66.5</course>
  <speed>0.02</speed>
  <fix>3d</fix>
</trkpt>
<trkpt lat="40.0728481" lon="-105.230577">
  <ele>1586.07</ele>
  <time>2026-08-27T18:25:46Z</time>
  <course>149.85</course>
  <speed>0.0</speed>
  <fix>3d</fix>
</trkpt>
<trkpt lat="40.072848" lon="-105.2305771">
  <ele>1586.15</ele>
  <time>2026-08-27T18:25:46Z</time>
  <course>66.54</course>
  <speed>0.02</speed>
  <fix>3d</fix>
</trkpt>
<trkpt lat="40.0728481" lon="-105.230577">
  <ele>1586.07</ele>
  <time>2026-08-27T18:25:46Z</time>
  <course>149.86</course>
  <speed>0.0</speed>
  <fix>3d</fix>
</trkpt>
<trkpt lat="40.072848" lon="-105.2305771">
  <ele>1586.15</ele>
  <time>2026-08-27T18:25:46Z</time>
  <course>66.57</course>
  <speed>0.02</speed>
  <fix>3d</fix>
</trkpt>
<trkpt lat="40.0728481" lon="-105.230577">
  <ele>1586.07</ele>
  <time>2026-08-27T18:25:46Z</time>
  <course>148.75</course>
  <speed>0.0</speed>
  <fix>3d</fix>
</trkpt>
<trkpt lat="40.072848" lon="-105.2305771">
  <ele>1586.15</ele>
  <time>2026-08-27T18:25:46Z</time>
  <course>66.6</course>
  <speed>0.02</speed>
  <fix>3d</fix>
</trkpt>
<trkpt lat="40.0728481" lon="-105.230577">
  <ele>1586.07</ele>
  <time>2026-08-27T18:25:46Z</time>
  <course>148.35</course>
  <speed>0.0</speed>
  <fix>3d</fix>
</trkpt>
<trkpt lat="40.072848" lon="-105.2305771">
  <ele>1586.16</ele>
  <time>2026-08-27T18:25:46Z</time>
  <course>66.63</course>
  <speed>0.02</speed>
  <fix>3d</fix>
</trkpt>
<trkpt lat="40.0728481" lon="-105.230577">
  <ele>1586.07</ele>
  <time>2026-08-27T18:25:46Z</time>
  <course>148.95</course>
  <speed>0.0</speed>
  <fix>3d</fix>
</trkpt>
<trkpt lat="40.072848" lon="-105.2305771">
  <ele>1586.15</ele>
  <time>2026-08-27T18:25:46Z</time>
  <course>66.66</course>
  <speed>0.02</speed>
  <fix>3d</fix>
</trkpt>
<trkpt lat="40.0728481" lon="-105.230577">
  <ele>1586.07</ele>
  <time>2026-08-27T18:25:46Z</time>
  <course>148.37</course>
  <speed>0.0</speed>
  <fix>3d</fix>
</trkpt>
<trkpt lat="40.072848" lon="-105.2305771">
  <ele>1586.15</ele>
  <time>2026-08-27T18:25:46Z</time>
  <course>66.68</course>
  <speed>0.02</speed>
  <fix>3d</fix>
</trkpt>
<trkpt lat="40.0728481" lon="-105.230577">
  <ele>1586.07</ele>
  <time>2026-08-27T18:25:46Z</time>
  <course>146.52</course>
  <speed>0.0</speed>
  <fix>3d</fix>
</trkpt>
<trkpt lat="40.072848" lon="-105.2305771">
  <ele>1586.15</ele>
  <time>2026-08-27T18:25:46Z</time>
  <course>66.71</course>
  <speed>0.02</speed>
  <fix>3d</fix>
</trkpt>
<trkpt lat="40.0728481" lon="-105.230577">
  <ele>1586.07</ele>
  <time>2026-08-27T18:25:46Z</time>
  <course>146.35</course>
  <speed>0.0</speed>
  <fix>3d</fix>
</trkpt>
<trkpt lat="40.072848" lon="-105.2305771">
  <ele>1586.16</ele>
  <time>2026-08-27T18:25:46Z</time>
  <course>66.74</course>
  <speed>0.02</speed>
  <fix>3d</fix>
</trkpt>
<trkpt lat="40.0728481" lon="-105.230577">
  <ele>1586.07</ele>
  <time>2026-08-27T18:25:46Z</time>
  <course>147.74</course>
  <speed>0.0</speed>
  <fix>3d</fix>
</trkpt>
<trkpt lat="40.072848" lon="-105.2305771">
  <ele>1586.16</ele>
  <time>2026-08-27T18:25:46Z</time>
  <course>66.77</course>
  <speed>0.02</speed>
  <fix>3d</fix>
</trkpt>
<trkpt lat="40.0728481" lon="-105.230577">
  <ele>1586.07</ele>
  <time>2026-08-27T18:25:46Z</time>
  <course>147.75</course>
  <speed>0.0</speed>
  <fix>3d</fix>
</trkpt>
<trkpt lat="40.072848" lon="-105.2305771">
  <ele>1586.16</ele>
  <time>2026-08-27T18:25:46Z</time>
  <course>66.8</course>
  <speed>0.02</speed>
  <fix>3d</fix>
</trkpt>
<trkpt lat="40.0728481" lon="-105.230577">
  <ele>1586.07</ele>
  <time>2026-08-27T18:25:46Z</time>
  <course>144.96</course>
  <speed>0.0</speed>
  <fix>3d</fix>
</trkpt>
<trkpt lat="40.072848" lon="-105.2305771">
  <ele>1586.16</ele>
  <time>2026-08-27T18:25:46Z</time>
  <course>66.82</course>
  <speed>0.02</speed>
  <fix>3d</fix>
</trkpt>
<trkpt lat="40.0728481" lon="-105.230577">
  <ele>1586.07</ele>
  <time>2026-08-27T18:25:46Z</time>
  <course>142.9</course>
  <speed>0.0</speed>
  <fix>3d</fix>
</trkpt>
<trkpt lat="40.072848" lon="-105.2305771">
  <ele>1586.16</ele>
  <time>2026-08-27T18:25:46Z</time>
  <course>66.85</course>
  <speed>0.02</speed>
  <fix>3d</fix>
</trkpt>
<trkpt lat="40.0728481" lon="-105.230577">
  <ele>1586.07</ele>
  <time>2026-08-27T18:25:46Z</time>
  <course>143.04</course>
  <speed>0.0</speed>
  <fix>3d</fix>
</trkpt>
<trkpt lat="40.072848" lon="-105.2305771">
  <ele>1586.16</ele>
  <time>2026-08-27T18:25:46Z</time>
  <course>66.88</course>
  <speed>0.02</speed>
  <fix>3d</fix>
</trkpt>
<trkpt lat="40.0728481" lon="-105.230577">
  <ele>1586.07</ele>
  <time>2026-08-27T18:25:46Z</time>
  <course>144.5</course>
  <speed>0.0</speed>
  <fix>3d</fix>
</trkpt>
<trkpt lat="40.072848" lon="-105.2305771">
  <ele>1586.15</ele>
  <time>2026-08-27T18:25:46Z</time>
  <course>66.91</course>
  <speed>0.02</speed>
  <fix>3d</fix>
</trkpt>
<trkpt lat="40.0728481" lon="-105.230577">
  <ele>1586.07</ele>
  <time>2026-08-27T18:25:46Z</time>
  <course>145.41</course>
  <speed>0.0</speed>
  <fix>3d</fix>
</trkpt>
<trkpt lat="40.072848" lon="-105.2305771">
  <ele>1586.15</ele>
  <time>2026-08-27T18:25:46Z</time>
  <course>66.93</course>
  <speed>0.02</speed>
  <fix>3d</fix>
</trkpt>
<trkpt lat="40.0728481" lon="-105.230577">
  <ele>1586.07</ele>
  <time>2026-08-27T18:25:46Z</time>
  <course>142.35</course>
  <speed>0.0</speed>
  <fix>3d</fix>
</trkpt>
<trkpt lat="40.072848" lon="-105.2305771">
  <ele>1586.15</ele>
  <time>2026-08-27T18:25:46Z</time>
  <course>66.96</course>
  <speed>0.02</speed>
  <fix>3d</fix>
</trkpt>
<trkpt lat="40.0728481" lon="-105.230577">
  <ele>1586.07</ele>
  <time>2026-08-27T18:25:46Z</time>
  <course>136.32</course>
  <speed>0.0</speed>
  <fix>3d</fix>
</trkpt>
<trkpt lat="40.072848" lon="-105.2305771">
  <ele>1586.15</ele>
  <time>2026-08-27T18:25:46Z</time>
  <course>66.99</course>
  <speed>0.02</speed>
  <fix>3d</fix>
</trkpt>
<trkpt lat="40.0728481" lon="-105.230577">
  <ele>1586.07</ele>
  <time>2026-08-27T18:25:46Z</time>
  <course>136.86</course>
  <speed>0.0</speed>
  <fix>3d</fix>
</trkpt>
<trkpt lat="40.072848" lon="-105.2305771">
  <ele>1586.15</ele>
  <time>2026-08-27T18:25:46Z</time>
  <course>67.01</course>
  <speed>0.02</speed>
  <fix>3d</fix>
</trkpt>
<trkpt lat="40.0728481" lon="-105.230577">
  <ele>1586.07</ele>
  <time>2026-08-27T18:25:46Z</time>
  <course>142.15</course>
  <speed>0.0</speed>
  <fix>3d</fix>
</trkpt>
<trkpt lat="40.072848" lon="-105.2305771">
  <ele>1586.15</ele>
  <time>2026-08-27T18:25:46Z</time>
  <course>67.04</course>
  <speed>0.02</speed>
  <fix>3d</fix>
</trkpt>
<trkpt lat="40.0728481" lon="-105.230577">
  <ele>1586.07</ele>
  <time>2026-08-27T18:25:46Z</time>
  <course>142.88</course>
  <speed>0.0</speed>
  <fix>3d</fix>
</trkpt>
<trkpt lat="40.072848" lon="-105.2305771">
  <ele>1586.14</ele>
  <time>2026-08-27T18:25:46Z</time>
  <course>67.06</course>
  <speed>0.02</speed>
  <fix>3d</fix>
</trkpt>
<trkpt lat="40.0728481" lon="-105.230577">
  <ele>1586.07</ele>
  <time>2026-08-27T18:25:46Z</time>
  <course>134.71</course>
  <speed>0.0</speed>
  <fix>3d</fix>
</trkpt>
<trkpt lat="40.072848" lon="-105.2305771">
  <ele>1586.14</ele>
  <time>2026-08-27T18:25:46Z</time>
  <course>67.09</course>
  <speed>0.02</speed>
  <fix>3d</fix>
</trkpt>
<trkpt lat="40.0728481" lon="-105.230577">
  <ele>1586.07</ele>
  <time>2026-08-27T18:25:46Z</time>
  <course>129.86</course>
  <speed>0.0</speed>
  <fix>3d</fix>
</trkpt>
<trkpt lat="40.072848" lon="-105.2305771">
  <ele>1586.14</ele>
  <time>2026-08-27T18:25:46Z</time>
  <course>67.11</course>
  <speed>0.02</speed>
  <fix>3d</fix>
</trkpt>
<trkpt lat="40.0728481" lon="-105.230577">
  <ele>1586.07</ele>
  <time>2026-08-27T18:25:46Z</time>
  <course>139.7</course>
  <speed>0.0</speed>
  <fix>3d</fix>
</trkpt>
<trkpt lat="40.072848" lon="-105.2305771">
  <ele>1586.14</ele>
  <time>2026-08-27T18:25:46Z</time>
  <course>67.14</course>
  <speed>0.02</speed>
  <fix>3d</fix>
</trkpt>
<trkpt lat="40.0728481" lon="-105.230577">
  <ele>1586.07</ele>
  <time>2026-08-27T18:25:46Z</time>
  <course>144.56</course>
  <speed>0.0</speed>
  <fix>3d</fix>
</trkpt>
<trkpt lat="40.072848" lon="-105.2305771">
  <ele>1586.14</ele>
  <time>2026-08-27T18:25:46Z</time>
  <course>67.16</course>
  <speed>0.02</speed>
  <fix>3d</fix>
</trkpt>
<trkpt lat="40.0728481" lon="-105.230577">
  <ele>1586.07</ele>
  <time>2026-08-27T18:25:46Z</time>
  <course>144.87</course>
  <speed>0.0</speed>
  <fix>3d</fix>
</trkpt>
<trkpt lat="40.072848" lon="-105.2305771">
  <ele>1586.14</ele>
  <time>2026-08-27T18:25:46Z</time>
  <course>67.18</course>
  <speed>0.02</speed>
  <fix>3d</fix>
</trkpt>
<trkpt lat="40.0728481" lon="-105.230577">
  <ele>1586.07</ele>
  <time>2026-08-27T18:25:46Z</time>
  <course>151.48</course>
  <speed>0.0</speed>
  <fix>3d</fix>
</trkpt>
<trkpt lat="40.072848" lon="-105.2305771">
  <ele>1586.14</ele>
  <time>2026-08-27T18:25:46Z</time>
  <course>67.21</course>
  <speed>0.02</speed>
  <fix>3d</fix>
</trkpt>
<trkpt lat="40.0728481" lon="-105.230577">
  <ele>1586.07</ele>
  <time>2026-08-27T18:25:46Z</time>
  <course>151.39</course>
  <speed>0.0</speed>
  <fix>3d</fix>
</trkpt>
<trkpt lat="40.072848" lon="-105.2305771">
  <ele>1586.15</ele>
  <time>2026-08-27T18:25:46Z</time>
  <course>67.23</course>
  <speed>0.02</speed>
  <fix>3d</fix>
</trkpt>
<trkpt lat="40.0728481" lon="-105.230577">
  <ele>1586.07</ele>
  <time>2026-08-27T18:25:46Z</time>
  <course>336.16</course>
  <speed>0.0</speed>
  <fix>3d</fix>
</trkpt>
<trkpt lat="40.072848" lon="-105.2305771">
  <ele>1586.15</ele>
  <time>2026-08-27T18:25:46Z</time>
  <course>67.25</course>
  <speed>0.02</speed>
  <fix>3d</fix>
</trkpt>
<trkpt lat="40.0728481" lon="-105.230577">
  <ele>1586.07</ele>
  <time>2026-08-27T18:25:46Z</time>
  <course>338.82</course>
  <speed>0.0</speed>
  <fix>3d</fix>
</trkpt>
<trkpt lat="40.072848" lon="-105.2305771">
  <ele>1586.16</ele>
  <time>2026-08-27T18:25:46Z</time>
  <course>67.27</course>
  <speed>0.02</speed>
  <fix>3d</fix>
</trkpt>
<trkpt lat="40.0728481" lon="-105.230577">
  <ele>1586.07</ele>
  <time>2026-08-27T18:25:46Z</time>
  <course>116.71</course>
  <speed>0.0</speed>
  <fix>3d</fix>
</trkpt>
<trkpt lat="40.072848" lon="-105.2305771">
  <ele>1586.16</ele>
  <time>2026-08-27T18:25:46Z</time>
  <course>67.29</course>
  <speed>0.02</speed>
  <fix>3d</fix>
</trkpt>
<trkpt lat="40.0728481" lon="-105.230577">
  <ele>1586.07</ele>
  <time>2026-08-27T18:25:46Z</time>
  <course>30.33</course>
  <speed>0.0</speed>
  <fix>3d</fix>
</trkpt>
<trkpt lat="40.072848" lon="-105.2305771">
  <ele>1586.15</ele>
  <time>2026-08-27T18:25:46Z</time>
  <course>67.32</course>
  <speed>0.02</speed>
  <fix>3d</fix>
</trkpt>
<trkpt lat="40.0728481" lon="-105.230577">
  <ele>1586.07</ele>
  <time>2026-08-27T18:25:46Z</time>
  <course>2.17</course>
  <speed>0.0</speed>
  <fix>3d</fix>
</trkpt>
<trkpt lat="40.072848" lon="-105.2305771">
  <ele>1586.15</ele>
  <time>2026-08-27T18:25:46Z</time>
  <course>67.34</course>
  <speed>0.02</speed>
  <fix>3d</fix>
</trkpt>
<trkpt lat="40.0728481" lon="-105.230577">
  <ele>1586.07</ele>
  <time>2026-08-27T18:25:46Z</time>
  <course>9.12</course>
  <speed>0.0</speed>
  <fix>3d</fix>
</trkpt>
<trkpt lat="40.072848" lon="-105.2305771">
  <ele>1586.14</ele>
  <time>2026-08-27T18:25:46Z</time>
  <course>67.36</course>
  <speed>0.02</speed>
  <fix>3d</fix>
</trkpt>
<trkpt lat="40.0728481" lon="-105.230577">
  <ele>1586.07</ele>
  <time>2026-08-27T18:25:46Z</time>
  <course>11.32</course>
  <speed>0.0</speed>
  <fix>3d</fix>
</trkpt>
<trkpt lat="40.072848" lon="-105.2305771">
  <ele>1586.14</ele>
  <time>2026-08-27T18:25:46Z</time>
  <course>67.38</course>
  <speed>0.02</speed>
  <fix>3d</fix>
</trkpt>
<trkpt lat="40.0728481" lon="-105.230577">
  <ele>1586.07</ele>
  <time>2026-08-27T18:25:46Z</time>
  <course>9.86</course>
  <speed>0.0</speed>
  <fix>3d</fix>
</trkpt>
<trkpt lat="40.072848" lon="-105.2305771">
  <ele>1586.13</ele>
  <time>2026-08-27T18:25:46Z</time>
  <course>67.4</course>
  <speed>0.01</speed>
  <fix>3d</fix>
</trkpt>
<trkpt lat="40.0728481" lon="-105.230577">
  <ele>1586.07</ele>
  <time>2026-08-27T18:25:46Z</time>
  <course>9.73</course>
  <speed>0.0</speed>
  <fix>3d</fix>
</trkpt>
<trkpt lat="40.072848" lon="-105.2305771">
  <ele>1586.13</ele>
  <time>2026-08-27T18:25:46Z</time>
  <course>67.42</course>
  <speed>0.01</speed>
  <fix>3d</fix>
</trkpt>
<trkpt lat="40.0728481" lon="-105.230577">
  <ele>1586.07</ele>
  <time>2026-08-27T18:25:46Z</time>
  <course>9.94</course>
  <speed>0.0</speed>
  <fix>3d</fix>
</trkpt>
<trkpt lat="40.072848" lon="-105.2305771">
  <ele>1586.13</ele>
  <time>2026-08-27T18:25:46Z</time>
  <course>67.45</course>
  <speed>0.01</speed>
  <fix>3d</fix>
</trkpt>
<trkpt lat="40.0728481" lon="-105.230577">
  <ele>1586.07</ele>
  <time>2026-08-27T18:25:46Z</time>
  <course>9.93</course>
  <speed>0.0</speed>
  <fix>3d</fix>
</trkpt>
<trkpt lat="40.072848" lon="-105.2305771">
  <ele>1586.12</ele>
  <time>2026-08-27T18:25:47Z</time>
  <course>67.52</course>
  <speed>0.01</speed>
  <fix>3d</fix>
</trkpt>
<trkpt lat="40.0728481" lon="-105.230577">
  <ele>1586.07</ele>
  <time>2026-08-27T18:25:47Z</time>
  <course>4.57</course>
  <speed>0.0</speed>
  <fix>3d</fix>
</trkpt>
<trkpt lat="40.072848" lon="-105.2305771">
  <ele>1586.13</ele>
  <time>2026-08-27T18:25:47Z</time>
  <course>67.54</course>
  <speed>0.01</speed>
  <fix>3d</fix>
</trkpt>
<trkpt lat="40.0728481" lon="-105.230577">
  <ele>1586.07</ele>
  <time>2026-08-27T18:25:47Z</time>
  <course>129.55</course>
  <speed>0.0</speed>
  <fix>3d</fix>
</trkpt>
<trkpt lat="40.072848" lon="-105.2305771">
  <ele>1586.13</ele>
  <time>2026-08-27T18:25:47Z</time>
  <course>67.58</course>
  <speed>0.01</speed>
  <fix>3d</fix>
</trkpt>
<trkpt lat="40.0728481" lon="-105.230577">
  <ele>1586.07</ele>
  <time>2026-08-27T18:25:47Z</time>
  <course>9.83</course>
  <speed>0.0</speed>
  <fix>3d</fix>
</trkpt>
<trkpt lat="40.072848" lon="-105.2305771">
  <ele>1586.14</ele>
  <time>2026-08-27T18:25:47Z</time>
  <course>67.6</course>
  <speed>0.01</speed>
  <fix>3d</fix>
</trkpt>
<trkpt lat="40.0728481" lon="-105.230577">
  <ele>1586.07</ele>
  <time>2026-08-27T18:25:47Z</time>
  <course>321.44</course>
  <speed>0.0</speed>
  <fix>3d</fix>
</trkpt>
<trkpt lat="40.072848" lon="-105.2305771">
  <ele>1586.14</ele>
  <time>2026-08-27T18:25:47Z</time>
  <course>67.62</course>
  <speed>0.01</speed>
  <fix>3d</fix>
</trkpt>
<trkpt lat="40.0728481" lon="-105.230577">
  <ele>1586.07</ele>
  <time>2026-08-27T18:25:47Z</time>
  <course>329.25</course>
  <speed>0.0</speed>
  <fix>3d</fix>
</trkpt>
<trkpt lat="40.072848" lon="-105.2305771">
  <ele>1586.15</ele>
  <time>2026-08-27T18:25:47Z</time>
  <course>67.64</course>
  <speed>0.01</speed>
  <fix>3d</fix>
</trkpt>
<trkpt lat="40.0728481" lon="-105.230577">
  <ele>1586.07</ele>
  <time>2026-08-27T18:25:47Z</time>
  <course>329.73</course>
  <speed>0.0</speed>
  <fix>3d</fix>
</trkpt>
<trkpt lat="40.072848" lon="-105.2305771">
  <ele>1586.16</ele>
  <time>2026-08-27T18:25:47Z</time>
  <course>67.66</course>
  <speed>0.01</speed>
  <fix>3d</fix>
</trkpt>
<trkpt lat="40.0728481" lon="-105.230577">
  <ele>1586.07</ele>
  <time>2026-08-27T18:25:47Z</time>
  <course>193.51</course>
  <speed>0.0</speed>
  <fix>3d</fix>
</trkpt>
<trkpt lat="40.072848" lon="-105.2305771">
  <ele>1586.16</ele>
  <time>2026-08-27T18:25:47Z</time>
  <course>67.68</course>
  <speed>0.01</speed>
  <fix>3d</fix>
</trkpt>
<trkpt lat="40.0728481" lon="-105.230577">
  <ele>1586.07</ele>
  <time>2026-08-27T18:25:47Z</time>
  <course>85.05</course>
  <speed>0.0</speed>
  <fix>3d</fix>
</trkpt>
<trkpt lat="40.072848" lon="-105.2305771">
  <ele>1586.17</ele>
  <time>2026-08-27T18:25:47Z</time>
  <course>67.7</course>
  <speed>0.01</speed>
  <fix>3d</fix>
</trkpt>
<trkpt lat="40.0728481" lon="-105.230577">
  <ele>1586.07</ele>
  <time>2026-08-27T18:25:47Z</time>
  <course>150.5</course>
  <speed>0.0</speed>
  <fix>3d</fix>
</trkpt>
<trkpt lat="40.072848" lon="-105.2305771">
  <ele>1586.16</ele>
  <time>2026-08-27T18:25:47Z</time>
  <course>67.72</course>
  <speed>0.01</speed>
  <fix>3d</fix>
</trkpt>
<trkpt lat="40.0728481" lon="-105.230577">
  <ele>1586.07</ele>
  <time>2026-08-27T18:25:47Z</time>
  <course>142.58</course>
  <speed>0.0</speed>
  <fix>3d</fix>
</trkpt>
<trkpt lat="40.072848" lon="-105.2305771">
  <ele>1586.16</ele>
  <time>2026-08-27T18:25:47Z</time>
  <course>67.74</course>
  <speed>0.01</speed>
  <fix>3d</fix>
</trkpt>
<trkpt lat="40.0728481" lon="-105.230577">
  <ele>1586.07</ele>
  <time>2026-08-27T18:25:47Z</time>
  <course>27.4</course>
  <speed>0.0</speed>
  <fix>3d</fix>
</trkpt>
<trkpt lat="40.072848" lon="-105.2305771">
  <ele>1586.15</ele>
  <time>2026-08-27T18:25:47Z</time>
  <course>67.76</course>
  <speed>0.01</speed>
  <fix>3d</fix>
</trkpt>
<trkpt lat="40.0728481" lon="-105.230577">
  <ele>1586.07</ele>
  <time>2026-08-27T18:25:47Z</time>
  <course>335.42</course>
  <speed>0.0</speed>
  <fix>3d</fix>
</trkpt>
<trkpt lat="40.072848" lon="-105.2305771">
  <ele>1586.15</ele>
  <time>2026-08-27T18:25:47Z</time>
  <course>67.78</course>
  <speed>0.01</speed>
  <fix>3d</fix>
</trkpt>
<trkpt lat="40.0728481" lon="-105.230577">
  <ele>1586.07</ele>
  <time>2026-08-27T18:25:47Z</time>
  <course>51.02</course>
  <speed>0.0</speed>
  <fix>3d</fix>
</trkpt>
<trkpt lat="40.072848" lon="-105.2305771">
  <ele>1586.15</ele>
  <time>2026-08-27T18:25:47Z</time>
  <course>67.8</course>
  <speed>0.01</speed>
  <fix>3d</fix>
</trkpt>
<trkpt lat="40.0728481" lon="-105.230577">
  <ele>1586.07</ele>
  <time>2026-08-27T18:25:47Z</time>
  <course>42.58</course>
  <speed>0.0</speed>
  <fix>3d</fix>
</trkpt>
<trkpt lat="40.072848" lon="-105.2305771">
  <ele>1586.15</ele>
  <time>2026-08-27T18:25:47Z</time>
  <course>67.82</course>
  <speed>0.01</speed>
  <fix>3d</fix>
</trkpt>
<trkpt lat="40.0728481" lon="-105.230577">
  <ele>1586.07</ele>
  <time>2026-08-27T18:25:47Z</time>
  <course>24.12</course>
  <speed>0.0</speed>
  <fix>3d</fix>
</trkpt>
<trkpt lat="40.072848" lon="-105.2305771">
  <ele>1586.15</ele>
  <time>2026-08-27T18:25:47Z</time>
  <course>67.83</course>
  <speed>0.02</speed>
  <fix>3d</fix>
</trkpt>
<trkpt lat="40.0728481" lon="-105.230577">
  <ele>1586.07</ele>
  <time>2026-08-27T18:25:47Z</time>
  <course>26.11</course>
  <speed>0.0</speed>
  <fix>3d</fix>
</trkpt>
<trkpt lat="40.072848" lon="-105.2305771">
  <ele>1586.16</ele>
  <time>2026-08-27T18:25:47Z</time>
  <course>67.85</course>
  <speed>0.02</speed>
  <fix>3d</fix>
</trkpt>
<trkpt lat="40.0728481" lon="-105.230577">
  <ele>1586.07</ele>
  <time>2026-08-27T18:25:47Z</time>
  <course>28.33</course>
  <speed>0.0</speed>
  <fix>3d</fix>
</trkpt>
<trkpt lat="40.072848" lon="-105.2305771">
  <ele>1586.16</ele>
  <time>2026-08-27T18:25:47Z</time>
  <course>67.87</course>
  <speed>0.02</speed>
  <fix>3d</fix>
</trkpt>
<trkpt lat="40.0728481" lon="-105.230577">
  <ele>1586.07</ele>
  <time>2026-08-27T18:25:47Z</time>
  <course>27.76</course>
  <speed>0.0</speed>
  <fix>3d</fix>
</trkpt>
<trkpt lat="40.072848" lon="-105.2305771">
  <ele>1586.15</ele>
  <time>2026-08-27T18:25:47Z</time>
  <course>67.89</course>
  <speed>0.02</speed>
  <fix>3d</fix>
</trkpt>
<trkpt lat="40.0728481" lon="-105.230577">
  <ele>1586.07</ele>
  <time>2026-08-27T18:25:47Z</time>
  <course>2.9</course>
  <speed>0.0</speed>
  <fix>3d</fix>
</trkpt>
<trkpt lat="40.072848" lon="-105.2305771">
  <ele>1586.16</ele>
  <time>2026-08-27T18:25:47Z</time>
  <course>67.91</course>
  <speed>0.02</speed>
  <fix>3d</fix>
</trkpt>
<trkpt lat="40.0728481" lon="-105.230577">
  <ele>1586.07</ele>
  <time>2026-08-27T18:25:47Z</time>
  <course>329.32</course>
  <speed>0.0</speed>
  <fix>3d</fix>
</trkpt>
<trkpt lat="40.072848" lon="-105.2305771">
  <ele>1586.16</ele>
  <time>2026-08-27T18:25:47Z</time>
  <course>67.93</course>
  <speed>0.02</speed>
  <fix>3d</fix>
</trkpt>
<trkpt lat="40.0728481" lon="-105.230577">
  <ele>1586.07</ele>
  <time>2026-08-27T18:25:47Z</time>
  <course>323.36</course>
  <speed>0.0</speed>
  <fix>3d</fix>
</trkpt>
<trkpt lat="40.072848" lon="-105.2305771">
  <ele>1586.15</ele>
  <time>2026-08-27T18:25:47Z</time>
  <course>67.95</course>
  <speed>0.02</speed>
  <fix>3d</fix>
</trkpt>
<trkpt lat="40.0728481" lon="-105.230577">
  <ele>1586.07</ele>
  <time>2026-08-27T18:25:47Z</time>
  <course>170.57</course>
  <speed>0.0</speed>
  <fix>3d</fix>
</trkpt>
<trkpt lat="40.072848" lon="-105.2305771">
  <ele>1586.15</ele>
  <time>2026-08-27T18:25:47Z</time>
  <course>67.96</course>
  <speed>0.02</speed>
  <fix>3d</fix>
</trkpt>
<trkpt lat="40.0728481" lon="-105.230577">
  <ele>1586.07</ele>
  <time>2026-08-27T18:25:47Z</time>
  <course>81.34</course>
  <speed>0.0</speed>
  <fix>3d</fix>
</trkpt>
<trkpt lat="40.072848" lon="-105.2305771">
  <ele>1586.15</ele>
  <time>2026-08-27T18:25:47Z</time>
  <course>67.98</course>
  <speed>0.02</speed>
  <fix>3d</fix>
</trkpt>
<trkpt lat="40.0728481" lon="-105.230577">
  <ele>1586.07</ele>
  <time>2026-08-27T18:25:47Z</time>
  <course>1.9</course>
  <speed>0.0</speed>
  <fix>3d</fix>
</trkpt>
<trkpt lat="40.072848" lon="-105.2305771">
  <ele>1586.15</ele>
  <time>2026-08-27T18:25:47Z</time>
  <course>68.0</course>
  <speed>0.02</speed>
  <fix>3d</fix>
</trkpt>
<trkpt lat="40.0728481" lon="-105.230577">
  <ele>1586.07</ele>
  <time>2026-08-27T18:25:47Z</time>
  <course>2.71</course>
  <speed>0.0</speed>
  <fix>3d</fix>
</trkpt>
<trkpt lat="40.072848" lon="-105.2305771">
  <ele>1586.16</ele>
  <time>2026-08-27T18:25:47Z</time>
  <course>68.02</course>
  <speed>0.02</speed>
  <fix>3d</fix>
</trkpt>
<trkpt lat="40.0728481" lon="-105.230577">
  <ele>1586.07</ele>
  <time>2026-08-27T18:25:47Z</time>
  <course>12.42</course>
  <speed>0.0</speed>
  <fix>3d</fix>
</trkpt>
<trkpt lat="40.072848" lon="-105.2305771">
  <ele>1586.16</ele>
  <time>2026-08-27T18:25:47Z</time>
  <course>68.04</course>
  <speed>0.02</speed>
  <fix>3d</fix>
</trkpt>
<trkpt lat="40.0728481" lon="-105.230577">
  <ele>1586.07</ele>
  <time>2026-08-27T18:25:47Z</time>
  <course>10.64</course>
  <speed>0.0</speed>
  <fix>3d</fix>
</trkpt>
<trkpt lat="40.072848" lon="-105.2305771">
  <ele>1586.17</ele>
  <time>2026-08-27T18:25:47Z</time>
  <course>68.05</course>
  <speed>0.02</speed>
  <fix>3d</fix>
</trkpt>
<trkpt lat="40.0728481" lon="-105.230577">
  <ele>1586.07</ele>
  <time>2026-08-27T18:25:47Z</time>
  <course>9.51</course>
  <speed>0.0</speed>
  <fix>3d</fix>
</trkpt>
<trkpt lat="40.072848" lon="-105.2305771">
  <ele>1586.16</ele>
  <time>2026-08-27T18:25:47Z</time>
  <course>68.07</course>
  <speed>0.02</speed>
  <fix>3d</fix>
</trkpt>
<trkpt lat="40.0728481" lon="-105.230577">
  <ele>1586.07</ele>
  <time>2026-08-27T18:25:47Z</time>
  <course>9.86</course>
  <speed>0.0</speed>
  <fix>3d</fix>
</trkpt>
<trkpt lat="40.072848" lon="-105.2305771">
  <ele>1586.16</ele>
  <time>2026-08-27T18:25:47Z</time>
  <course>68.09</course>
  <speed>0.02</speed>
  <fix>3d</fix>
</trkpt>
<trkpt lat="40.0728481" lon="-105.230577">
  <ele>1586.07</ele>
  <time>2026-08-27T18:25:47Z</time>
  <course>9.97</course>
  <speed>0.0</speed>
  <fix>3d</fix>
</trkpt>
<trkpt lat="40.072848" lon="-105.2305771">
  <ele>1586.16</ele>
  <time>2026-08-27T18:25:47Z</time>
  <course>68.11</course>
  <speed>0.02</speed>
  <fix>3d</fix>
</trkpt>
<trkpt lat="40.0728481" lon="-105.230577">
  <ele>1586.07</ele>
  <time>2026-08-27T18:25:47Z</time>
  <course>9.91</course>
  <speed>0.0</speed>
  <fix>3d</fix>
</trkpt>
<trkpt lat="40.072848" lon="-105.2305771">
  <ele>1586.16</ele>
  <time>2026-08-27T18:25:47Z</time>
  <course>68.12</course>
  <speed>0.022360679774997897</speed>
  <fix>3d</fix>
</trkpt>
<trkpt lat="40.0728481" lon="-105.230577">
  <ele>1586.07</ele>
  <time>2026-08-27T18:25:47Z</time>
  <course>9.91</course>
  <speed>0.0</speed>
  <fix>3d</fix>
</trkpt>
<trkpt lat="40.072848" lon="-105.2305771">
  <ele>1586.16</ele>
  <time>2026-08-27T18:25:47Z</time>
  <course>68.14</course>
  <speed>0.022360679774997897</speed>
  <fix>3d</fix>
</trkpt>
<trkpt lat="40.0728481" lon="-105.230577">
  <ele>1586.07</ele>
  <time>2026-08-27T18:25:47Z</time>
  <course>9.92</course>
  <speed>0.0</speed>
  <fix>3d</fix>
</trkpt>
<trkpt lat="40.072848" lon="-105.2305771">
  <ele>1586.16</ele>
  <time>2026-08-27T18:25:47Z</time>
  <course>68.16</course>
  <speed>0.02</speed>
  <fix>3d</fix>
</trkpt>
<trkpt lat="40.0728481" lon="-105.230577">
  <ele>1586.07</ele>
  <time>2026-08-27T18:25:47Z</time>
  <course>31.5</course>
  <speed>0.0</speed>
  <fix>3d</fix>
</trkpt>
<trkpt lat="40.072848" lon="-105.2305771">
  <ele>1586.16</ele>
  <time>2026-08-27T18:25:47Z</time>
  <course>68.17</course>
  <speed>0.022360679774997897</speed>
  <fix>3d</fix>
</trkpt>
<trkpt lat="40.0728481" lon="-105.230577">
  <ele>1586.07</ele>
  <time>2026-08-27T18:25:47Z</time>
  <course>22.22</course>
  <speed>0.0</speed>
  <fix>3d</fix>
</trkpt>
<trkpt lat="40.072848" lon="-105.2305771">
  <ele>1586.16</ele>
  <time>2026-08-27T18:25:47Z</time>
  <course>68.19</course>
  <speed>0.02</speed>
  <fix>3d</fix>
</trkpt>
<trkpt lat="40.0728481" lon="-105.230577">
  <ele>1586.07</ele>
  <time>2026-08-27T18:25:47Z</time>
  <course>4.79</course>
  <speed>0.0</speed>
  <fix>3d</fix>
</trkpt>
<trkpt lat="40.072848" lon="-105.2305771">
  <ele>1586.15</ele>
  <time>2026-08-27T18:25:47Z</time>
  <course>68.21</course>
  <speed>0.022360679774997897</speed>
  <fix>3d</fix>
</trkpt>
<trkpt lat="40.0728481" lon="-105.230577">
  <ele>1586.07</ele>
  <time>2026-08-27T18:25:47Z</time>
  <course>8.5</course>
  <speed>0.0</speed>
  <fix>3d</fix>
</trkpt>
<trkpt lat="40.072848" lon="-105.2305771">
  <ele>1586.15</ele>
  <time>2026-08-27T18:25:47Z</time>
  <course>68.22</course>
  <speed>0.02</speed>
  <fix>3d</fix>
</trkpt>
<trkpt lat="40.0728481" lon="-105.230577">
  <ele>1586.07</ele>
  <time>2026-08-27T18:25:47Z</time>
  <course>10.93</course>
  <speed>0.0</speed>
  <fix>3d</fix>
</trkpt>
<trkpt lat="40.072848" lon="-105.2305771">
  <ele>1586.15</ele>
  <time>2026-08-27T18:25:47Z</time>
  <course>68.24</course>
  <speed>0.02</speed>
  <fix>3d</fix>
</trkpt>
<trkpt lat="40.0728481" lon="-105.230577">
  <ele>1586.07</ele>
  <time>2026-08-27T18:25:47Z</time>
  <course>9.98</course>
  <speed>0.0</speed>
  <fix>3d</fix>
</trkpt>
<trkpt lat="40.072848" lon="-105.2305771">
  <ele>1586.15</ele>
  <time>2026-08-27T18:25:47Z</time>
  <course>68.25</course>
  <speed>0.02</speed>
  <fix>3d</fix>
</trkpt>
<trkpt lat="40.0728481" lon="-105.230577">
  <ele>1586.07</ele>
  <time>2026-08-27T18:25:47Z</time>
  <course>9.78</course>
  <speed>0.0</speed>
  <fix>3d</fix>
</trkpt>
<trkpt lat="40.072848" lon="-105.2305771">
  <ele>1586.15</ele>
  <time>2026-08-27T18:25:47Z</time>
  <course>68.27</course>
  <speed>0.02</speed>
  <fix>3d</fix>
</trkpt>
<trkpt lat="40.0728481" lon="-105.230577">
  <ele>1586.07</ele>
  <time>2026-08-27T18:25:47Z</time>
  <course>9.92</course>
  <speed>0.0</speed>
  <fix>3d</fix>
</trkpt>
<trkpt lat="40.072848" lon="-105.2305771">
  <ele>1586.15</ele>
  <time>2026-08-27T18:25:47Z</time>
  <course>68.29</course>
  <speed>0.02</speed>
  <fix>3d</fix>
</trkpt>
<trkpt lat="40.0728481" lon="-105.230577">
  <ele>1586.07</ele>
  <time>2026-08-27T18:25:47Z</time>
  <course>9.93</course>
  <speed>0.0</speed>
  <fix>3d</fix>
</trkpt>
<trkpt lat="40.072848" lon="-105.2305771">
  <ele>1586.15</ele>
  <time>2026-08-27T18:25:47Z</time>
  <course>68.3</course>
  <speed>0.02</speed>
  <fix>3d</fix>
</trkpt>
<trkpt lat="40.0728481" lon="-105.230577">
  <ele>1586.07</ele>
  <time>2026-08-27T18:25:47Z</time>
  <course>9.91</course>
  <speed>0.0</speed>
  <fix>3d</fix>
</trkpt>
<trkpt lat="40.072848" lon="-105.2305771">
  <ele>1586.15</ele>
  <time>2026-08-27T18:25:47Z</time>
  <course>68.32</course>
  <speed>0.02</speed>
  <fix>3d</fix>
</trkpt>
<trkpt lat="40.0728481" lon="-105.230577">
  <ele>1586.07</ele>
  <time>2026-08-27T18:25:47Z</time>
  <course>9.91</course>
  <speed>0.0</speed>
  <fix>3d</fix>
</trkpt>
<trkpt lat="40.072848" lon="-105.2305771">
  <ele>1586.15</ele>
  <time>2026-08-27T18:25:47Z</time>
  <course>68.33</course>
  <speed>0.02</speed>
  <fix>3d</fix>
</trkpt>
<trkpt lat="40.0728481" lon="-105.230577">
  <ele>1586.07</ele>
  <time>2026-08-27T18:25:47Z</time>
  <course>9.92</course>
  <speed>0.0</speed>
  <fix>3d</fix>
</trkpt>
<trkpt lat="40.072848" lon="-105.2305771">
  <ele>1586.15</ele>
  <time>2026-08-27T18:25:47Z</time>
  <course>68.35</course>
  <speed>0.02</speed>
  <fix>3d</fix>
</trkpt>
<trkpt lat="40.0728481" lon="-105.230577">
  <ele>1586.07</ele>
  <time>2026-08-27T18:25:47Z</time>
  <course>9.91</course>
  <speed>0.0</speed>
  <fix>3d</fix>
</trkpt>
<trkpt lat="40.072848" lon="-105.2305771">
  <ele>1586.15</ele>
  <time>2026-08-27T18:25:47Z</time>
  <course>68.36</course>
  <speed>0.02</speed>
  <fix>3d</fix>
</trkpt>
<trkpt lat="40.0728481" lon="-105.230577">
  <ele>1586.07</ele>
  <time>2026-08-27T18:25:47Z</time>
  <course>9.84</course>
  <speed>0.0</speed>
  <fix>3d</fix>
</trkpt>
<trkpt lat="40.072848" lon="-105.2305771">
  <ele>1586.15</ele>
  <time>2026-08-27T18:25:47Z</time>
  <course>68.37</course>
  <speed>0.01</speed>
  <fix>3d</fix>
</trkpt>
<trkpt lat="40.0728481" lon="-105.230577">
  <ele>1586.07</ele>
  <time>2026-08-27T18:25:47Z</time>
  <course>9.74</course>
  <speed>0.0</speed>
  <fix>3d</fix>
</trkpt>
<trkpt lat="40.072848" lon="-105.2305771">
  <ele>1586.15</ele>
  <time>2026-08-27T18:25:47Z</time>
  <course>68.38</course>
  <speed>0.01</speed>
  <fix>3d</fix>
</trkpt>
<trkpt lat="40.0728481" lon="-105.230577">
  <ele>1586.07</ele>
  <time>2026-08-27T18:25:47Z</time>
  <course>9.64</course>
  <speed>0.0</speed>
  <fix>3d</fix>
</trkpt>
<trkpt lat="40.072848" lon="-105.2305771">
  <ele>1586.15</ele>
  <time>2026-08-27T18:25:47Z</time>
  <course>68.39</course>
  <speed>0.01</speed>
  <fix>3d</fix>
</trkpt>
<trkpt lat="40.0728481" lon="-105.230577">
  <ele>1586.07</ele>
  <time>2026-08-27T18:25:47Z</time>
  <course>9.55</course>
  <speed>0.0</speed>
  <fix>3d</fix>
</trkpt>
<trkpt lat="40.072848" lon="-105.2305771">
  <ele>1586.15</ele>
  <time>2026-08-27T18:25:47Z</time>
  <course>68.39</course>
  <speed>0.01</speed>
  <fix>3d</fix>
</trkpt>
<trkpt lat="40.0728481" lon="-105.230577">
  <ele>1586.07</ele>
  <time>2026-08-27T18:25:47Z</time>
  <course>19.55</course>
  <speed>0.0</speed>
  <fix>3d</fix>
</trkpt>
<trkpt lat="40.072848" lon="-105.2305771">
  <ele>1586.15</ele>
  <time>2026-08-27T18:25:47Z</time>
  <course>68.4</course>
  <speed>0.01</speed>
  <fix>3d</fix>
</trkpt>
<trkpt lat="40.0728481" lon="-105.230577">
  <ele>1586.07</ele>
  <time>2026-08-27T18:25:47Z</time>
  <course>44.38</course>
  <speed>0.0</speed>
  <fix>3d</fix>
</trkpt>
<trkpt lat="40.072848" lon="-105.2305771">
  <ele>1586.16</ele>
  <time>2026-08-27T18:25:47Z</time>
  <course>68.4</course>
  <speed>0.01</speed>
  <fix>3d</fix>
</trkpt>
<trkpt lat="40.0728481" lon="-105.230577">
  <ele>1586.07</ele>
  <time>2026-08-27T18:25:47Z</time>
  <course>52.78</course>
  <speed>0.0</speed>
  <fix>3d</fix>
</trkpt>
<trkpt lat="40.072848" lon="-105.2305771">
  <ele>1586.16</ele>
  <time>2026-08-27T18:25:47Z</time>
  <course>68.4</course>
  <speed>0.01</speed>
  <fix>3d</fix>
</trkpt>
<trkpt lat="40.0728481" lon="-105.230577">
  <ele>1586.07</ele>
  <time>2026-08-27T18:25:47Z</time>
  <course>62.84</course>
  <speed>0.0</speed>
  <fix>3d</fix>
</trkpt>
<trkpt lat="40.072848" lon="-105.2305771">
  <ele>1586.16</ele>
  <time>2026-08-27T18:25:47Z</time>
  <course>68.4</course>
  <speed>0.01</speed>
  <fix>3d</fix>
</trkpt>
<trkpt lat="40.0728481" lon="-105.230577">
  <ele>1586.07</ele>
  <time>2026-08-27T18:25:47Z</time>
  <course>88.44</course>
  <speed>0.0</speed>
  <fix>3d</fix>
</trkpt>
<trkpt lat="40.072848" lon="-105.2305771">
  <ele>1586.16</ele>
  <time>2026-08-27T18:25:47Z</time>
  <course>68.4</course>
  <speed>0.01</speed>
  <fix>3d</fix>
</trkpt>
<trkpt lat="40.0728481" lon="-105.230577">
  <ele>1586.07</ele>
  <time>2026-08-27T18:25:47Z</time>
  <course>106.06</course>
  <speed>0.0</speed>
  <fix>3d</fix>
</trkpt>
<trkpt lat="40.072848" lon="-105.2305771">
  <ele>1586.16</ele>
  <time>2026-08-27T18:25:47Z</time>
  <course>68.39</course>
  <speed>0.01</speed>
  <fix>3d</fix>
</trkpt>
<trkpt lat="40.0728481" lon="-105.230577">
  <ele>1586.07</ele>
  <time>2026-08-27T18:25:47Z</time>
  <course>111.18</course>
  <speed>0.0</speed>
  <fix>3d</fix>
</trkpt>
<trkpt lat="40.072848" lon="-105.2305771">
  <ele>1586.16</ele>
  <time>2026-08-27T18:25:47Z</time>
  <course>68.38</course>
  <speed>0.01</speed>
  <fix>3d</fix>
</trkpt>
<trkpt lat="40.0728481" lon="-105.230577">
  <ele>1586.07</ele>
  <time>2026-08-27T18:25:48Z</time>
  <course>343.71</course>
  <speed>0.0</speed>
  <fix>3d</fix>
</trkpt>
<trkpt lat="40.072848" lon="-105.2305771">
  <ele>1586.16</ele>
  <time>2026-08-27T18:25:48Z</time>
  <course>68.38</course>
  <speed>0.02</speed>
  <fix>3d</fix>
</trkpt>
<trkpt lat="40.0728481" lon="-105.230577">
  <ele>1586.07</ele>
  <time>2026-08-27T18:25:48Z</time>
  <course>341.83</course>
  <speed>0.0</speed>
  <fix>3d</fix>
</trkpt>
<trkpt lat="40.072848" lon="-105.2305771">
  <ele>1586.16</ele>
  <time>2026-08-27T18:25:48Z</time>
  <course>68.37</course>
  <speed>0.02</speed>
  <fix>3d</fix>
</trkpt>
<trkpt lat="40.0728481" lon="-105.230577">
  <ele>1586.07</ele>
  <time>2026-08-27T18:25:48Z</time>
  <course>37.47</course>
  <speed>0.0</speed>
  <fix>3d</fix>
</trkpt>
<trkpt lat="40.072848" lon="-105.2305771">
  <ele>1586.16</ele>
  <time>2026-08-27T18:25:48Z</time>
  <course>68.35</course>
  <speed>0.02</speed>
  <fix>3d</fix>
</trkpt>
<trkpt lat="40.0728481" lon="-105.230577">
  <ele>1586.07</ele>
  <time>2026-08-27T18:25:48Z</time>
  <course>21.11</course>
  <speed>0.0</speed>
  <fix>3d</fix>
</trkpt>
<trkpt lat="40.072848" lon="-105.2305771">
  <ele>1586.16</ele>
  <time>2026-08-27T18:25:48Z</time>
  <course>68.34</course>
  <speed>0.02</speed>
  <fix>3d</fix>
</trkpt>
<trkpt lat="40.0728481" lon="-105.230577">
  <ele>1586.07</ele>
  <time>2026-08-27T18:25:48Z</time>
  <course>4.91</course>
  <speed>0.0</speed>
  <fix>3d</fix>
</trkpt>
<trkpt lat="40.072848" lon="-105.2305771">
  <ele>1586.16</ele>
  <time>2026-08-27T18:25:48Z</time>
  <course>68.33</course>
  <speed>0.02</speed>
  <fix>3d</fix>
</trkpt>
<trkpt lat="40.0728481" lon="-105.230577">
  <ele>1586.07</ele>
  <time>2026-08-27T18:25:48Z</time>
  <course>7.24</course>
  <speed>0.0</speed>
  <fix>3d</fix>
</trkpt>
<trkpt lat="40.072848" lon="-105.2305771">
  <ele>1586.16</ele>
  <time>2026-08-27T18:25:48Z</time>
  <course>68.31</course>
  <speed>0.02</speed>
  <fix>3d</fix>
</trkpt>
<trkpt lat="40.0728481" lon="-105.230577">
  <ele>1586.07</ele>
  <time>2026-08-27T18:25:48Z</time>
  <course>8.59</course>
  <speed>0.0</speed>
  <fix>3d</fix>
</trkpt>
<trkpt lat="40.072848" lon="-105.2305771">
  <ele>1586.16</ele>
  <time>2026-08-27T18:25:48Z</time>
  <course>68.29</course>
  <speed>0.02</speed>
  <fix>3d</fix>
</trkpt>
<trkpt lat="40.0728481" lon="-105.230577">
  <ele>1586.07</ele>
  <time>2026-08-27T18:25:48Z</time>
  <course>7.92</course>
  <speed>0.0</speed>
  <fix>3d</fix>
</trkpt>
<trkpt lat="40.072848" lon="-105.2305771">
  <ele>1586.16</ele>
  <time>2026-08-27T18:25:48Z</time>
  <course>68.27</course>
  <speed>0.02</speed>
  <fix>3d</fix>
</trkpt>
<trkpt lat="40.0728481" lon="-105.230577">
  <ele>1586.07</ele>
  <time>2026-08-27T18:25:48Z</time>
  <course>7.65</course>
  <speed>0.0</speed>
  <fix>3d</fix>
</trkpt>
<trkpt lat="40.072848" lon="-105.2305771">
  <ele>1586.16</ele>
  <time>2026-08-27T18:25:48Z</time>
  <course>68.25</course>
  <speed>0.02</speed>
  <fix>3d</fix>
</trkpt>
<trkpt lat="40.0728481" lon="-105.230577">
  <ele>1586.07</ele>
  <time>2026-08-27T18:25:48Z</time>
  <course>7.61</course>
  <speed>0.0</speed>
  <fix>3d</fix>
</trkpt>
<trkpt lat="40.072848" lon="-105.2305771">
  <ele>1586.16</ele>
  <time>2026-08-27T18:25:48Z</time>
  <course>68.23</course>
  <speed>0.02</speed>
  <fix>3d</fix>
</trkpt>
<trkpt lat="40.0728481" lon="-105.230577">
  <ele>1586.07</ele>
  <time>2026-08-27T18:25:48Z</time>
  <course>7.49</course>
  <speed>0.0</speed>
  <fix>3d</fix>
</trkpt>
<trkpt lat="40.072848" lon="-105.2305771">
  <ele>1586.16</ele>
  <time>2026-08-27T18:25:48Z</time>
  <course>68.21</course>
  <speed>0.02</speed>
  <fix>3d</fix>
</trkpt>
<trkpt lat="40.0728481" lon="-105.230577">
  <ele>1586.07</ele>
  <time>2026-08-27T18:25:48Z</time>
  <course>7.35</course>
  <speed>0.0</speed>
  <fix>3d</fix>
</trkpt>
<trkpt lat="40.072848" lon="-105.2305771">
  <ele>1586.16</ele>
  <time>2026-08-27T18:25:48Z</time>
  <course>68.18</course>
  <speed>0.02</speed>
  <fix>3d</fix>
</trkpt>
<trkpt lat="40.0728481" lon="-105.230577">
  <ele>1586.07</ele>
  <time>2026-08-27T18:25:48Z</time>
  <course>7.21</course>
  <speed>0.0</speed>
  <fix>3d</fix>
</trkpt>
<trkpt lat="40.072848" lon="-105.2305771">
  <ele>1586.16</ele>
  <time>2026-08-27T18:25:48Z</time>
  <course>68.15</course>
  <speed>0.02</speed>
  <fix>3d</fix>
</trkpt>
<trkpt lat="40.0728481" lon="-105.230577">
  <ele>1586.07</ele>
  <time>2026-08-27T18:25:48Z</time>
  <course>333.65</course>
  <speed>0.0</speed>
  <fix>3d</fix>
</trkpt>
<trkpt lat="40.072848" lon="-105.2305771">
  <ele>1586.17</ele>
  <time>2026-08-27T18:25:48Z</time>
  <course>68.12</course>
  <speed>0.02</speed>
  <fix>3d</fix>
</trkpt>
<trkpt lat="40.0728481" lon="-105.230577">
  <ele>1586.07</ele>
  <time>2026-08-27T18:25:48Z</time>
  <course>333.54</course>
  <speed>0.0</speed>
  <fix>3d</fix>
</trkpt>
<trkpt lat="40.072848" lon="-105.2305771">
  <ele>1586.17</ele>
  <time>2026-08-27T18:25:48Z</time>
  <course>68.09</course>
  <speed>0.022360679774997897</speed>
  <fix>3d</fix>
</trkpt>
<trkpt lat="40.0728481" lon="-105.230577">
  <ele>1586.07</ele>
  <time>2026-08-27T18:25:48Z</time>
  <course>20.04</course>
  <speed>0.0</speed>
  <fix>3d</fix>
</trkpt>
<trkpt lat="40.072848" lon="-105.2305771">
  <ele>1586.17</ele>
  <time>2026-08-27T18:25:48Z</time>
  <course>68.06</course>
  <speed>0.022360679774997897</speed>
  <fix>3d</fix>
</trkpt>
<trkpt lat="40.0728481" lon="-105.230577">
  <ele>1586.07</ele>
  <time>2026-08-27T18:25:48Z</time>
  <course>332.93</course>
  <speed>0.0</speed>
  <fix>3d</fix>
</trkpt>
<trkpt lat="40.072848" lon="-105.2305771">
  <ele>1586.17</ele>
  <time>2026-08-27T18:25:48Z</time>
  <course>68.03</course>
  <speed>0.022360679774997897</speed>
  <fix>3d</fix>
</trkpt>
<trkpt lat="40.0728481" lon="-105.230577">
  <ele>1586.07</ele>
  <time>2026-08-27T18:25:48Z</time>
  <course>332.58</course>
  <speed>0.0</speed>
  <fix>3d</fix>
</trkpt>
<trkpt lat="40.072848" lon="-105.2305771">
  <ele>1586.16</ele>
  <time>2026-08-27T18:25:48Z</time>
  <course>67.99</course>
  <speed>0.022360679774997897</speed>
  <fix>3d</fix>
</trkpt>
<trkpt lat="40.0728481" lon="-105.230577">
  <ele>1586.07</ele>
  <time>2026-08-27T18:25:48Z</time>
  <course>335.99</course>
  <speed>0.0</speed>
  <fix>3d</fix>
</trkpt>
<trkpt lat="40.072848" lon="-105.2305771">
  <ele>1586.16</ele>
  <time>2026-08-27T18:25:48Z</time>
  <course>67.96</course>
  <speed>0.022360679774997897</speed>
  <fix>3d</fix>
</trkpt>
<trkpt lat="40.0728481" lon="-105.230577">
  <ele>1586.07</ele>
  <time>2026-08-27T18:25:48Z</time>
  <course>332.52</course>
  <speed>0.0</speed>
  <fix>3d</fix>
</trkpt>
<trkpt lat="40.072848" lon="-105.2305771">
  <ele>1586.16</ele>
  <time>2026-08-27T18:25:48Z</time>
  <course>67.92</course>
  <speed>0.022360679774997897</speed>
  <fix>3d</fix>
</trkpt>
<trkpt lat="40.0728481" lon="-105.230577">
  <ele>1586.07</ele>
  <time>2026-08-27T18:25:48Z</time>
  <course>332.25</course>
  <speed>0.0</speed>
  <fix>3d</fix>
</trkpt>
<trkpt lat="40.072848" lon="-105.2305771">
  <ele>1586.16</ele>
  <time>2026-08-27T18:25:48Z</time>
  <course>67.88</course>
  <speed>0.022360679774997897</speed>
  <fix>3d</fix>
</trkpt>
<trkpt lat="40.0728481" lon="-105.230577">
  <ele>1586.07</ele>
  <time>2026-08-27T18:25:48Z</time>
  <course>334.58</course>
  <speed>0.0</speed>
  <fix>3d</fix>
</trkpt>
<trkpt lat="40.072848" lon="-105.2305771">
  <ele>1586.16</ele>
  <time>2026-08-27T18:25:48Z</time>
  <course>67.84</course>
  <speed>0.022360679774997897</speed>
  <fix>3d</fix>
</trkpt>
<trkpt lat="40.0728481" lon="-105.230577">
  <ele>1586.07</ele>
  <time>2026-08-27T18:25:48Z</time>
  <course>332.25</course>
  <speed>0.0</speed>
  <fix>3d</fix>
</trkpt>
<trkpt lat="40.072848" lon="-105.2305771">
  <ele>1586.16</ele>
  <time>2026-08-27T18:25:48Z</time>
  <course>67.8</course>
  <speed>0.022360679774997897</speed>
  <fix>3d</fix>
</trkpt>
<trkpt lat="40.0728481" lon="-105.230577">
  <ele>1586.07</ele>
  <time>2026-08-27T18:25:48Z</time>
  <course>332.11</course>
  <speed>0.0</speed>
  <fix>3d</fix>
</trkpt>
<trkpt lat="40.072848" lon="-105.2305771">
  <ele>1586.16</ele>
  <time>2026-08-27T18:25:48Z</time>
  <course>67.76</course>
  <speed>0.022360679774997897</speed>
  <fix>3d</fix>
</trkpt>
<trkpt lat="40.0728481" lon="-105.230577">
  <ele>1586.07</ele>
  <time>2026-08-27T18:25:48Z</time>
  <course>331.87</course>
  <speed>0.0</speed>
  <fix>3d</fix>
</trkpt>
<trkpt lat="40.072848" lon="-105.2305771">
  <ele>1586.16</ele>
  <time>2026-08-27T18:25:48Z</time>
  <course>67.72</course>
  <speed>0.022360679774997897</speed>
  <fix>3d</fix>
</trkpt>
<trkpt lat="40.0728481" lon="-105.230577">
  <ele>1586.07</ele>
  <time>2026-08-27T18:25:48Z</time>
  <course>331.61</course>
  <speed>0.0</speed>
  <fix>3d</fix>
</trkpt>
<trkpt lat="40.072848" lon="-105.2305771">
  <ele>1586.16</ele>
  <time>2026-08-27T18:25:48Z</time>
  <course>67.68</course>
  <speed>0.022360679774997897</speed>
  <fix>3d</fix>
</trkpt>
<trkpt lat="40.0728481" lon="-105.230577">
  <ele>1586.07</ele>
  <time>2026-08-27T18:25:48Z</time>
  <course>331.75</course>
  <speed>0.0</speed>
  <fix>3d</fix>
</trkpt>
<trkpt lat="40.072848" lon="-105.2305771">
  <ele>1586.16</ele>
  <time>2026-08-27T18:25:48Z</time>
  <course>67.63</course>
  <speed>0.022360679774997897</speed>
  <fix>3d</fix>
</trkpt>
<trkpt lat="40.0728481" lon="-105.230577">
  <ele>1586.07</ele>
  <time>2026-08-27T18:25:48Z</time>
  <course>331.46</course>
  <speed>0.0</speed>
  <fix>3d</fix>
</trkpt>
<trkpt lat="40.072848" lon="-105.2305771">
  <ele>1586.16</ele>
  <time>2026-08-27T18:25:48Z</time>
  <course>67.59</course>
  <speed>0.022360679774997897</speed>
  <fix>3d</fix>
</trkpt>
<trkpt lat="40.0728481" lon="-105.230577">
  <ele>1586.07</ele>
  <time>2026-08-27T18:25:48Z</time>
  <course>331.44</course>
  <speed>0.0</speed>
  <fix>3d</fix>
</trkpt>
<trkpt lat="40.072848" lon="-105.2305771">
  <ele>1586.16</ele>
  <time>2026-08-27T18:25:48Z</time>
  <course>67.54</course>
  <speed>0.022360679774997897</speed>
  <fix>3d</fix>
</trkpt>
<trkpt lat="40.0728481" lon="-105.230577">
  <ele>1586.07</ele>
  <time>2026-08-27T18:25:48Z</time>
  <course>331.24</course>
  <speed>0.0</speed>
  <fix>3d</fix>
</trkpt>
<trkpt lat="40.072848" lon="-105.2305771">
  <ele>1586.17</ele>
  <time>2026-08-27T18:25:48Z</time>
  <course>67.5</course>
  <speed>0.022360679774997897</speed>
  <fix>3d</fix>
</trkpt>
<trkpt lat="40.0728481" lon="-105.230577">
  <ele>1586.07</ele>
  <time>2026-08-27T18:25:48Z</time>
  <course>331.2</course>
  <speed>0.0</speed>
  <fix>3d</fix>
</trkpt>
<trkpt lat="40.072848" lon="-105.2305771">
  <ele>1586.17</ele>
  <time>2026-08-27T18:25:48Z</time>
  <course>67.46</course>
  <speed>0.022360679774997897</speed>
  <fix>3d</fix>
</trkpt>
<trkpt lat="40.0728481" lon="-105.230577">
  <ele>1586.07</ele>
  <time>2026-08-27T18:25:48Z</time>
  <course>331.03</course>
  <speed>0.0</speed>
  <fix>3d</fix>
</trkpt>
<trkpt lat="40.072848" lon="-105.2305771">
  <ele>1586.17</ele>
  <time>2026-08-27T18:25:48Z</time>
  <course>67.41</course>
  <speed>0.022360679774997897</speed>
  <fix>3d</fix>
</trkpt>
<trkpt lat="40.0728481" lon="-105.230577">
  <ele>1586.07</ele>
  <time>2026-08-27T18:25:48Z</time>
  <course>330.97</course>
  <speed>0.0</speed>
  <fix>3d</fix>
</trkpt>
<trkpt lat="40.072848" lon="-105.2305771">
  <ele>1586.17</ele>
  <time>2026-08-27T18:25:48Z</time>
  <course>67.37</course>
  <speed>0.022360679774997897</speed>
  <fix>3d</fix>
</trkpt>
<trkpt lat="40.0728481" lon="-105.230577">
  <ele>1586.07</ele>
  <time>2026-08-27T18:25:48Z</time>
  <course>330.9</course>
  <speed>0.0</speed>
  <fix>3d</fix>
</trkpt>
<trkpt lat="40.072848" lon="-105.2305771">
  <ele>1586.17</ele>
  <time>2026-08-27T18:25:48Z</time>
  <course>67.33</course>
  <speed>0.022360679774997897</speed>
  <fix>3d</fix>
</trkpt>
<trkpt lat="40.0728481" lon="-105.230577">
  <ele>1586.07</ele>
  <time>2026-08-27T18:25:48Z</time>
  <course>330.78</course>
  <speed>0.0</speed>
  <fix>3d</fix>
</trkpt>
<trkpt lat="40.072848" lon="-105.2305771">
  <ele>1586.17</ele>
  <time>2026-08-27T18:25:48Z</time>
  <course>67.29</course>
  <speed>0.022360679774997897</speed>
  <fix>3d</fix>
</trkpt>
<trkpt lat="40.0728481" lon="-105.230577">
  <ele>1586.07</ele>
  <time>2026-08-27T18:25:48Z</time>
  <course>330.78</course>
  <speed>0.0</speed>
  <fix>3d</fix>
</trkpt>
<trkpt lat="40.072848" lon="-105.2305771">
  <ele>1586.17</ele>
  <time>2026-08-27T18:25:48Z</time>
  <course>67.25</course>
  <speed>0.022360679774997897</speed>
  <fix>3d</fix>
</trkpt>
<trkpt lat="40.0728481" lon="-105.230577">
  <ele>1586.07</ele>
  <time>2026-08-27T18:25:48Z</time>
  <course>330.61</course>
  <speed>0.0</speed>
  <fix>3d</fix>
</trkpt>
<trkpt lat="40.072848" lon="-105.2305771">
  <ele>1586.17</ele>
  <time>2026-08-27T18:25:48Z</time>
  <course>67.21</course>
  <speed>0.022360679774997897</speed>
  <fix>3d</fix>
</trkpt>
<trkpt lat="40.0728481" lon="-105.230577">
  <ele>1586.07</ele>
  <time>2026-08-27T18:25:48Z</time>
  <course>330.57</course>
  <speed>0.0</speed>
  <fix>3d</fix>
</trkpt>
<trkpt lat="40.072848" lon="-105.2305771">
  <ele>1586.17</ele>
  <time>2026-08-27T18:25:48Z</time>
  <course>67.17</course>
  <speed>0.022360679774997897</speed>
  <fix>3d</fix>
</trkpt>
<trkpt lat="40.0728481" lon="-105.230577">
  <ele>1586.07</ele>
  <time>2026-08-27T18:25:48Z</time>
  <course>330.45</course>
  <speed>0.0</speed>
  <fix>3d</fix>
</trkpt>
<trkpt lat="40.072848" lon="-105.2305771">
  <ele>1586.17</ele>
  <time>2026-08-27T18:25:48Z</time>
  <course>67.13</course>
  <speed>0.022360679774997897</speed>
  <fix>3d</fix>
</trkpt>
<trkpt lat="40.0728481" lon="-105.230577">
  <ele>1586.07</ele>
  <time>2026-08-27T18:25:48Z</time>
  <course>330.41</course>
  <speed>0.0</speed>
  <fix>3d</fix>
</trkpt>
<trkpt lat="40.072848" lon="-105.2305771">
  <ele>1586.17</ele>
  <time>2026-08-27T18:25:48Z</time>
  <course>67.09</course>
  <speed>0.022360679774997897</speed>
  <fix>3d</fix>
</trkpt>
<trkpt lat="40.0728481" lon="-105.230577">
  <ele>1586.07</ele>
  <time>2026-08-27T18:25:48Z</time>
  <course>330.29</course>
  <speed>0.0</speed>
  <fix>3d</fix>
</trkpt>
<trkpt lat="40.072848" lon="-105.2305771">
  <ele>1586.17</ele>
  <time>2026-08-27T18:25:48Z</time>
  <course>67.05</course>
  <speed>0.02</speed>
  <fix>3d</fix>
</trkpt>
<trkpt lat="40.0728481" lon="-105.230577">
  <ele>1586.07</ele>
  <time>2026-08-27T18:25:48Z</time>
  <course>330.27</course>
  <speed>0.0</speed>
  <fix>3d</fix>
</trkpt>
<trkpt lat="40.072848" lon="-105.2305771">
  <ele>1586.17</ele>
  <time>2026-08-27T18:25:48Z</time>
  <course>67.01</course>
  <speed>0.02</speed>
  <fix>3d</fix>
</trkpt>
<trkpt lat="40.0728481" lon="-105.230577">
  <ele>1586.07</ele>
  <time>2026-08-27T18:25:48Z</time>
  <course>330.15</course>
  <speed>0.0</speed>
  <fix>3d</fix>
</trkpt>
<trkpt lat="40.072848" lon="-105.2305771">
  <ele>1586.17</ele>
  <time>2026-08-27T18:25:48Z</time>
  <course>66.98</course>
  <speed>0.02</speed>
  <fix>3d</fix>
</trkpt>
<trkpt lat="40.0728481" lon="-105.230577">
  <ele>1586.07</ele>
  <time>2026-08-27T18:25:48Z</time>
  <course>330.09</course>
  <speed>0.0</speed>
  <fix>3d</fix>
</trkpt>
<trkpt lat="40.072848" lon="-105.2305771">
  <ele>1586.17</ele>
  <time>2026-08-27T18:25:48Z</time>
  <course>66.94</course>
  <speed>0.02</speed>
  <fix>3d</fix>
</trkpt>
<trkpt lat="40.0728481" lon="-105.230577">
  <ele>1586.07</ele>
  <time>2026-08-27T18:25:48Z</time>
  <course>330.1</course>
  <speed>0.0</speed>
  <fix>3d</fix>
</trkpt>
<trkpt lat="40.072848" lon="-105.2305771">
  <ele>1586.18</ele>
  <time>2026-08-27T18:25:48Z</time>
  <course>66.9</course>
  <speed>0.02</speed>
  <fix>3d</fix>
</trkpt>
<trkpt lat="40.0728481" lon="-105.230577">
  <ele>1586.07</ele>
  <time>2026-08-27T18:25:48Z</time>
  <course>329.83</course>
  <speed>0.0</speed>
  <fix>3d</fix>
</trkpt>
<trkpt lat="40.072848" lon="-105.2305771">
  <ele>1586.18</ele>
  <time>2026-08-27T18:25:48Z</time>
  <course>66.87</course>
  <speed>0.02</speed>
  <fix>3d</fix>
</trkpt>
<trkpt lat="40.0728481" lon="-105.230577">
  <ele>1586.07</ele>
  <time>2026-08-27T18:25:48Z</time>
  <course>329.88</course>
  <speed>0.0</speed>
  <fix>3d</fix>
</trkpt>
<trkpt lat="40.072848" lon="-105.2305771">
  <ele>1586.18</ele>
  <time>2026-08-27T18:25:48Z</time>
  <course>66.83</course>
  <speed>0.02</speed>
  <fix>3d</fix>
</trkpt>
<trkpt lat="40.0728481" lon="-105.230577">
  <ele>1586.07</ele>
  <time>2026-08-27T18:25:48Z</time>
  <course>329.87</course>
  <speed>0.0</speed>
  <fix>3d</fix>
</trkpt>
<trkpt lat="40.072848" lon="-105.2305771">
  <ele>1586.18</ele>
  <time>2026-08-27T18:25:48Z</time>
  <course>66.79</course>
  <speed>0.02</speed>
  <fix>3d</fix>
</trkpt>
<trkpt lat="40.0728481" lon="-105.230577">
  <ele>1586.07</ele>
  <time>2026-08-27T18:25:48Z</time>
  <course>329.69</course>
  <speed>0.0</speed>
  <fix>3d</fix>
</trkpt>
<trkpt lat="40.072848" lon="-105.2305771">
  <ele>1586.18</ele>
  <time>2026-08-27T18:25:48Z</time>
  <course>66.76</course>
  <speed>0.02</speed>
  <fix>3d</fix>
</trkpt>
<trkpt lat="40.0728481" lon="-105.230577">
  <ele>1586.07</ele>
  <time>2026-08-27T18:25:48Z</time>
  <course>329.77</course>
  <speed>0.0</speed>
  <fix>3d</fix>
</trkpt>
<trkpt lat="40.072848" lon="-105.2305771">
  <ele>1586.18</ele>
  <time>2026-08-27T18:25:48Z</time>
  <course>66.72</course>
  <speed>0.02</speed>
  <fix>3d</fix>
</trkpt>
<trkpt lat="40.0728481" lon="-105.230577">
  <ele>1586.07</ele>
  <time>2026-08-27T18:25:48Z</time>
  <course>329.6</course>
  <speed>0.0</speed>
  <fix>3d</fix>
</trkpt>
<trkpt lat="40.072848" lon="-105.2305771">
  <ele>1586.17</ele>
  <time>2026-08-27T18:25:48Z</time>
  <course>66.69</course>
  <speed>0.02</speed>
  <fix>3d</fix>
</trkpt>
<trkpt lat="40.0728481" lon="-105.230577">
  <ele>1586.07</ele>
  <time>2026-08-27T18:25:48Z</time>
  <course>329.58</course>
  <speed>0.0</speed>
  <fix>3d</fix>
</trkpt>
<trkpt lat="40.072848" lon="-105.2305771">
  <ele>1586.17</ele>
  <time>2026-08-27T18:25:48Z</time>
  <course>66.66</course>
  <speed>0.02</speed>
  <fix>3d</fix>
</trkpt>
<trkpt lat="40.0728481" lon="-105.230577">
  <ele>1586.07</ele>
  <time>2026-08-27T18:25:48Z</time>
  <course>329.63</course>
  <speed>0.0</speed>
  <fix>3d</fix>
</trkpt>
<trkpt lat="40.072848" lon="-105.2305771">
  <ele>1586.17</ele>
  <time>2026-08-27T18:25:48Z</time>
  <course>66.62</course>
  <speed>0.02</speed>
  <fix>3d</fix>
</trkpt>
<trkpt lat="40.0728481" lon="-105.230577">
  <ele>1586.07</ele>
  <time>2026-08-27T18:25:48Z</time>
  <course>329.28</course>
  <speed>0.0</speed>
  <fix>3d</fix>
</trkpt>
<trkpt lat="40.072848" lon="-105.2305771">
  <ele>1586.17</ele>
  <time>2026-08-27T18:25:48Z</time>
  <course>66.59</course>
  <speed>0.02</speed>
  <fix>3d</fix>
</trkpt>
<trkpt lat="40.0728481" lon="-105.230577">
  <ele>1586.07</ele>
  <time>2026-08-27T18:25:48Z</time>
  <course>329.4</course>
  <speed>0.0</speed>
  <fix>3d</fix>
</trkpt>
<trkpt lat="40.072848" lon="-105.2305771">
  <ele>1586.17</ele>
  <time>2026-08-27T18:25:48Z</time>
  <course>66.56</course>
  <speed>0.02</speed>
  <fix>3d</fix>
</trkpt>
<trkpt lat="40.0728481" lon="-105.230577">
  <ele>1586.07</ele>
  <time>2026-08-27T18:25:48Z</time>
  <course>329.48</course>
  <speed>0.0</speed>
  <fix>3d</fix>
</trkpt>
<trkpt lat="40.072848" lon="-105.2305771">
  <ele>1586.17</ele>
  <time>2026-08-27T18:25:48Z</time>
  <course>66.52</course>
  <speed>0.02</speed>
  <fix>3d</fix>
</trkpt>
<trkpt lat="40.0728481" lon="-105.230577">
  <ele>1586.07</ele>
  <time>2026-08-27T18:25:48Z</time>
  <course>329.15</course>
  <speed>0.0</speed>
  <fix>3d</fix>
</trkpt>
<trkpt lat="40.072848" lon="-105.2305771">
  <ele>1586.16</ele>
  <time>2026-08-27T18:25:48Z</time>
  <course>66.49</course>
  <speed>0.02</speed>
  <fix>3d</fix>
</trkpt>
<trkpt lat="40.0728481" lon="-105.230577">
  <ele>1586.07</ele>
  <time>2026-08-27T18:25:48Z</time>
  <course>329.25</course>
  <speed>0.0</speed>
  <fix>3d</fix>
</trkpt>
<trkpt lat="40.072848" lon="-105.2305771">
  <ele>1586.16</ele>
  <time>2026-08-27T18:25:48Z</time>
  <course>66.46</course>
  <speed>0.02</speed>
  <fix>3d</fix>
</trkpt>
<trkpt lat="40.0728481" lon="-105.230577">
  <ele>1586.07</ele>
  <time>2026-08-27T18:25:48Z</time>
  <course>329.33</course>
  <speed>0.0</speed>
  <fix>3d</fix>
</trkpt>
<trkpt lat="40.072848" lon="-105.2305771">
  <ele>1586.16</ele>
  <time>2026-08-27T18:25:48Z</time>
  <course>66.43</course>
  <speed>0.02</speed>
  <fix>3d</fix>
</trkpt>
<trkpt lat="40.0728481" lon="-105.230577">
  <ele>1586.07</ele>
  <time>2026-08-27T18:25:48Z</time>
  <course>328.96</course>
  <speed>0.0</speed>
  <fix>3d</fix>
</trkpt>
<trkpt lat="40.072848" lon="-105.2305771">
  <ele>1586.16</ele>
  <time>2026-08-27T18:25:48Z</time>
  <course>66.4</course>
  <speed>0.02</speed>
  <fix>3d</fix>
</trkpt>
<trkpt lat="40.0728481" lon="-105.230577">
  <ele>1586.07</ele>
  <time>2026-08-27T18:25:48Z</time>
  <course>329.1</course>
  <speed>0.0</speed>
  <fix>3d</fix>
</trkpt>
<trkpt lat="40.072848" lon="-105.2305771">
  <ele>1586.16</ele>
  <time>2026-08-27T18:25:48Z</time>
  <course>66.37</course>
  <speed>0.02</speed>
  <fix>3d</fix>
</trkpt>
<trkpt lat="40.0728481" lon="-105.230577">
  <ele>1586.07</ele>
  <time>2026-08-27T18:25:48Z</time>
  <course>329.2</course>
  <speed>0.0</speed>
  <fix>3d</fix>
</trkpt>
<trkpt lat="40.072848" lon="-105.2305771">
  <ele>1586.16</ele>
  <time>2026-08-27T18:25:48Z</time>
  <course>66.34</course>
  <speed>0.02</speed>
  <fix>3d</fix>
</trkpt>
<trkpt lat="40.0728481" lon="-105.230577">
  <ele>1586.07</ele>
  <time>2026-08-27T18:25:48Z</time>
  <course>328.88</course>
  <speed>0.0</speed>
  <fix>3d</fix>
</trkpt>
<trkpt lat="40.072848" lon="-105.2305771">
  <ele>1586.16</ele>
  <time>2026-08-27T18:25:48Z</time>
  <course>66.31</course>
  <speed>0.02</speed>
  <fix>3d</fix>
</trkpt>
<trkpt lat="40.0728481" lon="-105.230577">
  <ele>1586.07</ele>
  <time>2026-08-27T18:25:48Z</time>
  <course>328.76</course>
  <speed>0.0</speed>
  <fix>3d</fix>
</trkpt>
<trkpt lat="40.072848" lon="-105.2305771">
  <ele>1586.16</ele>
  <time>2026-08-27T18:25:48Z</time>
  <course>66.28</course>
  <speed>0.02</speed>
  <fix>3d</fix>
</trkpt>
<trkpt lat="40.0728481" lon="-105.230577">
  <ele>1586.07</ele>
  <time>2026-08-27T18:25:48Z</time>
  <course>329.02</course>
  <speed>0.0</speed>
  <fix>3d</fix>
</trkpt>
<trkpt lat="40.072848" lon="-105.2305771">
  <ele>1586.16</ele>
  <time>2026-08-27T18:25:48Z</time>
  <course>66.25</course>
  <speed>0.02</speed>
  <fix>3d</fix>
</trkpt>
<trkpt lat="40.0728481" lon="-105.230577">
  <ele>1586.07</ele>
  <time>2026-08-27T18:25:48Z</time>
  <course>328.85</course>
  <speed>0.0</speed>
  <fix>3d</fix>
</trkpt>
<trkpt lat="40.072848" lon="-105.2305771">
  <ele>1586.16</ele>
  <time>2026-08-27T18:25:48Z</time>
  <course>66.22</course>
  <speed>0.02</speed>
  <fix>3d</fix>
</trkpt>
<trkpt lat="40.0728481" lon="-105.230577">
  <ele>1586.07</ele>
  <time>2026-08-27T18:25:48Z</time>
  <course>328.04</course>
  <speed>0.0</speed>
  <fix>3d</fix>
</trkpt>
<trkpt lat="40.072848" lon="-105.2305771">
  <ele>1586.16</ele>
  <time>2026-08-27T18:25:48Z</time>
  <course>66.19</course>
  <speed>0.02</speed>
  <fix>3d</fix>
</trkpt>
<trkpt lat="40.0728481" lon="-105.230577">
  <ele>1586.07</ele>
  <time>2026-08-27T18:25:48Z</time>
  <course>328.86</course>
  <speed>0.0</speed>
  <fix>3d</fix>
</trkpt>
<trkpt lat="40.072848" lon="-105.2305771">
  <ele>1586.16</ele>
  <time>2026-08-27T18:25:48Z</time>
  <course>66.16</course>
  <speed>0.02</speed>
  <fix>3d</fix>
</trkpt>
<trkpt lat="40.0728481" lon="-105.230577">
  <ele>1586.07</ele>
  <time>2026-08-27T18:25:48Z</time>
  <course>328.89</course>
  <speed>0.0</speed>
  <fix>3d</fix>
</trkpt>
<trkpt lat="40.072848" lon="-105.2305771">
  <ele>1586.16</ele>
  <time>2026-08-27T18:25:48Z</time>
  <course>66.13</course>
  <speed>0.02</speed>
  <fix>3d</fix>
</trkpt>
<trkpt lat="40.0728481" lon="-105.230577">
  <ele>1586.07</ele>
  <time>2026-08-27T18:25:48Z</time>
  <course>328.33</course>
  <speed>0.0</speed>
  <fix>3d</fix>
</trkpt>
<trkpt lat="40.072848" lon="-105.2305771">
  <ele>1586.16</ele>
  <time>2026-08-27T18:25:48Z</time>
  <course>66.1</course>
  <speed>0.02</speed>
  <fix>3d</fix>
</trkpt>
<trkpt lat="40.0728481" lon="-105.230577">
  <ele>1586.07</ele>
  <time>2026-08-27T18:25:48Z</time>
  <course>328.6</course>
  <speed>0.0</speed>
  <fix>3d</fix>
</trkpt>
<trkpt lat="40.072848" lon="-105.2305771">
  <ele>1586.16</ele>
  <time>2026-08-27T18:25:48Z</time>
  <course>66.08</course>
  <speed>0.02</speed>
  <fix>3d</fix>
</trkpt>
<trkpt lat="40.0728481" lon="-105.230577">
  <ele>1586.07</ele>
  <time>2026-08-27T18:25:48Z</time>
  <course>328.76</course>
  <speed>0.0</speed>
  <fix>3d</fix>
</trkpt>
<trkpt lat="40.072848" lon="-105.2305771">
  <ele>1586.16</ele>
  <time>2026-08-27T18:25:48Z</time>
  <course>66.05</course>
  <speed>0.02</speed>
  <fix>3d</fix>
</trkpt>
<trkpt lat="40.0728481" lon="-105.230577">
  <ele>1586.07</ele>
  <time>2026-08-27T18:25:48Z</time>
  <course>328.53</course>
  <speed>0.0</speed>
  <fix>3d</fix>
</trkpt>
<trkpt lat="40.072848" lon="-105.2305771">
  <ele>1586.16</ele>
  <time>2026-08-27T18:25:48Z</time>
  <course>66.02</course>
  <speed>0.02</speed>
  <fix>3d</fix>
</trkpt>
<trkpt lat="40.0728481" lon="-105.230577">
  <ele>1586.07</ele>
  <time>2026-08-27T18:25:49Z</time>
  <course>327.81</course>
  <speed>0.0</speed>
  <fix>3d</fix>
</trkpt>
<trkpt lat="40.072848" lon="-105.2305771">
  <ele>1586.16</ele>
  <time>2026-08-27T18:25:49Z</time>
  <course>66.0</course>
  <speed>0.02</speed>
  <fix>3d</fix>
</trkpt>
<trkpt lat="40.0728481" lon="-105.230577">
  <ele>1586.07</ele>
  <time>2026-08-27T18:25:49Z</time>
  <course>328.58</course>
  <speed>0.0</speed>
  <fix>3d</fix>
</trkpt>
<trkpt lat="40.072848" lon="-105.2305771">
  <ele>1586.15</ele>
  <time>2026-08-27T18:25:49Z</time>
  <course>65.97</course>
  <speed>0.02</speed>
  <fix>3d</fix>
</trkpt>
<trkpt lat="40.0728481" lon="-105.230577">
  <ele>1586.07</ele>
  <time>2026-08-27T18:25:49Z</time>
  <course>328.6</course>
  <speed>0.0</speed>
  <fix>3d</fix>
</trkpt>
<trkpt lat="40.072848" lon="-105.2305771">
  <ele>1586.15</ele>
  <time>2026-08-27T18:25:49Z</time>
  <course>65.94</course>
  <speed>0.02</speed>
  <fix>3d</fix>
</trkpt>
<trkpt lat="40.0728481" lon="-105.230577">
  <ele>1586.07</ele>
  <time>2026-08-27T18:25:49Z</time>
  <course>328.02</course>
  <speed>0.0</speed>
  <fix>3d</fix>
</trkpt>
<trkpt lat="40.072848" lon="-105.2305771">
  <ele>1586.15</ele>
  <time>2026-08-27T18:25:49Z</time>
  <course>65.92</course>
  <speed>0.02</speed>
  <fix>3d</fix>
</trkpt>
<trkpt lat="40.0728481" lon="-105.230577">
  <ele>1586.07</ele>
  <time>2026-08-27T18:25:49Z</time>
  <course>327.86</course>
  <speed>0.0</speed>
  <fix>3d</fix>
</trkpt>
<trkpt lat="40.072848" lon="-105.2305771">
  <ele>1586.15</ele>
  <time>2026-08-27T18:25:49Z</time>
  <course>65.89</course>
  <speed>0.02</speed>
  <fix>3d</fix>
</trkpt>
<trkpt lat="40.0728481" lon="-105.230577">
  <ele>1586.07</ele>
  <time>2026-08-27T18:25:49Z</time>
  <course>328.43</course>
  <speed>0.0</speed>
  <fix>3d</fix>
</trkpt>
<trkpt lat="40.072848" lon="-105.2305771">
  <ele>1586.15</ele>
  <time>2026-08-27T18:25:49Z</time>
  <course>65.87</course>
  <speed>0.02</speed>
  <fix>3d</fix>
</trkpt>
<trkpt lat="40.0728481" lon="-105.230577">
  <ele>1586.07</ele>
  <time>2026-08-27T18:25:49Z</time>
  <course>328.39</course>
  <speed>0.0</speed>
  <fix>3d</fix>
</trkpt>
<trkpt lat="40.072848" lon="-105.2305771">
  <ele>1586.15</ele>
  <time>2026-08-27T18:25:49Z</time>
  <course>65.84</course>
  <speed>0.02</speed>
  <fix>3d</fix>
</trkpt>
<trkpt lat="40.0728481" lon="-105.230577">
  <ele>1586.07</ele>
  <time>2026-08-27T18:25:49Z</time>
  <course>327.76</course>
  <speed>0.0</speed>
  <fix>3d</fix>
</trkpt>
<trkpt lat="40.072848" lon="-105.2305771">
  <ele>1586.15</ele>
  <time>2026-08-27T18:25:49Z</time>
  <course>65.82</course>
  <speed>0.02</speed>
  <fix>3d</fix>
</trkpt>
<trkpt lat="40.0728481" lon="-105.230577">
  <ele>1586.07</ele>
  <time>2026-08-27T18:25:49Z</time>
  <course>327.87</course>
  <speed>0.0</speed>
  <fix>3d</fix>
</trkpt>
<trkpt lat="40.072848" lon="-105.2305771">
  <ele>1586.15</ele>
  <time>2026-08-27T18:25:49Z</time>
  <course>65.79</course>
  <speed>0.02</speed>
  <fix>3d</fix>
</trkpt>
<trkpt lat="40.0728481" lon="-105.230577">
  <ele>1586.07</ele>
  <time>2026-08-27T18:25:49Z</time>
  <course>328.33</course>
  <speed>0.0</speed>
  <fix>3d</fix>
</trkpt>
<trkpt lat="40.072848" lon="-105.2305771">
  <ele>1586.15</ele>
  <time>2026-08-27T18:25:49Z</time>
  <course>65.77</course>
  <speed>0.02</speed>
  <fix>3d</fix>
</trkpt>
<trkpt lat="40.0728481" lon="-105.230577">
  <ele>1586.07</ele>
  <time>2026-08-27T18:25:49Z</time>
  <course>328.31</course>
  <speed>0.0</speed>
  <fix>3d</fix>
</trkpt>
<trkpt lat="40.072848" lon="-105.2305771">
  <ele>1586.15</ele>
  <time>2026-08-27T18:25:49Z</time>
  <course>65.75</course>
  <speed>0.02</speed>
  <fix>3d</fix>
</trkpt>
<trkpt lat="40.0728481" lon="-105.230577">
  <ele>1586.07</ele>
  <time>2026-08-27T18:25:49Z</time>
  <course>327.79</course>
  <speed>0.0</speed>
  <fix>3d</fix>
</trkpt>
<trkpt lat="40.072848" lon="-105.2305771">
  <ele>1586.15</ele>
  <time>2026-08-27T18:25:49Z</time>
  <course>65.72</course>
  <speed>0.02</speed>
  <fix>3d</fix>
</trkpt>
<trkpt lat="40.0728481" lon="-105.230577">
  <ele>1586.07</ele>
  <time>2026-08-27T18:25:49Z</time>
  <course>327.68</course>
  <speed>0.0</speed>
  <fix>3d</fix>
</trkpt>
<trkpt lat="40.072848" lon="-105.2305771">
  <ele>1586.15</ele>
  <time>2026-08-27T18:25:49Z</time>
  <course>65.7</course>
  <speed>0.02</speed>
  <fix>3d</fix>
</trkpt>
<trkpt lat="40.0728481" lon="-105.230577">
  <ele>1586.07</ele>
  <time>2026-08-27T18:25:49Z</time>
  <course>328.18</course>
  <speed>0.0</speed>
  <fix>3d</fix>
</trkpt>
<trkpt lat="40.072848" lon="-105.2305771">
  <ele>1586.15</ele>
  <time>2026-08-27T18:25:49Z</time>
  <course>65.67</course>
  <speed>0.02</speed>
  <fix>3d</fix>
</trkpt>
<trkpt lat="40.0728481" lon="-105.230577">
  <ele>1586.07</ele>
  <time>2026-08-27T18:25:49Z</time>
  <course>328.17</course>
  <speed>0.0</speed>
  <fix>3d</fix>
</trkpt>
<trkpt lat="40.072848" lon="-105.2305771">
  <ele>1586.15</ele>
  <time>2026-08-27T18:25:49Z</time>
  <course>65.65</course>
  <speed>0.02</speed>
  <fix>3d</fix>
</trkpt>
<trkpt lat="40.0728481" lon="-105.230577">
  <ele>1586.07</ele>
  <time>2026-08-27T18:25:49Z</time>
  <course>327.63</course>
  <speed>0.0</speed>
  <fix>3d</fix>
</trkpt>
<trkpt lat="40.072848" lon="-105.2305771">
  <ele>1586.14</ele>
  <time>2026-08-27T18:25:49Z</time>
  <course>65.63</course>
  <speed>0.02</speed>
  <fix>3d</fix>
</trkpt>
<trkpt lat="40.0728481" lon="-105.230577">
  <ele>1586.07</ele>
  <time>2026-08-27T18:25:49Z</time>
  <course>327.54</course>
  <speed>0.0</speed>
  <fix>3d</fix>
</trkpt>
<trkpt lat="40.072848" lon="-105.2305771">
  <ele>1586.14</ele>
  <time>2026-08-27T18:25:49Z</time>
  <course>65.6</course>
  <speed>0.02</speed>
  <fix>3d</fix>
</trkpt>
<trkpt lat="40.0728481" lon="-105.230577">
  <ele>1586.07</ele>
  <time>2026-08-27T18:25:49Z</time>
  <course>328.04</course>
  <speed>0.0</speed>
  <fix>3d</fix>
</trkpt>
<trkpt lat="40.072848" lon="-105.2305771">
  <ele>1586.14</ele>
  <time>2026-08-27T18:25:49Z</time>
  <course>65.58</course>
  <speed>0.02</speed>
  <fix>3d</fix>
</trkpt>
<trkpt lat="40.0728481" lon="-105.230577">
  <ele>1586.07</ele>
  <time>2026-08-27T18:25:49Z</time>
  <course>328.04</course>
  <speed>0.0</speed>
  <fix>3d</fix>
</trkpt>
<trkpt lat="40.072848" lon="-105.2305771">
  <ele>1586.14</ele>
  <time>2026-08-27T18:25:49Z</time>
  <course>65.56</course>
  <speed>0.02</speed>
  <fix>3d</fix>
</trkpt>
<trkpt lat="40.0728481" lon="-105.230577">
  <ele>1586.07</ele>
  <time>2026-08-27T18:25:49Z</time>
  <course>327.55</course>
  <speed>0.0</speed>
  <fix>3d</fix>
</trkpt>
<trkpt lat="40.072848" lon="-105.2305771">
  <ele>1586.14</ele>
  <time>2026-08-27T18:25:49Z</time>
  <course>65.55</course>
  <speed>0.02</speed>
  <fix>3d</fix>
</trkpt>
<trkpt lat="40.072848" lon="-105.2305771">
  <ele>1586.14</ele>
  <time>2026-08-27T18:25:49Z</time>
  <course>65.54</course>
  <speed>0.02</speed>
  <fix>3d</fix>
</trkpt>
<trkpt lat="40.0728481" lon="-105.230577">
  <ele>1586.07</ele>
  <time>2026-08-27T18:25:49Z</time>
  <course>327.5</course>
  <speed>0.0</speed>
  <fix>3d</fix>
</trkpt>
<trkpt lat="40.072848" lon="-105.2305771">
  <ele>1586.14</ele>
  <time>2026-08-27T18:25:49Z</time>
  <course>65.52</course>
  <speed>0.02</speed>
  <fix>3d</fix>
</trkpt>
<trkpt lat="40.0728481" lon="-105.230577">
  <ele>1586.07</ele>
  <time>2026-08-27T18:25:49Z</time>
  <course>324.84</course>
  <speed>0.0</speed>
  <fix>3d</fix>
</trkpt>
<trkpt lat="40.072848" lon="-105.2305771">
  <ele>1586.14</ele>
  <time>2026-08-27T18:25:49Z</time>
  <course>65.5</course>
  <speed>0.02</speed>
  <fix>3d</fix>
</trkpt>
<trkpt lat="40.0728481" lon="-105.230577">
  <ele>1586.07</ele>
  <time>2026-08-27T18:25:49Z</time>
  <course>322.97</course>
  <speed>0.0</speed>
  <fix>3d</fix>
</trkpt>
<trkpt lat="40.072848" lon="-105.2305771">
  <ele>1586.14</ele>
  <time>2026-08-27T18:25:49Z</time>
  <course>65.49</course>
  <speed>0.02</speed>
  <fix>3d</fix>
</trkpt>
<trkpt lat="40.0728481" lon="-105.230577">
  <ele>1586.07</ele>
  <time>2026-08-27T18:25:49Z</time>
  <course>327.98</course>
  <speed>0.0</speed>
  <fix>3d</fix>
</trkpt>
<trkpt lat="40.072848" lon="-105.2305771">
  <ele>1586.14</ele>
  <time>2026-08-27T18:25:49Z</time>
  <course>65.47</course>
  <speed>0.02</speed>
  <fix>3d</fix>
</trkpt>
<trkpt lat="40.0728481" lon="-105.230577">
  <ele>1586.07</ele>
  <time>2026-08-27T18:25:49Z</time>
  <course>330.84</course>
  <speed>0.0</speed>
  <fix>3d</fix>
</trkpt>
<trkpt lat="40.072848" lon="-105.2305771">
  <ele>1586.14</ele>
  <time>2026-08-27T18:25:49Z</time>
  <course>65.44</course>
  <speed>0.02</speed>
  <fix>3d</fix>
</trkpt>
<trkpt lat="40.0728481" lon="-105.230577">
  <ele>1586.07</ele>
  <time>2026-08-27T18:25:49Z</time>
  <course>329.45</course>
  <speed>0.0</speed>
  <fix>3d</fix>
</trkpt>
<trkpt lat="40.072848" lon="-105.2305771">
  <ele>1586.14</ele>
  <time>2026-08-27T18:25:49Z</time>
  <course>65.4</course>
  <speed>0.02</speed>
  <fix>3d</fix>
</trkpt>
<trkpt lat="40.0728481" lon="-105.230577">
  <ele>1586.07</ele>
  <time>2026-08-27T18:25:49Z</time>
  <course>328.67</course>
  <speed>0.0</speed>
  <fix>3d</fix>
</trkpt>
<trkpt lat="40.072848" lon="-105.2305771">
  <ele>1586.18</ele>
  <time>2026-08-27T18:25:49Z</time>
  <course>65.33</course>
  <speed>0.02</speed>
  <fix>3d</fix>
</trkpt>
<trkpt lat="40.0728481" lon="-105.230577">
  <ele>1586.07</ele>
  <time>2026-08-27T18:25:49Z</time>
  <course>328.27</course>
  <speed>0.0</speed>
  <fix>3d</fix>
</trkpt>
<trkpt lat="40.072848" lon="-105.2305771">
  <ele>1586.24</ele>
  <time>2026-08-27T18:25:49Z</time>
  <course>65.25</course>
  <speed>0.02</speed>
  <fix>3d</fix>
</trkpt>
<trkpt lat="40.0728481" lon="-105.230577">
  <ele>1586.11</ele>
  <time>2026-08-27T18:25:49Z</time>
  <course>329.49</course>
  <speed>0.0</speed>
  <fix>3d</fix>
</trkpt>
<trkpt lat="40.072848" lon="-105.2305771">
  <ele>1586.26</ele>
  <time>2026-08-27T18:25:49Z</time>
  <course>65.04</course>
  <speed>0.02</speed>
  <fix>3d</fix>
</trkpt>
<trkpt lat="40.072848" lon="-105.2305771">
  <ele>1586.42</ele>
  <time>2026-08-27T18:25:49Z</time>
  <course>57.97</course>
  <speed>0.09219544457292887</speed>
  <fix>3d</fix>
</trkpt>
<trkpt lat="40.0728481" lon="-105.230577">
  <ele>1586.17</ele>
  <time>2026-08-27T18:25:49Z</time>
  <course>332.7</course>
  <speed>0.0</speed>
  <fix>3d</fix>
</trkpt>
<trkpt lat="40.0728482" lon="-105.2305773">
  <ele>1586.79</ele>
  <time>2026-08-27T18:25:49Z</time>
  <course>55.89</course>
  <speed>0.22803508501982758</speed>
  <fix>3d</fix>
</trkpt>
<trkpt lat="40.0728482" lon="-105.2305771">
  <ele>1586.34</ele>
  <time>2026-08-27T18:25:49Z</time>
  <course>323.11</course>
  <speed>0.08</speed>
  <fix>3d</fix>
</trkpt>
<trkpt lat="40.0728483" lon="-105.2305774">
  <ele>1586.87</ele>
  <time>2026-08-27T18:25:49Z</time>
  <course>55.67</course>
  <speed>0.25</speed>
  <fix>3d</fix>
</trkpt>
<trkpt lat="40.0728487" lon="-105.2305777">
  <ele>1587.17</ele>
  <time>2026-08-27T18:25:49Z</time>
  <course>54.46</course>
  <speed>0.30610455730027936</speed>
  <fix>3d</fix>
</trkpt>
<trkpt lat="40.0728485" lon="-105.2305773">
  <ele>1586.67</ele>
  <time>2026-08-27T18:25:49Z</time>
  <course>321.54</course>
  <speed>0.22</speed>
  <fix>3d</fix>
</trkpt>
<trkpt lat="40.0728487" lon="-105.2305778">
  <ele>1587.25</ele>
  <time>2026-08-27T18:25:49Z</time>
  <course>54.09</course>
  <speed>0.32015621187164245</speed>
  <fix>3d</fix>
</trkpt>
<trkpt lat="40.0728491" lon="-105.2305782">
  <ele>1587.58</ele>
  <time>2026-08-27T18:25:49Z</time>
  <course>52.82</course>
  <speed>0.3687817782917155</speed>
  <fix>3d</fix>
</trkpt>
<trkpt lat="40.0728488" lon="-105.2305777">
  <ele>1587.06</ele>
  <time>2026-08-27T18:25:49Z</time>
  <course>319.2</course>
  <speed>0.31</speed>
  <fix>3d</fix>
</trkpt>
<trkpt lat="40.0728492" lon="-105.2305783">
  <ele>1587.64</ele>
  <time>2026-08-27T18:25:49Z</time>
  <course>52.67</course>
  <speed>0.3753664875824692</speed>
  <fix>3d</fix>
</trkpt>
<trkpt lat="40.0728497" lon="-105.2305789">
  <ele>1588.03</ele>
  <time>2026-08-27T18:25:49Z</time>
  <course>51.94</course>
  <speed>0.41012193308819755</speed>
  <fix>3d</fix>
</trkpt>
<trkpt lat="40.0728493" lon="-105.2305782">
  <ele>1587.46</ele>
  <time>2026-08-27T18:25:49Z</time>
  <course>316.26</course>
  <speed>0.37</speed>
  <fix>3d</fix>
</trkpt>
<trkpt lat="40.0728498" lon="-105.230579">
  <ele>1588.14</ele>
  <time>2026-08-27T18:25:49Z</time>
  <course>51.82</course>
  <speed>0.4172529209005013</speed>
  <fix>3d</fix>
</trkpt>
<trkpt lat="40.0728502" lon="-105.2305796">
  <ele>1588.5</ele>
  <time>2026-08-27T18:25:49Z</time>
  <course>51.57</course>
  <speed>0.43185645763378366</speed>
  <fix>3d</fix>
</trkpt>
<trkpt lat="40.0728498" lon="-105.2305789">
  <ele>1587.89</ele>
  <time>2026-08-27T18:25:49Z</time>
  <course>313.09</course>
  <speed>0.41</speed>
  <fix>3d</fix>
</trkpt>
<trkpt lat="40.0728503" lon="-105.2305798">
  <ele>1588.6</ele>
  <time>2026-08-27T18:25:49Z</time>
  <course>51.52</course>
  <speed>0.4393176527297759</speed>
  <fix>3d</fix>
</trkpt>
<trkpt lat="40.0728507" lon="-105.2305804">
  <ele>1588.98</ele>
  <time>2026-08-27T18:25:49Z</time>
  <course>51.2</course>
  <speed>0.45607017003965516</speed>
  <fix>3d</fix>
</trkpt>
<trkpt lat="40.0728503" lon="-105.2305796">
  <ele>1588.35</ele>
  <time>2026-08-27T18:25:49Z</time>
  <course>310.0</course>
  <speed>0.44</speed>
  <fix>3d</fix>
</trkpt>
<trkpt lat="40.0728508" lon="-105.2305805">
  <ele>1589.04</ele>
  <time>2026-08-27T18:25:49Z</time>
  <course>51.2</course>
  <speed>0.45607017003965516</speed>
  <fix>3d</fix>
</trkpt>
<trkpt lat="40.0728512" lon="-105.2305813">
  <ele>1589.48</ele>
  <time>2026-08-27T18:25:49Z</time>
  <course>49.02</course>
  <speed>0.4801041553663121</speed>
  <fix>3d</fix>
</trkpt>
<trkpt lat="40.0728508" lon="-105.2305805">
  <ele>1588.83</ele>
  <time>2026-08-27T18:25:49Z</time>
  <course>307.12</course>
  <speed>0.46</speed>
  <fix>3d</fix>
</trkpt>
<trkpt lat="40.0728513" lon="-105.2305815">
  <ele>1589.58</ele>
  <time>2026-08-27T18:25:49Z</time>
  <course>48.51</course>
  <speed>0.4825971404805462</speed>
  <fix>3d</fix>
</trkpt>
<trkpt lat="40.0728517" lon="-105.2305823">
  <ele>1589.99</ele>
  <time>2026-08-27T18:25:49Z</time>
  <course>48.16</course>
  <speed>0.5024937810560445</speed>
  <fix>3d</fix>
</trkpt>
<trkpt lat="40.0728513" lon="-105.2305814">
  <ele>1589.32</ele>
  <time>2026-08-27T18:25:49Z</time>
  <course>304.54</course>
  <speed>0.48</speed>
  <fix>3d</fix>
</trkpt>
<trkpt lat="40.0728518" lon="-105.2305825">
  <ele>1590.06</ele>
  <time>2026-08-27T18:25:49Z</time>
  <course>48.31</course>
  <speed>0.5024937810560445</speed>
  <fix>3d</fix>
</trkpt>
<trkpt lat="40.0728522" lon="-105.2305834">
  <ele>1590.49</ele>
  <time>2026-08-27T18:25:49Z</time>
  <course>49.53</course>
  <speed>0.523545604508337</speed>
  <fix>3d</fix>
</trkpt>
<trkpt lat="40.0728518" lon="-105.2305824">
  <ele>1589.81</ele>
  <time>2026-08-27T18:25:49Z</time>
  <course>302.34</course>
  <speed>0.5</speed>
  <fix>3d</fix>
</trkpt>
<trkpt lat="40.0728523" lon="-105.2305836">
  <ele>1590.59</ele>
  <time>2026-08-27T18:25:49Z</time>
  <course>49.81</course>
  <speed>0.523545604508337</speed>
  <fix>3d</fix>
</trkpt>
<trkpt lat="40.0728527" lon="-105.2305845">
  <ele>1590.99</ele>
  <time>2026-08-27T18:25:49Z</time>
  <course>50.87</course>
  <speed>0.5366563145999496</speed>
  <fix>3d</fix>
</trkpt>
<trkpt lat="40.0728523" lon="-105.2305835">
  <ele>1590.31</ele>
  <time>2026-08-27T18:25:49Z</time>
  <course>300.49</course>
  <speed>0.51</speed>
  <fix>3d</fix>
</trkpt>
<trkpt lat="40.0728527" lon="-105.2305846">
  <ele>1591.04</ele>
  <time>2026-08-27T18:25:49Z</time>
  <course>51.01</course>
  <speed>0.5366563145999496</speed>
  <fix>3d</fix>
</trkpt>
<trkpt lat="40.0728531" lon="-105.2305856">
  <ele>1591.48</ele>
  <time>2026-08-27T18:25:49Z</time>
  <course>52.32</course>
  <speed>0.5546169849544819</speed>
  <fix>3d</fix>
</trkpt>
<trkpt lat="40.0728527" lon="-105.2305845">
  <ele>1590.8</ele>
  <time>2026-08-27T18:25:49Z</time>
  <course>298.98</course>
  <speed>0.53</speed>
  <fix>3d</fix>
</trkpt>
<trkpt lat="40.0728532" lon="-105.2305858">
  <ele>1591.56</ele>
  <time>2026-08-27T18:25:49Z</time>
  <course>52.61</course>
  <speed>0.5546169849544819</speed>
  <fix>3d</fix>
</trkpt>
<trkpt lat="40.0728536" lon="-105.2305868">
  <ele>1591.94</ele>
  <time>2026-08-27T18:25:49Z</time>
  <course>54.08</course>
  <speed>0.563648826841678</speed>
  <fix>3d</fix>
</trkpt>
<trkpt lat="40.0728532" lon="-105.2305856">
  <ele>1591.29</ele>
  <time>2026-08-27T18:25:49Z</time>
  <course>297.88</course>
  <speed>0.54</speed>
  <fix>3d</fix>
</trkpt>
<trkpt lat="40.0728537" lon="-105.2305871">
  <ele>1592.04</ele>
  <time>2026-08-27T18:25:49Z</time>
  <course>54.54</course>
  <speed>0.563648826841678</speed>
  <fix>3d</fix>
</trkpt>
<trkpt lat="40.072854" lon="-105.230588">
  <ele>1592.34</ele>
  <time>2026-08-27T18:25:49Z</time>
  <course>56.09</course>
  <speed>0.5594640292279746</speed>
  <fix>3d</fix>
</trkpt>
<trkpt lat="40.0728537" lon="-105.2305868">
  <ele>1591.74</ele>
  <time>2026-08-27T18:25:49Z</time>
  <course>297.08</course>
  <speed>0.55</speed>
  <fix>3d</fix>
</trkpt>
<trkpt lat="40.0728541" lon="-105.2305881">
  <ele>1592.38</ele>
  <time>2026-08-27T18:25:49Z</time>
  <course>56.27</course>
  <speed>0.5594640292279746</speed>
  <fix>3d</fix>
</trkpt>
<trkpt lat="40.0728545" lon="-105.2305891">
  <ele>1592.67</ele>
  <time>2026-08-27T18:25:49Z</time>
  <course>58.17</course>
  <speed>0.5594640292279746</speed>
  <fix>3d</fix>
</trkpt>
<trkpt lat="40.0728541" lon="-105.2305879">
  <ele>1592.14</ele>
  <time>2026-08-27T18:25:49Z</time>
  <course>296.47</course>
  <speed>0.55</speed>
  <fix>3d</fix>
</trkpt>
<trkpt lat="40.0728545" lon="-105.2305894">
  <ele>1592.72</ele>
  <time>2026-08-27T18:25:49Z</time>
  <course>58.53</course>
  <speed>0.5594640292279746</speed>
  <fix>3d</fix>
</trkpt>
<trkpt lat="40.0728549" lon="-105.2305903">
  <ele>1592.92</ele>
  <time>2026-08-27T18:25:49Z</time>
  <course>60.16</course>
  <speed>0.5462600113499065</speed>
  <fix>3d</fix>
</trkpt>
<trkpt lat="40.0728546" lon="-105.2305891">
  <ele>1592.49</ele>
  <time>2026-08-27T18:25:49Z</time>
  <course>295.93</course>
  <speed>0.55</speed>
  <fix>3d</fix>
</trkpt>
<trkpt lat="40.0728549" lon="-105.2305905">
  <ele>1592.95</ele>
  <time>2026-08-27T18:25:49Z</time>
  <course>60.39</course>
  <speed>0.5462600113499065</speed>
  <fix>3d</fix>
</trkpt>
<trkpt lat="40.0728553" lon="-105.2305914">
  <ele>1593.09</ele>
  <time>2026-08-27T18:25:49Z</time>
  <course>61.74</course>
  <speed>0.5331041174104736</speed>
  <fix>3d</fix>
</trkpt>
<trkpt lat="40.072855" lon="-105.2305902">
  <ele>1592.75</ele>
  <time>2026-08-27T18:25:49Z</time>
  <course>295.36</course>
  <speed>0.54</speed>
  <fix>3d</fix>
</trkpt>
<trkpt lat="40.0728554" lon="-105.2305917">
  <ele>1593.12</ele>
  <time>2026-08-27T18:25:49Z</time>
  <course>62.06</course>
  <speed>0.5292447448959696</speed>
  <fix>3d</fix>
</trkpt>
<trkpt lat="40.0728557" lon="-105.2305926">
  <ele>1593.19</ele>
  <time>2026-08-27T18:25:49Z</time>
  <course>62.74</course>
  <speed>0.5069516742254631</speed>
  <fix>3d</fix>
</trkpt>
<trkpt lat="40.0728555" lon="-105.2305914">
  <ele>1592.92</ele>
  <time>2026-08-27T18:25:49Z</time>
  <course>294.62</course>
  <speed>0.53</speed>
  <fix>3d</fix>
</trkpt>
<trkpt lat="40.0728558" lon="-105.2305928">
  <ele>1593.2</ele>
  <time>2026-08-27T18:25:49Z</time>
  <course>62.91</course>
  <speed>0.5032891812864648</speed>
  <fix>3d</fix>
</trkpt>
<trkpt lat="40.0728561" lon="-105.2305936">
  <ele>1593.23</ele>
  <time>2026-08-27T18:25:49Z</time>
  <course>63.28</course>
  <speed>0.49040799340956914</speed>
  <fix>3d</fix>
</trkpt>
<trkpt lat="40.0728558" lon="-105.2305925">
  <ele>1593.03</ele>
  <time>2026-08-27T18:25:49Z</time>
  <course>293.64</course>
  <speed>0.51</speed>
  <fix>3d</fix>
</trkpt>
<trkpt lat="40.0728561" lon="-105.2305938">
  <ele>1593.23</ele>
  <time>2026-08-27T18:25:49Z</time>
  <course>63.32</course>
  <speed>0.49040799340956914</speed>
  <fix>3d</fix>
</trkpt>
<trkpt lat="40.0728564" lon="-105.2305947">
  <ele>1593.24</ele>
  <time>2026-08-27T18:25:49Z</time>
  <course>63.51</course>
  <speed>0.46486557196677836</speed>
  <fix>3d</fix>
</trkpt>
<trkpt lat="40.0728562" lon="-105.2305936">
  <ele>1593.08</ele>
  <time>2026-08-27T18:25:49Z</time>
  <course>292.46</course>
  <speed>0.49</speed>
  <fix>3d</fix>
</trkpt>
<trkpt lat="40.0728564" lon="-105.2305949">
  <ele>1593.24</ele>
  <time>2026-08-27T18:25:49Z</time>
  <course>63.56</course>
  <speed>0.46486557196677836</speed>
  <fix>3d</fix>
</trkpt>
<trkpt lat="40.0728567" lon="-105.2305957">
  <ele>1593.23</ele>
  <time>2026-08-27T18:25:49Z</time>
  <course>63.66</course>
  <speed>0.44922154890432403</speed>
  <fix>3d</fix>
</trkpt>
<trkpt lat="40.0728565" lon="-105.2305947">
  <ele>1593.1</ele>
  <time>2026-08-27T18:25:49Z</time>
  <course>291.09</course>
  <speed>0.46</speed>
  <fix>3d</fix>
</trkpt>
<trkpt lat="40.0728567" lon="-105.2305959">
  <ele>1593.23</ele>
  <time>2026-08-27T18:25:49Z</time>
  <course>63.67</course>
  <speed>0.43965895873961214</speed>
  <fix>3d</fix>
</trkpt>
<trkpt lat="40.0728569" lon="-105.2305966">
  <ele>1593.22</ele>
  <time>2026-08-27T18:25:49Z</time>
  <course>63.7</course>
  <speed>0.42449970553582245</speed>
  <fix>3d</fix>
</trkpt>
<trkpt lat="40.0728567" lon="-105.2305957">
  <ele>1593.09</ele>
  <time>2026-08-27T18:25:49Z</time>
  <course>289.57</course>
  <speed>0.44</speed>
  <fix>3d</fix>
</trkpt>
<trkpt lat="40.0728569" lon="-105.2305968">
  <ele>1593.22</ele>
  <time>2026-08-27T18:25:49Z</time>
  <course>63.7</course>
  <speed>0.42449970553582245</speed>
  <fix>3d</fix>
</trkpt>
<trkpt lat="40.0728571" lon="-105.2305976">
  <ele>1593.21</ele>
  <time>2026-08-27T18:25:49Z</time>
  <course>63.73</course>
  <speed>0.41</speed>
  <fix>3d</fix>
</trkpt>
<trkpt lat="40.072857" lon="-105.2305966">
  <ele>1593.08</ele>
  <time>2026-08-27T18:25:49Z</time>
  <course>287.95</course>
  <speed>0.42</speed>
  <fix>3d</fix>
</trkpt>
<trkpt lat="40.0728572" lon="-105.2305977">
  <ele>1593.21</ele>
  <time>2026-08-27T18:25:49Z</time>
  <course>63.73</course>
  <speed>0.40024992192379005</speed>
  <fix>3d</fix>
</trkpt>
<trkpt lat="40.0728573" lon="-105.2305985">
  <ele>1593.19</ele>
  <time>2026-08-27T18:25:49Z</time>
  <course>63.8</course>
  <speed>0.388329756778952</speed>
  <fix>3d</fix>
</trkpt>
<trkpt lat="40.0728572" lon="-105.2305976">
  <ele>1593.07</ele>
  <time>2026-08-27T18:25:49Z</time>
  <course>286.28</course>
  <speed>0.4</speed>
  <fix>3d</fix>
</trkpt>
<trkpt lat="40.0728573" lon="-105.2305986">
  <ele>1593.19</ele>
  <time>2026-08-27T18:25:49Z</time>
  <course>63.8</course>
  <speed>0.388329756778952</speed>
  <fix>3d</fix>
</trkpt>
<trkpt lat="40.0728575" lon="-105.2305994">
  <ele>1593.17</ele>
  <time>2026-08-27T18:25:49Z</time>
  <course>63.84</course>
  <speed>0.37483329627982626</speed>
  <fix>3d</fix>
</trkpt>
<trkpt lat="40.0728575" lon="-105.2305985">
  <ele>1593.05</ele>
  <time>2026-08-27T18:25:49Z</time>
  <course>284.56</course>
  <speed>0.39</speed>
  <fix>3d</fix>
</trkpt>
<trkpt lat="40.0728575" lon="-105.2305995">
  <ele>1593.17</ele>
  <time>2026-08-27T18:25:49Z</time>
  <course>63.85</course>
  <speed>0.37483329627982626</speed>
  <fix>3d</fix>
</trkpt>
<trkpt lat="40.0728576" lon="-105.2306002">
  <ele>1593.16</ele>
  <time>2026-08-27T18:25:49Z</time>
  <course>63.92</course>
  <speed>0.3634556369077249</speed>
  <fix>3d</fix>
</trkpt>
<trkpt lat="40.0728576" lon="-105.2305993">
  <ele>1593.03</ele>
  <time>2026-08-27T18:25:49Z</time>
  <course>282.83</course>
  <speed>0.37</speed>
  <fix>3d</fix>
</trkpt>
<trkpt lat="40.0728576" lon="-105.2306004">
  <ele>1593.16</ele>
  <time>2026-08-27T18:25:49Z</time>
  <course>63.93</course>
  <speed>0.3634556369077249</speed>
  <fix>3d</fix>
</trkpt>
<trkpt lat="40.0728577" lon="-105.230601">
  <ele>1593.15</ele>
  <time>2026-08-27T18:25:49Z</time>
  <course>63.97</course>
  <speed>0.3522782990761707</speed>
  <fix>3d</fix>
</trkpt>
<trkpt lat="40.0728577" lon="-105.2306002">
  <ele>1593.02</ele>
  <time>2026-08-27T18:25:49Z</time>
  <course>281.11</course>
  <speed>0.36</speed>
  <fix>3d</fix>
</trkpt>
<trkpt lat="40.0728578" lon="-105.2306012">
  <ele>1593.15</ele>
  <time>2026-08-27T18:25:49Z</time>
  <course>63.98</course>
  <speed>0.3522782990761707</speed>
  <fix>3d</fix>
</trkpt>
<trkpt lat="40.0728578" lon="-105.2306018">
  <ele>1593.14</ele>
  <time>2026-08-27T18:25:49Z</time>
  <course>64.05</course>
  <speed>0.34132096331752027</speed>
  <fix>3d</fix>
</trkpt>
<trkpt lat="40.0728578" lon="-105.2306011">
  <ele>1593.01</ele>
  <time>2026-08-27T18:25:49Z</time>
  <course>279.45</course>
  <speed>0.34</speed>
  <fix>3d</fix>
</trkpt>
<trkpt lat="40.0728578" lon="-105.230602">
  <ele>1593.14</ele>
  <time>2026-08-27T18:25:49Z</time>
  <course>64.06</course>
  <speed>0.34132096331752027</speed>
  <fix>3d</fix>
</trkpt>
<trkpt lat="40.0728579" lon="-105.2306026">
  <ele>1593.13</ele>
  <time>2026-08-27T18:25:49Z</time>
  <course>64.14</course>
  <speed>0.3306055050963308</speed>
  <fix>3d</fix>
</trkpt>
<trkpt lat="40.0728579" lon="-105.2306018">
  <ele>1593.01</ele>
  <time>2026-08-27T18:25:49Z</time>
  <course>277.8</course>
  <speed>0.33</speed>
  <fix>3d</fix>
</trkpt>
<trkpt lat="40.0728579" lon="-105.2306027">
  <ele>1593.13</ele>
  <time>2026-08-27T18:25:49Z</time>
  <course>64.15</course>
  <speed>0.3301514803843835</speed>
  <fix>3d</fix>
</trkpt>
<trkpt lat="40.0728579" lon="-105.2306033">
  <ele>1593.12</ele>
  <time>2026-08-27T18:25:49Z</time>
  <course>64.21</course>
  <speed>0.3</speed>
  <fix>3d</fix>
</trkpt>
<trkpt lat="40.072858" lon="-105.2306026">
  <ele>1593.01</ele>
  <time>2026-08-27T18:25:49Z</time>
  <course>276.0</course>
  <speed>0.32</speed>
  <fix>3d</fix>
</trkpt>
<trkpt lat="40.0728579" lon="-105.2306035">
  <ele>1593.12</ele>
  <time>2026-08-27T18:25:49Z</time>
  <course>64.22</course>
  <speed>0.3</speed>
  <fix>3d</fix>
</trkpt>
<trkpt lat="40.0728579" lon="-105.230604">
  <ele>1593.12</ele>
  <time>2026-08-27T18:25:49Z</time>
  <course>64.29</course>
  <speed>0.260768096208106</speed>
  <fix>3d</fix>
</trkpt>
<trkpt lat="40.0728581" lon="-105.2306033">
  <ele>1593.01</ele>
  <time>2026-08-27T18:25:49Z</time>
  <course>273.29</course>
  <speed>0.3</speed>
  <fix>3d</fix>
</trkpt>
<trkpt lat="40.0728579" lon="-105.2306041">
  <ele>1593.11</ele>
  <time>2026-08-27T18:25:49Z</time>
  <course>64.3</course>
  <speed>0.25079872407968906</speed>
  <fix>3d</fix>
</trkpt>
<trkpt lat="40.072858" lon="-105.2306045">
  <ele>1593.11</ele>
  <time>2026-08-27T18:25:49Z</time>
  <course>64.32</course>
  <speed>0.196468827043885</speed>
  <fix>3d</fix>
</trkpt>
<trkpt lat="40.0728581" lon="-105.230604">
  <ele>1593.01</ele>
  <time>2026-08-27T18:25:49Z</time>
  <course>268.53</course>
  <speed>0.25</speed>
  <fix>3d</fix>
</trkpt>
<trkpt lat="40.072858" lon="-105.2306046">
  <ele>1593.11</ele>
  <time>2026-08-27T18:25:49Z</time>
  <course>64.32</course>
  <speed>0.1772004514666935</speed>
  <fix>3d</fix>
</trkpt>
<trkpt lat="40.0728579" lon="-105.2306049">
  <ele>1593.11</ele>
  <time>2026-08-27T18:25:49Z</time>
  <course>64.36</course>
  <speed>0.11661903789690602</speed>
  <fix>3d</fix>
</trkpt>
<trkpt lat="40.072858" lon="-105.2306045">
  <ele>1593.01</ele>
  <time>2026-08-27T18:25:49Z</time>
  <course>260.85</course>
  <speed>0.19</speed>
  <fix>3d</fix>
</trkpt>
<trkpt lat="40.0728579" lon="-105.2306049">
  <ele>1593.11</ele>
  <time>2026-08-27T18:25:49Z</time>
  <course>64.36</course>
  <speed>0.10816653826391968</speed>
  <fix>3d</fix>
</trkpt>
<trkpt lat="40.0728578" lon="-105.230605">
  <ele>1593.11</ele>
  <time>2026-08-27T18:25:49Z</time>
  <course>64.41</course>
  <speed>0.0632455532033676</speed>
  <fix>3d</fix>
</trkpt>
<trkpt lat="40.0728579" lon="-105.2306049">
  <ele>1593.01</ele>
  <time>2026-08-27T18:25:49Z</time>
  <course>247.87</course>
  <speed>0.12</speed>
  <fix>3d</fix>
</trkpt>
<trkpt lat="40.0728578" lon="-105.230605">
  <ele>1593.11</ele>
  <time>2026-08-27T18:25:49Z</time>
  <course>64.42</course>
  <speed>0.05099019513592785</speed>
  <fix>3d</fix>
</trkpt>
<trkpt lat="40.0728578" lon="-105.230605">
  <ele>1593.11</ele>
  <time>2026-08-27T18:25:49Z</time>
  <course>64.45</course>
  <speed>0.04242640687119285</speed>
  <fix>3d</fix>
</trkpt>
<trkpt lat="40.0728579" lon="-105.230605">
  <ele>1593.02</ele>
  <time>2026-08-27T18:25:49Z</time>
  <course>216.87</course>
  <speed>0.05</speed>
  <fix>3d</fix>
</trkpt>
<trkpt lat="40.0728578" lon="-105.230605">
  <ele>1593.11</ele>
  <time>2026-08-27T18:25:49Z</time>
  <course>64.48</course>
  <speed>0.04242640687119285</speed>
  <fix>3d</fix>
</trkpt>
<trkpt lat="40.0728578" lon="-105.2306049">
  <ele>1593.12</ele>
  <time>2026-08-27T18:25:49Z</time>
  <course>64.54</course>
  <speed>0.06</speed>
  <fix>3d</fix>
</trkpt>
<trkpt lat="40.0728579" lon="-105.230605">
  <ele>1593.02</ele>
  <time>2026-08-27T18:25:49Z</time>
  <course>127.85</course>
  <speed>0.03</speed>
  <fix>3d</fix>
</trkpt>
<trkpt lat="40.0728578" lon="-105.2306048">
  <ele>1593.12</ele>
  <time>2026-08-27T18:25:49Z</time>
  <course>64.55</course>
  <speed>0.06</speed>
  <fix>3d</fix>
</trkpt>
<trkpt lat="40.0728578" lon="-105.2306048">
  <ele>1593.13</ele>
  <time>2026-08-27T18:25:49Z</time>
  <course>64.63</course>
  <speed>0.0632455532033676</speed>
  <fix>3d</fix>
</trkpt>
<trkpt lat="40.0728578" lon="-105.2306049">
  <ele>1593.03</ele>
  <time>2026-08-27T18:25:49Z</time>
  <course>85.09</course>
  <speed>0.06</speed>
  <fix>3d</fix>
</trkpt>
<trkpt lat="40.0728578" lon="-105.2306048">
  <ele>1593.13</ele>
  <time>2026-08-27T18:25:49Z</time>
  <course>64.65</course>
  <speed>0.053851648071345036</speed>
  <fix>3d</fix>
</trkpt>
<trkpt lat="40.0728578" lon="-105.2306047">
  <ele>1593.14</ele>
  <time>2026-08-27T18:25:49Z</time>
  <course>64.76</course>
  <speed>0.0565685424949238</speed>
  <fix>3d</fix>
</trkpt>
<trkpt lat="40.0728579" lon="-105.2306048">
  <ele>1593.04</ele>
  <time>2026-08-27T18:25:49Z</time>
  <course>64.54</course>
  <speed>0.07</speed>
  <fix>3d</fix>
</trkpt>
<trkpt lat="40.0728578" lon="-105.2306047">
  <ele>1593.14</ele>
  <time>2026-08-27T18:25:49Z</time>
  <course>64.78</course>
  <speed>0.05</speed>
  <fix>3d</fix>
</trkpt>
<trkpt lat="40.0728579" lon="-105.2306046">
  <ele>1593.14</ele>
  <time>2026-08-27T18:25:49Z</time>
  <course>64.86</course>
  <speed>0.0412310562561766</speed>
  <fix>3d</fix>
</trkpt>
<trkpt lat="40.0728579" lon="-105.2306047">
  <ele>1593.04</ele>
  <time>2026-08-27T18:25:49Z</time>
  <course>45.63</course>
  <speed>0.07</speed>
  <fix>3d</fix>
</trkpt>
<trkpt lat="40.0728579" lon="-105.2306046">
  <ele>1593.15</ele>
  <time>2026-08-27T18:25:49Z</time>
  <course>64.88</course>
  <speed>0.04</speed>
  <fix>3d</fix>
</trkpt>
<trkpt lat="40.072858" lon="-105.2306046">
  <ele>1593.15</ele>
  <time>2026-08-27T18:25:49Z</time>
  <course>64.95</course>
  <speed>0.0316227766016838</speed>
  <fix>3d</fix>
</trkpt>
<trkpt lat="40.072858" lon="-105.2306046">
  <ele>1593.05</ele>
  <time>2026-08-27T18:25:49Z</time>
  <course>23.76</course>
  <speed>0.05</speed>
  <fix>3d</fix>
</trkpt>
<trkpt lat="40.0728581" lon="-105.2306047">
  <ele>1593.15</ele>
  <time>2026-08-27T18:25:49Z</time>
  <course>65.04</course>
  <speed>0.0316227766016838</speed>
  <fix>3d</fix>
</trkpt>
<trkpt lat="40.0728581" lon="-105.2306046">
  <ele>1593.05</ele>
  <time>2026-08-27T18:25:49Z</time>
  <course>355.9</course>
  <speed>0.04</speed>
  <fix>3d</fix>
</trkpt>
<trkpt lat="40.0728581" lon="-105.2306047">
  <ele>1593.14</ele>
  <time>2026-08-27T18:25:49Z</time>
  <course>65.36</course>
  <speed>0.03</speed>
  <fix>3d</fix>
</trkpt>
<trkpt lat="40.0728582" lon="-105.2306047">
  <ele>1593.05</ele>
  <time>2026-08-27T18:25:49Z</time>
  <course>321.92</course>
  <speed>0.03</speed>
  <fix>3d</fix>
</trkpt>
<trkpt lat="40.0728581" lon="-105.2306047">
  <ele>1593.1</ele>
  <time>2026-08-27T18:25:49Z</time>
  <course>65.8</course>
  <speed>0.0316227766016838</speed>
  <fix>3d</fix>
</trkpt>
<trkpt lat="40.0728582" lon="-105.2306047">
  <ele>1593.04</ele>
  <time>2026-08-27T18:25:49Z</time>
  <course>288.01</course>
  <speed>0.03</speed>
  <fix>3d</fix>
</trkpt>
<trkpt lat="40.0728581" lon="-105.2306048">
  <ele>1593.03</ele>
  <time>2026-08-27T18:25:50Z</time>
  <course>66.02</course>
  <speed>0.03605551275463989</speed>
  <fix>3d</fix>
</trkpt>
<trkpt lat="40.0728582" lon="-105.2306048">
  <ele>1593.0</ele>
  <time>2026-08-27T18:25:50Z</time>
  <course>253.57</course>
  <speed>0.02</speed>
  <fix>3d</fix>
</trkpt>
<trkpt lat="40.072858" lon="-105.2306048">
  <ele>1592.93</ele>
  <time>2026-08-27T18:25:50Z</time>
  <course>66.05</course>
  <speed>0.0412310562561766</speed>
  <fix>3d</fix>
</trkpt>
<trkpt lat="40.0728582" lon="-105.2306048">
  <ele>1592.94</ele>
  <time>2026-08-27T18:25:50Z</time>
  <course>218.47</course>
  <speed>0.03</speed>
  <fix>3d</fix>
</trkpt>
<trkpt lat="40.072858" lon="-105.2306048">
  <ele>1592.91</ele>
  <time>2026-08-27T18:25:50Z</time>
  <course>66.06</course>
  <speed>0.0412310562561766</speed>
  <fix>3d</fix>
</trkpt>
<trkpt lat="40.072858" lon="-105.2306048">
  <ele>1592.82</ele>
  <time>2026-08-27T18:25:50Z</time>
  <course>66.08</course>
  <speed>0.04</speed>
  <fix>3d</fix>
</trkpt>
<trkpt lat="40.0728582" lon="-105.2306048">
  <ele>1592.84</ele>
  <time>2026-08-27T18:25:50Z</time>
  <course>195.58</course>
  <speed>0.03</speed>
  <fix>3d</fix>
</trkpt>
<trkpt lat="40.072858" lon="-105.2306048">
  <ele>1592.71</ele>
  <time>2026-08-27T18:25:50Z</time>
  <course>66.06</course>
  <speed>0.04</speed>
  <fix>3d</fix>
</trkpt>
<trkpt lat="40.0728582" lon="-105.2306048">
  <ele>1592.73</ele>
  <time>2026-08-27T18:25:50Z</time>
  <course>183.32</course>
  <speed>0.03</speed>
  <fix>3d</fix>
</trkpt>
<trkpt lat="40.0728579" lon="-105.2306048">
  <ele>1592.6</ele>
  <time>2026-08-27T18:25:50Z</time>
  <course>66.07</course>
  <speed>0.04</speed>
  <fix>3d</fix>
</trkpt>
<trkpt lat="40.0728581" lon="-105.2306048">
  <ele>1592.62</ele>
  <time>2026-08-27T18:25:50Z</time>
  <course>177.09</course>
  <speed>0.04</speed>
  <fix>3d</fix>
</trkpt>
<trkpt lat="40.0728579" lon="-105.2306048">
  <ele>1592.48</ele>
  <time>2026-08-27T18:25:50Z</time>
  <course>66.05</course>
  <speed>0.03</speed>
  <fix>3d</fix>
</trkpt>
<trkpt lat="40.072858" lon="-105.2306048">
  <ele>1592.51</ele>
  <time>2026-08-27T18:25:50Z</time>
  <course>174.77</course>
  <speed>0.03</speed>
  <fix>3d</fix>
</trkpt>
<trkpt lat="40.0728578" lon="-105.2306048">
  <ele>1592.37</ele>
  <time>2026-08-27T18:25:50Z</time>
  <course>66.07</course>
  <speed>0.03</speed>
  <fix>3d</fix>
</trkpt>
<trkpt lat="40.0728579" lon="-105.2306048">
  <ele>1592.39</ele>
  <time>2026-08-27T18:25:50Z</time>
  <course>174.52</course>
  <speed>0.03</speed>
  <fix>3d</fix>
</trkpt>
<trkpt lat="40.0728578" lon="-105.2306048">
  <ele>1592.27</ele>
  <time>2026-08-27T18:25:50Z</time>
  <course>66.08</course>
  <speed>0.02</speed>
  <fix>3d</fix>
</trkpt>
<trkpt lat="40.0728579" lon="-105.2306048">
  <ele>1592.28</ele>
  <time>2026-08-27T18:25:50Z</time>
  <course>175.01</course>
  <speed>0.02</speed>
  <fix>3d</fix>
</trkpt>
<trkpt lat="40.0728578" lon="-105.2306048">
  <ele>1592.16</ele>
  <time>2026-08-27T18:25:50Z</time>
  <course>66.12</course>
  <speed>0.02</speed>
  <fix>3d</fix>
</trkpt>
<trkpt lat="40.0728578" lon="-105.2306048">
  <ele>1592.17</ele>
  <time>2026-08-27T18:25:50Z</time>
  <course>175.09</course>
  <speed>0.02</speed>
  <fix>3d</fix>
</trkpt>
<trkpt lat="40.0728577" lon="-105.2306048">
  <ele>1592.06</ele>
  <time>2026-08-27T18:25:50Z</time>
  <course>66.15</course>
  <speed>0.01</speed>
  <fix>3d</fix>
</trkpt>
<trkpt lat="40.0728578" lon="-105.2306048">
  <ele>1592.07</ele>
  <time>2026-08-27T18:25:50Z</time>
  <course>174.9</course>
  <speed>0.01</speed>
  <fix>3d</fix>
</trkpt>
<trkpt lat="40.0728577" lon="-105.2306048">
  <ele>1591.96</ele>
  <time>2026-08-27T18:25:50Z</time>
  <course>66.18</course>
  <speed>0.0</speed>
  <fix>3d</fix>
</trkpt>
<trkpt lat="40.0728578" lon="-105.2306048">
  <ele>1591.97</ele>
  <time>2026-08-27T18:25:50Z</time>
  <course>172.64</course>
  <speed>0.01</speed>
  <fix>3d</fix>
</trkpt>
<trkpt lat="40.0728578" lon="-105.2306048">
  <ele>1591.85</ele>
  <time>2026-08-27T18:25:50Z</time>
  <course>66.24</course>
  <speed>0.0</speed>
  <fix>3d</fix>
</trkpt>
<trkpt lat="40.0728578" lon="-105.2306048">
  <ele>1591.87</ele>
  <time>2026-08-27T18:25:50Z</time>
  <course>162.09</course>
  <speed>0.0</speed>
  <fix>3d</fix>
</trkpt>
<trkpt lat="40.0728578" lon="-105.2306048">
  <ele>1591.75</ele>
  <time>2026-08-27T18:25:50Z</time>
  <course>66.23</course>
  <speed>0.0</speed>
  <fix>3d</fix>
</trkpt>
<trkpt lat="40.0728578" lon="-105.2306048">
  <ele>1591.76</ele>
  <time>2026-08-27T18:25:50Z</time>
  <course>19.07</course>
  <speed>0.0</speed>
  <fix>3d</fix>
</trkpt>
<trkpt lat="40.0728578" lon="-105.2306048">
  <ele>1591.65</ele>
  <time>2026-08-27T18:25:50Z</time>
  <course>66.24</course>
  <speed>0.01</speed>
  <fix>3d</fix>
</trkpt>
<trkpt lat="40.0728578" lon="-105.2306048">
  <ele>1591.65</ele>
  <time>2026-08-27T18:25:50Z</time>
  <course>4.87</course>
  <speed>0.0</speed>
  <fix>3d</fix>
</trkpt>
<trkpt lat="40.0728578" lon="-105.2306048">
  <ele>1591.55</ele>
  <time>2026-08-27T18:25:50Z</time>
  <course>66.29</course>
  <speed>0.01</speed>
  <fix>3d</fix>
</trkpt>
<trkpt lat="40.0728578" lon="-105.2306048">
  <ele>1591.56</ele>
  <time>2026-08-27T18:25:50Z</time>
  <course>1.77</course>
  <speed>0.01</speed>
  <fix>3d</fix>
</trkpt>
<trkpt lat="40.0728578" lon="-105.2306048">
  <ele>1591.45</ele>
  <time>2026-08-27T18:25:50Z</time>
  <course>66.34</course>
  <speed>0.01</speed>
  <fix>3d</fix>
</trkpt>
<trkpt lat="40.0728578" lon="-105.2306048">
  <ele>1591.46</ele>
  <time>2026-08-27T18:25:50Z</time>
  <course>1.68</course>
  <speed>0.01</speed>
  <fix>3d</fix>
</trkpt>
<trkpt lat="40.0728578" lon="-105.2306048">
  <ele>1591.35</ele>
  <time>2026-08-27T18:25:50Z</time>
  <course>66.4</course>
  <speed>0.02</speed>
  <fix>3d</fix>
</trkpt>
<trkpt lat="40.0728578" lon="-105.2306048">
  <ele>1591.37</ele>
  <time>2026-08-27T18:25:50Z</time>
  <course>1.76</course>
  <speed>0.02</speed>
  <fix>3d</fix>
</trkpt>
<trkpt lat="40.0728578" lon="-105.2306048">
  <ele>1591.26</ele>
  <time>2026-08-27T18:25:50Z</time>
  <course>66.42</course>
  <speed>0.02</speed>
  <fix>3d</fix>
</trkpt>
<trkpt lat="40.0728578" lon="-105.2306048">
  <ele>1591.27</ele>
  <time>2026-08-27T18:25:50Z</time>
  <course>1.5</course>
  <speed>0.02</speed>
  <fix>3d</fix>
</trkpt>
<trkpt lat="40.0728579" lon="-105.2306048">
  <ele>1591.16</ele>
  <time>2026-08-27T18:25:50Z</time>
  <course>66.47</course>
  <speed>0.02</speed>
  <fix>3d</fix>
</trkpt>
<trkpt lat="40.0728578" lon="-105.2306048">
  <ele>1591.16</ele>
  <time>2026-08-27T18:25:50Z</time>
  <course>1.66</course>
  <speed>0.02</speed>
  <fix>3d</fix>
</trkpt>
<trkpt lat="40.0728579" lon="-105.2306048">
  <ele>1591.06</ele>
  <time>2026-08-27T18:25:50Z</time>
  <course>66.48</course>
  <speed>0.02</speed>
  <fix>3d</fix>
</trkpt>
<trkpt lat="40.0728578" lon="-105.2306048">
  <ele>1591.07</ele>
  <time>2026-08-27T18:25:50Z</time>
  <course>2.15</course>
  <speed>0.02</speed>
  <fix>3d</fix>
</trkpt>
<trkpt lat="40.072858" lon="-105.2306048">
  <ele>1590.95</ele>
  <time>2026-08-27T18:25:50Z</time>
  <course>66.5</course>
  <speed>0.02</speed>
  <fix>3d</fix>
</trkpt>
<trkpt lat="40.0728579" lon="-105.2306048">
  <ele>1590.97</ele>
  <time>2026-08-27T18:25:50Z</time>
  <course>2.53</course>
  <speed>0.02</speed>
  <fix>3d</fix>
</trkpt>
<trkpt lat="40.072858" lon="-105.2306048">
  <ele>1590.85</ele>
  <time>2026-08-27T18:25:50Z</time>
  <course>66.53</course>
  <speed>0.02</speed>
  <fix>3d</fix>
</trkpt>
<trkpt lat="40.0728579" lon="-105.2306048">
  <ele>1590.87</ele>
  <time>2026-08-27T18:25:50Z</time>
  <course>2.76</course>
  <speed>0.02</speed>
  <fix>3d</fix>
</trkpt>
<trkpt lat="40.072858" lon="-105.2306048">
  <ele>1590.75</ele>
  <time>2026-08-27T18:25:50Z</time>
  <course>66.58</course>
  <speed>0.02</speed>
  <fix>3d</fix>
</trkpt>
<trkpt lat="40.072858" lon="-105.2306048">
  <ele>1590.77</ele>
  <time>2026-08-27T18:25:50Z</time>
  <course>2.88</course>
  <speed>0.02</speed>
  <fix>3d</fix>
</trkpt>
<trkpt lat="40.0728581" lon="-105.2306048">
  <ele>1590.65</ele>
  <time>2026-08-27T18:25:50Z</time>
  <course>66.6</course>
  <speed>0.02</speed>
  <fix>3d</fix>
</trkpt>
<trkpt lat="40.0728581" lon="-105.2306048">
  <ele>1590.66</ele>
  <time>2026-08-27T18:25:50Z</time>
  <course>2.81</course>
  <speed>0.02</speed>
  <fix>3d</fix>
</trkpt>
<trkpt lat="40.0728581" lon="-105.2306048">
  <ele>1590.55</ele>
  <time>2026-08-27T18:25:50Z</time>
  <course>66.64</course>
  <speed>0.01</speed>
  <fix>3d</fix>
</trkpt>
<trkpt lat="40.0728581" lon="-105.2306048">
  <ele>1590.57</ele>
  <time>2026-08-27T18:25:50Z</time>
  <course>2.97</course>
  <speed>0.02</speed>
  <fix>3d</fix>
</trkpt>
<trkpt lat="40.0728581" lon="-105.2306048">
  <ele>1590.45</ele>
  <time>2026-08-27T18:25:50Z</time>
  <course>66.65</course>
  <speed>0.01</speed>
  <fix>3d</fix>
</trkpt>
<trkpt lat="40.0728582" lon="-105.2306048">
  <ele>1590.47</ele>
  <time>2026-08-27T18:25:50Z</time>
  <course>3.0</course>
  <speed>0.02</speed>
  <fix>3d</fix>
</trkpt>
<trkpt lat="40.0728582" lon="-105.2306048">
  <ele>1590.35</ele>
  <time>2026-08-27T18:25:50Z</time>
  <course>66.66</course>
  <speed>0.01</speed>
  <fix>3d</fix>
</trkpt>
<trkpt lat="40.0728582" lon="-105.2306048">
  <ele>1590.37</ele>
  <time>2026-08-27T18:25:50Z</time>
  <course>3.16</course>
  <speed>0.02</speed>
  <fix>3d</fix>
</trkpt>
<trkpt lat="40.0728582" lon="-105.2306048">
  <ele>1590.25</ele>
  <time>2026-08-27T18:25:50Z</time>
  <course>66.71</course>
  <speed>0.01</speed>
  <fix>3d</fix>
</trkpt>
<trkpt lat="40.0728583" lon="-105.2306048">
  <ele>1590.27</ele>
  <time>2026-08-27T18:25:50Z</time>
  <course>3.33</course>
  <speed>0.01</speed>
  <fix>3d</fix>
</trkpt>
<trkpt lat="40.0728582" lon="-105.2306048">
  <ele>1590.15</ele>
  <time>2026-08-27T18:25:50Z</time>
  <course>66.74</course>
  <speed>0.0</speed>
  <fix>3d</fix>
</trkpt>
<trkpt lat="40.0728583" lon="-105.2306048">
  <ele>1590.17</ele>
  <time>2026-08-27T18:25:50Z</time>
  <course>3.24</course>
  <speed>0.01</speed>
  <fix>3d</fix>
</trkpt>
<trkpt lat="40.0728583" lon="-105.2306048">
  <ele>1590.05</ele>
  <time>2026-08-27T18:25:50Z</time>
  <course>66.73</course>
  <speed>0.0</speed>
  <fix>3d</fix>
</trkpt>
<trkpt lat="40.0728583" lon="-105.2306048">
  <ele>1590.08</ele>
  <time>2026-08-27T18:25:50Z</time>
  <course>3.52</course>
  <speed>0.01</speed>
  <fix>3d</fix>
</trkpt>
<trkpt lat="40.0728583" lon="-105.2306048">
  <ele>1589.95</ele>
  <time>2026-08-27T18:25:50Z</time>
  <course>66.76</course>
  <speed>0.0</speed>
  <fix>3d</fix>
</trkpt>
<trkpt lat="40.0728583" lon="-105.2306048">
  <ele>1589.98</ele>
  <time>2026-08-27T18:25:50Z</time>
  <course>3.53</course>
  <speed>0.0</speed>
  <fix>3d</fix>
</trkpt>
<trkpt lat="40.0728583" lon="-105.2306048">
  <ele>1589.85</ele>
  <time>2026-08-27T18:25:50Z</time>
  <course>66.82</course>
  <speed>0.0</speed>
  <fix>3d</fix>
</trkpt>
<trkpt lat="40.0728584" lon="-105.2306048">
  <ele>1589.88</ele>
  <time>2026-08-27T18:25:50Z</time>
  <course>3.24</course>
  <speed>0.0</speed>
  <fix>3d</fix>
</trkpt>
<trkpt lat="40.0728583" lon="-105.2306048">
  <ele>1589.76</ele>
  <time>2026-08-27T18:25:50Z</time>
  <course>66.83</course>
  <speed>0.0</speed>
  <fix>3d</fix>
</trkpt>
<trkpt lat="40.0728584" lon="-105.2306048">
  <ele>1589.78</ele>
  <time>2026-08-27T18:25:50Z</time>
  <course>6.23</course>
  <speed>0.0</speed>
  <fix>3d</fix>
</trkpt>
<trkpt lat="40.0728583" lon="-105.2306048">
  <ele>1589.66</ele>
  <time>2026-08-27T18:25:50Z</time>
  <course>66.86</course>
  <speed>0.0</speed>
  <fix>3d</fix>
</trkpt>
<trkpt lat="40.0728584" lon="-105.2306048">
  <ele>1589.67</ele>
  <time>2026-08-27T18:25:50Z</time>
  <course>27.0</course>
  <speed>0.0</speed>
  <fix>3d</fix>
</trkpt>
<trkpt lat="40.0728583" lon="-105.2306048">
  <ele>1589.56</ele>
  <time>2026-08-27T18:25:50Z</time>
  <course>66.89</course>
  <speed>0.0</speed>
  <fix>3d</fix>
</trkpt>
<trkpt lat="40.0728584" lon="-105.2306048">
  <ele>1589.58</ele>
  <time>2026-08-27T18:25:50Z</time>
  <course>170.81</course>
  <speed>0.0</speed>
  <fix>3d</fix>
</trkpt>
<trkpt lat="40.0728583" lon="-105.2306048">
  <ele>1589.46</ele>
  <time>2026-08-27T18:25:50Z</time>
  <course>66.91</course>
  <speed>0.0</speed>
  <fix>3d</fix>
</trkpt>
<trkpt lat="40.0728584" lon="-105.2306048">
  <ele>1589.48</ele>
  <time>2026-08-27T18:25:50Z</time>
  <course>177.42</course>
  <speed>0.0</speed>
  <fix>3d</fix>
</trkpt>
<trkpt lat="40.0728583" lon="-105.2306048">
  <ele>1589.36</ele>
  <time>2026-08-27T18:25:50Z</time>
  <course>66.91</course>
  <speed>0.0</speed>
  <fix>3d</fix>
</trkpt>
<trkpt lat="40.0728584" lon="-105.2306048">
  <ele>1589.38</ele>
  <time>2026-08-27T18:25:50Z</time>
  <course>179.1</course>
  <speed>0.0</speed>
  <fix>3d</fix>
</trkpt>
<trkpt lat="40.0728583" lon="-105.2306048">
  <ele>1589.26</ele>
  <time>2026-08-27T18:25:50Z</time>
  <course>66.96</course>
  <speed>0.0</speed>
  <fix>3d</fix>
</trkpt>
<trkpt lat="40.0728584" lon="-105.2306048">
  <ele>1589.28</ele>
  <time>2026-08-27T18:25:50Z</time>
  <course>179.76</course>
  <speed>0.0</speed>
  <fix>3d</fix>
</trkpt>
<trkpt lat="40.0728583" lon="-105.2306048">
  <ele>1589.16</ele>
  <time>2026-08-27T18:25:50Z</time>
  <course>66.97</course>
  <speed>0.0</speed>
  <fix>3d</fix>
</trkpt>
<trkpt lat="40.0728584" lon="-105.2306048">
  <ele>1589.17</ele>
  <time>2026-08-27T18:25:50Z</time>
  <course>180.42</course>
  <speed>0.01</speed>
  <fix>3d</fix>
</trkpt>
<trkpt lat="40.0728583" lon="-105.2306048">
  <ele>1589.05</ele>
  <time>2026-08-27T18:25:50Z</time>
  <course>66.98</course>
  <speed>0.01</speed>
  <fix>3d</fix>
</trkpt>
<trkpt lat="40.0728584" lon="-105.2306048">
  <ele>1589.08</ele>
  <time>2026-08-27T18:25:50Z</time>
  <course>180.93</course>
  <speed>0.01</speed>
  <fix>3d</fix>
</trkpt>
<trkpt lat="40.0728583" lon="-105.2306048">
  <ele>1588.95</ele>
  <time>2026-08-27T18:25:50Z</time>
  <course>66.98</course>
  <speed>0.01</speed>
  <fix>3d</fix>
</trkpt>
<trkpt lat="40.0728584" lon="-105.2306048">
  <ele>1588.98</ele>
  <time>2026-08-27T18:25:50Z</time>
  <course>181.79</course>
  <speed>0.01</speed>
  <fix>3d</fix>
</trkpt>
<trkpt lat="40.0728583" lon="-105.2306048">
  <ele>1588.85</ele>
  <time>2026-08-27T18:25:50Z</time>
  <course>67.0</course>
  <speed>0.01</speed>
  <fix>3d</fix>
</trkpt>
<trkpt lat="40.0728584" lon="-105.2306048">
  <ele>1588.88</ele>
  <time>2026-08-27T18:25:50Z</time>
  <course>181.73</course>
  <speed>0.01</speed>
  <fix>3d</fix>
</trkpt>
<trkpt lat="40.0728583" lon="-105.2306048">
  <ele>1588.75</ele>
  <time>2026-08-27T18:25:50Z</time>
  <course>67.02</course>
  <speed>0.01</speed>
  <fix>3d</fix>
</trkpt>
<trkpt lat="40.0728583" lon="-105.2306048">
  <ele>1588.78</ele>
  <time>2026-08-27T18:25:50Z</time>
  <course>181.81</course>
  <speed>0.01</speed>
  <fix>3d</fix>
</trkpt>
<trkpt lat="40.0728583" lon="-105.2306048">
  <ele>1588.65</ele>
  <time>2026-08-27T18:25:50Z</time>
  <course>67.06</course>
  <speed>0.0</speed>
  <fix>3d</fix>
</trkpt>
<trkpt lat="40.0728583" lon="-105.2306048">
  <ele>1588.67</ele>
  <time>2026-08-27T18:25:50Z</time>
  <course>183.48</course>
  <speed>0.01</speed>
  <fix>3d</fix>
</trkpt>
<trkpt lat="40.0728583" lon="-105.2306048">
  <ele>1588.55</ele>
  <time>2026-08-27T18:25:50Z</time>
  <course>67.06</course>
  <speed>0.0</speed>
  <fix>3d</fix>
</trkpt>
<trkpt lat="40.0728583" lon="-105.2306048">
  <ele>1588.58</ele>
  <time>2026-08-27T18:25:50Z</time>
  <course>185.25</course>
  <speed>0.01</speed>
  <fix>3d</fix>
</trkpt>
<trkpt lat="40.0728583" lon="-105.2306048">
  <ele>1588.45</ele>
  <time>2026-08-27T18:25:50Z</time>
  <course>67.07</course>
  <speed>0.0</speed>
  <fix>3d</fix>
</trkpt>
<trkpt lat="40.0728582" lon="-105.2306048">
  <ele>1588.49</ele>
  <time>2026-08-27T18:25:50Z</time>
  <course>186.69</course>
  <speed>0.01</speed>
  <fix>3d</fix>
</trkpt>
<trkpt lat="40.0728582" lon="-105.2306048">
  <ele>1588.35</ele>
  <time>2026-08-27T18:25:50Z</time>
  <course>67.12</course>
  <speed>0.0</speed>
  <fix>3d</fix>
</trkpt>
<trkpt lat="40.0728582" lon="-105.2306048">
  <ele>1588.38</ele>
  <time>2026-08-27T18:25:50Z</time>
  <course>188.23</course>
  <speed>0.01</speed>
  <fix>3d</fix>
</trkpt>
<trkpt lat="40.0728582" lon="-105.2306048">
  <ele>1588.25</ele>
  <time>2026-08-27T18:25:50Z</time>
  <course>67.12</course>
  <speed>0.0</speed>
  <fix>3d</fix>
</trkpt>
<trkpt lat="40.0728582" lon="-105.2306048">
  <ele>1588.29</ele>
  <time>2026-08-27T18:25:50Z</time>
  <course>189.56</course>
  <speed>0.01</speed>
  <fix>3d</fix>
</trkpt>
<trkpt lat="40.0728582" lon="-105.2306048">
  <ele>1588.15</ele>
  <time>2026-08-27T18:25:50Z</time>
  <course>67.12</course>
  <speed>0.0</speed>
  <fix>3d</fix>
</trkpt>
<trkpt lat="40.0728582" lon="-105.2306048">
  <ele>1588.19</ele>
  <time>2026-08-27T18:25:50Z</time>
  <course>191.04</course>
  <speed>0.01</speed>
  <fix>3d</fix>
</trkpt>
<trkpt lat="40.0728582" lon="-105.2306048">
  <ele>1588.05</ele>
  <time>2026-08-27T18:25:50Z</time>
  <course>67.16</course>
  <speed>0.0</speed>
  <fix>3d</fix>
</trkpt>
<trkpt lat="40.0728581" lon="-105.2306048">
  <ele>1588.09</ele>
  <time>2026-08-27T18:25:50Z</time>
  <course>193.75</course>
  <speed>0.01</speed>
  <fix>3d</fix>
</trkpt>
<trkpt lat="40.0728582" lon="-105.2306048">
  <ele>1587.95</ele>
  <time>2026-08-27T18:25:50Z</time>
  <course>67.19</course>
  <speed>0.0</speed>
  <fix>3d</fix>
</trkpt>
<trkpt lat="40.0728581" lon="-105.2306048">
  <ele>1587.99</ele>
  <time>2026-08-27T18:25:50Z</time>
  <course>197.42</course>
  <speed>0.01</speed>
  <fix>3d</fix>
</trkpt>
<trkpt lat="40.0728582" lon="-105.2306048">
  <ele>1587.86</ele>
  <time>2026-08-27T18:25:50Z</time>
  <course>67.19</course>
  <speed>0.0</speed>
  <fix>3d</fix>
</trkpt>
<trkpt lat="40.0728581" lon="-105.2306048">
  <ele>1587.89</ele>
  <time>2026-08-27T18:25:50Z</time>
  <course>200.36</course>
  <speed>0.0</speed>
  <fix>3d</fix>
</trkpt>
<trkpt lat="40.0728582" lon="-105.2306048">
  <ele>1587.76</ele>
  <time>2026-08-27T18:25:50Z</time>
  <course>67.21</course>
  <speed>0.0</speed>
  <fix>3d</fix>
</trkpt>
<trkpt lat="40.0728581" lon="-105.2306048">
  <ele>1587.8</ele>
  <time>2026-08-27T18:25:50Z</time>
  <course>204.42</course>
  <speed>0.0</speed>
  <fix>3d</fix>
</trkpt>
<trkpt lat="40.0728581" lon="-105.2306048">
  <ele>1587.66</ele>
  <time>2026-08-27T18:25:50Z</time>
  <course>67.24</course>
  <speed>0.0</speed>
  <fix>3d</fix>
</trkpt>
<trkpt lat="40.0728581" lon="-105.2306048">
  <ele>1587.7</ele>
  <time>2026-08-27T18:25:50Z</time>
  <course>209.95</course>
  <speed>0.0</speed>
  <fix>3d</fix>
</trkpt>
<trkpt lat="40.0728581" lon="-105.2306048">
  <ele>1587.55</ele>
  <time>2026-08-27T18:25:50Z</time>
  <course>67.25</course>
  <speed>0.0</speed>
  <fix>3d</fix>
</trkpt>
<trkpt lat="40.0728581" lon="-105.2306048">
  <ele>1587.6</ele>
  <time>2026-08-27T18:25:50Z</time>
  <course>214.11</course>
  <speed>0.0</speed>
  <fix>3d</fix>
</trkpt>
<trkpt lat="40.0728581" lon="-105.2306048">
  <ele>1587.45</ele>
  <time>2026-08-27T18:25:50Z</time>
  <course>67.26</course>
  <speed>0.0</speed>
  <fix>3d</fix>
</trkpt>
<trkpt lat="40.0728581" lon="-105.2306048">
  <ele>1587.5</ele>
  <time>2026-08-27T18:25:50Z</time>
  <course>220.73</course>
  <speed>0.0</speed>
  <fix>3d</fix>
</trkpt>
<trkpt lat="40.0728581" lon="-105.2306048">
  <ele>1587.35</ele>
  <time>2026-08-27T18:25:50Z</time>
  <course>67.29</course>
  <speed>0.0</speed>
  <fix>3d</fix>
</trkpt>
<trkpt lat="40.0728581" lon="-105.2306048">
  <ele>1587.39</ele>
  <time>2026-08-27T18:25:50Z</time>
  <course>229.15</course>
  <speed>0.0</speed>
  <fix>3d</fix>
</trkpt>
<trkpt lat="40.0728581" lon="-105.2306048">
  <ele>1587.25</ele>
  <time>2026-08-27T18:25:50Z</time>
  <course>67.28</course>
  <speed>0.0</speed>
  <fix>3d</fix>
</trkpt>
<trkpt lat="40.0728581" lon="-105.2306048">
  <ele>1587.3</ele>
  <time>2026-08-27T18:25:50Z</time>
  <course>235.29</course>
  <speed>0.0</speed>
  <fix>3d</fix>
</trkpt>
<trkpt lat="40.0728581" lon="-105.2306048">
  <ele>1587.15</ele>
  <time>2026-08-27T18:25:50Z</time>
  <course>67.31</course>
  <speed>0.0</speed>
  <fix>3d</fix>
</trkpt>
<trkpt lat="40.0728581" lon="-105.2306048">
  <ele>1587.2</ele>
  <time>2026-08-27T18:25:50Z</time>
  <course>247.18</course>
  <speed>0.0</speed>
  <fix>3d</fix>
</trkpt>
<trkpt lat="40.0728581" lon="-105.2306048">
  <ele>1587.05</ele>
  <time>2026-08-27T18:25:50Z</time>
  <course>67.29</course>
  <speed>0.0</speed>
  <fix>3d</fix>
</trkpt>
<trkpt lat="40.0728581" lon="-105.2306048">
  <ele>1587.1</ele>
  <time>2026-08-27T18:25:50Z</time>
  <course>260.37</course>
  <speed>0.0</speed>
  <fix>3d</fix>
</trkpt>
<trkpt lat="40.0728581" lon="-105.2306048">
  <ele>1586.95</ele>
  <time>2026-08-27T18:25:50Z</time>
  <course>67.3</course>
  <speed>0.0</speed>
  <fix>3d</fix>
</trkpt>
<trkpt lat="40.0728581" lon="-105.2306048">
  <ele>1587.0</ele>
  <time>2026-08-27T18:25:50Z</time>
  <course>265.93</course>
  <speed>0.0</speed>
  <fix>3d</fix>
</trkpt>
<trkpt lat="40.0728581" lon="-105.2306048">
  <ele>1586.85</ele>
  <time>2026-08-27T18:25:50Z</time>
  <course>67.35</course>
  <speed>0.0</speed>
  <fix>3d</fix>
</trkpt>
<trkpt lat="40.0728581" lon="-105.2306048">
  <ele>1586.89</ele>
  <time>2026-08-27T18:25:50Z</time>
  <course>271.17</course>
  <speed>0.0</speed>
  <fix>3d</fix>
</trkpt>
<trkpt lat="40.0728581" lon="-105.2306048">
  <ele>1586.75</ele>
  <time>2026-08-27T18:25:50Z</time>
  <course>67.34</course>
  <speed>0.0</speed>
  <fix>3d</fix>
</trkpt>
<trkpt lat="40.0728581" lon="-105.2306048">
  <ele>1586.8</ele>
  <time>2026-08-27T18:25:50Z</time>
  <course>272.11</course>
  <speed>0.0</speed>
  <fix>3d</fix>
</trkpt>
<trkpt lat="40.0728581" lon="-105.2306048">
  <ele>1586.65</ele>
  <time>2026-08-27T18:25:50Z</time>
  <course>67.35</course>
  <speed>0.0</speed>
  <fix>3d</fix>
</trkpt>
<trkpt lat="40.0728581" lon="-105.2306048">
  <ele>1586.7</ele>
  <time>2026-08-27T18:25:50Z</time>
  <course>269.13</course>
  <speed>0.0</speed>
  <fix>3d</fix>
</trkpt>
<trkpt lat="40.0728581" lon="-105.2306048">
  <ele>1586.55</ele>
  <time>2026-08-27T18:25:50Z</time>
  <course>67.37</course>
  <speed>0.0</speed>
  <fix>3d</fix>
</trkpt>
<trkpt lat="40.0728581" lon="-105.2306048">
  <ele>1586.61</ele>
  <time>2026-08-27T18:25:50Z</time>
  <course>270.18</course>
  <speed>0.0</speed>
  <fix>3d</fix>
</trkpt>
<trkpt lat="40.0728581" lon="-105.2306048">
  <ele>1586.45</ele>
  <time>2026-08-27T18:25:50Z</time>
  <course>67.38</course>
  <speed>0.0</speed>
  <fix>3d</fix>
</trkpt>
<trkpt lat="40.0728581" lon="-105.2306048">
  <ele>1586.51</ele>
  <time>2026-08-27T18:25:50Z</time>
  <course>272.22</course>
  <speed>0.0</speed>
  <fix>3d</fix>
</trkpt>
<trkpt lat="40.0728581" lon="-105.2306048">
  <ele>1586.35</ele>
  <time>2026-08-27T18:25:50Z</time>
  <course>67.38</course>
  <speed>0.0</speed>
  <fix>3d</fix>
</trkpt>
<trkpt lat="40.0728581" lon="-105.2306048">
  <ele>1586.4</ele>
  <time>2026-08-27T18:25:50Z</time>
  <course>269.44</course>
  <speed>0.0</speed>
  <fix>3d</fix>
</trkpt>
<trkpt lat="40.0728581" lon="-105.2306048">
  <ele>1586.25</ele>
  <time>2026-08-27T18:25:50Z</time>
  <course>67.41</course>
  <speed>0.0</speed>
  <fix>3d</fix>
</trkpt>
<trkpt lat="40.0728581" lon="-105.2306048">
  <ele>1586.31</ele>
  <time>2026-08-27T18:25:50Z</time>
  <course>267.52</course>
  <speed>0.0</speed>
  <fix>3d</fix>
</trkpt>
<trkpt lat="40.0728581" lon="-105.2306048">
  <ele>1586.15</ele>
  <time>2026-08-27T18:25:50Z</time>
  <course>67.41</course>
  <speed>0.0</speed>
  <fix>3d</fix>
</trkpt>
<trkpt lat="40.0728581" lon="-105.2306048">
  <ele>1586.21</ele>
  <time>2026-08-27T18:25:50Z</time>
  <course>264.59</course>
  <speed>0.0</speed>
  <fix>3d</fix>
</trkpt>
<trkpt lat="40.0728581" lon="-105.2306048">
  <ele>1586.06</ele>
  <time>2026-08-27T18:25:50Z</time>
  <course>67.44</course>
  <speed>0.02</speed>
  <fix>3d</fix>
</trkpt>
<trkpt lat="40.0728581" lon="-105.2306048">
  <ele>1586.11</ele>
  <time>2026-08-27T18:25:50Z</time>
  <course>259.95</course>
  <speed>0.0</speed>
  <fix>3d</fix>
</trkpt>
<trkpt lat="40.0728581" lon="-105.2306048">
  <ele>1586.06</ele>
  <time>2026-08-27T18:25:50Z</time>
  <course>67.43</course>
  <speed>0.01414213562373095</speed>
  <fix>3d</fix>
</trkpt>
<trkpt lat="40.0728581" lon="-105.2306048">
  <ele>1586.03</ele>
  <time>2026-08-27T18:25:50Z</time>
  <course>325.86</course>
  <speed>0.01</speed>
  <fix>3d</fix>
</trkpt>
<trkpt lat="40.0728581" lon="-105.2306048">
  <ele>1586.08</ele>
  <time>2026-08-27T18:25:50Z</time>
  <course>67.43</course>
  <speed>0.01</speed>
  <fix>3d</fix>
</trkpt>
<trkpt lat="40.0728581" lon="-105.2306049">
  <ele>1586.01</ele>
  <time>2026-08-27T18:25:50Z</time>
  <course>342.67</course>
  <speed>0.01</speed>
  <fix>3d</fix>
</trkpt>
<trkpt lat="40.0728581" lon="-105.2306048">
  <ele>1586.08</ele>
  <time>2026-08-27T18:25:51Z</time>
  <course>67.47</course>
  <speed>0.01</speed>
  <fix>3d</fix>
</trkpt>
<trkpt lat="40.0728581" lon="-105.2306049">
  <ele>1586.02</ele>
  <time>2026-08-27T18:25:51Z</time>
  <course>89.91</course>
  <speed>0.0</speed>
  <fix>3d</fix>
</trkpt>
<trkpt lat="40.0728581" lon="-105.2306048">
  <ele>1586.08</ele>
  <time>2026-08-27T18:25:51Z</time>
  <course>67.52</course>
  <speed>0.01</speed>
  <fix>3d</fix>
</trkpt>
<trkpt lat="40.0728581" lon="-105.2306048">
  <ele>1586.02</ele>
  <time>2026-08-27T18:25:51Z</time>
  <course>155.25</course>
  <speed>0.0</speed>
  <fix>3d</fix>
</trkpt>
<trkpt lat="40.0728581" lon="-105.2306048">
  <ele>1586.08</ele>
  <time>2026-08-27T18:25:51Z</time>
  <course>67.57</course>
  <speed>0.01</speed>
  <fix>3d</fix>
</trkpt>
<trkpt lat="40.0728581" lon="-105.2306048">
  <ele>1586.02</ele>
  <time>2026-08-27T18:25:51Z</time>
  <course>8.23</course>
  <speed>0.0</speed>
  <fix>3d</fix>
</trkpt>
<trkpt lat="40.0728581" lon="-105.2306048">
  <ele>1586.09</ele>
  <time>2026-08-27T18:25:51Z</time>
  <course>67.6</course>
  <speed>0.01</speed>
  <fix>3d</fix>
</trkpt>
<trkpt lat="40.0728581" lon="-105.2306048">
  <ele>1586.02</ele>
  <time>2026-08-27T18:25:51Z</time>
  <course>48.43</course>
  <speed>0.0</speed>
  <fix>3d</fix>
</trkpt>
<trkpt lat="40.0728581" lon="-105.2306048">
  <ele>1586.09</ele>
  <time>2026-08-27T18:25:51Z</time>
  <course>67.64</course>
  <speed>0.01</speed>
  <fix>3d</fix>
</trkpt>
<trkpt lat="40.0728581" lon="-105.2306048">
  <ele>1586.02</ele>
  <time>2026-08-27T18:25:51Z</time>
  <course>92.89</course>
  <speed>0.0</speed>
  <fix>3d</fix>
</trkpt>
<trkpt lat="40.0728581" lon="-105.2306048">
  <ele>1586.09</ele>
  <time>2026-08-27T18:25:51Z</time>
  <course>67.68</course>
  <speed>0.01</speed>
  <fix>3d</fix>
</trkpt>
<trkpt lat="40.0728581" lon="-105.2306048">
  <ele>1586.02</ele>
  <time>2026-08-27T18:25:51Z</time>
  <course>115.64</course>
  <speed>0.0</speed>
  <fix>3d</fix>
</trkpt>
<trkpt lat="40.0728581" lon="-105.2306048">
  <ele>1586.09</ele>
  <time>2026-08-27T18:25:51Z</time>
  <course>67.71</course>
  <speed>0.01</speed>
  <fix>3d</fix>
</trkpt>
<trkpt lat="40.0728581" lon="-105.2306048">
  <ele>1586.02</ele>
  <time>2026-08-27T18:25:51Z</time>
  <course>71.05</course>
  <speed>0.0</speed>
  <fix>3d</fix>
</trkpt>
<trkpt lat="40.0728581" lon="-105.2306048">
  <ele>1586.09</ele>
  <time>2026-08-27T18:25:51Z</time>
  <course>67.75</course>
  <speed>0.01</speed>
  <fix>3d</fix>
</trkpt>
<trkpt lat="40.0728581" lon="-105.2306048">
  <ele>1586.02</ele>
  <time>2026-08-27T18:25:51Z</time>
  <course>63.98</course>
  <speed>0.0</speed>
  <fix>3d</fix>
</trkpt>
<trkpt lat="40.0728581" lon="-105.2306048">
  <ele>1586.09</ele>
  <time>2026-08-27T18:25:51Z</time>
  <course>67.76</course>
  <speed>0.01</speed>
  <fix>3d</fix>
</trkpt>
<trkpt lat="40.0728581" lon="-105.2306048">
  <ele>1586.02</ele>
  <time>2026-08-27T18:25:51Z</time>
  <course>152.89</course>
  <speed>0.0</speed>
  <fix>3d</fix>
</trkpt>
<trkpt lat="40.0728581" lon="-105.2306048">
  <ele>1586.1</ele>
  <time>2026-08-27T18:25:51Z</time>
  <course>67.76</course>
  <speed>0.0</speed>
  <fix>3d</fix>
</trkpt>
<trkpt lat="40.0728581" lon="-105.2306048">
  <ele>1586.02</ele>
  <time>2026-08-27T18:25:51Z</time>
  <course>158.82</course>
  <speed>0.01</speed>
  <fix>3d</fix>
</trkpt>
<trkpt lat="40.0728581" lon="-105.2306048">
  <ele>1586.1</ele>
  <time>2026-08-27T18:25:51Z</time>
  <course>67.75</course>
  <speed>0.01</speed>
  <fix>3d</fix>
</trkpt>
<trkpt lat="40.0728581" lon="-105.2306048">
  <ele>1586.02</ele>
  <time>2026-08-27T18:25:51Z</time>
  <course>166.3</course>
  <speed>0.0</speed>
  <fix>3d</fix>
</trkpt>
<trkpt lat="40.0728581" lon="-105.2306048">
  <ele>1586.1</ele>
  <time>2026-08-27T18:25:51Z</time>
  <course>67.75</course>
  <speed>0.01</speed>
  <fix>3d</fix>
</trkpt>
<trkpt lat="40.0728581" lon="-105.2306048">
  <ele>1586.02</ele>
  <time>2026-08-27T18:25:51Z</time>
  <course>270.41</course>
  <speed>0.0</speed>
  <fix>3d</fix>
</trkpt>
<trkpt lat="40.0728581" lon="-105.2306048">
  <ele>1586.1</ele>
  <time>2026-08-27T18:25:51Z</time>
  <course>67.76</course>
  <speed>0.01</speed>
  <fix>3d</fix>
</trkpt>
<trkpt lat="40.0728581" lon="-105.2306048">
  <ele>1586.02</ele>
  <time>2026-08-27T18:25:51Z</time>
  <course>308.72</course>
  <speed>0.0</speed>
  <fix>3d</fix>
</trkpt>
<trkpt lat="40.0728581" lon="-105.2306048">
  <ele>1586.1</ele>
  <time>2026-08-27T18:25:51Z</time>
  <course>67.77</course>
  <speed>0.01</speed>
  <fix>3d</fix>
</trkpt>
<trkpt lat="40.0728581" lon="-105.2306048">
  <ele>1586.02</ele>
  <time>2026-08-27T18:25:51Z</time>
  <course>288.57</course>
  <speed>0.0</speed>
  <fix>3d</fix>
</trkpt>
<trkpt lat="40.0728581" lon="-105.2306048">
  <ele>1586.1</ele>
  <time>2026-08-27T18:25:51Z</time>
  <course>67.78</course>
  <speed>0.01</speed>
  <fix>3d</fix>
</trkpt>
<trkpt lat="40.0728581" lon="-105.2306048">
  <ele>1586.02</ele>
  <time>2026-08-27T18:25:51Z</time>
  <course>287.78</course>
  <speed>0.0</speed>
  <fix>3d</fix>
</trkpt>
<trkpt lat="40.0728581" lon="-105.2306048">
  <ele>1586.1</ele>
  <time>2026-08-27T18:25:51Z</time>
  <course>67.78</course>
  <speed>0.01</speed>
  <fix>3d</fix>
</trkpt>
<trkpt lat="40.0728581" lon="-105.2306048">
  <ele>1586.02</ele>
  <time>2026-08-27T18:25:51Z</time>
  <course>272.38</course>
  <speed>0.0</speed>
  <fix>3d</fix>
</trkpt>
<trkpt lat="40.0728581" lon="-105.2306048">
  <ele>1586.1</ele>
  <time>2026-08-27T18:25:51Z</time>
  <course>67.79</course>
  <speed>0.01</speed>
  <fix>3d</fix>
</trkpt>
<trkpt lat="40.0728581" lon="-105.2306048">
  <ele>1586.02</ele>
  <time>2026-08-27T18:25:51Z</time>
  <course>151.86</course>
  <speed>0.0</speed>
  <fix>3d</fix>
</trkpt>
<trkpt lat="40.0728581" lon="-105.2306048">
  <ele>1586.1</ele>
  <time>2026-08-27T18:25:51Z</time>
  <course>67.8</course>
  <speed>0.01</speed>
  <fix>3d</fix>
</trkpt>
<trkpt lat="40.0728581" lon="-105.2306048">
  <ele>1586.02</ele>
  <time>2026-08-27T18:25:51Z</time>
  <course>142.94</course>
  <speed>0.0</speed>
  <fix>3d</fix>
</trkpt>
<trkpt lat="40.0728581" lon="-105.2306048">
  <ele>1586.1</ele>
  <time>2026-08-27T18:25:51Z</time>
  <course>67.81</course>
  <speed>0.01</speed>
  <fix>3d</fix>
</trkpt>
<trkpt lat="40.0728581" lon="-105.2306048">
  <ele>1586.02</ele>
  <time>2026-08-27T18:25:51Z</time>
  <course>314.53</course>
  <speed>0.0</speed>
  <fix>3d</fix>
</trkpt>
<trkpt lat="40.0728581" lon="-105.2306048">
  <ele>1586.1</ele>
  <time>2026-08-27T18:25:51Z</time>
  <course>67.81</course>
  <speed>0.01</speed>
  <fix>3d</fix>
</trkpt>
<trkpt lat="40.0728581" lon="-105.2306048">
  <ele>1586.02</ele>
  <time>2026-08-27T18:25:51Z</time>
  <course>312.69</course>
  <speed>0.0</speed>
  <fix>3d</fix>
</trkpt>
<trkpt lat="40.0728581" lon="-105.2306048">
  <ele>1586.1</ele>
  <time>2026-08-27T18:25:51Z</time>
  <course>67.82</course>
  <speed>0.01</speed>
  <fix>3d</fix>
</trkpt>
<trkpt lat="40.0728581" lon="-105.2306048">
  <ele>1586.02</ele>
  <time>2026-08-27T18:25:51Z</time>
  <course>142.46</course>
  <speed>0.0</speed>
  <fix>3d</fix>
</trkpt>
<trkpt lat="40.0728581" lon="-105.2306048">
  <ele>1586.1</ele>
  <time>2026-08-27T18:25:51Z</time>
  <course>67.83</course>
  <speed>0.01</speed>
  <fix>3d</fix>
</trkpt>
<trkpt lat="40.0728581" lon="-105.2306048">
  <ele>1586.02</ele>
  <time>2026-08-27T18:25:51Z</time>
  <course>141.02</course>
  <speed>0.0</speed>
  <fix>3d</fix>
</trkpt>
<trkpt lat="40.0728581" lon="-105.2306048">
  <ele>1586.1</ele>
  <time>2026-08-27T18:25:51Z</time>
  <course>67.84</course>
  <speed>0.01</speed>
  <fix>3d</fix>
</trkpt>
<trkpt lat="40.0728581" lon="-105.2306048">
  <ele>1586.02</ele>
  <time>2026-08-27T18:25:51Z</time>
  <course>138.57</course>
  <speed>0.0</speed>
  <fix>3d</fix>
</trkpt>
<trkpt lat="40.0728581" lon="-105.2306048">
  <ele>1586.1</ele>
  <time>2026-08-27T18:25:51Z</time>
  <course>67.84</course>
  <speed>0.01</speed>
  <fix>3d</fix>
</trkpt>
<trkpt lat="40.0728581" lon="-105.2306048">
  <ele>1586.02</ele>
  <time>2026-08-27T18:25:51Z</time>
  <course>136.87</course>
  <speed>0.0</speed>
  <fix>3d</fix>
</trkpt>
<trkpt lat="40.0728581" lon="-105.2306048">
  <ele>1586.11</ele>
  <time>2026-08-27T18:25:51Z</time>
  <course>67.85</course>
  <speed>0.01</speed>
  <fix>3d</fix>
</trkpt>
<trkpt lat="40.0728581" lon="-105.2306048">
  <ele>1586.02</ele>
  <time>2026-08-27T18:25:51Z</time>
  <course>135.02</course>
  <speed>0.0</speed>
  <fix>3d</fix>
</trkpt>
<trkpt lat="40.0728581" lon="-105.2306048">
  <ele>1586.11</ele>
  <time>2026-08-27T18:25:51Z</time>
  <course>67.86</course>
  <speed>0.01</speed>
  <fix>3d</fix>
</trkpt>
<trkpt lat="40.0728581" lon="-105.2306048">
  <ele>1586.02</ele>
  <time>2026-08-27T18:25:51Z</time>
  <course>132.78</course>
  <speed>0.0</speed>
  <fix>3d</fix>
</trkpt>
<trkpt lat="40.0728581" lon="-105.2306048">
  <ele>1586.11</ele>
  <time>2026-08-27T18:25:51Z</time>
  <course>67.86</course>
  <speed>0.01</speed>
  <fix>3d</fix>
</trkpt>
<trkpt lat="40.0728581" lon="-105.2306048">
  <ele>1586.02</ele>
  <time>2026-08-27T18:25:51Z</time>
  <course>130.59</course>
  <speed>0.0</speed>
  <fix>3d</fix>
</trkpt>
<trkpt lat="40.0728581" lon="-105.2306048">
  <ele>1586.11</ele>
  <time>2026-08-27T18:25:51Z</time>
  <course>67.87</course>
  <speed>0.01</speed>
  <fix>3d</fix>
</trkpt>
<trkpt lat="40.0728581" lon="-105.2306048">
  <ele>1586.02</ele>
  <time>2026-08-27T18:25:51Z</time>
  <course>128.45</course>
  <speed>0.0</speed>
  <fix>3d</fix>
</trkpt>
<trkpt lat="40.0728581" lon="-105.2306048">
  <ele>1586.11</ele>
  <time>2026-08-27T18:25:51Z</time>
  <course>67.88</course>
  <speed>0.01</speed>
  <fix>3d</fix>
</trkpt>
<trkpt lat="40.0728581" lon="-105.2306048">
  <ele>1586.02</ele>
  <time>2026-08-27T18:25:51Z</time>
  <course>126.27</course>
  <speed>0.0</speed>
  <fix>3d</fix>
</trkpt>
<trkpt lat="40.0728581" lon="-105.2306048">
  <ele>1586.11</ele>
  <time>2026-08-27T18:25:51Z</time>
  <course>67.89</course>
  <speed>0.01</speed>
  <fix>3d</fix>
</trkpt>
<trkpt lat="40.0728581" lon="-105.2306048">
  <ele>1586.02</ele>
  <time>2026-08-27T18:25:51Z</time>
  <course>150.86</course>
  <speed>0.0</speed>
  <fix>3d</fix>
</trkpt>
<trkpt lat="40.0728581" lon="-105.2306048">
  <ele>1586.11</ele>
  <time>2026-08-27T18:25:51Z</time>
  <course>67.89</course>
  <speed>0.01</speed>
  <fix>3d</fix>
</trkpt>
<trkpt lat="40.0728581" lon="-105.2306048">
  <ele>1586.02</ele>
  <time>2026-08-27T18:25:51Z</time>
  <course>151.84</course>
  <speed>0.0</speed>
  <fix>3d</fix>
</trkpt>
<trkpt lat="40.0728581" lon="-105.2306048">
  <ele>1586.11</ele>
  <time>2026-08-27T18:25:51Z</time>
  <course>67.9</course>
  <speed>0.01</speed>
  <fix>3d</fix>
</trkpt>
<trkpt lat="40.0728581" lon="-105.2306048">
  <ele>1586.02</ele>
  <time>2026-08-27T18:25:51Z</time>
  <course>135.45</course>
  <speed>0.0</speed>
  <fix>3d</fix>
</trkpt>
<trkpt lat="40.0728581" lon="-105.2306048">
  <ele>1586.11</ele>
  <time>2026-08-27T18:25:51Z</time>
  <course>67.91</course>
  <speed>0.01</speed>
  <fix>3d</fix>
</trkpt>
<trkpt lat="40.0728581" lon="-105.2306048">
  <ele>1586.02</ele>
  <time>2026-08-27T18:25:51Z</time>
  <course>0.09</course>
  <speed>0.0</speed>
  <fix>3d</fix>
</trkpt>
<trkpt lat="40.0728581" lon="-105.2306048">
  <ele>1586.11</ele>
  <time>2026-08-27T18:25:51Z</time>
  <course>67.91</course>
  <speed>0.01</speed>
  <fix>3d</fix>
</trkpt>
<trkpt lat="40.0728581" lon="-105.2306048">
  <ele>1586.02</ele>
  <time>2026-08-27T18:25:51Z</time>
  <course>85.55</course>
  <speed>0.0</speed>
  <fix>3d</fix>
</trkpt>
<trkpt lat="40.0728581" lon="-105.2306048">
  <ele>1586.11</ele>
  <time>2026-08-27T18:25:51Z</time>
  <course>67.92</course>
  <speed>0.01</speed>
  <fix>3d</fix>
</trkpt>
<trkpt lat="40.0728581" lon="-105.2306048">
  <ele>1586.02</ele>
  <time>2026-08-27T18:25:51Z</time>
  <course>101.49</course>
  <speed>0.0</speed>
  <fix>3d</fix>
</trkpt>
<trkpt lat="40.0728581" lon="-105.2306048">
  <ele>1586.12</ele>
  <time>2026-08-27T18:25:51Z</time>
  <course>67.93</course>
  <speed>0.01</speed>
  <fix>3d</fix>
</trkpt>
<trkpt lat="40.0728581" lon="-105.2306048">
  <ele>1586.02</ele>
  <time>2026-08-27T18:25:51Z</time>
  <course>84.62</course>
  <speed>0.0</speed>
  <fix>3d</fix>
</trkpt>
<trkpt lat="40.0728581" lon="-105.2306048">
  <ele>1586.12</ele>
  <time>2026-08-27T18:25:51Z</time>
  <course>67.93</course>
  <speed>0.01</speed>
  <fix>3d</fix>
</trkpt>
<trkpt lat="40.0728581" lon="-105.2306048">
  <ele>1586.02</ele>
  <time>2026-08-27T18:25:51Z</time>
  <course>84.46</course>
  <speed>0.0</speed>
  <fix>3d</fix>
</trkpt>
<trkpt lat="40.0728581" lon="-105.2306048">
  <ele>1586.12</ele>
  <time>2026-08-27T18:25:51Z</time>
  <course>67.94</course>
  <speed>0.01</speed>
  <fix>3d</fix>
</trkpt>
<trkpt lat="40.0728581" lon="-105.2306048">
  <ele>1586.02</ele>
  <time>2026-08-27T18:25:51Z</time>
  <course>87.04</course>
  <speed>0.0</speed>
  <fix>3d</fix>
</trkpt>
<trkpt lat="40.0728581" lon="-105.2306048">
  <ele>1586.12</ele>
  <time>2026-08-27T18:25:51Z</time>
  <course>67.95</course>
  <speed>0.01</speed>
  <fix>3d</fix>
</trkpt>
<trkpt lat="40.0728581" lon="-105.2306048">
  <ele>1586.02</ele>
  <time>2026-08-27T18:25:51Z</time>
  <course>86.75</course>
  <speed>0.0</speed>
  <fix>3d</fix>
</trkpt>
<trkpt lat="40.0728581" lon="-105.2306048">
  <ele>1586.12</ele>
  <time>2026-08-27T18:25:51Z</time>
  <course>67.96</course>
  <speed>0.01</speed>
  <fix>3d</fix>
</trkpt>
<trkpt lat="40.0728581" lon="-105.2306048">
  <ele>1586.02</ele>
  <time>2026-08-27T18:25:51Z</time>
  <course>86.44</course>
  <speed>0.0</speed>
  <fix>3d</fix>
</trkpt>
<trkpt lat="40.0728581" lon="-105.2306048">
  <ele>1586.12</ele>
  <time>2026-08-27T18:25:51Z</time>
  <course>67.96</course>
  <speed>0.01</speed>
  <fix>3d</fix>
</trkpt>
<trkpt lat="40.0728581" lon="-105.2306048">
  <ele>1586.02</ele>
  <time>2026-08-27T18:25:51Z</time>
  <course>86.52</course>
  <speed>0.0</speed>
  <fix>3d</fix>
</trkpt>
<trkpt lat="40.0728581" lon="-105.2306048">
  <ele>1586.12</ele>
  <time>2026-08-27T18:25:51Z</time>
  <course>67.97</course>
  <speed>0.01</speed>
  <fix>3d</fix>
</trkpt>
<trkpt lat="40.0728581" lon="-105.2306048">
  <ele>1586.02</ele>
  <time>2026-08-27T18:25:51Z</time>
  <course>86.55</course>
  <speed>0.0</speed>
  <fix>3d</fix>
</trkpt>
<trkpt lat="40.0728581" lon="-105.2306048">
  <ele>1586.12</ele>
  <time>2026-08-27T18:25:51Z</time>
  <course>67.98</course>
  <speed>0.01</speed>
  <fix>3d</fix>
</trkpt>
<trkpt lat="40.0728581" lon="-105.2306048">
  <ele>1586.02</ele>
  <time>2026-08-27T18:25:51Z</time>
  <course>86.54</course>
  <speed>0.0</speed>
  <fix>3d</fix>
</trkpt>
<trkpt lat="40.0728581" lon="-105.2306048">
  <ele>1586.12</ele>
  <time>2026-08-27T18:25:51Z</time>
  <course>67.98</course>
  <speed>0.01</speed>
  <fix>3d</fix>
</trkpt>
<trkpt lat="40.0728581" lon="-105.2306048">
  <ele>1586.02</ele>
  <time>2026-08-27T18:25:51Z</time>
  <course>86.53</course>
  <speed>0.0</speed>
  <fix>3d</fix>
</trkpt>
<trkpt lat="40.0728581" lon="-105.2306048">
  <ele>1586.12</ele>
  <time>2026-08-27T18:25:51Z</time>
  <course>67.99</course>
  <speed>0.01</speed>
  <fix>3d</fix>
</trkpt>
<trkpt lat="40.0728581" lon="-105.2306048">
  <ele>1586.02</ele>
  <time>2026-08-27T18:25:51Z</time>
  <course>86.53</course>
  <speed>0.0</speed>
  <fix>3d</fix>
</trkpt>
<trkpt lat="40.0728581" lon="-105.2306048">
  <ele>1586.12</ele>
  <time>2026-08-27T18:25:51Z</time>
  <course>68.0</course>
  <speed>0.01</speed>
  <fix>3d</fix>
</trkpt>
<trkpt lat="40.0728581" lon="-105.2306048">
  <ele>1586.02</ele>
  <time>2026-08-27T18:25:51Z</time>
  <course>86.53</course>
  <speed>0.0</speed>
  <fix>3d</fix>
</trkpt>
<trkpt lat="40.0728581" lon="-105.2306048">
  <ele>1586.11</ele>
  <time>2026-08-27T18:25:51Z</time>
  <course>68.0</course>
  <speed>0.01</speed>
  <fix>3d</fix>
</trkpt>
<trkpt lat="40.0728581" lon="-105.2306048">
  <ele>1586.02</ele>
  <time>2026-08-27T18:25:51Z</time>
  <course>86.53</course>
  <speed>0.0</speed>
  <fix>3d</fix>
</trkpt>
<trkpt lat="40.0728581" lon="-105.2306048">
  <ele>1586.11</ele>
  <time>2026-08-27T18:25:51Z</time>
  <course>68.01</course>
  <speed>0.01</speed>
  <fix>3d</fix>
</trkpt>
<trkpt lat="40.0728581" lon="-105.2306048">
  <ele>1586.02</ele>
  <time>2026-08-27T18:25:51Z</time>
  <course>86.53</course>
  <speed>0.0</speed>
  <fix>3d</fix>
</trkpt>
<trkpt lat="40.0728581" lon="-105.2306048">
  <ele>1586.11</ele>
  <time>2026-08-27T18:25:51Z</time>
  <course>68.02</course>
  <speed>0.01</speed>
  <fix>3d</fix>
</trkpt>
<trkpt lat="40.0728581" lon="-105.2306048">
  <ele>1586.02</ele>
  <time>2026-08-27T18:25:51Z</time>
  <course>86.53</course>
  <speed>0.0</speed>
  <fix>3d</fix>
</trkpt>
<trkpt lat="40.0728581" lon="-105.2306048">
  <ele>1586.11</ele>
  <time>2026-08-27T18:25:51Z</time>
  <course>68.02</course>
  <speed>0.01</speed>
  <fix>3d</fix>
</trkpt>
<trkpt lat="40.0728581" lon="-105.2306048">
  <ele>1586.02</ele>
  <time>2026-08-27T18:25:51Z</time>
  <course>86.53</course>
  <speed>0.0</speed>
  <fix>3d</fix>
</trkpt>
<trkpt lat="40.0728581" lon="-105.2306047">
  <ele>1586.11</ele>
  <time>2026-08-27T18:25:51Z</time>
  <course>68.03</course>
  <speed>0.01</speed>
  <fix>3d</fix>
</trkpt>
<trkpt lat="40.0728581" lon="-105.2306048">
  <ele>1586.02</ele>
  <time>2026-08-27T18:25:51Z</time>
  <course>86.53</course>
  <speed>0.0</speed>
  <fix>3d</fix>
</trkpt>
<trkpt lat="40.0728581" lon="-105.2306047">
  <ele>1586.11</ele>
  <time>2026-08-27T18:25:51Z</time>
  <course>68.04</course>
  <speed>0.01</speed>
  <fix>3d</fix>
</trkpt>
<trkpt lat="40.0728581" lon="-105.2306048">
  <ele>1586.02</ele>
  <time>2026-08-27T18:25:51Z</time>
  <course>86.53</course>
  <speed>0.0</speed>
  <fix>3d</fix>
</trkpt>
<trkpt lat="40.0728581" lon="-105.2306047">
  <ele>1586.11</ele>
  <time>2026-08-27T18:25:51Z</time>
  <course>68.04</course>
  <speed>0.01</speed>
  <fix>3d</fix>
</trkpt>
<trkpt lat="40.0728581" lon="-105.2306048">
  <ele>1586.02</ele>
  <time>2026-08-27T18:25:51Z</time>
  <course>86.53</course>
  <speed>0.0</speed>
  <fix>3d</fix>
</trkpt>
<trkpt lat="40.0728581" lon="-105.2306047">
  <ele>1586.11</ele>
  <time>2026-08-27T18:25:51Z</time>
  <course>68.05</course>
  <speed>0.01</speed>
  <fix>3d</fix>
</trkpt>
<trkpt lat="40.0728581" lon="-105.2306048">
  <ele>1586.02</ele>
  <time>2026-08-27T18:25:51Z</time>
  <course>86.53</course>
  <speed>0.0</speed>
  <fix>3d</fix>
</trkpt>
<trkpt lat="40.0728581" lon="-105.2306047">
  <ele>1586.11</ele>
  <time>2026-08-27T18:25:51Z</time>
  <course>68.05</course>
  <speed>0.01</speed>
  <fix>3d</fix>
</trkpt>
<trkpt lat="40.0728581" lon="-105.2306048">
  <ele>1586.02</ele>
  <time>2026-08-27T18:25:51Z</time>
  <course>86.53</course>
  <speed>0.0</speed>
  <fix>3d</fix>
</trkpt>
<trkpt lat="40.0728581" lon="-105.2306047">
  <ele>1586.11</ele>
  <time>2026-08-27T18:25:51Z</time>
  <course>68.06</course>
  <speed>0.01</speed>
  <fix>3d</fix>
</trkpt>
<trkpt lat="40.0728581" lon="-105.2306048">
  <ele>1586.02</ele>
  <time>2026-08-27T18:25:51Z</time>
  <course>86.53</course>
  <speed>0.0</speed>
  <fix>3d</fix>
</trkpt>
<trkpt lat="40.0728581" lon="-105.2306047">
  <ele>1586.11</ele>
  <time>2026-08-27T18:25:51Z</time>
  <course>68.07</course>
  <speed>0.01</speed>
  <fix>3d</fix>
</trkpt>
<trkpt lat="40.0728581" lon="-105.2306048">
  <ele>1586.02</ele>
  <time>2026-08-27T18:25:51Z</time>
  <course>86.54</course>
  <speed>0.0</speed>
  <fix>3d</fix>
</trkpt>
<trkpt lat="40.0728581" lon="-105.2306047">
  <ele>1586.11</ele>
  <time>2026-08-27T18:25:51Z</time>
  <course>68.09</course>
  <speed>0.01</speed>
  <fix>3d</fix>
</trkpt>
<trkpt lat="40.0728581" lon="-105.2306048">
  <ele>1586.02</ele>
  <time>2026-08-27T18:25:51Z</time>
  <course>169.69</course>
  <speed>0.0</speed>
  <fix>3d</fix>
</trkpt>
<trkpt lat="40.0728581" lon="-105.2306047">
  <ele>1586.1</ele>
  <time>2026-08-27T18:25:51Z</time>
  <course>68.27</course>
  <speed>0.01</speed>
  <fix>3d</fix>
</trkpt>
<trkpt lat="40.0728581" lon="-105.2306048">
  <ele>1586.02</ele>
  <time>2026-08-27T18:25:51Z</time>
  <course>211.16</course>
  <speed>0.0</speed>
  <fix>3d</fix>
</trkpt>
<trkpt lat="40.0728581" lon="-105.2306047">
  <ele>1586.1</ele>
  <time>2026-08-27T18:25:51Z</time>
  <course>68.47</course>
  <speed>0.01</speed>
  <fix>3d</fix>
</trkpt>
<trkpt lat="40.0728581" lon="-105.2306048">
  <ele>1586.02</ele>
  <time>2026-08-27T18:25:51Z</time>
  <course>202.15</course>
  <speed>0.0</speed>
  <fix>3d</fix>
</trkpt>
<trkpt lat="40.0728581" lon="-105.2306047">
  <ele>1586.1</ele>
  <time>2026-08-27T18:25:51Z</time>
  <course>68.62</course>
  <speed>0.01</speed>
  <fix>3d</fix>
</trkpt>
<trkpt lat="40.0728581" lon="-105.2306048">
  <ele>1586.02</ele>
  <time>2026-08-27T18:25:51Z</time>
  <course>60.94</course>
  <speed>0.0</speed>
  <fix>3d</fix>
</trkpt>
<trkpt lat="40.0728581" lon="-105.2306047">
  <ele>1586.09</ele>
  <time>2026-08-27T18:25:51Z</time>
  <course>68.75</course>
  <speed>0.01</speed>
  <fix>3d</fix>
</trkpt>
<trkpt lat="40.0728581" lon="-105.2306048">
  <ele>1586.02</ele>
  <time>2026-08-27T18:25:51Z</time>
  <course>33.35</course>
  <speed>0.0</speed>
  <fix>3d</fix>
</trkpt>
<trkpt lat="40.0728581" lon="-105.2306047">
  <ele>1586.09</ele>
  <time>2026-08-27T18:25:51Z</time>
  <course>68.86</course>
  <speed>0.01</speed>
  <fix>3d</fix>
</trkpt>
<trkpt lat="40.0728581" lon="-105.2306048">
  <ele>1586.02</ele>
  <time>2026-08-27T18:25:51Z</time>
  <course>8.07</course>
  <speed>0.0</speed>
  <fix>3d</fix>
</trkpt>
<trkpt lat="40.0728581" lon="-105.2306047">
  <ele>1586.09</ele>
  <time>2026-08-27T18:25:51Z</time>
  <course>68.95</course>
  <speed>0.01</speed>
  <fix>3d</fix>
</trkpt>
<trkpt lat="40.0728581" lon="-105.2306048">
  <ele>1586.02</ele>
  <time>2026-08-27T18:25:51Z</time>
  <course>210.5</course>
  <speed>0.0</speed>
  <fix>3d</fix>
</trkpt>
<trkpt lat="40.0728581" lon="-105.2306047">
  <ele>1586.09</ele>
  <time>2026-08-27T18:25:51Z</time>
  <course>69.04</course>
  <speed>0.01</speed>
  <fix>3d</fix>
</trkpt>
<trkpt lat="40.0728581" lon="-105.2306048">
  <ele>1586.02</ele>
  <time>2026-08-27T18:25:51Z</time>
  <course>137.53</course>
  <speed>0.0</speed>
  <fix>3d</fix>
</trkpt>
<trkpt lat="40.0728581" lon="-105.2306047">
  <ele>1586.09</ele>
  <time>2026-08-27T18:25:51Z</time>
  <course>69.11</course>
  <speed>0.01</speed>
  <fix>3d</fix>
</trkpt>
<trkpt lat="40.0728581" lon="-105.2306048">
  <ele>1586.02</ele>
  <time>2026-08-27T18:25:51Z</time>
  <course>62.55</course>
  <speed>0.0</speed>
  <fix>3d</fix>
</trkpt>
<trkpt lat="40.0728581" lon="-105.2306047">
  <ele>1586.09</ele>
  <time>2026-08-27T18:25:51Z</time>
  <course>69.17</course>
  <speed>0.01</speed>
  <fix>3d</fix>
</trkpt>
<trkpt lat="40.0728581" lon="-105.2306048">
  <ele>1586.02</ele>
  <time>2026-08-27T18:25:51Z</time>
  <course>80.36</course>
  <speed>0.0</speed>
  <fix>3d</fix>
</trkpt>
<trkpt lat="40.0728581" lon="-105.2306047">
  <ele>1586.09</ele>
  <time>2026-08-27T18:25:52Z</time>
  <course>69.38</course>
  <speed>0.01</speed>
  <fix>3d</fix>
</trkpt>
<trkpt lat="40.0728581" lon="-105.2306048">
  <ele>1586.02</ele>
  <time>2026-08-27T18:25:52Z</time>
  <course>86.62</course>
  <speed>0.0</speed>
  <fix>3d</fix>
</trkpt>
<trkpt lat="40.0728581" lon="-105.2306047">
  <ele>1586.09</ele>
  <time>2026-08-27T18:25:52Z</time>
  <course>69.42</course>
  <speed>0.01</speed>
  <fix>3d</fix>
</trkpt>
<trkpt lat="40.0728581" lon="-105.2306048">
  <ele>1586.02</ele>
  <time>2026-08-27T18:25:52Z</time>
  <course>86.63</course>
  <speed>0.0</speed>
  <fix>3d</fix>
</trkpt>
<trkpt lat="40.0728581" lon="-105.2306047">
  <ele>1586.09</ele>
  <time>2026-08-27T18:25:52Z</time>
  <course>69.46</course>
  <speed>0.01</speed>
  <fix>3d</fix>
</trkpt>
<trkpt lat="40.0728581" lon="-105.2306048">
  <ele>1586.02</ele>
  <time>2026-08-27T18:25:52Z</time>
  <course>86.51</course>
  <speed>0.0</speed>
  <fix>3d</fix>
</trkpt>
<trkpt lat="40.0728581" lon="-105.2306047">
  <ele>1586.08</ele>
  <time>2026-08-27T18:25:52Z</time>
  <course>69.5</course>
  <speed>0.01</speed>
  <fix>3d</fix>
</trkpt>
<trkpt lat="40.0728581" lon="-105.2306048">
  <ele>1586.02</ele>
  <time>2026-08-27T18:25:52Z</time>
  <course>86.53</course>
  <speed>0.0</speed>
  <fix>3d</fix>
</trkpt>
<trkpt lat="40.0728581" lon="-105.2306047">
  <ele>1586.09</ele>
  <time>2026-08-27T18:25:52Z</time>
  <course>69.53</course>
  <speed>0.01</speed>
  <fix>3d</fix>
</trkpt>
<trkpt lat="40.0728581" lon="-105.2306048">
  <ele>1586.02</ele>
  <time>2026-08-27T18:25:52Z</time>
  <course>86.54</course>
  <speed>0.0</speed>
  <fix>3d</fix>
</trkpt>
<trkpt lat="40.0728581" lon="-105.2306047">
  <ele>1586.09</ele>
  <time>2026-08-27T18:25:52Z</time>
  <course>69.56</course>
  <speed>0.01</speed>
  <fix>3d</fix>
</trkpt>
<trkpt lat="40.0728581" lon="-105.2306048">
  <ele>1586.02</ele>
  <time>2026-08-27T18:25:52Z</time>
  <course>86.54</course>
  <speed>0.0</speed>
  <fix>3d</fix>
</trkpt>
<trkpt lat="40.0728581" lon="-105.2306047">
  <ele>1586.09</ele>
  <time>2026-08-27T18:25:52Z</time>
  <course>69.59</course>
  <speed>0.01</speed>
  <fix>3d</fix>
</trkpt>
<trkpt lat="40.0728581" lon="-105.2306048">
  <ele>1586.02</ele>
  <time>2026-08-27T18:25:52Z</time>
  <course>86.54</course>
  <speed>0.0</speed>
  <fix>3d</fix>
</trkpt>
<trkpt lat="40.0728581" lon="-105.2306047">
  <ele>1586.1</ele>
  <time>2026-08-27T18:25:52Z</time>
  <course>69.62</course>
  <speed>0.01</speed>
  <fix>3d</fix>
</trkpt>
<trkpt lat="40.0728581" lon="-105.2306048">
  <ele>1586.02</ele>
  <time>2026-08-27T18:25:52Z</time>
  <course>86.54</course>
  <speed>0.0</speed>
  <fix>3d</fix>
</trkpt>
<trkpt lat="40.0728581" lon="-105.2306047">
  <ele>1586.1</ele>
  <time>2026-08-27T18:25:52Z</time>
  <course>69.64</course>
  <speed>0.01</speed>
  <fix>3d</fix>
</trkpt>
<trkpt lat="40.0728581" lon="-105.2306048">
  <ele>1586.02</ele>
  <time>2026-08-27T18:25:52Z</time>
  <course>86.54</course>
  <speed>0.0</speed>
  <fix>3d</fix>
</trkpt>
<trkpt lat="40.0728581" lon="-105.2306047">
  <ele>1586.11</ele>
  <time>2026-08-27T18:25:52Z</time>
  <course>69.67</course>
  <speed>0.01</speed>
  <fix>3d</fix>
</trkpt>
<trkpt lat="40.0728581" lon="-105.2306048">
  <ele>1586.02</ele>
  <time>2026-08-27T18:25:52Z</time>
  <course>86.54</course>
  <speed>0.0</speed>
  <fix>3d</fix>
</trkpt>
<trkpt lat="40.0728581" lon="-105.2306047">
  <ele>1586.11</ele>
  <time>2026-08-27T18:25:52Z</time>
  <course>69.69</course>
  <speed>0.01</speed>
  <fix>3d</fix>
</trkpt>
<trkpt lat="40.0728581" lon="-105.2306048">
  <ele>1586.02</ele>
  <time>2026-08-27T18:25:52Z</time>
  <course>86.54</course>
  <speed>0.0</speed>
  <fix>3d</fix>
</trkpt>
<trkpt lat="40.0728581" lon="-105.2306047">
  <ele>1586.11</ele>
  <time>2026-08-27T18:25:52Z</time>
  <course>69.71</course>
  <speed>0.01</speed>
  <fix>3d</fix>
</trkpt>
<trkpt lat="40.0728581" lon="-105.2306048">
  <ele>1586.02</ele>
  <time>2026-08-27T18:25:52Z</time>
  <course>86.54</course>
  <speed>0.0</speed>
  <fix>3d</fix>
</trkpt>
<trkpt lat="40.0728581" lon="-105.2306047">
  <ele>1586.11</ele>
  <time>2026-08-27T18:25:52Z</time>
  <course>69.74</course>
  <speed>0.01</speed>
  <fix>3d</fix>
</trkpt>
<trkpt lat="40.0728581" lon="-105.2306048">
  <ele>1586.02</ele>
  <time>2026-08-27T18:25:52Z</time>
  <course>86.54</course>
  <speed>0.0</speed>
  <fix>3d</fix>
</trkpt>
<trkpt lat="40.0728581" lon="-105.2306047">
  <ele>1586.12</ele>
  <time>2026-08-27T18:25:52Z</time>
  <course>69.76</course>
  <speed>0.01</speed>
  <fix>3d</fix>
</trkpt>
<trkpt lat="40.0728581" lon="-105.2306048">
  <ele>1586.02</ele>
  <time>2026-08-27T18:25:52Z</time>
  <course>86.54</course>
  <speed>0.0</speed>
  <fix>3d</fix>
</trkpt>
<trkpt lat="40.0728581" lon="-105.2306047">
  <ele>1586.12</ele>
  <time>2026-08-27T18:25:52Z</time>
  <course>69.77</course>
  <speed>0.01</speed>
  <fix>3d</fix>
</trkpt>
<trkpt lat="40.0728581" lon="-105.2306048">
  <ele>1586.02</ele>
  <time>2026-08-27T18:25:52Z</time>
  <course>86.54</course>
  <speed>0.0</speed>
  <fix>3d</fix>
</trkpt>
<trkpt lat="40.0728581" lon="-105.2306047">
  <ele>1586.13</ele>
  <time>2026-08-27T18:25:52Z</time>
  <course>69.79</course>
  <speed>0.01</speed>
  <fix>3d</fix>
</trkpt>
<trkpt lat="40.0728581" lon="-105.2306048">
  <ele>1586.02</ele>
  <time>2026-08-27T18:25:52Z</time>
  <course>86.54</course>
  <speed>0.0</speed>
  <fix>3d</fix>
</trkpt>
<trkpt lat="40.0728581" lon="-105.2306047">
  <ele>1586.12</ele>
  <time>2026-08-27T18:25:52Z</time>
  <course>69.81</course>
  <speed>0.01</speed>
  <fix>3d</fix>
</trkpt>
<trkpt lat="40.0728581" lon="-105.2306048">
  <ele>1586.02</ele>
  <time>2026-08-27T18:25:52Z</time>
  <course>86.54</course>
  <speed>0.0</speed>
  <fix>3d</fix>
</trkpt>
<trkpt lat="40.0728581" lon="-105.2306047">
  <ele>1586.12</ele>
  <time>2026-08-27T18:25:52Z</time>
  <course>69.83</course>
  <speed>0.01</speed>
  <fix>3d</fix>
</trkpt>
<trkpt lat="40.0728581" lon="-105.2306048">
  <ele>1586.02</ele>
  <time>2026-08-27T18:25:52Z</time>
  <course>86.54</course>
  <speed>0.0</speed>
  <fix>3d</fix>
</trkpt>
<trkpt lat="40.0728581" lon="-105.2306047">
  <ele>1586.12</ele>
  <time>2026-08-27T18:25:52Z</time>
  <course>69.84</course>
  <speed>0.01</speed>
  <fix>3d</fix>
</trkpt>
<trkpt lat="40.0728581" lon="-105.2306048">
  <ele>1586.02</ele>
  <time>2026-08-27T18:25:52Z</time>
  <course>86.54</course>
  <speed>0.0</speed>
  <fix>3d</fix>
</trkpt>
<trkpt lat="40.0728582" lon="-105.2306047">
  <ele>1586.12</ele>
  <time>2026-08-27T18:25:52Z</time>
  <course>69.86</course>
  <speed>0.01</speed>
  <fix>3d</fix>
</trkpt>
<trkpt lat="40.0728581" lon="-105.2306048">
  <ele>1586.02</ele>
  <time>2026-08-27T18:25:52Z</time>
  <course>86.54</course>
  <speed>0.0</speed>
  <fix>3d</fix>
</trkpt>
<trkpt lat="40.0728582" lon="-105.2306047">
  <ele>1586.12</ele>
  <time>2026-08-27T18:25:52Z</time>
  <course>69.88</course>
  <speed>0.01</speed>
  <fix>3d</fix>
</trkpt>
<trkpt lat="40.0728581" lon="-105.2306048">
  <ele>1586.02</ele>
  <time>2026-08-27T18:25:52Z</time>
  <course>86.54</course>
  <speed>0.0</speed>
  <fix>3d</fix>
</trkpt>
<trkpt lat="40.0728582" lon="-105.2306047">
  <ele>1586.12</ele>
  <time>2026-08-27T18:25:52Z</time>
  <course>69.89</course>
  <speed>0.01</speed>
  <fix>3d</fix>
</trkpt>
<trkpt lat="40.0728581" lon="-105.2306048">
  <ele>1586.02</ele>
  <time>2026-08-27T18:25:52Z</time>
  <course>86.54</course>
  <speed>0.0</speed>
  <fix>3d</fix>
</trkpt>
<trkpt lat="40.0728582" lon="-105.2306047">
  <ele>1586.12</ele>
  <time>2026-08-27T18:25:52Z</time>
  <course>69.91</course>
  <speed>0.01</speed>
  <fix>3d</fix>
</trkpt>
<trkpt lat="40.0728581" lon="-105.2306048">
  <ele>1586.02</ele>
  <time>2026-08-27T18:25:52Z</time>
  <course>86.54</course>
  <speed>0.0</speed>
  <fix>3d</fix>
</trkpt>
<trkpt lat="40.0728582" lon="-105.2306047">
  <ele>1586.12</ele>
  <time>2026-08-27T18:25:52Z</time>
  <course>69.92</course>
  <speed>0.01</speed>
  <fix>3d</fix>
</trkpt>
<trkpt lat="40.0728581" lon="-105.2306048">
  <ele>1586.02</ele>
  <time>2026-08-27T18:25:52Z</time>
  <course>86.53</course>
  <speed>0.0</speed>
  <fix>3d</fix>
</trkpt>
<trkpt lat="40.0728582" lon="-105.2306047">
  <ele>1586.12</ele>
  <time>2026-08-27T18:25:52Z</time>
  <course>69.93</course>
  <speed>0.01</speed>
  <fix>3d</fix>
</trkpt>
<trkpt lat="40.0728581" lon="-105.2306048">
  <ele>1586.02</ele>
  <time>2026-08-27T18:25:52Z</time>
  <course>86.53</course>
  <speed>0.0</speed>
  <fix>3d</fix>
</trkpt>
<trkpt lat="40.0728582" lon="-105.2306047">
  <ele>1586.11</ele>
  <time>2026-08-27T18:25:52Z</time>
  <course>69.95</course>
  <speed>0.01</speed>
  <fix>3d</fix>
</trkpt>
<trkpt lat="40.0728581" lon="-105.2306048">
  <ele>1586.02</ele>
  <time>2026-08-27T18:25:52Z</time>
  <course>86.53</course>
  <speed>0.0</speed>
  <fix>3d</fix>
</trkpt>
<trkpt lat="40.0728582" lon="-105.2306047">
  <ele>1586.11</ele>
  <time>2026-08-27T18:25:52Z</time>
  <course>69.96</course>
  <speed>0.01</speed>
  <fix>3d</fix>
</trkpt>
<trkpt lat="40.0728581" lon="-105.2306048">
  <ele>1586.02</ele>
  <time>2026-08-27T18:25:52Z</time>
  <course>86.53</course>
  <speed>0.0</speed>
  <fix>3d</fix>
</trkpt>
<trkpt lat="40.0728582" lon="-105.2306047">
  <ele>1586.11</ele>
  <time>2026-08-27T18:25:52Z</time>
  <course>69.97</course>
  <speed>0.01</speed>
  <fix>3d</fix>
</trkpt>
<trkpt lat="40.0728581" lon="-105.2306048">
  <ele>1586.02</ele>
  <time>2026-08-27T18:25:52Z</time>
  <course>86.53</course>
  <speed>0.0</speed>
  <fix>3d</fix>
</trkpt>
<trkpt lat="40.0728582" lon="-105.2306047">
  <ele>1586.1</ele>
  <time>2026-08-27T18:25:52Z</time>
  <course>69.98</course>
  <speed>0.01</speed>
  <fix>3d</fix>
</trkpt>
<trkpt lat="40.0728581" lon="-105.2306048">
  <ele>1586.02</ele>
  <time>2026-08-27T18:25:52Z</time>
  <course>86.53</course>
  <speed>0.0</speed>
  <fix>3d</fix>
</trkpt>
<trkpt lat="40.0728582" lon="-105.2306047">
  <ele>1586.1</ele>
  <time>2026-08-27T18:25:52Z</time>
  <course>69.99</course>
  <speed>0.01</speed>
  <fix>3d</fix>
</trkpt>
<trkpt lat="40.0728581" lon="-105.2306048">
  <ele>1586.02</ele>
  <time>2026-08-27T18:25:52Z</time>
  <course>210.52</course>
  <speed>0.0</speed>
  <fix>3d</fix>
</trkpt>
<trkpt lat="40.0728582" lon="-105.2306047">
  <ele>1586.1</ele>
  <time>2026-08-27T18:25:52Z</time>
  <course>70.01</course>
  <speed>0.01</speed>
  <fix>3d</fix>
</trkpt>
<trkpt lat="40.0728581" lon="-105.2306048">
  <ele>1586.02</ele>
  <time>2026-08-27T18:25:52Z</time>
  <course>203.05</course>
  <speed>0.0</speed>
  <fix>3d</fix>
</trkpt>
<trkpt lat="40.0728582" lon="-105.2306047">
  <ele>1586.1</ele>
  <time>2026-08-27T18:25:52Z</time>
  <course>70.02</course>
  <speed>0.01</speed>
  <fix>3d</fix>
</trkpt>
<trkpt lat="40.0728581" lon="-105.2306048">
  <ele>1586.02</ele>
  <time>2026-08-27T18:25:52Z</time>
  <course>81.73</course>
  <speed>0.0</speed>
  <fix>3d</fix>
</trkpt>
<trkpt lat="40.0728582" lon="-105.2306047">
  <ele>1586.1</ele>
  <time>2026-08-27T18:25:52Z</time>
  <course>70.03</course>
  <speed>0.01</speed>
  <fix>3d</fix>
</trkpt>
<trkpt lat="40.0728581" lon="-105.2306048">
  <ele>1586.02</ele>
  <time>2026-08-27T18:25:52Z</time>
  <course>24.46</course>
  <speed>0.0</speed>
  <fix>3d</fix>
</trkpt>
<trkpt lat="40.0728582" lon="-105.2306047">
  <ele>1586.09</ele>
  <time>2026-08-27T18:25:52Z</time>
  <course>70.04</course>
  <speed>0.01</speed>
  <fix>3d</fix>
</trkpt>
<trkpt lat="40.0728581" lon="-105.2306048">
  <ele>1586.02</ele>
  <time>2026-08-27T18:25:52Z</time>
  <course>194.74</course>
  <speed>0.0</speed>
  <fix>3d</fix>
</trkpt>
<trkpt lat="40.0728582" lon="-105.2306047">
  <ele>1586.09</ele>
  <time>2026-08-27T18:25:52Z</time>
  <course>70.05</course>
  <speed>0.01</speed>
  <fix>3d</fix>
</trkpt>
<trkpt lat="40.0728581" lon="-105.2306048">
  <ele>1586.02</ele>
  <time>2026-08-27T18:25:52Z</time>
  <course>162.51</course>
  <speed>0.0</speed>
  <fix>3d</fix>
</trkpt>
<trkpt lat="40.0728582" lon="-105.2306047">
  <ele>1586.09</ele>
  <time>2026-08-27T18:25:52Z</time>
  <course>70.06</course>
  <speed>0.01</speed>
  <fix>3d</fix>
</trkpt>
<trkpt lat="40.0728581" lon="-105.2306048">
  <ele>1586.02</ele>
  <time>2026-08-27T18:25:52Z</time>
  <course>139.43</course>
  <speed>0.0</speed>
  <fix>3d</fix>
</trkpt>
<trkpt lat="40.0728582" lon="-105.2306047">
  <ele>1586.09</ele>
  <time>2026-08-27T18:25:52Z</time>
  <course>70.07</course>
  <speed>0.01</speed>
  <fix>3d</fix>
</trkpt>
<trkpt lat="40.0728581" lon="-105.2306048">
  <ele>1586.02</ele>
  <time>2026-08-27T18:25:52Z</time>
  <course>150.28</course>
  <speed>0.0</speed>
  <fix>3d</fix>
</trkpt>
<trkpt lat="40.0728582" lon="-105.2306047">
  <ele>1586.08</ele>
  <time>2026-08-27T18:25:52Z</time>
  <course>70.08</course>
  <speed>0.01</speed>
  <fix>3d</fix>
</trkpt>
<trkpt lat="40.0728581" lon="-105.2306048">
  <ele>1586.02</ele>
  <time>2026-08-27T18:25:52Z</time>
  <course>152.76</course>
  <speed>0.0</speed>
  <fix>3d</fix>
</trkpt>
<trkpt lat="40.0728582" lon="-105.2306047">
  <ele>1586.08</ele>
  <time>2026-08-27T18:25:52Z</time>
  <course>70.09</course>
  <speed>0.01</speed>
  <fix>3d</fix>
</trkpt>
<trkpt lat="40.0728581" lon="-105.2306048">
  <ele>1586.02</ele>
  <time>2026-08-27T18:25:52Z</time>
  <course>151.14</course>
  <speed>0.0</speed>
  <fix>3d</fix>
</trkpt>
<trkpt lat="40.0728582" lon="-105.2306047">
  <ele>1586.08</ele>
  <time>2026-08-27T18:25:52Z</time>
  <course>70.1</course>
  <speed>0.01</speed>
  <fix>3d</fix>
</trkpt>
<trkpt lat="40.0728581" lon="-105.2306048">
  <ele>1586.02</ele>
  <time>2026-08-27T18:25:52Z</time>
  <course>151.0</course>
  <speed>0.0</speed>
  <fix>3d</fix>
</trkpt>
<trkpt lat="40.0728582" lon="-105.2306047">
  <ele>1586.08</ele>
  <time>2026-08-27T18:25:52Z</time>
  <course>70.11</course>
  <speed>0.01</speed>
  <fix>3d</fix>
</trkpt>
<trkpt lat="40.0728581" lon="-105.2306048">
  <ele>1586.02</ele>
  <time>2026-08-27T18:25:52Z</time>
  <course>151.24</course>
  <speed>0.0</speed>
  <fix>3d</fix>
</trkpt>
<trkpt lat="40.0728582" lon="-105.2306047">
  <ele>1586.08</ele>
  <time>2026-08-27T18:25:52Z</time>
  <course>70.12</course>
  <speed>0.01</speed>
  <fix>3d</fix>
</trkpt>
<trkpt lat="40.0728581" lon="-105.2306048">
  <ele>1586.02</ele>
  <time>2026-08-27T18:25:52Z</time>
  <course>151.23</course>
  <speed>0.0</speed>
  <fix>3d</fix>
</trkpt>
<trkpt lat="40.0728582" lon="-105.2306047">
  <ele>1586.08</ele>
  <time>2026-08-27T18:25:52Z</time>
  <course>70.12</course>
  <speed>0.01</speed>
  <fix>3d</fix>
</trkpt>
<trkpt lat="40.0728581" lon="-105.2306048">
  <ele>1586.02</ele>
  <time>2026-08-27T18:25:52Z</time>
  <course>176.92</course>
  <speed>0.0</speed>
  <fix>3d</fix>
</trkpt>
<trkpt lat="40.0728582" lon="-105.2306047">
  <ele>1586.08</ele>
  <time>2026-08-27T18:25:52Z</time>
  <course>70.13</course>
  <speed>0.01</speed>
  <fix>3d</fix>
</trkpt>
<trkpt lat="40.0728581" lon="-105.2306048">
  <ele>1586.02</ele>
  <time>2026-08-27T18:25:52Z</time>
  <course>163.29</course>
  <speed>0.0</speed>
  <fix>3d</fix>
</trkpt>
<trkpt lat="40.0728582" lon="-105.2306047">
  <ele>1586.08</ele>
  <time>2026-08-27T18:25:52Z</time>
  <course>70.14</course>
  <speed>0.01</speed>
  <fix>3d</fix>
</trkpt>
<trkpt lat="40.0728581" lon="-105.2306048">
  <ele>1586.02</ele>
  <time>2026-08-27T18:25:52Z</time>
  <course>146.93</course>
  <speed>0.0</speed>
  <fix>3d</fix>
</trkpt>
<trkpt lat="40.0728582" lon="-105.2306047">
  <ele>1586.08</ele>
  <time>2026-08-27T18:25:52Z</time>
  <course>70.15</course>
  <speed>0.01</speed>
  <fix>3d</fix>
</trkpt>
<trkpt lat="40.0728581" lon="-105.2306048">
  <ele>1586.02</ele>
  <time>2026-08-27T18:25:52Z</time>
  <course>148.88</course>
  <speed>0.0</speed>
  <fix>3d</fix>
</trkpt>
<trkpt lat="40.0728582" lon="-105.2306047">
  <ele>1586.08</ele>
  <time>2026-08-27T18:25:52Z</time>
  <course>70.16</course>
  <speed>0.01</speed>
  <fix>3d</fix>
</trkpt>
<trkpt lat="40.0728581" lon="-105.2306048">
  <ele>1586.02</ele>
  <time>2026-08-27T18:25:52Z</time>
  <course>152.28</course>
  <speed>0.0</speed>
  <fix>3d</fix>
</trkpt>
<trkpt lat="40.0728582" lon="-105.2306047">
  <ele>1586.08</ele>
  <time>2026-08-27T18:25:52Z</time>
  <course>70.17</course>
  <speed>0.01</speed>
  <fix>3d</fix>
</trkpt>
<trkpt lat="40.0728581" lon="-105.2306048">
  <ele>1586.02</ele>
  <time>2026-08-27T18:25:52Z</time>
  <course>151.37</course>
  <speed>0.0</speed>
  <fix>3d</fix>
</trkpt>
<trkpt lat="40.0728582" lon="-105.2306047">
  <ele>1586.08</ele>
  <time>2026-08-27T18:25:52Z</time>
  <course>70.17</course>
  <speed>0.01</speed>
  <fix>3d</fix>
</trkpt>
<trkpt lat="40.0728581" lon="-105.2306048">
  <ele>1586.02</ele>
  <time>2026-08-27T18:25:52Z</time>
  <course>151.04</course>
  <speed>0.0</speed>
  <fix>3d</fix>
</trkpt>
<trkpt lat="40.0728582" lon="-105.2306047">
  <ele>1586.08</ele>
  <time>2026-08-27T18:25:52Z</time>
  <course>70.18</course>
  <speed>0.01</speed>
  <fix>3d</fix>
</trkpt>
<trkpt lat="40.0728581" lon="-105.2306048">
  <ele>1586.02</ele>
  <time>2026-08-27T18:25:52Z</time>
  <course>151.2</course>
  <speed>0.0</speed>
  <fix>3d</fix>
</trkpt>
<trkpt lat="40.0728582" lon="-105.2306047">
  <ele>1586.08</ele>
  <time>2026-08-27T18:25:52Z</time>
  <course>70.19</course>
  <speed>0.01</speed>
  <fix>3d</fix>
</trkpt>
<trkpt lat="40.0728581" lon="-105.2306048">
  <ele>1586.02</ele>
  <time>2026-08-27T18:25:52Z</time>
  <course>151.22</course>
  <speed>0.0</speed>
  <fix>3d</fix>
</trkpt>
<trkpt lat="40.0728582" lon="-105.2306047">
  <ele>1586.08</ele>
  <time>2026-08-27T18:25:52Z</time>
  <course>70.2</course>
  <speed>0.01</speed>
  <fix>3d</fix>
</trkpt>
<trkpt lat="40.0728581" lon="-105.2306048">
  <ele>1586.02</ele>
  <time>2026-08-27T18:25:52Z</time>
  <course>151.2</course>
  <speed>0.0</speed>
  <fix>3d</fix>
</trkpt>
<trkpt lat="40.0728582" lon="-105.2306047">
  <ele>1586.08</ele>
  <time>2026-08-27T18:25:52Z</time>
  <course>70.2</course>
  <speed>0.01</speed>
  <fix>3d</fix>
</trkpt>
<trkpt lat="40.0728581" lon="-105.2306048">
  <ele>1586.02</ele>
  <time>2026-08-27T18:25:52Z</time>
  <course>151.2</course>
  <speed>0.0</speed>
  <fix>3d</fix>
</trkpt>
<trkpt lat="40.0728582" lon="-105.2306047">
  <ele>1586.08</ele>
  <time>2026-08-27T18:25:52Z</time>
  <course>70.21</course>
  <speed>0.01</speed>
  <fix>3d</fix>
</trkpt>
<trkpt lat="40.0728581" lon="-105.2306048">
  <ele>1586.02</ele>
  <time>2026-08-27T18:25:52Z</time>
  <course>151.2</course>
  <speed>0.0</speed>
  <fix>3d</fix>
</trkpt>
<trkpt lat="40.0728582" lon="-105.2306047">
  <ele>1586.08</ele>
  <time>2026-08-27T18:25:52Z</time>
  <course>70.22</course>
  <speed>0.01</speed>
  <fix>3d</fix>
</trkpt>
<trkpt lat="40.0728581" lon="-105.2306048">
  <ele>1586.02</ele>
  <time>2026-08-27T18:25:52Z</time>
  <course>151.2</course>
  <speed>0.0</speed>
  <fix>3d</fix>
</trkpt>
<trkpt lat="40.0728582" lon="-105.2306047">
  <ele>1586.08</ele>
  <time>2026-08-27T18:25:52Z</time>
  <course>70.22</course>
  <speed>0.01</speed>
  <fix>3d</fix>
</trkpt>
<trkpt lat="40.0728581" lon="-105.2306048">
  <ele>1586.02</ele>
  <time>2026-08-27T18:25:52Z</time>
  <course>151.13</course>
  <speed>0.0</speed>
  <fix>3d</fix>
</trkpt>
<trkpt lat="40.0728582" lon="-105.2306047">
  <ele>1586.08</ele>
  <time>2026-08-27T18:25:52Z</time>
  <course>70.22</course>
  <speed>0.01</speed>
  <fix>3d</fix>
</trkpt>
<trkpt lat="40.0728581" lon="-105.2306048">
  <ele>1586.02</ele>
  <time>2026-08-27T18:25:52Z</time>
  <course>151.02</course>
  <speed>0.0</speed>
  <fix>3d</fix>
</trkpt>
<trkpt lat="40.0728582" lon="-105.2306047">
  <ele>1586.08</ele>
  <time>2026-08-27T18:25:52Z</time>
  <course>70.22</course>
  <speed>0.01</speed>
  <fix>3d</fix>
</trkpt>
<trkpt lat="40.0728581" lon="-105.2306048">
  <ele>1586.02</ele>
  <time>2026-08-27T18:25:52Z</time>
  <course>150.91</course>
  <speed>0.0</speed>
  <fix>3d</fix>
</trkpt>
<trkpt lat="40.0728582" lon="-105.2306047">
  <ele>1586.08</ele>
  <time>2026-08-27T18:25:52Z</time>
  <course>70.22</course>
  <speed>0.01</speed>
  <fix>3d</fix>
</trkpt>
<trkpt lat="40.0728581" lon="-105.2306048">
  <ele>1586.02</ele>
  <time>2026-08-27T18:25:52Z</time>
  <course>150.81</course>
  <speed>0.0</speed>
  <fix>3d</fix>
</trkpt>
<trkpt lat="40.0728582" lon="-105.2306047">
  <ele>1586.08</ele>
  <time>2026-08-27T18:25:52Z</time>
  <course>70.22</course>
  <speed>0.01</speed>
  <fix>3d</fix>
</trkpt>
<trkpt lat="40.0728581" lon="-105.2306048">
  <ele>1586.02</ele>
  <time>2026-08-27T18:25:52Z</time>
  <course>150.7</course>
  <speed>0.0</speed>
  <fix>3d</fix>
</trkpt>
<trkpt lat="40.0728582" lon="-105.2306047">
  <ele>1586.08</ele>
  <time>2026-08-27T18:25:52Z</time>
  <course>70.22</course>
  <speed>0.01</speed>
  <fix>3d</fix>
</trkpt>
<trkpt lat="40.0728581" lon="-105.2306048">
  <ele>1586.02</ele>
  <time>2026-08-27T18:25:52Z</time>
  <course>150.6</course>
  <speed>0.0</speed>
  <fix>3d</fix>
</trkpt>
<trkpt lat="40.0728582" lon="-105.2306047">
  <ele>1586.09</ele>
  <time>2026-08-27T18:25:52Z</time>
  <course>70.21</course>
  <speed>0.01</speed>
  <fix>3d</fix>
</trkpt>
<trkpt lat="40.0728581" lon="-105.2306048">
  <ele>1586.02</ele>
  <time>2026-08-27T18:25:52Z</time>
  <course>150.5</course>
  <speed>0.0</speed>
  <fix>3d</fix>
</trkpt>
<trkpt lat="40.0728582" lon="-105.2306047">
  <ele>1586.09</ele>
  <time>2026-08-27T18:25:52Z</time>
  <course>70.2</course>
  <speed>0.01</speed>
  <fix>3d</fix>
</trkpt>
<trkpt lat="40.0728581" lon="-105.2306048">
  <ele>1586.02</ele>
  <time>2026-08-27T18:25:52Z</time>
  <course>150.39</course>
  <speed>0.0</speed>
  <fix>3d</fix>
</trkpt>
<trkpt lat="40.0728582" lon="-105.2306047">
  <ele>1586.09</ele>
  <time>2026-08-27T18:25:52Z</time>
  <course>70.19</course>
  <speed>0.01</speed>
  <fix>3d</fix>
</trkpt>
<trkpt lat="40.0728581" lon="-105.2306048">
  <ele>1586.02</ele>
  <time>2026-08-27T18:25:52Z</time>
  <course>150.28</course>
  <speed>0.0</speed>
  <fix>3d</fix>
</trkpt>
<trkpt lat="40.0728582" lon="-105.2306047">
  <ele>1586.09</ele>
  <time>2026-08-27T18:25:52Z</time>
  <course>70.18</course>
  <speed>0.01</speed>
  <fix>3d</fix>
</trkpt>
<trkpt lat="40.0728581" lon="-105.2306048">
  <ele>1586.02</ele>
  <time>2026-08-27T18:25:52Z</time>
  <course>150.17</course>
  <speed>0.0</speed>
  <fix>3d</fix>
</trkpt>
<trkpt lat="40.0728582" lon="-105.2306047">
  <ele>1586.1</ele>
  <time>2026-08-27T18:25:52Z</time>
  <course>70.17</course>
  <speed>0.01</speed>
  <fix>3d</fix>
</trkpt>
<trkpt lat="40.0728581" lon="-105.2306048">
  <ele>1586.02</ele>
  <time>2026-08-27T18:25:52Z</time>
  <course>181.35</course>
  <speed>0.0</speed>
  <fix>3d</fix>
</trkpt>
<trkpt lat="40.0728582" lon="-105.2306047">
  <ele>1586.1</ele>
  <time>2026-08-27T18:25:52Z</time>
  <course>70.16</course>
  <speed>0.01</speed>
  <fix>3d</fix>
</trkpt>
<trkpt lat="40.0728581" lon="-105.2306048">
  <ele>1586.02</ele>
  <time>2026-08-27T18:25:52Z</time>
  <course>147.39</course>
  <speed>0.0</speed>
  <fix>3d</fix>
</trkpt>
<trkpt lat="40.0728582" lon="-105.2306047">
  <ele>1586.1</ele>
  <time>2026-08-27T18:25:53Z</time>
  <course>70.14</course>
  <speed>0.01</speed>
  <fix>3d</fix>
</trkpt>
<trkpt lat="40.0728581" lon="-105.2306048">
  <ele>1586.02</ele>
  <time>2026-08-27T18:25:53Z</time>
  <course>137.89</course>
  <speed>0.0</speed>
  <fix>3d</fix>
</trkpt>
<trkpt lat="40.0728582" lon="-105.2306047">
  <ele>1586.1</ele>
  <time>2026-08-27T18:25:53Z</time>
  <course>70.12</course>
  <speed>0.01</speed>
  <fix>3d</fix>
</trkpt>
<trkpt lat="40.0728581" lon="-105.2306048">
  <ele>1586.02</ele>
  <time>2026-08-27T18:25:53Z</time>
  <course>357.57</course>
  <speed>0.0</speed>
  <fix>3d</fix>
</trkpt>
<trkpt lat="40.0728582" lon="-105.2306047">
  <ele>1586.1</ele>
  <time>2026-08-27T18:25:53Z</time>
  <course>70.1</course>
  <speed>0.01</speed>
  <fix>3d</fix>
</trkpt>
<trkpt lat="40.0728581" lon="-105.2306048">
  <ele>1586.02</ele>
  <time>2026-08-27T18:25:53Z</time>
  <course>268.1</course>
  <speed>0.0</speed>
  <fix>3d</fix>
</trkpt>
<trkpt lat="40.0728582" lon="-105.2306047">
  <ele>1586.11</ele>
  <time>2026-08-27T18:25:53Z</time>
  <course>70.08</course>
  <speed>0.01</speed>
  <fix>3d</fix>
</trkpt>
<trkpt lat="40.0728581" lon="-105.2306048">
  <ele>1586.02</ele>
  <time>2026-08-27T18:25:53Z</time>
  <course>152.72</course>
  <speed>0.0</speed>
  <fix>3d</fix>
</trkpt>
<trkpt lat="40.0728582" lon="-105.2306047">
  <ele>1586.11</ele>
  <time>2026-08-27T18:25:53Z</time>
  <course>70.06</course>
  <speed>0.01</speed>
  <fix>3d</fix>
</trkpt>
<trkpt lat="40.0728581" lon="-105.2306048">
  <ele>1586.02</ele>
  <time>2026-08-27T18:25:53Z</time>
  <course>335.96</course>
  <speed>0.0</speed>
  <fix>3d</fix>
</trkpt>
<trkpt lat="40.0728582" lon="-105.2306047">
  <ele>1586.11</ele>
  <time>2026-08-27T18:25:53Z</time>
  <course>70.04</course>
  <speed>0.01</speed>
  <fix>3d</fix>
</trkpt>
<trkpt lat="40.0728581" lon="-105.2306048">
  <ele>1586.02</ele>
  <time>2026-08-27T18:25:53Z</time>
  <course>335.3</course>
  <speed>0.0</speed>
  <fix>3d</fix>
</trkpt>
<trkpt lat="40.0728582" lon="-105.2306047">
  <ele>1586.11</ele>
  <time>2026-08-27T18:25:53Z</time>
  <course>70.01</course>
  <speed>0.01</speed>
  <fix>3d</fix>
</trkpt>
<trkpt lat="40.0728581" lon="-105.2306048">
  <ele>1586.02</ele>
  <time>2026-08-27T18:25:53Z</time>
  <course>342.84</course>
  <speed>0.0</speed>
  <fix>3d</fix>
</trkpt>
<trkpt lat="40.0728582" lon="-105.2306047">
  <ele>1586.11</ele>
  <time>2026-08-27T18:25:53Z</time>
  <course>69.99</course>
  <speed>0.01</speed>
  <fix>3d</fix>
</trkpt>
<trkpt lat="40.0728581" lon="-105.2306048">
  <ele>1586.02</ele>
  <time>2026-08-27T18:25:53Z</time>
  <course>336.43</course>
  <speed>0.0</speed>
  <fix>3d</fix>
</trkpt>
<trkpt lat="40.0728582" lon="-105.2306047">
  <ele>1586.1</ele>
  <time>2026-08-27T18:25:53Z</time>
  <course>69.96</course>
  <speed>0.01</speed>
  <fix>3d</fix>
</trkpt>
<trkpt lat="40.0728581" lon="-105.2306048">
  <ele>1586.02</ele>
  <time>2026-08-27T18:25:53Z</time>
  <course>335.27</course>
  <speed>0.0</speed>
  <fix>3d</fix>
</trkpt>
<trkpt lat="40.0728582" lon="-105.2306047">
  <ele>1586.1</ele>
  <time>2026-08-27T18:25:53Z</time>
  <course>69.93</course>
  <speed>0.01</speed>
  <fix>3d</fix>
</trkpt>
<trkpt lat="40.0728581" lon="-105.2306048">
  <ele>1586.02</ele>
  <time>2026-08-27T18:25:53Z</time>
  <course>23.43</course>
  <speed>0.0</speed>
  <fix>3d</fix>
</trkpt>
<trkpt lat="40.0728582" lon="-105.2306047">
  <ele>1586.11</ele>
  <time>2026-08-27T18:25:53Z</time>
  <course>69.9</course>
  <speed>0.01</speed>
  <fix>3d</fix>
</trkpt>
<trkpt lat="40.0728581" lon="-105.2306048">
  <ele>1586.02</ele>
  <time>2026-08-27T18:25:53Z</time>
  <course>65.92</course>
  <speed>0.0</speed>
  <fix>3d</fix>
</trkpt>
<trkpt lat="40.0728582" lon="-105.2306047">
  <ele>1586.11</ele>
  <time>2026-08-27T18:25:53Z</time>
  <course>69.87</course>
  <speed>0.01</speed>
  <fix>3d</fix>
</trkpt>
<trkpt lat="40.0728581" lon="-105.2306048">
  <ele>1586.02</ele>
  <time>2026-08-27T18:25:53Z</time>
  <course>330.95</course>
  <speed>0.0</speed>
  <fix>3d</fix>
</trkpt>
<trkpt lat="40.0728582" lon="-105.2306047">
  <ele>1586.11</ele>
  <time>2026-08-27T18:25:53Z</time>
  <course>69.83</course>
  <speed>0.01</speed>
  <fix>3d</fix>
</trkpt>
<trkpt lat="40.0728581" lon="-105.2306048">
  <ele>1586.02</ele>
  <time>2026-08-27T18:25:53Z</time>
  <course>332.83</course>
  <speed>0.0</speed>
  <fix>3d</fix>
</trkpt>
<trkpt lat="40.0728582" lon="-105.2306047">
  <ele>1586.11</ele>
  <time>2026-08-27T18:25:53Z</time>
  <course>69.8</course>
  <speed>0.01</speed>
  <fix>3d</fix>
</trkpt>
<trkpt lat="40.0728581" lon="-105.2306048">
  <ele>1586.02</ele>
  <time>2026-08-27T18:25:53Z</time>
  <course>342.25</course>
  <speed>0.0</speed>
  <fix>3d</fix>
</trkpt>
<trkpt lat="40.0728582" lon="-105.2306047">
  <ele>1586.11</ele>
  <time>2026-08-27T18:25:53Z</time>
  <course>69.76</course>
  <speed>0.01</speed>
  <fix>3d</fix>
</trkpt>
<trkpt lat="40.0728581" lon="-105.2306048">
  <ele>1586.02</ele>
  <time>2026-08-27T18:25:53Z</time>
  <course>335.73</course>
  <speed>0.0</speed>
  <fix>3d</fix>
</trkpt>
<trkpt lat="40.0728582" lon="-105.2306047">
  <ele>1586.11</ele>
  <time>2026-08-27T18:25:53Z</time>
  <course>69.73</course>
  <speed>0.01</speed>
  <fix>3d</fix>
</trkpt>
<trkpt lat="40.0728581" lon="-105.2306048">
  <ele>1586.02</ele>
  <time>2026-08-27T18:25:53Z</time>
  <course>335.14</course>
  <speed>0.0</speed>
  <fix>3d</fix>
</trkpt>
<trkpt lat="40.0728582" lon="-105.2306047">
  <ele>1586.11</ele>
  <time>2026-08-27T18:25:53Z</time>
  <course>69.69</course>
  <speed>0.02</speed>
  <fix>3d</fix>
</trkpt>
<trkpt lat="40.0728581" lon="-105.2306048">
  <ele>1586.02</ele>
  <time>2026-08-27T18:25:53Z</time>
  <course>158.47</course>
  <speed>0.0</speed>
  <fix>3d</fix>
</trkpt>
<trkpt lat="40.0728582" lon="-105.2306047">
  <ele>1586.11</ele>
  <time>2026-08-27T18:25:53Z</time>
  <course>69.65</course>
  <speed>0.02</speed>
  <fix>3d</fix>
</trkpt>
<trkpt lat="40.0728581" lon="-105.2306048">
  <ele>1586.02</ele>
  <time>2026-08-27T18:25:53Z</time>
  <course>342.43</course>
  <speed>0.0</speed>
  <fix>3d</fix>
</trkpt>
<trkpt lat="40.0728582" lon="-105.2306047">
  <ele>1586.11</ele>
  <time>2026-08-27T18:25:53Z</time>
  <course>69.61</course>
  <speed>0.02</speed>
  <fix>3d</fix>
</trkpt>
<trkpt lat="40.0728581" lon="-105.2306048">
  <ele>1586.02</ele>
  <time>2026-08-27T18:25:53Z</time>
  <course>338.7</course>
  <speed>0.0</speed>
  <fix>3d</fix>
</trkpt>
<trkpt lat="40.0728582" lon="-105.2306047">
  <ele>1586.11</ele>
  <time>2026-08-27T18:25:53Z</time>
  <course>69.57</course>
  <speed>0.02</speed>
  <fix>3d</fix>
</trkpt>
<trkpt lat="40.0728581" lon="-105.2306048">
  <ele>1586.02</ele>
  <time>2026-08-27T18:25:53Z</time>
  <course>333.96</course>
  <speed>0.0</speed>
  <fix>3d</fix>
</trkpt>
<trkpt lat="40.0728582" lon="-105.2306047">
  <ele>1586.11</ele>
  <time>2026-08-27T18:25:53Z</time>
  <course>69.52</course>
  <speed>0.02</speed>
  <fix>3d</fix>
</trkpt>
<trkpt lat="40.0728581" lon="-105.2306048">
  <ele>1586.02</ele>
  <time>2026-08-27T18:25:53Z</time>
  <course>334.48</course>
  <speed>0.0</speed>
  <fix>3d</fix>
</trkpt>
<trkpt lat="40.0728582" lon="-105.2306047">
  <ele>1586.11</ele>
  <time>2026-08-27T18:25:53Z</time>
  <course>69.48</course>
  <speed>0.02</speed>
  <fix>3d</fix>
</trkpt>
<trkpt lat="40.0728581" lon="-105.2306048">
  <ele>1586.02</ele>
  <time>2026-08-27T18:25:53Z</time>
  <course>334.77</course>
  <speed>0.0</speed>
  <fix>3d</fix>
</trkpt>
<trkpt lat="40.0728582" lon="-105.2306047">
  <ele>1586.11</ele>
  <time>2026-08-27T18:25:53Z</time>
  <course>69.43</course>
  <speed>0.02</speed>
  <fix>3d</fix>
</trkpt>
<trkpt lat="40.0728581" lon="-105.2306048">
  <ele>1586.02</ele>
  <time>2026-08-27T18:25:53Z</time>
  <course>334.5</course>
  <speed>0.0</speed>
  <fix>3d</fix>
</trkpt>
<trkpt lat="40.0728582" lon="-105.2306047">
  <ele>1586.11</ele>
  <time>2026-08-27T18:25:53Z</time>
  <course>69.39</course>
  <speed>0.02</speed>
  <fix>3d</fix>
</trkpt>
<trkpt lat="40.0728581" lon="-105.2306048">
  <ele>1586.02</ele>
  <time>2026-08-27T18:25:53Z</time>
  <course>316.72</course>
  <speed>0.0</speed>
  <fix>3d</fix>
</trkpt>
<trkpt lat="40.0728582" lon="-105.2306047">
  <ele>1586.11</ele>
  <time>2026-08-27T18:25:53Z</time>
  <course>69.34</course>
  <speed>0.02</speed>
  <fix>3d</fix>
</trkpt>
<trkpt lat="40.0728581" lon="-105.2306048">
  <ele>1586.02</ele>
  <time>2026-08-27T18:25:53Z</time>
  <course>317.13</course>
  <speed>0.0</speed>
  <fix>3d</fix>
</trkpt>
<trkpt lat="40.0728582" lon="-105.2306047">
  <ele>1586.11</ele>
  <time>2026-08-27T18:25:53Z</time>
  <course>69.3</course>
  <speed>0.02</speed>
  <fix>3d</fix>
</trkpt>
<trkpt lat="40.0728581" lon="-105.2306048">
  <ele>1586.02</ele>
  <time>2026-08-27T18:25:53Z</time>
  <course>336.1</course>
  <speed>0.0</speed>
  <fix>3d</fix>
</trkpt>
<trkpt lat="40.0728582" lon="-105.2306047">
  <ele>1586.12</ele>
  <time>2026-08-27T18:25:53Z</time>
  <course>69.25</course>
  <speed>0.02</speed>
  <fix>3d</fix>
</trkpt>
<trkpt lat="40.0728581" lon="-105.2306048">
  <ele>1586.02</ele>
  <time>2026-08-27T18:25:53Z</time>
  <course>335.58</course>
  <speed>0.0</speed>
  <fix>3d</fix>
</trkpt>
<trkpt lat="40.0728582" lon="-105.2306047">
  <ele>1586.12</ele>
  <time>2026-08-27T18:25:53Z</time>
  <course>69.2</course>
  <speed>0.02</speed>
  <fix>3d</fix>
</trkpt>
<trkpt lat="40.0728581" lon="-105.2306048">
  <ele>1586.02</ele>
  <time>2026-08-27T18:25:53Z</time>
  <course>333.2</course>
  <speed>0.0</speed>
  <fix>3d</fix>
</trkpt>
<trkpt lat="40.0728582" lon="-105.2306047">
  <ele>1586.11</ele>
  <time>2026-08-27T18:25:53Z</time>
  <course>69.15</course>
  <speed>0.02</speed>
  <fix>3d</fix>
</trkpt>
<trkpt lat="40.0728581" lon="-105.2306048">
  <ele>1586.02</ele>
  <time>2026-08-27T18:25:53Z</time>
  <course>333.27</course>
  <speed>0.0</speed>
  <fix>3d</fix>
</trkpt>
<trkpt lat="40.0728582" lon="-105.2306047">
  <ele>1586.11</ele>
  <time>2026-08-27T18:25:53Z</time>
  <course>69.1</course>
  <speed>0.02</speed>
  <fix>3d</fix>
</trkpt>
<trkpt lat="40.0728581" lon="-105.2306048">
  <ele>1586.02</ele>
  <time>2026-08-27T18:25:53Z</time>
  <course>333.42</course>
  <speed>0.0</speed>
  <fix>3d</fix>
</trkpt>
<trkpt lat="40.0728582" lon="-105.2306047">
  <ele>1586.11</ele>
  <time>2026-08-27T18:25:53Z</time>
  <course>69.06</course>
  <speed>0.02</speed>
  <fix>3d</fix>
</trkpt>
<trkpt lat="40.0728581" lon="-105.2306048">
  <ele>1586.02</ele>
  <time>2026-08-27T18:25:53Z</time>
  <course>333.19</course>
  <speed>0.0</speed>
  <fix>3d</fix>
</trkpt>
<trkpt lat="40.0728582" lon="-105.2306047">
  <ele>1586.11</ele>
  <time>2026-08-27T18:25:53Z</time>
  <course>69.01</course>
  <speed>0.02</speed>
  <fix>3d</fix>
</trkpt>
<trkpt lat="40.0728581" lon="-105.2306048">
  <ele>1586.02</ele>
  <time>2026-08-27T18:25:53Z</time>
  <course>333.12</course>
  <speed>0.0</speed>
  <fix>3d</fix>
</trkpt>
<trkpt lat="40.0728582" lon="-105.2306047">
  <ele>1586.11</ele>
  <time>2026-08-27T18:25:53Z</time>
  <course>68.97</course>
  <speed>0.02</speed>
  <fix>3d</fix>
</trkpt>
<trkpt lat="40.0728581" lon="-105.2306048">
  <ele>1586.02</ele>
  <time>2026-08-27T18:25:53Z</time>
  <course>333.06</course>
  <speed>0.0</speed>
  <fix>3d</fix>
</trkpt>
<trkpt lat="40.0728582" lon="-105.2306047">
  <ele>1586.11</ele>
  <time>2026-08-27T18:25:53Z</time>
  <course>68.92</course>
  <speed>0.02</speed>
  <fix>3d</fix>
</trkpt>
<trkpt lat="40.0728581" lon="-105.2306048">
  <ele>1586.02</ele>
  <time>2026-08-27T18:25:53Z</time>
  <course>333.05</course>
  <speed>0.0</speed>
  <fix>3d</fix>
</trkpt>
<trkpt lat="40.0728582" lon="-105.2306047">
  <ele>1586.11</ele>
  <time>2026-08-27T18:25:53Z</time>
  <course>68.88</course>
  <speed>0.02</speed>
  <fix>3d</fix>
</trkpt>
<trkpt lat="40.0728581" lon="-105.2306048">
  <ele>1586.02</ele>
  <time>2026-08-27T18:25:53Z</time>
  <course>328.07</course>
  <speed>0.0</speed>
  <fix>3d</fix>
</trkpt>
<trkpt lat="40.0728582" lon="-105.2306047">
  <ele>1586.1</ele>
  <time>2026-08-27T18:25:53Z</time>
  <course>68.84</course>
  <speed>0.02</speed>
  <fix>3d</fix>
</trkpt>
<trkpt lat="40.0728581" lon="-105.2306048">
  <ele>1586.02</ele>
  <time>2026-08-27T18:25:53Z</time>
  <course>332.59</course>
  <speed>0.0</speed>
  <fix>3d</fix>
</trkpt>
<trkpt lat="40.0728582" lon="-105.2306047">
  <ele>1586.1</ele>
  <time>2026-08-27T18:25:53Z</time>
  <course>68.79</course>
  <speed>0.02</speed>
  <fix>3d</fix>
</trkpt>
<trkpt lat="40.0728581" lon="-105.2306048">
  <ele>1586.02</ele>
  <time>2026-08-27T18:25:53Z</time>
  <course>336.78</course>
  <speed>0.0</speed>
  <fix>3d</fix>
</trkpt>
<trkpt lat="40.0728582" lon="-105.2306047">
  <ele>1586.1</ele>
  <time>2026-08-27T18:25:53Z</time>
  <course>68.75</course>
  <speed>0.02</speed>
  <fix>3d</fix>
</trkpt>
<trkpt lat="40.0728581" lon="-105.2306048">
  <ele>1586.02</ele>
  <time>2026-08-27T18:25:53Z</time>
  <course>333.06</course>
  <speed>0.0</speed>
  <fix>3d</fix>
</trkpt>
<trkpt lat="40.0728582" lon="-105.2306047">
  <ele>1586.1</ele>
  <time>2026-08-27T18:25:53Z</time>
  <course>68.71</course>
  <speed>0.02</speed>
  <fix>3d</fix>
</trkpt>
<trkpt lat="40.0728581" lon="-105.2306048">
  <ele>1586.02</ele>
  <time>2026-08-27T18:25:53Z</time>
  <course>332.42</course>
  <speed>0.0</speed>
  <fix>3d</fix>
</trkpt>
<trkpt lat="40.0728582" lon="-105.2306047">
  <ele>1586.1</ele>
  <time>2026-08-27T18:25:53Z</time>
  <course>68.67</course>
  <speed>0.02</speed>
  <fix>3d</fix>
</trkpt>
<trkpt lat="40.0728581" lon="-105.2306048">
  <ele>1586.02</ele>
  <time>2026-08-27T18:25:53Z</time>
  <course>332.79</course>
  <speed>0.0</speed>
  <fix>3d</fix>
</trkpt>
<trkpt lat="40.0728582" lon="-105.2306047">
  <ele>1586.1</ele>
  <time>2026-08-27T18:25:53Z</time>
  <course>68.63</course>
  <speed>0.02</speed>
  <fix>3d</fix>
</trkpt>
<trkpt lat="40.0728581" lon="-105.2306048">
  <ele>1586.02</ele>
  <time>2026-08-27T18:25:53Z</time>
  <course>332.89</course>
  <speed>0.0</speed>
  <fix>3d</fix>
</trkpt>
<trkpt lat="40.0728582" lon="-105.2306047">
  <ele>1586.1</ele>
  <time>2026-08-27T18:25:53Z</time>
  <course>68.59</course>
  <speed>0.02</speed>
  <fix>3d</fix>
</trkpt>
<trkpt lat="40.0728581" lon="-105.2306048">
  <ele>1586.02</ele>
  <time>2026-08-27T18:25:53Z</time>
  <course>332.64</course>
  <speed>0.0</speed>
  <fix>3d</fix>
</trkpt>
<trkpt lat="40.0728582" lon="-105.2306047">
  <ele>1586.09</ele>
  <time>2026-08-27T18:25:53Z</time>
  <course>68.55</course>
  <speed>0.02</speed>
  <fix>3d</fix>
</trkpt>
<trkpt lat="40.0728581" lon="-105.2306048">
  <ele>1586.02</ele>
  <time>2026-08-27T18:25:53Z</time>
  <course>332.5</course>
  <speed>0.0</speed>
  <fix>3d</fix>
</trkpt>
<trkpt lat="40.0728582" lon="-105.2306047">
  <ele>1586.09</ele>
  <time>2026-08-27T18:25:53Z</time>
  <course>68.52</course>
  <speed>0.02</speed>
  <fix>3d</fix>
</trkpt>
<trkpt lat="40.0728581" lon="-105.2306048">
  <ele>1586.02</ele>
  <time>2026-08-27T18:25:53Z</time>
  <course>332.68</course>
  <speed>0.0</speed>
  <fix>3d</fix>
</trkpt>
<trkpt lat="40.0728582" lon="-105.2306047">
  <ele>1586.09</ele>
  <time>2026-08-27T18:25:53Z</time>
  <course>68.48</course>
  <speed>0.02</speed>
  <fix>3d</fix>
</trkpt>
<trkpt lat="40.0728581" lon="-105.2306048">
  <ele>1586.02</ele>
  <time>2026-08-27T18:25:53Z</time>
  <course>332.64</course>
  <speed>0.0</speed>
  <fix>3d</fix>
</trkpt>
<trkpt lat="40.0728582" lon="-105.2306047">
  <ele>1586.09</ele>
  <time>2026-08-27T18:25:53Z</time>
  <course>68.45</course>
  <speed>0.02</speed>
  <fix>3d</fix>
</trkpt>
<trkpt lat="40.0728581" lon="-105.2306048">
  <ele>1586.02</ele>
  <time>2026-08-27T18:25:53Z</time>
  <course>332.46</course>
  <speed>0.0</speed>
  <fix>3d</fix>
</trkpt>
<trkpt lat="40.0728582" lon="-105.2306047">
  <ele>1586.09</ele>
  <time>2026-08-27T18:25:53Z</time>
  <course>68.41</course>
  <speed>0.02</speed>
  <fix>3d</fix>
</trkpt>
<trkpt lat="40.0728581" lon="-105.2306048">
  <ele>1586.02</ele>
  <time>2026-08-27T18:25:53Z</time>
  <course>333.04</course>
  <speed>0.0</speed>
  <fix>3d</fix>
</trkpt>
<trkpt lat="40.0728582" lon="-105.2306047">
  <ele>1586.09</ele>
  <time>2026-08-27T18:25:53Z</time>
  <course>68.38</course>
  <speed>0.02</speed>
  <fix>3d</fix>
</trkpt>
<trkpt lat="40.0728581" lon="-105.2306048">
  <ele>1586.02</ele>
  <time>2026-08-27T18:25:53Z</time>
  <course>341.33</course>
  <speed>0.0</speed>
  <fix>3d</fix>
</trkpt>
<trkpt lat="40.0728582" lon="-105.2306047">
  <ele>1586.09</ele>
  <time>2026-08-27T18:25:53Z</time>
  <course>68.35</course>
  <speed>0.02</speed>
  <fix>3d</fix>
</trkpt>
<trkpt lat="40.0728581" lon="-105.2306048">
  <ele>1586.02</ele>
  <time>2026-08-27T18:25:53Z</time>
  <course>341.64</course>
  <speed>0.0</speed>
  <fix>3d</fix>
</trkpt>
<trkpt lat="40.0728582" lon="-105.2306047">
  <ele>1586.09</ele>
  <time>2026-08-27T18:25:53Z</time>
  <course>68.32</course>
  <speed>0.02</speed>
  <fix>3d</fix>
</trkpt>
<trkpt lat="40.0728581" lon="-105.2306048">
  <ele>1586.02</ele>
  <time>2026-08-27T18:25:53Z</time>
  <course>330.68</course>
  <speed>0.0</speed>
  <fix>3d</fix>
</trkpt>
<trkpt lat="40.0728582" lon="-105.2306047">
  <ele>1586.09</ele>
  <time>2026-08-27T18:25:53Z</time>
  <course>68.28</course>
  <speed>0.02</speed>
  <fix>3d</fix>
</trkpt>
<trkpt lat="40.0728581" lon="-105.2306048">
  <ele>1586.02</ele>
  <time>2026-08-27T18:25:53Z</time>
  <course>331.97</course>
  <speed>0.0</speed>
  <fix>3d</fix>
</trkpt>
<trkpt lat="40.0728582" lon="-105.2306047">
  <ele>1586.09</ele>
  <time>2026-08-27T18:25:53Z</time>
  <course>68.25</course>
  <speed>0.02</speed>
  <fix>3d</fix>
</trkpt>
<trkpt lat="40.0728581" lon="-105.2306048">
  <ele>1586.02</ele>
  <time>2026-08-27T18:25:53Z</time>
  <course>332.94</course>
  <speed>0.0</speed>
  <fix>3d</fix>
</trkpt>
<trkpt lat="40.0728582" lon="-105.2306047">
  <ele>1586.09</ele>
  <time>2026-08-27T18:25:53Z</time>
  <course>68.22</course>
  <speed>0.02</speed>
  <fix>3d</fix>
</trkpt>
<trkpt lat="40.0728581" lon="-105.2306048">
  <ele>1586.02</ele>
  <time>2026-08-27T18:25:53Z</time>
  <course>332.58</course>
  <speed>0.0</speed>
  <fix>3d</fix>
</trkpt>
<trkpt lat="40.0728582" lon="-105.2306047">
  <ele>1586.09</ele>
  <time>2026-08-27T18:25:53Z</time>
  <course>68.2</course>
  <speed>0.02</speed>
  <fix>3d</fix>
</trkpt>
<trkpt lat="40.0728581" lon="-105.2306048">
  <ele>1586.02</ele>
  <time>2026-08-27T18:25:53Z</time>
  <course>332.51</course>
  <speed>0.0</speed>
  <fix>3d</fix>
</trkpt>
<trkpt lat="40.0728582" lon="-105.2306047">
  <ele>1586.1</ele>
  <time>2026-08-27T18:25:53Z</time>
  <course>68.17</course>
  <speed>0.02</speed>
  <fix>3d</fix>
</trkpt>
<trkpt lat="40.0728581" lon="-105.2306048">
  <ele>1586.02</ele>
  <time>2026-08-27T18:25:53Z</time>
  <course>332.32</course>
  <speed>0.0</speed>
  <fix>3d</fix>
</trkpt>
<trkpt lat="40.0728582" lon="-105.2306047">
  <ele>1586.1</ele>
  <time>2026-08-27T18:25:53Z</time>
  <course>68.14</course>
  <speed>0.02</speed>
  <fix>3d</fix>
</trkpt>
<trkpt lat="40.0728581" lon="-105.2306048">
  <ele>1586.02</ele>
  <time>2026-08-27T18:25:53Z</time>
  <course>334.19</course>
  <speed>0.0</speed>
  <fix>3d</fix>
</trkpt>
<trkpt lat="40.0728582" lon="-105.2306047">
  <ele>1586.1</ele>
  <time>2026-08-27T18:25:53Z</time>
  <course>68.12</course>
  <speed>0.02</speed>
  <fix>3d</fix>
</trkpt>
<trkpt lat="40.0728581" lon="-105.2306048">
  <ele>1586.02</ele>
  <time>2026-08-27T18:25:53Z</time>
  <course>334.78</course>
  <speed>0.0</speed>
  <fix>3d</fix>
</trkpt>
<trkpt lat="40.0728582" lon="-105.2306047">
  <ele>1586.1</ele>
  <time>2026-08-27T18:25:53Z</time>
  <course>68.09</course>
  <speed>0.02</speed>
  <fix>3d</fix>
</trkpt>
<trkpt lat="40.0728581" lon="-105.2306048">
  <ele>1586.02</ele>
  <time>2026-08-27T18:25:53Z</time>
  <course>333.09</course>
  <speed>0.0</speed>
  <fix>3d</fix>
</trkpt>
<trkpt lat="40.0728582" lon="-105.2306047">
  <ele>1586.11</ele>
  <time>2026-08-27T18:25:53Z</time>
  <course>68.07</course>
  <speed>0.02</speed>
  <fix>3d</fix>
</trkpt>
<trkpt lat="40.0728581" lon="-105.2306048">
  <ele>1586.02</ele>
  <time>2026-08-27T18:25:53Z</time>
  <course>331.83</course>
  <speed>0.0</speed>
  <fix>3d</fix>
</trkpt>
<trkpt lat="40.0728582" lon="-105.2306047">
  <ele>1586.11</ele>
  <time>2026-08-27T18:25:53Z</time>
  <course>68.04</course>
  <speed>0.02</speed>
  <fix>3d</fix>
</trkpt>
<trkpt lat="40.0728581" lon="-105.2306048">
  <ele>1586.02</ele>
  <time>2026-08-27T18:25:53Z</time>
  <course>332.38</course>
  <speed>0.0</speed>
  <fix>3d</fix>
</trkpt>
<trkpt lat="40.0728582" lon="-105.2306047">
  <ele>1586.11</ele>
  <time>2026-08-27T18:25:53Z</time>
  <course>68.02</course>
  <speed>0.02</speed>
  <fix>3d</fix>
</trkpt>
<trkpt lat="40.0728581" lon="-105.2306048">
  <ele>1586.02</ele>
  <time>2026-08-27T18:25:53Z</time>
  <course>332.39</course>
  <speed>0.0</speed>
  <fix>3d</fix>
</trkpt>
<trkpt lat="40.0728582" lon="-105.2306047">
  <ele>1586.1</ele>
  <time>2026-08-27T18:25:53Z</time>
  <course>68.0</course>
  <speed>0.02</speed>
  <fix>3d</fix>
</trkpt>
<trkpt lat="40.0728581" lon="-105.2306048">
  <ele>1586.02</ele>
  <time>2026-08-27T18:25:53Z</time>
  <course>332.27</course>
  <speed>0.0</speed>
  <fix>3d</fix>
</trkpt>
<trkpt lat="40.0728582" lon="-105.2306047">
  <ele>1586.1</ele>
  <time>2026-08-27T18:25:53Z</time>
  <course>67.98</course>
  <speed>0.02</speed>
  <fix>3d</fix>
</trkpt>
<trkpt lat="40.0728581" lon="-105.2306048">
  <ele>1586.02</ele>
  <time>2026-08-27T18:25:53Z</time>
  <course>332.33</course>
  <speed>0.0</speed>
  <fix>3d</fix>
</trkpt>
<trkpt lat="40.0728582" lon="-105.2306047">
  <ele>1586.1</ele>
  <time>2026-08-27T18:25:53Z</time>
  <course>67.95</course>
  <speed>0.02</speed>
  <fix>3d</fix>
</trkpt>
<trkpt lat="40.0728581" lon="-105.2306048">
  <ele>1586.02</ele>
  <time>2026-08-27T18:25:53Z</time>
  <course>332.28</course>
  <speed>0.0</speed>
  <fix>3d</fix>
</trkpt>
<trkpt lat="40.0728582" lon="-105.2306047">
  <ele>1586.1</ele>
  <time>2026-08-27T18:25:53Z</time>
  <course>67.93</course>
  <speed>0.02</speed>
  <fix>3d</fix>
</trkpt>
<trkpt lat="40.0728581" lon="-105.2306048">
  <ele>1586.02</ele>
  <time>2026-08-27T18:25:53Z</time>
  <course>320.64</course>
  <speed>0.0</speed>
  <fix>3d</fix>
</trkpt>
<trkpt lat="40.0728582" lon="-105.2306047">
  <ele>1586.1</ele>
  <time>2026-08-27T18:25:53Z</time>
  <course>67.91</course>
  <speed>0.02</speed>
  <fix>3d</fix>
</trkpt>
<trkpt lat="40.0728581" lon="-105.2306048">
  <ele>1586.02</ele>
  <time>2026-08-27T18:25:53Z</time>
  <course>322.8</course>
  <speed>0.0</speed>
  <fix>3d</fix>
</trkpt>
<trkpt lat="40.0728582" lon="-105.2306047">
  <ele>1586.1</ele>
  <time>2026-08-27T18:25:53Z</time>
  <course>67.9</course>
  <speed>0.02</speed>
  <fix>3d</fix>
</trkpt>
<trkpt lat="40.0728581" lon="-105.2306048">
  <ele>1586.02</ele>
  <time>2026-08-27T18:25:53Z</time>
  <course>333.16</course>
  <speed>0.0</speed>
  <fix>3d</fix>
</trkpt>
<trkpt lat="40.0728582" lon="-105.2306047">
  <ele>1586.1</ele>
  <time>2026-08-27T18:25:53Z</time>
  <course>67.88</course>
  <speed>0.02</speed>
  <fix>3d</fix>
</trkpt>
<trkpt lat="40.0728581" lon="-105.2306048">
  <ele>1586.02</ele>
  <time>2026-08-27T18:25:53Z</time>
  <course>333.15</course>
  <speed>0.0</speed>
  <fix>3d</fix>
</trkpt>
<trkpt lat="40.0728582" lon="-105.2306047">
  <ele>1586.1</ele>
  <time>2026-08-27T18:25:53Z</time>
  <course>67.86</course>
  <speed>0.02</speed>
  <fix>3d</fix>
</trkpt>
<trkpt lat="40.0728581" lon="-105.2306048">
  <ele>1586.02</ele>
  <time>2026-08-27T18:25:53Z</time>
  <course>331.76</course>
  <speed>0.0</speed>
  <fix>3d</fix>
</trkpt>
<trkpt lat="40.0728582" lon="-105.2306047">
  <ele>1586.1</ele>
  <time>2026-08-27T18:25:53Z</time>
  <course>67.84</course>
  <speed>0.02</speed>
  <fix>3d</fix>
</trkpt>
<trkpt lat="40.0728581" lon="-105.2306048">
  <ele>1586.02</ele>
  <time>2026-08-27T18:25:53Z</time>
  <course>331.81</course>
  <speed>0.0</speed>
  <fix>3d</fix>
</trkpt>
<trkpt lat="40.0728582" lon="-105.2306047">
  <ele>1586.1</ele>
  <time>2026-08-27T18:25:53Z</time>
  <course>67.83</course>
  <speed>0.02</speed>
  <fix>3d</fix>
</trkpt>
<trkpt lat="40.0728581" lon="-105.2306048">
  <ele>1586.02</ele>
  <time>2026-08-27T18:25:53Z</time>
  <course>332.03</course>
  <speed>0.0</speed>
  <fix>3d</fix>
</trkpt>
<trkpt lat="40.0728582" lon="-105.2306047">
  <ele>1586.1</ele>
  <time>2026-08-27T18:25:53Z</time>
  <course>67.81</course>
  <speed>0.02</speed>
  <fix>3d</fix>
</trkpt>
<trkpt lat="40.0728581" lon="-105.2306048">
  <ele>1586.02</ele>
  <time>2026-08-27T18:25:53Z</time>
  <course>331.93</course>
  <speed>0.0</speed>
  <fix>3d</fix>
</trkpt>
<trkpt lat="40.0728582" lon="-105.2306047">
  <ele>1586.1</ele>
  <time>2026-08-27T18:25:53Z</time>
  <course>67.8</course>
  <speed>0.02</speed>
  <fix>3d</fix>
</trkpt>
<trkpt lat="40.0728581" lon="-105.2306048">
  <ele>1586.02</ele>
  <time>2026-08-27T18:25:53Z</time>
  <course>331.87</course>
  <speed>0.0</speed>
  <fix>3d</fix>
</trkpt>
<trkpt lat="40.0728582" lon="-105.2306047">
  <ele>1586.1</ele>
  <time>2026-08-27T18:25:53Z</time>
  <course>67.79</course>
  <speed>0.02</speed>
  <fix>3d</fix>
</trkpt>
<trkpt lat="40.0728581" lon="-105.2306048">
  <ele>1586.02</ele>
  <time>2026-08-27T18:25:53Z</time>
  <course>331.97</course>
  <speed>0.0</speed>
  <fix>3d</fix>
</trkpt>
<trkpt lat="40.0728582" lon="-105.2306047">
  <ele>1586.1</ele>
  <time>2026-08-27T18:25:53Z</time>
  <course>67.77</course>
  <speed>0.02</speed>
  <fix>3d</fix>
</trkpt>
<trkpt lat="40.0728581" lon="-105.2306048">
  <ele>1586.02</ele>
  <time>2026-08-27T18:25:53Z</time>
  <course>331.92</course>
  <speed>0.0</speed>
  <fix>3d</fix>
</trkpt>
<trkpt lat="40.0728582" lon="-105.2306047">
  <ele>1586.1</ele>
  <time>2026-08-27T18:25:54Z</time>
  <course>67.76</course>
  <speed>0.02</speed>
  <fix>3d</fix>
</trkpt>
<trkpt lat="40.0728581" lon="-105.2306048">
  <ele>1586.02</ele>
  <time>2026-08-27T18:25:54Z</time>
  <course>331.94</course>
  <speed>0.0</speed>
  <fix>3d</fix>
</trkpt>
<trkpt lat="40.0728582" lon="-105.2306047">
  <ele>1586.1</ele>
  <time>2026-08-27T18:25:54Z</time>
  <course>67.75</course>
  <speed>0.02</speed>
  <fix>3d</fix>
</trkpt>
<trkpt lat="40.0728581" lon="-105.2306049">
  <ele>1586.02</ele>
  <time>2026-08-27T18:25:54Z</time>
  <course>332.5</course>
  <speed>0.0</speed>
  <fix>3d</fix>
</trkpt>
<trkpt lat="40.0728582" lon="-105.2306047">
  <ele>1586.1</ele>
  <time>2026-08-27T18:25:54Z</time>
  <course>67.74</course>
  <speed>0.02</speed>
  <fix>3d</fix>
</trkpt>
<trkpt lat="40.0728581" lon="-105.230605">
  <ele>1586.02</ele>
  <time>2026-08-27T18:25:54Z</time>
  <course>334.24</course>
  <speed>0.0</speed>
  <fix>3d</fix>
</trkpt>
<trkpt lat="40.0728582" lon="-105.2306047">
  <ele>1586.1</ele>
  <time>2026-08-27T18:25:54Z</time>
  <course>67.73</course>
  <speed>0.02</speed>
  <fix>3d</fix>
</trkpt>
<trkpt lat="40.0728581" lon="-105.230605">
  <ele>1586.02</ele>
  <time>2026-08-27T18:25:54Z</time>
  <course>332.77</course>
  <speed>0.0</speed>
  <fix>3d</fix>
</trkpt>
<trkpt lat="40.0728582" lon="-105.2306047">
  <ele>1586.1</ele>
  <time>2026-08-27T18:25:54Z</time>
  <course>67.72</course>
  <speed>0.02</speed>
  <fix>3d</fix>
</trkpt>
<trkpt lat="40.0728581" lon="-105.230605">
  <ele>1586.02</ele>
  <time>2026-08-27T18:25:54Z</time>
  <course>331.56</course>
  <speed>0.0</speed>
  <fix>3d</fix>
</trkpt>
<trkpt lat="40.0728582" lon="-105.2306047">
  <ele>1586.1</ele>
  <time>2026-08-27T18:25:54Z</time>
  <course>67.71</course>
  <speed>0.02</speed>
  <fix>3d</fix>
</trkpt>
<trkpt lat="40.0728581" lon="-105.230605">
  <ele>1586.02</ele>
  <time>2026-08-27T18:25:54Z</time>
  <course>331.91</course>
  <speed>0.0</speed>
  <fix>3d</fix>
</trkpt>
<trkpt lat="40.0728582" lon="-105.2306048">
  <ele>1586.1</ele>
  <time>2026-08-27T18:25:54Z</time>
  <course>67.7</course>
  <speed>0.02</speed>
  <fix>3d</fix>
</trkpt>
<trkpt lat="40.0728581" lon="-105.230605">
  <ele>1586.02</ele>
  <time>2026-08-27T18:25:54Z</time>
  <course>332.03</course>
  <speed>0.0</speed>
  <fix>3d</fix>
</trkpt>
<trkpt lat="40.0728582" lon="-105.2306048">
  <ele>1586.09</ele>
  <time>2026-08-27T18:25:54Z</time>
  <course>67.7</course>
  <speed>0.02</speed>
  <fix>3d</fix>
</trkpt>
<trkpt lat="40.0728581" lon="-105.230605">
  <ele>1586.02</ele>
  <time>2026-08-27T18:25:54Z</time>
  <course>331.97</course>
  <speed>0.0</speed>
  <fix>3d</fix>
</trkpt>
<trkpt lat="40.0728582" lon="-105.2306048">
  <ele>1586.09</ele>
  <time>2026-08-27T18:25:54Z</time>
  <course>67.69</course>
  <speed>0.02</speed>
  <fix>3d</fix>
</trkpt>
<trkpt lat="40.0728581" lon="-105.230605">
  <ele>1586.02</ele>
  <time>2026-08-27T18:25:54Z</time>
  <course>331.96</course>
  <speed>0.0</speed>
  <fix>3d</fix>
</trkpt>
<trkpt lat="40.0728582" lon="-105.2306048">
  <ele>1586.09</ele>
  <time>2026-08-27T18:25:54Z</time>
  <course>67.68</course>
  <speed>0.02</speed>
  <fix>3d</fix>
</trkpt>
<trkpt lat="40.0728581" lon="-105.230605">
  <ele>1586.02</ele>
  <time>2026-08-27T18:25:54Z</time>
  <course>331.96</course>
  <speed>0.0</speed>
  <fix>3d</fix>
</trkpt>
<trkpt lat="40.0728582" lon="-105.2306048">
  <ele>1586.09</ele>
  <time>2026-08-27T18:25:54Z</time>
  <course>67.68</course>
  <speed>0.02</speed>
  <fix>3d</fix>
</trkpt>
<trkpt lat="40.0728581" lon="-105.230605">
  <ele>1586.02</ele>
  <time>2026-08-27T18:25:54Z</time>
  <course>337.31</course>
  <speed>0.0</speed>
  <fix>3d</fix>
</trkpt>
<trkpt lat="40.0728582" lon="-105.2306048">
  <ele>1586.09</ele>
  <time>2026-08-27T18:25:54Z</time>
  <course>67.67</course>
  <speed>0.02</speed>
  <fix>3d</fix>
</trkpt>
<trkpt lat="40.0728581" lon="-105.230605">
  <ele>1586.02</ele>
  <time>2026-08-27T18:25:54Z</time>
  <course>342.1</course>
  <speed>0.0</speed>
  <fix>3d</fix>
</trkpt>
<trkpt lat="40.0728582" lon="-105.2306048">
  <ele>1586.09</ele>
  <time>2026-08-27T18:25:54Z</time>
  <course>67.67</course>
  <speed>0.02</speed>
  <fix>3d</fix>
</trkpt>
<trkpt lat="40.0728581" lon="-105.230605">
  <ele>1586.02</ele>
  <time>2026-08-27T18:25:54Z</time>
  <course>334.41</course>
  <speed>0.0</speed>
  <fix>3d</fix>
</trkpt>
<trkpt lat="40.0728582" lon="-105.2306048">
  <ele>1586.09</ele>
  <time>2026-08-27T18:25:54Z</time>
  <course>67.67</course>
  <speed>0.02</speed>
  <fix>3d</fix>
</trkpt>
<trkpt lat="40.0728581" lon="-105.230605">
  <ele>1586.02</ele>
  <time>2026-08-27T18:25:54Z</time>
  <course>330.59</course>
  <speed>0.0</speed>
  <fix>3d</fix>
</trkpt>
<trkpt lat="40.0728582" lon="-105.2306048">
  <ele>1586.1</ele>
  <time>2026-08-27T18:25:54Z</time>
  <course>67.66</course>
  <speed>0.02</speed>
  <fix>3d</fix>
</trkpt>
<trkpt lat="40.0728581" lon="-105.230605">
  <ele>1586.02</ele>
  <time>2026-08-27T18:25:54Z</time>
  <course>332.2</course>
  <speed>0.0</speed>
  <fix>3d</fix>
</trkpt>
<trkpt lat="40.0728582" lon="-105.2306049">
  <ele>1586.1</ele>
  <time>2026-08-27T18:25:54Z</time>
  <course>67.66</course>
  <speed>0.02</speed>
  <fix>3d</fix>
</trkpt>
<trkpt lat="40.0728581" lon="-105.230605">
  <ele>1586.02</ele>
  <time>2026-08-27T18:25:54Z</time>
  <course>332.58</course>
  <speed>0.0</speed>
  <fix>3d</fix>
</trkpt>
<trkpt lat="40.0728582" lon="-105.2306049">
  <ele>1586.1</ele>
  <time>2026-08-27T18:25:54Z</time>
  <course>67.66</course>
  <speed>0.02</speed>
  <fix>3d</fix>
</trkpt>
<trkpt lat="40.0728581" lon="-105.230605">
  <ele>1586.02</ele>
  <time>2026-08-27T18:25:54Z</time>
  <course>332.32</course>
  <speed>0.0</speed>
  <fix>3d</fix>
</trkpt>
<trkpt lat="40.0728582" lon="-105.2306049">
  <ele>1586.1</ele>
  <time>2026-08-27T18:25:54Z</time>
  <course>67.66</course>
  <speed>0.02</speed>
  <fix>3d</fix>
</trkpt>
<trkpt lat="40.0728582" lon="-105.2306049">
  <ele>1586.11</ele>
  <time>2026-08-27T18:25:54Z</time>
  <course>67.65</course>
  <speed>0.02</speed>
  <fix>3d</fix>
</trkpt>
<trkpt lat="40.0728581" lon="-105.230605">
  <ele>1586.02</ele>
  <time>2026-08-27T18:25:54Z</time>
  <course>332.29</course>
  <speed>0.0</speed>
  <fix>3d</fix>
</trkpt>
<trkpt lat="40.0728582" lon="-105.2306049">
  <ele>1586.17</ele>
  <time>2026-08-27T18:25:54Z</time>
  <course>67.59</course>
  <speed>0.02</speed>
  <fix>3d</fix>
</trkpt>
<trkpt lat="40.0728581" lon="-105.230605">
  <ele>1586.03</ele>
  <time>2026-08-27T18:25:54Z</time>
  <course>329.84</course>
  <speed>0.0</speed>
  <fix>3d</fix>
</trkpt>
<trkpt lat="40.0728582" lon="-105.2306049">
  <ele>1586.21</ele>
  <time>2026-08-27T18:25:54Z</time>
  <course>67.53</course>
  <speed>0.02</speed>
  <fix>3d</fix>
</trkpt>
<trkpt lat="40.0728581" lon="-105.230605">
  <ele>1586.08</ele>
  <time>2026-08-27T18:25:54Z</time>
  <course>352.55</course>
  <speed>0.0</speed>
  <fix>3d</fix>
</trkpt>
<trkpt lat="40.0728582" lon="-105.2306049">
  <ele>1586.27</ele>
  <time>2026-08-27T18:25:54Z</time>
  <course>64.56</course>
  <speed>0.05099019513592785</speed>
  <fix>3d</fix>
</trkpt>
<trkpt lat="40.0728581" lon="-105.230605">
  <ele>1586.13</ele>
  <time>2026-08-27T18:25:54Z</time>
  <course>66.78</course>
  <speed>0.0</speed>
  <fix>3d</fix>
</trkpt>
<trkpt lat="40.0728584" lon="-105.230605">
  <ele>1586.53</ele>
  <time>2026-08-27T18:25:54Z</time>
  <course>61.92</course>
  <speed>0.15652475842498528</speed>
  <fix>3d</fix>
</trkpt>
<trkpt lat="40.0728581" lon="-105.230605">
  <ele>1586.21</ele>
  <time>2026-08-27T18:25:54Z</time>
  <course>324.16</course>
  <speed>0.04</speed>
  <fix>3d</fix>
</trkpt>
<trkpt lat="40.0728584" lon="-105.230605">
  <ele>1586.59</ele>
  <time>2026-08-27T18:25:54Z</time>
  <course>61.65</course>
  <speed>0.17</speed>
  <fix>3d</fix>
</trkpt>
<trkpt lat="40.0728586" lon="-105.2306053">
  <ele>1586.86</ele>
  <time>2026-08-27T18:25:54Z</time>
  <course>60.81</course>
  <speed>0.20808652046684814</speed>
  <fix>3d</fix>
</trkpt>
<trkpt lat="40.0728581" lon="-105.230605">
  <ele>1586.42</ele>
  <time>2026-08-27T18:25:54Z</time>
  <course>320.0</course>
  <speed>0.12</speed>
  <fix>3d</fix>
</trkpt>
<trkpt lat="40.0728587" lon="-105.2306054">
  <ele>1586.96</ele>
  <time>2026-08-27T18:25:54Z</time>
  <course>60.62</course>
  <speed>0.21400934559032694</speed>
  <fix>3d</fix>
</trkpt>
<trkpt lat="40.0728589" lon="-105.2306056">
  <ele>1587.19</ele>
  <time>2026-08-27T18:25:54Z</time>
  <course>60.34</course>
  <speed>0.22671568097509268</speed>
  <fix>3d</fix>
</trkpt>
<trkpt lat="40.0728583" lon="-105.2306053">
  <ele>1586.75</ele>
  <time>2026-08-27T18:25:54Z</time>
  <course>314.85</course>
  <speed>0.19</speed>
  <fix>3d</fix>
</trkpt>
<trkpt lat="40.0728589" lon="-105.2306057">
  <ele>1587.25</ele>
  <time>2026-08-27T18:25:54Z</time>
  <course>60.3</course>
  <speed>0.23345235059857505</speed>
  <fix>3d</fix>
</trkpt>
<trkpt lat="40.0728591" lon="-105.230606">
  <ele>1587.52</ele>
  <time>2026-08-27T18:25:54Z</time>
  <course>60.22</course>
  <speed>0.24083189157584592</speed>
  <fix>3d</fix>
</trkpt>
<trkpt lat="40.0728585" lon="-105.2306057">
  <ele>1587.08</ele>
  <time>2026-08-27T18:25:54Z</time>
  <course>308.96</course>
  <speed>0.22</speed>
  <fix>3d</fix>
</trkpt>
<trkpt lat="40.0728592" lon="-105.2306062">
  <ele>1587.61</ele>
  <time>2026-08-27T18:25:54Z</time>
  <course>60.22</course>
  <speed>0.24839484696748443</speed>
  <fix>3d</fix>
</trkpt>
<trkpt lat="40.0728593" lon="-105.2306065">
  <ele>1587.88</ele>
  <time>2026-08-27T18:25:54Z</time>
  <course>60.28</course>
  <speed>0.24413111231467405</speed>
  <fix>3d</fix>
</trkpt>
<trkpt lat="40.0728588" lon="-105.2306061">
  <ele>1587.41</ele>
  <time>2026-08-27T18:25:54Z</time>
  <course>303.11</course>
  <speed>0.23</speed>
  <fix>3d</fix>
</trkpt>
<trkpt lat="40.0728594" lon="-105.2306067">
  <ele>1587.98</ele>
  <time>2026-08-27T18:25:54Z</time>
  <course>60.31</course>
  <speed>0.24413111231467405</speed>
  <fix>3d</fix>
</trkpt>
<trkpt lat="40.0728595" lon="-105.230607">
  <ele>1588.24</ele>
  <time>2026-08-27T18:25:54Z</time>
  <course>60.43</course>
  <speed>0.25553864678361277</speed>
  <fix>3d</fix>
</trkpt>
<trkpt lat="40.0728591" lon="-105.2306066">
  <ele>1587.76</ele>
  <time>2026-08-27T18:25:54Z</time>
  <course>297.8</course>
  <speed>0.24</speed>
  <fix>3d</fix>
</trkpt>
<trkpt lat="40.0728595" lon="-105.2306071">
  <ele>1588.27</ele>
  <time>2026-08-27T18:25:54Z</time>
  <course>60.45</course>
  <speed>0.25553864678361277</speed>
  <fix>3d</fix>
</trkpt>
<trkpt lat="40.0728596" lon="-105.2306076">
  <ele>1588.59</ele>
  <time>2026-08-27T18:25:54Z</time>
  <course>60.63</course>
  <speed>0.25495097567963926</speed>
  <fix>3d</fix>
</trkpt>
<trkpt lat="40.0728593" lon="-105.2306072">
  <ele>1588.1</ele>
  <time>2026-08-27T18:25:54Z</time>
  <course>293.07</course>
  <speed>0.25</speed>
  <fix>3d</fix>
</trkpt>
<trkpt lat="40.0728597" lon="-105.2306078">
  <ele>1588.69</ele>
  <time>2026-08-27T18:25:54Z</time>
  <course>60.69</course>
  <speed>0.2640075756488817</speed>
  <fix>3d</fix>
</trkpt>
<trkpt lat="40.0728598" lon="-105.2306082">
  <ele>1588.96</ele>
  <time>2026-08-27T18:25:54Z</time>
  <course>61.37</course>
  <speed>0.2692582403567252</speed>
  <fix>3d</fix>
</trkpt>
<trkpt lat="40.0728594" lon="-105.2306078">
  <ele>1588.46</ele>
  <time>2026-08-27T18:25:54Z</time>
  <course>289.01</course>
  <speed>0.26</speed>
  <fix>3d</fix>
</trkpt>
<trkpt lat="40.0728598" lon="-105.2306084">
  <ele>1589.07</ele>
  <time>2026-08-27T18:25:54Z</time>
  <course>61.44</course>
  <speed>0.2692582403567252</speed>
  <fix>3d</fix>
</trkpt>
<trkpt lat="40.0728599" lon="-105.2306089">
  <ele>1589.32</ele>
  <time>2026-08-27T18:25:54Z</time>
  <course>60.19</course>
  <speed>0.2751363298439521</speed>
  <fix>3d</fix>
</trkpt>
<trkpt lat="40.0728596" lon="-105.2306084">
  <ele>1588.81</ele>
  <time>2026-08-27T18:25:54Z</time>
  <course>285.63</course>
  <speed>0.27</speed>
  <fix>3d</fix>
</trkpt>
<trkpt lat="40.0728599" lon="-105.230609">
  <ele>1589.38</ele>
  <time>2026-08-27T18:25:54Z</time>
  <course>59.96</course>
  <speed>0.28460498941515416</speed>
  <fix>3d</fix>
</trkpt>
<trkpt lat="40.07286" lon="-105.2306095">
  <ele>1589.69</ele>
  <time>2026-08-27T18:25:54Z</time>
  <course>59.85</course>
  <speed>0.30083217912982646</speed>
  <fix>3d</fix>
</trkpt>
<trkpt lat="40.0728597" lon="-105.2306089">
  <ele>1589.16</ele>
  <time>2026-08-27T18:25:54Z</time>
  <course>283.06</course>
  <speed>0.28</speed>
  <fix>3d</fix>
</trkpt>
<trkpt lat="40.07286" lon="-105.2306097">
  <ele>1589.79</ele>
  <time>2026-08-27T18:25:54Z</time>
  <course>60.08</course>
  <speed>0.29832867780352595</speed>
  <fix>3d</fix>
</trkpt>
<trkpt lat="40.0728601" lon="-105.2306103">
  <ele>1590.05</ele>
  <time>2026-08-27T18:25:54Z</time>
  <course>60.83</course>
  <speed>0.3080584360149873</speed>
  <fix>3d</fix>
</trkpt>
<trkpt lat="40.0728598" lon="-105.2306096">
  <ele>1589.53</ele>
  <time>2026-08-27T18:25:54Z</time>
  <course>281.2</course>
  <speed>0.29</speed>
  <fix>3d</fix>
</trkpt>
<trkpt lat="40.0728601" lon="-105.2306107">
  <ele>1590.29</ele>
  <time>2026-08-27T18:25:54Z</time>
  <course>61.42</course>
  <speed>0.31575306807693887</speed>
  <fix>3d</fix>
</trkpt>
<trkpt lat="40.0728601" lon="-105.230611">
  <ele>1590.41</ele>
  <time>2026-08-27T18:25:54Z</time>
  <course>61.69</course>
  <speed>0.3255764119219941</speed>
  <fix>3d</fix>
</trkpt>
<trkpt lat="40.0728599" lon="-105.2306103">
  <ele>1589.88</ele>
  <time>2026-08-27T18:25:54Z</time>
  <course>279.75</course>
  <speed>0.3</speed>
  <fix>3d</fix>
</trkpt>
<trkpt lat="40.0728602" lon="-105.2306117">
  <ele>1590.76</ele>
  <time>2026-08-27T18:25:54Z</time>
  <course>62.28</course>
  <speed>0.33376638536557274</speed>
  <fix>3d</fix>
</trkpt>
<trkpt lat="40.0728602" lon="-105.2306118">
  <ele>1590.78</ele>
  <time>2026-08-27T18:25:54Z</time>
  <course>62.3</course>
  <speed>0.33376638536557274</speed>
  <fix>3d</fix>
</trkpt>
<trkpt lat="40.07286" lon="-105.230611">
  <ele>1590.24</ele>
  <time>2026-08-27T18:25:54Z</time>
  <course>278.74</course>
  <speed>0.3</speed>
  <fix>3d</fix>
</trkpt>
<trkpt lat="40.0728603" lon="-105.2306125">
  <ele>1591.14</ele>
  <time>2026-08-27T18:25:54Z</time>
  <course>62.79</course>
  <speed>0.34365680554879163</speed>
  <fix>3d</fix>
</trkpt>
<trkpt lat="40.07286" lon="-105.2306117">
  <ele>1590.6</ele>
  <time>2026-08-27T18:25:54Z</time>
  <course>278.19</course>
  <speed>0.31</speed>
  <fix>3d</fix>
</trkpt>
<trkpt lat="40.0728603" lon="-105.2306128">
  <ele>1591.24</ele>
  <time>2026-08-27T18:25:54Z</time>
  <course>62.92</course>
  <speed>0.34365680554879163</speed>
  <fix>3d</fix>
</trkpt>
<trkpt lat="40.0728603" lon="-105.2306133">
  <ele>1591.5</ele>
  <time>2026-08-27T18:25:54Z</time>
  <course>63.21</course>
  <speed>0.34365680554879163</speed>
  <fix>3d</fix>
</trkpt>
<trkpt lat="40.0728601" lon="-105.2306125">
  <ele>1590.96</ele>
  <time>2026-08-27T18:25:54Z</time>
  <course>277.96</course>
  <speed>0.31</speed>
  <fix>3d</fix>
</trkpt>
<trkpt lat="40.0728604" lon="-105.2306135">
  <ele>1591.62</ele>
  <time>2026-08-27T18:25:54Z</time>
  <course>63.32</course>
  <speed>0.34365680554879163</speed>
  <fix>3d</fix>
</trkpt>
<trkpt lat="40.0728604" lon="-105.2306141">
  <ele>1591.87</ele>
  <time>2026-08-27T18:25:54Z</time>
  <course>63.53</course>
  <speed>0.3535533905932738</speed>
  <fix>3d</fix>
</trkpt>
<trkpt lat="40.0728602" lon="-105.2306132">
  <ele>1591.32</ele>
  <time>2026-08-27T18:25:54Z</time>
  <course>277.94</course>
  <speed>0.32</speed>
  <fix>3d</fix>
</trkpt>
<trkpt lat="40.0728605" lon="-105.2306147">
  <ele>1592.14</ele>
  <time>2026-08-27T18:25:54Z</time>
  <course>63.73</course>
  <speed>0.3535533905932738</speed>
  <fix>3d</fix>
</trkpt>
<trkpt lat="40.0728605" lon="-105.2306149">
  <ele>1592.23</ele>
  <time>2026-08-27T18:25:54Z</time>
  <course>63.79</course>
  <speed>0.3535533905932738</speed>
  <fix>3d</fix>
</trkpt>
<trkpt lat="40.0728603" lon="-105.230614">
  <ele>1591.67</ele>
  <time>2026-08-27T18:25:54Z</time>
  <course>278.09</course>
  <speed>0.32</speed>
  <fix>3d</fix>
</trkpt>
<trkpt lat="40.0728606" lon="-105.2306156">
  <ele>1592.58</ele>
  <time>2026-08-27T18:25:54Z</time>
  <course>64.03</course>
  <speed>0.3535533905932738</speed>
  <fix>3d</fix>
</trkpt>
<trkpt lat="40.0728604" lon="-105.2306147">
  <ele>1592.03</ele>
  <time>2026-08-27T18:25:54Z</time>
  <course>278.34</course>
  <speed>0.33</speed>
  <fix>3d</fix>
</trkpt>
<trkpt lat="40.0728606" lon="-105.230616">
  <ele>1592.73</ele>
  <time>2026-08-27T18:25:54Z</time>
  <course>64.1</course>
  <speed>0.3634556369077249</speed>
  <fix>3d</fix>
</trkpt>
<trkpt lat="40.0728606" lon="-105.2306164">
  <ele>1592.95</ele>
  <time>2026-08-27T18:25:54Z</time>
  <course>64.22</course>
  <speed>0.3649657518178932</speed>
  <fix>3d</fix>
</trkpt>
<trkpt lat="40.0728605" lon="-105.2306155">
  <ele>1592.38</ele>
  <time>2026-08-27T18:25:54Z</time>
  <course>278.6</course>
  <speed>0.34</speed>
  <fix>3d</fix>
</trkpt>
<trkpt lat="40.0728607" lon="-105.2306167">
  <ele>1593.07</ele>
  <time>2026-08-27T18:25:54Z</time>
  <course>64.29</course>
  <speed>0.3649657518178932</speed>
  <fix>3d</fix>
</trkpt>
<trkpt lat="40.0728607" lon="-105.2306172">
  <ele>1593.31</ele>
  <time>2026-08-27T18:25:54Z</time>
  <course>64.41</course>
  <speed>0.3649657518178932</speed>
  <fix>3d</fix>
</trkpt>
<trkpt lat="40.0728605" lon="-105.2306163">
  <ele>1592.75</ele>
  <time>2026-08-27T18:25:54Z</time>
  <course>278.94</course>
  <speed>0.34</speed>
  <fix>3d</fix>
</trkpt>
<trkpt lat="40.0728608" lon="-105.230618">
  <ele>1593.67</ele>
  <time>2026-08-27T18:25:54Z</time>
  <course>64.61</course>
  <speed>0.3649657518178932</speed>
  <fix>3d</fix>
</trkpt>
<trkpt lat="40.0728606" lon="-105.2306171">
  <ele>1593.1</ele>
  <time>2026-08-27T18:25:54Z</time>
  <course>279.34</course>
  <speed>0.35</speed>
  <fix>3d</fix>
</trkpt>
<trkpt lat="40.0728609" lon="-105.2306189">
  <ele>1594.02</ele>
  <time>2026-08-27T18:25:54Z</time>
  <course>65.0</course>
  <speed>0.34525353003264136</speed>
  <fix>3d</fix>
</trkpt>
<trkpt lat="40.0728608" lon="-105.2306179">
  <ele>1593.46</ele>
  <time>2026-08-27T18:25:54Z</time>
  <course>279.81</course>
  <speed>0.35</speed>
  <fix>3d</fix>
</trkpt>
<trkpt lat="40.072861" lon="-105.2306195">
  <ele>1594.34</ele>
  <time>2026-08-27T18:25:54Z</time>
  <course>65.64</course>
  <speed>0.26305892875931813</speed>
  <fix>3d</fix>
</trkpt>
<trkpt lat="40.0728609" lon="-105.2306188">
  <ele>1593.81</ele>
  <time>2026-08-27T18:25:54Z</time>
  <course>280.21</course>
  <speed>0.33</speed>
  <fix>3d</fix>
</trkpt>
<trkpt lat="40.0728611" lon="-105.23062">
  <ele>1594.61</ele>
  <time>2026-08-27T18:25:54Z</time>
  <course>66.29</course>
  <speed>0.1414213562373095</speed>
  <fix>3d</fix>
</trkpt>
<trkpt lat="40.072861" lon="-105.2306194">
  <ele>1594.13</ele>
  <time>2026-08-27T18:25:54Z</time>
  <course>280.39</course>
  <speed>0.26</speed>
  <fix>3d</fix>
</trkpt>
<trkpt lat="40.0728611" lon="-105.2306202">
  <ele>1594.85</ele>
  <time>2026-08-27T18:25:54Z</time>
  <course>66.88</course>
  <speed>0.0412310562561766</speed>
  <fix>3d</fix>
</trkpt>
<trkpt lat="40.0728611" lon="-105.2306199">
  <ele>1594.42</ele>
  <time>2026-08-27T18:25:54Z</time>
  <course>282.47</course>
  <speed>0.16</speed>
  <fix>3d</fix>
</trkpt>
<trkpt lat="40.0728611" lon="-105.2306202">
  <ele>1595.04</ele>
  <time>2026-08-27T18:25:54Z</time>
  <course>67.4</course>
  <speed>0.022360679774997897</speed>
  <fix>3d</fix>
</trkpt>
<trkpt lat="40.0728611" lon="-105.2306202">
  <ele>1594.66</ele>
  <time>2026-08-27T18:25:54Z</time>
  <course>300.44</course>
  <speed>0.06</speed>
  <fix>3d</fix>
</trkpt>
<trkpt lat="40.0728612" lon="-105.2306202">
  <ele>1595.18</ele>
  <time>2026-08-27T18:25:54Z</time>
  <course>67.86</course>
  <speed>0.05830951894845301</speed>
  <fix>3d</fix>
</trkpt>
<trkpt lat="40.0728612" lon="-105.2306203">
  <ele>1594.85</ele>
  <time>2026-08-27T18:25:54Z</time>
  <course>21.39</course>
  <speed>0.04</speed>
  <fix>3d</fix>
</trkpt>
<trkpt lat="40.0728612" lon="-105.2306202">
  <ele>1595.19</ele>
  <time>2026-08-27T18:25:54Z</time>
  <course>67.91</course>
  <speed>0.05830951894845301</speed>
  <fix>3d</fix>
</trkpt>
<trkpt lat="40.0728613" lon="-105.2306201">
  <ele>1595.27</ele>
  <time>2026-08-27T18:25:54Z</time>
  <course>68.26</course>
  <speed>0.07615773105863909</speed>
  <fix>3d</fix>
</trkpt>
<trkpt lat="40.0728612" lon="-105.2306202">
  <ele>1595.0</ele>
  <time>2026-08-27T18:25:54Z</time>
  <course>48.63</course>
  <speed>0.07</speed>
  <fix>3d</fix>
</trkpt>
<trkpt lat="40.0728614" lon="-105.2306199">
  <ele>1595.31</ele>
  <time>2026-08-27T18:25:54Z</time>
  <course>68.62</course>
  <speed>0.07615773105863909</speed>
  <fix>3d</fix>
</trkpt>
<trkpt lat="40.0728613" lon="-105.2306201">
  <ele>1595.1</ele>
  <time>2026-08-27T18:25:54Z</time>
  <course>55.21</course>
  <speed>0.09</speed>
  <fix>3d</fix>
</trkpt>
<trkpt lat="40.0728614" lon="-105.2306197">
  <ele>1595.32</ele>
  <time>2026-08-27T18:25:54Z</time>
  <course>68.94</course>
  <speed>0.07280109889280519</speed>
  <fix>3d</fix>
</trkpt>
<trkpt lat="40.0728614" lon="-105.2306198">
  <ele>1595.16</ele>
  <time>2026-08-27T18:25:54Z</time>
  <course>60.35</course>
  <speed>0.09</speed>
  <fix>3d</fix>
</trkpt>
<trkpt lat="40.0728615" lon="-105.2306195">
  <ele>1595.29</ele>
  <time>2026-08-27T18:25:54Z</time>
  <course>69.24</course>
  <speed>0.07071067811865475</speed>
  <fix>3d</fix>
</trkpt>
<trkpt lat="40.0728615" lon="-105.2306197">
  <ele>1595.18</ele>
  <time>2026-08-27T18:25:54Z</time>
  <course>66.99</course>
  <speed>0.09</speed>
  <fix>3d</fix>
</trkpt>
<trkpt lat="40.0728615" lon="-105.2306193">
  <ele>1595.22</ele>
  <time>2026-08-27T18:25:54Z</time>
  <course>69.53</course>
  <speed>0.07</speed>
  <fix>3d</fix>
</trkpt>
<trkpt lat="40.0728615" lon="-105.2306194">
  <ele>1595.15</ele>
  <time>2026-08-27T18:25:54Z</time>
  <course>75.47</course>
  <speed>0.08</speed>
  <fix>3d</fix>
</trkpt>
<trkpt lat="40.0728615" lon="-105.2306192">
  <ele>1595.12</ele>
  <time>2026-08-27T18:25:54Z</time>
  <course>69.63</course>
  <speed>0.06082762530298219</speed>
  <fix>3d</fix>
</trkpt>
<trkpt lat="40.0728615" lon="-105.2306193">
  <ele>1595.09</ele>
  <time>2026-08-27T18:25:54Z</time>
  <course>86.11</course>
  <speed>0.08</speed>
  <fix>3d</fix>
</trkpt>
<trkpt lat="40.0728615" lon="-105.230619">
  <ele>1595.0</ele>
  <time>2026-08-27T18:25:54Z</time>
  <course>69.6</course>
  <speed>0.053851648071345036</speed>
  <fix>3d</fix>
</trkpt>
<trkpt lat="40.0728615" lon="-105.2306191">
  <ele>1594.99</ele>
  <time>2026-08-27T18:25:54Z</time>
  <course>99.61</course>
  <speed>0.07</speed>
  <fix>3d</fix>
</trkpt>
<trkpt lat="40.0728615" lon="-105.2306189">
  <ele>1594.87</ele>
  <time>2026-08-27T18:25:54Z</time>
  <course>69.55</course>
  <speed>0.05</speed>
  <fix>3d</fix>
</trkpt>
<trkpt lat="40.0728615" lon="-105.2306189">
  <ele>1594.87</ele>
  <time>2026-08-27T18:25:54Z</time>
  <course>115.6</course>
  <speed>0.06</speed>
  <fix>3d</fix>
</trkpt>
<trkpt lat="40.0728614" lon="-105.2306188">
  <ele>1594.75</ele>
  <time>2026-08-27T18:25:54Z</time>
  <course>69.5</course>
  <speed>0.044721359549995794</speed>
  <fix>3d</fix>
</trkpt>
<trkpt lat="40.0728615" lon="-105.2306188">
  <ele>1594.75</ele>
  <time>2026-08-27T18:25:54Z</time>
  <course>133.02</course>
  <speed>0.06</speed>
  <fix>3d</fix>
</trkpt>
<trkpt lat="40.0728613" lon="-105.2306187">
  <ele>1594.62</ele>
  <time>2026-08-27T18:25:54Z</time>
  <course>69.47</course>
  <speed>0.05</speed>
  <fix>3d</fix>
</trkpt>
<trkpt lat="40.0728615" lon="-105.2306187">
  <ele>1594.62</ele>
  <time>2026-08-27T18:25:54Z</time>
  <course>150.78</course>
  <speed>0.06</speed>
  <fix>3d</fix>
</trkpt>
<trkpt lat="40.0728612" lon="-105.2306187">
  <ele>1594.5</ele>
  <time>2026-08-27T18:25:54Z</time>
  <course>69.45</course>
  <speed>0.05099019513592785</speed>
  <fix>3d</fix>
</trkpt>
<trkpt lat="40.0728614" lon="-105.2306186">
  <ele>1594.51</ele>
  <time>2026-08-27T18:25:54Z</time>
  <course>167.57</course>
  <speed>0.06</speed>
  <fix>3d</fix>
</trkpt>
<trkpt lat="40.0728611" lon="-105.2306188">
  <ele>1594.39</ele>
  <time>2026-08-27T18:25:54Z</time>
  <course>69.44</course>
  <speed>0.053851648071345036</speed>
  <fix>3d</fix>
</trkpt>
<trkpt lat="40.0728613" lon="-105.2306186">
  <ele>1594.38</ele>
  <time>2026-08-27T18:25:54Z</time>
  <course>182.52</course>
  <speed>0.07</speed>
  <fix>3d</fix>
</trkpt>
<trkpt lat="40.072861" lon="-105.2306188">
  <ele>1594.28</ele>
  <time>2026-08-27T18:25:54Z</time>
  <course>69.44</course>
  <speed>0.05</speed>
  <fix>3d</fix>
</trkpt>
<trkpt lat="40.0728611" lon="-105.2306186">
  <ele>1594.28</ele>
  <time>2026-08-27T18:25:54Z</time>
  <course>195.29</course>
  <speed>0.07</speed>
  <fix>3d</fix>
</trkpt>
<trkpt lat="40.0728609" lon="-105.2306188">
  <ele>1594.18</ele>
  <time>2026-08-27T18:25:54Z</time>
  <course>69.42</course>
  <speed>0.0565685424949238</speed>
  <fix>3d</fix>
</trkpt>
<trkpt lat="40.072861" lon="-105.2306186">
  <ele>1594.17</ele>
  <time>2026-08-27T18:25:54Z</time>
  <course>205.72</course>
  <speed>0.08</speed>
  <fix>3d</fix>
</trkpt>
<trkpt lat="40.0728608" lon="-105.2306189">
  <ele>1594.08</ele>
  <time>2026-08-27T18:25:54Z</time>
  <course>69.43</course>
  <speed>0.05830951894845301</speed>
  <fix>3d</fix>
</trkpt>
<trkpt lat="40.0728608" lon="-105.2306187">
  <ele>1594.07</ele>
  <time>2026-08-27T18:25:54Z</time>
  <course>213.96</course>
  <speed>0.08</speed>
  <fix>3d</fix>
</trkpt>
<trkpt lat="40.0728607" lon="-105.230619">
  <ele>1593.98</ele>
  <time>2026-08-27T18:25:54Z</time>
  <course>69.44</course>
  <speed>0.0670820393249937</speed>
  <fix>3d</fix>
</trkpt>
<trkpt lat="40.0728607" lon="-105.2306189">
  <ele>1593.97</ele>
  <time>2026-08-27T18:25:54Z</time>
  <course>220.78</course>
  <speed>0.08</speed>
  <fix>3d</fix>
</trkpt>
<trkpt lat="40.0728606" lon="-105.2306192">
  <ele>1593.88</ele>
  <time>2026-08-27T18:25:54Z</time>
  <course>69.44</course>
  <speed>0.0632455532033676</speed>
  <fix>3d</fix>
</trkpt>
<trkpt lat="40.0728606" lon="-105.230619">
  <ele>1593.87</ele>
  <time>2026-08-27T18:25:54Z</time>
  <course>227.08</course>
  <speed>0.08</speed>
  <fix>3d</fix>
</trkpt>
<trkpt lat="40.0728606" lon="-105.2306193">
  <ele>1593.78</ele>
  <time>2026-08-27T18:25:54Z</time>
  <course>69.47</course>
  <speed>0.06082762530298219</speed>
  <fix>3d</fix>
</trkpt>
<trkpt lat="40.0728605" lon="-105.2306192">
  <ele>1593.77</ele>
  <time>2026-08-27T18:25:54Z</time>
  <course>233.24</course>
  <speed>0.08</speed>
  <fix>3d</fix>
</trkpt>
<trkpt lat="40.0728605" lon="-105.2306195">
  <ele>1593.68</ele>
  <time>2026-08-27T18:25:54Z</time>
  <course>69.51</course>
  <speed>0.06</speed>
  <fix>3d</fix>
</trkpt>
<trkpt lat="40.0728604" lon="-105.2306194">
  <ele>1593.66</ele>
  <time>2026-08-27T18:25:54Z</time>
  <course>239.39</course>
  <speed>0.08</speed>
  <fix>3d</fix>
</trkpt>
<trkpt lat="40.0728605" lon="-105.2306196">
  <ele>1593.58</ele>
  <time>2026-08-27T18:25:54Z</time>
  <course>69.54</course>
  <speed>0.06</speed>
  <fix>3d</fix>
</trkpt>
<trkpt lat="40.0728603" lon="-105.2306195">
  <ele>1593.57</ele>
  <time>2026-08-27T18:25:54Z</time>
  <course>245.6</course>
  <speed>0.08</speed>
  <fix>3d</fix>
</trkpt>
<trkpt lat="40.0728604" lon="-105.2306198">
  <ele>1593.48</ele>
  <time>2026-08-27T18:25:54Z</time>
  <course>69.57</course>
  <speed>0.05099019513592785</speed>
  <fix>3d</fix>
</trkpt>
<trkpt lat="40.0728603" lon="-105.2306197">
  <ele>1593.48</ele>
  <time>2026-08-27T18:25:54Z</time>
  <course>251.74</course>
  <speed>0.07</speed>
  <fix>3d</fix>
</trkpt>
<trkpt lat="40.0728604" lon="-105.2306199">
  <ele>1593.38</ele>
  <time>2026-08-27T18:25:54Z</time>
  <course>69.56</course>
  <speed>0.044721359549995794</speed>
  <fix>3d</fix>
</trkpt>
<trkpt lat="40.0728602" lon="-105.2306198">
  <ele>1593.38</ele>
  <time>2026-08-27T18:25:54Z</time>
  <course>257.9</course>
  <speed>0.07</speed>
  <fix>3d</fix>
</trkpt>
<trkpt lat="40.0728604" lon="-105.2306201">
  <ele>1593.28</ele>
  <time>2026-08-27T18:25:54Z</time>
  <course>69.56</course>
  <speed>0.05</speed>
  <fix>3d</fix>
</trkpt>
<trkpt lat="40.0728602" lon="-105.2306201">
  <ele>1593.28</ele>
  <time>2026-08-27T18:25:54Z</time>
  <course>264.84</course>
  <speed>0.06</speed>
  <fix>3d</fix>
</trkpt>
<trkpt lat="40.0728605" lon="-105.2306202">
  <ele>1593.18</ele>
  <time>2026-08-27T18:25:54Z</time>
  <course>69.57</course>
  <speed>0.05</speed>
  <fix>3d</fix>
</trkpt>
<trkpt lat="40.0728602" lon="-105.2306202">
  <ele>1593.17</ele>
  <time>2026-08-27T18:25:54Z</time>
  <course>273.1</course>
  <speed>0.05</speed>
  <fix>3d</fix>
</trkpt>
<trkpt lat="40.0728604" lon="-105.2306203">
  <ele>1593.08</ele>
  <time>2026-08-27T18:25:55Z</time>
  <course>69.65</course>
  <speed>0.044721359549995794</speed>
  <fix>3d</fix>
</trkpt>
<trkpt lat="40.0728602" lon="-105.2306203">
  <ele>1593.08</ele>
  <time>2026-08-27T18:25:55Z</time>
  <course>282.89</course>
  <speed>0.05</speed>
  <fix>3d</fix>
</trkpt>
<trkpt lat="40.0728604" lon="-105.2306203">
  <ele>1592.98</ele>
  <time>2026-08-27T18:25:55Z</time>
  <course>69.64</course>
  <speed>0.05099019513592785</speed>
  <fix>3d</fix>
</trkpt>
<trkpt lat="40.0728602" lon="-105.2306204">
  <ele>1592.98</ele>
  <time>2026-08-27T18:25:55Z</time>
  <course>294.63</course>
  <speed>0.04</speed>
  <fix>3d</fix>
</trkpt>
<trkpt lat="40.0728605" lon="-105.2306204">
  <ele>1592.88</ele>
  <time>2026-08-27T18:25:55Z</time>
  <course>69.69</course>
  <speed>0.05</speed>
  <fix>3d</fix>
</trkpt>
<trkpt lat="40.0728602" lon="-105.2306205">
  <ele>1592.88</ele>
  <time>2026-08-27T18:25:55Z</time>
  <course>309.3</course>
  <speed>0.03</speed>
  <fix>3d</fix>
</trkpt>
<trkpt lat="40.0728605" lon="-105.2306204">
  <ele>1592.78</ele>
  <time>2026-08-27T18:25:55Z</time>
  <course>69.72</course>
  <speed>0.05</speed>
  <fix>3d</fix>
</trkpt>
<trkpt lat="40.0728603" lon="-105.2306206">
  <ele>1592.78</ele>
  <time>2026-08-27T18:25:55Z</time>
  <course>325.51</course>
  <speed>0.03</speed>
  <fix>3d</fix>
</trkpt>
<trkpt lat="40.0728606" lon="-105.2306204">
  <ele>1592.68</ele>
  <time>2026-08-27T18:25:55Z</time>
  <course>69.74</course>
  <speed>0.06082762530298219</speed>
  <fix>3d</fix>
</trkpt>
<trkpt lat="40.0728603" lon="-105.2306206">
  <ele>1592.69</ele>
  <time>2026-08-27T18:25:55Z</time>
  <course>341.08</course>
  <speed>0.03</speed>
  <fix>3d</fix>
</trkpt>
<trkpt lat="40.0728606" lon="-105.2306205">
  <ele>1592.58</ele>
  <time>2026-08-27T18:25:55Z</time>
  <course>69.77</course>
  <speed>0.0632455532033676</speed>
  <fix>3d</fix>
</trkpt>
<trkpt lat="40.0728604" lon="-105.2306206">
  <ele>1592.59</ele>
  <time>2026-08-27T18:25:55Z</time>
  <course>354.97</course>
  <speed>0.03</speed>
  <fix>3d</fix>
</trkpt>
<trkpt lat="40.0728607" lon="-105.2306205">
  <ele>1592.48</ele>
  <time>2026-08-27T18:25:55Z</time>
  <course>69.79</course>
  <speed>0.0632455532033676</speed>
  <fix>3d</fix>
</trkpt>
<trkpt lat="40.0728605" lon="-105.2306206">
  <ele>1592.49</ele>
  <time>2026-08-27T18:25:55Z</time>
  <course>6.3</course>
  <speed>0.03</speed>
  <fix>3d</fix>
</trkpt>
<trkpt lat="40.0728608" lon="-105.2306205">
  <ele>1592.38</ele>
  <time>2026-08-27T18:25:55Z</time>
  <course>69.82</course>
  <speed>0.0670820393249937</speed>
  <fix>3d</fix>
</trkpt>
<trkpt lat="40.0728606" lon="-105.2306206">
  <ele>1592.39</ele>
  <time>2026-08-27T18:25:55Z</time>
  <course>15.1</course>
  <speed>0.04</speed>
  <fix>3d</fix>
</trkpt>
<trkpt lat="40.0728608" lon="-105.2306204">
  <ele>1592.29</ele>
  <time>2026-08-27T18:25:55Z</time>
  <course>69.86</course>
  <speed>0.05830951894845301</speed>
  <fix>3d</fix>
</trkpt>
<trkpt lat="40.0728606" lon="-105.2306206">
  <ele>1592.3</ele>
  <time>2026-08-27T18:25:55Z</time>
  <course>22.21</course>
  <speed>0.04</speed>
  <fix>3d</fix>
</trkpt>
<trkpt lat="40.0728609" lon="-105.2306204">
  <ele>1592.19</ele>
  <time>2026-08-27T18:25:55Z</time>
  <course>69.85</course>
  <speed>0.05830951894845301</speed>
  <fix>3d</fix>
</trkpt>
<trkpt lat="40.0728607" lon="-105.2306206">
  <ele>1592.2</ele>
  <time>2026-08-27T18:25:55Z</time>
  <course>28.78</course>
  <speed>0.04</speed>
  <fix>3d</fix>
</trkpt>
<trkpt lat="40.0728609" lon="-105.2306203">
  <ele>1592.09</ele>
  <time>2026-08-27T18:25:55Z</time>
  <course>69.89</course>
  <speed>0.05830951894845301</speed>
  <fix>3d</fix>
</trkpt>
<trkpt lat="40.0728608" lon="-105.2306206">
  <ele>1592.1</ele>
  <time>2026-08-27T18:25:55Z</time>
  <course>34.99</course>
  <speed>0.04</speed>
  <fix>3d</fix>
</trkpt>
<trkpt lat="40.072861" lon="-105.2306203">
  <ele>1591.99</ele>
  <time>2026-08-27T18:25:55Z</time>
  <course>69.9</course>
  <speed>0.0565685424949238</speed>
  <fix>3d</fix>
</trkpt>
<trkpt lat="40.0728608" lon="-105.2306205">
  <ele>1592.0</ele>
  <time>2026-08-27T18:25:55Z</time>
  <course>40.69</course>
  <speed>0.04</speed>
  <fix>3d</fix>
</trkpt>
<trkpt lat="40.072861" lon="-105.2306202">
  <ele>1591.89</ele>
  <time>2026-08-27T18:25:55Z</time>
  <course>69.91</course>
  <speed>0.0565685424949238</speed>
  <fix>3d</fix>
</trkpt>
<trkpt lat="40.0728608" lon="-105.2306204">
  <ele>1591.89</ele>
  <time>2026-08-27T18:25:55Z</time>
  <course>46.65</course>
  <speed>0.03</speed>
  <fix>3d</fix>
</trkpt>
<trkpt lat="40.0728611" lon="-105.2306202">
  <ele>1591.79</ele>
  <time>2026-08-27T18:25:55Z</time>
  <course>69.95</course>
  <speed>0.04242640687119285</speed>
  <fix>3d</fix>
</trkpt>
<trkpt lat="40.0728609" lon="-105.2306203">
  <ele>1591.8</ele>
  <time>2026-08-27T18:25:55Z</time>
  <course>53.09</course>
  <speed>0.03</speed>
  <fix>3d</fix>
</trkpt>
<trkpt lat="40.0728611" lon="-105.2306201">
  <ele>1591.69</ele>
  <time>2026-08-27T18:25:55Z</time>
  <course>69.98</course>
  <speed>0.04242640687119285</speed>
  <fix>3d</fix>
</trkpt>
<trkpt lat="40.0728609" lon="-105.2306203">
  <ele>1591.7</ele>
  <time>2026-08-27T18:25:55Z</time>
  <course>60.35</course>
  <speed>0.03</speed>
  <fix>3d</fix>
</trkpt>
<trkpt lat="40.0728611" lon="-105.2306201">
  <ele>1591.59</ele>
  <time>2026-08-27T18:25:55Z</time>
  <course>70.01</course>
  <speed>0.03605551275463989</speed>
  <fix>3d</fix>
</trkpt>
<trkpt lat="40.0728609" lon="-105.2306203">
  <ele>1591.61</ele>
  <time>2026-08-27T18:25:55Z</time>
  <course>68.44</course>
  <speed>0.02</speed>
  <fix>3d</fix>
</trkpt>
<trkpt lat="40.0728611" lon="-105.23062">
  <ele>1591.49</ele>
  <time>2026-08-27T18:25:55Z</time>
  <course>70.0</course>
  <speed>0.03605551275463989</speed>
  <fix>3d</fix>
</trkpt>
<trkpt lat="40.0728609" lon="-105.2306202">
  <ele>1591.51</ele>
  <time>2026-08-27T18:25:55Z</time>
  <course>76.95</course>
  <speed>0.02</speed>
  <fix>3d</fix>
</trkpt>
<trkpt lat="40.0728611" lon="-105.23062">
  <ele>1591.39</ele>
  <time>2026-08-27T18:25:55Z</time>
  <course>70.03</course>
  <speed>0.022360679774997897</speed>
  <fix>3d</fix>
</trkpt>
<trkpt lat="40.0728609" lon="-105.2306201">
  <ele>1591.4</ele>
  <time>2026-08-27T18:25:55Z</time>
  <course>86.0</course>
  <speed>0.02</speed>
  <fix>3d</fix>
</trkpt>
<trkpt lat="40.0728611" lon="-105.23062">
  <ele>1591.29</ele>
  <time>2026-08-27T18:25:55Z</time>
  <course>70.03</course>
  <speed>0.022360679774997897</speed>
  <fix>3d</fix>
</trkpt>
<trkpt lat="40.0728609" lon="-105.2306201">
  <ele>1591.31</ele>
  <time>2026-08-27T18:25:55Z</time>
  <course>96.64</course>
  <speed>0.01</speed>
  <fix>3d</fix>
</trkpt>
<trkpt lat="40.072861" lon="-105.2306199">
  <ele>1591.18</ele>
  <time>2026-08-27T18:25:55Z</time>
  <course>70.06</course>
  <speed>0.022360679774997897</speed>
  <fix>3d</fix>
</trkpt>
<trkpt lat="40.0728609" lon="-105.2306201">
  <ele>1591.21</ele>
  <time>2026-08-27T18:25:55Z</time>
  <course>108.89</course>
  <speed>0.01</speed>
  <fix>3d</fix>
</trkpt>
<trkpt lat="40.072861" lon="-105.2306199">
  <ele>1591.08</ele>
  <time>2026-08-27T18:25:55Z</time>
  <course>70.04</course>
  <speed>0.01414213562373095</speed>
  <fix>3d</fix>
</trkpt>
<trkpt lat="40.0728609" lon="-105.23062">
  <ele>1591.11</ele>
  <time>2026-08-27T18:25:55Z</time>
  <course>122.13</course>
  <speed>0.01</speed>
  <fix>3d</fix>
</trkpt>
<trkpt lat="40.072861" lon="-105.2306199">
  <ele>1590.98</ele>
  <time>2026-08-27T18:25:55Z</time>
  <course>70.04</course>
  <speed>0.01414213562373095</speed>
  <fix>3d</fix>
</trkpt>
<trkpt lat="40.0728609" lon="-105.23062">
  <ele>1591.01</ele>
  <time>2026-08-27T18:25:55Z</time>
  <course>136.34</course>
  <speed>0.01</speed>
  <fix>3d</fix>
</trkpt>
<trkpt lat="40.072861" lon="-105.2306199">
  <ele>1590.88</ele>
  <time>2026-08-27T18:25:55Z</time>
  <course>70.05</course>
  <speed>0.01414213562373095</speed>
  <fix>3d</fix>
</trkpt>
<trkpt lat="40.0728609" lon="-105.23062">
  <ele>1590.9</ele>
  <time>2026-08-27T18:25:55Z</time>
  <course>151.12</course>
  <speed>0.01</speed>
  <fix>3d</fix>
</trkpt>
<trkpt lat="40.072861" lon="-105.2306199">
  <ele>1590.78</ele>
  <time>2026-08-27T18:25:55Z</time>
  <course>70.06</course>
  <speed>0.01</speed>
  <fix>3d</fix>
</trkpt>
<trkpt lat="40.0728609" lon="-105.23062">
  <ele>1590.81</ele>
  <time>2026-08-27T18:25:55Z</time>
  <course>166.75</course>
  <speed>0.01</speed>
  <fix>3d</fix>
</trkpt>
<trkpt lat="40.072861" lon="-105.2306199">
  <ele>1590.68</ele>
  <time>2026-08-27T18:25:55Z</time>
  <course>70.09</course>
  <speed>0.01</speed>
  <fix>3d</fix>
</trkpt>
<trkpt lat="40.0728609" lon="-105.23062">
  <ele>1590.71</ele>
  <time>2026-08-27T18:25:55Z</time>
  <course>181.75</course>
  <speed>0.01</speed>
  <fix>3d</fix>
</trkpt>
<trkpt lat="40.072861" lon="-105.2306199">
  <ele>1590.58</ele>
  <time>2026-08-27T18:25:55Z</time>
  <course>70.12</course>
  <speed>0.01</speed>
  <fix>3d</fix>
</trkpt>
<trkpt lat="40.0728609" lon="-105.23062">
  <ele>1590.62</ele>
  <time>2026-08-27T18:25:55Z</time>
  <course>193.25</course>
  <speed>0.01</speed>
  <fix>3d</fix>
</trkpt>
<trkpt lat="40.072861" lon="-105.2306199">
  <ele>1590.49</ele>
  <time>2026-08-27T18:25:55Z</time>
  <course>70.12</course>
  <speed>0.01</speed>
  <fix>3d</fix>
</trkpt>
<trkpt lat="40.0728609" lon="-105.23062">
  <ele>1590.52</ele>
  <time>2026-08-27T18:25:55Z</time>
  <course>202.78</course>
  <speed>0.01</speed>
  <fix>3d</fix>
</trkpt>
<trkpt lat="40.072861" lon="-105.2306199">
  <ele>1590.39</ele>
  <time>2026-08-27T18:25:55Z</time>
  <course>70.12</course>
  <speed>0.01</speed>
  <fix>3d</fix>
</trkpt>
<trkpt lat="40.0728609" lon="-105.23062">
  <ele>1590.41</ele>
  <time>2026-08-27T18:25:55Z</time>
  <course>210.48</course>
  <speed>0.01</speed>
  <fix>3d</fix>
</trkpt>
<trkpt lat="40.072861" lon="-105.2306199">
  <ele>1590.29</ele>
  <time>2026-08-27T18:25:55Z</time>
  <course>70.15</course>
  <speed>0.01</speed>
  <fix>3d</fix>
</trkpt>
<trkpt lat="40.0728609" lon="-105.23062">
  <ele>1590.32</ele>
  <time>2026-08-27T18:25:55Z</time>
  <course>216.21</course>
  <speed>0.01</speed>
  <fix>3d</fix>
</trkpt>
<trkpt lat="40.072861" lon="-105.2306199">
  <ele>1590.19</ele>
  <time>2026-08-27T18:25:55Z</time>
  <course>70.19</course>
  <speed>0.01</speed>
  <fix>3d</fix>
</trkpt>
<trkpt lat="40.0728608" lon="-105.23062">
  <ele>1590.22</ele>
  <time>2026-08-27T18:25:55Z</time>
  <course>220.51</course>
  <speed>0.01</speed>
  <fix>3d</fix>
</trkpt>
<trkpt lat="40.072861" lon="-105.2306199">
  <ele>1590.09</ele>
  <time>2026-08-27T18:25:55Z</time>
  <course>70.17</course>
  <speed>0.01</speed>
  <fix>3d</fix>
</trkpt>
<trkpt lat="40.0728608" lon="-105.23062">
  <ele>1590.12</ele>
  <time>2026-08-27T18:25:55Z</time>
  <course>222.77</course>
  <speed>0.01</speed>
  <fix>3d</fix>
</trkpt>
<trkpt lat="40.072861" lon="-105.2306199">
  <ele>1589.99</ele>
  <time>2026-08-27T18:25:55Z</time>
  <course>70.2</course>
  <speed>0.01</speed>
  <fix>3d</fix>
</trkpt>
<trkpt lat="40.0728608" lon="-105.23062">
  <ele>1590.02</ele>
  <time>2026-08-27T18:25:55Z</time>
  <course>224.98</course>
  <speed>0.01</speed>
  <fix>3d</fix>
</trkpt>
<trkpt lat="40.072861" lon="-105.23062">
  <ele>1589.89</ele>
  <time>2026-08-27T18:25:55Z</time>
  <course>70.2</course>
  <speed>0.01</speed>
  <fix>3d</fix>
</trkpt>
<trkpt lat="40.0728608" lon="-105.23062">
  <ele>1589.92</ele>
  <time>2026-08-27T18:25:55Z</time>
  <course>228.02</course>
  <speed>0.01</speed>
  <fix>3d</fix>
</trkpt>
<trkpt lat="40.072861" lon="-105.23062">
  <ele>1589.79</ele>
  <time>2026-08-27T18:25:55Z</time>
  <course>70.23</course>
  <speed>0.01</speed>
  <fix>3d</fix>
</trkpt>
<trkpt lat="40.0728608" lon="-105.23062">
  <ele>1589.83</ele>
  <time>2026-08-27T18:25:55Z</time>
  <course>231.19</course>
  <speed>0.01</speed>
  <fix>3d</fix>
</trkpt>
<trkpt lat="40.0728609" lon="-105.23062">
  <ele>1589.69</ele>
  <time>2026-08-27T18:25:55Z</time>
  <course>70.2</course>
  <speed>0.01</speed>
  <fix>3d</fix>
</trkpt>
<trkpt lat="40.0728608" lon="-105.2306201">
  <ele>1589.73</ele>
  <time>2026-08-27T18:25:55Z</time>
  <course>234.38</course>
  <speed>0.01</speed>
  <fix>3d</fix>
</trkpt>
<trkpt lat="40.0728609" lon="-105.23062">
  <ele>1589.59</ele>
  <time>2026-08-27T18:25:55Z</time>
  <course>70.2</course>
  <speed>0.02</speed>
  <fix>3d</fix>
</trkpt>
<trkpt lat="40.0728608" lon="-105.2306201">
  <ele>1589.63</ele>
  <time>2026-08-27T18:25:55Z</time>
  <course>237.59</course>
  <speed>0.01</speed>
  <fix>3d</fix>
</trkpt>
<trkpt lat="40.0728609" lon="-105.23062">
  <ele>1589.49</ele>
  <time>2026-08-27T18:25:55Z</time>
  <course>70.24</course>
  <speed>0.02</speed>
  <fix>3d</fix>
</trkpt>
<trkpt lat="40.0728608" lon="-105.2306201">
  <ele>1589.53</ele>
  <time>2026-08-27T18:25:55Z</time>
  <course>242.21</course>
  <speed>0.01</speed>
  <fix>3d</fix>
</trkpt>
<trkpt lat="40.0728609" lon="-105.23062">
  <ele>1589.39</ele>
  <time>2026-08-27T18:25:55Z</time>
  <course>70.25</course>
  <speed>0.02</speed>
  <fix>3d</fix>
</trkpt>
<trkpt lat="40.0728608" lon="-105.2306201">
  <ele>1589.42</ele>
  <time>2026-08-27T18:25:55Z</time>
  <course>247.19</course>
  <speed>0.0</speed>
  <fix>3d</fix>
</trkpt>
<trkpt lat="40.0728609" lon="-105.23062">
  <ele>1589.29</ele>
  <time>2026-08-27T18:25:55Z</time>
  <course>70.27</course>
  <speed>0.02</speed>
  <fix>3d</fix>
</trkpt>
<trkpt lat="40.0728608" lon="-105.2306201">
  <ele>1589.33</ele>
  <time>2026-08-27T18:25:55Z</time>
  <course>250.03</course>
  <speed>0.0</speed>
  <fix>3d</fix>
</trkpt>
<trkpt lat="40.0728609" lon="-105.23062">
  <ele>1589.19</ele>
  <time>2026-08-27T18:25:55Z</time>
  <course>70.26</course>
  <speed>0.02</speed>
  <fix>3d</fix>
</trkpt>
<trkpt lat="40.0728608" lon="-105.2306201">
  <ele>1589.23</ele>
  <time>2026-08-27T18:25:55Z</time>
  <course>251.34</course>
  <speed>0.0</speed>
  <fix>3d</fix>
</trkpt>
<trkpt lat="40.0728609" lon="-105.23062">
  <ele>1589.09</ele>
  <time>2026-08-27T18:25:55Z</time>
  <course>70.29</course>
  <speed>0.02</speed>
  <fix>3d</fix>
</trkpt>
<trkpt lat="40.0728608" lon="-105.2306201">
  <ele>1589.13</ele>
  <time>2026-08-27T18:25:55Z</time>
  <course>253.08</course>
  <speed>0.0</speed>
  <fix>3d</fix>
</trkpt>
<trkpt lat="40.0728609" lon="-105.23062">
  <ele>1588.99</ele>
  <time>2026-08-27T18:25:55Z</time>
  <course>70.3</course>
  <speed>0.02</speed>
  <fix>3d</fix>
</trkpt>
<trkpt lat="40.0728608" lon="-105.2306201">
  <ele>1589.03</ele>
  <time>2026-08-27T18:25:55Z</time>
  <course>255.89</course>
  <speed>0.0</speed>
  <fix>3d</fix>
</trkpt>
<trkpt lat="40.0728609" lon="-105.23062">
  <ele>1588.9</ele>
  <time>2026-08-27T18:25:55Z</time>
  <course>70.33</course>
  <speed>0.022360679774997897</speed>
  <fix>3d</fix>
</trkpt>
<trkpt lat="40.0728608" lon="-105.2306201">
  <ele>1588.92</ele>
  <time>2026-08-27T18:25:55Z</time>
  <course>257.22</course>
  <speed>0.0</speed>
  <fix>3d</fix>
</trkpt>
<trkpt lat="40.0728609" lon="-105.23062">
  <ele>1588.79</ele>
  <time>2026-08-27T18:25:55Z</time>
  <course>70.32</course>
  <speed>0.022360679774997897</speed>
  <fix>3d</fix>
</trkpt>
<trkpt lat="40.0728608" lon="-105.2306201">
  <ele>1588.83</ele>
  <time>2026-08-27T18:25:55Z</time>
  <course>253.85</course>
  <speed>0.0</speed>
  <fix>3d</fix>
</trkpt>
<trkpt lat="40.0728609" lon="-105.23062">
  <ele>1588.69</ele>
  <time>2026-08-27T18:25:55Z</time>
  <course>70.33</course>
  <speed>0.022360679774997897</speed>
  <fix>3d</fix>
</trkpt>
<trkpt lat="40.0728608" lon="-105.2306202">
  <ele>1588.73</ele>
  <time>2026-08-27T18:25:55Z</time>
  <course>252.65</course>
  <speed>0.0</speed>
  <fix>3d</fix>
</trkpt>
<trkpt lat="40.0728609" lon="-105.2306201">
  <ele>1588.59</ele>
  <time>2026-08-27T18:25:55Z</time>
  <course>70.33</course>
  <speed>0.022360679774997897</speed>
  <fix>3d</fix>
</trkpt>
<trkpt lat="40.0728608" lon="-105.2306203">
  <ele>1588.63</ele>
  <time>2026-08-27T18:25:55Z</time>
  <course>251.98</course>
  <speed>0.0</speed>
  <fix>3d</fix>
</trkpt>
<trkpt lat="40.0728609" lon="-105.2306201">
  <ele>1588.49</ele>
  <time>2026-08-27T18:25:55Z</time>
  <course>70.33</course>
  <speed>0.022360679774997897</speed>
  <fix>3d</fix>
</trkpt>
<trkpt lat="40.0728608" lon="-105.2306203">
  <ele>1588.53</ele>
  <time>2026-08-27T18:25:55Z</time>
  <course>247.86</course>
  <speed>0.0</speed>
  <fix>3d</fix>
</trkpt>
<trkpt lat="40.0728609" lon="-105.2306201">
  <ele>1588.39</ele>
  <time>2026-08-27T18:25:55Z</time>
  <course>70.35</course>
  <speed>0.022360679774997897</speed>
  <fix>3d</fix>
</trkpt>
<trkpt lat="40.0728608" lon="-105.2306203">
  <ele>1588.42</ele>
  <time>2026-08-27T18:25:55Z</time>
  <course>245.11</course>
  <speed>0.0</speed>
  <fix>3d</fix>
</trkpt>
<trkpt lat="40.0728609" lon="-105.2306201">
  <ele>1588.29</ele>
  <time>2026-08-27T18:25:55Z</time>
  <course>70.35</course>
  <speed>0.022360679774997897</speed>
  <fix>3d</fix>
</trkpt>
<trkpt lat="40.0728608" lon="-105.2306203">
  <ele>1588.33</ele>
  <time>2026-08-27T18:25:55Z</time>
  <course>229.1</course>
  <speed>0.0</speed>
  <fix>3d</fix>
</trkpt>
<trkpt lat="40.0728609" lon="-105.2306201">
  <ele>1588.19</ele>
  <time>2026-08-27T18:25:55Z</time>
  <course>70.37</course>
  <speed>0.022360679774997897</speed>
  <fix>3d</fix>
</trkpt>
<trkpt lat="40.0728608" lon="-105.2306203">
  <ele>1588.23</ele>
  <time>2026-08-27T18:25:55Z</time>
  <course>180.16</course>
  <speed>0.0</speed>
  <fix>3d</fix>
</trkpt>
<trkpt lat="40.0728609" lon="-105.2306201">
  <ele>1588.1</ele>
  <time>2026-08-27T18:25:55Z</time>
  <course>70.38</course>
  <speed>0.022360679774997897</speed>
  <fix>3d</fix>
</trkpt>
<trkpt lat="40.0728608" lon="-105.2306203">
  <ele>1588.13</ele>
  <time>2026-08-27T18:25:55Z</time>
  <course>124.38</course>
  <speed>0.0</speed>
  <fix>3d</fix>
</trkpt>
<trkpt lat="40.0728609" lon="-105.2306201">
  <ele>1588.0</ele>
  <time>2026-08-27T18:25:55Z</time>
  <course>70.37</course>
  <speed>0.022360679774997897</speed>
  <fix>3d</fix>
</trkpt>
<trkpt lat="40.0728608" lon="-105.2306203">
  <ele>1588.03</ele>
  <time>2026-08-27T18:25:55Z</time>
  <course>113.0</course>
  <speed>0.0</speed>
  <fix>3d</fix>
</trkpt>
<trkpt lat="40.0728609" lon="-105.2306201">
  <ele>1587.89</ele>
  <time>2026-08-27T18:25:55Z</time>
  <course>70.39</course>
  <speed>0.022360679774997897</speed>
  <fix>3d</fix>
</trkpt>
<trkpt lat="40.0728608" lon="-105.2306203">
  <ele>1587.92</ele>
  <time>2026-08-27T18:25:55Z</time>
  <course>106.91</course>
  <speed>0.0</speed>
  <fix>3d</fix>
</trkpt>
<trkpt lat="40.0728609" lon="-105.2306201">
  <ele>1587.8</ele>
  <time>2026-08-27T18:25:55Z</time>
  <course>70.41</course>
  <speed>0.022360679774997897</speed>
  <fix>3d</fix>
</trkpt>
<trkpt lat="40.0728608" lon="-105.2306203">
  <ele>1587.83</ele>
  <time>2026-08-27T18:25:55Z</time>
  <course>103.32</course>
  <speed>0.0</speed>
  <fix>3d</fix>
</trkpt>
<trkpt lat="40.0728609" lon="-105.2306201">
  <ele>1587.7</ele>
  <time>2026-08-27T18:25:55Z</time>
  <course>70.41</course>
  <speed>0.022360679774997897</speed>
  <fix>3d</fix>
</trkpt>
<trkpt lat="40.0728608" lon="-105.2306203">
  <ele>1587.73</ele>
  <time>2026-08-27T18:25:55Z</time>
  <course>101.95</course>
  <speed>0.0</speed>
  <fix>3d</fix>
</trkpt>
<trkpt lat="40.0728609" lon="-105.2306201">
  <ele>1587.59</ele>
  <time>2026-08-27T18:25:55Z</time>
  <course>70.41</course>
  <speed>0.022360679774997897</speed>
  <fix>3d</fix>
</trkpt>
<trkpt lat="40.0728608" lon="-105.2306203">
  <ele>1587.63</ele>
  <time>2026-08-27T18:25:55Z</time>
  <course>99.73</course>
  <speed>0.0</speed>
  <fix>3d</fix>
</trkpt>
<trkpt lat="40.0728609" lon="-105.2306201">
  <ele>1587.49</ele>
  <time>2026-08-27T18:25:55Z</time>
  <course>70.42</course>
  <speed>0.022360679774997897</speed>
  <fix>3d</fix>
</trkpt>
<trkpt lat="40.0728608" lon="-105.2306203">
  <ele>1587.53</ele>
  <time>2026-08-27T18:25:55Z</time>
  <course>97.71</course>
  <speed>0.0</speed>
  <fix>3d</fix>
</trkpt>
<trkpt lat="40.0728609" lon="-105.2306201">
  <ele>1587.39</ele>
  <time>2026-08-27T18:25:55Z</time>
  <course>70.42</course>
  <speed>0.022360679774997897</speed>
  <fix>3d</fix>
</trkpt>
<trkpt lat="40.0728608" lon="-105.2306203">
  <ele>1587.42</ele>
  <time>2026-08-27T18:25:55Z</time>
  <course>96.96</course>
  <speed>0.0</speed>
  <fix>3d</fix>
</trkpt>
<trkpt lat="40.0728609" lon="-105.2306201">
  <ele>1587.29</ele>
  <time>2026-08-27T18:25:56Z</time>
  <course>70.42</course>
  <speed>0.022360679774997897</speed>
  <fix>3d</fix>
</trkpt>
<trkpt lat="40.0728608" lon="-105.2306203">
  <ele>1587.32</ele>
  <time>2026-08-27T18:25:56Z</time>
  <course>95.48</course>
  <speed>0.0</speed>
  <fix>3d</fix>
</trkpt>
<trkpt lat="40.0728609" lon="-105.2306201">
  <ele>1587.19</ele>
  <time>2026-08-27T18:25:56Z</time>
  <course>70.43</course>
  <speed>0.022360679774997897</speed>
  <fix>3d</fix>
</trkpt>
<trkpt lat="40.0728608" lon="-105.2306202">
  <ele>1587.22</ele>
  <time>2026-08-27T18:25:56Z</time>
  <course>93.19</course>
  <speed>0.0</speed>
  <fix>3d</fix>
</trkpt>
<trkpt lat="40.0728609" lon="-105.2306201">
  <ele>1587.09</ele>
  <time>2026-08-27T18:25:56Z</time>
  <course>70.43</course>
  <speed>0.022360679774997897</speed>
  <fix>3d</fix>
</trkpt>
<trkpt lat="40.0728608" lon="-105.2306201">
  <ele>1587.12</ele>
  <time>2026-08-27T18:25:56Z</time>
  <course>91.84</course>
  <speed>0.0</speed>
  <fix>3d</fix>
</trkpt>
<trkpt lat="40.0728609" lon="-105.2306201">
  <ele>1586.99</ele>
  <time>2026-08-27T18:25:56Z</time>
  <course>70.44</course>
  <speed>0.022360679774997897</speed>
  <fix>3d</fix>
</trkpt>
<trkpt lat="40.0728608" lon="-105.2306201">
  <ele>1587.02</ele>
  <time>2026-08-27T18:25:56Z</time>
  <course>91.46</course>
  <speed>0.0</speed>
  <fix>3d</fix>
</trkpt>
<trkpt lat="40.0728609" lon="-105.2306201">
  <ele>1586.89</ele>
  <time>2026-08-27T18:25:56Z</time>
  <course>70.45</course>
  <speed>0.022360679774997897</speed>
  <fix>3d</fix>
</trkpt>
<trkpt lat="40.0728608" lon="-105.2306201">
  <ele>1586.91</ele>
  <time>2026-08-27T18:25:56Z</time>
  <course>90.4</course>
  <speed>0.0</speed>
  <fix>3d</fix>
</trkpt>
<trkpt lat="40.0728609" lon="-105.2306201">
  <ele>1586.78</ele>
  <time>2026-08-27T18:25:56Z</time>
  <course>70.46</course>
  <speed>0.022360679774997897</speed>
  <fix>3d</fix>
</trkpt>
<trkpt lat="40.0728608" lon="-105.2306201">
  <ele>1586.82</ele>
  <time>2026-08-27T18:25:56Z</time>
  <course>89.53</course>
  <speed>0.0</speed>
  <fix>3d</fix>
</trkpt>
<trkpt lat="40.0728609" lon="-105.23062">
  <ele>1586.68</ele>
  <time>2026-08-27T18:25:56Z</time>
  <course>70.45</course>
  <speed>0.022360679774997897</speed>
  <fix>3d</fix>
</trkpt>
<trkpt lat="40.0728608" lon="-105.2306201">
  <ele>1586.72</ele>
  <time>2026-08-27T18:25:56Z</time>
  <course>89.86</course>
  <speed>0.0</speed>
  <fix>3d</fix>
</trkpt>
<trkpt lat="40.0728609" lon="-105.23062">
  <ele>1586.58</ele>
  <time>2026-08-27T18:25:56Z</time>
  <course>70.43</course>
  <speed>0.022360679774997897</speed>
  <fix>3d</fix>
</trkpt>
<trkpt lat="40.0728608" lon="-105.2306201">
  <ele>1586.62</ele>
  <time>2026-08-27T18:25:56Z</time>
  <course>90.49</course>
  <speed>0.0</speed>
  <fix>3d</fix>
</trkpt>
<trkpt lat="40.0728609" lon="-105.23062">
  <ele>1586.48</ele>
  <time>2026-08-27T18:25:56Z</time>
  <course>70.45</course>
  <speed>0.022360679774997897</speed>
  <fix>3d</fix>
</trkpt>
<trkpt lat="40.0728608" lon="-105.2306201">
  <ele>1586.52</ele>
  <time>2026-08-27T18:25:56Z</time>
  <course>91.05</course>
  <speed>0.0</speed>
  <fix>3d</fix>
</trkpt>
<trkpt lat="40.0728609" lon="-105.23062">
  <ele>1586.38</ele>
  <time>2026-08-27T18:25:56Z</time>
  <course>70.47</course>
  <speed>0.022360679774997897</speed>
  <fix>3d</fix>
</trkpt>
<trkpt lat="40.0728608" lon="-105.2306201">
  <ele>1586.42</ele>
  <time>2026-08-27T18:25:56Z</time>
  <course>93.64</course>
  <speed>0.0</speed>
  <fix>3d</fix>
</trkpt>
<trkpt lat="40.0728609" lon="-105.23062">
  <ele>1586.28</ele>
  <time>2026-08-27T18:25:56Z</time>
  <course>70.46</course>
  <speed>0.02</speed>
  <fix>3d</fix>
</trkpt>
<trkpt lat="40.0728608" lon="-105.2306201">
  <ele>1586.33</ele>
  <time>2026-08-27T18:25:56Z</time>
  <course>99.86</course>
  <speed>0.0</speed>
  <fix>3d</fix>
</trkpt>
<trkpt lat="40.0728609" lon="-105.23062">
  <ele>1586.18</ele>
  <time>2026-08-27T18:25:56Z</time>
  <course>70.45</course>
  <speed>0.02</speed>
  <fix>3d</fix>
</trkpt>
<trkpt lat="40.0728608" lon="-105.2306201">
  <ele>1586.23</ele>
  <time>2026-08-27T18:25:56Z</time>
  <course>109.03</course>
  <speed>0.0</speed>
  <fix>3d</fix>
</trkpt>
<trkpt lat="40.0728609" lon="-105.23062">
  <ele>1586.08</ele>
  <time>2026-08-27T18:25:56Z</time>
  <course>70.48</course>
  <speed>0.02</speed>
  <fix>3d</fix>
</trkpt>
<trkpt lat="40.0728608" lon="-105.2306201">
  <ele>1586.13</ele>
  <time>2026-08-27T18:25:56Z</time>
  <course>128.4</course>
  <speed>0.0</speed>
  <fix>3d</fix>
</trkpt>
<trkpt lat="40.0728609" lon="-105.23062">
  <ele>1586.05</ele>
  <time>2026-08-27T18:25:56Z</time>
  <course>70.48</course>
  <speed>0.04</speed>
  <fix>3d</fix>
</trkpt>
<trkpt lat="40.0728608" lon="-105.2306201">
  <ele>1586.03</ele>
  <time>2026-08-27T18:25:56Z</time>
  <course>337.0</course>
  <speed>0.0</speed>
  <fix>3d</fix>
</trkpt>
<trkpt lat="40.072861" lon="-105.23062">
  <ele>1586.07</ele>
  <time>2026-08-27T18:25:56Z</time>
  <course>70.47</course>
  <speed>0.022360679774997897</speed>
  <fix>3d</fix>
</trkpt>
<trkpt lat="40.0728608" lon="-105.2306201">
  <ele>1585.99</ele>
  <time>2026-08-27T18:25:56Z</time>
  <course>343.06</course>
  <speed>0.01</speed>
  <fix>3d</fix>
</trkpt>
<trkpt lat="40.0728609" lon="-105.23062">
  <ele>1586.07</ele>
  <time>2026-08-27T18:25:56Z</time>
  <course>70.49</course>
  <speed>0.02</speed>
  <fix>3d</fix>
</trkpt>
<trkpt lat="40.0728608" lon="-105.2306201">
  <ele>1586.0</ele>
  <time>2026-08-27T18:25:56Z</time>
  <course>11.15</course>
  <speed>0.0</speed>
  <fix>3d</fix>
</trkpt>
<trkpt lat="40.0728609" lon="-105.23062">
  <ele>1586.06</ele>
  <time>2026-08-27T18:25:56Z</time>
  <course>70.53</course>
  <speed>0.02</speed>
  <fix>3d</fix>
</trkpt>
<trkpt lat="40.0728608" lon="-105.2306201">
  <ele>1586.0</ele>
  <time>2026-08-27T18:25:56Z</time>
  <course>145.82</course>
  <speed>0.0</speed>
  <fix>3d</fix>
</trkpt>
<trkpt lat="40.0728609" lon="-105.23062">
  <ele>1586.06</ele>
  <time>2026-08-27T18:25:56Z</time>
  <course>70.56</course>
  <speed>0.02</speed>
  <fix>3d</fix>
</trkpt>
<trkpt lat="40.0728608" lon="-105.2306201">
  <ele>1586.0</ele>
  <time>2026-08-27T18:25:56Z</time>
  <course>178.98</course>
  <speed>0.0</speed>
  <fix>3d</fix>
</trkpt>
<trkpt lat="40.0728609" lon="-105.23062">
  <ele>1586.06</ele>
  <time>2026-08-27T18:25:56Z</time>
  <course>70.59</course>
  <speed>0.02</speed>
  <fix>3d</fix>
</trkpt>
<trkpt lat="40.0728608" lon="-105.2306201">
  <ele>1586.0</ele>
  <time>2026-08-27T18:25:56Z</time>
  <course>38.21</course>
  <speed>0.0</speed>
  <fix>3d</fix>
</trkpt>
<trkpt lat="40.0728609" lon="-105.23062">
  <ele>1586.06</ele>
  <time>2026-08-27T18:25:56Z</time>
  <course>70.61</course>
  <speed>0.02</speed>
  <fix>3d</fix>
</trkpt>
<trkpt lat="40.0728608" lon="-105.2306201">
  <ele>1586.0</ele>
  <time>2026-08-27T18:25:56Z</time>
  <course>61.26</course>
  <speed>0.0</speed>
  <fix>3d</fix>
</trkpt>
<trkpt lat="40.0728609" lon="-105.23062">
  <ele>1586.06</ele>
  <time>2026-08-27T18:25:56Z</time>
  <course>70.64</course>
  <speed>0.02</speed>
  <fix>3d</fix>
</trkpt>
<trkpt lat="40.0728608" lon="-105.2306201">
  <ele>1586.0</ele>
  <time>2026-08-27T18:25:56Z</time>
  <course>82.96</course>
  <speed>0.0</speed>
  <fix>3d</fix>
</trkpt>
<trkpt lat="40.0728609" lon="-105.23062">
  <ele>1586.06</ele>
  <time>2026-08-27T18:25:56Z</time>
  <course>70.66</course>
  <speed>0.02</speed>
  <fix>3d</fix>
</trkpt>
<trkpt lat="40.0728608" lon="-105.2306201">
  <ele>1586.0</ele>
  <time>2026-08-27T18:25:56Z</time>
  <course>118.61</course>
  <speed>0.0</speed>
  <fix>3d</fix>
</trkpt>
<trkpt lat="40.0728609" lon="-105.23062">
  <ele>1586.06</ele>
  <time>2026-08-27T18:25:56Z</time>
  <course>70.68</course>
  <speed>0.02</speed>
  <fix>3d</fix>
</trkpt>
<trkpt lat="40.0728608" lon="-105.2306201">
  <ele>1586.0</ele>
  <time>2026-08-27T18:25:56Z</time>
  <course>100.67</course>
  <speed>0.0</speed>
  <fix>3d</fix>
</trkpt>
<trkpt lat="40.0728609" lon="-105.23062">
  <ele>1586.07</ele>
  <time>2026-08-27T18:25:56Z</time>
  <course>70.69</course>
  <speed>0.01</speed>
  <fix>3d</fix>
</trkpt>
<trkpt lat="40.0728608" lon="-105.2306201">
  <ele>1586.0</ele>
  <time>2026-08-27T18:25:56Z</time>
  <course>142.73</course>
  <speed>0.0</speed>
  <fix>3d</fix>
</trkpt>
<trkpt lat="40.0728609" lon="-105.23062">
  <ele>1586.07</ele>
  <time>2026-08-27T18:25:56Z</time>
  <course>70.68</course>
  <speed>0.01414213562373095</speed>
  <fix>3d</fix>
</trkpt>
<trkpt lat="40.0728608" lon="-105.2306201">
  <ele>1586.0</ele>
  <time>2026-08-27T18:25:56Z</time>
  <course>161.19</course>
  <speed>0.0</speed>
  <fix>3d</fix>
</trkpt>
<trkpt lat="40.0728609" lon="-105.23062">
  <ele>1586.07</ele>
  <time>2026-08-27T18:25:56Z</time>
  <course>70.66</course>
  <speed>0.02</speed>
  <fix>3d</fix>
</trkpt>
<trkpt lat="40.0728608" lon="-105.2306201">
  <ele>1586.0</ele>
  <time>2026-08-27T18:25:56Z</time>
  <course>165.42</course>
  <speed>0.0</speed>
  <fix>3d</fix>
</trkpt>
<trkpt lat="40.0728609" lon="-105.23062">
  <ele>1586.07</ele>
  <time>2026-08-27T18:25:56Z</time>
  <course>70.64</course>
  <speed>0.02</speed>
  <fix>3d</fix>
</trkpt>
<trkpt lat="40.0728608" lon="-105.2306201">
  <ele>1586.0</ele>
  <time>2026-08-27T18:25:56Z</time>
  <course>192.1</course>
  <speed>0.0</speed>
  <fix>3d</fix>
</trkpt>
<trkpt lat="40.0728609" lon="-105.23062">
  <ele>1586.07</ele>
  <time>2026-08-27T18:25:56Z</time>
  <course>70.64</course>
  <speed>0.02</speed>
  <fix>3d</fix>
</trkpt>
<trkpt lat="40.0728608" lon="-105.2306201">
  <ele>1586.0</ele>
  <time>2026-08-27T18:25:56Z</time>
  <course>312.17</course>
  <speed>0.0</speed>
  <fix>3d</fix>
</trkpt>
<trkpt lat="40.0728609" lon="-105.23062">
  <ele>1586.07</ele>
  <time>2026-08-27T18:25:56Z</time>
  <course>70.63</course>
  <speed>0.02</speed>
  <fix>3d</fix>
</trkpt>
<trkpt lat="40.0728608" lon="-105.2306201">
  <ele>1586.0</ele>
  <time>2026-08-27T18:25:56Z</time>
  <course>300.2</course>
  <speed>0.0</speed>
  <fix>3d</fix>
</trkpt>
<trkpt lat="40.0728609" lon="-105.23062">
  <ele>1586.07</ele>
  <time>2026-08-27T18:25:56Z</time>
  <course>70.63</course>
  <speed>0.02</speed>
  <fix>3d</fix>
</trkpt>
<trkpt lat="40.0728608" lon="-105.2306201">
  <ele>1586.0</ele>
  <time>2026-08-27T18:25:56Z</time>
  <course>293.56</course>
  <speed>0.0</speed>
  <fix>3d</fix>
</trkpt>
<trkpt lat="40.0728609" lon="-105.23062">
  <ele>1586.07</ele>
  <time>2026-08-27T18:25:56Z</time>
  <course>70.62</course>
  <speed>0.022360679774997897</speed>
  <fix>3d</fix>
</trkpt>
<trkpt lat="40.0728608" lon="-105.2306201">
  <ele>1586.0</ele>
  <time>2026-08-27T18:25:56Z</time>
  <course>291.36</course>
  <speed>0.0</speed>
  <fix>3d</fix>
</trkpt>
<trkpt lat="40.0728609" lon="-105.23062">
  <ele>1586.06</ele>
  <time>2026-08-27T18:25:56Z</time>
  <course>70.62</course>
  <speed>0.022360679774997897</speed>
  <fix>3d</fix>
</trkpt>
<trkpt lat="40.0728608" lon="-105.2306201">
  <ele>1586.0</ele>
  <time>2026-08-27T18:25:56Z</time>
  <course>269.36</course>
  <speed>0.0</speed>
  <fix>3d</fix>
</trkpt>
<trkpt lat="40.0728609" lon="-105.23062">
  <ele>1586.06</ele>
  <time>2026-08-27T18:25:56Z</time>
  <course>70.61</course>
  <speed>0.022360679774997897</speed>
  <fix>3d</fix>
</trkpt>
<trkpt lat="40.0728608" lon="-105.2306201">
  <ele>1586.0</ele>
  <time>2026-08-27T18:25:56Z</time>
  <course>137.49</course>
  <speed>0.0</speed>
  <fix>3d</fix>
</trkpt>
<trkpt lat="40.0728609" lon="-105.23062">
  <ele>1586.06</ele>
  <time>2026-08-27T18:25:56Z</time>
  <course>70.61</course>
  <speed>0.022360679774997897</speed>
  <fix>3d</fix>
</trkpt>
<trkpt lat="40.0728608" lon="-105.2306201">
  <ele>1586.0</ele>
  <time>2026-08-27T18:25:56Z</time>
  <course>138.11</course>
  <speed>0.0</speed>
  <fix>3d</fix>
</trkpt>
<trkpt lat="40.0728609" lon="-105.23062">
  <ele>1586.05</ele>
  <time>2026-08-27T18:25:56Z</time>
  <course>70.61</course>
  <speed>0.022360679774997897</speed>
  <fix>3d</fix>
</trkpt>
<trkpt lat="40.0728608" lon="-105.2306201">
  <ele>1586.0</ele>
  <time>2026-08-27T18:25:56Z</time>
  <course>177.67</course>
  <speed>0.0</speed>
  <fix>3d</fix>
</trkpt>
<trkpt lat="40.0728609" lon="-105.23062">
  <ele>1586.05</ele>
  <time>2026-08-27T18:25:56Z</time>
  <course>70.6</course>
  <speed>0.022360679774997897</speed>
  <fix>3d</fix>
</trkpt>
<trkpt lat="40.0728608" lon="-105.2306201">
  <ele>1586.0</ele>
  <time>2026-08-27T18:25:56Z</time>
  <course>160.53</course>
  <speed>0.0</speed>
  <fix>3d</fix>
</trkpt>
<trkpt lat="40.0728609" lon="-105.23062">
  <ele>1586.05</ele>
  <time>2026-08-27T18:25:56Z</time>
  <course>70.6</course>
  <speed>0.022360679774997897</speed>
  <fix>3d</fix>
</trkpt>
<trkpt lat="40.0728608" lon="-105.2306201">
  <ele>1586.0</ele>
  <time>2026-08-27T18:25:56Z</time>
  <course>155.12</course>
  <speed>0.0</speed>
  <fix>3d</fix>
</trkpt>
<trkpt lat="40.0728609" lon="-105.23062">
  <ele>1586.06</ele>
  <time>2026-08-27T18:25:56Z</time>
  <course>70.6</course>
  <speed>0.022360679774997897</speed>
  <fix>3d</fix>
</trkpt>
<trkpt lat="40.0728608" lon="-105.2306201">
  <ele>1586.0</ele>
  <time>2026-08-27T18:25:56Z</time>
  <course>157.55</course>
  <speed>0.0</speed>
  <fix>3d</fix>
</trkpt>
<trkpt lat="40.0728609" lon="-105.23062">
  <ele>1586.06</ele>
  <time>2026-08-27T18:25:56Z</time>
  <course>70.6</course>
  <speed>0.022360679774997897</speed>
  <fix>3d</fix>
</trkpt>
<trkpt lat="40.0728608" lon="-105.2306201">
  <ele>1586.0</ele>
  <time>2026-08-27T18:25:56Z</time>
  <course>158.0</course>
  <speed>0.0</speed>
  <fix>3d</fix>
</trkpt>
<trkpt lat="40.0728609" lon="-105.23062">
  <ele>1586.06</ele>
  <time>2026-08-27T18:25:56Z</time>
  <course>70.59</course>
  <speed>0.022360679774997897</speed>
  <fix>3d</fix>
</trkpt>
<trkpt lat="40.0728608" lon="-105.2306201">
  <ele>1586.0</ele>
  <time>2026-08-27T18:25:56Z</time>
  <course>157.37</course>
  <speed>0.0</speed>
  <fix>3d</fix>
</trkpt>
<trkpt lat="40.0728609" lon="-105.23062">
  <ele>1586.06</ele>
  <time>2026-08-27T18:25:56Z</time>
  <course>70.59</course>
  <speed>0.022360679774997897</speed>
  <fix>3d</fix>
</trkpt>
<trkpt lat="40.0728608" lon="-105.2306201">
  <ele>1586.0</ele>
  <time>2026-08-27T18:25:56Z</time>
  <course>157.24</course>
  <speed>0.0</speed>
  <fix>3d</fix>
</trkpt>
<trkpt lat="40.0728609" lon="-105.23062">
  <ele>1586.06</ele>
  <time>2026-08-27T18:25:56Z</time>
  <course>70.59</course>
  <speed>0.022360679774997897</speed>
  <fix>3d</fix>
</trkpt>
<trkpt lat="40.0728608" lon="-105.2306201">
  <ele>1586.0</ele>
  <time>2026-08-27T18:25:56Z</time>
  <course>157.21</course>
  <speed>0.0</speed>
  <fix>3d</fix>
</trkpt>
<trkpt lat="40.0728609" lon="-105.23062">
  <ele>1586.06</ele>
  <time>2026-08-27T18:25:56Z</time>
  <course>70.59</course>
  <speed>0.022360679774997897</speed>
  <fix>3d</fix>
</trkpt>
<trkpt lat="40.0728608" lon="-105.2306201">
  <ele>1586.0</ele>
  <time>2026-08-27T18:25:56Z</time>
  <course>157.09</course>
  <speed>0.0</speed>
  <fix>3d</fix>
</trkpt>
<trkpt lat="40.0728609" lon="-105.23062">
  <ele>1586.07</ele>
  <time>2026-08-27T18:25:56Z</time>
  <course>70.58</course>
  <speed>0.022360679774997897</speed>
  <fix>3d</fix>
</trkpt>
<trkpt lat="40.0728608" lon="-105.2306201">
  <ele>1586.0</ele>
  <time>2026-08-27T18:25:56Z</time>
  <course>156.97</course>
  <speed>0.0</speed>
  <fix>3d</fix>
</trkpt>
<trkpt lat="40.0728609" lon="-105.23062">
  <ele>1586.07</ele>
  <time>2026-08-27T18:25:56Z</time>
  <course>70.58</course>
  <speed>0.022360679774997897</speed>
  <fix>3d</fix>
</trkpt>
<trkpt lat="40.0728608" lon="-105.2306201">
  <ele>1586.0</ele>
  <time>2026-08-27T18:25:56Z</time>
  <course>156.86</course>
  <speed>0.0</speed>
  <fix>3d</fix>
</trkpt>
<trkpt lat="40.0728609" lon="-105.23062">
  <ele>1586.07</ele>
  <time>2026-08-27T18:25:56Z</time>
  <course>70.58</course>
  <speed>0.022360679774997897</speed>
  <fix>3d</fix>
</trkpt>
<trkpt lat="40.0728608" lon="-105.2306201">
  <ele>1586.0</ele>
  <time>2026-08-27T18:25:56Z</time>
  <course>156.75</course>
  <speed>0.0</speed>
  <fix>3d</fix>
</trkpt>
<trkpt lat="40.0728609" lon="-105.23062">
  <ele>1586.07</ele>
  <time>2026-08-27T18:25:56Z</time>
  <course>70.58</course>
  <speed>0.022360679774997897</speed>
  <fix>3d</fix>
</trkpt>
<trkpt lat="40.0728608" lon="-105.2306201">
  <ele>1586.0</ele>
  <time>2026-08-27T18:25:56Z</time>
  <course>156.65</course>
  <speed>0.0</speed>
  <fix>3d</fix>
</trkpt>
<trkpt lat="40.0728609" lon="-105.23062">
  <ele>1586.07</ele>
  <time>2026-08-27T18:25:56Z</time>
  <course>70.58</course>
  <speed>0.022360679774997897</speed>
  <fix>3d</fix>
</trkpt>
<trkpt lat="40.0728608" lon="-105.2306201">
  <ele>1586.0</ele>
  <time>2026-08-27T18:25:56Z</time>
  <course>156.54</course>
  <speed>0.0</speed>
  <fix>3d</fix>
</trkpt>
<trkpt lat="40.0728609" lon="-105.23062">
  <ele>1586.07</ele>
  <time>2026-08-27T18:25:56Z</time>
  <course>70.58</course>
  <speed>0.022360679774997897</speed>
  <fix>3d</fix>
</trkpt>
<trkpt lat="40.0728608" lon="-105.2306201">
  <ele>1586.0</ele>
  <time>2026-08-27T18:25:56Z</time>
  <course>156.44</course>
  <speed>0.0</speed>
  <fix>3d</fix>
</trkpt>
<trkpt lat="40.0728609" lon="-105.23062">
  <ele>1586.07</ele>
  <time>2026-08-27T18:25:56Z</time>
  <course>70.57</course>
  <speed>0.022360679774997897</speed>
  <fix>3d</fix>
</trkpt>
<trkpt lat="40.0728608" lon="-105.2306201">
  <ele>1586.0</ele>
  <time>2026-08-27T18:25:56Z</time>
  <course>156.34</course>
  <speed>0.0</speed>
  <fix>3d</fix>
</trkpt>
<trkpt lat="40.0728609" lon="-105.23062">
  <ele>1586.07</ele>
  <time>2026-08-27T18:25:56Z</time>
  <course>70.57</course>
  <speed>0.022360679774997897</speed>
  <fix>3d</fix>
</trkpt>
<trkpt lat="40.0728608" lon="-105.2306201">
  <ele>1586.0</ele>
  <time>2026-08-27T18:25:56Z</time>
  <course>156.25</course>
  <speed>0.0</speed>
  <fix>3d</fix>
</trkpt>
<trkpt lat="40.0728609" lon="-105.23062">
  <ele>1586.07</ele>
  <time>2026-08-27T18:25:56Z</time>
  <course>70.57</course>
  <speed>0.022360679774997897</speed>
  <fix>3d</fix>
</trkpt>
<trkpt lat="40.0728608" lon="-105.2306201">
  <ele>1586.0</ele>
  <time>2026-08-27T18:25:56Z</time>
  <course>156.16</course>
  <speed>0.0</speed>
  <fix>3d</fix>
</trkpt>
<trkpt lat="40.0728609" lon="-105.23062">
  <ele>1586.07</ele>
  <time>2026-08-27T18:25:56Z</time>
  <course>70.57</course>
  <speed>0.022360679774997897</speed>
  <fix>3d</fix>
</trkpt>
<trkpt lat="40.0728608" lon="-105.2306201">
  <ele>1586.0</ele>
  <time>2026-08-27T18:25:56Z</time>
  <course>156.07</course>
  <speed>0.0</speed>
  <fix>3d</fix>
</trkpt>
<trkpt lat="40.0728609" lon="-105.23062">
  <ele>1586.07</ele>
  <time>2026-08-27T18:25:56Z</time>
  <course>70.57</course>
  <speed>0.022360679774997897</speed>
  <fix>3d</fix>
</trkpt>
<trkpt lat="40.0728608" lon="-105.2306201">
  <ele>1586.0</ele>
  <time>2026-08-27T18:25:56Z</time>
  <course>155.99</course>
  <speed>0.0</speed>
  <fix>3d</fix>
</trkpt>
<trkpt lat="40.0728609" lon="-105.23062">
  <ele>1586.07</ele>
  <time>2026-08-27T18:25:56Z</time>
  <course>70.57</course>
  <speed>0.022360679774997897</speed>
  <fix>3d</fix>
</trkpt>
<trkpt lat="40.0728608" lon="-105.2306201">
  <ele>1586.0</ele>
  <time>2026-08-27T18:25:56Z</time>
  <course>155.91</course>
  <speed>0.0</speed>
  <fix>3d</fix>
</trkpt>
<trkpt lat="40.0728609" lon="-105.23062">
  <ele>1586.07</ele>
  <time>2026-08-27T18:25:56Z</time>
  <course>70.57</course>
  <speed>0.022360679774997897</speed>
  <fix>3d</fix>
</trkpt>
<trkpt lat="40.0728608" lon="-105.2306201">
  <ele>1586.0</ele>
  <time>2026-08-27T18:25:56Z</time>
  <course>155.84</course>
  <speed>0.0</speed>
  <fix>3d</fix>
</trkpt>
<trkpt lat="40.0728609" lon="-105.23062">
  <ele>1586.07</ele>
  <time>2026-08-27T18:25:56Z</time>
  <course>70.57</course>
  <speed>0.022360679774997897</speed>
  <fix>3d</fix>
</trkpt>
<trkpt lat="40.0728608" lon="-105.2306201">
  <ele>1586.0</ele>
  <time>2026-08-27T18:25:56Z</time>
  <course>155.77</course>
  <speed>0.0</speed>
  <fix>3d</fix>
</trkpt>
<trkpt lat="40.0728609" lon="-105.23062">
  <ele>1586.07</ele>
  <time>2026-08-27T18:25:56Z</time>
  <course>70.57</course>
  <speed>0.022360679774997897</speed>
  <fix>3d</fix>
</trkpt>
<trkpt lat="40.0728608" lon="-105.2306201">
  <ele>1586.0</ele>
  <time>2026-08-27T18:25:56Z</time>
  <course>155.7</course>
  <speed>0.0</speed>
  <fix>3d</fix>
</trkpt>
<trkpt lat="40.0728609" lon="-105.23062">
  <ele>1586.07</ele>
  <time>2026-08-27T18:25:56Z</time>
  <course>70.57</course>
  <speed>0.022360679774997897</speed>
  <fix>3d</fix>
</trkpt>
<trkpt lat="40.0728608" lon="-105.2306201">
  <ele>1586.0</ele>
  <time>2026-08-27T18:25:56Z</time>
  <course>155.64</course>
  <speed>0.0</speed>
  <fix>3d</fix>
</trkpt>
<trkpt lat="40.0728609" lon="-105.23062">
  <ele>1586.07</ele>
  <time>2026-08-27T18:25:56Z</time>
  <course>70.57</course>
  <speed>0.022360679774997897</speed>
  <fix>3d</fix>
</trkpt>
<trkpt lat="40.0728608" lon="-105.2306201">
  <ele>1586.0</ele>
  <time>2026-08-27T18:25:56Z</time>
  <course>155.58</course>
  <speed>0.0</speed>
  <fix>3d</fix>
</trkpt>
<trkpt lat="40.0728609" lon="-105.23062">
  <ele>1586.07</ele>
  <time>2026-08-27T18:25:56Z</time>
  <course>70.56</course>
  <speed>0.022360679774997897</speed>
  <fix>3d</fix>
</trkpt>
<trkpt lat="40.0728608" lon="-105.2306201">
  <ele>1586.0</ele>
  <time>2026-08-27T18:25:56Z</time>
  <course>155.52</course>
  <speed>0.0</speed>
  <fix>3d</fix>
</trkpt>
<trkpt lat="40.0728609" lon="-105.23062">
  <ele>1586.07</ele>
  <time>2026-08-27T18:25:57Z</time>
  <course>70.56</course>
  <speed>0.022360679774997897</speed>
  <fix>3d</fix>
</trkpt>
<trkpt lat="40.0728608" lon="-105.2306201">
  <ele>1586.0</ele>
  <time>2026-08-27T18:25:57Z</time>
  <course>155.47</course>
  <speed>0.0</speed>
  <fix>3d</fix>
</trkpt>
<trkpt lat="40.0728609" lon="-105.23062">
  <ele>1586.07</ele>
  <time>2026-08-27T18:25:57Z</time>
  <course>70.56</course>
  <speed>0.022360679774997897</speed>
  <fix>3d</fix>
</trkpt>
<trkpt lat="40.0728608" lon="-105.2306201">
  <ele>1586.0</ele>
  <time>2026-08-27T18:25:57Z</time>
  <course>155.42</course>
  <speed>0.0</speed>
  <fix>3d</fix>
</trkpt>
<trkpt lat="40.0728609" lon="-105.23062">
  <ele>1586.07</ele>
  <time>2026-08-27T18:25:57Z</time>
  <course>70.56</course>
  <speed>0.022360679774997897</speed>
  <fix>3d</fix>
</trkpt>
<trkpt lat="40.0728608" lon="-105.2306201">
  <ele>1586.0</ele>
  <time>2026-08-27T18:25:57Z</time>
  <course>155.37</course>
  <speed>0.0</speed>
  <fix>3d</fix>
</trkpt>
<trkpt lat="40.0728609" lon="-105.23062">
  <ele>1586.07</ele>
  <time>2026-08-27T18:25:57Z</time>
  <course>70.56</course>
  <speed>0.022360679774997897</speed>
  <fix>3d</fix>
</trkpt>
<trkpt lat="40.0728608" lon="-105.2306201">
  <ele>1586.0</ele>
  <time>2026-08-27T18:25:57Z</time>
  <course>155.33</course>
  <speed>0.0</speed>
  <fix>3d</fix>
</trkpt>
<trkpt lat="40.0728609" lon="-105.23062">
  <ele>1586.07</ele>
  <time>2026-08-27T18:25:57Z</time>
  <course>70.56</course>
  <speed>0.022360679774997897</speed>
  <fix>3d</fix>
</trkpt>
<trkpt lat="40.0728608" lon="-105.2306201">
  <ele>1586.0</ele>
  <time>2026-08-27T18:25:57Z</time>
  <course>155.29</course>
  <speed>0.0</speed>
  <fix>3d</fix>
</trkpt>
<trkpt lat="40.0728609" lon="-105.23062">
  <ele>1586.06</ele>
  <time>2026-08-27T18:25:57Z</time>
  <course>70.56</course>
  <speed>0.022360679774997897</speed>
  <fix>3d</fix>
</trkpt>
<trkpt lat="40.0728608" lon="-105.2306201">
  <ele>1586.0</ele>
  <time>2026-08-27T18:25:57Z</time>
  <course>155.25</course>
  <speed>0.0</speed>
  <fix>3d</fix>
</trkpt>
<trkpt lat="40.0728609" lon="-105.23062">
  <ele>1586.06</ele>
  <time>2026-08-27T18:25:57Z</time>
  <course>70.56</course>
  <speed>0.022360679774997897</speed>
  <fix>3d</fix>
</trkpt>
<trkpt lat="40.0728608" lon="-105.2306201">
  <ele>1586.0</ele>
  <time>2026-08-27T18:25:57Z</time>
  <course>155.21</course>
  <speed>0.0</speed>
  <fix>3d</fix>
</trkpt>
<trkpt lat="40.0728609" lon="-105.23062">
  <ele>1586.06</ele>
  <time>2026-08-27T18:25:57Z</time>
  <course>70.56</course>
  <speed>0.022360679774997897</speed>
  <fix>3d</fix>
</trkpt>
<trkpt lat="40.0728608" lon="-105.2306201">
  <ele>1586.0</ele>
  <time>2026-08-27T18:25:57Z</time>
  <course>155.18</course>
  <speed>0.0</speed>
  <fix>3d</fix>
</trkpt>
<trkpt lat="40.0728609" lon="-105.23062">
  <ele>1586.06</ele>
  <time>2026-08-27T18:25:57Z</time>
  <course>70.56</course>
  <speed>0.022360679774997897</speed>
  <fix>3d</fix>
</trkpt>
<trkpt lat="40.0728608" lon="-105.2306201">
  <ele>1586.0</ele>
  <time>2026-08-27T18:25:57Z</time>
  <course>155.15</course>
  <speed>0.0</speed>
  <fix>3d</fix>
</trkpt>
<trkpt lat="40.0728609" lon="-105.23062">
  <ele>1586.07</ele>
  <time>2026-08-27T18:25:57Z</time>
  <course>70.56</course>
  <speed>0.022360679774997897</speed>
  <fix>3d</fix>
</trkpt>
<trkpt lat="40.0728608" lon="-105.2306201">
  <ele>1586.0</ele>
  <time>2026-08-27T18:25:57Z</time>
  <course>155.24</course>
  <speed>0.0</speed>
  <fix>3d</fix>
</trkpt>
<trkpt lat="40.0728609" lon="-105.23062">
  <ele>1586.07</ele>
  <time>2026-08-27T18:25:57Z</time>
  <course>70.56</course>
  <speed>0.022360679774997897</speed>
  <fix>3d</fix>
</trkpt>
<trkpt lat="40.0728608" lon="-105.2306201">
  <ele>1586.0</ele>
  <time>2026-08-27T18:25:57Z</time>
  <course>155.42</course>
  <speed>0.0</speed>
  <fix>3d</fix>
</trkpt>
<trkpt lat="40.0728609" lon="-105.23062">
  <ele>1586.07</ele>
  <time>2026-08-27T18:25:57Z</time>
  <course>70.56</course>
  <speed>0.022360679774997897</speed>
  <fix>3d</fix>
</trkpt>
<trkpt lat="40.0728608" lon="-105.2306201">
  <ele>1586.0</ele>
  <time>2026-08-27T18:25:57Z</time>
  <course>155.46</course>
  <speed>0.0</speed>
  <fix>3d</fix>
</trkpt>
<trkpt lat="40.0728609" lon="-105.23062">
  <ele>1586.08</ele>
  <time>2026-08-27T18:25:57Z</time>
  <course>70.69</course>
  <speed>0.022360679774997897</speed>
  <fix>3d</fix>
</trkpt>
<trkpt lat="40.0728608" lon="-105.2306201">
  <ele>1586.0</ele>
  <time>2026-08-27T18:25:57Z</time>
  <course>157.36</course>
  <speed>0.0</speed>
  <fix>3d</fix>
</trkpt>
<trkpt lat="40.0728609" lon="-105.23062">
  <ele>1586.08</ele>
  <time>2026-08-27T18:25:57Z</time>
  <course>70.99</course>
  <speed>0.022360679774997897</speed>
  <fix>3d</fix>
</trkpt>
<trkpt lat="40.0728608" lon="-105.2306201">
  <ele>1586.0</ele>
  <time>2026-08-27T18:25:57Z</time>
  <course>157.77</course>
  <speed>0.0</speed>
  <fix>3d</fix>
</trkpt>
<trkpt lat="40.0728609" lon="-105.23062">
  <ele>1586.08</ele>
  <time>2026-08-27T18:25:57Z</time>
  <course>71.24</course>
  <speed>0.022360679774997897</speed>
  <fix>3d</fix>
</trkpt>
<trkpt lat="40.0728608" lon="-105.2306201">
  <ele>1586.0</ele>
  <time>2026-08-27T18:25:57Z</time>
  <course>156.8</course>
  <speed>0.0</speed>
  <fix>3d</fix>
</trkpt>
<trkpt lat="40.0728609" lon="-105.23062">
  <ele>1586.08</ele>
  <time>2026-08-27T18:25:57Z</time>
  <course>71.42</course>
  <speed>0.022360679774997897</speed>
  <fix>3d</fix>
</trkpt>
<trkpt lat="40.0728608" lon="-105.2306201">
  <ele>1586.0</ele>
  <time>2026-08-27T18:25:57Z</time>
  <course>147.45</course>
  <speed>0.0</speed>
  <fix>3d</fix>
</trkpt>
<trkpt lat="40.0728609" lon="-105.23062">
  <ele>1586.08</ele>
  <time>2026-08-27T18:25:57Z</time>
  <course>71.57</course>
  <speed>0.022360679774997897</speed>
  <fix>3d</fix>
</trkpt>
<trkpt lat="40.0728608" lon="-105.2306201">
  <ele>1586.0</ele>
  <time>2026-08-27T18:25:57Z</time>
  <course>154.28</course>
  <speed>0.0</speed>
  <fix>3d</fix>
</trkpt>
<trkpt lat="40.0728609" lon="-105.23062">
  <ele>1586.09</ele>
  <time>2026-08-27T18:25:57Z</time>
  <course>71.69</course>
  <speed>0.022360679774997897</speed>
  <fix>3d</fix>
</trkpt>
<trkpt lat="40.0728608" lon="-105.2306201">
  <ele>1586.0</ele>
  <time>2026-08-27T18:25:57Z</time>
  <course>154.99</course>
  <speed>0.0</speed>
  <fix>3d</fix>
</trkpt>
<trkpt lat="40.0728609" lon="-105.23062">
  <ele>1586.08</ele>
  <time>2026-08-27T18:25:57Z</time>
  <course>71.8</course>
  <speed>0.022360679774997897</speed>
  <fix>3d</fix>
</trkpt>
<trkpt lat="40.0728608" lon="-105.2306201">
  <ele>1586.0</ele>
  <time>2026-08-27T18:25:57Z</time>
  <course>154.64</course>
  <speed>0.0</speed>
  <fix>3d</fix>
</trkpt>
<trkpt lat="40.0728609" lon="-105.23062">
  <ele>1586.08</ele>
  <time>2026-08-27T18:25:57Z</time>
  <course>71.89</course>
  <speed>0.01414213562373095</speed>
  <fix>3d</fix>
</trkpt>
<trkpt lat="40.0728608" lon="-105.2306201">
  <ele>1586.0</ele>
  <time>2026-08-27T18:25:57Z</time>
  <course>154.59</course>
  <speed>0.0</speed>
  <fix>3d</fix>
</trkpt>
<trkpt lat="40.0728609" lon="-105.23062">
  <ele>1586.08</ele>
  <time>2026-08-27T18:25:57Z</time>
  <course>71.96</course>
  <speed>0.01414213562373095</speed>
  <fix>3d</fix>
</trkpt>
<trkpt lat="40.0728608" lon="-105.2306201">
  <ele>1586.0</ele>
  <time>2026-08-27T18:25:57Z</time>
  <course>154.65</course>
  <speed>0.0</speed>
  <fix>3d</fix>
</trkpt>
<trkpt lat="40.0728609" lon="-105.23062">
  <ele>1586.08</ele>
  <time>2026-08-27T18:25:57Z</time>
  <course>72.03</course>
  <speed>0.01</speed>
  <fix>3d</fix>
</trkpt>
<trkpt lat="40.0728608" lon="-105.2306201">
  <ele>1586.0</ele>
  <time>2026-08-27T18:25:57Z</time>
  <course>154.65</course>
  <speed>0.0</speed>
  <fix>3d</fix>
</trkpt>
<trkpt lat="40.0728609" lon="-105.23062">
  <ele>1586.08</ele>
  <time>2026-08-27T18:25:57Z</time>
  <course>72.09</course>
  <speed>0.01</speed>
  <fix>3d</fix>
</trkpt>
<trkpt lat="40.0728608" lon="-105.2306201">
  <ele>1586.0</ele>
  <time>2026-08-27T18:25:57Z</time>
  <course>154.64</course>
  <speed>0.0</speed>
  <fix>3d</fix>
</trkpt>
<trkpt lat="40.0728609" lon="-105.23062">
  <ele>1586.08</ele>
  <time>2026-08-27T18:25:57Z</time>
  <course>72.14</course>
  <speed>0.01</speed>
  <fix>3d</fix>
</trkpt>
<trkpt lat="40.0728608" lon="-105.2306201">
  <ele>1586.0</ele>
  <time>2026-08-27T18:25:57Z</time>
  <course>154.64</course>
  <speed>0.0</speed>
  <fix>3d</fix>
</trkpt>
<trkpt lat="40.0728609" lon="-105.23062">
  <ele>1586.07</ele>
  <time>2026-08-27T18:25:58Z</time>
  <course>72.3</course>
  <speed>0.01</speed>
  <fix>3d</fix>
</trkpt>
<trkpt lat="40.0728608" lon="-105.2306201">
  <ele>1586.0</ele>
  <time>2026-08-27T18:25:58Z</time>
  <course>154.64</course>
  <speed>0.0</speed>
  <fix>3d</fix>
</trkpt>
<trkpt lat="40.0728609" lon="-105.23062">
  <ele>1586.07</ele>
  <time>2026-08-27T18:25:58Z</time>
  <course>72.34</course>
  <speed>0.01</speed>
  <fix>3d</fix>
</trkpt>
<trkpt lat="40.0728608" lon="-105.2306201">
  <ele>1586.0</ele>
  <time>2026-08-27T18:25:58Z</time>
  <course>154.64</course>
  <speed>0.0</speed>
  <fix>3d</fix>
</trkpt>
<trkpt lat="40.0728609" lon="-105.23062">
  <ele>1586.07</ele>
  <time>2026-08-27T18:25:58Z</time>
  <course>72.37</course>
  <speed>0.01</speed>
  <fix>3d</fix>
</trkpt>
<trkpt lat="40.0728608" lon="-105.2306201">
  <ele>1586.0</ele>
  <time>2026-08-27T18:25:58Z</time>
  <course>154.64</course>
  <speed>0.0</speed>
  <fix>3d</fix>
</trkpt>
<trkpt lat="40.0728609" lon="-105.23062">
  <ele>1586.07</ele>
  <time>2026-08-27T18:25:58Z</time>
  <course>72.39</course>
  <speed>0.01</speed>
  <fix>3d</fix>
</trkpt>
<trkpt lat="40.0728608" lon="-105.2306201">
  <ele>1586.0</ele>
  <time>2026-08-27T18:25:58Z</time>
  <course>154.64</course>
  <speed>0.0</speed>
  <fix>3d</fix>
</trkpt>
<trkpt lat="40.0728609" lon="-105.23062">
  <ele>1586.08</ele>
  <time>2026-08-27T18:25:58Z</time>
  <course>72.42</course>
  <speed>0.01</speed>
  <fix>3d</fix>
</trkpt>
<trkpt lat="40.0728608" lon="-105.2306201">
  <ele>1586.0</ele>
  <time>2026-08-27T18:25:58Z</time>
  <course>154.64</course>
  <speed>0.0</speed>
  <fix>3d</fix>
</trkpt>
<trkpt lat="40.0728609" lon="-105.23062">
  <ele>1586.08</ele>
  <time>2026-08-27T18:25:58Z</time>
  <course>72.44</course>
  <speed>0.01</speed>
  <fix>3d</fix>
</trkpt>
<trkpt lat="40.0728608" lon="-105.2306201">
  <ele>1586.0</ele>
  <time>2026-08-27T18:25:58Z</time>
  <course>154.64</course>
  <speed>0.0</speed>
  <fix>3d</fix>
</trkpt>
<trkpt lat="40.0728609" lon="-105.23062">
  <ele>1586.08</ele>
  <time>2026-08-27T18:25:58Z</time>
  <course>72.46</course>
  <speed>0.01</speed>
  <fix>3d</fix>
</trkpt>
<trkpt lat="40.0728608" lon="-105.2306201">
  <ele>1586.0</ele>
  <time>2026-08-27T18:25:58Z</time>
  <course>154.64</course>
  <speed>0.0</speed>
  <fix>3d</fix>
</trkpt>
<trkpt lat="40.0728609" lon="-105.23062">
  <ele>1586.09</ele>
  <time>2026-08-27T18:25:58Z</time>
  <course>72.48</course>
  <speed>0.01</speed>
  <fix>3d</fix>
</trkpt>
<trkpt lat="40.0728608" lon="-105.2306201">
  <ele>1586.0</ele>
  <time>2026-08-27T18:25:58Z</time>
  <course>154.64</course>
  <speed>0.0</speed>
  <fix>3d</fix>
</trkpt>
<trkpt lat="40.0728609" lon="-105.23062">
  <ele>1586.09</ele>
  <time>2026-08-27T18:25:58Z</time>
  <course>72.5</course>
  <speed>0.01</speed>
  <fix>3d</fix>
</trkpt>
<trkpt lat="40.0728608" lon="-105.2306201">
  <ele>1586.0</ele>
  <time>2026-08-27T18:25:58Z</time>
  <course>154.64</course>
  <speed>0.0</speed>
  <fix>3d</fix>
</trkpt>
<trkpt lat="40.0728609" lon="-105.23062">
  <ele>1586.09</ele>
  <time>2026-08-27T18:25:58Z</time>
  <course>72.51</course>
  <speed>0.01</speed>
  <fix>3d</fix>
</trkpt>
<trkpt lat="40.0728608" lon="-105.2306201">
  <ele>1586.0</ele>
  <time>2026-08-27T18:25:58Z</time>
  <course>154.64</course>
  <speed>0.0</speed>
  <fix>3d</fix>
</trkpt>
<trkpt lat="40.0728609" lon="-105.23062">
  <ele>1586.1</ele>
  <time>2026-08-27T18:25:58Z</time>
  <course>72.53</course>
  <speed>0.01</speed>
  <fix>3d</fix>
</trkpt>
<trkpt lat="40.0728608" lon="-105.2306201">
  <ele>1586.0</ele>
  <time>2026-08-27T18:25:58Z</time>
  <course>154.64</course>
  <speed>0.0</speed>
  <fix>3d</fix>
</trkpt>
<trkpt lat="40.0728609" lon="-105.23062">
  <ele>1586.1</ele>
  <time>2026-08-27T18:25:58Z</time>
  <course>72.54</course>
  <speed>0.01</speed>
  <fix>3d</fix>
</trkpt>
<trkpt lat="40.0728608" lon="-105.2306201">
  <ele>1586.0</ele>
  <time>2026-08-27T18:25:58Z</time>
  <course>154.64</course>
  <speed>0.0</speed>
  <fix>3d</fix>
</trkpt>
<trkpt lat="40.0728609" lon="-105.23062">
  <ele>1586.1</ele>
  <time>2026-08-27T18:25:58Z</time>
  <course>72.56</course>
  <speed>0.01</speed>
  <fix>3d</fix>
</trkpt>
<trkpt lat="40.0728608" lon="-105.2306201">
  <ele>1586.0</ele>
  <time>2026-08-27T18:25:58Z</time>
  <course>154.64</course>
  <speed>0.0</speed>
  <fix>3d</fix>
</trkpt>
<trkpt lat="40.0728609" lon="-105.23062">
  <ele>1586.1</ele>
  <time>2026-08-27T18:25:58Z</time>
  <course>72.57</course>
  <speed>0.01</speed>
  <fix>3d</fix>
</trkpt>
<trkpt lat="40.0728608" lon="-105.2306201">
  <ele>1586.0</ele>
  <time>2026-08-27T18:25:58Z</time>
  <course>154.64</course>
  <speed>0.0</speed>
  <fix>3d</fix>
</trkpt>
<trkpt lat="40.0728609" lon="-105.23062">
  <ele>1586.1</ele>
  <time>2026-08-27T18:25:58Z</time>
  <course>72.58</course>
  <speed>0.01</speed>
  <fix>3d</fix>
</trkpt>
<trkpt lat="40.0728608" lon="-105.2306201">
  <ele>1586.0</ele>
  <time>2026-08-27T18:25:58Z</time>
  <course>154.64</course>
  <speed>0.0</speed>
  <fix>3d</fix>
</trkpt>
<trkpt lat="40.0728609" lon="-105.23062">
  <ele>1586.09</ele>
  <time>2026-08-27T18:25:58Z</time>
  <course>72.59</course>
  <speed>0.01</speed>
  <fix>3d</fix>
</trkpt>
<trkpt lat="40.0728608" lon="-105.2306201">
  <ele>1586.0</ele>
  <time>2026-08-27T18:25:58Z</time>
  <course>154.64</course>
  <speed>0.0</speed>
  <fix>3d</fix>
</trkpt>
<trkpt lat="40.0728609" lon="-105.23062">
  <ele>1586.09</ele>
  <time>2026-08-27T18:25:58Z</time>
  <course>72.6</course>
  <speed>0.01</speed>
  <fix>3d</fix>
</trkpt>
<trkpt lat="40.0728608" lon="-105.2306201">
  <ele>1586.0</ele>
  <time>2026-08-27T18:25:58Z</time>
  <course>154.64</course>
  <speed>0.0</speed>
  <fix>3d</fix>
</trkpt>
<trkpt lat="40.0728609" lon="-105.23062">
  <ele>1586.08</ele>
  <time>2026-08-27T18:25:58Z</time>
  <course>72.61</course>
  <speed>0.01</speed>
  <fix>3d</fix>
</trkpt>
<trkpt lat="40.0728608" lon="-105.2306201">
  <ele>1586.0</ele>
  <time>2026-08-27T18:25:58Z</time>
  <course>154.64</course>
  <speed>0.0</speed>
  <fix>3d</fix>
</trkpt>
<trkpt lat="40.0728609" lon="-105.23062">
  <ele>1586.08</ele>
  <time>2026-08-27T18:25:58Z</time>
  <course>72.62</course>
  <speed>0.01</speed>
  <fix>3d</fix>
</trkpt>
<trkpt lat="40.0728608" lon="-105.2306201">
  <ele>1586.0</ele>
  <time>2026-08-27T18:25:58Z</time>
  <course>154.64</course>
  <speed>0.0</speed>
  <fix>3d</fix>
</trkpt>
<trkpt lat="40.0728609" lon="-105.23062">
  <ele>1586.08</ele>
  <time>2026-08-27T18:25:58Z</time>
  <course>72.63</course>
  <speed>0.01</speed>
  <fix>3d</fix>
</trkpt>
<trkpt lat="40.0728608" lon="-105.2306201">
  <ele>1586.0</ele>
  <time>2026-08-27T18:25:58Z</time>
  <course>154.64</course>
  <speed>0.0</speed>
  <fix>3d</fix>
</trkpt>
<trkpt lat="40.0728609" lon="-105.23062">
  <ele>1586.07</ele>
  <time>2026-08-27T18:25:58Z</time>
  <course>72.66</course>
  <speed>0.022360679774997897</speed>
  <fix>3d</fix>
</trkpt>
<trkpt lat="40.0728608" lon="-105.2306201">
  <ele>1586.0</ele>
  <time>2026-08-27T18:25:58Z</time>
  <course>154.64</course>
  <speed>0.0</speed>
  <fix>3d</fix>
</trkpt>
<trkpt lat="40.0728609" lon="-105.23062">
  <ele>1586.07</ele>
  <time>2026-08-27T18:25:58Z</time>
  <course>72.66</course>
  <speed>0.022360679774997897</speed>
  <fix>3d</fix>
</trkpt>
<trkpt lat="40.0728608" lon="-105.2306201">
  <ele>1586.0</ele>
  <time>2026-08-27T18:25:58Z</time>
  <course>154.64</course>
  <speed>0.0</speed>
  <fix>3d</fix>
</trkpt>
<trkpt lat="40.0728609" lon="-105.23062">
  <ele>1586.07</ele>
  <time>2026-08-27T18:25:58Z</time>
  <course>72.67</course>
  <speed>0.022360679774997897</speed>
  <fix>3d</fix>
</trkpt>
<trkpt lat="40.0728608" lon="-105.2306201">
  <ele>1586.0</ele>
  <time>2026-08-27T18:25:58Z</time>
  <course>154.64</course>
  <speed>0.0</speed>
  <fix>3d</fix>
</trkpt>
<trkpt lat="40.0728609" lon="-105.23062">
  <ele>1586.07</ele>
  <time>2026-08-27T18:25:58Z</time>
  <course>72.68</course>
  <speed>0.022360679774997897</speed>
  <fix>3d</fix>
</trkpt>
<trkpt lat="40.0728608" lon="-105.2306201">
  <ele>1586.0</ele>
  <time>2026-08-27T18:25:58Z</time>
  <course>154.64</course>
  <speed>0.0</speed>
  <fix>3d</fix>
</trkpt>
<trkpt lat="40.0728609" lon="-105.23062">
  <ele>1586.07</ele>
  <time>2026-08-27T18:25:58Z</time>
  <course>72.68</course>
  <speed>0.022360679774997897</speed>
  <fix>3d</fix>
</trkpt>
<trkpt lat="40.0728608" lon="-105.2306201">
  <ele>1586.0</ele>
  <time>2026-08-27T18:25:58Z</time>
  <course>154.64</course>
  <speed>0.0</speed>
  <fix>3d</fix>
</trkpt>
<trkpt lat="40.0728609" lon="-105.23062">
  <ele>1586.08</ele>
  <time>2026-08-27T18:25:58Z</time>
  <course>72.69</course>
  <speed>0.022360679774997897</speed>
  <fix>3d</fix>
</trkpt>
<trkpt lat="40.0728608" lon="-105.2306201">
  <ele>1586.0</ele>
  <time>2026-08-27T18:25:58Z</time>
  <course>154.64</course>
  <speed>0.0</speed>
  <fix>3d</fix>
</trkpt>
<trkpt lat="40.0728609" lon="-105.23062">
  <ele>1586.08</ele>
  <time>2026-08-27T18:25:58Z</time>
  <course>72.69</course>
  <speed>0.022360679774997897</speed>
  <fix>3d</fix>
</trkpt>
<trkpt lat="40.0728608" lon="-105.2306201">
  <ele>1586.0</ele>
  <time>2026-08-27T18:25:58Z</time>
  <course>154.64</course>
  <speed>0.0</speed>
  <fix>3d</fix>
</trkpt>
<trkpt lat="40.0728609" lon="-105.23062">
  <ele>1586.08</ele>
  <time>2026-08-27T18:25:58Z</time>
  <course>72.7</course>
  <speed>0.022360679774997897</speed>
  <fix>3d</fix>
</trkpt>
<trkpt lat="40.0728608" lon="-105.2306201">
  <ele>1586.0</ele>
  <time>2026-08-27T18:25:58Z</time>
  <course>154.64</course>
  <speed>0.0</speed>
  <fix>3d</fix>
</trkpt>
<trkpt lat="40.0728609" lon="-105.23062">
  <ele>1586.08</ele>
  <time>2026-08-27T18:25:58Z</time>
  <course>72.7</course>
  <speed>0.022360679774997897</speed>
  <fix>3d</fix>
</trkpt>
<trkpt lat="40.0728608" lon="-105.2306201">
  <ele>1586.0</ele>
  <time>2026-08-27T18:25:58Z</time>
  <course>154.64</course>
  <speed>0.0</speed>
  <fix>3d</fix>
</trkpt>
<trkpt lat="40.0728609" lon="-105.23062">
  <ele>1586.08</ele>
  <time>2026-08-27T18:25:58Z</time>
  <course>72.71</course>
  <speed>0.022360679774997897</speed>
  <fix>3d</fix>
</trkpt>
<trkpt lat="40.0728608" lon="-105.2306201">
  <ele>1586.0</ele>
  <time>2026-08-27T18:25:58Z</time>
  <course>154.64</course>
  <speed>0.0</speed>
  <fix>3d</fix>
</trkpt>
<trkpt lat="40.0728609" lon="-105.23062">
  <ele>1586.08</ele>
  <time>2026-08-27T18:25:58Z</time>
  <course>72.71</course>
  <speed>0.022360679774997897</speed>
  <fix>3d</fix>
</trkpt>
<trkpt lat="40.0728608" lon="-105.2306201">
  <ele>1586.0</ele>
  <time>2026-08-27T18:25:58Z</time>
  <course>154.64</course>
  <speed>0.0</speed>
  <fix>3d</fix>
</trkpt>
<trkpt lat="40.0728609" lon="-105.23062">
  <ele>1586.08</ele>
  <time>2026-08-27T18:25:58Z</time>
  <course>72.71</course>
  <speed>0.022360679774997897</speed>
  <fix>3d</fix>
</trkpt>
<trkpt lat="40.0728608" lon="-105.2306201">
  <ele>1586.0</ele>
  <time>2026-08-27T18:25:58Z</time>
  <course>154.64</course>
  <speed>0.0</speed>
  <fix>3d</fix>
</trkpt>
<trkpt lat="40.0728609" lon="-105.23062">
  <ele>1586.08</ele>
  <time>2026-08-27T18:25:58Z</time>
  <course>72.72</course>
  <speed>0.022360679774997897</speed>
  <fix>3d</fix>
</trkpt>
<trkpt lat="40.0728608" lon="-105.2306201">
  <ele>1586.0</ele>
  <time>2026-08-27T18:25:58Z</time>
  <course>154.64</course>
  <speed>0.0</speed>
  <fix>3d</fix>
</trkpt>
<trkpt lat="40.0728609" lon="-105.23062">
  <ele>1586.08</ele>
  <time>2026-08-27T18:25:58Z</time>
  <course>72.72</course>
  <speed>0.022360679774997897</speed>
  <fix>3d</fix>
</trkpt>
<trkpt lat="40.0728608" lon="-105.2306201">
  <ele>1586.0</ele>
  <time>2026-08-27T18:25:58Z</time>
  <course>154.64</course>
  <speed>0.0</speed>
  <fix>3d</fix>
</trkpt>
<trkpt lat="40.0728609" lon="-105.23062">
  <ele>1586.09</ele>
  <time>2026-08-27T18:25:58Z</time>
  <course>72.72</course>
  <speed>0.022360679774997897</speed>
  <fix>3d</fix>
</trkpt>
<trkpt lat="40.0728608" lon="-105.2306201">
  <ele>1586.0</ele>
  <time>2026-08-27T18:25:58Z</time>
  <course>154.64</course>
  <speed>0.0</speed>
  <fix>3d</fix>
</trkpt>
<trkpt lat="40.0728609" lon="-105.23062">
  <ele>1586.09</ele>
  <time>2026-08-27T18:25:58Z</time>
  <course>72.73</course>
  <speed>0.022360679774997897</speed>
  <fix>3d</fix>
</trkpt>
<trkpt lat="40.0728608" lon="-105.2306201">
  <ele>1586.0</ele>
  <time>2026-08-27T18:25:58Z</time>
  <course>154.64</course>
  <speed>0.0</speed>
  <fix>3d</fix>
</trkpt>
<trkpt lat="40.0728609" lon="-105.23062">
  <ele>1586.09</ele>
  <time>2026-08-27T18:25:58Z</time>
  <course>72.73</course>
  <speed>0.022360679774997897</speed>
  <fix>3d</fix>
</trkpt>
<trkpt lat="40.0728608" lon="-105.2306201">
  <ele>1586.0</ele>
  <time>2026-08-27T18:25:58Z</time>
  <course>154.64</course>
  <speed>0.0</speed>
  <fix>3d</fix>
</trkpt>
<trkpt lat="40.0728609" lon="-105.23062">
  <ele>1586.1</ele>
  <time>2026-08-27T18:25:58Z</time>
  <course>72.73</course>
  <speed>0.022360679774997897</speed>
  <fix>3d</fix>
</trkpt>
<trkpt lat="40.0728608" lon="-105.2306201">
  <ele>1586.0</ele>
  <time>2026-08-27T18:25:58Z</time>
  <course>154.64</course>
  <speed>0.0</speed>
  <fix>3d</fix>
</trkpt>
<trkpt lat="40.0728609" lon="-105.23062">
  <ele>1586.1</ele>
  <time>2026-08-27T18:25:58Z</time>
  <course>72.73</course>
  <speed>0.022360679774997897</speed>
  <fix>3d</fix>
</trkpt>
<trkpt lat="40.0728608" lon="-105.2306201">
  <ele>1586.0</ele>
  <time>2026-08-27T18:25:58Z</time>
  <course>154.64</course>
  <speed>0.0</speed>
  <fix>3d</fix>
</trkpt>
<trkpt lat="40.0728609" lon="-105.23062">
  <ele>1586.11</ele>
  <time>2026-08-27T18:25:58Z</time>
  <course>72.74</course>
  <speed>0.022360679774997897</speed>
  <fix>3d</fix>
</trkpt>
<trkpt lat="40.0728608" lon="-105.2306201">
  <ele>1586.0</ele>
  <time>2026-08-27T18:25:58Z</time>
  <course>154.64</course>
  <speed>0.0</speed>
  <fix>3d</fix>
</trkpt>
<trkpt lat="40.0728609" lon="-105.23062">
  <ele>1586.11</ele>
  <time>2026-08-27T18:25:58Z</time>
  <course>72.74</course>
  <speed>0.022360679774997897</speed>
  <fix>3d</fix>
</trkpt>
<trkpt lat="40.0728608" lon="-105.2306201">
  <ele>1586.0</ele>
  <time>2026-08-27T18:25:58Z</time>
  <course>154.64</course>
  <speed>0.0</speed>
  <fix>3d</fix>
</trkpt>
<trkpt lat="40.0728609" lon="-105.23062">
  <ele>1586.1</ele>
  <time>2026-08-27T18:25:58Z</time>
  <course>72.74</course>
  <speed>0.022360679774997897</speed>
  <fix>3d</fix>
</trkpt>
<trkpt lat="40.0728608" lon="-105.2306201">
  <ele>1586.0</ele>
  <time>2026-08-27T18:25:58Z</time>
  <course>154.64</course>
  <speed>0.0</speed>
  <fix>3d</fix>
</trkpt>
<trkpt lat="40.0728609" lon="-105.23062">
  <ele>1586.1</ele>
  <time>2026-08-27T18:25:58Z</time>
  <course>72.74</course>
  <speed>0.022360679774997897</speed>
  <fix>3d</fix>
</trkpt>
<trkpt lat="40.0728608" lon="-105.2306201">
  <ele>1586.0</ele>
  <time>2026-08-27T18:25:58Z</time>
  <course>154.64</course>
  <speed>0.0</speed>
  <fix>3d</fix>
</trkpt>
<trkpt lat="40.0728609" lon="-105.23062">
  <ele>1586.1</ele>
  <time>2026-08-27T18:25:58Z</time>
  <course>72.74</course>
  <speed>0.022360679774997897</speed>
  <fix>3d</fix>
</trkpt>
<trkpt lat="40.0728608" lon="-105.2306201">
  <ele>1586.0</ele>
  <time>2026-08-27T18:25:58Z</time>
  <course>154.64</course>
  <speed>0.0</speed>
  <fix>3d</fix>
</trkpt>
<trkpt lat="40.0728609" lon="-105.23062">
  <ele>1586.09</ele>
  <time>2026-08-27T18:25:58Z</time>
  <course>72.75</course>
  <speed>0.022360679774997897</speed>
  <fix>3d</fix>
</trkpt>
<trkpt lat="40.0728608" lon="-105.2306201">
  <ele>1586.0</ele>
  <time>2026-08-27T18:25:58Z</time>
  <course>154.64</course>
  <speed>0.0</speed>
  <fix>3d</fix>
</trkpt>
<trkpt lat="40.0728609" lon="-105.23062">
  <ele>1586.08</ele>
  <time>2026-08-27T18:25:58Z</time>
  <course>72.75</course>
  <speed>0.022360679774997897</speed>
  <fix>3d</fix>
</trkpt>
<trkpt lat="40.0728608" lon="-105.2306201">
  <ele>1586.0</ele>
  <time>2026-08-27T18:25:58Z</time>
  <course>154.64</course>
  <speed>0.0</speed>
  <fix>3d</fix>
</trkpt>
<trkpt lat="40.0728609" lon="-105.23062">
  <ele>1586.08</ele>
  <time>2026-08-27T18:25:58Z</time>
  <course>72.75</course>
  <speed>0.022360679774997897</speed>
  <fix>3d</fix>
</trkpt>
<trkpt lat="40.0728608" lon="-105.2306201">
  <ele>1586.0</ele>
  <time>2026-08-27T18:25:58Z</time>
  <course>154.64</course>
  <speed>0.0</speed>
  <fix>3d</fix>
</trkpt>
<trkpt lat="40.0728609" lon="-105.23062">
  <ele>1586.08</ele>
  <time>2026-08-27T18:25:58Z</time>
  <course>72.75</course>
  <speed>0.022360679774997897</speed>
  <fix>3d</fix>
</trkpt>
<trkpt lat="40.0728608" lon="-105.2306201">
  <ele>1586.0</ele>
  <time>2026-08-27T18:25:58Z</time>
  <course>154.64</course>
  <speed>0.0</speed>
  <fix>3d</fix>
</trkpt>
<trkpt lat="40.0728609" lon="-105.23062">
  <ele>1586.08</ele>
  <time>2026-08-27T18:25:58Z</time>
  <course>72.75</course>
  <speed>0.022360679774997897</speed>
  <fix>3d</fix>
</trkpt>
<trkpt lat="40.0728608" lon="-105.2306201">
  <ele>1586.0</ele>
  <time>2026-08-27T18:25:58Z</time>
  <course>154.64</course>
  <speed>0.0</speed>
  <fix>3d</fix>
</trkpt>
<trkpt lat="40.0728609" lon="-105.23062">
  <ele>1586.08</ele>
  <time>2026-08-27T18:25:58Z</time>
  <course>72.75</course>
  <speed>0.022360679774997897</speed>
  <fix>3d</fix>
</trkpt>
<trkpt lat="40.0728608" lon="-105.2306201">
  <ele>1586.0</ele>
  <time>2026-08-27T18:25:58Z</time>
  <course>178.84</course>
  <speed>0.0</speed>
  <fix>3d</fix>
</trkpt>
<trkpt lat="40.0728609" lon="-105.23062">
  <ele>1586.08</ele>
  <time>2026-08-27T18:25:58Z</time>
  <course>72.75</course>
  <speed>0.022360679774997897</speed>
  <fix>3d</fix>
</trkpt>
<trkpt lat="40.0728608" lon="-105.2306201">
  <ele>1586.0</ele>
  <time>2026-08-27T18:25:58Z</time>
  <course>167.53</course>
  <speed>0.0</speed>
  <fix>3d</fix>
</trkpt>
<trkpt lat="40.0728609" lon="-105.23062">
  <ele>1586.08</ele>
  <time>2026-08-27T18:25:58Z</time>
  <course>72.75</course>
  <speed>0.022360679774997897</speed>
  <fix>3d</fix>
</trkpt>
<trkpt lat="40.0728608" lon="-105.2306201">
  <ele>1586.0</ele>
  <time>2026-08-27T18:25:58Z</time>
  <course>149.77</course>
  <speed>0.0</speed>
  <fix>3d</fix>
</trkpt>
<trkpt lat="40.0728609" lon="-105.23062">
  <ele>1586.08</ele>
  <time>2026-08-27T18:25:58Z</time>
  <course>72.76</course>
  <speed>0.022360679774997897</speed>
  <fix>3d</fix>
</trkpt>
<trkpt lat="40.0728608" lon="-105.2306201">
  <ele>1586.0</ele>
  <time>2026-08-27T18:25:58Z</time>
  <course>152.84</course>
  <speed>0.0</speed>
  <fix>3d</fix>
</trkpt>
<trkpt lat="40.0728609" lon="-105.23062">
  <ele>1586.08</ele>
  <time>2026-08-27T18:25:58Z</time>
  <course>72.76</course>
  <speed>0.022360679774997897</speed>
  <fix>3d</fix>
</trkpt>
<trkpt lat="40.0728608" lon="-105.2306201">
  <ele>1586.0</ele>
  <time>2026-08-27T18:25:58Z</time>
  <course>155.7</course>
  <speed>0.0</speed>
  <fix>3d</fix>
</trkpt>
<trkpt lat="40.0728609" lon="-105.23062">
  <ele>1586.08</ele>
  <time>2026-08-27T18:25:58Z</time>
  <course>72.76</course>
  <speed>0.022360679774997897</speed>
  <fix>3d</fix>
</trkpt>
<trkpt lat="40.0728608" lon="-105.2306201">
  <ele>1586.0</ele>
  <time>2026-08-27T18:25:58Z</time>
  <course>154.74</course>
  <speed>0.0</speed>
  <fix>3d</fix>
</trkpt>
<trkpt lat="40.0728609" lon="-105.23062">
  <ele>1586.08</ele>
  <time>2026-08-27T18:25:58Z</time>
  <course>72.76</course>
  <speed>0.022360679774997897</speed>
  <fix>3d</fix>
</trkpt>
<trkpt lat="40.0728608" lon="-105.2306201">
  <ele>1586.0</ele>
  <time>2026-08-27T18:25:58Z</time>
  <course>154.49</course>
  <speed>0.0</speed>
  <fix>3d</fix>
</trkpt>
<trkpt lat="40.0728609" lon="-105.23062">
  <ele>1586.08</ele>
  <time>2026-08-27T18:25:58Z</time>
  <course>72.76</course>
  <speed>0.022360679774997897</speed>
  <fix>3d</fix>
</trkpt>
<trkpt lat="40.0728608" lon="-105.2306201">
  <ele>1586.0</ele>
  <time>2026-08-27T18:25:58Z</time>
  <course>154.64</course>
  <speed>0.0</speed>
  <fix>3d</fix>
</trkpt>
<trkpt lat="40.0728609" lon="-105.23062">
  <ele>1586.08</ele>
  <time>2026-08-27T18:25:58Z</time>
  <course>72.76</course>
  <speed>0.022360679774997897</speed>
  <fix>3d</fix>
</trkpt>
<trkpt lat="40.0728608" lon="-105.2306201">
  <ele>1586.0</ele>
  <time>2026-08-27T18:25:58Z</time>
  <course>154.66</course>
  <speed>0.0</speed>
  <fix>3d</fix>
</trkpt>
<trkpt lat="40.0728609" lon="-105.23062">
  <ele>1586.09</ele>
  <time>2026-08-27T18:25:58Z</time>
  <course>72.76</course>
  <speed>0.02</speed>
  <fix>3d</fix>
</trkpt>
<trkpt lat="40.0728608" lon="-105.2306201">
  <ele>1586.0</ele>
  <time>2026-08-27T18:25:58Z</time>
  <course>154.64</course>
  <speed>0.0</speed>
  <fix>3d</fix>
</trkpt>
<trkpt lat="40.0728609" lon="-105.23062">
  <ele>1586.09</ele>
  <time>2026-08-27T18:25:58Z</time>
  <course>72.76</course>
  <speed>0.01</speed>
  <fix>3d</fix>
</trkpt>
<trkpt lat="40.0728608" lon="-105.2306201">
  <ele>1586.0</ele>
  <time>2026-08-27T18:25:58Z</time>
  <course>154.64</course>
  <speed>0.0</speed>
  <fix>3d</fix>
</trkpt>
<trkpt lat="40.0728609" lon="-105.23062">
  <ele>1586.09</ele>
  <time>2026-08-27T18:25:58Z</time>
  <course>72.76</course>
  <speed>0.01</speed>
  <fix>3d</fix>
</trkpt>
<trkpt lat="40.0728608" lon="-105.2306201">
  <ele>1586.0</ele>
  <time>2026-08-27T18:25:58Z</time>
  <course>154.64</course>
  <speed>0.0</speed>
  <fix>3d</fix>
</trkpt>
<trkpt lat="40.0728609" lon="-105.23062">
  <ele>1586.09</ele>
  <time>2026-08-27T18:25:59Z</time>
  <course>72.76</course>
  <speed>0.01</speed>
  <fix>3d</fix>
</trkpt>
<trkpt lat="40.0728608" lon="-105.2306201">
  <ele>1586.0</ele>
  <time>2026-08-27T18:25:59Z</time>
  <course>154.64</course>
  <speed>0.0</speed>
  <fix>3d</fix>
</trkpt>
<trkpt lat="40.0728609" lon="-105.23062">
  <ele>1586.09</ele>
  <time>2026-08-27T18:25:59Z</time>
  <course>72.76</course>
  <speed>0.01</speed>
  <fix>3d</fix>
</trkpt>
<trkpt lat="40.0728608" lon="-105.2306201">
  <ele>1586.0</ele>
  <time>2026-08-27T18:25:59Z</time>
  <course>154.57</course>
  <speed>0.0</speed>
  <fix>3d</fix>
</trkpt>
<trkpt lat="40.0728609" lon="-105.23062">
  <ele>1586.09</ele>
  <time>2026-08-27T18:25:59Z</time>
  <course>72.75</course>
  <speed>0.01</speed>
  <fix>3d</fix>
</trkpt>
<trkpt lat="40.0728608" lon="-105.2306201">
  <ele>1586.0</ele>
  <time>2026-08-27T18:25:59Z</time>
  <course>154.45</course>
  <speed>0.0</speed>
  <fix>3d</fix>
</trkpt>
<trkpt lat="40.0728609" lon="-105.23062">
  <ele>1586.09</ele>
  <time>2026-08-27T18:25:59Z</time>
  <course>72.75</course>
  <speed>0.01</speed>
  <fix>3d</fix>
</trkpt>
<trkpt lat="40.0728608" lon="-105.2306201">
  <ele>1586.0</ele>
  <time>2026-08-27T18:25:59Z</time>
  <course>154.34</course>
  <speed>0.0</speed>
  <fix>3d</fix>
</trkpt>
<trkpt lat="40.0728609" lon="-105.23062">
  <ele>1586.09</ele>
  <time>2026-08-27T18:25:59Z</time>
  <course>72.74</course>
  <speed>0.01</speed>
  <fix>3d</fix>
</trkpt>
<trkpt lat="40.0728608" lon="-105.2306201">
  <ele>1586.0</ele>
  <time>2026-08-27T18:25:59Z</time>
  <course>154.24</course>
  <speed>0.0</speed>
  <fix>3d</fix>
</trkpt>
<trkpt lat="40.0728609" lon="-105.23062">
  <ele>1586.09</ele>
  <time>2026-08-27T18:25:59Z</time>
  <course>72.73</course>
  <speed>0.01</speed>
  <fix>3d</fix>
</trkpt>
<trkpt lat="40.0728608" lon="-105.2306201">
  <ele>1586.0</ele>
  <time>2026-08-27T18:25:59Z</time>
  <course>154.15</course>
  <speed>0.0</speed>
  <fix>3d</fix>
</trkpt>
<trkpt lat="40.0728609" lon="-105.23062">
  <ele>1586.09</ele>
  <time>2026-08-27T18:25:59Z</time>
  <course>72.72</course>
  <speed>0.01</speed>
  <fix>3d</fix>
</trkpt>
<trkpt lat="40.0728608" lon="-105.2306201">
  <ele>1586.0</ele>
  <time>2026-08-27T18:25:59Z</time>
  <course>154.04</course>
  <speed>0.0</speed>
  <fix>3d</fix>
</trkpt>
<trkpt lat="40.0728609" lon="-105.23062">
  <ele>1586.09</ele>
  <time>2026-08-27T18:25:59Z</time>
  <course>72.71</course>
  <speed>0.01</speed>
  <fix>3d</fix>
</trkpt>
<trkpt lat="40.0728608" lon="-105.2306201">
  <ele>1586.0</ele>
  <time>2026-08-27T18:25:59Z</time>
  <course>153.93</course>
  <speed>0.0</speed>
  <fix>3d</fix>
</trkpt>
<trkpt lat="40.0728609" lon="-105.23062">
  <ele>1586.09</ele>
  <time>2026-08-27T18:25:59Z</time>
  <course>72.69</course>
  <speed>0.01</speed>
  <fix>3d</fix>
</trkpt>
<trkpt lat="40.0728608" lon="-105.2306201">
  <ele>1586.0</ele>
  <time>2026-08-27T18:25:59Z</time>
  <course>153.82</course>
  <speed>0.0</speed>
  <fix>3d</fix>
</trkpt>
<trkpt lat="40.0728609" lon="-105.23062">
  <ele>1586.09</ele>
  <time>2026-08-27T18:25:59Z</time>
  <course>72.68</course>
  <speed>0.01</speed>
  <fix>3d</fix>
</trkpt>
<trkpt lat="40.0728608" lon="-105.2306201">
  <ele>1586.0</ele>
  <time>2026-08-27T18:25:59Z</time>
  <course>153.71</course>
  <speed>0.0</speed>
  <fix>3d</fix>
</trkpt>
<trkpt lat="40.0728609" lon="-105.23062">
  <ele>1586.09</ele>
  <time>2026-08-27T18:25:59Z</time>
  <course>72.66</course>
  <speed>0.01</speed>
  <fix>3d</fix>
</trkpt>
<trkpt lat="40.0728608" lon="-105.2306201">
  <ele>1586.0</ele>
  <time>2026-08-27T18:25:59Z</time>
  <course>153.6</course>
  <speed>0.0</speed>
  <fix>3d</fix>
</trkpt>
<trkpt lat="40.0728609" lon="-105.23062">
  <ele>1586.09</ele>
  <time>2026-08-27T18:25:59Z</time>
  <course>72.64</course>
  <speed>0.01</speed>
  <fix>3d</fix>
</trkpt>
<trkpt lat="40.0728608" lon="-105.2306201">
  <ele>1586.0</ele>
  <time>2026-08-27T18:25:59Z</time>
  <course>339.04</course>
  <speed>0.0</speed>
  <fix>3d</fix>
</trkpt>
<trkpt lat="40.0728609" lon="-105.23062">
  <ele>1586.09</ele>
  <time>2026-08-27T18:25:59Z</time>
  <course>72.62</course>
  <speed>0.01</speed>
  <fix>3d</fix>
</trkpt>
<trkpt lat="40.0728608" lon="-105.2306201">
  <ele>1586.0</ele>
  <time>2026-08-27T18:25:59Z</time>
  <course>338.87</course>
  <speed>0.0</speed>
  <fix>3d</fix>
</trkpt>
<trkpt lat="40.0728609" lon="-105.23062">
  <ele>1586.09</ele>
  <time>2026-08-27T18:25:59Z</time>
  <course>72.6</course>
  <speed>0.01</speed>
  <fix>3d</fix>
</trkpt>
<trkpt lat="40.0728608" lon="-105.2306201">
  <ele>1586.0</ele>
  <time>2026-08-27T18:25:59Z</time>
  <course>339.47</course>
  <speed>0.0</speed>
  <fix>3d</fix>
</trkpt>
<trkpt lat="40.0728609" lon="-105.23062">
  <ele>1586.09</ele>
  <time>2026-08-27T18:25:59Z</time>
  <course>72.58</course>
  <speed>0.01</speed>
  <fix>3d</fix>
</trkpt>
<trkpt lat="40.0728608" lon="-105.2306201">
  <ele>1586.0</ele>
  <time>2026-08-27T18:25:59Z</time>
  <course>339.56</course>
  <speed>0.0</speed>
  <fix>3d</fix>
</trkpt>
<trkpt lat="40.0728609" lon="-105.23062">
  <ele>1586.09</ele>
  <time>2026-08-27T18:25:59Z</time>
  <course>72.55</course>
  <speed>0.01</speed>
  <fix>3d</fix>
</trkpt>
<trkpt lat="40.0728608" lon="-105.2306201">
  <ele>1586.0</ele>
  <time>2026-08-27T18:25:59Z</time>
  <course>338.66</course>
  <speed>0.0</speed>
  <fix>3d</fix>
</trkpt>
<trkpt lat="40.0728609" lon="-105.23062">
  <ele>1586.09</ele>
  <time>2026-08-27T18:25:59Z</time>
  <course>72.53</course>
  <speed>0.01</speed>
  <fix>3d</fix>
</trkpt>
<trkpt lat="40.0728608" lon="-105.2306201">
  <ele>1586.0</ele>
  <time>2026-08-27T18:25:59Z</time>
  <course>338.51</course>
  <speed>0.0</speed>
  <fix>3d</fix>
</trkpt>
<trkpt lat="40.0728609" lon="-105.23062">
  <ele>1586.09</ele>
  <time>2026-08-27T18:25:59Z</time>
  <course>72.5</course>
  <speed>0.01</speed>
  <fix>3d</fix>
</trkpt>
<trkpt lat="40.0728608" lon="-105.2306201">
  <ele>1586.0</ele>
  <time>2026-08-27T18:25:59Z</time>
  <course>338.52</course>
  <speed>0.0</speed>
  <fix>3d</fix>
</trkpt>
<trkpt lat="40.0728609" lon="-105.23062">
  <ele>1586.09</ele>
  <time>2026-08-27T18:25:59Z</time>
  <course>72.47</course>
  <speed>0.01</speed>
  <fix>3d</fix>
</trkpt>
<trkpt lat="40.0728608" lon="-105.2306201">
  <ele>1586.0</ele>
  <time>2026-08-27T18:25:59Z</time>
  <course>338.61</course>
  <speed>0.0</speed>
  <fix>3d</fix>
</trkpt>
<trkpt lat="40.0728609" lon="-105.23062">
  <ele>1586.09</ele>
  <time>2026-08-27T18:25:59Z</time>
  <course>72.44</course>
  <speed>0.01</speed>
  <fix>3d</fix>
</trkpt>
<trkpt lat="40.0728608" lon="-105.2306201">
  <ele>1586.0</ele>
  <time>2026-08-27T18:25:59Z</time>
  <course>338.34</course>
  <speed>0.0</speed>
  <fix>3d</fix>
</trkpt>
<trkpt lat="40.0728609" lon="-105.23062">
  <ele>1586.09</ele>
  <time>2026-08-27T18:25:59Z</time>
  <course>72.41</course>
  <speed>0.022360679774997897</speed>
  <fix>3d</fix>
</trkpt>
<trkpt lat="40.0728608" lon="-105.2306201">
  <ele>1586.0</ele>
  <time>2026-08-27T18:25:59Z</time>
  <course>338.3</course>
  <speed>0.0</speed>
  <fix>3d</fix>
</trkpt>
<trkpt lat="40.0728609" lon="-105.23062">
  <ele>1586.09</ele>
  <time>2026-08-27T18:25:59Z</time>
  <course>72.38</course>
  <speed>0.022360679774997897</speed>
  <fix>3d</fix>
</trkpt>
<trkpt lat="40.0728608" lon="-105.2306201">
  <ele>1586.0</ele>
  <time>2026-08-27T18:25:59Z</time>
  <course>338.19</course>
  <speed>0.0</speed>
  <fix>3d</fix>
</trkpt>
<trkpt lat="40.0728609" lon="-105.23062">
  <ele>1586.09</ele>
  <time>2026-08-27T18:25:59Z</time>
  <course>72.34</course>
  <speed>0.022360679774997897</speed>
  <fix>3d</fix>
</trkpt>
<trkpt lat="40.0728608" lon="-105.2306201">
  <ele>1586.0</ele>
  <time>2026-08-27T18:25:59Z</time>
  <course>338.17</course>
  <speed>0.0</speed>
  <fix>3d</fix>
</trkpt>
<trkpt lat="40.0728609" lon="-105.23062">
  <ele>1586.09</ele>
  <time>2026-08-27T18:25:59Z</time>
  <course>72.31</course>
  <speed>0.022360679774997897</speed>
  <fix>3d</fix>
</trkpt>
<trkpt lat="40.0728608" lon="-105.2306201">
  <ele>1586.0</ele>
  <time>2026-08-27T18:25:59Z</time>
  <course>338.14</course>
  <speed>0.0</speed>
  <fix>3d</fix>
</trkpt>
<trkpt lat="40.0728609" lon="-105.23062">
  <ele>1586.09</ele>
  <time>2026-08-27T18:25:59Z</time>
  <course>72.27</course>
  <speed>0.022360679774997897</speed>
  <fix>3d</fix>
</trkpt>
<trkpt lat="40.0728608" lon="-105.2306201">
  <ele>1586.0</ele>
  <time>2026-08-27T18:25:59Z</time>
  <course>337.89</course>
  <speed>0.0</speed>
  <fix>3d</fix>
</trkpt>
<trkpt lat="40.0728609" lon="-105.23062">
  <ele>1586.09</ele>
  <time>2026-08-27T18:25:59Z</time>
  <course>72.23</course>
  <speed>0.022360679774997897</speed>
  <fix>3d</fix>
</trkpt>
<trkpt lat="40.0728608" lon="-105.2306201">
  <ele>1586.0</ele>
  <time>2026-08-27T18:25:59Z</time>
  <course>337.98</course>
  <speed>0.0</speed>
  <fix>3d</fix>
</trkpt>
<trkpt lat="40.0728609" lon="-105.23062">
  <ele>1586.09</ele>
  <time>2026-08-27T18:25:59Z</time>
  <course>72.2</course>
  <speed>0.022360679774997897</speed>
  <fix>3d</fix>
</trkpt>
<trkpt lat="40.0728608" lon="-105.2306201">
  <ele>1586.0</ele>
  <time>2026-08-27T18:25:59Z</time>
  <course>337.96</course>
  <speed>0.0</speed>
  <fix>3d</fix>
</trkpt>
<trkpt lat="40.0728609" lon="-105.23062">
  <ele>1586.1</ele>
  <time>2026-08-27T18:25:59Z</time>
  <course>72.16</course>
  <speed>0.022360679774997897</speed>
  <fix>3d</fix>
</trkpt>
<trkpt lat="40.0728608" lon="-105.2306201">
  <ele>1586.0</ele>
  <time>2026-08-27T18:25:59Z</time>
  <course>337.8</course>
  <speed>0.0</speed>
  <fix>3d</fix>
</trkpt>
<trkpt lat="40.0728609" lon="-105.23062">
  <ele>1586.1</ele>
  <time>2026-08-27T18:25:59Z</time>
  <course>72.11</course>
  <speed>0.022360679774997897</speed>
  <fix>3d</fix>
</trkpt>
<trkpt lat="40.0728608" lon="-105.2306201">
  <ele>1586.0</ele>
  <time>2026-08-27T18:25:59Z</time>
  <course>337.81</course>
  <speed>0.0</speed>
  <fix>3d</fix>
</trkpt>
<trkpt lat="40.0728609" lon="-105.23062">
  <ele>1586.1</ele>
  <time>2026-08-27T18:25:59Z</time>
  <course>72.07</course>
  <speed>0.022360679774997897</speed>
  <fix>3d</fix>
</trkpt>
<trkpt lat="40.0728608" lon="-105.2306201">
  <ele>1586.0</ele>
  <time>2026-08-27T18:25:59Z</time>
  <course>337.65</course>
  <speed>0.0</speed>
  <fix>3d</fix>
</trkpt>
<trkpt lat="40.0728609" lon="-105.23062">
  <ele>1586.1</ele>
  <time>2026-08-27T18:25:59Z</time>
  <course>72.03</course>
  <speed>0.022360679774997897</speed>
  <fix>3d</fix>
</trkpt>
<trkpt lat="40.0728608" lon="-105.2306201">
  <ele>1586.0</ele>
  <time>2026-08-27T18:25:59Z</time>
  <course>337.62</course>
  <speed>0.0</speed>
  <fix>3d</fix>
</trkpt>
<trkpt lat="40.0728609" lon="-105.23062">
  <ele>1586.1</ele>
  <time>2026-08-27T18:25:59Z</time>
  <course>71.98</course>
  <speed>0.022360679774997897</speed>
  <fix>3d</fix>
</trkpt>
<trkpt lat="40.0728608" lon="-105.2306201">
  <ele>1586.0</ele>
  <time>2026-08-27T18:25:59Z</time>
  <course>337.59</course>
  <speed>0.0</speed>
  <fix>3d</fix>
</trkpt>
<trkpt lat="40.0728609" lon="-105.23062">
  <ele>1586.1</ele>
  <time>2026-08-27T18:25:59Z</time>
  <course>71.94</course>
  <speed>0.022360679774997897</speed>
  <fix>3d</fix>
</trkpt>
<trkpt lat="40.0728608" lon="-105.2306201">
  <ele>1586.0</ele>
  <time>2026-08-27T18:25:59Z</time>
  <course>337.51</course>
  <speed>0.0</speed>
  <fix>3d</fix>
</trkpt>
<trkpt lat="40.0728609" lon="-105.23062">
  <ele>1586.1</ele>
  <time>2026-08-27T18:25:59Z</time>
  <course>71.89</course>
  <speed>0.022360679774997897</speed>
  <fix>3d</fix>
</trkpt>
<trkpt lat="40.0728608" lon="-105.2306201">
  <ele>1586.0</ele>
  <time>2026-08-27T18:25:59Z</time>
  <course>337.48</course>
  <speed>0.0</speed>
  <fix>3d</fix>
</trkpt>
<trkpt lat="40.0728609" lon="-105.23062">
  <ele>1586.1</ele>
  <time>2026-08-27T18:25:59Z</time>
  <course>71.85</course>
  <speed>0.022360679774997897</speed>
  <fix>3d</fix>
</trkpt>
<trkpt lat="40.0728608" lon="-105.2306201">
  <ele>1586.0</ele>
  <time>2026-08-27T18:25:59Z</time>
  <course>337.36</course>
  <speed>0.0</speed>
  <fix>3d</fix>
</trkpt>
<trkpt lat="40.0728609" lon="-105.23062">
  <ele>1586.1</ele>
  <time>2026-08-27T18:25:59Z</time>
  <course>71.8</course>
  <speed>0.022360679774997897</speed>
  <fix>3d</fix>
</trkpt>
<trkpt lat="40.0728608" lon="-105.2306201">
  <ele>1586.0</ele>
  <time>2026-08-27T18:25:59Z</time>
  <course>337.35</course>
  <speed>0.0</speed>
  <fix>3d</fix>
</trkpt>
<trkpt lat="40.0728609" lon="-105.23062">
  <ele>1586.1</ele>
  <time>2026-08-27T18:25:59Z</time>
  <course>71.75</course>
  <speed>0.022360679774997897</speed>
  <fix>3d</fix>
</trkpt>
<trkpt lat="40.0728608" lon="-105.2306201">
  <ele>1586.0</ele>
  <time>2026-08-27T18:25:59Z</time>
  <course>337.25</course>
  <speed>0.0</speed>
  <fix>3d</fix>
</trkpt>
<trkpt lat="40.0728609" lon="-105.23062">
  <ele>1586.1</ele>
  <time>2026-08-27T18:25:59Z</time>
  <course>71.7</course>
  <speed>0.022360679774997897</speed>
  <fix>3d</fix>
</trkpt>
<trkpt lat="40.0728608" lon="-105.2306201">
  <ele>1586.0</ele>
  <time>2026-08-27T18:25:59Z</time>
  <course>337.19</course>
  <speed>0.0</speed>
  <fix>3d</fix>
</trkpt>
<trkpt lat="40.0728609" lon="-105.23062">
  <ele>1586.1</ele>
  <time>2026-08-27T18:25:59Z</time>
  <course>71.65</course>
  <speed>0.022360679774997897</speed>
  <fix>3d</fix>
</trkpt>
<trkpt lat="40.0728608" lon="-105.2306201">
  <ele>1586.0</ele>
  <time>2026-08-27T18:25:59Z</time>
  <course>337.11</course>
  <speed>0.0</speed>
  <fix>3d</fix>
</trkpt>
<trkpt lat="40.0728609" lon="-105.23062">
  <ele>1586.1</ele>
  <time>2026-08-27T18:25:59Z</time>
  <course>71.6</course>
  <speed>0.022360679774997897</speed>
  <fix>3d</fix>
</trkpt>
<trkpt lat="40.0728608" lon="-105.2306201">
  <ele>1586.0</ele>
  <time>2026-08-27T18:25:59Z</time>
  <course>337.04</course>
  <speed>0.0</speed>
  <fix>3d</fix>
</trkpt>
<trkpt lat="40.0728609" lon="-105.23062">
  <ele>1586.1</ele>
  <time>2026-08-27T18:25:59Z</time>
  <course>71.55</course>
  <speed>0.022360679774997897</speed>
  <fix>3d</fix>
</trkpt>
<trkpt lat="40.0728608" lon="-105.2306201">
  <ele>1586.0</ele>
  <time>2026-08-27T18:25:59Z</time>
  <course>336.98</course>
  <speed>0.0</speed>
  <fix>3d</fix>
</trkpt>
<trkpt lat="40.0728609" lon="-105.23062">
  <ele>1586.1</ele>
  <time>2026-08-27T18:25:59Z</time>
  <course>71.5</course>
  <speed>0.022360679774997897</speed>
  <fix>3d</fix>
</trkpt>
<trkpt lat="40.0728608" lon="-105.2306201">
  <ele>1586.0</ele>
  <time>2026-08-27T18:25:59Z</time>
  <course>336.86</course>
  <speed>0.0</speed>
  <fix>3d</fix>
</trkpt>
<trkpt lat="40.0728609" lon="-105.23062">
  <ele>1586.1</ele>
  <time>2026-08-27T18:25:59Z</time>
  <course>71.45</course>
  <speed>0.022360679774997897</speed>
  <fix>3d</fix>
</trkpt>
<trkpt lat="40.0728608" lon="-105.2306201">
  <ele>1586.0</ele>
  <time>2026-08-27T18:25:59Z</time>
  <course>336.68</course>
  <speed>0.0</speed>
  <fix>3d</fix>
</trkpt>
<trkpt lat="40.0728609" lon="-105.23062">
  <ele>1586.1</ele>
  <time>2026-08-27T18:25:59Z</time>
  <course>71.4</course>
  <speed>0.022360679774997897</speed>
  <fix>3d</fix>
</trkpt>
<trkpt lat="40.0728608" lon="-105.2306201">
  <ele>1586.0</ele>
  <time>2026-08-27T18:25:59Z</time>
  <course>336.6</course>
  <speed>0.0</speed>
  <fix>3d</fix>
</trkpt>
<trkpt lat="40.0728609" lon="-105.23062">
  <ele>1586.1</ele>
  <time>2026-08-27T18:25:59Z</time>
  <course>71.35</course>
  <speed>0.022360679774997897</speed>
  <fix>3d</fix>
</trkpt>
<trkpt lat="40.0728608" lon="-105.2306201">
  <ele>1586.0</ele>
  <time>2026-08-27T18:25:59Z</time>
  <course>336.55</course>
  <speed>0.0</speed>
  <fix>3d</fix>
</trkpt>
<trkpt lat="40.0728609" lon="-105.23062">
  <ele>1586.1</ele>
  <time>2026-08-27T18:25:59Z</time>
  <course>71.3</course>
  <speed>0.022360679774997897</speed>
  <fix>3d</fix>
</trkpt>
<trkpt lat="40.0728608" lon="-105.2306201">
  <ele>1586.0</ele>
  <time>2026-08-27T18:25:59Z</time>
  <course>336.49</course>
  <speed>0.0</speed>
  <fix>3d</fix>
</trkpt>
<trkpt lat="40.0728609" lon="-105.23062">
  <ele>1586.1</ele>
  <time>2026-08-27T18:25:59Z</time>
  <course>71.26</course>
  <speed>0.022360679774997897</speed>
  <fix>3d</fix>
</trkpt>
<trkpt lat="40.0728608" lon="-105.2306201">
  <ele>1586.0</ele>
  <time>2026-08-27T18:25:59Z</time>
  <course>336.39</course>
  <speed>0.0</speed>
  <fix>3d</fix>
</trkpt>
<trkpt lat="40.0728609" lon="-105.23062">
  <ele>1586.1</ele>
  <time>2026-08-27T18:25:59Z</time>
  <course>71.21</course>
  <speed>0.022360679774997897</speed>
  <fix>3d</fix>
</trkpt>
<trkpt lat="40.0728608" lon="-105.2306201">
  <ele>1586.0</ele>
  <time>2026-08-27T18:25:59Z</time>
  <course>336.37</course>
  <speed>0.0</speed>
  <fix>3d</fix>
</trkpt>
<trkpt lat="40.0728609" lon="-105.23062">
  <ele>1586.1</ele>
  <time>2026-08-27T18:25:59Z</time>
  <course>71.16</course>
  <speed>0.022360679774997897</speed>
  <fix>3d</fix>
</trkpt>
<trkpt lat="40.0728608" lon="-105.2306201">
  <ele>1586.0</ele>
  <time>2026-08-27T18:25:59Z</time>
  <course>336.29</course>
  <speed>0.0</speed>
  <fix>3d</fix>
</trkpt>
<trkpt lat="40.0728609" lon="-105.23062">
  <ele>1586.1</ele>
  <time>2026-08-27T18:25:59Z</time>
  <course>71.12</course>
  <speed>0.022360679774997897</speed>
  <fix>3d</fix>
</trkpt>
<trkpt lat="40.0728608" lon="-105.2306201">
  <ele>1586.0</ele>
  <time>2026-08-27T18:25:59Z</time>
  <course>336.25</course>
  <speed>0.0</speed>
  <fix>3d</fix>
</trkpt>
<trkpt lat="40.0728609" lon="-105.23062">
  <ele>1586.1</ele>
  <time>2026-08-27T18:25:59Z</time>
  <course>71.07</course>
  <speed>0.022360679774997897</speed>
  <fix>3d</fix>
</trkpt>
<trkpt lat="40.0728608" lon="-105.2306201">
  <ele>1586.0</ele>
  <time>2026-08-27T18:25:59Z</time>
  <course>336.01</course>
  <speed>0.0</speed>
  <fix>3d</fix>
</trkpt>
<trkpt lat="40.0728609" lon="-105.23062">
  <ele>1586.1</ele>
  <time>2026-08-27T18:25:59Z</time>
  <course>71.03</course>
  <speed>0.022360679774997897</speed>
  <fix>3d</fix>
</trkpt>
<trkpt lat="40.0728608" lon="-105.2306201">
  <ele>1586.0</ele>
  <time>2026-08-27T18:25:59Z</time>
  <course>336.07</course>
  <speed>0.0</speed>
  <fix>3d</fix>
</trkpt>
<trkpt lat="40.0728609" lon="-105.23062">
  <ele>1586.1</ele>
  <time>2026-08-27T18:25:59Z</time>
  <course>70.99</course>
  <speed>0.022360679774997897</speed>
  <fix>3d</fix>
</trkpt>
<trkpt lat="40.0728608" lon="-105.2306201">
  <ele>1586.0</ele>
  <time>2026-08-27T18:25:59Z</time>
  <course>335.7</course>
  <speed>0.0</speed>
  <fix>3d</fix>
</trkpt>
<trkpt lat="40.0728609" lon="-105.23062">
  <ele>1586.1</ele>
  <time>2026-08-27T18:25:59Z</time>
  <course>70.94</course>
  <speed>0.022360679774997897</speed>
  <fix>3d</fix>
</trkpt>
<trkpt lat="40.0728608" lon="-105.2306201">
  <ele>1586.0</ele>
  <time>2026-08-27T18:25:59Z</time>
  <course>335.76</course>
  <speed>0.0</speed>
  <fix>3d</fix>
</trkpt>
<trkpt lat="40.0728609" lon="-105.23062">
  <ele>1586.1</ele>
  <time>2026-08-27T18:25:59Z</time>
  <course>70.9</course>
  <speed>0.022360679774997897</speed>
  <fix>3d</fix>
</trkpt>
<trkpt lat="40.0728608" lon="-105.2306201">
  <ele>1586.0</ele>
  <time>2026-08-27T18:25:59Z</time>
  <course>335.65</course>
  <speed>0.0</speed>
  <fix>3d</fix>
</trkpt>
<trkpt lat="40.0728609" lon="-105.23062">
  <ele>1586.1</ele>
  <time>2026-08-27T18:25:59Z</time>
  <course>70.86</course>
  <speed>0.022360679774997897</speed>
  <fix>3d</fix>
</trkpt>
<trkpt lat="40.0728608" lon="-105.2306201">
  <ele>1586.0</ele>
  <time>2026-08-27T18:25:59Z</time>
  <course>335.75</course>
  <speed>0.0</speed>
  <fix>3d</fix>
</trkpt>
<trkpt lat="40.0728609" lon="-105.23062">
  <ele>1586.1</ele>
  <time>2026-08-27T18:25:59Z</time>
  <course>70.82</course>
  <speed>0.022360679774997897</speed>
  <fix>3d</fix>
</trkpt>
<trkpt lat="40.0728608" lon="-105.2306201">
  <ele>1586.0</ele>
  <time>2026-08-27T18:25:59Z</time>
  <course>335.83</course>
  <speed>0.0</speed>
  <fix>3d</fix>
</trkpt>
<trkpt lat="40.0728609" lon="-105.23062">
  <ele>1586.1</ele>
  <time>2026-08-27T18:25:59Z</time>
  <course>70.78</course>
  <speed>0.022360679774997897</speed>
  <fix>3d</fix>
</trkpt>
<trkpt lat="40.0728608" lon="-105.2306201">
  <ele>1586.0</ele>
  <time>2026-08-27T18:25:59Z</time>
  <course>335.71</course>
  <speed>0.0</speed>
  <fix>3d</fix>
</trkpt>
<trkpt lat="40.0728609" lon="-105.23062">
  <ele>1586.1</ele>
  <time>2026-08-27T18:25:59Z</time>
  <course>70.74</course>
  <speed>0.022360679774997897</speed>
  <fix>3d</fix>
</trkpt>
<trkpt lat="40.0728608" lon="-105.2306201">
  <ele>1586.0</ele>
  <time>2026-08-27T18:25:59Z</time>
  <course>335.84</course>
  <speed>0.0</speed>
  <fix>3d</fix>
</trkpt>
<trkpt lat="40.0728609" lon="-105.23062">
  <ele>1586.1</ele>
  <time>2026-08-27T18:25:59Z</time>
  <course>70.7</course>
  <speed>0.022360679774997897</speed>
  <fix>3d</fix>
</trkpt>
<trkpt lat="40.0728608" lon="-105.2306201">
  <ele>1586.0</ele>
  <time>2026-08-27T18:25:59Z</time>
  <course>334.88</course>
  <speed>0.0</speed>
  <fix>3d</fix>
</trkpt>
<trkpt lat="40.0728609" lon="-105.23062">
  <ele>1586.1</ele>
  <time>2026-08-27T18:25:59Z</time>
  <course>70.66</course>
  <speed>0.022360679774997897</speed>
  <fix>3d</fix>
</trkpt>
<trkpt lat="40.0728608" lon="-105.2306201">
  <ele>1586.0</ele>
  <time>2026-08-27T18:25:59Z</time>
  <course>335.56</course>
  <speed>0.0</speed>
  <fix>3d</fix>
</trkpt>
<trkpt lat="40.0728609" lon="-105.23062">
  <ele>1586.1</ele>
  <time>2026-08-27T18:25:59Z</time>
  <course>70.62</course>
  <speed>0.022360679774997897</speed>
  <fix>3d</fix>
</trkpt>
<trkpt lat="40.0728608" lon="-105.2306201">
  <ele>1586.0</ele>
  <time>2026-08-27T18:25:59Z</time>
  <course>335.69</course>
  <speed>0.0</speed>
  <fix>3d</fix>
</trkpt>
<trkpt lat="40.0728609" lon="-105.23062">
  <ele>1586.09</ele>
  <time>2026-08-27T18:25:59Z</time>
  <course>70.58</course>
  <speed>0.022360679774997897</speed>
  <fix>3d</fix>
</trkpt>
<trkpt lat="40.0728608" lon="-105.2306201">
  <ele>1586.0</ele>
  <time>2026-08-27T18:25:59Z</time>
  <course>335.34</course>
  <speed>0.0</speed>
  <fix>3d</fix>
</trkpt>
<trkpt lat="40.0728609" lon="-105.23062">
  <ele>1586.09</ele>
  <time>2026-08-27T18:25:59Z</time>
  <course>70.55</course>
  <speed>0.022360679774997897</speed>
  <fix>3d</fix>
</trkpt>
<trkpt lat="40.0728608" lon="-105.2306201">
  <ele>1586.0</ele>
  <time>2026-08-27T18:25:59Z</time>
  <course>335.59</course>
  <speed>0.0</speed>
  <fix>3d</fix>
</trkpt>
<trkpt lat="40.0728609" lon="-105.23062">
  <ele>1586.09</ele>
  <time>2026-08-27T18:25:59Z</time>
  <course>70.51</course>
  <speed>0.022360679774997897</speed>
  <fix>3d</fix>
</trkpt>
<trkpt lat="40.0728608" lon="-105.2306201">
  <ele>1586.0</ele>
  <time>2026-08-27T18:25:59Z</time>
  <course>335.03</course>
  <speed>0.0</speed>
  <fix>3d</fix>
</trkpt>
<trkpt lat="40.0728609" lon="-105.23062">
  <ele>1586.09</ele>
  <time>2026-08-27T18:25:59Z</time>
  <course>70.47</course>
  <speed>0.022360679774997897</speed>
  <fix>3d</fix>
</trkpt>
<trkpt lat="40.0728608" lon="-105.2306201">
  <ele>1586.0</ele>
  <time>2026-08-27T18:25:59Z</time>
  <course>335.36</course>
  <speed>0.0</speed>
  <fix>3d</fix>
</trkpt>
<trkpt lat="40.0728609" lon="-105.23062">
  <ele>1586.09</ele>
  <time>2026-08-27T18:25:59Z</time>
  <course>70.44</course>
  <speed>0.022360679774997897</speed>
  <fix>3d</fix>
</trkpt>
<trkpt lat="40.0728608" lon="-105.2306201">
  <ele>1586.0</ele>
  <time>2026-08-27T18:25:59Z</time>
  <course>335.5</course>
  <speed>0.0</speed>
  <fix>3d</fix>
</trkpt>
<trkpt lat="40.0728609" lon="-105.23062">
  <ele>1586.09</ele>
  <time>2026-08-27T18:25:59Z</time>
  <course>70.4</course>
  <speed>0.022360679774997897</speed>
  <fix>3d</fix>
</trkpt>
<trkpt lat="40.0728608" lon="-105.2306201">
  <ele>1586.0</ele>
  <time>2026-08-27T18:25:59Z</time>
  <course>334.12</course>
  <speed>0.0</speed>
  <fix>3d</fix>
</trkpt>
<trkpt lat="40.0728609" lon="-105.23062">
  <ele>1586.1</ele>
  <time>2026-08-27T18:25:59Z</time>
  <course>70.37</course>
  <speed>0.022360679774997897</speed>
  <fix>3d</fix>
</trkpt>
<trkpt lat="40.0728608" lon="-105.2306201">
  <ele>1586.0</ele>
  <time>2026-08-27T18:25:59Z</time>
  <course>335.16</course>
  <speed>0.0</speed>
  <fix>3d</fix>
</trkpt>
<trkpt lat="40.0728609" lon="-105.23062">
  <ele>1586.1</ele>
  <time>2026-08-27T18:25:59Z</time>
  <course>70.33</course>
  <speed>0.022360679774997897</speed>
  <fix>3d</fix>
</trkpt>
<trkpt lat="40.0728608" lon="-105.2306201">
  <ele>1586.0</ele>
  <time>2026-08-27T18:26:00Z</time>
  <course>335.22</course>
  <speed>0.0</speed>
  <fix>3d</fix>
</trkpt>
<trkpt lat="40.0728609" lon="-105.23062">
  <ele>1586.1</ele>
  <time>2026-08-27T18:26:00Z</time>
  <course>70.3</course>
  <speed>0.022360679774997897</speed>
  <fix>3d</fix>
</trkpt>
<trkpt lat="40.0728608" lon="-105.2306201">
  <ele>1586.0</ele>
  <time>2026-08-27T18:26:00Z</time>
  <course>333.57</course>
  <speed>0.0</speed>
  <fix>3d</fix>
</trkpt>
<trkpt lat="40.0728609" lon="-105.23062">
  <ele>1586.1</ele>
  <time>2026-08-27T18:26:00Z</time>
  <course>70.26</course>
  <speed>0.022360679774997897</speed>
  <fix>3d</fix>
</trkpt>
<trkpt lat="40.0728608" lon="-105.2306201">
  <ele>1586.0</ele>
  <time>2026-08-27T18:26:00Z</time>
  <course>335.16</course>
  <speed>0.0</speed>
  <fix>3d</fix>
</trkpt>
<trkpt lat="40.0728609" lon="-105.23062">
  <ele>1586.1</ele>
  <time>2026-08-27T18:26:00Z</time>
  <course>70.23</course>
  <speed>0.022360679774997897</speed>
  <fix>3d</fix>
</trkpt>
<trkpt lat="40.0728608" lon="-105.2306201">
  <ele>1586.0</ele>
  <time>2026-08-27T18:26:00Z</time>
  <course>335.17</course>
  <speed>0.0</speed>
  <fix>3d</fix>
</trkpt>
<trkpt lat="40.0728609" lon="-105.23062">
  <ele>1586.1</ele>
  <time>2026-08-27T18:26:00Z</time>
  <course>70.2</course>
  <speed>0.022360679774997897</speed>
  <fix>3d</fix>
</trkpt>
<trkpt lat="40.0728608" lon="-105.2306201">
  <ele>1586.0</ele>
  <time>2026-08-27T18:26:00Z</time>
  <course>334.31</course>
  <speed>0.0</speed>
  <fix>3d</fix>
</trkpt>
<trkpt lat="40.0728609" lon="-105.23062">
  <ele>1586.09</ele>
  <time>2026-08-27T18:26:00Z</time>
  <course>70.16</course>
  <speed>0.022360679774997897</speed>
  <fix>3d</fix>
</trkpt>
<trkpt lat="40.0728608" lon="-105.2306201">
  <ele>1586.0</ele>
  <time>2026-08-27T18:26:00Z</time>
  <course>335.12</course>
  <speed>0.0</speed>
  <fix>3d</fix>
</trkpt>
<trkpt lat="40.0728609" lon="-105.23062">
  <ele>1586.09</ele>
  <time>2026-08-27T18:26:00Z</time>
  <course>70.13</course>
  <speed>0.022360679774997897</speed>
  <fix>3d</fix>
</trkpt>
<trkpt lat="40.0728608" lon="-105.2306201">
  <ele>1586.0</ele>
  <time>2026-08-27T18:26:00Z</time>
  <course>334.95</course>
  <speed>0.0</speed>
  <fix>3d</fix>
</trkpt>
<trkpt lat="40.0728609" lon="-105.23062">
  <ele>1586.09</ele>
  <time>2026-08-27T18:26:00Z</time>
  <course>70.1</course>
  <speed>0.022360679774997897</speed>
  <fix>3d</fix>
</trkpt>
<trkpt lat="40.0728608" lon="-105.2306201">
  <ele>1586.0</ele>
  <time>2026-08-27T18:26:00Z</time>
  <course>334.48</course>
  <speed>0.0</speed>
  <fix>3d</fix>
</trkpt>
<trkpt lat="40.0728609" lon="-105.23062">
  <ele>1586.09</ele>
  <time>2026-08-27T18:26:00Z</time>
  <course>70.07</course>
  <speed>0.022360679774997897</speed>
  <fix>3d</fix>
</trkpt>
<trkpt lat="40.0728608" lon="-105.2306201">
  <ele>1586.0</ele>
  <time>2026-08-27T18:26:00Z</time>
  <course>335.11</course>
  <speed>0.0</speed>
  <fix>3d</fix>
</trkpt>
<trkpt lat="40.0728609" lon="-105.23062">
  <ele>1586.09</ele>
  <time>2026-08-27T18:26:00Z</time>
  <course>70.04</course>
  <speed>0.022360679774997897</speed>
  <fix>3d</fix>
</trkpt>
<trkpt lat="40.0728608" lon="-105.2306201">
  <ele>1586.0</ele>
  <time>2026-08-27T18:26:00Z</time>
  <course>334.83</course>
  <speed>0.0</speed>
  <fix>3d</fix>
</trkpt>
<trkpt lat="40.0728609" lon="-105.23062">
  <ele>1586.09</ele>
  <time>2026-08-27T18:26:00Z</time>
  <course>70.01</course>
  <speed>0.022360679774997897</speed>
  <fix>3d</fix>
</trkpt>
<trkpt lat="40.0728608" lon="-105.2306201">
  <ele>1586.0</ele>
  <time>2026-08-27T18:26:00Z</time>
  <course>333.53</course>
  <speed>0.0</speed>
  <fix>3d</fix>
</trkpt>
<trkpt lat="40.0728609" lon="-105.23062">
  <ele>1586.09</ele>
  <time>2026-08-27T18:26:00Z</time>
  <course>69.98</course>
  <speed>0.022360679774997897</speed>
  <fix>3d</fix>
</trkpt>
<trkpt lat="40.0728608" lon="-105.2306201">
  <ele>1586.0</ele>
  <time>2026-08-27T18:26:00Z</time>
  <course>334.9</course>
  <speed>0.0</speed>
  <fix>3d</fix>
</trkpt>
<trkpt lat="40.0728609" lon="-105.23062">
  <ele>1586.09</ele>
  <time>2026-08-27T18:26:00Z</time>
  <course>69.95</course>
  <speed>0.022360679774997897</speed>
  <fix>3d</fix>
</trkpt>
<trkpt lat="40.0728608" lon="-105.2306201">
  <ele>1586.0</ele>
  <time>2026-08-27T18:26:00Z</time>
  <course>334.89</course>
  <speed>0.0</speed>
  <fix>3d</fix>
</trkpt>
<trkpt lat="40.0728609" lon="-105.23062">
  <ele>1586.09</ele>
  <time>2026-08-27T18:26:00Z</time>
  <course>69.92</course>
  <speed>0.022360679774997897</speed>
  <fix>3d</fix>
</trkpt>
<trkpt lat="40.0728608" lon="-105.2306201">
  <ele>1586.0</ele>
  <time>2026-08-27T18:26:00Z</time>
  <course>333.58</course>
  <speed>0.0</speed>
  <fix>3d</fix>
</trkpt>
<trkpt lat="40.0728609" lon="-105.23062">
  <ele>1586.08</ele>
  <time>2026-08-27T18:26:00Z</time>
  <course>69.89</course>
  <speed>0.022360679774997897</speed>
  <fix>3d</fix>
</trkpt>
<trkpt lat="40.0728608" lon="-105.2306201">
  <ele>1586.0</ele>
  <time>2026-08-27T18:26:00Z</time>
  <course>334.88</course>
  <speed>0.0</speed>
  <fix>3d</fix>
</trkpt>
<trkpt lat="40.0728609" lon="-105.23062">
  <ele>1586.09</ele>
  <time>2026-08-27T18:26:00Z</time>
  <course>69.86</course>
  <speed>0.022360679774997897</speed>
  <fix>3d</fix>
</trkpt>
<trkpt lat="40.0728608" lon="-105.2306201">
  <ele>1586.0</ele>
  <time>2026-08-27T18:26:00Z</time>
  <course>335.06</course>
  <speed>0.0</speed>
  <fix>3d</fix>
</trkpt>
<trkpt lat="40.0728609" lon="-105.23062">
  <ele>1586.09</ele>
  <time>2026-08-27T18:26:00Z</time>
  <course>69.83</course>
  <speed>0.022360679774997897</speed>
  <fix>3d</fix>
</trkpt>
<trkpt lat="40.0728608" lon="-105.2306201">
  <ele>1586.0</ele>
  <time>2026-08-27T18:26:00Z</time>
  <course>334.35</course>
  <speed>0.0</speed>
  <fix>3d</fix>
</trkpt>
<trkpt lat="40.0728609" lon="-105.23062">
  <ele>1586.09</ele>
  <time>2026-08-27T18:26:00Z</time>
  <course>69.81</course>
  <speed>0.022360679774997897</speed>
  <fix>3d</fix>
</trkpt>
<trkpt lat="40.0728608" lon="-105.2306201">
  <ele>1586.0</ele>
  <time>2026-08-27T18:26:00Z</time>
  <course>333.67</course>
  <speed>0.0</speed>
  <fix>3d</fix>
</trkpt>
<trkpt lat="40.0728609" lon="-105.23062">
  <ele>1586.09</ele>
  <time>2026-08-27T18:26:00Z</time>
  <course>69.78</course>
  <speed>0.022360679774997897</speed>
  <fix>3d</fix>
</trkpt>
<trkpt lat="40.0728608" lon="-105.2306201">
  <ele>1586.0</ele>
  <time>2026-08-27T18:26:00Z</time>
  <course>334.77</course>
  <speed>0.0</speed>
  <fix>3d</fix>
</trkpt>
<trkpt lat="40.0728609" lon="-105.23062">
  <ele>1586.09</ele>
  <time>2026-08-27T18:26:00Z</time>
  <course>69.75</course>
  <speed>0.022360679774997897</speed>
  <fix>3d</fix>
</trkpt>
<trkpt lat="40.0728608" lon="-105.2306201">
  <ele>1586.0</ele>
  <time>2026-08-27T18:26:00Z</time>
  <course>334.71</course>
  <speed>0.0</speed>
  <fix>3d</fix>
</trkpt>
<trkpt lat="40.0728609" lon="-105.23062">
  <ele>1586.09</ele>
  <time>2026-08-27T18:26:00Z</time>
  <course>69.72</course>
  <speed>0.022360679774997897</speed>
  <fix>3d</fix>
</trkpt>
<trkpt lat="40.0728608" lon="-105.2306201">
  <ele>1586.0</ele>
  <time>2026-08-27T18:26:00Z</time>
  <course>333.54</course>
  <speed>0.0</speed>
  <fix>3d</fix>
</trkpt>
<trkpt lat="40.0728609" lon="-105.23062">
  <ele>1586.09</ele>
  <time>2026-08-27T18:26:00Z</time>
  <course>69.7</course>
  <speed>0.022360679774997897</speed>
  <fix>3d</fix>
</trkpt>
<trkpt lat="40.0728608" lon="-105.2306201">
  <ele>1586.0</ele>
  <time>2026-08-27T18:26:00Z</time>
  <course>334.75</course>
  <speed>0.0</speed>
  <fix>3d</fix>
</trkpt>
<trkpt lat="40.0728609" lon="-105.23062">
  <ele>1586.09</ele>
  <time>2026-08-27T18:26:00Z</time>
  <course>69.67</course>
  <speed>0.022360679774997897</speed>
  <fix>3d</fix>
</trkpt>
<trkpt lat="40.0728608" lon="-105.2306201">
  <ele>1586.0</ele>
  <time>2026-08-27T18:26:00Z</time>
  <course>334.89</course>
  <speed>0.0</speed>
  <fix>3d</fix>
</trkpt>
<trkpt lat="40.0728609" lon="-105.23062">
  <ele>1586.09</ele>
  <time>2026-08-27T18:26:00Z</time>
  <course>69.64</course>
  <speed>0.022360679774997897</speed>
  <fix>3d</fix>
</trkpt>
<trkpt lat="40.0728608" lon="-105.2306201">
  <ele>1586.0</ele>
  <time>2026-08-27T18:26:00Z</time>
  <course>334.13</course>
  <speed>0.0</speed>
  <fix>3d</fix>
</trkpt>
<trkpt lat="40.0728609" lon="-105.23062">
  <ele>1586.09</ele>
  <time>2026-08-27T18:26:00Z</time>
  <course>69.62</course>
  <speed>0.022360679774997897</speed>
  <fix>3d</fix>
</trkpt>
<trkpt lat="40.0728608" lon="-105.2306201">
  <ele>1586.0</ele>
  <time>2026-08-27T18:26:00Z</time>
  <course>333.58</course>
  <speed>0.0</speed>
  <fix>3d</fix>
</trkpt>
<trkpt lat="40.0728609" lon="-105.23062">
  <ele>1586.09</ele>
  <time>2026-08-27T18:26:00Z</time>
  <course>69.59</course>
  <speed>0.022360679774997897</speed>
  <fix>3d</fix>
</trkpt>
<trkpt lat="40.0728608" lon="-105.2306201">
  <ele>1586.0</ele>
  <time>2026-08-27T18:26:00Z</time>
  <course>334.7</course>
  <speed>0.0</speed>
  <fix>3d</fix>
</trkpt>
<trkpt lat="40.0728609" lon="-105.23062">
  <ele>1586.09</ele>
  <time>2026-08-27T18:26:00Z</time>
  <course>69.58</course>
  <speed>0.022360679774997897</speed>
  <fix>3d</fix>
</trkpt>
<trkpt lat="40.0728608" lon="-105.2306201">
  <ele>1586.0</ele>
  <time>2026-08-27T18:26:00Z</time>
  <course>336.72</course>
  <speed>0.0</speed>
  <fix>3d</fix>
</trkpt>
<trkpt lat="40.0728609" lon="-105.23062">
  <ele>1586.09</ele>
  <time>2026-08-27T18:26:00Z</time>
  <course>69.56</course>
  <speed>0.02</speed>
  <fix>3d</fix>
</trkpt>
<trkpt lat="40.0728608" lon="-105.2306201">
  <ele>1586.0</ele>
  <time>2026-08-27T18:26:00Z</time>
  <course>337.15</course>
  <speed>0.0</speed>
  <fix>3d</fix>
</trkpt>
<trkpt lat="40.0728609" lon="-105.23062">
  <ele>1586.09</ele>
  <time>2026-08-27T18:26:00Z</time>
  <course>69.54</course>
  <speed>0.02</speed>
  <fix>3d</fix>
</trkpt>
<trkpt lat="40.0728608" lon="-105.2306201">
  <ele>1586.0</ele>
  <time>2026-08-27T18:26:00Z</time>
  <course>334.76</course>
  <speed>0.0</speed>
  <fix>3d</fix>
</trkpt>
<trkpt lat="40.0728609" lon="-105.23062">
  <ele>1586.09</ele>
  <time>2026-08-27T18:26:00Z</time>
  <course>69.5</course>
  <speed>0.02</speed>
  <fix>3d</fix>
</trkpt>
<trkpt lat="40.0728608" lon="-105.2306201">
  <ele>1586.0</ele>
  <time>2026-08-27T18:26:00Z</time>
  <course>334.11</course>
  <speed>0.0</speed>
  <fix>3d</fix>
</trkpt>
<trkpt lat="40.0728609" lon="-105.23062">
  <ele>1586.09</ele>
  <time>2026-08-27T18:26:00Z</time>
  <course>69.45</course>
  <speed>0.02</speed>
  <fix>3d</fix>
</trkpt>
<trkpt lat="40.0728608" lon="-105.2306201">
  <ele>1586.0</ele>
  <time>2026-08-27T18:26:00Z</time>
  <course>332.59</course>
  <speed>0.0</speed>
  <fix>3d</fix>
</trkpt>
<trkpt lat="40.0728609" lon="-105.23062">
  <ele>1586.11</ele>
  <time>2026-08-27T18:26:00Z</time>
  <course>69.38</course>
  <speed>0.02</speed>
  <fix>3d</fix>
</trkpt>
<trkpt lat="40.0728608" lon="-105.2306201">
  <ele>1586.0</ele>
  <time>2026-08-27T18:26:00Z</time>
  <course>331.06</course>
  <speed>0.0</speed>
  <fix>3d</fix>
</trkpt>
<trkpt lat="40.0728609" lon="-105.23062">
  <ele>1586.15</ele>
  <time>2026-08-27T18:26:00Z</time>
  <course>69.31</course>
  <speed>0.02</speed>
  <fix>3d</fix>
</trkpt>
<trkpt lat="40.0728608" lon="-105.2306201">
  <ele>1586.02</ele>
  <time>2026-08-27T18:26:00Z</time>
  <course>326.42</course>
  <speed>0.0</speed>
  <fix>3d</fix>
</trkpt>
<trkpt lat="40.0728609" lon="-105.23062">
  <ele>1586.19</ele>
  <time>2026-08-27T18:26:00Z</time>
  <course>69.23</course>
  <speed>0.02</speed>
  <fix>3d</fix>
</trkpt>
<trkpt lat="40.0728608" lon="-105.2306201">
  <ele>1586.06</ele>
  <time>2026-08-27T18:26:00Z</time>
  <course>329.25</course>
  <speed>0.0</speed>
  <fix>3d</fix>
</trkpt>
<trkpt lat="40.0728609" lon="-105.23062">
  <ele>1586.29</ele>
  <time>2026-08-27T18:26:00Z</time>
  <course>64.93</course>
  <speed>0.07071067811865475</speed>
  <fix>3d</fix>
</trkpt>
<trkpt lat="40.0728608" lon="-105.2306201">
  <ele>1586.1</ele>
  <time>2026-08-27T18:26:00Z</time>
  <course>333.71</course>
  <speed>0.0</speed>
  <fix>3d</fix>
</trkpt>
<trkpt lat="40.0728612" lon="-105.2306201">
  <ele>1586.56</ele>
  <time>2026-08-27T18:26:00Z</time>
  <course>61.97</course>
  <speed>0.22847319317591727</speed>
  <fix>3d</fix>
</trkpt>
<trkpt lat="40.0728608" lon="-105.2306201">
  <ele>1586.22</ele>
  <time>2026-08-27T18:26:00Z</time>
  <course>328.86</course>
  <speed>0.07</speed>
  <fix>3d</fix>
</trkpt>
<trkpt lat="40.0728615" lon="-105.2306204">
  <ele>1586.81</ele>
  <time>2026-08-27T18:26:00Z</time>
  <course>61.32</course>
  <speed>0.27730849247724093</speed>
  <fix>3d</fix>
</trkpt>
<trkpt lat="40.0728609" lon="-105.2306202">
  <ele>1586.45</ele>
  <time>2026-08-27T18:26:00Z</time>
  <course>327.45</course>
  <speed>0.19</speed>
  <fix>3d</fix>
</trkpt>
<trkpt lat="40.0728619" lon="-105.2306208">
  <ele>1587.07</ele>
  <time>2026-08-27T18:26:00Z</time>
  <course>59.8</course>
  <speed>0.291547594742265</speed>
  <fix>3d</fix>
</trkpt>
<trkpt lat="40.0728613" lon="-105.2306204">
  <ele>1586.73</ele>
  <time>2026-08-27T18:26:00Z</time>
  <course>324.76</course>
  <speed>0.26</speed>
  <fix>3d</fix>
</trkpt>
<trkpt lat="40.0728623" lon="-105.2306212">
  <ele>1587.36</ele>
  <time>2026-08-27T18:26:00Z</time>
  <course>58.66</course>
  <speed>0.2884441020371191</speed>
  <fix>3d</fix>
</trkpt>
<trkpt lat="40.0728617" lon="-105.2306208">
  <ele>1586.99</ele>
  <time>2026-08-27T18:26:00Z</time>
  <course>321.69</course>
  <speed>0.28</speed>
  <fix>3d</fix>
</trkpt>
<trkpt lat="40.0728626" lon="-105.2306215">
  <ele>1587.7</ele>
  <time>2026-08-27T18:26:00Z</time>
  <course>57.86</course>
  <speed>0.266270539113887</speed>
  <fix>3d</fix>
</trkpt>
<trkpt lat="40.072862" lon="-105.2306213">
  <ele>1587.28</ele>
  <time>2026-08-27T18:26:00Z</time>
  <course>319.79</course>
  <speed>0.28</speed>
  <fix>3d</fix>
</trkpt>
<trkpt lat="40.072863" lon="-105.2306219">
  <ele>1588.07</ele>
  <time>2026-08-27T18:26:00Z</time>
  <course>57.15</course>
  <speed>0.23853720883753127</speed>
  <fix>3d</fix>
</trkpt>
<trkpt lat="40.0728624" lon="-105.2306218">
  <ele>1587.61</ele>
  <time>2026-08-27T18:26:00Z</time>
  <course>319.29</course>
  <speed>0.26</speed>
  <fix>3d</fix>
</trkpt>
<trkpt lat="40.0728633" lon="-105.2306223">
  <ele>1588.49</ele>
  <time>2026-08-27T18:26:00Z</time>
  <course>56.49</course>
  <speed>0.2109502310972899</speed>
  <fix>3d</fix>
</trkpt>
<trkpt lat="40.0728627" lon="-105.2306221">
  <ele>1587.98</ele>
  <time>2026-08-27T18:26:00Z</time>
  <course>319.63</course>
  <speed>0.24</speed>
  <fix>3d</fix>
</trkpt>
<trkpt lat="40.0728635" lon="-105.2306226">
  <ele>1588.95</ele>
  <time>2026-08-27T18:26:00Z</time>
  <course>58.06</course>
  <speed>0.17492855684535902</speed>
  <fix>3d</fix>
</trkpt>
<trkpt lat="40.0728631" lon="-105.2306224">
  <ele>1588.4</ele>
  <time>2026-08-27T18:26:00Z</time>
  <course>320.33</course>
  <speed>0.2</speed>
  <fix>3d</fix>
</trkpt>
<trkpt lat="40.0728637" lon="-105.2306228">
  <ele>1589.45</ele>
  <time>2026-08-27T18:26:00Z</time>
  <course>56.42</course>
  <speed>0.13892443989449804</speed>
  <fix>3d</fix>
</trkpt>
<trkpt lat="40.0728634" lon="-105.2306227">
  <ele>1588.85</ele>
  <time>2026-08-27T18:26:00Z</time>
  <course>321.23</course>
  <speed>0.17</speed>
  <fix>3d</fix>
</trkpt>
<trkpt lat="40.0728639" lon="-105.230623">
  <ele>1589.96</ele>
  <time>2026-08-27T18:26:00Z</time>
  <course>55.42</course>
  <speed>0.10816653826391968</speed>
  <fix>3d</fix>
</trkpt>
<trkpt lat="40.0728636" lon="-105.230623">
  <ele>1589.34</ele>
  <time>2026-08-27T18:26:00Z</time>
  <course>322.77</course>
  <speed>0.14</speed>
  <fix>3d</fix>
</trkpt>
<trkpt lat="40.072864" lon="-105.2306231">
  <ele>1590.49</ele>
  <time>2026-08-27T18:26:00Z</time>
  <course>56.3</course>
  <speed>0.0670820393249937</speed>
  <fix>3d</fix>
</trkpt>
<trkpt lat="40.0728638" lon="-105.2306231">
  <ele>1589.86</ele>
  <time>2026-08-27T18:26:00Z</time>
  <course>326.88</course>
  <speed>0.1</speed>
  <fix>3d</fix>
</trkpt>
<trkpt lat="40.072864" lon="-105.2306232">
  <ele>1591.02</ele>
  <time>2026-08-27T18:26:00Z</time>
  <course>57.4</course>
  <speed>0.03</speed>
  <fix>3d</fix>
</trkpt>
<trkpt lat="40.0728639" lon="-105.2306232">
  <ele>1590.38</ele>
  <time>2026-08-27T18:26:00Z</time>
  <course>340.27</course>
  <speed>0.06</speed>
  <fix>3d</fix>
</trkpt>
<trkpt lat="40.0728641" lon="-105.2306231">
  <ele>1591.55</ele>
  <time>2026-08-27T18:26:00Z</time>
  <course>58.41</course>
  <speed>0.03</speed>
  <fix>3d</fix>
</trkpt>
<trkpt lat="40.072864" lon="-105.2306232">
  <ele>1590.91</ele>
  <time>2026-08-27T18:26:00Z</time>
  <course>24.15</course>
  <speed>0.04</speed>
  <fix>3d</fix>
</trkpt>
<trkpt lat="40.0728641" lon="-105.230623">
  <ele>1592.06</ele>
  <time>2026-08-27T18:26:00Z</time>
  <course>59.38</course>
  <speed>0.07071067811865475</speed>
  <fix>3d</fix>
</trkpt>
<trkpt lat="40.072864" lon="-105.2306232">
  <ele>1591.42</ele>
  <time>2026-08-27T18:26:00Z</time>
  <course>73.35</course>
  <speed>0.06</speed>
  <fix>3d</fix>
</trkpt>
<trkpt lat="40.0728641" lon="-105.2306228">
  <ele>1592.58</ele>
  <time>2026-08-27T18:26:00Z</time>
  <course>60.24</course>
  <speed>0.09486832980505139</speed>
  <fix>3d</fix>
</trkpt>
<trkpt lat="40.072864" lon="-105.230623">
  <ele>1591.94</ele>
  <time>2026-08-27T18:26:00Z</time>
  <course>91.8</course>
  <speed>0.09</speed>
  <fix>3d</fix>
</trkpt>
<trkpt lat="40.0728641" lon="-105.2306225">
  <ele>1593.09</ele>
  <time>2026-08-27T18:26:00Z</time>
  <course>61.06</course>
  <speed>0.1264911064067352</speed>
  <fix>3d</fix>
</trkpt>
<trkpt lat="40.072864" lon="-105.2306228">
  <ele>1592.45</ele>
  <time>2026-08-27T18:26:00Z</time>
  <course>100.47</course>
  <speed>0.12</speed>
  <fix>3d</fix>
</trkpt>
<trkpt lat="40.072864" lon="-105.2306222">
  <ele>1593.57</ele>
  <time>2026-08-27T18:26:00Z</time>
  <course>62.16</course>
  <speed>0.14317821063276354</speed>
  <fix>3d</fix>
</trkpt>
<trkpt lat="40.072864" lon="-105.2306225">
  <ele>1592.95</ele>
  <time>2026-08-27T18:26:00Z</time>
  <course>106.04</course>
  <speed>0.15</speed>
  <fix>3d</fix>
</trkpt>
<trkpt lat="40.0728639" lon="-105.2306218">
  <ele>1594.03</ele>
  <time>2026-08-27T18:26:00Z</time>
  <course>63.39</course>
  <speed>0.15652475842498528</speed>
  <fix>3d</fix>
</trkpt>
<trkpt lat="40.072864" lon="-105.2306222">
  <ele>1593.43</ele>
  <time>2026-08-27T18:26:00Z</time>
  <course>110.47</course>
  <speed>0.16</speed>
  <fix>3d</fix>
</trkpt>
<trkpt lat="40.0728637" lon="-105.2306214">
  <ele>1594.45</ele>
  <time>2026-08-27T18:26:00Z</time>
  <course>64.68</course>
  <speed>0.17492855684535902</speed>
  <fix>3d</fix>
</trkpt>
<trkpt lat="40.0728639" lon="-105.2306218">
  <ele>1593.89</ele>
  <time>2026-08-27T18:26:00Z</time>
  <course>114.56</course>
  <speed>0.18</speed>
  <fix>3d</fix>
</trkpt>
<trkpt lat="40.0728636" lon="-105.230621">
  <ele>1594.83</ele>
  <time>2026-08-27T18:26:00Z</time>
  <course>65.92</course>
  <speed>0.18027756377319945</speed>
  <fix>3d</fix>
</trkpt>
<trkpt lat="40.0728637" lon="-105.2306213">
  <ele>1594.3</ele>
  <time>2026-08-27T18:26:00Z</time>
  <course>118.45</course>
  <speed>0.19</speed>
  <fix>3d</fix>
</trkpt>
<trkpt lat="40.0728634" lon="-105.2306206">
  <ele>1595.16</ele>
  <time>2026-08-27T18:26:00Z</time>
  <course>67.06</course>
  <speed>0.194164878389476</speed>
  <fix>3d</fix>
</trkpt>
<trkpt lat="40.0728634" lon="-105.230621">
  <ele>1594.67</ele>
  <time>2026-08-27T18:26:00Z</time>
  <course>122.18</course>
  <speed>0.2</speed>
  <fix>3d</fix>
</trkpt>
<trkpt lat="40.0728631" lon="-105.2306202">
  <ele>1595.45</ele>
  <time>2026-08-27T18:26:00Z</time>
  <course>68.08</course>
  <speed>0.19849433241279207</speed>
  <fix>3d</fix>
</trkpt>
<trkpt lat="40.0728632" lon="-105.2306205">
  <ele>1595.0</ele>
  <time>2026-08-27T18:26:00Z</time>
  <course>125.79</course>
  <speed>0.21</speed>
  <fix>3d</fix>
</trkpt>
<trkpt lat="40.0728629" lon="-105.2306198">
  <ele>1595.68</ele>
  <time>2026-08-27T18:26:00Z</time>
  <course>68.96</course>
  <speed>0.20518284528683192</speed>
  <fix>3d</fix>
</trkpt>
<trkpt lat="40.0728631" lon="-105.2306201">
  <ele>1595.29</ele>
  <time>2026-08-27T18:26:00Z</time>
  <course>129.33</course>
  <speed>0.22</speed>
  <fix>3d</fix>
</trkpt>
<trkpt lat="40.0728626" lon="-105.2306194">
  <ele>1595.87</ele>
  <time>2026-08-27T18:26:00Z</time>
  <course>69.7</course>
  <speed>0.1979898987322333</speed>
  <fix>3d</fix>
</trkpt>
<trkpt lat="40.0728628" lon="-105.2306196">
  <ele>1595.52</ele>
  <time>2026-08-27T18:26:00Z</time>
  <course>132.88</course>
  <speed>0.22</speed>
  <fix>3d</fix>
</trkpt>
<trkpt lat="40.0728623" lon="-105.2306191">
  <ele>1596.02</ele>
  <time>2026-08-27T18:26:00Z</time>
  <course>70.31</course>
  <speed>0.19849433241279207</speed>
  <fix>3d</fix>
</trkpt>
<trkpt lat="40.0728625" lon="-105.2306193">
  <ele>1595.71</ele>
  <time>2026-08-27T18:26:00Z</time>
  <course>136.54</course>
  <speed>0.22</speed>
  <fix>3d</fix>
</trkpt>
<trkpt lat="40.072862" lon="-105.2306188">
  <ele>1596.13</ele>
  <time>2026-08-27T18:26:00Z</time>
  <course>70.83</course>
  <speed>0.18601075237738274</speed>
  <fix>3d</fix>
</trkpt>
<trkpt lat="40.0728622" lon="-105.2306189">
  <ele>1595.86</ele>
  <time>2026-08-27T18:26:00Z</time>
  <course>140.48</course>
  <speed>0.22</speed>
  <fix>3d</fix>
</trkpt>
<trkpt lat="40.0728617" lon="-105.2306185">
  <ele>1596.2</ele>
  <time>2026-08-27T18:26:00Z</time>
  <course>71.27</course>
  <speed>0.17492855684535902</speed>
  <fix>3d</fix>
</trkpt>
<trkpt lat="40.0728619" lon="-105.2306186">
  <ele>1595.97</ele>
  <time>2026-08-27T18:26:00Z</time>
  <course>144.85</course>
  <speed>0.21</speed>
  <fix>3d</fix>
</trkpt>
<trkpt lat="40.0728614" lon="-105.2306183">
  <ele>1596.22</ele>
  <time>2026-08-27T18:26:01Z</time>
  <course>71.6</course>
  <speed>0.16552945357246848</speed>
  <fix>3d</fix>
</trkpt>
<trkpt lat="40.0728615" lon="-105.2306184">
  <ele>1596.04</ele>
  <time>2026-08-27T18:26:01Z</time>
  <course>149.72</course>
  <speed>0.2</speed>
  <fix>3d</fix>
</trkpt>
<trkpt lat="40.0728611" lon="-105.2306181">
  <ele>1596.21</ele>
  <time>2026-08-27T18:26:01Z</time>
  <course>67.33</course>
  <speed>0.14560219778561037</speed>
  <fix>3d</fix>
</trkpt>
<trkpt lat="40.0728612" lon="-105.2306182">
  <ele>1596.07</ele>
  <time>2026-08-27T18:26:01Z</time>
  <course>155.59</course>
  <speed>0.2</speed>
  <fix>3d</fix>
</trkpt>
<trkpt lat="40.0728608" lon="-105.230618">
  <ele>1596.17</ele>
  <time>2026-08-27T18:26:01Z</time>
  <course>68.29</course>
  <speed>0.11</speed>
  <fix>3d</fix>
</trkpt>
<trkpt lat="40.0728609" lon="-105.230618">
  <ele>1596.07</ele>
  <time>2026-08-27T18:26:01Z</time>
  <course>164.25</course>
  <speed>0.18</speed>
  <fix>3d</fix>
</trkpt>
<trkpt lat="40.0728606" lon="-105.2306181">
  <ele>1596.14</ele>
  <time>2026-08-27T18:26:01Z</time>
  <course>68.21</course>
  <speed>0.07810249675906654</speed>
  <fix>3d</fix>
</trkpt>
<trkpt lat="40.0728606" lon="-105.2306179">
  <ele>1596.04</ele>
  <time>2026-08-27T18:26:01Z</time>
  <course>182.07</course>
  <speed>0.13</speed>
  <fix>3d</fix>
</trkpt>
<trkpt lat="40.0728605" lon="-105.2306181">
  <ele>1596.11</ele>
  <time>2026-08-27T18:26:01Z</time>
  <course>68.16</course>
  <speed>0.07071067811865475</speed>
  <fix>3d</fix>
</trkpt>
<trkpt lat="40.0728604" lon="-105.2306179">
  <ele>1596.0</ele>
  <time>2026-08-27T18:26:01Z</time>
  <course>209.56</course>
  <speed>0.1</speed>
  <fix>3d</fix>
</trkpt>
<trkpt lat="40.0728606" lon="-105.2306183">
  <ele>1596.08</ele>
  <time>2026-08-27T18:26:01Z</time>
  <course>68.11</course>
  <speed>0.13892443989449804</speed>
  <fix>3d</fix>
</trkpt>
<trkpt lat="40.0728603" lon="-105.230618">
  <ele>1595.98</ele>
  <time>2026-08-27T18:26:01Z</time>
  <course>261.83</course>
  <speed>0.08</speed>
  <fix>3d</fix>
</trkpt>
<trkpt lat="40.0728609" lon="-105.2306185">
  <ele>1596.07</ele>
  <time>2026-08-27T18:26:01Z</time>
  <course>68.08</course>
  <speed>0.26476404589747454</speed>
  <fix>3d</fix>
</trkpt>
<trkpt lat="40.0728603" lon="-105.2306183">
  <ele>1595.96</ele>
  <time>2026-08-27T18:26:01Z</time>
  <course>316.83</course>
  <speed>0.13</speed>
  <fix>3d</fix>
</trkpt>
<trkpt lat="40.0728613" lon="-105.2306186">
  <ele>1596.06</ele>
  <time>2026-08-27T18:26:01Z</time>
  <course>68.06</course>
  <speed>0.4204759208325728</speed>
  <fix>3d</fix>
</trkpt>
<trkpt lat="40.0728606" lon="-105.2306184">
  <ele>1595.95</ele>
  <time>2026-08-27T18:26:01Z</time>
  <course>341.28</course>
  <speed>0.25</speed>
  <fix>3d</fix>
</trkpt>
<trkpt lat="40.0728621" lon="-105.2306186">
  <ele>1596.06</ele>
  <time>2026-08-27T18:26:01Z</time>
  <course>68.09</course>
  <speed>0.5800862004909271</speed>
  <fix>3d</fix>
</trkpt>
<trkpt lat="40.0728612" lon="-105.2306187">
  <ele>1595.95</ele>
  <time>2026-08-27T18:26:01Z</time>
  <course>352.44</course>
  <speed>0.39</speed>
  <fix>3d</fix>
</trkpt>
<trkpt lat="40.0728633" lon="-105.2306186">
  <ele>1596.07</ele>
  <time>2026-08-27T18:26:01Z</time>
  <course>68.1</course>
  <speed>0.7523961722390672</speed>
  <fix>3d</fix>
</trkpt>
<trkpt lat="40.072862" lon="-105.2306188">
  <ele>1595.95</ele>
  <time>2026-08-27T18:26:01Z</time>
  <course>358.75</course>
  <speed>0.56</speed>
  <fix>3d</fix>
</trkpt>
<trkpt lat="40.0728647" lon="-105.2306185">
  <ele>1596.08</ele>
  <time>2026-08-27T18:26:01Z</time>
  <course>68.17</course>
  <speed>0.9390420650854785</speed>
  <fix>3d</fix>
</trkpt>
<trkpt lat="40.0728632" lon="-105.2306187">
  <ele>1595.96</ele>
  <time>2026-08-27T18:26:01Z</time>
  <course>3.04</course>
  <speed>0.74</speed>
  <fix>3d</fix>
</trkpt>
<trkpt lat="40.0728665" lon="-105.2306182">
  <ele>1596.1</ele>
  <time>2026-08-27T18:26:01Z</time>
  <course>67.61</course>
  <speed>1.110045044131093</speed>
  <fix>3d</fix>
</trkpt>
<trkpt lat="40.0728646" lon="-105.2306186">
  <ele>1595.97</ele>
  <time>2026-08-27T18:26:01Z</time>
  <course>6.38</course>
  <speed>0.92</speed>
  <fix>3d</fix>
</trkpt>
<trkpt lat="40.0728685" lon="-105.2306176">
  <ele>1596.11</ele>
  <time>2026-08-27T18:26:01Z</time>
  <course>54.62</course>
  <speed>1.2757742747053649</speed>
  <fix>3d</fix>
</trkpt>
<trkpt lat="40.0728665" lon="-105.2306183">
  <ele>1595.99</ele>
  <time>2026-08-27T18:26:01Z</time>
  <course>10.12</course>
  <speed>1.08</speed>
  <fix>3d</fix>
</trkpt>
<trkpt lat="40.0728709" lon="-105.2306169">
  <ele>1596.13</ele>
  <time>2026-08-27T18:26:01Z</time>
  <course>42.15</course>
  <speed>1.5134397906755326</speed>
  <fix>3d</fix>
</trkpt>
<trkpt lat="40.0728686" lon="-105.2306178">
  <ele>1596.0</ele>
  <time>2026-08-27T18:26:01Z</time>
  <course>12.57</course>
  <speed>1.27</speed>
  <fix>3d</fix>
</trkpt>
<trkpt lat="40.0728738" lon="-105.2306161">
  <ele>1596.14</ele>
  <time>2026-08-27T18:26:01Z</time>
  <course>29.87</course>
  <speed>1.7584652399180372</speed>
  <fix>3d</fix>
</trkpt>
<trkpt lat="40.072871" lon="-105.230617">
  <ele>1596.02</ele>
  <time>2026-08-27T18:26:01Z</time>
  <course>13.03</course>
  <speed>1.5</speed>
  <fix>3d</fix>
</trkpt>
<trkpt lat="40.072877" lon="-105.2306151">
  <ele>1596.16</ele>
  <time>2026-08-27T18:26:01Z</time>
  <course>17.61</course>
  <speed>2.0035218990567585</speed>
  <fix>3d</fix>
</trkpt>
<trkpt lat="40.0728738" lon="-105.2306162">
  <ele>1596.04</ele>
  <time>2026-08-27T18:26:01Z</time>
  <course>13.09</course>
  <speed>1.74</speed>
  <fix>3d</fix>
</trkpt>
<trkpt lat="40.0728807" lon="-105.2306141">
  <ele>1596.19</ele>
  <time>2026-08-27T18:26:01Z</time>
  <course>7.05</course>
  <speed>2.2594247055390007</speed>
  <fix>3d</fix>
</trkpt>
<trkpt lat="40.0728771" lon="-105.2306151">
  <ele>1596.06</ele>
  <time>2026-08-27T18:26:01Z</time>
  <course>12.95</course>
  <speed>1.99</speed>
  <fix>3d</fix>
</trkpt>
<trkpt lat="40.0728849" lon="-105.230613">
  <ele>1596.21</ele>
  <time>2026-08-27T18:26:01Z</time>
  <course>6.64</course>
  <speed>2.5360007886434106</speed>
  <fix>3d</fix>
</trkpt>
<trkpt lat="40.0728808" lon="-105.2306141">
  <ele>1596.09</ele>
  <time>2026-08-27T18:26:01Z</time>
  <course>12.19</course>
  <speed>2.24</speed>
  <fix>3d</fix>
</trkpt>
<trkpt lat="40.0728895" lon="-105.2306116">
  <ele>1596.24</ele>
  <time>2026-08-27T18:26:01Z</time>
  <course>7.84</course>
  <speed>2.8527180021866867</speed>
  <fix>3d</fix>
</trkpt>
<trkpt lat="40.072885" lon="-105.230613">
  <ele>1596.11</ele>
  <time>2026-08-27T18:26:01Z</time>
  <course>11.97</course>
  <speed>2.52</speed>
  <fix>3d</fix>
</trkpt>
<trkpt lat="40.0728948" lon="-105.23061">
  <ele>1596.27</ele>
  <time>2026-08-27T18:26:01Z</time>
  <course>8.95</course>
  <speed>3.228157369150395</speed>
  <fix>3d</fix>
</trkpt>
<trkpt lat="40.0728897" lon="-105.2306116">
  <ele>1596.15</ele>
  <time>2026-08-27T18:26:01Z</time>
  <course>12.98</course>
  <speed>2.84</speed>
  <fix>3d</fix>
</trkpt>
<trkpt lat="40.0729006" lon="-105.230608">
  <ele>1596.3</ele>
  <time>2026-08-27T18:26:01Z</time>
  <course>9.8</course>
  <speed>3.6362893174223636</speed>
  <fix>3d</fix>
</trkpt>
<trkpt lat="40.072895" lon="-105.2306099">
  <ele>1596.18</ele>
  <time>2026-08-27T18:26:01Z</time>
  <course>14.18</course>
  <speed>3.22</speed>
  <fix>3d</fix>
</trkpt>
<trkpt lat="40.0729072" lon="-105.2306056">
  <ele>1596.34</ele>
  <time>2026-08-27T18:26:01Z</time>
  <course>10.34</course>
  <speed>4.064504889897416</speed>
  <fix>3d</fix>
</trkpt>
<trkpt lat="40.0729009" lon="-105.2306079">
  <ele>1596.22</ele>
  <time>2026-08-27T18:26:01Z</time>
  <course>15.19</course>
  <speed>3.63</speed>
  <fix>3d</fix>
</trkpt>
<trkpt lat="40.0729146" lon="-105.2306028">
  <ele>1596.39</ele>
  <time>2026-08-27T18:26:01Z</time>
  <course>10.62</course>
  <speed>4.49040087297337</speed>
  <fix>3d</fix>
</trkpt>
<trkpt lat="40.0729075" lon="-105.2306055">
  <ele>1596.26</ele>
  <time>2026-08-27T18:26:01Z</time>
  <course>15.91</course>
  <speed>4.05</speed>
  <fix>3d</fix>
</trkpt>
<trkpt lat="40.0729226" lon="-105.2305997">
  <ele>1596.45</ele>
  <time>2026-08-27T18:26:01Z</time>
  <course>10.77</course>
  <speed>4.916523161747537</speed>
  <fix>3d</fix>
</trkpt>
<trkpt lat="40.0729149" lon="-105.2306026">
  <ele>1596.31</ele>
  <time>2026-08-27T18:26:01Z</time>
  <course>16.41</course>
  <speed>4.48</speed>
  <fix>3d</fix>
</trkpt>
<trkpt lat="40.0729314" lon="-105.2305962">
  <ele>1596.52</ele>
  <time>2026-08-27T18:26:01Z</time>
  <course>10.86</course>
  <speed>5.330337700371338</speed>
  <fix>3d</fix>
</trkpt>
<trkpt lat="40.0729231" lon="-105.2305995">
  <ele>1596.37</ele>
  <time>2026-08-27T18:26:01Z</time>
  <course>16.77</course>
  <speed>4.91</speed>
  <fix>3d</fix>
</trkpt>
<trkpt lat="40.0729409" lon="-105.2305924">
  <ele>1596.58</ele>
  <time>2026-08-27T18:26:01Z</time>
  <course>10.9</course>
  <speed>5.747181918123004</speed>
  <fix>3d</fix>
</trkpt>
<trkpt lat="40.0729319" lon="-105.230596">
  <ele>1596.42</ele>
  <time>2026-08-27T18:26:01Z</time>
  <course>17.07</course>
  <speed>5.33</speed>
  <fix>3d</fix>
</trkpt>
<trkpt lat="40.0729511" lon="-105.2305882">
  <ele>1596.66</ele>
  <time>2026-08-27T18:26:01Z</time>
  <course>10.87</course>
  <speed>6.164162554637897</speed>
  <fix>3d</fix>
</trkpt>
<trkpt lat="40.0729414" lon="-105.2305921">
  <ele>1596.5</ele>
  <time>2026-08-27T18:26:01Z</time>
  <course>17.33</course>
  <speed>5.75</speed>
  <fix>3d</fix>
</trkpt>
<trkpt lat="40.072962" lon="-105.2305837">
  <ele>1596.74</ele>
  <time>2026-08-27T18:26:01Z</time>
  <course>10.72</course>
  <speed>6.587753790177651</speed>
  <fix>3d</fix>
</trkpt>
<trkpt lat="40.0729517" lon="-105.2305879">
  <ele>1596.58</ele>
  <time>2026-08-27T18:26:01Z</time>
  <course>17.54</course>
  <speed>6.17</speed>
  <fix>3d</fix>
</trkpt>
<trkpt lat="40.0729735" lon="-105.2305789">
  <ele>1596.83</ele>
  <time>2026-08-27T18:26:01Z</time>
  <course>10.49</course>
  <speed>7.011369338438819</speed>
  <fix>3d</fix>
</trkpt>
<trkpt lat="40.0729625" lon="-105.2305834">
  <ele>1596.65</ele>
  <time>2026-08-27T18:26:01Z</time>
  <course>17.71</course>
  <speed>6.59</speed>
  <fix>3d</fix>
</trkpt>
<trkpt lat="40.0729858" lon="-105.2305737">
  <ele>1596.92</ele>
  <time>2026-08-27T18:26:01Z</time>
  <course>10.28</course>
  <speed>7.412907661639932</speed>
  <fix>3d</fix>
</trkpt>
<trkpt lat="40.0729742" lon="-105.2305785">
  <ele>1596.74</ele>
  <time>2026-08-27T18:26:01Z</time>
  <course>17.8</course>
  <speed>7.01</speed>
  <fix>3d</fix>
</trkpt>
<trkpt lat="40.0729988" lon="-105.2305683">
  <ele>1597.02</ele>
  <time>2026-08-27T18:26:01Z</time>
  <course>10.17</course>
  <speed>7.779781487933963</speed>
  <fix>3d</fix>
</trkpt>
<trkpt lat="40.0729865" lon="-105.2305733">
  <ele>1596.83</ele>
  <time>2026-08-27T18:26:01Z</time>
  <course>17.84</course>
  <speed>7.42</speed>
  <fix>3d</fix>
</trkpt>
<trkpt lat="40.0730122" lon="-105.2305626">
  <ele>1597.14</ele>
  <time>2026-08-27T18:26:01Z</time>
  <course>10.24</course>
  <speed>8.10246875958186</speed>
  <fix>3d</fix>
</trkpt>
<trkpt lat="40.0729995" lon="-105.2305679">
  <ele>1596.93</ele>
  <time>2026-08-27T18:26:01Z</time>
  <course>17.82</course>
  <speed>7.79</speed>
  <fix>3d</fix>
</trkpt>
<trkpt lat="40.0730263" lon="-105.2305567">
  <ele>1597.26</ele>
  <time>2026-08-27T18:26:01Z</time>
  <course>10.42</course>
  <speed>8.387049540809928</speed>
  <fix>3d</fix>
</trkpt>
<trkpt lat="40.0730132" lon="-105.2305621">
  <ele>1597.05</ele>
  <time>2026-08-27T18:26:01Z</time>
  <course>17.8</course>
  <speed>8.13</speed>
  <fix>3d</fix>
</trkpt>
<trkpt lat="40.073041" lon="-105.2305506">
  <ele>1597.4</ele>
  <time>2026-08-27T18:26:01Z</time>
  <course>10.75</course>
  <speed>8.640011574066321</speed>
  <fix>3d</fix>
</trkpt>
<trkpt lat="40.0730274" lon="-105.2305562">
  <ele>1597.16</ele>
  <time>2026-08-27T18:26:01Z</time>
  <course>17.79</course>
  <speed>8.42</speed>
  <fix>3d</fix>
</trkpt>
<trkpt lat="40.073056" lon="-105.2305442">
  <ele>1597.53</ele>
  <time>2026-08-27T18:26:01Z</time>
  <course>11.19</course>
  <speed>8.861354298300007</speed>
  <fix>3d</fix>
</trkpt>
<trkpt lat="40.073042" lon="-105.23055">
  <ele>1597.29</ele>
  <time>2026-08-27T18:26:01Z</time>
  <course>17.82</course>
  <speed>8.67</speed>
  <fix>3d</fix>
</trkpt>
<trkpt lat="40.0730714" lon="-105.2305378">
  <ele>1597.66</ele>
  <time>2026-08-27T18:26:01Z</time>
  <course>11.65</course>
  <speed>9.04461165556598</speed>
  <fix>3d</fix>
</trkpt>
<trkpt lat="40.073057" lon="-105.2305437">
  <ele>1597.42</ele>
  <time>2026-08-27T18:26:01Z</time>
  <course>17.87</course>
  <speed>8.89</speed>
  <fix>3d</fix>
</trkpt>
<trkpt lat="40.0730871" lon="-105.2305311">
  <ele>1597.79</ele>
  <time>2026-08-27T18:26:01Z</time>
  <course>12.15</course>
  <speed>9.205786223892014</speed>
  <fix>3d</fix>
</trkpt>
<trkpt lat="40.0730724" lon="-105.2305371">
  <ele>1597.55</ele>
  <time>2026-08-27T18:26:01Z</time>
  <course>17.95</course>
  <speed>9.08</speed>
  <fix>3d</fix>
</trkpt>
<trkpt lat="40.073103" lon="-105.2305243">
  <ele>1597.92</ele>
  <time>2026-08-27T18:26:01Z</time>
  <course>12.66</course>
  <speed>9.33844205421868</speed>
  <fix>3d</fix>
</trkpt>
<trkpt lat="40.0730881" lon="-105.2305305">
  <ele>1597.68</ele>
  <time>2026-08-27T18:26:01Z</time>
  <course>18.04</course>
  <speed>9.23</speed>
  <fix>3d</fix>
</trkpt>
<trkpt lat="40.073119" lon="-105.2305174">
  <ele>1598.06</ele>
  <time>2026-08-27T18:26:01Z</time>
  <course>13.18</course>
  <speed>9.42690299090852</speed>
  <fix>3d</fix>
</trkpt>
<trkpt lat="40.073104" lon="-105.2305237">
  <ele>1597.81</ele>
  <time>2026-08-27T18:26:01Z</time>
  <course>18.13</course>
  <speed>9.36</speed>
  <fix>3d</fix>
</trkpt>
<trkpt lat="40.0731352" lon="-105.2305104">
  <ele>1598.19</ele>
  <time>2026-08-27T18:26:01Z</time>
  <course>13.71</course>
  <speed>9.49326076751292</speed>
  <fix>3d</fix>
</trkpt>
<trkpt lat="40.07312" lon="-105.2305169">
  <ele>1597.94</ele>
  <time>2026-08-27T18:26:01Z</time>
  <course>18.22</course>
  <speed>9.46</speed>
  <fix>3d</fix>
</trkpt>
<trkpt lat="40.0731515" lon="-105.2305034">
  <ele>1598.32</ele>
  <time>2026-08-27T18:26:01Z</time>
  <course>14.23</course>
  <speed>9.528006087319634</speed>
  <fix>3d</fix>
</trkpt>
<trkpt lat="40.0731362" lon="-105.2305098">
  <ele>1598.07</ele>
  <time>2026-08-27T18:26:01Z</time>
  <course>18.3</course>
  <speed>9.52</speed>
  <fix>3d</fix>
</trkpt>
<trkpt lat="40.0731678" lon="-105.2304963">
  <ele>1598.45</ele>
  <time>2026-08-27T18:26:01Z</time>
  <course>14.73</course>
  <speed>9.531138441970088</speed>
  <fix>3d</fix>
</trkpt>
<trkpt lat="40.0731525" lon="-105.2305028">
  <ele>1598.21</ele>
  <time>2026-08-27T18:26:01Z</time>
  <course>18.38</course>
  <speed>9.55</speed>
  <fix>3d</fix>
</trkpt>
<trkpt lat="40.0731841" lon="-105.2304892">
  <ele>1598.58</ele>
  <time>2026-08-27T18:26:01Z</time>
  <course>15.12</course>
  <speed>9.524788711567307</speed>
  <fix>3d</fix>
</trkpt>
<trkpt lat="40.0731688" lon="-105.2304957">
  <ele>1598.34</ele>
  <time>2026-08-27T18:26:01Z</time>
  <course>18.44</course>
  <speed>9.55</speed>
  <fix>3d</fix>
</trkpt>
<trkpt lat="40.0732004" lon="-105.2304821">
  <ele>1598.7</ele>
  <time>2026-08-27T18:26:01Z</time>
  <course>15.35</course>
  <speed>9.515298208674281</speed>
  <fix>3d</fix>
</trkpt>
<trkpt lat="40.0731851" lon="-105.2304886">
  <ele>1598.47</ele>
  <time>2026-08-27T18:26:01Z</time>
  <course>18.49</course>
  <speed>9.54</speed>
  <fix>3d</fix>
</trkpt>
<trkpt lat="40.0732168" lon="-105.2304749">
  <ele>1598.82</ele>
  <time>2026-08-27T18:26:01Z</time>
  <course>15.41</course>
  <speed>9.527943114859575</speed>
  <fix>3d</fix>
</trkpt>
<trkpt lat="40.0732012" lon="-105.2304815">
  <ele>1598.6</ele>
  <time>2026-08-27T18:26:01Z</time>
  <course>18.53</course>
  <speed>9.53</speed>
  <fix>3d</fix>
</trkpt>
<trkpt lat="40.073233" lon="-105.2304678">
  <ele>1598.93</ele>
  <time>2026-08-27T18:26:01Z</time>
  <course>15.32</course>
  <speed>9.556411460375699</speed>
  <fix>3d</fix>
</trkpt>
<trkpt lat="40.0732175" lon="-105.2304744">
  <ele>1598.71</ele>
  <time>2026-08-27T18:26:01Z</time>
  <course>18.53</course>
  <speed>9.53</speed>
  <fix>3d</fix>
</trkpt>
<trkpt lat="40.0732493" lon="-105.2304607">
  <ele>1599.03</ele>
  <time>2026-08-27T18:26:01Z</time>
  <course>15.13</course>
  <speed>9.591251221816682</speed>
  <fix>3d</fix>
</trkpt>
<trkpt lat="40.0732338" lon="-105.2304673">
  <ele>1598.82</ele>
  <time>2026-08-27T18:26:01Z</time>
  <course>18.48</course>
  <speed>9.55</speed>
  <fix>3d</fix>
</trkpt>
<trkpt lat="40.0732657" lon="-105.2304537">
  <ele>1599.14</ele>
  <time>2026-08-27T18:26:01Z</time>
  <course>14.87</course>
  <speed>9.64515422375402</speed>
  <fix>3d</fix>
</trkpt>
<trkpt lat="40.0732502" lon="-105.2304602">
  <ele>1598.93</ele>
  <time>2026-08-27T18:26:01Z</time>
  <course>18.37</course>
  <speed>9.59</speed>
  <fix>3d</fix>
</trkpt>
<trkpt lat="40.0732821" lon="-105.2304466">
  <ele>1599.26</ele>
  <time>2026-08-27T18:26:01Z</time>
  <course>14.56</course>
  <speed>9.6960713693743</speed>
  <fix>3d</fix>
</trkpt>
<trkpt lat="40.0732665" lon="-105.2304531">
  <ele>1599.04</ele>
  <time>2026-08-27T18:26:01Z</time>
  <course>18.21</course>
  <speed>9.64</speed>
  <fix>3d</fix>
</trkpt>
<trkpt lat="40.0732987" lon="-105.2304396">
  <ele>1599.39</ele>
  <time>2026-08-27T18:26:01Z</time>
  <course>14.33</course>
  <speed>9.747132911784881</speed>
  <fix>3d</fix>
</trkpt>
<trkpt lat="40.0732831" lon="-105.230446">
  <ele>1599.15</ele>
  <time>2026-08-27T18:26:01Z</time>
  <course>18.0</course>
  <speed>9.69</speed>
  <fix>3d</fix>
</trkpt>
<trkpt lat="40.0733154" lon="-105.2304327">
  <ele>1599.51</ele>
  <time>2026-08-27T18:26:01Z</time>
  <course>14.12</course>
  <speed>9.807879485393364</speed>
  <fix>3d</fix>
</trkpt>
<trkpt lat="40.0732997" lon="-105.230439">
  <ele>1599.27</ele>
  <time>2026-08-27T18:26:01Z</time>
  <course>17.77</course>
  <speed>9.75</speed>
  <fix>3d</fix>
</trkpt>
<trkpt lat="40.0733321" lon="-105.2304258">
  <ele>1599.63</ele>
  <time>2026-08-27T18:26:01Z</time>
  <course>13.91</course>
  <speed>9.862190426066615</speed>
  <fix>3d</fix>
</trkpt>
<trkpt lat="40.0733165" lon="-105.2304321">
  <ele>1599.38</ele>
  <time>2026-08-27T18:26:01Z</time>
  <course>17.54</course>
  <speed>9.8</speed>
  <fix>3d</fix>
</trkpt>
<trkpt lat="40.073349" lon="-105.230419">
  <ele>1599.76</ele>
  <time>2026-08-27T18:26:01Z</time>
  <course>13.74</course>
  <speed>9.913647159345546</speed>
  <fix>3d</fix>
</trkpt>
<trkpt lat="40.0733333" lon="-105.2304251">
  <ele>1599.51</ele>
  <time>2026-08-27T18:26:01Z</time>
  <course>17.33</course>
  <speed>9.85</speed>
  <fix>3d</fix>
</trkpt>
<trkpt lat="40.0733661" lon="-105.2304121">
  <ele>1599.89</ele>
  <time>2026-08-27T18:26:01Z</time>
  <course>13.64</course>
  <speed>9.958564153531372</speed>
  <fix>3d</fix>
</trkpt>
<trkpt lat="40.0733503" lon="-105.2304183">
  <ele>1599.63</ele>
  <time>2026-08-27T18:26:01Z</time>
  <course>17.13</course>
  <speed>9.9</speed>
  <fix>3d</fix>
</trkpt>
<trkpt lat="40.0733833" lon="-105.2304053">
  <ele>1600.01</ele>
  <time>2026-08-27T18:26:01Z</time>
  <course>13.56</course>
  <speed>9.993963177838909</speed>
  <fix>3d</fix>
</trkpt>
<trkpt lat="40.0733673" lon="-105.2304115">
  <ele>1599.76</ele>
  <time>2026-08-27T18:26:01Z</time>
  <course>16.97</course>
  <speed>9.95</speed>
  <fix>3d</fix>
</trkpt>
<trkpt lat="40.0734005" lon="-105.2303985">
  <ele>1600.14</ele>
  <time>2026-08-27T18:26:01Z</time>
  <course>13.53</course>
  <speed>10.02940676211709</speed>
  <fix>3d</fix>
</trkpt>
<trkpt lat="40.0733844" lon="-105.2304046">
  <ele>1599.88</ele>
  <time>2026-08-27T18:26:01Z</time>
  <course>16.84</course>
  <speed>9.99</speed>
  <fix>3d</fix>
</trkpt>
<trkpt lat="40.0734178" lon="-105.2303917">
  <ele>1600.27</ele>
  <time>2026-08-27T18:26:01Z</time>
  <course>13.58</course>
  <speed>10.058155894596185</speed>
  <fix>3d</fix>
</trkpt>
<trkpt lat="40.0734016" lon="-105.2303978">
  <ele>1600.01</ele>
  <time>2026-08-27T18:26:01Z</time>
  <course>16.74</course>
  <speed>10.02</speed>
  <fix>3d</fix>
</trkpt>
<trkpt lat="40.0734352" lon="-105.2303849">
  <ele>1600.4</ele>
  <time>2026-08-27T18:26:01Z</time>
  <course>13.65</course>
  <speed>10.077326034221578</speed>
  <fix>3d</fix>
</trkpt>
<trkpt lat="40.0734189" lon="-105.230391">
  <ele>1600.14</ele>
  <time>2026-08-27T18:26:01Z</time>
  <course>16.67</course>
  <speed>10.05</speed>
  <fix>3d</fix>
</trkpt>
<trkpt lat="40.0734525" lon="-105.2303781">
  <ele>1600.53</ele>
  <time>2026-08-27T18:26:01Z</time>
  <course>13.77</course>
  <speed>10.089762137929714</speed>
  <fix>3d</fix>
</trkpt>
<trkpt lat="40.0734363" lon="-105.2303843">
  <ele>1600.27</ele>
  <time>2026-08-27T18:26:01Z</time>
  <course>16.64</course>
  <speed>10.06</speed>
  <fix>3d</fix>
</trkpt>
<trkpt lat="40.0734699" lon="-105.2303713">
  <ele>1600.66</ele>
  <time>2026-08-27T18:26:02Z</time>
  <course>13.94</course>
  <speed>10.092621066898332</speed>
  <fix>3d</fix>
</trkpt>
<trkpt lat="40.0734536" lon="-105.2303775">
  <ele>1600.4</ele>
  <time>2026-08-27T18:26:02Z</time>
  <course>16.65</course>
  <speed>10.07</speed>
  <fix>3d</fix>
</trkpt>
<trkpt lat="40.0734872" lon="-105.2303644">
  <ele>1600.79</ele>
  <time>2026-08-27T18:26:02Z</time>
  <course>14.11</course>
  <speed>10.085910965302043</speed>
  <fix>3d</fix>
</trkpt>
<trkpt lat="40.0734709" lon="-105.2303707">
  <ele>1600.53</ele>
  <time>2026-08-27T18:26:02Z</time>
  <course>16.69</course>
  <speed>10.07</speed>
  <fix>3d</fix>
</trkpt>
<trkpt lat="40.0735046" lon="-105.2303576">
  <ele>1600.92</ele>
  <time>2026-08-27T18:26:02Z</time>
  <course>14.27</course>
  <speed>10.079216239370997</speed>
  <fix>3d</fix>
</trkpt>
<trkpt lat="40.0734882" lon="-105.2303639">
  <ele>1600.66</ele>
  <time>2026-08-27T18:26:02Z</time>
  <course>16.75</course>
  <speed>10.07</speed>
  <fix>3d</fix>
</trkpt>
<trkpt lat="40.0735218" lon="-105.2303508">
  <ele>1601.05</ele>
  <time>2026-08-27T18:26:02Z</time>
  <course>14.48</course>
  <speed>10.07253691976356</speed>
  <fix>3d</fix>
</trkpt>
<trkpt lat="40.0735056" lon="-105.230357">
  <ele>1600.79</ele>
  <time>2026-08-27T18:26:02Z</time>
  <course>16.83</course>
  <speed>10.06</speed>
  <fix>3d</fix>
</trkpt>
<trkpt lat="40.0735391" lon="-105.2303438">
  <ele>1601.17</ele>
  <time>2026-08-27T18:26:02Z</time>
  <course>14.65</course>
  <speed>10.059224622206226</speed>
  <fix>3d</fix>
</trkpt>
<trkpt lat="40.0735229" lon="-105.2303502">
  <ele>1600.92</ele>
  <time>2026-08-27T18:26:02Z</time>
  <course>16.93</course>
  <speed>10.05</speed>
  <fix>3d</fix>
</trkpt>
<trkpt lat="40.0735565" lon="-105.2303369">
  <ele>1601.29</ele>
  <time>2026-08-27T18:26:02Z</time>
  <course>14.8</course>
  <speed>10.043032410581976</speed>
  <fix>3d</fix>
</trkpt>
<trkpt lat="40.0735401" lon="-105.2303433">
  <ele>1601.05</ele>
  <time>2026-08-27T18:26:02Z</time>
  <course>17.03</course>
  <speed>10.03</speed>
  <fix>3d</fix>
</trkpt>
<trkpt lat="40.0735737" lon="-105.2303299">
  <ele>1601.41</ele>
  <time>2026-08-27T18:26:02Z</time>
  <course>14.96</course>
  <speed>10.036418683972883</speed>
  <fix>3d</fix>
</trkpt>
<trkpt lat="40.0735574" lon="-105.2303364">
  <ele>1601.17</ele>
  <time>2026-08-27T18:26:02Z</time>
  <course>17.13</course>
  <speed>10.02</speed>
  <fix>3d</fix>
</trkpt>
<trkpt lat="40.0735909" lon="-105.2303229">
  <ele>1601.54</ele>
  <time>2026-08-27T18:26:02Z</time>
  <course>15.11</course>
  <speed>10.020269457454724</speed>
  <fix>3d</fix>
</trkpt>
<trkpt lat="40.0735746" lon="-105.2303295">
  <ele>1601.3</ele>
  <time>2026-08-27T18:26:02Z</time>
  <course>17.22</course>
  <speed>10.0</speed>
  <fix>3d</fix>
</trkpt>
<trkpt lat="40.0736081" lon="-105.2303159">
  <ele>1601.67</ele>
  <time>2026-08-27T18:26:02Z</time>
  <course>15.25</course>
  <speed>10.004144141304643</speed>
  <fix>3d</fix>
</trkpt>
<trkpt lat="40.0735917" lon="-105.2303225">
  <ele>1601.42</ele>
  <time>2026-08-27T18:26:02Z</time>
  <course>17.3</course>
  <speed>9.98</speed>
  <fix>3d</fix>
</trkpt>
<trkpt lat="40.0736252" lon="-105.2303089">
  <ele>1601.8</ele>
  <time>2026-08-27T18:26:02Z</time>
  <course>15.36</course>
  <speed>9.985053830601014</speed>
  <fix>3d</fix>
</trkpt>
<trkpt lat="40.0736088" lon="-105.2303155">
  <ele>1601.55</ele>
  <time>2026-08-27T18:26:02Z</time>
  <course>17.38</course>
  <speed>9.96</speed>
  <fix>3d</fix>
</trkpt>
<trkpt lat="40.0736423" lon="-105.2303019">
  <ele>1601.93</ele>
  <time>2026-08-27T18:26:02Z</time>
  <course>15.47</course>
  <speed>9.965967088045193</speed>
  <fix>3d</fix>
</trkpt>
<trkpt lat="40.0736259" lon="-105.2303086">
  <ele>1601.68</ele>
  <time>2026-08-27T18:26:02Z</time>
  <course>17.44</course>
  <speed>9.95</speed>
  <fix>3d</fix>
</trkpt>
<trkpt lat="40.0736593" lon="-105.2302949">
  <ele>1602.06</ele>
  <time>2026-08-27T18:26:02Z</time>
  <course>15.54</course>
  <speed>9.95942267403086</speed>
  <fix>3d</fix>
</trkpt>
<trkpt lat="40.0736429" lon="-105.2303015">
  <ele>1601.81</ele>
  <time>2026-08-27T18:26:02Z</time>
  <course>17.49</course>
  <speed>9.93</speed>
  <fix>3d</fix>
</trkpt>
<trkpt lat="40.0736763" lon="-105.2302879">
  <ele>1602.19</ele>
  <time>2026-08-27T18:26:02Z</time>
  <course>15.6</course>
  <speed>9.937343709462805</speed>
  <fix>3d</fix>
</trkpt>
<trkpt lat="40.0736599" lon="-105.2302944">
  <ele>1601.94</ele>
  <time>2026-08-27T18:26:02Z</time>
  <course>17.53</course>
  <speed>9.92</speed>
  <fix>3d</fix>
</trkpt>
<trkpt lat="40.0736932" lon="-105.2302809">
  <ele>1602.31</ele>
  <time>2026-08-27T18:26:02Z</time>
  <course>15.65</course>
  <speed>9.927804389692618</speed>
  <fix>3d</fix>
</trkpt>
<trkpt lat="40.0736769" lon="-105.2302875">
  <ele>1602.07</ele>
  <time>2026-08-27T18:26:02Z</time>
  <course>17.55</course>
  <speed>9.9</speed>
  <fix>3d</fix>
</trkpt>
<trkpt lat="40.0737102" lon="-105.2302738">
  <ele>1602.44</ele>
  <time>2026-08-27T18:26:02Z</time>
  <course>15.67</course>
  <speed>9.927804389692618</speed>
  <fix>3d</fix>
</trkpt>
<trkpt lat="40.0736938" lon="-105.2302804">
  <ele>1602.19</ele>
  <time>2026-08-27T18:26:02Z</time>
  <course>17.57</course>
  <speed>9.89</speed>
  <fix>3d</fix>
</trkpt>
<trkpt lat="40.0737272" lon="-105.2302668">
  <ele>1602.56</ele>
  <time>2026-08-27T18:26:02Z</time>
  <course>15.63</course>
  <speed>9.91826597747812</speed>
  <fix>3d</fix>
</trkpt>
<trkpt lat="40.0737108" lon="-105.2302735">
  <ele>1602.32</ele>
  <time>2026-08-27T18:26:02Z</time>
  <course>17.57</course>
  <speed>9.89</speed>
  <fix>3d</fix>
</trkpt>
<trkpt lat="40.0737442" lon="-105.2302598">
  <ele>1602.69</ele>
  <time>2026-08-27T18:26:02Z</time>
  <course>15.62</course>
  <speed>9.924807302915255</speed>
  <fix>3d</fix>
</trkpt>
<trkpt lat="40.0737277" lon="-105.2302665">
  <ele>1602.44</ele>
  <time>2026-08-27T18:26:02Z</time>
  <course>17.55</course>
  <speed>9.89</speed>
  <fix>3d</fix>
</trkpt>
<trkpt lat="40.0737612" lon="-105.2302528">
  <ele>1602.82</ele>
  <time>2026-08-27T18:26:02Z</time>
  <course>15.59</course>
  <speed>9.924807302915255</speed>
  <fix>3d</fix>
</trkpt>
<trkpt lat="40.0737447" lon="-105.2302594">
  <ele>1602.57</ele>
  <time>2026-08-27T18:26:02Z</time>
  <course>17.52</course>
  <speed>9.89</speed>
  <fix>3d</fix>
</trkpt>
<trkpt lat="40.0737782" lon="-105.2302458">
  <ele>1602.94</ele>
  <time>2026-08-27T18:26:02Z</time>
  <course>15.55</course>
  <speed>9.931364458119539</speed>
  <fix>3d</fix>
</trkpt>
<trkpt lat="40.0737617" lon="-105.2302525">
  <ele>1602.69</ele>
  <time>2026-08-27T18:26:02Z</time>
  <course>17.49</course>
  <speed>9.89</speed>
  <fix>3d</fix>
</trkpt>
<trkpt lat="40.0737951" lon="-105.2302389">
  <ele>1603.07</ele>
  <time>2026-08-27T18:26:02Z</time>
  <course>15.5</course>
  <speed>9.93793741175703</speed>
  <fix>3d</fix>
</trkpt>
<trkpt lat="40.0737787" lon="-105.2302455">
  <ele>1602.82</ele>
  <time>2026-08-27T18:26:02Z</time>
  <course>17.45</course>
  <speed>9.9</speed>
  <fix>3d</fix>
</trkpt>
<trkpt lat="40.0738121" lon="-105.230232">
  <ele>1603.19</ele>
  <time>2026-08-27T18:26:02Z</time>
  <course>15.45</course>
  <speed>9.93793741175703</speed>
  <fix>3d</fix>
</trkpt>
<trkpt lat="40.0737957" lon="-105.2302385">
  <ele>1602.94</ele>
  <time>2026-08-27T18:26:02Z</time>
  <course>17.4</course>
  <speed>9.9</speed>
  <fix>3d</fix>
</trkpt>
<trkpt lat="40.073829" lon="-105.230225">
  <ele>1603.33</ele>
  <time>2026-08-27T18:26:02Z</time>
  <course>15.4</course>
  <speed>9.95407956568562</speed>
  <fix>3d</fix>
</trkpt>
<trkpt lat="40.0738127" lon="-105.2302316">
  <ele>1603.07</ele>
  <time>2026-08-27T18:26:02Z</time>
  <course>17.35</course>
  <speed>9.91</speed>
  <fix>3d</fix>
</trkpt>
<trkpt lat="40.073846" lon="-105.2302181">
  <ele>1603.45</ele>
  <time>2026-08-27T18:26:02Z</time>
  <course>15.37</course>
  <speed>9.963633875248528</speed>
  <fix>3d</fix>
</trkpt>
<trkpt lat="40.0738297" lon="-105.2302246">
  <ele>1603.2</ele>
  <time>2026-08-27T18:26:02Z</time>
  <course>17.3</course>
  <speed>9.92</speed>
  <fix>3d</fix>
</trkpt>
<trkpt lat="40.0738631" lon="-105.2302112">
  <ele>1603.58</ele>
  <time>2026-08-27T18:26:02Z</time>
  <course>15.32</course>
  <speed>9.973189058671252</speed>
  <fix>3d</fix>
</trkpt>
<trkpt lat="40.0738467" lon="-105.2302177">
  <ele>1603.32</ele>
  <time>2026-08-27T18:26:02Z</time>
  <course>17.26</course>
  <speed>9.94</speed>
  <fix>3d</fix>
</trkpt>
<trkpt lat="40.0738801" lon="-105.2302043">
  <ele>1603.71</ele>
  <time>2026-08-27T18:26:02Z</time>
  <course>15.3</course>
  <speed>9.992302037068335</speed>
  <fix>3d</fix>
</trkpt>
<trkpt lat="40.0738637" lon="-105.2302108">
  <ele>1603.45</ele>
  <time>2026-08-27T18:26:02Z</time>
  <course>17.23</course>
  <speed>9.95</speed>
  <fix>3d</fix>
</trkpt>
<trkpt lat="40.0738971" lon="-105.2301974">
  <ele>1603.84</ele>
  <time>2026-08-27T18:26:02Z</time>
  <course>15.27</course>
  <speed>10.001859827052167</speed>
  <fix>3d</fix>
</trkpt>
<trkpt lat="40.0738808" lon="-105.2302038">
  <ele>1603.58</ele>
  <time>2026-08-27T18:26:02Z</time>
  <course>17.2</course>
  <speed>9.97</speed>
  <fix>3d</fix>
</trkpt>
<trkpt lat="40.0739144" lon="-105.2301905">
  <ele>1603.97</ele>
  <time>2026-08-27T18:26:02Z</time>
  <course>15.27</course>
  <speed>10.020977996183806</speed>
  <fix>3d</fix>
</trkpt>
<trkpt lat="40.073898" lon="-105.2301969">
  <ele>1603.7</ele>
  <time>2026-08-27T18:26:02Z</time>
  <course>17.18</course>
  <speed>9.99</speed>
  <fix>3d</fix>
</trkpt>
<trkpt lat="40.0739316" lon="-105.2301835">
  <ele>1604.1</ele>
  <time>2026-08-27T18:26:02Z</time>
  <course>15.32</course>
  <speed>10.030538370396675</speed>
  <fix>3d</fix>
</trkpt>
<trkpt lat="40.0739151" lon="-105.2301899">
  <ele>1603.83</ele>
  <time>2026-08-27T18:26:02Z</time>
  <course>17.16</course>
  <speed>10.0</speed>
  <fix>3d</fix>
</trkpt>
<trkpt lat="40.0739488" lon="-105.2301766">
  <ele>1604.23</ele>
  <time>2026-08-27T18:26:02Z</time>
  <course>15.33</course>
  <speed>10.030538370396675</speed>
  <fix>3d</fix>
</trkpt>
<trkpt lat="40.0739323" lon="-105.230183">
  <ele>1603.96</ele>
  <time>2026-08-27T18:26:02Z</time>
  <course>17.15</course>
  <speed>10.01</speed>
  <fix>3d</fix>
</trkpt>
<trkpt lat="40.073966" lon="-105.2301696">
  <ele>1604.36</ele>
  <time>2026-08-27T18:26:02Z</time>
  <course>15.49</course>
  <speed>10.008486399051556</speed>
  <fix>3d</fix>
</trkpt>
<trkpt lat="40.0739496" lon="-105.2301761">
  <ele>1604.09</ele>
  <time>2026-08-27T18:26:02Z</time>
  <course>17.15</course>
  <speed>10.01</speed>
  <fix>3d</fix>
</trkpt>
<trkpt lat="40.0739831" lon="-105.2301627">
  <ele>1604.5</ele>
  <time>2026-08-27T18:26:02Z</time>
  <course>15.83</course>
  <speed>9.926137214445506</speed>
  <fix>3d</fix>
</trkpt>
<trkpt lat="40.0739667" lon="-105.2301691">
  <ele>1604.23</ele>
  <time>2026-08-27T18:26:02Z</time>
  <course>17.14</course>
  <speed>9.99</speed>
  <fix>3d</fix>
</trkpt>
<trkpt lat="40.074" lon="-105.2301559">
  <ele>1604.65</ele>
  <time>2026-08-27T18:26:02Z</time>
  <course>16.35</course>
  <speed>9.790122573287835</speed>
  <fix>3d</fix>
</trkpt>
<trkpt lat="40.0739839" lon="-105.2301622">
  <ele>1604.37</ele>
  <time>2026-08-27T18:26:02Z</time>
  <course>17.13</course>
  <speed>9.91</speed>
  <fix>3d</fix>
</trkpt>
<trkpt lat="40.0740167" lon="-105.2301492">
  <ele>1604.8</ele>
  <time>2026-08-27T18:26:02Z</time>
  <course>16.99</course>
  <speed>9.584257926412455</speed>
  <fix>3d</fix>
</trkpt>
<trkpt lat="40.0740008" lon="-105.2301555">
  <ele>1604.52</ele>
  <time>2026-08-27T18:26:02Z</time>
  <course>17.15</course>
  <speed>9.78</speed>
  <fix>3d</fix>
</trkpt>
<trkpt lat="40.0740329" lon="-105.2301426">
  <ele>1604.95</ele>
  <time>2026-08-27T18:26:02Z</time>
  <course>17.67</course>
  <speed>9.340198070704924</speed>
  <fix>3d</fix>
</trkpt>
<trkpt lat="40.0740174" lon="-105.2301487">
  <ele>1604.67</ele>
  <time>2026-08-27T18:26:02Z</time>
  <course>17.2</course>
  <speed>9.58</speed>
  <fix>3d</fix>
</trkpt>
<trkpt lat="40.0740486" lon="-105.2301362">
  <ele>1605.1</ele>
  <time>2026-08-27T18:26:02Z</time>
  <course>18.35</course>
  <speed>9.042505183852537</speed>
  <fix>3d</fix>
</trkpt>
<trkpt lat="40.0740336" lon="-105.2301421">
  <ele>1604.82</ele>
  <time>2026-08-27T18:26:02Z</time>
  <course>17.3</course>
  <speed>9.34</speed>
  <fix>3d</fix>
</trkpt>
<trkpt lat="40.0740638" lon="-105.2301299">
  <ele>1605.23</ele>
  <time>2026-08-27T18:26:02Z</time>
  <course>18.99</course>
  <speed>8.706715798738351</speed>
  <fix>3d</fix>
</trkpt>
<trkpt lat="40.0740494" lon="-105.2301357">
  <ele>1604.97</ele>
  <time>2026-08-27T18:26:02Z</time>
  <course>17.44</course>
  <speed>9.04</speed>
  <fix>3d</fix>
</trkpt>
<trkpt lat="40.0740784" lon="-105.2301238">
  <ele>1605.36</ele>
  <time>2026-08-27T18:26:02Z</time>
  <course>19.58</course>
  <speed>8.317331302767734</speed>
  <fix>3d</fix>
</trkpt>
<trkpt lat="40.0740646" lon="-105.2301294">
  <ele>1605.1</ele>
  <time>2026-08-27T18:26:02Z</time>
  <course>17.6</course>
  <speed>8.71</speed>
  <fix>3d</fix>
</trkpt>
<trkpt lat="40.0740924" lon="-105.2301179">
  <ele>1605.46</ele>
  <time>2026-08-27T18:26:02Z</time>
  <course>20.1</course>
  <speed>7.89335163286167</speed>
  <fix>3d</fix>
</trkpt>
<trkpt lat="40.0740792" lon="-105.2301234">
  <ele>1605.23</ele>
  <time>2026-08-27T18:26:02Z</time>
  <course>17.76</course>
  <speed>8.32</speed>
  <fix>3d</fix>
</trkpt>
<trkpt lat="40.0741055" lon="-105.2301123">
  <ele>1605.56</ele>
  <time>2026-08-27T18:26:02Z</time>
  <course>20.54</course>
  <speed>7.415692819959576</speed>
  <fix>3d</fix>
</trkpt>
<trkpt lat="40.0740931" lon="-105.2301175">
  <ele>1605.34</ele>
  <time>2026-08-27T18:26:02Z</time>
  <course>17.91</course>
  <speed>7.89</speed>
  <fix>3d</fix>
</trkpt>
<trkpt lat="40.0741177" lon="-105.230107">
  <ele>1605.64</ele>
  <time>2026-08-27T18:26:02Z</time>
  <course>20.9</course>
  <speed>6.90646074339093</speed>
  <fix>3d</fix>
</trkpt>
<trkpt lat="40.0741062" lon="-105.2301119">
  <ele>1605.43</ele>
  <time>2026-08-27T18:26:02Z</time>
  <course>18.03</course>
  <speed>7.42</speed>
  <fix>3d</fix>
</trkpt>
<trkpt lat="40.0741291" lon="-105.2301022">
  <ele>1605.71</ele>
  <time>2026-08-27T18:26:02Z</time>
  <course>21.18</course>
  <speed>6.349881888665331</speed>
  <fix>3d</fix>
</trkpt>
<trkpt lat="40.0741185" lon="-105.2301067">
  <ele>1605.52</ele>
  <time>2026-08-27T18:26:02Z</time>
  <course>18.12</course>
  <speed>6.9</speed>
  <fix>3d</fix>
</trkpt>
<trkpt lat="40.0741394" lon="-105.2300977">
  <ele>1605.77</ele>
  <time>2026-08-27T18:26:02Z</time>
  <course>21.32</course>
  <speed>5.774322471078317</speed>
  <fix>3d</fix>
</trkpt>
<trkpt lat="40.0741297" lon="-105.2301018">
  <ele>1605.59</ele>
  <time>2026-08-27T18:26:02Z</time>
  <course>18.17</course>
  <speed>6.35</speed>
  <fix>3d</fix>
</trkpt>
<trkpt lat="40.0741488" lon="-105.2300936">
  <ele>1605.81</ele>
  <time>2026-08-27T18:26:02Z</time>
  <course>21.32</course>
  <speed>5.205112871014422</speed>
  <fix>3d</fix>
</trkpt>
<trkpt lat="40.0741401" lon="-105.2300974">
  <ele>1605.65</ele>
  <time>2026-08-27T18:26:02Z</time>
  <course>18.19</course>
  <speed>5.77</speed>
  <fix>3d</fix>
</trkpt>
<trkpt lat="40.0741572" lon="-105.23009">
  <ele>1605.85</ele>
  <time>2026-08-27T18:26:03Z</time>
  <course>21.21</course>
  <speed>4.639062405271134</speed>
  <fix>3d</fix>
</trkpt>
<trkpt lat="40.0741495" lon="-105.2300934">
  <ele>1605.7</ele>
  <time>2026-08-27T18:26:03Z</time>
  <course>18.18</course>
  <speed>5.19</speed>
  <fix>3d</fix>
</trkpt>
<trkpt lat="40.0741647" lon="-105.2300868">
  <ele>1605.87</ele>
  <time>2026-08-27T18:26:03Z</time>
  <course>20.97</course>
  <speed>4.098316727633432</speed>
  <fix>3d</fix>
</trkpt>
<trkpt lat="40.0741578" lon="-105.2300898">
  <ele>1605.73</ele>
  <time>2026-08-27T18:26:03Z</time>
  <course>18.13</course>
  <speed>4.62</speed>
  <fix>3d</fix>
</trkpt>
<trkpt lat="40.0741712" lon="-105.230084">
  <ele>1605.89</ele>
  <time>2026-08-27T18:26:03Z</time>
  <course>20.62</course>
  <speed>3.5575975039343617</speed>
  <fix>3d</fix>
</trkpt>
<trkpt lat="40.0741653" lon="-105.2300866">
  <ele>1605.76</ele>
  <time>2026-08-27T18:26:03Z</time>
  <course>18.01</course>
  <speed>4.07</speed>
  <fix>3d</fix>
</trkpt>
<trkpt lat="40.0741769" lon="-105.2300817">
  <ele>1605.91</ele>
  <time>2026-08-27T18:26:03Z</time>
  <course>20.14</course>
  <speed>3.0359512512555273</speed>
  <fix>3d</fix>
</trkpt>
<trkpt lat="40.0741718" lon="-105.2300839">
  <ele>1605.78</ele>
  <time>2026-08-27T18:26:03Z</time>
  <course>17.76</course>
  <speed>3.52</speed>
  <fix>3d</fix>
</trkpt>
<trkpt lat="40.0741817" lon="-105.2300797">
  <ele>1605.92</ele>
  <time>2026-08-27T18:26:03Z</time>
  <course>19.46</course>
  <speed>2.5210513679812236</speed>
  <fix>3d</fix>
</trkpt>
<trkpt lat="40.0741773" lon="-105.2300816">
  <ele>1605.79</ele>
  <time>2026-08-27T18:26:03Z</time>
  <course>17.35</course>
  <speed>3.0</speed>
  <fix>3d</fix>
</trkpt>
<trkpt lat="40.0741857" lon="-105.2300782">
  <ele>1605.93</ele>
  <time>2026-08-27T18:26:03Z</time>
  <course>18.58</course>
  <speed>2.0316003544004415</speed>
  <fix>3d</fix>
</trkpt>
<trkpt lat="40.0741821" lon="-105.2300797">
  <ele>1605.8</ele>
  <time>2026-08-27T18:26:03Z</time>
  <course>16.7</course>
  <speed>2.48</speed>
  <fix>3d</fix>
</trkpt>
<trkpt lat="40.0741888" lon="-105.2300771">
  <ele>1605.95</ele>
  <time>2026-08-27T18:26:03Z</time>
  <course>17.36</course>
  <speed>1.5839823231336896</speed>
  <fix>3d</fix>
</trkpt>
<trkpt lat="40.0741859" lon="-105.2300782">
  <ele>1605.81</ele>
  <time>2026-08-27T18:26:03Z</time>
  <course>15.75</course>
  <speed>1.99</speed>
  <fix>3d</fix>
</trkpt>
<trkpt lat="40.0741912" lon="-105.2300763">
  <ele>1605.97</ele>
  <time>2026-08-27T18:26:03Z</time>
  <course>15.83</course>
  <speed>1.1933147112141038</speed>
  <fix>3d</fix>
</trkpt>
<trkpt lat="40.074189" lon="-105.2300771">
  <ele>1605.83</ele>
  <time>2026-08-27T18:26:03Z</time>
  <course>14.47</course>
  <speed>1.53</speed>
  <fix>3d</fix>
</trkpt>
<trkpt lat="40.074193" lon="-105.2300759">
  <ele>1605.98</ele>
  <time>2026-08-27T18:26:03Z</time>
  <course>13.95</course>
  <speed>0.8570297544426332</speed>
  <fix>3d</fix>
</trkpt>
<trkpt lat="40.0741913" lon="-105.2300764">
  <ele>1605.84</ele>
  <time>2026-08-27T18:26:03Z</time>
  <course>12.78</course>
  <speed>1.13</speed>
  <fix>3d</fix>
</trkpt>
<trkpt lat="40.0741942" lon="-105.2300756">
  <ele>1605.99</ele>
  <time>2026-08-27T18:26:03Z</time>
  <course>13.64</course>
  <speed>0.594138031100518</speed>
  <fix>3d</fix>
</trkpt>
<trkpt lat="40.0741929" lon="-105.2300759">
  <ele>1605.84</ele>
  <time>2026-08-27T18:26:03Z</time>
  <course>10.06</course>
  <speed>0.8</speed>
  <fix>3d</fix>
</trkpt>
<trkpt lat="40.074195" lon="-105.2300756">
  <ele>1606.0</ele>
  <time>2026-08-27T18:26:03Z</time>
  <course>13.64</course>
  <speed>0.38013155617496425</speed>
  <fix>3d</fix>
</trkpt>
<trkpt lat="40.0741941" lon="-105.2300757">
  <ele>1605.85</ele>
  <time>2026-08-27T18:26:03Z</time>
  <course>5.46</course>
  <speed>0.52</speed>
  <fix>3d</fix>
</trkpt>
<trkpt lat="40.0741955" lon="-105.2300756">
  <ele>1606.01</ele>
  <time>2026-08-27T18:26:03Z</time>
  <course>13.58</course>
  <speed>0.2220360331117452</speed>
  <fix>3d</fix>
</trkpt>
<trkpt lat="40.0741949" lon="-105.2300757">
  <ele>1605.86</ele>
  <time>2026-08-27T18:26:03Z</time>
  <course>357.35</course>
  <speed>0.31</speed>
  <fix>3d</fix>
</trkpt>
<trkpt lat="40.0741957" lon="-105.2300757">
  <ele>1606.01</ele>
  <time>2026-08-27T18:26:03Z</time>
  <course>13.54</course>
  <speed>0.130384048104053</speed>
  <fix>3d</fix>
</trkpt>
<trkpt lat="40.0741953" lon="-105.2300757">
  <ele>1605.87</ele>
  <time>2026-08-27T18:26:03Z</time>
  <course>338.18</course>
  <speed>0.15</speed>
  <fix>3d</fix>
</trkpt>
<trkpt lat="40.0741957" lon="-105.230076">
  <ele>1606.02</ele>
  <time>2026-08-27T18:26:03Z</time>
  <course>13.5</course>
  <speed>0.09848857801796104</speed>
  <fix>3d</fix>
</trkpt>
<trkpt lat="40.0741954" lon="-105.2300759">
  <ele>1605.88</ele>
  <time>2026-08-27T18:26:03Z</time>
  <course>289.46</course>
  <speed>0.09</speed>
  <fix>3d</fix>
</trkpt>
<trkpt lat="40.0741957" lon="-105.2300762">
  <ele>1606.02</ele>
  <time>2026-08-27T18:26:03Z</time>
  <course>13.46</course>
  <speed>0.09</speed>
  <fix>3d</fix>
</trkpt>
<trkpt lat="40.0741954" lon="-105.230076">
  <ele>1605.89</ele>
  <time>2026-08-27T18:26:03Z</time>
  <course>246.95</course>
  <speed>0.1</speed>
  <fix>3d</fix>
</trkpt>
<trkpt lat="40.0741955" lon="-105.2300764">
  <ele>1606.03</ele>
  <time>2026-08-27T18:26:03Z</time>
  <course>13.4</course>
  <speed>0.09055385138137417</speed>
  <fix>3d</fix>
</trkpt>
<trkpt lat="40.0741953" lon="-105.2300763">
  <ele>1605.9</ele>
  <time>2026-08-27T18:26:03Z</time>
  <course>232.36</course>
  <speed>0.12</speed>
  <fix>3d</fix>
</trkpt>
<trkpt lat="40.0741955" lon="-105.2300767">
  <ele>1606.04</ele>
  <time>2026-08-27T18:26:03Z</time>
  <course>13.37</course>
  <speed>0.08062257748298549</speed>
  <fix>3d</fix>
</trkpt>
<trkpt lat="40.0741953" lon="-105.2300765">
  <ele>1605.9</ele>
  <time>2026-08-27T18:26:03Z</time>
  <course>228.77</course>
  <speed>0.11</speed>
  <fix>3d</fix>
</trkpt>
<trkpt lat="40.0741955" lon="-105.2300768">
  <ele>1606.05</ele>
  <time>2026-08-27T18:26:03Z</time>
  <course>13.36</course>
  <speed>0.10295630140987001</speed>
  <fix>3d</fix>
</trkpt>
<trkpt lat="40.0741952" lon="-105.2300767">
  <ele>1605.91</ele>
  <time>2026-08-27T18:26:03Z</time>
  <course>234.95</course>
  <speed>0.08</speed>
  <fix>3d</fix>
</trkpt>
<trkpt lat="40.0741956" lon="-105.2300769">
  <ele>1606.05</ele>
  <time>2026-08-27T18:26:03Z</time>
  <course>13.32</course>
  <speed>0.16124515496597097</speed>
  <fix>3d</fix>
</trkpt>
<trkpt lat="40.0741952" lon="-105.2300768">
  <ele>1605.92</ele>
  <time>2026-08-27T18:26:03Z</time>
  <course>281.39</course>
  <speed>0.03</speed>
  <fix>3d</fix>
</trkpt>
<trkpt lat="40.0741958" lon="-105.2300769">
  <ele>1606.05</ele>
  <time>2026-08-27T18:26:03Z</time>
  <course>13.29</course>
  <speed>0.23</speed>
  <fix>3d</fix>
</trkpt>
<trkpt lat="40.0741952" lon="-105.2300769">
  <ele>1605.93</ele>
  <time>2026-08-27T18:26:03Z</time>
  <course>356.39</course>
  <speed>0.07</speed>
  <fix>3d</fix>
</trkpt>
<trkpt lat="40.0741961" lon="-105.2300768">
  <ele>1606.05</ele>
  <time>2026-08-27T18:26:03Z</time>
  <course>13.26</course>
  <speed>0.30066592756745814</speed>
  <fix>3d</fix>
</trkpt>
<trkpt lat="40.0741953" lon="-105.2300769">
  <ele>1605.93</ele>
  <time>2026-08-27T18:26:03Z</time>
  <course>10.52</course>
  <speed>0.15</speed>
  <fix>3d</fix>
</trkpt>
<trkpt lat="40.0741966" lon="-105.2300768">
  <ele>1606.05</ele>
  <time>2026-08-27T18:26:03Z</time>
  <course>13.28</course>
  <speed>0.3423448553724738</speed>
  <fix>3d</fix>
</trkpt>
<trkpt lat="40.0741957" lon="-105.2300768">
  <ele>1605.94</ele>
  <time>2026-08-27T18:26:03Z</time>
  <course>14.38</course>
  <speed>0.23</speed>
  <fix>3d</fix>
</trkpt>
<trkpt lat="40.0741971" lon="-105.2300767">
  <ele>1606.05</ele>
  <time>2026-08-27T18:26:03Z</time>
  <course>13.29</course>
  <speed>0.37336309405188944</speed>
  <fix>3d</fix>
</trkpt>
<trkpt lat="40.0741961" lon="-105.2300766">
  <ele>1605.94</ele>
  <time>2026-08-27T18:26:03Z</time>
  <course>15.77</course>
  <speed>0.28</speed>
  <fix>3d</fix>
</trkpt>
<trkpt lat="40.0741976" lon="-105.2300765">
  <ele>1606.05</ele>
  <time>2026-08-27T18:26:03Z</time>
  <course>13.32</course>
  <speed>0.37336309405188944</speed>
  <fix>3d</fix>
</trkpt>
<trkpt lat="40.0741967" lon="-105.2300765">
  <ele>1605.94</ele>
  <time>2026-08-27T18:26:03Z</time>
  <course>16.5</course>
  <speed>0.32</speed>
  <fix>3d</fix>
</trkpt>
<trkpt lat="40.0741982" lon="-105.2300763">
  <ele>1606.05</ele>
  <time>2026-08-27T18:26:03Z</time>
  <course>13.31</course>
  <speed>0.3649657518178932</speed>
  <fix>3d</fix>
</trkpt>
<trkpt lat="40.0741972" lon="-105.2300763">
  <ele>1605.95</ele>
  <time>2026-08-27T18:26:03Z</time>
  <course>17.22</course>
  <speed>0.33</speed>
  <fix>3d</fix>
</trkpt>
<trkpt lat="40.0741987" lon="-105.230076">
  <ele>1606.05</ele>
  <time>2026-08-27T18:26:03Z</time>
  <course>13.33</course>
  <speed>0.33541019662496846</speed>
  <fix>3d</fix>
</trkpt>
<trkpt lat="40.0741978" lon="-105.230076">
  <ele>1605.95</ele>
  <time>2026-08-27T18:26:03Z</time>
  <course>18.16</course>
  <speed>0.33</speed>
  <fix>3d</fix>
</trkpt>
<trkpt lat="40.0741992" lon="-105.2300758">
  <ele>1606.05</ele>
  <time>2026-08-27T18:26:03Z</time>
  <course>13.33</course>
  <speed>0.2942787793912432</speed>
  <fix>3d</fix>
</trkpt>
<trkpt lat="40.0741984" lon="-105.2300758">
  <ele>1605.96</ele>
  <time>2026-08-27T18:26:03Z</time>
  <course>19.45</course>
  <speed>0.31</speed>
  <fix>3d</fix>
</trkpt>
<trkpt lat="40.0741996" lon="-105.2300756">
  <ele>1606.06</ele>
  <time>2026-08-27T18:26:03Z</time>
  <course>13.32</course>
  <speed>0.25495097567963926</speed>
  <fix>3d</fix>
</trkpt>
<trkpt lat="40.0741989" lon="-105.2300755">
  <ele>1605.96</ele>
  <time>2026-08-27T18:26:03Z</time>
  <course>21.16</course>
  <speed>0.28</speed>
  <fix>3d</fix>
</trkpt>
<trkpt lat="40.0741999" lon="-105.2300754">
  <ele>1606.06</ele>
  <time>2026-08-27T18:26:03Z</time>
  <course>13.32</course>
  <speed>0.194164878389476</speed>
  <fix>3d</fix>
</trkpt>
<trkpt lat="40.0741993" lon="-105.2300753">
  <ele>1605.97</ele>
  <time>2026-08-27T18:26:03Z</time>
  <course>23.38</course>
  <speed>0.24</speed>
  <fix>3d</fix>
</trkpt>
<trkpt lat="40.0742001" lon="-105.2300752">
  <ele>1606.07</ele>
  <time>2026-08-27T18:26:03Z</time>
  <course>13.32</course>
  <speed>0.14317821063276354</speed>
  <fix>3d</fix>
</trkpt>
<trkpt lat="40.0741996" lon="-105.230075">
  <ele>1605.97</ele>
  <time>2026-08-27T18:26:03Z</time>
  <course>26.62</course>
  <speed>0.19</speed>
  <fix>3d</fix>
</trkpt>
<trkpt lat="40.0742003" lon="-105.230075">
  <ele>1606.08</ele>
  <time>2026-08-27T18:26:03Z</time>
  <course>13.32</course>
  <speed>0.0824621125123532</speed>
  <fix>3d</fix>
</trkpt>
<trkpt lat="40.0741999" lon="-105.2300749">
  <ele>1605.98</ele>
  <time>2026-08-27T18:26:03Z</time>
  <course>32.26</course>
  <speed>0.14</speed>
  <fix>3d</fix>
</trkpt>
<trkpt lat="40.0742003" lon="-105.2300749">
  <ele>1606.08</ele>
  <time>2026-08-27T18:26:03Z</time>
  <course>13.32</course>
  <speed>0.0316227766016838</speed>
  <fix>3d</fix>
</trkpt>
<trkpt lat="40.0742001" lon="-105.2300747">
  <ele>1605.98</ele>
  <time>2026-08-27T18:26:03Z</time>
  <course>43.88</course>
  <speed>0.09</speed>
  <fix>3d</fix>
</trkpt>
<trkpt lat="40.0742003" lon="-105.2300748">
  <ele>1606.08</ele>
  <time>2026-08-27T18:26:03Z</time>
  <course>13.3</course>
  <speed>0.02</speed>
  <fix>3d</fix>
</trkpt>
<trkpt lat="40.0742002" lon="-105.2300746">
  <ele>1605.98</ele>
  <time>2026-08-27T18:26:03Z</time>
  <course>74.11</course>
  <speed>0.05</speed>
  <fix>3d</fix>
</trkpt>
<trkpt lat="40.0742003" lon="-105.2300747">
  <ele>1606.07</ele>
  <time>2026-08-27T18:26:03Z</time>
  <course>13.27</course>
  <speed>0.06</speed>
  <fix>3d</fix>
</trkpt>
<trkpt lat="40.0742001" lon="-105.2300745">
  <ele>1605.98</ele>
  <time>2026-08-27T18:26:03Z</time>
  <course>132.0</course>
  <speed>0.05</speed>
  <fix>3d</fix>
</trkpt>
<trkpt lat="40.0742001" lon="-105.2300747">
  <ele>1606.06</ele>
  <time>2026-08-27T18:26:03Z</time>
  <course>13.25</course>
  <speed>0.1019803902718557</speed>
  <fix>3d</fix>
</trkpt>
<trkpt lat="40.0742001" lon="-105.2300744">
  <ele>1605.98</ele>
  <time>2026-08-27T18:26:03Z</time>
  <course>162.95</course>
  <speed>0.08</speed>
  <fix>3d</fix>
</trkpt>
<trkpt lat="40.0741998" lon="-105.2300746">
  <ele>1606.06</ele>
  <time>2026-08-27T18:26:03Z</time>
  <course>13.23</course>
  <speed>0.14317821063276354</speed>
  <fix>3d</fix>
</trkpt>
<trkpt lat="40.0742" lon="-105.2300743">
  <ele>1605.98</ele>
  <time>2026-08-27T18:26:03Z</time>
  <course>174.74</course>
  <speed>0.12</speed>
  <fix>3d</fix>
</trkpt>
<trkpt lat="40.0741995" lon="-105.2300746">
  <ele>1606.06</ele>
  <time>2026-08-27T18:26:03Z</time>
  <course>13.18</course>
  <speed>0.1649242250247064</speed>
  <fix>3d</fix>
</trkpt>
<trkpt lat="40.0741997" lon="-105.2300743">
  <ele>1605.98</ele>
  <time>2026-08-27T18:26:03Z</time>
  <course>180.47</course>
  <speed>0.15</speed>
  <fix>3d</fix>
</trkpt>
<trkpt lat="40.0741992" lon="-105.2300746">
  <ele>1606.06</ele>
  <time>2026-08-27T18:26:03Z</time>
  <course>13.19</course>
  <speed>0.18681541692269404</speed>
  <fix>3d</fix>
</trkpt>
<trkpt lat="40.0741994" lon="-105.2300743">
  <ele>1605.98</ele>
  <time>2026-08-27T18:26:03Z</time>
  <course>184.14</course>
  <speed>0.17</speed>
  <fix>3d</fix>
</trkpt>
<trkpt lat="40.0741988" lon="-105.2300746">
  <ele>1606.06</ele>
  <time>2026-08-27T18:26:03Z</time>
  <course>13.18</course>
  <speed>0.196468827043885</speed>
  <fix>3d</fix>
</trkpt>
<trkpt lat="40.0741991" lon="-105.2300743">
  <ele>1605.98</ele>
  <time>2026-08-27T18:26:03Z</time>
  <course>186.88</course>
  <speed>0.19</speed>
  <fix>3d</fix>
</trkpt>
<trkpt lat="40.0741985" lon="-105.2300747">
  <ele>1606.07</ele>
  <time>2026-08-27T18:26:03Z</time>
  <course>13.17</course>
  <speed>0.19924858845171275</speed>
  <fix>3d</fix>
</trkpt>
<trkpt lat="40.0741987" lon="-105.2300744">
  <ele>1605.98</ele>
  <time>2026-08-27T18:26:03Z</time>
  <course>189.02</course>
  <speed>0.2</speed>
  <fix>3d</fix>
</trkpt>
<trkpt lat="40.0741981" lon="-105.2300748">
  <ele>1606.07</ele>
  <time>2026-08-27T18:26:03Z</time>
  <course>13.15</course>
  <speed>0.20248456731316586</speed>
  <fix>3d</fix>
</trkpt>
<trkpt lat="40.0741984" lon="-105.2300745">
  <ele>1605.99</ele>
  <time>2026-08-27T18:26:03Z</time>
  <course>190.88</course>
  <speed>0.21</speed>
  <fix>3d</fix>
</trkpt>
<trkpt lat="40.0741978" lon="-105.2300749">
  <ele>1606.07</ele>
  <time>2026-08-27T18:26:03Z</time>
  <course>13.13</course>
  <speed>0.19313207915827968</speed>
  <fix>3d</fix>
</trkpt>
<trkpt lat="40.0741979" lon="-105.2300746">
  <ele>1605.99</ele>
  <time>2026-08-27T18:26:03Z</time>
  <course>192.69</course>
  <speed>0.21</speed>
  <fix>3d</fix>
</trkpt>
<trkpt lat="40.0741974" lon="-105.230075">
  <ele>1606.07</ele>
  <time>2026-08-27T18:26:03Z</time>
  <course>13.12</course>
  <speed>0.17464249196572978</speed>
  <fix>3d</fix>
</trkpt>
<trkpt lat="40.0741976" lon="-105.2300747">
  <ele>1605.99</ele>
  <time>2026-08-27T18:26:03Z</time>
  <course>194.61</course>
  <speed>0.2</speed>
  <fix>3d</fix>
</trkpt>
<trkpt lat="40.0741971" lon="-105.2300751">
  <ele>1606.07</ele>
  <time>2026-08-27T18:26:03Z</time>
  <course>13.12</course>
  <speed>0.15652475842498528</speed>
  <fix>3d</fix>
</trkpt>
<trkpt lat="40.0741972" lon="-105.2300748">
  <ele>1605.99</ele>
  <time>2026-08-27T18:26:03Z</time>
  <course>196.72</course>
  <speed>0.18</speed>
  <fix>3d</fix>
</trkpt>
<trkpt lat="40.0741968" lon="-105.2300753">
  <ele>1606.07</ele>
  <time>2026-08-27T18:26:03Z</time>
  <course>13.09</course>
  <speed>0.13892443989449804</speed>
  <fix>3d</fix>
</trkpt>
<trkpt lat="40.074197" lon="-105.2300749">
  <ele>1605.99</ele>
  <time>2026-08-27T18:26:03Z</time>
  <course>199.03</course>
  <speed>0.16</speed>
  <fix>3d</fix>
</trkpt>
<trkpt lat="40.0741966" lon="-105.2300754">
  <ele>1606.07</ele>
  <time>2026-08-27T18:26:03Z</time>
  <course>13.08</course>
  <speed>0.11401754250991379</speed>
  <fix>3d</fix>
</trkpt>
<trkpt lat="40.0741967" lon="-105.230075">
  <ele>1605.99</ele>
  <time>2026-08-27T18:26:03Z</time>
  <course>201.74</course>
  <speed>0.14</speed>
  <fix>3d</fix>
</trkpt>
<trkpt lat="40.0741965" lon="-105.2300755">
  <ele>1606.08</ele>
  <time>2026-08-27T18:26:03Z</time>
  <course>12.95</course>
  <speed>0.07810249675906654</speed>
  <fix>3d</fix>
</trkpt>
<trkpt lat="40.0741965" lon="-105.2300752">
  <ele>1606.0</ele>
  <time>2026-08-27T18:26:03Z</time>
  <course>204.67</course>
  <speed>0.12</speed>
  <fix>3d</fix>
</trkpt>
<trkpt lat="40.0741964" lon="-105.2300755">
  <ele>1606.1</ele>
  <time>2026-08-27T18:26:03Z</time>
  <course>12.74</course>
  <speed>0.022360679774997897</speed>
  <fix>3d</fix>
</trkpt>
<trkpt lat="40.0741963" lon="-105.2300753">
  <ele>1606.0</ele>
  <time>2026-08-27T18:26:03Z</time>
  <course>205.34</course>
  <speed>0.08</speed>
  <fix>3d</fix>
</trkpt>
<trkpt lat="40.0741964" lon="-105.2300755">
  <ele>1606.13</ele>
  <time>2026-08-27T18:26:03Z</time>
  <course>12.54</course>
  <speed>0.053851648071345036</speed>
  <fix>3d</fix>
</trkpt>
<trkpt lat="40.0741962" lon="-105.2300753">
  <ele>1606.02</ele>
  <time>2026-08-27T18:26:03Z</time>
  <course>188.46</course>
  <speed>0.02</speed>
  <fix>3d</fix>
</trkpt>
<trkpt lat="40.0741965" lon="-105.2300753">
  <ele>1606.18</ele>
  <time>2026-08-27T18:26:03Z</time>
  <course>12.37</course>
  <speed>0.13892443989449804</speed>
  <fix>3d</fix>
</trkpt>
<trkpt lat="40.0741962" lon="-105.2300753">
  <ele>1606.06</ele>
  <time>2026-08-27T18:26:03Z</time>
  <course>46.37</course>
  <speed>0.05</speed>
  <fix>3d</fix>
</trkpt>
<trkpt lat="40.0741967" lon="-105.2300751">
  <ele>1606.25</ele>
  <time>2026-08-27T18:26:03Z</time>
  <course>12.27</course>
  <speed>0.22825424421026652</speed>
  <fix>3d</fix>
</trkpt>
<trkpt lat="40.0741964" lon="-105.2300752">
  <ele>1606.11</ele>
  <time>2026-08-27T18:26:03Z</time>
  <course>38.74</course>
  <speed>0.14</speed>
  <fix>3d</fix>
</trkpt>
<trkpt lat="40.0741971" lon="-105.2300748">
  <ele>1606.34</ele>
  <time>2026-08-27T18:26:03Z</time>
  <course>12.2</course>
  <speed>0.3138470965295043</speed>
  <fix>3d</fix>
</trkpt>
<trkpt lat="40.0741966" lon="-105.230075">
  <ele>1606.17</ele>
  <time>2026-08-27T18:26:03Z</time>
  <course>36.54</course>
  <speed>0.23</speed>
  <fix>3d</fix>
</trkpt>
<trkpt lat="40.0741976" lon="-105.2300743">
  <ele>1606.44</ele>
  <time>2026-08-27T18:26:04Z</time>
  <course>12.14</course>
  <speed>0.3858756276314948</speed>
  <fix>3d</fix>
</trkpt>
<trkpt lat="40.0741969" lon="-105.2300746">
  <ele>1606.25</ele>
  <time>2026-08-27T18:26:04Z</time>
  <course>35.7</course>
  <speed>0.31</speed>
  <fix>3d</fix>
</trkpt>
<trkpt lat="40.0741982" lon="-105.2300737">
  <ele>1606.55</ele>
  <time>2026-08-27T18:26:04Z</time>
  <course>12.11</course>
  <speed>0.4632493928760188</speed>
  <fix>3d</fix>
</trkpt>
<trkpt lat="40.0741974" lon="-105.2300741">
  <ele>1606.35</ele>
  <time>2026-08-27T18:26:04Z</time>
  <course>35.59</course>
  <speed>0.39</speed>
  <fix>3d</fix>
</trkpt>
<trkpt lat="40.0741989" lon="-105.230073">
  <ele>1606.66</ele>
  <time>2026-08-27T18:26:04Z</time>
  <course>12.05</course>
  <speed>0.532541078227774</speed>
  <fix>3d</fix>
</trkpt>
<trkpt lat="40.0741981" lon="-105.2300735">
  <ele>1606.45</ele>
  <time>2026-08-27T18:26:04Z</time>
  <course>36.02</course>
  <speed>0.46</speed>
  <fix>3d</fix>
</trkpt>
<trkpt lat="40.0741997" lon="-105.2300722">
  <ele>1606.78</ele>
  <time>2026-08-27T18:26:04Z</time>
  <course>11.99</course>
  <speed>0.6021627686929839</speed>
  <fix>3d</fix>
</trkpt>
<trkpt lat="40.0741988" lon="-105.2300728">
  <ele>1606.56</ele>
  <time>2026-08-27T18:26:04Z</time>
  <course>36.75</course>
  <speed>0.54</speed>
  <fix>3d</fix>
</trkpt>
<trkpt lat="40.0742006" lon="-105.2300713">
  <ele>1606.91</ele>
  <time>2026-08-27T18:26:04Z</time>
  <course>11.94</course>
  <speed>0.6640030120413611</speed>
  <fix>3d</fix>
</trkpt>
<trkpt lat="40.0741996" lon="-105.230072">
  <ele>1606.68</ele>
  <time>2026-08-27T18:26:04Z</time>
  <course>37.63</course>
  <speed>0.61</speed>
  <fix>3d</fix>
</trkpt>
<trkpt lat="40.0742015" lon="-105.2300703">
  <ele>1607.04</ele>
  <time>2026-08-27T18:26:04Z</time>
  <course>11.87</course>
  <speed>0.7262231062146123</speed>
  <fix>3d</fix>
</trkpt>
<trkpt lat="40.0742005" lon="-105.2300711">
  <ele>1606.81</ele>
  <time>2026-08-27T18:26:04Z</time>
  <course>38.62</course>
  <speed>0.67</speed>
  <fix>3d</fix>
</trkpt>
<trkpt lat="40.0742026" lon="-105.2300691">
  <ele>1607.18</ele>
  <time>2026-08-27T18:26:04Z</time>
  <course>11.78</course>
  <speed>0.7887331614684399</speed>
  <fix>3d</fix>
</trkpt>
<trkpt lat="40.0742015" lon="-105.23007">
  <ele>1606.95</ele>
  <time>2026-08-27T18:26:04Z</time>
  <course>39.67</course>
  <speed>0.74</speed>
  <fix>3d</fix>
</trkpt>
<trkpt lat="40.0742037" lon="-105.2300678">
  <ele>1607.35</ele>
  <time>2026-08-27T18:26:04Z</time>
  <course>11.68</course>
  <speed>0.8438601779915912</speed>
  <fix>3d</fix>
</trkpt>
<trkpt lat="40.0742026" lon="-105.2300688">
  <ele>1607.09</ele>
  <time>2026-08-27T18:26:04Z</time>
  <course>40.78</course>
  <speed>0.8</speed>
  <fix>3d</fix>
</trkpt>
<trkpt lat="40.0742048" lon="-105.2300664">
  <ele>1607.52</ele>
  <time>2026-08-27T18:26:04Z</time>
  <course>11.62</course>
  <speed>0.899388681271896</speed>
  <fix>3d</fix>
</trkpt>
<trkpt lat="40.0742037" lon="-105.2300676">
  <ele>1607.25</ele>
  <time>2026-08-27T18:26:04Z</time>
  <course>41.93</course>
  <speed>0.85</speed>
  <fix>3d</fix>
</trkpt>
<trkpt lat="40.0742061" lon="-105.2300649">
  <ele>1607.7</ele>
  <time>2026-08-27T18:26:04Z</time>
  <course>11.53</course>
  <speed>0.9479451460923254</speed>
  <fix>3d</fix>
</trkpt>
<trkpt lat="40.0742049" lon="-105.2300662">
  <ele>1607.42</ele>
  <time>2026-08-27T18:26:04Z</time>
  <course>43.1</course>
  <speed>0.91</speed>
  <fix>3d</fix>
</trkpt>
<trkpt lat="40.0742073" lon="-105.2300633">
  <ele>1607.9</ele>
  <time>2026-08-27T18:26:04Z</time>
  <course>11.44</course>
  <speed>1.0041912168506553</speed>
  <fix>3d</fix>
</trkpt>
<trkpt lat="40.0742061" lon="-105.2300646">
  <ele>1607.61</ele>
  <time>2026-08-27T18:26:04Z</time>
  <course>44.28</course>
  <speed>0.96</speed>
  <fix>3d</fix>
</trkpt>
<trkpt lat="40.0742086" lon="-105.2300616">
  <ele>1608.11</ele>
  <time>2026-08-27T18:26:04Z</time>
  <course>17.1</course>
  <speed>1.026498904042279</speed>
  <fix>3d</fix>
</trkpt>
<trkpt lat="40.0742073" lon="-105.230063">
  <ele>1607.8</ele>
  <time>2026-08-27T18:26:04Z</time>
  <course>45.16</course>
  <speed>1.01</speed>
  <fix>3d</fix>
</trkpt>
<trkpt lat="40.07421" lon="-105.2300598">
  <ele>1608.32</ele>
  <time>2026-08-27T18:26:04Z</time>
  <course>30.54</course>
  <speed>1.1243220179290274</speed>
  <fix>3d</fix>
</trkpt>
<trkpt lat="40.0742087" lon="-105.2300613">
  <ele>1608.01</ele>
  <time>2026-08-27T18:26:04Z</time>
  <course>44.97</course>
  <speed>1.06</speed>
  <fix>3d</fix>
</trkpt>
<trkpt lat="40.0742115" lon="-105.2300578">
  <ele>1608.56</ele>
  <time>2026-08-27T18:26:04Z</time>
  <course>42.74</course>
  <speed>1.252078272313676</speed>
  <fix>3d</fix>
</trkpt>
<trkpt lat="40.0742101" lon="-105.2300595">
  <ele>1608.23</ele>
  <time>2026-08-27T18:26:04Z</time>
  <course>45.58</course>
  <speed>1.13</speed>
  <fix>3d</fix>
</trkpt>
<trkpt lat="40.074213" lon="-105.2300553">
  <ele>1608.82</ele>
  <time>2026-08-27T18:26:04Z</time>
  <course>48.25</course>
  <speed>1.398177385026664</speed>
  <fix>3d</fix>
</trkpt>
<trkpt lat="40.0742115" lon="-105.2300574">
  <ele>1608.47</ele>
  <time>2026-08-27T18:26:04Z</time>
  <course>48.2</course>
  <speed>1.26</speed>
  <fix>3d</fix>
</trkpt>
<trkpt lat="40.0742147" lon="-105.2300526">
  <ele>1609.09</ele>
  <time>2026-08-27T18:26:04Z</time>
  <course>49.35</course>
  <speed>1.5211837495845133</speed>
  <fix>3d</fix>
</trkpt>
<trkpt lat="40.074213" lon="-105.230055">
  <ele>1608.73</ele>
  <time>2026-08-27T18:26:04Z</time>
  <course>50.57</course>
  <speed>1.4</speed>
  <fix>3d</fix>
</trkpt>
<trkpt lat="40.0742164" lon="-105.2300497">
  <ele>1609.38</ele>
  <time>2026-08-27T18:26:04Z</time>
  <course>49.42</course>
  <speed>1.6148374531202823</speed>
  <fix>3d</fix>
</trkpt>
<trkpt lat="40.0742147" lon="-105.2300523">
  <ele>1609.0</ele>
  <time>2026-08-27T18:26:04Z</time>
  <course>51.58</course>
  <speed>1.52</speed>
  <fix>3d</fix>
</trkpt>
<trkpt lat="40.0742183" lon="-105.2300467">
  <ele>1609.69</ele>
  <time>2026-08-27T18:26:04Z</time>
  <course>49.35</course>
  <speed>1.6929264603047587</speed>
  <fix>3d</fix>
</trkpt>
<trkpt lat="40.0742164" lon="-105.2300494">
  <ele>1609.28</ele>
  <time>2026-08-27T18:26:04Z</time>
  <course>51.79</course>
  <speed>1.62</speed>
  <fix>3d</fix>
</trkpt>
<trkpt lat="40.0742202" lon="-105.2300434">
  <ele>1610.01</ele>
  <time>2026-08-27T18:26:04Z</time>
  <course>49.51</course>
  <speed>1.7585505395068974</speed>
  <fix>3d</fix>
</trkpt>
<trkpt lat="40.0742183" lon="-105.2300463">
  <ele>1609.58</ele>
  <time>2026-08-27T18:26:04Z</time>
  <course>51.92</course>
  <speed>1.7</speed>
  <fix>3d</fix>
</trkpt>
<trkpt lat="40.0742221" lon="-105.2300401">
  <ele>1610.35</ele>
  <time>2026-08-27T18:26:04Z</time>
  <course>49.97</course>
  <speed>1.8120706387997132</speed>
  <fix>3d</fix>
</trkpt>
<trkpt lat="40.0742202" lon="-105.2300431">
  <ele>1609.9</ele>
  <time>2026-08-27T18:26:04Z</time>
  <course>52.27</course>
  <speed>1.76</speed>
  <fix>3d</fix>
</trkpt>
<trkpt lat="40.0742241" lon="-105.2300366">
  <ele>1610.71</ele>
  <time>2026-08-27T18:26:04Z</time>
  <course>50.6</course>
  <speed>1.8720042734993956</speed>
  <fix>3d</fix>
</trkpt>
<trkpt lat="40.0742223" lon="-105.2300398">
  <ele>1610.24</ele>
  <time>2026-08-27T18:26:04Z</time>
  <course>52.85</course>
  <speed>1.82</speed>
  <fix>3d</fix>
</trkpt>
<trkpt lat="40.0742262" lon="-105.230033">
  <ele>1611.08</ele>
  <time>2026-08-27T18:26:04Z</time>
  <course>51.29</course>
  <speed>1.9262658175859324</speed>
  <fix>3d</fix>
</trkpt>
<trkpt lat="40.0742243" lon="-105.2300363">
  <ele>1610.6</ele>
  <time>2026-08-27T18:26:04Z</time>
  <course>53.57</course>
  <speed>1.88</speed>
  <fix>3d</fix>
</trkpt>
<trkpt lat="40.0742282" lon="-105.2300292">
  <ele>1611.47</ele>
  <time>2026-08-27T18:26:04Z</time>
  <course>51.95</course>
  <speed>1.9866806487203723</speed>
  <fix>3d</fix>
</trkpt>
<trkpt lat="40.0742262" lon="-105.2300327">
  <ele>1610.97</ele>
  <time>2026-08-27T18:26:04Z</time>
  <course>54.34</course>
  <speed>1.94</speed>
  <fix>3d</fix>
</trkpt>
<trkpt lat="40.0742303" lon="-105.2300253">
  <ele>1611.89</ele>
  <time>2026-08-27T18:26:04Z</time>
  <course>52.59</course>
  <speed>2.0498048687619024</speed>
  <fix>3d</fix>
</trkpt>
<trkpt lat="40.0742283" lon="-105.2300288">
  <ele>1611.36</ele>
  <time>2026-08-27T18:26:04Z</time>
  <course>55.11</course>
  <speed>2.0</speed>
  <fix>3d</fix>
</trkpt>
<trkpt lat="40.0742324" lon="-105.2300212">
  <ele>1612.33</ele>
  <time>2026-08-27T18:26:04Z</time>
  <course>53.26</course>
  <speed>2.113409567499873</speed>
  <fix>3d</fix>
</trkpt>
<trkpt lat="40.0742304" lon="-105.2300249">
  <ele>1611.77</ele>
  <time>2026-08-27T18:26:04Z</time>
  <course>55.86</course>
  <speed>2.06</speed>
  <fix>3d</fix>
</trkpt>
<trkpt lat="40.0742345" lon="-105.2300169">
  <ele>1612.79</ele>
  <time>2026-08-27T18:26:04Z</time>
  <course>53.9</course>
  <speed>2.1774526401279086</speed>
  <fix>3d</fix>
</trkpt>
<trkpt lat="40.0742324" lon="-105.2300209">
  <ele>1612.21</ele>
  <time>2026-08-27T18:26:04Z</time>
  <course>56.63</course>
  <speed>2.12</speed>
  <fix>3d</fix>
</trkpt>
<trkpt lat="40.0742366" lon="-105.2300125">
  <ele>1613.26</ele>
  <time>2026-08-27T18:26:04Z</time>
  <course>54.56</course>
  <speed>2.2418965185752886</speed>
  <fix>3d</fix>
</trkpt>
<trkpt lat="40.0742345" lon="-105.2300166">
  <ele>1612.66</ele>
  <time>2026-08-27T18:26:04Z</time>
  <course>57.4</course>
  <speed>2.18</speed>
  <fix>3d</fix>
</trkpt>
<trkpt lat="40.0742387" lon="-105.230008">
  <ele>1613.74</ele>
  <time>2026-08-27T18:26:04Z</time>
  <course>55.41</course>
  <speed>2.298173187555716</speed>
  <fix>3d</fix>
</trkpt>
<trkpt lat="40.0742367" lon="-105.2300122">
  <ele>1613.12</ele>
  <time>2026-08-27T18:26:04Z</time>
  <course>58.14</course>
  <speed>2.25</speed>
  <fix>3d</fix>
</trkpt>
<trkpt lat="40.0742409" lon="-105.2300033">
  <ele>1614.22</ele>
  <time>2026-08-27T18:26:04Z</time>
  <course>56.22</course>
  <speed>2.327251597915447</speed>
  <fix>3d</fix>
</trkpt>
<trkpt lat="40.0742389" lon="-105.2300076">
  <ele>1613.6</ele>
  <time>2026-08-27T18:26:04Z</time>
  <course>58.82</course>
  <speed>2.3</speed>
  <fix>3d</fix>
</trkpt>
<trkpt lat="40.074243" lon="-105.2299986">
  <ele>1614.71</ele>
  <time>2026-08-27T18:26:04Z</time>
  <course>57.09</course>
  <speed>2.343032223423314</speed>
  <fix>3d</fix>
</trkpt>
<trkpt lat="40.074241" lon="-105.230003">
  <ele>1614.08</ele>
  <time>2026-08-27T18:26:04Z</time>
  <course>59.49</course>
  <speed>2.33</speed>
  <fix>3d</fix>
</trkpt>
<trkpt lat="40.0742451" lon="-105.2299937">
  <ele>1615.2</ele>
  <time>2026-08-27T18:26:04Z</time>
  <course>58.08</course>
  <speed>2.3544001359157285</speed>
  <fix>3d</fix>
</trkpt>
<trkpt lat="40.0742431" lon="-105.2299982">
  <ele>1614.57</ele>
  <time>2026-08-27T18:26:04Z</time>
  <course>60.25</course>
  <speed>2.35</speed>
  <fix>3d</fix>
</trkpt>
<trkpt lat="40.0742471" lon="-105.2299889">
  <ele>1615.67</ele>
  <time>2026-08-27T18:26:04Z</time>
  <course>59.16</course>
  <speed>2.3664741705752887</speed>
  <fix>3d</fix>
</trkpt>
<trkpt lat="40.0742451" lon="-105.2299934">
  <ele>1615.05</ele>
  <time>2026-08-27T18:26:04Z</time>
  <course>61.16</course>
  <speed>2.36</speed>
  <fix>3d</fix>
</trkpt>
<trkpt lat="40.074249" lon="-105.2299839">
  <ele>1616.15</ele>
  <time>2026-08-27T18:26:04Z</time>
  <course>60.31</course>
  <speed>2.374721036248258</speed>
  <fix>3d</fix>
</trkpt>
<trkpt lat="40.0742472" lon="-105.2299884">
  <ele>1615.53</ele>
  <time>2026-08-27T18:26:04Z</time>
  <course>62.19</course>
  <speed>2.37</speed>
  <fix>3d</fix>
</trkpt>
<trkpt lat="40.0742509" lon="-105.2299789">
  <ele>1616.63</ele>
  <time>2026-08-27T18:26:04Z</time>
  <course>61.5</course>
  <speed>2.388325773423718</speed>
  <fix>3d</fix>
</trkpt>
<trkpt lat="40.0742491" lon="-105.2299835">
  <ele>1616.01</ele>
  <time>2026-08-27T18:26:04Z</time>
  <course>63.3</course>
  <speed>2.38</speed>
  <fix>3d</fix>
</trkpt>
<trkpt lat="40.0742527" lon="-105.2299738">
  <ele>1617.11</ele>
  <time>2026-08-27T18:26:04Z</time>
  <course>62.67</course>
  <speed>2.3984161440417298</speed>
  <fix>3d</fix>
</trkpt>
<trkpt lat="40.074251" lon="-105.2299784">
  <ele>1616.48</ele>
  <time>2026-08-27T18:26:04Z</time>
  <course>64.41</course>
  <speed>2.39</speed>
  <fix>3d</fix>
</trkpt>
<trkpt lat="40.0742545" lon="-105.2299686">
  <ele>1617.59</ele>
  <time>2026-08-27T18:26:04Z</time>
  <course>63.79</course>
  <speed>2.413503677229434</speed>
  <fix>3d</fix>
</trkpt>
<trkpt lat="40.0742529" lon="-105.2299733">
  <ele>1616.95</ele>
  <time>2026-08-27T18:26:04Z</time>
  <course>65.52</course>
  <speed>2.4</speed>
  <fix>3d</fix>
</trkpt>
<trkpt lat="40.0742562" lon="-105.2299633">
  <ele>1618.07</ele>
  <time>2026-08-27T18:26:04Z</time>
  <course>64.9</course>
  <speed>2.4253865671269805</speed>
  <fix>3d</fix>
</trkpt>
<trkpt lat="40.0742546" lon="-105.2299682">
  <ele>1617.42</ele>
  <time>2026-08-27T18:26:04Z</time>
  <course>66.6</course>
  <speed>2.42</speed>
  <fix>3d</fix>
</trkpt>
<trkpt lat="40.0742579" lon="-105.229958">
  <ele>1618.54</ele>
  <time>2026-08-27T18:26:04Z</time>
  <course>65.97</course>
  <speed>2.438237068047322</speed>
  <fix>3d</fix>
</trkpt>
<trkpt lat="40.0742563" lon="-105.2299629">
  <ele>1617.9</ele>
  <time>2026-08-27T18:26:04Z</time>
  <course>67.66</course>
  <speed>2.43</speed>
  <fix>3d</fix>
</trkpt>
<trkpt lat="40.0742594" lon="-105.2299526">
  <ele>1619.02</ele>
  <time>2026-08-27T18:26:04Z</time>
  <course>66.99</course>
  <speed>2.455524383914768</speed>
  <fix>3d</fix>
</trkpt>
<trkpt lat="40.074258" lon="-105.2299576">
  <ele>1618.37</ele>
  <time>2026-08-27T18:26:04Z</time>
  <course>68.71</course>
  <speed>2.44</speed>
  <fix>3d</fix>
</trkpt>
<trkpt lat="40.0742609" lon="-105.2299471">
  <ele>1619.5</ele>
  <time>2026-08-27T18:26:04Z</time>
  <course>67.99</course>
  <speed>2.4828411145298848</speed>
  <fix>3d</fix>
</trkpt>
<trkpt lat="40.0742595" lon="-105.2299522">
  <ele>1618.85</ele>
  <time>2026-08-27T18:26:04Z</time>
  <course>69.72</course>
  <speed>2.46</speed>
  <fix>3d</fix>
</trkpt>
<trkpt lat="40.0742624" lon="-105.2299416">
  <ele>1619.98</ele>
  <time>2026-08-27T18:26:04Z</time>
  <course>68.95</course>
  <speed>2.5013796193301006</speed>
  <fix>3d</fix>
</trkpt>
<trkpt lat="40.074261" lon="-105.2299467">
  <ele>1619.32</ele>
  <time>2026-08-27T18:26:04Z</time>
  <course>70.68</course>
  <speed>2.47</speed>
  <fix>3d</fix>
</trkpt>
<trkpt lat="40.0742638" lon="-105.229936">
  <ele>1620.46</ele>
  <time>2026-08-27T18:26:04Z</time>
  <course>69.86</course>
  <speed>2.5204959829366915</speed>
  <fix>3d</fix>
</trkpt>
<trkpt lat="40.0742624" lon="-105.2299412">
  <ele>1619.8</ele>
  <time>2026-08-27T18:26:04Z</time>
  <course>71.61</course>
  <speed>2.49</speed>
  <fix>3d</fix>
</trkpt>
<trkpt lat="40.0742651" lon="-105.2299303">
  <ele>1620.94</ele>
  <time>2026-08-27T18:26:04Z</time>
  <course>70.73</course>
  <speed>2.549745085297744</speed>
  <fix>3d</fix>
</trkpt>
<trkpt lat="40.0742639" lon="-105.2299357">
  <ele>1620.28</ele>
  <time>2026-08-27T18:26:04Z</time>
  <course>72.51</course>
  <speed>2.52</speed>
  <fix>3d</fix>
</trkpt>
<trkpt lat="40.0742664" lon="-105.2299245">
  <ele>1621.42</ele>
  <time>2026-08-27T18:26:04Z</time>
  <course>71.57</course>
  <speed>2.579631756666055</speed>
  <fix>3d</fix>
</trkpt>
<trkpt lat="40.0742652" lon="-105.22993">
  <ele>1620.76</ele>
  <time>2026-08-27T18:26:04Z</time>
  <course>73.38</course>
  <speed>2.54</speed>
  <fix>3d</fix>
</trkpt>
<trkpt lat="40.0742677" lon="-105.2299187">
  <ele>1621.9</ele>
  <time>2026-08-27T18:26:04Z</time>
  <course>72.42</course>
  <speed>2.6101340961720725</speed>
  <fix>3d</fix>
</trkpt>
<trkpt lat="40.0742665" lon="-105.2299242">
  <ele>1621.24</ele>
  <time>2026-08-27T18:26:04Z</time>
  <course>74.25</course>
  <speed>2.57</speed>
  <fix>3d</fix>
</trkpt>
<trkpt lat="40.0742688" lon="-105.2299127">
  <ele>1622.38</ele>
  <time>2026-08-27T18:26:04Z</time>
  <course>73.25</course>
  <speed>2.6533940529065787</speed>
  <fix>3d</fix>
</trkpt>
<trkpt lat="40.0742677" lon="-105.2299183">
  <ele>1621.72</ele>
  <time>2026-08-27T18:26:04Z</time>
  <course>75.1</course>
  <speed>2.61</speed>
  <fix>3d</fix>
</trkpt>
<trkpt lat="40.07427" lon="-105.2299065">
  <ele>1622.87</ele>
  <time>2026-08-27T18:26:04Z</time>
  <course>74.11</course>
  <speed>2.6946799438894407</speed>
  <fix>3d</fix>
</trkpt>
<trkpt lat="40.0742689" lon="-105.2299123">
  <ele>1622.21</ele>
  <time>2026-08-27T18:26:04Z</time>
  <course>75.96</course>
  <speed>2.65</speed>
  <fix>3d</fix>
</trkpt>
<trkpt lat="40.0742711" lon="-105.2299003">
  <ele>1623.37</ele>
  <time>2026-08-27T18:26:04Z</time>
  <course>74.98</course>
  <speed>2.746343023003499</speed>
  <fix>3d</fix>
</trkpt>
<trkpt lat="40.07427" lon="-105.2299062">
  <ele>1622.69</ele>
  <time>2026-08-27T18:26:04Z</time>
  <course>76.82</course>
  <speed>2.69</speed>
  <fix>3d</fix>
</trkpt>
<trkpt lat="40.0742721" lon="-105.229894">
  <ele>1623.87</ele>
  <time>2026-08-27T18:26:04Z</time>
  <course>75.89</course>
  <speed>2.7868440932352136</speed>
  <fix>3d</fix>
</trkpt>
<trkpt lat="40.0742711" lon="-105.2299">
  <ele>1623.19</ele>
  <time>2026-08-27T18:26:04Z</time>
  <course>77.69</course>
  <speed>2.73</speed>
  <fix>3d</fix>
</trkpt>
<trkpt lat="40.0742731" lon="-105.2298875">
  <ele>1624.36</ele>
  <time>2026-08-27T18:26:04Z</time>
  <course>76.84</course>
  <speed>2.8398943642325856</speed>
  <fix>3d</fix>
</trkpt>
<trkpt lat="40.0742721" lon="-105.2298936">
  <ele>1623.68</ele>
  <time>2026-08-27T18:26:04Z</time>
  <course>78.59</course>
  <speed>2.78</speed>
  <fix>3d</fix>
</trkpt>
<trkpt lat="40.074274" lon="-105.2298809">
  <ele>1624.86</ele>
  <time>2026-08-27T18:26:04Z</time>
  <course>77.81</course>
  <speed>2.901671931835162</speed>
  <fix>3d</fix>
</trkpt>
<trkpt lat="40.0742731" lon="-105.2298871">
  <ele>1624.17</ele>
  <time>2026-08-27T18:26:04Z</time>
  <course>79.52</course>
  <speed>2.84</speed>
  <fix>3d</fix>
</trkpt>
<trkpt lat="40.0742748" lon="-105.2298741">
  <ele>1625.35</ele>
  <time>2026-08-27T18:26:04Z</time>
  <course>78.83</course>
  <speed>2.964354904528134</speed>
  <fix>3d</fix>
</trkpt>
<trkpt lat="40.074274" lon="-105.2298805">
  <ele>1624.66</ele>
  <time>2026-08-27T18:26:04Z</time>
  <course>80.51</course>
  <speed>2.89</speed>
  <fix>3d</fix>
</trkpt>
<trkpt lat="40.0742755" lon="-105.2298672">
  <ele>1625.84</ele>
  <time>2026-08-27T18:26:04Z</time>
  <course>79.9</course>
  <speed>3.0364617567161947</speed>
  <fix>3d</fix>
</trkpt>
<trkpt lat="40.0742748" lon="-105.2298737">
  <ele>1625.15</ele>
  <time>2026-08-27T18:26:04Z</time>
  <course>81.55</course>
  <speed>2.96</speed>
  <fix>3d</fix>
</trkpt>
<trkpt lat="40.0742762" lon="-105.22986">
  <ele>1626.33</ele>
  <time>2026-08-27T18:26:04Z</time>
  <course>80.98</course>
  <speed>3.1097588330930104</speed>
  <fix>3d</fix>
</trkpt>
<trkpt lat="40.0742755" lon="-105.2298668">
  <ele>1625.64</ele>
  <time>2026-08-27T18:26:04Z</time>
  <course>82.63</course>
  <speed>3.03</speed>
  <fix>3d</fix>
</trkpt>
<trkpt lat="40.0742768" lon="-105.2298527">
  <ele>1626.82</ele>
  <time>2026-08-27T18:26:04Z</time>
  <course>82.11</course>
  <speed>3.1941195970094793</speed>
  <fix>3d</fix>
</trkpt>
<trkpt lat="40.0742762" lon="-105.2298596">
  <ele>1626.13</ele>
  <time>2026-08-27T18:26:04Z</time>
  <course>83.75</course>
  <speed>3.1</speed>
  <fix>3d</fix>
</trkpt>
<trkpt lat="40.0742772" lon="-105.2298452">
  <ele>1627.3</ele>
  <time>2026-08-27T18:26:04Z</time>
  <course>83.27</course>
  <speed>3.278078705583501</speed>
  <fix>3d</fix>
</trkpt>
<trkpt lat="40.0742767" lon="-105.2298523">
  <ele>1626.62</ele>
  <time>2026-08-27T18:26:04Z</time>
  <course>84.91</course>
  <speed>3.18</speed>
  <fix>3d</fix>
</trkpt>
<trkpt lat="40.0742776" lon="-105.2298374">
  <ele>1627.8</ele>
  <time>2026-08-27T18:26:04Z</time>
  <course>84.5</course>
  <speed>3.374285109471338</speed>
  <fix>3d</fix>
</trkpt>
<trkpt lat="40.0742772" lon="-105.2298447">
  <ele>1627.11</ele>
  <time>2026-08-27T18:26:04Z</time>
  <course>86.14</course>
  <speed>3.27</speed>
  <fix>3d</fix>
</trkpt>
<trkpt lat="40.0742778" lon="-105.2298293">
  <ele>1628.29</ele>
  <time>2026-08-27T18:26:04Z</time>
  <course>85.76</course>
  <speed>3.4811635985687315</speed>
  <fix>3d</fix>
</trkpt>
<trkpt lat="40.0742775" lon="-105.2298369">
  <ele>1627.61</ele>
  <time>2026-08-27T18:26:04Z</time>
  <course>87.41</course>
  <speed>3.37</speed>
  <fix>3d</fix>
</trkpt>
<trkpt lat="40.0742778" lon="-105.229821">
  <ele>1628.79</ele>
  <time>2026-08-27T18:26:04Z</time>
  <course>87.08</course>
  <speed>3.5900139275495855</speed>
  <fix>3d</fix>
</trkpt>
<trkpt lat="40.0742777" lon="-105.2298289">
  <ele>1628.1</ele>
  <time>2026-08-27T18:26:04Z</time>
  <course>88.73</course>
  <speed>3.47</speed>
  <fix>3d</fix>
</trkpt>
<trkpt lat="40.0742778" lon="-105.2298125">
  <ele>1629.29</ele>
  <time>2026-08-27T18:26:04Z</time>
  <course>88.46</course>
  <speed>3.710862433451286</speed>
  <fix>3d</fix>
</trkpt>
<trkpt lat="40.0742778" lon="-105.2298205">
  <ele>1628.6</ele>
  <time>2026-08-27T18:26:04Z</time>
  <course>90.09</course>
  <speed>3.58</speed>
  <fix>3d</fix>
</trkpt>
<trkpt lat="40.0742776" lon="-105.2298036">
  <ele>1629.79</ele>
  <time>2026-08-27T18:26:05Z</time>
  <course>89.85</course>
  <speed>3.8442164351139234</speed>
  <fix>3d</fix>
</trkpt>
<trkpt lat="40.0742777" lon="-105.229812">
  <ele>1629.09</ele>
  <time>2026-08-27T18:26:05Z</time>
  <course>91.51</course>
  <speed>3.71</speed>
  <fix>3d</fix>
</trkpt>
<trkpt lat="40.0742771" lon="-105.2297945">
  <ele>1630.29</ele>
  <time>2026-08-27T18:26:05Z</time>
  <course>91.28</course>
  <speed>3.990551340353861</speed>
  <fix>3d</fix>
</trkpt>
<trkpt lat="40.0742775" lon="-105.2298031">
  <ele>1629.59</ele>
  <time>2026-08-27T18:26:05Z</time>
  <course>92.99</course>
  <speed>3.84</speed>
  <fix>3d</fix>
</trkpt>
<trkpt lat="40.0742765" lon="-105.229785">
  <ele>1630.78</ele>
  <time>2026-08-27T18:26:05Z</time>
  <course>92.74</course>
  <speed>4.161249812255929</speed>
  <fix>3d</fix>
</trkpt>
<trkpt lat="40.0742771" lon="-105.229794">
  <ele>1630.08</ele>
  <time>2026-08-27T18:26:05Z</time>
  <course>94.52</course>
  <speed>3.99</speed>
  <fix>3d</fix>
</trkpt>
<trkpt lat="40.0742756" lon="-105.2297751">
  <ele>1631.27</ele>
  <time>2026-08-27T18:26:05Z</time>
  <course>94.2</course>
  <speed>4.346228249873676</speed>
  <fix>3d</fix>
</trkpt>
<trkpt lat="40.0742764" lon="-105.2297844">
  <ele>1630.57</ele>
  <time>2026-08-27T18:26:05Z</time>
  <course>96.11</course>
  <speed>4.15</speed>
  <fix>3d</fix>
</trkpt>
<trkpt lat="40.0742744" lon="-105.2297648">
  <ele>1631.76</ele>
  <time>2026-08-27T18:26:05Z</time>
  <course>95.52</course>
  <speed>4.537488291995914</speed>
  <fix>3d</fix>
</trkpt>
<trkpt lat="40.0742755" lon="-105.2297745">
  <ele>1631.06</ele>
  <time>2026-08-27T18:26:05Z</time>
  <course>97.77</course>
  <speed>4.34</speed>
  <fix>3d</fix>
</trkpt>
<trkpt lat="40.074273" lon="-105.2297542">
  <ele>1632.23</ele>
  <time>2026-08-27T18:26:05Z</time>
  <course>97.66</course>
  <speed>4.679700845139569</speed>
  <fix>3d</fix>
</trkpt>
<trkpt lat="40.0742743" lon="-105.2297642">
  <ele>1631.55</ele>
  <time>2026-08-27T18:26:05Z</time>
  <course>99.4</course>
  <speed>4.53</speed>
  <fix>3d</fix>
</trkpt>
<trkpt lat="40.0742713" lon="-105.2297433">
  <ele>1632.69</ele>
  <time>2026-08-27T18:26:05Z</time>
  <course>99.97</course>
  <speed>4.7465355787142265</speed>
  <fix>3d</fix>
</trkpt>
<trkpt lat="40.0742728" lon="-105.2297536">
  <ele>1632.02</ele>
  <time>2026-08-27T18:26:05Z</time>
  <course>100.92</course>
  <speed>4.67</speed>
  <fix>3d</fix>
</trkpt>
<trkpt lat="40.0742693" lon="-105.2297324">
  <ele>1633.12</ele>
  <time>2026-08-27T18:26:05Z</time>
  <course>102.28</course>
  <speed>4.758571214135604</speed>
  <fix>3d</fix>
</trkpt>
<trkpt lat="40.0742711" lon="-105.2297427">
  <ele>1632.48</ele>
  <time>2026-08-27T18:26:05Z</time>
  <course>102.43</course>
  <speed>4.75</speed>
  <fix>3d</fix>
</trkpt>
<trkpt lat="40.0742671" lon="-105.2297216">
  <ele>1633.51</ele>
  <time>2026-08-27T18:26:05Z</time>
  <course>104.65</course>
  <speed>4.7582034424770026</speed>
  <fix>3d</fix>
</trkpt>
<trkpt lat="40.0742691" lon="-105.2297318">
  <ele>1632.9</ele>
  <time>2026-08-27T18:26:05Z</time>
  <course>104.08</course>
  <speed>4.77</speed>
  <fix>3d</fix>
</trkpt>
<trkpt lat="40.0742647" lon="-105.2297109">
  <ele>1633.87</ele>
  <time>2026-08-27T18:26:05Z</time>
  <course>107.07</course>
  <speed>4.7373621351971815</speed>
  <fix>3d</fix>
</trkpt>
<trkpt lat="40.0742669" lon="-105.2297209">
  <ele>1633.3</ele>
  <time>2026-08-27T18:26:05Z</time>
  <course>105.93</course>
  <speed>4.77</speed>
  <fix>3d</fix>
</trkpt>
<trkpt lat="40.0742619" lon="-105.2297004">
  <ele>1634.19</ele>
  <time>2026-08-27T18:26:05Z</time>
  <course>109.56</course>
  <speed>4.713491275052919</speed>
  <fix>3d</fix>
</trkpt>
<trkpt lat="40.0742643" lon="-105.2297102">
  <ele>1633.65</ele>
  <time>2026-08-27T18:26:05Z</time>
  <course>107.96</course>
  <speed>4.75</speed>
  <fix>3d</fix>
</trkpt>
<trkpt lat="40.0742588" lon="-105.2296901">
  <ele>1634.48</ele>
  <time>2026-08-27T18:26:05Z</time>
  <course>112.06</course>
  <speed>4.674023962283463</speed>
  <fix>3d</fix>
</trkpt>
<trkpt lat="40.0742616" lon="-105.2296997">
  <ele>1633.98</ele>
  <time>2026-08-27T18:26:05Z</time>
  <course>110.1</course>
  <speed>4.72</speed>
  <fix>3d</fix>
</trkpt>
<trkpt lat="40.0742555" lon="-105.22968">
  <ele>1634.74</ele>
  <time>2026-08-27T18:26:05Z</time>
  <course>114.53</course>
  <speed>4.632116147075762</speed>
  <fix>3d</fix>
</trkpt>
<trkpt lat="40.0742585" lon="-105.2296895">
  <ele>1634.26</ele>
  <time>2026-08-27T18:26:05Z</time>
  <course>112.29</course>
  <speed>4.69</speed>
  <fix>3d</fix>
</trkpt>
<trkpt lat="40.0742519" lon="-105.2296702">
  <ele>1634.97</ele>
  <time>2026-08-27T18:26:05Z</time>
  <course>116.92</course>
  <speed>4.583939353874569</speed>
  <fix>3d</fix>
</trkpt>
<trkpt lat="40.0742552" lon="-105.2296794">
  <ele>1634.52</ele>
  <time>2026-08-27T18:26:05Z</time>
  <course>114.49</course>
  <speed>4.64</speed>
  <fix>3d</fix>
</trkpt>
<trkpt lat="40.0742482" lon="-105.2296608">
  <ele>1635.18</ele>
  <time>2026-08-27T18:26:05Z</time>
  <course>119.21</course>
  <speed>4.53313357403022</speed>
  <fix>3d</fix>
</trkpt>
<trkpt lat="40.0742516" lon="-105.2296695">
  <ele>1634.75</ele>
  <time>2026-08-27T18:26:05Z</time>
  <course>116.66</course>
  <speed>4.6</speed>
  <fix>3d</fix>
</trkpt>
<trkpt lat="40.0742441" lon="-105.2296516">
  <ele>1635.36</ele>
  <time>2026-08-27T18:26:05Z</time>
  <course>121.41</course>
  <speed>4.496776623315862</speed>
  <fix>3d</fix>
</trkpt>
<trkpt lat="40.0742478" lon="-105.22966">
  <ele>1634.96</ele>
  <time>2026-08-27T18:26:05Z</time>
  <course>118.78</course>
  <speed>4.55</speed>
  <fix>3d</fix>
</trkpt>
<trkpt lat="40.0742399" lon="-105.2296426">
  <ele>1635.52</ele>
  <time>2026-08-27T18:26:05Z</time>
  <course>123.48</course>
  <speed>4.452246623896749</speed>
  <fix>3d</fix>
</trkpt>
<trkpt lat="40.0742438" lon="-105.2296509">
  <ele>1635.14</ele>
  <time>2026-08-27T18:26:05Z</time>
  <course>120.83</course>
  <speed>4.5</speed>
  <fix>3d</fix>
</trkpt>
<trkpt lat="40.0742355" lon="-105.2296339">
  <ele>1635.67</ele>
  <time>2026-08-27T18:26:05Z</time>
  <course>125.42</course>
  <speed>4.424081825644729</speed>
  <fix>3d</fix>
</trkpt>
<trkpt lat="40.0742395" lon="-105.2296419">
  <ele>1635.31</ele>
  <time>2026-08-27T18:26:05Z</time>
  <course>122.77</course>
  <speed>4.46</speed>
  <fix>3d</fix>
</trkpt>
<trkpt lat="40.0742309" lon="-105.2296254">
  <ele>1635.8</ele>
  <time>2026-08-27T18:26:05Z</time>
  <course>127.17</course>
  <speed>4.402465218488387</speed>
  <fix>3d</fix>
</trkpt>
<trkpt lat="40.0742351" lon="-105.2296332">
  <ele>1635.45</ele>
  <time>2026-08-27T18:26:05Z</time>
  <course>124.56</course>
  <speed>4.43</speed>
  <fix>3d</fix>
</trkpt>
<trkpt lat="40.0742262" lon="-105.2296171">
  <ele>1635.91</ele>
  <time>2026-08-27T18:26:05Z</time>
  <course>128.73</course>
  <speed>4.386262646034776</speed>
  <fix>3d</fix>
</trkpt>
<trkpt lat="40.0742305" lon="-105.2296247">
  <ele>1635.58</ele>
  <time>2026-08-27T18:26:05Z</time>
  <course>126.19</course>
  <speed>4.4</speed>
  <fix>3d</fix>
</trkpt>
<trkpt lat="40.0742213" lon="-105.229609">
  <ele>1636.0</ele>
  <time>2026-08-27T18:26:05Z</time>
  <course>130.1</course>
  <speed>4.382236871735712</speed>
  <fix>3d</fix>
</trkpt>
<trkpt lat="40.0742257" lon="-105.2296164">
  <ele>1635.7</ele>
  <time>2026-08-27T18:26:05Z</time>
  <course>127.64</course>
  <speed>4.39</speed>
  <fix>3d</fix>
</trkpt>
<trkpt lat="40.0742163" lon="-105.229601">
  <ele>1636.08</ele>
  <time>2026-08-27T18:26:05Z</time>
  <course>131.3</course>
  <speed>4.395509071768593</speed>
  <fix>3d</fix>
</trkpt>
<trkpt lat="40.0742208" lon="-105.2296083">
  <ele>1635.79</ele>
  <time>2026-08-27T18:26:05Z</time>
  <course>128.89</course>
  <speed>4.38</speed>
  <fix>3d</fix>
</trkpt>
<trkpt lat="40.0742112" lon="-105.2295931">
  <ele>1636.14</ele>
  <time>2026-08-27T18:26:05Z</time>
  <course>132.3</course>
  <speed>4.411280993090329</speed>
  <fix>3d</fix>
</trkpt>
<trkpt lat="40.0742158" lon="-105.2296004">
  <ele>1635.87</ele>
  <time>2026-08-27T18:26:05Z</time>
  <course>129.97</course>
  <speed>4.39</speed>
  <fix>3d</fix>
</trkpt>
<trkpt lat="40.0742059" lon="-105.2295852">
  <ele>1636.18</ele>
  <time>2026-08-27T18:26:05Z</time>
  <course>133.14</course>
  <speed>4.449629198034371</speed>
  <fix>3d</fix>
</trkpt>
<trkpt lat="40.0742106" lon="-105.2295925">
  <ele>1635.94</ele>
  <time>2026-08-27T18:26:05Z</time>
  <course>130.87</course>
  <speed>4.41</speed>
  <fix>3d</fix>
</trkpt>
<trkpt lat="40.0742006" lon="-105.2295774">
  <ele>1636.2</ele>
  <time>2026-08-27T18:26:05Z</time>
  <course>133.84</course>
  <speed>4.496187273679778</speed>
  <fix>3d</fix>
</trkpt>
<trkpt lat="40.0742054" lon="-105.2295848">
  <ele>1635.98</ele>
  <time>2026-08-27T18:26:05Z</time>
  <course>131.63</course>
  <speed>4.44</speed>
  <fix>3d</fix>
</trkpt>
<trkpt lat="40.0741951" lon="-105.2295696">
  <ele>1636.21</ele>
  <time>2026-08-27T18:26:05Z</time>
  <course>134.41</course>
  <speed>4.558069766907917</speed>
  <fix>3d</fix>
</trkpt>
<trkpt lat="40.0742001" lon="-105.229577">
  <ele>1636.01</ele>
  <time>2026-08-27T18:26:05Z</time>
  <course>132.25</course>
  <speed>4.49</speed>
  <fix>3d</fix>
</trkpt>
<trkpt lat="40.0741895" lon="-105.2295617">
  <ele>1636.19</ele>
  <time>2026-08-27T18:26:05Z</time>
  <course>134.98</course>
  <speed>4.641723817721171</speed>
  <fix>3d</fix>
</trkpt>
<trkpt lat="40.0741946" lon="-105.2295691">
  <ele>1636.02</ele>
  <time>2026-08-27T18:26:05Z</time>
  <course>132.76</course>
  <speed>4.55</speed>
  <fix>3d</fix>
</trkpt>
<trkpt lat="40.0741836" lon="-105.2295536">
  <ele>1636.16</ele>
  <time>2026-08-27T18:26:05Z</time>
  <course>135.35</course>
  <speed>4.761144820313702</speed>
  <fix>3d</fix>
</trkpt>
<trkpt lat="40.0741889" lon="-105.2295612">
  <ele>1636.01</ele>
  <time>2026-08-27T18:26:05Z</time>
  <course>133.17</course>
  <speed>4.64</speed>
  <fix>3d</fix>
</trkpt>
<trkpt lat="40.0741776" lon="-105.2295454">
  <ele>1636.1</ele>
  <time>2026-08-27T18:26:05Z</time>
  <course>135.4</course>
  <speed>4.944501997168167</speed>
  <fix>3d</fix>
</trkpt>
<trkpt lat="40.0741831" lon="-105.2295532">
  <ele>1635.99</ele>
  <time>2026-08-27T18:26:05Z</time>
  <course>133.48</course>
  <speed>4.76</speed>
  <fix>3d</fix>
</trkpt>
<trkpt lat="40.0741713" lon="-105.2295368">
  <ele>1636.02</ele>
  <time>2026-08-27T18:26:05Z</time>
  <course>135.25</course>
  <speed>5.1779532635975</speed>
  <fix>3d</fix>
</trkpt>
<trkpt lat="40.0741771" lon="-105.229545">
  <ele>1635.94</ele>
  <time>2026-08-27T18:26:05Z</time>
  <course>133.65</course>
  <speed>4.93</speed>
  <fix>3d</fix>
</trkpt>
<trkpt lat="40.0741648" lon="-105.2295278">
  <ele>1635.93</ele>
  <time>2026-08-27T18:26:05Z</time>
  <course>134.85</course>
  <speed>5.440082719959321</speed>
  <fix>3d</fix>
</trkpt>
<trkpt lat="40.0741709" lon="-105.2295364">
  <ele>1635.87</ele>
  <time>2026-08-27T18:26:05Z</time>
  <course>133.66</course>
  <speed>5.16</speed>
  <fix>3d</fix>
</trkpt>
<trkpt lat="40.0741579" lon="-105.2295183">
  <ele>1635.81</ele>
  <time>2026-08-27T18:26:05Z</time>
  <course>134.51</course>
  <speed>5.6812762650658</speed>
  <fix>3d</fix>
</trkpt>
<trkpt lat="40.0741643" lon="-105.2295274">
  <ele>1635.78</ele>
  <time>2026-08-27T18:26:05Z</time>
  <course>133.56</course>
  <speed>5.41</speed>
  <fix>3d</fix>
</trkpt>
<trkpt lat="40.0741508" lon="-105.2295084">
  <ele>1635.7</ele>
  <time>2026-08-27T18:26:05Z</time>
  <course>134.37</course>
  <speed>5.851880039782087</speed>
  <fix>3d</fix>
</trkpt>
<trkpt lat="40.0741575" lon="-105.2295179">
  <ele>1635.67</ele>
  <time>2026-08-27T18:26:05Z</time>
  <course>133.36</course>
  <speed>5.65</speed>
  <fix>3d</fix>
</trkpt>
<trkpt lat="40.0741436" lon="-105.2294983">
  <ele>1635.59</ele>
  <time>2026-08-27T18:26:05Z</time>
  <course>134.48</course>
  <speed>5.951344385934997</speed>
  <fix>3d</fix>
</trkpt>
<trkpt lat="40.0741504" lon="-105.2295081">
  <ele>1635.57</ele>
  <time>2026-08-27T18:26:05Z</time>
  <course>133.12</course>
  <speed>5.83</speed>
  <fix>3d</fix>
</trkpt>
<trkpt lat="40.0741363" lon="-105.229488">
  <ele>1635.46</ele>
  <time>2026-08-27T18:26:05Z</time>
  <course>134.84</course>
  <speed>6.000533309631736</speed>
  <fix>3d</fix>
</trkpt>
<trkpt lat="40.0741432" lon="-105.229498">
  <ele>1635.46</ele>
  <time>2026-08-27T18:26:05Z</time>
  <course>132.98</course>
  <speed>5.94</speed>
  <fix>3d</fix>
</trkpt>
<trkpt lat="40.0741289" lon="-105.2294778">
  <ele>1635.32</ele>
  <time>2026-08-27T18:26:05Z</time>
  <course>135.4</course>
  <speed>6.0278022528944994</speed>
  <fix>3d</fix>
</trkpt>
<trkpt lat="40.0741359" lon="-105.2294877">
  <ele>1635.34</ele>
  <time>2026-08-27T18:26:05Z</time>
  <course>133.04</course>
  <speed>6.0</speed>
  <fix>3d</fix>
</trkpt>
<trkpt lat="40.0741215" lon="-105.2294675">
  <ele>1635.15</ele>
  <time>2026-08-27T18:26:05Z</time>
  <course>136.09</course>
  <speed>6.040347672112922</speed>
  <fix>3d</fix>
</trkpt>
<trkpt lat="40.0741285" lon="-105.2294774">
  <ele>1635.2</ele>
  <time>2026-08-27T18:26:05Z</time>
  <course>133.33</course>
  <speed>6.03</speed>
  <fix>3d</fix>
</trkpt>
<trkpt lat="40.0741139" lon="-105.2294573">
  <ele>1634.95</ele>
  <time>2026-08-27T18:26:05Z</time>
  <course>136.87</course>
  <speed>6.0321223462393405</speed>
  <fix>3d</fix>
</trkpt>
<trkpt lat="40.074121" lon="-105.2294671">
  <ele>1635.04</ele>
  <time>2026-08-27T18:26:05Z</time>
  <course>133.79</course>
  <speed>6.04</speed>
  <fix>3d</fix>
</trkpt>
<trkpt lat="40.0741062" lon="-105.2294472">
  <ele>1634.72</ele>
  <time>2026-08-27T18:26:05Z</time>
  <course>137.73</course>
  <speed>6.010407640085654</speed>
  <fix>3d</fix>
</trkpt>
<trkpt lat="40.0741134" lon="-105.2294569">
  <ele>1634.85</ele>
  <time>2026-08-27T18:26:05Z</time>
  <course>134.39</course>
  <speed>6.03</speed>
  <fix>3d</fix>
</trkpt>
<trkpt lat="40.0740985" lon="-105.2294373">
  <ele>1634.47</ele>
  <time>2026-08-27T18:26:05Z</time>
  <course>138.67</course>
  <speed>5.975759365971826</speed>
  <fix>3d</fix>
</trkpt>
<trkpt lat="40.0741058" lon="-105.2294469">
  <ele>1634.63</ele>
  <time>2026-08-27T18:26:05Z</time>
  <course>135.09</course>
  <speed>6.01</speed>
  <fix>3d</fix>
</trkpt>
<trkpt lat="40.0740908" lon="-105.2294277">
  <ele>1634.19</ele>
  <time>2026-08-27T18:26:05Z</time>
  <course>139.66</course>
  <speed>5.935259050791297</speed>
  <fix>3d</fix>
</trkpt>
<trkpt lat="40.0740981" lon="-105.2294369">
  <ele>1634.39</ele>
  <time>2026-08-27T18:26:05Z</time>
  <course>135.88</course>
  <speed>5.98</speed>
  <fix>3d</fix>
</trkpt>
<trkpt lat="40.074083" lon="-105.2294183">
  <ele>1633.89</ele>
  <time>2026-08-27T18:26:05Z</time>
  <course>140.72</course>
  <speed>5.88992359882537</speed>
  <fix>3d</fix>
</trkpt>
<trkpt lat="40.0740904" lon="-105.2294273">
  <ele>1634.12</ele>
  <time>2026-08-27T18:26:05Z</time>
  <course>136.77</course>
  <speed>5.94</speed>
  <fix>3d</fix>
</trkpt>
<trkpt lat="40.0740751" lon="-105.2294092">
  <ele>1633.57</ele>
  <time>2026-08-27T18:26:05Z</time>
  <course>141.6</course>
  <speed>5.81835887514684</speed>
  <fix>3d</fix>
</trkpt>
<trkpt lat="40.0740825" lon="-105.2294179">
  <ele>1633.83</ele>
  <time>2026-08-27T18:26:05Z</time>
  <course>137.75</course>
  <speed>5.89</speed>
  <fix>3d</fix>
</trkpt>
<trkpt lat="40.0740673" lon="-105.2294004">
  <ele>1633.26</ele>
  <time>2026-08-27T18:26:05Z</time>
  <course>142.88</course>
  <speed>5.691344305170792</speed>
  <fix>3d</fix>
</trkpt>
<trkpt lat="40.0740747" lon="-105.2294087">
  <ele>1633.52</ele>
  <time>2026-08-27T18:26:05Z</time>
  <course>138.8</course>
  <speed>5.82</speed>
  <fix>3d</fix>
</trkpt>
<trkpt lat="40.0740596" lon="-105.229392">
  <ele>1632.94</ele>
  <time>2026-08-27T18:26:05Z</time>
  <course>144.22</course>
  <speed>5.474029594366475</speed>
  <fix>3d</fix>
</trkpt>
<trkpt lat="40.0740668" lon="-105.2293998">
  <ele>1633.2</ele>
  <time>2026-08-27T18:26:05Z</time>
  <course>139.86</course>
  <speed>5.69</speed>
  <fix>3d</fix>
</trkpt>
<trkpt lat="40.0740521" lon="-105.2293842">
  <ele>1632.63</ele>
  <time>2026-08-27T18:26:05Z</time>
  <course>145.53</course>
  <speed>5.200961449578338</speed>
  <fix>3d</fix>
</trkpt>
<trkpt lat="40.0740591" lon="-105.2293915">
  <ele>1632.89</ele>
  <time>2026-08-27T18:26:05Z</time>
  <course>140.89</course>
  <speed>5.48</speed>
  <fix>3d</fix>
</trkpt>
<trkpt lat="40.0740449" lon="-105.229377">
  <ele>1632.32</ele>
  <time>2026-08-27T18:26:05Z</time>
  <course>146.84</course>
  <speed>4.880010245890883</speed>
  <fix>3d</fix>
</trkpt>
<trkpt lat="40.0740516" lon="-105.2293837">
  <ele>1632.57</ele>
  <time>2026-08-27T18:26:05Z</time>
  <course>141.98</course>
  <speed>5.21</speed>
  <fix>3d</fix>
</trkpt>
<trkpt lat="40.0740381" lon="-105.2293705">
  <ele>1632.01</ele>
  <time>2026-08-27T18:26:05Z</time>
  <course>148.26</course>
  <speed>4.53948234934337</speed>
  <fix>3d</fix>
</trkpt>
<trkpt lat="40.0740444" lon="-105.2293765">
  <ele>1632.26</ele>
  <time>2026-08-27T18:26:05Z</time>
  <course>143.18</course>
  <speed>4.89</speed>
  <fix>3d</fix>
</trkpt>
<trkpt lat="40.0740316" lon="-105.2293646">
  <ele>1631.69</ele>
  <time>2026-08-27T18:26:05Z</time>
  <course>149.65</course>
  <speed>4.210178143499394</speed>
  <fix>3d</fix>
</trkpt>
<trkpt lat="40.0740375" lon="-105.2293699">
  <ele>1631.95</ele>
  <time>2026-08-27T18:26:05Z</time>
  <course>144.52</course>
  <speed>4.55</speed>
  <fix>3d</fix>
</trkpt>
<trkpt lat="40.0740254" lon="-105.2293593">
  <ele>1631.37</ele>
  <time>2026-08-27T18:26:05Z</time>
  <course>151.09</course>
  <speed>3.9008204265256814</speed>
  <fix>3d</fix>
</trkpt>
<trkpt lat="40.074031" lon="-105.2293641">
  <ele>1631.64</ele>
  <time>2026-08-27T18:26:05Z</time>
  <course>146.0</course>
  <speed>4.21</speed>
  <fix>3d</fix>
</trkpt>
<trkpt lat="40.0740196" lon="-105.2293547">
  <ele>1631.05</ele>
  <time>2026-08-27T18:26:05Z</time>
  <course>152.58</course>
  <speed>3.6084622763720287</speed>
  <fix>3d</fix>
</trkpt>
<trkpt lat="40.0740249" lon="-105.2293588">
  <ele>1631.32</ele>
  <time>2026-08-27T18:26:05Z</time>
  <course>147.61</course>
  <speed>3.89</speed>
  <fix>3d</fix>
</trkpt>
<trkpt lat="40.0740142" lon="-105.2293506">
  <ele>1630.73</ele>
  <time>2026-08-27T18:26:05Z</time>
  <course>154.06</course>
  <speed>3.348029271078734</speed>
  <fix>3d</fix>
</trkpt>
<trkpt lat="40.0740191" lon="-105.2293542">
  <ele>1631.0</ele>
  <time>2026-08-27T18:26:05Z</time>
  <course>149.27</course>
  <speed>3.6</speed>
  <fix>3d</fix>
</trkpt>
<trkpt lat="40.0740091" lon="-105.229347">
  <ele>1630.41</ele>
  <time>2026-08-27T18:26:05Z</time>
  <course>155.42</course>
  <speed>3.117338608492828</speed>
  <fix>3d</fix>
</trkpt>
<trkpt lat="40.0740138" lon="-105.2293502">
  <ele>1630.68</ele>
  <time>2026-08-27T18:26:05Z</time>
  <course>150.91</course>
  <speed>3.33</speed>
  <fix>3d</fix>
</trkpt>
<trkpt lat="40.0740042" lon="-105.2293437">
  <ele>1630.09</ele>
  <time>2026-08-27T18:26:05Z</time>
  <course>156.66</course>
  <speed>2.9069743720920553</speed>
  <fix>3d</fix>
</trkpt>
<trkpt lat="40.0740087" lon="-105.2293466">
  <ele>1630.37</ele>
  <time>2026-08-27T18:26:05Z</time>
  <course>152.45</course>
  <speed>3.09</speed>
  <fix>3d</fix>
</trkpt>
<trkpt lat="40.0739997" lon="-105.2293409">
  <ele>1629.78</ele>
  <time>2026-08-27T18:26:05Z</time>
  <course>157.69</course>
  <speed>2.7378823933836163</speed>
  <fix>3d</fix>
</trkpt>
<trkpt lat="40.0740039" lon="-105.2293435">
  <ele>1630.05</ele>
  <time>2026-08-27T18:26:05Z</time>
  <course>153.83</course>
  <speed>2.88</speed>
  <fix>3d</fix>
</trkpt>
<trkpt lat="40.0739953" lon="-105.2293382">
  <ele>1629.47</ele>
  <time>2026-08-27T18:26:05Z</time>
  <course>158.5</course>
  <speed>2.596247291765559</speed>
  <fix>3d</fix>
</trkpt>
<trkpt lat="40.0739994" lon="-105.2293406">
  <ele>1629.74</ele>
  <time>2026-08-27T18:26:05Z</time>
  <course>155.0</course>
  <speed>2.7</speed>
  <fix>3d</fix>
</trkpt>
<trkpt lat="40.0739912" lon="-105.2293358">
  <ele>1629.17</ele>
  <time>2026-08-27T18:26:06Z</time>
  <course>159.01</course>
  <speed>2.4896586111352694</speed>
  <fix>3d</fix>
</trkpt>
<trkpt lat="40.0739951" lon="-105.229338">
  <ele>1629.43</ele>
  <time>2026-08-27T18:26:06Z</time>
  <course>155.91</course>
  <speed>2.56</speed>
  <fix>3d</fix>
</trkpt>
<trkpt lat="40.0739872" lon="-105.2293335">
  <ele>1628.86</ele>
  <time>2026-08-27T18:26:06Z</time>
  <course>159.22</course>
  <speed>2.4095020232404867</speed>
  <fix>3d</fix>
</trkpt>
<trkpt lat="40.073991" lon="-105.2293357">
  <ele>1629.13</ele>
  <time>2026-08-27T18:26:06Z</time>
  <course>156.5</course>
  <speed>2.45</speed>
  <fix>3d</fix>
</trkpt>
<trkpt lat="40.0739833" lon="-105.2293313">
  <ele>1628.56</ele>
  <time>2026-08-27T18:26:06Z</time>
  <course>159.08</course>
  <speed>2.3596821819897698</speed>
  <fix>3d</fix>
</trkpt>
<trkpt lat="40.073987" lon="-105.2293335">
  <ele>1628.83</ele>
  <time>2026-08-27T18:26:06Z</time>
  <course>156.75</course>
  <speed>2.37</speed>
  <fix>3d</fix>
</trkpt>
<trkpt lat="40.0739794" lon="-105.2293291">
  <ele>1628.27</ele>
  <time>2026-08-27T18:26:06Z</time>
  <course>158.67</course>
  <speed>2.3322521304524515</speed>
  <fix>3d</fix>
</trkpt>
<trkpt lat="40.0739831" lon="-105.2293312">
  <ele>1628.53</ele>
  <time>2026-08-27T18:26:06Z</time>
  <course>156.66</course>
  <speed>2.31</speed>
  <fix>3d</fix>
</trkpt>
<trkpt lat="40.0739757" lon="-105.2293269">
  <ele>1627.97</ele>
  <time>2026-08-27T18:26:06Z</time>
  <course>158.01</course>
  <speed>2.3313729860320507</speed>
  <fix>3d</fix>
</trkpt>
<trkpt lat="40.0739793" lon="-105.2293291">
  <ele>1628.24</ele>
  <time>2026-08-27T18:26:06Z</time>
  <course>156.29</course>
  <speed>2.29</speed>
  <fix>3d</fix>
</trkpt>
<trkpt lat="40.0739719" lon="-105.2293246">
  <ele>1627.67</ele>
  <time>2026-08-27T18:26:06Z</time>
  <course>157.2</course>
  <speed>2.3392733914615453</speed>
  <fix>3d</fix>
</trkpt>
<trkpt lat="40.0739756" lon="-105.2293268">
  <ele>1627.94</ele>
  <time>2026-08-27T18:26:06Z</time>
  <course>155.7</course>
  <speed>2.28</speed>
  <fix>3d</fix>
</trkpt>
<trkpt lat="40.0739681" lon="-105.2293223">
  <ele>1627.38</ele>
  <time>2026-08-27T18:26:06Z</time>
  <course>156.3</course>
  <speed>2.3657768280207665</speed>
  <fix>3d</fix>
</trkpt>
<trkpt lat="40.0739718" lon="-105.2293247">
  <ele>1627.65</ele>
  <time>2026-08-27T18:26:06Z</time>
  <course>154.97</course>
  <speed>2.3</speed>
  <fix>3d</fix>
</trkpt>
<trkpt lat="40.0739643" lon="-105.2293198">
  <ele>1627.08</ele>
  <time>2026-08-27T18:26:06Z</time>
  <course>155.38</course>
  <speed>2.4061587645041214</speed>
  <fix>3d</fix>
</trkpt>
<trkpt lat="40.0739681" lon="-105.2293224">
  <ele>1627.35</ele>
  <time>2026-08-27T18:26:06Z</time>
  <course>154.17</course>
  <speed>2.33</speed>
  <fix>3d</fix>
</trkpt>
<trkpt lat="40.0739605" lon="-105.2293173">
  <ele>1626.79</ele>
  <time>2026-08-27T18:26:06Z</time>
  <course>154.53</course>
  <speed>2.4512241839538054</speed>
  <fix>3d</fix>
</trkpt>
<trkpt lat="40.0739643" lon="-105.2293199">
  <ele>1627.06</ele>
  <time>2026-08-27T18:26:06Z</time>
  <course>153.39</course>
  <speed>2.36</speed>
  <fix>3d</fix>
</trkpt>
<trkpt lat="40.0739566" lon="-105.2293146">
  <ele>1626.49</ele>
  <time>2026-08-27T18:26:06Z</time>
  <course>153.79</course>
  <speed>2.492428534582286</speed>
  <fix>3d</fix>
</trkpt>
<trkpt lat="40.0739604" lon="-105.2293173">
  <ele>1626.77</ele>
  <time>2026-08-27T18:26:06Z</time>
  <course>152.68</course>
  <speed>2.41</speed>
  <fix>3d</fix>
</trkpt>
<trkpt lat="40.0739527" lon="-105.2293118">
  <ele>1626.2</ele>
  <time>2026-08-27T18:26:06Z</time>
  <course>153.23</course>
  <speed>2.533140343526193</speed>
  <fix>3d</fix>
</trkpt>
<trkpt lat="40.0739565" lon="-105.2293147">
  <ele>1626.47</ele>
  <time>2026-08-27T18:26:06Z</time>
  <course>152.11</course>
  <speed>2.46</speed>
  <fix>3d</fix>
</trkpt>
<trkpt lat="40.0739487" lon="-105.229309">
  <ele>1625.92</ele>
  <time>2026-08-27T18:26:06Z</time>
  <course>152.85</course>
  <speed>2.5826536740337445</speed>
  <fix>3d</fix>
</trkpt>
<trkpt lat="40.0739526" lon="-105.2293119">
  <ele>1626.19</ele>
  <time>2026-08-27T18:26:06Z</time>
  <course>151.68</course>
  <speed>2.5</speed>
  <fix>3d</fix>
</trkpt>
<trkpt lat="40.0739447" lon="-105.2293061">
  <ele>1625.63</ele>
  <time>2026-08-27T18:26:06Z</time>
  <course>152.65</course>
  <speed>2.6098467387952113</speed>
  <fix>3d</fix>
</trkpt>
<trkpt lat="40.0739486" lon="-105.2293091">
  <ele>1625.9</ele>
  <time>2026-08-27T18:26:06Z</time>
  <course>151.43</course>
  <speed>2.55</speed>
  <fix>3d</fix>
</trkpt>
<trkpt lat="40.0739405" lon="-105.2293032">
  <ele>1625.35</ele>
  <time>2026-08-27T18:26:06Z</time>
  <course>152.65</course>
  <speed>2.6409278672466616</speed>
  <fix>3d</fix>
</trkpt>
<trkpt lat="40.0739446" lon="-105.2293062">
  <ele>1625.62</ele>
  <time>2026-08-27T18:26:06Z</time>
  <course>151.35</course>
  <speed>2.58</speed>
  <fix>3d</fix>
</trkpt>
<trkpt lat="40.0739364" lon="-105.2293002">
  <ele>1625.07</ele>
  <time>2026-08-27T18:26:06Z</time>
  <course>152.84</course>
  <speed>2.658439391823707</speed>
  <fix>3d</fix>
</trkpt>
<trkpt lat="40.0739404" lon="-105.2293033">
  <ele>1625.33</ele>
  <time>2026-08-27T18:26:06Z</time>
  <course>151.45</course>
  <speed>2.61</speed>
  <fix>3d</fix>
</trkpt>
<trkpt lat="40.0739322" lon="-105.2292973">
  <ele>1624.78</ele>
  <time>2026-08-27T18:26:06Z</time>
  <course>153.16</course>
  <speed>2.671216951129204</speed>
  <fix>3d</fix>
</trkpt>
<trkpt lat="40.0739363" lon="-105.2293004">
  <ele>1625.05</ele>
  <time>2026-08-27T18:26:06Z</time>
  <course>151.71</course>
  <speed>2.64</speed>
  <fix>3d</fix>
</trkpt>
<trkpt lat="40.073928" lon="-105.2292944">
  <ele>1624.5</ele>
  <time>2026-08-27T18:26:06Z</time>
  <course>153.64</course>
  <speed>2.679440240050149</speed>
  <fix>3d</fix>
</trkpt>
<trkpt lat="40.073932" lon="-105.2292974">
  <ele>1624.77</ele>
  <time>2026-08-27T18:26:06Z</time>
  <course>152.12</course>
  <speed>2.65</speed>
  <fix>3d</fix>
</trkpt>
<trkpt lat="40.0739238" lon="-105.2292916">
  <ele>1624.22</ele>
  <time>2026-08-27T18:26:06Z</time>
  <course>154.28</course>
  <speed>2.674471910489994</speed>
  <fix>3d</fix>
</trkpt>
<trkpt lat="40.0739279" lon="-105.2292945">
  <ele>1624.49</ele>
  <time>2026-08-27T18:26:06Z</time>
  <course>152.67</course>
  <speed>2.66</speed>
  <fix>3d</fix>
</trkpt>
<trkpt lat="40.0739195" lon="-105.2292889">
  <ele>1623.94</ele>
  <time>2026-08-27T18:26:06Z</time>
  <course>155.01</course>
  <speed>2.6654267950930484</speed>
  <fix>3d</fix>
</trkpt>
<trkpt lat="40.0739236" lon="-105.2292916">
  <ele>1624.2</ele>
  <time>2026-08-27T18:26:06Z</time>
  <course>153.34</course>
  <speed>2.66</speed>
  <fix>3d</fix>
</trkpt>
<trkpt lat="40.0739152" lon="-105.2292862">
  <ele>1623.65</ele>
  <time>2026-08-27T18:26:06Z</time>
  <course>155.81</course>
  <speed>2.6479614800823668</speed>
  <fix>3d</fix>
</trkpt>
<trkpt lat="40.0739193" lon="-105.2292889">
  <ele>1623.92</ele>
  <time>2026-08-27T18:26:06Z</time>
  <course>154.11</course>
  <speed>2.65</speed>
  <fix>3d</fix>
</trkpt>
<trkpt lat="40.0739109" lon="-105.2292836">
  <ele>1623.37</ele>
  <time>2026-08-27T18:26:06Z</time>
  <course>156.69</course>
  <speed>2.6268231763862597</speed>
  <fix>3d</fix>
</trkpt>
<trkpt lat="40.073915" lon="-105.2292862">
  <ele>1623.63</ele>
  <time>2026-08-27T18:26:06Z</time>
  <course>154.96</course>
  <speed>2.63</speed>
  <fix>3d</fix>
</trkpt>
<trkpt lat="40.0739067" lon="-105.2292812">
  <ele>1623.08</ele>
  <time>2026-08-27T18:26:06Z</time>
  <course>157.66</course>
  <speed>2.5973062969160954</speed>
  <fix>3d</fix>
</trkpt>
<trkpt lat="40.0739107" lon="-105.2292837">
  <ele>1623.35</ele>
  <time>2026-08-27T18:26:06Z</time>
  <course>155.89</course>
  <speed>2.61</speed>
  <fix>3d</fix>
</trkpt>
<trkpt lat="40.0739024" lon="-105.2292789">
  <ele>1622.79</ele>
  <time>2026-08-27T18:26:06Z</time>
  <course>158.67</course>
  <speed>2.5738686835190325</speed>
  <fix>3d</fix>
</trkpt>
<trkpt lat="40.0739064" lon="-105.2292813">
  <ele>1623.06</ele>
  <time>2026-08-27T18:26:06Z</time>
  <course>156.88</course>
  <speed>2.59</speed>
  <fix>3d</fix>
</trkpt>
<trkpt lat="40.0738981" lon="-105.2292767">
  <ele>1622.5</ele>
  <time>2026-08-27T18:26:06Z</time>
  <course>159.72</course>
  <speed>2.545937941113255</speed>
  <fix>3d</fix>
</trkpt>
<trkpt lat="40.0739022" lon="-105.2292789">
  <ele>1622.77</ele>
  <time>2026-08-27T18:26:06Z</time>
  <course>157.91</course>
  <speed>2.56</speed>
  <fix>3d</fix>
</trkpt>
<trkpt lat="40.0738939" lon="-105.2292746">
  <ele>1622.21</ele>
  <time>2026-08-27T18:26:06Z</time>
  <course>160.76</course>
  <speed>2.505873101336139</speed>
  <fix>3d</fix>
</trkpt>
<trkpt lat="40.0738979" lon="-105.2292767">
  <ele>1622.49</ele>
  <time>2026-08-27T18:26:06Z</time>
  <course>158.95</course>
  <speed>2.53</speed>
  <fix>3d</fix>
</trkpt>
<trkpt lat="40.0738897" lon="-105.2292726">
  <ele>1621.92</ele>
  <time>2026-08-27T18:26:06Z</time>
  <course>161.77</course>
  <speed>2.479516081819192</speed>
  <fix>3d</fix>
</trkpt>
<trkpt lat="40.0738937" lon="-105.2292746">
  <ele>1622.2</ele>
  <time>2026-08-27T18:26:06Z</time>
  <course>159.99</course>
  <speed>2.5</speed>
  <fix>3d</fix>
</trkpt>
<trkpt lat="40.0738855" lon="-105.2292708">
  <ele>1621.64</ele>
  <time>2026-08-27T18:26:06Z</time>
  <course>162.76</course>
  <speed>2.4444426767670375</speed>
  <fix>3d</fix>
</trkpt>
<trkpt lat="40.0738894" lon="-105.2292727">
  <ele>1621.91</ele>
  <time>2026-08-27T18:26:06Z</time>
  <course>161.01</course>
  <speed>2.47</speed>
  <fix>3d</fix>
</trkpt>
<trkpt lat="40.0738813" lon="-105.2292691">
  <ele>1621.35</ele>
  <time>2026-08-27T18:26:06Z</time>
  <course>163.68</course>
  <speed>2.4100622398602076</speed>
  <fix>3d</fix>
</trkpt>
<trkpt lat="40.0738853" lon="-105.2292708">
  <ele>1621.62</ele>
  <time>2026-08-27T18:26:06Z</time>
  <course>161.99</course>
  <speed>2.43</speed>
  <fix>3d</fix>
</trkpt>
<trkpt lat="40.0738772" lon="-105.2292675">
  <ele>1621.05</ele>
  <time>2026-08-27T18:26:06Z</time>
  <course>164.54</course>
  <speed>2.3792435772740883</speed>
  <fix>3d</fix>
</trkpt>
<trkpt lat="40.0738811" lon="-105.2292692">
  <ele>1621.33</ele>
  <time>2026-08-27T18:26:06Z</time>
  <course>162.91</course>
  <speed>2.4</speed>
  <fix>3d</fix>
</trkpt>
<trkpt lat="40.0738731" lon="-105.229266">
  <ele>1620.76</ele>
  <time>2026-08-27T18:26:06Z</time>
  <course>165.32</course>
  <speed>2.3488720697390058</speed>
  <fix>3d</fix>
</trkpt>
<trkpt lat="40.073877" lon="-105.2292675">
  <ele>1621.03</ele>
  <time>2026-08-27T18:26:06Z</time>
  <course>163.75</course>
  <speed>2.37</speed>
  <fix>3d</fix>
</trkpt>
<trkpt lat="40.0738691" lon="-105.2292645">
  <ele>1620.47</ele>
  <time>2026-08-27T18:26:06Z</time>
  <course>166.02</course>
  <speed>2.3215727427758965</speed>
  <fix>3d</fix>
</trkpt>
<trkpt lat="40.073873" lon="-105.229266">
  <ele>1620.74</ele>
  <time>2026-08-27T18:26:06Z</time>
  <course>164.52</course>
  <speed>2.33</speed>
  <fix>3d</fix>
</trkpt>
<trkpt lat="40.0738651" lon="-105.2292632">
  <ele>1620.17</ele>
  <time>2026-08-27T18:26:06Z</time>
  <course>166.62</course>
  <speed>2.294515199339503</speed>
  <fix>3d</fix>
</trkpt>
<trkpt lat="40.073869" lon="-105.2292646">
  <ele>1620.45</ele>
  <time>2026-08-27T18:26:06Z</time>
  <course>165.2</course>
  <speed>2.31</speed>
  <fix>3d</fix>
</trkpt>
<trkpt lat="40.0738612" lon="-105.2292619">
  <ele>1619.88</ele>
  <time>2026-08-27T18:26:06Z</time>
  <course>167.11</course>
  <speed>2.267708094089713</speed>
  <fix>3d</fix>
</trkpt>
<trkpt lat="40.073865" lon="-105.2292633">
  <ele>1620.15</ele>
  <time>2026-08-27T18:26:06Z</time>
  <course>165.8</course>
  <speed>2.28</speed>
  <fix>3d</fix>
</trkpt>
<trkpt lat="40.0738572" lon="-105.2292607">
  <ele>1619.58</ele>
  <time>2026-08-27T18:26:06Z</time>
  <course>167.52</course>
  <speed>2.2532199182503247</speed>
  <fix>3d</fix>
</trkpt>
<trkpt lat="40.0738609" lon="-105.229262">
  <ele>1619.86</ele>
  <time>2026-08-27T18:26:06Z</time>
  <course>166.29</course>
  <speed>2.26</speed>
  <fix>3d</fix>
</trkpt>
<trkpt lat="40.0738533" lon="-105.2292595">
  <ele>1619.29</ele>
  <time>2026-08-27T18:26:06Z</time>
  <course>167.84</course>
  <speed>2.2314345161801183</speed>
  <fix>3d</fix>
</trkpt>
<trkpt lat="40.073857" lon="-105.2292607">
  <ele>1619.56</ele>
  <time>2026-08-27T18:26:06Z</time>
  <course>166.69</course>
  <speed>2.24</speed>
  <fix>3d</fix>
</trkpt>
<trkpt lat="40.0738494" lon="-105.2292583">
  <ele>1619.0</ele>
  <time>2026-08-27T18:26:06Z</time>
  <course>168.06</course>
  <speed>2.2193918085818014</speed>
  <fix>3d</fix>
</trkpt>
<trkpt lat="40.0738531" lon="-105.2292596">
  <ele>1619.27</ele>
  <time>2026-08-27T18:26:06Z</time>
  <course>166.98</course>
  <speed>2.22</speed>
  <fix>3d</fix>
</trkpt>
<trkpt lat="40.0738455" lon="-105.2292572">
  <ele>1618.7</ele>
  <time>2026-08-27T18:26:06Z</time>
  <course>168.22</course>
  <speed>2.2073740054644118</speed>
  <fix>3d</fix>
</trkpt>
<trkpt lat="40.0738492" lon="-105.2292583">
  <ele>1618.97</ele>
  <time>2026-08-27T18:26:06Z</time>
  <course>167.2</course>
  <speed>2.21</speed>
  <fix>3d</fix>
</trkpt>
<trkpt lat="40.0738417" lon="-105.229256">
  <ele>1618.41</ele>
  <time>2026-08-27T18:26:06Z</time>
  <course>168.3</course>
  <speed>2.1953815158190615</speed>
  <fix>3d</fix>
</trkpt>
<trkpt lat="40.0738453" lon="-105.2292572">
  <ele>1618.66</ele>
  <time>2026-08-27T18:26:06Z</time>
  <course>167.35</course>
  <speed>2.2</speed>
  <fix>3d</fix>
</trkpt>
<trkpt lat="40.0738378" lon="-105.2292549">
  <ele>1618.1</ele>
  <time>2026-08-27T18:26:06Z</time>
  <course>168.35</course>
  <speed>2.1953815158190615</speed>
  <fix>3d</fix>
</trkpt>
<trkpt lat="40.0738415" lon="-105.2292561">
  <ele>1618.37</ele>
  <time>2026-08-27T18:26:06Z</time>
  <course>167.45</course>
  <speed>2.19</speed>
  <fix>3d</fix>
</trkpt>
<trkpt lat="40.073834" lon="-105.2292538">
  <ele>1617.81</ele>
  <time>2026-08-27T18:26:06Z</time>
  <course>168.34</course>
  <speed>2.1953815158190615</speed>
  <fix>3d</fix>
</trkpt>
<trkpt lat="40.0738377" lon="-105.229255">
  <ele>1618.07</ele>
  <time>2026-08-27T18:26:06Z</time>
  <course>167.51</course>
  <speed>2.18</speed>
  <fix>3d</fix>
</trkpt>
<trkpt lat="40.0738302" lon="-105.2292527">
  <ele>1617.51</ele>
  <time>2026-08-27T18:26:06Z</time>
  <course>168.33</course>
  <speed>2.1953815158190615</speed>
  <fix>3d</fix>
</trkpt>
<trkpt lat="40.0738338" lon="-105.2292539">
  <ele>1617.77</ele>
  <time>2026-08-27T18:26:06Z</time>
  <course>167.54</course>
  <speed>2.18</speed>
  <fix>3d</fix>
</trkpt>
<trkpt lat="40.0738264" lon="-105.2292516">
  <ele>1617.2</ele>
  <time>2026-08-27T18:26:06Z</time>
  <course>168.31</course>
  <speed>2.205130381632796</speed>
  <fix>3d</fix>
</trkpt>
<trkpt lat="40.07383" lon="-105.2292528">
  <ele>1617.48</ele>
  <time>2026-08-27T18:26:06Z</time>
  <course>167.55</course>
  <speed>2.19</speed>
  <fix>3d</fix>
</trkpt>
<trkpt lat="40.0738225" lon="-105.2292505">
  <ele>1616.91</ele>
  <time>2026-08-27T18:26:06Z</time>
  <course>168.32</course>
  <speed>2.205130381632796</speed>
  <fix>3d</fix>
</trkpt>
<trkpt lat="40.0738262" lon="-105.2292517">
  <ele>1617.17</ele>
  <time>2026-08-27T18:26:06Z</time>
  <course>167.57</course>
  <speed>2.19</speed>
  <fix>3d</fix>
</trkpt>
<trkpt lat="40.0738187" lon="-105.2292494">
  <ele>1616.6</ele>
  <time>2026-08-27T18:26:06Z</time>
  <course>168.34</course>
  <speed>2.2148814866714654</speed>
  <fix>3d</fix>
</trkpt>
<trkpt lat="40.0738223" lon="-105.2292506">
  <ele>1616.88</ele>
  <time>2026-08-27T18:26:06Z</time>
  <course>167.6</course>
  <speed>2.2</speed>
  <fix>3d</fix>
</trkpt>
<trkpt lat="40.0738148" lon="-105.2292483">
  <ele>1616.3</ele>
  <time>2026-08-27T18:26:06Z</time>
  <course>168.39</course>
  <speed>2.2224535990656813</speed>
  <fix>3d</fix>
</trkpt>
<trkpt lat="40.0738184" lon="-105.2292495">
  <ele>1616.58</ele>
  <time>2026-08-27T18:26:06Z</time>
  <course>167.66</course>
  <speed>2.21</speed>
  <fix>3d</fix>
</trkpt>
<trkpt lat="40.0738108" lon="-105.2292472">
  <ele>1616.0</ele>
  <time>2026-08-27T18:26:06Z</time>
  <course>168.5</course>
  <speed>2.2419857269840056</speed>
  <fix>3d</fix>
</trkpt>
<trkpt lat="40.0738145" lon="-105.2292483">
  <ele>1616.28</ele>
  <time>2026-08-27T18:26:06Z</time>
  <course>167.76</course>
  <speed>2.22</speed>
  <fix>3d</fix>
</trkpt>
<trkpt lat="40.0738069" lon="-105.2292461">
  <ele>1615.7</ele>
  <time>2026-08-27T18:26:06Z</time>
  <course>168.63</course>
  <speed>2.251754871206011</speed>
  <fix>3d</fix>
</trkpt>
<trkpt lat="40.0738106" lon="-105.2292472">
  <ele>1615.99</ele>
  <time>2026-08-27T18:26:06Z</time>
  <course>167.89</course>
  <speed>2.23</speed>
  <fix>3d</fix>
</trkpt>
<trkpt lat="40.0738029" lon="-105.229245">
  <ele>1615.41</ele>
  <time>2026-08-27T18:26:06Z</time>
  <course>168.8</course>
  <speed>2.2594247055390007</speed>
  <fix>3d</fix>
</trkpt>
<trkpt lat="40.0738067" lon="-105.2292461">
  <ele>1615.69</ele>
  <time>2026-08-27T18:26:06Z</time>
  <course>168.06</course>
  <speed>2.24</speed>
  <fix>3d</fix>
</trkpt>
<trkpt lat="40.073799" lon="-105.229244">
  <ele>1615.11</ele>
  <time>2026-08-27T18:26:06Z</time>
  <course>169.02</course>
  <speed>2.2769497139814048</speed>
  <fix>3d</fix>
</trkpt>
<trkpt lat="40.0738027" lon="-105.2292451">
  <ele>1615.39</ele>
  <time>2026-08-27T18:26:06Z</time>
  <course>168.28</course>
  <speed>2.25</speed>
  <fix>3d</fix>
</trkpt>
<trkpt lat="40.0737949" lon="-105.2292429">
  <ele>1614.81</ele>
  <time>2026-08-27T18:26:07Z</time>
  <course>169.33</course>
  <speed>2.28475381605984</speed>
  <fix>3d</fix>
</trkpt>
<trkpt lat="40.0737988" lon="-105.229244">
  <ele>1615.1</ele>
  <time>2026-08-27T18:26:07Z</time>
  <course>168.56</course>
  <speed>2.26</speed>
  <fix>3d</fix>
</trkpt>
<trkpt lat="40.0737909" lon="-105.2292419">
  <ele>1614.52</ele>
  <time>2026-08-27T18:26:07Z</time>
  <course>169.69</course>
  <speed>2.30243349523933</speed>
  <fix>3d</fix>
</trkpt>
<trkpt lat="40.0737948" lon="-105.229243">
  <ele>1614.8</ele>
  <time>2026-08-27T18:26:07Z</time>
  <course>168.9</course>
  <speed>2.28</speed>
  <fix>3d</fix>
</trkpt>
<trkpt lat="40.0737869" lon="-105.2292409">
  <ele>1614.22</ele>
  <time>2026-08-27T18:26:07Z</time>
  <course>170.09</course>
  <speed>2.3085276693165278</speed>
  <fix>3d</fix>
</trkpt>
<trkpt lat="40.0737907" lon="-105.229242">
  <ele>1614.51</ele>
  <time>2026-08-27T18:26:07Z</time>
  <course>169.29</course>
  <speed>2.29</speed>
  <fix>3d</fix>
</trkpt>
<trkpt lat="40.0737828" lon="-105.22924">
  <ele>1613.93</ele>
  <time>2026-08-27T18:26:07Z</time>
  <course>170.53</course>
  <speed>2.326413548791358</speed>
  <fix>3d</fix>
</trkpt>
<trkpt lat="40.0737866" lon="-105.229241">
  <ele>1614.21</ele>
  <time>2026-08-27T18:26:07Z</time>
  <course>169.73</course>
  <speed>2.3</speed>
  <fix>3d</fix>
</trkpt>
<trkpt lat="40.0737787" lon="-105.2292391">
  <ele>1613.64</ele>
  <time>2026-08-27T18:26:07Z</time>
  <course>171.0</course>
  <speed>2.342690760642556</speed>
  <fix>3d</fix>
</trkpt>
<trkpt lat="40.0737825" lon="-105.22924">
  <ele>1613.91</ele>
  <time>2026-08-27T18:26:07Z</time>
  <course>170.19</course>
  <speed>2.31</speed>
  <fix>3d</fix>
</trkpt>
<trkpt lat="40.0737745" lon="-105.2292382">
  <ele>1613.34</ele>
  <time>2026-08-27T18:26:07Z</time>
  <course>171.49</course>
  <speed>2.3493190502781864</speed>
  <fix>3d</fix>
</trkpt>
<trkpt lat="40.0737784" lon="-105.2292391">
  <ele>1613.62</ele>
  <time>2026-08-27T18:26:07Z</time>
  <course>170.68</course>
  <speed>2.33</speed>
  <fix>3d</fix>
</trkpt>
<trkpt lat="40.0737703" lon="-105.2292374">
  <ele>1613.04</ele>
  <time>2026-08-27T18:26:07Z</time>
  <course>172.0</course>
  <speed>2.3660304309116564</speed>
  <fix>3d</fix>
</trkpt>
<trkpt lat="40.0737742" lon="-105.2292382">
  <ele>1613.32</ele>
  <time>2026-08-27T18:26:07Z</time>
  <course>171.19</course>
  <speed>2.34</speed>
  <fix>3d</fix>
</trkpt>
<trkpt lat="40.0737661" lon="-105.2292366">
  <ele>1612.73</ele>
  <time>2026-08-27T18:26:07Z</time>
  <course>172.51</course>
  <speed>2.382960343774105</speed>
  <fix>3d</fix>
</trkpt>
<trkpt lat="40.0737701" lon="-105.2292375">
  <ele>1613.02</ele>
  <time>2026-08-27T18:26:07Z</time>
  <course>171.7</course>
  <speed>2.35</speed>
  <fix>3d</fix>
</trkpt>
<trkpt lat="40.0737619" lon="-105.2292359">
  <ele>1612.43</ele>
  <time>2026-08-27T18:26:07Z</time>
  <course>173.02</course>
  <speed>2.390188277102873</speed>
  <fix>3d</fix>
</trkpt>
<trkpt lat="40.0737659" lon="-105.2292367">
  <ele>1612.72</ele>
  <time>2026-08-27T18:26:07Z</time>
  <course>172.24</course>
  <speed>2.36</speed>
  <fix>3d</fix>
</trkpt>
<trkpt lat="40.0737576" lon="-105.2292352">
  <ele>1612.13</ele>
  <time>2026-08-27T18:26:07Z</time>
  <course>173.55</course>
  <speed>2.40752985443587</speed>
  <fix>3d</fix>
</trkpt>
<trkpt lat="40.0737616" lon="-105.2292359">
  <ele>1612.41</ele>
  <time>2026-08-27T18:26:07Z</time>
  <course>172.78</course>
  <speed>2.38</speed>
  <fix>3d</fix>
</trkpt>
<trkpt lat="40.0737533" lon="-105.2292346">
  <ele>1611.83</ele>
  <time>2026-08-27T18:26:07Z</time>
  <course>174.05</course>
  <speed>2.415139747509448</speed>
  <fix>3d</fix>
</trkpt>
<trkpt lat="40.0737574" lon="-105.2292353">
  <ele>1612.12</ele>
  <time>2026-08-27T18:26:07Z</time>
  <course>173.31</course>
  <speed>2.39</speed>
  <fix>3d</fix>
</trkpt>
<trkpt lat="40.073749" lon="-105.229234">
  <ele>1611.53</ele>
  <time>2026-08-27T18:26:07Z</time>
  <course>174.53</course>
  <speed>2.4229321080046797</speed>
  <fix>3d</fix>
</trkpt>
<trkpt lat="40.0737531" lon="-105.2292346">
  <ele>1611.82</ele>
  <time>2026-08-27T18:26:07Z</time>
  <course>173.82</course>
  <speed>2.4</speed>
  <fix>3d</fix>
</trkpt>
<trkpt lat="40.0737447" lon="-105.2292334">
  <ele>1611.23</ele>
  <time>2026-08-27T18:26:07Z</time>
  <course>174.98</course>
  <speed>2.4408605040026354</speed>
  <fix>3d</fix>
</trkpt>
<trkpt lat="40.0737488" lon="-105.229234">
  <ele>1611.53</ele>
  <time>2026-08-27T18:26:07Z</time>
  <course>174.31</course>
  <speed>2.41</speed>
  <fix>3d</fix>
</trkpt>
<trkpt lat="40.0737404" lon="-105.2292329">
  <ele>1610.93</ele>
  <time>2026-08-27T18:26:07Z</time>
  <course>175.42</course>
  <speed>2.44989795705862</speed>
  <fix>3d</fix>
</trkpt>
<trkpt lat="40.0737445" lon="-105.2292335">
  <ele>1611.23</ele>
  <time>2026-08-27T18:26:07Z</time>
  <course>174.78</course>
  <speed>2.42</speed>
  <fix>3d</fix>
</trkpt>
<trkpt lat="40.073736" lon="-105.2292325">
  <ele>1610.63</ele>
  <time>2026-08-27T18:26:07Z</time>
  <course>175.82</course>
  <speed>2.458149710656371</speed>
  <fix>3d</fix>
</trkpt>
<trkpt lat="40.0737402" lon="-105.229233">
  <ele>1610.92</ele>
  <time>2026-08-27T18:26:07Z</time>
  <course>175.23</course>
  <speed>2.43</speed>
  <fix>3d</fix>
</trkpt>
<trkpt lat="40.0737316" lon="-105.2292321">
  <ele>1610.32</ele>
  <time>2026-08-27T18:26:07Z</time>
  <course>176.21</course>
  <speed>2.476550019684642</speed>
  <fix>3d</fix>
</trkpt>
<trkpt lat="40.0737357" lon="-105.2292325">
  <ele>1610.63</ele>
  <time>2026-08-27T18:26:07Z</time>
  <course>175.65</course>
  <speed>2.45</speed>
  <fix>3d</fix>
</trkpt>
<trkpt lat="40.0737272" lon="-105.2292317">
  <ele>1610.02</ele>
  <time>2026-08-27T18:26:07Z</time>
  <course>176.59</course>
  <speed>2.495796466060484</speed>
  <fix>3d</fix>
</trkpt>
<trkpt lat="40.0737314" lon="-105.2292322">
  <ele>1610.34</ele>
  <time>2026-08-27T18:26:07Z</time>
  <course>176.05</course>
  <speed>2.46</speed>
  <fix>3d</fix>
</trkpt>
<trkpt lat="40.0737227" lon="-105.2292313">
  <ele>1609.73</ele>
  <time>2026-08-27T18:26:07Z</time>
  <course>176.93</course>
  <speed>2.5144780770569466</speed>
  <fix>3d</fix>
</trkpt>
<trkpt lat="40.0737269" lon="-105.2292317">
  <ele>1610.04</ele>
  <time>2026-08-27T18:26:07Z</time>
  <course>176.43</course>
  <speed>2.48</speed>
  <fix>3d</fix>
</trkpt>
<trkpt lat="40.0737182" lon="-105.229231">
  <ele>1609.43</ele>
  <time>2026-08-27T18:26:07Z</time>
  <course>177.23</course>
  <speed>2.5338705570727167</speed>
  <fix>3d</fix>
</trkpt>
<trkpt lat="40.0737224" lon="-105.2292314">
  <ele>1609.74</ele>
  <time>2026-08-27T18:26:07Z</time>
  <course>176.77</course>
  <speed>2.5</speed>
  <fix>3d</fix>
</trkpt>
<trkpt lat="40.0737136" lon="-105.2292307">
  <ele>1609.13</ele>
  <time>2026-08-27T18:26:07Z</time>
  <course>177.5</course>
  <speed>2.553311575190149</speed>
  <fix>3d</fix>
</trkpt>
<trkpt lat="40.0737179" lon="-105.2292311">
  <ele>1609.45</ele>
  <time>2026-08-27T18:26:07Z</time>
  <course>177.07</course>
  <speed>2.52</speed>
  <fix>3d</fix>
</trkpt>
<trkpt lat="40.073709" lon="-105.2292305">
  <ele>1608.83</ele>
  <time>2026-08-27T18:26:07Z</time>
  <course>177.76</course>
  <speed>2.582789190003706</speed>
  <fix>3d</fix>
</trkpt>
<trkpt lat="40.0737134" lon="-105.2292308">
  <ele>1609.15</ele>
  <time>2026-08-27T18:26:07Z</time>
  <course>177.34</course>
  <speed>2.54</speed>
  <fix>3d</fix>
</trkpt>
<trkpt lat="40.0737044" lon="-105.2292302">
  <ele>1608.53</ele>
  <time>2026-08-27T18:26:07Z</time>
  <course>178.0</course>
  <speed>2.602325882744127</speed>
  <fix>3d</fix>
</trkpt>
<trkpt lat="40.0737088" lon="-105.2292305">
  <ele>1608.85</ele>
  <time>2026-08-27T18:26:07Z</time>
  <course>177.61</course>
  <speed>2.57</speed>
  <fix>3d</fix>
</trkpt>
<trkpt lat="40.0736997" lon="-105.22923">
  <ele>1608.23</ele>
  <time>2026-08-27T18:26:07Z</time>
  <course>178.22</course>
  <speed>2.631900454044567</speed>
  <fix>3d</fix>
</trkpt>
<trkpt lat="40.0737041" lon="-105.2292302">
  <ele>1608.56</ele>
  <time>2026-08-27T18:26:07Z</time>
  <course>177.86</course>
  <speed>2.59</speed>
  <fix>3d</fix>
</trkpt>
<trkpt lat="40.073695" lon="-105.2292298">
  <ele>1607.93</ele>
  <time>2026-08-27T18:26:07Z</time>
  <course>178.44</course>
  <speed>2.661522120892479</speed>
  <fix>3d</fix>
</trkpt>
<trkpt lat="40.0736994" lon="-105.2292301">
  <ele>1608.26</ele>
  <time>2026-08-27T18:26:07Z</time>
  <course>178.1</course>
  <speed>2.62</speed>
  <fix>3d</fix>
</trkpt>
<trkpt lat="40.0736902" lon="-105.2292296">
  <ele>1607.63</ele>
  <time>2026-08-27T18:26:07Z</time>
  <course>178.66</course>
  <speed>2.6911893281595782</speed>
  <fix>3d</fix>
</trkpt>
<trkpt lat="40.0736947" lon="-105.2292299">
  <ele>1607.96</ele>
  <time>2026-08-27T18:26:07Z</time>
  <course>178.35</course>
  <speed>2.65</speed>
  <fix>3d</fix>
</trkpt>
<trkpt lat="40.0736854" lon="-105.2292295">
  <ele>1607.34</ele>
  <time>2026-08-27T18:26:07Z</time>
  <course>178.89</course>
  <speed>2.7209005862030313</speed>
  <fix>3d</fix>
</trkpt>
<trkpt lat="40.07369" lon="-105.2292297">
  <ele>1607.66</ele>
  <time>2026-08-27T18:26:07Z</time>
  <course>178.58</course>
  <speed>2.68</speed>
  <fix>3d</fix>
</trkpt>
<trkpt lat="40.0736805" lon="-105.2292294">
  <ele>1607.04</ele>
  <time>2026-08-27T18:26:07Z</time>
  <course>179.1</course>
  <speed>2.7606520968785615</speed>
  <fix>3d</fix>
</trkpt>
<trkpt lat="40.0736851" lon="-105.2292296">
  <ele>1607.37</ele>
  <time>2026-08-27T18:26:07Z</time>
  <course>178.82</course>
  <speed>2.71</speed>
  <fix>3d</fix>
</trkpt>
<trkpt lat="40.0736755" lon="-105.2292293">
  <ele>1606.74</ele>
  <time>2026-08-27T18:26:07Z</time>
  <course>179.35</course>
  <speed>2.8104448046528154</speed>
  <fix>3d</fix>
</trkpt>
<trkpt lat="40.0736802" lon="-105.2292295">
  <ele>1607.07</ele>
  <time>2026-08-27T18:26:07Z</time>
  <course>179.06</course>
  <speed>2.75</speed>
  <fix>3d</fix>
</trkpt>
<trkpt lat="40.0736704" lon="-105.2292292">
  <ele>1606.45</ele>
  <time>2026-08-27T18:26:07Z</time>
  <course>179.59</course>
  <speed>2.850157890363269</speed>
  <fix>3d</fix>
</trkpt>
<trkpt lat="40.0736751" lon="-105.2292294">
  <ele>1606.77</ele>
  <time>2026-08-27T18:26:07Z</time>
  <course>179.3</course>
  <speed>2.79</speed>
  <fix>3d</fix>
</trkpt>
<trkpt lat="40.0736652" lon="-105.2292292">
  <ele>1606.15</ele>
  <time>2026-08-27T18:26:07Z</time>
  <course>179.8</course>
  <speed>2.9000689646972186</speed>
  <fix>3d</fix>
</trkpt>
<trkpt lat="40.0736701" lon="-105.2292293">
  <ele>1606.47</ele>
  <time>2026-08-27T18:26:07Z</time>
  <course>179.54</course>
  <speed>2.84</speed>
  <fix>3d</fix>
</trkpt>
<trkpt lat="40.07366" lon="-105.2292292">
  <ele>1605.84</ele>
  <time>2026-08-27T18:26:07Z</time>
  <course>179.99</course>
  <speed>2.9600168918436935</speed>
  <fix>3d</fix>
</trkpt>
<trkpt lat="40.073665" lon="-105.2292293">
  <ele>1606.16</ele>
  <time>2026-08-27T18:26:07Z</time>
  <course>179.79</course>
  <speed>2.89</speed>
  <fix>3d</fix>
</trkpt>
<trkpt lat="40.0736546" lon="-105.2292292">
  <ele>1605.54</ele>
  <time>2026-08-27T18:26:07Z</time>
  <course>180.17</course>
  <speed>3.01</speed>
  <fix>3d</fix>
</trkpt>
<trkpt lat="40.0736597" lon="-105.2292293">
  <ele>1605.87</ele>
  <time>2026-08-27T18:26:07Z</time>
  <course>180.05</course>
  <speed>2.94</speed>
  <fix>3d</fix>
</trkpt>
<trkpt lat="40.0736492" lon="-105.2292292">
  <ele>1605.24</ele>
  <time>2026-08-27T18:26:07Z</time>
  <course>180.77</course>
  <speed>3.0504098085339284</speed>
  <fix>3d</fix>
</trkpt>
<trkpt lat="40.0736543" lon="-105.2292293">
  <ele>1605.57</ele>
  <time>2026-08-27T18:26:07Z</time>
  <course>180.49</course>
  <speed>2.99</speed>
  <fix>3d</fix>
</trkpt>
<trkpt lat="40.0736437" lon="-105.2292294">
  <ele>1604.94</ele>
  <time>2026-08-27T18:26:07Z</time>
  <course>181.9</course>
  <speed>3.0723443817384792</speed>
  <fix>3d</fix>
</trkpt>
<trkpt lat="40.073649" lon="-105.2292294">
  <ele>1605.27</ele>
  <time>2026-08-27T18:26:07Z</time>
  <course>181.31</course>
  <speed>3.03</speed>
  <fix>3d</fix>
</trkpt>
<trkpt lat="40.0736382" lon="-105.2292299">
  <ele>1604.64</ele>
  <time>2026-08-27T18:26:07Z</time>
  <course>183.57</course>
  <speed>3.0885757235334217</speed>
  <fix>3d</fix>
</trkpt>
<trkpt lat="40.0736435" lon="-105.2292295">
  <ele>1604.97</ele>
  <time>2026-08-27T18:26:07Z</time>
  <course>182.65</course>
  <speed>3.06</speed>
  <fix>3d</fix>
</trkpt>
<trkpt lat="40.0736327" lon="-105.2292306">
  <ele>1604.34</ele>
  <time>2026-08-27T18:26:07Z</time>
  <course>185.74</course>
  <speed>3.120833222073874</speed>
  <fix>3d</fix>
</trkpt>
<trkpt lat="40.073638" lon="-105.22923">
  <ele>1604.67</ele>
  <time>2026-08-27T18:26:07Z</time>
  <course>184.51</course>
  <speed>3.08</speed>
  <fix>3d</fix>
</trkpt>
<trkpt lat="40.0736271" lon="-105.2292316">
  <ele>1604.03</ele>
  <time>2026-08-27T18:26:07Z</time>
  <course>188.34</course>
  <speed>3.1515393064342385</speed>
  <fix>3d</fix>
</trkpt>
<trkpt lat="40.0736324" lon="-105.2292307">
  <ele>1604.38</ele>
  <time>2026-08-27T18:26:07Z</time>
  <course>186.86</course>
  <speed>3.1</speed>
  <fix>3d</fix>
</trkpt>
<trkpt lat="40.0736215" lon="-105.2292331">
  <ele>1603.73</ele>
  <time>2026-08-27T18:26:07Z</time>
  <course>191.27</course>
  <speed>3.1856239577200567</speed>
  <fix>3d</fix>
</trkpt>
<trkpt lat="40.0736269" lon="-105.2292318">
  <ele>1604.08</ele>
  <time>2026-08-27T18:26:07Z</time>
  <course>189.63</course>
  <speed>3.13</speed>
  <fix>3d</fix>
</trkpt>
<trkpt lat="40.073616" lon="-105.2292349">
  <ele>1603.43</ele>
  <time>2026-08-27T18:26:07Z</time>
  <course>194.47</course>
  <speed>3.244456811239749</speed>
  <fix>3d</fix>
</trkpt>
<trkpt lat="40.0736213" lon="-105.2292332">
  <ele>1603.78</ele>
  <time>2026-08-27T18:26:07Z</time>
  <course>192.74</course>
  <speed>3.17</speed>
  <fix>3d</fix>
</trkpt>
<trkpt lat="40.0736104" lon="-105.2292373">
  <ele>1603.14</ele>
  <time>2026-08-27T18:26:07Z</time>
  <course>197.92</course>
  <speed>3.3115706243412655</speed>
  <fix>3d</fix>
</trkpt>
<trkpt lat="40.0736158" lon="-105.229235">
  <ele>1603.49</ele>
  <time>2026-08-27T18:26:07Z</time>
  <course>196.15</course>
  <speed>3.22</speed>
  <fix>3d</fix>
</trkpt>
<trkpt lat="40.0736048" lon="-105.2292401">
  <ele>1602.84</ele>
  <time>2026-08-27T18:26:07Z</time>
  <course>201.54</course>
  <speed>3.399544087079913</speed>
  <fix>3d</fix>
</trkpt>
<trkpt lat="40.0736102" lon="-105.2292374">
  <ele>1603.19</ele>
  <time>2026-08-27T18:26:07Z</time>
  <course>199.81</course>
  <speed>3.29</speed>
  <fix>3d</fix>
</trkpt>
<trkpt lat="40.0735993" lon="-105.2292436">
  <ele>1602.54</ele>
  <time>2026-08-27T18:26:07Z</time>
  <course>205.28</course>
  <speed>3.5109115625432663</speed>
  <fix>3d</fix>
</trkpt>
<trkpt lat="40.0736047" lon="-105.2292403">
  <ele>1602.88</ele>
  <time>2026-08-27T18:26:07Z</time>
  <course>203.65</course>
  <speed>3.38</speed>
  <fix>3d</fix>
</trkpt>
<trkpt lat="40.0735937" lon="-105.2292476">
  <ele>1602.24</ele>
  <time>2026-08-27T18:26:07Z</time>
  <course>209.1</course>
  <speed>3.6392581661651873</speed>
  <fix>3d</fix>
</trkpt>
<trkpt lat="40.073599" lon="-105.2292437">
  <ele>1602.58</ele>
  <time>2026-08-27T18:26:07Z</time>
  <course>207.62</course>
  <speed>3.49</speed>
  <fix>3d</fix>
</trkpt>
<trkpt lat="40.0735882" lon="-105.2292524">
  <ele>1601.93</ele>
  <time>2026-08-27T18:26:07Z</time>
  <course>212.94</course>
  <speed>3.8094750294495956</speed>
  <fix>3d</fix>
</trkpt>
<trkpt lat="40.0735935" lon="-105.2292479">
  <ele>1602.27</ele>
  <time>2026-08-27T18:26:07Z</time>
  <course>211.67</course>
  <speed>3.62</speed>
  <fix>3d</fix>
</trkpt>
<trkpt lat="40.0735827" lon="-105.2292579">
  <ele>1601.63</ele>
  <time>2026-08-27T18:26:07Z</time>
  <course>216.47</course>
  <speed>3.999962499824217</speed>
  <fix>3d</fix>
</trkpt>
<trkpt lat="40.073588" lon="-105.2292528">
  <ele>1601.97</ele>
  <time>2026-08-27T18:26:07Z</time>
  <course>215.75</course>
  <speed>3.79</speed>
  <fix>3d</fix>
</trkpt>
<trkpt lat="40.0735772" lon="-105.2292643">
  <ele>1601.34</ele>
  <time>2026-08-27T18:26:07Z</time>
  <course>220.32</course>
  <speed>4.201737735746961</speed>
  <fix>3d</fix>
</trkpt>
<trkpt lat="40.0735825" lon="-105.2292583">
  <ele>1601.66</ele>
  <time>2026-08-27T18:26:07Z</time>
  <course>219.82</course>
  <speed>3.98</speed>
  <fix>3d</fix>
</trkpt>
<trkpt lat="40.0735719" lon="-105.2292714">
  <ele>1601.06</ele>
  <time>2026-08-27T18:26:07Z</time>
  <course>224.2</course>
  <speed>4.380559325017754</speed>
  <fix>3d</fix>
</trkpt>
<trkpt lat="40.073577" lon="-105.2292648">
  <ele>1601.36</ele>
  <time>2026-08-27T18:26:07Z</time>
  <course>223.82</course>
  <speed>4.19</speed>
  <fix>3d</fix>
</trkpt>
<trkpt lat="40.0735667" lon="-105.2292793">
  <ele>1600.79</ele>
  <time>2026-08-27T18:26:07Z</time>
  <course>228.01</course>
  <speed>4.536893210116368</speed>
  <fix>3d</fix>
</trkpt>
<trkpt lat="40.0735716" lon="-105.229272">
  <ele>1601.08</ele>
  <time>2026-08-27T18:26:07Z</time>
  <course>227.7</course>
  <speed>4.37</speed>
  <fix>3d</fix>
</trkpt>
<trkpt lat="40.0735617" lon="-105.229288">
  <ele>1600.55</ele>
  <time>2026-08-27T18:26:07Z</time>
  <course>231.72</course>
  <speed>4.686032436934256</speed>
  <fix>3d</fix>
</trkpt>
<trkpt lat="40.0735664" lon="-105.2292799">
  <ele>1600.81</ele>
  <time>2026-08-27T18:26:07Z</time>
  <course>231.48</course>
  <speed>4.53</speed>
  <fix>3d</fix>
</trkpt>
<trkpt lat="40.0735571" lon="-105.2292973">
  <ele>1600.33</ele>
  <time>2026-08-27T18:26:07Z</time>
  <course>235.29</course>
  <speed>4.815828070020773</speed>
  <fix>3d</fix>
</trkpt>
<trkpt lat="40.0735614" lon="-105.2292887">
  <ele>1600.57</ele>
  <time>2026-08-27T18:26:07Z</time>
  <course>235.21</course>
  <speed>4.68</speed>
  <fix>3d</fix>
</trkpt>
<trkpt lat="40.0735528" lon="-105.2293073">
  <ele>1600.14</ele>
  <time>2026-08-27T18:26:07Z</time>
  <course>238.88</course>
  <speed>4.929462445338234</speed>
  <fix>3d</fix>
</trkpt>
<trkpt lat="40.0735568" lon="-105.229298">
  <ele>1600.34</ele>
  <time>2026-08-27T18:26:07Z</time>
  <course>238.9</course>
  <speed>4.82</speed>
  <fix>3d</fix>
</trkpt>
<trkpt lat="40.0735489" lon="-105.2293178">
  <ele>1599.96</ele>
  <time>2026-08-27T18:26:07Z</time>
  <course>242.62</course>
  <speed>4.999609984788814</speed>
  <fix>3d</fix>
</trkpt>
<trkpt lat="40.0735525" lon="-105.229308">
  <ele>1600.14</ele>
  <time>2026-08-27T18:26:07Z</time>
  <course>242.54</course>
  <speed>4.93</speed>
  <fix>3d</fix>
</trkpt>
<trkpt lat="40.0735454" lon="-105.2293287">
  <ele>1599.81</ele>
  <time>2026-08-27T18:26:07Z</time>
  <course>246.32</course>
  <speed>5.040962209737343</speed>
  <fix>3d</fix>
</trkpt>
<trkpt lat="40.0735486" lon="-105.2293186">
  <ele>1599.97</ele>
  <time>2026-08-27T18:26:07Z</time>
  <course>246.1</course>
  <speed>5.01</speed>
  <fix>3d</fix>
</trkpt>
<trkpt lat="40.0735425" lon="-105.22934">
  <ele>1599.69</ele>
  <time>2026-08-27T18:26:07Z</time>
  <course>249.94</course>
  <speed>5.042102735962447</speed>
  <fix>3d</fix>
</trkpt>
<trkpt lat="40.0735452" lon="-105.2293295">
  <ele>1599.82</ele>
  <time>2026-08-27T18:26:07Z</time>
  <course>249.61</course>
  <speed>5.05</speed>
  <fix>3d</fix>
</trkpt>
<trkpt lat="40.0735401" lon="-105.2293514">
  <ele>1599.58</ele>
  <time>2026-08-27T18:26:07Z</time>
  <course>253.49</course>
  <speed>5.040079364454492</speed>
  <fix>3d</fix>
</trkpt>
<trkpt lat="40.0735423" lon="-105.2293407">
  <ele>1599.69</ele>
  <time>2026-08-27T18:26:07Z</time>
  <course>253.1</course>
  <speed>5.06</speed>
  <fix>3d</fix>
</trkpt>
<trkpt lat="40.0735382" lon="-105.229363">
  <ele>1599.49</ele>
  <time>2026-08-27T18:26:07Z</time>
  <course>257.0</course>
  <speed>5.01776842829559</speed>
  <fix>3d</fix>
</trkpt>
<trkpt lat="40.07354" lon="-105.2293522">
  <ele>1599.58</ele>
  <time>2026-08-27T18:26:07Z</time>
  <course>256.57</course>
  <speed>5.05</speed>
  <fix>3d</fix>
</trkpt>
<trkpt lat="40.0735369" lon="-105.2293746">
  <ele>1599.43</ele>
  <time>2026-08-27T18:26:07Z</time>
  <course>260.49</course>
  <speed>4.983863962830446</speed>
  <fix>3d</fix>
</trkpt>
<trkpt lat="40.0735382" lon="-105.2293639">
  <ele>1599.49</ele>
  <time>2026-08-27T18:26:07Z</time>
  <course>260.04</course>
  <speed>5.03</speed>
  <fix>3d</fix>
</trkpt>
<trkpt lat="40.0735362" lon="-105.2293863">
  <ele>1599.38</ele>
  <time>2026-08-27T18:26:07Z</time>
  <course>263.95</course>
  <speed>4.937387973412663</speed>
  <fix>3d</fix>
</trkpt>
<trkpt lat="40.0735368" lon="-105.2293755">
  <ele>1599.42</ele>
  <time>2026-08-27T18:26:07Z</time>
  <course>263.49</course>
  <speed>4.99</speed>
  <fix>3d</fix>
</trkpt>
<trkpt lat="40.0735359" lon="-105.229398">
  <ele>1599.35</ele>
  <time>2026-08-27T18:26:07Z</time>
  <course>267.37</course>
  <speed>4.890010224938186</speed>
  <fix>3d</fix>
</trkpt>
<trkpt lat="40.0735361" lon="-105.2293871">
  <ele>1599.38</ele>
  <time>2026-08-27T18:26:07Z</time>
  <course>266.91</course>
  <speed>4.95</speed>
  <fix>3d</fix>
</trkpt>
<trkpt lat="40.0735362" lon="-105.2294095">
  <ele>1599.34</ele>
  <time>2026-08-27T18:26:07Z</time>
  <course>270.69</course>
  <speed>4.828716185488644</speed>
  <fix>3d</fix>
</trkpt>
<trkpt lat="40.0735358" lon="-105.2293987">
  <ele>1599.34</ele>
  <time>2026-08-27T18:26:07Z</time>
  <course>270.28</course>
  <speed>4.89</speed>
  <fix>3d</fix>
</trkpt>
<trkpt lat="40.073537" lon="-105.2294207">
  <ele>1599.34</ele>
  <time>2026-08-27T18:26:08Z</time>
  <course>273.95</course>
  <speed>4.761869380820939</speed>
  <fix>3d</fix>
</trkpt>
<trkpt lat="40.0735361" lon="-105.2294101">
  <ele>1599.33</ele>
  <time>2026-08-27T18:26:08Z</time>
  <course>273.61</course>
  <speed>4.83</speed>
  <fix>3d</fix>
</trkpt>
<trkpt lat="40.0735381" lon="-105.2294318">
  <ele>1599.37</ele>
  <time>2026-08-27T18:26:08Z</time>
  <course>277.12</course>
  <speed>4.69046905969968</speed>
  <fix>3d</fix>
</trkpt>
<trkpt lat="40.0735368" lon="-105.2294214">
  <ele>1599.34</ele>
  <time>2026-08-27T18:26:08Z</time>
  <course>276.87</course>
  <speed>4.76</speed>
  <fix>3d</fix>
</trkpt>
<trkpt lat="40.0735398" lon="-105.2294425">
  <ele>1599.42</ele>
  <time>2026-08-27T18:26:08Z</time>
  <course>280.22</course>
  <speed>4.618614510867951</speed>
  <fix>3d</fix>
</trkpt>
<trkpt lat="40.0735381" lon="-105.2294324">
  <ele>1599.37</ele>
  <time>2026-08-27T18:26:08Z</time>
  <course>280.07</course>
  <speed>4.69</speed>
  <fix>3d</fix>
</trkpt>
<trkpt lat="40.0735418" lon="-105.2294529">
  <ele>1599.5</ele>
  <time>2026-08-27T18:26:08Z</time>
  <course>283.25</course>
  <speed>4.5480215478821115</speed>
  <fix>3d</fix>
</trkpt>
<trkpt lat="40.0735398" lon="-105.2294431">
  <ele>1599.41</ele>
  <time>2026-08-27T18:26:08Z</time>
  <course>283.21</course>
  <speed>4.61</speed>
  <fix>3d</fix>
</trkpt>
<trkpt lat="40.0735443" lon="-105.229463">
  <ele>1599.59</ele>
  <time>2026-08-27T18:26:08Z</time>
  <course>286.21</course>
  <speed>4.465422712353221</speed>
  <fix>3d</fix>
</trkpt>
<trkpt lat="40.0735419" lon="-105.2294535">
  <ele>1599.48</ele>
  <time>2026-08-27T18:26:08Z</time>
  <course>286.29</course>
  <speed>4.54</speed>
  <fix>3d</fix>
</trkpt>
<trkpt lat="40.0735471" lon="-105.2294728">
  <ele>1599.7</ele>
  <time>2026-08-27T18:26:08Z</time>
  <course>289.12</course>
  <speed>4.401011247429391</speed>
  <fix>3d</fix>
</trkpt>
<trkpt lat="40.0735444" lon="-105.2294635">
  <ele>1599.56</ele>
  <time>2026-08-27T18:26:08Z</time>
  <course>289.32</course>
  <speed>4.46</speed>
  <fix>3d</fix>
</trkpt>
<trkpt lat="40.0735502" lon="-105.2294822">
  <ele>1599.83</ele>
  <time>2026-08-27T18:26:08Z</time>
  <course>291.94</course>
  <speed>4.326118352518803</speed>
  <fix>3d</fix>
</trkpt>
<trkpt lat="40.0735473" lon="-105.2294733">
  <ele>1599.66</ele>
  <time>2026-08-27T18:26:08Z</time>
  <course>292.28</course>
  <speed>4.39</speed>
  <fix>3d</fix>
</trkpt>
<trkpt lat="40.0735536" lon="-105.2294912">
  <ele>1599.97</ele>
  <time>2026-08-27T18:26:08Z</time>
  <course>294.71</course>
  <speed>4.262980178232125</speed>
  <fix>3d</fix>
</trkpt>
<trkpt lat="40.0735504" lon="-105.2294826">
  <ele>1599.79</ele>
  <time>2026-08-27T18:26:08Z</time>
  <course>295.2</course>
  <speed>4.32</speed>
  <fix>3d</fix>
</trkpt>
<trkpt lat="40.0735574" lon="-105.2294999">
  <ele>1600.14</ele>
  <time>2026-08-27T18:26:08Z</time>
  <course>297.46</course>
  <speed>4.210332528435254</speed>
  <fix>3d</fix>
</trkpt>
<trkpt lat="40.0735539" lon="-105.2294916">
  <ele>1599.93</ele>
  <time>2026-08-27T18:26:08Z</time>
  <course>298.09</course>
  <speed>4.25</speed>
  <fix>3d</fix>
</trkpt>
<trkpt lat="40.0735614" lon="-105.2295082">
  <ele>1600.32</ele>
  <time>2026-08-27T18:26:08Z</time>
  <course>300.16</course>
  <speed>4.163039754794566</speed>
  <fix>3d</fix>
</trkpt>
<trkpt lat="40.0735576" lon="-105.2295002">
  <ele>1600.09</ele>
  <time>2026-08-27T18:26:08Z</time>
  <course>300.96</course>
  <speed>4.2</speed>
  <fix>3d</fix>
</trkpt>
<trkpt lat="40.0735657" lon="-105.2295162">
  <ele>1600.53</ele>
  <time>2026-08-27T18:26:08Z</time>
  <course>302.83</course>
  <speed>4.126124089263434</speed>
  <fix>3d</fix>
</trkpt>
<trkpt lat="40.0735616" lon="-105.2295085">
  <ele>1600.27</ele>
  <time>2026-08-27T18:26:08Z</time>
  <course>303.82</course>
  <speed>4.15</speed>
  <fix>3d</fix>
</trkpt>
<trkpt lat="40.0735702" lon="-105.2295238">
  <ele>1600.76</ele>
  <time>2026-08-27T18:26:08Z</time>
  <course>305.39</course>
  <speed>4.107602707176048</speed>
  <fix>3d</fix>
</trkpt>
<trkpt lat="40.0735659" lon="-105.2295164">
  <ele>1600.47</ele>
  <time>2026-08-27T18:26:08Z</time>
  <course>306.7</course>
  <speed>4.11</speed>
  <fix>3d</fix>
</trkpt>
<trkpt lat="40.073575" lon="-105.229531">
  <ele>1601.0</ele>
  <time>2026-08-27T18:26:08Z</time>
  <course>308.19</course>
  <speed>4.091869988159448</speed>
  <fix>3d</fix>
</trkpt>
<trkpt lat="40.0735705" lon="-105.229524">
  <ele>1600.69</ele>
  <time>2026-08-27T18:26:08Z</time>
  <course>309.61</course>
  <speed>4.09</speed>
  <fix>3d</fix>
</trkpt>
<trkpt lat="40.07358" lon="-105.2295378">
  <ele>1601.27</ele>
  <time>2026-08-27T18:26:08Z</time>
  <course>311.15</course>
  <speed>4.044675512324814</speed>
  <fix>3d</fix>
</trkpt>
<trkpt lat="40.0735753" lon="-105.2295312">
  <ele>1600.94</ele>
  <time>2026-08-27T18:26:08Z</time>
  <course>312.56</course>
  <speed>4.07</speed>
  <fix>3d</fix>
</trkpt>
<trkpt lat="40.0735853" lon="-105.2295443">
  <ele>1601.55</ele>
  <time>2026-08-27T18:26:08Z</time>
  <course>314.24</course>
  <speed>4.001962018810274</speed>
  <fix>3d</fix>
</trkpt>
<trkpt lat="40.0735804" lon="-105.2295381">
  <ele>1601.2</ele>
  <time>2026-08-27T18:26:08Z</time>
  <course>315.55</course>
  <speed>4.03</speed>
  <fix>3d</fix>
</trkpt>
<trkpt lat="40.0735908" lon="-105.2295502">
  <ele>1601.85</ele>
  <time>2026-08-27T18:26:08Z</time>
  <course>317.43</course>
  <speed>3.9512656200260694</speed>
  <fix>3d</fix>
</trkpt>
<trkpt lat="40.0735856" lon="-105.2295446">
  <ele>1601.48</ele>
  <time>2026-08-27T18:26:08Z</time>
  <course>318.67</course>
  <speed>3.99</speed>
  <fix>3d</fix>
</trkpt>
<trkpt lat="40.0735964" lon="-105.2295557">
  <ele>1602.17</ele>
  <time>2026-08-27T18:26:08Z</time>
  <course>320.76</course>
  <speed>3.9060977970347848</speed>
  <fix>3d</fix>
</trkpt>
<trkpt lat="40.0735911" lon="-105.2295505">
  <ele>1601.78</ele>
  <time>2026-08-27T18:26:08Z</time>
  <course>321.94</course>
  <speed>3.94</speed>
  <fix>3d</fix>
</trkpt>
<trkpt lat="40.0736022" lon="-105.2295607">
  <ele>1602.49</ele>
  <time>2026-08-27T18:26:08Z</time>
  <course>324.22</course>
  <speed>3.8776926128820475</speed>
  <fix>3d</fix>
</trkpt>
<trkpt lat="40.0735968" lon="-105.229556">
  <ele>1602.09</ele>
  <time>2026-08-27T18:26:08Z</time>
  <course>325.39</course>
  <speed>3.9</speed>
  <fix>3d</fix>
</trkpt>
<trkpt lat="40.0736083" lon="-105.2295651">
  <ele>1602.83</ele>
  <time>2026-08-27T18:26:08Z</time>
  <course>327.84</course>
  <speed>3.860116578550446</speed>
  <fix>3d</fix>
</trkpt>
<trkpt lat="40.0736026" lon="-105.2295609">
  <ele>1602.41</ele>
  <time>2026-08-27T18:26:08Z</time>
  <course>328.99</course>
  <speed>3.87</speed>
  <fix>3d</fix>
</trkpt>
<trkpt lat="40.0736146" lon="-105.2295691">
  <ele>1603.17</ele>
  <time>2026-08-27T18:26:08Z</time>
  <course>331.49</course>
  <speed>3.8684880767555687</speed>
  <fix>3d</fix>
</trkpt>
<trkpt lat="40.0736087" lon="-105.2295653">
  <ele>1602.74</ele>
  <time>2026-08-27T18:26:08Z</time>
  <course>332.7</course>
  <speed>3.85</speed>
  <fix>3d</fix>
</trkpt>
<trkpt lat="40.0736211" lon="-105.2295725">
  <ele>1603.53</ele>
  <time>2026-08-27T18:26:08Z</time>
  <course>335.17</course>
  <speed>3.884765115164622</speed>
  <fix>3d</fix>
</trkpt>
<trkpt lat="40.0736149" lon="-105.2295692">
  <ele>1603.08</ele>
  <time>2026-08-27T18:26:08Z</time>
  <course>336.49</course>
  <speed>3.85</speed>
  <fix>3d</fix>
</trkpt>
<trkpt lat="40.0736277" lon="-105.2295753">
  <ele>1603.89</ele>
  <time>2026-08-27T18:26:08Z</time>
  <course>338.84</course>
  <speed>3.9176013069223874</speed>
  <fix>3d</fix>
</trkpt>
<trkpt lat="40.0736215" lon="-105.2295726">
  <ele>1603.43</ele>
  <time>2026-08-27T18:26:08Z</time>
  <course>340.3</course>
  <speed>3.87</speed>
  <fix>3d</fix>
</trkpt>
<trkpt lat="40.0736346" lon="-105.2295776">
  <ele>1604.27</ele>
  <time>2026-08-27T18:26:08Z</time>
  <course>342.44</course>
  <speed>3.9644041166359414</speed>
  <fix>3d</fix>
</trkpt>
<trkpt lat="40.0736281" lon="-105.2295753">
  <ele>1603.79</ele>
  <time>2026-08-27T18:26:08Z</time>
  <course>344.09</course>
  <speed>3.9</speed>
  <fix>3d</fix>
</trkpt>
<trkpt lat="40.0736416" lon="-105.2295793">
  <ele>1604.66</ele>
  <time>2026-08-27T18:26:08Z</time>
  <course>345.94</course>
  <speed>4.0394306529509825</speed>
  <fix>3d</fix>
</trkpt>
<trkpt lat="40.0736349" lon="-105.2295776">
  <ele>1604.16</ele>
  <time>2026-08-27T18:26:08Z</time>
  <course>347.83</course>
  <speed>3.96</speed>
  <fix>3d</fix>
</trkpt>
<trkpt lat="40.0736489" lon="-105.2295805">
  <ele>1605.06</ele>
  <time>2026-08-27T18:26:08Z</time>
  <course>349.32</course>
  <speed>4.128462183428595</speed>
  <fix>3d</fix>
</trkpt>
<trkpt lat="40.0736421" lon="-105.2295793">
  <ele>1604.55</ele>
  <time>2026-08-27T18:26:08Z</time>
  <course>351.47</course>
  <speed>4.03</speed>
  <fix>3d</fix>
</trkpt>
<trkpt lat="40.0736564" lon="-105.2295811">
  <ele>1605.47</ele>
  <time>2026-08-27T18:26:08Z</time>
  <course>352.56</course>
  <speed>4.242652472215936</speed>
  <fix>3d</fix>
</trkpt>
<trkpt lat="40.0736493" lon="-105.2295804">
  <ele>1604.95</ele>
  <time>2026-08-27T18:26:08Z</time>
  <course>354.99</course>
  <speed>4.12</speed>
  <fix>3d</fix>
</trkpt>
<trkpt lat="40.0736641" lon="-105.2295811">
  <ele>1605.91</ele>
  <time>2026-08-27T18:26:08Z</time>
  <course>355.61</course>
  <speed>4.370732204104937</speed>
  <fix>3d</fix>
</trkpt>
<trkpt lat="40.0736567" lon="-105.2295809">
  <ele>1605.37</ele>
  <time>2026-08-27T18:26:08Z</time>
  <course>358.37</course>
  <speed>4.23</speed>
  <fix>3d</fix>
</trkpt>
<trkpt lat="40.0736721" lon="-105.2295807">
  <ele>1606.35</ele>
  <time>2026-08-27T18:26:08Z</time>
  <course>358.57</course>
  <speed>4.52133829745132</speed>
  <fix>3d</fix>
</trkpt>
<trkpt lat="40.0736645" lon="-105.2295809">
  <ele>1605.79</ele>
  <time>2026-08-27T18:26:08Z</time>
  <course>1.59</course>
  <speed>4.36</speed>
  <fix>3d</fix>
</trkpt>
<trkpt lat="40.0736803" lon="-105.2295795">
  <ele>1606.82</ele>
  <time>2026-08-27T18:26:08Z</time>
  <course>1.28</course>
  <speed>4.693527458106535</speed>
  <fix>3d</fix>
</trkpt>
<trkpt lat="40.0736725" lon="-105.2295804">
  <ele>1606.23</ele>
  <time>2026-08-27T18:26:08Z</time>
  <course>4.62</course>
  <speed>4.51</speed>
  <fix>3d</fix>
</trkpt>
<trkpt lat="40.0736888" lon="-105.2295779">
  <ele>1607.3</ele>
  <time>2026-08-27T18:26:08Z</time>
  <course>3.52</course>
  <speed>4.905670188669434</speed>
  <fix>3d</fix>
</trkpt>
<trkpt lat="40.0736807" lon="-105.2295793">
  <ele>1606.69</ele>
  <time>2026-08-27T18:26:08Z</time>
  <course>7.42</course>
  <speed>4.69</speed>
  <fix>3d</fix>
</trkpt>
<trkpt lat="40.0736977" lon="-105.2295757">
  <ele>1607.79</ele>
  <time>2026-08-27T18:26:08Z</time>
  <course>5.24</course>
  <speed>5.124578031409026</speed>
  <fix>3d</fix>
</trkpt>
<trkpt lat="40.0736892" lon="-105.2295776">
  <ele>1607.16</ele>
  <time>2026-08-27T18:26:08Z</time>
  <course>9.91</course>
  <speed>4.89</speed>
  <fix>3d</fix>
</trkpt>
<trkpt lat="40.0737068" lon="-105.229573">
  <ele>1608.3</ele>
  <time>2026-08-27T18:26:08Z</time>
  <course>7.1</course>
  <speed>5.316624869219193</speed>
  <fix>3d</fix>
</trkpt>
<trkpt lat="40.0736981" lon="-105.2295753">
  <ele>1607.66</ele>
  <time>2026-08-27T18:26:08Z</time>
  <course>12.09</course>
  <speed>5.11</speed>
  <fix>3d</fix>
</trkpt>
<trkpt lat="40.0737161" lon="-105.2295698">
  <ele>1608.83</ele>
  <time>2026-08-27T18:26:08Z</time>
  <course>9.23</course>
  <speed>5.460567736050896</speed>
  <fix>3d</fix>
</trkpt>
<trkpt lat="40.0737072" lon="-105.2295726">
  <ele>1608.17</ele>
  <time>2026-08-27T18:26:08Z</time>
  <course>14.0</course>
  <speed>5.32</speed>
  <fix>3d</fix>
</trkpt>
<trkpt lat="40.0737256" lon="-105.2295661">
  <ele>1609.37</ele>
  <time>2026-08-27T18:26:08Z</time>
  <course>11.43</course>
  <speed>5.551621384784808</speed>
  <fix>3d</fix>
</trkpt>
<trkpt lat="40.0737166" lon="-105.2295693">
  <ele>1608.69</ele>
  <time>2026-08-27T18:26:08Z</time>
  <course>15.73</course>
  <speed>5.47</speed>
  <fix>3d</fix>
</trkpt>
<trkpt lat="40.0737351" lon="-105.229562">
  <ele>1609.9</ele>
  <time>2026-08-27T18:26:08Z</time>
  <course>13.64</course>
  <speed>5.616262102145875</speed>
  <fix>3d</fix>
</trkpt>
<trkpt lat="40.0737261" lon="-105.2295656">
  <ele>1609.22</ele>
  <time>2026-08-27T18:26:08Z</time>
  <course>17.42</course>
  <speed>5.57</speed>
  <fix>3d</fix>
</trkpt>
<trkpt lat="40.0737446" lon="-105.2295575">
  <ele>1610.43</ele>
  <time>2026-08-27T18:26:08Z</time>
  <course>15.82</course>
  <speed>5.6835200360340075</speed>
  <fix>3d</fix>
</trkpt>
<trkpt lat="40.0737357" lon="-105.2295614">
  <ele>1609.75</ele>
  <time>2026-08-27T18:26:08Z</time>
  <course>19.18</course>
  <speed>5.64</speed>
  <fix>3d</fix>
</trkpt>
<trkpt lat="40.0737541" lon="-105.2295525">
  <ele>1610.95</ele>
  <time>2026-08-27T18:26:08Z</time>
  <course>17.94</course>
  <speed>5.725399549376445</speed>
  <fix>3d</fix>
</trkpt>
<trkpt lat="40.0737453" lon="-105.2295568">
  <ele>1610.27</ele>
  <time>2026-08-27T18:26:08Z</time>
  <course>20.99</course>
  <speed>5.7</speed>
  <fix>3d</fix>
</trkpt>
<trkpt lat="40.0737636" lon="-105.2295471">
  <ele>1611.46</ele>
  <time>2026-08-27T18:26:08Z</time>
  <course>19.98</course>
  <speed>5.7692720511343545</speed>
  <fix>3d</fix>
</trkpt>
<trkpt lat="40.0737548" lon="-105.2295518">
  <ele>1610.79</ele>
  <time>2026-08-27T18:26:08Z</time>
  <course>22.83</course>
  <speed>5.75</speed>
  <fix>3d</fix>
</trkpt>
<trkpt lat="40.073773" lon="-105.2295413">
  <ele>1611.97</ele>
  <time>2026-08-27T18:26:08Z</time>
  <course>21.93</course>
  <speed>5.809552478461659</speed>
  <fix>3d</fix>
</trkpt>
<trkpt lat="40.0737643" lon="-105.2295464">
  <ele>1611.3</ele>
  <time>2026-08-27T18:26:08Z</time>
  <course>24.63</course>
  <speed>5.79</speed>
  <fix>3d</fix>
</trkpt>
<trkpt lat="40.0737824" lon="-105.229535">
  <ele>1612.48</ele>
  <time>2026-08-27T18:26:08Z</time>
  <course>23.81</course>
  <speed>5.828353112157841</speed>
  <fix>3d</fix>
</trkpt>
<trkpt lat="40.0737738" lon="-105.2295405">
  <ele>1611.81</ele>
  <time>2026-08-27T18:26:08Z</time>
  <course>26.36</course>
  <speed>5.83</speed>
  <fix>3d</fix>
</trkpt>
<trkpt lat="40.0737917" lon="-105.2295283">
  <ele>1612.98</ele>
  <time>2026-08-27T18:26:08Z</time>
  <course>25.56</course>
  <speed>5.847187358038051</speed>
  <fix>3d</fix>
</trkpt>
<trkpt lat="40.0737831" lon="-105.2295342">
  <ele>1612.31</ele>
  <time>2026-08-27T18:26:08Z</time>
  <course>28.02</course>
  <speed>5.85</speed>
  <fix>3d</fix>
</trkpt>
<trkpt lat="40.0738008" lon="-105.2295213">
  <ele>1613.48</ele>
  <time>2026-08-27T18:26:08Z</time>
  <course>27.21</course>
  <speed>5.86528771672797</speed>
  <fix>3d</fix>
</trkpt>
<trkpt lat="40.0737923" lon="-105.2295276">
  <ele>1612.81</ele>
  <time>2026-08-27T18:26:08Z</time>
  <course>29.59</course>
  <speed>5.87</speed>
  <fix>3d</fix>
</trkpt>
<trkpt lat="40.0738098" lon="-105.2295141">
  <ele>1613.98</ele>
  <time>2026-08-27T18:26:08Z</time>
  <course>28.74</course>
  <speed>5.868159847856907</speed>
  <fix>3d</fix>
</trkpt>
<trkpt lat="40.0738015" lon="-105.2295206">
  <ele>1613.31</ele>
  <time>2026-08-27T18:26:08Z</time>
  <course>31.05</course>
  <speed>5.88</speed>
  <fix>3d</fix>
</trkpt>
<trkpt lat="40.0738187" lon="-105.2295066">
  <ele>1614.48</ele>
  <time>2026-08-27T18:26:08Z</time>
  <course>30.12</course>
  <speed>5.863309645584139</speed>
  <fix>3d</fix>
</trkpt>
<trkpt lat="40.0738104" lon="-105.2295134">
  <ele>1613.8</ele>
  <time>2026-08-27T18:26:08Z</time>
  <course>32.38</course>
  <speed>5.88</speed>
  <fix>3d</fix>
</trkpt>
<trkpt lat="40.0738275" lon="-105.2294988">
  <ele>1614.98</ele>
  <time>2026-08-27T18:26:08Z</time>
  <course>31.36</course>
  <speed>5.8692418590478965</speed>
  <fix>3d</fix>
</trkpt>
<trkpt lat="40.0738192" lon="-105.2295058">
  <ele>1614.3</ele>
  <time>2026-08-27T18:26:08Z</time>
  <course>33.59</course>
  <speed>5.88</speed>
  <fix>3d</fix>
</trkpt>
<trkpt lat="40.0738361" lon="-105.2294909">
  <ele>1615.48</ele>
  <time>2026-08-27T18:26:08Z</time>
  <course>32.44</course>
  <speed>5.868236532383472</speed>
  <fix>3d</fix>
</trkpt>
<trkpt lat="40.073828" lon="-105.2294981">
  <ele>1614.79</ele>
  <time>2026-08-27T18:26:08Z</time>
  <course>34.66</course>
  <speed>5.88</speed>
  <fix>3d</fix>
</trkpt>
<trkpt lat="40.0738447" lon="-105.2294828">
  <ele>1615.97</ele>
  <time>2026-08-27T18:26:08Z</time>
  <course>33.35</course>
  <speed>5.868492140235003</speed>
  <fix>3d</fix>
</trkpt>
<trkpt lat="40.0738367" lon="-105.2294901">
  <ele>1615.28</ele>
  <time>2026-08-27T18:26:08Z</time>
  <course>35.6</course>
  <speed>5.88</speed>
  <fix>3d</fix>
</trkpt>
<trkpt lat="40.0738531" lon="-105.2294746">
  <ele>1616.47</ele>
  <time>2026-08-27T18:26:08Z</time>
  <course>34.1</course>
  <speed>5.8660122741092176</speed>
  <fix>3d</fix>
</trkpt>
<trkpt lat="40.0738452" lon="-105.2294821">
  <ele>1615.78</ele>
  <time>2026-08-27T18:26:08Z</time>
  <course>36.39</course>
  <speed>5.88</speed>
  <fix>3d</fix>
</trkpt>
<trkpt lat="40.0738615" lon="-105.2294662">
  <ele>1616.96</ele>
  <time>2026-08-27T18:26:08Z</time>
  <course>34.68</course>
  <speed>5.874087163125859</speed>
  <fix>3d</fix>
</trkpt>
<trkpt lat="40.0738537" lon="-105.2294738">
  <ele>1616.27</ele>
  <time>2026-08-27T18:26:08Z</time>
  <course>37.02</course>
  <speed>5.88</speed>
  <fix>3d</fix>
</trkpt>
<trkpt lat="40.0738699" lon="-105.2294578">
  <ele>1617.46</ele>
  <time>2026-08-27T18:26:08Z</time>
  <course>35.11</course>
  <speed>5.882490968968844</speed>
  <fix>3d</fix>
</trkpt>
<trkpt lat="40.0738621" lon="-105.2294654">
  <ele>1616.76</ele>
  <time>2026-08-27T18:26:08Z</time>
  <course>37.5</course>
  <speed>5.88</speed>
  <fix>3d</fix>
</trkpt>
<trkpt lat="40.0738784" lon="-105.2294492">
  <ele>1617.95</ele>
  <time>2026-08-27T18:26:08Z</time>
  <course>35.41</course>
  <speed>5.886815777650936</speed>
  <fix>3d</fix>
</trkpt>
<trkpt lat="40.0738705" lon="-105.229457">
  <ele>1617.26</ele>
  <time>2026-08-27T18:26:08Z</time>
  <course>37.85</course>
  <speed>5.88</speed>
  <fix>3d</fix>
</trkpt>
<trkpt lat="40.0738867" lon="-105.2294406">
  <ele>1618.45</ele>
  <time>2026-08-27T18:26:08Z</time>
  <course>35.59</course>
  <speed>5.892953419126949</speed>
  <fix>3d</fix>
</trkpt>
<trkpt lat="40.0738788" lon="-105.2294484">
  <ele>1617.75</ele>
  <time>2026-08-27T18:26:08Z</time>
  <course>38.07</course>
  <speed>5.89</speed>
  <fix>3d</fix>
</trkpt>
<trkpt lat="40.0738951" lon="-105.229432">
  <ele>1618.95</ele>
  <time>2026-08-27T18:26:08Z</time>
  <course>35.7</course>
  <speed>5.906987387831465</speed>
  <fix>3d</fix>
</trkpt>
<trkpt lat="40.0738872" lon="-105.2294398">
  <ele>1618.25</ele>
  <time>2026-08-27T18:26:08Z</time>
  <course>38.17</course>
  <speed>5.9</speed>
  <fix>3d</fix>
</trkpt>
<trkpt lat="40.0739035" lon="-105.2294234">
  <ele>1619.44</ele>
  <time>2026-08-27T18:26:08Z</time>
  <course>35.69</course>
  <speed>5.914879542306842</speed>
  <fix>3d</fix>
</trkpt>
<trkpt lat="40.0738955" lon="-105.2294313">
  <ele>1618.75</ele>
  <time>2026-08-27T18:26:08Z</time>
  <course>38.18</course>
  <speed>5.9</speed>
  <fix>3d</fix>
</trkpt>
<trkpt lat="40.0739119" lon="-105.2294148">
  <ele>1619.94</ele>
  <time>2026-08-27T18:26:08Z</time>
  <course>35.57</course>
  <speed>5.924567494762804</speed>
  <fix>3d</fix>
</trkpt>
<trkpt lat="40.0739039" lon="-105.2294228">
  <ele>1619.25</ele>
  <time>2026-08-27T18:26:08Z</time>
  <course>38.1</course>
  <speed>5.91</speed>
  <fix>3d</fix>
</trkpt>
<trkpt lat="40.0739203" lon="-105.2294063">
  <ele>1620.45</ele>
  <time>2026-08-27T18:26:08Z</time>
  <course>35.4</course>
  <speed>5.934323887352291</speed>
  <fix>3d</fix>
</trkpt>
<trkpt lat="40.0739122" lon="-105.2294141">
  <ele>1619.75</ele>
  <time>2026-08-27T18:26:08Z</time>
  <course>37.94</course>
  <speed>5.92</speed>
  <fix>3d</fix>
</trkpt>
<trkpt lat="40.0739287" lon="-105.2293978">
  <ele>1620.95</ele>
  <time>2026-08-27T18:26:09Z</time>
  <course>35.23</course>
  <speed>5.952108869972054</speed>
  <fix>3d</fix>
</trkpt>
<trkpt lat="40.0739207" lon="-105.2294056">
  <ele>1620.25</ele>
  <time>2026-08-27T18:26:09Z</time>
  <course>37.71</course>
  <speed>5.93</speed>
  <fix>3d</fix>
</trkpt>
<trkpt lat="40.0739372" lon="-105.2293894">
  <ele>1621.45</ele>
  <time>2026-08-27T18:26:09Z</time>
  <course>34.98</course>
  <speed>5.964000335345396</speed>
  <fix>3d</fix>
</trkpt>
<trkpt lat="40.0739291" lon="-105.2293971">
  <ele>1620.75</ele>
  <time>2026-08-27T18:26:09Z</time>
  <course>37.44</course>
  <speed>5.94</speed>
  <fix>3d</fix>
</trkpt>
<trkpt lat="40.0739457" lon="-105.229381">
  <ele>1621.95</ele>
  <time>2026-08-27T18:26:09Z</time>
  <course>34.68</course>
  <speed>5.976085675423337</speed>
  <fix>3d</fix>
</trkpt>
<trkpt lat="40.0739376" lon="-105.2293886">
  <ele>1621.25</ele>
  <time>2026-08-27T18:26:09Z</time>
  <course>37.14</course>
  <speed>5.96</speed>
  <fix>3d</fix>
</trkpt>
<trkpt lat="40.0739543" lon="-105.2293727">
  <ele>1622.45</ele>
  <time>2026-08-27T18:26:09Z</time>
  <course>34.33</course>
  <speed>5.996432272610106</speed>
  <fix>3d</fix>
</trkpt>
<trkpt lat="40.0739461" lon="-105.2293803">
  <ele>1621.74</ele>
  <time>2026-08-27T18:26:09Z</time>
  <course>36.8</course>
  <speed>5.97</speed>
  <fix>3d</fix>
</trkpt>
<trkpt lat="40.073963" lon="-105.2293643">
  <ele>1622.97</ele>
  <time>2026-08-27T18:26:09Z</time>
  <course>34.0</course>
  <speed>6.003082541494828</speed>
  <fix>3d</fix>
</trkpt>
<trkpt lat="40.0739548" lon="-105.2293718">
  <ele>1622.24</ele>
  <time>2026-08-27T18:26:09Z</time>
  <course>36.42</course>
  <speed>5.99</speed>
  <fix>3d</fix>
</trkpt>
<trkpt lat="40.0739718" lon="-105.229356">
  <ele>1623.47</ele>
  <time>2026-08-27T18:26:09Z</time>
  <course>33.65</course>
  <speed>6.023968791419822</speed>
  <fix>3d</fix>
</trkpt>
<trkpt lat="40.0739635" lon="-105.2293635">
  <ele>1622.74</ele>
  <time>2026-08-27T18:26:09Z</time>
  <course>36.03</course>
  <speed>6.0</speed>
  <fix>3d</fix>
</trkpt>
<trkpt lat="40.0739806" lon="-105.2293478">
  <ele>1623.97</ele>
  <time>2026-08-27T18:26:09Z</time>
  <course>33.29</course>
  <speed>6.025454339715802</speed>
  <fix>3d</fix>
</trkpt>
<trkpt lat="40.0739722" lon="-105.2293553">
  <ele>1623.24</ele>
  <time>2026-08-27T18:26:09Z</time>
  <course>35.61</course>
  <speed>6.02</speed>
  <fix>3d</fix>
</trkpt>
<trkpt lat="40.0739895" lon="-105.2293397">
  <ele>1624.47</ele>
  <time>2026-08-27T18:26:09Z</time>
  <course>32.92</course>
  <speed>6.019111230073755</speed>
  <fix>3d</fix>
</trkpt>
<trkpt lat="40.0739811" lon="-105.2293471">
  <ele>1623.74</ele>
  <time>2026-08-27T18:26:09Z</time>
  <course>35.17</course>
  <speed>6.02</speed>
  <fix>3d</fix>
</trkpt>
<trkpt lat="40.0739984" lon="-105.2293317">
  <ele>1624.97</ele>
  <time>2026-08-27T18:26:09Z</time>
  <course>32.5</course>
  <speed>6.007495318350236</speed>
  <fix>3d</fix>
</trkpt>
<trkpt lat="40.07399" lon="-105.229339">
  <ele>1624.24</ele>
  <time>2026-08-27T18:26:09Z</time>
  <course>34.71</course>
  <speed>6.02</speed>
  <fix>3d</fix>
</trkpt>
<trkpt lat="40.0740073" lon="-105.2293238">
  <ele>1625.47</ele>
  <time>2026-08-27T18:26:09Z</time>
  <course>32.1</course>
  <speed>5.99634055070257</speed>
  <fix>3d</fix>
</trkpt>
<trkpt lat="40.0739989" lon="-105.229331">
  <ele>1624.74</ele>
  <time>2026-08-27T18:26:09Z</time>
  <course>34.22</course>
  <speed>6.01</speed>
  <fix>3d</fix>
</trkpt>
<trkpt lat="40.0740162" lon="-105.2293161">
  <ele>1625.97</ele>
  <time>2026-08-27T18:26:09Z</time>
  <course>31.67</course>
  <speed>5.971817143885101</speed>
  <fix>3d</fix>
</trkpt>
<trkpt lat="40.0740079" lon="-105.229323">
  <ele>1625.24</ele>
  <time>2026-08-27T18:26:09Z</time>
  <course>33.71</course>
  <speed>5.99</speed>
  <fix>3d</fix>
</trkpt>
<trkpt lat="40.0740252" lon="-105.2293085">
  <ele>1626.47</ele>
  <time>2026-08-27T18:26:09Z</time>
  <course>31.19</course>
  <speed>5.934012133455744</speed>
  <fix>3d</fix>
</trkpt>
<trkpt lat="40.0740168" lon="-105.2293153">
  <ele>1625.74</ele>
  <time>2026-08-27T18:26:09Z</time>
  <course>33.17</course>
  <speed>5.97</speed>
  <fix>3d</fix>
</trkpt>
<trkpt lat="40.0740342" lon="-105.2293011">
  <ele>1626.96</ele>
  <time>2026-08-27T18:26:09Z</time>
  <course>30.68</course>
  <speed>5.905294234837076</speed>
  <fix>3d</fix>
</trkpt>
<trkpt lat="40.0740258" lon="-105.2293077">
  <ele>1626.24</ele>
  <time>2026-08-27T18:26:09Z</time>
  <course>32.59</course>
  <speed>5.94</speed>
  <fix>3d</fix>
</trkpt>
<trkpt lat="40.0740432" lon="-105.2292938">
  <ele>1627.46</ele>
  <time>2026-08-27T18:26:09Z</time>
  <course>30.09</course>
  <speed>5.858395684827033</speed>
  <fix>3d</fix>
</trkpt>
<trkpt lat="40.0740347" lon="-105.2293003">
  <ele>1626.74</ele>
  <time>2026-08-27T18:26:09Z</time>
  <course>31.96</course>
  <speed>5.9</speed>
  <fix>3d</fix>
</trkpt>
<trkpt lat="40.0740522" lon="-105.2292868">
  <ele>1627.96</ele>
  <time>2026-08-27T18:26:09Z</time>
  <course>29.4</course>
  <speed>5.8038780138800306</speed>
  <fix>3d</fix>
</trkpt>
<trkpt lat="40.0740438" lon="-105.2292931">
  <ele>1627.24</ele>
  <time>2026-08-27T18:26:09Z</time>
  <course>31.25</course>
  <speed>5.85</speed>
  <fix>3d</fix>
</trkpt>
<trkpt lat="40.0740612" lon="-105.2292799">
  <ele>1628.46</ele>
  <time>2026-08-27T18:26:09Z</time>
  <course>28.64</course>
  <speed>5.74913036902104</speed>
  <fix>3d</fix>
</trkpt>
<trkpt lat="40.0740528" lon="-105.2292861">
  <ele>1627.74</ele>
  <time>2026-08-27T18:26:09Z</time>
  <course>30.46</course>
  <speed>5.8</speed>
  <fix>3d</fix>
</trkpt>
<trkpt lat="40.0740702" lon="-105.2292734">
  <ele>1628.95</ele>
  <time>2026-08-27T18:26:09Z</time>
  <course>27.76</course>
  <speed>5.6824290580701495</speed>
  <fix>3d</fix>
</trkpt>
<trkpt lat="40.0740617" lon="-105.2292793">
  <ele>1628.24</ele>
  <time>2026-08-27T18:26:09Z</time>
  <course>29.58</course>
  <speed>5.74</speed>
  <fix>3d</fix>
</trkpt>
<trkpt lat="40.0740792" lon="-105.2292671">
  <ele>1629.45</ele>
  <time>2026-08-27T18:26:09Z</time>
  <course>26.79</course>
  <speed>5.617517245189373</speed>
  <fix>3d</fix>
</trkpt>
<trkpt lat="40.0740707" lon="-105.2292727">
  <ele>1628.74</ele>
  <time>2026-08-27T18:26:09Z</time>
  <course>28.6</course>
  <speed>5.67</speed>
  <fix>3d</fix>
</trkpt>
<trkpt lat="40.0740881" lon="-105.2292612">
  <ele>1629.95</ele>
  <time>2026-08-27T18:26:09Z</time>
  <course>25.69</course>
  <speed>5.536650612057799</speed>
  <fix>3d</fix>
</trkpt>
<trkpt lat="40.0740797" lon="-105.2292665">
  <ele>1629.24</ele>
  <time>2026-08-27T18:26:09Z</time>
  <course>27.51</course>
  <speed>5.6</speed>
  <fix>3d</fix>
</trkpt>
<trkpt lat="40.074097" lon="-105.2292556">
  <ele>1630.45</ele>
  <time>2026-08-27T18:26:09Z</time>
  <course>24.49</course>
  <speed>5.4631218181548915</speed>
  <fix>3d</fix>
</trkpt>
<trkpt lat="40.0740886" lon="-105.2292606">
  <ele>1629.75</ele>
  <time>2026-08-27T18:26:09Z</time>
  <course>26.31</course>
  <speed>5.52</speed>
  <fix>3d</fix>
</trkpt>
<trkpt lat="40.0741059" lon="-105.2292503">
  <ele>1630.96</ele>
  <time>2026-08-27T18:26:09Z</time>
  <course>23.13</course>
  <speed>5.379637534258233</speed>
  <fix>3d</fix>
</trkpt>
<trkpt lat="40.0740974" lon="-105.229255">
  <ele>1630.25</ele>
  <time>2026-08-27T18:26:09Z</time>
  <course>24.98</course>
  <speed>5.44</speed>
  <fix>3d</fix>
</trkpt>
<trkpt lat="40.0741147" lon="-105.2292455">
  <ele>1631.47</ele>
  <time>2026-08-27T18:26:09Z</time>
  <course>21.63</course>
  <speed>5.296036253652349</speed>
  <fix>3d</fix>
</trkpt>
<trkpt lat="40.0741063" lon="-105.2292498">
  <ele>1630.76</ele>
  <time>2026-08-27T18:26:09Z</time>
  <course>23.51</course>
  <speed>5.36</speed>
  <fix>3d</fix>
</trkpt>
<trkpt lat="40.0741235" lon="-105.229241">
  <ele>1631.98</ele>
  <time>2026-08-27T18:26:09Z</time>
  <course>20.0</course>
  <speed>5.2226908773160226</speed>
  <fix>3d</fix>
</trkpt>
<trkpt lat="40.0741151" lon="-105.2292449">
  <ele>1631.26</ele>
  <time>2026-08-27T18:26:09Z</time>
  <course>21.9</course>
  <speed>5.28</speed>
  <fix>3d</fix>
</trkpt>
<trkpt lat="40.0741323" lon="-105.229237">
  <ele>1632.47</ele>
  <time>2026-08-27T18:26:09Z</time>
  <course>18.2</course>
  <speed>5.145104469298946</speed>
  <fix>3d</fix>
</trkpt>
<trkpt lat="40.074124" lon="-105.2292406">
  <ele>1631.76</ele>
  <time>2026-08-27T18:26:09Z</time>
  <course>20.14</course>
  <speed>5.2</speed>
  <fix>3d</fix>
</trkpt>
<trkpt lat="40.0741411" lon="-105.2292334">
  <ele>1632.98</ele>
  <time>2026-08-27T18:26:09Z</time>
  <course>16.18</course>
  <speed>5.0768494167150555</speed>
  <fix>3d</fix>
</trkpt>
<trkpt lat="40.0741327" lon="-105.2292365">
  <ele>1632.26</ele>
  <time>2026-08-27T18:26:09Z</time>
  <course>18.24</course>
  <speed>5.13</speed>
  <fix>3d</fix>
</trkpt>
<trkpt lat="40.0741499" lon="-105.2292303">
  <ele>1633.48</ele>
  <time>2026-08-27T18:26:09Z</time>
  <course>14.0</course>
  <speed>5.01328235789687</speed>
  <fix>3d</fix>
</trkpt>
<trkpt lat="40.0741414" lon="-105.229233">
  <ele>1632.76</ele>
  <time>2026-08-27T18:26:09Z</time>
  <course>16.17</course>
  <speed>5.06</speed>
  <fix>3d</fix>
</trkpt>
<trkpt lat="40.0741586" lon="-105.2292277">
  <ele>1633.98</ele>
  <time>2026-08-27T18:26:09Z</time>
  <course>11.69</course>
  <speed>4.967625187149288</speed>
  <fix>3d</fix>
</trkpt>
<trkpt lat="40.0741502" lon="-105.22923">
  <ele>1633.25</ele>
  <time>2026-08-27T18:26:09Z</time>
  <course>13.94</course>
  <speed>5.0</speed>
  <fix>3d</fix>
</trkpt>
<trkpt lat="40.0741673" lon="-105.2292256">
  <ele>1634.47</ele>
  <time>2026-08-27T18:26:09Z</time>
  <course>9.21</course>
  <speed>4.919064951797242</speed>
  <fix>3d</fix>
</trkpt>
<trkpt lat="40.0741589" lon="-105.2292274">
  <ele>1633.75</ele>
  <time>2026-08-27T18:26:09Z</time>
  <course>11.55</course>
  <speed>4.94</speed>
  <fix>3d</fix>
</trkpt>
<trkpt lat="40.074176" lon="-105.2292241">
  <ele>1634.97</ele>
  <time>2026-08-27T18:26:09Z</time>
  <course>6.58</course>
  <speed>4.87887282064208</speed>
  <fix>3d</fix>
</trkpt>
<trkpt lat="40.0741676" lon="-105.2292253">
  <ele>1634.24</ele>
  <time>2026-08-27T18:26:09Z</time>
  <course>9.02</course>
  <speed>4.89</speed>
  <fix>3d</fix>
</trkpt>
<trkpt lat="40.0741846" lon="-105.229223">
  <ele>1635.47</ele>
  <time>2026-08-27T18:26:09Z</time>
  <course>3.94</course>
  <speed>4.8486802328056235</speed>
  <fix>3d</fix>
</trkpt>
<trkpt lat="40.0741763" lon="-105.2292238">
  <ele>1634.73</ele>
  <time>2026-08-27T18:26:09Z</time>
  <course>6.36</course>
  <speed>4.86</speed>
  <fix>3d</fix>
</trkpt>
<trkpt lat="40.0741932" lon="-105.2292226">
  <ele>1635.95</ele>
  <time>2026-08-27T18:26:09Z</time>
  <course>1.32</course>
  <speed>4.7802614991232435</speed>
  <fix>3d</fix>
</trkpt>
<trkpt lat="40.074185" lon="-105.2292228">
  <ele>1635.22</ele>
  <time>2026-08-27T18:26:09Z</time>
  <course>3.6</course>
  <speed>4.82</speed>
  <fix>3d</fix>
</trkpt>
<trkpt lat="40.0742016" lon="-105.2292227">
  <ele>1636.43</ele>
  <time>2026-08-27T18:26:09Z</time>
  <course>358.68</course>
  <speed>4.663871782114083</speed>
  <fix>3d</fix>
</trkpt>
<trkpt lat="40.0741936" lon="-105.2292224">
  <ele>1635.71</ele>
  <time>2026-08-27T18:26:09Z</time>
  <course>0.72</course>
  <speed>4.76</speed>
  <fix>3d</fix>
</trkpt>
<trkpt lat="40.0742098" lon="-105.2292233">
  <ele>1636.89</ele>
  <time>2026-08-27T18:26:09Z</time>
  <course>356.01</course>
  <speed>4.519557500463955</speed>
  <fix>3d</fix>
</trkpt>
<trkpt lat="40.0742021" lon="-105.2292225">
  <ele>1636.19</ele>
  <time>2026-08-27T18:26:09Z</time>
  <course>357.72</course>
  <speed>4.65</speed>
  <fix>3d</fix>
</trkpt>
<trkpt lat="40.0742177" lon="-105.2292245">
  <ele>1637.33</ele>
  <time>2026-08-27T18:26:09Z</time>
  <course>353.27</course>
  <speed>4.377042380420825</speed>
  <fix>3d</fix>
</trkpt>
<trkpt lat="40.0742103" lon="-105.2292232">
  <ele>1636.65</ele>
  <time>2026-08-27T18:26:09Z</time>
  <course>354.64</course>
  <speed>4.52</speed>
  <fix>3d</fix>
</trkpt>
<trkpt lat="40.0742253" lon="-105.2292262">
  <ele>1637.74</ele>
  <time>2026-08-27T18:26:09Z</time>
  <course>350.29</course>
  <speed>4.238171775659878</speed>
  <fix>3d</fix>
</trkpt>
<trkpt lat="40.0742182" lon="-105.2292243">
  <ele>1637.09</ele>
  <time>2026-08-27T18:26:09Z</time>
  <course>351.46</course>
  <speed>4.37</speed>
  <fix>3d</fix>
</trkpt>
<trkpt lat="40.0742326" lon="-105.2292284">
  <ele>1638.14</ele>
  <time>2026-08-27T18:26:09Z</time>
  <course>346.98</course>
  <speed>4.116916321714591</speed>
  <fix>3d</fix>
</trkpt>
<trkpt lat="40.0742258" lon="-105.2292262">
  <ele>1637.5</ele>
  <time>2026-08-27T18:26:09Z</time>
  <course>348.1</course>
  <speed>4.23</speed>
  <fix>3d</fix>
</trkpt>
<trkpt lat="40.0742396" lon="-105.2292312">
  <ele>1638.51</ele>
  <time>2026-08-27T18:26:09Z</time>
  <course>343.33</course>
  <speed>4.00056246045478</speed>
  <fix>3d</fix>
</trkpt>
<trkpt lat="40.0742331" lon="-105.2292285">
  <ele>1637.88</ele>
  <time>2026-08-27T18:26:09Z</time>
  <course>344.5</course>
  <speed>4.11</speed>
  <fix>3d</fix>
</trkpt>
<trkpt lat="40.0742462" lon="-105.2292346">
  <ele>1638.86</ele>
  <time>2026-08-27T18:26:09Z</time>
  <course>339.35</course>
  <speed>3.90636659825982</speed>
  <fix>3d</fix>
</trkpt>
<trkpt lat="40.0742401" lon="-105.2292313">
  <ele>1638.26</ele>
  <time>2026-08-27T18:26:09Z</time>
  <course>340.61</course>
  <speed>4.0</speed>
  <fix>3d</fix>
</trkpt>
<trkpt lat="40.0742525" lon="-105.2292385">
  <ele>1639.19</ele>
  <time>2026-08-27T18:26:09Z</time>
  <course>335.15</course>
  <speed>3.824264635194589</speed>
  <fix>3d</fix>
</trkpt>
<trkpt lat="40.0742467" lon="-105.2292347">
  <ele>1638.61</ele>
  <time>2026-08-27T18:26:09Z</time>
  <course>336.46</course>
  <speed>3.9</speed>
  <fix>3d</fix>
</trkpt>
<trkpt lat="40.0742584" lon="-105.2292429">
  <ele>1639.51</ele>
  <time>2026-08-27T18:26:09Z</time>
  <course>330.79</course>
  <speed>3.773592452822642</speed>
  <fix>3d</fix>
</trkpt>
<trkpt lat="40.0742529" lon="-105.2292387">
  <ele>1638.94</ele>
  <time>2026-08-27T18:26:09Z</time>
  <course>332.14</course>
  <speed>3.82</speed>
  <fix>3d</fix>
</trkpt>
<trkpt lat="40.074264" lon="-105.2292478">
  <ele>1639.81</ele>
  <time>2026-08-27T18:26:09Z</time>
  <course>326.39</course>
  <speed>3.7341933533227762</speed>
  <fix>3d</fix>
</trkpt>
<trkpt lat="40.0742588" lon="-105.2292431">
  <ele>1639.27</ele>
  <time>2026-08-27T18:26:09Z</time>
  <course>327.72</course>
  <speed>3.76</speed>
  <fix>3d</fix>
</trkpt>
<trkpt lat="40.0742693" lon="-105.2292533">
  <ele>1640.11</ele>
  <time>2026-08-27T18:26:09Z</time>
  <course>322.03</course>
  <speed>3.7301206414806476</speed>
  <fix>3d</fix>
</trkpt>
<trkpt lat="40.0742644" lon="-105.229248">
  <ele>1639.58</ele>
  <time>2026-08-27T18:26:09Z</time>
  <course>323.31</course>
  <speed>3.72</speed>
  <fix>3d</fix>
</trkpt>
<trkpt lat="40.0742742" lon="-105.2292592">
  <ele>1640.39</ele>
  <time>2026-08-27T18:26:09Z</time>
  <course>317.79</course>
  <speed>3.747692623468472</speed>
  <fix>3d</fix>
</trkpt>
<trkpt lat="40.0742696" lon="-105.2292535">
  <ele>1639.88</ele>
  <time>2026-08-27T18:26:09Z</time>
  <course>318.98</course>
  <speed>3.71</speed>
  <fix>3d</fix>
</trkpt>
<trkpt lat="40.0742788" lon="-105.2292656">
  <ele>1640.66</ele>
  <time>2026-08-27T18:26:09Z</time>
  <course>313.79</course>
  <speed>3.7835961729550367</speed>
  <fix>3d</fix>
</trkpt>
<trkpt lat="40.0742744" lon="-105.2292595">
  <ele>1640.17</ele>
  <time>2026-08-27T18:26:09Z</time>
  <course>314.82</course>
  <speed>3.73</speed>
  <fix>3d</fix>
</trkpt>
<trkpt lat="40.0742831" lon="-105.2292725">
  <ele>1640.92</ele>
  <time>2026-08-27T18:26:09Z</time>
  <course>310.01</course>
  <speed>3.8503246616356908</speed>
  <fix>3d</fix>
</trkpt>
<trkpt lat="40.074279" lon="-105.229266">
  <ele>1640.45</ele>
  <time>2026-08-27T18:26:09Z</time>
  <course>310.89</course>
  <speed>3.77</speed>
  <fix>3d</fix>
</trkpt>
<trkpt lat="40.0742872" lon="-105.2292799">
  <ele>1641.18</ele>
  <time>2026-08-27T18:26:09Z</time>
  <course>306.45</course>
  <speed>3.9302162790360535</speed>
  <fix>3d</fix>
</trkpt>
<trkpt lat="40.0742833" lon="-105.2292729">
  <ele>1640.72</ele>
  <time>2026-08-27T18:26:09Z</time>
  <course>307.21</course>
  <speed>3.83</speed>
  <fix>3d</fix>
</trkpt>
<trkpt lat="40.074291" lon="-105.2292879">
  <ele>1641.42</ele>
  <time>2026-08-27T18:26:09Z</time>
  <course>303.21</course>
  <speed>4.023356807443257</speed>
  <fix>3d</fix>
</trkpt>
<trkpt lat="40.0742873" lon="-105.2292803">
  <ele>1640.97</ele>
  <time>2026-08-27T18:26:09Z</time>
  <course>303.79</course>
  <speed>3.91</speed>
  <fix>3d</fix>
</trkpt>
<trkpt lat="40.0742946" lon="-105.2292962">
  <ele>1641.65</ele>
  <time>2026-08-27T18:26:09Z</time>
  <course>300.22</course>
  <speed>4.124706050132542</speed>
  <fix>3d</fix>
</trkpt>
<trkpt lat="40.0742911" lon="-105.2292882">
  <ele>1641.21</ele>
  <time>2026-08-27T18:26:09Z</time>
  <course>300.64</course>
  <speed>4.0</speed>
  <fix>3d</fix>
</trkpt>
<trkpt lat="40.0742979" lon="-105.229305">
  <ele>1641.86</ele>
  <time>2026-08-27T18:26:09Z</time>
  <course>297.51</course>
  <speed>4.236153915995027</speed>
  <fix>3d</fix>
</trkpt>
<trkpt lat="40.0742946" lon="-105.2292965">
  <ele>1641.44</ele>
  <time>2026-08-27T18:26:09Z</time>
  <course>297.72</course>
  <speed>4.1</speed>
  <fix>3d</fix>
</trkpt>
<trkpt lat="40.074301" lon="-105.2293141">
  <ele>1642.05</ele>
  <time>2026-08-27T18:26:09Z</time>
  <course>294.98</course>
  <speed>4.334616476690873</speed>
  <fix>3d</fix>
</trkpt>
<trkpt lat="40.074298" lon="-105.2293052">
  <ele>1641.66</ele>
  <time>2026-08-27T18:26:09Z</time>
  <course>294.99</course>
  <speed>4.21</speed>
  <fix>3d</fix>
</trkpt>
<trkpt lat="40.0743039" lon="-105.2293237">
  <ele>1642.22</ele>
  <time>2026-08-27T18:26:09Z</time>
  <course>292.57</course>
  <speed>4.400829467270914</speed>
  <fix>3d</fix>
</trkpt>
<trkpt lat="40.0743011" lon="-105.2293144">
  <ele>1641.85</ele>
  <time>2026-08-27T18:26:09Z</time>
  <course>292.4</course>
  <speed>4.3</speed>
  <fix>3d</fix>
</trkpt>
<trkpt lat="40.0743064" lon="-105.2293334">
  <ele>1642.38</ele>
  <time>2026-08-27T18:26:09Z</time>
  <course>290.29</course>
  <speed>4.440202698075844</speed>
  <fix>3d</fix>
</trkpt>
<trkpt lat="40.0743039" lon="-105.2293239">
  <ele>1642.03</ele>
  <time>2026-08-27T18:26:09Z</time>
  <course>289.88</course>
  <speed>4.37</speed>
  <fix>3d</fix>
</trkpt>
<trkpt lat="40.0743087" lon="-105.2293434">
  <ele>1642.51</ele>
  <time>2026-08-27T18:26:09Z</time>
  <course>288.15</course>
  <speed>4.471263803445286</speed>
  <fix>3d</fix>
</trkpt>
<trkpt lat="40.0743064" lon="-105.2293337">
  <ele>1642.19</ele>
  <time>2026-08-27T18:26:09Z</time>
  <course>287.46</course>
  <speed>4.42</speed>
  <fix>3d</fix>
</trkpt>
<trkpt lat="40.0743106" lon="-105.2293536">
  <ele>1642.62</ele>
  <time>2026-08-27T18:26:09Z</time>
  <course>286.09</course>
  <speed>4.499477747472477</speed>
  <fix>3d</fix>
</trkpt>
<trkpt lat="40.0743086" lon="-105.2293437">
  <ele>1642.33</ele>
  <time>2026-08-27T18:26:09Z</time>
  <course>285.16</course>
  <speed>4.45</speed>
  <fix>3d</fix>
</trkpt>
<trkpt lat="40.0743123" lon="-105.2293639">
  <ele>1642.7</ele>
  <time>2026-08-27T18:26:09Z</time>
  <course>284.06</course>
  <speed>4.512704289004543</speed>
  <fix>3d</fix>
</trkpt>
<trkpt lat="40.0743106" lon="-105.2293539">
  <ele>1642.45</ele>
  <time>2026-08-27T18:26:09Z</time>
  <course>282.94</course>
  <speed>4.47</speed>
  <fix>3d</fix>
</trkpt>
<trkpt lat="40.0743136" lon="-105.2293743">
  <ele>1642.76</ele>
  <time>2026-08-27T18:26:09Z</time>
  <course>281.97</course>
  <speed>4.522941520736256</speed>
  <fix>3d</fix>
</trkpt>
<trkpt lat="40.0743122" lon="-105.2293641">
  <ele>1642.54</ele>
  <time>2026-08-27T18:26:09Z</time>
  <course>280.73</course>
  <speed>4.49</speed>
  <fix>3d</fix>
</trkpt>
<trkpt lat="40.0743147" lon="-105.2293848">
  <ele>1642.81</ele>
  <time>2026-08-27T18:26:09Z</time>
  <course>279.8</course>
  <speed>4.528807790136384</speed>
  <fix>3d</fix>
</trkpt>
<trkpt lat="40.0743135" lon="-105.2293746">
  <ele>1642.61</ele>
  <time>2026-08-27T18:26:09Z</time>
  <course>278.5</course>
  <speed>4.5</speed>
  <fix>3d</fix>
</trkpt>
<trkpt lat="40.0743154" lon="-105.2293953">
  <ele>1642.83</ele>
  <time>2026-08-27T18:26:09Z</time>
  <course>277.59</course>
  <speed>4.52133829745132</speed>
  <fix>3d</fix>
</trkpt>
<trkpt lat="40.0743146" lon="-105.2293851">
  <ele>1642.66</ele>
  <time>2026-08-27T18:26:09Z</time>
  <course>276.21</course>
  <speed>4.5</speed>
  <fix>3d</fix>
</trkpt>
<trkpt lat="40.0743158" lon="-105.2294059">
  <ele>1642.84</ele>
  <time>2026-08-27T18:26:09Z</time>
  <course>275.29</course>
  <speed>4.501877386157912</speed>
  <fix>3d</fix>
</trkpt>
<trkpt lat="40.0743153" lon="-105.2293957">
  <ele>1642.69</ele>
  <time>2026-08-27T18:26:09Z</time>
  <course>273.84</course>
  <speed>4.49</speed>
  <fix>3d</fix>
</trkpt>
<trkpt lat="40.0743158" lon="-105.2294163">
  <ele>1642.83</ele>
  <time>2026-08-27T18:26:10Z</time>
  <course>272.92</course>
  <speed>4.480401767698964</speed>
  <fix>3d</fix>
</trkpt>
<trkpt lat="40.0743157" lon="-105.2294062">
  <ele>1642.7</ele>
  <time>2026-08-27T18:26:10Z</time>
  <course>271.38</course>
  <speed>4.47</speed>
  <fix>3d</fix>
</trkpt>
<trkpt lat="40.0743155" lon="-105.2294267">
  <ele>1642.79</ele>
  <time>2026-08-27T18:26:10Z</time>
  <course>270.45</course>
  <speed>4.447606097666474</speed>
  <fix>3d</fix>
</trkpt>
<trkpt lat="40.0743157" lon="-105.2294167">
  <ele>1642.68</ele>
  <time>2026-08-27T18:26:10Z</time>
  <course>268.84</course>
  <speed>4.45</speed>
  <fix>3d</fix>
</trkpt>
<trkpt lat="40.0743149" lon="-105.229437">
  <ele>1642.73</ele>
  <time>2026-08-27T18:26:10Z</time>
  <course>267.86</course>
  <speed>4.415087768097028</speed>
  <fix>3d</fix>
</trkpt>
<trkpt lat="40.0743154" lon="-105.2294271">
  <ele>1642.65</ele>
  <time>2026-08-27T18:26:10Z</time>
  <course>266.21</course>
  <speed>4.42</speed>
  <fix>3d</fix>
</trkpt>
<trkpt lat="40.0743138" lon="-105.2294472">
  <ele>1642.65</ele>
  <time>2026-08-27T18:26:10Z</time>
  <course>265.16</course>
  <speed>4.38306970056375</speed>
  <fix>3d</fix>
</trkpt>
<trkpt lat="40.0743147" lon="-105.2294374">
  <ele>1642.59</ele>
  <time>2026-08-27T18:26:10Z</time>
  <course>263.46</course>
  <speed>4.39</speed>
  <fix>3d</fix>
</trkpt>
<trkpt lat="40.0743124" lon="-105.2294572">
  <ele>1642.55</ele>
  <time>2026-08-27T18:26:10Z</time>
  <course>262.3</course>
  <speed>4.342188388359031</speed>
  <fix>3d</fix>
</trkpt>
<trkpt lat="40.0743137" lon="-105.2294476">
  <ele>1642.52</ele>
  <time>2026-08-27T18:26:10Z</time>
  <course>260.59</course>
  <speed>4.36</speed>
  <fix>3d</fix>
</trkpt>
<trkpt lat="40.0743106" lon="-105.229467">
  <ele>1642.43</ele>
  <time>2026-08-27T18:26:10Z</time>
  <course>259.35</course>
  <speed>4.305542939049615</speed>
  <fix>3d</fix>
</trkpt>
<trkpt lat="40.0743122" lon="-105.2294576">
  <ele>1642.42</ele>
  <time>2026-08-27T18:26:10Z</time>
  <course>257.6</course>
  <speed>4.32</speed>
  <fix>3d</fix>
</trkpt>
<trkpt lat="40.0743083" lon="-105.2294766">
  <ele>1642.29</ele>
  <time>2026-08-27T18:26:10Z</time>
  <course>256.24</course>
  <speed>4.26279251195739</speed>
  <fix>3d</fix>
</trkpt>
<trkpt lat="40.0743103" lon="-105.2294674">
  <ele>1642.31</ele>
  <time>2026-08-27T18:26:10Z</time>
  <course>254.49</course>
  <speed>4.29</speed>
  <fix>3d</fix>
</trkpt>
<trkpt lat="40.0743057" lon="-105.2294859">
  <ele>1642.14</ele>
  <time>2026-08-27T18:26:10Z</time>
  <course>253.05</course>
  <speed>4.233922531176026</speed>
  <fix>3d</fix>
</trkpt>
<trkpt lat="40.074308" lon="-105.229477">
  <ele>1642.17</ele>
  <time>2026-08-27T18:26:10Z</time>
  <course>251.28</course>
  <speed>4.25</speed>
  <fix>3d</fix>
</trkpt>
<trkpt lat="40.0743027" lon="-105.2294951">
  <ele>1641.96</ele>
  <time>2026-08-27T18:26:10Z</time>
  <course>249.76</course>
  <speed>4.210142515402537</speed>
  <fix>3d</fix>
</trkpt>
<trkpt lat="40.0743054" lon="-105.2294863">
  <ele>1642.01</ele>
  <time>2026-08-27T18:26:10Z</time>
  <course>247.96</course>
  <speed>4.22</speed>
  <fix>3d</fix>
</trkpt>
<trkpt lat="40.0742992" lon="-105.2295039">
  <ele>1641.76</ele>
  <time>2026-08-27T18:26:10Z</time>
  <course>246.35</course>
  <speed>4.183598929151789</speed>
  <fix>3d</fix>
</trkpt>
<trkpt lat="40.0743023" lon="-105.2294953">
  <ele>1641.84</ele>
  <time>2026-08-27T18:26:10Z</time>
  <course>244.56</course>
  <speed>4.19</speed>
  <fix>3d</fix>
</trkpt>
<trkpt lat="40.0742954" lon="-105.2295123">
  <ele>1641.53</ele>
  <time>2026-08-27T18:26:10Z</time>
  <course>242.9</course>
  <speed>4.181698219623219</speed>
  <fix>3d</fix>
</trkpt>
<trkpt lat="40.0742989" lon="-105.2295041">
  <ele>1641.64</ele>
  <time>2026-08-27T18:26:10Z</time>
  <course>241.08</course>
  <speed>4.17</speed>
  <fix>3d</fix>
</trkpt>
<trkpt lat="40.0742912" lon="-105.2295204">
  <ele>1641.29</ele>
  <time>2026-08-27T18:26:10Z</time>
  <course>239.43</course>
  <speed>4.179102774519909</speed>
  <fix>3d</fix>
</trkpt>
<trkpt lat="40.0742951" lon="-105.2295125">
  <ele>1641.42</ele>
  <time>2026-08-27T18:26:10Z</time>
  <course>237.52</course>
  <speed>4.17</speed>
  <fix>3d</fix>
</trkpt>
<trkpt lat="40.0742866" lon="-105.2295282">
  <ele>1641.03</ele>
  <time>2026-08-27T18:26:10Z</time>
  <course>235.67</course>
  <speed>4.163892409753163</speed>
  <fix>3d</fix>
</trkpt>
<trkpt lat="40.0742908" lon="-105.2295206">
  <ele>1641.18</ele>
  <time>2026-08-27T18:26:10Z</time>
  <course>233.89</course>
  <speed>4.16</speed>
  <fix>3d</fix>
</trkpt>
<trkpt lat="40.0742816" lon="-105.2295354">
  <ele>1640.76</ele>
  <time>2026-08-27T18:26:10Z</time>
  <course>231.76</course>
  <speed>4.138320915540505</speed>
  <fix>3d</fix>
</trkpt>
<trkpt lat="40.0742863" lon="-105.2295283">
  <ele>1640.93</ele>
  <time>2026-08-27T18:26:10Z</time>
  <course>230.11</course>
  <speed>4.15</speed>
  <fix>3d</fix>
</trkpt>
<trkpt lat="40.0742764" lon="-105.2295422">
  <ele>1640.47</ele>
  <time>2026-08-27T18:26:10Z</time>
  <course>227.74</course>
  <speed>4.104728980091134</speed>
  <fix>3d</fix>
</trkpt>
<trkpt lat="40.0742813" lon="-105.2295355">
  <ele>1640.66</ele>
  <time>2026-08-27T18:26:10Z</time>
  <course>226.18</course>
  <speed>4.13</speed>
  <fix>3d</fix>
</trkpt>
<trkpt lat="40.0742708" lon="-105.2295484">
  <ele>1640.17</ele>
  <time>2026-08-27T18:26:10Z</time>
  <course>223.73</course>
  <speed>4.062080747597221</speed>
  <fix>3d</fix>
</trkpt>
<trkpt lat="40.074276" lon="-105.2295423">
  <ele>1640.37</ele>
  <time>2026-08-27T18:26:10Z</time>
  <course>222.17</course>
  <speed>4.1</speed>
  <fix>3d</fix>
</trkpt>
<trkpt lat="40.0742649" lon="-105.229554">
  <ele>1639.85</ele>
  <time>2026-08-27T18:26:10Z</time>
  <course>219.85</course>
  <speed>4.038861225642694</speed>
  <fix>3d</fix>
</trkpt>
<trkpt lat="40.0742704" lon="-105.2295485">
  <ele>1640.07</ele>
  <time>2026-08-27T18:26:10Z</time>
  <course>218.13</course>
  <speed>4.07</speed>
  <fix>3d</fix>
</trkpt>
<trkpt lat="40.0742588" lon="-105.229559">
  <ele>1639.53</ele>
  <time>2026-08-27T18:26:10Z</time>
  <course>215.69</course>
  <speed>3.985699436736293</speed>
  <fix>3d</fix>
</trkpt>
<trkpt lat="40.0742645" lon="-105.2295541">
  <ele>1639.76</ele>
  <time>2026-08-27T18:26:10Z</time>
  <course>214.09</course>
  <speed>4.03</speed>
  <fix>3d</fix>
</trkpt>
<trkpt lat="40.0742525" lon="-105.2295634">
  <ele>1639.2</ele>
  <time>2026-08-27T18:26:10Z</time>
  <course>211.2</course>
  <speed>3.8997948664000264</speed>
  <fix>3d</fix>
</trkpt>
<trkpt lat="40.0742584" lon="-105.2295591">
  <ele>1639.45</ele>
  <time>2026-08-27T18:26:10Z</time>
  <course>209.93</course>
  <speed>3.99</speed>
  <fix>3d</fix>
</trkpt>
<trkpt lat="40.0742462" lon="-105.2295671">
  <ele>1638.89</ele>
  <time>2026-08-27T18:26:10Z</time>
  <course>206.67</course>
  <speed>3.7789019569181734</speed>
  <fix>3d</fix>
</trkpt>
<trkpt lat="40.0742521" lon="-105.2295634">
  <ele>1639.13</ele>
  <time>2026-08-27T18:26:10Z</time>
  <course>205.59</course>
  <speed>3.91</speed>
  <fix>3d</fix>
</trkpt>
<trkpt lat="40.0742398" lon="-105.22957">
  <ele>1638.57</ele>
  <time>2026-08-27T18:26:10Z</time>
  <course>202.26</course>
  <speed>3.6592485567394846</speed>
  <fix>3d</fix>
</trkpt>
<trkpt lat="40.0742458" lon="-105.2295671">
  <ele>1638.81</ele>
  <time>2026-08-27T18:26:10Z</time>
  <course>201.17</course>
  <speed>3.8</speed>
  <fix>3d</fix>
</trkpt>
<trkpt lat="40.0742336" lon="-105.2295722">
  <ele>1638.26</ele>
  <time>2026-08-27T18:26:10Z</time>
  <course>198.03</course>
  <speed>3.536382332271215</speed>
  <fix>3d</fix>
</trkpt>
<trkpt lat="40.0742393" lon="-105.2295699">
  <ele>1638.5</ele>
  <time>2026-08-27T18:26:10Z</time>
  <course>196.84</course>
  <speed>3.68</speed>
  <fix>3d</fix>
</trkpt>
<trkpt lat="40.0742274" lon="-105.2295738">
  <ele>1637.95</ele>
  <time>2026-08-27T18:26:10Z</time>
  <course>194.03</course>
  <speed>3.417864830563081</speed>
  <fix>3d</fix>
</trkpt>
<trkpt lat="40.0742331" lon="-105.2295721">
  <ele>1638.19</ele>
  <time>2026-08-27T18:26:10Z</time>
  <course>192.7</course>
  <speed>3.56</speed>
  <fix>3d</fix>
</trkpt>
<trkpt lat="40.0742214" lon="-105.2295748">
  <ele>1637.64</ele>
  <time>2026-08-27T18:26:10Z</time>
  <course>190.21</course>
  <speed>3.3174689146998797</speed>
  <fix>3d</fix>
</trkpt>
<trkpt lat="40.0742269" lon="-105.2295736">
  <ele>1637.89</ele>
  <time>2026-08-27T18:26:10Z</time>
  <course>188.75</course>
  <speed>3.44</speed>
  <fix>3d</fix>
</trkpt>
<trkpt lat="40.0742155" lon="-105.2295753">
  <ele>1637.33</ele>
  <time>2026-08-27T18:26:10Z</time>
  <course>186.56</course>
  <speed>3.213051509079803</speed>
  <fix>3d</fix>
</trkpt>
<trkpt lat="40.0742209" lon="-105.2295745">
  <ele>1637.59</ele>
  <time>2026-08-27T18:26:10Z</time>
  <course>184.98</course>
  <speed>3.33</speed>
  <fix>3d</fix>
</trkpt>
<trkpt lat="40.0742098" lon="-105.2295753">
  <ele>1637.02</ele>
  <time>2026-08-27T18:26:10Z</time>
  <course>183.09</course>
  <speed>3.120256399721023</speed>
  <fix>3d</fix>
</trkpt>
<trkpt lat="40.0742149" lon="-105.2295749">
  <ele>1637.28</ele>
  <time>2026-08-27T18:26:10Z</time>
  <course>181.42</course>
  <speed>3.23</speed>
  <fix>3d</fix>
</trkpt>
<trkpt lat="40.0742042" lon="-105.2295749">
  <ele>1636.72</ele>
  <time>2026-08-27T18:26:10Z</time>
  <course>179.88</course>
  <speed>3.0359512512555273</speed>
  <fix>3d</fix>
</trkpt>
<trkpt lat="40.0742092" lon="-105.2295749">
  <ele>1636.98</ele>
  <time>2026-08-27T18:26:10Z</time>
  <course>178.08</course>
  <speed>3.13</speed>
  <fix>3d</fix>
</trkpt>
<trkpt lat="40.0741988" lon="-105.2295743">
  <ele>1636.42</ele>
  <time>2026-08-27T18:26:10Z</time>
  <course>176.98</course>
  <speed>2.9584624384974028</speed>
  <fix>3d</fix>
</trkpt>
<trkpt lat="40.0742037" lon="-105.2295745">
  <ele>1636.67</ele>
  <time>2026-08-27T18:26:10Z</time>
  <course>175.01</course>
  <speed>3.04</speed>
  <fix>3d</fix>
</trkpt>
<trkpt lat="40.0741936" lon="-105.2295732">
  <ele>1636.12</ele>
  <time>2026-08-27T18:26:10Z</time>
  <course>174.41</course>
  <speed>2.8936482163524992</speed>
  <fix>3d</fix>
</trkpt>
<trkpt lat="40.0741984" lon="-105.2295738">
  <ele>1636.38</ele>
  <time>2026-08-27T18:26:10Z</time>
  <course>172.27</course>
  <speed>2.96</speed>
  <fix>3d</fix>
</trkpt>
<trkpt lat="40.0741885" lon="-105.2295719">
  <ele>1635.82</ele>
  <time>2026-08-27T18:26:10Z</time>
  <course>172.21</course>
  <speed>2.830070670495703</speed>
  <fix>3d</fix>
</trkpt>
<trkpt lat="40.0741931" lon="-105.2295728">
  <ele>1636.08</ele>
  <time>2026-08-27T18:26:10Z</time>
  <course>169.89</course>
  <speed>2.89</speed>
  <fix>3d</fix>
</trkpt>
<trkpt lat="40.0741835" lon="-105.2295705">
  <ele>1635.52</ele>
  <time>2026-08-27T18:26:10Z</time>
  <course>170.39</course>
  <speed>2.7853904573685897</speed>
  <fix>3d</fix>
</trkpt>
<trkpt lat="40.0741881" lon="-105.2295714">
  <ele>1635.79</ele>
  <time>2026-08-27T18:26:10Z</time>
  <course>167.88</course>
  <speed>2.83</speed>
  <fix>3d</fix>
</trkpt>
<trkpt lat="40.0741787" lon="-105.2295689">
  <ele>1635.22</ele>
  <time>2026-08-27T18:26:10Z</time>
  <course>168.99</course>
  <speed>2.745632896073326</speed>
  <fix>3d</fix>
</trkpt>
<trkpt lat="40.0741832" lon="-105.22957">
  <ele>1635.49</ele>
  <time>2026-08-27T18:26:10Z</time>
  <course>166.29</course>
  <speed>2.77</speed>
  <fix>3d</fix>
</trkpt>
<trkpt lat="40.0741739" lon="-105.2295672">
  <ele>1634.92</ele>
  <time>2026-08-27T18:26:10Z</time>
  <course>168.02</course>
  <speed>2.723692346796899</speed>
  <fix>3d</fix>
</trkpt>
<trkpt lat="40.0741784" lon="-105.2295684">
  <ele>1635.19</ele>
  <time>2026-08-27T18:26:10Z</time>
  <course>165.17</course>
  <speed>2.73</speed>
  <fix>3d</fix>
</trkpt>
<trkpt lat="40.0741692" lon="-105.2295655">
  <ele>1634.62</ele>
  <time>2026-08-27T18:26:10Z</time>
  <course>167.45</course>
  <speed>2.706806236138819</speed>
  <fix>3d</fix>
</trkpt>
<trkpt lat="40.0741737" lon="-105.2295667">
  <ele>1634.89</ele>
  <time>2026-08-27T18:26:10Z</time>
  <course>164.48</course>
  <speed>2.7</speed>
  <fix>3d</fix>
</trkpt>
<trkpt lat="40.0741646" lon="-105.2295638">
  <ele>1634.32</ele>
  <time>2026-08-27T18:26:10Z</time>
  <course>167.18</course>
  <speed>2.706806236138819</speed>
  <fix>3d</fix>
</trkpt>
<trkpt lat="40.0741691" lon="-105.229565">
  <ele>1634.59</ele>
  <time>2026-08-27T18:26:10Z</time>
  <course>164.18</course>
  <speed>2.68</speed>
  <fix>3d</fix>
</trkpt>
<trkpt lat="40.0741599" lon="-105.2295621">
  <ele>1634.02</ele>
  <time>2026-08-27T18:26:10Z</time>
  <course>167.11</course>
  <speed>2.7164867016055867</speed>
  <fix>3d</fix>
</trkpt>
<trkpt lat="40.0741644" lon="-105.2295633">
  <ele>1634.29</ele>
  <time>2026-08-27T18:26:10Z</time>
  <course>164.17</course>
  <speed>2.67</speed>
  <fix>3d</fix>
</trkpt>
<trkpt lat="40.0741553" lon="-105.2295604">
  <ele>1633.72</ele>
  <time>2026-08-27T18:26:10Z</time>
  <course>167.19</course>
  <speed>2.735854528296415</speed>
  <fix>3d</fix>
</trkpt>
<trkpt lat="40.0741597" lon="-105.2295616">
  <ele>1633.99</ele>
  <time>2026-08-27T18:26:10Z</time>
  <course>164.35</course>
  <speed>2.68</speed>
  <fix>3d</fix>
</trkpt>
<trkpt lat="40.0741505" lon="-105.2295587">
  <ele>1633.42</ele>
  <time>2026-08-27T18:26:10Z</time>
  <course>167.3</course>
  <speed>2.7746170906991834</speed>
  <fix>3d</fix>
</trkpt>
<trkpt lat="40.0741551" lon="-105.2295599">
  <ele>1633.7</ele>
  <time>2026-08-27T18:26:10Z</time>
  <course>164.64</course>
  <speed>2.69</speed>
  <fix>3d</fix>
</trkpt>
<trkpt lat="40.0741457" lon="-105.229557">
  <ele>1633.12</ele>
  <time>2026-08-27T18:26:10Z</time>
  <course>167.41</course>
  <speed>2.8158480072617555</speed>
  <fix>3d</fix>
</trkpt>
<trkpt lat="40.0741504" lon="-105.2295582">
  <ele>1633.4</ele>
  <time>2026-08-27T18:26:10Z</time>
  <course>164.96</course>
  <speed>2.73</speed>
  <fix>3d</fix>
</trkpt>
<trkpt lat="40.0741408" lon="-105.2295553">
  <ele>1632.82</ele>
  <time>2026-08-27T18:26:10Z</time>
  <course>167.47</course>
  <speed>2.8667751917442006</speed>
  <fix>3d</fix>
</trkpt>
<trkpt lat="40.0741456" lon="-105.2295566">
  <ele>1633.1</ele>
  <time>2026-08-27T18:26:10Z</time>
  <course>165.24</course>
  <speed>2.77</speed>
  <fix>3d</fix>
</trkpt>
<trkpt lat="40.0741359" lon="-105.2295536">
  <ele>1632.53</ele>
  <time>2026-08-27T18:26:10Z</time>
  <course>167.41</course>
  <speed>2.9201541055225153</speed>
  <fix>3d</fix>
</trkpt>
<trkpt lat="40.0741408" lon="-105.2295549">
  <ele>1632.8</ele>
  <time>2026-08-27T18:26:10Z</time>
  <course>165.43</course>
  <speed>2.82</speed>
  <fix>3d</fix>
</trkpt>
<trkpt lat="40.0741308" lon="-105.2295518">
  <ele>1632.23</ele>
  <time>2026-08-27T18:26:10Z</time>
  <course>167.21</course>
  <speed>2.973550066839299</speed>
  <fix>3d</fix>
</trkpt>
<trkpt lat="40.0741359" lon="-105.2295532">
  <ele>1632.5</ele>
  <time>2026-08-27T18:26:10Z</time>
  <course>165.48</course>
  <speed>2.87</speed>
  <fix>3d</fix>
</trkpt>
<trkpt lat="40.0741256" lon="-105.22955">
  <ele>1631.93</ele>
  <time>2026-08-27T18:26:10Z</time>
  <course>166.83</course>
  <speed>3.0320455141702602</speed>
  <fix>3d</fix>
</trkpt>
<trkpt lat="40.0741308" lon="-105.2295515">
  <ele>1632.2</ele>
  <time>2026-08-27T18:26:10Z</time>
  <course>165.35</course>
  <speed>2.93</speed>
  <fix>3d</fix>
</trkpt>
<trkpt lat="40.0741204" lon="-105.2295481">
  <ele>1631.64</ele>
  <time>2026-08-27T18:26:11Z</time>
  <course>166.32</course>
  <speed>3.0907604242321987</speed>
  <fix>3d</fix>
</trkpt>
<trkpt lat="40.0741256" lon="-105.2295498">
  <ele>1631.9</ele>
  <time>2026-08-27T18:26:11Z</time>
  <course>165.05</course>
  <speed>2.98</speed>
  <fix>3d</fix>
</trkpt>
<trkpt lat="40.0741151" lon="-105.2295461">
  <ele>1631.34</ele>
  <time>2026-08-27T18:26:11Z</time>
  <course>165.67</course>
  <speed>3.142817207538485</speed>
  <fix>3d</fix>
</trkpt>
<trkpt lat="40.0741204" lon="-105.2295479">
  <ele>1631.6</ele>
  <time>2026-08-27T18:26:11Z</time>
  <course>164.58</course>
  <speed>3.04</speed>
  <fix>3d</fix>
</trkpt>
<trkpt lat="40.0741098" lon="-105.229544">
  <ele>1631.04</ele>
  <time>2026-08-27T18:26:11Z</time>
  <course>164.84</course>
  <speed>3.1886360720533786</speed>
  <fix>3d</fix>
</trkpt>
<trkpt lat="40.0741151" lon="-105.229546">
  <ele>1631.3</ele>
  <time>2026-08-27T18:26:11Z</time>
  <course>163.93</course>
  <speed>3.1</speed>
  <fix>3d</fix>
</trkpt>
<trkpt lat="40.0741043" lon="-105.2295418">
  <ele>1630.74</ele>
  <time>2026-08-27T18:26:11Z</time>
  <course>163.87</course>
  <speed>3.2382711436814553</speed>
  <fix>3d</fix>
</trkpt>
<trkpt lat="40.0741096" lon="-105.2295439">
  <ele>1631.01</ele>
  <time>2026-08-27T18:26:11Z</time>
  <course>163.12</course>
  <speed>3.15</speed>
  <fix>3d</fix>
</trkpt>
<trkpt lat="40.0740989" lon="-105.2295394">
  <ele>1630.43</ele>
  <time>2026-08-27T18:26:11Z</time>
  <course>162.77</course>
  <speed>3.279466420014085</speed>
  <fix>3d</fix>
</trkpt>
<trkpt lat="40.0741042" lon="-105.2295416">
  <ele>1630.71</ele>
  <time>2026-08-27T18:26:11Z</time>
  <course>162.17</course>
  <speed>3.2</speed>
  <fix>3d</fix>
</trkpt>
<trkpt lat="40.0740934" lon="-105.2295368">
  <ele>1630.12</ele>
  <time>2026-08-27T18:26:11Z</time>
  <course>161.56</course>
  <speed>3.325191723795787</speed>
  <fix>3d</fix>
</trkpt>
<trkpt lat="40.0740987" lon="-105.2295392">
  <ele>1630.41</ele>
  <time>2026-08-27T18:26:11Z</time>
  <course>161.09</course>
  <speed>3.25</speed>
  <fix>3d</fix>
</trkpt>
<trkpt lat="40.0740878" lon="-105.229534">
  <ele>1629.82</ele>
  <time>2026-08-27T18:26:11Z</time>
  <course>160.25</course>
  <speed>3.3666749174816393</speed>
  <fix>3d</fix>
</trkpt>
<trkpt lat="40.0740931" lon="-105.2295366">
  <ele>1630.11</ele>
  <time>2026-08-27T18:26:11Z</time>
  <course>159.91</course>
  <speed>3.29</speed>
  <fix>3d</fix>
</trkpt>
<trkpt lat="40.0740822" lon="-105.2295311">
  <ele>1629.52</ele>
  <time>2026-08-27T18:26:11Z</time>
  <course>158.9</course>
  <speed>3.3969545183884935</speed>
  <fix>3d</fix>
</trkpt>
<trkpt lat="40.0740876" lon="-105.2295339">
  <ele>1629.81</ele>
  <time>2026-08-27T18:26:11Z</time>
  <course>158.65</course>
  <speed>3.34</speed>
  <fix>3d</fix>
</trkpt>
<trkpt lat="40.0740766" lon="-105.2295279">
  <ele>1629.23</ele>
  <time>2026-08-27T18:26:11Z</time>
  <course>157.55</course>
  <speed>3.4329287787543747</speed>
  <fix>3d</fix>
</trkpt>
<trkpt lat="40.074082" lon="-105.229531">
  <ele>1629.52</ele>
  <time>2026-08-27T18:26:11Z</time>
  <course>157.34</course>
  <speed>3.37</speed>
  <fix>3d</fix>
</trkpt>
<trkpt lat="40.074071" lon="-105.2295245">
  <ele>1628.95</ele>
  <time>2026-08-27T18:26:11Z</time>
  <course>156.19</course>
  <speed>3.4575280186861828</speed>
  <fix>3d</fix>
</trkpt>
<trkpt lat="40.0740763" lon="-105.2295278">
  <ele>1629.22</ele>
  <time>2026-08-27T18:26:11Z</time>
  <course>156.01</course>
  <speed>3.4</speed>
  <fix>3d</fix>
</trkpt>
<trkpt lat="40.0740655" lon="-105.229521">
  <ele>1628.65</ele>
  <time>2026-08-27T18:26:11Z</time>
  <course>154.85</course>
  <speed>3.4748956818874435</speed>
  <fix>3d</fix>
</trkpt>
<trkpt lat="40.0740708" lon="-105.2295245">
  <ele>1628.92</ele>
  <time>2026-08-27T18:26:11Z</time>
  <course>154.68</course>
  <speed>3.43</speed>
  <fix>3d</fix>
</trkpt>
<trkpt lat="40.07406" lon="-105.2295173">
  <ele>1628.36</ele>
  <time>2026-08-27T18:26:11Z</time>
  <course>153.54</course>
  <speed>3.49412363833909</speed>
  <fix>3d</fix>
</trkpt>
<trkpt lat="40.0740653" lon="-105.2295209">
  <ele>1628.63</ele>
  <time>2026-08-27T18:26:11Z</time>
  <course>153.36</course>
  <speed>3.45</speed>
  <fix>3d</fix>
</trkpt>
<trkpt lat="40.0740545" lon="-105.2295134">
  <ele>1628.06</ele>
  <time>2026-08-27T18:26:11Z</time>
  <course>152.3</course>
  <speed>3.510270644836378</speed>
  <fix>3d</fix>
</trkpt>
<trkpt lat="40.0740597" lon="-105.2295171">
  <ele>1628.34</ele>
  <time>2026-08-27T18:26:11Z</time>
  <course>152.09</course>
  <speed>3.48</speed>
  <fix>3d</fix>
</trkpt>
<trkpt lat="40.074049" lon="-105.2295093">
  <ele>1627.76</ele>
  <time>2026-08-27T18:26:11Z</time>
  <course>151.1</course>
  <speed>3.527846368537043</speed>
  <fix>3d</fix>
</trkpt>
<trkpt lat="40.0740542" lon="-105.2295132">
  <ele>1628.04</ele>
  <time>2026-08-27T18:26:11Z</time>
  <course>150.87</course>
  <speed>3.49</speed>
  <fix>3d</fix>
</trkpt>
<trkpt lat="40.0740436" lon="-105.2295051">
  <ele>1627.46</ele>
  <time>2026-08-27T18:26:11Z</time>
  <course>149.99</course>
  <speed>3.541595685563218</speed>
  <fix>3d</fix>
</trkpt>
<trkpt lat="40.0740487" lon="-105.2295092">
  <ele>1627.74</ele>
  <time>2026-08-27T18:26:11Z</time>
  <course>149.73</course>
  <speed>3.51</speed>
  <fix>3d</fix>
</trkpt>
<trkpt lat="40.0740382" lon="-105.2295007">
  <ele>1627.16</ele>
  <time>2026-08-27T18:26:11Z</time>
  <course>148.95</course>
  <speed>3.556416735985815</speed>
  <fix>3d</fix>
</trkpt>
<trkpt lat="40.0740433" lon="-105.2295049">
  <ele>1627.44</ele>
  <time>2026-08-27T18:26:11Z</time>
  <course>148.67</course>
  <speed>3.53</speed>
  <fix>3d</fix>
</trkpt>
<trkpt lat="40.0740328" lon="-105.2294962">
  <ele>1626.85</ele>
  <time>2026-08-27T18:26:11Z</time>
  <course>148.0</course>
  <speed>3.5667912750818487</speed>
  <fix>3d</fix>
</trkpt>
<trkpt lat="40.0740378" lon="-105.2295006">
  <ele>1627.14</ele>
  <time>2026-08-27T18:26:11Z</time>
  <course>147.71</course>
  <speed>3.54</speed>
  <fix>3d</fix>
</trkpt>
<trkpt lat="40.0740275" lon="-105.2294916">
  <ele>1626.54</ele>
  <time>2026-08-27T18:26:11Z</time>
  <course>147.19</course>
  <speed>3.586223640544466</speed>
  <fix>3d</fix>
</trkpt>
<trkpt lat="40.0740325" lon="-105.2294961">
  <ele>1626.84</ele>
  <time>2026-08-27T18:26:11Z</time>
  <course>146.85</course>
  <speed>3.56</speed>
  <fix>3d</fix>
</trkpt>
<trkpt lat="40.0740221" lon="-105.2294868">
  <ele>1626.24</ele>
  <time>2026-08-27T18:26:11Z</time>
  <course>146.45</course>
  <speed>3.5923529893372113</speed>
  <fix>3d</fix>
</trkpt>
<trkpt lat="40.0740272" lon="-105.2294914">
  <ele>1626.54</ele>
  <time>2026-08-27T18:26:11Z</time>
  <course>146.08</course>
  <speed>3.57</speed>
  <fix>3d</fix>
</trkpt>
<trkpt lat="40.0740168" lon="-105.229482">
  <ele>1625.94</ele>
  <time>2026-08-27T18:26:11Z</time>
  <course>145.83</course>
  <speed>3.6013886210738213</speed>
  <fix>3d</fix>
</trkpt>
<trkpt lat="40.0740218" lon="-105.2294867">
  <ele>1626.24</ele>
  <time>2026-08-27T18:26:11Z</time>
  <course>145.42</course>
  <speed>3.58</speed>
  <fix>3d</fix>
</trkpt>
<trkpt lat="40.0740115" lon="-105.2294771">
  <ele>1625.64</ele>
  <time>2026-08-27T18:26:11Z</time>
  <course>145.32</course>
  <speed>3.610678606577993</speed>
  <fix>3d</fix>
</trkpt>
<trkpt lat="40.0740165" lon="-105.2294819">
  <ele>1625.94</ele>
  <time>2026-08-27T18:26:11Z</time>
  <course>144.86</course>
  <speed>3.59</speed>
  <fix>3d</fix>
</trkpt>
<trkpt lat="40.0740063" lon="-105.2294722">
  <ele>1625.35</ele>
  <time>2026-08-27T18:26:11Z</time>
  <course>144.9</course>
  <speed>3.6143187463199755</speed>
  <fix>3d</fix>
</trkpt>
<trkpt lat="40.0740112" lon="-105.229477">
  <ele>1625.64</ele>
  <time>2026-08-27T18:26:11Z</time>
  <course>144.4</course>
  <speed>3.59</speed>
  <fix>3d</fix>
</trkpt>
<trkpt lat="40.074001" lon="-105.2294672">
  <ele>1625.04</ele>
  <time>2026-08-27T18:26:11Z</time>
  <course>144.59</course>
  <speed>3.6261411996776958</speed>
  <fix>3d</fix>
</trkpt>
<trkpt lat="40.0740061" lon="-105.2294721">
  <ele>1625.35</ele>
  <time>2026-08-27T18:26:11Z</time>
  <course>144.05</course>
  <speed>3.6</speed>
  <fix>3d</fix>
</trkpt>
<trkpt lat="40.0739958" lon="-105.2294622">
  <ele>1624.74</ele>
  <time>2026-08-27T18:26:11Z</time>
  <course>144.37</course>
  <speed>3.6320792942886033</speed>
  <fix>3d</fix>
</trkpt>
<trkpt lat="40.0740008" lon="-105.229467">
  <ele>1625.05</ele>
  <time>2026-08-27T18:26:11Z</time>
  <course>143.8</course>
  <speed>3.61</speed>
  <fix>3d</fix>
</trkpt>
<trkpt lat="40.0739906" lon="-105.2294571">
  <ele>1624.44</ele>
  <time>2026-08-27T18:26:11Z</time>
  <course>144.18</course>
  <speed>3.638035183996988</speed>
  <fix>3d</fix>
</trkpt>
<trkpt lat="40.0739956" lon="-105.229462">
  <ele>1624.76</ele>
  <time>2026-08-27T18:26:11Z</time>
  <course>143.62</course>
  <speed>3.61</speed>
  <fix>3d</fix>
</trkpt>
<trkpt lat="40.0739853" lon="-105.2294521">
  <ele>1624.15</ele>
  <time>2026-08-27T18:26:11Z</time>
  <course>144.1</course>
  <speed>3.6440087815481457</speed>
  <fix>3d</fix>
</trkpt>
<trkpt lat="40.0739904" lon="-105.229457">
  <ele>1624.46</ele>
  <time>2026-08-27T18:26:11Z</time>
  <course>143.51</course>
  <speed>3.62</speed>
  <fix>3d</fix>
</trkpt>
<trkpt lat="40.0739801" lon="-105.229447">
  <ele>1623.85</ele>
  <time>2026-08-27T18:26:11Z</time>
  <course>144.08</course>
  <speed>3.6520268345125833</speed>
  <fix>3d</fix>
</trkpt>
<trkpt lat="40.0739851" lon="-105.2294519">
  <ele>1624.16</ele>
  <time>2026-08-27T18:26:11Z</time>
  <course>143.47</course>
  <speed>3.63</speed>
  <fix>3d</fix>
</trkpt>
<trkpt lat="40.0739748" lon="-105.2294418">
  <ele>1623.55</ele>
  <time>2026-08-27T18:26:11Z</time>
  <course>144.06</course>
  <speed>3.666019639881925</speed>
  <fix>3d</fix>
</trkpt>
<trkpt lat="40.0739799" lon="-105.2294468">
  <ele>1623.87</ele>
  <time>2026-08-27T18:26:11Z</time>
  <course>143.47</course>
  <speed>3.63</speed>
  <fix>3d</fix>
</trkpt>
<trkpt lat="40.0739695" lon="-105.2294367">
  <ele>1623.25</ele>
  <time>2026-08-27T18:26:11Z</time>
  <course>144.08</course>
  <speed>3.6740440933663274</speed>
  <fix>3d</fix>
</trkpt>
<trkpt lat="40.0739746" lon="-105.2294417">
  <ele>1623.57</ele>
  <time>2026-08-27T18:26:11Z</time>
  <course>143.52</course>
  <speed>3.64</speed>
  <fix>3d</fix>
</trkpt>
<trkpt lat="40.0739642" lon="-105.2294316">
  <ele>1622.95</ele>
  <time>2026-08-27T18:26:11Z</time>
  <course>144.14</course>
  <speed>3.682078217528791</speed>
  <fix>3d</fix>
</trkpt>
<trkpt lat="40.0739693" lon="-105.2294366">
  <ele>1623.28</ele>
  <time>2026-08-27T18:26:11Z</time>
  <course>143.59</course>
  <speed>3.65</speed>
  <fix>3d</fix>
</trkpt>
<trkpt lat="40.0739589" lon="-105.2294265">
  <ele>1622.66</ele>
  <time>2026-08-27T18:26:11Z</time>
  <course>144.23</course>
  <speed>3.690121949204389</speed>
  <fix>3d</fix>
</trkpt>
<trkpt lat="40.073964" lon="-105.2294315">
  <ele>1622.98</ele>
  <time>2026-08-27T18:26:11Z</time>
  <course>143.67</course>
  <speed>3.66</speed>
  <fix>3d</fix>
</trkpt>
<trkpt lat="40.0739536" lon="-105.2294215">
  <ele>1622.36</ele>
  <time>2026-08-27T18:26:11Z</time>
  <course>144.33</course>
  <speed>3.6981752257025358</speed>
  <fix>3d</fix>
</trkpt>
<trkpt lat="40.0739587" lon="-105.2294264">
  <ele>1622.67</ele>
  <time>2026-08-27T18:26:11Z</time>
  <course>143.77</course>
  <speed>3.67</speed>
  <fix>3d</fix>
</trkpt>
<trkpt lat="40.0739483" lon="-105.2294164">
  <ele>1622.06</ele>
  <time>2026-08-27T18:26:11Z</time>
  <course>144.43</course>
  <speed>3.7062379848034586</speed>
  <fix>3d</fix>
</trkpt>
<trkpt lat="40.0739533" lon="-105.2294213">
  <ele>1622.38</ele>
  <time>2026-08-27T18:26:11Z</time>
  <course>143.88</course>
  <speed>3.68</speed>
  <fix>3d</fix>
</trkpt>
<trkpt lat="40.0739429" lon="-105.2294113">
  <ele>1621.76</ele>
  <time>2026-08-27T18:26:11Z</time>
  <course>144.52</course>
  <speed>3.7143101647546883</speed>
  <fix>3d</fix>
</trkpt>
<trkpt lat="40.073948" lon="-105.2294162">
  <ele>1622.08</ele>
  <time>2026-08-27T18:26:11Z</time>
  <course>143.99</course>
  <speed>3.69</speed>
  <fix>3d</fix>
</trkpt>
<trkpt lat="40.0739376" lon="-105.2294062">
  <ele>1621.46</ele>
  <time>2026-08-27T18:26:11Z</time>
  <course>144.56</course>
  <speed>3.7143101647546883</speed>
  <fix>3d</fix>
</trkpt>
<trkpt lat="40.0739427" lon="-105.2294111">
  <ele>1621.78</ele>
  <time>2026-08-27T18:26:11Z</time>
  <course>144.09</course>
  <speed>3.69</speed>
  <fix>3d</fix>
</trkpt>
<trkpt lat="40.0739322" lon="-105.2294012">
  <ele>1621.16</ele>
  <time>2026-08-27T18:26:11Z</time>
  <course>144.64</course>
  <speed>3.722391704267567</speed>
  <fix>3d</fix>
</trkpt>
<trkpt lat="40.0739373" lon="-105.2294061">
  <ele>1621.48</ele>
  <time>2026-08-27T18:26:11Z</time>
  <course>144.18</course>
  <speed>3.7</speed>
  <fix>3d</fix>
</trkpt>
<trkpt lat="40.0739268" lon="-105.2293961">
  <ele>1620.86</ele>
  <time>2026-08-27T18:26:11Z</time>
  <course>144.68</course>
  <speed>3.7304825425137698</speed>
  <fix>3d</fix>
</trkpt>
<trkpt lat="40.0739319" lon="-105.229401">
  <ele>1621.17</ele>
  <time>2026-08-27T18:26:11Z</time>
  <course>144.26</course>
  <speed>3.71</speed>
  <fix>3d</fix>
</trkpt>
<trkpt lat="40.0739214" lon="-105.229391">
  <ele>1620.56</ele>
  <time>2026-08-27T18:26:11Z</time>
  <course>144.73</course>
  <speed>3.7304825425137698</speed>
  <fix>3d</fix>
</trkpt>
<trkpt lat="40.0739264" lon="-105.2293959">
  <ele>1620.88</ele>
  <time>2026-08-27T18:26:11Z</time>
  <course>144.33</course>
  <speed>3.72</speed>
  <fix>3d</fix>
</trkpt>
<trkpt lat="40.0739159" lon="-105.2293859">
  <ele>1620.27</ele>
  <time>2026-08-27T18:26:11Z</time>
  <course>144.77</course>
  <speed>3.7327335827781765</speed>
  <fix>3d</fix>
</trkpt>
<trkpt lat="40.073921" lon="-105.2293908">
  <ele>1620.59</ele>
  <time>2026-08-27T18:26:11Z</time>
  <course>144.37</course>
  <speed>3.72</speed>
  <fix>3d</fix>
</trkpt>
<trkpt lat="40.0739105" lon="-105.2293808">
  <ele>1619.96</ele>
  <time>2026-08-27T18:26:11Z</time>
  <course>144.79</course>
  <speed>3.7327335827781765</speed>
  <fix>3d</fix>
</trkpt>
<trkpt lat="40.0739155" lon="-105.2293857">
  <ele>1620.28</ele>
  <time>2026-08-27T18:26:11Z</time>
  <course>144.41</course>
  <speed>3.72</speed>
  <fix>3d</fix>
</trkpt>
<trkpt lat="40.073905" lon="-105.2293757">
  <ele>1619.66</ele>
  <time>2026-08-27T18:26:11Z</time>
  <course>144.81</course>
  <speed>3.7327335827781765</speed>
  <fix>3d</fix>
</trkpt>
<trkpt lat="40.07391" lon="-105.2293806">
  <ele>1619.98</ele>
  <time>2026-08-27T18:26:11Z</time>
  <course>144.43</course>
  <speed>3.72</speed>
  <fix>3d</fix>
</trkpt>
<trkpt lat="40.0738996" lon="-105.2293706">
  <ele>1619.37</ele>
  <time>2026-08-27T18:26:12Z</time>
  <course>144.82</course>
  <speed>3.7187766805765574</speed>
  <fix>3d</fix>
</trkpt>
<trkpt lat="40.0739046" lon="-105.2293755">
  <ele>1619.67</ele>
  <time>2026-08-27T18:26:12Z</time>
  <course>144.45</course>
  <speed>3.72</speed>
  <fix>3d</fix>
</trkpt>
<trkpt lat="40.0738941" lon="-105.2293656">
  <ele>1619.07</ele>
  <time>2026-08-27T18:26:12Z</time>
  <course>144.86</course>
  <speed>3.7187766805765574</speed>
  <fix>3d</fix>
</trkpt>
<trkpt lat="40.0738992" lon="-105.2293704">
  <ele>1619.38</ele>
  <time>2026-08-27T18:26:12Z</time>
  <course>144.48</course>
  <speed>3.71</speed>
  <fix>3d</fix>
</trkpt>
<trkpt lat="40.0738887" lon="-105.2293605">
  <ele>1618.77</ele>
  <time>2026-08-27T18:26:12Z</time>
  <course>144.9</course>
  <speed>3.7048211832691735</speed>
  <fix>3d</fix>
</trkpt>
<trkpt lat="40.0738937" lon="-105.2293654">
  <ele>1619.08</ele>
  <time>2026-08-27T18:26:12Z</time>
  <course>144.52</course>
  <speed>3.7</speed>
  <fix>3d</fix>
</trkpt>
<trkpt lat="40.0738833" lon="-105.2293555">
  <ele>1618.47</ele>
  <time>2026-08-27T18:26:12Z</time>
  <course>144.96</course>
  <speed>3.6908671067921155</speed>
  <fix>3d</fix>
</trkpt>
<trkpt lat="40.0738883" lon="-105.2293603">
  <ele>1618.78</ele>
  <time>2026-08-27T18:26:12Z</time>
  <course>144.57</course>
  <speed>3.69</speed>
  <fix>3d</fix>
</trkpt>
<trkpt lat="40.0738779" lon="-105.2293505">
  <ele>1618.17</ele>
  <time>2026-08-27T18:26:12Z</time>
  <course>145.07</course>
  <speed>3.671103376370652</speed>
  <fix>3d</fix>
</trkpt>
<trkpt lat="40.0738829" lon="-105.2293553">
  <ele>1618.48</ele>
  <time>2026-08-27T18:26:12Z</time>
  <course>144.65</course>
  <speed>3.68</speed>
  <fix>3d</fix>
</trkpt>
<trkpt lat="40.0738725" lon="-105.2293456">
  <ele>1617.86</ele>
  <time>2026-08-27T18:26:12Z</time>
  <course>145.17</course>
  <speed>3.657157366042648</speed>
  <fix>3d</fix>
</trkpt>
<trkpt lat="40.0738776" lon="-105.2293503">
  <ele>1618.17</ele>
  <time>2026-08-27T18:26:12Z</time>
  <course>144.75</course>
  <speed>3.66</speed>
  <fix>3d</fix>
</trkpt>
<trkpt lat="40.0738671" lon="-105.2293406">
  <ele>1617.56</ele>
  <time>2026-08-27T18:26:12Z</time>
  <course>145.29</course>
  <speed>3.645600087777045</speed>
  <fix>3d</fix>
</trkpt>
<trkpt lat="40.0738721" lon="-105.2293454">
  <ele>1617.88</ele>
  <time>2026-08-27T18:26:12Z</time>
  <course>144.88</course>
  <speed>3.65</speed>
  <fix>3d</fix>
</trkpt>
<trkpt lat="40.0738618" lon="-105.2293357">
  <ele>1617.26</ele>
  <time>2026-08-27T18:26:12Z</time>
  <course>145.45</course>
  <speed>3.6259205727649357</speed>
  <fix>3d</fix>
</trkpt>
<trkpt lat="40.0738668" lon="-105.2293404">
  <ele>1617.58</ele>
  <time>2026-08-27T18:26:12Z</time>
  <course>145.03</course>
  <speed>3.63</speed>
  <fix>3d</fix>
</trkpt>
<trkpt lat="40.0738564" lon="-105.2293309">
  <ele>1616.96</ele>
  <time>2026-08-27T18:26:12Z</time>
  <course>145.65</course>
  <speed>3.6062723136224752</speed>
  <fix>3d</fix>
</trkpt>
<trkpt lat="40.0738614" lon="-105.2293356">
  <ele>1617.28</ele>
  <time>2026-08-27T18:26:12Z</time>
  <course>145.21</course>
  <speed>3.61</speed>
  <fix>3d</fix>
</trkpt>
<trkpt lat="40.0738511" lon="-105.2293261">
  <ele>1616.66</ele>
  <time>2026-08-27T18:26:12Z</time>
  <course>145.89</course>
  <speed>3.5892199709686223</speed>
  <fix>3d</fix>
</trkpt>
<trkpt lat="40.0738561" lon="-105.2293308">
  <ele>1616.98</ele>
  <time>2026-08-27T18:26:12Z</time>
  <course>145.43</course>
  <speed>3.6</speed>
  <fix>3d</fix>
</trkpt>
<trkpt lat="40.0738458" lon="-105.2293214">
  <ele>1616.36</ele>
  <time>2026-08-27T18:26:12Z</time>
  <course>146.17</course>
  <speed>3.5696778566139553</speed>
  <fix>3d</fix>
</trkpt>
<trkpt lat="40.0738508" lon="-105.229326">
  <ele>1616.67</ele>
  <time>2026-08-27T18:26:12Z</time>
  <course>145.68</course>
  <speed>3.58</speed>
  <fix>3d</fix>
</trkpt>
<trkpt lat="40.0738405" lon="-105.2293168">
  <ele>1616.06</ele>
  <time>2026-08-27T18:26:12Z</time>
  <course>146.47</course>
  <speed>3.5528720776295897</speed>
  <fix>3d</fix>
</trkpt>
<trkpt lat="40.0738455" lon="-105.2293213">
  <ele>1616.37</ele>
  <time>2026-08-27T18:26:12Z</time>
  <course>145.98</course>
  <speed>3.56</speed>
  <fix>3d</fix>
</trkpt>
<trkpt lat="40.0738352" lon="-105.2293122">
  <ele>1615.76</ele>
  <time>2026-08-27T18:26:12Z</time>
  <course>146.8</course>
  <speed>3.5362409420173844</speed>
  <fix>3d</fix>
</trkpt>
<trkpt lat="40.0738402" lon="-105.2293166">
  <ele>1616.07</ele>
  <time>2026-08-27T18:26:12Z</time>
  <course>146.31</course>
  <speed>3.54</speed>
  <fix>3d</fix>
</trkpt>
<trkpt lat="40.0738299" lon="-105.2293077">
  <ele>1615.46</ele>
  <time>2026-08-27T18:26:12Z</time>
  <course>147.2</course>
  <speed>3.519786925369205</speed>
  <fix>3d</fix>
</trkpt>
<trkpt lat="40.0738349" lon="-105.229312">
  <ele>1615.77</ele>
  <time>2026-08-27T18:26:12Z</time>
  <course>146.68</course>
  <speed>3.52</speed>
  <fix>3d</fix>
</trkpt>
<trkpt lat="40.0738246" lon="-105.2293032">
  <ele>1615.16</ele>
  <time>2026-08-27T18:26:12Z</time>
  <course>147.63</course>
  <speed>3.503512523168713</speed>
  <fix>3d</fix>
</trkpt>
<trkpt lat="40.0738296" lon="-105.2293075">
  <ele>1615.47</ele>
  <time>2026-08-27T18:26:12Z</time>
  <course>147.1</course>
  <speed>3.5</speed>
  <fix>3d</fix>
</trkpt>
<trkpt lat="40.0738193" lon="-105.2292989">
  <ele>1614.86</ele>
  <time>2026-08-27T18:26:12Z</time>
  <course>148.1</course>
  <speed>3.48209706929603</speed>
  <fix>3d</fix>
</trkpt>
<trkpt lat="40.0738243" lon="-105.2293031">
  <ele>1615.16</ele>
  <time>2026-08-27T18:26:12Z</time>
  <course>147.56</course>
  <speed>3.48</speed>
  <fix>3d</fix>
</trkpt>
<trkpt lat="40.073814" lon="-105.2292946">
  <ele>1614.56</ele>
  <time>2026-08-27T18:26:12Z</time>
  <course>148.6</course>
  <speed>3.4610114128676317</speed>
  <fix>3d</fix>
</trkpt>
<trkpt lat="40.073819" lon="-105.2292987">
  <ele>1614.87</ele>
  <time>2026-08-27T18:26:12Z</time>
  <course>148.07</course>
  <speed>3.47</speed>
  <fix>3d</fix>
</trkpt>
<trkpt lat="40.0738087" lon="-105.2292904">
  <ele>1614.25</ele>
  <time>2026-08-27T18:26:12Z</time>
  <course>149.17</course>
  <speed>3.4402616179587273</speed>
  <fix>3d</fix>
</trkpt>
<trkpt lat="40.0738137" lon="-105.2292945">
  <ele>1614.57</ele>
  <time>2026-08-27T18:26:12Z</time>
  <course>148.61</course>
  <speed>3.45</speed>
  <fix>3d</fix>
</trkpt>
<trkpt lat="40.0738034" lon="-105.2292863">
  <ele>1613.95</ele>
  <time>2026-08-27T18:26:12Z</time>
  <course>149.76</course>
  <speed>3.4284836298282073</speed>
  <fix>3d</fix>
</trkpt>
<trkpt lat="40.0738084" lon="-105.2292903">
  <ele>1614.27</ele>
  <time>2026-08-27T18:26:12Z</time>
  <course>149.2</course>
  <speed>3.43</speed>
  <fix>3d</fix>
</trkpt>
<trkpt lat="40.073798" lon="-105.2292823">
  <ele>1613.65</ele>
  <time>2026-08-27T18:26:12Z</time>
  <course>150.4</course>
  <speed>3.4084747321932722</speed>
  <fix>3d</fix>
</trkpt>
<trkpt lat="40.0738031" lon="-105.2292862">
  <ele>1613.97</ele>
  <time>2026-08-27T18:26:12Z</time>
  <course>149.83</course>
  <speed>3.41</speed>
  <fix>3d</fix>
</trkpt>
<trkpt lat="40.0737927" lon="-105.2292784">
  <ele>1613.35</ele>
  <time>2026-08-27T18:26:12Z</time>
  <course>151.08</course>
  <speed>3.3927127788835882</speed>
  <fix>3d</fix>
</trkpt>
<trkpt lat="40.0737978" lon="-105.2292822">
  <ele>1613.66</ele>
  <time>2026-08-27T18:26:12Z</time>
  <course>150.49</course>
  <speed>3.39</speed>
  <fix>3d</fix>
</trkpt>
<trkpt lat="40.0737874" lon="-105.2292747">
  <ele>1613.05</ele>
  <time>2026-08-27T18:26:12Z</time>
  <course>151.79</course>
  <speed>3.373558951611784</speed>
  <fix>3d</fix>
</trkpt>
<trkpt lat="40.0737924" lon="-105.2292784">
  <ele>1613.37</ele>
  <time>2026-08-27T18:26:12Z</time>
  <course>151.2</course>
  <speed>3.38</speed>
  <fix>3d</fix>
</trkpt>
<trkpt lat="40.0737821" lon="-105.229271">
  <ele>1612.75</ele>
  <time>2026-08-27T18:26:12Z</time>
  <course>152.53</course>
  <speed>3.3590028282214943</speed>
  <fix>3d</fix>
</trkpt>
<trkpt lat="40.0737871" lon="-105.2292746">
  <ele>1613.07</ele>
  <time>2026-08-27T18:26:12Z</time>
  <course>151.94</course>
  <speed>3.36</speed>
  <fix>3d</fix>
</trkpt>
<trkpt lat="40.0737767" lon="-105.2292675">
  <ele>1612.45</ele>
  <time>2026-08-27T18:26:12Z</time>
  <course>153.31</course>
  <speed>3.336225412048772</speed>
  <fix>3d</fix>
</trkpt>
<trkpt lat="40.0737818" lon="-105.2292709">
  <ele>1612.77</ele>
  <time>2026-08-27T18:26:12Z</time>
  <course>152.71</course>
  <speed>3.34</speed>
  <fix>3d</fix>
</trkpt>
<trkpt lat="40.0737714" lon="-105.229264">
  <ele>1612.16</ele>
  <time>2026-08-27T18:26:12Z</time>
  <course>154.1</course>
  <speed>3.3230407761566814</speed>
  <fix>3d</fix>
</trkpt>
<trkpt lat="40.0737764" lon="-105.2292674">
  <ele>1612.47</ele>
  <time>2026-08-27T18:26:12Z</time>
  <course>153.51</course>
  <speed>3.33</speed>
  <fix>3d</fix>
</trkpt>
<trkpt lat="40.073766" lon="-105.2292608">
  <ele>1611.86</ele>
  <time>2026-08-27T18:26:12Z</time>
  <course>154.96</course>
  <speed>3.301529948372421</speed>
  <fix>3d</fix>
</trkpt>
<trkpt lat="40.0737711" lon="-105.229264">
  <ele>1612.17</ele>
  <time>2026-08-27T18:26:12Z</time>
  <course>154.34</course>
  <speed>3.31</speed>
  <fix>3d</fix>
</trkpt>
<trkpt lat="40.0737607" lon="-105.2292576">
  <ele>1611.56</ele>
  <time>2026-08-27T18:26:12Z</time>
  <course>155.85</course>
  <speed>3.285665838152139</speed>
  <fix>3d</fix>
</trkpt>
<trkpt lat="40.0737657" lon="-105.2292607">
  <ele>1611.88</ele>
  <time>2026-08-27T18:26:12Z</time>
  <course>155.2</course>
  <speed>3.29</speed>
  <fix>3d</fix>
</trkpt>
<trkpt lat="40.0737553" lon="-105.2292545">
  <ele>1611.26</ele>
  <time>2026-08-27T18:26:12Z</time>
  <course>156.78</course>
  <speed>3.26165602110339</speed>
  <fix>3d</fix>
</trkpt>
<trkpt lat="40.0737604" lon="-105.2292574">
  <ele>1611.58</ele>
  <time>2026-08-27T18:26:12Z</time>
  <course>156.11</course>
  <speed>3.27</speed>
  <fix>3d</fix>
</trkpt>
<trkpt lat="40.0737499" lon="-105.2292516">
  <ele>1610.95</ele>
  <time>2026-08-27T18:26:12Z</time>
  <course>157.73</course>
  <speed>3.238579935712565</speed>
  <fix>3d</fix>
</trkpt>
<trkpt lat="40.073755" lon="-105.2292544">
  <ele>1611.28</ele>
  <time>2026-08-27T18:26:12Z</time>
  <course>157.05</course>
  <speed>3.25</speed>
  <fix>3d</fix>
</trkpt>
<trkpt lat="40.0737444" lon="-105.2292488">
  <ele>1610.65</ele>
  <time>2026-08-27T18:26:12Z</time>
  <course>158.74</course>
  <speed>3.2257867257461394</speed>
  <fix>3d</fix>
</trkpt>
<trkpt lat="40.0737496" lon="-105.2292515">
  <ele>1610.98</ele>
  <time>2026-08-27T18:26:12Z</time>
  <course>158.03</course>
  <speed>3.23</speed>
  <fix>3d</fix>
</trkpt>
<trkpt lat="40.073739" lon="-105.2292461">
  <ele>1610.35</ele>
  <time>2026-08-27T18:26:12Z</time>
  <course>159.74</course>
  <speed>3.204699673916419</speed>
  <fix>3d</fix>
</trkpt>
<trkpt lat="40.0737441" lon="-105.2292487">
  <ele>1610.67</ele>
  <time>2026-08-27T18:26:12Z</time>
  <course>159.04</course>
  <speed>3.21</speed>
  <fix>3d</fix>
</trkpt>
<trkpt lat="40.0737336" lon="-105.2292437">
  <ele>1610.05</ele>
  <time>2026-08-27T18:26:12Z</time>
  <course>160.8</course>
  <speed>3.1751535395945814</speed>
  <fix>3d</fix>
</trkpt>
<trkpt lat="40.0737388" lon="-105.2292461">
  <ele>1610.38</ele>
  <time>2026-08-27T18:26:12Z</time>
  <course>160.1</course>
  <speed>3.19</speed>
  <fix>3d</fix>
</trkpt>
<trkpt lat="40.0737282" lon="-105.2292413">
  <ele>1609.75</ele>
  <time>2026-08-27T18:26:12Z</time>
  <course>161.93</course>
  <speed>3.152919282189127</speed>
  <fix>3d</fix>
</trkpt>
<trkpt lat="40.0737333" lon="-105.2292437">
  <ele>1610.08</ele>
  <time>2026-08-27T18:26:12Z</time>
  <course>161.19</course>
  <speed>3.17</speed>
  <fix>3d</fix>
</trkpt>
<trkpt lat="40.0737228" lon="-105.2292392">
  <ele>1609.44</ele>
  <time>2026-08-27T18:26:12Z</time>
  <course>163.09</course>
  <speed>3.1320919526731648</speed>
  <fix>3d</fix>
</trkpt>
<trkpt lat="40.073728" lon="-105.2292413">
  <ele>1609.78</ele>
  <time>2026-08-27T18:26:12Z</time>
  <course>162.33</course>
  <speed>3.14</speed>
  <fix>3d</fix>
</trkpt>
<trkpt lat="40.0737175" lon="-105.2292372">
  <ele>1609.15</ele>
  <time>2026-08-27T18:26:12Z</time>
  <course>164.28</course>
  <speed>3.112699792784392</speed>
  <fix>3d</fix>
</trkpt>
<trkpt lat="40.0737225" lon="-105.2292391">
  <ele>1609.48</ele>
  <time>2026-08-27T18:26:12Z</time>
  <course>163.52</course>
  <speed>3.12</speed>
  <fix>3d</fix>
</trkpt>
<trkpt lat="40.0737121" lon="-105.2292353">
  <ele>1608.86</ele>
  <time>2026-08-27T18:26:12Z</time>
  <course>165.52</course>
  <speed>3.094769781421552</speed>
  <fix>3d</fix>
</trkpt>
<trkpt lat="40.0737172" lon="-105.2292371">
  <ele>1609.17</ele>
  <time>2026-08-27T18:26:12Z</time>
  <course>164.74</course>
  <speed>3.1</speed>
  <fix>3d</fix>
</trkpt>
<trkpt lat="40.0737067" lon="-105.2292337">
  <ele>1608.56</ele>
  <time>2026-08-27T18:26:12Z</time>
  <course>166.8</course>
  <speed>3.068582734749057</speed>
  <fix>3d</fix>
</trkpt>
<trkpt lat="40.0737118" lon="-105.2292353">
  <ele>1608.88</ele>
  <time>2026-08-27T18:26:12Z</time>
  <course>166.0</course>
  <speed>3.08</speed>
  <fix>3d</fix>
</trkpt>
<trkpt lat="40.0737014" lon="-105.2292322">
  <ele>1608.26</ele>
  <time>2026-08-27T18:26:12Z</time>
  <course>168.12</course>
  <speed>3.0515897496223174</speed>
  <fix>3d</fix>
</trkpt>
<trkpt lat="40.0737065" lon="-105.2292337">
  <ele>1608.59</ele>
  <time>2026-08-27T18:26:12Z</time>
  <course>167.3</course>
  <speed>3.06</speed>
  <fix>3d</fix>
</trkpt>
<trkpt lat="40.0736959" lon="-105.2292308">
  <ele>1607.96</ele>
  <time>2026-08-27T18:26:12Z</time>
  <course>169.48</course>
  <speed>3.0383712742191333</speed>
  <fix>3d</fix>
</trkpt>
<trkpt lat="40.073701" lon="-105.2292322">
  <ele>1608.29</ele>
  <time>2026-08-27T18:26:12Z</time>
  <course>168.64</course>
  <speed>3.04</speed>
  <fix>3d</fix>
</trkpt>
<trkpt lat="40.0736906" lon="-105.2292297">
  <ele>1607.66</ele>
  <time>2026-08-27T18:26:12Z</time>
  <course>170.9</course>
  <speed>3.0251776807321584</speed>
  <fix>3d</fix>
</trkpt>
<trkpt lat="40.0736957" lon="-105.2292309">
  <ele>1607.99</ele>
  <time>2026-08-27T18:26:12Z</time>
  <course>170.03</course>
  <speed>3.03</speed>
  <fix>3d</fix>
</trkpt>
<trkpt lat="40.0736852" lon="-105.2292287">
  <ele>1607.36</ele>
  <time>2026-08-27T18:26:12Z</time>
  <course>172.36</course>
  <speed>3.0140504308985943</speed>
  <fix>3d</fix>
</trkpt>
<trkpt lat="40.0736904" lon="-105.2292297">
  <ele>1607.69</ele>
  <time>2026-08-27T18:26:12Z</time>
  <course>171.49</course>
  <speed>3.01</speed>
  <fix>3d</fix>
</trkpt>
<trkpt lat="40.0736799" lon="-105.229228">
  <ele>1607.06</ele>
  <time>2026-08-27T18:26:12Z</time>
  <course>173.89</course>
  <speed>3.0050124791754196</speed>
  <fix>3d</fix>
</trkpt>
<trkpt lat="40.073685" lon="-105.2292287">
  <ele>1607.39</ele>
  <time>2026-08-27T18:26:12Z</time>
  <course>172.99</course>
  <speed>3.0</speed>
  <fix>3d</fix>
</trkpt>
<trkpt lat="40.0736745" lon="-105.2292274">
  <ele>1606.76</ele>
  <time>2026-08-27T18:26:12Z</time>
  <course>175.44</course>
  <speed>2.997365509910328</speed>
  <fix>3d</fix>
</trkpt>
<trkpt lat="40.0736796" lon="-105.2292279">
  <ele>1607.08</ele>
  <time>2026-08-27T18:26:12Z</time>
  <course>174.53</course>
  <speed>2.99</speed>
  <fix>3d</fix>
</trkpt>
<trkpt lat="40.0736692" lon="-105.229227">
  <ele>1606.46</ele>
  <time>2026-08-27T18:26:13Z</time>
  <course>177.03</course>
  <speed>2.992824752637548</speed>
  <fix>3d</fix>
</trkpt>
<trkpt lat="40.0736742" lon="-105.2292274">
  <ele>1606.78</ele>
  <time>2026-08-27T18:26:13Z</time>
  <course>176.12</course>
  <speed>2.98</speed>
  <fix>3d</fix>
</trkpt>
<trkpt lat="40.0736639" lon="-105.2292268">
  <ele>1606.17</ele>
  <time>2026-08-27T18:26:13Z</time>
  <course>178.68</course>
  <speed>2.9902675465583344</speed>
  <fix>3d</fix>
</trkpt>
<trkpt lat="40.0736689" lon="-105.229227">
  <ele>1606.48</ele>
  <time>2026-08-27T18:26:13Z</time>
  <course>177.76</course>
  <speed>2.98</speed>
  <fix>3d</fix>
</trkpt>
<trkpt lat="40.0736585" lon="-105.2292268">
  <ele>1605.87</ele>
  <time>2026-08-27T18:26:13Z</time>
  <course>180.35</course>
  <speed>2.9902675465583344</speed>
  <fix>3d</fix>
</trkpt>
<trkpt lat="40.0736636" lon="-105.2292269">
  <ele>1606.17</ele>
  <time>2026-08-27T18:26:13Z</time>
  <course>179.42</course>
  <speed>2.98</speed>
  <fix>3d</fix>
</trkpt>
<trkpt lat="40.0736532" lon="-105.229227">
  <ele>1605.57</ele>
  <time>2026-08-27T18:26:13Z</time>
  <course>182.07</course>
  <speed>2.992824752637548</speed>
  <fix>3d</fix>
</trkpt>
<trkpt lat="40.0736582" lon="-105.2292269">
  <ele>1605.88</ele>
  <time>2026-08-27T18:26:13Z</time>
  <course>181.13</course>
  <speed>2.98</speed>
  <fix>3d</fix>
</trkpt>
<trkpt lat="40.0736478" lon="-105.2292274">
  <ele>1605.26</ele>
  <time>2026-08-27T18:26:13Z</time>
  <course>183.91</course>
  <speed>2.9988331063932185</speed>
  <fix>3d</fix>
</trkpt>
<trkpt lat="40.0736529" lon="-105.229227">
  <ele>1605.58</ele>
  <time>2026-08-27T18:26:13Z</time>
  <course>182.93</course>
  <speed>2.98</speed>
  <fix>3d</fix>
</trkpt>
<trkpt lat="40.0736425" lon="-105.2292281">
  <ele>1604.95</ele>
  <time>2026-08-27T18:26:13Z</time>
  <course>185.94</course>
  <speed>3.0104152537482265</speed>
  <fix>3d</fix>
</trkpt>
<trkpt lat="40.0736475" lon="-105.2292274">
  <ele>1605.27</ele>
  <time>2026-08-27T18:26:13Z</time>
  <course>184.87</course>
  <speed>2.99</speed>
  <fix>3d</fix>
</trkpt>
<trkpt lat="40.0736371" lon="-105.2292291">
  <ele>1604.65</ele>
  <time>2026-08-27T18:26:13Z</time>
  <course>188.17</course>
  <speed>3.026714390225811</speed>
  <fix>3d</fix>
</trkpt>
<trkpt lat="40.0736421" lon="-105.2292282">
  <ele>1604.97</ele>
  <time>2026-08-27T18:26:13Z</time>
  <course>187.01</course>
  <speed>3.0</speed>
  <fix>3d</fix>
</trkpt>
<trkpt lat="40.0736317" lon="-105.2292304">
  <ele>1604.35</ele>
  <time>2026-08-27T18:26:13Z</time>
  <course>190.57</course>
  <speed>3.0515897496223174</speed>
  <fix>3d</fix>
</trkpt>
<trkpt lat="40.0736368" lon="-105.2292292">
  <ele>1604.66</ele>
  <time>2026-08-27T18:26:13Z</time>
  <course>189.35</course>
  <speed>3.02</speed>
  <fix>3d</fix>
</trkpt>
<trkpt lat="40.0736263" lon="-105.229232">
  <ele>1604.05</ele>
  <time>2026-08-27T18:26:13Z</time>
  <course>193.11</course>
  <speed>3.092329219213245</speed>
  <fix>3d</fix>
</trkpt>
<trkpt lat="40.0736314" lon="-105.2292305">
  <ele>1604.37</ele>
  <time>2026-08-27T18:26:13Z</time>
  <course>191.86</course>
  <speed>3.04</speed>
  <fix>3d</fix>
</trkpt>
<trkpt lat="40.073621" lon="-105.229234">
  <ele>1603.75</ele>
  <time>2026-08-27T18:26:13Z</time>
  <course>195.82</course>
  <speed>3.134980063732463</speed>
  <fix>3d</fix>
</trkpt>
<trkpt lat="40.0736261" lon="-105.2292322">
  <ele>1604.07</ele>
  <time>2026-08-27T18:26:13Z</time>
  <course>194.52</course>
  <speed>3.08</speed>
  <fix>3d</fix>
</trkpt>
<trkpt lat="40.0736156" lon="-105.2292364">
  <ele>1603.46</ele>
  <time>2026-08-27T18:26:13Z</time>
  <course>198.62</course>
  <speed>3.1918803235710453</speed>
  <fix>3d</fix>
</trkpt>
<trkpt lat="40.0736206" lon="-105.2292342">
  <ele>1603.77</ele>
  <time>2026-08-27T18:26:13Z</time>
  <course>197.32</course>
  <speed>3.13</speed>
  <fix>3d</fix>
</trkpt>
<trkpt lat="40.0736102" lon="-105.2292391">
  <ele>1603.16</ele>
  <time>2026-08-27T18:26:13Z</time>
  <course>201.55</course>
  <speed>3.2669557695199978</speed>
  <fix>3d</fix>
</trkpt>
<trkpt lat="40.0736153" lon="-105.2292366">
  <ele>1603.47</ele>
  <time>2026-08-27T18:26:13Z</time>
  <course>200.26</course>
  <speed>3.18</speed>
  <fix>3d</fix>
</trkpt>
<trkpt lat="40.0736048" lon="-105.2292424">
  <ele>1602.86</ele>
  <time>2026-08-27T18:26:13Z</time>
  <course>204.59</course>
  <speed>3.35417650102078</speed>
  <fix>3d</fix>
</trkpt>
<trkpt lat="40.07361" lon="-105.2292394">
  <ele>1603.16</ele>
  <time>2026-08-27T18:26:13Z</time>
  <course>203.32</course>
  <speed>3.25</speed>
  <fix>3d</fix>
</trkpt>
<trkpt lat="40.0735995" lon="-105.2292461">
  <ele>1602.56</ele>
  <time>2026-08-27T18:26:13Z</time>
  <course>207.68</course>
  <speed>3.456891667379815</speed>
  <fix>3d</fix>
</trkpt>
<trkpt lat="40.0736045" lon="-105.2292426">
  <ele>1602.86</ele>
  <time>2026-08-27T18:26:13Z</time>
  <course>206.49</course>
  <speed>3.34</speed>
  <fix>3d</fix>
</trkpt>
<trkpt lat="40.0735941" lon="-105.2292504">
  <ele>1602.25</ele>
  <time>2026-08-27T18:26:13Z</time>
  <course>210.85</course>
  <speed>3.589428923937623</speed>
  <fix>3d</fix>
</trkpt>
<trkpt lat="40.0735992" lon="-105.2292464">
  <ele>1602.55</ele>
  <time>2026-08-27T18:26:13Z</time>
  <course>209.76</course>
  <speed>3.45</speed>
  <fix>3d</fix>
</trkpt>
<trkpt lat="40.0735887" lon="-105.2292552">
  <ele>1601.94</ele>
  <time>2026-08-27T18:26:13Z</time>
  <course>214.06</course>
  <speed>3.7422586762542216</speed>
  <fix>3d</fix>
</trkpt>
<trkpt lat="40.0735938" lon="-105.2292507">
  <ele>1602.25</ele>
  <time>2026-08-27T18:26:13Z</time>
  <course>213.12</course>
  <speed>3.58</speed>
  <fix>3d</fix>
</trkpt>
<trkpt lat="40.0735832" lon="-105.2292608">
  <ele>1601.63</ele>
  <time>2026-08-27T18:26:13Z</time>
  <course>217.1</course>
  <speed>3.9268944472700054</speed>
  <fix>3d</fix>
</trkpt>
<trkpt lat="40.0735884" lon="-105.2292557">
  <ele>1601.94</ele>
  <time>2026-08-27T18:26:13Z</time>
  <course>216.57</course>
  <speed>3.73</speed>
  <fix>3d</fix>
</trkpt>
<trkpt lat="40.0735779" lon="-105.2292671">
  <ele>1601.33</ele>
  <time>2026-08-27T18:26:13Z</time>
  <course>220.47</course>
  <speed>4.110048661512415</speed>
  <fix>3d</fix>
</trkpt>
<trkpt lat="40.073583" lon="-105.2292612">
  <ele>1601.63</ele>
  <time>2026-08-27T18:26:13Z</time>
  <course>220.09</course>
  <speed>3.91</speed>
  <fix>3d</fix>
</trkpt>
<trkpt lat="40.0735726" lon="-105.2292741">
  <ele>1601.05</ele>
  <time>2026-08-27T18:26:13Z</time>
  <course>223.97</course>
  <speed>4.2801051388955385</speed>
  <fix>3d</fix>
</trkpt>
<trkpt lat="40.0735777" lon="-105.2292675">
  <ele>1601.33</ele>
  <time>2026-08-27T18:26:13Z</time>
  <course>223.64</course>
  <speed>4.1</speed>
  <fix>3d</fix>
</trkpt>
<trkpt lat="40.0735674" lon="-105.2292818">
  <ele>1600.78</ele>
  <time>2026-08-27T18:26:13Z</time>
  <course>227.44</course>
  <speed>4.424985875683673</speed>
  <fix>3d</fix>
</trkpt>
<trkpt lat="40.0735724" lon="-105.2292746">
  <ele>1601.05</ele>
  <time>2026-08-27T18:26:13Z</time>
  <course>227.17</course>
  <speed>4.27</speed>
  <fix>3d</fix>
</trkpt>
<trkpt lat="40.0735625" lon="-105.2292901">
  <ele>1600.54</ele>
  <time>2026-08-27T18:26:13Z</time>
  <course>230.91</course>
  <speed>4.552449889894451</speed>
  <fix>3d</fix>
</trkpt>
<trkpt lat="40.0735672" lon="-105.2292823">
  <ele>1600.78</ele>
  <time>2026-08-27T18:26:13Z</time>
  <course>230.69</course>
  <speed>4.42</speed>
  <fix>3d</fix>
</trkpt>
<trkpt lat="40.0735579" lon="-105.2292991">
  <ele>1600.32</ele>
  <time>2026-08-27T18:26:13Z</time>
  <course>234.34</course>
  <speed>4.680021367472588</speed>
  <fix>3d</fix>
</trkpt>
<trkpt lat="40.0735623" lon="-105.2292906">
  <ele>1600.54</ele>
  <time>2026-08-27T18:26:13Z</time>
  <course>234.25</course>
  <speed>4.55</speed>
  <fix>3d</fix>
</trkpt>
<trkpt lat="40.0735536" lon="-105.2293086">
  <ele>1600.12</ele>
  <time>2026-08-27T18:26:13Z</time>
  <course>237.82</course>
  <speed>4.779759408171085</speed>
  <fix>3d</fix>
</trkpt>
<trkpt lat="40.0735577" lon="-105.2292996">
  <ele>1600.32</ele>
  <time>2026-08-27T18:26:13Z</time>
  <course>237.84</course>
  <speed>4.68</speed>
  <fix>3d</fix>
</trkpt>
<trkpt lat="40.0735497" lon="-105.2293186">
  <ele>1599.95</ele>
  <time>2026-08-27T18:26:13Z</time>
  <course>241.48</course>
  <speed>4.862602184016291</speed>
  <fix>3d</fix>
</trkpt>
<trkpt lat="40.0735534" lon="-105.2293092">
  <ele>1600.12</ele>
  <time>2026-08-27T18:26:13Z</time>
  <course>241.45</course>
  <speed>4.79</speed>
  <fix>3d</fix>
</trkpt>
<trkpt lat="40.0735462" lon="-105.2293291">
  <ele>1599.81</ele>
  <time>2026-08-27T18:26:13Z</time>
  <course>245.12</course>
  <speed>4.9060880546520975</speed>
  <fix>3d</fix>
</trkpt>
<trkpt lat="40.0735495" lon="-105.2293193">
  <ele>1599.94</ele>
  <time>2026-08-27T18:26:13Z</time>
  <course>245.03</course>
  <speed>4.87</speed>
  <fix>3d</fix>
</trkpt>
<trkpt lat="40.0735432" lon="-105.2293399">
  <ele>1599.69</ele>
  <time>2026-08-27T18:26:13Z</time>
  <course>248.7</course>
  <speed>4.933254503874698</speed>
  <fix>3d</fix>
</trkpt>
<trkpt lat="40.073546" lon="-105.2293298">
  <ele>1599.79</ele>
  <time>2026-08-27T18:26:13Z</time>
  <course>248.57</course>
  <speed>4.92</speed>
  <fix>3d</fix>
</trkpt>
<trkpt lat="40.0735407" lon="-105.2293511">
  <ele>1599.58</ele>
  <time>2026-08-27T18:26:13Z</time>
  <course>252.29</course>
  <speed>4.938218302181466</speed>
  <fix>3d</fix>
</trkpt>
<trkpt lat="40.073543" lon="-105.2293408">
  <ele>1599.66</ele>
  <time>2026-08-27T18:26:13Z</time>
  <course>252.11</course>
  <speed>4.94</speed>
  <fix>3d</fix>
</trkpt>
<trkpt lat="40.0735388" lon="-105.2293624">
  <ele>1599.5</ele>
  <time>2026-08-27T18:26:13Z</time>
  <course>255.84</course>
  <speed>4.940253029957069</speed>
  <fix>3d</fix>
</trkpt>
<trkpt lat="40.0735406" lon="-105.229352">
  <ele>1599.56</ele>
  <time>2026-08-27T18:26:13Z</time>
  <course>255.66</course>
  <speed>4.96</speed>
  <fix>3d</fix>
</trkpt>
<trkpt lat="40.0735373" lon="-105.2293739">
  <ele>1599.43</ele>
  <time>2026-08-27T18:26:13Z</time>
  <course>259.39</course>
  <speed>4.931703559623186</speed>
  <fix>3d</fix>
</trkpt>
<trkpt lat="40.0735386" lon="-105.2293633">
  <ele>1599.47</ele>
  <time>2026-08-27T18:26:13Z</time>
  <course>259.2</course>
  <speed>4.96</speed>
  <fix>3d</fix>
</trkpt>
<trkpt lat="40.0735364" lon="-105.2293855">
  <ele>1599.38</ele>
  <time>2026-08-27T18:26:13Z</time>
  <course>262.88</course>
  <speed>4.911781754109195</speed>
  <fix>3d</fix>
</trkpt>
<trkpt lat="40.0735372" lon="-105.2293749">
  <ele>1599.4</ele>
  <time>2026-08-27T18:26:13Z</time>
  <course>262.72</course>
  <speed>4.94</speed>
  <fix>3d</fix>
</trkpt>
<trkpt lat="40.0735361" lon="-105.229397">
  <ele>1599.35</ele>
  <time>2026-08-27T18:26:13Z</time>
  <course>266.31</course>
  <speed>4.88025614081884</speed>
  <fix>3d</fix>
</trkpt>
<trkpt lat="40.0735363" lon="-105.2293864">
  <ele>1599.34</ele>
  <time>2026-08-27T18:26:13Z</time>
  <course>266.2</course>
  <speed>4.92</speed>
  <fix>3d</fix>
</trkpt>
<trkpt lat="40.0735361" lon="-105.2294084">
  <ele>1599.34</ele>
  <time>2026-08-27T18:26:13Z</time>
  <course>269.68</course>
  <speed>4.835473089574586</speed>
  <fix>3d</fix>
</trkpt>
<trkpt lat="40.0735361" lon="-105.2293979">
  <ele>1599.31</ele>
  <time>2026-08-27T18:26:13Z</time>
  <course>269.62</course>
  <speed>4.89</speed>
  <fix>3d</fix>
</trkpt>
<trkpt lat="40.0735368" lon="-105.2294197">
  <ele>1599.34</ele>
  <time>2026-08-27T18:26:13Z</time>
  <course>272.98</course>
  <speed>4.786188462649585</speed>
  <fix>3d</fix>
</trkpt>
<trkpt lat="40.0735362" lon="-105.2294094">
  <ele>1599.3</ele>
  <time>2026-08-27T18:26:13Z</time>
  <course>273.0</course>
  <speed>4.85</speed>
  <fix>3d</fix>
</trkpt>
<trkpt lat="40.073538" lon="-105.2294308">
  <ele>1599.38</ele>
  <time>2026-08-27T18:26:13Z</time>
  <course>276.19</course>
  <speed>4.741307836451879</speed>
  <fix>3d</fix>
</trkpt>
<trkpt lat="40.0735368" lon="-105.2294206">
  <ele>1599.3</ele>
  <time>2026-08-27T18:26:13Z</time>
  <course>276.32</course>
  <speed>4.8</speed>
  <fix>3d</fix>
</trkpt>
<trkpt lat="40.0735395" lon="-105.2294417">
  <ele>1599.42</ele>
  <time>2026-08-27T18:26:13Z</time>
  <course>279.34</course>
  <speed>4.678129968267235</speed>
  <fix>3d</fix>
</trkpt>
<trkpt lat="40.0735381" lon="-105.2294318">
  <ele>1599.33</ele>
  <time>2026-08-27T18:26:13Z</time>
  <course>279.57</course>
  <speed>4.74</speed>
  <fix>3d</fix>
</trkpt>
<trkpt lat="40.0735416" lon="-105.2294523">
  <ele>1599.49</ele>
  <time>2026-08-27T18:26:13Z</time>
  <course>282.42</course>
  <speed>4.616860405080491</speed>
  <fix>3d</fix>
</trkpt>
<trkpt lat="40.0735397" lon="-105.2294426">
  <ele>1599.38</ele>
  <time>2026-08-27T18:26:13Z</time>
  <course>282.76</course>
  <speed>4.68</speed>
  <fix>3d</fix>
</trkpt>
<trkpt lat="40.073544" lon="-105.2294626">
  <ele>1599.58</ele>
  <time>2026-08-27T18:26:13Z</time>
  <course>285.44</course>
  <speed>4.547372867931549</speed>
  <fix>3d</fix>
</trkpt>
<trkpt lat="40.0735418" lon="-105.2294532">
  <ele>1599.44</ele>
  <time>2026-08-27T18:26:13Z</time>
  <course>285.89</course>
  <speed>4.62</speed>
  <fix>3d</fix>
</trkpt>
<trkpt lat="40.0735468" lon="-105.2294727">
  <ele>1599.69</ele>
  <time>2026-08-27T18:26:13Z</time>
  <course>288.39</course>
  <speed>4.484573558321905</speed>
  <fix>3d</fix>
</trkpt>
<trkpt lat="40.0735442" lon="-105.2294634">
  <ele>1599.53</ele>
  <time>2026-08-27T18:26:13Z</time>
  <course>288.97</course>
  <speed>4.55</speed>
  <fix>3d</fix>
</trkpt>
<trkpt lat="40.07355" lon="-105.2294824">
  <ele>1599.82</ele>
  <time>2026-08-27T18:26:13Z</time>
  <course>291.31</course>
  <speed>4.42108583947428</speed>
  <fix>3d</fix>
</trkpt>
<trkpt lat="40.0735471" lon="-105.2294733">
  <ele>1599.63</ele>
  <time>2026-08-27T18:26:13Z</time>
  <course>291.99</course>
  <speed>4.48</speed>
  <fix>3d</fix>
</trkpt>
<trkpt lat="40.0735535" lon="-105.2294916">
  <ele>1599.97</ele>
  <time>2026-08-27T18:26:13Z</time>
  <course>294.19</course>
  <speed>4.351976562436889</speed>
  <fix>3d</fix>
</trkpt>
<trkpt lat="40.0735502" lon="-105.229483">
  <ele>1599.76</ele>
  <time>2026-08-27T18:26:13Z</time>
  <course>294.98</course>
  <speed>4.41</speed>
  <fix>3d</fix>
</trkpt>
<trkpt lat="40.0735573" lon="-105.2295005">
  <ele>1600.14</ele>
  <time>2026-08-27T18:26:13Z</time>
  <course>297.02</course>
  <speed>4.289393896577931</speed>
  <fix>3d</fix>
</trkpt>
<trkpt lat="40.0735538" lon="-105.2294923">
  <ele>1599.9</ele>
  <time>2026-08-27T18:26:13Z</time>
  <course>297.93</course>
  <speed>4.34</speed>
  <fix>3d</fix>
</trkpt>
<trkpt lat="40.0735614" lon="-105.229509">
  <ele>1600.33</ele>
  <time>2026-08-27T18:26:13Z</time>
  <course>299.84</course>
  <speed>4.237983010820123</speed>
  <fix>3d</fix>
</trkpt>
<trkpt lat="40.0735576" lon="-105.229501">
  <ele>1600.07</ele>
  <time>2026-08-27T18:26:13Z</time>
  <course>300.86</course>
  <speed>4.28</speed>
  <fix>3d</fix>
</trkpt>
<trkpt lat="40.0735657" lon="-105.2295171">
  <ele>1600.55</ele>
  <time>2026-08-27T18:26:13Z</time>
  <course>302.64</course>
  <speed>4.184172558583119</speed>
  <fix>3d</fix>
</trkpt>
<trkpt lat="40.0735617" lon="-105.2295094">
  <ele>1600.26</ele>
  <time>2026-08-27T18:26:13Z</time>
  <course>303.81</course>
  <speed>4.22</speed>
  <fix>3d</fix>
</trkpt>
<trkpt lat="40.0735704" lon="-105.2295249">
  <ele>1600.78</ele>
  <time>2026-08-27T18:26:13Z</time>
  <course>305.34</course>
  <speed>4.156164096856619</speed>
  <fix>3d</fix>
</trkpt>
<trkpt lat="40.073566" lon="-105.2295175">
  <ele>1600.46</ele>
  <time>2026-08-27T18:26:13Z</time>
  <course>306.79</course>
  <speed>4.18</speed>
  <fix>3d</fix>
</trkpt>
<trkpt lat="40.0735753" lon="-105.2295322">
  <ele>1601.02</ele>
  <time>2026-08-27T18:26:13Z</time>
  <course>308.3</course>
  <speed>4.119465984809196</speed>
  <fix>3d</fix>
</trkpt>
<trkpt lat="40.0735707" lon="-105.2295252">
  <ele>1600.69</ele>
  <time>2026-08-27T18:26:13Z</time>
  <course>309.82</course>
  <speed>4.14</speed>
  <fix>3d</fix>
</trkpt>
<trkpt lat="40.0735804" lon="-105.2295391">
  <ele>1601.29</ele>
  <time>2026-08-27T18:26:13Z</time>
  <course>311.39</course>
  <speed>4.073156024509742</speed>
  <fix>3d</fix>
</trkpt>
<trkpt lat="40.0735756" lon="-105.2295325">
  <ele>1600.93</ele>
  <time>2026-08-27T18:26:13Z</time>
  <course>312.89</course>
  <speed>4.11</speed>
  <fix>3d</fix>
</trkpt>
<trkpt lat="40.0735857" lon="-105.2295455">
  <ele>1601.57</ele>
  <time>2026-08-27T18:26:13Z</time>
  <course>314.59</course>
  <speed>4.0178227935039645</speed>
  <fix>3d</fix>
</trkpt>
<trkpt lat="40.0735807" lon="-105.2295393">
  <ele>1601.19</ele>
  <time>2026-08-27T18:26:13Z</time>
  <course>316.01</course>
  <speed>4.06</speed>
  <fix>3d</fix>
</trkpt>
<trkpt lat="40.0735913" lon="-105.2295515">
  <ele>1601.88</ele>
  <time>2026-08-27T18:26:13Z</time>
  <course>317.96</course>
  <speed>3.962549684231101</speed>
  <fix>3d</fix>
</trkpt>
<trkpt lat="40.0735861" lon="-105.2295457">
  <ele>1601.47</ele>
  <time>2026-08-27T18:26:13Z</time>
  <course>319.25</course>
  <speed>4.0</speed>
  <fix>3d</fix>
</trkpt>
<trkpt lat="40.0735971" lon="-105.2295568">
  <ele>1602.2</ele>
  <time>2026-08-27T18:26:13Z</time>
  <course>321.4</course>
  <speed>3.9080557826110924</speed>
  <fix>3d</fix>
</trkpt>
<trkpt lat="40.0735916" lon="-105.2295515">
  <ele>1601.77</ele>
  <time>2026-08-27T18:26:13Z</time>
  <course>322.64</course>
  <speed>3.95</speed>
  <fix>3d</fix>
</trkpt>
<trkpt lat="40.073603" lon="-105.2295617">
  <ele>1602.52</ele>
  <time>2026-08-27T18:26:13Z</time>
  <course>324.97</course>
  <speed>3.8690825785966365</speed>
  <fix>3d</fix>
</trkpt>
<trkpt lat="40.0735974" lon="-105.229557">
  <ele>1602.08</ele>
  <time>2026-08-27T18:26:13Z</time>
  <course>326.19</course>
  <speed>3.9</speed>
  <fix>3d</fix>
</trkpt>
<trkpt lat="40.073609" lon="-105.229566">
  <ele>1602.84</ele>
  <time>2026-08-27T18:26:13Z</time>
  <course>328.59</course>
  <speed>3.8550226977282507</speed>
  <fix>3d</fix>
</trkpt>
<trkpt lat="40.0736033" lon="-105.2295618">
  <ele>1602.4</ele>
  <time>2026-08-27T18:26:13Z</time>
  <course>329.87</course>
  <speed>3.86</speed>
  <fix>3d</fix>
</trkpt>
<trkpt lat="40.0736153" lon="-105.2295698">
  <ele>1603.18</ele>
  <time>2026-08-27T18:26:13Z</time>
  <course>332.24</course>
  <speed>3.8485971470134412</speed>
  <fix>3d</fix>
</trkpt>
<trkpt lat="40.0736093" lon="-105.2295661">
  <ele>1602.73</ele>
  <time>2026-08-27T18:26:13Z</time>
  <course>333.64</course>
  <speed>3.84</speed>
  <fix>3d</fix>
</trkpt>
<trkpt lat="40.0736217" lon="-105.229573">
  <ele>1603.54</ele>
  <time>2026-08-27T18:26:13Z</time>
  <course>335.92</course>
  <speed>3.864634523470493</speed>
  <fix>3d</fix>
</trkpt>
<trkpt lat="40.0736157" lon="-105.2295698">
  <ele>1603.07</ele>
  <time>2026-08-27T18:26:13Z</time>
  <course>337.46</course>
  <speed>3.84</speed>
  <fix>3d</fix>
</trkpt>
<trkpt lat="40.0736284" lon="-105.2295757">
  <ele>1603.91</ele>
  <time>2026-08-27T18:26:14Z</time>
  <course>339.53</course>
  <speed>3.901179308875715</speed>
  <fix>3d</fix>
</trkpt>
<trkpt lat="40.0736222" lon="-105.229573">
  <ele>1603.41</ele>
  <time>2026-08-27T18:26:14Z</time>
  <course>341.27</course>
  <speed>3.86</speed>
  <fix>3d</fix>
</trkpt>
<trkpt lat="40.0736352" lon="-105.2295778">
  <ele>1604.28</ele>
  <time>2026-08-27T18:26:14Z</time>
  <course>343.1</course>
  <speed>3.9538588745679832</speed>
  <fix>3d</fix>
</trkpt>
<trkpt lat="40.0736288" lon="-105.2295756">
  <ele>1603.78</ele>
  <time>2026-08-27T18:26:14Z</time>
  <course>345.05</course>
  <speed>3.89</speed>
  <fix>3d</fix>
</trkpt>
<trkpt lat="40.0736422" lon="-105.2295794">
  <ele>1604.67</ele>
  <time>2026-08-27T18:26:14Z</time>
  <course>346.53</course>
  <speed>4.031935019317648</speed>
  <fix>3d</fix>
</trkpt>
<trkpt lat="40.0736356" lon="-105.2295776">
  <ele>1604.15</ele>
  <time>2026-08-27T18:26:14Z</time>
  <course>348.73</course>
  <speed>3.95</speed>
  <fix>3d</fix>
</trkpt>
<trkpt lat="40.0736495" lon="-105.2295804">
  <ele>1605.08</ele>
  <time>2026-08-27T18:26:14Z</time>
  <course>349.83</course>
  <speed>4.124875755704649</speed>
  <fix>3d</fix>
</trkpt>
<trkpt lat="40.0736428" lon="-105.2295792">
  <ele>1604.54</ele>
  <time>2026-08-27T18:26:14Z</time>
  <course>352.31</course>
  <speed>4.03</speed>
  <fix>3d</fix>
</trkpt>
<trkpt lat="40.073657" lon="-105.2295809">
  <ele>1605.5</ele>
  <time>2026-08-27T18:26:14Z</time>
  <course>353.0</course>
  <speed>4.241697773297857</speed>
  <fix>3d</fix>
</trkpt>
<trkpt lat="40.07365" lon="-105.2295802">
  <ele>1604.94</ele>
  <time>2026-08-27T18:26:14Z</time>
  <course>355.74</course>
  <speed>4.12</speed>
  <fix>3d</fix>
</trkpt>
<trkpt lat="40.0736647" lon="-105.2295808">
  <ele>1605.94</ele>
  <time>2026-08-27T18:26:14Z</time>
  <course>355.99</course>
  <speed>4.381381060807197</speed>
  <fix>3d</fix>
</trkpt>
<trkpt lat="40.0736575" lon="-105.2295806">
  <ele>1605.36</ele>
  <time>2026-08-27T18:26:14Z</time>
  <course>359.01</course>
  <speed>4.24</speed>
  <fix>3d</fix>
</trkpt>
<trkpt lat="40.0736727" lon="-105.2295802">
  <ele>1606.38</ele>
  <time>2026-08-27T18:26:14Z</time>
  <course>358.85</course>
  <speed>4.533530632961467</speed>
  <fix>3d</fix>
</trkpt>
<trkpt lat="40.0736653" lon="-105.2295805">
  <ele>1605.78</ele>
  <time>2026-08-27T18:26:14Z</time>
  <course>2.11</course>
  <speed>4.37</speed>
  <fix>3d</fix>
</trkpt>
<trkpt lat="40.073681" lon="-105.2295791">
  <ele>1606.84</ele>
  <time>2026-08-27T18:26:14Z</time>
  <course>1.44</course>
  <speed>4.705879301469599</speed>
  <fix>3d</fix>
</trkpt>
<trkpt lat="40.0736732" lon="-105.22958">
  <ele>1606.23</ele>
  <time>2026-08-27T18:26:14Z</time>
  <course>5.04</course>
  <speed>4.53</speed>
  <fix>3d</fix>
</trkpt>
<trkpt lat="40.0736895" lon="-105.2295774">
  <ele>1607.32</ele>
  <time>2026-08-27T18:26:14Z</time>
  <course>3.58</course>
  <speed>4.907310872565544</speed>
  <fix>3d</fix>
</trkpt>
<trkpt lat="40.0736815" lon="-105.2295788">
  <ele>1606.69</ele>
  <time>2026-08-27T18:26:14Z</time>
  <course>7.72</course>
  <speed>4.7</speed>
  <fix>3d</fix>
</trkpt>
<trkpt lat="40.0736984" lon="-105.2295751">
  <ele>1607.82</ele>
  <time>2026-08-27T18:26:14Z</time>
  <course>5.21</course>
  <speed>5.124578031409026</speed>
  <fix>3d</fix>
</trkpt>
<trkpt lat="40.07369" lon="-105.2295771">
  <ele>1607.16</ele>
  <time>2026-08-27T18:26:14Z</time>
  <course>10.1</course>
  <speed>4.9</speed>
  <fix>3d</fix>
</trkpt>
<trkpt lat="40.0737075" lon="-105.2295724">
  <ele>1608.34</ele>
  <time>2026-08-27T18:26:14Z</time>
  <course>7.09</course>
  <speed>5.316624869219193</speed>
  <fix>3d</fix>
</trkpt>
<trkpt lat="40.0736988" lon="-105.2295748">
  <ele>1607.66</ele>
  <time>2026-08-27T18:26:14Z</time>
  <course>12.2</course>
  <speed>5.11</speed>
  <fix>3d</fix>
</trkpt>
<trkpt lat="40.0737169" lon="-105.2295692">
  <ele>1608.86</ele>
  <time>2026-08-27T18:26:14Z</time>
  <course>9.2</course>
  <speed>5.448302487931447</speed>
  <fix>3d</fix>
</trkpt>
<trkpt lat="40.073708" lon="-105.2295719">
  <ele>1608.17</ele>
  <time>2026-08-27T18:26:14Z</time>
  <course>14.04</course>
  <speed>5.31</speed>
  <fix>3d</fix>
</trkpt>
<trkpt lat="40.0737263" lon="-105.2295655">
  <ele>1609.4</ele>
  <time>2026-08-27T18:26:14Z</time>
  <course>11.38</course>
  <speed>5.539142532919693</speed>
  <fix>3d</fix>
</trkpt>
<trkpt lat="40.0737174" lon="-105.2295687">
  <ele>1608.69</ele>
  <time>2026-08-27T18:26:14Z</time>
  <course>15.73</course>
  <speed>5.45</speed>
  <fix>3d</fix>
</trkpt>
<trkpt lat="40.0737358" lon="-105.2295615">
  <ele>1609.93</ele>
  <time>2026-08-27T18:26:14Z</time>
  <course>13.56</course>
  <speed>5.59411297705007</speed>
  <fix>3d</fix>
</trkpt>
<trkpt lat="40.0737268" lon="-105.229565">
  <ele>1609.22</ele>
  <time>2026-08-27T18:26:14Z</time>
  <course>17.42</course>
  <speed>5.55</speed>
  <fix>3d</fix>
</trkpt>
<trkpt lat="40.0737453" lon="-105.229557">
  <ele>1610.45</ele>
  <time>2026-08-27T18:26:14Z</time>
  <course>15.73</course>
  <speed>5.648406855034435</speed>
  <fix>3d</fix>
</trkpt>
<trkpt lat="40.0737364" lon="-105.2295609">
  <ele>1609.75</ele>
  <time>2026-08-27T18:26:14Z</time>
  <course>19.17</course>
  <speed>5.61</speed>
  <fix>3d</fix>
</trkpt>
<trkpt lat="40.0737549" lon="-105.2295519">
  <ele>1610.97</ele>
  <time>2026-08-27T18:26:14Z</time>
  <course>17.87</course>
  <speed>5.703095650609413</speed>
  <fix>3d</fix>
</trkpt>
<trkpt lat="40.0737459" lon="-105.2295563">
  <ele>1610.27</ele>
  <time>2026-08-27T18:26:14Z</time>
  <course>20.99</course>
  <speed>5.67</speed>
  <fix>3d</fix>
</trkpt>
<trkpt lat="40.0737644" lon="-105.2295465">
  <ele>1611.49</ele>
  <time>2026-08-27T18:26:14Z</time>
  <course>19.93</course>
  <speed>5.7469296150205285</speed>
  <fix>3d</fix>
</trkpt>
<trkpt lat="40.0737554" lon="-105.2295513">
  <ele>1610.79</ele>
  <time>2026-08-27T18:26:14Z</time>
  <course>22.82</course>
  <speed>5.72</speed>
  <fix>3d</fix>
</trkpt>
<trkpt lat="40.0737737" lon="-105.2295407">
  <ele>1612.0</ele>
  <time>2026-08-27T18:26:14Z</time>
  <course>21.88</course>
  <speed>5.77820906509967</speed>
  <fix>3d</fix>
</trkpt>
<trkpt lat="40.0737649" lon="-105.2295459">
  <ele>1611.3</ele>
  <time>2026-08-27T18:26:14Z</time>
  <course>24.63</course>
  <speed>5.76</speed>
  <fix>3d</fix>
</trkpt>
<trkpt lat="40.073783" lon="-105.2295344">
  <ele>1612.51</ele>
  <time>2026-08-27T18:26:14Z</time>
  <course>23.75</course>
  <speed>5.805996899758043</speed>
  <fix>3d</fix>
</trkpt>
<trkpt lat="40.0737742" lon="-105.2295401">
  <ele>1611.81</ele>
  <time>2026-08-27T18:26:14Z</time>
  <course>26.37</course>
  <speed>5.79</speed>
  <fix>3d</fix>
</trkpt>
<trkpt lat="40.0737922" lon="-105.2295278">
  <ele>1613.02</ele>
  <time>2026-08-27T18:26:14Z</time>
  <course>25.52</course>
  <speed>5.824851929448507</speed>
  <fix>3d</fix>
</trkpt>
<trkpt lat="40.0737835" lon="-105.2295339">
  <ele>1612.32</ele>
  <time>2026-08-27T18:26:14Z</time>
  <course>28.02</course>
  <speed>5.81</speed>
  <fix>3d</fix>
</trkpt>
<trkpt lat="40.0738013" lon="-105.2295209">
  <ele>1613.52</ele>
  <time>2026-08-27T18:26:14Z</time>
  <course>27.16</course>
  <speed>5.837876326199452</speed>
  <fix>3d</fix>
</trkpt>
<trkpt lat="40.0737927" lon="-105.2295273">
  <ele>1612.81</ele>
  <time>2026-08-27T18:26:14Z</time>
  <course>29.58</course>
  <speed>5.83</speed>
  <fix>3d</fix>
</trkpt>
<trkpt lat="40.0738103" lon="-105.2295137">
  <ele>1614.01</ele>
  <time>2026-08-27T18:26:14Z</time>
  <course>28.65</course>
  <speed>5.845904549340504</speed>
  <fix>3d</fix>
</trkpt>
<trkpt lat="40.0738018" lon="-105.2295203">
  <ele>1613.31</ele>
  <time>2026-08-27T18:26:14Z</time>
  <course>31.04</course>
  <speed>5.84</speed>
  <fix>3d</fix>
</trkpt>
<trkpt lat="40.0738191" lon="-105.2295062">
  <ele>1614.51</ele>
  <time>2026-08-27T18:26:14Z</time>
  <course>30.03</course>
  <speed>5.84946151367799</speed>
  <fix>3d</fix>
</trkpt>
<trkpt lat="40.0738107" lon="-105.229513">
  <ele>1613.8</ele>
  <time>2026-08-27T18:26:14Z</time>
  <course>32.38</course>
  <speed>5.85</speed>
  <fix>3d</fix>
</trkpt>
<trkpt lat="40.0738278" lon="-105.2294985">
  <ele>1615.01</ele>
  <time>2026-08-27T18:26:14Z</time>
  <course>31.25</course>
  <speed>5.85533944361896</speed>
  <fix>3d</fix>
</trkpt>
<trkpt lat="40.0738195" lon="-105.2295056">
  <ele>1614.3</ele>
  <time>2026-08-27T18:26:14Z</time>
  <course>33.59</course>
  <speed>5.86</speed>
  <fix>3d</fix>
</trkpt>
<trkpt lat="40.0738365" lon="-105.2294906">
  <ele>1615.51</ele>
  <time>2026-08-27T18:26:14Z</time>
  <course>32.33</course>
  <speed>5.860076791305724</speed>
  <fix>3d</fix>
</trkpt>
<trkpt lat="40.0738282" lon="-105.2294978">
  <ele>1614.79</ele>
  <time>2026-08-27T18:26:14Z</time>
  <course>34.66</course>
  <speed>5.86</speed>
  <fix>3d</fix>
</trkpt>
<trkpt lat="40.073845" lon="-105.2294825">
  <ele>1616.01</ele>
  <time>2026-08-27T18:26:14Z</time>
  <course>33.23</course>
  <speed>5.868492140235003</speed>
  <fix>3d</fix>
</trkpt>
<trkpt lat="40.0738368" lon="-105.22949">
  <ele>1615.28</ele>
  <time>2026-08-27T18:26:14Z</time>
  <course>35.58</course>
  <speed>5.87</speed>
  <fix>3d</fix>
</trkpt>
<trkpt lat="40.0738535" lon="-105.2294742">
  <ele>1616.51</ele>
  <time>2026-08-27T18:26:14Z</time>
  <course>34.03</course>
  <speed>5.8740275790976675</speed>
  <fix>3d</fix>
</trkpt>
<trkpt lat="40.0738454" lon="-105.2294819">
  <ele>1615.77</ele>
  <time>2026-08-27T18:26:14Z</time>
  <course>36.35</course>
  <speed>5.87</speed>
  <fix>3d</fix>
</trkpt>
<trkpt lat="40.0738619" lon="-105.2294659">
  <ele>1617.01</ele>
  <time>2026-08-27T18:26:14Z</time>
  <course>34.59</course>
  <speed>5.8801360528477575</speed>
  <fix>3d</fix>
</trkpt>
<trkpt lat="40.0738538" lon="-105.2294736">
  <ele>1616.27</ele>
  <time>2026-08-27T18:26:14Z</time>
  <course>36.98</course>
  <speed>5.88</speed>
  <fix>3d</fix>
</trkpt>
<trkpt lat="40.0738703" lon="-105.2294574">
  <ele>1617.5</ele>
  <time>2026-08-27T18:26:14Z</time>
  <course>35.05</course>
  <speed>5.890415944566224</speed>
  <fix>3d</fix>
</trkpt>
<trkpt lat="40.0738623" lon="-105.2294651">
  <ele>1616.76</ele>
  <time>2026-08-27T18:26:14Z</time>
  <course>37.47</course>
  <speed>5.88</speed>
  <fix>3d</fix>
</trkpt>
<trkpt lat="40.0738786" lon="-105.2294489">
  <ele>1617.99</ele>
  <time>2026-08-27T18:26:14Z</time>
  <course>35.34</course>
  <speed>5.900847396772772</speed>
  <fix>3d</fix>
</trkpt>
<trkpt lat="40.0738707" lon="-105.2294568">
  <ele>1617.25</ele>
  <time>2026-08-27T18:26:14Z</time>
  <course>37.81</course>
  <speed>5.89</speed>
  <fix>3d</fix>
</trkpt>
<trkpt lat="40.073887" lon="-105.2294404">
  <ele>1618.48</ele>
  <time>2026-08-27T18:26:14Z</time>
  <course>35.53</course>
  <speed>5.914879542306842</speed>
  <fix>3d</fix>
</trkpt>
<trkpt lat="40.073879" lon="-105.2294483">
  <ele>1617.74</ele>
  <time>2026-08-27T18:26:14Z</time>
  <course>38.04</course>
  <speed>5.9</speed>
  <fix>3d</fix>
</trkpt>
<trkpt lat="40.0738953" lon="-105.2294318">
  <ele>1618.97</ele>
  <time>2026-08-27T18:26:14Z</time>
  <course>35.59</course>
  <speed>5.928912210515517</speed>
  <fix>3d</fix>
</trkpt>
<trkpt lat="40.0738873" lon="-105.2294397">
  <ele>1618.23</ele>
  <time>2026-08-27T18:26:14Z</time>
  <course>38.14</course>
  <speed>5.92</speed>
  <fix>3d</fix>
</trkpt>
<trkpt lat="40.0739037" lon="-105.2294232">
  <ele>1619.47</ele>
  <time>2026-08-27T18:26:14Z</time>
  <course>35.54</course>
  <speed>5.950840276801252</speed>
  <fix>3d</fix>
</trkpt>
<trkpt lat="40.0738957" lon="-105.2294311">
  <ele>1618.73</ele>
  <time>2026-08-27T18:26:14Z</time>
  <course>38.15</course>
  <speed>5.93</speed>
  <fix>3d</fix>
</trkpt>
<trkpt lat="40.0739121" lon="-105.2294146">
  <ele>1619.96</ele>
  <time>2026-08-27T18:26:14Z</time>
  <course>35.44</course>
  <speed>5.9605368885696866</speed>
  <fix>3d</fix>
</trkpt>
<trkpt lat="40.0739042" lon="-105.2294225">
  <ele>1619.23</ele>
  <time>2026-08-27T18:26:14Z</time>
  <course>38.06</course>
  <speed>5.95</speed>
  <fix>3d</fix>
</trkpt>
<trkpt lat="40.0739206" lon="-105.2294061">
  <ele>1620.46</ele>
  <time>2026-08-27T18:26:14Z</time>
  <course>35.29</course>
  <speed>5.978243889303949</speed>
  <fix>3d</fix>
</trkpt>
<trkpt lat="40.0739126" lon="-105.2294139">
  <ele>1619.73</ele>
  <time>2026-08-27T18:26:14Z</time>
  <course>37.9</course>
  <speed>5.97</speed>
  <fix>3d</fix>
</trkpt>
<trkpt lat="40.0739292" lon="-105.2293975">
  <ele>1620.96</ele>
  <time>2026-08-27T18:26:14Z</time>
  <course>35.06</course>
  <speed>5.996065376561534</speed>
  <fix>3d</fix>
</trkpt>
<trkpt lat="40.0739211" lon="-105.2294053">
  <ele>1620.23</ele>
  <time>2026-08-27T18:26:14Z</time>
  <course>37.67</course>
  <speed>5.98</speed>
  <fix>3d</fix>
</trkpt>
<trkpt lat="40.0739378" lon="-105.2293889">
  <ele>1621.47</ele>
  <time>2026-08-27T18:26:14Z</time>
  <course>34.79</course>
  <speed>6.0080029960045795</speed>
  <fix>3d</fix>
</trkpt>
<trkpt lat="40.0739296" lon="-105.2293967">
  <ele>1620.73</ele>
  <time>2026-08-27T18:26:14Z</time>
  <course>37.4</course>
  <speed>6.0</speed>
  <fix>3d</fix>
</trkpt>
<trkpt lat="40.0739464" lon="-105.2293804">
  <ele>1621.97</ele>
  <time>2026-08-27T18:26:14Z</time>
  <course>34.55</course>
  <speed>6.012096140282522</speed>
  <fix>3d</fix>
</trkpt>
<trkpt lat="40.0739382" lon="-105.2293881">
  <ele>1621.23</ele>
  <time>2026-08-27T18:26:14Z</time>
  <course>37.09</course>
  <speed>6.01</speed>
  <fix>3d</fix>
</trkpt>
<trkpt lat="40.0739552" lon="-105.2293719">
  <ele>1622.48</ele>
  <time>2026-08-27T18:26:14Z</time>
  <course>34.26</course>
  <speed>6.024383785915369</speed>
  <fix>3d</fix>
</trkpt>
<trkpt lat="40.0739469" lon="-105.2293796">
  <ele>1621.74</ele>
  <time>2026-08-27T18:26:14Z</time>
  <course>36.75</course>
  <speed>6.02</speed>
  <fix>3d</fix>
</trkpt>
<trkpt lat="40.0739639" lon="-105.2293635">
  <ele>1622.98</ele>
  <time>2026-08-27T18:26:14Z</time>
  <course>33.99</course>
  <speed>6.031003233293777</speed>
  <fix>3d</fix>
</trkpt>
<trkpt lat="40.0739556" lon="-105.2293712">
  <ele>1622.24</ele>
  <time>2026-08-27T18:26:14Z</time>
  <course>36.38</course>
  <speed>6.02</speed>
  <fix>3d</fix>
</trkpt>
<trkpt lat="40.0739727" lon="-105.2293552">
  <ele>1623.49</ele>
  <time>2026-08-27T18:26:14Z</time>
  <course>33.66</course>
  <speed>6.023968791419822</speed>
  <fix>3d</fix>
</trkpt>
<trkpt lat="40.0739643" lon="-105.2293628">
  <ele>1622.75</ele>
  <time>2026-08-27T18:26:14Z</time>
  <course>36.0</course>
  <speed>6.03</speed>
  <fix>3d</fix>
</trkpt>
<trkpt lat="40.0739815" lon="-105.229347">
  <ele>1623.99</ele>
  <time>2026-08-27T18:26:14Z</time>
  <course>33.35</course>
  <speed>6.017258511980352</speed>
  <fix>3d</fix>
</trkpt>
<trkpt lat="40.0739731" lon="-105.2293545">
  <ele>1623.25</ele>
  <time>2026-08-27T18:26:14Z</time>
  <course>35.59</course>
  <speed>6.02</speed>
  <fix>3d</fix>
</trkpt>
<trkpt lat="40.0739904" lon="-105.2293389">
  <ele>1624.49</ele>
  <time>2026-08-27T18:26:14Z</time>
  <course>33.01</course>
  <speed>6.01087348061827</speed>
  <fix>3d</fix>
</trkpt>
<trkpt lat="40.073982" lon="-105.2293464">
  <ele>1623.75</ele>
  <time>2026-08-27T18:26:14Z</time>
  <course>35.17</course>
  <speed>6.02</speed>
  <fix>3d</fix>
</trkpt>
<trkpt lat="40.0739993" lon="-105.2293309">
  <ele>1624.99</ele>
  <time>2026-08-27T18:26:14Z</time>
  <course>32.61</course>
  <speed>5.990926472591698</speed>
  <fix>3d</fix>
</trkpt>
<trkpt lat="40.0739908" lon="-105.2293383">
  <ele>1624.25</ele>
  <time>2026-08-27T18:26:14Z</time>
  <course>34.72</course>
  <speed>6.0</speed>
  <fix>3d</fix>
</trkpt>
<trkpt lat="40.0740081" lon="-105.2293231">
  <ele>1625.49</ele>
  <time>2026-08-27T18:26:14Z</time>
  <course>32.18</course>
  <speed>5.965810925599302</speed>
  <fix>3d</fix>
</trkpt>
<trkpt lat="40.0739997" lon="-105.2293303">
  <ele>1624.75</ele>
  <time>2026-08-27T18:26:14Z</time>
  <course>34.25</course>
  <speed>5.99</speed>
  <fix>3d</fix>
</trkpt>
<trkpt lat="40.0740171" lon="-105.2293154">
  <ele>1625.98</ele>
  <time>2026-08-27T18:26:14Z</time>
  <course>31.73</course>
  <speed>5.9412119975641335</speed>
  <fix>3d</fix>
</trkpt>
<trkpt lat="40.0740086" lon="-105.2293225">
  <ele>1625.25</ele>
  <time>2026-08-27T18:26:14Z</time>
  <course>33.75</course>
  <speed>5.96</speed>
  <fix>3d</fix>
</trkpt>
<trkpt lat="40.0740261" lon="-105.2293078">
  <ele>1626.49</ele>
  <time>2026-08-27T18:26:14Z</time>
  <course>31.2</course>
  <speed>5.911767925079604</speed>
  <fix>3d</fix>
</trkpt>
<trkpt lat="40.0740175" lon="-105.2293148">
  <ele>1625.76</ele>
  <time>2026-08-27T18:26:14Z</time>
  <course>33.19</course>
  <speed>5.94</speed>
  <fix>3d</fix>
</trkpt>
<trkpt lat="40.074035" lon="-105.2293004">
  <ele>1626.99</ele>
  <time>2026-08-27T18:26:14Z</time>
  <course>30.66</course>
  <speed>5.869258896998836</speed>
  <fix>3d</fix>
</trkpt>
<trkpt lat="40.0740264" lon="-105.2293072">
  <ele>1626.26</ele>
  <time>2026-08-27T18:26:14Z</time>
  <course>32.59</course>
  <speed>5.9</speed>
  <fix>3d</fix>
</trkpt>
<trkpt lat="40.074044" lon="-105.2292932">
  <ele>1627.49</ele>
  <time>2026-08-27T18:26:14Z</time>
  <course>30.03</course>
  <speed>5.822379238764854</speed>
  <fix>3d</fix>
</trkpt>
<trkpt lat="40.0740354" lon="-105.2292998">
  <ele>1626.76</ele>
  <time>2026-08-27T18:26:14Z</time>
  <course>31.93</course>
  <speed>5.86</speed>
  <fix>3d</fix>
</trkpt>
<trkpt lat="40.0740529" lon="-105.2292862">
  <ele>1627.99</ele>
  <time>2026-08-27T18:26:14Z</time>
  <course>29.33</course>
  <speed>5.762846518865482</speed>
  <fix>3d</fix>
</trkpt>
<trkpt lat="40.0740444" lon="-105.2292926">
  <ele>1627.26</ele>
  <time>2026-08-27T18:26:14Z</time>
  <course>31.2</course>
  <speed>5.81</speed>
  <fix>3d</fix>
</trkpt>
<trkpt lat="40.0740618" lon="-105.2292795">
  <ele>1628.49</ele>
  <time>2026-08-27T18:26:14Z</time>
  <course>28.56</course>
  <speed>5.713177749729129</speed>
  <fix>3d</fix>
</trkpt>
<trkpt lat="40.0740533" lon="-105.2292856">
  <ele>1627.77</ele>
  <time>2026-08-27T18:26:14Z</time>
  <course>30.38</course>
  <speed>5.76</speed>
  <fix>3d</fix>
</trkpt>
<trkpt lat="40.0740707" lon="-105.229273">
  <ele>1628.99</ele>
  <time>2026-08-27T18:26:14Z</time>
  <course>27.69</course>
  <speed>5.646529907828347</speed>
  <fix>3d</fix>
</trkpt>
<trkpt lat="40.0740622" lon="-105.2292789">
  <ele>1628.27</ele>
  <time>2026-08-27T18:26:14Z</time>
  <course>29.49</course>
  <speed>5.7</speed>
  <fix>3d</fix>
</trkpt>
<trkpt lat="40.0740795" lon="-105.2292669">
  <ele>1629.49</ele>
  <time>2026-08-27T18:26:14Z</time>
  <course>26.7</course>
  <speed>5.581684333603971</speed>
  <fix>3d</fix>
</trkpt>
<trkpt lat="40.0740711" lon="-105.2292725">
  <ele>1628.77</ele>
  <time>2026-08-27T18:26:14Z</time>
  <course>28.49</course>
  <speed>5.64</speed>
  <fix>3d</fix>
</trkpt>
<trkpt lat="40.0740884" lon="-105.229261">
  <ele>1629.99</ele>
  <time>2026-08-27T18:26:14Z</time>
  <course>25.59</course>
  <speed>5.509891106002005</speed>
  <fix>3d</fix>
</trkpt>
<trkpt lat="40.07408" lon="-105.2292663">
  <ele>1629.27</ele>
  <time>2026-08-27T18:26:14Z</time>
  <course>27.39</course>
  <speed>5.58</speed>
  <fix>3d</fix>
</trkpt>
<trkpt lat="40.0740972" lon="-105.2292555">
  <ele>1630.49</ele>
  <time>2026-08-27T18:26:14Z</time>
  <course>24.35</course>
  <speed>5.445677184703478</speed>
  <fix>3d</fix>
</trkpt>
<trkpt lat="40.0740889" lon="-105.2292604">
  <ele>1629.77</ele>
  <time>2026-08-27T18:26:14Z</time>
  <course>26.18</course>
  <speed>5.51</speed>
  <fix>3d</fix>
</trkpt>
<trkpt lat="40.0741061" lon="-105.2292502">
  <ele>1630.99</ele>
  <time>2026-08-27T18:26:14Z</time>
  <course>22.97</course>
  <speed>5.3756860027349065</speed>
  <fix>3d</fix>
</trkpt>
<trkpt lat="40.0740978" lon="-105.2292549">
  <ele>1630.28</ele>
  <time>2026-08-27T18:26:14Z</time>
  <course>24.84</course>
  <speed>5.44</speed>
  <fix>3d</fix>
</trkpt>
<trkpt lat="40.074115" lon="-105.2292454">
  <ele>1631.49</ele>
  <time>2026-08-27T18:26:14Z</time>
  <course>21.46</course>
  <speed>5.301641255309529</speed>
  <fix>3d</fix>
</trkpt>
<trkpt lat="40.0741067" lon="-105.2292497">
  <ele>1630.78</ele>
  <time>2026-08-27T18:26:14Z</time>
  <course>23.36</course>
  <speed>5.37</speed>
  <fix>3d</fix>
</trkpt>
<trkpt lat="40.0741239" lon="-105.2292409">
  <ele>1631.99</ele>
  <time>2026-08-27T18:26:14Z</time>
  <course>19.78</course>
  <speed>5.232093271339876</speed>
  <fix>3d</fix>
</trkpt>
<trkpt lat="40.0741155" lon="-105.2292449">
  <ele>1631.28</ele>
  <time>2026-08-27T18:26:14Z</time>
  <course>21.74</course>
  <speed>5.3</speed>
  <fix>3d</fix>
</trkpt>
<trkpt lat="40.0741327" lon="-105.2292369">
  <ele>1632.49</ele>
  <time>2026-08-27T18:26:14Z</time>
  <course>17.91</course>
  <speed>5.170541557709405</speed>
  <fix>3d</fix>
</trkpt>
<trkpt lat="40.0741244" lon="-105.2292405">
  <ele>1631.78</ele>
  <time>2026-08-27T18:26:14Z</time>
  <course>19.98</course>
  <speed>5.23</speed>
  <fix>3d</fix>
</trkpt>
<trkpt lat="40.0741416" lon="-105.2292334">
  <ele>1632.98</ele>
  <time>2026-08-27T18:26:14Z</time>
  <course>15.92</course>
  <speed>5.102959925376643</speed>
  <fix>3d</fix>
</trkpt>
<trkpt lat="40.0741332" lon="-105.2292365">
  <ele>1632.28</ele>
  <time>2026-08-27T18:26:14Z</time>
  <course>18.06</course>
  <speed>5.16</speed>
  <fix>3d</fix>
</trkpt>
<trkpt lat="40.0741504" lon="-105.2292303">
  <ele>1633.49</ele>
  <time>2026-08-27T18:26:14Z</time>
  <course>13.77</course>
  <speed>5.042429969766561</speed>
  <fix>3d</fix>
</trkpt>
<trkpt lat="40.0741421" lon="-105.2292329">
  <ele>1632.78</ele>
  <time>2026-08-27T18:26:14Z</time>
  <course>15.98</course>
  <speed>5.09</speed>
  <fix>3d</fix>
</trkpt>
<trkpt lat="40.0741592" lon="-105.2292277">
  <ele>1633.99</ele>
  <time>2026-08-27T18:26:14Z</time>
  <course>11.48</course>
  <speed>4.9852783272351004</speed>
  <fix>3d</fix>
</trkpt>
<trkpt lat="40.0741509" lon="-105.2292298">
  <ele>1633.28</ele>
  <time>2026-08-27T18:26:14Z</time>
  <course>13.77</course>
  <speed>5.03</speed>
  <fix>3d</fix>
</trkpt>
<trkpt lat="40.0741679" lon="-105.2292256">
  <ele>1634.49</ele>
  <time>2026-08-27T18:26:14Z</time>
  <course>9.07</course>
  <speed>4.937296831263034</speed>
  <fix>3d</fix>
</trkpt>
<trkpt lat="40.0741596" lon="-105.2292273">
  <ele>1633.78</ele>
  <time>2026-08-27T18:26:14Z</time>
  <course>11.41</course>
  <speed>4.97</speed>
  <fix>3d</fix>
</trkpt>
<trkpt lat="40.0741766" lon="-105.2292241">
  <ele>1634.99</ele>
  <time>2026-08-27T18:26:14Z</time>
  <course>6.5</course>
  <speed>4.897683125723836</speed>
  <fix>3d</fix>
</trkpt>
<trkpt lat="40.0741684" lon="-105.2292253">
  <ele>1634.28</ele>
  <time>2026-08-27T18:26:14Z</time>
  <course>8.92</course>
  <speed>4.92</speed>
  <fix>3d</fix>
</trkpt>
<trkpt lat="40.0741854" lon="-105.229223">
  <ele>1635.48</ele>
  <time>2026-08-27T18:26:14Z</time>
  <course>3.9</course>
  <speed>4.858662367359972</speed>
  <fix>3d</fix>
</trkpt>
<trkpt lat="40.0741771" lon="-105.2292237">
  <ele>1634.78</ele>
  <time>2026-08-27T18:26:14Z</time>
  <course>6.29</course>
  <speed>4.88</speed>
  <fix>3d</fix>
</trkpt>
<trkpt lat="40.074194" lon="-105.2292226">
  <ele>1635.98</ele>
  <time>2026-08-27T18:26:14Z</time>
  <course>1.28</course>
  <speed>4.780167361086848</speed>
  <fix>3d</fix>
</trkpt>
<trkpt lat="40.0741858" lon="-105.2292227">
  <ele>1635.28</ele>
  <time>2026-08-27T18:26:14Z</time>
  <course>3.54</course>
  <speed>4.84</speed>
  <fix>3d</fix>
</trkpt>
<trkpt lat="40.0742024" lon="-105.2292227">
  <ele>1636.46</ele>
  <time>2026-08-27T18:26:14Z</time>
  <course>358.66</course>
  <speed>4.663871782114083</speed>
  <fix>3d</fix>
</trkpt>
<trkpt lat="40.0741945" lon="-105.2292223">
  <ele>1635.77</ele>
  <time>2026-08-27T18:26:14Z</time>
  <course>0.65</course>
  <speed>4.77</speed>
  <fix>3d</fix>
</trkpt>
<trkpt lat="40.0742107" lon="-105.2292234">
  <ele>1636.92</ele>
  <time>2026-08-27T18:26:14Z</time>
  <course>355.95</course>
  <speed>4.509600869256613</speed>
  <fix>3d</fix>
</trkpt>
<trkpt lat="40.0742029" lon="-105.2292225">
  <ele>1636.25</ele>
  <time>2026-08-27T18:26:14Z</time>
  <course>357.64</course>
  <speed>4.65</speed>
  <fix>3d</fix>
</trkpt>
<trkpt lat="40.0742186" lon="-105.2292245">
  <ele>1637.35</ele>
  <time>2026-08-27T18:26:14Z</time>
  <course>353.15</course>
  <speed>4.3587383495686</speed>
  <fix>3d</fix>
</trkpt>
<trkpt lat="40.0742111" lon="-105.2292233">
  <ele>1636.71</ele>
  <time>2026-08-27T18:26:14Z</time>
  <course>354.54</course>
  <speed>4.51</speed>
  <fix>3d</fix>
</trkpt>
<trkpt lat="40.0742262" lon="-105.2292263">
  <ele>1637.77</ele>
  <time>2026-08-27T18:26:14Z</time>
  <course>350.11</course>
  <speed>4.210855020064215</speed>
  <fix>3d</fix>
</trkpt>
<trkpt lat="40.074219" lon="-105.2292245">
  <ele>1637.15</ele>
  <time>2026-08-27T18:26:14Z</time>
  <course>351.32</course>
  <speed>4.35</speed>
  <fix>3d</fix>
</trkpt>
<trkpt lat="40.0742334" lon="-105.2292286">
  <ele>1638.16</ele>
  <time>2026-08-27T18:26:15Z</time>
  <course>346.72</course>
  <speed>4.081041533726409</speed>
  <fix>3d</fix>
</trkpt>
<trkpt lat="40.0742266" lon="-105.2292262">
  <ele>1637.57</ele>
  <time>2026-08-27T18:26:15Z</time>
  <course>347.91</course>
  <speed>4.21</speed>
  <fix>3d</fix>
</trkpt>
<trkpt lat="40.0742403" lon="-105.2292314">
  <ele>1638.53</ele>
  <time>2026-08-27T18:26:15Z</time>
  <course>342.96</course>
  <speed>3.966106403010388</speed>
  <fix>3d</fix>
</trkpt>
<trkpt lat="40.0742338" lon="-105.2292286">
  <ele>1637.96</ele>
  <time>2026-08-27T18:26:15Z</time>
  <course>344.24</course>
  <speed>4.08</speed>
  <fix>3d</fix>
</trkpt>
<trkpt lat="40.0742469" lon="-105.2292348">
  <ele>1638.88</ele>
  <time>2026-08-27T18:26:15Z</time>
  <course>338.96</course>
  <speed>3.864466327968197</speed>
  <fix>3d</fix>
</trkpt>
<trkpt lat="40.0742408" lon="-105.2292314">
  <ele>1638.33</ele>
  <time>2026-08-27T18:26:15Z</time>
  <course>340.29</course>
  <speed>3.96</speed>
  <fix>3d</fix>
</trkpt>
<trkpt lat="40.0742531" lon="-105.2292386">
  <ele>1639.22</ele>
  <time>2026-08-27T18:26:15Z</time>
  <course>334.72</course>
  <speed>3.7935339724325656</speed>
  <fix>3d</fix>
</trkpt>
<trkpt lat="40.0742473" lon="-105.2292348">
  <ele>1638.67</ele>
  <time>2026-08-27T18:26:15Z</time>
  <course>336.09</course>
  <speed>3.87</speed>
  <fix>3d</fix>
</trkpt>
<trkpt lat="40.0742589" lon="-105.229243">
  <ele>1639.54</ele>
  <time>2026-08-27T18:26:15Z</time>
  <course>330.35</course>
  <speed>3.731286641361127</speed>
  <fix>3d</fix>
</trkpt>
<trkpt lat="40.0742535" lon="-105.2292387">
  <ele>1639.01</ele>
  <time>2026-08-27T18:26:15Z</time>
  <course>331.72</course>
  <speed>3.79</speed>
  <fix>3d</fix>
</trkpt>
<trkpt lat="40.0742644" lon="-105.2292479">
  <ele>1639.85</ele>
  <time>2026-08-27T18:26:15Z</time>
  <course>325.94</course>
  <speed>3.7080048543657544</speed>
  <fix>3d</fix>
</trkpt>
<trkpt lat="40.0742593" lon="-105.2292432">
  <ele>1639.33</ele>
  <time>2026-08-27T18:26:15Z</time>
  <course>327.27</course>
  <speed>3.73</speed>
  <fix>3d</fix>
</trkpt>
<trkpt lat="40.0742695" lon="-105.2292534">
  <ele>1640.14</ele>
  <time>2026-08-27T18:26:15Z</time>
  <course>321.58</course>
  <speed>3.706440340812192</speed>
  <fix>3d</fix>
</trkpt>
<trkpt lat="40.0742648" lon="-105.2292483">
  <ele>1639.64</ele>
  <time>2026-08-27T18:26:15Z</time>
  <course>322.83</course>
  <speed>3.7</speed>
  <fix>3d</fix>
</trkpt>
<trkpt lat="40.0742744" lon="-105.2292594">
  <ele>1640.44</ele>
  <time>2026-08-27T18:26:15Z</time>
  <course>317.33</course>
  <speed>3.7335505889166685</speed>
  <fix>3d</fix>
</trkpt>
<trkpt lat="40.0742699" lon="-105.2292538">
  <ele>1639.94</ele>
  <time>2026-08-27T18:26:15Z</time>
  <course>318.5</course>
  <speed>3.7</speed>
  <fix>3d</fix>
</trkpt>
<trkpt lat="40.074279" lon="-105.2292659">
  <ele>1640.71</ele>
  <time>2026-08-27T18:26:15Z</time>
  <course>313.31</course>
  <speed>3.778954881974644</speed>
  <fix>3d</fix>
</trkpt>
<trkpt lat="40.0742747" lon="-105.2292598">
  <ele>1640.23</ele>
  <time>2026-08-27T18:26:15Z</time>
  <course>314.34</course>
  <speed>3.73</speed>
  <fix>3d</fix>
</trkpt>
<trkpt lat="40.0742833" lon="-105.2292728">
  <ele>1640.97</ele>
  <time>2026-08-27T18:26:15Z</time>
  <course>309.54</course>
  <speed>3.8540627913929995</speed>
  <fix>3d</fix>
</trkpt>
<trkpt lat="40.0742793" lon="-105.2292664">
  <ele>1640.5</ele>
  <time>2026-08-27T18:26:15Z</time>
  <course>310.42</course>
  <speed>3.77</speed>
  <fix>3d</fix>
</trkpt>
<trkpt lat="40.0742873" lon="-105.2292803">
  <ele>1641.22</ele>
  <time>2026-08-27T18:26:15Z</time>
  <course>306.05</course>
  <speed>3.935606687665829</speed>
  <fix>3d</fix>
</trkpt>
<trkpt lat="40.0742836" lon="-105.2292734">
  <ele>1640.76</ele>
  <time>2026-08-27T18:26:15Z</time>
  <course>306.76</course>
  <speed>3.84</speed>
  <fix>3d</fix>
</trkpt>
<trkpt lat="40.0742911" lon="-105.2292882">
  <ele>1641.46</ele>
  <time>2026-08-27T18:26:15Z</time>
  <course>302.87</course>
  <speed>4.035405803633632</speed>
  <fix>3d</fix>
</trkpt>
<trkpt lat="40.0742876" lon="-105.2292808">
  <ele>1641.01</ele>
  <time>2026-08-27T18:26:15Z</time>
  <course>303.39</course>
  <speed>3.92</speed>
  <fix>3d</fix>
</trkpt>
<trkpt lat="40.0742947" lon="-105.2292965">
  <ele>1641.68</ele>
  <time>2026-08-27T18:26:15Z</time>
  <course>299.94</course>
  <speed>4.137692593704854</speed>
  <fix>3d</fix>
</trkpt>
<trkpt lat="40.0742914" lon="-105.2292887">
  <ele>1641.25</ele>
  <time>2026-08-27T18:26:15Z</time>
  <course>300.29</course>
  <speed>4.02</speed>
  <fix>3d</fix>
</trkpt>
<trkpt lat="40.074298" lon="-105.2293054">
  <ele>1641.88</ele>
  <time>2026-08-27T18:26:15Z</time>
  <course>297.3</course>
  <speed>4.254244938881635</speed>
  <fix>3d</fix>
</trkpt>
<trkpt lat="40.0742949" lon="-105.2292971">
  <ele>1641.47</ele>
  <time>2026-08-27T18:26:15Z</time>
  <course>297.43</course>
  <speed>4.13</speed>
  <fix>3d</fix>
</trkpt>
<trkpt lat="40.0743011" lon="-105.2293146">
  <ele>1642.07</ele>
  <time>2026-08-27T18:26:15Z</time>
  <course>294.81</course>
  <speed>4.343846221955837</speed>
  <fix>3d</fix>
</trkpt>
<trkpt lat="40.0742982" lon="-105.2293059">
  <ele>1641.67</ele>
  <time>2026-08-27T18:26:15Z</time>
  <course>294.76</course>
  <speed>4.23</speed>
  <fix>3d</fix>
</trkpt>
<trkpt lat="40.0743039" lon="-105.2293241">
  <ele>1642.24</ele>
  <time>2026-08-27T18:26:15Z</time>
  <course>292.42</course>
  <speed>4.406778868969942</speed>
  <fix>3d</fix>
</trkpt>
<trkpt lat="40.0743013" lon="-105.2293152">
  <ele>1641.87</ele>
  <time>2026-08-27T18:26:15Z</time>
  <course>292.2</course>
  <speed>4.33</speed>
  <fix>3d</fix>
</trkpt>
<trkpt lat="40.0743065" lon="-105.2293339">
  <ele>1642.39</ele>
  <time>2026-08-27T18:26:15Z</time>
  <course>290.17</course>
  <speed>4.459260028300659</speed>
  <fix>3d</fix>
</trkpt>
<trkpt lat="40.0743041" lon="-105.2293247">
  <ele>1642.05</ele>
  <time>2026-08-27T18:26:15Z</time>
  <course>289.71</course>
  <speed>4.4</speed>
  <fix>3d</fix>
</trkpt>
<trkpt lat="40.0743087" lon="-105.229344">
  <ele>1642.52</ele>
  <time>2026-08-27T18:26:15Z</time>
  <course>288.04</course>
  <speed>4.490545623863541</speed>
  <fix>3d</fix>
</trkpt>
<trkpt lat="40.0743066" lon="-105.2293345">
  <ele>1642.2</ele>
  <time>2026-08-27T18:26:15Z</time>
  <course>287.32</course>
  <speed>4.44</speed>
  <fix>3d</fix>
</trkpt>
<trkpt lat="40.0743107" lon="-105.2293542">
  <ele>1642.63</ele>
  <time>2026-08-27T18:26:15Z</time>
  <course>286.01</course>
  <speed>4.509212791607866</speed>
  <fix>3d</fix>
</trkpt>
<trkpt lat="40.0743088" lon="-105.2293446">
  <ele>1642.34</ele>
  <time>2026-08-27T18:26:15Z</time>
  <course>285.03</course>
  <speed>4.48</speed>
  <fix>3d</fix>
</trkpt>
<trkpt lat="40.0743124" lon="-105.2293646">
  <ele>1642.71</ele>
  <time>2026-08-27T18:26:15Z</time>
  <course>283.98</course>
  <speed>4.522521420623677</speed>
  <fix>3d</fix>
</trkpt>
<trkpt lat="40.0743107" lon="-105.2293549">
  <ele>1642.45</ele>
  <time>2026-08-27T18:26:15Z</time>
  <course>282.82</course>
  <speed>4.5</speed>
  <fix>3d</fix>
</trkpt>
<trkpt lat="40.0743137" lon="-105.2293751">
  <ele>1642.77</ele>
  <time>2026-08-27T18:26:15Z</time>
  <course>281.91</course>
  <speed>4.532824726370964</speed>
  <fix>3d</fix>
</trkpt>
<trkpt lat="40.0743124" lon="-105.2293653">
  <ele>1642.54</ele>
  <time>2026-08-27T18:26:15Z</time>
  <course>280.62</course>
  <speed>4.51</speed>
  <fix>3d</fix>
</trkpt>
<trkpt lat="40.0743148" lon="-105.2293857">
  <ele>1642.81</ele>
  <time>2026-08-27T18:26:15Z</time>
  <course>279.75</course>
  <speed>4.528807790136384</speed>
  <fix>3d</fix>
</trkpt>
<trkpt lat="40.0743138" lon="-105.2293757">
  <ele>1642.61</ele>
  <time>2026-08-27T18:26:15Z</time>
  <course>278.39</course>
  <speed>4.51</speed>
  <fix>3d</fix>
</trkpt>
<trkpt lat="40.0743155" lon="-105.2293962">
  <ele>1642.84</ele>
  <time>2026-08-27T18:26:15Z</time>
  <course>277.52</course>
  <speed>4.511363430272493</speed>
  <fix>3d</fix>
</trkpt>
<trkpt lat="40.0743147" lon="-105.2293862">
  <ele>1642.65</ele>
  <time>2026-08-27T18:26:15Z</time>
  <course>276.09</course>
  <speed>4.51</speed>
  <fix>3d</fix>
</trkpt>
<trkpt lat="40.0743159" lon="-105.2294068">
  <ele>1642.84</ele>
  <time>2026-08-27T18:26:15Z</time>
  <course>275.21</course>
  <speed>4.491603277227409</speed>
  <fix>3d</fix>
</trkpt>
<trkpt lat="40.0743155" lon="-105.2293968">
  <ele>1642.67</ele>
  <time>2026-08-27T18:26:15Z</time>
  <course>273.71</course>
  <speed>4.49</speed>
  <fix>3d</fix>
</trkpt>
<trkpt lat="40.0743159" lon="-105.2294173">
  <ele>1642.82</ele>
  <time>2026-08-27T18:26:15Z</time>
  <course>272.79</course>
  <speed>4.460549293528769</speed>
  <fix>3d</fix>
</trkpt>
<trkpt lat="40.0743158" lon="-105.2294073">
  <ele>1642.69</ele>
  <time>2026-08-27T18:26:15Z</time>
  <course>271.24</course>
  <speed>4.47</speed>
  <fix>3d</fix>
</trkpt>
<trkpt lat="40.0743156" lon="-105.2294277">
  <ele>1642.78</ele>
  <time>2026-08-27T18:26:15Z</time>
  <course>270.27</course>
  <speed>4.428238927609937</speed>
  <fix>3d</fix>
</trkpt>
<trkpt lat="40.0743158" lon="-105.2294178">
  <ele>1642.67</ele>
  <time>2026-08-27T18:26:15Z</time>
  <course>268.68</course>
  <speed>4.44</speed>
  <fix>3d</fix>
</trkpt>
<trkpt lat="40.0743149" lon="-105.229438">
  <ele>1642.72</ele>
  <time>2026-08-27T18:26:15Z</time>
  <course>267.63</course>
  <speed>4.386342439892261</speed>
  <fix>3d</fix>
</trkpt>
<trkpt lat="40.0743155" lon="-105.2294282">
  <ele>1642.64</ele>
  <time>2026-08-27T18:26:15Z</time>
  <course>266.0</course>
  <speed>4.41</speed>
  <fix>3d</fix>
</trkpt>
<trkpt lat="40.0743138" lon="-105.2294481">
  <ele>1642.64</ele>
  <time>2026-08-27T18:26:15Z</time>
  <course>264.89</course>
  <speed>4.345135210784585</speed>
  <fix>3d</fix>
</trkpt>
<trkpt lat="40.0743148" lon="-105.2294384">
  <ele>1642.58</ele>
  <time>2026-08-27T18:26:15Z</time>
  <course>263.22</course>
  <speed>4.37</speed>
  <fix>3d</fix>
</trkpt>
<trkpt lat="40.0743123" lon="-105.2294581">
  <ele>1642.54</ele>
  <time>2026-08-27T18:26:15Z</time>
  <course>262.0</course>
  <speed>4.307226485802667</speed>
  <fix>3d</fix>
</trkpt>
<trkpt lat="40.0743137" lon="-105.2294486">
  <ele>1642.51</ele>
  <time>2026-08-27T18:26:15Z</time>
  <course>260.32</course>
  <speed>4.33</speed>
  <fix>3d</fix>
</trkpt>
<trkpt lat="40.0743105" lon="-105.2294679">
  <ele>1642.42</ele>
  <time>2026-08-27T18:26:15Z</time>
  <course>258.99</course>
  <speed>4.262510997053263</speed>
  <fix>3d</fix>
</trkpt>
<trkpt lat="40.0743122" lon="-105.2294584">
  <ele>1642.41</ele>
  <time>2026-08-27T18:26:15Z</time>
  <course>257.3</course>
  <speed>4.29</speed>
  <fix>3d</fix>
</trkpt>
<trkpt lat="40.0743082" lon="-105.2294774">
  <ele>1642.28</ele>
  <time>2026-08-27T18:26:15Z</time>
  <course>255.88</course>
  <speed>4.227966414246925</speed>
  <fix>3d</fix>
</trkpt>
<trkpt lat="40.0743103" lon="-105.2294682">
  <ele>1642.29</ele>
  <time>2026-08-27T18:26:15Z</time>
  <course>254.16</course>
  <speed>4.25</speed>
  <fix>3d</fix>
</trkpt>
<trkpt lat="40.0743056" lon="-105.2294866">
  <ele>1642.12</ele>
  <time>2026-08-27T18:26:15Z</time>
  <course>252.65</course>
  <speed>4.191145428161614</speed>
  <fix>3d</fix>
</trkpt>
<trkpt lat="40.074308" lon="-105.2294777">
  <ele>1642.15</ele>
  <time>2026-08-27T18:26:15Z</time>
  <course>250.91</course>
  <speed>4.21</speed>
  <fix>3d</fix>
</trkpt>
<trkpt lat="40.0743026" lon="-105.2294955">
  <ele>1641.94</ele>
  <time>2026-08-27T18:26:15Z</time>
  <course>249.34</course>
  <speed>4.169088629424901</speed>
  <fix>3d</fix>
</trkpt>
<trkpt lat="40.0743053" lon="-105.2294869">
  <ele>1642.0</ele>
  <time>2026-08-27T18:26:15Z</time>
  <course>247.56</course>
  <speed>4.18</speed>
  <fix>3d</fix>
</trkpt>
<trkpt lat="40.0742992" lon="-105.2295041">
  <ele>1641.73</ele>
  <time>2026-08-27T18:26:15Z</time>
  <course>245.94</course>
  <speed>4.153263776838645</speed>
  <fix>3d</fix>
</trkpt>
<trkpt lat="40.0743023" lon="-105.2294958">
  <ele>1641.82</ele>
  <time>2026-08-27T18:26:15Z</time>
  <course>244.14</course>
  <speed>4.15</speed>
  <fix>3d</fix>
</trkpt>
<trkpt lat="40.0742954" lon="-105.2295125">
  <ele>1641.51</ele>
  <time>2026-08-27T18:26:15Z</time>
  <course>242.47</course>
  <speed>4.1446833413422555</speed>
  <fix>3d</fix>
</trkpt>
<trkpt lat="40.0742988" lon="-105.2295044">
  <ele>1641.63</ele>
  <time>2026-08-27T18:26:15Z</time>
  <course>240.64</course>
  <speed>4.14</speed>
  <fix>3d</fix>
</trkpt>
<trkpt lat="40.0742912" lon="-105.2295205">
  <ele>1641.27</ele>
  <time>2026-08-27T18:26:15Z</time>
  <course>239.01</course>
  <speed>4.152493226966181</speed>
  <fix>3d</fix>
</trkpt>
<trkpt lat="40.074295" lon="-105.2295128">
  <ele>1641.41</ele>
  <time>2026-08-27T18:26:15Z</time>
  <course>237.07</course>
  <speed>4.14</speed>
  <fix>3d</fix>
</trkpt>
<trkpt lat="40.0742866" lon="-105.2295281">
  <ele>1641.0</ele>
  <time>2026-08-27T18:26:15Z</time>
  <course>235.3</course>
  <speed>4.147119482243067</speed>
  <fix>3d</fix>
</trkpt>
<trkpt lat="40.0742907" lon="-105.2295207">
  <ele>1641.17</ele>
  <time>2026-08-27T18:26:15Z</time>
  <course>233.44</course>
  <speed>4.15</speed>
  <fix>3d</fix>
</trkpt>
<trkpt lat="40.0742816" lon="-105.2295353">
  <ele>1640.72</ele>
  <time>2026-08-27T18:26:15Z</time>
  <course>231.38</course>
  <speed>4.130690014997494</speed>
  <fix>3d</fix>
</trkpt>
<trkpt lat="40.074286" lon="-105.2295284">
  <ele>1640.92</ele>
  <time>2026-08-27T18:26:15Z</time>
  <course>229.68</course>
  <speed>4.15</speed>
  <fix>3d</fix>
</trkpt>
<trkpt lat="40.0742763" lon="-105.229542">
  <ele>1640.43</ele>
  <time>2026-08-27T18:26:15Z</time>
  <course>227.36</course>
  <speed>4.105337988521773</speed>
  <fix>3d</fix>
</trkpt>
<trkpt lat="40.074281" lon="-105.2295356">
  <ele>1640.65</ele>
  <time>2026-08-27T18:26:15Z</time>
  <course>225.77</course>
  <speed>4.14</speed>
  <fix>3d</fix>
</trkpt>
<trkpt lat="40.0742706" lon="-105.2295482">
  <ele>1640.13</ele>
  <time>2026-08-27T18:26:15Z</time>
  <course>223.36</course>
  <speed>4.07932592470864</speed>
  <fix>3d</fix>
</trkpt>
<trkpt lat="40.0742757" lon="-105.2295423">
  <ele>1640.37</ele>
  <time>2026-08-27T18:26:15Z</time>
  <course>221.79</course>
  <speed>4.12</speed>
  <fix>3d</fix>
</trkpt>
<trkpt lat="40.0742647" lon="-105.2295539">
  <ele>1639.82</ele>
  <time>2026-08-27T18:26:15Z</time>
  <course>219.5</course>
  <speed>4.049654306234052</speed>
  <fix>3d</fix>
</trkpt>
<trkpt lat="40.0742701" lon="-105.2295485">
  <ele>1640.08</ele>
  <time>2026-08-27T18:26:15Z</time>
  <course>217.81</course>
  <speed>4.09</speed>
  <fix>3d</fix>
</trkpt>
<trkpt lat="40.0742585" lon="-105.2295589">
  <ele>1639.5</ele>
  <time>2026-08-27T18:26:15Z</time>
  <course>215.4</course>
  <speed>3.997861928581326</speed>
  <fix>3d</fix>
</trkpt>
<trkpt lat="40.0742641" lon="-105.2295541">
  <ele>1639.77</ele>
  <time>2026-08-27T18:26:15Z</time>
  <course>213.83</course>
  <speed>4.06</speed>
  <fix>3d</fix>
</trkpt>
<trkpt lat="40.0742522" lon="-105.2295633">
  <ele>1639.19</ele>
  <time>2026-08-27T18:26:15Z</time>
  <course>211.06</course>
  <speed>3.9087721857381252</speed>
  <fix>3d</fix>
</trkpt>
<trkpt lat="40.0742579" lon="-105.2295591">
  <ele>1639.46</ele>
  <time>2026-08-27T18:26:15Z</time>
  <course>209.76</course>
  <speed>4.01</speed>
  <fix>3d</fix>
</trkpt>
<trkpt lat="40.0742458" lon="-105.229567">
  <ele>1638.88</ele>
  <time>2026-08-27T18:26:15Z</time>
  <course>206.63</course>
  <speed>3.7918992602652306</speed>
  <fix>3d</fix>
</trkpt>
<trkpt lat="40.0742515" lon="-105.2295634">
  <ele>1639.15</ele>
  <time>2026-08-27T18:26:15Z</time>
  <course>205.51</course>
  <speed>3.93</speed>
  <fix>3d</fix>
</trkpt>
<trkpt lat="40.0742394" lon="-105.2295699">
  <ele>1638.57</ele>
  <time>2026-08-27T18:26:15Z</time>
  <course>202.31</course>
  <speed>3.6622670574386023</speed>
  <fix>3d</fix>
</trkpt>
<trkpt lat="40.0742451" lon="-105.2295671">
  <ele>1638.84</ele>
  <time>2026-08-27T18:26:15Z</time>
  <course>201.21</course>
  <speed>3.81</speed>
  <fix>3d</fix>
</trkpt>
<trkpt lat="40.0742331" lon="-105.2295721">
  <ele>1638.26</ele>
  <time>2026-08-27T18:26:15Z</time>
  <course>198.17</course>
  <speed>3.538714455844099</speed>
  <fix>3d</fix>
</trkpt>
<trkpt lat="40.0742388" lon="-105.22957">
  <ele>1638.53</ele>
  <time>2026-08-27T18:26:15Z</time>
  <course>196.98</course>
  <speed>3.69</speed>
  <fix>3d</fix>
</trkpt>
<trkpt lat="40.0742269" lon="-105.2295738">
  <ele>1637.95</ele>
  <time>2026-08-27T18:26:15Z</time>
  <course>194.23</course>
  <speed>3.4096920682079195</speed>
  <fix>3d</fix>
</trkpt>
<trkpt lat="40.0742325" lon="-105.2295721">
  <ele>1638.23</ele>
  <time>2026-08-27T18:26:15Z</time>
  <course>192.91</course>
  <speed>3.56</speed>
  <fix>3d</fix>
</trkpt>
<trkpt lat="40.0742209" lon="-105.2295748">
  <ele>1637.64</ele>
  <time>2026-08-27T18:26:15Z</time>
  <course>190.44</course>
  <speed>3.298620923962012</speed>
  <fix>3d</fix>
</trkpt>
<trkpt lat="40.0742263" lon="-105.2295737">
  <ele>1637.92</ele>
  <time>2026-08-27T18:26:15Z</time>
  <course>189.01</course>
  <speed>3.44</speed>
  <fix>3d</fix>
</trkpt>
<trkpt lat="40.074215" lon="-105.2295753">
  <ele>1637.33</ele>
  <time>2026-08-27T18:26:15Z</time>
  <course>186.77</course>
  <speed>3.1935246985110353</speed>
  <fix>3d</fix>
</trkpt>
<trkpt lat="40.0742203" lon="-105.2295747">
  <ele>1637.62</ele>
  <time>2026-08-27T18:26:15Z</time>
  <course>185.27</course>
  <speed>3.32</speed>
  <fix>3d</fix>
</trkpt>
<trkpt lat="40.0742093" lon="-105.2295754">
  <ele>1637.02</ele>
  <time>2026-08-27T18:26:15Z</time>
  <course>183.25</course>
  <speed>3.0901456276363417</speed>
  <fix>3d</fix>
</trkpt>
<trkpt lat="40.0742144" lon="-105.2295752">
  <ele>1637.31</ele>
  <time>2026-08-27T18:26:15Z</time>
  <course>181.7</course>
  <speed>3.21</speed>
  <fix>3d</fix>
</trkpt>
<trkpt lat="40.0742037" lon="-105.2295751">
  <ele>1636.71</ele>
  <time>2026-08-27T18:26:15Z</time>
  <course>179.98</course>
  <speed>3.0060106453570654</speed>
  <fix>3d</fix>
</trkpt>
<trkpt lat="40.0742087" lon="-105.2295752">
  <ele>1637.01</ele>
  <time>2026-08-27T18:26:15Z</time>
  <course>178.33</course>
  <speed>3.11</speed>
  <fix>3d</fix>
</trkpt>
<trkpt lat="40.0741984" lon="-105.2295744">
  <ele>1636.41</ele>
  <time>2026-08-27T18:26:15Z</time>
  <course>176.99</course>
  <speed>2.9286515668477877</speed>
  <fix>3d</fix>
</trkpt>
<trkpt lat="40.0742032" lon="-105.2295748">
  <ele>1636.71</ele>
  <time>2026-08-27T18:26:15Z</time>
  <course>175.21</course>
  <speed>3.02</speed>
  <fix>3d</fix>
</trkpt>
<trkpt lat="40.0741932" lon="-105.2295734">
  <ele>1636.1</ele>
  <time>2026-08-27T18:26:15Z</time>
  <course>174.32</course>
  <speed>2.854119829299394</speed>
  <fix>3d</fix>
</trkpt>
<trkpt lat="40.0741979" lon="-105.2295741">
  <ele>1636.41</ele>
  <time>2026-08-27T18:26:15Z</time>
  <course>172.38</course>
  <speed>2.93</speed>
  <fix>3d</fix>
</trkpt>
<trkpt lat="40.0741881" lon="-105.2295722">
  <ele>1635.8</ele>
  <time>2026-08-27T18:26:15Z</time>
  <course>172.0</course>
  <speed>2.8006070770459752</speed>
  <fix>3d</fix>
</trkpt>
<trkpt lat="40.0741928" lon="-105.229573">
  <ele>1636.11</ele>
  <time>2026-08-27T18:26:15Z</time>
  <course>169.91</course>
  <speed>2.86</speed>
  <fix>3d</fix>
</trkpt>
<trkpt lat="40.0741832" lon="-105.2295707">
  <ele>1635.5</ele>
  <time>2026-08-27T18:26:15Z</time>
  <course>170.09</course>
  <speed>2.756102320306704</speed>
  <fix>3d</fix>
</trkpt>
<trkpt lat="40.0741878" lon="-105.2295718">
  <ele>1635.81</ele>
  <time>2026-08-27T18:26:15Z</time>
  <course>167.81</course>
  <speed>2.8</speed>
  <fix>3d</fix>
</trkpt>
<trkpt lat="40.0741784" lon="-105.2295691">
  <ele>1635.2</ele>
  <time>2026-08-27T18:26:15Z</time>
  <course>168.63</course>
  <speed>2.7188416651213805</speed>
  <fix>3d</fix>
</trkpt>
<trkpt lat="40.0741828" lon="-105.2295703">
  <ele>1635.51</ele>
  <time>2026-08-27T18:26:15Z</time>
  <course>166.14</course>
  <speed>2.75</speed>
  <fix>3d</fix>
</trkpt>
<trkpt lat="40.0741737" lon="-105.2295674">
  <ele>1634.9</ele>
  <time>2026-08-27T18:26:15Z</time>
  <course>167.61</course>
  <speed>2.6971281022598834</speed>
  <fix>3d</fix>
</trkpt>
<trkpt lat="40.0741781" lon="-105.2295687">
  <ele>1635.21</ele>
  <time>2026-08-27T18:26:15Z</time>
  <course>164.95</course>
  <speed>2.71</speed>
  <fix>3d</fix>
</trkpt>
<trkpt lat="40.074169" lon="-105.2295657">
  <ele>1634.61</ele>
  <time>2026-08-27T18:26:15Z</time>
  <course>167.01</course>
  <speed>2.6803357998579207</speed>
  <fix>3d</fix>
</trkpt>
<trkpt lat="40.0741735" lon="-105.229567">
  <ele>1634.91</ele>
  <time>2026-08-27T18:26:15Z</time>
  <course>164.22</course>
  <speed>2.68</speed>
  <fix>3d</fix>
</trkpt>
<trkpt lat="40.0741644" lon="-105.229564">
  <ele>1634.31</ele>
  <time>2026-08-27T18:26:15Z</time>
  <course>166.75</course>
  <speed>2.682927505543152</speed>
  <fix>3d</fix>
</trkpt>
<trkpt lat="40.0741688" lon="-105.2295652">
  <ele>1634.62</ele>
  <time>2026-08-27T18:26:15Z</time>
  <course>163.87</course>
  <speed>2.67</speed>
  <fix>3d</fix>
</trkpt>
<trkpt lat="40.0741597" lon="-105.2295622">
  <ele>1634.02</ele>
  <time>2026-08-27T18:26:15Z</time>
  <course>166.68</course>
  <speed>2.7022398117117588</speed>
  <fix>3d</fix>
</trkpt>
<trkpt lat="40.0741643" lon="-105.2295635">
  <ele>1634.33</ele>
  <time>2026-08-27T18:26:15Z</time>
  <course>163.83</course>
  <speed>2.66</speed>
  <fix>3d</fix>
</trkpt>
<trkpt lat="40.074155" lon="-105.2295605">
  <ele>1633.72</ele>
  <time>2026-08-27T18:26:15Z</time>
  <course>166.75</course>
  <speed>2.7312268305653413</speed>
  <fix>3d</fix>
</trkpt>
<trkpt lat="40.0741596" lon="-105.2295618">
  <ele>1634.03</ele>
  <time>2026-08-27T18:26:15Z</time>
  <course>163.99</course>
  <speed>2.67</speed>
  <fix>3d</fix>
</trkpt>
<trkpt lat="40.0741503" lon="-105.2295587">
  <ele>1633.42</ele>
  <time>2026-08-27T18:26:15Z</time>
  <course>166.89</course>
  <speed>2.760235497199469</speed>
  <fix>3d</fix>
</trkpt>
<trkpt lat="40.074155" lon="-105.22956">
  <ele>1633.73</ele>
  <time>2026-08-27T18:26:15Z</time>
  <course>164.27</course>
  <speed>2.7</speed>
  <fix>3d</fix>
</trkpt>
<trkpt lat="40.0741455" lon="-105.229557">
  <ele>1633.12</ele>
  <time>2026-08-27T18:26:15Z</time>
  <course>167.04</course>
  <speed>2.8086295590554484</speed>
  <fix>3d</fix>
</trkpt>
<trkpt lat="40.0741503" lon="-105.2295583">
  <ele>1633.42</ele>
  <time>2026-08-27T18:26:15Z</time>
  <course>164.58</course>
  <speed>2.73</speed>
  <fix>3d</fix>
</trkpt>
<trkpt lat="40.0741407" lon="-105.2295553">
  <ele>1632.81</ele>
  <time>2026-08-27T18:26:15Z</time>
  <course>167.11</course>
  <speed>2.8595454184188087</speed>
  <fix>3d</fix>
</trkpt>
<trkpt lat="40.0741455" lon="-105.2295566">
  <ele>1633.13</ele>
  <time>2026-08-27T18:26:15Z</time>
  <course>164.86</course>
  <speed>2.77</speed>
  <fix>3d</fix>
</trkpt>
<trkpt lat="40.0741357" lon="-105.2295535">
  <ele>1632.51</ele>
  <time>2026-08-27T18:26:15Z</time>
  <course>167.08</course>
  <speed>2.912953827303138</speed>
  <fix>3d</fix>
</trkpt>
<trkpt lat="40.0741406" lon="-105.2295549">
  <ele>1632.83</ele>
  <time>2026-08-27T18:26:15Z</time>
  <course>165.06</course>
  <speed>2.83</speed>
  <fix>3d</fix>
</trkpt>
<trkpt lat="40.0741307" lon="-105.2295517">
  <ele>1632.21</ele>
  <time>2026-08-27T18:26:15Z</time>
  <course>166.89</course>
  <speed>2.976054434986027</speed>
  <fix>3d</fix>
</trkpt>
<trkpt lat="40.0741357" lon="-105.2295532">
  <ele>1632.53</ele>
  <time>2026-08-27T18:26:15Z</time>
  <course>165.12</course>
  <speed>2.88</speed>
  <fix>3d</fix>
</trkpt>
<trkpt lat="40.0741255" lon="-105.2295499">
  <ele>1631.92</ele>
  <time>2026-08-27T18:26:15Z</time>
  <course>166.6</course>
  <speed>3.034633421024688</speed>
  <fix>3d</fix>
</trkpt>
<trkpt lat="40.0741306" lon="-105.2295514">
  <ele>1632.23</ele>
  <time>2026-08-27T18:26:15Z</time>
  <course>165.02</course>
  <speed>2.94</speed>
  <fix>3d</fix>
</trkpt>
<trkpt lat="40.0741203" lon="-105.229548">
  <ele>1631.62</ele>
  <time>2026-08-27T18:26:15Z</time>
  <course>166.11</course>
  <speed>3.0934285186504633</speed>
  <fix>3d</fix>
</trkpt>
<trkpt lat="40.0741254" lon="-105.2295496">
  <ele>1631.93</ele>
  <time>2026-08-27T18:26:15Z</time>
  <course>164.75</course>
  <speed>3.0</speed>
  <fix>3d</fix>
</trkpt>
<trkpt lat="40.074115" lon="-105.2295459">
  <ele>1631.32</ele>
  <time>2026-08-27T18:26:15Z</time>
  <course>165.46</course>
  <speed>3.145600101729398</speed>
  <fix>3d</fix>
</trkpt>
<trkpt lat="40.0741202" lon="-105.2295477">
  <ele>1631.64</ele>
  <time>2026-08-27T18:26:15Z</time>
  <course>164.31</course>
  <speed>3.06</speed>
  <fix>3d</fix>
</trkpt>
<trkpt lat="40.0741096" lon="-105.2295438">
  <ele>1631.03</ele>
  <time>2026-08-27T18:26:15Z</time>
  <course>164.68</course>
  <speed>3.201124802315586</speed>
  <fix>3d</fix>
</trkpt>
<trkpt lat="40.0741149" lon="-105.2295457">
  <ele>1631.34</ele>
  <time>2026-08-27T18:26:15Z</time>
  <course>163.69</course>
  <speed>3.12</speed>
  <fix>3d</fix>
</trkpt>
<trkpt lat="40.0741041" lon="-105.2295415">
  <ele>1630.72</ele>
  <time>2026-08-27T18:26:15Z</time>
  <course>163.77</course>
  <speed>3.2508768048020524</speed>
  <fix>3d</fix>
</trkpt>
<trkpt lat="40.0741094" lon="-105.2295436">
  <ele>1631.04</ele>
  <time>2026-08-27T18:26:15Z</time>
  <course>162.92</course>
  <speed>3.18</speed>
  <fix>3d</fix>
</trkpt>
<trkpt lat="40.0740985" lon="-105.229539">
  <ele>1630.43</ele>
  <time>2026-08-27T18:26:15Z</time>
  <course>162.71</course>
  <speed>3.2921877224727023</speed>
  <fix>3d</fix>
</trkpt>
<trkpt lat="40.0741039" lon="-105.2295413">
  <ele>1630.74</ele>
  <time>2026-08-27T18:26:15Z</time>
  <course>162.01</course>
  <speed>3.23</speed>
  <fix>3d</fix>
</trkpt>
<trkpt lat="40.0740929" lon="-105.2295364">
  <ele>1630.13</ele>
  <time>2026-08-27T18:26:15Z</time>
  <course>161.56</course>
  <speed>3.325191723795787</speed>
  <fix>3d</fix>
</trkpt>
<trkpt lat="40.0740983" lon="-105.2295389">
  <ele>1630.45</ele>
  <time>2026-08-27T18:26:15Z</time>
  <course>160.98</course>
  <speed>3.27</speed>
  <fix>3d</fix>
</trkpt>
<trkpt lat="40.0740874" lon="-105.2295336">
  <ele>1629.84</ele>
  <time>2026-08-27T18:26:15Z</time>
  <course>160.32</course>
  <speed>3.3630046089769188</speed>
  <fix>3d</fix>
</trkpt>
<trkpt lat="40.0740928" lon="-105.2295363">
  <ele>1630.15</ele>
  <time>2026-08-27T18:26:15Z</time>
  <course>159.83</course>
  <speed>3.31</speed>
  <fix>3d</fix>
</trkpt>
<trkpt lat="40.0740818" lon="-105.2295307">
  <ele>1629.54</ele>
  <time>2026-08-27T18:26:15Z</time>
  <course>159.06</course>
  <speed>3.383858744096745</speed>
  <fix>3d</fix>
</trkpt>
<trkpt lat="40.0740871" lon="-105.2295335">
  <ele>1629.85</ele>
  <time>2026-08-27T18:26:15Z</time>
  <course>158.61</course>
  <speed>3.35</speed>
  <fix>3d</fix>
</trkpt>
<trkpt lat="40.0740762" lon="-105.2295275">
  <ele>1629.24</ele>
  <time>2026-08-27T18:26:15Z</time>
  <course>157.72</course>
  <speed>3.415625857730908</speed>
  <fix>3d</fix>
</trkpt>
<trkpt lat="40.0740816" lon="-105.2295306">
  <ele>1629.56</ele>
  <time>2026-08-27T18:26:15Z</time>
  <course>157.33</course>
  <speed>3.38</speed>
  <fix>3d</fix>
</trkpt>
<trkpt lat="40.0740706" lon="-105.2295242">
  <ele>1628.95</ele>
  <time>2026-08-27T18:26:15Z</time>
  <course>156.36</course>
  <speed>3.4351710292211073</speed>
  <fix>3d</fix>
</trkpt>
<trkpt lat="40.074076" lon="-105.2295274">
  <ele>1629.26</ele>
  <time>2026-08-27T18:26:15Z</time>
  <course>156.02</course>
  <speed>3.4</speed>
  <fix>3d</fix>
</trkpt>
<trkpt lat="40.0740651" lon="-105.2295207">
  <ele>1628.65</ele>
  <time>2026-08-27T18:26:15Z</time>
  <course>155.01</course>
  <speed>3.448028422156639</speed>
  <fix>3d</fix>
</trkpt>
<trkpt lat="40.0740703" lon="-105.229524">
  <ele>1628.96</ele>
  <time>2026-08-27T18:26:15Z</time>
  <course>154.7</course>
  <speed>3.43</speed>
  <fix>3d</fix>
</trkpt>
<trkpt lat="40.0740596" lon="-105.229517">
  <ele>1628.36</ele>
  <time>2026-08-27T18:26:15Z</time>
  <course>153.69</course>
  <speed>3.4670592726401437</speed>
  <fix>3d</fix>
</trkpt>
<trkpt lat="40.0740648" lon="-105.2295205">
  <ele>1628.66</ele>
  <time>2026-08-27T18:26:15Z</time>
  <course>153.39</course>
  <speed>3.45</speed>
  <fix>3d</fix>
</trkpt>
<trkpt lat="40.0740541" lon="-105.2295131">
  <ele>1628.06</ele>
  <time>2026-08-27T18:26:15Z</time>
  <course>152.45</course>
  <speed>3.4830446451344836</speed>
  <fix>3d</fix>
</trkpt>
<trkpt lat="40.0740593" lon="-105.2295168">
  <ele>1628.36</ele>
  <time>2026-08-27T18:26:15Z</time>
  <course>152.11</course>
  <speed>3.47</speed>
  <fix>3d</fix>
</trkpt>
<trkpt lat="40.0740486" lon="-105.229509">
  <ele>1627.76</ele>
  <time>2026-08-27T18:26:15Z</time>
  <course>151.22</course>
  <speed>3.500471396826433</speed>
  <fix>3d</fix>
</trkpt>
<trkpt lat="40.0740538" lon="-105.2295129">
  <ele>1628.06</ele>
  <time>2026-08-27T18:26:15Z</time>
  <course>150.88</course>
  <speed>3.49</speed>
  <fix>3d</fix>
</trkpt>
<trkpt lat="40.0740432" lon="-105.2295047">
  <ele>1627.46</ele>
  <time>2026-08-27T18:26:15Z</time>
  <course>150.09</course>
  <speed>3.5193181157718607</speed>
  <fix>3d</fix>
</trkpt>
<trkpt lat="40.0740483" lon="-105.2295088">
  <ele>1627.76</ele>
  <time>2026-08-27T18:26:15Z</time>
  <course>149.72</course>
  <speed>3.5</speed>
  <fix>3d</fix>
</trkpt>
<trkpt lat="40.0740378" lon="-105.2295004">
  <ele>1627.15</ele>
  <time>2026-08-27T18:26:15Z</time>
  <course>149.03</course>
  <speed>3.5288099977187777</speed>
  <fix>3d</fix>
</trkpt>
<trkpt lat="40.0740428" lon="-105.2295046">
  <ele>1627.45</ele>
  <time>2026-08-27T18:26:15Z</time>
  <course>148.64</course>
  <speed>3.52</speed>
  <fix>3d</fix>
</trkpt>
<trkpt lat="40.0740325" lon="-105.2294959">
  <ele>1626.85</ele>
  <time>2026-08-27T18:26:15Z</time>
  <course>148.05</course>
  <speed>3.539095929753812</speed>
  <fix>3d</fix>
</trkpt>
<trkpt lat="40.0740375" lon="-105.2295002">
  <ele>1627.15</ele>
  <time>2026-08-27T18:26:15Z</time>
  <course>147.65</course>
  <speed>3.53</speed>
  <fix>3d</fix>
</trkpt>
<trkpt lat="40.0740272" lon="-105.2294913">
  <ele>1626.54</ele>
  <time>2026-08-27T18:26:15Z</time>
  <course>147.2</course>
  <speed>3.5501690100613517</speed>
  <fix>3d</fix>
</trkpt>
<trkpt lat="40.0740322" lon="-105.2294957">
  <ele>1626.85</ele>
  <time>2026-08-27T18:26:15Z</time>
  <course>146.76</course>
  <speed>3.54</speed>
  <fix>3d</fix>
</trkpt>
<trkpt lat="40.0740219" lon="-105.2294866">
  <ele>1626.24</ele>
  <time>2026-08-27T18:26:15Z</time>
  <course>146.46</course>
  <speed>3.5645196029759747</speed>
  <fix>3d</fix>
</trkpt>
<trkpt lat="40.0740268" lon="-105.2294911">
  <ele>1626.55</ele>
  <time>2026-08-27T18:26:15Z</time>
  <course>145.96</course>
  <speed>3.56</speed>
  <fix>3d</fix>
</trkpt>
<trkpt lat="40.0740166" lon="-105.2294818">
  <ele>1625.94</ele>
  <time>2026-08-27T18:26:15Z</time>
  <course>145.8</course>
  <speed>3.5792876386230823</speed>
  <fix>3d</fix>
</trkpt>
<trkpt lat="40.0740215" lon="-105.2294864">
  <ele>1626.25</ele>
  <time>2026-08-27T18:26:15Z</time>
  <course>145.28</course>
  <speed>3.57</speed>
  <fix>3d</fix>
</trkpt>
<trkpt lat="40.0740114" lon="-105.229477">
  <ele>1625.64</ele>
  <time>2026-08-27T18:26:15Z</time>
  <course>145.28</course>
  <speed>3.588606972071475</speed>
  <fix>3d</fix>
</trkpt>
<trkpt lat="40.0740163" lon="-105.2294815">
  <ele>1625.95</ele>
  <time>2026-08-27T18:26:15Z</time>
  <course>144.71</course>
  <speed>3.58</speed>
  <fix>3d</fix>
</trkpt>
<trkpt lat="40.0740062" lon="-105.229472">
  <ele>1625.34</ele>
  <time>2026-08-27T18:26:15Z</time>
  <course>144.86</course>
  <speed>3.600347205478938</speed>
  <fix>3d</fix>
</trkpt>
<trkpt lat="40.074011" lon="-105.2294766">
  <ele>1625.65</ele>
  <time>2026-08-27T18:26:15Z</time>
  <course>144.25</course>
  <speed>3.6</speed>
  <fix>3d</fix>
</trkpt>
<trkpt lat="40.074001" lon="-105.229467">
  <ele>1625.04</ele>
  <time>2026-08-27T18:26:15Z</time>
  <course>144.55</course>
  <speed>3.6121600186038267</speed>
  <fix>3d</fix>
</trkpt>
<trkpt lat="40.0740057" lon="-105.2294717">
  <ele>1625.35</ele>
  <time>2026-08-27T18:26:15Z</time>
  <course>143.88</course>
  <speed>3.61</speed>
  <fix>3d</fix>
</trkpt>
<trkpt lat="40.0739957" lon="-105.229462">
  <ele>1624.75</ele>
  <time>2026-08-27T18:26:15Z</time>
  <course>144.32</course>
  <speed>3.624044701711059</speed>
  <fix>3d</fix>
</trkpt>
<trkpt lat="40.0740006" lon="-105.2294666">
  <ele>1625.05</ele>
  <time>2026-08-27T18:26:15Z</time>
  <course>143.61</course>
  <speed>3.62</speed>
  <fix>3d</fix>
</trkpt>
<trkpt lat="40.0739904" lon="-105.2294569">
  <ele>1624.45</ele>
  <time>2026-08-27T18:26:15Z</time>
  <course>144.18</course>
  <speed>3.6300137740785505</speed>
  <fix>3d</fix>
</trkpt>
<trkpt lat="40.0739953" lon="-105.2294616">
  <ele>1624.75</ele>
  <time>2026-08-27T18:26:15Z</time>
  <course>143.43</course>
  <speed>3.63</speed>
  <fix>3d</fix>
</trkpt>
<trkpt lat="40.0739852" lon="-105.2294517">
  <ele>1624.15</ele>
  <time>2026-08-27T18:26:15Z</time>
  <course>144.12</course>
  <speed>3.638035183996988</speed>
  <fix>3d</fix>
</trkpt>
<trkpt lat="40.0739901" lon="-105.2294565">
  <ele>1624.45</ele>
  <time>2026-08-27T18:26:15Z</time>
  <course>143.33</course>
  <speed>3.64</speed>
  <fix>3d</fix>
</trkpt>
<trkpt lat="40.0739799" lon="-105.2294466">
  <ele>1623.85</ele>
  <time>2026-08-27T18:26:15Z</time>
  <course>144.09</course>
  <speed>3.6520268345125833</speed>
  <fix>3d</fix>
</trkpt>
<trkpt lat="40.0739848" lon="-105.2294513">
  <ele>1624.15</ele>
  <time>2026-08-27T18:26:15Z</time>
  <course>143.29</course>
  <speed>3.65</speed>
  <fix>3d</fix>
</trkpt>
<trkpt lat="40.0739746" lon="-105.2294415">
  <ele>1623.56</ele>
  <time>2026-08-27T18:26:15Z</time>
  <course>144.1</course>
  <speed>3.660054644400818</speed>
  <fix>3d</fix>
</trkpt>
<trkpt lat="40.0739795" lon="-105.2294462">
  <ele>1623.85</ele>
  <time>2026-08-27T18:26:15Z</time>
  <course>143.31</course>
  <speed>3.66</speed>
  <fix>3d</fix>
</trkpt>
<trkpt lat="40.0739693" lon="-105.2294363">
  <ele>1623.26</ele>
  <time>2026-08-27T18:26:15Z</time>
  <course>144.19</course>
  <speed>3.668092147152249</speed>
  <fix>3d</fix>
</trkpt>
<trkpt lat="40.0739742" lon="-105.2294411">
  <ele>1623.55</ele>
  <time>2026-08-27T18:26:15Z</time>
  <course>143.36</course>
  <speed>3.67</speed>
  <fix>3d</fix>
</trkpt>
<trkpt lat="40.073964" lon="-105.2294312">
  <ele>1622.96</ele>
  <time>2026-08-27T18:26:15Z</time>
  <course>144.26</course>
  <speed>3.6761392791895138</speed>
  <fix>3d</fix>
</trkpt>
<trkpt lat="40.0739689" lon="-105.2294359">
  <ele>1623.24</ele>
  <time>2026-08-27T18:26:15Z</time>
  <course>143.44</course>
  <speed>3.68</speed>
  <fix>3d</fix>
</trkpt>
<trkpt lat="40.0739587" lon="-105.229426">
  <ele>1622.66</ele>
  <time>2026-08-27T18:26:15Z</time>
  <course>144.36</course>
  <speed>3.6841959774148823</speed>
  <fix>3d</fix>
</trkpt>
<trkpt lat="40.0739636" lon="-105.2294307">
  <ele>1622.94</ele>
  <time>2026-08-27T18:26:15Z</time>
  <course>143.54</course>
  <speed>3.68</speed>
  <fix>3d</fix>
</trkpt>
<trkpt lat="40.0739533" lon="-105.2294209">
  <ele>1622.36</ele>
  <time>2026-08-27T18:26:16Z</time>
  <course>144.48</course>
  <speed>3.678287645087045</speed>
  <fix>3d</fix>
</trkpt>
<trkpt lat="40.0739583" lon="-105.2294256">
  <ele>1622.64</ele>
  <time>2026-08-27T18:26:16Z</time>
  <course>143.67</course>
  <speed>3.69</speed>
  <fix>3d</fix>
</trkpt>
<trkpt lat="40.073948" lon="-105.2294158">
  <ele>1622.06</ele>
  <time>2026-08-27T18:26:16Z</time>
  <course>144.6</course>
  <speed>3.686366775023885</speed>
  <fix>3d</fix>
</trkpt>
<trkpt lat="40.0739529" lon="-105.2294205">
  <ele>1622.34</ele>
  <time>2026-08-27T18:26:16Z</time>
  <course>143.81</course>
  <speed>3.69</speed>
  <fix>3d</fix>
</trkpt>
<trkpt lat="40.0739426" lon="-105.2294107">
  <ele>1621.76</ele>
  <time>2026-08-27T18:26:16Z</time>
  <course>144.72</course>
  <speed>3.694455304913026</speed>
  <fix>3d</fix>
</trkpt>
<trkpt lat="40.0739475" lon="-105.2294154">
  <ele>1622.04</ele>
  <time>2026-08-27T18:26:16Z</time>
  <course>143.94</course>
  <speed>3.7</speed>
  <fix>3d</fix>
</trkpt>
<trkpt lat="40.0739372" lon="-105.2294056">
  <ele>1621.45</ele>
  <time>2026-08-27T18:26:16Z</time>
  <course>144.82</course>
  <speed>3.6967012321798474</speed>
  <fix>3d</fix>
</trkpt>
<trkpt lat="40.0739422" lon="-105.2294103">
  <ele>1621.73</ele>
  <time>2026-08-27T18:26:16Z</time>
  <course>144.06</course>
  <speed>3.7</speed>
  <fix>3d</fix>
</trkpt>
<trkpt lat="40.0739317" lon="-105.2294005">
  <ele>1621.14</ele>
  <time>2026-08-27T18:26:16Z</time>
  <course>144.89</course>
  <speed>3.6967012321798474</speed>
  <fix>3d</fix>
</trkpt>
<trkpt lat="40.0739368" lon="-105.2294052">
  <ele>1621.42</ele>
  <time>2026-08-27T18:26:16Z</time>
  <course>144.16</course>
  <speed>3.71</speed>
  <fix>3d</fix>
</trkpt>
<trkpt lat="40.0739263" lon="-105.2293954">
  <ele>1620.84</ele>
  <time>2026-08-27T18:26:16Z</time>
  <course>144.93</course>
  <speed>3.6967012321798474</speed>
  <fix>3d</fix>
</trkpt>
<trkpt lat="40.0739313" lon="-105.2294">
  <ele>1621.13</ele>
  <time>2026-08-27T18:26:16Z</time>
  <course>144.24</course>
  <speed>3.71</speed>
  <fix>3d</fix>
</trkpt>
<trkpt lat="40.0739209" lon="-105.2293903">
  <ele>1620.53</ele>
  <time>2026-08-27T18:26:16Z</time>
  <course>144.98</course>
  <speed>3.6908671067921155</speed>
  <fix>3d</fix>
</trkpt>
<trkpt lat="40.073926" lon="-105.2293949">
  <ele>1620.83</ele>
  <time>2026-08-27T18:26:16Z</time>
  <course>144.31</course>
  <speed>3.71</speed>
  <fix>3d</fix>
</trkpt>
<trkpt lat="40.0739155" lon="-105.2293852">
  <ele>1620.23</ele>
  <time>2026-08-27T18:26:16Z</time>
  <course>145.02</course>
  <speed>3.6908671067921155</speed>
  <fix>3d</fix>
</trkpt>
<trkpt lat="40.0739205" lon="-105.2293899">
  <ele>1620.53</ele>
  <time>2026-08-27T18:26:16Z</time>
  <course>144.36</course>
  <speed>3.7</speed>
  <fix>3d</fix>
</trkpt>
<trkpt lat="40.0739101" lon="-105.2293802">
  <ele>1619.93</ele>
  <time>2026-08-27T18:26:16Z</time>
  <course>145.05</course>
  <speed>3.6850508816025864</speed>
  <fix>3d</fix>
</trkpt>
<trkpt lat="40.073915" lon="-105.2293848">
  <ele>1620.23</ele>
  <time>2026-08-27T18:26:16Z</time>
  <course>144.41</course>
  <speed>3.7</speed>
  <fix>3d</fix>
</trkpt>
<trkpt lat="40.0739047" lon="-105.2293751">
  <ele>1619.63</ele>
  <time>2026-08-27T18:26:16Z</time>
  <course>145.06</course>
  <speed>3.6850508816025864</speed>
  <fix>3d</fix>
</trkpt>
<trkpt lat="40.0739097" lon="-105.2293798">
  <ele>1619.92</ele>
  <time>2026-08-27T18:26:16Z</time>
  <course>144.44</course>
  <speed>3.7</speed>
  <fix>3d</fix>
</trkpt>
<trkpt lat="40.0738993" lon="-105.2293701">
  <ele>1619.34</ele>
  <time>2026-08-27T18:26:16Z</time>
  <course>145.11</course>
  <speed>3.671103376370652</speed>
  <fix>3d</fix>
</trkpt>
<trkpt lat="40.0739042" lon="-105.2293747">
  <ele>1619.63</ele>
  <time>2026-08-27T18:26:16Z</time>
  <course>144.48</course>
  <speed>3.69</speed>
  <fix>3d</fix>
</trkpt>
<trkpt lat="40.073894" lon="-105.2293651">
  <ele>1619.04</ele>
  <time>2026-08-27T18:26:16Z</time>
  <course>145.16</course>
  <speed>3.6653103552086828</speed>
  <fix>3d</fix>
</trkpt>
<trkpt lat="40.0738989" lon="-105.2293697">
  <ele>1619.34</ele>
  <time>2026-08-27T18:26:16Z</time>
  <course>144.52</course>
  <speed>3.69</speed>
  <fix>3d</fix>
</trkpt>
<trkpt lat="40.0738886" lon="-105.2293601">
  <ele>1618.74</ele>
  <time>2026-08-27T18:26:16Z</time>
  <course>145.21</course>
  <speed>3.6653103552086828</speed>
  <fix>3d</fix>
</trkpt>
<trkpt lat="40.0738934" lon="-105.2293646">
  <ele>1619.04</ele>
  <time>2026-08-27T18:26:16Z</time>
  <course>144.57</course>
  <speed>3.68</speed>
  <fix>3d</fix>
</trkpt>
<trkpt lat="40.0738832" lon="-105.2293552">
  <ele>1618.45</ele>
  <time>2026-08-27T18:26:16Z</time>
  <course>145.27</course>
  <speed>3.651369606051954</speed>
  <fix>3d</fix>
</trkpt>
<trkpt lat="40.0738881" lon="-105.2293597">
  <ele>1618.74</ele>
  <time>2026-08-27T18:26:16Z</time>
  <course>144.62</course>
  <speed>3.67</speed>
  <fix>3d</fix>
</trkpt>
<trkpt lat="40.0738778" lon="-105.2293502">
  <ele>1618.15</ele>
  <time>2026-08-27T18:26:16Z</time>
  <course>145.33</course>
  <speed>3.645600087777045</speed>
  <fix>3d</fix>
</trkpt>
<trkpt lat="40.0738827" lon="-105.2293546">
  <ele>1618.45</ele>
  <time>2026-08-27T18:26:16Z</time>
  <course>144.68</course>
  <speed>3.66</speed>
  <fix>3d</fix>
</trkpt>
<trkpt lat="40.0738724" lon="-105.2293452">
  <ele>1617.85</ele>
  <time>2026-08-27T18:26:16Z</time>
  <course>145.42</course>
  <speed>3.6316662842282192</speed>
  <fix>3d</fix>
</trkpt>
<trkpt lat="40.0738774" lon="-105.2293497">
  <ele>1618.15</ele>
  <time>2026-08-27T18:26:16Z</time>
  <course>144.76</course>
  <speed>3.66</speed>
  <fix>3d</fix>
</trkpt>
<trkpt lat="40.073867" lon="-105.2293403">
  <ele>1617.55</ele>
  <time>2026-08-27T18:26:16Z</time>
  <course>145.54</course>
  <speed>3.620193365001378</speed>
  <fix>3d</fix>
</trkpt>
<trkpt lat="40.0738719" lon="-105.2293448">
  <ele>1617.85</ele>
  <time>2026-08-27T18:26:16Z</time>
  <course>144.87</course>
  <speed>3.65</speed>
  <fix>3d</fix>
</trkpt>
<trkpt lat="40.0738617" lon="-105.2293354">
  <ele>1617.25</ele>
  <time>2026-08-27T18:26:16Z</time>
  <course>145.72</course>
  <speed>3.6005693994144874</speed>
  <fix>3d</fix>
</trkpt>
<trkpt lat="40.0738666" lon="-105.2293398">
  <ele>1617.55</ele>
  <time>2026-08-27T18:26:16Z</time>
  <course>145.0</course>
  <speed>3.63</speed>
  <fix>3d</fix>
</trkpt>
<trkpt lat="40.0738563" lon="-105.2293306">
  <ele>1616.96</ele>
  <time>2026-08-27T18:26:16Z</time>
  <course>145.92</course>
  <speed>3.5892199709686223</speed>
  <fix>3d</fix>
</trkpt>
<trkpt lat="40.0738613" lon="-105.2293349">
  <ele>1617.25</ele>
  <time>2026-08-27T18:26:16Z</time>
  <course>145.18</course>
  <speed>3.62</speed>
  <fix>3d</fix>
</trkpt>
<trkpt lat="40.073851" lon="-105.2293258">
  <ele>1616.65</ele>
  <time>2026-08-27T18:26:16Z</time>
  <course>146.14</course>
  <speed>3.5696778566139553</speed>
  <fix>3d</fix>
</trkpt>
<trkpt lat="40.0738559" lon="-105.2293301">
  <ele>1616.95</ele>
  <time>2026-08-27T18:26:16Z</time>
  <course>145.39</course>
  <speed>3.6</speed>
  <fix>3d</fix>
</trkpt>
<trkpt lat="40.0738457" lon="-105.2293211">
  <ele>1616.35</ele>
  <time>2026-08-27T18:26:16Z</time>
  <course>146.4</course>
  <speed>3.5584547208022754</speed>
  <fix>3d</fix>
</trkpt>
<trkpt lat="40.0738506" lon="-105.2293253">
  <ele>1616.65</ele>
  <time>2026-08-27T18:26:16Z</time>
  <course>145.63</course>
  <speed>3.59</speed>
  <fix>3d</fix>
</trkpt>
<trkpt lat="40.0738404" lon="-105.2293164">
  <ele>1616.05</ele>
  <time>2026-08-27T18:26:16Z</time>
  <course>146.7</course>
  <speed>3.5417650966714325</speed>
  <fix>3d</fix>
</trkpt>
<trkpt lat="40.0738453" lon="-105.2293206">
  <ele>1616.35</ele>
  <time>2026-08-27T18:26:16Z</time>
  <course>145.93</course>
  <speed>3.57</speed>
  <fix>3d</fix>
</trkpt>
<trkpt lat="40.0738351" lon="-105.2293118">
  <ele>1615.75</ele>
  <time>2026-08-27T18:26:16Z</time>
  <course>147.04</course>
  <speed>3.525251764058845</speed>
  <fix>3d</fix>
</trkpt>
<trkpt lat="40.0738399" lon="-105.2293159">
  <ele>1616.05</ele>
  <time>2026-08-27T18:26:16Z</time>
  <course>146.27</course>
  <speed>3.55</speed>
  <fix>3d</fix>
</trkpt>
<trkpt lat="40.0738298" lon="-105.2293073">
  <ele>1615.45</ele>
  <time>2026-08-27T18:26:16Z</time>
  <course>147.44</course>
  <speed>3.5089172119045497</speed>
  <fix>3d</fix>
</trkpt>
<trkpt lat="40.0738346" lon="-105.2293114">
  <ele>1615.75</ele>
  <time>2026-08-27T18:26:16Z</time>
  <course>146.65</course>
  <speed>3.54</speed>
  <fix>3d</fix>
</trkpt>
<trkpt lat="40.0738244" lon="-105.2293028">
  <ele>1615.15</ele>
  <time>2026-08-27T18:26:16Z</time>
  <course>147.93</course>
  <speed>3.4927639485084017</speed>
  <fix>3d</fix>
</trkpt>
<trkpt lat="40.0738293" lon="-105.2293068">
  <ele>1615.45</ele>
  <time>2026-08-27T18:26:16Z</time>
  <course>147.07</course>
  <speed>3.52</speed>
  <fix>3d</fix>
</trkpt>
<trkpt lat="40.0738191" lon="-105.2292984">
  <ele>1614.85</ele>
  <time>2026-08-27T18:26:16Z</time>
  <course>148.4</course>
  <speed>3.4715126386058284</speed>
  <fix>3d</fix>
</trkpt>
<trkpt lat="40.073824" lon="-105.2293024">
  <ele>1615.15</ele>
  <time>2026-08-27T18:26:16Z</time>
  <course>147.53</course>
  <speed>3.5</speed>
  <fix>3d</fix>
</trkpt>
<trkpt lat="40.0738138" lon="-105.2292941">
  <ele>1614.55</ele>
  <time>2026-08-27T18:26:16Z</time>
  <course>148.92</course>
  <speed>3.459147293770533</speed>
  <fix>3d</fix>
</trkpt>
<trkpt lat="40.0738187" lon="-105.229298">
  <ele>1614.85</ele>
  <time>2026-08-27T18:26:16Z</time>
  <course>148.04</course>
  <speed>3.48</speed>
  <fix>3d</fix>
</trkpt>
<trkpt lat="40.0738084" lon="-105.2292899">
  <ele>1614.25</ele>
  <time>2026-08-27T18:26:16Z</time>
  <course>149.5</course>
  <speed>3.4386189088062666</speed>
  <fix>3d</fix>
</trkpt>
<trkpt lat="40.0738133" lon="-105.2292937">
  <ele>1614.55</ele>
  <time>2026-08-27T18:26:16Z</time>
  <course>148.58</course>
  <speed>3.47</speed>
  <fix>3d</fix>
</trkpt>
<trkpt lat="40.0738031" lon="-105.2292858">
  <ele>1613.94</ele>
  <time>2026-08-27T18:26:16Z</time>
  <course>150.12</course>
  <speed>3.4184353145847295</speed>
  <fix>3d</fix>
</trkpt>
<trkpt lat="40.073808" lon="-105.2292894">
  <ele>1614.25</ele>
  <time>2026-08-27T18:26:16Z</time>
  <course>149.17</course>
  <speed>3.45</speed>
  <fix>3d</fix>
</trkpt>
<trkpt lat="40.0737977" lon="-105.2292818">
  <ele>1613.64</ele>
  <time>2026-08-27T18:26:16Z</time>
  <course>150.76</course>
  <speed>3.393700045672864</speed>
  <fix>3d</fix>
</trkpt>
<trkpt lat="40.0738027" lon="-105.2292854">
  <ele>1613.95</ele>
  <time>2026-08-27T18:26:16Z</time>
  <course>149.8</course>
  <speed>3.43</speed>
  <fix>3d</fix>
</trkpt>
<trkpt lat="40.0737924" lon="-105.2292779">
  <ele>1613.34</ele>
  <time>2026-08-27T18:26:16Z</time>
  <course>151.45</course>
  <speed>3.38309030325825</speed>
  <fix>3d</fix>
</trkpt>
<trkpt lat="40.0737974" lon="-105.2292813">
  <ele>1613.65</ele>
  <time>2026-08-27T18:26:16Z</time>
  <course>150.47</course>
  <speed>3.41</speed>
  <fix>3d</fix>
</trkpt>
<trkpt lat="40.073787" lon="-105.2292741">
  <ele>1613.04</ele>
  <time>2026-08-27T18:26:16Z</time>
  <course>152.17</course>
  <speed>3.359434476217686</speed>
  <fix>3d</fix>
</trkpt>
<trkpt lat="40.073792" lon="-105.2292775">
  <ele>1613.35</ele>
  <time>2026-08-27T18:26:16Z</time>
  <course>151.17</course>
  <speed>3.39</speed>
  <fix>3d</fix>
</trkpt>
<trkpt lat="40.0737817" lon="-105.2292704">
  <ele>1612.75</ele>
  <time>2026-08-27T18:26:16Z</time>
  <course>152.93</course>
  <speed>3.3363602922945836</speed>
  <fix>3d</fix>
</trkpt>
<trkpt lat="40.0737867" lon="-105.2292737">
  <ele>1613.05</ele>
  <time>2026-08-27T18:26:16Z</time>
  <course>151.92</course>
  <speed>3.36</speed>
  <fix>3d</fix>
</trkpt>
<trkpt lat="40.0737764" lon="-105.2292669">
  <ele>1612.45</ele>
  <time>2026-08-27T18:26:16Z</time>
  <course>153.74</course>
  <speed>3.3138799012637743</speed>
  <fix>3d</fix>
</trkpt>
<trkpt lat="40.0737814" lon="-105.2292701">
  <ele>1612.76</ele>
  <time>2026-08-27T18:26:16Z</time>
  <course>152.7</course>
  <speed>3.34</speed>
  <fix>3d</fix>
</trkpt>
<trkpt lat="40.073771" lon="-105.2292634">
  <ele>1612.15</ele>
  <time>2026-08-27T18:26:16Z</time>
  <course>154.59</course>
  <speed>3.287704366271396</speed>
  <fix>3d</fix>
</trkpt>
<trkpt lat="40.073776" lon="-105.2292665">
  <ele>1612.46</ele>
  <time>2026-08-27T18:26:16Z</time>
  <course>153.52</course>
  <speed>3.32</speed>
  <fix>3d</fix>
</trkpt>
<trkpt lat="40.0737656" lon="-105.2292601">
  <ele>1611.86</ele>
  <time>2026-08-27T18:26:16Z</time>
  <course>155.46</course>
  <speed>3.266573127912492</speed>
  <fix>3d</fix>
</trkpt>
<trkpt lat="40.0737707" lon="-105.2292631">
  <ele>1612.16</ele>
  <time>2026-08-27T18:26:16Z</time>
  <course>154.37</course>
  <speed>3.3</speed>
  <fix>3d</fix>
</trkpt>
<trkpt lat="40.0737603" lon="-105.229257">
  <ele>1611.56</ele>
  <time>2026-08-27T18:26:16Z</time>
  <course>156.38</course>
  <speed>3.251215157444982</speed>
  <fix>3d</fix>
</trkpt>
<trkpt lat="40.0737653" lon="-105.2292598">
  <ele>1611.86</ele>
  <time>2026-08-27T18:26:16Z</time>
  <course>155.26</course>
  <speed>3.27</speed>
  <fix>3d</fix>
</trkpt>
<trkpt lat="40.0737549" lon="-105.2292539">
  <ele>1611.26</ele>
  <time>2026-08-27T18:26:16Z</time>
  <course>157.31</course>
  <speed>3.227692674341843</speed>
  <fix>3d</fix>
</trkpt>
<trkpt lat="40.0737599" lon="-105.2292566">
  <ele>1611.56</ele>
  <time>2026-08-27T18:26:16Z</time>
  <course>156.19</course>
  <speed>3.25</speed>
  <fix>3d</fix>
</trkpt>
<trkpt lat="40.0737496" lon="-105.2292511">
  <ele>1610.96</ele>
  <time>2026-08-27T18:26:16Z</time>
  <course>158.28</course>
  <speed>3.2051209025557834</speed>
  <fix>3d</fix>
</trkpt>
<trkpt lat="40.0737546" lon="-105.2292536">
  <ele>1611.26</ele>
  <time>2026-08-27T18:26:16Z</time>
  <course>157.15</course>
  <speed>3.23</speed>
  <fix>3d</fix>
</trkpt>
<trkpt lat="40.0737442" lon="-105.2292483">
  <ele>1610.66</ele>
  <time>2026-08-27T18:26:16Z</time>
  <course>159.31</course>
  <speed>3.1835200643313057</speed>
  <fix>3d</fix>
</trkpt>
<trkpt lat="40.0737493" lon="-105.2292507">
  <ele>1610.95</ele>
  <time>2026-08-27T18:26:16Z</time>
  <course>158.15</course>
  <speed>3.21</speed>
  <fix>3d</fix>
</trkpt>
<trkpt lat="40.0737389" lon="-105.2292457">
  <ele>1610.36</ele>
  <time>2026-08-27T18:26:16Z</time>
  <course>160.33</course>
  <speed>3.1629100524675056</speed>
  <fix>3d</fix>
</trkpt>
<trkpt lat="40.0737438" lon="-105.229248">
  <ele>1610.65</ele>
  <time>2026-08-27T18:26:16Z</time>
  <course>159.18</course>
  <speed>3.19</speed>
  <fix>3d</fix>
</trkpt>
<trkpt lat="40.0737335" lon="-105.2292433">
  <ele>1610.06</ele>
  <time>2026-08-27T18:26:16Z</time>
  <course>161.4</course>
  <speed>3.1496348994764456</speed>
  <fix>3d</fix>
</trkpt>
<trkpt lat="40.0737385" lon="-105.2292454">
  <ele>1610.35</ele>
  <time>2026-08-27T18:26:16Z</time>
  <course>160.25</course>
  <speed>3.17</speed>
  <fix>3d</fix>
</trkpt>
<trkpt lat="40.0737282" lon="-105.229241">
  <ele>1609.75</ele>
  <time>2026-08-27T18:26:16Z</time>
  <course>162.53</course>
  <speed>3.1312936623702354</speed>
  <fix>3d</fix>
</trkpt>
<trkpt lat="40.0737331" lon="-105.229243">
  <ele>1610.05</ele>
  <time>2026-08-27T18:26:16Z</time>
  <course>161.35</course>
  <speed>3.15</speed>
  <fix>3d</fix>
</trkpt>
<trkpt lat="40.0737228" lon="-105.2292389">
  <ele>1609.45</ele>
  <time>2026-08-27T18:26:16Z</time>
  <course>163.67</course>
  <speed>3.111221625021271</speed>
  <fix>3d</fix>
</trkpt>
<trkpt lat="40.0737278" lon="-105.2292406">
  <ele>1609.75</ele>
  <time>2026-08-27T18:26:16Z</time>
  <course>162.49</course>
  <speed>3.14</speed>
  <fix>3d</fix>
</trkpt>
<trkpt lat="40.0737174" lon="-105.2292369">
  <ele>1609.15</ele>
  <time>2026-08-27T18:26:16Z</time>
  <course>164.87</course>
  <speed>3.092604080706096</speed>
  <fix>3d</fix>
</trkpt>
<trkpt lat="40.0737223" lon="-105.2292385">
  <ele>1609.44</ele>
  <time>2026-08-27T18:26:16Z</time>
  <course>163.66</course>
  <speed>3.12</speed>
  <fix>3d</fix>
</trkpt>
<trkpt lat="40.073712" lon="-105.229235">
  <ele>1608.85</ele>
  <time>2026-08-27T18:26:16Z</time>
  <course>166.09</course>
  <speed>3.087539473431878</speed>
  <fix>3d</fix>
</trkpt>
<trkpt lat="40.073717" lon="-105.2292365">
  <ele>1609.14</ele>
  <time>2026-08-27T18:26:16Z</time>
  <course>164.88</course>
  <speed>3.11</speed>
  <fix>3d</fix>
</trkpt>
<trkpt lat="40.0737066" lon="-105.2292333">
  <ele>1608.55</ele>
  <time>2026-08-27T18:26:16Z</time>
  <course>167.37</course>
  <speed>3.0696090956341657</speed>
  <fix>3d</fix>
</trkpt>
<trkpt lat="40.0737115" lon="-105.2292347">
  <ele>1608.84</ele>
  <time>2026-08-27T18:26:16Z</time>
  <course>166.13</course>
  <speed>3.09</speed>
  <fix>3d</fix>
</trkpt>
<trkpt lat="40.0737012" lon="-105.2292318">
  <ele>1608.25</ele>
  <time>2026-08-27T18:26:16Z</time>
  <course>168.69</course>
  <speed>3.055552323230614</speed>
  <fix>3d</fix>
</trkpt>
<trkpt lat="40.0737062" lon="-105.229233">
  <ele>1608.54</ele>
  <time>2026-08-27T18:26:16Z</time>
  <course>167.42</course>
  <speed>3.08</speed>
  <fix>3d</fix>
</trkpt>
<trkpt lat="40.0736958" lon="-105.2292305">
  <ele>1607.95</ele>
  <time>2026-08-27T18:26:16Z</time>
  <course>170.05</course>
  <speed>3.0430412419157253</speed>
  <fix>3d</fix>
</trkpt>
<trkpt lat="40.0737008" lon="-105.2292315">
  <ele>1608.24</ele>
  <time>2026-08-27T18:26:16Z</time>
  <course>168.76</course>
  <speed>3.06</speed>
  <fix>3d</fix>
</trkpt>
<trkpt lat="40.0736904" lon="-105.2292294">
  <ele>1607.65</ele>
  <time>2026-08-27T18:26:16Z</time>
  <course>171.45</course>
  <speed>3.020761493398643</speed>
  <fix>3d</fix>
</trkpt>
<trkpt lat="40.0736954" lon="-105.2292302">
  <ele>1607.94</ele>
  <time>2026-08-27T18:26:16Z</time>
  <course>170.14</course>
  <speed>3.05</speed>
  <fix>3d</fix>
</trkpt>
<trkpt lat="40.073685" lon="-105.2292284">
  <ele>1607.35</ele>
  <time>2026-08-27T18:26:16Z</time>
  <course>172.9</course>
  <speed>3.0104152537482265</speed>
  <fix>3d</fix>
</trkpt>
<trkpt lat="40.07369" lon="-105.2292291">
  <ele>1607.64</ele>
  <time>2026-08-27T18:26:16Z</time>
  <course>171.56</course>
  <speed>3.03</speed>
  <fix>3d</fix>
</trkpt>
<trkpt lat="40.0736796" lon="-105.2292276">
  <ele>1607.05</ele>
  <time>2026-08-27T18:26:16Z</time>
  <course>174.4</course>
  <speed>3.002165884823822</speed>
  <fix>3d</fix>
</trkpt>
<trkpt lat="40.0736845" lon="-105.2292282">
  <ele>1607.34</ele>
  <time>2026-08-27T18:26:16Z</time>
  <course>173.04</course>
  <speed>3.02</speed>
  <fix>3d</fix>
</trkpt>
<trkpt lat="40.0736742" lon="-105.229227">
  <ele>1606.75</ele>
  <time>2026-08-27T18:26:16Z</time>
  <course>175.95</course>
  <speed>2.996030707452779</speed>
  <fix>3d</fix>
</trkpt>
<trkpt lat="40.0736792" lon="-105.2292274">
  <ele>1607.04</ele>
  <time>2026-08-27T18:26:16Z</time>
  <course>174.57</course>
  <speed>3.01</speed>
  <fix>3d</fix>
</trkpt>
<trkpt lat="40.0736689" lon="-105.2292267">
  <ele>1606.45</ele>
  <time>2026-08-27T18:26:16Z</time>
  <course>177.55</course>
  <speed>2.9916717734403955</speed>
  <fix>3d</fix>
</trkpt>
<trkpt lat="40.0736738" lon="-105.2292268">
  <ele>1606.74</ele>
  <time>2026-08-27T18:26:16Z</time>
  <course>176.15</course>
  <speed>3.0</speed>
  <fix>3d</fix>
</trkpt>
<trkpt lat="40.0736635" lon="-105.2292265">
  <ele>1606.15</ele>
  <time>2026-08-27T18:26:16Z</time>
  <course>179.19</course>
  <speed>2.9800167784762555</speed>
  <fix>3d</fix>
</trkpt>
<trkpt lat="40.0736684" lon="-105.2292265">
  <ele>1606.44</ele>
  <time>2026-08-27T18:26:16Z</time>
  <course>177.77</course>
  <speed>2.99</speed>
  <fix>3d</fix>
</trkpt>
<trkpt lat="40.073658" lon="-105.2292265">
  <ele>1605.85</ele>
  <time>2026-08-27T18:26:16Z</time>
  <course>180.91</course>
  <speed>2.9808220342717546</speed>
  <fix>3d</fix>
</trkpt>
<trkpt lat="40.0736631" lon="-105.2292263">
  <ele>1606.14</ele>
  <time>2026-08-27T18:26:16Z</time>
  <course>179.44</course>
  <speed>2.99</speed>
  <fix>3d</fix>
</trkpt>
<trkpt lat="40.0736527" lon="-105.2292268">
  <ele>1605.54</ele>
  <time>2026-08-27T18:26:16Z</time>
  <course>182.64</course>
  <speed>2.984292210893565</speed>
  <fix>3d</fix>
</trkpt>
<trkpt lat="40.0736577" lon="-105.2292262">
  <ele>1605.84</ele>
  <time>2026-08-27T18:26:16Z</time>
  <course>181.16</course>
  <speed>2.98</speed>
  <fix>3d</fix>
</trkpt>
<trkpt lat="40.0736473" lon="-105.2292271">
  <ele>1605.24</ele>
  <time>2026-08-27T18:26:16Z</time>
  <course>184.51</course>
  <speed>2.9913207785190807</speed>
  <fix>3d</fix>
</trkpt>
<trkpt lat="40.0736524" lon="-105.2292265">
  <ele>1605.54</ele>
  <time>2026-08-27T18:26:16Z</time>
  <course>182.97</course>
  <speed>2.98</speed>
  <fix>3d</fix>
</trkpt>
<trkpt lat="40.0736419" lon="-105.2292278">
  <ele>1604.94</ele>
  <time>2026-08-27T18:26:16Z</time>
  <course>186.54</course>
  <speed>2.9942110814035807</speed>
  <fix>3d</fix>
</trkpt>
<trkpt lat="40.0736469" lon="-105.229227">
  <ele>1605.24</ele>
  <time>2026-08-27T18:26:16Z</time>
  <course>184.92</course>
  <speed>2.99</speed>
  <fix>3d</fix>
</trkpt>
<trkpt lat="40.0736366" lon="-105.2292288">
  <ele>1604.63</ele>
  <time>2026-08-27T18:26:16Z</time>
  <course>188.78</course>
  <speed>3.0117934856161703</speed>
  <fix>3d</fix>
</trkpt>
<trkpt lat="40.0736416" lon="-105.2292277">
  <ele>1604.94</ele>
  <time>2026-08-27T18:26:16Z</time>
  <course>187.06</course>
  <speed>3.0</speed>
  <fix>3d</fix>
</trkpt>
<trkpt lat="40.0736312" lon="-105.2292301">
  <ele>1604.33</ele>
  <time>2026-08-27T18:26:16Z</time>
  <course>191.22</course>
  <speed>3.038173793580611</speed>
  <fix>3d</fix>
</trkpt>
<trkpt lat="40.0736363" lon="-105.2292287">
  <ele>1604.64</ele>
  <time>2026-08-27T18:26:16Z</time>
  <course>189.41</course>
  <speed>3.01</speed>
  <fix>3d</fix>
</trkpt>
<trkpt lat="40.0736259" lon="-105.2292318">
  <ele>1604.02</ele>
  <time>2026-08-27T18:26:16Z</time>
  <course>193.8</course>
  <speed>3.073271872125862</speed>
  <fix>3d</fix>
</trkpt>
<trkpt lat="40.0736309" lon="-105.22923">
  <ele>1604.34</ele>
  <time>2026-08-27T18:26:16Z</time>
  <course>191.95</course>
  <speed>3.04</speed>
  <fix>3d</fix>
</trkpt>
<trkpt lat="40.0736205" lon="-105.2292338">
  <ele>1603.72</ele>
  <time>2026-08-27T18:26:16Z</time>
  <course>196.5</course>
  <speed>3.118236681203016</speed>
  <fix>3d</fix>
</trkpt>
<trkpt lat="40.0736256" lon="-105.2292316">
  <ele>1604.04</ele>
  <time>2026-08-27T18:26:16Z</time>
  <course>194.63</course>
  <speed>3.07</speed>
  <fix>3d</fix>
</trkpt>
<trkpt lat="40.0736152" lon="-105.2292361">
  <ele>1603.42</ele>
  <time>2026-08-27T18:26:16Z</time>
  <course>199.28</course>
  <speed>3.1835200643313057</speed>
  <fix>3d</fix>
</trkpt>
<trkpt lat="40.0736202" lon="-105.2292337">
  <ele>1603.74</ele>
  <time>2026-08-27T18:26:16Z</time>
  <course>197.45</course>
  <speed>3.12</speed>
  <fix>3d</fix>
</trkpt>
<trkpt lat="40.0736098" lon="-105.2292389">
  <ele>1603.13</ele>
  <time>2026-08-27T18:26:16Z</time>
  <course>202.21</course>
  <speed>3.255226566615602</speed>
  <fix>3d</fix>
</trkpt>
<trkpt lat="40.0736148" lon="-105.2292361">
  <ele>1603.44</ele>
  <time>2026-08-27T18:26:16Z</time>
  <course>200.41</course>
  <speed>3.18</speed>
  <fix>3d</fix>
</trkpt>
<trkpt lat="40.0736044" lon="-105.2292422">
  <ele>1602.82</ele>
  <time>2026-08-27T18:26:16Z</time>
  <course>205.25</course>
  <speed>3.3496566988275083</speed>
  <fix>3d</fix>
</trkpt>
<trkpt lat="40.0736095" lon="-105.2292389">
  <ele>1603.14</ele>
  <time>2026-08-27T18:26:16Z</time>
  <course>203.48</course>
  <speed>3.25</speed>
  <fix>3d</fix>
</trkpt>
<trkpt lat="40.073599" lon="-105.229246">
  <ele>1602.52</ele>
  <time>2026-08-27T18:26:16Z</time>
  <course>208.37</course>
  <speed>3.4544174617437307</speed>
  <fix>3d</fix>
</trkpt>
<trkpt lat="40.0736042" lon="-105.2292422">
  <ele>1602.85</ele>
  <time>2026-08-27T18:26:16Z</time>
  <course>206.66</course>
  <speed>3.34</speed>
  <fix>3d</fix>
</trkpt>
<trkpt lat="40.0735936" lon="-105.2292503">
  <ele>1602.22</ele>
  <time>2026-08-27T18:26:16Z</time>
  <course>211.53</course>
  <speed>3.5944957921800382</speed>
  <fix>3d</fix>
</trkpt>
<trkpt lat="40.0735988" lon="-105.2292459">
  <ele>1602.55</ele>
  <time>2026-08-27T18:26:16Z</time>
  <course>209.92</course>
  <speed>3.45</speed>
  <fix>3d</fix>
</trkpt>
<trkpt lat="40.0735882" lon="-105.2292552">
  <ele>1601.92</ele>
  <time>2026-08-27T18:26:16Z</time>
  <course>214.71</course>
  <speed>3.75</speed>
  <fix>3d</fix>
</trkpt>
<trkpt lat="40.0735933" lon="-105.2292503">
  <ele>1602.25</ele>
  <time>2026-08-27T18:26:16Z</time>
  <course>213.26</course>
  <speed>3.58</speed>
  <fix>3d</fix>
</trkpt>
<trkpt lat="40.0735829" lon="-105.2292608">
  <ele>1601.62</ele>
  <time>2026-08-27T18:26:16Z</time>
  <course>217.68</course>
  <speed>3.937321424522006</speed>
  <fix>3d</fix>
</trkpt>
<trkpt lat="40.073588" lon="-105.2292552">
  <ele>1601.94</ele>
  <time>2026-08-27T18:26:16Z</time>
  <course>216.7</course>
  <speed>3.74</speed>
  <fix>3d</fix>
</trkpt>
<trkpt lat="40.0735775" lon="-105.229267">
  <ele>1601.33</ele>
  <time>2026-08-27T18:26:16Z</time>
  <course>221.03</course>
  <speed>4.1162361448294</speed>
  <fix>3d</fix>
</trkpt>
<trkpt lat="40.0735825" lon="-105.2292608">
  <ele>1601.64</ele>
  <time>2026-08-27T18:26:16Z</time>
  <course>220.2</course>
  <speed>3.92</speed>
  <fix>3d</fix>
</trkpt>
<trkpt lat="40.0735722" lon="-105.229274">
  <ele>1601.06</ele>
  <time>2026-08-27T18:26:16Z</time>
  <course>224.48</course>
  <speed>4.281646879414509</speed>
  <fix>3d</fix>
</trkpt>
<trkpt lat="40.0735772" lon="-105.2292672">
  <ele>1601.34</ele>
  <time>2026-08-27T18:26:16Z</time>
  <course>223.72</course>
  <speed>4.11</speed>
  <fix>3d</fix>
</trkpt>
<trkpt lat="40.0735671" lon="-105.2292817">
  <ele>1600.81</ele>
  <time>2026-08-27T18:26:16Z</time>
  <course>227.93</course>
  <speed>4.429187284367189</speed>
  <fix>3d</fix>
</trkpt>
<trkpt lat="40.0735719" lon="-105.2292741">
  <ele>1601.06</ele>
  <time>2026-08-27T18:26:16Z</time>
  <course>227.21</course>
  <speed>4.28</speed>
  <fix>3d</fix>
</trkpt>
<trkpt lat="40.0735622" lon="-105.22929">
  <ele>1600.57</ele>
  <time>2026-08-27T18:26:16Z</time>
  <course>231.37</course>
  <speed>4.559232391532592</speed>
  <fix>3d</fix>
</trkpt>
<trkpt lat="40.0735667" lon="-105.2292819">
  <ele>1600.8</ele>
  <time>2026-08-27T18:26:16Z</time>
  <course>230.72</course>
  <speed>4.43</speed>
  <fix>3d</fix>
</trkpt>
<trkpt lat="40.0735576" lon="-105.2292989">
  <ele>1600.35</ele>
  <time>2026-08-27T18:26:16Z</time>
  <course>234.73</course>
  <speed>4.689434933976588</speed>
  <fix>3d</fix>
</trkpt>
<trkpt lat="40.0735619" lon="-105.2292903">
  <ele>1600.56</ele>
  <time>2026-08-27T18:26:16Z</time>
  <course>234.28</course>
  <speed>4.57</speed>
  <fix>3d</fix>
</trkpt>
<trkpt lat="40.0735533" lon="-105.2293085">
  <ele>1600.14</ele>
  <time>2026-08-27T18:26:16Z</time>
  <course>238.22</course>
  <speed>4.805340778758568</speed>
  <fix>3d</fix>
</trkpt>
<trkpt lat="40.0735572" lon="-105.2292993">
  <ele>1600.33</ele>
  <time>2026-08-27T18:26:16Z</time>
  <course>237.88</course>
  <speed>4.7</speed>
  <fix>3d</fix>
</trkpt>
<trkpt lat="40.0735493" lon="-105.2293187">
  <ele>1599.96</ele>
  <time>2026-08-27T18:26:16Z</time>
  <course>241.9</course>
  <speed>4.886225537160559</speed>
  <fix>3d</fix>
</trkpt>
<trkpt lat="40.0735529" lon="-105.229309">
  <ele>1600.13</ele>
  <time>2026-08-27T18:26:16Z</time>
  <course>241.5</course>
  <speed>4.81</speed>
  <fix>3d</fix>
</trkpt>
<trkpt lat="40.0735458" lon="-105.2293293">
  <ele>1599.81</ele>
  <time>2026-08-27T18:26:16Z</time>
  <course>245.57</course>
  <speed>4.932382791308882</speed>
  <fix>3d</fix>
</trkpt>
<trkpt lat="40.073549" lon="-105.2293191">
  <ele>1599.94</ele>
  <time>2026-08-27T18:26:16Z</time>
  <course>245.09</course>
  <speed>4.9</speed>
  <fix>3d</fix>
</trkpt>
<trkpt lat="40.0735428" lon="-105.2293403">
  <ele>1599.69</ele>
  <time>2026-08-27T18:26:16Z</time>
  <course>249.18</course>
  <speed>4.96214671286531</speed>
  <fix>3d</fix>
</trkpt>
<trkpt lat="40.0735455" lon="-105.2293298">
  <ele>1599.79</ele>
  <time>2026-08-27T18:26:16Z</time>
  <course>248.65</course>
  <speed>4.95</speed>
  <fix>3d</fix>
</trkpt>
<trkpt lat="40.0735403" lon="-105.2293515">
  <ele>1599.58</ele>
  <time>2026-08-27T18:26:16Z</time>
  <course>252.77</course>
  <speed>4.9695573243499265</speed>
  <fix>3d</fix>
</trkpt>
<trkpt lat="40.0735425" lon="-105.2293408">
  <ele>1599.65</ele>
  <time>2026-08-27T18:26:16Z</time>
  <course>252.2</course>
  <speed>4.97</speed>
  <fix>3d</fix>
</trkpt>
<trkpt lat="40.0735384" lon="-105.2293629">
  <ele>1599.49</ele>
  <time>2026-08-27T18:26:16Z</time>
  <course>256.32</course>
  <speed>4.964121271685453</speed>
  <fix>3d</fix>
</trkpt>
<trkpt lat="40.0735401" lon="-105.2293521">
  <ele>1599.55</ele>
  <time>2026-08-27T18:26:16Z</time>
  <course>255.74</course>
  <speed>4.98</speed>
  <fix>3d</fix>
</trkpt>
<trkpt lat="40.073537" lon="-105.2293744">
  <ele>1599.43</ele>
  <time>2026-08-27T18:26:16Z</time>
  <course>259.83</course>
  <speed>4.946524032085562</speed>
  <fix>3d</fix>
</trkpt>
<trkpt lat="40.0735381" lon="-105.2293635">
  <ele>1599.47</ele>
  <time>2026-08-27T18:26:16Z</time>
  <course>259.28</course>
  <speed>4.98</speed>
  <fix>3d</fix>
</trkpt>
<trkpt lat="40.0735361" lon="-105.229386">
  <ele>1599.38</ele>
  <time>2026-08-27T18:26:16Z</time>
  <course>263.32</course>
  <speed>4.919156431747216</speed>
  <fix>3d</fix>
</trkpt>
<trkpt lat="40.0735367" lon="-105.229375">
  <ele>1599.4</ele>
  <time>2026-08-27T18:26:16Z</time>
  <course>262.8</course>
  <speed>4.96</speed>
  <fix>3d</fix>
</trkpt>
<trkpt lat="40.0735358" lon="-105.2293975">
  <ele>1599.35</ele>
  <time>2026-08-27T18:26:16Z</time>
  <course>266.75</course>
  <speed>4.890010224938186</speed>
  <fix>3d</fix>
</trkpt>
<trkpt lat="40.0735358" lon="-105.2293866">
  <ele>1599.35</ele>
  <time>2026-08-27T18:26:16Z</time>
  <course>266.28</course>
  <speed>4.93</speed>
  <fix>3d</fix>
</trkpt>
<trkpt lat="40.073536" lon="-105.2294089">
  <ele>1599.34</ele>
  <time>2026-08-27T18:26:16Z</time>
  <course>270.1</course>
  <speed>4.846978440224384</speed>
  <fix>3d</fix>
</trkpt>
<trkpt lat="40.0735356" lon="-105.2293981">
  <ele>1599.31</ele>
  <time>2026-08-27T18:26:16Z</time>
  <course>269.73</course>
  <speed>4.9</speed>
  <fix>3d</fix>
</trkpt>
<trkpt lat="40.0735366" lon="-105.2294202">
  <ele>1599.35</ele>
  <time>2026-08-27T18:26:16Z</time>
  <course>273.4</course>
  <speed>4.800468727114051</speed>
  <fix>3d</fix>
</trkpt>
<trkpt lat="40.0735358" lon="-105.2294096">
  <ele>1599.3</ele>
  <time>2026-08-27T18:26:16Z</time>
  <course>273.12</course>
  <speed>4.86</speed>
  <fix>3d</fix>
</trkpt>
<trkpt lat="40.0735377" lon="-105.2294314">
  <ele>1599.38</ele>
  <time>2026-08-27T18:26:16Z</time>
  <course>276.64</course>
  <speed>4.747883739098927</speed>
  <fix>3d</fix>
</trkpt>
<trkpt lat="40.0735365" lon="-105.2294209">
  <ele>1599.31</ele>
  <time>2026-08-27T18:26:16Z</time>
  <course>276.46</course>
  <speed>4.81</speed>
  <fix>3d</fix>
</trkpt>
<trkpt lat="40.0735394" lon="-105.2294423">
  <ele>1599.43</ele>
  <time>2026-08-27T18:26:16Z</time>
  <course>279.81</course>
  <speed>4.686843287331037</speed>
  <fix>3d</fix>
</trkpt>
<trkpt lat="40.0735376" lon="-105.2294321">
  <ele>1599.34</ele>
  <time>2026-08-27T18:26:16Z</time>
  <course>279.72</course>
  <speed>4.75</speed>
  <fix>3d</fix>
</trkpt>
<trkpt lat="40.0735414" lon="-105.2294529">
  <ele>1599.5</ele>
  <time>2026-08-27T18:26:16Z</time>
  <course>282.89</course>
  <speed>4.6180623642389245</speed>
  <fix>3d</fix>
</trkpt>
<trkpt lat="40.0735393" lon="-105.2294429">
  <ele>1599.38</ele>
  <time>2026-08-27T18:26:16Z</time>
  <course>282.92</course>
  <speed>4.69</speed>
  <fix>3d</fix>
</trkpt>
<trkpt lat="40.0735439" lon="-105.2294632">
  <ele>1599.59</ele>
  <time>2026-08-27T18:26:16Z</time>
  <course>285.92</course>
  <speed>4.557027539965059</speed>
  <fix>3d</fix>
</trkpt>
<trkpt lat="40.0735414" lon="-105.2294535">
  <ele>1599.45</ele>
  <time>2026-08-27T18:26:16Z</time>
  <course>286.06</course>
  <speed>4.63</speed>
  <fix>3d</fix>
</trkpt>
<trkpt lat="40.0735467" lon="-105.2294731">
  <ele>1599.71</ele>
  <time>2026-08-27T18:26:16Z</time>
  <course>288.84</course>
  <speed>4.486423965699185</speed>
  <fix>3d</fix>
</trkpt>
<trkpt lat="40.0735439" lon="-105.2294638">
  <ele>1599.54</ele>
  <time>2026-08-27T18:26:16Z</time>
  <course>289.13</course>
  <speed>4.56</speed>
  <fix>3d</fix>
</trkpt>
<trkpt lat="40.0735498" lon="-105.2294827">
  <ele>1599.83</ele>
  <time>2026-08-27T18:26:16Z</time>
  <course>291.74</course>
  <speed>4.424590376520746</speed>
  <fix>3d</fix>
</trkpt>
<trkpt lat="40.0735468" lon="-105.2294737">
  <ele>1599.64</ele>
  <time>2026-08-27T18:26:16Z</time>
  <course>292.16</course>
  <speed>4.49</speed>
  <fix>3d</fix>
</trkpt>
<trkpt lat="40.0735533" lon="-105.2294919">
  <ele>1599.98</ele>
  <time>2026-08-27T18:26:16Z</time>
  <course>294.59</course>
  <speed>4.35707470672698</speed>
  <fix>3d</fix>
</trkpt>
<trkpt lat="40.07355" lon="-105.2294833">
  <ele>1599.77</ele>
  <time>2026-08-27T18:26:16Z</time>
  <course>295.15</course>
  <speed>4.42</speed>
  <fix>3d</fix>
</trkpt>
<trkpt lat="40.0735571" lon="-105.2295008">
  <ele>1600.15</ele>
  <time>2026-08-27T18:26:16Z</time>
  <course>297.41</course>
  <speed>4.296056331101816</speed>
  <fix>3d</fix>
</trkpt>
<trkpt lat="40.0735535" lon="-105.2294925">
  <ele>1599.91</ele>
  <time>2026-08-27T18:26:16Z</time>
  <course>298.12</course>
  <speed>4.36</speed>
  <fix>3d</fix>
</trkpt>
<trkpt lat="40.0735612" lon="-105.2295092">
  <ele>1600.34</ele>
  <time>2026-08-27T18:26:16Z</time>
  <course>300.2</course>
  <speed>4.246233625226007</speed>
  <fix>3d</fix>
</trkpt>
<trkpt lat="40.0735574" lon="-105.2295014">
  <ele>1600.08</ele>
  <time>2026-08-27T18:26:16Z</time>
  <course>301.07</course>
  <speed>4.3</speed>
  <fix>3d</fix>
</trkpt>
<trkpt lat="40.0735656" lon="-105.2295174">
  <ele>1600.55</ele>
  <time>2026-08-27T18:26:16Z</time>
  <course>302.98</course>
  <speed>4.208004277564366</speed>
  <fix>3d</fix>
</trkpt>
<trkpt lat="40.0735615" lon="-105.2295099">
  <ele>1600.26</ele>
  <time>2026-08-27T18:26:16Z</time>
  <course>304.02</course>
  <speed>4.25</speed>
  <fix>3d</fix>
</trkpt>
<trkpt lat="40.0735703" lon="-105.2295251">
  <ele>1600.78</ele>
  <time>2026-08-27T18:26:16Z</time>
  <course>305.65</course>
  <speed>4.182977408497445</speed>
  <fix>3d</fix>
</trkpt>
<trkpt lat="40.0735659" lon="-105.229518">
  <ele>1600.47</ele>
  <time>2026-08-27T18:26:16Z</time>
  <course>306.99</course>
  <speed>4.21</speed>
  <fix>3d</fix>
</trkpt>
<trkpt lat="40.0735752" lon="-105.2295325">
  <ele>1601.03</ele>
  <time>2026-08-27T18:26:17Z</time>
  <course>308.61</course>
  <speed>4.153901780254319</speed>
  <fix>3d</fix>
</trkpt>
<trkpt lat="40.0735706" lon="-105.2295257">
  <ele>1600.69</ele>
  <time>2026-08-27T18:26:17Z</time>
  <course>309.99</course>
  <speed>4.18</speed>
  <fix>3d</fix>
</trkpt>
<trkpt lat="40.0735804" lon="-105.2295395">
  <ele>1601.31</ele>
  <time>2026-08-27T18:26:17Z</time>
  <course>311.72</course>
  <speed>4.1016094402075876</speed>
  <fix>3d</fix>
</trkpt>
<trkpt lat="40.0735756" lon="-105.229533">
  <ele>1600.94</ele>
  <time>2026-08-27T18:26:17Z</time>
  <course>313.02</course>
  <speed>4.15</speed>
  <fix>3d</fix>
</trkpt>
<trkpt lat="40.0735858" lon="-105.229546">
  <ele>1601.6</ele>
  <time>2026-08-27T18:26:17Z</time>
  <course>314.92</course>
  <speed>4.040420770167384</speed>
  <fix>3d</fix>
</trkpt>
<trkpt lat="40.0735808" lon="-105.2295399">
  <ele>1601.2</ele>
  <time>2026-08-27T18:26:17Z</time>
  <course>316.12</course>
  <speed>4.1</speed>
  <fix>3d</fix>
</trkpt>
<trkpt lat="40.0735914" lon="-105.2295519">
  <ele>1601.9</ele>
  <time>2026-08-27T18:26:17Z</time>
  <course>318.25</course>
  <speed>3.98628900106352</speed>
  <fix>3d</fix>
</trkpt>
<trkpt lat="40.0735862" lon="-105.2295464">
  <ele>1601.49</ele>
  <time>2026-08-27T18:26:17Z</time>
  <course>319.33</course>
  <speed>4.04</speed>
  <fix>3d</fix>
</trkpt>
<trkpt lat="40.0735972" lon="-105.2295574">
  <ele>1602.21</ele>
  <time>2026-08-27T18:26:17Z</time>
  <course>321.72</course>
  <speed>3.9328869803237416</speed>
  <fix>3d</fix>
</trkpt>
<trkpt lat="40.0735918" lon="-105.2295523">
  <ele>1601.79</ele>
  <time>2026-08-27T18:26:17Z</time>
  <course>322.71</course>
  <speed>3.98</speed>
  <fix>3d</fix>
</trkpt>
<trkpt lat="40.0736032" lon="-105.2295622">
  <ele>1602.53</ele>
  <time>2026-08-27T18:26:17Z</time>
  <course>325.28</course>
  <speed>3.8898843170459454</speed>
  <fix>3d</fix>
</trkpt>
<trkpt lat="40.0735976" lon="-105.2295577">
  <ele>1602.09</ele>
  <time>2026-08-27T18:26:17Z</time>
  <course>326.26</course>
  <speed>3.93</speed>
  <fix>3d</fix>
</trkpt>
<trkpt lat="40.0736093" lon="-105.2295666">
  <ele>1602.86</ele>
  <time>2026-08-27T18:26:17Z</time>
  <course>328.93</course>
  <speed>3.868397601074636</speed>
  <fix>3d</fix>
</trkpt>
<trkpt lat="40.0736036" lon="-105.2295626">
  <ele>1602.41</ele>
  <time>2026-08-27T18:26:17Z</time>
  <course>329.95</course>
  <speed>3.89</speed>
  <fix>3d</fix>
</trkpt>
<trkpt lat="40.0736156" lon="-105.2295704">
  <ele>1603.2</ele>
  <time>2026-08-27T18:26:17Z</time>
  <course>332.61</course>
  <speed>3.8684622267769395</speed>
  <fix>3d</fix>
</trkpt>
<trkpt lat="40.0736098" lon="-105.2295669">
  <ele>1602.74</ele>
  <time>2026-08-27T18:26:17Z</time>
  <course>333.73</course>
  <speed>3.87</speed>
  <fix>3d</fix>
</trkpt>
<trkpt lat="40.0736221" lon="-105.2295736">
  <ele>1603.55</ele>
  <time>2026-08-27T18:26:17Z</time>
  <course>336.3</course>
  <speed>3.877034949545851</speed>
  <fix>3d</fix>
</trkpt>
<trkpt lat="40.073616" lon="-105.2295706">
  <ele>1603.08</ele>
  <time>2026-08-27T18:26:17Z</time>
  <course>337.55</course>
  <speed>3.86</speed>
  <fix>3d</fix>
</trkpt>
<trkpt lat="40.0736288" lon="-105.2295762">
  <ele>1603.91</ele>
  <time>2026-08-27T18:26:17Z</time>
  <course>339.95</course>
  <speed>3.905547336801847</speed>
  <fix>3d</fix>
</trkpt>
<trkpt lat="40.0736225" lon="-105.2295738">
  <ele>1603.43</ele>
  <time>2026-08-27T18:26:17Z</time>
  <course>341.37</course>
  <speed>3.87</speed>
  <fix>3d</fix>
</trkpt>
<trkpt lat="40.0736357" lon="-105.2295784">
  <ele>1604.29</ele>
  <time>2026-08-27T18:26:17Z</time>
  <course>343.58</course>
  <speed>3.9576255507564126</speed>
  <fix>3d</fix>
</trkpt>
<trkpt lat="40.0736292" lon="-105.2295764">
  <ele>1603.79</ele>
  <time>2026-08-27T18:26:17Z</time>
  <course>345.16</course>
  <speed>3.9</speed>
  <fix>3d</fix>
</trkpt>
<trkpt lat="40.0736428" lon="-105.2295799">
  <ele>1604.68</ele>
  <time>2026-08-27T18:26:17Z</time>
  <course>346.71</course>
  <speed>4.026375541352297</speed>
  <fix>3d</fix>
</trkpt>
<trkpt lat="40.0736361" lon="-105.2295785">
  <ele>1604.17</ele>
  <time>2026-08-27T18:26:17Z</time>
  <course>348.88</course>
  <speed>3.96</speed>
  <fix>3d</fix>
</trkpt>
<trkpt lat="40.07365" lon="-105.2295809">
  <ele>1605.08</ele>
  <time>2026-08-27T18:26:17Z</time>
  <course>350.48</course>
  <speed>4.051876108668674</speed>
  <fix>3d</fix>
</trkpt>
<trkpt lat="40.0736433" lon="-105.22958">
  <ele>1604.56</ele>
  <time>2026-08-27T18:26:17Z</time>
  <course>352.44</course>
  <speed>4.02</speed>
  <fix>3d</fix>
</trkpt>
<trkpt lat="40.0736573" lon="-105.2295814">
  <ele>1605.47</ele>
  <time>2026-08-27T18:26:17Z</time>
  <course>354.43</course>
  <speed>4.001249804748512</speed>
  <fix>3d</fix>
</trkpt>
<trkpt lat="40.0736505" lon="-105.229581">
  <ele>1604.96</ele>
  <time>2026-08-27T18:26:17Z</time>
  <course>355.74</course>
  <speed>4.04</speed>
  <fix>3d</fix>
</trkpt>
<trkpt lat="40.0736644" lon="-105.2295814">
  <ele>1605.86</ele>
  <time>2026-08-27T18:26:17Z</time>
  <course>358.25</course>
  <speed>3.8712917740723185</speed>
  <fix>3d</fix>
</trkpt>
<trkpt lat="40.0736577" lon="-105.2295815">
  <ele>1605.35</ele>
  <time>2026-08-27T18:26:17Z</time>
  <course>358.82</course>
  <speed>4.0</speed>
  <fix>3d</fix>
</trkpt>
<trkpt lat="40.0736712" lon="-105.2295809">
  <ele>1606.23</ele>
  <time>2026-08-27T18:26:17Z</time>
  <course>1.99</course>
  <speed>3.7121422386541174</speed>
  <fix>3d</fix>
</trkpt>
<trkpt lat="40.0736648" lon="-105.2295815">
  <ele>1605.73</ele>
  <time>2026-08-27T18:26:17Z</time>
  <course>1.86</course>
  <speed>3.88</speed>
  <fix>3d</fix>
</trkpt>
<trkpt lat="40.0736777" lon="-105.2295801">
  <ele>1606.56</ele>
  <time>2026-08-27T18:26:17Z</time>
  <course>6.26</course>
  <speed>3.522853956666385</speed>
  <fix>3d</fix>
</trkpt>
<trkpt lat="40.0736716" lon="-105.229581">
  <ele>1606.09</ele>
  <time>2026-08-27T18:26:17Z</time>
  <course>4.99</course>
  <speed>3.72</speed>
  <fix>3d</fix>
</trkpt>
<trkpt lat="40.0736838" lon="-105.2295787">
  <ele>1606.87</ele>
  <time>2026-08-27T18:26:17Z</time>
  <course>9.93</course>
  <speed>3.3832085362862276</speed>
  <fix>3d</fix>
</trkpt>
<trkpt lat="40.0736781" lon="-105.22958">
  <ele>1606.42</ele>
  <time>2026-08-27T18:26:17Z</time>
  <course>8.36</course>
  <speed>3.54</speed>
  <fix>3d</fix>
</trkpt>
<trkpt lat="40.0736896" lon="-105.2295767">
  <ele>1607.15</ele>
  <time>2026-08-27T18:26:17Z</time>
  <course>13.57</course>
  <speed>3.3504775778984106</speed>
  <fix>3d</fix>
</trkpt>
<trkpt lat="40.0736842" lon="-105.2295785">
  <ele>1606.72</ele>
  <time>2026-08-27T18:26:17Z</time>
  <course>12.31</course>
  <speed>3.4</speed>
  <fix>3d</fix>
</trkpt>
<trkpt lat="40.0736954" lon="-105.2295741">
  <ele>1607.41</ele>
  <time>2026-08-27T18:26:17Z</time>
  <course>17.67</course>
  <speed>3.4577449298639715</speed>
  <fix>3d</fix>
</trkpt>
<trkpt lat="40.0736901" lon="-105.2295765">
  <ele>1607.0</ele>
  <time>2026-08-27T18:26:17Z</time>
  <course>16.93</course>
  <speed>3.37</speed>
  <fix>3d</fix>
</trkpt>
<trkpt lat="40.0737013" lon="-105.2295708">
  <ele>1607.67</ele>
  <time>2026-08-27T18:26:17Z</time>
  <course>21.68</course>
  <speed>3.658742953529258</speed>
  <fix>3d</fix>
</trkpt>
<trkpt lat="40.0736959" lon="-105.2295738">
  <ele>1607.26</ele>
  <time>2026-08-27T18:26:17Z</time>
  <course>21.68</course>
  <speed>3.45</speed>
  <fix>3d</fix>
</trkpt>
<trkpt lat="40.0737073" lon="-105.2295667">
  <ele>1607.94</ele>
  <time>2026-08-27T18:26:17Z</time>
  <course>24.97</course>
  <speed>3.929834602117499</speed>
  <fix>3d</fix>
</trkpt>
<trkpt lat="40.0737017" lon="-105.2295705">
  <ele>1607.52</ele>
  <time>2026-08-27T18:26:17Z</time>
  <course>25.89</course>
  <speed>3.65</speed>
  <fix>3d</fix>
</trkpt>
<trkpt lat="40.0737137" lon="-105.2295619">
  <ele>1608.22</ele>
  <time>2026-08-27T18:26:17Z</time>
  <course>27.34</course>
  <speed>4.22234531984299</speed>
  <fix>3d</fix>
</trkpt>
<trkpt lat="40.0737077" lon="-105.2295664">
  <ele>1607.78</ele>
  <time>2026-08-27T18:26:17Z</time>
  <course>29.19</course>
  <speed>3.91</speed>
  <fix>3d</fix>
</trkpt>
<trkpt lat="40.0737203" lon="-105.2295564">
  <ele>1608.5</ele>
  <time>2026-08-27T18:26:17Z</time>
  <course>29.0</course>
  <speed>4.546042234735617</speed>
  <fix>3d</fix>
</trkpt>
<trkpt lat="40.073714" lon="-105.2295616">
  <ele>1608.06</ele>
  <time>2026-08-27T18:26:17Z</time>
  <course>31.62</course>
  <speed>4.21</speed>
  <fix>3d</fix>
</trkpt>
<trkpt lat="40.0737273" lon="-105.2295502">
  <ele>1608.8</ele>
  <time>2026-08-27T18:26:17Z</time>
  <course>30.2</course>
  <speed>4.870615977471433</speed>
  <fix>3d</fix>
</trkpt>
<trkpt lat="40.0737206" lon="-105.229556">
  <ele>1608.35</ele>
  <time>2026-08-27T18:26:17Z</time>
  <course>33.37</course>
  <speed>4.52</speed>
  <fix>3d</fix>
</trkpt>
<trkpt lat="40.0737346" lon="-105.2295435">
  <ele>1609.1</ele>
  <time>2026-08-27T18:26:17Z</time>
  <course>31.15</course>
  <speed>5.199778841450856</speed>
  <fix>3d</fix>
</trkpt>
<trkpt lat="40.0737276" lon="-105.2295498">
  <ele>1608.65</ele>
  <time>2026-08-27T18:26:17Z</time>
  <course>34.66</course>
  <speed>4.85</speed>
  <fix>3d</fix>
</trkpt>
<trkpt lat="40.0737424" lon="-105.2295361">
  <ele>1609.42</ele>
  <time>2026-08-27T18:26:17Z</time>
  <course>31.9</course>
  <speed>5.5244185214373465</speed>
  <fix>3d</fix>
</trkpt>
<trkpt lat="40.073735" lon="-105.229543">
  <ele>1608.95</ele>
  <time>2026-08-27T18:26:17Z</time>
  <course>35.65</course>
  <speed>5.18</speed>
  <fix>3d</fix>
</trkpt>
<trkpt lat="40.0737505" lon="-105.2295282">
  <ele>1609.73</ele>
  <time>2026-08-27T18:26:17Z</time>
  <course>32.52</course>
  <speed>5.86400034106411</speed>
  <fix>3d</fix>
</trkpt>
<trkpt lat="40.0737428" lon="-105.2295356">
  <ele>1609.27</ele>
  <time>2026-08-27T18:26:17Z</time>
  <course>36.45</course>
  <speed>5.52</speed>
  <fix>3d</fix>
</trkpt>
<trkpt lat="40.0737591" lon="-105.2295196">
  <ele>1610.04</ele>
  <time>2026-08-27T18:26:17Z</time>
  <course>33.03</course>
  <speed>6.190395787023638</speed>
  <fix>3d</fix>
</trkpt>
<trkpt lat="40.073751" lon="-105.2295276">
  <ele>1609.58</ele>
  <time>2026-08-27T18:26:17Z</time>
  <course>37.11</course>
  <speed>5.85</speed>
  <fix>3d</fix>
</trkpt>
<trkpt lat="40.073768" lon="-105.2295106">
  <ele>1610.34</ele>
  <time>2026-08-27T18:26:17Z</time>
  <course>33.48</course>
  <speed>6.51129787369615</speed>
  <fix>3d</fix>
</trkpt>
<trkpt lat="40.0737596" lon="-105.2295191">
  <ele>1609.89</ele>
  <time>2026-08-27T18:26:17Z</time>
  <course>37.67</course>
  <speed>6.19</speed>
  <fix>3d</fix>
</trkpt>
<trkpt lat="40.0737774" lon="-105.2295009">
  <ele>1610.65</ele>
  <time>2026-08-27T18:26:17Z</time>
  <course>33.86</course>
  <speed>6.82481501580812</speed>
  <fix>3d</fix>
</trkpt>
<trkpt lat="40.0737685" lon="-105.2295099">
  <ele>1610.2</ele>
  <time>2026-08-27T18:26:17Z</time>
  <course>38.17</course>
  <speed>6.52</speed>
  <fix>3d</fix>
</trkpt>
<trkpt lat="40.0737872" lon="-105.2294905">
  <ele>1610.96</ele>
  <time>2026-08-27T18:26:17Z</time>
  <course>34.28</course>
  <speed>7.138809424546926</speed>
  <fix>3d</fix>
</trkpt>
<trkpt lat="40.073778" lon="-105.2295001">
  <ele>1610.51</ele>
  <time>2026-08-27T18:26:17Z</time>
  <course>38.63</course>
  <speed>6.84</speed>
  <fix>3d</fix>
</trkpt>
<trkpt lat="40.0737973" lon="-105.2294797">
  <ele>1611.27</ele>
  <time>2026-08-27T18:26:17Z</time>
  <course>34.73</course>
  <speed>7.437775204992417</speed>
  <fix>3d</fix>
</trkpt>
<trkpt lat="40.0737878" lon="-105.2294899">
  <ele>1610.81</ele>
  <time>2026-08-27T18:26:17Z</time>
  <course>39.08</course>
  <speed>7.15</speed>
  <fix>3d</fix>
</trkpt>
<trkpt lat="40.0738078" lon="-105.2294683">
  <ele>1611.58</ele>
  <time>2026-08-27T18:26:17Z</time>
  <course>35.18</course>
  <speed>7.723211767134189</speed>
  <fix>3d</fix>
</trkpt>
<trkpt lat="40.0737979" lon="-105.229479">
  <ele>1611.12</ele>
  <time>2026-08-27T18:26:17Z</time>
  <course>39.53</course>
  <speed>7.45</speed>
  <fix>3d</fix>
</trkpt>
<trkpt lat="40.0738186" lon="-105.2294563">
  <ele>1611.88</ele>
  <time>2026-08-27T18:26:17Z</time>
  <course>35.66</course>
  <speed>7.993903927368654</speed>
  <fix>3d</fix>
</trkpt>
<trkpt lat="40.0738085" lon="-105.2294675">
  <ele>1611.42</ele>
  <time>2026-08-27T18:26:17Z</time>
  <course>39.99</course>
  <speed>7.74</speed>
  <fix>3d</fix>
</trkpt>
<trkpt lat="40.0738297" lon="-105.2294439">
  <ele>1612.19</ele>
  <time>2026-08-27T18:26:17Z</time>
  <course>36.16</course>
  <speed>8.251121135942679</speed>
  <fix>3d</fix>
</trkpt>
<trkpt lat="40.0738192" lon="-105.2294556">
  <ele>1611.73</ele>
  <time>2026-08-27T18:26:17Z</time>
  <course>40.47</course>
  <speed>8.01</speed>
  <fix>3d</fix>
</trkpt>
<trkpt lat="40.0738411" lon="-105.2294309">
  <ele>1612.5</ele>
  <time>2026-08-27T18:26:17Z</time>
  <course>36.68</course>
  <speed>8.50802562290453</speed>
  <fix>3d</fix>
</trkpt>
<trkpt lat="40.0738304" lon="-105.2294431">
  <ele>1612.04</ele>
  <time>2026-08-27T18:26:17Z</time>
  <course>40.96</course>
  <speed>8.28</speed>
  <fix>3d</fix>
</trkpt>
<trkpt lat="40.0738526" lon="-105.2294173">
  <ele>1612.81</ele>
  <time>2026-08-27T18:26:17Z</time>
  <course>37.17</course>
  <speed>8.751548434420048</speed>
  <fix>3d</fix>
</trkpt>
<trkpt lat="40.0738417" lon="-105.2294301">
  <ele>1612.34</ele>
  <time>2026-08-27T18:26:17Z</time>
  <course>41.47</course>
  <speed>8.53</speed>
  <fix>3d</fix>
</trkpt>
<trkpt lat="40.0738645" lon="-105.2294033">
  <ele>1613.12</ele>
  <time>2026-08-27T18:26:17Z</time>
  <course>37.65</course>
  <speed>8.995737879685024</speed>
  <fix>3d</fix>
</trkpt>
<trkpt lat="40.0738533" lon="-105.2294165">
  <ele>1612.65</ele>
  <time>2026-08-27T18:26:17Z</time>
  <course>41.99</course>
  <speed>8.78</speed>
  <fix>3d</fix>
</trkpt>
<trkpt lat="40.0738765" lon="-105.2293888">
  <ele>1613.43</ele>
  <time>2026-08-27T18:26:17Z</time>
  <course>38.15</course>
  <speed>9.225920008324373</speed>
  <fix>3d</fix>
</trkpt>
<trkpt lat="40.0738652" lon="-105.2294025">
  <ele>1612.96</ele>
  <time>2026-08-27T18:26:17Z</time>
  <course>42.5</course>
  <speed>9.02</speed>
  <fix>3d</fix>
</trkpt>
<trkpt lat="40.0738887" lon="-105.2293737">
  <ele>1613.75</ele>
  <time>2026-08-27T18:26:17Z</time>
  <course>38.58</course>
  <speed>9.464142856064674</speed>
  <fix>3d</fix>
</trkpt>
<trkpt lat="40.0738772" lon="-105.229388">
  <ele>1613.26</ele>
  <time>2026-08-27T18:26:17Z</time>
  <course>42.99</course>
  <speed>9.25</speed>
  <fix>3d</fix>
</trkpt>
<trkpt lat="40.0739012" lon="-105.2293581">
  <ele>1614.07</ele>
  <time>2026-08-27T18:26:17Z</time>
  <course>38.96</course>
  <speed>9.688849260877166</speed>
  <fix>3d</fix>
</trkpt>
<trkpt lat="40.0738895" lon="-105.2293728">
  <ele>1613.58</ele>
  <time>2026-08-27T18:26:17Z</time>
  <course>43.47</course>
  <speed>9.48</speed>
  <fix>3d</fix>
</trkpt>
<trkpt lat="40.073914" lon="-105.2293419">
  <ele>1614.4</ele>
  <time>2026-08-27T18:26:17Z</time>
  <course>39.32</course>
  <speed>9.914131328563284</speed>
  <fix>3d</fix>
</trkpt>
<trkpt lat="40.073902" lon="-105.2293572">
  <ele>1613.89</ele>
  <time>2026-08-27T18:26:17Z</time>
  <course>43.93</course>
  <speed>9.71</speed>
  <fix>3d</fix>
</trkpt>
<trkpt lat="40.0739268" lon="-105.2293253">
  <ele>1614.72</ele>
  <time>2026-08-27T18:26:17Z</time>
  <course>39.54</course>
  <speed>10.13995069021541</speed>
  <fix>3d</fix>
</trkpt>
<trkpt lat="40.0739146" lon="-105.2293412">
  <ele>1614.21</ele>
  <time>2026-08-27T18:26:17Z</time>
  <course>44.35</course>
  <speed>9.94</speed>
  <fix>3d</fix>
</trkpt>
<trkpt lat="40.0739399" lon="-105.2293083">
  <ele>1615.06</ele>
  <time>2026-08-27T18:26:17Z</time>
  <course>39.73</course>
  <speed>10.337939833448443</speed>
  <fix>3d</fix>
</trkpt>
<trkpt lat="40.0739274" lon="-105.2293246">
  <ele>1614.53</ele>
  <time>2026-08-27T18:26:17Z</time>
  <course>44.74</course>
  <speed>10.16</speed>
  <fix>3d</fix>
</trkpt>
<trkpt lat="40.073953" lon="-105.229291">
  <ele>1615.41</ele>
  <time>2026-08-27T18:26:17Z</time>
  <course>40.52</course>
  <speed>10.472540283999868</speed>
  <fix>3d</fix>
</trkpt>
<trkpt lat="40.0739406" lon="-105.2293076">
  <ele>1614.87</ele>
  <time>2026-08-27T18:26:17Z</time>
  <course>45.07</course>
  <speed>10.36</speed>
  <fix>3d</fix>
</trkpt>
<trkpt lat="40.0739662" lon="-105.2292735">
  <ele>1615.77</ele>
  <time>2026-08-27T18:26:17Z</time>
  <course>41.64</course>
  <speed>10.529506161259416</speed>
  <fix>3d</fix>
</trkpt>
<trkpt lat="40.0739538" lon="-105.2292902">
  <ele>1615.22</ele>
  <time>2026-08-27T18:26:17Z</time>
  <course>45.34</course>
  <speed>10.5</speed>
  <fix>3d</fix>
</trkpt>
<trkpt lat="40.0739794" lon="-105.2292558">
  <ele>1616.15</ele>
  <time>2026-08-27T18:26:17Z</time>
  <course>42.78</course>
  <speed>10.516163749200562</speed>
  <fix>3d</fix>
</trkpt>
<trkpt lat="40.0739671" lon="-105.2292725">
  <ele>1615.58</ele>
  <time>2026-08-27T18:26:17Z</time>
  <course>45.59</course>
  <speed>10.56</speed>
  <fix>3d</fix>
</trkpt>
<trkpt lat="40.0739925" lon="-105.2292381">
  <ele>1616.52</ele>
  <time>2026-08-27T18:26:17Z</time>
  <course>43.73</course>
  <speed>10.474850834260124</speed>
  <fix>3d</fix>
</trkpt>
<trkpt lat="40.0739803" lon="-105.2292547">
  <ele>1615.95</ele>
  <time>2026-08-27T18:26:17Z</time>
  <course>45.87</course>
  <speed>10.56</speed>
  <fix>3d</fix>
</trkpt>
<trkpt lat="40.0740054" lon="-105.2292205">
  <ele>1616.88</ele>
  <time>2026-08-27T18:26:17Z</time>
  <course>44.49</course>
  <speed>10.419332992087355</speed>
  <fix>3d</fix>
</trkpt>
<trkpt lat="40.0739935" lon="-105.229237">
  <ele>1616.32</ele>
  <time>2026-08-27T18:26:17Z</time>
  <course>46.17</course>
  <speed>10.53</speed>
  <fix>3d</fix>
</trkpt>
<trkpt lat="40.0740182" lon="-105.2292027">
  <ele>1617.24</ele>
  <time>2026-08-27T18:26:17Z</time>
  <course>45.07</course>
  <speed>10.349864733415602</speed>
  <fix>3d</fix>
</trkpt>
<trkpt lat="40.0740065" lon="-105.2292191">
  <ele>1616.69</ele>
  <time>2026-08-27T18:26:17Z</time>
  <course>46.46</course>
  <speed>10.47</speed>
  <fix>3d</fix>
</trkpt>
<trkpt lat="40.074031" lon="-105.2291851">
  <ele>1617.6</ele>
  <time>2026-08-27T18:26:17Z</time>
  <course>45.45</course>
  <speed>10.26596804982365</speed>
  <fix>3d</fix>
</trkpt>
<trkpt lat="40.0740194" lon="-105.2292013">
  <ele>1617.05</ele>
  <time>2026-08-27T18:26:17Z</time>
  <course>46.7</course>
  <speed>10.4</speed>
  <fix>3d</fix>
</trkpt>
<trkpt lat="40.0740437" lon="-105.2291673">
  <ele>1617.96</ele>
  <time>2026-08-27T18:26:17Z</time>
  <course>45.7</course>
  <speed>10.18116398060654</speed>
  <fix>3d</fix>
</trkpt>
<trkpt lat="40.0740322" lon="-105.2291835">
  <ele>1617.4</ele>
  <time>2026-08-27T18:26:17Z</time>
  <course>46.86</course>
  <speed>10.32</speed>
  <fix>3d</fix>
</trkpt>
<trkpt lat="40.0740562" lon="-105.2291499">
  <ele>1618.32</ele>
  <time>2026-08-27T18:26:17Z</time>
  <course>45.76</course>
  <speed>10.0817508400079</speed>
  <fix>3d</fix>
</trkpt>
<trkpt lat="40.0740447" lon="-105.2291659">
  <ele>1617.76</ele>
  <time>2026-08-27T18:26:17Z</time>
  <course>46.9</course>
  <speed>10.23</speed>
  <fix>3d</fix>
</trkpt>
<trkpt lat="40.0740686" lon="-105.2291326">
  <ele>1618.69</ele>
  <time>2026-08-27T18:26:17Z</time>
  <course>45.62</course>
  <speed>9.974216761229926</speed>
  <fix>3d</fix>
</trkpt>
<trkpt lat="40.0740573" lon="-105.2291484">
  <ele>1618.12</ele>
  <time>2026-08-27T18:26:17Z</time>
  <course>46.82</course>
  <speed>10.13</speed>
  <fix>3d</fix>
</trkpt>
<trkpt lat="40.074081" lon="-105.2291156">
  <ele>1619.08</ele>
  <time>2026-08-27T18:26:17Z</time>
  <course>45.25</course>
  <speed>9.87380372500892</speed>
  <fix>3d</fix>
</trkpt>
<trkpt lat="40.0740697" lon="-105.2291312">
  <ele>1618.5</ele>
  <time>2026-08-27T18:26:17Z</time>
  <course>46.61</course>
  <speed>10.02</speed>
  <fix>3d</fix>
</trkpt>
<trkpt lat="40.0740933" lon="-105.2290989">
  <ele>1619.48</ele>
  <time>2026-08-27T18:26:17Z</time>
  <course>44.64</course>
  <speed>9.773044561445527</speed>
  <fix>3d</fix>
</trkpt>
<trkpt lat="40.0740821" lon="-105.2291142">
  <ele>1618.88</ele>
  <time>2026-08-27T18:26:17Z</time>
  <course>46.26</course>
  <speed>9.91</speed>
  <fix>3d</fix>
</trkpt>
<trkpt lat="40.0741056" lon="-105.2290826">
  <ele>1619.9</ele>
  <time>2026-08-27T18:26:17Z</time>
  <course>43.87</course>
  <speed>9.644946863513557</speed>
  <fix>3d</fix>
</trkpt>
<trkpt lat="40.0740944" lon="-105.2290976">
  <ele>1619.28</ele>
  <time>2026-08-27T18:26:17Z</time>
  <course>45.75</course>
  <speed>9.8</speed>
  <fix>3d</fix>
</trkpt>
<trkpt lat="40.0741179" lon="-105.2290667">
  <ele>1620.36</ele>
  <time>2026-08-27T18:26:17Z</time>
  <course>43.22</course>
  <speed>9.454972236870926</speed>
  <fix>3d</fix>
</trkpt>
<trkpt lat="40.0741067" lon="-105.2290813">
  <ele>1619.7</ele>
  <time>2026-08-27T18:26:17Z</time>
  <course>45.07</course>
  <speed>9.67</speed>
  <fix>3d</fix>
</trkpt>
<trkpt lat="40.0741301" lon="-105.2290515">
  <ele>1620.85</ele>
  <time>2026-08-27T18:26:17Z</time>
  <course>42.61</course>
  <speed>9.17621381616623</speed>
  <fix>3d</fix>
</trkpt>
<trkpt lat="40.0741188" lon="-105.2290655">
  <ele>1620.15</ele>
  <time>2026-08-27T18:26:17Z</time>
  <course>44.18</course>
  <speed>9.47</speed>
  <fix>3d</fix>
</trkpt>
<trkpt lat="40.074142" lon="-105.2290372">
  <ele>1621.35</ele>
  <time>2026-08-27T18:26:17Z</time>
  <course>41.87</course>
  <speed>8.85858340819795</speed>
  <fix>3d</fix>
</trkpt>
<trkpt lat="40.074131" lon="-105.2290503">
  <ele>1620.64</ele>
  <time>2026-08-27T18:26:17Z</time>
  <course>43.13</course>
  <speed>9.2</speed>
  <fix>3d</fix>
</trkpt>
<trkpt lat="40.0741538" lon="-105.2290236">
  <ele>1621.88</ele>
  <time>2026-08-27T18:26:17Z</time>
  <course>40.82</course>
  <speed>8.516695368510018</speed>
  <fix>3d</fix>
</trkpt>
<trkpt lat="40.074143" lon="-105.229036">
  <ele>1621.15</ele>
  <time>2026-08-27T18:26:17Z</time>
  <course>41.97</course>
  <speed>8.88</speed>
  <fix>3d</fix>
</trkpt>
<trkpt lat="40.0741654" lon="-105.2290109">
  <ele>1622.42</ele>
  <time>2026-08-27T18:26:17Z</time>
  <course>39.3</course>
  <speed>8.147748155165328</speed>
  <fix>3d</fix>
</trkpt>
<trkpt lat="40.0741548" lon="-105.2290225">
  <ele>1621.67</ele>
  <time>2026-08-27T18:26:17Z</time>
  <course>40.66</course>
  <speed>8.53</speed>
  <fix>3d</fix>
</trkpt>
<trkpt lat="40.0741768" lon="-105.2289993">
  <ele>1622.98</ele>
  <time>2026-08-27T18:26:17Z</time>
  <course>37.09</course>
  <speed>7.756004125836963</speed>
  <fix>3d</fix>
</trkpt>
<trkpt lat="40.0741663" lon="-105.2290099">
  <ele>1622.21</ele>
  <time>2026-08-27T18:26:17Z</time>
  <course>39.05</course>
  <speed>8.16</speed>
  <fix>3d</fix>
</trkpt>
<trkpt lat="40.0741879" lon="-105.2289889">
  <ele>1623.59</ele>
  <time>2026-08-27T18:26:17Z</time>
  <course>33.94</course>
  <speed>7.341532537556446</speed>
  <fix>3d</fix>
</trkpt>
<trkpt lat="40.0741776" lon="-105.2289984">
  <ele>1622.78</ele>
  <time>2026-08-27T18:26:17Z</time>
  <course>36.91</course>
  <speed>7.77</speed>
  <fix>3d</fix>
</trkpt>
<trkpt lat="40.0741987" lon="-105.2289799">
  <ele>1624.24</ele>
  <time>2026-08-27T18:26:17Z</time>
  <course>29.42</course>
  <speed>6.883930563275605</speed>
  <fix>3d</fix>
</trkpt>
<trkpt lat="40.0741886" lon="-105.228988">
  <ele>1623.37</ele>
  <time>2026-08-27T18:26:17Z</time>
  <course>33.97</course>
  <speed>7.34</speed>
  <fix>3d</fix>
</trkpt>
<trkpt lat="40.0742094" lon="-105.2289729">
  <ele>1624.97</ele>
  <time>2026-08-27T18:26:17Z</time>
  <course>22.83</course>
  <speed>6.389397467680344</speed>
  <fix>3d</fix>
</trkpt>
<trkpt lat="40.0741995" lon="-105.2289792">
  <ele>1624.02</ele>
  <time>2026-08-27T18:26:17Z</time>
  <course>29.7</course>
  <speed>6.88</speed>
  <fix>3d</fix>
</trkpt>
<trkpt lat="40.0742199" lon="-105.2289683">
  <ele>1625.81</ele>
  <time>2026-08-27T18:26:17Z</time>
  <course>12.17</course>
  <speed>5.889864175004378</speed>
  <fix>3d</fix>
</trkpt>
<trkpt lat="40.0742101" lon="-105.2289721">
  <ele>1624.75</ele>
  <time>2026-08-27T18:26:17Z</time>
  <course>23.12</course>
  <speed>6.38</speed>
  <fix>3d</fix>
</trkpt>
<trkpt lat="40.0742302" lon="-105.2289671">
  <ele>1626.78</ele>
  <time>2026-08-27T18:26:17Z</time>
  <course>0.37</course>
  <speed>5.588604476969183</speed>
  <fix>3d</fix>
</trkpt>
<trkpt lat="40.0742206" lon="-105.2289677">
  <ele>1625.58</ele>
  <time>2026-08-27T18:26:17Z</time>
  <course>12.32</course>
  <speed>5.88</speed>
  <fix>3d</fix>
</trkpt>
<trkpt lat="40.0742398" lon="-105.2289694">
  <ele>1627.81</ele>
  <time>2026-08-27T18:26:17Z</time>
  <course>345.65</course>
  <speed>5.386139619430599</speed>
  <fix>3d</fix>
</trkpt>
<trkpt lat="40.0742307" lon="-105.2289664">
  <ele>1626.52</ele>
  <time>2026-08-27T18:26:17Z</time>
  <course>357.43</course>
  <speed>5.54</speed>
  <fix>3d</fix>
</trkpt>
<trkpt lat="40.0742482" lon="-105.2289748">
  <ele>1628.88</ele>
  <time>2026-08-27T18:26:17Z</time>
  <course>331.79</course>
  <speed>5.131247411692405</speed>
  <fix>3d</fix>
</trkpt>
<trkpt lat="40.0742403" lon="-105.2289687">
  <ele>1627.54</ele>
  <time>2026-08-27T18:26:17Z</time>
  <course>341.3</course>
  <speed>5.33</speed>
  <fix>3d</fix>
</trkpt>
<trkpt lat="40.074255" lon="-105.228982">
  <ele>1629.92</ele>
  <time>2026-08-27T18:26:17Z</time>
  <course>321.04</course>
  <speed>4.829792956224935</speed>
  <fix>3d</fix>
</trkpt>
<trkpt lat="40.0742487" lon="-105.2289742">
  <ele>1628.6</ele>
  <time>2026-08-27T18:26:17Z</time>
  <course>326.45</course>
  <speed>5.13</speed>
  <fix>3d</fix>
</trkpt>
<trkpt lat="40.0742605" lon="-105.2289903">
  <ele>1630.85</ele>
  <time>2026-08-27T18:26:17Z</time>
  <course>310.48</course>
  <speed>4.491068915080239</speed>
  <fix>3d</fix>
</trkpt>
<trkpt lat="40.0742556" lon="-105.2289816">
  <ele>1629.62</ele>
  <time>2026-08-27T18:26:17Z</time>
  <course>314.54</course>
  <speed>4.87</speed>
  <fix>3d</fix>
</trkpt>
<trkpt lat="40.0742645" lon="-105.228999">
  <ele>1631.64</ele>
  <time>2026-08-27T18:26:17Z</time>
  <course>299.81</course>
  <speed>4.156368607330202</speed>
  <fix>3d</fix>
</trkpt>
<trkpt lat="40.074261" lon="-105.2289902">
  <ele>1630.54</ele>
  <time>2026-08-27T18:26:17Z</time>
  <course>304.6</course>
  <speed>4.55</speed>
  <fix>3d</fix>
</trkpt>
<trkpt lat="40.074267" lon="-105.229008">
  <ele>1632.27</ele>
  <time>2026-08-27T18:26:17Z</time>
  <course>291.61</course>
  <speed>3.980012562794243</speed>
  <fix>3d</fix>
</trkpt>
<trkpt lat="40.0742649" lon="-105.2289992">
  <ele>1631.32</ele>
  <time>2026-08-27T18:26:17Z</time>
  <course>294.67</course>
  <speed>4.25</speed>
  <fix>3d</fix>
</trkpt>
<trkpt lat="40.0742682" lon="-105.2290173">
  <ele>1632.71</ele>
  <time>2026-08-27T18:26:17Z</time>
  <course>283.77</course>
  <speed>4.065956222095855</speed>
  <fix>3d</fix>
</trkpt>
<trkpt lat="40.0742673" lon="-105.2290083">
  <ele>1631.94</ele>
  <time>2026-08-27T18:26:17Z</time>
  <course>283.93</course>
  <speed>4.07</speed>
  <fix>3d</fix>
</trkpt>
<trkpt lat="40.0742681" lon="-105.2290273">
  <ele>1633.03</ele>
  <time>2026-08-27T18:26:17Z</time>
  <course>274.14</course>
  <speed>4.440551767517185</speed>
  <fix>3d</fix>
</trkpt>
<trkpt lat="40.0742685" lon="-105.2290178">
  <ele>1632.39</ele>
  <time>2026-08-27T18:26:17Z</time>
  <course>273.06</course>
  <speed>4.14</speed>
  <fix>3d</fix>
</trkpt>
<trkpt lat="40.0742666" lon="-105.2290383">
  <ele>1633.25</ele>
  <time>2026-08-27T18:26:17Z</time>
  <course>261.78</course>
  <speed>5.086305142242255</speed>
  <fix>3d</fix>
</trkpt>
<trkpt lat="40.0742682" lon="-105.2290279">
  <ele>1632.71</ele>
  <time>2026-08-27T18:26:17Z</time>
  <course>263.16</course>
  <speed>4.5</speed>
  <fix>3d</fix>
</trkpt>
<trkpt lat="40.0742636" lon="-105.2290505">
  <ele>1633.41</ele>
  <time>2026-08-27T18:26:17Z</time>
  <course>251.58</course>
  <speed>5.848572475399445</speed>
  <fix>3d</fix>
</trkpt>
<trkpt lat="40.0742665" lon="-105.229039">
  <ele>1632.92</ele>
  <time>2026-08-27T18:26:17Z</time>
  <course>255.1</course>
  <speed>5.12</speed>
  <fix>3d</fix>
</trkpt>
<trkpt lat="40.0742593" lon="-105.2290639">
  <ele>1633.56</ele>
  <time>2026-08-27T18:26:17Z</time>
  <course>244.21</course>
  <speed>6.585537183859795</speed>
  <fix>3d</fix>
</trkpt>
<trkpt lat="40.0742635" lon="-105.2290512">
  <ele>1633.1</ele>
  <time>2026-08-27T18:26:17Z</time>
  <course>249.1</course>
  <speed>5.87</speed>
  <fix>3d</fix>
</trkpt>
<trkpt lat="40.0742538" lon="-105.2290784">
  <ele>1633.73</ele>
  <time>2026-08-27T18:26:17Z</time>
  <course>239.57</course>
  <speed>7.193531816847688</speed>
  <fix>3d</fix>
</trkpt>
<trkpt lat="40.0742591" lon="-105.2290647">
  <ele>1633.26</ele>
  <time>2026-08-27T18:26:17Z</time>
  <course>244.8</course>
  <speed>6.61</speed>
  <fix>3d</fix>
</trkpt>
<trkpt lat="40.0742473" lon="-105.2290936">
  <ele>1633.93</ele>
  <time>2026-08-27T18:26:17Z</time>
  <course>237.04</course>
  <speed>7.679068953981336</speed>
  <fix>3d</fix>
</trkpt>
<trkpt lat="40.0742535" lon="-105.2290793">
  <ele>1633.43</ele>
  <time>2026-08-27T18:26:17Z</time>
  <course>241.78</course>
  <speed>7.24</speed>
  <fix>3d</fix>
</trkpt>
<trkpt lat="40.0742401" lon="-105.2291095">
  <ele>1634.15</ele>
  <time>2026-08-27T18:26:17Z</time>
  <course>235.85</course>
  <speed>8.031344843797955</speed>
  <fix>3d</fix>
</trkpt>
<trkpt lat="40.0742469" lon="-105.2290946">
  <ele>1633.63</ele>
  <time>2026-08-27T18:26:17Z</time>
  <course>239.8</course>
  <speed>7.74</speed>
  <fix>3d</fix>
</trkpt>
<trkpt lat="40.0742324" lon="-105.2291259">
  <ele>1634.4</ele>
  <time>2026-08-27T18:26:17Z</time>
  <course>235.52</course>
  <speed>8.23097199606462</speed>
  <fix>3d</fix>
</trkpt>
<trkpt lat="40.0742396" lon="-105.2291106">
  <ele>1633.86</ele>
  <time>2026-08-27T18:26:17Z</time>
  <course>238.62</course>
  <speed>8.1</speed>
  <fix>3d</fix>
</trkpt>
<trkpt lat="40.0742245" lon="-105.2291425">
  <ele>1634.68</ele>
  <time>2026-08-27T18:26:17Z</time>
  <course>236.29</course>
  <speed>8.255283156863852</speed>
  <fix>3d</fix>
</trkpt>
<trkpt lat="40.0742318" lon="-105.2291271">
  <ele>1634.12</ele>
  <time>2026-08-27T18:26:17Z</time>
  <course>238.03</course>
  <speed>8.32</speed>
  <fix>3d</fix>
</trkpt>
<trkpt lat="40.0742167" lon="-105.229159">
  <ele>1634.99</ele>
  <time>2026-08-27T18:26:17Z</time>
  <course>238.08</course>
  <speed>8.105232877592107</speed>
  <fix>3d</fix>
</trkpt>
<trkpt lat="40.0742238" lon="-105.2291437">
  <ele>1634.41</ele>
  <time>2026-08-27T18:26:17Z</time>
  <course>237.97</course>
  <speed>8.35</speed>
  <fix>3d</fix>
</trkpt>
<trkpt lat="40.0742092" lon="-105.2291753">
  <ele>1635.3</ele>
  <time>2026-08-27T18:26:17Z</time>
  <course>240.26</course>
  <speed>7.848171761627035</speed>
  <fix>3d</fix>
</trkpt>
<trkpt lat="40.0742159" lon="-105.2291602">
  <ele>1634.72</ele>
  <time>2026-08-27T18:26:17Z</time>
  <course>238.45</course>
  <speed>8.22</speed>
  <fix>3d</fix>
</trkpt>
<trkpt lat="40.0742022" lon="-105.2291911">
  <ele>1635.6</ele>
  <time>2026-08-27T18:26:17Z</time>
  <course>242.44</course>
  <speed>7.550801281983257</speed>
  <fix>3d</fix>
</trkpt>
<trkpt lat="40.0742084" lon="-105.2291765">
  <ele>1635.04</ele>
  <time>2026-08-27T18:26:17Z</time>
  <course>239.46</course>
  <speed>7.97</speed>
  <fix>3d</fix>
</trkpt>
<trkpt lat="40.0741958" lon="-105.2292067">
  <ele>1635.88</ele>
  <time>2026-08-27T18:26:17Z</time>
  <course>244.61</course>
  <speed>7.254074717012501</speed>
  <fix>3d</fix>
</trkpt>
<trkpt lat="40.0742014" lon="-105.2291925">
  <ele>1635.35</ele>
  <time>2026-08-27T18:26:17Z</time>
  <course>240.95</course>
  <speed>7.67</speed>
  <fix>3d</fix>
</trkpt>
<trkpt lat="40.0741901" lon="-105.2292218">
  <ele>1636.14</ele>
  <time>2026-08-27T18:26:17Z</time>
  <course>246.74</course>
  <speed>6.957082721946032</speed>
  <fix>3d</fix>
</trkpt>
<trkpt lat="40.0741951" lon="-105.229208">
  <ele>1635.65</ele>
  <time>2026-08-27T18:26:17Z</time>
  <course>242.83</course>
  <speed>7.36</speed>
  <fix>3d</fix>
</trkpt>
<trkpt lat="40.074185" lon="-105.2292367">
  <ele>1636.4</ele>
  <time>2026-08-27T18:26:17Z</time>
  <course>248.9</course>
  <speed>6.6838461981107855</speed>
  <fix>3d</fix>
</trkpt>
<trkpt lat="40.0741893" lon="-105.2292233">
  <ele>1635.92</ele>
  <time>2026-08-27T18:26:17Z</time>
  <course>245.02</course>
  <speed>7.06</speed>
  <fix>3d</fix>
</trkpt>
<trkpt lat="40.0741806" lon="-105.2292512">
  <ele>1636.65</ele>
  <time>2026-08-27T18:26:17Z</time>
  <course>250.97</course>
  <speed>6.457282710242754</speed>
  <fix>3d</fix>
</trkpt>
<trkpt lat="40.0741844" lon="-105.2292381">
  <ele>1636.19</ele>
  <time>2026-08-27T18:26:17Z</time>
  <course>247.41</course>
  <speed>6.78</speed>
  <fix>3d</fix>
</trkpt>
<trkpt lat="40.0741768" lon="-105.2292655">
  <ele>1636.9</ele>
  <time>2026-08-27T18:26:17Z</time>
  <course>252.83</course>
  <speed>6.293250352560273</speed>
  <fix>3d</fix>
</trkpt>
<trkpt lat="40.07418" lon="-105.2292526">
  <ele>1636.44</ele>
  <time>2026-08-27T18:26:17Z</time>
  <course>249.88</course>
  <speed>6.54</speed>
  <fix>3d</fix>
</trkpt>
<trkpt lat="40.0741735" lon="-105.2292798">
  <ele>1637.16</ele>
  <time>2026-08-27T18:26:17Z</time>
  <course>254.21</course>
  <speed>6.182628890690433</speed>
  <fix>3d</fix>
</trkpt>
<trkpt lat="40.0741763" lon="-105.229267">
  <ele>1636.69</ele>
  <time>2026-08-27T18:26:17Z</time>
  <course>252.27</course>
  <speed>6.37</speed>
  <fix>3d</fix>
</trkpt>
<trkpt lat="40.0741706" lon="-105.229294">
  <ele>1637.44</ele>
  <time>2026-08-27T18:26:17Z</time>
  <course>255.89</course>
  <speed>6.082795410006817</speed>
  <fix>3d</fix>
</trkpt>
<trkpt lat="40.074173" lon="-105.2292812">
  <ele>1636.95</ele>
  <time>2026-08-27T18:26:17Z</time>
  <course>254.42</course>
  <speed>6.24</speed>
  <fix>3d</fix>
</trkpt>
<trkpt lat="40.074168" lon="-105.2293079">
  <ele>1637.74</ele>
  <time>2026-08-27T18:26:17Z</time>
  <course>257.32</course>
  <speed>5.985123223459982</speed>
  <fix>3d</fix>
</trkpt>
<trkpt lat="40.0741702" lon="-105.2292952">
  <ele>1637.23</ele>
  <time>2026-08-27T18:26:17Z</time>
  <course>256.22</course>
  <speed>6.13</speed>
  <fix>3d</fix>
</trkpt>
<trkpt lat="40.0741658" lon="-105.2293217">
  <ele>1638.05</ele>
  <time>2026-08-27T18:26:17Z</time>
  <course>258.31</course>
  <speed>5.922837157984338</speed>
  <fix>3d</fix>
</trkpt>
<trkpt lat="40.0741677" lon="-105.2293092">
  <ele>1637.53</ele>
  <time>2026-08-27T18:26:17Z</time>
  <course>257.66</course>
  <speed>6.03</speed>
  <fix>3d</fix>
</trkpt>
<trkpt lat="40.0741637" lon="-105.2293355">
  <ele>1638.38</ele>
  <time>2026-08-27T18:26:18Z</time>
  <course>258.82</course>
  <speed>5.928684508388012</speed>
  <fix>3d</fix>
</trkpt>
<trkpt lat="40.0741655" lon="-105.229323">
  <ele>1637.85</ele>
  <time>2026-08-27T18:26:18Z</time>
  <course>258.73</course>
  <speed>5.96</speed>
  <fix>3d</fix>
</trkpt>
<trkpt lat="40.0741617" lon="-105.2293493">
  <ele>1638.73</ele>
  <time>2026-08-27T18:26:18Z</time>
  <course>258.86</course>
  <speed>6.005364268718426</speed>
  <fix>3d</fix>
</trkpt>
<trkpt lat="40.0741635" lon="-105.2293368">
  <ele>1638.17</ele>
  <time>2026-08-27T18:26:18Z</time>
  <course>259.43</course>
  <speed>5.95</speed>
  <fix>3d</fix>
</trkpt>
<trkpt lat="40.0741597" lon="-105.2293634">
  <ele>1639.08</ele>
  <time>2026-08-27T18:26:18Z</time>
  <course>258.34</course>
  <speed>6.162093800000126</speed>
  <fix>3d</fix>
</trkpt>
<trkpt lat="40.0741616" lon="-105.2293506">
  <ele>1638.52</ele>
  <time>2026-08-27T18:26:18Z</time>
  <course>259.69</course>
  <speed>6.02</speed>
  <fix>3d</fix>
</trkpt>
<trkpt lat="40.0741575" lon="-105.2293779">
  <ele>1639.44</ele>
  <time>2026-08-27T18:26:18Z</time>
  <course>257.23</course>
  <speed>6.3915334623234195</speed>
  <fix>3d</fix>
</trkpt>
<trkpt lat="40.0741596" lon="-105.2293646">
  <ele>1638.88</ele>
  <time>2026-08-27T18:26:18Z</time>
  <course>259.46</course>
  <speed>6.16</speed>
  <fix>3d</fix>
</trkpt>
<trkpt lat="40.0741551" lon="-105.2293929">
  <ele>1639.83</ele>
  <time>2026-08-27T18:26:18Z</time>
  <course>255.64</course>
  <speed>6.66195166599098</speed>
  <fix>3d</fix>
</trkpt>
<trkpt lat="40.0741575" lon="-105.2293791">
  <ele>1639.25</ele>
  <time>2026-08-27T18:26:18Z</time>
  <course>258.76</course>
  <speed>6.38</speed>
  <fix>3d</fix>
</trkpt>
<trkpt lat="40.0741524" lon="-105.2294084">
  <ele>1640.23</ele>
  <time>2026-08-27T18:26:18Z</time>
  <course>253.82</course>
  <speed>6.9656299069072</speed>
  <fix>3d</fix>
</trkpt>
<trkpt lat="40.0741551" lon="-105.229394">
  <ele>1639.63</ele>
  <time>2026-08-27T18:26:18Z</time>
  <course>257.69</course>
  <speed>6.65</speed>
  <fix>3d</fix>
</trkpt>
<trkpt lat="40.0741492" lon="-105.2294245">
  <ele>1640.66</ele>
  <time>2026-08-27T18:26:18Z</time>
  <course>252.0</course>
  <speed>7.265548843686896</speed>
  <fix>3d</fix>
</trkpt>
<trkpt lat="40.0741524" lon="-105.2294096">
  <ele>1640.04</ele>
  <time>2026-08-27T18:26:18Z</time>
  <course>256.39</course>
  <speed>6.95</speed>
  <fix>3d</fix>
</trkpt>
<trkpt lat="40.0741457" lon="-105.2294414">
  <ele>1641.11</ele>
  <time>2026-08-27T18:26:18Z</time>
  <course>250.43</course>
  <speed>7.540059681461414</speed>
  <fix>3d</fix>
</trkpt>
<trkpt lat="40.0741492" lon="-105.2294258">
  <ele>1640.47</ele>
  <time>2026-08-27T18:26:18Z</time>
  <course>255.04</course>
  <speed>7.24</speed>
  <fix>3d</fix>
</trkpt>
<trkpt lat="40.0741417" lon="-105.2294585">
  <ele>1641.59</ele>
  <time>2026-08-27T18:26:18Z</time>
  <course>249.29</course>
  <speed>7.7581505528057395</speed>
  <fix>3d</fix>
</trkpt>
<trkpt lat="40.0741457" lon="-105.2294425">
  <ele>1640.91</ele>
  <time>2026-08-27T18:26:18Z</time>
  <course>253.76</course>
  <speed>7.51</speed>
  <fix>3d</fix>
</trkpt>
<trkpt lat="40.0741374" lon="-105.2294761">
  <ele>1642.07</ele>
  <time>2026-08-27T18:26:18Z</time>
  <course>248.56</course>
  <speed>7.93416032104217</speed>
  <fix>3d</fix>
</trkpt>
<trkpt lat="40.0741417" lon="-105.2294597">
  <ele>1641.39</ele>
  <time>2026-08-27T18:26:18Z</time>
  <course>252.65</course>
  <speed>7.74</speed>
  <fix>3d</fix>
</trkpt>
<trkpt lat="40.0741329" lon="-105.2294939">
  <ele>1642.56</ele>
  <time>2026-08-27T18:26:18Z</time>
  <course>248.17</course>
  <speed>8.057840901879361</speed>
  <fix>3d</fix>
</trkpt>
<trkpt lat="40.0741374" lon="-105.2294772">
  <ele>1641.87</ele>
  <time>2026-08-27T18:26:18Z</time>
  <course>251.75</course>
  <speed>7.92</speed>
  <fix>3d</fix>
</trkpt>
<trkpt lat="40.0741282" lon="-105.2295118">
  <ele>1643.04</ele>
  <time>2026-08-27T18:26:18Z</time>
  <course>248.01</course>
  <speed>8.153539108877812</speed>
  <fix>3d</fix>
</trkpt>
<trkpt lat="40.0741328" lon="-105.229495">
  <ele>1642.35</ele>
  <time>2026-08-27T18:26:18Z</time>
  <course>251.07</course>
  <speed>8.05</speed>
  <fix>3d</fix>
</trkpt>
<trkpt lat="40.0741233" lon="-105.2295299">
  <ele>1643.53</ele>
  <time>2026-08-27T18:26:18Z</time>
  <course>247.96</course>
  <speed>8.230151881952118</speed>
  <fix>3d</fix>
</trkpt>
<trkpt lat="40.074128" lon="-105.229513">
  <ele>1642.84</ele>
  <time>2026-08-27T18:26:18Z</time>
  <course>250.6</course>
  <speed>8.15</speed>
  <fix>3d</fix>
</trkpt>
<trkpt lat="40.0741183" lon="-105.2295482">
  <ele>1644.0</ele>
  <time>2026-08-27T18:26:18Z</time>
  <course>247.94</course>
  <speed>8.300132529062413</speed>
  <fix>3d</fix>
</trkpt>
<trkpt lat="40.074123" lon="-105.229531">
  <ele>1643.33</ele>
  <time>2026-08-27T18:26:18Z</time>
  <course>250.3</course>
  <speed>8.23</speed>
  <fix>3d</fix>
</trkpt>
<trkpt lat="40.0741132" lon="-105.2295666">
  <ele>1644.47</ele>
  <time>2026-08-27T18:26:18Z</time>
  <course>247.88</course>
  <speed>8.385564977984489</speed>
  <fix>3d</fix>
</trkpt>
<trkpt lat="40.0741181" lon="-105.2295494">
  <ele>1643.82</ele>
  <time>2026-08-27T18:26:18Z</time>
  <course>250.16</course>
  <speed>8.31</speed>
  <fix>3d</fix>
</trkpt>
<trkpt lat="40.0741081" lon="-105.2295852">
  <ele>1644.94</ele>
  <time>2026-08-27T18:26:18Z</time>
  <course>247.84</course>
  <speed>8.477027781009097</speed>
  <fix>3d</fix>
</trkpt>
<trkpt lat="40.0741129" lon="-105.2295678">
  <ele>1644.29</ele>
  <time>2026-08-27T18:26:18Z</time>
  <course>250.14</course>
  <speed>8.39</speed>
  <fix>3d</fix>
</trkpt>
<trkpt lat="40.074103" lon="-105.229604">
  <ele>1645.41</ele>
  <time>2026-08-27T18:26:18Z</time>
  <course>247.83</course>
  <speed>8.57792515705284</speed>
  <fix>3d</fix>
</trkpt>
<trkpt lat="40.0741078" lon="-105.2295864">
  <ele>1644.76</ele>
  <time>2026-08-27T18:26:18Z</time>
  <course>250.19</course>
  <speed>8.49</speed>
  <fix>3d</fix>
</trkpt>
<trkpt lat="40.0740978" lon="-105.2296232">
  <ele>1645.88</ele>
  <time>2026-08-27T18:26:18Z</time>
  <course>247.9</course>
  <speed>8.675511512297128</speed>
  <fix>3d</fix>
</trkpt>
<trkpt lat="40.0741027" lon="-105.2296053">
  <ele>1645.22</ele>
  <time>2026-08-27T18:26:18Z</time>
  <course>250.29</course>
  <speed>8.59</speed>
  <fix>3d</fix>
</trkpt>
<trkpt lat="40.0740925" lon="-105.2296426">
  <ele>1646.36</ele>
  <time>2026-08-27T18:26:18Z</time>
  <course>248.08</course>
  <speed>8.760422364247058</speed>
  <fix>3d</fix>
</trkpt>
<trkpt lat="40.0740974" lon="-105.2296243">
  <ele>1645.69</ele>
  <time>2026-08-27T18:26:18Z</time>
  <course>250.42</course>
  <speed>8.68</speed>
  <fix>3d</fix>
</trkpt>
<trkpt lat="40.0740873" lon="-105.2296621">
  <ele>1646.84</ele>
  <time>2026-08-27T18:26:18Z</time>
  <course>248.34</course>
  <speed>8.835983250323643</speed>
  <fix>3d</fix>
</trkpt>
<trkpt lat="40.0740921" lon="-105.2296437">
  <ele>1646.17</ele>
  <time>2026-08-27T18:26:18Z</time>
  <course>250.59</course>
  <speed>8.77</speed>
  <fix>3d</fix>
</trkpt>
<trkpt lat="40.0740821" lon="-105.2296818">
  <ele>1647.32</ele>
  <time>2026-08-27T18:26:18Z</time>
  <course>248.63</course>
  <speed>8.898921282942107</speed>
  <fix>3d</fix>
</trkpt>
<trkpt lat="40.0740869" lon="-105.2296633">
  <ele>1646.64</ele>
  <time>2026-08-27T18:26:18Z</time>
  <course>250.78</course>
  <speed>8.85</speed>
  <fix>3d</fix>
</trkpt>
<trkpt lat="40.0740769" lon="-105.2297017">
  <ele>1647.81</ele>
  <time>2026-08-27T18:26:18Z</time>
  <course>248.97</course>
  <speed>8.95877781843037</speed>
  <fix>3d</fix>
</trkpt>
<trkpt lat="40.0740816" lon="-105.229683">
  <ele>1647.12</ele>
  <time>2026-08-27T18:26:18Z</time>
  <course>251.0</course>
  <speed>8.91</speed>
  <fix>3d</fix>
</trkpt>
<trkpt lat="40.0740717" lon="-105.2297217">
  <ele>1648.29</ele>
  <time>2026-08-27T18:26:18Z</time>
  <course>249.35</course>
  <speed>8.999844443100114</speed>
  <fix>3d</fix>
</trkpt>
<trkpt lat="40.0740764" lon="-105.2297029">
  <ele>1647.6</ele>
  <time>2026-08-27T18:26:18Z</time>
  <course>251.24</course>
  <speed>8.97</speed>
  <fix>3d</fix>
</trkpt>
<trkpt lat="40.0740666" lon="-105.2297418">
  <ele>1648.77</ele>
  <time>2026-08-27T18:26:18Z</time>
  <course>249.74</course>
  <speed>9.028427327059791</speed>
  <fix>3d</fix>
</trkpt>
<trkpt lat="40.0740713" lon="-105.2297229">
  <ele>1648.08</ele>
  <time>2026-08-27T18:26:18Z</time>
  <course>251.48</course>
  <speed>9.01</speed>
  <fix>3d</fix>
</trkpt>
<trkpt lat="40.0740616" lon="-105.2297619">
  <ele>1649.26</ele>
  <time>2026-08-27T18:26:18Z</time>
  <course>250.08</course>
  <speed>9.047679260451268</speed>
  <fix>3d</fix>
</trkpt>
<trkpt lat="40.0740662" lon="-105.229743">
  <ele>1648.56</ele>
  <time>2026-08-27T18:26:18Z</time>
  <course>251.72</course>
  <speed>9.04</speed>
  <fix>3d</fix>
</trkpt>
<trkpt lat="40.0740566" lon="-105.229782">
  <ele>1649.74</ele>
  <time>2026-08-27T18:26:18Z</time>
  <course>250.41</course>
  <speed>9.05756037793842</speed>
  <fix>3d</fix>
</trkpt>
<trkpt lat="40.0740611" lon="-105.2297633">
  <ele>1649.04</ele>
  <time>2026-08-27T18:26:18Z</time>
  <course>251.96</course>
  <speed>9.07</speed>
  <fix>3d</fix>
</trkpt>
<trkpt lat="40.0740516" lon="-105.2298023">
  <ele>1650.23</ele>
  <time>2026-08-27T18:26:18Z</time>
  <course>250.7</course>
  <speed>9.070578812843202</speed>
  <fix>3d</fix>
</trkpt>
<trkpt lat="40.0740562" lon="-105.2297835">
  <ele>1649.53</ele>
  <time>2026-08-27T18:26:18Z</time>
  <course>252.18</course>
  <speed>9.08</speed>
  <fix>3d</fix>
</trkpt>
<trkpt lat="40.0740467" lon="-105.2298227">
  <ele>1650.72</ele>
  <time>2026-08-27T18:26:18Z</time>
  <course>250.95</course>
  <speed>9.07412254711165</speed>
  <fix>3d</fix>
</trkpt>
<trkpt lat="40.0740512" lon="-105.2298039">
  <ele>1650.01</ele>
  <time>2026-08-27T18:26:18Z</time>
  <course>252.37</course>
  <speed>9.1</speed>
  <fix>3d</fix>
</trkpt>
<trkpt lat="40.0740418" lon="-105.2298431">
  <ele>1651.21</ele>
  <time>2026-08-27T18:26:18Z</time>
  <course>251.15</course>
  <speed>9.06816960582454</speed>
  <fix>3d</fix>
</trkpt>
<trkpt lat="40.0740462" lon="-105.2298242">
  <ele>1650.49</ele>
  <time>2026-08-27T18:26:18Z</time>
  <course>252.52</course>
  <speed>9.1</speed>
  <fix>3d</fix>
</trkpt>
<trkpt lat="40.0740369" lon="-105.2298635">
  <ele>1651.7</ele>
  <time>2026-08-27T18:26:18Z</time>
  <course>251.34</course>
  <speed>9.065208216031223</speed>
  <fix>3d</fix>
</trkpt>
<trkpt lat="40.0740413" lon="-105.2298447">
  <ele>1650.98</ele>
  <time>2026-08-27T18:26:18Z</time>
  <course>252.64</course>
  <speed>9.1</speed>
  <fix>3d</fix>
</trkpt>
<trkpt lat="40.0740321" lon="-105.2298839">
  <ele>1652.19</ele>
  <time>2026-08-27T18:26:18Z</time>
  <course>251.48</course>
  <speed>9.052701254321828</speed>
  <fix>3d</fix>
</trkpt>
<trkpt lat="40.0740364" lon="-105.229865">
  <ele>1651.46</ele>
  <time>2026-08-27T18:26:18Z</time>
  <course>252.71</course>
  <speed>9.09</speed>
  <fix>3d</fix>
</trkpt>
<trkpt lat="40.0740273" lon="-105.2299042">
  <ele>1652.67</ele>
  <time>2026-08-27T18:26:18Z</time>
  <course>251.59</course>
  <speed>9.040199112851441</speed>
  <fix>3d</fix>
</trkpt>
<trkpt lat="40.0740316" lon="-105.2298855">
  <ele>1651.95</ele>
  <time>2026-08-27T18:26:18Z</time>
  <course>252.76</course>
  <speed>9.08</speed>
  <fix>3d</fix>
</trkpt>
<trkpt lat="40.0740224" lon="-105.2299245">
  <ele>1653.15</ele>
  <time>2026-08-27T18:26:18Z</time>
  <course>251.61</course>
  <speed>9.0115315013598</speed>
  <fix>3d</fix>
</trkpt>
<trkpt lat="40.0740268" lon="-105.2299058">
  <ele>1652.44</ele>
  <time>2026-08-27T18:26:18Z</time>
  <course>252.77</course>
  <speed>9.06</speed>
  <fix>3d</fix>
</trkpt>
<trkpt lat="40.0740176" lon="-105.2299447">
  <ele>1653.63</ele>
  <time>2026-08-27T18:26:18Z</time>
  <course>251.63</course>
  <speed>8.992424589619866</speed>
  <fix>3d</fix>
</trkpt>
<trkpt lat="40.074022" lon="-105.2299261">
  <ele>1652.92</ele>
  <time>2026-08-27T18:26:18Z</time>
  <course>252.75</course>
  <speed>9.04</speed>
  <fix>3d</fix>
</trkpt>
<trkpt lat="40.0740128" lon="-105.2299649">
  <ele>1654.12</ele>
  <time>2026-08-27T18:26:18Z</time>
  <course>251.59</course>
  <speed>8.97332157007649</speed>
  <fix>3d</fix>
</trkpt>
<trkpt lat="40.0740172" lon="-105.2299463">
  <ele>1653.41</ele>
  <time>2026-08-27T18:26:18Z</time>
  <course>252.71</course>
  <speed>9.02</speed>
  <fix>3d</fix>
</trkpt>
<trkpt lat="40.074008" lon="-105.229985">
  <ele>1654.61</ele>
  <time>2026-08-27T18:26:18Z</time>
  <course>251.52</course>
  <speed>8.947653323637432</speed>
  <fix>3d</fix>
</trkpt>
<trkpt lat="40.0740123" lon="-105.2299666">
  <ele>1653.9</ele>
  <time>2026-08-27T18:26:18Z</time>
  <course>252.64</course>
  <speed>8.99</speed>
  <fix>3d</fix>
</trkpt>
<trkpt lat="40.0740032" lon="-105.230005">
  <ele>1655.1</ele>
  <time>2026-08-27T18:26:18Z</time>
  <course>251.4</course>
  <speed>8.931562013444232</speed>
  <fix>3d</fix>
</trkpt>
<trkpt lat="40.0740075" lon="-105.2299867">
  <ele>1654.39</ele>
  <time>2026-08-27T18:26:18Z</time>
  <course>252.54</course>
  <speed>8.97</speed>
  <fix>3d</fix>
</trkpt>
<trkpt lat="40.0739983" lon="-105.230025">
  <ele>1655.59</ele>
  <time>2026-08-27T18:26:18Z</time>
  <course>251.26</course>
  <speed>8.918520056601318</speed>
  <fix>3d</fix>
</trkpt>
<trkpt lat="40.0740026" lon="-105.2300068">
  <ele>1654.89</ele>
  <time>2026-08-27T18:26:18Z</time>
  <course>252.43</course>
  <speed>8.95</speed>
  <fix>3d</fix>
</trkpt>
<trkpt lat="40.0739934" lon="-105.2300452">
  <ele>1656.08</ele>
  <time>2026-08-27T18:26:18Z</time>
  <course>251.09</course>
  <speed>8.912025583446225</speed>
  <fix>3d</fix>
</trkpt>
<trkpt lat="40.0739978" lon="-105.2300267">
  <ele>1655.38</ele>
  <time>2026-08-27T18:26:18Z</time>
  <course>252.29</course>
  <speed>8.94</speed>
  <fix>3d</fix>
</trkpt>
<trkpt lat="40.0739884" lon="-105.2300652">
  <ele>1656.58</ele>
  <time>2026-08-27T18:26:18Z</time>
  <course>250.94</course>
  <speed>8.899089841101729</speed>
  <fix>3d</fix>
</trkpt>
<trkpt lat="40.0739929" lon="-105.2300468">
  <ele>1655.87</ele>
  <time>2026-08-27T18:26:18Z</time>
  <course>252.16</course>
  <speed>8.93</speed>
  <fix>3d</fix>
</trkpt>
<trkpt lat="40.0739834" lon="-105.2300852">
  <ele>1657.07</ele>
  <time>2026-08-27T18:26:18Z</time>
  <course>250.77</course>
  <speed>8.905245645124001</speed>
  <fix>3d</fix>
</trkpt>
<trkpt lat="40.0739879" lon="-105.2300668">
  <ele>1656.37</ele>
  <time>2026-08-27T18:26:18Z</time>
  <course>252.02</course>
  <speed>8.92</speed>
  <fix>3d</fix>
</trkpt>
<trkpt lat="40.0739784" lon="-105.2301052">
  <ele>1657.57</ele>
  <time>2026-08-27T18:26:18Z</time>
  <course>250.69</course>
  <speed>8.901937991246625</speed>
  <fix>3d</fix>
</trkpt>
<trkpt lat="40.073983" lon="-105.2300867">
  <ele>1656.87</ele>
  <time>2026-08-27T18:26:18Z</time>
  <course>251.88</course>
  <speed>8.91</speed>
  <fix>3d</fix>
</trkpt>
<trkpt lat="40.0739734" lon="-105.2301251">
  <ele>1658.07</ele>
  <time>2026-08-27T18:26:18Z</time>
  <course>250.54</course>
  <speed>8.895555069808742</speed>
  <fix>3d</fix>
</trkpt>
<trkpt lat="40.0739779" lon="-105.2301066">
  <ele>1657.37</ele>
  <time>2026-08-27T18:26:18Z</time>
  <course>251.76</course>
  <speed>8.91</speed>
  <fix>3d</fix>
</trkpt>
<trkpt lat="40.0739683" lon="-105.230145">
  <ele>1658.56</ele>
  <time>2026-08-27T18:26:18Z</time>
  <course>250.45</course>
  <speed>8.901825655448437</speed>
  <fix>3d</fix>
</trkpt>
<trkpt lat="40.0739729" lon="-105.2301265">
  <ele>1657.86</ele>
  <time>2026-08-27T18:26:18Z</time>
  <course>251.65</course>
  <speed>8.91</speed>
  <fix>3d</fix>
</trkpt>
<trkpt lat="40.0739632" lon="-105.2301649">
  <ele>1659.06</ele>
  <time>2026-08-27T18:26:18Z</time>
  <course>250.36</course>
  <speed>8.91446577199105</speed>
  <fix>3d</fix>
</trkpt>
<trkpt lat="40.0739679" lon="-105.2301463">
  <ele>1658.36</ele>
  <time>2026-08-27T18:26:18Z</time>
  <course>251.56</course>
  <speed>8.91</speed>
  <fix>3d</fix>
</trkpt>
<trkpt lat="40.0739581" lon="-105.2301848">
  <ele>1659.56</ele>
  <time>2026-08-27T18:26:18Z</time>
  <course>250.27</course>
  <speed>8.927110394747004</speed>
  <fix>3d</fix>
</trkpt>
<trkpt lat="40.0739628" lon="-105.2301661">
  <ele>1658.86</ele>
  <time>2026-08-27T18:26:18Z</time>
  <course>251.49</course>
  <speed>8.92</speed>
  <fix>3d</fix>
</trkpt>
<trkpt lat="40.073953" lon="-105.2302047">
  <ele>1660.05</ele>
  <time>2026-08-27T18:26:18Z</time>
  <course>250.22</course>
  <speed>8.939759504595187</speed>
  <fix>3d</fix>
</trkpt>
<trkpt lat="40.0739577" lon="-105.230186">
  <ele>1659.36</ele>
  <time>2026-08-27T18:26:18Z</time>
  <course>251.44</course>
  <speed>8.93</speed>
  <fix>3d</fix>
</trkpt>
<trkpt lat="40.0739479" lon="-105.2302246">
  <ele>1660.55</ele>
  <time>2026-08-27T18:26:18Z</time>
  <course>250.19</course>
  <speed>8.949245778276513</speed>
  <fix>3d</fix>
</trkpt>
<trkpt lat="40.0739526" lon="-105.2302059">
  <ele>1659.85</ele>
  <time>2026-08-27T18:26:18Z</time>
  <course>251.41</course>
  <speed>8.94</speed>
  <fix>3d</fix>
</trkpt>
<trkpt lat="40.0739428" lon="-105.2302447">
  <ele>1661.05</ele>
  <time>2026-08-27T18:26:18Z</time>
  <course>250.17</course>
  <speed>8.971382279225425</speed>
  <fix>3d</fix>
</trkpt>
<trkpt lat="40.0739475" lon="-105.2302258">
  <ele>1660.35</ele>
  <time>2026-08-27T18:26:18Z</time>
  <course>251.4</course>
  <speed>8.95</speed>
  <fix>3d</fix>
</trkpt>
<trkpt lat="40.0739376" lon="-105.2302648">
  <ele>1661.55</ele>
  <time>2026-08-27T18:26:18Z</time>
  <course>250.19</course>
  <speed>8.990355944010226</speed>
  <fix>3d</fix>
</trkpt>
<trkpt lat="40.0739423" lon="-105.2302457">
  <ele>1660.85</ele>
  <time>2026-08-27T18:26:18Z</time>
  <course>251.41</course>
  <speed>8.97</speed>
  <fix>3d</fix>
</trkpt>
<trkpt lat="40.0739324" lon="-105.2302849">
  <ele>1662.05</ele>
  <time>2026-08-27T18:26:18Z</time>
  <course>250.22</course>
  <speed>9.009334048640888</speed>
  <fix>3d</fix>
</trkpt>
<trkpt lat="40.0739372" lon="-105.2302658">
  <ele>1661.35</ele>
  <time>2026-08-27T18:26:18Z</time>
  <course>251.43</course>
  <speed>8.99</speed>
  <fix>3d</fix>
</trkpt>
<trkpt lat="40.0739273" lon="-105.230305">
  <ele>1662.55</ele>
  <time>2026-08-27T18:26:18Z</time>
  <course>250.28</course>
  <speed>9.018824757139923</speed>
  <fix>3d</fix>
</trkpt>
<trkpt lat="40.073932" lon="-105.2302859">
  <ele>1661.85</ele>
  <time>2026-08-27T18:26:18Z</time>
  <course>251.46</course>
  <speed>9.01</speed>
  <fix>3d</fix>
</trkpt>
<trkpt lat="40.0739222" lon="-105.230325">
  <ele>1663.05</ele>
  <time>2026-08-27T18:26:18Z</time>
  <course>250.33</course>
  <speed>9.03780946911363</speed>
  <fix>3d</fix>
</trkpt>
<trkpt lat="40.0739269" lon="-105.230306">
  <ele>1662.35</ele>
  <time>2026-08-27T18:26:18Z</time>
  <course>251.51</course>
  <speed>9.03</speed>
  <fix>3d</fix>
</trkpt>
<trkpt lat="40.073917" lon="-105.2303452">
  <ele>1663.55</ele>
  <time>2026-08-27T18:26:18Z</time>
  <course>250.43</course>
  <speed>9.053667765055222</speed>
  <fix>3d</fix>
</trkpt>
<trkpt lat="40.0739217" lon="-105.2303261">
  <ele>1662.85</ele>
  <time>2026-08-27T18:26:18Z</time>
  <course>251.56</course>
  <speed>9.05</speed>
  <fix>3d</fix>
</trkpt>
<trkpt lat="40.0739119" lon="-105.2303653">
  <ele>1664.05</ele>
  <time>2026-08-27T18:26:18Z</time>
  <course>250.47</course>
  <speed>9.072667744384779</speed>
  <fix>3d</fix>
</trkpt>
<trkpt lat="40.0739166" lon="-105.2303462">
  <ele>1663.34</ele>
  <time>2026-08-27T18:26:18Z</time>
  <course>251.62</course>
  <speed>9.07</speed>
  <fix>3d</fix>
</trkpt>
<trkpt lat="40.0739068" lon="-105.2303855">
  <ele>1664.55</ele>
  <time>2026-08-27T18:26:18Z</time>
  <course>250.56</course>
  <speed>9.088564243047413</speed>
  <fix>3d</fix>
</trkpt>
<trkpt lat="40.0739114" lon="-105.2303665">
  <ele>1663.84</ele>
  <time>2026-08-27T18:26:18Z</time>
  <course>251.69</course>
  <speed>9.09</speed>
  <fix>3d</fix>
</trkpt>
<trkpt lat="40.0739017" lon="-105.2304057">
  <ele>1665.06</ele>
  <time>2026-08-27T18:26:18Z</time>
  <course>250.66</course>
  <speed>9.107579261252685</speed>
  <fix>3d</fix>
</trkpt>
<trkpt lat="40.0739063" lon="-105.2303868">
  <ele>1664.34</ele>
  <time>2026-08-27T18:26:18Z</time>
  <course>251.75</course>
  <speed>9.11</speed>
  <fix>3d</fix>
</trkpt>
<trkpt lat="40.0738967" lon="-105.230426">
  <ele>1665.55</ele>
  <time>2026-08-27T18:26:18Z</time>
  <course>250.75</course>
  <speed>9.123513577564292</speed>
  <fix>3d</fix>
</trkpt>
<trkpt lat="40.0739012" lon="-105.2304072">
  <ele>1664.83</ele>
  <time>2026-08-27T18:26:18Z</time>
  <course>251.82</course>
  <speed>9.13</speed>
  <fix>3d</fix>
</trkpt>
<trkpt lat="40.0738916" lon="-105.2304463">
  <ele>1666.05</ele>
  <time>2026-08-27T18:26:18Z</time>
  <course>250.81</course>
  <speed>9.133027975430712</speed>
  <fix>3d</fix>
</trkpt>
<trkpt lat="40.0738961" lon="-105.2304275">
  <ele>1665.33</ele>
  <time>2026-08-27T18:26:18Z</time>
  <course>251.88</course>
  <speed>9.15</speed>
  <fix>3d</fix>
</trkpt>
<trkpt lat="40.0738864" lon="-105.2304669">
  <ele>1666.55</ele>
  <time>2026-08-27T18:26:18Z</time>
  <course>250.88</course>
  <speed>9.142543409795767</speed>
  <fix>3d</fix>
</trkpt>
<trkpt lat="40.073891" lon="-105.230448">
  <ele>1665.83</ele>
  <time>2026-08-27T18:26:18Z</time>
  <course>251.93</course>
  <speed>9.16</speed>
  <fix>3d</fix>
</trkpt>
<trkpt lat="40.0738813" lon="-105.2304874">
  <ele>1667.05</ele>
  <time>2026-08-27T18:26:18Z</time>
  <course>251.01</course>
  <speed>9.148994480269403</speed>
  <fix>3d</fix>
</trkpt>
<trkpt lat="40.0738859" lon="-105.2304684">
  <ele>1666.33</ele>
  <time>2026-08-27T18:26:18Z</time>
  <course>251.98</course>
  <speed>9.18</speed>
  <fix>3d</fix>
</trkpt>
<trkpt lat="40.0738762" lon="-105.230508">
  <ele>1667.55</ele>
  <time>2026-08-27T18:26:18Z</time>
  <course>251.11</course>
  <speed>9.158515163496755</speed>
  <fix>3d</fix>
</trkpt>
<trkpt lat="40.0738808" lon="-105.2304889">
  <ele>1666.83</ele>
  <time>2026-08-27T18:26:18Z</time>
  <course>252.02</course>
  <speed>9.18</speed>
  <fix>3d</fix>
</trkpt>
<trkpt lat="40.0738712" lon="-105.2305285">
  <ele>1668.06</ele>
  <time>2026-08-27T18:26:18Z</time>
  <course>251.17</course>
  <speed>9.155462850123962</speed>
  <fix>3d</fix>
</trkpt>
<trkpt lat="40.0738757" lon="-105.2305095">
  <ele>1667.32</ele>
  <time>2026-08-27T18:26:18Z</time>
  <course>252.06</course>
  <speed>9.19</speed>
  <fix>3d</fix>
</trkpt>
<trkpt lat="40.0738661" lon="-105.230549">
  <ele>1668.56</ele>
  <time>2026-08-27T18:26:18Z</time>
  <course>251.28</course>
  <speed>9.155462850123962</speed>
  <fix>3d</fix>
</trkpt>
<trkpt lat="40.0738706" lon="-105.2305301">
  <ele>1667.82</ele>
  <time>2026-08-27T18:26:18Z</time>
  <course>252.09</course>
  <speed>9.18</speed>
  <fix>3d</fix>
</trkpt>
<trkpt lat="40.073861" lon="-105.2305696">
  <ele>1669.06</ele>
  <time>2026-08-27T18:26:18Z</time>
  <course>251.37</course>
  <speed>9.14289341510662</speed>
  <fix>3d</fix>
</trkpt>
<trkpt lat="40.0738655" lon="-105.2305506">
  <ele>1668.32</ele>
  <time>2026-08-27T18:26:18Z</time>
  <course>252.11</course>
  <speed>9.18</speed>
  <fix>3d</fix>
</trkpt>
<trkpt lat="40.073856" lon="-105.2305901">
  <ele>1669.55</ele>
  <time>2026-08-27T18:26:18Z</time>
  <course>251.45</course>
  <speed>9.123842392325724</speed>
  <fix>3d</fix>
</trkpt>
<trkpt lat="40.0738604" lon="-105.2305711">
  <ele>1668.82</ele>
  <time>2026-08-27T18:26:18Z</time>
  <course>252.13</course>
  <speed>9.17</speed>
  <fix>3d</fix>
</trkpt>
<trkpt lat="40.0738509" lon="-105.2306105">
  <ele>1670.05</ele>
  <time>2026-08-27T18:26:18Z</time>
  <course>251.47</course>
  <speed>9.11431840567357</speed>
  <fix>3d</fix>
</trkpt>
<trkpt lat="40.0738555" lon="-105.2305916">
  <ele>1669.32</ele>
  <time>2026-08-27T18:26:18Z</time>
  <course>252.15</course>
  <speed>9.15</speed>
  <fix>3d</fix>
</trkpt>
<trkpt lat="40.0738459" lon="-105.2306309">
  <ele>1670.54</ele>
  <time>2026-08-27T18:26:18Z</time>
  <course>251.49</course>
  <speed>9.101747085038124</speed>
  <fix>3d</fix>
</trkpt>
<trkpt lat="40.0738504" lon="-105.230612">
  <ele>1669.81</ele>
  <time>2026-08-27T18:26:18Z</time>
  <course>252.15</course>
  <speed>9.14</speed>
  <fix>3d</fix>
</trkpt>
<trkpt lat="40.0738409" lon="-105.2306513">
  <ele>1671.04</ele>
  <time>2026-08-27T18:26:18Z</time>
  <course>251.5</course>
  <speed>9.092221950656505</speed>
  <fix>3d</fix>
</trkpt>
<trkpt lat="40.0738453" lon="-105.2306324">
  <ele>1670.31</ele>
  <time>2026-08-27T18:26:18Z</time>
  <course>252.15</course>
  <speed>9.12</speed>
  <fix>3d</fix>
</trkpt>
<trkpt lat="40.0738358" lon="-105.2306718">
  <ele>1671.53</ele>
  <time>2026-08-27T18:26:18Z</time>
  <course>251.49</course>
  <speed>9.0731747475732</speed>
  <fix>3d</fix>
</trkpt>
<trkpt lat="40.0738403" lon="-105.2306528">
  <ele>1670.81</ele>
  <time>2026-08-27T18:26:18Z</time>
  <course>252.13</course>
  <speed>9.11</speed>
  <fix>3d</fix>
</trkpt>
<trkpt lat="40.0738308" lon="-105.2306922">
  <ele>1672.03</ele>
  <time>2026-08-27T18:26:18Z</time>
  <course>251.45</course>
  <speed>9.063652685314018</speed>
  <fix>3d</fix>
</trkpt>
<trkpt lat="40.0738354" lon="-105.2306731">
  <ele>1671.3</ele>
  <time>2026-08-27T18:26:18Z</time>
  <course>252.11</course>
  <speed>9.09</speed>
  <fix>3d</fix>
</trkpt>
<trkpt lat="40.0738257" lon="-105.2307125">
  <ele>1672.53</ele>
  <time>2026-08-27T18:26:18Z</time>
  <course>251.42</course>
  <speed>9.054131653560159</speed>
  <fix>3d</fix>
</trkpt>
<trkpt lat="40.0738303" lon="-105.2306935">
  <ele>1671.8</ele>
  <time>2026-08-27T18:26:18Z</time>
  <course>252.08</course>
  <speed>9.08</speed>
  <fix>3d</fix>
</trkpt>
<trkpt lat="40.0738207" lon="-105.2307328">
  <ele>1673.03</ele>
  <time>2026-08-27T18:26:18Z</time>
  <course>251.38</course>
  <speed>9.035092694599209</speed>
  <fix>3d</fix>
</trkpt>
<trkpt lat="40.0738252" lon="-105.2307138">
  <ele>1672.3</ele>
  <time>2026-08-27T18:26:18Z</time>
  <course>252.05</course>
  <speed>9.07</speed>
  <fix>3d</fix>
</trkpt>
<trkpt lat="40.0738157" lon="-105.230753">
  <ele>1673.53</ele>
  <time>2026-08-27T18:26:18Z</time>
  <course>251.34</course>
  <speed>9.038163530275384</speed>
  <fix>3d</fix>
</trkpt>
<trkpt lat="40.0738202" lon="-105.230734">
  <ele>1672.8</ele>
  <time>2026-08-27T18:26:18Z</time>
  <course>252.01</course>
  <speed>9.06</speed>
  <fix>3d</fix>
</trkpt>
<trkpt lat="40.0738106" lon="-105.2307733">
  <ele>1674.03</ele>
  <time>2026-08-27T18:26:18Z</time>
  <course>251.28</course>
  <speed>9.028648846865183</speed>
  <fix>3d</fix>
</trkpt>
<trkpt lat="40.0738152" lon="-105.2307543">
  <ele>1673.3</ele>
  <time>2026-08-27T18:26:18Z</time>
  <course>251.97</course>
  <speed>9.05</speed>
  <fix>3d</fix>
</trkpt>
<trkpt lat="40.0738055" lon="-105.2307935">
  <ele>1674.54</ele>
  <time>2026-08-27T18:26:18Z</time>
  <course>251.25</course>
  <speed>9.022222564313076</speed>
  <fix>3d</fix>
</trkpt>
<trkpt lat="40.0738101" lon="-105.2307745">
  <ele>1673.8</ele>
  <time>2026-08-27T18:26:18Z</time>
  <course>251.92</course>
  <speed>9.04</speed>
  <fix>3d</fix>
</trkpt>
<trkpt lat="40.0738005" lon="-105.2308137">
  <ele>1675.04</ele>
  <time>2026-08-27T18:26:18Z</time>
  <course>251.2</course>
  <speed>9.012713242969623</speed>
  <fix>3d</fix>
</trkpt>
<trkpt lat="40.0738051" lon="-105.2307946">
  <ele>1674.3</ele>
  <time>2026-08-27T18:26:18Z</time>
  <course>251.87</course>
  <speed>9.03</speed>
  <fix>3d</fix>
</trkpt>
<trkpt lat="40.0737954" lon="-105.2308338">
  <ele>1675.54</ele>
  <time>2026-08-27T18:26:18Z</time>
  <course>251.19</course>
  <speed>9.015813884503162</speed>
  <fix>3d</fix>
</trkpt>
<trkpt lat="40.0738001" lon="-105.2308147">
  <ele>1674.8</ele>
  <time>2026-08-27T18:26:18Z</time>
  <course>251.83</course>
  <speed>9.03</speed>
  <fix>3d</fix>
</trkpt>
<trkpt lat="40.0737904" lon="-105.2308539">
  <ele>1676.04</ele>
  <time>2026-08-27T18:26:18Z</time>
  <course>251.15</course>
  <speed>9.015813884503162</speed>
  <fix>3d</fix>
</trkpt>
<trkpt lat="40.073795" lon="-105.2308349">
  <ele>1675.3</ele>
  <time>2026-08-27T18:26:18Z</time>
  <course>251.8</course>
  <speed>9.03</speed>
  <fix>3d</fix>
</trkpt>
<trkpt lat="40.0737853" lon="-105.2308741">
  <ele>1676.54</ele>
  <time>2026-08-27T18:26:18Z</time>
  <course>251.09</course>
  <speed>9.01892454786046</speed>
  <fix>3d</fix>
</trkpt>
<trkpt lat="40.07379" lon="-105.2308551">
  <ele>1675.79</ele>
  <time>2026-08-27T18:26:18Z</time>
  <course>251.77</course>
  <speed>9.03</speed>
  <fix>3d</fix>
</trkpt>
<trkpt lat="40.0737802" lon="-105.2308944">
  <ele>1677.05</ele>
  <time>2026-08-27T18:26:18Z</time>
  <course>251.05</course>
  <speed>9.028427327059791</speed>
  <fix>3d</fix>
</trkpt>
<trkpt lat="40.0737849" lon="-105.2308752">
  <ele>1676.29</ele>
  <time>2026-08-27T18:26:18Z</time>
  <course>251.75</course>
  <speed>9.03</speed>
  <fix>3d</fix>
</trkpt>
<trkpt lat="40.0737751" lon="-105.2309145">
  <ele>1677.54</ele>
  <time>2026-08-27T18:26:18Z</time>
  <course>251.03</course>
  <speed>9.04104529354875</speed>
  <fix>3d</fix>
</trkpt>
<trkpt lat="40.0737798" lon="-105.2308954">
  <ele>1676.78</ele>
  <time>2026-08-27T18:26:18Z</time>
  <course>251.73</course>
  <speed>9.04</speed>
  <fix>3d</fix>
</trkpt>
<trkpt lat="40.07377" lon="-105.2309347">
  <ele>1678.03</ele>
  <time>2026-08-27T18:26:18Z</time>
  <course>251.01</course>
  <speed>9.04104529354875</speed>
  <fix>3d</fix>
</trkpt>
<trkpt lat="40.0737747" lon="-105.2309156">
  <ele>1677.28</ele>
  <time>2026-08-27T18:26:18Z</time>
  <course>251.72</course>
  <speed>9.05</speed>
  <fix>3d</fix>
</trkpt>
<trkpt lat="40.0737649" lon="-105.2309549">
  <ele>1678.53</ele>
  <time>2026-08-27T18:26:18Z</time>
  <course>250.98</course>
  <speed>9.05054694479842</speed>
  <fix>3d</fix>
</trkpt>
<trkpt lat="40.0737696" lon="-105.2309358">
  <ele>1677.77</ele>
  <time>2026-08-27T18:26:18Z</time>
  <course>251.71</course>
  <speed>9.06</speed>
  <fix>3d</fix>
</trkpt>
<trkpt lat="40.0737598" lon="-105.2309751">
  <ele>1679.02</ele>
  <time>2026-08-27T18:26:18Z</time>
  <course>250.94</course>
  <speed>9.060049668738026</speed>
  <fix>3d</fix>
</trkpt>
<trkpt lat="40.0737644" lon="-105.2309559">
  <ele>1678.27</ele>
  <time>2026-08-27T18:26:18Z</time>
  <course>251.7</course>
  <speed>9.07</speed>
  <fix>3d</fix>
</trkpt>
<trkpt lat="40.0737547" lon="-105.2309952">
  <ele>1679.52</ele>
  <time>2026-08-27T18:26:18Z</time>
  <course>250.98</course>
  <speed>9.05054694479842</speed>
  <fix>3d</fix>
</trkpt>
<trkpt lat="40.0737593" lon="-105.2309762">
  <ele>1678.77</ele>
  <time>2026-08-27T18:26:18Z</time>
  <course>251.71</course>
  <speed>9.08</speed>
  <fix>3d</fix>
</trkpt>
<trkpt lat="40.0737496" lon="-105.2310154">
  <ele>1680.02</ele>
  <time>2026-08-27T18:26:18Z</time>
  <course>251.23</course>
  <speed>8.999922221886143</speed>
  <fix>3d</fix>
</trkpt>
<trkpt lat="40.0737542" lon="-105.2309965">
  <ele>1679.27</ele>
  <time>2026-08-27T18:26:18Z</time>
  <course>251.7</course>
  <speed>9.07</speed>
  <fix>3d</fix>
</trkpt>
<trkpt lat="40.0737445" lon="-105.2310353">
  <ele>1680.52</ele>
  <time>2026-08-27T18:26:18Z</time>
  <course>251.72</course>
  <speed>8.892434987111237</speed>
  <fix>3d</fix>
</trkpt>
<trkpt lat="40.0737491" lon="-105.2310166">
  <ele>1679.77</ele>
  <time>2026-08-27T18:26:18Z</time>
  <course>251.7</course>
  <speed>9.02</speed>
  <fix>3d</fix>
</trkpt>
<trkpt lat="40.0737396" lon="-105.2310549">
  <ele>1681.02</ele>
  <time>2026-08-27T18:26:18Z</time>
  <course>252.37</course>
  <speed>8.721708548214622</speed>
  <fix>3d</fix>
</trkpt>
<trkpt lat="40.0737441" lon="-105.2310366">
  <ele>1680.27</ele>
  <time>2026-08-27T18:26:18Z</time>
  <course>251.72</course>
  <speed>8.92</speed>
  <fix>3d</fix>
</trkpt>
<trkpt lat="40.0737347" lon="-105.2310742">
  <ele>1681.52</ele>
  <time>2026-08-27T18:26:18Z</time>
  <course>253.13</course>
  <speed>8.516272658857277</speed>
  <fix>3d</fix>
</trkpt>
<trkpt lat="40.0737391" lon="-105.2310564">
  <ele>1680.78</ele>
  <time>2026-08-27T18:26:18Z</time>
  <course>251.79</course>
  <speed>8.76</speed>
  <fix>3d</fix>
</trkpt>
<trkpt lat="40.07373" lon="-105.2310932">
  <ele>1682.01</ele>
  <time>2026-08-27T18:26:18Z</time>
  <course>253.94</course>
  <speed>8.257148418188933</speed>
  <fix>3d</fix>
</trkpt>
<trkpt lat="40.0737343" lon="-105.2310757">
  <ele>1681.28</ele>
  <time>2026-08-27T18:26:18Z</time>
  <course>251.92</course>
  <speed>8.55</speed>
  <fix>3d</fix>
</trkpt>
<trkpt lat="40.0737255" lon="-105.2311114">
  <ele>1682.47</ele>
  <time>2026-08-27T18:26:18Z</time>
  <course>254.75</course>
  <speed>7.950874165775735</speed>
  <fix>3d</fix>
</trkpt>
<trkpt lat="40.0737296" lon="-105.2310945">
  <ele>1681.77</ele>
  <time>2026-08-27T18:26:18Z</time>
  <course>252.11</course>
  <speed>8.29</speed>
  <fix>3d</fix>
</trkpt>
<trkpt lat="40.0737213" lon="-105.231129">
  <ele>1682.9</ele>
  <time>2026-08-27T18:26:18Z</time>
  <course>255.54</course>
  <speed>7.606608968522044</speed>
  <fix>3d</fix>
</trkpt>
<trkpt lat="40.0737251" lon="-105.2311128">
  <ele>1682.23</ele>
  <time>2026-08-27T18:26:18Z</time>
  <course>252.34</course>
  <speed>7.99</speed>
  <fix>3d</fix>
</trkpt>
<trkpt lat="40.0737173" lon="-105.2311457">
  <ele>1683.31</ele>
  <time>2026-08-27T18:26:18Z</time>
  <course>256.3</course>
  <speed>7.208779369629785</speed>
  <fix>3d</fix>
</trkpt>
<trkpt lat="40.0737208" lon="-105.2311303">
  <ele>1682.67</ele>
  <time>2026-08-27T18:26:18Z</time>
  <course>252.6</course>
  <speed>7.64</speed>
  <fix>3d</fix>
</trkpt>
<trkpt lat="40.0737135" lon="-105.2311616">
  <ele>1683.7</ele>
  <time>2026-08-27T18:26:18Z</time>
  <course>257.0</course>
  <speed>6.782403703702693</speed>
  <fix>3d</fix>
</trkpt>
<trkpt lat="40.0737168" lon="-105.231147">
  <ele>1683.09</ele>
  <time>2026-08-27T18:26:18Z</time>
  <course>252.88</course>
  <speed>7.25</speed>
  <fix>3d</fix>
</trkpt>
<trkpt lat="40.0737101" lon="-105.2311764">
  <ele>1684.05</ele>
  <time>2026-08-27T18:26:18Z</time>
  <course>257.64</course>
  <speed>6.305370726610768</speed>
  <fix>3d</fix>
</trkpt>
<trkpt lat="40.0737132" lon="-105.2311628">
  <ele>1683.48</ele>
  <time>2026-08-27T18:26:18Z</time>
  <course>253.16</course>
  <speed>6.82</speed>
  <fix>3d</fix>
</trkpt>
<trkpt lat="40.073707" lon="-105.2311902">
  <ele>1684.37</ele>
  <time>2026-08-27T18:26:18Z</time>
  <course>258.24</course>
  <speed>5.796826718127773</speed>
  <fix>3d</fix>
</trkpt>
<trkpt lat="40.0737098" lon="-105.2311776">
  <ele>1683.84</ele>
  <time>2026-08-27T18:26:18Z</time>
  <course>253.43</course>
  <speed>6.34</speed>
  <fix>3d</fix>
</trkpt>
<trkpt lat="40.0737042" lon="-105.2312027">
  <ele>1684.66</ele>
  <time>2026-08-27T18:26:18Z</time>
  <course>258.78</course>
  <speed>5.25</speed>
  <fix>3d</fix>
</trkpt>
<trkpt lat="40.0737067" lon="-105.2311914">
  <ele>1684.17</ele>
  <time>2026-08-27T18:26:18Z</time>
  <course>253.7</course>
  <speed>5.83</speed>
  <fix>3d</fix>
</trkpt>
<trkpt lat="40.0737017" lon="-105.231214">
  <ele>1684.91</ele>
  <time>2026-08-27T18:26:18Z</time>
  <course>259.17</course>
  <speed>4.684015371452148</speed>
  <fix>3d</fix>
</trkpt>
<trkpt lat="40.0737039" lon="-105.2312039">
  <ele>1684.47</ele>
  <time>2026-08-27T18:26:18Z</time>
  <course>253.95</course>
  <speed>5.28</speed>
  <fix>3d</fix>
</trkpt>
<trkpt lat="40.0736995" lon="-105.2312241">
  <ele>1685.14</ele>
  <time>2026-08-27T18:26:19Z</time>
  <course>259.38</course>
  <speed>4.118069936268689</speed>
  <fix>3d</fix>
</trkpt>
<trkpt lat="40.0737014" lon="-105.2312152">
  <ele>1684.73</ele>
  <time>2026-08-27T18:26:19Z</time>
  <course>254.2</course>
  <speed>4.71</speed>
  <fix>3d</fix>
</trkpt>
<trkpt lat="40.0736976" lon="-105.2312329">
  <ele>1685.32</ele>
  <time>2026-08-27T18:26:19Z</time>
  <course>259.46</course>
  <speed>3.5548980294798893</speed>
  <fix>3d</fix>
</trkpt>
<trkpt lat="40.0736993" lon="-105.2312251">
  <ele>1684.96</ele>
  <time>2026-08-27T18:26:19Z</time>
  <course>254.44</course>
  <speed>4.14</speed>
  <fix>3d</fix>
</trkpt>
<trkpt lat="40.073696" lon="-105.2312405">
  <ele>1685.48</ele>
  <time>2026-08-27T18:26:19Z</time>
  <course>259.4</course>
  <speed>3.0040805581741648</speed>
  <fix>3d</fix>
</trkpt>
<trkpt lat="40.0736974" lon="-105.2312339">
  <ele>1685.15</ele>
  <time>2026-08-27T18:26:19Z</time>
  <course>254.65</course>
  <speed>3.57</speed>
  <fix>3d</fix>
</trkpt>
<trkpt lat="40.0736947" lon="-105.2312468">
  <ele>1685.61</ele>
  <time>2026-08-27T18:26:19Z</time>
  <course>259.17</course>
  <speed>2.465623653358314</speed>
  <fix>3d</fix>
</trkpt>
<trkpt lat="40.0736959" lon="-105.2312413">
  <ele>1685.31</ele>
  <time>2026-08-27T18:26:19Z</time>
  <course>254.78</course>
  <speed>3.02</speed>
  <fix>3d</fix>
</trkpt>
<trkpt lat="40.0736936" lon="-105.2312519">
  <ele>1685.72</ele>
  <time>2026-08-27T18:26:19Z</time>
  <course>258.69</course>
  <speed>1.9492049661336284</speed>
  <fix>3d</fix>
</trkpt>
<trkpt lat="40.0736945" lon="-105.2312475">
  <ele>1685.45</ele>
  <time>2026-08-27T18:26:19Z</time>
  <course>254.76</course>
  <speed>2.47</speed>
  <fix>3d</fix>
</trkpt>
<trkpt lat="40.0736927" lon="-105.2312558">
  <ele>1685.8</ele>
  <time>2026-08-27T18:26:19Z</time>
  <course>257.82</course>
  <speed>1.4741099009232657</speed>
  <fix>3d</fix>
</trkpt>
<trkpt lat="40.0736935" lon="-105.2312526">
  <ele>1685.56</ele>
  <time>2026-08-27T18:26:19Z</time>
  <course>254.52</course>
  <speed>1.95</speed>
  <fix>3d</fix>
</trkpt>
<trkpt lat="40.073692" lon="-105.2312588">
  <ele>1685.87</ele>
  <time>2026-08-27T18:26:19Z</time>
  <course>256.55</course>
  <speed>1.0656922632730332</speed>
  <fix>3d</fix>
</trkpt>
<trkpt lat="40.0736927" lon="-105.2312565">
  <ele>1685.64</ele>
  <time>2026-08-27T18:26:19Z</time>
  <course>253.97</course>
  <speed>1.47</speed>
  <fix>3d</fix>
</trkpt>
<trkpt lat="40.0736915" lon="-105.2312608">
  <ele>1685.92</ele>
  <time>2026-08-27T18:26:19Z</time>
  <course>254.99</course>
  <speed>0.718679344353238</speed>
  <fix>3d</fix>
</trkpt>
<trkpt lat="40.0736921" lon="-105.2312593">
  <ele>1685.71</ele>
  <time>2026-08-27T18:26:19Z</time>
  <course>252.91</course>
  <speed>1.05</speed>
  <fix>3d</fix>
</trkpt>
<trkpt lat="40.0736912" lon="-105.2312621">
  <ele>1685.96</ele>
  <time>2026-08-27T18:26:19Z</time>
  <course>255.02</course>
  <speed>0.42941821107167777</speed>
  <fix>3d</fix>
</trkpt>
<trkpt lat="40.0736916" lon="-105.2312612">
  <ele>1685.76</ele>
  <time>2026-08-27T18:26:19Z</time>
  <course>250.14</course>
  <speed>0.69</speed>
  <fix>3d</fix>
</trkpt>
<trkpt lat="40.0736909" lon="-105.2312628">
  <ele>1685.99</ele>
  <time>2026-08-27T18:26:19Z</time>
  <course>254.9</course>
  <speed>0.21213203435596426</speed>
  <fix>3d</fix>
</trkpt>
<trkpt lat="40.0736912" lon="-105.2312624">
  <ele>1685.81</ele>
  <time>2026-08-27T18:26:19Z</time>
  <course>243.14</course>
  <speed>0.4</speed>
  <fix>3d</fix>
</trkpt>
<trkpt lat="40.0736907" lon="-105.2312629">
  <ele>1686.01</ele>
  <time>2026-08-27T18:26:19Z</time>
  <course>254.81</course>
  <speed>0.12041594578792296</speed>
  <fix>3d</fix>
</trkpt>
<trkpt lat="40.0736909" lon="-105.2312629">
  <ele>1685.84</ele>
  <time>2026-08-27T18:26:19Z</time>
  <course>221.18</course>
  <speed>0.18</speed>
  <fix>3d</fix>
</trkpt>
<trkpt lat="40.0736905" lon="-105.2312628">
  <ele>1686.03</ele>
  <time>2026-08-27T18:26:19Z</time>
  <course>254.73</course>
  <speed>0.17204650534085253</speed>
  <fix>3d</fix>
</trkpt>
<trkpt lat="40.0736907" lon="-105.231263">
  <ele>1685.87</ele>
  <time>2026-08-27T18:26:19Z</time>
  <course>151.22</course>
  <speed>0.12</speed>
  <fix>3d</fix>
</trkpt>
<trkpt lat="40.0736903" lon="-105.2312623">
  <ele>1686.04</ele>
  <time>2026-08-27T18:26:19Z</time>
  <course>254.67</course>
  <speed>0.23259406699226015</speed>
  <fix>3d</fix>
</trkpt>
<trkpt lat="40.0736905" lon="-105.2312627">
  <ele>1685.89</ele>
  <time>2026-08-27T18:26:19Z</time>
  <course>117.19</course>
  <speed>0.21</speed>
  <fix>3d</fix>
</trkpt>
<trkpt lat="40.0736902" lon="-105.2312617">
  <ele>1686.05</ele>
  <time>2026-08-27T18:26:19Z</time>
  <course>254.61</course>
  <speed>0.26</speed>
  <fix>3d</fix>
</trkpt>
<trkpt lat="40.0736903" lon="-105.2312622">
  <ele>1685.91</ele>
  <time>2026-08-27T18:26:19Z</time>
  <course>109.65</course>
  <speed>0.28</speed>
  <fix>3d</fix>
</trkpt>
<trkpt lat="40.07369" lon="-105.2312611">
  <ele>1686.06</ele>
  <time>2026-08-27T18:26:19Z</time>
  <course>254.54</course>
  <speed>0.25495097567963926</speed>
  <fix>3d</fix>
</trkpt>
<trkpt lat="40.0736902" lon="-105.2312616">
  <ele>1685.92</ele>
  <time>2026-08-27T18:26:19Z</time>
  <course>109.17</course>
  <speed>0.31</speed>
  <fix>3d</fix>
</trkpt>
<trkpt lat="40.0736898" lon="-105.2312605">
  <ele>1686.06</ele>
  <time>2026-08-27T18:26:19Z</time>
  <course>254.45</course>
  <speed>0.23021728866442676</speed>
  <fix>3d</fix>
</trkpt>
<trkpt lat="40.07369" lon="-105.2312609">
  <ele>1685.93</ele>
  <time>2026-08-27T18:26:19Z</time>
  <course>112.56</course>
  <speed>0.31</speed>
  <fix>3d</fix>
</trkpt>
<trkpt lat="40.0736895" lon="-105.23126">
  <ele>1686.07</ele>
  <time>2026-08-27T18:26:19Z</time>
  <course>254.35</course>
  <speed>0.19209372712298545</speed>
  <fix>3d</fix>
</trkpt>
<trkpt lat="40.0736897" lon="-105.2312603">
  <ele>1685.94</ele>
  <time>2026-08-27T18:26:19Z</time>
  <course>120.18</course>
  <speed>0.28</speed>
  <fix>3d</fix>
</trkpt>
<trkpt lat="40.0736892" lon="-105.2312598">
  <ele>1686.07</ele>
  <time>2026-08-27T18:26:19Z</time>
  <course>254.26</course>
  <speed>0.17262676501632068</speed>
  <fix>3d</fix>
</trkpt>
<trkpt lat="40.0736894" lon="-105.2312598">
  <ele>1685.94</ele>
  <time>2026-08-27T18:26:19Z</time>
  <course>134.25</course>
  <speed>0.24</speed>
  <fix>3d</fix>
</trkpt>
<trkpt lat="40.0736889" lon="-105.2312597">
  <ele>1686.06</ele>
  <time>2026-08-27T18:26:19Z</time>
  <course>254.15</course>
  <speed>0.196468827043885</speed>
  <fix>3d</fix>
</trkpt>
<trkpt lat="40.0736891" lon="-105.2312594">
  <ele>1685.95</ele>
  <time>2026-08-27T18:26:19Z</time>
  <course>156.84</course>
  <speed>0.21</speed>
  <fix>3d</fix>
</trkpt>
<trkpt lat="40.0736885" lon="-105.2312598">
  <ele>1686.06</ele>
  <time>2026-08-27T18:26:19Z</time>
  <course>254.06</course>
  <speed>0.25238858928247926</speed>
  <fix>3d</fix>
</trkpt>
<trkpt lat="40.0736888" lon="-105.2312594">
  <ele>1685.95</ele>
  <time>2026-08-27T18:26:19Z</time>
  <course>183.12</course>
  <speed>0.22</speed>
  <fix>3d</fix>
</trkpt>
<trkpt lat="40.073688" lon="-105.2312602">
  <ele>1686.06</ele>
  <time>2026-08-27T18:26:19Z</time>
  <course>254.01</course>
  <speed>0.304138126514911</speed>
  <fix>3d</fix>
</trkpt>
<trkpt lat="40.0736883" lon="-105.2312594">
  <ele>1685.95</ele>
  <time>2026-08-27T18:26:19Z</time>
  <course>202.9</course>
  <speed>0.27</speed>
  <fix>3d</fix>
</trkpt>
<trkpt lat="40.0736876" lon="-105.2312605">
  <ele>1686.06</ele>
  <time>2026-08-27T18:26:19Z</time>
  <course>253.98</course>
  <speed>0.34058772731852804</speed>
  <fix>3d</fix>
</trkpt>
<trkpt lat="40.0736878" lon="-105.2312598">
  <ele>1685.95</ele>
  <time>2026-08-27T18:26:19Z</time>
  <course>214.67</course>
  <speed>0.32</speed>
  <fix>3d</fix>
</trkpt>
<trkpt lat="40.0736871" lon="-105.2312611">
  <ele>1686.06</ele>
  <time>2026-08-27T18:26:19Z</time>
  <course>253.94</course>
  <speed>0.35805027579936316</speed>
  <fix>3d</fix>
</trkpt>
<trkpt lat="40.0736873" lon="-105.2312603">
  <ele>1685.96</ele>
  <time>2026-08-27T18:26:19Z</time>
  <course>221.78</course>
  <speed>0.36</speed>
  <fix>3d</fix>
</trkpt>
<trkpt lat="40.0736867" lon="-105.2312618">
  <ele>1686.06</ele>
  <time>2026-08-27T18:26:19Z</time>
  <course>253.91</course>
  <speed>0.36359317925395684</speed>
  <fix>3d</fix>
</trkpt>
<trkpt lat="40.0736868" lon="-105.2312609">
  <ele>1685.96</ele>
  <time>2026-08-27T18:26:19Z</time>
  <course>226.76</course>
  <speed>0.38</speed>
  <fix>3d</fix>
</trkpt>
<trkpt lat="40.0736863" lon="-105.2312625">
  <ele>1686.06</ele>
  <time>2026-08-27T18:26:19Z</time>
  <course>253.85</course>
  <speed>0.3488552708502482</speed>
  <fix>3d</fix>
</trkpt>
<trkpt lat="40.0736864" lon="-105.2312616">
  <ele>1685.96</ele>
  <time>2026-08-27T18:26:19Z</time>
  <course>230.93</course>
  <speed>0.39</speed>
  <fix>3d</fix>
</trkpt>
<trkpt lat="40.0736859" lon="-105.2312631">
  <ele>1686.06</ele>
  <time>2026-08-27T18:26:19Z</time>
  <course>253.82</course>
  <speed>0.3138470965295043</speed>
  <fix>3d</fix>
</trkpt>
<trkpt lat="40.0736859" lon="-105.2312623">
  <ele>1685.97</ele>
  <time>2026-08-27T18:26:19Z</time>
  <course>234.87</course>
  <speed>0.37</speed>
  <fix>3d</fix>
</trkpt>
<trkpt lat="40.0736856" lon="-105.2312638">
  <ele>1686.06</ele>
  <time>2026-08-27T18:26:19Z</time>
  <course>253.8</course>
  <speed>0.2816025568065745</speed>
  <fix>3d</fix>
</trkpt>
<trkpt lat="40.0736856" lon="-105.231263">
  <ele>1685.97</ele>
  <time>2026-08-27T18:26:19Z</time>
  <course>238.85</course>
  <speed>0.35</speed>
  <fix>3d</fix>
</trkpt>
<trkpt lat="40.0736854" lon="-105.2312643">
  <ele>1686.06</ele>
  <time>2026-08-27T18:26:19Z</time>
  <course>253.76</course>
  <speed>0.23345235059857505</speed>
  <fix>3d</fix>
</trkpt>
<trkpt lat="40.0736853" lon="-105.2312637">
  <ele>1685.98</ele>
  <time>2026-08-27T18:26:19Z</time>
  <course>243.21</course>
  <speed>0.31</speed>
  <fix>3d</fix>
</trkpt>
<trkpt lat="40.0736853" lon="-105.2312648">
  <ele>1686.06</ele>
  <time>2026-08-27T18:26:19Z</time>
  <course>253.71</course>
  <speed>0.19</speed>
  <fix>3d</fix>
</trkpt>
<trkpt lat="40.0736851" lon="-105.2312643">
  <ele>1685.98</ele>
  <time>2026-08-27T18:26:19Z</time>
  <course>248.54</course>
  <speed>0.26</speed>
  <fix>3d</fix>
</trkpt>
<trkpt lat="40.0736852" lon="-105.2312653">
  <ele>1686.06</ele>
  <time>2026-08-27T18:26:19Z</time>
  <course>253.68</course>
  <speed>0.14317821063276354</speed>
  <fix>3d</fix>
</trkpt>
<trkpt lat="40.073685" lon="-105.2312649">
  <ele>1685.99</ele>
  <time>2026-08-27T18:26:19Z</time>
  <course>255.57</course>
  <speed>0.21</speed>
  <fix>3d</fix>
</trkpt>
<trkpt lat="40.0736852" lon="-105.2312656">
  <ele>1686.06</ele>
  <time>2026-08-27T18:26:19Z</time>
  <course>253.63</course>
  <speed>0.11401754250991379</speed>
  <fix>3d</fix>
</trkpt>
<trkpt lat="40.0736849" lon="-105.2312654">
  <ele>1685.99</ele>
  <time>2026-08-27T18:26:19Z</time>
  <course>265.89</course>
  <speed>0.16</speed>
  <fix>3d</fix>
</trkpt>
<trkpt lat="40.0736852" lon="-105.2312658">
  <ele>1686.07</ele>
  <time>2026-08-27T18:26:19Z</time>
  <course>253.58</course>
  <speed>0.1118033988749895</speed>
  <fix>3d</fix>
</trkpt>
<trkpt lat="40.0736849" lon="-105.2312657">
  <ele>1686.0</ele>
  <time>2026-08-27T18:26:19Z</time>
  <course>283.04</course>
  <speed>0.12</speed>
  <fix>3d</fix>
</trkpt>
<trkpt lat="40.0736854" lon="-105.2312659">
  <ele>1686.07</ele>
  <time>2026-08-27T18:26:19Z</time>
  <course>253.53</course>
  <speed>0.13</speed>
  <fix>3d</fix>
</trkpt>
<trkpt lat="40.073685" lon="-105.2312659">
  <ele>1686.0</ele>
  <time>2026-08-27T18:26:19Z</time>
  <course>311.13</course>
  <speed>0.09</speed>
  <fix>3d</fix>
</trkpt>
<trkpt lat="40.0736855" lon="-105.2312659">
  <ele>1686.07</ele>
  <time>2026-08-27T18:26:19Z</time>
  <course>253.5</course>
  <speed>0.1649242250247064</speed>
  <fix>3d</fix>
</trkpt>
<trkpt lat="40.0736851" lon="-105.231266">
  <ele>1686.01</ele>
  <time>2026-08-27T18:26:19Z</time>
  <course>344.05</course>
  <speed>0.1</speed>
  <fix>3d</fix>
</trkpt>
<trkpt lat="40.0736858" lon="-105.2312658">
  <ele>1686.07</ele>
  <time>2026-08-27T18:26:19Z</time>
  <course>253.43</course>
  <speed>0.18788294228055935</speed>
  <fix>3d</fix>
</trkpt>
<trkpt lat="40.0736852" lon="-105.2312661">
  <ele>1686.01</ele>
  <time>2026-08-27T18:26:19Z</time>
  <course>7.5</course>
  <speed>0.12</speed>
  <fix>3d</fix>
</trkpt>
<trkpt lat="40.073686" lon="-105.2312657">
  <ele>1686.08</ele>
  <time>2026-08-27T18:26:19Z</time>
  <course>253.4</course>
  <speed>0.2195449840010015</speed>
  <fix>3d</fix>
</trkpt>
<trkpt lat="40.0736855" lon="-105.231266">
  <ele>1686.01</ele>
  <time>2026-08-27T18:26:19Z</time>
  <course>21.39</course>
  <speed>0.15</speed>
  <fix>3d</fix>
</trkpt>
<trkpt lat="40.0736863" lon="-105.2312654">
  <ele>1686.08</ele>
  <time>2026-08-27T18:26:19Z</time>
  <course>253.35</course>
  <speed>0.23600847442411893</speed>
  <fix>3d</fix>
</trkpt>
<trkpt lat="40.0736858" lon="-105.2312658">
  <ele>1686.02</ele>
  <time>2026-08-27T18:26:19Z</time>
  <course>29.99</course>
  <speed>0.18</speed>
  <fix>3d</fix>
</trkpt>
<trkpt lat="40.0736866" lon="-105.2312651">
  <ele>1686.09</ele>
  <time>2026-08-27T18:26:19Z</time>
  <course>253.31</course>
  <speed>0.25612496949731395</speed>
  <fix>3d</fix>
</trkpt>
<trkpt lat="40.0736861" lon="-105.2312656">
  <ele>1686.02</ele>
  <time>2026-08-27T18:26:19Z</time>
  <course>35.72</course>
  <speed>0.2</speed>
  <fix>3d</fix>
</trkpt>
<trkpt lat="40.0736869" lon="-105.2312648">
  <ele>1686.09</ele>
  <time>2026-08-27T18:26:19Z</time>
  <course>253.28</course>
  <speed>0.261725046566048</speed>
  <fix>3d</fix>
</trkpt>
<trkpt lat="40.0736864" lon="-105.2312653">
  <ele>1686.02</ele>
  <time>2026-08-27T18:26:19Z</time>
  <course>40.09</course>
  <speed>0.22</speed>
  <fix>3d</fix>
</trkpt>
<trkpt lat="40.0736872" lon="-105.2312644">
  <ele>1686.09</ele>
  <time>2026-08-27T18:26:19Z</time>
  <course>253.22</course>
  <speed>0.261725046566048</speed>
  <fix>3d</fix>
</trkpt>
<trkpt lat="40.0736867" lon="-105.2312649">
  <ele>1686.02</ele>
  <time>2026-08-27T18:26:19Z</time>
  <course>43.64</course>
  <speed>0.23</speed>
  <fix>3d</fix>
</trkpt>
<trkpt lat="40.0736874" lon="-105.231264">
  <ele>1686.09</ele>
  <time>2026-08-27T18:26:19Z</time>
  <course>253.18</course>
  <speed>0.25495097567963926</speed>
  <fix>3d</fix>
</trkpt>
<trkpt lat="40.073687" lon="-105.2312646">
  <ele>1686.02</ele>
  <time>2026-08-27T18:26:19Z</time>
  <course>46.66</course>
  <speed>0.23</speed>
  <fix>3d</fix>
</trkpt>
<trkpt lat="40.0736877" lon="-105.2312636">
  <ele>1686.09</ele>
  <time>2026-08-27T18:26:19Z</time>
  <course>253.14</course>
  <speed>0.24839484696748443</speed>
  <fix>3d</fix>
</trkpt>
<trkpt lat="40.0736872" lon="-105.2312642">
  <ele>1686.02</ele>
  <time>2026-08-27T18:26:19Z</time>
  <course>49.39</course>
  <speed>0.23</speed>
  <fix>3d</fix>
</trkpt>
<trkpt lat="40.0736879" lon="-105.2312632">
  <ele>1686.09</ele>
  <time>2026-08-27T18:26:19Z</time>
  <course>253.09</course>
  <speed>0.22803508501982758</speed>
  <fix>3d</fix>
</trkpt>
<trkpt lat="40.0736875" lon="-105.2312637">
  <ele>1686.02</ele>
  <time>2026-08-27T18:26:19Z</time>
  <course>51.93</course>
  <speed>0.22</speed>
  <fix>3d</fix>
</trkpt>
<trkpt lat="40.0736881" lon="-105.2312628">
  <ele>1686.09</ele>
  <time>2026-08-27T18:26:19Z</time>
  <course>253.04</course>
  <speed>0.20808652046684814</speed>
  <fix>3d</fix>
</trkpt>
<trkpt lat="40.0736878" lon="-105.2312633">
  <ele>1686.01</ele>
  <time>2026-08-27T18:26:19Z</time>
  <course>54.52</course>
  <speed>0.2</speed>
  <fix>3d</fix>
</trkpt>
<trkpt lat="40.0736882" lon="-105.2312625">
  <ele>1686.09</ele>
  <time>2026-08-27T18:26:19Z</time>
  <course>253.09</course>
  <speed>0.18027756377319945</speed>
  <fix>3d</fix>
</trkpt>
<trkpt lat="40.073688" lon="-105.231263">
  <ele>1686.01</ele>
  <time>2026-08-27T18:26:19Z</time>
  <course>57.45</course>
  <speed>0.18</speed>
  <fix>3d</fix>
</trkpt>
<trkpt lat="40.0736884" lon="-105.2312622">
  <ele>1686.09</ele>
  <time>2026-08-27T18:26:19Z</time>
  <course>253.01</course>
  <speed>0.12206555615733702</speed>
  <fix>3d</fix>
</trkpt>
<trkpt lat="40.0736881" lon="-105.2312626">
  <ele>1686.01</ele>
  <time>2026-08-27T18:26:19Z</time>
  <course>60.34</course>
  <speed>0.15</speed>
  <fix>3d</fix>
</trkpt>
<trkpt lat="40.0736884" lon="-105.2312621">
  <ele>1686.09</ele>
  <time>2026-08-27T18:26:19Z</time>
  <course>252.89</course>
  <speed>0.03605551275463989</speed>
  <fix>3d</fix>
</trkpt>
<trkpt lat="40.0736882" lon="-105.2312623">
  <ele>1686.01</ele>
  <time>2026-08-27T18:26:19Z</time>
  <course>58.17</course>
  <speed>0.09</speed>
  <fix>3d</fix>
</trkpt>
<trkpt lat="40.0736884" lon="-105.2312623">
  <ele>1686.09</ele>
  <time>2026-08-27T18:26:19Z</time>
  <course>252.77</course>
  <speed>0.19026297590440447</speed>
  <fix>3d</fix>
</trkpt>
<trkpt lat="40.0736883" lon="-105.2312623">
  <ele>1686.0</ele>
  <time>2026-08-27T18:26:19Z</time>
  <course>290.03</course>
  <speed>0.03</speed>
  <fix>3d</fix>
</trkpt>
<trkpt lat="40.0736884" lon="-105.2312631">
  <ele>1686.08</ele>
  <time>2026-08-27T18:26:19Z</time>
  <course>252.67</course>
  <speed>0.39812058474788764</speed>
  <fix>3d</fix>
</trkpt>
<trkpt lat="40.0736883" lon="-105.2312625">
  <ele>1686.0</ele>
  <time>2026-08-27T18:26:19Z</time>
  <course>259.08</course>
  <speed>0.2</speed>
  <fix>3d</fix>
</trkpt>
<trkpt lat="40.0736881" lon="-105.2312642">
  <ele>1686.08</ele>
  <time>2026-08-27T18:26:19Z</time>
  <course>252.58</course>
  <speed>0.611310068623117</speed>
  <fix>3d</fix>
</trkpt>
<trkpt lat="40.0736882" lon="-105.2312632">
  <ele>1685.99</ele>
  <time>2026-08-27T18:26:19Z</time>
  <course>254.79</course>
  <speed>0.41</speed>
  <fix>3d</fix>
</trkpt>
<trkpt lat="40.0736877" lon="-105.2312659">
  <ele>1686.07</ele>
  <time>2026-08-27T18:26:19Z</time>
  <course>252.5</course>
  <speed>0.8160882305241266</speed>
  <fix>3d</fix>
</trkpt>
<trkpt lat="40.073688" lon="-105.2312644">
  <ele>1685.99</ele>
  <time>2026-08-27T18:26:19Z</time>
  <course>252.54</course>
  <speed>0.62</speed>
  <fix>3d</fix>
</trkpt>
<trkpt lat="40.0736872" lon="-105.2312679">
  <ele>1686.07</ele>
  <time>2026-08-27T18:26:19Z</time>
  <course>252.42</course>
  <speed>1.0088111815399352</speed>
  <fix>3d</fix>
</trkpt>
<trkpt lat="40.0736876" lon="-105.231266">
  <ele>1685.98</ele>
  <time>2026-08-27T18:26:19Z</time>
  <course>251.17</course>
  <speed>0.83</speed>
  <fix>3d</fix>
</trkpt>
<trkpt lat="40.0736865" lon="-105.2312704">
  <ele>1686.07</ele>
  <time>2026-08-27T18:26:19Z</time>
  <course>252.84</course>
  <speed>1.2016655108639842</speed>
  <fix>3d</fix>
</trkpt>
<trkpt lat="40.073687" lon="-105.231268">
  <ele>1685.98</ele>
  <time>2026-08-27T18:26:19Z</time>
  <course>250.23</course>
  <speed>1.03</speed>
  <fix>3d</fix>
</trkpt>
<trkpt lat="40.0736857" lon="-105.2312733">
  <ele>1686.07</ele>
  <time>2026-08-27T18:26:19Z</time>
  <course>252.53</course>
  <speed>1.372443077143821</speed>
  <fix>3d</fix>
</trkpt>
<trkpt lat="40.0736863" lon="-105.2312705">
  <ele>1685.98</ele>
  <time>2026-08-27T18:26:19Z</time>
  <course>249.91</course>
  <speed>1.22</speed>
  <fix>3d</fix>
</trkpt>
<trkpt lat="40.0736848" lon="-105.2312765">
  <ele>1686.06</ele>
  <time>2026-08-27T18:26:19Z</time>
  <course>252.37</course>
  <speed>1.5305554547287727</speed>
  <fix>3d</fix>
</trkpt>
<trkpt lat="40.0736855" lon="-105.2312734">
  <ele>1685.97</ele>
  <time>2026-08-27T18:26:19Z</time>
  <course>250.03</course>
  <speed>1.4</speed>
  <fix>3d</fix>
</trkpt>
<trkpt lat="40.0736838" lon="-105.2312801">
  <ele>1686.06</ele>
  <time>2026-08-27T18:26:19Z</time>
  <course>252.42</course>
  <speed>1.676007159889241</speed>
  <fix>3d</fix>
</trkpt>
<trkpt lat="40.0736846" lon="-105.2312767">
  <ele>1685.97</ele>
  <time>2026-08-27T18:26:19Z</time>
  <course>250.22</course>
  <speed>1.56</speed>
  <fix>3d</fix>
</trkpt>
<trkpt lat="40.0736828" lon="-105.231284">
  <ele>1686.06</ele>
  <time>2026-08-27T18:26:19Z</time>
  <course>252.64</course>
  <speed>1.8214829123546563</speed>
  <fix>3d</fix>
</trkpt>
<trkpt lat="40.0736836" lon="-105.2312804">
  <ele>1685.97</ele>
  <time>2026-08-27T18:26:19Z</time>
  <course>250.51</course>
  <speed>1.71</speed>
  <fix>3d</fix>
</trkpt>
<trkpt lat="40.0736817" lon="-105.2312882">
  <ele>1686.06</ele>
  <time>2026-08-27T18:26:19Z</time>
  <course>252.99</course>
  <speed>1.9513328778042973</speed>
  <fix>3d</fix>
</trkpt>
<trkpt lat="40.0736825" lon="-105.2312843">
  <ele>1685.97</ele>
  <time>2026-08-27T18:26:19Z</time>
  <course>250.91</course>
  <speed>1.85</speed>
  <fix>3d</fix>
</trkpt>
<trkpt lat="40.0736806" lon="-105.2312927">
  <ele>1686.06</ele>
  <time>2026-08-27T18:26:19Z</time>
  <course>253.42</course>
  <speed>2.0748011952955876</speed>
  <fix>3d</fix>
</trkpt>
<trkpt lat="40.0736814" lon="-105.2312886">
  <ele>1685.97</ele>
  <time>2026-08-27T18:26:19Z</time>
  <course>251.39</course>
  <speed>1.99</speed>
  <fix>3d</fix>
</trkpt>
<trkpt lat="40.0736794" lon="-105.2312976">
  <ele>1686.05</ele>
  <time>2026-08-27T18:26:19Z</time>
  <course>253.88</course>
  <speed>2.2049263026232873</speed>
  <fix>3d</fix>
</trkpt>
<trkpt lat="40.0736803" lon="-105.2312932">
  <ele>1685.97</ele>
  <time>2026-08-27T18:26:19Z</time>
  <course>251.92</course>
  <speed>2.12</speed>
  <fix>3d</fix>
</trkpt>
<trkpt lat="40.0736782" lon="-105.2313027">
  <ele>1686.05</ele>
  <time>2026-08-27T18:26:19Z</time>
  <course>254.34</course>
  <speed>2.332402195162747</speed>
  <fix>3d</fix>
</trkpt>
<trkpt lat="40.0736791" lon="-105.2312981">
  <ele>1685.97</ele>
  <time>2026-08-27T18:26:19Z</time>
  <course>252.46</course>
  <speed>2.25</speed>
  <fix>3d</fix>
</trkpt>
<trkpt lat="40.0736769" lon="-105.2313082">
  <ele>1686.05</ele>
  <time>2026-08-27T18:26:19Z</time>
  <course>254.78</course>
  <speed>2.4628844877500855</speed>
  <fix>3d</fix>
</trkpt>
<trkpt lat="40.0736778" lon="-105.2313032">
  <ele>1685.97</ele>
  <time>2026-08-27T18:26:19Z</time>
  <course>253.0</course>
  <speed>2.38</speed>
  <fix>3d</fix>
</trkpt>
<trkpt lat="40.0736756" lon="-105.2313139">
  <ele>1686.05</ele>
  <time>2026-08-27T18:26:19Z</time>
  <course>255.18</course>
  <speed>2.603113520382851</speed>
  <fix>3d</fix>
</trkpt>
<trkpt lat="40.0736766" lon="-105.2313087">
  <ele>1685.97</ele>
  <time>2026-08-27T18:26:19Z</time>
  <course>253.52</course>
  <speed>2.51</speed>
  <fix>3d</fix>
</trkpt>
<trkpt lat="40.0736743" lon="-105.23132">
  <ele>1686.05</ele>
  <time>2026-08-27T18:26:19Z</time>
  <course>255.53</course>
  <speed>2.753125496594734</speed>
  <fix>3d</fix>
</trkpt>
<trkpt lat="40.0736753" lon="-105.2313145">
  <ele>1685.97</ele>
  <time>2026-08-27T18:26:19Z</time>
  <course>253.99</course>
  <speed>2.65</speed>
  <fix>3d</fix>
</trkpt>
<trkpt lat="40.0736729" lon="-105.2313265">
  <ele>1686.05</ele>
  <time>2026-08-27T18:26:19Z</time>
  <course>255.82</course>
  <speed>2.9058045357525337</speed>
  <fix>3d</fix>
</trkpt>
<trkpt lat="40.0736739" lon="-105.2313207">
  <ele>1685.97</ele>
  <time>2026-08-27T18:26:19Z</time>
  <course>254.42</course>
  <speed>2.8</speed>
  <fix>3d</fix>
</trkpt>
<trkpt lat="40.0736715" lon="-105.2313334">
  <ele>1686.05</ele>
  <time>2026-08-27T18:26:19Z</time>
  <course>256.04</course>
  <speed>3.0753861546153844</speed>
  <fix>3d</fix>
</trkpt>
<trkpt lat="40.0736725" lon="-105.2313273">
  <ele>1685.97</ele>
  <time>2026-08-27T18:26:19Z</time>
  <course>254.79</course>
  <speed>2.95</speed>
  <fix>3d</fix>
</trkpt>
<trkpt lat="40.07367" lon="-105.2313407">
  <ele>1686.05</ele>
  <time>2026-08-27T18:26:19Z</time>
  <course>256.18</course>
  <speed>3.25</speed>
  <fix>3d</fix>
</trkpt>
<trkpt lat="40.0736712" lon="-105.2313341">
  <ele>1685.97</ele>
  <time>2026-08-27T18:26:19Z</time>
  <course>255.09</course>
  <speed>3.12</speed>
  <fix>3d</fix>
</trkpt>
<trkpt lat="40.0736685" lon="-105.2313483">
  <ele>1686.06</ele>
  <time>2026-08-27T18:26:19Z</time>
  <course>256.32</course>
  <speed>3.4318799512803473</speed>
  <fix>3d</fix>
</trkpt>
<trkpt lat="40.0736697" lon="-105.2313414">
  <ele>1685.97</ele>
  <time>2026-08-27T18:26:19Z</time>
  <course>255.33</course>
  <speed>3.29</speed>
  <fix>3d</fix>
</trkpt>
<trkpt lat="40.0736669" lon="-105.2313564">
  <ele>1686.05</ele>
  <time>2026-08-27T18:26:19Z</time>
  <course>256.35</course>
  <speed>3.6259205727649357</speed>
  <fix>3d</fix>
</trkpt>
<trkpt lat="40.0736682" lon="-105.2313491">
  <ele>1685.97</ele>
  <time>2026-08-27T18:26:19Z</time>
  <course>255.52</course>
  <speed>3.47</speed>
  <fix>3d</fix>
</trkpt>
<trkpt lat="40.0736653" lon="-105.231365">
  <ele>1686.05</ele>
  <time>2026-08-27T18:26:19Z</time>
  <course>256.34</course>
  <speed>3.8320751558391963</speed>
  <fix>3d</fix>
</trkpt>
<trkpt lat="40.0736665" lon="-105.2313572">
  <ele>1685.97</ele>
  <time>2026-08-27T18:26:19Z</time>
  <course>255.67</course>
  <speed>3.66</speed>
  <fix>3d</fix>
</trkpt>
<trkpt lat="40.0736635" lon="-105.231374">
  <ele>1686.04</ele>
  <time>2026-08-27T18:26:19Z</time>
  <course>256.28</course>
  <speed>4.0358394418014205</speed>
  <fix>3d</fix>
</trkpt>
<trkpt lat="40.0736649" lon="-105.2313658">
  <ele>1685.96</ele>
  <time>2026-08-27T18:26:19Z</time>
  <course>255.77</course>
  <speed>3.86</speed>
  <fix>3d</fix>
</trkpt>
<trkpt lat="40.0736617" lon="-105.2313836">
  <ele>1686.04</ele>
  <time>2026-08-27T18:26:19Z</time>
  <course>256.21</course>
  <speed>4.261419951143046</speed>
  <fix>3d</fix>
</trkpt>
<trkpt lat="40.0736632" lon="-105.2313749">
  <ele>1685.96</ele>
  <time>2026-08-27T18:26:19Z</time>
  <course>255.85</course>
  <speed>4.08</speed>
  <fix>3d</fix>
</trkpt>
<trkpt lat="40.0736598" lon="-105.2313936">
  <ele>1686.04</ele>
  <time>2026-08-27T18:26:19Z</time>
  <course>256.11</course>
  <speed>4.487003454422561</speed>
  <fix>3d</fix>
</trkpt>
<trkpt lat="40.0736613" lon="-105.2313844">
  <ele>1685.95</ele>
  <time>2026-08-27T18:26:19Z</time>
  <course>255.92</course>
  <speed>4.29</speed>
  <fix>3d</fix>
</trkpt>
<trkpt lat="40.0736577" lon="-105.2314041">
  <ele>1686.03</ele>
  <time>2026-08-27T18:26:19Z</time>
  <course>256.03</course>
  <speed>4.722308757377053</speed>
  <fix>3d</fix>
</trkpt>
<trkpt lat="40.0736593" lon="-105.2313944">
  <ele>1685.95</ele>
  <time>2026-08-27T18:26:19Z</time>
  <course>255.99</course>
  <speed>4.52</speed>
  <fix>3d</fix>
</trkpt>
<trkpt lat="40.0736556" lon="-105.2314153">
  <ele>1686.03</ele>
  <time>2026-08-27T18:26:19Z</time>
  <course>255.96</course>
  <speed>4.957620396924315</speed>
  <fix>3d</fix>
</trkpt>
<trkpt lat="40.0736574" lon="-105.231405">
  <ele>1685.95</ele>
  <time>2026-08-27T18:26:19Z</time>
  <course>256.05</course>
  <speed>4.75</speed>
  <fix>3d</fix>
</trkpt>
<trkpt lat="40.0736534" lon="-105.231427">
  <ele>1686.03</ele>
  <time>2026-08-27T18:26:19Z</time>
  <course>255.87</course>
  <speed>5.204997598462462</speed>
  <fix>3d</fix>
</trkpt>
<trkpt lat="40.0736553" lon="-105.2314162">
  <ele>1685.94</ele>
  <time>2026-08-27T18:26:19Z</time>
  <course>256.13</course>
  <speed>4.99</speed>
  <fix>3d</fix>
</trkpt>
<trkpt lat="40.0736511" lon="-105.2314393">
  <ele>1686.02</ele>
  <time>2026-08-27T18:26:19Z</time>
  <course>255.82</course>
  <speed>5.4477151173680145</speed>
  <fix>3d</fix>
</trkpt>
<trkpt lat="40.0736531" lon="-105.2314278">
  <ele>1685.94</ele>
  <time>2026-08-27T18:26:19Z</time>
  <course>256.22</course>
  <speed>5.24</speed>
  <fix>3d</fix>
</trkpt>
<trkpt lat="40.0736488" lon="-105.2314521">
  <ele>1686.02</ele>
  <time>2026-08-27T18:26:19Z</time>
  <course>255.82</course>
  <speed>5.702508220072988</speed>
  <fix>3d</fix>
</trkpt>
<trkpt lat="40.0736507" lon="-105.23144">
  <ele>1685.94</ele>
  <time>2026-08-27T18:26:19Z</time>
  <course>256.33</course>
  <speed>5.48</speed>
  <fix>3d</fix>
</trkpt>
<trkpt lat="40.0736463" lon="-105.2314655">
  <ele>1686.02</ele>
  <time>2026-08-27T18:26:19Z</time>
  <course>255.81</course>
  <speed>5.945300665231322</speed>
  <fix>3d</fix>
</trkpt>
<trkpt lat="40.0736483" lon="-105.2314529">
  <ele>1685.94</ele>
  <time>2026-08-27T18:26:19Z</time>
  <course>256.46</course>
  <speed>5.73</speed>
  <fix>3d</fix>
</trkpt>
<trkpt lat="40.0736438" lon="-105.2314794">
  <ele>1686.01</ele>
  <time>2026-08-27T18:26:19Z</time>
  <course>255.84</course>
  <speed>6.197878669351313</speed>
  <fix>3d</fix>
</trkpt>
<trkpt lat="40.0736459" lon="-105.2314662">
  <ele>1685.94</ele>
  <time>2026-08-27T18:26:19Z</time>
  <course>256.63</course>
  <speed>5.98</speed>
  <fix>3d</fix>
</trkpt>
<trkpt lat="40.0736412" lon="-105.2314939">
  <ele>1686.01</ele>
  <time>2026-08-27T18:26:19Z</time>
  <course>255.9</course>
  <speed>6.448294348120284</speed>
  <fix>3d</fix>
</trkpt>
<trkpt lat="40.0736434" lon="-105.2314802">
  <ele>1685.94</ele>
  <time>2026-08-27T18:26:19Z</time>
  <course>256.83</course>
  <speed>6.23</speed>
  <fix>3d</fix>
</trkpt>
<trkpt lat="40.0736386" lon="-105.231509">
  <ele>1686.01</ele>
  <time>2026-08-27T18:26:19Z</time>
  <course>256.0</course>
  <speed>6.706422295084019</speed>
  <fix>3d</fix>
</trkpt>
<trkpt lat="40.0736409" lon="-105.2314947">
  <ele>1685.94</ele>
  <time>2026-08-27T18:26:19Z</time>
  <course>257.06</course>
  <speed>6.48</speed>
  <fix>3d</fix>
</trkpt>
<trkpt lat="40.0736359" lon="-105.2315248">
  <ele>1686.01</ele>
  <time>2026-08-27T18:26:19Z</time>
  <course>256.15</course>
  <speed>6.954969446374297</speed>
  <fix>3d</fix>
</trkpt>
<trkpt lat="40.0736382" lon="-105.2315098">
  <ele>1685.94</ele>
  <time>2026-08-27T18:26:19Z</time>
  <course>257.34</course>
  <speed>6.73</speed>
  <fix>3d</fix>
</trkpt>
<trkpt lat="40.0736332" lon="-105.231541">
  <ele>1686.01</ele>
  <time>2026-08-27T18:26:19Z</time>
  <course>256.32</course>
  <speed>7.21345964153124</speed>
  <fix>3d</fix>
</trkpt>
<trkpt lat="40.0736355" lon="-105.2315256">
  <ele>1685.94</ele>
  <time>2026-08-27T18:26:19Z</time>
  <course>257.64</course>
  <speed>6.99</speed>
  <fix>3d</fix>
</trkpt>
<trkpt lat="40.0736305" lon="-105.2315579">
  <ele>1686.01</ele>
  <time>2026-08-27T18:26:19Z</time>
  <course>256.51</course>
  <speed>7.4681189063913545</speed>
  <fix>3d</fix>
</trkpt>
<trkpt lat="40.0736328" lon="-105.2315419">
  <ele>1685.94</ele>
  <time>2026-08-27T18:26:19Z</time>
  <course>257.98</course>
  <speed>7.24</speed>
  <fix>3d</fix>
</trkpt>
<trkpt lat="40.0736278" lon="-105.2315756">
  <ele>1686.02</ele>
  <time>2026-08-27T18:26:19Z</time>
  <course>256.74</course>
  <speed>7.723134078856847</speed>
  <fix>3d</fix>
</trkpt>
<trkpt lat="40.0736301" lon="-105.2315589">
  <ele>1685.94</ele>
  <time>2026-08-27T18:26:19Z</time>
  <course>258.36</course>
  <speed>7.5</speed>
  <fix>3d</fix>
</trkpt>
<trkpt lat="40.073625" lon="-105.2315937">
  <ele>1686.02</ele>
  <time>2026-08-27T18:26:19Z</time>
  <course>256.99</course>
  <speed>7.986451026582459</speed>
  <fix>3d</fix>
</trkpt>
<trkpt lat="40.0736274" lon="-105.2315764">
  <ele>1685.94</ele>
  <time>2026-08-27T18:26:19Z</time>
  <course>258.77</course>
  <speed>7.76</speed>
  <fix>3d</fix>
</trkpt>
<trkpt lat="40.0736224" lon="-105.2316124">
  <ele>1686.02</ele>
  <time>2026-08-27T18:26:19Z</time>
  <course>257.28</course>
  <speed>8.238604250721114</speed>
  <fix>3d</fix>
</trkpt>
<trkpt lat="40.0736247" lon="-105.2315946">
  <ele>1685.94</ele>
  <time>2026-08-27T18:26:19Z</time>
  <course>259.22</course>
  <speed>8.02</speed>
  <fix>3d</fix>
</trkpt>
<trkpt lat="40.0736197" lon="-105.2316318">
  <ele>1686.02</ele>
  <time>2026-08-27T18:26:19Z</time>
  <course>257.6</course>
  <speed>8.499458806300552</speed>
  <fix>3d</fix>
</trkpt>
<trkpt lat="40.073622" lon="-105.2316135">
  <ele>1685.94</ele>
  <time>2026-08-27T18:26:19Z</time>
  <course>259.7</course>
  <speed>8.28</speed>
  <fix>3d</fix>
</trkpt>
<trkpt lat="40.0736172" lon="-105.2316518">
  <ele>1686.02</ele>
  <time>2026-08-27T18:26:19Z</time>
  <course>257.94</course>
  <speed>8.767696390728867</speed>
  <fix>3d</fix>
</trkpt>
<trkpt lat="40.0736194" lon="-105.2316329">
  <ele>1685.93</ele>
  <time>2026-08-27T18:26:19Z</time>
  <course>260.23</course>
  <speed>8.54</speed>
  <fix>3d</fix>
</trkpt>
<trkpt lat="40.0736147" lon="-105.2316724">
  <ele>1686.02</ele>
  <time>2026-08-27T18:26:19Z</time>
  <course>258.24</course>
  <speed>9.027031627284797</speed>
  <fix>3d</fix>
</trkpt>
<trkpt lat="40.0736168" lon="-105.231653">
  <ele>1685.93</ele>
  <time>2026-08-27T18:26:19Z</time>
  <course>260.81</course>
  <speed>8.81</speed>
  <fix>3d</fix>
</trkpt>
<trkpt lat="40.0736124" lon="-105.2316937">
  <ele>1686.01</ele>
  <time>2026-08-27T18:26:19Z</time>
  <course>258.34</course>
  <speed>9.273278816039126</speed>
  <fix>3d</fix>
</trkpt>
<trkpt lat="40.0736143" lon="-105.2316738">
  <ele>1685.93</ele>
  <time>2026-08-27T18:26:19Z</time>
  <course>261.45</course>
  <speed>9.07</speed>
  <fix>3d</fix>
</trkpt>
<trkpt lat="40.0736102" lon="-105.2317155">
  <ele>1686.03</ele>
  <time>2026-08-27T18:26:20Z</time>
  <course>259.69</course>
  <speed>9.39938827796788</speed>
  <fix>3d</fix>
</trkpt>
<trkpt lat="40.073612" lon="-105.2316951">
  <ele>1685.93</ele>
  <time>2026-08-27T18:26:20Z</time>
  <course>262.15</course>
  <speed>9.31</speed>
  <fix>3d</fix>
</trkpt>
<trkpt lat="40.0736082" lon="-105.2317373">
  <ele>1686.08</ele>
  <time>2026-08-27T18:26:20Z</time>
  <course>261.77</course>
  <speed>9.364624925751166</speed>
  <fix>3d</fix>
</trkpt>
<trkpt lat="40.0736098" lon="-105.231717">
  <ele>1685.95</ele>
  <time>2026-08-27T18:26:20Z</time>
  <course>262.88</course>
  <speed>9.44</speed>
  <fix>3d</fix>
</trkpt>
<trkpt lat="40.0736064" lon="-105.2317591">
  <ele>1686.14</ele>
  <time>2026-08-27T18:26:20Z</time>
  <course>264.05</course>
  <speed>9.217445416166022</speed>
  <fix>3d</fix>
</trkpt>
<trkpt lat="40.0736078" lon="-105.2317391">
  <ele>1686.0</ele>
  <time>2026-08-27T18:26:20Z</time>
  <course>263.7</course>
  <speed>9.43</speed>
  <fix>3d</fix>
</trkpt>
<trkpt lat="40.0736051" lon="-105.2317807">
  <ele>1686.21</ele>
  <time>2026-08-27T18:26:20Z</time>
  <course>266.25</course>
  <speed>9.001377672334385</speed>
  <fix>3d</fix>
</trkpt>
<trkpt lat="40.0736061" lon="-105.2317609">
  <ele>1686.06</ele>
  <time>2026-08-27T18:26:20Z</time>
  <course>264.71</course>
  <speed>9.29</speed>
  <fix>3d</fix>
</trkpt>
<trkpt lat="40.0736041" lon="-105.2318017">
  <ele>1686.26</ele>
  <time>2026-08-27T18:26:20Z</time>
  <course>268.33</course>
  <speed>8.738266418460816</speed>
  <fix>3d</fix>
</trkpt>
<trkpt lat="40.0736048" lon="-105.2317824">
  <ele>1686.13</ele>
  <time>2026-08-27T18:26:20Z</time>
  <course>265.95</course>
  <speed>9.08</speed>
  <fix>3d</fix>
</trkpt>
<trkpt lat="40.0736036" lon="-105.2318221">
  <ele>1686.28</ele>
  <time>2026-08-27T18:26:20Z</time>
  <course>270.42</course>
  <speed>8.441001125458994</speed>
  <fix>3d</fix>
</trkpt>
<trkpt lat="40.0736038" lon="-105.2318034">
  <ele>1686.18</ele>
  <time>2026-08-27T18:26:20Z</time>
  <course>267.39</course>
  <speed>8.82</speed>
  <fix>3d</fix>
</trkpt>
<trkpt lat="40.0736035" lon="-105.2318417">
  <ele>1686.29</ele>
  <time>2026-08-27T18:26:20Z</time>
  <course>272.56</course>
  <speed>8.110887744260797</speed>
  <fix>3d</fix>
</trkpt>
<trkpt lat="40.0736033" lon="-105.2318239">
  <ele>1686.22</ele>
  <time>2026-08-27T18:26:20Z</time>
  <course>269.01</course>
  <speed>8.52</speed>
  <fix>3d</fix>
</trkpt>
<trkpt lat="40.0736039" lon="-105.2318606">
  <ele>1686.28</ele>
  <time>2026-08-27T18:26:20Z</time>
  <course>274.77</course>
  <speed>7.749322551036316</speed>
  <fix>3d</fix>
</trkpt>
<trkpt lat="40.0736033" lon="-105.2318435">
  <ele>1686.23</ele>
  <time>2026-08-27T18:26:20Z</time>
  <course>270.83</course>
  <speed>8.18</speed>
  <fix>3d</fix>
</trkpt>
<trkpt lat="40.0736047" lon="-105.2318785">
  <ele>1686.27</ele>
  <time>2026-08-27T18:26:20Z</time>
  <course>277.08</course>
  <speed>7.378685519792803</speed>
  <fix>3d</fix>
</trkpt>
<trkpt lat="40.0736036" lon="-105.2318622">
  <ele>1686.22</ele>
  <time>2026-08-27T18:26:20Z</time>
  <course>272.83</course>
  <speed>7.82</speed>
  <fix>3d</fix>
</trkpt>
<trkpt lat="40.0736061" lon="-105.2318955">
  <ele>1686.24</ele>
  <time>2026-08-27T18:26:20Z</time>
  <course>279.51</course>
  <speed>6.999407117749331</speed>
  <fix>3d</fix>
</trkpt>
<trkpt lat="40.0736045" lon="-105.2318802">
  <ele>1686.21</ele>
  <time>2026-08-27T18:26:20Z</time>
  <course>275.06</course>
  <speed>7.44</speed>
  <fix>3d</fix>
</trkpt>
<trkpt lat="40.0736079" lon="-105.2319115">
  <ele>1686.21</ele>
  <time>2026-08-27T18:26:20Z</time>
  <course>282.02</course>
  <speed>6.624145227876575</speed>
  <fix>3d</fix>
</trkpt>
<trkpt lat="40.073606" lon="-105.2318971">
  <ele>1686.19</ele>
  <time>2026-08-27T18:26:20Z</time>
  <course>277.53</course>
  <speed>7.06</speed>
  <fix>3d</fix>
</trkpt>
<trkpt lat="40.0736103" lon="-105.2319264">
  <ele>1686.19</ele>
  <time>2026-08-27T18:26:20Z</time>
  <course>284.85</course>
  <speed>6.255637457525812</speed>
  <fix>3d</fix>
</trkpt>
<trkpt lat="40.0736079" lon="-105.2319129">
  <ele>1686.16</ele>
  <time>2026-08-27T18:26:20Z</time>
  <course>280.29</course>
  <speed>6.68</speed>
  <fix>3d</fix>
</trkpt>
<trkpt lat="40.0736131" lon="-105.2319404">
  <ele>1686.16</ele>
  <time>2026-08-27T18:26:20Z</time>
  <course>288.01</course>
  <speed>5.8973383826943495</speed>
  <fix>3d</fix>
</trkpt>
<trkpt lat="40.0736103" lon="-105.2319278">
  <ele>1686.12</ele>
  <time>2026-08-27T18:26:20Z</time>
  <course>283.36</course>
  <speed>6.3</speed>
  <fix>3d</fix>
</trkpt>
<trkpt lat="40.0736163" lon="-105.2319533">
  <ele>1686.14</ele>
  <time>2026-08-27T18:26:20Z</time>
  <course>291.49</course>
  <speed>5.572333443002133</speed>
  <fix>3d</fix>
</trkpt>
<trkpt lat="40.0736131" lon="-105.2319418">
  <ele>1686.09</ele>
  <time>2026-08-27T18:26:20Z</time>
  <course>286.8</course>
  <speed>5.94</speed>
  <fix>3d</fix>
</trkpt>
<trkpt lat="40.0736201" lon="-105.2319653">
  <ele>1686.12</ele>
  <time>2026-08-27T18:26:20Z</time>
  <course>295.34</course>
  <speed>5.266165587977651</speed>
  <fix>3d</fix>
</trkpt>
<trkpt lat="40.0736165" lon="-105.2319546">
  <ele>1686.06</ele>
  <time>2026-08-27T18:26:20Z</time>
  <course>290.66</course>
  <speed>5.6</speed>
  <fix>3d</fix>
</trkpt>
<trkpt lat="40.0736243" lon="-105.2319761">
  <ele>1686.1</ele>
  <time>2026-08-27T18:26:20Z</time>
  <course>299.64</course>
  <speed>5.007284693324317</speed>
  <fix>3d</fix>
</trkpt>
<trkpt lat="40.0736203" lon="-105.2319664">
  <ele>1686.03</ele>
  <time>2026-08-27T18:26:20Z</time>
  <course>294.99</course>
  <speed>5.3</speed>
  <fix>3d</fix>
</trkpt>
<trkpt lat="40.073629" lon="-105.2319859">
  <ele>1686.08</ele>
  <time>2026-08-27T18:26:20Z</time>
  <course>304.42</course>
  <speed>4.780230119983765</speed>
  <fix>3d</fix>
</trkpt>
<trkpt lat="40.0736246" lon="-105.2319772">
  <ele>1686.01</ele>
  <time>2026-08-27T18:26:20Z</time>
  <course>299.88</course>
  <speed>5.03</speed>
  <fix>3d</fix>
</trkpt>
<trkpt lat="40.0736342" lon="-105.2319947">
  <ele>1686.06</ele>
  <time>2026-08-27T18:26:20Z</time>
  <course>309.76</course>
  <speed>4.6057789786310845</speed>
  <fix>3d</fix>
</trkpt>
<trkpt lat="40.0736294" lon="-105.231987">
  <ele>1685.98</ele>
  <time>2026-08-27T18:26:20Z</time>
  <course>305.38</course>
  <speed>4.8</speed>
  <fix>3d</fix>
</trkpt>
<trkpt lat="40.0736399" lon="-105.2320024">
  <ele>1686.04</ele>
  <time>2026-08-27T18:26:20Z</time>
  <course>315.65</course>
  <speed>4.482064256567503</speed>
  <fix>3d</fix>
</trkpt>
<trkpt lat="40.0736346" lon="-105.2319956">
  <ele>1685.96</ele>
  <time>2026-08-27T18:26:20Z</time>
  <course>311.49</course>
  <speed>4.62</speed>
  <fix>3d</fix>
</trkpt>
<trkpt lat="40.0736462" lon="-105.2320089">
  <ele>1686.03</ele>
  <time>2026-08-27T18:26:20Z</time>
  <course>322.1</course>
  <speed>4.396839774201466</speed>
  <fix>3d</fix>
</trkpt>
<trkpt lat="40.0736404" lon="-105.2320032">
  <ele>1685.94</ele>
  <time>2026-08-27T18:26:20Z</time>
  <course>318.23</course>
  <speed>4.5</speed>
  <fix>3d</fix>
</trkpt>
<trkpt lat="40.0736529" lon="-105.2320143">
  <ele>1686.01</ele>
  <time>2026-08-27T18:26:20Z</time>
  <course>329.07</course>
  <speed>4.360561890398989</speed>
  <fix>3d</fix>
</trkpt>
<trkpt lat="40.0736466" lon="-105.2320096">
  <ele>1685.92</ele>
  <time>2026-08-27T18:26:20Z</time>
  <course>325.5</course>
  <speed>4.41</speed>
  <fix>3d</fix>
</trkpt>
<trkpt lat="40.0736601" lon="-105.2320184">
  <ele>1686.01</ele>
  <time>2026-08-27T18:26:20Z</time>
  <course>336.41</course>
  <speed>4.354962686407313</speed>
  <fix>3d</fix>
</trkpt>
<trkpt lat="40.0736534" lon="-105.2320149">
  <ele>1685.92</ele>
  <time>2026-08-27T18:26:20Z</time>
  <course>333.15</course>
  <speed>4.38</speed>
  <fix>3d</fix>
</trkpt>
<trkpt lat="40.0736676" lon="-105.2320212">
  <ele>1686.01</ele>
  <time>2026-08-27T18:26:20Z</time>
  <course>343.94</course>
  <speed>4.379326432226764</speed>
  <fix>3d</fix>
</trkpt>
<trkpt lat="40.0736607" lon="-105.2320189">
  <ele>1685.91</ele>
  <time>2026-08-27T18:26:20Z</time>
  <course>340.93</course>
  <speed>4.38</speed>
  <fix>3d</fix>
</trkpt>
<trkpt lat="40.0736755" lon="-105.2320226">
  <ele>1686.02</ele>
  <time>2026-08-27T18:26:20Z</time>
  <course>351.5</course>
  <speed>4.3916739405379355</speed>
  <fix>3d</fix>
</trkpt>
<trkpt lat="40.0736682" lon="-105.2320216">
  <ele>1685.91</ele>
  <time>2026-08-27T18:26:20Z</time>
  <course>348.62</course>
  <speed>4.4</speed>
  <fix>3d</fix>
</trkpt>
<trkpt lat="40.0736834" lon="-105.2320229">
  <ele>1686.03</ele>
  <time>2026-08-27T18:26:20Z</time>
  <course>358.94</course>
  <speed>4.384563832355505</speed>
  <fix>3d</fix>
</trkpt>
<trkpt lat="40.0736761" lon="-105.232023">
  <ele>1685.91</ele>
  <time>2026-08-27T18:26:20Z</time>
  <course>355.98</course>
  <speed>4.42</speed>
  <fix>3d</fix>
</trkpt>
<trkpt lat="40.0736913" lon="-105.232022">
  <ele>1686.04</ele>
  <time>2026-08-27T18:26:20Z</time>
  <course>6.56</course>
  <speed>4.3518846492065935</speed>
  <fix>3d</fix>
</trkpt>
<trkpt lat="40.073684" lon="-105.2320231">
  <ele>1685.92</ele>
  <time>2026-08-27T18:26:20Z</time>
  <course>2.86</course>
  <speed>4.42</speed>
  <fix>3d</fix>
</trkpt>
<trkpt lat="40.073699" lon="-105.2320199">
  <ele>1686.04</ele>
  <time>2026-08-27T18:26:20Z</time>
  <course>12.85</course>
  <speed>4.341658669218482</speed>
  <fix>3d</fix>
</trkpt>
<trkpt lat="40.0736919" lon="-105.2320221">
  <ele>1685.93</ele>
  <time>2026-08-27T18:26:20Z</time>
  <course>9.21</course>
  <speed>4.4</speed>
  <fix>3d</fix>
</trkpt>
<trkpt lat="40.0737066" lon="-105.2320169">
  <ele>1686.04</ele>
  <time>2026-08-27T18:26:20Z</time>
  <course>17.72</course>
  <speed>4.377145188361931</speed>
  <fix>3d</fix>
</trkpt>
<trkpt lat="40.0736997" lon="-105.2320199">
  <ele>1685.94</ele>
  <time>2026-08-27T18:26:20Z</time>
  <course>14.98</course>
  <speed>4.39</speed>
  <fix>3d</fix>
</trkpt>
<trkpt lat="40.073714" lon="-105.2320131">
  <ele>1686.03</ele>
  <time>2026-08-27T18:26:20Z</time>
  <course>22.18</course>
  <speed>4.401545183228272</speed>
  <fix>3d</fix>
</trkpt>
<trkpt lat="40.0737072" lon="-105.2320168">
  <ele>1685.95</ele>
  <time>2026-08-27T18:26:20Z</time>
  <course>19.79</course>
  <speed>4.42</speed>
  <fix>3d</fix>
</trkpt>
<trkpt lat="40.0737213" lon="-105.232009">
  <ele>1686.04</ele>
  <time>2026-08-27T18:26:20Z</time>
  <course>25.1</course>
  <speed>4.380559325017754</speed>
  <fix>3d</fix>
</trkpt>
<trkpt lat="40.0737146" lon="-105.232013">
  <ele>1685.95</ele>
  <time>2026-08-27T18:26:20Z</time>
  <course>23.24</course>
  <speed>4.44</speed>
  <fix>3d</fix>
</trkpt>
<trkpt lat="40.0737284" lon="-105.2320046">
  <ele>1686.05</ele>
  <time>2026-08-27T18:26:20Z</time>
  <course>26.42</course>
  <speed>4.312261587612699</speed>
  <fix>3d</fix>
</trkpt>
<trkpt lat="40.0737219" lon="-105.2320087">
  <ele>1685.95</ele>
  <time>2026-08-27T18:26:20Z</time>
  <course>25.27</course>
  <speed>4.42</speed>
  <fix>3d</fix>
</trkpt>
<trkpt lat="40.0737354" lon="-105.2320003">
  <ele>1686.06</ele>
  <time>2026-08-27T18:26:20Z</time>
  <course>26.5</course>
  <speed>4.241568106255044</speed>
  <fix>3d</fix>
</trkpt>
<trkpt lat="40.073729" lon="-105.2320042">
  <ele>1685.96</ele>
  <time>2026-08-27T18:26:20Z</time>
  <course>26.0</course>
  <speed>4.35</speed>
  <fix>3d</fix>
</trkpt>
<trkpt lat="40.0737423" lon="-105.2319961">
  <ele>1686.07</ele>
  <time>2026-08-27T18:26:20Z</time>
  <course>25.45</course>
  <speed>4.18867520822515</speed>
  <fix>3d</fix>
</trkpt>
<trkpt lat="40.073736" lon="-105.2319998">
  <ele>1685.97</ele>
  <time>2026-08-27T18:26:20Z</time>
  <course>25.58</course>
  <speed>4.28</speed>
  <fix>3d</fix>
</trkpt>
<trkpt lat="40.0737493" lon="-105.2319924">
  <ele>1686.07</ele>
  <time>2026-08-27T18:26:20Z</time>
  <course>23.29</course>
  <speed>4.158485301164355</speed>
  <fix>3d</fix>
</trkpt>
<trkpt lat="40.0737429" lon="-105.2319956">
  <ele>1685.98</ele>
  <time>2026-08-27T18:26:20Z</time>
  <course>24.09</course>
  <speed>4.2</speed>
  <fix>3d</fix>
</trkpt>
<trkpt lat="40.0737564" lon="-105.231989">
  <ele>1686.06</ele>
  <time>2026-08-27T18:26:20Z</time>
  <course>20.16</course>
  <speed>4.178241256796931</speed>
  <fix>3d</fix>
</trkpt>
<trkpt lat="40.0737498" lon="-105.2319918">
  <ele>1685.99</ele>
  <time>2026-08-27T18:26:20Z</time>
  <course>21.57</course>
  <speed>4.16</speed>
  <fix>3d</fix>
</trkpt>
<trkpt lat="40.0737637" lon="-105.2319863">
  <ele>1686.05</ele>
  <time>2026-08-27T18:26:20Z</time>
  <course>16.21</course>
  <speed>4.2813315685660225</speed>
  <fix>3d</fix>
</trkpt>
<trkpt lat="40.0737569" lon="-105.2319884">
  <ele>1685.98</ele>
  <time>2026-08-27T18:26:20Z</time>
  <course>18.11</course>
  <speed>4.18</speed>
  <fix>3d</fix>
</trkpt>
<trkpt lat="40.0737714" lon="-105.2319842">
  <ele>1686.03</ele>
  <time>2026-08-27T18:26:20Z</time>
  <course>11.71</course>
  <speed>4.462118331017232</speed>
  <fix>3d</fix>
</trkpt>
<trkpt lat="40.0737642" lon="-105.2319857">
  <ele>1685.97</ele>
  <time>2026-08-27T18:26:20Z</time>
  <course>13.96</course>
  <speed>4.26</speed>
  <fix>3d</fix>
</trkpt>
<trkpt lat="40.0737796" lon="-105.2319828">
  <ele>1686.01</ele>
  <time>2026-08-27T18:26:20Z</time>
  <course>6.96</course>
  <speed>4.72451055666087</speed>
  <fix>3d</fix>
</trkpt>
<trkpt lat="40.0737718" lon="-105.2319836">
  <ele>1685.95</ele>
  <time>2026-08-27T18:26:20Z</time>
  <course>9.45</course>
  <speed>4.42</speed>
  <fix>3d</fix>
</trkpt>
<trkpt lat="40.0737884" lon="-105.2319822">
  <ele>1685.98</ele>
  <time>2026-08-27T18:26:20Z</time>
  <course>2.32</course>
  <speed>5.090353622293838</speed>
  <fix>3d</fix>
</trkpt>
<trkpt lat="40.0737799" lon="-105.2319823">
  <ele>1685.93</ele>
  <time>2026-08-27T18:26:20Z</time>
  <course>5.03</course>
  <speed>4.68</speed>
  <fix>3d</fix>
</trkpt>
<trkpt lat="40.0737978" lon="-105.2319822">
  <ele>1685.95</ele>
  <time>2026-08-27T18:26:20Z</time>
  <course>358.03</course>
  <speed>5.524382318413526</speed>
  <fix>3d</fix>
</trkpt>
<trkpt lat="40.0737886" lon="-105.2319817">
  <ele>1685.91</ele>
  <time>2026-08-27T18:26:20Z</time>
  <course>1.05</course>
  <speed>5.03</speed>
  <fix>3d</fix>
</trkpt>
<trkpt lat="40.073808" lon="-105.2319829">
  <ele>1685.93</ele>
  <time>2026-08-27T18:26:20Z</time>
  <course>354.36</course>
  <speed>6.000866604083114</speed>
  <fix>3d</fix>
</trkpt>
<trkpt lat="40.0737981" lon="-105.2319818">
  <ele>1685.88</ele>
  <time>2026-08-27T18:26:20Z</time>
  <course>357.72</course>
  <speed>5.46</speed>
  <fix>3d</fix>
</trkpt>
<trkpt lat="40.073819" lon="-105.2319843">
  <ele>1685.92</ele>
  <time>2026-08-27T18:26:20Z</time>
  <course>351.48</course>
  <speed>6.483525275650585</speed>
  <fix>3d</fix>
</trkpt>
<trkpt lat="40.0738082" lon="-105.2319826">
  <ele>1685.86</ele>
  <time>2026-08-27T18:26:20Z</time>
  <course>355.13</course>
  <speed>5.94</speed>
  <fix>3d</fix>
</trkpt>
<trkpt lat="40.0738308" lon="-105.2319862">
  <ele>1685.91</ele>
  <time>2026-08-27T18:26:20Z</time>
  <course>349.44</course>
  <speed>6.93537309738993</speed>
  <fix>3d</fix>
</trkpt>
<trkpt lat="40.0738193" lon="-105.2319841">
  <ele>1685.84</ele>
  <time>2026-08-27T18:26:20Z</time>
  <course>353.22</course>
  <speed>6.43</speed>
  <fix>3d</fix>
</trkpt>
<trkpt lat="40.0738433" lon="-105.2319886">
  <ele>1685.92</ele>
  <time>2026-08-27T18:26:20Z</time>
  <course>348.22</course>
  <speed>7.331480068853765</speed>
  <fix>3d</fix>
</trkpt>
<trkpt lat="40.0738312" lon="-105.2319861">
  <ele>1685.84</ele>
  <time>2026-08-27T18:26:20Z</time>
  <course>351.91</course>
  <speed>6.9</speed>
  <fix>3d</fix>
</trkpt>
<trkpt lat="40.0738564" lon="-105.2319912">
  <ele>1685.94</ele>
  <time>2026-08-27T18:26:20Z</time>
  <course>347.74</course>
  <speed>7.671297152372603</speed>
  <fix>3d</fix>
</trkpt>
<trkpt lat="40.0738439" lon="-105.2319886">
  <ele>1685.85</ele>
  <time>2026-08-27T18:26:20Z</time>
  <course>351.12</course>
  <speed>7.32</speed>
  <fix>3d</fix>
</trkpt>
<trkpt lat="40.0738703" lon="-105.2319941">
  <ele>1685.96</ele>
  <time>2026-08-27T18:26:20Z</time>
  <course>347.86</course>
  <speed>7.952590772823658</speed>
  <fix>3d</fix>
</trkpt>
<trkpt lat="40.0738572" lon="-105.2319914">
  <ele>1685.87</ele>
  <time>2026-08-27T18:26:20Z</time>
  <course>350.79</course>
  <speed>7.67</speed>
  <fix>3d</fix>
</trkpt>
<trkpt lat="40.0738846" lon="-105.2319969">
  <ele>1686.0</ele>
  <time>2026-08-27T18:26:20Z</time>
  <course>348.47</course>
  <speed>8.17705325896805</speed>
  <fix>3d</fix>
</trkpt>
<trkpt lat="40.0738711" lon="-105.2319943">
  <ele>1685.9</ele>
  <time>2026-08-27T18:26:20Z</time>
  <course>350.86</course>
  <speed>7.96</speed>
  <fix>3d</fix>
</trkpt>
<trkpt lat="40.0738993" lon="-105.2319997">
  <ele>1686.03</ele>
  <time>2026-08-27T18:26:20Z</time>
  <course>349.39</course>
  <speed>8.345495791143867</speed>
  <fix>3d</fix>
</trkpt>
<trkpt lat="40.0738854" lon="-105.2319972">
  <ele>1685.94</ele>
  <time>2026-08-27T18:26:20Z</time>
  <course>351.25</course>
  <speed>8.2</speed>
  <fix>3d</fix>
</trkpt>
<trkpt lat="40.0739142" lon="-105.2320023">
  <ele>1686.06</ele>
  <time>2026-08-27T18:26:20Z</time>
  <course>350.62</course>
  <speed>8.470430921741821</speed>
  <fix>3d</fix>
</trkpt>
<trkpt lat="40.0739002" lon="-105.2320001">
  <ele>1685.97</ele>
  <time>2026-08-27T18:26:20Z</time>
  <course>351.9</course>
  <speed>8.38</speed>
  <fix>3d</fix>
</trkpt>
<trkpt lat="40.0739294" lon="-105.2320046">
  <ele>1686.09</ele>
  <time>2026-08-27T18:26:20Z</time>
  <course>352.03</course>
  <speed>8.54440752773415</speed>
  <fix>3d</fix>
</trkpt>
<trkpt lat="40.0739152" lon="-105.2320028">
  <ele>1686.01</ele>
  <time>2026-08-27T18:26:20Z</time>
  <course>352.75</course>
  <speed>8.51</speed>
  <fix>3d</fix>
</trkpt>
<trkpt lat="40.0739447" lon="-105.2320066">
  <ele>1686.12</ele>
  <time>2026-08-27T18:26:20Z</time>
  <course>353.61</course>
  <speed>8.569463227063874</speed>
  <fix>3d</fix>
</trkpt>
<trkpt lat="40.0739305" lon="-105.2320052">
  <ele>1686.04</ele>
  <time>2026-08-27T18:26:20Z</time>
  <course>353.75</course>
  <speed>8.59</speed>
  <fix>3d</fix>
</trkpt>
<trkpt lat="40.0739601" lon="-105.2320082">
  <ele>1686.14</ele>
  <time>2026-08-27T18:26:20Z</time>
  <course>355.29</course>
  <speed>8.556430330459074</speed>
  <fix>3d</fix>
</trkpt>
<trkpt lat="40.0739459" lon="-105.2320072">
  <ele>1686.07</ele>
  <time>2026-08-27T18:26:20Z</time>
  <course>354.86</course>
  <speed>8.62</speed>
  <fix>3d</fix>
</trkpt>
<trkpt lat="40.0739755" lon="-105.2320094">
  <ele>1686.16</ele>
  <time>2026-08-27T18:26:20Z</time>
  <course>356.85</course>
  <speed>8.53717751953185</speed>
  <fix>3d</fix>
</trkpt>
<trkpt lat="40.0739614" lon="-105.2320087">
  <ele>1686.09</ele>
  <time>2026-08-27T18:26:20Z</time>
  <course>356.05</course>
  <speed>8.62</speed>
  <fix>3d</fix>
</trkpt>
<trkpt lat="40.0739908" lon="-105.2320101">
  <ele>1686.17</ele>
  <time>2026-08-27T18:26:20Z</time>
  <course>358.23</course>
  <speed>8.50150574898353</speed>
  <fix>3d</fix>
</trkpt>
<trkpt lat="40.0739768" lon="-105.2320099">
  <ele>1686.11</ele>
  <time>2026-08-27T18:26:20Z</time>
  <course>357.29</course>
  <speed>8.59</speed>
  <fix>3d</fix>
</trkpt>
<trkpt lat="40.0740061" lon="-105.2320104">
  <ele>1686.17</ele>
  <time>2026-08-27T18:26:20Z</time>
  <course>359.54</course>
  <speed>8.46000591016342</speed>
  <fix>3d</fix>
</trkpt>
<trkpt lat="40.0739922" lon="-105.2320106">
  <ele>1686.12</ele>
  <time>2026-08-27T18:26:20Z</time>
  <course>358.55</course>
  <speed>8.56</speed>
  <fix>3d</fix>
</trkpt>
<trkpt lat="40.0740214" lon="-105.2320105">
  <ele>1686.16</ele>
  <time>2026-08-27T18:26:20Z</time>
  <course>0.88</course>
  <speed>8.381527307120104</speed>
  <fix>3d</fix>
</trkpt>
<trkpt lat="40.0740075" lon="-105.2320109">
  <ele>1686.12</ele>
  <time>2026-08-27T18:26:20Z</time>
  <course>359.76</course>
  <speed>8.51</speed>
  <fix>3d</fix>
</trkpt>
<trkpt lat="40.0740365" lon="-105.23201">
  <ele>1686.16</ele>
  <time>2026-08-27T18:26:20Z</time>
  <course>2.22</course>
  <speed>8.245459356518593</speed>
  <fix>3d</fix>
</trkpt>
<trkpt lat="40.0740227" lon="-105.2320109">
  <ele>1686.12</ele>
  <time>2026-08-27T18:26:20Z</time>
  <course>0.87</course>
  <speed>8.43</speed>
  <fix>3d</fix>
</trkpt>
<trkpt lat="40.0740513" lon="-105.2320093">
  <ele>1686.18</ele>
  <time>2026-08-27T18:26:20Z</time>
  <course>3.51</course>
  <speed>8.049944099184788</speed>
  <fix>3d</fix>
</trkpt>
<trkpt lat="40.0740378" lon="-105.2320105">
  <ele>1686.12</ele>
  <time>2026-08-27T18:26:20Z</time>
  <course>1.85</course>
  <speed>8.29</speed>
  <fix>3d</fix>
</trkpt>
<trkpt lat="40.0740656" lon="-105.2320083">
  <ele>1686.19</ele>
  <time>2026-08-27T18:26:20Z</time>
  <course>4.71</course>
  <speed>7.805395569732517</speed>
  <fix>3d</fix>
</trkpt>
<trkpt lat="40.0740526" lon="-105.2320097">
  <ele>1686.13</ele>
  <time>2026-08-27T18:26:20Z</time>
  <course>2.71</course>
  <speed>8.1</speed>
  <fix>3d</fix>
</trkpt>
<trkpt lat="40.0740795" lon="-105.2320072">
  <ele>1686.21</ele>
  <time>2026-08-27T18:26:20Z</time>
  <course>5.75</course>
  <speed>7.5101664428959225</speed>
  <fix>3d</fix>
</trkpt>
<trkpt lat="40.0740669" lon="-105.2320087">
  <ele>1686.15</ele>
  <time>2026-08-27T18:26:20Z</time>
  <course>3.46</course>
  <speed>7.86</speed>
  <fix>3d</fix>
</trkpt>
<trkpt lat="40.0740928" lon="-105.2320059">
  <ele>1686.22</ele>
  <time>2026-08-27T18:26:20Z</time>
  <course>6.65</course>
  <speed>7.164335279703205</speed>
  <fix>3d</fix>
</trkpt>
<trkpt lat="40.0740808" lon="-105.2320075">
  <ele>1686.16</ele>
  <time>2026-08-27T18:26:20Z</time>
  <course>4.11</course>
  <speed>7.56</speed>
  <fix>3d</fix>
</trkpt>
<trkpt lat="40.0741054" lon="-105.2320046">
  <ele>1686.22</ele>
  <time>2026-08-27T18:26:20Z</time>
  <course>7.37</course>
  <speed>6.767547561709486</speed>
  <fix>3d</fix>
</trkpt>
<trkpt lat="40.074094" lon="-105.2320062">
  <ele>1686.17</ele>
  <time>2026-08-27T18:26:20Z</time>
  <course>4.67</course>
  <speed>7.21</speed>
  <fix>3d</fix>
</trkpt>
<trkpt lat="40.0741173" lon="-105.2320032">
  <ele>1686.22</ele>
  <time>2026-08-27T18:26:20Z</time>
  <course>7.96</course>
  <speed>6.338461958551144</speed>
  <fix>3d</fix>
</trkpt>
<trkpt lat="40.0741066" lon="-105.2320047">
  <ele>1686.18</ele>
  <time>2026-08-27T18:26:20Z</time>
  <course>5.13</course>
  <speed>6.81</speed>
  <fix>3d</fix>
</trkpt>
<trkpt lat="40.0741283" lon="-105.2320018">
  <ele>1686.22</ele>
  <time>2026-08-27T18:26:20Z</time>
  <course>8.31</course>
  <speed>5.878681825035269</speed>
  <fix>3d</fix>
</trkpt>
<trkpt lat="40.0741184" lon="-105.2320033">
  <ele>1686.19</ele>
  <time>2026-08-27T18:26:20Z</time>
  <course>5.48</course>
  <speed>6.38</speed>
  <fix>3d</fix>
</trkpt>
<trkpt lat="40.0741385" lon="-105.2320005">
  <ele>1686.2</ele>
  <time>2026-08-27T18:26:20Z</time>
  <course>8.43</course>
  <speed>5.4070324578274915</speed>
  <fix>3d</fix>
</trkpt>
<trkpt lat="40.0741293" lon="-105.2320019">
  <ele>1686.18</ele>
  <time>2026-08-27T18:26:20Z</time>
  <course>5.71</course>
  <speed>5.91</speed>
  <fix>3d</fix>
</trkpt>
<trkpt lat="40.0741479" lon="-105.2319993">
  <ele>1686.18</ele>
  <time>2026-08-27T18:26:20Z</time>
  <course>8.27</course>
  <speed>4.963265054377008</speed>
  <fix>3d</fix>
</trkpt>
<trkpt lat="40.0741395" lon="-105.2320005">
  <ele>1686.17</ele>
  <time>2026-08-27T18:26:20Z</time>
  <course>5.8</course>
  <speed>5.44</speed>
  <fix>3d</fix>
</trkpt>
<trkpt lat="40.0741566" lon="-105.2319982">
  <ele>1686.15</ele>
  <time>2026-08-27T18:26:20Z</time>
  <course>7.83</course>
  <speed>4.569343497702925</speed>
  <fix>3d</fix>
</trkpt>
<trkpt lat="40.0741488" lon="-105.2319993">
  <ele>1686.14</ele>
  <time>2026-08-27T18:26:20Z</time>
  <course>5.74</course>
  <speed>4.99</speed>
  <fix>3d</fix>
</trkpt>
<trkpt lat="40.0741645" lon="-105.2319973">
  <ele>1686.11</ele>
  <time>2026-08-27T18:26:20Z</time>
  <course>7.12</course>
  <speed>4.234489343474606</speed>
  <fix>3d</fix>
</trkpt>
<trkpt lat="40.0741574" lon="-105.2319982">
  <ele>1686.11</ele>
  <time>2026-08-27T18:26:20Z</time>
  <course>5.48</course>
  <speed>4.58</speed>
  <fix>3d</fix>
</trkpt>
<trkpt lat="40.074172" lon="-105.2319965">
  <ele>1686.08</ele>
  <time>2026-08-27T18:26:20Z</time>
  <course>6.1</course>
  <speed>3.9791707678861936</speed>
  <fix>3d</fix>
</trkpt>
<trkpt lat="40.0741653" lon="-105.2319972">
  <ele>1686.08</ele>
  <time>2026-08-27T18:26:20Z</time>
  <course>4.96</course>
  <speed>4.24</speed>
  <fix>3d</fix>
</trkpt>
<trkpt lat="40.074179" lon="-105.231996">
  <ele>1686.04</ele>
  <time>2026-08-27T18:26:20Z</time>
  <course>4.77</course>
  <speed>3.7942719986843327</speed>
  <fix>3d</fix>
</trkpt>
<trkpt lat="40.0741726" lon="-105.2319965">
  <ele>1686.04</ele>
  <time>2026-08-27T18:26:20Z</time>
  <course>4.1</course>
  <speed>3.97</speed>
  <fix>3d</fix>
</trkpt>
<trkpt lat="40.0741857" lon="-105.2319956">
  <ele>1686.02</ele>
  <time>2026-08-27T18:26:20Z</time>
  <course>3.16</course>
  <speed>3.670871831050493</speed>
  <fix>3d</fix>
</trkpt>
<trkpt lat="40.0741795" lon="-105.2319959">
  <ele>1686.01</ele>
  <time>2026-08-27T18:26:20Z</time>
  <course>2.91</course>
  <speed>3.77</speed>
  <fix>3d</fix>
</trkpt>
<trkpt lat="40.0741922" lon="-105.2319955">
  <ele>1686.0</ele>
  <time>2026-08-27T18:26:20Z</time>
  <course>1.37</course>
  <speed>3.6100138503889427</speed>
  <fix>3d</fix>
</trkpt>
<trkpt lat="40.0741862" lon="-105.2319956">
  <ele>1685.99</ele>
  <time>2026-08-27T18:26:20Z</time>
  <course>1.44</course>
  <speed>3.64</speed>
  <fix>3d</fix>
</trkpt>
<trkpt lat="40.0741987" lon="-105.2319957">
  <ele>1685.99</ele>
  <time>2026-08-27T18:26:20Z</time>
  <course>359.56</course>
  <speed>3.6016801634792612</speed>
  <fix>3d</fix>
</trkpt>
<trkpt lat="40.0741927" lon="-105.2319955">
  <ele>1685.97</ele>
  <time>2026-08-27T18:26:20Z</time>
  <course>359.82</course>
  <speed>3.57</speed>
  <fix>3d</fix>
</trkpt>
<trkpt lat="40.0742051" lon="-105.2319959">
  <ele>1685.98</ele>
  <time>2026-08-27T18:26:20Z</time>
  <course>357.89</course>
  <speed>3.6549418600027006</speed>
  <fix>3d</fix>
</trkpt>
<trkpt lat="40.0741991" lon="-105.2319956">
  <ele>1685.95</ele>
  <time>2026-08-27T18:26:20Z</time>
  <course>358.21</course>
  <speed>3.57</speed>
  <fix>3d</fix>
</trkpt>
<trkpt lat="40.0742117" lon="-105.2319965">
  <ele>1685.98</ele>
  <time>2026-08-27T18:26:20Z</time>
  <course>356.44</course>
  <speed>3.749733323851178</speed>
  <fix>3d</fix>
</trkpt>
<trkpt lat="40.0742055" lon="-105.2319959">
  <ele>1685.95</ele>
  <time>2026-08-27T18:26:20Z</time>
  <course>356.79</course>
  <speed>3.62</speed>
  <fix>3d</fix>
</trkpt>
<trkpt lat="40.0742184" lon="-105.2319971">
  <ele>1685.98</ele>
  <time>2026-08-27T18:26:20Z</time>
  <course>355.08</course>
  <speed>3.84252521136817</speed>
  <fix>3d</fix>
</trkpt>
<trkpt lat="40.0742121" lon="-105.2319964">
  <ele>1685.95</ele>
  <time>2026-08-27T18:26:20Z</time>
  <course>355.67</course>
  <speed>3.71</speed>
  <fix>3d</fix>
</trkpt>
<trkpt lat="40.0742253" lon="-105.2319979">
  <ele>1686.0</ele>
  <time>2026-08-27T18:26:20Z</time>
  <course>354.92</course>
  <speed>3.8616706229299256</speed>
  <fix>3d</fix>
</trkpt>
<trkpt lat="40.0742189" lon="-105.2319972">
  <ele>1685.95</ele>
  <time>2026-08-27T18:26:20Z</time>
  <course>355.05</course>
  <speed>3.8</speed>
  <fix>3d</fix>
</trkpt>
<trkpt lat="40.0742321" lon="-105.2319985">
  <ele>1686.02</ele>
  <time>2026-08-27T18:26:20Z</time>
  <course>356.1</course>
  <speed>3.765859795584536</speed>
  <fix>3d</fix>
</trkpt>
<trkpt lat="40.0742257" lon="-105.231998">
  <ele>1685.97</ele>
  <time>2026-08-27T18:26:20Z</time>
  <course>355.2</course>
  <speed>3.83</speed>
  <fix>3d</fix>
</trkpt>
<trkpt lat="40.0742387" lon="-105.2319989">
  <ele>1686.06</ele>
  <time>2026-08-27T18:26:20Z</time>
  <course>358.54</course>
  <speed>3.600347205478938</speed>
  <fix>3d</fix>
</trkpt>
<trkpt lat="40.0742326" lon="-105.2319986">
  <ele>1685.99</ele>
  <time>2026-08-27T18:26:20Z</time>
  <course>356.33</course>
  <speed>3.75</speed>
  <fix>3d</fix>
</trkpt>
<trkpt lat="40.074245" lon="-105.2319988">
  <ele>1686.09</ele>
  <time>2026-08-27T18:26:20Z</time>
  <course>1.93</course>
  <speed>3.413751601976922</speed>
  <fix>3d</fix>
</trkpt>
<trkpt lat="40.0742391" lon="-105.2319991">
  <ele>1686.02</ele>
  <time>2026-08-27T18:26:20Z</time>
  <course>358.6</course>
  <speed>3.6</speed>
  <fix>3d</fix>
</trkpt>
<trkpt lat="40.074251" lon="-105.2319982">
  <ele>1686.11</ele>
  <time>2026-08-27T18:26:20Z</time>
  <course>6.3</course>
  <speed>3.23736003558455</speed>
  <fix>3d</fix>
</trkpt>
<trkpt lat="40.0742454" lon="-105.231999">
  <ele>1686.05</ele>
  <time>2026-08-27T18:26:20Z</time>
  <course>2.11</course>
  <speed>3.42</speed>
  <fix>3d</fix>
</trkpt>
<trkpt lat="40.0742566" lon="-105.231997">
  <ele>1686.12</ele>
  <time>2026-08-27T18:26:20Z</time>
  <course>11.67</course>
  <speed>3.085190431723786</speed>
  <fix>3d</fix>
</trkpt>
<trkpt lat="40.0742515" lon="-105.2319985">
  <ele>1686.08</ele>
  <time>2026-08-27T18:26:20Z</time>
  <course>6.87</course>
  <speed>3.24</speed>
  <fix>3d</fix>
</trkpt>
<trkpt lat="40.0742618" lon="-105.231995">
  <ele>1686.12</ele>
  <time>2026-08-27T18:26:20Z</time>
  <course>18.01</course>
  <speed>2.9716830248194372</speed>
  <fix>3d</fix>
</trkpt>
<trkpt lat="40.074257" lon="-105.2319972">
  <ele>1686.09</ele>
  <time>2026-08-27T18:26:20Z</time>
  <course>12.84</course>
  <speed>3.09</speed>
  <fix>3d</fix>
</trkpt>
<trkpt lat="40.0742667" lon="-105.2319923">
  <ele>1686.11</ele>
  <time>2026-08-27T18:26:20Z</time>
  <course>25.2</course>
  <speed>2.9178073959739015</speed>
  <fix>3d</fix>
</trkpt>
<trkpt lat="40.0742623" lon="-105.2319953">
  <ele>1686.08</ele>
  <time>2026-08-27T18:26:20Z</time>
  <course>19.93</course>
  <speed>2.97</speed>
  <fix>3d</fix>
</trkpt>
<trkpt lat="40.0742711" lon="-105.2319887">
  <ele>1686.1</ele>
  <time>2026-08-27T18:26:20Z</time>
  <course>32.99</course>
  <speed>2.9260553651631405</speed>
  <fix>3d</fix>
</trkpt>
<trkpt lat="40.0742671" lon="-105.2319924">
  <ele>1686.07</ele>
  <time>2026-08-27T18:26:20Z</time>
  <course>27.93</course>
  <speed>2.91</speed>
  <fix>3d</fix>
</trkpt>
<trkpt lat="40.0742751" lon="-105.2319842">
  <ele>1686.09</ele>
  <time>2026-08-27T18:26:20Z</time>
  <course>41.1</course>
  <speed>3.0124076749337894</speed>
  <fix>3d</fix>
</trkpt>
<trkpt lat="40.0742715" lon="-105.2319888">
  <ele>1686.06</ele>
  <time>2026-08-27T18:26:20Z</time>
  <course>36.45</course>
  <speed>2.92</speed>
  <fix>3d</fix>
</trkpt>
<trkpt lat="40.0742788" lon="-105.2319787">
  <ele>1686.07</ele>
  <time>2026-08-27T18:26:20Z</time>
  <course>49.06</course>
  <speed>3.1761612049768506</speed>
  <fix>3d</fix>
</trkpt>
<trkpt lat="40.0742756" lon="-105.2319842">
  <ele>1686.05</ele>
  <time>2026-08-27T18:26:20Z</time>
  <course>44.98</course>
  <speed>3.01</speed>
  <fix>3d</fix>
</trkpt>
<trkpt lat="40.074282" lon="-105.2319723">
  <ele>1686.04</ele>
  <time>2026-08-27T18:26:20Z</time>
  <course>56.41</course>
  <speed>3.393700045672864</speed>
  <fix>3d</fix>
</trkpt>
<trkpt lat="40.0742792" lon="-105.2319788">
  <ele>1686.03</ele>
  <time>2026-08-27T18:26:20Z</time>
  <course>53.0</course>
  <speed>3.17</speed>
  <fix>3d</fix>
</trkpt>
<trkpt lat="40.0742849" lon="-105.2319649">
  <ele>1686.03</ele>
  <time>2026-08-27T18:26:20Z</time>
  <course>62.85</course>
  <speed>3.6647646582011237</speed>
  <fix>3d</fix>
</trkpt>
<trkpt lat="40.0742824" lon="-105.2319724">
  <ele>1686.01</ele>
  <time>2026-08-27T18:26:20Z</time>
  <course>60.15</course>
  <speed>3.39</speed>
  <fix>3d</fix>
</trkpt>
<trkpt lat="40.0742873" lon="-105.2319566">
  <ele>1686.01</ele>
  <time>2026-08-27T18:26:20Z</time>
  <course>68.31</course>
  <speed>3.956071283483148</speed>
  <fix>3d</fix>
</trkpt>
<trkpt lat="40.0742852" lon="-105.231965">
  <ele>1685.99</ele>
  <time>2026-08-27T18:26:20Z</time>
  <course>66.29</course>
  <speed>3.65</speed>
  <fix>3d</fix>
</trkpt>
<trkpt lat="40.0742894" lon="-105.2319474">
  <ele>1686.0</ele>
  <time>2026-08-27T18:26:20Z</time>
  <course>72.83</course>
  <speed>4.263801121065568</speed>
  <fix>3d</fix>
</trkpt>
<trkpt lat="40.0742877" lon="-105.2319566">
  <ele>1685.97</ele>
  <time>2026-08-27T18:26:20Z</time>
  <course>71.47</course>
  <speed>3.95</speed>
  <fix>3d</fix>
</trkpt>
<trkpt lat="40.0742911" lon="-105.2319373">
  <ele>1686.0</ele>
  <time>2026-08-27T18:26:20Z</time>
  <course>76.56</course>
  <speed>4.582161062206348</speed>
  <fix>3d</fix>
</trkpt>
<trkpt lat="40.0742898" lon="-105.2319474">
  <ele>1685.97</ele>
  <time>2026-08-27T18:26:20Z</time>
  <course>75.79</course>
  <speed>4.25</speed>
  <fix>3d</fix>
</trkpt>
<trkpt lat="40.0742925" lon="-105.2319264">
  <ele>1686.0</ele>
  <time>2026-08-27T18:26:20Z</time>
  <course>79.73</course>
  <speed>4.886972477925367</speed>
  <fix>3d</fix>
</trkpt>
<trkpt lat="40.0742914" lon="-105.2319373">
  <ele>1685.97</ele>
  <time>2026-08-27T18:26:20Z</time>
  <course>79.43</course>
  <speed>4.57</speed>
  <fix>3d</fix>
</trkpt>
<trkpt lat="40.0742934" lon="-105.2319147">
  <ele>1686.0</ele>
  <time>2026-08-27T18:26:20Z</time>
  <course>82.53</course>
  <speed>5.185450800075149</speed>
  <fix>3d</fix>
</trkpt>
<trkpt lat="40.0742927" lon="-105.2319263">
  <ele>1685.97</ele>
  <time>2026-08-27T18:26:20Z</time>
  <course>82.54</course>
  <speed>4.89</speed>
  <fix>3d</fix>
</trkpt>
<trkpt lat="40.074294" lon="-105.2319023">
  <ele>1686.0</ele>
  <time>2026-08-27T18:26:20Z</time>
  <course>85.04</course>
  <speed>5.473655085954905</speed>
  <fix>3d</fix>
</trkpt>
<trkpt lat="40.0742937" lon="-105.2319145">
  <ele>1685.97</ele>
  <time>2026-08-27T18:26:20Z</time>
  <course>85.23</course>
  <speed>5.19</speed>
  <fix>3d</fix>
</trkpt>
<trkpt lat="40.0742943" lon="-105.2318892">
  <ele>1686.01</ele>
  <time>2026-08-27T18:26:20Z</time>
  <course>87.29</course>
  <speed>5.73</speed>
  <fix>3d</fix>
</trkpt>
<trkpt lat="40.0742943" lon="-105.231902">
  <ele>1685.97</ele>
  <time>2026-08-27T18:26:20Z</time>
  <course>87.59</course>
  <speed>5.47</speed>
  <fix>3d</fix>
</trkpt>
<trkpt lat="40.0742943" lon="-105.2318755">
  <ele>1686.02</ele>
  <time>2026-08-27T18:26:20Z</time>
  <course>89.34</course>
  <speed>5.973022685374634</speed>
  <fix>3d</fix>
</trkpt>
<trkpt lat="40.0742945" lon="-105.2318889">
  <ele>1685.98</ele>
  <time>2026-08-27T18:26:20Z</time>
  <course>89.7</course>
  <speed>5.73</speed>
  <fix>3d</fix>
</trkpt>
<trkpt lat="40.0742938" lon="-105.2318612">
  <ele>1686.03</ele>
  <time>2026-08-27T18:26:20Z</time>
  <course>91.24</course>
  <speed>6.1922935976906</speed>
  <fix>3d</fix>
</trkpt>
<trkpt lat="40.0742944" lon="-105.2318751">
  <ele>1685.99</ele>
  <time>2026-08-27T18:26:20Z</time>
  <course>91.62</course>
  <speed>5.98</speed>
  <fix>3d</fix>
</trkpt>
<trkpt lat="40.074293" lon="-105.2318465">
  <ele>1686.04</ele>
  <time>2026-08-27T18:26:20Z</time>
  <course>93.01</course>
  <speed>6.395451508689593</speed>
  <fix>3d</fix>
</trkpt>
<trkpt lat="40.074294" lon="-105.2318608">
  <ele>1686.0</ele>
  <time>2026-08-27T18:26:20Z</time>
  <course>93.35</course>
  <speed>6.2</speed>
  <fix>3d</fix>
</trkpt>
<trkpt lat="40.0742918" lon="-105.2318314">
  <ele>1686.04</ele>
  <time>2026-08-27T18:26:21Z</time>
  <course>94.58</course>
  <speed>6.584010935592377</speed>
  <fix>3d</fix>
</trkpt>
<trkpt lat="40.0742932" lon="-105.231846">
  <ele>1686.01</ele>
  <time>2026-08-27T18:26:21Z</time>
  <course>94.94</course>
  <speed>6.41</speed>
  <fix>3d</fix>
</trkpt>
<trkpt lat="40.0742904" lon="-105.2318159">
  <ele>1686.05</ele>
  <time>2026-08-27T18:26:21Z</time>
  <course>96.02</course>
  <speed>6.764236837958883</speed>
  <fix>3d</fix>
</trkpt>
<trkpt lat="40.074292" lon="-105.2318308">
  <ele>1686.02</ele>
  <time>2026-08-27T18:26:21Z</time>
  <course>96.4</course>
  <speed>6.6</speed>
  <fix>3d</fix>
</trkpt>
<trkpt lat="40.0742886" lon="-105.2318">
  <ele>1686.05</ele>
  <time>2026-08-27T18:26:21Z</time>
  <course>97.33</course>
  <speed>6.936180505148348</speed>
  <fix>3d</fix>
</trkpt>
<trkpt lat="40.0742906" lon="-105.2318152">
  <ele>1686.03</ele>
  <time>2026-08-27T18:26:21Z</time>
  <course>97.73</course>
  <speed>6.78</speed>
  <fix>3d</fix>
</trkpt>
<trkpt lat="40.0742866" lon="-105.2317838">
  <ele>1686.05</ele>
  <time>2026-08-27T18:26:21Z</time>
  <course>98.48</course>
  <speed>7.100887268503845</speed>
  <fix>3d</fix>
</trkpt>
<trkpt lat="40.0742888" lon="-105.2317992">
  <ele>1686.03</ele>
  <time>2026-08-27T18:26:21Z</time>
  <course>98.93</course>
  <speed>6.96</speed>
  <fix>3d</fix>
</trkpt>
<trkpt lat="40.0742843" lon="-105.2317673">
  <ele>1686.06</ele>
  <time>2026-08-27T18:26:21Z</time>
  <course>99.51</course>
  <speed>7.266147534973398</speed>
  <fix>3d</fix>
</trkpt>
<trkpt lat="40.0742867" lon="-105.2317829">
  <ele>1686.04</ele>
  <time>2026-08-27T18:26:21Z</time>
  <course>100.0</course>
  <speed>7.13</speed>
  <fix>3d</fix>
</trkpt>
<trkpt lat="40.0742817" lon="-105.2317503">
  <ele>1686.06</ele>
  <time>2026-08-27T18:26:21Z</time>
  <course>100.4</course>
  <speed>7.4292529907117855</speed>
  <fix>3d</fix>
</trkpt>
<trkpt lat="40.0742843" lon="-105.2317662">
  <ele>1686.04</ele>
  <time>2026-08-27T18:26:21Z</time>
  <course>100.95</course>
  <speed>7.29</speed>
  <fix>3d</fix>
</trkpt>
<trkpt lat="40.0742789" lon="-105.2317331">
  <ele>1686.06</ele>
  <time>2026-08-27T18:26:21Z</time>
  <course>101.12</course>
  <speed>7.591482068739938</speed>
  <fix>3d</fix>
</trkpt>
<trkpt lat="40.0742817" lon="-105.2317492">
  <ele>1686.04</ele>
  <time>2026-08-27T18:26:21Z</time>
  <course>101.77</course>
  <speed>7.46</speed>
  <fix>3d</fix>
</trkpt>
<trkpt lat="40.0742759" lon="-105.2317155">
  <ele>1686.06</ele>
  <time>2026-08-27T18:26:21Z</time>
  <course>101.7</course>
  <speed>7.764438163833878</speed>
  <fix>3d</fix>
</trkpt>
<trkpt lat="40.0742788" lon="-105.2317319">
  <ele>1686.04</ele>
  <time>2026-08-27T18:26:21Z</time>
  <course>102.48</course>
  <speed>7.62</speed>
  <fix>3d</fix>
</trkpt>
<trkpt lat="40.0742726" lon="-105.2316975">
  <ele>1686.06</ele>
  <time>2026-08-27T18:26:21Z</time>
  <course>102.15</course>
  <speed>7.943255000313159</speed>
  <fix>3d</fix>
</trkpt>
<trkpt lat="40.0742758" lon="-105.2317142">
  <ele>1686.04</ele>
  <time>2026-08-27T18:26:21Z</time>
  <course>103.05</course>
  <speed>7.79</speed>
  <fix>3d</fix>
</trkpt>
<trkpt lat="40.0742692" lon="-105.231679">
  <ele>1686.06</ele>
  <time>2026-08-27T18:26:21Z</time>
  <course>102.44</course>
  <speed>8.129803195649941</speed>
  <fix>3d</fix>
</trkpt>
<trkpt lat="40.0742726" lon="-105.2316963">
  <ele>1686.03</ele>
  <time>2026-08-27T18:26:21Z</time>
  <course>103.51</course>
  <speed>7.97</speed>
  <fix>3d</fix>
</trkpt>
<trkpt lat="40.0742656" lon="-105.2316601">
  <ele>1686.05</ele>
  <time>2026-08-27T18:26:21Z</time>
  <course>102.61</course>
  <speed>8.333546663936069</speed>
  <fix>3d</fix>
</trkpt>
<trkpt lat="40.0742691" lon="-105.2316778">
  <ele>1686.02</ele>
  <time>2026-08-27T18:26:21Z</time>
  <course>103.86</course>
  <speed>8.15</speed>
  <fix>3d</fix>
</trkpt>
<trkpt lat="40.0742619" lon="-105.2316408">
  <ele>1686.05</ele>
  <time>2026-08-27T18:26:21Z</time>
  <course>102.69</course>
  <speed>8.534928236370824</speed>
  <fix>3d</fix>
</trkpt>
<trkpt lat="40.0742655" lon="-105.231659">
  <ele>1686.02</ele>
  <time>2026-08-27T18:26:21Z</time>
  <course>104.1</course>
  <speed>8.35</speed>
  <fix>3d</fix>
</trkpt>
<trkpt lat="40.0742581" lon="-105.2316211">
  <ele>1686.04</ele>
  <time>2026-08-27T18:26:21Z</time>
  <course>102.65</course>
  <speed>8.743557628334132</speed>
  <fix>3d</fix>
</trkpt>
<trkpt lat="40.0742618" lon="-105.2316397">
  <ele>1686.01</ele>
  <time>2026-08-27T18:26:21Z</time>
  <course>104.24</course>
  <speed>8.54</speed>
  <fix>3d</fix>
</trkpt>
<trkpt lat="40.0742541" lon="-105.231601">
  <ele>1686.04</ele>
  <time>2026-08-27T18:26:21Z</time>
  <course>102.19</course>
  <speed>8.940022371336662</speed>
  <fix>3d</fix>
</trkpt>
<trkpt lat="40.0742579" lon="-105.2316201">
  <ele>1686.0</ele>
  <time>2026-08-27T18:26:21Z</time>
  <course>104.31</course>
  <speed>8.75</speed>
  <fix>3d</fix>
</trkpt>
<trkpt lat="40.0742501" lon="-105.2315805">
  <ele>1686.06</ele>
  <time>2026-08-27T18:26:21Z</time>
  <course>102.42</course>
  <speed>9.046618152657931</speed>
  <fix>3d</fix>
</trkpt>
<trkpt lat="40.074254" lon="-105.2315999">
  <ele>1686.0</ele>
  <time>2026-08-27T18:26:21Z</time>
  <course>104.3</course>
  <speed>8.94</speed>
  <fix>3d</fix>
</trkpt>
<trkpt lat="40.0742462" lon="-105.2315599">
  <ele>1686.11</ele>
  <time>2026-08-27T18:26:21Z</time>
  <course>103.2</course>
  <speed>8.9883702638465</speed>
  <fix>3d</fix>
</trkpt>
<trkpt lat="40.0742501" lon="-105.2315795">
  <ele>1686.01</ele>
  <time>2026-08-27T18:26:21Z</time>
  <course>104.17</course>
  <speed>9.05</speed>
  <fix>3d</fix>
</trkpt>
<trkpt lat="40.0742424" lon="-105.2315396">
  <ele>1686.17</ele>
  <time>2026-08-27T18:26:21Z</time>
  <course>104.16</course>
  <speed>8.806508956448067</speed>
  <fix>3d</fix>
</trkpt>
<trkpt lat="40.0742461" lon="-105.2315589">
  <ele>1686.05</ele>
  <time>2026-08-27T18:26:21Z</time>
  <course>103.98</course>
  <speed>9.01</speed>
  <fix>3d</fix>
</trkpt>
<trkpt lat="40.0742387" lon="-105.2315199">
  <ele>1686.24</ele>
  <time>2026-08-27T18:26:21Z</time>
  <course>105.05</course>
  <speed>8.549415184677839</speed>
  <fix>3d</fix>
</trkpt>
<trkpt lat="40.0742422" lon="-105.2315385">
  <ele>1686.11</ele>
  <time>2026-08-27T18:26:21Z</time>
  <course>103.85</course>
  <speed>8.84</speed>
  <fix>3d</fix>
</trkpt>
<trkpt lat="40.074235" lon="-105.2315007">
  <ele>1686.28</ele>
  <time>2026-08-27T18:26:21Z</time>
  <course>105.75</course>
  <speed>8.253496228871738</speed>
  <fix>3d</fix>
</trkpt>
<trkpt lat="40.0742385" lon="-105.2315187">
  <ele>1686.16</ele>
  <time>2026-08-27T18:26:21Z</time>
  <course>103.85</course>
  <speed>8.59</speed>
  <fix>3d</fix>
</trkpt>
<trkpt lat="40.0742315" lon="-105.231482">
  <ele>1686.31</ele>
  <time>2026-08-27T18:26:21Z</time>
  <course>106.27</course>
  <speed>7.916362801185908</speed>
  <fix>3d</fix>
</trkpt>
<trkpt lat="40.0742349" lon="-105.2314994">
  <ele>1686.22</ele>
  <time>2026-08-27T18:26:21Z</time>
  <course>103.93</course>
  <speed>8.29</speed>
  <fix>3d</fix>
</trkpt>
<trkpt lat="40.0742281" lon="-105.2314643">
  <ele>1686.31</ele>
  <time>2026-08-27T18:26:21Z</time>
  <course>106.59</course>
  <speed>7.545283294880319</speed>
  <fix>3d</fix>
</trkpt>
<trkpt lat="40.0742313" lon="-105.2314809">
  <ele>1686.24</ele>
  <time>2026-08-27T18:26:21Z</time>
  <course>104.01</course>
  <speed>7.96</speed>
  <fix>3d</fix>
</trkpt>
<trkpt lat="40.0742249" lon="-105.2314474">
  <ele>1686.31</ele>
  <time>2026-08-27T18:26:21Z</time>
  <course>106.68</course>
  <speed>7.149965034879541</speed>
  <fix>3d</fix>
</trkpt>
<trkpt lat="40.0742279" lon="-105.2314631">
  <ele>1686.24</ele>
  <time>2026-08-27T18:26:21Z</time>
  <course>104.04</course>
  <speed>7.59</speed>
  <fix>3d</fix>
</trkpt>
<trkpt lat="40.0742219" lon="-105.2314315">
  <ele>1686.28</ele>
  <time>2026-08-27T18:26:21Z</time>
  <course>106.57</course>
  <speed>6.720788644199429</speed>
  <fix>3d</fix>
</trkpt>
<trkpt lat="40.0742247" lon="-105.2314462">
  <ele>1686.23</ele>
  <time>2026-08-27T18:26:21Z</time>
  <course>103.96</course>
  <speed>7.18</speed>
  <fix>3d</fix>
</trkpt>
<trkpt lat="40.0742192" lon="-105.2314166">
  <ele>1686.25</ele>
  <time>2026-08-27T18:26:21Z</time>
  <course>106.21</course>
  <speed>6.289427636915779</speed>
  <fix>3d</fix>
</trkpt>
<trkpt lat="40.0742217" lon="-105.2314303">
  <ele>1686.21</ele>
  <time>2026-08-27T18:26:21Z</time>
  <course>103.75</course>
  <speed>6.76</speed>
  <fix>3d</fix>
</trkpt>
<trkpt lat="40.0742167" lon="-105.2314026">
  <ele>1686.21</ele>
  <time>2026-08-27T18:26:21Z</time>
  <course>105.64</course>
  <speed>5.856116460590584</speed>
  <fix>3d</fix>
</trkpt>
<trkpt lat="40.074219" lon="-105.2314155">
  <ele>1686.18</ele>
  <time>2026-08-27T18:26:21Z</time>
  <course>103.41</course>
  <speed>6.32</speed>
  <fix>3d</fix>
</trkpt>
<trkpt lat="40.0742145" lon="-105.2313896">
  <ele>1686.18</ele>
  <time>2026-08-27T18:26:21Z</time>
  <course>104.85</course>
  <speed>5.421217575416062</speed>
  <fix>3d</fix>
</trkpt>
<trkpt lat="40.0742165" lon="-105.2314015">
  <ele>1686.15</ele>
  <time>2026-08-27T18:26:21Z</time>
  <course>102.91</course>
  <speed>5.87</speed>
  <fix>3d</fix>
</trkpt>
<trkpt lat="40.0742125" lon="-105.2313775">
  <ele>1686.14</ele>
  <time>2026-08-27T18:26:21Z</time>
  <course>103.84</course>
  <speed>5.004897601350102</speed>
  <fix>3d</fix>
</trkpt>
<trkpt lat="40.0742142" lon="-105.2313886">
  <ele>1686.11</ele>
  <time>2026-08-27T18:26:21Z</time>
  <course>102.22</course>
  <speed>5.44</speed>
  <fix>3d</fix>
</trkpt>
<trkpt lat="40.0742109" lon="-105.2313664">
  <ele>1686.12</ele>
  <time>2026-08-27T18:26:21Z</time>
  <course>102.65</course>
  <speed>4.6197943677181135</speed>
  <fix>3d</fix>
</trkpt>
<trkpt lat="40.0742123" lon="-105.2313766">
  <ele>1686.07</ele>
  <time>2026-08-27T18:26:21Z</time>
  <course>101.32</course>
  <speed>5.01</speed>
  <fix>3d</fix>
</trkpt>
<trkpt lat="40.0742096" lon="-105.2313561">
  <ele>1686.09</ele>
  <time>2026-08-27T18:26:21Z</time>
  <course>101.19</course>
  <speed>4.248482081873478</speed>
  <fix>3d</fix>
</trkpt>
<trkpt lat="40.0742107" lon="-105.2313654">
  <ele>1686.04</ele>
  <time>2026-08-27T18:26:21Z</time>
  <course>100.2</course>
  <speed>4.61</speed>
  <fix>3d</fix>
</trkpt>
<trkpt lat="40.0742085" lon="-105.2313465">
  <ele>1686.07</ele>
  <time>2026-08-27T18:26:21Z</time>
  <course>99.53</course>
  <speed>3.909577982340293</speed>
  <fix>3d</fix>
</trkpt>
<trkpt lat="40.0742094" lon="-105.2313552">
  <ele>1686.01</ele>
  <time>2026-08-27T18:26:21Z</time>
  <course>98.83</course>
  <speed>4.24</speed>
  <fix>3d</fix>
</trkpt>
<trkpt lat="40.0742078" lon="-105.2313377">
  <ele>1686.05</ele>
  <time>2026-08-27T18:26:21Z</time>
  <course>97.65</course>
  <speed>3.6051352263126</speed>
  <fix>3d</fix>
</trkpt>
<trkpt lat="40.0742083" lon="-105.2313457">
  <ele>1685.99</ele>
  <time>2026-08-27T18:26:21Z</time>
  <course>97.24</course>
  <speed>3.9</speed>
  <fix>3d</fix>
</trkpt>
<trkpt lat="40.0742073" lon="-105.2313295">
  <ele>1686.04</ele>
  <time>2026-08-27T18:26:21Z</time>
  <course>95.62</course>
  <speed>3.326018640957985</speed>
  <fix>3d</fix>
</trkpt>
<trkpt lat="40.0742075" lon="-105.231337">
  <ele>1685.97</ele>
  <time>2026-08-27T18:26:21Z</time>
  <course>95.42</course>
  <speed>3.58</speed>
  <fix>3d</fix>
</trkpt>
<trkpt lat="40.074207" lon="-105.231322">
  <ele>1686.03</ele>
  <time>2026-08-27T18:26:21Z</time>
  <course>93.5</course>
  <speed>3.0707979419037</speed>
  <fix>3d</fix>
</trkpt>
<trkpt lat="40.0742071" lon="-105.2313289">
  <ele>1685.95</ele>
  <time>2026-08-27T18:26:21Z</time>
  <course>93.41</course>
  <speed>3.3</speed>
  <fix>3d</fix>
</trkpt>
<trkpt lat="40.0742069" lon="-105.2313151">
  <ele>1686.02</ele>
  <time>2026-08-27T18:26:21Z</time>
  <course>91.32</course>
  <speed>2.850157890363269</speed>
  <fix>3d</fix>
</trkpt>
<trkpt lat="40.0742069" lon="-105.2313214">
  <ele>1685.94</ele>
  <time>2026-08-27T18:26:21Z</time>
  <course>91.29</course>
  <speed>3.05</speed>
  <fix>3d</fix>
</trkpt>
<trkpt lat="40.0742071" lon="-105.2313086">
  <ele>1686.02</ele>
  <time>2026-08-27T18:26:21Z</time>
  <course>89.15</course>
  <speed>2.6527155897306445</speed>
  <fix>3d</fix>
</trkpt>
<trkpt lat="40.0742069" lon="-105.2313145">
  <ele>1685.93</ele>
  <time>2026-08-27T18:26:21Z</time>
  <course>89.11</course>
  <speed>2.82</speed>
  <fix>3d</fix>
</trkpt>
<trkpt lat="40.0742073" lon="-105.2313026">
  <ele>1686.01</ele>
  <time>2026-08-27T18:26:21Z</time>
  <course>87.1</course>
  <speed>2.4673264883269908</speed>
  <fix>3d</fix>
</trkpt>
<trkpt lat="40.074207" lon="-105.2313082">
  <ele>1685.93</ele>
  <time>2026-08-27T18:26:21Z</time>
  <course>86.95</course>
  <speed>2.62</speed>
  <fix>3d</fix>
</trkpt>
<trkpt lat="40.0742077" lon="-105.2312971">
  <ele>1686.02</ele>
  <time>2026-08-27T18:26:21Z</time>
  <course>85.21</course>
  <speed>2.3036058690670154</speed>
  <fix>3d</fix>
</trkpt>
<trkpt lat="40.0742073" lon="-105.2313023">
  <ele>1685.93</ele>
  <time>2026-08-27T18:26:21Z</time>
  <course>84.89</course>
  <speed>2.44</speed>
  <fix>3d</fix>
</trkpt>
<trkpt lat="40.0742082" lon="-105.2312919">
  <ele>1686.02</ele>
  <time>2026-08-27T18:26:21Z</time>
  <course>83.54</course>
  <speed>2.14965113448671</speed>
  <fix>3d</fix>
</trkpt>
<trkpt lat="40.0742077" lon="-105.2312968">
  <ele>1685.93</ele>
  <time>2026-08-27T18:26:21Z</time>
  <course>83.0</course>
  <speed>2.27</speed>
  <fix>3d</fix>
</trkpt>
<trkpt lat="40.0742088" lon="-105.2312871">
  <ele>1686.02</ele>
  <time>2026-08-27T18:26:21Z</time>
  <course>82.14</course>
  <speed>1.9942417105255823</speed>
  <fix>3d</fix>
</trkpt>
<trkpt lat="40.0742082" lon="-105.2312916">
  <ele>1685.94</ele>
  <time>2026-08-27T18:26:21Z</time>
  <course>81.33</course>
  <speed>2.12</speed>
  <fix>3d</fix>
</trkpt>
<trkpt lat="40.0742094" lon="-105.2312827">
  <ele>1686.03</ele>
  <time>2026-08-27T18:26:21Z</time>
  <course>80.99</course>
  <speed>1.8380696395947569</speed>
  <fix>3d</fix>
</trkpt>
<trkpt lat="40.0742089" lon="-105.2312869">
  <ele>1685.94</ele>
  <time>2026-08-27T18:26:21Z</time>
  <course>79.93</course>
  <speed>1.97</speed>
  <fix>3d</fix>
</trkpt>
<trkpt lat="40.07421" lon="-105.2312787">
  <ele>1686.04</ele>
  <time>2026-08-27T18:26:21Z</time>
  <course>80.16</course>
  <speed>1.688697723099075</speed>
  <fix>3d</fix>
</trkpt>
<trkpt lat="40.0742094" lon="-105.2312825">
  <ele>1685.95</ele>
  <time>2026-08-27T18:26:21Z</time>
  <course>78.82</course>
  <speed>1.82</speed>
  <fix>3d</fix>
</trkpt>
<trkpt lat="40.0742105" lon="-105.231275">
  <ele>1686.05</ele>
  <time>2026-08-27T18:26:21Z</time>
  <course>79.64</course>
  <speed>1.527776161615307</speed>
  <fix>3d</fix>
</trkpt>
<trkpt lat="40.0742101" lon="-105.2312785">
  <ele>1685.96</ele>
  <time>2026-08-27T18:26:21Z</time>
  <course>78.0</course>
  <speed>1.67</speed>
  <fix>3d</fix>
</trkpt>
<trkpt lat="40.0742111" lon="-105.2312717">
  <ele>1686.06</ele>
  <time>2026-08-27T18:26:21Z</time>
  <course>79.43</course>
  <speed>1.3551752654177245</speed>
  <fix>3d</fix>
</trkpt>
<trkpt lat="40.0742106" lon="-105.2312748">
  <ele>1685.97</ele>
  <time>2026-08-27T18:26:21Z</time>
  <course>77.47</course>
  <speed>1.51</speed>
  <fix>3d</fix>
</trkpt>
<trkpt lat="40.0742116" lon="-105.2312687">
  <ele>1686.06</ele>
  <time>2026-08-27T18:26:21Z</time>
  <course>79.52</course>
  <speed>1.1806777714516352</speed>
  <fix>3d</fix>
</trkpt>
<trkpt lat="40.0742113" lon="-105.2312715">
  <ele>1685.97</ele>
  <time>2026-08-27T18:26:21Z</time>
  <course>77.24</course>
  <speed>1.35</speed>
  <fix>3d</fix>
</trkpt>
<trkpt lat="40.074212" lon="-105.2312662">
  <ele>1686.06</ele>
  <time>2026-08-27T18:26:21Z</time>
  <course>79.92</course>
  <speed>0.996393496566492</speed>
  <fix>3d</fix>
</trkpt>
<trkpt lat="40.0742118" lon="-105.2312686">
  <ele>1685.98</ele>
  <time>2026-08-27T18:26:21Z</time>
  <course>77.31</course>
  <speed>1.18</speed>
  <fix>3d</fix>
</trkpt>
<trkpt lat="40.0742123" lon="-105.2312641">
  <ele>1686.07</ele>
  <time>2026-08-27T18:26:21Z</time>
  <course>80.39</course>
  <speed>0.8089499366462674</speed>
  <fix>3d</fix>
</trkpt>
<trkpt lat="40.0742122" lon="-105.2312661">
  <ele>1685.98</ele>
  <time>2026-08-27T18:26:21Z</time>
  <course>77.7</course>
  <speed>1.0</speed>
  <fix>3d</fix>
</trkpt>
<trkpt lat="40.0742126" lon="-105.2312625">
  <ele>1686.07</ele>
  <time>2026-08-27T18:26:21Z</time>
  <course>80.27</course>
  <speed>0.6040695324215583</speed>
  <fix>3d</fix>
</trkpt>
<trkpt lat="40.0742125" lon="-105.231264">
  <ele>1685.98</ele>
  <time>2026-08-27T18:26:21Z</time>
  <course>78.64</course>
  <speed>0.81</speed>
  <fix>3d</fix>
</trkpt>
<trkpt lat="40.0742127" lon="-105.2312613">
  <ele>1686.07</ele>
  <time>2026-08-27T18:26:21Z</time>
  <course>80.25</course>
  <speed>0.3905124837953327</speed>
  <fix>3d</fix>
</trkpt>
<trkpt lat="40.0742128" lon="-105.2312623">
  <ele>1685.99</ele>
  <time>2026-08-27T18:26:21Z</time>
  <course>80.24</course>
  <speed>0.61</speed>
  <fix>3d</fix>
</trkpt>
<trkpt lat="40.0742127" lon="-105.2312606">
  <ele>1686.07</ele>
  <time>2026-08-27T18:26:21Z</time>
  <course>80.24</course>
  <speed>0.1711724276862369</speed>
  <fix>3d</fix>
</trkpt>
<trkpt lat="40.0742129" lon="-105.2312612">
  <ele>1685.98</ele>
  <time>2026-08-27T18:26:21Z</time>
  <course>82.96</course>
  <speed>0.39</speed>
  <fix>3d</fix>
</trkpt>
<trkpt lat="40.0742127" lon="-105.2312605">
  <ele>1686.07</ele>
  <time>2026-08-27T18:26:21Z</time>
  <course>80.65</course>
  <speed>0.10295630140987001</speed>
  <fix>3d</fix>
</trkpt>
<trkpt lat="40.074213" lon="-105.2312606">
  <ele>1685.98</ele>
  <time>2026-08-27T18:26:21Z</time>
  <course>91.77</course>
  <speed>0.17</speed>
  <fix>3d</fix>
</trkpt>
<trkpt lat="40.0742126" lon="-105.2312608">
  <ele>1686.06</ele>
  <time>2026-08-27T18:26:21Z</time>
  <course>80.34</course>
  <speed>0.3</speed>
  <fix>3d</fix>
</trkpt>
<trkpt lat="40.0742129" lon="-105.2312604">
  <ele>1685.97</ele>
  <time>2026-08-27T18:26:21Z</time>
  <course>213.96</course>
  <speed>0.08</speed>
  <fix>3d</fix>
</trkpt>
<trkpt lat="40.0742122" lon="-105.2312615">
  <ele>1686.05</ele>
  <time>2026-08-27T18:26:21Z</time>
  <course>80.15</course>
  <speed>0.44045431091090476</speed>
  <fix>3d</fix>
</trkpt>
<trkpt lat="40.0742128" lon="-105.2312608">
  <ele>1685.97</ele>
  <time>2026-08-27T18:26:21Z</time>
  <course>234.73</course>
  <speed>0.28</speed>
  <fix>3d</fix>
</trkpt>
<trkpt lat="40.0742117" lon="-105.2312622">
  <ele>1686.05</ele>
  <time>2026-08-27T18:26:21Z</time>
  <course>80.04</course>
  <speed>0.5374011537017761</speed>
  <fix>3d</fix>
</trkpt>
<trkpt lat="40.0742124" lon="-105.2312614">
  <ele>1685.96</ele>
  <time>2026-08-27T18:26:21Z</time>
  <course>232.33</course>
  <speed>0.43</speed>
  <fix>3d</fix>
</trkpt>
<trkpt lat="40.0742109" lon="-105.2312631">
  <ele>1686.05</ele>
  <time>2026-08-27T18:26:21Z</time>
  <course>79.96</course>
  <speed>0.5981638571495272</speed>
  <fix>3d</fix>
</trkpt>
<trkpt lat="40.0742118" lon="-105.2312622">
  <ele>1685.96</ele>
  <time>2026-08-27T18:26:21Z</time>
  <course>226.73</course>
  <speed>0.53</speed>
  <fix>3d</fix>
</trkpt>
<trkpt lat="40.0742101" lon="-105.2312639">
  <ele>1686.05</ele>
  <time>2026-08-27T18:26:21Z</time>
  <course>79.88</course>
  <speed>0.65</speed>
  <fix>3d</fix>
</trkpt>
<trkpt lat="40.0742111" lon="-105.2312631">
  <ele>1685.96</ele>
  <time>2026-08-27T18:26:21Z</time>
  <course>219.77</course>
  <speed>0.59</speed>
  <fix>3d</fix>
</trkpt>
<trkpt lat="40.074209" lon="-105.2312646">
  <ele>1686.05</ele>
  <time>2026-08-27T18:26:21Z</time>
  <course>79.81</course>
  <speed>0.7130918594402827</speed>
  <fix>3d</fix>
</trkpt>
<trkpt lat="40.0742101" lon="-105.231264">
  <ele>1685.96</ele>
  <time>2026-08-27T18:26:21Z</time>
  <course>211.83</course>
  <speed>0.64</speed>
  <fix>3d</fix>
</trkpt>
<trkpt lat="40.0742078" lon="-105.2312652">
  <ele>1686.05</ele>
  <time>2026-08-27T18:26:21Z</time>
  <course>79.73</course>
  <speed>0.7712976079309465</speed>
  <fix>3d</fix>
</trkpt>
<trkpt lat="40.0742091" lon="-105.2312647">
  <ele>1685.96</ele>
  <time>2026-08-27T18:26:21Z</time>
  <course>203.24</course>
  <speed>0.7</speed>
  <fix>3d</fix>
</trkpt>
<trkpt lat="40.0742064" lon="-105.2312655">
  <ele>1686.06</ele>
  <time>2026-08-27T18:26:21Z</time>
  <course>79.64</course>
  <speed>0.8438009243891595</speed>
  <fix>3d</fix>
</trkpt>
<trkpt lat="40.0742079" lon="-105.2312652">
  <ele>1685.97</ele>
  <time>2026-08-27T18:26:21Z</time>
  <course>194.41</course>
  <speed>0.75</speed>
  <fix>3d</fix>
</trkpt>
<trkpt lat="40.0742049" lon="-105.2312656">
  <ele>1686.06</ele>
  <time>2026-08-27T18:26:21Z</time>
  <course>79.58</course>
  <speed>0.9204890004774636</speed>
  <fix>3d</fix>
</trkpt>
<trkpt lat="40.0742064" lon="-105.2312656">
  <ele>1685.97</ele>
  <time>2026-08-27T18:26:21Z</time>
  <course>185.81</course>
  <speed>0.82</speed>
  <fix>3d</fix>
</trkpt>
<trkpt lat="40.0742032" lon="-105.2312654">
  <ele>1686.05</ele>
  <time>2026-08-27T18:26:21Z</time>
  <course>79.52</course>
  <speed>1.0111874208078342</speed>
  <fix>3d</fix>
</trkpt>
<trkpt lat="40.0742049" lon="-105.2312657">
  <ele>1685.97</ele>
  <time>2026-08-27T18:26:21Z</time>
  <course>177.87</course>
  <speed>0.9</speed>
  <fix>3d</fix>
</trkpt>
<trkpt lat="40.0742014" lon="-105.231265">
  <ele>1686.05</ele>
  <time>2026-08-27T18:26:21Z</time>
  <course>85.58</course>
  <speed>1.0648004507887852</speed>
  <fix>3d</fix>
</trkpt>
<trkpt lat="40.0742032" lon="-105.2312654">
  <ele>1685.97</ele>
  <time>2026-08-27T18:26:21Z</time>
  <course>170.9</course>
  <speed>0.99</speed>
  <fix>3d</fix>
</trkpt>
<trkpt lat="40.0741994" lon="-105.2312641">
  <ele>1686.05</ele>
  <time>2026-08-27T18:26:21Z</time>
  <course>99.23</course>
  <speed>1.2313001258832064</speed>
  <fix>3d</fix>
</trkpt>
<trkpt lat="40.0742013" lon="-105.2312649">
  <ele>1685.97</ele>
  <time>2026-08-27T18:26:21Z</time>
  <course>164.47</course>
  <speed>1.08</speed>
  <fix>3d</fix>
</trkpt>
<trkpt lat="40.0741972" lon="-105.2312629">
  <ele>1686.06</ele>
  <time>2026-08-27T18:26:21Z</time>
  <course>111.32</course>
  <speed>1.4446106741956464</speed>
  <fix>3d</fix>
</trkpt>
<trkpt lat="40.0741994" lon="-105.2312642">
  <ele>1685.97</ele>
  <time>2026-08-27T18:26:21Z</time>
  <course>158.36</course>
  <speed>1.22</speed>
  <fix>3d</fix>
</trkpt>
<trkpt lat="40.0741948" lon="-105.2312611">
  <ele>1686.06</ele>
  <time>2026-08-27T18:26:21Z</time>
  <course>123.41</course>
  <speed>1.7104677722775137</speed>
  <fix>3d</fix>
</trkpt>
<trkpt lat="40.0741972" lon="-105.2312628">
  <ele>1685.96</ele>
  <time>2026-08-27T18:26:21Z</time>
  <course>153.32</course>
  <speed>1.44</speed>
  <fix>3d</fix>
</trkpt>
<trkpt lat="40.0741919" lon="-105.2312589">
  <ele>1686.05</ele>
  <time>2026-08-27T18:26:21Z</time>
  <course>135.49</course>
  <speed>2.009975124224178</speed>
  <fix>3d</fix>
</trkpt>
<trkpt lat="40.0741948" lon="-105.2312611">
  <ele>1685.96</ele>
  <time>2026-08-27T18:26:21Z</time>
  <course>149.72</course>
  <speed>1.7</speed>
  <fix>3d</fix>
</trkpt>
<trkpt lat="40.0741886" lon="-105.2312562">
  <ele>1686.04</ele>
  <time>2026-08-27T18:26:21Z</time>
  <course>147.47</course>
  <speed>2.3342022191746796</speed>
  <fix>3d</fix>
</trkpt>
<trkpt lat="40.0741919" lon="-105.2312588">
  <ele>1685.95</ele>
  <time>2026-08-27T18:26:21Z</time>
  <course>147.81</course>
  <speed>1.99</speed>
  <fix>3d</fix>
</trkpt>
<trkpt lat="40.0741848" lon="-105.2312532">
  <ele>1686.03</ele>
  <time>2026-08-27T18:26:21Z</time>
  <course>150.04</course>
  <speed>2.6741914665932205</speed>
  <fix>3d</fix>
</trkpt>
<trkpt lat="40.0741887" lon="-105.2312561">
  <ele>1685.94</ele>
  <time>2026-08-27T18:26:21Z</time>
  <course>147.99</course>
  <speed>2.32</speed>
  <fix>3d</fix>
</trkpt>
<trkpt lat="40.0741804" lon="-105.2312499">
  <ele>1686.02</ele>
  <time>2026-08-27T18:26:21Z</time>
  <course>149.88</course>
  <speed>3.012938764727886</speed>
  <fix>3d</fix>
</trkpt>
<trkpt lat="40.0741848" lon="-105.2312531">
  <ele>1685.93</ele>
  <time>2026-08-27T18:26:21Z</time>
  <course>148.98</course>
  <speed>2.66</speed>
  <fix>3d</fix>
</trkpt>
<trkpt lat="40.0741755" lon="-105.2312463">
  <ele>1686.02</ele>
  <time>2026-08-27T18:26:21Z</time>
  <course>150.06</course>
  <speed>3.3607439652553124</speed>
  <fix>3d</fix>
</trkpt>
<trkpt lat="40.0741805" lon="-105.2312497">
  <ele>1685.93</ele>
  <time>2026-08-27T18:26:21Z</time>
  <course>149.65</course>
  <speed>3.0</speed>
  <fix>3d</fix>
</trkpt>
<trkpt lat="40.07417" lon="-105.2312423">
  <ele>1686.01</ele>
  <time>2026-08-27T18:26:21Z</time>
  <course>150.55</course>
  <speed>3.7082745313690033</speed>
  <fix>3d</fix>
</trkpt>
<trkpt lat="40.0741755" lon="-105.2312459">
  <ele>1685.92</ele>
  <time>2026-08-27T18:26:21Z</time>
  <course>150.37</course>
  <speed>3.35</speed>
  <fix>3d</fix>
</trkpt>
<trkpt lat="40.0741639" lon="-105.231238">
  <ele>1686.0</ele>
  <time>2026-08-27T18:26:21Z</time>
  <course>151.26</course>
  <speed>4.056266756513925</speed>
  <fix>3d</fix>
</trkpt>
<trkpt lat="40.07417" lon="-105.2312419">
  <ele>1685.92</ele>
  <time>2026-08-27T18:26:21Z</time>
  <course>151.26</course>
  <speed>3.7</speed>
  <fix>3d</fix>
</trkpt>
<trkpt lat="40.0741571" lon="-105.2312335">
  <ele>1686.0</ele>
  <time>2026-08-27T18:26:21Z</time>
  <course>152.08</course>
  <speed>4.409909296119365</speed>
  <fix>3d</fix>
</trkpt>
<trkpt lat="40.0741639" lon="-105.2312376">
  <ele>1685.91</ele>
  <time>2026-08-27T18:26:21Z</time>
  <course>152.26</course>
  <speed>4.05</speed>
  <fix>3d</fix>
</trkpt>
<trkpt lat="40.0741497" lon="-105.2312288">
  <ele>1686.0</ele>
  <time>2026-08-27T18:26:21Z</time>
  <course>152.93</course>
  <speed>4.760504174979789</speed>
  <fix>3d</fix>
</trkpt>
<trkpt lat="40.0741571" lon="-105.2312331">
  <ele>1685.91</ele>
  <time>2026-08-27T18:26:21Z</time>
  <course>153.3</course>
  <speed>4.41</speed>
  <fix>3d</fix>
</trkpt>
<trkpt lat="40.0741418" lon="-105.2312239">
  <ele>1686.0</ele>
  <time>2026-08-27T18:26:21Z</time>
  <course>153.76</course>
  <speed>5.099068542390856</speed>
  <fix>3d</fix>
</trkpt>
<trkpt lat="40.0741497" lon="-105.2312283">
  <ele>1685.91</ele>
  <time>2026-08-27T18:26:21Z</time>
  <course>154.31</course>
  <speed>4.76</speed>
  <fix>3d</fix>
</trkpt>
<trkpt lat="40.0741332" lon="-105.2312189">
  <ele>1686.0</ele>
  <time>2026-08-27T18:26:21Z</time>
  <course>154.56</course>
  <speed>5.434786104346702</speed>
  <fix>3d</fix>
</trkpt>
<trkpt lat="40.0741417" lon="-105.2312234">
  <ele>1685.91</ele>
  <time>2026-08-27T18:26:21Z</time>
  <course>155.29</course>
  <speed>5.1</speed>
  <fix>3d</fix>
</trkpt>
<trkpt lat="40.074124" lon="-105.2312137">
  <ele>1686.0</ele>
  <time>2026-08-27T18:26:21Z</time>
  <course>155.26</course>
  <speed>5.7808822856031234</speed>
  <fix>3d</fix>
</trkpt>
<trkpt lat="40.074133" lon="-105.2312183">
  <ele>1685.91</ele>
  <time>2026-08-27T18:26:21Z</time>
  <course>156.22</course>
  <speed>5.44</speed>
  <fix>3d</fix>
</trkpt>
<trkpt lat="40.0741142" lon="-105.2312084">
  <ele>1686.0</ele>
  <time>2026-08-27T18:26:21Z</time>
  <course>155.83</course>
  <speed>6.140985262968801</speed>
  <fix>3d</fix>
</trkpt>
<trkpt lat="40.0741237" lon="-105.231213">
  <ele>1685.9</ele>
  <time>2026-08-27T18:26:21Z</time>
  <course>157.09</course>
  <speed>5.79</speed>
  <fix>3d</fix>
</trkpt>
<trkpt lat="40.0741037" lon="-105.2312029">
  <ele>1685.99</ele>
  <time>2026-08-27T18:26:21Z</time>
  <course>156.21</course>
  <speed>6.520506115325711</speed>
  <fix>3d</fix>
</trkpt>
<trkpt lat="40.0741138" lon="-105.2312077">
  <ele>1685.9</ele>
  <time>2026-08-27T18:26:21Z</time>
  <course>157.87</course>
  <speed>6.16</speed>
  <fix>3d</fix>
</trkpt>
<trkpt lat="40.0740925" lon="-105.2311972">
  <ele>1685.98</ele>
  <time>2026-08-27T18:26:21Z</time>
  <course>156.45</course>
  <speed>6.907770986360216</speed>
  <fix>3d</fix>
</trkpt>
<trkpt lat="40.0741032" lon="-105.2312021">
  <ele>1685.89</ele>
  <time>2026-08-27T18:26:21Z</time>
  <course>158.54</course>
  <speed>6.54</speed>
  <fix>3d</fix>
</trkpt>
<trkpt lat="40.0740807" lon="-105.2311914">
  <ele>1685.97</ele>
  <time>2026-08-27T18:26:21Z</time>
  <course>156.64</course>
  <speed>7.28599341202008</speed>
  <fix>3d</fix>
</trkpt>
<trkpt lat="40.0740919" lon="-105.2311965">
  <ele>1685.88</ele>
  <time>2026-08-27T18:26:21Z</time>
  <course>159.07</course>
  <speed>6.93</speed>
  <fix>3d</fix>
</trkpt>
<trkpt lat="40.0740682" lon="-105.2311853">
  <ele>1685.97</ele>
  <time>2026-08-27T18:26:21Z</time>
  <course>156.84</course>
  <speed>7.6362556269417805</speed>
  <fix>3d</fix>
</trkpt>
<trkpt lat="40.07408" lon="-105.2311905">
  <ele>1685.88</ele>
  <time>2026-08-27T18:26:21Z</time>
  <course>159.46</course>
  <speed>7.31</speed>
  <fix>3d</fix>
</trkpt>
<trkpt lat="40.074055" lon="-105.2311789">
  <ele>1685.98</ele>
  <time>2026-08-27T18:26:21Z</time>
  <course>157.08</course>
  <speed>7.948993646997084</speed>
  <fix>3d</fix>
</trkpt>
<trkpt lat="40.0740673" lon="-105.2311843">
  <ele>1685.88</ele>
  <time>2026-08-27T18:26:21Z</time>
  <course>159.73</course>
  <speed>7.67</speed>
  <fix>3d</fix>
</trkpt>
<trkpt lat="40.0740413" lon="-105.2311724">
  <ele>1685.99</ele>
  <time>2026-08-27T18:26:21Z</time>
  <course>157.34</course>
  <speed>8.239569163493925</speed>
  <fix>3d</fix>
</trkpt>
<trkpt lat="40.0740541" lon="-105.231178">
  <ele>1685.88</ele>
  <time>2026-08-27T18:26:21Z</time>
  <course>159.91</course>
  <speed>7.99</speed>
  <fix>3d</fix>
</trkpt>
<trkpt lat="40.0740271" lon="-105.2311656">
  <ele>1686.0</ele>
  <time>2026-08-27T18:26:21Z</time>
  <course>157.6</course>
  <speed>8.492496688253697</speed>
  <fix>3d</fix>
</trkpt>
<trkpt lat="40.0740404" lon="-105.2311715">
  <ele>1685.89</ele>
  <time>2026-08-27T18:26:21Z</time>
  <course>160.06</course>
  <speed>8.28</speed>
  <fix>3d</fix>
</trkpt>
<trkpt lat="40.0740125" lon="-105.2311587">
  <ele>1686.01</ele>
  <time>2026-08-27T18:26:21Z</time>
  <course>157.88</course>
  <speed>8.710464970367541</speed>
  <fix>3d</fix>
</trkpt>
<trkpt lat="40.0740261" lon="-105.2311647">
  <ele>1685.9</ele>
  <time>2026-08-27T18:26:21Z</time>
  <course>160.17</course>
  <speed>8.54</speed>
  <fix>3d</fix>
</trkpt>
<trkpt lat="40.0739976" lon="-105.2311517">
  <ele>1686.03</ele>
  <time>2026-08-27T18:26:21Z</time>
  <course>158.13</course>
  <speed>8.909595950434564</speed>
  <fix>3d</fix>
</trkpt>
<trkpt lat="40.0740115" lon="-105.2311579">
  <ele>1685.92</ele>
  <time>2026-08-27T18:26:21Z</time>
  <course>160.27</course>
  <speed>8.76</speed>
  <fix>3d</fix>
</trkpt>
<trkpt lat="40.0739823" lon="-105.2311446">
  <ele>1686.04</ele>
  <time>2026-08-27T18:26:21Z</time>
  <course>158.39</course>
  <speed>9.077114078824833</speed>
  <fix>3d</fix>
</trkpt>
<trkpt lat="40.0739964" lon="-105.2311509">
  <ele>1685.93</ele>
  <time>2026-08-27T18:26:21Z</time>
  <course>160.34</course>
  <speed>8.96</speed>
  <fix>3d</fix>
</trkpt>
<trkpt lat="40.0739667" lon="-105.2311373">
  <ele>1686.05</ele>
  <time>2026-08-27T18:26:21Z</time>
  <course>158.65</course>
  <speed>9.216344177601007</speed>
  <fix>3d</fix>
</trkpt>
<trkpt lat="40.0739812" lon="-105.2311438">
  <ele>1685.95</ele>
  <time>2026-08-27T18:26:21Z</time>
  <course>160.39</course>
  <speed>9.13</speed>
  <fix>3d</fix>
</trkpt>
<trkpt lat="40.0739509" lon="-105.23113">
  <ele>1686.06</ele>
  <time>2026-08-27T18:26:21Z</time>
  <course>158.85</course>
  <speed>9.323958386865527</speed>
  <fix>3d</fix>
</trkpt>
<trkpt lat="40.0739656" lon="-105.2311365">
  <ele>1685.97</ele>
  <time>2026-08-27T18:26:21Z</time>
  <course>160.4</course>
  <speed>9.26</speed>
  <fix>3d</fix>
</trkpt>
<trkpt lat="40.0739351" lon="-105.2311226">
  <ele>1686.08</ele>
  <time>2026-08-27T18:26:21Z</time>
  <course>159.09</course>
  <speed>9.399957446712191</speed>
  <fix>3d</fix>
</trkpt>
<trkpt lat="40.0739498" lon="-105.2311292">
  <ele>1685.98</ele>
  <time>2026-08-27T18:26:21Z</time>
  <course>160.39</course>
  <speed>9.37</speed>
  <fix>3d</fix>
</trkpt>
<trkpt lat="40.0739191" lon="-105.2311151">
  <ele>1686.09</ele>
  <time>2026-08-27T18:26:21Z</time>
  <course>159.34</course>
  <speed>9.447692840053598</speed>
  <fix>3d</fix>
</trkpt>
<trkpt lat="40.0739339" lon="-105.2311217">
  <ele>1686.0</ele>
  <time>2026-08-27T18:26:21Z</time>
  <course>160.36</course>
  <speed>9.45</speed>
  <fix>3d</fix>
</trkpt>
<trkpt lat="40.0739029" lon="-105.2311075">
  <ele>1686.11</ele>
  <time>2026-08-27T18:26:21Z</time>
  <course>159.58</course>
  <speed>9.460470389996471</speed>
  <fix>3d</fix>
</trkpt>
<trkpt lat="40.0739179" lon="-105.2311142">
  <ele>1686.01</ele>
  <time>2026-08-27T18:26:21Z</time>
  <course>160.3</course>
  <speed>9.49</speed>
  <fix>3d</fix>
</trkpt>
<trkpt lat="40.0738868" lon="-105.2310999">
  <ele>1686.12</ele>
  <time>2026-08-27T18:26:21Z</time>
  <course>159.76</course>
  <speed>9.476623871400616</speed>
  <fix>3d</fix>
</trkpt>
<trkpt lat="40.0739018" lon="-105.2311067">
  <ele>1686.03</ele>
  <time>2026-08-27T18:26:21Z</time>
  <course>160.24</course>
  <speed>9.51</speed>
  <fix>3d</fix>
</trkpt>
<trkpt lat="40.0738707" lon="-105.2310923">
  <ele>1686.13</ele>
  <time>2026-08-27T18:26:21Z</time>
  <course>159.79</course>
  <speed>9.489415155846013</speed>
  <fix>3d</fix>
</trkpt>
<trkpt lat="40.0738857" lon="-105.2310991">
  <ele>1686.04</ele>
  <time>2026-08-27T18:26:21Z</time>
  <course>160.17</course>
  <speed>9.52</speed>
  <fix>3d</fix>
</trkpt>
<trkpt lat="40.0738545" lon="-105.2310846">
  <ele>1686.12</ele>
  <time>2026-08-27T18:26:21Z</time>
  <course>159.68</course>
  <speed>9.518408480413099</speed>
  <fix>3d</fix>
</trkpt>
<trkpt lat="40.0738695" lon="-105.2310916">
  <ele>1686.04</ele>
  <time>2026-08-27T18:26:21Z</time>
  <course>160.1</course>
  <speed>9.53</speed>
  <fix>3d</fix>
</trkpt>
<trkpt lat="40.0738383" lon="-105.2310769">
  <ele>1686.11</ele>
  <time>2026-08-27T18:26:21Z</time>
  <course>159.46</course>
  <speed>9.560271962658803</speed>
  <fix>3d</fix>
</trkpt>
<trkpt lat="40.0738534" lon="-105.2310839">
  <ele>1686.03</ele>
  <time>2026-08-27T18:26:21Z</time>
  <course>160.01</course>
  <speed>9.55</speed>
  <fix>3d</fix>
</trkpt>
<trkpt lat="40.0738221" lon="-105.2310691">
  <ele>1686.08</ele>
  <time>2026-08-27T18:26:21Z</time>
  <course>159.12</course>
  <speed>9.6244376459095</speed>
  <fix>3d</fix>
</trkpt>
<trkpt lat="40.0738372" lon="-105.2310762">
  <ele>1686.02</ele>
  <time>2026-08-27T18:26:21Z</time>
  <course>159.88</course>
  <speed>9.59</speed>
  <fix>3d</fix>
</trkpt>
<trkpt lat="40.0738057" lon="-105.2310611">
  <ele>1686.06</ele>
  <time>2026-08-27T18:26:21Z</time>
  <course>158.77</course>
  <speed>9.679323323456037</speed>
  <fix>3d</fix>
</trkpt>
<trkpt lat="40.0738211" lon="-105.2310684">
  <ele>1686.0</ele>
  <time>2026-08-27T18:26:21Z</time>
  <course>159.7</course>
  <speed>9.64</speed>
  <fix>3d</fix>
</trkpt>
<trkpt lat="40.0737894" lon="-105.231053">
  <ele>1686.05</ele>
  <time>2026-08-27T18:26:22Z</time>
  <course>158.44</course>
  <speed>9.737848838424224</speed>
  <fix>3d</fix>
</trkpt>
<trkpt lat="40.0738048" lon="-105.2310605">
  <ele>1685.99</ele>
  <time>2026-08-27T18:26:22Z</time>
  <course>159.47</course>
  <speed>9.7</speed>
  <fix>3d</fix>
</trkpt>
<trkpt lat="40.0737729" lon="-105.2310448">
  <ele>1686.04</ele>
  <time>2026-08-27T18:26:22Z</time>
  <course>158.16</course>
  <speed>9.787216151695027</speed>
  <fix>3d</fix>
</trkpt>
<trkpt lat="40.0737884" lon="-105.2310524">
  <ele>1685.97</ele>
  <time>2026-08-27T18:26:22Z</time>
  <course>159.23</course>
  <speed>9.75</speed>
  <fix>3d</fix>
</trkpt>
<trkpt lat="40.0737565" lon="-105.2310365">
  <ele>1686.04</ele>
  <time>2026-08-27T18:26:22Z</time>
  <course>157.93</course>
  <speed>9.833178529854932</speed>
  <fix>3d</fix>
</trkpt>
<trkpt lat="40.073772" lon="-105.2310442">
  <ele>1685.97</ele>
  <time>2026-08-27T18:26:22Z</time>
  <course>159.0</course>
  <speed>9.8</speed>
  <fix>3d</fix>
</trkpt>
<trkpt lat="40.07374" lon="-105.2310281">
  <ele>1686.05</ele>
  <time>2026-08-27T18:26:22Z</time>
  <course>157.75</course>
  <speed>9.87563162536959</speed>
  <fix>3d</fix>
</trkpt>
<trkpt lat="40.0737555" lon="-105.2310359">
  <ele>1685.97</ele>
  <time>2026-08-27T18:26:22Z</time>
  <course>158.78</course>
  <speed>9.85</speed>
  <fix>3d</fix>
</trkpt>
<trkpt lat="40.0737233" lon="-105.2310195">
  <ele>1686.05</ele>
  <time>2026-08-27T18:26:22Z</time>
  <course>157.59</course>
  <speed>9.91815507037473</speed>
  <fix>3d</fix>
</trkpt>
<trkpt lat="40.073739" lon="-105.2310275">
  <ele>1685.98</ele>
  <time>2026-08-27T18:26:22Z</time>
  <course>158.6</course>
  <speed>9.89</speed>
  <fix>3d</fix>
</trkpt>
<trkpt lat="40.0737067" lon="-105.2310109">
  <ele>1686.06</ele>
  <time>2026-08-27T18:26:22Z</time>
  <course>157.5</course>
  <speed>9.947768594011423</speed>
  <fix>3d</fix>
</trkpt>
<trkpt lat="40.0737225" lon="-105.231019">
  <ele>1685.98</ele>
  <time>2026-08-27T18:26:22Z</time>
  <course>158.46</course>
  <speed>9.92</speed>
  <fix>3d</fix>
</trkpt>
<trkpt lat="40.07369" lon="-105.2310023">
  <ele>1686.07</ele>
  <time>2026-08-27T18:26:22Z</time>
  <course>157.44</course>
  <speed>9.97373049565708</speed>
  <fix>3d</fix>
</trkpt>
<trkpt lat="40.0737058" lon="-105.2310104">
  <ele>1685.99</ele>
  <time>2026-08-27T18:26:22Z</time>
  <course>158.35</course>
  <speed>9.96</speed>
  <fix>3d</fix>
</trkpt>
<trkpt lat="40.0736734" lon="-105.2309936">
  <ele>1686.07</ele>
  <time>2026-08-27T18:26:22Z</time>
  <course>157.42</course>
  <speed>9.99970499564862</speed>
  <fix>3d</fix>
</trkpt>
<trkpt lat="40.0736892" lon="-105.2310017">
  <ele>1685.99</ele>
  <time>2026-08-27T18:26:22Z</time>
  <course>158.28</course>
  <speed>9.98</speed>
  <fix>3d</fix>
</trkpt>
<trkpt lat="40.0736567" lon="-105.2309849">
  <ele>1686.08</ele>
  <time>2026-08-27T18:26:22Z</time>
  <course>157.43</course>
  <speed>10.018288276946317</speed>
  <fix>3d</fix>
</trkpt>
<trkpt lat="40.0736725" lon="-105.230993">
  <ele>1686.0</ele>
  <time>2026-08-27T18:26:22Z</time>
  <course>158.25</course>
  <speed>10.01</speed>
  <fix>3d</fix>
</trkpt>
<trkpt lat="40.07364" lon="-105.2309762">
  <ele>1686.09</ele>
  <time>2026-08-27T18:26:22Z</time>
  <course>157.5</course>
  <speed>10.031276090308749</speed>
  <fix>3d</fix>
</trkpt>
<trkpt lat="40.0736557" lon="-105.2309843">
  <ele>1686.0</ele>
  <time>2026-08-27T18:26:22Z</time>
  <course>158.24</course>
  <speed>10.03</speed>
  <fix>3d</fix>
</trkpt>
<trkpt lat="40.0736232" lon="-105.2309675">
  <ele>1686.09</ele>
  <time>2026-08-27T18:26:22Z</time>
  <course>157.58</course>
  <speed>10.046173400852684</speed>
  <fix>3d</fix>
</trkpt>
<trkpt lat="40.073639" lon="-105.2309756">
  <ele>1686.0</ele>
  <time>2026-08-27T18:26:22Z</time>
  <course>158.27</course>
  <speed>10.05</speed>
  <fix>3d</fix>
</trkpt>
<trkpt lat="40.0736064" lon="-105.2309588">
  <ele>1686.09</ele>
  <time>2026-08-27T18:26:22Z</time>
  <course>157.71</course>
  <speed>10.051795859447207</speed>
  <fix>3d</fix>
</trkpt>
<trkpt lat="40.0736222" lon="-105.2309669">
  <ele>1686.01</ele>
  <time>2026-08-27T18:26:22Z</time>
  <course>158.32</course>
  <speed>10.06</speed>
  <fix>3d</fix>
</trkpt>
<trkpt lat="40.0735897" lon="-105.2309501">
  <ele>1686.08</ele>
  <time>2026-08-27T18:26:22Z</time>
  <course>157.83</course>
  <speed>10.057435060690176</speed>
  <fix>3d</fix>
</trkpt>
<trkpt lat="40.0736054" lon="-105.2309581">
  <ele>1686.01</ele>
  <time>2026-08-27T18:26:22Z</time>
  <course>158.39</course>
  <speed>10.07</speed>
  <fix>3d</fix>
</trkpt>
<trkpt lat="40.0735729" lon="-105.2309415">
  <ele>1686.08</ele>
  <time>2026-08-27T18:26:22Z</time>
  <course>157.95</course>
  <speed>10.050134327460505</speed>
  <fix>3d</fix>
</trkpt>
<trkpt lat="40.0735885" lon="-105.2309494">
  <ele>1686.0</ele>
  <time>2026-08-27T18:26:22Z</time>
  <course>158.48</course>
  <speed>10.07</speed>
  <fix>3d</fix>
</trkpt>
<trkpt lat="40.073556" lon="-105.2309328">
  <ele>1686.08</ele>
  <time>2026-08-27T18:26:22Z</time>
  <course>158.1</course>
  <speed>10.052188816372283</speed>
  <fix>3d</fix>
</trkpt>
<trkpt lat="40.0735717" lon="-105.2309408">
  <ele>1686.0</ele>
  <time>2026-08-27T18:26:22Z</time>
  <course>158.58</course>
  <speed>10.07</speed>
  <fix>3d</fix>
</trkpt>
<trkpt lat="40.073539" lon="-105.2309242">
  <ele>1686.08</ele>
  <time>2026-08-27T18:26:22Z</time>
  <course>158.26</course>
  <speed>10.048572037856921</speed>
  <fix>3d</fix>
</trkpt>
<trkpt lat="40.0735549" lon="-105.2309322">
  <ele>1686.0</ele>
  <time>2026-08-27T18:26:22Z</time>
  <course>158.68</course>
  <speed>10.07</speed>
  <fix>3d</fix>
</trkpt>
<trkpt lat="40.0735221" lon="-105.2309156">
  <ele>1686.08</ele>
  <time>2026-08-27T18:26:22Z</time>
  <course>158.41</course>
  <speed>10.028439559572567</speed>
  <fix>3d</fix>
</trkpt>
<trkpt lat="40.073538" lon="-105.2309236">
  <ele>1686.0</ele>
  <time>2026-08-27T18:26:22Z</time>
  <course>158.79</course>
  <speed>10.06</speed>
  <fix>3d</fix>
</trkpt>
<trkpt lat="40.0735052" lon="-105.2309071">
  <ele>1686.09</ele>
  <time>2026-08-27T18:26:22Z</time>
  <course>158.58</course>
  <speed>10.02127736368972</speed>
  <fix>3d</fix>
</trkpt>
<trkpt lat="40.0735211" lon="-105.230915">
  <ele>1686.01</ele>
  <time>2026-08-27T18:26:22Z</time>
  <course>158.89</course>
  <speed>10.05</speed>
  <fix>3d</fix>
</trkpt>
<trkpt lat="40.0734884" lon="-105.2308987">
  <ele>1686.09</ele>
  <time>2026-08-27T18:26:22Z</time>
  <course>158.74</course>
  <speed>9.995458968951851</speed>
  <fix>3d</fix>
</trkpt>
<trkpt lat="40.0735042" lon="-105.2309066">
  <ele>1686.01</ele>
  <time>2026-08-27T18:26:22Z</time>
  <course>158.99</course>
  <speed>10.03</speed>
  <fix>3d</fix>
</trkpt>
<trkpt lat="40.0734716" lon="-105.2308903">
  <ele>1686.09</ele>
  <time>2026-08-27T18:26:22Z</time>
  <course>158.87</course>
  <speed>9.969653955880315</speed>
  <fix>3d</fix>
</trkpt>
<trkpt lat="40.0734875" lon="-105.2308981">
  <ele>1686.01</ele>
  <time>2026-08-27T18:26:22Z</time>
  <course>159.08</course>
  <speed>10.01</speed>
  <fix>3d</fix>
</trkpt>
<trkpt lat="40.0734548" lon="-105.230882">
  <ele>1686.09</ele>
  <time>2026-08-27T18:26:22Z</time>
  <course>158.97</course>
  <speed>9.953215560812495</speed>
  <fix>3d</fix>
</trkpt>
<trkpt lat="40.0734707" lon="-105.2308898">
  <ele>1686.01</ele>
  <time>2026-08-27T18:26:22Z</time>
  <course>159.16</course>
  <speed>9.98</speed>
  <fix>3d</fix>
</trkpt>
<trkpt lat="40.0734381" lon="-105.2308737">
  <ele>1686.09</ele>
  <time>2026-08-27T18:26:22Z</time>
  <course>159.04</course>
  <speed>9.930971755070095</speed>
  <fix>3d</fix>
</trkpt>
<trkpt lat="40.0734539" lon="-105.2308815">
  <ele>1686.01</ele>
  <time>2026-08-27T18:26:22Z</time>
  <course>159.23</course>
  <speed>9.96</speed>
  <fix>3d</fix>
</trkpt>
<trkpt lat="40.0734214" lon="-105.2308655">
  <ele>1686.08</ele>
  <time>2026-08-27T18:26:22Z</time>
  <course>159.05</course>
  <speed>9.918084492481398</speed>
  <fix>3d</fix>
</trkpt>
<trkpt lat="40.0734372" lon="-105.2308732">
  <ele>1686.0</ele>
  <time>2026-08-27T18:26:22Z</time>
  <course>159.28</course>
  <speed>9.94</speed>
  <fix>3d</fix>
</trkpt>
<trkpt lat="40.0734048" lon="-105.2308573">
  <ele>1686.07</ele>
  <time>2026-08-27T18:26:22Z</time>
  <course>159.04</course>
  <speed>9.905200654201812</speed>
  <fix>3d</fix>
</trkpt>
<trkpt lat="40.0734205" lon="-105.230865">
  <ele>1686.0</ele>
  <time>2026-08-27T18:26:22Z</time>
  <course>159.31</course>
  <speed>9.93</speed>
  <fix>3d</fix>
</trkpt>
<trkpt lat="40.0733881" lon="-105.2308491">
  <ele>1686.07</ele>
  <time>2026-08-27T18:26:22Z</time>
  <course>159.0</course>
  <speed>9.895842561399206</speed>
  <fix>3d</fix>
</trkpt>
<trkpt lat="40.0734039" lon="-105.2308568">
  <ele>1685.99</ele>
  <time>2026-08-27T18:26:22Z</time>
  <course>159.32</course>
  <speed>9.92</speed>
  <fix>3d</fix>
</trkpt>
<trkpt lat="40.0733713" lon="-105.2308408">
  <ele>1686.06</ele>
  <time>2026-08-27T18:26:22Z</time>
  <course>158.93</course>
  <speed>9.899373717564156</speed>
  <fix>3d</fix>
</trkpt>
<trkpt lat="40.0733872" lon="-105.2308486">
  <ele>1685.99</ele>
  <time>2026-08-27T18:26:22Z</time>
  <course>159.3</course>
  <speed>9.91</speed>
  <fix>3d</fix>
</trkpt>
<trkpt lat="40.0733547" lon="-105.2308325">
  <ele>1686.06</ele>
  <time>2026-08-27T18:26:22Z</time>
  <course>158.86</course>
  <speed>9.89002022242624</speed>
  <fix>3d</fix>
</trkpt>
<trkpt lat="40.0733706" lon="-105.2308403">
  <ele>1685.98</ele>
  <time>2026-08-27T18:26:22Z</time>
  <course>159.27</course>
  <speed>9.9</speed>
  <fix>3d</fix>
</trkpt>
<trkpt lat="40.0733381" lon="-105.2308243">
  <ele>1686.05</ele>
  <time>2026-08-27T18:26:22Z</time>
  <course>158.8</course>
  <speed>9.89356356425732</speed>
  <fix>3d</fix>
</trkpt>
<trkpt lat="40.0733539" lon="-105.230832">
  <ele>1685.98</ele>
  <time>2026-08-27T18:26:22Z</time>
  <course>159.23</course>
  <speed>9.9</speed>
  <fix>3d</fix>
</trkpt>
<trkpt lat="40.0733215" lon="-105.230816">
  <ele>1686.06</ele>
  <time>2026-08-27T18:26:22Z</time>
  <course>158.72</course>
  <speed>9.887770223867463</speed>
  <fix>3d</fix>
</trkpt>
<trkpt lat="40.0733372" lon="-105.2308238">
  <ele>1685.98</ele>
  <time>2026-08-27T18:26:22Z</time>
  <course>159.17</course>
  <speed>9.9</speed>
  <fix>3d</fix>
</trkpt>
<trkpt lat="40.0733049" lon="-105.2308078">
  <ele>1686.07</ele>
  <time>2026-08-27T18:26:22Z</time>
  <course>158.63</course>
  <speed>9.891334591449224</speed>
  <fix>3d</fix>
</trkpt>
<trkpt lat="40.0733206" lon="-105.2308155">
  <ele>1685.98</ele>
  <time>2026-08-27T18:26:22Z</time>
  <course>159.11</course>
  <speed>9.9</speed>
  <fix>3d</fix>
</trkpt>
<trkpt lat="40.0732884" lon="-105.2307995">
  <ele>1686.07</ele>
  <time>2026-08-27T18:26:22Z</time>
  <course>158.54</course>
  <speed>9.894907781278206</speed>
  <fix>3d</fix>
</trkpt>
<trkpt lat="40.0733039" lon="-105.2308072">
  <ele>1685.98</ele>
  <time>2026-08-27T18:26:22Z</time>
  <course>159.05</course>
  <speed>9.91</speed>
  <fix>3d</fix>
</trkpt>
<trkpt lat="40.0732718" lon="-105.2307911">
  <ele>1686.07</ele>
  <time>2026-08-27T18:26:22Z</time>
  <course>158.49</course>
  <speed>9.907825190222121</speed>
  <fix>3d</fix>
</trkpt>
<trkpt lat="40.0732874" lon="-105.2307989">
  <ele>1685.98</ele>
  <time>2026-08-27T18:26:22Z</time>
  <course>158.98</course>
  <speed>9.91</speed>
  <fix>3d</fix>
</trkpt>
<trkpt lat="40.0732552" lon="-105.2307827">
  <ele>1686.08</ele>
  <time>2026-08-27T18:26:22Z</time>
  <course>158.41</course>
  <speed>9.924338768905464</speed>
  <fix>3d</fix>
</trkpt>
<trkpt lat="40.0732707" lon="-105.2307905">
  <ele>1685.98</ele>
  <time>2026-08-27T18:26:22Z</time>
  <course>158.93</course>
  <speed>9.93</speed>
  <fix>3d</fix>
</trkpt>
<trkpt lat="40.0732386" lon="-105.2307744">
  <ele>1686.08</ele>
  <time>2026-08-27T18:26:22Z</time>
  <course>158.33</course>
  <speed>9.937268236291098</speed>
  <fix>3d</fix>
</trkpt>
<trkpt lat="40.0732541" lon="-105.2307821">
  <ele>1685.98</ele>
  <time>2026-08-27T18:26:22Z</time>
  <course>158.87</course>
  <speed>9.94</speed>
  <fix>3d</fix>
</trkpt>
<trkpt lat="40.073222" lon="-105.2307659">
  <ele>1686.07</ele>
  <time>2026-08-27T18:26:22Z</time>
  <course>158.27</course>
  <speed>9.950201002994865</speed>
  <fix>3d</fix>
</trkpt>
<trkpt lat="40.0732374" lon="-105.2307737">
  <ele>1685.97</ele>
  <time>2026-08-27T18:26:22Z</time>
  <course>158.82</course>
  <speed>9.95</speed>
  <fix>3d</fix>
</trkpt>
<trkpt lat="40.0732052" lon="-105.2307574">
  <ele>1686.08</ele>
  <time>2026-08-27T18:26:22Z</time>
  <course>158.24</course>
  <speed>9.963137056168604</speed>
  <fix>3d</fix>
</trkpt>
<trkpt lat="40.0732207" lon="-105.2307652">
  <ele>1685.97</ele>
  <time>2026-08-27T18:26:22Z</time>
  <course>158.78</course>
  <speed>9.97</speed>
  <fix>3d</fix>
</trkpt>
<trkpt lat="40.0731884" lon="-105.2307489">
  <ele>1686.08</ele>
  <time>2026-08-27T18:26:22Z</time>
  <course>158.2</course>
  <speed>9.976076383027548</speed>
  <fix>3d</fix>
</trkpt>
<trkpt lat="40.073204" lon="-105.2307567">
  <ele>1685.97</ele>
  <time>2026-08-27T18:26:22Z</time>
  <course>158.74</course>
  <speed>9.99</speed>
  <fix>3d</fix>
</trkpt>
<trkpt lat="40.0731716" lon="-105.2307403">
  <ele>1686.07</ele>
  <time>2026-08-27T18:26:22Z</time>
  <course>158.2</course>
  <speed>9.98901897084994</speed>
  <fix>3d</fix>
</trkpt>
<trkpt lat="40.0731872" lon="-105.2307482">
  <ele>1685.96</ele>
  <time>2026-08-27T18:26:22Z</time>
  <course>158.72</course>
  <speed>10.0</speed>
  <fix>3d</fix>
</trkpt>
<trkpt lat="40.0731548" lon="-105.2307318">
  <ele>1686.06</ele>
  <time>2026-08-27T18:26:22Z</time>
  <course>158.23</course>
  <speed>9.998339862197124</speed>
  <fix>3d</fix>
</trkpt>
<trkpt lat="40.0731704" lon="-105.2307397">
  <ele>1685.96</ele>
  <time>2026-08-27T18:26:22Z</time>
  <course>158.72</course>
  <speed>10.01</speed>
  <fix>3d</fix>
</trkpt>
<trkpt lat="40.073138" lon="-105.2307233">
  <ele>1686.05</ele>
  <time>2026-08-27T18:26:22Z</time>
  <course>158.24</course>
  <speed>10.007662064638275</speed>
  <fix>3d</fix>
</trkpt>
<trkpt lat="40.0731537" lon="-105.2307311">
  <ele>1685.96</ele>
  <time>2026-08-27T18:26:22Z</time>
  <course>158.72</course>
  <speed>10.02</speed>
  <fix>3d</fix>
</trkpt>
<trkpt lat="40.0731213" lon="-105.2307147">
  <ele>1686.06</ele>
  <time>2026-08-27T18:26:22Z</time>
  <course>158.27</course>
  <speed>10.004049180206982</speed>
  <fix>3d</fix>
</trkpt>
<trkpt lat="40.0731368" lon="-105.2307226">
  <ele>1685.96</ele>
  <time>2026-08-27T18:26:22Z</time>
  <course>158.73</course>
  <speed>10.02</speed>
  <fix>3d</fix>
</trkpt>
<trkpt lat="40.0731045" lon="-105.2307062">
  <ele>1686.06</ele>
  <time>2026-08-27T18:26:22Z</time>
  <course>158.29</course>
  <speed>10.004049180206982</speed>
  <fix>3d</fix>
</trkpt>
<trkpt lat="40.0731201" lon="-105.2307141">
  <ele>1685.96</ele>
  <time>2026-08-27T18:26:22Z</time>
  <course>158.75</course>
  <speed>10.02</speed>
  <fix>3d</fix>
</trkpt>
<trkpt lat="40.0730877" lon="-105.2306977">
  <ele>1686.06</ele>
  <time>2026-08-27T18:26:22Z</time>
  <course>158.34</course>
  <speed>9.991116053774974</speed>
  <fix>3d</fix>
</trkpt>
<trkpt lat="40.0731033" lon="-105.2307055">
  <ele>1685.96</ele>
  <time>2026-08-27T18:26:22Z</time>
  <course>158.78</course>
  <speed>10.02</speed>
  <fix>3d</fix>
</trkpt>
<trkpt lat="40.073071" lon="-105.2306893">
  <ele>1686.07</ele>
  <time>2026-08-27T18:26:22Z</time>
  <course>158.46</course>
  <speed>9.955927882422612</speed>
  <fix>3d</fix>
</trkpt>
<trkpt lat="40.0730865" lon="-105.230697">
  <ele>1685.97</ele>
  <time>2026-08-27T18:26:22Z</time>
  <course>158.81</course>
  <speed>10.01</speed>
  <fix>3d</fix>
</trkpt>
<trkpt lat="40.0730543" lon="-105.2306809">
  <ele>1686.09</ele>
  <time>2026-08-27T18:26:22Z</time>
  <course>158.76</course>
  <speed>9.879822872906173</speed>
  <fix>3d</fix>
</trkpt>
<trkpt lat="40.0730698" lon="-105.2306886">
  <ele>1685.98</ele>
  <time>2026-08-27T18:26:22Z</time>
  <course>158.84</course>
  <speed>9.98</speed>
  <fix>3d</fix>
</trkpt>
<trkpt lat="40.0730379" lon="-105.2306725">
  <ele>1686.11</ele>
  <time>2026-08-27T18:26:22Z</time>
  <course>159.21</course>
  <speed>9.749871794028884</speed>
  <fix>3d</fix>
</trkpt>
<trkpt lat="40.0730532" lon="-105.2306802">
  <ele>1686.0</ele>
  <time>2026-08-27T18:26:22Z</time>
  <course>158.87</course>
  <speed>9.9</speed>
  <fix>3d</fix>
</trkpt>
<trkpt lat="40.0730215" lon="-105.2306643">
  <ele>1686.14</ele>
  <time>2026-08-27T18:26:22Z</time>
  <course>159.78</course>
  <speed>9.549581142647042</speed>
  <fix>3d</fix>
</trkpt>
<trkpt lat="40.0730367" lon="-105.2306718">
  <ele>1686.02</ele>
  <time>2026-08-27T18:26:22Z</time>
  <course>158.91</course>
  <speed>9.77</speed>
  <fix>3d</fix>
</trkpt>
<trkpt lat="40.0730056" lon="-105.2306564">
  <ele>1686.18</ele>
  <time>2026-08-27T18:26:22Z</time>
  <course>160.39</course>
  <speed>9.299042961509535</speed>
  <fix>3d</fix>
</trkpt>
<trkpt lat="40.0730204" lon="-105.2306636">
  <ele>1686.05</ele>
  <time>2026-08-27T18:26:22Z</time>
  <course>158.99</course>
  <speed>9.58</speed>
  <fix>3d</fix>
</trkpt>
<trkpt lat="40.0729902" lon="-105.2306487">
  <ele>1686.21</ele>
  <time>2026-08-27T18:26:22Z</time>
  <course>161.0</course>
  <speed>9.009844615752261</speed>
  <fix>3d</fix>
</trkpt>
<trkpt lat="40.0730045" lon="-105.2306557">
  <ele>1686.08</ele>
  <time>2026-08-27T18:26:22Z</time>
  <course>159.12</course>
  <speed>9.33</speed>
  <fix>3d</fix>
</trkpt>
<trkpt lat="40.0729752" lon="-105.2306413">
  <ele>1686.24</ele>
  <time>2026-08-27T18:26:22Z</time>
  <course>161.57</course>
  <speed>8.670409448232535</speed>
  <fix>3d</fix>
</trkpt>
<trkpt lat="40.0729891" lon="-105.230648">
  <ele>1686.11</ele>
  <time>2026-08-27T18:26:22Z</time>
  <course>159.28</course>
  <speed>9.04</speed>
  <fix>3d</fix>
</trkpt>
<trkpt lat="40.0729609" lon="-105.2306343">
  <ele>1686.24</ele>
  <time>2026-08-27T18:26:22Z</time>
  <course>162.09</course>
  <speed>8.286573477620289</speed>
  <fix>3d</fix>
</trkpt>
<trkpt lat="40.0729741" lon="-105.2306407">
  <ele>1686.14</ele>
  <time>2026-08-27T18:26:22Z</time>
  <course>159.46</course>
  <speed>8.7</speed>
  <fix>3d</fix>
</trkpt>
<trkpt lat="40.0729472" lon="-105.2306277">
  <ele>1686.24</ele>
  <time>2026-08-27T18:26:22Z</time>
  <course>162.53</course>
  <speed>7.852451846398041</speed>
  <fix>3d</fix>
</trkpt>
<trkpt lat="40.0729597" lon="-105.2306337">
  <ele>1686.15</ele>
  <time>2026-08-27T18:26:22Z</time>
  <course>159.66</course>
  <speed>8.31</speed>
  <fix>3d</fix>
</trkpt>
<trkpt lat="40.0729343" lon="-105.2306215">
  <ele>1686.24</ele>
  <time>2026-08-27T18:26:22Z</time>
  <course>162.88</course>
  <speed>7.3773843603271745</speed>
  <fix>3d</fix>
</trkpt>
<trkpt lat="40.0729461" lon="-105.2306271">
  <ele>1686.16</ele>
  <time>2026-08-27T18:26:22Z</time>
  <course>159.84</course>
  <speed>7.88</speed>
  <fix>3d</fix>
</trkpt>
<trkpt lat="40.0729222" lon="-105.2306158">
  <ele>1686.23</ele>
  <time>2026-08-27T18:26:22Z</time>
  <course>163.15</course>
  <speed>6.8707495952042965</speed>
  <fix>3d</fix>
</trkpt>
<trkpt lat="40.0729332" lon="-105.2306209">
  <ele>1686.15</ele>
  <time>2026-08-27T18:26:22Z</time>
  <course>160.02</course>
  <speed>7.41</speed>
  <fix>3d</fix>
</trkpt>
<trkpt lat="40.072911" lon="-105.2306105">
  <ele>1686.21</ele>
  <time>2026-08-27T18:26:22Z</time>
  <course>163.32</course>
  <speed>6.313731068076942</speed>
  <fix>3d</fix>
</trkpt>
<trkpt lat="40.0729211" lon="-105.2306153">
  <ele>1686.14</ele>
  <time>2026-08-27T18:26:22Z</time>
  <course>160.17</course>
  <speed>6.89</speed>
  <fix>3d</fix>
</trkpt>
<trkpt lat="40.0729008" lon="-105.2306057">
  <ele>1686.19</ele>
  <time>2026-08-27T18:26:22Z</time>
  <course>163.39</course>
  <speed>5.747321115093536</speed>
  <fix>3d</fix>
</trkpt>
<trkpt lat="40.0729099" lon="-105.23061">
  <ele>1686.13</ele>
  <time>2026-08-27T18:26:22Z</time>
  <course>160.28</course>
  <speed>6.34</speed>
  <fix>3d</fix>
</trkpt>
<trkpt lat="40.0728914" lon="-105.2306013">
  <ele>1686.16</ele>
  <time>2026-08-27T18:26:22Z</time>
  <course>163.33</course>
  <speed>5.174881641158569</speed>
  <fix>3d</fix>
</trkpt>
<trkpt lat="40.0728997" lon="-105.2306052">
  <ele>1686.12</ele>
  <time>2026-08-27T18:26:22Z</time>
  <course>160.36</course>
  <speed>5.77</speed>
  <fix>3d</fix>
</trkpt>
<trkpt lat="40.072883" lon="-105.2305974">
  <ele>1686.13</ele>
  <time>2026-08-27T18:26:22Z</time>
  <course>163.13</course>
  <speed>4.611854290846579</speed>
  <fix>3d</fix>
</trkpt>
<trkpt lat="40.0728904" lon="-105.2306009">
  <ele>1686.09</ele>
  <time>2026-08-27T18:26:22Z</time>
  <course>160.42</course>
  <speed>5.19</speed>
  <fix>3d</fix>
</trkpt>
<trkpt lat="40.0728756" lon="-105.2305939">
  <ele>1686.1</ele>
  <time>2026-08-27T18:26:22Z</time>
  <course>162.83</course>
  <speed>4.061625290447163</speed>
  <fix>3d</fix>
</trkpt>
<trkpt lat="40.0728821" lon="-105.230597">
  <ele>1686.06</ele>
  <time>2026-08-27T18:26:22Z</time>
  <course>160.43</course>
  <speed>4.62</speed>
  <fix>3d</fix>
</trkpt>
<trkpt lat="40.0728691" lon="-105.2305909">
  <ele>1686.07</ele>
  <time>2026-08-27T18:26:22Z</time>
  <course>162.42</course>
  <speed>3.5242304124446804</speed>
  <fix>3d</fix>
</trkpt>
<trkpt lat="40.0728747" lon="-105.2305936">
  <ele>1686.03</ele>
  <time>2026-08-27T18:26:22Z</time>
  <course>160.37</course>
  <speed>4.06</speed>
  <fix>3d</fix>
</trkpt>
<trkpt lat="40.0728635" lon="-105.2305882">
  <ele>1686.04</ele>
  <time>2026-08-27T18:26:22Z</time>
  <course>161.85</course>
  <speed>3.009136088647371</speed>
  <fix>3d</fix>
</trkpt>
<trkpt lat="40.0728683" lon="-105.2305906">
  <ele>1686.0</ele>
  <time>2026-08-27T18:26:22Z</time>
  <course>160.18</course>
  <speed>3.52</speed>
  <fix>3d</fix>
</trkpt>
<trkpt lat="40.0728588" lon="-105.2305859">
  <ele>1686.02</ele>
  <time>2026-08-27T18:26:22Z</time>
  <course>161.09</course>
  <speed>2.4977790134437434</speed>
  <fix>3d</fix>
</trkpt>
<trkpt lat="40.0728628" lon="-105.230588">
  <ele>1685.98</ele>
  <time>2026-08-27T18:26:22Z</time>
  <course>159.81</course>
  <speed>2.99</speed>
  <fix>3d</fix>
</trkpt>
<trkpt lat="40.0728549" lon="-105.230584">
  <ele>1686.01</ele>
  <time>2026-08-27T18:26:22Z</time>
  <course>160.06</course>
  <speed>2.018539075668341</speed>
  <fix>3d</fix>
</trkpt>
<trkpt lat="40.0728582" lon="-105.2305858">
  <ele>1685.96</ele>
  <time>2026-08-27T18:26:22Z</time>
  <course>159.18</course>
  <speed>2.48</speed>
  <fix>3d</fix>
</trkpt>
<trkpt lat="40.0728519" lon="-105.2305824">
  <ele>1686.0</ele>
  <time>2026-08-27T18:26:22Z</time>
  <course>158.65</course>
  <speed>1.5717824276915684</speed>
  <fix>3d</fix>
</trkpt>
<trkpt lat="40.0728545" lon="-105.2305839">
  <ele>1685.94</ele>
  <time>2026-08-27T18:26:22Z</time>
  <course>158.2</course>
  <speed>1.99</speed>
  <fix>3d</fix>
</trkpt>
<trkpt lat="40.0728496" lon="-105.2305811">
  <ele>1685.99</ele>
  <time>2026-08-27T18:26:22Z</time>
  <course>156.81</course>
  <speed>1.1853269591129698</speed>
  <fix>3d</fix>
</trkpt>
<trkpt lat="40.0728515" lon="-105.2305823">
  <ele>1685.93</ele>
  <time>2026-08-27T18:26:22Z</time>
  <course>156.79</course>
  <speed>1.54</speed>
  <fix>3d</fix>
</trkpt>
<trkpt lat="40.072848" lon="-105.23058">
  <ele>1685.99</ele>
  <time>2026-08-27T18:26:22Z</time>
  <course>154.42</course>
  <speed>0.85</speed>
  <fix>3d</fix>
</trkpt>
<trkpt lat="40.0728493" lon="-105.230581">
  <ele>1685.92</ele>
  <time>2026-08-27T18:26:22Z</time>
  <course>154.79</course>
  <speed>1.15</speed>
  <fix>3d</fix>
</trkpt>
<trkpt lat="40.0728469" lon="-105.2305792">
  <ele>1685.99</ele>
  <time>2026-08-27T18:26:22Z</time>
  <course>154.07</course>
  <speed>0.5907622195096772</speed>
  <fix>3d</fix>
</trkpt>
<trkpt lat="40.0728478" lon="-105.2305799">
  <ele>1685.92</ele>
  <time>2026-08-27T18:26:22Z</time>
  <course>151.32</course>
  <speed>0.81</speed>
  <fix>3d</fix>
</trkpt>
<trkpt lat="40.0728462" lon="-105.2305785">
  <ele>1685.99</ele>
  <time>2026-08-27T18:26:22Z</time>
  <course>154.09</course>
  <speed>0.3753664875824692</speed>
  <fix>3d</fix>
</trkpt>
<trkpt lat="40.0728467" lon="-105.2305791">
  <ele>1685.92</ele>
  <time>2026-08-27T18:26:22Z</time>
  <course>145.23</course>
  <speed>0.54</speed>
  <fix>3d</fix>
</trkpt>
<trkpt lat="40.0728458" lon="-105.230578">
  <ele>1686.0</ele>
  <time>2026-08-27T18:26:22Z</time>
  <course>154.05</course>
  <speed>0.23021728866442676</speed>
  <fix>3d</fix>
</trkpt>
<trkpt lat="40.0728462" lon="-105.2305785">
  <ele>1685.92</ele>
  <time>2026-08-27T18:26:22Z</time>
  <course>134.6</course>
  <speed>0.33</speed>
  <fix>3d</fix>
</trkpt>
<trkpt lat="40.0728458" lon="-105.2305776">
  <ele>1686.01</ele>
  <time>2026-08-27T18:26:22Z</time>
  <course>154.03</course>
  <speed>0.15132745950421556</speed>
  <fix>3d</fix>
</trkpt>
<trkpt lat="40.0728459" lon="-105.230578">
  <ele>1685.92</ele>
  <time>2026-08-27T18:26:22Z</time>
  <course>113.22</course>
  <speed>0.2</speed>
  <fix>3d</fix>
</trkpt>
<trkpt lat="40.0728458" lon="-105.2305773">
  <ele>1686.02</ele>
  <time>2026-08-27T18:26:22Z</time>
  <course>153.96</course>
  <speed>0.1264911064067352</speed>
  <fix>3d</fix>
</trkpt>
<trkpt lat="40.0728458" lon="-105.2305776">
  <ele>1685.93</ele>
  <time>2026-08-27T18:26:22Z</time>
  <course>78.27</course>
  <speed>0.14</speed>
  <fix>3d</fix>
</trkpt>
<trkpt lat="40.0728459" lon="-105.230577">
  <ele>1686.02</ele>
  <time>2026-08-27T18:26:22Z</time>
  <course>153.96</course>
  <speed>0.12529964086141668</speed>
  <fix>3d</fix>
</trkpt>
<trkpt lat="40.0728459" lon="-105.2305773">
  <ele>1685.93</ele>
  <time>2026-08-27T18:26:22Z</time>
  <course>51.13</course>
  <speed>0.15</speed>
  <fix>3d</fix>
</trkpt>
<trkpt lat="40.0728461" lon="-105.2305768">
  <ele>1686.02</ele>
  <time>2026-08-27T18:26:22Z</time>
  <course>153.91</course>
  <speed>0.11661903789690602</speed>
  <fix>3d</fix>
</trkpt>
<trkpt lat="40.0728461" lon="-105.230577">
  <ele>1685.94</ele>
  <time>2026-08-27T18:26:22Z</time>
  <course>40.62</course>
  <speed>0.16</speed>
  <fix>3d</fix>
</trkpt>
<trkpt lat="40.0728463" lon="-105.2305766">
  <ele>1686.03</ele>
  <time>2026-08-27T18:26:22Z</time>
  <course>153.87</course>
  <speed>0.1044030650891055</speed>
  <fix>3d</fix>
</trkpt>
<trkpt lat="40.0728462" lon="-105.2305768">
  <ele>1685.95</ele>
  <time>2026-08-27T18:26:22Z</time>
  <course>41.48</course>
  <speed>0.15</speed>
  <fix>3d</fix>
</trkpt>
<trkpt lat="40.0728463" lon="-105.2305763">
  <ele>1686.04</ele>
  <time>2026-08-27T18:26:22Z</time>
  <course>153.84</course>
  <speed>0.1118033988749895</speed>
  <fix>3d</fix>
</trkpt>
<trkpt lat="40.0728465" lon="-105.2305765">
  <ele>1685.96</ele>
  <time>2026-08-27T18:26:22Z</time>
  <course>53.13</course>
  <speed>0.14</speed>
  <fix>3d</fix>
</trkpt>
<trkpt lat="40.0728464" lon="-105.230576">
  <ele>1686.05</ele>
  <time>2026-08-27T18:26:22Z</time>
  <course>153.81</course>
  <speed>0.15811388300841897</speed>
  <fix>3d</fix>
</trkpt>
<trkpt lat="40.0728466" lon="-105.2305762">
  <ele>1685.97</ele>
  <time>2026-08-27T18:26:22Z</time>
  <course>77.72</course>
  <speed>0.12</speed>
  <fix>3d</fix>
</trkpt>
<trkpt lat="40.0728462" lon="-105.2305757">
  <ele>1686.05</ele>
  <time>2026-08-27T18:26:22Z</time>
  <course>153.77</course>
  <speed>0.2193171219946131</speed>
  <fix>3d</fix>
</trkpt>
<trkpt lat="40.0728465" lon="-105.2305759">
  <ele>1685.98</ele>
  <time>2026-08-27T18:26:22Z</time>
  <course>106.76</course>
  <speed>0.15</speed>
  <fix>3d</fix>
</trkpt>
<trkpt lat="40.072846" lon="-105.2305753">
  <ele>1686.06</ele>
  <time>2026-08-27T18:26:22Z</time>
  <course>153.79</course>
  <speed>0.2720294101747089</speed>
  <fix>3d</fix>
</trkpt>
<trkpt lat="40.0728464" lon="-105.2305756">
  <ele>1685.98</ele>
  <time>2026-08-27T18:26:22Z</time>
  <course>126.08</course>
  <speed>0.2</speed>
  <fix>3d</fix>
</trkpt>
<trkpt lat="40.0728456" lon="-105.2305748">
  <ele>1686.05</ele>
  <time>2026-08-27T18:26:22Z</time>
  <course>154.16</course>
  <speed>0.31906112267087633</speed>
  <fix>3d</fix>
</trkpt>
<trkpt lat="40.0728462" lon="-105.2305752">
  <ele>1685.98</ele>
  <time>2026-08-27T18:26:22Z</time>
  <course>135.95</course>
  <speed>0.26</speed>
  <fix>3d</fix>
</trkpt>
<trkpt lat="40.0728451" lon="-105.2305744">
  <ele>1686.0</ele>
  <time>2026-08-27T18:26:22Z</time>
  <course>154.58</course>
  <speed>0.3361547262794322</speed>
  <fix>3d</fix>
</trkpt>
<trkpt lat="40.0728458" lon="-105.2305747">
  <ele>1685.97</ele>
  <time>2026-08-27T18:26:22Z</time>
  <course>140.99</course>
  <speed>0.31</speed>
  <fix>3d</fix>
</trkpt>
<trkpt lat="40.0728446" lon="-105.230574">
  <ele>1685.91</ele>
  <time>2026-08-27T18:26:22Z</time>
  <course>154.94</course>
  <speed>0.34</speed>
  <fix>3d</fix>
</trkpt>
<trkpt lat="40.0728453" lon="-105.2305742">
  <ele>1685.92</ele>
  <time>2026-08-27T18:26:22Z</time>
  <course>144.32</course>
  <speed>0.34</speed>
  <fix>3d</fix>
</trkpt>
<trkpt lat="40.0728441" lon="-105.2305736">
  <ele>1685.78</ele>
  <time>2026-08-27T18:26:22Z</time>
  <course>155.26</course>
  <speed>0.33105890714493696</speed>
  <fix>3d</fix>
</trkpt>
<trkpt lat="40.0728448" lon="-105.2305738">
  <ele>1685.84</ele>
  <time>2026-08-27T18:26:22Z</time>
  <course>147.32</course>
  <speed>0.34</speed>
  <fix>3d</fix>
</trkpt>
<trkpt lat="40.0728436" lon="-105.2305732">
  <ele>1685.61</ele>
  <time>2026-08-27T18:26:22Z</time>
  <course>155.54</course>
  <speed>0.3101612483854165</speed>
  <fix>3d</fix>
</trkpt>
<trkpt lat="40.0728443" lon="-105.2305734">
  <ele>1685.71</ele>
  <time>2026-08-27T18:26:22Z</time>
  <course>150.58</course>
  <speed>0.34</speed>
  <fix>3d</fix>
</trkpt>
<trkpt lat="40.0728432" lon="-105.2305729">
  <ele>1685.38</ele>
  <time>2026-08-27T18:26:22Z</time>
  <course>155.78</course>
  <speed>0.27892651361962706</speed>
  <fix>3d</fix>
</trkpt>
<trkpt lat="40.0728438" lon="-105.230573">
  <ele>1685.54</ele>
  <time>2026-08-27T18:26:22Z</time>
  <course>154.4</course>
  <speed>0.32</speed>
  <fix>3d</fix>
</trkpt>
<trkpt lat="40.0728427" lon="-105.2305728">
  <ele>1685.11</ele>
  <time>2026-08-27T18:26:22Z</time>
  <course>155.97</course>
  <speed>0.24186773244895649</speed>
  <fix>3d</fix>
</trkpt>
<trkpt lat="40.0728432" lon="-105.2305727">
  <ele>1685.31</ele>
  <time>2026-08-27T18:26:22Z</time>
  <course>159.05</course>
  <speed>0.29</speed>
  <fix>3d</fix>
</trkpt>
<trkpt lat="40.0728423" lon="-105.2305726">
  <ele>1684.81</ele>
  <time>2026-08-27T18:26:22Z</time>
  <course>155.97</course>
  <speed>0.2</speed>
  <fix>3d</fix>
</trkpt>
<trkpt lat="40.0728428" lon="-105.2305725">
  <ele>1685.05</ele>
  <time>2026-08-27T18:26:22Z</time>
  <course>165.16</course>
  <speed>0.25</speed>
  <fix>3d</fix>
</trkpt>
<trkpt lat="40.072842" lon="-105.2305726">
  <ele>1684.48</ele>
  <time>2026-08-27T18:26:22Z</time>
  <course>155.88</course>
  <speed>0.1649242250247064</speed>
  <fix>3d</fix>
</trkpt>
<trkpt lat="40.0728424" lon="-105.2305724">
  <ele>1684.75</ele>
  <time>2026-08-27T18:26:22Z</time>
  <course>173.82</course>
  <speed>0.21</speed>
  <fix>3d</fix>
</trkpt>
<trkpt lat="40.0728418" lon="-105.2305727">
  <ele>1684.15</ele>
  <time>2026-08-27T18:26:22Z</time>
  <course>155.75</course>
  <speed>0.14212670403551894</speed>
  <fix>3d</fix>
</trkpt>
<trkpt lat="40.072842" lon="-105.2305724">
  <ele>1684.42</ele>
  <time>2026-08-27T18:26:22Z</time>
  <course>186.75</course>
  <speed>0.17</speed>
  <fix>3d</fix>
</trkpt>
<trkpt lat="40.0728416" lon="-105.2305728">
  <ele>1683.82</ele>
  <time>2026-08-27T18:26:22Z</time>
  <course>155.63</course>
  <speed>0.13</speed>
  <fix>3d</fix>
</trkpt>
<trkpt lat="40.0728418" lon="-105.2305725">
  <ele>1684.1</ele>
  <time>2026-08-27T18:26:22Z</time>
  <course>206.16</course>
  <speed>0.14</speed>
  <fix>3d</fix>
</trkpt>
<trkpt lat="40.0728416" lon="-105.2305731">
  <ele>1683.5</ele>
  <time>2026-08-27T18:26:22Z</time>
  <course>155.55</course>
  <speed>0.15</speed>
  <fix>3d</fix>
</trkpt>
<trkpt lat="40.0728415" lon="-105.2305726">
  <ele>1683.77</ele>
  <time>2026-08-27T18:26:22Z</time>
  <course>232.14</course>
  <speed>0.12</speed>
  <fix>3d</fix>
</trkpt>
<trkpt lat="40.0728415" lon="-105.2305734">
  <ele>1683.18</ele>
  <time>2026-08-27T18:26:22Z</time>
  <course>155.43</course>
  <speed>0.17464249196572978</speed>
  <fix>3d</fix>
</trkpt>
<trkpt lat="40.0728414" lon="-105.2305728">
  <ele>1683.45</ele>
  <time>2026-08-27T18:26:22Z</time>
  <course>258.21</course>
  <speed>0.13</speed>
  <fix>3d</fix>
</trkpt>
<trkpt lat="40.0728415" lon="-105.2305738">
  <ele>1682.86</ele>
  <time>2026-08-27T18:26:22Z</time>
  <course>155.36</course>
  <speed>0.20615528128088303</speed>
  <fix>3d</fix>
</trkpt>
<trkpt lat="40.0728414" lon="-105.2305732">
  <ele>1683.13</ele>
  <time>2026-08-27T18:26:22Z</time>
  <course>277.72</course>
  <speed>0.15</speed>
  <fix>3d</fix>
</trkpt>
<trkpt lat="40.0728417" lon="-105.2305742">
  <ele>1682.55</ele>
  <time>2026-08-27T18:26:22Z</time>
  <course>155.27</course>
  <speed>0.22472205054244232</speed>
  <fix>3d</fix>
</trkpt>
<trkpt lat="40.0728415" lon="-105.2305736">
  <ele>1682.82</ele>
  <time>2026-08-27T18:26:22Z</time>
  <course>290.93</course>
  <speed>0.17</speed>
  <fix>3d</fix>
</trkpt>
<trkpt lat="40.0728419" lon="-105.2305746">
  <ele>1682.24</ele>
  <time>2026-08-27T18:26:22Z</time>
  <course>155.2</course>
  <speed>0.25</speed>
  <fix>3d</fix>
</trkpt>
<trkpt lat="40.0728416" lon="-105.2305739">
  <ele>1682.52</ele>
  <time>2026-08-27T18:26:22Z</time>
  <course>300.14</course>
  <speed>0.2</speed>
  <fix>3d</fix>
</trkpt>
<trkpt lat="40.0728422" lon="-105.230575">
  <ele>1681.94</ele>
  <time>2026-08-27T18:26:22Z</time>
  <course>155.17</course>
  <speed>0.261725046566048</speed>
  <fix>3d</fix>
</trkpt>
<trkpt lat="40.0728418" lon="-105.2305744">
  <ele>1682.22</ele>
  <time>2026-08-27T18:26:22Z</time>
  <course>307.12</course>
  <speed>0.22</speed>
  <fix>3d</fix>
</trkpt>
<trkpt lat="40.0728425" lon="-105.2305754">
  <ele>1681.65</ele>
  <time>2026-08-27T18:26:22Z</time>
  <course>155.14</course>
  <speed>0.261725046566048</speed>
  <fix>3d</fix>
</trkpt>
<trkpt lat="40.0728421" lon="-105.2305748">
  <ele>1681.92</ele>
  <time>2026-08-27T18:26:22Z</time>
  <course>312.69</course>
  <speed>0.23</speed>
  <fix>3d</fix>
</trkpt>
<trkpt lat="40.0728428" lon="-105.2305757">
  <ele>1681.36</ele>
  <time>2026-08-27T18:26:22Z</time>
  <course>155.12</course>
  <speed>0.27018512172212594</speed>
  <fix>3d</fix>
</trkpt>
<trkpt lat="40.0728424" lon="-105.2305752">
  <ele>1681.63</ele>
  <time>2026-08-27T18:26:22Z</time>
  <course>317.37</course>
  <speed>0.24</speed>
  <fix>3d</fix>
</trkpt>
<trkpt lat="40.0728431" lon="-105.230576">
  <ele>1681.06</ele>
  <time>2026-08-27T18:26:22Z</time>
  <course>155.07</course>
  <speed>0.2580697580112788</speed>
  <fix>3d</fix>
</trkpt>
<trkpt lat="40.0728427" lon="-105.2305756">
  <ele>1681.33</ele>
  <time>2026-08-27T18:26:22Z</time>
  <course>321.6</course>
  <speed>0.24</speed>
  <fix>3d</fix>
</trkpt>
<trkpt lat="40.0728435" lon="-105.2305763">
  <ele>1680.77</ele>
  <time>2026-08-27T18:26:22Z</time>
  <course>155.05</course>
  <speed>0.24698178070456936</speed>
  <fix>3d</fix>
</trkpt>
<trkpt lat="40.0728431" lon="-105.2305759">
  <ele>1681.04</ele>
  <time>2026-08-27T18:26:22Z</time>
  <course>325.62</course>
  <speed>0.23</speed>
  <fix>3d</fix>
</trkpt>
<trkpt lat="40.0728438" lon="-105.2305766">
  <ele>1680.47</ele>
  <time>2026-08-27T18:26:22Z</time>
  <course>155.02</course>
  <speed>0.22825424421026652</speed>
  <fix>3d</fix>
</trkpt>
<trkpt lat="40.0728434" lon="-105.2305762">
  <ele>1680.74</ele>
  <time>2026-08-27T18:26:22Z</time>
  <course>329.53</course>
  <speed>0.22</speed>
  <fix>3d</fix>
</trkpt>
<trkpt lat="40.0728442" lon="-105.2305768">
  <ele>1680.17</ele>
  <time>2026-08-27T18:26:22Z</time>
  <course>154.98</course>
  <speed>0.2102379604162864</speed>
  <fix>3d</fix>
</trkpt>
<trkpt lat="40.0728438" lon="-105.2305764">
  <ele>1680.44</ele>
  <time>2026-08-27T18:26:22Z</time>
  <course>333.48</course>
  <speed>0.2</speed>
  <fix>3d</fix>
</trkpt>
<trkpt lat="40.0728445" lon="-105.2305769">
  <ele>1679.87</ele>
  <time>2026-08-27T18:26:22Z</time>
  <course>154.95</course>
  <speed>0.18384776310850234</speed>
  <fix>3d</fix>
</trkpt>
<trkpt lat="40.0728441" lon="-105.2305766">
  <ele>1680.14</ele>
  <time>2026-08-27T18:26:22Z</time>
  <course>337.77</course>
  <speed>0.18</speed>
  <fix>3d</fix>
</trkpt>
<trkpt lat="40.0728447" lon="-105.230577">
  <ele>1679.57</ele>
  <time>2026-08-27T18:26:22Z</time>
  <course>154.91</course>
  <speed>0.15524174696260024</speed>
  <fix>3d</fix>
</trkpt>
<trkpt lat="40.0728444" lon="-105.2305768">
  <ele>1679.84</ele>
  <time>2026-08-27T18:26:22Z</time>
  <course>342.69</course>
  <speed>0.16</speed>
  <fix>3d</fix>
</trkpt>
<trkpt lat="40.072845" lon="-105.230577">
  <ele>1679.26</ele>
  <time>2026-08-27T18:26:22Z</time>
  <course>154.86</course>
  <speed>0.13152946437965907</speed>
  <fix>3d</fix>
</trkpt>
<trkpt lat="40.0728447" lon="-105.2305768">
  <ele>1679.54</ele>
  <time>2026-08-27T18:26:22Z</time>
  <course>348.83</course>
  <speed>0.14</speed>
  <fix>3d</fix>
</trkpt>
<trkpt lat="40.0728451" lon="-105.230577">
  <ele>1678.96</ele>
  <time>2026-08-27T18:26:22Z</time>
  <course>154.83</course>
  <speed>0.1</speed>
  <fix>3d</fix>
</trkpt>
<trkpt lat="40.0728449" lon="-105.2305768">
  <ele>1679.24</ele>
  <time>2026-08-27T18:26:22Z</time>
  <course>356.91</course>
  <speed>0.11</speed>
  <fix>3d</fix>
</trkpt>
<trkpt lat="40.0728453" lon="-105.230577">
  <ele>1678.66</ele>
  <time>2026-08-27T18:26:23Z</time>
  <course>154.8</course>
  <speed>0.08</speed>
  <fix>3d</fix>
</trkpt>
<trkpt lat="40.072845" lon="-105.2305768">
  <ele>1678.94</ele>
  <time>2026-08-27T18:26:23Z</time>
  <course>7.81</course>
  <speed>0.09</speed>
  <fix>3d</fix>
</trkpt>
<trkpt lat="40.0728454" lon="-105.230577">
  <ele>1678.36</ele>
  <time>2026-08-27T18:26:23Z</time>
  <course>154.78</course>
  <speed>0.0632455532033676</speed>
  <fix>3d</fix>
</trkpt>
<trkpt lat="40.0728452" lon="-105.2305768">
  <ele>1678.64</ele>
  <time>2026-08-27T18:26:23Z</time>
  <course>22.91</course>
  <speed>0.07</speed>
  <fix>3d</fix>
</trkpt>
<trkpt lat="40.0728454" lon="-105.2305769">
  <ele>1678.07</ele>
  <time>2026-08-27T18:26:23Z</time>
  <course>154.75</course>
  <speed>0.05</speed>
  <fix>3d</fix>
</trkpt>
<trkpt lat="40.0728453" lon="-105.2305768">
  <ele>1678.35</ele>
  <time>2026-08-27T18:26:23Z</time>
  <course>43.34</course>
  <speed>0.06</speed>
  <fix>3d</fix>
</trkpt>
<trkpt lat="40.0728455" lon="-105.2305767">
  <ele>1677.77</ele>
  <time>2026-08-27T18:26:23Z</time>
  <course>154.73</course>
  <speed>0.044721359549995794</speed>
  <fix>3d</fix>
</trkpt>
<trkpt lat="40.0728454" lon="-105.2305767">
  <ele>1678.05</ele>
  <time>2026-08-27T18:26:23Z</time>
  <course>65.84</course>
  <speed>0.06</speed>
  <fix>3d</fix>
</trkpt>
<trkpt lat="40.0728455" lon="-105.2305766">
  <ele>1677.47</ele>
  <time>2026-08-27T18:26:23Z</time>
  <course>154.7</course>
  <speed>0.04</speed>
  <fix>3d</fix>
</trkpt>
<trkpt lat="40.0728454" lon="-105.2305766">
  <ele>1677.75</ele>
  <time>2026-08-27T18:26:23Z</time>
  <course>84.92</course>
  <speed>0.06</speed>
  <fix>3d</fix>
</trkpt>
<trkpt lat="40.0728454" lon="-105.2305764">
  <ele>1677.17</ele>
  <time>2026-08-27T18:26:23Z</time>
  <course>154.68</course>
  <speed>0.0412310562561766</speed>
  <fix>3d</fix>
</trkpt>
<trkpt lat="40.0728455" lon="-105.2305764">
  <ele>1677.45</ele>
  <time>2026-08-27T18:26:23Z</time>
  <course>99.19</course>
  <speed>0.07</speed>
  <fix>3d</fix>
</trkpt>
<trkpt lat="40.0728454" lon="-105.2305763">
  <ele>1676.88</ele>
  <time>2026-08-27T18:26:23Z</time>
  <course>154.66</course>
  <speed>0.044721359549995794</speed>
  <fix>3d</fix>
</trkpt>
<trkpt lat="40.0728455" lon="-105.2305763">
  <ele>1677.15</ele>
  <time>2026-08-27T18:26:23Z</time>
  <course>109.56</course>
  <speed>0.07</speed>
  <fix>3d</fix>
</trkpt>
<trkpt lat="40.0728454" lon="-105.2305761">
  <ele>1676.58</ele>
  <time>2026-08-27T18:26:23Z</time>
  <course>154.64</course>
  <speed>0.05</speed>
  <fix>3d</fix>
</trkpt>
<trkpt lat="40.0728454" lon="-105.2305761">
  <ele>1676.85</ele>
  <time>2026-08-27T18:26:23Z</time>
  <course>117.32</course>
  <speed>0.08</speed>
  <fix>3d</fix>
</trkpt>
<trkpt lat="40.0728453" lon="-105.2305759">
  <ele>1676.28</ele>
  <time>2026-08-27T18:26:23Z</time>
  <course>154.62</course>
  <speed>0.05</speed>
  <fix>3d</fix>
</trkpt>
<trkpt lat="40.0728453" lon="-105.2305759">
  <ele>1676.55</ele>
  <time>2026-08-27T18:26:23Z</time>
  <course>123.33</course>
  <speed>0.08</speed>
  <fix>3d</fix>
</trkpt>
<trkpt lat="40.0728452" lon="-105.2305758">
  <ele>1675.98</ele>
  <time>2026-08-27T18:26:23Z</time>
  <course>154.61</course>
  <speed>0.05</speed>
  <fix>3d</fix>
</trkpt>
<trkpt lat="40.0728452" lon="-105.2305758">
  <ele>1676.25</ele>
  <time>2026-08-27T18:26:23Z</time>
  <course>128.03</course>
  <speed>0.08</speed>
  <fix>3d</fix>
</trkpt>
<trkpt lat="40.0728451" lon="-105.2305757">
  <ele>1675.67</ele>
  <time>2026-08-27T18:26:23Z</time>
  <course>154.58</course>
  <speed>0.05</speed>
  <fix>3d</fix>
</trkpt>
<trkpt lat="40.0728451" lon="-105.2305756">
  <ele>1675.94</ele>
  <time>2026-08-27T18:26:23Z</time>
  <course>132.06</course>
  <speed>0.08</speed>
  <fix>3d</fix>
</trkpt>
<trkpt lat="40.072845" lon="-105.2305755">
  <ele>1675.37</ele>
  <time>2026-08-27T18:26:23Z</time>
  <course>154.56</course>
  <speed>0.044721359549995794</speed>
  <fix>3d</fix>
</trkpt>
<trkpt lat="40.072845" lon="-105.2305754">
  <ele>1675.64</ele>
  <time>2026-08-27T18:26:23Z</time>
  <course>136.03</course>
  <speed>0.08</speed>
  <fix>3d</fix>
</trkpt>
<trkpt lat="40.0728449" lon="-105.2305754">
  <ele>1675.07</ele>
  <time>2026-08-27T18:26:23Z</time>
  <course>154.53</course>
  <speed>0.0316227766016838</speed>
  <fix>3d</fix>
</trkpt>
<trkpt lat="40.0728449" lon="-105.2305753">
  <ele>1675.34</ele>
  <time>2026-08-27T18:26:23Z</time>
  <course>139.91</course>
  <speed>0.07</speed>
  <fix>3d</fix>
</trkpt>
<trkpt lat="40.0728448" lon="-105.2305754">
  <ele>1674.77</ele>
  <time>2026-08-27T18:26:23Z</time>
  <course>154.5</course>
  <speed>0.03</speed>
  <fix>3d</fix>
</trkpt>
<trkpt lat="40.0728448" lon="-105.2305752">
  <ele>1675.04</ele>
  <time>2026-08-27T18:26:23Z</time>
  <course>143.68</course>
  <speed>0.07</speed>
  <fix>3d</fix>
</trkpt>
<trkpt lat="40.0728448" lon="-105.2305753">
  <ele>1674.46</ele>
  <time>2026-08-27T18:26:23Z</time>
  <course>154.49</course>
  <speed>0.02</speed>
  <fix>3d</fix>
</trkpt>
<trkpt lat="40.0728447" lon="-105.2305751">
  <ele>1674.74</ele>
  <time>2026-08-27T18:26:23Z</time>
  <course>147.7</course>
  <speed>0.06</speed>
  <fix>3d</fix>
</trkpt>
<trkpt lat="40.0728447" lon="-105.2305752">
  <ele>1674.16</ele>
  <time>2026-08-27T18:26:23Z</time>
  <course>154.46</course>
  <speed>0.01414213562373095</speed>
  <fix>3d</fix>
</trkpt>
<trkpt lat="40.0728446" lon="-105.230575">
  <ele>1674.44</ele>
  <time>2026-08-27T18:26:23Z</time>
  <course>152.69</course>
  <speed>0.05</speed>
  <fix>3d</fix>
</trkpt>
<trkpt lat="40.0728446" lon="-105.2305752">
  <ele>1673.86</ele>
  <time>2026-08-27T18:26:23Z</time>
  <course>154.44</course>
  <speed>0.01414213562373095</speed>
  <fix>3d</fix>
</trkpt>
<trkpt lat="40.0728445" lon="-105.230575">
  <ele>1674.14</ele>
  <time>2026-08-27T18:26:23Z</time>
  <course>159.86</course>
  <speed>0.03</speed>
  <fix>3d</fix>
</trkpt>
<trkpt lat="40.0728446" lon="-105.2305752">
  <ele>1673.56</ele>
  <time>2026-08-27T18:26:23Z</time>
  <course>154.42</course>
  <speed>0.02</speed>
  <fix>3d</fix>
</trkpt>
<trkpt lat="40.0728445" lon="-105.230575">
  <ele>1673.84</ele>
  <time>2026-08-27T18:26:23Z</time>
  <course>172.74</course>
  <speed>0.02</speed>
  <fix>3d</fix>
</trkpt>
<trkpt lat="40.0728446" lon="-105.2305752">
  <ele>1673.27</ele>
  <time>2026-08-27T18:26:23Z</time>
  <course>154.39</course>
  <speed>0.03</speed>
  <fix>3d</fix>
</trkpt>
<trkpt lat="40.0728444" lon="-105.230575">
  <ele>1673.54</ele>
  <time>2026-08-27T18:26:23Z</time>
  <course>198.1</course>
  <speed>0.01</speed>
  <fix>3d</fix>
</trkpt>
<trkpt lat="40.0728446" lon="-105.2305752">
  <ele>1672.97</ele>
  <time>2026-08-27T18:26:23Z</time>
  <course>154.38</course>
  <speed>0.0412310562561766</speed>
  <fix>3d</fix>
</trkpt>
<trkpt lat="40.0728444" lon="-105.230575">
  <ele>1673.24</ele>
  <time>2026-08-27T18:26:23Z</time>
  <course>235.66</course>
  <speed>0.01</speed>
  <fix>3d</fix>
</trkpt>
<trkpt lat="40.0728446" lon="-105.2305752">
  <ele>1672.67</ele>
  <time>2026-08-27T18:26:23Z</time>
  <course>154.35</course>
  <speed>0.044721359549995794</speed>
  <fix>3d</fix>
</trkpt>
<trkpt lat="40.0728444" lon="-105.230575">
  <ele>1672.94</ele>
  <time>2026-08-27T18:26:23Z</time>
  <course>266.42</course>
  <speed>0.02</speed>
  <fix>3d</fix>
</trkpt>
<trkpt lat="40.0728445" lon="-105.2305753">
  <ele>1672.38</ele>
  <time>2026-08-27T18:26:23Z</time>
  <course>154.34</course>
  <speed>0.053851648071345036</speed>
  <fix>3d</fix>
</trkpt>
<trkpt lat="40.0728444" lon="-105.230575">
  <ele>1672.64</ele>
  <time>2026-08-27T18:26:23Z</time>
  <course>283.61</course>
  <speed>0.02</speed>
  <fix>3d</fix>
</trkpt>
<trkpt lat="40.0728445" lon="-105.2305754">
  <ele>1672.08</ele>
  <time>2026-08-27T18:26:23Z</time>
  <course>154.32</course>
  <speed>0.05830951894845301</speed>
  <fix>3d</fix>
</trkpt>
<trkpt lat="40.0728444" lon="-105.2305751">
  <ele>1672.34</ele>
  <time>2026-08-27T18:26:23Z</time>
  <course>293.16</course>
  <speed>0.03</speed>
  <fix>3d</fix>
</trkpt>
<trkpt lat="40.0728445" lon="-105.2305754">
  <ele>1671.78</ele>
  <time>2026-08-27T18:26:23Z</time>
  <course>154.31</course>
  <speed>0.05830951894845301</speed>
  <fix>3d</fix>
</trkpt>
<trkpt lat="40.0728444" lon="-105.2305751">
  <ele>1672.04</ele>
  <time>2026-08-27T18:26:23Z</time>
  <course>299.38</course>
  <speed>0.03</speed>
  <fix>3d</fix>
</trkpt>
<trkpt lat="40.0728446" lon="-105.2305755">
  <ele>1671.48</ele>
  <time>2026-08-27T18:26:23Z</time>
  <course>154.29</course>
  <speed>0.05830951894845301</speed>
  <fix>3d</fix>
</trkpt>
<trkpt lat="40.0728444" lon="-105.2305752">
  <ele>1671.74</ele>
  <time>2026-08-27T18:26:23Z</time>
  <course>303.5</course>
  <speed>0.04</speed>
  <fix>3d</fix>
</trkpt>
<trkpt lat="40.0728446" lon="-105.2305756">
  <ele>1671.17</ele>
  <time>2026-08-27T18:26:23Z</time>
  <course>154.27</course>
  <speed>0.05830951894845301</speed>
  <fix>3d</fix>
</trkpt>
<trkpt lat="40.0728444" lon="-105.2305753">
  <ele>1671.44</ele>
  <time>2026-08-27T18:26:23Z</time>
  <course>306.08</course>
  <speed>0.04</speed>
  <fix>3d</fix>
</trkpt>
<trkpt lat="40.0728446" lon="-105.2305756">
  <ele>1670.88</ele>
  <time>2026-08-27T18:26:23Z</time>
  <course>154.24</course>
  <speed>0.06403124237432849</speed>
  <fix>3d</fix>
</trkpt>
<trkpt lat="40.0728445" lon="-105.2305754">
  <ele>1671.13</ele>
  <time>2026-08-27T18:26:23Z</time>
  <course>308.16</course>
  <speed>0.04</speed>
  <fix>3d</fix>
</trkpt>
<trkpt lat="40.0728447" lon="-105.2305757">
  <ele>1670.57</ele>
  <time>2026-08-27T18:26:23Z</time>
  <course>154.21</course>
  <speed>0.06403124237432849</speed>
  <fix>3d</fix>
</trkpt>
<trkpt lat="40.0728445" lon="-105.2305755">
  <ele>1670.83</ele>
  <time>2026-08-27T18:26:23Z</time>
  <course>310.72</course>
  <speed>0.04</speed>
  <fix>3d</fix>
</trkpt>
<trkpt lat="40.0728447" lon="-105.2305758">
  <ele>1670.26</ele>
  <time>2026-08-27T18:26:23Z</time>
  <course>154.19</course>
  <speed>0.05</speed>
  <fix>3d</fix>
</trkpt>
<trkpt lat="40.0728446" lon="-105.2305756">
  <ele>1670.53</ele>
  <time>2026-08-27T18:26:23Z</time>
  <course>313.7</course>
  <speed>0.04</speed>
  <fix>3d</fix>
</trkpt>
<trkpt lat="40.0728448" lon="-105.2305759">
  <ele>1669.95</ele>
  <time>2026-08-27T18:26:23Z</time>
  <course>154.17</course>
  <speed>0.05</speed>
  <fix>3d</fix>
</trkpt>
<trkpt lat="40.0728447" lon="-105.2305756">
  <ele>1670.23</ele>
  <time>2026-08-27T18:26:23Z</time>
  <course>316.57</course>
  <speed>0.04</speed>
  <fix>3d</fix>
</trkpt>
<trkpt lat="40.0728448" lon="-105.2305759">
  <ele>1669.65</ele>
  <time>2026-08-27T18:26:23Z</time>
  <course>154.14</course>
  <speed>0.04242640687119285</speed>
  <fix>3d</fix>
</trkpt>
<trkpt lat="40.0728448" lon="-105.2305757">
  <ele>1669.92</ele>
  <time>2026-08-27T18:26:23Z</time>
  <course>319.53</course>
  <speed>0.04</speed>
  <fix>3d</fix>
</trkpt>
<trkpt lat="40.0728449" lon="-105.2305759">
  <ele>1669.35</ele>
  <time>2026-08-27T18:26:23Z</time>
  <course>154.11</course>
  <speed>0.04242640687119285</speed>
  <fix>3d</fix>
</trkpt>
<trkpt lat="40.0728448" lon="-105.2305758">
  <ele>1669.63</ele>
  <time>2026-08-27T18:26:23Z</time>
  <course>322.97</course>
  <speed>0.03</speed>
  <fix>3d</fix>
</trkpt>
<trkpt lat="40.0728449" lon="-105.230576">
  <ele>1669.05</ele>
  <time>2026-08-27T18:26:23Z</time>
  <course>154.09</course>
  <speed>0.03605551275463989</speed>
  <fix>3d</fix>
</trkpt>
<trkpt lat="40.0728449" lon="-105.2305758">
  <ele>1669.33</ele>
  <time>2026-08-27T18:26:23Z</time>
  <course>326.81</course>
  <speed>0.03</speed>
  <fix>3d</fix>
</trkpt>
<trkpt lat="40.072845" lon="-105.230576">
  <ele>1668.76</ele>
  <time>2026-08-27T18:26:23Z</time>
  <course>154.1</course>
  <speed>0.0282842712474619</speed>
  <fix>3d</fix>
</trkpt>
<trkpt lat="40.0728449" lon="-105.2305758">
  <ele>1669.03</ele>
  <time>2026-08-27T18:26:23Z</time>
  <course>330.83</course>
  <speed>0.03</speed>
  <fix>3d</fix>
</trkpt>
<trkpt lat="40.072845" lon="-105.230576">
  <ele>1668.46</ele>
  <time>2026-08-27T18:26:23Z</time>
  <course>154.08</course>
  <speed>0.0282842712474619</speed>
  <fix>3d</fix>
</trkpt>
<trkpt lat="40.072845" lon="-105.2305759">
  <ele>1668.73</ele>
  <time>2026-08-27T18:26:23Z</time>
  <course>335.24</course>
  <speed>0.02</speed>
  <fix>3d</fix>
</trkpt>
<trkpt lat="40.072845" lon="-105.230576">
  <ele>1668.16</ele>
  <time>2026-08-27T18:26:23Z</time>
  <course>154.06</course>
  <speed>0.01414213562373095</speed>
  <fix>3d</fix>
</trkpt>
<trkpt lat="40.072845" lon="-105.230576">
  <ele>1668.44</ele>
  <time>2026-08-27T18:26:23Z</time>
  <course>341.73</course>
  <speed>0.01</speed>
  <fix>3d</fix>
</trkpt>
<trkpt lat="40.072845" lon="-105.230576">
  <ele>1667.86</ele>
  <time>2026-08-27T18:26:23Z</time>
  <course>154.05</course>
  <speed>0.01414213562373095</speed>
  <fix>3d</fix>
</trkpt>
<trkpt lat="40.072845" lon="-105.230576">
  <ele>1668.14</ele>
  <time>2026-08-27T18:26:23Z</time>
  <course>353.3</course>
  <speed>0.01</speed>
  <fix>3d</fix>
</trkpt>
<trkpt lat="40.0728451" lon="-105.230576">
  <ele>1667.56</ele>
  <time>2026-08-27T18:26:23Z</time>
  <course>154.04</course>
  <speed>0.01</speed>
  <fix>3d</fix>
</trkpt>
<trkpt lat="40.072845" lon="-105.230576">
  <ele>1667.85</ele>
  <time>2026-08-27T18:26:23Z</time>
  <course>13.98</course>
  <speed>0.01</speed>
  <fix>3d</fix>
</trkpt>
<trkpt lat="40.0728451" lon="-105.230576">
  <ele>1667.26</ele>
  <time>2026-08-27T18:26:23Z</time>
  <course>154.02</course>
  <speed>0.0</speed>
  <fix>3d</fix>
</trkpt>
<trkpt lat="40.072845" lon="-105.2305759">
  <ele>1667.55</ele>
  <time>2026-08-27T18:26:23Z</time>
  <course>48.67</course>
  <speed>0.0</speed>
  <fix>3d</fix>
</trkpt>
<trkpt lat="40.072845" lon="-105.230576">
  <ele>1666.96</ele>
  <time>2026-08-27T18:26:23Z</time>
  <course>154.02</course>
  <speed>0.0</speed>
  <fix>3d</fix>
</trkpt>
<trkpt lat="40.072845" lon="-105.2305758">
  <ele>1667.25</ele>
  <time>2026-08-27T18:26:23Z</time>
  <course>79.65</course>
  <speed>0.0</speed>
  <fix>3d</fix>
</trkpt>
<trkpt lat="40.072845" lon="-105.230576">
  <ele>1666.66</ele>
  <time>2026-08-27T18:26:23Z</time>
  <course>154.01</course>
  <speed>0.0</speed>
  <fix>3d</fix>
</trkpt>
<trkpt lat="40.072845" lon="-105.2305758">
  <ele>1666.95</ele>
  <time>2026-08-27T18:26:23Z</time>
  <course>97.13</course>
  <speed>0.01</speed>
  <fix>3d</fix>
</trkpt>
<trkpt lat="40.072845" lon="-105.230576">
  <ele>1666.36</ele>
  <time>2026-08-27T18:26:23Z</time>
  <course>153.99</course>
  <speed>0.0</speed>
  <fix>3d</fix>
</trkpt>
<trkpt lat="40.072845" lon="-105.2305758">
  <ele>1666.65</ele>
  <time>2026-08-27T18:26:23Z</time>
  <course>107.27</course>
  <speed>0.01</speed>
  <fix>3d</fix>
</trkpt>
<trkpt lat="40.072845" lon="-105.230576">
  <ele>1666.06</ele>
  <time>2026-08-27T18:26:23Z</time>
  <course>153.96</course>
  <speed>0.0</speed>
  <fix>3d</fix>
</trkpt>
<trkpt lat="40.072845" lon="-105.2305758">
  <ele>1666.35</ele>
  <time>2026-08-27T18:26:23Z</time>
  <course>113.16</course>
  <speed>0.01</speed>
  <fix>3d</fix>
</trkpt>
<trkpt lat="40.072845" lon="-105.2305759">
  <ele>1665.76</ele>
  <time>2026-08-27T18:26:23Z</time>
  <course>153.96</course>
  <speed>0.0</speed>
  <fix>3d</fix>
</trkpt>
<trkpt lat="40.072845" lon="-105.2305758">
  <ele>1666.05</ele>
  <time>2026-08-27T18:26:23Z</time>
  <course>116.52</course>
  <speed>0.01</speed>
  <fix>3d</fix>
</trkpt>
<trkpt lat="40.072845" lon="-105.2305759">
  <ele>1665.46</ele>
  <time>2026-08-27T18:26:23Z</time>
  <course>153.96</course>
  <speed>0.0</speed>
  <fix>3d</fix>
</trkpt>
<trkpt lat="40.072845" lon="-105.2305758">
  <ele>1665.76</ele>
  <time>2026-08-27T18:26:23Z</time>
  <course>119.62</course>
  <speed>0.01</speed>
  <fix>3d</fix>
</trkpt>
<trkpt lat="40.072845" lon="-105.2305759">
  <ele>1665.16</ele>
  <time>2026-08-27T18:26:23Z</time>
  <course>153.94</course>
  <speed>0.0</speed>
  <fix>3d</fix>
</trkpt>
<trkpt lat="40.072845" lon="-105.2305758">
  <ele>1665.46</ele>
  <time>2026-08-27T18:26:23Z</time>
  <course>121.99</course>
  <speed>0.01</speed>
  <fix>3d</fix>
</trkpt>
<trkpt lat="40.072845" lon="-105.2305758">
  <ele>1664.86</ele>
  <time>2026-08-27T18:26:23Z</time>
  <course>153.92</course>
  <speed>0.0</speed>
  <fix>3d</fix>
</trkpt>
<trkpt lat="40.072845" lon="-105.2305758">
  <ele>1665.16</ele>
  <time>2026-08-27T18:26:23Z</time>
  <course>122.17</course>
  <speed>0.01</speed>
  <fix>3d</fix>
</trkpt>
<trkpt lat="40.072845" lon="-105.2305758">
  <ele>1664.57</ele>
  <time>2026-08-27T18:26:23Z</time>
  <course>153.93</course>
  <speed>0.0</speed>
  <fix>3d</fix>
</trkpt>
<trkpt lat="40.072845" lon="-105.2305757">
  <ele>1664.86</ele>
  <time>2026-08-27T18:26:23Z</time>
  <course>122.37</course>
  <speed>0.01</speed>
  <fix>3d</fix>
</trkpt>
<trkpt lat="40.072845" lon="-105.2305758">
  <ele>1664.27</ele>
  <time>2026-08-27T18:26:23Z</time>
  <course>153.92</course>
  <speed>0.0</speed>
  <fix>3d</fix>
</trkpt>
<trkpt lat="40.072845" lon="-105.2305756">
  <ele>1664.56</ele>
  <time>2026-08-27T18:26:23Z</time>
  <course>124.82</course>
  <speed>0.01</speed>
  <fix>3d</fix>
</trkpt>
<trkpt lat="40.072845" lon="-105.2305758">
  <ele>1663.97</ele>
  <time>2026-08-27T18:26:23Z</time>
  <course>153.9</course>
  <speed>0.0</speed>
  <fix>3d</fix>
</trkpt>
<trkpt lat="40.072845" lon="-105.2305756">
  <ele>1664.27</ele>
  <time>2026-08-27T18:26:23Z</time>
  <course>129.05</course>
  <speed>0.01</speed>
  <fix>3d</fix>
</trkpt>
<trkpt lat="40.072845" lon="-105.2305758">
  <ele>1663.67</ele>
  <time>2026-08-27T18:26:23Z</time>
  <course>153.89</course>
  <speed>0.01</speed>
  <fix>3d</fix>
</trkpt>
<trkpt lat="40.072845" lon="-105.2305756">
  <ele>1663.97</ele>
  <time>2026-08-27T18:26:23Z</time>
  <course>134.29</course>
  <speed>0.01</speed>
  <fix>3d</fix>
</trkpt>
<trkpt lat="40.072845" lon="-105.2305758">
  <ele>1663.36</ele>
  <time>2026-08-27T18:26:23Z</time>
  <course>153.87</course>
  <speed>0.01</speed>
  <fix>3d</fix>
</trkpt>
<trkpt lat="40.072845" lon="-105.2305756">
  <ele>1663.66</ele>
  <time>2026-08-27T18:26:23Z</time>
  <course>140.3</course>
  <speed>0.01</speed>
  <fix>3d</fix>
</trkpt>
<trkpt lat="40.072845" lon="-105.2305758">
  <ele>1663.07</ele>
  <time>2026-08-27T18:26:23Z</time>
  <course>153.86</course>
  <speed>0.01</speed>
  <fix>3d</fix>
</trkpt>
<trkpt lat="40.072845" lon="-105.2305756">
  <ele>1663.37</ele>
  <time>2026-08-27T18:26:23Z</time>
  <course>146.65</course>
  <speed>0.0</speed>
  <fix>3d</fix>
</trkpt>
<trkpt lat="40.072845" lon="-105.2305758">
  <ele>1662.76</ele>
  <time>2026-08-27T18:26:23Z</time>
  <course>153.86</course>
  <speed>0.01</speed>
  <fix>3d</fix>
</trkpt>
<trkpt lat="40.072845" lon="-105.2305756">
  <ele>1663.07</ele>
  <time>2026-08-27T18:26:23Z</time>
  <course>155.46</course>
  <speed>0.0</speed>
  <fix>3d</fix>
</trkpt>
<trkpt lat="40.072845" lon="-105.2305758">
  <ele>1662.47</ele>
  <time>2026-08-27T18:26:23Z</time>
  <course>153.84</course>
  <speed>0.01</speed>
  <fix>3d</fix>
</trkpt>
<trkpt lat="40.072845" lon="-105.2305756">
  <ele>1662.77</ele>
  <time>2026-08-27T18:26:23Z</time>
  <course>166.2</course>
  <speed>0.0</speed>
  <fix>3d</fix>
</trkpt>
<trkpt lat="40.072845" lon="-105.2305758">
  <ele>1662.17</ele>
  <time>2026-08-27T18:26:23Z</time>
  <course>153.83</course>
  <speed>0.01</speed>
  <fix>3d</fix>
</trkpt>
<trkpt lat="40.072845" lon="-105.2305756">
  <ele>1662.47</ele>
  <time>2026-08-27T18:26:23Z</time>
  <course>175.03</course>
  <speed>0.0</speed>
  <fix>3d</fix>
</trkpt>
<trkpt lat="40.072845" lon="-105.2305757">
  <ele>1661.86</ele>
  <time>2026-08-27T18:26:23Z</time>
  <course>153.82</course>
  <speed>0.02</speed>
  <fix>3d</fix>
</trkpt>
<trkpt lat="40.072845" lon="-105.2305756">
  <ele>1662.16</ele>
  <time>2026-08-27T18:26:23Z</time>
  <course>181.68</course>
  <speed>0.0</speed>
  <fix>3d</fix>
</trkpt>
<trkpt lat="40.072845" lon="-105.2305757">
  <ele>1661.57</ele>
  <time>2026-08-27T18:26:23Z</time>
  <course>153.82</course>
  <speed>0.02</speed>
  <fix>3d</fix>
</trkpt>
<trkpt lat="40.072845" lon="-105.2305756">
  <ele>1661.87</ele>
  <time>2026-08-27T18:26:23Z</time>
  <course>187.22</course>
  <speed>0.0</speed>
  <fix>3d</fix>
</trkpt>
<trkpt lat="40.072845" lon="-105.2305757">
  <ele>1661.27</ele>
  <time>2026-08-27T18:26:23Z</time>
  <course>153.81</course>
  <speed>0.02</speed>
  <fix>3d</fix>
</trkpt>
<trkpt lat="40.0728449" lon="-105.2305756">
  <ele>1661.57</ele>
  <time>2026-08-27T18:26:23Z</time>
  <course>192.88</course>
  <speed>0.0</speed>
  <fix>3d</fix>
</trkpt>
<trkpt lat="40.072845" lon="-105.2305757">
  <ele>1660.97</ele>
  <time>2026-08-27T18:26:23Z</time>
  <course>153.79</course>
  <speed>0.02</speed>
  <fix>3d</fix>
</trkpt>
<trkpt lat="40.0728449" lon="-105.2305756">
  <ele>1661.27</ele>
  <time>2026-08-27T18:26:23Z</time>
  <course>198.48</course>
  <speed>0.0</speed>
  <fix>3d</fix>
</trkpt>
<trkpt lat="40.072845" lon="-105.2305757">
  <ele>1660.67</ele>
  <time>2026-08-27T18:26:23Z</time>
  <course>153.78</course>
  <speed>0.02</speed>
  <fix>3d</fix>
</trkpt>
<trkpt lat="40.0728449" lon="-105.2305756">
  <ele>1660.97</ele>
  <time>2026-08-27T18:26:23Z</time>
  <course>202.57</course>
  <speed>0.0</speed>
  <fix>3d</fix>
</trkpt>
<trkpt lat="40.072845" lon="-105.2305757">
  <ele>1660.37</ele>
  <time>2026-08-27T18:26:23Z</time>
  <course>153.77</course>
  <speed>0.02</speed>
  <fix>3d</fix>
</trkpt>
<trkpt lat="40.0728449" lon="-105.2305756">
  <ele>1660.66</ele>
  <time>2026-08-27T18:26:23Z</time>
  <course>204.83</course>
  <speed>0.0</speed>
  <fix>3d</fix>
</trkpt>
<trkpt lat="40.072845" lon="-105.2305757">
  <ele>1660.07</ele>
  <time>2026-08-27T18:26:23Z</time>
  <course>153.77</course>
  <speed>0.02</speed>
  <fix>3d</fix>
</trkpt>
<trkpt lat="40.0728449" lon="-105.2305756">
  <ele>1660.37</ele>
  <time>2026-08-27T18:26:23Z</time>
  <course>206.79</course>
  <speed>0.0</speed>
  <fix>3d</fix>
</trkpt>
<trkpt lat="40.072845" lon="-105.2305757">
  <ele>1659.77</ele>
  <time>2026-08-27T18:26:23Z</time>
  <course>153.77</course>
  <speed>0.02</speed>
  <fix>3d</fix>
</trkpt>
<trkpt lat="40.0728449" lon="-105.2305756">
  <ele>1660.07</ele>
  <time>2026-08-27T18:26:23Z</time>
  <course>210.56</course>
  <speed>0.0</speed>
  <fix>3d</fix>
</trkpt>
<trkpt lat="40.072845" lon="-105.2305757">
  <ele>1659.48</ele>
  <time>2026-08-27T18:26:23Z</time>
  <course>153.76</course>
  <speed>0.02</speed>
  <fix>3d</fix>
</trkpt>
<trkpt lat="40.0728449" lon="-105.2305756">
  <ele>1659.77</ele>
  <time>2026-08-27T18:26:23Z</time>
  <course>217.92</course>
  <speed>0.0</speed>
  <fix>3d</fix>
</trkpt>
<trkpt lat="40.072845" lon="-105.2305757">
  <ele>1659.18</ele>
  <time>2026-08-27T18:26:23Z</time>
  <course>153.75</course>
  <speed>0.02</speed>
  <fix>3d</fix>
</trkpt>
<trkpt lat="40.0728449" lon="-105.2305756">
  <ele>1659.47</ele>
  <time>2026-08-27T18:26:23Z</time>
  <course>228.21</course>
  <speed>0.0</speed>
  <fix>3d</fix>
</trkpt>
<trkpt lat="40.072845" lon="-105.2305757">
  <ele>1658.88</ele>
  <time>2026-08-27T18:26:23Z</time>
  <course>153.74</course>
  <speed>0.02</speed>
  <fix>3d</fix>
</trkpt>
<trkpt lat="40.0728449" lon="-105.2305756">
  <ele>1659.16</ele>
  <time>2026-08-27T18:26:23Z</time>
  <course>237.95</course>
  <speed>0.0</speed>
  <fix>3d</fix>
</trkpt>
<trkpt lat="40.072845" lon="-105.2305757">
  <ele>1658.58</ele>
  <time>2026-08-27T18:26:23Z</time>
  <course>153.73</course>
  <speed>0.02</speed>
  <fix>3d</fix>
</trkpt>
<trkpt lat="40.0728449" lon="-105.2305756">
  <ele>1658.87</ele>
  <time>2026-08-27T18:26:23Z</time>
  <course>245.45</course>
  <speed>0.0</speed>
  <fix>3d</fix>
</trkpt>
<trkpt lat="40.072845" lon="-105.2305757">
  <ele>1658.29</ele>
  <time>2026-08-27T18:26:23Z</time>
  <course>153.74</course>
  <speed>0.02</speed>
  <fix>3d</fix>
</trkpt>
<trkpt lat="40.0728449" lon="-105.2305756">
  <ele>1658.57</ele>
  <time>2026-08-27T18:26:23Z</time>
  <course>251.39</course>
  <speed>0.0</speed>
  <fix>3d</fix>
</trkpt>
<trkpt lat="40.072845" lon="-105.2305757">
  <ele>1657.99</ele>
  <time>2026-08-27T18:26:23Z</time>
  <course>153.74</course>
  <speed>0.02</speed>
  <fix>3d</fix>
</trkpt>
<trkpt lat="40.0728449" lon="-105.2305756">
  <ele>1658.27</ele>
  <time>2026-08-27T18:26:23Z</time>
  <course>253.4</course>
  <speed>0.0</speed>
  <fix>3d</fix>
</trkpt>
<trkpt lat="40.072845" lon="-105.2305757">
  <ele>1657.68</ele>
  <time>2026-08-27T18:26:23Z</time>
  <course>153.73</course>
  <speed>0.02</speed>
  <fix>3d</fix>
</trkpt>
<trkpt lat="40.0728449" lon="-105.2305756">
  <ele>1657.96</ele>
  <time>2026-08-27T18:26:23Z</time>
  <course>251.17</course>
  <speed>0.0</speed>
  <fix>3d</fix>
</trkpt>
<trkpt lat="40.072845" lon="-105.2305757">
  <ele>1657.38</ele>
  <time>2026-08-27T18:26:23Z</time>
  <course>153.7</course>
  <speed>0.02</speed>
  <fix>3d</fix>
</trkpt>
<trkpt lat="40.0728449" lon="-105.2305756">
  <ele>1657.66</ele>
  <time>2026-08-27T18:26:23Z</time>
  <course>249.89</course>
  <speed>0.0</speed>
  <fix>3d</fix>
</trkpt>
<trkpt lat="40.072845" lon="-105.2305757">
  <ele>1657.07</ele>
  <time>2026-08-27T18:26:23Z</time>
  <course>153.7</course>
  <speed>0.01</speed>
  <fix>3d</fix>
</trkpt>
<trkpt lat="40.0728449" lon="-105.2305756">
  <ele>1657.35</ele>
  <time>2026-08-27T18:26:23Z</time>
  <course>251.46</course>
  <speed>0.0</speed>
  <fix>3d</fix>
</trkpt>
<trkpt lat="40.072845" lon="-105.2305757">
  <ele>1656.77</ele>
  <time>2026-08-27T18:26:23Z</time>
  <course>153.68</course>
  <speed>0.01</speed>
  <fix>3d</fix>
</trkpt>
<trkpt lat="40.0728449" lon="-105.2305756">
  <ele>1657.05</ele>
  <time>2026-08-27T18:26:23Z</time>
  <course>254.61</course>
  <speed>0.0</speed>
  <fix>3d</fix>
</trkpt>
<trkpt lat="40.072845" lon="-105.2305757">
  <ele>1656.47</ele>
  <time>2026-08-27T18:26:23Z</time>
  <course>153.67</course>
  <speed>0.01</speed>
  <fix>3d</fix>
</trkpt>
<trkpt lat="40.0728449" lon="-105.2305756">
  <ele>1656.75</ele>
  <time>2026-08-27T18:26:23Z</time>
  <course>253.05</course>
  <speed>0.0</speed>
  <fix>3d</fix>
</trkpt>
<trkpt lat="40.072845" lon="-105.2305757">
  <ele>1656.17</ele>
  <time>2026-08-27T18:26:23Z</time>
  <course>153.66</course>
  <speed>0.01</speed>
  <fix>3d</fix>
</trkpt>
<trkpt lat="40.0728449" lon="-105.2305756">
  <ele>1656.45</ele>
  <time>2026-08-27T18:26:23Z</time>
  <course>248.66</course>
  <speed>0.0</speed>
  <fix>3d</fix>
</trkpt>
<trkpt lat="40.072845" lon="-105.2305757">
  <ele>1655.86</ele>
  <time>2026-08-27T18:26:23Z</time>
  <course>153.65</course>
  <speed>0.01</speed>
  <fix>3d</fix>
</trkpt>
<trkpt lat="40.0728449" lon="-105.2305756">
  <ele>1656.15</ele>
  <time>2026-08-27T18:26:23Z</time>
  <course>251.54</course>
  <speed>0.0</speed>
  <fix>3d</fix>
</trkpt>
<trkpt lat="40.072845" lon="-105.2305757">
  <ele>1655.56</ele>
  <time>2026-08-27T18:26:23Z</time>
  <course>153.65</course>
  <speed>0.01</speed>
  <fix>3d</fix>
</trkpt>
<trkpt lat="40.0728449" lon="-105.2305756">
  <ele>1655.85</ele>
  <time>2026-08-27T18:26:23Z</time>
  <course>257.89</course>
  <speed>0.0</speed>
  <fix>3d</fix>
</trkpt>
<trkpt lat="40.072845" lon="-105.2305757">
  <ele>1655.25</ele>
  <time>2026-08-27T18:26:23Z</time>
  <course>153.64</course>
  <speed>0.01</speed>
  <fix>3d</fix>
</trkpt>
<trkpt lat="40.0728449" lon="-105.2305756">
  <ele>1655.55</ele>
  <time>2026-08-27T18:26:23Z</time>
  <course>255.34</course>
  <speed>0.0</speed>
  <fix>3d</fix>
</trkpt>
<trkpt lat="40.072845" lon="-105.2305757">
  <ele>1654.95</ele>
  <time>2026-08-27T18:26:23Z</time>
  <course>153.62</course>
  <speed>0.01</speed>
  <fix>3d</fix>
</trkpt>
<trkpt lat="40.0728449" lon="-105.2305756">
  <ele>1655.25</ele>
  <time>2026-08-27T18:26:23Z</time>
  <course>257.17</course>
  <speed>0.0</speed>
  <fix>3d</fix>
</trkpt>
<trkpt lat="40.072845" lon="-105.2305757">
  <ele>1654.65</ele>
  <time>2026-08-27T18:26:23Z</time>
  <course>153.62</course>
  <speed>0.01</speed>
  <fix>3d</fix>
</trkpt>
<trkpt lat="40.0728449" lon="-105.2305756">
  <ele>1654.95</ele>
  <time>2026-08-27T18:26:23Z</time>
  <course>267.09</course>
  <speed>0.0</speed>
  <fix>3d</fix>
</trkpt>
<trkpt lat="40.072845" lon="-105.2305757">
  <ele>1654.35</ele>
  <time>2026-08-27T18:26:23Z</time>
  <course>153.61</course>
  <speed>0.01</speed>
  <fix>3d</fix>
</trkpt>
<trkpt lat="40.0728449" lon="-105.2305756">
  <ele>1654.65</ele>
  <time>2026-08-27T18:26:23Z</time>
  <course>277.3</course>
  <speed>0.0</speed>
  <fix>3d</fix>
</trkpt>
<trkpt lat="40.072845" lon="-105.2305757">
  <ele>1654.05</ele>
  <time>2026-08-27T18:26:23Z</time>
  <course>153.59</course>
  <speed>0.01</speed>
  <fix>3d</fix>
</trkpt>
<trkpt lat="40.0728449" lon="-105.2305756">
  <ele>1654.36</ele>
  <time>2026-08-27T18:26:23Z</time>
  <course>284.94</course>
  <speed>0.0</speed>
  <fix>3d</fix>
</trkpt>
<trkpt lat="40.072845" lon="-105.2305757">
  <ele>1653.76</ele>
  <time>2026-08-27T18:26:23Z</time>
  <course>153.58</course>
  <speed>0.01</speed>
  <fix>3d</fix>
</trkpt>
<trkpt lat="40.0728449" lon="-105.2305756">
  <ele>1654.06</ele>
  <time>2026-08-27T18:26:23Z</time>
  <course>288.29</course>
  <speed>0.0</speed>
  <fix>3d</fix>
</trkpt>
<trkpt lat="40.072845" lon="-105.2305757">
  <ele>1653.46</ele>
  <time>2026-08-27T18:26:23Z</time>
  <course>153.6</course>
  <speed>0.01</speed>
  <fix>3d</fix>
</trkpt>
<trkpt lat="40.0728449" lon="-105.2305756">
  <ele>1653.76</ele>
  <time>2026-08-27T18:26:23Z</time>
  <course>289.46</course>
  <speed>0.0</speed>
  <fix>3d</fix>
</trkpt>
<trkpt lat="40.072845" lon="-105.2305757">
  <ele>1653.17</ele>
  <time>2026-08-27T18:26:23Z</time>
  <course>153.58</course>
  <speed>0.01</speed>
  <fix>3d</fix>
</trkpt>
<trkpt lat="40.0728449" lon="-105.2305756">
  <ele>1653.47</ele>
  <time>2026-08-27T18:26:23Z</time>
  <course>295.37</course>
  <speed>0.0</speed>
  <fix>3d</fix>
</trkpt>
<trkpt lat="40.072845" lon="-105.2305757">
  <ele>1652.87</ele>
  <time>2026-08-27T18:26:23Z</time>
  <course>153.6</course>
  <speed>0.01</speed>
  <fix>3d</fix>
</trkpt>
<trkpt lat="40.0728449" lon="-105.2305756">
  <ele>1653.16</ele>
  <time>2026-08-27T18:26:23Z</time>
  <course>303.86</course>
  <speed>0.0</speed>
  <fix>3d</fix>
</trkpt>
<trkpt lat="40.072845" lon="-105.2305757">
  <ele>1652.57</ele>
  <time>2026-08-27T18:26:23Z</time>
  <course>153.59</course>
  <speed>0.01</speed>
  <fix>3d</fix>
</trkpt>
<trkpt lat="40.0728449" lon="-105.2305756">
  <ele>1652.87</ele>
  <time>2026-08-27T18:26:23Z</time>
  <course>301.32</course>
  <speed>0.0</speed>
  <fix>3d</fix>
</trkpt>
<trkpt lat="40.072845" lon="-105.2305757">
  <ele>1652.27</ele>
  <time>2026-08-27T18:26:23Z</time>
  <course>153.59</course>
  <speed>0.01</speed>
  <fix>3d</fix>
</trkpt>
<trkpt lat="40.0728449" lon="-105.2305756">
  <ele>1652.58</ele>
  <time>2026-08-27T18:26:23Z</time>
  <course>290.92</course>
  <speed>0.0</speed>
  <fix>3d</fix>
</trkpt>
<trkpt lat="40.072845" lon="-105.2305757">
  <ele>1651.97</ele>
  <time>2026-08-27T18:26:23Z</time>
  <course>153.59</course>
  <speed>0.01</speed>
  <fix>3d</fix>
</trkpt>
<trkpt lat="40.0728449" lon="-105.2305756">
  <ele>1652.28</ele>
  <time>2026-08-27T18:26:23Z</time>
  <course>284.33</course>
  <speed>0.0</speed>
  <fix>3d</fix>
</trkpt>
<trkpt lat="40.072845" lon="-105.2305757">
  <ele>1651.67</ele>
  <time>2026-08-27T18:26:23Z</time>
  <course>153.59</course>
  <speed>0.01</speed>
  <fix>3d</fix>
</trkpt>
<trkpt lat="40.0728449" lon="-105.2305756">
  <ele>1651.98</ele>
  <time>2026-08-27T18:26:23Z</time>
  <course>281.73</course>
  <speed>0.0</speed>
  <fix>3d</fix>
</trkpt>
<trkpt lat="40.072845" lon="-105.2305757">
  <ele>1651.37</ele>
  <time>2026-08-27T18:26:23Z</time>
  <course>153.59</course>
  <speed>0.01</speed>
  <fix>3d</fix>
</trkpt>
<trkpt lat="40.0728449" lon="-105.2305756">
  <ele>1651.67</ele>
  <time>2026-08-27T18:26:23Z</time>
  <course>282.89</course>
  <speed>0.0</speed>
  <fix>3d</fix>
</trkpt>
<trkpt lat="40.072845" lon="-105.2305757">
  <ele>1651.07</ele>
  <time>2026-08-27T18:26:23Z</time>
  <course>153.56</course>
  <speed>0.01</speed>
  <fix>3d</fix>
</trkpt>
<trkpt lat="40.0728449" lon="-105.2305756">
  <ele>1651.38</ele>
  <time>2026-08-27T18:26:23Z</time>
  <course>283.19</course>
  <speed>0.0</speed>
  <fix>3d</fix>
</trkpt>
<trkpt lat="40.072845" lon="-105.2305757">
  <ele>1650.77</ele>
  <time>2026-08-27T18:26:23Z</time>
  <course>153.55</course>
  <speed>0.01</speed>
  <fix>3d</fix>
</trkpt>
<trkpt lat="40.0728449" lon="-105.2305756">
  <ele>1651.08</ele>
  <time>2026-08-27T18:26:23Z</time>
  <course>282.86</course>
  <speed>0.0</speed>
  <fix>3d</fix>
</trkpt>
<trkpt lat="40.072845" lon="-105.2305757">
  <ele>1650.47</ele>
  <time>2026-08-27T18:26:23Z</time>
  <course>153.56</course>
  <speed>0.01</speed>
  <fix>3d</fix>
</trkpt>
<trkpt lat="40.0728449" lon="-105.2305756">
  <ele>1650.78</ele>
  <time>2026-08-27T18:26:23Z</time>
  <course>283.58</course>
  <speed>0.0</speed>
  <fix>3d</fix>
</trkpt>
<trkpt lat="40.072845" lon="-105.2305757">
  <ele>1650.17</ele>
  <time>2026-08-27T18:26:23Z</time>
  <course>153.56</course>
  <speed>0.01</speed>
  <fix>3d</fix>
</trkpt>
<trkpt lat="40.0728449" lon="-105.2305757">
  <ele>1650.48</ele>
  <time>2026-08-27T18:26:23Z</time>
  <course>287.07</course>
  <speed>0.0</speed>
  <fix>3d</fix>
</trkpt>
<trkpt lat="40.072845" lon="-105.2305758">
  <ele>1649.87</ele>
  <time>2026-08-27T18:26:23Z</time>
  <course>153.55</course>
  <speed>0.01</speed>
  <fix>3d</fix>
</trkpt>
<trkpt lat="40.0728449" lon="-105.2305758">
  <ele>1650.17</ele>
  <time>2026-08-27T18:26:23Z</time>
  <course>293.88</course>
  <speed>0.0</speed>
  <fix>3d</fix>
</trkpt>
<trkpt lat="40.072845" lon="-105.2305758">
  <ele>1649.57</ele>
  <time>2026-08-27T18:26:23Z</time>
  <course>153.56</course>
  <speed>0.01</speed>
  <fix>3d</fix>
</trkpt>
<trkpt lat="40.0728449" lon="-105.2305758">
  <ele>1649.88</ele>
  <time>2026-08-27T18:26:23Z</time>
  <course>298.04</course>
  <speed>0.0</speed>
  <fix>3d</fix>
</trkpt>
<trkpt lat="40.072845" lon="-105.2305758">
  <ele>1649.27</ele>
  <time>2026-08-27T18:26:23Z</time>
  <course>153.55</course>
  <speed>0.01</speed>
  <fix>3d</fix>
</trkpt>
<trkpt lat="40.0728449" lon="-105.2305758">
  <ele>1649.58</ele>
  <time>2026-08-27T18:26:23Z</time>
  <course>304.26</course>
  <speed>0.0</speed>
  <fix>3d</fix>
</trkpt>
<trkpt lat="40.072845" lon="-105.2305758">
  <ele>1648.97</ele>
  <time>2026-08-27T18:26:23Z</time>
  <course>153.54</course>
  <speed>0.01</speed>
  <fix>3d</fix>
</trkpt>
<trkpt lat="40.0728449" lon="-105.2305758">
  <ele>1649.28</ele>
  <time>2026-08-27T18:26:23Z</time>
  <course>318.21</course>
  <speed>0.0</speed>
  <fix>3d</fix>
</trkpt>
<trkpt lat="40.072845" lon="-105.2305758">
  <ele>1648.67</ele>
  <time>2026-08-27T18:26:23Z</time>
  <course>153.52</course>
  <speed>0.01</speed>
  <fix>3d</fix>
</trkpt>
<trkpt lat="40.0728449" lon="-105.2305758">
  <ele>1648.98</ele>
  <time>2026-08-27T18:26:23Z</time>
  <course>340.27</course>
  <speed>0.0</speed>
  <fix>3d</fix>
</trkpt>
<trkpt lat="40.072845" lon="-105.2305758">
  <ele>1648.36</ele>
  <time>2026-08-27T18:26:23Z</time>
  <course>153.51</course>
  <speed>0.01</speed>
  <fix>3d</fix>
</trkpt>
<trkpt lat="40.0728449" lon="-105.2305758">
  <ele>1648.67</ele>
  <time>2026-08-27T18:26:23Z</time>
  <course>24.97</course>
  <speed>0.0</speed>
  <fix>3d</fix>
</trkpt>
<trkpt lat="40.072845" lon="-105.2305758">
  <ele>1648.06</ele>
  <time>2026-08-27T18:26:23Z</time>
  <course>153.52</course>
  <speed>0.01</speed>
  <fix>3d</fix>
</trkpt>
<trkpt lat="40.0728449" lon="-105.2305758">
  <ele>1648.38</ele>
  <time>2026-08-27T18:26:23Z</time>
  <course>55.22</course>
  <speed>0.0</speed>
  <fix>3d</fix>
</trkpt>
<trkpt lat="40.072845" lon="-105.2305758">
  <ele>1647.77</ele>
  <time>2026-08-27T18:26:23Z</time>
  <course>153.52</course>
  <speed>0.01</speed>
  <fix>3d</fix>
</trkpt>
<trkpt lat="40.0728449" lon="-105.2305758">
  <ele>1648.08</ele>
  <time>2026-08-27T18:26:23Z</time>
  <course>66.32</course>
  <speed>0.0</speed>
  <fix>3d</fix>
</trkpt>
<trkpt lat="40.072845" lon="-105.2305758">
  <ele>1647.47</ele>
  <time>2026-08-27T18:26:23Z</time>
  <course>153.51</course>
  <speed>0.01</speed>
  <fix>3d</fix>
</trkpt>
<trkpt lat="40.0728449" lon="-105.2305758">
  <ele>1647.78</ele>
  <time>2026-08-27T18:26:23Z</time>
  <course>70.44</course>
  <speed>0.0</speed>
  <fix>3d</fix>
</trkpt>
<trkpt lat="40.072845" lon="-105.2305758">
  <ele>1647.17</ele>
  <time>2026-08-27T18:26:23Z</time>
  <course>153.5</course>
  <speed>0.01</speed>
  <fix>3d</fix>
</trkpt>
<trkpt lat="40.0728449" lon="-105.2305758">
  <ele>1647.48</ele>
  <time>2026-08-27T18:26:23Z</time>
  <course>74.13</course>
  <speed>0.0</speed>
  <fix>3d</fix>
</trkpt>
<trkpt lat="40.072845" lon="-105.2305758">
  <ele>1646.87</ele>
  <time>2026-08-27T18:26:23Z</time>
  <course>153.51</course>
  <speed>0.01</speed>
  <fix>3d</fix>
</trkpt>
<trkpt lat="40.0728449" lon="-105.2305758">
  <ele>1647.17</ele>
  <time>2026-08-27T18:26:23Z</time>
  <course>77.26</course>
  <speed>0.0</speed>
  <fix>3d</fix>
</trkpt>
<trkpt lat="40.072845" lon="-105.2305758">
  <ele>1646.58</ele>
  <time>2026-08-27T18:26:23Z</time>
  <course>153.51</course>
  <speed>0.01</speed>
  <fix>3d</fix>
</trkpt>
<trkpt lat="40.0728449" lon="-105.2305758">
  <ele>1646.88</ele>
  <time>2026-08-27T18:26:23Z</time>
  <course>78.85</course>
  <speed>0.0</speed>
  <fix>3d</fix>
</trkpt>
<trkpt lat="40.072845" lon="-105.2305758">
  <ele>1646.28</ele>
  <time>2026-08-27T18:26:23Z</time>
  <course>153.51</course>
  <speed>0.01</speed>
  <fix>3d</fix>
</trkpt>
<trkpt lat="40.0728449" lon="-105.2305758">
  <ele>1646.58</ele>
  <time>2026-08-27T18:26:23Z</time>
  <course>79.97</course>
  <speed>0.0</speed>
  <fix>3d</fix>
</trkpt>
<trkpt lat="40.072845" lon="-105.2305758">
  <ele>1645.98</ele>
  <time>2026-08-27T18:26:23Z</time>
  <course>153.51</course>
  <speed>0.01</speed>
  <fix>3d</fix>
</trkpt>
<trkpt lat="40.0728449" lon="-105.2305758">
  <ele>1646.28</ele>
  <time>2026-08-27T18:26:23Z</time>
  <course>80.59</course>
  <speed>0.0</speed>
  <fix>3d</fix>
</trkpt>
<trkpt lat="40.072845" lon="-105.2305758">
  <ele>1645.68</ele>
  <time>2026-08-27T18:26:23Z</time>
  <course>153.51</course>
  <speed>0.01</speed>
  <fix>3d</fix>
</trkpt>
<trkpt lat="40.0728449" lon="-105.2305757">
  <ele>1645.98</ele>
  <time>2026-08-27T18:26:23Z</time>
  <course>81.59</course>
  <speed>0.0</speed>
  <fix>3d</fix>
</trkpt>
<trkpt lat="40.072845" lon="-105.2305758">
  <ele>1645.38</ele>
  <time>2026-08-27T18:26:23Z</time>
  <course>153.51</course>
  <speed>0.01</speed>
  <fix>3d</fix>
</trkpt>
<trkpt lat="40.0728449" lon="-105.2305756">
  <ele>1645.67</ele>
  <time>2026-08-27T18:26:23Z</time>
  <course>82.45</course>
  <speed>0.0</speed>
  <fix>3d</fix>
</trkpt>
<trkpt lat="40.072845" lon="-105.2305758">
  <ele>1645.08</ele>
  <time>2026-08-27T18:26:23Z</time>
  <course>153.51</course>
  <speed>0.01</speed>
  <fix>3d</fix>
</trkpt>
<trkpt lat="40.0728449" lon="-105.2305756">
  <ele>1645.38</ele>
  <time>2026-08-27T18:26:23Z</time>
  <course>81.87</course>
  <speed>0.0</speed>
  <fix>3d</fix>
</trkpt>
<trkpt lat="40.072845" lon="-105.2305758">
  <ele>1644.78</ele>
  <time>2026-08-27T18:26:23Z</time>
  <course>153.5</course>
  <speed>0.01</speed>
  <fix>3d</fix>
</trkpt>
<trkpt lat="40.0728449" lon="-105.2305756">
  <ele>1645.08</ele>
  <time>2026-08-27T18:26:23Z</time>
  <course>82.06</course>
  <speed>0.0</speed>
  <fix>3d</fix>
</trkpt>
<trkpt lat="40.072845" lon="-105.2305758">
  <ele>1644.48</ele>
  <time>2026-08-27T18:26:23Z</time>
  <course>153.5</course>
  <speed>0.01</speed>
  <fix>3d</fix>
</trkpt>
<trkpt lat="40.0728449" lon="-105.2305756">
  <ele>1644.77</ele>
  <time>2026-08-27T18:26:23Z</time>
  <course>83.57</course>
  <speed>0.0</speed>
  <fix>3d</fix>
</trkpt>
<trkpt lat="40.072845" lon="-105.2305758">
  <ele>1644.18</ele>
  <time>2026-08-27T18:26:23Z</time>
  <course>153.49</course>
  <speed>0.01</speed>
  <fix>3d</fix>
</trkpt>
<trkpt lat="40.0728449" lon="-105.2305756">
  <ele>1644.47</ele>
  <time>2026-08-27T18:26:23Z</time>
  <course>83.89</course>
  <speed>0.0</speed>
  <fix>3d</fix>
</trkpt>
<trkpt lat="40.072845" lon="-105.2305758">
  <ele>1643.88</ele>
  <time>2026-08-27T18:26:23Z</time>
  <course>153.48</course>
  <speed>0.01</speed>
  <fix>3d</fix>
</trkpt>
<trkpt lat="40.0728449" lon="-105.2305756">
  <ele>1644.16</ele>
  <time>2026-08-27T18:26:23Z</time>
  <course>81.04</course>
  <speed>0.0</speed>
  <fix>3d</fix>
</trkpt>
<trkpt lat="40.072845" lon="-105.2305758">
  <ele>1643.58</ele>
  <time>2026-08-27T18:26:23Z</time>
  <course>153.48</course>
  <speed>0.01</speed>
  <fix>3d</fix>
</trkpt>
<trkpt lat="40.0728449" lon="-105.2305756">
  <ele>1643.86</ele>
  <time>2026-08-27T18:26:23Z</time>
  <course>77.94</course>
  <speed>0.0</speed>
  <fix>3d</fix>
</trkpt>
<trkpt lat="40.072845" lon="-105.2305758">
  <ele>1643.27</ele>
  <time>2026-08-27T18:26:23Z</time>
  <course>153.47</course>
  <speed>0.01</speed>
  <fix>3d</fix>
</trkpt>
<trkpt lat="40.0728449" lon="-105.2305756">
  <ele>1643.56</ele>
  <time>2026-08-27T18:26:23Z</time>
  <course>77.2</course>
  <speed>0.0</speed>
  <fix>3d</fix>
</trkpt>
<trkpt lat="40.072845" lon="-105.2305758">
  <ele>1642.97</ele>
  <time>2026-08-27T18:26:23Z</time>
  <course>153.46</course>
  <speed>0.01</speed>
  <fix>3d</fix>
</trkpt>
<trkpt lat="40.0728449" lon="-105.2305756">
  <ele>1643.26</ele>
  <time>2026-08-27T18:26:24Z</time>
  <course>71.27</course>
  <speed>0.0</speed>
  <fix>3d</fix>
</trkpt>
<trkpt lat="40.072845" lon="-105.2305758">
  <ele>1642.66</ele>
  <time>2026-08-27T18:26:24Z</time>
  <course>153.46</course>
  <speed>0.01</speed>
  <fix>3d</fix>
</trkpt>
<trkpt lat="40.0728449" lon="-105.2305756">
  <ele>1642.96</ele>
  <time>2026-08-27T18:26:24Z</time>
  <course>59.61</course>
  <speed>0.0</speed>
  <fix>3d</fix>
</trkpt>
<trkpt lat="40.072845" lon="-105.2305758">
  <ele>1642.36</ele>
  <time>2026-08-27T18:26:24Z</time>
  <course>153.47</course>
  <speed>0.01</speed>
  <fix>3d</fix>
</trkpt>
<trkpt lat="40.0728449" lon="-105.2305756">
  <ele>1642.65</ele>
  <time>2026-08-27T18:26:24Z</time>
  <course>36.14</course>
  <speed>0.0</speed>
  <fix>3d</fix>
</trkpt>
<trkpt lat="40.072845" lon="-105.2305758">
  <ele>1642.07</ele>
  <time>2026-08-27T18:26:24Z</time>
  <course>153.46</course>
  <speed>0.01</speed>
  <fix>3d</fix>
</trkpt>
<trkpt lat="40.0728449" lon="-105.2305756">
  <ele>1642.35</ele>
  <time>2026-08-27T18:26:24Z</time>
  <course>1.53</course>
  <speed>0.0</speed>
  <fix>3d</fix>
</trkpt>
<trkpt lat="40.072845" lon="-105.2305758">
  <ele>1641.77</ele>
  <time>2026-08-27T18:26:24Z</time>
  <course>153.45</course>
  <speed>0.01</speed>
  <fix>3d</fix>
</trkpt>
<trkpt lat="40.0728449" lon="-105.2305756">
  <ele>1642.05</ele>
  <time>2026-08-27T18:26:24Z</time>
  <course>337.38</course>
  <speed>0.0</speed>
  <fix>3d</fix>
</trkpt>
<trkpt lat="40.072845" lon="-105.2305758">
  <ele>1641.46</ele>
  <time>2026-08-27T18:26:24Z</time>
  <course>153.44</course>
  <speed>0.01</speed>
  <fix>3d</fix>
</trkpt>
<trkpt lat="40.0728449" lon="-105.2305756">
  <ele>1641.75</ele>
  <time>2026-08-27T18:26:24Z</time>
  <course>322.87</course>
  <speed>0.0</speed>
  <fix>3d</fix>
</trkpt>
<trkpt lat="40.072845" lon="-105.2305758">
  <ele>1641.16</ele>
  <time>2026-08-27T18:26:24Z</time>
  <course>153.44</course>
  <speed>0.01</speed>
  <fix>3d</fix>
</trkpt>
<trkpt lat="40.0728449" lon="-105.2305756">
  <ele>1641.46</ele>
  <time>2026-08-27T18:26:24Z</time>
  <course>327.33</course>
  <speed>0.0</speed>
  <fix>3d</fix>
</trkpt>
<trkpt lat="40.072845" lon="-105.2305758">
  <ele>1640.86</ele>
  <time>2026-08-27T18:26:24Z</time>
  <course>153.43</course>
  <speed>0.01</speed>
  <fix>3d</fix>
</trkpt>
<trkpt lat="40.0728449" lon="-105.2305756">
  <ele>1641.16</ele>
  <time>2026-08-27T18:26:24Z</time>
  <course>331.52</course>
  <speed>0.0</speed>
  <fix>3d</fix>
</trkpt>
<trkpt lat="40.072845" lon="-105.2305758">
  <ele>1640.56</ele>
  <time>2026-08-27T18:26:24Z</time>
  <course>153.44</course>
  <speed>0.01</speed>
  <fix>3d</fix>
</trkpt>
<trkpt lat="40.0728449" lon="-105.2305756">
  <ele>1640.86</ele>
  <time>2026-08-27T18:26:24Z</time>
  <course>330.25</course>
  <speed>0.0</speed>
  <fix>3d</fix>
</trkpt>
<trkpt lat="40.072845" lon="-105.2305758">
  <ele>1640.26</ele>
  <time>2026-08-27T18:26:24Z</time>
  <course>153.43</course>
  <speed>0.01</speed>
  <fix>3d</fix>
</trkpt>
<trkpt lat="40.0728449" lon="-105.2305756">
  <ele>1640.56</ele>
  <time>2026-08-27T18:26:24Z</time>
  <course>324.98</course>
  <speed>0.0</speed>
  <fix>3d</fix>
</trkpt>
<trkpt lat="40.072845" lon="-105.2305758">
  <ele>1639.96</ele>
  <time>2026-08-27T18:26:24Z</time>
  <course>153.42</course>
  <speed>0.01</speed>
  <fix>3d</fix>
</trkpt>
<trkpt lat="40.0728449" lon="-105.2305756">
  <ele>1640.26</ele>
  <time>2026-08-27T18:26:24Z</time>
  <course>315.56</course>
  <speed>0.0</speed>
  <fix>3d</fix>
</trkpt>
<trkpt lat="40.072845" lon="-105.2305758">
  <ele>1639.66</ele>
  <time>2026-08-27T18:26:24Z</time>
  <course>153.43</course>
  <speed>0.02</speed>
  <fix>3d</fix>
</trkpt>
<trkpt lat="40.0728449" lon="-105.2305756">
  <ele>1639.96</ele>
  <time>2026-08-27T18:26:24Z</time>
  <course>314.36</course>
  <speed>0.0</speed>
  <fix>3d</fix>
</trkpt>
<trkpt lat="40.072845" lon="-105.2305758">
  <ele>1639.37</ele>
  <time>2026-08-27T18:26:24Z</time>
  <course>153.43</course>
  <speed>0.01</speed>
  <fix>3d</fix>
</trkpt>
<trkpt lat="40.0728449" lon="-105.2305756">
  <ele>1639.66</ele>
  <time>2026-08-27T18:26:24Z</time>
  <course>313.72</course>
  <speed>0.0</speed>
  <fix>3d</fix>
</trkpt>
<trkpt lat="40.072845" lon="-105.2305758">
  <ele>1639.07</ele>
  <time>2026-08-27T18:26:24Z</time>
  <course>153.42</course>
  <speed>0.01</speed>
  <fix>3d</fix>
</trkpt>
<trkpt lat="40.0728449" lon="-105.2305756">
  <ele>1639.36</ele>
  <time>2026-08-27T18:26:24Z</time>
  <course>310.64</course>
  <speed>0.0</speed>
  <fix>3d</fix>
</trkpt>
<trkpt lat="40.072845" lon="-105.2305758">
  <ele>1638.76</ele>
  <time>2026-08-27T18:26:24Z</time>
  <course>153.43</course>
  <speed>0.01</speed>
  <fix>3d</fix>
</trkpt>
<trkpt lat="40.0728449" lon="-105.2305756">
  <ele>1639.07</ele>
  <time>2026-08-27T18:26:24Z</time>
  <course>312.02</course>
  <speed>0.0</speed>
  <fix>3d</fix>
</trkpt>
<trkpt lat="40.072845" lon="-105.2305758">
  <ele>1638.46</ele>
  <time>2026-08-27T18:26:24Z</time>
  <course>153.42</course>
  <speed>0.01</speed>
  <fix>3d</fix>
</trkpt>
<trkpt lat="40.0728449" lon="-105.2305756">
  <ele>1638.77</ele>
  <time>2026-08-27T18:26:24Z</time>
  <course>306.4</course>
  <speed>0.0</speed>
  <fix>3d</fix>
</trkpt>
<trkpt lat="40.072845" lon="-105.2305758">
  <ele>1638.16</ele>
  <time>2026-08-27T18:26:24Z</time>
  <course>153.43</course>
  <speed>0.01</speed>
  <fix>3d</fix>
</trkpt>
<trkpt lat="40.0728449" lon="-105.2305756">
  <ele>1638.47</ele>
  <time>2026-08-27T18:26:24Z</time>
  <course>300.11</course>
  <speed>0.0</speed>
  <fix>3d</fix>
</trkpt>
<trkpt lat="40.072845" lon="-105.2305758">
  <ele>1637.86</ele>
  <time>2026-08-27T18:26:24Z</time>
  <course>153.41</course>
  <speed>0.01</speed>
  <fix>3d</fix>
</trkpt>
<trkpt lat="40.0728449" lon="-105.2305756">
  <ele>1638.16</ele>
  <time>2026-08-27T18:26:24Z</time>
  <course>296.04</course>
  <speed>0.0</speed>
  <fix>3d</fix>
</trkpt>
<trkpt lat="40.072845" lon="-105.2305758">
  <ele>1637.56</ele>
  <time>2026-08-27T18:26:24Z</time>
  <course>153.41</course>
  <speed>0.01</speed>
  <fix>3d</fix>
</trkpt>
<trkpt lat="40.0728449" lon="-105.2305756">
  <ele>1637.87</ele>
  <time>2026-08-27T18:26:24Z</time>
  <course>294.62</course>
  <speed>0.0</speed>
  <fix>3d</fix>
</trkpt>
<trkpt lat="40.072845" lon="-105.2305758">
  <ele>1637.27</ele>
  <time>2026-08-27T18:26:24Z</time>
  <course>153.42</course>
  <speed>0.01</speed>
  <fix>3d</fix>
</trkpt>
<trkpt lat="40.0728449" lon="-105.2305756">
  <ele>1637.57</ele>
  <time>2026-08-27T18:26:24Z</time>
  <course>296.06</course>
  <speed>0.0</speed>
  <fix>3d</fix>
</trkpt>
<trkpt lat="40.072845" lon="-105.2305758">
  <ele>1636.97</ele>
  <time>2026-08-27T18:26:24Z</time>
  <course>153.41</course>
  <speed>0.01</speed>
  <fix>3d</fix>
</trkpt>
<trkpt lat="40.0728449" lon="-105.2305756">
  <ele>1637.27</ele>
  <time>2026-08-27T18:26:24Z</time>
  <course>291.96</course>
  <speed>0.0</speed>
  <fix>3d</fix>
</trkpt>
<trkpt lat="40.072845" lon="-105.2305758">
  <ele>1636.68</ele>
  <time>2026-08-27T18:26:24Z</time>
  <course>153.42</course>
  <speed>0.01</speed>
  <fix>3d</fix>
</trkpt>
<trkpt lat="40.0728449" lon="-105.2305756">
  <ele>1636.98</ele>
  <time>2026-08-27T18:26:24Z</time>
  <course>287.26</course>
  <speed>0.0</speed>
  <fix>3d</fix>
</trkpt>
<trkpt lat="40.072845" lon="-105.2305758">
  <ele>1636.38</ele>
  <time>2026-08-27T18:26:24Z</time>
  <course>153.42</course>
  <speed>0.01</speed>
  <fix>3d</fix>
</trkpt>
<trkpt lat="40.0728449" lon="-105.2305756">
  <ele>1636.67</ele>
  <time>2026-08-27T18:26:24Z</time>
  <course>286.18</course>
  <speed>0.0</speed>
  <fix>3d</fix>
</trkpt>
<trkpt lat="40.072845" lon="-105.2305758">
  <ele>1636.07</ele>
  <time>2026-08-27T18:26:24Z</time>
  <course>153.43</course>
  <speed>0.01</speed>
  <fix>3d</fix>
</trkpt>
<trkpt lat="40.0728449" lon="-105.2305756">
  <ele>1636.38</ele>
  <time>2026-08-27T18:26:24Z</time>
  <course>285.64</course>
  <speed>0.0</speed>
  <fix>3d</fix>
</trkpt>
<trkpt lat="40.072845" lon="-105.2305758">
  <ele>1635.77</ele>
  <time>2026-08-27T18:26:24Z</time>
  <course>153.42</course>
  <speed>0.01</speed>
  <fix>3d</fix>
</trkpt>
<trkpt lat="40.0728449" lon="-105.2305756">
  <ele>1636.08</ele>
  <time>2026-08-27T18:26:24Z</time>
  <course>282.88</course>
  <speed>0.0</speed>
  <fix>3d</fix>
</trkpt>
<trkpt lat="40.072845" lon="-105.2305758">
  <ele>1635.47</ele>
  <time>2026-08-27T18:26:24Z</time>
  <course>153.41</course>
  <speed>0.01</speed>
  <fix>3d</fix>
</trkpt>
<trkpt lat="40.0728449" lon="-105.2305756">
  <ele>1635.78</ele>
  <time>2026-08-27T18:26:24Z</time>
  <course>280.42</course>
  <speed>0.0</speed>
  <fix>3d</fix>
</trkpt>
<trkpt lat="40.072845" lon="-105.2305758">
  <ele>1635.17</ele>
  <time>2026-08-27T18:26:24Z</time>
  <course>153.4</course>
  <speed>0.01</speed>
  <fix>3d</fix>
</trkpt>
<trkpt lat="40.0728449" lon="-105.2305756">
  <ele>1635.47</ele>
  <time>2026-08-27T18:26:24Z</time>
  <course>280.88</course>
  <speed>0.0</speed>
  <fix>3d</fix>
</trkpt>
<trkpt lat="40.072845" lon="-105.2305758">
  <ele>1634.88</ele>
  <time>2026-08-27T18:26:24Z</time>
  <course>153.4</course>
  <speed>0.01</speed>
  <fix>3d</fix>
</trkpt>
<trkpt lat="40.0728449" lon="-105.2305756">
  <ele>1635.16</ele>
  <time>2026-08-27T18:26:24Z</time>
  <course>282.37</course>
  <speed>0.0</speed>
  <fix>3d</fix>
</trkpt>
<trkpt lat="40.072845" lon="-105.2305758">
  <ele>1634.58</ele>
  <time>2026-08-27T18:26:24Z</time>
  <course>153.42</course>
  <speed>0.01</speed>
  <fix>3d</fix>
</trkpt>
<trkpt lat="40.0728449" lon="-105.2305756">
  <ele>1634.87</ele>
  <time>2026-08-27T18:26:24Z</time>
  <course>280.86</course>
  <speed>0.0</speed>
  <fix>3d</fix>
</trkpt>
<trkpt lat="40.072845" lon="-105.2305758">
  <ele>1634.28</ele>
  <time>2026-08-27T18:26:24Z</time>
  <course>153.43</course>
  <speed>0.01</speed>
  <fix>3d</fix>
</trkpt>
<trkpt lat="40.0728449" lon="-105.2305756">
  <ele>1634.57</ele>
  <time>2026-08-27T18:26:24Z</time>
  <course>277.34</course>
  <speed>0.0</speed>
  <fix>3d</fix>
</trkpt>
<trkpt lat="40.072845" lon="-105.2305758">
  <ele>1633.98</ele>
  <time>2026-08-27T18:26:24Z</time>
  <course>153.42</course>
  <speed>0.01</speed>
  <fix>3d</fix>
</trkpt>
<trkpt lat="40.0728449" lon="-105.2305756">
  <ele>1634.27</ele>
  <time>2026-08-27T18:26:24Z</time>
  <course>278.95</course>
  <speed>0.0</speed>
  <fix>3d</fix>
</trkpt>
<trkpt lat="40.072845" lon="-105.2305758">
  <ele>1633.68</ele>
  <time>2026-08-27T18:26:24Z</time>
  <course>153.42</course>
  <speed>0.01</speed>
  <fix>3d</fix>
</trkpt>
<trkpt lat="40.0728449" lon="-105.2305756">
  <ele>1633.97</ele>
  <time>2026-08-27T18:26:24Z</time>
  <course>277.42</course>
  <speed>0.0</speed>
  <fix>3d</fix>
</trkpt>
<trkpt lat="40.072845" lon="-105.2305758">
  <ele>1633.38</ele>
  <time>2026-08-27T18:26:24Z</time>
  <course>153.41</course>
  <speed>0.01</speed>
  <fix>3d</fix>
</trkpt>
<trkpt lat="40.0728449" lon="-105.2305756">
  <ele>1633.66</ele>
  <time>2026-08-27T18:26:24Z</time>
  <course>276.26</course>
  <speed>0.0</speed>
  <fix>3d</fix>
</trkpt>
<trkpt lat="40.072845" lon="-105.2305758">
  <ele>1633.08</ele>
  <time>2026-08-27T18:26:24Z</time>
  <course>153.41</course>
  <speed>0.01</speed>
  <fix>3d</fix>
</trkpt>
<trkpt lat="40.0728449" lon="-105.2305756">
  <ele>1633.36</ele>
  <time>2026-08-27T18:26:24Z</time>
  <course>281.36</course>
  <speed>0.0</speed>
  <fix>3d</fix>
</trkpt>
<trkpt lat="40.072845" lon="-105.2305758">
  <ele>1632.77</ele>
  <time>2026-08-27T18:26:24Z</time>
  <course>153.42</course>
  <speed>0.01</speed>
  <fix>3d</fix>
</trkpt>
<trkpt lat="40.0728449" lon="-105.2305756">
  <ele>1633.06</ele>
  <time>2026-08-27T18:26:24Z</time>
  <course>283.55</course>
  <speed>0.0</speed>
  <fix>3d</fix>
</trkpt>
<trkpt lat="40.072845" lon="-105.2305758">
  <ele>1632.46</ele>
  <time>2026-08-27T18:26:24Z</time>
  <course>153.39</course>
  <speed>0.01</speed>
  <fix>3d</fix>
</trkpt>
<trkpt lat="40.0728449" lon="-105.2305756">
  <ele>1632.75</ele>
  <time>2026-08-27T18:26:24Z</time>
  <course>277.29</course>
  <speed>0.0</speed>
  <fix>3d</fix>
</trkpt>
<trkpt lat="40.072845" lon="-105.2305758">
  <ele>1632.16</ele>
  <time>2026-08-27T18:26:24Z</time>
  <course>153.38</course>
  <speed>0.01</speed>
  <fix>3d</fix>
</trkpt>
<trkpt lat="40.0728449" lon="-105.2305756">
  <ele>1632.45</ele>
  <time>2026-08-27T18:26:24Z</time>
  <course>272.29</course>
  <speed>0.0</speed>
  <fix>3d</fix>
</trkpt>
<trkpt lat="40.072845" lon="-105.2305758">
  <ele>1631.85</ele>
  <time>2026-08-27T18:26:24Z</time>
  <course>153.38</course>
  <speed>0.01</speed>
  <fix>3d</fix>
</trkpt>
<trkpt lat="40.0728449" lon="-105.2305756">
  <ele>1632.15</ele>
  <time>2026-08-27T18:26:24Z</time>
  <course>279.23</course>
  <speed>0.0</speed>
  <fix>3d</fix>
</trkpt>
<trkpt lat="40.072845" lon="-105.2305758">
  <ele>1631.55</ele>
  <time>2026-08-27T18:26:24Z</time>
  <course>153.37</course>
  <speed>0.01</speed>
  <fix>3d</fix>
</trkpt>
<trkpt lat="40.0728449" lon="-105.2305756">
  <ele>1631.85</ele>
  <time>2026-08-27T18:26:24Z</time>
  <course>287.05</course>
  <speed>0.0</speed>
  <fix>3d</fix>
</trkpt>
<trkpt lat="40.072845" lon="-105.2305758">
  <ele>1631.25</ele>
  <time>2026-08-27T18:26:24Z</time>
  <course>153.37</course>
  <speed>0.01</speed>
  <fix>3d</fix>
</trkpt>
<trkpt lat="40.0728449" lon="-105.2305756">
  <ele>1631.55</ele>
  <time>2026-08-27T18:26:24Z</time>
  <course>292.38</course>
  <speed>0.0</speed>
  <fix>3d</fix>
</trkpt>
<trkpt lat="40.072845" lon="-105.2305758">
  <ele>1630.95</ele>
  <time>2026-08-27T18:26:24Z</time>
  <course>153.32</course>
  <speed>0.01</speed>
  <fix>3d</fix>
</trkpt>
<trkpt lat="40.0728449" lon="-105.2305756">
  <ele>1631.25</ele>
  <time>2026-08-27T18:26:24Z</time>
  <course>294.98</course>
  <speed>0.0</speed>
  <fix>3d</fix>
</trkpt>
<trkpt lat="40.072845" lon="-105.2305758">
  <ele>1630.66</ele>
  <time>2026-08-27T18:26:24Z</time>
  <course>153.33</course>
  <speed>0.01</speed>
  <fix>3d</fix>
</trkpt>
<trkpt lat="40.0728449" lon="-105.2305756">
  <ele>1630.96</ele>
  <time>2026-08-27T18:26:24Z</time>
  <course>296.09</course>
  <speed>0.0</speed>
  <fix>3d</fix>
</trkpt>
<trkpt lat="40.072845" lon="-105.2305758">
  <ele>1630.37</ele>
  <time>2026-08-27T18:26:24Z</time>
  <course>153.37</course>
  <speed>0.01</speed>
  <fix>3d</fix>
</trkpt>
<trkpt lat="40.0728449" lon="-105.2305756">
  <ele>1630.66</ele>
  <time>2026-08-27T18:26:24Z</time>
  <course>302.98</course>
  <speed>0.0</speed>
  <fix>3d</fix>
</trkpt>
<trkpt lat="40.072845" lon="-105.2305758">
  <ele>1630.07</ele>
  <time>2026-08-27T18:26:24Z</time>
  <course>153.37</course>
  <speed>0.01</speed>
  <fix>3d</fix>
</trkpt>
<trkpt lat="40.0728449" lon="-105.2305756">
  <ele>1630.37</ele>
  <time>2026-08-27T18:26:24Z</time>
  <course>303.86</course>
  <speed>0.0</speed>
  <fix>3d</fix>
</trkpt>
<trkpt lat="40.072845" lon="-105.2305758">
  <ele>1629.77</ele>
  <time>2026-08-27T18:26:24Z</time>
  <course>153.39</course>
  <speed>0.01</speed>
  <fix>3d</fix>
</trkpt>
<trkpt lat="40.0728449" lon="-105.2305756">
  <ele>1630.07</ele>
  <time>2026-08-27T18:26:24Z</time>
  <course>304.55</course>
  <speed>0.0</speed>
  <fix>3d</fix>
</trkpt>
<trkpt lat="40.072845" lon="-105.2305758">
  <ele>1629.48</ele>
  <time>2026-08-27T18:26:24Z</time>
  <course>153.4</course>
  <speed>0.01</speed>
  <fix>3d</fix>
</trkpt>
<trkpt lat="40.0728449" lon="-105.2305756">
  <ele>1629.77</ele>
  <time>2026-08-27T18:26:24Z</time>
  <course>303.24</course>
  <speed>0.0</speed>
  <fix>3d</fix>
</trkpt>
<trkpt lat="40.072845" lon="-105.2305758">
  <ele>1629.17</ele>
  <time>2026-08-27T18:26:24Z</time>
  <course>153.39</course>
  <speed>0.01</speed>
  <fix>3d</fix>
</trkpt>
<trkpt lat="40.0728449" lon="-105.2305756">
  <ele>1629.47</ele>
  <time>2026-08-27T18:26:24Z</time>
  <course>294.41</course>
  <speed>0.0</speed>
  <fix>3d</fix>
</trkpt>
<trkpt lat="40.072845" lon="-105.2305758">
  <ele>1628.87</ele>
  <time>2026-08-27T18:26:24Z</time>
  <course>153.39</course>
  <speed>0.01</speed>
  <fix>3d</fix>
</trkpt>
<trkpt lat="40.0728449" lon="-105.2305756">
  <ele>1629.16</ele>
  <time>2026-08-27T18:26:24Z</time>
  <course>291.37</course>
  <speed>0.0</speed>
  <fix>3d</fix>
</trkpt>
<trkpt lat="40.072845" lon="-105.2305758">
  <ele>1628.57</ele>
  <time>2026-08-27T18:26:24Z</time>
  <course>153.39</course>
  <speed>0.01</speed>
  <fix>3d</fix>
</trkpt>
<trkpt lat="40.0728449" lon="-105.2305756">
  <ele>1628.87</ele>
  <time>2026-08-27T18:26:24Z</time>
  <course>286.29</course>
  <speed>0.0</speed>
  <fix>3d</fix>
</trkpt>
<trkpt lat="40.072845" lon="-105.2305758">
  <ele>1628.28</ele>
  <time>2026-08-27T18:26:24Z</time>
  <course>153.38</course>
  <speed>0.01</speed>
  <fix>3d</fix>
</trkpt>
<trkpt lat="40.0728449" lon="-105.2305756">
  <ele>1628.57</ele>
  <time>2026-08-27T18:26:24Z</time>
  <course>277.11</course>
  <speed>0.0</speed>
  <fix>3d</fix>
</trkpt>
<trkpt lat="40.072845" lon="-105.2305758">
  <ele>1627.98</ele>
  <time>2026-08-27T18:26:24Z</time>
  <course>153.38</course>
  <speed>0.01</speed>
  <fix>3d</fix>
</trkpt>
<trkpt lat="40.0728449" lon="-105.2305757">
  <ele>1628.27</ele>
  <time>2026-08-27T18:26:24Z</time>
  <course>272.61</course>
  <speed>0.0</speed>
  <fix>3d</fix>
</trkpt>
<trkpt lat="40.072845" lon="-105.2305758">
  <ele>1627.68</ele>
  <time>2026-08-27T18:26:24Z</time>
  <course>153.38</course>
  <speed>0.01</speed>
  <fix>3d</fix>
</trkpt>
<trkpt lat="40.0728449" lon="-105.2305758">
  <ele>1627.97</ele>
  <time>2026-08-27T18:26:24Z</time>
  <course>275.0</course>
  <speed>0.0</speed>
  <fix>3d</fix>
</trkpt>
<trkpt lat="40.072845" lon="-105.2305758">
  <ele>1627.39</ele>
  <time>2026-08-27T18:26:24Z</time>
  <course>153.4</course>
  <speed>0.01</speed>
  <fix>3d</fix>
</trkpt>
<trkpt lat="40.0728449" lon="-105.2305758">
  <ele>1627.66</ele>
  <time>2026-08-27T18:26:24Z</time>
  <course>276.88</course>
  <speed>0.0</speed>
  <fix>3d</fix>
</trkpt>
<trkpt lat="40.072845" lon="-105.2305758">
  <ele>1627.09</ele>
  <time>2026-08-27T18:26:24Z</time>
  <course>153.4</course>
  <speed>0.01</speed>
  <fix>3d</fix>
</trkpt>
<trkpt lat="40.0728449" lon="-105.2305758">
  <ele>1627.37</ele>
  <time>2026-08-27T18:26:24Z</time>
  <course>275.34</course>
  <speed>0.0</speed>
  <fix>3d</fix>
</trkpt>
<trkpt lat="40.072845" lon="-105.2305758">
  <ele>1626.78</ele>
  <time>2026-08-27T18:26:24Z</time>
  <course>153.39</course>
  <speed>0.01</speed>
  <fix>3d</fix>
</trkpt>
<trkpt lat="40.0728449" lon="-105.2305758">
  <ele>1627.06</ele>
  <time>2026-08-27T18:26:24Z</time>
  <course>275.44</course>
  <speed>0.0</speed>
  <fix>3d</fix>
</trkpt>
<trkpt lat="40.072845" lon="-105.2305758">
  <ele>1626.48</ele>
  <time>2026-08-27T18:26:24Z</time>
  <course>153.39</course>
  <speed>0.01</speed>
  <fix>3d</fix>
</trkpt>
<trkpt lat="40.0728449" lon="-105.2305758">
  <ele>1626.76</ele>
  <time>2026-08-27T18:26:24Z</time>
  <course>269.47</course>
  <speed>0.0</speed>
  <fix>3d</fix>
</trkpt>
<trkpt lat="40.072845" lon="-105.2305758">
  <ele>1626.17</ele>
  <time>2026-08-27T18:26:24Z</time>
  <course>153.37</course>
  <speed>0.01</speed>
  <fix>3d</fix>
</trkpt>
<trkpt lat="40.0728449" lon="-105.2305758">
  <ele>1626.46</ele>
  <time>2026-08-27T18:26:24Z</time>
  <course>258.71</course>
  <speed>0.0</speed>
  <fix>3d</fix>
</trkpt>
<trkpt lat="40.072845" lon="-105.2305758">
  <ele>1625.86</ele>
  <time>2026-08-27T18:26:24Z</time>
  <course>153.36</course>
  <speed>0.01</speed>
  <fix>3d</fix>
</trkpt>
<trkpt lat="40.0728449" lon="-105.2305758">
  <ele>1626.15</ele>
  <time>2026-08-27T18:26:24Z</time>
  <course>128.53</course>
  <speed>0.0</speed>
  <fix>3d</fix>
</trkpt>
<trkpt lat="40.072845" lon="-105.2305758">
  <ele>1625.56</ele>
  <time>2026-08-27T18:26:24Z</time>
  <course>153.36</course>
  <speed>0.01</speed>
  <fix>3d</fix>
</trkpt>
<trkpt lat="40.0728449" lon="-105.2305758">
  <ele>1625.85</ele>
  <time>2026-08-27T18:26:24Z</time>
  <course>96.93</course>
  <speed>0.0</speed>
  <fix>3d</fix>
</trkpt>
<trkpt lat="40.072845" lon="-105.2305758">
  <ele>1625.26</ele>
  <time>2026-08-27T18:26:24Z</time>
  <course>153.35</course>
  <speed>0.01</speed>
  <fix>3d</fix>
</trkpt>
<trkpt lat="40.0728449" lon="-105.2305758">
  <ele>1625.55</ele>
  <time>2026-08-27T18:26:24Z</time>
  <course>92.71</course>
  <speed>0.0</speed>
  <fix>3d</fix>
</trkpt>
<trkpt lat="40.072845" lon="-105.2305758">
  <ele>1624.96</ele>
  <time>2026-08-27T18:26:24Z</time>
  <course>153.36</course>
  <speed>0.01</speed>
  <fix>3d</fix>
</trkpt>
<trkpt lat="40.0728449" lon="-105.2305758">
  <ele>1625.25</ele>
  <time>2026-08-27T18:26:24Z</time>
  <course>90.73</course>
  <speed>0.0</speed>
  <fix>3d</fix>
</trkpt>
<trkpt lat="40.072845" lon="-105.2305758">
  <ele>1624.66</ele>
  <time>2026-08-27T18:26:24Z</time>
  <course>153.35</course>
  <speed>0.01</speed>
  <fix>3d</fix>
</trkpt>
<trkpt lat="40.0728449" lon="-105.2305758">
  <ele>1624.95</ele>
  <time>2026-08-27T18:26:24Z</time>
  <course>89.62</course>
  <speed>0.0</speed>
  <fix>3d</fix>
</trkpt>
<trkpt lat="40.072845" lon="-105.2305758">
  <ele>1624.35</ele>
  <time>2026-08-27T18:26:24Z</time>
  <course>153.36</course>
  <speed>0.01</speed>
  <fix>3d</fix>
</trkpt>
<trkpt lat="40.0728449" lon="-105.2305758">
  <ele>1624.66</ele>
  <time>2026-08-27T18:26:24Z</time>
  <course>88.26</course>
  <speed>0.0</speed>
  <fix>3d</fix>
</trkpt>
<trkpt lat="40.072845" lon="-105.2305758">
  <ele>1624.06</ele>
  <time>2026-08-27T18:26:24Z</time>
  <course>153.34</course>
  <speed>0.0</speed>
  <fix>3d</fix>
</trkpt>
<trkpt lat="40.0728449" lon="-105.2305758">
  <ele>1624.36</ele>
  <time>2026-08-27T18:26:24Z</time>
  <course>86.63</course>
  <speed>0.01</speed>
  <fix>3d</fix>
</trkpt>
<trkpt lat="40.072845" lon="-105.2305758">
  <ele>1623.76</ele>
  <time>2026-08-27T18:26:24Z</time>
  <course>153.36</course>
  <speed>0.0</speed>
  <fix>3d</fix>
</trkpt>
<trkpt lat="40.0728449" lon="-105.2305758">
  <ele>1624.06</ele>
  <time>2026-08-27T18:26:24Z</time>
  <course>85.02</course>
  <speed>0.01</speed>
  <fix>3d</fix>
</trkpt>
<trkpt lat="40.072845" lon="-105.2305758">
  <ele>1623.47</ele>
  <time>2026-08-27T18:26:24Z</time>
  <course>153.36</course>
  <speed>0.0</speed>
  <fix>3d</fix>
</trkpt>
<trkpt lat="40.0728449" lon="-105.2305757">
  <ele>1623.76</ele>
  <time>2026-08-27T18:26:24Z</time>
  <course>84.91</course>
  <speed>0.01</speed>
  <fix>3d</fix>
</trkpt>
<trkpt lat="40.072845" lon="-105.2305758">
  <ele>1623.17</ele>
  <time>2026-08-27T18:26:24Z</time>
  <course>153.36</course>
  <speed>0.01</speed>
  <fix>3d</fix>
</trkpt>
<trkpt lat="40.0728449" lon="-105.2305756">
  <ele>1623.47</ele>
  <time>2026-08-27T18:26:24Z</time>
  <course>86.51</course>
  <speed>0.01</speed>
  <fix>3d</fix>
</trkpt>
<trkpt lat="40.072845" lon="-105.2305758">
  <ele>1622.87</ele>
  <time>2026-08-27T18:26:24Z</time>
  <course>153.36</course>
  <speed>0.01</speed>
  <fix>3d</fix>
</trkpt>
<trkpt lat="40.0728449" lon="-105.2305756">
  <ele>1623.16</ele>
  <time>2026-08-27T18:26:24Z</time>
  <course>87.15</course>
  <speed>0.01</speed>
  <fix>3d</fix>
</trkpt>
<trkpt lat="40.072845" lon="-105.2305758">
  <ele>1622.57</ele>
  <time>2026-08-27T18:26:24Z</time>
  <course>153.36</course>
  <speed>0.01</speed>
  <fix>3d</fix>
</trkpt>
<trkpt lat="40.0728449" lon="-105.2305756">
  <ele>1622.87</ele>
  <time>2026-08-27T18:26:24Z</time>
  <course>86.92</course>
  <speed>0.0</speed>
  <fix>3d</fix>
</trkpt>
<trkpt lat="40.072845" lon="-105.2305758">
  <ele>1622.27</ele>
  <time>2026-08-27T18:26:24Z</time>
  <course>153.37</course>
  <speed>0.01</speed>
  <fix>3d</fix>
</trkpt>
<trkpt lat="40.0728449" lon="-105.2305756">
  <ele>1622.57</ele>
  <time>2026-08-27T18:26:24Z</time>
  <course>86.88</course>
  <speed>0.0</speed>
  <fix>3d</fix>
</trkpt>
<trkpt lat="40.072845" lon="-105.2305758">
  <ele>1621.97</ele>
  <time>2026-08-27T18:26:24Z</time>
  <course>153.37</course>
  <speed>0.01</speed>
  <fix>3d</fix>
</trkpt>
<trkpt lat="40.0728449" lon="-105.2305756">
  <ele>1622.27</ele>
  <time>2026-08-27T18:26:24Z</time>
  <course>87.41</course>
  <speed>0.0</speed>
  <fix>3d</fix>
</trkpt>
<trkpt lat="40.072845" lon="-105.2305758">
  <ele>1621.66</ele>
  <time>2026-08-27T18:26:24Z</time>
  <course>153.36</course>
  <speed>0.01</speed>
  <fix>3d</fix>
</trkpt>
<trkpt lat="40.0728449" lon="-105.2305756">
  <ele>1621.97</ele>
  <time>2026-08-27T18:26:24Z</time>
  <course>87.96</course>
  <speed>0.0</speed>
  <fix>3d</fix>
</trkpt>
<trkpt lat="40.072845" lon="-105.2305758">
  <ele>1621.35</ele>
  <time>2026-08-27T18:26:24Z</time>
  <course>153.34</course>
  <speed>0.01</speed>
  <fix>3d</fix>
</trkpt>
<trkpt lat="40.0728449" lon="-105.2305756">
  <ele>1621.66</ele>
  <time>2026-08-27T18:26:24Z</time>
  <course>88.12</course>
  <speed>0.0</speed>
  <fix>3d</fix>
</trkpt>
<trkpt lat="40.072845" lon="-105.2305757">
  <ele>1621.05</ele>
  <time>2026-08-27T18:26:24Z</time>
  <course>153.35</course>
  <speed>0.01</speed>
  <fix>3d</fix>
</trkpt>
<trkpt lat="40.0728449" lon="-105.2305756">
  <ele>1621.37</ele>
  <time>2026-08-27T18:26:24Z</time>
  <course>86.94</course>
  <speed>0.0</speed>
  <fix>3d</fix>
</trkpt>
<trkpt lat="40.072845" lon="-105.2305757">
  <ele>1620.75</ele>
  <time>2026-08-27T18:26:24Z</time>
  <course>153.33</course>
  <speed>0.02</speed>
  <fix>3d</fix>
</trkpt>
<trkpt lat="40.0728449" lon="-105.2305756">
  <ele>1621.08</ele>
  <time>2026-08-27T18:26:24Z</time>
  <course>81.19</course>
  <speed>0.0</speed>
  <fix>3d</fix>
</trkpt>
<trkpt lat="40.072845" lon="-105.2305757">
  <ele>1620.46</ele>
  <time>2026-08-27T18:26:24Z</time>
  <course>153.33</course>
  <speed>0.02</speed>
  <fix>3d</fix>
</trkpt>
<trkpt lat="40.0728449" lon="-105.2305756">
  <ele>1620.78</ele>
  <time>2026-08-27T18:26:24Z</time>
  <course>39.92</course>
  <speed>0.0</speed>
  <fix>3d</fix>
</trkpt>
<trkpt lat="40.072845" lon="-105.2305757">
  <ele>1620.16</ele>
  <time>2026-08-27T18:26:24Z</time>
  <course>153.34</course>
  <speed>0.02</speed>
  <fix>3d</fix>
</trkpt>
<trkpt lat="40.0728449" lon="-105.2305756">
  <ele>1620.48</ele>
  <time>2026-08-27T18:26:24Z</time>
  <course>1.07</course>
  <speed>0.0</speed>
  <fix>3d</fix>
</trkpt>
<trkpt lat="40.072845" lon="-105.2305757">
  <ele>1619.86</ele>
  <time>2026-08-27T18:26:24Z</time>
  <course>153.34</course>
  <speed>0.02</speed>
  <fix>3d</fix>
</trkpt>
<trkpt lat="40.0728449" lon="-105.2305756">
  <ele>1620.18</ele>
  <time>2026-08-27T18:26:24Z</time>
  <course>346.84</course>
  <speed>0.0</speed>
  <fix>3d</fix>
</trkpt>
<trkpt lat="40.072845" lon="-105.2305757">
  <ele>1619.57</ele>
  <time>2026-08-27T18:26:24Z</time>
  <course>153.35</course>
  <speed>0.02</speed>
  <fix>3d</fix>
</trkpt>
<trkpt lat="40.0728449" lon="-105.2305756">
  <ele>1619.89</ele>
  <time>2026-08-27T18:26:24Z</time>
  <course>339.16</course>
  <speed>0.0</speed>
  <fix>3d</fix>
</trkpt>
<trkpt lat="40.072845" lon="-105.2305757">
  <ele>1619.28</ele>
  <time>2026-08-27T18:26:24Z</time>
  <course>153.35</course>
  <speed>0.02</speed>
  <fix>3d</fix>
</trkpt>
<trkpt lat="40.0728449" lon="-105.2305756">
  <ele>1619.59</ele>
  <time>2026-08-27T18:26:24Z</time>
  <course>335.99</course>
  <speed>0.0</speed>
  <fix>3d</fix>
</trkpt>
<trkpt lat="40.072845" lon="-105.2305757">
  <ele>1618.98</ele>
  <time>2026-08-27T18:26:24Z</time>
  <course>153.38</course>
  <speed>0.02</speed>
  <fix>3d</fix>
</trkpt>
<trkpt lat="40.0728449" lon="-105.2305756">
  <ele>1619.29</ele>
  <time>2026-08-27T18:26:24Z</time>
  <course>331.2</course>
  <speed>0.0</speed>
  <fix>3d</fix>
</trkpt>
<trkpt lat="40.072845" lon="-105.2305757">
  <ele>1618.69</ele>
  <time>2026-08-27T18:26:24Z</time>
  <course>153.37</course>
  <speed>0.02</speed>
  <fix>3d</fix>
</trkpt>
<trkpt lat="40.0728449" lon="-105.2305756">
  <ele>1619.0</ele>
  <time>2026-08-27T18:26:24Z</time>
  <course>317.88</course>
  <speed>0.0</speed>
  <fix>3d</fix>
</trkpt>
<trkpt lat="40.072845" lon="-105.2305757">
  <ele>1618.38</ele>
  <time>2026-08-27T18:26:24Z</time>
  <course>153.37</course>
  <speed>0.02</speed>
  <fix>3d</fix>
</trkpt>
<trkpt lat="40.072845" lon="-105.2305756">
  <ele>1618.7</ele>
  <time>2026-08-27T18:26:24Z</time>
  <course>303.51</course>
  <speed>0.0</speed>
  <fix>3d</fix>
</trkpt>
<trkpt lat="40.072845" lon="-105.2305757">
  <ele>1618.08</ele>
  <time>2026-08-27T18:26:24Z</time>
  <course>153.36</course>
  <speed>0.02</speed>
  <fix>3d</fix>
</trkpt>
<trkpt lat="40.072845" lon="-105.2305756">
  <ele>1618.39</ele>
  <time>2026-08-27T18:26:24Z</time>
  <course>289.37</course>
  <speed>0.0</speed>
  <fix>3d</fix>
</trkpt>
<trkpt lat="40.072845" lon="-105.2305757">
  <ele>1617.78</ele>
  <time>2026-08-27T18:26:24Z</time>
  <course>153.36</course>
  <speed>0.02</speed>
  <fix>3d</fix>
</trkpt>
<trkpt lat="40.072845" lon="-105.2305756">
  <ele>1618.09</ele>
  <time>2026-08-27T18:26:24Z</time>
  <course>282.47</course>
  <speed>0.0</speed>
  <fix>3d</fix>
</trkpt>
<trkpt lat="40.072845" lon="-105.2305757">
  <ele>1617.48</ele>
  <time>2026-08-27T18:26:24Z</time>
  <course>153.37</course>
  <speed>0.02</speed>
  <fix>3d</fix>
</trkpt>
<trkpt lat="40.072845" lon="-105.2305756">
  <ele>1617.79</ele>
  <time>2026-08-27T18:26:24Z</time>
  <course>278.99</course>
  <speed>0.0</speed>
  <fix>3d</fix>
</trkpt>
<trkpt lat="40.072845" lon="-105.2305757">
  <ele>1617.18</ele>
  <time>2026-08-27T18:26:24Z</time>
  <course>153.37</course>
  <speed>0.02</speed>
  <fix>3d</fix>
</trkpt>
<trkpt lat="40.072845" lon="-105.2305756">
  <ele>1617.48</ele>
  <time>2026-08-27T18:26:24Z</time>
  <course>261.67</course>
  <speed>0.0</speed>
  <fix>3d</fix>
</trkpt>
<trkpt lat="40.072845" lon="-105.2305757">
  <ele>1616.89</ele>
  <time>2026-08-27T18:26:24Z</time>
  <course>153.37</course>
  <speed>0.01</speed>
  <fix>3d</fix>
</trkpt>
<trkpt lat="40.072845" lon="-105.2305756">
  <ele>1617.17</ele>
  <time>2026-08-27T18:26:24Z</time>
  <course>242.27</course>
  <speed>0.0</speed>
  <fix>3d</fix>
</trkpt>
<trkpt lat="40.072845" lon="-105.2305757">
  <ele>1616.59</ele>
  <time>2026-08-27T18:26:24Z</time>
  <course>153.37</course>
  <speed>0.01</speed>
  <fix>3d</fix>
</trkpt>
<trkpt lat="40.072845" lon="-105.2305756">
  <ele>1616.88</ele>
  <time>2026-08-27T18:26:24Z</time>
  <course>226.52</course>
  <speed>0.0</speed>
  <fix>3d</fix>
</trkpt>
<trkpt lat="40.072845" lon="-105.2305757">
  <ele>1616.29</ele>
  <time>2026-08-27T18:26:24Z</time>
  <course>153.36</course>
  <speed>0.01</speed>
  <fix>3d</fix>
</trkpt>
<trkpt lat="40.072845" lon="-105.2305756">
  <ele>1616.57</ele>
  <time>2026-08-27T18:26:24Z</time>
  <course>214.02</course>
  <speed>0.0</speed>
  <fix>3d</fix>
</trkpt>
<trkpt lat="40.072845" lon="-105.2305757">
  <ele>1615.99</ele>
  <time>2026-08-27T18:26:24Z</time>
  <course>153.37</course>
  <speed>0.01</speed>
  <fix>3d</fix>
</trkpt>
<trkpt lat="40.072845" lon="-105.2305756">
  <ele>1616.27</ele>
  <time>2026-08-27T18:26:24Z</time>
  <course>206.22</course>
  <speed>0.0</speed>
  <fix>3d</fix>
</trkpt>
<trkpt lat="40.072845" lon="-105.2305757">
  <ele>1615.68</ele>
  <time>2026-08-27T18:26:24Z</time>
  <course>153.37</course>
  <speed>0.01</speed>
  <fix>3d</fix>
</trkpt>
<trkpt lat="40.072845" lon="-105.2305756">
  <ele>1615.97</ele>
  <time>2026-08-27T18:26:24Z</time>
  <course>201.27</course>
  <speed>0.0</speed>
  <fix>3d</fix>
</trkpt>
<trkpt lat="40.072845" lon="-105.2305757">
  <ele>1615.37</ele>
  <time>2026-08-27T18:26:24Z</time>
  <course>153.36</course>
  <speed>0.01</speed>
  <fix>3d</fix>
</trkpt>
<trkpt lat="40.072845" lon="-105.2305756">
  <ele>1615.66</ele>
  <time>2026-08-27T18:26:24Z</time>
  <course>198.86</course>
  <speed>0.0</speed>
  <fix>3d</fix>
</trkpt>
<trkpt lat="40.072845" lon="-105.2305757">
  <ele>1615.07</ele>
  <time>2026-08-27T18:26:24Z</time>
  <course>153.35</course>
  <speed>0.01</speed>
  <fix>3d</fix>
</trkpt>
<trkpt lat="40.072845" lon="-105.2305756">
  <ele>1615.36</ele>
  <time>2026-08-27T18:26:24Z</time>
  <course>196.98</course>
  <speed>0.0</speed>
  <fix>3d</fix>
</trkpt>
<trkpt lat="40.072845" lon="-105.2305757">
  <ele>1614.77</ele>
  <time>2026-08-27T18:26:24Z</time>
  <course>153.32</course>
  <speed>0.01</speed>
  <fix>3d</fix>
</trkpt>
<trkpt lat="40.072845" lon="-105.2305756">
  <ele>1615.06</ele>
  <time>2026-08-27T18:26:24Z</time>
  <course>196.57</course>
  <speed>0.0</speed>
  <fix>3d</fix>
</trkpt>
<trkpt lat="40.072845" lon="-105.2305757">
  <ele>1614.47</ele>
  <time>2026-08-27T18:26:24Z</time>
  <course>153.34</course>
  <speed>0.01</speed>
  <fix>3d</fix>
</trkpt>
<trkpt lat="40.072845" lon="-105.2305756">
  <ele>1614.76</ele>
  <time>2026-08-27T18:26:24Z</time>
  <course>194.25</course>
  <speed>0.0</speed>
  <fix>3d</fix>
</trkpt>
<trkpt lat="40.072845" lon="-105.2305757">
  <ele>1614.17</ele>
  <time>2026-08-27T18:26:24Z</time>
  <course>153.36</course>
  <speed>0.01</speed>
  <fix>3d</fix>
</trkpt>
<trkpt lat="40.072845" lon="-105.2305756">
  <ele>1614.46</ele>
  <time>2026-08-27T18:26:24Z</time>
  <course>192.01</course>
  <speed>0.0</speed>
  <fix>3d</fix>
</trkpt>
<trkpt lat="40.072845" lon="-105.2305757">
  <ele>1613.87</ele>
  <time>2026-08-27T18:26:24Z</time>
  <course>153.35</course>
  <speed>0.01</speed>
  <fix>3d</fix>
</trkpt>
<trkpt lat="40.072845" lon="-105.2305756">
  <ele>1614.16</ele>
  <time>2026-08-27T18:26:24Z</time>
  <course>194.24</course>
  <speed>0.0</speed>
  <fix>3d</fix>
</trkpt>
<trkpt lat="40.072845" lon="-105.2305757">
  <ele>1613.57</ele>
  <time>2026-08-27T18:26:24Z</time>
  <course>153.34</course>
  <speed>0.01</speed>
  <fix>3d</fix>
</trkpt>
<trkpt lat="40.0728449" lon="-105.2305756">
  <ele>1613.86</ele>
  <time>2026-08-27T18:26:24Z</time>
  <course>196.24</course>
  <speed>0.0</speed>
  <fix>3d</fix>
</trkpt>
<trkpt lat="40.072845" lon="-105.2305757">
  <ele>1613.26</ele>
  <time>2026-08-27T18:26:24Z</time>
  <course>153.34</course>
  <speed>0.01</speed>
  <fix>3d</fix>
</trkpt>
<trkpt lat="40.0728449" lon="-105.2305756">
  <ele>1613.56</ele>
  <time>2026-08-27T18:26:24Z</time>
  <course>197.05</course>
  <speed>0.0</speed>
  <fix>3d</fix>
</trkpt>
<trkpt lat="40.072845" lon="-105.2305757">
  <ele>1612.96</ele>
  <time>2026-08-27T18:26:24Z</time>
  <course>153.35</course>
  <speed>0.01</speed>
  <fix>3d</fix>
</trkpt>
<trkpt lat="40.0728449" lon="-105.2305756">
  <ele>1613.26</ele>
  <time>2026-08-27T18:26:24Z</time>
  <course>197.03</course>
  <speed>0.0</speed>
  <fix>3d</fix>
</trkpt>
<trkpt lat="40.072845" lon="-105.2305757">
  <ele>1612.67</ele>
  <time>2026-08-27T18:26:24Z</time>
  <course>153.34</course>
  <speed>0.01</speed>
  <fix>3d</fix>
</trkpt>
<trkpt lat="40.0728449" lon="-105.2305756">
  <ele>1612.96</ele>
  <time>2026-08-27T18:26:24Z</time>
  <course>197.11</course>
  <speed>0.0</speed>
  <fix>3d</fix>
</trkpt>
<trkpt lat="40.072845" lon="-105.2305757">
  <ele>1612.37</ele>
  <time>2026-08-27T18:26:24Z</time>
  <course>153.35</course>
  <speed>0.01</speed>
  <fix>3d</fix>
</trkpt>
<trkpt lat="40.0728449" lon="-105.2305756">
  <ele>1612.66</ele>
  <time>2026-08-27T18:26:24Z</time>
  <course>199.06</course>
  <speed>0.0</speed>
  <fix>3d</fix>
</trkpt>
<trkpt lat="40.072845" lon="-105.2305757">
  <ele>1612.06</ele>
  <time>2026-08-27T18:26:24Z</time>
  <course>153.34</course>
  <speed>0.01</speed>
  <fix>3d</fix>
</trkpt>
<trkpt lat="40.0728449" lon="-105.2305756">
  <ele>1612.36</ele>
  <time>2026-08-27T18:26:24Z</time>
  <course>204.24</course>
  <speed>0.0</speed>
  <fix>3d</fix>
</trkpt>
<trkpt lat="40.072845" lon="-105.2305757">
  <ele>1611.76</ele>
  <time>2026-08-27T18:26:24Z</time>
  <course>153.33</course>
  <speed>0.01</speed>
  <fix>3d</fix>
</trkpt>
<trkpt lat="40.0728449" lon="-105.2305756">
  <ele>1612.06</ele>
  <time>2026-08-27T18:26:24Z</time>
  <course>211.24</course>
  <speed>0.0</speed>
  <fix>3d</fix>
</trkpt>
<trkpt lat="40.072845" lon="-105.2305757">
  <ele>1611.46</ele>
  <time>2026-08-27T18:26:24Z</time>
  <course>153.34</course>
  <speed>0.01</speed>
  <fix>3d</fix>
</trkpt>
<trkpt lat="40.0728449" lon="-105.2305756">
  <ele>1611.76</ele>
  <time>2026-08-27T18:26:24Z</time>
  <course>219.58</course>
  <speed>0.0</speed>
  <fix>3d</fix>
</trkpt>
<trkpt lat="40.072845" lon="-105.2305757">
  <ele>1611.16</ele>
  <time>2026-08-27T18:26:24Z</time>
  <course>153.34</course>
  <speed>0.01</speed>
  <fix>3d</fix>
</trkpt>
<trkpt lat="40.0728449" lon="-105.2305756">
  <ele>1611.46</ele>
  <time>2026-08-27T18:26:24Z</time>
  <course>231.65</course>
  <speed>0.0</speed>
  <fix>3d</fix>
</trkpt>
<trkpt lat="40.072845" lon="-105.2305757">
  <ele>1610.87</ele>
  <time>2026-08-27T18:26:24Z</time>
  <course>153.33</course>
  <speed>0.01</speed>
  <fix>3d</fix>
</trkpt>
<trkpt lat="40.0728449" lon="-105.2305756">
  <ele>1611.16</ele>
  <time>2026-08-27T18:26:24Z</time>
  <course>241.06</course>
  <speed>0.0</speed>
  <fix>3d</fix>
</trkpt>
<trkpt lat="40.072845" lon="-105.2305757">
  <ele>1610.57</ele>
  <time>2026-08-27T18:26:24Z</time>
  <course>153.34</course>
  <speed>0.01</speed>
  <fix>3d</fix>
</trkpt>
<trkpt lat="40.0728449" lon="-105.2305756">
  <ele>1610.86</ele>
  <time>2026-08-27T18:26:24Z</time>
  <course>248.16</course>
  <speed>0.0</speed>
  <fix>3d</fix>
</trkpt>
<trkpt lat="40.072845" lon="-105.2305757">
  <ele>1610.27</ele>
  <time>2026-08-27T18:26:24Z</time>
  <course>153.35</course>
  <speed>0.01</speed>
  <fix>3d</fix>
</trkpt>
<trkpt lat="40.0728449" lon="-105.2305756">
  <ele>1610.56</ele>
  <time>2026-08-27T18:26:24Z</time>
  <course>260.26</course>
  <speed>0.0</speed>
  <fix>3d</fix>
</trkpt>
<trkpt lat="40.072845" lon="-105.2305757">
  <ele>1609.98</ele>
  <time>2026-08-27T18:26:24Z</time>
  <course>153.36</course>
  <speed>0.01</speed>
  <fix>3d</fix>
</trkpt>
<trkpt lat="40.0728449" lon="-105.2305756">
  <ele>1610.26</ele>
  <time>2026-08-27T18:26:24Z</time>
  <course>271.9</course>
  <speed>0.0</speed>
  <fix>3d</fix>
</trkpt>
<trkpt lat="40.072845" lon="-105.2305757">
  <ele>1609.68</ele>
  <time>2026-08-27T18:26:24Z</time>
  <course>153.35</course>
  <speed>0.01</speed>
  <fix>3d</fix>
</trkpt>
<trkpt lat="40.0728449" lon="-105.2305756">
  <ele>1609.96</ele>
  <time>2026-08-27T18:26:24Z</time>
  <course>275.6</course>
  <speed>0.0</speed>
  <fix>3d</fix>
</trkpt>
<trkpt lat="40.072845" lon="-105.2305757">
  <ele>1609.38</ele>
  <time>2026-08-27T18:26:24Z</time>
  <course>153.34</course>
  <speed>0.01</speed>
  <fix>3d</fix>
</trkpt>
<trkpt lat="40.0728449" lon="-105.2305756">
  <ele>1609.66</ele>
  <time>2026-08-27T18:26:24Z</time>
  <course>279.71</course>
  <speed>0.0</speed>
  <fix>3d</fix>
</trkpt>
<trkpt lat="40.072845" lon="-105.2305757">
  <ele>1609.08</ele>
  <time>2026-08-27T18:26:24Z</time>
  <course>153.35</course>
  <speed>0.01</speed>
  <fix>3d</fix>
</trkpt>
<trkpt lat="40.0728449" lon="-105.2305756">
  <ele>1609.36</ele>
  <time>2026-08-27T18:26:24Z</time>
  <course>288.19</course>
  <speed>0.0</speed>
  <fix>3d</fix>
</trkpt>
<trkpt lat="40.072845" lon="-105.2305757">
  <ele>1608.78</ele>
  <time>2026-08-27T18:26:24Z</time>
  <course>153.35</course>
  <speed>0.01</speed>
  <fix>3d</fix>
</trkpt>
<trkpt lat="40.0728449" lon="-105.2305756">
  <ele>1609.06</ele>
  <time>2026-08-27T18:26:24Z</time>
  <course>291.74</course>
  <speed>0.0</speed>
  <fix>3d</fix>
</trkpt>
<trkpt lat="40.072845" lon="-105.2305757">
  <ele>1608.48</ele>
  <time>2026-08-27T18:26:24Z</time>
  <course>153.36</course>
  <speed>0.01</speed>
  <fix>3d</fix>
</trkpt>
<trkpt lat="40.0728449" lon="-105.2305756">
  <ele>1608.76</ele>
  <time>2026-08-27T18:26:24Z</time>
  <course>287.52</course>
  <speed>0.0</speed>
  <fix>3d</fix>
</trkpt>
<trkpt lat="40.072845" lon="-105.2305757">
  <ele>1608.18</ele>
  <time>2026-08-27T18:26:24Z</time>
  <course>153.35</course>
  <speed>0.01</speed>
  <fix>3d</fix>
</trkpt>
<trkpt lat="40.0728449" lon="-105.2305756">
  <ele>1608.45</ele>
  <time>2026-08-27T18:26:24Z</time>
  <course>282.92</course>
  <speed>0.0</speed>
  <fix>3d</fix>
</trkpt>
<trkpt lat="40.072845" lon="-105.2305757">
  <ele>1607.88</ele>
  <time>2026-08-27T18:26:24Z</time>
  <course>153.34</course>
  <speed>0.01</speed>
  <fix>3d</fix>
</trkpt>
<trkpt lat="40.0728449" lon="-105.2305756">
  <ele>1608.15</ele>
  <time>2026-08-27T18:26:24Z</time>
  <course>280.63</course>
  <speed>0.0</speed>
  <fix>3d</fix>
</trkpt>
<trkpt lat="40.072845" lon="-105.2305757">
  <ele>1607.58</ele>
  <time>2026-08-27T18:26:24Z</time>
  <course>153.35</course>
  <speed>0.01</speed>
  <fix>3d</fix>
</trkpt>
<trkpt lat="40.0728449" lon="-105.2305756">
  <ele>1607.85</ele>
  <time>2026-08-27T18:26:24Z</time>
  <course>282.37</course>
  <speed>0.0</speed>
  <fix>3d</fix>
</trkpt>
<trkpt lat="40.072845" lon="-105.2305757">
  <ele>1607.28</ele>
  <time>2026-08-27T18:26:25Z</time>
  <course>153.35</course>
  <speed>0.01</speed>
  <fix>3d</fix>
</trkpt>
<trkpt lat="40.0728449" lon="-105.2305756">
  <ele>1607.54</ele>
  <time>2026-08-27T18:26:25Z</time>
  <course>287.95</course>
  <speed>0.0</speed>
  <fix>3d</fix>
</trkpt>
<trkpt lat="40.072845" lon="-105.2305757">
  <ele>1606.98</ele>
  <time>2026-08-27T18:26:25Z</time>
  <course>153.35</course>
  <speed>0.01</speed>
  <fix>3d</fix>
</trkpt>
<trkpt lat="40.0728449" lon="-105.2305756">
  <ele>1607.24</ele>
  <time>2026-08-27T18:26:25Z</time>
  <course>294.04</course>
  <speed>0.0</speed>
  <fix>3d</fix>
</trkpt>
<trkpt lat="40.072845" lon="-105.2305757">
  <ele>1606.68</ele>
  <time>2026-08-27T18:26:25Z</time>
  <course>153.34</course>
  <speed>0.01</speed>
  <fix>3d</fix>
</trkpt>
<trkpt lat="40.0728449" lon="-105.2305756">
  <ele>1606.94</ele>
  <time>2026-08-27T18:26:25Z</time>
  <course>295.99</course>
  <speed>0.0</speed>
  <fix>3d</fix>
</trkpt>
<trkpt lat="40.072845" lon="-105.2305757">
  <ele>1606.38</ele>
  <time>2026-08-27T18:26:25Z</time>
  <course>153.34</course>
  <speed>0.01</speed>
  <fix>3d</fix>
</trkpt>
<trkpt lat="40.0728449" lon="-105.2305756">
  <ele>1606.64</ele>
  <time>2026-08-27T18:26:25Z</time>
  <course>297.12</course>
  <speed>0.0</speed>
  <fix>3d</fix>
</trkpt>
<trkpt lat="40.072845" lon="-105.2305757">
  <ele>1606.07</ele>
  <time>2026-08-27T18:26:25Z</time>
  <course>153.34</course>
  <speed>0.01</speed>
  <fix>3d</fix>
</trkpt>
<trkpt lat="40.0728449" lon="-105.2305756">
  <ele>1606.33</ele>
  <time>2026-08-27T18:26:25Z</time>
  <course>300.57</course>
  <speed>0.0</speed>
  <fix>3d</fix>
</trkpt>
<trkpt lat="40.072845" lon="-105.2305757">
  <ele>1605.77</ele>
  <time>2026-08-27T18:26:25Z</time>
  <course>153.34</course>
  <speed>0.01</speed>
  <fix>3d</fix>
</trkpt>
<trkpt lat="40.0728449" lon="-105.2305756">
  <ele>1606.03</ele>
  <time>2026-08-27T18:26:25Z</time>
  <course>299.99</course>
  <speed>0.0</speed>
  <fix>3d</fix>
</trkpt>
<trkpt lat="40.072845" lon="-105.2305757">
  <ele>1605.47</ele>
  <time>2026-08-27T18:26:25Z</time>
  <course>153.33</course>
  <speed>0.01</speed>
  <fix>3d</fix>
</trkpt>
<trkpt lat="40.0728449" lon="-105.2305756">
  <ele>1605.73</ele>
  <time>2026-08-27T18:26:25Z</time>
  <course>297.16</course>
  <speed>0.0</speed>
  <fix>3d</fix>
</trkpt>
<trkpt lat="40.072845" lon="-105.2305757">
  <ele>1605.16</ele>
  <time>2026-08-27T18:26:25Z</time>
  <course>153.32</course>
  <speed>0.01</speed>
  <fix>3d</fix>
</trkpt>
<trkpt lat="40.0728449" lon="-105.2305756">
  <ele>1605.42</ele>
  <time>2026-08-27T18:26:25Z</time>
  <course>297.0</course>
  <speed>0.0</speed>
  <fix>3d</fix>
</trkpt>
<trkpt lat="40.072845" lon="-105.2305757">
  <ele>1604.85</ele>
  <time>2026-08-27T18:26:25Z</time>
  <course>153.32</course>
  <speed>0.01</speed>
  <fix>3d</fix>
</trkpt>
<trkpt lat="40.0728449" lon="-105.2305756">
  <ele>1605.13</ele>
  <time>2026-08-27T18:26:25Z</time>
  <course>300.83</course>
  <speed>0.0</speed>
  <fix>3d</fix>
</trkpt>
<trkpt lat="40.072845" lon="-105.2305757">
  <ele>1604.55</ele>
  <time>2026-08-27T18:26:25Z</time>
  <course>153.31</course>
  <speed>0.01</speed>
  <fix>3d</fix>
</trkpt>
<trkpt lat="40.0728449" lon="-105.2305756">
  <ele>1604.83</ele>
  <time>2026-08-27T18:26:25Z</time>
  <course>310.94</course>
  <speed>0.0</speed>
  <fix>3d</fix>
</trkpt>
<trkpt lat="40.072845" lon="-105.2305757">
  <ele>1604.25</ele>
  <time>2026-08-27T18:26:25Z</time>
  <course>153.32</course>
  <speed>0.01</speed>
  <fix>3d</fix>
</trkpt>
<trkpt lat="40.0728449" lon="-105.2305756">
  <ele>1604.53</ele>
  <time>2026-08-27T18:26:25Z</time>
  <course>324.41</course>
  <speed>0.0</speed>
  <fix>3d</fix>
</trkpt>
<trkpt lat="40.072845" lon="-105.2305757">
  <ele>1603.96</ele>
  <time>2026-08-27T18:26:25Z</time>
  <course>153.31</course>
  <speed>0.01</speed>
  <fix>3d</fix>
</trkpt>
<trkpt lat="40.0728449" lon="-105.2305756">
  <ele>1604.23</ele>
  <time>2026-08-27T18:26:25Z</time>
  <course>337.87</course>
  <speed>0.0</speed>
  <fix>3d</fix>
</trkpt>
<trkpt lat="40.072845" lon="-105.2305757">
  <ele>1603.66</ele>
  <time>2026-08-27T18:26:25Z</time>
  <course>153.32</course>
  <speed>0.01</speed>
  <fix>3d</fix>
</trkpt>
<trkpt lat="40.0728449" lon="-105.2305756">
  <ele>1603.93</ele>
  <time>2026-08-27T18:26:25Z</time>
  <course>351.45</course>
  <speed>0.0</speed>
  <fix>3d</fix>
</trkpt>
<trkpt lat="40.072845" lon="-105.2305757">
  <ele>1603.36</ele>
  <time>2026-08-27T18:26:25Z</time>
  <course>153.32</course>
  <speed>0.01</speed>
  <fix>3d</fix>
</trkpt>
<trkpt lat="40.0728449" lon="-105.2305756">
  <ele>1603.64</ele>
  <time>2026-08-27T18:26:25Z</time>
  <course>1.39</course>
  <speed>0.0</speed>
  <fix>3d</fix>
</trkpt>
<trkpt lat="40.072845" lon="-105.2305757">
  <ele>1603.07</ele>
  <time>2026-08-27T18:26:25Z</time>
  <course>153.34</course>
  <speed>0.01</speed>
  <fix>3d</fix>
</trkpt>
<trkpt lat="40.0728449" lon="-105.2305756">
  <ele>1603.34</ele>
  <time>2026-08-27T18:26:25Z</time>
  <course>4.6</course>
  <speed>0.0</speed>
  <fix>3d</fix>
</trkpt>
<trkpt lat="40.072845" lon="-105.2305757">
  <ele>1602.76</ele>
  <time>2026-08-27T18:26:25Z</time>
  <course>153.34</course>
  <speed>0.01</speed>
  <fix>3d</fix>
</trkpt>
<trkpt lat="40.0728449" lon="-105.2305756">
  <ele>1603.04</ele>
  <time>2026-08-27T18:26:25Z</time>
  <course>354.27</course>
  <speed>0.0</speed>
  <fix>3d</fix>
</trkpt>
<trkpt lat="40.072845" lon="-105.2305757">
  <ele>1602.46</ele>
  <time>2026-08-27T18:26:25Z</time>
  <course>153.32</course>
  <speed>0.01</speed>
  <fix>3d</fix>
</trkpt>
<trkpt lat="40.0728449" lon="-105.2305757">
  <ele>1602.75</ele>
  <time>2026-08-27T18:26:25Z</time>
  <course>334.88</course>
  <speed>0.0</speed>
  <fix>3d</fix>
</trkpt>
<trkpt lat="40.072845" lon="-105.2305757">
  <ele>1602.16</ele>
  <time>2026-08-27T18:26:25Z</time>
  <course>153.32</course>
  <speed>0.01</speed>
  <fix>3d</fix>
</trkpt>
<trkpt lat="40.0728449" lon="-105.2305758">
  <ele>1602.45</ele>
  <time>2026-08-27T18:26:25Z</time>
  <course>322.35</course>
  <speed>0.0</speed>
  <fix>3d</fix>
</trkpt>
<trkpt lat="40.072845" lon="-105.2305758">
  <ele>1601.86</ele>
  <time>2026-08-27T18:26:25Z</time>
  <course>153.32</course>
  <speed>0.01</speed>
  <fix>3d</fix>
</trkpt>
<trkpt lat="40.0728449" lon="-105.2305758">
  <ele>1602.15</ele>
  <time>2026-08-27T18:26:25Z</time>
  <course>315.87</course>
  <speed>0.0</speed>
  <fix>3d</fix>
</trkpt>
<trkpt lat="40.072845" lon="-105.2305758">
  <ele>1601.55</ele>
  <time>2026-08-27T18:26:25Z</time>
  <course>153.31</course>
  <speed>0.01</speed>
  <fix>3d</fix>
</trkpt>
<trkpt lat="40.0728449" lon="-105.2305758">
  <ele>1601.85</ele>
  <time>2026-08-27T18:26:25Z</time>
  <course>315.31</course>
  <speed>0.0</speed>
  <fix>3d</fix>
</trkpt>
<trkpt lat="40.072845" lon="-105.2305758">
  <ele>1601.25</ele>
  <time>2026-08-27T18:26:25Z</time>
  <course>153.33</course>
  <speed>0.01</speed>
  <fix>3d</fix>
</trkpt>
<trkpt lat="40.0728449" lon="-105.2305758">
  <ele>1601.55</ele>
  <time>2026-08-27T18:26:25Z</time>
  <course>342.32</course>
  <speed>0.0</speed>
  <fix>3d</fix>
</trkpt>
<trkpt lat="40.072845" lon="-105.2305758">
  <ele>1600.96</ele>
  <time>2026-08-27T18:26:25Z</time>
  <course>153.31</course>
  <speed>0.01</speed>
  <fix>3d</fix>
</trkpt>
<trkpt lat="40.0728449" lon="-105.2305758">
  <ele>1601.26</ele>
  <time>2026-08-27T18:26:25Z</time>
  <course>56.61</course>
  <speed>0.0</speed>
  <fix>3d</fix>
</trkpt>
<trkpt lat="40.072845" lon="-105.2305758">
  <ele>1600.66</ele>
  <time>2026-08-27T18:26:25Z</time>
  <course>153.33</course>
  <speed>0.01</speed>
  <fix>3d</fix>
</trkpt>
<trkpt lat="40.0728449" lon="-105.2305758">
  <ele>1600.96</ele>
  <time>2026-08-27T18:26:25Z</time>
  <course>84.24</course>
  <speed>0.0</speed>
  <fix>3d</fix>
</trkpt>
<trkpt lat="40.072845" lon="-105.2305758">
  <ele>1600.37</ele>
  <time>2026-08-27T18:26:25Z</time>
  <course>153.31</course>
  <speed>0.01</speed>
  <fix>3d</fix>
</trkpt>
<trkpt lat="40.0728449" lon="-105.2305758">
  <ele>1600.66</ele>
  <time>2026-08-27T18:26:25Z</time>
  <course>93.14</course>
  <speed>0.0</speed>
  <fix>3d</fix>
</trkpt>
<trkpt lat="40.072845" lon="-105.2305758">
  <ele>1600.07</ele>
  <time>2026-08-27T18:26:25Z</time>
  <course>153.33</course>
  <speed>0.01</speed>
  <fix>3d</fix>
</trkpt>
<trkpt lat="40.0728449" lon="-105.2305758">
  <ele>1600.37</ele>
  <time>2026-08-27T18:26:25Z</time>
  <course>96.46</course>
  <speed>0.0</speed>
  <fix>3d</fix>
</trkpt>
<trkpt lat="40.072845" lon="-105.2305758">
  <ele>1599.76</ele>
  <time>2026-08-27T18:26:25Z</time>
  <course>153.34</course>
  <speed>0.01</speed>
  <fix>3d</fix>
</trkpt>
<trkpt lat="40.0728449" lon="-105.2305758">
  <ele>1600.07</ele>
  <time>2026-08-27T18:26:25Z</time>
  <course>93.72</course>
  <speed>0.0</speed>
  <fix>3d</fix>
</trkpt>
<trkpt lat="40.072845" lon="-105.2305758">
  <ele>1599.46</ele>
  <time>2026-08-27T18:26:25Z</time>
  <course>153.32</course>
  <speed>0.01</speed>
  <fix>3d</fix>
</trkpt>
<trkpt lat="40.0728449" lon="-105.2305758">
  <ele>1599.77</ele>
  <time>2026-08-27T18:26:25Z</time>
  <course>89.47</course>
  <speed>0.0</speed>
  <fix>3d</fix>
</trkpt>
<trkpt lat="40.072845" lon="-105.2305758">
  <ele>1599.17</ele>
  <time>2026-08-27T18:26:25Z</time>
  <course>153.32</course>
  <speed>0.01</speed>
  <fix>3d</fix>
</trkpt>
<trkpt lat="40.0728449" lon="-105.2305758">
  <ele>1599.47</ele>
  <time>2026-08-27T18:26:25Z</time>
  <course>83.92</course>
  <speed>0.0</speed>
  <fix>3d</fix>
</trkpt>
<trkpt lat="40.072845" lon="-105.2305758">
  <ele>1598.87</ele>
  <time>2026-08-27T18:26:25Z</time>
  <course>153.34</course>
  <speed>0.01</speed>
  <fix>3d</fix>
</trkpt>
<trkpt lat="40.0728449" lon="-105.2305758">
  <ele>1599.17</ele>
  <time>2026-08-27T18:26:25Z</time>
  <course>80.67</course>
  <speed>0.0</speed>
  <fix>3d</fix>
</trkpt>
<trkpt lat="40.072845" lon="-105.2305758">
  <ele>1598.58</ele>
  <time>2026-08-27T18:26:25Z</time>
  <course>153.34</course>
  <speed>0.01</speed>
  <fix>3d</fix>
</trkpt>
<trkpt lat="40.0728449" lon="-105.2305758">
  <ele>1598.88</ele>
  <time>2026-08-27T18:26:25Z</time>
  <course>81.01</course>
  <speed>0.0</speed>
  <fix>3d</fix>
</trkpt>
<trkpt lat="40.072845" lon="-105.2305758">
  <ele>1598.28</ele>
  <time>2026-08-27T18:26:25Z</time>
  <course>153.34</course>
  <speed>0.01</speed>
  <fix>3d</fix>
</trkpt>
<trkpt lat="40.0728449" lon="-105.2305757">
  <ele>1598.58</ele>
  <time>2026-08-27T18:26:25Z</time>
  <course>82.15</course>
  <speed>0.0</speed>
  <fix>3d</fix>
</trkpt>
<trkpt lat="40.072845" lon="-105.2305758">
  <ele>1597.98</ele>
  <time>2026-08-27T18:26:25Z</time>
  <course>153.33</course>
  <speed>0.01</speed>
  <fix>3d</fix>
</trkpt>
<trkpt lat="40.0728449" lon="-105.2305756">
  <ele>1598.28</ele>
  <time>2026-08-27T18:26:25Z</time>
  <course>82.55</course>
  <speed>0.0</speed>
  <fix>3d</fix>
</trkpt>
<trkpt lat="40.072845" lon="-105.2305758">
  <ele>1597.68</ele>
  <time>2026-08-27T18:26:25Z</time>
  <course>153.34</course>
  <speed>0.01</speed>
  <fix>3d</fix>
</trkpt>
<trkpt lat="40.0728449" lon="-105.2305756">
  <ele>1597.98</ele>
  <time>2026-08-27T18:26:25Z</time>
  <course>82.14</course>
  <speed>0.0</speed>
  <fix>3d</fix>
</trkpt>
<trkpt lat="40.072845" lon="-105.2305758">
  <ele>1597.38</ele>
  <time>2026-08-27T18:26:25Z</time>
  <course>153.31</course>
  <speed>0.01</speed>
  <fix>3d</fix>
</trkpt>
<trkpt lat="40.0728449" lon="-105.2305756">
  <ele>1597.67</ele>
  <time>2026-08-27T18:26:25Z</time>
  <course>81.86</course>
  <speed>0.0</speed>
  <fix>3d</fix>
</trkpt>
<trkpt lat="40.072845" lon="-105.2305758">
  <ele>1597.09</ele>
  <time>2026-08-27T18:26:25Z</time>
  <course>153.07</course>
  <speed>0.01</speed>
  <fix>3d</fix>
</trkpt>
<trkpt lat="40.0728449" lon="-105.2305756">
  <ele>1597.38</ele>
  <time>2026-08-27T18:26:25Z</time>
  <course>83.36</course>
  <speed>0.0</speed>
  <fix>3d</fix>
</trkpt>
<trkpt lat="40.072845" lon="-105.2305758">
  <ele>1596.84</ele>
  <time>2026-08-27T18:26:25Z</time>
  <course>152.73</course>
  <speed>0.01</speed>
  <fix>3d</fix>
</trkpt>
<trkpt lat="40.0728449" lon="-105.2305756">
  <ele>1597.09</ele>
  <time>2026-08-27T18:26:25Z</time>
  <course>83.96</course>
  <speed>0.0</speed>
  <fix>3d</fix>
</trkpt>
<trkpt lat="40.072845" lon="-105.2305758">
  <ele>1596.62</ele>
  <time>2026-08-27T18:26:25Z</time>
  <course>152.4</course>
  <speed>0.01</speed>
  <fix>3d</fix>
</trkpt>
<trkpt lat="40.0728449" lon="-105.2305756">
  <ele>1596.83</ele>
  <time>2026-08-27T18:26:25Z</time>
  <course>74.38</course>
  <speed>0.0</speed>
  <fix>3d</fix>
</trkpt>
<trkpt lat="40.072845" lon="-105.2305758">
  <ele>1596.45</ele>
  <time>2026-08-27T18:26:25Z</time>
  <course>152.09</course>
  <speed>0.01414213562373095</speed>
  <fix>3d</fix>
</trkpt>
<trkpt lat="40.0728449" lon="-105.2305756">
  <ele>1596.61</ele>
  <time>2026-08-27T18:26:25Z</time>
  <course>60.66</course>
  <speed>0.0</speed>
  <fix>3d</fix>
</trkpt>
<trkpt lat="40.072845" lon="-105.2305758">
  <ele>1596.32</ele>
  <time>2026-08-27T18:26:25Z</time>
  <course>151.88</course>
  <speed>0.01</speed>
  <fix>3d</fix>
</trkpt>
<trkpt lat="40.0728449" lon="-105.2305756">
  <ele>1596.43</ele>
  <time>2026-08-27T18:26:25Z</time>
  <course>52.75</course>
  <speed>0.01</speed>
  <fix>3d</fix>
</trkpt>
<trkpt lat="40.072845" lon="-105.2305757">
  <ele>1596.21</ele>
  <time>2026-08-27T18:26:25Z</time>
  <course>151.89</course>
  <speed>0.02</speed>
  <fix>3d</fix>
</trkpt>
<trkpt lat="40.0728449" lon="-105.2305756">
  <ele>1596.3</ele>
  <time>2026-08-27T18:26:25Z</time>
  <course>50.05</course>
  <speed>0.01</speed>
  <fix>3d</fix>
</trkpt>
<trkpt lat="40.072845" lon="-105.2305757">
  <ele>1596.13</ele>
  <time>2026-08-27T18:26:25Z</time>
  <course>151.97</course>
  <speed>0.02</speed>
  <fix>3d</fix>
</trkpt>
<trkpt lat="40.0728449" lon="-105.2305755">
  <ele>1596.19</ele>
  <time>2026-08-27T18:26:25Z</time>
  <course>49.68</course>
  <speed>0.02</speed>
  <fix>3d</fix>
</trkpt>
<trkpt lat="40.072845" lon="-105.2305756">
  <ele>1596.05</ele>
  <time>2026-08-27T18:26:25Z</time>
  <course>152.06</course>
  <speed>0.02</speed>
  <fix>3d</fix>
</trkpt>
<trkpt lat="40.0728449" lon="-105.2305755">
  <ele>1596.11</ele>
  <time>2026-08-27T18:26:25Z</time>
  <course>50.04</course>
  <speed>0.02</speed>
  <fix>3d</fix>
</trkpt>
<trkpt lat="40.072845" lon="-105.2305756">
  <ele>1595.97</ele>
  <time>2026-08-27T18:26:25Z</time>
  <course>152.13</course>
  <speed>0.02</speed>
  <fix>3d</fix>
</trkpt>
<trkpt lat="40.072845" lon="-105.2305754">
  <ele>1596.03</ele>
  <time>2026-08-27T18:26:25Z</time>
  <course>50.89</course>
  <speed>0.03</speed>
  <fix>3d</fix>
</trkpt>
<trkpt lat="40.0728451" lon="-105.2305755">
  <ele>1595.89</ele>
  <time>2026-08-27T18:26:25Z</time>
  <course>152.22</course>
  <speed>0.02</speed>
  <fix>3d</fix>
</trkpt>
<trkpt lat="40.072845" lon="-105.2305753">
  <ele>1595.95</ele>
  <time>2026-08-27T18:26:25Z</time>
  <course>51.78</course>
  <speed>0.03</speed>
  <fix>3d</fix>
</trkpt>
<trkpt lat="40.0728451" lon="-105.2305755">
  <ele>1595.8</ele>
  <time>2026-08-27T18:26:25Z</time>
  <course>152.28</course>
  <speed>0.02</speed>
  <fix>3d</fix>
</trkpt>
<trkpt lat="40.072845" lon="-105.2305753">
  <ele>1595.87</ele>
  <time>2026-08-27T18:26:25Z</time>
  <course>52.22</course>
  <speed>0.02</speed>
  <fix>3d</fix>
</trkpt>
<trkpt lat="40.0728451" lon="-105.2305754">
  <ele>1595.71</ele>
  <time>2026-08-27T18:26:25Z</time>
  <course>152.35</course>
  <speed>0.01</speed>
  <fix>3d</fix>
</trkpt>
<trkpt lat="40.072845" lon="-105.2305752">
  <ele>1595.78</ele>
  <time>2026-08-27T18:26:25Z</time>
  <course>52.18</course>
  <speed>0.02</speed>
  <fix>3d</fix>
</trkpt>
<trkpt lat="40.0728451" lon="-105.2305754">
  <ele>1595.62</ele>
  <time>2026-08-27T18:26:25Z</time>
  <course>152.37</course>
  <speed>0.01</speed>
  <fix>3d</fix>
</trkpt>
<trkpt lat="40.072845" lon="-105.2305751">
  <ele>1595.69</ele>
  <time>2026-08-27T18:26:25Z</time>
  <course>52.1</course>
  <speed>0.02</speed>
  <fix>3d</fix>
</trkpt>
<trkpt lat="40.0728451" lon="-105.2305753">
  <ele>1595.53</ele>
  <time>2026-08-27T18:26:25Z</time>
  <course>152.41</course>
  <speed>0.01</speed>
  <fix>3d</fix>
</trkpt>
<trkpt lat="40.072845" lon="-105.2305751">
  <ele>1595.6</ele>
  <time>2026-08-27T18:26:25Z</time>
  <course>51.65</course>
  <speed>0.01</speed>
  <fix>3d</fix>
</trkpt>
<trkpt lat="40.0728451" lon="-105.2305753">
  <ele>1595.43</ele>
  <time>2026-08-27T18:26:25Z</time>
  <course>152.42</course>
  <speed>0.01</speed>
  <fix>3d</fix>
</trkpt>
<trkpt lat="40.0728451" lon="-105.2305751">
  <ele>1595.51</ele>
  <time>2026-08-27T18:26:25Z</time>
  <course>47.29</course>
  <speed>0.0</speed>
  <fix>3d</fix>
</trkpt>
<trkpt lat="40.0728451" lon="-105.2305753">
  <ele>1595.33</ele>
  <time>2026-08-27T18:26:25Z</time>
  <course>152.45</course>
  <speed>0.02</speed>
  <fix>3d</fix>
</trkpt>
<trkpt lat="40.0728451" lon="-105.2305751">
  <ele>1595.4</ele>
  <time>2026-08-27T18:26:25Z</time>
  <course>22.06</course>
  <speed>0.0</speed>
  <fix>3d</fix>
</trkpt>
<trkpt lat="40.0728451" lon="-105.2305753">
  <ele>1595.23</ele>
  <time>2026-08-27T18:26:25Z</time>
  <course>152.46</course>
  <speed>0.02</speed>
  <fix>3d</fix>
</trkpt>
<trkpt lat="40.0728451" lon="-105.2305751">
  <ele>1595.31</ele>
  <time>2026-08-27T18:26:25Z</time>
  <course>286.13</course>
  <speed>0.0</speed>
  <fix>3d</fix>
</trkpt>
<trkpt lat="40.0728451" lon="-105.2305753">
  <ele>1595.13</ele>
  <time>2026-08-27T18:26:25Z</time>
  <course>152.47</course>
  <speed>0.02</speed>
  <fix>3d</fix>
</trkpt>
<trkpt lat="40.0728451" lon="-105.2305751">
  <ele>1595.21</ele>
  <time>2026-08-27T18:26:25Z</time>
  <course>258.52</course>
  <speed>0.0</speed>
  <fix>3d</fix>
</trkpt>
<trkpt lat="40.0728451" lon="-105.2305753">
  <ele>1595.03</ele>
  <time>2026-08-27T18:26:25Z</time>
  <course>152.49</course>
  <speed>0.03</speed>
  <fix>3d</fix>
</trkpt>
<trkpt lat="40.0728451" lon="-105.2305751">
  <ele>1595.11</ele>
  <time>2026-08-27T18:26:25Z</time>
  <course>251.17</course>
  <speed>0.01</speed>
  <fix>3d</fix>
</trkpt>
<trkpt lat="40.0728451" lon="-105.2305753">
  <ele>1594.93</ele>
  <time>2026-08-27T18:26:25Z</time>
  <course>152.5</course>
  <speed>0.03</speed>
  <fix>3d</fix>
</trkpt>
<trkpt lat="40.0728451" lon="-105.2305751">
  <ele>1595.01</ele>
  <time>2026-08-27T18:26:25Z</time>
  <course>248.25</course>
  <speed>0.01</speed>
  <fix>3d</fix>
</trkpt>
<trkpt lat="40.0728451" lon="-105.2305753">
  <ele>1594.83</ele>
  <time>2026-08-27T18:26:25Z</time>
  <course>152.52</course>
  <speed>0.03</speed>
  <fix>3d</fix>
</trkpt>
<trkpt lat="40.0728451" lon="-105.2305751">
  <ele>1594.9</ele>
  <time>2026-08-27T18:26:25Z</time>
  <course>246.81</course>
  <speed>0.01</speed>
  <fix>3d</fix>
</trkpt>
<trkpt lat="40.0728451" lon="-105.2305754">
  <ele>1594.73</ele>
  <time>2026-08-27T18:26:25Z</time>
  <course>152.53</course>
  <speed>0.03</speed>
  <fix>3d</fix>
</trkpt>
<trkpt lat="40.0728451" lon="-105.2305751">
  <ele>1594.81</ele>
  <time>2026-08-27T18:26:25Z</time>
  <course>245.71</course>
  <speed>0.02</speed>
  <fix>3d</fix>
</trkpt>
<trkpt lat="40.0728451" lon="-105.2305754">
  <ele>1594.63</ele>
  <time>2026-08-27T18:26:25Z</time>
  <course>152.56</course>
  <speed>0.03</speed>
  <fix>3d</fix>
</trkpt>
<trkpt lat="40.0728451" lon="-105.2305752">
  <ele>1594.71</ele>
  <time>2026-08-27T18:26:25Z</time>
  <course>244.96</course>
  <speed>0.02</speed>
  <fix>3d</fix>
</trkpt>
<trkpt lat="40.0728451" lon="-105.2305754">
  <ele>1594.53</ele>
  <time>2026-08-27T18:26:25Z</time>
  <course>152.57</course>
  <speed>0.03</speed>
  <fix>3d</fix>
</trkpt>
<trkpt lat="40.0728451" lon="-105.2305753">
  <ele>1594.61</ele>
  <time>2026-08-27T18:26:25Z</time>
  <course>244.46</course>
  <speed>0.02</speed>
  <fix>3d</fix>
</trkpt>
<trkpt lat="40.0728451" lon="-105.2305755">
  <ele>1594.43</ele>
  <time>2026-08-27T18:26:25Z</time>
  <course>152.57</course>
  <speed>0.03</speed>
  <fix>3d</fix>
</trkpt>
<trkpt lat="40.0728451" lon="-105.2305753">
  <ele>1594.51</ele>
  <time>2026-08-27T18:26:25Z</time>
  <course>244.04</course>
  <speed>0.02</speed>
  <fix>3d</fix>
</trkpt>
<trkpt lat="40.0728451" lon="-105.2305755">
  <ele>1594.33</ele>
  <time>2026-08-27T18:26:25Z</time>
  <course>152.61</course>
  <speed>0.03</speed>
  <fix>3d</fix>
</trkpt>
<trkpt lat="40.0728451" lon="-105.2305753">
  <ele>1594.4</ele>
  <time>2026-08-27T18:26:25Z</time>
  <course>243.57</course>
  <speed>0.02</speed>
  <fix>3d</fix>
</trkpt>
<trkpt lat="40.0728451" lon="-105.2305756">
  <ele>1594.23</ele>
  <time>2026-08-27T18:26:25Z</time>
  <course>152.61</course>
  <speed>0.03</speed>
  <fix>3d</fix>
</trkpt>
<trkpt lat="40.072845" lon="-105.2305754">
  <ele>1594.3</ele>
  <time>2026-08-27T18:26:25Z</time>
  <course>242.81</course>
  <speed>0.02</speed>
  <fix>3d</fix>
</trkpt>
<trkpt lat="40.0728451" lon="-105.2305756">
  <ele>1594.13</ele>
  <time>2026-08-27T18:26:25Z</time>
  <course>152.62</course>
  <speed>0.03</speed>
  <fix>3d</fix>
</trkpt>
<trkpt lat="40.072845" lon="-105.2305755">
  <ele>1594.2</ele>
  <time>2026-08-27T18:26:25Z</time>
  <course>241.63</course>
  <speed>0.02</speed>
  <fix>3d</fix>
</trkpt>
<trkpt lat="40.072845" lon="-105.2305757">
  <ele>1594.03</ele>
  <time>2026-08-27T18:26:25Z</time>
  <course>152.65</course>
  <speed>0.03</speed>
  <fix>3d</fix>
</trkpt>
<trkpt lat="40.072845" lon="-105.2305755">
  <ele>1594.1</ele>
  <time>2026-08-27T18:26:25Z</time>
  <course>240.21</course>
  <speed>0.02</speed>
  <fix>3d</fix>
</trkpt>
<trkpt lat="40.072845" lon="-105.2305757">
  <ele>1593.92</ele>
  <time>2026-08-27T18:26:25Z</time>
  <course>152.64</course>
  <speed>0.03</speed>
  <fix>3d</fix>
</trkpt>
<trkpt lat="40.072845" lon="-105.2305756">
  <ele>1594.0</ele>
  <time>2026-08-27T18:26:25Z</time>
  <course>239.05</course>
  <speed>0.02</speed>
  <fix>3d</fix>
</trkpt>
<trkpt lat="40.072845" lon="-105.2305757">
  <ele>1593.82</ele>
  <time>2026-08-27T18:26:25Z</time>
  <course>152.67</course>
  <speed>0.02</speed>
  <fix>3d</fix>
</trkpt>
<trkpt lat="40.072845" lon="-105.2305756">
  <ele>1593.89</ele>
  <time>2026-08-27T18:26:25Z</time>
  <course>237.99</course>
  <speed>0.02</speed>
  <fix>3d</fix>
</trkpt>
<trkpt lat="40.072845" lon="-105.2305758">
  <ele>1593.72</ele>
  <time>2026-08-27T18:26:25Z</time>
  <course>152.65</course>
  <speed>0.02</speed>
  <fix>3d</fix>
</trkpt>
<trkpt lat="40.072845" lon="-105.2305756">
  <ele>1593.8</ele>
  <time>2026-08-27T18:26:25Z</time>
  <course>236.5</course>
  <speed>0.01</speed>
  <fix>3d</fix>
</trkpt>
<trkpt lat="40.072845" lon="-105.2305758">
  <ele>1593.63</ele>
  <time>2026-08-27T18:26:25Z</time>
  <course>152.67</course>
  <speed>0.02</speed>
  <fix>3d</fix>
</trkpt>
<trkpt lat="40.072845" lon="-105.2305756">
  <ele>1593.7</ele>
  <time>2026-08-27T18:26:25Z</time>
  <course>234.22</course>
  <speed>0.01</speed>
  <fix>3d</fix>
</trkpt>
<trkpt lat="40.072845" lon="-105.2305758">
  <ele>1593.53</ele>
  <time>2026-08-27T18:26:25Z</time>
  <course>152.7</course>
  <speed>0.02</speed>
  <fix>3d</fix>
</trkpt>
<trkpt lat="40.072845" lon="-105.2305757">
  <ele>1593.6</ele>
  <time>2026-08-27T18:26:25Z</time>
  <course>230.56</course>
  <speed>0.01</speed>
  <fix>3d</fix>
</trkpt>
<trkpt lat="40.072845" lon="-105.2305758">
  <ele>1593.43</ele>
  <time>2026-08-27T18:26:25Z</time>
  <course>152.72</course>
  <speed>0.02</speed>
  <fix>3d</fix>
</trkpt>
<trkpt lat="40.072845" lon="-105.2305758">
  <ele>1593.5</ele>
  <time>2026-08-27T18:26:25Z</time>
  <course>225.69</course>
  <speed>0.01</speed>
  <fix>3d</fix>
</trkpt>
<trkpt lat="40.072845" lon="-105.2305758">
  <ele>1593.33</ele>
  <time>2026-08-27T18:26:25Z</time>
  <course>152.72</course>
  <speed>0.01</speed>
  <fix>3d</fix>
</trkpt>
<trkpt lat="40.072845" lon="-105.2305758">
  <ele>1593.39</ele>
  <time>2026-08-27T18:26:25Z</time>
  <course>218.99</course>
  <speed>0.0</speed>
  <fix>3d</fix>
</trkpt>
<trkpt lat="40.072845" lon="-105.2305758">
  <ele>1593.24</ele>
  <time>2026-08-27T18:26:25Z</time>
  <course>152.75</course>
  <speed>0.01</speed>
  <fix>3d</fix>
</trkpt>
<trkpt lat="40.072845" lon="-105.2305758">
  <ele>1593.3</ele>
  <time>2026-08-27T18:26:25Z</time>
  <course>209.26</course>
  <speed>0.0</speed>
  <fix>3d</fix>
</trkpt>
<trkpt lat="40.072845" lon="-105.2305759">
  <ele>1593.14</ele>
  <time>2026-08-27T18:26:25Z</time>
  <course>152.77</course>
  <speed>0.01</speed>
  <fix>3d</fix>
</trkpt>
<trkpt lat="40.0728449" lon="-105.2305758">
  <ele>1593.2</ele>
  <time>2026-08-27T18:26:25Z</time>
  <course>195.1</course>
  <speed>0.0</speed>
  <fix>3d</fix>
</trkpt>
<trkpt lat="40.072845" lon="-105.2305759">
  <ele>1593.04</ele>
  <time>2026-08-27T18:26:25Z</time>
  <course>152.78</course>
  <speed>0.01</speed>
  <fix>3d</fix>
</trkpt>
<trkpt lat="40.0728449" lon="-105.2305758">
  <ele>1593.09</ele>
  <time>2026-08-27T18:26:25Z</time>
  <course>177.08</course>
  <speed>0.0</speed>
  <fix>3d</fix>
</trkpt>
<trkpt lat="40.072845" lon="-105.2305759">
  <ele>1592.94</ele>
  <time>2026-08-27T18:26:25Z</time>
  <course>152.8</course>
  <speed>0.01</speed>
  <fix>3d</fix>
</trkpt>
<trkpt lat="40.0728449" lon="-105.2305758">
  <ele>1592.99</ele>
  <time>2026-08-27T18:26:25Z</time>
  <course>162.55</course>
  <speed>0.0</speed>
  <fix>3d</fix>
</trkpt>
<trkpt lat="40.072845" lon="-105.2305759">
  <ele>1592.84</ele>
  <time>2026-08-27T18:26:25Z</time>
  <course>152.79</course>
  <speed>0.01</speed>
  <fix>3d</fix>
</trkpt>
<trkpt lat="40.0728449" lon="-105.2305758">
  <ele>1592.88</ele>
  <time>2026-08-27T18:26:25Z</time>
  <course>151.03</course>
  <speed>0.0</speed>
  <fix>3d</fix>
</trkpt>
<trkpt lat="40.072845" lon="-105.2305759">
  <ele>1592.74</ele>
  <time>2026-08-27T18:26:25Z</time>
  <course>152.81</course>
  <speed>0.01</speed>
  <fix>3d</fix>
</trkpt>
<trkpt lat="40.0728449" lon="-105.2305758">
  <ele>1592.79</ele>
  <time>2026-08-27T18:26:25Z</time>
  <course>139.18</course>
  <speed>0.0</speed>
  <fix>3d</fix>
</trkpt>
<trkpt lat="40.072845" lon="-105.2305759">
  <ele>1592.63</ele>
  <time>2026-08-27T18:26:25Z</time>
  <course>152.81</course>
  <speed>0.01</speed>
  <fix>3d</fix>
</trkpt>
<trkpt lat="40.0728449" lon="-105.2305758">
  <ele>1592.68</ele>
  <time>2026-08-27T18:26:25Z</time>
  <course>127.99</course>
  <speed>0.0</speed>
  <fix>3d</fix>
</trkpt>
<trkpt lat="40.072845" lon="-105.2305759">
  <ele>1592.53</ele>
  <time>2026-08-27T18:26:25Z</time>
  <course>152.83</course>
  <speed>0.01</speed>
  <fix>3d</fix>
</trkpt>
<trkpt lat="40.0728449" lon="-105.2305758">
  <ele>1592.58</ele>
  <time>2026-08-27T18:26:25Z</time>
  <course>118.05</course>
  <speed>0.0</speed>
  <fix>3d</fix>
</trkpt>
<trkpt lat="40.072845" lon="-105.2305759">
  <ele>1592.42</ele>
  <time>2026-08-27T18:26:25Z</time>
  <course>152.81</course>
  <speed>0.01</speed>
  <fix>3d</fix>
</trkpt>
<trkpt lat="40.0728449" lon="-105.2305758">
  <ele>1592.48</ele>
  <time>2026-08-27T18:26:25Z</time>
  <course>111.26</course>
  <speed>0.0</speed>
  <fix>3d</fix>
</trkpt>
<trkpt lat="40.072845" lon="-105.2305759">
  <ele>1592.32</ele>
  <time>2026-08-27T18:26:25Z</time>
  <course>152.84</course>
  <speed>0.01</speed>
  <fix>3d</fix>
</trkpt>
<trkpt lat="40.0728449" lon="-105.2305758">
  <ele>1592.38</ele>
  <time>2026-08-27T18:26:25Z</time>
  <course>106.53</course>
  <speed>0.0</speed>
  <fix>3d</fix>
</trkpt>
<trkpt lat="40.072845" lon="-105.2305759">
  <ele>1592.22</ele>
  <time>2026-08-27T18:26:25Z</time>
  <course>152.83</course>
  <speed>0.01</speed>
  <fix>3d</fix>
</trkpt>
<trkpt lat="40.0728449" lon="-105.2305758">
  <ele>1592.28</ele>
  <time>2026-08-27T18:26:25Z</time>
  <course>102.89</course>
  <speed>0.0</speed>
  <fix>3d</fix>
</trkpt>
<trkpt lat="40.072845" lon="-105.2305759">
  <ele>1592.12</ele>
  <time>2026-08-27T18:26:25Z</time>
  <course>152.86</course>
  <speed>0.01</speed>
  <fix>3d</fix>
</trkpt>
<trkpt lat="40.0728449" lon="-105.2305758">
  <ele>1592.17</ele>
  <time>2026-08-27T18:26:25Z</time>
  <course>99.94</course>
  <speed>0.0</speed>
  <fix>3d</fix>
</trkpt>
<trkpt lat="40.072845" lon="-105.2305759">
  <ele>1592.03</ele>
  <time>2026-08-27T18:26:25Z</time>
  <course>152.86</course>
  <speed>0.01</speed>
  <fix>3d</fix>
</trkpt>
<trkpt lat="40.0728449" lon="-105.2305757">
  <ele>1592.08</ele>
  <time>2026-08-27T18:26:25Z</time>
  <course>97.12</course>
  <speed>0.0</speed>
  <fix>3d</fix>
</trkpt>
<trkpt lat="40.072845" lon="-105.2305759">
  <ele>1591.93</ele>
  <time>2026-08-27T18:26:25Z</time>
  <course>152.87</course>
  <speed>0.01</speed>
  <fix>3d</fix>
</trkpt>
<trkpt lat="40.0728449" lon="-105.2305756">
  <ele>1591.98</ele>
  <time>2026-08-27T18:26:25Z</time>
  <course>95.69</course>
  <speed>0.0</speed>
  <fix>3d</fix>
</trkpt>
<trkpt lat="40.072845" lon="-105.2305758">
  <ele>1591.83</ele>
  <time>2026-08-27T18:26:25Z</time>
  <course>152.88</course>
  <speed>0.01</speed>
  <fix>3d</fix>
</trkpt>
<trkpt lat="40.0728449" lon="-105.2305756">
  <ele>1591.88</ele>
  <time>2026-08-27T18:26:25Z</time>
  <course>94.21</course>
  <speed>0.0</speed>
  <fix>3d</fix>
</trkpt>
<trkpt lat="40.072845" lon="-105.2305758">
  <ele>1591.73</ele>
  <time>2026-08-27T18:26:25Z</time>
  <course>152.89</course>
  <speed>0.01</speed>
  <fix>3d</fix>
</trkpt>
<trkpt lat="40.0728449" lon="-105.2305756">
  <ele>1591.77</ele>
  <time>2026-08-27T18:26:25Z</time>
  <course>92.16</course>
  <speed>0.0</speed>
  <fix>3d</fix>
</trkpt>
<trkpt lat="40.072845" lon="-105.2305758">
  <ele>1591.63</ele>
  <time>2026-08-27T18:26:25Z</time>
  <course>152.92</course>
  <speed>0.01</speed>
  <fix>3d</fix>
</trkpt>
<trkpt lat="40.0728449" lon="-105.2305756">
  <ele>1591.66</ele>
  <time>2026-08-27T18:26:25Z</time>
  <course>92.03</course>
  <speed>0.0</speed>
  <fix>3d</fix>
</trkpt>
<trkpt lat="40.072845" lon="-105.2305758">
  <ele>1591.53</ele>
  <time>2026-08-27T18:26:25Z</time>
  <course>152.91</course>
  <speed>0.01</speed>
  <fix>3d</fix>
</trkpt>
<trkpt lat="40.0728449" lon="-105.2305756">
  <ele>1591.57</ele>
  <time>2026-08-27T18:26:25Z</time>
  <course>93.11</course>
  <speed>0.0</speed>
  <fix>3d</fix>
</trkpt>
<trkpt lat="40.072845" lon="-105.2305758">
  <ele>1591.43</ele>
  <time>2026-08-27T18:26:25Z</time>
  <course>152.91</course>
  <speed>0.01</speed>
  <fix>3d</fix>
</trkpt>
<trkpt lat="40.0728449" lon="-105.2305756">
  <ele>1591.47</ele>
  <time>2026-08-27T18:26:25Z</time>
  <course>91.94</course>
  <speed>0.0</speed>
  <fix>3d</fix>
</trkpt>
<trkpt lat="40.072845" lon="-105.2305758">
  <ele>1591.33</ele>
  <time>2026-08-27T18:26:25Z</time>
  <course>152.93</course>
  <speed>0.01</speed>
  <fix>3d</fix>
</trkpt>
<trkpt lat="40.0728449" lon="-105.2305756">
  <ele>1591.37</ele>
  <time>2026-08-27T18:26:25Z</time>
  <course>90.65</course>
  <speed>0.0</speed>
  <fix>3d</fix>
</trkpt>
<trkpt lat="40.072845" lon="-105.2305757">
  <ele>1591.23</ele>
  <time>2026-08-27T18:26:25Z</time>
  <course>152.95</course>
  <speed>0.01</speed>
  <fix>3d</fix>
</trkpt>
<trkpt lat="40.0728449" lon="-105.2305756">
  <ele>1591.27</ele>
  <time>2026-08-27T18:26:25Z</time>
  <course>91.47</course>
  <speed>0.0</speed>
  <fix>3d</fix>
</trkpt>
<trkpt lat="40.072845" lon="-105.2305757">
  <ele>1591.13</ele>
  <time>2026-08-27T18:26:25Z</time>
  <course>152.94</course>
  <speed>0.01</speed>
  <fix>3d</fix>
</trkpt>
<trkpt lat="40.0728449" lon="-105.2305756">
  <ele>1591.16</ele>
  <time>2026-08-27T18:26:25Z</time>
  <course>94.03</course>
  <speed>0.0</speed>
  <fix>3d</fix>
</trkpt>
<trkpt lat="40.072845" lon="-105.2305757">
  <ele>1591.02</ele>
  <time>2026-08-27T18:26:25Z</time>
  <course>152.95</course>
  <speed>0.01</speed>
  <fix>3d</fix>
</trkpt>
<trkpt lat="40.0728449" lon="-105.2305756">
  <ele>1591.07</ele>
  <time>2026-08-27T18:26:25Z</time>
  <course>93.32</course>
  <speed>0.0</speed>
  <fix>3d</fix>
</trkpt>
<trkpt lat="40.072845" lon="-105.2305757">
  <ele>1590.92</ele>
  <time>2026-08-27T18:26:25Z</time>
  <course>152.95</course>
  <speed>0.01</speed>
  <fix>3d</fix>
</trkpt>
<trkpt lat="40.0728449" lon="-105.2305756">
  <ele>1590.96</ele>
  <time>2026-08-27T18:26:25Z</time>
  <course>99.73</course>
  <speed>0.0</speed>
  <fix>3d</fix>
</trkpt>
<trkpt lat="40.072845" lon="-105.2305757">
  <ele>1590.82</ele>
  <time>2026-08-27T18:26:25Z</time>
  <course>152.94</course>
  <speed>0.02</speed>
  <fix>3d</fix>
</trkpt>
<trkpt lat="40.0728449" lon="-105.2305756">
  <ele>1590.86</ele>
  <time>2026-08-27T18:26:25Z</time>
  <course>124.83</course>
  <speed>0.0</speed>
  <fix>3d</fix>
</trkpt>
<trkpt lat="40.072845" lon="-105.2305757">
  <ele>1590.72</ele>
  <time>2026-08-27T18:26:25Z</time>
  <course>152.92</course>
  <speed>0.01</speed>
  <fix>3d</fix>
</trkpt>
<trkpt lat="40.0728449" lon="-105.2305756">
  <ele>1590.76</ele>
  <time>2026-08-27T18:26:25Z</time>
  <course>309.75</course>
  <speed>0.0</speed>
  <fix>3d</fix>
</trkpt>
<trkpt lat="40.072845" lon="-105.2305757">
  <ele>1590.62</ele>
  <time>2026-08-27T18:26:25Z</time>
  <course>152.96</course>
  <speed>0.02</speed>
  <fix>3d</fix>
</trkpt>
<trkpt lat="40.0728449" lon="-105.2305756">
  <ele>1590.66</ele>
  <time>2026-08-27T18:26:25Z</time>
  <course>15.49</course>
  <speed>0.0</speed>
  <fix>3d</fix>
</trkpt>
<trkpt lat="40.072845" lon="-105.2305757">
  <ele>1590.52</ele>
  <time>2026-08-27T18:26:25Z</time>
  <course>152.96</course>
  <speed>0.01</speed>
  <fix>3d</fix>
</trkpt>
<trkpt lat="40.0728449" lon="-105.2305756">
  <ele>1590.57</ele>
  <time>2026-08-27T18:26:25Z</time>
  <course>28.61</course>
  <speed>0.0</speed>
  <fix>3d</fix>
</trkpt>
<trkpt lat="40.072845" lon="-105.2305757">
  <ele>1590.42</ele>
  <time>2026-08-27T18:26:25Z</time>
  <course>152.99</course>
  <speed>0.01</speed>
  <fix>3d</fix>
</trkpt>
<trkpt lat="40.0728449" lon="-105.2305756">
  <ele>1590.47</ele>
  <time>2026-08-27T18:26:25Z</time>
  <course>15.19</course>
  <speed>0.0</speed>
  <fix>3d</fix>
</trkpt>
<trkpt lat="40.072845" lon="-105.2305757">
  <ele>1590.32</ele>
  <time>2026-08-27T18:26:25Z</time>
  <course>153.0</course>
  <speed>0.01</speed>
  <fix>3d</fix>
</trkpt>
<trkpt lat="40.0728449" lon="-105.2305756">
  <ele>1590.37</ele>
  <time>2026-08-27T18:26:25Z</time>
  <course>6.41</course>
  <speed>0.0</speed>
  <fix>3d</fix>
</trkpt>
<trkpt lat="40.072845" lon="-105.2305757">
  <ele>1590.22</ele>
  <time>2026-08-27T18:26:25Z</time>
  <course>152.99</course>
  <speed>0.01</speed>
  <fix>3d</fix>
</trkpt>
<trkpt lat="40.0728449" lon="-105.2305756">
  <ele>1590.27</ele>
  <time>2026-08-27T18:26:25Z</time>
  <course>345.75</course>
  <speed>0.0</speed>
  <fix>3d</fix>
</trkpt>
<trkpt lat="40.072845" lon="-105.2305757">
  <ele>1590.12</ele>
  <time>2026-08-27T18:26:25Z</time>
  <course>152.99</course>
  <speed>0.02</speed>
  <fix>3d</fix>
</trkpt>
<trkpt lat="40.0728449" lon="-105.2305756">
  <ele>1590.16</ele>
  <time>2026-08-27T18:26:25Z</time>
  <course>343.59</course>
  <speed>0.0</speed>
  <fix>3d</fix>
</trkpt>
<trkpt lat="40.072845" lon="-105.2305757">
  <ele>1590.02</ele>
  <time>2026-08-27T18:26:25Z</time>
  <course>153.02</course>
  <speed>0.01</speed>
  <fix>3d</fix>
</trkpt>
<trkpt lat="40.0728449" lon="-105.2305756">
  <ele>1590.07</ele>
  <time>2026-08-27T18:26:25Z</time>
  <course>347.3</course>
  <speed>0.0</speed>
  <fix>3d</fix>
</trkpt>
<trkpt lat="40.072845" lon="-105.2305757">
  <ele>1589.92</ele>
  <time>2026-08-27T18:26:25Z</time>
  <course>153.02</course>
  <speed>0.01</speed>
  <fix>3d</fix>
</trkpt>
<trkpt lat="40.0728449" lon="-105.2305756">
  <ele>1589.97</ele>
  <time>2026-08-27T18:26:25Z</time>
  <course>342.02</course>
  <speed>0.0</speed>
  <fix>3d</fix>
</trkpt>
<trkpt lat="40.072845" lon="-105.2305757">
  <ele>1589.82</ele>
  <time>2026-08-27T18:26:25Z</time>
  <course>153.02</course>
  <speed>0.01</speed>
  <fix>3d</fix>
</trkpt>
<trkpt lat="40.0728449" lon="-105.2305756">
  <ele>1589.87</ele>
  <time>2026-08-27T18:26:25Z</time>
  <course>335.92</course>
  <speed>0.0</speed>
  <fix>3d</fix>
</trkpt>
<trkpt lat="40.072845" lon="-105.2305757">
  <ele>1589.73</ele>
  <time>2026-08-27T18:26:25Z</time>
  <course>153.04</course>
  <speed>0.01</speed>
  <fix>3d</fix>
</trkpt>
<trkpt lat="40.0728449" lon="-105.2305756">
  <ele>1589.77</ele>
  <time>2026-08-27T18:26:25Z</time>
  <course>332.91</course>
  <speed>0.0</speed>
  <fix>3d</fix>
</trkpt>
<trkpt lat="40.072845" lon="-105.2305757">
  <ele>1589.63</ele>
  <time>2026-08-27T18:26:25Z</time>
  <course>153.04</course>
  <speed>0.01</speed>
  <fix>3d</fix>
</trkpt>
<trkpt lat="40.0728449" lon="-105.2305756">
  <ele>1589.67</ele>
  <time>2026-08-27T18:26:25Z</time>
  <course>325.24</course>
  <speed>0.0</speed>
  <fix>3d</fix>
</trkpt>
<trkpt lat="40.072845" lon="-105.2305757">
  <ele>1589.53</ele>
  <time>2026-08-27T18:26:25Z</time>
  <course>153.05</course>
  <speed>0.01</speed>
  <fix>3d</fix>
</trkpt>
<trkpt lat="40.0728449" lon="-105.2305756">
  <ele>1589.58</ele>
  <time>2026-08-27T18:26:25Z</time>
  <course>323.32</course>
  <speed>0.0</speed>
  <fix>3d</fix>
</trkpt>
<trkpt lat="40.072845" lon="-105.2305757">
  <ele>1589.43</ele>
  <time>2026-08-27T18:26:25Z</time>
  <course>153.06</course>
  <speed>0.01</speed>
  <fix>3d</fix>
</trkpt>
<trkpt lat="40.0728449" lon="-105.2305756">
  <ele>1589.47</ele>
  <time>2026-08-27T18:26:25Z</time>
  <course>323.64</course>
  <speed>0.0</speed>
  <fix>3d</fix>
</trkpt>
<trkpt lat="40.072845" lon="-105.2305757">
  <ele>1589.33</ele>
  <time>2026-08-27T18:26:25Z</time>
  <course>153.06</course>
  <speed>0.01</speed>
  <fix>3d</fix>
</trkpt>
<trkpt lat="40.0728449" lon="-105.2305756">
  <ele>1589.37</ele>
  <time>2026-08-27T18:26:25Z</time>
  <course>315.44</course>
  <speed>0.0</speed>
  <fix>3d</fix>
</trkpt>
<trkpt lat="40.072845" lon="-105.2305757">
  <ele>1589.23</ele>
  <time>2026-08-27T18:26:25Z</time>
  <course>153.05</course>
  <speed>0.01</speed>
  <fix>3d</fix>
</trkpt>
<trkpt lat="40.0728449" lon="-105.2305756">
  <ele>1589.27</ele>
  <time>2026-08-27T18:26:25Z</time>
  <course>310.51</course>
  <speed>0.0</speed>
  <fix>3d</fix>
</trkpt>
<trkpt lat="40.072845" lon="-105.2305757">
  <ele>1589.13</ele>
  <time>2026-08-27T18:26:25Z</time>
  <course>153.07</course>
  <speed>0.01</speed>
  <fix>3d</fix>
</trkpt>
<trkpt lat="40.0728449" lon="-105.2305756">
  <ele>1589.16</ele>
  <time>2026-08-27T18:26:25Z</time>
  <course>310.53</course>
  <speed>0.0</speed>
  <fix>3d</fix>
</trkpt>
<trkpt lat="40.072845" lon="-105.2305757">
  <ele>1589.03</ele>
  <time>2026-08-27T18:26:25Z</time>
  <course>153.08</course>
  <speed>0.01</speed>
  <fix>3d</fix>
</trkpt>
<trkpt lat="40.0728449" lon="-105.2305756">
  <ele>1589.07</ele>
  <time>2026-08-27T18:26:25Z</time>
  <course>310.39</course>
  <speed>0.0</speed>
  <fix>3d</fix>
</trkpt>
<trkpt lat="40.072845" lon="-105.2305757">
  <ele>1588.93</ele>
  <time>2026-08-27T18:26:25Z</time>
  <course>153.09</course>
  <speed>0.01</speed>
  <fix>3d</fix>
</trkpt>
<trkpt lat="40.0728449" lon="-105.2305756">
  <ele>1588.97</ele>
  <time>2026-08-27T18:26:25Z</time>
  <course>308.5</course>
  <speed>0.0</speed>
  <fix>3d</fix>
</trkpt>
<trkpt lat="40.072845" lon="-105.2305757">
  <ele>1588.83</ele>
  <time>2026-08-27T18:26:25Z</time>
  <course>153.09</course>
  <speed>0.01</speed>
  <fix>3d</fix>
</trkpt>
<trkpt lat="40.0728449" lon="-105.2305756">
  <ele>1588.87</ele>
  <time>2026-08-27T18:26:25Z</time>
  <course>305.0</course>
  <speed>0.0</speed>
  <fix>3d</fix>
</trkpt>
<trkpt lat="40.072845" lon="-105.2305757">
  <ele>1588.73</ele>
  <time>2026-08-27T18:26:25Z</time>
  <course>153.1</course>
  <speed>0.01</speed>
  <fix>3d</fix>
</trkpt>
<trkpt lat="40.0728449" lon="-105.2305756">
  <ele>1588.77</ele>
  <time>2026-08-27T18:26:25Z</time>
  <course>305.67</course>
  <speed>0.0</speed>
  <fix>3d</fix>
</trkpt>
<trkpt lat="40.072845" lon="-105.2305757">
  <ele>1588.63</ele>
  <time>2026-08-27T18:26:25Z</time>
  <course>153.09</course>
  <speed>0.01</speed>
  <fix>3d</fix>
</trkpt>
<trkpt lat="40.0728449" lon="-105.2305756">
  <ele>1588.66</ele>
  <time>2026-08-27T18:26:25Z</time>
  <course>307.61</course>
  <speed>0.0</speed>
  <fix>3d</fix>
</trkpt>
<trkpt lat="40.072845" lon="-105.2305757">
  <ele>1588.54</ele>
  <time>2026-08-27T18:26:26Z</time>
  <course>153.1</course>
  <speed>0.01</speed>
  <fix>3d</fix>
</trkpt>
<trkpt lat="40.0728449" lon="-105.2305756">
  <ele>1588.56</ele>
  <time>2026-08-27T18:26:26Z</time>
  <course>310.56</course>
  <speed>0.0</speed>
  <fix>3d</fix>
</trkpt>
<trkpt lat="40.072845" lon="-105.2305757">
  <ele>1588.43</ele>
  <time>2026-08-27T18:26:26Z</time>
  <course>153.12</course>
  <speed>0.01</speed>
  <fix>3d</fix>
</trkpt>
<trkpt lat="40.0728449" lon="-105.2305756">
  <ele>1588.46</ele>
  <time>2026-08-27T18:26:26Z</time>
  <course>315.62</course>
  <speed>0.0</speed>
  <fix>3d</fix>
</trkpt>
<trkpt lat="40.072845" lon="-105.2305757">
  <ele>1588.33</ele>
  <time>2026-08-27T18:26:26Z</time>
  <course>153.11</course>
  <speed>0.01</speed>
  <fix>3d</fix>
</trkpt>
<trkpt lat="40.0728449" lon="-105.2305756">
  <ele>1588.36</ele>
  <time>2026-08-27T18:26:26Z</time>
  <course>315.38</course>
  <speed>0.0</speed>
  <fix>3d</fix>
</trkpt>
<trkpt lat="40.072845" lon="-105.2305757">
  <ele>1588.23</ele>
  <time>2026-08-27T18:26:26Z</time>
  <course>153.1</course>
  <speed>0.01</speed>
  <fix>3d</fix>
</trkpt>
<trkpt lat="40.0728449" lon="-105.2305756">
  <ele>1588.26</ele>
  <time>2026-08-27T18:26:26Z</time>
  <course>309.89</course>
  <speed>0.0</speed>
  <fix>3d</fix>
</trkpt>
<trkpt lat="40.072845" lon="-105.2305757">
  <ele>1588.12</ele>
  <time>2026-08-27T18:26:26Z</time>
  <course>153.11</course>
  <speed>0.01</speed>
  <fix>3d</fix>
</trkpt>
<trkpt lat="40.0728449" lon="-105.2305756">
  <ele>1588.15</ele>
  <time>2026-08-27T18:26:26Z</time>
  <course>305.19</course>
  <speed>0.0</speed>
  <fix>3d</fix>
</trkpt>
<trkpt lat="40.072845" lon="-105.2305757">
  <ele>1588.02</ele>
  <time>2026-08-27T18:26:26Z</time>
  <course>153.1</course>
  <speed>0.01</speed>
  <fix>3d</fix>
</trkpt>
<trkpt lat="40.0728449" lon="-105.2305756">
  <ele>1588.05</ele>
  <time>2026-08-27T18:26:26Z</time>
  <course>305.09</course>
  <speed>0.0</speed>
  <fix>3d</fix>
</trkpt>
<trkpt lat="40.072845" lon="-105.2305757">
  <ele>1587.92</ele>
  <time>2026-08-27T18:26:26Z</time>
  <course>153.12</course>
  <speed>0.01</speed>
  <fix>3d</fix>
</trkpt>
<trkpt lat="40.0728449" lon="-105.2305756">
  <ele>1587.95</ele>
  <time>2026-08-27T18:26:26Z</time>
  <course>307.66</course>
  <speed>0.0</speed>
  <fix>3d</fix>
</trkpt>
<trkpt lat="40.072845" lon="-105.2305757">
  <ele>1587.82</ele>
  <time>2026-08-27T18:26:26Z</time>
  <course>153.1</course>
  <speed>0.01</speed>
  <fix>3d</fix>
</trkpt>
<trkpt lat="40.0728449" lon="-105.2305756">
  <ele>1587.85</ele>
  <time>2026-08-27T18:26:26Z</time>
  <course>311.22</course>
  <speed>0.0</speed>
  <fix>3d</fix>
</trkpt>
<trkpt lat="40.072845" lon="-105.2305757">
  <ele>1587.72</ele>
  <time>2026-08-27T18:26:26Z</time>
  <course>153.11</course>
  <speed>0.01</speed>
  <fix>3d</fix>
</trkpt>
<trkpt lat="40.0728449" lon="-105.2305756">
  <ele>1587.75</ele>
  <time>2026-08-27T18:26:26Z</time>
  <course>315.22</course>
  <speed>0.0</speed>
  <fix>3d</fix>
</trkpt>
<trkpt lat="40.072845" lon="-105.2305757">
  <ele>1587.62</ele>
  <time>2026-08-27T18:26:26Z</time>
  <course>153.12</course>
  <speed>0.01</speed>
  <fix>3d</fix>
</trkpt>
<trkpt lat="40.0728449" lon="-105.2305756">
  <ele>1587.65</ele>
  <time>2026-08-27T18:26:26Z</time>
  <course>322.8</course>
  <speed>0.0</speed>
  <fix>3d</fix>
</trkpt>
<trkpt lat="40.072845" lon="-105.2305757">
  <ele>1587.52</ele>
  <time>2026-08-27T18:26:26Z</time>
  <course>153.11</course>
  <speed>0.01</speed>
  <fix>3d</fix>
</trkpt>
<trkpt lat="40.0728449" lon="-105.2305756">
  <ele>1587.56</ele>
  <time>2026-08-27T18:26:26Z</time>
  <course>323.39</course>
  <speed>0.0</speed>
  <fix>3d</fix>
</trkpt>
<trkpt lat="40.072845" lon="-105.2305757">
  <ele>1587.42</ele>
  <time>2026-08-27T18:26:26Z</time>
  <course>153.14</course>
  <speed>0.01</speed>
  <fix>3d</fix>
</trkpt>
<trkpt lat="40.0728449" lon="-105.2305756">
  <ele>1587.46</ele>
  <time>2026-08-27T18:26:26Z</time>
  <course>320.0</course>
  <speed>0.0</speed>
  <fix>3d</fix>
</trkpt>
<trkpt lat="40.072845" lon="-105.2305757">
  <ele>1587.32</ele>
  <time>2026-08-27T18:26:26Z</time>
  <course>153.12</course>
  <speed>0.01</speed>
  <fix>3d</fix>
</trkpt>
<trkpt lat="40.0728449" lon="-105.2305756">
  <ele>1587.36</ele>
  <time>2026-08-27T18:26:26Z</time>
  <course>316.55</course>
  <speed>0.0</speed>
  <fix>3d</fix>
</trkpt>
<trkpt lat="40.072845" lon="-105.2305757">
  <ele>1587.22</ele>
  <time>2026-08-27T18:26:26Z</time>
  <course>153.13</course>
  <speed>0.01</speed>
  <fix>3d</fix>
</trkpt>
<trkpt lat="40.0728449" lon="-105.2305756">
  <ele>1587.26</ele>
  <time>2026-08-27T18:26:26Z</time>
  <course>316.37</course>
  <speed>0.0</speed>
  <fix>3d</fix>
</trkpt>
<trkpt lat="40.072845" lon="-105.2305757">
  <ele>1587.12</ele>
  <time>2026-08-27T18:26:26Z</time>
  <course>153.15</course>
  <speed>0.01</speed>
  <fix>3d</fix>
</trkpt>
<trkpt lat="40.0728449" lon="-105.2305756">
  <ele>1587.15</ele>
  <time>2026-08-27T18:26:26Z</time>
  <course>319.2</course>
  <speed>0.0</speed>
  <fix>3d</fix>
</trkpt>
<trkpt lat="40.072845" lon="-105.2305757">
  <ele>1587.02</ele>
  <time>2026-08-27T18:26:26Z</time>
  <course>153.13</course>
  <speed>0.01</speed>
  <fix>3d</fix>
</trkpt>
<trkpt lat="40.0728449" lon="-105.2305756">
  <ele>1587.06</ele>
  <time>2026-08-27T18:26:26Z</time>
  <course>315.95</course>
  <speed>0.0</speed>
  <fix>3d</fix>
</trkpt>
<trkpt lat="40.072845" lon="-105.2305757">
  <ele>1586.92</ele>
  <time>2026-08-27T18:26:26Z</time>
  <course>153.16</course>
  <speed>0.01</speed>
  <fix>3d</fix>
</trkpt>
<trkpt lat="40.0728449" lon="-105.2305756">
  <ele>1586.96</ele>
  <time>2026-08-27T18:26:26Z</time>
  <course>315.0</course>
  <speed>0.0</speed>
  <fix>3d</fix>
</trkpt>
<trkpt lat="40.072845" lon="-105.2305757">
  <ele>1586.82</ele>
  <time>2026-08-27T18:26:26Z</time>
  <course>153.15</course>
  <speed>0.01</speed>
  <fix>3d</fix>
</trkpt>
<trkpt lat="40.0728449" lon="-105.2305756">
  <ele>1586.86</ele>
  <time>2026-08-27T18:26:26Z</time>
  <course>311.37</course>
  <speed>0.0</speed>
  <fix>3d</fix>
</trkpt>
<trkpt lat="40.072845" lon="-105.2305757">
  <ele>1586.72</ele>
  <time>2026-08-27T18:26:26Z</time>
  <course>153.17</course>
  <speed>0.01</speed>
  <fix>3d</fix>
</trkpt>
<trkpt lat="40.0728449" lon="-105.2305756">
  <ele>1586.77</ele>
  <time>2026-08-27T18:26:26Z</time>
  <course>307.88</course>
  <speed>0.0</speed>
  <fix>3d</fix>
</trkpt>
<trkpt lat="40.072845" lon="-105.2305757">
  <ele>1586.62</ele>
  <time>2026-08-27T18:26:26Z</time>
  <course>153.14</course>
  <speed>0.01</speed>
  <fix>3d</fix>
</trkpt>
<trkpt lat="40.0728449" lon="-105.2305756">
  <ele>1586.66</ele>
  <time>2026-08-27T18:26:26Z</time>
  <course>308.95</course>
  <speed>0.0</speed>
  <fix>3d</fix>
</trkpt>
<trkpt lat="40.072845" lon="-105.2305757">
  <ele>1586.52</ele>
  <time>2026-08-27T18:26:26Z</time>
  <course>153.15</course>
  <speed>0.01</speed>
  <fix>3d</fix>
</trkpt>
<trkpt lat="40.0728449" lon="-105.2305756">
  <ele>1586.57</ele>
  <time>2026-08-27T18:26:26Z</time>
  <course>310.28</course>
  <speed>0.0</speed>
  <fix>3d</fix>
</trkpt>
<trkpt lat="40.072845" lon="-105.2305757">
  <ele>1586.42</ele>
  <time>2026-08-27T18:26:26Z</time>
  <course>153.18</course>
  <speed>0.01</speed>
  <fix>3d</fix>
</trkpt>
<trkpt lat="40.0728449" lon="-105.2305756">
  <ele>1586.47</ele>
  <time>2026-08-27T18:26:26Z</time>
  <course>311.08</course>
  <speed>0.0</speed>
  <fix>3d</fix>
</trkpt>
<trkpt lat="40.072845" lon="-105.2305757">
  <ele>1586.32</ele>
  <time>2026-08-27T18:26:26Z</time>
  <course>153.16</course>
  <speed>0.01</speed>
  <fix>3d</fix>
</trkpt>
<trkpt lat="40.0728449" lon="-105.2305756">
  <ele>1586.37</ele>
  <time>2026-08-27T18:26:26Z</time>
  <course>305.37</course>
  <speed>0.0</speed>
  <fix>3d</fix>
</trkpt>
<trkpt lat="40.072845" lon="-105.2305757">
  <ele>1586.22</ele>
  <time>2026-08-27T18:26:26Z</time>
  <course>153.19</course>
  <speed>0.01</speed>
  <fix>3d</fix>
</trkpt>
<trkpt lat="40.0728449" lon="-105.2305756">
  <ele>1586.27</ele>
  <time>2026-08-27T18:26:26Z</time>
  <course>304.61</course>
  <speed>0.0</speed>
  <fix>3d</fix>
</trkpt>
<trkpt lat="40.072845" lon="-105.2305757">
  <ele>1586.13</ele>
  <time>2026-08-27T18:26:26Z</time>
  <course>153.17</course>
  <speed>0.01</speed>
  <fix>3d</fix>
</trkpt>
<trkpt lat="40.0728449" lon="-105.2305756">
  <ele>1586.16</ele>
  <time>2026-08-27T18:26:26Z</time>
  <course>304.44</course>
  <speed>0.0</speed>
  <fix>3d</fix>
</trkpt>
<trkpt lat="40.072845" lon="-105.2305757">
  <ele>1586.13</ele>
  <time>2026-08-27T18:26:26Z</time>
  <course>153.17</course>
  <speed>0.0</speed>
  <fix>3d</fix>
</trkpt>
<trkpt lat="40.0728449" lon="-105.2305756">
  <ele>1586.09</ele>
  <time>2026-08-27T18:26:26Z</time>
  <course>58.57</course>
  <speed>0.01</speed>
  <fix>3d</fix>
</trkpt>
<trkpt lat="40.072845" lon="-105.2305757">
  <ele>1586.15</ele>
  <time>2026-08-27T18:26:26Z</time>
  <course>153.17</course>
  <speed>0.02</speed>
  <fix>3d</fix>
</trkpt>
<trkpt lat="40.0728449" lon="-105.2305756">
  <ele>1586.07</ele>
  <time>2026-08-27T18:26:26Z</time>
  <course>69.88</course>
  <speed>0.01</speed>
  <fix>3d</fix>
</trkpt>
<trkpt lat="40.072845" lon="-105.2305757">
  <ele>1586.14</ele>
  <time>2026-08-27T18:26:26Z</time>
  <course>153.2</course>
  <speed>0.01</speed>
  <fix>3d</fix>
</trkpt>
<trkpt lat="40.0728449" lon="-105.2305756">
  <ele>1586.08</ele>
  <time>2026-08-27T18:26:26Z</time>
  <course>182.14</course>
  <speed>0.0</speed>
  <fix>3d</fix>
</trkpt>
<trkpt lat="40.072845" lon="-105.2305757">
  <ele>1586.14</ele>
  <time>2026-08-27T18:26:26Z</time>
  <course>153.24</course>
  <speed>0.01</speed>
  <fix>3d</fix>
</trkpt>
<trkpt lat="40.0728449" lon="-105.2305756">
  <ele>1586.09</ele>
  <time>2026-08-27T18:26:26Z</time>
  <course>242.42</course>
  <speed>0.0</speed>
  <fix>3d</fix>
</trkpt>
<trkpt lat="40.072845" lon="-105.2305757">
  <ele>1586.14</ele>
  <time>2026-08-27T18:26:26Z</time>
  <course>153.28</course>
  <speed>0.01</speed>
  <fix>3d</fix>
</trkpt>
<trkpt lat="40.0728449" lon="-105.2305756">
  <ele>1586.08</ele>
  <time>2026-08-27T18:26:26Z</time>
  <course>96.7</course>
  <speed>0.0</speed>
  <fix>3d</fix>
</trkpt>
<trkpt lat="40.072845" lon="-105.2305757">
  <ele>1586.14</ele>
  <time>2026-08-27T18:26:26Z</time>
  <course>153.3</course>
  <speed>0.01</speed>
  <fix>3d</fix>
</trkpt>
<trkpt lat="40.0728449" lon="-105.2305756">
  <ele>1586.08</ele>
  <time>2026-08-27T18:26:26Z</time>
  <course>127.49</course>
  <speed>0.0</speed>
  <fix>3d</fix>
</trkpt>
<trkpt lat="40.072845" lon="-105.2305757">
  <ele>1586.14</ele>
  <time>2026-08-27T18:26:26Z</time>
  <course>153.33</course>
  <speed>0.01</speed>
  <fix>3d</fix>
</trkpt>
<trkpt lat="40.0728449" lon="-105.2305756">
  <ele>1586.09</ele>
  <time>2026-08-27T18:26:26Z</time>
  <course>173.58</course>
  <speed>0.0</speed>
  <fix>3d</fix>
</trkpt>
<trkpt lat="40.072845" lon="-105.2305757">
  <ele>1586.14</ele>
  <time>2026-08-27T18:26:26Z</time>
  <course>153.36</course>
  <speed>0.01</speed>
  <fix>3d</fix>
</trkpt>
<trkpt lat="40.0728449" lon="-105.2305756">
  <ele>1586.09</ele>
  <time>2026-08-27T18:26:26Z</time>
  <course>148.59</course>
  <speed>0.0</speed>
  <fix>3d</fix>
</trkpt>
<trkpt lat="40.072845" lon="-105.2305757">
  <ele>1586.14</ele>
  <time>2026-08-27T18:26:26Z</time>
  <course>153.38</course>
  <speed>0.02</speed>
  <fix>3d</fix>
</trkpt>
<trkpt lat="40.0728449" lon="-105.2305756">
  <ele>1586.09</ele>
  <time>2026-08-27T18:26:26Z</time>
  <course>118.03</course>
  <speed>0.0</speed>
  <fix>3d</fix>
</trkpt>
<trkpt lat="40.072845" lon="-105.2305757">
  <ele>1586.14</ele>
  <time>2026-08-27T18:26:26Z</time>
  <course>153.41</course>
  <speed>0.02</speed>
  <fix>3d</fix>
</trkpt>
<trkpt lat="40.0728449" lon="-105.2305756">
  <ele>1586.09</ele>
  <time>2026-08-27T18:26:26Z</time>
  <course>136.82</course>
  <speed>0.0</speed>
  <fix>3d</fix>
</trkpt>
<trkpt lat="40.072845" lon="-105.2305757">
  <ele>1586.14</ele>
  <time>2026-08-27T18:26:26Z</time>
  <course>153.41</course>
  <speed>0.03</speed>
  <fix>3d</fix>
</trkpt>
<trkpt lat="40.0728449" lon="-105.2305756">
  <ele>1586.09</ele>
  <time>2026-08-27T18:26:26Z</time>
  <course>241.6</course>
  <speed>0.0</speed>
  <fix>3d</fix>
</trkpt>
<trkpt lat="40.072845" lon="-105.2305758">
  <ele>1586.14</ele>
  <time>2026-08-27T18:26:26Z</time>
  <course>153.4</course>
  <speed>0.02</speed>
  <fix>3d</fix>
</trkpt>
<trkpt lat="40.0728449" lon="-105.2305756">
  <ele>1586.09</ele>
  <time>2026-08-27T18:26:26Z</time>
  <course>246.71</course>
  <speed>0.01</speed>
  <fix>3d</fix>
</trkpt>
<trkpt lat="40.072845" lon="-105.2305758">
  <ele>1586.14</ele>
  <time>2026-08-27T18:26:26Z</time>
  <course>153.38</course>
  <speed>0.02</speed>
  <fix>3d</fix>
</trkpt>
<trkpt lat="40.0728449" lon="-105.2305756">
  <ele>1586.09</ele>
  <time>2026-08-27T18:26:26Z</time>
  <course>254.25</course>
  <speed>0.0</speed>
  <fix>3d</fix>
</trkpt>
<trkpt lat="40.072845" lon="-105.2305758">
  <ele>1586.14</ele>
  <time>2026-08-27T18:26:26Z</time>
  <course>153.37</course>
  <speed>0.02</speed>
  <fix>3d</fix>
</trkpt>
<trkpt lat="40.0728449" lon="-105.2305756">
  <ele>1586.09</ele>
  <time>2026-08-27T18:26:26Z</time>
  <course>12.87</course>
  <speed>0.0</speed>
  <fix>3d</fix>
</trkpt>
<trkpt lat="40.072845" lon="-105.2305758">
  <ele>1586.15</ele>
  <time>2026-08-27T18:26:26Z</time>
  <course>153.37</course>
  <speed>0.02</speed>
  <fix>3d</fix>
</trkpt>
<trkpt lat="40.0728449" lon="-105.2305756">
  <ele>1586.09</ele>
  <time>2026-08-27T18:26:26Z</time>
  <course>36.66</course>
  <speed>0.0</speed>
  <fix>3d</fix>
</trkpt>
<trkpt lat="40.072845" lon="-105.2305757">
  <ele>1586.15</ele>
  <time>2026-08-27T18:26:26Z</time>
  <course>153.37</course>
  <speed>0.02</speed>
  <fix>3d</fix>
</trkpt>
<trkpt lat="40.0728449" lon="-105.2305756">
  <ele>1586.09</ele>
  <time>2026-08-27T18:26:26Z</time>
  <course>23.02</course>
  <speed>0.0</speed>
  <fix>3d</fix>
</trkpt>
<trkpt lat="40.072845" lon="-105.2305757">
  <ele>1586.15</ele>
  <time>2026-08-27T18:26:26Z</time>
  <course>153.37</course>
  <speed>0.02</speed>
  <fix>3d</fix>
</trkpt>
<trkpt lat="40.0728449" lon="-105.2305756">
  <ele>1586.09</ele>
  <time>2026-08-27T18:26:26Z</time>
  <course>16.86</course>
  <speed>0.0</speed>
  <fix>3d</fix>
</trkpt>
<trkpt lat="40.072845" lon="-105.2305757">
  <ele>1586.15</ele>
  <time>2026-08-27T18:26:26Z</time>
  <course>153.37</course>
  <speed>0.02</speed>
  <fix>3d</fix>
</trkpt>
<trkpt lat="40.0728449" lon="-105.2305756">
  <ele>1586.09</ele>
  <time>2026-08-27T18:26:26Z</time>
  <course>14.7</course>
  <speed>0.0</speed>
  <fix>3d</fix>
</trkpt>
<trkpt lat="40.072845" lon="-105.2305757">
  <ele>1586.15</ele>
  <time>2026-08-27T18:26:26Z</time>
  <course>153.37</course>
  <speed>0.02</speed>
  <fix>3d</fix>
</trkpt>
<trkpt lat="40.0728449" lon="-105.2305756">
  <ele>1586.09</ele>
  <time>2026-08-27T18:26:26Z</time>
  <course>143.03</course>
  <speed>0.0</speed>
  <fix>3d</fix>
</trkpt>
<trkpt lat="40.072845" lon="-105.2305757">
  <ele>1586.15</ele>
  <time>2026-08-27T18:26:26Z</time>
  <course>153.37</course>
  <speed>0.02</speed>
  <fix>3d</fix>
</trkpt>
<trkpt lat="40.0728449" lon="-105.2305756">
  <ele>1586.09</ele>
  <time>2026-08-27T18:26:26Z</time>
  <course>175.34</course>
  <speed>0.0</speed>
  <fix>3d</fix>
</trkpt>
<trkpt lat="40.072845" lon="-105.2305757">
  <ele>1586.15</ele>
  <time>2026-08-27T18:26:26Z</time>
  <course>153.37</course>
  <speed>0.02</speed>
  <fix>3d</fix>
</trkpt>
<trkpt lat="40.0728449" lon="-105.2305756">
  <ele>1586.09</ele>
  <time>2026-08-27T18:26:26Z</time>
  <course>55.35</course>
  <speed>0.0</speed>
  <fix>3d</fix>
</trkpt>
<trkpt lat="40.072845" lon="-105.2305757">
  <ele>1586.14</ele>
  <time>2026-08-27T18:26:26Z</time>
  <course>153.37</course>
  <speed>0.02</speed>
  <fix>3d</fix>
</trkpt>
<trkpt lat="40.0728449" lon="-105.2305756">
  <ele>1586.09</ele>
  <time>2026-08-27T18:26:26Z</time>
  <course>85.83</course>
  <speed>0.0</speed>
  <fix>3d</fix>
</trkpt>
<trkpt lat="40.072845" lon="-105.2305757">
  <ele>1586.14</ele>
  <time>2026-08-27T18:26:26Z</time>
  <course>153.37</course>
  <speed>0.02</speed>
  <fix>3d</fix>
</trkpt>
<trkpt lat="40.0728449" lon="-105.2305756">
  <ele>1586.09</ele>
  <time>2026-08-27T18:26:26Z</time>
  <course>107.59</course>
  <speed>0.0</speed>
  <fix>3d</fix>
</trkpt>
<trkpt lat="40.072845" lon="-105.2305757">
  <ele>1586.14</ele>
  <time>2026-08-27T18:26:26Z</time>
  <course>153.37</course>
  <speed>0.02</speed>
  <fix>3d</fix>
</trkpt>
<trkpt lat="40.0728449" lon="-105.2305756">
  <ele>1586.09</ele>
  <time>2026-08-27T18:26:26Z</time>
  <course>101.8</course>
  <speed>0.0</speed>
  <fix>3d</fix>
</trkpt>
<trkpt lat="40.072845" lon="-105.2305757">
  <ele>1586.14</ele>
  <time>2026-08-27T18:26:26Z</time>
  <course>153.36</course>
  <speed>0.02</speed>
  <fix>3d</fix>
</trkpt>
<trkpt lat="40.0728449" lon="-105.2305756">
  <ele>1586.09</ele>
  <time>2026-08-27T18:26:26Z</time>
  <course>99.39</course>
  <speed>0.0</speed>
  <fix>3d</fix>
</trkpt>
<trkpt lat="40.072845" lon="-105.2305757">
  <ele>1586.14</ele>
  <time>2026-08-27T18:26:26Z</time>
  <course>153.36</course>
  <speed>0.02</speed>
  <fix>3d</fix>
</trkpt>
<trkpt lat="40.0728449" lon="-105.2305756">
  <ele>1586.09</ele>
  <time>2026-08-27T18:26:26Z</time>
  <course>100.5</course>
  <speed>0.0</speed>
  <fix>3d</fix>
</trkpt>
<trkpt lat="40.072845" lon="-105.2305757">
  <ele>1586.14</ele>
  <time>2026-08-27T18:26:26Z</time>
  <course>153.36</course>
  <speed>0.02</speed>
  <fix>3d</fix>
</trkpt>
<trkpt lat="40.0728449" lon="-105.2305756">
  <ele>1586.09</ele>
  <time>2026-08-27T18:26:26Z</time>
  <course>100.69</course>
  <speed>0.0</speed>
  <fix>3d</fix>
</trkpt>
<trkpt lat="40.072845" lon="-105.2305757">
  <ele>1586.14</ele>
  <time>2026-08-27T18:26:26Z</time>
  <course>153.36</course>
  <speed>0.02</speed>
  <fix>3d</fix>
</trkpt>
<trkpt lat="40.0728449" lon="-105.2305756">
  <ele>1586.09</ele>
  <time>2026-08-27T18:26:26Z</time>
  <course>100.52</course>
  <speed>0.0</speed>
  <fix>3d</fix>
</trkpt>
<trkpt lat="40.072845" lon="-105.2305757">
  <ele>1586.14</ele>
  <time>2026-08-27T18:26:26Z</time>
  <course>153.36</course>
  <speed>0.01</speed>
  <fix>3d</fix>
</trkpt>
<trkpt lat="40.0728449" lon="-105.2305756">
  <ele>1586.09</ele>
  <time>2026-08-27T18:26:26Z</time>
  <course>100.52</course>
  <speed>0.0</speed>
  <fix>3d</fix>
</trkpt>
<trkpt lat="40.072845" lon="-105.2305757">
  <ele>1586.14</ele>
  <time>2026-08-27T18:26:26Z</time>
  <course>153.36</course>
  <speed>0.01</speed>
  <fix>3d</fix>
</trkpt>
<trkpt lat="40.0728449" lon="-105.2305756">
  <ele>1586.09</ele>
  <time>2026-08-27T18:26:26Z</time>
  <course>100.54</course>
  <speed>0.0</speed>
  <fix>3d</fix>
</trkpt>
<trkpt lat="40.072845" lon="-105.2305757">
  <ele>1586.14</ele>
  <time>2026-08-27T18:26:26Z</time>
  <course>153.36</course>
  <speed>0.01</speed>
  <fix>3d</fix>
</trkpt>
<trkpt lat="40.0728449" lon="-105.2305756">
  <ele>1586.09</ele>
  <time>2026-08-27T18:26:26Z</time>
  <course>100.54</course>
  <speed>0.0</speed>
  <fix>3d</fix>
</trkpt>
<trkpt lat="40.072845" lon="-105.2305757">
  <ele>1586.14</ele>
  <time>2026-08-27T18:26:26Z</time>
  <course>153.36</course>
  <speed>0.01</speed>
  <fix>3d</fix>
</trkpt>
<trkpt lat="40.0728449" lon="-105.2305756">
  <ele>1586.09</ele>
  <time>2026-08-27T18:26:26Z</time>
  <course>100.54</course>
  <speed>0.0</speed>
  <fix>3d</fix>
</trkpt>
<trkpt lat="40.072845" lon="-105.2305757">
  <ele>1586.14</ele>
  <time>2026-08-27T18:26:26Z</time>
  <course>153.36</course>
  <speed>0.01</speed>
  <fix>3d</fix>
</trkpt>
<trkpt lat="40.0728449" lon="-105.2305756">
  <ele>1586.09</ele>
  <time>2026-08-27T18:26:26Z</time>
  <course>100.54</course>
  <speed>0.0</speed>
  <fix>3d</fix>
</trkpt>
<trkpt lat="40.072845" lon="-105.2305757">
  <ele>1586.14</ele>
  <time>2026-08-27T18:26:26Z</time>
  <course>153.36</course>
  <speed>0.01</speed>
  <fix>3d</fix>
</trkpt>
<trkpt lat="40.0728449" lon="-105.2305756">
  <ele>1586.09</ele>
  <time>2026-08-27T18:26:26Z</time>
  <course>100.54</course>
  <speed>0.0</speed>
  <fix>3d</fix>
</trkpt>
<trkpt lat="40.072845" lon="-105.2305757">
  <ele>1586.14</ele>
  <time>2026-08-27T18:26:26Z</time>
  <course>153.36</course>
  <speed>0.01</speed>
  <fix>3d</fix>
</trkpt>
<trkpt lat="40.0728449" lon="-105.2305756">
  <ele>1586.09</ele>
  <time>2026-08-27T18:26:26Z</time>
  <course>100.54</course>
  <speed>0.0</speed>
  <fix>3d</fix>
</trkpt>
<trkpt lat="40.072845" lon="-105.2305757">
  <ele>1586.14</ele>
  <time>2026-08-27T18:26:26Z</time>
  <course>153.36</course>
  <speed>0.01</speed>
  <fix>3d</fix>
</trkpt>
<trkpt lat="40.0728449" lon="-105.2305756">
  <ele>1586.09</ele>
  <time>2026-08-27T18:26:26Z</time>
  <course>100.54</course>
  <speed>0.0</speed>
  <fix>3d</fix>
</trkpt>
<trkpt lat="40.072845" lon="-105.2305757">
  <ele>1586.14</ele>
  <time>2026-08-27T18:26:26Z</time>
  <course>153.36</course>
  <speed>0.01</speed>
  <fix>3d</fix>
</trkpt>
<trkpt lat="40.0728449" lon="-105.2305756">
  <ele>1586.09</ele>
  <time>2026-08-27T18:26:26Z</time>
  <course>100.54</course>
  <speed>0.0</speed>
  <fix>3d</fix>
</trkpt>
<trkpt lat="40.072845" lon="-105.2305757">
  <ele>1586.14</ele>
  <time>2026-08-27T18:26:26Z</time>
  <course>153.36</course>
  <speed>0.01</speed>
  <fix>3d</fix>
</trkpt>
<trkpt lat="40.0728449" lon="-105.2305756">
  <ele>1586.09</ele>
  <time>2026-08-27T18:26:26Z</time>
  <course>100.54</course>
  <speed>0.0</speed>
  <fix>3d</fix>
</trkpt>
<trkpt lat="40.072845" lon="-105.2305757">
  <ele>1586.14</ele>
  <time>2026-08-27T18:26:26Z</time>
  <course>153.36</course>
  <speed>0.01</speed>
  <fix>3d</fix>
</trkpt>
<trkpt lat="40.0728449" lon="-105.2305756">
  <ele>1586.09</ele>
  <time>2026-08-27T18:26:26Z</time>
  <course>100.54</course>
  <speed>0.0</speed>
  <fix>3d</fix>
</trkpt>
<trkpt lat="40.072845" lon="-105.2305757">
  <ele>1586.14</ele>
  <time>2026-08-27T18:26:26Z</time>
  <course>153.36</course>
  <speed>0.01</speed>
  <fix>3d</fix>
</trkpt>
<trkpt lat="40.0728449" lon="-105.2305756">
  <ele>1586.09</ele>
  <time>2026-08-27T18:26:26Z</time>
  <course>100.54</course>
  <speed>0.0</speed>
  <fix>3d</fix>
</trkpt>
<trkpt lat="40.072845" lon="-105.2305757">
  <ele>1586.14</ele>
  <time>2026-08-27T18:26:26Z</time>
  <course>153.36</course>
  <speed>0.01</speed>
  <fix>3d</fix>
</trkpt>
<trkpt lat="40.0728449" lon="-105.2305756">
  <ele>1586.09</ele>
  <time>2026-08-27T18:26:26Z</time>
  <course>100.54</course>
  <speed>0.0</speed>
  <fix>3d</fix>
</trkpt>
<trkpt lat="40.072845" lon="-105.2305757">
  <ele>1586.15</ele>
  <time>2026-08-27T18:26:26Z</time>
  <course>153.36</course>
  <speed>0.01</speed>
  <fix>3d</fix>
</trkpt>
<trkpt lat="40.0728449" lon="-105.2305756">
  <ele>1586.09</ele>
  <time>2026-08-27T18:26:26Z</time>
  <course>100.55</course>
  <speed>0.0</speed>
  <fix>3d</fix>
</trkpt>
<trkpt lat="40.072845" lon="-105.2305757">
  <ele>1586.15</ele>
  <time>2026-08-27T18:26:26Z</time>
  <course>153.36</course>
  <speed>0.01</speed>
  <fix>3d</fix>
</trkpt>
<trkpt lat="40.0728449" lon="-105.2305756">
  <ele>1586.09</ele>
  <time>2026-08-27T18:26:26Z</time>
  <course>100.55</course>
  <speed>0.0</speed>
  <fix>3d</fix>
</trkpt>
<trkpt lat="40.072845" lon="-105.2305757">
  <ele>1586.15</ele>
  <time>2026-08-27T18:26:26Z</time>
  <course>153.36</course>
  <speed>0.01</speed>
  <fix>3d</fix>
</trkpt>
<trkpt lat="40.0728449" lon="-105.2305756">
  <ele>1586.09</ele>
  <time>2026-08-27T18:26:26Z</time>
  <course>100.55</course>
  <speed>0.0</speed>
  <fix>3d</fix>
</trkpt>
<trkpt lat="40.072845" lon="-105.2305757">
  <ele>1586.15</ele>
  <time>2026-08-27T18:26:26Z</time>
  <course>153.36</course>
  <speed>0.01</speed>
  <fix>3d</fix>
</trkpt>
<trkpt lat="40.0728449" lon="-105.2305756">
  <ele>1586.09</ele>
  <time>2026-08-27T18:26:26Z</time>
  <course>100.55</course>
  <speed>0.0</speed>
  <fix>3d</fix>
</trkpt>
<trkpt lat="40.072845" lon="-105.2305757">
  <ele>1586.15</ele>
  <time>2026-08-27T18:26:26Z</time>
  <course>153.36</course>
  <speed>0.01</speed>
  <fix>3d</fix>
</trkpt>
<trkpt lat="40.0728449" lon="-105.2305756">
  <ele>1586.09</ele>
  <time>2026-08-27T18:26:26Z</time>
  <course>100.55</course>
  <speed>0.0</speed>
  <fix>3d</fix>
</trkpt>
<trkpt lat="40.072845" lon="-105.2305757">
  <ele>1586.16</ele>
  <time>2026-08-27T18:26:26Z</time>
  <course>153.36</course>
  <speed>0.01</speed>
  <fix>3d</fix>
</trkpt>
<trkpt lat="40.0728449" lon="-105.2305756">
  <ele>1586.09</ele>
  <time>2026-08-27T18:26:26Z</time>
  <course>100.55</course>
  <speed>0.0</speed>
  <fix>3d</fix>
</trkpt>
<trkpt lat="40.072845" lon="-105.2305757">
  <ele>1586.16</ele>
  <time>2026-08-27T18:26:26Z</time>
  <course>153.36</course>
  <speed>0.01</speed>
  <fix>3d</fix>
</trkpt>
<trkpt lat="40.0728449" lon="-105.2305756">
  <ele>1586.09</ele>
  <time>2026-08-27T18:26:26Z</time>
  <course>100.55</course>
  <speed>0.0</speed>
  <fix>3d</fix>
</trkpt>
<trkpt lat="40.072845" lon="-105.2305757">
  <ele>1586.16</ele>
  <time>2026-08-27T18:26:26Z</time>
  <course>153.36</course>
  <speed>0.01</speed>
  <fix>3d</fix>
</trkpt>
<trkpt lat="40.0728449" lon="-105.2305756">
  <ele>1586.09</ele>
  <time>2026-08-27T18:26:26Z</time>
  <course>100.55</course>
  <speed>0.0</speed>
  <fix>3d</fix>
</trkpt>
<trkpt lat="40.072845" lon="-105.2305757">
  <ele>1586.16</ele>
  <time>2026-08-27T18:26:26Z</time>
  <course>153.36</course>
  <speed>0.01</speed>
  <fix>3d</fix>
</trkpt>
<trkpt lat="40.0728449" lon="-105.2305756">
  <ele>1586.09</ele>
  <time>2026-08-27T18:26:26Z</time>
  <course>100.55</course>
  <speed>0.0</speed>
  <fix>3d</fix>
</trkpt>
<trkpt lat="40.072845" lon="-105.2305757">
  <ele>1586.16</ele>
  <time>2026-08-27T18:26:26Z</time>
  <course>153.36</course>
  <speed>0.01</speed>
  <fix>3d</fix>
</trkpt>
<trkpt lat="40.0728449" lon="-105.2305756">
  <ele>1586.09</ele>
  <time>2026-08-27T18:26:26Z</time>
  <course>100.55</course>
  <speed>0.0</speed>
  <fix>3d</fix>
</trkpt>
<trkpt lat="40.072845" lon="-105.2305757">
  <ele>1586.16</ele>
  <time>2026-08-27T18:26:26Z</time>
  <course>153.36</course>
  <speed>0.01</speed>
  <fix>3d</fix>
</trkpt>
<trkpt lat="40.0728449" lon="-105.2305756">
  <ele>1586.09</ele>
  <time>2026-08-27T18:26:26Z</time>
  <course>100.55</course>
  <speed>0.0</speed>
  <fix>3d</fix>
</trkpt>
<trkpt lat="40.072845" lon="-105.2305757">
  <ele>1586.16</ele>
  <time>2026-08-27T18:26:26Z</time>
  <course>153.36</course>
  <speed>0.01</speed>
  <fix>3d</fix>
</trkpt>
<trkpt lat="40.0728449" lon="-105.2305756">
  <ele>1586.09</ele>
  <time>2026-08-27T18:26:26Z</time>
  <course>100.55</course>
  <speed>0.0</speed>
  <fix>3d</fix>
</trkpt>
<trkpt lat="40.072845" lon="-105.2305757">
  <ele>1586.16</ele>
  <time>2026-08-27T18:26:26Z</time>
  <course>153.36</course>
  <speed>0.01</speed>
  <fix>3d</fix>
</trkpt>
<trkpt lat="40.0728449" lon="-105.2305756">
  <ele>1586.09</ele>
  <time>2026-08-27T18:26:26Z</time>
  <course>100.55</course>
  <speed>0.0</speed>
  <fix>3d</fix>
</trkpt>
<trkpt lat="40.072845" lon="-105.2305757">
  <ele>1586.17</ele>
  <time>2026-08-27T18:26:26Z</time>
  <course>153.36</course>
  <speed>0.01</speed>
  <fix>3d</fix>
</trkpt>
<trkpt lat="40.0728449" lon="-105.2305756">
  <ele>1586.09</ele>
  <time>2026-08-27T18:26:26Z</time>
  <course>100.55</course>
  <speed>0.0</speed>
  <fix>3d</fix>
</trkpt>
<trkpt lat="40.072845" lon="-105.2305757">
  <ele>1586.17</ele>
  <time>2026-08-27T18:26:26Z</time>
  <course>153.36</course>
  <speed>0.01</speed>
  <fix>3d</fix>
</trkpt>
<trkpt lat="40.0728449" lon="-105.2305756">
  <ele>1586.09</ele>
  <time>2026-08-27T18:26:26Z</time>
  <course>100.55</course>
  <speed>0.0</speed>
  <fix>3d</fix>
</trkpt>
<trkpt lat="40.072845" lon="-105.2305757">
  <ele>1586.17</ele>
  <time>2026-08-27T18:26:26Z</time>
  <course>153.36</course>
  <speed>0.01</speed>
  <fix>3d</fix>
</trkpt>
<trkpt lat="40.0728449" lon="-105.2305756">
  <ele>1586.09</ele>
  <time>2026-08-27T18:26:26Z</time>
  <course>100.55</course>
  <speed>0.0</speed>
  <fix>3d</fix>
</trkpt>
<trkpt lat="40.072845" lon="-105.2305757">
  <ele>1586.17</ele>
  <time>2026-08-27T18:26:26Z</time>
  <course>153.35</course>
  <speed>0.01</speed>
  <fix>3d</fix>
</trkpt>
<trkpt lat="40.0728449" lon="-105.2305756">
  <ele>1586.09</ele>
  <time>2026-08-27T18:26:26Z</time>
  <course>100.55</course>
  <speed>0.0</speed>
  <fix>3d</fix>
</trkpt>
<trkpt lat="40.072845" lon="-105.2305757">
  <ele>1586.18</ele>
  <time>2026-08-27T18:26:26Z</time>
  <course>153.35</course>
  <speed>0.01</speed>
  <fix>3d</fix>
</trkpt>
<trkpt lat="40.0728449" lon="-105.2305756">
  <ele>1586.09</ele>
  <time>2026-08-27T18:26:26Z</time>
  <course>100.55</course>
  <speed>0.0</speed>
  <fix>3d</fix>
</trkpt>
<trkpt lat="40.072845" lon="-105.2305757">
  <ele>1586.18</ele>
  <time>2026-08-27T18:26:26Z</time>
  <course>153.35</course>
  <speed>0.01</speed>
  <fix>3d</fix>
</trkpt>
<trkpt lat="40.0728449" lon="-105.2305756">
  <ele>1586.09</ele>
  <time>2026-08-27T18:26:26Z</time>
  <course>100.55</course>
  <speed>0.0</speed>
  <fix>3d</fix>
</trkpt>
<trkpt lat="40.072845" lon="-105.2305757">
  <ele>1586.18</ele>
  <time>2026-08-27T18:26:26Z</time>
  <course>153.34</course>
  <speed>0.01</speed>
  <fix>3d</fix>
</trkpt>
<trkpt lat="40.0728449" lon="-105.2305756">
  <ele>1586.09</ele>
  <time>2026-08-27T18:26:26Z</time>
  <course>100.55</course>
  <speed>0.0</speed>
  <fix>3d</fix>
</trkpt>
<trkpt lat="40.072845" lon="-105.2305757">
  <ele>1586.18</ele>
  <time>2026-08-27T18:26:26Z</time>
  <course>153.32</course>
  <speed>0.01</speed>
  <fix>3d</fix>
</trkpt>
<trkpt lat="40.0728449" lon="-105.2305756">
  <ele>1586.09</ele>
  <time>2026-08-27T18:26:26Z</time>
  <course>100.55</course>
  <speed>0.0</speed>
  <fix>3d</fix>
</trkpt>
<trkpt lat="40.072845" lon="-105.2305757">
  <ele>1586.18</ele>
  <time>2026-08-27T18:26:26Z</time>
  <course>153.3</course>
  <speed>0.01</speed>
  <fix>3d</fix>
</trkpt>
<trkpt lat="40.0728449" lon="-105.2305756">
  <ele>1586.09</ele>
  <time>2026-08-27T18:26:26Z</time>
  <course>100.54</course>
  <speed>0.0</speed>
  <fix>3d</fix>
</trkpt>
<trkpt lat="40.072845" lon="-105.2305757">
  <ele>1586.18</ele>
  <time>2026-08-27T18:26:26Z</time>
  <course>153.28</course>
  <speed>0.01</speed>
  <fix>3d</fix>
</trkpt>
<trkpt lat="40.0728449" lon="-105.2305756">
  <ele>1586.09</ele>
  <time>2026-08-27T18:26:26Z</time>
  <course>100.54</course>
  <speed>0.0</speed>
  <fix>3d</fix>
</trkpt>
<trkpt lat="40.072845" lon="-105.2305757">
  <ele>1586.19</ele>
  <time>2026-08-27T18:26:26Z</time>
  <course>153.26</course>
  <speed>0.02</speed>
  <fix>3d</fix>
</trkpt>
<trkpt lat="40.0728449" lon="-105.2305756">
  <ele>1586.09</ele>
  <time>2026-08-27T18:26:26Z</time>
  <course>100.54</course>
  <speed>0.0</speed>
  <fix>3d</fix>
</trkpt>
<trkpt lat="40.072845" lon="-105.2305757">
  <ele>1586.18</ele>
  <time>2026-08-27T18:26:26Z</time>
  <course>153.24</course>
  <speed>0.02</speed>
  <fix>3d</fix>
</trkpt>
<trkpt lat="40.0728449" lon="-105.2305756">
  <ele>1586.09</ele>
  <time>2026-08-27T18:26:26Z</time>
  <course>100.54</course>
  <speed>0.0</speed>
  <fix>3d</fix>
</trkpt>
<trkpt lat="40.072845" lon="-105.2305757">
  <ele>1586.18</ele>
  <time>2026-08-27T18:26:26Z</time>
  <course>153.22</course>
  <speed>0.02</speed>
  <fix>3d</fix>
</trkpt>
<trkpt lat="40.0728449" lon="-105.2305756">
  <ele>1586.09</ele>
  <time>2026-08-27T18:26:26Z</time>
  <course>100.54</course>
  <speed>0.0</speed>
  <fix>3d</fix>
</trkpt>
<trkpt lat="40.072845" lon="-105.2305757">
  <ele>1586.18</ele>
  <time>2026-08-27T18:26:26Z</time>
  <course>153.2</course>
  <speed>0.02</speed>
  <fix>3d</fix>
</trkpt>
<trkpt lat="40.0728449" lon="-105.2305756">
  <ele>1586.09</ele>
  <time>2026-08-27T18:26:26Z</time>
  <course>100.54</course>
  <speed>0.0</speed>
  <fix>3d</fix>
</trkpt>
<trkpt lat="40.072845" lon="-105.2305757">
  <ele>1586.18</ele>
  <time>2026-08-27T18:26:26Z</time>
  <course>153.18</course>
  <speed>0.02</speed>
  <fix>3d</fix>
</trkpt>
<trkpt lat="40.0728449" lon="-105.2305756">
  <ele>1586.09</ele>
  <time>2026-08-27T18:26:26Z</time>
  <course>100.54</course>
  <speed>0.0</speed>
  <fix>3d</fix>
</trkpt>
<trkpt lat="40.072845" lon="-105.2305757">
  <ele>1586.18</ele>
  <time>2026-08-27T18:26:26Z</time>
  <course>153.16</course>
  <speed>0.02</speed>
  <fix>3d</fix>
</trkpt>
<trkpt lat="40.0728449" lon="-105.2305756">
  <ele>1586.09</ele>
  <time>2026-08-27T18:26:26Z</time>
  <course>100.54</course>
  <speed>0.0</speed>
  <fix>3d</fix>
</trkpt>
<trkpt lat="40.072845" lon="-105.2305757">
  <ele>1586.18</ele>
  <time>2026-08-27T18:26:26Z</time>
  <course>153.14</course>
  <speed>0.02</speed>
  <fix>3d</fix>
</trkpt>
<trkpt lat="40.0728449" lon="-105.2305756">
  <ele>1586.09</ele>
  <time>2026-08-27T18:26:26Z</time>
  <course>100.54</course>
  <speed>0.0</speed>
  <fix>3d</fix>
</trkpt>
<trkpt lat="40.072845" lon="-105.2305757">
  <ele>1586.19</ele>
  <time>2026-08-27T18:26:26Z</time>
  <course>153.12</course>
  <speed>0.02</speed>
  <fix>3d</fix>
</trkpt>
<trkpt lat="40.0728449" lon="-105.2305756">
  <ele>1586.09</ele>
  <time>2026-08-27T18:26:26Z</time>
  <course>100.54</course>
  <speed>0.0</speed>
  <fix>3d</fix>
</trkpt>
<trkpt lat="40.072845" lon="-105.2305757">
  <ele>1586.19</ele>
  <time>2026-08-27T18:26:26Z</time>
  <course>153.11</course>
  <speed>0.02</speed>
  <fix>3d</fix>
</trkpt>
<trkpt lat="40.0728449" lon="-105.2305756">
  <ele>1586.09</ele>
  <time>2026-08-27T18:26:26Z</time>
  <course>100.54</course>
  <speed>0.0</speed>
  <fix>3d</fix>
</trkpt>
<trkpt lat="40.072845" lon="-105.2305758">
  <ele>1586.19</ele>
  <time>2026-08-27T18:26:26Z</time>
  <course>153.02</course>
  <speed>0.02</speed>
  <fix>3d</fix>
</trkpt>
<trkpt lat="40.0728449" lon="-105.2305756">
  <ele>1586.09</ele>
  <time>2026-08-27T18:26:26Z</time>
  <course>100.54</course>
  <speed>0.0</speed>
  <fix>3d</fix>
</trkpt>
<trkpt lat="40.072845" lon="-105.2305758">
  <ele>1586.18</ele>
  <time>2026-08-27T18:26:26Z</time>
  <course>153.0</course>
  <speed>0.02</speed>
  <fix>3d</fix>
</trkpt>
<trkpt lat="40.0728449" lon="-105.2305756">
  <ele>1586.09</ele>
  <time>2026-08-27T18:26:26Z</time>
  <course>100.54</course>
  <speed>0.0</speed>
  <fix>3d</fix>
</trkpt>
<trkpt lat="40.072845" lon="-105.2305758">
  <ele>1586.18</ele>
  <time>2026-08-27T18:26:26Z</time>
  <course>152.98</course>
  <speed>0.02</speed>
  <fix>3d</fix>
</trkpt>
<trkpt lat="40.0728449" lon="-105.2305756">
  <ele>1586.09</ele>
  <time>2026-08-27T18:26:26Z</time>
  <course>100.54</course>
  <speed>0.0</speed>
  <fix>3d</fix>
</trkpt>
<trkpt lat="40.072845" lon="-105.2305758">
  <ele>1586.18</ele>
  <time>2026-08-27T18:26:26Z</time>
  <course>152.96</course>
  <speed>0.02</speed>
  <fix>3d</fix>
</trkpt>
<trkpt lat="40.0728449" lon="-105.2305756">
  <ele>1586.09</ele>
  <time>2026-08-27T18:26:26Z</time>
  <course>100.54</course>
  <speed>0.0</speed>
  <fix>3d</fix>
</trkpt>
<trkpt lat="40.072845" lon="-105.2305758">
  <ele>1586.17</ele>
  <time>2026-08-27T18:26:26Z</time>
  <course>152.94</course>
  <speed>0.02</speed>
  <fix>3d</fix>
</trkpt>
<trkpt lat="40.0728449" lon="-105.2305756">
  <ele>1586.09</ele>
  <time>2026-08-27T18:26:26Z</time>
  <course>100.54</course>
  <speed>0.0</speed>
  <fix>3d</fix>
</trkpt>
<trkpt lat="40.072845" lon="-105.2305758">
  <ele>1586.17</ele>
  <time>2026-08-27T18:26:26Z</time>
  <course>152.92</course>
  <speed>0.02</speed>
  <fix>3d</fix>
</trkpt>
<trkpt lat="40.0728449" lon="-105.2305756">
  <ele>1586.09</ele>
  <time>2026-08-27T18:26:26Z</time>
  <course>100.54</course>
  <speed>0.0</speed>
  <fix>3d</fix>
</trkpt>
<trkpt lat="40.072845" lon="-105.2305757">
  <ele>1586.17</ele>
  <time>2026-08-27T18:26:26Z</time>
  <course>152.89</course>
  <speed>0.02</speed>
  <fix>3d</fix>
</trkpt>
<trkpt lat="40.0728449" lon="-105.2305756">
  <ele>1586.09</ele>
  <time>2026-08-27T18:26:26Z</time>
  <course>100.54</course>
  <speed>0.0</speed>
  <fix>3d</fix>
</trkpt>
<trkpt lat="40.072845" lon="-105.2305757">
  <ele>1586.17</ele>
  <time>2026-08-27T18:26:26Z</time>
  <course>152.87</course>
  <speed>0.02</speed>
  <fix>3d</fix>
</trkpt>
<trkpt lat="40.0728449" lon="-105.2305756">
  <ele>1586.09</ele>
  <time>2026-08-27T18:26:26Z</time>
  <course>100.54</course>
  <speed>0.0</speed>
  <fix>3d</fix>
</trkpt>
<trkpt lat="40.072845" lon="-105.2305758">
  <ele>1586.16</ele>
  <time>2026-08-27T18:26:26Z</time>
  <course>152.85</course>
  <speed>0.02</speed>
  <fix>3d</fix>
</trkpt>
<trkpt lat="40.0728449" lon="-105.2305756">
  <ele>1586.09</ele>
  <time>2026-08-27T18:26:26Z</time>
  <course>100.54</course>
  <speed>0.0</speed>
  <fix>3d</fix>
</trkpt>
<trkpt lat="40.072845" lon="-105.2305758">
  <ele>1586.16</ele>
  <time>2026-08-27T18:26:26Z</time>
  <course>152.82</course>
  <speed>0.02</speed>
  <fix>3d</fix>
</trkpt>
<trkpt lat="40.0728449" lon="-105.2305756">
  <ele>1586.09</ele>
  <time>2026-08-27T18:26:26Z</time>
  <course>100.54</course>
  <speed>0.0</speed>
  <fix>3d</fix>
</trkpt>
<trkpt lat="40.072845" lon="-105.2305758">
  <ele>1586.16</ele>
  <time>2026-08-27T18:26:26Z</time>
  <course>152.8</course>
  <speed>0.02</speed>
  <fix>3d</fix>
</trkpt>
<trkpt lat="40.0728449" lon="-105.2305756">
  <ele>1586.09</ele>
  <time>2026-08-27T18:26:26Z</time>
  <course>100.54</course>
  <speed>0.0</speed>
  <fix>3d</fix>
</trkpt>
<trkpt lat="40.072845" lon="-105.2305758">
  <ele>1586.17</ele>
  <time>2026-08-27T18:26:26Z</time>
  <course>152.78</course>
  <speed>0.02</speed>
  <fix>3d</fix>
</trkpt>
<trkpt lat="40.0728449" lon="-105.2305756">
  <ele>1586.09</ele>
  <time>2026-08-27T18:26:26Z</time>
  <course>100.54</course>
  <speed>0.0</speed>
  <fix>3d</fix>
</trkpt>
<trkpt lat="40.072845" lon="-105.2305758">
  <ele>1586.17</ele>
  <time>2026-08-27T18:26:26Z</time>
  <course>152.75</course>
  <speed>0.02</speed>
  <fix>3d</fix>
</trkpt>
<trkpt lat="40.0728449" lon="-105.2305756">
  <ele>1586.09</ele>
  <time>2026-08-27T18:26:26Z</time>
  <course>100.54</course>
  <speed>0.0</speed>
  <fix>3d</fix>
</trkpt>
<trkpt lat="40.072845" lon="-105.2305758">
  <ele>1586.17</ele>
  <time>2026-08-27T18:26:27Z</time>
  <course>152.73</course>
  <speed>0.02</speed>
  <fix>3d</fix>
</trkpt>
<trkpt lat="40.0728449" lon="-105.2305756">
  <ele>1586.09</ele>
  <time>2026-08-27T18:26:27Z</time>
  <course>100.54</course>
  <speed>0.0</speed>
  <fix>3d</fix>
</trkpt>
<trkpt lat="39.654938" lon="-104.1331666">
  <ele>1569.54</ele>
  <time>2026-08-27T18:26:27Z</time>
  <course>168.11</course>
  <speed>0.0</speed>
  <fix>3d</fix>
</trkpt>
<trkpt lat="40.072842" lon="-105.230575">
  <ele>1586.09</ele>
  <time>2026-08-27T18:26:27Z</time>
  <course>2.03</course>
  <speed>0.0</speed>
  <fix>3d</fix>
</trkpt>
<trkpt lat="40.072842" lon="-105.230575">
  <ele>1586.09</ele>
  <time>2026-08-27T18:26:27Z</time>
  <course>238.4</course>
  <speed>0.0</speed>
  <fix>3d</fix>
</trkpt>
<trkpt lat="40.072842" lon="-105.230575">
  <ele>1586.09</ele>
  <time>2026-08-27T18:26:27Z</time>
  <course>2.4</course>
  <speed>0.0</speed>
  <fix>3d</fix>
</trkpt>
<trkpt lat="40.072842" lon="-105.230575">
  <ele>1586.09</ele>
  <time>2026-08-27T18:26:27Z</time>
  <course>194.29</course>
  <speed>0.0</speed>
  <fix>3d</fix>
</trkpt>
<trkpt lat="40.072842" lon="-105.230575">
  <ele>1586.09</ele>
  <time>2026-08-27T18:26:27Z</time>
  <course>3.13</course>
  <speed>0.0</speed>
  <fix>3d</fix>
</trkpt>
<trkpt lat="40.072842" lon="-105.230575">
  <ele>1586.09</ele>
  <time>2026-08-27T18:26:27Z</time>
  <course>193.66</course>
  <speed>0.0</speed>
  <fix>3d</fix>
</trkpt>
<trkpt lat="40.072842" lon="-105.230575">
  <ele>1586.09</ele>
  <time>2026-08-27T18:26:27Z</time>
  <course>3.82</course>
  <speed>0.0</speed>
  <fix>3d</fix>
</trkpt>
<trkpt lat="40.072842" lon="-105.230575">
  <ele>1586.09</ele>
  <time>2026-08-27T18:26:27Z</time>
  <course>303.54</course>
  <speed>0.0</speed>
  <fix>3d</fix>
</trkpt>
<trkpt lat="40.072842" lon="-105.230575">
  <ele>1586.09</ele>
  <time>2026-08-27T18:26:27Z</time>
  <course>4.45</course>
  <speed>0.0</speed>
  <fix>3d</fix>
</trkpt>
<trkpt lat="40.072842" lon="-105.230575">
  <ele>1586.09</ele>
  <time>2026-08-27T18:26:27Z</time>
  <course>110.94</course>
  <speed>0.0</speed>
  <fix>3d</fix>
</trkpt>
<trkpt lat="40.072842" lon="-105.230575">
  <ele>1586.09</ele>
  <time>2026-08-27T18:26:27Z</time>
  <course>5.03</course>
  <speed>0.0</speed>
  <fix>3d</fix>
</trkpt>
<trkpt lat="40.072842" lon="-105.230575">
  <ele>1586.09</ele>
  <time>2026-08-27T18:26:27Z</time>
  <course>191.21</course>
  <speed>0.0</speed>
  <fix>3d</fix>
</trkpt>
<trkpt lat="40.072842" lon="-105.230575">
  <ele>1586.09</ele>
  <time>2026-08-27T18:26:27Z</time>
  <course>5.6</course>
  <speed>0.0</speed>
  <fix>3d</fix>
</trkpt>
<trkpt lat="40.072842" lon="-105.230575">
  <ele>1586.09</ele>
  <time>2026-08-27T18:26:27Z</time>
  <course>252.23</course>
  <speed>0.0</speed>
  <fix>3d</fix>
</trkpt>
<trkpt lat="40.072842" lon="-105.230575">
  <ele>1586.09</ele>
  <time>2026-08-27T18:26:27Z</time>
  <course>6.13</course>
  <speed>0.0</speed>
  <fix>3d</fix>
</trkpt>
<trkpt lat="40.072842" lon="-105.230575">
  <ele>1586.09</ele>
  <time>2026-08-27T18:26:27Z</time>
  <course>170.36</course>
  <speed>0.0</speed>
  <fix>3d</fix>
</trkpt>
<trkpt lat="40.072842" lon="-105.230575">
  <ele>1586.09</ele>
  <time>2026-08-27T18:26:27Z</time>
  <course>6.62</course>
  <speed>0.0</speed>
  <fix>3d</fix>
</trkpt>
<trkpt lat="40.072842" lon="-105.230575">
  <ele>1586.09</ele>
  <time>2026-08-27T18:26:27Z</time>
  <course>179.36</course>
  <speed>0.0</speed>
  <fix>3d</fix>
</trkpt>
<trkpt lat="40.072842" lon="-105.230575">
  <ele>1586.09</ele>
  <time>2026-08-27T18:26:27Z</time>
  <course>7.08</course>
  <speed>0.0</speed>
  <fix>3d</fix>
</trkpt>
<trkpt lat="40.072842" lon="-105.230575">
  <ele>1586.09</ele>
  <time>2026-08-27T18:26:27Z</time>
  <course>19.98</course>
  <speed>0.0</speed>
  <fix>3d</fix>
</trkpt>
<trkpt lat="40.072842" lon="-105.230575">
  <ele>1586.09</ele>
  <time>2026-08-27T18:26:27Z</time>
  <course>7.51</course>
  <speed>0.0</speed>
  <fix>3d</fix>
</trkpt>
<trkpt lat="40.072842" lon="-105.230575">
  <ele>1586.09</ele>
  <time>2026-08-27T18:26:27Z</time>
  <course>17.49</course>
  <speed>0.0</speed>
  <fix>3d</fix>
</trkpt>
<trkpt lat="40.072842" lon="-105.230575">
  <ele>1586.09</ele>
  <time>2026-08-27T18:26:27Z</time>
  <course>7.91</course>
  <speed>0.0</speed>
  <fix>3d</fix>
</trkpt>
<trkpt lat="40.072842" lon="-105.230575">
  <ele>1586.09</ele>
  <time>2026-08-27T18:26:27Z</time>
  <course>356.19</course>
  <speed>0.0</speed>
  <fix>3d</fix>
</trkpt>
<trkpt lat="40.072842" lon="-105.230575">
  <ele>1586.09</ele>
  <time>2026-08-27T18:26:27Z</time>
  <course>8.27</course>
  <speed>0.0</speed>
  <fix>3d</fix>
</trkpt>
<trkpt lat="40.072842" lon="-105.230575">
  <ele>1586.09</ele>
  <time>2026-08-27T18:26:27Z</time>
  <course>77.32</course>
  <speed>0.0</speed>
  <fix>3d</fix>
</trkpt>
<trkpt lat="40.072842" lon="-105.230575">
  <ele>1586.09</ele>
  <time>2026-08-27T18:26:27Z</time>
  <course>8.61</course>
  <speed>0.0</speed>
  <fix>3d</fix>
</trkpt>
<trkpt lat="40.072842" lon="-105.230575">
  <ele>1586.09</ele>
  <time>2026-08-27T18:26:27Z</time>
  <course>290.54</course>
  <speed>0.0</speed>
  <fix>3d</fix>
</trkpt>
<trkpt lat="40.072842" lon="-105.230575">
  <ele>1586.09</ele>
  <time>2026-08-27T18:26:27Z</time>
  <course>8.92</course>
  <speed>0.0</speed>
  <fix>3d</fix>
</trkpt>
<trkpt lat="40.072842" lon="-105.230575">
  <ele>1586.09</ele>
  <time>2026-08-27T18:26:27Z</time>
  <course>338.69</course>
  <speed>0.0</speed>
  <fix>3d</fix>
</trkpt>
<trkpt lat="40.072842" lon="-105.230575">
  <ele>1586.09</ele>
  <time>2026-08-27T18:26:27Z</time>
  <course>9.21</course>
  <speed>0.0</speed>
  <fix>3d</fix>
</trkpt>
<trkpt lat="40.072842" lon="-105.230575">
  <ele>1586.09</ele>
  <time>2026-08-27T18:26:27Z</time>
  <course>326.81</course>
  <speed>0.0</speed>
  <fix>3d</fix>
</trkpt>
<trkpt lat="40.072842" lon="-105.230575">
  <ele>1586.09</ele>
  <time>2026-08-27T18:26:27Z</time>
  <course>9.48</course>
  <speed>0.0</speed>
  <fix>3d</fix>
</trkpt>
<trkpt lat="40.072842" lon="-105.230575">
  <ele>1586.09</ele>
  <time>2026-08-27T18:26:27Z</time>
  <course>262.23</course>
  <speed>0.0</speed>
  <fix>3d</fix>
</trkpt>
<trkpt lat="40.072842" lon="-105.230575">
  <ele>1586.09</ele>
  <time>2026-08-27T18:26:27Z</time>
  <course>9.72</course>
  <speed>0.0</speed>
  <fix>3d</fix>
</trkpt>
<trkpt lat="40.072842" lon="-105.230575">
  <ele>1586.09</ele>
  <time>2026-08-27T18:26:27Z</time>
  <course>159.08</course>
  <speed>0.0</speed>
  <fix>3d</fix>
</trkpt>
<trkpt lat="40.072842" lon="-105.230575">
  <ele>1586.09</ele>
  <time>2026-08-27T18:26:27Z</time>
  <course>9.95</course>
  <speed>0.0</speed>
  <fix>3d</fix>
</trkpt>
<trkpt lat="40.072842" lon="-105.230575">
  <ele>1586.09</ele>
  <time>2026-08-27T18:26:27Z</time>
  <course>287.98</course>
  <speed>0.0</speed>
  <fix>3d</fix>
</trkpt>
<trkpt lat="40.072842" lon="-105.230575">
  <ele>1586.09</ele>
  <time>2026-08-27T18:26:27Z</time>
  <course>10.15</course>
  <speed>0.0</speed>
  <fix>3d</fix>
</trkpt>
<trkpt lat="40.072842" lon="-105.230575">
  <ele>1586.09</ele>
  <time>2026-08-27T18:26:27Z</time>
  <course>278.3</course>
  <speed>0.0</speed>
  <fix>3d</fix>
</trkpt>
<trkpt lat="40.072842" lon="-105.230575">
  <ele>1586.09</ele>
  <time>2026-08-27T18:26:27Z</time>
  <course>10.34</course>
  <speed>0.0</speed>
  <fix>3d</fix>
</trkpt>
<trkpt lat="40.072842" lon="-105.230575">
  <ele>1586.09</ele>
  <time>2026-08-27T18:26:27Z</time>
  <course>261.72</course>
  <speed>0.0</speed>
  <fix>3d</fix>
</trkpt>
<trkpt lat="40.072842" lon="-105.230575">
  <ele>1586.09</ele>
  <time>2026-08-27T18:26:27Z</time>
  <course>10.51</course>
  <speed>0.0</speed>
  <fix>3d</fix>
</trkpt>
<trkpt lat="40.072842" lon="-105.230575">
  <ele>1586.09</ele>
  <time>2026-08-27T18:26:27Z</time>
  <course>264.4</course>
  <speed>0.0</speed>
  <fix>3d</fix>
</trkpt>
<trkpt lat="40.072842" lon="-105.230575">
  <ele>1586.09</ele>
  <time>2026-08-27T18:26:27Z</time>
  <course>10.67</course>
  <speed>0.0</speed>
  <fix>3d</fix>
</trkpt>
<trkpt lat="40.072842" lon="-105.230575">
  <ele>1586.09</ele>
  <time>2026-08-27T18:26:27Z</time>
  <course>266.8</course>
  <speed>0.0</speed>
  <fix>3d</fix>
</trkpt>
<trkpt lat="40.072842" lon="-105.230575">
  <ele>1586.09</ele>
  <time>2026-08-27T18:26:27Z</time>
  <course>10.81</course>
  <speed>0.0</speed>
  <fix>3d</fix>
</trkpt>
<trkpt lat="40.072842" lon="-105.230575">
  <ele>1586.09</ele>
  <time>2026-08-27T18:26:27Z</time>
  <course>266.15</course>
  <speed>0.0</speed>
  <fix>3d</fix>
</trkpt>
<trkpt lat="40.072842" lon="-105.230575">
  <ele>1586.09</ele>
  <time>2026-08-27T18:26:27Z</time>
  <course>10.94</course>
  <speed>0.0</speed>
  <fix>3d</fix>
</trkpt>
<trkpt lat="40.072842" lon="-105.230575">
  <ele>1586.09</ele>
  <time>2026-08-27T18:26:27Z</time>
  <course>265.92</course>
  <speed>0.0</speed>
  <fix>3d</fix>
</trkpt>
<trkpt lat="40.072842" lon="-105.230575">
  <ele>1586.09</ele>
  <time>2026-08-27T18:26:27Z</time>
  <course>11.06</course>
  <speed>0.0</speed>
  <fix>3d</fix>
</trkpt>
<trkpt lat="40.072842" lon="-105.230575">
  <ele>1586.09</ele>
  <time>2026-08-27T18:26:27Z</time>
  <course>266.03</course>
  <speed>0.0</speed>
  <fix>3d</fix>
</trkpt>
<trkpt lat="40.072842" lon="-105.230575">
  <ele>1586.09</ele>
  <time>2026-08-27T18:26:27Z</time>
  <course>11.18</course>
  <speed>0.0</speed>
  <fix>3d</fix>
</trkpt>
<trkpt lat="40.072842" lon="-105.230575">
  <ele>1586.09</ele>
  <time>2026-08-27T18:26:27Z</time>
  <course>266.05</course>
  <speed>0.0</speed>
  <fix>3d</fix>
</trkpt>
<trkpt lat="40.072842" lon="-105.230575">
  <ele>1586.09</ele>
  <time>2026-08-27T18:26:27Z</time>
  <course>11.28</course>
  <speed>0.0</speed>
  <fix>3d</fix>
</trkpt>
<trkpt lat="40.072842" lon="-105.230575">
  <ele>1586.09</ele>
  <time>2026-08-27T18:26:27Z</time>
  <course>266.03</course>
  <speed>0.0</speed>
  <fix>3d</fix>
</trkpt>
<trkpt lat="40.072842" lon="-105.230575">
  <ele>1586.09</ele>
  <time>2026-08-27T18:26:27Z</time>
  <course>11.37</course>
  <speed>0.0</speed>
  <fix>3d</fix>
</trkpt>
<trkpt lat="40.072842" lon="-105.230575">
  <ele>1586.09</ele>
  <time>2026-08-27T18:26:27Z</time>
  <course>266.03</course>
  <speed>0.0</speed>
  <fix>3d</fix>
</trkpt>
<trkpt lat="40.072842" lon="-105.230575">
  <ele>1586.09</ele>
  <time>2026-08-27T18:26:27Z</time>
  <course>11.45</course>
  <speed>0.0</speed>
  <fix>3d</fix>
</trkpt>
<trkpt lat="40.072842" lon="-105.230575">
  <ele>1586.09</ele>
  <time>2026-08-27T18:26:27Z</time>
  <course>266.03</course>
  <speed>0.0</speed>
  <fix>3d</fix>
</trkpt>
<trkpt lat="40.072842" lon="-105.230575">
  <ele>1586.09</ele>
  <time>2026-08-27T18:26:27Z</time>
  <course>11.52</course>
  <speed>0.0</speed>
  <fix>3d</fix>
</trkpt>
<trkpt lat="40.072842" lon="-105.230575">
  <ele>1586.09</ele>
  <time>2026-08-27T18:26:27Z</time>
  <course>266.03</course>
  <speed>0.0</speed>
  <fix>3d</fix>
</trkpt>
<trkpt lat="40.072842" lon="-105.230575">
  <ele>1586.09</ele>
  <time>2026-08-27T18:26:27Z</time>
  <course>11.59</course>
  <speed>0.0</speed>
  <fix>3d</fix>
</trkpt>
<trkpt lat="40.072842" lon="-105.230575">
  <ele>1586.09</ele>
  <time>2026-08-27T18:26:27Z</time>
  <course>266.03</course>
  <speed>0.0</speed>
  <fix>3d</fix>
</trkpt>
<trkpt lat="40.072842" lon="-105.230575">
  <ele>1586.09</ele>
  <time>2026-08-27T18:26:27Z</time>
  <course>11.65</course>
  <speed>0.0</speed>
  <fix>3d</fix>
</trkpt>
<trkpt lat="40.072842" lon="-105.230575">
  <ele>1586.09</ele>
  <time>2026-08-27T18:26:27Z</time>
  <course>266.03</course>
  <speed>0.0</speed>
  <fix>3d</fix>
</trkpt>
<trkpt lat="40.072842" lon="-105.230575">
  <ele>1586.09</ele>
  <time>2026-08-27T18:26:27Z</time>
  <course>11.71</course>
  <speed>0.0</speed>
  <fix>3d</fix>
</trkpt>
<trkpt lat="40.072842" lon="-105.230575">
  <ele>1586.09</ele>
  <time>2026-08-27T18:26:27Z</time>
  <course>266.03</course>
  <speed>0.0</speed>
  <fix>3d</fix>
</trkpt>
<trkpt lat="40.072842" lon="-105.230575">
  <ele>1586.09</ele>
  <time>2026-08-27T18:26:27Z</time>
  <course>11.76</course>
  <speed>0.0</speed>
  <fix>3d</fix>
</trkpt>
<trkpt lat="40.072842" lon="-105.230575">
  <ele>1586.09</ele>
  <time>2026-08-27T18:26:27Z</time>
  <course>266.03</course>
  <speed>0.0</speed>
  <fix>3d</fix>
</trkpt>
<trkpt lat="40.072842" lon="-105.230575">
  <ele>1586.09</ele>
  <time>2026-08-27T18:26:27Z</time>
  <course>11.81</course>
  <speed>0.0</speed>
  <fix>3d</fix>
</trkpt>
<trkpt lat="40.072842" lon="-105.230575">
  <ele>1586.09</ele>
  <time>2026-08-27T18:26:27Z</time>
  <course>266.03</course>
  <speed>0.0</speed>
  <fix>3d</fix>
</trkpt>
<trkpt lat="40.072842" lon="-105.230575">
  <ele>1586.09</ele>
  <time>2026-08-27T18:26:27Z</time>
  <course>11.85</course>
  <speed>0.0</speed>
  <fix>3d</fix>
</trkpt>
<trkpt lat="40.072842" lon="-105.230575">
  <ele>1586.09</ele>
  <time>2026-08-27T18:26:27Z</time>
  <course>266.03</course>
  <speed>0.0</speed>
  <fix>3d</fix>
</trkpt>
<trkpt lat="40.072842" lon="-105.230575">
  <ele>1586.09</ele>
  <time>2026-08-27T18:26:27Z</time>
  <course>11.88</course>
  <speed>0.0</speed>
  <fix>3d</fix>
</trkpt>
<trkpt lat="40.072842" lon="-105.230575">
  <ele>1586.09</ele>
  <time>2026-08-27T18:26:27Z</time>
  <course>266.03</course>
  <speed>0.0</speed>
  <fix>3d</fix>
</trkpt>
<trkpt lat="40.072842" lon="-105.230575">
  <ele>1586.09</ele>
  <time>2026-08-27T18:26:27Z</time>
  <course>11.92</course>
  <speed>0.0</speed>
  <fix>3d</fix>
</trkpt>
<trkpt lat="40.072842" lon="-105.230575">
  <ele>1586.09</ele>
  <time>2026-08-27T18:26:27Z</time>
  <course>266.03</course>
  <speed>0.0</speed>
  <fix>3d</fix>
</trkpt>
<trkpt lat="40.072842" lon="-105.230575">
  <ele>1586.09</ele>
  <time>2026-08-27T18:26:27Z</time>
  <course>11.95</course>
  <speed>0.0</speed>
  <fix>3d</fix>
</trkpt>
<trkpt lat="40.072842" lon="-105.230575">
  <ele>1586.09</ele>
  <time>2026-08-27T18:26:27Z</time>
  <course>266.03</course>
  <speed>0.0</speed>
  <fix>3d</fix>
</trkpt>
<trkpt lat="40.072842" lon="-105.230575">
  <ele>1586.09</ele>
  <time>2026-08-27T18:26:27Z</time>
  <course>11.97</course>
  <speed>0.0</speed>
  <fix>3d</fix>
</trkpt>
<trkpt lat="40.072842" lon="-105.230575">
  <ele>1586.09</ele>
  <time>2026-08-27T18:26:27Z</time>
  <course>266.03</course>
  <speed>0.0</speed>
  <fix>3d</fix>
</trkpt>
<trkpt lat="40.072842" lon="-105.230575">
  <ele>1586.09</ele>
  <time>2026-08-27T18:26:27Z</time>
  <course>12.0</course>
  <speed>0.0</speed>
  <fix>3d</fix>
</trkpt>
<trkpt lat="40.072842" lon="-105.230575">
  <ele>1586.09</ele>
  <time>2026-08-27T18:26:27Z</time>
  <course>266.03</course>
  <speed>0.0</speed>
  <fix>3d</fix>
</trkpt>
<trkpt lat="40.072842" lon="-105.230575">
  <ele>1586.09</ele>
  <time>2026-08-27T18:26:27Z</time>
  <course>12.02</course>
  <speed>0.0</speed>
  <fix>3d</fix>
</trkpt>
<trkpt lat="40.072842" lon="-105.230575">
  <ele>1586.09</ele>
  <time>2026-08-27T18:26:27Z</time>
  <course>266.03</course>
  <speed>0.0</speed>
  <fix>3d</fix>
</trkpt>
<trkpt lat="40.072842" lon="-105.230575">
  <ele>1586.09</ele>
  <time>2026-08-27T18:26:27Z</time>
  <course>12.03</course>
  <speed>0.0</speed>
  <fix>3d</fix>
</trkpt>
<trkpt lat="40.072842" lon="-105.230575">
  <ele>1586.09</ele>
  <time>2026-08-27T18:26:27Z</time>
  <course>266.03</course>
  <speed>0.0</speed>
  <fix>3d</fix>
</trkpt>
<trkpt lat="40.072842" lon="-105.230575">
  <ele>1586.09</ele>
  <time>2026-08-27T18:26:27Z</time>
  <course>12.05</course>
  <speed>0.0</speed>
  <fix>3d</fix>
</trkpt>
<trkpt lat="40.072842" lon="-105.230575">
  <ele>1586.09</ele>
  <time>2026-08-27T18:26:27Z</time>
  <course>266.03</course>
  <speed>0.0</speed>
  <fix>3d</fix>
</trkpt>
<trkpt lat="40.072842" lon="-105.230575">
  <ele>1586.09</ele>
  <time>2026-08-27T18:26:27Z</time>
  <course>12.07</course>
  <speed>0.0</speed>
  <fix>3d</fix>
</trkpt>
<trkpt lat="40.072842" lon="-105.230575">
  <ele>1586.09</ele>
  <time>2026-08-27T18:26:27Z</time>
  <course>266.03</course>
  <speed>0.0</speed>
  <fix>3d</fix>
</trkpt>
<trkpt lat="40.072842" lon="-105.230575">
  <ele>1586.09</ele>
  <time>2026-08-27T18:26:27Z</time>
  <course>12.08</course>
  <speed>0.0</speed>
  <fix>3d</fix>
</trkpt>
<trkpt lat="40.072842" lon="-105.230575">
  <ele>1586.09</ele>
  <time>2026-08-27T18:26:27Z</time>
  <course>266.03</course>
  <speed>0.0</speed>
  <fix>3d</fix>
</trkpt>
<trkpt lat="40.072842" lon="-105.230575">
  <ele>1586.09</ele>
  <time>2026-08-27T18:26:27Z</time>
  <course>12.09</course>
  <speed>0.0</speed>
  <fix>3d</fix>
</trkpt>
<trkpt lat="40.072842" lon="-105.230575">
  <ele>1586.09</ele>
  <time>2026-08-27T18:26:27Z</time>
  <course>266.03</course>
  <speed>0.0</speed>
  <fix>3d</fix>
</trkpt>
<trkpt lat="40.072842" lon="-105.230575">
  <ele>1586.09</ele>
  <time>2026-08-27T18:26:27Z</time>
  <course>12.1</course>
  <speed>0.0</speed>
  <fix>3d</fix>
</trkpt>
<trkpt lat="40.072842" lon="-105.230575">
  <ele>1586.09</ele>
  <time>2026-08-27T18:26:27Z</time>
  <course>266.03</course>
  <speed>0.0</speed>
  <fix>3d</fix>
</trkpt>
<trkpt lat="40.072842" lon="-105.230575">
  <ele>1586.09</ele>
  <time>2026-08-27T18:26:27Z</time>
  <course>12.1</course>
  <speed>0.0</speed>
  <fix>3d</fix>
</trkpt>
<trkpt lat="40.072842" lon="-105.230575">
  <ele>1586.09</ele>
  <time>2026-08-27T18:26:27Z</time>
  <course>266.03</course>
  <speed>0.0</speed>
  <fix>3d</fix>
</trkpt>
<trkpt lat="40.072842" lon="-105.230575">
  <ele>1586.09</ele>
  <time>2026-08-27T18:26:27Z</time>
  <course>12.11</course>
  <speed>0.0</speed>
  <fix>3d</fix>
</trkpt>
<trkpt lat="40.072842" lon="-105.230575">
  <ele>1586.09</ele>
  <time>2026-08-27T18:26:27Z</time>
  <course>266.03</course>
  <speed>0.0</speed>
  <fix>3d</fix>
</trkpt>
<trkpt lat="40.072842" lon="-105.230575">
  <ele>1586.09</ele>
  <time>2026-08-27T18:26:27Z</time>
  <course>12.12</course>
  <speed>0.0</speed>
  <fix>3d</fix>
</trkpt>
<trkpt lat="40.072842" lon="-105.230575">
  <ele>1586.09</ele>
  <time>2026-08-27T18:26:27Z</time>
  <course>266.03</course>
  <speed>0.0</speed>
  <fix>3d</fix>
</trkpt>
<trkpt lat="40.072842" lon="-105.230575">
  <ele>1586.09</ele>
  <time>2026-08-27T18:26:27Z</time>
  <course>12.12</course>
  <speed>0.0</speed>
  <fix>3d</fix>
</trkpt>
<trkpt lat="40.072842" lon="-105.230575">
  <ele>1586.09</ele>
  <time>2026-08-27T18:26:27Z</time>
  <course>266.03</course>
  <speed>0.0</speed>
  <fix>3d</fix>
</trkpt>
<trkpt lat="40.072842" lon="-105.230575">
  <ele>1586.09</ele>
  <time>2026-08-27T18:26:27Z</time>
  <course>12.12</course>
  <speed>0.0</speed>
  <fix>3d</fix>
</trkpt>
<trkpt lat="40.072842" lon="-105.230575">
  <ele>1586.09</ele>
  <time>2026-08-27T18:26:27Z</time>
  <course>266.03</course>
  <speed>0.0</speed>
  <fix>3d</fix>
</trkpt>
<trkpt lat="40.072842" lon="-105.230575">
  <ele>1586.09</ele>
  <time>2026-08-27T18:26:27Z</time>
  <course>12.13</course>
  <speed>0.0</speed>
  <fix>3d</fix>
</trkpt>
<trkpt lat="40.072842" lon="-105.230575">
  <ele>1586.09</ele>
  <time>2026-08-27T18:26:27Z</time>
  <course>266.03</course>
  <speed>0.0</speed>
  <fix>3d</fix>
</trkpt>
<trkpt lat="40.072842" lon="-105.230575">
  <ele>1586.09</ele>
  <time>2026-08-27T18:26:27Z</time>
  <course>12.13</course>
  <speed>0.0</speed>
  <fix>3d</fix>
</trkpt>
<trkpt lat="40.072842" lon="-105.230575">
  <ele>1586.09</ele>
  <time>2026-08-27T18:26:27Z</time>
  <course>266.03</course>
  <speed>0.0</speed>
  <fix>3d</fix>
</trkpt>
<trkpt lat="40.072842" lon="-105.230575">
  <ele>1586.09</ele>
  <time>2026-08-27T18:26:27Z</time>
  <course>12.13</course>
  <speed>0.0</speed>
  <fix>3d</fix>
</trkpt>
<trkpt lat="40.072842" lon="-105.230575">
  <ele>1586.09</ele>
  <time>2026-08-27T18:26:27Z</time>
  <course>266.03</course>
  <speed>0.0</speed>
  <fix>3d</fix>
</trkpt>
<trkpt lat="40.072842" lon="-105.230575">
  <ele>1586.09</ele>
  <time>2026-08-27T18:26:27Z</time>
  <course>12.12</course>
  <speed>0.01</speed>
  <fix>3d</fix>
</trkpt>
<trkpt lat="40.072842" lon="-105.230575">
  <ele>1586.09</ele>
  <time>2026-08-27T18:26:27Z</time>
  <course>266.03</course>
  <speed>0.0</speed>
  <fix>3d</fix>
</trkpt>
<trkpt lat="40.072842" lon="-105.230575">
  <ele>1586.09</ele>
  <time>2026-08-27T18:26:27Z</time>
  <course>12.12</course>
  <speed>0.01</speed>
  <fix>3d</fix>
</trkpt>
<trkpt lat="40.072842" lon="-105.230575">
  <ele>1586.09</ele>
  <time>2026-08-27T18:26:27Z</time>
  <course>266.03</course>
  <speed>0.0</speed>
  <fix>3d</fix>
</trkpt>
<trkpt lat="40.072842" lon="-105.230575">
  <ele>1586.09</ele>
  <time>2026-08-27T18:26:27Z</time>
  <course>12.12</course>
  <speed>0.01</speed>
  <fix>3d</fix>
</trkpt>
<trkpt lat="40.072842" lon="-105.230575">
  <ele>1586.09</ele>
  <time>2026-08-27T18:26:27Z</time>
  <course>266.03</course>
  <speed>0.0</speed>
  <fix>3d</fix>
</trkpt>
<trkpt lat="40.072842" lon="-105.230575">
  <ele>1586.09</ele>
  <time>2026-08-27T18:26:27Z</time>
  <course>12.12</course>
  <speed>0.01</speed>
  <fix>3d</fix>
</trkpt>
<trkpt lat="40.072842" lon="-105.230575">
  <ele>1586.09</ele>
  <time>2026-08-27T18:26:27Z</time>
  <course>266.03</course>
  <speed>0.0</speed>
  <fix>3d</fix>
</trkpt>
<trkpt lat="40.072842" lon="-105.230575">
  <ele>1586.09</ele>
  <time>2026-08-27T18:26:27Z</time>
  <course>12.11</course>
  <speed>0.01</speed>
  <fix>3d</fix>
</trkpt>
<trkpt lat="40.072842" lon="-105.230575">
  <ele>1586.09</ele>
  <time>2026-08-27T18:26:27Z</time>
  <course>266.03</course>
  <speed>0.0</speed>
  <fix>3d</fix>
</trkpt>
<trkpt lat="40.072842" lon="-105.230575">
  <ele>1586.09</ele>
  <time>2026-08-27T18:26:27Z</time>
  <course>12.11</course>
  <speed>0.01</speed>
  <fix>3d</fix>
</trkpt>
<trkpt lat="40.072842" lon="-105.230575">
  <ele>1586.09</ele>
  <time>2026-08-27T18:26:27Z</time>
  <course>266.03</course>
  <speed>0.0</speed>
  <fix>3d</fix>
</trkpt>
<trkpt lat="40.072842" lon="-105.230575">
  <ele>1586.09</ele>
  <time>2026-08-27T18:26:27Z</time>
  <course>12.1</course>
  <speed>0.01</speed>
  <fix>3d</fix>
</trkpt>
<trkpt lat="40.072842" lon="-105.230575">
  <ele>1586.09</ele>
  <time>2026-08-27T18:26:27Z</time>
  <course>266.03</course>
  <speed>0.0</speed>
  <fix>3d</fix>
</trkpt>
<trkpt lat="40.072842" lon="-105.230575">
  <ele>1586.09</ele>
  <time>2026-08-27T18:26:27Z</time>
  <course>12.1</course>
  <speed>0.01</speed>
  <fix>3d</fix>
</trkpt>
<trkpt lat="40.072842" lon="-105.230575">
  <ele>1586.09</ele>
  <time>2026-08-27T18:26:27Z</time>
  <course>266.03</course>
  <speed>0.0</speed>
  <fix>3d</fix>
</trkpt>
<trkpt lat="40.072842" lon="-105.230575">
  <ele>1586.09</ele>
  <time>2026-08-27T18:26:27Z</time>
  <course>12.09</course>
  <speed>0.01</speed>
  <fix>3d</fix>
</trkpt>
<trkpt lat="40.072842" lon="-105.230575">
  <ele>1586.09</ele>
  <time>2026-08-27T18:26:27Z</time>
  <course>266.03</course>
  <speed>0.0</speed>
  <fix>3d</fix>
</trkpt>
<trkpt lat="40.072842" lon="-105.230575">
  <ele>1586.09</ele>
  <time>2026-08-27T18:26:27Z</time>
  <course>12.09</course>
  <speed>0.01</speed>
  <fix>3d</fix>
</trkpt>
<trkpt lat="40.072842" lon="-105.230575">
  <ele>1586.09</ele>
  <time>2026-08-27T18:26:27Z</time>
  <course>266.03</course>
  <speed>0.0</speed>
  <fix>3d</fix>
</trkpt>
<trkpt lat="40.072842" lon="-105.230575">
  <ele>1586.09</ele>
  <time>2026-08-27T18:26:27Z</time>
  <course>12.08</course>
  <speed>0.01</speed>
  <fix>3d</fix>
</trkpt>
<trkpt lat="40.072842" lon="-105.230575">
  <ele>1586.09</ele>
  <time>2026-08-27T18:26:27Z</time>
  <course>266.03</course>
  <speed>0.0</speed>
  <fix>3d</fix>
</trkpt>
<trkpt lat="40.072842" lon="-105.230575">
  <ele>1586.09</ele>
  <time>2026-08-27T18:26:27Z</time>
  <course>12.08</course>
  <speed>0.01414213562373095</speed>
  <fix>3d</fix>
</trkpt>
<trkpt lat="40.072842" lon="-105.230575">
  <ele>1586.09</ele>
  <time>2026-08-27T18:26:27Z</time>
  <course>266.03</course>
  <speed>0.0</speed>
  <fix>3d</fix>
</trkpt>
<trkpt lat="40.072842" lon="-105.230575">
  <ele>1586.09</ele>
  <time>2026-08-27T18:26:27Z</time>
  <course>12.07</course>
  <speed>0.01414213562373095</speed>
  <fix>3d</fix>
</trkpt>
<trkpt lat="40.072842" lon="-105.230575">
  <ele>1586.09</ele>
  <time>2026-08-27T18:26:27Z</time>
  <course>266.03</course>
  <speed>0.0</speed>
  <fix>3d</fix>
</trkpt>
<trkpt lat="40.072842" lon="-105.230575">
  <ele>1586.09</ele>
  <time>2026-08-27T18:26:27Z</time>
  <course>12.06</course>
  <speed>0.01414213562373095</speed>
  <fix>3d</fix>
</trkpt>
<trkpt lat="40.072842" lon="-105.230575">
  <ele>1586.09</ele>
  <time>2026-08-27T18:26:27Z</time>
  <course>266.03</course>
  <speed>0.0</speed>
  <fix>3d</fix>
</trkpt>
<trkpt lat="40.072842" lon="-105.230575">
  <ele>1586.09</ele>
  <time>2026-08-27T18:26:27Z</time>
  <course>12.05</course>
  <speed>0.01414213562373095</speed>
  <fix>3d</fix>
</trkpt>
<trkpt lat="40.072842" lon="-105.230575">
  <ele>1586.09</ele>
  <time>2026-08-27T18:26:27Z</time>
  <course>266.03</course>
  <speed>0.0</speed>
  <fix>3d</fix>
</trkpt>
<trkpt lat="40.072842" lon="-105.230575">
  <ele>1586.09</ele>
  <time>2026-08-27T18:26:27Z</time>
  <course>12.05</course>
  <speed>0.01414213562373095</speed>
  <fix>3d</fix>
</trkpt>
<trkpt lat="40.072842" lon="-105.230575">
  <ele>1586.09</ele>
  <time>2026-08-27T18:26:27Z</time>
  <course>266.03</course>
  <speed>0.0</speed>
  <fix>3d</fix>
</trkpt>
<trkpt lat="40.072842" lon="-105.230575">
  <ele>1586.09</ele>
  <time>2026-08-27T18:26:27Z</time>
  <course>12.04</course>
  <speed>0.01414213562373095</speed>
  <fix>3d</fix>
</trkpt>
<trkpt lat="40.072842" lon="-105.230575">
  <ele>1586.09</ele>
  <time>2026-08-27T18:26:27Z</time>
  <course>266.03</course>
  <speed>0.0</speed>
  <fix>3d</fix>
</trkpt>
<trkpt lat="40.072842" lon="-105.230575">
  <ele>1586.09</ele>
  <time>2026-08-27T18:26:27Z</time>
  <course>12.03</course>
  <speed>0.01414213562373095</speed>
  <fix>3d</fix>
</trkpt>
<trkpt lat="40.072842" lon="-105.230575">
  <ele>1586.09</ele>
  <time>2026-08-27T18:26:27Z</time>
  <course>266.03</course>
  <speed>0.0</speed>
  <fix>3d</fix>
</trkpt>
<trkpt lat="40.072842" lon="-105.230575">
  <ele>1586.09</ele>
  <time>2026-08-27T18:26:27Z</time>
  <course>12.03</course>
  <speed>0.01414213562373095</speed>
  <fix>3d</fix>
</trkpt>
<trkpt lat="40.072842" lon="-105.230575">
  <ele>1586.09</ele>
  <time>2026-08-27T18:26:27Z</time>
  <course>266.03</course>
  <speed>0.0</speed>
  <fix>3d</fix>
</trkpt>
<trkpt lat="40.072842" lon="-105.230575">
  <ele>1586.09</ele>
  <time>2026-08-27T18:26:27Z</time>
  <course>12.02</course>
  <speed>0.01414213562373095</speed>
  <fix>3d</fix>
</trkpt>
<trkpt lat="40.072842" lon="-105.230575">
  <ele>1586.09</ele>
  <time>2026-08-27T18:26:27Z</time>
  <course>266.03</course>
  <speed>0.0</speed>
  <fix>3d</fix>
</trkpt>
<trkpt lat="40.072842" lon="-105.230575">
  <ele>1586.09</ele>
  <time>2026-08-27T18:26:28Z</time>
  <course>12.01</course>
  <speed>0.01414213562373095</speed>
  <fix>3d</fix>
</trkpt>
<trkpt lat="40.072842" lon="-105.230575">
  <ele>1586.09</ele>
  <time>2026-08-27T18:26:28Z</time>
  <course>266.03</course>
  <speed>0.0</speed>
  <fix>3d</fix>
</trkpt>
<trkpt lat="40.072842" lon="-105.230575">
  <ele>1586.09</ele>
  <time>2026-08-27T18:26:28Z</time>
  <course>12.01</course>
  <speed>0.01414213562373095</speed>
  <fix>3d</fix>
</trkpt>
<trkpt lat="40.072842" lon="-105.230575">
  <ele>1586.09</ele>
  <time>2026-08-27T18:26:28Z</time>
  <course>266.03</course>
  <speed>0.0</speed>
  <fix>3d</fix>
</trkpt>
<trkpt lat="40.072842" lon="-105.230575">
  <ele>1586.09</ele>
  <time>2026-08-27T18:26:28Z</time>
  <course>12.0</course>
  <speed>0.01414213562373095</speed>
  <fix>3d</fix>
</trkpt>
<trkpt lat="40.072842" lon="-105.230575">
  <ele>1586.09</ele>
  <time>2026-08-27T18:26:28Z</time>
  <course>266.03</course>
  <speed>0.0</speed>
  <fix>3d</fix>
</trkpt>
<trkpt lat="40.072842" lon="-105.230575">
  <ele>1586.09</ele>
  <time>2026-08-27T18:26:28Z</time>
  <course>11.99</course>
  <speed>0.01414213562373095</speed>
  <fix>3d</fix>
</trkpt>
<trkpt lat="40.072842" lon="-105.230575">
  <ele>1586.09</ele>
  <time>2026-08-27T18:26:28Z</time>
  <course>266.03</course>
  <speed>0.0</speed>
  <fix>3d</fix>
</trkpt>
<trkpt lat="40.072842" lon="-105.230575">
  <ele>1586.09</ele>
  <time>2026-08-27T18:26:28Z</time>
  <course>11.98</course>
  <speed>0.01414213562373095</speed>
  <fix>3d</fix>
</trkpt>
<trkpt lat="40.072842" lon="-105.230575">
  <ele>1586.09</ele>
  <time>2026-08-27T18:26:28Z</time>
  <course>266.03</course>
  <speed>0.0</speed>
  <fix>3d</fix>
</trkpt>
<trkpt lat="40.072842" lon="-105.230575">
  <ele>1586.09</ele>
  <time>2026-08-27T18:26:28Z</time>
  <course>11.98</course>
  <speed>0.01414213562373095</speed>
  <fix>3d</fix>
</trkpt>
<trkpt lat="40.072842" lon="-105.230575">
  <ele>1586.09</ele>
  <time>2026-08-27T18:26:28Z</time>
  <course>266.03</course>
  <speed>0.0</speed>
  <fix>3d</fix>
</trkpt>
<trkpt lat="40.072842" lon="-105.230575">
  <ele>1586.09</ele>
  <time>2026-08-27T18:26:28Z</time>
  <course>11.97</course>
  <speed>0.022360679774997897</speed>
  <fix>3d</fix>
</trkpt>
<trkpt lat="40.072842" lon="-105.230575">
  <ele>1586.09</ele>
  <time>2026-08-27T18:26:28Z</time>
  <course>266.03</course>
  <speed>0.0</speed>
  <fix>3d</fix>
</trkpt>
<trkpt lat="40.072842" lon="-105.230575">
  <ele>1586.09</ele>
  <time>2026-08-27T18:26:28Z</time>
  <course>11.96</course>
  <speed>0.022360679774997897</speed>
  <fix>3d</fix>
</trkpt>
<trkpt lat="40.072842" lon="-105.230575">
  <ele>1586.09</ele>
  <time>2026-08-27T18:26:28Z</time>
  <course>266.03</course>
  <speed>0.0</speed>
  <fix>3d</fix>
</trkpt>
<trkpt lat="40.072842" lon="-105.230575">
  <ele>1586.09</ele>
  <time>2026-08-27T18:26:28Z</time>
  <course>11.95</course>
  <speed>0.022360679774997897</speed>
  <fix>3d</fix>
</trkpt>
<trkpt lat="40.072842" lon="-105.230575">
  <ele>1586.09</ele>
  <time>2026-08-27T18:26:28Z</time>
  <course>266.03</course>
  <speed>0.0</speed>
  <fix>3d</fix>
</trkpt>
<trkpt lat="40.072842" lon="-105.230575">
  <ele>1586.09</ele>
  <time>2026-08-27T18:26:28Z</time>
  <course>11.94</course>
  <speed>0.022360679774997897</speed>
  <fix>3d</fix>
</trkpt>
<trkpt lat="40.072842" lon="-105.230575">
  <ele>1586.09</ele>
  <time>2026-08-27T18:26:28Z</time>
  <course>266.03</course>
  <speed>0.0</speed>
  <fix>3d</fix>
</trkpt>
<trkpt lat="40.072842" lon="-105.230575">
  <ele>1586.09</ele>
  <time>2026-08-27T18:26:28Z</time>
  <course>11.93</course>
  <speed>0.022360679774997897</speed>
  <fix>3d</fix>
</trkpt>
<trkpt lat="40.072842" lon="-105.230575">
  <ele>1586.09</ele>
  <time>2026-08-27T18:26:28Z</time>
  <course>266.03</course>
  <speed>0.0</speed>
  <fix>3d</fix>
</trkpt>
<trkpt lat="40.072842" lon="-105.230575">
  <ele>1586.09</ele>
  <time>2026-08-27T18:26:28Z</time>
  <course>11.92</course>
  <speed>0.022360679774997897</speed>
  <fix>3d</fix>
</trkpt>
<trkpt lat="40.072842" lon="-105.230575">
  <ele>1586.09</ele>
  <time>2026-08-27T18:26:28Z</time>
  <course>266.03</course>
  <speed>0.0</speed>
  <fix>3d</fix>
</trkpt>
<trkpt lat="40.072842" lon="-105.230575">
  <ele>1586.09</ele>
  <time>2026-08-27T18:26:28Z</time>
  <course>11.92</course>
  <speed>0.022360679774997897</speed>
  <fix>3d</fix>
</trkpt>
<trkpt lat="40.072842" lon="-105.230575">
  <ele>1586.09</ele>
  <time>2026-08-27T18:26:28Z</time>
  <course>266.03</course>
  <speed>0.0</speed>
  <fix>3d</fix>
</trkpt>
<trkpt lat="40.072842" lon="-105.230575">
  <ele>1586.09</ele>
  <time>2026-08-27T18:26:28Z</time>
  <course>11.91</course>
  <speed>0.022360679774997897</speed>
  <fix>3d</fix>
</trkpt>
<trkpt lat="40.072842" lon="-105.230575">
  <ele>1586.09</ele>
  <time>2026-08-27T18:26:28Z</time>
  <course>266.03</course>
  <speed>0.0</speed>
  <fix>3d</fix>
</trkpt>
<trkpt lat="40.072842" lon="-105.230575">
  <ele>1586.09</ele>
  <time>2026-08-27T18:26:28Z</time>
  <course>11.9</course>
  <speed>0.022360679774997897</speed>
  <fix>3d</fix>
</trkpt>
<trkpt lat="40.072842" lon="-105.230575">
  <ele>1586.09</ele>
  <time>2026-08-27T18:26:28Z</time>
  <course>266.03</course>
  <speed>0.0</speed>
  <fix>3d</fix>
</trkpt>
<trkpt lat="40.072842" lon="-105.230575">
  <ele>1586.09</ele>
  <time>2026-08-27T18:26:28Z</time>
  <course>11.89</course>
  <speed>0.022360679774997897</speed>
  <fix>3d</fix>
</trkpt>
<trkpt lat="40.072842" lon="-105.230575">
  <ele>1586.09</ele>
  <time>2026-08-27T18:26:28Z</time>
  <course>266.03</course>
  <speed>0.0</speed>
  <fix>3d</fix>
</trkpt>
<trkpt lat="40.072842" lon="-105.230575">
  <ele>1586.09</ele>
  <time>2026-08-27T18:26:28Z</time>
  <course>11.88</course>
  <speed>0.022360679774997897</speed>
  <fix>3d</fix>
</trkpt>
<trkpt lat="40.072842" lon="-105.230575">
  <ele>1586.09</ele>
  <time>2026-08-27T18:26:28Z</time>
  <course>266.03</course>
  <speed>0.0</speed>
  <fix>3d</fix>
</trkpt>
<trkpt lat="40.072842" lon="-105.230575">
  <ele>1586.09</ele>
  <time>2026-08-27T18:26:28Z</time>
  <course>11.88</course>
  <speed>0.022360679774997897</speed>
  <fix>3d</fix>
</trkpt>
<trkpt lat="40.072842" lon="-105.230575">
  <ele>1586.09</ele>
  <time>2026-08-27T18:26:28Z</time>
  <course>266.03</course>
  <speed>0.0</speed>
  <fix>3d</fix>
</trkpt>
<trkpt lat="40.072842" lon="-105.230575">
  <ele>1586.09</ele>
  <time>2026-08-27T18:26:28Z</time>
  <course>11.87</course>
  <speed>0.022360679774997897</speed>
  <fix>3d</fix>
</trkpt>
<trkpt lat="40.072842" lon="-105.230575">
  <ele>1586.09</ele>
  <time>2026-08-27T18:26:28Z</time>
  <course>266.03</course>
  <speed>0.0</speed>
  <fix>3d</fix>
</trkpt>
<trkpt lat="40.072842" lon="-105.230575">
  <ele>1586.09</ele>
  <time>2026-08-27T18:26:28Z</time>
  <course>11.86</course>
  <speed>0.022360679774997897</speed>
  <fix>3d</fix>
</trkpt>
<trkpt lat="40.072842" lon="-105.230575">
  <ele>1586.09</ele>
  <time>2026-08-27T18:26:28Z</time>
  <course>266.03</course>
  <speed>0.0</speed>
  <fix>3d</fix>
</trkpt>
<trkpt lat="40.072842" lon="-105.230575">
  <ele>1586.09</ele>
  <time>2026-08-27T18:26:28Z</time>
  <course>11.85</course>
  <speed>0.022360679774997897</speed>
  <fix>3d</fix>
</trkpt>
<trkpt lat="40.072842" lon="-105.230575">
  <ele>1586.09</ele>
  <time>2026-08-27T18:26:28Z</time>
  <course>266.03</course>
  <speed>0.0</speed>
  <fix>3d</fix>
</trkpt>
<trkpt lat="40.072842" lon="-105.230575">
  <ele>1586.09</ele>
  <time>2026-08-27T18:26:28Z</time>
  <course>11.84</course>
  <speed>0.0282842712474619</speed>
  <fix>3d</fix>
</trkpt>
<trkpt lat="40.072842" lon="-105.230575">
  <ele>1586.09</ele>
  <time>2026-08-27T18:26:28Z</time>
  <course>266.03</course>
  <speed>0.0</speed>
  <fix>3d</fix>
</trkpt>
<trkpt lat="40.072842" lon="-105.230575">
  <ele>1586.09</ele>
  <time>2026-08-27T18:26:28Z</time>
  <course>11.83</course>
  <speed>0.0282842712474619</speed>
  <fix>3d</fix>
</trkpt>
<trkpt lat="40.072842" lon="-105.230575">
  <ele>1586.09</ele>
  <time>2026-08-27T18:26:28Z</time>
  <course>266.03</course>
  <speed>0.0</speed>
  <fix>3d</fix>
</trkpt>
<trkpt lat="40.072842" lon="-105.230575">
  <ele>1586.09</ele>
  <time>2026-08-27T18:26:28Z</time>
  <course>11.83</course>
  <speed>0.0282842712474619</speed>
  <fix>3d</fix>
</trkpt>
<trkpt lat="40.072842" lon="-105.230575">
  <ele>1586.09</ele>
  <time>2026-08-27T18:26:28Z</time>
  <course>266.03</course>
  <speed>0.0</speed>
  <fix>3d</fix>
</trkpt>
<trkpt lat="40.072842" lon="-105.230575">
  <ele>1586.09</ele>
  <time>2026-08-27T18:26:28Z</time>
  <course>11.82</course>
  <speed>0.0282842712474619</speed>
  <fix>3d</fix>
</trkpt>
<trkpt lat="40.072842" lon="-105.230575">
  <ele>1586.09</ele>
  <time>2026-08-27T18:26:28Z</time>
  <course>266.03</course>
  <speed>0.0</speed>
  <fix>3d</fix>
</trkpt>
<trkpt lat="40.072842" lon="-105.230575">
  <ele>1586.09</ele>
  <time>2026-08-27T18:26:28Z</time>
  <course>11.81</course>
  <speed>0.0282842712474619</speed>
  <fix>3d</fix>
</trkpt>
<trkpt lat="40.072842" lon="-105.230575">
  <ele>1586.09</ele>
  <time>2026-08-27T18:26:28Z</time>
  <course>266.03</course>
  <speed>0.0</speed>
  <fix>3d</fix>
</trkpt>
<trkpt lat="40.072842" lon="-105.230575">
  <ele>1586.09</ele>
  <time>2026-08-27T18:26:28Z</time>
  <course>11.8</course>
  <speed>0.0282842712474619</speed>
  <fix>3d</fix>
</trkpt>
<trkpt lat="40.072842" lon="-105.230575">
  <ele>1586.09</ele>
  <time>2026-08-27T18:26:28Z</time>
  <course>266.03</course>
  <speed>0.0</speed>
  <fix>3d</fix>
</trkpt>
<trkpt lat="40.072842" lon="-105.230575">
  <ele>1586.09</ele>
  <time>2026-08-27T18:26:28Z</time>
  <course>11.79</course>
  <speed>0.0282842712474619</speed>
  <fix>3d</fix>
</trkpt>
<trkpt lat="40.072842" lon="-105.230575">
  <ele>1586.09</ele>
  <time>2026-08-27T18:26:28Z</time>
  <course>266.03</course>
  <speed>0.0</speed>
  <fix>3d</fix>
</trkpt>
<trkpt lat="40.072842" lon="-105.230575">
  <ele>1586.09</ele>
  <time>2026-08-27T18:26:28Z</time>
  <course>11.79</course>
  <speed>0.0282842712474619</speed>
  <fix>3d</fix>
</trkpt>
<trkpt lat="40.072842" lon="-105.230575">
  <ele>1586.09</ele>
  <time>2026-08-27T18:26:28Z</time>
  <course>266.03</course>
  <speed>0.0</speed>
  <fix>3d</fix>
</trkpt>
<trkpt lat="40.072842" lon="-105.230575">
  <ele>1586.09</ele>
  <time>2026-08-27T18:26:28Z</time>
  <course>11.78</course>
  <speed>0.0282842712474619</speed>
  <fix>3d</fix>
</trkpt>
<trkpt lat="40.072842" lon="-105.230575">
  <ele>1586.09</ele>
  <time>2026-08-27T18:26:28Z</time>
  <course>266.03</course>
  <speed>0.0</speed>
  <fix>3d</fix>
</trkpt>
<trkpt lat="40.072842" lon="-105.230575">
  <ele>1586.09</ele>
  <time>2026-08-27T18:26:28Z</time>
  <course>11.77</course>
  <speed>0.0282842712474619</speed>
  <fix>3d</fix>
</trkpt>
<trkpt lat="40.072842" lon="-105.230575">
  <ele>1586.09</ele>
  <time>2026-08-27T18:26:28Z</time>
  <course>266.03</course>
  <speed>0.0</speed>
  <fix>3d</fix>
</trkpt>
<trkpt lat="40.072842" lon="-105.230575">
  <ele>1586.09</ele>
  <time>2026-08-27T18:26:28Z</time>
  <course>11.77</course>
  <speed>0.0282842712474619</speed>
  <fix>3d</fix>
</trkpt>
<trkpt lat="40.072842" lon="-105.230575">
  <ele>1586.09</ele>
  <time>2026-08-27T18:26:28Z</time>
  <course>266.03</course>
  <speed>0.0</speed>
  <fix>3d</fix>
</trkpt>
<trkpt lat="40.072842" lon="-105.230575">
  <ele>1586.09</ele>
  <time>2026-08-27T18:26:28Z</time>
  <course>11.76</course>
  <speed>0.0282842712474619</speed>
  <fix>3d</fix>
</trkpt>
<trkpt lat="40.072842" lon="-105.230575">
  <ele>1586.09</ele>
  <time>2026-08-27T18:26:28Z</time>
  <course>266.03</course>
  <speed>0.0</speed>
  <fix>3d</fix>
</trkpt>
<trkpt lat="40.072842" lon="-105.230575">
  <ele>1586.09</ele>
  <time>2026-08-27T18:26:28Z</time>
  <course>11.75</course>
  <speed>0.0282842712474619</speed>
  <fix>3d</fix>
</trkpt>
<trkpt lat="40.072842" lon="-105.230575">
  <ele>1586.09</ele>
  <time>2026-08-27T18:26:28Z</time>
  <course>266.03</course>
  <speed>0.0</speed>
  <fix>3d</fix>
</trkpt>
<trkpt lat="40.072842" lon="-105.230575">
  <ele>1586.09</ele>
  <time>2026-08-27T18:26:28Z</time>
  <course>11.74</course>
  <speed>0.03605551275463989</speed>
  <fix>3d</fix>
</trkpt>
<trkpt lat="40.072842" lon="-105.230575">
  <ele>1586.09</ele>
  <time>2026-08-27T18:26:28Z</time>
  <course>266.03</course>
  <speed>0.0</speed>
  <fix>3d</fix>
</trkpt>
<trkpt lat="40.072842" lon="-105.230575">
  <ele>1586.09</ele>
  <time>2026-08-27T18:26:28Z</time>
  <course>11.73</course>
  <speed>0.03605551275463989</speed>
  <fix>3d</fix>
</trkpt>
<trkpt lat="40.072842" lon="-105.230575">
  <ele>1586.09</ele>
  <time>2026-08-27T18:26:28Z</time>
  <course>266.03</course>
  <speed>0.0</speed>
  <fix>3d</fix>
</trkpt>
<trkpt lat="40.072842" lon="-105.230575">
  <ele>1586.09</ele>
  <time>2026-08-27T18:26:28Z</time>
  <course>11.73</course>
  <speed>0.03605551275463989</speed>
  <fix>3d</fix>
</trkpt>
<trkpt lat="40.072842" lon="-105.230575">
  <ele>1586.09</ele>
  <time>2026-08-27T18:26:28Z</time>
  <course>266.03</course>
  <speed>0.0</speed>
  <fix>3d</fix>
</trkpt>
<trkpt lat="40.072842" lon="-105.230575">
  <ele>1586.09</ele>
  <time>2026-08-27T18:26:28Z</time>
  <course>11.72</course>
  <speed>0.03605551275463989</speed>
  <fix>3d</fix>
</trkpt>
<trkpt lat="40.072842" lon="-105.230575">
  <ele>1586.09</ele>
  <time>2026-08-27T18:26:28Z</time>
  <course>266.03</course>
  <speed>0.0</speed>
  <fix>3d</fix>
</trkpt>
<trkpt lat="40.072842" lon="-105.230575">
  <ele>1586.09</ele>
  <time>2026-08-27T18:26:28Z</time>
  <course>11.71</course>
  <speed>0.03605551275463989</speed>
  <fix>3d</fix>
</trkpt>
<trkpt lat="40.072842" lon="-105.230575">
  <ele>1586.09</ele>
  <time>2026-08-27T18:26:28Z</time>
  <course>266.03</course>
  <speed>0.0</speed>
  <fix>3d</fix>
</trkpt>
<trkpt lat="40.072842" lon="-105.230575">
  <ele>1586.09</ele>
  <time>2026-08-27T18:26:28Z</time>
  <course>11.71</course>
  <speed>0.03605551275463989</speed>
  <fix>3d</fix>
</trkpt>
<trkpt lat="40.072842" lon="-105.230575">
  <ele>1586.09</ele>
  <time>2026-08-27T18:26:28Z</time>
  <course>266.03</course>
  <speed>0.0</speed>
  <fix>3d</fix>
</trkpt>
<trkpt lat="40.072842" lon="-105.230575">
  <ele>1586.09</ele>
  <time>2026-08-27T18:26:28Z</time>
  <course>11.7</course>
  <speed>0.03605551275463989</speed>
  <fix>3d</fix>
</trkpt>
<trkpt lat="40.072842" lon="-105.230575">
  <ele>1586.09</ele>
  <time>2026-08-27T18:26:28Z</time>
  <course>266.03</course>
  <speed>0.0</speed>
  <fix>3d</fix>
</trkpt>
<trkpt lat="40.072842" lon="-105.230575">
  <ele>1586.09</ele>
  <time>2026-08-27T18:26:28Z</time>
  <course>11.69</course>
  <speed>0.03605551275463989</speed>
  <fix>3d</fix>
</trkpt>
<trkpt lat="40.072842" lon="-105.230575">
  <ele>1586.09</ele>
  <time>2026-08-27T18:26:28Z</time>
  <course>266.03</course>
  <speed>0.0</speed>
  <fix>3d</fix>
</trkpt>
<trkpt lat="40.072842" lon="-105.230575">
  <ele>1586.09</ele>
  <time>2026-08-27T18:26:28Z</time>
  <course>11.68</course>
  <speed>0.03605551275463989</speed>
  <fix>3d</fix>
</trkpt>
<trkpt lat="40.072842" lon="-105.230575">
  <ele>1586.09</ele>
  <time>2026-08-27T18:26:28Z</time>
  <course>266.03</course>
  <speed>0.0</speed>
  <fix>3d</fix>
</trkpt>
<trkpt lat="40.072842" lon="-105.230575">
  <ele>1586.09</ele>
  <time>2026-08-27T18:26:28Z</time>
  <course>11.68</course>
  <speed>0.03605551275463989</speed>
  <fix>3d</fix>
</trkpt>
<trkpt lat="40.072842" lon="-105.230575">
  <ele>1586.09</ele>
  <time>2026-08-27T18:26:28Z</time>
  <course>266.03</course>
  <speed>0.0</speed>
  <fix>3d</fix>
</trkpt>
<trkpt lat="40.072842" lon="-105.230575">
  <ele>1586.09</ele>
  <time>2026-08-27T18:26:28Z</time>
  <course>11.67</course>
  <speed>0.03605551275463989</speed>
  <fix>3d</fix>
</trkpt>
<trkpt lat="40.072842" lon="-105.230575">
  <ele>1586.09</ele>
  <time>2026-08-27T18:26:28Z</time>
  <course>266.03</course>
  <speed>0.0</speed>
  <fix>3d</fix>
</trkpt>
<trkpt lat="40.072842" lon="-105.230575">
  <ele>1586.09</ele>
  <time>2026-08-27T18:26:28Z</time>
  <course>11.66</course>
  <speed>0.03605551275463989</speed>
  <fix>3d</fix>
</trkpt>
<trkpt lat="40.072842" lon="-105.230575">
  <ele>1586.09</ele>
  <time>2026-08-27T18:26:28Z</time>
  <course>266.03</course>
  <speed>0.0</speed>
  <fix>3d</fix>
</trkpt>
<trkpt lat="40.072842" lon="-105.230575">
  <ele>1586.09</ele>
  <time>2026-08-27T18:26:28Z</time>
  <course>11.65</course>
  <speed>0.03605551275463989</speed>
  <fix>3d</fix>
</trkpt>
<trkpt lat="40.072842" lon="-105.230575">
  <ele>1586.09</ele>
  <time>2026-08-27T18:26:28Z</time>
  <course>266.03</course>
  <speed>0.0</speed>
  <fix>3d</fix>
</trkpt>
<trkpt lat="40.072842" lon="-105.230575">
  <ele>1586.09</ele>
  <time>2026-08-27T18:26:28Z</time>
  <course>11.65</course>
  <speed>0.03605551275463989</speed>
  <fix>3d</fix>
</trkpt>
<trkpt lat="40.072842" lon="-105.230575">
  <ele>1586.09</ele>
  <time>2026-08-27T18:26:28Z</time>
  <course>266.03</course>
  <speed>0.0</speed>
  <fix>3d</fix>
</trkpt>
<trkpt lat="40.072842" lon="-105.230575">
  <ele>1586.09</ele>
  <time>2026-08-27T18:26:28Z</time>
  <course>11.64</course>
  <speed>0.03605551275463989</speed>
  <fix>3d</fix>
</trkpt>
<trkpt lat="40.072842" lon="-105.230575">
  <ele>1586.09</ele>
  <time>2026-08-27T18:26:28Z</time>
  <course>266.03</course>
  <speed>0.0</speed>
  <fix>3d</fix>
</trkpt>
<trkpt lat="40.072842" lon="-105.230575">
  <ele>1586.09</ele>
  <time>2026-08-27T18:26:28Z</time>
  <course>11.63</course>
  <speed>0.03605551275463989</speed>
  <fix>3d</fix>
</trkpt>
<trkpt lat="40.072842" lon="-105.230575">
  <ele>1586.09</ele>
  <time>2026-08-27T18:26:28Z</time>
  <course>266.03</course>
  <speed>0.0</speed>
  <fix>3d</fix>
</trkpt>
<trkpt lat="40.072842" lon="-105.230575">
  <ele>1586.09</ele>
  <time>2026-08-27T18:26:28Z</time>
  <course>11.63</course>
  <speed>0.03605551275463989</speed>
  <fix>3d</fix>
</trkpt>
<trkpt lat="40.072842" lon="-105.230575">
  <ele>1586.09</ele>
  <time>2026-08-27T18:26:28Z</time>
  <course>266.03</course>
  <speed>0.0</speed>
  <fix>3d</fix>
</trkpt>
<trkpt lat="40.072842" lon="-105.230575">
  <ele>1586.09</ele>
  <time>2026-08-27T18:26:28Z</time>
  <course>11.62</course>
  <speed>0.03605551275463989</speed>
  <fix>3d</fix>
</trkpt>
<trkpt lat="40.072842" lon="-105.230575">
  <ele>1586.09</ele>
  <time>2026-08-27T18:26:28Z</time>
  <course>266.03</course>
  <speed>0.0</speed>
  <fix>3d</fix>
</trkpt>
<trkpt lat="40.072842" lon="-105.230575">
  <ele>1586.09</ele>
  <time>2026-08-27T18:26:28Z</time>
  <course>11.61</course>
  <speed>0.03605551275463989</speed>
  <fix>3d</fix>
</trkpt>
<trkpt lat="40.072842" lon="-105.230575">
  <ele>1586.09</ele>
  <time>2026-08-27T18:26:28Z</time>
  <course>266.03</course>
  <speed>0.0</speed>
  <fix>3d</fix>
</trkpt>
<trkpt lat="40.072842" lon="-105.230575">
  <ele>1586.09</ele>
  <time>2026-08-27T18:26:28Z</time>
  <course>11.61</course>
  <speed>0.03605551275463989</speed>
  <fix>3d</fix>
</trkpt>
<trkpt lat="40.072842" lon="-105.230575">
  <ele>1586.09</ele>
  <time>2026-08-27T18:26:28Z</time>
  <course>266.03</course>
  <speed>0.0</speed>
  <fix>3d</fix>
</trkpt>
<trkpt lat="40.072842" lon="-105.230575">
  <ele>1586.09</ele>
  <time>2026-08-27T18:26:28Z</time>
  <course>11.6</course>
  <speed>0.03605551275463989</speed>
  <fix>3d</fix>
</trkpt>
<trkpt lat="40.072842" lon="-105.230575">
  <ele>1586.09</ele>
  <time>2026-08-27T18:26:28Z</time>
  <course>266.03</course>
  <speed>0.0</speed>
  <fix>3d</fix>
</trkpt>
<trkpt lat="40.072842" lon="-105.230575">
  <ele>1586.09</ele>
  <time>2026-08-27T18:26:28Z</time>
  <course>11.6</course>
  <speed>0.03605551275463989</speed>
  <fix>3d</fix>
</trkpt>
<trkpt lat="40.072842" lon="-105.230575">
  <ele>1586.09</ele>
  <time>2026-08-27T18:26:28Z</time>
  <course>266.03</course>
  <speed>0.0</speed>
  <fix>3d</fix>
</trkpt>
<trkpt lat="40.072842" lon="-105.230575">
  <ele>1586.09</ele>
  <time>2026-08-27T18:26:28Z</time>
  <course>11.59</course>
  <speed>0.03605551275463989</speed>
  <fix>3d</fix>
</trkpt>
<trkpt lat="40.072842" lon="-105.230575">
  <ele>1586.09</ele>
  <time>2026-08-27T18:26:28Z</time>
  <course>266.03</course>
  <speed>0.0</speed>
  <fix>3d</fix>
</trkpt>
<trkpt lat="40.072842" lon="-105.230575">
  <ele>1586.09</ele>
  <time>2026-08-27T18:26:28Z</time>
  <course>11.58</course>
  <speed>0.03605551275463989</speed>
  <fix>3d</fix>
</trkpt>
<trkpt lat="40.072842" lon="-105.230575">
  <ele>1586.09</ele>
  <time>2026-08-27T18:26:28Z</time>
  <course>266.03</course>
  <speed>0.0</speed>
  <fix>3d</fix>
</trkpt>
<trkpt lat="40.072842" lon="-105.230575">
  <ele>1586.09</ele>
  <time>2026-08-27T18:26:28Z</time>
  <course>11.58</course>
  <speed>0.03605551275463989</speed>
  <fix>3d</fix>
</trkpt>
<trkpt lat="40.072842" lon="-105.230575">
  <ele>1586.09</ele>
  <time>2026-08-27T18:26:28Z</time>
  <course>266.03</course>
  <speed>0.0</speed>
  <fix>3d</fix>
</trkpt>
<trkpt lat="40.072842" lon="-105.230575">
  <ele>1586.09</ele>
  <time>2026-08-27T18:26:28Z</time>
  <course>11.57</course>
  <speed>0.03605551275463989</speed>
  <fix>3d</fix>
</trkpt>
<trkpt lat="40.072842" lon="-105.230575">
  <ele>1586.09</ele>
  <time>2026-08-27T18:26:28Z</time>
  <course>266.03</course>
  <speed>0.0</speed>
  <fix>3d</fix>
</trkpt>
<trkpt lat="40.072842" lon="-105.230575">
  <ele>1586.09</ele>
  <time>2026-08-27T18:26:28Z</time>
  <course>11.56</course>
  <speed>0.03605551275463989</speed>
  <fix>3d</fix>
</trkpt>
<trkpt lat="40.072842" lon="-105.230575">
  <ele>1586.09</ele>
  <time>2026-08-27T18:26:28Z</time>
  <course>266.03</course>
  <speed>0.0</speed>
  <fix>3d</fix>
</trkpt>
<trkpt lat="40.072842" lon="-105.230575">
  <ele>1586.09</ele>
  <time>2026-08-27T18:26:28Z</time>
  <course>11.56</course>
  <speed>0.03605551275463989</speed>
  <fix>3d</fix>
</trkpt>
<trkpt lat="40.072842" lon="-105.230575">
  <ele>1586.09</ele>
  <time>2026-08-27T18:26:28Z</time>
  <course>266.03</course>
  <speed>0.0</speed>
  <fix>3d</fix>
</trkpt>
<trkpt lat="40.072842" lon="-105.230575">
  <ele>1586.09</ele>
  <time>2026-08-27T18:26:28Z</time>
  <course>11.55</course>
  <speed>0.03605551275463989</speed>
  <fix>3d</fix>
</trkpt>
<trkpt lat="40.072842" lon="-105.230575">
  <ele>1586.09</ele>
  <time>2026-08-27T18:26:28Z</time>
  <course>266.03</course>
  <speed>0.0</speed>
  <fix>3d</fix>
</trkpt>
<trkpt lat="40.072842" lon="-105.230575">
  <ele>1586.09</ele>
  <time>2026-08-27T18:26:28Z</time>
  <course>11.55</course>
  <speed>0.03605551275463989</speed>
  <fix>3d</fix>
</trkpt>
<trkpt lat="40.072842" lon="-105.230575">
  <ele>1586.09</ele>
  <time>2026-08-27T18:26:28Z</time>
  <course>266.03</course>
  <speed>0.0</speed>
  <fix>3d</fix>
</trkpt>
<trkpt lat="40.072842" lon="-105.230575">
  <ele>1586.09</ele>
  <time>2026-08-27T18:26:28Z</time>
  <course>11.54</course>
  <speed>0.03605551275463989</speed>
  <fix>3d</fix>
</trkpt>
<trkpt lat="40.072842" lon="-105.230575">
  <ele>1586.09</ele>
  <time>2026-08-27T18:26:28Z</time>
  <course>266.03</course>
  <speed>0.0</speed>
  <fix>3d</fix>
</trkpt>
<trkpt lat="40.072842" lon="-105.230575">
  <ele>1586.09</ele>
  <time>2026-08-27T18:26:28Z</time>
  <course>11.53</course>
  <speed>0.03605551275463989</speed>
  <fix>3d</fix>
</trkpt>
<trkpt lat="40.072842" lon="-105.230575">
  <ele>1586.09</ele>
  <time>2026-08-27T18:26:28Z</time>
  <course>266.03</course>
  <speed>0.0</speed>
  <fix>3d</fix>
</trkpt>
<trkpt lat="40.072842" lon="-105.230575">
  <ele>1586.09</ele>
  <time>2026-08-27T18:26:28Z</time>
  <course>11.53</course>
  <speed>0.03605551275463989</speed>
  <fix>3d</fix>
</trkpt>
<trkpt lat="40.072842" lon="-105.230575">
  <ele>1586.09</ele>
  <time>2026-08-27T18:26:28Z</time>
  <course>266.03</course>
  <speed>0.0</speed>
  <fix>3d</fix>
</trkpt>
<trkpt lat="40.072842" lon="-105.230575">
  <ele>1586.09</ele>
  <time>2026-08-27T18:26:28Z</time>
  <course>11.52</course>
  <speed>0.03605551275463989</speed>
  <fix>3d</fix>
</trkpt>
<trkpt lat="40.072842" lon="-105.230575">
  <ele>1586.09</ele>
  <time>2026-08-27T18:26:28Z</time>
  <course>266.03</course>
  <speed>0.0</speed>
  <fix>3d</fix>
</trkpt>
<trkpt lat="40.072842" lon="-105.230575">
  <ele>1586.09</ele>
  <time>2026-08-27T18:26:28Z</time>
  <course>11.52</course>
  <speed>0.03605551275463989</speed>
  <fix>3d</fix>
</trkpt>
<trkpt lat="40.072842" lon="-105.230575">
  <ele>1586.09</ele>
  <time>2026-08-27T18:26:28Z</time>
  <course>266.03</course>
  <speed>0.0</speed>
  <fix>3d</fix>
</trkpt>
<trkpt lat="40.072842" lon="-105.230575">
  <ele>1586.09</ele>
  <time>2026-08-27T18:26:28Z</time>
  <course>11.51</course>
  <speed>0.03605551275463989</speed>
  <fix>3d</fix>
</trkpt>
<trkpt lat="40.072842" lon="-105.230575">
  <ele>1586.09</ele>
  <time>2026-08-27T18:26:28Z</time>
  <course>266.03</course>
  <speed>0.0</speed>
  <fix>3d</fix>
</trkpt>
<trkpt lat="40.072842" lon="-105.230575">
  <ele>1586.09</ele>
  <time>2026-08-27T18:26:28Z</time>
  <course>11.51</course>
  <speed>0.03605551275463989</speed>
  <fix>3d</fix>
</trkpt>
<trkpt lat="40.072842" lon="-105.230575">
  <ele>1586.09</ele>
  <time>2026-08-27T18:26:28Z</time>
  <course>266.03</course>
  <speed>0.0</speed>
  <fix>3d</fix>
</trkpt>
<trkpt lat="40.072842" lon="-105.230575">
  <ele>1586.09</ele>
  <time>2026-08-27T18:26:28Z</time>
  <course>11.5</course>
  <speed>0.044721359549995794</speed>
  <fix>3d</fix>
</trkpt>
<trkpt lat="40.072842" lon="-105.230575">
  <ele>1586.09</ele>
  <time>2026-08-27T18:26:28Z</time>
  <course>266.03</course>
  <speed>0.0</speed>
  <fix>3d</fix>
</trkpt>
<trkpt lat="40.072842" lon="-105.230575">
  <ele>1586.09</ele>
  <time>2026-08-27T18:26:28Z</time>
  <course>11.49</course>
  <speed>0.044721359549995794</speed>
  <fix>3d</fix>
</trkpt>
<trkpt lat="40.072842" lon="-105.230575">
  <ele>1586.09</ele>
  <time>2026-08-27T18:26:28Z</time>
  <course>266.03</course>
  <speed>0.0</speed>
  <fix>3d</fix>
</trkpt>
<trkpt lat="40.072842" lon="-105.230575">
  <ele>1586.09</ele>
  <time>2026-08-27T18:26:28Z</time>
  <course>11.49</course>
  <speed>0.044721359549995794</speed>
  <fix>3d</fix>
</trkpt>
<trkpt lat="40.072842" lon="-105.230575">
  <ele>1586.09</ele>
  <time>2026-08-27T18:26:28Z</time>
  <course>266.03</course>
  <speed>0.0</speed>
  <fix>3d</fix>
</trkpt>
<trkpt lat="40.072842" lon="-105.230575">
  <ele>1586.09</ele>
  <time>2026-08-27T18:26:28Z</time>
  <course>11.48</course>
  <speed>0.044721359549995794</speed>
  <fix>3d</fix>
</trkpt>
<trkpt lat="40.072842" lon="-105.230575">
  <ele>1586.09</ele>
  <time>2026-08-27T18:26:28Z</time>
  <course>266.03</course>
  <speed>0.0</speed>
  <fix>3d</fix>
</trkpt>
<trkpt lat="40.072842" lon="-105.230575">
  <ele>1586.09</ele>
  <time>2026-08-27T18:26:28Z</time>
  <course>11.48</course>
  <speed>0.044721359549995794</speed>
  <fix>3d</fix>
</trkpt>
<trkpt lat="40.072842" lon="-105.230575">
  <ele>1586.09</ele>
  <time>2026-08-27T18:26:28Z</time>
  <course>266.03</course>
  <speed>0.0</speed>
  <fix>3d</fix>
</trkpt>
<trkpt lat="40.072842" lon="-105.230575">
  <ele>1586.09</ele>
  <time>2026-08-27T18:26:28Z</time>
  <course>11.47</course>
  <speed>0.044721359549995794</speed>
  <fix>3d</fix>
</trkpt>
<trkpt lat="40.072842" lon="-105.230575">
  <ele>1586.09</ele>
  <time>2026-08-27T18:26:28Z</time>
  <course>266.03</course>
  <speed>0.0</speed>
  <fix>3d</fix>
</trkpt>
<trkpt lat="40.072842" lon="-105.230575">
  <ele>1586.09</ele>
  <time>2026-08-27T18:26:28Z</time>
  <course>11.47</course>
  <speed>0.044721359549995794</speed>
  <fix>3d</fix>
</trkpt>
<trkpt lat="40.072842" lon="-105.230575">
  <ele>1586.09</ele>
  <time>2026-08-27T18:26:28Z</time>
  <course>266.03</course>
  <speed>0.0</speed>
  <fix>3d</fix>
</trkpt>
<trkpt lat="40.072842" lon="-105.230575">
  <ele>1586.09</ele>
  <time>2026-08-27T18:26:28Z</time>
  <course>11.47</course>
  <speed>0.044721359549995794</speed>
  <fix>3d</fix>
</trkpt>
<trkpt lat="40.072842" lon="-105.230575">
  <ele>1586.09</ele>
  <time>2026-08-27T18:26:28Z</time>
  <course>266.03</course>
  <speed>0.0</speed>
  <fix>3d</fix>
</trkpt>
<trkpt lat="40.072842" lon="-105.230575">
  <ele>1586.09</ele>
  <time>2026-08-27T18:26:28Z</time>
  <course>11.46</course>
  <speed>0.044721359549995794</speed>
  <fix>3d</fix>
</trkpt>
<trkpt lat="40.072842" lon="-105.230575">
  <ele>1586.09</ele>
  <time>2026-08-27T18:26:28Z</time>
  <course>266.03</course>
  <speed>0.0</speed>
  <fix>3d</fix>
</trkpt>
<trkpt lat="40.072842" lon="-105.230575">
  <ele>1586.16</ele>
  <time>2026-08-27T18:26:28Z</time>
  <course>11.45</course>
  <speed>0.0</speed>
  <fix>3d</fix>
</trkpt>
<trkpt lat="40.072842" lon="-105.230575">
  <ele>1586.09</ele>
  <time>2026-08-27T18:26:28Z</time>
  <course>297.19</course>
  <speed>0.0</speed>
  <fix>3d</fix>
</trkpt>
<trkpt lat="40.072842" lon="-105.230575">
  <ele>1586.16</ele>
  <time>2026-08-27T18:26:28Z</time>
  <course>11.45</course>
  <speed>0.0</speed>
  <fix>3d</fix>
</trkpt>
<trkpt lat="40.072842" lon="-105.230575">
  <ele>1586.09</ele>
  <time>2026-08-27T18:26:28Z</time>
  <course>269.87</course>
  <speed>0.0</speed>
  <fix>3d</fix>
</trkpt>
<trkpt lat="40.072842" lon="-105.230575">
  <ele>1586.16</ele>
  <time>2026-08-27T18:26:28Z</time>
  <course>11.44</course>
  <speed>0.0</speed>
  <fix>3d</fix>
</trkpt>
<trkpt lat="40.072842" lon="-105.230575">
  <ele>1586.09</ele>
  <time>2026-08-27T18:26:28Z</time>
  <course>241.23</course>
  <speed>0.0</speed>
  <fix>3d</fix>
</trkpt>
<trkpt lat="40.072842" lon="-105.230575">
  <ele>1586.16</ele>
  <time>2026-08-27T18:26:28Z</time>
  <course>11.44</course>
  <speed>0.0</speed>
  <fix>3d</fix>
</trkpt>
<trkpt lat="40.072842" lon="-105.230575">
  <ele>1586.09</ele>
  <time>2026-08-27T18:26:28Z</time>
  <course>93.08</course>
  <speed>0.0</speed>
  <fix>3d</fix>
</trkpt>
<trkpt lat="40.072842" lon="-105.230575">
  <ele>1586.17</ele>
  <time>2026-08-27T18:26:28Z</time>
  <course>11.44</course>
  <speed>0.0</speed>
  <fix>3d</fix>
</trkpt>
<trkpt lat="40.072842" lon="-105.230575">
  <ele>1586.09</ele>
  <time>2026-08-27T18:26:28Z</time>
  <course>317.31</course>
  <speed>0.0</speed>
  <fix>3d</fix>
</trkpt>
<trkpt lat="40.072842" lon="-105.230575">
  <ele>1586.17</ele>
  <time>2026-08-27T18:26:28Z</time>
  <course>11.43</course>
  <speed>0.01</speed>
  <fix>3d</fix>
</trkpt>
<trkpt lat="40.072842" lon="-105.230575">
  <ele>1586.09</ele>
  <time>2026-08-27T18:26:28Z</time>
  <course>265.24</course>
  <speed>0.0</speed>
  <fix>3d</fix>
</trkpt>
<trkpt lat="40.072842" lon="-105.230575">
  <ele>1586.17</ele>
  <time>2026-08-27T18:26:28Z</time>
  <course>11.43</course>
  <speed>0.01</speed>
  <fix>3d</fix>
</trkpt>
<trkpt lat="40.072842" lon="-105.230575">
  <ele>1586.09</ele>
  <time>2026-08-27T18:26:28Z</time>
  <course>261.76</course>
  <speed>0.0</speed>
  <fix>3d</fix>
</trkpt>
<trkpt lat="40.072842" lon="-105.230575">
  <ele>1586.17</ele>
  <time>2026-08-27T18:26:28Z</time>
  <course>11.42</course>
  <speed>0.01</speed>
  <fix>3d</fix>
</trkpt>
<trkpt lat="40.072842" lon="-105.230575">
  <ele>1586.09</ele>
  <time>2026-08-27T18:26:28Z</time>
  <course>266.78</course>
  <speed>0.0</speed>
  <fix>3d</fix>
</trkpt>
<trkpt lat="40.072842" lon="-105.230575">
  <ele>1586.17</ele>
  <time>2026-08-27T18:26:28Z</time>
  <course>11.42</course>
  <speed>0.01414213562373095</speed>
  <fix>3d</fix>
</trkpt>
<trkpt lat="40.072842" lon="-105.230575">
  <ele>1586.09</ele>
  <time>2026-08-27T18:26:28Z</time>
  <course>266.53</course>
  <speed>0.0</speed>
  <fix>3d</fix>
</trkpt>
<trkpt lat="40.072842" lon="-105.230575">
  <ele>1586.17</ele>
  <time>2026-08-27T18:26:28Z</time>
  <course>11.42</course>
  <speed>0.01414213562373095</speed>
  <fix>3d</fix>
</trkpt>
<trkpt lat="40.072842" lon="-105.230575">
  <ele>1586.09</ele>
  <time>2026-08-27T18:26:28Z</time>
  <course>265.88</course>
  <speed>0.0</speed>
  <fix>3d</fix>
</trkpt>
<trkpt lat="40.072842" lon="-105.230575">
  <ele>1586.17</ele>
  <time>2026-08-27T18:26:28Z</time>
  <course>11.41</course>
  <speed>0.01414213562373095</speed>
  <fix>3d</fix>
</trkpt>
<trkpt lat="40.072842" lon="-105.230575">
  <ele>1586.09</ele>
  <time>2026-08-27T18:26:28Z</time>
  <course>265.99</course>
  <speed>0.0</speed>
  <fix>3d</fix>
</trkpt>
<trkpt lat="40.072842" lon="-105.230575">
  <ele>1586.17</ele>
  <time>2026-08-27T18:26:28Z</time>
  <course>11.41</course>
  <speed>0.022360679774997897</speed>
  <fix>3d</fix>
</trkpt>
<trkpt lat="40.072842" lon="-105.230575">
  <ele>1586.09</ele>
  <time>2026-08-27T18:26:28Z</time>
  <course>266.06</course>
  <speed>0.0</speed>
  <fix>3d</fix>
</trkpt>
<trkpt lat="40.072842" lon="-105.230575">
  <ele>1586.17</ele>
  <time>2026-08-27T18:26:28Z</time>
  <course>11.4</course>
  <speed>0.022360679774997897</speed>
  <fix>3d</fix>
</trkpt>
<trkpt lat="40.072842" lon="-105.230575">
  <ele>1586.09</ele>
  <time>2026-08-27T18:26:28Z</time>
  <course>266.04</course>
  <speed>0.0</speed>
  <fix>3d</fix>
</trkpt>
<trkpt lat="40.072842" lon="-105.230575">
  <ele>1586.17</ele>
  <time>2026-08-27T18:26:28Z</time>
  <course>11.4</course>
  <speed>0.022360679774997897</speed>
  <fix>3d</fix>
</trkpt>
<trkpt lat="40.072842" lon="-105.230575">
  <ele>1586.09</ele>
  <time>2026-08-27T18:26:28Z</time>
  <course>266.03</course>
  <speed>0.0</speed>
  <fix>3d</fix>
</trkpt>
<trkpt lat="40.072842" lon="-105.230575">
  <ele>1586.17</ele>
  <time>2026-08-27T18:26:28Z</time>
  <course>11.4</course>
  <speed>0.022360679774997897</speed>
  <fix>3d</fix>
</trkpt>
<trkpt lat="40.072842" lon="-105.230575">
  <ele>1586.09</ele>
  <time>2026-08-27T18:26:28Z</time>
  <course>266.04</course>
  <speed>0.0</speed>
  <fix>3d</fix>
</trkpt>
<trkpt lat="40.0728419" lon="-105.230575">
  <ele>1586.17</ele>
  <time>2026-08-27T18:26:28Z</time>
  <course>11.39</course>
  <speed>0.022360679774997897</speed>
  <fix>3d</fix>
</trkpt>
<trkpt lat="40.072842" lon="-105.230575">
  <ele>1586.09</ele>
  <time>2026-08-27T18:26:28Z</time>
  <course>266.04</course>
  <speed>0.0</speed>
  <fix>3d</fix>
</trkpt>
<trkpt lat="40.0728419" lon="-105.230575">
  <ele>1586.17</ele>
  <time>2026-08-27T18:26:28Z</time>
  <course>11.39</course>
  <speed>0.022360679774997897</speed>
  <fix>3d</fix>
</trkpt>
<trkpt lat="40.072842" lon="-105.230575">
  <ele>1586.09</ele>
  <time>2026-08-27T18:26:28Z</time>
  <course>266.03</course>
  <speed>0.0</speed>
  <fix>3d</fix>
</trkpt>
<trkpt lat="40.0728419" lon="-105.2305749">
  <ele>1586.17</ele>
  <time>2026-08-27T18:26:28Z</time>
  <course>11.38</course>
  <speed>0.022360679774997897</speed>
  <fix>3d</fix>
</trkpt>
<trkpt lat="40.072842" lon="-105.230575">
  <ele>1586.09</ele>
  <time>2026-08-27T18:26:28Z</time>
  <course>266.03</course>
  <speed>0.0</speed>
  <fix>3d</fix>
</trkpt>
<trkpt lat="40.0728419" lon="-105.2305749">
  <ele>1586.18</ele>
  <time>2026-08-27T18:26:28Z</time>
  <course>11.38</course>
  <speed>0.022360679774997897</speed>
  <fix>3d</fix>
</trkpt>
<trkpt lat="40.072842" lon="-105.230575">
  <ele>1586.09</ele>
  <time>2026-08-27T18:26:28Z</time>
  <course>266.04</course>
  <speed>0.0</speed>
  <fix>3d</fix>
</trkpt>
<trkpt lat="40.0728419" lon="-105.2305749">
  <ele>1586.18</ele>
  <time>2026-08-27T18:26:28Z</time>
  <course>11.37</course>
  <speed>0.022360679774997897</speed>
  <fix>3d</fix>
</trkpt>
<trkpt lat="40.072842" lon="-105.230575">
  <ele>1586.09</ele>
  <time>2026-08-27T18:26:28Z</time>
  <course>266.04</course>
  <speed>0.0</speed>
  <fix>3d</fix>
</trkpt>
<trkpt lat="40.0728419" lon="-105.2305749">
  <ele>1586.18</ele>
  <time>2026-08-27T18:26:28Z</time>
  <course>11.37</course>
  <speed>0.022360679774997897</speed>
  <fix>3d</fix>
</trkpt>
<trkpt lat="40.072842" lon="-105.230575">
  <ele>1586.09</ele>
  <time>2026-08-27T18:26:28Z</time>
  <course>178.09</course>
  <speed>0.0</speed>
  <fix>3d</fix>
</trkpt>
<trkpt lat="40.0728419" lon="-105.2305749">
  <ele>1586.17</ele>
  <time>2026-08-27T18:26:28Z</time>
  <course>11.37</course>
  <speed>0.022360679774997897</speed>
  <fix>3d</fix>
</trkpt>
<trkpt lat="40.072842" lon="-105.230575">
  <ele>1586.09</ele>
  <time>2026-08-27T18:26:28Z</time>
  <course>82.55</course>
  <speed>0.0</speed>
  <fix>3d</fix>
</trkpt>
<trkpt lat="40.0728419" lon="-105.2305749">
  <ele>1586.17</ele>
  <time>2026-08-27T18:26:28Z</time>
  <course>11.36</course>
  <speed>0.022360679774997897</speed>
  <fix>3d</fix>
</trkpt>
<trkpt lat="40.072842" lon="-105.230575">
  <ele>1586.09</ele>
  <time>2026-08-27T18:26:28Z</time>
  <course>70.11</course>
  <speed>0.0</speed>
  <fix>3d</fix>
</trkpt>
<trkpt lat="40.0728419" lon="-105.2305749">
  <ele>1586.17</ele>
  <time>2026-08-27T18:26:28Z</time>
  <course>11.36</course>
  <speed>0.022360679774997897</speed>
  <fix>3d</fix>
</trkpt>
<trkpt lat="40.072842" lon="-105.230575">
  <ele>1586.09</ele>
  <time>2026-08-27T18:26:28Z</time>
  <course>280.93</course>
  <speed>0.0</speed>
  <fix>3d</fix>
</trkpt>
<trkpt lat="40.0728419" lon="-105.2305749">
  <ele>1586.17</ele>
  <time>2026-08-27T18:26:28Z</time>
  <course>11.35</course>
  <speed>0.022360679774997897</speed>
  <fix>3d</fix>
</trkpt>
<trkpt lat="40.072842" lon="-105.230575">
  <ele>1586.09</ele>
  <time>2026-08-27T18:26:28Z</time>
  <course>245.32</course>
  <speed>0.0</speed>
  <fix>3d</fix>
</trkpt>
<trkpt lat="40.0728419" lon="-105.2305749">
  <ele>1586.16</ele>
  <time>2026-08-27T18:26:28Z</time>
  <course>11.35</course>
  <speed>0.01414213562373095</speed>
  <fix>3d</fix>
</trkpt>
<trkpt lat="40.072842" lon="-105.230575">
  <ele>1586.09</ele>
  <time>2026-08-27T18:26:28Z</time>
  <course>117.15</course>
  <speed>0.0</speed>
  <fix>3d</fix>
</trkpt>
<trkpt lat="40.0728419" lon="-105.2305749">
  <ele>1586.16</ele>
  <time>2026-08-27T18:26:28Z</time>
  <course>11.34</course>
  <speed>0.01414213562373095</speed>
  <fix>3d</fix>
</trkpt>
<trkpt lat="40.072842" lon="-105.230575">
  <ele>1586.09</ele>
  <time>2026-08-27T18:26:28Z</time>
  <course>279.17</course>
  <speed>0.0</speed>
  <fix>3d</fix>
</trkpt>
<trkpt lat="40.0728419" lon="-105.2305749">
  <ele>1586.16</ele>
  <time>2026-08-27T18:26:28Z</time>
  <course>11.34</course>
  <speed>0.01414213562373095</speed>
  <fix>3d</fix>
</trkpt>
<trkpt lat="40.072842" lon="-105.230575">
  <ele>1586.09</ele>
  <time>2026-08-27T18:26:28Z</time>
  <course>265.73</course>
  <speed>0.0</speed>
  <fix>3d</fix>
</trkpt>
<trkpt lat="40.0728419" lon="-105.2305749">
  <ele>1586.16</ele>
  <time>2026-08-27T18:26:28Z</time>
  <course>11.33</course>
  <speed>0.01414213562373095</speed>
  <fix>3d</fix>
</trkpt>
<trkpt lat="40.072842" lon="-105.230575">
  <ele>1586.09</ele>
  <time>2026-08-27T18:26:28Z</time>
  <course>264.62</course>
  <speed>0.0</speed>
  <fix>3d</fix>
</trkpt>
<trkpt lat="40.0728419" lon="-105.2305749">
  <ele>1586.16</ele>
  <time>2026-08-27T18:26:28Z</time>
  <course>11.33</course>
  <speed>0.01414213562373095</speed>
  <fix>3d</fix>
</trkpt>
<trkpt lat="40.072842" lon="-105.230575">
  <ele>1586.09</ele>
  <time>2026-08-27T18:26:28Z</time>
  <course>266.26</course>
  <speed>0.0</speed>
  <fix>3d</fix>
</trkpt>
<trkpt lat="40.0728419" lon="-105.2305749">
  <ele>1586.15</ele>
  <time>2026-08-27T18:26:28Z</time>
  <course>11.32</course>
  <speed>0.01414213562373095</speed>
  <fix>3d</fix>
</trkpt>
<trkpt lat="40.072842" lon="-105.230575">
  <ele>1586.09</ele>
  <time>2026-08-27T18:26:28Z</time>
  <course>266.2</course>
  <speed>0.0</speed>
  <fix>3d</fix>
</trkpt>
<trkpt lat="40.0728419" lon="-105.2305749">
  <ele>1586.15</ele>
  <time>2026-08-27T18:26:28Z</time>
  <course>11.32</course>
  <speed>0.01414213562373095</speed>
  <fix>3d</fix>
</trkpt>
<trkpt lat="40.072842" lon="-105.230575">
  <ele>1586.09</ele>
  <time>2026-08-27T18:26:28Z</time>
  <course>265.99</course>
  <speed>0.0</speed>
  <fix>3d</fix>
</trkpt>
<trkpt lat="40.0728419" lon="-105.2305749">
  <ele>1586.15</ele>
  <time>2026-08-27T18:26:28Z</time>
  <course>11.31</course>
  <speed>0.01414213562373095</speed>
  <fix>3d</fix>
</trkpt>
<trkpt lat="40.072842" lon="-105.230575">
  <ele>1586.09</ele>
  <time>2026-08-27T18:26:28Z</time>
  <course>266.02</course>
  <speed>0.0</speed>
  <fix>3d</fix>
</trkpt>
<trkpt lat="40.0728419" lon="-105.2305749">
  <ele>1586.15</ele>
  <time>2026-08-27T18:26:28Z</time>
  <course>11.31</course>
  <speed>0.01414213562373095</speed>
  <fix>3d</fix>
</trkpt>
<trkpt lat="40.072842" lon="-105.230575">
  <ele>1586.09</ele>
  <time>2026-08-27T18:26:28Z</time>
  <course>266.04</course>
  <speed>0.0</speed>
  <fix>3d</fix>
</trkpt>
<trkpt lat="40.0728419" lon="-105.2305749">
  <ele>1586.15</ele>
  <time>2026-08-27T18:26:28Z</time>
  <course>11.31</course>
  <speed>0.01414213562373095</speed>
  <fix>3d</fix>
</trkpt>
<trkpt lat="40.072842" lon="-105.230575">
  <ele>1586.09</ele>
  <time>2026-08-27T18:26:28Z</time>
  <course>266.04</course>
  <speed>0.0</speed>
  <fix>3d</fix>
</trkpt>
<trkpt lat="40.0728419" lon="-105.2305749">
  <ele>1586.16</ele>
  <time>2026-08-27T18:26:28Z</time>
  <course>11.3</course>
  <speed>0.01414213562373095</speed>
  <fix>3d</fix>
</trkpt>
<trkpt lat="40.072842" lon="-105.230575">
  <ele>1586.09</ele>
  <time>2026-08-27T18:26:28Z</time>
  <course>266.03</course>
  <speed>0.0</speed>
  <fix>3d</fix>
</trkpt>
<trkpt lat="40.0728419" lon="-105.2305749">
  <ele>1586.16</ele>
  <time>2026-08-27T18:26:28Z</time>
  <course>11.3</course>
  <speed>0.01414213562373095</speed>
  <fix>3d</fix>
</trkpt>
<trkpt lat="40.072842" lon="-105.230575">
  <ele>1586.09</ele>
  <time>2026-08-27T18:26:28Z</time>
  <course>266.03</course>
  <speed>0.0</speed>
  <fix>3d</fix>
</trkpt>
<trkpt lat="40.0728419" lon="-105.2305749">
  <ele>1586.16</ele>
  <time>2026-08-27T18:26:28Z</time>
  <course>11.29</course>
  <speed>0.01414213562373095</speed>
  <fix>3d</fix>
</trkpt>
<trkpt lat="40.072842" lon="-105.230575">
  <ele>1586.09</ele>
  <time>2026-08-27T18:26:28Z</time>
  <course>266.03</course>
  <speed>0.0</speed>
  <fix>3d</fix>
</trkpt>
<trkpt lat="40.0728419" lon="-105.2305749">
  <ele>1586.16</ele>
  <time>2026-08-27T18:26:28Z</time>
  <course>11.29</course>
  <speed>0.01414213562373095</speed>
  <fix>3d</fix>
</trkpt>
<trkpt lat="40.072842" lon="-105.230575">
  <ele>1586.09</ele>
  <time>2026-08-27T18:26:28Z</time>
  <course>266.03</course>
  <speed>0.0</speed>
  <fix>3d</fix>
</trkpt>
<trkpt lat="40.0728419" lon="-105.2305749">
  <ele>1586.16</ele>
  <time>2026-08-27T18:26:28Z</time>
  <course>11.28</course>
  <speed>0.01414213562373095</speed>
  <fix>3d</fix>
</trkpt>
<trkpt lat="40.072842" lon="-105.230575">
  <ele>1586.09</ele>
  <time>2026-08-27T18:26:28Z</time>
  <course>266.03</course>
  <speed>0.0</speed>
  <fix>3d</fix>
</trkpt>
<trkpt lat="40.0728419" lon="-105.2305749">
  <ele>1586.16</ele>
  <time>2026-08-27T18:26:28Z</time>
  <course>11.28</course>
  <speed>0.01414213562373095</speed>
  <fix>3d</fix>
</trkpt>
<trkpt lat="40.072842" lon="-105.230575">
  <ele>1586.09</ele>
  <time>2026-08-27T18:26:28Z</time>
  <course>266.03</course>
  <speed>0.0</speed>
  <fix>3d</fix>
</trkpt>
<trkpt lat="40.0728419" lon="-105.2305749">
  <ele>1586.15</ele>
  <time>2026-08-27T18:26:28Z</time>
  <course>11.27</course>
  <speed>0.01414213562373095</speed>
  <fix>3d</fix>
</trkpt>
<trkpt lat="40.072842" lon="-105.230575">
  <ele>1586.09</ele>
  <time>2026-08-27T18:26:28Z</time>
  <course>266.03</course>
  <speed>0.0</speed>
  <fix>3d</fix>
</trkpt>
<trkpt lat="40.0728419" lon="-105.2305749">
  <ele>1586.15</ele>
  <time>2026-08-27T18:26:28Z</time>
  <course>11.27</course>
  <speed>0.01414213562373095</speed>
  <fix>3d</fix>
</trkpt>
<trkpt lat="40.072842" lon="-105.230575">
  <ele>1586.09</ele>
  <time>2026-08-27T18:26:28Z</time>
  <course>266.03</course>
  <speed>0.0</speed>
  <fix>3d</fix>
</trkpt>
<trkpt lat="40.0728419" lon="-105.2305749">
  <ele>1586.15</ele>
  <time>2026-08-27T18:26:28Z</time>
  <course>11.26</course>
  <speed>0.01414213562373095</speed>
  <fix>3d</fix>
</trkpt>
<trkpt lat="40.072842" lon="-105.230575">
  <ele>1586.09</ele>
  <time>2026-08-27T18:26:28Z</time>
  <course>266.03</course>
  <speed>0.0</speed>
  <fix>3d</fix>
</trkpt>
<trkpt lat="40.0728419" lon="-105.2305749">
  <ele>1586.15</ele>
  <time>2026-08-27T18:26:28Z</time>
  <course>11.26</course>
  <speed>0.01414213562373095</speed>
  <fix>3d</fix>
</trkpt>
<trkpt lat="40.072842" lon="-105.230575">
  <ele>1586.09</ele>
  <time>2026-08-27T18:26:28Z</time>
  <course>266.03</course>
  <speed>0.0</speed>
  <fix>3d</fix>
</trkpt>
<trkpt lat="40.0728419" lon="-105.2305749">
  <ele>1586.16</ele>
  <time>2026-08-27T18:26:28Z</time>
  <course>11.25</course>
  <speed>0.01414213562373095</speed>
  <fix>3d</fix>
</trkpt>
<trkpt lat="40.072842" lon="-105.230575">
  <ele>1586.09</ele>
  <time>2026-08-27T18:26:28Z</time>
  <course>266.03</course>
  <speed>0.0</speed>
  <fix>3d</fix>
</trkpt>
<trkpt lat="40.0728419" lon="-105.2305749">
  <ele>1586.16</ele>
  <time>2026-08-27T18:26:28Z</time>
  <course>11.25</course>
  <speed>0.01414213562373095</speed>
  <fix>3d</fix>
</trkpt>
<trkpt lat="40.072842" lon="-105.230575">
  <ele>1586.09</ele>
  <time>2026-08-27T18:26:28Z</time>
  <course>266.03</course>
  <speed>0.0</speed>
  <fix>3d</fix>
</trkpt>
<trkpt lat="40.0728419" lon="-105.2305749">
  <ele>1586.17</ele>
  <time>2026-08-27T18:26:28Z</time>
  <course>11.25</course>
  <speed>0.01414213562373095</speed>
  <fix>3d</fix>
</trkpt>
<trkpt lat="40.072842" lon="-105.230575">
  <ele>1586.09</ele>
  <time>2026-08-27T18:26:28Z</time>
  <course>266.03</course>
  <speed>0.0</speed>
  <fix>3d</fix>
</trkpt>
<trkpt lat="40.0728419" lon="-105.2305749">
  <ele>1586.17</ele>
  <time>2026-08-27T18:26:28Z</time>
  <course>11.24</course>
  <speed>0.01414213562373095</speed>
  <fix>3d</fix>
</trkpt>
<trkpt lat="40.072842" lon="-105.230575">
  <ele>1586.09</ele>
  <time>2026-08-27T18:26:28Z</time>
  <course>266.03</course>
  <speed>0.0</speed>
  <fix>3d</fix>
</trkpt>
<trkpt lat="40.0728419" lon="-105.2305749">
  <ele>1586.17</ele>
  <time>2026-08-27T18:26:28Z</time>
  <course>11.24</course>
  <speed>0.01414213562373095</speed>
  <fix>3d</fix>
</trkpt>
<trkpt lat="40.072842" lon="-105.230575">
  <ele>1586.09</ele>
  <time>2026-08-27T18:26:28Z</time>
  <course>266.03</course>
  <speed>0.0</speed>
  <fix>3d</fix>
</trkpt>
<trkpt lat="40.0728419" lon="-105.2305749">
  <ele>1586.17</ele>
  <time>2026-08-27T18:26:28Z</time>
  <course>11.23</course>
  <speed>0.01414213562373095</speed>
  <fix>3d</fix>
</trkpt>
<trkpt lat="40.072842" lon="-105.230575">
  <ele>1586.09</ele>
  <time>2026-08-27T18:26:28Z</time>
  <course>266.03</course>
  <speed>0.0</speed>
  <fix>3d</fix>
</trkpt>
<trkpt lat="40.0728419" lon="-105.2305749">
  <ele>1586.17</ele>
  <time>2026-08-27T18:26:28Z</time>
  <course>11.23</course>
  <speed>0.01414213562373095</speed>
  <fix>3d</fix>
</trkpt>
<trkpt lat="40.072842" lon="-105.230575">
  <ele>1586.09</ele>
  <time>2026-08-27T18:26:28Z</time>
  <course>266.03</course>
  <speed>0.0</speed>
  <fix>3d</fix>
</trkpt>
<trkpt lat="40.0728419" lon="-105.2305749">
  <ele>1586.17</ele>
  <time>2026-08-27T18:26:28Z</time>
  <course>11.23</course>
  <speed>0.01414213562373095</speed>
  <fix>3d</fix>
</trkpt>
<trkpt lat="40.072842" lon="-105.230575">
  <ele>1586.09</ele>
  <time>2026-08-27T18:26:28Z</time>
  <course>266.03</course>
  <speed>0.0</speed>
  <fix>3d</fix>
</trkpt>
<trkpt lat="40.0728419" lon="-105.2305749">
  <ele>1586.17</ele>
  <time>2026-08-27T18:26:28Z</time>
  <course>11.22</course>
  <speed>0.01414213562373095</speed>
  <fix>3d</fix>
</trkpt>
<trkpt lat="40.072842" lon="-105.230575">
  <ele>1586.09</ele>
  <time>2026-08-27T18:26:28Z</time>
  <course>266.03</course>
  <speed>0.0</speed>
  <fix>3d</fix>
</trkpt>
<trkpt lat="40.0728419" lon="-105.2305749">
  <ele>1586.17</ele>
  <time>2026-08-27T18:26:29Z</time>
  <course>11.22</course>
  <speed>0.01414213562373095</speed>
  <fix>3d</fix>
</trkpt>
<trkpt lat="40.072842" lon="-105.230575">
  <ele>1586.09</ele>
  <time>2026-08-27T18:26:29Z</time>
  <course>266.03</course>
  <speed>0.0</speed>
  <fix>3d</fix>
</trkpt>
<trkpt lat="40.0728419" lon="-105.2305749">
  <ele>1586.17</ele>
  <time>2026-08-27T18:26:29Z</time>
  <course>11.21</course>
  <speed>0.01414213562373095</speed>
  <fix>3d</fix>
</trkpt>
<trkpt lat="40.072842" lon="-105.230575">
  <ele>1586.09</ele>
  <time>2026-08-27T18:26:29Z</time>
  <course>266.03</course>
  <speed>0.0</speed>
  <fix>3d</fix>
</trkpt>
<trkpt lat="40.0728419" lon="-105.2305749">
  <ele>1586.17</ele>
  <time>2026-08-27T18:26:29Z</time>
  <course>11.21</course>
  <speed>0.01414213562373095</speed>
  <fix>3d</fix>
</trkpt>
<trkpt lat="40.072842" lon="-105.230575">
  <ele>1586.09</ele>
  <time>2026-08-27T18:26:29Z</time>
  <course>266.03</course>
  <speed>0.0</speed>
  <fix>3d</fix>
</trkpt>
<trkpt lat="40.0728419" lon="-105.2305749">
  <ele>1586.17</ele>
  <time>2026-08-27T18:26:29Z</time>
  <course>11.21</course>
  <speed>0.01414213562373095</speed>
  <fix>3d</fix>
</trkpt>
<trkpt lat="40.072842" lon="-105.230575">
  <ele>1586.09</ele>
  <time>2026-08-27T18:26:29Z</time>
  <course>266.03</course>
  <speed>0.0</speed>
  <fix>3d</fix>
</trkpt>
<trkpt lat="40.0728419" lon="-105.2305749">
  <ele>1586.17</ele>
  <time>2026-08-27T18:26:29Z</time>
  <course>11.2</course>
  <speed>0.01414213562373095</speed>
  <fix>3d</fix>
</trkpt>
<trkpt lat="40.072842" lon="-105.230575">
  <ele>1586.09</ele>
  <time>2026-08-27T18:26:29Z</time>
  <course>266.03</course>
  <speed>0.0</speed>
  <fix>3d</fix>
</trkpt>
<trkpt lat="40.0728419" lon="-105.2305749">
  <ele>1586.16</ele>
  <time>2026-08-27T18:26:29Z</time>
  <course>11.2</course>
  <speed>0.01414213562373095</speed>
  <fix>3d</fix>
</trkpt>
<trkpt lat="40.072842" lon="-105.230575">
  <ele>1586.09</ele>
  <time>2026-08-27T18:26:29Z</time>
  <course>266.03</course>
  <speed>0.0</speed>
  <fix>3d</fix>
</trkpt>
<trkpt lat="40.0728419" lon="-105.2305749">
  <ele>1586.16</ele>
  <time>2026-08-27T18:26:29Z</time>
  <course>11.2</course>
  <speed>0.01414213562373095</speed>
  <fix>3d</fix>
</trkpt>
<trkpt lat="40.072842" lon="-105.230575">
  <ele>1586.09</ele>
  <time>2026-08-27T18:26:29Z</time>
  <course>266.03</course>
  <speed>0.0</speed>
  <fix>3d</fix>
</trkpt>
<trkpt lat="40.0728419" lon="-105.2305749">
  <ele>1586.15</ele>
  <time>2026-08-27T18:26:29Z</time>
  <course>11.19</course>
  <speed>0.01414213562373095</speed>
  <fix>3d</fix>
</trkpt>
<trkpt lat="40.072842" lon="-105.230575">
  <ele>1586.09</ele>
  <time>2026-08-27T18:26:29Z</time>
  <course>266.03</course>
  <speed>0.0</speed>
  <fix>3d</fix>
</trkpt>
<trkpt lat="40.0728419" lon="-105.2305749">
  <ele>1586.15</ele>
  <time>2026-08-27T18:26:29Z</time>
  <course>11.19</course>
  <speed>0.01414213562373095</speed>
  <fix>3d</fix>
</trkpt>
<trkpt lat="40.072842" lon="-105.230575">
  <ele>1586.09</ele>
  <time>2026-08-27T18:26:29Z</time>
  <course>266.03</course>
  <speed>0.0</speed>
  <fix>3d</fix>
</trkpt>
<trkpt lat="40.0728419" lon="-105.2305749">
  <ele>1586.16</ele>
  <time>2026-08-27T18:26:29Z</time>
  <course>11.19</course>
  <speed>0.01414213562373095</speed>
  <fix>3d</fix>
</trkpt>
<trkpt lat="40.072842" lon="-105.230575">
  <ele>1586.09</ele>
  <time>2026-08-27T18:26:29Z</time>
  <course>266.03</course>
  <speed>0.0</speed>
  <fix>3d</fix>
</trkpt>
<trkpt lat="40.0728419" lon="-105.2305749">
  <ele>1586.16</ele>
  <time>2026-08-27T18:26:29Z</time>
  <course>11.18</course>
  <speed>0.01414213562373095</speed>
  <fix>3d</fix>
</trkpt>
<trkpt lat="40.072842" lon="-105.230575">
  <ele>1586.09</ele>
  <time>2026-08-27T18:26:29Z</time>
  <course>266.03</course>
  <speed>0.0</speed>
  <fix>3d</fix>
</trkpt>
<trkpt lat="40.0728419" lon="-105.2305749">
  <ele>1586.16</ele>
  <time>2026-08-27T18:26:29Z</time>
  <course>11.18</course>
  <speed>0.01414213562373095</speed>
  <fix>3d</fix>
</trkpt>
<trkpt lat="40.072842" lon="-105.230575">
  <ele>1586.09</ele>
  <time>2026-08-27T18:26:29Z</time>
  <course>266.03</course>
  <speed>0.0</speed>
  <fix>3d</fix>
</trkpt>
<trkpt lat="40.0728419" lon="-105.2305749">
  <ele>1586.16</ele>
  <time>2026-08-27T18:26:29Z</time>
  <course>11.18</course>
  <speed>0.01414213562373095</speed>
  <fix>3d</fix>
</trkpt>
<trkpt lat="40.072842" lon="-105.230575">
  <ele>1586.09</ele>
  <time>2026-08-27T18:26:29Z</time>
  <course>266.03</course>
  <speed>0.0</speed>
  <fix>3d</fix>
</trkpt>
<trkpt lat="40.0728419" lon="-105.2305749">
  <ele>1586.16</ele>
  <time>2026-08-27T18:26:29Z</time>
  <course>11.17</course>
  <speed>0.01414213562373095</speed>
  <fix>3d</fix>
</trkpt>
<trkpt lat="40.072842" lon="-105.230575">
  <ele>1586.09</ele>
  <time>2026-08-27T18:26:29Z</time>
  <course>266.03</course>
  <speed>0.0</speed>
  <fix>3d</fix>
</trkpt>
<trkpt lat="40.0728419" lon="-105.2305749">
  <ele>1586.17</ele>
  <time>2026-08-27T18:26:29Z</time>
  <course>11.17</course>
  <speed>0.01414213562373095</speed>
  <fix>3d</fix>
</trkpt>
<trkpt lat="40.072842" lon="-105.230575">
  <ele>1586.09</ele>
  <time>2026-08-27T18:26:29Z</time>
  <course>266.03</course>
  <speed>0.0</speed>
  <fix>3d</fix>
</trkpt>
<trkpt lat="40.0728419" lon="-105.2305749">
  <ele>1586.18</ele>
  <time>2026-08-27T18:26:29Z</time>
  <course>11.16</course>
  <speed>0.01414213562373095</speed>
  <fix>3d</fix>
</trkpt>
<trkpt lat="40.072842" lon="-105.230575">
  <ele>1586.09</ele>
  <time>2026-08-27T18:26:29Z</time>
  <course>266.03</course>
  <speed>0.0</speed>
  <fix>3d</fix>
</trkpt>
<trkpt lat="40.0728419" lon="-105.2305749">
  <ele>1586.18</ele>
  <time>2026-08-27T18:26:29Z</time>
  <course>11.16</course>
  <speed>0.01414213562373095</speed>
  <fix>3d</fix>
</trkpt>
<trkpt lat="40.072842" lon="-105.230575">
  <ele>1586.09</ele>
  <time>2026-08-27T18:26:29Z</time>
  <course>266.03</course>
  <speed>0.0</speed>
  <fix>3d</fix>
</trkpt>
<trkpt lat="40.0728419" lon="-105.2305749">
  <ele>1586.18</ele>
  <time>2026-08-27T18:26:29Z</time>
  <course>11.16</course>
  <speed>0.01414213562373095</speed>
  <fix>3d</fix>
</trkpt>
<trkpt lat="40.072842" lon="-105.230575">
  <ele>1586.09</ele>
  <time>2026-08-27T18:26:29Z</time>
  <course>266.03</course>
  <speed>0.0</speed>
  <fix>3d</fix>
</trkpt>
<trkpt lat="40.0728419" lon="-105.2305749">
  <ele>1586.18</ele>
  <time>2026-08-27T18:26:29Z</time>
  <course>11.16</course>
  <speed>0.01414213562373095</speed>
  <fix>3d</fix>
</trkpt>
<trkpt lat="40.072842" lon="-105.230575">
  <ele>1586.09</ele>
  <time>2026-08-27T18:26:29Z</time>
  <course>266.03</course>
  <speed>0.0</speed>
  <fix>3d</fix>
</trkpt>
<trkpt lat="40.0728419" lon="-105.2305749">
  <ele>1586.18</ele>
  <time>2026-08-27T18:26:29Z</time>
  <course>11.15</course>
  <speed>0.01414213562373095</speed>
  <fix>3d</fix>
</trkpt>
<trkpt lat="40.072842" lon="-105.230575">
  <ele>1586.09</ele>
  <time>2026-08-27T18:26:29Z</time>
  <course>266.03</course>
  <speed>0.0</speed>
  <fix>3d</fix>
</trkpt>
<trkpt lat="40.0728419" lon="-105.2305749">
  <ele>1586.17</ele>
  <time>2026-08-27T18:26:29Z</time>
  <course>11.15</course>
  <speed>0.01414213562373095</speed>
  <fix>3d</fix>
</trkpt>
<trkpt lat="40.072842" lon="-105.230575">
  <ele>1586.09</ele>
  <time>2026-08-27T18:26:29Z</time>
  <course>266.03</course>
  <speed>0.0</speed>
  <fix>3d</fix>
</trkpt>
<trkpt lat="40.0728419" lon="-105.2305749">
  <ele>1586.17</ele>
  <time>2026-08-27T18:26:29Z</time>
  <course>11.15</course>
  <speed>0.01414213562373095</speed>
  <fix>3d</fix>
</trkpt>
<trkpt lat="40.072842" lon="-105.230575">
  <ele>1586.09</ele>
  <time>2026-08-27T18:26:29Z</time>
  <course>266.03</course>
  <speed>0.0</speed>
  <fix>3d</fix>
</trkpt>
<trkpt lat="40.0728419" lon="-105.2305749">
  <ele>1586.17</ele>
  <time>2026-08-27T18:26:29Z</time>
  <course>11.14</course>
  <speed>0.01414213562373095</speed>
  <fix>3d</fix>
</trkpt>
<trkpt lat="40.072842" lon="-105.230575">
  <ele>1586.09</ele>
  <time>2026-08-27T18:26:29Z</time>
  <course>266.03</course>
  <speed>0.0</speed>
  <fix>3d</fix>
</trkpt>
<trkpt lat="40.0728419" lon="-105.2305749">
  <ele>1586.17</ele>
  <time>2026-08-27T18:26:29Z</time>
  <course>11.14</course>
  <speed>0.01414213562373095</speed>
  <fix>3d</fix>
</trkpt>
<trkpt lat="40.072842" lon="-105.230575">
  <ele>1586.09</ele>
  <time>2026-08-27T18:26:29Z</time>
  <course>266.03</course>
  <speed>0.0</speed>
  <fix>3d</fix>
</trkpt>
<trkpt lat="40.0728419" lon="-105.2305749">
  <ele>1586.17</ele>
  <time>2026-08-27T18:26:29Z</time>
  <course>11.14</course>
  <speed>0.01414213562373095</speed>
  <fix>3d</fix>
</trkpt>
<trkpt lat="40.072842" lon="-105.230575">
  <ele>1586.09</ele>
  <time>2026-08-27T18:26:29Z</time>
  <course>266.03</course>
  <speed>0.0</speed>
  <fix>3d</fix>
</trkpt>
<trkpt lat="40.0728419" lon="-105.2305749">
  <ele>1586.17</ele>
  <time>2026-08-27T18:26:29Z</time>
  <course>11.14</course>
  <speed>0.01414213562373095</speed>
  <fix>3d</fix>
</trkpt>
<trkpt lat="40.072842" lon="-105.230575">
  <ele>1586.09</ele>
  <time>2026-08-27T18:26:29Z</time>
  <course>266.03</course>
  <speed>0.0</speed>
  <fix>3d</fix>
</trkpt>
<trkpt lat="40.0728419" lon="-105.2305749">
  <ele>1586.17</ele>
  <time>2026-08-27T18:26:29Z</time>
  <course>11.13</course>
  <speed>0.01414213562373095</speed>
  <fix>3d</fix>
</trkpt>
<trkpt lat="40.072842" lon="-105.230575">
  <ele>1586.09</ele>
  <time>2026-08-27T18:26:29Z</time>
  <course>266.03</course>
  <speed>0.0</speed>
  <fix>3d</fix>
</trkpt>
<trkpt lat="40.0728419" lon="-105.2305749">
  <ele>1586.17</ele>
  <time>2026-08-27T18:26:29Z</time>
  <course>11.13</course>
  <speed>0.01414213562373095</speed>
  <fix>3d</fix>
</trkpt>
<trkpt lat="40.072842" lon="-105.230575">
  <ele>1586.09</ele>
  <time>2026-08-27T18:26:29Z</time>
  <course>266.03</course>
  <speed>0.0</speed>
  <fix>3d</fix>
</trkpt>
<trkpt lat="40.0728419" lon="-105.2305749">
  <ele>1586.16</ele>
  <time>2026-08-27T18:26:29Z</time>
  <course>11.13</course>
  <speed>0.01414213562373095</speed>
  <fix>3d</fix>
</trkpt>
<trkpt lat="40.072842" lon="-105.230575">
  <ele>1586.09</ele>
  <time>2026-08-27T18:26:29Z</time>
  <course>266.03</course>
  <speed>0.0</speed>
  <fix>3d</fix>
</trkpt>
<trkpt lat="40.0728419" lon="-105.2305749">
  <ele>1586.16</ele>
  <time>2026-08-27T18:26:29Z</time>
  <course>11.12</course>
  <speed>0.01414213562373095</speed>
  <fix>3d</fix>
</trkpt>
<trkpt lat="40.072842" lon="-105.230575">
  <ele>1586.09</ele>
  <time>2026-08-27T18:26:29Z</time>
  <course>266.03</course>
  <speed>0.0</speed>
  <fix>3d</fix>
</trkpt>
<trkpt lat="40.0728419" lon="-105.2305749">
  <ele>1586.16</ele>
  <time>2026-08-27T18:26:29Z</time>
  <course>11.12</course>
  <speed>0.01414213562373095</speed>
  <fix>3d</fix>
</trkpt>
<trkpt lat="40.072842" lon="-105.230575">
  <ele>1586.09</ele>
  <time>2026-08-27T18:26:29Z</time>
  <course>266.03</course>
  <speed>0.0</speed>
  <fix>3d</fix>
</trkpt>
<trkpt lat="40.0728419" lon="-105.2305749">
  <ele>1586.16</ele>
  <time>2026-08-27T18:26:29Z</time>
  <course>11.12</course>
  <speed>0.01414213562373095</speed>
  <fix>3d</fix>
</trkpt>
<trkpt lat="40.072842" lon="-105.230575">
  <ele>1586.09</ele>
  <time>2026-08-27T18:26:29Z</time>
  <course>266.03</course>
  <speed>0.0</speed>
  <fix>3d</fix>
</trkpt>
<trkpt lat="40.0728419" lon="-105.2305749">
  <ele>1586.15</ele>
  <time>2026-08-27T18:26:29Z</time>
  <course>11.12</course>
  <speed>0.01414213562373095</speed>
  <fix>3d</fix>
</trkpt>
<trkpt lat="40.072842" lon="-105.230575">
  <ele>1586.09</ele>
  <time>2026-08-27T18:26:29Z</time>
  <course>266.03</course>
  <speed>0.0</speed>
  <fix>3d</fix>
</trkpt>
<trkpt lat="40.0728419" lon="-105.2305749">
  <ele>1586.16</ele>
  <time>2026-08-27T18:26:29Z</time>
  <course>11.11</course>
  <speed>0.01414213562373095</speed>
  <fix>3d</fix>
</trkpt>
<trkpt lat="40.072842" lon="-105.230575">
  <ele>1586.09</ele>
  <time>2026-08-27T18:26:29Z</time>
  <course>266.03</course>
  <speed>0.0</speed>
  <fix>3d</fix>
</trkpt>
<trkpt lat="40.0728419" lon="-105.2305749">
  <ele>1586.16</ele>
  <time>2026-08-27T18:26:29Z</time>
  <course>11.11</course>
  <speed>0.01414213562373095</speed>
  <fix>3d</fix>
</trkpt>
<trkpt lat="40.072842" lon="-105.230575">
  <ele>1586.09</ele>
  <time>2026-08-27T18:26:29Z</time>
  <course>266.03</course>
  <speed>0.0</speed>
  <fix>3d</fix>
</trkpt>
<trkpt lat="40.0728419" lon="-105.2305749">
  <ele>1586.16</ele>
  <time>2026-08-27T18:26:29Z</time>
  <course>11.11</course>
  <speed>0.01414213562373095</speed>
  <fix>3d</fix>
</trkpt>
<trkpt lat="40.072842" lon="-105.230575">
  <ele>1586.09</ele>
  <time>2026-08-27T18:26:29Z</time>
  <course>266.03</course>
  <speed>0.0</speed>
  <fix>3d</fix>
</trkpt>
<trkpt lat="40.0728419" lon="-105.2305749">
  <ele>1586.15</ele>
  <time>2026-08-27T18:26:29Z</time>
  <course>11.11</course>
  <speed>0.01414213562373095</speed>
  <fix>3d</fix>
</trkpt>
<trkpt lat="40.072842" lon="-105.230575">
  <ele>1586.09</ele>
  <time>2026-08-27T18:26:29Z</time>
  <course>266.03</course>
  <speed>0.0</speed>
  <fix>3d</fix>
</trkpt>
<trkpt lat="40.0728419" lon="-105.2305749">
  <ele>1586.15</ele>
  <time>2026-08-27T18:26:29Z</time>
  <course>11.1</course>
  <speed>0.01414213562373095</speed>
  <fix>3d</fix>
</trkpt>
<trkpt lat="40.072842" lon="-105.230575">
  <ele>1586.09</ele>
  <time>2026-08-27T18:26:29Z</time>
  <course>266.03</course>
  <speed>0.0</speed>
  <fix>3d</fix>
</trkpt>
<trkpt lat="40.0728419" lon="-105.2305749">
  <ele>1586.15</ele>
  <time>2026-08-27T18:26:29Z</time>
  <course>11.1</course>
  <speed>0.01414213562373095</speed>
  <fix>3d</fix>
</trkpt>
<trkpt lat="40.072842" lon="-105.230575">
  <ele>1586.09</ele>
  <time>2026-08-27T18:26:29Z</time>
  <course>266.03</course>
  <speed>0.0</speed>
  <fix>3d</fix>
</trkpt>
<trkpt lat="40.0728419" lon="-105.2305749">
  <ele>1586.15</ele>
  <time>2026-08-27T18:26:29Z</time>
  <course>11.1</course>
  <speed>0.01414213562373095</speed>
  <fix>3d</fix>
</trkpt>
<trkpt lat="40.072842" lon="-105.230575">
  <ele>1586.09</ele>
  <time>2026-08-27T18:26:29Z</time>
  <course>266.03</course>
  <speed>0.0</speed>
  <fix>3d</fix>
</trkpt>
<trkpt lat="40.0728419" lon="-105.2305749">
  <ele>1586.14</ele>
  <time>2026-08-27T18:26:29Z</time>
  <course>11.1</course>
  <speed>0.01414213562373095</speed>
  <fix>3d</fix>
</trkpt>
<trkpt lat="40.072842" lon="-105.230575">
  <ele>1586.09</ele>
  <time>2026-08-27T18:26:29Z</time>
  <course>266.03</course>
  <speed>0.0</speed>
  <fix>3d</fix>
</trkpt>
<trkpt lat="40.0728419" lon="-105.2305749">
  <ele>1586.14</ele>
  <time>2026-08-27T18:26:29Z</time>
  <course>11.09</course>
  <speed>0.01414213562373095</speed>
  <fix>3d</fix>
</trkpt>
<trkpt lat="40.072842" lon="-105.230575">
  <ele>1586.09</ele>
  <time>2026-08-27T18:26:29Z</time>
  <course>266.03</course>
  <speed>0.0</speed>
  <fix>3d</fix>
</trkpt>
<trkpt lat="40.0728419" lon="-105.2305749">
  <ele>1586.15</ele>
  <time>2026-08-27T18:26:29Z</time>
  <course>11.09</course>
  <speed>0.01414213562373095</speed>
  <fix>3d</fix>
</trkpt>
<trkpt lat="40.072842" lon="-105.230575">
  <ele>1586.09</ele>
  <time>2026-08-27T18:26:29Z</time>
  <course>266.03</course>
  <speed>0.0</speed>
  <fix>3d</fix>
</trkpt>
<trkpt lat="40.0728419" lon="-105.2305749">
  <ele>1586.15</ele>
  <time>2026-08-27T18:26:29Z</time>
  <course>11.09</course>
  <speed>0.01414213562373095</speed>
  <fix>3d</fix>
</trkpt>
<trkpt lat="40.072842" lon="-105.230575">
  <ele>1586.09</ele>
  <time>2026-08-27T18:26:29Z</time>
  <course>266.03</course>
  <speed>0.0</speed>
  <fix>3d</fix>
</trkpt>
<trkpt lat="40.0728419" lon="-105.2305749">
  <ele>1586.15</ele>
  <time>2026-08-27T18:26:29Z</time>
  <course>11.09</course>
  <speed>0.01414213562373095</speed>
  <fix>3d</fix>
</trkpt>
<trkpt lat="40.072842" lon="-105.230575">
  <ele>1586.09</ele>
  <time>2026-08-27T18:26:29Z</time>
  <course>266.03</course>
  <speed>0.0</speed>
  <fix>3d</fix>
</trkpt>
<trkpt lat="40.0728419" lon="-105.2305749">
  <ele>1586.16</ele>
  <time>2026-08-27T18:26:29Z</time>
  <course>11.08</course>
  <speed>0.01414213562373095</speed>
  <fix>3d</fix>
</trkpt>
<trkpt lat="40.072842" lon="-105.230575">
  <ele>1586.09</ele>
  <time>2026-08-27T18:26:29Z</time>
  <course>266.03</course>
  <speed>0.0</speed>
  <fix>3d</fix>
</trkpt>
<trkpt lat="40.0728419" lon="-105.2305749">
  <ele>1586.16</ele>
  <time>2026-08-27T18:26:29Z</time>
  <course>11.08</course>
  <speed>0.01414213562373095</speed>
  <fix>3d</fix>
</trkpt>
<trkpt lat="40.072842" lon="-105.230575">
  <ele>1586.09</ele>
  <time>2026-08-27T18:26:29Z</time>
  <course>266.03</course>
  <speed>0.0</speed>
  <fix>3d</fix>
</trkpt>
<trkpt lat="40.0728419" lon="-105.2305749">
  <ele>1586.16</ele>
  <time>2026-08-27T18:26:29Z</time>
  <course>11.08</course>
  <speed>0.01414213562373095</speed>
  <fix>3d</fix>
</trkpt>
<trkpt lat="40.072842" lon="-105.230575">
  <ele>1586.09</ele>
  <time>2026-08-27T18:26:29Z</time>
  <course>266.03</course>
  <speed>0.0</speed>
  <fix>3d</fix>
</trkpt>
<trkpt lat="40.0728419" lon="-105.2305749">
  <ele>1586.17</ele>
  <time>2026-08-27T18:26:29Z</time>
  <course>11.08</course>
  <speed>0.01414213562373095</speed>
  <fix>3d</fix>
</trkpt>
<trkpt lat="40.072842" lon="-105.230575">
  <ele>1586.09</ele>
  <time>2026-08-27T18:26:29Z</time>
  <course>266.03</course>
  <speed>0.0</speed>
  <fix>3d</fix>
</trkpt>
<trkpt lat="40.0728419" lon="-105.2305749">
  <ele>1586.18</ele>
  <time>2026-08-27T18:26:29Z</time>
  <course>11.08</course>
  <speed>0.01414213562373095</speed>
  <fix>3d</fix>
</trkpt>
<trkpt lat="40.072842" lon="-105.230575">
  <ele>1586.09</ele>
  <time>2026-08-27T18:26:29Z</time>
  <course>266.03</course>
  <speed>0.0</speed>
  <fix>3d</fix>
</trkpt>
<trkpt lat="40.0728419" lon="-105.2305749">
  <ele>1586.18</ele>
  <time>2026-08-27T18:26:29Z</time>
  <course>11.07</course>
  <speed>0.01414213562373095</speed>
  <fix>3d</fix>
</trkpt>
<trkpt lat="40.072842" lon="-105.230575">
  <ele>1586.09</ele>
  <time>2026-08-27T18:26:29Z</time>
  <course>266.03</course>
  <speed>0.0</speed>
  <fix>3d</fix>
</trkpt>
<trkpt lat="40.0728419" lon="-105.2305749">
  <ele>1586.18</ele>
  <time>2026-08-27T18:26:29Z</time>
  <course>11.07</course>
  <speed>0.01414213562373095</speed>
  <fix>3d</fix>
</trkpt>
<trkpt lat="40.072842" lon="-105.230575">
  <ele>1586.09</ele>
  <time>2026-08-27T18:26:29Z</time>
  <course>266.03</course>
  <speed>0.0</speed>
  <fix>3d</fix>
</trkpt>
<trkpt lat="39.654938" lon="-104.1331666">
  <ele>1569.54</ele>
  <time>2026-08-27T18:26:29Z</time>
  <course>168.11</course>
  <speed>0.0</speed>
  <fix>3d</fix>
</trkpt>
<trkpt lat="40.072842" lon="-105.230575">
  <ele>1586.09</ele>
  <time>2026-08-27T18:26:29Z</time>
  <course>2.03</course>
  <speed>0.0</speed>
  <fix>3d</fix>
</trkpt>
<trkpt lat="40.072842" lon="-105.230575">
  <ele>1586.09</ele>
  <time>2026-08-27T18:26:29Z</time>
  <course>238.4</course>
  <speed>0.0</speed>
  <fix>3d</fix>
</trkpt>
<trkpt lat="40.072842" lon="-105.230575">
  <ele>1586.09</ele>
  <time>2026-08-27T18:26:29Z</time>
  <course>2.43</course>
  <speed>0.0</speed>
  <fix>3d</fix>
</trkpt>
<trkpt lat="40.072842" lon="-105.230575">
  <ele>1586.09</ele>
  <time>2026-08-27T18:26:29Z</time>
  <course>194.29</course>
  <speed>0.0</speed>
  <fix>3d</fix>
</trkpt>
<trkpt lat="40.072842" lon="-105.230575">
  <ele>1586.09</ele>
  <time>2026-08-27T18:26:29Z</time>
  <course>3.16</course>
  <speed>0.0</speed>
  <fix>3d</fix>
</trkpt>
<trkpt lat="40.072842" lon="-105.230575">
  <ele>1586.09</ele>
  <time>2026-08-27T18:26:29Z</time>
  <course>193.66</course>
  <speed>0.0</speed>
  <fix>3d</fix>
</trkpt>
<trkpt lat="40.072842" lon="-105.230575">
  <ele>1586.09</ele>
  <time>2026-08-27T18:26:29Z</time>
  <course>3.85</course>
  <speed>0.0</speed>
  <fix>3d</fix>
</trkpt>
<trkpt lat="40.072842" lon="-105.230575">
  <ele>1586.09</ele>
  <time>2026-08-27T18:26:29Z</time>
  <course>303.54</course>
  <speed>0.0</speed>
  <fix>3d</fix>
</trkpt>
<trkpt lat="40.072842" lon="-105.230575">
  <ele>1586.09</ele>
  <time>2026-08-27T18:26:29Z</time>
  <course>4.47</course>
  <speed>0.0</speed>
  <fix>3d</fix>
</trkpt>
<trkpt lat="40.072842" lon="-105.230575">
  <ele>1586.09</ele>
  <time>2026-08-27T18:26:29Z</time>
  <course>110.94</course>
  <speed>0.0</speed>
  <fix>3d</fix>
</trkpt>
<trkpt lat="40.072842" lon="-105.230575">
  <ele>1586.09</ele>
  <time>2026-08-27T18:26:29Z</time>
  <course>5.06</course>
  <speed>0.0</speed>
  <fix>3d</fix>
</trkpt>
<trkpt lat="40.072842" lon="-105.230575">
  <ele>1586.09</ele>
  <time>2026-08-27T18:26:29Z</time>
  <course>191.21</course>
  <speed>0.0</speed>
  <fix>3d</fix>
</trkpt>
<trkpt lat="40.072842" lon="-105.230575">
  <ele>1586.09</ele>
  <time>2026-08-27T18:26:29Z</time>
  <course>5.62</course>
  <speed>0.0</speed>
  <fix>3d</fix>
</trkpt>
<trkpt lat="40.072842" lon="-105.230575">
  <ele>1586.09</ele>
  <time>2026-08-27T18:26:29Z</time>
  <course>252.23</course>
  <speed>0.0</speed>
  <fix>3d</fix>
</trkpt>
<trkpt lat="40.072842" lon="-105.230575">
  <ele>1586.09</ele>
  <time>2026-08-27T18:26:29Z</time>
  <course>6.14</course>
  <speed>0.0</speed>
  <fix>3d</fix>
</trkpt>
<trkpt lat="40.072842" lon="-105.230575">
  <ele>1586.09</ele>
  <time>2026-08-27T18:26:29Z</time>
  <course>170.36</course>
  <speed>0.0</speed>
  <fix>3d</fix>
</trkpt>
<trkpt lat="40.072842" lon="-105.230575">
  <ele>1586.09</ele>
  <time>2026-08-27T18:26:29Z</time>
  <course>6.64</course>
  <speed>0.0</speed>
  <fix>3d</fix>
</trkpt>
<trkpt lat="40.072842" lon="-105.230575">
  <ele>1586.09</ele>
  <time>2026-08-27T18:26:29Z</time>
  <course>179.36</course>
  <speed>0.0</speed>
  <fix>3d</fix>
</trkpt>
<trkpt lat="40.072842" lon="-105.230575">
  <ele>1586.09</ele>
  <time>2026-08-27T18:26:29Z</time>
  <course>7.1</course>
  <speed>0.0</speed>
  <fix>3d</fix>
</trkpt>
<trkpt lat="40.072842" lon="-105.230575">
  <ele>1586.09</ele>
  <time>2026-08-27T18:26:29Z</time>
  <course>19.98</course>
  <speed>0.0</speed>
  <fix>3d</fix>
</trkpt>
<trkpt lat="40.072842" lon="-105.230575">
  <ele>1586.09</ele>
  <time>2026-08-27T18:26:29Z</time>
  <course>7.53</course>
  <speed>0.0</speed>
  <fix>3d</fix>
</trkpt>
<trkpt lat="40.072842" lon="-105.230575">
  <ele>1586.09</ele>
  <time>2026-08-27T18:26:29Z</time>
  <course>17.49</course>
  <speed>0.0</speed>
  <fix>3d</fix>
</trkpt>
<trkpt lat="40.072842" lon="-105.230575">
  <ele>1586.09</ele>
  <time>2026-08-27T18:26:29Z</time>
  <course>7.92</course>
  <speed>0.0</speed>
  <fix>3d</fix>
</trkpt>
<trkpt lat="40.072842" lon="-105.230575">
  <ele>1586.09</ele>
  <time>2026-08-27T18:26:29Z</time>
  <course>356.19</course>
  <speed>0.0</speed>
  <fix>3d</fix>
</trkpt>
<trkpt lat="40.072842" lon="-105.230575">
  <ele>1586.09</ele>
  <time>2026-08-27T18:26:29Z</time>
  <course>8.29</course>
  <speed>0.0</speed>
  <fix>3d</fix>
</trkpt>
<trkpt lat="40.072842" lon="-105.230575">
  <ele>1586.09</ele>
  <time>2026-08-27T18:26:29Z</time>
  <course>77.32</course>
  <speed>0.0</speed>
  <fix>3d</fix>
</trkpt>
<trkpt lat="40.072842" lon="-105.230575">
  <ele>1586.09</ele>
  <time>2026-08-27T18:26:29Z</time>
  <course>8.62</course>
  <speed>0.0</speed>
  <fix>3d</fix>
</trkpt>
<trkpt lat="40.072842" lon="-105.230575">
  <ele>1586.09</ele>
  <time>2026-08-27T18:26:29Z</time>
  <course>290.54</course>
  <speed>0.0</speed>
  <fix>3d</fix>
</trkpt>
<trkpt lat="40.072842" lon="-105.230575">
  <ele>1586.09</ele>
  <time>2026-08-27T18:26:29Z</time>
  <course>8.93</course>
  <speed>0.0</speed>
  <fix>3d</fix>
</trkpt>
<trkpt lat="40.072842" lon="-105.230575">
  <ele>1586.09</ele>
  <time>2026-08-27T18:26:29Z</time>
  <course>338.69</course>
  <speed>0.0</speed>
  <fix>3d</fix>
</trkpt>
<trkpt lat="40.072842" lon="-105.230575">
  <ele>1586.09</ele>
  <time>2026-08-27T18:26:29Z</time>
  <course>9.22</course>
  <speed>0.0</speed>
  <fix>3d</fix>
</trkpt>
<trkpt lat="40.072842" lon="-105.230575">
  <ele>1586.09</ele>
  <time>2026-08-27T18:26:29Z</time>
  <course>326.81</course>
  <speed>0.0</speed>
  <fix>3d</fix>
</trkpt>
<trkpt lat="40.072842" lon="-105.230575">
  <ele>1586.09</ele>
  <time>2026-08-27T18:26:29Z</time>
  <course>9.49</course>
  <speed>0.0</speed>
  <fix>3d</fix>
</trkpt>
<trkpt lat="40.072842" lon="-105.230575">
  <ele>1586.09</ele>
  <time>2026-08-27T18:26:29Z</time>
  <course>262.23</course>
  <speed>0.0</speed>
  <fix>3d</fix>
</trkpt>
<trkpt lat="40.072842" lon="-105.230575">
  <ele>1586.09</ele>
  <time>2026-08-27T18:26:29Z</time>
  <course>9.73</course>
  <speed>0.0</speed>
  <fix>3d</fix>
</trkpt>
<trkpt lat="40.072842" lon="-105.230575">
  <ele>1586.09</ele>
  <time>2026-08-27T18:26:29Z</time>
  <course>159.08</course>
  <speed>0.0</speed>
  <fix>3d</fix>
</trkpt>
<trkpt lat="40.072842" lon="-105.230575">
  <ele>1586.09</ele>
  <time>2026-08-27T18:26:29Z</time>
  <course>9.95</course>
  <speed>0.0</speed>
  <fix>3d</fix>
</trkpt>
<trkpt lat="40.072842" lon="-105.230575">
  <ele>1586.09</ele>
  <time>2026-08-27T18:26:29Z</time>
  <course>287.98</course>
  <speed>0.0</speed>
  <fix>3d</fix>
</trkpt>
<trkpt lat="40.072842" lon="-105.230575">
  <ele>1586.09</ele>
  <time>2026-08-27T18:26:29Z</time>
  <course>10.16</course>
  <speed>0.0</speed>
  <fix>3d</fix>
</trkpt>
<trkpt lat="40.072842" lon="-105.230575">
  <ele>1586.09</ele>
  <time>2026-08-27T18:26:29Z</time>
  <course>278.3</course>
  <speed>0.0</speed>
  <fix>3d</fix>
</trkpt>
<trkpt lat="40.072842" lon="-105.230575">
  <ele>1586.09</ele>
  <time>2026-08-27T18:26:29Z</time>
  <course>10.34</course>
  <speed>0.0</speed>
  <fix>3d</fix>
</trkpt>
<trkpt lat="40.072842" lon="-105.230575">
  <ele>1586.09</ele>
  <time>2026-08-27T18:26:29Z</time>
  <course>261.72</course>
  <speed>0.0</speed>
  <fix>3d</fix>
</trkpt>
<trkpt lat="40.072842" lon="-105.230575">
  <ele>1586.09</ele>
  <time>2026-08-27T18:26:29Z</time>
  <course>10.52</course>
  <speed>0.0</speed>
  <fix>3d</fix>
</trkpt>
<trkpt lat="40.072842" lon="-105.230575">
  <ele>1586.09</ele>
  <time>2026-08-27T18:26:29Z</time>
  <course>264.4</course>
  <speed>0.0</speed>
  <fix>3d</fix>
</trkpt>
<trkpt lat="40.072842" lon="-105.230575">
  <ele>1586.09</ele>
  <time>2026-08-27T18:26:29Z</time>
  <course>10.67</course>
  <speed>0.0</speed>
  <fix>3d</fix>
</trkpt>
<trkpt lat="40.072842" lon="-105.230575">
  <ele>1586.09</ele>
  <time>2026-08-27T18:26:29Z</time>
  <course>266.8</course>
  <speed>0.0</speed>
  <fix>3d</fix>
</trkpt>
<trkpt lat="40.072842" lon="-105.230575">
  <ele>1586.09</ele>
  <time>2026-08-27T18:26:29Z</time>
  <course>10.82</course>
  <speed>0.0</speed>
  <fix>3d</fix>
</trkpt>
<trkpt lat="40.072842" lon="-105.230575">
  <ele>1586.09</ele>
  <time>2026-08-27T18:26:29Z</time>
  <course>266.15</course>
  <speed>0.0</speed>
  <fix>3d</fix>
</trkpt>
<trkpt lat="40.072842" lon="-105.230575">
  <ele>1586.09</ele>
  <time>2026-08-27T18:26:29Z</time>
  <course>10.95</course>
  <speed>0.0</speed>
  <fix>3d</fix>
</trkpt>
<trkpt lat="40.072842" lon="-105.230575">
  <ele>1586.09</ele>
  <time>2026-08-27T18:26:29Z</time>
  <course>265.92</course>
  <speed>0.0</speed>
  <fix>3d</fix>
</trkpt>
<trkpt lat="40.072842" lon="-105.230575">
  <ele>1586.09</ele>
  <time>2026-08-27T18:26:29Z</time>
  <course>11.07</course>
  <speed>0.0</speed>
  <fix>3d</fix>
</trkpt>
<trkpt lat="40.072842" lon="-105.230575">
  <ele>1586.09</ele>
  <time>2026-08-27T18:26:29Z</time>
  <course>266.03</course>
  <speed>0.0</speed>
  <fix>3d</fix>
</trkpt>
<trkpt lat="40.072842" lon="-105.230575">
  <ele>1586.09</ele>
  <time>2026-08-27T18:26:29Z</time>
  <course>11.18</course>
  <speed>0.0</speed>
  <fix>3d</fix>
</trkpt>
<trkpt lat="40.072842" lon="-105.230575">
  <ele>1586.09</ele>
  <time>2026-08-27T18:26:29Z</time>
  <course>266.05</course>
  <speed>0.0</speed>
  <fix>3d</fix>
</trkpt>
<trkpt lat="40.072842" lon="-105.230575">
  <ele>1586.09</ele>
  <time>2026-08-27T18:26:30Z</time>
  <course>11.28</course>
  <speed>0.0</speed>
  <fix>3d</fix>
</trkpt>
<trkpt lat="40.072842" lon="-105.230575">
  <ele>1586.09</ele>
  <time>2026-08-27T18:26:30Z</time>
  <course>266.03</course>
  <speed>0.0</speed>
  <fix>3d</fix>
</trkpt>
<trkpt lat="40.072842" lon="-105.230575">
  <ele>1586.09</ele>
  <time>2026-08-27T18:26:30Z</time>
  <course>11.37</course>
  <speed>0.0</speed>
  <fix>3d</fix>
</trkpt>
<trkpt lat="40.072842" lon="-105.230575">
  <ele>1586.09</ele>
  <time>2026-08-27T18:26:30Z</time>
  <course>266.03</course>
  <speed>0.0</speed>
  <fix>3d</fix>
</trkpt>
<trkpt lat="40.072842" lon="-105.230575">
  <ele>1586.09</ele>
  <time>2026-08-27T18:26:30Z</time>
  <course>11.45</course>
  <speed>0.0</speed>
  <fix>3d</fix>
</trkpt>
<trkpt lat="40.072842" lon="-105.230575">
  <ele>1586.09</ele>
  <time>2026-08-27T18:26:30Z</time>
  <course>266.03</course>
  <speed>0.0</speed>
  <fix>3d</fix>
</trkpt>
<trkpt lat="40.072842" lon="-105.230575">
  <ele>1586.09</ele>
  <time>2026-08-27T18:26:30Z</time>
  <course>11.53</course>
  <speed>0.0</speed>
  <fix>3d</fix>
</trkpt>
<trkpt lat="40.072842" lon="-105.230575">
  <ele>1586.09</ele>
  <time>2026-08-27T18:26:30Z</time>
  <course>266.03</course>
  <speed>0.0</speed>
  <fix>3d</fix>
</trkpt>
<trkpt lat="40.072842" lon="-105.230575">
  <ele>1586.09</ele>
  <time>2026-08-27T18:26:30Z</time>
  <course>11.59</course>
  <speed>0.0</speed>
  <fix>3d</fix>
</trkpt>
<trkpt lat="40.072842" lon="-105.230575">
  <ele>1586.09</ele>
  <time>2026-08-27T18:26:30Z</time>
  <course>266.03</course>
  <speed>0.0</speed>
  <fix>3d</fix>
</trkpt>
<trkpt lat="40.072842" lon="-105.230575">
  <ele>1586.09</ele>
  <time>2026-08-27T18:26:30Z</time>
  <course>11.66</course>
  <speed>0.0</speed>
  <fix>3d</fix>
</trkpt>
<trkpt lat="40.072842" lon="-105.230575">
  <ele>1586.09</ele>
  <time>2026-08-27T18:26:30Z</time>
  <course>266.03</course>
  <speed>0.0</speed>
  <fix>3d</fix>
</trkpt>
<trkpt lat="40.072842" lon="-105.230575">
  <ele>1586.09</ele>
  <time>2026-08-27T18:26:30Z</time>
  <course>11.71</course>
  <speed>0.0</speed>
  <fix>3d</fix>
</trkpt>
<trkpt lat="40.072842" lon="-105.230575">
  <ele>1586.09</ele>
  <time>2026-08-27T18:26:30Z</time>
  <course>266.03</course>
  <speed>0.0</speed>
  <fix>3d</fix>
</trkpt>
<trkpt lat="40.072842" lon="-105.230575">
  <ele>1586.09</ele>
  <time>2026-08-27T18:26:30Z</time>
  <course>11.76</course>
  <speed>0.0</speed>
  <fix>3d</fix>
</trkpt>
<trkpt lat="40.072842" lon="-105.230575">
  <ele>1586.09</ele>
  <time>2026-08-27T18:26:30Z</time>
  <course>266.03</course>
  <speed>0.0</speed>
  <fix>3d</fix>
</trkpt>
<trkpt lat="40.072842" lon="-105.230575">
  <ele>1586.09</ele>
  <time>2026-08-27T18:26:30Z</time>
  <course>11.81</course>
  <speed>0.0</speed>
  <fix>3d</fix>
</trkpt>
<trkpt lat="40.072842" lon="-105.230575">
  <ele>1586.09</ele>
  <time>2026-08-27T18:26:30Z</time>
  <course>266.03</course>
  <speed>0.0</speed>
  <fix>3d</fix>
</trkpt>
<trkpt lat="40.072842" lon="-105.230575">
  <ele>1586.09</ele>
  <time>2026-08-27T18:26:30Z</time>
  <course>11.85</course>
  <speed>0.0</speed>
  <fix>3d</fix>
</trkpt>
<trkpt lat="40.072842" lon="-105.230575">
  <ele>1586.09</ele>
  <time>2026-08-27T18:26:30Z</time>
  <course>266.03</course>
  <speed>0.0</speed>
  <fix>3d</fix>
</trkpt>
<trkpt lat="40.072842" lon="-105.230575">
  <ele>1586.09</ele>
  <time>2026-08-27T18:26:30Z</time>
  <course>11.88</course>
  <speed>0.0</speed>
  <fix>3d</fix>
</trkpt>
<trkpt lat="40.072842" lon="-105.230575">
  <ele>1586.09</ele>
  <time>2026-08-27T18:26:30Z</time>
  <course>266.03</course>
  <speed>0.0</speed>
  <fix>3d</fix>
</trkpt>
<trkpt lat="40.072842" lon="-105.230575">
  <ele>1586.09</ele>
  <time>2026-08-27T18:26:30Z</time>
  <course>11.92</course>
  <speed>0.0</speed>
  <fix>3d</fix>
</trkpt>
<trkpt lat="40.072842" lon="-105.230575">
  <ele>1586.09</ele>
  <time>2026-08-27T18:26:30Z</time>
  <course>266.03</course>
  <speed>0.0</speed>
  <fix>3d</fix>
</trkpt>
<trkpt lat="40.072842" lon="-105.230575">
  <ele>1586.09</ele>
  <time>2026-08-27T18:26:30Z</time>
  <course>11.95</course>
  <speed>0.0</speed>
  <fix>3d</fix>
</trkpt>
<trkpt lat="40.072842" lon="-105.230575">
  <ele>1586.09</ele>
  <time>2026-08-27T18:26:30Z</time>
  <course>266.03</course>
  <speed>0.0</speed>
  <fix>3d</fix>
</trkpt>
<trkpt lat="40.072842" lon="-105.230575">
  <ele>1586.09</ele>
  <time>2026-08-27T18:26:30Z</time>
  <course>11.97</course>
  <speed>0.0</speed>
  <fix>3d</fix>
</trkpt>
<trkpt lat="40.072842" lon="-105.230575">
  <ele>1586.09</ele>
  <time>2026-08-27T18:26:30Z</time>
  <course>266.03</course>
  <speed>0.0</speed>
  <fix>3d</fix>
</trkpt>
<trkpt lat="40.072842" lon="-105.230575">
  <ele>1586.09</ele>
  <time>2026-08-27T18:26:30Z</time>
  <course>12.0</course>
  <speed>0.0</speed>
  <fix>3d</fix>
</trkpt>
<trkpt lat="40.072842" lon="-105.230575">
  <ele>1586.09</ele>
  <time>2026-08-27T18:26:30Z</time>
  <course>266.03</course>
  <speed>0.0</speed>
  <fix>3d</fix>
</trkpt>
<trkpt lat="40.072842" lon="-105.230575">
  <ele>1586.09</ele>
  <time>2026-08-27T18:26:30Z</time>
  <course>12.02</course>
  <speed>0.0</speed>
  <fix>3d</fix>
</trkpt>
<trkpt lat="40.072842" lon="-105.230575">
  <ele>1586.09</ele>
  <time>2026-08-27T18:26:30Z</time>
  <course>266.03</course>
  <speed>0.0</speed>
  <fix>3d</fix>
</trkpt>
<trkpt lat="40.072842" lon="-105.230575">
  <ele>1586.09</ele>
  <time>2026-08-27T18:26:30Z</time>
  <course>12.04</course>
  <speed>0.0</speed>
  <fix>3d</fix>
</trkpt>
<trkpt lat="40.072842" lon="-105.230575">
  <ele>1586.09</ele>
  <time>2026-08-27T18:26:30Z</time>
  <course>266.03</course>
  <speed>0.0</speed>
  <fix>3d</fix>
</trkpt>
<trkpt lat="40.072842" lon="-105.230575">
  <ele>1586.09</ele>
  <time>2026-08-27T18:26:30Z</time>
  <course>12.05</course>
  <speed>0.0</speed>
  <fix>3d</fix>
</trkpt>
<trkpt lat="40.072842" lon="-105.230575">
  <ele>1586.09</ele>
  <time>2026-08-27T18:26:30Z</time>
  <course>266.03</course>
  <speed>0.0</speed>
  <fix>3d</fix>
</trkpt>
<trkpt lat="40.072842" lon="-105.230575">
  <ele>1586.09</ele>
  <time>2026-08-27T18:26:30Z</time>
  <course>12.07</course>
  <speed>0.0</speed>
  <fix>3d</fix>
</trkpt>
<trkpt lat="40.072842" lon="-105.230575">
  <ele>1586.09</ele>
  <time>2026-08-27T18:26:30Z</time>
  <course>266.03</course>
  <speed>0.0</speed>
  <fix>3d</fix>
</trkpt>
<trkpt lat="40.072842" lon="-105.230575">
  <ele>1586.09</ele>
  <time>2026-08-27T18:26:30Z</time>
  <course>12.08</course>
  <speed>0.0</speed>
  <fix>3d</fix>
</trkpt>
<trkpt lat="40.072842" lon="-105.230575">
  <ele>1586.09</ele>
  <time>2026-08-27T18:26:30Z</time>
  <course>266.03</course>
  <speed>0.0</speed>
  <fix>3d</fix>
</trkpt>
<trkpt lat="40.072842" lon="-105.230575">
  <ele>1586.09</ele>
  <time>2026-08-27T18:26:30Z</time>
  <course>12.09</course>
  <speed>0.0</speed>
  <fix>3d</fix>
</trkpt>
<trkpt lat="40.072842" lon="-105.230575">
  <ele>1586.09</ele>
  <time>2026-08-27T18:26:30Z</time>
  <course>266.03</course>
  <speed>0.0</speed>
  <fix>3d</fix>
</trkpt>
<trkpt lat="40.072842" lon="-105.230575">
  <ele>1586.09</ele>
  <time>2026-08-27T18:26:30Z</time>
  <course>12.1</course>
  <speed>0.0</speed>
  <fix>3d</fix>
</trkpt>
<trkpt lat="40.072842" lon="-105.230575">
  <ele>1586.09</ele>
  <time>2026-08-27T18:26:30Z</time>
  <course>266.03</course>
  <speed>0.0</speed>
  <fix>3d</fix>
</trkpt>
<trkpt lat="40.072842" lon="-105.230575">
  <ele>1586.09</ele>
  <time>2026-08-27T18:26:30Z</time>
  <course>12.1</course>
  <speed>0.0</speed>
  <fix>3d</fix>
</trkpt>
<trkpt lat="40.072842" lon="-105.230575">
  <ele>1586.09</ele>
  <time>2026-08-27T18:26:30Z</time>
  <course>266.03</course>
  <speed>0.0</speed>
  <fix>3d</fix>
</trkpt>
<trkpt lat="40.072842" lon="-105.230575">
  <ele>1586.09</ele>
  <time>2026-08-27T18:26:30Z</time>
  <course>12.11</course>
  <speed>0.0</speed>
  <fix>3d</fix>
</trkpt>
<trkpt lat="40.072842" lon="-105.230575">
  <ele>1586.09</ele>
  <time>2026-08-27T18:26:30Z</time>
  <course>266.03</course>
  <speed>0.0</speed>
  <fix>3d</fix>
</trkpt>
<trkpt lat="40.072842" lon="-105.230575">
  <ele>1586.09</ele>
  <time>2026-08-27T18:26:30Z</time>
  <course>12.12</course>
  <speed>0.0</speed>
  <fix>3d</fix>
</trkpt>
<trkpt lat="40.072842" lon="-105.230575">
  <ele>1586.09</ele>
  <time>2026-08-27T18:26:30Z</time>
  <course>266.03</course>
  <speed>0.0</speed>
  <fix>3d</fix>
</trkpt>
<trkpt lat="40.072842" lon="-105.230575">
  <ele>1586.09</ele>
  <time>2026-08-27T18:26:30Z</time>
  <course>12.12</course>
  <speed>0.0</speed>
  <fix>3d</fix>
</trkpt>
<trkpt lat="40.072842" lon="-105.230575">
  <ele>1586.09</ele>
  <time>2026-08-27T18:26:30Z</time>
  <course>266.03</course>
  <speed>0.0</speed>
  <fix>3d</fix>
</trkpt>
<trkpt lat="40.072842" lon="-105.230575">
  <ele>1586.09</ele>
  <time>2026-08-27T18:26:30Z</time>
  <course>12.12</course>
  <speed>0.0</speed>
  <fix>3d</fix>
</trkpt>
<trkpt lat="40.072842" lon="-105.230575">
  <ele>1586.09</ele>
  <time>2026-08-27T18:26:30Z</time>
  <course>266.03</course>
  <speed>0.0</speed>
  <fix>3d</fix>
</trkpt>
<trkpt lat="40.072842" lon="-105.230575">
  <ele>1586.09</ele>
  <time>2026-08-27T18:26:30Z</time>
  <course>12.13</course>
  <speed>0.0</speed>
  <fix>3d</fix>
</trkpt>
<trkpt lat="40.072842" lon="-105.230575">
  <ele>1586.09</ele>
  <time>2026-08-27T18:26:30Z</time>
  <course>266.03</course>
  <speed>0.0</speed>
  <fix>3d</fix>
</trkpt>
<trkpt lat="40.072842" lon="-105.230575">
  <ele>1586.09</ele>
  <time>2026-08-27T18:26:30Z</time>
  <course>12.13</course>
  <speed>0.0</speed>
  <fix>3d</fix>
</trkpt>
<trkpt lat="40.072842" lon="-105.230575">
  <ele>1586.09</ele>
  <time>2026-08-27T18:26:30Z</time>
  <course>266.03</course>
  <speed>0.0</speed>
  <fix>3d</fix>
</trkpt>
<trkpt lat="40.072842" lon="-105.230575">
  <ele>1586.09</ele>
  <time>2026-08-27T18:26:30Z</time>
  <course>12.13</course>
  <speed>0.0</speed>
  <fix>3d</fix>
</trkpt>
<trkpt lat="40.072842" lon="-105.230575">
  <ele>1586.09</ele>
  <time>2026-08-27T18:26:30Z</time>
  <course>266.03</course>
  <speed>0.0</speed>
  <fix>3d</fix>
</trkpt>
<trkpt lat="40.072842" lon="-105.230575">
  <ele>1586.09</ele>
  <time>2026-08-27T18:26:30Z</time>
  <course>12.12</course>
  <speed>0.01</speed>
  <fix>3d</fix>
</trkpt>
<trkpt lat="40.072842" lon="-105.230575">
  <ele>1586.09</ele>
  <time>2026-08-27T18:26:30Z</time>
  <course>266.03</course>
  <speed>0.0</speed>
  <fix>3d</fix>
</trkpt>
<trkpt lat="40.072842" lon="-105.230575">
  <ele>1586.09</ele>
  <time>2026-08-27T18:26:30Z</time>
  <course>12.12</course>
  <speed>0.01</speed>
  <fix>3d</fix>
</trkpt>
<trkpt lat="40.072842" lon="-105.230575">
  <ele>1586.09</ele>
  <time>2026-08-27T18:26:30Z</time>
  <course>266.03</course>
  <speed>0.0</speed>
  <fix>3d</fix>
</trkpt>
<trkpt lat="40.072842" lon="-105.230575">
  <ele>1586.09</ele>
  <time>2026-08-27T18:26:30Z</time>
  <course>12.12</course>
  <speed>0.01</speed>
  <fix>3d</fix>
</trkpt>
<trkpt lat="40.072842" lon="-105.230575">
  <ele>1586.09</ele>
  <time>2026-08-27T18:26:30Z</time>
  <course>266.03</course>
  <speed>0.0</speed>
  <fix>3d</fix>
</trkpt>
<trkpt lat="40.072842" lon="-105.230575">
  <ele>1586.09</ele>
  <time>2026-08-27T18:26:30Z</time>
  <course>12.12</course>
  <speed>0.01</speed>
  <fix>3d</fix>
</trkpt>
<trkpt lat="40.072842" lon="-105.230575">
  <ele>1586.09</ele>
  <time>2026-08-27T18:26:30Z</time>
  <course>266.03</course>
  <speed>0.0</speed>
  <fix>3d</fix>
</trkpt>
<trkpt lat="40.072842" lon="-105.230575">
  <ele>1586.09</ele>
  <time>2026-08-27T18:26:30Z</time>
  <course>12.11</course>
  <speed>0.01</speed>
  <fix>3d</fix>
</trkpt>
<trkpt lat="40.072842" lon="-105.230575">
  <ele>1586.09</ele>
  <time>2026-08-27T18:26:30Z</time>
  <course>266.03</course>
  <speed>0.0</speed>
  <fix>3d</fix>
</trkpt>
<trkpt lat="40.072842" lon="-105.230575">
  <ele>1586.09</ele>
  <time>2026-08-27T18:26:30Z</time>
  <course>12.11</course>
  <speed>0.01</speed>
  <fix>3d</fix>
</trkpt>
<trkpt lat="40.072842" lon="-105.230575">
  <ele>1586.09</ele>
  <time>2026-08-27T18:26:30Z</time>
  <course>266.03</course>
  <speed>0.0</speed>
  <fix>3d</fix>
</trkpt>
<trkpt lat="40.072842" lon="-105.230575">
  <ele>1586.09</ele>
  <time>2026-08-27T18:26:30Z</time>
  <course>12.1</course>
  <speed>0.01</speed>
  <fix>3d</fix>
</trkpt>
<trkpt lat="40.072842" lon="-105.230575">
  <ele>1586.09</ele>
  <time>2026-08-27T18:26:30Z</time>
  <course>266.03</course>
  <speed>0.0</speed>
  <fix>3d</fix>
</trkpt>
<trkpt lat="40.072842" lon="-105.230575">
  <ele>1586.09</ele>
  <time>2026-08-27T18:26:30Z</time>
  <course>12.1</course>
  <speed>0.01</speed>
  <fix>3d</fix>
</trkpt>
<trkpt lat="40.072842" lon="-105.230575">
  <ele>1586.09</ele>
  <time>2026-08-27T18:26:30Z</time>
  <course>266.03</course>
  <speed>0.0</speed>
  <fix>3d</fix>
</trkpt>
<trkpt lat="40.072842" lon="-105.230575">
  <ele>1586.09</ele>
  <time>2026-08-27T18:26:30Z</time>
  <course>12.09</course>
  <speed>0.01</speed>
  <fix>3d</fix>
</trkpt>
<trkpt lat="40.072842" lon="-105.230575">
  <ele>1586.09</ele>
  <time>2026-08-27T18:26:30Z</time>
  <course>266.03</course>
  <speed>0.0</speed>
  <fix>3d</fix>
</trkpt>
<trkpt lat="40.072842" lon="-105.230575">
  <ele>1586.09</ele>
  <time>2026-08-27T18:26:30Z</time>
  <course>12.09</course>
  <speed>0.01</speed>
  <fix>3d</fix>
</trkpt>
<trkpt lat="40.072842" lon="-105.230575">
  <ele>1586.09</ele>
  <time>2026-08-27T18:26:30Z</time>
  <course>266.03</course>
  <speed>0.0</speed>
  <fix>3d</fix>
</trkpt>
<trkpt lat="40.072842" lon="-105.230575">
  <ele>1586.09</ele>
  <time>2026-08-27T18:26:30Z</time>
  <course>12.08</course>
  <speed>0.01</speed>
  <fix>3d</fix>
</trkpt>
<trkpt lat="40.072842" lon="-105.230575">
  <ele>1586.09</ele>
  <time>2026-08-27T18:26:30Z</time>
  <course>266.03</course>
  <speed>0.0</speed>
  <fix>3d</fix>
</trkpt>
<trkpt lat="40.072842" lon="-105.230575">
  <ele>1586.09</ele>
  <time>2026-08-27T18:26:30Z</time>
  <course>12.08</course>
  <speed>0.01414213562373095</speed>
  <fix>3d</fix>
</trkpt>
<trkpt lat="40.072842" lon="-105.230575">
  <ele>1586.09</ele>
  <time>2026-08-27T18:26:30Z</time>
  <course>266.03</course>
  <speed>0.0</speed>
  <fix>3d</fix>
</trkpt>
<trkpt lat="40.072842" lon="-105.230575">
  <ele>1586.09</ele>
  <time>2026-08-27T18:26:30Z</time>
  <course>12.07</course>
  <speed>0.01414213562373095</speed>
  <fix>3d</fix>
</trkpt>
<trkpt lat="40.072842" lon="-105.230575">
  <ele>1586.09</ele>
  <time>2026-08-27T18:26:30Z</time>
  <course>266.03</course>
  <speed>0.0</speed>
  <fix>3d</fix>
</trkpt>
<trkpt lat="40.072842" lon="-105.230575">
  <ele>1586.09</ele>
  <time>2026-08-27T18:26:30Z</time>
  <course>12.06</course>
  <speed>0.01414213562373095</speed>
  <fix>3d</fix>
</trkpt>
<trkpt lat="40.072842" lon="-105.230575">
  <ele>1586.09</ele>
  <time>2026-08-27T18:26:30Z</time>
  <course>266.03</course>
  <speed>0.0</speed>
  <fix>3d</fix>
</trkpt>
<trkpt lat="40.072842" lon="-105.230575">
  <ele>1586.09</ele>
  <time>2026-08-27T18:26:30Z</time>
  <course>12.05</course>
  <speed>0.01414213562373095</speed>
  <fix>3d</fix>
</trkpt>
<trkpt lat="40.072842" lon="-105.230575">
  <ele>1586.09</ele>
  <time>2026-08-27T18:26:30Z</time>
  <course>266.03</course>
  <speed>0.0</speed>
  <fix>3d</fix>
</trkpt>
<trkpt lat="40.072842" lon="-105.230575">
  <ele>1586.09</ele>
  <time>2026-08-27T18:26:30Z</time>
  <course>12.05</course>
  <speed>0.01414213562373095</speed>
  <fix>3d</fix>
</trkpt>
<trkpt lat="40.072842" lon="-105.230575">
  <ele>1586.09</ele>
  <time>2026-08-27T18:26:30Z</time>
  <course>266.03</course>
  <speed>0.0</speed>
  <fix>3d</fix>
</trkpt>
<trkpt lat="40.072842" lon="-105.230575">
  <ele>1586.09</ele>
  <time>2026-08-27T18:26:30Z</time>
  <course>12.04</course>
  <speed>0.01414213562373095</speed>
  <fix>3d</fix>
</trkpt>
<trkpt lat="40.072842" lon="-105.230575">
  <ele>1586.09</ele>
  <time>2026-08-27T18:26:30Z</time>
  <course>266.03</course>
  <speed>0.0</speed>
  <fix>3d</fix>
</trkpt>
<trkpt lat="40.072842" lon="-105.230575">
  <ele>1586.09</ele>
  <time>2026-08-27T18:26:30Z</time>
  <course>12.03</course>
  <speed>0.01414213562373095</speed>
  <fix>3d</fix>
</trkpt>
<trkpt lat="40.072842" lon="-105.230575">
  <ele>1586.09</ele>
  <time>2026-08-27T18:26:30Z</time>
  <course>266.03</course>
  <speed>0.0</speed>
  <fix>3d</fix>
</trkpt>
<trkpt lat="40.072842" lon="-105.230575">
  <ele>1586.09</ele>
  <time>2026-08-27T18:26:30Z</time>
  <course>12.03</course>
  <speed>0.01414213562373095</speed>
  <fix>3d</fix>
</trkpt>
<trkpt lat="40.072842" lon="-105.230575">
  <ele>1586.09</ele>
  <time>2026-08-27T18:26:30Z</time>
  <course>266.03</course>
  <speed>0.0</speed>
  <fix>3d</fix>
</trkpt>
<trkpt lat="40.072842" lon="-105.230575">
  <ele>1586.09</ele>
  <time>2026-08-27T18:26:30Z</time>
  <course>12.02</course>
  <speed>0.01414213562373095</speed>
  <fix>3d</fix>
</trkpt>
<trkpt lat="40.072842" lon="-105.230575">
  <ele>1586.09</ele>
  <time>2026-08-27T18:26:30Z</time>
  <course>266.03</course>
  <speed>0.0</speed>
  <fix>3d</fix>
</trkpt>
<trkpt lat="40.072842" lon="-105.230575">
  <ele>1586.09</ele>
  <time>2026-08-27T18:26:30Z</time>
  <course>12.01</course>
  <speed>0.01414213562373095</speed>
  <fix>3d</fix>
</trkpt>
<trkpt lat="40.072842" lon="-105.230575">
  <ele>1586.09</ele>
  <time>2026-08-27T18:26:30Z</time>
  <course>266.03</course>
  <speed>0.0</speed>
  <fix>3d</fix>
</trkpt>
<trkpt lat="40.072842" lon="-105.230575">
  <ele>1586.09</ele>
  <time>2026-08-27T18:26:30Z</time>
  <course>12.01</course>
  <speed>0.01414213562373095</speed>
  <fix>3d</fix>
</trkpt>
<trkpt lat="40.072842" lon="-105.230575">
  <ele>1586.09</ele>
  <time>2026-08-27T18:26:30Z</time>
  <course>266.03</course>
  <speed>0.0</speed>
  <fix>3d</fix>
</trkpt>
<trkpt lat="40.072842" lon="-105.230575">
  <ele>1586.09</ele>
  <time>2026-08-27T18:26:30Z</time>
  <course>12.0</course>
  <speed>0.01414213562373095</speed>
  <fix>3d</fix>
</trkpt>
<trkpt lat="40.072842" lon="-105.230575">
  <ele>1586.09</ele>
  <time>2026-08-27T18:26:30Z</time>
  <course>266.03</course>
  <speed>0.0</speed>
  <fix>3d</fix>
</trkpt>
<trkpt lat="40.072842" lon="-105.230575">
  <ele>1586.09</ele>
  <time>2026-08-27T18:26:30Z</time>
  <course>11.99</course>
  <speed>0.01414213562373095</speed>
  <fix>3d</fix>
</trkpt>
<trkpt lat="40.072842" lon="-105.230575">
  <ele>1586.09</ele>
  <time>2026-08-27T18:26:30Z</time>
  <course>266.03</course>
  <speed>0.0</speed>
  <fix>3d</fix>
</trkpt>
<trkpt lat="40.072842" lon="-105.230575">
  <ele>1586.09</ele>
  <time>2026-08-27T18:26:30Z</time>
  <course>11.98</course>
  <speed>0.01414213562373095</speed>
  <fix>3d</fix>
</trkpt>
<trkpt lat="40.072842" lon="-105.230575">
  <ele>1586.09</ele>
  <time>2026-08-27T18:26:30Z</time>
  <course>266.03</course>
  <speed>0.0</speed>
  <fix>3d</fix>
</trkpt>
<trkpt lat="40.072842" lon="-105.230575">
  <ele>1586.09</ele>
  <time>2026-08-27T18:26:30Z</time>
  <course>11.98</course>
  <speed>0.01414213562373095</speed>
  <fix>3d</fix>
</trkpt>
<trkpt lat="40.072842" lon="-105.230575">
  <ele>1586.09</ele>
  <time>2026-08-27T18:26:30Z</time>
  <course>266.03</course>
  <speed>0.0</speed>
  <fix>3d</fix>
</trkpt>
<trkpt lat="40.072842" lon="-105.230575">
  <ele>1586.09</ele>
  <time>2026-08-27T18:26:30Z</time>
  <course>11.97</course>
  <speed>0.022360679774997897</speed>
  <fix>3d</fix>
</trkpt>
<trkpt lat="40.072842" lon="-105.230575">
  <ele>1586.09</ele>
  <time>2026-08-27T18:26:30Z</time>
  <course>266.03</course>
  <speed>0.0</speed>
  <fix>3d</fix>
</trkpt>
<trkpt lat="40.072842" lon="-105.230575">
  <ele>1586.09</ele>
  <time>2026-08-27T18:26:30Z</time>
  <course>11.96</course>
  <speed>0.022360679774997897</speed>
  <fix>3d</fix>
</trkpt>
<trkpt lat="40.072842" lon="-105.230575">
  <ele>1586.09</ele>
  <time>2026-08-27T18:26:30Z</time>
  <course>266.03</course>
  <speed>0.0</speed>
  <fix>3d</fix>
</trkpt>
<trkpt lat="40.072842" lon="-105.230575">
  <ele>1586.09</ele>
  <time>2026-08-27T18:26:30Z</time>
  <course>11.95</course>
  <speed>0.022360679774997897</speed>
  <fix>3d</fix>
</trkpt>
<trkpt lat="40.072842" lon="-105.230575">
  <ele>1586.09</ele>
  <time>2026-08-27T18:26:30Z</time>
  <course>266.03</course>
  <speed>0.0</speed>
  <fix>3d</fix>
</trkpt>
<trkpt lat="40.072842" lon="-105.230575">
  <ele>1586.09</ele>
  <time>2026-08-27T18:26:30Z</time>
  <course>11.94</course>
  <speed>0.022360679774997897</speed>
  <fix>3d</fix>
</trkpt>
<trkpt lat="40.072842" lon="-105.230575">
  <ele>1586.09</ele>
  <time>2026-08-27T18:26:30Z</time>
  <course>266.03</course>
  <speed>0.0</speed>
  <fix>3d</fix>
</trkpt>
<trkpt lat="40.072842" lon="-105.230575">
  <ele>1586.09</ele>
  <time>2026-08-27T18:26:30Z</time>
  <course>11.93</course>
  <speed>0.022360679774997897</speed>
  <fix>3d</fix>
</trkpt>
<trkpt lat="40.072842" lon="-105.230575">
  <ele>1586.09</ele>
  <time>2026-08-27T18:26:30Z</time>
  <course>266.03</course>
  <speed>0.0</speed>
  <fix>3d</fix>
</trkpt>
<trkpt lat="40.072842" lon="-105.230575">
  <ele>1586.09</ele>
  <time>2026-08-27T18:26:30Z</time>
  <course>11.92</course>
  <speed>0.022360679774997897</speed>
  <fix>3d</fix>
</trkpt>
<trkpt lat="40.072842" lon="-105.230575">
  <ele>1586.09</ele>
  <time>2026-08-27T18:26:30Z</time>
  <course>266.03</course>
  <speed>0.0</speed>
  <fix>3d</fix>
</trkpt>
<trkpt lat="40.072842" lon="-105.230575">
  <ele>1586.09</ele>
  <time>2026-08-27T18:26:30Z</time>
  <course>11.92</course>
  <speed>0.022360679774997897</speed>
  <fix>3d</fix>
</trkpt>
<trkpt lat="40.072842" lon="-105.230575">
  <ele>1586.09</ele>
  <time>2026-08-27T18:26:30Z</time>
  <course>266.03</course>
  <speed>0.0</speed>
  <fix>3d</fix>
</trkpt>
<trkpt lat="40.072842" lon="-105.230575">
  <ele>1586.09</ele>
  <time>2026-08-27T18:26:30Z</time>
  <course>11.91</course>
  <speed>0.022360679774997897</speed>
  <fix>3d</fix>
</trkpt>
<trkpt lat="40.072842" lon="-105.230575">
  <ele>1586.09</ele>
  <time>2026-08-27T18:26:30Z</time>
  <course>266.03</course>
  <speed>0.0</speed>
  <fix>3d</fix>
</trkpt>
<trkpt lat="40.072842" lon="-105.230575">
  <ele>1586.09</ele>
  <time>2026-08-27T18:26:30Z</time>
  <course>11.9</course>
  <speed>0.022360679774997897</speed>
  <fix>3d</fix>
</trkpt>
<trkpt lat="40.072842" lon="-105.230575">
  <ele>1586.09</ele>
  <time>2026-08-27T18:26:30Z</time>
  <course>266.03</course>
  <speed>0.0</speed>
  <fix>3d</fix>
</trkpt>
<trkpt lat="40.072842" lon="-105.230575">
  <ele>1586.09</ele>
  <time>2026-08-27T18:26:30Z</time>
  <course>11.89</course>
  <speed>0.022360679774997897</speed>
  <fix>3d</fix>
</trkpt>
<trkpt lat="40.072842" lon="-105.230575">
  <ele>1586.09</ele>
  <time>2026-08-27T18:26:30Z</time>
  <course>266.03</course>
  <speed>0.0</speed>
  <fix>3d</fix>
</trkpt>
<trkpt lat="40.072842" lon="-105.230575">
  <ele>1586.09</ele>
  <time>2026-08-27T18:26:30Z</time>
  <course>11.88</course>
  <speed>0.022360679774997897</speed>
  <fix>3d</fix>
</trkpt>
<trkpt lat="40.072842" lon="-105.230575">
  <ele>1586.09</ele>
  <time>2026-08-27T18:26:30Z</time>
  <course>266.03</course>
  <speed>0.0</speed>
  <fix>3d</fix>
</trkpt>
<trkpt lat="40.072842" lon="-105.230575">
  <ele>1586.09</ele>
  <time>2026-08-27T18:26:30Z</time>
  <course>11.87</course>
  <speed>0.022360679774997897</speed>
  <fix>3d</fix>
</trkpt>
<trkpt lat="40.072842" lon="-105.230575">
  <ele>1586.09</ele>
  <time>2026-08-27T18:26:30Z</time>
  <course>266.03</course>
  <speed>0.0</speed>
  <fix>3d</fix>
</trkpt>
<trkpt lat="40.072842" lon="-105.230575">
  <ele>1586.09</ele>
  <time>2026-08-27T18:26:30Z</time>
  <course>11.87</course>
  <speed>0.022360679774997897</speed>
  <fix>3d</fix>
</trkpt>
<trkpt lat="40.072842" lon="-105.230575">
  <ele>1586.09</ele>
  <time>2026-08-27T18:26:30Z</time>
  <course>266.03</course>
  <speed>0.0</speed>
  <fix>3d</fix>
</trkpt>
<trkpt lat="40.072842" lon="-105.230575">
  <ele>1586.09</ele>
  <time>2026-08-27T18:26:30Z</time>
  <course>11.86</course>
  <speed>0.022360679774997897</speed>
  <fix>3d</fix>
</trkpt>
<trkpt lat="40.072842" lon="-105.230575">
  <ele>1586.09</ele>
  <time>2026-08-27T18:26:30Z</time>
  <course>266.03</course>
  <speed>0.0</speed>
  <fix>3d</fix>
</trkpt>
<trkpt lat="40.072842" lon="-105.230575">
  <ele>1586.09</ele>
  <time>2026-08-27T18:26:30Z</time>
  <course>11.85</course>
  <speed>0.022360679774997897</speed>
  <fix>3d</fix>
</trkpt>
<trkpt lat="40.072842" lon="-105.230575">
  <ele>1586.09</ele>
  <time>2026-08-27T18:26:30Z</time>
  <course>266.03</course>
  <speed>0.0</speed>
  <fix>3d</fix>
</trkpt>
<trkpt lat="40.072842" lon="-105.230575">
  <ele>1586.09</ele>
  <time>2026-08-27T18:26:30Z</time>
  <course>11.84</course>
  <speed>0.0282842712474619</speed>
  <fix>3d</fix>
</trkpt>
<trkpt lat="40.072842" lon="-105.230575">
  <ele>1586.09</ele>
  <time>2026-08-27T18:26:30Z</time>
  <course>266.03</course>
  <speed>0.0</speed>
  <fix>3d</fix>
</trkpt>
<trkpt lat="40.072842" lon="-105.230575">
  <ele>1586.09</ele>
  <time>2026-08-27T18:26:30Z</time>
  <course>11.83</course>
  <speed>0.0282842712474619</speed>
  <fix>3d</fix>
</trkpt>
<trkpt lat="40.072842" lon="-105.230575">
  <ele>1586.09</ele>
  <time>2026-08-27T18:26:30Z</time>
  <course>266.03</course>
  <speed>0.0</speed>
  <fix>3d</fix>
</trkpt>
<trkpt lat="40.072842" lon="-105.230575">
  <ele>1586.09</ele>
  <time>2026-08-27T18:26:30Z</time>
  <course>11.83</course>
  <speed>0.0282842712474619</speed>
  <fix>3d</fix>
</trkpt>
<trkpt lat="40.072842" lon="-105.230575">
  <ele>1586.09</ele>
  <time>2026-08-27T18:26:30Z</time>
  <course>266.03</course>
  <speed>0.0</speed>
  <fix>3d</fix>
</trkpt>
<trkpt lat="40.072842" lon="-105.230575">
  <ele>1586.09</ele>
  <time>2026-08-27T18:26:30Z</time>
  <course>11.82</course>
  <speed>0.0282842712474619</speed>
  <fix>3d</fix>
</trkpt>
<trkpt lat="40.072842" lon="-105.230575">
  <ele>1586.09</ele>
  <time>2026-08-27T18:26:30Z</time>
  <course>266.03</course>
  <speed>0.0</speed>
  <fix>3d</fix>
</trkpt>
<trkpt lat="40.072842" lon="-105.230575">
  <ele>1586.09</ele>
  <time>2026-08-27T18:26:30Z</time>
  <course>11.81</course>
  <speed>0.0282842712474619</speed>
  <fix>3d</fix>
</trkpt>
<trkpt lat="40.072842" lon="-105.230575">
  <ele>1586.09</ele>
  <time>2026-08-27T18:26:30Z</time>
  <course>266.03</course>
  <speed>0.0</speed>
  <fix>3d</fix>
</trkpt>
<trkpt lat="40.072842" lon="-105.230575">
  <ele>1586.09</ele>
  <time>2026-08-27T18:26:30Z</time>
  <course>11.8</course>
  <speed>0.0282842712474619</speed>
  <fix>3d</fix>
</trkpt>
<trkpt lat="40.072842" lon="-105.230575">
  <ele>1586.09</ele>
  <time>2026-08-27T18:26:30Z</time>
  <course>266.03</course>
  <speed>0.0</speed>
  <fix>3d</fix>
</trkpt>
<trkpt lat="40.072842" lon="-105.230575">
  <ele>1586.09</ele>
  <time>2026-08-27T18:26:30Z</time>
  <course>11.79</course>
  <speed>0.0282842712474619</speed>
  <fix>3d</fix>
</trkpt>
<trkpt lat="40.072842" lon="-105.230575">
  <ele>1586.09</ele>
  <time>2026-08-27T18:26:30Z</time>
  <course>266.03</course>
  <speed>0.0</speed>
  <fix>3d</fix>
</trkpt>
<trkpt lat="40.072842" lon="-105.230575">
  <ele>1586.09</ele>
  <time>2026-08-27T18:26:30Z</time>
  <course>11.79</course>
  <speed>0.0282842712474619</speed>
  <fix>3d</fix>
</trkpt>
<trkpt lat="40.072842" lon="-105.230575">
  <ele>1586.09</ele>
  <time>2026-08-27T18:26:30Z</time>
  <course>266.03</course>
  <speed>0.0</speed>
  <fix>3d</fix>
</trkpt>
<trkpt lat="40.072842" lon="-105.230575">
  <ele>1586.09</ele>
  <time>2026-08-27T18:26:30Z</time>
  <course>11.78</course>
  <speed>0.0282842712474619</speed>
  <fix>3d</fix>
</trkpt>
<trkpt lat="40.072842" lon="-105.230575">
  <ele>1586.09</ele>
  <time>2026-08-27T18:26:30Z</time>
  <course>266.03</course>
  <speed>0.0</speed>
  <fix>3d</fix>
</trkpt>
<trkpt lat="40.072842" lon="-105.230575">
  <ele>1586.09</ele>
  <time>2026-08-27T18:26:30Z</time>
  <course>11.77</course>
  <speed>0.0282842712474619</speed>
  <fix>3d</fix>
</trkpt>
<trkpt lat="40.072842" lon="-105.230575">
  <ele>1586.09</ele>
  <time>2026-08-27T18:26:30Z</time>
  <course>266.03</course>
  <speed>0.0</speed>
  <fix>3d</fix>
</trkpt>
<trkpt lat="40.072842" lon="-105.230575">
  <ele>1586.09</ele>
  <time>2026-08-27T18:26:30Z</time>
  <course>11.77</course>
  <speed>0.0282842712474619</speed>
  <fix>3d</fix>
</trkpt>
<trkpt lat="40.072842" lon="-105.230575">
  <ele>1586.09</ele>
  <time>2026-08-27T18:26:30Z</time>
  <course>266.03</course>
  <speed>0.0</speed>
  <fix>3d</fix>
</trkpt>
<trkpt lat="40.072842" lon="-105.230575">
  <ele>1586.09</ele>
  <time>2026-08-27T18:26:30Z</time>
  <course>11.76</course>
  <speed>0.0282842712474619</speed>
  <fix>3d</fix>
</trkpt>
<trkpt lat="40.072842" lon="-105.230575">
  <ele>1586.09</ele>
  <time>2026-08-27T18:26:30Z</time>
  <course>266.03</course>
  <speed>0.0</speed>
  <fix>3d</fix>
</trkpt>
<trkpt lat="40.072842" lon="-105.230575">
  <ele>1586.09</ele>
  <time>2026-08-27T18:26:30Z</time>
  <course>11.75</course>
  <speed>0.0282842712474619</speed>
  <fix>3d</fix>
</trkpt>
<trkpt lat="40.072842" lon="-105.230575">
  <ele>1586.09</ele>
  <time>2026-08-27T18:26:30Z</time>
  <course>266.03</course>
  <speed>0.0</speed>
  <fix>3d</fix>
</trkpt>
<trkpt lat="40.072842" lon="-105.230575">
  <ele>1586.09</ele>
  <time>2026-08-27T18:26:30Z</time>
  <course>11.74</course>
  <speed>0.03605551275463989</speed>
  <fix>3d</fix>
</trkpt>
<trkpt lat="40.072842" lon="-105.230575">
  <ele>1586.09</ele>
  <time>2026-08-27T18:26:30Z</time>
  <course>266.03</course>
  <speed>0.0</speed>
  <fix>3d</fix>
</trkpt>
<trkpt lat="40.072842" lon="-105.230575">
  <ele>1586.09</ele>
  <time>2026-08-27T18:26:30Z</time>
  <course>11.73</course>
  <speed>0.03605551275463989</speed>
  <fix>3d</fix>
</trkpt>
<trkpt lat="40.072842" lon="-105.230575">
  <ele>1586.09</ele>
  <time>2026-08-27T18:26:30Z</time>
  <course>266.03</course>
  <speed>0.0</speed>
  <fix>3d</fix>
</trkpt>
<trkpt lat="40.072842" lon="-105.230575">
  <ele>1586.09</ele>
  <time>2026-08-27T18:26:30Z</time>
  <course>11.73</course>
  <speed>0.03605551275463989</speed>
  <fix>3d</fix>
</trkpt>
<trkpt lat="40.072842" lon="-105.230575">
  <ele>1586.09</ele>
  <time>2026-08-27T18:26:30Z</time>
  <course>266.03</course>
  <speed>0.0</speed>
  <fix>3d</fix>
</trkpt>
<trkpt lat="40.072842" lon="-105.230575">
  <ele>1586.09</ele>
  <time>2026-08-27T18:26:30Z</time>
  <course>11.72</course>
  <speed>0.03605551275463989</speed>
  <fix>3d</fix>
</trkpt>
<trkpt lat="40.072842" lon="-105.230575">
  <ele>1586.09</ele>
  <time>2026-08-27T18:26:30Z</time>
  <course>266.03</course>
  <speed>0.0</speed>
  <fix>3d</fix>
</trkpt>
<trkpt lat="40.072842" lon="-105.230575">
  <ele>1586.09</ele>
  <time>2026-08-27T18:26:30Z</time>
  <course>11.71</course>
  <speed>0.03605551275463989</speed>
  <fix>3d</fix>
</trkpt>
<trkpt lat="40.072842" lon="-105.230575">
  <ele>1586.09</ele>
  <time>2026-08-27T18:26:30Z</time>
  <course>266.03</course>
  <speed>0.0</speed>
  <fix>3d</fix>
</trkpt>
<trkpt lat="40.072842" lon="-105.230575">
  <ele>1586.09</ele>
  <time>2026-08-27T18:26:30Z</time>
  <course>11.71</course>
  <speed>0.03605551275463989</speed>
  <fix>3d</fix>
</trkpt>
<trkpt lat="40.072842" lon="-105.230575">
  <ele>1586.09</ele>
  <time>2026-08-27T18:26:30Z</time>
  <course>266.03</course>
  <speed>0.0</speed>
  <fix>3d</fix>
</trkpt>
<trkpt lat="40.072842" lon="-105.230575">
  <ele>1586.09</ele>
  <time>2026-08-27T18:26:30Z</time>
  <course>11.7</course>
  <speed>0.03605551275463989</speed>
  <fix>3d</fix>
</trkpt>
<trkpt lat="40.072842" lon="-105.230575">
  <ele>1586.09</ele>
  <time>2026-08-27T18:26:30Z</time>
  <course>266.03</course>
  <speed>0.0</speed>
  <fix>3d</fix>
</trkpt>
<trkpt lat="40.072842" lon="-105.230575">
  <ele>1586.09</ele>
  <time>2026-08-27T18:26:30Z</time>
  <course>11.69</course>
  <speed>0.03605551275463989</speed>
  <fix>3d</fix>
</trkpt>
<trkpt lat="40.072842" lon="-105.230575">
  <ele>1586.09</ele>
  <time>2026-08-27T18:26:30Z</time>
  <course>266.03</course>
  <speed>0.0</speed>
  <fix>3d</fix>
</trkpt>
<trkpt lat="40.072842" lon="-105.230575">
  <ele>1586.09</ele>
  <time>2026-08-27T18:26:30Z</time>
  <course>11.68</course>
  <speed>0.03605551275463989</speed>
  <fix>3d</fix>
</trkpt>
<trkpt lat="40.072842" lon="-105.230575">
  <ele>1586.09</ele>
  <time>2026-08-27T18:26:30Z</time>
  <course>266.03</course>
  <speed>0.0</speed>
  <fix>3d</fix>
</trkpt>
<trkpt lat="40.072842" lon="-105.230575">
  <ele>1586.09</ele>
  <time>2026-08-27T18:26:30Z</time>
  <course>11.68</course>
  <speed>0.03605551275463989</speed>
  <fix>3d</fix>
</trkpt>
<trkpt lat="40.072842" lon="-105.230575">
  <ele>1586.09</ele>
  <time>2026-08-27T18:26:30Z</time>
  <course>266.03</course>
  <speed>0.0</speed>
  <fix>3d</fix>
</trkpt>
<trkpt lat="40.072842" lon="-105.230575">
  <ele>1586.09</ele>
  <time>2026-08-27T18:26:30Z</time>
  <course>11.67</course>
  <speed>0.03605551275463989</speed>
  <fix>3d</fix>
</trkpt>
<trkpt lat="40.072842" lon="-105.230575">
  <ele>1586.09</ele>
  <time>2026-08-27T18:26:30Z</time>
  <course>266.03</course>
  <speed>0.0</speed>
  <fix>3d</fix>
</trkpt>
<trkpt lat="40.072842" lon="-105.230575">
  <ele>1586.09</ele>
  <time>2026-08-27T18:26:30Z</time>
  <course>11.66</course>
  <speed>0.03605551275463989</speed>
  <fix>3d</fix>
</trkpt>
<trkpt lat="40.072842" lon="-105.230575">
  <ele>1586.09</ele>
  <time>2026-08-27T18:26:30Z</time>
  <course>266.03</course>
  <speed>0.0</speed>
  <fix>3d</fix>
</trkpt>
<trkpt lat="40.072842" lon="-105.230575">
  <ele>1586.09</ele>
  <time>2026-08-27T18:26:30Z</time>
  <course>11.65</course>
  <speed>0.03605551275463989</speed>
  <fix>3d</fix>
</trkpt>
<trkpt lat="40.072842" lon="-105.230575">
  <ele>1586.09</ele>
  <time>2026-08-27T18:26:30Z</time>
  <course>266.03</course>
  <speed>0.0</speed>
  <fix>3d</fix>
</trkpt>
<trkpt lat="40.072842" lon="-105.230575">
  <ele>1586.09</ele>
  <time>2026-08-27T18:26:30Z</time>
  <course>11.65</course>
  <speed>0.03605551275463989</speed>
  <fix>3d</fix>
</trkpt>
<trkpt lat="40.072842" lon="-105.230575">
  <ele>1586.09</ele>
  <time>2026-08-27T18:26:30Z</time>
  <course>266.03</course>
  <speed>0.0</speed>
  <fix>3d</fix>
</trkpt>
<trkpt lat="40.072842" lon="-105.230575">
  <ele>1586.09</ele>
  <time>2026-08-27T18:26:30Z</time>
  <course>11.64</course>
  <speed>0.03605551275463989</speed>
  <fix>3d</fix>
</trkpt>
<trkpt lat="40.072842" lon="-105.230575">
  <ele>1586.09</ele>
  <time>2026-08-27T18:26:30Z</time>
  <course>266.03</course>
  <speed>0.0</speed>
  <fix>3d</fix>
</trkpt>
<trkpt lat="40.072842" lon="-105.230575">
  <ele>1586.09</ele>
  <time>2026-08-27T18:26:30Z</time>
  <course>11.63</course>
  <speed>0.03605551275463989</speed>
  <fix>3d</fix>
</trkpt>
<trkpt lat="40.072842" lon="-105.230575">
  <ele>1586.09</ele>
  <time>2026-08-27T18:26:30Z</time>
  <course>266.03</course>
  <speed>0.0</speed>
  <fix>3d</fix>
</trkpt>
<trkpt lat="40.072842" lon="-105.230575">
  <ele>1586.09</ele>
  <time>2026-08-27T18:26:30Z</time>
  <course>11.63</course>
  <speed>0.03605551275463989</speed>
  <fix>3d</fix>
</trkpt>
<trkpt lat="40.072842" lon="-105.230575">
  <ele>1586.09</ele>
  <time>2026-08-27T18:26:30Z</time>
  <course>266.03</course>
  <speed>0.0</speed>
  <fix>3d</fix>
</trkpt>
<trkpt lat="40.072842" lon="-105.230575">
  <ele>1586.09</ele>
  <time>2026-08-27T18:26:30Z</time>
  <course>11.62</course>
  <speed>0.03605551275463989</speed>
  <fix>3d</fix>
</trkpt>
<trkpt lat="40.072842" lon="-105.230575">
  <ele>1586.09</ele>
  <time>2026-08-27T18:26:30Z</time>
  <course>266.03</course>
  <speed>0.0</speed>
  <fix>3d</fix>
</trkpt>
<trkpt lat="40.072842" lon="-105.230575">
  <ele>1586.09</ele>
  <time>2026-08-27T18:26:30Z</time>
  <course>11.61</course>
  <speed>0.03605551275463989</speed>
  <fix>3d</fix>
</trkpt>
<trkpt lat="40.072842" lon="-105.230575">
  <ele>1586.09</ele>
  <time>2026-08-27T18:26:30Z</time>
  <course>266.03</course>
  <speed>0.0</speed>
  <fix>3d</fix>
</trkpt>
<trkpt lat="40.072842" lon="-105.230575">
  <ele>1586.09</ele>
  <time>2026-08-27T18:26:30Z</time>
  <course>11.61</course>
  <speed>0.03605551275463989</speed>
  <fix>3d</fix>
</trkpt>
<trkpt lat="40.072842" lon="-105.230575">
  <ele>1586.09</ele>
  <time>2026-08-27T18:26:30Z</time>
  <course>266.03</course>
  <speed>0.0</speed>
  <fix>3d</fix>
</trkpt>
<trkpt lat="40.072842" lon="-105.230575">
  <ele>1586.09</ele>
  <time>2026-08-27T18:26:30Z</time>
  <course>11.6</course>
  <speed>0.03605551275463989</speed>
  <fix>3d</fix>
</trkpt>
<trkpt lat="40.072842" lon="-105.230575">
  <ele>1586.09</ele>
  <time>2026-08-27T18:26:30Z</time>
  <course>266.03</course>
  <speed>0.0</speed>
  <fix>3d</fix>
</trkpt>
<trkpt lat="40.072842" lon="-105.230575">
  <ele>1586.09</ele>
  <time>2026-08-27T18:26:30Z</time>
  <course>11.6</course>
  <speed>0.03605551275463989</speed>
  <fix>3d</fix>
</trkpt>
<trkpt lat="40.072842" lon="-105.230575">
  <ele>1586.09</ele>
  <time>2026-08-27T18:26:30Z</time>
  <course>266.03</course>
  <speed>0.0</speed>
  <fix>3d</fix>
</trkpt>
<trkpt lat="40.072842" lon="-105.230575">
  <ele>1586.09</ele>
  <time>2026-08-27T18:26:30Z</time>
  <course>11.59</course>
  <speed>0.03605551275463989</speed>
  <fix>3d</fix>
</trkpt>
<trkpt lat="40.072842" lon="-105.230575">
  <ele>1586.09</ele>
  <time>2026-08-27T18:26:30Z</time>
  <course>266.03</course>
  <speed>0.0</speed>
  <fix>3d</fix>
</trkpt>
<trkpt lat="40.072842" lon="-105.230575">
  <ele>1586.09</ele>
  <time>2026-08-27T18:26:30Z</time>
  <course>11.58</course>
  <speed>0.03605551275463989</speed>
  <fix>3d</fix>
</trkpt>
<trkpt lat="40.072842" lon="-105.230575">
  <ele>1586.09</ele>
  <time>2026-08-27T18:26:30Z</time>
  <course>266.03</course>
  <speed>0.0</speed>
  <fix>3d</fix>
</trkpt>
<trkpt lat="40.072842" lon="-105.230575">
  <ele>1586.09</ele>
  <time>2026-08-27T18:26:30Z</time>
  <course>11.58</course>
  <speed>0.03605551275463989</speed>
  <fix>3d</fix>
</trkpt>
<trkpt lat="40.072842" lon="-105.230575">
  <ele>1586.09</ele>
  <time>2026-08-27T18:26:30Z</time>
  <course>266.03</course>
  <speed>0.0</speed>
  <fix>3d</fix>
</trkpt>
<trkpt lat="40.072842" lon="-105.230575">
  <ele>1586.09</ele>
  <time>2026-08-27T18:26:30Z</time>
  <course>11.57</course>
  <speed>0.03605551275463989</speed>
  <fix>3d</fix>
</trkpt>
<trkpt lat="40.072842" lon="-105.230575">
  <ele>1586.09</ele>
  <time>2026-08-27T18:26:30Z</time>
  <course>266.03</course>
  <speed>0.0</speed>
  <fix>3d</fix>
</trkpt>
<trkpt lat="40.072842" lon="-105.230575">
  <ele>1586.09</ele>
  <time>2026-08-27T18:26:30Z</time>
  <course>11.56</course>
  <speed>0.03605551275463989</speed>
  <fix>3d</fix>
</trkpt>
<trkpt lat="40.072842" lon="-105.230575">
  <ele>1586.09</ele>
  <time>2026-08-27T18:26:30Z</time>
  <course>266.03</course>
  <speed>0.0</speed>
  <fix>3d</fix>
</trkpt>
<trkpt lat="40.072842" lon="-105.230575">
  <ele>1586.09</ele>
  <time>2026-08-27T18:26:30Z</time>
  <course>11.56</course>
  <speed>0.03605551275463989</speed>
  <fix>3d</fix>
</trkpt>
<trkpt lat="40.072842" lon="-105.230575">
  <ele>1586.09</ele>
  <time>2026-08-27T18:26:30Z</time>
  <course>266.03</course>
  <speed>0.0</speed>
  <fix>3d</fix>
</trkpt>
<trkpt lat="40.072842" lon="-105.230575">
  <ele>1586.09</ele>
  <time>2026-08-27T18:26:30Z</time>
  <course>11.55</course>
  <speed>0.03605551275463989</speed>
  <fix>3d</fix>
</trkpt>
<trkpt lat="40.072842" lon="-105.230575">
  <ele>1586.09</ele>
  <time>2026-08-27T18:26:30Z</time>
  <course>266.03</course>
  <speed>0.0</speed>
  <fix>3d</fix>
</trkpt>
<trkpt lat="40.072842" lon="-105.230575">
  <ele>1586.09</ele>
  <time>2026-08-27T18:26:30Z</time>
  <course>11.55</course>
  <speed>0.03605551275463989</speed>
  <fix>3d</fix>
</trkpt>
<trkpt lat="40.072842" lon="-105.230575">
  <ele>1586.09</ele>
  <time>2026-08-27T18:26:30Z</time>
  <course>266.03</course>
  <speed>0.0</speed>
  <fix>3d</fix>
</trkpt>
<trkpt lat="40.072842" lon="-105.230575">
  <ele>1586.09</ele>
  <time>2026-08-27T18:26:30Z</time>
  <course>11.54</course>
  <speed>0.03605551275463989</speed>
  <fix>3d</fix>
</trkpt>
<trkpt lat="40.072842" lon="-105.230575">
  <ele>1586.09</ele>
  <time>2026-08-27T18:26:30Z</time>
  <course>266.03</course>
  <speed>0.0</speed>
  <fix>3d</fix>
</trkpt>
<trkpt lat="40.072842" lon="-105.230575">
  <ele>1586.09</ele>
  <time>2026-08-27T18:26:30Z</time>
  <course>11.53</course>
  <speed>0.03605551275463989</speed>
  <fix>3d</fix>
</trkpt>
<trkpt lat="40.072842" lon="-105.230575">
  <ele>1586.09</ele>
  <time>2026-08-27T18:26:30Z</time>
  <course>266.03</course>
  <speed>0.0</speed>
  <fix>3d</fix>
</trkpt>
<trkpt lat="40.072842" lon="-105.230575">
  <ele>1586.09</ele>
  <time>2026-08-27T18:26:30Z</time>
  <course>11.53</course>
  <speed>0.03605551275463989</speed>
  <fix>3d</fix>
</trkpt>
<trkpt lat="40.072842" lon="-105.230575">
  <ele>1586.09</ele>
  <time>2026-08-27T18:26:30Z</time>
  <course>266.03</course>
  <speed>0.0</speed>
  <fix>3d</fix>
</trkpt>
<trkpt lat="40.072842" lon="-105.230575">
  <ele>1586.09</ele>
  <time>2026-08-27T18:26:30Z</time>
  <course>11.52</course>
  <speed>0.03605551275463989</speed>
  <fix>3d</fix>
</trkpt>
<trkpt lat="40.072842" lon="-105.230575">
  <ele>1586.09</ele>
  <time>2026-08-27T18:26:30Z</time>
  <course>266.03</course>
  <speed>0.0</speed>
  <fix>3d</fix>
</trkpt>
<trkpt lat="40.072842" lon="-105.230575">
  <ele>1586.09</ele>
  <time>2026-08-27T18:26:30Z</time>
  <course>11.52</course>
  <speed>0.03605551275463989</speed>
  <fix>3d</fix>
</trkpt>
<trkpt lat="40.072842" lon="-105.230575">
  <ele>1586.09</ele>
  <time>2026-08-27T18:26:30Z</time>
  <course>266.03</course>
  <speed>0.0</speed>
  <fix>3d</fix>
</trkpt>
<trkpt lat="40.072842" lon="-105.230575">
  <ele>1586.09</ele>
  <time>2026-08-27T18:26:30Z</time>
  <course>11.51</course>
  <speed>0.03605551275463989</speed>
  <fix>3d</fix>
</trkpt>
<trkpt lat="40.072842" lon="-105.230575">
  <ele>1586.09</ele>
  <time>2026-08-27T18:26:30Z</time>
  <course>266.03</course>
  <speed>0.0</speed>
  <fix>3d</fix>
</trkpt>
<trkpt lat="40.072842" lon="-105.230575">
  <ele>1586.09</ele>
  <time>2026-08-27T18:26:30Z</time>
  <course>11.51</course>
  <speed>0.044721359549995794</speed>
  <fix>3d</fix>
</trkpt>
<trkpt lat="40.072842" lon="-105.230575">
  <ele>1586.09</ele>
  <time>2026-08-27T18:26:30Z</time>
  <course>266.03</course>
  <speed>0.0</speed>
  <fix>3d</fix>
</trkpt>
<trkpt lat="40.072842" lon="-105.230575">
  <ele>1586.09</ele>
  <time>2026-08-27T18:26:30Z</time>
  <course>11.5</course>
  <speed>0.044721359549995794</speed>
  <fix>3d</fix>
</trkpt>
<trkpt lat="40.072842" lon="-105.230575">
  <ele>1586.09</ele>
  <time>2026-08-27T18:26:30Z</time>
  <course>266.03</course>
  <speed>0.0</speed>
  <fix>3d</fix>
</trkpt>
<trkpt lat="40.072842" lon="-105.230575">
  <ele>1586.09</ele>
  <time>2026-08-27T18:26:30Z</time>
  <course>11.49</course>
  <speed>0.044721359549995794</speed>
  <fix>3d</fix>
</trkpt>
<trkpt lat="40.072842" lon="-105.230575">
  <ele>1586.09</ele>
  <time>2026-08-27T18:26:30Z</time>
  <course>266.03</course>
  <speed>0.0</speed>
  <fix>3d</fix>
</trkpt>
<trkpt lat="40.072842" lon="-105.230575">
  <ele>1586.09</ele>
  <time>2026-08-27T18:26:30Z</time>
  <course>11.49</course>
  <speed>0.044721359549995794</speed>
  <fix>3d</fix>
</trkpt>
<trkpt lat="40.072842" lon="-105.230575">
  <ele>1586.09</ele>
  <time>2026-08-27T18:26:30Z</time>
  <course>266.03</course>
  <speed>0.0</speed>
  <fix>3d</fix>
</trkpt>
<trkpt lat="40.072842" lon="-105.230575">
  <ele>1586.09</ele>
  <time>2026-08-27T18:26:30Z</time>
  <course>11.48</course>
  <speed>0.044721359549995794</speed>
  <fix>3d</fix>
</trkpt>
<trkpt lat="40.072842" lon="-105.230575">
  <ele>1586.09</ele>
  <time>2026-08-27T18:26:30Z</time>
  <course>266.03</course>
  <speed>0.0</speed>
  <fix>3d</fix>
</trkpt>
<trkpt lat="40.072842" lon="-105.230575">
  <ele>1586.09</ele>
  <time>2026-08-27T18:26:30Z</time>
  <course>11.48</course>
  <speed>0.044721359549995794</speed>
  <fix>3d</fix>
</trkpt>
<trkpt lat="40.072842" lon="-105.230575">
  <ele>1586.09</ele>
  <time>2026-08-27T18:26:30Z</time>
  <course>266.03</course>
  <speed>0.0</speed>
  <fix>3d</fix>
</trkpt>
<trkpt lat="40.072842" lon="-105.230575">
  <ele>1586.09</ele>
  <time>2026-08-27T18:26:30Z</time>
  <course>11.47</course>
  <speed>0.044721359549995794</speed>
  <fix>3d</fix>
</trkpt>
<trkpt lat="40.072842" lon="-105.230575">
  <ele>1586.09</ele>
  <time>2026-08-27T18:26:30Z</time>
  <course>266.03</course>
  <speed>0.0</speed>
  <fix>3d</fix>
</trkpt>
<trkpt lat="40.072842" lon="-105.230575">
  <ele>1586.09</ele>
  <time>2026-08-27T18:26:30Z</time>
  <course>11.47</course>
  <speed>0.044721359549995794</speed>
  <fix>3d</fix>
</trkpt>
<trkpt lat="40.072842" lon="-105.230575">
  <ele>1586.09</ele>
  <time>2026-08-27T18:26:30Z</time>
  <course>266.03</course>
  <speed>0.0</speed>
  <fix>3d</fix>
</trkpt>
<trkpt lat="40.072842" lon="-105.230575">
  <ele>1586.09</ele>
  <time>2026-08-27T18:26:30Z</time>
  <course>11.46</course>
  <speed>0.044721359549995794</speed>
  <fix>3d</fix>
</trkpt>
<trkpt lat="40.072842" lon="-105.230575">
  <ele>1586.09</ele>
  <time>2026-08-27T18:26:30Z</time>
  <course>266.03</course>
  <speed>0.0</speed>
  <fix>3d</fix>
</trkpt>
<trkpt lat="40.072842" lon="-105.230575">
  <ele>1586.09</ele>
  <time>2026-08-27T18:26:30Z</time>
  <course>11.46</course>
  <speed>0.044721359549995794</speed>
  <fix>3d</fix>
</trkpt>
<trkpt lat="40.072842" lon="-105.230575">
  <ele>1586.09</ele>
  <time>2026-08-27T18:26:30Z</time>
  <course>266.03</course>
  <speed>0.0</speed>
  <fix>3d</fix>
</trkpt>
<trkpt lat="40.072842" lon="-105.230575">
  <ele>1586.16</ele>
  <time>2026-08-27T18:26:30Z</time>
  <course>11.45</course>
  <speed>0.0</speed>
  <fix>3d</fix>
</trkpt>
<trkpt lat="40.072842" lon="-105.230575">
  <ele>1586.09</ele>
  <time>2026-08-27T18:26:30Z</time>
  <course>297.19</course>
  <speed>0.0</speed>
  <fix>3d</fix>
</trkpt>
<trkpt lat="40.072842" lon="-105.230575">
  <ele>1586.16</ele>
  <time>2026-08-27T18:26:30Z</time>
  <course>11.45</course>
  <speed>0.0</speed>
  <fix>3d</fix>
</trkpt>
<trkpt lat="40.072842" lon="-105.230575">
  <ele>1586.09</ele>
  <time>2026-08-27T18:26:30Z</time>
  <course>269.87</course>
  <speed>0.0</speed>
  <fix>3d</fix>
</trkpt>
<trkpt lat="40.072842" lon="-105.230575">
  <ele>1586.16</ele>
  <time>2026-08-27T18:26:31Z</time>
  <course>11.44</course>
  <speed>0.0</speed>
  <fix>3d</fix>
</trkpt>
<trkpt lat="40.072842" lon="-105.230575">
  <ele>1586.09</ele>
  <time>2026-08-27T18:26:31Z</time>
  <course>241.23</course>
  <speed>0.0</speed>
  <fix>3d</fix>
</trkpt>
<trkpt lat="40.072842" lon="-105.230575">
  <ele>1586.16</ele>
  <time>2026-08-27T18:26:31Z</time>
  <course>11.44</course>
  <speed>0.0</speed>
  <fix>3d</fix>
</trkpt>
<trkpt lat="40.072842" lon="-105.230575">
  <ele>1586.09</ele>
  <time>2026-08-27T18:26:31Z</time>
  <course>93.08</course>
  <speed>0.0</speed>
  <fix>3d</fix>
</trkpt>
<trkpt lat="40.072842" lon="-105.230575">
  <ele>1586.17</ele>
  <time>2026-08-27T18:26:31Z</time>
  <course>11.44</course>
  <speed>0.0</speed>
  <fix>3d</fix>
</trkpt>
<trkpt lat="40.072842" lon="-105.230575">
  <ele>1586.09</ele>
  <time>2026-08-27T18:26:31Z</time>
  <course>317.31</course>
  <speed>0.0</speed>
  <fix>3d</fix>
</trkpt>
<trkpt lat="40.072842" lon="-105.230575">
  <ele>1586.17</ele>
  <time>2026-08-27T18:26:31Z</time>
  <course>11.43</course>
  <speed>0.01</speed>
  <fix>3d</fix>
</trkpt>
<trkpt lat="40.072842" lon="-105.230575">
  <ele>1586.09</ele>
  <time>2026-08-27T18:26:31Z</time>
  <course>265.24</course>
  <speed>0.0</speed>
  <fix>3d</fix>
</trkpt>
<trkpt lat="40.072842" lon="-105.230575">
  <ele>1586.17</ele>
  <time>2026-08-27T18:26:31Z</time>
  <course>11.43</course>
  <speed>0.01</speed>
  <fix>3d</fix>
</trkpt>
<trkpt lat="40.072842" lon="-105.230575">
  <ele>1586.09</ele>
  <time>2026-08-27T18:26:31Z</time>
  <course>261.76</course>
  <speed>0.0</speed>
  <fix>3d</fix>
</trkpt>
<trkpt lat="40.072842" lon="-105.230575">
  <ele>1586.17</ele>
  <time>2026-08-27T18:26:31Z</time>
  <course>11.42</course>
  <speed>0.01</speed>
  <fix>3d</fix>
</trkpt>
<trkpt lat="40.072842" lon="-105.230575">
  <ele>1586.09</ele>
  <time>2026-08-27T18:26:31Z</time>
  <course>266.78</course>
  <speed>0.0</speed>
  <fix>3d</fix>
</trkpt>
<trkpt lat="40.072842" lon="-105.230575">
  <ele>1586.17</ele>
  <time>2026-08-27T18:26:31Z</time>
  <course>11.42</course>
  <speed>0.01414213562373095</speed>
  <fix>3d</fix>
</trkpt>
<trkpt lat="40.072842" lon="-105.230575">
  <ele>1586.09</ele>
  <time>2026-08-27T18:26:31Z</time>
  <course>266.53</course>
  <speed>0.0</speed>
  <fix>3d</fix>
</trkpt>
<trkpt lat="40.072842" lon="-105.230575">
  <ele>1586.17</ele>
  <time>2026-08-27T18:26:31Z</time>
  <course>11.42</course>
  <speed>0.01414213562373095</speed>
  <fix>3d</fix>
</trkpt>
<trkpt lat="40.072842" lon="-105.230575">
  <ele>1586.09</ele>
  <time>2026-08-27T18:26:31Z</time>
  <course>265.88</course>
  <speed>0.0</speed>
  <fix>3d</fix>
</trkpt>
<trkpt lat="40.072842" lon="-105.230575">
  <ele>1586.17</ele>
  <time>2026-08-27T18:26:31Z</time>
  <course>11.41</course>
  <speed>0.01414213562373095</speed>
  <fix>3d</fix>
</trkpt>
<trkpt lat="40.072842" lon="-105.230575">
  <ele>1586.09</ele>
  <time>2026-08-27T18:26:31Z</time>
  <course>265.99</course>
  <speed>0.0</speed>
  <fix>3d</fix>
</trkpt>
<trkpt lat="40.072842" lon="-105.230575">
  <ele>1586.17</ele>
  <time>2026-08-27T18:26:31Z</time>
  <course>11.41</course>
  <speed>0.022360679774997897</speed>
  <fix>3d</fix>
</trkpt>
<trkpt lat="40.072842" lon="-105.230575">
  <ele>1586.09</ele>
  <time>2026-08-27T18:26:31Z</time>
  <course>266.06</course>
  <speed>0.0</speed>
  <fix>3d</fix>
</trkpt>
<trkpt lat="40.072842" lon="-105.230575">
  <ele>1586.17</ele>
  <time>2026-08-27T18:26:31Z</time>
  <course>11.4</course>
  <speed>0.022360679774997897</speed>
  <fix>3d</fix>
</trkpt>
<trkpt lat="40.072842" lon="-105.230575">
  <ele>1586.09</ele>
  <time>2026-08-27T18:26:31Z</time>
  <course>266.04</course>
  <speed>0.0</speed>
  <fix>3d</fix>
</trkpt>
<trkpt lat="40.072842" lon="-105.230575">
  <ele>1586.17</ele>
  <time>2026-08-27T18:26:31Z</time>
  <course>11.4</course>
  <speed>0.022360679774997897</speed>
  <fix>3d</fix>
</trkpt>
<trkpt lat="40.072842" lon="-105.230575">
  <ele>1586.09</ele>
  <time>2026-08-27T18:26:31Z</time>
  <course>266.03</course>
  <speed>0.0</speed>
  <fix>3d</fix>
</trkpt>
<trkpt lat="40.072842" lon="-105.230575">
  <ele>1586.17</ele>
  <time>2026-08-27T18:26:31Z</time>
  <course>11.4</course>
  <speed>0.022360679774997897</speed>
  <fix>3d</fix>
</trkpt>
<trkpt lat="40.072842" lon="-105.230575">
  <ele>1586.09</ele>
  <time>2026-08-27T18:26:31Z</time>
  <course>266.04</course>
  <speed>0.0</speed>
  <fix>3d</fix>
</trkpt>
<trkpt lat="40.0728419" lon="-105.230575">
  <ele>1586.17</ele>
  <time>2026-08-27T18:26:31Z</time>
  <course>11.39</course>
  <speed>0.022360679774997897</speed>
  <fix>3d</fix>
</trkpt>
<trkpt lat="40.072842" lon="-105.230575">
  <ele>1586.09</ele>
  <time>2026-08-27T18:26:31Z</time>
  <course>266.04</course>
  <speed>0.0</speed>
  <fix>3d</fix>
</trkpt>
<trkpt lat="40.0728419" lon="-105.2305749">
  <ele>1586.17</ele>
  <time>2026-08-27T18:26:31Z</time>
  <course>11.39</course>
  <speed>0.022360679774997897</speed>
  <fix>3d</fix>
</trkpt>
<trkpt lat="40.072842" lon="-105.230575">
  <ele>1586.09</ele>
  <time>2026-08-27T18:26:31Z</time>
  <course>266.03</course>
  <speed>0.0</speed>
  <fix>3d</fix>
</trkpt>
<trkpt lat="40.0728419" lon="-105.2305749">
  <ele>1586.17</ele>
  <time>2026-08-27T18:26:31Z</time>
  <course>11.38</course>
  <speed>0.022360679774997897</speed>
  <fix>3d</fix>
</trkpt>
<trkpt lat="40.072842" lon="-105.230575">
  <ele>1586.09</ele>
  <time>2026-08-27T18:26:31Z</time>
  <course>266.03</course>
  <speed>0.0</speed>
  <fix>3d</fix>
</trkpt>
<trkpt lat="40.0728419" lon="-105.2305749">
  <ele>1586.18</ele>
  <time>2026-08-27T18:26:31Z</time>
  <course>11.38</course>
  <speed>0.022360679774997897</speed>
  <fix>3d</fix>
</trkpt>
<trkpt lat="40.072842" lon="-105.230575">
  <ele>1586.09</ele>
  <time>2026-08-27T18:26:31Z</time>
  <course>266.04</course>
  <speed>0.0</speed>
  <fix>3d</fix>
</trkpt>
<trkpt lat="40.0728419" lon="-105.2305749">
  <ele>1586.18</ele>
  <time>2026-08-27T18:26:31Z</time>
  <course>11.37</course>
  <speed>0.022360679774997897</speed>
  <fix>3d</fix>
</trkpt>
<trkpt lat="40.072842" lon="-105.230575">
  <ele>1586.09</ele>
  <time>2026-08-27T18:26:31Z</time>
  <course>266.04</course>
  <speed>0.0</speed>
  <fix>3d</fix>
</trkpt>
<trkpt lat="40.0728419" lon="-105.2305749">
  <ele>1586.18</ele>
  <time>2026-08-27T18:26:31Z</time>
  <course>11.37</course>
  <speed>0.022360679774997897</speed>
  <fix>3d</fix>
</trkpt>
<trkpt lat="40.072842" lon="-105.230575">
  <ele>1586.09</ele>
  <time>2026-08-27T18:26:31Z</time>
  <course>178.09</course>
  <speed>0.0</speed>
  <fix>3d</fix>
</trkpt>
<trkpt lat="40.0728419" lon="-105.2305749">
  <ele>1586.17</ele>
  <time>2026-08-27T18:26:31Z</time>
  <course>11.37</course>
  <speed>0.022360679774997897</speed>
  <fix>3d</fix>
</trkpt>
<trkpt lat="40.072842" lon="-105.230575">
  <ele>1586.09</ele>
  <time>2026-08-27T18:26:31Z</time>
  <course>82.55</course>
  <speed>0.0</speed>
  <fix>3d</fix>
</trkpt>
<trkpt lat="40.0728419" lon="-105.2305749">
  <ele>1586.17</ele>
  <time>2026-08-27T18:26:31Z</time>
  <course>11.36</course>
  <speed>0.022360679774997897</speed>
  <fix>3d</fix>
</trkpt>
<trkpt lat="40.072842" lon="-105.230575">
  <ele>1586.09</ele>
  <time>2026-08-27T18:26:31Z</time>
  <course>70.11</course>
  <speed>0.0</speed>
  <fix>3d</fix>
</trkpt>
<trkpt lat="40.0728419" lon="-105.2305749">
  <ele>1586.17</ele>
  <time>2026-08-27T18:26:31Z</time>
  <course>11.36</course>
  <speed>0.022360679774997897</speed>
  <fix>3d</fix>
</trkpt>
<trkpt lat="40.072842" lon="-105.230575">
  <ele>1586.09</ele>
  <time>2026-08-27T18:26:31Z</time>
  <course>280.93</course>
  <speed>0.0</speed>
  <fix>3d</fix>
</trkpt>
<trkpt lat="40.0728419" lon="-105.2305749">
  <ele>1586.17</ele>
  <time>2026-08-27T18:26:31Z</time>
  <course>11.35</course>
  <speed>0.022360679774997897</speed>
  <fix>3d</fix>
</trkpt>
<trkpt lat="40.072842" lon="-105.230575">
  <ele>1586.09</ele>
  <time>2026-08-27T18:26:31Z</time>
  <course>245.32</course>
  <speed>0.0</speed>
  <fix>3d</fix>
</trkpt>
<trkpt lat="40.0728419" lon="-105.2305749">
  <ele>1586.16</ele>
  <time>2026-08-27T18:26:31Z</time>
  <course>11.35</course>
  <speed>0.01414213562373095</speed>
  <fix>3d</fix>
</trkpt>
<trkpt lat="40.072842" lon="-105.230575">
  <ele>1586.09</ele>
  <time>2026-08-27T18:26:31Z</time>
  <course>117.15</course>
  <speed>0.0</speed>
  <fix>3d</fix>
</trkpt>
<trkpt lat="40.0728419" lon="-105.2305749">
  <ele>1586.16</ele>
  <time>2026-08-27T18:26:31Z</time>
  <course>11.34</course>
  <speed>0.01414213562373095</speed>
  <fix>3d</fix>
</trkpt>
<trkpt lat="40.072842" lon="-105.230575">
  <ele>1586.09</ele>
  <time>2026-08-27T18:26:31Z</time>
  <course>279.17</course>
  <speed>0.0</speed>
  <fix>3d</fix>
</trkpt>
<trkpt lat="40.0728419" lon="-105.2305749">
  <ele>1586.16</ele>
  <time>2026-08-27T18:26:31Z</time>
  <course>11.34</course>
  <speed>0.01414213562373095</speed>
  <fix>3d</fix>
</trkpt>
<trkpt lat="40.072842" lon="-105.230575">
  <ele>1586.09</ele>
  <time>2026-08-27T18:26:31Z</time>
  <course>265.73</course>
  <speed>0.0</speed>
  <fix>3d</fix>
</trkpt>
<trkpt lat="40.0728419" lon="-105.2305749">
  <ele>1586.16</ele>
  <time>2026-08-27T18:26:31Z</time>
  <course>11.33</course>
  <speed>0.01414213562373095</speed>
  <fix>3d</fix>
</trkpt>
<trkpt lat="40.072842" lon="-105.230575">
  <ele>1586.09</ele>
  <time>2026-08-27T18:26:31Z</time>
  <course>264.62</course>
  <speed>0.0</speed>
  <fix>3d</fix>
</trkpt>
<trkpt lat="40.0728419" lon="-105.2305749">
  <ele>1586.16</ele>
  <time>2026-08-27T18:26:31Z</time>
  <course>11.33</course>
  <speed>0.01414213562373095</speed>
  <fix>3d</fix>
</trkpt>
<trkpt lat="40.072842" lon="-105.230575">
  <ele>1586.09</ele>
  <time>2026-08-27T18:26:31Z</time>
  <course>266.26</course>
  <speed>0.0</speed>
  <fix>3d</fix>
</trkpt>
<trkpt lat="40.0728419" lon="-105.2305749">
  <ele>1586.15</ele>
  <time>2026-08-27T18:26:31Z</time>
  <course>11.32</course>
  <speed>0.01414213562373095</speed>
  <fix>3d</fix>
</trkpt>
<trkpt lat="40.072842" lon="-105.230575">
  <ele>1586.09</ele>
  <time>2026-08-27T18:26:31Z</time>
  <course>266.2</course>
  <speed>0.0</speed>
  <fix>3d</fix>
</trkpt>
<trkpt lat="40.0728419" lon="-105.2305749">
  <ele>1586.15</ele>
  <time>2026-08-27T18:26:31Z</time>
  <course>11.32</course>
  <speed>0.01414213562373095</speed>
  <fix>3d</fix>
</trkpt>
<trkpt lat="40.072842" lon="-105.230575">
  <ele>1586.09</ele>
  <time>2026-08-27T18:26:31Z</time>
  <course>265.99</course>
  <speed>0.0</speed>
  <fix>3d</fix>
</trkpt>
<trkpt lat="40.0728419" lon="-105.2305749">
  <ele>1586.15</ele>
  <time>2026-08-27T18:26:31Z</time>
  <course>11.31</course>
  <speed>0.01414213562373095</speed>
  <fix>3d</fix>
</trkpt>
<trkpt lat="40.072842" lon="-105.230575">
  <ele>1586.09</ele>
  <time>2026-08-27T18:26:31Z</time>
  <course>266.02</course>
  <speed>0.0</speed>
  <fix>3d</fix>
</trkpt>
<trkpt lat="40.0728419" lon="-105.2305749">
  <ele>1586.15</ele>
  <time>2026-08-27T18:26:31Z</time>
  <course>11.31</course>
  <speed>0.01414213562373095</speed>
  <fix>3d</fix>
</trkpt>
<trkpt lat="40.072842" lon="-105.230575">
  <ele>1586.09</ele>
  <time>2026-08-27T18:26:31Z</time>
  <course>266.04</course>
  <speed>0.0</speed>
  <fix>3d</fix>
</trkpt>
<trkpt lat="40.0728419" lon="-105.2305749">
  <ele>1586.15</ele>
  <time>2026-08-27T18:26:31Z</time>
  <course>11.3</course>
  <speed>0.01414213562373095</speed>
  <fix>3d</fix>
</trkpt>
<trkpt lat="40.072842" lon="-105.230575">
  <ele>1586.09</ele>
  <time>2026-08-27T18:26:31Z</time>
  <course>266.04</course>
  <speed>0.0</speed>
  <fix>3d</fix>
</trkpt>
<trkpt lat="40.0728419" lon="-105.2305749">
  <ele>1586.16</ele>
  <time>2026-08-27T18:26:31Z</time>
  <course>11.3</course>
  <speed>0.01414213562373095</speed>
  <fix>3d</fix>
</trkpt>
<trkpt lat="40.072842" lon="-105.230575">
  <ele>1586.09</ele>
  <time>2026-08-27T18:26:31Z</time>
  <course>266.03</course>
  <speed>0.0</speed>
  <fix>3d</fix>
</trkpt>
<trkpt lat="40.0728419" lon="-105.2305749">
  <ele>1586.16</ele>
  <time>2026-08-27T18:26:31Z</time>
  <course>11.3</course>
  <speed>0.01414213562373095</speed>
  <fix>3d</fix>
</trkpt>
<trkpt lat="40.072842" lon="-105.230575">
  <ele>1586.09</ele>
  <time>2026-08-27T18:26:31Z</time>
  <course>266.03</course>
  <speed>0.0</speed>
  <fix>3d</fix>
</trkpt>
<trkpt lat="40.0728419" lon="-105.2305749">
  <ele>1586.16</ele>
  <time>2026-08-27T18:26:31Z</time>
  <course>11.29</course>
  <speed>0.01414213562373095</speed>
  <fix>3d</fix>
</trkpt>
<trkpt lat="40.072842" lon="-105.230575">
  <ele>1586.09</ele>
  <time>2026-08-27T18:26:31Z</time>
  <course>266.03</course>
  <speed>0.0</speed>
  <fix>3d</fix>
</trkpt>
<trkpt lat="40.0728419" lon="-105.2305749">
  <ele>1586.16</ele>
  <time>2026-08-27T18:26:31Z</time>
  <course>11.29</course>
  <speed>0.01414213562373095</speed>
  <fix>3d</fix>
</trkpt>
<trkpt lat="40.072842" lon="-105.230575">
  <ele>1586.09</ele>
  <time>2026-08-27T18:26:31Z</time>
  <course>266.03</course>
  <speed>0.0</speed>
  <fix>3d</fix>
</trkpt>
<trkpt lat="40.0728419" lon="-105.2305749">
  <ele>1586.16</ele>
  <time>2026-08-27T18:26:31Z</time>
  <course>11.28</course>
  <speed>0.01414213562373095</speed>
  <fix>3d</fix>
</trkpt>
<trkpt lat="40.072842" lon="-105.230575">
  <ele>1586.09</ele>
  <time>2026-08-27T18:26:31Z</time>
  <course>266.03</course>
  <speed>0.0</speed>
  <fix>3d</fix>
</trkpt>
<trkpt lat="40.0728419" lon="-105.2305749">
  <ele>1586.16</ele>
  <time>2026-08-27T18:26:31Z</time>
  <course>11.28</course>
  <speed>0.01414213562373095</speed>
  <fix>3d</fix>
</trkpt>
<trkpt lat="40.072842" lon="-105.230575">
  <ele>1586.09</ele>
  <time>2026-08-27T18:26:31Z</time>
  <course>266.03</course>
  <speed>0.0</speed>
  <fix>3d</fix>
</trkpt>
<trkpt lat="40.0728419" lon="-105.2305749">
  <ele>1586.15</ele>
  <time>2026-08-27T18:26:31Z</time>
  <course>11.27</course>
  <speed>0.01414213562373095</speed>
  <fix>3d</fix>
</trkpt>
<trkpt lat="40.072842" lon="-105.230575">
  <ele>1586.09</ele>
  <time>2026-08-27T18:26:31Z</time>
  <course>266.03</course>
  <speed>0.0</speed>
  <fix>3d</fix>
</trkpt>
<trkpt lat="40.0728419" lon="-105.2305749">
  <ele>1586.15</ele>
  <time>2026-08-27T18:26:31Z</time>
  <course>11.27</course>
  <speed>0.01414213562373095</speed>
  <fix>3d</fix>
</trkpt>
<trkpt lat="40.072842" lon="-105.230575">
  <ele>1586.09</ele>
  <time>2026-08-27T18:26:31Z</time>
  <course>266.03</course>
  <speed>0.0</speed>
  <fix>3d</fix>
</trkpt>
<trkpt lat="40.0728419" lon="-105.2305749">
  <ele>1586.15</ele>
  <time>2026-08-27T18:26:31Z</time>
  <course>11.26</course>
  <speed>0.01414213562373095</speed>
  <fix>3d</fix>
</trkpt>
<trkpt lat="40.072842" lon="-105.230575">
  <ele>1586.09</ele>
  <time>2026-08-27T18:26:31Z</time>
  <course>266.03</course>
  <speed>0.0</speed>
  <fix>3d</fix>
</trkpt>
<trkpt lat="40.0728419" lon="-105.2305749">
  <ele>1586.15</ele>
  <time>2026-08-27T18:26:31Z</time>
  <course>11.26</course>
  <speed>0.01414213562373095</speed>
  <fix>3d</fix>
</trkpt>
<trkpt lat="40.072842" lon="-105.230575">
  <ele>1586.09</ele>
  <time>2026-08-27T18:26:31Z</time>
  <course>266.03</course>
  <speed>0.0</speed>
  <fix>3d</fix>
</trkpt>
<trkpt lat="40.0728419" lon="-105.2305749">
  <ele>1586.16</ele>
  <time>2026-08-27T18:26:31Z</time>
  <course>11.25</course>
  <speed>0.01414213562373095</speed>
  <fix>3d</fix>
</trkpt>
<trkpt lat="40.072842" lon="-105.230575">
  <ele>1586.09</ele>
  <time>2026-08-27T18:26:31Z</time>
  <course>266.03</course>
  <speed>0.0</speed>
  <fix>3d</fix>
</trkpt>
<trkpt lat="40.0728419" lon="-105.2305749">
  <ele>1586.16</ele>
  <time>2026-08-27T18:26:31Z</time>
  <course>11.25</course>
  <speed>0.01414213562373095</speed>
  <fix>3d</fix>
</trkpt>
<trkpt lat="40.072842" lon="-105.230575">
  <ele>1586.09</ele>
  <time>2026-08-27T18:26:31Z</time>
  <course>266.03</course>
  <speed>0.0</speed>
  <fix>3d</fix>
</trkpt>
<trkpt lat="40.0728419" lon="-105.2305749">
  <ele>1586.17</ele>
  <time>2026-08-27T18:26:31Z</time>
  <course>11.25</course>
  <speed>0.01414213562373095</speed>
  <fix>3d</fix>
</trkpt>
<trkpt lat="40.072842" lon="-105.230575">
  <ele>1586.09</ele>
  <time>2026-08-27T18:26:31Z</time>
  <course>266.03</course>
  <speed>0.0</speed>
  <fix>3d</fix>
</trkpt>
<trkpt lat="40.0728419" lon="-105.2305749">
  <ele>1586.17</ele>
  <time>2026-08-27T18:26:31Z</time>
  <course>11.24</course>
  <speed>0.01414213562373095</speed>
  <fix>3d</fix>
</trkpt>
<trkpt lat="40.072842" lon="-105.230575">
  <ele>1586.09</ele>
  <time>2026-08-27T18:26:31Z</time>
  <course>266.03</course>
  <speed>0.0</speed>
  <fix>3d</fix>
</trkpt>
<trkpt lat="40.0728419" lon="-105.2305749">
  <ele>1586.17</ele>
  <time>2026-08-27T18:26:31Z</time>
  <course>11.24</course>
  <speed>0.01414213562373095</speed>
  <fix>3d</fix>
</trkpt>
<trkpt lat="40.072842" lon="-105.230575">
  <ele>1586.09</ele>
  <time>2026-08-27T18:26:31Z</time>
  <course>266.03</course>
  <speed>0.0</speed>
  <fix>3d</fix>
</trkpt>
<trkpt lat="40.0728419" lon="-105.2305749">
  <ele>1586.17</ele>
  <time>2026-08-27T18:26:31Z</time>
  <course>11.23</course>
  <speed>0.01414213562373095</speed>
  <fix>3d</fix>
</trkpt>
<trkpt lat="40.072842" lon="-105.230575">
  <ele>1586.09</ele>
  <time>2026-08-27T18:26:31Z</time>
  <course>266.03</course>
  <speed>0.0</speed>
  <fix>3d</fix>
</trkpt>
<trkpt lat="40.0728419" lon="-105.2305749">
  <ele>1586.17</ele>
  <time>2026-08-27T18:26:31Z</time>
  <course>11.23</course>
  <speed>0.01414213562373095</speed>
  <fix>3d</fix>
</trkpt>
<trkpt lat="40.072842" lon="-105.230575">
  <ele>1586.09</ele>
  <time>2026-08-27T18:26:31Z</time>
  <course>266.03</course>
  <speed>0.0</speed>
  <fix>3d</fix>
</trkpt>
<trkpt lat="40.0728419" lon="-105.2305749">
  <ele>1586.17</ele>
  <time>2026-08-27T18:26:31Z</time>
  <course>11.23</course>
  <speed>0.01414213562373095</speed>
  <fix>3d</fix>
</trkpt>
<trkpt lat="40.072842" lon="-105.230575">
  <ele>1586.09</ele>
  <time>2026-08-27T18:26:31Z</time>
  <course>266.03</course>
  <speed>0.0</speed>
  <fix>3d</fix>
</trkpt>
<trkpt lat="40.0728419" lon="-105.2305749">
  <ele>1586.17</ele>
  <time>2026-08-27T18:26:31Z</time>
  <course>11.22</course>
  <speed>0.01414213562373095</speed>
  <fix>3d</fix>
</trkpt>
<trkpt lat="40.072842" lon="-105.230575">
  <ele>1586.09</ele>
  <time>2026-08-27T18:26:31Z</time>
  <course>266.03</course>
  <speed>0.0</speed>
  <fix>3d</fix>
</trkpt>
<trkpt lat="40.0728419" lon="-105.2305749">
  <ele>1586.17</ele>
  <time>2026-08-27T18:26:31Z</time>
  <course>11.22</course>
  <speed>0.01414213562373095</speed>
  <fix>3d</fix>
</trkpt>
<trkpt lat="40.072842" lon="-105.230575">
  <ele>1586.09</ele>
  <time>2026-08-27T18:26:31Z</time>
  <course>266.03</course>
  <speed>0.0</speed>
  <fix>3d</fix>
</trkpt>
<trkpt lat="40.0728419" lon="-105.2305749">
  <ele>1586.17</ele>
  <time>2026-08-27T18:26:31Z</time>
  <course>11.21</course>
  <speed>0.01414213562373095</speed>
  <fix>3d</fix>
</trkpt>
<trkpt lat="40.072842" lon="-105.230575">
  <ele>1586.09</ele>
  <time>2026-08-27T18:26:31Z</time>
  <course>266.03</course>
  <speed>0.0</speed>
  <fix>3d</fix>
</trkpt>
<trkpt lat="40.0728419" lon="-105.2305749">
  <ele>1586.17</ele>
  <time>2026-08-27T18:26:31Z</time>
  <course>11.21</course>
  <speed>0.01414213562373095</speed>
  <fix>3d</fix>
</trkpt>
<trkpt lat="40.072842" lon="-105.230575">
  <ele>1586.09</ele>
  <time>2026-08-27T18:26:31Z</time>
  <course>266.03</course>
  <speed>0.0</speed>
  <fix>3d</fix>
</trkpt>
<trkpt lat="40.0728419" lon="-105.2305749">
  <ele>1586.17</ele>
  <time>2026-08-27T18:26:31Z</time>
  <course>11.21</course>
  <speed>0.01414213562373095</speed>
  <fix>3d</fix>
</trkpt>
<trkpt lat="40.072842" lon="-105.230575">
  <ele>1586.09</ele>
  <time>2026-08-27T18:26:31Z</time>
  <course>266.03</course>
  <speed>0.0</speed>
  <fix>3d</fix>
</trkpt>
<trkpt lat="40.0728419" lon="-105.2305749">
  <ele>1586.17</ele>
  <time>2026-08-27T18:26:31Z</time>
  <course>11.2</course>
  <speed>0.01414213562373095</speed>
  <fix>3d</fix>
</trkpt>
<trkpt lat="40.072842" lon="-105.230575">
  <ele>1586.09</ele>
  <time>2026-08-27T18:26:31Z</time>
  <course>266.03</course>
  <speed>0.0</speed>
  <fix>3d</fix>
</trkpt>
<trkpt lat="40.0728419" lon="-105.2305749">
  <ele>1586.16</ele>
  <time>2026-08-27T18:26:31Z</time>
  <course>11.2</course>
  <speed>0.01414213562373095</speed>
  <fix>3d</fix>
</trkpt>
<trkpt lat="40.072842" lon="-105.230575">
  <ele>1586.09</ele>
  <time>2026-08-27T18:26:31Z</time>
  <course>266.03</course>
  <speed>0.0</speed>
  <fix>3d</fix>
</trkpt>
<trkpt lat="40.0728419" lon="-105.2305749">
  <ele>1586.16</ele>
  <time>2026-08-27T18:26:31Z</time>
  <course>11.2</course>
  <speed>0.01414213562373095</speed>
  <fix>3d</fix>
</trkpt>
<trkpt lat="40.072842" lon="-105.230575">
  <ele>1586.09</ele>
  <time>2026-08-27T18:26:31Z</time>
  <course>266.03</course>
  <speed>0.0</speed>
  <fix>3d</fix>
</trkpt>
<trkpt lat="40.0728419" lon="-105.2305749">
  <ele>1586.15</ele>
  <time>2026-08-27T18:26:31Z</time>
  <course>11.19</course>
  <speed>0.01414213562373095</speed>
  <fix>3d</fix>
</trkpt>
<trkpt lat="40.072842" lon="-105.230575">
  <ele>1586.09</ele>
  <time>2026-08-27T18:26:31Z</time>
  <course>266.03</course>
  <speed>0.0</speed>
  <fix>3d</fix>
</trkpt>
<trkpt lat="40.0728419" lon="-105.2305749">
  <ele>1586.15</ele>
  <time>2026-08-27T18:26:31Z</time>
  <course>11.19</course>
  <speed>0.01414213562373095</speed>
  <fix>3d</fix>
</trkpt>
<trkpt lat="40.072842" lon="-105.230575">
  <ele>1586.09</ele>
  <time>2026-08-27T18:26:31Z</time>
  <course>266.03</course>
  <speed>0.0</speed>
  <fix>3d</fix>
</trkpt>
<trkpt lat="40.0728419" lon="-105.2305749">
  <ele>1586.16</ele>
  <time>2026-08-27T18:26:31Z</time>
  <course>11.19</course>
  <speed>0.01414213562373095</speed>
  <fix>3d</fix>
</trkpt>
<trkpt lat="40.072842" lon="-105.230575">
  <ele>1586.09</ele>
  <time>2026-08-27T18:26:31Z</time>
  <course>266.03</course>
  <speed>0.0</speed>
  <fix>3d</fix>
</trkpt>
<trkpt lat="40.0728419" lon="-105.2305749">
  <ele>1586.16</ele>
  <time>2026-08-27T18:26:31Z</time>
  <course>11.18</course>
  <speed>0.01414213562373095</speed>
  <fix>3d</fix>
</trkpt>
<trkpt lat="40.072842" lon="-105.230575">
  <ele>1586.09</ele>
  <time>2026-08-27T18:26:31Z</time>
  <course>266.03</course>
  <speed>0.0</speed>
  <fix>3d</fix>
</trkpt>
<trkpt lat="40.0728419" lon="-105.2305749">
  <ele>1586.16</ele>
  <time>2026-08-27T18:26:31Z</time>
  <course>11.18</course>
  <speed>0.01414213562373095</speed>
  <fix>3d</fix>
</trkpt>
<trkpt lat="40.072842" lon="-105.230575">
  <ele>1586.09</ele>
  <time>2026-08-27T18:26:31Z</time>
  <course>266.03</course>
  <speed>0.0</speed>
  <fix>3d</fix>
</trkpt>
<trkpt lat="40.0728419" lon="-105.2305749">
  <ele>1586.16</ele>
  <time>2026-08-27T18:26:31Z</time>
  <course>11.18</course>
  <speed>0.01414213562373095</speed>
  <fix>3d</fix>
</trkpt>
<trkpt lat="40.072842" lon="-105.230575">
  <ele>1586.09</ele>
  <time>2026-08-27T18:26:31Z</time>
  <course>266.03</course>
  <speed>0.0</speed>
  <fix>3d</fix>
</trkpt>
<trkpt lat="40.0728419" lon="-105.2305749">
  <ele>1586.16</ele>
  <time>2026-08-27T18:26:31Z</time>
  <course>11.17</course>
  <speed>0.01414213562373095</speed>
  <fix>3d</fix>
</trkpt>
<trkpt lat="40.072842" lon="-105.230575">
  <ele>1586.09</ele>
  <time>2026-08-27T18:26:31Z</time>
  <course>266.03</course>
  <speed>0.0</speed>
  <fix>3d</fix>
</trkpt>
<trkpt lat="40.0728419" lon="-105.2305749">
  <ele>1586.17</ele>
  <time>2026-08-27T18:26:31Z</time>
  <course>11.17</course>
  <speed>0.01414213562373095</speed>
  <fix>3d</fix>
</trkpt>
<trkpt lat="40.072842" lon="-105.230575">
  <ele>1586.09</ele>
  <time>2026-08-27T18:26:31Z</time>
  <course>266.03</course>
  <speed>0.0</speed>
  <fix>3d</fix>
</trkpt>
<trkpt lat="40.0728419" lon="-105.2305749">
  <ele>1586.18</ele>
  <time>2026-08-27T18:26:31Z</time>
  <course>11.16</course>
  <speed>0.01414213562373095</speed>
  <fix>3d</fix>
</trkpt>
<trkpt lat="40.072842" lon="-105.230575">
  <ele>1586.09</ele>
  <time>2026-08-27T18:26:31Z</time>
  <course>266.03</course>
  <speed>0.0</speed>
  <fix>3d</fix>
</trkpt>
<trkpt lat="40.0728419" lon="-105.2305749">
  <ele>1586.18</ele>
  <time>2026-08-27T18:26:31Z</time>
  <course>11.16</course>
  <speed>0.01414213562373095</speed>
  <fix>3d</fix>
</trkpt>
<trkpt lat="40.072842" lon="-105.230575">
  <ele>1586.09</ele>
  <time>2026-08-27T18:26:31Z</time>
  <course>266.03</course>
  <speed>0.0</speed>
  <fix>3d</fix>
</trkpt>
<trkpt lat="40.0728419" lon="-105.2305749">
  <ele>1586.18</ele>
  <time>2026-08-27T18:26:31Z</time>
  <course>11.16</course>
  <speed>0.01414213562373095</speed>
  <fix>3d</fix>
</trkpt>
<trkpt lat="40.072842" lon="-105.230575">
  <ele>1586.09</ele>
  <time>2026-08-27T18:26:31Z</time>
  <course>266.03</course>
  <speed>0.0</speed>
  <fix>3d</fix>
</trkpt>
<trkpt lat="40.0728419" lon="-105.2305749">
  <ele>1586.18</ele>
  <time>2026-08-27T18:26:31Z</time>
  <course>11.16</course>
  <speed>0.01414213562373095</speed>
  <fix>3d</fix>
</trkpt>
<trkpt lat="40.072842" lon="-105.230575">
  <ele>1586.09</ele>
  <time>2026-08-27T18:26:31Z</time>
  <course>266.03</course>
  <speed>0.0</speed>
  <fix>3d</fix>
</trkpt>
<trkpt lat="40.0728419" lon="-105.2305749">
  <ele>1586.18</ele>
  <time>2026-08-27T18:26:31Z</time>
  <course>11.15</course>
  <speed>0.01414213562373095</speed>
  <fix>3d</fix>
</trkpt>
<trkpt lat="40.072842" lon="-105.230575">
  <ele>1586.09</ele>
  <time>2026-08-27T18:26:31Z</time>
  <course>266.03</course>
  <speed>0.0</speed>
  <fix>3d</fix>
</trkpt>
<trkpt lat="40.0728419" lon="-105.2305749">
  <ele>1586.17</ele>
  <time>2026-08-27T18:26:31Z</time>
  <course>11.15</course>
  <speed>0.01414213562373095</speed>
  <fix>3d</fix>
</trkpt>
<trkpt lat="40.072842" lon="-105.230575">
  <ele>1586.09</ele>
  <time>2026-08-27T18:26:31Z</time>
  <course>266.03</course>
  <speed>0.0</speed>
  <fix>3d</fix>
</trkpt>
<trkpt lat="40.0728419" lon="-105.2305749">
  <ele>1586.17</ele>
  <time>2026-08-27T18:26:31Z</time>
  <course>11.15</course>
  <speed>0.01414213562373095</speed>
  <fix>3d</fix>
</trkpt>
<trkpt lat="40.072842" lon="-105.230575">
  <ele>1586.09</ele>
  <time>2026-08-27T18:26:31Z</time>
  <course>266.03</course>
  <speed>0.0</speed>
  <fix>3d</fix>
</trkpt>
<trkpt lat="40.0728419" lon="-105.2305749">
  <ele>1586.17</ele>
  <time>2026-08-27T18:26:31Z</time>
  <course>11.14</course>
  <speed>0.01414213562373095</speed>
  <fix>3d</fix>
</trkpt>
<trkpt lat="40.072842" lon="-105.230575">
  <ele>1586.09</ele>
  <time>2026-08-27T18:26:31Z</time>
  <course>266.03</course>
  <speed>0.0</speed>
  <fix>3d</fix>
</trkpt>
<trkpt lat="40.0728419" lon="-105.2305749">
  <ele>1586.17</ele>
  <time>2026-08-27T18:26:31Z</time>
  <course>11.14</course>
  <speed>0.01414213562373095</speed>
  <fix>3d</fix>
</trkpt>
<trkpt lat="40.072842" lon="-105.230575">
  <ele>1586.09</ele>
  <time>2026-08-27T18:26:31Z</time>
  <course>266.03</course>
  <speed>0.0</speed>
  <fix>3d</fix>
</trkpt>
<trkpt lat="40.0728419" lon="-105.2305749">
  <ele>1586.17</ele>
  <time>2026-08-27T18:26:31Z</time>
  <course>11.14</course>
  <speed>0.01414213562373095</speed>
  <fix>3d</fix>
</trkpt>
<trkpt lat="40.072842" lon="-105.230575">
  <ele>1586.09</ele>
  <time>2026-08-27T18:26:31Z</time>
  <course>266.03</course>
  <speed>0.0</speed>
  <fix>3d</fix>
</trkpt>
<trkpt lat="40.0728419" lon="-105.2305749">
  <ele>1586.17</ele>
  <time>2026-08-27T18:26:31Z</time>
  <course>11.14</course>
  <speed>0.01414213562373095</speed>
  <fix>3d</fix>
</trkpt>
<trkpt lat="40.072842" lon="-105.230575">
  <ele>1586.09</ele>
  <time>2026-08-27T18:26:31Z</time>
  <course>266.03</course>
  <speed>0.0</speed>
  <fix>3d</fix>
</trkpt>
<trkpt lat="40.0728419" lon="-105.2305749">
  <ele>1586.17</ele>
  <time>2026-08-27T18:26:31Z</time>
  <course>11.13</course>
  <speed>0.01414213562373095</speed>
  <fix>3d</fix>
</trkpt>
<trkpt lat="40.072842" lon="-105.230575">
  <ele>1586.09</ele>
  <time>2026-08-27T18:26:31Z</time>
  <course>266.03</course>
  <speed>0.0</speed>
  <fix>3d</fix>
</trkpt>
<trkpt lat="40.0728419" lon="-105.2305749">
  <ele>1586.17</ele>
  <time>2026-08-27T18:26:31Z</time>
  <course>11.13</course>
  <speed>0.01414213562373095</speed>
  <fix>3d</fix>
</trkpt>
<trkpt lat="40.072842" lon="-105.230575">
  <ele>1586.09</ele>
  <time>2026-08-27T18:26:31Z</time>
  <course>266.03</course>
  <speed>0.0</speed>
  <fix>3d</fix>
</trkpt>
<trkpt lat="40.0728419" lon="-105.2305749">
  <ele>1586.16</ele>
  <time>2026-08-27T18:26:31Z</time>
  <course>11.13</course>
  <speed>0.01414213562373095</speed>
  <fix>3d</fix>
</trkpt>
<trkpt lat="40.072842" lon="-105.230575">
  <ele>1586.09</ele>
  <time>2026-08-27T18:26:31Z</time>
  <course>266.03</course>
  <speed>0.0</speed>
  <fix>3d</fix>
</trkpt>
<trkpt lat="40.0728419" lon="-105.2305749">
  <ele>1586.16</ele>
  <time>2026-08-27T18:26:31Z</time>
  <course>11.12</course>
  <speed>0.01414213562373095</speed>
  <fix>3d</fix>
</trkpt>
<trkpt lat="40.072842" lon="-105.230575">
  <ele>1586.09</ele>
  <time>2026-08-27T18:26:31Z</time>
  <course>266.03</course>
  <speed>0.0</speed>
  <fix>3d</fix>
</trkpt>
<trkpt lat="40.0728419" lon="-105.2305749">
  <ele>1586.16</ele>
  <time>2026-08-27T18:26:31Z</time>
  <course>11.12</course>
  <speed>0.01414213562373095</speed>
  <fix>3d</fix>
</trkpt>
<trkpt lat="40.072842" lon="-105.230575">
  <ele>1586.09</ele>
  <time>2026-08-27T18:26:31Z</time>
  <course>266.03</course>
  <speed>0.0</speed>
  <fix>3d</fix>
</trkpt>
<trkpt lat="40.0728419" lon="-105.2305749">
  <ele>1586.16</ele>
  <time>2026-08-27T18:26:31Z</time>
  <course>11.12</course>
  <speed>0.01414213562373095</speed>
  <fix>3d</fix>
</trkpt>
<trkpt lat="40.072842" lon="-105.230575">
  <ele>1586.09</ele>
  <time>2026-08-27T18:26:31Z</time>
  <course>266.03</course>
  <speed>0.0</speed>
  <fix>3d</fix>
</trkpt>
<trkpt lat="40.0728419" lon="-105.2305749">
  <ele>1586.15</ele>
  <time>2026-08-27T18:26:31Z</time>
  <course>11.12</course>
  <speed>0.01414213562373095</speed>
  <fix>3d</fix>
</trkpt>
<trkpt lat="40.072842" lon="-105.230575">
  <ele>1586.09</ele>
  <time>2026-08-27T18:26:31Z</time>
  <course>266.03</course>
  <speed>0.0</speed>
  <fix>3d</fix>
</trkpt>
<trkpt lat="40.0728419" lon="-105.2305749">
  <ele>1586.16</ele>
  <time>2026-08-27T18:26:31Z</time>
  <course>11.11</course>
  <speed>0.01414213562373095</speed>
  <fix>3d</fix>
</trkpt>
<trkpt lat="40.072842" lon="-105.230575">
  <ele>1586.09</ele>
  <time>2026-08-27T18:26:31Z</time>
  <course>266.03</course>
  <speed>0.0</speed>
  <fix>3d</fix>
</trkpt>
<trkpt lat="40.0728419" lon="-105.2305749">
  <ele>1586.16</ele>
  <time>2026-08-27T18:26:31Z</time>
  <course>11.11</course>
  <speed>0.01414213562373095</speed>
  <fix>3d</fix>
</trkpt>
<trkpt lat="40.072842" lon="-105.230575">
  <ele>1586.09</ele>
  <time>2026-08-27T18:26:31Z</time>
  <course>266.03</course>
  <speed>0.0</speed>
  <fix>3d</fix>
</trkpt>
<trkpt lat="40.0728419" lon="-105.2305749">
  <ele>1586.16</ele>
  <time>2026-08-27T18:26:31Z</time>
  <course>11.11</course>
  <speed>0.01414213562373095</speed>
  <fix>3d</fix>
</trkpt>
<trkpt lat="40.072842" lon="-105.230575">
  <ele>1586.09</ele>
  <time>2026-08-27T18:26:31Z</time>
  <course>266.03</course>
  <speed>0.0</speed>
  <fix>3d</fix>
</trkpt>
<trkpt lat="40.0728419" lon="-105.2305749">
  <ele>1586.15</ele>
  <time>2026-08-27T18:26:31Z</time>
  <course>11.11</course>
  <speed>0.01414213562373095</speed>
  <fix>3d</fix>
</trkpt>
<trkpt lat="40.072842" lon="-105.230575">
  <ele>1586.09</ele>
  <time>2026-08-27T18:26:31Z</time>
  <course>266.03</course>
  <speed>0.0</speed>
  <fix>3d</fix>
</trkpt>
<trkpt lat="40.0728419" lon="-105.2305749">
  <ele>1586.15</ele>
  <time>2026-08-27T18:26:31Z</time>
  <course>11.1</course>
  <speed>0.01414213562373095</speed>
  <fix>3d</fix>
</trkpt>
<trkpt lat="40.072842" lon="-105.230575">
  <ele>1586.09</ele>
  <time>2026-08-27T18:26:31Z</time>
  <course>266.03</course>
  <speed>0.0</speed>
  <fix>3d</fix>
</trkpt>
<trkpt lat="40.0728419" lon="-105.2305749">
  <ele>1586.15</ele>
  <time>2026-08-27T18:26:31Z</time>
  <course>11.1</course>
  <speed>0.01414213562373095</speed>
  <fix>3d</fix>
</trkpt>
<trkpt lat="40.072842" lon="-105.230575">
  <ele>1586.09</ele>
  <time>2026-08-27T18:26:31Z</time>
  <course>266.03</course>
  <speed>0.0</speed>
  <fix>3d</fix>
</trkpt>
<trkpt lat="40.0728419" lon="-105.2305749">
  <ele>1586.15</ele>
  <time>2026-08-27T18:26:31Z</time>
  <course>11.1</course>
  <speed>0.01414213562373095</speed>
  <fix>3d</fix>
</trkpt>
<trkpt lat="40.072842" lon="-105.230575">
  <ele>1586.09</ele>
  <time>2026-08-27T18:26:31Z</time>
  <course>266.03</course>
  <speed>0.0</speed>
  <fix>3d</fix>
</trkpt>
<trkpt lat="40.0728419" lon="-105.2305749">
  <ele>1586.14</ele>
  <time>2026-08-27T18:26:31Z</time>
  <course>11.1</course>
  <speed>0.01414213562373095</speed>
  <fix>3d</fix>
</trkpt>
<trkpt lat="40.072842" lon="-105.230575">
  <ele>1586.09</ele>
  <time>2026-08-27T18:26:31Z</time>
  <course>266.03</course>
  <speed>0.0</speed>
  <fix>3d</fix>
</trkpt>
<trkpt lat="40.0728419" lon="-105.2305749">
  <ele>1586.14</ele>
  <time>2026-08-27T18:26:31Z</time>
  <course>11.09</course>
  <speed>0.01414213562373095</speed>
  <fix>3d</fix>
</trkpt>
<trkpt lat="40.072842" lon="-105.230575">
  <ele>1586.09</ele>
  <time>2026-08-27T18:26:31Z</time>
  <course>266.03</course>
  <speed>0.0</speed>
  <fix>3d</fix>
</trkpt>
<trkpt lat="40.0728419" lon="-105.2305749">
  <ele>1586.15</ele>
  <time>2026-08-27T18:26:31Z</time>
  <course>11.09</course>
  <speed>0.01414213562373095</speed>
  <fix>3d</fix>
</trkpt>
<trkpt lat="40.072842" lon="-105.230575">
  <ele>1586.09</ele>
  <time>2026-08-27T18:26:31Z</time>
  <course>266.03</course>
  <speed>0.0</speed>
  <fix>3d</fix>
</trkpt>
<trkpt lat="40.0728419" lon="-105.2305749">
  <ele>1586.15</ele>
  <time>2026-08-27T18:26:31Z</time>
  <course>11.09</course>
  <speed>0.01414213562373095</speed>
  <fix>3d</fix>
</trkpt>
<trkpt lat="40.072842" lon="-105.230575">
  <ele>1586.09</ele>
  <time>2026-08-27T18:26:31Z</time>
  <course>266.03</course>
  <speed>0.0</speed>
  <fix>3d</fix>
</trkpt>
<trkpt lat="40.0728419" lon="-105.2305749">
  <ele>1586.15</ele>
  <time>2026-08-27T18:26:31Z</time>
  <course>11.09</course>
  <speed>0.01414213562373095</speed>
  <fix>3d</fix>
</trkpt>
<trkpt lat="40.072842" lon="-105.230575">
  <ele>1586.09</ele>
  <time>2026-08-27T18:26:31Z</time>
  <course>266.03</course>
  <speed>0.0</speed>
  <fix>3d</fix>
</trkpt>
<trkpt lat="40.0728419" lon="-105.2305749">
  <ele>1586.16</ele>
  <time>2026-08-27T18:26:31Z</time>
  <course>11.08</course>
  <speed>0.01414213562373095</speed>
  <fix>3d</fix>
</trkpt>
<trkpt lat="40.072842" lon="-105.230575">
  <ele>1586.09</ele>
  <time>2026-08-27T18:26:31Z</time>
  <course>266.03</course>
  <speed>0.0</speed>
  <fix>3d</fix>
</trkpt>
<trkpt lat="40.0728419" lon="-105.2305749">
  <ele>1586.16</ele>
  <time>2026-08-27T18:26:31Z</time>
  <course>11.08</course>
  <speed>0.01414213562373095</speed>
  <fix>3d</fix>
</trkpt>
<trkpt lat="40.072842" lon="-105.230575">
  <ele>1586.09</ele>
  <time>2026-08-27T18:26:31Z</time>
  <course>266.03</course>
  <speed>0.0</speed>
  <fix>3d</fix>
</trkpt>
<trkpt lat="40.0728419" lon="-105.2305749">
  <ele>1586.16</ele>
  <time>2026-08-27T18:26:31Z</time>
  <course>11.08</course>
  <speed>0.01414213562373095</speed>
  <fix>3d</fix>
</trkpt>
<trkpt lat="40.072842" lon="-105.230575">
  <ele>1586.09</ele>
  <time>2026-08-27T18:26:31Z</time>
  <course>266.03</course>
  <speed>0.0</speed>
  <fix>3d</fix>
</trkpt>
<trkpt lat="40.0728419" lon="-105.2305749">
  <ele>1586.17</ele>
  <time>2026-08-27T18:26:31Z</time>
  <course>11.08</course>
  <speed>0.01414213562373095</speed>
  <fix>3d</fix>
</trkpt>
<trkpt lat="40.072842" lon="-105.230575">
  <ele>1586.09</ele>
  <time>2026-08-27T18:26:31Z</time>
  <course>266.03</course>
  <speed>0.0</speed>
  <fix>3d</fix>
</trkpt>
<trkpt lat="40.0728419" lon="-105.2305749">
  <ele>1586.18</ele>
  <time>2026-08-27T18:26:31Z</time>
  <course>11.08</course>
  <speed>0.01414213562373095</speed>
  <fix>3d</fix>
</trkpt>
<trkpt lat="40.072842" lon="-105.230575">
  <ele>1586.09</ele>
  <time>2026-08-27T18:26:31Z</time>
  <course>266.03</course>
  <speed>0.0</speed>
  <fix>3d</fix>
</trkpt>
<trkpt lat="40.0728419" lon="-105.2305749">
  <ele>1586.18</ele>
  <time>2026-08-27T18:26:31Z</time>
  <course>11.07</course>
  <speed>0.01414213562373095</speed>
  <fix>3d</fix>
</trkpt>
<trkpt lat="40.072842" lon="-105.230575">
  <ele>1586.09</ele>
  <time>2026-08-27T18:26:31Z</time>
  <course>266.03</course>
  <speed>0.0</speed>
  <fix>3d</fix>
</trkpt>
<trkpt lat="40.0728419" lon="-105.2305749">
  <ele>1586.18</ele>
  <time>2026-08-27T18:26:31Z</time>
  <course>11.07</course>
  <speed>0.01414213562373095</speed>
  <fix>3d</fix>
</trkpt>
<trkpt lat="40.072842" lon="-105.230575">
  <ele>1586.09</ele>
  <time>2026-08-27T18:26:31Z</time>
  <course>266.03</course>
  <speed>0.0</speed>
  <fix>3d</fix>
</trkpt>
<trkpt lat="40.0728419" lon="-105.2305749">
  <ele>1586.18</ele>
  <time>2026-08-27T18:26:31Z</time>
  <course>11.07</course>
  <speed>0.01414213562373095</speed>
  <fix>3d</fix>
</trkpt>
<trkpt lat="40.072842" lon="-105.230575">
  <ele>1586.09</ele>
  <time>2026-08-27T18:26:31Z</time>
  <course>266.03</course>
  <speed>0.0</speed>
  <fix>3d</fix>
</trkpt>
<trkpt lat="40.0728419" lon="-105.2305749">
  <ele>1586.18</ele>
  <time>2026-08-27T18:26:31Z</time>
  <course>11.07</course>
  <speed>0.01414213562373095</speed>
  <fix>3d</fix>
</trkpt>
<trkpt lat="40.072842" lon="-105.230575">
  <ele>1586.09</ele>
  <time>2026-08-27T18:26:31Z</time>
  <course>266.03</course>
  <speed>0.0</speed>
  <fix>3d</fix>
</trkpt>
<trkpt lat="40.0728419" lon="-105.2305749">
  <ele>1586.19</ele>
  <time>2026-08-27T18:26:31Z</time>
  <course>11.07</course>
  <speed>0.01414213562373095</speed>
  <fix>3d</fix>
</trkpt>
<trkpt lat="40.072842" lon="-105.230575">
  <ele>1586.09</ele>
  <time>2026-08-27T18:26:31Z</time>
  <course>266.03</course>
  <speed>0.0</speed>
  <fix>3d</fix>
</trkpt>
<trkpt lat="40.0728419" lon="-105.2305749">
  <ele>1586.19</ele>
  <time>2026-08-27T18:26:31Z</time>
  <course>11.06</course>
  <speed>0.01414213562373095</speed>
  <fix>3d</fix>
</trkpt>
<trkpt lat="40.072842" lon="-105.230575">
  <ele>1586.09</ele>
  <time>2026-08-27T18:26:31Z</time>
  <course>266.03</course>
  <speed>0.0</speed>
  <fix>3d</fix>
</trkpt>
<trkpt lat="40.0728419" lon="-105.2305749">
  <ele>1586.19</ele>
  <time>2026-08-27T18:26:31Z</time>
  <course>11.06</course>
  <speed>0.01414213562373095</speed>
  <fix>3d</fix>
</trkpt>
<trkpt lat="40.072842" lon="-105.230575">
  <ele>1586.09</ele>
  <time>2026-08-27T18:26:31Z</time>
  <course>266.03</course>
  <speed>0.0</speed>
  <fix>3d</fix>
</trkpt>
<trkpt lat="40.0728419" lon="-105.2305749">
  <ele>1586.18</ele>
  <time>2026-08-27T18:26:31Z</time>
  <course>11.06</course>
  <speed>0.01414213562373095</speed>
  <fix>3d</fix>
</trkpt>
<trkpt lat="40.072842" lon="-105.230575">
  <ele>1586.09</ele>
  <time>2026-08-27T18:26:31Z</time>
  <course>266.03</course>
  <speed>0.0</speed>
  <fix>3d</fix>
</trkpt>
<trkpt lat="40.0728419" lon="-105.2305749">
  <ele>1586.18</ele>
  <time>2026-08-27T18:26:31Z</time>
  <course>11.06</course>
  <speed>0.01414213562373095</speed>
  <fix>3d</fix>
</trkpt>
<trkpt lat="40.072842" lon="-105.230575">
  <ele>1586.09</ele>
  <time>2026-08-27T18:26:31Z</time>
  <course>266.03</course>
  <speed>0.0</speed>
  <fix>3d</fix>
</trkpt>
<trkpt lat="40.0728419" lon="-105.2305749">
  <ele>1586.18</ele>
  <time>2026-08-27T18:26:31Z</time>
  <course>11.06</course>
  <speed>0.01414213562373095</speed>
  <fix>3d</fix>
</trkpt>
<trkpt lat="40.072842" lon="-105.230575">
  <ele>1586.09</ele>
  <time>2026-08-27T18:26:31Z</time>
  <course>266.03</course>
  <speed>0.0</speed>
  <fix>3d</fix>
</trkpt>
<trkpt lat="40.0728419" lon="-105.2305749">
  <ele>1586.18</ele>
  <time>2026-08-27T18:26:31Z</time>
  <course>11.05</course>
  <speed>0.01414213562373095</speed>
  <fix>3d</fix>
</trkpt>
<trkpt lat="40.072842" lon="-105.230575">
  <ele>1586.09</ele>
  <time>2026-08-27T18:26:31Z</time>
  <course>266.03</course>
  <speed>0.0</speed>
  <fix>3d</fix>
</trkpt>
<trkpt lat="40.0728419" lon="-105.2305749">
  <ele>1586.18</ele>
  <time>2026-08-27T18:26:31Z</time>
  <course>11.05</course>
  <speed>0.01414213562373095</speed>
  <fix>3d</fix>
</trkpt>
<trkpt lat="40.072842" lon="-105.230575">
  <ele>1586.09</ele>
  <time>2026-08-27T18:26:31Z</time>
  <course>266.03</course>
  <speed>0.0</speed>
  <fix>3d</fix>
</trkpt>
<trkpt lat="40.0728419" lon="-105.2305749">
  <ele>1586.18</ele>
  <time>2026-08-27T18:26:31Z</time>
  <course>11.05</course>
  <speed>0.01414213562373095</speed>
  <fix>3d</fix>
</trkpt>
<trkpt lat="40.072842" lon="-105.230575">
  <ele>1586.09</ele>
  <time>2026-08-27T18:26:31Z</time>
  <course>266.03</course>
  <speed>0.0</speed>
  <fix>3d</fix>
</trkpt>
<trkpt lat="40.0728419" lon="-105.2305749">
  <ele>1586.18</ele>
  <time>2026-08-27T18:26:31Z</time>
  <course>11.05</course>
  <speed>0.01414213562373095</speed>
  <fix>3d</fix>
</trkpt>
<trkpt lat="40.072842" lon="-105.230575">
  <ele>1586.09</ele>
  <time>2026-08-27T18:26:31Z</time>
  <course>266.03</course>
  <speed>0.0</speed>
  <fix>3d</fix>
</trkpt>
<trkpt lat="40.0728419" lon="-105.2305749">
  <ele>1586.18</ele>
  <time>2026-08-27T18:26:31Z</time>
  <course>11.05</course>
  <speed>0.01414213562373095</speed>
  <fix>3d</fix>
</trkpt>
<trkpt lat="40.072842" lon="-105.230575">
  <ele>1586.09</ele>
  <time>2026-08-27T18:26:31Z</time>
  <course>266.03</course>
  <speed>0.0</speed>
  <fix>3d</fix>
</trkpt>
<trkpt lat="40.0728419" lon="-105.2305749">
  <ele>1586.18</ele>
  <time>2026-08-27T18:26:31Z</time>
  <course>11.04</course>
  <speed>0.01414213562373095</speed>
  <fix>3d</fix>
</trkpt>
<trkpt lat="40.072842" lon="-105.230575">
  <ele>1586.09</ele>
  <time>2026-08-27T18:26:31Z</time>
  <course>266.03</course>
  <speed>0.0</speed>
  <fix>3d</fix>
</trkpt>
<trkpt lat="40.0728419" lon="-105.2305749">
  <ele>1586.18</ele>
  <time>2026-08-27T18:26:31Z</time>
  <course>11.04</course>
  <speed>0.01414213562373095</speed>
  <fix>3d</fix>
</trkpt>
<trkpt lat="40.072842" lon="-105.230575">
  <ele>1586.09</ele>
  <time>2026-08-27T18:26:31Z</time>
  <course>266.03</course>
  <speed>0.0</speed>
  <fix>3d</fix>
</trkpt>
<trkpt lat="40.0728419" lon="-105.2305749">
  <ele>1586.18</ele>
  <time>2026-08-27T18:26:31Z</time>
  <course>11.04</course>
  <speed>0.01414213562373095</speed>
  <fix>3d</fix>
</trkpt>
<trkpt lat="40.072842" lon="-105.230575">
  <ele>1586.09</ele>
  <time>2026-08-27T18:26:31Z</time>
  <course>266.03</course>
  <speed>0.0</speed>
  <fix>3d</fix>
</trkpt>
<trkpt lat="40.0728419" lon="-105.2305749">
  <ele>1586.17</ele>
  <time>2026-08-27T18:26:31Z</time>
  <course>11.04</course>
  <speed>0.01414213562373095</speed>
  <fix>3d</fix>
</trkpt>
<trkpt lat="40.072842" lon="-105.230575">
  <ele>1586.09</ele>
  <time>2026-08-27T18:26:31Z</time>
  <course>266.03</course>
  <speed>0.0</speed>
  <fix>3d</fix>
</trkpt>
<trkpt lat="40.0728419" lon="-105.2305749">
  <ele>1586.16</ele>
  <time>2026-08-27T18:26:31Z</time>
  <course>11.04</course>
  <speed>0.01414213562373095</speed>
  <fix>3d</fix>
</trkpt>
<trkpt lat="40.072842" lon="-105.230575">
  <ele>1586.09</ele>
  <time>2026-08-27T18:26:31Z</time>
  <course>266.03</course>
  <speed>0.0</speed>
  <fix>3d</fix>
</trkpt>
<trkpt lat="40.0728419" lon="-105.2305749">
  <ele>1586.16</ele>
  <time>2026-08-27T18:26:31Z</time>
  <course>11.04</course>
  <speed>0.01414213562373095</speed>
  <fix>3d</fix>
</trkpt>
<trkpt lat="40.072842" lon="-105.230575">
  <ele>1586.09</ele>
  <time>2026-08-27T18:26:31Z</time>
  <course>266.03</course>
  <speed>0.0</speed>
  <fix>3d</fix>
</trkpt>
<trkpt lat="40.0728419" lon="-105.2305749">
  <ele>1586.15</ele>
  <time>2026-08-27T18:26:31Z</time>
  <course>11.03</course>
  <speed>0.01414213562373095</speed>
  <fix>3d</fix>
</trkpt>
<trkpt lat="40.072842" lon="-105.230575">
  <ele>1586.09</ele>
  <time>2026-08-27T18:26:31Z</time>
  <course>266.03</course>
  <speed>0.0</speed>
  <fix>3d</fix>
</trkpt>
<trkpt lat="40.0728419" lon="-105.2305749">
  <ele>1586.16</ele>
  <time>2026-08-27T18:26:31Z</time>
  <course>11.03</course>
  <speed>0.01414213562373095</speed>
  <fix>3d</fix>
</trkpt>
<trkpt lat="40.072842" lon="-105.230575">
  <ele>1586.09</ele>
  <time>2026-08-27T18:26:31Z</time>
  <course>266.03</course>
  <speed>0.0</speed>
  <fix>3d</fix>
</trkpt>
<trkpt lat="40.0728419" lon="-105.2305749">
  <ele>1586.16</ele>
  <time>2026-08-27T18:26:31Z</time>
  <course>11.03</course>
  <speed>0.01414213562373095</speed>
  <fix>3d</fix>
</trkpt>
<trkpt lat="40.072842" lon="-105.230575">
  <ele>1586.09</ele>
  <time>2026-08-27T18:26:31Z</time>
  <course>266.03</course>
  <speed>0.0</speed>
  <fix>3d</fix>
</trkpt>
<trkpt lat="40.0728419" lon="-105.2305749">
  <ele>1586.16</ele>
  <time>2026-08-27T18:26:31Z</time>
  <course>11.03</course>
  <speed>0.01414213562373095</speed>
  <fix>3d</fix>
</trkpt>
<trkpt lat="40.072842" lon="-105.230575">
  <ele>1586.09</ele>
  <time>2026-08-27T18:26:31Z</time>
  <course>266.03</course>
  <speed>0.0</speed>
  <fix>3d</fix>
</trkpt>
<trkpt lat="40.0728419" lon="-105.2305749">
  <ele>1586.17</ele>
  <time>2026-08-27T18:26:31Z</time>
  <course>11.03</course>
  <speed>0.01414213562373095</speed>
  <fix>3d</fix>
</trkpt>
<trkpt lat="40.072842" lon="-105.230575">
  <ele>1586.09</ele>
  <time>2026-08-27T18:26:31Z</time>
  <course>266.03</course>
  <speed>0.0</speed>
  <fix>3d</fix>
</trkpt>
<trkpt lat="40.0728419" lon="-105.2305749">
  <ele>1586.17</ele>
  <time>2026-08-27T18:26:31Z</time>
  <course>11.03</course>
  <speed>0.01414213562373095</speed>
  <fix>3d</fix>
</trkpt>
<trkpt lat="40.072842" lon="-105.230575">
  <ele>1586.09</ele>
  <time>2026-08-27T18:26:31Z</time>
  <course>266.03</course>
  <speed>0.0</speed>
  <fix>3d</fix>
</trkpt>
<trkpt lat="40.0728419" lon="-105.2305749">
  <ele>1586.17</ele>
  <time>2026-08-27T18:26:31Z</time>
  <course>11.03</course>
  <speed>0.01414213562373095</speed>
  <fix>3d</fix>
</trkpt>
<trkpt lat="40.072842" lon="-105.230575">
  <ele>1586.09</ele>
  <time>2026-08-27T18:26:31Z</time>
  <course>266.03</course>
  <speed>0.0</speed>
  <fix>3d</fix>
</trkpt>
<trkpt lat="40.0728419" lon="-105.2305749">
  <ele>1586.18</ele>
  <time>2026-08-27T18:26:31Z</time>
  <course>11.02</course>
  <speed>0.01414213562373095</speed>
  <fix>3d</fix>
</trkpt>
<trkpt lat="40.072842" lon="-105.230575">
  <ele>1586.09</ele>
  <time>2026-08-27T18:26:31Z</time>
  <course>266.03</course>
  <speed>0.0</speed>
  <fix>3d</fix>
</trkpt>
<trkpt lat="40.0728419" lon="-105.2305749">
  <ele>1586.19</ele>
  <time>2026-08-27T18:26:32Z</time>
  <course>11.02</course>
  <speed>0.01414213562373095</speed>
  <fix>3d</fix>
</trkpt>
<trkpt lat="40.072842" lon="-105.230575">
  <ele>1586.09</ele>
  <time>2026-08-27T18:26:32Z</time>
  <course>266.03</course>
  <speed>0.0</speed>
  <fix>3d</fix>
</trkpt>
<trkpt lat="40.0728419" lon="-105.2305749">
  <ele>1586.19</ele>
  <time>2026-08-27T18:26:32Z</time>
  <course>11.02</course>
  <speed>0.01414213562373095</speed>
  <fix>3d</fix>
</trkpt>
<trkpt lat="40.072842" lon="-105.230575">
  <ele>1586.09</ele>
  <time>2026-08-27T18:26:32Z</time>
  <course>266.03</course>
  <speed>0.0</speed>
  <fix>3d</fix>
</trkpt>
<trkpt lat="40.0728419" lon="-105.2305749">
  <ele>1586.2</ele>
  <time>2026-08-27T18:26:32Z</time>
  <course>11.02</course>
  <speed>0.01414213562373095</speed>
  <fix>3d</fix>
</trkpt>
<trkpt lat="40.072842" lon="-105.230575">
  <ele>1586.09</ele>
  <time>2026-08-27T18:26:32Z</time>
  <course>266.03</course>
  <speed>0.0</speed>
  <fix>3d</fix>
</trkpt>
<trkpt lat="40.0728419" lon="-105.2305749">
  <ele>1586.2</ele>
  <time>2026-08-27T18:26:32Z</time>
  <course>11.02</course>
  <speed>0.01414213562373095</speed>
  <fix>3d</fix>
</trkpt>
<trkpt lat="40.072842" lon="-105.230575">
  <ele>1586.09</ele>
  <time>2026-08-27T18:26:32Z</time>
  <course>266.03</course>
  <speed>0.0</speed>
  <fix>3d</fix>
</trkpt>
<trkpt lat="40.0728419" lon="-105.2305749">
  <ele>1586.2</ele>
  <time>2026-08-27T18:26:32Z</time>
  <course>11.02</course>
  <speed>0.01414213562373095</speed>
  <fix>3d</fix>
</trkpt>
<trkpt lat="40.072842" lon="-105.230575">
  <ele>1586.09</ele>
  <time>2026-08-27T18:26:32Z</time>
  <course>266.03</course>
  <speed>0.0</speed>
  <fix>3d</fix>
</trkpt>
<trkpt lat="40.0728419" lon="-105.2305749">
  <ele>1586.2</ele>
  <time>2026-08-27T18:26:32Z</time>
  <course>11.01</course>
  <speed>0.01414213562373095</speed>
  <fix>3d</fix>
</trkpt>
<trkpt lat="40.072842" lon="-105.230575">
  <ele>1586.09</ele>
  <time>2026-08-27T18:26:32Z</time>
  <course>266.03</course>
  <speed>0.0</speed>
  <fix>3d</fix>
</trkpt>
<trkpt lat="40.0728419" lon="-105.2305749">
  <ele>1586.21</ele>
  <time>2026-08-27T18:26:32Z</time>
  <course>11.01</course>
  <speed>0.01414213562373095</speed>
  <fix>3d</fix>
</trkpt>
<trkpt lat="40.072842" lon="-105.230575">
  <ele>1586.09</ele>
  <time>2026-08-27T18:26:32Z</time>
  <course>266.03</course>
  <speed>0.0</speed>
  <fix>3d</fix>
</trkpt>
<trkpt lat="40.0728419" lon="-105.2305749">
  <ele>1586.21</ele>
  <time>2026-08-27T18:26:32Z</time>
  <course>11.01</course>
  <speed>0.01414213562373095</speed>
  <fix>3d</fix>
</trkpt>
<trkpt lat="40.072842" lon="-105.230575">
  <ele>1586.09</ele>
  <time>2026-08-27T18:26:32Z</time>
  <course>266.03</course>
  <speed>0.0</speed>
  <fix>3d</fix>
</trkpt>
<trkpt lat="40.0728419" lon="-105.2305749">
  <ele>1586.21</ele>
  <time>2026-08-27T18:26:32Z</time>
  <course>11.01</course>
  <speed>0.01414213562373095</speed>
  <fix>3d</fix>
</trkpt>
<trkpt lat="40.072842" lon="-105.230575">
  <ele>1586.09</ele>
  <time>2026-08-27T18:26:32Z</time>
  <course>266.03</course>
  <speed>0.0</speed>
  <fix>3d</fix>
</trkpt>
<trkpt lat="40.0728419" lon="-105.2305749">
  <ele>1586.21</ele>
  <time>2026-08-27T18:26:32Z</time>
  <course>11.01</course>
  <speed>0.01414213562373095</speed>
  <fix>3d</fix>
</trkpt>
<trkpt lat="40.072842" lon="-105.230575">
  <ele>1586.09</ele>
  <time>2026-08-27T18:26:32Z</time>
  <course>266.03</course>
  <speed>0.0</speed>
  <fix>3d</fix>
</trkpt>
<trkpt lat="40.0728419" lon="-105.2305749">
  <ele>1586.21</ele>
  <time>2026-08-27T18:26:32Z</time>
  <course>11.01</course>
  <speed>0.01414213562373095</speed>
  <fix>3d</fix>
</trkpt>
<trkpt lat="40.072842" lon="-105.230575">
  <ele>1586.09</ele>
  <time>2026-08-27T18:26:32Z</time>
  <course>266.03</course>
  <speed>0.0</speed>
  <fix>3d</fix>
</trkpt>
<trkpt lat="40.0728419" lon="-105.2305749">
  <ele>1586.2</ele>
  <time>2026-08-27T18:26:32Z</time>
  <course>11.01</course>
  <speed>0.01414213562373095</speed>
  <fix>3d</fix>
</trkpt>
<trkpt lat="40.072842" lon="-105.230575">
  <ele>1586.09</ele>
  <time>2026-08-27T18:26:32Z</time>
  <course>266.03</course>
  <speed>0.0</speed>
  <fix>3d</fix>
</trkpt>
<trkpt lat="40.0728419" lon="-105.2305749">
  <ele>1586.2</ele>
  <time>2026-08-27T18:26:32Z</time>
  <course>11.0</course>
  <speed>0.01414213562373095</speed>
  <fix>3d</fix>
</trkpt>
<trkpt lat="40.072842" lon="-105.230575">
  <ele>1586.09</ele>
  <time>2026-08-27T18:26:32Z</time>
  <course>266.03</course>
  <speed>0.0</speed>
  <fix>3d</fix>
</trkpt>
<trkpt lat="40.0728419" lon="-105.2305749">
  <ele>1586.19</ele>
  <time>2026-08-27T18:26:32Z</time>
  <course>11.0</course>
  <speed>0.01414213562373095</speed>
  <fix>3d</fix>
</trkpt>
<trkpt lat="40.072842" lon="-105.230575">
  <ele>1586.09</ele>
  <time>2026-08-27T18:26:32Z</time>
  <course>266.03</course>
  <speed>0.0</speed>
  <fix>3d</fix>
</trkpt>
<trkpt lat="40.0728419" lon="-105.2305749">
  <ele>1586.19</ele>
  <time>2026-08-27T18:26:32Z</time>
  <course>11.0</course>
  <speed>0.01414213562373095</speed>
  <fix>3d</fix>
</trkpt>
<trkpt lat="40.072842" lon="-105.230575">
  <ele>1586.09</ele>
  <time>2026-08-27T18:26:32Z</time>
  <course>266.03</course>
  <speed>0.0</speed>
  <fix>3d</fix>
</trkpt>
<trkpt lat="40.0728419" lon="-105.2305749">
  <ele>1586.19</ele>
  <time>2026-08-27T18:26:32Z</time>
  <course>11.0</course>
  <speed>0.01414213562373095</speed>
  <fix>3d</fix>
</trkpt>
<trkpt lat="40.072842" lon="-105.230575">
  <ele>1586.09</ele>
  <time>2026-08-27T18:26:32Z</time>
  <course>266.03</course>
  <speed>0.0</speed>
  <fix>3d</fix>
</trkpt>
<trkpt lat="40.0728419" lon="-105.2305749">
  <ele>1586.19</ele>
  <time>2026-08-27T18:26:32Z</time>
  <course>11.0</course>
  <speed>0.01414213562373095</speed>
  <fix>3d</fix>
</trkpt>
<trkpt lat="40.072842" lon="-105.230575">
  <ele>1586.09</ele>
  <time>2026-08-27T18:26:32Z</time>
  <course>266.03</course>
  <speed>0.0</speed>
  <fix>3d</fix>
</trkpt>
<trkpt lat="40.0728419" lon="-105.2305749">
  <ele>1586.2</ele>
  <time>2026-08-27T18:26:32Z</time>
  <course>11.0</course>
  <speed>0.01414213562373095</speed>
  <fix>3d</fix>
</trkpt>
<trkpt lat="40.072842" lon="-105.230575">
  <ele>1586.09</ele>
  <time>2026-08-27T18:26:32Z</time>
  <course>266.03</course>
  <speed>0.0</speed>
  <fix>3d</fix>
</trkpt>
<trkpt lat="40.0728419" lon="-105.2305749">
  <ele>1586.2</ele>
  <time>2026-08-27T18:26:32Z</time>
  <course>11.0</course>
  <speed>0.01414213562373095</speed>
  <fix>3d</fix>
</trkpt>
<trkpt lat="40.072842" lon="-105.230575">
  <ele>1586.09</ele>
  <time>2026-08-27T18:26:32Z</time>
  <course>266.03</course>
  <speed>0.0</speed>
  <fix>3d</fix>
</trkpt>
<trkpt lat="40.0728419" lon="-105.2305749">
  <ele>1586.2</ele>
  <time>2026-08-27T18:26:32Z</time>
  <course>11.0</course>
  <speed>0.01414213562373095</speed>
  <fix>3d</fix>
</trkpt>
<trkpt lat="40.072842" lon="-105.230575">
  <ele>1586.09</ele>
  <time>2026-08-27T18:26:32Z</time>
  <course>266.03</course>
  <speed>0.0</speed>
  <fix>3d</fix>
</trkpt>
<trkpt lat="40.0728419" lon="-105.2305749">
  <ele>1586.2</ele>
  <time>2026-08-27T18:26:32Z</time>
  <course>11.0</course>
  <speed>0.01414213562373095</speed>
  <fix>3d</fix>
</trkpt>
<trkpt lat="40.072842" lon="-105.230575">
  <ele>1586.09</ele>
  <time>2026-08-27T18:26:32Z</time>
  <course>266.03</course>
  <speed>0.0</speed>
  <fix>3d</fix>
</trkpt>
<trkpt lat="40.0728419" lon="-105.2305749">
  <ele>1586.2</ele>
  <time>2026-08-27T18:26:32Z</time>
  <course>10.99</course>
  <speed>0.01414213562373095</speed>
  <fix>3d</fix>
</trkpt>
<trkpt lat="40.072842" lon="-105.230575">
  <ele>1586.09</ele>
  <time>2026-08-27T18:26:32Z</time>
  <course>266.03</course>
  <speed>0.0</speed>
  <fix>3d</fix>
</trkpt>
<trkpt lat="40.0728419" lon="-105.2305749">
  <ele>1586.2</ele>
  <time>2026-08-27T18:26:32Z</time>
  <course>10.99</course>
  <speed>0.01414213562373095</speed>
  <fix>3d</fix>
</trkpt>
<trkpt lat="40.072842" lon="-105.230575">
  <ele>1586.09</ele>
  <time>2026-08-27T18:26:32Z</time>
  <course>266.03</course>
  <speed>0.0</speed>
  <fix>3d</fix>
</trkpt>
<trkpt lat="40.0728419" lon="-105.2305749">
  <ele>1586.2</ele>
  <time>2026-08-27T18:26:32Z</time>
  <course>10.99</course>
  <speed>0.01414213562373095</speed>
  <fix>3d</fix>
</trkpt>
<trkpt lat="40.072842" lon="-105.230575">
  <ele>1586.09</ele>
  <time>2026-08-27T18:26:32Z</time>
  <course>266.03</course>
  <speed>0.0</speed>
  <fix>3d</fix>
</trkpt>
<trkpt lat="40.0728419" lon="-105.2305749">
  <ele>1586.19</ele>
  <time>2026-08-27T18:26:32Z</time>
  <course>10.99</course>
  <speed>0.01414213562373095</speed>
  <fix>3d</fix>
</trkpt>
<trkpt lat="40.072842" lon="-105.230575">
  <ele>1586.09</ele>
  <time>2026-08-27T18:26:32Z</time>
  <course>266.03</course>
  <speed>0.0</speed>
  <fix>3d</fix>
</trkpt>
<trkpt lat="40.0728419" lon="-105.2305749">
  <ele>1586.18</ele>
  <time>2026-08-27T18:26:32Z</time>
  <course>10.99</course>
  <speed>0.01414213562373095</speed>
  <fix>3d</fix>
</trkpt>
<trkpt lat="40.072842" lon="-105.230575">
  <ele>1586.09</ele>
  <time>2026-08-27T18:26:32Z</time>
  <course>266.03</course>
  <speed>0.0</speed>
  <fix>3d</fix>
</trkpt>
<trkpt lat="40.0728419" lon="-105.2305749">
  <ele>1586.18</ele>
  <time>2026-08-27T18:26:32Z</time>
  <course>10.99</course>
  <speed>0.01414213562373095</speed>
  <fix>3d</fix>
</trkpt>
<trkpt lat="40.072842" lon="-105.230575">
  <ele>1586.09</ele>
  <time>2026-08-27T18:26:32Z</time>
  <course>266.03</course>
  <speed>0.0</speed>
  <fix>3d</fix>
</trkpt>
<trkpt lat="40.0728419" lon="-105.2305749">
  <ele>1586.18</ele>
  <time>2026-08-27T18:26:32Z</time>
  <course>10.99</course>
  <speed>0.01414213562373095</speed>
  <fix>3d</fix>
</trkpt>
<trkpt lat="40.072842" lon="-105.230575">
  <ele>1586.09</ele>
  <time>2026-08-27T18:26:32Z</time>
  <course>266.03</course>
  <speed>0.0</speed>
  <fix>3d</fix>
</trkpt>
<trkpt lat="39.654938" lon="-104.1331666">
  <ele>1569.54</ele>
  <time>2026-08-27T18:26:32Z</time>
  <course>168.11</course>
  <speed>0.0</speed>
  <fix>3d</fix>
</trkpt>
<trkpt lat="40.072842" lon="-105.230575">
  <ele>1586.09</ele>
  <time>2026-08-27T18:26:32Z</time>
  <course>2.03</course>
  <speed>0.0</speed>
  <fix>3d</fix>
</trkpt>
<trkpt lat="40.072842" lon="-105.230575">
  <ele>1586.09</ele>
  <time>2026-08-27T18:26:32Z</time>
  <course>238.4</course>
  <speed>0.0</speed>
  <fix>3d</fix>
</trkpt>
<trkpt lat="40.072842" lon="-105.230575">
  <ele>1586.09</ele>
  <time>2026-08-27T18:26:32Z</time>
  <course>2.39</course>
  <speed>0.0</speed>
  <fix>3d</fix>
</trkpt>
<trkpt lat="40.072842" lon="-105.230575">
  <ele>1586.09</ele>
  <time>2026-08-27T18:26:32Z</time>
  <course>194.29</course>
  <speed>0.0</speed>
  <fix>3d</fix>
</trkpt>
<trkpt lat="40.072842" lon="-105.230575">
  <ele>1586.09</ele>
  <time>2026-08-27T18:26:32Z</time>
  <course>3.12</course>
  <speed>0.0</speed>
  <fix>3d</fix>
</trkpt>
<trkpt lat="40.072842" lon="-105.230575">
  <ele>1586.09</ele>
  <time>2026-08-27T18:26:32Z</time>
  <course>193.66</course>
  <speed>0.0</speed>
  <fix>3d</fix>
</trkpt>
<trkpt lat="40.072842" lon="-105.230575">
  <ele>1586.09</ele>
  <time>2026-08-27T18:26:32Z</time>
  <course>3.81</course>
  <speed>0.0</speed>
  <fix>3d</fix>
</trkpt>
<trkpt lat="40.072842" lon="-105.230575">
  <ele>1586.09</ele>
  <time>2026-08-27T18:26:32Z</time>
  <course>303.54</course>
  <speed>0.0</speed>
  <fix>3d</fix>
</trkpt>
<trkpt lat="40.072842" lon="-105.230575">
  <ele>1586.09</ele>
  <time>2026-08-27T18:26:32Z</time>
  <course>4.44</course>
  <speed>0.0</speed>
  <fix>3d</fix>
</trkpt>
<trkpt lat="40.072842" lon="-105.230575">
  <ele>1586.09</ele>
  <time>2026-08-27T18:26:32Z</time>
  <course>110.94</course>
  <speed>0.0</speed>
  <fix>3d</fix>
</trkpt>
<trkpt lat="40.072842" lon="-105.230575">
  <ele>1586.09</ele>
  <time>2026-08-27T18:26:32Z</time>
  <course>5.03</course>
  <speed>0.0</speed>
  <fix>3d</fix>
</trkpt>
<trkpt lat="40.072842" lon="-105.230575">
  <ele>1586.09</ele>
  <time>2026-08-27T18:26:32Z</time>
  <course>191.21</course>
  <speed>0.0</speed>
  <fix>3d</fix>
</trkpt>
<trkpt lat="40.072842" lon="-105.230575">
  <ele>1586.09</ele>
  <time>2026-08-27T18:26:32Z</time>
  <course>5.59</course>
  <speed>0.0</speed>
  <fix>3d</fix>
</trkpt>
<trkpt lat="40.072842" lon="-105.230575">
  <ele>1586.09</ele>
  <time>2026-08-27T18:26:32Z</time>
  <course>252.23</course>
  <speed>0.0</speed>
  <fix>3d</fix>
</trkpt>
<trkpt lat="40.072842" lon="-105.230575">
  <ele>1586.09</ele>
  <time>2026-08-27T18:26:32Z</time>
  <course>6.12</course>
  <speed>0.0</speed>
  <fix>3d</fix>
</trkpt>
<trkpt lat="40.072842" lon="-105.230575">
  <ele>1586.09</ele>
  <time>2026-08-27T18:26:32Z</time>
  <course>170.36</course>
  <speed>0.0</speed>
  <fix>3d</fix>
</trkpt>
<trkpt lat="40.072842" lon="-105.230575">
  <ele>1586.09</ele>
  <time>2026-08-27T18:26:32Z</time>
  <course>6.62</course>
  <speed>0.0</speed>
  <fix>3d</fix>
</trkpt>
<trkpt lat="40.072842" lon="-105.230575">
  <ele>1586.09</ele>
  <time>2026-08-27T18:26:32Z</time>
  <course>179.36</course>
  <speed>0.0</speed>
  <fix>3d</fix>
</trkpt>
<trkpt lat="40.072842" lon="-105.230575">
  <ele>1586.09</ele>
  <time>2026-08-27T18:26:32Z</time>
  <course>7.08</course>
  <speed>0.0</speed>
  <fix>3d</fix>
</trkpt>
<trkpt lat="40.072842" lon="-105.230575">
  <ele>1586.09</ele>
  <time>2026-08-27T18:26:32Z</time>
  <course>19.98</course>
  <speed>0.0</speed>
  <fix>3d</fix>
</trkpt>
<trkpt lat="40.072842" lon="-105.230575">
  <ele>1586.09</ele>
  <time>2026-08-27T18:26:32Z</time>
  <course>7.51</course>
  <speed>0.0</speed>
  <fix>3d</fix>
</trkpt>
<trkpt lat="40.072842" lon="-105.230575">
  <ele>1586.09</ele>
  <time>2026-08-27T18:26:32Z</time>
  <course>17.49</course>
  <speed>0.0</speed>
  <fix>3d</fix>
</trkpt>
<trkpt lat="40.072842" lon="-105.230575">
  <ele>1586.09</ele>
  <time>2026-08-27T18:26:32Z</time>
  <course>7.9</course>
  <speed>0.0</speed>
  <fix>3d</fix>
</trkpt>
<trkpt lat="40.072842" lon="-105.230575">
  <ele>1586.09</ele>
  <time>2026-08-27T18:26:32Z</time>
  <course>356.19</course>
  <speed>0.0</speed>
  <fix>3d</fix>
</trkpt>
<trkpt lat="40.072842" lon="-105.230575">
  <ele>1586.09</ele>
  <time>2026-08-27T18:26:32Z</time>
  <course>8.27</course>
  <speed>0.0</speed>
  <fix>3d</fix>
</trkpt>
<trkpt lat="40.072842" lon="-105.230575">
  <ele>1586.09</ele>
  <time>2026-08-27T18:26:32Z</time>
  <course>77.32</course>
  <speed>0.0</speed>
  <fix>3d</fix>
</trkpt>
<trkpt lat="40.072842" lon="-105.230575">
  <ele>1586.09</ele>
  <time>2026-08-27T18:26:32Z</time>
  <course>8.61</course>
  <speed>0.0</speed>
  <fix>3d</fix>
</trkpt>
<trkpt lat="40.072842" lon="-105.230575">
  <ele>1586.09</ele>
  <time>2026-08-27T18:26:32Z</time>
  <course>290.54</course>
  <speed>0.0</speed>
  <fix>3d</fix>
</trkpt>
<trkpt lat="40.072842" lon="-105.230575">
  <ele>1586.09</ele>
  <time>2026-08-27T18:26:32Z</time>
  <course>8.92</course>
  <speed>0.0</speed>
  <fix>3d</fix>
</trkpt>
<trkpt lat="40.072842" lon="-105.230575">
  <ele>1586.09</ele>
  <time>2026-08-27T18:26:32Z</time>
  <course>338.69</course>
  <speed>0.0</speed>
  <fix>3d</fix>
</trkpt>
<trkpt lat="40.072842" lon="-105.230575">
  <ele>1586.09</ele>
  <time>2026-08-27T18:26:32Z</time>
  <course>9.21</course>
  <speed>0.0</speed>
  <fix>3d</fix>
</trkpt>
<trkpt lat="40.072842" lon="-105.230575">
  <ele>1586.09</ele>
  <time>2026-08-27T18:26:32Z</time>
  <course>326.81</course>
  <speed>0.0</speed>
  <fix>3d</fix>
</trkpt>
<trkpt lat="40.072842" lon="-105.230575">
  <ele>1586.09</ele>
  <time>2026-08-27T18:26:32Z</time>
  <course>9.47</course>
  <speed>0.0</speed>
  <fix>3d</fix>
</trkpt>
<trkpt lat="40.072842" lon="-105.230575">
  <ele>1586.09</ele>
  <time>2026-08-27T18:26:32Z</time>
  <course>262.23</course>
  <speed>0.0</speed>
  <fix>3d</fix>
</trkpt>
<trkpt lat="40.072842" lon="-105.230575">
  <ele>1586.09</ele>
  <time>2026-08-27T18:26:32Z</time>
  <course>9.72</course>
  <speed>0.0</speed>
  <fix>3d</fix>
</trkpt>
<trkpt lat="40.072842" lon="-105.230575">
  <ele>1586.09</ele>
  <time>2026-08-27T18:26:32Z</time>
  <course>159.08</course>
  <speed>0.0</speed>
  <fix>3d</fix>
</trkpt>
<trkpt lat="40.072842" lon="-105.230575">
  <ele>1586.09</ele>
  <time>2026-08-27T18:26:32Z</time>
  <course>9.94</course>
  <speed>0.0</speed>
  <fix>3d</fix>
</trkpt>
<trkpt lat="40.072842" lon="-105.230575">
  <ele>1586.09</ele>
  <time>2026-08-27T18:26:32Z</time>
  <course>287.98</course>
  <speed>0.0</speed>
  <fix>3d</fix>
</trkpt>
<trkpt lat="40.072842" lon="-105.230575">
  <ele>1586.09</ele>
  <time>2026-08-27T18:26:32Z</time>
  <course>10.15</course>
  <speed>0.0</speed>
  <fix>3d</fix>
</trkpt>
<trkpt lat="40.072842" lon="-105.230575">
  <ele>1586.09</ele>
  <time>2026-08-27T18:26:32Z</time>
  <course>278.3</course>
  <speed>0.0</speed>
  <fix>3d</fix>
</trkpt>
<trkpt lat="40.072842" lon="-105.230575">
  <ele>1586.09</ele>
  <time>2026-08-27T18:26:32Z</time>
  <course>10.34</course>
  <speed>0.0</speed>
  <fix>3d</fix>
</trkpt>
<trkpt lat="40.072842" lon="-105.230575">
  <ele>1586.09</ele>
  <time>2026-08-27T18:26:32Z</time>
  <course>261.72</course>
  <speed>0.0</speed>
  <fix>3d</fix>
</trkpt>
<trkpt lat="40.072842" lon="-105.230575">
  <ele>1586.09</ele>
  <time>2026-08-27T18:26:32Z</time>
  <course>10.51</course>
  <speed>0.0</speed>
  <fix>3d</fix>
</trkpt>
<trkpt lat="40.072842" lon="-105.230575">
  <ele>1586.09</ele>
  <time>2026-08-27T18:26:32Z</time>
  <course>264.4</course>
  <speed>0.0</speed>
  <fix>3d</fix>
</trkpt>
<trkpt lat="40.072842" lon="-105.230575">
  <ele>1586.09</ele>
  <time>2026-08-27T18:26:32Z</time>
  <course>10.67</course>
  <speed>0.0</speed>
  <fix>3d</fix>
</trkpt>
<trkpt lat="40.072842" lon="-105.230575">
  <ele>1586.09</ele>
  <time>2026-08-27T18:26:32Z</time>
  <course>266.8</course>
  <speed>0.0</speed>
  <fix>3d</fix>
</trkpt>
<trkpt lat="40.072842" lon="-105.230575">
  <ele>1586.09</ele>
  <time>2026-08-27T18:26:32Z</time>
  <course>10.81</course>
  <speed>0.0</speed>
  <fix>3d</fix>
</trkpt>
<trkpt lat="40.072842" lon="-105.230575">
  <ele>1586.09</ele>
  <time>2026-08-27T18:26:32Z</time>
  <course>266.15</course>
  <speed>0.0</speed>
  <fix>3d</fix>
</trkpt>
<trkpt lat="40.072842" lon="-105.230575">
  <ele>1586.09</ele>
  <time>2026-08-27T18:26:32Z</time>
  <course>10.94</course>
  <speed>0.0</speed>
  <fix>3d</fix>
</trkpt>
<trkpt lat="40.072842" lon="-105.230575">
  <ele>1586.09</ele>
  <time>2026-08-27T18:26:32Z</time>
  <course>265.92</course>
  <speed>0.0</speed>
  <fix>3d</fix>
</trkpt>
<trkpt lat="40.072842" lon="-105.230575">
  <ele>1586.09</ele>
  <time>2026-08-27T18:26:32Z</time>
  <course>11.06</course>
  <speed>0.0</speed>
  <fix>3d</fix>
</trkpt>
<trkpt lat="40.072842" lon="-105.230575">
  <ele>1586.09</ele>
  <time>2026-08-27T18:26:32Z</time>
  <course>266.03</course>
  <speed>0.0</speed>
  <fix>3d</fix>
</trkpt>
<trkpt lat="40.072842" lon="-105.230575">
  <ele>1586.09</ele>
  <time>2026-08-27T18:26:32Z</time>
  <course>11.18</course>
  <speed>0.0</speed>
  <fix>3d</fix>
</trkpt>
<trkpt lat="40.072842" lon="-105.230575">
  <ele>1586.09</ele>
  <time>2026-08-27T18:26:32Z</time>
  <course>266.05</course>
  <speed>0.0</speed>
  <fix>3d</fix>
</trkpt>
<trkpt lat="40.072842" lon="-105.230575">
  <ele>1586.09</ele>
  <time>2026-08-27T18:26:32Z</time>
  <course>11.28</course>
  <speed>0.0</speed>
  <fix>3d</fix>
</trkpt>
<trkpt lat="40.072842" lon="-105.230575">
  <ele>1586.09</ele>
  <time>2026-08-27T18:26:32Z</time>
  <course>266.03</course>
  <speed>0.0</speed>
  <fix>3d</fix>
</trkpt>
<trkpt lat="40.072842" lon="-105.230575">
  <ele>1586.09</ele>
  <time>2026-08-27T18:26:32Z</time>
  <course>11.37</course>
  <speed>0.0</speed>
  <fix>3d</fix>
</trkpt>
<trkpt lat="40.072842" lon="-105.230575">
  <ele>1586.09</ele>
  <time>2026-08-27T18:26:32Z</time>
  <course>266.03</course>
  <speed>0.0</speed>
  <fix>3d</fix>
</trkpt>
<trkpt lat="40.072842" lon="-105.230575">
  <ele>1586.09</ele>
  <time>2026-08-27T18:26:32Z</time>
  <course>11.45</course>
  <speed>0.0</speed>
  <fix>3d</fix>
</trkpt>
<trkpt lat="40.072842" lon="-105.230575">
  <ele>1586.09</ele>
  <time>2026-08-27T18:26:32Z</time>
  <course>266.03</course>
  <speed>0.0</speed>
  <fix>3d</fix>
</trkpt>
<trkpt lat="40.072842" lon="-105.230575">
  <ele>1586.09</ele>
  <time>2026-08-27T18:26:32Z</time>
  <course>11.52</course>
  <speed>0.0</speed>
  <fix>3d</fix>
</trkpt>
<trkpt lat="40.072842" lon="-105.230575">
  <ele>1586.09</ele>
  <time>2026-08-27T18:26:32Z</time>
  <course>266.03</course>
  <speed>0.0</speed>
  <fix>3d</fix>
</trkpt>
<trkpt lat="40.072842" lon="-105.230575">
  <ele>1586.09</ele>
  <time>2026-08-27T18:26:32Z</time>
  <course>11.59</course>
  <speed>0.0</speed>
  <fix>3d</fix>
</trkpt>
<trkpt lat="40.072842" lon="-105.230575">
  <ele>1586.09</ele>
  <time>2026-08-27T18:26:32Z</time>
  <course>266.03</course>
  <speed>0.0</speed>
  <fix>3d</fix>
</trkpt>
<trkpt lat="40.072842" lon="-105.230575">
  <ele>1586.09</ele>
  <time>2026-08-27T18:26:33Z</time>
  <course>11.65</course>
  <speed>0.0</speed>
  <fix>3d</fix>
</trkpt>
<trkpt lat="40.072842" lon="-105.230575">
  <ele>1586.09</ele>
  <time>2026-08-27T18:26:33Z</time>
  <course>266.03</course>
  <speed>0.0</speed>
  <fix>3d</fix>
</trkpt>
<trkpt lat="40.072842" lon="-105.230575">
  <ele>1586.09</ele>
  <time>2026-08-27T18:26:33Z</time>
  <course>11.71</course>
  <speed>0.0</speed>
  <fix>3d</fix>
</trkpt>
<trkpt lat="40.072842" lon="-105.230575">
  <ele>1586.09</ele>
  <time>2026-08-27T18:26:33Z</time>
  <course>266.03</course>
  <speed>0.0</speed>
  <fix>3d</fix>
</trkpt>
<trkpt lat="40.072842" lon="-105.230575">
  <ele>1586.09</ele>
  <time>2026-08-27T18:26:33Z</time>
  <course>11.76</course>
  <speed>0.0</speed>
  <fix>3d</fix>
</trkpt>
<trkpt lat="40.072842" lon="-105.230575">
  <ele>1586.09</ele>
  <time>2026-08-27T18:26:33Z</time>
  <course>266.03</course>
  <speed>0.0</speed>
  <fix>3d</fix>
</trkpt>
<trkpt lat="40.072842" lon="-105.230575">
  <ele>1586.09</ele>
  <time>2026-08-27T18:26:33Z</time>
  <course>11.81</course>
  <speed>0.0</speed>
  <fix>3d</fix>
</trkpt>
<trkpt lat="40.072842" lon="-105.230575">
  <ele>1586.09</ele>
  <time>2026-08-27T18:26:33Z</time>
  <course>266.03</course>
  <speed>0.0</speed>
  <fix>3d</fix>
</trkpt>
<trkpt lat="40.072842" lon="-105.230575">
  <ele>1586.09</ele>
  <time>2026-08-27T18:26:33Z</time>
  <course>11.85</course>
  <speed>0.0</speed>
  <fix>3d</fix>
</trkpt>
<trkpt lat="40.072842" lon="-105.230575">
  <ele>1586.09</ele>
  <time>2026-08-27T18:26:33Z</time>
  <course>266.03</course>
  <speed>0.0</speed>
  <fix>3d</fix>
</trkpt>
<trkpt lat="40.072842" lon="-105.230575">
  <ele>1586.09</ele>
  <time>2026-08-27T18:26:33Z</time>
  <course>11.88</course>
  <speed>0.0</speed>
  <fix>3d</fix>
</trkpt>
<trkpt lat="40.072842" lon="-105.230575">
  <ele>1586.09</ele>
  <time>2026-08-27T18:26:33Z</time>
  <course>266.03</course>
  <speed>0.0</speed>
  <fix>3d</fix>
</trkpt>
<trkpt lat="40.072842" lon="-105.230575">
  <ele>1586.09</ele>
  <time>2026-08-27T18:26:33Z</time>
  <course>11.92</course>
  <speed>0.0</speed>
  <fix>3d</fix>
</trkpt>
<trkpt lat="40.072842" lon="-105.230575">
  <ele>1586.09</ele>
  <time>2026-08-27T18:26:33Z</time>
  <course>266.03</course>
  <speed>0.0</speed>
  <fix>3d</fix>
</trkpt>
<trkpt lat="40.072842" lon="-105.230575">
  <ele>1586.09</ele>
  <time>2026-08-27T18:26:33Z</time>
  <course>11.95</course>
  <speed>0.0</speed>
  <fix>3d</fix>
</trkpt>
<trkpt lat="40.072842" lon="-105.230575">
  <ele>1586.09</ele>
  <time>2026-08-27T18:26:33Z</time>
  <course>266.03</course>
  <speed>0.0</speed>
  <fix>3d</fix>
</trkpt>
<trkpt lat="40.072842" lon="-105.230575">
  <ele>1586.09</ele>
  <time>2026-08-27T18:26:33Z</time>
  <course>11.97</course>
  <speed>0.0</speed>
  <fix>3d</fix>
</trkpt>
<trkpt lat="40.072842" lon="-105.230575">
  <ele>1586.09</ele>
  <time>2026-08-27T18:26:33Z</time>
  <course>266.03</course>
  <speed>0.0</speed>
  <fix>3d</fix>
</trkpt>
<trkpt lat="40.072842" lon="-105.230575">
  <ele>1586.09</ele>
  <time>2026-08-27T18:26:33Z</time>
  <course>12.0</course>
  <speed>0.0</speed>
  <fix>3d</fix>
</trkpt>
<trkpt lat="40.072842" lon="-105.230575">
  <ele>1586.09</ele>
  <time>2026-08-27T18:26:33Z</time>
  <course>266.03</course>
  <speed>0.0</speed>
  <fix>3d</fix>
</trkpt>
<trkpt lat="40.072842" lon="-105.230575">
  <ele>1586.09</ele>
  <time>2026-08-27T18:26:33Z</time>
  <course>12.02</course>
  <speed>0.0</speed>
  <fix>3d</fix>
</trkpt>
<trkpt lat="40.072842" lon="-105.230575">
  <ele>1586.09</ele>
  <time>2026-08-27T18:26:33Z</time>
  <course>266.03</course>
  <speed>0.0</speed>
  <fix>3d</fix>
</trkpt>
<trkpt lat="40.072842" lon="-105.230575">
  <ele>1586.09</ele>
  <time>2026-08-27T18:26:33Z</time>
  <course>12.04</course>
  <speed>0.0</speed>
  <fix>3d</fix>
</trkpt>
<trkpt lat="40.072842" lon="-105.230575">
  <ele>1586.09</ele>
  <time>2026-08-27T18:26:33Z</time>
  <course>266.03</course>
  <speed>0.0</speed>
  <fix>3d</fix>
</trkpt>
<trkpt lat="40.072842" lon="-105.230575">
  <ele>1586.09</ele>
  <time>2026-08-27T18:26:33Z</time>
  <course>12.05</course>
  <speed>0.0</speed>
  <fix>3d</fix>
</trkpt>
<trkpt lat="40.072842" lon="-105.230575">
  <ele>1586.09</ele>
  <time>2026-08-27T18:26:33Z</time>
  <course>266.03</course>
  <speed>0.0</speed>
  <fix>3d</fix>
</trkpt>
<trkpt lat="40.072842" lon="-105.230575">
  <ele>1586.09</ele>
  <time>2026-08-27T18:26:33Z</time>
  <course>12.07</course>
  <speed>0.0</speed>
  <fix>3d</fix>
</trkpt>
<trkpt lat="40.072842" lon="-105.230575">
  <ele>1586.09</ele>
  <time>2026-08-27T18:26:33Z</time>
  <course>266.03</course>
  <speed>0.0</speed>
  <fix>3d</fix>
</trkpt>
<trkpt lat="40.072842" lon="-105.230575">
  <ele>1586.09</ele>
  <time>2026-08-27T18:26:33Z</time>
  <course>12.08</course>
  <speed>0.0</speed>
  <fix>3d</fix>
</trkpt>
<trkpt lat="40.072842" lon="-105.230575">
  <ele>1586.09</ele>
  <time>2026-08-27T18:26:33Z</time>
  <course>266.03</course>
  <speed>0.0</speed>
  <fix>3d</fix>
</trkpt>
<trkpt lat="40.072842" lon="-105.230575">
  <ele>1586.09</ele>
  <time>2026-08-27T18:26:33Z</time>
  <course>12.09</course>
  <speed>0.0</speed>
  <fix>3d</fix>
</trkpt>
<trkpt lat="40.072842" lon="-105.230575">
  <ele>1586.09</ele>
  <time>2026-08-27T18:26:33Z</time>
  <course>266.03</course>
  <speed>0.0</speed>
  <fix>3d</fix>
</trkpt>
<trkpt lat="40.072842" lon="-105.230575">
  <ele>1586.09</ele>
  <time>2026-08-27T18:26:33Z</time>
  <course>12.09</course>
  <speed>0.0</speed>
  <fix>3d</fix>
</trkpt>
<trkpt lat="40.072842" lon="-105.230575">
  <ele>1586.09</ele>
  <time>2026-08-27T18:26:33Z</time>
  <course>266.03</course>
  <speed>0.0</speed>
  <fix>3d</fix>
</trkpt>
<trkpt lat="40.072842" lon="-105.230575">
  <ele>1586.09</ele>
  <time>2026-08-27T18:26:33Z</time>
  <course>12.1</course>
  <speed>0.0</speed>
  <fix>3d</fix>
</trkpt>
<trkpt lat="40.072842" lon="-105.230575">
  <ele>1586.09</ele>
  <time>2026-08-27T18:26:33Z</time>
  <course>266.03</course>
  <speed>0.0</speed>
  <fix>3d</fix>
</trkpt>
<trkpt lat="40.072842" lon="-105.230575">
  <ele>1586.09</ele>
  <time>2026-08-27T18:26:33Z</time>
  <course>12.11</course>
  <speed>0.0</speed>
  <fix>3d</fix>
</trkpt>
<trkpt lat="40.072842" lon="-105.230575">
  <ele>1586.09</ele>
  <time>2026-08-27T18:26:33Z</time>
  <course>266.03</course>
  <speed>0.0</speed>
  <fix>3d</fix>
</trkpt>
<trkpt lat="40.072842" lon="-105.230575">
  <ele>1586.09</ele>
  <time>2026-08-27T18:26:33Z</time>
  <course>12.12</course>
  <speed>0.0</speed>
  <fix>3d</fix>
</trkpt>
<trkpt lat="40.072842" lon="-105.230575">
  <ele>1586.09</ele>
  <time>2026-08-27T18:26:33Z</time>
  <course>266.03</course>
  <speed>0.0</speed>
  <fix>3d</fix>
</trkpt>
<trkpt lat="40.072842" lon="-105.230575">
  <ele>1586.09</ele>
  <time>2026-08-27T18:26:33Z</time>
  <course>12.12</course>
  <speed>0.0</speed>
  <fix>3d</fix>
</trkpt>
<trkpt lat="40.072842" lon="-105.230575">
  <ele>1586.09</ele>
  <time>2026-08-27T18:26:33Z</time>
  <course>266.03</course>
  <speed>0.0</speed>
  <fix>3d</fix>
</trkpt>
<trkpt lat="40.072842" lon="-105.230575">
  <ele>1586.09</ele>
  <time>2026-08-27T18:26:33Z</time>
  <course>12.12</course>
  <speed>0.0</speed>
  <fix>3d</fix>
</trkpt>
<trkpt lat="40.072842" lon="-105.230575">
  <ele>1586.09</ele>
  <time>2026-08-27T18:26:33Z</time>
  <course>266.03</course>
  <speed>0.0</speed>
  <fix>3d</fix>
</trkpt>
<trkpt lat="40.072842" lon="-105.230575">
  <ele>1586.09</ele>
  <time>2026-08-27T18:26:33Z</time>
  <course>12.13</course>
  <speed>0.0</speed>
  <fix>3d</fix>
</trkpt>
<trkpt lat="40.072842" lon="-105.230575">
  <ele>1586.09</ele>
  <time>2026-08-27T18:26:33Z</time>
  <course>266.03</course>
  <speed>0.0</speed>
  <fix>3d</fix>
</trkpt>
<trkpt lat="40.072842" lon="-105.230575">
  <ele>1586.09</ele>
  <time>2026-08-27T18:26:33Z</time>
  <course>12.13</course>
  <speed>0.0</speed>
  <fix>3d</fix>
</trkpt>
<trkpt lat="40.072842" lon="-105.230575">
  <ele>1586.09</ele>
  <time>2026-08-27T18:26:33Z</time>
  <course>266.03</course>
  <speed>0.0</speed>
  <fix>3d</fix>
</trkpt>
<trkpt lat="40.072842" lon="-105.230575">
  <ele>1586.09</ele>
  <time>2026-08-27T18:26:33Z</time>
  <course>12.13</course>
  <speed>0.0</speed>
  <fix>3d</fix>
</trkpt>
<trkpt lat="40.072842" lon="-105.230575">
  <ele>1586.09</ele>
  <time>2026-08-27T18:26:33Z</time>
  <course>266.03</course>
  <speed>0.0</speed>
  <fix>3d</fix>
</trkpt>
<trkpt lat="40.072842" lon="-105.230575">
  <ele>1586.09</ele>
  <time>2026-08-27T18:26:33Z</time>
  <course>12.12</course>
  <speed>0.01</speed>
  <fix>3d</fix>
</trkpt>
<trkpt lat="40.072842" lon="-105.230575">
  <ele>1586.09</ele>
  <time>2026-08-27T18:26:33Z</time>
  <course>266.03</course>
  <speed>0.0</speed>
  <fix>3d</fix>
</trkpt>
<trkpt lat="40.072842" lon="-105.230575">
  <ele>1586.09</ele>
  <time>2026-08-27T18:26:33Z</time>
  <course>12.12</course>
  <speed>0.01</speed>
  <fix>3d</fix>
</trkpt>
<trkpt lat="40.072842" lon="-105.230575">
  <ele>1586.09</ele>
  <time>2026-08-27T18:26:33Z</time>
  <course>266.03</course>
  <speed>0.0</speed>
  <fix>3d</fix>
</trkpt>
<trkpt lat="40.072842" lon="-105.230575">
  <ele>1586.09</ele>
  <time>2026-08-27T18:26:33Z</time>
  <course>12.12</course>
  <speed>0.01</speed>
  <fix>3d</fix>
</trkpt>
<trkpt lat="40.072842" lon="-105.230575">
  <ele>1586.09</ele>
  <time>2026-08-27T18:26:33Z</time>
  <course>266.03</course>
  <speed>0.0</speed>
  <fix>3d</fix>
</trkpt>
<trkpt lat="40.072842" lon="-105.230575">
  <ele>1586.09</ele>
  <time>2026-08-27T18:26:33Z</time>
  <course>12.12</course>
  <speed>0.01</speed>
  <fix>3d</fix>
</trkpt>
<trkpt lat="40.072842" lon="-105.230575">
  <ele>1586.09</ele>
  <time>2026-08-27T18:26:33Z</time>
  <course>266.03</course>
  <speed>0.0</speed>
  <fix>3d</fix>
</trkpt>
<trkpt lat="40.072842" lon="-105.230575">
  <ele>1586.09</ele>
  <time>2026-08-27T18:26:33Z</time>
  <course>12.11</course>
  <speed>0.01</speed>
  <fix>3d</fix>
</trkpt>
<trkpt lat="40.072842" lon="-105.230575">
  <ele>1586.09</ele>
  <time>2026-08-27T18:26:33Z</time>
  <course>266.03</course>
  <speed>0.0</speed>
  <fix>3d</fix>
</trkpt>
<trkpt lat="40.072842" lon="-105.230575">
  <ele>1586.09</ele>
  <time>2026-08-27T18:26:33Z</time>
  <course>12.11</course>
  <speed>0.01</speed>
  <fix>3d</fix>
</trkpt>
<trkpt lat="40.072842" lon="-105.230575">
  <ele>1586.09</ele>
  <time>2026-08-27T18:26:33Z</time>
  <course>266.03</course>
  <speed>0.0</speed>
  <fix>3d</fix>
</trkpt>
<trkpt lat="40.072842" lon="-105.230575">
  <ele>1586.09</ele>
  <time>2026-08-27T18:26:33Z</time>
  <course>12.1</course>
  <speed>0.01</speed>
  <fix>3d</fix>
</trkpt>
<trkpt lat="40.072842" lon="-105.230575">
  <ele>1586.09</ele>
  <time>2026-08-27T18:26:33Z</time>
  <course>266.03</course>
  <speed>0.0</speed>
  <fix>3d</fix>
</trkpt>
<trkpt lat="40.072842" lon="-105.230575">
  <ele>1586.09</ele>
  <time>2026-08-27T18:26:33Z</time>
  <course>12.1</course>
  <speed>0.01</speed>
  <fix>3d</fix>
</trkpt>
<trkpt lat="40.072842" lon="-105.230575">
  <ele>1586.09</ele>
  <time>2026-08-27T18:26:33Z</time>
  <course>266.03</course>
  <speed>0.0</speed>
  <fix>3d</fix>
</trkpt>
<trkpt lat="40.072842" lon="-105.230575">
  <ele>1586.09</ele>
  <time>2026-08-27T18:26:33Z</time>
  <course>12.09</course>
  <speed>0.01</speed>
  <fix>3d</fix>
</trkpt>
<trkpt lat="40.072842" lon="-105.230575">
  <ele>1586.09</ele>
  <time>2026-08-27T18:26:33Z</time>
  <course>266.03</course>
  <speed>0.0</speed>
  <fix>3d</fix>
</trkpt>
<trkpt lat="40.072842" lon="-105.230575">
  <ele>1586.09</ele>
  <time>2026-08-27T18:26:33Z</time>
  <course>12.09</course>
  <speed>0.01</speed>
  <fix>3d</fix>
</trkpt>
<trkpt lat="40.072842" lon="-105.230575">
  <ele>1586.09</ele>
  <time>2026-08-27T18:26:33Z</time>
  <course>266.03</course>
  <speed>0.0</speed>
  <fix>3d</fix>
</trkpt>
<trkpt lat="40.072842" lon="-105.230575">
  <ele>1586.09</ele>
  <time>2026-08-27T18:26:33Z</time>
  <course>12.08</course>
  <speed>0.01</speed>
  <fix>3d</fix>
</trkpt>
<trkpt lat="40.072842" lon="-105.230575">
  <ele>1586.09</ele>
  <time>2026-08-27T18:26:33Z</time>
  <course>266.03</course>
  <speed>0.0</speed>
  <fix>3d</fix>
</trkpt>
<trkpt lat="40.072842" lon="-105.230575">
  <ele>1586.09</ele>
  <time>2026-08-27T18:26:33Z</time>
  <course>12.08</course>
  <speed>0.01414213562373095</speed>
  <fix>3d</fix>
</trkpt>
<trkpt lat="40.072842" lon="-105.230575">
  <ele>1586.09</ele>
  <time>2026-08-27T18:26:33Z</time>
  <course>266.03</course>
  <speed>0.0</speed>
  <fix>3d</fix>
</trkpt>
<trkpt lat="40.072842" lon="-105.230575">
  <ele>1586.09</ele>
  <time>2026-08-27T18:26:33Z</time>
  <course>12.07</course>
  <speed>0.01414213562373095</speed>
  <fix>3d</fix>
</trkpt>
<trkpt lat="40.072842" lon="-105.230575">
  <ele>1586.09</ele>
  <time>2026-08-27T18:26:33Z</time>
  <course>266.03</course>
  <speed>0.0</speed>
  <fix>3d</fix>
</trkpt>
<trkpt lat="40.072842" lon="-105.230575">
  <ele>1586.09</ele>
  <time>2026-08-27T18:26:33Z</time>
  <course>12.06</course>
  <speed>0.01414213562373095</speed>
  <fix>3d</fix>
</trkpt>
<trkpt lat="40.072842" lon="-105.230575">
  <ele>1586.09</ele>
  <time>2026-08-27T18:26:33Z</time>
  <course>266.03</course>
  <speed>0.0</speed>
  <fix>3d</fix>
</trkpt>
<trkpt lat="40.072842" lon="-105.230575">
  <ele>1586.09</ele>
  <time>2026-08-27T18:26:33Z</time>
  <course>12.05</course>
  <speed>0.01414213562373095</speed>
  <fix>3d</fix>
</trkpt>
<trkpt lat="40.072842" lon="-105.230575">
  <ele>1586.09</ele>
  <time>2026-08-27T18:26:33Z</time>
  <course>266.03</course>
  <speed>0.0</speed>
  <fix>3d</fix>
</trkpt>
<trkpt lat="40.072842" lon="-105.230575">
  <ele>1586.09</ele>
  <time>2026-08-27T18:26:33Z</time>
  <course>12.05</course>
  <speed>0.01414213562373095</speed>
  <fix>3d</fix>
</trkpt>
<trkpt lat="40.072842" lon="-105.230575">
  <ele>1586.09</ele>
  <time>2026-08-27T18:26:33Z</time>
  <course>266.03</course>
  <speed>0.0</speed>
  <fix>3d</fix>
</trkpt>
<trkpt lat="40.072842" lon="-105.230575">
  <ele>1586.09</ele>
  <time>2026-08-27T18:26:33Z</time>
  <course>12.04</course>
  <speed>0.01414213562373095</speed>
  <fix>3d</fix>
</trkpt>
<trkpt lat="40.072842" lon="-105.230575">
  <ele>1586.09</ele>
  <time>2026-08-27T18:26:33Z</time>
  <course>266.03</course>
  <speed>0.0</speed>
  <fix>3d</fix>
</trkpt>
<trkpt lat="40.072842" lon="-105.230575">
  <ele>1586.09</ele>
  <time>2026-08-27T18:26:33Z</time>
  <course>12.03</course>
  <speed>0.01414213562373095</speed>
  <fix>3d</fix>
</trkpt>
<trkpt lat="40.072842" lon="-105.230575">
  <ele>1586.09</ele>
  <time>2026-08-27T18:26:33Z</time>
  <course>266.03</course>
  <speed>0.0</speed>
  <fix>3d</fix>
</trkpt>
<trkpt lat="40.072842" lon="-105.230575">
  <ele>1586.09</ele>
  <time>2026-08-27T18:26:33Z</time>
  <course>12.03</course>
  <speed>0.01414213562373095</speed>
  <fix>3d</fix>
</trkpt>
<trkpt lat="40.072842" lon="-105.230575">
  <ele>1586.09</ele>
  <time>2026-08-27T18:26:33Z</time>
  <course>266.03</course>
  <speed>0.0</speed>
  <fix>3d</fix>
</trkpt>
<trkpt lat="40.072842" lon="-105.230575">
  <ele>1586.09</ele>
  <time>2026-08-27T18:26:33Z</time>
  <course>12.02</course>
  <speed>0.01414213562373095</speed>
  <fix>3d</fix>
</trkpt>
<trkpt lat="40.072842" lon="-105.230575">
  <ele>1586.09</ele>
  <time>2026-08-27T18:26:33Z</time>
  <course>266.03</course>
  <speed>0.0</speed>
  <fix>3d</fix>
</trkpt>
<trkpt lat="40.072842" lon="-105.230575">
  <ele>1586.09</ele>
  <time>2026-08-27T18:26:33Z</time>
  <course>12.01</course>
  <speed>0.01414213562373095</speed>
  <fix>3d</fix>
</trkpt>
<trkpt lat="40.072842" lon="-105.230575">
  <ele>1586.09</ele>
  <time>2026-08-27T18:26:33Z</time>
  <course>266.03</course>
  <speed>0.0</speed>
  <fix>3d</fix>
</trkpt>
<trkpt lat="40.072842" lon="-105.230575">
  <ele>1586.09</ele>
  <time>2026-08-27T18:26:33Z</time>
  <course>12.01</course>
  <speed>0.01414213562373095</speed>
  <fix>3d</fix>
</trkpt>
<trkpt lat="40.072842" lon="-105.230575">
  <ele>1586.09</ele>
  <time>2026-08-27T18:26:33Z</time>
  <course>266.03</course>
  <speed>0.0</speed>
  <fix>3d</fix>
</trkpt>
<trkpt lat="40.072842" lon="-105.230575">
  <ele>1586.09</ele>
  <time>2026-08-27T18:26:33Z</time>
  <course>12.0</course>
  <speed>0.01414213562373095</speed>
  <fix>3d</fix>
</trkpt>
<trkpt lat="40.072842" lon="-105.230575">
  <ele>1586.09</ele>
  <time>2026-08-27T18:26:33Z</time>
  <course>266.03</course>
  <speed>0.0</speed>
  <fix>3d</fix>
</trkpt>
<trkpt lat="40.072842" lon="-105.230575">
  <ele>1586.09</ele>
  <time>2026-08-27T18:26:33Z</time>
  <course>11.99</course>
  <speed>0.01414213562373095</speed>
  <fix>3d</fix>
</trkpt>
<trkpt lat="40.072842" lon="-105.230575">
  <ele>1586.09</ele>
  <time>2026-08-27T18:26:33Z</time>
  <course>266.03</course>
  <speed>0.0</speed>
  <fix>3d</fix>
</trkpt>
<trkpt lat="40.072842" lon="-105.230575">
  <ele>1586.09</ele>
  <time>2026-08-27T18:26:33Z</time>
  <course>11.98</course>
  <speed>0.01414213562373095</speed>
  <fix>3d</fix>
</trkpt>
<trkpt lat="40.072842" lon="-105.230575">
  <ele>1586.09</ele>
  <time>2026-08-27T18:26:33Z</time>
  <course>266.03</course>
  <speed>0.0</speed>
  <fix>3d</fix>
</trkpt>
<trkpt lat="40.072842" lon="-105.230575">
  <ele>1586.09</ele>
  <time>2026-08-27T18:26:33Z</time>
  <course>11.98</course>
  <speed>0.01414213562373095</speed>
  <fix>3d</fix>
</trkpt>
<trkpt lat="40.072842" lon="-105.230575">
  <ele>1586.09</ele>
  <time>2026-08-27T18:26:33Z</time>
  <course>266.03</course>
  <speed>0.0</speed>
  <fix>3d</fix>
</trkpt>
<trkpt lat="40.072842" lon="-105.230575">
  <ele>1586.09</ele>
  <time>2026-08-27T18:26:33Z</time>
  <course>11.97</course>
  <speed>0.022360679774997897</speed>
  <fix>3d</fix>
</trkpt>
<trkpt lat="40.072842" lon="-105.230575">
  <ele>1586.09</ele>
  <time>2026-08-27T18:26:33Z</time>
  <course>266.03</course>
  <speed>0.0</speed>
  <fix>3d</fix>
</trkpt>
<trkpt lat="40.072842" lon="-105.230575">
  <ele>1586.09</ele>
  <time>2026-08-27T18:26:33Z</time>
  <course>11.96</course>
  <speed>0.022360679774997897</speed>
  <fix>3d</fix>
</trkpt>
<trkpt lat="40.072842" lon="-105.230575">
  <ele>1586.09</ele>
  <time>2026-08-27T18:26:33Z</time>
  <course>266.03</course>
  <speed>0.0</speed>
  <fix>3d</fix>
</trkpt>
<trkpt lat="40.072842" lon="-105.230575">
  <ele>1586.09</ele>
  <time>2026-08-27T18:26:33Z</time>
  <course>11.95</course>
  <speed>0.022360679774997897</speed>
  <fix>3d</fix>
</trkpt>
<trkpt lat="40.072842" lon="-105.230575">
  <ele>1586.09</ele>
  <time>2026-08-27T18:26:33Z</time>
  <course>266.03</course>
  <speed>0.0</speed>
  <fix>3d</fix>
</trkpt>
<trkpt lat="40.072842" lon="-105.230575">
  <ele>1586.09</ele>
  <time>2026-08-27T18:26:33Z</time>
  <course>11.94</course>
  <speed>0.022360679774997897</speed>
  <fix>3d</fix>
</trkpt>
<trkpt lat="40.072842" lon="-105.230575">
  <ele>1586.09</ele>
  <time>2026-08-27T18:26:33Z</time>
  <course>266.03</course>
  <speed>0.0</speed>
  <fix>3d</fix>
</trkpt>
<trkpt lat="40.072842" lon="-105.230575">
  <ele>1586.09</ele>
  <time>2026-08-27T18:26:33Z</time>
  <course>11.93</course>
  <speed>0.022360679774997897</speed>
  <fix>3d</fix>
</trkpt>
<trkpt lat="40.072842" lon="-105.230575">
  <ele>1586.09</ele>
  <time>2026-08-27T18:26:33Z</time>
  <course>266.03</course>
  <speed>0.0</speed>
  <fix>3d</fix>
</trkpt>
<trkpt lat="40.072842" lon="-105.230575">
  <ele>1586.09</ele>
  <time>2026-08-27T18:26:33Z</time>
  <course>11.92</course>
  <speed>0.022360679774997897</speed>
  <fix>3d</fix>
</trkpt>
<trkpt lat="40.072842" lon="-105.230575">
  <ele>1586.09</ele>
  <time>2026-08-27T18:26:33Z</time>
  <course>266.03</course>
  <speed>0.0</speed>
  <fix>3d</fix>
</trkpt>
<trkpt lat="40.072842" lon="-105.230575">
  <ele>1586.09</ele>
  <time>2026-08-27T18:26:33Z</time>
  <course>11.92</course>
  <speed>0.022360679774997897</speed>
  <fix>3d</fix>
</trkpt>
<trkpt lat="40.072842" lon="-105.230575">
  <ele>1586.09</ele>
  <time>2026-08-27T18:26:33Z</time>
  <course>266.03</course>
  <speed>0.0</speed>
  <fix>3d</fix>
</trkpt>
<trkpt lat="40.072842" lon="-105.230575">
  <ele>1586.09</ele>
  <time>2026-08-27T18:26:33Z</time>
  <course>11.91</course>
  <speed>0.022360679774997897</speed>
  <fix>3d</fix>
</trkpt>
<trkpt lat="40.072842" lon="-105.230575">
  <ele>1586.09</ele>
  <time>2026-08-27T18:26:33Z</time>
  <course>266.03</course>
  <speed>0.0</speed>
  <fix>3d</fix>
</trkpt>
<trkpt lat="40.072842" lon="-105.230575">
  <ele>1586.09</ele>
  <time>2026-08-27T18:26:33Z</time>
  <course>11.9</course>
  <speed>0.022360679774997897</speed>
  <fix>3d</fix>
</trkpt>
<trkpt lat="40.072842" lon="-105.230575">
  <ele>1586.09</ele>
  <time>2026-08-27T18:26:33Z</time>
  <course>266.03</course>
  <speed>0.0</speed>
  <fix>3d</fix>
</trkpt>
<trkpt lat="40.072842" lon="-105.230575">
  <ele>1586.09</ele>
  <time>2026-08-27T18:26:33Z</time>
  <course>11.89</course>
  <speed>0.022360679774997897</speed>
  <fix>3d</fix>
</trkpt>
<trkpt lat="40.072842" lon="-105.230575">
  <ele>1586.09</ele>
  <time>2026-08-27T18:26:33Z</time>
  <course>266.03</course>
  <speed>0.0</speed>
  <fix>3d</fix>
</trkpt>
<trkpt lat="40.072842" lon="-105.230575">
  <ele>1586.09</ele>
  <time>2026-08-27T18:26:33Z</time>
  <course>11.88</course>
  <speed>0.022360679774997897</speed>
  <fix>3d</fix>
</trkpt>
<trkpt lat="40.072842" lon="-105.230575">
  <ele>1586.09</ele>
  <time>2026-08-27T18:26:33Z</time>
  <course>266.03</course>
  <speed>0.0</speed>
  <fix>3d</fix>
</trkpt>
<trkpt lat="40.072842" lon="-105.230575">
  <ele>1586.09</ele>
  <time>2026-08-27T18:26:33Z</time>
  <course>11.88</course>
  <speed>0.022360679774997897</speed>
  <fix>3d</fix>
</trkpt>
<trkpt lat="40.072842" lon="-105.230575">
  <ele>1586.09</ele>
  <time>2026-08-27T18:26:33Z</time>
  <course>266.03</course>
  <speed>0.0</speed>
  <fix>3d</fix>
</trkpt>
<trkpt lat="40.072842" lon="-105.230575">
  <ele>1586.09</ele>
  <time>2026-08-27T18:26:33Z</time>
  <course>11.87</course>
  <speed>0.022360679774997897</speed>
  <fix>3d</fix>
</trkpt>
<trkpt lat="40.072842" lon="-105.230575">
  <ele>1586.09</ele>
  <time>2026-08-27T18:26:33Z</time>
  <course>266.03</course>
  <speed>0.0</speed>
  <fix>3d</fix>
</trkpt>
<trkpt lat="40.072842" lon="-105.230575">
  <ele>1586.09</ele>
  <time>2026-08-27T18:26:33Z</time>
  <course>11.86</course>
  <speed>0.022360679774997897</speed>
  <fix>3d</fix>
</trkpt>
<trkpt lat="40.072842" lon="-105.230575">
  <ele>1586.09</ele>
  <time>2026-08-27T18:26:33Z</time>
  <course>266.03</course>
  <speed>0.0</speed>
  <fix>3d</fix>
</trkpt>
<trkpt lat="40.072842" lon="-105.230575">
  <ele>1586.09</ele>
  <time>2026-08-27T18:26:33Z</time>
  <course>11.85</course>
  <speed>0.022360679774997897</speed>
  <fix>3d</fix>
</trkpt>
<trkpt lat="40.072842" lon="-105.230575">
  <ele>1586.09</ele>
  <time>2026-08-27T18:26:33Z</time>
  <course>266.03</course>
  <speed>0.0</speed>
  <fix>3d</fix>
</trkpt>
<trkpt lat="40.072842" lon="-105.230575">
  <ele>1586.09</ele>
  <time>2026-08-27T18:26:33Z</time>
  <course>11.84</course>
  <speed>0.0282842712474619</speed>
  <fix>3d</fix>
</trkpt>
<trkpt lat="40.072842" lon="-105.230575">
  <ele>1586.09</ele>
  <time>2026-08-27T18:26:33Z</time>
  <course>266.03</course>
  <speed>0.0</speed>
  <fix>3d</fix>
</trkpt>
<trkpt lat="40.072842" lon="-105.230575">
  <ele>1586.09</ele>
  <time>2026-08-27T18:26:33Z</time>
  <course>11.83</course>
  <speed>0.0282842712474619</speed>
  <fix>3d</fix>
</trkpt>
<trkpt lat="40.072842" lon="-105.230575">
  <ele>1586.09</ele>
  <time>2026-08-27T18:26:33Z</time>
  <course>266.03</course>
  <speed>0.0</speed>
  <fix>3d</fix>
</trkpt>
<trkpt lat="40.072842" lon="-105.230575">
  <ele>1586.09</ele>
  <time>2026-08-27T18:26:33Z</time>
  <course>11.83</course>
  <speed>0.0282842712474619</speed>
  <fix>3d</fix>
</trkpt>
<trkpt lat="40.072842" lon="-105.230575">
  <ele>1586.09</ele>
  <time>2026-08-27T18:26:33Z</time>
  <course>266.03</course>
  <speed>0.0</speed>
  <fix>3d</fix>
</trkpt>
<trkpt lat="40.072842" lon="-105.230575">
  <ele>1586.09</ele>
  <time>2026-08-27T18:26:33Z</time>
  <course>11.82</course>
  <speed>0.0282842712474619</speed>
  <fix>3d</fix>
</trkpt>
<trkpt lat="40.072842" lon="-105.230575">
  <ele>1586.09</ele>
  <time>2026-08-27T18:26:33Z</time>
  <course>266.03</course>
  <speed>0.0</speed>
  <fix>3d</fix>
</trkpt>
<trkpt lat="40.072842" lon="-105.230575">
  <ele>1586.09</ele>
  <time>2026-08-27T18:26:33Z</time>
  <course>11.81</course>
  <speed>0.0282842712474619</speed>
  <fix>3d</fix>
</trkpt>
<trkpt lat="40.072842" lon="-105.230575">
  <ele>1586.09</ele>
  <time>2026-08-27T18:26:33Z</time>
  <course>266.03</course>
  <speed>0.0</speed>
  <fix>3d</fix>
</trkpt>
<trkpt lat="40.072842" lon="-105.230575">
  <ele>1586.09</ele>
  <time>2026-08-27T18:26:33Z</time>
  <course>11.8</course>
  <speed>0.0282842712474619</speed>
  <fix>3d</fix>
</trkpt>
<trkpt lat="40.072842" lon="-105.230575">
  <ele>1586.09</ele>
  <time>2026-08-27T18:26:33Z</time>
  <course>266.03</course>
  <speed>0.0</speed>
  <fix>3d</fix>
</trkpt>
<trkpt lat="40.072842" lon="-105.230575">
  <ele>1586.09</ele>
  <time>2026-08-27T18:26:33Z</time>
  <course>11.79</course>
  <speed>0.0282842712474619</speed>
  <fix>3d</fix>
</trkpt>
<trkpt lat="40.072842" lon="-105.230575">
  <ele>1586.09</ele>
  <time>2026-08-27T18:26:33Z</time>
  <course>266.03</course>
  <speed>0.0</speed>
  <fix>3d</fix>
</trkpt>
<trkpt lat="40.072842" lon="-105.230575">
  <ele>1586.09</ele>
  <time>2026-08-27T18:26:33Z</time>
  <course>11.79</course>
  <speed>0.0282842712474619</speed>
  <fix>3d</fix>
</trkpt>
<trkpt lat="40.072842" lon="-105.230575">
  <ele>1586.09</ele>
  <time>2026-08-27T18:26:33Z</time>
  <course>266.03</course>
  <speed>0.0</speed>
  <fix>3d</fix>
</trkpt>
<trkpt lat="40.072842" lon="-105.230575">
  <ele>1586.09</ele>
  <time>2026-08-27T18:26:33Z</time>
  <course>11.78</course>
  <speed>0.0282842712474619</speed>
  <fix>3d</fix>
</trkpt>
<trkpt lat="40.072842" lon="-105.230575">
  <ele>1586.09</ele>
  <time>2026-08-27T18:26:33Z</time>
  <course>266.03</course>
  <speed>0.0</speed>
  <fix>3d</fix>
</trkpt>
<trkpt lat="40.072842" lon="-105.230575">
  <ele>1586.09</ele>
  <time>2026-08-27T18:26:33Z</time>
  <course>11.77</course>
  <speed>0.0282842712474619</speed>
  <fix>3d</fix>
</trkpt>
<trkpt lat="40.072842" lon="-105.230575">
  <ele>1586.09</ele>
  <time>2026-08-27T18:26:33Z</time>
  <course>266.03</course>
  <speed>0.0</speed>
  <fix>3d</fix>
</trkpt>
<trkpt lat="40.072842" lon="-105.230575">
  <ele>1586.09</ele>
  <time>2026-08-27T18:26:33Z</time>
  <course>11.77</course>
  <speed>0.0282842712474619</speed>
  <fix>3d</fix>
</trkpt>
<trkpt lat="40.072842" lon="-105.230575">
  <ele>1586.09</ele>
  <time>2026-08-27T18:26:33Z</time>
  <course>266.03</course>
  <speed>0.0</speed>
  <fix>3d</fix>
</trkpt>
<trkpt lat="40.072842" lon="-105.230575">
  <ele>1586.09</ele>
  <time>2026-08-27T18:26:33Z</time>
  <course>11.76</course>
  <speed>0.0282842712474619</speed>
  <fix>3d</fix>
</trkpt>
<trkpt lat="40.072842" lon="-105.230575">
  <ele>1586.09</ele>
  <time>2026-08-27T18:26:33Z</time>
  <course>266.03</course>
  <speed>0.0</speed>
  <fix>3d</fix>
</trkpt>
<trkpt lat="40.072842" lon="-105.230575">
  <ele>1586.09</ele>
  <time>2026-08-27T18:26:33Z</time>
  <course>11.75</course>
  <speed>0.0282842712474619</speed>
  <fix>3d</fix>
</trkpt>
<trkpt lat="40.072842" lon="-105.230575">
  <ele>1586.09</ele>
  <time>2026-08-27T18:26:33Z</time>
  <course>266.03</course>
  <speed>0.0</speed>
  <fix>3d</fix>
</trkpt>
<trkpt lat="40.072842" lon="-105.230575">
  <ele>1586.09</ele>
  <time>2026-08-27T18:26:33Z</time>
  <course>11.74</course>
  <speed>0.03605551275463989</speed>
  <fix>3d</fix>
</trkpt>
<trkpt lat="40.072842" lon="-105.230575">
  <ele>1586.09</ele>
  <time>2026-08-27T18:26:33Z</time>
  <course>266.03</course>
  <speed>0.0</speed>
  <fix>3d</fix>
</trkpt>
<trkpt lat="40.072842" lon="-105.230575">
  <ele>1586.09</ele>
  <time>2026-08-27T18:26:33Z</time>
  <course>11.73</course>
  <speed>0.03605551275463989</speed>
  <fix>3d</fix>
</trkpt>
<trkpt lat="40.072842" lon="-105.230575">
  <ele>1586.09</ele>
  <time>2026-08-27T18:26:33Z</time>
  <course>266.03</course>
  <speed>0.0</speed>
  <fix>3d</fix>
</trkpt>
<trkpt lat="40.072842" lon="-105.230575">
  <ele>1586.09</ele>
  <time>2026-08-27T18:26:33Z</time>
  <course>11.73</course>
  <speed>0.03605551275463989</speed>
  <fix>3d</fix>
</trkpt>
<trkpt lat="40.072842" lon="-105.230575">
  <ele>1586.09</ele>
  <time>2026-08-27T18:26:33Z</time>
  <course>266.03</course>
  <speed>0.0</speed>
  <fix>3d</fix>
</trkpt>
<trkpt lat="40.072842" lon="-105.230575">
  <ele>1586.09</ele>
  <time>2026-08-27T18:26:33Z</time>
  <course>11.72</course>
  <speed>0.03605551275463989</speed>
  <fix>3d</fix>
</trkpt>
<trkpt lat="40.072842" lon="-105.230575">
  <ele>1586.09</ele>
  <time>2026-08-27T18:26:33Z</time>
  <course>266.03</course>
  <speed>0.0</speed>
  <fix>3d</fix>
</trkpt>
<trkpt lat="40.072842" lon="-105.230575">
  <ele>1586.09</ele>
  <time>2026-08-27T18:26:33Z</time>
  <course>11.71</course>
  <speed>0.03605551275463989</speed>
  <fix>3d</fix>
</trkpt>
<trkpt lat="40.072842" lon="-105.230575">
  <ele>1586.09</ele>
  <time>2026-08-27T18:26:33Z</time>
  <course>266.03</course>
  <speed>0.0</speed>
  <fix>3d</fix>
</trkpt>
<trkpt lat="40.072842" lon="-105.230575">
  <ele>1586.09</ele>
  <time>2026-08-27T18:26:33Z</time>
  <course>11.71</course>
  <speed>0.03605551275463989</speed>
  <fix>3d</fix>
</trkpt>
<trkpt lat="40.072842" lon="-105.230575">
  <ele>1586.09</ele>
  <time>2026-08-27T18:26:33Z</time>
  <course>266.03</course>
  <speed>0.0</speed>
  <fix>3d</fix>
</trkpt>
<trkpt lat="40.072842" lon="-105.230575">
  <ele>1586.09</ele>
  <time>2026-08-27T18:26:33Z</time>
  <course>11.7</course>
  <speed>0.03605551275463989</speed>
  <fix>3d</fix>
</trkpt>
<trkpt lat="40.072842" lon="-105.230575">
  <ele>1586.09</ele>
  <time>2026-08-27T18:26:33Z</time>
  <course>266.03</course>
  <speed>0.0</speed>
  <fix>3d</fix>
</trkpt>
<trkpt lat="40.072842" lon="-105.230575">
  <ele>1586.09</ele>
  <time>2026-08-27T18:26:33Z</time>
  <course>11.69</course>
  <speed>0.03605551275463989</speed>
  <fix>3d</fix>
</trkpt>
<trkpt lat="40.072842" lon="-105.230575">
  <ele>1586.09</ele>
  <time>2026-08-27T18:26:33Z</time>
  <course>266.03</course>
  <speed>0.0</speed>
  <fix>3d</fix>
</trkpt>
<trkpt lat="40.072842" lon="-105.230575">
  <ele>1586.09</ele>
  <time>2026-08-27T18:26:33Z</time>
  <course>11.68</course>
  <speed>0.03605551275463989</speed>
  <fix>3d</fix>
</trkpt>
<trkpt lat="40.072842" lon="-105.230575">
  <ele>1586.09</ele>
  <time>2026-08-27T18:26:33Z</time>
  <course>266.03</course>
  <speed>0.0</speed>
  <fix>3d</fix>
</trkpt>
<trkpt lat="40.072842" lon="-105.230575">
  <ele>1586.09</ele>
  <time>2026-08-27T18:26:33Z</time>
  <course>11.68</course>
  <speed>0.03605551275463989</speed>
  <fix>3d</fix>
</trkpt>
<trkpt lat="40.072842" lon="-105.230575">
  <ele>1586.09</ele>
  <time>2026-08-27T18:26:33Z</time>
  <course>266.03</course>
  <speed>0.0</speed>
  <fix>3d</fix>
</trkpt>
<trkpt lat="40.072842" lon="-105.230575">
  <ele>1586.09</ele>
  <time>2026-08-27T18:26:33Z</time>
  <course>11.67</course>
  <speed>0.03605551275463989</speed>
  <fix>3d</fix>
</trkpt>
<trkpt lat="40.072842" lon="-105.230575">
  <ele>1586.09</ele>
  <time>2026-08-27T18:26:33Z</time>
  <course>266.03</course>
  <speed>0.0</speed>
  <fix>3d</fix>
</trkpt>
<trkpt lat="40.072842" lon="-105.230575">
  <ele>1586.09</ele>
  <time>2026-08-27T18:26:33Z</time>
  <course>11.66</course>
  <speed>0.03605551275463989</speed>
  <fix>3d</fix>
</trkpt>
<trkpt lat="40.072842" lon="-105.230575">
  <ele>1586.09</ele>
  <time>2026-08-27T18:26:33Z</time>
  <course>266.03</course>
  <speed>0.0</speed>
  <fix>3d</fix>
</trkpt>
<trkpt lat="40.072842" lon="-105.230575">
  <ele>1586.09</ele>
  <time>2026-08-27T18:26:33Z</time>
  <course>11.65</course>
  <speed>0.03605551275463989</speed>
  <fix>3d</fix>
</trkpt>
<trkpt lat="40.072842" lon="-105.230575">
  <ele>1586.09</ele>
  <time>2026-08-27T18:26:33Z</time>
  <course>266.03</course>
  <speed>0.0</speed>
  <fix>3d</fix>
</trkpt>
<trkpt lat="40.072842" lon="-105.230575">
  <ele>1586.09</ele>
  <time>2026-08-27T18:26:33Z</time>
  <course>11.65</course>
  <speed>0.03605551275463989</speed>
  <fix>3d</fix>
</trkpt>
<trkpt lat="40.072842" lon="-105.230575">
  <ele>1586.09</ele>
  <time>2026-08-27T18:26:33Z</time>
  <course>266.03</course>
  <speed>0.0</speed>
  <fix>3d</fix>
</trkpt>
<trkpt lat="40.072842" lon="-105.230575">
  <ele>1586.09</ele>
  <time>2026-08-27T18:26:33Z</time>
  <course>11.64</course>
  <speed>0.03605551275463989</speed>
  <fix>3d</fix>
</trkpt>
<trkpt lat="40.072842" lon="-105.230575">
  <ele>1586.09</ele>
  <time>2026-08-27T18:26:33Z</time>
  <course>266.03</course>
  <speed>0.0</speed>
  <fix>3d</fix>
</trkpt>
<trkpt lat="40.072842" lon="-105.230575">
  <ele>1586.09</ele>
  <time>2026-08-27T18:26:33Z</time>
  <course>11.63</course>
  <speed>0.03605551275463989</speed>
  <fix>3d</fix>
</trkpt>
<trkpt lat="40.072842" lon="-105.230575">
  <ele>1586.09</ele>
  <time>2026-08-27T18:26:33Z</time>
  <course>266.03</course>
  <speed>0.0</speed>
  <fix>3d</fix>
</trkpt>
<trkpt lat="40.072842" lon="-105.230575">
  <ele>1586.09</ele>
  <time>2026-08-27T18:26:33Z</time>
  <course>11.63</course>
  <speed>0.03605551275463989</speed>
  <fix>3d</fix>
</trkpt>
<trkpt lat="40.072842" lon="-105.230575">
  <ele>1586.09</ele>
  <time>2026-08-27T18:26:33Z</time>
  <course>266.03</course>
  <speed>0.0</speed>
  <fix>3d</fix>
</trkpt>
<trkpt lat="40.072842" lon="-105.230575">
  <ele>1586.09</ele>
  <time>2026-08-27T18:26:33Z</time>
  <course>11.62</course>
  <speed>0.03605551275463989</speed>
  <fix>3d</fix>
</trkpt>
<trkpt lat="40.072842" lon="-105.230575">
  <ele>1586.09</ele>
  <time>2026-08-27T18:26:33Z</time>
  <course>266.03</course>
  <speed>0.0</speed>
  <fix>3d</fix>
</trkpt>
<trkpt lat="40.072842" lon="-105.230575">
  <ele>1586.09</ele>
  <time>2026-08-27T18:26:33Z</time>
  <course>11.61</course>
  <speed>0.03605551275463989</speed>
  <fix>3d</fix>
</trkpt>
<trkpt lat="40.072842" lon="-105.230575">
  <ele>1586.09</ele>
  <time>2026-08-27T18:26:33Z</time>
  <course>266.03</course>
  <speed>0.0</speed>
  <fix>3d</fix>
</trkpt>
<trkpt lat="40.072842" lon="-105.230575">
  <ele>1586.09</ele>
  <time>2026-08-27T18:26:33Z</time>
  <course>11.61</course>
  <speed>0.03605551275463989</speed>
  <fix>3d</fix>
</trkpt>
<trkpt lat="40.072842" lon="-105.230575">
  <ele>1586.09</ele>
  <time>2026-08-27T18:26:33Z</time>
  <course>266.03</course>
  <speed>0.0</speed>
  <fix>3d</fix>
</trkpt>
<trkpt lat="40.072842" lon="-105.230575">
  <ele>1586.09</ele>
  <time>2026-08-27T18:26:33Z</time>
  <course>11.6</course>
  <speed>0.03605551275463989</speed>
  <fix>3d</fix>
</trkpt>
<trkpt lat="40.072842" lon="-105.230575">
  <ele>1586.09</ele>
  <time>2026-08-27T18:26:33Z</time>
  <course>266.03</course>
  <speed>0.0</speed>
  <fix>3d</fix>
</trkpt>
<trkpt lat="40.072842" lon="-105.230575">
  <ele>1586.09</ele>
  <time>2026-08-27T18:26:33Z</time>
  <course>11.6</course>
  <speed>0.03605551275463989</speed>
  <fix>3d</fix>
</trkpt>
<trkpt lat="40.072842" lon="-105.230575">
  <ele>1586.09</ele>
  <time>2026-08-27T18:26:33Z</time>
  <course>266.03</course>
  <speed>0.0</speed>
  <fix>3d</fix>
</trkpt>
<trkpt lat="40.072842" lon="-105.230575">
  <ele>1586.09</ele>
  <time>2026-08-27T18:26:33Z</time>
  <course>11.59</course>
  <speed>0.03605551275463989</speed>
  <fix>3d</fix>
</trkpt>
<trkpt lat="40.072842" lon="-105.230575">
  <ele>1586.09</ele>
  <time>2026-08-27T18:26:33Z</time>
  <course>266.03</course>
  <speed>0.0</speed>
  <fix>3d</fix>
</trkpt>
<trkpt lat="40.072842" lon="-105.230575">
  <ele>1586.09</ele>
  <time>2026-08-27T18:26:33Z</time>
  <course>11.58</course>
  <speed>0.03605551275463989</speed>
  <fix>3d</fix>
</trkpt>
<trkpt lat="40.072842" lon="-105.230575">
  <ele>1586.09</ele>
  <time>2026-08-27T18:26:33Z</time>
  <course>266.03</course>
  <speed>0.0</speed>
  <fix>3d</fix>
</trkpt>
<trkpt lat="40.072842" lon="-105.230575">
  <ele>1586.09</ele>
  <time>2026-08-27T18:26:33Z</time>
  <course>11.58</course>
  <speed>0.03605551275463989</speed>
  <fix>3d</fix>
</trkpt>
<trkpt lat="40.072842" lon="-105.230575">
  <ele>1586.09</ele>
  <time>2026-08-27T18:26:33Z</time>
  <course>266.03</course>
  <speed>0.0</speed>
  <fix>3d</fix>
</trkpt>
<trkpt lat="40.072842" lon="-105.230575">
  <ele>1586.09</ele>
  <time>2026-08-27T18:26:33Z</time>
  <course>11.57</course>
  <speed>0.03605551275463989</speed>
  <fix>3d</fix>
</trkpt>
<trkpt lat="40.072842" lon="-105.230575">
  <ele>1586.09</ele>
  <time>2026-08-27T18:26:33Z</time>
  <course>266.03</course>
  <speed>0.0</speed>
  <fix>3d</fix>
</trkpt>
<trkpt lat="40.072842" lon="-105.230575">
  <ele>1586.09</ele>
  <time>2026-08-27T18:26:33Z</time>
  <course>11.57</course>
  <speed>0.03605551275463989</speed>
  <fix>3d</fix>
</trkpt>
<trkpt lat="40.072842" lon="-105.230575">
  <ele>1586.09</ele>
  <time>2026-08-27T18:26:33Z</time>
  <course>266.03</course>
  <speed>0.0</speed>
  <fix>3d</fix>
</trkpt>
<trkpt lat="40.072842" lon="-105.230575">
  <ele>1586.09</ele>
  <time>2026-08-27T18:26:33Z</time>
  <course>11.56</course>
  <speed>0.03605551275463989</speed>
  <fix>3d</fix>
</trkpt>
<trkpt lat="40.072842" lon="-105.230575">
  <ele>1586.09</ele>
  <time>2026-08-27T18:26:33Z</time>
  <course>266.03</course>
  <speed>0.0</speed>
  <fix>3d</fix>
</trkpt>
<trkpt lat="40.072842" lon="-105.230575">
  <ele>1586.09</ele>
  <time>2026-08-27T18:26:33Z</time>
  <course>11.55</course>
  <speed>0.03605551275463989</speed>
  <fix>3d</fix>
</trkpt>
<trkpt lat="40.072842" lon="-105.230575">
  <ele>1586.09</ele>
  <time>2026-08-27T18:26:33Z</time>
  <course>266.03</course>
  <speed>0.0</speed>
  <fix>3d</fix>
</trkpt>
<trkpt lat="40.072842" lon="-105.230575">
  <ele>1586.09</ele>
  <time>2026-08-27T18:26:33Z</time>
  <course>11.55</course>
  <speed>0.03605551275463989</speed>
  <fix>3d</fix>
</trkpt>
<trkpt lat="40.072842" lon="-105.230575">
  <ele>1586.09</ele>
  <time>2026-08-27T18:26:33Z</time>
  <course>266.03</course>
  <speed>0.0</speed>
  <fix>3d</fix>
</trkpt>
<trkpt lat="40.072842" lon="-105.230575">
  <ele>1586.09</ele>
  <time>2026-08-27T18:26:33Z</time>
  <course>11.54</course>
  <speed>0.03605551275463989</speed>
  <fix>3d</fix>
</trkpt>
<trkpt lat="40.072842" lon="-105.230575">
  <ele>1586.09</ele>
  <time>2026-08-27T18:26:33Z</time>
  <course>266.03</course>
  <speed>0.0</speed>
  <fix>3d</fix>
</trkpt>
<trkpt lat="40.072842" lon="-105.230575">
  <ele>1586.09</ele>
  <time>2026-08-27T18:26:33Z</time>
  <course>11.53</course>
  <speed>0.03605551275463989</speed>
  <fix>3d</fix>
</trkpt>
<trkpt lat="40.072842" lon="-105.230575">
  <ele>1586.09</ele>
  <time>2026-08-27T18:26:33Z</time>
  <course>266.03</course>
  <speed>0.0</speed>
  <fix>3d</fix>
</trkpt>
<trkpt lat="40.072842" lon="-105.230575">
  <ele>1586.09</ele>
  <time>2026-08-27T18:26:33Z</time>
  <course>11.53</course>
  <speed>0.03605551275463989</speed>
  <fix>3d</fix>
</trkpt>
<trkpt lat="40.072842" lon="-105.230575">
  <ele>1586.09</ele>
  <time>2026-08-27T18:26:33Z</time>
  <course>266.03</course>
  <speed>0.0</speed>
  <fix>3d</fix>
</trkpt>
<trkpt lat="40.072842" lon="-105.230575">
  <ele>1586.09</ele>
  <time>2026-08-27T18:26:33Z</time>
  <course>11.52</course>
  <speed>0.03605551275463989</speed>
  <fix>3d</fix>
</trkpt>
<trkpt lat="40.072842" lon="-105.230575">
  <ele>1586.09</ele>
  <time>2026-08-27T18:26:33Z</time>
  <course>266.03</course>
  <speed>0.0</speed>
  <fix>3d</fix>
</trkpt>
<trkpt lat="40.072842" lon="-105.230575">
  <ele>1586.09</ele>
  <time>2026-08-27T18:26:33Z</time>
  <course>11.52</course>
  <speed>0.03605551275463989</speed>
  <fix>3d</fix>
</trkpt>
<trkpt lat="40.072842" lon="-105.230575">
  <ele>1586.09</ele>
  <time>2026-08-27T18:26:33Z</time>
  <course>266.03</course>
  <speed>0.0</speed>
  <fix>3d</fix>
</trkpt>
<trkpt lat="40.072842" lon="-105.230575">
  <ele>1586.09</ele>
  <time>2026-08-27T18:26:33Z</time>
  <course>11.51</course>
  <speed>0.03605551275463989</speed>
  <fix>3d</fix>
</trkpt>
<trkpt lat="40.072842" lon="-105.230575">
  <ele>1586.09</ele>
  <time>2026-08-27T18:26:33Z</time>
  <course>266.03</course>
  <speed>0.0</speed>
  <fix>3d</fix>
</trkpt>
<trkpt lat="40.072842" lon="-105.230575">
  <ele>1586.09</ele>
  <time>2026-08-27T18:26:33Z</time>
  <course>11.51</course>
  <speed>0.044721359549995794</speed>
  <fix>3d</fix>
</trkpt>
<trkpt lat="40.072842" lon="-105.230575">
  <ele>1586.09</ele>
  <time>2026-08-27T18:26:33Z</time>
  <course>266.03</course>
  <speed>0.0</speed>
  <fix>3d</fix>
</trkpt>
<trkpt lat="40.072842" lon="-105.230575">
  <ele>1586.09</ele>
  <time>2026-08-27T18:26:33Z</time>
  <course>11.5</course>
  <speed>0.044721359549995794</speed>
  <fix>3d</fix>
</trkpt>
<trkpt lat="40.072842" lon="-105.230575">
  <ele>1586.09</ele>
  <time>2026-08-27T18:26:33Z</time>
  <course>266.03</course>
  <speed>0.0</speed>
  <fix>3d</fix>
</trkpt>
<trkpt lat="40.072842" lon="-105.230575">
  <ele>1586.09</ele>
  <time>2026-08-27T18:26:33Z</time>
  <course>11.5</course>
  <speed>0.044721359549995794</speed>
  <fix>3d</fix>
</trkpt>
<trkpt lat="40.072842" lon="-105.230575">
  <ele>1586.09</ele>
  <time>2026-08-27T18:26:33Z</time>
  <course>266.03</course>
  <speed>0.0</speed>
  <fix>3d</fix>
</trkpt>
<trkpt lat="40.072842" lon="-105.230575">
  <ele>1586.09</ele>
  <time>2026-08-27T18:26:33Z</time>
  <course>11.49</course>
  <speed>0.044721359549995794</speed>
  <fix>3d</fix>
</trkpt>
<trkpt lat="40.072842" lon="-105.230575">
  <ele>1586.09</ele>
  <time>2026-08-27T18:26:33Z</time>
  <course>266.03</course>
  <speed>0.0</speed>
  <fix>3d</fix>
</trkpt>
<trkpt lat="40.072842" lon="-105.230575">
  <ele>1586.09</ele>
  <time>2026-08-27T18:26:33Z</time>
  <course>11.48</course>
  <speed>0.044721359549995794</speed>
  <fix>3d</fix>
</trkpt>
<trkpt lat="40.072842" lon="-105.230575">
  <ele>1586.09</ele>
  <time>2026-08-27T18:26:33Z</time>
  <course>266.03</course>
  <speed>0.0</speed>
  <fix>3d</fix>
</trkpt>
<trkpt lat="40.072842" lon="-105.230575">
  <ele>1586.09</ele>
  <time>2026-08-27T18:26:33Z</time>
  <course>11.48</course>
  <speed>0.044721359549995794</speed>
  <fix>3d</fix>
</trkpt>
<trkpt lat="40.072842" lon="-105.230575">
  <ele>1586.09</ele>
  <time>2026-08-27T18:26:33Z</time>
  <course>266.03</course>
  <speed>0.0</speed>
  <fix>3d</fix>
</trkpt>
<trkpt lat="40.072842" lon="-105.230575">
  <ele>1586.09</ele>
  <time>2026-08-27T18:26:33Z</time>
  <course>11.47</course>
  <speed>0.044721359549995794</speed>
  <fix>3d</fix>
</trkpt>
<trkpt lat="40.072842" lon="-105.230575">
  <ele>1586.09</ele>
  <time>2026-08-27T18:26:33Z</time>
  <course>266.03</course>
  <speed>0.0</speed>
  <fix>3d</fix>
</trkpt>
<trkpt lat="40.072842" lon="-105.230575">
  <ele>1586.09</ele>
  <time>2026-08-27T18:26:34Z</time>
  <course>11.47</course>
  <speed>0.044721359549995794</speed>
  <fix>3d</fix>
</trkpt>
<trkpt lat="40.072842" lon="-105.230575">
  <ele>1586.09</ele>
  <time>2026-08-27T18:26:34Z</time>
  <course>266.03</course>
  <speed>0.0</speed>
  <fix>3d</fix>
</trkpt>
<trkpt lat="40.072842" lon="-105.230575">
  <ele>1586.09</ele>
  <time>2026-08-27T18:26:34Z</time>
  <course>11.47</course>
  <speed>0.044721359549995794</speed>
  <fix>3d</fix>
</trkpt>
<trkpt lat="40.072842" lon="-105.230575">
  <ele>1586.09</ele>
  <time>2026-08-27T18:26:34Z</time>
  <course>266.03</course>
  <speed>0.0</speed>
  <fix>3d</fix>
</trkpt>
<trkpt lat="40.072842" lon="-105.230575">
  <ele>1586.09</ele>
  <time>2026-08-27T18:26:34Z</time>
  <course>11.46</course>
  <speed>0.044721359549995794</speed>
  <fix>3d</fix>
</trkpt>
<trkpt lat="40.072842" lon="-105.230575">
  <ele>1586.09</ele>
  <time>2026-08-27T18:26:34Z</time>
  <course>266.03</course>
  <speed>0.0</speed>
  <fix>3d</fix>
</trkpt>
<trkpt lat="40.072842" lon="-105.230575">
  <ele>1586.16</ele>
  <time>2026-08-27T18:26:34Z</time>
  <course>11.45</course>
  <speed>0.0</speed>
  <fix>3d</fix>
</trkpt>
<trkpt lat="40.072842" lon="-105.230575">
  <ele>1586.09</ele>
  <time>2026-08-27T18:26:34Z</time>
  <course>297.19</course>
  <speed>0.0</speed>
  <fix>3d</fix>
</trkpt>
<trkpt lat="40.072842" lon="-105.230575">
  <ele>1586.16</ele>
  <time>2026-08-27T18:26:34Z</time>
  <course>11.45</course>
  <speed>0.0</speed>
  <fix>3d</fix>
</trkpt>
<trkpt lat="40.072842" lon="-105.230575">
  <ele>1586.09</ele>
  <time>2026-08-27T18:26:34Z</time>
  <course>269.87</course>
  <speed>0.0</speed>
  <fix>3d</fix>
</trkpt>
<trkpt lat="40.072842" lon="-105.230575">
  <ele>1586.16</ele>
  <time>2026-08-27T18:26:34Z</time>
  <course>11.45</course>
  <speed>0.0</speed>
  <fix>3d</fix>
</trkpt>
<trkpt lat="40.072842" lon="-105.230575">
  <ele>1586.09</ele>
  <time>2026-08-27T18:26:34Z</time>
  <course>241.23</course>
  <speed>0.0</speed>
  <fix>3d</fix>
</trkpt>
<trkpt lat="40.072842" lon="-105.230575">
  <ele>1586.16</ele>
  <time>2026-08-27T18:26:34Z</time>
  <course>11.44</course>
  <speed>0.0</speed>
  <fix>3d</fix>
</trkpt>
<trkpt lat="40.072842" lon="-105.230575">
  <ele>1586.09</ele>
  <time>2026-08-27T18:26:34Z</time>
  <course>93.08</course>
  <speed>0.0</speed>
  <fix>3d</fix>
</trkpt>
<trkpt lat="40.072842" lon="-105.230575">
  <ele>1586.17</ele>
  <time>2026-08-27T18:26:34Z</time>
  <course>11.44</course>
  <speed>0.0</speed>
  <fix>3d</fix>
</trkpt>
<trkpt lat="40.072842" lon="-105.230575">
  <ele>1586.09</ele>
  <time>2026-08-27T18:26:34Z</time>
  <course>317.31</course>
  <speed>0.0</speed>
  <fix>3d</fix>
</trkpt>
<trkpt lat="40.072842" lon="-105.230575">
  <ele>1586.17</ele>
  <time>2026-08-27T18:26:34Z</time>
  <course>11.43</course>
  <speed>0.01</speed>
  <fix>3d</fix>
</trkpt>
<trkpt lat="40.072842" lon="-105.230575">
  <ele>1586.09</ele>
  <time>2026-08-27T18:26:34Z</time>
  <course>265.24</course>
  <speed>0.0</speed>
  <fix>3d</fix>
</trkpt>
<trkpt lat="40.072842" lon="-105.230575">
  <ele>1586.17</ele>
  <time>2026-08-27T18:26:34Z</time>
  <course>11.43</course>
  <speed>0.01</speed>
  <fix>3d</fix>
</trkpt>
<trkpt lat="40.072842" lon="-105.230575">
  <ele>1586.09</ele>
  <time>2026-08-27T18:26:34Z</time>
  <course>261.76</course>
  <speed>0.0</speed>
  <fix>3d</fix>
</trkpt>
<trkpt lat="40.072842" lon="-105.230575">
  <ele>1586.17</ele>
  <time>2026-08-27T18:26:34Z</time>
  <course>11.42</course>
  <speed>0.01</speed>
  <fix>3d</fix>
</trkpt>
<trkpt lat="40.072842" lon="-105.230575">
  <ele>1586.09</ele>
  <time>2026-08-27T18:26:34Z</time>
  <course>266.78</course>
  <speed>0.0</speed>
  <fix>3d</fix>
</trkpt>
<trkpt lat="40.072842" lon="-105.230575">
  <ele>1586.17</ele>
  <time>2026-08-27T18:26:34Z</time>
  <course>11.42</course>
  <speed>0.01414213562373095</speed>
  <fix>3d</fix>
</trkpt>
<trkpt lat="40.072842" lon="-105.230575">
  <ele>1586.09</ele>
  <time>2026-08-27T18:26:34Z</time>
  <course>266.53</course>
  <speed>0.0</speed>
  <fix>3d</fix>
</trkpt>
<trkpt lat="40.072842" lon="-105.230575">
  <ele>1586.17</ele>
  <time>2026-08-27T18:26:34Z</time>
  <course>11.42</course>
  <speed>0.01414213562373095</speed>
  <fix>3d</fix>
</trkpt>
<trkpt lat="40.072842" lon="-105.230575">
  <ele>1586.09</ele>
  <time>2026-08-27T18:26:34Z</time>
  <course>265.88</course>
  <speed>0.0</speed>
  <fix>3d</fix>
</trkpt>
<trkpt lat="40.072842" lon="-105.230575">
  <ele>1586.17</ele>
  <time>2026-08-27T18:26:34Z</time>
  <course>11.41</course>
  <speed>0.01414213562373095</speed>
  <fix>3d</fix>
</trkpt>
<trkpt lat="40.072842" lon="-105.230575">
  <ele>1586.09</ele>
  <time>2026-08-27T18:26:34Z</time>
  <course>201.27</course>
  <speed>0.0</speed>
  <fix>3d</fix>
</trkpt>
<trkpt lat="40.072842" lon="-105.230575">
  <ele>1586.17</ele>
  <time>2026-08-27T18:26:34Z</time>
  <course>11.41</course>
  <speed>0.022360679774997897</speed>
  <fix>3d</fix>
</trkpt>
<trkpt lat="40.072842" lon="-105.230575">
  <ele>1586.09</ele>
  <time>2026-08-27T18:26:34Z</time>
  <course>250.46</course>
  <speed>0.0</speed>
  <fix>3d</fix>
</trkpt>
<trkpt lat="40.072842" lon="-105.230575">
  <ele>1586.17</ele>
  <time>2026-08-27T18:26:34Z</time>
  <course>11.4</course>
  <speed>0.01414213562373095</speed>
  <fix>3d</fix>
</trkpt>
<trkpt lat="40.072842" lon="-105.230575">
  <ele>1586.09</ele>
  <time>2026-08-27T18:26:34Z</time>
  <course>265.71</course>
  <speed>0.0</speed>
  <fix>3d</fix>
</trkpt>
<trkpt lat="40.072842" lon="-105.230575">
  <ele>1586.17</ele>
  <time>2026-08-27T18:26:34Z</time>
  <course>11.4</course>
  <speed>0.01414213562373095</speed>
  <fix>3d</fix>
</trkpt>
<trkpt lat="40.072842" lon="-105.230575">
  <ele>1586.09</ele>
  <time>2026-08-27T18:26:34Z</time>
  <course>261.82</course>
  <speed>0.0</speed>
  <fix>3d</fix>
</trkpt>
<trkpt lat="40.072842" lon="-105.230575">
  <ele>1586.17</ele>
  <time>2026-08-27T18:26:34Z</time>
  <course>11.4</course>
  <speed>0.01414213562373095</speed>
  <fix>3d</fix>
</trkpt>
<trkpt lat="40.072842" lon="-105.230575">
  <ele>1586.09</ele>
  <time>2026-08-27T18:26:34Z</time>
  <course>266.9</course>
  <speed>0.0</speed>
  <fix>3d</fix>
</trkpt>
<trkpt lat="40.072842" lon="-105.230575">
  <ele>1586.17</ele>
  <time>2026-08-27T18:26:34Z</time>
  <course>11.39</course>
  <speed>0.01</speed>
  <fix>3d</fix>
</trkpt>
<trkpt lat="40.072842" lon="-105.230575">
  <ele>1586.09</ele>
  <time>2026-08-27T18:26:34Z</time>
  <course>266.49</course>
  <speed>0.0</speed>
  <fix>3d</fix>
</trkpt>
<trkpt lat="40.072842" lon="-105.230575">
  <ele>1586.17</ele>
  <time>2026-08-27T18:26:34Z</time>
  <course>11.39</course>
  <speed>0.0</speed>
  <fix>3d</fix>
</trkpt>
<trkpt lat="40.072842" lon="-105.230575">
  <ele>1586.09</ele>
  <time>2026-08-27T18:26:34Z</time>
  <course>265.87</course>
  <speed>0.0</speed>
  <fix>3d</fix>
</trkpt>
<trkpt lat="40.072842" lon="-105.230575">
  <ele>1586.17</ele>
  <time>2026-08-27T18:26:34Z</time>
  <course>11.39</course>
  <speed>0.0</speed>
  <fix>3d</fix>
</trkpt>
<trkpt lat="40.072842" lon="-105.230575">
  <ele>1586.09</ele>
  <time>2026-08-27T18:26:34Z</time>
  <course>342.51</course>
  <speed>0.0</speed>
  <fix>3d</fix>
</trkpt>
<trkpt lat="40.072842" lon="-105.230575">
  <ele>1586.17</ele>
  <time>2026-08-27T18:26:34Z</time>
  <course>11.38</course>
  <speed>0.0</speed>
  <fix>3d</fix>
</trkpt>
<trkpt lat="40.072842" lon="-105.230575">
  <ele>1586.09</ele>
  <time>2026-08-27T18:26:34Z</time>
  <course>325.06</course>
  <speed>0.0</speed>
  <fix>3d</fix>
</trkpt>
<trkpt lat="40.072842" lon="-105.230575">
  <ele>1586.17</ele>
  <time>2026-08-27T18:26:34Z</time>
  <course>11.38</course>
  <speed>0.0</speed>
  <fix>3d</fix>
</trkpt>
<trkpt lat="40.072842" lon="-105.230575">
  <ele>1586.09</ele>
  <time>2026-08-27T18:26:34Z</time>
  <course>308.52</course>
  <speed>0.0</speed>
  <fix>3d</fix>
</trkpt>
<trkpt lat="40.072842" lon="-105.230575">
  <ele>1586.17</ele>
  <time>2026-08-27T18:26:34Z</time>
  <course>11.37</course>
  <speed>0.0</speed>
  <fix>3d</fix>
</trkpt>
<trkpt lat="40.072842" lon="-105.230575">
  <ele>1586.09</ele>
  <time>2026-08-27T18:26:34Z</time>
  <course>185.68</course>
  <speed>0.0</speed>
  <fix>3d</fix>
</trkpt>
<trkpt lat="40.072842" lon="-105.230575">
  <ele>1586.17</ele>
  <time>2026-08-27T18:26:34Z</time>
  <course>11.37</course>
  <speed>0.0</speed>
  <fix>3d</fix>
</trkpt>
<trkpt lat="40.072842" lon="-105.230575">
  <ele>1586.09</ele>
  <time>2026-08-27T18:26:34Z</time>
  <course>196.88</course>
  <speed>0.0</speed>
  <fix>3d</fix>
</trkpt>
<trkpt lat="40.072842" lon="-105.230575">
  <ele>1586.17</ele>
  <time>2026-08-27T18:26:34Z</time>
  <course>11.37</course>
  <speed>0.0</speed>
  <fix>3d</fix>
</trkpt>
<trkpt lat="40.072842" lon="-105.230575">
  <ele>1586.09</ele>
  <time>2026-08-27T18:26:34Z</time>
  <course>299.71</course>
  <speed>0.0</speed>
  <fix>3d</fix>
</trkpt>
<trkpt lat="40.072842" lon="-105.230575">
  <ele>1586.17</ele>
  <time>2026-08-27T18:26:34Z</time>
  <course>11.36</course>
  <speed>0.0</speed>
  <fix>3d</fix>
</trkpt>
<trkpt lat="40.072842" lon="-105.230575">
  <ele>1586.09</ele>
  <time>2026-08-27T18:26:34Z</time>
  <course>285.75</course>
  <speed>0.0</speed>
  <fix>3d</fix>
</trkpt>
<trkpt lat="40.072842" lon="-105.230575">
  <ele>1586.17</ele>
  <time>2026-08-27T18:26:34Z</time>
  <course>11.36</course>
  <speed>0.0</speed>
  <fix>3d</fix>
</trkpt>
<trkpt lat="40.072842" lon="-105.230575">
  <ele>1586.09</ele>
  <time>2026-08-27T18:26:34Z</time>
  <course>283.54</course>
  <speed>0.0</speed>
  <fix>3d</fix>
</trkpt>
<trkpt lat="40.072842" lon="-105.230575">
  <ele>1586.17</ele>
  <time>2026-08-27T18:26:34Z</time>
  <course>11.35</course>
  <speed>0.0</speed>
  <fix>3d</fix>
</trkpt>
<trkpt lat="40.072842" lon="-105.230575">
  <ele>1586.09</ele>
  <time>2026-08-27T18:26:34Z</time>
  <course>286.28</course>
  <speed>0.0</speed>
  <fix>3d</fix>
</trkpt>
<trkpt lat="40.072842" lon="-105.230575">
  <ele>1586.17</ele>
  <time>2026-08-27T18:26:34Z</time>
  <course>11.34</course>
  <speed>0.0</speed>
  <fix>3d</fix>
</trkpt>
<trkpt lat="40.072842" lon="-105.230575">
  <ele>1586.09</ele>
  <time>2026-08-27T18:26:34Z</time>
  <course>286.12</course>
  <speed>0.0</speed>
  <fix>3d</fix>
</trkpt>
<trkpt lat="40.072842" lon="-105.230575">
  <ele>1586.16</ele>
  <time>2026-08-27T18:26:34Z</time>
  <course>11.33</course>
  <speed>0.0</speed>
  <fix>3d</fix>
</trkpt>
<trkpt lat="40.072842" lon="-105.230575">
  <ele>1586.09</ele>
  <time>2026-08-27T18:26:34Z</time>
  <course>285.67</course>
  <speed>0.0</speed>
  <fix>3d</fix>
</trkpt>
<trkpt lat="40.072842" lon="-105.230575">
  <ele>1586.16</ele>
  <time>2026-08-27T18:26:34Z</time>
  <course>11.32</course>
  <speed>0.0</speed>
  <fix>3d</fix>
</trkpt>
<trkpt lat="40.072842" lon="-105.230575">
  <ele>1586.09</ele>
  <time>2026-08-27T18:26:34Z</time>
  <course>285.62</course>
  <speed>0.0</speed>
  <fix>3d</fix>
</trkpt>
<trkpt lat="40.072842" lon="-105.230575">
  <ele>1586.16</ele>
  <time>2026-08-27T18:26:34Z</time>
  <course>11.31</course>
  <speed>0.0</speed>
  <fix>3d</fix>
</trkpt>
<trkpt lat="40.072842" lon="-105.230575">
  <ele>1586.09</ele>
  <time>2026-08-27T18:26:34Z</time>
  <course>285.56</course>
  <speed>0.0</speed>
  <fix>3d</fix>
</trkpt>
<trkpt lat="40.072842" lon="-105.230575">
  <ele>1586.16</ele>
  <time>2026-08-27T18:26:34Z</time>
  <course>11.3</course>
  <speed>0.0</speed>
  <fix>3d</fix>
</trkpt>
<trkpt lat="40.072842" lon="-105.230575">
  <ele>1586.09</ele>
  <time>2026-08-27T18:26:34Z</time>
  <course>285.45</course>
  <speed>0.0</speed>
  <fix>3d</fix>
</trkpt>
<trkpt lat="40.072842" lon="-105.230575">
  <ele>1586.16</ele>
  <time>2026-08-27T18:26:34Z</time>
  <course>11.28</course>
  <speed>0.0</speed>
  <fix>3d</fix>
</trkpt>
<trkpt lat="40.072842" lon="-105.230575">
  <ele>1586.09</ele>
  <time>2026-08-27T18:26:34Z</time>
  <course>285.34</course>
  <speed>0.0</speed>
  <fix>3d</fix>
</trkpt>
<trkpt lat="40.072842" lon="-105.230575">
  <ele>1586.16</ele>
  <time>2026-08-27T18:26:34Z</time>
  <course>11.26</course>
  <speed>0.0</speed>
  <fix>3d</fix>
</trkpt>
<trkpt lat="40.072842" lon="-105.230575">
  <ele>1586.09</ele>
  <time>2026-08-27T18:26:34Z</time>
  <course>285.23</course>
  <speed>0.0</speed>
  <fix>3d</fix>
</trkpt>
<trkpt lat="40.072842" lon="-105.230575">
  <ele>1586.16</ele>
  <time>2026-08-27T18:26:34Z</time>
  <course>11.24</course>
  <speed>0.0</speed>
  <fix>3d</fix>
</trkpt>
<trkpt lat="40.072842" lon="-105.230575">
  <ele>1586.09</ele>
  <time>2026-08-27T18:26:34Z</time>
  <course>280.42</course>
  <speed>0.0</speed>
  <fix>3d</fix>
</trkpt>
<trkpt lat="40.072842" lon="-105.230575">
  <ele>1586.16</ele>
  <time>2026-08-27T18:26:34Z</time>
  <course>11.22</course>
  <speed>0.0</speed>
  <fix>3d</fix>
</trkpt>
<trkpt lat="40.072842" lon="-105.230575">
  <ele>1586.09</ele>
  <time>2026-08-27T18:26:34Z</time>
  <course>265.94</course>
  <speed>0.0</speed>
  <fix>3d</fix>
</trkpt>
<trkpt lat="40.072842" lon="-105.230575">
  <ele>1586.16</ele>
  <time>2026-08-27T18:26:34Z</time>
  <course>11.2</course>
  <speed>0.0</speed>
  <fix>3d</fix>
</trkpt>
<trkpt lat="40.072842" lon="-105.230575">
  <ele>1586.09</ele>
  <time>2026-08-27T18:26:34Z</time>
  <course>256.65</course>
  <speed>0.0</speed>
  <fix>3d</fix>
</trkpt>
<trkpt lat="40.072842" lon="-105.230575">
  <ele>1586.16</ele>
  <time>2026-08-27T18:26:34Z</time>
  <course>11.18</course>
  <speed>0.0</speed>
  <fix>3d</fix>
</trkpt>
<trkpt lat="40.072842" lon="-105.230575">
  <ele>1586.09</ele>
  <time>2026-08-27T18:26:34Z</time>
  <course>236.22</course>
  <speed>0.0</speed>
  <fix>3d</fix>
</trkpt>
<trkpt lat="40.072842" lon="-105.230575">
  <ele>1586.16</ele>
  <time>2026-08-27T18:26:34Z</time>
  <course>11.15</course>
  <speed>0.0</speed>
  <fix>3d</fix>
</trkpt>
<trkpt lat="40.072842" lon="-105.230575">
  <ele>1586.09</ele>
  <time>2026-08-27T18:26:34Z</time>
  <course>274.44</course>
  <speed>0.0</speed>
  <fix>3d</fix>
</trkpt>
<trkpt lat="40.072842" lon="-105.230575">
  <ele>1586.16</ele>
  <time>2026-08-27T18:26:34Z</time>
  <course>11.13</course>
  <speed>0.01</speed>
  <fix>3d</fix>
</trkpt>
<trkpt lat="40.072842" lon="-105.230575">
  <ele>1586.09</ele>
  <time>2026-08-27T18:26:34Z</time>
  <course>270.65</course>
  <speed>0.0</speed>
  <fix>3d</fix>
</trkpt>
<trkpt lat="40.072842" lon="-105.230575">
  <ele>1586.16</ele>
  <time>2026-08-27T18:26:34Z</time>
  <course>11.1</course>
  <speed>0.01</speed>
  <fix>3d</fix>
</trkpt>
<trkpt lat="40.072842" lon="-105.230575">
  <ele>1586.09</ele>
  <time>2026-08-27T18:26:34Z</time>
  <course>270.65</course>
  <speed>0.0</speed>
  <fix>3d</fix>
</trkpt>
<trkpt lat="40.072842" lon="-105.230575">
  <ele>1586.16</ele>
  <time>2026-08-27T18:26:34Z</time>
  <course>11.07</course>
  <speed>0.01</speed>
  <fix>3d</fix>
</trkpt>
<trkpt lat="40.072842" lon="-105.230575">
  <ele>1586.09</ele>
  <time>2026-08-27T18:26:34Z</time>
  <course>272.1</course>
  <speed>0.0</speed>
  <fix>3d</fix>
</trkpt>
<trkpt lat="40.072842" lon="-105.230575">
  <ele>1586.16</ele>
  <time>2026-08-27T18:26:34Z</time>
  <course>11.04</course>
  <speed>0.01</speed>
  <fix>3d</fix>
</trkpt>
<trkpt lat="40.072842" lon="-105.230575">
  <ele>1586.09</ele>
  <time>2026-08-27T18:26:34Z</time>
  <course>270.35</course>
  <speed>0.0</speed>
  <fix>3d</fix>
</trkpt>
<trkpt lat="40.072842" lon="-105.230575">
  <ele>1586.16</ele>
  <time>2026-08-27T18:26:34Z</time>
  <course>11.01</course>
  <speed>0.01</speed>
  <fix>3d</fix>
</trkpt>
<trkpt lat="40.072842" lon="-105.230575">
  <ele>1586.09</ele>
  <time>2026-08-27T18:26:34Z</time>
  <course>270.22</course>
  <speed>0.0</speed>
  <fix>3d</fix>
</trkpt>
<trkpt lat="40.072842" lon="-105.230575">
  <ele>1586.16</ele>
  <time>2026-08-27T18:26:34Z</time>
  <course>10.98</course>
  <speed>0.01</speed>
  <fix>3d</fix>
</trkpt>
<trkpt lat="40.072842" lon="-105.230575">
  <ele>1586.09</ele>
  <time>2026-08-27T18:26:34Z</time>
  <course>270.93</course>
  <speed>0.0</speed>
  <fix>3d</fix>
</trkpt>
<trkpt lat="40.072842" lon="-105.230575">
  <ele>1586.16</ele>
  <time>2026-08-27T18:26:34Z</time>
  <course>10.95</course>
  <speed>0.01414213562373095</speed>
  <fix>3d</fix>
</trkpt>
<trkpt lat="40.072842" lon="-105.230575">
  <ele>1586.09</ele>
  <time>2026-08-27T18:26:34Z</time>
  <course>270.01</course>
  <speed>0.0</speed>
  <fix>3d</fix>
</trkpt>
<trkpt lat="40.072842" lon="-105.230575">
  <ele>1586.16</ele>
  <time>2026-08-27T18:26:34Z</time>
  <course>10.91</course>
  <speed>0.01414213562373095</speed>
  <fix>3d</fix>
</trkpt>
<trkpt lat="40.072842" lon="-105.230575">
  <ele>1586.09</ele>
  <time>2026-08-27T18:26:34Z</time>
  <course>269.91</course>
  <speed>0.0</speed>
  <fix>3d</fix>
</trkpt>
<trkpt lat="40.072842" lon="-105.230575">
  <ele>1586.16</ele>
  <time>2026-08-27T18:26:34Z</time>
  <course>10.88</course>
  <speed>0.01414213562373095</speed>
  <fix>3d</fix>
</trkpt>
<trkpt lat="40.072842" lon="-105.230575">
  <ele>1586.09</ele>
  <time>2026-08-27T18:26:34Z</time>
  <course>270.28</course>
  <speed>0.0</speed>
  <fix>3d</fix>
</trkpt>
<trkpt lat="40.072842" lon="-105.230575">
  <ele>1586.17</ele>
  <time>2026-08-27T18:26:34Z</time>
  <course>10.84</course>
  <speed>0.01414213562373095</speed>
  <fix>3d</fix>
</trkpt>
<trkpt lat="40.072842" lon="-105.230575">
  <ele>1586.09</ele>
  <time>2026-08-27T18:26:34Z</time>
  <course>269.74</course>
  <speed>0.0</speed>
  <fix>3d</fix>
</trkpt>
<trkpt lat="40.072842" lon="-105.230575">
  <ele>1586.17</ele>
  <time>2026-08-27T18:26:34Z</time>
  <course>10.8</course>
  <speed>0.01414213562373095</speed>
  <fix>3d</fix>
</trkpt>
<trkpt lat="40.072842" lon="-105.230575">
  <ele>1586.09</ele>
  <time>2026-08-27T18:26:34Z</time>
  <course>269.67</course>
  <speed>0.0</speed>
  <fix>3d</fix>
</trkpt>
<trkpt lat="40.0728419" lon="-105.230575">
  <ele>1586.17</ele>
  <time>2026-08-27T18:26:34Z</time>
  <course>10.76</course>
  <speed>0.01414213562373095</speed>
  <fix>3d</fix>
</trkpt>
<trkpt lat="40.072842" lon="-105.230575">
  <ele>1586.09</ele>
  <time>2026-08-27T18:26:34Z</time>
  <course>269.58</course>
  <speed>0.0</speed>
  <fix>3d</fix>
</trkpt>
<trkpt lat="40.0728419" lon="-105.230575">
  <ele>1586.17</ele>
  <time>2026-08-27T18:26:34Z</time>
  <course>10.72</course>
  <speed>0.022360679774997897</speed>
  <fix>3d</fix>
</trkpt>
<trkpt lat="40.072842" lon="-105.230575">
  <ele>1586.09</ele>
  <time>2026-08-27T18:26:34Z</time>
  <course>282.62</course>
  <speed>0.0</speed>
  <fix>3d</fix>
</trkpt>
<trkpt lat="40.0728419" lon="-105.230575">
  <ele>1586.17</ele>
  <time>2026-08-27T18:26:34Z</time>
  <course>10.68</course>
  <speed>0.022360679774997897</speed>
  <fix>3d</fix>
</trkpt>
<trkpt lat="40.072842" lon="-105.230575">
  <ele>1586.09</ele>
  <time>2026-08-27T18:26:34Z</time>
  <course>289.2</course>
  <speed>0.0</speed>
  <fix>3d</fix>
</trkpt>
<trkpt lat="40.0728419" lon="-105.2305749">
  <ele>1586.17</ele>
  <time>2026-08-27T18:26:34Z</time>
  <course>10.64</course>
  <speed>0.022360679774997897</speed>
  <fix>3d</fix>
</trkpt>
<trkpt lat="40.072842" lon="-105.230575">
  <ele>1586.09</ele>
  <time>2026-08-27T18:26:34Z</time>
  <course>269.08</course>
  <speed>0.0</speed>
  <fix>3d</fix>
</trkpt>
<trkpt lat="40.0728419" lon="-105.2305749">
  <ele>1586.17</ele>
  <time>2026-08-27T18:26:34Z</time>
  <course>10.59</course>
  <speed>0.022360679774997897</speed>
  <fix>3d</fix>
</trkpt>
<trkpt lat="40.072842" lon="-105.230575">
  <ele>1586.09</ele>
  <time>2026-08-27T18:26:34Z</time>
  <course>267.15</course>
  <speed>0.0</speed>
  <fix>3d</fix>
</trkpt>
<trkpt lat="40.0728419" lon="-105.2305749">
  <ele>1586.17</ele>
  <time>2026-08-27T18:26:34Z</time>
  <course>10.55</course>
  <speed>0.022360679774997897</speed>
  <fix>3d</fix>
</trkpt>
<trkpt lat="40.072842" lon="-105.230575">
  <ele>1586.09</ele>
  <time>2026-08-27T18:26:34Z</time>
  <course>269.94</course>
  <speed>0.0</speed>
  <fix>3d</fix>
</trkpt>
<trkpt lat="40.0728419" lon="-105.2305749">
  <ele>1586.17</ele>
  <time>2026-08-27T18:26:34Z</time>
  <course>10.5</course>
  <speed>0.022360679774997897</speed>
  <fix>3d</fix>
</trkpt>
<trkpt lat="40.072842" lon="-105.230575">
  <ele>1586.09</ele>
  <time>2026-08-27T18:26:34Z</time>
  <course>269.71</course>
  <speed>0.0</speed>
  <fix>3d</fix>
</trkpt>
<trkpt lat="40.0728419" lon="-105.2305749">
  <ele>1586.17</ele>
  <time>2026-08-27T18:26:34Z</time>
  <course>10.46</course>
  <speed>0.022360679774997897</speed>
  <fix>3d</fix>
</trkpt>
<trkpt lat="40.072842" lon="-105.230575">
  <ele>1586.09</ele>
  <time>2026-08-27T18:26:34Z</time>
  <course>269.3</course>
  <speed>0.0</speed>
  <fix>3d</fix>
</trkpt>
<trkpt lat="40.0728419" lon="-105.2305749">
  <ele>1586.17</ele>
  <time>2026-08-27T18:26:34Z</time>
  <course>10.41</course>
  <speed>0.022360679774997897</speed>
  <fix>3d</fix>
</trkpt>
<trkpt lat="40.072842" lon="-105.230575">
  <ele>1586.09</ele>
  <time>2026-08-27T18:26:34Z</time>
  <course>269.24</course>
  <speed>0.0</speed>
  <fix>3d</fix>
</trkpt>
<trkpt lat="40.0728419" lon="-105.2305749">
  <ele>1586.17</ele>
  <time>2026-08-27T18:26:34Z</time>
  <course>10.36</course>
  <speed>0.022360679774997897</speed>
  <fix>3d</fix>
</trkpt>
<trkpt lat="40.072842" lon="-105.230575">
  <ele>1586.09</ele>
  <time>2026-08-27T18:26:34Z</time>
  <course>265.69</course>
  <speed>0.0</speed>
  <fix>3d</fix>
</trkpt>
<trkpt lat="40.0728419" lon="-105.2305749">
  <ele>1586.16</ele>
  <time>2026-08-27T18:26:34Z</time>
  <course>10.31</course>
  <speed>0.022360679774997897</speed>
  <fix>3d</fix>
</trkpt>
<trkpt lat="40.072842" lon="-105.230575">
  <ele>1586.09</ele>
  <time>2026-08-27T18:26:34Z</time>
  <course>259.56</course>
  <speed>0.0</speed>
  <fix>3d</fix>
</trkpt>
<trkpt lat="40.0728419" lon="-105.2305749">
  <ele>1586.16</ele>
  <time>2026-08-27T18:26:34Z</time>
  <course>10.26</course>
  <speed>0.022360679774997897</speed>
  <fix>3d</fix>
</trkpt>
<trkpt lat="40.072842" lon="-105.230575">
  <ele>1586.09</ele>
  <time>2026-08-27T18:26:34Z</time>
  <course>263.32</course>
  <speed>0.0</speed>
  <fix>3d</fix>
</trkpt>
<trkpt lat="40.0728419" lon="-105.2305749">
  <ele>1586.16</ele>
  <time>2026-08-27T18:26:34Z</time>
  <course>10.21</course>
  <speed>0.022360679774997897</speed>
  <fix>3d</fix>
</trkpt>
<trkpt lat="40.072842" lon="-105.230575">
  <ele>1586.09</ele>
  <time>2026-08-27T18:26:34Z</time>
  <course>269.46</course>
  <speed>0.0</speed>
  <fix>3d</fix>
</trkpt>
<trkpt lat="40.0728419" lon="-105.2305749">
  <ele>1586.16</ele>
  <time>2026-08-27T18:26:34Z</time>
  <course>10.16</course>
  <speed>0.022360679774997897</speed>
  <fix>3d</fix>
</trkpt>
<trkpt lat="40.072842" lon="-105.230575">
  <ele>1586.09</ele>
  <time>2026-08-27T18:26:34Z</time>
  <course>269.14</course>
  <speed>0.0</speed>
  <fix>3d</fix>
</trkpt>
<trkpt lat="40.0728419" lon="-105.2305749">
  <ele>1586.16</ele>
  <time>2026-08-27T18:26:34Z</time>
  <course>10.11</course>
  <speed>0.022360679774997897</speed>
  <fix>3d</fix>
</trkpt>
<trkpt lat="40.072842" lon="-105.230575">
  <ele>1586.09</ele>
  <time>2026-08-27T18:26:34Z</time>
  <course>268.24</course>
  <speed>0.0</speed>
  <fix>3d</fix>
</trkpt>
<trkpt lat="40.0728419" lon="-105.2305749">
  <ele>1586.16</ele>
  <time>2026-08-27T18:26:34Z</time>
  <course>10.06</course>
  <speed>0.022360679774997897</speed>
  <fix>3d</fix>
</trkpt>
<trkpt lat="40.072842" lon="-105.230575">
  <ele>1586.09</ele>
  <time>2026-08-27T18:26:34Z</time>
  <course>268.22</course>
  <speed>0.0</speed>
  <fix>3d</fix>
</trkpt>
<trkpt lat="40.0728419" lon="-105.2305749">
  <ele>1586.16</ele>
  <time>2026-08-27T18:26:34Z</time>
  <course>10.01</course>
  <speed>0.022360679774997897</speed>
  <fix>3d</fix>
</trkpt>
<trkpt lat="40.072842" lon="-105.230575">
  <ele>1586.09</ele>
  <time>2026-08-27T18:26:34Z</time>
  <course>268.25</course>
  <speed>0.0</speed>
  <fix>3d</fix>
</trkpt>
<trkpt lat="40.0728419" lon="-105.2305749">
  <ele>1586.16</ele>
  <time>2026-08-27T18:26:34Z</time>
  <course>9.96</course>
  <speed>0.022360679774997897</speed>
  <fix>3d</fix>
</trkpt>
<trkpt lat="40.072842" lon="-105.230575">
  <ele>1586.09</ele>
  <time>2026-08-27T18:26:34Z</time>
  <course>268.13</course>
  <speed>0.0</speed>
  <fix>3d</fix>
</trkpt>
<trkpt lat="40.0728419" lon="-105.2305749">
  <ele>1586.16</ele>
  <time>2026-08-27T18:26:34Z</time>
  <course>9.91</course>
  <speed>0.022360679774997897</speed>
  <fix>3d</fix>
</trkpt>
<trkpt lat="40.072842" lon="-105.230575">
  <ele>1586.09</ele>
  <time>2026-08-27T18:26:34Z</time>
  <course>268.07</course>
  <speed>0.0</speed>
  <fix>3d</fix>
</trkpt>
<trkpt lat="40.0728419" lon="-105.2305749">
  <ele>1586.17</ele>
  <time>2026-08-27T18:26:34Z</time>
  <course>9.86</course>
  <speed>0.022360679774997897</speed>
  <fix>3d</fix>
</trkpt>
<trkpt lat="40.072842" lon="-105.230575">
  <ele>1586.09</ele>
  <time>2026-08-27T18:26:34Z</time>
  <course>268.0</course>
  <speed>0.0</speed>
  <fix>3d</fix>
</trkpt>
<trkpt lat="40.0728419" lon="-105.2305749">
  <ele>1586.17</ele>
  <time>2026-08-27T18:26:34Z</time>
  <course>9.81</course>
  <speed>0.022360679774997897</speed>
  <fix>3d</fix>
</trkpt>
<trkpt lat="40.072842" lon="-105.230575">
  <ele>1586.09</ele>
  <time>2026-08-27T18:26:34Z</time>
  <course>267.95</course>
  <speed>0.0</speed>
  <fix>3d</fix>
</trkpt>
<trkpt lat="40.0728419" lon="-105.2305749">
  <ele>1586.17</ele>
  <time>2026-08-27T18:26:34Z</time>
  <course>9.77</course>
  <speed>0.022360679774997897</speed>
  <fix>3d</fix>
</trkpt>
<trkpt lat="40.072842" lon="-105.230575">
  <ele>1586.09</ele>
  <time>2026-08-27T18:26:34Z</time>
  <course>267.86</course>
  <speed>0.0</speed>
  <fix>3d</fix>
</trkpt>
<trkpt lat="40.0728419" lon="-105.2305749">
  <ele>1586.17</ele>
  <time>2026-08-27T18:26:34Z</time>
  <course>9.72</course>
  <speed>0.022360679774997897</speed>
  <fix>3d</fix>
</trkpt>
<trkpt lat="40.072842" lon="-105.230575">
  <ele>1586.09</ele>
  <time>2026-08-27T18:26:34Z</time>
  <course>267.84</course>
  <speed>0.0</speed>
  <fix>3d</fix>
</trkpt>
<trkpt lat="40.0728419" lon="-105.2305749">
  <ele>1586.17</ele>
  <time>2026-08-27T18:26:34Z</time>
  <course>9.67</course>
  <speed>0.022360679774997897</speed>
  <fix>3d</fix>
</trkpt>
<trkpt lat="40.072842" lon="-105.230575">
  <ele>1586.09</ele>
  <time>2026-08-27T18:26:34Z</time>
  <course>267.77</course>
  <speed>0.0</speed>
  <fix>3d</fix>
</trkpt>
<trkpt lat="40.0728419" lon="-105.2305749">
  <ele>1586.17</ele>
  <time>2026-08-27T18:26:34Z</time>
  <course>9.63</course>
  <speed>0.022360679774997897</speed>
  <fix>3d</fix>
</trkpt>
<trkpt lat="40.072842" lon="-105.230575">
  <ele>1586.09</ele>
  <time>2026-08-27T18:26:34Z</time>
  <course>267.73</course>
  <speed>0.0</speed>
  <fix>3d</fix>
</trkpt>
<trkpt lat="40.0728419" lon="-105.2305749">
  <ele>1586.17</ele>
  <time>2026-08-27T18:26:34Z</time>
  <course>9.58</course>
  <speed>0.022360679774997897</speed>
  <fix>3d</fix>
</trkpt>
<trkpt lat="40.072842" lon="-105.230575">
  <ele>1586.09</ele>
  <time>2026-08-27T18:26:34Z</time>
  <course>267.61</course>
  <speed>0.0</speed>
  <fix>3d</fix>
</trkpt>
<trkpt lat="40.0728419" lon="-105.2305749">
  <ele>1586.17</ele>
  <time>2026-08-27T18:26:34Z</time>
  <course>9.54</course>
  <speed>0.022360679774997897</speed>
  <fix>3d</fix>
</trkpt>
<trkpt lat="40.072842" lon="-105.230575">
  <ele>1586.09</ele>
  <time>2026-08-27T18:26:34Z</time>
  <course>267.63</course>
  <speed>0.0</speed>
  <fix>3d</fix>
</trkpt>
<trkpt lat="40.0728419" lon="-105.2305749">
  <ele>1586.17</ele>
  <time>2026-08-27T18:26:34Z</time>
  <course>9.49</course>
  <speed>0.022360679774997897</speed>
  <fix>3d</fix>
</trkpt>
<trkpt lat="40.072842" lon="-105.230575">
  <ele>1586.09</ele>
  <time>2026-08-27T18:26:34Z</time>
  <course>267.44</course>
  <speed>0.0</speed>
  <fix>3d</fix>
</trkpt>
<trkpt lat="40.0728419" lon="-105.2305749">
  <ele>1586.17</ele>
  <time>2026-08-27T18:26:34Z</time>
  <course>9.45</course>
  <speed>0.022360679774997897</speed>
  <fix>3d</fix>
</trkpt>
<trkpt lat="40.072842" lon="-105.230575">
  <ele>1586.09</ele>
  <time>2026-08-27T18:26:34Z</time>
  <course>267.47</course>
  <speed>0.0</speed>
  <fix>3d</fix>
</trkpt>
<trkpt lat="40.0728419" lon="-105.2305749">
  <ele>1586.17</ele>
  <time>2026-08-27T18:26:34Z</time>
  <course>9.41</course>
  <speed>0.022360679774997897</speed>
  <fix>3d</fix>
</trkpt>
<trkpt lat="40.072842" lon="-105.230575">
  <ele>1586.09</ele>
  <time>2026-08-27T18:26:34Z</time>
  <course>263.46</course>
  <speed>0.0</speed>
  <fix>3d</fix>
</trkpt>
<trkpt lat="40.0728419" lon="-105.2305749">
  <ele>1586.17</ele>
  <time>2026-08-27T18:26:34Z</time>
  <course>9.37</course>
  <speed>0.022360679774997897</speed>
  <fix>3d</fix>
</trkpt>
<trkpt lat="40.072842" lon="-105.230575">
  <ele>1586.09</ele>
  <time>2026-08-27T18:26:34Z</time>
  <course>267.8</course>
  <speed>0.0</speed>
  <fix>3d</fix>
</trkpt>
<trkpt lat="40.0728419" lon="-105.2305749">
  <ele>1586.17</ele>
  <time>2026-08-27T18:26:34Z</time>
  <course>9.32</course>
  <speed>0.022360679774997897</speed>
  <fix>3d</fix>
</trkpt>
<trkpt lat="40.072842" lon="-105.230575">
  <ele>1586.09</ele>
  <time>2026-08-27T18:26:34Z</time>
  <course>271.73</course>
  <speed>0.0</speed>
  <fix>3d</fix>
</trkpt>
<trkpt lat="40.0728419" lon="-105.2305749">
  <ele>1586.17</ele>
  <time>2026-08-27T18:26:34Z</time>
  <course>9.28</course>
  <speed>0.022360679774997897</speed>
  <fix>3d</fix>
</trkpt>
<trkpt lat="40.072842" lon="-105.230575">
  <ele>1586.09</ele>
  <time>2026-08-27T18:26:34Z</time>
  <course>267.56</course>
  <speed>0.0</speed>
  <fix>3d</fix>
</trkpt>
<trkpt lat="40.0728419" lon="-105.2305749">
  <ele>1586.16</ele>
  <time>2026-08-27T18:26:34Z</time>
  <course>9.24</course>
  <speed>0.022360679774997897</speed>
  <fix>3d</fix>
</trkpt>
<trkpt lat="40.072842" lon="-105.230575">
  <ele>1586.09</ele>
  <time>2026-08-27T18:26:34Z</time>
  <course>266.96</course>
  <speed>0.0</speed>
  <fix>3d</fix>
</trkpt>
<trkpt lat="40.0728419" lon="-105.2305749">
  <ele>1586.16</ele>
  <time>2026-08-27T18:26:34Z</time>
  <course>9.2</course>
  <speed>0.022360679774997897</speed>
  <fix>3d</fix>
</trkpt>
<trkpt lat="40.072842" lon="-105.230575">
  <ele>1586.09</ele>
  <time>2026-08-27T18:26:34Z</time>
  <course>266.99</course>
  <speed>0.0</speed>
  <fix>3d</fix>
</trkpt>
<trkpt lat="40.0728419" lon="-105.2305749">
  <ele>1586.16</ele>
  <time>2026-08-27T18:26:34Z</time>
  <course>9.16</course>
  <speed>0.022360679774997897</speed>
  <fix>3d</fix>
</trkpt>
<trkpt lat="40.072842" lon="-105.230575">
  <ele>1586.09</ele>
  <time>2026-08-27T18:26:34Z</time>
  <course>267.2</course>
  <speed>0.0</speed>
  <fix>3d</fix>
</trkpt>
<trkpt lat="40.0728419" lon="-105.2305749">
  <ele>1586.16</ele>
  <time>2026-08-27T18:26:34Z</time>
  <course>9.12</course>
  <speed>0.022360679774997897</speed>
  <fix>3d</fix>
</trkpt>
<trkpt lat="40.072842" lon="-105.230575">
  <ele>1586.09</ele>
  <time>2026-08-27T18:26:34Z</time>
  <course>266.99</course>
  <speed>0.0</speed>
  <fix>3d</fix>
</trkpt>
<trkpt lat="40.0728419" lon="-105.2305749">
  <ele>1586.16</ele>
  <time>2026-08-27T18:26:34Z</time>
  <course>9.08</course>
  <speed>0.022360679774997897</speed>
  <fix>3d</fix>
</trkpt>
<trkpt lat="40.072842" lon="-105.230575">
  <ele>1586.09</ele>
  <time>2026-08-27T18:26:34Z</time>
  <course>267.07</course>
  <speed>0.0</speed>
  <fix>3d</fix>
</trkpt>
<trkpt lat="40.0728419" lon="-105.2305749">
  <ele>1586.16</ele>
  <time>2026-08-27T18:26:34Z</time>
  <course>9.04</course>
  <speed>0.022360679774997897</speed>
  <fix>3d</fix>
</trkpt>
<trkpt lat="40.072842" lon="-105.230575">
  <ele>1586.09</ele>
  <time>2026-08-27T18:26:34Z</time>
  <course>267.18</course>
  <speed>0.0</speed>
  <fix>3d</fix>
</trkpt>
<trkpt lat="40.0728419" lon="-105.2305749">
  <ele>1586.16</ele>
  <time>2026-08-27T18:26:34Z</time>
  <course>9.01</course>
  <speed>0.022360679774997897</speed>
  <fix>3d</fix>
</trkpt>
<trkpt lat="40.072842" lon="-105.230575">
  <ele>1586.09</ele>
  <time>2026-08-27T18:26:34Z</time>
  <course>266.72</course>
  <speed>0.0</speed>
  <fix>3d</fix>
</trkpt>
<trkpt lat="40.0728419" lon="-105.2305749">
  <ele>1586.16</ele>
  <time>2026-08-27T18:26:34Z</time>
  <course>8.97</course>
  <speed>0.022360679774997897</speed>
  <fix>3d</fix>
</trkpt>
<trkpt lat="40.072842" lon="-105.230575">
  <ele>1586.09</ele>
  <time>2026-08-27T18:26:34Z</time>
  <course>267.0</course>
  <speed>0.0</speed>
  <fix>3d</fix>
</trkpt>
<trkpt lat="40.0728419" lon="-105.2305749">
  <ele>1586.16</ele>
  <time>2026-08-27T18:26:34Z</time>
  <course>8.93</course>
  <speed>0.022360679774997897</speed>
  <fix>3d</fix>
</trkpt>
<trkpt lat="40.072842" lon="-105.230575">
  <ele>1586.09</ele>
  <time>2026-08-27T18:26:34Z</time>
  <course>266.83</course>
  <speed>0.0</speed>
  <fix>3d</fix>
</trkpt>
<trkpt lat="40.0728419" lon="-105.2305749">
  <ele>1586.16</ele>
  <time>2026-08-27T18:26:34Z</time>
  <course>8.89</course>
  <speed>0.022360679774997897</speed>
  <fix>3d</fix>
</trkpt>
<trkpt lat="40.072842" lon="-105.230575">
  <ele>1586.09</ele>
  <time>2026-08-27T18:26:34Z</time>
  <course>266.81</course>
  <speed>0.0</speed>
  <fix>3d</fix>
</trkpt>
<trkpt lat="40.0728419" lon="-105.2305749">
  <ele>1586.15</ele>
  <time>2026-08-27T18:26:34Z</time>
  <course>8.86</course>
  <speed>0.022360679774997897</speed>
  <fix>3d</fix>
</trkpt>
<trkpt lat="40.072842" lon="-105.230575">
  <ele>1586.09</ele>
  <time>2026-08-27T18:26:34Z</time>
  <course>267.03</course>
  <speed>0.0</speed>
  <fix>3d</fix>
</trkpt>
<trkpt lat="40.0728419" lon="-105.2305749">
  <ele>1586.15</ele>
  <time>2026-08-27T18:26:34Z</time>
  <course>8.82</course>
  <speed>0.022360679774997897</speed>
  <fix>3d</fix>
</trkpt>
<trkpt lat="40.072842" lon="-105.230575">
  <ele>1586.09</ele>
  <time>2026-08-27T18:26:34Z</time>
  <course>266.53</course>
  <speed>0.0</speed>
  <fix>3d</fix>
</trkpt>
<trkpt lat="40.0728419" lon="-105.2305749">
  <ele>1586.15</ele>
  <time>2026-08-27T18:26:34Z</time>
  <course>8.79</course>
  <speed>0.01414213562373095</speed>
  <fix>3d</fix>
</trkpt>
<trkpt lat="40.072842" lon="-105.230575">
  <ele>1586.09</ele>
  <time>2026-08-27T18:26:34Z</time>
  <course>266.81</course>
  <speed>0.0</speed>
  <fix>3d</fix>
</trkpt>
<trkpt lat="40.0728419" lon="-105.2305749">
  <ele>1586.15</ele>
  <time>2026-08-27T18:26:34Z</time>
  <course>8.75</course>
  <speed>0.01414213562373095</speed>
  <fix>3d</fix>
</trkpt>
<trkpt lat="40.072842" lon="-105.230575">
  <ele>1586.09</ele>
  <time>2026-08-27T18:26:34Z</time>
  <course>266.92</course>
  <speed>0.0</speed>
  <fix>3d</fix>
</trkpt>
<trkpt lat="40.0728419" lon="-105.2305749">
  <ele>1586.15</ele>
  <time>2026-08-27T18:26:34Z</time>
  <course>8.72</course>
  <speed>0.01414213562373095</speed>
  <fix>3d</fix>
</trkpt>
<trkpt lat="40.072842" lon="-105.230575">
  <ele>1586.09</ele>
  <time>2026-08-27T18:26:34Z</time>
  <course>266.09</course>
  <speed>0.0</speed>
  <fix>3d</fix>
</trkpt>
<trkpt lat="40.0728419" lon="-105.2305749">
  <ele>1586.16</ele>
  <time>2026-08-27T18:26:34Z</time>
  <course>8.68</course>
  <speed>0.01414213562373095</speed>
  <fix>3d</fix>
</trkpt>
<trkpt lat="40.072842" lon="-105.230575">
  <ele>1586.09</ele>
  <time>2026-08-27T18:26:34Z</time>
  <course>266.69</course>
  <speed>0.0</speed>
  <fix>3d</fix>
</trkpt>
<trkpt lat="40.0728419" lon="-105.2305749">
  <ele>1586.16</ele>
  <time>2026-08-27T18:26:34Z</time>
  <course>8.65</course>
  <speed>0.01414213562373095</speed>
  <fix>3d</fix>
</trkpt>
<trkpt lat="40.072842" lon="-105.230575">
  <ele>1586.09</ele>
  <time>2026-08-27T18:26:34Z</time>
  <course>266.74</course>
  <speed>0.0</speed>
  <fix>3d</fix>
</trkpt>
<trkpt lat="40.0728419" lon="-105.2305749">
  <ele>1586.16</ele>
  <time>2026-08-27T18:26:34Z</time>
  <course>8.61</course>
  <speed>0.01414213562373095</speed>
  <fix>3d</fix>
</trkpt>
<trkpt lat="40.072842" lon="-105.230575">
  <ele>1586.09</ele>
  <time>2026-08-27T18:26:34Z</time>
  <course>266.2</course>
  <speed>0.0</speed>
  <fix>3d</fix>
</trkpt>
<trkpt lat="40.0728419" lon="-105.2305749">
  <ele>1586.16</ele>
  <time>2026-08-27T18:26:34Z</time>
  <course>8.58</course>
  <speed>0.01414213562373095</speed>
  <fix>3d</fix>
</trkpt>
<trkpt lat="40.072842" lon="-105.230575">
  <ele>1586.09</ele>
  <time>2026-08-27T18:26:34Z</time>
  <course>266.69</course>
  <speed>0.0</speed>
  <fix>3d</fix>
</trkpt>
<trkpt lat="40.0728419" lon="-105.2305749">
  <ele>1586.16</ele>
  <time>2026-08-27T18:26:34Z</time>
  <course>8.55</course>
  <speed>0.01414213562373095</speed>
  <fix>3d</fix>
</trkpt>
<trkpt lat="40.072842" lon="-105.230575">
  <ele>1586.09</ele>
  <time>2026-08-27T18:26:34Z</time>
  <course>266.57</course>
  <speed>0.0</speed>
  <fix>3d</fix>
</trkpt>
<trkpt lat="40.0728419" lon="-105.2305749">
  <ele>1586.17</ele>
  <time>2026-08-27T18:26:34Z</time>
  <course>8.52</course>
  <speed>0.01414213562373095</speed>
  <fix>3d</fix>
</trkpt>
<trkpt lat="40.072842" lon="-105.230575">
  <ele>1586.09</ele>
  <time>2026-08-27T18:26:34Z</time>
  <course>265.65</course>
  <speed>0.0</speed>
  <fix>3d</fix>
</trkpt>
<trkpt lat="40.0728419" lon="-105.2305749">
  <ele>1586.17</ele>
  <time>2026-08-27T18:26:34Z</time>
  <course>8.48</course>
  <speed>0.01414213562373095</speed>
  <fix>3d</fix>
</trkpt>
<trkpt lat="40.072842" lon="-105.230575">
  <ele>1586.09</ele>
  <time>2026-08-27T18:26:34Z</time>
  <course>266.61</course>
  <speed>0.0</speed>
  <fix>3d</fix>
</trkpt>
<trkpt lat="40.0728419" lon="-105.2305749">
  <ele>1586.17</ele>
  <time>2026-08-27T18:26:34Z</time>
  <course>8.45</course>
  <speed>0.01414213562373095</speed>
  <fix>3d</fix>
</trkpt>
<trkpt lat="40.072842" lon="-105.230575">
  <ele>1586.09</ele>
  <time>2026-08-27T18:26:34Z</time>
  <course>266.64</course>
  <speed>0.0</speed>
  <fix>3d</fix>
</trkpt>
<trkpt lat="40.0728419" lon="-105.2305749">
  <ele>1586.17</ele>
  <time>2026-08-27T18:26:34Z</time>
  <course>8.42</course>
  <speed>0.01414213562373095</speed>
  <fix>3d</fix>
</trkpt>
<trkpt lat="40.072842" lon="-105.230575">
  <ele>1586.09</ele>
  <time>2026-08-27T18:26:34Z</time>
  <course>265.78</course>
  <speed>0.0</speed>
  <fix>3d</fix>
</trkpt>
<trkpt lat="40.0728419" lon="-105.2305749">
  <ele>1586.17</ele>
  <time>2026-08-27T18:26:34Z</time>
  <course>8.39</course>
  <speed>0.01414213562373095</speed>
  <fix>3d</fix>
</trkpt>
<trkpt lat="40.072842" lon="-105.230575">
  <ele>1586.09</ele>
  <time>2026-08-27T18:26:34Z</time>
  <course>266.52</course>
  <speed>0.0</speed>
  <fix>3d</fix>
</trkpt>
<trkpt lat="40.0728419" lon="-105.2305749">
  <ele>1586.17</ele>
  <time>2026-08-27T18:26:34Z</time>
  <course>8.36</course>
  <speed>0.01414213562373095</speed>
  <fix>3d</fix>
</trkpt>
<trkpt lat="40.072842" lon="-105.230575">
  <ele>1586.09</ele>
  <time>2026-08-27T18:26:34Z</time>
  <course>266.58</course>
  <speed>0.0</speed>
  <fix>3d</fix>
</trkpt>
<trkpt lat="40.0728419" lon="-105.2305749">
  <ele>1586.18</ele>
  <time>2026-08-27T18:26:34Z</time>
  <course>8.33</course>
  <speed>0.01414213562373095</speed>
  <fix>3d</fix>
</trkpt>
<trkpt lat="40.072842" lon="-105.230575">
  <ele>1586.09</ele>
  <time>2026-08-27T18:26:34Z</time>
  <course>265.8</course>
  <speed>0.0</speed>
  <fix>3d</fix>
</trkpt>
<trkpt lat="40.0728419" lon="-105.2305749">
  <ele>1586.18</ele>
  <time>2026-08-27T18:26:34Z</time>
  <course>8.3</course>
  <speed>0.01414213562373095</speed>
  <fix>3d</fix>
</trkpt>
<trkpt lat="40.072842" lon="-105.230575">
  <ele>1586.09</ele>
  <time>2026-08-27T18:26:34Z</time>
  <course>266.48</course>
  <speed>0.0</speed>
  <fix>3d</fix>
</trkpt>
<trkpt lat="40.0728419" lon="-105.2305749">
  <ele>1586.18</ele>
  <time>2026-08-27T18:26:34Z</time>
  <course>8.27</course>
  <speed>0.01414213562373095</speed>
  <fix>3d</fix>
</trkpt>
<trkpt lat="40.072842" lon="-105.230575">
  <ele>1586.09</ele>
  <time>2026-08-27T18:26:34Z</time>
  <course>266.56</course>
  <speed>0.0</speed>
  <fix>3d</fix>
</trkpt>
<trkpt lat="40.0728419" lon="-105.2305749">
  <ele>1586.17</ele>
  <time>2026-08-27T18:26:34Z</time>
  <course>8.24</course>
  <speed>0.01414213562373095</speed>
  <fix>3d</fix>
</trkpt>
<trkpt lat="40.072842" lon="-105.230575">
  <ele>1586.09</ele>
  <time>2026-08-27T18:26:34Z</time>
  <course>265.93</course>
  <speed>0.0</speed>
  <fix>3d</fix>
</trkpt>
<trkpt lat="40.0728419" lon="-105.2305749">
  <ele>1586.17</ele>
  <time>2026-08-27T18:26:34Z</time>
  <course>8.21</course>
  <speed>0.01414213562373095</speed>
  <fix>3d</fix>
</trkpt>
<trkpt lat="40.072842" lon="-105.230575">
  <ele>1586.09</ele>
  <time>2026-08-27T18:26:34Z</time>
  <course>266.35</course>
  <speed>0.0</speed>
  <fix>3d</fix>
</trkpt>
<trkpt lat="40.0728419" lon="-105.2305749">
  <ele>1586.17</ele>
  <time>2026-08-27T18:26:34Z</time>
  <course>8.18</course>
  <speed>0.01414213562373095</speed>
  <fix>3d</fix>
</trkpt>
<trkpt lat="40.072842" lon="-105.230575">
  <ele>1586.09</ele>
  <time>2026-08-27T18:26:34Z</time>
  <course>266.52</course>
  <speed>0.0</speed>
  <fix>3d</fix>
</trkpt>
<trkpt lat="40.0728419" lon="-105.2305749">
  <ele>1586.17</ele>
  <time>2026-08-27T18:26:34Z</time>
  <course>8.16</course>
  <speed>0.01414213562373095</speed>
  <fix>3d</fix>
</trkpt>
<trkpt lat="40.072842" lon="-105.230575">
  <ele>1586.09</ele>
  <time>2026-08-27T18:26:34Z</time>
  <course>266.13</course>
  <speed>0.0</speed>
  <fix>3d</fix>
</trkpt>
<trkpt lat="40.0728419" lon="-105.2305749">
  <ele>1586.17</ele>
  <time>2026-08-27T18:26:34Z</time>
  <course>8.13</course>
  <speed>0.01414213562373095</speed>
  <fix>3d</fix>
</trkpt>
<trkpt lat="40.072842" lon="-105.230575">
  <ele>1586.09</ele>
  <time>2026-08-27T18:26:34Z</time>
  <course>265.61</course>
  <speed>0.0</speed>
  <fix>3d</fix>
</trkpt>
<trkpt lat="40.0728419" lon="-105.2305749">
  <ele>1586.17</ele>
  <time>2026-08-27T18:26:34Z</time>
  <course>8.1</course>
  <speed>0.01414213562373095</speed>
  <fix>3d</fix>
</trkpt>
<trkpt lat="40.072842" lon="-105.230575">
  <ele>1586.09</ele>
  <time>2026-08-27T18:26:34Z</time>
  <course>266.38</course>
  <speed>0.0</speed>
  <fix>3d</fix>
</trkpt>
<trkpt lat="40.0728419" lon="-105.2305749">
  <ele>1586.17</ele>
  <time>2026-08-27T18:26:34Z</time>
  <course>8.07</course>
  <speed>0.01414213562373095</speed>
  <fix>3d</fix>
</trkpt>
<trkpt lat="40.072842" lon="-105.230575">
  <ele>1586.09</ele>
  <time>2026-08-27T18:26:34Z</time>
  <course>266.43</course>
  <speed>0.0</speed>
  <fix>3d</fix>
</trkpt>
<trkpt lat="40.0728419" lon="-105.2305749">
  <ele>1586.17</ele>
  <time>2026-08-27T18:26:34Z</time>
  <course>8.05</course>
  <speed>0.01414213562373095</speed>
  <fix>3d</fix>
</trkpt>
<trkpt lat="40.072842" lon="-105.230575">
  <ele>1586.09</ele>
  <time>2026-08-27T18:26:34Z</time>
  <course>265.87</course>
  <speed>0.0</speed>
  <fix>3d</fix>
</trkpt>
<trkpt lat="40.0728419" lon="-105.2305749">
  <ele>1586.17</ele>
  <time>2026-08-27T18:26:34Z</time>
  <course>8.02</course>
  <speed>0.01414213562373095</speed>
  <fix>3d</fix>
</trkpt>
<trkpt lat="40.072842" lon="-105.230575">
  <ele>1586.09</ele>
  <time>2026-08-27T18:26:34Z</time>
  <course>265.66</course>
  <speed>0.0</speed>
  <fix>3d</fix>
</trkpt>
<trkpt lat="40.0728419" lon="-105.2305749">
  <ele>1586.18</ele>
  <time>2026-08-27T18:26:34Z</time>
  <course>7.99</course>
  <speed>0.01414213562373095</speed>
  <fix>3d</fix>
</trkpt>
<trkpt lat="40.072842" lon="-105.230575">
  <ele>1586.09</ele>
  <time>2026-08-27T18:26:34Z</time>
  <course>266.26</course>
  <speed>0.0</speed>
  <fix>3d</fix>
</trkpt>
<trkpt lat="40.0728419" lon="-105.2305749">
  <ele>1586.17</ele>
  <time>2026-08-27T18:26:34Z</time>
  <course>7.97</course>
  <speed>0.01414213562373095</speed>
  <fix>3d</fix>
</trkpt>
<trkpt lat="40.072842" lon="-105.230575">
  <ele>1586.09</ele>
  <time>2026-08-27T18:26:34Z</time>
  <course>266.24</course>
  <speed>0.0</speed>
  <fix>3d</fix>
</trkpt>
<trkpt lat="40.0728419" lon="-105.2305749">
  <ele>1586.17</ele>
  <time>2026-08-27T18:26:34Z</time>
  <course>7.94</course>
  <speed>0.01414213562373095</speed>
  <fix>3d</fix>
</trkpt>
<trkpt lat="40.072842" lon="-105.230575">
  <ele>1586.09</ele>
  <time>2026-08-27T18:26:34Z</time>
  <course>265.57</course>
  <speed>0.0</speed>
  <fix>3d</fix>
</trkpt>
<trkpt lat="40.0728419" lon="-105.2305749">
  <ele>1586.16</ele>
  <time>2026-08-27T18:26:34Z</time>
  <course>7.92</course>
  <speed>0.01414213562373095</speed>
  <fix>3d</fix>
</trkpt>
<trkpt lat="40.072842" lon="-105.230575">
  <ele>1586.09</ele>
  <time>2026-08-27T18:26:34Z</time>
  <course>263.51</course>
  <speed>0.0</speed>
  <fix>3d</fix>
</trkpt>
<trkpt lat="40.0728419" lon="-105.2305749">
  <ele>1586.16</ele>
  <time>2026-08-27T18:26:34Z</time>
  <course>7.89</course>
  <speed>0.01414213562373095</speed>
  <fix>3d</fix>
</trkpt>
<trkpt lat="40.072842" lon="-105.230575">
  <ele>1586.09</ele>
  <time>2026-08-27T18:26:34Z</time>
  <course>261.02</course>
  <speed>0.0</speed>
  <fix>3d</fix>
</trkpt>
<trkpt lat="40.0728419" lon="-105.2305749">
  <ele>1586.16</ele>
  <time>2026-08-27T18:26:34Z</time>
  <course>7.87</course>
  <speed>0.01414213562373095</speed>
  <fix>3d</fix>
</trkpt>
<trkpt lat="40.072842" lon="-105.230575">
  <ele>1586.09</ele>
  <time>2026-08-27T18:26:34Z</time>
  <course>257.3</course>
  <speed>0.0</speed>
  <fix>3d</fix>
</trkpt>
<trkpt lat="40.0728419" lon="-105.2305749">
  <ele>1586.16</ele>
  <time>2026-08-27T18:26:35Z</time>
  <course>7.84</course>
  <speed>0.01414213562373095</speed>
  <fix>3d</fix>
</trkpt>
<trkpt lat="40.072842" lon="-105.230575">
  <ele>1586.09</ele>
  <time>2026-08-27T18:26:35Z</time>
  <course>262.44</course>
  <speed>0.0</speed>
  <fix>3d</fix>
</trkpt>
<trkpt lat="40.0728419" lon="-105.2305749">
  <ele>1586.16</ele>
  <time>2026-08-27T18:26:35Z</time>
  <course>7.82</course>
  <speed>0.01414213562373095</speed>
  <fix>3d</fix>
</trkpt>
<trkpt lat="40.072842" lon="-105.230575">
  <ele>1586.09</ele>
  <time>2026-08-27T18:26:35Z</time>
  <course>267.14</course>
  <speed>0.0</speed>
  <fix>3d</fix>
</trkpt>
<trkpt lat="40.0728419" lon="-105.2305749">
  <ele>1586.17</ele>
  <time>2026-08-27T18:26:35Z</time>
  <course>7.8</course>
  <speed>0.01414213562373095</speed>
  <fix>3d</fix>
</trkpt>
<trkpt lat="40.072842" lon="-105.230575">
  <ele>1586.09</ele>
  <time>2026-08-27T18:26:35Z</time>
  <course>268.33</course>
  <speed>0.0</speed>
  <fix>3d</fix>
</trkpt>
<trkpt lat="40.0728419" lon="-105.2305749">
  <ele>1586.17</ele>
  <time>2026-08-27T18:26:35Z</time>
  <course>7.78</course>
  <speed>0.01414213562373095</speed>
  <fix>3d</fix>
</trkpt>
<trkpt lat="40.072842" lon="-105.230575">
  <ele>1586.09</ele>
  <time>2026-08-27T18:26:35Z</time>
  <course>272.82</course>
  <speed>0.0</speed>
  <fix>3d</fix>
</trkpt>
<trkpt lat="40.0728419" lon="-105.2305749">
  <ele>1586.17</ele>
  <time>2026-08-27T18:26:35Z</time>
  <course>7.77</course>
  <speed>0.01414213562373095</speed>
  <fix>3d</fix>
</trkpt>
<trkpt lat="40.072842" lon="-105.230575">
  <ele>1586.09</ele>
  <time>2026-08-27T18:26:35Z</time>
  <course>269.37</course>
  <speed>0.0</speed>
  <fix>3d</fix>
</trkpt>
<trkpt lat="40.0728419" lon="-105.2305749">
  <ele>1586.17</ele>
  <time>2026-08-27T18:26:35Z</time>
  <course>7.75</course>
  <speed>0.01414213562373095</speed>
  <fix>3d</fix>
</trkpt>
<trkpt lat="40.072842" lon="-105.230575">
  <ele>1586.09</ele>
  <time>2026-08-27T18:26:35Z</time>
  <course>265.45</course>
  <speed>0.0</speed>
  <fix>3d</fix>
</trkpt>
<trkpt lat="40.0728419" lon="-105.2305749">
  <ele>1586.17</ele>
  <time>2026-08-27T18:26:35Z</time>
  <course>7.75</course>
  <speed>0.01414213562373095</speed>
  <fix>3d</fix>
</trkpt>
<trkpt lat="40.0728419" lon="-105.2305749">
  <ele>1586.17</ele>
  <time>2026-08-27T18:26:35Z</time>
  <course>7.73</course>
  <speed>0.01414213562373095</speed>
  <fix>3d</fix>
</trkpt>
<trkpt lat="40.072842" lon="-105.230575">
  <ele>1586.09</ele>
  <time>2026-08-27T18:26:35Z</time>
  <course>266.69</course>
  <speed>0.0</speed>
  <fix>3d</fix>
</trkpt>
<trkpt lat="40.0728419" lon="-105.2305749">
  <ele>1586.17</ele>
  <time>2026-08-27T18:26:35Z</time>
  <course>7.72</course>
  <speed>0.01414213562373095</speed>
  <fix>3d</fix>
</trkpt>
<trkpt lat="40.0728419" lon="-105.2305749">
  <ele>1586.18</ele>
  <time>2026-08-27T18:26:35Z</time>
  <course>7.69</course>
  <speed>0.01414213562373095</speed>
  <fix>3d</fix>
</trkpt>
<trkpt lat="40.072842" lon="-105.230575">
  <ele>1586.09</ele>
  <time>2026-08-27T18:26:35Z</time>
  <course>266.8</course>
  <speed>0.0</speed>
  <fix>3d</fix>
</trkpt>
<trkpt lat="40.0728419" lon="-105.2305749">
  <ele>1586.18</ele>
  <time>2026-08-27T18:26:35Z</time>
  <course>7.69</course>
  <speed>0.01414213562373095</speed>
  <fix>3d</fix>
</trkpt>
<trkpt lat="40.0728419" lon="-105.2305749">
  <ele>1586.2</ele>
  <time>2026-08-27T18:26:35Z</time>
  <course>7.63</course>
  <speed>0.01414213562373095</speed>
  <fix>3d</fix>
</trkpt>
<trkpt lat="40.072842" lon="-105.230575">
  <ele>1586.1</ele>
  <time>2026-08-27T18:26:35Z</time>
  <course>266.28</course>
  <speed>0.0</speed>
  <fix>3d</fix>
</trkpt>
<trkpt lat="40.0728419" lon="-105.2305749">
  <ele>1586.21</ele>
  <time>2026-08-27T18:26:35Z</time>
  <course>7.62</course>
  <speed>0.01414213562373095</speed>
  <fix>3d</fix>
</trkpt>
<trkpt lat="40.0728419" lon="-105.2305749">
  <ele>1586.27</ele>
  <time>2026-08-27T18:26:35Z</time>
  <course>7.56</course>
  <speed>0.01414213562373095</speed>
  <fix>3d</fix>
</trkpt>
<trkpt lat="40.072842" lon="-105.230575">
  <ele>1586.13</ele>
  <time>2026-08-27T18:26:35Z</time>
  <course>270.97</course>
  <speed>0.0</speed>
  <fix>3d</fix>
</trkpt>
<trkpt lat="40.0728419" lon="-105.2305749">
  <ele>1586.27</ele>
  <time>2026-08-27T18:26:35Z</time>
  <course>7.56</course>
  <speed>0.01414213562373095</speed>
  <fix>3d</fix>
</trkpt>
<trkpt lat="40.0728419" lon="-105.2305749">
  <ele>1586.37</ele>
  <time>2026-08-27T18:26:35Z</time>
  <course>4.54</course>
  <speed>0.01414213562373095</speed>
  <fix>3d</fix>
</trkpt>
<trkpt lat="40.072842" lon="-105.230575">
  <ele>1586.19</ele>
  <time>2026-08-27T18:26:35Z</time>
  <course>271.82</course>
  <speed>0.0</speed>
  <fix>3d</fix>
</trkpt>
<trkpt lat="40.0728419" lon="-105.2305749">
  <ele>1586.39</ele>
  <time>2026-08-27T18:26:35Z</time>
  <course>3.19</course>
  <speed>0.0316227766016838</speed>
  <fix>3d</fix>
</trkpt>
<trkpt lat="40.0728419" lon="-105.2305751">
  <ele>1586.68</ele>
  <time>2026-08-27T18:26:35Z</time>
  <course>359.19</course>
  <speed>0.19</speed>
  <fix>3d</fix>
</trkpt>
<trkpt lat="40.072842" lon="-105.2305751">
  <ele>1586.36</ele>
  <time>2026-08-27T18:26:35Z</time>
  <course>262.94</course>
  <speed>0.09</speed>
  <fix>3d</fix>
</trkpt>
<trkpt lat="40.0728419" lon="-105.2305752">
  <ele>1586.73</ele>
  <time>2026-08-27T18:26:35Z</time>
  <course>359.12</course>
  <speed>0.2002498439450079</speed>
  <fix>3d</fix>
</trkpt>
<trkpt lat="40.0728419" lon="-105.2305757">
  <ele>1587.06</ele>
  <time>2026-08-27T18:26:35Z</time>
  <course>358.36</course>
  <speed>0.25079872407968906</speed>
  <fix>3d</fix>
</trkpt>
<trkpt lat="40.072842" lon="-105.2305754">
  <ele>1586.69</ele>
  <time>2026-08-27T18:26:35Z</time>
  <course>260.95</course>
  <speed>0.21</speed>
  <fix>3d</fix>
</trkpt>
<trkpt lat="40.0728419" lon="-105.2305758">
  <ele>1587.12</ele>
  <time>2026-08-27T18:26:35Z</time>
  <course>358.13</course>
  <speed>0.25179356624028343</speed>
  <fix>3d</fix>
</trkpt>
<trkpt lat="40.0728418" lon="-105.2305763">
  <ele>1587.46</ele>
  <time>2026-08-27T18:26:35Z</time>
  <course>356.73</course>
  <speed>0.2668332812825267</speed>
  <fix>3d</fix>
</trkpt>
<trkpt lat="40.0728419" lon="-105.230576">
  <ele>1587.07</ele>
  <time>2026-08-27T18:26:35Z</time>
  <course>256.43</course>
  <speed>0.27</speed>
  <fix>3d</fix>
</trkpt>
<trkpt lat="40.0728418" lon="-105.2305764">
  <ele>1587.52</ele>
  <time>2026-08-27T18:26:35Z</time>
  <course>356.52</course>
  <speed>0.2596150997149434</speed>
  <fix>3d</fix>
</trkpt>
<trkpt lat="40.0728417" lon="-105.2305769">
  <ele>1587.9</ele>
  <time>2026-08-27T18:26:35Z</time>
  <course>355.61</course>
  <speed>0.24166091947189144</speed>
  <fix>3d</fix>
</trkpt>
<trkpt lat="40.0728418" lon="-105.2305767">
  <ele>1587.48</ele>
  <time>2026-08-27T18:26:35Z</time>
  <course>248.98</course>
  <speed>0.27</speed>
  <fix>3d</fix>
</trkpt>
<trkpt lat="40.0728417" lon="-105.2305769">
  <ele>1587.91</ele>
  <time>2026-08-27T18:26:35Z</time>
  <course>355.59</course>
  <speed>0.24166091947189144</speed>
  <fix>3d</fix>
</trkpt>
<trkpt lat="40.0728414" lon="-105.2305774">
  <ele>1588.36</ele>
  <time>2026-08-27T18:26:35Z</time>
  <course>355.12</course>
  <speed>0.20615528128088303</speed>
  <fix>3d</fix>
</trkpt>
<trkpt lat="40.0728415" lon="-105.2305772">
  <ele>1587.91</ele>
  <time>2026-08-27T18:26:35Z</time>
  <course>239.38</course>
  <speed>0.24</speed>
  <fix>3d</fix>
</trkpt>
<trkpt lat="40.0728414" lon="-105.2305774">
  <ele>1588.43</ele>
  <time>2026-08-27T18:26:35Z</time>
  <course>355.08</course>
  <speed>0.20518284528683192</speed>
  <fix>3d</fix>
</trkpt>
<trkpt lat="40.0728412" lon="-105.2305777">
  <ele>1588.85</ele>
  <time>2026-08-27T18:26:35Z</time>
  <course>354.95</course>
  <speed>0.17492855684535902</speed>
  <fix>3d</fix>
</trkpt>
<trkpt lat="40.0728413" lon="-105.2305776">
  <ele>1588.37</ele>
  <time>2026-08-27T18:26:35Z</time>
  <course>227.22</course>
  <speed>0.19</speed>
  <fix>3d</fix>
</trkpt>
<trkpt lat="40.0728411" lon="-105.2305777">
  <ele>1588.92</ele>
  <time>2026-08-27T18:26:35Z</time>
  <course>354.94</course>
  <speed>0.17</speed>
  <fix>3d</fix>
</trkpt>
<trkpt lat="40.0728409" lon="-105.2305779">
  <ele>1589.33</ele>
  <time>2026-08-27T18:26:35Z</time>
  <course>353.04</course>
  <speed>0.1414213562373095</speed>
  <fix>3d</fix>
</trkpt>
<trkpt lat="40.0728411" lon="-105.2305778">
  <ele>1588.85</ele>
  <time>2026-08-27T18:26:35Z</time>
  <course>211.71</course>
  <speed>0.15</speed>
  <fix>3d</fix>
</trkpt>
<trkpt lat="40.0728409" lon="-105.2305779">
  <ele>1589.4</ele>
  <time>2026-08-27T18:26:35Z</time>
  <course>353.01</course>
  <speed>0.1414213562373095</speed>
  <fix>3d</fix>
</trkpt>
<trkpt lat="40.0728407" lon="-105.2305779">
  <ele>1589.83</ele>
  <time>2026-08-27T18:26:35Z</time>
  <course>353.13</course>
  <speed>0.12369316876852982</speed>
  <fix>3d</fix>
</trkpt>
<trkpt lat="40.0728409" lon="-105.230578">
  <ele>1589.33</ele>
  <time>2026-08-27T18:26:35Z</time>
  <course>190.24</course>
  <speed>0.1</speed>
  <fix>3d</fix>
</trkpt>
<trkpt lat="40.0728406" lon="-105.2305779">
  <ele>1589.89</ele>
  <time>2026-08-27T18:26:35Z</time>
  <course>353.21</course>
  <speed>0.12369316876852982</speed>
  <fix>3d</fix>
</trkpt>
<trkpt lat="40.0728405" lon="-105.2305778">
  <ele>1590.32</ele>
  <time>2026-08-27T18:26:35Z</time>
  <course>353.75</course>
  <speed>0.12041594578792296</speed>
  <fix>3d</fix>
</trkpt>
<trkpt lat="40.0728407" lon="-105.230578">
  <ele>1589.82</ele>
  <time>2026-08-27T18:26:35Z</time>
  <course>155.41</course>
  <speed>0.08</speed>
  <fix>3d</fix>
</trkpt>
<trkpt lat="40.0728405" lon="-105.2305778">
  <ele>1590.33</ele>
  <time>2026-08-27T18:26:35Z</time>
  <course>353.76</course>
  <speed>0.12041594578792296</speed>
  <fix>3d</fix>
</trkpt>
<trkpt lat="40.0728404" lon="-105.2305776">
  <ele>1590.81</ele>
  <time>2026-08-27T18:26:35Z</time>
  <course>354.27</course>
  <speed>0.1392838827718412</speed>
  <fix>3d</fix>
</trkpt>
<trkpt lat="40.0728406" lon="-105.2305779">
  <ele>1590.31</ele>
  <time>2026-08-27T18:26:35Z</time>
  <course>116.57</course>
  <speed>0.09</speed>
  <fix>3d</fix>
</trkpt>
<trkpt lat="40.0728404" lon="-105.2305776">
  <ele>1590.88</ele>
  <time>2026-08-27T18:26:35Z</time>
  <course>354.33</course>
  <speed>0.13601470508735444</speed>
  <fix>3d</fix>
</trkpt>
<trkpt lat="40.0728405" lon="-105.2305773">
  <ele>1591.31</ele>
  <time>2026-08-27T18:26:35Z</time>
  <course>354.7</course>
  <speed>0.15</speed>
  <fix>3d</fix>
</trkpt>
<trkpt lat="40.0728406" lon="-105.2305777">
  <ele>1590.81</ele>
  <time>2026-08-27T18:26:35Z</time>
  <course>93.42</course>
  <speed>0.12</speed>
  <fix>3d</fix>
</trkpt>
<trkpt lat="40.0728405" lon="-105.2305773">
  <ele>1591.39</ele>
  <time>2026-08-27T18:26:35Z</time>
  <course>354.76</course>
  <speed>0.16</speed>
  <fix>3d</fix>
</trkpt>
<trkpt lat="40.0728405" lon="-105.230577">
  <ele>1591.81</ele>
  <time>2026-08-27T18:26:35Z</time>
  <course>355.1</course>
  <speed>0.1711724276862369</speed>
  <fix>3d</fix>
</trkpt>
<trkpt lat="40.0728406" lon="-105.2305773">
  <ele>1591.3</ele>
  <time>2026-08-27T18:26:35Z</time>
  <course>82.02</course>
  <speed>0.14</speed>
  <fix>3d</fix>
</trkpt>
<trkpt lat="40.0728406" lon="-105.2305769">
  <ele>1591.89</ele>
  <time>2026-08-27T18:26:35Z</time>
  <course>355.15</course>
  <speed>0.17262676501632068</speed>
  <fix>3d</fix>
</trkpt>
<trkpt lat="40.0728406" lon="-105.2305766">
  <ele>1592.32</ele>
  <time>2026-08-27T18:26:35Z</time>
  <course>355.51</course>
  <speed>0.1772004514666935</speed>
  <fix>3d</fix>
</trkpt>
<trkpt lat="40.0728406" lon="-105.230577">
  <ele>1591.8</ele>
  <time>2026-08-27T18:26:35Z</time>
  <course>76.61</course>
  <speed>0.15</speed>
  <fix>3d</fix>
</trkpt>
<trkpt lat="40.0728406" lon="-105.2305766">
  <ele>1592.4</ele>
  <time>2026-08-27T18:26:35Z</time>
  <course>355.56</course>
  <speed>0.1772004514666935</speed>
  <fix>3d</fix>
</trkpt>
<trkpt lat="40.0728407" lon="-105.2305763">
  <ele>1592.83</ele>
  <time>2026-08-27T18:26:35Z</time>
  <course>355.93</course>
  <speed>0.1708800749063506</speed>
  <fix>3d</fix>
</trkpt>
<trkpt lat="40.0728407" lon="-105.2305767">
  <ele>1592.3</ele>
  <time>2026-08-27T18:26:35Z</time>
  <course>74.31</course>
  <speed>0.16</speed>
  <fix>3d</fix>
</trkpt>
<trkpt lat="40.0728407" lon="-105.2305763">
  <ele>1592.83</ele>
  <time>2026-08-27T18:26:35Z</time>
  <course>355.94</course>
  <speed>0.1708800749063506</speed>
  <fix>3d</fix>
</trkpt>
<trkpt lat="40.0728408" lon="-105.2305759">
  <ele>1593.33</ele>
  <time>2026-08-27T18:26:35Z</time>
  <course>356.39</course>
  <speed>0.17464249196572978</speed>
  <fix>3d</fix>
</trkpt>
<trkpt lat="40.0728407" lon="-105.2305763">
  <ele>1592.8</ele>
  <time>2026-08-27T18:26:35Z</time>
  <course>73.43</course>
  <speed>0.16</speed>
  <fix>3d</fix>
</trkpt>
<trkpt lat="40.0728408" lon="-105.2305759">
  <ele>1593.4</ele>
  <time>2026-08-27T18:26:35Z</time>
  <course>356.45</course>
  <speed>0.17464249196572978</speed>
  <fix>3d</fix>
</trkpt>
<trkpt lat="40.0728409" lon="-105.2305756">
  <ele>1593.83</ele>
  <time>2026-08-27T18:26:35Z</time>
  <course>356.81</course>
  <speed>0.16552945357246848</speed>
  <fix>3d</fix>
</trkpt>
<trkpt lat="40.0728407" lon="-105.2305759">
  <ele>1593.3</ele>
  <time>2026-08-27T18:26:35Z</time>
  <course>72.68</course>
  <speed>0.15</speed>
  <fix>3d</fix>
</trkpt>
<trkpt lat="40.0728409" lon="-105.2305756">
  <ele>1593.9</ele>
  <time>2026-08-27T18:26:35Z</time>
  <course>356.87</course>
  <speed>0.16552945357246848</speed>
  <fix>3d</fix>
</trkpt>
<trkpt lat="40.072841" lon="-105.2305753">
  <ele>1594.33</ele>
  <time>2026-08-27T18:26:35Z</time>
  <course>357.24</course>
  <speed>0.16124515496597097</speed>
  <fix>3d</fix>
</trkpt>
<trkpt lat="40.0728408" lon="-105.2305756">
  <ele>1593.79</ele>
  <time>2026-08-27T18:26:35Z</time>
  <course>71.24</course>
  <speed>0.15</speed>
  <fix>3d</fix>
</trkpt>
<trkpt lat="40.072841" lon="-105.2305752">
  <ele>1594.41</ele>
  <time>2026-08-27T18:26:35Z</time>
  <course>357.31</course>
  <speed>0.15264337522473748</speed>
  <fix>3d</fix>
</trkpt>
<trkpt lat="40.0728411" lon="-105.230575">
  <ele>1594.83</ele>
  <time>2026-08-27T18:26:35Z</time>
  <course>357.64</course>
  <speed>0.14422205101855956</speed>
  <fix>3d</fix>
</trkpt>
<trkpt lat="40.0728409" lon="-105.2305752">
  <ele>1594.29</ele>
  <time>2026-08-27T18:26:35Z</time>
  <course>68.78</course>
  <speed>0.14</speed>
  <fix>3d</fix>
</trkpt>
<trkpt lat="40.0728411" lon="-105.230575">
  <ele>1594.91</ele>
  <time>2026-08-27T18:26:35Z</time>
  <course>357.7</course>
  <speed>0.14422205101855956</speed>
  <fix>3d</fix>
</trkpt>
<trkpt lat="40.0728412" lon="-105.2305747">
  <ele>1595.33</ele>
  <time>2026-08-27T18:26:35Z</time>
  <course>358.04</course>
  <speed>0.1345362404707371</speed>
  <fix>3d</fix>
</trkpt>
<trkpt lat="40.072841" lon="-105.2305749">
  <ele>1594.78</ele>
  <time>2026-08-27T18:26:35Z</time>
  <course>65.05</course>
  <speed>0.13</speed>
  <fix>3d</fix>
</trkpt>
<trkpt lat="40.0728412" lon="-105.2305747">
  <ele>1595.33</ele>
  <time>2026-08-27T18:26:35Z</time>
  <course>358.04</course>
  <speed>0.1345362404707371</speed>
  <fix>3d</fix>
</trkpt>
<trkpt lat="40.0728413" lon="-105.2305745">
  <ele>1595.82</ele>
  <time>2026-08-27T18:26:35Z</time>
  <course>358.41</course>
  <speed>0.12041594578792296</speed>
  <fix>3d</fix>
</trkpt>
<trkpt lat="40.0728411" lon="-105.2305747">
  <ele>1595.27</ele>
  <time>2026-08-27T18:26:35Z</time>
  <course>59.96</course>
  <speed>0.11</speed>
  <fix>3d</fix>
</trkpt>
<trkpt lat="40.0728413" lon="-105.2305745">
  <ele>1595.9</ele>
  <time>2026-08-27T18:26:35Z</time>
  <course>358.46</course>
  <speed>0.12041594578792296</speed>
  <fix>3d</fix>
</trkpt>
<trkpt lat="40.0728414" lon="-105.2305743">
  <ele>1596.31</ele>
  <time>2026-08-27T18:26:35Z</time>
  <course>358.77</course>
  <speed>0.10816653826391968</speed>
  <fix>3d</fix>
</trkpt>
<trkpt lat="40.0728412" lon="-105.2305744">
  <ele>1595.77</ele>
  <time>2026-08-27T18:26:35Z</time>
  <course>53.2</course>
  <speed>0.1</speed>
  <fix>3d</fix>
</trkpt>
<trkpt lat="40.0728414" lon="-105.2305743">
  <ele>1596.38</ele>
  <time>2026-08-27T18:26:35Z</time>
  <course>358.82</course>
  <speed>0.10816653826391968</speed>
  <fix>3d</fix>
</trkpt>
<trkpt lat="40.0728415" lon="-105.2305742">
  <ele>1596.8</ele>
  <time>2026-08-27T18:26:35Z</time>
  <course>359.08</course>
  <speed>0.09848857801796104</speed>
  <fix>3d</fix>
</trkpt>
<trkpt lat="40.0728413" lon="-105.2305743">
  <ele>1596.26</ele>
  <time>2026-08-27T18:26:35Z</time>
  <course>44.53</course>
  <speed>0.08</speed>
  <fix>3d</fix>
</trkpt>
<trkpt lat="40.0728415" lon="-105.2305742">
  <ele>1596.87</ele>
  <time>2026-08-27T18:26:35Z</time>
  <course>359.13</course>
  <speed>0.09848857801796104</speed>
  <fix>3d</fix>
</trkpt>
<trkpt lat="40.0728416" lon="-105.2305741">
  <ele>1597.3</ele>
  <time>2026-08-27T18:26:35Z</time>
  <course>359.4</course>
  <speed>0.09219544457292887</speed>
  <fix>3d</fix>
</trkpt>
<trkpt lat="40.0728414" lon="-105.2305742">
  <ele>1596.76</ele>
  <time>2026-08-27T18:26:35Z</time>
  <course>33.66</course>
  <speed>0.07</speed>
  <fix>3d</fix>
</trkpt>
<trkpt lat="40.0728416" lon="-105.2305741">
  <ele>1597.38</ele>
  <time>2026-08-27T18:26:35Z</time>
  <course>359.43</course>
  <speed>0.09219544457292887</speed>
  <fix>3d</fix>
</trkpt>
<trkpt lat="40.0728417" lon="-105.2305741">
  <ele>1597.81</ele>
  <time>2026-08-27T18:26:35Z</time>
  <course>359.71</course>
  <speed>0.09055385138137417</speed>
  <fix>3d</fix>
</trkpt>
<trkpt lat="40.0728415" lon="-105.2305741">
  <ele>1597.26</ele>
  <time>2026-08-27T18:26:35Z</time>
  <course>20.31</course>
  <speed>0.06</speed>
  <fix>3d</fix>
</trkpt>
<trkpt lat="40.0728417" lon="-105.2305741">
  <ele>1597.88</ele>
  <time>2026-08-27T18:26:35Z</time>
  <course>359.76</course>
  <speed>0.09</speed>
  <fix>3d</fix>
</trkpt>
<trkpt lat="40.0728418" lon="-105.2305741">
  <ele>1598.31</ele>
  <time>2026-08-27T18:26:35Z</time>
  <course>0.03</course>
  <speed>0.08</speed>
  <fix>3d</fix>
</trkpt>
<trkpt lat="40.0728417" lon="-105.2305741">
  <ele>1597.76</ele>
  <time>2026-08-27T18:26:35Z</time>
  <course>5.48</course>
  <speed>0.05</speed>
  <fix>3d</fix>
</trkpt>
<trkpt lat="40.0728418" lon="-105.2305741">
  <ele>1598.32</ele>
  <time>2026-08-27T18:26:35Z</time>
  <course>0.04</course>
  <speed>0.08</speed>
  <fix>3d</fix>
</trkpt>
<trkpt lat="40.0728419" lon="-105.2305741">
  <ele>1598.81</ele>
  <time>2026-08-27T18:26:35Z</time>
  <course>0.35</course>
  <speed>0.08062257748298549</speed>
  <fix>3d</fix>
</trkpt>
<trkpt lat="40.0728418" lon="-105.2305741">
  <ele>1598.26</ele>
  <time>2026-08-27T18:26:35Z</time>
  <course>350.6</course>
  <speed>0.05</speed>
  <fix>3d</fix>
</trkpt>
<trkpt lat="40.0728419" lon="-105.2305741">
  <ele>1598.9</ele>
  <time>2026-08-27T18:26:35Z</time>
  <course>0.41</course>
  <speed>0.07071067811865475</speed>
  <fix>3d</fix>
</trkpt>
<trkpt lat="40.072842" lon="-105.2305742">
  <ele>1599.31</ele>
  <time>2026-08-27T18:26:35Z</time>
  <course>0.69</course>
  <speed>0.07280109889280519</speed>
  <fix>3d</fix>
</trkpt>
<trkpt lat="40.0728419" lon="-105.2305741">
  <ele>1598.76</ele>
  <time>2026-08-27T18:26:35Z</time>
  <course>336.89</course>
  <speed>0.05</speed>
  <fix>3d</fix>
</trkpt>
<trkpt lat="40.072842" lon="-105.2305741">
  <ele>1599.39</ele>
  <time>2026-08-27T18:26:35Z</time>
  <course>0.73</course>
  <speed>0.07280109889280519</speed>
  <fix>3d</fix>
</trkpt>
<trkpt lat="40.0728421" lon="-105.2305742">
  <ele>1599.81</ele>
  <time>2026-08-27T18:26:35Z</time>
  <course>0.98</course>
  <speed>0.0670820393249937</speed>
  <fix>3d</fix>
</trkpt>
<trkpt lat="40.0728419" lon="-105.2305741">
  <ele>1599.26</ele>
  <time>2026-08-27T18:26:35Z</time>
  <course>325.53</course>
  <speed>0.05</speed>
  <fix>3d</fix>
</trkpt>
<trkpt lat="40.0728421" lon="-105.2305742">
  <ele>1599.87</ele>
  <time>2026-08-27T18:26:35Z</time>
  <course>1.0</course>
  <speed>0.0670820393249937</speed>
  <fix>3d</fix>
</trkpt>
<trkpt lat="40.0728421" lon="-105.2305742">
  <ele>1600.31</ele>
  <time>2026-08-27T18:26:35Z</time>
  <course>1.27</course>
  <speed>0.06403124237432849</speed>
  <fix>3d</fix>
</trkpt>
<trkpt lat="40.072842" lon="-105.2305741">
  <ele>1599.76</ele>
  <time>2026-08-27T18:26:35Z</time>
  <course>316.18</course>
  <speed>0.05</speed>
  <fix>3d</fix>
</trkpt>
<trkpt lat="40.0728421" lon="-105.2305742">
  <ele>1600.35</ele>
  <time>2026-08-27T18:26:35Z</time>
  <course>1.29</course>
  <speed>0.06403124237432849</speed>
  <fix>3d</fix>
</trkpt>
<trkpt lat="40.0728422" lon="-105.2305743">
  <ele>1600.81</ele>
  <time>2026-08-27T18:26:35Z</time>
  <course>1.54</course>
  <speed>0.0565685424949238</speed>
  <fix>3d</fix>
</trkpt>
<trkpt lat="40.0728421" lon="-105.2305742">
  <ele>1600.25</ele>
  <time>2026-08-27T18:26:35Z</time>
  <course>308.54</course>
  <speed>0.05</speed>
  <fix>3d</fix>
</trkpt>
<trkpt lat="40.0728422" lon="-105.2305743">
  <ele>1600.81</ele>
  <time>2026-08-27T18:26:35Z</time>
  <course>1.54</course>
  <speed>0.0565685424949238</speed>
  <fix>3d</fix>
</trkpt>
<trkpt lat="40.0728422" lon="-105.2305744">
  <ele>1601.3</ele>
  <time>2026-08-27T18:26:35Z</time>
  <course>1.79</course>
  <speed>0.0565685424949238</speed>
  <fix>3d</fix>
</trkpt>
<trkpt lat="40.0728421" lon="-105.2305744">
  <ele>1600.75</ele>
  <time>2026-08-27T18:26:35Z</time>
  <course>302.53</course>
  <speed>0.05</speed>
  <fix>3d</fix>
</trkpt>
<trkpt lat="40.0728422" lon="-105.2305744">
  <ele>1601.37</ele>
  <time>2026-08-27T18:26:35Z</time>
  <course>1.81</course>
  <speed>0.0565685424949238</speed>
  <fix>3d</fix>
</trkpt>
<trkpt lat="40.0728422" lon="-105.2305745">
  <ele>1601.8</ele>
  <time>2026-08-27T18:26:35Z</time>
  <course>2.03</course>
  <speed>0.05</speed>
  <fix>3d</fix>
</trkpt>
<trkpt lat="40.0728422" lon="-105.2305745">
  <ele>1601.25</ele>
  <time>2026-08-27T18:26:35Z</time>
  <course>297.2</course>
  <speed>0.05</speed>
  <fix>3d</fix>
</trkpt>
<trkpt lat="40.0728422" lon="-105.2305745">
  <ele>1601.87</ele>
  <time>2026-08-27T18:26:35Z</time>
  <course>2.07</course>
  <speed>0.05</speed>
  <fix>3d</fix>
</trkpt>
<trkpt lat="40.0728423" lon="-105.2305746">
  <ele>1602.3</ele>
  <time>2026-08-27T18:26:35Z</time>
  <course>2.27</course>
  <speed>0.044721359549995794</speed>
  <fix>3d</fix>
</trkpt>
<trkpt lat="40.0728423" lon="-105.2305746">
  <ele>1601.75</ele>
  <time>2026-08-27T18:26:35Z</time>
  <course>292.46</course>
  <speed>0.05</speed>
  <fix>3d</fix>
</trkpt>
<trkpt lat="40.0728423" lon="-105.2305746">
  <ele>1602.36</ele>
  <time>2026-08-27T18:26:35Z</time>
  <course>2.3</course>
  <speed>0.044721359549995794</speed>
  <fix>3d</fix>
</trkpt>
<trkpt lat="40.0728423" lon="-105.2305747">
  <ele>1602.8</ele>
  <time>2026-08-27T18:26:35Z</time>
  <course>2.51</course>
  <speed>0.0412310562561766</speed>
  <fix>3d</fix>
</trkpt>
<trkpt lat="40.0728423" lon="-105.2305747">
  <ele>1602.25</ele>
  <time>2026-08-27T18:26:35Z</time>
  <course>287.91</course>
  <speed>0.05</speed>
  <fix>3d</fix>
</trkpt>
<trkpt lat="40.0728423" lon="-105.2305747">
  <ele>1602.8</ele>
  <time>2026-08-27T18:26:35Z</time>
  <course>2.51</course>
  <speed>0.0412310562561766</speed>
  <fix>3d</fix>
</trkpt>
<trkpt lat="40.0728423" lon="-105.2305748">
  <ele>1603.3</ele>
  <time>2026-08-27T18:26:35Z</time>
  <course>2.73</course>
  <speed>0.0316227766016838</speed>
  <fix>3d</fix>
</trkpt>
<trkpt lat="40.0728423" lon="-105.2305748">
  <ele>1602.75</ele>
  <time>2026-08-27T18:26:35Z</time>
  <course>283.4</course>
  <speed>0.04</speed>
  <fix>3d</fix>
</trkpt>
<trkpt lat="40.0728423" lon="-105.2305748">
  <ele>1603.37</ele>
  <time>2026-08-27T18:26:35Z</time>
  <course>2.77</course>
  <speed>0.0316227766016838</speed>
  <fix>3d</fix>
</trkpt>
<trkpt lat="40.0728423" lon="-105.2305749">
  <ele>1603.79</ele>
  <time>2026-08-27T18:26:35Z</time>
  <course>2.96</course>
  <speed>0.03</speed>
  <fix>3d</fix>
</trkpt>
<trkpt lat="40.0728424" lon="-105.2305749">
  <ele>1603.25</ele>
  <time>2026-08-27T18:26:35Z</time>
  <course>279.52</course>
  <speed>0.04</speed>
  <fix>3d</fix>
</trkpt>
<trkpt lat="40.0728423" lon="-105.2305749">
  <ele>1603.8</ele>
  <time>2026-08-27T18:26:35Z</time>
  <course>2.96</course>
  <speed>0.03</speed>
  <fix>3d</fix>
</trkpt>
<trkpt lat="40.0728423" lon="-105.230575">
  <ele>1604.29</ele>
  <time>2026-08-27T18:26:35Z</time>
  <course>3.14</course>
  <speed>0.02</speed>
  <fix>3d</fix>
</trkpt>
<trkpt lat="40.0728424" lon="-105.230575">
  <ele>1603.75</ele>
  <time>2026-08-27T18:26:35Z</time>
  <course>275.97</course>
  <speed>0.03</speed>
  <fix>3d</fix>
</trkpt>
<trkpt lat="40.0728423" lon="-105.230575">
  <ele>1604.36</ele>
  <time>2026-08-27T18:26:35Z</time>
  <course>3.18</course>
  <speed>0.02</speed>
  <fix>3d</fix>
</trkpt>
<trkpt lat="40.0728423" lon="-105.2305751">
  <ele>1604.8</ele>
  <time>2026-08-27T18:26:35Z</time>
  <course>3.37</course>
  <speed>0.02</speed>
  <fix>3d</fix>
</trkpt>
<trkpt lat="40.0728424" lon="-105.2305751">
  <ele>1604.26</ele>
  <time>2026-08-27T18:26:35Z</time>
  <course>272.69</course>
  <speed>0.03</speed>
  <fix>3d</fix>
</trkpt>
<trkpt lat="40.0728423" lon="-105.2305751">
  <ele>1604.86</ele>
  <time>2026-08-27T18:26:35Z</time>
  <course>3.4</course>
  <speed>0.01</speed>
  <fix>3d</fix>
</trkpt>
<trkpt lat="40.0728423" lon="-105.2305751">
  <ele>1605.3</ele>
  <time>2026-08-27T18:26:35Z</time>
  <course>3.55</course>
  <speed>0.01</speed>
  <fix>3d</fix>
</trkpt>
<trkpt lat="40.0728424" lon="-105.2305752">
  <ele>1604.76</ele>
  <time>2026-08-27T18:26:35Z</time>
  <course>269.38</course>
  <speed>0.03</speed>
  <fix>3d</fix>
</trkpt>
<trkpt lat="40.0728423" lon="-105.2305751">
  <ele>1605.31</ele>
  <time>2026-08-27T18:26:35Z</time>
  <course>3.55</course>
  <speed>0.01</speed>
  <fix>3d</fix>
</trkpt>
<trkpt lat="40.0728423" lon="-105.2305752">
  <ele>1605.8</ele>
  <time>2026-08-27T18:26:35Z</time>
  <course>3.71</course>
  <speed>0.0</speed>
  <fix>3d</fix>
</trkpt>
<trkpt lat="40.0728424" lon="-105.2305753">
  <ele>1605.26</ele>
  <time>2026-08-27T18:26:35Z</time>
  <course>265.8</course>
  <speed>0.02</speed>
  <fix>3d</fix>
</trkpt>
<trkpt lat="40.0728423" lon="-105.2305752">
  <ele>1605.88</ele>
  <time>2026-08-27T18:26:35Z</time>
  <course>3.74</course>
  <speed>0.0</speed>
  <fix>3d</fix>
</trkpt>
<trkpt lat="40.0728423" lon="-105.2305752">
  <ele>1606.3</ele>
  <time>2026-08-27T18:26:35Z</time>
  <course>3.88</course>
  <speed>0.01</speed>
  <fix>3d</fix>
</trkpt>
<trkpt lat="40.0728424" lon="-105.2305753">
  <ele>1605.76</ele>
  <time>2026-08-27T18:26:35Z</time>
  <course>262.29</course>
  <speed>0.02</speed>
  <fix>3d</fix>
</trkpt>
<trkpt lat="40.0728423" lon="-105.2305752">
  <ele>1606.4</ele>
  <time>2026-08-27T18:26:35Z</time>
  <course>3.91</course>
  <speed>0.01</speed>
  <fix>3d</fix>
</trkpt>
<trkpt lat="40.0728423" lon="-105.2305752">
  <ele>1606.8</ele>
  <time>2026-08-27T18:26:35Z</time>
  <course>4.04</course>
  <speed>0.01</speed>
  <fix>3d</fix>
</trkpt>
<trkpt lat="40.0728424" lon="-105.2305753">
  <ele>1606.26</ele>
  <time>2026-08-27T18:26:35Z</time>
  <course>257.51</course>
  <speed>0.01</speed>
  <fix>3d</fix>
</trkpt>
<trkpt lat="40.0728423" lon="-105.2305752">
  <ele>1606.82</ele>
  <time>2026-08-27T18:26:35Z</time>
  <course>4.05</course>
  <speed>0.01</speed>
  <fix>3d</fix>
</trkpt>
<trkpt lat="40.0728423" lon="-105.2305753">
  <ele>1607.3</ele>
  <time>2026-08-27T18:26:35Z</time>
  <course>4.22</course>
  <speed>0.01</speed>
  <fix>3d</fix>
</trkpt>
<trkpt lat="40.0728424" lon="-105.2305753">
  <ele>1606.76</ele>
  <time>2026-08-27T18:26:35Z</time>
  <course>250.94</course>
  <speed>0.01</speed>
  <fix>3d</fix>
</trkpt>
<trkpt lat="40.0728423" lon="-105.2305753">
  <ele>1607.36</ele>
  <time>2026-08-27T18:26:35Z</time>
  <course>4.24</course>
  <speed>0.01</speed>
  <fix>3d</fix>
</trkpt>
<trkpt lat="40.0728423" lon="-105.2305753">
  <ele>1607.81</ele>
  <time>2026-08-27T18:26:35Z</time>
  <course>4.36</course>
  <speed>0.01414213562373095</speed>
  <fix>3d</fix>
</trkpt>
<trkpt lat="40.0728424" lon="-105.2305754">
  <ele>1607.26</ele>
  <time>2026-08-27T18:26:35Z</time>
  <course>241.49</course>
  <speed>0.01</speed>
  <fix>3d</fix>
</trkpt>
<trkpt lat="40.0728423" lon="-105.2305753">
  <ele>1607.83</ele>
  <time>2026-08-27T18:26:35Z</time>
  <course>4.37</course>
  <speed>0.01414213562373095</speed>
  <fix>3d</fix>
</trkpt>
<trkpt lat="40.0728423" lon="-105.2305753">
  <ele>1608.31</ele>
  <time>2026-08-27T18:26:35Z</time>
  <course>4.5</course>
  <speed>0.01414213562373095</speed>
  <fix>3d</fix>
</trkpt>
<trkpt lat="40.0728424" lon="-105.2305755">
  <ele>1607.76</ele>
  <time>2026-08-27T18:26:35Z</time>
  <course>227.56</course>
  <speed>0.0</speed>
  <fix>3d</fix>
</trkpt>
<trkpt lat="40.0728423" lon="-105.2305753">
  <ele>1608.4</ele>
  <time>2026-08-27T18:26:35Z</time>
  <course>4.52</course>
  <speed>0.01414213562373095</speed>
  <fix>3d</fix>
</trkpt>
<trkpt lat="40.0728423" lon="-105.2305753">
  <ele>1608.81</ele>
  <time>2026-08-27T18:26:35Z</time>
  <course>4.63</course>
  <speed>0.01414213562373095</speed>
  <fix>3d</fix>
</trkpt>
<trkpt lat="40.0728424" lon="-105.2305755">
  <ele>1608.26</ele>
  <time>2026-08-27T18:26:35Z</time>
  <course>211.73</course>
  <speed>0.0</speed>
  <fix>3d</fix>
</trkpt>
<trkpt lat="40.0728423" lon="-105.2305753">
  <ele>1608.89</ele>
  <time>2026-08-27T18:26:35Z</time>
  <course>4.65</course>
  <speed>0.01414213562373095</speed>
  <fix>3d</fix>
</trkpt>
<trkpt lat="40.0728423" lon="-105.2305753">
  <ele>1609.31</ele>
  <time>2026-08-27T18:26:35Z</time>
  <course>4.75</course>
  <speed>0.022360679774997897</speed>
  <fix>3d</fix>
</trkpt>
<trkpt lat="40.0728424" lon="-105.2305755">
  <ele>1608.77</ele>
  <time>2026-08-27T18:26:35Z</time>
  <course>193.02</course>
  <speed>0.0</speed>
  <fix>3d</fix>
</trkpt>
<trkpt lat="40.0728423" lon="-105.2305753">
  <ele>1609.34</ele>
  <time>2026-08-27T18:26:35Z</time>
  <course>4.76</course>
  <speed>0.022360679774997897</speed>
  <fix>3d</fix>
</trkpt>
<trkpt lat="40.0728423" lon="-105.2305753">
  <ele>1609.81</ele>
  <time>2026-08-27T18:26:35Z</time>
  <course>4.89</course>
  <speed>0.022360679774997897</speed>
  <fix>3d</fix>
</trkpt>
<trkpt lat="40.0728424" lon="-105.2305755">
  <ele>1609.26</ele>
  <time>2026-08-27T18:26:35Z</time>
  <course>173.32</course>
  <speed>0.0</speed>
  <fix>3d</fix>
</trkpt>
<trkpt lat="40.0728423" lon="-105.2305753">
  <ele>1609.89</ele>
  <time>2026-08-27T18:26:35Z</time>
  <course>4.9</course>
  <speed>0.022360679774997897</speed>
  <fix>3d</fix>
</trkpt>
<trkpt lat="40.0728423" lon="-105.2305753">
  <ele>1610.31</ele>
  <time>2026-08-27T18:26:35Z</time>
  <course>5.01</course>
  <speed>0.022360679774997897</speed>
  <fix>3d</fix>
</trkpt>
<trkpt lat="40.0728424" lon="-105.2305755">
  <ele>1609.76</ele>
  <time>2026-08-27T18:26:35Z</time>
  <course>160.89</course>
  <speed>0.0</speed>
  <fix>3d</fix>
</trkpt>
<trkpt lat="40.0728423" lon="-105.2305753">
  <ele>1610.33</ele>
  <time>2026-08-27T18:26:35Z</time>
  <course>5.01</course>
  <speed>0.022360679774997897</speed>
  <fix>3d</fix>
</trkpt>
<trkpt lat="40.0728423" lon="-105.2305753">
  <ele>1610.81</ele>
  <time>2026-08-27T18:26:35Z</time>
  <course>5.1</course>
  <speed>0.022360679774997897</speed>
  <fix>3d</fix>
</trkpt>
<trkpt lat="40.0728424" lon="-105.2305755">
  <ele>1610.26</ele>
  <time>2026-08-27T18:26:35Z</time>
  <course>153.13</course>
  <speed>0.0</speed>
  <fix>3d</fix>
</trkpt>
<trkpt lat="40.0728423" lon="-105.2305753">
  <ele>1610.88</ele>
  <time>2026-08-27T18:26:35Z</time>
  <course>5.12</course>
  <speed>0.022360679774997897</speed>
  <fix>3d</fix>
</trkpt>
<trkpt lat="40.0728423" lon="-105.2305753">
  <ele>1611.31</ele>
  <time>2026-08-27T18:26:35Z</time>
  <course>5.21</course>
  <speed>0.022360679774997897</speed>
  <fix>3d</fix>
</trkpt>
<trkpt lat="40.0728424" lon="-105.2305755">
  <ele>1610.76</ele>
  <time>2026-08-27T18:26:35Z</time>
  <course>147.73</course>
  <speed>0.0</speed>
  <fix>3d</fix>
</trkpt>
<trkpt lat="40.0728423" lon="-105.2305753">
  <ele>1611.39</ele>
  <time>2026-08-27T18:26:35Z</time>
  <course>5.22</course>
  <speed>0.022360679774997897</speed>
  <fix>3d</fix>
</trkpt>
<trkpt lat="40.0728423" lon="-105.2305753">
  <ele>1611.8</ele>
  <time>2026-08-27T18:26:35Z</time>
  <course>5.31</course>
  <speed>0.022360679774997897</speed>
  <fix>3d</fix>
</trkpt>
<trkpt lat="40.0728424" lon="-105.2305755">
  <ele>1611.26</ele>
  <time>2026-08-27T18:26:35Z</time>
  <course>144.45</course>
  <speed>0.0</speed>
  <fix>3d</fix>
</trkpt>
<trkpt lat="40.0728423" lon="-105.2305753">
  <ele>1611.89</ele>
  <time>2026-08-27T18:26:35Z</time>
  <course>5.33</course>
  <speed>0.022360679774997897</speed>
  <fix>3d</fix>
</trkpt>
<trkpt lat="40.0728423" lon="-105.2305753">
  <ele>1612.3</ele>
  <time>2026-08-27T18:26:35Z</time>
  <course>5.39</course>
  <speed>0.022360679774997897</speed>
  <fix>3d</fix>
</trkpt>
<trkpt lat="40.0728423" lon="-105.2305755">
  <ele>1611.76</ele>
  <time>2026-08-27T18:26:35Z</time>
  <course>140.2</course>
  <speed>0.0</speed>
  <fix>3d</fix>
</trkpt>
<trkpt lat="40.0728423" lon="-105.2305753">
  <ele>1612.38</ele>
  <time>2026-08-27T18:26:35Z</time>
  <course>5.41</course>
  <speed>0.022360679774997897</speed>
  <fix>3d</fix>
</trkpt>
<trkpt lat="40.0728423" lon="-105.2305753">
  <ele>1612.8</ele>
  <time>2026-08-27T18:26:35Z</time>
  <course>5.49</course>
  <speed>0.022360679774997897</speed>
  <fix>3d</fix>
</trkpt>
<trkpt lat="40.0728423" lon="-105.2305755">
  <ele>1612.26</ele>
  <time>2026-08-27T18:26:35Z</time>
  <course>135.91</course>
  <speed>0.0</speed>
  <fix>3d</fix>
</trkpt>
<trkpt lat="40.0728423" lon="-105.2305753">
  <ele>1612.82</ele>
  <time>2026-08-27T18:26:35Z</time>
  <course>5.49</course>
  <speed>0.022360679774997897</speed>
  <fix>3d</fix>
</trkpt>
<trkpt lat="40.0728423" lon="-105.2305753">
  <ele>1613.31</ele>
  <time>2026-08-27T18:26:35Z</time>
  <course>5.58</course>
  <speed>0.022360679774997897</speed>
  <fix>3d</fix>
</trkpt>
<trkpt lat="40.0728423" lon="-105.2305755">
  <ele>1612.76</ele>
  <time>2026-08-27T18:26:35Z</time>
  <course>135.03</course>
  <speed>0.0</speed>
  <fix>3d</fix>
</trkpt>
<trkpt lat="40.0728423" lon="-105.2305753">
  <ele>1613.38</ele>
  <time>2026-08-27T18:26:35Z</time>
  <course>5.59</course>
  <speed>0.022360679774997897</speed>
  <fix>3d</fix>
</trkpt>
<trkpt lat="40.0728423" lon="-105.2305753">
  <ele>1613.8</ele>
  <time>2026-08-27T18:26:35Z</time>
  <course>5.68</course>
  <speed>0.022360679774997897</speed>
  <fix>3d</fix>
</trkpt>
<trkpt lat="40.0728423" lon="-105.2305755">
  <ele>1613.26</ele>
  <time>2026-08-27T18:26:35Z</time>
  <course>136.73</course>
  <speed>0.0</speed>
  <fix>3d</fix>
</trkpt>
<trkpt lat="40.0728423" lon="-105.2305753">
  <ele>1613.89</ele>
  <time>2026-08-27T18:26:35Z</time>
  <course>5.69</course>
  <speed>0.022360679774997897</speed>
  <fix>3d</fix>
</trkpt>
<trkpt lat="40.0728423" lon="-105.2305753">
  <ele>1614.3</ele>
  <time>2026-08-27T18:26:35Z</time>
  <course>5.75</course>
  <speed>0.022360679774997897</speed>
  <fix>3d</fix>
</trkpt>
<trkpt lat="40.0728423" lon="-105.2305755">
  <ele>1613.76</ele>
  <time>2026-08-27T18:26:35Z</time>
  <course>137.28</course>
  <speed>0.0</speed>
  <fix>3d</fix>
</trkpt>
<trkpt lat="40.0728423" lon="-105.2305753">
  <ele>1614.39</ele>
  <time>2026-08-27T18:26:35Z</time>
  <course>5.76</course>
  <speed>0.022360679774997897</speed>
  <fix>3d</fix>
</trkpt>
<trkpt lat="40.0728422" lon="-105.2305753">
  <ele>1614.8</ele>
  <time>2026-08-27T18:26:35Z</time>
  <course>5.84</course>
  <speed>0.022360679774997897</speed>
  <fix>3d</fix>
</trkpt>
<trkpt lat="40.0728423" lon="-105.2305755">
  <ele>1614.26</ele>
  <time>2026-08-27T18:26:35Z</time>
  <course>135.6</course>
  <speed>0.0</speed>
  <fix>3d</fix>
</trkpt>
<trkpt lat="40.0728422" lon="-105.2305753">
  <ele>1614.92</ele>
  <time>2026-08-27T18:26:35Z</time>
  <course>5.86</course>
  <speed>0.022360679774997897</speed>
  <fix>3d</fix>
</trkpt>
<trkpt lat="40.0728422" lon="-105.2305753">
  <ele>1615.3</ele>
  <time>2026-08-27T18:26:35Z</time>
  <course>5.88</course>
  <speed>0.022360679774997897</speed>
  <fix>3d</fix>
</trkpt>
<trkpt lat="40.0728423" lon="-105.2305755">
  <ele>1614.76</ele>
  <time>2026-08-27T18:26:35Z</time>
  <course>135.81</course>
  <speed>0.0</speed>
  <fix>3d</fix>
</trkpt>
<trkpt lat="40.0728422" lon="-105.2305753">
  <ele>1615.3</ele>
  <time>2026-08-27T18:26:35Z</time>
  <course>5.88</course>
  <speed>0.022360679774997897</speed>
  <fix>3d</fix>
</trkpt>
<trkpt lat="40.0728422" lon="-105.2305753">
  <ele>1615.8</ele>
  <time>2026-08-27T18:26:35Z</time>
  <course>5.92</course>
  <speed>0.0282842712474619</speed>
  <fix>3d</fix>
</trkpt>
<trkpt lat="40.0728423" lon="-105.2305755">
  <ele>1615.26</ele>
  <time>2026-08-27T18:26:35Z</time>
  <course>140.08</course>
  <speed>0.0</speed>
  <fix>3d</fix>
</trkpt>
<trkpt lat="40.0728422" lon="-105.2305753">
  <ele>1615.87</ele>
  <time>2026-08-27T18:26:35Z</time>
  <course>5.93</course>
  <speed>0.0282842712474619</speed>
  <fix>3d</fix>
</trkpt>
<trkpt lat="40.0728422" lon="-105.2305753">
  <ele>1616.31</ele>
  <time>2026-08-27T18:26:35Z</time>
  <course>6.04</course>
  <speed>0.0282842712474619</speed>
  <fix>3d</fix>
</trkpt>
<trkpt lat="40.0728423" lon="-105.2305754">
  <ele>1615.76</ele>
  <time>2026-08-27T18:26:35Z</time>
  <course>143.72</course>
  <speed>0.0</speed>
  <fix>3d</fix>
</trkpt>
<trkpt lat="40.0728422" lon="-105.2305753">
  <ele>1616.38</ele>
  <time>2026-08-27T18:26:35Z</time>
  <course>6.06</course>
  <speed>0.0282842712474619</speed>
  <fix>3d</fix>
</trkpt>
<trkpt lat="40.0728422" lon="-105.2305752">
  <ele>1616.81</ele>
  <time>2026-08-27T18:26:35Z</time>
  <course>6.12</course>
  <speed>0.0282842712474619</speed>
  <fix>3d</fix>
</trkpt>
<trkpt lat="40.0728422" lon="-105.2305753">
  <ele>1616.26</ele>
  <time>2026-08-27T18:26:35Z</time>
  <course>145.41</course>
  <speed>0.01</speed>
  <fix>3d</fix>
</trkpt>
<trkpt lat="40.0728422" lon="-105.2305752">
  <ele>1616.89</ele>
  <time>2026-08-27T18:26:35Z</time>
  <course>6.13</course>
  <speed>0.0282842712474619</speed>
  <fix>3d</fix>
</trkpt>
<trkpt lat="40.0728422" lon="-105.2305752">
  <ele>1617.32</ele>
  <time>2026-08-27T18:26:35Z</time>
  <course>6.18</course>
  <speed>0.0282842712474619</speed>
  <fix>3d</fix>
</trkpt>
<trkpt lat="40.0728421" lon="-105.2305753">
  <ele>1616.76</ele>
  <time>2026-08-27T18:26:35Z</time>
  <course>146.56</course>
  <speed>0.01</speed>
  <fix>3d</fix>
</trkpt>
<trkpt lat="40.0728422" lon="-105.2305752">
  <ele>1617.39</ele>
  <time>2026-08-27T18:26:35Z</time>
  <course>6.19</course>
  <speed>0.0282842712474619</speed>
  <fix>3d</fix>
</trkpt>
<trkpt lat="40.0728422" lon="-105.2305752">
  <ele>1617.82</ele>
  <time>2026-08-27T18:26:35Z</time>
  <course>6.27</course>
  <speed>0.0282842712474619</speed>
  <fix>3d</fix>
</trkpt>
<trkpt lat="40.0728421" lon="-105.2305753">
  <ele>1617.26</ele>
  <time>2026-08-27T18:26:35Z</time>
  <course>148.15</course>
  <speed>0.01</speed>
  <fix>3d</fix>
</trkpt>
<trkpt lat="40.0728422" lon="-105.2305752">
  <ele>1617.84</ele>
  <time>2026-08-27T18:26:35Z</time>
  <course>6.27</course>
  <speed>0.0282842712474619</speed>
  <fix>3d</fix>
</trkpt>
<trkpt lat="40.0728421" lon="-105.2305752">
  <ele>1618.31</ele>
  <time>2026-08-27T18:26:35Z</time>
  <course>6.33</course>
  <speed>0.0282842712474619</speed>
  <fix>3d</fix>
</trkpt>
<trkpt lat="40.0728421" lon="-105.2305753">
  <ele>1617.76</ele>
  <time>2026-08-27T18:26:35Z</time>
  <course>147.61</course>
  <speed>0.0</speed>
  <fix>3d</fix>
</trkpt>
<trkpt lat="40.0728421" lon="-105.2305752">
  <ele>1618.4</ele>
  <time>2026-08-27T18:26:35Z</time>
  <course>6.34</course>
  <speed>0.0282842712474619</speed>
  <fix>3d</fix>
</trkpt>
<trkpt lat="40.0728421" lon="-105.2305752">
  <ele>1618.81</ele>
  <time>2026-08-27T18:26:35Z</time>
  <course>6.4</course>
  <speed>0.022360679774997897</speed>
  <fix>3d</fix>
</trkpt>
<trkpt lat="40.0728421" lon="-105.2305753">
  <ele>1618.26</ele>
  <time>2026-08-27T18:26:35Z</time>
  <course>142.77</course>
  <speed>0.0</speed>
  <fix>3d</fix>
</trkpt>
<trkpt lat="40.0728421" lon="-105.2305752">
  <ele>1618.88</ele>
  <time>2026-08-27T18:26:35Z</time>
  <course>6.4</course>
  <speed>0.022360679774997897</speed>
  <fix>3d</fix>
</trkpt>
<trkpt lat="40.0728421" lon="-105.2305752">
  <ele>1619.31</ele>
  <time>2026-08-27T18:26:35Z</time>
  <course>6.46</course>
  <speed>0.022360679774997897</speed>
  <fix>3d</fix>
</trkpt>
<trkpt lat="40.0728421" lon="-105.2305753">
  <ele>1618.76</ele>
  <time>2026-08-27T18:26:35Z</time>
  <course>139.01</course>
  <speed>0.0</speed>
  <fix>3d</fix>
</trkpt>
<trkpt lat="40.0728421" lon="-105.2305752">
  <ele>1619.4</ele>
  <time>2026-08-27T18:26:35Z</time>
  <course>6.47</course>
  <speed>0.022360679774997897</speed>
  <fix>3d</fix>
</trkpt>
<trkpt lat="40.0728421" lon="-105.2305751">
  <ele>1619.81</ele>
  <time>2026-08-27T18:26:35Z</time>
  <course>6.51</course>
  <speed>0.022360679774997897</speed>
  <fix>3d</fix>
</trkpt>
<trkpt lat="40.0728421" lon="-105.2305753">
  <ele>1619.25</ele>
  <time>2026-08-27T18:26:35Z</time>
  <course>136.47</course>
  <speed>0.0</speed>
  <fix>3d</fix>
</trkpt>
<trkpt lat="40.0728421" lon="-105.2305751">
  <ele>1619.88</ele>
  <time>2026-08-27T18:26:35Z</time>
  <course>6.52</course>
  <speed>0.022360679774997897</speed>
  <fix>3d</fix>
</trkpt>
<trkpt lat="40.0728421" lon="-105.2305751">
  <ele>1620.31</ele>
  <time>2026-08-27T18:26:35Z</time>
  <course>6.57</course>
  <speed>0.022360679774997897</speed>
  <fix>3d</fix>
</trkpt>
<trkpt lat="40.0728421" lon="-105.2305753">
  <ele>1619.75</ele>
  <time>2026-08-27T18:26:35Z</time>
  <course>119.4</course>
  <speed>0.0</speed>
  <fix>3d</fix>
</trkpt>
<trkpt lat="40.0728421" lon="-105.2305751">
  <ele>1620.35</ele>
  <time>2026-08-27T18:26:35Z</time>
  <course>6.58</course>
  <speed>0.022360679774997897</speed>
  <fix>3d</fix>
</trkpt>
<trkpt lat="40.0728421" lon="-105.2305751">
  <ele>1620.81</ele>
  <time>2026-08-27T18:26:35Z</time>
  <course>6.64</course>
  <speed>0.022360679774997897</speed>
  <fix>3d</fix>
</trkpt>
<trkpt lat="40.0728421" lon="-105.2305753">
  <ele>1620.25</ele>
  <time>2026-08-27T18:26:35Z</time>
  <course>60.55</course>
  <speed>0.0</speed>
  <fix>3d</fix>
</trkpt>
<trkpt lat="40.0728421" lon="-105.2305751">
  <ele>1620.83</ele>
  <time>2026-08-27T18:26:35Z</time>
  <course>6.64</course>
  <speed>0.022360679774997897</speed>
  <fix>3d</fix>
</trkpt>
<trkpt lat="40.0728421" lon="-105.2305751">
  <ele>1621.3</ele>
  <time>2026-08-27T18:26:35Z</time>
  <course>6.68</course>
  <speed>0.022360679774997897</speed>
  <fix>3d</fix>
</trkpt>
<trkpt lat="40.0728421" lon="-105.2305753">
  <ele>1620.75</ele>
  <time>2026-08-27T18:26:35Z</time>
  <course>14.54</course>
  <speed>0.0</speed>
  <fix>3d</fix>
</trkpt>
<trkpt lat="40.0728421" lon="-105.2305751">
  <ele>1621.37</ele>
  <time>2026-08-27T18:26:35Z</time>
  <course>6.69</course>
  <speed>0.022360679774997897</speed>
  <fix>3d</fix>
</trkpt>
<trkpt lat="40.0728421" lon="-105.2305751">
  <ele>1621.8</ele>
  <time>2026-08-27T18:26:35Z</time>
  <course>6.72</course>
  <speed>0.02</speed>
  <fix>3d</fix>
</trkpt>
<trkpt lat="40.0728421" lon="-105.2305753">
  <ele>1621.25</ele>
  <time>2026-08-27T18:26:35Z</time>
  <course>7.48</course>
  <speed>0.0</speed>
  <fix>3d</fix>
</trkpt>
<trkpt lat="40.0728421" lon="-105.2305751">
  <ele>1621.87</ele>
  <time>2026-08-27T18:26:35Z</time>
  <course>6.73</course>
  <speed>0.02</speed>
  <fix>3d</fix>
</trkpt>
<trkpt lat="40.0728421" lon="-105.2305751">
  <ele>1622.3</ele>
  <time>2026-08-27T18:26:35Z</time>
  <course>6.77</course>
  <speed>0.02</speed>
  <fix>3d</fix>
</trkpt>
<trkpt lat="40.0728421" lon="-105.2305753">
  <ele>1621.74</ele>
  <time>2026-08-27T18:26:35Z</time>
  <course>3.49</course>
  <speed>0.0</speed>
  <fix>3d</fix>
</trkpt>
<trkpt lat="40.0728421" lon="-105.2305751">
  <ele>1622.37</ele>
  <time>2026-08-27T18:26:35Z</time>
  <course>6.78</course>
  <speed>0.02</speed>
  <fix>3d</fix>
</trkpt>
<trkpt lat="40.0728421" lon="-105.2305751">
  <ele>1622.8</ele>
  <time>2026-08-27T18:26:35Z</time>
  <course>6.83</course>
  <speed>0.02</speed>
  <fix>3d</fix>
</trkpt>
<trkpt lat="40.0728421" lon="-105.2305753">
  <ele>1622.24</ele>
  <time>2026-08-27T18:26:35Z</time>
  <course>0.04</course>
  <speed>0.0</speed>
  <fix>3d</fix>
</trkpt>
<trkpt lat="40.0728421" lon="-105.2305751">
  <ele>1622.88</ele>
  <time>2026-08-27T18:26:35Z</time>
  <course>6.84</course>
  <speed>0.02</speed>
  <fix>3d</fix>
</trkpt>
<trkpt lat="40.0728421" lon="-105.2305751">
  <ele>1623.31</ele>
  <time>2026-08-27T18:26:35Z</time>
  <course>6.89</course>
  <speed>0.02</speed>
  <fix>3d</fix>
</trkpt>
<trkpt lat="40.0728421" lon="-105.2305753">
  <ele>1622.74</ele>
  <time>2026-08-27T18:26:35Z</time>
  <course>355.41</course>
  <speed>0.0</speed>
  <fix>3d</fix>
</trkpt>
<trkpt lat="40.0728421" lon="-105.2305751">
  <ele>1623.33</ele>
  <time>2026-08-27T18:26:35Z</time>
  <course>6.9</course>
  <speed>0.02</speed>
  <fix>3d</fix>
</trkpt>
<trkpt lat="40.0728421" lon="-105.2305751">
  <ele>1623.82</ele>
  <time>2026-08-27T18:26:35Z</time>
  <course>6.95</course>
  <speed>0.01</speed>
  <fix>3d</fix>
</trkpt>
<trkpt lat="40.0728421" lon="-105.2305753">
  <ele>1623.24</ele>
  <time>2026-08-27T18:26:35Z</time>
  <course>349.98</course>
  <speed>0.0</speed>
  <fix>3d</fix>
</trkpt>
<trkpt lat="40.0728421" lon="-105.2305752">
  <ele>1623.9</ele>
  <time>2026-08-27T18:26:35Z</time>
  <course>6.97</course>
  <speed>0.01</speed>
  <fix>3d</fix>
</trkpt>
<trkpt lat="40.0728421" lon="-105.2305752">
  <ele>1624.32</ele>
  <time>2026-08-27T18:26:35Z</time>
  <course>7.01</course>
  <speed>0.01</speed>
  <fix>3d</fix>
</trkpt>
<trkpt lat="40.0728421" lon="-105.2305753">
  <ele>1623.74</ele>
  <time>2026-08-27T18:26:35Z</time>
  <course>344.6</course>
  <speed>0.0</speed>
  <fix>3d</fix>
</trkpt>
<trkpt lat="40.0728421" lon="-105.2305752">
  <ele>1624.39</ele>
  <time>2026-08-27T18:26:35Z</time>
  <course>7.02</course>
  <speed>0.01</speed>
  <fix>3d</fix>
</trkpt>
<trkpt lat="40.0728421" lon="-105.2305752">
  <ele>1624.82</ele>
  <time>2026-08-27T18:26:35Z</time>
  <course>7.06</course>
  <speed>0.01414213562373095</speed>
  <fix>3d</fix>
</trkpt>
<trkpt lat="40.0728421" lon="-105.2305753">
  <ele>1624.24</ele>
  <time>2026-08-27T18:26:35Z</time>
  <course>343.81</course>
  <speed>0.0</speed>
  <fix>3d</fix>
</trkpt>
<trkpt lat="40.0728421" lon="-105.2305752">
  <ele>1624.89</ele>
  <time>2026-08-27T18:26:35Z</time>
  <course>7.07</course>
  <speed>0.01414213562373095</speed>
  <fix>3d</fix>
</trkpt>
<trkpt lat="40.0728421" lon="-105.2305752">
  <ele>1625.31</ele>
  <time>2026-08-27T18:26:35Z</time>
  <course>7.11</course>
  <speed>0.022360679774997897</speed>
  <fix>3d</fix>
</trkpt>
<trkpt lat="40.0728421" lon="-105.2305753">
  <ele>1624.74</ele>
  <time>2026-08-27T18:26:35Z</time>
  <course>350.62</course>
  <speed>0.0</speed>
  <fix>3d</fix>
</trkpt>
<trkpt lat="40.0728421" lon="-105.2305752">
  <ele>1625.39</ele>
  <time>2026-08-27T18:26:35Z</time>
  <course>7.11</course>
  <speed>0.022360679774997897</speed>
  <fix>3d</fix>
</trkpt>
<trkpt lat="40.0728421" lon="-105.2305752">
  <ele>1625.81</ele>
  <time>2026-08-27T18:26:35Z</time>
  <course>7.16</course>
  <speed>0.022360679774997897</speed>
  <fix>3d</fix>
</trkpt>
<trkpt lat="40.0728421" lon="-105.2305753">
  <ele>1625.24</ele>
  <time>2026-08-27T18:26:35Z</time>
  <course>358.62</course>
  <speed>0.0</speed>
  <fix>3d</fix>
</trkpt>
<trkpt lat="40.0728421" lon="-105.2305752">
  <ele>1625.82</ele>
  <time>2026-08-27T18:26:35Z</time>
  <course>7.16</course>
  <speed>0.022360679774997897</speed>
  <fix>3d</fix>
</trkpt>
<trkpt lat="40.0728421" lon="-105.2305752">
  <ele>1626.31</ele>
  <time>2026-08-27T18:26:35Z</time>
  <course>7.21</course>
  <speed>0.022360679774997897</speed>
  <fix>3d</fix>
</trkpt>
<trkpt lat="40.0728421" lon="-105.2305753">
  <ele>1625.74</ele>
  <time>2026-08-27T18:26:35Z</time>
  <course>4.19</course>
  <speed>0.0</speed>
  <fix>3d</fix>
</trkpt>
<trkpt lat="40.0728421" lon="-105.2305752">
  <ele>1626.39</ele>
  <time>2026-08-27T18:26:35Z</time>
  <course>7.21</course>
  <speed>0.022360679774997897</speed>
  <fix>3d</fix>
</trkpt>
<trkpt lat="40.0728421" lon="-105.2305752">
  <ele>1626.81</ele>
  <time>2026-08-27T18:26:35Z</time>
  <course>7.25</course>
  <speed>0.022360679774997897</speed>
  <fix>3d</fix>
</trkpt>
<trkpt lat="40.0728421" lon="-105.2305753">
  <ele>1626.23</ele>
  <time>2026-08-27T18:26:35Z</time>
  <course>7.46</course>
  <speed>0.0</speed>
  <fix>3d</fix>
</trkpt>
<trkpt lat="40.0728421" lon="-105.2305752">
  <ele>1626.89</ele>
  <time>2026-08-27T18:26:35Z</time>
  <course>7.26</course>
  <speed>0.022360679774997897</speed>
  <fix>3d</fix>
</trkpt>
<trkpt lat="40.0728421" lon="-105.2305752">
  <ele>1627.31</ele>
  <time>2026-08-27T18:26:35Z</time>
  <course>7.29</course>
  <speed>0.022360679774997897</speed>
  <fix>3d</fix>
</trkpt>
<trkpt lat="40.0728421" lon="-105.2305753">
  <ele>1626.73</ele>
  <time>2026-08-27T18:26:35Z</time>
  <course>15.42</course>
  <speed>0.0</speed>
  <fix>3d</fix>
</trkpt>
<trkpt lat="40.0728421" lon="-105.2305752">
  <ele>1627.39</ele>
  <time>2026-08-27T18:26:35Z</time>
  <course>7.3</course>
  <speed>0.022360679774997897</speed>
  <fix>3d</fix>
</trkpt>
<trkpt lat="40.0728421" lon="-105.2305751">
  <ele>1627.81</ele>
  <time>2026-08-27T18:26:35Z</time>
  <course>7.34</course>
  <speed>0.022360679774997897</speed>
  <fix>3d</fix>
</trkpt>
<trkpt lat="40.0728421" lon="-105.2305753">
  <ele>1627.23</ele>
  <time>2026-08-27T18:26:35Z</time>
  <course>23.89</course>
  <speed>0.0</speed>
  <fix>3d</fix>
</trkpt>
<trkpt lat="40.0728421" lon="-105.2305751">
  <ele>1627.82</ele>
  <time>2026-08-27T18:26:35Z</time>
  <course>7.34</course>
  <speed>0.022360679774997897</speed>
  <fix>3d</fix>
</trkpt>
<trkpt lat="40.0728421" lon="-105.2305751">
  <ele>1628.31</ele>
  <time>2026-08-27T18:26:35Z</time>
  <course>7.39</course>
  <speed>0.022360679774997897</speed>
  <fix>3d</fix>
</trkpt>
<trkpt lat="40.0728421" lon="-105.2305753">
  <ele>1627.73</ele>
  <time>2026-08-27T18:26:35Z</time>
  <course>25.77</course>
  <speed>0.0</speed>
  <fix>3d</fix>
</trkpt>
<trkpt lat="40.0728421" lon="-105.2305751">
  <ele>1628.39</ele>
  <time>2026-08-27T18:26:35Z</time>
  <course>7.4</course>
  <speed>0.022360679774997897</speed>
  <fix>3d</fix>
</trkpt>
<trkpt lat="40.0728421" lon="-105.2305752">
  <ele>1628.81</ele>
  <time>2026-08-27T18:26:35Z</time>
  <course>7.41</course>
  <speed>0.022360679774997897</speed>
  <fix>3d</fix>
</trkpt>
<trkpt lat="40.0728421" lon="-105.2305753">
  <ele>1628.22</ele>
  <time>2026-08-27T18:26:35Z</time>
  <course>28.81</course>
  <speed>0.0</speed>
  <fix>3d</fix>
</trkpt>
<trkpt lat="40.0728421" lon="-105.2305751">
  <ele>1628.83</ele>
  <time>2026-08-27T18:26:35Z</time>
  <course>7.41</course>
  <speed>0.022360679774997897</speed>
  <fix>3d</fix>
</trkpt>
<trkpt lat="40.0728421" lon="-105.2305752">
  <ele>1629.32</ele>
  <time>2026-08-27T18:26:35Z</time>
  <course>7.47</course>
  <speed>0.022360679774997897</speed>
  <fix>3d</fix>
</trkpt>
<trkpt lat="40.0728421" lon="-105.2305753">
  <ele>1628.72</ele>
  <time>2026-08-27T18:26:35Z</time>
  <course>29.88</course>
  <speed>0.0</speed>
  <fix>3d</fix>
</trkpt>
<trkpt lat="40.0728421" lon="-105.2305751">
  <ele>1629.4</ele>
  <time>2026-08-27T18:26:35Z</time>
  <course>7.47</course>
  <speed>0.022360679774997897</speed>
  <fix>3d</fix>
</trkpt>
<trkpt lat="40.0728421" lon="-105.2305751">
  <ele>1629.81</ele>
  <time>2026-08-27T18:26:35Z</time>
  <course>7.52</course>
  <speed>0.01414213562373095</speed>
  <fix>3d</fix>
</trkpt>
<trkpt lat="40.0728421" lon="-105.2305753">
  <ele>1629.22</ele>
  <time>2026-08-27T18:26:35Z</time>
  <course>25.92</course>
  <speed>0.0</speed>
  <fix>3d</fix>
</trkpt>
<trkpt lat="40.0728421" lon="-105.2305751">
  <ele>1629.89</ele>
  <time>2026-08-27T18:26:35Z</time>
  <course>7.53</course>
  <speed>0.022360679774997897</speed>
  <fix>3d</fix>
</trkpt>
<trkpt lat="40.0728421" lon="-105.2305751">
  <ele>1630.31</ele>
  <time>2026-08-27T18:26:35Z</time>
  <course>7.54</course>
  <speed>0.01414213562373095</speed>
  <fix>3d</fix>
</trkpt>
<trkpt lat="40.0728421" lon="-105.2305753">
  <ele>1629.72</ele>
  <time>2026-08-27T18:26:35Z</time>
  <course>27.18</course>
  <speed>0.0</speed>
  <fix>3d</fix>
</trkpt>
<trkpt lat="40.0728421" lon="-105.2305751">
  <ele>1630.32</ele>
  <time>2026-08-27T18:26:35Z</time>
  <course>7.54</course>
  <speed>0.01414213562373095</speed>
  <fix>3d</fix>
</trkpt>
<trkpt lat="40.0728421" lon="-105.2305751">
  <ele>1630.81</ele>
  <time>2026-08-27T18:26:35Z</time>
  <course>7.58</course>
  <speed>0.01414213562373095</speed>
  <fix>3d</fix>
</trkpt>
<trkpt lat="40.0728421" lon="-105.2305753">
  <ele>1630.21</ele>
  <time>2026-08-27T18:26:35Z</time>
  <course>30.5</course>
  <speed>0.0</speed>
  <fix>3d</fix>
</trkpt>
<trkpt lat="40.0728421" lon="-105.2305751">
  <ele>1630.89</ele>
  <time>2026-08-27T18:26:35Z</time>
  <course>7.59</course>
  <speed>0.01414213562373095</speed>
  <fix>3d</fix>
</trkpt>
<trkpt lat="40.0728421" lon="-105.2305751">
  <ele>1631.31</ele>
  <time>2026-08-27T18:26:35Z</time>
  <course>7.61</course>
  <speed>0.022360679774997897</speed>
  <fix>3d</fix>
</trkpt>
<trkpt lat="40.0728421" lon="-105.2305753">
  <ele>1630.71</ele>
  <time>2026-08-27T18:26:35Z</time>
  <course>30.88</course>
  <speed>0.0</speed>
  <fix>3d</fix>
</trkpt>
<trkpt lat="40.0728421" lon="-105.2305751">
  <ele>1631.32</ele>
  <time>2026-08-27T18:26:35Z</time>
  <course>7.61</course>
  <speed>0.022360679774997897</speed>
  <fix>3d</fix>
</trkpt>
<trkpt lat="40.0728421" lon="-105.2305751">
  <ele>1631.81</ele>
  <time>2026-08-27T18:26:35Z</time>
  <course>7.66</course>
  <speed>0.022360679774997897</speed>
  <fix>3d</fix>
</trkpt>
<trkpt lat="40.0728421" lon="-105.2305753">
  <ele>1631.21</ele>
  <time>2026-08-27T18:26:35Z</time>
  <course>28.99</course>
  <speed>0.0</speed>
  <fix>3d</fix>
</trkpt>
<trkpt lat="40.0728421" lon="-105.2305751">
  <ele>1631.89</ele>
  <time>2026-08-27T18:26:35Z</time>
  <course>7.66</course>
  <speed>0.022360679774997897</speed>
  <fix>3d</fix>
</trkpt>
<trkpt lat="40.0728421" lon="-105.2305751">
  <ele>1632.31</ele>
  <time>2026-08-27T18:26:35Z</time>
  <course>7.71</course>
  <speed>0.01414213562373095</speed>
  <fix>3d</fix>
</trkpt>
<trkpt lat="40.0728421" lon="-105.2305753">
  <ele>1631.71</ele>
  <time>2026-08-27T18:26:35Z</time>
  <course>24.54</course>
  <speed>0.0</speed>
  <fix>3d</fix>
</trkpt>
<trkpt lat="40.0728421" lon="-105.2305751">
  <ele>1632.38</ele>
  <time>2026-08-27T18:26:35Z</time>
  <course>7.71</course>
  <speed>0.01414213562373095</speed>
  <fix>3d</fix>
</trkpt>
<trkpt lat="40.0728421" lon="-105.2305751">
  <ele>1632.8</ele>
  <time>2026-08-27T18:26:35Z</time>
  <course>7.73</course>
  <speed>0.01414213562373095</speed>
  <fix>3d</fix>
</trkpt>
<trkpt lat="40.0728422" lon="-105.2305753">
  <ele>1632.2</ele>
  <time>2026-08-27T18:26:35Z</time>
  <course>26.46</course>
  <speed>0.0</speed>
  <fix>3d</fix>
</trkpt>
<trkpt lat="40.0728421" lon="-105.2305751">
  <ele>1632.87</ele>
  <time>2026-08-27T18:26:35Z</time>
  <course>7.73</course>
  <speed>0.01414213562373095</speed>
  <fix>3d</fix>
</trkpt>
<trkpt lat="40.0728421" lon="-105.2305751">
  <ele>1633.3</ele>
  <time>2026-08-27T18:26:35Z</time>
  <course>7.75</course>
  <speed>0.01414213562373095</speed>
  <fix>3d</fix>
</trkpt>
<trkpt lat="40.0728423" lon="-105.2305753">
  <ele>1632.7</ele>
  <time>2026-08-27T18:26:35Z</time>
  <course>32.6</course>
  <speed>0.0</speed>
  <fix>3d</fix>
</trkpt>
<trkpt lat="40.0728421" lon="-105.2305751">
  <ele>1633.37</ele>
  <time>2026-08-27T18:26:35Z</time>
  <course>7.76</course>
  <speed>0.01414213562373095</speed>
  <fix>3d</fix>
</trkpt>
<trkpt lat="40.0728421" lon="-105.2305751">
  <ele>1633.8</ele>
  <time>2026-08-27T18:26:35Z</time>
  <course>7.79</course>
  <speed>0.01414213562373095</speed>
  <fix>3d</fix>
</trkpt>
<trkpt lat="40.0728423" lon="-105.2305753">
  <ele>1633.2</ele>
  <time>2026-08-27T18:26:35Z</time>
  <course>35.56</course>
  <speed>0.0</speed>
  <fix>3d</fix>
</trkpt>
<trkpt lat="40.0728421" lon="-105.2305751">
  <ele>1633.88</ele>
  <time>2026-08-27T18:26:35Z</time>
  <course>7.8</course>
  <speed>0.01414213562373095</speed>
  <fix>3d</fix>
</trkpt>
<trkpt lat="40.0728421" lon="-105.2305751">
  <ele>1634.3</ele>
  <time>2026-08-27T18:26:35Z</time>
  <course>7.83</course>
  <speed>0.01414213562373095</speed>
  <fix>3d</fix>
</trkpt>
<trkpt lat="40.0728423" lon="-105.2305753">
  <ele>1633.7</ele>
  <time>2026-08-27T18:26:35Z</time>
  <course>36.2</course>
  <speed>0.0</speed>
  <fix>3d</fix>
</trkpt>
<trkpt lat="40.0728421" lon="-105.2305751">
  <ele>1634.31</ele>
  <time>2026-08-27T18:26:35Z</time>
  <course>7.83</course>
  <speed>0.01414213562373095</speed>
  <fix>3d</fix>
</trkpt>
<trkpt lat="40.0728421" lon="-105.2305751">
  <ele>1634.8</ele>
  <time>2026-08-27T18:26:35Z</time>
  <course>7.84</course>
  <speed>0.01414213562373095</speed>
  <fix>3d</fix>
</trkpt>
<trkpt lat="40.0728423" lon="-105.2305753">
  <ele>1634.2</ele>
  <time>2026-08-27T18:26:35Z</time>
  <course>40.48</course>
  <speed>0.0</speed>
  <fix>3d</fix>
</trkpt>
<trkpt lat="40.0728421" lon="-105.2305751">
  <ele>1634.88</ele>
  <time>2026-08-27T18:26:35Z</time>
  <course>7.85</course>
  <speed>0.01414213562373095</speed>
  <fix>3d</fix>
</trkpt>
<trkpt lat="40.0728421" lon="-105.2305751">
  <ele>1635.3</ele>
  <time>2026-08-27T18:26:35Z</time>
  <course>7.89</course>
  <speed>0.01414213562373095</speed>
  <fix>3d</fix>
</trkpt>
<trkpt lat="40.0728423" lon="-105.2305753">
  <ele>1634.7</ele>
  <time>2026-08-27T18:26:35Z</time>
  <course>49.33</course>
  <speed>0.0</speed>
  <fix>3d</fix>
</trkpt>
<trkpt lat="40.0728421" lon="-105.2305751">
  <ele>1635.31</ele>
  <time>2026-08-27T18:26:35Z</time>
  <course>7.89</course>
  <speed>0.01414213562373095</speed>
  <fix>3d</fix>
</trkpt>
<trkpt lat="40.0728421" lon="-105.2305751">
  <ele>1635.8</ele>
  <time>2026-08-27T18:26:35Z</time>
  <course>7.92</course>
  <speed>0.01414213562373095</speed>
  <fix>3d</fix>
</trkpt>
<trkpt lat="40.0728423" lon="-105.2305753">
  <ele>1635.2</ele>
  <time>2026-08-27T18:26:35Z</time>
  <course>76.15</course>
  <speed>0.0</speed>
  <fix>3d</fix>
</trkpt>
<trkpt lat="40.0728421" lon="-105.2305751">
  <ele>1635.87</ele>
  <time>2026-08-27T18:26:35Z</time>
  <course>7.93</course>
  <speed>0.01414213562373095</speed>
  <fix>3d</fix>
</trkpt>
<trkpt lat="40.0728421" lon="-105.2305751">
  <ele>1636.29</ele>
  <time>2026-08-27T18:26:35Z</time>
  <course>7.95</course>
  <speed>0.01414213562373095</speed>
  <fix>3d</fix>
</trkpt>
<trkpt lat="40.0728423" lon="-105.2305753">
  <ele>1635.7</ele>
  <time>2026-08-27T18:26:35Z</time>
  <course>125.89</course>
  <speed>0.0</speed>
  <fix>3d</fix>
</trkpt>
<trkpt lat="40.0728421" lon="-105.2305751">
  <ele>1636.36</ele>
  <time>2026-08-27T18:26:35Z</time>
  <course>7.95</course>
  <speed>0.01414213562373095</speed>
  <fix>3d</fix>
</trkpt>
<trkpt lat="40.0728421" lon="-105.2305751">
  <ele>1636.79</ele>
  <time>2026-08-27T18:26:35Z</time>
  <course>7.98</course>
  <speed>0.01414213562373095</speed>
  <fix>3d</fix>
</trkpt>
<trkpt lat="40.0728423" lon="-105.2305753">
  <ele>1636.2</ele>
  <time>2026-08-27T18:26:35Z</time>
  <course>148.22</course>
  <speed>0.0</speed>
  <fix>3d</fix>
</trkpt>
<trkpt lat="40.0728421" lon="-105.2305751">
  <ele>1636.8</ele>
  <time>2026-08-27T18:26:35Z</time>
  <course>7.98</course>
  <speed>0.01414213562373095</speed>
  <fix>3d</fix>
</trkpt>
<trkpt lat="40.0728421" lon="-105.2305751">
  <ele>1637.29</ele>
  <time>2026-08-27T18:26:35Z</time>
  <course>8.01</course>
  <speed>0.022360679774997897</speed>
  <fix>3d</fix>
</trkpt>
<trkpt lat="40.0728423" lon="-105.2305753">
  <ele>1636.7</ele>
  <time>2026-08-27T18:26:35Z</time>
  <course>156.08</course>
  <speed>0.0</speed>
  <fix>3d</fix>
</trkpt>
<trkpt lat="40.0728421" lon="-105.2305751">
  <ele>1637.36</ele>
  <time>2026-08-27T18:26:35Z</time>
  <course>8.0</course>
  <speed>0.022360679774997897</speed>
  <fix>3d</fix>
</trkpt>
<trkpt lat="40.0728421" lon="-105.2305751">
  <ele>1637.79</ele>
  <time>2026-08-27T18:26:35Z</time>
  <course>7.99</course>
  <speed>0.022360679774997897</speed>
  <fix>3d</fix>
</trkpt>
<trkpt lat="40.0728423" lon="-105.2305753">
  <ele>1637.2</ele>
  <time>2026-08-27T18:26:35Z</time>
  <course>158.93</course>
  <speed>0.0</speed>
  <fix>3d</fix>
</trkpt>
<trkpt lat="40.0728421" lon="-105.2305751">
  <ele>1637.79</ele>
  <time>2026-08-27T18:26:35Z</time>
  <course>7.99</course>
  <speed>0.022360679774997897</speed>
  <fix>3d</fix>
</trkpt>
<trkpt lat="40.0728421" lon="-105.2305751">
  <ele>1638.29</ele>
  <time>2026-08-27T18:26:35Z</time>
  <course>8.02</course>
  <speed>0.022360679774997897</speed>
  <fix>3d</fix>
</trkpt>
<trkpt lat="40.0728423" lon="-105.2305753">
  <ele>1637.7</ele>
  <time>2026-08-27T18:26:35Z</time>
  <course>161.13</course>
  <speed>0.01</speed>
  <fix>3d</fix>
</trkpt>
<trkpt lat="40.0728421" lon="-105.2305751">
  <ele>1638.36</ele>
  <time>2026-08-27T18:26:35Z</time>
  <course>8.03</course>
  <speed>0.022360679774997897</speed>
  <fix>3d</fix>
</trkpt>
<trkpt lat="40.0728421" lon="-105.2305751">
  <ele>1638.8</ele>
  <time>2026-08-27T18:26:36Z</time>
  <course>8.08</course>
  <speed>0.022360679774997897</speed>
  <fix>3d</fix>
</trkpt>
<trkpt lat="40.0728423" lon="-105.2305752">
  <ele>1638.2</ele>
  <time>2026-08-27T18:26:36Z</time>
  <course>163.21</course>
  <speed>0.01</speed>
  <fix>3d</fix>
</trkpt>
<trkpt lat="40.0728421" lon="-105.2305751">
  <ele>1638.86</ele>
  <time>2026-08-27T18:26:36Z</time>
  <course>8.08</course>
  <speed>0.022360679774997897</speed>
  <fix>3d</fix>
</trkpt>
<trkpt lat="40.0728421" lon="-105.2305751">
  <ele>1639.3</ele>
  <time>2026-08-27T18:26:36Z</time>
  <course>8.13</course>
  <speed>0.022360679774997897</speed>
  <fix>3d</fix>
</trkpt>
<trkpt lat="40.0728423" lon="-105.2305751">
  <ele>1638.71</ele>
  <time>2026-08-27T18:26:36Z</time>
  <course>164.79</course>
  <speed>0.01</speed>
  <fix>3d</fix>
</trkpt>
<trkpt lat="40.0728421" lon="-105.2305751">
  <ele>1639.36</ele>
  <time>2026-08-27T18:26:36Z</time>
  <course>8.13</course>
  <speed>0.022360679774997897</speed>
  <fix>3d</fix>
</trkpt>
<trkpt lat="40.0728421" lon="-105.2305751">
  <ele>1639.8</ele>
  <time>2026-08-27T18:26:36Z</time>
  <course>8.17</course>
  <speed>0.022360679774997897</speed>
  <fix>3d</fix>
</trkpt>
<trkpt lat="40.0728423" lon="-105.2305751">
  <ele>1639.21</ele>
  <time>2026-08-27T18:26:36Z</time>
  <course>166.91</course>
  <speed>0.01</speed>
  <fix>3d</fix>
</trkpt>
<trkpt lat="40.0728421" lon="-105.2305751">
  <ele>1639.86</ele>
  <time>2026-08-27T18:26:36Z</time>
  <course>8.17</course>
  <speed>0.022360679774997897</speed>
  <fix>3d</fix>
</trkpt>
<trkpt lat="40.0728421" lon="-105.2305751">
  <ele>1640.3</ele>
  <time>2026-08-27T18:26:36Z</time>
  <course>8.16</course>
  <speed>0.022360679774997897</speed>
  <fix>3d</fix>
</trkpt>
<trkpt lat="40.0728422" lon="-105.2305751">
  <ele>1639.71</ele>
  <time>2026-08-27T18:26:36Z</time>
  <course>169.53</course>
  <speed>0.01</speed>
  <fix>3d</fix>
</trkpt>
<trkpt lat="40.0728421" lon="-105.2305751">
  <ele>1640.3</ele>
  <time>2026-08-27T18:26:36Z</time>
  <course>8.17</course>
  <speed>0.022360679774997897</speed>
  <fix>3d</fix>
</trkpt>
<trkpt lat="40.0728421" lon="-105.2305751">
  <ele>1640.8</ele>
  <time>2026-08-27T18:26:36Z</time>
  <course>8.22</course>
  <speed>0.022360679774997897</speed>
  <fix>3d</fix>
</trkpt>
<trkpt lat="40.0728421" lon="-105.2305751">
  <ele>1640.21</ele>
  <time>2026-08-27T18:26:36Z</time>
  <course>174.13</course>
  <speed>0.01</speed>
  <fix>3d</fix>
</trkpt>
<trkpt lat="40.0728421" lon="-105.2305751">
  <ele>1640.88</ele>
  <time>2026-08-27T18:26:36Z</time>
  <course>8.22</course>
  <speed>0.022360679774997897</speed>
  <fix>3d</fix>
</trkpt>
<trkpt lat="40.0728421" lon="-105.2305751">
  <ele>1641.31</ele>
  <time>2026-08-27T18:26:36Z</time>
  <course>8.23</course>
  <speed>0.022360679774997897</speed>
  <fix>3d</fix>
</trkpt>
<trkpt lat="40.0728421" lon="-105.2305751">
  <ele>1640.71</ele>
  <time>2026-08-27T18:26:36Z</time>
  <course>180.41</course>
  <speed>0.01</speed>
  <fix>3d</fix>
</trkpt>
<trkpt lat="40.0728421" lon="-105.2305751">
  <ele>1641.38</ele>
  <time>2026-08-27T18:26:36Z</time>
  <course>8.24</course>
  <speed>0.022360679774997897</speed>
  <fix>3d</fix>
</trkpt>
<trkpt lat="40.0728421" lon="-105.2305751">
  <ele>1641.81</ele>
  <time>2026-08-27T18:26:36Z</time>
  <course>8.27</course>
  <speed>0.022360679774997897</speed>
  <fix>3d</fix>
</trkpt>
<trkpt lat="40.0728421" lon="-105.2305751">
  <ele>1641.21</ele>
  <time>2026-08-27T18:26:36Z</time>
  <course>185.23</course>
  <speed>0.01</speed>
  <fix>3d</fix>
</trkpt>
<trkpt lat="40.0728421" lon="-105.2305751">
  <ele>1641.88</ele>
  <time>2026-08-27T18:26:36Z</time>
  <course>8.27</course>
  <speed>0.022360679774997897</speed>
  <fix>3d</fix>
</trkpt>
<trkpt lat="40.0728421" lon="-105.230575">
  <ele>1642.31</ele>
  <time>2026-08-27T18:26:36Z</time>
  <course>8.29</course>
  <speed>0.022360679774997897</speed>
  <fix>3d</fix>
</trkpt>
<trkpt lat="40.0728421" lon="-105.2305751">
  <ele>1641.71</ele>
  <time>2026-08-27T18:26:36Z</time>
  <course>189.27</course>
  <speed>0.01</speed>
  <fix>3d</fix>
</trkpt>
<trkpt lat="40.072842" lon="-105.230575">
  <ele>1642.38</ele>
  <time>2026-08-27T18:26:36Z</time>
  <course>8.3</course>
  <speed>0.022360679774997897</speed>
  <fix>3d</fix>
</trkpt>
<trkpt lat="40.072842" lon="-105.230575">
  <ele>1642.81</ele>
  <time>2026-08-27T18:26:36Z</time>
  <course>8.33</course>
  <speed>0.022360679774997897</speed>
  <fix>3d</fix>
</trkpt>
<trkpt lat="40.072842" lon="-105.2305751">
  <ele>1642.21</ele>
  <time>2026-08-27T18:26:36Z</time>
  <course>195.4</course>
  <speed>0.01</speed>
  <fix>3d</fix>
</trkpt>
<trkpt lat="40.072842" lon="-105.230575">
  <ele>1642.82</ele>
  <time>2026-08-27T18:26:36Z</time>
  <course>8.32</course>
  <speed>0.022360679774997897</speed>
  <fix>3d</fix>
</trkpt>
<trkpt lat="40.072842" lon="-105.230575">
  <ele>1643.31</ele>
  <time>2026-08-27T18:26:36Z</time>
  <course>8.36</course>
  <speed>0.01414213562373095</speed>
  <fix>3d</fix>
</trkpt>
<trkpt lat="40.072842" lon="-105.2305751">
  <ele>1642.71</ele>
  <time>2026-08-27T18:26:36Z</time>
  <course>205.14</course>
  <speed>0.01</speed>
  <fix>3d</fix>
</trkpt>
<trkpt lat="40.072842" lon="-105.230575">
  <ele>1643.37</ele>
  <time>2026-08-27T18:26:36Z</time>
  <course>8.36</course>
  <speed>0.01414213562373095</speed>
  <fix>3d</fix>
</trkpt>
<trkpt lat="40.072842" lon="-105.230575">
  <ele>1643.8</ele>
  <time>2026-08-27T18:26:36Z</time>
  <course>8.38</course>
  <speed>0.01414213562373095</speed>
  <fix>3d</fix>
</trkpt>
<trkpt lat="40.072842" lon="-105.2305751">
  <ele>1643.21</ele>
  <time>2026-08-27T18:26:36Z</time>
  <course>218.26</course>
  <speed>0.0</speed>
  <fix>3d</fix>
</trkpt>
<trkpt lat="40.072842" lon="-105.230575">
  <ele>1643.88</ele>
  <time>2026-08-27T18:26:36Z</time>
  <course>8.38</course>
  <speed>0.01414213562373095</speed>
  <fix>3d</fix>
</trkpt>
<trkpt lat="40.072842" lon="-105.230575">
  <ele>1644.3</ele>
  <time>2026-08-27T18:26:36Z</time>
  <course>8.39</course>
  <speed>0.01414213562373095</speed>
  <fix>3d</fix>
</trkpt>
<trkpt lat="40.072842" lon="-105.2305751">
  <ele>1643.71</ele>
  <time>2026-08-27T18:26:36Z</time>
  <course>233.83</course>
  <speed>0.0</speed>
  <fix>3d</fix>
</trkpt>
<trkpt lat="40.072842" lon="-105.230575">
  <ele>1644.31</ele>
  <time>2026-08-27T18:26:36Z</time>
  <course>8.39</course>
  <speed>0.01414213562373095</speed>
  <fix>3d</fix>
</trkpt>
<trkpt lat="40.072842" lon="-105.230575">
  <ele>1644.8</ele>
  <time>2026-08-27T18:26:36Z</time>
  <course>8.4</course>
  <speed>0.01414213562373095</speed>
  <fix>3d</fix>
</trkpt>
<trkpt lat="40.072842" lon="-105.2305751">
  <ele>1644.21</ele>
  <time>2026-08-27T18:26:36Z</time>
  <course>250.54</course>
  <speed>0.0</speed>
  <fix>3d</fix>
</trkpt>
<trkpt lat="40.072842" lon="-105.230575">
  <ele>1644.87</ele>
  <time>2026-08-27T18:26:36Z</time>
  <course>8.4</course>
  <speed>0.01414213562373095</speed>
  <fix>3d</fix>
</trkpt>
<trkpt lat="40.072842" lon="-105.230575">
  <ele>1645.3</ele>
  <time>2026-08-27T18:26:36Z</time>
  <course>8.41</course>
  <speed>0.01414213562373095</speed>
  <fix>3d</fix>
</trkpt>
<trkpt lat="40.072842" lon="-105.2305751">
  <ele>1644.71</ele>
  <time>2026-08-27T18:26:36Z</time>
  <course>269.23</course>
  <speed>0.0</speed>
  <fix>3d</fix>
</trkpt>
<trkpt lat="40.072842" lon="-105.230575">
  <ele>1645.31</ele>
  <time>2026-08-27T18:26:36Z</time>
  <course>8.41</course>
  <speed>0.01414213562373095</speed>
  <fix>3d</fix>
</trkpt>
<trkpt lat="40.072842" lon="-105.230575">
  <ele>1645.8</ele>
  <time>2026-08-27T18:26:36Z</time>
  <course>8.43</course>
  <speed>0.01</speed>
  <fix>3d</fix>
</trkpt>
<trkpt lat="40.072842" lon="-105.2305751">
  <ele>1645.21</ele>
  <time>2026-08-27T18:26:36Z</time>
  <course>285.25</course>
  <speed>0.0</speed>
  <fix>3d</fix>
</trkpt>
<trkpt lat="40.072842" lon="-105.230575">
  <ele>1645.87</ele>
  <time>2026-08-27T18:26:36Z</time>
  <course>8.44</course>
  <speed>0.01</speed>
  <fix>3d</fix>
</trkpt>
<trkpt lat="40.072842" lon="-105.230575">
  <ele>1646.3</ele>
  <time>2026-08-27T18:26:36Z</time>
  <course>8.44</course>
  <speed>0.01</speed>
  <fix>3d</fix>
</trkpt>
<trkpt lat="40.072842" lon="-105.2305752">
  <ele>1645.71</ele>
  <time>2026-08-27T18:26:36Z</time>
  <course>294.91</course>
  <speed>0.01</speed>
  <fix>3d</fix>
</trkpt>
<trkpt lat="40.072842" lon="-105.230575">
  <ele>1646.3</ele>
  <time>2026-08-27T18:26:36Z</time>
  <course>8.44</course>
  <speed>0.01</speed>
  <fix>3d</fix>
</trkpt>
<trkpt lat="40.072842" lon="-105.230575">
  <ele>1646.79</ele>
  <time>2026-08-27T18:26:36Z</time>
  <course>8.46</course>
  <speed>0.01</speed>
  <fix>3d</fix>
</trkpt>
<trkpt lat="40.072842" lon="-105.2305753">
  <ele>1646.21</ele>
  <time>2026-08-27T18:26:36Z</time>
  <course>302.74</course>
  <speed>0.01</speed>
  <fix>3d</fix>
</trkpt>
<trkpt lat="40.072842" lon="-105.230575">
  <ele>1646.86</ele>
  <time>2026-08-27T18:26:36Z</time>
  <course>8.47</course>
  <speed>0.01</speed>
  <fix>3d</fix>
</trkpt>
<trkpt lat="40.072842" lon="-105.2305751">
  <ele>1647.29</ele>
  <time>2026-08-27T18:26:36Z</time>
  <course>8.49</course>
  <speed>0.01</speed>
  <fix>3d</fix>
</trkpt>
<trkpt lat="40.072842" lon="-105.2305753">
  <ele>1646.71</ele>
  <time>2026-08-27T18:26:36Z</time>
  <course>307.96</course>
  <speed>0.01</speed>
  <fix>3d</fix>
</trkpt>
<trkpt lat="40.072842" lon="-105.2305751">
  <ele>1647.36</ele>
  <time>2026-08-27T18:26:36Z</time>
  <course>8.49</course>
  <speed>0.01</speed>
  <fix>3d</fix>
</trkpt>
<trkpt lat="40.072842" lon="-105.2305751">
  <ele>1647.79</ele>
  <time>2026-08-27T18:26:36Z</time>
  <course>8.5</course>
  <speed>0.01</speed>
  <fix>3d</fix>
</trkpt>
<trkpt lat="40.072842" lon="-105.2305753">
  <ele>1647.22</ele>
  <time>2026-08-27T18:26:36Z</time>
  <course>312.15</course>
  <speed>0.01</speed>
  <fix>3d</fix>
</trkpt>
<trkpt lat="40.072842" lon="-105.2305751">
  <ele>1647.86</ele>
  <time>2026-08-27T18:26:36Z</time>
  <course>8.5</course>
  <speed>0.01</speed>
  <fix>3d</fix>
</trkpt>
<trkpt lat="40.072842" lon="-105.2305751">
  <ele>1648.29</ele>
  <time>2026-08-27T18:26:36Z</time>
  <course>8.51</course>
  <speed>0.01</speed>
  <fix>3d</fix>
</trkpt>
<trkpt lat="40.072842" lon="-105.2305753">
  <ele>1647.72</ele>
  <time>2026-08-27T18:26:36Z</time>
  <course>316.71</course>
  <speed>0.01</speed>
  <fix>3d</fix>
</trkpt>
<trkpt lat="40.072842" lon="-105.2305751">
  <ele>1648.29</ele>
  <time>2026-08-27T18:26:36Z</time>
  <course>8.51</course>
  <speed>0.01</speed>
  <fix>3d</fix>
</trkpt>
<trkpt lat="40.072842" lon="-105.2305751">
  <ele>1648.79</ele>
  <time>2026-08-27T18:26:36Z</time>
  <course>8.51</course>
  <speed>0.01</speed>
  <fix>3d</fix>
</trkpt>
<trkpt lat="40.072842" lon="-105.2305753">
  <ele>1648.22</ele>
  <time>2026-08-27T18:26:36Z</time>
  <course>322.4</course>
  <speed>0.01</speed>
  <fix>3d</fix>
</trkpt>
<trkpt lat="40.072842" lon="-105.2305751">
  <ele>1648.86</ele>
  <time>2026-08-27T18:26:36Z</time>
  <course>8.51</course>
  <speed>0.01</speed>
  <fix>3d</fix>
</trkpt>
<trkpt lat="40.072842" lon="-105.2305751">
  <ele>1649.29</ele>
  <time>2026-08-27T18:26:36Z</time>
  <course>8.55</course>
  <speed>0.01</speed>
  <fix>3d</fix>
</trkpt>
<trkpt lat="40.072842" lon="-105.2305753">
  <ele>1648.73</ele>
  <time>2026-08-27T18:26:36Z</time>
  <course>327.98</course>
  <speed>0.01</speed>
  <fix>3d</fix>
</trkpt>
<trkpt lat="40.072842" lon="-105.2305751">
  <ele>1649.38</ele>
  <time>2026-08-27T18:26:36Z</time>
  <course>8.56</course>
  <speed>0.01</speed>
  <fix>3d</fix>
</trkpt>
<trkpt lat="40.072842" lon="-105.2305751">
  <ele>1649.8</ele>
  <time>2026-08-27T18:26:36Z</time>
  <course>8.59</course>
  <speed>0.01</speed>
  <fix>3d</fix>
</trkpt>
<trkpt lat="40.072842" lon="-105.2305753">
  <ele>1649.23</ele>
  <time>2026-08-27T18:26:36Z</time>
  <course>333.7</course>
  <speed>0.01</speed>
  <fix>3d</fix>
</trkpt>
<trkpt lat="40.072842" lon="-105.2305751">
  <ele>1649.87</ele>
  <time>2026-08-27T18:26:36Z</time>
  <course>8.59</course>
  <speed>0.01</speed>
  <fix>3d</fix>
</trkpt>
<trkpt lat="40.072842" lon="-105.2305751">
  <ele>1650.31</ele>
  <time>2026-08-27T18:26:36Z</time>
  <course>8.63</course>
  <speed>0.01</speed>
  <fix>3d</fix>
</trkpt>
<trkpt lat="40.072842" lon="-105.2305753">
  <ele>1649.73</ele>
  <time>2026-08-27T18:26:36Z</time>
  <course>338.65</course>
  <speed>0.01</speed>
  <fix>3d</fix>
</trkpt>
<trkpt lat="40.072842" lon="-105.2305751">
  <ele>1650.38</ele>
  <time>2026-08-27T18:26:36Z</time>
  <course>8.63</course>
  <speed>0.01</speed>
  <fix>3d</fix>
</trkpt>
<trkpt lat="40.072842" lon="-105.2305751">
  <ele>1650.81</ele>
  <time>2026-08-27T18:26:36Z</time>
  <course>8.66</course>
  <speed>0.01</speed>
  <fix>3d</fix>
</trkpt>
<trkpt lat="40.072842" lon="-105.2305753">
  <ele>1650.24</ele>
  <time>2026-08-27T18:26:36Z</time>
  <course>342.23</course>
  <speed>0.01</speed>
  <fix>3d</fix>
</trkpt>
<trkpt lat="40.072842" lon="-105.2305751">
  <ele>1650.82</ele>
  <time>2026-08-27T18:26:36Z</time>
  <course>8.66</course>
  <speed>0.01</speed>
  <fix>3d</fix>
</trkpt>
<trkpt lat="40.072842" lon="-105.2305751">
  <ele>1651.32</ele>
  <time>2026-08-27T18:26:36Z</time>
  <course>8.67</course>
  <speed>0.01</speed>
  <fix>3d</fix>
</trkpt>
<trkpt lat="40.0728421" lon="-105.2305753">
  <ele>1650.74</ele>
  <time>2026-08-27T18:26:36Z</time>
  <course>347.7</course>
  <speed>0.01</speed>
  <fix>3d</fix>
</trkpt>
<trkpt lat="40.072842" lon="-105.2305751">
  <ele>1651.4</ele>
  <time>2026-08-27T18:26:36Z</time>
  <course>8.68</course>
  <speed>0.01</speed>
  <fix>3d</fix>
</trkpt>
<trkpt lat="40.072842" lon="-105.2305751">
  <ele>1651.82</ele>
  <time>2026-08-27T18:26:36Z</time>
  <course>8.7</course>
  <speed>0.01</speed>
  <fix>3d</fix>
</trkpt>
<trkpt lat="40.0728421" lon="-105.2305753">
  <ele>1651.24</ele>
  <time>2026-08-27T18:26:36Z</time>
  <course>352.93</course>
  <speed>0.0</speed>
  <fix>3d</fix>
</trkpt>
<trkpt lat="40.072842" lon="-105.2305751">
  <ele>1651.9</ele>
  <time>2026-08-27T18:26:36Z</time>
  <course>8.71</course>
  <speed>0.01</speed>
  <fix>3d</fix>
</trkpt>
<trkpt lat="40.072842" lon="-105.2305751">
  <ele>1652.32</ele>
  <time>2026-08-27T18:26:36Z</time>
  <course>8.72</course>
  <speed>0.02</speed>
  <fix>3d</fix>
</trkpt>
<trkpt lat="40.0728421" lon="-105.2305753">
  <ele>1651.74</ele>
  <time>2026-08-27T18:26:36Z</time>
  <course>359.89</course>
  <speed>0.0</speed>
  <fix>3d</fix>
</trkpt>
<trkpt lat="40.072842" lon="-105.2305751">
  <ele>1652.39</ele>
  <time>2026-08-27T18:26:36Z</time>
  <course>8.71</course>
  <speed>0.02</speed>
  <fix>3d</fix>
</trkpt>
<trkpt lat="40.072842" lon="-105.2305751">
  <ele>1652.81</ele>
  <time>2026-08-27T18:26:36Z</time>
  <course>8.74</course>
  <speed>0.02</speed>
  <fix>3d</fix>
</trkpt>
<trkpt lat="40.0728421" lon="-105.2305753">
  <ele>1652.24</ele>
  <time>2026-08-27T18:26:36Z</time>
  <course>5.06</course>
  <speed>0.01</speed>
  <fix>3d</fix>
</trkpt>
<trkpt lat="40.072842" lon="-105.2305751">
  <ele>1652.82</ele>
  <time>2026-08-27T18:26:36Z</time>
  <course>8.74</course>
  <speed>0.02</speed>
  <fix>3d</fix>
</trkpt>
<trkpt lat="40.072842" lon="-105.2305751">
  <ele>1653.31</ele>
  <time>2026-08-27T18:26:36Z</time>
  <course>8.75</course>
  <speed>0.02</speed>
  <fix>3d</fix>
</trkpt>
<trkpt lat="40.0728421" lon="-105.2305753">
  <ele>1652.74</ele>
  <time>2026-08-27T18:26:36Z</time>
  <course>6.86</course>
  <speed>0.0</speed>
  <fix>3d</fix>
</trkpt>
<trkpt lat="40.072842" lon="-105.2305751">
  <ele>1653.39</ele>
  <time>2026-08-27T18:26:36Z</time>
  <course>8.75</course>
  <speed>0.02</speed>
  <fix>3d</fix>
</trkpt>
<trkpt lat="40.072842" lon="-105.2305751">
  <ele>1653.81</ele>
  <time>2026-08-27T18:26:36Z</time>
  <course>8.75</course>
  <speed>0.022360679774997897</speed>
  <fix>3d</fix>
</trkpt>
<trkpt lat="40.0728422" lon="-105.2305753">
  <ele>1653.23</ele>
  <time>2026-08-27T18:26:36Z</time>
  <course>12.08</course>
  <speed>0.0</speed>
  <fix>3d</fix>
</trkpt>
<trkpt lat="40.072842" lon="-105.2305751">
  <ele>1653.81</ele>
  <time>2026-08-27T18:26:36Z</time>
  <course>8.75</course>
  <speed>0.022360679774997897</speed>
  <fix>3d</fix>
</trkpt>
<trkpt lat="40.072842" lon="-105.2305751">
  <ele>1654.31</ele>
  <time>2026-08-27T18:26:36Z</time>
  <course>8.76</course>
  <speed>0.022360679774997897</speed>
  <fix>3d</fix>
</trkpt>
<trkpt lat="40.0728423" lon="-105.2305753">
  <ele>1653.73</ele>
  <time>2026-08-27T18:26:36Z</time>
  <course>19.72</course>
  <speed>0.0</speed>
  <fix>3d</fix>
</trkpt>
<trkpt lat="40.072842" lon="-105.2305751">
  <ele>1654.38</ele>
  <time>2026-08-27T18:26:36Z</time>
  <course>8.77</course>
  <speed>0.022360679774997897</speed>
  <fix>3d</fix>
</trkpt>
<trkpt lat="40.0728421" lon="-105.2305751">
  <ele>1654.81</ele>
  <time>2026-08-27T18:26:36Z</time>
  <course>8.77</course>
  <speed>0.022360679774997897</speed>
  <fix>3d</fix>
</trkpt>
<trkpt lat="40.0728423" lon="-105.2305753">
  <ele>1654.23</ele>
  <time>2026-08-27T18:26:36Z</time>
  <course>27.12</course>
  <speed>0.0</speed>
  <fix>3d</fix>
</trkpt>
<trkpt lat="40.0728421" lon="-105.2305751">
  <ele>1654.87</ele>
  <time>2026-08-27T18:26:36Z</time>
  <course>8.77</course>
  <speed>0.022360679774997897</speed>
  <fix>3d</fix>
</trkpt>
<trkpt lat="40.0728421" lon="-105.2305751">
  <ele>1655.3</ele>
  <time>2026-08-27T18:26:36Z</time>
  <course>8.78</course>
  <speed>0.022360679774997897</speed>
  <fix>3d</fix>
</trkpt>
<trkpt lat="40.0728423" lon="-105.2305753">
  <ele>1654.73</ele>
  <time>2026-08-27T18:26:36Z</time>
  <course>33.13</course>
  <speed>0.0</speed>
  <fix>3d</fix>
</trkpt>
<trkpt lat="40.0728421" lon="-105.2305751">
  <ele>1655.31</ele>
  <time>2026-08-27T18:26:36Z</time>
  <course>8.78</course>
  <speed>0.022360679774997897</speed>
  <fix>3d</fix>
</trkpt>
<trkpt lat="40.0728421" lon="-105.2305751">
  <ele>1655.8</ele>
  <time>2026-08-27T18:26:36Z</time>
  <course>8.8</course>
  <speed>0.022360679774997897</speed>
  <fix>3d</fix>
</trkpt>
<trkpt lat="40.0728423" lon="-105.2305753">
  <ele>1655.23</ele>
  <time>2026-08-27T18:26:36Z</time>
  <course>39.82</course>
  <speed>0.0</speed>
  <fix>3d</fix>
</trkpt>
<trkpt lat="40.0728421" lon="-105.2305751">
  <ele>1655.87</ele>
  <time>2026-08-27T18:26:36Z</time>
  <course>8.8</course>
  <speed>0.022360679774997897</speed>
  <fix>3d</fix>
</trkpt>
<trkpt lat="40.0728421" lon="-105.2305751">
  <ele>1656.29</ele>
  <time>2026-08-27T18:26:36Z</time>
  <course>8.81</course>
  <speed>0.022360679774997897</speed>
  <fix>3d</fix>
</trkpt>
<trkpt lat="40.0728423" lon="-105.2305753">
  <ele>1655.73</ele>
  <time>2026-08-27T18:26:36Z</time>
  <course>53.92</course>
  <speed>0.0</speed>
  <fix>3d</fix>
</trkpt>
<trkpt lat="40.0728421" lon="-105.2305751">
  <ele>1656.3</ele>
  <time>2026-08-27T18:26:36Z</time>
  <course>8.81</course>
  <speed>0.022360679774997897</speed>
  <fix>3d</fix>
</trkpt>
<trkpt lat="40.0728421" lon="-105.2305751">
  <ele>1656.79</ele>
  <time>2026-08-27T18:26:36Z</time>
  <course>8.81</course>
  <speed>0.022360679774997897</speed>
  <fix>3d</fix>
</trkpt>
<trkpt lat="40.0728423" lon="-105.2305753">
  <ele>1656.23</ele>
  <time>2026-08-27T18:26:36Z</time>
  <course>86.94</course>
  <speed>0.0</speed>
  <fix>3d</fix>
</trkpt>
<trkpt lat="40.0728421" lon="-105.2305751">
  <ele>1656.86</ele>
  <time>2026-08-27T18:26:36Z</time>
  <course>8.81</course>
  <speed>0.022360679774997897</speed>
  <fix>3d</fix>
</trkpt>
<trkpt lat="40.0728421" lon="-105.2305751">
  <ele>1657.3</ele>
  <time>2026-08-27T18:26:36Z</time>
  <course>8.83</course>
  <speed>0.022360679774997897</speed>
  <fix>3d</fix>
</trkpt>
<trkpt lat="40.0728423" lon="-105.2305753">
  <ele>1656.73</ele>
  <time>2026-08-27T18:26:36Z</time>
  <course>127.23</course>
  <speed>0.0</speed>
  <fix>3d</fix>
</trkpt>
<trkpt lat="40.0728421" lon="-105.2305751">
  <ele>1657.36</ele>
  <time>2026-08-27T18:26:36Z</time>
  <course>8.83</course>
  <speed>0.022360679774997897</speed>
  <fix>3d</fix>
</trkpt>
<trkpt lat="40.0728421" lon="-105.2305751">
  <ele>1657.8</ele>
  <time>2026-08-27T18:26:36Z</time>
  <course>8.86</course>
  <speed>0.022360679774997897</speed>
  <fix>3d</fix>
</trkpt>
<trkpt lat="40.0728423" lon="-105.2305753">
  <ele>1657.23</ele>
  <time>2026-08-27T18:26:36Z</time>
  <course>146.12</course>
  <speed>0.0</speed>
  <fix>3d</fix>
</trkpt>
<trkpt lat="40.0728421" lon="-105.2305751">
  <ele>1657.8</ele>
  <time>2026-08-27T18:26:36Z</time>
  <course>8.86</course>
  <speed>0.022360679774997897</speed>
  <fix>3d</fix>
</trkpt>
<trkpt lat="40.0728421" lon="-105.2305751">
  <ele>1658.3</ele>
  <time>2026-08-27T18:26:36Z</time>
  <course>8.86</course>
  <speed>0.022360679774997897</speed>
  <fix>3d</fix>
</trkpt>
<trkpt lat="40.0728423" lon="-105.2305753">
  <ele>1657.74</ele>
  <time>2026-08-27T18:26:36Z</time>
  <course>154.32</course>
  <speed>0.0</speed>
  <fix>3d</fix>
</trkpt>
<trkpt lat="40.0728421" lon="-105.2305751">
  <ele>1658.38</ele>
  <time>2026-08-27T18:26:36Z</time>
  <course>8.87</course>
  <speed>0.022360679774997897</speed>
  <fix>3d</fix>
</trkpt>
<trkpt lat="40.0728421" lon="-105.2305751">
  <ele>1658.8</ele>
  <time>2026-08-27T18:26:36Z</time>
  <course>8.87</course>
  <speed>0.022360679774997897</speed>
  <fix>3d</fix>
</trkpt>
<trkpt lat="40.0728423" lon="-105.2305753">
  <ele>1658.24</ele>
  <time>2026-08-27T18:26:36Z</time>
  <course>158.53</course>
  <speed>0.01</speed>
  <fix>3d</fix>
</trkpt>
<trkpt lat="40.0728421" lon="-105.2305751">
  <ele>1658.88</ele>
  <time>2026-08-27T18:26:36Z</time>
  <course>8.87</course>
  <speed>0.022360679774997897</speed>
  <fix>3d</fix>
</trkpt>
<trkpt lat="40.0728421" lon="-105.2305751">
  <ele>1659.3</ele>
  <time>2026-08-27T18:26:36Z</time>
  <course>8.89</course>
  <speed>0.022360679774997897</speed>
  <fix>3d</fix>
</trkpt>
<trkpt lat="40.0728423" lon="-105.2305753">
  <ele>1658.74</ele>
  <time>2026-08-27T18:26:36Z</time>
  <course>162.04</course>
  <speed>0.01</speed>
  <fix>3d</fix>
</trkpt>
<trkpt lat="40.0728421" lon="-105.2305751">
  <ele>1659.37</ele>
  <time>2026-08-27T18:26:36Z</time>
  <course>8.89</course>
  <speed>0.022360679774997897</speed>
  <fix>3d</fix>
</trkpt>
<trkpt lat="40.0728421" lon="-105.2305751">
  <ele>1659.8</ele>
  <time>2026-08-27T18:26:36Z</time>
  <course>8.92</course>
  <speed>0.022360679774997897</speed>
  <fix>3d</fix>
</trkpt>
<trkpt lat="40.0728423" lon="-105.2305753">
  <ele>1659.24</ele>
  <time>2026-08-27T18:26:36Z</time>
  <course>165.28</course>
  <speed>0.01</speed>
  <fix>3d</fix>
</trkpt>
<trkpt lat="40.0728421" lon="-105.2305751">
  <ele>1659.87</ele>
  <time>2026-08-27T18:26:36Z</time>
  <course>8.92</course>
  <speed>0.022360679774997897</speed>
  <fix>3d</fix>
</trkpt>
<trkpt lat="40.0728421" lon="-105.2305751">
  <ele>1660.3</ele>
  <time>2026-08-27T18:26:36Z</time>
  <course>8.94</course>
  <speed>0.022360679774997897</speed>
  <fix>3d</fix>
</trkpt>
<trkpt lat="40.0728423" lon="-105.2305753">
  <ele>1659.74</ele>
  <time>2026-08-27T18:26:36Z</time>
  <course>166.33</course>
  <speed>0.01</speed>
  <fix>3d</fix>
</trkpt>
<trkpt lat="40.0728421" lon="-105.2305751">
  <ele>1660.31</ele>
  <time>2026-08-27T18:26:36Z</time>
  <course>8.94</course>
  <speed>0.022360679774997897</speed>
  <fix>3d</fix>
</trkpt>
<trkpt lat="40.0728421" lon="-105.2305751">
  <ele>1660.8</ele>
  <time>2026-08-27T18:26:36Z</time>
  <course>8.91</course>
  <speed>0.022360679774997897</speed>
  <fix>3d</fix>
</trkpt>
<trkpt lat="40.0728423" lon="-105.2305753">
  <ele>1660.24</ele>
  <time>2026-08-27T18:26:36Z</time>
  <course>165.77</course>
  <speed>0.01</speed>
  <fix>3d</fix>
</trkpt>
<trkpt lat="40.0728421" lon="-105.2305751">
  <ele>1660.87</ele>
  <time>2026-08-27T18:26:36Z</time>
  <course>8.91</course>
  <speed>0.022360679774997897</speed>
  <fix>3d</fix>
</trkpt>
<trkpt lat="40.0728421" lon="-105.2305751">
  <ele>1661.31</ele>
  <time>2026-08-27T18:26:36Z</time>
  <course>8.93</course>
  <speed>0.022360679774997897</speed>
  <fix>3d</fix>
</trkpt>
<trkpt lat="40.0728422" lon="-105.2305753">
  <ele>1660.75</ele>
  <time>2026-08-27T18:26:36Z</time>
  <course>166.44</course>
  <speed>0.01</speed>
  <fix>3d</fix>
</trkpt>
<trkpt lat="40.0728421" lon="-105.2305751">
  <ele>1661.38</ele>
  <time>2026-08-27T18:26:36Z</time>
  <course>8.94</course>
  <speed>0.022360679774997897</speed>
  <fix>3d</fix>
</trkpt>
<trkpt lat="40.0728421" lon="-105.2305751">
  <ele>1661.81</ele>
  <time>2026-08-27T18:26:36Z</time>
  <course>8.96</course>
  <speed>0.022360679774997897</speed>
  <fix>3d</fix>
</trkpt>
<trkpt lat="40.0728421" lon="-105.2305753">
  <ele>1661.25</ele>
  <time>2026-08-27T18:26:36Z</time>
  <course>167.28</course>
  <speed>0.01</speed>
  <fix>3d</fix>
</trkpt>
<trkpt lat="40.0728421" lon="-105.2305751">
  <ele>1661.82</ele>
  <time>2026-08-27T18:26:36Z</time>
  <course>8.96</course>
  <speed>0.022360679774997897</speed>
  <fix>3d</fix>
</trkpt>
<trkpt lat="40.0728421" lon="-105.2305751">
  <ele>1662.32</ele>
  <time>2026-08-27T18:26:36Z</time>
  <course>8.97</course>
  <speed>0.022360679774997897</speed>
  <fix>3d</fix>
</trkpt>
<trkpt lat="40.0728421" lon="-105.2305753">
  <ele>1661.75</ele>
  <time>2026-08-27T18:26:36Z</time>
  <course>167.32</course>
  <speed>0.01</speed>
  <fix>3d</fix>
</trkpt>
<trkpt lat="40.0728421" lon="-105.2305751">
  <ele>1662.38</ele>
  <time>2026-08-27T18:26:36Z</time>
  <course>8.97</course>
  <speed>0.022360679774997897</speed>
  <fix>3d</fix>
</trkpt>
<trkpt lat="40.0728421" lon="-105.2305751">
  <ele>1662.82</ele>
  <time>2026-08-27T18:26:36Z</time>
  <course>9.0</course>
  <speed>0.022360679774997897</speed>
  <fix>3d</fix>
</trkpt>
<trkpt lat="40.0728421" lon="-105.2305753">
  <ele>1662.25</ele>
  <time>2026-08-27T18:26:36Z</time>
  <course>168.16</course>
  <speed>0.01</speed>
  <fix>3d</fix>
</trkpt>
<trkpt lat="40.0728421" lon="-105.2305751">
  <ele>1662.82</ele>
  <time>2026-08-27T18:26:36Z</time>
  <course>9.0</course>
  <speed>0.022360679774997897</speed>
  <fix>3d</fix>
</trkpt>
<trkpt lat="40.072842" lon="-105.2305751">
  <ele>1663.32</ele>
  <time>2026-08-27T18:26:36Z</time>
  <course>9.02</course>
  <speed>0.022360679774997897</speed>
  <fix>3d</fix>
</trkpt>
<trkpt lat="40.0728421" lon="-105.2305753">
  <ele>1662.75</ele>
  <time>2026-08-27T18:26:36Z</time>
  <course>168.84</course>
  <speed>0.01</speed>
  <fix>3d</fix>
</trkpt>
<trkpt lat="40.072842" lon="-105.2305751">
  <ele>1663.39</ele>
  <time>2026-08-27T18:26:36Z</time>
  <course>9.01</course>
  <speed>0.022360679774997897</speed>
  <fix>3d</fix>
</trkpt>
<trkpt lat="40.072842" lon="-105.2305751">
  <ele>1663.82</ele>
  <time>2026-08-27T18:26:36Z</time>
  <course>9.03</course>
  <speed>0.022360679774997897</speed>
  <fix>3d</fix>
</trkpt>
<trkpt lat="40.0728421" lon="-105.2305753">
  <ele>1663.25</ele>
  <time>2026-08-27T18:26:36Z</time>
  <course>168.02</course>
  <speed>0.01</speed>
  <fix>3d</fix>
</trkpt>
<trkpt lat="40.072842" lon="-105.2305751">
  <ele>1663.88</ele>
  <time>2026-08-27T18:26:36Z</time>
  <course>9.03</course>
  <speed>0.022360679774997897</speed>
  <fix>3d</fix>
</trkpt>
<trkpt lat="40.072842" lon="-105.2305751">
  <ele>1664.31</ele>
  <time>2026-08-27T18:26:36Z</time>
  <course>9.04</course>
  <speed>0.01414213562373095</speed>
  <fix>3d</fix>
</trkpt>
<trkpt lat="40.072842" lon="-105.2305753">
  <ele>1663.74</ele>
  <time>2026-08-27T18:26:36Z</time>
  <course>164.22</course>
  <speed>0.0</speed>
  <fix>3d</fix>
</trkpt>
<trkpt lat="40.072842" lon="-105.2305751">
  <ele>1664.44</ele>
  <time>2026-08-27T18:26:36Z</time>
  <course>9.03</course>
  <speed>0.01414213562373095</speed>
  <fix>3d</fix>
</trkpt>
<trkpt lat="40.072842" lon="-105.2305751">
  <ele>1664.81</ele>
  <time>2026-08-27T18:26:36Z</time>
  <course>9.03</course>
  <speed>0.01414213562373095</speed>
  <fix>3d</fix>
</trkpt>
<trkpt lat="40.072842" lon="-105.2305753">
  <ele>1664.24</ele>
  <time>2026-08-27T18:26:36Z</time>
  <course>156.62</course>
  <speed>0.0</speed>
  <fix>3d</fix>
</trkpt>
<trkpt lat="40.072842" lon="-105.2305751">
  <ele>1664.91</ele>
  <time>2026-08-27T18:26:36Z</time>
  <course>9.04</course>
  <speed>0.01414213562373095</speed>
  <fix>3d</fix>
</trkpt>
<trkpt lat="40.072842" lon="-105.2305751">
  <ele>1665.31</ele>
  <time>2026-08-27T18:26:36Z</time>
  <course>9.04</course>
  <speed>0.01414213562373095</speed>
  <fix>3d</fix>
</trkpt>
<trkpt lat="40.072842" lon="-105.2305753">
  <ele>1664.74</ele>
  <time>2026-08-27T18:26:36Z</time>
  <course>145.88</course>
  <speed>0.0</speed>
  <fix>3d</fix>
</trkpt>
<trkpt lat="40.072842" lon="-105.2305751">
  <ele>1665.38</ele>
  <time>2026-08-27T18:26:36Z</time>
  <course>9.05</course>
  <speed>0.01414213562373095</speed>
  <fix>3d</fix>
</trkpt>
<trkpt lat="40.072842" lon="-105.2305751">
  <ele>1665.81</ele>
  <time>2026-08-27T18:26:36Z</time>
  <course>9.05</course>
  <speed>0.01414213562373095</speed>
  <fix>3d</fix>
</trkpt>
<trkpt lat="40.072842" lon="-105.2305753">
  <ele>1665.24</ele>
  <time>2026-08-27T18:26:36Z</time>
  <course>116.97</course>
  <speed>0.0</speed>
  <fix>3d</fix>
</trkpt>
<trkpt lat="40.072842" lon="-105.2305751">
  <ele>1665.94</ele>
  <time>2026-08-27T18:26:36Z</time>
  <course>9.06</course>
  <speed>0.01414213562373095</speed>
  <fix>3d</fix>
</trkpt>
<trkpt lat="40.072842" lon="-105.2305751">
  <ele>1666.31</ele>
  <time>2026-08-27T18:26:36Z</time>
  <course>9.05</course>
  <speed>0.01414213562373095</speed>
  <fix>3d</fix>
</trkpt>
<trkpt lat="40.072842" lon="-105.2305753">
  <ele>1665.74</ele>
  <time>2026-08-27T18:26:36Z</time>
  <course>45.08</course>
  <speed>0.0</speed>
  <fix>3d</fix>
</trkpt>
<trkpt lat="40.072842" lon="-105.2305751">
  <ele>1666.43</ele>
  <time>2026-08-27T18:26:36Z</time>
  <course>9.06</course>
  <speed>0.01414213562373095</speed>
  <fix>3d</fix>
</trkpt>
<trkpt lat="40.072842" lon="-105.2305751">
  <ele>1666.81</ele>
  <time>2026-08-27T18:26:36Z</time>
  <course>9.06</course>
  <speed>0.01414213562373095</speed>
  <fix>3d</fix>
</trkpt>
<trkpt lat="40.072842" lon="-105.2305753">
  <ele>1666.24</ele>
  <time>2026-08-27T18:26:36Z</time>
  <course>24.02</course>
  <speed>0.0</speed>
  <fix>3d</fix>
</trkpt>
<trkpt lat="40.072842" lon="-105.2305751">
  <ele>1666.89</ele>
  <time>2026-08-27T18:26:36Z</time>
  <course>9.06</course>
  <speed>0.01</speed>
  <fix>3d</fix>
</trkpt>
<trkpt lat="40.072842" lon="-105.2305751">
  <ele>1667.31</ele>
  <time>2026-08-27T18:26:36Z</time>
  <course>9.07</course>
  <speed>0.01</speed>
  <fix>3d</fix>
</trkpt>
<trkpt lat="40.072842" lon="-105.2305753">
  <ele>1666.73</ele>
  <time>2026-08-27T18:26:36Z</time>
  <course>17.76</course>
  <speed>0.0</speed>
  <fix>3d</fix>
</trkpt>
<trkpt lat="40.072842" lon="-105.2305751">
  <ele>1667.43</ele>
  <time>2026-08-27T18:26:36Z</time>
  <course>9.07</course>
  <speed>0.01</speed>
  <fix>3d</fix>
</trkpt>
<trkpt lat="40.072842" lon="-105.2305751">
  <ele>1667.8</ele>
  <time>2026-08-27T18:26:36Z</time>
  <course>9.07</course>
  <speed>0.01</speed>
  <fix>3d</fix>
</trkpt>
<trkpt lat="40.072842" lon="-105.2305753">
  <ele>1667.23</ele>
  <time>2026-08-27T18:26:36Z</time>
  <course>14.1</course>
  <speed>0.0</speed>
  <fix>3d</fix>
</trkpt>
<trkpt lat="40.072842" lon="-105.2305751">
  <ele>1667.83</ele>
  <time>2026-08-27T18:26:36Z</time>
  <course>9.07</course>
  <speed>0.01</speed>
  <fix>3d</fix>
</trkpt>
<trkpt lat="40.072842" lon="-105.2305751">
  <ele>1668.3</ele>
  <time>2026-08-27T18:26:36Z</time>
  <course>9.08</course>
  <speed>0.01</speed>
  <fix>3d</fix>
</trkpt>
<trkpt lat="40.072842" lon="-105.2305753">
  <ele>1667.73</ele>
  <time>2026-08-27T18:26:36Z</time>
  <course>11.24</course>
  <speed>0.0</speed>
  <fix>3d</fix>
</trkpt>
<trkpt lat="40.072842" lon="-105.2305751">
  <ele>1668.37</ele>
  <time>2026-08-27T18:26:36Z</time>
  <course>9.08</course>
  <speed>0.01</speed>
  <fix>3d</fix>
</trkpt>
<trkpt lat="40.072842" lon="-105.2305751">
  <ele>1668.79</ele>
  <time>2026-08-27T18:26:36Z</time>
  <course>9.07</course>
  <speed>0.01</speed>
  <fix>3d</fix>
</trkpt>
<trkpt lat="40.072842" lon="-105.2305753">
  <ele>1668.23</ele>
  <time>2026-08-27T18:26:36Z</time>
  <course>9.37</course>
  <speed>0.0</speed>
  <fix>3d</fix>
</trkpt>
<trkpt lat="40.072842" lon="-105.2305751">
  <ele>1668.87</ele>
  <time>2026-08-27T18:26:36Z</time>
  <course>9.07</course>
  <speed>0.01</speed>
  <fix>3d</fix>
</trkpt>
<trkpt lat="40.072842" lon="-105.2305751">
  <ele>1669.29</ele>
  <time>2026-08-27T18:26:36Z</time>
  <course>9.06</course>
  <speed>0.01</speed>
  <fix>3d</fix>
</trkpt>
<trkpt lat="40.072842" lon="-105.2305753">
  <ele>1668.73</ele>
  <time>2026-08-27T18:26:36Z</time>
  <course>6.24</course>
  <speed>0.01</speed>
  <fix>3d</fix>
</trkpt>
<trkpt lat="40.072842" lon="-105.2305751">
  <ele>1669.37</ele>
  <time>2026-08-27T18:26:36Z</time>
  <course>9.07</course>
  <speed>0.01</speed>
  <fix>3d</fix>
</trkpt>
<trkpt lat="40.072842" lon="-105.2305751">
  <ele>1669.79</ele>
  <time>2026-08-27T18:26:36Z</time>
  <course>9.06</course>
  <speed>0.01</speed>
  <fix>3d</fix>
</trkpt>
<trkpt lat="40.072842" lon="-105.2305753">
  <ele>1669.23</ele>
  <time>2026-08-27T18:26:36Z</time>
  <course>2.72</course>
  <speed>0.01</speed>
  <fix>3d</fix>
</trkpt>
<trkpt lat="40.072842" lon="-105.2305751">
  <ele>1669.86</ele>
  <time>2026-08-27T18:26:36Z</time>
  <course>9.05</course>
  <speed>0.01</speed>
  <fix>3d</fix>
</trkpt>
<trkpt lat="40.072842" lon="-105.2305751">
  <ele>1670.29</ele>
  <time>2026-08-27T18:26:36Z</time>
  <course>9.06</course>
  <speed>0.01</speed>
  <fix>3d</fix>
</trkpt>
<trkpt lat="40.072842" lon="-105.2305753">
  <ele>1669.73</ele>
  <time>2026-08-27T18:26:36Z</time>
  <course>0.95</course>
  <speed>0.0</speed>
  <fix>3d</fix>
</trkpt>
<trkpt lat="40.072842" lon="-105.2305751">
  <ele>1670.3</ele>
  <time>2026-08-27T18:26:36Z</time>
  <course>9.06</course>
  <speed>0.01</speed>
  <fix>3d</fix>
</trkpt>
<trkpt lat="40.072842" lon="-105.2305751">
  <ele>1670.79</ele>
  <time>2026-08-27T18:26:36Z</time>
  <course>9.09</course>
  <speed>0.01</speed>
  <fix>3d</fix>
</trkpt>
<trkpt lat="40.072842" lon="-105.2305753">
  <ele>1670.23</ele>
  <time>2026-08-27T18:26:36Z</time>
  <course>1.63</course>
  <speed>0.0</speed>
  <fix>3d</fix>
</trkpt>
<trkpt lat="40.072842" lon="-105.2305751">
  <ele>1670.87</ele>
  <time>2026-08-27T18:26:36Z</time>
  <course>9.09</course>
  <speed>0.01</speed>
  <fix>3d</fix>
</trkpt>
<trkpt lat="40.072842" lon="-105.2305751">
  <ele>1671.29</ele>
  <time>2026-08-27T18:26:36Z</time>
  <course>9.09</course>
  <speed>0.01414213562373095</speed>
  <fix>3d</fix>
</trkpt>
<trkpt lat="40.0728421" lon="-105.2305753">
  <ele>1670.74</ele>
  <time>2026-08-27T18:26:36Z</time>
  <course>2.85</course>
  <speed>0.0</speed>
  <fix>3d</fix>
</trkpt>
<trkpt lat="40.072842" lon="-105.2305751">
  <ele>1671.37</ele>
  <time>2026-08-27T18:26:36Z</time>
  <course>9.1</course>
  <speed>0.01414213562373095</speed>
  <fix>3d</fix>
</trkpt>
<trkpt lat="40.072842" lon="-105.2305751">
  <ele>1671.79</ele>
  <time>2026-08-27T18:26:36Z</time>
  <course>9.13</course>
  <speed>0.01414213562373095</speed>
  <fix>3d</fix>
</trkpt>
<trkpt lat="40.0728421" lon="-105.2305753">
  <ele>1671.24</ele>
  <time>2026-08-27T18:26:36Z</time>
  <course>2.46</course>
  <speed>0.0</speed>
  <fix>3d</fix>
</trkpt>
<trkpt lat="40.072842" lon="-105.2305751">
  <ele>1671.87</ele>
  <time>2026-08-27T18:26:36Z</time>
  <course>9.13</course>
  <speed>0.01414213562373095</speed>
  <fix>3d</fix>
</trkpt>
<trkpt lat="40.072842" lon="-105.2305751">
  <ele>1672.3</ele>
  <time>2026-08-27T18:26:36Z</time>
  <course>9.13</course>
  <speed>0.01414213562373095</speed>
  <fix>3d</fix>
</trkpt>
<trkpt lat="40.0728421" lon="-105.2305753">
  <ele>1671.75</ele>
  <time>2026-08-27T18:26:36Z</time>
  <course>4.19</course>
  <speed>0.0</speed>
  <fix>3d</fix>
</trkpt>
<trkpt lat="40.072842" lon="-105.2305751">
  <ele>1672.37</ele>
  <time>2026-08-27T18:26:36Z</time>
  <course>9.13</course>
  <speed>0.01414213562373095</speed>
  <fix>3d</fix>
</trkpt>
<trkpt lat="40.072842" lon="-105.2305751">
  <ele>1672.8</ele>
  <time>2026-08-27T18:26:36Z</time>
  <course>9.15</course>
  <speed>0.01414213562373095</speed>
  <fix>3d</fix>
</trkpt>
<trkpt lat="40.0728421" lon="-105.2305753">
  <ele>1672.25</ele>
  <time>2026-08-27T18:26:36Z</time>
  <course>7.3</course>
  <speed>0.0</speed>
  <fix>3d</fix>
</trkpt>
<trkpt lat="40.072842" lon="-105.2305751">
  <ele>1672.8</ele>
  <time>2026-08-27T18:26:36Z</time>
  <course>9.15</course>
  <speed>0.01414213562373095</speed>
  <fix>3d</fix>
</trkpt>
<trkpt lat="40.072842" lon="-105.2305751">
  <ele>1673.3</ele>
  <time>2026-08-27T18:26:36Z</time>
  <course>9.15</course>
  <speed>0.01414213562373095</speed>
  <fix>3d</fix>
</trkpt>
<trkpt lat="40.0728421" lon="-105.2305753">
  <ele>1672.75</ele>
  <time>2026-08-27T18:26:36Z</time>
  <course>8.2</course>
  <speed>0.0</speed>
  <fix>3d</fix>
</trkpt>
<trkpt lat="40.072842" lon="-105.2305751">
  <ele>1673.37</ele>
  <time>2026-08-27T18:26:36Z</time>
  <course>9.16</course>
  <speed>0.01414213562373095</speed>
  <fix>3d</fix>
</trkpt>
<trkpt lat="40.072842" lon="-105.2305751">
  <ele>1673.8</ele>
  <time>2026-08-27T18:26:36Z</time>
  <course>9.14</course>
  <speed>0.01414213562373095</speed>
  <fix>3d</fix>
</trkpt>
<trkpt lat="40.0728421" lon="-105.2305753">
  <ele>1673.25</ele>
  <time>2026-08-27T18:26:36Z</time>
  <course>10.51</course>
  <speed>0.0</speed>
  <fix>3d</fix>
</trkpt>
<trkpt lat="40.072842" lon="-105.2305751">
  <ele>1673.87</ele>
  <time>2026-08-27T18:26:36Z</time>
  <course>9.15</course>
  <speed>0.01414213562373095</speed>
  <fix>3d</fix>
</trkpt>
<trkpt lat="40.072842" lon="-105.2305751">
  <ele>1674.3</ele>
  <time>2026-08-27T18:26:36Z</time>
  <course>9.17</course>
  <speed>0.01414213562373095</speed>
  <fix>3d</fix>
</trkpt>
<trkpt lat="40.0728421" lon="-105.2305753">
  <ele>1673.76</ele>
  <time>2026-08-27T18:26:36Z</time>
  <course>13.37</course>
  <speed>0.0</speed>
  <fix>3d</fix>
</trkpt>
<trkpt lat="40.072842" lon="-105.2305751">
  <ele>1674.38</ele>
  <time>2026-08-27T18:26:36Z</time>
  <course>9.18</course>
  <speed>0.01414213562373095</speed>
  <fix>3d</fix>
</trkpt>
<trkpt lat="40.072842" lon="-105.2305751">
  <ele>1674.8</ele>
  <time>2026-08-27T18:26:36Z</time>
  <course>9.17</course>
  <speed>0.01414213562373095</speed>
  <fix>3d</fix>
</trkpt>
<trkpt lat="40.0728421" lon="-105.2305753">
  <ele>1674.26</ele>
  <time>2026-08-27T18:26:36Z</time>
  <course>17.29</course>
  <speed>0.0</speed>
  <fix>3d</fix>
</trkpt>
<trkpt lat="40.072842" lon="-105.2305751">
  <ele>1674.88</ele>
  <time>2026-08-27T18:26:36Z</time>
  <course>9.17</course>
  <speed>0.01414213562373095</speed>
  <fix>3d</fix>
</trkpt>
<trkpt lat="40.072842" lon="-105.2305751">
  <ele>1675.31</ele>
  <time>2026-08-27T18:26:36Z</time>
  <course>9.18</course>
  <speed>0.01414213562373095</speed>
  <fix>3d</fix>
</trkpt>
<trkpt lat="40.0728421" lon="-105.2305753">
  <ele>1674.76</ele>
  <time>2026-08-27T18:26:36Z</time>
  <course>22.5</course>
  <speed>0.0</speed>
  <fix>3d</fix>
</trkpt>
<trkpt lat="40.072842" lon="-105.2305751">
  <ele>1675.38</ele>
  <time>2026-08-27T18:26:36Z</time>
  <course>9.18</course>
  <speed>0.01414213562373095</speed>
  <fix>3d</fix>
</trkpt>
<trkpt lat="40.072842" lon="-105.2305751">
  <ele>1675.81</ele>
  <time>2026-08-27T18:26:36Z</time>
  <course>9.21</course>
  <speed>0.01414213562373095</speed>
  <fix>3d</fix>
</trkpt>
<trkpt lat="40.0728421" lon="-105.2305753">
  <ele>1675.26</ele>
  <time>2026-08-27T18:26:36Z</time>
  <course>21.2</course>
  <speed>0.0</speed>
  <fix>3d</fix>
</trkpt>
<trkpt lat="40.072842" lon="-105.2305751">
  <ele>1675.82</ele>
  <time>2026-08-27T18:26:36Z</time>
  <course>9.21</course>
  <speed>0.01414213562373095</speed>
  <fix>3d</fix>
</trkpt>
<trkpt lat="40.072842" lon="-105.2305751">
  <ele>1676.31</ele>
  <time>2026-08-27T18:26:36Z</time>
  <course>9.22</course>
  <speed>0.01414213562373095</speed>
  <fix>3d</fix>
</trkpt>
<trkpt lat="40.0728421" lon="-105.2305753">
  <ele>1675.76</ele>
  <time>2026-08-27T18:26:36Z</time>
  <course>20.54</course>
  <speed>0.0</speed>
  <fix>3d</fix>
</trkpt>
<trkpt lat="40.072842" lon="-105.2305751">
  <ele>1676.4</ele>
  <time>2026-08-27T18:26:36Z</time>
  <course>9.22</course>
  <speed>0.01414213562373095</speed>
  <fix>3d</fix>
</trkpt>
<trkpt lat="40.072842" lon="-105.2305751">
  <ele>1676.82</ele>
  <time>2026-08-27T18:26:36Z</time>
  <course>9.23</course>
  <speed>0.01414213562373095</speed>
  <fix>3d</fix>
</trkpt>
<trkpt lat="40.0728422" lon="-105.2305753">
  <ele>1676.27</ele>
  <time>2026-08-27T18:26:36Z</time>
  <course>27.57</course>
  <speed>0.0</speed>
  <fix>3d</fix>
</trkpt>
<trkpt lat="40.072842" lon="-105.2305751">
  <ele>1676.9</ele>
  <time>2026-08-27T18:26:36Z</time>
  <course>9.23</course>
  <speed>0.01414213562373095</speed>
  <fix>3d</fix>
</trkpt>
<trkpt lat="40.072842" lon="-105.2305751">
  <ele>1677.33</ele>
  <time>2026-08-27T18:26:36Z</time>
  <course>9.22</course>
  <speed>0.01414213562373095</speed>
  <fix>3d</fix>
</trkpt>
<trkpt lat="40.0728423" lon="-105.2305753">
  <ele>1676.77</ele>
  <time>2026-08-27T18:26:36Z</time>
  <course>42.95</course>
  <speed>0.0</speed>
  <fix>3d</fix>
</trkpt>
<trkpt lat="40.072842" lon="-105.2305751">
  <ele>1677.4</ele>
  <time>2026-08-27T18:26:36Z</time>
  <course>9.22</course>
  <speed>0.01414213562373095</speed>
  <fix>3d</fix>
</trkpt>
<trkpt lat="40.072842" lon="-105.2305751">
  <ele>1677.83</ele>
  <time>2026-08-27T18:26:36Z</time>
  <course>9.28</course>
  <speed>0.01414213562373095</speed>
  <fix>3d</fix>
</trkpt>
<trkpt lat="40.0728423" lon="-105.2305753">
  <ele>1677.26</ele>
  <time>2026-08-27T18:26:36Z</time>
  <course>42.71</course>
  <speed>0.0</speed>
  <fix>3d</fix>
</trkpt>
<trkpt lat="40.072842" lon="-105.2305751">
  <ele>1677.9</ele>
  <time>2026-08-27T18:26:36Z</time>
  <course>9.29</course>
  <speed>0.01414213562373095</speed>
  <fix>3d</fix>
</trkpt>
<trkpt lat="40.072842" lon="-105.2305751">
  <ele>1678.33</ele>
  <time>2026-08-27T18:26:36Z</time>
  <course>9.31</course>
  <speed>0.01414213562373095</speed>
  <fix>3d</fix>
</trkpt>
<trkpt lat="40.0728423" lon="-105.2305753">
  <ele>1677.76</ele>
  <time>2026-08-27T18:26:36Z</time>
  <course>42.89</course>
  <speed>0.0</speed>
  <fix>3d</fix>
</trkpt>
<trkpt lat="40.072842" lon="-105.2305751">
  <ele>1678.34</ele>
  <time>2026-08-27T18:26:36Z</time>
  <course>9.31</course>
  <speed>0.01414213562373095</speed>
  <fix>3d</fix>
</trkpt>
<trkpt lat="40.072842" lon="-105.2305751">
  <ele>1678.83</ele>
  <time>2026-08-27T18:26:36Z</time>
  <course>9.33</course>
  <speed>0.01414213562373095</speed>
  <fix>3d</fix>
</trkpt>
<trkpt lat="40.0728423" lon="-105.2305753">
  <ele>1678.25</ele>
  <time>2026-08-27T18:26:36Z</time>
  <course>61.47</course>
  <speed>0.0</speed>
  <fix>3d</fix>
</trkpt>
<trkpt lat="40.072842" lon="-105.2305751">
  <ele>1678.9</ele>
  <time>2026-08-27T18:26:36Z</time>
  <course>9.33</course>
  <speed>0.01414213562373095</speed>
  <fix>3d</fix>
</trkpt>
<trkpt lat="40.072842" lon="-105.2305751">
  <ele>1679.33</ele>
  <time>2026-08-27T18:26:36Z</time>
  <course>9.29</course>
  <speed>0.022360679774997897</speed>
  <fix>3d</fix>
</trkpt>
<trkpt lat="40.0728423" lon="-105.2305753">
  <ele>1678.75</ele>
  <time>2026-08-27T18:26:36Z</time>
  <course>95.16</course>
  <speed>0.0</speed>
  <fix>3d</fix>
</trkpt>
<trkpt lat="40.072842" lon="-105.2305751">
  <ele>1679.39</ele>
  <time>2026-08-27T18:26:36Z</time>
  <course>9.28</course>
  <speed>0.022360679774997897</speed>
  <fix>3d</fix>
</trkpt>
<trkpt lat="40.072842" lon="-105.2305751">
  <ele>1679.82</ele>
  <time>2026-08-27T18:26:36Z</time>
  <course>9.29</course>
  <speed>0.022360679774997897</speed>
  <fix>3d</fix>
</trkpt>
<trkpt lat="40.0728423" lon="-105.2305753">
  <ele>1679.24</ele>
  <time>2026-08-27T18:26:36Z</time>
  <course>123.14</course>
  <speed>0.0</speed>
  <fix>3d</fix>
</trkpt>
<trkpt lat="40.072842" lon="-105.2305751">
  <ele>1679.89</ele>
  <time>2026-08-27T18:26:36Z</time>
  <course>9.29</course>
  <speed>0.022360679774997897</speed>
  <fix>3d</fix>
</trkpt>
<trkpt lat="40.0728421" lon="-105.2305751">
  <ele>1680.32</ele>
  <time>2026-08-27T18:26:36Z</time>
  <course>9.27</course>
  <speed>0.022360679774997897</speed>
  <fix>3d</fix>
</trkpt>
<trkpt lat="40.0728423" lon="-105.2305752">
  <ele>1679.74</ele>
  <time>2026-08-27T18:26:36Z</time>
  <course>140.36</course>
  <speed>0.0</speed>
  <fix>3d</fix>
</trkpt>
<trkpt lat="40.0728421" lon="-105.2305751">
  <ele>1680.32</ele>
  <time>2026-08-27T18:26:36Z</time>
  <course>9.27</course>
  <speed>0.022360679774997897</speed>
  <fix>3d</fix>
</trkpt>
<trkpt lat="40.0728421" lon="-105.2305751">
  <ele>1680.82</ele>
  <time>2026-08-27T18:26:36Z</time>
  <course>9.27</course>
  <speed>0.022360679774997897</speed>
  <fix>3d</fix>
</trkpt>
<trkpt lat="40.0728423" lon="-105.2305751">
  <ele>1680.23</ele>
  <time>2026-08-27T18:26:36Z</time>
  <course>147.42</course>
  <speed>0.0</speed>
  <fix>3d</fix>
</trkpt>
<trkpt lat="40.0728421" lon="-105.2305751">
  <ele>1680.88</ele>
  <time>2026-08-27T18:26:36Z</time>
  <course>9.27</course>
  <speed>0.022360679774997897</speed>
  <fix>3d</fix>
</trkpt>
<trkpt lat="40.0728421" lon="-105.2305751">
  <ele>1681.32</ele>
  <time>2026-08-27T18:26:36Z</time>
  <course>9.26</course>
  <speed>0.0282842712474619</speed>
  <fix>3d</fix>
</trkpt>
<trkpt lat="40.0728423" lon="-105.2305751">
  <ele>1680.73</ele>
  <time>2026-08-27T18:26:36Z</time>
  <course>152.89</course>
  <speed>0.0</speed>
  <fix>3d</fix>
</trkpt>
<trkpt lat="40.0728421" lon="-105.2305751">
  <ele>1681.32</ele>
  <time>2026-08-27T18:26:36Z</time>
  <course>9.26</course>
  <speed>0.0282842712474619</speed>
  <fix>3d</fix>
</trkpt>
<trkpt lat="40.0728421" lon="-105.2305751">
  <ele>1681.81</ele>
  <time>2026-08-27T18:26:36Z</time>
  <course>9.3</course>
  <speed>0.0282842712474619</speed>
  <fix>3d</fix>
</trkpt>
<trkpt lat="40.0728423" lon="-105.2305751">
  <ele>1681.23</ele>
  <time>2026-08-27T18:26:36Z</time>
  <course>162.19</course>
  <speed>0.0</speed>
  <fix>3d</fix>
</trkpt>
<trkpt lat="40.0728421" lon="-105.2305751">
  <ele>1681.89</ele>
  <time>2026-08-27T18:26:36Z</time>
  <course>9.29</course>
  <speed>0.0282842712474619</speed>
  <fix>3d</fix>
</trkpt>
<trkpt lat="40.0728421" lon="-105.2305751">
  <ele>1682.31</ele>
  <time>2026-08-27T18:26:36Z</time>
  <course>9.29</course>
  <speed>0.022360679774997897</speed>
  <fix>3d</fix>
</trkpt>
<trkpt lat="40.0728423" lon="-105.2305751">
  <ele>1681.73</ele>
  <time>2026-08-27T18:26:36Z</time>
  <course>173.41</course>
  <speed>0.0</speed>
  <fix>3d</fix>
</trkpt>
<trkpt lat="40.0728421" lon="-105.2305751">
  <ele>1682.38</ele>
  <time>2026-08-27T18:26:36Z</time>
  <course>9.3</course>
  <speed>0.022360679774997897</speed>
  <fix>3d</fix>
</trkpt>
<trkpt lat="40.0728421" lon="-105.2305751">
  <ele>1682.81</ele>
  <time>2026-08-27T18:26:36Z</time>
  <course>9.3</course>
  <speed>0.022360679774997897</speed>
  <fix>3d</fix>
</trkpt>
<trkpt lat="40.0728423" lon="-105.2305751">
  <ele>1682.22</ele>
  <time>2026-08-27T18:26:36Z</time>
  <course>181.37</course>
  <speed>0.01</speed>
  <fix>3d</fix>
</trkpt>
<trkpt lat="40.0728421" lon="-105.2305751">
  <ele>1682.82</ele>
  <time>2026-08-27T18:26:36Z</time>
  <course>9.3</course>
  <speed>0.022360679774997897</speed>
  <fix>3d</fix>
</trkpt>
<trkpt lat="40.0728421" lon="-105.230575">
  <ele>1683.31</ele>
  <time>2026-08-27T18:26:36Z</time>
  <course>9.29</course>
  <speed>0.022360679774997897</speed>
  <fix>3d</fix>
</trkpt>
<trkpt lat="40.0728423" lon="-105.2305751">
  <ele>1682.72</ele>
  <time>2026-08-27T18:26:36Z</time>
  <course>187.55</course>
  <speed>0.01</speed>
  <fix>3d</fix>
</trkpt>
<trkpt lat="40.0728421" lon="-105.230575">
  <ele>1683.38</ele>
  <time>2026-08-27T18:26:36Z</time>
  <course>9.29</course>
  <speed>0.022360679774997897</speed>
  <fix>3d</fix>
</trkpt>
<trkpt lat="40.0728421" lon="-105.230575">
  <ele>1683.8</ele>
  <time>2026-08-27T18:26:36Z</time>
  <course>9.29</course>
  <speed>0.022360679774997897</speed>
  <fix>3d</fix>
</trkpt>
<trkpt lat="40.0728422" lon="-105.2305751">
  <ele>1683.22</ele>
  <time>2026-08-27T18:26:36Z</time>
  <course>194.61</course>
  <speed>0.01</speed>
  <fix>3d</fix>
</trkpt>
<trkpt lat="40.0728421" lon="-105.230575">
  <ele>1683.81</ele>
  <time>2026-08-27T18:26:36Z</time>
  <course>9.29</course>
  <speed>0.022360679774997897</speed>
  <fix>3d</fix>
</trkpt>
<trkpt lat="40.0728421" lon="-105.230575">
  <ele>1684.3</ele>
  <time>2026-08-27T18:26:36Z</time>
  <course>9.29</course>
  <speed>0.022360679774997897</speed>
  <fix>3d</fix>
</trkpt>
<trkpt lat="40.0728421" lon="-105.2305751">
  <ele>1683.71</ele>
  <time>2026-08-27T18:26:36Z</time>
  <course>200.84</course>
  <speed>0.01</speed>
  <fix>3d</fix>
</trkpt>
<trkpt lat="40.0728421" lon="-105.230575">
  <ele>1684.37</ele>
  <time>2026-08-27T18:26:36Z</time>
  <course>9.29</course>
  <speed>0.022360679774997897</speed>
  <fix>3d</fix>
</trkpt>
<trkpt lat="40.0728421" lon="-105.230575">
  <ele>1684.8</ele>
  <time>2026-08-27T18:26:36Z</time>
  <course>9.29</course>
  <speed>0.022360679774997897</speed>
  <fix>3d</fix>
</trkpt>
<trkpt lat="40.0728421" lon="-105.2305751">
  <ele>1684.21</ele>
  <time>2026-08-27T18:26:36Z</time>
  <course>205.59</course>
  <speed>0.01</speed>
  <fix>3d</fix>
</trkpt>
<trkpt lat="40.0728421" lon="-105.230575">
  <ele>1684.86</ele>
  <time>2026-08-27T18:26:36Z</time>
  <course>9.3</course>
  <speed>0.022360679774997897</speed>
  <fix>3d</fix>
</trkpt>
<trkpt lat="40.0728421" lon="-105.230575">
  <ele>1685.29</ele>
  <time>2026-08-27T18:26:36Z</time>
  <course>9.27</course>
  <speed>0.022360679774997897</speed>
  <fix>3d</fix>
</trkpt>
<trkpt lat="40.0728421" lon="-105.2305751">
  <ele>1684.71</ele>
  <time>2026-08-27T18:26:36Z</time>
  <course>209.85</course>
  <speed>0.01</speed>
  <fix>3d</fix>
</trkpt>
<trkpt lat="40.0728421" lon="-105.230575">
  <ele>1685.3</ele>
  <time>2026-08-27T18:26:36Z</time>
  <course>9.27</course>
  <speed>0.022360679774997897</speed>
  <fix>3d</fix>
</trkpt>
<trkpt lat="40.0728421" lon="-105.230575">
  <ele>1685.8</ele>
  <time>2026-08-27T18:26:36Z</time>
  <course>9.29</course>
  <speed>0.022360679774997897</speed>
  <fix>3d</fix>
</trkpt>
<trkpt lat="40.0728421" lon="-105.2305751">
  <ele>1685.21</ele>
  <time>2026-08-27T18:26:36Z</time>
  <course>214.67</course>
  <speed>0.01</speed>
  <fix>3d</fix>
</trkpt>
<trkpt lat="40.072842" lon="-105.2305751">
  <ele>1686.29</ele>
  <time>2026-08-27T18:26:36Z</time>
  <course>9.75</course>
  <speed>0.02</speed>
  <fix>3d</fix>
</trkpt>
<trkpt lat="40.0728421" lon="-105.2305751">
  <ele>1685.7</ele>
  <time>2026-08-27T18:26:36Z</time>
  <course>227.45</course>
  <speed>0.01</speed>
  <fix>3d</fix>
</trkpt>
<trkpt lat="40.072842" lon="-105.2305751">
  <ele>1686.73</ele>
  <time>2026-08-27T18:26:36Z</time>
  <course>10.66</course>
  <speed>0.01</speed>
  <fix>3d</fix>
</trkpt>
<trkpt lat="40.072842" lon="-105.2305752">
  <ele>1686.17</ele>
  <time>2026-08-27T18:26:36Z</time>
  <course>243.91</course>
  <speed>0.01</speed>
  <fix>3d</fix>
</trkpt>
<trkpt lat="40.072842" lon="-105.2305751">
  <ele>1687.06</ele>
  <time>2026-08-27T18:26:36Z</time>
  <course>12.87</course>
  <speed>0.03</speed>
  <fix>3d</fix>
</trkpt>
<trkpt lat="40.072842" lon="-105.2305753">
  <ele>1686.6</ele>
  <time>2026-08-27T18:26:36Z</time>
  <course>263.45</course>
  <speed>0.02</speed>
  <fix>3d</fix>
</trkpt>
<trkpt lat="40.072842" lon="-105.2305752">
  <ele>1687.05</ele>
  <time>2026-08-27T18:26:36Z</time>
  <course>16.39</course>
  <speed>0.06082762530298219</speed>
  <fix>3d</fix>
</trkpt>
<trkpt lat="40.072842" lon="-105.2305753">
  <ele>1686.83</ele>
  <time>2026-08-27T18:26:36Z</time>
  <course>275.79</course>
  <speed>0.05</speed>
  <fix>3d</fix>
</trkpt>
<trkpt lat="40.072842" lon="-105.2305754">
  <ele>1686.75</ele>
  <time>2026-08-27T18:26:36Z</time>
  <course>16.32</course>
  <speed>0.1</speed>
  <fix>3d</fix>
</trkpt>
<trkpt lat="40.072842" lon="-105.2305756">
  <ele>1686.75</ele>
  <time>2026-08-27T18:26:36Z</time>
  <course>292.65</course>
  <speed>0.09</speed>
  <fix>3d</fix>
</trkpt>
<trkpt lat="40.0728423" lon="-105.2305756">
  <ele>1686.26</ele>
  <time>2026-08-27T18:26:36Z</time>
  <course>16.64</course>
  <speed>0.25079872407968906</speed>
  <fix>3d</fix>
</trkpt>
<trkpt lat="40.0728421" lon="-105.2305758">
  <ele>1686.39</ele>
  <time>2026-08-27T18:26:36Z</time>
  <course>328.08</course>
  <speed>0.15</speed>
  <fix>3d</fix>
</trkpt>
<trkpt lat="40.072843" lon="-105.2305756">
  <ele>1685.66</ele>
  <time>2026-08-27T18:26:36Z</time>
  <course>17.47</course>
  <speed>0.51478150704935</speed>
  <fix>3d</fix>
</trkpt>
<trkpt lat="40.0728426" lon="-105.2305759">
  <ele>1685.87</ele>
  <time>2026-08-27T18:26:36Z</time>
  <course>352.84</course>
  <speed>0.33</speed>
  <fix>3d</fix>
</trkpt>
<trkpt lat="40.0728442" lon="-105.2305754">
  <ele>1685.01</ele>
  <time>2026-08-27T18:26:36Z</time>
  <course>18.56</course>
  <speed>0.8395236744726142</speed>
  <fix>3d</fix>
</trkpt>
<trkpt lat="40.0728434" lon="-105.2305759">
  <ele>1685.26</ele>
  <time>2026-08-27T18:26:36Z</time>
  <course>3.23</course>
  <speed>0.61</speed>
  <fix>3d</fix>
</trkpt>
<trkpt lat="40.072846" lon="-105.230575">
  <ele>1684.33</ele>
  <time>2026-08-27T18:26:36Z</time>
  <course>19.4</course>
  <speed>1.1666190466471906</speed>
  <fix>3d</fix>
</trkpt>
<trkpt lat="40.0728448" lon="-105.2305758">
  <ele>1684.6</ele>
  <time>2026-08-27T18:26:36Z</time>
  <course>7.75</course>
  <speed>0.94</speed>
  <fix>3d</fix>
</trkpt>
<trkpt lat="40.0728483" lon="-105.2305744">
  <ele>1683.6</ele>
  <time>2026-08-27T18:26:36Z</time>
  <course>19.35</course>
  <speed>1.4796283317103658</speed>
  <fix>3d</fix>
</trkpt>
<trkpt lat="40.0728467" lon="-105.2305754">
  <ele>1683.91</ele>
  <time>2026-08-27T18:26:36Z</time>
  <course>9.88</course>
  <speed>1.26</speed>
  <fix>3d</fix>
</trkpt>
<trkpt lat="40.0728511" lon="-105.2305736">
  <ele>1682.81</ele>
  <time>2026-08-27T18:26:36Z</time>
  <course>18.8</course>
  <speed>1.7560182231400674</speed>
  <fix>3d</fix>
</trkpt>
<trkpt lat="40.0728493" lon="-105.2305748">
  <ele>1683.19</ele>
  <time>2026-08-27T18:26:36Z</time>
  <course>10.86</course>
  <speed>1.56</speed>
  <fix>3d</fix>
</trkpt>
<trkpt lat="40.0728544" lon="-105.2305727">
  <ele>1681.93</ele>
  <time>2026-08-27T18:26:36Z</time>
  <course>18.05</course>
  <speed>2.0009247861926243</speed>
  <fix>3d</fix>
</trkpt>
<trkpt lat="40.0728522" lon="-105.230574">
  <ele>1682.39</ele>
  <time>2026-08-27T18:26:36Z</time>
  <course>11.31</course>
  <speed>1.84</speed>
  <fix>3d</fix>
</trkpt>
<trkpt lat="40.0728581" lon="-105.2305718">
  <ele>1680.98</ele>
  <time>2026-08-27T18:26:36Z</time>
  <course>17.22</course>
  <speed>2.2337860237721965</speed>
  <fix>3d</fix>
</trkpt>
<trkpt lat="40.0728557" lon="-105.2305731">
  <ele>1681.52</ele>
  <time>2026-08-27T18:26:36Z</time>
  <course>11.49</course>
  <speed>2.09</speed>
  <fix>3d</fix>
</trkpt>
<trkpt lat="40.0728623" lon="-105.2305707">
  <ele>1679.92</ele>
  <time>2026-08-27T18:26:36Z</time>
  <course>16.34</course>
  <speed>2.4644674881198982</speed>
  <fix>3d</fix>
</trkpt>
<trkpt lat="40.0728596" lon="-105.2305721">
  <ele>1680.55</ele>
  <time>2026-08-27T18:26:36Z</time>
  <course>11.54</course>
  <speed>2.32</speed>
  <fix>3d</fix>
</trkpt>
<trkpt lat="40.0728668" lon="-105.2305696">
  <ele>1678.79</ele>
  <time>2026-08-27T18:26:36Z</time>
  <course>15.55</course>
  <speed>2.717075633838705</speed>
  <fix>3d</fix>
</trkpt>
<trkpt lat="40.0728639" lon="-105.230571">
  <ele>1679.49</ele>
  <time>2026-08-27T18:26:36Z</time>
  <course>11.53</course>
  <speed>2.56</speed>
  <fix>3d</fix>
</trkpt>
<trkpt lat="40.0728718" lon="-105.2305684">
  <ele>1677.61</ele>
  <time>2026-08-27T18:26:36Z</time>
  <course>14.94</course>
  <speed>2.9578708558691336</speed>
  <fix>3d</fix>
</trkpt>
<trkpt lat="40.0728687" lon="-105.2305696">
  <ele>1678.37</ele>
  <time>2026-08-27T18:26:36Z</time>
  <course>11.52</course>
  <speed>2.81</speed>
  <fix>3d</fix>
</trkpt>
<trkpt lat="40.0728773" lon="-105.230567">
  <ele>1676.37</ele>
  <time>2026-08-27T18:26:36Z</time>
  <course>14.5</course>
  <speed>3.2127869521647403</speed>
  <fix>3d</fix>
</trkpt>
<trkpt lat="40.0728739" lon="-105.2305682">
  <ele>1677.17</ele>
  <time>2026-08-27T18:26:36Z</time>
  <course>11.51</course>
  <speed>3.06</speed>
  <fix>3d</fix>
</trkpt>
<trkpt lat="40.0728832" lon="-105.2305655">
  <ele>1675.09</ele>
  <time>2026-08-27T18:26:36Z</time>
  <course>14.2</course>
  <speed>3.455835644240044</speed>
  <fix>3d</fix>
</trkpt>
<trkpt lat="40.0728795" lon="-105.2305667">
  <ele>1675.94</ele>
  <time>2026-08-27T18:26:36Z</time>
  <course>11.5</course>
  <speed>3.31</speed>
  <fix>3d</fix>
</trkpt>
<trkpt lat="40.0728895" lon="-105.2305638">
  <ele>1673.78</ele>
  <time>2026-08-27T18:26:36Z</time>
  <course>13.96</course>
  <speed>3.7087059737865444</speed>
  <fix>3d</fix>
</trkpt>
<trkpt lat="40.0728855" lon="-105.2305652">
  <ele>1674.66</ele>
  <time>2026-08-27T18:26:36Z</time>
  <course>11.5</course>
  <speed>3.57</speed>
  <fix>3d</fix>
</trkpt>
<trkpt lat="40.0728963" lon="-105.2305621">
  <ele>1672.44</ele>
  <time>2026-08-27T18:26:36Z</time>
  <course>13.8</course>
  <speed>3.9636473102434326</speed>
  <fix>3d</fix>
</trkpt>
<trkpt lat="40.0728921" lon="-105.2305634">
  <ele>1673.36</ele>
  <time>2026-08-27T18:26:36Z</time>
  <course>11.51</course>
  <speed>3.82</speed>
  <fix>3d</fix>
</trkpt>
<trkpt lat="40.0729035" lon="-105.2305602">
  <ele>1671.09</ele>
  <time>2026-08-27T18:26:36Z</time>
  <course>13.79</course>
  <speed>4.228380304561074</speed>
  <fix>3d</fix>
</trkpt>
<trkpt lat="40.0728991" lon="-105.2305616">
  <ele>1672.03</ele>
  <time>2026-08-27T18:26:36Z</time>
  <course>11.52</course>
  <speed>4.08</speed>
  <fix>3d</fix>
</trkpt>
<trkpt lat="40.0729113" lon="-105.2305581">
  <ele>1669.74</ele>
  <time>2026-08-27T18:26:37Z</time>
  <course>13.75</course>
  <speed>4.495152945117663</speed>
  <fix>3d</fix>
</trkpt>
<trkpt lat="40.0729065" lon="-105.2305596">
  <ele>1670.7</ele>
  <time>2026-08-27T18:26:37Z</time>
  <course>11.57</course>
  <speed>4.35</speed>
  <fix>3d</fix>
</trkpt>
<trkpt lat="40.0729195" lon="-105.230556">
  <ele>1668.4</ele>
  <time>2026-08-27T18:26:37Z</time>
  <course>13.73</course>
  <speed>4.75988445237907</speed>
  <fix>3d</fix>
</trkpt>
<trkpt lat="40.0729144" lon="-105.2305575">
  <ele>1669.36</ele>
  <time>2026-08-27T18:26:37Z</time>
  <course>11.63</course>
  <speed>4.62</speed>
  <fix>3d</fix>
</trkpt>
<trkpt lat="40.0729281" lon="-105.2305537">
  <ele>1667.06</ele>
  <time>2026-08-27T18:26:37Z</time>
  <course>13.73</course>
  <speed>5.016871535130234</speed>
  <fix>3d</fix>
</trkpt>
<trkpt lat="40.0729228" lon="-105.2305552">
  <ele>1668.02</ele>
  <time>2026-08-27T18:26:37Z</time>
  <course>11.69</course>
  <speed>4.88</speed>
  <fix>3d</fix>
</trkpt>
<trkpt lat="40.0729373" lon="-105.2305512">
  <ele>1665.73</ele>
  <time>2026-08-27T18:26:37Z</time>
  <course>13.74</course>
  <speed>5.273869547116235</speed>
  <fix>3d</fix>
</trkpt>
<trkpt lat="40.0729316" lon="-105.2305528">
  <ele>1666.7</ele>
  <time>2026-08-27T18:26:37Z</time>
  <course>11.76</course>
  <speed>5.14</speed>
  <fix>3d</fix>
</trkpt>
<trkpt lat="40.0729468" lon="-105.2305486">
  <ele>1664.42</ele>
  <time>2026-08-27T18:26:37Z</time>
  <course>13.84</course>
  <speed>5.5308769648221245</speed>
  <fix>3d</fix>
</trkpt>
<trkpt lat="40.0729408" lon="-105.2305503">
  <ele>1665.38</ele>
  <time>2026-08-27T18:26:37Z</time>
  <course>11.85</course>
  <speed>5.4</speed>
  <fix>3d</fix>
</trkpt>
<trkpt lat="40.0729568" lon="-105.2305458">
  <ele>1663.13</ele>
  <time>2026-08-27T18:26:37Z</time>
  <course>14.59</course>
  <speed>5.789991364414976</speed>
  <fix>3d</fix>
</trkpt>
<trkpt lat="40.0729506" lon="-105.2305476">
  <ele>1664.09</ele>
  <time>2026-08-27T18:26:37Z</time>
  <course>11.99</course>
  <speed>5.66</speed>
  <fix>3d</fix>
</trkpt>
<trkpt lat="40.0729672" lon="-105.2305428">
  <ele>1661.85</ele>
  <time>2026-08-27T18:26:37Z</time>
  <course>14.9</course>
  <speed>6.03175762112504</speed>
  <fix>3d</fix>
</trkpt>
<trkpt lat="40.0729607" lon="-105.2305447">
  <ele>1662.81</ele>
  <time>2026-08-27T18:26:37Z</time>
  <course>12.24</course>
  <speed>5.91</speed>
  <fix>3d</fix>
</trkpt>
<trkpt lat="40.0729781" lon="-105.2305397">
  <ele>1660.58</ele>
  <time>2026-08-27T18:26:37Z</time>
  <course>14.95</course>
  <speed>6.254150621787103</speed>
  <fix>3d</fix>
</trkpt>
<trkpt lat="40.0729713" lon="-105.2305417">
  <ele>1661.55</ele>
  <time>2026-08-27T18:26:37Z</time>
  <course>12.52</course>
  <speed>6.15</speed>
  <fix>3d</fix>
</trkpt>
<trkpt lat="40.0729893" lon="-105.2305364">
  <ele>1659.32</ele>
  <time>2026-08-27T18:26:37Z</time>
  <course>14.89</course>
  <speed>6.474457506231699</speed>
  <fix>3d</fix>
</trkpt>
<trkpt lat="40.0729823" lon="-105.2305385">
  <ele>1660.29</ele>
  <time>2026-08-27T18:26:37Z</time>
  <course>12.76</course>
  <speed>6.37</speed>
  <fix>3d</fix>
</trkpt>
<trkpt lat="40.0730008" lon="-105.2305329">
  <ele>1658.05</ele>
  <time>2026-08-27T18:26:37Z</time>
  <course>14.75</course>
  <speed>6.673087741068598</speed>
  <fix>3d</fix>
</trkpt>
<trkpt lat="40.0729936" lon="-105.2305351">
  <ele>1659.04</ele>
  <time>2026-08-27T18:26:37Z</time>
  <course>12.96</course>
  <speed>6.58</speed>
  <fix>3d</fix>
</trkpt>
<trkpt lat="40.0730128" lon="-105.2305292">
  <ele>1656.77</ele>
  <time>2026-08-27T18:26:37Z</time>
  <course>14.6</course>
  <speed>6.874045388270287</speed>
  <fix>3d</fix>
</trkpt>
<trkpt lat="40.0730053" lon="-105.2305316">
  <ele>1657.78</ele>
  <time>2026-08-27T18:26:37Z</time>
  <course>13.13</course>
  <speed>6.79</speed>
  <fix>3d</fix>
</trkpt>
<trkpt lat="40.073025" lon="-105.2305255">
  <ele>1655.49</ele>
  <time>2026-08-27T18:26:37Z</time>
  <course>14.38</course>
  <speed>7.0607223426502195</speed>
  <fix>3d</fix>
</trkpt>
<trkpt lat="40.0730174" lon="-105.2305279">
  <ele>1656.51</ele>
  <time>2026-08-27T18:26:37Z</time>
  <course>13.27</course>
  <speed>6.98</speed>
  <fix>3d</fix>
</trkpt>
<trkpt lat="40.0730375" lon="-105.2305216">
  <ele>1654.18</ele>
  <time>2026-08-27T18:26:37Z</time>
  <course>14.17</course>
  <speed>7.237679186037469</speed>
  <fix>3d</fix>
</trkpt>
<trkpt lat="40.0730298" lon="-105.230524">
  <ele>1655.23</ele>
  <time>2026-08-27T18:26:37Z</time>
  <course>13.37</course>
  <speed>7.16</speed>
  <fix>3d</fix>
</trkpt>
<trkpt lat="40.0730504" lon="-105.2305176">
  <ele>1652.85</ele>
  <time>2026-08-27T18:26:37Z</time>
  <course>13.98</course>
  <speed>7.41464766526367</speed>
  <fix>3d</fix>
</trkpt>
<trkpt lat="40.0730425" lon="-105.2305201">
  <ele>1653.93</ele>
  <time>2026-08-27T18:26:37Z</time>
  <course>13.45</course>
  <speed>7.34</speed>
  <fix>3d</fix>
</trkpt>
<trkpt lat="40.0730635" lon="-105.2305135">
  <ele>1651.52</ele>
  <time>2026-08-27T18:26:37Z</time>
  <course>13.78</course>
  <speed>7.579564631296444</speed>
  <fix>3d</fix>
</trkpt>
<trkpt lat="40.0730554" lon="-105.230516">
  <ele>1652.62</ele>
  <time>2026-08-27T18:26:37Z</time>
  <course>13.5</course>
  <speed>7.52</speed>
  <fix>3d</fix>
</trkpt>
<trkpt lat="40.0730769" lon="-105.2305092">
  <ele>1650.17</ele>
  <time>2026-08-27T18:26:37Z</time>
  <course>13.61</course>
  <speed>7.7444819064931645</speed>
  <fix>3d</fix>
</trkpt>
<trkpt lat="40.0730688" lon="-105.2305119">
  <ele>1651.29</ele>
  <time>2026-08-27T18:26:37Z</time>
  <course>13.53</course>
  <speed>7.68</speed>
  <fix>3d</fix>
</trkpt>
<trkpt lat="40.0730906" lon="-105.2305049">
  <ele>1648.81</ele>
  <time>2026-08-27T18:26:37Z</time>
  <course>13.46</course>
  <speed>7.899677208595298</speed>
  <fix>3d</fix>
</trkpt>
<trkpt lat="40.0730823" lon="-105.2305076">
  <ele>1649.95</ele>
  <time>2026-08-27T18:26:37Z</time>
  <course>13.55</course>
  <speed>7.85</speed>
  <fix>3d</fix>
</trkpt>
<trkpt lat="40.0731046" lon="-105.2305005">
  <ele>1647.44</ele>
  <time>2026-08-27T18:26:37Z</time>
  <course>13.3</course>
  <speed>8.0548743006952</speed>
  <fix>3d</fix>
</trkpt>
<trkpt lat="40.0730961" lon="-105.2305031">
  <ele>1648.59</ele>
  <time>2026-08-27T18:26:37Z</time>
  <course>13.55</course>
  <speed>8.01</speed>
  <fix>3d</fix>
</trkpt>
<trkpt lat="40.0731189" lon="-105.230496">
  <ele>1646.05</ele>
  <time>2026-08-27T18:26:37Z</time>
  <course>13.15</course>
  <speed>8.207728065670793</speed>
  <fix>3d</fix>
</trkpt>
<trkpt lat="40.0731103" lon="-105.2304987">
  <ele>1647.22</ele>
  <time>2026-08-27T18:26:37Z</time>
  <course>13.54</course>
  <speed>8.16</speed>
  <fix>3d</fix>
</trkpt>
<trkpt lat="40.0731334" lon="-105.2304915">
  <ele>1644.65</ele>
  <time>2026-08-27T18:26:37Z</time>
  <course>13.04</course>
  <speed>8.360586103856594</speed>
  <fix>3d</fix>
</trkpt>
<trkpt lat="40.0731247" lon="-105.2304942">
  <ele>1645.83</ele>
  <time>2026-08-27T18:26:37Z</time>
  <course>13.52</course>
  <speed>8.31</speed>
  <fix>3d</fix>
</trkpt>
<trkpt lat="40.0731483" lon="-105.2304868">
  <ele>1643.23</ele>
  <time>2026-08-27T18:26:37Z</time>
  <course>12.92</course>
  <speed>8.50372271419994</speed>
  <fix>3d</fix>
</trkpt>
<trkpt lat="40.0731393" lon="-105.2304896">
  <ele>1644.42</ele>
  <time>2026-08-27T18:26:37Z</time>
  <course>13.49</course>
  <speed>8.46</speed>
  <fix>3d</fix>
</trkpt>
<trkpt lat="40.0731633" lon="-105.2304821">
  <ele>1641.8</ele>
  <time>2026-08-27T18:26:37Z</time>
  <course>12.82</course>
  <speed>8.646860702012031</speed>
  <fix>3d</fix>
</trkpt>
<trkpt lat="40.0731542" lon="-105.2304849">
  <ele>1643.01</ele>
  <time>2026-08-27T18:26:37Z</time>
  <course>13.45</course>
  <speed>8.6</speed>
  <fix>3d</fix>
</trkpt>
<trkpt lat="40.0731786" lon="-105.2304773">
  <ele>1640.37</ele>
  <time>2026-08-27T18:26:37Z</time>
  <course>12.75</course>
  <speed>8.79</speed>
  <fix>3d</fix>
</trkpt>
<trkpt lat="40.0731694" lon="-105.2304802">
  <ele>1641.58</ele>
  <time>2026-08-27T18:26:37Z</time>
  <course>13.41</course>
  <speed>8.74</speed>
  <fix>3d</fix>
</trkpt>
<trkpt lat="40.0731942" lon="-105.2304725">
  <ele>1638.92</ele>
  <time>2026-08-27T18:26:37Z</time>
  <course>12.65</course>
  <speed>8.921098587057537</speed>
  <fix>3d</fix>
</trkpt>
<trkpt lat="40.0731848" lon="-105.2304755">
  <ele>1640.13</ele>
  <time>2026-08-27T18:26:37Z</time>
  <course>13.36</course>
  <speed>8.87</speed>
  <fix>3d</fix>
</trkpt>
<trkpt lat="40.0732101" lon="-105.2304676">
  <ele>1637.46</ele>
  <time>2026-08-27T18:26:37Z</time>
  <course>12.56</course>
  <speed>9.052209674990964</speed>
  <fix>3d</fix>
</trkpt>
<trkpt lat="40.0732005" lon="-105.2304706">
  <ele>1638.67</ele>
  <time>2026-08-27T18:26:37Z</time>
  <course>13.31</course>
  <speed>9.01</speed>
  <fix>3d</fix>
</trkpt>
<trkpt lat="40.0732261" lon="-105.2304626">
  <ele>1635.98</ele>
  <time>2026-08-27T18:26:37Z</time>
  <course>12.47</course>
  <speed>9.185624638531666</speed>
  <fix>3d</fix>
</trkpt>
<trkpt lat="40.0732164" lon="-105.2304657">
  <ele>1637.21</ele>
  <time>2026-08-27T18:26:37Z</time>
  <course>13.26</course>
  <speed>9.13</speed>
  <fix>3d</fix>
</trkpt>
<trkpt lat="40.0732423" lon="-105.2304577">
  <ele>1634.5</ele>
  <time>2026-08-27T18:26:37Z</time>
  <course>12.42</course>
  <speed>9.307013484464283</speed>
  <fix>3d</fix>
</trkpt>
<trkpt lat="40.0732325" lon="-105.2304608">
  <ele>1635.74</ele>
  <time>2026-08-27T18:26:37Z</time>
  <course>13.2</course>
  <speed>9.26</speed>
  <fix>3d</fix>
</trkpt>
<trkpt lat="40.0732588" lon="-105.2304526">
  <ele>1633.01</ele>
  <time>2026-08-27T18:26:37Z</time>
  <course>12.34</course>
  <speed>9.426133884048115</speed>
  <fix>3d</fix>
</trkpt>
<trkpt lat="40.0732488" lon="-105.2304557">
  <ele>1634.25</ele>
  <time>2026-08-27T18:26:37Z</time>
  <course>13.14</course>
  <speed>9.38</speed>
  <fix>3d</fix>
</trkpt>
<trkpt lat="40.0732754" lon="-105.2304476">
  <ele>1631.51</ele>
  <time>2026-08-27T18:26:37Z</time>
  <course>12.22</course>
  <speed>9.547544186857687</speed>
  <fix>3d</fix>
</trkpt>
<trkpt lat="40.0732653" lon="-105.2304507">
  <ele>1632.76</ele>
  <time>2026-08-27T18:26:37Z</time>
  <course>13.09</course>
  <speed>9.5</speed>
  <fix>3d</fix>
</trkpt>
<trkpt lat="40.0732923" lon="-105.2304425">
  <ele>1630.0</ele>
  <time>2026-08-27T18:26:37Z</time>
  <course>12.12</course>
  <speed>9.656966397373452</speed>
  <fix>3d</fix>
</trkpt>
<trkpt lat="40.073282" lon="-105.2304456">
  <ele>1631.26</ele>
  <time>2026-08-27T18:26:37Z</time>
  <course>13.02</course>
  <speed>9.61</speed>
  <fix>3d</fix>
</trkpt>
<trkpt lat="40.0733093" lon="-105.2304374">
  <ele>1628.49</ele>
  <time>2026-08-27T18:26:37Z</time>
  <course>12.01</course>
  <speed>9.746917461433641</speed>
  <fix>3d</fix>
</trkpt>
<trkpt lat="40.0732989" lon="-105.2304405">
  <ele>1629.75</ele>
  <time>2026-08-27T18:26:37Z</time>
  <course>12.95</course>
  <speed>9.72</speed>
  <fix>3d</fix>
</trkpt>
<trkpt lat="40.0733266" lon="-105.2304322">
  <ele>1626.97</ele>
  <time>2026-08-27T18:26:37Z</time>
  <course>11.94</course>
  <speed>9.83687958653556</speed>
  <fix>3d</fix>
</trkpt>
<trkpt lat="40.073316" lon="-105.2304354">
  <ele>1628.24</ele>
  <time>2026-08-27T18:26:37Z</time>
  <course>12.88</course>
  <speed>9.81</speed>
  <fix>3d</fix>
</trkpt>
<trkpt lat="40.0733439" lon="-105.230427">
  <ele>1625.47</ele>
  <time>2026-08-27T18:26:37Z</time>
  <course>11.88</course>
  <speed>9.907350806345761</speed>
  <fix>3d</fix>
</trkpt>
<trkpt lat="40.0733333" lon="-105.2304303">
  <ele>1626.74</ele>
  <time>2026-08-27T18:26:37Z</time>
  <course>12.81</course>
  <speed>9.89</speed>
  <fix>3d</fix>
</trkpt>
<trkpt lat="40.0733614" lon="-105.2304219">
  <ele>1623.98</ele>
  <time>2026-08-27T18:26:37Z</time>
  <course>11.85</course>
  <speed>9.965861728922391</speed>
  <fix>3d</fix>
</trkpt>
<trkpt lat="40.0733507" lon="-105.2304251">
  <ele>1625.24</ele>
  <time>2026-08-27T18:26:37Z</time>
  <course>12.75</course>
  <speed>9.95</speed>
  <fix>3d</fix>
</trkpt>
<trkpt lat="40.0733791" lon="-105.2304167">
  <ele>1622.49</ele>
  <time>2026-08-27T18:26:37Z</time>
  <course>11.81</course>
  <speed>10.014634291875065</speed>
  <fix>3d</fix>
</trkpt>
<trkpt lat="40.0733682" lon="-105.23042">
  <ele>1623.76</ele>
  <time>2026-08-27T18:26:37Z</time>
  <course>12.69</course>
  <speed>10.01</speed>
  <fix>3d</fix>
</trkpt>
<trkpt lat="40.0733967" lon="-105.2304115">
  <ele>1621.01</ele>
  <time>2026-08-27T18:26:37Z</time>
  <course>11.77</course>
  <speed>10.053661024721293</speed>
  <fix>3d</fix>
</trkpt>
<trkpt lat="40.0733857" lon="-105.2304147">
  <ele>1622.28</ele>
  <time>2026-08-27T18:26:37Z</time>
  <course>12.65</course>
  <speed>10.05</speed>
  <fix>3d</fix>
</trkpt>
<trkpt lat="40.0734143" lon="-105.2304063">
  <ele>1619.55</ele>
  <time>2026-08-27T18:26:37Z</time>
  <course>11.77</course>
  <speed>10.085122706244084</speed>
  <fix>3d</fix>
</trkpt>
<trkpt lat="40.0734034" lon="-105.2304096">
  <ele>1620.82</ele>
  <time>2026-08-27T18:26:37Z</time>
  <course>12.61</course>
  <speed>10.09</speed>
  <fix>3d</fix>
</trkpt>
<trkpt lat="40.073432" lon="-105.2304012">
  <ele>1618.09</ele>
  <time>2026-08-27T18:26:37Z</time>
  <course>11.76</course>
  <speed>10.104637549165234</speed>
  <fix>3d</fix>
</trkpt>
<trkpt lat="40.0734212" lon="-105.2304044">
  <ele>1619.37</ele>
  <time>2026-08-27T18:26:37Z</time>
  <course>12.58</course>
  <speed>10.12</speed>
  <fix>3d</fix>
</trkpt>
<trkpt lat="40.0734497" lon="-105.230396">
  <ele>1616.65</ele>
  <time>2026-08-27T18:26:37Z</time>
  <course>11.76</course>
  <speed>10.121976091653249</speed>
  <fix>3d</fix>
</trkpt>
<trkpt lat="40.0734389" lon="-105.2303992">
  <ele>1617.93</ele>
  <time>2026-08-27T18:26:37Z</time>
  <course>12.55</course>
  <speed>10.14</speed>
  <fix>3d</fix>
</trkpt>
<trkpt lat="40.0734675" lon="-105.2303909">
  <ele>1615.23</ele>
  <time>2026-08-27T18:26:37Z</time>
  <course>11.76</course>
  <speed>10.13173726465506</speed>
  <fix>3d</fix>
</trkpt>
<trkpt lat="40.0734568" lon="-105.2303941">
  <ele>1616.51</ele>
  <time>2026-08-27T18:26:37Z</time>
  <course>12.53</course>
  <speed>10.15</speed>
  <fix>3d</fix>
</trkpt>
<trkpt lat="40.0734853" lon="-105.2303857">
  <ele>1613.8</ele>
  <time>2026-08-27T18:26:37Z</time>
  <course>11.73</course>
  <speed>10.141498903022176</speed>
  <fix>3d</fix>
</trkpt>
<trkpt lat="40.0734746" lon="-105.2303889">
  <ele>1615.09</ele>
  <time>2026-08-27T18:26:37Z</time>
  <course>12.52</course>
  <speed>10.16</speed>
  <fix>3d</fix>
</trkpt>
<trkpt lat="40.0735032" lon="-105.2303805">
  <ele>1612.38</ele>
  <time>2026-08-27T18:26:37Z</time>
  <course>11.7</course>
  <speed>10.141498903022176</speed>
  <fix>3d</fix>
</trkpt>
<trkpt lat="40.0734923" lon="-105.2303837">
  <ele>1613.67</ele>
  <time>2026-08-27T18:26:37Z</time>
  <course>12.5</course>
  <speed>10.17</speed>
  <fix>3d</fix>
</trkpt>
<trkpt lat="40.0735211" lon="-105.2303753">
  <ele>1610.97</ele>
  <time>2026-08-27T18:26:37Z</time>
  <course>11.66</course>
  <speed>10.151261005412087</speed>
  <fix>3d</fix>
</trkpt>
<trkpt lat="40.0735102" lon="-105.2303786">
  <ele>1612.27</ele>
  <time>2026-08-27T18:26:37Z</time>
  <course>12.49</course>
  <speed>10.17</speed>
  <fix>3d</fix>
</trkpt>
<trkpt lat="40.0735389" lon="-105.2303702">
  <ele>1609.57</ele>
  <time>2026-08-27T18:26:37Z</time>
  <course>11.62</course>
  <speed>10.149098482131306</speed>
  <fix>3d</fix>
</trkpt>
<trkpt lat="40.0735281" lon="-105.2303733">
  <ele>1610.86</ele>
  <time>2026-08-27T18:26:37Z</time>
  <course>12.47</course>
  <speed>10.17</speed>
  <fix>3d</fix>
</trkpt>
<trkpt lat="40.0735568" lon="-105.230365">
  <ele>1608.18</ele>
  <time>2026-08-27T18:26:37Z</time>
  <course>11.57</course>
  <speed>10.149098482131306</speed>
  <fix>3d</fix>
</trkpt>
<trkpt lat="40.0735459" lon="-105.2303682">
  <ele>1609.46</ele>
  <time>2026-08-27T18:26:37Z</time>
  <course>12.45</course>
  <speed>10.17</speed>
  <fix>3d</fix>
</trkpt>
<trkpt lat="40.0735747" lon="-105.2303599">
  <ele>1606.79</ele>
  <time>2026-08-27T18:26:37Z</time>
  <course>11.54</course>
  <speed>10.149098482131306</speed>
  <fix>3d</fix>
</trkpt>
<trkpt lat="40.0735638" lon="-105.230363">
  <ele>1608.07</ele>
  <time>2026-08-27T18:26:37Z</time>
  <course>12.44</course>
  <speed>10.16</speed>
  <fix>3d</fix>
</trkpt>
<trkpt lat="40.0735925" lon="-105.2303547">
  <ele>1605.4</ele>
  <time>2026-08-27T18:26:37Z</time>
  <course>11.51</course>
  <speed>10.137179094797526</speed>
  <fix>3d</fix>
</trkpt>
<trkpt lat="40.0735817" lon="-105.2303579">
  <ele>1606.67</ele>
  <time>2026-08-27T18:26:37Z</time>
  <course>12.42</course>
  <speed>10.16</speed>
  <fix>3d</fix>
</trkpt>
<trkpt lat="40.0736103" lon="-105.2303496">
  <ele>1604.01</ele>
  <time>2026-08-27T18:26:37Z</time>
  <course>11.46</course>
  <speed>10.137179094797526</speed>
  <fix>3d</fix>
</trkpt>
<trkpt lat="40.0735995" lon="-105.2303528">
  <ele>1605.28</ele>
  <time>2026-08-27T18:26:37Z</time>
  <course>12.39</course>
  <speed>10.15</speed>
  <fix>3d</fix>
</trkpt>
<trkpt lat="40.0736281" lon="-105.2303445">
  <ele>1602.62</ele>
  <time>2026-08-27T18:26:37Z</time>
  <course>11.42</course>
  <speed>10.1350333003893</speed>
  <fix>3d</fix>
</trkpt>
<trkpt lat="40.0736172" lon="-105.2303477">
  <ele>1603.89</ele>
  <time>2026-08-27T18:26:37Z</time>
  <course>12.37</course>
  <speed>10.14</speed>
  <fix>3d</fix>
</trkpt>
<trkpt lat="40.0736459" lon="-105.2303394">
  <ele>1601.23</ele>
  <time>2026-08-27T18:26:37Z</time>
  <course>11.37</course>
  <speed>10.125265428619636</speed>
  <fix>3d</fix>
</trkpt>
<trkpt lat="40.0736351" lon="-105.2303426">
  <ele>1602.5</ele>
  <time>2026-08-27T18:26:37Z</time>
  <course>12.34</course>
  <speed>10.14</speed>
  <fix>3d</fix>
</trkpt>
<trkpt lat="40.0736637" lon="-105.2303344">
  <ele>1599.84</ele>
  <time>2026-08-27T18:26:37Z</time>
  <course>11.33</course>
  <speed>10.12312698725053</speed>
  <fix>3d</fix>
</trkpt>
<trkpt lat="40.0736529" lon="-105.2303375">
  <ele>1601.11</ele>
  <time>2026-08-27T18:26:37Z</time>
  <course>12.31</course>
  <speed>10.13</speed>
  <fix>3d</fix>
</trkpt>
<trkpt lat="40.0736815" lon="-105.2303293">
  <ele>1598.44</ele>
  <time>2026-08-27T18:26:37Z</time>
  <course>11.29</course>
  <speed>10.111226434018773</speed>
  <fix>3d</fix>
</trkpt>
<trkpt lat="40.0736706" lon="-105.2303325">
  <ele>1599.72</ele>
  <time>2026-08-27T18:26:37Z</time>
  <course>12.27</course>
  <speed>10.13</speed>
  <fix>3d</fix>
</trkpt>
<trkpt lat="40.0736993" lon="-105.2303243">
  <ele>1597.05</ele>
  <time>2026-08-27T18:26:37Z</time>
  <course>11.25</course>
  <speed>10.109104807053887</speed>
  <fix>3d</fix>
</trkpt>
<trkpt lat="40.0736884" lon="-105.2303274">
  <ele>1598.32</ele>
  <time>2026-08-27T18:26:37Z</time>
  <course>12.24</course>
  <speed>10.12</speed>
  <fix>3d</fix>
</trkpt>
<trkpt lat="40.0737171" lon="-105.2303192">
  <ele>1595.66</ele>
  <time>2026-08-27T18:26:37Z</time>
  <course>11.21</course>
  <speed>10.109104807053887</speed>
  <fix>3d</fix>
</trkpt>
<trkpt lat="40.0737062" lon="-105.2303224">
  <ele>1596.92</ele>
  <time>2026-08-27T18:26:37Z</time>
  <course>12.2</course>
  <speed>10.12</speed>
  <fix>3d</fix>
</trkpt>
<trkpt lat="40.0737349" lon="-105.2303142">
  <ele>1594.26</ele>
  <time>2026-08-27T18:26:37Z</time>
  <course>11.13</course>
  <speed>10.106992628868392</speed>
  <fix>3d</fix>
</trkpt>
<trkpt lat="40.073724" lon="-105.2303173">
  <ele>1595.52</ele>
  <time>2026-08-27T18:26:37Z</time>
  <course>12.16</course>
  <speed>10.11</speed>
  <fix>3d</fix>
</trkpt>
<trkpt lat="40.0737528" lon="-105.2303092">
  <ele>1592.85</ele>
  <time>2026-08-27T18:26:37Z</time>
  <course>11.1</course>
  <speed>10.104889905387392</speed>
  <fix>3d</fix>
</trkpt>
<trkpt lat="40.0737417" lon="-105.2303124">
  <ele>1594.12</ele>
  <time>2026-08-27T18:26:37Z</time>
  <course>12.12</course>
  <speed>10.11</speed>
  <fix>3d</fix>
</trkpt>
<trkpt lat="40.0737706" lon="-105.2303042">
  <ele>1591.45</ele>
  <time>2026-08-27T18:26:37Z</time>
  <course>11.05</course>
  <speed>10.102796642514388</speed>
  <fix>3d</fix>
</trkpt>
<trkpt lat="40.0737595" lon="-105.2303073">
  <ele>1592.71</ele>
  <time>2026-08-27T18:26:37Z</time>
  <course>12.07</course>
  <speed>10.1</speed>
  <fix>3d</fix>
</trkpt>
<trkpt lat="40.0737884" lon="-105.2302993">
  <ele>1590.03</ele>
  <time>2026-08-27T18:26:37Z</time>
  <course>11.01</course>
  <speed>10.102796642514388</speed>
  <fix>3d</fix>
</trkpt>
<trkpt lat="40.0737773" lon="-105.2303024">
  <ele>1591.31</ele>
  <time>2026-08-27T18:26:37Z</time>
  <course>12.03</course>
  <speed>10.1</speed>
  <fix>3d</fix>
</trkpt>
<trkpt lat="40.0738062" lon="-105.2302943">
  <ele>1588.62</ele>
  <time>2026-08-27T18:26:37Z</time>
  <course>10.98</course>
  <speed>10.100712846131207</speed>
  <fix>3d</fix>
</trkpt>
<trkpt lat="40.073795" lon="-105.2302975">
  <ele>1589.9</ele>
  <time>2026-08-27T18:26:37Z</time>
  <course>11.98</course>
  <speed>10.1</speed>
  <fix>3d</fix>
</trkpt>
<trkpt lat="40.073824" lon="-105.2302894">
  <ele>1587.2</ele>
  <time>2026-08-27T18:26:37Z</time>
  <course>10.94</course>
  <speed>10.098638522097918</speed>
  <fix>3d</fix>
</trkpt>
<trkpt lat="40.0738128" lon="-105.2302926">
  <ele>1588.49</ele>
  <time>2026-08-27T18:26:37Z</time>
  <course>11.93</course>
  <speed>10.09</speed>
  <fix>3d</fix>
</trkpt>
<trkpt lat="40.0738417" lon="-105.2302845">
  <ele>1585.78</ele>
  <time>2026-08-27T18:26:37Z</time>
  <course>10.91</course>
  <speed>10.096573676252751</speed>
  <fix>3d</fix>
</trkpt>
<trkpt lat="40.0738305" lon="-105.2302877">
  <ele>1587.07</ele>
  <time>2026-08-27T18:26:37Z</time>
  <course>11.88</course>
  <speed>10.09</speed>
  <fix>3d</fix>
</trkpt>
<trkpt lat="40.0738595" lon="-105.2302797">
  <ele>1584.36</ele>
  <time>2026-08-27T18:26:37Z</time>
  <course>10.87</course>
  <speed>10.094518314412035</speed>
  <fix>3d</fix>
</trkpt>
<trkpt lat="40.0738482" lon="-105.2302828">
  <ele>1585.65</ele>
  <time>2026-08-27T18:26:37Z</time>
  <course>11.83</course>
  <speed>10.09</speed>
  <fix>3d</fix>
</trkpt>
<trkpt lat="40.073876" lon="-105.2302752">
  <ele>1583.04</ele>
  <time>2026-08-27T18:26:37Z</time>
  <course>10.92</course>
  <speed>4.712886588917667</speed>
  <fix>3d</fix>
</trkpt>
<trkpt lat="40.073866" lon="-105.230278">
  <ele>1584.24</ele>
  <time>2026-08-27T18:26:37Z</time>
  <course>11.78</course>
  <speed>9.92</speed>
  <fix>3d</fix>
</trkpt>
<trkpt lat="40.0738751" lon="-105.2302758">
  <ele>1583.13</ele>
  <time>2026-08-27T18:26:37Z</time>
  <course>10.94</course>
  <speed>2.894304752440558</speed>
  <fix>3d</fix>
</trkpt>
<trkpt lat="40.0738765" lon="-105.2302751">
  <ele>1583.4</ele>
  <time>2026-08-27T18:26:37Z</time>
  <course>11.64</course>
  <speed>3.5</speed>
  <fix>3d</fix>
</trkpt>
<trkpt lat="40.0738749" lon="-105.2302761">
  <ele>1583.29</ele>
  <time>2026-08-27T18:26:37Z</time>
  <course>10.98</course>
  <speed>0.12206555615733702</speed>
  <fix>3d</fix>
</trkpt>
<trkpt lat="40.0738762" lon="-105.2302752">
  <ele>1583.43</ele>
  <time>2026-08-27T18:26:37Z</time>
  <course>192.01</course>
  <speed>1.85</speed>
  <fix>3d</fix>
</trkpt>
<trkpt lat="40.0738772" lon="-105.2302754">
  <ele>1583.22</ele>
  <time>2026-08-27T18:26:37Z</time>
  <course>10.78</course>
  <speed>0.87692645073575</speed>
  <fix>3d</fix>
</trkpt>
<trkpt lat="40.0738742" lon="-105.2302758">
  <ele>1583.59</ele>
  <time>2026-08-27T18:26:37Z</time>
  <course>191.95</course>
  <speed>0.23</speed>
  <fix>3d</fix>
</trkpt>
<trkpt lat="40.0738781" lon="-105.2302751">
  <ele>1583.2</ele>
  <time>2026-08-27T18:26:37Z</time>
  <course>10.7</course>
  <speed>0.43185645763378366</speed>
  <fix>3d</fix>
</trkpt>
<trkpt lat="40.0738745" lon="-105.2302757">
  <ele>1583.57</ele>
  <time>2026-08-27T18:26:37Z</time>
  <course>11.92</course>
  <speed>0.27</speed>
  <fix>3d</fix>
</trkpt>
<trkpt lat="40.0738782" lon="-105.2302749">
  <ele>1583.22</ele>
  <time>2026-08-27T18:26:37Z</time>
  <course>10.71</course>
  <speed>0.3522782990761707</speed>
  <fix>3d</fix>
</trkpt>
<trkpt lat="40.0738747" lon="-105.2302756">
  <ele>1583.55</ele>
  <time>2026-08-27T18:26:37Z</time>
  <course>0.79</course>
  <speed>0.0</speed>
  <fix>3d</fix>
</trkpt>
<trkpt lat="40.0738781" lon="-105.2302749">
  <ele>1583.24</ele>
  <time>2026-08-27T18:26:37Z</time>
  <course>10.73</course>
  <speed>0.37483329627982626</speed>
  <fix>3d</fix>
</trkpt>
<trkpt lat="40.0738747" lon="-105.2302756">
  <ele>1583.55</ele>
  <time>2026-08-27T18:26:37Z</time>
  <course>192.39</course>
  <speed>0.03</speed>
  <fix>3d</fix>
</trkpt>
<trkpt lat="40.073878" lon="-105.2302748">
  <ele>1583.25</ele>
  <time>2026-08-27T18:26:37Z</time>
  <course>10.74</course>
  <speed>0.33734255586865997</speed>
  <fix>3d</fix>
</trkpt>
<trkpt lat="40.0738747" lon="-105.2302756">
  <ele>1583.56</ele>
  <time>2026-08-27T18:26:37Z</time>
  <course>17.28</course>
  <speed>0.0</speed>
  <fix>3d</fix>
</trkpt>
<trkpt lat="40.0738777" lon="-105.2302748">
  <ele>1583.27</ele>
  <time>2026-08-27T18:26:37Z</time>
  <course>10.75</course>
  <speed>0.28861739379323625</speed>
  <fix>3d</fix>
</trkpt>
<trkpt lat="40.0738747" lon="-105.2302756">
  <ele>1583.56</ele>
  <time>2026-08-27T18:26:37Z</time>
  <course>46.0</course>
  <speed>0.0</speed>
  <fix>3d</fix>
</trkpt>
<trkpt lat="40.0738775" lon="-105.2302748">
  <ele>1583.29</ele>
  <time>2026-08-27T18:26:37Z</time>
  <course>10.76</course>
  <speed>0.24738633753705963</speed>
  <fix>3d</fix>
</trkpt>
<trkpt lat="40.0738747" lon="-105.2302756">
  <ele>1583.56</ele>
  <time>2026-08-27T18:26:37Z</time>
  <course>121.32</course>
  <speed>0.0</speed>
  <fix>3d</fix>
</trkpt>
<trkpt lat="40.0738772" lon="-105.2302749">
  <ele>1583.31</ele>
  <time>2026-08-27T18:26:37Z</time>
  <course>10.76</course>
  <speed>0.21840329667841554</speed>
  <fix>3d</fix>
</trkpt>
<trkpt lat="40.0738747" lon="-105.2302756">
  <ele>1583.56</ele>
  <time>2026-08-27T18:26:37Z</time>
  <course>71.72</course>
  <speed>0.0</speed>
  <fix>3d</fix>
</trkpt>
<trkpt lat="40.073877" lon="-105.2302749">
  <ele>1583.32</ele>
  <time>2026-08-27T18:26:37Z</time>
  <course>10.77</course>
  <speed>0.18973665961010278</speed>
  <fix>3d</fix>
</trkpt>
<trkpt lat="40.0738747" lon="-105.2302756">
  <ele>1583.56</ele>
  <time>2026-08-27T18:26:37Z</time>
  <course>353.77</course>
  <speed>0.0</speed>
  <fix>3d</fix>
</trkpt>
<trkpt lat="40.0738768" lon="-105.2302749">
  <ele>1583.32</ele>
  <time>2026-08-27T18:26:37Z</time>
  <course>10.77</course>
  <speed>0.15811388300841897</speed>
  <fix>3d</fix>
</trkpt>
<trkpt lat="40.0738747" lon="-105.2302756">
  <ele>1583.56</ele>
  <time>2026-08-27T18:26:37Z</time>
  <course>355.74</course>
  <speed>0.0</speed>
  <fix>3d</fix>
</trkpt>
<trkpt lat="40.0738766" lon="-105.230275">
  <ele>1583.33</ele>
  <time>2026-08-27T18:26:37Z</time>
  <course>10.78</course>
  <speed>0.13</speed>
  <fix>3d</fix>
</trkpt>
<trkpt lat="40.0738747" lon="-105.2302756">
  <ele>1583.56</ele>
  <time>2026-08-27T18:26:37Z</time>
  <course>312.19</course>
  <speed>0.0</speed>
  <fix>3d</fix>
</trkpt>
<trkpt lat="40.0738765" lon="-105.230275">
  <ele>1583.33</ele>
  <time>2026-08-27T18:26:37Z</time>
  <course>10.78</course>
  <speed>0.1118033988749895</speed>
  <fix>3d</fix>
</trkpt>
<trkpt lat="40.0738747" lon="-105.2302756">
  <ele>1583.56</ele>
  <time>2026-08-27T18:26:37Z</time>
  <course>286.44</course>
  <speed>0.0</speed>
  <fix>3d</fix>
</trkpt>
<trkpt lat="40.0738763" lon="-105.230275">
  <ele>1583.33</ele>
  <time>2026-08-27T18:26:37Z</time>
  <course>10.79</course>
  <speed>0.09433981132056603</speed>
  <fix>3d</fix>
</trkpt>
<trkpt lat="40.0738747" lon="-105.2302756">
  <ele>1583.56</ele>
  <time>2026-08-27T18:26:37Z</time>
  <course>281.72</course>
  <speed>0.0</speed>
  <fix>3d</fix>
</trkpt>
<trkpt lat="40.0738761" lon="-105.230275">
  <ele>1583.34</ele>
  <time>2026-08-27T18:26:37Z</time>
  <course>10.79</course>
  <speed>0.07810249675906654</speed>
  <fix>3d</fix>
</trkpt>
<trkpt lat="40.0738747" lon="-105.2302756">
  <ele>1583.56</ele>
  <time>2026-08-27T18:26:37Z</time>
  <course>278.65</course>
  <speed>0.0</speed>
  <fix>3d</fix>
</trkpt>
<trkpt lat="40.073876" lon="-105.2302751">
  <ele>1583.34</ele>
  <time>2026-08-27T18:26:37Z</time>
  <course>10.79</course>
  <speed>0.0565685424949238</speed>
  <fix>3d</fix>
</trkpt>
<trkpt lat="40.0738747" lon="-105.2302756">
  <ele>1583.56</ele>
  <time>2026-08-27T18:26:37Z</time>
  <course>280.14</course>
  <speed>0.0</speed>
  <fix>3d</fix>
</trkpt>
<trkpt lat="40.0738758" lon="-105.2302751">
  <ele>1583.34</ele>
  <time>2026-08-27T18:26:37Z</time>
  <course>10.79</course>
  <speed>0.05</speed>
  <fix>3d</fix>
</trkpt>
<trkpt lat="40.0738747" lon="-105.2302756">
  <ele>1583.56</ele>
  <time>2026-08-27T18:26:37Z</time>
  <course>303.22</course>
  <speed>0.0</speed>
  <fix>3d</fix>
</trkpt>
<trkpt lat="40.0738757" lon="-105.2302751">
  <ele>1583.34</ele>
  <time>2026-08-27T18:26:37Z</time>
  <course>10.79</course>
  <speed>0.0412310562561766</speed>
  <fix>3d</fix>
</trkpt>
<trkpt lat="40.0738747" lon="-105.2302756">
  <ele>1583.56</ele>
  <time>2026-08-27T18:26:37Z</time>
  <course>334.64</course>
  <speed>0.0</speed>
  <fix>3d</fix>
</trkpt>
<trkpt lat="40.0738756" lon="-105.2302751">
  <ele>1583.35</ele>
  <time>2026-08-27T18:26:37Z</time>
  <course>10.79</course>
  <speed>0.04</speed>
  <fix>3d</fix>
</trkpt>
<trkpt lat="40.0738747" lon="-105.2302756">
  <ele>1583.56</ele>
  <time>2026-08-27T18:26:37Z</time>
  <course>332.36</course>
  <speed>0.0</speed>
  <fix>3d</fix>
</trkpt>
<trkpt lat="40.0738754" lon="-105.2302751">
  <ele>1583.35</ele>
  <time>2026-08-27T18:26:37Z</time>
  <course>10.79</course>
  <speed>0.04</speed>
  <fix>3d</fix>
</trkpt>
<trkpt lat="40.0738747" lon="-105.2302756">
  <ele>1583.56</ele>
  <time>2026-08-27T18:26:37Z</time>
  <course>332.91</course>
  <speed>0.0</speed>
  <fix>3d</fix>
</trkpt>
<trkpt lat="40.0738753" lon="-105.2302752">
  <ele>1583.36</ele>
  <time>2026-08-27T18:26:37Z</time>
  <course>10.78</course>
  <speed>0.0412310562561766</speed>
  <fix>3d</fix>
</trkpt>
<trkpt lat="40.0738747" lon="-105.2302756">
  <ele>1583.56</ele>
  <time>2026-08-27T18:26:37Z</time>
  <course>342.16</course>
  <speed>0.0</speed>
  <fix>3d</fix>
</trkpt>
<trkpt lat="40.0738752" lon="-105.2302752">
  <ele>1583.37</ele>
  <time>2026-08-27T18:26:37Z</time>
  <course>10.78</course>
  <speed>0.03605551275463989</speed>
  <fix>3d</fix>
</trkpt>
<trkpt lat="40.0738747" lon="-105.2302756">
  <ele>1583.56</ele>
  <time>2026-08-27T18:26:37Z</time>
  <course>340.87</course>
  <speed>0.0</speed>
  <fix>3d</fix>
</trkpt>
<trkpt lat="40.0738751" lon="-105.2302752">
  <ele>1583.37</ele>
  <time>2026-08-27T18:26:37Z</time>
  <course>10.77</course>
  <speed>0.04242640687119285</speed>
  <fix>3d</fix>
</trkpt>
<trkpt lat="40.0738747" lon="-105.2302756">
  <ele>1583.56</ele>
  <time>2026-08-27T18:26:37Z</time>
  <course>334.91</course>
  <speed>0.0</speed>
  <fix>3d</fix>
</trkpt>
<trkpt lat="40.073875" lon="-105.2302752">
  <ele>1583.38</ele>
  <time>2026-08-27T18:26:37Z</time>
  <course>10.77</course>
  <speed>0.04242640687119285</speed>
  <fix>3d</fix>
</trkpt>
<trkpt lat="40.0738747" lon="-105.2302756">
  <ele>1583.56</ele>
  <time>2026-08-27T18:26:37Z</time>
  <course>331.17</course>
  <speed>0.0</speed>
  <fix>3d</fix>
</trkpt>
<trkpt lat="40.0738749" lon="-105.2302752">
  <ele>1583.39</ele>
  <time>2026-08-27T18:26:37Z</time>
  <course>10.76</course>
  <speed>0.05</speed>
  <fix>3d</fix>
</trkpt>
<trkpt lat="40.0738747" lon="-105.2302756">
  <ele>1583.56</ele>
  <time>2026-08-27T18:26:37Z</time>
  <course>334.94</course>
  <speed>0.0</speed>
  <fix>3d</fix>
</trkpt>
<trkpt lat="40.0738749" lon="-105.2302752">
  <ele>1583.39</ele>
  <time>2026-08-27T18:26:37Z</time>
  <course>10.76</course>
  <speed>0.05</speed>
  <fix>3d</fix>
</trkpt>
<trkpt lat="40.0738747" lon="-105.2302756">
  <ele>1583.56</ele>
  <time>2026-08-27T18:26:37Z</time>
  <course>340.88</course>
  <speed>0.0</speed>
  <fix>3d</fix>
</trkpt>
<trkpt lat="40.0738748" lon="-105.2302752">
  <ele>1583.4</ele>
  <time>2026-08-27T18:26:37Z</time>
  <course>10.75</course>
  <speed>0.053851648071345036</speed>
  <fix>3d</fix>
</trkpt>
<trkpt lat="40.0738747" lon="-105.2302756">
  <ele>1583.56</ele>
  <time>2026-08-27T18:26:37Z</time>
  <course>342.11</course>
  <speed>0.0</speed>
  <fix>3d</fix>
</trkpt>
<trkpt lat="40.0738747" lon="-105.2302752">
  <ele>1583.4</ele>
  <time>2026-08-27T18:26:37Z</time>
  <course>10.74</course>
  <speed>0.053851648071345036</speed>
  <fix>3d</fix>
</trkpt>
<trkpt lat="40.0738747" lon="-105.2302756">
  <ele>1583.56</ele>
  <time>2026-08-27T18:26:37Z</time>
  <course>335.01</course>
  <speed>0.0</speed>
  <fix>3d</fix>
</trkpt>
<trkpt lat="40.0738747" lon="-105.2302752">
  <ele>1583.41</ele>
  <time>2026-08-27T18:26:37Z</time>
  <course>10.74</course>
  <speed>0.053851648071345036</speed>
  <fix>3d</fix>
</trkpt>
<trkpt lat="40.0738747" lon="-105.2302756">
  <ele>1583.56</ele>
  <time>2026-08-27T18:26:37Z</time>
  <course>334.43</course>
  <speed>0.0</speed>
  <fix>3d</fix>
</trkpt>
<trkpt lat="40.0738746" lon="-105.2302752">
  <ele>1583.42</ele>
  <time>2026-08-27T18:26:37Z</time>
  <course>10.73</course>
  <speed>0.0632455532033676</speed>
  <fix>3d</fix>
</trkpt>
<trkpt lat="40.0738747" lon="-105.2302756">
  <ele>1583.56</ele>
  <time>2026-08-27T18:26:37Z</time>
  <course>340.37</course>
  <speed>0.0</speed>
  <fix>3d</fix>
</trkpt>
<trkpt lat="40.0738746" lon="-105.2302752">
  <ele>1583.42</ele>
  <time>2026-08-27T18:26:37Z</time>
  <course>10.73</course>
  <speed>0.0632455532033676</speed>
  <fix>3d</fix>
</trkpt>
<trkpt lat="40.0738747" lon="-105.2302756">
  <ele>1583.56</ele>
  <time>2026-08-27T18:26:37Z</time>
  <course>191.64</course>
  <speed>0.0</speed>
  <fix>3d</fix>
</trkpt>
<trkpt lat="40.0738745" lon="-105.2302753">
  <ele>1583.43</ele>
  <time>2026-08-27T18:26:37Z</time>
  <course>10.72</course>
  <speed>0.0632455532033676</speed>
  <fix>3d</fix>
</trkpt>
<trkpt lat="40.0738747" lon="-105.2302756">
  <ele>1583.56</ele>
  <time>2026-08-27T18:26:37Z</time>
  <course>164.0</course>
  <speed>0.0</speed>
  <fix>3d</fix>
</trkpt>
<trkpt lat="40.0738745" lon="-105.2302753">
  <ele>1583.44</ele>
  <time>2026-08-27T18:26:37Z</time>
  <course>10.72</course>
  <speed>0.0632455532033676</speed>
  <fix>3d</fix>
</trkpt>
<trkpt lat="40.0738747" lon="-105.2302756">
  <ele>1583.56</ele>
  <time>2026-08-27T18:26:37Z</time>
  <course>153.71</course>
  <speed>0.0</speed>
  <fix>3d</fix>
</trkpt>
<trkpt lat="40.0738745" lon="-105.2302753">
  <ele>1583.44</ele>
  <time>2026-08-27T18:26:37Z</time>
  <course>10.72</course>
  <speed>0.0632455532033676</speed>
  <fix>3d</fix>
</trkpt>
<trkpt lat="40.0738747" lon="-105.2302756">
  <ele>1583.56</ele>
  <time>2026-08-27T18:26:37Z</time>
  <course>141.6</course>
  <speed>0.0</speed>
  <fix>3d</fix>
</trkpt>
<trkpt lat="40.0738745" lon="-105.2302753">
  <ele>1583.44</ele>
  <time>2026-08-27T18:26:37Z</time>
  <course>10.71</course>
  <speed>0.06082762530298219</speed>
  <fix>3d</fix>
</trkpt>
<trkpt lat="40.0738747" lon="-105.2302756">
  <ele>1583.56</ele>
  <time>2026-08-27T18:26:37Z</time>
  <course>29.72</course>
  <speed>0.0</speed>
  <fix>3d</fix>
</trkpt>
<trkpt lat="40.0738745" lon="-105.2302753">
  <ele>1583.45</ele>
  <time>2026-08-27T18:26:37Z</time>
  <course>10.71</course>
  <speed>0.06082762530298219</speed>
  <fix>3d</fix>
</trkpt>
<trkpt lat="40.0738747" lon="-105.2302756">
  <ele>1583.56</ele>
  <time>2026-08-27T18:26:37Z</time>
  <course>335.64</course>
  <speed>0.0</speed>
  <fix>3d</fix>
</trkpt>
<trkpt lat="40.0738744" lon="-105.2302753">
  <ele>1583.45</ele>
  <time>2026-08-27T18:26:37Z</time>
  <course>10.71</course>
  <speed>0.05099019513592785</speed>
  <fix>3d</fix>
</trkpt>
<trkpt lat="40.0738747" lon="-105.2302756">
  <ele>1583.56</ele>
  <time>2026-08-27T18:26:37Z</time>
  <course>345.39</course>
  <speed>0.0</speed>
  <fix>3d</fix>
</trkpt>
<trkpt lat="40.0738744" lon="-105.2302753">
  <ele>1583.46</ele>
  <time>2026-08-27T18:26:37Z</time>
  <course>10.71</course>
  <speed>0.05099019513592785</speed>
  <fix>3d</fix>
</trkpt>
<trkpt lat="40.0738747" lon="-105.2302756">
  <ele>1583.56</ele>
  <time>2026-08-27T18:26:37Z</time>
  <course>342.54</course>
  <speed>0.0</speed>
  <fix>3d</fix>
</trkpt>
<trkpt lat="40.0738744" lon="-105.2302753">
  <ele>1583.47</ele>
  <time>2026-08-27T18:26:37Z</time>
  <course>10.71</course>
  <speed>0.05099019513592785</speed>
  <fix>3d</fix>
</trkpt>
<trkpt lat="40.0738747" lon="-105.2302756">
  <ele>1583.56</ele>
  <time>2026-08-27T18:26:37Z</time>
  <course>338.05</course>
  <speed>0.0</speed>
  <fix>3d</fix>
</trkpt>
<trkpt lat="40.0738744" lon="-105.2302754">
  <ele>1583.47</ele>
  <time>2026-08-27T18:26:37Z</time>
  <course>10.71</course>
  <speed>0.05099019513592785</speed>
  <fix>3d</fix>
</trkpt>
<trkpt lat="40.0738747" lon="-105.2302756">
  <ele>1583.56</ele>
  <time>2026-08-27T18:26:37Z</time>
  <course>336.34</course>
  <speed>0.0</speed>
  <fix>3d</fix>
</trkpt>
<trkpt lat="40.0738744" lon="-105.2302754">
  <ele>1583.47</ele>
  <time>2026-08-27T18:26:37Z</time>
  <course>10.7</course>
  <speed>0.05099019513592785</speed>
  <fix>3d</fix>
</trkpt>
<trkpt lat="40.0738747" lon="-105.2302756">
  <ele>1583.56</ele>
  <time>2026-08-27T18:26:37Z</time>
  <course>336.41</course>
  <speed>0.0</speed>
  <fix>3d</fix>
</trkpt>
<trkpt lat="40.0738744" lon="-105.2302754">
  <ele>1583.48</ele>
  <time>2026-08-27T18:26:37Z</time>
  <course>10.7</course>
  <speed>0.05099019513592785</speed>
  <fix>3d</fix>
</trkpt>
<trkpt lat="40.0738747" lon="-105.2302756">
  <ele>1583.56</ele>
  <time>2026-08-27T18:26:37Z</time>
  <course>335.68</course>
  <speed>0.0</speed>
  <fix>3d</fix>
</trkpt>
<trkpt lat="40.0738744" lon="-105.2302754">
  <ele>1583.48</ele>
  <time>2026-08-27T18:26:37Z</time>
  <course>10.7</course>
  <speed>0.0412310562561766</speed>
  <fix>3d</fix>
</trkpt>
<trkpt lat="40.0738747" lon="-105.2302756">
  <ele>1583.56</ele>
  <time>2026-08-27T18:26:37Z</time>
  <course>339.83</course>
  <speed>0.0</speed>
  <fix>3d</fix>
</trkpt>
<trkpt lat="40.0738744" lon="-105.2302754">
  <ele>1583.49</ele>
  <time>2026-08-27T18:26:37Z</time>
  <course>10.71</course>
  <speed>0.0412310562561766</speed>
  <fix>3d</fix>
</trkpt>
<trkpt lat="40.0738747" lon="-105.2302756">
  <ele>1583.56</ele>
  <time>2026-08-27T18:26:37Z</time>
  <course>338.41</course>
  <speed>0.0</speed>
  <fix>3d</fix>
</trkpt>
<trkpt lat="40.0738744" lon="-105.2302754">
  <ele>1583.49</ele>
  <time>2026-08-27T18:26:37Z</time>
  <course>10.71</course>
  <speed>0.0412310562561766</speed>
  <fix>3d</fix>
</trkpt>
<trkpt lat="40.0738747" lon="-105.2302756">
  <ele>1583.56</ele>
  <time>2026-08-27T18:26:37Z</time>
  <course>332.89</course>
  <speed>0.0</speed>
  <fix>3d</fix>
</trkpt>
<trkpt lat="40.0738744" lon="-105.2302754">
  <ele>1583.49</ele>
  <time>2026-08-27T18:26:37Z</time>
  <course>10.71</course>
  <speed>0.0412310562561766</speed>
  <fix>3d</fix>
</trkpt>
<trkpt lat="40.0738747" lon="-105.2302756">
  <ele>1583.56</ele>
  <time>2026-08-27T18:26:37Z</time>
  <course>339.99</course>
  <speed>0.0</speed>
  <fix>3d</fix>
</trkpt>
<trkpt lat="40.0738744" lon="-105.2302754">
  <ele>1583.5</ele>
  <time>2026-08-27T18:26:37Z</time>
  <course>10.71</course>
  <speed>0.0412310562561766</speed>
  <fix>3d</fix>
</trkpt>
<trkpt lat="40.0738747" lon="-105.2302756">
  <ele>1583.56</ele>
  <time>2026-08-27T18:26:37Z</time>
  <course>343.09</course>
  <speed>0.0</speed>
  <fix>3d</fix>
</trkpt>
<trkpt lat="40.0738744" lon="-105.2302754">
  <ele>1583.5</ele>
  <time>2026-08-27T18:26:37Z</time>
  <course>10.71</course>
  <speed>0.0412310562561766</speed>
  <fix>3d</fix>
</trkpt>
<trkpt lat="40.0738747" lon="-105.2302756">
  <ele>1583.56</ele>
  <time>2026-08-27T18:26:37Z</time>
  <course>337.51</course>
  <speed>0.0</speed>
  <fix>3d</fix>
</trkpt>
<trkpt lat="40.0738744" lon="-105.2302754">
  <ele>1583.51</ele>
  <time>2026-08-27T18:26:37Z</time>
  <course>10.71</course>
  <speed>0.0316227766016838</speed>
  <fix>3d</fix>
</trkpt>
<trkpt lat="40.0738747" lon="-105.2302756">
  <ele>1583.56</ele>
  <time>2026-08-27T18:26:37Z</time>
  <course>335.3</course>
  <speed>0.0</speed>
  <fix>3d</fix>
</trkpt>
<trkpt lat="40.0738745" lon="-105.2302754">
  <ele>1583.51</ele>
  <time>2026-08-27T18:26:37Z</time>
  <course>10.72</course>
  <speed>0.0316227766016838</speed>
  <fix>3d</fix>
</trkpt>
<trkpt lat="40.0738747" lon="-105.2302756">
  <ele>1583.56</ele>
  <time>2026-08-27T18:26:37Z</time>
  <course>341.75</course>
  <speed>0.0</speed>
  <fix>3d</fix>
</trkpt>
<trkpt lat="40.0738745" lon="-105.2302754">
  <ele>1583.52</ele>
  <time>2026-08-27T18:26:37Z</time>
  <course>10.72</course>
  <speed>0.0316227766016838</speed>
  <fix>3d</fix>
</trkpt>
<trkpt lat="40.0738747" lon="-105.2302756">
  <ele>1583.56</ele>
  <time>2026-08-27T18:26:37Z</time>
  <course>344.03</course>
  <speed>0.0</speed>
  <fix>3d</fix>
</trkpt>
<trkpt lat="40.0738745" lon="-105.2302754">
  <ele>1583.52</ele>
  <time>2026-08-27T18:26:37Z</time>
  <course>10.72</course>
  <speed>0.0316227766016838</speed>
  <fix>3d</fix>
</trkpt>
<trkpt lat="40.0738747" lon="-105.2302756">
  <ele>1583.56</ele>
  <time>2026-08-27T18:26:37Z</time>
  <course>335.3</course>
  <speed>0.0</speed>
  <fix>3d</fix>
</trkpt>
<trkpt lat="40.0738745" lon="-105.2302754">
  <ele>1583.52</ele>
  <time>2026-08-27T18:26:37Z</time>
  <course>10.72</course>
  <speed>0.0316227766016838</speed>
  <fix>3d</fix>
</trkpt>
<trkpt lat="40.0738747" lon="-105.2302756">
  <ele>1583.56</ele>
  <time>2026-08-27T18:26:37Z</time>
  <course>333.7</course>
  <speed>0.0</speed>
  <fix>3d</fix>
</trkpt>
<trkpt lat="40.0738745" lon="-105.2302754">
  <ele>1583.52</ele>
  <time>2026-08-27T18:26:37Z</time>
  <course>10.73</course>
  <speed>0.0316227766016838</speed>
  <fix>3d</fix>
</trkpt>
<trkpt lat="40.0738747" lon="-105.2302756">
  <ele>1583.56</ele>
  <time>2026-08-27T18:26:37Z</time>
  <course>337.73</course>
  <speed>0.0</speed>
  <fix>3d</fix>
</trkpt>
<trkpt lat="40.0738745" lon="-105.2302754">
  <ele>1583.53</ele>
  <time>2026-08-27T18:26:37Z</time>
  <course>10.73</course>
  <speed>0.0316227766016838</speed>
  <fix>3d</fix>
</trkpt>
<trkpt lat="40.0738747" lon="-105.2302756">
  <ele>1583.56</ele>
  <time>2026-08-27T18:26:37Z</time>
  <course>333.51</course>
  <speed>0.0</speed>
  <fix>3d</fix>
</trkpt>
<trkpt lat="40.0738745" lon="-105.2302754">
  <ele>1583.53</ele>
  <time>2026-08-27T18:26:37Z</time>
  <course>10.73</course>
  <speed>0.022360679774997897</speed>
  <fix>3d</fix>
</trkpt>
<trkpt lat="40.0738747" lon="-105.2302756">
  <ele>1583.56</ele>
  <time>2026-08-27T18:26:37Z</time>
  <course>345.87</course>
  <speed>0.0</speed>
  <fix>3d</fix>
</trkpt>
<trkpt lat="40.0738745" lon="-105.2302754">
  <ele>1583.53</ele>
  <time>2026-08-27T18:26:37Z</time>
  <course>10.74</course>
  <speed>0.022360679774997897</speed>
  <fix>3d</fix>
</trkpt>
<trkpt lat="40.0738747" lon="-105.2302756">
  <ele>1583.56</ele>
  <time>2026-08-27T18:26:37Z</time>
  <course>342.25</course>
  <speed>0.0</speed>
  <fix>3d</fix>
</trkpt>
<trkpt lat="40.0738745" lon="-105.2302754">
  <ele>1583.53</ele>
  <time>2026-08-27T18:26:37Z</time>
  <course>10.74</course>
  <speed>0.022360679774997897</speed>
  <fix>3d</fix>
</trkpt>
<trkpt lat="40.0738747" lon="-105.2302756">
  <ele>1583.56</ele>
  <time>2026-08-27T18:26:37Z</time>
  <course>332.0</course>
  <speed>0.0</speed>
  <fix>3d</fix>
</trkpt>
<trkpt lat="40.0738745" lon="-105.2302754">
  <ele>1583.53</ele>
  <time>2026-08-27T18:26:37Z</time>
  <course>10.74</course>
  <speed>0.022360679774997897</speed>
  <fix>3d</fix>
</trkpt>
<trkpt lat="40.0738747" lon="-105.2302756">
  <ele>1583.56</ele>
  <time>2026-08-27T18:26:37Z</time>
  <course>340.64</course>
  <speed>0.0</speed>
  <fix>3d</fix>
</trkpt>
<trkpt lat="40.0738745" lon="-105.2302754">
  <ele>1583.54</ele>
  <time>2026-08-27T18:26:37Z</time>
  <course>10.75</course>
  <speed>0.022360679774997897</speed>
  <fix>3d</fix>
</trkpt>
<trkpt lat="40.0738747" lon="-105.2302756">
  <ele>1583.56</ele>
  <time>2026-08-27T18:26:37Z</time>
  <course>335.38</course>
  <speed>0.0</speed>
  <fix>3d</fix>
</trkpt>
<trkpt lat="40.0738745" lon="-105.2302754">
  <ele>1583.54</ele>
  <time>2026-08-27T18:26:37Z</time>
  <course>10.75</course>
  <speed>0.022360679774997897</speed>
  <fix>3d</fix>
</trkpt>
<trkpt lat="40.0738747" lon="-105.2302756">
  <ele>1583.56</ele>
  <time>2026-08-27T18:26:37Z</time>
  <course>336.48</course>
  <speed>0.0</speed>
  <fix>3d</fix>
</trkpt>
<trkpt lat="40.0738745" lon="-105.2302754">
  <ele>1583.55</ele>
  <time>2026-08-27T18:26:37Z</time>
  <course>10.75</course>
  <speed>0.022360679774997897</speed>
  <fix>3d</fix>
</trkpt>
<trkpt lat="40.0738747" lon="-105.2302756">
  <ele>1583.56</ele>
  <time>2026-08-27T18:26:37Z</time>
  <course>343.46</course>
  <speed>0.0</speed>
  <fix>3d</fix>
</trkpt>
<trkpt lat="40.0738745" lon="-105.2302754">
  <ele>1583.55</ele>
  <time>2026-08-27T18:26:37Z</time>
  <course>10.76</course>
  <speed>0.022360679774997897</speed>
  <fix>3d</fix>
</trkpt>
<trkpt lat="40.0738747" lon="-105.2302756">
  <ele>1583.56</ele>
  <time>2026-08-27T18:26:37Z</time>
  <course>333.39</course>
  <speed>0.0</speed>
  <fix>3d</fix>
</trkpt>
<trkpt lat="40.0738745" lon="-105.2302754">
  <ele>1583.55</ele>
  <time>2026-08-27T18:26:38Z</time>
  <course>10.76</course>
  <speed>0.022360679774997897</speed>
  <fix>3d</fix>
</trkpt>
<trkpt lat="40.0738747" lon="-105.2302756">
  <ele>1583.56</ele>
  <time>2026-08-27T18:26:38Z</time>
  <course>335.36</course>
  <speed>0.0</speed>
  <fix>3d</fix>
</trkpt>
<trkpt lat="40.0738745" lon="-105.2302754">
  <ele>1583.56</ele>
  <time>2026-08-27T18:26:38Z</time>
  <course>10.77</course>
  <speed>0.022360679774997897</speed>
  <fix>3d</fix>
</trkpt>
<trkpt lat="40.0738747" lon="-105.2302756">
  <ele>1583.56</ele>
  <time>2026-08-27T18:26:38Z</time>
  <course>341.92</course>
  <speed>0.0</speed>
  <fix>3d</fix>
</trkpt>
<trkpt lat="40.0738745" lon="-105.2302754">
  <ele>1583.56</ele>
  <time>2026-08-27T18:26:38Z</time>
  <course>10.77</course>
  <speed>0.01414213562373095</speed>
  <fix>3d</fix>
</trkpt>
<trkpt lat="40.0738747" lon="-105.2302756">
  <ele>1583.56</ele>
  <time>2026-08-27T18:26:38Z</time>
  <course>334.04</course>
  <speed>0.0</speed>
  <fix>3d</fix>
</trkpt>
<trkpt lat="40.0738745" lon="-105.2302754">
  <ele>1583.57</ele>
  <time>2026-08-27T18:26:38Z</time>
  <course>10.77</course>
  <speed>0.01414213562373095</speed>
  <fix>3d</fix>
</trkpt>
<trkpt lat="40.0738747" lon="-105.2302756">
  <ele>1583.56</ele>
  <time>2026-08-27T18:26:38Z</time>
  <course>333.98</course>
  <speed>0.0</speed>
  <fix>3d</fix>
</trkpt>
<trkpt lat="40.0738745" lon="-105.2302754">
  <ele>1583.57</ele>
  <time>2026-08-27T18:26:38Z</time>
  <course>10.78</course>
  <speed>0.01414213562373095</speed>
  <fix>3d</fix>
</trkpt>
<trkpt lat="40.0738747" lon="-105.2302756">
  <ele>1583.56</ele>
  <time>2026-08-27T18:26:38Z</time>
  <course>340.21</course>
  <speed>0.0</speed>
  <fix>3d</fix>
</trkpt>
<trkpt lat="40.0738745" lon="-105.2302754">
  <ele>1583.58</ele>
  <time>2026-08-27T18:26:38Z</time>
  <course>10.78</course>
  <speed>0.01414213562373095</speed>
  <fix>3d</fix>
</trkpt>
<trkpt lat="40.0738747" lon="-105.2302756">
  <ele>1583.56</ele>
  <time>2026-08-27T18:26:38Z</time>
  <course>338.06</course>
  <speed>0.0</speed>
  <fix>3d</fix>
</trkpt>
<trkpt lat="40.0738745" lon="-105.2302754">
  <ele>1583.58</ele>
  <time>2026-08-27T18:26:38Z</time>
  <course>10.79</course>
  <speed>0.01414213562373095</speed>
  <fix>3d</fix>
</trkpt>
<trkpt lat="40.0738747" lon="-105.2302756">
  <ele>1583.56</ele>
  <time>2026-08-27T18:26:38Z</time>
  <course>335.21</course>
  <speed>0.0</speed>
  <fix>3d</fix>
</trkpt>
<trkpt lat="40.0738745" lon="-105.2302754">
  <ele>1583.58</ele>
  <time>2026-08-27T18:26:38Z</time>
  <course>10.79</course>
  <speed>0.01414213562373095</speed>
  <fix>3d</fix>
</trkpt>
<trkpt lat="40.0738747" lon="-105.2302756">
  <ele>1583.56</ele>
  <time>2026-08-27T18:26:38Z</time>
  <course>337.69</course>
  <speed>0.0</speed>
  <fix>3d</fix>
</trkpt>
<trkpt lat="40.0738745" lon="-105.2302754">
  <ele>1583.58</ele>
  <time>2026-08-27T18:26:38Z</time>
  <course>10.79</course>
  <speed>0.01414213562373095</speed>
  <fix>3d</fix>
</trkpt>
<trkpt lat="40.0738747" lon="-105.2302756">
  <ele>1583.56</ele>
  <time>2026-08-27T18:26:38Z</time>
  <course>342.01</course>
  <speed>0.0</speed>
  <fix>3d</fix>
</trkpt>
<trkpt lat="40.0738745" lon="-105.2302754">
  <ele>1583.58</ele>
  <time>2026-08-27T18:26:38Z</time>
  <course>10.8</course>
  <speed>0.01414213562373095</speed>
  <fix>3d</fix>
</trkpt>
<trkpt lat="40.0738747" lon="-105.2302756">
  <ele>1583.56</ele>
  <time>2026-08-27T18:26:38Z</time>
  <course>336.74</course>
  <speed>0.0</speed>
  <fix>3d</fix>
</trkpt>
<trkpt lat="40.0738745" lon="-105.2302754">
  <ele>1583.59</ele>
  <time>2026-08-27T18:26:38Z</time>
  <course>10.8</course>
  <speed>0.01414213562373095</speed>
  <fix>3d</fix>
</trkpt>
<trkpt lat="40.0738747" lon="-105.2302756">
  <ele>1583.56</ele>
  <time>2026-08-27T18:26:38Z</time>
  <course>334.75</course>
  <speed>0.0</speed>
  <fix>3d</fix>
</trkpt>
<trkpt lat="40.0738745" lon="-105.2302754">
  <ele>1583.59</ele>
  <time>2026-08-27T18:26:38Z</time>
  <course>10.81</course>
  <speed>0.01414213562373095</speed>
  <fix>3d</fix>
</trkpt>
<trkpt lat="40.0738747" lon="-105.2302756">
  <ele>1583.56</ele>
  <time>2026-08-27T18:26:38Z</time>
  <course>340.79</course>
  <speed>0.0</speed>
  <fix>3d</fix>
</trkpt>
<trkpt lat="40.0738745" lon="-105.2302754">
  <ele>1583.59</ele>
  <time>2026-08-27T18:26:38Z</time>
  <course>10.81</course>
  <speed>0.01414213562373095</speed>
  <fix>3d</fix>
</trkpt>
<trkpt lat="40.0738747" lon="-105.2302756">
  <ele>1583.56</ele>
  <time>2026-08-27T18:26:38Z</time>
  <course>338.27</course>
  <speed>0.0</speed>
  <fix>3d</fix>
</trkpt>
<trkpt lat="40.0738745" lon="-105.2302754">
  <ele>1583.59</ele>
  <time>2026-08-27T18:26:38Z</time>
  <course>10.81</course>
  <speed>0.01414213562373095</speed>
  <fix>3d</fix>
</trkpt>
<trkpt lat="40.0738747" lon="-105.2302756">
  <ele>1583.56</ele>
  <time>2026-08-27T18:26:38Z</time>
  <course>333.83</course>
  <speed>0.0</speed>
  <fix>3d</fix>
</trkpt>
<trkpt lat="40.0738745" lon="-105.2302754">
  <ele>1583.59</ele>
  <time>2026-08-27T18:26:38Z</time>
  <course>10.82</course>
  <speed>0.01414213562373095</speed>
  <fix>3d</fix>
</trkpt>
<trkpt lat="40.0738747" lon="-105.2302756">
  <ele>1583.56</ele>
  <time>2026-08-27T18:26:38Z</time>
  <course>337.92</course>
  <speed>0.0</speed>
  <fix>3d</fix>
</trkpt>
<trkpt lat="40.0738745" lon="-105.2302754">
  <ele>1583.6</ele>
  <time>2026-08-27T18:26:38Z</time>
  <course>10.82</course>
  <speed>0.01414213562373095</speed>
  <fix>3d</fix>
</trkpt>
<trkpt lat="40.0738747" lon="-105.2302756">
  <ele>1583.56</ele>
  <time>2026-08-27T18:26:38Z</time>
  <course>342.29</course>
  <speed>0.0</speed>
  <fix>3d</fix>
</trkpt>
<trkpt lat="40.0738745" lon="-105.2302754">
  <ele>1583.6</ele>
  <time>2026-08-27T18:26:38Z</time>
  <course>10.82</course>
  <speed>0.01414213562373095</speed>
  <fix>3d</fix>
</trkpt>
<trkpt lat="40.0738747" lon="-105.2302756">
  <ele>1583.56</ele>
  <time>2026-08-27T18:26:38Z</time>
  <course>341.16</course>
  <speed>0.0</speed>
  <fix>3d</fix>
</trkpt>
<trkpt lat="40.0738745" lon="-105.2302754">
  <ele>1583.61</ele>
  <time>2026-08-27T18:26:38Z</time>
  <course>10.84</course>
  <speed>0.01414213562373095</speed>
  <fix>3d</fix>
</trkpt>
<trkpt lat="40.0738747" lon="-105.2302756">
  <ele>1583.56</ele>
  <time>2026-08-27T18:26:38Z</time>
  <course>342.52</course>
  <speed>0.0</speed>
  <fix>3d</fix>
</trkpt>
<trkpt lat="40.0738745" lon="-105.2302754">
  <ele>1583.61</ele>
  <time>2026-08-27T18:26:38Z</time>
  <course>10.87</course>
  <speed>0.01414213562373095</speed>
  <fix>3d</fix>
</trkpt>
<trkpt lat="40.0738747" lon="-105.2302756">
  <ele>1583.56</ele>
  <time>2026-08-27T18:26:38Z</time>
  <course>343.28</course>
  <speed>0.0</speed>
  <fix>3d</fix>
</trkpt>
<trkpt lat="40.0738745" lon="-105.2302754">
  <ele>1583.61</ele>
  <time>2026-08-27T18:26:38Z</time>
  <course>10.9</course>
  <speed>0.01414213562373095</speed>
  <fix>3d</fix>
</trkpt>
<trkpt lat="40.0738747" lon="-105.2302756">
  <ele>1583.56</ele>
  <time>2026-08-27T18:26:38Z</time>
  <course>331.09</course>
  <speed>0.0</speed>
  <fix>3d</fix>
</trkpt>
<trkpt lat="40.0738745" lon="-105.2302754">
  <ele>1583.61</ele>
  <time>2026-08-27T18:26:38Z</time>
  <course>10.93</course>
  <speed>0.01414213562373095</speed>
  <fix>3d</fix>
</trkpt>
<trkpt lat="40.0738747" lon="-105.2302756">
  <ele>1583.56</ele>
  <time>2026-08-27T18:26:38Z</time>
  <course>325.36</course>
  <speed>0.0</speed>
  <fix>3d</fix>
</trkpt>
<trkpt lat="40.0738745" lon="-105.2302754">
  <ele>1583.61</ele>
  <time>2026-08-27T18:26:38Z</time>
  <course>10.97</course>
  <speed>0.01414213562373095</speed>
  <fix>3d</fix>
</trkpt>
<trkpt lat="40.0738747" lon="-105.2302756">
  <ele>1583.56</ele>
  <time>2026-08-27T18:26:38Z</time>
  <course>338.71</course>
  <speed>0.0</speed>
  <fix>3d</fix>
</trkpt>
<trkpt lat="40.0738745" lon="-105.2302754">
  <ele>1583.6</ele>
  <time>2026-08-27T18:26:38Z</time>
  <course>11.0</course>
  <speed>0.01414213562373095</speed>
  <fix>3d</fix>
</trkpt>
<trkpt lat="40.0738747" lon="-105.2302756">
  <ele>1583.56</ele>
  <time>2026-08-27T18:26:38Z</time>
  <course>335.95</course>
  <speed>0.0</speed>
  <fix>3d</fix>
</trkpt>
<trkpt lat="40.0738745" lon="-105.2302754">
  <ele>1583.6</ele>
  <time>2026-08-27T18:26:38Z</time>
  <course>11.03</course>
  <speed>0.01414213562373095</speed>
  <fix>3d</fix>
</trkpt>
<trkpt lat="40.0738747" lon="-105.2302756">
  <ele>1583.56</ele>
  <time>2026-08-27T18:26:38Z</time>
  <course>333.23</course>
  <speed>0.0</speed>
  <fix>3d</fix>
</trkpt>
<trkpt lat="40.0738745" lon="-105.2302754">
  <ele>1583.61</ele>
  <time>2026-08-27T18:26:38Z</time>
  <course>11.06</course>
  <speed>0.01414213562373095</speed>
  <fix>3d</fix>
</trkpt>
<trkpt lat="40.0738747" lon="-105.2302756">
  <ele>1583.56</ele>
  <time>2026-08-27T18:26:38Z</time>
  <course>341.08</course>
  <speed>0.0</speed>
  <fix>3d</fix>
</trkpt>
<trkpt lat="40.0738745" lon="-105.2302754">
  <ele>1583.61</ele>
  <time>2026-08-27T18:26:38Z</time>
  <course>11.09</course>
  <speed>0.01414213562373095</speed>
  <fix>3d</fix>
</trkpt>
<trkpt lat="40.0738747" lon="-105.2302756">
  <ele>1583.56</ele>
  <time>2026-08-27T18:26:38Z</time>
  <course>336.87</course>
  <speed>0.0</speed>
  <fix>3d</fix>
</trkpt>
<trkpt lat="40.0738745" lon="-105.2302754">
  <ele>1583.61</ele>
  <time>2026-08-27T18:26:38Z</time>
  <course>11.12</course>
  <speed>0.01414213562373095</speed>
  <fix>3d</fix>
</trkpt>
<trkpt lat="40.0738747" lon="-105.2302756">
  <ele>1583.56</ele>
  <time>2026-08-27T18:26:38Z</time>
  <course>334.32</course>
  <speed>0.0</speed>
  <fix>3d</fix>
</trkpt>
<trkpt lat="40.0738745" lon="-105.2302754">
  <ele>1583.62</ele>
  <time>2026-08-27T18:26:38Z</time>
  <course>11.15</course>
  <speed>0.01414213562373095</speed>
  <fix>3d</fix>
</trkpt>
<trkpt lat="40.0738747" lon="-105.2302756">
  <ele>1583.56</ele>
  <time>2026-08-27T18:26:38Z</time>
  <course>339.24</course>
  <speed>0.0</speed>
  <fix>3d</fix>
</trkpt>
<trkpt lat="40.0738745" lon="-105.2302754">
  <ele>1583.62</ele>
  <time>2026-08-27T18:26:38Z</time>
  <course>11.19</course>
  <speed>0.01414213562373095</speed>
  <fix>3d</fix>
</trkpt>
<trkpt lat="40.0738747" lon="-105.2302756">
  <ele>1583.56</ele>
  <time>2026-08-27T18:26:38Z</time>
  <course>333.92</course>
  <speed>0.0</speed>
  <fix>3d</fix>
</trkpt>
<trkpt lat="40.0738745" lon="-105.2302754">
  <ele>1583.62</ele>
  <time>2026-08-27T18:26:38Z</time>
  <course>11.22</course>
  <speed>0.01414213562373095</speed>
  <fix>3d</fix>
</trkpt>
<trkpt lat="40.0738747" lon="-105.2302756">
  <ele>1583.56</ele>
  <time>2026-08-27T18:26:38Z</time>
  <course>334.66</course>
  <speed>0.0</speed>
  <fix>3d</fix>
</trkpt>
<trkpt lat="40.0738746" lon="-105.2302754">
  <ele>1583.63</ele>
  <time>2026-08-27T18:26:38Z</time>
  <course>11.33</course>
  <speed>0.01414213562373095</speed>
  <fix>3d</fix>
</trkpt>
<trkpt lat="40.0738747" lon="-105.2302756">
  <ele>1583.56</ele>
  <time>2026-08-27T18:26:38Z</time>
  <course>331.52</course>
  <speed>0.0</speed>
  <fix>3d</fix>
</trkpt>
<trkpt lat="40.0738746" lon="-105.2302754">
  <ele>1583.64</ele>
  <time>2026-08-27T18:26:38Z</time>
  <course>11.37</course>
  <speed>0.01414213562373095</speed>
  <fix>3d</fix>
</trkpt>
<trkpt lat="40.0738747" lon="-105.2302756">
  <ele>1583.56</ele>
  <time>2026-08-27T18:26:38Z</time>
  <course>339.84</course>
  <speed>0.0</speed>
  <fix>3d</fix>
</trkpt>
<trkpt lat="40.0738746" lon="-105.2302754">
  <ele>1583.64</ele>
  <time>2026-08-27T18:26:38Z</time>
  <course>11.4</course>
  <speed>0.01414213562373095</speed>
  <fix>3d</fix>
</trkpt>
<trkpt lat="40.0738747" lon="-105.2302756">
  <ele>1583.56</ele>
  <time>2026-08-27T18:26:38Z</time>
  <course>335.65</course>
  <speed>0.0</speed>
  <fix>3d</fix>
</trkpt>
<trkpt lat="40.0738746" lon="-105.2302754">
  <ele>1583.64</ele>
  <time>2026-08-27T18:26:38Z</time>
  <course>11.44</course>
  <speed>0.01414213562373095</speed>
  <fix>3d</fix>
</trkpt>
<trkpt lat="40.0738747" lon="-105.2302756">
  <ele>1583.56</ele>
  <time>2026-08-27T18:26:38Z</time>
  <course>330.19</course>
  <speed>0.0</speed>
  <fix>3d</fix>
</trkpt>
<trkpt lat="40.0738746" lon="-105.2302754">
  <ele>1583.64</ele>
  <time>2026-08-27T18:26:38Z</time>
  <course>11.47</course>
  <speed>0.01414213562373095</speed>
  <fix>3d</fix>
</trkpt>
<trkpt lat="40.0738747" lon="-105.2302756">
  <ele>1583.56</ele>
  <time>2026-08-27T18:26:38Z</time>
  <course>329.14</course>
  <speed>0.0</speed>
  <fix>3d</fix>
</trkpt>
<trkpt lat="40.0738746" lon="-105.2302754">
  <ele>1583.63</ele>
  <time>2026-08-27T18:26:38Z</time>
  <course>11.51</course>
  <speed>0.01414213562373095</speed>
  <fix>3d</fix>
</trkpt>
<trkpt lat="40.0738747" lon="-105.2302756">
  <ele>1583.56</ele>
  <time>2026-08-27T18:26:38Z</time>
  <course>330.63</course>
  <speed>0.0</speed>
  <fix>3d</fix>
</trkpt>
<trkpt lat="40.0738746" lon="-105.2302754">
  <ele>1583.63</ele>
  <time>2026-08-27T18:26:38Z</time>
  <course>11.54</course>
  <speed>0.01414213562373095</speed>
  <fix>3d</fix>
</trkpt>
<trkpt lat="40.0738747" lon="-105.2302756">
  <ele>1583.56</ele>
  <time>2026-08-27T18:26:38Z</time>
  <course>333.7</course>
  <speed>0.0</speed>
  <fix>3d</fix>
</trkpt>
<trkpt lat="40.0738746" lon="-105.2302754">
  <ele>1583.63</ele>
  <time>2026-08-27T18:26:38Z</time>
  <course>11.58</course>
  <speed>0.01414213562373095</speed>
  <fix>3d</fix>
</trkpt>
<trkpt lat="40.0738747" lon="-105.2302756">
  <ele>1583.56</ele>
  <time>2026-08-27T18:26:38Z</time>
  <course>336.87</course>
  <speed>0.0</speed>
  <fix>3d</fix>
</trkpt>
<trkpt lat="40.0738746" lon="-105.2302754">
  <ele>1583.63</ele>
  <time>2026-08-27T18:26:38Z</time>
  <course>11.62</course>
  <speed>0.022360679774997897</speed>
  <fix>3d</fix>
</trkpt>
<trkpt lat="40.0738747" lon="-105.2302756">
  <ele>1583.56</ele>
  <time>2026-08-27T18:26:38Z</time>
  <course>332.86</course>
  <speed>0.0</speed>
  <fix>3d</fix>
</trkpt>
<trkpt lat="40.0738746" lon="-105.2302755">
  <ele>1583.63</ele>
  <time>2026-08-27T18:26:38Z</time>
  <course>11.66</course>
  <speed>0.022360679774997897</speed>
  <fix>3d</fix>
</trkpt>
<trkpt lat="40.0738747" lon="-105.2302756">
  <ele>1583.56</ele>
  <time>2026-08-27T18:26:38Z</time>
  <course>172.53</course>
  <speed>0.0</speed>
  <fix>3d</fix>
</trkpt>
<trkpt lat="40.0738746" lon="-105.2302755">
  <ele>1583.64</ele>
  <time>2026-08-27T18:26:38Z</time>
  <course>11.69</course>
  <speed>0.01414213562373095</speed>
  <fix>3d</fix>
</trkpt>
<trkpt lat="40.0738747" lon="-105.2302756">
  <ele>1583.56</ele>
  <time>2026-08-27T18:26:38Z</time>
  <course>161.31</course>
  <speed>0.01</speed>
  <fix>3d</fix>
</trkpt>
<trkpt lat="40.0738746" lon="-105.2302755">
  <ele>1583.64</ele>
  <time>2026-08-27T18:26:38Z</time>
  <course>11.73</course>
  <speed>0.01414213562373095</speed>
  <fix>3d</fix>
</trkpt>
<trkpt lat="40.0738747" lon="-105.2302756">
  <ele>1583.56</ele>
  <time>2026-08-27T18:26:38Z</time>
  <course>139.65</course>
  <speed>0.0</speed>
  <fix>3d</fix>
</trkpt>
<trkpt lat="40.0738746" lon="-105.2302755">
  <ele>1583.64</ele>
  <time>2026-08-27T18:26:38Z</time>
  <course>11.77</course>
  <speed>0.01414213562373095</speed>
  <fix>3d</fix>
</trkpt>
<trkpt lat="40.0738747" lon="-105.2302756">
  <ele>1583.56</ele>
  <time>2026-08-27T18:26:38Z</time>
  <course>122.94</course>
  <speed>0.0</speed>
  <fix>3d</fix>
</trkpt>
<trkpt lat="40.0738746" lon="-105.2302755">
  <ele>1583.63</ele>
  <time>2026-08-27T18:26:38Z</time>
  <course>11.81</course>
  <speed>0.01414213562373095</speed>
  <fix>3d</fix>
</trkpt>
<trkpt lat="40.0738747" lon="-105.2302756">
  <ele>1583.56</ele>
  <time>2026-08-27T18:26:38Z</time>
  <course>160.23</course>
  <speed>0.0</speed>
  <fix>3d</fix>
</trkpt>
<trkpt lat="40.0738746" lon="-105.2302755">
  <ele>1583.63</ele>
  <time>2026-08-27T18:26:38Z</time>
  <course>11.85</course>
  <speed>0.01414213562373095</speed>
  <fix>3d</fix>
</trkpt>
<trkpt lat="40.0738747" lon="-105.2302756">
  <ele>1583.56</ele>
  <time>2026-08-27T18:26:38Z</time>
  <course>148.99</course>
  <speed>0.0</speed>
  <fix>3d</fix>
</trkpt>
<trkpt lat="40.0738746" lon="-105.2302755">
  <ele>1583.63</ele>
  <time>2026-08-27T18:26:38Z</time>
  <course>11.89</course>
  <speed>0.01414213562373095</speed>
  <fix>3d</fix>
</trkpt>
<trkpt lat="40.0738747" lon="-105.2302756">
  <ele>1583.56</ele>
  <time>2026-08-27T18:26:38Z</time>
  <course>130.69</course>
  <speed>0.0</speed>
  <fix>3d</fix>
</trkpt>
<trkpt lat="40.0738746" lon="-105.2302755">
  <ele>1583.64</ele>
  <time>2026-08-27T18:26:38Z</time>
  <course>11.93</course>
  <speed>0.01414213562373095</speed>
  <fix>3d</fix>
</trkpt>
<trkpt lat="40.0738747" lon="-105.2302756">
  <ele>1583.56</ele>
  <time>2026-08-27T18:26:38Z</time>
  <course>123.6</course>
  <speed>0.0</speed>
  <fix>3d</fix>
</trkpt>
<trkpt lat="40.0738746" lon="-105.2302755">
  <ele>1583.64</ele>
  <time>2026-08-27T18:26:38Z</time>
  <course>11.97</course>
  <speed>0.01414213562373095</speed>
  <fix>3d</fix>
</trkpt>
<trkpt lat="40.0738747" lon="-105.2302756">
  <ele>1583.56</ele>
  <time>2026-08-27T18:26:38Z</time>
  <course>181.22</course>
  <speed>0.0</speed>
  <fix>3d</fix>
</trkpt>
<trkpt lat="40.0738746" lon="-105.2302755">
  <ele>1583.64</ele>
  <time>2026-08-27T18:26:38Z</time>
  <course>12.01</course>
  <speed>0.01414213562373095</speed>
  <fix>3d</fix>
</trkpt>
<trkpt lat="40.0738747" lon="-105.2302756">
  <ele>1583.56</ele>
  <time>2026-08-27T18:26:38Z</time>
  <course>242.64</course>
  <speed>0.0</speed>
  <fix>3d</fix>
</trkpt>
<trkpt lat="40.0738746" lon="-105.2302755">
  <ele>1583.63</ele>
  <time>2026-08-27T18:26:38Z</time>
  <course>12.05</course>
  <speed>0.01414213562373095</speed>
  <fix>3d</fix>
</trkpt>
<trkpt lat="40.0738747" lon="-105.2302756">
  <ele>1583.56</ele>
  <time>2026-08-27T18:26:38Z</time>
  <course>212.01</course>
  <speed>0.0</speed>
  <fix>3d</fix>
</trkpt>
<trkpt lat="40.0738746" lon="-105.2302755">
  <ele>1583.63</ele>
  <time>2026-08-27T18:26:38Z</time>
  <course>12.09</course>
  <speed>0.01414213562373095</speed>
  <fix>3d</fix>
</trkpt>
<trkpt lat="40.0738747" lon="-105.2302756">
  <ele>1583.56</ele>
  <time>2026-08-27T18:26:38Z</time>
  <course>182.0</course>
  <speed>0.0</speed>
  <fix>3d</fix>
</trkpt>
<trkpt lat="40.0738746" lon="-105.2302755">
  <ele>1583.64</ele>
  <time>2026-08-27T18:26:38Z</time>
  <course>12.13</course>
  <speed>0.01414213562373095</speed>
  <fix>3d</fix>
</trkpt>
<trkpt lat="40.0738747" lon="-105.2302756">
  <ele>1583.56</ele>
  <time>2026-08-27T18:26:38Z</time>
  <course>56.04</course>
  <speed>0.0</speed>
  <fix>3d</fix>
</trkpt>
<trkpt lat="40.0738746" lon="-105.2302755">
  <ele>1583.64</ele>
  <time>2026-08-27T18:26:38Z</time>
  <course>12.17</course>
  <speed>0.01414213562373095</speed>
  <fix>3d</fix>
</trkpt>
<trkpt lat="40.0738747" lon="-105.2302756">
  <ele>1583.56</ele>
  <time>2026-08-27T18:26:38Z</time>
  <course>182.77</course>
  <speed>0.0</speed>
  <fix>3d</fix>
</trkpt>
<trkpt lat="40.0738746" lon="-105.2302755">
  <ele>1583.64</ele>
  <time>2026-08-27T18:26:38Z</time>
  <course>12.21</course>
  <speed>0.01414213562373095</speed>
  <fix>3d</fix>
</trkpt>
<trkpt lat="40.0738747" lon="-105.2302756">
  <ele>1583.56</ele>
  <time>2026-08-27T18:26:38Z</time>
  <course>182.5</course>
  <speed>0.0</speed>
  <fix>3d</fix>
</trkpt>
<trkpt lat="40.0738746" lon="-105.2302755">
  <ele>1583.63</ele>
  <time>2026-08-27T18:26:38Z</time>
  <course>12.26</course>
  <speed>0.022360679774997897</speed>
  <fix>3d</fix>
</trkpt>
<trkpt lat="40.0738747" lon="-105.2302756">
  <ele>1583.56</ele>
  <time>2026-08-27T18:26:38Z</time>
  <course>170.83</course>
  <speed>0.0</speed>
  <fix>3d</fix>
</trkpt>
<trkpt lat="40.0738746" lon="-105.2302755">
  <ele>1583.63</ele>
  <time>2026-08-27T18:26:38Z</time>
  <course>12.3</course>
  <speed>0.022360679774997897</speed>
  <fix>3d</fix>
</trkpt>
<trkpt lat="40.0738747" lon="-105.2302756">
  <ele>1583.56</ele>
  <time>2026-08-27T18:26:38Z</time>
  <course>171.37</course>
  <speed>0.0</speed>
  <fix>3d</fix>
</trkpt>
<trkpt lat="40.0738746" lon="-105.2302755">
  <ele>1583.64</ele>
  <time>2026-08-27T18:26:38Z</time>
  <course>12.34</course>
  <speed>0.022360679774997897</speed>
  <fix>3d</fix>
</trkpt>
<trkpt lat="40.0738747" lon="-105.2302756">
  <ele>1583.56</ele>
  <time>2026-08-27T18:26:38Z</time>
  <course>173.36</course>
  <speed>0.0</speed>
  <fix>3d</fix>
</trkpt>
<trkpt lat="40.0738746" lon="-105.2302755">
  <ele>1583.64</ele>
  <time>2026-08-27T18:26:38Z</time>
  <course>12.38</course>
  <speed>0.022360679774997897</speed>
  <fix>3d</fix>
</trkpt>
<trkpt lat="40.0738747" lon="-105.2302756">
  <ele>1583.56</ele>
  <time>2026-08-27T18:26:38Z</time>
  <course>173.04</course>
  <speed>0.0</speed>
  <fix>3d</fix>
</trkpt>
<trkpt lat="40.0738746" lon="-105.2302755">
  <ele>1583.65</ele>
  <time>2026-08-27T18:26:38Z</time>
  <course>12.43</course>
  <speed>0.022360679774997897</speed>
  <fix>3d</fix>
</trkpt>
<trkpt lat="40.0738747" lon="-105.2302756">
  <ele>1583.56</ele>
  <time>2026-08-27T18:26:38Z</time>
  <course>172.82</course>
  <speed>0.0</speed>
  <fix>3d</fix>
</trkpt>
<trkpt lat="40.0738746" lon="-105.2302755">
  <ele>1583.65</ele>
  <time>2026-08-27T18:26:38Z</time>
  <course>12.47</course>
  <speed>0.022360679774997897</speed>
  <fix>3d</fix>
</trkpt>
<trkpt lat="40.0738747" lon="-105.2302756">
  <ele>1583.56</ele>
  <time>2026-08-27T18:26:38Z</time>
  <course>172.89</course>
  <speed>0.0</speed>
  <fix>3d</fix>
</trkpt>
<trkpt lat="40.0738746" lon="-105.2302755">
  <ele>1583.65</ele>
  <time>2026-08-27T18:26:38Z</time>
  <course>12.51</course>
  <speed>0.022360679774997897</speed>
  <fix>3d</fix>
</trkpt>
<trkpt lat="40.0738747" lon="-105.2302756">
  <ele>1583.56</ele>
  <time>2026-08-27T18:26:38Z</time>
  <course>45.44</course>
  <speed>0.0</speed>
  <fix>3d</fix>
</trkpt>
<trkpt lat="40.0738746" lon="-105.2302755">
  <ele>1583.65</ele>
  <time>2026-08-27T18:26:38Z</time>
  <course>12.56</course>
  <speed>0.022360679774997897</speed>
  <fix>3d</fix>
</trkpt>
<trkpt lat="40.0738747" lon="-105.2302756">
  <ele>1583.56</ele>
  <time>2026-08-27T18:26:38Z</time>
  <course>56.84</course>
  <speed>0.0</speed>
  <fix>3d</fix>
</trkpt>
<trkpt lat="40.0738746" lon="-105.2302755">
  <ele>1583.65</ele>
  <time>2026-08-27T18:26:38Z</time>
  <course>12.6</course>
  <speed>0.022360679774997897</speed>
  <fix>3d</fix>
</trkpt>
<trkpt lat="40.0738747" lon="-105.2302756">
  <ele>1583.56</ele>
  <time>2026-08-27T18:26:38Z</time>
  <course>199.54</course>
  <speed>0.0</speed>
  <fix>3d</fix>
</trkpt>
<trkpt lat="40.0738746" lon="-105.2302755">
  <ele>1583.64</ele>
  <time>2026-08-27T18:26:38Z</time>
  <course>12.65</course>
  <speed>0.022360679774997897</speed>
  <fix>3d</fix>
</trkpt>
<trkpt lat="40.0738747" lon="-105.2302756">
  <ele>1583.56</ele>
  <time>2026-08-27T18:26:38Z</time>
  <course>192.83</course>
  <speed>0.0</speed>
  <fix>3d</fix>
</trkpt>
<trkpt lat="40.0738746" lon="-105.2302755">
  <ele>1583.64</ele>
  <time>2026-08-27T18:26:38Z</time>
  <course>12.69</course>
  <speed>0.022360679774997897</speed>
  <fix>3d</fix>
</trkpt>
<trkpt lat="40.0738747" lon="-105.2302756">
  <ele>1583.56</ele>
  <time>2026-08-27T18:26:38Z</time>
  <course>212.03</course>
  <speed>0.0</speed>
  <fix>3d</fix>
</trkpt>
<trkpt lat="40.0738746" lon="-105.2302755">
  <ele>1583.64</ele>
  <time>2026-08-27T18:26:38Z</time>
  <course>12.74</course>
  <speed>0.022360679774997897</speed>
  <fix>3d</fix>
</trkpt>
<trkpt lat="40.0738747" lon="-105.2302756">
  <ele>1583.56</ele>
  <time>2026-08-27T18:26:38Z</time>
  <course>199.07</course>
  <speed>0.0</speed>
  <fix>3d</fix>
</trkpt>
<trkpt lat="40.0738746" lon="-105.2302755">
  <ele>1583.64</ele>
  <time>2026-08-27T18:26:38Z</time>
  <course>12.78</course>
  <speed>0.022360679774997897</speed>
  <fix>3d</fix>
</trkpt>
<trkpt lat="40.0738747" lon="-105.2302756">
  <ele>1583.56</ele>
  <time>2026-08-27T18:26:38Z</time>
  <course>164.58</course>
  <speed>0.0</speed>
  <fix>3d</fix>
</trkpt>
<trkpt lat="40.0738746" lon="-105.2302755">
  <ele>1583.64</ele>
  <time>2026-08-27T18:26:38Z</time>
  <course>12.83</course>
  <speed>0.022360679774997897</speed>
  <fix>3d</fix>
</trkpt>
<trkpt lat="40.0738747" lon="-105.2302756">
  <ele>1583.56</ele>
  <time>2026-08-27T18:26:38Z</time>
  <course>164.99</course>
  <speed>0.0</speed>
  <fix>3d</fix>
</trkpt>
<trkpt lat="40.0738746" lon="-105.2302755">
  <ele>1583.64</ele>
  <time>2026-08-27T18:26:38Z</time>
  <course>12.87</course>
  <speed>0.022360679774997897</speed>
  <fix>3d</fix>
</trkpt>
<trkpt lat="40.0738747" lon="-105.2302756">
  <ele>1583.56</ele>
  <time>2026-08-27T18:26:38Z</time>
  <course>175.12</course>
  <speed>0.0</speed>
  <fix>3d</fix>
</trkpt>
<trkpt lat="40.0738746" lon="-105.2302755">
  <ele>1583.64</ele>
  <time>2026-08-27T18:26:38Z</time>
  <course>12.92</course>
  <speed>0.022360679774997897</speed>
  <fix>3d</fix>
</trkpt>
<trkpt lat="40.0738747" lon="-105.2302756">
  <ele>1583.56</ele>
  <time>2026-08-27T18:26:38Z</time>
  <course>173.44</course>
  <speed>0.0</speed>
  <fix>3d</fix>
</trkpt>
<trkpt lat="40.0738746" lon="-105.2302755">
  <ele>1583.63</ele>
  <time>2026-08-27T18:26:38Z</time>
  <course>12.96</course>
  <speed>0.022360679774997897</speed>
  <fix>3d</fix>
</trkpt>
<trkpt lat="40.0738747" lon="-105.2302756">
  <ele>1583.56</ele>
  <time>2026-08-27T18:26:38Z</time>
  <course>172.54</course>
  <speed>0.0</speed>
  <fix>3d</fix>
</trkpt>
<trkpt lat="40.0738746" lon="-105.2302755">
  <ele>1583.64</ele>
  <time>2026-08-27T18:26:38Z</time>
  <course>13.01</course>
  <speed>0.022360679774997897</speed>
  <fix>3d</fix>
</trkpt>
<trkpt lat="40.0738747" lon="-105.2302756">
  <ele>1583.56</ele>
  <time>2026-08-27T18:26:38Z</time>
  <course>172.87</course>
  <speed>0.0</speed>
  <fix>3d</fix>
</trkpt>
<trkpt lat="40.0738746" lon="-105.2302755">
  <ele>1583.64</ele>
  <time>2026-08-27T18:26:38Z</time>
  <course>13.06</course>
  <speed>0.01414213562373095</speed>
  <fix>3d</fix>
</trkpt>
<trkpt lat="40.0738747" lon="-105.2302756">
  <ele>1583.56</ele>
  <time>2026-08-27T18:26:38Z</time>
  <course>172.95</course>
  <speed>0.0</speed>
  <fix>3d</fix>
</trkpt>
<trkpt lat="40.0738746" lon="-105.2302755">
  <ele>1583.64</ele>
  <time>2026-08-27T18:26:38Z</time>
  <course>13.1</course>
  <speed>0.01414213562373095</speed>
  <fix>3d</fix>
</trkpt>
<trkpt lat="40.0738747" lon="-105.2302756">
  <ele>1583.56</ele>
  <time>2026-08-27T18:26:38Z</time>
  <course>172.89</course>
  <speed>0.0</speed>
  <fix>3d</fix>
</trkpt>
<trkpt lat="40.0738746" lon="-105.2302755">
  <ele>1583.64</ele>
  <time>2026-08-27T18:26:38Z</time>
  <course>13.15</course>
  <speed>0.01</speed>
  <fix>3d</fix>
</trkpt>
<trkpt lat="40.0738747" lon="-105.2302756">
  <ele>1583.56</ele>
  <time>2026-08-27T18:26:38Z</time>
  <course>172.89</course>
  <speed>0.0</speed>
  <fix>3d</fix>
</trkpt>
<trkpt lat="40.0738746" lon="-105.2302755">
  <ele>1583.64</ele>
  <time>2026-08-27T18:26:38Z</time>
  <course>13.2</course>
  <speed>0.01</speed>
  <fix>3d</fix>
</trkpt>
<trkpt lat="40.0738747" lon="-105.2302756">
  <ele>1583.56</ele>
  <time>2026-08-27T18:26:38Z</time>
  <course>172.9</course>
  <speed>0.0</speed>
  <fix>3d</fix>
</trkpt>
<trkpt lat="40.0738746" lon="-105.2302755">
  <ele>1583.64</ele>
  <time>2026-08-27T18:26:38Z</time>
  <course>13.24</course>
  <speed>0.01</speed>
  <fix>3d</fix>
</trkpt>
<trkpt lat="40.0738747" lon="-105.2302756">
  <ele>1583.56</ele>
  <time>2026-08-27T18:26:38Z</time>
  <course>172.9</course>
  <speed>0.0</speed>
  <fix>3d</fix>
</trkpt>
<trkpt lat="40.0738746" lon="-105.2302755">
  <ele>1583.63</ele>
  <time>2026-08-27T18:26:38Z</time>
  <course>13.29</course>
  <speed>0.01</speed>
  <fix>3d</fix>
</trkpt>
<trkpt lat="40.0738747" lon="-105.2302756">
  <ele>1583.56</ele>
  <time>2026-08-27T18:26:38Z</time>
  <course>172.9</course>
  <speed>0.0</speed>
  <fix>3d</fix>
</trkpt>
<trkpt lat="40.0738746" lon="-105.2302755">
  <ele>1583.63</ele>
  <time>2026-08-27T18:26:38Z</time>
  <course>13.34</course>
  <speed>0.01</speed>
  <fix>3d</fix>
</trkpt>
<trkpt lat="40.0738747" lon="-105.2302756">
  <ele>1583.56</ele>
  <time>2026-08-27T18:26:38Z</time>
  <course>172.9</course>
  <speed>0.0</speed>
  <fix>3d</fix>
</trkpt>
<trkpt lat="40.0738746" lon="-105.2302755">
  <ele>1583.63</ele>
  <time>2026-08-27T18:26:38Z</time>
  <course>13.39</course>
  <speed>0.01</speed>
  <fix>3d</fix>
</trkpt>
<trkpt lat="40.0738747" lon="-105.2302756">
  <ele>1583.56</ele>
  <time>2026-08-27T18:26:38Z</time>
  <course>172.9</course>
  <speed>0.0</speed>
  <fix>3d</fix>
</trkpt>
<trkpt lat="40.0738746" lon="-105.2302755">
  <ele>1583.63</ele>
  <time>2026-08-27T18:26:38Z</time>
  <course>13.44</course>
  <speed>0.01</speed>
  <fix>3d</fix>
</trkpt>
<trkpt lat="40.0738747" lon="-105.2302756">
  <ele>1583.56</ele>
  <time>2026-08-27T18:26:38Z</time>
  <course>172.9</course>
  <speed>0.0</speed>
  <fix>3d</fix>
</trkpt>
<trkpt lat="40.0738746" lon="-105.2302755">
  <ele>1583.63</ele>
  <time>2026-08-27T18:26:38Z</time>
  <course>13.48</course>
  <speed>0.01</speed>
  <fix>3d</fix>
</trkpt>
<trkpt lat="40.0738747" lon="-105.2302756">
  <ele>1583.56</ele>
  <time>2026-08-27T18:26:38Z</time>
  <course>172.9</course>
  <speed>0.0</speed>
  <fix>3d</fix>
</trkpt>
<trkpt lat="40.0738746" lon="-105.2302755">
  <ele>1583.63</ele>
  <time>2026-08-27T18:26:38Z</time>
  <course>13.53</course>
  <speed>0.01</speed>
  <fix>3d</fix>
</trkpt>
<trkpt lat="40.0738747" lon="-105.2302756">
  <ele>1583.56</ele>
  <time>2026-08-27T18:26:38Z</time>
  <course>172.9</course>
  <speed>0.0</speed>
  <fix>3d</fix>
</trkpt>
<trkpt lat="40.0738746" lon="-105.2302755">
  <ele>1583.63</ele>
  <time>2026-08-27T18:26:38Z</time>
  <course>13.58</course>
  <speed>0.01</speed>
  <fix>3d</fix>
</trkpt>
<trkpt lat="40.0738747" lon="-105.2302756">
  <ele>1583.56</ele>
  <time>2026-08-27T18:26:38Z</time>
  <course>172.9</course>
  <speed>0.0</speed>
  <fix>3d</fix>
</trkpt>
<trkpt lat="40.0738746" lon="-105.2302755">
  <ele>1583.63</ele>
  <time>2026-08-27T18:26:38Z</time>
  <course>13.63</course>
  <speed>0.01</speed>
  <fix>3d</fix>
</trkpt>
<trkpt lat="40.0738747" lon="-105.2302756">
  <ele>1583.56</ele>
  <time>2026-08-27T18:26:38Z</time>
  <course>172.9</course>
  <speed>0.0</speed>
  <fix>3d</fix>
</trkpt>
<trkpt lat="40.0738746" lon="-105.2302755">
  <ele>1583.63</ele>
  <time>2026-08-27T18:26:38Z</time>
  <course>13.68</course>
  <speed>0.01</speed>
  <fix>3d</fix>
</trkpt>
<trkpt lat="40.0738747" lon="-105.2302756">
  <ele>1583.56</ele>
  <time>2026-08-27T18:26:38Z</time>
  <course>172.9</course>
  <speed>0.0</speed>
  <fix>3d</fix>
</trkpt>
<trkpt lat="40.0738746" lon="-105.2302755">
  <ele>1583.63</ele>
  <time>2026-08-27T18:26:38Z</time>
  <course>13.73</course>
  <speed>0.01</speed>
  <fix>3d</fix>
</trkpt>
<trkpt lat="40.0738747" lon="-105.2302756">
  <ele>1583.56</ele>
  <time>2026-08-27T18:26:38Z</time>
  <course>278.97</course>
  <speed>0.0</speed>
  <fix>3d</fix>
</trkpt>
<trkpt lat="40.0738746" lon="-105.2302755">
  <ele>1583.64</ele>
  <time>2026-08-27T18:26:38Z</time>
  <course>13.78</course>
  <speed>0.01</speed>
  <fix>3d</fix>
</trkpt>
<trkpt lat="40.0738747" lon="-105.2302756">
  <ele>1583.56</ele>
  <time>2026-08-27T18:26:38Z</time>
  <course>270.45</course>
  <speed>0.0</speed>
  <fix>3d</fix>
</trkpt>
<trkpt lat="40.0738746" lon="-105.2302755">
  <ele>1583.64</ele>
  <time>2026-08-27T18:26:38Z</time>
  <course>13.82</course>
  <speed>0.01</speed>
  <fix>3d</fix>
</trkpt>
<trkpt lat="40.0738747" lon="-105.2302756">
  <ele>1583.56</ele>
  <time>2026-08-27T18:26:38Z</time>
  <course>172.95</course>
  <speed>0.0</speed>
  <fix>3d</fix>
</trkpt>
<trkpt lat="40.0738746" lon="-105.2302755">
  <ele>1583.64</ele>
  <time>2026-08-27T18:26:38Z</time>
  <course>13.87</course>
  <speed>0.01</speed>
  <fix>3d</fix>
</trkpt>
<trkpt lat="40.0738747" lon="-105.2302756">
  <ele>1583.56</ele>
  <time>2026-08-27T18:26:38Z</time>
  <course>116.04</course>
  <speed>0.0</speed>
  <fix>3d</fix>
</trkpt>
<trkpt lat="40.0738746" lon="-105.2302755">
  <ele>1583.64</ele>
  <time>2026-08-27T18:26:38Z</time>
  <course>13.92</course>
  <speed>0.01</speed>
  <fix>3d</fix>
</trkpt>
<trkpt lat="40.0738747" lon="-105.2302756">
  <ele>1583.56</ele>
  <time>2026-08-27T18:26:38Z</time>
  <course>214.28</course>
  <speed>0.0</speed>
  <fix>3d</fix>
</trkpt>
<trkpt lat="40.0738746" lon="-105.2302755">
  <ele>1583.64</ele>
  <time>2026-08-27T18:26:38Z</time>
  <course>13.97</course>
  <speed>0.01</speed>
  <fix>3d</fix>
</trkpt>
<trkpt lat="40.0738747" lon="-105.2302756">
  <ele>1583.56</ele>
  <time>2026-08-27T18:26:38Z</time>
  <course>202.37</course>
  <speed>0.0</speed>
  <fix>3d</fix>
</trkpt>
<trkpt lat="40.0738746" lon="-105.2302755">
  <ele>1583.65</ele>
  <time>2026-08-27T18:26:38Z</time>
  <course>14.02</course>
  <speed>0.01414213562373095</speed>
  <fix>3d</fix>
</trkpt>
<trkpt lat="40.0738747" lon="-105.2302756">
  <ele>1583.56</ele>
  <time>2026-08-27T18:26:38Z</time>
  <course>333.71</course>
  <speed>0.0</speed>
  <fix>3d</fix>
</trkpt>
<trkpt lat="40.0738746" lon="-105.2302755">
  <ele>1583.65</ele>
  <time>2026-08-27T18:26:38Z</time>
  <course>14.06</course>
  <speed>0.01414213562373095</speed>
  <fix>3d</fix>
</trkpt>
<trkpt lat="40.0738747" lon="-105.2302756">
  <ele>1583.56</ele>
  <time>2026-08-27T18:26:38Z</time>
  <course>326.69</course>
  <speed>0.0</speed>
  <fix>3d</fix>
</trkpt>
<trkpt lat="40.0738746" lon="-105.2302755">
  <ele>1583.65</ele>
  <time>2026-08-27T18:26:38Z</time>
  <course>14.1</course>
  <speed>0.01414213562373095</speed>
  <fix>3d</fix>
</trkpt>
<trkpt lat="40.0738747" lon="-105.2302756">
  <ele>1583.56</ele>
  <time>2026-08-27T18:26:38Z</time>
  <course>178.84</course>
  <speed>0.0</speed>
  <fix>3d</fix>
</trkpt>
<trkpt lat="40.0738746" lon="-105.2302755">
  <ele>1583.64</ele>
  <time>2026-08-27T18:26:38Z</time>
  <course>14.15</course>
  <speed>0.01414213562373095</speed>
  <fix>3d</fix>
</trkpt>
<trkpt lat="40.0738747" lon="-105.2302756">
  <ele>1583.56</ele>
  <time>2026-08-27T18:26:38Z</time>
  <course>129.72</course>
  <speed>0.0</speed>
  <fix>3d</fix>
</trkpt>
<trkpt lat="40.0738746" lon="-105.2302755">
  <ele>1583.64</ele>
  <time>2026-08-27T18:26:38Z</time>
  <course>14.19</course>
  <speed>0.01414213562373095</speed>
  <fix>3d</fix>
</trkpt>
<trkpt lat="40.0738747" lon="-105.2302756">
  <ele>1583.56</ele>
  <time>2026-08-27T18:26:38Z</time>
  <course>105.36</course>
  <speed>0.0</speed>
  <fix>3d</fix>
</trkpt>
<trkpt lat="40.0738746" lon="-105.2302755">
  <ele>1583.64</ele>
  <time>2026-08-27T18:26:38Z</time>
  <course>14.23</course>
  <speed>0.022360679774997897</speed>
  <fix>3d</fix>
</trkpt>
<trkpt lat="40.0738747" lon="-105.2302756">
  <ele>1583.56</ele>
  <time>2026-08-27T18:26:38Z</time>
  <course>106.79</course>
  <speed>0.0</speed>
  <fix>3d</fix>
</trkpt>
<trkpt lat="40.0738746" lon="-105.2302755">
  <ele>1583.64</ele>
  <time>2026-08-27T18:26:38Z</time>
  <course>14.26</course>
  <speed>0.022360679774997897</speed>
  <fix>3d</fix>
</trkpt>
<trkpt lat="40.0738747" lon="-105.2302756">
  <ele>1583.56</ele>
  <time>2026-08-27T18:26:38Z</time>
  <course>105.46</course>
  <speed>0.0</speed>
  <fix>3d</fix>
</trkpt>
<trkpt lat="40.0738746" lon="-105.2302755">
  <ele>1583.64</ele>
  <time>2026-08-27T18:26:39Z</time>
  <course>14.3</course>
  <speed>0.022360679774997897</speed>
  <fix>3d</fix>
</trkpt>
<trkpt lat="40.0738747" lon="-105.2302756">
  <ele>1583.56</ele>
  <time>2026-08-27T18:26:39Z</time>
  <course>103.43</course>
  <speed>0.0</speed>
  <fix>3d</fix>
</trkpt>
<trkpt lat="40.0738746" lon="-105.2302755">
  <ele>1583.64</ele>
  <time>2026-08-27T18:26:39Z</time>
  <course>14.33</course>
  <speed>0.022360679774997897</speed>
  <fix>3d</fix>
</trkpt>
<trkpt lat="40.0738747" lon="-105.2302756">
  <ele>1583.56</ele>
  <time>2026-08-27T18:26:39Z</time>
  <course>102.5</course>
  <speed>0.0</speed>
  <fix>3d</fix>
</trkpt>
<trkpt lat="40.0738746" lon="-105.2302755">
  <ele>1583.64</ele>
  <time>2026-08-27T18:26:39Z</time>
  <course>14.36</course>
  <speed>0.022360679774997897</speed>
  <fix>3d</fix>
</trkpt>
<trkpt lat="40.0738747" lon="-105.2302756">
  <ele>1583.56</ele>
  <time>2026-08-27T18:26:39Z</time>
  <course>102.22</course>
  <speed>0.0</speed>
  <fix>3d</fix>
</trkpt>
<trkpt lat="40.0738746" lon="-105.2302755">
  <ele>1583.64</ele>
  <time>2026-08-27T18:26:39Z</time>
  <course>14.39</course>
  <speed>0.022360679774997897</speed>
  <fix>3d</fix>
</trkpt>
<trkpt lat="40.0738747" lon="-105.2302756">
  <ele>1583.56</ele>
  <time>2026-08-27T18:26:39Z</time>
  <course>101.82</course>
  <speed>0.0</speed>
  <fix>3d</fix>
</trkpt>
<trkpt lat="40.0738746" lon="-105.2302755">
  <ele>1583.64</ele>
  <time>2026-08-27T18:26:39Z</time>
  <course>14.42</course>
  <speed>0.022360679774997897</speed>
  <fix>3d</fix>
</trkpt>
<trkpt lat="40.0738747" lon="-105.2302756">
  <ele>1583.56</ele>
  <time>2026-08-27T18:26:39Z</time>
  <course>101.38</course>
  <speed>0.0</speed>
  <fix>3d</fix>
</trkpt>
<trkpt lat="40.0738746" lon="-105.2302755">
  <ele>1583.64</ele>
  <time>2026-08-27T18:26:39Z</time>
  <course>14.45</course>
  <speed>0.022360679774997897</speed>
  <fix>3d</fix>
</trkpt>
<trkpt lat="40.0738747" lon="-105.2302756">
  <ele>1583.56</ele>
  <time>2026-08-27T18:26:39Z</time>
  <course>101.27</course>
  <speed>0.0</speed>
  <fix>3d</fix>
</trkpt>
<trkpt lat="40.0738746" lon="-105.2302755">
  <ele>1583.64</ele>
  <time>2026-08-27T18:26:39Z</time>
  <course>14.47</course>
  <speed>0.022360679774997897</speed>
  <fix>3d</fix>
</trkpt>
<trkpt lat="40.0738747" lon="-105.2302756">
  <ele>1583.56</ele>
  <time>2026-08-27T18:26:39Z</time>
  <course>101.27</course>
  <speed>0.0</speed>
  <fix>3d</fix>
</trkpt>
<trkpt lat="40.0738746" lon="-105.2302755">
  <ele>1583.64</ele>
  <time>2026-08-27T18:26:39Z</time>
  <course>14.49</course>
  <speed>0.022360679774997897</speed>
  <fix>3d</fix>
</trkpt>
<trkpt lat="40.0738747" lon="-105.2302756">
  <ele>1583.56</ele>
  <time>2026-08-27T18:26:39Z</time>
  <course>100.97</course>
  <speed>0.0</speed>
  <fix>3d</fix>
</trkpt>
<trkpt lat="40.0738746" lon="-105.2302755">
  <ele>1583.64</ele>
  <time>2026-08-27T18:26:39Z</time>
  <course>14.51</course>
  <speed>0.022360679774997897</speed>
  <fix>3d</fix>
</trkpt>
<trkpt lat="40.0738747" lon="-105.2302756">
  <ele>1583.56</ele>
  <time>2026-08-27T18:26:39Z</time>
  <course>100.75</course>
  <speed>0.0</speed>
  <fix>3d</fix>
</trkpt>
<trkpt lat="40.0738746" lon="-105.2302755">
  <ele>1583.64</ele>
  <time>2026-08-27T18:26:39Z</time>
  <course>14.53</course>
  <speed>0.022360679774997897</speed>
  <fix>3d</fix>
</trkpt>
<trkpt lat="40.0738747" lon="-105.2302756">
  <ele>1583.56</ele>
  <time>2026-08-27T18:26:39Z</time>
  <course>100.77</course>
  <speed>0.0</speed>
  <fix>3d</fix>
</trkpt>
<trkpt lat="40.0738746" lon="-105.2302755">
  <ele>1583.64</ele>
  <time>2026-08-27T18:26:39Z</time>
  <course>14.54</course>
  <speed>0.022360679774997897</speed>
  <fix>3d</fix>
</trkpt>
<trkpt lat="40.0738747" lon="-105.2302756">
  <ele>1583.56</ele>
  <time>2026-08-27T18:26:39Z</time>
  <course>100.81</course>
  <speed>0.0</speed>
  <fix>3d</fix>
</trkpt>
<trkpt lat="40.0738746" lon="-105.2302755">
  <ele>1583.64</ele>
  <time>2026-08-27T18:26:39Z</time>
  <course>14.55</course>
  <speed>0.022360679774997897</speed>
  <fix>3d</fix>
</trkpt>
<trkpt lat="40.0738747" lon="-105.2302756">
  <ele>1583.56</ele>
  <time>2026-08-27T18:26:39Z</time>
  <course>100.7</course>
  <speed>0.0</speed>
  <fix>3d</fix>
</trkpt>
<trkpt lat="40.0738746" lon="-105.2302755">
  <ele>1583.64</ele>
  <time>2026-08-27T18:26:39Z</time>
  <course>14.56</course>
  <speed>0.022360679774997897</speed>
  <fix>3d</fix>
</trkpt>
<trkpt lat="40.0738747" lon="-105.2302756">
  <ele>1583.56</ele>
  <time>2026-08-27T18:26:39Z</time>
  <course>100.6</course>
  <speed>0.0</speed>
  <fix>3d</fix>
</trkpt>
<trkpt lat="40.0738746" lon="-105.2302755">
  <ele>1583.64</ele>
  <time>2026-08-27T18:26:39Z</time>
  <course>14.57</course>
  <speed>0.022360679774997897</speed>
  <fix>3d</fix>
</trkpt>
<trkpt lat="40.0738747" lon="-105.2302756">
  <ele>1583.56</ele>
  <time>2026-08-27T18:26:39Z</time>
  <course>100.51</course>
  <speed>0.0</speed>
  <fix>3d</fix>
</trkpt>
<trkpt lat="40.0738746" lon="-105.2302755">
  <ele>1583.64</ele>
  <time>2026-08-27T18:26:39Z</time>
  <course>14.58</course>
  <speed>0.022360679774997897</speed>
  <fix>3d</fix>
</trkpt>
<trkpt lat="40.0738747" lon="-105.2302756">
  <ele>1583.56</ele>
  <time>2026-08-27T18:26:39Z</time>
  <course>100.42</course>
  <speed>0.0</speed>
  <fix>3d</fix>
</trkpt>
<trkpt lat="40.0738746" lon="-105.2302755">
  <ele>1583.64</ele>
  <time>2026-08-27T18:26:39Z</time>
  <course>14.58</course>
  <speed>0.022360679774997897</speed>
  <fix>3d</fix>
</trkpt>
<trkpt lat="40.0738747" lon="-105.2302756">
  <ele>1583.56</ele>
  <time>2026-08-27T18:26:39Z</time>
  <course>100.15</course>
  <speed>0.0</speed>
  <fix>3d</fix>
</trkpt>
<trkpt lat="40.0738746" lon="-105.2302755">
  <ele>1583.64</ele>
  <time>2026-08-27T18:26:39Z</time>
  <course>14.58</course>
  <speed>0.022360679774997897</speed>
  <fix>3d</fix>
</trkpt>
<trkpt lat="40.0738747" lon="-105.2302756">
  <ele>1583.56</ele>
  <time>2026-08-27T18:26:39Z</time>
  <course>99.98</course>
  <speed>0.0</speed>
  <fix>3d</fix>
</trkpt>
<trkpt lat="40.0738746" lon="-105.2302755">
  <ele>1583.64</ele>
  <time>2026-08-27T18:26:39Z</time>
  <course>14.58</course>
  <speed>0.022360679774997897</speed>
  <fix>3d</fix>
</trkpt>
<trkpt lat="40.0738747" lon="-105.2302756">
  <ele>1583.56</ele>
  <time>2026-08-27T18:26:39Z</time>
  <course>99.95</course>
  <speed>0.0</speed>
  <fix>3d</fix>
</trkpt>
<trkpt lat="40.0738746" lon="-105.2302755">
  <ele>1583.64</ele>
  <time>2026-08-27T18:26:39Z</time>
  <course>14.58</course>
  <speed>0.022360679774997897</speed>
  <fix>3d</fix>
</trkpt>
<trkpt lat="40.0738747" lon="-105.2302756">
  <ele>1583.56</ele>
  <time>2026-08-27T18:26:39Z</time>
  <course>99.99</course>
  <speed>0.0</speed>
  <fix>3d</fix>
</trkpt>
<trkpt lat="40.0738746" lon="-105.2302755">
  <ele>1583.63</ele>
  <time>2026-08-27T18:26:39Z</time>
  <course>14.58</course>
  <speed>0.022360679774997897</speed>
  <fix>3d</fix>
</trkpt>
<trkpt lat="40.0738747" lon="-105.2302756">
  <ele>1583.56</ele>
  <time>2026-08-27T18:26:39Z</time>
  <course>100.21</course>
  <speed>0.0</speed>
  <fix>3d</fix>
</trkpt>
<trkpt lat="40.0738746" lon="-105.2302755">
  <ele>1583.63</ele>
  <time>2026-08-27T18:26:39Z</time>
  <course>14.57</course>
  <speed>0.022360679774997897</speed>
  <fix>3d</fix>
</trkpt>
<trkpt lat="40.0738747" lon="-105.2302756">
  <ele>1583.56</ele>
  <time>2026-08-27T18:26:39Z</time>
  <course>99.84</course>
  <speed>0.0</speed>
  <fix>3d</fix>
</trkpt>
<trkpt lat="40.0738746" lon="-105.2302755">
  <ele>1583.63</ele>
  <time>2026-08-27T18:26:39Z</time>
  <course>14.56</course>
  <speed>0.022360679774997897</speed>
  <fix>3d</fix>
</trkpt>
<trkpt lat="40.0738747" lon="-105.2302756">
  <ele>1583.56</ele>
  <time>2026-08-27T18:26:39Z</time>
  <course>99.58</course>
  <speed>0.0</speed>
  <fix>3d</fix>
</trkpt>
<trkpt lat="40.0738746" lon="-105.2302755">
  <ele>1583.63</ele>
  <time>2026-08-27T18:26:39Z</time>
  <course>14.55</course>
  <speed>0.022360679774997897</speed>
  <fix>3d</fix>
</trkpt>
<trkpt lat="40.0738747" lon="-105.2302756">
  <ele>1583.56</ele>
  <time>2026-08-27T18:26:39Z</time>
  <course>99.45</course>
  <speed>0.0</speed>
  <fix>3d</fix>
</trkpt>
<trkpt lat="40.0738746" lon="-105.2302755">
  <ele>1583.63</ele>
  <time>2026-08-27T18:26:39Z</time>
  <course>14.54</course>
  <speed>0.022360679774997897</speed>
  <fix>3d</fix>
</trkpt>
<trkpt lat="40.0738747" lon="-105.2302756">
  <ele>1583.56</ele>
  <time>2026-08-27T18:26:39Z</time>
  <course>99.31</course>
  <speed>0.0</speed>
  <fix>3d</fix>
</trkpt>
<trkpt lat="40.0738746" lon="-105.2302755">
  <ele>1583.63</ele>
  <time>2026-08-27T18:26:39Z</time>
  <course>14.53</course>
  <speed>0.022360679774997897</speed>
  <fix>3d</fix>
</trkpt>
<trkpt lat="40.0738747" lon="-105.2302756">
  <ele>1583.56</ele>
  <time>2026-08-27T18:26:39Z</time>
  <course>99.16</course>
  <speed>0.0</speed>
  <fix>3d</fix>
</trkpt>
<trkpt lat="40.0738746" lon="-105.2302755">
  <ele>1583.63</ele>
  <time>2026-08-27T18:26:39Z</time>
  <course>14.51</course>
  <speed>0.022360679774997897</speed>
  <fix>3d</fix>
</trkpt>
<trkpt lat="40.0738747" lon="-105.2302756">
  <ele>1583.56</ele>
  <time>2026-08-27T18:26:39Z</time>
  <course>99.02</course>
  <speed>0.0</speed>
  <fix>3d</fix>
</trkpt>
<trkpt lat="40.0738746" lon="-105.2302755">
  <ele>1583.63</ele>
  <time>2026-08-27T18:26:39Z</time>
  <course>14.49</course>
  <speed>0.022360679774997897</speed>
  <fix>3d</fix>
</trkpt>
<trkpt lat="40.0738747" lon="-105.2302756">
  <ele>1583.56</ele>
  <time>2026-08-27T18:26:39Z</time>
  <course>98.87</course>
  <speed>0.0</speed>
  <fix>3d</fix>
</trkpt>
<trkpt lat="40.0738746" lon="-105.2302755">
  <ele>1583.62</ele>
  <time>2026-08-27T18:26:39Z</time>
  <course>14.47</course>
  <speed>0.022360679774997897</speed>
  <fix>3d</fix>
</trkpt>
<trkpt lat="40.0738747" lon="-105.2302756">
  <ele>1583.56</ele>
  <time>2026-08-27T18:26:39Z</time>
  <course>97.82</course>
  <speed>0.0</speed>
  <fix>3d</fix>
</trkpt>
<trkpt lat="40.0738746" lon="-105.2302755">
  <ele>1583.62</ele>
  <time>2026-08-27T18:26:39Z</time>
  <course>14.45</course>
  <speed>0.022360679774997897</speed>
  <fix>3d</fix>
</trkpt>
<trkpt lat="40.0738747" lon="-105.2302756">
  <ele>1583.56</ele>
  <time>2026-08-27T18:26:39Z</time>
  <course>284.53</course>
  <speed>0.0</speed>
  <fix>3d</fix>
</trkpt>
<trkpt lat="40.0738746" lon="-105.2302755">
  <ele>1583.62</ele>
  <time>2026-08-27T18:26:39Z</time>
  <course>14.43</course>
  <speed>0.022360679774997897</speed>
  <fix>3d</fix>
</trkpt>
<trkpt lat="40.0738747" lon="-105.2302756">
  <ele>1583.56</ele>
  <time>2026-08-27T18:26:39Z</time>
  <course>98.46</course>
  <speed>0.0</speed>
  <fix>3d</fix>
</trkpt>
<trkpt lat="40.0738746" lon="-105.2302755">
  <ele>1583.62</ele>
  <time>2026-08-27T18:26:39Z</time>
  <course>14.4</course>
  <speed>0.022360679774997897</speed>
  <fix>3d</fix>
</trkpt>
<trkpt lat="40.0738747" lon="-105.2302756">
  <ele>1583.56</ele>
  <time>2026-08-27T18:26:39Z</time>
  <course>98.43</course>
  <speed>0.0</speed>
  <fix>3d</fix>
</trkpt>
<trkpt lat="40.0738746" lon="-105.2302755">
  <ele>1583.62</ele>
  <time>2026-08-27T18:26:39Z</time>
  <course>14.38</course>
  <speed>0.022360679774997897</speed>
  <fix>3d</fix>
</trkpt>
<trkpt lat="40.0738747" lon="-105.2302756">
  <ele>1583.56</ele>
  <time>2026-08-27T18:26:39Z</time>
  <course>95.66</course>
  <speed>0.0</speed>
  <fix>3d</fix>
</trkpt>
<trkpt lat="40.0738746" lon="-105.2302755">
  <ele>1583.62</ele>
  <time>2026-08-27T18:26:39Z</time>
  <course>14.35</course>
  <speed>0.022360679774997897</speed>
  <fix>3d</fix>
</trkpt>
<trkpt lat="40.0738747" lon="-105.2302756">
  <ele>1583.56</ele>
  <time>2026-08-27T18:26:39Z</time>
  <course>280.3</course>
  <speed>0.0</speed>
  <fix>3d</fix>
</trkpt>
<trkpt lat="40.0738746" lon="-105.2302755">
  <ele>1583.62</ele>
  <time>2026-08-27T18:26:39Z</time>
  <course>14.32</course>
  <speed>0.022360679774997897</speed>
  <fix>3d</fix>
</trkpt>
<trkpt lat="40.0738747" lon="-105.2302756">
  <ele>1583.56</ele>
  <time>2026-08-27T18:26:39Z</time>
  <course>97.44</course>
  <speed>0.0</speed>
  <fix>3d</fix>
</trkpt>
<trkpt lat="40.0738746" lon="-105.2302755">
  <ele>1583.62</ele>
  <time>2026-08-27T18:26:39Z</time>
  <course>14.29</course>
  <speed>0.022360679774997897</speed>
  <fix>3d</fix>
</trkpt>
<trkpt lat="40.0738747" lon="-105.2302756">
  <ele>1583.56</ele>
  <time>2026-08-27T18:26:39Z</time>
  <course>97.75</course>
  <speed>0.0</speed>
  <fix>3d</fix>
</trkpt>
<trkpt lat="40.0738746" lon="-105.2302755">
  <ele>1583.61</ele>
  <time>2026-08-27T18:26:39Z</time>
  <course>14.27</course>
  <speed>0.022360679774997897</speed>
  <fix>3d</fix>
</trkpt>
<trkpt lat="40.0738747" lon="-105.2302756">
  <ele>1583.56</ele>
  <time>2026-08-27T18:26:39Z</time>
  <course>279.24</course>
  <speed>0.0</speed>
  <fix>3d</fix>
</trkpt>
<trkpt lat="40.0738746" lon="-105.2302755">
  <ele>1583.61</ele>
  <time>2026-08-27T18:26:39Z</time>
  <course>14.24</course>
  <speed>0.022360679774997897</speed>
  <fix>3d</fix>
</trkpt>
<trkpt lat="40.0738747" lon="-105.2302756">
  <ele>1583.56</ele>
  <time>2026-08-27T18:26:39Z</time>
  <course>278.83</course>
  <speed>0.0</speed>
  <fix>3d</fix>
</trkpt>
<trkpt lat="40.0738746" lon="-105.2302755">
  <ele>1583.61</ele>
  <time>2026-08-27T18:26:39Z</time>
  <course>14.21</course>
  <speed>0.022360679774997897</speed>
  <fix>3d</fix>
</trkpt>
<trkpt lat="40.0738747" lon="-105.2302756">
  <ele>1583.56</ele>
  <time>2026-08-27T18:26:39Z</time>
  <course>96.95</course>
  <speed>0.0</speed>
  <fix>3d</fix>
</trkpt>
<trkpt lat="40.0738746" lon="-105.2302755">
  <ele>1583.6</ele>
  <time>2026-08-27T18:26:39Z</time>
  <course>14.19</course>
  <speed>0.022360679774997897</speed>
  <fix>3d</fix>
</trkpt>
<trkpt lat="40.0738747" lon="-105.2302756">
  <ele>1583.56</ele>
  <time>2026-08-27T18:26:39Z</time>
  <course>108.94</course>
  <speed>0.0</speed>
  <fix>3d</fix>
</trkpt>
<trkpt lat="40.0738746" lon="-105.2302755">
  <ele>1583.6</ele>
  <time>2026-08-27T18:26:39Z</time>
  <course>14.16</course>
  <speed>0.022360679774997897</speed>
  <fix>3d</fix>
</trkpt>
<trkpt lat="40.0738747" lon="-105.2302756">
  <ele>1583.56</ele>
  <time>2026-08-27T18:26:39Z</time>
  <course>239.5</course>
  <speed>0.0</speed>
  <fix>3d</fix>
</trkpt>
<trkpt lat="40.0738746" lon="-105.2302755">
  <ele>1583.6</ele>
  <time>2026-08-27T18:26:39Z</time>
  <course>14.13</course>
  <speed>0.022360679774997897</speed>
  <fix>3d</fix>
</trkpt>
<trkpt lat="40.0738747" lon="-105.2302756">
  <ele>1583.56</ele>
  <time>2026-08-27T18:26:39Z</time>
  <course>257.61</course>
  <speed>0.0</speed>
  <fix>3d</fix>
</trkpt>
<trkpt lat="40.0738746" lon="-105.2302755">
  <ele>1583.61</ele>
  <time>2026-08-27T18:26:39Z</time>
  <course>14.11</course>
  <speed>0.022360679774997897</speed>
  <fix>3d</fix>
</trkpt>
<trkpt lat="40.0738747" lon="-105.2302756">
  <ele>1583.56</ele>
  <time>2026-08-27T18:26:39Z</time>
  <course>90.25</course>
  <speed>0.0</speed>
  <fix>3d</fix>
</trkpt>
<trkpt lat="40.0738746" lon="-105.2302755">
  <ele>1583.61</ele>
  <time>2026-08-27T18:26:39Z</time>
  <course>14.08</course>
  <speed>0.022360679774997897</speed>
  <fix>3d</fix>
</trkpt>
<trkpt lat="40.0738747" lon="-105.2302756">
  <ele>1583.56</ele>
  <time>2026-08-27T18:26:39Z</time>
  <course>96.72</course>
  <speed>0.0</speed>
  <fix>3d</fix>
</trkpt>
<trkpt lat="40.0738746" lon="-105.2302755">
  <ele>1583.61</ele>
  <time>2026-08-27T18:26:39Z</time>
  <course>14.06</course>
  <speed>0.022360679774997897</speed>
  <fix>3d</fix>
</trkpt>
<trkpt lat="40.0738747" lon="-105.2302756">
  <ele>1583.56</ele>
  <time>2026-08-27T18:26:39Z</time>
  <course>275.82</course>
  <speed>0.0</speed>
  <fix>3d</fix>
</trkpt>
<trkpt lat="40.0738746" lon="-105.2302755">
  <ele>1583.61</ele>
  <time>2026-08-27T18:26:39Z</time>
  <course>14.03</course>
  <speed>0.022360679774997897</speed>
  <fix>3d</fix>
</trkpt>
<trkpt lat="40.0738747" lon="-105.2302756">
  <ele>1583.56</ele>
  <time>2026-08-27T18:26:39Z</time>
  <course>276.58</course>
  <speed>0.0</speed>
  <fix>3d</fix>
</trkpt>
<trkpt lat="40.0738746" lon="-105.2302755">
  <ele>1583.61</ele>
  <time>2026-08-27T18:26:39Z</time>
  <course>14.01</course>
  <speed>0.022360679774997897</speed>
  <fix>3d</fix>
</trkpt>
<trkpt lat="40.0738747" lon="-105.2302756">
  <ele>1583.56</ele>
  <time>2026-08-27T18:26:39Z</time>
  <course>98.52</course>
  <speed>0.0</speed>
  <fix>3d</fix>
</trkpt>
<trkpt lat="40.0738746" lon="-105.2302755">
  <ele>1583.62</ele>
  <time>2026-08-27T18:26:39Z</time>
  <course>13.98</course>
  <speed>0.022360679774997897</speed>
  <fix>3d</fix>
</trkpt>
<trkpt lat="40.0738747" lon="-105.2302756">
  <ele>1583.56</ele>
  <time>2026-08-27T18:26:39Z</time>
  <course>100.52</course>
  <speed>0.0</speed>
  <fix>3d</fix>
</trkpt>
<trkpt lat="40.0738746" lon="-105.2302755">
  <ele>1583.62</ele>
  <time>2026-08-27T18:26:39Z</time>
  <course>13.96</course>
  <speed>0.022360679774997897</speed>
  <fix>3d</fix>
</trkpt>
<trkpt lat="40.0738747" lon="-105.2302756">
  <ele>1583.56</ele>
  <time>2026-08-27T18:26:39Z</time>
  <course>276.68</course>
  <speed>0.0</speed>
  <fix>3d</fix>
</trkpt>
<trkpt lat="40.0738746" lon="-105.2302755">
  <ele>1583.62</ele>
  <time>2026-08-27T18:26:39Z</time>
  <course>13.93</course>
  <speed>0.022360679774997897</speed>
  <fix>3d</fix>
</trkpt>
<trkpt lat="40.0738747" lon="-105.2302756">
  <ele>1583.56</ele>
  <time>2026-08-27T18:26:39Z</time>
  <course>275.8</course>
  <speed>0.0</speed>
  <fix>3d</fix>
</trkpt>
<trkpt lat="40.0738746" lon="-105.2302755">
  <ele>1583.62</ele>
  <time>2026-08-27T18:26:39Z</time>
  <course>13.91</course>
  <speed>0.022360679774997897</speed>
  <fix>3d</fix>
</trkpt>
<trkpt lat="40.0738747" lon="-105.2302756">
  <ele>1583.56</ele>
  <time>2026-08-27T18:26:39Z</time>
  <course>98.81</course>
  <speed>0.0</speed>
  <fix>3d</fix>
</trkpt>
<trkpt lat="40.0738746" lon="-105.2302755">
  <ele>1583.63</ele>
  <time>2026-08-27T18:26:39Z</time>
  <course>13.89</course>
  <speed>0.022360679774997897</speed>
  <fix>3d</fix>
</trkpt>
<trkpt lat="40.0738747" lon="-105.2302756">
  <ele>1583.56</ele>
  <time>2026-08-27T18:26:39Z</time>
  <course>99.3</course>
  <speed>0.0</speed>
  <fix>3d</fix>
</trkpt>
<trkpt lat="40.0738746" lon="-105.2302755">
  <ele>1583.63</ele>
  <time>2026-08-27T18:26:39Z</time>
  <course>13.86</course>
  <speed>0.022360679774997897</speed>
  <fix>3d</fix>
</trkpt>
<trkpt lat="40.0738747" lon="-105.2302756">
  <ele>1583.56</ele>
  <time>2026-08-27T18:26:39Z</time>
  <course>276.27</course>
  <speed>0.0</speed>
  <fix>3d</fix>
</trkpt>
<trkpt lat="40.0738746" lon="-105.2302755">
  <ele>1583.63</ele>
  <time>2026-08-27T18:26:39Z</time>
  <course>13.84</course>
  <speed>0.022360679774997897</speed>
  <fix>3d</fix>
</trkpt>
<trkpt lat="40.0738747" lon="-105.2302756">
  <ele>1583.56</ele>
  <time>2026-08-27T18:26:39Z</time>
  <course>276.44</course>
  <speed>0.0</speed>
  <fix>3d</fix>
</trkpt>
<trkpt lat="40.0738746" lon="-105.2302755">
  <ele>1583.63</ele>
  <time>2026-08-27T18:26:39Z</time>
  <course>13.82</course>
  <speed>0.022360679774997897</speed>
  <fix>3d</fix>
</trkpt>
<trkpt lat="40.0738747" lon="-105.2302756">
  <ele>1583.56</ele>
  <time>2026-08-27T18:26:39Z</time>
  <course>106.32</course>
  <speed>0.0</speed>
  <fix>3d</fix>
</trkpt>
<trkpt lat="40.0738746" lon="-105.2302755">
  <ele>1583.63</ele>
  <time>2026-08-27T18:26:39Z</time>
  <course>13.79</course>
  <speed>0.022360679774997897</speed>
  <fix>3d</fix>
</trkpt>
<trkpt lat="40.0738747" lon="-105.2302756">
  <ele>1583.56</ele>
  <time>2026-08-27T18:26:39Z</time>
  <course>98.98</course>
  <speed>0.0</speed>
  <fix>3d</fix>
</trkpt>
<trkpt lat="40.0738746" lon="-105.2302755">
  <ele>1583.63</ele>
  <time>2026-08-27T18:26:39Z</time>
  <course>13.77</course>
  <speed>0.022360679774997897</speed>
  <fix>3d</fix>
</trkpt>
<trkpt lat="40.0738747" lon="-105.2302756">
  <ele>1583.56</ele>
  <time>2026-08-27T18:26:39Z</time>
  <course>275.06</course>
  <speed>0.0</speed>
  <fix>3d</fix>
</trkpt>
<trkpt lat="40.0738746" lon="-105.2302755">
  <ele>1583.63</ele>
  <time>2026-08-27T18:26:39Z</time>
  <course>13.75</course>
  <speed>0.022360679774997897</speed>
  <fix>3d</fix>
</trkpt>
<trkpt lat="40.0738747" lon="-105.2302756">
  <ele>1583.56</ele>
  <time>2026-08-27T18:26:39Z</time>
  <course>275.99</course>
  <speed>0.0</speed>
  <fix>3d</fix>
</trkpt>
<trkpt lat="40.0738746" lon="-105.2302755">
  <ele>1583.63</ele>
  <time>2026-08-27T18:26:39Z</time>
  <course>13.72</course>
  <speed>0.022360679774997897</speed>
  <fix>3d</fix>
</trkpt>
<trkpt lat="40.0738747" lon="-105.2302756">
  <ele>1583.56</ele>
  <time>2026-08-27T18:26:39Z</time>
  <course>238.32</course>
  <speed>0.0</speed>
  <fix>3d</fix>
</trkpt>
<trkpt lat="40.0738746" lon="-105.2302755">
  <ele>1583.63</ele>
  <time>2026-08-27T18:26:39Z</time>
  <course>13.7</course>
  <speed>0.022360679774997897</speed>
  <fix>3d</fix>
</trkpt>
<trkpt lat="40.0738747" lon="-105.2302756">
  <ele>1583.56</ele>
  <time>2026-08-27T18:26:39Z</time>
  <course>96.78</course>
  <speed>0.0</speed>
  <fix>3d</fix>
</trkpt>
<trkpt lat="40.0738746" lon="-105.2302755">
  <ele>1583.63</ele>
  <time>2026-08-27T18:26:39Z</time>
  <course>13.68</course>
  <speed>0.022360679774997897</speed>
  <fix>3d</fix>
</trkpt>
<trkpt lat="40.0738747" lon="-105.2302756">
  <ele>1583.56</ele>
  <time>2026-08-27T18:26:39Z</time>
  <course>85.58</course>
  <speed>0.0</speed>
  <fix>3d</fix>
</trkpt>
<trkpt lat="40.0738746" lon="-105.2302755">
  <ele>1583.63</ele>
  <time>2026-08-27T18:26:39Z</time>
  <course>13.66</course>
  <speed>0.022360679774997897</speed>
  <fix>3d</fix>
</trkpt>
<trkpt lat="40.0738747" lon="-105.2302756">
  <ele>1583.56</ele>
  <time>2026-08-27T18:26:39Z</time>
  <course>275.9</course>
  <speed>0.0</speed>
  <fix>3d</fix>
</trkpt>
<trkpt lat="40.0738746" lon="-105.2302755">
  <ele>1583.64</ele>
  <time>2026-08-27T18:26:39Z</time>
  <course>13.63</course>
  <speed>0.022360679774997897</speed>
  <fix>3d</fix>
</trkpt>
<trkpt lat="40.0738747" lon="-105.2302756">
  <ele>1583.56</ele>
  <time>2026-08-27T18:26:39Z</time>
  <course>273.71</course>
  <speed>0.0</speed>
  <fix>3d</fix>
</trkpt>
<trkpt lat="40.0738746" lon="-105.2302755">
  <ele>1583.64</ele>
  <time>2026-08-27T18:26:39Z</time>
  <course>13.61</course>
  <speed>0.022360679774997897</speed>
  <fix>3d</fix>
</trkpt>
<trkpt lat="40.0738747" lon="-105.2302756">
  <ele>1583.56</ele>
  <time>2026-08-27T18:26:39Z</time>
  <course>99.2</course>
  <speed>0.0</speed>
  <fix>3d</fix>
</trkpt>
<trkpt lat="40.0738746" lon="-105.2302755">
  <ele>1583.64</ele>
  <time>2026-08-27T18:26:39Z</time>
  <course>13.59</course>
  <speed>0.022360679774997897</speed>
  <fix>3d</fix>
</trkpt>
<trkpt lat="40.0738747" lon="-105.2302756">
  <ele>1583.56</ele>
  <time>2026-08-27T18:26:39Z</time>
  <course>99.88</course>
  <speed>0.0</speed>
  <fix>3d</fix>
</trkpt>
<trkpt lat="40.0738746" lon="-105.2302755">
  <ele>1583.64</ele>
  <time>2026-08-27T18:26:39Z</time>
  <course>13.57</course>
  <speed>0.022360679774997897</speed>
  <fix>3d</fix>
</trkpt>
<trkpt lat="40.0738747" lon="-105.2302756">
  <ele>1583.56</ele>
  <time>2026-08-27T18:26:39Z</time>
  <course>275.06</course>
  <speed>0.0</speed>
  <fix>3d</fix>
</trkpt>
<trkpt lat="40.0738746" lon="-105.2302755">
  <ele>1583.64</ele>
  <time>2026-08-27T18:26:39Z</time>
  <course>13.54</course>
  <speed>0.022360679774997897</speed>
  <fix>3d</fix>
</trkpt>
<trkpt lat="40.0738747" lon="-105.2302756">
  <ele>1583.56</ele>
  <time>2026-08-27T18:26:39Z</time>
  <course>275.15</course>
  <speed>0.0</speed>
  <fix>3d</fix>
</trkpt>
<trkpt lat="40.0738746" lon="-105.2302755">
  <ele>1583.64</ele>
  <time>2026-08-27T18:26:39Z</time>
  <course>13.52</course>
  <speed>0.022360679774997897</speed>
  <fix>3d</fix>
</trkpt>
<trkpt lat="40.0738747" lon="-105.2302756">
  <ele>1583.56</ele>
  <time>2026-08-27T18:26:39Z</time>
  <course>104.33</course>
  <speed>0.0</speed>
  <fix>3d</fix>
</trkpt>
<trkpt lat="40.0738746" lon="-105.2302755">
  <ele>1583.64</ele>
  <time>2026-08-27T18:26:39Z</time>
  <course>13.5</course>
  <speed>0.022360679774997897</speed>
  <fix>3d</fix>
</trkpt>
<trkpt lat="40.0738747" lon="-105.2302756">
  <ele>1583.56</ele>
  <time>2026-08-27T18:26:39Z</time>
  <course>100.0</course>
  <speed>0.0</speed>
  <fix>3d</fix>
</trkpt>
<trkpt lat="40.0738746" lon="-105.2302755">
  <ele>1583.64</ele>
  <time>2026-08-27T18:26:39Z</time>
  <course>13.48</course>
  <speed>0.022360679774997897</speed>
  <fix>3d</fix>
</trkpt>
<trkpt lat="40.0738747" lon="-105.2302756">
  <ele>1583.56</ele>
  <time>2026-08-27T18:26:39Z</time>
  <course>105.52</course>
  <speed>0.0</speed>
  <fix>3d</fix>
</trkpt>
<trkpt lat="40.0738746" lon="-105.2302755">
  <ele>1583.64</ele>
  <time>2026-08-27T18:26:39Z</time>
  <course>13.46</course>
  <speed>0.022360679774997897</speed>
  <fix>3d</fix>
</trkpt>
<trkpt lat="40.0738747" lon="-105.2302756">
  <ele>1583.56</ele>
  <time>2026-08-27T18:26:39Z</time>
  <course>274.53</course>
  <speed>0.0</speed>
  <fix>3d</fix>
</trkpt>
<trkpt lat="40.0738746" lon="-105.2302755">
  <ele>1583.64</ele>
  <time>2026-08-27T18:26:39Z</time>
  <course>13.44</course>
  <speed>0.022360679774997897</speed>
  <fix>3d</fix>
</trkpt>
<trkpt lat="40.0738747" lon="-105.2302756">
  <ele>1583.56</ele>
  <time>2026-08-27T18:26:39Z</time>
  <course>274.48</course>
  <speed>0.0</speed>
  <fix>3d</fix>
</trkpt>
<trkpt lat="40.0738746" lon="-105.2302755">
  <ele>1583.64</ele>
  <time>2026-08-27T18:26:39Z</time>
  <course>13.42</course>
  <speed>0.022360679774997897</speed>
  <fix>3d</fix>
</trkpt>
<trkpt lat="40.0738747" lon="-105.2302756">
  <ele>1583.56</ele>
  <time>2026-08-27T18:26:39Z</time>
  <course>101.94</course>
  <speed>0.0</speed>
  <fix>3d</fix>
</trkpt>
<trkpt lat="40.0738746" lon="-105.2302755">
  <ele>1583.64</ele>
  <time>2026-08-27T18:26:39Z</time>
  <course>13.39</course>
  <speed>0.022360679774997897</speed>
  <fix>3d</fix>
</trkpt>
<trkpt lat="40.0738747" lon="-105.2302756">
  <ele>1583.56</ele>
  <time>2026-08-27T18:26:39Z</time>
  <course>101.4</course>
  <speed>0.0</speed>
  <fix>3d</fix>
</trkpt>
<trkpt lat="40.0738746" lon="-105.2302755">
  <ele>1583.65</ele>
  <time>2026-08-27T18:26:39Z</time>
  <course>13.37</course>
  <speed>0.022360679774997897</speed>
  <fix>3d</fix>
</trkpt>
<trkpt lat="40.0738747" lon="-105.2302756">
  <ele>1583.56</ele>
  <time>2026-08-27T18:26:39Z</time>
  <course>273.03</course>
  <speed>0.0</speed>
  <fix>3d</fix>
</trkpt>
<trkpt lat="40.0738746" lon="-105.2302755">
  <ele>1583.65</ele>
  <time>2026-08-27T18:26:39Z</time>
  <course>13.35</course>
  <speed>0.022360679774997897</speed>
  <fix>3d</fix>
</trkpt>
<trkpt lat="40.0738747" lon="-105.2302756">
  <ele>1583.56</ele>
  <time>2026-08-27T18:26:39Z</time>
  <course>274.33</course>
  <speed>0.0</speed>
  <fix>3d</fix>
</trkpt>
<trkpt lat="40.0738746" lon="-105.2302755">
  <ele>1583.65</ele>
  <time>2026-08-27T18:26:39Z</time>
  <course>13.33</course>
  <speed>0.022360679774997897</speed>
  <fix>3d</fix>
</trkpt>
<trkpt lat="40.0738747" lon="-105.2302756">
  <ele>1583.56</ele>
  <time>2026-08-27T18:26:39Z</time>
  <course>271.6</course>
  <speed>0.0</speed>
  <fix>3d</fix>
</trkpt>
<trkpt lat="40.0738746" lon="-105.2302755">
  <ele>1583.65</ele>
  <time>2026-08-27T18:26:39Z</time>
  <course>13.31</course>
  <speed>0.022360679774997897</speed>
  <fix>3d</fix>
</trkpt>
<trkpt lat="40.0738747" lon="-105.2302756">
  <ele>1583.56</ele>
  <time>2026-08-27T18:26:39Z</time>
  <course>100.58</course>
  <speed>0.0</speed>
  <fix>3d</fix>
</trkpt>
<trkpt lat="40.0738746" lon="-105.2302755">
  <ele>1583.65</ele>
  <time>2026-08-27T18:26:39Z</time>
  <course>13.29</course>
  <speed>0.022360679774997897</speed>
  <fix>3d</fix>
</trkpt>
<trkpt lat="40.0738747" lon="-105.2302756">
  <ele>1583.56</ele>
  <time>2026-08-27T18:26:39Z</time>
  <course>108.43</course>
  <speed>0.0</speed>
  <fix>3d</fix>
</trkpt>
<trkpt lat="40.0738746" lon="-105.2302755">
  <ele>1583.64</ele>
  <time>2026-08-27T18:26:39Z</time>
  <course>13.27</course>
  <speed>0.022360679774997897</speed>
  <fix>3d</fix>
</trkpt>
<trkpt lat="40.0738747" lon="-105.2302756">
  <ele>1583.56</ele>
  <time>2026-08-27T18:26:39Z</time>
  <course>273.75</course>
  <speed>0.0</speed>
  <fix>3d</fix>
</trkpt>
<trkpt lat="40.0738746" lon="-105.2302755">
  <ele>1583.64</ele>
  <time>2026-08-27T18:26:39Z</time>
  <course>13.25</course>
  <speed>0.022360679774997897</speed>
  <fix>3d</fix>
</trkpt>
<trkpt lat="40.0738747" lon="-105.2302756">
  <ele>1583.56</ele>
  <time>2026-08-27T18:26:39Z</time>
  <course>274.03</course>
  <speed>0.0</speed>
  <fix>3d</fix>
</trkpt>
<trkpt lat="40.0738746" lon="-105.2302755">
  <ele>1583.64</ele>
  <time>2026-08-27T18:26:39Z</time>
  <course>13.23</course>
  <speed>0.022360679774997897</speed>
  <fix>3d</fix>
</trkpt>
<trkpt lat="40.0738747" lon="-105.2302756">
  <ele>1583.56</ele>
  <time>2026-08-27T18:26:39Z</time>
  <course>257.42</course>
  <speed>0.0</speed>
  <fix>3d</fix>
</trkpt>
<trkpt lat="40.0738746" lon="-105.2302755">
  <ele>1583.64</ele>
  <time>2026-08-27T18:26:39Z</time>
  <course>13.21</course>
  <speed>0.022360679774997897</speed>
  <fix>3d</fix>
</trkpt>
<trkpt lat="40.0738747" lon="-105.2302756">
  <ele>1583.56</ele>
  <time>2026-08-27T18:26:39Z</time>
  <course>101.97</course>
  <speed>0.0</speed>
  <fix>3d</fix>
</trkpt>
<trkpt lat="40.0738746" lon="-105.2302755">
  <ele>1583.64</ele>
  <time>2026-08-27T18:26:39Z</time>
  <course>13.19</course>
  <speed>0.022360679774997897</speed>
  <fix>3d</fix>
</trkpt>
<trkpt lat="40.0738747" lon="-105.2302756">
  <ele>1583.56</ele>
  <time>2026-08-27T18:26:39Z</time>
  <course>130.49</course>
  <speed>0.0</speed>
  <fix>3d</fix>
</trkpt>
<trkpt lat="40.0738746" lon="-105.2302755">
  <ele>1583.64</ele>
  <time>2026-08-27T18:26:39Z</time>
  <course>13.17</course>
  <speed>0.022360679774997897</speed>
  <fix>3d</fix>
</trkpt>
<trkpt lat="40.0738747" lon="-105.2302756">
  <ele>1583.56</ele>
  <time>2026-08-27T18:26:39Z</time>
  <course>273.38</course>
  <speed>0.0</speed>
  <fix>3d</fix>
</trkpt>
<trkpt lat="40.0738746" lon="-105.2302755">
  <ele>1583.64</ele>
  <time>2026-08-27T18:26:39Z</time>
  <course>13.15</course>
  <speed>0.022360679774997897</speed>
  <fix>3d</fix>
</trkpt>
<trkpt lat="40.0738747" lon="-105.2302756">
  <ele>1583.56</ele>
  <time>2026-08-27T18:26:39Z</time>
  <course>273.38</course>
  <speed>0.0</speed>
  <fix>3d</fix>
</trkpt>
<trkpt lat="40.0738746" lon="-105.2302755">
  <ele>1583.64</ele>
  <time>2026-08-27T18:26:39Z</time>
  <course>13.13</course>
  <speed>0.022360679774997897</speed>
  <fix>3d</fix>
</trkpt>
<trkpt lat="40.0738747" lon="-105.2302756">
  <ele>1583.56</ele>
  <time>2026-08-27T18:26:39Z</time>
  <course>113.12</course>
  <speed>0.0</speed>
  <fix>3d</fix>
</trkpt>
<trkpt lat="40.0738746" lon="-105.2302755">
  <ele>1583.64</ele>
  <time>2026-08-27T18:26:39Z</time>
  <course>13.11</course>
  <speed>0.022360679774997897</speed>
  <fix>3d</fix>
</trkpt>
<trkpt lat="40.0738747" lon="-105.2302756">
  <ele>1583.56</ele>
  <time>2026-08-27T18:26:39Z</time>
  <course>106.36</course>
  <speed>0.0</speed>
  <fix>3d</fix>
</trkpt>
<trkpt lat="40.0738746" lon="-105.2302755">
  <ele>1583.64</ele>
  <time>2026-08-27T18:26:39Z</time>
  <course>13.08</course>
  <speed>0.022360679774997897</speed>
  <fix>3d</fix>
</trkpt>
<trkpt lat="40.0738747" lon="-105.2302756">
  <ele>1583.56</ele>
  <time>2026-08-27T18:26:39Z</time>
  <course>212.73</course>
  <speed>0.0</speed>
  <fix>3d</fix>
</trkpt>
<trkpt lat="40.0738746" lon="-105.2302755">
  <ele>1583.65</ele>
  <time>2026-08-27T18:26:39Z</time>
  <course>13.06</course>
  <speed>0.022360679774997897</speed>
  <fix>3d</fix>
</trkpt>
<trkpt lat="40.0738747" lon="-105.2302756">
  <ele>1583.56</ele>
  <time>2026-08-27T18:26:39Z</time>
  <course>191.34</course>
  <speed>0.0</speed>
  <fix>3d</fix>
</trkpt>
<trkpt lat="40.0738746" lon="-105.2302755">
  <ele>1583.65</ele>
  <time>2026-08-27T18:26:39Z</time>
  <course>13.04</course>
  <speed>0.022360679774997897</speed>
  <fix>3d</fix>
</trkpt>
<trkpt lat="40.0738747" lon="-105.2302756">
  <ele>1583.56</ele>
  <time>2026-08-27T18:26:39Z</time>
  <course>154.96</course>
  <speed>0.0</speed>
  <fix>3d</fix>
</trkpt>
<trkpt lat="40.0738746" lon="-105.2302755">
  <ele>1583.65</ele>
  <time>2026-08-27T18:26:39Z</time>
  <course>13.02</course>
  <speed>0.022360679774997897</speed>
  <fix>3d</fix>
</trkpt>
<trkpt lat="40.0738747" lon="-105.2302756">
  <ele>1583.56</ele>
  <time>2026-08-27T18:26:39Z</time>
  <course>161.14</course>
  <speed>0.0</speed>
  <fix>3d</fix>
</trkpt>
<trkpt lat="40.0738746" lon="-105.2302755">
  <ele>1583.65</ele>
  <time>2026-08-27T18:26:39Z</time>
  <course>13.0</course>
  <speed>0.022360679774997897</speed>
  <fix>3d</fix>
</trkpt>
<trkpt lat="40.0738747" lon="-105.2302756">
  <ele>1583.56</ele>
  <time>2026-08-27T18:26:39Z</time>
  <course>164.82</course>
  <speed>0.0</speed>
  <fix>3d</fix>
</trkpt>
<trkpt lat="40.0738746" lon="-105.2302755">
  <ele>1583.65</ele>
  <time>2026-08-27T18:26:39Z</time>
  <course>12.98</course>
  <speed>0.022360679774997897</speed>
  <fix>3d</fix>
</trkpt>
<trkpt lat="40.0738747" lon="-105.2302756">
  <ele>1583.56</ele>
  <time>2026-08-27T18:26:39Z</time>
  <course>163.38</course>
  <speed>0.0</speed>
  <fix>3d</fix>
</trkpt>
<trkpt lat="40.0738746" lon="-105.2302755">
  <ele>1583.65</ele>
  <time>2026-08-27T18:26:39Z</time>
  <course>12.96</course>
  <speed>0.022360679774997897</speed>
  <fix>3d</fix>
</trkpt>
<trkpt lat="40.0738747" lon="-105.2302756">
  <ele>1583.56</ele>
  <time>2026-08-27T18:26:39Z</time>
  <course>272.64</course>
  <speed>0.0</speed>
  <fix>3d</fix>
</trkpt>
<trkpt lat="40.0738746" lon="-105.2302755">
  <ele>1583.65</ele>
  <time>2026-08-27T18:26:39Z</time>
  <course>12.93</course>
  <speed>0.022360679774997897</speed>
  <fix>3d</fix>
</trkpt>
<trkpt lat="40.0738747" lon="-105.2302756">
  <ele>1583.56</ele>
  <time>2026-08-27T18:26:39Z</time>
  <course>272.89</course>
  <speed>0.0</speed>
  <fix>3d</fix>
</trkpt>
<trkpt lat="40.0738746" lon="-105.2302755">
  <ele>1583.64</ele>
  <time>2026-08-27T18:26:39Z</time>
  <course>12.91</course>
  <speed>0.022360679774997897</speed>
  <fix>3d</fix>
</trkpt>
<trkpt lat="40.0738747" lon="-105.2302756">
  <ele>1583.56</ele>
  <time>2026-08-27T18:26:39Z</time>
  <course>250.4</course>
  <speed>0.0</speed>
  <fix>3d</fix>
</trkpt>
<trkpt lat="40.0738746" lon="-105.2302755">
  <ele>1583.64</ele>
  <time>2026-08-27T18:26:39Z</time>
  <course>12.89</course>
  <speed>0.022360679774997897</speed>
  <fix>3d</fix>
</trkpt>
<trkpt lat="40.0738747" lon="-105.2302756">
  <ele>1583.56</ele>
  <time>2026-08-27T18:26:39Z</time>
  <course>106.06</course>
  <speed>0.0</speed>
  <fix>3d</fix>
</trkpt>
<trkpt lat="40.0738746" lon="-105.2302755">
  <ele>1583.65</ele>
  <time>2026-08-27T18:26:39Z</time>
  <course>12.87</course>
  <speed>0.022360679774997897</speed>
  <fix>3d</fix>
</trkpt>
<trkpt lat="40.0738747" lon="-105.2302756">
  <ele>1583.56</ele>
  <time>2026-08-27T18:26:39Z</time>
  <course>266.11</course>
  <speed>0.0</speed>
  <fix>3d</fix>
</trkpt>
<trkpt lat="40.0738746" lon="-105.2302755">
  <ele>1583.65</ele>
  <time>2026-08-27T18:26:39Z</time>
  <course>12.85</course>
  <speed>0.022360679774997897</speed>
  <fix>3d</fix>
</trkpt>
<trkpt lat="40.0738747" lon="-105.2302756">
  <ele>1583.56</ele>
  <time>2026-08-27T18:26:39Z</time>
  <course>272.14</course>
  <speed>0.0</speed>
  <fix>3d</fix>
</trkpt>
<trkpt lat="40.0738746" lon="-105.2302755">
  <ele>1583.64</ele>
  <time>2026-08-27T18:26:39Z</time>
  <course>12.83</course>
  <speed>0.022360679774997897</speed>
  <fix>3d</fix>
</trkpt>
<trkpt lat="40.0738747" lon="-105.2302756">
  <ele>1583.56</ele>
  <time>2026-08-27T18:26:39Z</time>
  <course>271.16</course>
  <speed>0.0</speed>
  <fix>3d</fix>
</trkpt>
<trkpt lat="40.0738746" lon="-105.2302755">
  <ele>1583.64</ele>
  <time>2026-08-27T18:26:39Z</time>
  <course>12.81</course>
  <speed>0.022360679774997897</speed>
  <fix>3d</fix>
</trkpt>
<trkpt lat="40.0738747" lon="-105.2302756">
  <ele>1583.56</ele>
  <time>2026-08-27T18:26:39Z</time>
  <course>106.91</course>
  <speed>0.0</speed>
  <fix>3d</fix>
</trkpt>
<trkpt lat="40.0738746" lon="-105.2302755">
  <ele>1583.64</ele>
  <time>2026-08-27T18:26:39Z</time>
  <course>12.79</course>
  <speed>0.022360679774997897</speed>
  <fix>3d</fix>
</trkpt>
<trkpt lat="40.0738747" lon="-105.2302756">
  <ele>1583.56</ele>
  <time>2026-08-27T18:26:39Z</time>
  <course>171.0</course>
  <speed>0.0</speed>
  <fix>3d</fix>
</trkpt>
<trkpt lat="40.0738746" lon="-105.2302755">
  <ele>1583.64</ele>
  <time>2026-08-27T18:26:39Z</time>
  <course>12.77</course>
  <speed>0.022360679774997897</speed>
  <fix>3d</fix>
</trkpt>
<trkpt lat="40.0738747" lon="-105.2302756">
  <ele>1583.56</ele>
  <time>2026-08-27T18:26:39Z</time>
  <course>271.83</course>
  <speed>0.0</speed>
  <fix>3d</fix>
</trkpt>
<trkpt lat="40.0738746" lon="-105.2302755">
  <ele>1583.65</ele>
  <time>2026-08-27T18:26:39Z</time>
  <course>12.75</course>
  <speed>0.022360679774997897</speed>
  <fix>3d</fix>
</trkpt>
<trkpt lat="40.0738747" lon="-105.2302756">
  <ele>1583.56</ele>
  <time>2026-08-27T18:26:39Z</time>
  <course>272.28</course>
  <speed>0.0</speed>
  <fix>3d</fix>
</trkpt>
<trkpt lat="40.0738746" lon="-105.2302755">
  <ele>1583.65</ele>
  <time>2026-08-27T18:26:39Z</time>
  <course>12.72</course>
  <speed>0.022360679774997897</speed>
  <fix>3d</fix>
</trkpt>
<trkpt lat="40.0738747" lon="-105.2302756">
  <ele>1583.56</ele>
  <time>2026-08-27T18:26:39Z</time>
  <course>266.71</course>
  <speed>0.0</speed>
  <fix>3d</fix>
</trkpt>
<trkpt lat="40.0738746" lon="-105.2302755">
  <ele>1583.65</ele>
  <time>2026-08-27T18:26:39Z</time>
  <course>12.7</course>
  <speed>0.022360679774997897</speed>
  <fix>3d</fix>
</trkpt>
<trkpt lat="40.0738747" lon="-105.2302756">
  <ele>1583.56</ele>
  <time>2026-08-27T18:26:39Z</time>
  <course>111.14</course>
  <speed>0.0</speed>
  <fix>3d</fix>
</trkpt>
<trkpt lat="40.0738746" lon="-105.2302755">
  <ele>1583.65</ele>
  <time>2026-08-27T18:26:39Z</time>
  <course>12.68</course>
  <speed>0.022360679774997897</speed>
  <fix>3d</fix>
</trkpt>
<trkpt lat="40.0738747" lon="-105.2302756">
  <ele>1583.56</ele>
  <time>2026-08-27T18:26:39Z</time>
  <course>249.57</course>
  <speed>0.0</speed>
  <fix>3d</fix>
</trkpt>
<trkpt lat="40.0738746" lon="-105.2302755">
  <ele>1583.65</ele>
  <time>2026-08-27T18:26:39Z</time>
  <course>12.66</course>
  <speed>0.022360679774997897</speed>
  <fix>3d</fix>
</trkpt>
<trkpt lat="40.0738747" lon="-105.2302756">
  <ele>1583.56</ele>
  <time>2026-08-27T18:26:39Z</time>
  <course>271.61</course>
  <speed>0.0</speed>
  <fix>3d</fix>
</trkpt>
<trkpt lat="40.0738746" lon="-105.2302755">
  <ele>1583.65</ele>
  <time>2026-08-27T18:26:39Z</time>
  <course>12.64</course>
  <speed>0.022360679774997897</speed>
  <fix>3d</fix>
</trkpt>
<trkpt lat="40.0738747" lon="-105.2302756">
  <ele>1583.56</ele>
  <time>2026-08-27T18:26:39Z</time>
  <course>271.59</course>
  <speed>0.0</speed>
  <fix>3d</fix>
</trkpt>
<trkpt lat="40.0738746" lon="-105.2302755">
  <ele>1583.65</ele>
  <time>2026-08-27T18:26:39Z</time>
  <course>12.62</course>
  <speed>0.022360679774997897</speed>
  <fix>3d</fix>
</trkpt>
<trkpt lat="40.0738747" lon="-105.2302756">
  <ele>1583.56</ele>
  <time>2026-08-27T18:26:39Z</time>
  <course>204.78</course>
  <speed>0.0</speed>
  <fix>3d</fix>
</trkpt>
<trkpt lat="40.0738746" lon="-105.2302755">
  <ele>1583.65</ele>
  <time>2026-08-27T18:26:39Z</time>
  <course>12.6</course>
  <speed>0.022360679774997897</speed>
  <fix>3d</fix>
</trkpt>
<trkpt lat="40.0738747" lon="-105.2302756">
  <ele>1583.56</ele>
  <time>2026-08-27T18:26:39Z</time>
  <course>167.44</course>
  <speed>0.0</speed>
  <fix>3d</fix>
</trkpt>
<trkpt lat="40.0738746" lon="-105.2302755">
  <ele>1583.65</ele>
  <time>2026-08-27T18:26:39Z</time>
  <course>12.58</course>
  <speed>0.022360679774997897</speed>
  <fix>3d</fix>
</trkpt>
<trkpt lat="40.0738747" lon="-105.2302756">
  <ele>1583.56</ele>
  <time>2026-08-27T18:26:39Z</time>
  <course>258.79</course>
  <speed>0.0</speed>
  <fix>3d</fix>
</trkpt>
<trkpt lat="40.0738746" lon="-105.2302755">
  <ele>1583.65</ele>
  <time>2026-08-27T18:26:39Z</time>
  <course>12.56</course>
  <speed>0.022360679774997897</speed>
  <fix>3d</fix>
</trkpt>
<trkpt lat="40.0738747" lon="-105.2302756">
  <ele>1583.56</ele>
  <time>2026-08-27T18:26:39Z</time>
  <course>271.32</course>
  <speed>0.0</speed>
  <fix>3d</fix>
</trkpt>
<trkpt lat="40.0738746" lon="-105.2302755">
  <ele>1583.66</ele>
  <time>2026-08-27T18:26:39Z</time>
  <course>12.54</course>
  <speed>0.022360679774997897</speed>
  <fix>3d</fix>
</trkpt>
<trkpt lat="40.0738747" lon="-105.2302756">
  <ele>1583.56</ele>
  <time>2026-08-27T18:26:39Z</time>
  <course>271.46</course>
  <speed>0.0</speed>
  <fix>3d</fix>
</trkpt>
<trkpt lat="40.0738746" lon="-105.2302755">
  <ele>1583.66</ele>
  <time>2026-08-27T18:26:39Z</time>
  <course>12.52</course>
  <speed>0.022360679774997897</speed>
  <fix>3d</fix>
</trkpt>
<trkpt lat="40.0738747" lon="-105.2302756">
  <ele>1583.56</ele>
  <time>2026-08-27T18:26:39Z</time>
  <course>257.07</course>
  <speed>0.0</speed>
  <fix>3d</fix>
</trkpt>
<trkpt lat="40.0738746" lon="-105.2302755">
  <ele>1583.66</ele>
  <time>2026-08-27T18:26:40Z</time>
  <course>12.5</course>
  <speed>0.022360679774997897</speed>
  <fix>3d</fix>
</trkpt>
<trkpt lat="40.0738747" lon="-105.2302756">
  <ele>1583.56</ele>
  <time>2026-08-27T18:26:40Z</time>
  <course>170.17</course>
  <speed>0.0</speed>
  <fix>3d</fix>
</trkpt>
<trkpt lat="40.0738746" lon="-105.2302755">
  <ele>1583.66</ele>
  <time>2026-08-27T18:26:40Z</time>
  <course>12.47</course>
  <speed>0.022360679774997897</speed>
  <fix>3d</fix>
</trkpt>
<trkpt lat="40.0738747" lon="-105.2302756">
  <ele>1583.56</ele>
  <time>2026-08-27T18:26:40Z</time>
  <course>259.84</course>
  <speed>0.0</speed>
  <fix>3d</fix>
</trkpt>
<trkpt lat="40.0738746" lon="-105.2302755">
  <ele>1583.66</ele>
  <time>2026-08-27T18:26:40Z</time>
  <course>12.45</course>
  <speed>0.022360679774997897</speed>
  <fix>3d</fix>
</trkpt>
<trkpt lat="40.0738747" lon="-105.2302756">
  <ele>1583.56</ele>
  <time>2026-08-27T18:26:40Z</time>
  <course>270.77</course>
  <speed>0.0</speed>
  <fix>3d</fix>
</trkpt>
<trkpt lat="40.0738746" lon="-105.2302755">
  <ele>1583.66</ele>
  <time>2026-08-27T18:26:40Z</time>
  <course>12.43</course>
  <speed>0.022360679774997897</speed>
  <fix>3d</fix>
</trkpt>
<trkpt lat="40.0738747" lon="-105.2302756">
  <ele>1583.56</ele>
  <time>2026-08-27T18:26:40Z</time>
  <course>270.59</course>
  <speed>0.0</speed>
  <fix>3d</fix>
</trkpt>
<trkpt lat="40.0738746" lon="-105.2302755">
  <ele>1583.66</ele>
  <time>2026-08-27T18:26:40Z</time>
  <course>12.41</course>
  <speed>0.022360679774997897</speed>
  <fix>3d</fix>
</trkpt>
<trkpt lat="40.0738747" lon="-105.2302756">
  <ele>1583.56</ele>
  <time>2026-08-27T18:26:40Z</time>
  <course>207.6</course>
  <speed>0.0</speed>
  <fix>3d</fix>
</trkpt>
<trkpt lat="40.0738746" lon="-105.2302755">
  <ele>1583.66</ele>
  <time>2026-08-27T18:26:40Z</time>
  <course>12.39</course>
  <speed>0.022360679774997897</speed>
  <fix>3d</fix>
</trkpt>
<trkpt lat="40.0738747" lon="-105.2302756">
  <ele>1583.56</ele>
  <time>2026-08-27T18:26:40Z</time>
  <course>246.76</course>
  <speed>0.0</speed>
  <fix>3d</fix>
</trkpt>
<trkpt lat="40.0738746" lon="-105.2302755">
  <ele>1583.66</ele>
  <time>2026-08-27T18:26:40Z</time>
  <course>12.37</course>
  <speed>0.022360679774997897</speed>
  <fix>3d</fix>
</trkpt>
<trkpt lat="40.0738747" lon="-105.2302756">
  <ele>1583.56</ele>
  <time>2026-08-27T18:26:40Z</time>
  <course>269.18</course>
  <speed>0.0</speed>
  <fix>3d</fix>
</trkpt>
<trkpt lat="40.0738746" lon="-105.2302755">
  <ele>1583.66</ele>
  <time>2026-08-27T18:26:40Z</time>
  <course>12.35</course>
  <speed>0.022360679774997897</speed>
  <fix>3d</fix>
</trkpt>
<trkpt lat="40.0738747" lon="-105.2302756">
  <ele>1583.56</ele>
  <time>2026-08-27T18:26:40Z</time>
  <course>270.79</course>
  <speed>0.0</speed>
  <fix>3d</fix>
</trkpt>
<trkpt lat="40.0738746" lon="-105.2302755">
  <ele>1583.66</ele>
  <time>2026-08-27T18:26:40Z</time>
  <course>12.33</course>
  <speed>0.022360679774997897</speed>
  <fix>3d</fix>
</trkpt>
<trkpt lat="40.0738747" lon="-105.2302756">
  <ele>1583.56</ele>
  <time>2026-08-27T18:26:40Z</time>
  <course>269.17</course>
  <speed>0.0</speed>
  <fix>3d</fix>
</trkpt>
<trkpt lat="40.0738746" lon="-105.2302755">
  <ele>1583.66</ele>
  <time>2026-08-27T18:26:40Z</time>
  <course>12.31</course>
  <speed>0.022360679774997897</speed>
  <fix>3d</fix>
</trkpt>
<trkpt lat="40.0738747" lon="-105.2302756">
  <ele>1583.56</ele>
  <time>2026-08-27T18:26:40Z</time>
  <course>187.23</course>
  <speed>0.0</speed>
  <fix>3d</fix>
</trkpt>
<trkpt lat="40.0738746" lon="-105.2302755">
  <ele>1583.66</ele>
  <time>2026-08-27T18:26:40Z</time>
  <course>12.29</course>
  <speed>0.022360679774997897</speed>
  <fix>3d</fix>
</trkpt>
<trkpt lat="40.0738747" lon="-105.2302756">
  <ele>1583.56</ele>
  <time>2026-08-27T18:26:40Z</time>
  <course>258.28</course>
  <speed>0.0</speed>
  <fix>3d</fix>
</trkpt>
<trkpt lat="40.0738746" lon="-105.2302755">
  <ele>1583.65</ele>
  <time>2026-08-27T18:26:40Z</time>
  <course>12.27</course>
  <speed>0.022360679774997897</speed>
  <fix>3d</fix>
</trkpt>
<trkpt lat="40.0738747" lon="-105.2302756">
  <ele>1583.56</ele>
  <time>2026-08-27T18:26:40Z</time>
  <course>270.22</course>
  <speed>0.0</speed>
  <fix>3d</fix>
</trkpt>
<trkpt lat="40.0738746" lon="-105.2302755">
  <ele>1583.65</ele>
  <time>2026-08-27T18:26:40Z</time>
  <course>12.26</course>
  <speed>0.022360679774997897</speed>
  <fix>3d</fix>
</trkpt>
<trkpt lat="40.0738747" lon="-105.2302756">
  <ele>1583.56</ele>
  <time>2026-08-27T18:26:40Z</time>
  <course>277.54</course>
  <speed>0.0</speed>
  <fix>3d</fix>
</trkpt>
<trkpt lat="40.0738746" lon="-105.2302755">
  <ele>1583.65</ele>
  <time>2026-08-27T18:26:40Z</time>
  <course>12.25</course>
  <speed>0.022360679774997897</speed>
  <fix>3d</fix>
</trkpt>
<trkpt lat="40.0738747" lon="-105.2302756">
  <ele>1583.56</ele>
  <time>2026-08-27T18:26:40Z</time>
  <course>283.41</course>
  <speed>0.0</speed>
  <fix>3d</fix>
</trkpt>
<trkpt lat="40.0738746" lon="-105.2302755">
  <ele>1583.65</ele>
  <time>2026-08-27T18:26:40Z</time>
  <course>12.23</course>
  <speed>0.022360679774997897</speed>
  <fix>3d</fix>
</trkpt>
<trkpt lat="40.0738747" lon="-105.2302756">
  <ele>1583.56</ele>
  <time>2026-08-27T18:26:40Z</time>
  <course>194.06</course>
  <speed>0.0</speed>
  <fix>3d</fix>
</trkpt>
<trkpt lat="40.0738746" lon="-105.2302755">
  <ele>1583.65</ele>
  <time>2026-08-27T18:26:40Z</time>
  <course>12.23</course>
  <speed>0.022360679774997897</speed>
  <fix>3d</fix>
</trkpt>
<trkpt lat="40.0738746" lon="-105.2302755">
  <ele>1583.65</ele>
  <time>2026-08-27T18:26:40Z</time>
  <course>12.21</course>
  <speed>0.022360679774997897</speed>
  <fix>3d</fix>
</trkpt>
<trkpt lat="40.0738747" lon="-105.2302756">
  <ele>1583.56</ele>
  <time>2026-08-27T18:26:40Z</time>
  <course>263.08</course>
  <speed>0.0</speed>
  <fix>3d</fix>
</trkpt>
<trkpt lat="40.0738746" lon="-105.2302755">
  <ele>1583.65</ele>
  <time>2026-08-27T18:26:40Z</time>
  <course>12.2</course>
  <speed>0.022360679774997897</speed>
  <fix>3d</fix>
</trkpt>
<trkpt lat="40.0738746" lon="-105.2302755">
  <ele>1583.65</ele>
  <time>2026-08-27T18:26:40Z</time>
  <course>12.17</course>
  <speed>0.022360679774997897</speed>
  <fix>3d</fix>
</trkpt>
<trkpt lat="40.0738747" lon="-105.2302756">
  <ele>1583.56</ele>
  <time>2026-08-27T18:26:40Z</time>
  <course>266.36</course>
  <speed>0.0</speed>
  <fix>3d</fix>
</trkpt>
<trkpt lat="40.0738746" lon="-105.2302755">
  <ele>1583.65</ele>
  <time>2026-08-27T18:26:40Z</time>
  <course>12.16</course>
  <speed>0.022360679774997897</speed>
  <fix>3d</fix>
</trkpt>
<trkpt lat="40.0738746" lon="-105.2302755">
  <ele>1583.67</ele>
  <time>2026-08-27T18:26:40Z</time>
  <course>12.11</course>
  <speed>0.01414213562373095</speed>
  <fix>3d</fix>
</trkpt>
<trkpt lat="40.0738747" lon="-105.2302756">
  <ele>1583.56</ele>
  <time>2026-08-27T18:26:40Z</time>
  <course>265.21</course>
  <speed>0.0</speed>
  <fix>3d</fix>
</trkpt>
<trkpt lat="40.0738746" lon="-105.2302755">
  <ele>1583.69</ele>
  <time>2026-08-27T18:26:40Z</time>
  <course>12.09</course>
  <speed>0.01414213562373095</speed>
  <fix>3d</fix>
</trkpt>
<trkpt lat="40.0738746" lon="-105.2302755">
  <ele>1583.74</ele>
  <time>2026-08-27T18:26:40Z</time>
  <course>12.03</course>
  <speed>0.01414213562373095</speed>
  <fix>3d</fix>
</trkpt>
<trkpt lat="40.0738747" lon="-105.2302756">
  <ele>1583.58</ele>
  <time>2026-08-27T18:26:40Z</time>
  <course>269.82</course>
  <speed>0.0</speed>
  <fix>3d</fix>
</trkpt>
<trkpt lat="40.0738746" lon="-105.2302755">
  <ele>1583.75</ele>
  <time>2026-08-27T18:26:40Z</time>
  <course>12.01</course>
  <speed>0.01414213562373095</speed>
  <fix>3d</fix>
</trkpt>
<trkpt lat="40.0738746" lon="-105.2302755">
  <ele>1583.84</ele>
  <time>2026-08-27T18:26:40Z</time>
  <course>7.82</course>
  <speed>0.01414213562373095</speed>
  <fix>3d</fix>
</trkpt>
<trkpt lat="40.0738747" lon="-105.2302756">
  <ele>1583.63</ele>
  <time>2026-08-27T18:26:40Z</time>
  <course>291.54</course>
  <speed>0.0</speed>
  <fix>3d</fix>
</trkpt>
<trkpt lat="40.0738746" lon="-105.2302755">
  <ele>1583.84</ele>
  <time>2026-08-27T18:26:40Z</time>
  <course>7.59</course>
  <speed>0.01414213562373095</speed>
  <fix>3d</fix>
</trkpt>
<trkpt lat="40.0738746" lon="-105.2302758">
  <ele>1584.17</ele>
  <time>2026-08-27T18:26:40Z</time>
  <course>1.05</course>
  <speed>0.19026297590440447</speed>
  <fix>3d</fix>
</trkpt>
<trkpt lat="40.0738747" lon="-105.2302756">
  <ele>1583.74</ele>
  <time>2026-08-27T18:26:40Z</time>
  <course>264.94</course>
  <speed>0.04</speed>
  <fix>3d</fix>
</trkpt>
<trkpt lat="40.0738746" lon="-105.2302758">
  <ele>1584.22</ele>
  <time>2026-08-27T18:26:40Z</time>
  <course>0.9</course>
  <speed>0.2102379604162864</speed>
  <fix>3d</fix>
</trkpt>
<trkpt lat="40.0738746" lon="-105.2302763">
  <ele>1584.55</ele>
  <time>2026-08-27T18:26:40Z</time>
  <course>359.73</course>
  <speed>0.25179356624028343</speed>
  <fix>3d</fix>
</trkpt>
<trkpt lat="40.0738747" lon="-105.2302759">
  <ele>1584.0</ele>
  <time>2026-08-27T18:26:40Z</time>
  <course>261.52</course>
  <speed>0.16</speed>
  <fix>3d</fix>
</trkpt>
<trkpt lat="40.0738746" lon="-105.2302764">
  <ele>1584.6</ele>
  <time>2026-08-27T18:26:40Z</time>
  <course>359.46</course>
  <speed>0.25317977802344327</speed>
  <fix>3d</fix>
</trkpt>
<trkpt lat="40.0738745" lon="-105.2302769">
  <ele>1584.93</ele>
  <time>2026-08-27T18:26:40Z</time>
  <course>357.82</course>
  <speed>0.26248809496813374</speed>
  <fix>3d</fix>
</trkpt>
<trkpt lat="40.0738746" lon="-105.2302763">
  <ele>1584.38</ele>
  <time>2026-08-27T18:26:40Z</time>
  <course>256.47</course>
  <speed>0.25</speed>
  <fix>3d</fix>
</trkpt>
<trkpt lat="40.0738745" lon="-105.230277">
  <ele>1584.94</ele>
  <time>2026-08-27T18:26:40Z</time>
  <course>357.81</course>
  <speed>0.26248809496813374</speed>
  <fix>3d</fix>
</trkpt>
<trkpt lat="40.0738743" lon="-105.2302775">
  <ele>1585.36</ele>
  <time>2026-08-27T18:26:40Z</time>
  <course>356.5</course>
  <speed>0.25553864678361277</speed>
  <fix>3d</fix>
</trkpt>
<trkpt lat="40.0738745" lon="-105.230277">
  <ele>1584.78</ele>
  <time>2026-08-27T18:26:40Z</time>
  <course>248.36</course>
  <speed>0.28</speed>
  <fix>3d</fix>
</trkpt>
<trkpt lat="40.0738742" lon="-105.2302776">
  <ele>1585.42</ele>
  <time>2026-08-27T18:26:40Z</time>
  <course>356.38</course>
  <speed>0.25238858928247926</speed>
  <fix>3d</fix>
</trkpt>
<trkpt lat="40.073874" lon="-105.230278">
  <ele>1585.81</ele>
  <time>2026-08-27T18:26:40Z</time>
  <course>355.84</course>
  <speed>0.2193171219946131</speed>
  <fix>3d</fix>
</trkpt>
<trkpt lat="40.0738743" lon="-105.2302775">
  <ele>1585.2</ele>
  <time>2026-08-27T18:26:40Z</time>
  <course>237.85</course>
  <speed>0.26</speed>
  <fix>3d</fix>
</trkpt>
<trkpt lat="40.073874" lon="-105.230278">
  <ele>1585.82</ele>
  <time>2026-08-27T18:26:40Z</time>
  <course>355.84</course>
  <speed>0.22671568097509268</speed>
  <fix>3d</fix>
</trkpt>
<trkpt lat="40.0738737" lon="-105.2302782">
  <ele>1586.29</ele>
  <time>2026-08-27T18:26:40Z</time>
  <course>355.53</course>
  <speed>0.19313207915827968</speed>
  <fix>3d</fix>
</trkpt>
<trkpt lat="40.073874" lon="-105.230278">
  <ele>1585.65</ele>
  <time>2026-08-27T18:26:40Z</time>
  <course>224.88</course>
  <speed>0.23</speed>
  <fix>3d</fix>
</trkpt>
<trkpt lat="40.0738736" lon="-105.2302783">
  <ele>1586.35</ele>
  <time>2026-08-27T18:26:40Z</time>
  <course>355.51</course>
  <speed>0.18973665961010278</speed>
  <fix>3d</fix>
</trkpt>
<trkpt lat="40.0738733" lon="-105.2302784">
  <ele>1586.79</ele>
  <time>2026-08-27T18:26:40Z</time>
  <course>353.76</course>
  <speed>0.18027756377319945</speed>
  <fix>3d</fix>
</trkpt>
<trkpt lat="40.0738737" lon="-105.2302783">
  <ele>1586.12</ele>
  <time>2026-08-27T18:26:40Z</time>
  <course>208.91</course>
  <speed>0.19</speed>
  <fix>3d</fix>
</trkpt>
<trkpt lat="40.0738733" lon="-105.2302784">
  <ele>1586.86</ele>
  <time>2026-08-27T18:26:40Z</time>
  <course>353.12</course>
  <speed>0.18</speed>
  <fix>3d</fix>
</trkpt>
<trkpt lat="40.073873" lon="-105.2302783">
  <ele>1587.29</ele>
  <time>2026-08-27T18:26:40Z</time>
  <course>350.14</course>
  <speed>0.17464249196572978</speed>
  <fix>3d</fix>
</trkpt>
<trkpt lat="40.0738734" lon="-105.2302784">
  <ele>1586.6</ele>
  <time>2026-08-27T18:26:40Z</time>
  <course>190.6</course>
  <speed>0.16</speed>
  <fix>3d</fix>
</trkpt>
<trkpt lat="40.073873" lon="-105.2302783">
  <ele>1587.36</ele>
  <time>2026-08-27T18:26:40Z</time>
  <course>350.04</course>
  <speed>0.1772004514666935</speed>
  <fix>3d</fix>
</trkpt>
<trkpt lat="40.0738728" lon="-105.2302783">
  <ele>1587.8</ele>
  <time>2026-08-27T18:26:40Z</time>
  <course>350.97</course>
  <speed>0.18027756377319945</speed>
  <fix>3d</fix>
</trkpt>
<trkpt lat="40.0738731" lon="-105.2302785">
  <ele>1587.1</ele>
  <time>2026-08-27T18:26:40Z</time>
  <course>169.27</course>
  <speed>0.13</speed>
  <fix>3d</fix>
</trkpt>
<trkpt lat="40.0738727" lon="-105.2302782">
  <ele>1587.87</ele>
  <time>2026-08-27T18:26:40Z</time>
  <course>351.22</course>
  <speed>0.17804493814764857</speed>
  <fix>3d</fix>
</trkpt>
<trkpt lat="40.0738726" lon="-105.230278">
  <ele>1588.31</ele>
  <time>2026-08-27T18:26:40Z</time>
  <course>352.72</course>
  <speed>0.17492855684535902</speed>
  <fix>3d</fix>
</trkpt>
<trkpt lat="40.073873" lon="-105.2302784">
  <ele>1587.59</ele>
  <time>2026-08-27T18:26:40Z</time>
  <course>139.71</course>
  <speed>0.11</speed>
  <fix>3d</fix>
</trkpt>
<trkpt lat="40.0738726" lon="-105.230278">
  <ele>1588.31</ele>
  <time>2026-08-27T18:26:40Z</time>
  <course>352.75</course>
  <speed>0.17492855684535902</speed>
  <fix>3d</fix>
</trkpt>
<trkpt lat="40.0738726" lon="-105.2302777">
  <ele>1588.81</ele>
  <time>2026-08-27T18:26:40Z</time>
  <course>354.03</course>
  <speed>0.1824828759089466</speed>
  <fix>3d</fix>
</trkpt>
<trkpt lat="40.0738728" lon="-105.2302782">
  <ele>1588.09</ele>
  <time>2026-08-27T18:26:40Z</time>
  <course>107.21</course>
  <speed>0.12</speed>
  <fix>3d</fix>
</trkpt>
<trkpt lat="40.0738726" lon="-105.2302776">
  <ele>1588.91</ele>
  <time>2026-08-27T18:26:40Z</time>
  <course>354.23</course>
  <speed>0.19026297590440447</speed>
  <fix>3d</fix>
</trkpt>
<trkpt lat="40.0738727" lon="-105.2302773">
  <ele>1589.32</ele>
  <time>2026-08-27T18:26:40Z</time>
  <course>355.04</course>
  <speed>0.191049731745428</speed>
  <fix>3d</fix>
</trkpt>
<trkpt lat="40.0738728" lon="-105.2302779">
  <ele>1588.59</ele>
  <time>2026-08-27T18:26:40Z</time>
  <course>85.04</course>
  <speed>0.15</speed>
  <fix>3d</fix>
</trkpt>
<trkpt lat="40.0738727" lon="-105.2302772">
  <ele>1589.39</ele>
  <time>2026-08-27T18:26:40Z</time>
  <course>355.16</course>
  <speed>0.19235384061671343</speed>
  <fix>3d</fix>
</trkpt>
<trkpt lat="40.0738728" lon="-105.2302769">
  <ele>1589.82</ele>
  <time>2026-08-27T18:26:40Z</time>
  <course>355.9</course>
  <speed>0.19924858845171275</speed>
  <fix>3d</fix>
</trkpt>
<trkpt lat="40.0738729" lon="-105.2302775">
  <ele>1589.08</ele>
  <time>2026-08-27T18:26:40Z</time>
  <course>71.6</course>
  <speed>0.17</speed>
  <fix>3d</fix>
</trkpt>
<trkpt lat="40.0738728" lon="-105.2302768">
  <ele>1589.89</ele>
  <time>2026-08-27T18:26:40Z</time>
  <course>356.01</course>
  <speed>0.20248456731316586</speed>
  <fix>3d</fix>
</trkpt>
<trkpt lat="40.073873" lon="-105.2302765">
  <ele>1590.32</ele>
  <time>2026-08-27T18:26:40Z</time>
  <course>356.67</course>
  <speed>0.19235384061671343</speed>
  <fix>3d</fix>
</trkpt>
<trkpt lat="40.073873" lon="-105.2302771">
  <ele>1589.58</ele>
  <time>2026-08-27T18:26:40Z</time>
  <course>62.81</course>
  <speed>0.19</speed>
  <fix>3d</fix>
</trkpt>
<trkpt lat="40.0738731" lon="-105.2302765">
  <ele>1590.39</ele>
  <time>2026-08-27T18:26:40Z</time>
  <course>356.76</course>
  <speed>0.19235384061671343</speed>
  <fix>3d</fix>
</trkpt>
<trkpt lat="40.0738733" lon="-105.2302762">
  <ele>1590.82</ele>
  <time>2026-08-27T18:26:40Z</time>
  <course>357.35</course>
  <speed>0.18601075237738274</speed>
  <fix>3d</fix>
</trkpt>
<trkpt lat="40.0738731" lon="-105.2302766">
  <ele>1590.07</ele>
  <time>2026-08-27T18:26:40Z</time>
  <course>56.5</course>
  <speed>0.19</speed>
  <fix>3d</fix>
</trkpt>
<trkpt lat="40.0738733" lon="-105.2302762">
  <ele>1590.83</ele>
  <time>2026-08-27T18:26:40Z</time>
  <course>357.36</course>
  <speed>0.18601075237738274</speed>
  <fix>3d</fix>
</trkpt>
<trkpt lat="40.0738735" lon="-105.2302759">
  <ele>1591.32</ele>
  <time>2026-08-27T18:26:40Z</time>
  <course>357.97</course>
  <speed>0.18439088914585774</speed>
  <fix>3d</fix>
</trkpt>
<trkpt lat="40.0738733" lon="-105.2302763">
  <ele>1590.56</ele>
  <time>2026-08-27T18:26:40Z</time>
  <course>51.55</course>
  <speed>0.18</speed>
  <fix>3d</fix>
</trkpt>
<trkpt lat="40.0738735" lon="-105.2302758">
  <ele>1591.38</ele>
  <time>2026-08-27T18:26:40Z</time>
  <course>358.05</course>
  <speed>0.1769180601295413</speed>
  <fix>3d</fix>
</trkpt>
<trkpt lat="40.0738737" lon="-105.2302756">
  <ele>1591.8</ele>
  <time>2026-08-27T18:26:40Z</time>
  <course>358.52</course>
  <speed>0.1697056274847714</speed>
  <fix>3d</fix>
</trkpt>
<trkpt lat="40.0738735" lon="-105.230276">
  <ele>1591.05</ele>
  <time>2026-08-27T18:26:40Z</time>
  <course>47.23</course>
  <speed>0.17</speed>
  <fix>3d</fix>
</trkpt>
<trkpt lat="40.0738738" lon="-105.2302756">
  <ele>1591.87</ele>
  <time>2026-08-27T18:26:40Z</time>
  <course>358.59</course>
  <speed>0.16278820596099705</speed>
  <fix>3d</fix>
</trkpt>
<trkpt lat="40.073874" lon="-105.2302754">
  <ele>1592.3</ele>
  <time>2026-08-27T18:26:40Z</time>
  <course>359.03</course>
  <speed>0.15620499351813308</speed>
  <fix>3d</fix>
</trkpt>
<trkpt lat="40.0738737" lon="-105.2302757">
  <ele>1591.54</ele>
  <time>2026-08-27T18:26:40Z</time>
  <course>43.03</course>
  <speed>0.16</speed>
  <fix>3d</fix>
</trkpt>
<trkpt lat="40.073874" lon="-105.2302753">
  <ele>1592.37</ele>
  <time>2026-08-27T18:26:40Z</time>
  <course>359.09</course>
  <speed>0.15</speed>
  <fix>3d</fix>
</trkpt>
<trkpt lat="40.0738742" lon="-105.2302752">
  <ele>1592.8</ele>
  <time>2026-08-27T18:26:40Z</time>
  <course>359.52</course>
  <speed>0.14422205101855956</speed>
  <fix>3d</fix>
</trkpt>
<trkpt lat="40.0738739" lon="-105.2302755">
  <ele>1592.03</ele>
  <time>2026-08-27T18:26:40Z</time>
  <course>38.4</course>
  <speed>0.14</speed>
  <fix>3d</fix>
</trkpt>
<trkpt lat="40.0738742" lon="-105.2302752">
  <ele>1592.87</ele>
  <time>2026-08-27T18:26:40Z</time>
  <course>359.59</course>
  <speed>0.13892443989449804</speed>
  <fix>3d</fix>
</trkpt>
<trkpt lat="40.0738744" lon="-105.2302751">
  <ele>1593.3</ele>
  <time>2026-08-27T18:26:40Z</time>
  <course>359.96</course>
  <speed>0.1341640786499874</speed>
  <fix>3d</fix>
</trkpt>
<trkpt lat="40.0738742" lon="-105.2302753">
  <ele>1592.52</ele>
  <time>2026-08-27T18:26:40Z</time>
  <course>33.0</course>
  <speed>0.13</speed>
  <fix>3d</fix>
</trkpt>
<trkpt lat="40.0738744" lon="-105.230275">
  <ele>1593.37</ele>
  <time>2026-08-27T18:26:40Z</time>
  <course>0.03</course>
  <speed>0.13</speed>
  <fix>3d</fix>
</trkpt>
<trkpt lat="40.0738746" lon="-105.230275">
  <ele>1593.8</ele>
  <time>2026-08-27T18:26:40Z</time>
  <course>0.42</course>
  <speed>0.11704699910719625</speed>
  <fix>3d</fix>
</trkpt>
<trkpt lat="40.0738743" lon="-105.2302752">
  <ele>1593.02</ele>
  <time>2026-08-27T18:26:40Z</time>
  <course>26.68</course>
  <speed>0.12</speed>
  <fix>3d</fix>
</trkpt>
<trkpt lat="40.0738746" lon="-105.230275">
  <ele>1593.81</ele>
  <time>2026-08-27T18:26:40Z</time>
  <course>0.42</course>
  <speed>0.11704699910719625</speed>
  <fix>3d</fix>
</trkpt>
<trkpt lat="40.0738747" lon="-105.2302749">
  <ele>1594.3</ele>
  <time>2026-08-27T18:26:40Z</time>
  <course>0.81</course>
  <speed>0.1019803902718557</speed>
  <fix>3d</fix>
</trkpt>
<trkpt lat="40.0738745" lon="-105.2302751">
  <ele>1593.51</ele>
  <time>2026-08-27T18:26:40Z</time>
  <course>19.63</course>
  <speed>0.1</speed>
  <fix>3d</fix>
</trkpt>
<trkpt lat="40.0738747" lon="-105.2302749">
  <ele>1594.38</ele>
  <time>2026-08-27T18:26:40Z</time>
  <course>0.87</course>
  <speed>0.1004987562112089</speed>
  <fix>3d</fix>
</trkpt>
<trkpt lat="40.0738749" lon="-105.2302749">
  <ele>1594.8</ele>
  <time>2026-08-27T18:26:40Z</time>
  <course>1.2</course>
  <speed>0.09</speed>
  <fix>3d</fix>
</trkpt>
<trkpt lat="40.0738747" lon="-105.230275">
  <ele>1594.01</ele>
  <time>2026-08-27T18:26:40Z</time>
  <course>11.73</course>
  <speed>0.09</speed>
  <fix>3d</fix>
</trkpt>
<trkpt lat="40.0738749" lon="-105.2302749">
  <ele>1594.87</ele>
  <time>2026-08-27T18:26:40Z</time>
  <course>1.26</course>
  <speed>0.08</speed>
  <fix>3d</fix>
</trkpt>
<trkpt lat="40.073875" lon="-105.2302749">
  <ele>1595.29</ele>
  <time>2026-08-27T18:26:40Z</time>
  <course>1.62</course>
  <speed>0.07</speed>
  <fix>3d</fix>
</trkpt>
<trkpt lat="40.0738748" lon="-105.2302749">
  <ele>1594.51</ele>
  <time>2026-08-27T18:26:40Z</time>
  <course>2.65</course>
  <speed>0.07</speed>
  <fix>3d</fix>
</trkpt>
<trkpt lat="40.073875" lon="-105.2302749">
  <ele>1595.36</ele>
  <time>2026-08-27T18:26:40Z</time>
  <course>1.67</course>
  <speed>0.07</speed>
  <fix>3d</fix>
</trkpt>
<trkpt lat="40.0738751" lon="-105.2302749">
  <ele>1595.79</ele>
  <time>2026-08-27T18:26:40Z</time>
  <course>2.0</course>
  <speed>0.06082762530298219</speed>
  <fix>3d</fix>
</trkpt>
<trkpt lat="40.073875" lon="-105.2302749">
  <ele>1595.0</ele>
  <time>2026-08-27T18:26:40Z</time>
  <course>352.58</course>
  <speed>0.06</speed>
  <fix>3d</fix>
</trkpt>
<trkpt lat="40.0738751" lon="-105.2302749">
  <ele>1595.79</ele>
  <time>2026-08-27T18:26:40Z</time>
  <course>2.01</course>
  <speed>0.06082762530298219</speed>
  <fix>3d</fix>
</trkpt>
<trkpt lat="40.0738752" lon="-105.2302749">
  <ele>1596.28</ele>
  <time>2026-08-27T18:26:40Z</time>
  <course>2.32</course>
  <speed>0.044721359549995794</speed>
  <fix>3d</fix>
</trkpt>
<trkpt lat="40.0738751" lon="-105.2302749">
  <ele>1595.5</ele>
  <time>2026-08-27T18:26:40Z</time>
  <course>341.01</course>
  <speed>0.05</speed>
  <fix>3d</fix>
</trkpt>
<trkpt lat="40.0738752" lon="-105.2302749">
  <ele>1596.35</ele>
  <time>2026-08-27T18:26:40Z</time>
  <course>2.36</course>
  <speed>0.044721359549995794</speed>
  <fix>3d</fix>
</trkpt>
<trkpt lat="40.0738752" lon="-105.230275">
  <ele>1596.77</ele>
  <time>2026-08-27T18:26:40Z</time>
  <course>2.61</course>
  <speed>0.04242640687119285</speed>
  <fix>3d</fix>
</trkpt>
<trkpt lat="40.0738751" lon="-105.2302749">
  <ele>1595.99</ele>
  <time>2026-08-27T18:26:40Z</time>
  <course>327.0</course>
  <speed>0.04</speed>
  <fix>3d</fix>
</trkpt>
<trkpt lat="40.0738752" lon="-105.230275">
  <ele>1596.78</ele>
  <time>2026-08-27T18:26:40Z</time>
  <course>2.62</course>
  <speed>0.04242640687119285</speed>
  <fix>3d</fix>
</trkpt>
<trkpt lat="40.0738752" lon="-105.2302751">
  <ele>1597.27</ele>
  <time>2026-08-27T18:26:40Z</time>
  <course>2.9</course>
  <speed>0.03605551275463989</speed>
  <fix>3d</fix>
</trkpt>
<trkpt lat="40.0738752" lon="-105.230275">
  <ele>1596.49</ele>
  <time>2026-08-27T18:26:40Z</time>
  <course>310.11</course>
  <speed>0.04</speed>
  <fix>3d</fix>
</trkpt>
<trkpt lat="40.0738752" lon="-105.2302751">
  <ele>1597.34</ele>
  <time>2026-08-27T18:26:40Z</time>
  <course>2.94</course>
  <speed>0.0316227766016838</speed>
  <fix>3d</fix>
</trkpt>
<trkpt lat="40.0738753" lon="-105.2302752">
  <ele>1597.77</ele>
  <time>2026-08-27T18:26:40Z</time>
  <course>3.18</course>
  <speed>0.03</speed>
  <fix>3d</fix>
</trkpt>
<trkpt lat="40.0738753" lon="-105.2302751">
  <ele>1596.99</ele>
  <time>2026-08-27T18:26:40Z</time>
  <course>291.32</course>
  <speed>0.03</speed>
  <fix>3d</fix>
</trkpt>
<trkpt lat="40.0738753" lon="-105.2302752">
  <ele>1597.84</ele>
  <time>2026-08-27T18:26:40Z</time>
  <course>3.22</course>
  <speed>0.03</speed>
  <fix>3d</fix>
</trkpt>
<trkpt lat="40.0738752" lon="-105.2302752">
  <ele>1598.27</ele>
  <time>2026-08-27T18:26:40Z</time>
  <course>3.48</course>
  <speed>0.03</speed>
  <fix>3d</fix>
</trkpt>
<trkpt lat="40.0738753" lon="-105.2302752">
  <ele>1597.49</ele>
  <time>2026-08-27T18:26:40Z</time>
  <course>273.8</course>
  <speed>0.03</speed>
  <fix>3d</fix>
</trkpt>
<trkpt lat="40.0738752" lon="-105.2302752">
  <ele>1598.28</ele>
  <time>2026-08-27T18:26:40Z</time>
  <course>3.49</course>
  <speed>0.03</speed>
  <fix>3d</fix>
</trkpt>
<trkpt lat="40.0738752" lon="-105.2302753">
  <ele>1598.77</ele>
  <time>2026-08-27T18:26:40Z</time>
  <course>3.79</course>
  <speed>0.03</speed>
  <fix>3d</fix>
</trkpt>
<trkpt lat="40.0738753" lon="-105.2302753">
  <ele>1597.99</ele>
  <time>2026-08-27T18:26:40Z</time>
  <course>259.64</course>
  <speed>0.04</speed>
  <fix>3d</fix>
</trkpt>
<trkpt lat="40.0738752" lon="-105.2302753">
  <ele>1598.86</ele>
  <time>2026-08-27T18:26:40Z</time>
  <course>3.84</course>
  <speed>0.0316227766016838</speed>
  <fix>3d</fix>
</trkpt>
<trkpt lat="40.0738752" lon="-105.2302754">
  <ele>1599.28</ele>
  <time>2026-08-27T18:26:40Z</time>
  <course>4.05</course>
  <speed>0.0316227766016838</speed>
  <fix>3d</fix>
</trkpt>
<trkpt lat="40.0738753" lon="-105.2302754">
  <ele>1598.49</ele>
  <time>2026-08-27T18:26:40Z</time>
  <course>248.73</course>
  <speed>0.04</speed>
  <fix>3d</fix>
</trkpt>
<trkpt lat="40.0738752" lon="-105.2302754">
  <ele>1599.35</ele>
  <time>2026-08-27T18:26:40Z</time>
  <course>4.09</course>
  <speed>0.0316227766016838</speed>
  <fix>3d</fix>
</trkpt>
<trkpt lat="40.0738752" lon="-105.2302755">
  <ele>1599.79</ele>
  <time>2026-08-27T18:26:40Z</time>
  <course>4.32</course>
  <speed>0.03605551275463989</speed>
  <fix>3d</fix>
</trkpt>
<trkpt lat="40.0738753" lon="-105.2302755">
  <ele>1598.99</ele>
  <time>2026-08-27T18:26:40Z</time>
  <course>240.22</course>
  <speed>0.04</speed>
  <fix>3d</fix>
</trkpt>
<trkpt lat="40.0738752" lon="-105.2302755">
  <ele>1599.79</ele>
  <time>2026-08-27T18:26:40Z</time>
  <course>4.33</course>
  <speed>0.03605551275463989</speed>
  <fix>3d</fix>
</trkpt>
<trkpt lat="40.0738752" lon="-105.2302756">
  <ele>1600.29</ele>
  <time>2026-08-27T18:26:40Z</time>
  <course>4.61</course>
  <speed>0.0282842712474619</speed>
  <fix>3d</fix>
</trkpt>
<trkpt lat="40.0738753" lon="-105.2302756">
  <ele>1599.49</ele>
  <time>2026-08-27T18:26:40Z</time>
  <course>232.91</course>
  <speed>0.04</speed>
  <fix>3d</fix>
</trkpt>
<trkpt lat="40.0738752" lon="-105.2302756">
  <ele>1600.36</ele>
  <time>2026-08-27T18:26:40Z</time>
  <course>4.64</course>
  <speed>0.0282842712474619</speed>
  <fix>3d</fix>
</trkpt>
<trkpt lat="40.0738752" lon="-105.2302756">
  <ele>1600.79</ele>
  <time>2026-08-27T18:26:40Z</time>
  <course>4.84</course>
  <speed>0.022360679774997897</speed>
  <fix>3d</fix>
</trkpt>
<trkpt lat="40.0738752" lon="-105.2302756">
  <ele>1599.99</ele>
  <time>2026-08-27T18:26:40Z</time>
  <course>226.0</course>
  <speed>0.04</speed>
  <fix>3d</fix>
</trkpt>
<trkpt lat="40.0738752" lon="-105.2302756">
  <ele>1600.79</ele>
  <time>2026-08-27T18:26:40Z</time>
  <course>4.85</course>
  <speed>0.022360679774997897</speed>
  <fix>3d</fix>
</trkpt>
<trkpt lat="40.0738751" lon="-105.2302757">
  <ele>1601.29</ele>
  <time>2026-08-27T18:26:40Z</time>
  <course>5.06</course>
  <speed>0.022360679774997897</speed>
  <fix>3d</fix>
</trkpt>
<trkpt lat="40.0738751" lon="-105.2302757">
  <ele>1600.49</ele>
  <time>2026-08-27T18:26:40Z</time>
  <course>219.52</course>
  <speed>0.04</speed>
  <fix>3d</fix>
</trkpt>
<trkpt lat="40.0738751" lon="-105.2302757">
  <ele>1601.35</ele>
  <time>2026-08-27T18:26:40Z</time>
  <course>5.09</course>
  <speed>0.022360679774997897</speed>
  <fix>3d</fix>
</trkpt>
<trkpt lat="40.073875" lon="-105.2302757">
  <ele>1601.78</ele>
  <time>2026-08-27T18:26:40Z</time>
  <course>5.27</course>
  <speed>0.02</speed>
  <fix>3d</fix>
</trkpt>
<trkpt lat="40.0738751" lon="-105.2302758">
  <ele>1600.99</ele>
  <time>2026-08-27T18:26:40Z</time>
  <course>214.25</course>
  <speed>0.04</speed>
  <fix>3d</fix>
</trkpt>
<trkpt lat="40.073875" lon="-105.2302757">
  <ele>1601.85</ele>
  <time>2026-08-27T18:26:40Z</time>
  <course>5.3</course>
  <speed>0.02</speed>
  <fix>3d</fix>
</trkpt>
<trkpt lat="40.073875" lon="-105.2302758">
  <ele>1602.28</ele>
  <time>2026-08-27T18:26:40Z</time>
  <course>5.47</course>
  <speed>0.02</speed>
  <fix>3d</fix>
</trkpt>
<trkpt lat="40.073875" lon="-105.2302758">
  <ele>1601.49</ele>
  <time>2026-08-27T18:26:40Z</time>
  <course>210.29</course>
  <speed>0.03</speed>
  <fix>3d</fix>
</trkpt>
<trkpt lat="40.073875" lon="-105.2302758">
  <ele>1602.35</ele>
  <time>2026-08-27T18:26:40Z</time>
  <course>5.5</course>
  <speed>0.02</speed>
  <fix>3d</fix>
</trkpt>
<trkpt lat="40.0738749" lon="-105.2302758">
  <ele>1602.77</ele>
  <time>2026-08-27T18:26:40Z</time>
  <course>5.63</course>
  <speed>0.02</speed>
  <fix>3d</fix>
</trkpt>
<trkpt lat="40.073875" lon="-105.2302759">
  <ele>1601.99</ele>
  <time>2026-08-27T18:26:40Z</time>
  <course>206.45</course>
  <speed>0.03</speed>
  <fix>3d</fix>
</trkpt>
<trkpt lat="40.0738749" lon="-105.2302758">
  <ele>1602.84</ele>
  <time>2026-08-27T18:26:40Z</time>
  <course>5.66</course>
  <speed>0.02</speed>
  <fix>3d</fix>
</trkpt>
<trkpt lat="40.0738749" lon="-105.2302758">
  <ele>1603.27</ele>
  <time>2026-08-27T18:26:40Z</time>
  <course>5.8</course>
  <speed>0.02</speed>
  <fix>3d</fix>
</trkpt>
<trkpt lat="40.0738749" lon="-105.2302759">
  <ele>1602.49</ele>
  <time>2026-08-27T18:26:40Z</time>
  <course>202.34</course>
  <speed>0.02</speed>
  <fix>3d</fix>
</trkpt>
<trkpt lat="40.0738749" lon="-105.2302758">
  <ele>1603.28</ele>
  <time>2026-08-27T18:26:40Z</time>
  <course>5.8</course>
  <speed>0.02</speed>
  <fix>3d</fix>
</trkpt>
<trkpt lat="40.0738749" lon="-105.2302758">
  <ele>1603.77</ele>
  <time>2026-08-27T18:26:40Z</time>
  <course>5.97</course>
  <speed>0.01</speed>
  <fix>3d</fix>
</trkpt>
<trkpt lat="40.0738749" lon="-105.2302759">
  <ele>1602.98</ele>
  <time>2026-08-27T18:26:40Z</time>
  <course>198.01</course>
  <speed>0.02</speed>
  <fix>3d</fix>
</trkpt>
<trkpt lat="40.0738749" lon="-105.2302758">
  <ele>1603.84</ele>
  <time>2026-08-27T18:26:40Z</time>
  <course>5.99</course>
  <speed>0.01</speed>
  <fix>3d</fix>
</trkpt>
<trkpt lat="40.0738748" lon="-105.2302758">
  <ele>1604.28</ele>
  <time>2026-08-27T18:26:40Z</time>
  <course>6.13</course>
  <speed>0.01414213562373095</speed>
  <fix>3d</fix>
</trkpt>
<trkpt lat="40.0738749" lon="-105.2302759">
  <ele>1603.48</ele>
  <time>2026-08-27T18:26:40Z</time>
  <course>193.69</course>
  <speed>0.01</speed>
  <fix>3d</fix>
</trkpt>
<trkpt lat="40.0738748" lon="-105.2302758">
  <ele>1604.35</ele>
  <time>2026-08-27T18:26:40Z</time>
  <course>6.15</course>
  <speed>0.01414213562373095</speed>
  <fix>3d</fix>
</trkpt>
<trkpt lat="40.0738748" lon="-105.2302758">
  <ele>1604.79</ele>
  <time>2026-08-27T18:26:40Z</time>
  <course>6.31</course>
  <speed>0.01414213562373095</speed>
  <fix>3d</fix>
</trkpt>
<trkpt lat="40.0738748" lon="-105.2302759">
  <ele>1603.98</ele>
  <time>2026-08-27T18:26:40Z</time>
  <course>191.9</course>
  <speed>0.01</speed>
  <fix>3d</fix>
</trkpt>
<trkpt lat="40.0738748" lon="-105.2302758">
  <ele>1604.86</ele>
  <time>2026-08-27T18:26:40Z</time>
  <course>6.34</course>
  <speed>0.01</speed>
  <fix>3d</fix>
</trkpt>
<trkpt lat="40.0738748" lon="-105.2302758">
  <ele>1605.29</ele>
  <time>2026-08-27T18:26:40Z</time>
  <course>6.48</course>
  <speed>0.01</speed>
  <fix>3d</fix>
</trkpt>
<trkpt lat="40.0738748" lon="-105.2302759">
  <ele>1604.49</ele>
  <time>2026-08-27T18:26:40Z</time>
  <course>195.22</course>
  <speed>0.0</speed>
  <fix>3d</fix>
</trkpt>
<trkpt lat="40.0738748" lon="-105.2302758">
  <ele>1605.35</ele>
  <time>2026-08-27T18:26:40Z</time>
  <course>6.51</course>
  <speed>0.01</speed>
  <fix>3d</fix>
</trkpt>
<trkpt lat="40.0738748" lon="-105.2302758">
  <ele>1605.79</ele>
  <time>2026-08-27T18:26:40Z</time>
  <course>6.62</course>
  <speed>0.01</speed>
  <fix>3d</fix>
</trkpt>
<trkpt lat="40.0738748" lon="-105.2302759">
  <ele>1604.99</ele>
  <time>2026-08-27T18:26:40Z</time>
  <course>207.48</course>
  <speed>0.0</speed>
  <fix>3d</fix>
</trkpt>
<trkpt lat="40.0738748" lon="-105.2302758">
  <ele>1605.79</ele>
  <time>2026-08-27T18:26:40Z</time>
  <course>6.62</course>
  <speed>0.01</speed>
  <fix>3d</fix>
</trkpt>
<trkpt lat="40.0738748" lon="-105.2302758">
  <ele>1606.28</ele>
  <time>2026-08-27T18:26:40Z</time>
  <course>6.77</course>
  <speed>0.01</speed>
  <fix>3d</fix>
</trkpt>
<trkpt lat="40.0738748" lon="-105.2302759">
  <ele>1605.49</ele>
  <time>2026-08-27T18:26:40Z</time>
  <course>269.28</course>
  <speed>0.0</speed>
  <fix>3d</fix>
</trkpt>
<trkpt lat="40.0738748" lon="-105.2302758">
  <ele>1606.35</ele>
  <time>2026-08-27T18:26:40Z</time>
  <course>6.78</course>
  <speed>0.01</speed>
  <fix>3d</fix>
</trkpt>
<trkpt lat="40.0738748" lon="-105.2302758">
  <ele>1606.77</ele>
  <time>2026-08-27T18:26:40Z</time>
  <course>6.89</course>
  <speed>0.01</speed>
  <fix>3d</fix>
</trkpt>
<trkpt lat="40.0738748" lon="-105.2302759">
  <ele>1605.98</ele>
  <time>2026-08-27T18:26:40Z</time>
  <course>321.65</course>
  <speed>0.0</speed>
  <fix>3d</fix>
</trkpt>
<trkpt lat="40.0738748" lon="-105.2302758">
  <ele>1606.85</ele>
  <time>2026-08-27T18:26:40Z</time>
  <course>6.92</course>
  <speed>0.01</speed>
  <fix>3d</fix>
</trkpt>
<trkpt lat="40.0738748" lon="-105.2302758">
  <ele>1607.27</ele>
  <time>2026-08-27T18:26:40Z</time>
  <course>7.01</course>
  <speed>0.01</speed>
  <fix>3d</fix>
</trkpt>
<trkpt lat="40.0738748" lon="-105.2302759">
  <ele>1606.48</ele>
  <time>2026-08-27T18:26:40Z</time>
  <course>336.36</course>
  <speed>0.0</speed>
  <fix>3d</fix>
</trkpt>
<trkpt lat="40.0738748" lon="-105.2302758">
  <ele>1607.34</ele>
  <time>2026-08-27T18:26:40Z</time>
  <course>7.02</course>
  <speed>0.01</speed>
  <fix>3d</fix>
</trkpt>
<trkpt lat="40.0738748" lon="-105.2302758">
  <ele>1607.76</ele>
  <time>2026-08-27T18:26:40Z</time>
  <course>7.1</course>
  <speed>0.01</speed>
  <fix>3d</fix>
</trkpt>
<trkpt lat="40.0738748" lon="-105.2302759">
  <ele>1606.98</ele>
  <time>2026-08-27T18:26:40Z</time>
  <course>345.25</course>
  <speed>0.0</speed>
  <fix>3d</fix>
</trkpt>
<trkpt lat="40.0738748" lon="-105.2302758">
  <ele>1607.83</ele>
  <time>2026-08-27T18:26:40Z</time>
  <course>7.11</course>
  <speed>0.01</speed>
  <fix>3d</fix>
</trkpt>
<trkpt lat="40.0738748" lon="-105.2302758">
  <ele>1608.26</ele>
  <time>2026-08-27T18:26:40Z</time>
  <course>7.22</course>
  <speed>0.01</speed>
  <fix>3d</fix>
</trkpt>
<trkpt lat="40.0738748" lon="-105.2302759">
  <ele>1607.48</ele>
  <time>2026-08-27T18:26:40Z</time>
  <course>350.82</course>
  <speed>0.0</speed>
  <fix>3d</fix>
</trkpt>
<trkpt lat="40.0738748" lon="-105.2302758">
  <ele>1608.33</ele>
  <time>2026-08-27T18:26:40Z</time>
  <course>7.24</course>
  <speed>0.01</speed>
  <fix>3d</fix>
</trkpt>
<trkpt lat="40.0738748" lon="-105.2302758">
  <ele>1608.75</ele>
  <time>2026-08-27T18:26:40Z</time>
  <course>7.31</course>
  <speed>0.01</speed>
  <fix>3d</fix>
</trkpt>
<trkpt lat="40.0738748" lon="-105.2302759">
  <ele>1607.98</ele>
  <time>2026-08-27T18:26:40Z</time>
  <course>352.28</course>
  <speed>0.0</speed>
  <fix>3d</fix>
</trkpt>
<trkpt lat="40.0738748" lon="-105.2302758">
  <ele>1608.76</ele>
  <time>2026-08-27T18:26:40Z</time>
  <course>7.31</course>
  <speed>0.01</speed>
  <fix>3d</fix>
</trkpt>
<trkpt lat="40.0738748" lon="-105.2302758">
  <ele>1609.25</ele>
  <time>2026-08-27T18:26:40Z</time>
  <course>7.41</course>
  <speed>0.01</speed>
  <fix>3d</fix>
</trkpt>
<trkpt lat="40.0738748" lon="-105.2302759">
  <ele>1608.49</ele>
  <time>2026-08-27T18:26:40Z</time>
  <course>354.39</course>
  <speed>0.0</speed>
  <fix>3d</fix>
</trkpt>
<trkpt lat="40.0738748" lon="-105.2302758">
  <ele>1609.32</ele>
  <time>2026-08-27T18:26:40Z</time>
  <course>7.43</course>
  <speed>0.01</speed>
  <fix>3d</fix>
</trkpt>
<trkpt lat="40.0738748" lon="-105.2302758">
  <ele>1609.76</ele>
  <time>2026-08-27T18:26:40Z</time>
  <course>7.52</course>
  <speed>0.01</speed>
  <fix>3d</fix>
</trkpt>
<trkpt lat="40.0738748" lon="-105.2302759">
  <ele>1608.99</ele>
  <time>2026-08-27T18:26:40Z</time>
  <course>356.45</course>
  <speed>0.0</speed>
  <fix>3d</fix>
</trkpt>
<trkpt lat="40.0738748" lon="-105.2302758">
  <ele>1609.83</ele>
  <time>2026-08-27T18:26:40Z</time>
  <course>7.54</course>
  <speed>0.01</speed>
  <fix>3d</fix>
</trkpt>
<trkpt lat="40.0738748" lon="-105.2302758">
  <ele>1610.26</ele>
  <time>2026-08-27T18:26:40Z</time>
  <course>7.64</course>
  <speed>0.01</speed>
  <fix>3d</fix>
</trkpt>
<trkpt lat="40.0738748" lon="-105.2302759">
  <ele>1609.49</ele>
  <time>2026-08-27T18:26:40Z</time>
  <course>355.24</course>
  <speed>0.0</speed>
  <fix>3d</fix>
</trkpt>
<trkpt lat="40.0738748" lon="-105.2302758">
  <ele>1610.33</ele>
  <time>2026-08-27T18:26:40Z</time>
  <course>7.65</course>
  <speed>0.01</speed>
  <fix>3d</fix>
</trkpt>
<trkpt lat="40.0738748" lon="-105.2302758">
  <ele>1610.76</ele>
  <time>2026-08-27T18:26:40Z</time>
  <course>7.73</course>
  <speed>0.01</speed>
  <fix>3d</fix>
</trkpt>
<trkpt lat="40.0738748" lon="-105.2302759">
  <ele>1610.0</ele>
  <time>2026-08-27T18:26:40Z</time>
  <course>351.49</course>
  <speed>0.0</speed>
  <fix>3d</fix>
</trkpt>
<trkpt lat="40.0738748" lon="-105.2302758">
  <ele>1610.76</ele>
  <time>2026-08-27T18:26:40Z</time>
  <course>7.73</course>
  <speed>0.01</speed>
  <fix>3d</fix>
</trkpt>
<trkpt lat="40.0738748" lon="-105.2302758">
  <ele>1611.26</ele>
  <time>2026-08-27T18:26:40Z</time>
  <course>7.83</course>
  <speed>0.01</speed>
  <fix>3d</fix>
</trkpt>
<trkpt lat="40.0738748" lon="-105.2302759">
  <ele>1610.51</ele>
  <time>2026-08-27T18:26:40Z</time>
  <course>346.82</course>
  <speed>0.0</speed>
  <fix>3d</fix>
</trkpt>
<trkpt lat="40.0738748" lon="-105.2302758">
  <ele>1611.33</ele>
  <time>2026-08-27T18:26:40Z</time>
  <course>7.84</course>
  <speed>0.01</speed>
  <fix>3d</fix>
</trkpt>
<trkpt lat="40.0738748" lon="-105.2302758">
  <ele>1611.76</ele>
  <time>2026-08-27T18:26:40Z</time>
  <course>7.93</course>
  <speed>0.01</speed>
  <fix>3d</fix>
</trkpt>
<trkpt lat="40.0738749" lon="-105.2302759">
  <ele>1611.01</ele>
  <time>2026-08-27T18:26:40Z</time>
  <course>345.39</course>
  <speed>0.0</speed>
  <fix>3d</fix>
</trkpt>
<trkpt lat="40.0738748" lon="-105.2302758">
  <ele>1611.77</ele>
  <time>2026-08-27T18:26:40Z</time>
  <course>7.93</course>
  <speed>0.01</speed>
  <fix>3d</fix>
</trkpt>
<trkpt lat="40.0738748" lon="-105.2302758">
  <ele>1612.26</ele>
  <time>2026-08-27T18:26:40Z</time>
  <course>8.04</course>
  <speed>0.01</speed>
  <fix>3d</fix>
</trkpt>
<trkpt lat="40.0738749" lon="-105.2302759">
  <ele>1611.52</ele>
  <time>2026-08-27T18:26:40Z</time>
  <course>346.32</course>
  <speed>0.0</speed>
  <fix>3d</fix>
</trkpt>
<trkpt lat="40.0738748" lon="-105.2302758">
  <ele>1612.39</ele>
  <time>2026-08-27T18:26:40Z</time>
  <course>8.06</course>
  <speed>0.01</speed>
  <fix>3d</fix>
</trkpt>
<trkpt lat="40.0738748" lon="-105.2302758">
  <ele>1612.77</ele>
  <time>2026-08-27T18:26:40Z</time>
  <course>8.13</course>
  <speed>0.01</speed>
  <fix>3d</fix>
</trkpt>
<trkpt lat="40.0738749" lon="-105.2302759">
  <ele>1612.02</ele>
  <time>2026-08-27T18:26:40Z</time>
  <course>345.5</course>
  <speed>0.0</speed>
  <fix>3d</fix>
</trkpt>
<trkpt lat="40.0738748" lon="-105.2302758">
  <ele>1612.89</ele>
  <time>2026-08-27T18:26:40Z</time>
  <course>8.16</course>
  <speed>0.01</speed>
  <fix>3d</fix>
</trkpt>
<trkpt lat="40.0738748" lon="-105.2302758">
  <ele>1613.27</ele>
  <time>2026-08-27T18:26:40Z</time>
  <course>8.22</course>
  <speed>0.01</speed>
  <fix>3d</fix>
</trkpt>
<trkpt lat="40.0738749" lon="-105.2302759">
  <ele>1612.53</ele>
  <time>2026-08-27T18:26:40Z</time>
  <course>340.72</course>
  <speed>0.0</speed>
  <fix>3d</fix>
</trkpt>
<trkpt lat="40.0738748" lon="-105.2302758">
  <ele>1613.33</ele>
  <time>2026-08-27T18:26:40Z</time>
  <course>8.22</course>
  <speed>0.01</speed>
  <fix>3d</fix>
</trkpt>
<trkpt lat="40.0738748" lon="-105.2302758">
  <ele>1613.78</ele>
  <time>2026-08-27T18:26:40Z</time>
  <course>8.32</course>
  <speed>0.01</speed>
  <fix>3d</fix>
</trkpt>
<trkpt lat="40.0738749" lon="-105.2302759">
  <ele>1613.03</ele>
  <time>2026-08-27T18:26:40Z</time>
  <course>333.64</course>
  <speed>0.0</speed>
  <fix>3d</fix>
</trkpt>
<trkpt lat="40.0738748" lon="-105.2302758">
  <ele>1613.9</ele>
  <time>2026-08-27T18:26:40Z</time>
  <course>8.33</course>
  <speed>0.01</speed>
  <fix>3d</fix>
</trkpt>
<trkpt lat="40.0738748" lon="-105.2302758">
  <ele>1614.28</ele>
  <time>2026-08-27T18:26:40Z</time>
  <course>8.39</course>
  <speed>0.01414213562373095</speed>
  <fix>3d</fix>
</trkpt>
<trkpt lat="40.0738749" lon="-105.230276">
  <ele>1613.54</ele>
  <time>2026-08-27T18:26:40Z</time>
  <course>329.39</course>
  <speed>0.0</speed>
  <fix>3d</fix>
</trkpt>
<trkpt lat="40.0738748" lon="-105.2302758">
  <ele>1614.41</ele>
  <time>2026-08-27T18:26:40Z</time>
  <course>8.42</course>
  <speed>0.01414213562373095</speed>
  <fix>3d</fix>
</trkpt>
<trkpt lat="40.0738748" lon="-105.2302758">
  <ele>1614.79</ele>
  <time>2026-08-27T18:26:40Z</time>
  <course>8.47</course>
  <speed>0.01414213562373095</speed>
  <fix>3d</fix>
</trkpt>
<trkpt lat="40.0738749" lon="-105.2302761">
  <ele>1614.04</ele>
  <time>2026-08-27T18:26:40Z</time>
  <course>321.87</course>
  <speed>0.0</speed>
  <fix>3d</fix>
</trkpt>
<trkpt lat="40.0738748" lon="-105.2302758">
  <ele>1614.82</ele>
  <time>2026-08-27T18:26:40Z</time>
  <course>8.48</course>
  <speed>0.01414213562373095</speed>
  <fix>3d</fix>
</trkpt>
<trkpt lat="40.0738748" lon="-105.2302758">
  <ele>1615.29</ele>
  <time>2026-08-27T18:26:40Z</time>
  <course>8.54</course>
  <speed>0.01414213562373095</speed>
  <fix>3d</fix>
</trkpt>
<trkpt lat="40.0738749" lon="-105.2302761">
  <ele>1614.54</ele>
  <time>2026-08-27T18:26:40Z</time>
  <course>303.5</course>
  <speed>0.0</speed>
  <fix>3d</fix>
</trkpt>
<trkpt lat="40.0738748" lon="-105.2302758">
  <ele>1615.4</ele>
  <time>2026-08-27T18:26:40Z</time>
  <course>8.56</course>
  <speed>0.01414213562373095</speed>
  <fix>3d</fix>
</trkpt>
<trkpt lat="40.0738748" lon="-105.2302758">
  <ele>1615.79</ele>
  <time>2026-08-27T18:26:40Z</time>
  <course>8.61</course>
  <speed>0.01414213562373095</speed>
  <fix>3d</fix>
</trkpt>
<trkpt lat="40.0738749" lon="-105.2302761">
  <ele>1615.04</ele>
  <time>2026-08-27T18:26:40Z</time>
  <course>266.66</course>
  <speed>0.0</speed>
  <fix>3d</fix>
</trkpt>
<trkpt lat="40.0738748" lon="-105.2302758">
  <ele>1615.82</ele>
  <time>2026-08-27T18:26:40Z</time>
  <course>8.61</course>
  <speed>0.01414213562373095</speed>
  <fix>3d</fix>
</trkpt>
<trkpt lat="40.0738748" lon="-105.2302758">
  <ele>1616.29</ele>
  <time>2026-08-27T18:26:40Z</time>
  <course>8.68</course>
  <speed>0.01414213562373095</speed>
  <fix>3d</fix>
</trkpt>
<trkpt lat="40.0738749" lon="-105.2302761">
  <ele>1615.54</ele>
  <time>2026-08-27T18:26:40Z</time>
  <course>218.95</course>
  <speed>0.0</speed>
  <fix>3d</fix>
</trkpt>
<trkpt lat="40.0738748" lon="-105.2302758">
  <ele>1616.41</ele>
  <time>2026-08-27T18:26:40Z</time>
  <course>8.69</course>
  <speed>0.01414213562373095</speed>
  <fix>3d</fix>
</trkpt>
<trkpt lat="40.0738748" lon="-105.2302758">
  <ele>1616.8</ele>
  <time>2026-08-27T18:26:40Z</time>
  <course>8.76</course>
  <speed>0.022360679774997897</speed>
  <fix>3d</fix>
</trkpt>
<trkpt lat="40.0738749" lon="-105.2302761">
  <ele>1616.05</ele>
  <time>2026-08-27T18:26:40Z</time>
  <course>190.82</course>
  <speed>0.0</speed>
  <fix>3d</fix>
</trkpt>
<trkpt lat="40.0738748" lon="-105.2302758">
  <ele>1616.9</ele>
  <time>2026-08-27T18:26:40Z</time>
  <course>8.76</course>
  <speed>0.022360679774997897</speed>
  <fix>3d</fix>
</trkpt>
<trkpt lat="40.0738748" lon="-105.2302758">
  <ele>1617.3</ele>
  <time>2026-08-27T18:26:40Z</time>
  <course>8.81</course>
  <speed>0.022360679774997897</speed>
  <fix>3d</fix>
</trkpt>
<trkpt lat="40.0738749" lon="-105.2302761">
  <ele>1616.54</ele>
  <time>2026-08-27T18:26:40Z</time>
  <course>169.86</course>
  <speed>0.0</speed>
  <fix>3d</fix>
</trkpt>
<trkpt lat="40.0738748" lon="-105.2302758">
  <ele>1617.41</ele>
  <time>2026-08-27T18:26:40Z</time>
  <course>8.83</course>
  <speed>0.022360679774997897</speed>
  <fix>3d</fix>
</trkpt>
<trkpt lat="40.0738748" lon="-105.2302758">
  <ele>1617.8</ele>
  <time>2026-08-27T18:26:40Z</time>
  <course>8.87</course>
  <speed>0.022360679774997897</speed>
  <fix>3d</fix>
</trkpt>
<trkpt lat="40.0738749" lon="-105.2302761">
  <ele>1617.04</ele>
  <time>2026-08-27T18:26:40Z</time>
  <course>150.52</course>
  <speed>0.0</speed>
  <fix>3d</fix>
</trkpt>
<trkpt lat="40.0738748" lon="-105.2302758">
  <ele>1617.91</ele>
  <time>2026-08-27T18:26:40Z</time>
  <course>8.88</course>
  <speed>0.022360679774997897</speed>
  <fix>3d</fix>
</trkpt>
<trkpt lat="40.0738748" lon="-105.2302758">
  <ele>1618.29</ele>
  <time>2026-08-27T18:26:40Z</time>
  <course>8.96</course>
  <speed>0.022360679774997897</speed>
  <fix>3d</fix>
</trkpt>
<trkpt lat="40.0738749" lon="-105.2302761">
  <ele>1617.54</ele>
  <time>2026-08-27T18:26:40Z</time>
  <course>132.1</course>
  <speed>0.0</speed>
  <fix>3d</fix>
</trkpt>
<trkpt lat="40.0738748" lon="-105.2302758">
  <ele>1618.34</ele>
  <time>2026-08-27T18:26:40Z</time>
  <course>8.96</course>
  <speed>0.022360679774997897</speed>
  <fix>3d</fix>
</trkpt>
<trkpt lat="40.0738748" lon="-105.2302758">
  <ele>1618.79</ele>
  <time>2026-08-27T18:26:40Z</time>
  <course>9.0</course>
  <speed>0.022360679774997897</speed>
  <fix>3d</fix>
</trkpt>
<trkpt lat="40.0738749" lon="-105.2302761">
  <ele>1618.04</ele>
  <time>2026-08-27T18:26:40Z</time>
  <course>113.92</course>
  <speed>0.0</speed>
  <fix>3d</fix>
</trkpt>
<trkpt lat="40.0738748" lon="-105.2302758">
  <ele>1618.82</ele>
  <time>2026-08-27T18:26:40Z</time>
  <course>9.0</course>
  <speed>0.022360679774997897</speed>
  <fix>3d</fix>
</trkpt>
<trkpt lat="40.0738748" lon="-105.2302758">
  <ele>1619.29</ele>
  <time>2026-08-27T18:26:40Z</time>
  <course>9.04</course>
  <speed>0.022360679774997897</speed>
  <fix>3d</fix>
</trkpt>
<trkpt lat="40.0738749" lon="-105.2302761">
  <ele>1618.54</ele>
  <time>2026-08-27T18:26:40Z</time>
  <course>103.13</course>
  <speed>0.0</speed>
  <fix>3d</fix>
</trkpt>
<trkpt lat="40.0738748" lon="-105.2302758">
  <ele>1619.41</ele>
  <time>2026-08-27T18:26:40Z</time>
  <course>9.06</course>
  <speed>0.022360679774997897</speed>
  <fix>3d</fix>
</trkpt>
<trkpt lat="40.0738748" lon="-105.2302758">
  <ele>1619.79</ele>
  <time>2026-08-27T18:26:40Z</time>
  <course>9.12</course>
  <speed>0.022360679774997897</speed>
  <fix>3d</fix>
</trkpt>
<trkpt lat="40.0738749" lon="-105.2302761">
  <ele>1619.03</ele>
  <time>2026-08-27T18:26:40Z</time>
  <course>99.84</course>
  <speed>0.0</speed>
  <fix>3d</fix>
</trkpt>
<trkpt lat="40.0738748" lon="-105.2302758">
  <ele>1619.91</ele>
  <time>2026-08-27T18:26:40Z</time>
  <course>9.13</course>
  <speed>0.022360679774997897</speed>
  <fix>3d</fix>
</trkpt>
<trkpt lat="40.0738748" lon="-105.2302758">
  <ele>1620.3</ele>
  <time>2026-08-27T18:26:40Z</time>
  <course>9.16</course>
  <speed>0.022360679774997897</speed>
  <fix>3d</fix>
</trkpt>
<trkpt lat="40.0738749" lon="-105.2302761">
  <ele>1619.53</ele>
  <time>2026-08-27T18:26:40Z</time>
  <course>98.89</course>
  <speed>0.0</speed>
  <fix>3d</fix>
</trkpt>
<trkpt lat="40.0738748" lon="-105.2302758">
  <ele>1620.42</ele>
  <time>2026-08-27T18:26:40Z</time>
  <course>9.19</course>
  <speed>0.022360679774997897</speed>
  <fix>3d</fix>
</trkpt>
<trkpt lat="40.0738748" lon="-105.2302758">
  <ele>1620.8</ele>
  <time>2026-08-27T18:26:40Z</time>
  <course>9.24</course>
  <speed>0.022360679774997897</speed>
  <fix>3d</fix>
</trkpt>
<trkpt lat="40.0738749" lon="-105.2302761">
  <ele>1620.03</ele>
  <time>2026-08-27T18:26:40Z</time>
  <course>99.62</course>
  <speed>0.0</speed>
  <fix>3d</fix>
</trkpt>
<trkpt lat="40.0738748" lon="-105.2302758">
  <ele>1620.82</ele>
  <time>2026-08-27T18:26:40Z</time>
  <course>9.25</course>
  <speed>0.022360679774997897</speed>
  <fix>3d</fix>
</trkpt>
<trkpt lat="40.0738748" lon="-105.2302758">
  <ele>1621.29</ele>
  <time>2026-08-27T18:26:40Z</time>
  <course>9.3</course>
  <speed>0.022360679774997897</speed>
  <fix>3d</fix>
</trkpt>
<trkpt lat="40.0738749" lon="-105.2302761">
  <ele>1620.53</ele>
  <time>2026-08-27T18:26:40Z</time>
  <course>101.41</course>
  <speed>0.0</speed>
  <fix>3d</fix>
</trkpt>
<trkpt lat="40.0738748" lon="-105.2302758">
  <ele>1621.36</ele>
  <time>2026-08-27T18:26:40Z</time>
  <course>9.31</course>
  <speed>0.022360679774997897</speed>
  <fix>3d</fix>
</trkpt>
<trkpt lat="40.0738748" lon="-105.2302758">
  <ele>1621.78</ele>
  <time>2026-08-27T18:26:40Z</time>
  <course>9.32</course>
  <speed>0.022360679774997897</speed>
  <fix>3d</fix>
</trkpt>
<trkpt lat="40.0738749" lon="-105.230276">
  <ele>1621.02</ele>
  <time>2026-08-27T18:26:40Z</time>
  <course>101.33</course>
  <speed>0.0</speed>
  <fix>3d</fix>
</trkpt>
<trkpt lat="40.0738748" lon="-105.2302758">
  <ele>1621.85</ele>
  <time>2026-08-27T18:26:40Z</time>
  <course>9.33</course>
  <speed>0.022360679774997897</speed>
  <fix>3d</fix>
</trkpt>
<trkpt lat="40.0738748" lon="-105.2302758">
  <ele>1622.28</ele>
  <time>2026-08-27T18:26:40Z</time>
  <course>9.36</course>
  <speed>0.022360679774997897</speed>
  <fix>3d</fix>
</trkpt>
<trkpt lat="40.0738749" lon="-105.2302759">
  <ele>1621.52</ele>
  <time>2026-08-27T18:26:40Z</time>
  <course>100.69</course>
  <speed>0.0</speed>
  <fix>3d</fix>
</trkpt>
<trkpt lat="40.0738748" lon="-105.2302758">
  <ele>1622.35</ele>
  <time>2026-08-27T18:26:40Z</time>
  <course>9.37</course>
  <speed>0.022360679774997897</speed>
  <fix>3d</fix>
</trkpt>
<trkpt lat="40.0738748" lon="-105.2302758">
  <ele>1622.77</ele>
  <time>2026-08-27T18:26:40Z</time>
  <course>9.42</course>
  <speed>0.022360679774997897</speed>
  <fix>3d</fix>
</trkpt>
<trkpt lat="40.0738749" lon="-105.2302759">
  <ele>1622.02</ele>
  <time>2026-08-27T18:26:40Z</time>
  <course>100.5</course>
  <speed>0.0</speed>
  <fix>3d</fix>
</trkpt>
<trkpt lat="40.0738748" lon="-105.2302758">
  <ele>1622.84</ele>
  <time>2026-08-27T18:26:40Z</time>
  <course>9.43</course>
  <speed>0.022360679774997897</speed>
  <fix>3d</fix>
</trkpt>
<trkpt lat="40.0738748" lon="-105.2302758">
  <ele>1623.27</ele>
  <time>2026-08-27T18:26:40Z</time>
  <course>9.43</course>
  <speed>0.022360679774997897</speed>
  <fix>3d</fix>
</trkpt>
<trkpt lat="40.0738749" lon="-105.2302759">
  <ele>1622.52</ele>
  <time>2026-08-27T18:26:40Z</time>
  <course>103.88</course>
  <speed>0.0</speed>
  <fix>3d</fix>
</trkpt>
<trkpt lat="40.0738748" lon="-105.2302758">
  <ele>1623.34</ele>
  <time>2026-08-27T18:26:40Z</time>
  <course>9.43</course>
  <speed>0.022360679774997897</speed>
  <fix>3d</fix>
</trkpt>
<trkpt lat="40.0738748" lon="-105.2302758">
  <ele>1623.77</ele>
  <time>2026-08-27T18:26:40Z</time>
  <course>9.46</course>
  <speed>0.022360679774997897</speed>
  <fix>3d</fix>
</trkpt>
<trkpt lat="40.0738749" lon="-105.2302759">
  <ele>1623.02</ele>
  <time>2026-08-27T18:26:40Z</time>
  <course>112.64</course>
  <speed>0.0</speed>
  <fix>3d</fix>
</trkpt>
<trkpt lat="40.0738748" lon="-105.2302758">
  <ele>1623.79</ele>
  <time>2026-08-27T18:26:40Z</time>
  <course>9.47</course>
  <speed>0.022360679774997897</speed>
  <fix>3d</fix>
</trkpt>
<trkpt lat="40.0738748" lon="-105.2302757">
  <ele>1624.26</ele>
  <time>2026-08-27T18:26:40Z</time>
  <course>9.52</course>
  <speed>0.022360679774997897</speed>
  <fix>3d</fix>
</trkpt>
<trkpt lat="40.0738749" lon="-105.2302759">
  <ele>1623.52</ele>
  <time>2026-08-27T18:26:40Z</time>
  <course>127.34</course>
  <speed>0.0</speed>
  <fix>3d</fix>
</trkpt>
<trkpt lat="40.0738748" lon="-105.2302757">
  <ele>1624.34</ele>
  <time>2026-08-27T18:26:40Z</time>
  <course>9.52</course>
  <speed>0.022360679774997897</speed>
  <fix>3d</fix>
</trkpt>
<trkpt lat="40.0738748" lon="-105.2302757">
  <ele>1624.76</ele>
  <time>2026-08-27T18:26:40Z</time>
  <course>9.56</course>
  <speed>0.022360679774997897</speed>
  <fix>3d</fix>
</trkpt>
<trkpt lat="40.0738749" lon="-105.2302759">
  <ele>1624.02</ele>
  <time>2026-08-27T18:26:40Z</time>
  <course>145.92</course>
  <speed>0.0</speed>
  <fix>3d</fix>
</trkpt>
<trkpt lat="40.0738748" lon="-105.2302757">
  <ele>1624.84</ele>
  <time>2026-08-27T18:26:40Z</time>
  <course>9.56</course>
  <speed>0.022360679774997897</speed>
  <fix>3d</fix>
</trkpt>
<trkpt lat="40.0738748" lon="-105.2302757">
  <ele>1625.27</ele>
  <time>2026-08-27T18:26:40Z</time>
  <course>9.62</course>
  <speed>0.022360679774997897</speed>
  <fix>3d</fix>
</trkpt>
<trkpt lat="40.0738749" lon="-105.2302759">
  <ele>1624.52</ele>
  <time>2026-08-27T18:26:40Z</time>
  <course>162.32</course>
  <speed>0.0</speed>
  <fix>3d</fix>
</trkpt>
<trkpt lat="40.0738748" lon="-105.2302757">
  <ele>1625.34</ele>
  <time>2026-08-27T18:26:40Z</time>
  <course>9.64</course>
  <speed>0.022360679774997897</speed>
  <fix>3d</fix>
</trkpt>
<trkpt lat="40.0738748" lon="-105.2302757">
  <ele>1625.78</ele>
  <time>2026-08-27T18:26:40Z</time>
  <course>9.67</course>
  <speed>0.022360679774997897</speed>
  <fix>3d</fix>
</trkpt>
<trkpt lat="40.0738749" lon="-105.2302759">
  <ele>1625.03</ele>
  <time>2026-08-27T18:26:40Z</time>
  <course>175.58</course>
  <speed>0.0</speed>
  <fix>3d</fix>
</trkpt>
<trkpt lat="40.0738748" lon="-105.2302757">
  <ele>1625.79</ele>
  <time>2026-08-27T18:26:40Z</time>
  <course>9.67</course>
  <speed>0.022360679774997897</speed>
  <fix>3d</fix>
</trkpt>
<trkpt lat="40.0738748" lon="-105.2302757">
  <ele>1626.29</ele>
  <time>2026-08-27T18:26:40Z</time>
  <course>9.75</course>
  <speed>0.022360679774997897</speed>
  <fix>3d</fix>
</trkpt>
<trkpt lat="40.0738749" lon="-105.2302759">
  <ele>1625.53</ele>
  <time>2026-08-27T18:26:40Z</time>
  <course>186.07</course>
  <speed>0.0</speed>
  <fix>3d</fix>
</trkpt>
<trkpt lat="40.0738748" lon="-105.2302757">
  <ele>1626.36</ele>
  <time>2026-08-27T18:26:40Z</time>
  <course>9.75</course>
  <speed>0.022360679774997897</speed>
  <fix>3d</fix>
</trkpt>
<trkpt lat="40.0738748" lon="-105.2302757">
  <ele>1626.79</ele>
  <time>2026-08-27T18:26:40Z</time>
  <course>9.8</course>
  <speed>0.022360679774997897</speed>
  <fix>3d</fix>
</trkpt>
<trkpt lat="40.0738749" lon="-105.2302759">
  <ele>1626.03</ele>
  <time>2026-08-27T18:26:40Z</time>
  <course>191.11</course>
  <speed>0.0</speed>
  <fix>3d</fix>
</trkpt>
<trkpt lat="40.0738748" lon="-105.2302757">
  <ele>1626.8</ele>
  <time>2026-08-27T18:26:40Z</time>
  <course>9.8</course>
  <speed>0.022360679774997897</speed>
  <fix>3d</fix>
</trkpt>
<trkpt lat="40.0738748" lon="-105.2302757">
  <ele>1627.29</ele>
  <time>2026-08-27T18:26:40Z</time>
  <course>9.85</course>
  <speed>0.01414213562373095</speed>
  <fix>3d</fix>
</trkpt>
<trkpt lat="40.0738749" lon="-105.2302759">
  <ele>1626.54</ele>
  <time>2026-08-27T18:26:40Z</time>
  <course>192.22</course>
  <speed>0.0</speed>
  <fix>3d</fix>
</trkpt>
<trkpt lat="40.0738748" lon="-105.2302757">
  <ele>1627.36</ele>
  <time>2026-08-27T18:26:40Z</time>
  <course>9.86</course>
  <speed>0.01414213562373095</speed>
  <fix>3d</fix>
</trkpt>
<trkpt lat="40.0738748" lon="-105.2302757">
  <ele>1627.8</ele>
  <time>2026-08-27T18:26:40Z</time>
  <course>9.9</course>
  <speed>0.01414213562373095</speed>
  <fix>3d</fix>
</trkpt>
<trkpt lat="40.0738749" lon="-105.2302759">
  <ele>1627.04</ele>
  <time>2026-08-27T18:26:40Z</time>
  <course>194.13</course>
  <speed>0.0</speed>
  <fix>3d</fix>
</trkpt>
<trkpt lat="40.0738748" lon="-105.2302757">
  <ele>1627.87</ele>
  <time>2026-08-27T18:26:40Z</time>
  <course>9.91</course>
  <speed>0.01414213562373095</speed>
  <fix>3d</fix>
</trkpt>
<trkpt lat="40.0738748" lon="-105.2302757">
  <ele>1628.3</ele>
  <time>2026-08-27T18:26:40Z</time>
  <course>9.95</course>
  <speed>0.01414213562373095</speed>
  <fix>3d</fix>
</trkpt>
<trkpt lat="40.0738749" lon="-105.2302759">
  <ele>1627.54</ele>
  <time>2026-08-27T18:26:40Z</time>
  <course>200.18</course>
  <speed>0.0</speed>
  <fix>3d</fix>
</trkpt>
<trkpt lat="40.0738748" lon="-105.2302757">
  <ele>1628.31</ele>
  <time>2026-08-27T18:26:40Z</time>
  <course>9.95</course>
  <speed>0.01414213562373095</speed>
  <fix>3d</fix>
</trkpt>
<trkpt lat="40.0738748" lon="-105.2302757">
  <ele>1628.8</ele>
  <time>2026-08-27T18:26:40Z</time>
  <course>9.98</course>
  <speed>0.01414213562373095</speed>
  <fix>3d</fix>
</trkpt>
<trkpt lat="40.0738749" lon="-105.2302759">
  <ele>1628.03</ele>
  <time>2026-08-27T18:26:40Z</time>
  <course>207.3</course>
  <speed>0.0</speed>
  <fix>3d</fix>
</trkpt>
<trkpt lat="40.0738748" lon="-105.2302757">
  <ele>1628.87</ele>
  <time>2026-08-27T18:26:40Z</time>
  <course>9.99</course>
  <speed>0.01414213562373095</speed>
  <fix>3d</fix>
</trkpt>
<trkpt lat="40.0738748" lon="-105.2302758">
  <ele>1629.3</ele>
  <time>2026-08-27T18:26:40Z</time>
  <course>10.04</course>
  <speed>0.01414213562373095</speed>
  <fix>3d</fix>
</trkpt>
<trkpt lat="40.0738749" lon="-105.2302759">
  <ele>1628.53</ele>
  <time>2026-08-27T18:26:40Z</time>
  <course>212.5</course>
  <speed>0.0</speed>
  <fix>3d</fix>
</trkpt>
<trkpt lat="40.0738748" lon="-105.2302757">
  <ele>1629.37</ele>
  <time>2026-08-27T18:26:40Z</time>
  <course>10.05</course>
  <speed>0.01414213562373095</speed>
  <fix>3d</fix>
</trkpt>
<trkpt lat="40.0738748" lon="-105.2302758">
  <ele>1629.79</ele>
  <time>2026-08-27T18:26:40Z</time>
  <course>10.06</course>
  <speed>0.01414213562373095</speed>
  <fix>3d</fix>
</trkpt>
<trkpt lat="40.0738748" lon="-105.2302759">
  <ele>1629.03</ele>
  <time>2026-08-27T18:26:40Z</time>
  <course>215.35</course>
  <speed>0.0</speed>
  <fix>3d</fix>
</trkpt>
<trkpt lat="40.0738748" lon="-105.2302758">
  <ele>1629.8</ele>
  <time>2026-08-27T18:26:40Z</time>
  <course>10.06</course>
  <speed>0.01414213562373095</speed>
  <fix>3d</fix>
</trkpt>
<trkpt lat="40.0738748" lon="-105.2302758">
  <ele>1630.29</ele>
  <time>2026-08-27T18:26:40Z</time>
  <course>10.08</course>
  <speed>0.022360679774997897</speed>
  <fix>3d</fix>
</trkpt>
<trkpt lat="40.0738748" lon="-105.2302759">
  <ele>1629.52</ele>
  <time>2026-08-27T18:26:40Z</time>
  <course>215.11</course>
  <speed>0.0</speed>
  <fix>3d</fix>
</trkpt>
<trkpt lat="40.0738748" lon="-105.2302758">
  <ele>1630.36</ele>
  <time>2026-08-27T18:26:40Z</time>
  <course>10.08</course>
  <speed>0.022360679774997897</speed>
  <fix>3d</fix>
</trkpt>
<trkpt lat="40.0738748" lon="-105.2302758">
  <ele>1630.79</ele>
  <time>2026-08-27T18:26:40Z</time>
  <course>10.11</course>
  <speed>0.022360679774997897</speed>
  <fix>3d</fix>
</trkpt>
<trkpt lat="40.0738748" lon="-105.2302759">
  <ele>1630.02</ele>
  <time>2026-08-27T18:26:40Z</time>
  <course>216.94</course>
  <speed>0.0</speed>
  <fix>3d</fix>
</trkpt>
<trkpt lat="40.0738748" lon="-105.2302758">
  <ele>1630.8</ele>
  <time>2026-08-27T18:26:40Z</time>
  <course>10.11</course>
  <speed>0.022360679774997897</speed>
  <fix>3d</fix>
</trkpt>
<trkpt lat="40.0738748" lon="-105.2302758">
  <ele>1631.29</ele>
  <time>2026-08-27T18:26:40Z</time>
  <course>10.15</course>
  <speed>0.01414213562373095</speed>
  <fix>3d</fix>
</trkpt>
<trkpt lat="40.0738748" lon="-105.2302759">
  <ele>1630.52</ele>
  <time>2026-08-27T18:26:40Z</time>
  <course>220.16</course>
  <speed>0.0</speed>
  <fix>3d</fix>
</trkpt>
<trkpt lat="40.0738748" lon="-105.2302758">
  <ele>1631.36</ele>
  <time>2026-08-27T18:26:40Z</time>
  <course>10.16</course>
  <speed>0.01414213562373095</speed>
  <fix>3d</fix>
</trkpt>
<trkpt lat="40.0738748" lon="-105.2302758">
  <ele>1631.79</ele>
  <time>2026-08-27T18:26:40Z</time>
  <course>10.2</course>
  <speed>0.01414213562373095</speed>
  <fix>3d</fix>
</trkpt>
<trkpt lat="40.0738748" lon="-105.2302759">
  <ele>1631.02</ele>
  <time>2026-08-27T18:26:40Z</time>
  <course>224.65</course>
  <speed>0.0</speed>
  <fix>3d</fix>
</trkpt>
<trkpt lat="40.0738748" lon="-105.2302758">
  <ele>1631.86</ele>
  <time>2026-08-27T18:26:41Z</time>
  <course>10.2</course>
  <speed>0.022360679774997897</speed>
  <fix>3d</fix>
</trkpt>
<trkpt lat="40.0738748" lon="-105.2302758">
  <ele>1632.29</ele>
  <time>2026-08-27T18:26:41Z</time>
  <course>10.24</course>
  <speed>0.022360679774997897</speed>
  <fix>3d</fix>
</trkpt>
<trkpt lat="40.0738748" lon="-105.2302759">
  <ele>1631.51</ele>
  <time>2026-08-27T18:26:41Z</time>
  <course>232.32</course>
  <speed>0.0</speed>
  <fix>3d</fix>
</trkpt>
<trkpt lat="40.0738748" lon="-105.2302758">
  <ele>1632.35</ele>
  <time>2026-08-27T18:26:41Z</time>
  <course>10.24</course>
  <speed>0.022360679774997897</speed>
  <fix>3d</fix>
</trkpt>
<trkpt lat="40.0738748" lon="-105.2302758">
  <ele>1632.78</ele>
  <time>2026-08-27T18:26:41Z</time>
  <course>10.26</course>
  <speed>0.022360679774997897</speed>
  <fix>3d</fix>
</trkpt>
<trkpt lat="40.0738748" lon="-105.2302759">
  <ele>1632.01</ele>
  <time>2026-08-27T18:26:41Z</time>
  <course>242.18</course>
  <speed>0.0</speed>
  <fix>3d</fix>
</trkpt>
<trkpt lat="40.0738748" lon="-105.2302758">
  <ele>1632.85</ele>
  <time>2026-08-27T18:26:41Z</time>
  <course>10.27</course>
  <speed>0.022360679774997897</speed>
  <fix>3d</fix>
</trkpt>
<trkpt lat="40.0738748" lon="-105.2302758">
  <ele>1633.27</ele>
  <time>2026-08-27T18:26:41Z</time>
  <course>10.29</course>
  <speed>0.022360679774997897</speed>
  <fix>3d</fix>
</trkpt>
<trkpt lat="40.0738748" lon="-105.2302759">
  <ele>1632.51</ele>
  <time>2026-08-27T18:26:41Z</time>
  <course>252.23</course>
  <speed>0.0</speed>
  <fix>3d</fix>
</trkpt>
<trkpt lat="40.0738748" lon="-105.2302758">
  <ele>1633.28</ele>
  <time>2026-08-27T18:26:41Z</time>
  <course>10.29</course>
  <speed>0.022360679774997897</speed>
  <fix>3d</fix>
</trkpt>
<trkpt lat="40.0738748" lon="-105.2302758">
  <ele>1633.77</ele>
  <time>2026-08-27T18:26:41Z</time>
  <course>10.28</course>
  <speed>0.022360679774997897</speed>
  <fix>3d</fix>
</trkpt>
<trkpt lat="40.0738748" lon="-105.2302759">
  <ele>1633.01</ele>
  <time>2026-08-27T18:26:41Z</time>
  <course>260.21</course>
  <speed>0.0</speed>
  <fix>3d</fix>
</trkpt>
<trkpt lat="40.0738748" lon="-105.2302758">
  <ele>1633.85</ele>
  <time>2026-08-27T18:26:41Z</time>
  <course>10.28</course>
  <speed>0.022360679774997897</speed>
  <fix>3d</fix>
</trkpt>
<trkpt lat="40.0738748" lon="-105.2302758">
  <ele>1634.27</ele>
  <time>2026-08-27T18:26:41Z</time>
  <course>10.31</course>
  <speed>0.022360679774997897</speed>
  <fix>3d</fix>
</trkpt>
<trkpt lat="40.0738748" lon="-105.2302759">
  <ele>1633.51</ele>
  <time>2026-08-27T18:26:41Z</time>
  <course>268.29</course>
  <speed>0.0</speed>
  <fix>3d</fix>
</trkpt>
<trkpt lat="40.0738748" lon="-105.2302758">
  <ele>1634.34</ele>
  <time>2026-08-27T18:26:41Z</time>
  <course>10.32</course>
  <speed>0.022360679774997897</speed>
  <fix>3d</fix>
</trkpt>
<trkpt lat="40.0738748" lon="-105.2302758">
  <ele>1634.77</ele>
  <time>2026-08-27T18:26:41Z</time>
  <course>10.36</course>
  <speed>0.022360679774997897</speed>
  <fix>3d</fix>
</trkpt>
<trkpt lat="40.0738748" lon="-105.2302759">
  <ele>1634.01</ele>
  <time>2026-08-27T18:26:41Z</time>
  <course>274.35</course>
  <speed>0.0</speed>
  <fix>3d</fix>
</trkpt>
<trkpt lat="40.0738748" lon="-105.2302758">
  <ele>1634.84</ele>
  <time>2026-08-27T18:26:41Z</time>
  <course>10.36</course>
  <speed>0.022360679774997897</speed>
  <fix>3d</fix>
</trkpt>
<trkpt lat="40.0738748" lon="-105.2302758">
  <ele>1635.27</ele>
  <time>2026-08-27T18:26:41Z</time>
  <course>10.37</course>
  <speed>0.01414213562373095</speed>
  <fix>3d</fix>
</trkpt>
<trkpt lat="40.0738748" lon="-105.2302759">
  <ele>1634.51</ele>
  <time>2026-08-27T18:26:41Z</time>
  <course>278.23</course>
  <speed>0.0</speed>
  <fix>3d</fix>
</trkpt>
<trkpt lat="40.0738748" lon="-105.2302758">
  <ele>1635.36</ele>
  <time>2026-08-27T18:26:41Z</time>
  <course>10.38</course>
  <speed>0.01414213562373095</speed>
  <fix>3d</fix>
</trkpt>
<trkpt lat="40.0738748" lon="-105.2302758">
  <ele>1635.78</ele>
  <time>2026-08-27T18:26:41Z</time>
  <course>10.43</course>
  <speed>0.01414213562373095</speed>
  <fix>3d</fix>
</trkpt>
<trkpt lat="40.0738748" lon="-105.2302759">
  <ele>1635.01</ele>
  <time>2026-08-27T18:26:41Z</time>
  <course>280.26</course>
  <speed>0.0</speed>
  <fix>3d</fix>
</trkpt>
<trkpt lat="40.0738748" lon="-105.2302758">
  <ele>1635.79</ele>
  <time>2026-08-27T18:26:41Z</time>
  <course>10.43</course>
  <speed>0.01414213562373095</speed>
  <fix>3d</fix>
</trkpt>
<trkpt lat="40.0738748" lon="-105.2302758">
  <ele>1636.28</ele>
  <time>2026-08-27T18:26:41Z</time>
  <course>10.48</course>
  <speed>0.01414213562373095</speed>
  <fix>3d</fix>
</trkpt>
<trkpt lat="40.0738748" lon="-105.2302759">
  <ele>1635.51</ele>
  <time>2026-08-27T18:26:41Z</time>
  <course>279.44</course>
  <speed>0.0</speed>
  <fix>3d</fix>
</trkpt>
<trkpt lat="40.0738748" lon="-105.2302758">
  <ele>1636.35</ele>
  <time>2026-08-27T18:26:41Z</time>
  <course>10.48</course>
  <speed>0.01414213562373095</speed>
  <fix>3d</fix>
</trkpt>
<trkpt lat="40.0738748" lon="-105.2302758">
  <ele>1636.79</ele>
  <time>2026-08-27T18:26:41Z</time>
  <course>10.51</course>
  <speed>0.01414213562373095</speed>
  <fix>3d</fix>
</trkpt>
<trkpt lat="40.0738748" lon="-105.230276">
  <ele>1636.01</ele>
  <time>2026-08-27T18:26:41Z</time>
  <course>277.54</course>
  <speed>0.0</speed>
  <fix>3d</fix>
</trkpt>
<trkpt lat="40.0738748" lon="-105.2302758">
  <ele>1636.85</ele>
  <time>2026-08-27T18:26:41Z</time>
  <course>10.51</course>
  <speed>0.01414213562373095</speed>
  <fix>3d</fix>
</trkpt>
<trkpt lat="40.0738748" lon="-105.2302758">
  <ele>1637.29</ele>
  <time>2026-08-27T18:26:41Z</time>
  <course>10.55</course>
  <speed>0.01414213562373095</speed>
  <fix>3d</fix>
</trkpt>
<trkpt lat="40.0738748" lon="-105.2302761">
  <ele>1636.52</ele>
  <time>2026-08-27T18:26:41Z</time>
  <course>275.79</course>
  <speed>0.0</speed>
  <fix>3d</fix>
</trkpt>
<trkpt lat="40.0738748" lon="-105.2302758">
  <ele>1637.36</ele>
  <time>2026-08-27T18:26:41Z</time>
  <course>10.55</course>
  <speed>0.01414213562373095</speed>
  <fix>3d</fix>
</trkpt>
<trkpt lat="40.0738748" lon="-105.2302758">
  <ele>1637.79</ele>
  <time>2026-08-27T18:26:41Z</time>
  <course>10.58</course>
  <speed>0.01414213562373095</speed>
  <fix>3d</fix>
</trkpt>
<trkpt lat="40.0738748" lon="-105.2302761">
  <ele>1637.02</ele>
  <time>2026-08-27T18:26:41Z</time>
  <course>274.93</course>
  <speed>0.0</speed>
  <fix>3d</fix>
</trkpt>
<trkpt lat="40.0738748" lon="-105.2302758">
  <ele>1637.86</ele>
  <time>2026-08-27T18:26:41Z</time>
  <course>10.58</course>
  <speed>0.022360679774997897</speed>
  <fix>3d</fix>
</trkpt>
<trkpt lat="40.0738748" lon="-105.2302758">
  <ele>1638.29</ele>
  <time>2026-08-27T18:26:41Z</time>
  <course>10.61</course>
  <speed>0.022360679774997897</speed>
  <fix>3d</fix>
</trkpt>
<trkpt lat="40.0738748" lon="-105.2302761">
  <ele>1637.51</ele>
  <time>2026-08-27T18:26:41Z</time>
  <course>275.43</course>
  <speed>0.0</speed>
  <fix>3d</fix>
</trkpt>
<trkpt lat="40.0738748" lon="-105.2302758">
  <ele>1638.29</ele>
  <time>2026-08-27T18:26:41Z</time>
  <course>10.61</course>
  <speed>0.022360679774997897</speed>
  <fix>3d</fix>
</trkpt>
<trkpt lat="40.0738748" lon="-105.2302758">
  <ele>1638.78</ele>
  <time>2026-08-27T18:26:41Z</time>
  <course>10.62</course>
  <speed>0.022360679774997897</speed>
  <fix>3d</fix>
</trkpt>
<trkpt lat="40.0738748" lon="-105.2302761">
  <ele>1638.01</ele>
  <time>2026-08-27T18:26:41Z</time>
  <course>280.23</course>
  <speed>0.0</speed>
  <fix>3d</fix>
</trkpt>
<trkpt lat="40.0738748" lon="-105.2302758">
  <ele>1638.85</ele>
  <time>2026-08-27T18:26:41Z</time>
  <course>10.62</course>
  <speed>0.022360679774997897</speed>
  <fix>3d</fix>
</trkpt>
<trkpt lat="40.0738748" lon="-105.2302758">
  <ele>1639.28</ele>
  <time>2026-08-27T18:26:41Z</time>
  <course>10.64</course>
  <speed>0.022360679774997897</speed>
  <fix>3d</fix>
</trkpt>
<trkpt lat="40.0738748" lon="-105.2302761">
  <ele>1638.51</ele>
  <time>2026-08-27T18:26:41Z</time>
  <course>297.39</course>
  <speed>0.0</speed>
  <fix>3d</fix>
</trkpt>
<trkpt lat="40.0738748" lon="-105.2302758">
  <ele>1639.35</ele>
  <time>2026-08-27T18:26:41Z</time>
  <course>10.64</course>
  <speed>0.022360679774997897</speed>
  <fix>3d</fix>
</trkpt>
<trkpt lat="40.0738748" lon="-105.2302758">
  <ele>1639.78</ele>
  <time>2026-08-27T18:26:41Z</time>
  <course>10.66</course>
  <speed>0.022360679774997897</speed>
  <fix>3d</fix>
</trkpt>
<trkpt lat="40.0738748" lon="-105.2302761">
  <ele>1639.01</ele>
  <time>2026-08-27T18:26:41Z</time>
  <course>330.37</course>
  <speed>0.0</speed>
  <fix>3d</fix>
</trkpt>
<trkpt lat="40.0738748" lon="-105.2302758">
  <ele>1639.85</ele>
  <time>2026-08-27T18:26:41Z</time>
  <course>10.67</course>
  <speed>0.022360679774997897</speed>
  <fix>3d</fix>
</trkpt>
<trkpt lat="40.0738748" lon="-105.2302758">
  <ele>1640.28</ele>
  <time>2026-08-27T18:26:41Z</time>
  <course>10.69</course>
  <speed>0.022360679774997897</speed>
  <fix>3d</fix>
</trkpt>
<trkpt lat="40.0738748" lon="-105.2302761">
  <ele>1639.51</ele>
  <time>2026-08-27T18:26:41Z</time>
  <course>1.67</course>
  <speed>0.0</speed>
  <fix>3d</fix>
</trkpt>
<trkpt lat="40.0738748" lon="-105.2302758">
  <ele>1640.36</ele>
  <time>2026-08-27T18:26:41Z</time>
  <course>10.69</course>
  <speed>0.022360679774997897</speed>
  <fix>3d</fix>
</trkpt>
<trkpt lat="40.0738748" lon="-105.2302758">
  <ele>1640.78</ele>
  <time>2026-08-27T18:26:41Z</time>
  <course>10.71</course>
  <speed>0.022360679774997897</speed>
  <fix>3d</fix>
</trkpt>
<trkpt lat="40.0738748" lon="-105.2302761">
  <ele>1640.01</ele>
  <time>2026-08-27T18:26:41Z</time>
  <course>20.63</course>
  <speed>0.0</speed>
  <fix>3d</fix>
</trkpt>
<trkpt lat="40.0738748" lon="-105.2302758">
  <ele>1640.79</ele>
  <time>2026-08-27T18:26:41Z</time>
  <course>10.71</course>
  <speed>0.022360679774997897</speed>
  <fix>3d</fix>
</trkpt>
<trkpt lat="40.0738748" lon="-105.2302758">
  <ele>1641.28</ele>
  <time>2026-08-27T18:26:41Z</time>
  <course>10.73</course>
  <speed>0.022360679774997897</speed>
  <fix>3d</fix>
</trkpt>
<trkpt lat="40.0738748" lon="-105.2302761">
  <ele>1640.51</ele>
  <time>2026-08-27T18:26:41Z</time>
  <course>28.67</course>
  <speed>0.0</speed>
  <fix>3d</fix>
</trkpt>
<trkpt lat="40.0738748" lon="-105.2302758">
  <ele>1641.36</ele>
  <time>2026-08-27T18:26:41Z</time>
  <course>10.73</course>
  <speed>0.022360679774997897</speed>
  <fix>3d</fix>
</trkpt>
<trkpt lat="40.0738748" lon="-105.2302758">
  <ele>1641.78</ele>
  <time>2026-08-27T18:26:41Z</time>
  <course>10.77</course>
  <speed>0.022360679774997897</speed>
  <fix>3d</fix>
</trkpt>
<trkpt lat="40.0738748" lon="-105.2302761">
  <ele>1641.01</ele>
  <time>2026-08-27T18:26:41Z</time>
  <course>30.51</course>
  <speed>0.0</speed>
  <fix>3d</fix>
</trkpt>
<trkpt lat="40.0738748" lon="-105.2302758">
  <ele>1641.86</ele>
  <time>2026-08-27T18:26:41Z</time>
  <course>10.77</course>
  <speed>0.022360679774997897</speed>
  <fix>3d</fix>
</trkpt>
<trkpt lat="40.0738748" lon="-105.2302758">
  <ele>1642.28</ele>
  <time>2026-08-27T18:26:41Z</time>
  <course>10.79</course>
  <speed>0.022360679774997897</speed>
  <fix>3d</fix>
</trkpt>
<trkpt lat="40.0738748" lon="-105.2302761">
  <ele>1641.51</ele>
  <time>2026-08-27T18:26:41Z</time>
  <course>29.09</course>
  <speed>0.0</speed>
  <fix>3d</fix>
</trkpt>
<trkpt lat="40.0738748" lon="-105.2302758">
  <ele>1642.28</ele>
  <time>2026-08-27T18:26:41Z</time>
  <course>10.79</course>
  <speed>0.022360679774997897</speed>
  <fix>3d</fix>
</trkpt>
<trkpt lat="40.0738748" lon="-105.2302758">
  <ele>1642.78</ele>
  <time>2026-08-27T18:26:41Z</time>
  <course>10.8</course>
  <speed>0.022360679774997897</speed>
  <fix>3d</fix>
</trkpt>
<trkpt lat="40.0738748" lon="-105.2302761">
  <ele>1642.01</ele>
  <time>2026-08-27T18:26:41Z</time>
  <course>27.08</course>
  <speed>0.0</speed>
  <fix>3d</fix>
</trkpt>
<trkpt lat="40.0738748" lon="-105.2302758">
  <ele>1642.85</ele>
  <time>2026-08-27T18:26:41Z</time>
  <course>10.8</course>
  <speed>0.022360679774997897</speed>
  <fix>3d</fix>
</trkpt>
<trkpt lat="40.0738748" lon="-105.2302758">
  <ele>1643.28</ele>
  <time>2026-08-27T18:26:41Z</time>
  <course>10.83</course>
  <speed>0.022360679774997897</speed>
  <fix>3d</fix>
</trkpt>
<trkpt lat="40.0738748" lon="-105.2302761">
  <ele>1642.51</ele>
  <time>2026-08-27T18:26:41Z</time>
  <course>26.29</course>
  <speed>0.0</speed>
  <fix>3d</fix>
</trkpt>
<trkpt lat="40.0738748" lon="-105.2302758">
  <ele>1643.29</ele>
  <time>2026-08-27T18:26:41Z</time>
  <course>10.83</course>
  <speed>0.022360679774997897</speed>
  <fix>3d</fix>
</trkpt>
<trkpt lat="40.0738748" lon="-105.2302758">
  <ele>1643.78</ele>
  <time>2026-08-27T18:26:41Z</time>
  <course>10.85</course>
  <speed>0.022360679774997897</speed>
  <fix>3d</fix>
</trkpt>
<trkpt lat="40.0738748" lon="-105.2302761">
  <ele>1643.01</ele>
  <time>2026-08-27T18:26:41Z</time>
  <course>25.66</course>
  <speed>0.0</speed>
  <fix>3d</fix>
</trkpt>
<trkpt lat="40.0738748" lon="-105.2302758">
  <ele>1643.85</ele>
  <time>2026-08-27T18:26:41Z</time>
  <course>10.85</course>
  <speed>0.022360679774997897</speed>
  <fix>3d</fix>
</trkpt>
<trkpt lat="40.0738748" lon="-105.2302758">
  <ele>1644.28</ele>
  <time>2026-08-27T18:26:41Z</time>
  <course>10.88</course>
  <speed>0.022360679774997897</speed>
  <fix>3d</fix>
</trkpt>
<trkpt lat="40.0738748" lon="-105.2302761">
  <ele>1643.51</ele>
  <time>2026-08-27T18:26:41Z</time>
  <course>26.99</course>
  <speed>0.0</speed>
  <fix>3d</fix>
</trkpt>
<trkpt lat="40.0738748" lon="-105.2302758">
  <ele>1644.35</ele>
  <time>2026-08-27T18:26:41Z</time>
  <course>10.88</course>
  <speed>0.022360679774997897</speed>
  <fix>3d</fix>
</trkpt>
<trkpt lat="40.0738748" lon="-105.2302758">
  <ele>1644.78</ele>
  <time>2026-08-27T18:26:41Z</time>
  <course>10.9</course>
  <speed>0.022360679774997897</speed>
  <fix>3d</fix>
</trkpt>
<trkpt lat="40.0738748" lon="-105.2302761">
  <ele>1644.01</ele>
  <time>2026-08-27T18:26:41Z</time>
  <course>30.51</course>
  <speed>0.0</speed>
  <fix>3d</fix>
</trkpt>
<trkpt lat="40.0738748" lon="-105.2302758">
  <ele>1644.79</ele>
  <time>2026-08-27T18:26:41Z</time>
  <course>10.9</course>
  <speed>0.022360679774997897</speed>
  <fix>3d</fix>
</trkpt>
<trkpt lat="40.0738748" lon="-105.2302758">
  <ele>1645.28</ele>
  <time>2026-08-27T18:26:41Z</time>
  <course>10.92</course>
  <speed>0.022360679774997897</speed>
  <fix>3d</fix>
</trkpt>
<trkpt lat="40.0738748" lon="-105.2302761">
  <ele>1644.51</ele>
  <time>2026-08-27T18:26:41Z</time>
  <course>34.64</course>
  <speed>0.0</speed>
  <fix>3d</fix>
</trkpt>
<trkpt lat="40.0738748" lon="-105.2302758">
  <ele>1645.35</ele>
  <time>2026-08-27T18:26:41Z</time>
  <course>10.92</course>
  <speed>0.022360679774997897</speed>
  <fix>3d</fix>
</trkpt>
<trkpt lat="40.0738748" lon="-105.2302758">
  <ele>1645.78</ele>
  <time>2026-08-27T18:26:41Z</time>
  <course>10.92</course>
  <speed>0.022360679774997897</speed>
  <fix>3d</fix>
</trkpt>
<trkpt lat="40.0738748" lon="-105.2302761">
  <ele>1645.01</ele>
  <time>2026-08-27T18:26:41Z</time>
  <course>38.75</course>
  <speed>0.0</speed>
  <fix>3d</fix>
</trkpt>
<trkpt lat="40.0738748" lon="-105.2302758">
  <ele>1645.78</ele>
  <time>2026-08-27T18:26:41Z</time>
  <course>10.92</course>
  <speed>0.022360679774997897</speed>
  <fix>3d</fix>
</trkpt>
<trkpt lat="40.0738748" lon="-105.2302758">
  <ele>1646.28</ele>
  <time>2026-08-27T18:26:41Z</time>
  <course>10.95</course>
  <speed>0.022360679774997897</speed>
  <fix>3d</fix>
</trkpt>
<trkpt lat="40.0738748" lon="-105.2302761">
  <ele>1645.51</ele>
  <time>2026-08-27T18:26:41Z</time>
  <course>41.2</course>
  <speed>0.0</speed>
  <fix>3d</fix>
</trkpt>
<trkpt lat="40.0738748" lon="-105.2302758">
  <ele>1646.36</ele>
  <time>2026-08-27T18:26:41Z</time>
  <course>10.96</course>
  <speed>0.022360679774997897</speed>
  <fix>3d</fix>
</trkpt>
<trkpt lat="40.0738748" lon="-105.2302758">
  <ele>1646.78</ele>
  <time>2026-08-27T18:26:41Z</time>
  <course>10.98</course>
  <speed>0.022360679774997897</speed>
  <fix>3d</fix>
</trkpt>
<trkpt lat="40.0738748" lon="-105.2302761">
  <ele>1646.01</ele>
  <time>2026-08-27T18:26:41Z</time>
  <course>43.63</course>
  <speed>0.0</speed>
  <fix>3d</fix>
</trkpt>
<trkpt lat="40.0738748" lon="-105.2302758">
  <ele>1646.86</ele>
  <time>2026-08-27T18:26:41Z</time>
  <course>10.98</course>
  <speed>0.022360679774997897</speed>
  <fix>3d</fix>
</trkpt>
<trkpt lat="40.0738748" lon="-105.2302758">
  <ele>1647.29</ele>
  <time>2026-08-27T18:26:41Z</time>
  <course>11.01</course>
  <speed>0.022360679774997897</speed>
  <fix>3d</fix>
</trkpt>
<trkpt lat="40.0738748" lon="-105.2302761">
  <ele>1646.51</ele>
  <time>2026-08-27T18:26:41Z</time>
  <course>46.77</course>
  <speed>0.0</speed>
  <fix>3d</fix>
</trkpt>
<trkpt lat="40.0738748" lon="-105.2302758">
  <ele>1647.36</ele>
  <time>2026-08-27T18:26:41Z</time>
  <course>11.01</course>
  <speed>0.022360679774997897</speed>
  <fix>3d</fix>
</trkpt>
<trkpt lat="40.0738748" lon="-105.2302758">
  <ele>1647.79</ele>
  <time>2026-08-27T18:26:41Z</time>
  <course>11.03</course>
  <speed>0.022360679774997897</speed>
  <fix>3d</fix>
</trkpt>
<trkpt lat="40.0738749" lon="-105.2302761">
  <ele>1647.01</ele>
  <time>2026-08-27T18:26:41Z</time>
  <course>47.78</course>
  <speed>0.0</speed>
  <fix>3d</fix>
</trkpt>
<trkpt lat="40.0738748" lon="-105.2302758">
  <ele>1647.86</ele>
  <time>2026-08-27T18:26:41Z</time>
  <course>11.03</course>
  <speed>0.022360679774997897</speed>
  <fix>3d</fix>
</trkpt>
<trkpt lat="40.0738748" lon="-105.2302758">
  <ele>1648.29</ele>
  <time>2026-08-27T18:26:41Z</time>
  <course>11.04</course>
  <speed>0.022360679774997897</speed>
  <fix>3d</fix>
</trkpt>
<trkpt lat="40.0738749" lon="-105.2302761">
  <ele>1647.51</ele>
  <time>2026-08-27T18:26:41Z</time>
  <course>47.7</course>
  <speed>0.0</speed>
  <fix>3d</fix>
</trkpt>
<trkpt lat="40.0738748" lon="-105.2302758">
  <ele>1648.29</ele>
  <time>2026-08-27T18:26:41Z</time>
  <course>11.04</course>
  <speed>0.022360679774997897</speed>
  <fix>3d</fix>
</trkpt>
<trkpt lat="40.0738748" lon="-105.2302758">
  <ele>1648.78</ele>
  <time>2026-08-27T18:26:41Z</time>
  <course>11.06</course>
  <speed>0.022360679774997897</speed>
  <fix>3d</fix>
</trkpt>
<trkpt lat="40.0738749" lon="-105.2302761">
  <ele>1648.01</ele>
  <time>2026-08-27T18:26:41Z</time>
  <course>47.95</course>
  <speed>0.0</speed>
  <fix>3d</fix>
</trkpt>
<trkpt lat="40.0738748" lon="-105.2302758">
  <ele>1648.85</ele>
  <time>2026-08-27T18:26:41Z</time>
  <course>11.07</course>
  <speed>0.022360679774997897</speed>
  <fix>3d</fix>
</trkpt>
<trkpt lat="40.0738748" lon="-105.2302758">
  <ele>1649.28</ele>
  <time>2026-08-27T18:26:41Z</time>
  <course>11.08</course>
  <speed>0.022360679774997897</speed>
  <fix>3d</fix>
</trkpt>
<trkpt lat="40.0738749" lon="-105.2302761">
  <ele>1648.51</ele>
  <time>2026-08-27T18:26:41Z</time>
  <course>48.97</course>
  <speed>0.0</speed>
  <fix>3d</fix>
</trkpt>
<trkpt lat="40.0738748" lon="-105.2302758">
  <ele>1649.35</ele>
  <time>2026-08-27T18:26:41Z</time>
  <course>11.09</course>
  <speed>0.022360679774997897</speed>
  <fix>3d</fix>
</trkpt>
<trkpt lat="40.0738748" lon="-105.2302758">
  <ele>1649.77</ele>
  <time>2026-08-27T18:26:41Z</time>
  <course>11.09</course>
  <speed>0.022360679774997897</speed>
  <fix>3d</fix>
</trkpt>
<trkpt lat="40.0738749" lon="-105.2302761">
  <ele>1649.01</ele>
  <time>2026-08-27T18:26:41Z</time>
  <course>51.88</course>
  <speed>0.0</speed>
  <fix>3d</fix>
</trkpt>
<trkpt lat="40.0738748" lon="-105.2302758">
  <ele>1649.85</ele>
  <time>2026-08-27T18:26:41Z</time>
  <course>11.1</course>
  <speed>0.022360679774997897</speed>
  <fix>3d</fix>
</trkpt>
<trkpt lat="40.0738748" lon="-105.2302758">
  <ele>1650.27</ele>
  <time>2026-08-27T18:26:41Z</time>
  <course>11.08</course>
  <speed>0.022360679774997897</speed>
  <fix>3d</fix>
</trkpt>
<trkpt lat="40.0738749" lon="-105.2302761">
  <ele>1649.51</ele>
  <time>2026-08-27T18:26:41Z</time>
  <course>57.35</course>
  <speed>0.0</speed>
  <fix>3d</fix>
</trkpt>
<trkpt lat="40.0738748" lon="-105.2302758">
  <ele>1650.34</ele>
  <time>2026-08-27T18:26:41Z</time>
  <course>11.08</course>
  <speed>0.022360679774997897</speed>
  <fix>3d</fix>
</trkpt>
<trkpt lat="40.0738748" lon="-105.2302758">
  <ele>1650.77</ele>
  <time>2026-08-27T18:26:41Z</time>
  <course>11.1</course>
  <speed>0.022360679774997897</speed>
  <fix>3d</fix>
</trkpt>
<trkpt lat="40.0738749" lon="-105.2302761">
  <ele>1650.01</ele>
  <time>2026-08-27T18:26:41Z</time>
  <course>69.76</course>
  <speed>0.0</speed>
  <fix>3d</fix>
</trkpt>
<trkpt lat="40.0738748" lon="-105.2302758">
  <ele>1650.78</ele>
  <time>2026-08-27T18:26:41Z</time>
  <course>11.1</course>
  <speed>0.022360679774997897</speed>
  <fix>3d</fix>
</trkpt>
<trkpt lat="40.0738748" lon="-105.2302758">
  <ele>1651.27</ele>
  <time>2026-08-27T18:26:41Z</time>
  <course>11.11</course>
  <speed>0.022360679774997897</speed>
  <fix>3d</fix>
</trkpt>
<trkpt lat="40.0738749" lon="-105.2302761">
  <ele>1650.51</ele>
  <time>2026-08-27T18:26:41Z</time>
  <course>93.81</course>
  <speed>0.0</speed>
  <fix>3d</fix>
</trkpt>
<trkpt lat="40.0738748" lon="-105.2302758">
  <ele>1651.34</ele>
  <time>2026-08-27T18:26:41Z</time>
  <course>11.12</course>
  <speed>0.022360679774997897</speed>
  <fix>3d</fix>
</trkpt>
<trkpt lat="40.0738748" lon="-105.2302758">
  <ele>1651.77</ele>
  <time>2026-08-27T18:26:41Z</time>
  <course>11.13</course>
  <speed>0.022360679774997897</speed>
  <fix>3d</fix>
</trkpt>
<trkpt lat="40.0738749" lon="-105.2302761">
  <ele>1651.01</ele>
  <time>2026-08-27T18:26:41Z</time>
  <course>116.56</course>
  <speed>0.0</speed>
  <fix>3d</fix>
</trkpt>
<trkpt lat="40.0738748" lon="-105.2302758">
  <ele>1651.84</ele>
  <time>2026-08-27T18:26:41Z</time>
  <course>11.13</course>
  <speed>0.022360679774997897</speed>
  <fix>3d</fix>
</trkpt>
<trkpt lat="40.0738748" lon="-105.2302758">
  <ele>1652.27</ele>
  <time>2026-08-27T18:26:41Z</time>
  <course>11.16</course>
  <speed>0.0282842712474619</speed>
  <fix>3d</fix>
</trkpt>
<trkpt lat="40.0738749" lon="-105.230276">
  <ele>1651.51</ele>
  <time>2026-08-27T18:26:41Z</time>
  <course>132.22</course>
  <speed>0.0</speed>
  <fix>3d</fix>
</trkpt>
<trkpt lat="40.0738748" lon="-105.2302758">
  <ele>1652.34</ele>
  <time>2026-08-27T18:26:41Z</time>
  <course>11.16</course>
  <speed>0.0282842712474619</speed>
  <fix>3d</fix>
</trkpt>
<trkpt lat="40.0738748" lon="-105.2302758">
  <ele>1652.77</ele>
  <time>2026-08-27T18:26:41Z</time>
  <course>11.16</course>
  <speed>0.0282842712474619</speed>
  <fix>3d</fix>
</trkpt>
<trkpt lat="40.0738749" lon="-105.2302759">
  <ele>1652.01</ele>
  <time>2026-08-27T18:26:41Z</time>
  <course>138.86</course>
  <speed>0.0</speed>
  <fix>3d</fix>
</trkpt>
<trkpt lat="40.0738748" lon="-105.2302758">
  <ele>1652.84</ele>
  <time>2026-08-27T18:26:41Z</time>
  <course>11.17</course>
  <speed>0.0282842712474619</speed>
  <fix>3d</fix>
</trkpt>
<trkpt lat="40.0738748" lon="-105.2302758">
  <ele>1653.27</ele>
  <time>2026-08-27T18:26:41Z</time>
  <course>11.2</course>
  <speed>0.0282842712474619</speed>
  <fix>3d</fix>
</trkpt>
<trkpt lat="40.0738749" lon="-105.2302759">
  <ele>1652.52</ele>
  <time>2026-08-27T18:26:41Z</time>
  <course>142.13</course>
  <speed>0.0</speed>
  <fix>3d</fix>
</trkpt>
<trkpt lat="40.0738748" lon="-105.2302758">
  <ele>1653.34</ele>
  <time>2026-08-27T18:26:41Z</time>
  <course>11.2</course>
  <speed>0.0282842712474619</speed>
  <fix>3d</fix>
</trkpt>
<trkpt lat="40.0738748" lon="-105.2302758">
  <ele>1653.77</ele>
  <time>2026-08-27T18:26:41Z</time>
  <course>11.2</course>
  <speed>0.0282842712474619</speed>
  <fix>3d</fix>
</trkpt>
<trkpt lat="40.0738749" lon="-105.2302759">
  <ele>1653.02</ele>
  <time>2026-08-27T18:26:41Z</time>
  <course>148.98</course>
  <speed>0.0</speed>
  <fix>3d</fix>
</trkpt>
<trkpt lat="40.0738748" lon="-105.2302758">
  <ele>1653.78</ele>
  <time>2026-08-27T18:26:41Z</time>
  <course>11.2</course>
  <speed>0.0282842712474619</speed>
  <fix>3d</fix>
</trkpt>
<trkpt lat="40.0738748" lon="-105.2302758">
  <ele>1654.28</ele>
  <time>2026-08-27T18:26:41Z</time>
  <course>11.22</course>
  <speed>0.0282842712474619</speed>
  <fix>3d</fix>
</trkpt>
<trkpt lat="40.0738749" lon="-105.2302759">
  <ele>1653.52</ele>
  <time>2026-08-27T18:26:41Z</time>
  <course>163.19</course>
  <speed>0.0</speed>
  <fix>3d</fix>
</trkpt>
<trkpt lat="40.0738748" lon="-105.2302758">
  <ele>1654.35</ele>
  <time>2026-08-27T18:26:41Z</time>
  <course>11.22</course>
  <speed>0.0282842712474619</speed>
  <fix>3d</fix>
</trkpt>
<trkpt lat="40.0738748" lon="-105.2302758">
  <ele>1654.78</ele>
  <time>2026-08-27T18:26:41Z</time>
  <course>11.25</course>
  <speed>0.0282842712474619</speed>
  <fix>3d</fix>
</trkpt>
<trkpt lat="40.0738749" lon="-105.2302759">
  <ele>1654.02</ele>
  <time>2026-08-27T18:26:41Z</time>
  <course>180.92</course>
  <speed>0.0</speed>
  <fix>3d</fix>
</trkpt>
<trkpt lat="40.0738748" lon="-105.2302758">
  <ele>1654.85</ele>
  <time>2026-08-27T18:26:41Z</time>
  <course>11.25</course>
  <speed>0.0282842712474619</speed>
  <fix>3d</fix>
</trkpt>
<trkpt lat="40.0738748" lon="-105.2302757">
  <ele>1655.28</ele>
  <time>2026-08-27T18:26:41Z</time>
  <course>11.27</course>
  <speed>0.0282842712474619</speed>
  <fix>3d</fix>
</trkpt>
<trkpt lat="40.0738749" lon="-105.2302759">
  <ele>1654.53</ele>
  <time>2026-08-27T18:26:41Z</time>
  <course>196.28</course>
  <speed>0.0</speed>
  <fix>3d</fix>
</trkpt>
<trkpt lat="40.0738748" lon="-105.2302757">
  <ele>1655.35</ele>
  <time>2026-08-27T18:26:41Z</time>
  <course>11.27</course>
  <speed>0.0282842712474619</speed>
  <fix>3d</fix>
</trkpt>
<trkpt lat="40.0738748" lon="-105.2302757">
  <ele>1655.78</ele>
  <time>2026-08-27T18:26:41Z</time>
  <course>11.29</course>
  <speed>0.022360679774997897</speed>
  <fix>3d</fix>
</trkpt>
<trkpt lat="40.0738749" lon="-105.2302759">
  <ele>1655.03</ele>
  <time>2026-08-27T18:26:41Z</time>
  <course>210.64</course>
  <speed>0.0</speed>
  <fix>3d</fix>
</trkpt>
<trkpt lat="40.0738748" lon="-105.2302757">
  <ele>1655.79</ele>
  <time>2026-08-27T18:26:41Z</time>
  <course>11.29</course>
  <speed>0.0282842712474619</speed>
  <fix>3d</fix>
</trkpt>
<trkpt lat="40.0738748" lon="-105.2302757">
  <ele>1656.28</ele>
  <time>2026-08-27T18:26:41Z</time>
  <course>11.27</course>
  <speed>0.0282842712474619</speed>
  <fix>3d</fix>
</trkpt>
<trkpt lat="40.0738749" lon="-105.2302759">
  <ele>1655.53</ele>
  <time>2026-08-27T18:26:41Z</time>
  <course>220.26</course>
  <speed>0.0</speed>
  <fix>3d</fix>
</trkpt>
<trkpt lat="40.0738748" lon="-105.2302757">
  <ele>1656.35</ele>
  <time>2026-08-27T18:26:41Z</time>
  <course>11.28</course>
  <speed>0.0282842712474619</speed>
  <fix>3d</fix>
</trkpt>
<trkpt lat="40.0738748" lon="-105.2302757">
  <ele>1656.79</ele>
  <time>2026-08-27T18:26:41Z</time>
  <course>11.3</course>
  <speed>0.0282842712474619</speed>
  <fix>3d</fix>
</trkpt>
<trkpt lat="40.0738749" lon="-105.2302759">
  <ele>1656.03</ele>
  <time>2026-08-27T18:26:41Z</time>
  <course>225.79</course>
  <speed>0.0</speed>
  <fix>3d</fix>
</trkpt>
<trkpt lat="40.0738748" lon="-105.2302757">
  <ele>1656.8</ele>
  <time>2026-08-27T18:26:41Z</time>
  <course>11.3</course>
  <speed>0.0282842712474619</speed>
  <fix>3d</fix>
</trkpt>
<trkpt lat="40.0738748" lon="-105.2302757">
  <ele>1657.29</ele>
  <time>2026-08-27T18:26:41Z</time>
  <course>11.32</course>
  <speed>0.0282842712474619</speed>
  <fix>3d</fix>
</trkpt>
<trkpt lat="40.0738749" lon="-105.2302759">
  <ele>1656.53</ele>
  <time>2026-08-27T18:26:41Z</time>
  <course>228.05</course>
  <speed>0.0</speed>
  <fix>3d</fix>
</trkpt>
<trkpt lat="40.0738748" lon="-105.2302757">
  <ele>1657.37</ele>
  <time>2026-08-27T18:26:41Z</time>
  <course>11.32</course>
  <speed>0.0282842712474619</speed>
  <fix>3d</fix>
</trkpt>
<trkpt lat="40.0738748" lon="-105.2302757">
  <ele>1657.79</ele>
  <time>2026-08-27T18:26:41Z</time>
  <course>11.36</course>
  <speed>0.0282842712474619</speed>
  <fix>3d</fix>
</trkpt>
<trkpt lat="40.0738749" lon="-105.2302759">
  <ele>1657.03</ele>
  <time>2026-08-27T18:26:41Z</time>
  <course>229.06</course>
  <speed>0.01</speed>
  <fix>3d</fix>
</trkpt>
<trkpt lat="40.0738748" lon="-105.2302757">
  <ele>1657.85</ele>
  <time>2026-08-27T18:26:41Z</time>
  <course>11.36</course>
  <speed>0.0282842712474619</speed>
  <fix>3d</fix>
</trkpt>
<trkpt lat="40.0738748" lon="-105.2302757">
  <ele>1658.28</ele>
  <time>2026-08-27T18:26:41Z</time>
  <course>11.35</course>
  <speed>0.022360679774997897</speed>
  <fix>3d</fix>
</trkpt>
<trkpt lat="40.0738749" lon="-105.2302759">
  <ele>1657.53</ele>
  <time>2026-08-27T18:26:41Z</time>
  <course>229.51</course>
  <speed>0.01</speed>
  <fix>3d</fix>
</trkpt>
<trkpt lat="40.0738748" lon="-105.2302757">
  <ele>1658.29</ele>
  <time>2026-08-27T18:26:41Z</time>
  <course>11.35</course>
  <speed>0.022360679774997897</speed>
  <fix>3d</fix>
</trkpt>
<trkpt lat="40.0738748" lon="-105.2302757">
  <ele>1658.78</ele>
  <time>2026-08-27T18:26:41Z</time>
  <course>11.36</course>
  <speed>0.022360679774997897</speed>
  <fix>3d</fix>
</trkpt>
<trkpt lat="40.0738749" lon="-105.2302759">
  <ele>1658.03</ele>
  <time>2026-08-27T18:26:41Z</time>
  <course>229.64</course>
  <speed>0.0</speed>
  <fix>3d</fix>
</trkpt>
<trkpt lat="40.0738748" lon="-105.2302757">
  <ele>1658.85</ele>
  <time>2026-08-27T18:26:41Z</time>
  <course>11.36</course>
  <speed>0.022360679774997897</speed>
  <fix>3d</fix>
</trkpt>
<trkpt lat="40.0738748" lon="-105.2302757">
  <ele>1659.28</ele>
  <time>2026-08-27T18:26:41Z</time>
  <course>11.34</course>
  <speed>0.022360679774997897</speed>
  <fix>3d</fix>
</trkpt>
<trkpt lat="40.0738748" lon="-105.2302759">
  <ele>1658.53</ele>
  <time>2026-08-27T18:26:41Z</time>
  <course>230.05</course>
  <speed>0.0</speed>
  <fix>3d</fix>
</trkpt>
<trkpt lat="40.0738748" lon="-105.2302757">
  <ele>1659.34</ele>
  <time>2026-08-27T18:26:41Z</time>
  <course>11.35</course>
  <speed>0.022360679774997897</speed>
  <fix>3d</fix>
</trkpt>
<trkpt lat="40.0738748" lon="-105.2302757">
  <ele>1659.77</ele>
  <time>2026-08-27T18:26:41Z</time>
  <course>11.36</course>
  <speed>0.022360679774997897</speed>
  <fix>3d</fix>
</trkpt>
<trkpt lat="40.0738748" lon="-105.230276">
  <ele>1659.03</ele>
  <time>2026-08-27T18:26:41Z</time>
  <course>234.07</course>
  <speed>0.0</speed>
  <fix>3d</fix>
</trkpt>
<trkpt lat="40.0738748" lon="-105.2302757">
  <ele>1659.78</ele>
  <time>2026-08-27T18:26:41Z</time>
  <course>11.36</course>
  <speed>0.022360679774997897</speed>
  <fix>3d</fix>
</trkpt>
<trkpt lat="40.0738747" lon="-105.2302757">
  <ele>1660.28</ele>
  <time>2026-08-27T18:26:41Z</time>
  <course>11.36</course>
  <speed>0.022360679774997897</speed>
  <fix>3d</fix>
</trkpt>
<trkpt lat="40.0738748" lon="-105.2302761">
  <ele>1659.53</ele>
  <time>2026-08-27T18:26:41Z</time>
  <course>242.09</course>
  <speed>0.0</speed>
  <fix>3d</fix>
</trkpt>
<trkpt lat="40.0738747" lon="-105.2302757">
  <ele>1660.34</ele>
  <time>2026-08-27T18:26:41Z</time>
  <course>11.36</course>
  <speed>0.022360679774997897</speed>
  <fix>3d</fix>
</trkpt>
<trkpt lat="40.0738747" lon="-105.2302757">
  <ele>1660.78</ele>
  <time>2026-08-27T18:26:41Z</time>
  <course>11.39</course>
  <speed>0.022360679774997897</speed>
  <fix>3d</fix>
</trkpt>
<trkpt lat="40.0738748" lon="-105.2302761">
  <ele>1660.03</ele>
  <time>2026-08-27T18:26:41Z</time>
  <course>248.57</course>
  <speed>0.01</speed>
  <fix>3d</fix>
</trkpt>
<trkpt lat="40.0738747" lon="-105.2302757">
  <ele>1660.78</ele>
  <time>2026-08-27T18:26:41Z</time>
  <course>11.39</course>
  <speed>0.022360679774997897</speed>
  <fix>3d</fix>
</trkpt>
<trkpt lat="40.0738747" lon="-105.2302757">
  <ele>1661.28</ele>
  <time>2026-08-27T18:26:41Z</time>
  <course>11.4</course>
  <speed>0.022360679774997897</speed>
  <fix>3d</fix>
</trkpt>
<trkpt lat="40.0738748" lon="-105.2302761">
  <ele>1660.53</ele>
  <time>2026-08-27T18:26:41Z</time>
  <course>253.13</course>
  <speed>0.01</speed>
  <fix>3d</fix>
</trkpt>
<trkpt lat="40.0738747" lon="-105.2302757">
  <ele>1661.35</ele>
  <time>2026-08-27T18:26:41Z</time>
  <course>11.41</course>
  <speed>0.022360679774997897</speed>
  <fix>3d</fix>
</trkpt>
<trkpt lat="40.0738747" lon="-105.2302758">
  <ele>1661.78</ele>
  <time>2026-08-27T18:26:41Z</time>
  <course>11.41</course>
  <speed>0.022360679774997897</speed>
  <fix>3d</fix>
</trkpt>
<trkpt lat="40.0738748" lon="-105.2302761">
  <ele>1661.03</ele>
  <time>2026-08-27T18:26:41Z</time>
  <course>257.58</course>
  <speed>0.0</speed>
  <fix>3d</fix>
</trkpt>
<trkpt lat="40.0738747" lon="-105.2302758">
  <ele>1661.85</ele>
  <time>2026-08-27T18:26:41Z</time>
  <course>11.41</course>
  <speed>0.022360679774997897</speed>
  <fix>3d</fix>
</trkpt>
<trkpt lat="40.0738747" lon="-105.2302758">
  <ele>1662.28</ele>
  <time>2026-08-27T18:26:41Z</time>
  <course>11.43</course>
  <speed>0.022360679774997897</speed>
  <fix>3d</fix>
</trkpt>
<trkpt lat="40.0738748" lon="-105.2302761">
  <ele>1661.53</ele>
  <time>2026-08-27T18:26:41Z</time>
  <course>263.02</course>
  <speed>0.0</speed>
  <fix>3d</fix>
</trkpt>
<trkpt lat="40.0738747" lon="-105.2302758">
  <ele>1662.36</ele>
  <time>2026-08-27T18:26:41Z</time>
  <course>11.43</course>
  <speed>0.022360679774997897</speed>
  <fix>3d</fix>
</trkpt>
<trkpt lat="40.0738747" lon="-105.2302758">
  <ele>1662.78</ele>
  <time>2026-08-27T18:26:41Z</time>
  <course>11.44</course>
  <speed>0.022360679774997897</speed>
  <fix>3d</fix>
</trkpt>
<trkpt lat="40.0738748" lon="-105.2302761">
  <ele>1662.03</ele>
  <time>2026-08-27T18:26:41Z</time>
  <course>270.73</course>
  <speed>0.0</speed>
  <fix>3d</fix>
</trkpt>
<trkpt lat="40.0738747" lon="-105.2302758">
  <ele>1662.86</ele>
  <time>2026-08-27T18:26:41Z</time>
  <course>11.44</course>
  <speed>0.022360679774997897</speed>
  <fix>3d</fix>
</trkpt>
<trkpt lat="40.0738747" lon="-105.2302758">
  <ele>1663.28</ele>
  <time>2026-08-27T18:26:41Z</time>
  <course>11.45</course>
  <speed>0.022360679774997897</speed>
  <fix>3d</fix>
</trkpt>
<trkpt lat="40.0738748" lon="-105.2302761">
  <ele>1662.53</ele>
  <time>2026-08-27T18:26:41Z</time>
  <course>280.9</course>
  <speed>0.0</speed>
  <fix>3d</fix>
</trkpt>
<trkpt lat="40.0738747" lon="-105.2302758">
  <ele>1663.28</ele>
  <time>2026-08-27T18:26:41Z</time>
  <course>11.45</course>
  <speed>0.022360679774997897</speed>
  <fix>3d</fix>
</trkpt>
<trkpt lat="40.0738747" lon="-105.2302758">
  <ele>1663.78</ele>
  <time>2026-08-27T18:26:41Z</time>
  <course>11.46</course>
  <speed>0.022360679774997897</speed>
  <fix>3d</fix>
</trkpt>
<trkpt lat="40.0738748" lon="-105.2302761">
  <ele>1663.04</ele>
  <time>2026-08-27T18:26:41Z</time>
  <course>291.61</course>
  <speed>0.0</speed>
  <fix>3d</fix>
</trkpt>
<trkpt lat="40.0738747" lon="-105.2302758">
  <ele>1663.85</ele>
  <time>2026-08-27T18:26:41Z</time>
  <course>11.45</course>
  <speed>0.022360679774997897</speed>
  <fix>3d</fix>
</trkpt>
<trkpt lat="40.0738747" lon="-105.2302758">
  <ele>1664.28</ele>
  <time>2026-08-27T18:26:41Z</time>
  <course>11.47</course>
  <speed>0.022360679774997897</speed>
  <fix>3d</fix>
</trkpt>
<trkpt lat="40.0738748" lon="-105.2302761">
  <ele>1663.54</ele>
  <time>2026-08-27T18:26:41Z</time>
  <course>306.66</course>
  <speed>0.0</speed>
  <fix>3d</fix>
</trkpt>
<trkpt lat="40.0738747" lon="-105.2302758">
  <ele>1664.35</ele>
  <time>2026-08-27T18:26:41Z</time>
  <course>11.47</course>
  <speed>0.022360679774997897</speed>
  <fix>3d</fix>
</trkpt>
<trkpt lat="40.0738747" lon="-105.2302758">
  <ele>1664.79</ele>
  <time>2026-08-27T18:26:41Z</time>
  <course>11.48</course>
  <speed>0.022360679774997897</speed>
  <fix>3d</fix>
</trkpt>
<trkpt lat="40.0738748" lon="-105.2302761">
  <ele>1664.04</ele>
  <time>2026-08-27T18:26:41Z</time>
  <course>320.64</course>
  <speed>0.0</speed>
  <fix>3d</fix>
</trkpt>
<trkpt lat="40.0738747" lon="-105.2302758">
  <ele>1664.85</ele>
  <time>2026-08-27T18:26:41Z</time>
  <course>11.48</course>
  <speed>0.022360679774997897</speed>
  <fix>3d</fix>
</trkpt>
<trkpt lat="40.0738748" lon="-105.2302759">
  <ele>1665.29</ele>
  <time>2026-08-27T18:26:41Z</time>
  <course>11.49</course>
  <speed>0.022360679774997897</speed>
  <fix>3d</fix>
</trkpt>
<trkpt lat="40.0738748" lon="-105.2302762">
  <ele>1664.54</ele>
  <time>2026-08-27T18:26:41Z</time>
  <course>328.49</course>
  <speed>0.0</speed>
  <fix>3d</fix>
</trkpt>
<trkpt lat="40.0738748" lon="-105.2302759">
  <ele>1665.36</ele>
  <time>2026-08-27T18:26:41Z</time>
  <course>11.49</course>
  <speed>0.022360679774997897</speed>
  <fix>3d</fix>
</trkpt>
<trkpt lat="40.0738748" lon="-105.2302759">
  <ele>1665.79</ele>
  <time>2026-08-27T18:26:41Z</time>
  <course>11.49</course>
  <speed>0.022360679774997897</speed>
  <fix>3d</fix>
</trkpt>
<trkpt lat="40.0738748" lon="-105.2302763">
  <ele>1665.04</ele>
  <time>2026-08-27T18:26:41Z</time>
  <course>334.99</course>
  <speed>0.0</speed>
  <fix>3d</fix>
</trkpt>
<trkpt lat="40.0738748" lon="-105.2302759">
  <ele>1665.8</ele>
  <time>2026-08-27T18:26:41Z</time>
  <course>11.49</course>
  <speed>0.022360679774997897</speed>
  <fix>3d</fix>
</trkpt>
<trkpt lat="40.0738748" lon="-105.2302759">
  <ele>1666.29</ele>
  <time>2026-08-27T18:26:41Z</time>
  <course>11.5</course>
  <speed>0.022360679774997897</speed>
  <fix>3d</fix>
</trkpt>
<trkpt lat="40.0738748" lon="-105.2302763">
  <ele>1665.54</ele>
  <time>2026-08-27T18:26:41Z</time>
  <course>340.09</course>
  <speed>0.0</speed>
  <fix>3d</fix>
</trkpt>
<trkpt lat="40.0738748" lon="-105.2302759">
  <ele>1666.37</ele>
  <time>2026-08-27T18:26:41Z</time>
  <course>11.51</course>
  <speed>0.022360679774997897</speed>
  <fix>3d</fix>
</trkpt>
<trkpt lat="40.0738748" lon="-105.2302759">
  <ele>1666.8</ele>
  <time>2026-08-27T18:26:41Z</time>
  <course>11.54</course>
  <speed>0.022360679774997897</speed>
  <fix>3d</fix>
</trkpt>
<trkpt lat="40.0738748" lon="-105.2302763">
  <ele>1666.04</ele>
  <time>2026-08-27T18:26:41Z</time>
  <course>343.81</course>
  <speed>0.0</speed>
  <fix>3d</fix>
</trkpt>
<trkpt lat="40.0738748" lon="-105.2302759">
  <ele>1666.87</ele>
  <time>2026-08-27T18:26:41Z</time>
  <course>11.54</course>
  <speed>0.022360679774997897</speed>
  <fix>3d</fix>
</trkpt>
<trkpt lat="40.0738748" lon="-105.2302759">
  <ele>1667.3</ele>
  <time>2026-08-27T18:26:41Z</time>
  <course>11.55</course>
  <speed>0.022360679774997897</speed>
  <fix>3d</fix>
</trkpt>
<trkpt lat="40.0738748" lon="-105.2302763">
  <ele>1666.53</ele>
  <time>2026-08-27T18:26:41Z</time>
  <course>352.81</course>
  <speed>0.0</speed>
  <fix>3d</fix>
</trkpt>
<trkpt lat="40.0738748" lon="-105.2302759">
  <ele>1667.37</ele>
  <time>2026-08-27T18:26:41Z</time>
  <course>11.56</course>
  <speed>0.022360679774997897</speed>
  <fix>3d</fix>
</trkpt>
<trkpt lat="40.0738748" lon="-105.2302759">
  <ele>1667.8</ele>
  <time>2026-08-27T18:26:41Z</time>
  <course>11.57</course>
  <speed>0.0316227766016838</speed>
  <fix>3d</fix>
</trkpt>
<trkpt lat="40.0738748" lon="-105.2302763">
  <ele>1667.03</ele>
  <time>2026-08-27T18:26:41Z</time>
  <course>9.45</course>
  <speed>0.0</speed>
  <fix>3d</fix>
</trkpt>
<trkpt lat="40.0738748" lon="-105.2302759">
  <ele>1667.86</ele>
  <time>2026-08-27T18:26:41Z</time>
  <course>11.58</course>
  <speed>0.0316227766016838</speed>
  <fix>3d</fix>
</trkpt>
<trkpt lat="40.0738748" lon="-105.2302759">
  <ele>1668.29</ele>
  <time>2026-08-27T18:26:41Z</time>
  <course>11.57</course>
  <speed>0.0316227766016838</speed>
  <fix>3d</fix>
</trkpt>
<trkpt lat="40.0738748" lon="-105.2302763">
  <ele>1667.53</ele>
  <time>2026-08-27T18:26:41Z</time>
  <course>25.79</course>
  <speed>0.0</speed>
  <fix>3d</fix>
</trkpt>
<trkpt lat="40.0738748" lon="-105.2302759">
  <ele>1668.36</ele>
  <time>2026-08-27T18:26:41Z</time>
  <course>11.57</course>
  <speed>0.0316227766016838</speed>
  <fix>3d</fix>
</trkpt>
<trkpt lat="40.0738748" lon="-105.2302759">
  <ele>1668.79</ele>
  <time>2026-08-27T18:26:41Z</time>
  <course>11.56</course>
  <speed>0.0316227766016838</speed>
  <fix>3d</fix>
</trkpt>
<trkpt lat="40.0738748" lon="-105.2302763">
  <ele>1668.03</ele>
  <time>2026-08-27T18:26:41Z</time>
  <course>38.93</course>
  <speed>0.0</speed>
  <fix>3d</fix>
</trkpt>
<trkpt lat="40.0738748" lon="-105.2302759">
  <ele>1668.79</ele>
  <time>2026-08-27T18:26:41Z</time>
  <course>11.56</course>
  <speed>0.0316227766016838</speed>
  <fix>3d</fix>
</trkpt>
<trkpt lat="40.0738748" lon="-105.2302759">
  <ele>1669.29</ele>
  <time>2026-08-27T18:26:41Z</time>
  <course>11.56</course>
  <speed>0.0316227766016838</speed>
  <fix>3d</fix>
</trkpt>
<trkpt lat="40.0738748" lon="-105.2302763">
  <ele>1668.52</ele>
  <time>2026-08-27T18:26:41Z</time>
  <course>46.55</course>
  <speed>0.0</speed>
  <fix>3d</fix>
</trkpt>
<trkpt lat="40.0738748" lon="-105.2302759">
  <ele>1669.35</ele>
  <time>2026-08-27T18:26:41Z</time>
  <course>11.56</course>
  <speed>0.0316227766016838</speed>
  <fix>3d</fix>
</trkpt>
<trkpt lat="40.0738748" lon="-105.2302759">
  <ele>1669.79</ele>
  <time>2026-08-27T18:26:41Z</time>
  <course>11.56</course>
  <speed>0.0316227766016838</speed>
  <fix>3d</fix>
</trkpt>
<trkpt lat="40.0738748" lon="-105.2302763">
  <ele>1669.02</ele>
  <time>2026-08-27T18:26:41Z</time>
  <course>51.22</course>
  <speed>0.0</speed>
  <fix>3d</fix>
</trkpt>
<trkpt lat="40.0738748" lon="-105.2302759">
  <ele>1669.86</ele>
  <time>2026-08-27T18:26:41Z</time>
  <course>11.57</course>
  <speed>0.0316227766016838</speed>
  <fix>3d</fix>
</trkpt>
<trkpt lat="40.0738748" lon="-105.2302759">
  <ele>1670.29</ele>
  <time>2026-08-27T18:26:41Z</time>
  <course>11.58</course>
  <speed>0.0316227766016838</speed>
  <fix>3d</fix>
</trkpt>
<trkpt lat="40.0738748" lon="-105.2302763">
  <ele>1669.52</ele>
  <time>2026-08-27T18:26:41Z</time>
  <course>54.87</course>
  <speed>0.0</speed>
  <fix>3d</fix>
</trkpt>
<trkpt lat="40.0738748" lon="-105.2302759">
  <ele>1670.36</ele>
  <time>2026-08-27T18:26:41Z</time>
  <course>11.58</course>
  <speed>0.0316227766016838</speed>
  <fix>3d</fix>
</trkpt>
<trkpt lat="40.0738748" lon="-105.2302759">
  <ele>1670.79</ele>
  <time>2026-08-27T18:26:41Z</time>
  <course>11.59</course>
  <speed>0.0316227766016838</speed>
  <fix>3d</fix>
</trkpt>
<trkpt lat="40.0738748" lon="-105.2302763">
  <ele>1670.02</ele>
  <time>2026-08-27T18:26:41Z</time>
  <course>57.32</course>
  <speed>0.0</speed>
  <fix>3d</fix>
</trkpt>
<trkpt lat="40.0738748" lon="-105.2302759">
  <ele>1670.79</ele>
  <time>2026-08-27T18:26:41Z</time>
  <course>11.59</course>
  <speed>0.0316227766016838</speed>
  <fix>3d</fix>
</trkpt>
<trkpt lat="40.0738748" lon="-105.2302759">
  <ele>1671.28</ele>
  <time>2026-08-27T18:26:41Z</time>
  <course>11.6</course>
  <speed>0.0316227766016838</speed>
  <fix>3d</fix>
</trkpt>
<trkpt lat="40.0738748" lon="-105.2302763">
  <ele>1670.51</ele>
  <time>2026-08-27T18:26:41Z</time>
  <course>58.47</course>
  <speed>0.01</speed>
  <fix>3d</fix>
</trkpt>
<trkpt lat="40.0738748" lon="-105.2302759">
  <ele>1671.35</ele>
  <time>2026-08-27T18:26:41Z</time>
  <course>11.6</course>
  <speed>0.0316227766016838</speed>
  <fix>3d</fix>
</trkpt>
<trkpt lat="40.0738748" lon="-105.2302759">
  <ele>1671.78</ele>
  <time>2026-08-27T18:26:41Z</time>
  <course>11.59</course>
  <speed>0.0316227766016838</speed>
  <fix>3d</fix>
</trkpt>
<trkpt lat="40.0738749" lon="-105.2302762">
  <ele>1671.01</ele>
  <time>2026-08-27T18:26:41Z</time>
  <course>59.26</course>
  <speed>0.01</speed>
  <fix>3d</fix>
</trkpt>
<trkpt lat="40.0738748" lon="-105.2302759">
  <ele>1671.79</ele>
  <time>2026-08-27T18:26:41Z</time>
  <course>11.59</course>
  <speed>0.0316227766016838</speed>
  <fix>3d</fix>
</trkpt>
<trkpt lat="40.0738748" lon="-105.2302759">
  <ele>1672.28</ele>
  <time>2026-08-27T18:26:41Z</time>
  <course>11.59</course>
  <speed>0.0316227766016838</speed>
  <fix>3d</fix>
</trkpt>
<trkpt lat="40.0738749" lon="-105.2302761">
  <ele>1671.51</ele>
  <time>2026-08-27T18:26:41Z</time>
  <course>60.95</course>
  <speed>0.01</speed>
  <fix>3d</fix>
</trkpt>
<trkpt lat="40.0738748" lon="-105.2302759">
  <ele>1672.36</ele>
  <time>2026-08-27T18:26:41Z</time>
  <course>11.59</course>
  <speed>0.0316227766016838</speed>
  <fix>3d</fix>
</trkpt>
<trkpt lat="40.0738748" lon="-105.2302759">
  <ele>1672.78</ele>
  <time>2026-08-27T18:26:41Z</time>
  <course>11.6</course>
  <speed>0.0316227766016838</speed>
  <fix>3d</fix>
</trkpt>
<trkpt lat="40.0738749" lon="-105.2302761">
  <ele>1672.01</ele>
  <time>2026-08-27T18:26:41Z</time>
  <course>62.95</course>
  <speed>0.01</speed>
  <fix>3d</fix>
</trkpt>
<trkpt lat="40.0738748" lon="-105.2302759">
  <ele>1672.85</ele>
  <time>2026-08-27T18:26:41Z</time>
  <course>11.6</course>
  <speed>0.0316227766016838</speed>
  <fix>3d</fix>
</trkpt>
<trkpt lat="40.0738748" lon="-105.2302759">
  <ele>1673.29</ele>
  <time>2026-08-27T18:26:41Z</time>
  <course>11.61</course>
  <speed>0.0316227766016838</speed>
  <fix>3d</fix>
</trkpt>
<trkpt lat="40.0738749" lon="-105.2302761">
  <ele>1672.51</ele>
  <time>2026-08-27T18:26:41Z</time>
  <course>65.49</course>
  <speed>0.01</speed>
  <fix>3d</fix>
</trkpt>
<trkpt lat="40.0738748" lon="-105.2302758">
  <ele>1673.35</ele>
  <time>2026-08-27T18:26:41Z</time>
  <course>11.6</course>
  <speed>0.0316227766016838</speed>
  <fix>3d</fix>
</trkpt>
<trkpt lat="40.0738748" lon="-105.2302758">
  <ele>1673.79</ele>
  <time>2026-08-27T18:26:41Z</time>
  <course>11.62</course>
  <speed>0.0316227766016838</speed>
  <fix>3d</fix>
</trkpt>
<trkpt lat="40.0738749" lon="-105.2302761">
  <ele>1673.01</ele>
  <time>2026-08-27T18:26:41Z</time>
  <course>68.66</course>
  <speed>0.01</speed>
  <fix>3d</fix>
</trkpt>
<trkpt lat="40.0738748" lon="-105.2302758">
  <ele>1673.79</ele>
  <time>2026-08-27T18:26:41Z</time>
  <course>11.62</course>
  <speed>0.0316227766016838</speed>
  <fix>3d</fix>
</trkpt>
<trkpt lat="40.0738748" lon="-105.2302758">
  <ele>1674.29</ele>
  <time>2026-08-27T18:26:41Z</time>
  <course>11.63</course>
  <speed>0.0316227766016838</speed>
  <fix>3d</fix>
</trkpt>
<trkpt lat="40.0738749" lon="-105.2302761">
  <ele>1673.51</ele>
  <time>2026-08-27T18:26:41Z</time>
  <course>71.14</course>
  <speed>0.01</speed>
  <fix>3d</fix>
</trkpt>
<trkpt lat="40.0738748" lon="-105.2302758">
  <ele>1674.34</ele>
  <time>2026-08-27T18:26:41Z</time>
  <course>11.63</course>
  <speed>0.0316227766016838</speed>
  <fix>3d</fix>
</trkpt>
<trkpt lat="40.0738748" lon="-105.2302758">
  <ele>1674.79</ele>
  <time>2026-08-27T18:26:41Z</time>
  <course>11.65</course>
  <speed>0.0316227766016838</speed>
  <fix>3d</fix>
</trkpt>
<trkpt lat="40.0738749" lon="-105.2302761">
  <ele>1674.0</ele>
  <time>2026-08-27T18:26:41Z</time>
  <course>73.57</course>
  <speed>0.0</speed>
  <fix>3d</fix>
</trkpt>
<trkpt lat="40.0738748" lon="-105.2302758">
  <ele>1674.8</ele>
  <time>2026-08-27T18:26:41Z</time>
  <course>11.65</course>
  <speed>0.0316227766016838</speed>
  <fix>3d</fix>
</trkpt>
<trkpt lat="40.0738748" lon="-105.2302758">
  <ele>1675.29</ele>
  <time>2026-08-27T18:26:41Z</time>
  <course>11.65</course>
  <speed>0.022360679774997897</speed>
  <fix>3d</fix>
</trkpt>
<trkpt lat="40.0738749" lon="-105.2302761">
  <ele>1674.5</ele>
  <time>2026-08-27T18:26:41Z</time>
  <course>79.18</course>
  <speed>0.0</speed>
  <fix>3d</fix>
</trkpt>
<trkpt lat="40.0738748" lon="-105.2302758">
  <ele>1675.36</ele>
  <time>2026-08-27T18:26:41Z</time>
  <course>11.65</course>
  <speed>0.022360679774997897</speed>
  <fix>3d</fix>
</trkpt>
<trkpt lat="40.0738748" lon="-105.2302758">
  <ele>1675.78</ele>
  <time>2026-08-27T18:26:41Z</time>
  <course>11.66</course>
  <speed>0.0282842712474619</speed>
  <fix>3d</fix>
</trkpt>
<trkpt lat="40.0738749" lon="-105.2302761">
  <ele>1675.0</ele>
  <time>2026-08-27T18:26:41Z</time>
  <course>89.93</course>
  <speed>0.0</speed>
  <fix>3d</fix>
</trkpt>
<trkpt lat="40.0738748" lon="-105.2302758">
  <ele>1675.79</ele>
  <time>2026-08-27T18:26:41Z</time>
  <course>11.66</course>
  <speed>0.0282842712474619</speed>
  <fix>3d</fix>
</trkpt>
<trkpt lat="40.0738748" lon="-105.2302758">
  <ele>1676.28</ele>
  <time>2026-08-27T18:26:41Z</time>
  <course>11.66</course>
  <speed>0.0282842712474619</speed>
  <fix>3d</fix>
</trkpt>
<trkpt lat="40.0738749" lon="-105.2302761">
  <ele>1675.5</ele>
  <time>2026-08-27T18:26:41Z</time>
  <course>106.31</course>
  <speed>0.0</speed>
  <fix>3d</fix>
</trkpt>
<trkpt lat="40.0738748" lon="-105.2302758">
  <ele>1676.35</ele>
  <time>2026-08-27T18:26:41Z</time>
  <course>11.66</course>
  <speed>0.0282842712474619</speed>
  <fix>3d</fix>
</trkpt>
<trkpt lat="40.0738748" lon="-105.2302758">
  <ele>1676.77</ele>
  <time>2026-08-27T18:26:41Z</time>
  <course>11.66</course>
  <speed>0.0282842712474619</speed>
  <fix>3d</fix>
</trkpt>
<trkpt lat="40.0738749" lon="-105.2302761">
  <ele>1675.99</ele>
  <time>2026-08-27T18:26:41Z</time>
  <course>128.0</course>
  <speed>0.0</speed>
  <fix>3d</fix>
</trkpt>
<trkpt lat="40.0738748" lon="-105.2302758">
  <ele>1676.84</ele>
  <time>2026-08-27T18:26:41Z</time>
  <course>11.66</course>
  <speed>0.0282842712474619</speed>
  <fix>3d</fix>
</trkpt>
<trkpt lat="40.0738748" lon="-105.2302758">
  <ele>1677.26</ele>
  <time>2026-08-27T18:26:41Z</time>
  <course>11.64</course>
  <speed>0.0282842712474619</speed>
  <fix>3d</fix>
</trkpt>
<trkpt lat="40.0738749" lon="-105.2302761">
  <ele>1676.49</ele>
  <time>2026-08-27T18:26:41Z</time>
  <course>149.9</course>
  <speed>0.0</speed>
  <fix>3d</fix>
</trkpt>
<trkpt lat="40.0738748" lon="-105.2302758">
  <ele>1677.33</ele>
  <time>2026-08-27T18:26:41Z</time>
  <course>11.64</course>
  <speed>0.0282842712474619</speed>
  <fix>3d</fix>
</trkpt>
<trkpt lat="40.0738748" lon="-105.2302758">
  <ele>1677.76</ele>
  <time>2026-08-27T18:26:41Z</time>
  <course>11.62</course>
  <speed>0.0282842712474619</speed>
  <fix>3d</fix>
</trkpt>
<trkpt lat="40.0738749" lon="-105.2302761">
  <ele>1676.99</ele>
  <time>2026-08-27T18:26:41Z</time>
  <course>165.45</course>
  <speed>0.0</speed>
  <fix>3d</fix>
</trkpt>
<trkpt lat="40.0738748" lon="-105.2302758">
  <ele>1677.83</ele>
  <time>2026-08-27T18:26:41Z</time>
  <course>11.61</course>
  <speed>0.0282842712474619</speed>
  <fix>3d</fix>
</trkpt>
<trkpt lat="40.0738748" lon="-105.2302758">
  <ele>1678.27</ele>
  <time>2026-08-27T18:26:41Z</time>
  <course>11.61</course>
  <speed>0.0282842712474619</speed>
  <fix>3d</fix>
</trkpt>
<trkpt lat="40.0738749" lon="-105.2302761">
  <ele>1677.49</ele>
  <time>2026-08-27T18:26:41Z</time>
  <course>175.26</course>
  <speed>0.0</speed>
  <fix>3d</fix>
</trkpt>
<trkpt lat="40.0738748" lon="-105.2302758">
  <ele>1678.27</ele>
  <time>2026-08-27T18:26:41Z</time>
  <course>11.61</course>
  <speed>0.0282842712474619</speed>
  <fix>3d</fix>
</trkpt>
<trkpt lat="40.0738748" lon="-105.2302758">
  <ele>1678.77</ele>
  <time>2026-08-27T18:26:41Z</time>
  <course>11.64</course>
  <speed>0.0282842712474619</speed>
  <fix>3d</fix>
</trkpt>
<trkpt lat="40.0738749" lon="-105.2302761">
  <ele>1677.99</ele>
  <time>2026-08-27T18:26:41Z</time>
  <course>186.58</course>
  <speed>0.0</speed>
  <fix>3d</fix>
</trkpt>
<trkpt lat="40.0738748" lon="-105.2302758">
  <ele>1678.84</ele>
  <time>2026-08-27T18:26:41Z</time>
  <course>11.65</course>
  <speed>0.0282842712474619</speed>
  <fix>3d</fix>
</trkpt>
<trkpt lat="40.0738748" lon="-105.2302758">
  <ele>1679.27</ele>
  <time>2026-08-27T18:26:41Z</time>
  <course>11.65</course>
  <speed>0.0282842712474619</speed>
  <fix>3d</fix>
</trkpt>
<trkpt lat="40.0738749" lon="-105.2302761">
  <ele>1678.5</ele>
  <time>2026-08-27T18:26:41Z</time>
  <course>196.97</course>
  <speed>0.0</speed>
  <fix>3d</fix>
</trkpt>
<trkpt lat="40.0738748" lon="-105.2302758">
  <ele>1679.34</ele>
  <time>2026-08-27T18:26:41Z</time>
  <course>11.65</course>
  <speed>0.0282842712474619</speed>
  <fix>3d</fix>
</trkpt>
<trkpt lat="40.0738748" lon="-105.2302758">
  <ele>1679.77</ele>
  <time>2026-08-27T18:26:41Z</time>
  <course>11.67</course>
  <speed>0.0282842712474619</speed>
  <fix>3d</fix>
</trkpt>
<trkpt lat="40.0738749" lon="-105.2302761">
  <ele>1679.0</ele>
  <time>2026-08-27T18:26:41Z</time>
  <course>197.62</course>
  <speed>0.0</speed>
  <fix>3d</fix>
</trkpt>
<trkpt lat="40.0738748" lon="-105.2302758">
  <ele>1679.84</ele>
  <time>2026-08-27T18:26:41Z</time>
  <course>11.67</course>
  <speed>0.0282842712474619</speed>
  <fix>3d</fix>
</trkpt>
<trkpt lat="40.0738748" lon="-105.2302758">
  <ele>1680.28</ele>
  <time>2026-08-27T18:26:41Z</time>
  <course>11.68</course>
  <speed>0.0282842712474619</speed>
  <fix>3d</fix>
</trkpt>
<trkpt lat="40.0738749" lon="-105.2302761">
  <ele>1679.5</ele>
  <time>2026-08-27T18:26:41Z</time>
  <course>197.52</course>
  <speed>0.0</speed>
  <fix>3d</fix>
</trkpt>
<trkpt lat="40.0738748" lon="-105.2302758">
  <ele>1680.34</ele>
  <time>2026-08-27T18:26:41Z</time>
  <course>11.68</course>
  <speed>0.0282842712474619</speed>
  <fix>3d</fix>
</trkpt>
<trkpt lat="40.0738748" lon="-105.2302758">
  <ele>1680.78</ele>
  <time>2026-08-27T18:26:41Z</time>
  <course>11.69</course>
  <speed>0.0282842712474619</speed>
  <fix>3d</fix>
</trkpt>
<trkpt lat="40.0738749" lon="-105.2302761">
  <ele>1680.0</ele>
  <time>2026-08-27T18:26:41Z</time>
  <course>204.34</course>
  <speed>0.0</speed>
  <fix>3d</fix>
</trkpt>
<trkpt lat="40.0738748" lon="-105.2302758">
  <ele>1680.78</ele>
  <time>2026-08-27T18:26:41Z</time>
  <course>11.69</course>
  <speed>0.0282842712474619</speed>
  <fix>3d</fix>
</trkpt>
<trkpt lat="40.0738748" lon="-105.2302758">
  <ele>1681.28</ele>
  <time>2026-08-27T18:26:41Z</time>
  <course>11.69</course>
  <speed>0.0282842712474619</speed>
  <fix>3d</fix>
</trkpt>
<trkpt lat="40.0738749" lon="-105.2302761">
  <ele>1680.51</ele>
  <time>2026-08-27T18:26:41Z</time>
  <course>214.81</course>
  <speed>0.0</speed>
  <fix>3d</fix>
</trkpt>
<trkpt lat="40.0738748" lon="-105.2302758">
  <ele>1681.35</ele>
  <time>2026-08-27T18:26:41Z</time>
  <course>11.69</course>
  <speed>0.0282842712474619</speed>
  <fix>3d</fix>
</trkpt>
<trkpt lat="40.0738748" lon="-105.2302758">
  <ele>1681.78</ele>
  <time>2026-08-27T18:26:41Z</time>
  <course>11.7</course>
  <speed>0.0282842712474619</speed>
  <fix>3d</fix>
</trkpt>
<trkpt lat="40.0738749" lon="-105.2302761">
  <ele>1681.01</ele>
  <time>2026-08-27T18:26:41Z</time>
  <course>219.0</course>
  <speed>0.0</speed>
  <fix>3d</fix>
</trkpt>
<trkpt lat="40.0738748" lon="-105.2302758">
  <ele>1681.85</ele>
  <time>2026-08-27T18:26:41Z</time>
  <course>11.7</course>
  <speed>0.0282842712474619</speed>
  <fix>3d</fix>
</trkpt>
<trkpt lat="40.0738748" lon="-105.2302758">
  <ele>1682.28</ele>
  <time>2026-08-27T18:26:41Z</time>
  <course>11.71</course>
  <speed>0.0282842712474619</speed>
  <fix>3d</fix>
</trkpt>
<trkpt lat="40.0738749" lon="-105.2302761">
  <ele>1681.51</ele>
  <time>2026-08-27T18:26:41Z</time>
  <course>217.9</course>
  <speed>0.0</speed>
  <fix>3d</fix>
</trkpt>
<trkpt lat="40.0738748" lon="-105.2302758">
  <ele>1682.36</ele>
  <time>2026-08-27T18:26:41Z</time>
  <course>11.71</course>
  <speed>0.0282842712474619</speed>
  <fix>3d</fix>
</trkpt>
<trkpt lat="40.0738748" lon="-105.2302758">
  <ele>1682.79</ele>
  <time>2026-08-27T18:26:41Z</time>
  <course>11.72</course>
  <speed>0.0282842712474619</speed>
  <fix>3d</fix>
</trkpt>
<trkpt lat="40.0738749" lon="-105.2302761">
  <ele>1682.01</ele>
  <time>2026-08-27T18:26:41Z</time>
  <course>216.7</course>
  <speed>0.0</speed>
  <fix>3d</fix>
</trkpt>
<trkpt lat="40.0738748" lon="-105.2302758">
  <ele>1682.86</ele>
  <time>2026-08-27T18:26:41Z</time>
  <course>11.72</course>
  <speed>0.0282842712474619</speed>
  <fix>3d</fix>
</trkpt>
<trkpt lat="40.0738748" lon="-105.2302758">
  <ele>1683.29</ele>
  <time>2026-08-27T18:26:41Z</time>
  <course>11.73</course>
  <speed>0.0282842712474619</speed>
  <fix>3d</fix>
</trkpt>
<trkpt lat="40.0738749" lon="-105.2302761">
  <ele>1682.51</ele>
  <time>2026-08-27T18:26:41Z</time>
  <course>213.61</course>
  <speed>0.0</speed>
  <fix>3d</fix>
</trkpt>
<trkpt lat="40.0738748" lon="-105.2302758">
  <ele>1683.36</ele>
  <time>2026-08-27T18:26:41Z</time>
  <course>11.73</course>
  <speed>0.0282842712474619</speed>
  <fix>3d</fix>
</trkpt>
<trkpt lat="40.0738748" lon="-105.2302758">
  <ele>1683.79</ele>
  <time>2026-08-27T18:26:41Z</time>
  <course>11.72</course>
  <speed>0.022360679774997897</speed>
  <fix>3d</fix>
</trkpt>
<trkpt lat="40.0738749" lon="-105.2302761">
  <ele>1683.01</ele>
  <time>2026-08-27T18:26:41Z</time>
  <course>212.86</course>
  <speed>0.0</speed>
  <fix>3d</fix>
</trkpt>
<trkpt lat="40.0738748" lon="-105.2302758">
  <ele>1683.79</ele>
  <time>2026-08-27T18:26:41Z</time>
  <course>11.72</course>
  <speed>0.022360679774997897</speed>
  <fix>3d</fix>
</trkpt>
<trkpt lat="40.0738748" lon="-105.2302758">
  <ele>1684.29</ele>
  <time>2026-08-27T18:26:41Z</time>
  <course>11.72</course>
  <speed>0.022360679774997897</speed>
  <fix>3d</fix>
</trkpt>
<trkpt lat="40.0738749" lon="-105.2302761">
  <ele>1683.51</ele>
  <time>2026-08-27T18:26:41Z</time>
  <course>214.23</course>
  <speed>0.0</speed>
  <fix>3d</fix>
</trkpt>
<trkpt lat="40.0738748" lon="-105.2302758">
  <ele>1684.79</ele>
  <time>2026-08-27T18:26:41Z</time>
  <course>11.51</course>
  <speed>0.0316227766016838</speed>
  <fix>3d</fix>
</trkpt>
<trkpt lat="40.0738749" lon="-105.2302761">
  <ele>1684.01</ele>
  <time>2026-08-27T18:26:41Z</time>
  <course>215.08</course>
  <speed>0.0</speed>
  <fix>3d</fix>
</trkpt>
<trkpt lat="40.0738748" lon="-105.2302758">
  <ele>1685.35</ele>
  <time>2026-08-27T18:26:41Z</time>
  <course>10.03</course>
  <speed>0.01</speed>
  <fix>3d</fix>
</trkpt>
<trkpt lat="40.0738749" lon="-105.2302761">
  <ele>1684.51</ele>
  <time>2026-08-27T18:26:41Z</time>
  <course>105.22</course>
  <speed>0.0</speed>
  <fix>3d</fix>
</trkpt>
<trkpt lat="40.0738748" lon="-105.230276">
  <ele>1685.59</ele>
  <time>2026-08-27T18:26:41Z</time>
  <course>17.59</course>
  <speed>0.1</speed>
  <fix>3d</fix>
</trkpt>
<trkpt lat="40.0738749" lon="-105.2302761">
  <ele>1685.03</ele>
  <time>2026-08-27T18:26:41Z</time>
  <course>268.6</course>
  <speed>0.04</speed>
  <fix>3d</fix>
</trkpt>
<trkpt lat="40.0738748" lon="-105.2302764">
  <ele>1685.34</ele>
  <time>2026-08-27T18:26:41Z</time>
  <course>18.57</course>
  <speed>0.17029386365926402</speed>
  <fix>3d</fix>
</trkpt>
<trkpt lat="40.0738749" lon="-105.2302761">
  <ele>1685.33</ele>
  <time>2026-08-27T18:26:41Z</time>
  <course>270.13</course>
  <speed>0.12</speed>
  <fix>3d</fix>
</trkpt>
<trkpt lat="40.0738748" lon="-105.2302769">
  <ele>1684.75</ele>
  <time>2026-08-27T18:26:41Z</time>
  <course>18.57</course>
  <speed>0.2009975124224178</speed>
  <fix>3d</fix>
</trkpt>
<trkpt lat="40.0738749" lon="-105.2302765">
  <ele>1685.17</ele>
  <time>2026-08-27T18:26:41Z</time>
  <course>272.07</course>
  <speed>0.17</speed>
  <fix>3d</fix>
</trkpt>
<trkpt lat="40.0738749" lon="-105.2302774">
  <ele>1683.93</ele>
  <time>2026-08-27T18:26:41Z</time>
  <course>17.08</course>
  <speed>0.25179356624028343</speed>
  <fix>3d</fix>
</trkpt>
<trkpt lat="40.0738749" lon="-105.230277">
  <ele>1684.64</ele>
  <time>2026-08-27T18:26:41Z</time>
  <course>273.94</course>
  <speed>0.22</speed>
  <fix>3d</fix>
</trkpt>
<trkpt lat="40.0738749" lon="-105.2302781">
  <ele>1682.96</ele>
  <time>2026-08-27T18:26:41Z</time>
  <course>17.29</course>
  <speed>0.27294688127912364</speed>
  <fix>3d</fix>
</trkpt>
<trkpt lat="40.0738749" lon="-105.2302775">
  <ele>1683.85</ele>
  <time>2026-08-27T18:26:41Z</time>
  <course>275.2</course>
  <speed>0.26</speed>
  <fix>3d</fix>
</trkpt>
<trkpt lat="40.073875" lon="-105.2302788">
  <ele>1681.88</ele>
  <time>2026-08-27T18:26:41Z</time>
  <course>18.02</course>
  <speed>0.27294688127912364</speed>
  <fix>3d</fix>
</trkpt>
<trkpt lat="40.0738749" lon="-105.2302782">
  <ele>1682.9</ele>
  <time>2026-08-27T18:26:41Z</time>
  <course>275.99</course>
  <speed>0.29</speed>
  <fix>3d</fix>
</trkpt>
<trkpt lat="40.073875" lon="-105.2302794">
  <ele>1680.74</ele>
  <time>2026-08-27T18:26:41Z</time>
  <course>18.92</course>
  <speed>0.24186773244895649</speed>
  <fix>3d</fix>
</trkpt>
<trkpt lat="40.0738749" lon="-105.2302789">
  <ele>1681.85</ele>
  <time>2026-08-27T18:26:41Z</time>
  <course>276.75</course>
  <speed>0.29</speed>
  <fix>3d</fix>
</trkpt>
<trkpt lat="40.0738751" lon="-105.23028">
  <ele>1679.55</ele>
  <time>2026-08-27T18:26:41Z</time>
  <course>19.24</course>
  <speed>0.2109502310972899</speed>
  <fix>3d</fix>
</trkpt>
<trkpt lat="40.073875" lon="-105.2302796">
  <ele>1680.72</ele>
  <time>2026-08-27T18:26:41Z</time>
  <course>277.77</course>
  <speed>0.27</speed>
  <fix>3d</fix>
</trkpt>
<trkpt lat="40.0738751" lon="-105.2302805">
  <ele>1678.33</ele>
  <time>2026-08-27T18:26:41Z</time>
  <course>19.14</course>
  <speed>0.191049731745428</speed>
  <fix>3d</fix>
</trkpt>
<trkpt lat="40.0738751" lon="-105.2302803">
  <ele>1679.55</ele>
  <time>2026-08-27T18:26:41Z</time>
  <course>279.23</course>
  <speed>0.25</speed>
  <fix>3d</fix>
</trkpt>
<trkpt lat="40.0738752" lon="-105.230281">
  <ele>1677.1</ele>
  <time>2026-08-27T18:26:41Z</time>
  <course>18.88</course>
  <speed>0.16124515496597097</speed>
  <fix>3d</fix>
</trkpt>
<trkpt lat="40.0738751" lon="-105.2302808">
  <ele>1678.36</ele>
  <time>2026-08-27T18:26:41Z</time>
  <course>281.15</course>
  <speed>0.22</speed>
  <fix>3d</fix>
</trkpt>
<trkpt lat="40.0738752" lon="-105.2302814">
  <ele>1675.86</ele>
  <time>2026-08-27T18:26:41Z</time>
  <course>18.57</course>
  <speed>0.140356688476182</speed>
  <fix>3d</fix>
</trkpt>
<trkpt lat="40.0738752" lon="-105.2302813">
  <ele>1677.15</ele>
  <time>2026-08-27T18:26:41Z</time>
  <course>283.46</course>
  <speed>0.2</speed>
  <fix>3d</fix>
</trkpt>
<trkpt lat="40.0738753" lon="-105.2302818">
  <ele>1674.61</ele>
  <time>2026-08-27T18:26:42Z</time>
  <course>18.3</course>
  <speed>0.12041594578792296</speed>
  <fix>3d</fix>
</trkpt>
<trkpt lat="40.0738753" lon="-105.2302816">
  <ele>1675.92</ele>
  <time>2026-08-27T18:26:42Z</time>
  <course>286.22</course>
  <speed>0.17</speed>
  <fix>3d</fix>
</trkpt>
<trkpt lat="40.0738753" lon="-105.2302821">
  <ele>1673.36</ele>
  <time>2026-08-27T18:26:42Z</time>
  <course>18.03</course>
  <speed>0.1004987562112089</speed>
  <fix>3d</fix>
</trkpt>
<trkpt lat="40.0738754" lon="-105.2302821">
  <ele>1674.71</ele>
  <time>2026-08-27T18:26:42Z</time>
  <course>289.51</course>
  <speed>0.15</speed>
  <fix>3d</fix>
</trkpt>
<trkpt lat="40.0738754" lon="-105.2302824">
  <ele>1672.11</ele>
  <time>2026-08-27T18:26:42Z</time>
  <course>17.77</course>
  <speed>0.08062257748298549</speed>
  <fix>3d</fix>
</trkpt>
<trkpt lat="40.0738755" lon="-105.2302824">
  <ele>1673.48</ele>
  <time>2026-08-27T18:26:42Z</time>
  <course>293.38</course>
  <speed>0.14</speed>
  <fix>3d</fix>
</trkpt>
<trkpt lat="40.0738755" lon="-105.2302826">
  <ele>1670.86</ele>
  <time>2026-08-27T18:26:42Z</time>
  <course>17.54</course>
  <speed>0.06082762530298219</speed>
  <fix>3d</fix>
</trkpt>
<trkpt lat="40.0738756" lon="-105.2302827">
  <ele>1672.25</ele>
  <time>2026-08-27T18:26:42Z</time>
  <course>297.93</course>
  <speed>0.12</speed>
  <fix>3d</fix>
</trkpt>
<trkpt lat="40.0738756" lon="-105.2302828">
  <ele>1669.6</ele>
  <time>2026-08-27T18:26:42Z</time>
  <course>17.35</course>
  <speed>0.0412310562561766</speed>
  <fix>3d</fix>
</trkpt>
<trkpt lat="40.0738757" lon="-105.2302829">
  <ele>1671.02</ele>
  <time>2026-08-27T18:26:42Z</time>
  <course>303.25</course>
  <speed>0.11</speed>
  <fix>3d</fix>
</trkpt>
<trkpt lat="40.0738757" lon="-105.2302829">
  <ele>1668.35</ele>
  <time>2026-08-27T18:26:42Z</time>
  <course>17.18</course>
  <speed>0.0316227766016838</speed>
  <fix>3d</fix>
</trkpt>
<trkpt lat="40.0738758" lon="-105.2302831">
  <ele>1669.8</ele>
  <time>2026-08-27T18:26:42Z</time>
  <course>309.51</course>
  <speed>0.09</speed>
  <fix>3d</fix>
</trkpt>
<trkpt lat="40.0738758" lon="-105.2302831">
  <ele>1667.1</ele>
  <time>2026-08-27T18:26:42Z</time>
  <course>17.02</course>
  <speed>0.01414213562373095</speed>
  <fix>3d</fix>
</trkpt>
<trkpt lat="40.0738759" lon="-105.2302833">
  <ele>1668.57</ele>
  <time>2026-08-27T18:26:42Z</time>
  <course>316.88</course>
  <speed>0.08</speed>
  <fix>3d</fix>
</trkpt>
<trkpt lat="40.0738759" lon="-105.2302832">
  <ele>1665.86</ele>
  <time>2026-08-27T18:26:42Z</time>
  <course>16.89</course>
  <speed>0.01</speed>
  <fix>3d</fix>
</trkpt>
<trkpt lat="40.0738761" lon="-105.2302834">
  <ele>1667.33</ele>
  <time>2026-08-27T18:26:42Z</time>
  <course>325.29</course>
  <speed>0.07</speed>
  <fix>3d</fix>
</trkpt>
<trkpt lat="40.073876" lon="-105.2302832">
  <ele>1664.62</ele>
  <time>2026-08-27T18:26:42Z</time>
  <course>16.73</course>
  <speed>0.02</speed>
  <fix>3d</fix>
</trkpt>
<trkpt lat="40.0738762" lon="-105.2302835">
  <ele>1666.11</ele>
  <time>2026-08-27T18:26:42Z</time>
  <course>334.55</course>
  <speed>0.07</speed>
  <fix>3d</fix>
</trkpt>
<trkpt lat="40.0738761" lon="-105.2302832">
  <ele>1663.37</ele>
  <time>2026-08-27T18:26:42Z</time>
  <course>16.61</course>
  <speed>0.022360679774997897</speed>
  <fix>3d</fix>
</trkpt>
<trkpt lat="40.0738763" lon="-105.2302835">
  <ele>1664.88</ele>
  <time>2026-08-27T18:26:42Z</time>
  <course>344.29</course>
  <speed>0.06</speed>
  <fix>3d</fix>
</trkpt>
<trkpt lat="40.0738762" lon="-105.2302832">
  <ele>1662.13</ele>
  <time>2026-08-27T18:26:42Z</time>
  <course>16.43</course>
  <speed>0.0282842712474619</speed>
  <fix>3d</fix>
</trkpt>
<trkpt lat="40.0738764" lon="-105.2302835">
  <ele>1663.65</ele>
  <time>2026-08-27T18:26:42Z</time>
  <course>354.1</course>
  <speed>0.06</speed>
  <fix>3d</fix>
</trkpt>
<trkpt lat="40.0738763" lon="-105.2302832">
  <ele>1660.89</ele>
  <time>2026-08-27T18:26:42Z</time>
  <course>16.21</course>
  <speed>0.03605551275463989</speed>
  <fix>3d</fix>
</trkpt>
<trkpt lat="40.0738765" lon="-105.2302835">
  <ele>1662.42</ele>
  <time>2026-08-27T18:26:42Z</time>
  <course>3.04</course>
  <speed>0.06</speed>
  <fix>3d</fix>
</trkpt>
<trkpt lat="40.0738765" lon="-105.2302832">
  <ele>1659.66</ele>
  <time>2026-08-27T18:26:42Z</time>
  <course>16.0</course>
  <speed>0.03605551275463989</speed>
  <fix>3d</fix>
</trkpt>
<trkpt lat="40.0738767" lon="-105.2302835">
  <ele>1661.2</ele>
  <time>2026-08-27T18:26:42Z</time>
  <course>9.79</course>
  <speed>0.06</speed>
  <fix>3d</fix>
</trkpt>
<trkpt lat="40.0738766" lon="-105.2302832">
  <ele>1658.41</ele>
  <time>2026-08-27T18:26:42Z</time>
  <course>15.81</course>
  <speed>0.05</speed>
  <fix>3d</fix>
</trkpt>
<trkpt lat="40.0738768" lon="-105.2302835">
  <ele>1659.97</ele>
  <time>2026-08-27T18:26:42Z</time>
  <course>14.31</course>
  <speed>0.06</speed>
  <fix>3d</fix>
</trkpt>
<trkpt lat="40.0738767" lon="-105.2302832">
  <ele>1657.17</ele>
  <time>2026-08-27T18:26:42Z</time>
  <course>15.68</course>
  <speed>0.05</speed>
  <fix>3d</fix>
</trkpt>
<trkpt lat="40.0738769" lon="-105.2302835">
  <ele>1658.74</ele>
  <time>2026-08-27T18:26:42Z</time>
  <course>17.03</course>
  <speed>0.06</speed>
  <fix>3d</fix>
</trkpt>
<trkpt lat="40.0738768" lon="-105.2302832">
  <ele>1655.92</ele>
  <time>2026-08-27T18:26:42Z</time>
  <course>15.53</course>
  <speed>0.05</speed>
  <fix>3d</fix>
</trkpt>
<trkpt lat="40.073877" lon="-105.2302835">
  <ele>1657.51</ele>
  <time>2026-08-27T18:26:42Z</time>
  <course>18.19</course>
  <speed>0.06</speed>
  <fix>3d</fix>
</trkpt>
<trkpt lat="40.073877" lon="-105.2302831">
  <ele>1654.69</ele>
  <time>2026-08-27T18:26:42Z</time>
  <course>15.43</course>
  <speed>0.04242640687119285</speed>
  <fix>3d</fix>
</trkpt>
<trkpt lat="40.0738771" lon="-105.2302835">
  <ele>1656.28</ele>
  <time>2026-08-27T18:26:42Z</time>
  <course>17.76</course>
  <speed>0.06</speed>
  <fix>3d</fix>
</trkpt>
<trkpt lat="40.0738771" lon="-105.2302831">
  <ele>1653.52</ele>
  <time>2026-08-27T18:26:42Z</time>
  <course>15.42</course>
  <speed>0.09219544457292887</speed>
  <fix>3d</fix>
</trkpt>
<trkpt lat="40.0738772" lon="-105.2302835">
  <ele>1655.04</ele>
  <time>2026-08-27T18:26:42Z</time>
  <course>15.87</course>
  <speed>0.06</speed>
  <fix>3d</fix>
</trkpt>
<trkpt lat="40.0738772" lon="-105.2302828">
  <ele>1652.65</ele>
  <time>2026-08-27T18:26:42Z</time>
  <course>16.11</course>
  <speed>0.18027756377319945</speed>
  <fix>3d</fix>
</trkpt>
<trkpt lat="40.0738774" lon="-105.2302833">
  <ele>1653.89</ele>
  <time>2026-08-27T18:26:42Z</time>
  <course>46.67</course>
  <speed>0.08</speed>
  <fix>3d</fix>
</trkpt>
<trkpt lat="40.0738772" lon="-105.2302824">
  <ele>1651.98</ele>
  <time>2026-08-27T18:26:42Z</time>
  <course>16.57</course>
  <speed>0.25</speed>
  <fix>3d</fix>
</trkpt>
<trkpt lat="40.0738774" lon="-105.2302831">
  <ele>1652.96</ele>
  <time>2026-08-27T18:26:42Z</time>
  <course>71.71</course>
  <speed>0.15</speed>
  <fix>3d</fix>
</trkpt>
<trkpt lat="40.0738773" lon="-105.2302818">
  <ele>1651.44</ele>
  <time>2026-08-27T18:26:42Z</time>
  <course>16.46</course>
  <speed>0.30016662039607267</speed>
  <fix>3d</fix>
</trkpt>
<trkpt lat="40.0738775" lon="-105.2302827">
  <ele>1652.28</ele>
  <time>2026-08-27T18:26:42Z</time>
  <course>79.44</course>
  <speed>0.22</speed>
  <fix>3d</fix>
</trkpt>
<trkpt lat="40.0738773" lon="-105.2302811">
  <ele>1650.97</ele>
  <time>2026-08-27T18:26:42Z</time>
  <course>15.97</course>
  <speed>0.340147027033899</speed>
  <fix>3d</fix>
</trkpt>
<trkpt lat="40.0738776" lon="-105.2302821">
  <ele>1651.73</ele>
  <time>2026-08-27T18:26:42Z</time>
  <course>82.77</course>
  <speed>0.28</speed>
  <fix>3d</fix>
</trkpt>
<trkpt lat="40.0738774" lon="-105.2302803">
  <ele>1650.54</ele>
  <time>2026-08-27T18:26:42Z</time>
  <course>15.34</course>
  <speed>0.3605551275463989</speed>
  <fix>3d</fix>
</trkpt>
<trkpt lat="40.0738777" lon="-105.2302814">
  <ele>1651.25</ele>
  <time>2026-08-27T18:26:42Z</time>
  <course>84.6</course>
  <speed>0.32</speed>
  <fix>3d</fix>
</trkpt>
<trkpt lat="40.0738774" lon="-105.2302795">
  <ele>1650.11</ele>
  <time>2026-08-27T18:26:42Z</time>
  <course>14.76</course>
  <speed>0.3905124837953327</speed>
  <fix>3d</fix>
</trkpt>
<trkpt lat="40.0738777" lon="-105.2302805">
  <ele>1650.81</ele>
  <time>2026-08-27T18:26:42Z</time>
  <course>85.86</course>
  <speed>0.35</speed>
  <fix>3d</fix>
</trkpt>
<trkpt lat="40.0738775" lon="-105.2302786">
  <ele>1649.7</ele>
  <time>2026-08-27T18:26:42Z</time>
  <course>14.3</course>
  <speed>0.41048751503547587</speed>
  <fix>3d</fix>
</trkpt>
<trkpt lat="40.0738778" lon="-105.2302797">
  <ele>1650.39</ele>
  <time>2026-08-27T18:26:42Z</time>
  <course>86.88</course>
  <speed>0.37</speed>
  <fix>3d</fix>
</trkpt>
<trkpt lat="40.0738775" lon="-105.2302776">
  <ele>1649.28</ele>
  <time>2026-08-27T18:26:42Z</time>
  <course>13.96</course>
  <speed>0.4204759208325728</speed>
  <fix>3d</fix>
</trkpt>
<trkpt lat="40.0738778" lon="-105.2302788">
  <ele>1649.97</ele>
  <time>2026-08-27T18:26:42Z</time>
  <course>87.81</course>
  <speed>0.39</speed>
  <fix>3d</fix>
</trkpt>
<trkpt lat="40.0738775" lon="-105.2302767">
  <ele>1648.87</ele>
  <time>2026-08-27T18:26:42Z</time>
  <course>13.72</course>
  <speed>0.4310452412450461</speed>
  <fix>3d</fix>
</trkpt>
<trkpt lat="40.0738778" lon="-105.2302778">
  <ele>1649.56</ele>
  <time>2026-08-27T18:26:42Z</time>
  <course>88.68</course>
  <speed>0.41</speed>
  <fix>3d</fix>
</trkpt>
<trkpt lat="40.0738775" lon="-105.2302756">
  <ele>1648.46</ele>
  <time>2026-08-27T18:26:42Z</time>
  <course>13.57</course>
  <speed>0.4509988913511872</speed>
  <fix>3d</fix>
</trkpt>
<trkpt lat="40.0738779" lon="-105.2302768">
  <ele>1649.14</ele>
  <time>2026-08-27T18:26:42Z</time>
  <course>89.51</course>
  <speed>0.42</speed>
  <fix>3d</fix>
</trkpt>
<trkpt lat="40.0738775" lon="-105.2302746">
  <ele>1648.06</ele>
  <time>2026-08-27T18:26:42Z</time>
  <course>13.48</course>
  <speed>0.4609772228646444</speed>
  <fix>3d</fix>
</trkpt>
<trkpt lat="40.0738779" lon="-105.2302759">
  <ele>1648.73</ele>
  <time>2026-08-27T18:26:42Z</time>
  <course>90.32</course>
  <speed>0.44</speed>
  <fix>3d</fix>
</trkpt>
<trkpt lat="40.0738776" lon="-105.2302735">
  <ele>1647.66</ele>
  <time>2026-08-27T18:26:42Z</time>
  <course>13.41</course>
  <speed>0.4609772228646444</speed>
  <fix>3d</fix>
</trkpt>
<trkpt lat="40.0738779" lon="-105.2302748">
  <ele>1648.31</ele>
  <time>2026-08-27T18:26:42Z</time>
  <course>91.1</course>
  <speed>0.45</speed>
  <fix>3d</fix>
</trkpt>
<trkpt lat="40.0738776" lon="-105.2302725">
  <ele>1647.27</ele>
  <time>2026-08-27T18:26:42Z</time>
  <course>13.37</course>
  <speed>0.48166378315169184</speed>
  <fix>3d</fix>
</trkpt>
<trkpt lat="40.0738779" lon="-105.2302737">
  <ele>1647.9</ele>
  <time>2026-08-27T18:26:42Z</time>
  <course>91.86</course>
  <speed>0.45</speed>
  <fix>3d</fix>
</trkpt>
<trkpt lat="40.0738776" lon="-105.2302713">
  <ele>1646.93</ele>
  <time>2026-08-27T18:26:42Z</time>
  <course>13.2</course>
  <speed>0.5015974481593781</speed>
  <fix>3d</fix>
</trkpt>
<trkpt lat="40.0738779" lon="-105.2302726">
  <ele>1647.52</ele>
  <time>2026-08-27T18:26:42Z</time>
  <course>92.69</course>
  <speed>0.47</speed>
  <fix>3d</fix>
</trkpt>
<trkpt lat="40.0738776" lon="-105.2302701">
  <ele>1646.64</ele>
  <time>2026-08-27T18:26:42Z</time>
  <course>12.89</course>
  <speed>0.5223983154643591</speed>
  <fix>3d</fix>
</trkpt>
<trkpt lat="40.0738778" lon="-105.2302714">
  <ele>1647.17</ele>
  <time>2026-08-27T18:26:42Z</time>
  <course>93.5</course>
  <speed>0.49</speed>
  <fix>3d</fix>
</trkpt>
<trkpt lat="40.0738775" lon="-105.2302689">
  <ele>1646.37</ele>
  <time>2026-08-27T18:26:42Z</time>
  <course>12.53</course>
  <speed>0.5333854141237835</speed>
  <fix>3d</fix>
</trkpt>
<trkpt lat="40.0738778" lon="-105.2302703">
  <ele>1646.87</ele>
  <time>2026-08-27T18:26:42Z</time>
  <course>94.23</course>
  <speed>0.51</speed>
  <fix>3d</fix>
</trkpt>
<trkpt lat="40.0738774" lon="-105.2302677">
  <ele>1646.11</ele>
  <time>2026-08-27T18:26:42Z</time>
  <course>12.23</course>
  <speed>0.5333854141237835</speed>
  <fix>3d</fix>
</trkpt>
<trkpt lat="40.0738777" lon="-105.230269">
  <ele>1646.59</ele>
  <time>2026-08-27T18:26:42Z</time>
  <course>94.95</course>
  <speed>0.52</speed>
  <fix>3d</fix>
</trkpt>
<trkpt lat="40.0738774" lon="-105.2302664">
  <ele>1645.86</ele>
  <time>2026-08-27T18:26:42Z</time>
  <course>12.02</course>
  <speed>0.5433231082882449</speed>
  <fix>3d</fix>
</trkpt>
<trkpt lat="40.0738776" lon="-105.2302679">
  <ele>1646.32</ele>
  <time>2026-08-27T18:26:42Z</time>
  <course>95.68</course>
  <speed>0.52</speed>
  <fix>3d</fix>
</trkpt>
<trkpt lat="40.0738773" lon="-105.2302652">
  <ele>1645.61</ele>
  <time>2026-08-27T18:26:42Z</time>
  <course>11.9</course>
  <speed>0.5445181356024793</speed>
  <fix>3d</fix>
</trkpt>
<trkpt lat="40.0738775" lon="-105.2302666">
  <ele>1646.06</ele>
  <time>2026-08-27T18:26:42Z</time>
  <course>96.44</course>
  <speed>0.53</speed>
  <fix>3d</fix>
</trkpt>
<trkpt lat="40.0738772" lon="-105.2302639">
  <ele>1645.37</ele>
  <time>2026-08-27T18:26:42Z</time>
  <course>11.82</course>
  <speed>0.5445181356024793</speed>
  <fix>3d</fix>
</trkpt>
<trkpt lat="40.0738774" lon="-105.2302654">
  <ele>1645.8</ele>
  <time>2026-08-27T18:26:42Z</time>
  <course>97.21</course>
  <speed>0.53</speed>
  <fix>3d</fix>
</trkpt>
<trkpt lat="40.073877" lon="-105.2302627">
  <ele>1645.13</ele>
  <time>2026-08-27T18:26:42Z</time>
  <course>11.79</course>
  <speed>0.5458937625582473</speed>
  <fix>3d</fix>
</trkpt>
<trkpt lat="40.0738772" lon="-105.2302641">
  <ele>1645.54</ele>
  <time>2026-08-27T18:26:42Z</time>
  <course>97.99</course>
  <speed>0.53</speed>
  <fix>3d</fix>
</trkpt>
<trkpt lat="40.0738769" lon="-105.2302614">
  <ele>1644.9</ele>
  <time>2026-08-27T18:26:42Z</time>
  <course>11.79</course>
  <speed>0.5474486277268398</speed>
  <fix>3d</fix>
</trkpt>
<trkpt lat="40.0738771" lon="-105.2302628">
  <ele>1645.3</ele>
  <time>2026-08-27T18:26:42Z</time>
  <course>98.78</course>
  <speed>0.53</speed>
  <fix>3d</fix>
</trkpt>
<trkpt lat="40.0738767" lon="-105.2302602">
  <ele>1644.67</ele>
  <time>2026-08-27T18:26:42Z</time>
  <course>11.79</course>
  <speed>0.5474486277268398</speed>
  <fix>3d</fix>
</trkpt>
<trkpt lat="40.0738769" lon="-105.2302616">
  <ele>1645.05</ele>
  <time>2026-08-27T18:26:42Z</time>
  <course>99.57</course>
  <speed>0.53</speed>
  <fix>3d</fix>
</trkpt>
<trkpt lat="40.0738766" lon="-105.2302589">
  <ele>1644.45</ele>
  <time>2026-08-27T18:26:42Z</time>
  <course>11.79</course>
  <speed>0.5491812087098392</speed>
  <fix>3d</fix>
</trkpt>
<trkpt lat="40.0738767" lon="-105.2302603">
  <ele>1644.81</ele>
  <time>2026-08-27T18:26:42Z</time>
  <course>100.37</course>
  <speed>0.53</speed>
  <fix>3d</fix>
</trkpt>
<trkpt lat="40.0738764" lon="-105.2302577">
  <ele>1644.23</ele>
  <time>2026-08-27T18:26:42Z</time>
  <course>11.79</course>
  <speed>0.539351462406472</speed>
  <fix>3d</fix>
</trkpt>
<trkpt lat="40.0738766" lon="-105.2302592">
  <ele>1644.58</ele>
  <time>2026-08-27T18:26:42Z</time>
  <course>101.16</course>
  <speed>0.53</speed>
  <fix>3d</fix>
</trkpt>
<trkpt lat="40.0738762" lon="-105.2302565">
  <ele>1644.02</ele>
  <time>2026-08-27T18:26:42Z</time>
  <course>11.79</course>
  <speed>0.5412947441089743</speed>
  <fix>3d</fix>
</trkpt>
<trkpt lat="40.0738763" lon="-105.2302579">
  <ele>1644.36</ele>
  <time>2026-08-27T18:26:42Z</time>
  <course>101.95</course>
  <speed>0.53</speed>
  <fix>3d</fix>
</trkpt>
<trkpt lat="40.073876" lon="-105.2302553">
  <ele>1643.82</ele>
  <time>2026-08-27T18:26:42Z</time>
  <course>11.81</course>
  <speed>0.5412947441089743</speed>
  <fix>3d</fix>
</trkpt>
<trkpt lat="40.0738762" lon="-105.2302566">
  <ele>1644.14</ele>
  <time>2026-08-27T18:26:42Z</time>
  <course>102.73</course>
  <speed>0.52</speed>
  <fix>3d</fix>
</trkpt>
<trkpt lat="40.0738758" lon="-105.2302541">
  <ele>1643.62</ele>
  <time>2026-08-27T18:26:42Z</time>
  <course>11.81</course>
  <speed>0.5336665625650534</speed>
  <fix>3d</fix>
</trkpt>
<trkpt lat="40.073876" lon="-105.2302555">
  <ele>1643.93</ele>
  <time>2026-08-27T18:26:42Z</time>
  <course>103.52</course>
  <speed>0.52</speed>
  <fix>3d</fix>
</trkpt>
<trkpt lat="40.0738755" lon="-105.2302529">
  <ele>1643.43</ele>
  <time>2026-08-27T18:26:42Z</time>
  <course>11.8</course>
  <speed>0.5239274758971895</speed>
  <fix>3d</fix>
</trkpt>
<trkpt lat="40.0738757" lon="-105.2302543">
  <ele>1643.73</ele>
  <time>2026-08-27T18:26:42Z</time>
  <course>104.3</course>
  <speed>0.51</speed>
  <fix>3d</fix>
</trkpt>
<trkpt lat="40.0738753" lon="-105.2302517">
  <ele>1643.24</ele>
  <time>2026-08-27T18:26:42Z</time>
  <course>11.82</course>
  <speed>0.5239274758971895</speed>
  <fix>3d</fix>
</trkpt>
<trkpt lat="40.0738755" lon="-105.2302531">
  <ele>1643.53</ele>
  <time>2026-08-27T18:26:42Z</time>
  <course>105.08</course>
  <speed>0.51</speed>
  <fix>3d</fix>
</trkpt>
<trkpt lat="40.0738751" lon="-105.2302506">
  <ele>1643.07</ele>
  <time>2026-08-27T18:26:42Z</time>
  <course>11.85</course>
  <speed>0.5166236541235796</speed>
  <fix>3d</fix>
</trkpt>
<trkpt lat="40.0738753" lon="-105.230252">
  <ele>1643.34</ele>
  <time>2026-08-27T18:26:42Z</time>
  <course>105.88</course>
  <speed>0.5</speed>
  <fix>3d</fix>
</trkpt>
<trkpt lat="40.0738748" lon="-105.2302495">
  <ele>1642.9</ele>
  <time>2026-08-27T18:26:42Z</time>
  <course>11.87</course>
  <speed>0.5069516742254631</speed>
  <fix>3d</fix>
</trkpt>
<trkpt lat="40.073875" lon="-105.2302509">
  <ele>1643.15</ele>
  <time>2026-08-27T18:26:42Z</time>
  <course>106.7</course>
  <speed>0.49</speed>
  <fix>3d</fix>
</trkpt>
<trkpt lat="40.0738745" lon="-105.2302484">
  <ele>1642.74</ele>
  <time>2026-08-27T18:26:42Z</time>
  <course>11.92</course>
  <speed>0.5</speed>
  <fix>3d</fix>
</trkpt>
<trkpt lat="40.0738748" lon="-105.2302498">
  <ele>1642.98</ele>
  <time>2026-08-27T18:26:42Z</time>
  <course>107.53</course>
  <speed>0.48</speed>
  <fix>3d</fix>
</trkpt>
<trkpt lat="40.0738743" lon="-105.2302473">
  <ele>1642.58</ele>
  <time>2026-08-27T18:26:42Z</time>
  <course>12.02</course>
  <speed>0.49040799340956914</speed>
  <fix>3d</fix>
</trkpt>
<trkpt lat="40.0738745" lon="-105.2302487">
  <ele>1642.81</ele>
  <time>2026-08-27T18:26:42Z</time>
  <course>108.34</course>
  <speed>0.47</speed>
  <fix>3d</fix>
</trkpt>
<trkpt lat="40.073874" lon="-105.2302463">
  <ele>1642.43</ele>
  <time>2026-08-27T18:26:42Z</time>
  <course>12.06</course>
  <speed>0.4808326112068523</speed>
  <fix>3d</fix>
</trkpt>
<trkpt lat="40.0738742" lon="-105.2302476">
  <ele>1642.64</ele>
  <time>2026-08-27T18:26:42Z</time>
  <course>109.12</course>
  <speed>0.47</speed>
  <fix>3d</fix>
</trkpt>
<trkpt lat="40.0738737" lon="-105.2302453">
  <ele>1642.28</ele>
  <time>2026-08-27T18:26:42Z</time>
  <course>12.09</course>
  <speed>0.4838388161361178</speed>
  <fix>3d</fix>
</trkpt>
<trkpt lat="40.0738739" lon="-105.2302466">
  <ele>1642.49</ele>
  <time>2026-08-27T18:26:42Z</time>
  <course>109.86</course>
  <speed>0.46</speed>
  <fix>3d</fix>
</trkpt>
<trkpt lat="40.0738734" lon="-105.2302443">
  <ele>1642.13</ele>
  <time>2026-08-27T18:26:42Z</time>
  <course>12.08</course>
  <speed>0.4743416490252569</speed>
  <fix>3d</fix>
</trkpt>
<trkpt lat="40.0738737" lon="-105.2302455">
  <ele>1642.33</ele>
  <time>2026-08-27T18:26:42Z</time>
  <course>110.56</course>
  <speed>0.45</speed>
  <fix>3d</fix>
</trkpt>
<trkpt lat="40.0738731" lon="-105.2302433">
  <ele>1641.98</ele>
  <time>2026-08-27T18:26:42Z</time>
  <course>12.09</course>
  <speed>0.468187996428785</speed>
  <fix>3d</fix>
</trkpt>
<trkpt lat="40.0738734" lon="-105.2302445">
  <ele>1642.17</ele>
  <time>2026-08-27T18:26:42Z</time>
  <course>111.23</course>
  <speed>0.45</speed>
  <fix>3d</fix>
</trkpt>
<trkpt lat="40.0738728" lon="-105.2302423">
  <ele>1641.83</ele>
  <time>2026-08-27T18:26:42Z</time>
  <course>12.08</course>
  <speed>0.468187996428785</speed>
  <fix>3d</fix>
</trkpt>
<trkpt lat="40.0738731" lon="-105.2302436">
  <ele>1642.02</ele>
  <time>2026-08-27T18:26:42Z</time>
  <course>111.89</course>
  <speed>0.44</speed>
  <fix>3d</fix>
</trkpt>
<trkpt lat="40.0738725" lon="-105.2302413">
  <ele>1641.68</ele>
  <time>2026-08-27T18:26:42Z</time>
  <course>12.08</course>
  <speed>0.45880278987817846</speed>
  <fix>3d</fix>
</trkpt>
<trkpt lat="40.0738728" lon="-105.2302426">
  <ele>1641.87</ele>
  <time>2026-08-27T18:26:42Z</time>
  <course>112.53</course>
  <speed>0.44</speed>
  <fix>3d</fix>
</trkpt>
<trkpt lat="40.0738722" lon="-105.2302404">
  <ele>1641.48</ele>
  <time>2026-08-27T18:26:42Z</time>
  <course>12.05</course>
  <speed>0.40311288741492746</speed>
  <fix>3d</fix>
</trkpt>
<trkpt lat="40.0738725" lon="-105.2302417">
  <ele>1641.71</ele>
  <time>2026-08-27T18:26:42Z</time>
  <course>113.16</course>
  <speed>0.43</speed>
  <fix>3d</fix>
</trkpt>
<trkpt lat="40.0738719" lon="-105.2302398">
  <ele>1640.97</ele>
  <time>2026-08-27T18:26:42Z</time>
  <course>12.91</course>
  <speed>0.304138126514911</speed>
  <fix>3d</fix>
</trkpt>
<trkpt lat="40.0738722" lon="-105.2302408">
  <ele>1641.49</ele>
  <time>2026-08-27T18:26:42Z</time>
  <course>115.9</course>
  <speed>0.38</speed>
  <fix>3d</fix>
</trkpt>
<trkpt lat="40.0738717" lon="-105.2302392">
  <ele>1640.21</ele>
  <time>2026-08-27T18:26:42Z</time>
  <course>14.21</course>
  <speed>0.25553864678361277</speed>
  <fix>3d</fix>
</trkpt>
<trkpt lat="40.0738719" lon="-105.2302401">
  <ele>1641.04</ele>
  <time>2026-08-27T18:26:42Z</time>
  <course>121.97</course>
  <speed>0.3</speed>
  <fix>3d</fix>
</trkpt>
<trkpt lat="40.0738714" lon="-105.2302388">
  <ele>1639.3</ele>
  <time>2026-08-27T18:26:42Z</time>
  <course>13.8</course>
  <speed>0.23021728866442676</speed>
  <fix>3d</fix>
</trkpt>
<trkpt lat="40.0738716" lon="-105.2302395">
  <ele>1640.32</ele>
  <time>2026-08-27T18:26:42Z</time>
  <course>127.69</course>
  <speed>0.25</speed>
  <fix>3d</fix>
</trkpt>
<trkpt lat="40.0738712" lon="-105.2302385">
  <ele>1638.28</ele>
  <time>2026-08-27T18:26:42Z</time>
  <course>12.15</course>
  <speed>0.15556349186104046</speed>
  <fix>3d</fix>
</trkpt>
<trkpt lat="40.0738713" lon="-105.2302391">
  <ele>1639.42</ele>
  <time>2026-08-27T18:26:42Z</time>
  <course>133.3</course>
  <speed>0.22</speed>
  <fix>3d</fix>
</trkpt>
<trkpt lat="40.0738709" lon="-105.2302383">
  <ele>1637.17</ele>
  <time>2026-08-27T18:26:42Z</time>
  <course>13.09</course>
  <speed>0.130384048104053</speed>
  <fix>3d</fix>
</trkpt>
<trkpt lat="40.073871" lon="-105.2302388">
  <ele>1638.4</ele>
  <time>2026-08-27T18:26:42Z</time>
  <course>145.62</course>
  <speed>0.17</speed>
  <fix>3d</fix>
</trkpt>
<trkpt lat="40.0738707" lon="-105.2302383">
  <ele>1636.02</ele>
  <time>2026-08-27T18:26:42Z</time>
  <course>14.11</course>
  <speed>0.12083045973594572</speed>
  <fix>3d</fix>
</trkpt>
<trkpt lat="40.0738707" lon="-105.2302386">
  <ele>1637.31</ele>
  <time>2026-08-27T18:26:42Z</time>
  <course>161.72</course>
  <speed>0.15</speed>
  <fix>3d</fix>
</trkpt>
<trkpt lat="40.0738704" lon="-105.2302382">
  <ele>1634.82</ele>
  <time>2026-08-27T18:26:42Z</time>
  <course>15.02</course>
  <speed>0.12529964086141668</speed>
  <fix>3d</fix>
</trkpt>
<trkpt lat="40.0738705" lon="-105.2302385">
  <ele>1636.15</ele>
  <time>2026-08-27T18:26:42Z</time>
  <course>169.93</course>
  <speed>0.14</speed>
  <fix>3d</fix>
</trkpt>
<trkpt lat="40.0738702" lon="-105.2302381">
  <ele>1633.6</ele>
  <time>2026-08-27T18:26:42Z</time>
  <course>15.2</course>
  <speed>0.1341640786499874</speed>
  <fix>3d</fix>
</trkpt>
<trkpt lat="40.0738702" lon="-105.2302385">
  <ele>1634.97</ele>
  <time>2026-08-27T18:26:42Z</time>
  <course>171.04</course>
  <speed>0.13</speed>
  <fix>3d</fix>
</trkpt>
<trkpt lat="40.0738699" lon="-105.230238">
  <ele>1632.36</ele>
  <time>2026-08-27T18:26:42Z</time>
  <course>15.09</course>
  <speed>0.13892443989449804</speed>
  <fix>3d</fix>
</trkpt>
<trkpt lat="40.07387" lon="-105.2302385">
  <ele>1633.76</ele>
  <time>2026-08-27T18:26:42Z</time>
  <course>168.55</course>
  <speed>0.13</speed>
  <fix>3d</fix>
</trkpt>
<trkpt lat="40.0738697" lon="-105.2302379">
  <ele>1631.12</ele>
  <time>2026-08-27T18:26:42Z</time>
  <course>14.95</course>
  <speed>0.13892443989449804</speed>
  <fix>3d</fix>
</trkpt>
<trkpt lat="40.0738698" lon="-105.2302384">
  <ele>1632.53</ele>
  <time>2026-08-27T18:26:42Z</time>
  <course>166.02</course>
  <speed>0.13</speed>
  <fix>3d</fix>
</trkpt>
<trkpt lat="40.0738694" lon="-105.2302378">
  <ele>1629.88</ele>
  <time>2026-08-27T18:26:42Z</time>
  <course>14.82</course>
  <speed>0.15264337522473748</speed>
  <fix>3d</fix>
</trkpt>
<trkpt lat="40.0738695" lon="-105.2302383">
  <ele>1631.3</ele>
  <time>2026-08-27T18:26:42Z</time>
  <course>163.55</course>
  <speed>0.12</speed>
  <fix>3d</fix>
</trkpt>
<trkpt lat="40.0738692" lon="-105.2302377">
  <ele>1628.63</ele>
  <time>2026-08-27T18:26:42Z</time>
  <course>14.73</course>
  <speed>0.15264337522473748</speed>
  <fix>3d</fix>
</trkpt>
<trkpt lat="40.0738694" lon="-105.2302382">
  <ele>1630.06</ele>
  <time>2026-08-27T18:26:42Z</time>
  <course>161.01</course>
  <speed>0.12</speed>
  <fix>3d</fix>
</trkpt>
<trkpt lat="40.0738689" lon="-105.2302376">
  <ele>1627.39</ele>
  <time>2026-08-27T18:26:42Z</time>
  <course>14.65</course>
  <speed>0.15811388300841897</speed>
  <fix>3d</fix>
</trkpt>
<trkpt lat="40.0738692" lon="-105.2302381">
  <ele>1628.83</ele>
  <time>2026-08-27T18:26:42Z</time>
  <course>158.44</course>
  <speed>0.12</speed>
  <fix>3d</fix>
</trkpt>
<trkpt lat="40.0738687" lon="-105.2302375">
  <ele>1626.14</ele>
  <time>2026-08-27T18:26:42Z</time>
  <course>14.54</course>
  <speed>0.15811388300841897</speed>
  <fix>3d</fix>
</trkpt>
<trkpt lat="40.073869" lon="-105.230238">
  <ele>1627.59</ele>
  <time>2026-08-27T18:26:42Z</time>
  <course>155.77</course>
  <speed>0.12</speed>
  <fix>3d</fix>
</trkpt>
<trkpt lat="40.0738685" lon="-105.2302374">
  <ele>1624.9</ele>
  <time>2026-08-27T18:26:42Z</time>
  <course>14.44</course>
  <speed>0.15811388300841897</speed>
  <fix>3d</fix>
</trkpt>
<trkpt lat="40.0738688" lon="-105.2302378">
  <ele>1626.36</ele>
  <time>2026-08-27T18:26:42Z</time>
  <course>153.1</course>
  <speed>0.12</speed>
  <fix>3d</fix>
</trkpt>
<trkpt lat="40.0738683" lon="-105.2302372">
  <ele>1623.67</ele>
  <time>2026-08-27T18:26:42Z</time>
  <course>14.35</course>
  <speed>0.16401219466856726</speed>
  <fix>3d</fix>
</trkpt>
<trkpt lat="40.0738686" lon="-105.2302377">
  <ele>1625.12</ele>
  <time>2026-08-27T18:26:42Z</time>
  <course>150.56</course>
  <speed>0.12</speed>
  <fix>3d</fix>
</trkpt>
<trkpt lat="40.0738681" lon="-105.2302371">
  <ele>1622.44</ele>
  <time>2026-08-27T18:26:42Z</time>
  <course>14.3</course>
  <speed>0.16401219466856726</speed>
  <fix>3d</fix>
</trkpt>
<trkpt lat="40.0738683" lon="-105.2302376">
  <ele>1623.89</ele>
  <time>2026-08-27T18:26:42Z</time>
  <course>148.13</course>
  <speed>0.11</speed>
  <fix>3d</fix>
</trkpt>
<trkpt lat="40.0738679" lon="-105.2302369">
  <ele>1621.19</ele>
  <time>2026-08-27T18:26:42Z</time>
  <course>14.23</course>
  <speed>0.16401219466856726</speed>
  <fix>3d</fix>
</trkpt>
<trkpt lat="40.0738682" lon="-105.2302374">
  <ele>1622.65</ele>
  <time>2026-08-27T18:26:42Z</time>
  <course>145.74</course>
  <speed>0.11</speed>
  <fix>3d</fix>
</trkpt>
<trkpt lat="40.0738677" lon="-105.2302367">
  <ele>1619.95</ele>
  <time>2026-08-27T18:26:42Z</time>
  <course>14.17</course>
  <speed>0.16401219466856726</speed>
  <fix>3d</fix>
</trkpt>
<trkpt lat="40.073868" lon="-105.2302373">
  <ele>1621.42</ele>
  <time>2026-08-27T18:26:42Z</time>
  <course>143.36</course>
  <speed>0.11</speed>
  <fix>3d</fix>
</trkpt>
<trkpt lat="40.0738675" lon="-105.2302366">
  <ele>1618.7</ele>
  <time>2026-08-27T18:26:42Z</time>
  <course>14.11</course>
  <speed>0.17029386365926402</speed>
  <fix>3d</fix>
</trkpt>
<trkpt lat="40.0738678" lon="-105.2302371">
  <ele>1620.19</ele>
  <time>2026-08-27T18:26:42Z</time>
  <course>141.09</course>
  <speed>0.11</speed>
  <fix>3d</fix>
</trkpt>
<trkpt lat="40.0738674" lon="-105.2302364">
  <ele>1617.46</ele>
  <time>2026-08-27T18:26:42Z</time>
  <course>14.06</course>
  <speed>0.16278820596099705</speed>
  <fix>3d</fix>
</trkpt>
<trkpt lat="40.0738676" lon="-105.2302369">
  <ele>1618.96</ele>
  <time>2026-08-27T18:26:42Z</time>
  <course>139.02</course>
  <speed>0.11</speed>
  <fix>3d</fix>
</trkpt>
<trkpt lat="40.0738672" lon="-105.2302362">
  <ele>1616.21</ele>
  <time>2026-08-27T18:26:42Z</time>
  <course>13.98</course>
  <speed>0.16278820596099705</speed>
  <fix>3d</fix>
</trkpt>
<trkpt lat="40.0738675" lon="-105.2302368">
  <ele>1617.72</ele>
  <time>2026-08-27T18:26:42Z</time>
  <course>137.06</course>
  <speed>0.11</speed>
  <fix>3d</fix>
</trkpt>
<trkpt lat="40.073867" lon="-105.230236">
  <ele>1614.97</ele>
  <time>2026-08-27T18:26:42Z</time>
  <course>13.92</course>
  <speed>0.16278820596099705</speed>
  <fix>3d</fix>
</trkpt>
<trkpt lat="40.0738674" lon="-105.2302365">
  <ele>1616.49</ele>
  <time>2026-08-27T18:26:42Z</time>
  <course>135.17</course>
  <speed>0.12</speed>
  <fix>3d</fix>
</trkpt>
<trkpt lat="40.0738669" lon="-105.2302358">
  <ele>1613.73</ele>
  <time>2026-08-27T18:26:42Z</time>
  <course>13.87</course>
  <speed>0.16278820596099705</speed>
  <fix>3d</fix>
</trkpt>
<trkpt lat="40.0738672" lon="-105.2302364">
  <ele>1615.26</ele>
  <time>2026-08-27T18:26:42Z</time>
  <course>133.44</course>
  <speed>0.12</speed>
  <fix>3d</fix>
</trkpt>
<trkpt lat="40.0738667" lon="-105.2302356">
  <ele>1612.49</ele>
  <time>2026-08-27T18:26:42Z</time>
  <course>13.84</course>
  <speed>0.16278820596099705</speed>
  <fix>3d</fix>
</trkpt>
<trkpt lat="40.0738671" lon="-105.2302362">
  <ele>1614.03</ele>
  <time>2026-08-27T18:26:42Z</time>
  <course>131.91</course>
  <speed>0.12</speed>
  <fix>3d</fix>
</trkpt>
<trkpt lat="40.0738666" lon="-105.2302354">
  <ele>1611.24</ele>
  <time>2026-08-27T18:26:42Z</time>
  <course>13.79</course>
  <speed>0.1697056274847714</speed>
  <fix>3d</fix>
</trkpt>
<trkpt lat="40.0738669" lon="-105.2302359">
  <ele>1612.8</ele>
  <time>2026-08-27T18:26:42Z</time>
  <course>130.5</course>
  <speed>0.12</speed>
  <fix>3d</fix>
</trkpt>
<trkpt lat="40.0738664" lon="-105.2302352">
  <ele>1610.01</ele>
  <time>2026-08-27T18:26:42Z</time>
  <course>13.74</course>
  <speed>0.16278820596099705</speed>
  <fix>3d</fix>
</trkpt>
<trkpt lat="40.0738668" lon="-105.2302357">
  <ele>1611.58</ele>
  <time>2026-08-27T18:26:42Z</time>
  <course>129.19</course>
  <speed>0.12</speed>
  <fix>3d</fix>
</trkpt>
<trkpt lat="40.0738663" lon="-105.230235">
  <ele>1608.77</ele>
  <time>2026-08-27T18:26:42Z</time>
  <course>13.71</course>
  <speed>0.16278820596099705</speed>
  <fix>3d</fix>
</trkpt>
<trkpt lat="40.0738666" lon="-105.2302354">
  <ele>1610.35</ele>
  <time>2026-08-27T18:26:42Z</time>
  <course>128.02</course>
  <speed>0.12</speed>
  <fix>3d</fix>
</trkpt>
<trkpt lat="40.0738661" lon="-105.2302347">
  <ele>1607.53</ele>
  <time>2026-08-27T18:26:42Z</time>
  <course>13.68</course>
  <speed>0.16278820596099705</speed>
  <fix>3d</fix>
</trkpt>
<trkpt lat="40.0738664" lon="-105.2302352">
  <ele>1609.12</ele>
  <time>2026-08-27T18:26:42Z</time>
  <course>126.94</course>
  <speed>0.12</speed>
  <fix>3d</fix>
</trkpt>
<trkpt lat="40.073866" lon="-105.2302345">
  <ele>1606.29</ele>
  <time>2026-08-27T18:26:42Z</time>
  <course>13.64</course>
  <speed>0.16278820596099705</speed>
  <fix>3d</fix>
</trkpt>
<trkpt lat="40.0738663" lon="-105.2302349">
  <ele>1607.89</ele>
  <time>2026-08-27T18:26:42Z</time>
  <course>125.97</course>
  <speed>0.12</speed>
  <fix>3d</fix>
</trkpt>
<trkpt lat="40.0738659" lon="-105.2302342">
  <ele>1605.06</ele>
  <time>2026-08-27T18:26:42Z</time>
  <course>13.6</course>
  <speed>0.16278820596099705</speed>
  <fix>3d</fix>
</trkpt>
<trkpt lat="40.0738662" lon="-105.2302347">
  <ele>1606.66</ele>
  <time>2026-08-27T18:26:42Z</time>
  <course>125.13</course>
  <speed>0.13</speed>
  <fix>3d</fix>
</trkpt>
<trkpt lat="40.0738657" lon="-105.230234">
  <ele>1603.83</ele>
  <time>2026-08-27T18:26:42Z</time>
  <course>13.57</course>
  <speed>0.17029386365926402</speed>
  <fix>3d</fix>
</trkpt>
<trkpt lat="40.073866" lon="-105.2302345">
  <ele>1605.43</ele>
  <time>2026-08-27T18:26:42Z</time>
  <course>124.41</course>
  <speed>0.13</speed>
  <fix>3d</fix>
</trkpt>
<trkpt lat="40.0738656" lon="-105.2302337">
  <ele>1602.6</ele>
  <time>2026-08-27T18:26:42Z</time>
  <course>13.53</course>
  <speed>0.17029386365926402</speed>
  <fix>3d</fix>
</trkpt>
<trkpt lat="40.0738659" lon="-105.2302342">
  <ele>1604.2</ele>
  <time>2026-08-27T18:26:42Z</time>
  <course>123.8</course>
  <speed>0.13</speed>
  <fix>3d</fix>
</trkpt>
<trkpt lat="40.0738655" lon="-105.2302335">
  <ele>1601.37</ele>
  <time>2026-08-27T18:26:42Z</time>
  <course>13.5</course>
  <speed>0.17029386365926402</speed>
  <fix>3d</fix>
</trkpt>
<trkpt lat="40.0738658" lon="-105.230234">
  <ele>1602.98</ele>
  <time>2026-08-27T18:26:42Z</time>
  <course>123.31</course>
  <speed>0.13</speed>
  <fix>3d</fix>
</trkpt>
<trkpt lat="40.0738653" lon="-105.2302332">
  <ele>1600.15</ele>
  <time>2026-08-27T18:26:42Z</time>
  <course>13.46</course>
  <speed>0.16401219466856726</speed>
  <fix>3d</fix>
</trkpt>
<trkpt lat="40.0738657" lon="-105.2302337">
  <ele>1601.75</ele>
  <time>2026-08-27T18:26:42Z</time>
  <course>122.89</course>
  <speed>0.13</speed>
  <fix>3d</fix>
</trkpt>
<trkpt lat="40.0738652" lon="-105.2302329">
  <ele>1598.93</ele>
  <time>2026-08-27T18:26:42Z</time>
  <course>13.43</course>
  <speed>0.16401219466856726</speed>
  <fix>3d</fix>
</trkpt>
<trkpt lat="40.0738655" lon="-105.2302334">
  <ele>1600.52</ele>
  <time>2026-08-27T18:26:42Z</time>
  <course>122.55</course>
  <speed>0.13</speed>
  <fix>3d</fix>
</trkpt>
<trkpt lat="40.0738651" lon="-105.2302327">
  <ele>1597.71</ele>
  <time>2026-08-27T18:26:42Z</time>
  <course>13.4</course>
  <speed>0.16401219466856726</speed>
  <fix>3d</fix>
</trkpt>
<trkpt lat="40.0738654" lon="-105.2302331">
  <ele>1599.3</ele>
  <time>2026-08-27T18:26:42Z</time>
  <course>122.29</course>
  <speed>0.13</speed>
  <fix>3d</fix>
</trkpt>
<trkpt lat="40.0738649" lon="-105.2302324">
  <ele>1596.49</ele>
  <time>2026-08-27T18:26:42Z</time>
  <course>13.38</course>
  <speed>0.16401219466856726</speed>
  <fix>3d</fix>
</trkpt>
<trkpt lat="40.0738652" lon="-105.2302329">
  <ele>1598.07</ele>
  <time>2026-08-27T18:26:42Z</time>
  <course>122.12</course>
  <speed>0.14</speed>
  <fix>3d</fix>
</trkpt>
<trkpt lat="40.0738648" lon="-105.2302321">
  <ele>1595.25</ele>
  <time>2026-08-27T18:26:42Z</time>
  <course>13.35</course>
  <speed>0.16401219466856726</speed>
  <fix>3d</fix>
</trkpt>
<trkpt lat="40.0738651" lon="-105.2302326">
  <ele>1596.84</ele>
  <time>2026-08-27T18:26:42Z</time>
  <course>121.98</course>
  <speed>0.14</speed>
  <fix>3d</fix>
</trkpt>
<trkpt lat="40.0738647" lon="-105.2302318">
  <ele>1594.02</ele>
  <time>2026-08-27T18:26:42Z</time>
  <course>13.32</course>
  <speed>0.16401219466856726</speed>
  <fix>3d</fix>
</trkpt>
<trkpt lat="40.073865" lon="-105.2302323">
  <ele>1595.61</ele>
  <time>2026-08-27T18:26:42Z</time>
  <course>121.88</course>
  <speed>0.14</speed>
  <fix>3d</fix>
</trkpt>
<trkpt lat="40.0738645" lon="-105.2302315">
  <ele>1592.79</ele>
  <time>2026-08-27T18:26:42Z</time>
  <course>13.29</course>
  <speed>0.17204650534085253</speed>
  <fix>3d</fix>
</trkpt>
<trkpt lat="40.0738648" lon="-105.230232">
  <ele>1594.39</ele>
  <time>2026-08-27T18:26:42Z</time>
  <course>121.86</course>
  <speed>0.14</speed>
  <fix>3d</fix>
</trkpt>
<trkpt lat="40.0738644" lon="-105.2302313">
  <ele>1591.56</ele>
  <time>2026-08-27T18:26:42Z</time>
  <course>13.27</course>
  <speed>0.17204650534085253</speed>
  <fix>3d</fix>
</trkpt>
<trkpt lat="40.0738647" lon="-105.2302317">
  <ele>1593.16</ele>
  <time>2026-08-27T18:26:42Z</time>
  <course>121.91</course>
  <speed>0.14</speed>
  <fix>3d</fix>
</trkpt>
<trkpt lat="40.0738643" lon="-105.230231">
  <ele>1590.34</ele>
  <time>2026-08-27T18:26:42Z</time>
  <course>13.24</course>
  <speed>0.17204650534085253</speed>
  <fix>3d</fix>
</trkpt>
<trkpt lat="40.0738646" lon="-105.2302314">
  <ele>1591.93</ele>
  <time>2026-08-27T18:26:42Z</time>
  <course>121.96</course>
  <speed>0.14</speed>
  <fix>3d</fix>
</trkpt>
<trkpt lat="40.0738641" lon="-105.2302307">
  <ele>1589.11</ele>
  <time>2026-08-27T18:26:42Z</time>
  <course>13.22</course>
  <speed>0.17204650534085253</speed>
  <fix>3d</fix>
</trkpt>
<trkpt lat="40.0738644" lon="-105.2302311">
  <ele>1590.7</ele>
  <time>2026-08-27T18:26:42Z</time>
  <course>122.05</course>
  <speed>0.15</speed>
  <fix>3d</fix>
</trkpt>
<trkpt lat="40.073864" lon="-105.2302304">
  <ele>1587.88</ele>
  <time>2026-08-27T18:26:42Z</time>
  <course>13.19</course>
  <speed>0.17204650534085253</speed>
  <fix>3d</fix>
</trkpt>
<trkpt lat="40.0738643" lon="-105.2302308">
  <ele>1589.47</ele>
  <time>2026-08-27T18:26:42Z</time>
  <course>122.18</course>
  <speed>0.15</speed>
  <fix>3d</fix>
</trkpt>
<trkpt lat="40.0738638" lon="-105.2302301">
  <ele>1586.64</ele>
  <time>2026-08-27T18:26:42Z</time>
  <course>13.17</course>
  <speed>0.17204650534085253</speed>
  <fix>3d</fix>
</trkpt>
<trkpt lat="40.0738642" lon="-105.2302305">
  <ele>1588.25</ele>
  <time>2026-08-27T18:26:42Z</time>
  <course>122.37</course>
  <speed>0.15</speed>
  <fix>3d</fix>
</trkpt>
<trkpt lat="40.0738637" lon="-105.2302297">
  <ele>1585.42</ele>
  <time>2026-08-27T18:26:42Z</time>
  <course>13.15</course>
  <speed>0.17204650534085253</speed>
  <fix>3d</fix>
</trkpt>
<trkpt lat="40.073864" lon="-105.2302302">
  <ele>1587.02</ele>
  <time>2026-08-27T18:26:42Z</time>
  <course>122.58</course>
  <speed>0.15</speed>
  <fix>3d</fix>
</trkpt>
<trkpt lat="40.0738635" lon="-105.2302294">
  <ele>1584.19</ele>
  <time>2026-08-27T18:26:42Z</time>
  <course>13.12</course>
  <speed>0.17204650534085253</speed>
  <fix>3d</fix>
</trkpt>
<trkpt lat="40.0738639" lon="-105.2302299">
  <ele>1585.79</ele>
  <time>2026-08-27T18:26:42Z</time>
  <course>122.82</course>
  <speed>0.15</speed>
  <fix>3d</fix>
</trkpt>
<trkpt lat="40.0738634" lon="-105.2302292">
  <ele>1583.1</ele>
  <time>2026-08-27T18:26:42Z</time>
  <course>13.1</course>
  <speed>0.0632455532033676</speed>
  <fix>3d</fix>
</trkpt>
<trkpt lat="40.0738637" lon="-105.2302296">
  <ele>1584.57</ele>
  <time>2026-08-27T18:26:42Z</time>
  <course>123.08</course>
  <speed>0.15</speed>
  <fix>3d</fix>
</trkpt>
<trkpt lat="40.0738635" lon="-105.2302292">
  <ele>1583.24</ele>
  <time>2026-08-27T18:26:42Z</time>
  <course>13.15</course>
  <speed>0.05099019513592785</speed>
  <fix>3d</fix>
</trkpt>
<trkpt lat="40.0738636" lon="-105.2302293">
  <ele>1583.59</ele>
  <time>2026-08-27T18:26:42Z</time>
  <course>126.38</course>
  <speed>0.06</speed>
  <fix>3d</fix>
</trkpt>
<trkpt lat="40.0738635" lon="-105.2302291">
  <ele>1583.4</ele>
  <time>2026-08-27T18:26:42Z</time>
  <course>13.17</course>
  <speed>0.0412310562561766</speed>
  <fix>3d</fix>
</trkpt>
<trkpt lat="40.0738635" lon="-105.2302293">
  <ele>1583.38</ele>
  <time>2026-08-27T18:26:42Z</time>
  <course>300.03</course>
  <speed>0.02</speed>
  <fix>3d</fix>
</trkpt>
<trkpt lat="40.0738635" lon="-105.2302291">
  <ele>1583.35</ele>
  <time>2026-08-27T18:26:42Z</time>
  <course>13.15</course>
  <speed>0.04</speed>
  <fix>3d</fix>
</trkpt>
<trkpt lat="40.0738635" lon="-105.2302294">
  <ele>1583.57</ele>
  <time>2026-08-27T18:26:42Z</time>
  <course>320.99</course>
  <speed>0.01</speed>
  <fix>3d</fix>
</trkpt>
<trkpt lat="40.0738635" lon="-105.2302291">
  <ele>1583.35</ele>
  <time>2026-08-27T18:26:42Z</time>
  <course>13.14</course>
  <speed>0.03</speed>
  <fix>3d</fix>
</trkpt>
<trkpt lat="40.0738635" lon="-105.2302294">
  <ele>1583.58</ele>
  <time>2026-08-27T18:26:42Z</time>
  <course>110.97</course>
  <speed>0.0</speed>
  <fix>3d</fix>
</trkpt>
<trkpt lat="40.0738635" lon="-105.2302291">
  <ele>1583.37</ele>
  <time>2026-08-27T18:26:42Z</time>
  <course>13.14</course>
  <speed>0.03</speed>
  <fix>3d</fix>
</trkpt>
<trkpt lat="40.0738635" lon="-105.2302294">
  <ele>1583.55</ele>
  <time>2026-08-27T18:26:42Z</time>
  <course>106.33</course>
  <speed>0.0</speed>
  <fix>3d</fix>
</trkpt>
<trkpt lat="40.0738635" lon="-105.2302291">
  <ele>1583.39</ele>
  <time>2026-08-27T18:26:42Z</time>
  <course>13.11</course>
  <speed>0.03</speed>
  <fix>3d</fix>
</trkpt>
<trkpt lat="40.0738635" lon="-105.2302294">
  <ele>1583.55</ele>
  <time>2026-08-27T18:26:42Z</time>
  <course>85.39</course>
  <speed>0.0</speed>
  <fix>3d</fix>
</trkpt>
<trkpt lat="40.0738635" lon="-105.2302291">
  <ele>1583.41</ele>
  <time>2026-08-27T18:26:42Z</time>
  <course>13.08</course>
  <speed>0.02</speed>
  <fix>3d</fix>
</trkpt>
<trkpt lat="40.0738635" lon="-105.2302294">
  <ele>1583.56</ele>
  <time>2026-08-27T18:26:42Z</time>
  <course>91.26</course>
  <speed>0.0</speed>
  <fix>3d</fix>
</trkpt>
<trkpt lat="40.0738635" lon="-105.2302292">
  <ele>1583.42</ele>
  <time>2026-08-27T18:26:42Z</time>
  <course>13.05</course>
  <speed>0.02</speed>
  <fix>3d</fix>
</trkpt>
<trkpt lat="40.0738635" lon="-105.2302294">
  <ele>1583.56</ele>
  <time>2026-08-27T18:26:42Z</time>
  <course>84.62</course>
  <speed>0.0</speed>
  <fix>3d</fix>
</trkpt>
<trkpt lat="40.0738635" lon="-105.2302292">
  <ele>1583.43</ele>
  <time>2026-08-27T18:26:42Z</time>
  <course>13.02</course>
  <speed>0.01414213562373095</speed>
  <fix>3d</fix>
</trkpt>
<trkpt lat="40.0738635" lon="-105.2302294">
  <ele>1583.56</ele>
  <time>2026-08-27T18:26:42Z</time>
  <course>328.62</course>
  <speed>0.0</speed>
  <fix>3d</fix>
</trkpt>
<trkpt lat="40.0738635" lon="-105.2302292">
  <ele>1583.44</ele>
  <time>2026-08-27T18:26:42Z</time>
  <course>12.99</course>
  <speed>0.01414213562373095</speed>
  <fix>3d</fix>
</trkpt>
<trkpt lat="40.0738635" lon="-105.2302294">
  <ele>1583.56</ele>
  <time>2026-08-27T18:26:42Z</time>
  <course>36.92</course>
  <speed>0.0</speed>
  <fix>3d</fix>
</trkpt>
<trkpt lat="40.0738635" lon="-105.2302292">
  <ele>1583.44</ele>
  <time>2026-08-27T18:26:42Z</time>
  <course>12.96</course>
  <speed>0.01414213562373095</speed>
  <fix>3d</fix>
</trkpt>
<trkpt lat="40.0738635" lon="-105.2302294">
  <ele>1583.56</ele>
  <time>2026-08-27T18:26:42Z</time>
  <course>293.3</course>
  <speed>0.0</speed>
  <fix>3d</fix>
</trkpt>
<trkpt lat="40.0738635" lon="-105.2302292">
  <ele>1583.44</ele>
  <time>2026-08-27T18:26:42Z</time>
  <course>12.93</course>
  <speed>0.022360679774997897</speed>
  <fix>3d</fix>
</trkpt>
<trkpt lat="40.0738635" lon="-105.2302294">
  <ele>1583.56</ele>
  <time>2026-08-27T18:26:42Z</time>
  <course>250.64</course>
  <speed>0.0</speed>
  <fix>3d</fix>
</trkpt>
<trkpt lat="40.0738635" lon="-105.2302292">
  <ele>1583.45</ele>
  <time>2026-08-27T18:26:42Z</time>
  <course>12.9</course>
  <speed>0.022360679774997897</speed>
  <fix>3d</fix>
</trkpt>
<trkpt lat="40.0738635" lon="-105.2302294">
  <ele>1583.56</ele>
  <time>2026-08-27T18:26:42Z</time>
  <course>240.87</course>
  <speed>0.0</speed>
  <fix>3d</fix>
</trkpt>
<trkpt lat="40.0738635" lon="-105.2302292">
  <ele>1583.45</ele>
  <time>2026-08-27T18:26:42Z</time>
  <course>12.88</course>
  <speed>0.022360679774997897</speed>
  <fix>3d</fix>
</trkpt>
<trkpt lat="40.0738635" lon="-105.2302294">
  <ele>1583.56</ele>
  <time>2026-08-27T18:26:42Z</time>
  <course>240.01</course>
  <speed>0.0</speed>
  <fix>3d</fix>
</trkpt>
<trkpt lat="40.0738634" lon="-105.2302292">
  <ele>1583.46</ele>
  <time>2026-08-27T18:26:42Z</time>
  <course>12.85</course>
  <speed>0.022360679774997897</speed>
  <fix>3d</fix>
</trkpt>
<trkpt lat="40.0738635" lon="-105.2302294">
  <ele>1583.56</ele>
  <time>2026-08-27T18:26:42Z</time>
  <course>235.1</course>
  <speed>0.0</speed>
  <fix>3d</fix>
</trkpt>
<trkpt lat="40.0738634" lon="-105.2302292">
  <ele>1583.46</ele>
  <time>2026-08-27T18:26:42Z</time>
  <course>12.82</course>
  <speed>0.022360679774997897</speed>
  <fix>3d</fix>
</trkpt>
<trkpt lat="40.0738635" lon="-105.2302294">
  <ele>1583.56</ele>
  <time>2026-08-27T18:26:42Z</time>
  <course>223.11</course>
  <speed>0.0</speed>
  <fix>3d</fix>
</trkpt>
<trkpt lat="40.0738634" lon="-105.2302292">
  <ele>1583.46</ele>
  <time>2026-08-27T18:26:42Z</time>
  <course>12.8</course>
  <speed>0.022360679774997897</speed>
  <fix>3d</fix>
</trkpt>
<trkpt lat="40.0738635" lon="-105.2302294">
  <ele>1583.56</ele>
  <time>2026-08-27T18:26:42Z</time>
  <course>159.66</course>
  <speed>0.0</speed>
  <fix>3d</fix>
</trkpt>
<trkpt lat="40.0738634" lon="-105.2302292">
  <ele>1583.47</ele>
  <time>2026-08-27T18:26:42Z</time>
  <course>12.77</course>
  <speed>0.022360679774997897</speed>
  <fix>3d</fix>
</trkpt>
<trkpt lat="40.0738635" lon="-105.2302294">
  <ele>1583.56</ele>
  <time>2026-08-27T18:26:42Z</time>
  <course>27.66</course>
  <speed>0.0</speed>
  <fix>3d</fix>
</trkpt>
<trkpt lat="40.0738634" lon="-105.2302292">
  <ele>1583.47</ele>
  <time>2026-08-27T18:26:42Z</time>
  <course>12.75</course>
  <speed>0.0316227766016838</speed>
  <fix>3d</fix>
</trkpt>
<trkpt lat="40.0738635" lon="-105.2302294">
  <ele>1583.56</ele>
  <time>2026-08-27T18:26:42Z</time>
  <course>9.9</course>
  <speed>0.0</speed>
  <fix>3d</fix>
</trkpt>
<trkpt lat="40.0738634" lon="-105.2302292">
  <ele>1583.47</ele>
  <time>2026-08-27T18:26:42Z</time>
  <course>12.72</course>
  <speed>0.0316227766016838</speed>
  <fix>3d</fix>
</trkpt>
<trkpt lat="40.0738635" lon="-105.2302294">
  <ele>1583.56</ele>
  <time>2026-08-27T18:26:42Z</time>
  <course>171.53</course>
  <speed>0.0</speed>
  <fix>3d</fix>
</trkpt>
<trkpt lat="40.0738634" lon="-105.2302292">
  <ele>1583.48</ele>
  <time>2026-08-27T18:26:42Z</time>
  <course>12.69</course>
  <speed>0.0316227766016838</speed>
  <fix>3d</fix>
</trkpt>
<trkpt lat="40.0738635" lon="-105.2302294">
  <ele>1583.56</ele>
  <time>2026-08-27T18:26:43Z</time>
  <course>160.51</course>
  <speed>0.0</speed>
  <fix>3d</fix>
</trkpt>
<trkpt lat="40.0738634" lon="-105.2302292">
  <ele>1583.48</ele>
  <time>2026-08-27T18:26:43Z</time>
  <course>12.67</course>
  <speed>0.0316227766016838</speed>
  <fix>3d</fix>
</trkpt>
<trkpt lat="40.0738635" lon="-105.2302294">
  <ele>1583.56</ele>
  <time>2026-08-27T18:26:43Z</time>
  <course>69.63</course>
  <speed>0.0</speed>
  <fix>3d</fix>
</trkpt>
<trkpt lat="40.0738634" lon="-105.2302292">
  <ele>1583.49</ele>
  <time>2026-08-27T18:26:43Z</time>
  <course>12.64</course>
  <speed>0.0316227766016838</speed>
  <fix>3d</fix>
</trkpt>
<trkpt lat="40.0738635" lon="-105.2302294">
  <ele>1583.56</ele>
  <time>2026-08-27T18:26:43Z</time>
  <course>32.41</course>
  <speed>0.0</speed>
  <fix>3d</fix>
</trkpt>
<trkpt lat="40.0738633" lon="-105.2302292">
  <ele>1583.49</ele>
  <time>2026-08-27T18:26:43Z</time>
  <course>12.61</course>
  <speed>0.0316227766016838</speed>
  <fix>3d</fix>
</trkpt>
<trkpt lat="40.0738635" lon="-105.2302294">
  <ele>1583.56</ele>
  <time>2026-08-27T18:26:43Z</time>
  <course>57.01</course>
  <speed>0.0</speed>
  <fix>3d</fix>
</trkpt>
<trkpt lat="40.0738633" lon="-105.2302292">
  <ele>1583.49</ele>
  <time>2026-08-27T18:26:43Z</time>
  <course>12.59</course>
  <speed>0.0316227766016838</speed>
  <fix>3d</fix>
</trkpt>
<trkpt lat="40.0738635" lon="-105.2302294">
  <ele>1583.56</ele>
  <time>2026-08-27T18:26:43Z</time>
  <course>88.86</course>
  <speed>0.0</speed>
  <fix>3d</fix>
</trkpt>
<trkpt lat="40.0738633" lon="-105.2302292">
  <ele>1583.5</ele>
  <time>2026-08-27T18:26:43Z</time>
  <course>12.56</course>
  <speed>0.0316227766016838</speed>
  <fix>3d</fix>
</trkpt>
<trkpt lat="40.0738635" lon="-105.2302294">
  <ele>1583.56</ele>
  <time>2026-08-27T18:26:43Z</time>
  <course>113.32</course>
  <speed>0.0</speed>
  <fix>3d</fix>
</trkpt>
<trkpt lat="40.0738633" lon="-105.2302292">
  <ele>1583.5</ele>
  <time>2026-08-27T18:26:43Z</time>
  <course>12.53</course>
  <speed>0.0316227766016838</speed>
  <fix>3d</fix>
</trkpt>
<trkpt lat="40.0738635" lon="-105.2302294">
  <ele>1583.56</ele>
  <time>2026-08-27T18:26:43Z</time>
  <course>84.19</course>
  <speed>0.0</speed>
  <fix>3d</fix>
</trkpt>
<trkpt lat="40.0738633" lon="-105.2302292">
  <ele>1583.5</ele>
  <time>2026-08-27T18:26:43Z</time>
  <course>12.51</course>
  <speed>0.0316227766016838</speed>
  <fix>3d</fix>
</trkpt>
<trkpt lat="40.0738635" lon="-105.2302294">
  <ele>1583.56</ele>
  <time>2026-08-27T18:26:43Z</time>
  <course>51.59</course>
  <speed>0.0</speed>
  <fix>3d</fix>
</trkpt>
<trkpt lat="40.0738633" lon="-105.2302292">
  <ele>1583.5</ele>
  <time>2026-08-27T18:26:43Z</time>
  <course>12.48</course>
  <speed>0.0316227766016838</speed>
  <fix>3d</fix>
</trkpt>
<trkpt lat="40.0738635" lon="-105.2302294">
  <ele>1583.56</ele>
  <time>2026-08-27T18:26:43Z</time>
  <course>55.23</course>
  <speed>0.0</speed>
  <fix>3d</fix>
</trkpt>
<trkpt lat="40.0738633" lon="-105.2302292">
  <ele>1583.5</ele>
  <time>2026-08-27T18:26:43Z</time>
  <course>12.45</course>
  <speed>0.0316227766016838</speed>
  <fix>3d</fix>
</trkpt>
<trkpt lat="40.0738635" lon="-105.2302294">
  <ele>1583.56</ele>
  <time>2026-08-27T18:26:43Z</time>
  <course>85.51</course>
  <speed>0.0</speed>
  <fix>3d</fix>
</trkpt>
<trkpt lat="40.0738633" lon="-105.2302292">
  <ele>1583.51</ele>
  <time>2026-08-27T18:26:43Z</time>
  <course>12.43</course>
  <speed>0.0316227766016838</speed>
  <fix>3d</fix>
</trkpt>
<trkpt lat="40.0738635" lon="-105.2302294">
  <ele>1583.56</ele>
  <time>2026-08-27T18:26:43Z</time>
  <course>153.05</course>
  <speed>0.0</speed>
  <fix>3d</fix>
</trkpt>
<trkpt lat="40.0738633" lon="-105.2302292">
  <ele>1583.51</ele>
  <time>2026-08-27T18:26:43Z</time>
  <course>12.4</course>
  <speed>0.0316227766016838</speed>
  <fix>3d</fix>
</trkpt>
<trkpt lat="40.0738635" lon="-105.2302294">
  <ele>1583.56</ele>
  <time>2026-08-27T18:26:43Z</time>
  <course>89.3</course>
  <speed>0.0</speed>
  <fix>3d</fix>
</trkpt>
<trkpt lat="40.0738633" lon="-105.2302292">
  <ele>1583.51</ele>
  <time>2026-08-27T18:26:43Z</time>
  <course>12.37</course>
  <speed>0.0316227766016838</speed>
  <fix>3d</fix>
</trkpt>
<trkpt lat="40.0738635" lon="-105.2302294">
  <ele>1583.56</ele>
  <time>2026-08-27T18:26:43Z</time>
  <course>53.16</course>
  <speed>0.0</speed>
  <fix>3d</fix>
</trkpt>
<trkpt lat="40.0738633" lon="-105.2302292">
  <ele>1583.51</ele>
  <time>2026-08-27T18:26:43Z</time>
  <course>12.35</course>
  <speed>0.0316227766016838</speed>
  <fix>3d</fix>
</trkpt>
<trkpt lat="40.0738635" lon="-105.2302294">
  <ele>1583.56</ele>
  <time>2026-08-27T18:26:43Z</time>
  <course>56.42</course>
  <speed>0.0</speed>
  <fix>3d</fix>
</trkpt>
<trkpt lat="40.0738633" lon="-105.2302292">
  <ele>1583.52</ele>
  <time>2026-08-27T18:26:43Z</time>
  <course>12.32</course>
  <speed>0.0316227766016838</speed>
  <fix>3d</fix>
</trkpt>
<trkpt lat="40.0738635" lon="-105.2302294">
  <ele>1583.56</ele>
  <time>2026-08-27T18:26:43Z</time>
  <course>112.9</course>
  <speed>0.0</speed>
  <fix>3d</fix>
</trkpt>
<trkpt lat="40.0738633" lon="-105.2302292">
  <ele>1583.52</ele>
  <time>2026-08-27T18:26:43Z</time>
  <course>12.3</course>
  <speed>0.0316227766016838</speed>
  <fix>3d</fix>
</trkpt>
<trkpt lat="40.0738635" lon="-105.2302294">
  <ele>1583.56</ele>
  <time>2026-08-27T18:26:43Z</time>
  <course>107.91</course>
  <speed>0.0</speed>
  <fix>3d</fix>
</trkpt>
<trkpt lat="40.0738633" lon="-105.2302292">
  <ele>1583.52</ele>
  <time>2026-08-27T18:26:43Z</time>
  <course>12.27</course>
  <speed>0.0316227766016838</speed>
  <fix>3d</fix>
</trkpt>
<trkpt lat="40.0738635" lon="-105.2302294">
  <ele>1583.56</ele>
  <time>2026-08-27T18:26:43Z</time>
  <course>54.95</course>
  <speed>0.0</speed>
  <fix>3d</fix>
</trkpt>
<trkpt lat="40.0738633" lon="-105.2302292">
  <ele>1583.53</ele>
  <time>2026-08-27T18:26:43Z</time>
  <course>12.25</course>
  <speed>0.022360679774997897</speed>
  <fix>3d</fix>
</trkpt>
<trkpt lat="40.0738635" lon="-105.2302294">
  <ele>1583.56</ele>
  <time>2026-08-27T18:26:43Z</time>
  <course>53.68</course>
  <speed>0.0</speed>
  <fix>3d</fix>
</trkpt>
<trkpt lat="40.0738633" lon="-105.2302292">
  <ele>1583.53</ele>
  <time>2026-08-27T18:26:43Z</time>
  <course>12.22</course>
  <speed>0.022360679774997897</speed>
  <fix>3d</fix>
</trkpt>
<trkpt lat="40.0738635" lon="-105.2302294">
  <ele>1583.56</ele>
  <time>2026-08-27T18:26:43Z</time>
  <course>82.51</course>
  <speed>0.0</speed>
  <fix>3d</fix>
</trkpt>
<trkpt lat="40.0738633" lon="-105.2302292">
  <ele>1583.54</ele>
  <time>2026-08-27T18:26:43Z</time>
  <course>12.2</course>
  <speed>0.022360679774997897</speed>
  <fix>3d</fix>
</trkpt>
<trkpt lat="40.0738635" lon="-105.2302294">
  <ele>1583.56</ele>
  <time>2026-08-27T18:26:43Z</time>
  <course>140.02</course>
  <speed>0.0</speed>
  <fix>3d</fix>
</trkpt>
<trkpt lat="40.0738633" lon="-105.2302292">
  <ele>1583.54</ele>
  <time>2026-08-27T18:26:43Z</time>
  <course>12.18</course>
  <speed>0.022360679774997897</speed>
  <fix>3d</fix>
</trkpt>
<trkpt lat="40.0738635" lon="-105.2302294">
  <ele>1583.56</ele>
  <time>2026-08-27T18:26:43Z</time>
  <course>99.79</course>
  <speed>0.0</speed>
  <fix>3d</fix>
</trkpt>
<trkpt lat="40.0738633" lon="-105.2302292">
  <ele>1583.55</ele>
  <time>2026-08-27T18:26:43Z</time>
  <course>12.15</course>
  <speed>0.022360679774997897</speed>
  <fix>3d</fix>
</trkpt>
<trkpt lat="40.0738635" lon="-105.2302294">
  <ele>1583.56</ele>
  <time>2026-08-27T18:26:43Z</time>
  <course>58.42</course>
  <speed>0.0</speed>
  <fix>3d</fix>
</trkpt>
<trkpt lat="40.0738633" lon="-105.2302292">
  <ele>1583.55</ele>
  <time>2026-08-27T18:26:43Z</time>
  <course>12.13</course>
  <speed>0.022360679774997897</speed>
  <fix>3d</fix>
</trkpt>
<trkpt lat="40.0738635" lon="-105.2302294">
  <ele>1583.56</ele>
  <time>2026-08-27T18:26:43Z</time>
  <course>91.97</course>
  <speed>0.0</speed>
  <fix>3d</fix>
</trkpt>
<trkpt lat="40.0738633" lon="-105.2302292">
  <ele>1583.56</ele>
  <time>2026-08-27T18:26:43Z</time>
  <course>12.11</course>
  <speed>0.022360679774997897</speed>
  <fix>3d</fix>
</trkpt>
<trkpt lat="40.0738635" lon="-105.2302294">
  <ele>1583.56</ele>
  <time>2026-08-27T18:26:43Z</time>
  <course>113.8</course>
  <speed>0.0</speed>
  <fix>3d</fix>
</trkpt>
<trkpt lat="40.0738633" lon="-105.2302292">
  <ele>1583.56</ele>
  <time>2026-08-27T18:26:43Z</time>
  <course>12.09</course>
  <speed>0.022360679774997897</speed>
  <fix>3d</fix>
</trkpt>
<trkpt lat="40.0738635" lon="-105.2302294">
  <ele>1583.56</ele>
  <time>2026-08-27T18:26:43Z</time>
  <course>90.82</course>
  <speed>0.0</speed>
  <fix>3d</fix>
</trkpt>
<trkpt lat="40.0738633" lon="-105.2302292">
  <ele>1583.56</ele>
  <time>2026-08-27T18:26:43Z</time>
  <course>12.07</course>
  <speed>0.022360679774997897</speed>
  <fix>3d</fix>
</trkpt>
<trkpt lat="40.0738635" lon="-105.2302294">
  <ele>1583.56</ele>
  <time>2026-08-27T18:26:43Z</time>
  <course>52.81</course>
  <speed>0.0</speed>
  <fix>3d</fix>
</trkpt>
<trkpt lat="40.0738633" lon="-105.2302292">
  <ele>1583.56</ele>
  <time>2026-08-27T18:26:43Z</time>
  <course>12.04</course>
  <speed>0.022360679774997897</speed>
  <fix>3d</fix>
</trkpt>
<trkpt lat="40.0738635" lon="-105.2302294">
  <ele>1583.56</ele>
  <time>2026-08-27T18:26:43Z</time>
  <course>69.4</course>
  <speed>0.0</speed>
  <fix>3d</fix>
</trkpt>
<trkpt lat="40.0738633" lon="-105.2302292">
  <ele>1583.57</ele>
  <time>2026-08-27T18:26:43Z</time>
  <course>12.02</course>
  <speed>0.022360679774997897</speed>
  <fix>3d</fix>
</trkpt>
<trkpt lat="40.0738635" lon="-105.2302294">
  <ele>1583.56</ele>
  <time>2026-08-27T18:26:43Z</time>
  <course>134.59</course>
  <speed>0.0</speed>
  <fix>3d</fix>
</trkpt>
<trkpt lat="40.0738633" lon="-105.2302292">
  <ele>1583.57</ele>
  <time>2026-08-27T18:26:43Z</time>
  <course>12.0</course>
  <speed>0.022360679774997897</speed>
  <fix>3d</fix>
</trkpt>
<trkpt lat="40.0738635" lon="-105.2302294">
  <ele>1583.56</ele>
  <time>2026-08-27T18:26:43Z</time>
  <course>153.87</course>
  <speed>0.0</speed>
  <fix>3d</fix>
</trkpt>
<trkpt lat="40.0738633" lon="-105.2302292">
  <ele>1583.57</ele>
  <time>2026-08-27T18:26:43Z</time>
  <course>11.98</course>
  <speed>0.022360679774997897</speed>
  <fix>3d</fix>
</trkpt>
<trkpt lat="40.0738635" lon="-105.2302294">
  <ele>1583.56</ele>
  <time>2026-08-27T18:26:43Z</time>
  <course>85.86</course>
  <speed>0.0</speed>
  <fix>3d</fix>
</trkpt>
<trkpt lat="40.0738633" lon="-105.2302292">
  <ele>1583.57</ele>
  <time>2026-08-27T18:26:43Z</time>
  <course>11.96</course>
  <speed>0.022360679774997897</speed>
  <fix>3d</fix>
</trkpt>
<trkpt lat="40.0738635" lon="-105.2302294">
  <ele>1583.56</ele>
  <time>2026-08-27T18:26:43Z</time>
  <course>63.22</course>
  <speed>0.0</speed>
  <fix>3d</fix>
</trkpt>
<trkpt lat="40.0738633" lon="-105.2302292">
  <ele>1583.57</ele>
  <time>2026-08-27T18:26:43Z</time>
  <course>11.94</course>
  <speed>0.022360679774997897</speed>
  <fix>3d</fix>
</trkpt>
<trkpt lat="40.0738635" lon="-105.2302294">
  <ele>1583.56</ele>
  <time>2026-08-27T18:26:43Z</time>
  <course>118.21</course>
  <speed>0.0</speed>
  <fix>3d</fix>
</trkpt>
<trkpt lat="40.0738633" lon="-105.2302292">
  <ele>1583.58</ele>
  <time>2026-08-27T18:26:43Z</time>
  <course>11.92</course>
  <speed>0.022360679774997897</speed>
  <fix>3d</fix>
</trkpt>
<trkpt lat="40.0738635" lon="-105.2302294">
  <ele>1583.56</ele>
  <time>2026-08-27T18:26:43Z</time>
  <course>116.13</course>
  <speed>0.0</speed>
  <fix>3d</fix>
</trkpt>
<trkpt lat="40.0738633" lon="-105.2302292">
  <ele>1583.58</ele>
  <time>2026-08-27T18:26:43Z</time>
  <course>11.9</course>
  <speed>0.022360679774997897</speed>
  <fix>3d</fix>
</trkpt>
<trkpt lat="40.0738635" lon="-105.2302294">
  <ele>1583.56</ele>
  <time>2026-08-27T18:26:43Z</time>
  <course>69.33</course>
  <speed>0.0</speed>
  <fix>3d</fix>
</trkpt>
<trkpt lat="40.0738633" lon="-105.2302292">
  <ele>1583.59</ele>
  <time>2026-08-27T18:26:43Z</time>
  <course>11.88</course>
  <speed>0.022360679774997897</speed>
  <fix>3d</fix>
</trkpt>
<trkpt lat="40.0738635" lon="-105.2302294">
  <ele>1583.56</ele>
  <time>2026-08-27T18:26:43Z</time>
  <course>65.97</course>
  <speed>0.0</speed>
  <fix>3d</fix>
</trkpt>
<trkpt lat="40.0738633" lon="-105.2302292">
  <ele>1583.59</ele>
  <time>2026-08-27T18:26:43Z</time>
  <course>11.86</course>
  <speed>0.022360679774997897</speed>
  <fix>3d</fix>
</trkpt>
<trkpt lat="40.0738635" lon="-105.2302294">
  <ele>1583.56</ele>
  <time>2026-08-27T18:26:43Z</time>
  <course>76.81</course>
  <speed>0.0</speed>
  <fix>3d</fix>
</trkpt>
<trkpt lat="40.0738633" lon="-105.2302292">
  <ele>1583.59</ele>
  <time>2026-08-27T18:26:43Z</time>
  <course>11.84</course>
  <speed>0.022360679774997897</speed>
  <fix>3d</fix>
</trkpt>
<trkpt lat="40.0738635" lon="-105.2302294">
  <ele>1583.56</ele>
  <time>2026-08-27T18:26:43Z</time>
  <course>147.55</course>
  <speed>0.0</speed>
  <fix>3d</fix>
</trkpt>
<trkpt lat="40.0738633" lon="-105.2302292">
  <ele>1583.6</ele>
  <time>2026-08-27T18:26:43Z</time>
  <course>11.82</course>
  <speed>0.022360679774997897</speed>
  <fix>3d</fix>
</trkpt>
<trkpt lat="40.0738635" lon="-105.2302294">
  <ele>1583.56</ele>
  <time>2026-08-27T18:26:43Z</time>
  <course>153.93</course>
  <speed>0.0</speed>
  <fix>3d</fix>
</trkpt>
<trkpt lat="40.0738633" lon="-105.2302292">
  <ele>1583.6</ele>
  <time>2026-08-27T18:26:43Z</time>
  <course>11.8</course>
  <speed>0.022360679774997897</speed>
  <fix>3d</fix>
</trkpt>
<trkpt lat="40.0738635" lon="-105.2302294">
  <ele>1583.56</ele>
  <time>2026-08-27T18:26:43Z</time>
  <course>83.66</course>
  <speed>0.0</speed>
  <fix>3d</fix>
</trkpt>
<trkpt lat="40.0738633" lon="-105.2302292">
  <ele>1583.6</ele>
  <time>2026-08-27T18:26:43Z</time>
  <course>11.78</course>
  <speed>0.022360679774997897</speed>
  <fix>3d</fix>
</trkpt>
<trkpt lat="40.0738635" lon="-105.2302294">
  <ele>1583.56</ele>
  <time>2026-08-27T18:26:43Z</time>
  <course>104.46</course>
  <speed>0.0</speed>
  <fix>3d</fix>
</trkpt>
<trkpt lat="40.0738633" lon="-105.2302292">
  <ele>1583.6</ele>
  <time>2026-08-27T18:26:43Z</time>
  <course>11.76</course>
  <speed>0.022360679774997897</speed>
  <fix>3d</fix>
</trkpt>
<trkpt lat="40.0738635" lon="-105.2302294">
  <ele>1583.56</ele>
  <time>2026-08-27T18:26:43Z</time>
  <course>121.01</course>
  <speed>0.0</speed>
  <fix>3d</fix>
</trkpt>
<trkpt lat="40.0738633" lon="-105.2302292">
  <ele>1583.61</ele>
  <time>2026-08-27T18:26:43Z</time>
  <course>11.75</course>
  <speed>0.022360679774997897</speed>
  <fix>3d</fix>
</trkpt>
<trkpt lat="40.0738635" lon="-105.2302294">
  <ele>1583.56</ele>
  <time>2026-08-27T18:26:43Z</time>
  <course>90.48</course>
  <speed>0.0</speed>
  <fix>3d</fix>
</trkpt>
<trkpt lat="40.0738633" lon="-105.2302292">
  <ele>1583.61</ele>
  <time>2026-08-27T18:26:43Z</time>
  <course>11.73</course>
  <speed>0.022360679774997897</speed>
  <fix>3d</fix>
</trkpt>
<trkpt lat="40.0738635" lon="-105.2302294">
  <ele>1583.56</ele>
  <time>2026-08-27T18:26:43Z</time>
  <course>64.77</course>
  <speed>0.0</speed>
  <fix>3d</fix>
</trkpt>
<trkpt lat="40.0738633" lon="-105.2302292">
  <ele>1583.61</ele>
  <time>2026-08-27T18:26:43Z</time>
  <course>11.71</course>
  <speed>0.022360679774997897</speed>
  <fix>3d</fix>
</trkpt>
<trkpt lat="40.0738635" lon="-105.2302294">
  <ele>1583.56</ele>
  <time>2026-08-27T18:26:43Z</time>
  <course>77.47</course>
  <speed>0.0</speed>
  <fix>3d</fix>
</trkpt>
<trkpt lat="40.0738633" lon="-105.2302292">
  <ele>1583.61</ele>
  <time>2026-08-27T18:26:43Z</time>
  <course>11.69</course>
  <speed>0.022360679774997897</speed>
  <fix>3d</fix>
</trkpt>
<trkpt lat="40.0738635" lon="-105.2302294">
  <ele>1583.56</ele>
  <time>2026-08-27T18:26:43Z</time>
  <course>79.59</course>
  <speed>0.0</speed>
  <fix>3d</fix>
</trkpt>
<trkpt lat="40.0738633" lon="-105.2302292">
  <ele>1583.62</ele>
  <time>2026-08-27T18:26:43Z</time>
  <course>11.67</course>
  <speed>0.022360679774997897</speed>
  <fix>3d</fix>
</trkpt>
<trkpt lat="40.0738635" lon="-105.2302294">
  <ele>1583.56</ele>
  <time>2026-08-27T18:26:43Z</time>
  <course>151.81</course>
  <speed>0.0</speed>
  <fix>3d</fix>
</trkpt>
<trkpt lat="40.0738633" lon="-105.2302292">
  <ele>1583.62</ele>
  <time>2026-08-27T18:26:43Z</time>
  <course>11.65</course>
  <speed>0.022360679774997897</speed>
  <fix>3d</fix>
</trkpt>
<trkpt lat="40.0738635" lon="-105.2302294">
  <ele>1583.56</ele>
  <time>2026-08-27T18:26:43Z</time>
  <course>151.42</course>
  <speed>0.0</speed>
  <fix>3d</fix>
</trkpt>
<trkpt lat="40.0738633" lon="-105.2302292">
  <ele>1583.63</ele>
  <time>2026-08-27T18:26:43Z</time>
  <course>11.64</course>
  <speed>0.022360679774997897</speed>
  <fix>3d</fix>
</trkpt>
<trkpt lat="40.0738635" lon="-105.2302294">
  <ele>1583.56</ele>
  <time>2026-08-27T18:26:43Z</time>
  <course>82.35</course>
  <speed>0.0</speed>
  <fix>3d</fix>
</trkpt>
<trkpt lat="40.0738633" lon="-105.2302292">
  <ele>1583.63</ele>
  <time>2026-08-27T18:26:43Z</time>
  <course>11.62</course>
  <speed>0.022360679774997897</speed>
  <fix>3d</fix>
</trkpt>
<trkpt lat="40.0738635" lon="-105.2302294">
  <ele>1583.56</ele>
  <time>2026-08-27T18:26:43Z</time>
  <course>112.65</course>
  <speed>0.0</speed>
  <fix>3d</fix>
</trkpt>
<trkpt lat="40.0738633" lon="-105.2302292">
  <ele>1583.63</ele>
  <time>2026-08-27T18:26:43Z</time>
  <course>11.6</course>
  <speed>0.022360679774997897</speed>
  <fix>3d</fix>
</trkpt>
<trkpt lat="40.0738635" lon="-105.2302294">
  <ele>1583.56</ele>
  <time>2026-08-27T18:26:43Z</time>
  <course>115.26</course>
  <speed>0.0</speed>
  <fix>3d</fix>
</trkpt>
<trkpt lat="40.0738633" lon="-105.2302292">
  <ele>1583.63</ele>
  <time>2026-08-27T18:26:43Z</time>
  <course>11.58</course>
  <speed>0.022360679774997897</speed>
  <fix>3d</fix>
</trkpt>
<trkpt lat="40.0738635" lon="-105.2302294">
  <ele>1583.56</ele>
  <time>2026-08-27T18:26:43Z</time>
  <course>72.43</course>
  <speed>0.0</speed>
  <fix>3d</fix>
</trkpt>
<trkpt lat="40.0738633" lon="-105.2302292">
  <ele>1583.62</ele>
  <time>2026-08-27T18:26:43Z</time>
  <course>11.56</course>
  <speed>0.022360679774997897</speed>
  <fix>3d</fix>
</trkpt>
<trkpt lat="40.0738635" lon="-105.2302294">
  <ele>1583.56</ele>
  <time>2026-08-27T18:26:43Z</time>
  <course>74.2</course>
  <speed>0.0</speed>
  <fix>3d</fix>
</trkpt>
<trkpt lat="40.0738633" lon="-105.2302292">
  <ele>1583.62</ele>
  <time>2026-08-27T18:26:43Z</time>
  <course>11.55</course>
  <speed>0.022360679774997897</speed>
  <fix>3d</fix>
</trkpt>
<trkpt lat="40.0738635" lon="-105.2302294">
  <ele>1583.56</ele>
  <time>2026-08-27T18:26:43Z</time>
  <course>83.22</course>
  <speed>0.0</speed>
  <fix>3d</fix>
</trkpt>
<trkpt lat="40.0738633" lon="-105.2302292">
  <ele>1583.62</ele>
  <time>2026-08-27T18:26:43Z</time>
  <course>11.53</course>
  <speed>0.022360679774997897</speed>
  <fix>3d</fix>
</trkpt>
<trkpt lat="40.0738635" lon="-105.2302294">
  <ele>1583.56</ele>
  <time>2026-08-27T18:26:43Z</time>
  <course>81.86</course>
  <speed>0.0</speed>
  <fix>3d</fix>
</trkpt>
<trkpt lat="40.0738633" lon="-105.2302292">
  <ele>1583.62</ele>
  <time>2026-08-27T18:26:43Z</time>
  <course>11.51</course>
  <speed>0.022360679774997897</speed>
  <fix>3d</fix>
</trkpt>
<trkpt lat="40.0738635" lon="-105.2302294">
  <ele>1583.56</ele>
  <time>2026-08-27T18:26:43Z</time>
  <course>151.78</course>
  <speed>0.0</speed>
  <fix>3d</fix>
</trkpt>
<trkpt lat="40.0738633" lon="-105.2302292">
  <ele>1583.62</ele>
  <time>2026-08-27T18:26:43Z</time>
  <course>11.49</course>
  <speed>0.022360679774997897</speed>
  <fix>3d</fix>
</trkpt>
<trkpt lat="40.0738635" lon="-105.2302294">
  <ele>1583.56</ele>
  <time>2026-08-27T18:26:43Z</time>
  <course>151.97</course>
  <speed>0.0</speed>
  <fix>3d</fix>
</trkpt>
<trkpt lat="40.0738633" lon="-105.2302292">
  <ele>1583.62</ele>
  <time>2026-08-27T18:26:43Z</time>
  <course>11.48</course>
  <speed>0.022360679774997897</speed>
  <fix>3d</fix>
</trkpt>
<trkpt lat="40.0738635" lon="-105.2302294">
  <ele>1583.56</ele>
  <time>2026-08-27T18:26:43Z</time>
  <course>104.13</course>
  <speed>0.0</speed>
  <fix>3d</fix>
</trkpt>
<trkpt lat="40.0738633" lon="-105.2302292">
  <ele>1583.62</ele>
  <time>2026-08-27T18:26:43Z</time>
  <course>11.46</course>
  <speed>0.022360679774997897</speed>
  <fix>3d</fix>
</trkpt>
<trkpt lat="40.0738635" lon="-105.2302294">
  <ele>1583.56</ele>
  <time>2026-08-27T18:26:43Z</time>
  <course>113.63</course>
  <speed>0.0</speed>
  <fix>3d</fix>
</trkpt>
<trkpt lat="40.0738633" lon="-105.2302292">
  <ele>1583.62</ele>
  <time>2026-08-27T18:26:43Z</time>
  <course>11.44</course>
  <speed>0.022360679774997897</speed>
  <fix>3d</fix>
</trkpt>
<trkpt lat="40.0738635" lon="-105.2302294">
  <ele>1583.56</ele>
  <time>2026-08-27T18:26:43Z</time>
  <course>100.88</course>
  <speed>0.0</speed>
  <fix>3d</fix>
</trkpt>
<trkpt lat="40.0738633" lon="-105.2302292">
  <ele>1583.62</ele>
  <time>2026-08-27T18:26:43Z</time>
  <course>11.42</course>
  <speed>0.022360679774997897</speed>
  <fix>3d</fix>
</trkpt>
<trkpt lat="40.0738635" lon="-105.2302294">
  <ele>1583.56</ele>
  <time>2026-08-27T18:26:43Z</time>
  <course>71.38</course>
  <speed>0.0</speed>
  <fix>3d</fix>
</trkpt>
<trkpt lat="40.0738633" lon="-105.2302292">
  <ele>1583.62</ele>
  <time>2026-08-27T18:26:43Z</time>
  <course>11.41</course>
  <speed>0.022360679774997897</speed>
  <fix>3d</fix>
</trkpt>
<trkpt lat="40.0738635" lon="-105.2302294">
  <ele>1583.56</ele>
  <time>2026-08-27T18:26:43Z</time>
  <course>82.6</course>
  <speed>0.0</speed>
  <fix>3d</fix>
</trkpt>
<trkpt lat="40.0738633" lon="-105.2302292">
  <ele>1583.62</ele>
  <time>2026-08-27T18:26:43Z</time>
  <course>11.39</course>
  <speed>0.022360679774997897</speed>
  <fix>3d</fix>
</trkpt>
<trkpt lat="40.0738635" lon="-105.2302294">
  <ele>1583.56</ele>
  <time>2026-08-27T18:26:43Z</time>
  <course>86.1</course>
  <speed>0.0</speed>
  <fix>3d</fix>
</trkpt>
<trkpt lat="40.0738633" lon="-105.2302292">
  <ele>1583.62</ele>
  <time>2026-08-27T18:26:43Z</time>
  <course>11.37</course>
  <speed>0.022360679774997897</speed>
  <fix>3d</fix>
</trkpt>
<trkpt lat="40.0738635" lon="-105.2302294">
  <ele>1583.56</ele>
  <time>2026-08-27T18:26:43Z</time>
  <course>84.29</course>
  <speed>0.0</speed>
  <fix>3d</fix>
</trkpt>
<trkpt lat="40.0738633" lon="-105.2302292">
  <ele>1583.62</ele>
  <time>2026-08-27T18:26:43Z</time>
  <course>11.36</course>
  <speed>0.022360679774997897</speed>
  <fix>3d</fix>
</trkpt>
<trkpt lat="40.0738635" lon="-105.2302294">
  <ele>1583.56</ele>
  <time>2026-08-27T18:26:43Z</time>
  <course>153.47</course>
  <speed>0.0</speed>
  <fix>3d</fix>
</trkpt>
<trkpt lat="40.0738633" lon="-105.2302292">
  <ele>1583.62</ele>
  <time>2026-08-27T18:26:43Z</time>
  <course>11.34</course>
  <speed>0.022360679774997897</speed>
  <fix>3d</fix>
</trkpt>
<trkpt lat="40.0738635" lon="-105.2302294">
  <ele>1583.56</ele>
  <time>2026-08-27T18:26:43Z</time>
  <course>152.84</course>
  <speed>0.0</speed>
  <fix>3d</fix>
</trkpt>
<trkpt lat="40.0738633" lon="-105.2302292">
  <ele>1583.62</ele>
  <time>2026-08-27T18:26:43Z</time>
  <course>11.32</course>
  <speed>0.022360679774997897</speed>
  <fix>3d</fix>
</trkpt>
<trkpt lat="40.0738635" lon="-105.2302294">
  <ele>1583.56</ele>
  <time>2026-08-27T18:26:43Z</time>
  <course>123.06</course>
  <speed>0.0</speed>
  <fix>3d</fix>
</trkpt>
<trkpt lat="40.0738633" lon="-105.2302292">
  <ele>1583.63</ele>
  <time>2026-08-27T18:26:43Z</time>
  <course>11.31</course>
  <speed>0.022360679774997897</speed>
  <fix>3d</fix>
</trkpt>
<trkpt lat="40.0738635" lon="-105.2302294">
  <ele>1583.56</ele>
  <time>2026-08-27T18:26:43Z</time>
  <course>118.36</course>
  <speed>0.0</speed>
  <fix>3d</fix>
</trkpt>
<trkpt lat="40.0738633" lon="-105.2302292">
  <ele>1583.63</ele>
  <time>2026-08-27T18:26:43Z</time>
  <course>11.29</course>
  <speed>0.022360679774997897</speed>
  <fix>3d</fix>
</trkpt>
<trkpt lat="40.0738635" lon="-105.2302294">
  <ele>1583.56</ele>
  <time>2026-08-27T18:26:43Z</time>
  <course>83.06</course>
  <speed>0.0</speed>
  <fix>3d</fix>
</trkpt>
<trkpt lat="40.0738633" lon="-105.2302292">
  <ele>1583.63</ele>
  <time>2026-08-27T18:26:43Z</time>
  <course>11.27</course>
  <speed>0.022360679774997897</speed>
  <fix>3d</fix>
</trkpt>
<trkpt lat="40.0738635" lon="-105.2302294">
  <ele>1583.56</ele>
  <time>2026-08-27T18:26:43Z</time>
  <course>79.47</course>
  <speed>0.0</speed>
  <fix>3d</fix>
</trkpt>
<trkpt lat="40.0738633" lon="-105.2302292">
  <ele>1583.63</ele>
  <time>2026-08-27T18:26:43Z</time>
  <course>11.26</course>
  <speed>0.022360679774997897</speed>
  <fix>3d</fix>
</trkpt>
<trkpt lat="40.0738635" lon="-105.2302294">
  <ele>1583.56</ele>
  <time>2026-08-27T18:26:43Z</time>
  <course>88.94</course>
  <speed>0.0</speed>
  <fix>3d</fix>
</trkpt>
<trkpt lat="40.0738633" lon="-105.2302292">
  <ele>1583.62</ele>
  <time>2026-08-27T18:26:43Z</time>
  <course>11.24</course>
  <speed>0.022360679774997897</speed>
  <fix>3d</fix>
</trkpt>
<trkpt lat="40.0738635" lon="-105.2302294">
  <ele>1583.56</ele>
  <time>2026-08-27T18:26:43Z</time>
  <course>88.22</course>
  <speed>0.0</speed>
  <fix>3d</fix>
</trkpt>
<trkpt lat="40.0738633" lon="-105.2302292">
  <ele>1583.62</ele>
  <time>2026-08-27T18:26:43Z</time>
  <course>11.3</course>
  <speed>0.01414213562373095</speed>
  <fix>3d</fix>
</trkpt>
<trkpt lat="40.0738635" lon="-105.2302294">
  <ele>1583.56</ele>
  <time>2026-08-27T18:26:43Z</time>
  <course>87.15</course>
  <speed>0.0</speed>
  <fix>3d</fix>
</trkpt>
<trkpt lat="40.0738633" lon="-105.2302292">
  <ele>1583.62</ele>
  <time>2026-08-27T18:26:43Z</time>
  <course>11.45</course>
  <speed>0.022360679774997897</speed>
  <fix>3d</fix>
</trkpt>
<trkpt lat="40.0738635" lon="-105.2302294">
  <ele>1583.56</ele>
  <time>2026-08-27T18:26:43Z</time>
  <course>262.74</course>
  <speed>0.0</speed>
  <fix>3d</fix>
</trkpt>
<trkpt lat="40.0738633" lon="-105.2302292">
  <ele>1583.62</ele>
  <time>2026-08-27T18:26:43Z</time>
  <course>11.59</course>
  <speed>0.022360679774997897</speed>
  <fix>3d</fix>
</trkpt>
<trkpt lat="40.0738635" lon="-105.2302294">
  <ele>1583.56</ele>
  <time>2026-08-27T18:26:43Z</time>
  <course>255.12</course>
  <speed>0.0</speed>
  <fix>3d</fix>
</trkpt>
<trkpt lat="40.0738633" lon="-105.2302292">
  <ele>1583.62</ele>
  <time>2026-08-27T18:26:43Z</time>
  <course>11.72</course>
  <speed>0.022360679774997897</speed>
  <fix>3d</fix>
</trkpt>
<trkpt lat="40.0738635" lon="-105.2302294">
  <ele>1583.56</ele>
  <time>2026-08-27T18:26:43Z</time>
  <course>118.98</course>
  <speed>0.0</speed>
  <fix>3d</fix>
</trkpt>
<trkpt lat="40.0738633" lon="-105.2302292">
  <ele>1583.61</ele>
  <time>2026-08-27T18:26:43Z</time>
  <course>11.84</course>
  <speed>0.01414213562373095</speed>
  <fix>3d</fix>
</trkpt>
<trkpt lat="40.0738635" lon="-105.2302294">
  <ele>1583.56</ele>
  <time>2026-08-27T18:26:43Z</time>
  <course>65.25</course>
  <speed>0.0</speed>
  <fix>3d</fix>
</trkpt>
<trkpt lat="40.0738633" lon="-105.2302292">
  <ele>1583.61</ele>
  <time>2026-08-27T18:26:43Z</time>
  <course>11.95</course>
  <speed>0.01414213562373095</speed>
  <fix>3d</fix>
</trkpt>
<trkpt lat="40.0738635" lon="-105.2302294">
  <ele>1583.56</ele>
  <time>2026-08-27T18:26:43Z</time>
  <course>274.65</course>
  <speed>0.0</speed>
  <fix>3d</fix>
</trkpt>
<trkpt lat="40.0738633" lon="-105.2302292">
  <ele>1583.61</ele>
  <time>2026-08-27T18:26:43Z</time>
  <course>12.06</course>
  <speed>0.01414213562373095</speed>
  <fix>3d</fix>
</trkpt>
<trkpt lat="40.0738635" lon="-105.2302294">
  <ele>1583.56</ele>
  <time>2026-08-27T18:26:43Z</time>
  <course>223.85</course>
  <speed>0.0</speed>
  <fix>3d</fix>
</trkpt>
<trkpt lat="40.0738633" lon="-105.2302292">
  <ele>1583.61</ele>
  <time>2026-08-27T18:26:43Z</time>
  <course>12.15</course>
  <speed>0.01414213562373095</speed>
  <fix>3d</fix>
</trkpt>
<trkpt lat="40.0738635" lon="-105.2302294">
  <ele>1583.56</ele>
  <time>2026-08-27T18:26:43Z</time>
  <course>109.47</course>
  <speed>0.0</speed>
  <fix>3d</fix>
</trkpt>
<trkpt lat="40.0738633" lon="-105.2302292">
  <ele>1583.62</ele>
  <time>2026-08-27T18:26:43Z</time>
  <course>12.24</course>
  <speed>0.01414213562373095</speed>
  <fix>3d</fix>
</trkpt>
<trkpt lat="40.0738635" lon="-105.2302294">
  <ele>1583.56</ele>
  <time>2026-08-27T18:26:43Z</time>
  <course>139.99</course>
  <speed>0.0</speed>
  <fix>3d</fix>
</trkpt>
<trkpt lat="40.0738633" lon="-105.2302292">
  <ele>1583.62</ele>
  <time>2026-08-27T18:26:43Z</time>
  <course>12.32</course>
  <speed>0.01414213562373095</speed>
  <fix>3d</fix>
</trkpt>
<trkpt lat="40.0738635" lon="-105.2302294">
  <ele>1583.56</ele>
  <time>2026-08-27T18:26:43Z</time>
  <course>186.51</course>
  <speed>0.0</speed>
  <fix>3d</fix>
</trkpt>
<trkpt lat="40.0738633" lon="-105.2302292">
  <ele>1583.62</ele>
  <time>2026-08-27T18:26:43Z</time>
  <course>12.41</course>
  <speed>0.01414213562373095</speed>
  <fix>3d</fix>
</trkpt>
<trkpt lat="40.0738635" lon="-105.2302294">
  <ele>1583.56</ele>
  <time>2026-08-27T18:26:43Z</time>
  <course>167.61</course>
  <speed>0.0</speed>
  <fix>3d</fix>
</trkpt>
<trkpt lat="40.0738633" lon="-105.2302292">
  <ele>1583.63</ele>
  <time>2026-08-27T18:26:43Z</time>
  <course>12.48</course>
  <speed>0.01414213562373095</speed>
  <fix>3d</fix>
</trkpt>
<trkpt lat="40.0738635" lon="-105.2302294">
  <ele>1583.56</ele>
  <time>2026-08-27T18:26:43Z</time>
  <course>164.58</course>
  <speed>0.0</speed>
  <fix>3d</fix>
</trkpt>
<trkpt lat="40.0738633" lon="-105.2302292">
  <ele>1583.64</ele>
  <time>2026-08-27T18:26:43Z</time>
  <course>12.55</course>
  <speed>0.01414213562373095</speed>
  <fix>3d</fix>
</trkpt>
<trkpt lat="40.0738635" lon="-105.2302294">
  <ele>1583.56</ele>
  <time>2026-08-27T18:26:43Z</time>
  <course>167.54</course>
  <speed>0.0</speed>
  <fix>3d</fix>
</trkpt>
<trkpt lat="40.0738633" lon="-105.2302292">
  <ele>1583.65</ele>
  <time>2026-08-27T18:26:43Z</time>
  <course>12.62</course>
  <speed>0.01414213562373095</speed>
  <fix>3d</fix>
</trkpt>
<trkpt lat="40.0738635" lon="-105.2302294">
  <ele>1583.56</ele>
  <time>2026-08-27T18:26:43Z</time>
  <course>167.6</course>
  <speed>0.0</speed>
  <fix>3d</fix>
</trkpt>
<trkpt lat="40.0738633" lon="-105.2302292">
  <ele>1583.65</ele>
  <time>2026-08-27T18:26:43Z</time>
  <course>12.69</course>
  <speed>0.01414213562373095</speed>
  <fix>3d</fix>
</trkpt>
<trkpt lat="40.0738635" lon="-105.2302294">
  <ele>1583.56</ele>
  <time>2026-08-27T18:26:43Z</time>
  <course>167.19</course>
  <speed>0.0</speed>
  <fix>3d</fix>
</trkpt>
<trkpt lat="40.0738633" lon="-105.2302292">
  <ele>1583.66</ele>
  <time>2026-08-27T18:26:43Z</time>
  <course>12.75</course>
  <speed>0.01414213562373095</speed>
  <fix>3d</fix>
</trkpt>
<trkpt lat="40.0738635" lon="-105.2302294">
  <ele>1583.56</ele>
  <time>2026-08-27T18:26:43Z</time>
  <course>167.23</course>
  <speed>0.0</speed>
  <fix>3d</fix>
</trkpt>
<trkpt lat="40.0738633" lon="-105.2302292">
  <ele>1583.67</ele>
  <time>2026-08-27T18:26:43Z</time>
  <course>12.81</course>
  <speed>0.01414213562373095</speed>
  <fix>3d</fix>
</trkpt>
<trkpt lat="40.0738635" lon="-105.2302294">
  <ele>1583.56</ele>
  <time>2026-08-27T18:26:43Z</time>
  <course>167.28</course>
  <speed>0.0</speed>
  <fix>3d</fix>
</trkpt>
<trkpt lat="40.0738633" lon="-105.2302292">
  <ele>1583.66</ele>
  <time>2026-08-27T18:26:43Z</time>
  <course>12.86</course>
  <speed>0.01414213562373095</speed>
  <fix>3d</fix>
</trkpt>
<trkpt lat="40.0738635" lon="-105.2302294">
  <ele>1583.56</ele>
  <time>2026-08-27T18:26:43Z</time>
  <course>167.27</course>
  <speed>0.0</speed>
  <fix>3d</fix>
</trkpt>
<trkpt lat="40.0738633" lon="-105.2302292">
  <ele>1583.66</ele>
  <time>2026-08-27T18:26:43Z</time>
  <course>12.92</course>
  <speed>0.01414213562373095</speed>
  <fix>3d</fix>
</trkpt>
<trkpt lat="40.0738635" lon="-105.2302294">
  <ele>1583.56</ele>
  <time>2026-08-27T18:26:43Z</time>
  <course>167.27</course>
  <speed>0.0</speed>
  <fix>3d</fix>
</trkpt>
<trkpt lat="40.0738633" lon="-105.2302292">
  <ele>1583.65</ele>
  <time>2026-08-27T18:26:43Z</time>
  <course>12.97</course>
  <speed>0.01414213562373095</speed>
  <fix>3d</fix>
</trkpt>
<trkpt lat="40.0738635" lon="-105.2302294">
  <ele>1583.56</ele>
  <time>2026-08-27T18:26:43Z</time>
  <course>167.27</course>
  <speed>0.0</speed>
  <fix>3d</fix>
</trkpt>
<trkpt lat="40.0738633" lon="-105.2302292">
  <ele>1583.65</ele>
  <time>2026-08-27T18:26:43Z</time>
  <course>13.02</course>
  <speed>0.01414213562373095</speed>
  <fix>3d</fix>
</trkpt>
<trkpt lat="40.0738635" lon="-105.2302294">
  <ele>1583.56</ele>
  <time>2026-08-27T18:26:43Z</time>
  <course>167.27</course>
  <speed>0.0</speed>
  <fix>3d</fix>
</trkpt>
<trkpt lat="40.0738634" lon="-105.2302292">
  <ele>1583.65</ele>
  <time>2026-08-27T18:26:43Z</time>
  <course>13.07</course>
  <speed>0.01414213562373095</speed>
  <fix>3d</fix>
</trkpt>
<trkpt lat="40.0738635" lon="-105.2302294">
  <ele>1583.56</ele>
  <time>2026-08-27T18:26:43Z</time>
  <course>167.27</course>
  <speed>0.0</speed>
  <fix>3d</fix>
</trkpt>
<trkpt lat="40.0738634" lon="-105.2302292">
  <ele>1583.64</ele>
  <time>2026-08-27T18:26:43Z</time>
  <course>13.11</course>
  <speed>0.01414213562373095</speed>
  <fix>3d</fix>
</trkpt>
<trkpt lat="40.0738635" lon="-105.2302294">
  <ele>1583.56</ele>
  <time>2026-08-27T18:26:43Z</time>
  <course>167.27</course>
  <speed>0.0</speed>
  <fix>3d</fix>
</trkpt>
<trkpt lat="40.0738634" lon="-105.2302292">
  <ele>1583.65</ele>
  <time>2026-08-27T18:26:43Z</time>
  <course>13.16</course>
  <speed>0.01414213562373095</speed>
  <fix>3d</fix>
</trkpt>
<trkpt lat="40.0738635" lon="-105.2302294">
  <ele>1583.56</ele>
  <time>2026-08-27T18:26:43Z</time>
  <course>167.27</course>
  <speed>0.0</speed>
  <fix>3d</fix>
</trkpt>
<trkpt lat="40.0738634" lon="-105.2302293">
  <ele>1583.66</ele>
  <time>2026-08-27T18:26:43Z</time>
  <course>13.2</course>
  <speed>0.01414213562373095</speed>
  <fix>3d</fix>
</trkpt>
<trkpt lat="40.0738635" lon="-105.2302294">
  <ele>1583.56</ele>
  <time>2026-08-27T18:26:43Z</time>
  <course>167.27</course>
  <speed>0.0</speed>
  <fix>3d</fix>
</trkpt>
<trkpt lat="40.0738634" lon="-105.2302293">
  <ele>1583.66</ele>
  <time>2026-08-27T18:26:43Z</time>
  <course>13.24</course>
  <speed>0.01414213562373095</speed>
  <fix>3d</fix>
</trkpt>
<trkpt lat="40.0738635" lon="-105.2302294">
  <ele>1583.56</ele>
  <time>2026-08-27T18:26:43Z</time>
  <course>167.27</course>
  <speed>0.0</speed>
  <fix>3d</fix>
</trkpt>
<trkpt lat="40.0738634" lon="-105.2302293">
  <ele>1583.66</ele>
  <time>2026-08-27T18:26:43Z</time>
  <course>13.28</course>
  <speed>0.01414213562373095</speed>
  <fix>3d</fix>
</trkpt>
<trkpt lat="40.0738635" lon="-105.2302294">
  <ele>1583.56</ele>
  <time>2026-08-27T18:26:43Z</time>
  <course>182.22</course>
  <speed>0.0</speed>
  <fix>3d</fix>
</trkpt>
<trkpt lat="40.0738634" lon="-105.2302293">
  <ele>1583.66</ele>
  <time>2026-08-27T18:26:43Z</time>
  <course>13.32</course>
  <speed>0.01414213562373095</speed>
  <fix>3d</fix>
</trkpt>
<trkpt lat="40.0738635" lon="-105.2302294">
  <ele>1583.56</ele>
  <time>2026-08-27T18:26:43Z</time>
  <course>176.27</course>
  <speed>0.0</speed>
  <fix>3d</fix>
</trkpt>
<trkpt lat="40.0738634" lon="-105.2302293">
  <ele>1583.66</ele>
  <time>2026-08-27T18:26:43Z</time>
  <course>13.35</course>
  <speed>0.01414213562373095</speed>
  <fix>3d</fix>
</trkpt>
<trkpt lat="40.0738635" lon="-105.2302294">
  <ele>1583.56</ele>
  <time>2026-08-27T18:26:43Z</time>
  <course>161.85</course>
  <speed>0.0</speed>
  <fix>3d</fix>
</trkpt>
<trkpt lat="40.0738634" lon="-105.2302293">
  <ele>1583.66</ele>
  <time>2026-08-27T18:26:43Z</time>
  <course>13.39</course>
  <speed>0.01414213562373095</speed>
  <fix>3d</fix>
</trkpt>
<trkpt lat="40.0738635" lon="-105.2302294">
  <ele>1583.56</ele>
  <time>2026-08-27T18:26:43Z</time>
  <course>166.77</course>
  <speed>0.0</speed>
  <fix>3d</fix>
</trkpt>
<trkpt lat="40.0738634" lon="-105.2302293">
  <ele>1583.66</ele>
  <time>2026-08-27T18:26:43Z</time>
  <course>13.42</course>
  <speed>0.01414213562373095</speed>
  <fix>3d</fix>
</trkpt>
<trkpt lat="40.0738635" lon="-105.2302294">
  <ele>1583.56</ele>
  <time>2026-08-27T18:26:43Z</time>
  <course>168.15</course>
  <speed>0.0</speed>
  <fix>3d</fix>
</trkpt>
<trkpt lat="40.0738634" lon="-105.2302293">
  <ele>1583.66</ele>
  <time>2026-08-27T18:26:43Z</time>
  <course>13.46</course>
  <speed>0.01414213562373095</speed>
  <fix>3d</fix>
</trkpt>
<trkpt lat="40.0738635" lon="-105.2302294">
  <ele>1583.56</ele>
  <time>2026-08-27T18:26:43Z</time>
  <course>167.23</course>
  <speed>0.0</speed>
  <fix>3d</fix>
</trkpt>
<trkpt lat="40.0738634" lon="-105.2302293">
  <ele>1583.66</ele>
  <time>2026-08-27T18:26:43Z</time>
  <course>13.49</course>
  <speed>0.01414213562373095</speed>
  <fix>3d</fix>
</trkpt>
<trkpt lat="40.0738635" lon="-105.2302294">
  <ele>1583.56</ele>
  <time>2026-08-27T18:26:43Z</time>
  <course>167.16</course>
  <speed>0.0</speed>
  <fix>3d</fix>
</trkpt>
<trkpt lat="40.0738634" lon="-105.2302293">
  <ele>1583.66</ele>
  <time>2026-08-27T18:26:43Z</time>
  <course>13.52</course>
  <speed>0.01414213562373095</speed>
  <fix>3d</fix>
</trkpt>
<trkpt lat="40.0738635" lon="-105.2302294">
  <ele>1583.56</ele>
  <time>2026-08-27T18:26:43Z</time>
  <course>167.29</course>
  <speed>0.0</speed>
  <fix>3d</fix>
</trkpt>
<trkpt lat="40.0738634" lon="-105.2302293">
  <ele>1583.66</ele>
  <time>2026-08-27T18:26:43Z</time>
  <course>13.55</course>
  <speed>0.01414213562373095</speed>
  <fix>3d</fix>
</trkpt>
<trkpt lat="40.0738635" lon="-105.2302294">
  <ele>1583.56</ele>
  <time>2026-08-27T18:26:43Z</time>
  <course>167.28</course>
  <speed>0.0</speed>
  <fix>3d</fix>
</trkpt>
<trkpt lat="40.0738634" lon="-105.2302293">
  <ele>1583.66</ele>
  <time>2026-08-27T18:26:43Z</time>
  <course>13.58</course>
  <speed>0.01414213562373095</speed>
  <fix>3d</fix>
</trkpt>
<trkpt lat="40.0738635" lon="-105.2302294">
  <ele>1583.56</ele>
  <time>2026-08-27T18:26:43Z</time>
  <course>167.26</course>
  <speed>0.0</speed>
  <fix>3d</fix>
</trkpt>
<trkpt lat="40.0738634" lon="-105.2302293">
  <ele>1583.66</ele>
  <time>2026-08-27T18:26:43Z</time>
  <course>13.61</course>
  <speed>0.01414213562373095</speed>
  <fix>3d</fix>
</trkpt>
<trkpt lat="40.0738635" lon="-105.2302294">
  <ele>1583.56</ele>
  <time>2026-08-27T18:26:43Z</time>
  <course>167.27</course>
  <speed>0.0</speed>
  <fix>3d</fix>
</trkpt>
<trkpt lat="40.0738634" lon="-105.2302293">
  <ele>1583.66</ele>
  <time>2026-08-27T18:26:43Z</time>
  <course>13.64</course>
  <speed>0.01414213562373095</speed>
  <fix>3d</fix>
</trkpt>
<trkpt lat="40.0738635" lon="-105.2302294">
  <ele>1583.56</ele>
  <time>2026-08-27T18:26:43Z</time>
  <course>167.27</course>
  <speed>0.0</speed>
  <fix>3d</fix>
</trkpt>
<trkpt lat="40.0738634" lon="-105.2302293">
  <ele>1583.66</ele>
  <time>2026-08-27T18:26:43Z</time>
  <course>13.67</course>
  <speed>0.01414213562373095</speed>
  <fix>3d</fix>
</trkpt>
<trkpt lat="40.0738635" lon="-105.2302294">
  <ele>1583.56</ele>
  <time>2026-08-27T18:26:43Z</time>
  <course>167.27</course>
  <speed>0.0</speed>
  <fix>3d</fix>
</trkpt>
<trkpt lat="40.0738634" lon="-105.2302293">
  <ele>1583.66</ele>
  <time>2026-08-27T18:26:43Z</time>
  <course>13.7</course>
  <speed>0.01414213562373095</speed>
  <fix>3d</fix>
</trkpt>
<trkpt lat="40.0738635" lon="-105.2302294">
  <ele>1583.56</ele>
  <time>2026-08-27T18:26:43Z</time>
  <course>167.27</course>
  <speed>0.0</speed>
  <fix>3d</fix>
</trkpt>
<trkpt lat="40.0738634" lon="-105.2302293">
  <ele>1583.66</ele>
  <time>2026-08-27T18:26:43Z</time>
  <course>13.72</course>
  <speed>0.01414213562373095</speed>
  <fix>3d</fix>
</trkpt>
<trkpt lat="40.0738635" lon="-105.2302294">
  <ele>1583.56</ele>
  <time>2026-08-27T18:26:43Z</time>
  <course>277.6</course>
  <speed>0.0</speed>
  <fix>3d</fix>
</trkpt>
<trkpt lat="40.0738634" lon="-105.2302293">
  <ele>1583.66</ele>
  <time>2026-08-27T18:26:43Z</time>
  <course>13.75</course>
  <speed>0.01414213562373095</speed>
  <fix>3d</fix>
</trkpt>
<trkpt lat="40.0738635" lon="-105.2302294">
  <ele>1583.56</ele>
  <time>2026-08-27T18:26:43Z</time>
  <course>267.76</course>
  <speed>0.0</speed>
  <fix>3d</fix>
</trkpt>
<trkpt lat="40.0738634" lon="-105.2302293">
  <ele>1583.66</ele>
  <time>2026-08-27T18:26:43Z</time>
  <course>13.78</course>
  <speed>0.01414213562373095</speed>
  <fix>3d</fix>
</trkpt>
<trkpt lat="40.0738635" lon="-105.2302294">
  <ele>1583.56</ele>
  <time>2026-08-27T18:26:43Z</time>
  <course>183.25</course>
  <speed>0.0</speed>
  <fix>3d</fix>
</trkpt>
<trkpt lat="40.0738634" lon="-105.2302293">
  <ele>1583.66</ele>
  <time>2026-08-27T18:26:43Z</time>
  <course>13.8</course>
  <speed>0.01414213562373095</speed>
  <fix>3d</fix>
</trkpt>
<trkpt lat="40.0738635" lon="-105.2302294">
  <ele>1583.56</ele>
  <time>2026-08-27T18:26:43Z</time>
  <course>109.79</course>
  <speed>0.0</speed>
  <fix>3d</fix>
</trkpt>
<trkpt lat="40.0738634" lon="-105.2302293">
  <ele>1583.65</ele>
  <time>2026-08-27T18:26:43Z</time>
  <course>13.83</course>
  <speed>0.01414213562373095</speed>
  <fix>3d</fix>
</trkpt>
<trkpt lat="40.0738635" lon="-105.2302294">
  <ele>1583.56</ele>
  <time>2026-08-27T18:26:43Z</time>
  <course>205.51</course>
  <speed>0.0</speed>
  <fix>3d</fix>
</trkpt>
<trkpt lat="40.0738634" lon="-105.2302293">
  <ele>1583.65</ele>
  <time>2026-08-27T18:26:43Z</time>
  <course>13.85</course>
  <speed>0.01414213562373095</speed>
  <fix>3d</fix>
</trkpt>
<trkpt lat="40.0738635" lon="-105.2302294">
  <ele>1583.56</ele>
  <time>2026-08-27T18:26:43Z</time>
  <course>199.3</course>
  <speed>0.0</speed>
  <fix>3d</fix>
</trkpt>
<trkpt lat="40.0738634" lon="-105.2302293">
  <ele>1583.65</ele>
  <time>2026-08-27T18:26:43Z</time>
  <course>13.88</course>
  <speed>0.01414213562373095</speed>
  <fix>3d</fix>
</trkpt>
<trkpt lat="40.0738635" lon="-105.2302294">
  <ele>1583.56</ele>
  <time>2026-08-27T18:26:43Z</time>
  <course>183.79</course>
  <speed>0.0</speed>
  <fix>3d</fix>
</trkpt>
<trkpt lat="40.0738634" lon="-105.2302293">
  <ele>1583.65</ele>
  <time>2026-08-27T18:26:44Z</time>
  <course>13.9</course>
  <speed>0.01414213562373095</speed>
  <fix>3d</fix>
</trkpt>
<trkpt lat="40.0738635" lon="-105.2302294">
  <ele>1583.56</ele>
  <time>2026-08-27T18:26:44Z</time>
  <course>185.97</course>
  <speed>0.0</speed>
  <fix>3d</fix>
</trkpt>
<trkpt lat="40.0738634" lon="-105.2302293">
  <ele>1583.65</ele>
  <time>2026-08-27T18:26:44Z</time>
  <course>13.92</course>
  <speed>0.01414213562373095</speed>
  <fix>3d</fix>
</trkpt>
<trkpt lat="40.0738635" lon="-105.2302294">
  <ele>1583.56</ele>
  <time>2026-08-27T18:26:44Z</time>
  <course>188.0</course>
  <speed>0.0</speed>
  <fix>3d</fix>
</trkpt>
<trkpt lat="40.0738634" lon="-105.2302293">
  <ele>1583.65</ele>
  <time>2026-08-27T18:26:44Z</time>
  <course>13.94</course>
  <speed>0.01414213562373095</speed>
  <fix>3d</fix>
</trkpt>
<trkpt lat="40.0738635" lon="-105.2302294">
  <ele>1583.56</ele>
  <time>2026-08-27T18:26:44Z</time>
  <course>187.45</course>
  <speed>0.0</speed>
  <fix>3d</fix>
</trkpt>
<trkpt lat="40.0738634" lon="-105.2302293">
  <ele>1583.65</ele>
  <time>2026-08-27T18:26:44Z</time>
  <course>13.97</course>
  <speed>0.01414213562373095</speed>
  <fix>3d</fix>
</trkpt>
<trkpt lat="40.0738635" lon="-105.2302294">
  <ele>1583.56</ele>
  <time>2026-08-27T18:26:44Z</time>
  <course>187.25</course>
  <speed>0.0</speed>
  <fix>3d</fix>
</trkpt>
<trkpt lat="40.0738634" lon="-105.2302293">
  <ele>1583.65</ele>
  <time>2026-08-27T18:26:44Z</time>
  <course>13.99</course>
  <speed>0.01414213562373095</speed>
  <fix>3d</fix>
</trkpt>
<trkpt lat="40.0738635" lon="-105.2302294">
  <ele>1583.56</ele>
  <time>2026-08-27T18:26:44Z</time>
  <course>187.35</course>
  <speed>0.0</speed>
  <fix>3d</fix>
</trkpt>
<trkpt lat="40.0738634" lon="-105.2302293">
  <ele>1583.65</ele>
  <time>2026-08-27T18:26:44Z</time>
  <course>14.01</course>
  <speed>0.01414213562373095</speed>
  <fix>3d</fix>
</trkpt>
<trkpt lat="40.0738635" lon="-105.2302294">
  <ele>1583.56</ele>
  <time>2026-08-27T18:26:44Z</time>
  <course>187.36</course>
  <speed>0.0</speed>
  <fix>3d</fix>
</trkpt>
<trkpt lat="40.0738634" lon="-105.2302293">
  <ele>1583.65</ele>
  <time>2026-08-27T18:26:44Z</time>
  <course>14.03</course>
  <speed>0.01414213562373095</speed>
  <fix>3d</fix>
</trkpt>
<trkpt lat="40.0738635" lon="-105.2302294">
  <ele>1583.56</ele>
  <time>2026-08-27T18:26:44Z</time>
  <course>187.35</course>
  <speed>0.0</speed>
  <fix>3d</fix>
</trkpt>
<trkpt lat="40.0738634" lon="-105.2302293">
  <ele>1583.65</ele>
  <time>2026-08-27T18:26:44Z</time>
  <course>14.05</course>
  <speed>0.022360679774997897</speed>
  <fix>3d</fix>
</trkpt>
<trkpt lat="40.0738635" lon="-105.2302294">
  <ele>1583.56</ele>
  <time>2026-08-27T18:26:44Z</time>
  <course>187.35</course>
  <speed>0.0</speed>
  <fix>3d</fix>
</trkpt>
<trkpt lat="40.0738634" lon="-105.2302293">
  <ele>1583.65</ele>
  <time>2026-08-27T18:26:44Z</time>
  <course>14.07</course>
  <speed>0.022360679774997897</speed>
  <fix>3d</fix>
</trkpt>
<trkpt lat="40.0738635" lon="-105.2302294">
  <ele>1583.56</ele>
  <time>2026-08-27T18:26:44Z</time>
  <course>187.26</course>
  <speed>0.0</speed>
  <fix>3d</fix>
</trkpt>
<trkpt lat="40.0738634" lon="-105.2302293">
  <ele>1583.65</ele>
  <time>2026-08-27T18:26:44Z</time>
  <course>14.09</course>
  <speed>0.022360679774997897</speed>
  <fix>3d</fix>
</trkpt>
<trkpt lat="40.0738635" lon="-105.2302294">
  <ele>1583.56</ele>
  <time>2026-08-27T18:26:44Z</time>
  <course>186.16</course>
  <speed>0.0</speed>
  <fix>3d</fix>
</trkpt>
<trkpt lat="40.0738634" lon="-105.2302293">
  <ele>1583.65</ele>
  <time>2026-08-27T18:26:44Z</time>
  <course>14.11</course>
  <speed>0.022360679774997897</speed>
  <fix>3d</fix>
</trkpt>
<trkpt lat="40.0738635" lon="-105.2302294">
  <ele>1583.56</ele>
  <time>2026-08-27T18:26:44Z</time>
  <course>181.51</course>
  <speed>0.0</speed>
  <fix>3d</fix>
</trkpt>
<trkpt lat="40.0738634" lon="-105.2302293">
  <ele>1583.65</ele>
  <time>2026-08-27T18:26:44Z</time>
  <course>14.12</course>
  <speed>0.022360679774997897</speed>
  <fix>3d</fix>
</trkpt>
<trkpt lat="40.0738635" lon="-105.2302294">
  <ele>1583.56</ele>
  <time>2026-08-27T18:26:44Z</time>
  <course>344.85</course>
  <speed>0.0</speed>
  <fix>3d</fix>
</trkpt>
<trkpt lat="40.0738634" lon="-105.2302293">
  <ele>1583.65</ele>
  <time>2026-08-27T18:26:44Z</time>
  <course>14.13</course>
  <speed>0.022360679774997897</speed>
  <fix>3d</fix>
</trkpt>
<trkpt lat="40.0738635" lon="-105.2302294">
  <ele>1583.56</ele>
  <time>2026-08-27T18:26:44Z</time>
  <course>333.25</course>
  <speed>0.0</speed>
  <fix>3d</fix>
</trkpt>
<trkpt lat="40.0738634" lon="-105.2302293">
  <ele>1583.65</ele>
  <time>2026-08-27T18:26:44Z</time>
  <course>14.14</course>
  <speed>0.022360679774997897</speed>
  <fix>3d</fix>
</trkpt>
<trkpt lat="40.0738635" lon="-105.2302294">
  <ele>1583.56</ele>
  <time>2026-08-27T18:26:44Z</time>
  <course>238.45</course>
  <speed>0.0</speed>
  <fix>3d</fix>
</trkpt>
<trkpt lat="40.0738634" lon="-105.2302293">
  <ele>1583.65</ele>
  <time>2026-08-27T18:26:44Z</time>
  <course>14.15</course>
  <speed>0.022360679774997897</speed>
  <fix>3d</fix>
</trkpt>
<trkpt lat="40.0738635" lon="-105.2302294">
  <ele>1583.56</ele>
  <time>2026-08-27T18:26:44Z</time>
  <course>131.48</course>
  <speed>0.0</speed>
  <fix>3d</fix>
</trkpt>
<trkpt lat="40.0738634" lon="-105.2302293">
  <ele>1583.65</ele>
  <time>2026-08-27T18:26:44Z</time>
  <course>14.16</course>
  <speed>0.022360679774997897</speed>
  <fix>3d</fix>
</trkpt>
<trkpt lat="40.0738635" lon="-105.2302294">
  <ele>1583.56</ele>
  <time>2026-08-27T18:26:44Z</time>
  <course>102.15</course>
  <speed>0.0</speed>
  <fix>3d</fix>
</trkpt>
<trkpt lat="40.0738634" lon="-105.2302293">
  <ele>1583.65</ele>
  <time>2026-08-27T18:26:44Z</time>
  <course>14.16</course>
  <speed>0.022360679774997897</speed>
  <fix>3d</fix>
</trkpt>
<trkpt lat="40.0738635" lon="-105.2302294">
  <ele>1583.56</ele>
  <time>2026-08-27T18:26:44Z</time>
  <course>101.63</course>
  <speed>0.0</speed>
  <fix>3d</fix>
</trkpt>
<trkpt lat="40.0738634" lon="-105.2302293">
  <ele>1583.65</ele>
  <time>2026-08-27T18:26:44Z</time>
  <course>14.16</course>
  <speed>0.022360679774997897</speed>
  <fix>3d</fix>
</trkpt>
<trkpt lat="40.0738635" lon="-105.2302294">
  <ele>1583.56</ele>
  <time>2026-08-27T18:26:44Z</time>
  <course>100.55</course>
  <speed>0.0</speed>
  <fix>3d</fix>
</trkpt>
<trkpt lat="40.0738634" lon="-105.2302293">
  <ele>1583.65</ele>
  <time>2026-08-27T18:26:44Z</time>
  <course>14.16</course>
  <speed>0.022360679774997897</speed>
  <fix>3d</fix>
</trkpt>
<trkpt lat="40.0738635" lon="-105.2302294">
  <ele>1583.56</ele>
  <time>2026-08-27T18:26:44Z</time>
  <course>98.62</course>
  <speed>0.0</speed>
  <fix>3d</fix>
</trkpt>
<trkpt lat="40.0738634" lon="-105.2302293">
  <ele>1583.65</ele>
  <time>2026-08-27T18:26:44Z</time>
  <course>14.16</course>
  <speed>0.022360679774997897</speed>
  <fix>3d</fix>
</trkpt>
<trkpt lat="40.0738635" lon="-105.2302294">
  <ele>1583.56</ele>
  <time>2026-08-27T18:26:44Z</time>
  <course>98.51</course>
  <speed>0.0</speed>
  <fix>3d</fix>
</trkpt>
<trkpt lat="40.0738634" lon="-105.2302293">
  <ele>1583.65</ele>
  <time>2026-08-27T18:26:44Z</time>
  <course>14.16</course>
  <speed>0.022360679774997897</speed>
  <fix>3d</fix>
</trkpt>
<trkpt lat="40.0738635" lon="-105.2302294">
  <ele>1583.56</ele>
  <time>2026-08-27T18:26:44Z</time>
  <course>100.75</course>
  <speed>0.0</speed>
  <fix>3d</fix>
</trkpt>
<trkpt lat="40.0738634" lon="-105.2302293">
  <ele>1583.65</ele>
  <time>2026-08-27T18:26:44Z</time>
  <course>14.15</course>
  <speed>0.022360679774997897</speed>
  <fix>3d</fix>
</trkpt>
<trkpt lat="40.0738635" lon="-105.2302294">
  <ele>1583.56</ele>
  <time>2026-08-27T18:26:44Z</time>
  <course>100.11</course>
  <speed>0.0</speed>
  <fix>3d</fix>
</trkpt>
<trkpt lat="40.0738634" lon="-105.2302293">
  <ele>1583.65</ele>
  <time>2026-08-27T18:26:44Z</time>
  <course>14.15</course>
  <speed>0.022360679774997897</speed>
  <fix>3d</fix>
</trkpt>
<trkpt lat="40.0738635" lon="-105.2302294">
  <ele>1583.56</ele>
  <time>2026-08-27T18:26:44Z</time>
  <course>97.83</course>
  <speed>0.0</speed>
  <fix>3d</fix>
</trkpt>
<trkpt lat="40.0738634" lon="-105.2302293">
  <ele>1583.65</ele>
  <time>2026-08-27T18:26:44Z</time>
  <course>14.14</course>
  <speed>0.022360679774997897</speed>
  <fix>3d</fix>
</trkpt>
<trkpt lat="40.0738635" lon="-105.2302294">
  <ele>1583.56</ele>
  <time>2026-08-27T18:26:44Z</time>
  <course>97.61</course>
  <speed>0.0</speed>
  <fix>3d</fix>
</trkpt>
<trkpt lat="40.0738634" lon="-105.2302293">
  <ele>1583.65</ele>
  <time>2026-08-27T18:26:44Z</time>
  <course>14.12</course>
  <speed>0.022360679774997897</speed>
  <fix>3d</fix>
</trkpt>
<trkpt lat="40.0738635" lon="-105.2302294">
  <ele>1583.56</ele>
  <time>2026-08-27T18:26:44Z</time>
  <course>97.58</course>
  <speed>0.0</speed>
  <fix>3d</fix>
</trkpt>
<trkpt lat="40.0738634" lon="-105.2302293">
  <ele>1583.65</ele>
  <time>2026-08-27T18:26:44Z</time>
  <course>14.11</course>
  <speed>0.022360679774997897</speed>
  <fix>3d</fix>
</trkpt>
<trkpt lat="40.0738635" lon="-105.2302294">
  <ele>1583.56</ele>
  <time>2026-08-27T18:26:44Z</time>
  <course>97.45</course>
  <speed>0.0</speed>
  <fix>3d</fix>
</trkpt>
<trkpt lat="40.0738634" lon="-105.2302293">
  <ele>1583.65</ele>
  <time>2026-08-27T18:26:44Z</time>
  <course>14.1</course>
  <speed>0.022360679774997897</speed>
  <fix>3d</fix>
</trkpt>
<trkpt lat="40.0738635" lon="-105.2302294">
  <ele>1583.56</ele>
  <time>2026-08-27T18:26:44Z</time>
  <course>97.35</course>
  <speed>0.0</speed>
  <fix>3d</fix>
</trkpt>
<trkpt lat="40.0738634" lon="-105.2302293">
  <ele>1583.66</ele>
  <time>2026-08-27T18:26:44Z</time>
  <course>14.08</course>
  <speed>0.022360679774997897</speed>
  <fix>3d</fix>
</trkpt>
<trkpt lat="40.0738635" lon="-105.2302294">
  <ele>1583.56</ele>
  <time>2026-08-27T18:26:44Z</time>
  <course>97.29</course>
  <speed>0.0</speed>
  <fix>3d</fix>
</trkpt>
<trkpt lat="40.0738634" lon="-105.2302293">
  <ele>1583.66</ele>
  <time>2026-08-27T18:26:44Z</time>
  <course>14.06</course>
  <speed>0.022360679774997897</speed>
  <fix>3d</fix>
</trkpt>
<trkpt lat="40.0738635" lon="-105.2302294">
  <ele>1583.56</ele>
  <time>2026-08-27T18:26:44Z</time>
  <course>98.33</course>
  <speed>0.0</speed>
  <fix>3d</fix>
</trkpt>
<trkpt lat="40.0738634" lon="-105.2302293">
  <ele>1583.66</ele>
  <time>2026-08-27T18:26:44Z</time>
  <course>14.04</course>
  <speed>0.022360679774997897</speed>
  <fix>3d</fix>
</trkpt>
<trkpt lat="40.0738635" lon="-105.2302294">
  <ele>1583.56</ele>
  <time>2026-08-27T18:26:44Z</time>
  <course>258.01</course>
  <speed>0.0</speed>
  <fix>3d</fix>
</trkpt>
<trkpt lat="40.0738634" lon="-105.2302293">
  <ele>1583.66</ele>
  <time>2026-08-27T18:26:44Z</time>
  <course>14.02</course>
  <speed>0.022360679774997897</speed>
  <fix>3d</fix>
</trkpt>
<trkpt lat="40.0738635" lon="-105.2302294">
  <ele>1583.56</ele>
  <time>2026-08-27T18:26:44Z</time>
  <course>122.1</course>
  <speed>0.0</speed>
  <fix>3d</fix>
</trkpt>
<trkpt lat="40.0738634" lon="-105.2302293">
  <ele>1583.66</ele>
  <time>2026-08-27T18:26:44Z</time>
  <course>13.99</course>
  <speed>0.022360679774997897</speed>
  <fix>3d</fix>
</trkpt>
<trkpt lat="40.0738635" lon="-105.2302294">
  <ele>1583.56</ele>
  <time>2026-08-27T18:26:44Z</time>
  <course>97.13</course>
  <speed>0.0</speed>
  <fix>3d</fix>
</trkpt>
<trkpt lat="40.0738634" lon="-105.2302293">
  <ele>1583.66</ele>
  <time>2026-08-27T18:26:44Z</time>
  <course>13.97</course>
  <speed>0.022360679774997897</speed>
  <fix>3d</fix>
</trkpt>
<trkpt lat="40.0738635" lon="-105.2302294">
  <ele>1583.56</ele>
  <time>2026-08-27T18:26:44Z</time>
  <course>97.56</course>
  <speed>0.0</speed>
  <fix>3d</fix>
</trkpt>
<trkpt lat="40.0738634" lon="-105.2302293">
  <ele>1583.66</ele>
  <time>2026-08-27T18:26:44Z</time>
  <course>13.94</course>
  <speed>0.022360679774997897</speed>
  <fix>3d</fix>
</trkpt>
<trkpt lat="40.0738635" lon="-105.2302294">
  <ele>1583.56</ele>
  <time>2026-08-27T18:26:44Z</time>
  <course>270.67</course>
  <speed>0.0</speed>
  <fix>3d</fix>
</trkpt>
<trkpt lat="40.0738634" lon="-105.2302293">
  <ele>1583.66</ele>
  <time>2026-08-27T18:26:44Z</time>
  <course>13.91</course>
  <speed>0.022360679774997897</speed>
  <fix>3d</fix>
</trkpt>
<trkpt lat="40.0738635" lon="-105.2302294">
  <ele>1583.56</ele>
  <time>2026-08-27T18:26:44Z</time>
  <course>271.59</course>
  <speed>0.0</speed>
  <fix>3d</fix>
</trkpt>
<trkpt lat="40.0738634" lon="-105.2302293">
  <ele>1583.66</ele>
  <time>2026-08-27T18:26:44Z</time>
  <course>13.88</course>
  <speed>0.022360679774997897</speed>
  <fix>3d</fix>
</trkpt>
<trkpt lat="40.0738635" lon="-105.2302294">
  <ele>1583.56</ele>
  <time>2026-08-27T18:26:44Z</time>
  <course>99.32</course>
  <speed>0.0</speed>
  <fix>3d</fix>
</trkpt>
<trkpt lat="40.0738634" lon="-105.2302293">
  <ele>1583.66</ele>
  <time>2026-08-27T18:26:44Z</time>
  <course>13.85</course>
  <speed>0.022360679774997897</speed>
  <fix>3d</fix>
</trkpt>
<trkpt lat="40.0738635" lon="-105.2302294">
  <ele>1583.56</ele>
  <time>2026-08-27T18:26:44Z</time>
  <course>269.63</course>
  <speed>0.0</speed>
  <fix>3d</fix>
</trkpt>
<trkpt lat="40.0738634" lon="-105.2302293">
  <ele>1583.65</ele>
  <time>2026-08-27T18:26:44Z</time>
  <course>13.81</course>
  <speed>0.022360679774997897</speed>
  <fix>3d</fix>
</trkpt>
<trkpt lat="40.0738635" lon="-105.2302294">
  <ele>1583.56</ele>
  <time>2026-08-27T18:26:44Z</time>
  <course>272.26</course>
  <speed>0.0</speed>
  <fix>3d</fix>
</trkpt>
<trkpt lat="40.0738634" lon="-105.2302293">
  <ele>1583.65</ele>
  <time>2026-08-27T18:26:44Z</time>
  <course>13.78</course>
  <speed>0.022360679774997897</speed>
  <fix>3d</fix>
</trkpt>
<trkpt lat="40.0738635" lon="-105.2302294">
  <ele>1583.56</ele>
  <time>2026-08-27T18:26:44Z</time>
  <course>251.91</course>
  <speed>0.0</speed>
  <fix>3d</fix>
</trkpt>
<trkpt lat="40.0738634" lon="-105.2302293">
  <ele>1583.65</ele>
  <time>2026-08-27T18:26:44Z</time>
  <course>13.74</course>
  <speed>0.022360679774997897</speed>
  <fix>3d</fix>
</trkpt>
<trkpt lat="40.0738635" lon="-105.2302294">
  <ele>1583.56</ele>
  <time>2026-08-27T18:26:44Z</time>
  <course>271.4</course>
  <speed>0.0</speed>
  <fix>3d</fix>
</trkpt>
<trkpt lat="40.0738634" lon="-105.2302293">
  <ele>1583.65</ele>
  <time>2026-08-27T18:26:44Z</time>
  <course>13.7</course>
  <speed>0.022360679774997897</speed>
  <fix>3d</fix>
</trkpt>
<trkpt lat="40.0738635" lon="-105.2302294">
  <ele>1583.56</ele>
  <time>2026-08-27T18:26:44Z</time>
  <course>272.31</course>
  <speed>0.0</speed>
  <fix>3d</fix>
</trkpt>
<trkpt lat="40.0738634" lon="-105.2302293">
  <ele>1583.65</ele>
  <time>2026-08-27T18:26:44Z</time>
  <course>13.66</course>
  <speed>0.022360679774997897</speed>
  <fix>3d</fix>
</trkpt>
<trkpt lat="40.0738635" lon="-105.2302294">
  <ele>1583.56</ele>
  <time>2026-08-27T18:26:44Z</time>
  <course>170.89</course>
  <speed>0.0</speed>
  <fix>3d</fix>
</trkpt>
<trkpt lat="40.0738634" lon="-105.2302293">
  <ele>1583.65</ele>
  <time>2026-08-27T18:26:44Z</time>
  <course>13.62</course>
  <speed>0.022360679774997897</speed>
  <fix>3d</fix>
</trkpt>
<trkpt lat="40.0738635" lon="-105.2302294">
  <ele>1583.56</ele>
  <time>2026-08-27T18:26:44Z</time>
  <course>215.88</course>
  <speed>0.0</speed>
  <fix>3d</fix>
</trkpt>
<trkpt lat="40.0738634" lon="-105.2302293">
  <ele>1583.65</ele>
  <time>2026-08-27T18:26:44Z</time>
  <course>13.58</course>
  <speed>0.022360679774997897</speed>
  <fix>3d</fix>
</trkpt>
<trkpt lat="40.0738635" lon="-105.2302294">
  <ele>1583.56</ele>
  <time>2026-08-27T18:26:44Z</time>
  <course>271.58</course>
  <speed>0.0</speed>
  <fix>3d</fix>
</trkpt>
<trkpt lat="40.0738634" lon="-105.2302293">
  <ele>1583.65</ele>
  <time>2026-08-27T18:26:44Z</time>
  <course>13.53</course>
  <speed>0.022360679774997897</speed>
  <fix>3d</fix>
</trkpt>
<trkpt lat="40.0738635" lon="-105.2302294">
  <ele>1583.56</ele>
  <time>2026-08-27T18:26:44Z</time>
  <course>77.67</course>
  <speed>0.0</speed>
  <fix>3d</fix>
</trkpt>
<trkpt lat="40.0738634" lon="-105.2302293">
  <ele>1583.66</ele>
  <time>2026-08-27T18:26:44Z</time>
  <course>13.49</course>
  <speed>0.022360679774997897</speed>
  <fix>3d</fix>
</trkpt>
<trkpt lat="40.0738635" lon="-105.2302294">
  <ele>1583.56</ele>
  <time>2026-08-27T18:26:44Z</time>
  <course>130.44</course>
  <speed>0.0</speed>
  <fix>3d</fix>
</trkpt>
<trkpt lat="40.0738634" lon="-105.2302293">
  <ele>1583.66</ele>
  <time>2026-08-27T18:26:44Z</time>
  <course>13.44</course>
  <speed>0.022360679774997897</speed>
  <fix>3d</fix>
</trkpt>
<trkpt lat="40.0738635" lon="-105.2302294">
  <ele>1583.56</ele>
  <time>2026-08-27T18:26:44Z</time>
  <course>269.97</course>
  <speed>0.0</speed>
  <fix>3d</fix>
</trkpt>
<trkpt lat="40.0738634" lon="-105.2302293">
  <ele>1583.66</ele>
  <time>2026-08-27T18:26:44Z</time>
  <course>13.39</course>
  <speed>0.022360679774997897</speed>
  <fix>3d</fix>
</trkpt>
<trkpt lat="40.0738635" lon="-105.2302294">
  <ele>1583.56</ele>
  <time>2026-08-27T18:26:44Z</time>
  <course>271.84</course>
  <speed>0.0</speed>
  <fix>3d</fix>
</trkpt>
<trkpt lat="40.0738634" lon="-105.2302293">
  <ele>1583.66</ele>
  <time>2026-08-27T18:26:44Z</time>
  <course>13.34</course>
  <speed>0.022360679774997897</speed>
  <fix>3d</fix>
</trkpt>
<trkpt lat="40.0738635" lon="-105.2302294">
  <ele>1583.56</ele>
  <time>2026-08-27T18:26:44Z</time>
  <course>271.49</course>
  <speed>0.0</speed>
  <fix>3d</fix>
</trkpt>
<trkpt lat="40.0738634" lon="-105.2302293">
  <ele>1583.66</ele>
  <time>2026-08-27T18:26:44Z</time>
  <course>13.29</course>
  <speed>0.022360679774997897</speed>
  <fix>3d</fix>
</trkpt>
<trkpt lat="40.0738635" lon="-105.2302294">
  <ele>1583.56</ele>
  <time>2026-08-27T18:26:44Z</time>
  <course>271.34</course>
  <speed>0.0</speed>
  <fix>3d</fix>
</trkpt>
<trkpt lat="40.0738634" lon="-105.2302293">
  <ele>1583.66</ele>
  <time>2026-08-27T18:26:44Z</time>
  <course>13.24</course>
  <speed>0.022360679774997897</speed>
  <fix>3d</fix>
</trkpt>
<trkpt lat="40.0738635" lon="-105.2302294">
  <ele>1583.56</ele>
  <time>2026-08-27T18:26:44Z</time>
  <course>271.14</course>
  <speed>0.0</speed>
  <fix>3d</fix>
</trkpt>
<trkpt lat="40.0738634" lon="-105.2302293">
  <ele>1583.66</ele>
  <time>2026-08-27T18:26:44Z</time>
  <course>13.2</course>
  <speed>0.022360679774997897</speed>
  <fix>3d</fix>
</trkpt>
<trkpt lat="40.0738635" lon="-105.2302294">
  <ele>1583.56</ele>
  <time>2026-08-27T18:26:44Z</time>
  <course>271.12</course>
  <speed>0.0</speed>
  <fix>3d</fix>
</trkpt>
<trkpt lat="40.0738634" lon="-105.2302293">
  <ele>1583.66</ele>
  <time>2026-08-27T18:26:44Z</time>
  <course>13.15</course>
  <speed>0.022360679774997897</speed>
  <fix>3d</fix>
</trkpt>
<trkpt lat="40.0738635" lon="-105.2302294">
  <ele>1583.56</ele>
  <time>2026-08-27T18:26:44Z</time>
  <course>270.8</course>
  <speed>0.0</speed>
  <fix>3d</fix>
</trkpt>
<trkpt lat="40.0738634" lon="-105.2302293">
  <ele>1583.66</ele>
  <time>2026-08-27T18:26:44Z</time>
  <course>13.1</course>
  <speed>0.022360679774997897</speed>
  <fix>3d</fix>
</trkpt>
<trkpt lat="40.0738635" lon="-105.2302294">
  <ele>1583.56</ele>
  <time>2026-08-27T18:26:44Z</time>
  <course>270.82</course>
  <speed>0.0</speed>
  <fix>3d</fix>
</trkpt>
<trkpt lat="40.0738634" lon="-105.2302293">
  <ele>1583.66</ele>
  <time>2026-08-27T18:26:44Z</time>
  <course>13.06</course>
  <speed>0.022360679774997897</speed>
  <fix>3d</fix>
</trkpt>
<trkpt lat="40.0738635" lon="-105.2302294">
  <ele>1583.56</ele>
  <time>2026-08-27T18:26:44Z</time>
  <course>269.39</course>
  <speed>0.0</speed>
  <fix>3d</fix>
</trkpt>
<trkpt lat="40.0738634" lon="-105.2302293">
  <ele>1583.66</ele>
  <time>2026-08-27T18:26:44Z</time>
  <course>13.01</course>
  <speed>0.022360679774997897</speed>
  <fix>3d</fix>
</trkpt>
<trkpt lat="40.0738635" lon="-105.2302294">
  <ele>1583.56</ele>
  <time>2026-08-27T18:26:44Z</time>
  <course>270.33</course>
  <speed>0.0</speed>
  <fix>3d</fix>
</trkpt>
<trkpt lat="40.0738634" lon="-105.2302293">
  <ele>1583.66</ele>
  <time>2026-08-27T18:26:44Z</time>
  <course>12.97</course>
  <speed>0.022360679774997897</speed>
  <fix>3d</fix>
</trkpt>
<trkpt lat="40.0738635" lon="-105.2302294">
  <ele>1583.56</ele>
  <time>2026-08-27T18:26:44Z</time>
  <course>270.59</course>
  <speed>0.0</speed>
  <fix>3d</fix>
</trkpt>
<trkpt lat="40.0738634" lon="-105.2302293">
  <ele>1583.66</ele>
  <time>2026-08-27T18:26:44Z</time>
  <course>12.92</course>
  <speed>0.022360679774997897</speed>
  <fix>3d</fix>
</trkpt>
<trkpt lat="40.0738635" lon="-105.2302294">
  <ele>1583.56</ele>
  <time>2026-08-27T18:26:44Z</time>
  <course>270.52</course>
  <speed>0.0</speed>
  <fix>3d</fix>
</trkpt>
<trkpt lat="40.0738634" lon="-105.2302293">
  <ele>1583.66</ele>
  <time>2026-08-27T18:26:44Z</time>
  <course>12.88</course>
  <speed>0.022360679774997897</speed>
  <fix>3d</fix>
</trkpt>
<trkpt lat="40.0738635" lon="-105.2302294">
  <ele>1583.56</ele>
  <time>2026-08-27T18:26:44Z</time>
  <course>270.65</course>
  <speed>0.0</speed>
  <fix>3d</fix>
</trkpt>
<trkpt lat="40.0738634" lon="-105.2302293">
  <ele>1583.66</ele>
  <time>2026-08-27T18:26:44Z</time>
  <course>12.83</course>
  <speed>0.022360679774997897</speed>
  <fix>3d</fix>
</trkpt>
<trkpt lat="40.0738635" lon="-105.2302294">
  <ele>1583.56</ele>
  <time>2026-08-27T18:26:44Z</time>
  <course>270.49</course>
  <speed>0.0</speed>
  <fix>3d</fix>
</trkpt>
<trkpt lat="40.0738634" lon="-105.2302293">
  <ele>1583.66</ele>
  <time>2026-08-27T18:26:44Z</time>
  <course>12.79</course>
  <speed>0.022360679774997897</speed>
  <fix>3d</fix>
</trkpt>
<trkpt lat="40.0738635" lon="-105.2302294">
  <ele>1583.56</ele>
  <time>2026-08-27T18:26:44Z</time>
  <course>270.74</course>
  <speed>0.0</speed>
  <fix>3d</fix>
</trkpt>
<trkpt lat="40.0738634" lon="-105.2302293">
  <ele>1583.66</ele>
  <time>2026-08-27T18:26:44Z</time>
  <course>12.75</course>
  <speed>0.022360679774997897</speed>
  <fix>3d</fix>
</trkpt>
<trkpt lat="40.0738635" lon="-105.2302294">
  <ele>1583.56</ele>
  <time>2026-08-27T18:26:44Z</time>
  <course>270.02</course>
  <speed>0.0</speed>
  <fix>3d</fix>
</trkpt>
<trkpt lat="40.0738634" lon="-105.2302293">
  <ele>1583.67</ele>
  <time>2026-08-27T18:26:44Z</time>
  <course>12.71</course>
  <speed>0.022360679774997897</speed>
  <fix>3d</fix>
</trkpt>
<trkpt lat="40.0738635" lon="-105.2302294">
  <ele>1583.56</ele>
  <time>2026-08-27T18:26:44Z</time>
  <course>270.44</course>
  <speed>0.0</speed>
  <fix>3d</fix>
</trkpt>
<trkpt lat="40.0738634" lon="-105.2302293">
  <ele>1583.67</ele>
  <time>2026-08-27T18:26:44Z</time>
  <course>12.66</course>
  <speed>0.022360679774997897</speed>
  <fix>3d</fix>
</trkpt>
<trkpt lat="40.0738635" lon="-105.2302294">
  <ele>1583.56</ele>
  <time>2026-08-27T18:26:44Z</time>
  <course>268.45</course>
  <speed>0.0</speed>
  <fix>3d</fix>
</trkpt>
<trkpt lat="40.0738634" lon="-105.2302293">
  <ele>1583.67</ele>
  <time>2026-08-27T18:26:44Z</time>
  <course>12.62</course>
  <speed>0.022360679774997897</speed>
  <fix>3d</fix>
</trkpt>
<trkpt lat="40.0738635" lon="-105.2302294">
  <ele>1583.56</ele>
  <time>2026-08-27T18:26:44Z</time>
  <course>269.85</course>
  <speed>0.0</speed>
  <fix>3d</fix>
</trkpt>
<trkpt lat="40.0738634" lon="-105.2302293">
  <ele>1583.67</ele>
  <time>2026-08-27T18:26:44Z</time>
  <course>12.58</course>
  <speed>0.022360679774997897</speed>
  <fix>3d</fix>
</trkpt>
<trkpt lat="40.0738635" lon="-105.2302294">
  <ele>1583.56</ele>
  <time>2026-08-27T18:26:44Z</time>
  <course>270.21</course>
  <speed>0.0</speed>
  <fix>3d</fix>
</trkpt>
<trkpt lat="40.0738634" lon="-105.2302293">
  <ele>1583.67</ele>
  <time>2026-08-27T18:26:44Z</time>
  <course>12.54</course>
  <speed>0.022360679774997897</speed>
  <fix>3d</fix>
</trkpt>
<trkpt lat="40.0738635" lon="-105.2302294">
  <ele>1583.56</ele>
  <time>2026-08-27T18:26:44Z</time>
  <course>270.05</course>
  <speed>0.0</speed>
  <fix>3d</fix>
</trkpt>
<trkpt lat="40.0738634" lon="-105.2302293">
  <ele>1583.67</ele>
  <time>2026-08-27T18:26:44Z</time>
  <course>12.5</course>
  <speed>0.022360679774997897</speed>
  <fix>3d</fix>
</trkpt>
<trkpt lat="40.0738635" lon="-105.2302294">
  <ele>1583.56</ele>
  <time>2026-08-27T18:26:44Z</time>
  <course>270.26</course>
  <speed>0.0</speed>
  <fix>3d</fix>
</trkpt>
<trkpt lat="40.0738634" lon="-105.2302293">
  <ele>1583.67</ele>
  <time>2026-08-27T18:26:44Z</time>
  <course>12.46</course>
  <speed>0.022360679774997897</speed>
  <fix>3d</fix>
</trkpt>
<trkpt lat="40.0738635" lon="-105.2302294">
  <ele>1583.56</ele>
  <time>2026-08-27T18:26:44Z</time>
  <course>268.98</course>
  <speed>0.0</speed>
  <fix>3d</fix>
</trkpt>
<trkpt lat="40.0738634" lon="-105.2302293">
  <ele>1583.66</ele>
  <time>2026-08-27T18:26:44Z</time>
  <course>12.42</course>
  <speed>0.022360679774997897</speed>
  <fix>3d</fix>
</trkpt>
<trkpt lat="40.0738635" lon="-105.2302294">
  <ele>1583.56</ele>
  <time>2026-08-27T18:26:44Z</time>
  <course>269.92</course>
  <speed>0.0</speed>
  <fix>3d</fix>
</trkpt>
<trkpt lat="40.0738634" lon="-105.2302293">
  <ele>1583.66</ele>
  <time>2026-08-27T18:26:44Z</time>
  <course>12.38</course>
  <speed>0.022360679774997897</speed>
  <fix>3d</fix>
</trkpt>
<trkpt lat="40.0738635" lon="-105.2302294">
  <ele>1583.56</ele>
  <time>2026-08-27T18:26:44Z</time>
  <course>268.72</course>
  <speed>0.0</speed>
  <fix>3d</fix>
</trkpt>
<trkpt lat="40.0738634" lon="-105.2302293">
  <ele>1583.66</ele>
  <time>2026-08-27T18:26:44Z</time>
  <course>12.35</course>
  <speed>0.022360679774997897</speed>
  <fix>3d</fix>
</trkpt>
<trkpt lat="40.0738635" lon="-105.2302294">
  <ele>1583.56</ele>
  <time>2026-08-27T18:26:44Z</time>
  <course>269.57</course>
  <speed>0.0</speed>
  <fix>3d</fix>
</trkpt>
<trkpt lat="40.0738634" lon="-105.2302293">
  <ele>1583.66</ele>
  <time>2026-08-27T18:26:44Z</time>
  <course>12.31</course>
  <speed>0.022360679774997897</speed>
  <fix>3d</fix>
</trkpt>
<trkpt lat="40.0738635" lon="-105.2302294">
  <ele>1583.56</ele>
  <time>2026-08-27T18:26:44Z</time>
  <course>270.01</course>
  <speed>0.0</speed>
  <fix>3d</fix>
</trkpt>
<trkpt lat="40.0738634" lon="-105.2302293">
  <ele>1583.66</ele>
  <time>2026-08-27T18:26:44Z</time>
  <course>12.27</course>
  <speed>0.022360679774997897</speed>
  <fix>3d</fix>
</trkpt>
<trkpt lat="40.0738635" lon="-105.2302294">
  <ele>1583.56</ele>
  <time>2026-08-27T18:26:44Z</time>
  <course>264.49</course>
  <speed>0.0</speed>
  <fix>3d</fix>
</trkpt>
<trkpt lat="40.0738634" lon="-105.2302293">
  <ele>1583.66</ele>
  <time>2026-08-27T18:26:44Z</time>
  <course>12.23</course>
  <speed>0.022360679774997897</speed>
  <fix>3d</fix>
</trkpt>
<trkpt lat="40.0738635" lon="-105.2302294">
  <ele>1583.56</ele>
  <time>2026-08-27T18:26:44Z</time>
  <course>269.23</course>
  <speed>0.0</speed>
  <fix>3d</fix>
</trkpt>
<trkpt lat="40.0738634" lon="-105.2302293">
  <ele>1583.65</ele>
  <time>2026-08-27T18:26:44Z</time>
  <course>12.2</course>
  <speed>0.022360679774997897</speed>
  <fix>3d</fix>
</trkpt>
<trkpt lat="40.0738635" lon="-105.2302294">
  <ele>1583.56</ele>
  <time>2026-08-27T18:26:44Z</time>
  <course>269.49</course>
  <speed>0.0</speed>
  <fix>3d</fix>
</trkpt>
<trkpt lat="40.0738634" lon="-105.2302293">
  <ele>1583.65</ele>
  <time>2026-08-27T18:26:44Z</time>
  <course>12.16</course>
  <speed>0.022360679774997897</speed>
  <fix>3d</fix>
</trkpt>
<trkpt lat="40.0738635" lon="-105.2302294">
  <ele>1583.56</ele>
  <time>2026-08-27T18:26:44Z</time>
  <course>268.72</course>
  <speed>0.0</speed>
  <fix>3d</fix>
</trkpt>
<trkpt lat="40.0738634" lon="-105.2302293">
  <ele>1583.65</ele>
  <time>2026-08-27T18:26:44Z</time>
  <course>12.12</course>
  <speed>0.022360679774997897</speed>
  <fix>3d</fix>
</trkpt>
<trkpt lat="40.0738635" lon="-105.2302294">
  <ele>1583.56</ele>
  <time>2026-08-27T18:26:44Z</time>
  <course>269.76</course>
  <speed>0.0</speed>
  <fix>3d</fix>
</trkpt>
<trkpt lat="40.0738634" lon="-105.2302293">
  <ele>1583.65</ele>
  <time>2026-08-27T18:26:44Z</time>
  <course>12.09</course>
  <speed>0.022360679774997897</speed>
  <fix>3d</fix>
</trkpt>
<trkpt lat="40.0738635" lon="-105.2302294">
  <ele>1583.56</ele>
  <time>2026-08-27T18:26:44Z</time>
  <course>268.03</course>
  <speed>0.0</speed>
  <fix>3d</fix>
</trkpt>
<trkpt lat="40.0738634" lon="-105.2302293">
  <ele>1583.65</ele>
  <time>2026-08-27T18:26:44Z</time>
  <course>12.05</course>
  <speed>0.022360679774997897</speed>
  <fix>3d</fix>
</trkpt>
<trkpt lat="40.0738635" lon="-105.2302294">
  <ele>1583.56</ele>
  <time>2026-08-27T18:26:44Z</time>
  <course>269.19</course>
  <speed>0.0</speed>
  <fix>3d</fix>
</trkpt>
<trkpt lat="40.0738634" lon="-105.2302293">
  <ele>1583.65</ele>
  <time>2026-08-27T18:26:44Z</time>
  <course>12.02</course>
  <speed>0.022360679774997897</speed>
  <fix>3d</fix>
</trkpt>
<trkpt lat="40.0738635" lon="-105.2302294">
  <ele>1583.56</ele>
  <time>2026-08-27T18:26:44Z</time>
  <course>269.7</course>
  <speed>0.0</speed>
  <fix>3d</fix>
</trkpt>
<trkpt lat="40.0738634" lon="-105.2302293">
  <ele>1583.65</ele>
  <time>2026-08-27T18:26:44Z</time>
  <course>11.98</course>
  <speed>0.022360679774997897</speed>
  <fix>3d</fix>
</trkpt>
<trkpt lat="40.0738635" lon="-105.2302294">
  <ele>1583.56</ele>
  <time>2026-08-27T18:26:44Z</time>
  <course>265.77</course>
  <speed>0.0</speed>
  <fix>3d</fix>
</trkpt>
<trkpt lat="40.0738634" lon="-105.2302293">
  <ele>1583.65</ele>
  <time>2026-08-27T18:26:44Z</time>
  <course>11.95</course>
  <speed>0.022360679774997897</speed>
  <fix>3d</fix>
</trkpt>
<trkpt lat="40.0738635" lon="-105.2302294">
  <ele>1583.56</ele>
  <time>2026-08-27T18:26:44Z</time>
  <course>269.04</course>
  <speed>0.0</speed>
  <fix>3d</fix>
</trkpt>
<trkpt lat="40.0738634" lon="-105.2302293">
  <ele>1583.65</ele>
  <time>2026-08-27T18:26:44Z</time>
  <course>11.92</course>
  <speed>0.022360679774997897</speed>
  <fix>3d</fix>
</trkpt>
<trkpt lat="40.0738635" lon="-105.2302294">
  <ele>1583.56</ele>
  <time>2026-08-27T18:26:44Z</time>
  <course>269.36</course>
  <speed>0.0</speed>
  <fix>3d</fix>
</trkpt>
<trkpt lat="40.0738634" lon="-105.2302293">
  <ele>1583.65</ele>
  <time>2026-08-27T18:26:44Z</time>
  <course>11.88</course>
  <speed>0.022360679774997897</speed>
  <fix>3d</fix>
</trkpt>
<trkpt lat="40.0738635" lon="-105.2302294">
  <ele>1583.56</ele>
  <time>2026-08-27T18:26:44Z</time>
  <course>263.84</course>
  <speed>0.0</speed>
  <fix>3d</fix>
</trkpt>
<trkpt lat="40.0738634" lon="-105.2302293">
  <ele>1583.65</ele>
  <time>2026-08-27T18:26:44Z</time>
  <course>11.85</course>
  <speed>0.022360679774997897</speed>
  <fix>3d</fix>
</trkpt>
<trkpt lat="40.0738635" lon="-105.2302294">
  <ele>1583.56</ele>
  <time>2026-08-27T18:26:44Z</time>
  <course>269.07</course>
  <speed>0.0</speed>
  <fix>3d</fix>
</trkpt>
<trkpt lat="40.0738634" lon="-105.2302293">
  <ele>1583.65</ele>
  <time>2026-08-27T18:26:44Z</time>
  <course>11.82</course>
  <speed>0.022360679774997897</speed>
  <fix>3d</fix>
</trkpt>
<trkpt lat="40.0738635" lon="-105.2302294">
  <ele>1583.56</ele>
  <time>2026-08-27T18:26:44Z</time>
  <course>269.4</course>
  <speed>0.0</speed>
  <fix>3d</fix>
</trkpt>
<trkpt lat="40.0738634" lon="-105.2302293">
  <ele>1583.65</ele>
  <time>2026-08-27T18:26:44Z</time>
  <course>11.78</course>
  <speed>0.022360679774997897</speed>
  <fix>3d</fix>
</trkpt>
<trkpt lat="40.0738635" lon="-105.2302294">
  <ele>1583.56</ele>
  <time>2026-08-27T18:26:44Z</time>
  <course>264.88</course>
  <speed>0.0</speed>
  <fix>3d</fix>
</trkpt>
<trkpt lat="40.0738634" lon="-105.2302293">
  <ele>1583.65</ele>
  <time>2026-08-27T18:26:44Z</time>
  <course>11.75</course>
  <speed>0.022360679774997897</speed>
  <fix>3d</fix>
</trkpt>
<trkpt lat="40.0738635" lon="-105.2302294">
  <ele>1583.56</ele>
  <time>2026-08-27T18:26:44Z</time>
  <course>268.9</course>
  <speed>0.0</speed>
  <fix>3d</fix>
</trkpt>
<trkpt lat="40.0738634" lon="-105.2302293">
  <ele>1583.65</ele>
  <time>2026-08-27T18:26:44Z</time>
  <course>11.72</course>
  <speed>0.022360679774997897</speed>
  <fix>3d</fix>
</trkpt>
<trkpt lat="40.0738635" lon="-105.2302294">
  <ele>1583.56</ele>
  <time>2026-08-27T18:26:44Z</time>
  <course>269.23</course>
  <speed>0.0</speed>
  <fix>3d</fix>
</trkpt>
<trkpt lat="40.0738634" lon="-105.2302293">
  <ele>1583.65</ele>
  <time>2026-08-27T18:26:44Z</time>
  <course>11.69</course>
  <speed>0.022360679774997897</speed>
  <fix>3d</fix>
</trkpt>
<trkpt lat="40.0738635" lon="-105.2302294">
  <ele>1583.56</ele>
  <time>2026-08-27T18:26:44Z</time>
  <course>264.82</course>
  <speed>0.0</speed>
  <fix>3d</fix>
</trkpt>
<trkpt lat="40.0738634" lon="-105.2302293">
  <ele>1583.65</ele>
  <time>2026-08-27T18:26:44Z</time>
  <course>11.66</course>
  <speed>0.022360679774997897</speed>
  <fix>3d</fix>
</trkpt>
<trkpt lat="40.0738635" lon="-105.2302294">
  <ele>1583.56</ele>
  <time>2026-08-27T18:26:44Z</time>
  <course>268.83</course>
  <speed>0.0</speed>
  <fix>3d</fix>
</trkpt>
<trkpt lat="40.0738634" lon="-105.2302293">
  <ele>1583.65</ele>
  <time>2026-08-27T18:26:44Z</time>
  <course>11.63</course>
  <speed>0.022360679774997897</speed>
  <fix>3d</fix>
</trkpt>
<trkpt lat="40.0738635" lon="-105.2302294">
  <ele>1583.56</ele>
  <time>2026-08-27T18:26:44Z</time>
  <course>269.17</course>
  <speed>0.0</speed>
  <fix>3d</fix>
</trkpt>
<trkpt lat="40.0738634" lon="-105.2302293">
  <ele>1583.64</ele>
  <time>2026-08-27T18:26:44Z</time>
  <course>11.6</course>
  <speed>0.022360679774997897</speed>
  <fix>3d</fix>
</trkpt>
<trkpt lat="40.0738635" lon="-105.2302294">
  <ele>1583.56</ele>
  <time>2026-08-27T18:26:44Z</time>
  <course>265.31</course>
  <speed>0.0</speed>
  <fix>3d</fix>
</trkpt>
<trkpt lat="40.0738634" lon="-105.2302293">
  <ele>1583.64</ele>
  <time>2026-08-27T18:26:44Z</time>
  <course>11.57</course>
  <speed>0.022360679774997897</speed>
  <fix>3d</fix>
</trkpt>
<trkpt lat="40.0738635" lon="-105.2302294">
  <ele>1583.56</ele>
  <time>2026-08-27T18:26:44Z</time>
  <course>268.68</course>
  <speed>0.0</speed>
  <fix>3d</fix>
</trkpt>
<trkpt lat="40.0738634" lon="-105.2302293">
  <ele>1583.64</ele>
  <time>2026-08-27T18:26:44Z</time>
  <course>11.54</course>
  <speed>0.022360679774997897</speed>
  <fix>3d</fix>
</trkpt>
<trkpt lat="40.0738635" lon="-105.2302294">
  <ele>1583.56</ele>
  <time>2026-08-27T18:26:44Z</time>
  <course>269.19</course>
  <speed>0.0</speed>
  <fix>3d</fix>
</trkpt>
<trkpt lat="40.0738634" lon="-105.2302293">
  <ele>1583.64</ele>
  <time>2026-08-27T18:26:44Z</time>
  <course>11.51</course>
  <speed>0.022360679774997897</speed>
  <fix>3d</fix>
</trkpt>
<trkpt lat="40.0738635" lon="-105.2302294">
  <ele>1583.56</ele>
  <time>2026-08-27T18:26:44Z</time>
  <course>266.47</course>
  <speed>0.0</speed>
  <fix>3d</fix>
</trkpt>
<trkpt lat="40.0738634" lon="-105.2302293">
  <ele>1583.64</ele>
  <time>2026-08-27T18:26:44Z</time>
  <course>11.48</course>
  <speed>0.022360679774997897</speed>
  <fix>3d</fix>
</trkpt>
<trkpt lat="40.0738635" lon="-105.2302294">
  <ele>1583.56</ele>
  <time>2026-08-27T18:26:44Z</time>
  <course>263.47</course>
  <speed>0.0</speed>
  <fix>3d</fix>
</trkpt>
<trkpt lat="40.0738634" lon="-105.2302293">
  <ele>1583.64</ele>
  <time>2026-08-27T18:26:44Z</time>
  <course>11.45</course>
  <speed>0.022360679774997897</speed>
  <fix>3d</fix>
</trkpt>
<trkpt lat="40.0738635" lon="-105.2302294">
  <ele>1583.56</ele>
  <time>2026-08-27T18:26:44Z</time>
  <course>268.64</course>
  <speed>0.0</speed>
  <fix>3d</fix>
</trkpt>
<trkpt lat="40.0738634" lon="-105.2302293">
  <ele>1583.64</ele>
  <time>2026-08-27T18:26:44Z</time>
  <course>11.42</course>
  <speed>0.022360679774997897</speed>
  <fix>3d</fix>
</trkpt>
<trkpt lat="40.0738635" lon="-105.2302294">
  <ele>1583.56</ele>
  <time>2026-08-27T18:26:44Z</time>
  <course>268.6</course>
  <speed>0.0</speed>
  <fix>3d</fix>
</trkpt>
<trkpt lat="40.0738634" lon="-105.2302293">
  <ele>1583.64</ele>
  <time>2026-08-27T18:26:44Z</time>
  <course>11.39</course>
  <speed>0.022360679774997897</speed>
  <fix>3d</fix>
</trkpt>
<trkpt lat="40.0738635" lon="-105.2302294">
  <ele>1583.56</ele>
  <time>2026-08-27T18:26:44Z</time>
  <course>264.12</course>
  <speed>0.0</speed>
  <fix>3d</fix>
</trkpt>
<trkpt lat="40.0738634" lon="-105.2302293">
  <ele>1583.64</ele>
  <time>2026-08-27T18:26:44Z</time>
  <course>11.37</course>
  <speed>0.022360679774997897</speed>
  <fix>3d</fix>
</trkpt>
<trkpt lat="40.0738635" lon="-105.2302294">
  <ele>1583.56</ele>
  <time>2026-08-27T18:26:44Z</time>
  <course>268.56</course>
  <speed>0.0</speed>
  <fix>3d</fix>
</trkpt>
<trkpt lat="40.0738634" lon="-105.2302293">
  <ele>1583.64</ele>
  <time>2026-08-27T18:26:44Z</time>
  <course>11.34</course>
  <speed>0.022360679774997897</speed>
  <fix>3d</fix>
</trkpt>
<trkpt lat="40.0738635" lon="-105.2302294">
  <ele>1583.56</ele>
  <time>2026-08-27T18:26:44Z</time>
  <course>268.93</course>
  <speed>0.0</speed>
  <fix>3d</fix>
</trkpt>
<trkpt lat="40.0738634" lon="-105.2302293">
  <ele>1583.64</ele>
  <time>2026-08-27T18:26:44Z</time>
  <course>11.31</course>
  <speed>0.022360679774997897</speed>
  <fix>3d</fix>
</trkpt>
<trkpt lat="40.0738635" lon="-105.2302294">
  <ele>1583.56</ele>
  <time>2026-08-27T18:26:44Z</time>
  <course>266.18</course>
  <speed>0.0</speed>
  <fix>3d</fix>
</trkpt>
<trkpt lat="40.0738634" lon="-105.2302293">
  <ele>1583.64</ele>
  <time>2026-08-27T18:26:44Z</time>
  <course>11.28</course>
  <speed>0.022360679774997897</speed>
  <fix>3d</fix>
</trkpt>
<trkpt lat="40.0738635" lon="-105.2302294">
  <ele>1583.56</ele>
  <time>2026-08-27T18:26:44Z</time>
  <course>266.11</course>
  <speed>0.0</speed>
  <fix>3d</fix>
</trkpt>
<trkpt lat="40.0738634" lon="-105.2302293">
  <ele>1583.64</ele>
  <time>2026-08-27T18:26:44Z</time>
  <course>11.26</course>
  <speed>0.022360679774997897</speed>
  <fix>3d</fix>
</trkpt>
<trkpt lat="40.0738635" lon="-105.2302294">
  <ele>1583.56</ele>
  <time>2026-08-27T18:26:44Z</time>
  <course>268.53</course>
  <speed>0.0</speed>
  <fix>3d</fix>
</trkpt>
<trkpt lat="40.0738634" lon="-105.2302293">
  <ele>1583.64</ele>
  <time>2026-08-27T18:26:44Z</time>
  <course>11.23</course>
  <speed>0.022360679774997897</speed>
  <fix>3d</fix>
</trkpt>
<trkpt lat="40.0738635" lon="-105.2302294">
  <ele>1583.56</ele>
  <time>2026-08-27T18:26:44Z</time>
  <course>268.05</course>
  <speed>0.0</speed>
  <fix>3d</fix>
</trkpt>
<trkpt lat="40.0738634" lon="-105.2302293">
  <ele>1583.63</ele>
  <time>2026-08-27T18:26:44Z</time>
  <course>11.2</course>
  <speed>0.022360679774997897</speed>
  <fix>3d</fix>
</trkpt>
<trkpt lat="40.0738635" lon="-105.2302294">
  <ele>1583.56</ele>
  <time>2026-08-27T18:26:44Z</time>
  <course>264.08</course>
  <speed>0.0</speed>
  <fix>3d</fix>
</trkpt>
<trkpt lat="40.0738634" lon="-105.2302293">
  <ele>1583.63</ele>
  <time>2026-08-27T18:26:44Z</time>
  <course>11.18</course>
  <speed>0.022360679774997897</speed>
  <fix>3d</fix>
</trkpt>
<trkpt lat="40.0738635" lon="-105.2302294">
  <ele>1583.56</ele>
  <time>2026-08-27T18:26:44Z</time>
  <course>268.31</course>
  <speed>0.0</speed>
  <fix>3d</fix>
</trkpt>
<trkpt lat="40.0738634" lon="-105.2302293">
  <ele>1583.63</ele>
  <time>2026-08-27T18:26:44Z</time>
  <course>11.15</course>
  <speed>0.022360679774997897</speed>
  <fix>3d</fix>
</trkpt>
<trkpt lat="40.0738635" lon="-105.2302294">
  <ele>1583.56</ele>
  <time>2026-08-27T18:26:44Z</time>
  <course>268.74</course>
  <speed>0.0</speed>
  <fix>3d</fix>
</trkpt>
<trkpt lat="40.0738634" lon="-105.2302293">
  <ele>1583.63</ele>
  <time>2026-08-27T18:26:44Z</time>
  <course>11.13</course>
  <speed>0.022360679774997897</speed>
  <fix>3d</fix>
</trkpt>
<trkpt lat="40.0738635" lon="-105.2302294">
  <ele>1583.56</ele>
  <time>2026-08-27T18:26:44Z</time>
  <course>266.74</course>
  <speed>0.0</speed>
  <fix>3d</fix>
</trkpt>
<trkpt lat="40.0738634" lon="-105.2302293">
  <ele>1583.63</ele>
  <time>2026-08-27T18:26:44Z</time>
  <course>11.1</course>
  <speed>0.022360679774997897</speed>
  <fix>3d</fix>
</trkpt>
<trkpt lat="40.0738635" lon="-105.2302294">
  <ele>1583.56</ele>
  <time>2026-08-27T18:26:44Z</time>
  <course>264.3</course>
  <speed>0.0</speed>
  <fix>3d</fix>
</trkpt>
<trkpt lat="40.0738634" lon="-105.2302293">
  <ele>1583.63</ele>
  <time>2026-08-27T18:26:44Z</time>
  <course>11.08</course>
  <speed>0.022360679774997897</speed>
  <fix>3d</fix>
</trkpt>
<trkpt lat="40.0738635" lon="-105.2302294">
  <ele>1583.56</ele>
  <time>2026-08-27T18:26:44Z</time>
  <course>268.04</course>
  <speed>0.0</speed>
  <fix>3d</fix>
</trkpt>
<trkpt lat="40.0738634" lon="-105.2302293">
  <ele>1583.63</ele>
  <time>2026-08-27T18:26:44Z</time>
  <course>11.05</course>
  <speed>0.022360679774997897</speed>
  <fix>3d</fix>
</trkpt>
<trkpt lat="40.0738635" lon="-105.2302294">
  <ele>1583.56</ele>
  <time>2026-08-27T18:26:44Z</time>
  <course>268.58</course>
  <speed>0.0</speed>
  <fix>3d</fix>
</trkpt>
<trkpt lat="40.0738634" lon="-105.2302293">
  <ele>1583.63</ele>
  <time>2026-08-27T18:26:44Z</time>
  <course>11.03</course>
  <speed>0.022360679774997897</speed>
  <fix>3d</fix>
</trkpt>
<trkpt lat="40.0738635" lon="-105.2302294">
  <ele>1583.56</ele>
  <time>2026-08-27T18:26:44Z</time>
  <course>267.17</course>
  <speed>0.0</speed>
  <fix>3d</fix>
</trkpt>
<trkpt lat="40.0738634" lon="-105.2302293">
  <ele>1583.63</ele>
  <time>2026-08-27T18:26:44Z</time>
  <course>11.0</course>
  <speed>0.022360679774997897</speed>
  <fix>3d</fix>
</trkpt>
<trkpt lat="40.0738635" lon="-105.2302294">
  <ele>1583.56</ele>
  <time>2026-08-27T18:26:44Z</time>
  <course>264.36</course>
  <speed>0.0</speed>
  <fix>3d</fix>
</trkpt>
<trkpt lat="40.0738634" lon="-105.2302293">
  <ele>1583.63</ele>
  <time>2026-08-27T18:26:44Z</time>
  <course>10.98</course>
  <speed>0.022360679774997897</speed>
  <fix>3d</fix>
</trkpt>
<trkpt lat="40.0738635" lon="-105.2302294">
  <ele>1583.56</ele>
  <time>2026-08-27T18:26:44Z</time>
  <course>268.07</course>
  <speed>0.0</speed>
  <fix>3d</fix>
</trkpt>
<trkpt lat="40.0738634" lon="-105.2302293">
  <ele>1583.62</ele>
  <time>2026-08-27T18:26:44Z</time>
  <course>10.95</course>
  <speed>0.022360679774997897</speed>
  <fix>3d</fix>
</trkpt>
<trkpt lat="40.0738635" lon="-105.2302294">
  <ele>1583.56</ele>
  <time>2026-08-27T18:26:44Z</time>
  <course>268.5</course>
  <speed>0.0</speed>
  <fix>3d</fix>
</trkpt>
<trkpt lat="40.0738634" lon="-105.2302293">
  <ele>1583.62</ele>
  <time>2026-08-27T18:26:44Z</time>
  <course>10.93</course>
  <speed>0.022360679774997897</speed>
  <fix>3d</fix>
</trkpt>
<trkpt lat="40.0738635" lon="-105.2302294">
  <ele>1583.56</ele>
  <time>2026-08-27T18:26:44Z</time>
  <course>266.88</course>
  <speed>0.0</speed>
  <fix>3d</fix>
</trkpt>
<trkpt lat="40.0738634" lon="-105.2302293">
  <ele>1583.62</ele>
  <time>2026-08-27T18:26:45Z</time>
  <course>10.91</course>
  <speed>0.022360679774997897</speed>
  <fix>3d</fix>
</trkpt>
<trkpt lat="40.0738635" lon="-105.2302294">
  <ele>1583.56</ele>
  <time>2026-08-27T18:26:45Z</time>
  <course>264.56</course>
  <speed>0.0</speed>
  <fix>3d</fix>
</trkpt>
<trkpt lat="40.0738634" lon="-105.2302293">
  <ele>1583.62</ele>
  <time>2026-08-27T18:26:45Z</time>
  <course>10.88</course>
  <speed>0.01414213562373095</speed>
  <fix>3d</fix>
</trkpt>
<trkpt lat="40.0738635" lon="-105.2302294">
  <ele>1583.56</ele>
  <time>2026-08-27T18:26:45Z</time>
  <course>266.6</course>
  <speed>0.0</speed>
  <fix>3d</fix>
</trkpt>
<trkpt lat="40.0738634" lon="-105.2302293">
  <ele>1583.63</ele>
  <time>2026-08-27T18:26:45Z</time>
  <course>10.86</course>
  <speed>0.01414213562373095</speed>
  <fix>3d</fix>
</trkpt>
<trkpt lat="40.0738635" lon="-105.2302294">
  <ele>1583.56</ele>
  <time>2026-08-27T18:26:45Z</time>
  <course>267.13</course>
  <speed>0.0</speed>
  <fix>3d</fix>
</trkpt>
<trkpt lat="40.0738634" lon="-105.2302293">
  <ele>1583.63</ele>
  <time>2026-08-27T18:26:45Z</time>
  <course>10.84</course>
  <speed>0.01414213562373095</speed>
  <fix>3d</fix>
</trkpt>
<trkpt lat="40.0738635" lon="-105.2302294">
  <ele>1583.56</ele>
  <time>2026-08-27T18:26:45Z</time>
  <course>269.51</course>
  <speed>0.0</speed>
  <fix>3d</fix>
</trkpt>
<trkpt lat="40.0738634" lon="-105.2302293">
  <ele>1583.63</ele>
  <time>2026-08-27T18:26:45Z</time>
  <course>10.81</course>
  <speed>0.01414213562373095</speed>
  <fix>3d</fix>
</trkpt>
<trkpt lat="40.0738635" lon="-105.2302294">
  <ele>1583.56</ele>
  <time>2026-08-27T18:26:45Z</time>
  <course>268.53</course>
  <speed>0.0</speed>
  <fix>3d</fix>
</trkpt>
<trkpt lat="40.0738634" lon="-105.2302293">
  <ele>1583.63</ele>
  <time>2026-08-27T18:26:45Z</time>
  <course>10.79</course>
  <speed>0.01414213562373095</speed>
  <fix>3d</fix>
</trkpt>
<trkpt lat="40.0738635" lon="-105.2302294">
  <ele>1583.56</ele>
  <time>2026-08-27T18:26:45Z</time>
  <course>266.83</course>
  <speed>0.0</speed>
  <fix>3d</fix>
</trkpt>
<trkpt lat="40.0738634" lon="-105.2302293">
  <ele>1583.63</ele>
  <time>2026-08-27T18:26:45Z</time>
  <course>10.77</course>
  <speed>0.01414213562373095</speed>
  <fix>3d</fix>
</trkpt>
<trkpt lat="40.0738635" lon="-105.2302294">
  <ele>1583.56</ele>
  <time>2026-08-27T18:26:45Z</time>
  <course>268.05</course>
  <speed>0.0</speed>
  <fix>3d</fix>
</trkpt>
<trkpt lat="40.0738634" lon="-105.2302293">
  <ele>1583.62</ele>
  <time>2026-08-27T18:26:45Z</time>
  <course>10.75</course>
  <speed>0.01414213562373095</speed>
  <fix>3d</fix>
</trkpt>
<trkpt lat="40.0738635" lon="-105.2302294">
  <ele>1583.56</ele>
  <time>2026-08-27T18:26:45Z</time>
  <course>267.5</course>
  <speed>0.0</speed>
  <fix>3d</fix>
</trkpt>
<trkpt lat="40.0738634" lon="-105.2302293">
  <ele>1583.63</ele>
  <time>2026-08-27T18:26:45Z</time>
  <course>10.72</course>
  <speed>0.01414213562373095</speed>
  <fix>3d</fix>
</trkpt>
<trkpt lat="40.0738635" lon="-105.2302294">
  <ele>1583.56</ele>
  <time>2026-08-27T18:26:45Z</time>
  <course>264.84</course>
  <speed>0.0</speed>
  <fix>3d</fix>
</trkpt>
<trkpt lat="40.0738634" lon="-105.2302293">
  <ele>1583.63</ele>
  <time>2026-08-27T18:26:45Z</time>
  <course>10.7</course>
  <speed>0.01414213562373095</speed>
  <fix>3d</fix>
</trkpt>
<trkpt lat="40.0738635" lon="-105.2302294">
  <ele>1583.56</ele>
  <time>2026-08-27T18:26:45Z</time>
  <course>265.76</course>
  <speed>0.0</speed>
  <fix>3d</fix>
</trkpt>
<trkpt lat="40.0738634" lon="-105.2302293">
  <ele>1583.63</ele>
  <time>2026-08-27T18:26:45Z</time>
  <course>10.68</course>
  <speed>0.01414213562373095</speed>
  <fix>3d</fix>
</trkpt>
<trkpt lat="40.0738635" lon="-105.2302294">
  <ele>1583.56</ele>
  <time>2026-08-27T18:26:45Z</time>
  <course>267.91</course>
  <speed>0.0</speed>
  <fix>3d</fix>
</trkpt>
<trkpt lat="40.0738634" lon="-105.2302293">
  <ele>1583.63</ele>
  <time>2026-08-27T18:26:45Z</time>
  <course>10.66</course>
  <speed>0.01414213562373095</speed>
  <fix>3d</fix>
</trkpt>
<trkpt lat="40.0738635" lon="-105.2302294">
  <ele>1583.56</ele>
  <time>2026-08-27T18:26:45Z</time>
  <course>268.18</course>
  <speed>0.0</speed>
  <fix>3d</fix>
</trkpt>
<trkpt lat="40.0738634" lon="-105.2302293">
  <ele>1583.63</ele>
  <time>2026-08-27T18:26:45Z</time>
  <course>10.64</course>
  <speed>0.01414213562373095</speed>
  <fix>3d</fix>
</trkpt>
<trkpt lat="40.0738635" lon="-105.2302294">
  <ele>1583.56</ele>
  <time>2026-08-27T18:26:45Z</time>
  <course>266.67</course>
  <speed>0.0</speed>
  <fix>3d</fix>
</trkpt>
<trkpt lat="40.0738634" lon="-105.2302293">
  <ele>1583.63</ele>
  <time>2026-08-27T18:26:45Z</time>
  <course>10.61</course>
  <speed>0.01414213562373095</speed>
  <fix>3d</fix>
</trkpt>
<trkpt lat="40.0738635" lon="-105.2302294">
  <ele>1583.56</ele>
  <time>2026-08-27T18:26:45Z</time>
  <course>265.0</course>
  <speed>0.0</speed>
  <fix>3d</fix>
</trkpt>
<trkpt lat="40.0738634" lon="-105.2302293">
  <ele>1583.63</ele>
  <time>2026-08-27T18:26:45Z</time>
  <course>10.59</course>
  <speed>0.01414213562373095</speed>
  <fix>3d</fix>
</trkpt>
<trkpt lat="40.0738635" lon="-105.2302294">
  <ele>1583.56</ele>
  <time>2026-08-27T18:26:45Z</time>
  <course>265.96</course>
  <speed>0.0</speed>
  <fix>3d</fix>
</trkpt>
<trkpt lat="40.0738634" lon="-105.2302293">
  <ele>1583.63</ele>
  <time>2026-08-27T18:26:45Z</time>
  <course>10.57</course>
  <speed>0.01414213562373095</speed>
  <fix>3d</fix>
</trkpt>
<trkpt lat="40.0738635" lon="-105.2302294">
  <ele>1583.56</ele>
  <time>2026-08-27T18:26:45Z</time>
  <course>267.74</course>
  <speed>0.0</speed>
  <fix>3d</fix>
</trkpt>
<trkpt lat="40.0738634" lon="-105.2302293">
  <ele>1583.63</ele>
  <time>2026-08-27T18:26:45Z</time>
  <course>10.55</course>
  <speed>0.01414213562373095</speed>
  <fix>3d</fix>
</trkpt>
<trkpt lat="40.0738635" lon="-105.2302294">
  <ele>1583.56</ele>
  <time>2026-08-27T18:26:45Z</time>
  <course>267.64</course>
  <speed>0.0</speed>
  <fix>3d</fix>
</trkpt>
<trkpt lat="40.0738634" lon="-105.2302293">
  <ele>1583.63</ele>
  <time>2026-08-27T18:26:45Z</time>
  <course>10.53</course>
  <speed>0.01414213562373095</speed>
  <fix>3d</fix>
</trkpt>
<trkpt lat="40.0738635" lon="-105.2302294">
  <ele>1583.56</ele>
  <time>2026-08-27T18:26:45Z</time>
  <course>265.21</course>
  <speed>0.0</speed>
  <fix>3d</fix>
</trkpt>
<trkpt lat="40.0738634" lon="-105.2302293">
  <ele>1583.63</ele>
  <time>2026-08-27T18:26:45Z</time>
  <course>10.51</course>
  <speed>0.01414213562373095</speed>
  <fix>3d</fix>
</trkpt>
<trkpt lat="40.0738635" lon="-105.2302294">
  <ele>1583.56</ele>
  <time>2026-08-27T18:26:45Z</time>
  <course>265.66</course>
  <speed>0.0</speed>
  <fix>3d</fix>
</trkpt>
<trkpt lat="40.0738634" lon="-105.2302293">
  <ele>1583.63</ele>
  <time>2026-08-27T18:26:45Z</time>
  <course>10.49</course>
  <speed>0.01</speed>
  <fix>3d</fix>
</trkpt>
<trkpt lat="40.0738635" lon="-105.2302294">
  <ele>1583.56</ele>
  <time>2026-08-27T18:26:45Z</time>
  <course>267.72</course>
  <speed>0.0</speed>
  <fix>3d</fix>
</trkpt>
<trkpt lat="40.0738634" lon="-105.2302293">
  <ele>1583.63</ele>
  <time>2026-08-27T18:26:45Z</time>
  <course>10.47</course>
  <speed>0.01414213562373095</speed>
  <fix>3d</fix>
</trkpt>
<trkpt lat="40.0738635" lon="-105.2302294">
  <ele>1583.56</ele>
  <time>2026-08-27T18:26:45Z</time>
  <course>267.98</course>
  <speed>0.0</speed>
  <fix>3d</fix>
</trkpt>
<trkpt lat="40.0738634" lon="-105.2302293">
  <ele>1583.63</ele>
  <time>2026-08-27T18:26:45Z</time>
  <course>10.45</course>
  <speed>0.01</speed>
  <fix>3d</fix>
</trkpt>
<trkpt lat="40.0738635" lon="-105.2302294">
  <ele>1583.56</ele>
  <time>2026-08-27T18:26:45Z</time>
  <course>266.61</course>
  <speed>0.0</speed>
  <fix>3d</fix>
</trkpt>
<trkpt lat="40.0738634" lon="-105.2302293">
  <ele>1583.63</ele>
  <time>2026-08-27T18:26:45Z</time>
  <course>10.43</course>
  <speed>0.01</speed>
  <fix>3d</fix>
</trkpt>
<trkpt lat="40.0738635" lon="-105.2302294">
  <ele>1583.56</ele>
  <time>2026-08-27T18:26:45Z</time>
  <course>268.73</course>
  <speed>0.0</speed>
  <fix>3d</fix>
</trkpt>
<trkpt lat="40.0738634" lon="-105.2302293">
  <ele>1583.64</ele>
  <time>2026-08-27T18:26:45Z</time>
  <course>10.42</course>
  <speed>0.01</speed>
  <fix>3d</fix>
</trkpt>
<trkpt lat="40.0738635" lon="-105.2302294">
  <ele>1583.56</ele>
  <time>2026-08-27T18:26:45Z</time>
  <course>267.19</course>
  <speed>0.0</speed>
  <fix>3d</fix>
</trkpt>
<trkpt lat="40.0738634" lon="-105.2302293">
  <ele>1583.64</ele>
  <time>2026-08-27T18:26:45Z</time>
  <course>10.41</course>
  <speed>0.01</speed>
  <fix>3d</fix>
</trkpt>
<trkpt lat="40.0738635" lon="-105.2302294">
  <ele>1583.56</ele>
  <time>2026-08-27T18:26:45Z</time>
  <course>263.83</course>
  <speed>0.0</speed>
  <fix>3d</fix>
</trkpt>
<trkpt lat="40.0738634" lon="-105.2302293">
  <ele>1583.64</ele>
  <time>2026-08-27T18:26:45Z</time>
  <course>10.41</course>
  <speed>0.01</speed>
  <fix>3d</fix>
</trkpt>
<trkpt lat="40.0738634" lon="-105.2302293">
  <ele>1583.64</ele>
  <time>2026-08-27T18:26:45Z</time>
  <course>10.39</course>
  <speed>0.01</speed>
  <fix>3d</fix>
</trkpt>
<trkpt lat="40.0738635" lon="-105.2302294">
  <ele>1583.56</ele>
  <time>2026-08-27T18:26:45Z</time>
  <course>264.75</course>
  <speed>0.0</speed>
  <fix>3d</fix>
</trkpt>
<trkpt lat="40.0738634" lon="-105.2302293">
  <ele>1583.64</ele>
  <time>2026-08-27T18:26:45Z</time>
  <course>10.38</course>
  <speed>0.01</speed>
  <fix>3d</fix>
</trkpt>
<trkpt lat="40.0738634" lon="-105.2302293">
  <ele>1583.64</ele>
  <time>2026-08-27T18:26:45Z</time>
  <course>10.35</course>
  <speed>0.01</speed>
  <fix>3d</fix>
</trkpt>
<trkpt lat="40.0738635" lon="-105.2302294">
  <ele>1583.56</ele>
  <time>2026-08-27T18:26:45Z</time>
  <course>265.35</course>
  <speed>0.0</speed>
  <fix>3d</fix>
</trkpt>
<trkpt lat="40.0738634" lon="-105.2302293">
  <ele>1583.64</ele>
  <time>2026-08-27T18:26:45Z</time>
  <course>10.35</course>
  <speed>0.01</speed>
  <fix>3d</fix>
</trkpt>
<trkpt lat="40.0738634" lon="-105.2302293">
  <ele>1583.66</ele>
  <time>2026-08-27T18:26:45Z</time>
  <course>10.29</course>
  <speed>0.01</speed>
  <fix>3d</fix>
</trkpt>
<trkpt lat="40.0738635" lon="-105.2302294">
  <ele>1583.56</ele>
  <time>2026-08-27T18:26:45Z</time>
  <course>265.24</course>
  <speed>0.0</speed>
  <fix>3d</fix>
</trkpt>
<trkpt lat="40.0738634" lon="-105.2302293">
  <ele>1583.67</ele>
  <time>2026-08-27T18:26:45Z</time>
  <course>10.28</course>
  <speed>0.01</speed>
  <fix>3d</fix>
</trkpt>
<trkpt lat="40.0738634" lon="-105.2302293">
  <ele>1583.72</ele>
  <time>2026-08-27T18:26:45Z</time>
  <course>10.22</course>
  <speed>0.01</speed>
  <fix>3d</fix>
</trkpt>
<trkpt lat="40.0738635" lon="-105.2302294">
  <ele>1583.58</ele>
  <time>2026-08-27T18:26:45Z</time>
  <course>265.57</course>
  <speed>0.0</speed>
  <fix>3d</fix>
</trkpt>
<trkpt lat="40.0738634" lon="-105.2302293">
  <ele>1583.73</ele>
  <time>2026-08-27T18:26:45Z</time>
  <course>10.21</course>
  <speed>0.01</speed>
  <fix>3d</fix>
</trkpt>
<trkpt lat="40.0738634" lon="-105.2302293">
  <ele>1583.82</ele>
  <time>2026-08-27T18:26:45Z</time>
  <course>6.86</course>
  <speed>0.01</speed>
  <fix>3d</fix>
</trkpt>
<trkpt lat="40.0738635" lon="-105.2302294">
  <ele>1583.63</ele>
  <time>2026-08-27T18:26:45Z</time>
  <course>276.55</course>
  <speed>0.0</speed>
  <fix>3d</fix>
</trkpt>
<trkpt lat="40.0738634" lon="-105.2302293">
  <ele>1583.82</ele>
  <time>2026-08-27T18:26:45Z</time>
  <course>6.72</course>
  <speed>0.02</speed>
  <fix>3d</fix>
</trkpt>
<trkpt lat="40.0738634" lon="-105.2302296">
  <ele>1584.14</ele>
  <time>2026-08-27T18:26:45Z</time>
  <course>1.41</course>
  <speed>0.2</speed>
  <fix>3d</fix>
</trkpt>
<trkpt lat="40.0738635" lon="-105.2302294">
  <ele>1583.74</ele>
  <time>2026-08-27T18:26:45Z</time>
  <course>262.25</course>
  <speed>0.04</speed>
  <fix>3d</fix>
</trkpt>
<trkpt lat="40.0738634" lon="-105.2302296">
  <ele>1584.2</ele>
  <time>2026-08-27T18:26:45Z</time>
  <course>1.33</course>
  <speed>0.21</speed>
  <fix>3d</fix>
</trkpt>
<trkpt lat="40.0738634" lon="-105.2302301">
  <ele>1584.52</ele>
  <time>2026-08-27T18:26:45Z</time>
  <course>0.46</course>
  <speed>0.261725046566048</speed>
  <fix>3d</fix>
</trkpt>
<trkpt lat="40.0738635" lon="-105.2302296">
  <ele>1584.0</ele>
  <time>2026-08-27T18:26:45Z</time>
  <course>259.18</course>
  <speed>0.16</speed>
  <fix>3d</fix>
</trkpt>
<trkpt lat="40.0738634" lon="-105.2302302">
  <ele>1584.57</ele>
  <time>2026-08-27T18:26:45Z</time>
  <course>0.25</course>
  <speed>0.26305892875931813</speed>
  <fix>3d</fix>
</trkpt>
<trkpt lat="40.0738633" lon="-105.2302307">
  <ele>1584.9</ele>
  <time>2026-08-27T18:26:45Z</time>
  <course>358.8</course>
  <speed>0.2720294101747089</speed>
  <fix>3d</fix>
</trkpt>
<trkpt lat="40.0738634" lon="-105.2302301">
  <ele>1584.38</ele>
  <time>2026-08-27T18:26:45Z</time>
  <course>254.19</course>
  <speed>0.26</speed>
  <fix>3d</fix>
</trkpt>
<trkpt lat="40.0738633" lon="-105.2302308">
  <ele>1584.9</ele>
  <time>2026-08-27T18:26:45Z</time>
  <course>358.77</course>
  <speed>0.2720294101747089</speed>
  <fix>3d</fix>
</trkpt>
<trkpt lat="40.0738631" lon="-105.2302313">
  <ele>1585.33</ele>
  <time>2026-08-27T18:26:45Z</time>
  <course>357.6</course>
  <speed>0.25553864678361277</speed>
  <fix>3d</fix>
</trkpt>
<trkpt lat="40.0738633" lon="-105.2302306">
  <ele>1584.78</ele>
  <time>2026-08-27T18:26:45Z</time>
  <course>245.88</course>
  <speed>0.28</speed>
  <fix>3d</fix>
</trkpt>
<trkpt lat="40.0738631" lon="-105.2302314">
  <ele>1585.39</ele>
  <time>2026-08-27T18:26:45Z</time>
  <course>357.49</course>
  <speed>0.25238858928247926</speed>
  <fix>3d</fix>
</trkpt>
<trkpt lat="40.0738628" lon="-105.2302317">
  <ele>1585.79</ele>
  <time>2026-08-27T18:26:45Z</time>
  <course>357.04</course>
  <speed>0.22671568097509268</speed>
  <fix>3d</fix>
</trkpt>
<trkpt lat="40.073863" lon="-105.2302312">
  <ele>1585.2</ele>
  <time>2026-08-27T18:26:45Z</time>
  <course>235.15</course>
  <speed>0.27</speed>
  <fix>3d</fix>
</trkpt>
<trkpt lat="40.0738628" lon="-105.2302318">
  <ele>1585.8</ele>
  <time>2026-08-27T18:26:45Z</time>
  <course>357.03</course>
  <speed>0.22671568097509268</speed>
  <fix>3d</fix>
</trkpt>
<trkpt lat="40.0738624" lon="-105.230232">
  <ele>1586.28</ele>
  <time>2026-08-27T18:26:45Z</time>
  <course>356.81</course>
  <speed>0.19697715603592209</speed>
  <fix>3d</fix>
</trkpt>
<trkpt lat="40.0738627" lon="-105.2302317">
  <ele>1585.65</ele>
  <time>2026-08-27T18:26:45Z</time>
  <course>222.15</course>
  <speed>0.24</speed>
  <fix>3d</fix>
</trkpt>
<trkpt lat="40.0738624" lon="-105.230232">
  <ele>1586.36</ele>
  <time>2026-08-27T18:26:45Z</time>
  <course>356.8</course>
  <speed>0.19313207915827968</speed>
  <fix>3d</fix>
</trkpt>
<trkpt lat="40.0738621" lon="-105.2302321">
  <ele>1586.78</ele>
  <time>2026-08-27T18:26:45Z</time>
  <course>354.39</course>
  <speed>0.18027756377319945</speed>
  <fix>3d</fix>
</trkpt>
<trkpt lat="40.0738624" lon="-105.230232">
  <ele>1586.13</ele>
  <time>2026-08-27T18:26:45Z</time>
  <course>206.61</course>
  <speed>0.2</speed>
  <fix>3d</fix>
</trkpt>
<trkpt lat="40.0738621" lon="-105.2302321">
  <ele>1586.79</ele>
  <time>2026-08-27T18:26:45Z</time>
  <course>354.34</course>
  <speed>0.18027756377319945</speed>
  <fix>3d</fix>
</trkpt>
<trkpt lat="40.0738618" lon="-105.2302321">
  <ele>1587.29</ele>
  <time>2026-08-27T18:26:45Z</time>
  <course>351.8</course>
  <speed>0.17464249196572978</speed>
  <fix>3d</fix>
</trkpt>
<trkpt lat="40.0738621" lon="-105.2302321">
  <ele>1586.62</ele>
  <time>2026-08-27T18:26:45Z</time>
  <course>188.66</course>
  <speed>0.16</speed>
  <fix>3d</fix>
</trkpt>
<trkpt lat="40.0738617" lon="-105.2302321">
  <ele>1587.37</ele>
  <time>2026-08-27T18:26:45Z</time>
  <course>351.82</course>
  <speed>0.1772004514666935</speed>
  <fix>3d</fix>
</trkpt>
<trkpt lat="40.0738615" lon="-105.230232">
  <ele>1587.8</ele>
  <time>2026-08-27T18:26:45Z</time>
  <course>353.0</course>
  <speed>0.17204650534085253</speed>
  <fix>3d</fix>
</trkpt>
<trkpt lat="40.0738618" lon="-105.2302321">
  <ele>1587.12</ele>
  <time>2026-08-27T18:26:45Z</time>
  <course>166.81</course>
  <speed>0.13</speed>
  <fix>3d</fix>
</trkpt>
<trkpt lat="40.0738615" lon="-105.2302319">
  <ele>1587.89</ele>
  <time>2026-08-27T18:26:45Z</time>
  <course>353.29</course>
  <speed>0.17029386365926402</speed>
  <fix>3d</fix>
</trkpt>
<trkpt lat="40.0738613" lon="-105.2302317">
  <ele>1588.31</ele>
  <time>2026-08-27T18:26:45Z</time>
  <course>354.58</course>
  <speed>0.17</speed>
  <fix>3d</fix>
</trkpt>
<trkpt lat="40.0738616" lon="-105.230232">
  <ele>1587.61</ele>
  <time>2026-08-27T18:26:45Z</time>
  <course>135.43</course>
  <speed>0.11</speed>
  <fix>3d</fix>
</trkpt>
<trkpt lat="40.0738613" lon="-105.2302317">
  <ele>1588.31</ele>
  <time>2026-08-27T18:26:45Z</time>
  <course>354.6</course>
  <speed>0.17</speed>
  <fix>3d</fix>
</trkpt>
<trkpt lat="40.0738614" lon="-105.2302314">
  <ele>1588.81</ele>
  <time>2026-08-27T18:26:45Z</time>
  <course>355.65</course>
  <speed>0.18</speed>
  <fix>3d</fix>
</trkpt>
<trkpt lat="40.0738616" lon="-105.2302319">
  <ele>1588.11</ele>
  <time>2026-08-27T18:26:45Z</time>
  <course>99.55</course>
  <speed>0.12</speed>
  <fix>3d</fix>
</trkpt>
<trkpt lat="40.0738614" lon="-105.2302313">
  <ele>1588.89</ele>
  <time>2026-08-27T18:26:45Z</time>
  <course>355.78</course>
  <speed>0.18</speed>
  <fix>3d</fix>
</trkpt>
<trkpt lat="40.0738615" lon="-105.230231">
  <ele>1589.31</ele>
  <time>2026-08-27T18:26:45Z</time>
  <course>356.47</course>
  <speed>0.18681541692269404</speed>
  <fix>3d</fix>
</trkpt>
<trkpt lat="40.0738616" lon="-105.2302316">
  <ele>1588.6</ele>
  <time>2026-08-27T18:26:45Z</time>
  <course>75.31</course>
  <speed>0.15</speed>
  <fix>3d</fix>
</trkpt>
<trkpt lat="40.0738616" lon="-105.2302309">
  <ele>1589.39</ele>
  <time>2026-08-27T18:26:45Z</time>
  <course>356.59</course>
  <speed>0.18973665961010278</speed>
  <fix>3d</fix>
</trkpt>
<trkpt lat="40.0738617" lon="-105.2302306">
  <ele>1589.81</ele>
  <time>2026-08-27T18:26:45Z</time>
  <course>357.18</course>
  <speed>0.19235384061671343</speed>
  <fix>3d</fix>
</trkpt>
<trkpt lat="40.0738616" lon="-105.2302311">
  <ele>1589.09</ele>
  <time>2026-08-27T18:26:45Z</time>
  <course>61.14</course>
  <speed>0.17</speed>
  <fix>3d</fix>
</trkpt>
<trkpt lat="40.0738617" lon="-105.2302306">
  <ele>1589.89</ele>
  <time>2026-08-27T18:26:45Z</time>
  <course>357.29</course>
  <speed>0.1972308292331602</speed>
  <fix>3d</fix>
</trkpt>
<trkpt lat="40.0738619" lon="-105.2302303">
  <ele>1590.3</ele>
  <time>2026-08-27T18:26:45Z</time>
  <course>357.8</course>
  <speed>0.18601075237738274</speed>
  <fix>3d</fix>
</trkpt>
<trkpt lat="40.0738617" lon="-105.2302308">
  <ele>1589.58</ele>
  <time>2026-08-27T18:26:45Z</time>
  <course>52.39</course>
  <speed>0.19</speed>
  <fix>3d</fix>
</trkpt>
<trkpt lat="40.073862" lon="-105.2302302">
  <ele>1590.38</ele>
  <time>2026-08-27T18:26:45Z</time>
  <course>357.89</course>
  <speed>0.19209372712298545</speed>
  <fix>3d</fix>
</trkpt>
<trkpt lat="40.0738622" lon="-105.23023">
  <ele>1590.79</ele>
  <time>2026-08-27T18:26:45Z</time>
  <course>358.32</course>
  <speed>0.18439088914585774</speed>
  <fix>3d</fix>
</trkpt>
<trkpt lat="40.073862" lon="-105.2302305">
  <ele>1590.07</ele>
  <time>2026-08-27T18:26:45Z</time>
  <course>46.69</course>
  <speed>0.19</speed>
  <fix>3d</fix>
</trkpt>
<trkpt lat="40.0738622" lon="-105.23023">
  <ele>1590.79</ele>
  <time>2026-08-27T18:26:45Z</time>
  <course>358.33</course>
  <speed>0.1769180601295413</speed>
  <fix>3d</fix>
</trkpt>
<trkpt lat="40.0738625" lon="-105.2302297">
  <ele>1591.28</ele>
  <time>2026-08-27T18:26:45Z</time>
  <course>358.81</course>
  <speed>0.1769180601295413</speed>
  <fix>3d</fix>
</trkpt>
<trkpt lat="40.0738622" lon="-105.2302302">
  <ele>1590.57</ele>
  <time>2026-08-27T18:26:45Z</time>
  <course>42.76</course>
  <speed>0.18</speed>
  <fix>3d</fix>
</trkpt>
<trkpt lat="40.0738625" lon="-105.2302297">
  <ele>1591.36</ele>
  <time>2026-08-27T18:26:45Z</time>
  <course>358.88</course>
  <speed>0.17029386365926402</speed>
  <fix>3d</fix>
</trkpt>
<trkpt lat="40.0738627" lon="-105.2302295">
  <ele>1591.78</ele>
  <time>2026-08-27T18:26:45Z</time>
  <course>359.26</course>
  <speed>0.16401219466856726</speed>
  <fix>3d</fix>
</trkpt>
<trkpt lat="40.0738625" lon="-105.2302299">
  <ele>1591.06</ele>
  <time>2026-08-27T18:26:45Z</time>
  <course>39.86</course>
  <speed>0.17</speed>
  <fix>3d</fix>
</trkpt>
<trkpt lat="40.0738627" lon="-105.2302295">
  <ele>1591.86</ele>
  <time>2026-08-27T18:26:45Z</time>
  <course>359.34</course>
  <speed>0.16401219466856726</speed>
  <fix>3d</fix>
</trkpt>
<trkpt lat="40.0738629" lon="-105.2302293">
  <ele>1592.28</ele>
  <time>2026-08-27T18:26:45Z</time>
  <course>359.71</course>
  <speed>0.14422205101855956</speed>
  <fix>3d</fix>
</trkpt>
<trkpt lat="40.0738627" lon="-105.2302297">
  <ele>1591.56</ele>
  <time>2026-08-27T18:26:45Z</time>
  <course>37.48</course>
  <speed>0.15</speed>
  <fix>3d</fix>
</trkpt>
<trkpt lat="40.073863" lon="-105.2302293">
  <ele>1592.4</ele>
  <time>2026-08-27T18:26:45Z</time>
  <course>359.82</course>
  <speed>0.14422205101855956</speed>
  <fix>3d</fix>
</trkpt>
<trkpt lat="40.0738631" lon="-105.2302292">
  <ele>1592.78</ele>
  <time>2026-08-27T18:26:45Z</time>
  <course>0.13</course>
  <speed>0.13892443989449804</speed>
  <fix>3d</fix>
</trkpt>
<trkpt lat="40.0738628" lon="-105.2302295">
  <ele>1592.05</ele>
  <time>2026-08-27T18:26:45Z</time>
  <course>35.25</course>
  <speed>0.14</speed>
  <fix>3d</fix>
</trkpt>
<trkpt lat="40.0738632" lon="-105.2302292">
  <ele>1592.86</ele>
  <time>2026-08-27T18:26:45Z</time>
  <course>0.2</course>
  <speed>0.1341640786499874</speed>
  <fix>3d</fix>
</trkpt>
<trkpt lat="40.0738633" lon="-105.2302291">
  <ele>1593.29</ele>
  <time>2026-08-27T18:26:45Z</time>
  <course>0.55</course>
  <speed>0.12083045973594572</speed>
  <fix>3d</fix>
</trkpt>
<trkpt lat="40.073863" lon="-105.2302292">
  <ele>1592.55</ele>
  <time>2026-08-27T18:26:45Z</time>
  <course>32.83</course>
  <speed>0.12</speed>
  <fix>3d</fix>
</trkpt>
<trkpt lat="40.0738634" lon="-105.230229">
  <ele>1593.37</ele>
  <time>2026-08-27T18:26:45Z</time>
  <course>0.62</course>
  <speed>0.12083045973594572</speed>
  <fix>3d</fix>
</trkpt>
<trkpt lat="40.0738635" lon="-105.230229">
  <ele>1593.79</ele>
  <time>2026-08-27T18:26:45Z</time>
  <course>0.96</course>
  <speed>0.1044030650891055</speed>
  <fix>3d</fix>
</trkpt>
<trkpt lat="40.0738633" lon="-105.2302291">
  <ele>1593.05</ele>
  <time>2026-08-27T18:26:45Z</time>
  <course>29.93</course>
  <speed>0.11</speed>
  <fix>3d</fix>
</trkpt>
<trkpt lat="40.0738635" lon="-105.230229">
  <ele>1593.8</ele>
  <time>2026-08-27T18:26:45Z</time>
  <course>0.97</course>
  <speed>0.1044030650891055</speed>
  <fix>3d</fix>
</trkpt>
<trkpt lat="40.0738636" lon="-105.2302289">
  <ele>1594.3</ele>
  <time>2026-08-27T18:26:45Z</time>
  <course>1.32</course>
  <speed>0.0824621125123532</speed>
  <fix>3d</fix>
</trkpt>
<trkpt lat="40.0738635" lon="-105.230229">
  <ele>1593.54</ele>
  <time>2026-08-27T18:26:45Z</time>
  <course>26.48</course>
  <speed>0.09</speed>
  <fix>3d</fix>
</trkpt>
<trkpt lat="40.0738636" lon="-105.2302289">
  <ele>1594.38</ele>
  <time>2026-08-27T18:26:45Z</time>
  <course>1.38</course>
  <speed>0.0824621125123532</speed>
  <fix>3d</fix>
</trkpt>
<trkpt lat="40.0738637" lon="-105.2302289">
  <ele>1594.8</ele>
  <time>2026-08-27T18:26:45Z</time>
  <course>1.69</course>
  <speed>0.07071067811865475</speed>
  <fix>3d</fix>
</trkpt>
<trkpt lat="40.0738636" lon="-105.2302289">
  <ele>1594.04</ele>
  <time>2026-08-27T18:26:45Z</time>
  <course>22.28</course>
  <speed>0.07</speed>
  <fix>3d</fix>
</trkpt>
<trkpt lat="40.0738638" lon="-105.2302289">
  <ele>1594.89</ele>
  <time>2026-08-27T18:26:45Z</time>
  <course>1.75</course>
  <speed>0.07</speed>
  <fix>3d</fix>
</trkpt>
<trkpt lat="40.0738638" lon="-105.2302289">
  <ele>1595.3</ele>
  <time>2026-08-27T18:26:45Z</time>
  <course>2.05</course>
  <speed>0.06</speed>
  <fix>3d</fix>
</trkpt>
<trkpt lat="40.0738637" lon="-105.2302289">
  <ele>1594.54</ele>
  <time>2026-08-27T18:26:45Z</time>
  <course>17.11</course>
  <speed>0.06</speed>
  <fix>3d</fix>
</trkpt>
<trkpt lat="40.0738639" lon="-105.2302289">
  <ele>1595.39</ele>
  <time>2026-08-27T18:26:45Z</time>
  <course>2.12</course>
  <speed>0.06</speed>
  <fix>3d</fix>
</trkpt>
<trkpt lat="40.0738639" lon="-105.2302289">
  <ele>1595.8</ele>
  <time>2026-08-27T18:26:45Z</time>
  <course>2.39</course>
  <speed>0.05</speed>
  <fix>3d</fix>
</trkpt>
<trkpt lat="40.0738638" lon="-105.2302288">
  <ele>1595.03</ele>
  <time>2026-08-27T18:26:45Z</time>
  <course>11.11</course>
  <speed>0.04</speed>
  <fix>3d</fix>
</trkpt>
<trkpt lat="40.0738639" lon="-105.2302289">
  <ele>1595.81</ele>
  <time>2026-08-27T18:26:45Z</time>
  <course>2.4</course>
  <speed>0.05</speed>
  <fix>3d</fix>
</trkpt>
<trkpt lat="40.073864" lon="-105.2302289">
  <ele>1596.29</ele>
  <time>2026-08-27T18:26:45Z</time>
  <course>2.71</course>
  <speed>0.0316227766016838</speed>
  <fix>3d</fix>
</trkpt>
<trkpt lat="40.0738639" lon="-105.2302287">
  <ele>1595.52</ele>
  <time>2026-08-27T18:26:45Z</time>
  <course>3.32</course>
  <speed>0.03</speed>
  <fix>3d</fix>
</trkpt>
<trkpt lat="40.073864" lon="-105.2302289">
  <ele>1596.37</ele>
  <time>2026-08-27T18:26:45Z</time>
  <course>2.77</course>
  <speed>0.0316227766016838</speed>
  <fix>3d</fix>
</trkpt>
<trkpt lat="40.073864" lon="-105.2302289">
  <ele>1596.79</ele>
  <time>2026-08-27T18:26:45Z</time>
  <course>3.01</course>
  <speed>0.0282842712474619</speed>
  <fix>3d</fix>
</trkpt>
<trkpt lat="40.073864" lon="-105.2302288">
  <ele>1596.02</ele>
  <time>2026-08-27T18:26:45Z</time>
  <course>350.74</course>
  <speed>0.02</speed>
  <fix>3d</fix>
</trkpt>
<trkpt lat="40.073864" lon="-105.2302289">
  <ele>1596.79</ele>
  <time>2026-08-27T18:26:45Z</time>
  <course>3.01</course>
  <speed>0.0282842712474619</speed>
  <fix>3d</fix>
</trkpt>
<trkpt lat="40.073864" lon="-105.2302288">
  <ele>1597.28</ele>
  <time>2026-08-27T18:26:45Z</time>
  <course>3.25</course>
  <speed>0.022360679774997897</speed>
  <fix>3d</fix>
</trkpt>
<trkpt lat="40.073864" lon="-105.2302289">
  <ele>1596.51</ele>
  <time>2026-08-27T18:26:45Z</time>
  <course>326.39</course>
  <speed>0.01</speed>
  <fix>3d</fix>
</trkpt>
<trkpt lat="40.073864" lon="-105.2302288">
  <ele>1597.36</ele>
  <time>2026-08-27T18:26:45Z</time>
  <course>3.29</course>
  <speed>0.022360679774997897</speed>
  <fix>3d</fix>
</trkpt>
<trkpt lat="40.073864" lon="-105.2302289">
  <ele>1597.78</ele>
  <time>2026-08-27T18:26:45Z</time>
  <course>3.5</course>
  <speed>0.02</speed>
  <fix>3d</fix>
</trkpt>
<trkpt lat="40.073864" lon="-105.2302289">
  <ele>1597.0</ele>
  <time>2026-08-27T18:26:45Z</time>
  <course>279.67</course>
  <speed>0.01</speed>
  <fix>3d</fix>
</trkpt>
<trkpt lat="40.073864" lon="-105.2302289">
  <ele>1597.88</ele>
  <time>2026-08-27T18:26:45Z</time>
  <course>3.55</course>
  <speed>0.02</speed>
  <fix>3d</fix>
</trkpt>
<trkpt lat="40.073864" lon="-105.2302289">
  <ele>1598.28</ele>
  <time>2026-08-27T18:26:45Z</time>
  <course>3.75</course>
  <speed>0.02</speed>
  <fix>3d</fix>
</trkpt>
<trkpt lat="40.073864" lon="-105.2302289">
  <ele>1597.5</ele>
  <time>2026-08-27T18:26:45Z</time>
  <course>244.52</course>
  <speed>0.01</speed>
  <fix>3d</fix>
</trkpt>
<trkpt lat="40.073864" lon="-105.2302289">
  <ele>1598.36</ele>
  <time>2026-08-27T18:26:45Z</time>
  <course>3.78</course>
  <speed>0.03</speed>
  <fix>3d</fix>
</trkpt>
<trkpt lat="40.0738639" lon="-105.230229">
  <ele>1598.79</ele>
  <time>2026-08-27T18:26:45Z</time>
  <course>4.0</course>
  <speed>0.03</speed>
  <fix>3d</fix>
</trkpt>
<trkpt lat="40.073864" lon="-105.2302289">
  <ele>1598.0</ele>
  <time>2026-08-27T18:26:45Z</time>
  <course>228.86</course>
  <speed>0.02</speed>
  <fix>3d</fix>
</trkpt>
<trkpt lat="40.0738639" lon="-105.230229">
  <ele>1598.79</ele>
  <time>2026-08-27T18:26:45Z</time>
  <course>4.01</course>
  <speed>0.03</speed>
  <fix>3d</fix>
</trkpt>
<trkpt lat="40.0738639" lon="-105.230229">
  <ele>1599.29</ele>
  <time>2026-08-27T18:26:45Z</time>
  <course>4.26</course>
  <speed>0.0316227766016838</speed>
  <fix>3d</fix>
</trkpt>
<trkpt lat="40.073864" lon="-105.2302289">
  <ele>1598.49</ele>
  <time>2026-08-27T18:26:45Z</time>
  <course>220.7</course>
  <speed>0.02</speed>
  <fix>3d</fix>
</trkpt>
<trkpt lat="40.0738639" lon="-105.230229">
  <ele>1599.37</ele>
  <time>2026-08-27T18:26:45Z</time>
  <course>4.31</course>
  <speed>0.0316227766016838</speed>
  <fix>3d</fix>
</trkpt>
<trkpt lat="40.0738639" lon="-105.2302291">
  <ele>1599.79</ele>
  <time>2026-08-27T18:26:45Z</time>
  <course>4.51</course>
  <speed>0.022360679774997897</speed>
  <fix>3d</fix>
</trkpt>
<trkpt lat="40.073864" lon="-105.2302289">
  <ele>1598.99</ele>
  <time>2026-08-27T18:26:45Z</time>
  <course>215.8</course>
  <speed>0.03</speed>
  <fix>3d</fix>
</trkpt>
<trkpt lat="40.0738639" lon="-105.2302291">
  <ele>1599.88</ele>
  <time>2026-08-27T18:26:45Z</time>
  <course>4.56</course>
  <speed>0.022360679774997897</speed>
  <fix>3d</fix>
</trkpt>
<trkpt lat="40.0738639" lon="-105.2302291">
  <ele>1600.28</ele>
  <time>2026-08-27T18:26:45Z</time>
  <course>4.75</course>
  <speed>0.022360679774997897</speed>
  <fix>3d</fix>
</trkpt>
<trkpt lat="40.073864" lon="-105.230229">
  <ele>1599.48</ele>
  <time>2026-08-27T18:26:45Z</time>
  <course>212.5</course>
  <speed>0.03</speed>
  <fix>3d</fix>
</trkpt>
<trkpt lat="40.0738639" lon="-105.2302291">
  <ele>1600.37</ele>
  <time>2026-08-27T18:26:45Z</time>
  <course>4.79</course>
  <speed>0.022360679774997897</speed>
  <fix>3d</fix>
</trkpt>
<trkpt lat="40.0738639" lon="-105.2302291">
  <ele>1600.78</ele>
  <time>2026-08-27T18:26:45Z</time>
  <course>4.96</course>
  <speed>0.022360679774997897</speed>
  <fix>3d</fix>
</trkpt>
<trkpt lat="40.0738639" lon="-105.230229">
  <ele>1599.98</ele>
  <time>2026-08-27T18:26:45Z</time>
  <course>210.56</course>
  <speed>0.03</speed>
  <fix>3d</fix>
</trkpt>
<trkpt lat="40.0738639" lon="-105.2302291">
  <ele>1600.79</ele>
  <time>2026-08-27T18:26:45Z</time>
  <course>4.96</course>
  <speed>0.022360679774997897</speed>
  <fix>3d</fix>
</trkpt>
<trkpt lat="40.0738638" lon="-105.2302292">
  <ele>1601.28</ele>
  <time>2026-08-27T18:26:45Z</time>
  <course>5.15</course>
  <speed>0.022360679774997897</speed>
  <fix>3d</fix>
</trkpt>
<trkpt lat="40.0738638" lon="-105.230229">
  <ele>1600.47</ele>
  <time>2026-08-27T18:26:45Z</time>
  <course>209.26</course>
  <speed>0.03</speed>
  <fix>3d</fix>
</trkpt>
<trkpt lat="40.0738638" lon="-105.2302292">
  <ele>1601.35</ele>
  <time>2026-08-27T18:26:45Z</time>
  <course>5.18</course>
  <speed>0.022360679774997897</speed>
  <fix>3d</fix>
</trkpt>
<trkpt lat="40.0738638" lon="-105.2302292">
  <ele>1601.78</ele>
  <time>2026-08-27T18:26:45Z</time>
  <course>5.35</course>
  <speed>0.022360679774997897</speed>
  <fix>3d</fix>
</trkpt>
<trkpt lat="40.0738638" lon="-105.230229">
  <ele>1600.97</ele>
  <time>2026-08-27T18:26:45Z</time>
  <course>208.06</course>
  <speed>0.03</speed>
  <fix>3d</fix>
</trkpt>
<trkpt lat="40.0738638" lon="-105.2302292">
  <ele>1601.86</ele>
  <time>2026-08-27T18:26:45Z</time>
  <course>5.37</course>
  <speed>0.022360679774997897</speed>
  <fix>3d</fix>
</trkpt>
<trkpt lat="40.0738637" lon="-105.2302292">
  <ele>1602.27</ele>
  <time>2026-08-27T18:26:45Z</time>
  <course>5.49</course>
  <speed>0.022360679774997897</speed>
  <fix>3d</fix>
</trkpt>
<trkpt lat="40.0738637" lon="-105.2302291">
  <ele>1601.46</ele>
  <time>2026-08-27T18:26:45Z</time>
  <course>207.41</course>
  <speed>0.03</speed>
  <fix>3d</fix>
</trkpt>
<trkpt lat="40.0738637" lon="-105.2302292">
  <ele>1602.36</ele>
  <time>2026-08-27T18:26:45Z</time>
  <course>5.52</course>
  <speed>0.022360679774997897</speed>
  <fix>3d</fix>
</trkpt>
<trkpt lat="40.0738637" lon="-105.2302292">
  <ele>1602.77</ele>
  <time>2026-08-27T18:26:45Z</time>
  <course>5.68</course>
  <speed>0.022360679774997897</speed>
  <fix>3d</fix>
</trkpt>
<trkpt lat="40.0738636" lon="-105.2302292">
  <ele>1601.96</ele>
  <time>2026-08-27T18:26:45Z</time>
  <course>207.52</course>
  <speed>0.03</speed>
  <fix>3d</fix>
</trkpt>
<trkpt lat="40.0738637" lon="-105.2302292">
  <ele>1602.84</ele>
  <time>2026-08-27T18:26:45Z</time>
  <course>5.72</course>
  <speed>0.022360679774997897</speed>
  <fix>3d</fix>
</trkpt>
<trkpt lat="40.0738636" lon="-105.2302293">
  <ele>1603.26</ele>
  <time>2026-08-27T18:26:45Z</time>
  <course>5.87</course>
  <speed>0.01414213562373095</speed>
  <fix>3d</fix>
</trkpt>
<trkpt lat="40.0738636" lon="-105.2302292">
  <ele>1602.46</ele>
  <time>2026-08-27T18:26:45Z</time>
  <course>208.07</course>
  <speed>0.03</speed>
  <fix>3d</fix>
</trkpt>
<trkpt lat="40.0738636" lon="-105.2302293">
  <ele>1603.26</ele>
  <time>2026-08-27T18:26:45Z</time>
  <course>5.87</course>
  <speed>0.01414213562373095</speed>
  <fix>3d</fix>
</trkpt>
<trkpt lat="40.0738636" lon="-105.2302293">
  <ele>1603.76</ele>
  <time>2026-08-27T18:26:45Z</time>
  <course>5.99</course>
  <speed>0.01414213562373095</speed>
  <fix>3d</fix>
</trkpt>
<trkpt lat="40.0738635" lon="-105.2302292">
  <ele>1602.96</ele>
  <time>2026-08-27T18:26:45Z</time>
  <course>207.99</course>
  <speed>0.02</speed>
  <fix>3d</fix>
</trkpt>
<trkpt lat="40.0738636" lon="-105.2302293">
  <ele>1603.84</ele>
  <time>2026-08-27T18:26:45Z</time>
  <course>6.01</course>
  <speed>0.01414213562373095</speed>
  <fix>3d</fix>
</trkpt>
<trkpt lat="40.0738636" lon="-105.2302293">
  <ele>1604.25</ele>
  <time>2026-08-27T18:26:45Z</time>
  <course>6.11</course>
  <speed>0.01</speed>
  <fix>3d</fix>
</trkpt>
<trkpt lat="40.0738635" lon="-105.2302292">
  <ele>1603.46</ele>
  <time>2026-08-27T18:26:45Z</time>
  <course>208.32</course>
  <speed>0.02</speed>
  <fix>3d</fix>
</trkpt>
<trkpt lat="40.0738636" lon="-105.2302293">
  <ele>1604.33</ele>
  <time>2026-08-27T18:26:45Z</time>
  <course>6.13</course>
  <speed>0.01</speed>
  <fix>3d</fix>
</trkpt>
<trkpt lat="40.0738635" lon="-105.2302293">
  <ele>1604.75</ele>
  <time>2026-08-27T18:26:45Z</time>
  <course>6.27</course>
  <speed>0.01</speed>
  <fix>3d</fix>
</trkpt>
<trkpt lat="40.0738635" lon="-105.2302292">
  <ele>1603.96</ele>
  <time>2026-08-27T18:26:45Z</time>
  <course>210.94</course>
  <speed>0.02</speed>
  <fix>3d</fix>
</trkpt>
<trkpt lat="40.0738635" lon="-105.2302293">
  <ele>1604.84</ele>
  <time>2026-08-27T18:26:45Z</time>
  <course>6.29</course>
  <speed>0.01</speed>
  <fix>3d</fix>
</trkpt>
<trkpt lat="40.0738635" lon="-105.2302293">
  <ele>1605.25</ele>
  <time>2026-08-27T18:26:45Z</time>
  <course>6.42</course>
  <speed>0.01</speed>
  <fix>3d</fix>
</trkpt>
<trkpt lat="40.0738635" lon="-105.2302293">
  <ele>1604.46</ele>
  <time>2026-08-27T18:26:45Z</time>
  <course>215.19</course>
  <speed>0.01</speed>
  <fix>3d</fix>
</trkpt>
<trkpt lat="40.0738635" lon="-105.2302293">
  <ele>1605.33</ele>
  <time>2026-08-27T18:26:45Z</time>
  <course>6.44</course>
  <speed>0.01</speed>
  <fix>3d</fix>
</trkpt>
<trkpt lat="40.0738635" lon="-105.2302293">
  <ele>1605.75</ele>
  <time>2026-08-27T18:26:45Z</time>
  <course>6.56</course>
  <speed>0.01</speed>
  <fix>3d</fix>
</trkpt>
<trkpt lat="40.0738635" lon="-105.2302294">
  <ele>1604.96</ele>
  <time>2026-08-27T18:26:45Z</time>
  <course>220.24</course>
  <speed>0.01</speed>
  <fix>3d</fix>
</trkpt>
<trkpt lat="40.0738635" lon="-105.2302293">
  <ele>1605.76</ele>
  <time>2026-08-27T18:26:45Z</time>
  <course>6.56</course>
  <speed>0.01</speed>
  <fix>3d</fix>
</trkpt>
<trkpt lat="40.0738635" lon="-105.2302293">
  <ele>1606.26</ele>
  <time>2026-08-27T18:26:45Z</time>
  <course>6.71</course>
  <speed>0.0</speed>
  <fix>3d</fix>
</trkpt>
<trkpt lat="40.0738634" lon="-105.2302294">
  <ele>1605.46</ele>
  <time>2026-08-27T18:26:45Z</time>
  <course>227.7</course>
  <speed>0.01</speed>
  <fix>3d</fix>
</trkpt>
<trkpt lat="40.0738635" lon="-105.2302294">
  <ele>1606.34</ele>
  <time>2026-08-27T18:26:45Z</time>
  <course>6.74</course>
  <speed>0.0</speed>
  <fix>3d</fix>
</trkpt>
<trkpt lat="40.0738635" lon="-105.2302294">
  <ele>1606.77</ele>
  <time>2026-08-27T18:26:45Z</time>
  <course>6.86</course>
  <speed>0.0</speed>
  <fix>3d</fix>
</trkpt>
<trkpt lat="40.0738634" lon="-105.2302294">
  <ele>1605.96</ele>
  <time>2026-08-27T18:26:45Z</time>
  <course>238.33</course>
  <speed>0.0</speed>
  <fix>3d</fix>
</trkpt>
<trkpt lat="40.0738635" lon="-105.2302294">
  <ele>1606.86</ele>
  <time>2026-08-27T18:26:45Z</time>
  <course>6.89</course>
  <speed>0.0</speed>
  <fix>3d</fix>
</trkpt>
<trkpt lat="40.0738635" lon="-105.2302294">
  <ele>1607.27</ele>
  <time>2026-08-27T18:26:45Z</time>
  <course>7.02</course>
  <speed>0.01</speed>
  <fix>3d</fix>
</trkpt>
<trkpt lat="40.0738634" lon="-105.2302294">
  <ele>1606.47</ele>
  <time>2026-08-27T18:26:45Z</time>
  <course>251.78</course>
  <speed>0.0</speed>
  <fix>3d</fix>
</trkpt>
<trkpt lat="40.0738635" lon="-105.2302294">
  <ele>1607.35</ele>
  <time>2026-08-27T18:26:45Z</time>
  <course>7.04</course>
  <speed>0.01</speed>
  <fix>3d</fix>
</trkpt>
<trkpt lat="40.0738635" lon="-105.2302294">
  <ele>1607.77</ele>
  <time>2026-08-27T18:26:45Z</time>
  <course>7.13</course>
  <speed>0.01</speed>
  <fix>3d</fix>
</trkpt>
<trkpt lat="40.0738634" lon="-105.2302294">
  <ele>1606.97</ele>
  <time>2026-08-27T18:26:45Z</time>
  <course>276.47</course>
  <speed>0.0</speed>
  <fix>3d</fix>
</trkpt>
<trkpt lat="40.0738635" lon="-105.2302294">
  <ele>1607.85</ele>
  <time>2026-08-27T18:26:45Z</time>
  <course>7.15</course>
  <speed>0.01</speed>
  <fix>3d</fix>
</trkpt>
<trkpt lat="40.0738635" lon="-105.2302294">
  <ele>1608.28</ele>
  <time>2026-08-27T18:26:45Z</time>
  <course>7.25</course>
  <speed>0.01</speed>
  <fix>3d</fix>
</trkpt>
<trkpt lat="40.0738634" lon="-105.2302294">
  <ele>1607.47</ele>
  <time>2026-08-27T18:26:45Z</time>
  <course>331.62</course>
  <speed>0.0</speed>
  <fix>3d</fix>
</trkpt>
<trkpt lat="40.0738635" lon="-105.2302294">
  <ele>1608.28</ele>
  <time>2026-08-27T18:26:45Z</time>
  <course>7.25</course>
  <speed>0.01</speed>
  <fix>3d</fix>
</trkpt>
<trkpt lat="40.0738635" lon="-105.2302294">
  <ele>1608.78</ele>
  <time>2026-08-27T18:26:45Z</time>
  <course>7.36</course>
  <speed>0.01</speed>
  <fix>3d</fix>
</trkpt>
<trkpt lat="40.0738634" lon="-105.2302294">
  <ele>1607.97</ele>
  <time>2026-08-27T18:26:45Z</time>
  <course>3.69</course>
  <speed>0.0</speed>
  <fix>3d</fix>
</trkpt>
<trkpt lat="40.0738635" lon="-105.2302294">
  <ele>1608.86</ele>
  <time>2026-08-27T18:26:45Z</time>
  <course>7.37</course>
  <speed>0.01</speed>
  <fix>3d</fix>
</trkpt>
<trkpt lat="40.0738635" lon="-105.2302294">
  <ele>1609.28</ele>
  <time>2026-08-27T18:26:45Z</time>
  <course>7.48</course>
  <speed>0.01</speed>
  <fix>3d</fix>
</trkpt>
<trkpt lat="40.0738634" lon="-105.2302294">
  <ele>1608.47</ele>
  <time>2026-08-27T18:26:45Z</time>
  <course>15.81</course>
  <speed>0.0</speed>
  <fix>3d</fix>
</trkpt>
<trkpt lat="40.0738635" lon="-105.2302294">
  <ele>1609.37</ele>
  <time>2026-08-27T18:26:45Z</time>
  <course>7.49</course>
  <speed>0.01</speed>
  <fix>3d</fix>
</trkpt>
<trkpt lat="40.0738635" lon="-105.2302294">
  <ele>1609.77</ele>
  <time>2026-08-27T18:26:45Z</time>
  <course>7.58</course>
  <speed>0.01</speed>
  <fix>3d</fix>
</trkpt>
<trkpt lat="40.0738634" lon="-105.2302294">
  <ele>1608.97</ele>
  <time>2026-08-27T18:26:45Z</time>
  <course>22.75</course>
  <speed>0.0</speed>
  <fix>3d</fix>
</trkpt>
<trkpt lat="40.0738635" lon="-105.2302294">
  <ele>1609.86</ele>
  <time>2026-08-27T18:26:45Z</time>
  <course>7.6</course>
  <speed>0.01</speed>
  <fix>3d</fix>
</trkpt>
<trkpt lat="40.0738635" lon="-105.2302294">
  <ele>1610.27</ele>
  <time>2026-08-27T18:26:45Z</time>
  <course>7.65</course>
  <speed>0.01</speed>
  <fix>3d</fix>
</trkpt>
<trkpt lat="40.0738634" lon="-105.2302294">
  <ele>1609.47</ele>
  <time>2026-08-27T18:26:45Z</time>
  <course>29.97</course>
  <speed>0.0</speed>
  <fix>3d</fix>
</trkpt>
<trkpt lat="40.0738635" lon="-105.2302294">
  <ele>1610.35</ele>
  <time>2026-08-27T18:26:45Z</time>
  <course>7.67</course>
  <speed>0.01</speed>
  <fix>3d</fix>
</trkpt>
<trkpt lat="40.0738635" lon="-105.2302294">
  <ele>1610.76</ele>
  <time>2026-08-27T18:26:45Z</time>
  <course>7.74</course>
  <speed>0.01</speed>
  <fix>3d</fix>
</trkpt>
<trkpt lat="40.0738634" lon="-105.2302294">
  <ele>1609.97</ele>
  <time>2026-08-27T18:26:45Z</time>
  <course>37.37</course>
  <speed>0.0</speed>
  <fix>3d</fix>
</trkpt>
<trkpt lat="40.0738635" lon="-105.2302294">
  <ele>1610.84</ele>
  <time>2026-08-27T18:26:45Z</time>
  <course>7.75</course>
  <speed>0.01</speed>
  <fix>3d</fix>
</trkpt>
<trkpt lat="40.0738635" lon="-105.2302294">
  <ele>1611.26</ele>
  <time>2026-08-27T18:26:45Z</time>
  <course>7.81</course>
  <speed>0.01</speed>
  <fix>3d</fix>
</trkpt>
<trkpt lat="40.0738634" lon="-105.2302294">
  <ele>1610.46</ele>
  <time>2026-08-27T18:26:45Z</time>
  <course>43.98</course>
  <speed>0.01</speed>
  <fix>3d</fix>
</trkpt>
<trkpt lat="40.0738635" lon="-105.2302294">
  <ele>1611.27</ele>
  <time>2026-08-27T18:26:45Z</time>
  <course>7.81</course>
  <speed>0.01</speed>
  <fix>3d</fix>
</trkpt>
<trkpt lat="40.0738635" lon="-105.2302294">
  <ele>1611.76</ele>
  <time>2026-08-27T18:26:45Z</time>
  <course>7.88</course>
  <speed>0.01</speed>
  <fix>3d</fix>
</trkpt>
<trkpt lat="40.0738634" lon="-105.2302294">
  <ele>1610.96</ele>
  <time>2026-08-27T18:26:45Z</time>
  <course>49.18</course>
  <speed>0.01</speed>
  <fix>3d</fix>
</trkpt>
<trkpt lat="40.0738635" lon="-105.2302294">
  <ele>1611.84</ele>
  <time>2026-08-27T18:26:45Z</time>
  <course>7.9</course>
  <speed>0.01</speed>
  <fix>3d</fix>
</trkpt>
<trkpt lat="40.0738635" lon="-105.2302294">
  <ele>1612.27</ele>
  <time>2026-08-27T18:26:45Z</time>
  <course>7.97</course>
  <speed>0.01</speed>
  <fix>3d</fix>
</trkpt>
<trkpt lat="40.0738634" lon="-105.2302294">
  <ele>1611.46</ele>
  <time>2026-08-27T18:26:45Z</time>
  <course>55.11</course>
  <speed>0.01</speed>
  <fix>3d</fix>
</trkpt>
<trkpt lat="40.0738635" lon="-105.2302294">
  <ele>1612.35</ele>
  <time>2026-08-27T18:26:45Z</time>
  <course>7.98</course>
  <speed>0.01</speed>
  <fix>3d</fix>
</trkpt>
<trkpt lat="40.0738635" lon="-105.2302294">
  <ele>1612.77</ele>
  <time>2026-08-27T18:26:45Z</time>
  <course>8.06</course>
  <speed>0.01</speed>
  <fix>3d</fix>
</trkpt>
<trkpt lat="40.0738634" lon="-105.2302294">
  <ele>1611.96</ele>
  <time>2026-08-27T18:26:45Z</time>
  <course>62.2</course>
  <speed>0.0</speed>
  <fix>3d</fix>
</trkpt>
<trkpt lat="40.0738635" lon="-105.2302294">
  <ele>1612.84</ele>
  <time>2026-08-27T18:26:45Z</time>
  <course>8.07</course>
  <speed>0.01</speed>
  <fix>3d</fix>
</trkpt>
<trkpt lat="40.0738635" lon="-105.2302294">
  <ele>1613.26</ele>
  <time>2026-08-27T18:26:45Z</time>
  <course>8.14</course>
  <speed>0.0</speed>
  <fix>3d</fix>
</trkpt>
<trkpt lat="40.0738634" lon="-105.2302294">
  <ele>1612.47</ele>
  <time>2026-08-27T18:26:45Z</time>
  <course>68.9</course>
  <speed>0.0</speed>
  <fix>3d</fix>
</trkpt>
<trkpt lat="40.0738635" lon="-105.2302294">
  <ele>1613.27</ele>
  <time>2026-08-27T18:26:45Z</time>
  <course>8.14</course>
  <speed>0.0</speed>
  <fix>3d</fix>
</trkpt>
<trkpt lat="40.0738635" lon="-105.2302294">
  <ele>1613.76</ele>
  <time>2026-08-27T18:26:45Z</time>
  <course>8.22</course>
  <speed>0.0</speed>
  <fix>3d</fix>
</trkpt>
<trkpt lat="40.0738635" lon="-105.2302294">
  <ele>1612.97</ele>
  <time>2026-08-27T18:26:45Z</time>
  <course>74.8</course>
  <speed>0.0</speed>
  <fix>3d</fix>
</trkpt>
<trkpt lat="40.0738635" lon="-105.2302294">
  <ele>1613.84</ele>
  <time>2026-08-27T18:26:45Z</time>
  <course>8.23</course>
  <speed>0.0</speed>
  <fix>3d</fix>
</trkpt>
<trkpt lat="40.0738635" lon="-105.2302294">
  <ele>1614.26</ele>
  <time>2026-08-27T18:26:45Z</time>
  <course>8.24</course>
  <speed>0.0</speed>
  <fix>3d</fix>
</trkpt>
<trkpt lat="40.0738635" lon="-105.2302294">
  <ele>1613.47</ele>
  <time>2026-08-27T18:26:45Z</time>
  <course>80.59</course>
  <speed>0.0</speed>
  <fix>3d</fix>
</trkpt>
<trkpt lat="40.0738635" lon="-105.2302294">
  <ele>1614.27</ele>
  <time>2026-08-27T18:26:45Z</time>
  <course>8.25</course>
  <speed>0.0</speed>
  <fix>3d</fix>
</trkpt>
<trkpt lat="40.0738635" lon="-105.2302294">
  <ele>1614.76</ele>
  <time>2026-08-27T18:26:45Z</time>
  <course>8.29</course>
  <speed>0.0</speed>
  <fix>3d</fix>
</trkpt>
<trkpt lat="40.0738635" lon="-105.2302293">
  <ele>1613.97</ele>
  <time>2026-08-27T18:26:45Z</time>
  <course>86.41</course>
  <speed>0.0</speed>
  <fix>3d</fix>
</trkpt>
<trkpt lat="40.0738635" lon="-105.2302294">
  <ele>1614.83</ele>
  <time>2026-08-27T18:26:45Z</time>
  <course>8.31</course>
  <speed>0.0</speed>
  <fix>3d</fix>
</trkpt>
<trkpt lat="40.0738635" lon="-105.2302294">
  <ele>1615.26</ele>
  <time>2026-08-27T18:26:45Z</time>
  <course>8.4</course>
  <speed>0.0</speed>
  <fix>3d</fix>
</trkpt>
<trkpt lat="40.0738635" lon="-105.2302292">
  <ele>1614.47</ele>
  <time>2026-08-27T18:26:45Z</time>
  <course>92.66</course>
  <speed>0.0</speed>
  <fix>3d</fix>
</trkpt>
<trkpt lat="40.0738635" lon="-105.2302293">
  <ele>1615.33</ele>
  <time>2026-08-27T18:26:45Z</time>
  <course>8.41</course>
  <speed>0.0</speed>
  <fix>3d</fix>
</trkpt>
<trkpt lat="40.0738635" lon="-105.2302293">
  <ele>1615.76</ele>
  <time>2026-08-27T18:26:45Z</time>
  <course>8.48</course>
  <speed>0.0</speed>
  <fix>3d</fix>
</trkpt>
<trkpt lat="40.0738635" lon="-105.2302292">
  <ele>1614.97</ele>
  <time>2026-08-27T18:26:45Z</time>
  <course>100.36</course>
  <speed>0.0</speed>
  <fix>3d</fix>
</trkpt>
<trkpt lat="40.0738635" lon="-105.2302293">
  <ele>1615.77</ele>
  <time>2026-08-27T18:26:45Z</time>
  <course>8.48</course>
  <speed>0.0</speed>
  <fix>3d</fix>
</trkpt>
<trkpt lat="40.0738635" lon="-105.2302293">
  <ele>1616.26</ele>
  <time>2026-08-27T18:26:45Z</time>
  <course>8.55</course>
  <speed>0.0</speed>
  <fix>3d</fix>
</trkpt>
<trkpt lat="40.0738635" lon="-105.2302292">
  <ele>1615.48</ele>
  <time>2026-08-27T18:26:45Z</time>
  <course>108.37</course>
  <speed>0.0</speed>
  <fix>3d</fix>
</trkpt>
<trkpt lat="40.0738635" lon="-105.2302293">
  <ele>1616.35</ele>
  <time>2026-08-27T18:26:45Z</time>
  <course>8.55</course>
  <speed>0.0</speed>
  <fix>3d</fix>
</trkpt>
<trkpt lat="40.0738635" lon="-105.2302293">
  <ele>1616.77</ele>
  <time>2026-08-27T18:26:45Z</time>
  <course>8.59</course>
  <speed>0.0</speed>
  <fix>3d</fix>
</trkpt>
<trkpt lat="40.0738635" lon="-105.2302292">
  <ele>1615.98</ele>
  <time>2026-08-27T18:26:45Z</time>
  <course>118.07</course>
  <speed>0.0</speed>
  <fix>3d</fix>
</trkpt>
<trkpt lat="40.0738635" lon="-105.2302293">
  <ele>1616.85</ele>
  <time>2026-08-27T18:26:45Z</time>
  <course>8.6</course>
  <speed>0.0</speed>
  <fix>3d</fix>
</trkpt>
<trkpt lat="40.0738635" lon="-105.2302293">
  <ele>1617.27</ele>
  <time>2026-08-27T18:26:45Z</time>
  <course>8.67</course>
  <speed>0.0</speed>
  <fix>3d</fix>
</trkpt>
<trkpt lat="40.0738635" lon="-105.2302292">
  <ele>1616.48</ele>
  <time>2026-08-27T18:26:45Z</time>
  <course>128.86</course>
  <speed>0.0</speed>
  <fix>3d</fix>
</trkpt>
<trkpt lat="40.0738635" lon="-105.2302293">
  <ele>1617.27</ele>
  <time>2026-08-27T18:26:45Z</time>
  <course>8.67</course>
  <speed>0.0</speed>
  <fix>3d</fix>
</trkpt>
<trkpt lat="40.0738635" lon="-105.2302293">
  <ele>1617.76</ele>
  <time>2026-08-27T18:26:45Z</time>
  <course>8.73</course>
  <speed>0.0</speed>
  <fix>3d</fix>
</trkpt>
<trkpt lat="40.0738635" lon="-105.2302292">
  <ele>1616.98</ele>
  <time>2026-08-27T18:26:45Z</time>
  <course>138.25</course>
  <speed>0.0</speed>
  <fix>3d</fix>
</trkpt>
<trkpt lat="40.0738635" lon="-105.2302293">
  <ele>1617.84</ele>
  <time>2026-08-27T18:26:45Z</time>
  <course>8.74</course>
  <speed>0.0</speed>
  <fix>3d</fix>
</trkpt>
<trkpt lat="40.0738635" lon="-105.2302293">
  <ele>1618.26</ele>
  <time>2026-08-27T18:26:45Z</time>
  <course>8.77</course>
  <speed>0.0</speed>
  <fix>3d</fix>
</trkpt>
<trkpt lat="40.0738635" lon="-105.2302292">
  <ele>1617.48</ele>
  <time>2026-08-27T18:26:45Z</time>
  <course>145.46</course>
  <speed>0.0</speed>
  <fix>3d</fix>
</trkpt>
<trkpt lat="40.0738635" lon="-105.2302293">
  <ele>1618.27</ele>
  <time>2026-08-27T18:26:45Z</time>
  <course>8.77</course>
  <speed>0.0</speed>
  <fix>3d</fix>
</trkpt>
<trkpt lat="40.0738635" lon="-105.2302293">
  <ele>1618.76</ele>
  <time>2026-08-27T18:26:45Z</time>
  <course>8.81</course>
  <speed>0.0</speed>
  <fix>3d</fix>
</trkpt>
<trkpt lat="40.0738635" lon="-105.2302292">
  <ele>1617.99</ele>
  <time>2026-08-27T18:26:45Z</time>
  <course>153.34</course>
  <speed>0.0</speed>
  <fix>3d</fix>
</trkpt>
<trkpt lat="40.0738635" lon="-105.2302293">
  <ele>1618.84</ele>
  <time>2026-08-27T18:26:45Z</time>
  <course>8.83</course>
  <speed>0.0</speed>
  <fix>3d</fix>
</trkpt>
<trkpt lat="40.0738635" lon="-105.2302293">
  <ele>1619.26</ele>
  <time>2026-08-27T18:26:45Z</time>
  <course>8.86</course>
  <speed>0.0</speed>
  <fix>3d</fix>
</trkpt>
<trkpt lat="40.0738635" lon="-105.2302292">
  <ele>1618.49</ele>
  <time>2026-08-27T18:26:45Z</time>
  <course>161.5</course>
  <speed>0.01</speed>
  <fix>3d</fix>
</trkpt>
<trkpt lat="40.0738635" lon="-105.2302293">
  <ele>1619.35</ele>
  <time>2026-08-27T18:26:45Z</time>
  <course>8.88</course>
  <speed>0.0</speed>
  <fix>3d</fix>
</trkpt>
<trkpt lat="40.0738635" lon="-105.2302293">
  <ele>1619.76</ele>
  <time>2026-08-27T18:26:45Z</time>
  <course>8.93</course>
  <speed>0.0</speed>
  <fix>3d</fix>
</trkpt>
<trkpt lat="40.0738635" lon="-105.2302292">
  <ele>1618.99</ele>
  <time>2026-08-27T18:26:45Z</time>
  <course>167.96</course>
  <speed>0.01</speed>
  <fix>3d</fix>
</trkpt>
<trkpt lat="40.0738635" lon="-105.2302293">
  <ele>1619.84</ele>
  <time>2026-08-27T18:26:45Z</time>
  <course>8.93</course>
  <speed>0.0</speed>
  <fix>3d</fix>
</trkpt>
<trkpt lat="40.0738635" lon="-105.2302293">
  <ele>1620.26</ele>
  <time>2026-08-27T18:26:45Z</time>
  <course>9.0</course>
  <speed>0.0</speed>
  <fix>3d</fix>
</trkpt>
<trkpt lat="40.0738634" lon="-105.2302292">
  <ele>1619.49</ele>
  <time>2026-08-27T18:26:45Z</time>
  <course>172.25</course>
  <speed>0.01</speed>
  <fix>3d</fix>
</trkpt>
<trkpt lat="40.0738635" lon="-105.2302293">
  <ele>1620.34</ele>
  <time>2026-08-27T18:26:45Z</time>
  <course>9.01</course>
  <speed>0.0</speed>
  <fix>3d</fix>
</trkpt>
<trkpt lat="40.0738635" lon="-105.2302293">
  <ele>1620.76</ele>
  <time>2026-08-27T18:26:45Z</time>
  <course>9.05</course>
  <speed>0.0</speed>
  <fix>3d</fix>
</trkpt>
<trkpt lat="40.0738634" lon="-105.2302292">
  <ele>1620.0</ele>
  <time>2026-08-27T18:26:45Z</time>
  <course>175.18</course>
  <speed>0.01</speed>
  <fix>3d</fix>
</trkpt>
<trkpt lat="40.0738635" lon="-105.2302293">
  <ele>1620.77</ele>
  <time>2026-08-27T18:26:45Z</time>
  <course>9.05</course>
  <speed>0.0</speed>
  <fix>3d</fix>
</trkpt>
<trkpt lat="40.0738635" lon="-105.2302293">
  <ele>1621.26</ele>
  <time>2026-08-27T18:26:45Z</time>
  <course>9.11</course>
  <speed>0.0</speed>
  <fix>3d</fix>
</trkpt>
<trkpt lat="40.0738634" lon="-105.2302292">
  <ele>1620.5</ele>
  <time>2026-08-27T18:26:45Z</time>
  <course>177.26</course>
  <speed>0.01</speed>
  <fix>3d</fix>
</trkpt>
<trkpt lat="40.0738635" lon="-105.2302293">
  <ele>1621.35</ele>
  <time>2026-08-27T18:26:45Z</time>
  <course>9.12</course>
  <speed>0.0</speed>
  <fix>3d</fix>
</trkpt>
<trkpt lat="40.0738635" lon="-105.2302293">
  <ele>1621.76</ele>
  <time>2026-08-27T18:26:45Z</time>
  <course>9.15</course>
  <speed>0.0</speed>
  <fix>3d</fix>
</trkpt>
<trkpt lat="40.0738634" lon="-105.2302292">
  <ele>1621.0</ele>
  <time>2026-08-27T18:26:45Z</time>
  <course>178.96</course>
  <speed>0.01</speed>
  <fix>3d</fix>
</trkpt>
<trkpt lat="40.0738635" lon="-105.2302293">
  <ele>1621.84</ele>
  <time>2026-08-27T18:26:45Z</time>
  <course>9.15</course>
  <speed>0.0</speed>
  <fix>3d</fix>
</trkpt>
<trkpt lat="40.0738635" lon="-105.2302293">
  <ele>1622.26</ele>
  <time>2026-08-27T18:26:45Z</time>
  <course>9.18</course>
  <speed>0.0</speed>
  <fix>3d</fix>
</trkpt>
<trkpt lat="40.0738634" lon="-105.2302292">
  <ele>1621.5</ele>
  <time>2026-08-27T18:26:45Z</time>
  <course>178.62</course>
  <speed>0.01</speed>
  <fix>3d</fix>
</trkpt>
<trkpt lat="40.0738635" lon="-105.2302293">
  <ele>1622.34</ele>
  <time>2026-08-27T18:26:45Z</time>
  <course>9.19</course>
  <speed>0.0</speed>
  <fix>3d</fix>
</trkpt>
<trkpt lat="40.0738634" lon="-105.2302293">
  <ele>1622.76</ele>
  <time>2026-08-27T18:26:45Z</time>
  <course>9.24</course>
  <speed>0.0</speed>
  <fix>3d</fix>
</trkpt>
<trkpt lat="40.0738633" lon="-105.2302292">
  <ele>1622.01</ele>
  <time>2026-08-27T18:26:45Z</time>
  <course>178.12</course>
  <speed>0.01</speed>
  <fix>3d</fix>
</trkpt>
<trkpt lat="40.0738634" lon="-105.2302293">
  <ele>1622.84</ele>
  <time>2026-08-27T18:26:45Z</time>
  <course>9.25</course>
  <speed>0.0</speed>
  <fix>3d</fix>
</trkpt>
<trkpt lat="40.0738634" lon="-105.2302293">
  <ele>1623.27</ele>
  <time>2026-08-27T18:26:45Z</time>
  <course>9.29</course>
  <speed>0.0</speed>
  <fix>3d</fix>
</trkpt>
<trkpt lat="40.0738633" lon="-105.2302292">
  <ele>1622.51</ele>
  <time>2026-08-27T18:26:45Z</time>
  <course>179.78</course>
  <speed>0.0</speed>
  <fix>3d</fix>
</trkpt>
<trkpt lat="40.0738634" lon="-105.2302293">
  <ele>1623.34</ele>
  <time>2026-08-27T18:26:45Z</time>
  <course>9.3</course>
  <speed>0.0</speed>
  <fix>3d</fix>
</trkpt>
<trkpt lat="40.0738634" lon="-105.2302293">
  <ele>1623.77</ele>
  <time>2026-08-27T18:26:45Z</time>
  <course>9.35</course>
  <speed>0.0</speed>
  <fix>3d</fix>
</trkpt>
<trkpt lat="40.0738633" lon="-105.2302292">
  <ele>1623.01</ele>
  <time>2026-08-27T18:26:45Z</time>
  <course>181.7</course>
  <speed>0.0</speed>
  <fix>3d</fix>
</trkpt>
<trkpt lat="40.0738634" lon="-105.2302293">
  <ele>1623.78</ele>
  <time>2026-08-27T18:26:45Z</time>
  <course>9.35</course>
  <speed>0.0</speed>
  <fix>3d</fix>
</trkpt>
<trkpt lat="40.0738634" lon="-105.2302293">
  <ele>1624.27</ele>
  <time>2026-08-27T18:26:45Z</time>
  <course>9.41</course>
  <speed>0.0</speed>
  <fix>3d</fix>
</trkpt>
<trkpt lat="40.0738633" lon="-105.2302292">
  <ele>1623.52</ele>
  <time>2026-08-27T18:26:45Z</time>
  <course>183.57</course>
  <speed>0.0</speed>
  <fix>3d</fix>
</trkpt>
<trkpt lat="40.0738634" lon="-105.2302293">
  <ele>1624.36</ele>
  <time>2026-08-27T18:26:45Z</time>
  <course>9.42</course>
  <speed>0.0</speed>
  <fix>3d</fix>
</trkpt>
<trkpt lat="40.0738634" lon="-105.2302293">
  <ele>1624.77</ele>
  <time>2026-08-27T18:26:45Z</time>
  <course>9.47</course>
  <speed>0.0</speed>
  <fix>3d</fix>
</trkpt>
<trkpt lat="40.0738633" lon="-105.2302292">
  <ele>1624.02</ele>
  <time>2026-08-27T18:26:45Z</time>
  <course>183.65</course>
  <speed>0.0</speed>
  <fix>3d</fix>
</trkpt>
<trkpt lat="40.0738634" lon="-105.2302293">
  <ele>1624.86</ele>
  <time>2026-08-27T18:26:46Z</time>
  <course>9.47</course>
  <speed>0.0</speed>
  <fix>3d</fix>
</trkpt>
<trkpt lat="40.0738634" lon="-105.2302293">
  <ele>1625.27</ele>
  <time>2026-08-27T18:26:46Z</time>
  <course>9.51</course>
  <speed>0.0</speed>
  <fix>3d</fix>
</trkpt>
<trkpt lat="40.0738633" lon="-105.2302292">
  <ele>1624.52</ele>
  <time>2026-08-27T18:26:46Z</time>
  <course>181.15</course>
  <speed>0.0</speed>
  <fix>3d</fix>
</trkpt>
<trkpt lat="40.0738634" lon="-105.2302293">
  <ele>1625.35</ele>
  <time>2026-08-27T18:26:46Z</time>
  <course>9.52</course>
  <speed>0.0</speed>
  <fix>3d</fix>
</trkpt>
<trkpt lat="40.0738634" lon="-105.2302293">
  <ele>1625.77</ele>
  <time>2026-08-27T18:26:46Z</time>
  <course>9.53</course>
  <speed>0.01</speed>
  <fix>3d</fix>
</trkpt>
<trkpt lat="40.0738633" lon="-105.2302292">
  <ele>1625.02</ele>
  <time>2026-08-27T18:26:46Z</time>
  <course>175.01</course>
  <speed>0.0</speed>
  <fix>3d</fix>
</trkpt>
<trkpt lat="40.0738634" lon="-105.2302293">
  <ele>1625.85</ele>
  <time>2026-08-27T18:26:46Z</time>
  <course>9.54</course>
  <speed>0.01</speed>
  <fix>3d</fix>
</trkpt>
<trkpt lat="40.0738634" lon="-105.2302293">
  <ele>1626.27</ele>
  <time>2026-08-27T18:26:46Z</time>
  <course>9.58</course>
  <speed>0.01</speed>
  <fix>3d</fix>
</trkpt>
<trkpt lat="40.0738633" lon="-105.2302292">
  <ele>1625.52</ele>
  <time>2026-08-27T18:26:46Z</time>
  <course>175.22</course>
  <speed>0.0</speed>
  <fix>3d</fix>
</trkpt>
<trkpt lat="40.0738634" lon="-105.2302293">
  <ele>1626.28</ele>
  <time>2026-08-27T18:26:46Z</time>
  <course>9.58</course>
  <speed>0.01</speed>
  <fix>3d</fix>
</trkpt>
<trkpt lat="40.0738634" lon="-105.2302293">
  <ele>1626.77</ele>
  <time>2026-08-27T18:26:46Z</time>
  <course>9.62</course>
  <speed>0.01</speed>
  <fix>3d</fix>
</trkpt>
<trkpt lat="40.0738633" lon="-105.2302292">
  <ele>1626.02</ele>
  <time>2026-08-27T18:26:46Z</time>
  <course>184.55</course>
  <speed>0.0</speed>
  <fix>3d</fix>
</trkpt>
<trkpt lat="40.0738634" lon="-105.2302293">
  <ele>1626.86</ele>
  <time>2026-08-27T18:26:46Z</time>
  <course>9.63</course>
  <speed>0.01</speed>
  <fix>3d</fix>
</trkpt>
<trkpt lat="40.0738634" lon="-105.2302293">
  <ele>1627.28</ele>
  <time>2026-08-27T18:26:46Z</time>
  <course>9.67</course>
  <speed>0.01</speed>
  <fix>3d</fix>
</trkpt>
<trkpt lat="40.0738633" lon="-105.2302292">
  <ele>1626.52</ele>
  <time>2026-08-27T18:26:46Z</time>
  <course>200.4</course>
  <speed>0.0</speed>
  <fix>3d</fix>
</trkpt>
<trkpt lat="40.0738634" lon="-105.2302293">
  <ele>1627.37</ele>
  <time>2026-08-27T18:26:46Z</time>
  <course>9.68</course>
  <speed>0.01</speed>
  <fix>3d</fix>
</trkpt>
<trkpt lat="40.0738634" lon="-105.2302293">
  <ele>1627.79</ele>
  <time>2026-08-27T18:26:46Z</time>
  <course>9.71</course>
  <speed>0.01</speed>
  <fix>3d</fix>
</trkpt>
<trkpt lat="40.0738632" lon="-105.2302292">
  <ele>1627.03</ele>
  <time>2026-08-27T18:26:46Z</time>
  <course>221.57</course>
  <speed>0.0</speed>
  <fix>3d</fix>
</trkpt>
<trkpt lat="40.0738634" lon="-105.2302293">
  <ele>1627.87</ele>
  <time>2026-08-27T18:26:46Z</time>
  <course>9.72</course>
  <speed>0.01</speed>
  <fix>3d</fix>
</trkpt>
<trkpt lat="40.0738634" lon="-105.2302293">
  <ele>1628.29</ele>
  <time>2026-08-27T18:26:46Z</time>
  <course>9.76</course>
  <speed>0.01</speed>
  <fix>3d</fix>
</trkpt>
<trkpt lat="40.0738632" lon="-105.2302292">
  <ele>1627.53</ele>
  <time>2026-08-27T18:26:46Z</time>
  <course>229.44</course>
  <speed>0.0</speed>
  <fix>3d</fix>
</trkpt>
<trkpt lat="40.0738634" lon="-105.2302293">
  <ele>1628.3</ele>
  <time>2026-08-27T18:26:46Z</time>
  <course>9.76</course>
  <speed>0.01</speed>
  <fix>3d</fix>
</trkpt>
<trkpt lat="40.0738634" lon="-105.2302293">
  <ele>1628.79</ele>
  <time>2026-08-27T18:26:46Z</time>
  <course>9.83</course>
  <speed>0.01</speed>
  <fix>3d</fix>
</trkpt>
<trkpt lat="40.0738632" lon="-105.2302292">
  <ele>1628.03</ele>
  <time>2026-08-27T18:26:46Z</time>
  <course>235.83</course>
  <speed>0.0</speed>
  <fix>3d</fix>
</trkpt>
<trkpt lat="40.0738634" lon="-105.2302293">
  <ele>1628.87</ele>
  <time>2026-08-27T18:26:46Z</time>
  <course>9.83</course>
  <speed>0.01</speed>
  <fix>3d</fix>
</trkpt>
<trkpt lat="40.0738634" lon="-105.2302293">
  <ele>1629.29</ele>
  <time>2026-08-27T18:26:46Z</time>
  <course>9.86</course>
  <speed>0.01</speed>
  <fix>3d</fix>
</trkpt>
<trkpt lat="40.0738632" lon="-105.2302292">
  <ele>1628.52</ele>
  <time>2026-08-27T18:26:46Z</time>
  <course>234.78</course>
  <speed>0.0</speed>
  <fix>3d</fix>
</trkpt>
<trkpt lat="40.0738634" lon="-105.2302293">
  <ele>1629.3</ele>
  <time>2026-08-27T18:26:46Z</time>
  <course>9.86</course>
  <speed>0.01</speed>
  <fix>3d</fix>
</trkpt>
<trkpt lat="40.0738634" lon="-105.2302293">
  <ele>1629.79</ele>
  <time>2026-08-27T18:26:46Z</time>
  <course>9.9</course>
  <speed>0.01</speed>
  <fix>3d</fix>
</trkpt>
<trkpt lat="40.0738632" lon="-105.2302292">
  <ele>1629.02</ele>
  <time>2026-08-27T18:26:46Z</time>
  <course>236.11</course>
  <speed>0.0</speed>
  <fix>3d</fix>
</trkpt>
<trkpt lat="40.0738634" lon="-105.2302293">
  <ele>1629.87</ele>
  <time>2026-08-27T18:26:46Z</time>
  <course>9.9</course>
  <speed>0.01</speed>
  <fix>3d</fix>
</trkpt>
<trkpt lat="40.0738634" lon="-105.2302293">
  <ele>1630.28</ele>
  <time>2026-08-27T18:26:46Z</time>
  <course>9.93</course>
  <speed>0.01</speed>
  <fix>3d</fix>
</trkpt>
<trkpt lat="40.0738632" lon="-105.2302292">
  <ele>1629.52</ele>
  <time>2026-08-27T18:26:46Z</time>
  <course>356.93</course>
  <speed>0.0</speed>
  <fix>3d</fix>
</trkpt>
<trkpt lat="40.0738634" lon="-105.2302293">
  <ele>1630.36</ele>
  <time>2026-08-27T18:26:46Z</time>
  <course>9.94</course>
  <speed>0.01</speed>
  <fix>3d</fix>
</trkpt>
<trkpt lat="40.0738634" lon="-105.2302293">
  <ele>1630.78</ele>
  <time>2026-08-27T18:26:46Z</time>
  <course>9.95</course>
  <speed>0.01</speed>
  <fix>3d</fix>
</trkpt>
<trkpt lat="40.0738632" lon="-105.2302292">
  <ele>1630.01</ele>
  <time>2026-08-27T18:26:46Z</time>
  <course>0.28</course>
  <speed>0.0</speed>
  <fix>3d</fix>
</trkpt>
<trkpt lat="40.0738634" lon="-105.2302293">
  <ele>1630.79</ele>
  <time>2026-08-27T18:26:46Z</time>
  <course>9.95</course>
  <speed>0.01</speed>
  <fix>3d</fix>
</trkpt>
<trkpt lat="40.0738634" lon="-105.2302293">
  <ele>1631.28</ele>
  <time>2026-08-27T18:26:46Z</time>
  <course>9.97</course>
  <speed>0.01</speed>
  <fix>3d</fix>
</trkpt>
<trkpt lat="40.0738632" lon="-105.2302292">
  <ele>1630.51</ele>
  <time>2026-08-27T18:26:46Z</time>
  <course>5.95</course>
  <speed>0.0</speed>
  <fix>3d</fix>
</trkpt>
<trkpt lat="40.0738634" lon="-105.2302293">
  <ele>1631.35</ele>
  <time>2026-08-27T18:26:46Z</time>
  <course>9.98</course>
  <speed>0.01</speed>
  <fix>3d</fix>
</trkpt>
<trkpt lat="40.0738634" lon="-105.2302293">
  <ele>1631.78</ele>
  <time>2026-08-27T18:26:46Z</time>
  <course>10.01</course>
  <speed>0.01</speed>
  <fix>3d</fix>
</trkpt>
<trkpt lat="40.0738632" lon="-105.2302292">
  <ele>1631.01</ele>
  <time>2026-08-27T18:26:46Z</time>
  <course>10.01</course>
  <speed>0.0</speed>
  <fix>3d</fix>
</trkpt>
<trkpt lat="40.0738634" lon="-105.2302293">
  <ele>1631.86</ele>
  <time>2026-08-27T18:26:46Z</time>
  <course>10.02</course>
  <speed>0.01</speed>
  <fix>3d</fix>
</trkpt>
<trkpt lat="40.0738634" lon="-105.2302293">
  <ele>1632.28</ele>
  <time>2026-08-27T18:26:46Z</time>
  <course>10.04</course>
  <speed>0.01</speed>
  <fix>3d</fix>
</trkpt>
<trkpt lat="40.0738632" lon="-105.2302292">
  <ele>1631.51</ele>
  <time>2026-08-27T18:26:46Z</time>
  <course>11.54</course>
  <speed>0.0</speed>
  <fix>3d</fix>
</trkpt>
<trkpt lat="40.0738634" lon="-105.2302293">
  <ele>1632.29</ele>
  <time>2026-08-27T18:26:46Z</time>
  <course>10.04</course>
  <speed>0.01</speed>
  <fix>3d</fix>
</trkpt>
<trkpt lat="40.0738634" lon="-105.2302293">
  <ele>1632.78</ele>
  <time>2026-08-27T18:26:46Z</time>
  <course>10.07</course>
  <speed>0.01</speed>
  <fix>3d</fix>
</trkpt>
<trkpt lat="40.0738632" lon="-105.2302292">
  <ele>1632.0</ele>
  <time>2026-08-27T18:26:46Z</time>
  <course>10.19</course>
  <speed>0.0</speed>
  <fix>3d</fix>
</trkpt>
<trkpt lat="40.0738634" lon="-105.2302293">
  <ele>1632.85</ele>
  <time>2026-08-27T18:26:46Z</time>
  <course>10.07</course>
  <speed>0.01</speed>
  <fix>3d</fix>
</trkpt>
<trkpt lat="40.0738634" lon="-105.2302293">
  <ele>1633.28</ele>
  <time>2026-08-27T18:26:46Z</time>
  <course>10.1</course>
  <speed>0.01</speed>
  <fix>3d</fix>
</trkpt>
<trkpt lat="40.0738632" lon="-105.2302292">
  <ele>1632.5</ele>
  <time>2026-08-27T18:26:46Z</time>
  <course>5.97</course>
  <speed>0.0</speed>
  <fix>3d</fix>
</trkpt>
<trkpt lat="40.0738634" lon="-105.2302293">
  <ele>1633.29</ele>
  <time>2026-08-27T18:26:46Z</time>
  <course>10.1</course>
  <speed>0.01</speed>
  <fix>3d</fix>
</trkpt>
<trkpt lat="40.0738634" lon="-105.2302293">
  <ele>1633.78</ele>
  <time>2026-08-27T18:26:46Z</time>
  <course>10.14</course>
  <speed>0.01</speed>
  <fix>3d</fix>
</trkpt>
<trkpt lat="40.0738632" lon="-105.2302292">
  <ele>1633.0</ele>
  <time>2026-08-27T18:26:46Z</time>
  <course>3.13</course>
  <speed>0.0</speed>
  <fix>3d</fix>
</trkpt>
<trkpt lat="40.0738634" lon="-105.2302293">
  <ele>1633.86</ele>
  <time>2026-08-27T18:26:46Z</time>
  <course>10.14</course>
  <speed>0.01</speed>
  <fix>3d</fix>
</trkpt>
<trkpt lat="40.0738634" lon="-105.2302293">
  <ele>1634.28</ele>
  <time>2026-08-27T18:26:46Z</time>
  <course>10.18</course>
  <speed>0.01</speed>
  <fix>3d</fix>
</trkpt>
<trkpt lat="40.0738632" lon="-105.2302292">
  <ele>1633.5</ele>
  <time>2026-08-27T18:26:46Z</time>
  <course>0.96</course>
  <speed>0.0</speed>
  <fix>3d</fix>
</trkpt>
<trkpt lat="40.0738634" lon="-105.2302293">
  <ele>1634.36</ele>
  <time>2026-08-27T18:26:46Z</time>
  <course>10.18</course>
  <speed>0.01</speed>
  <fix>3d</fix>
</trkpt>
<trkpt lat="40.0738634" lon="-105.2302293">
  <ele>1634.78</ele>
  <time>2026-08-27T18:26:46Z</time>
  <course>10.21</course>
  <speed>0.01</speed>
  <fix>3d</fix>
</trkpt>
<trkpt lat="40.0738632" lon="-105.2302292">
  <ele>1634.0</ele>
  <time>2026-08-27T18:26:46Z</time>
  <course>1.24</course>
  <speed>0.0</speed>
  <fix>3d</fix>
</trkpt>
<trkpt lat="40.0738634" lon="-105.2302293">
  <ele>1634.86</ele>
  <time>2026-08-27T18:26:46Z</time>
  <course>10.22</course>
  <speed>0.01</speed>
  <fix>3d</fix>
</trkpt>
<trkpt lat="40.0738634" lon="-105.2302293">
  <ele>1635.28</ele>
  <time>2026-08-27T18:26:46Z</time>
  <course>10.23</course>
  <speed>0.01</speed>
  <fix>3d</fix>
</trkpt>
<trkpt lat="40.0738632" lon="-105.2302292">
  <ele>1634.5</ele>
  <time>2026-08-27T18:26:46Z</time>
  <course>359.87</course>
  <speed>0.0</speed>
  <fix>3d</fix>
</trkpt>
<trkpt lat="40.0738634" lon="-105.2302293">
  <ele>1635.35</ele>
  <time>2026-08-27T18:26:46Z</time>
  <course>10.24</course>
  <speed>0.01</speed>
  <fix>3d</fix>
</trkpt>
<trkpt lat="40.0738634" lon="-105.2302293">
  <ele>1635.78</ele>
  <time>2026-08-27T18:26:46Z</time>
  <course>10.25</course>
  <speed>0.01</speed>
  <fix>3d</fix>
</trkpt>
<trkpt lat="40.0738632" lon="-105.2302292">
  <ele>1635.0</ele>
  <time>2026-08-27T18:26:46Z</time>
  <course>354.79</course>
  <speed>0.0</speed>
  <fix>3d</fix>
</trkpt>
<trkpt lat="40.0738634" lon="-105.2302293">
  <ele>1635.79</ele>
  <time>2026-08-27T18:26:46Z</time>
  <course>10.25</course>
  <speed>0.01</speed>
  <fix>3d</fix>
</trkpt>
<trkpt lat="40.0738634" lon="-105.2302293">
  <ele>1636.28</ele>
  <time>2026-08-27T18:26:46Z</time>
  <course>10.29</course>
  <speed>0.01</speed>
  <fix>3d</fix>
</trkpt>
<trkpt lat="40.0738632" lon="-105.2302292">
  <ele>1635.49</ele>
  <time>2026-08-27T18:26:46Z</time>
  <course>355.61</course>
  <speed>0.0</speed>
  <fix>3d</fix>
</trkpt>
<trkpt lat="40.0738634" lon="-105.2302293">
  <ele>1636.35</ele>
  <time>2026-08-27T18:26:46Z</time>
  <course>10.29</course>
  <speed>0.01</speed>
  <fix>3d</fix>
</trkpt>
<trkpt lat="40.0738634" lon="-105.2302293">
  <ele>1636.78</ele>
  <time>2026-08-27T18:26:46Z</time>
  <course>10.32</course>
  <speed>0.01</speed>
  <fix>3d</fix>
</trkpt>
<trkpt lat="40.0738632" lon="-105.2302292">
  <ele>1635.99</ele>
  <time>2026-08-27T18:26:46Z</time>
  <course>0.0</course>
  <speed>0.0</speed>
  <fix>3d</fix>
</trkpt>
<trkpt lat="40.0738634" lon="-105.2302293">
  <ele>1636.85</ele>
  <time>2026-08-27T18:26:46Z</time>
  <course>10.33</course>
  <speed>0.01</speed>
  <fix>3d</fix>
</trkpt>
<trkpt lat="40.0738634" lon="-105.2302293">
  <ele>1637.28</ele>
  <time>2026-08-27T18:26:46Z</time>
  <course>10.34</course>
  <speed>0.01</speed>
  <fix>3d</fix>
</trkpt>
<trkpt lat="40.0738632" lon="-105.2302292">
  <ele>1636.49</ele>
  <time>2026-08-27T18:26:46Z</time>
  <course>0.71</course>
  <speed>0.0</speed>
  <fix>3d</fix>
</trkpt>
<trkpt lat="40.0738634" lon="-105.2302293">
  <ele>1637.35</ele>
  <time>2026-08-27T18:26:46Z</time>
  <course>10.34</course>
  <speed>0.01</speed>
  <fix>3d</fix>
</trkpt>
<trkpt lat="40.0738634" lon="-105.2302293">
  <ele>1637.78</ele>
  <time>2026-08-27T18:26:46Z</time>
  <course>10.37</course>
  <speed>0.01</speed>
  <fix>3d</fix>
</trkpt>
<trkpt lat="40.0738632" lon="-105.2302292">
  <ele>1636.99</ele>
  <time>2026-08-27T18:26:46Z</time>
  <course>2.28</course>
  <speed>0.0</speed>
  <fix>3d</fix>
</trkpt>
<trkpt lat="40.0738634" lon="-105.2302293">
  <ele>1637.86</ele>
  <time>2026-08-27T18:26:46Z</time>
  <course>10.37</course>
  <speed>0.01</speed>
  <fix>3d</fix>
</trkpt>
<trkpt lat="40.0738634" lon="-105.2302293">
  <ele>1638.28</ele>
  <time>2026-08-27T18:26:46Z</time>
  <course>10.39</course>
  <speed>0.01</speed>
  <fix>3d</fix>
</trkpt>
<trkpt lat="40.0738632" lon="-105.2302292">
  <ele>1637.49</ele>
  <time>2026-08-27T18:26:46Z</time>
  <course>6.54</course>
  <speed>0.0</speed>
  <fix>3d</fix>
</trkpt>
<trkpt lat="40.0738634" lon="-105.2302293">
  <ele>1638.29</ele>
  <time>2026-08-27T18:26:46Z</time>
  <course>10.39</course>
  <speed>0.01</speed>
  <fix>3d</fix>
</trkpt>
<trkpt lat="40.0738634" lon="-105.2302293">
  <ele>1638.78</ele>
  <time>2026-08-27T18:26:46Z</time>
  <course>10.44</course>
  <speed>0.01</speed>
  <fix>3d</fix>
</trkpt>
<trkpt lat="40.0738632" lon="-105.2302292">
  <ele>1637.98</ele>
  <time>2026-08-27T18:26:46Z</time>
  <course>8.08</course>
  <speed>0.0</speed>
  <fix>3d</fix>
</trkpt>
<trkpt lat="40.0738634" lon="-105.2302293">
  <ele>1638.86</ele>
  <time>2026-08-27T18:26:46Z</time>
  <course>10.45</course>
  <speed>0.01</speed>
  <fix>3d</fix>
</trkpt>
<trkpt lat="40.0738634" lon="-105.2302293">
  <ele>1639.28</ele>
  <time>2026-08-27T18:26:46Z</time>
  <course>10.45</course>
  <speed>0.01</speed>
  <fix>3d</fix>
</trkpt>
<trkpt lat="40.0738633" lon="-105.2302292">
  <ele>1638.48</ele>
  <time>2026-08-27T18:26:46Z</time>
  <course>7.18</course>
  <speed>0.0</speed>
  <fix>3d</fix>
</trkpt>
<trkpt lat="40.0738634" lon="-105.2302293">
  <ele>1639.36</ele>
  <time>2026-08-27T18:26:46Z</time>
  <course>10.46</course>
  <speed>0.01</speed>
  <fix>3d</fix>
</trkpt>
<trkpt lat="40.0738634" lon="-105.2302293">
  <ele>1639.78</ele>
  <time>2026-08-27T18:26:46Z</time>
  <course>10.48</course>
  <speed>0.01</speed>
  <fix>3d</fix>
</trkpt>
<trkpt lat="40.0738633" lon="-105.2302292">
  <ele>1638.98</ele>
  <time>2026-08-27T18:26:46Z</time>
  <course>5.5</course>
  <speed>0.0</speed>
  <fix>3d</fix>
</trkpt>
<trkpt lat="40.0738634" lon="-105.2302293">
  <ele>1639.85</ele>
  <time>2026-08-27T18:26:46Z</time>
  <course>10.48</course>
  <speed>0.01</speed>
  <fix>3d</fix>
</trkpt>
<trkpt lat="40.0738634" lon="-105.2302293">
  <ele>1640.27</ele>
  <time>2026-08-27T18:26:46Z</time>
  <course>10.5</course>
  <speed>0.01</speed>
  <fix>3d</fix>
</trkpt>
<trkpt lat="40.0738633" lon="-105.2302292">
  <ele>1639.48</ele>
  <time>2026-08-27T18:26:46Z</time>
  <course>9.15</course>
  <speed>0.0</speed>
  <fix>3d</fix>
</trkpt>
<trkpt lat="40.0738634" lon="-105.2302293">
  <ele>1640.35</ele>
  <time>2026-08-27T18:26:46Z</time>
  <course>10.49</course>
  <speed>0.01</speed>
  <fix>3d</fix>
</trkpt>
<trkpt lat="40.0738634" lon="-105.2302293">
  <ele>1640.77</ele>
  <time>2026-08-27T18:26:46Z</time>
  <course>10.52</course>
  <speed>0.01</speed>
  <fix>3d</fix>
</trkpt>
<trkpt lat="40.0738633" lon="-105.2302292">
  <ele>1639.98</ele>
  <time>2026-08-27T18:26:46Z</time>
  <course>20.26</course>
  <speed>0.0</speed>
  <fix>3d</fix>
</trkpt>
<trkpt lat="40.0738634" lon="-105.2302293">
  <ele>1640.85</ele>
  <time>2026-08-27T18:26:46Z</time>
  <course>10.52</course>
  <speed>0.01</speed>
  <fix>3d</fix>
</trkpt>
<trkpt lat="40.0738634" lon="-105.2302293">
  <ele>1641.27</ele>
  <time>2026-08-27T18:26:46Z</time>
  <course>10.54</course>
  <speed>0.01</speed>
  <fix>3d</fix>
</trkpt>
<trkpt lat="40.0738633" lon="-105.2302292">
  <ele>1640.47</ele>
  <time>2026-08-27T18:26:46Z</time>
  <course>32.54</course>
  <speed>0.0</speed>
  <fix>3d</fix>
</trkpt>
<trkpt lat="40.0738634" lon="-105.2302293">
  <ele>1641.27</ele>
  <time>2026-08-27T18:26:46Z</time>
  <course>10.54</course>
  <speed>0.01</speed>
  <fix>3d</fix>
</trkpt>
<trkpt lat="40.0738634" lon="-105.2302293">
  <ele>1641.76</ele>
  <time>2026-08-27T18:26:46Z</time>
  <course>10.56</course>
  <speed>0.01</speed>
  <fix>3d</fix>
</trkpt>
<trkpt lat="40.0738633" lon="-105.2302292">
  <ele>1640.97</ele>
  <time>2026-08-27T18:26:46Z</time>
  <course>46.5</course>
  <speed>0.0</speed>
  <fix>3d</fix>
</trkpt>
<trkpt lat="40.0738634" lon="-105.2302293">
  <ele>1641.84</ele>
  <time>2026-08-27T18:26:46Z</time>
  <course>10.56</course>
  <speed>0.01</speed>
  <fix>3d</fix>
</trkpt>
<trkpt lat="40.0738634" lon="-105.2302293">
  <ele>1642.26</ele>
  <time>2026-08-27T18:26:46Z</time>
  <course>10.57</course>
  <speed>0.01</speed>
  <fix>3d</fix>
</trkpt>
<trkpt lat="40.0738633" lon="-105.2302292">
  <ele>1641.47</ele>
  <time>2026-08-27T18:26:46Z</time>
  <course>61.51</course>
  <speed>0.0</speed>
  <fix>3d</fix>
</trkpt>
<trkpt lat="40.0738634" lon="-105.2302293">
  <ele>1642.33</ele>
  <time>2026-08-27T18:26:46Z</time>
  <course>10.58</course>
  <speed>0.01</speed>
  <fix>3d</fix>
</trkpt>
<trkpt lat="40.0738634" lon="-105.2302293">
  <ele>1642.76</ele>
  <time>2026-08-27T18:26:46Z</time>
  <course>10.58</course>
  <speed>0.0</speed>
  <fix>3d</fix>
</trkpt>
<trkpt lat="40.0738633" lon="-105.2302292">
  <ele>1641.97</ele>
  <time>2026-08-27T18:26:46Z</time>
  <course>113.1</course>
  <speed>0.0</speed>
  <fix>3d</fix>
</trkpt>
<trkpt lat="40.0738634" lon="-105.2302293">
  <ele>1642.83</ele>
  <time>2026-08-27T18:26:46Z</time>
  <course>10.59</course>
  <speed>0.0</speed>
  <fix>3d</fix>
</trkpt>
<trkpt lat="40.0738634" lon="-105.2302293">
  <ele>1643.27</ele>
  <time>2026-08-27T18:26:46Z</time>
  <course>10.62</course>
  <speed>0.0</speed>
  <fix>3d</fix>
</trkpt>
<trkpt lat="40.0738633" lon="-105.2302292">
  <ele>1642.47</ele>
  <time>2026-08-27T18:26:46Z</time>
  <course>159.57</course>
  <speed>0.0</speed>
  <fix>3d</fix>
</trkpt>
<trkpt lat="40.0738634" lon="-105.2302293">
  <ele>1643.27</ele>
  <time>2026-08-27T18:26:46Z</time>
  <course>10.62</course>
  <speed>0.0</speed>
  <fix>3d</fix>
</trkpt>
<trkpt lat="40.0738634" lon="-105.2302293">
  <ele>1643.77</ele>
  <time>2026-08-27T18:26:46Z</time>
  <course>10.63</course>
  <speed>0.0</speed>
  <fix>3d</fix>
</trkpt>
<trkpt lat="40.0738633" lon="-105.2302292">
  <ele>1642.97</ele>
  <time>2026-08-27T18:26:46Z</time>
  <course>172.19</course>
  <speed>0.0</speed>
  <fix>3d</fix>
</trkpt>
<trkpt lat="40.0738634" lon="-105.2302293">
  <ele>1643.85</ele>
  <time>2026-08-27T18:26:46Z</time>
  <course>10.64</course>
  <speed>0.0</speed>
  <fix>3d</fix>
</trkpt>
<trkpt lat="40.0738634" lon="-105.2302293">
  <ele>1644.27</ele>
  <time>2026-08-27T18:26:46Z</time>
  <course>10.66</course>
  <speed>0.0</speed>
  <fix>3d</fix>
</trkpt>
<trkpt lat="40.0738633" lon="-105.2302292">
  <ele>1643.48</ele>
  <time>2026-08-27T18:26:46Z</time>
  <course>176.49</course>
  <speed>0.0</speed>
  <fix>3d</fix>
</trkpt>
<trkpt lat="40.0738634" lon="-105.2302293">
  <ele>1644.28</ele>
  <time>2026-08-27T18:26:46Z</time>
  <course>10.66</course>
  <speed>0.0</speed>
  <fix>3d</fix>
</trkpt>
<trkpt lat="40.0738634" lon="-105.2302293">
  <ele>1644.77</ele>
  <time>2026-08-27T18:26:46Z</time>
  <course>10.68</course>
  <speed>0.0</speed>
  <fix>3d</fix>
</trkpt>
<trkpt lat="40.0738633" lon="-105.2302292">
  <ele>1643.98</ele>
  <time>2026-08-27T18:26:46Z</time>
  <course>180.76</course>
  <speed>0.0</speed>
  <fix>3d</fix>
</trkpt>
<trkpt lat="40.0738634" lon="-105.2302293">
  <ele>1644.85</ele>
  <time>2026-08-27T18:26:46Z</time>
  <course>10.69</course>
  <speed>0.0</speed>
  <fix>3d</fix>
</trkpt>
<trkpt lat="40.0738634" lon="-105.2302293">
  <ele>1645.28</ele>
  <time>2026-08-27T18:26:46Z</time>
  <course>10.71</course>
  <speed>0.0</speed>
  <fix>3d</fix>
</trkpt>
<trkpt lat="40.0738633" lon="-105.2302292">
  <ele>1644.48</ele>
  <time>2026-08-27T18:26:46Z</time>
  <course>181.85</course>
  <speed>0.0</speed>
  <fix>3d</fix>
</trkpt>
<trkpt lat="40.0738634" lon="-105.2302293">
  <ele>1645.36</ele>
  <time>2026-08-27T18:26:46Z</time>
  <course>10.71</course>
  <speed>0.0</speed>
  <fix>3d</fix>
</trkpt>
<trkpt lat="40.0738634" lon="-105.2302293">
  <ele>1645.78</ele>
  <time>2026-08-27T18:26:46Z</time>
  <course>10.73</course>
  <speed>0.0</speed>
  <fix>3d</fix>
</trkpt>
<trkpt lat="40.0738633" lon="-105.2302292">
  <ele>1644.98</ele>
  <time>2026-08-27T18:26:46Z</time>
  <course>181.09</course>
  <speed>0.0</speed>
  <fix>3d</fix>
</trkpt>
<trkpt lat="40.0738634" lon="-105.2302293">
  <ele>1645.8</ele>
  <time>2026-08-27T18:26:46Z</time>
  <course>10.73</course>
  <speed>0.0</speed>
  <fix>3d</fix>
</trkpt>
<trkpt lat="40.0738634" lon="-105.2302293">
  <ele>1646.28</ele>
  <time>2026-08-27T18:26:46Z</time>
  <course>10.75</course>
  <speed>0.0</speed>
  <fix>3d</fix>
</trkpt>
<trkpt lat="40.0738633" lon="-105.2302292">
  <ele>1645.48</ele>
  <time>2026-08-27T18:26:46Z</time>
  <course>179.4</course>
  <speed>0.0</speed>
  <fix>3d</fix>
</trkpt>
<trkpt lat="40.0738634" lon="-105.2302293">
  <ele>1646.37</ele>
  <time>2026-08-27T18:26:46Z</time>
  <course>10.75</course>
  <speed>0.0</speed>
  <fix>3d</fix>
</trkpt>
<trkpt lat="40.0738634" lon="-105.2302293">
  <ele>1646.78</ele>
  <time>2026-08-27T18:26:46Z</time>
  <course>10.8</course>
  <speed>0.0</speed>
  <fix>3d</fix>
</trkpt>
<trkpt lat="40.0738633" lon="-105.2302292">
  <ele>1645.98</ele>
  <time>2026-08-27T18:26:46Z</time>
  <course>178.22</course>
  <speed>0.0</speed>
  <fix>3d</fix>
</trkpt>
<trkpt lat="40.0738634" lon="-105.2302293">
  <ele>1646.86</ele>
  <time>2026-08-27T18:26:46Z</time>
  <course>10.8</course>
  <speed>0.0</speed>
  <fix>3d</fix>
</trkpt>
<trkpt lat="40.0738634" lon="-105.2302293">
  <ele>1647.28</ele>
  <time>2026-08-27T18:26:46Z</time>
  <course>10.81</course>
  <speed>0.0</speed>
  <fix>3d</fix>
</trkpt>
<trkpt lat="40.0738633" lon="-105.2302292">
  <ele>1646.47</ele>
  <time>2026-08-27T18:26:46Z</time>
  <course>174.7</course>
  <speed>0.0</speed>
  <fix>3d</fix>
</trkpt>
<trkpt lat="40.0738634" lon="-105.2302293">
  <ele>1647.3</ele>
  <time>2026-08-27T18:26:46Z</time>
  <course>10.81</course>
  <speed>0.0</speed>
  <fix>3d</fix>
</trkpt>
<trkpt lat="40.0738634" lon="-105.2302293">
  <ele>1647.77</ele>
  <time>2026-08-27T18:26:46Z</time>
  <course>10.82</course>
  <speed>0.0</speed>
  <fix>3d</fix>
</trkpt>
<trkpt lat="40.0738633" lon="-105.2302292">
  <ele>1646.97</ele>
  <time>2026-08-27T18:26:46Z</time>
  <course>171.88</course>
  <speed>0.0</speed>
  <fix>3d</fix>
</trkpt>
<trkpt lat="40.0738634" lon="-105.2302293">
  <ele>1647.86</ele>
  <time>2026-08-27T18:26:46Z</time>
  <course>10.81</course>
  <speed>0.0</speed>
  <fix>3d</fix>
</trkpt>
<trkpt lat="40.0738634" lon="-105.2302293">
  <ele>1648.27</ele>
  <time>2026-08-27T18:26:46Z</time>
  <course>10.83</course>
  <speed>0.0</speed>
  <fix>3d</fix>
</trkpt>
<trkpt lat="40.0738633" lon="-105.2302292">
  <ele>1647.47</ele>
  <time>2026-08-27T18:26:46Z</time>
  <course>169.99</course>
  <speed>0.0</speed>
  <fix>3d</fix>
</trkpt>
<trkpt lat="40.0738634" lon="-105.2302293">
  <ele>1648.28</ele>
  <time>2026-08-27T18:26:46Z</time>
  <course>10.83</course>
  <speed>0.0</speed>
  <fix>3d</fix>
</trkpt>
<trkpt lat="40.0738634" lon="-105.2302293">
  <ele>1648.77</ele>
  <time>2026-08-27T18:26:46Z</time>
  <course>10.84</course>
  <speed>0.0</speed>
  <fix>3d</fix>
</trkpt>
<trkpt lat="40.0738633" lon="-105.2302292">
  <ele>1647.97</ele>
  <time>2026-08-27T18:26:46Z</time>
  <course>166.24</course>
  <speed>0.0</speed>
  <fix>3d</fix>
</trkpt>
<trkpt lat="40.0738634" lon="-105.2302293">
  <ele>1648.84</ele>
  <time>2026-08-27T18:26:46Z</time>
  <course>10.84</course>
  <speed>0.0</speed>
  <fix>3d</fix>
</trkpt>
<trkpt lat="40.0738634" lon="-105.2302293">
  <ele>1649.27</ele>
  <time>2026-08-27T18:26:46Z</time>
  <course>10.86</course>
  <speed>0.0</speed>
  <fix>3d</fix>
</trkpt>
<trkpt lat="40.0738633" lon="-105.2302291">
  <ele>1648.47</ele>
  <time>2026-08-27T18:26:46Z</time>
  <course>163.08</course>
  <speed>0.0</speed>
  <fix>3d</fix>
</trkpt>
<trkpt lat="40.0738634" lon="-105.2302293">
  <ele>1649.34</ele>
  <time>2026-08-27T18:26:46Z</time>
  <course>10.86</course>
  <speed>0.0</speed>
  <fix>3d</fix>
</trkpt>
<trkpt lat="40.0738634" lon="-105.2302293">
  <ele>1649.76</ele>
  <time>2026-08-27T18:26:46Z</time>
  <course>10.85</course>
  <speed>0.0</speed>
  <fix>3d</fix>
</trkpt>
<trkpt lat="40.0738632" lon="-105.230229">
  <ele>1648.97</ele>
  <time>2026-08-27T18:26:46Z</time>
  <course>160.07</course>
  <speed>0.0</speed>
  <fix>3d</fix>
</trkpt>
<trkpt lat="40.0738634" lon="-105.2302293">
  <ele>1649.84</ele>
  <time>2026-08-27T18:26:46Z</time>
  <course>10.86</course>
  <speed>0.0</speed>
  <fix>3d</fix>
</trkpt>
<trkpt lat="40.0738634" lon="-105.2302293">
  <ele>1650.26</ele>
  <time>2026-08-27T18:26:46Z</time>
  <course>10.88</course>
  <speed>0.0</speed>
  <fix>3d</fix>
</trkpt>
<trkpt lat="40.0738632" lon="-105.230229">
  <ele>1649.47</ele>
  <time>2026-08-27T18:26:46Z</time>
  <course>161.57</course>
  <speed>0.0</speed>
  <fix>3d</fix>
</trkpt>
<trkpt lat="40.0738634" lon="-105.2302293">
  <ele>1650.35</ele>
  <time>2026-08-27T18:26:46Z</time>
  <course>10.87</course>
  <speed>0.0</speed>
  <fix>3d</fix>
</trkpt>
<trkpt lat="40.0738634" lon="-105.2302292">
  <ele>1650.77</ele>
  <time>2026-08-27T18:26:46Z</time>
  <course>10.89</course>
  <speed>0.0</speed>
  <fix>3d</fix>
</trkpt>
<trkpt lat="40.0738632" lon="-105.230229">
  <ele>1649.97</ele>
  <time>2026-08-27T18:26:46Z</time>
  <course>168.0</course>
  <speed>0.0</speed>
  <fix>3d</fix>
</trkpt>
<trkpt lat="40.0738634" lon="-105.2302292">
  <ele>1650.77</ele>
  <time>2026-08-27T18:26:46Z</time>
  <course>10.89</course>
  <speed>0.0</speed>
  <fix>3d</fix>
</trkpt>
<trkpt lat="40.0738633" lon="-105.2302292">
  <ele>1651.27</ele>
  <time>2026-08-27T18:26:46Z</time>
  <course>10.91</course>
  <speed>0.0</speed>
  <fix>3d</fix>
</trkpt>
<trkpt lat="40.0738632" lon="-105.230229">
  <ele>1650.47</ele>
  <time>2026-08-27T18:26:46Z</time>
  <course>175.95</course>
  <speed>0.0</speed>
  <fix>3d</fix>
</trkpt>
<trkpt lat="40.0738633" lon="-105.2302292">
  <ele>1651.35</ele>
  <time>2026-08-27T18:26:46Z</time>
  <course>10.92</course>
  <speed>0.0</speed>
  <fix>3d</fix>
</trkpt>
<trkpt lat="40.0738633" lon="-105.2302292">
  <ele>1651.77</ele>
  <time>2026-08-27T18:26:46Z</time>
  <course>10.93</course>
  <speed>0.01</speed>
  <fix>3d</fix>
</trkpt>
<trkpt lat="40.0738632" lon="-105.230229">
  <ele>1650.97</ele>
  <time>2026-08-27T18:26:46Z</time>
  <course>186.32</course>
  <speed>0.0</speed>
  <fix>3d</fix>
</trkpt>
<trkpt lat="40.0738633" lon="-105.2302292">
  <ele>1651.84</ele>
  <time>2026-08-27T18:26:46Z</time>
  <course>10.93</course>
  <speed>0.01</speed>
  <fix>3d</fix>
</trkpt>
<trkpt lat="40.0738633" lon="-105.2302292">
  <ele>1652.27</ele>
  <time>2026-08-27T18:26:46Z</time>
  <course>10.94</course>
  <speed>0.01</speed>
  <fix>3d</fix>
</trkpt>
<trkpt lat="40.0738632" lon="-105.230229">
  <ele>1651.47</ele>
  <time>2026-08-27T18:26:46Z</time>
  <course>197.65</course>
  <speed>0.0</speed>
  <fix>3d</fix>
</trkpt>
<trkpt lat="40.0738633" lon="-105.2302292">
  <ele>1652.35</ele>
  <time>2026-08-27T18:26:46Z</time>
  <course>10.94</course>
  <speed>0.01</speed>
  <fix>3d</fix>
</trkpt>
<trkpt lat="40.0738633" lon="-105.2302292">
  <ele>1652.77</ele>
  <time>2026-08-27T18:26:46Z</time>
  <course>10.97</course>
  <speed>0.01</speed>
  <fix>3d</fix>
</trkpt>
<trkpt lat="40.0738632" lon="-105.230229">
  <ele>1651.97</ele>
  <time>2026-08-27T18:26:46Z</time>
  <course>211.67</course>
  <speed>0.0</speed>
  <fix>3d</fix>
</trkpt>
<trkpt lat="40.0738633" lon="-105.2302292">
  <ele>1652.85</ele>
  <time>2026-08-27T18:26:46Z</time>
  <course>10.97</course>
  <speed>0.01</speed>
  <fix>3d</fix>
</trkpt>
<trkpt lat="40.0738633" lon="-105.2302292">
  <ele>1653.27</ele>
  <time>2026-08-27T18:26:46Z</time>
  <course>10.99</course>
  <speed>0.01414213562373095</speed>
  <fix>3d</fix>
</trkpt>
<trkpt lat="40.0738632" lon="-105.230229">
  <ele>1652.47</ele>
  <time>2026-08-27T18:26:46Z</time>
  <course>225.02</course>
  <speed>0.0</speed>
  <fix>3d</fix>
</trkpt>
<trkpt lat="40.0738633" lon="-105.2302292">
  <ele>1653.28</ele>
  <time>2026-08-27T18:26:46Z</time>
  <course>10.99</course>
  <speed>0.01414213562373095</speed>
  <fix>3d</fix>
</trkpt>
<trkpt lat="40.0738633" lon="-105.2302292">
  <ele>1653.77</ele>
  <time>2026-08-27T18:26:46Z</time>
  <course>11.0</course>
  <speed>0.01414213562373095</speed>
  <fix>3d</fix>
</trkpt>
<trkpt lat="40.0738632" lon="-105.230229">
  <ele>1652.97</ele>
  <time>2026-08-27T18:26:46Z</time>
  <course>234.51</course>
  <speed>0.0</speed>
  <fix>3d</fix>
</trkpt>
<trkpt lat="40.0738633" lon="-105.2302292">
  <ele>1653.85</ele>
  <time>2026-08-27T18:26:46Z</time>
  <course>11.0</course>
  <speed>0.01414213562373095</speed>
  <fix>3d</fix>
</trkpt>
<trkpt lat="40.0738633" lon="-105.2302292">
  <ele>1654.26</ele>
  <time>2026-08-27T18:26:46Z</time>
  <course>10.98</course>
  <speed>0.01414213562373095</speed>
  <fix>3d</fix>
</trkpt>
<trkpt lat="40.0738631" lon="-105.230229">
  <ele>1653.47</ele>
  <time>2026-08-27T18:26:46Z</time>
  <course>240.11</course>
  <speed>0.0</speed>
  <fix>3d</fix>
</trkpt>
<trkpt lat="40.0738633" lon="-105.2302292">
  <ele>1654.35</ele>
  <time>2026-08-27T18:26:46Z</time>
  <course>10.99</course>
  <speed>0.01414213562373095</speed>
  <fix>3d</fix>
</trkpt>
<trkpt lat="40.0738633" lon="-105.2302292">
  <ele>1654.76</ele>
  <time>2026-08-27T18:26:46Z</time>
  <course>11.01</course>
  <speed>0.01414213562373095</speed>
  <fix>3d</fix>
</trkpt>
<trkpt lat="40.073863" lon="-105.230229">
  <ele>1653.97</ele>
  <time>2026-08-27T18:26:46Z</time>
  <course>244.96</course>
  <speed>0.0</speed>
  <fix>3d</fix>
</trkpt>
<trkpt lat="40.0738633" lon="-105.2302292">
  <ele>1654.85</ele>
  <time>2026-08-27T18:26:46Z</time>
  <course>11.0</course>
  <speed>0.01414213562373095</speed>
  <fix>3d</fix>
</trkpt>
<trkpt lat="40.0738633" lon="-105.2302292">
  <ele>1655.26</ele>
  <time>2026-08-27T18:26:46Z</time>
  <course>11.02</course>
  <speed>0.01414213562373095</speed>
  <fix>3d</fix>
</trkpt>
<trkpt lat="40.073863" lon="-105.230229">
  <ele>1654.47</ele>
  <time>2026-08-27T18:26:46Z</time>
  <course>251.31</course>
  <speed>0.0</speed>
  <fix>3d</fix>
</trkpt>
<trkpt lat="40.0738633" lon="-105.2302292">
  <ele>1655.34</ele>
  <time>2026-08-27T18:26:46Z</time>
  <course>11.02</course>
  <speed>0.01414213562373095</speed>
  <fix>3d</fix>
</trkpt>
<trkpt lat="40.0738633" lon="-105.2302292">
  <ele>1655.76</ele>
  <time>2026-08-27T18:26:46Z</time>
  <course>11.02</course>
  <speed>0.01414213562373095</speed>
  <fix>3d</fix>
</trkpt>
<trkpt lat="40.073863" lon="-105.230229">
  <ele>1654.97</ele>
  <time>2026-08-27T18:26:46Z</time>
  <course>258.93</course>
  <speed>0.0</speed>
  <fix>3d</fix>
</trkpt>
<trkpt lat="40.0738633" lon="-105.2302292">
  <ele>1655.86</ele>
  <time>2026-08-27T18:26:46Z</time>
  <course>11.02</course>
  <speed>0.01414213562373095</speed>
  <fix>3d</fix>
</trkpt>
<trkpt lat="40.0738633" lon="-105.2302292">
  <ele>1656.26</ele>
  <time>2026-08-27T18:26:46Z</time>
  <course>11.02</course>
  <speed>0.01414213562373095</speed>
  <fix>3d</fix>
</trkpt>
<trkpt lat="40.073863" lon="-105.2302291">
  <ele>1655.47</ele>
  <time>2026-08-27T18:26:46Z</time>
  <course>268.36</course>
  <speed>0.0</speed>
  <fix>3d</fix>
</trkpt>
<trkpt lat="40.0738633" lon="-105.2302292">
  <ele>1656.27</ele>
  <time>2026-08-27T18:26:46Z</time>
  <course>11.02</course>
  <speed>0.01414213562373095</speed>
  <fix>3d</fix>
</trkpt>
<trkpt lat="40.0738633" lon="-105.2302292">
  <ele>1656.76</ele>
  <time>2026-08-27T18:26:46Z</time>
  <course>11.05</course>
  <speed>0.01414213562373095</speed>
  <fix>3d</fix>
</trkpt>
<trkpt lat="40.073863" lon="-105.2302292">
  <ele>1655.98</ele>
  <time>2026-08-27T18:26:46Z</time>
  <course>279.54</course>
  <speed>0.0</speed>
  <fix>3d</fix>
</trkpt>
<trkpt lat="40.0738632" lon="-105.2302292">
  <ele>1656.86</ele>
  <time>2026-08-27T18:26:46Z</time>
  <course>11.06</course>
  <speed>0.01414213562373095</speed>
  <fix>3d</fix>
</trkpt>
<trkpt lat="40.0738632" lon="-105.2302292">
  <ele>1657.26</ele>
  <time>2026-08-27T18:26:46Z</time>
  <course>11.07</course>
  <speed>0.01414213562373095</speed>
  <fix>3d</fix>
</trkpt>
<trkpt lat="40.073863" lon="-105.2302292">
  <ele>1656.48</ele>
  <time>2026-08-27T18:26:46Z</time>
  <course>289.78</course>
  <speed>0.0</speed>
  <fix>3d</fix>
</trkpt>
<trkpt lat="40.0738632" lon="-105.2302292">
  <ele>1657.35</ele>
  <time>2026-08-27T18:26:46Z</time>
  <course>11.06</course>
  <speed>0.01414213562373095</speed>
  <fix>3d</fix>
</trkpt>
<trkpt lat="40.0738632" lon="-105.2302292">
  <ele>1657.76</ele>
  <time>2026-08-27T18:26:46Z</time>
  <course>11.06</course>
  <speed>0.022360679774997897</speed>
  <fix>3d</fix>
</trkpt>
<trkpt lat="40.073863" lon="-105.2302292">
  <ele>1656.98</ele>
  <time>2026-08-27T18:26:46Z</time>
  <course>299.19</course>
  <speed>0.01</speed>
  <fix>3d</fix>
</trkpt>
<trkpt lat="40.0738632" lon="-105.2302292">
  <ele>1657.84</ele>
  <time>2026-08-27T18:26:46Z</time>
  <course>11.06</course>
  <speed>0.022360679774997897</speed>
  <fix>3d</fix>
</trkpt>
<trkpt lat="40.0738632" lon="-105.2302292">
  <ele>1658.26</ele>
  <time>2026-08-27T18:26:46Z</time>
  <course>11.07</course>
  <speed>0.022360679774997897</speed>
  <fix>3d</fix>
</trkpt>
<trkpt lat="40.073863" lon="-105.2302292">
  <ele>1657.48</ele>
  <time>2026-08-27T18:26:46Z</time>
  <course>309.16</course>
  <speed>0.01</speed>
  <fix>3d</fix>
</trkpt>
<trkpt lat="40.0738632" lon="-105.2302292">
  <ele>1658.27</ele>
  <time>2026-08-27T18:26:46Z</time>
  <course>11.07</course>
  <speed>0.022360679774997897</speed>
  <fix>3d</fix>
</trkpt>
<trkpt lat="40.0738632" lon="-105.2302292">
  <ele>1658.76</ele>
  <time>2026-08-27T18:26:46Z</time>
  <course>11.09</course>
  <speed>0.022360679774997897</speed>
  <fix>3d</fix>
</trkpt>
<trkpt lat="40.073863" lon="-105.2302292">
  <ele>1657.99</ele>
  <time>2026-08-27T18:26:46Z</time>
  <course>318.59</course>
  <speed>0.01</speed>
  <fix>3d</fix>
</trkpt>
<trkpt lat="40.0738632" lon="-105.2302292">
  <ele>1658.85</ele>
  <time>2026-08-27T18:26:46Z</time>
  <course>11.1</course>
  <speed>0.022360679774997897</speed>
  <fix>3d</fix>
</trkpt>
<trkpt lat="40.0738632" lon="-105.2302292">
  <ele>1659.26</ele>
  <time>2026-08-27T18:26:46Z</time>
  <course>11.11</course>
  <speed>0.02</speed>
  <fix>3d</fix>
</trkpt>
<trkpt lat="40.073863" lon="-105.2302292">
  <ele>1658.49</ele>
  <time>2026-08-27T18:26:46Z</time>
  <course>327.39</course>
  <speed>0.01</speed>
  <fix>3d</fix>
</trkpt>
<trkpt lat="40.0738632" lon="-105.2302292">
  <ele>1659.28</ele>
  <time>2026-08-27T18:26:46Z</time>
  <course>11.11</course>
  <speed>0.02</speed>
  <fix>3d</fix>
</trkpt>
<trkpt lat="40.0738632" lon="-105.2302292">
  <ele>1659.77</ele>
  <time>2026-08-27T18:26:46Z</time>
  <course>11.13</course>
  <speed>0.02</speed>
  <fix>3d</fix>
</trkpt>
<trkpt lat="40.073863" lon="-105.2302292">
  <ele>1658.99</ele>
  <time>2026-08-27T18:26:46Z</time>
  <course>335.43</course>
  <speed>0.01</speed>
  <fix>3d</fix>
</trkpt>
<trkpt lat="40.0738632" lon="-105.2302292">
  <ele>1659.88</ele>
  <time>2026-08-27T18:26:46Z</time>
  <course>11.14</course>
  <speed>0.02</speed>
  <fix>3d</fix>
</trkpt>
<trkpt lat="40.0738632" lon="-105.2302292">
  <ele>1660.27</ele>
  <time>2026-08-27T18:26:46Z</time>
  <course>11.15</course>
  <speed>0.02</speed>
  <fix>3d</fix>
</trkpt>
<trkpt lat="40.073863" lon="-105.2302292">
  <ele>1659.5</ele>
  <time>2026-08-27T18:26:46Z</time>
  <course>342.47</course>
  <speed>0.01</speed>
  <fix>3d</fix>
</trkpt>
<trkpt lat="40.0738632" lon="-105.2302292">
  <ele>1660.35</ele>
  <time>2026-08-27T18:26:46Z</time>
  <course>11.14</course>
  <speed>0.02</speed>
  <fix>3d</fix>
</trkpt>
<trkpt lat="40.0738632" lon="-105.2302292">
  <ele>1660.77</ele>
  <time>2026-08-27T18:26:46Z</time>
  <course>11.14</course>
  <speed>0.02</speed>
  <fix>3d</fix>
</trkpt>
<trkpt lat="40.0738631" lon="-105.2302292">
  <ele>1660.0</ele>
  <time>2026-08-27T18:26:46Z</time>
  <course>349.36</course>
  <speed>0.01</speed>
  <fix>3d</fix>
</trkpt>
<trkpt lat="40.0738632" lon="-105.2302292">
  <ele>1660.78</ele>
  <time>2026-08-27T18:26:46Z</time>
  <course>11.14</course>
  <speed>0.02</speed>
  <fix>3d</fix>
</trkpt>
<trkpt lat="40.0738632" lon="-105.2302292">
  <ele>1661.27</ele>
  <time>2026-08-27T18:26:46Z</time>
  <course>11.18</course>
  <speed>0.02</speed>
  <fix>3d</fix>
</trkpt>
<trkpt lat="40.0738632" lon="-105.2302292">
  <ele>1660.5</ele>
  <time>2026-08-27T18:26:46Z</time>
  <course>354.98</course>
  <speed>0.01</speed>
  <fix>3d</fix>
</trkpt>
<trkpt lat="40.0738632" lon="-105.2302292">
  <ele>1661.37</ele>
  <time>2026-08-27T18:26:46Z</time>
  <course>11.18</course>
  <speed>0.02</speed>
  <fix>3d</fix>
</trkpt>
<trkpt lat="40.0738632" lon="-105.2302292">
  <ele>1661.78</ele>
  <time>2026-08-27T18:26:46Z</time>
  <course>11.19</course>
  <speed>0.02</speed>
  <fix>3d</fix>
</trkpt>
<trkpt lat="40.0738632" lon="-105.2302292">
  <ele>1661.0</ele>
  <time>2026-08-27T18:26:46Z</time>
  <course>357.55</course>
  <speed>0.01</speed>
  <fix>3d</fix>
</trkpt>
<trkpt lat="40.0738632" lon="-105.2302292">
  <ele>1661.86</ele>
  <time>2026-08-27T18:26:46Z</time>
  <course>11.18</course>
  <speed>0.02</speed>
  <fix>3d</fix>
</trkpt>
<trkpt lat="40.0738632" lon="-105.2302292">
  <ele>1662.28</ele>
  <time>2026-08-27T18:26:46Z</time>
  <course>11.2</course>
  <speed>0.02</speed>
  <fix>3d</fix>
</trkpt>
<trkpt lat="40.0738632" lon="-105.2302292">
  <ele>1661.5</ele>
  <time>2026-08-27T18:26:46Z</time>
  <course>0.62</course>
  <speed>0.01</speed>
  <fix>3d</fix>
</trkpt>
<trkpt lat="40.0738632" lon="-105.2302292">
  <ele>1662.29</ele>
  <time>2026-08-27T18:26:46Z</time>
  <course>11.21</course>
  <speed>0.02</speed>
  <fix>3d</fix>
</trkpt>
<trkpt lat="40.0738633" lon="-105.2302292">
  <ele>1662.78</ele>
  <time>2026-08-27T18:26:46Z</time>
  <course>11.22</course>
  <speed>0.02</speed>
  <fix>3d</fix>
</trkpt>
<trkpt lat="40.0738632" lon="-105.2302292">
  <ele>1662.01</ele>
  <time>2026-08-27T18:26:46Z</time>
  <course>4.81</course>
  <speed>0.01</speed>
  <fix>3d</fix>
</trkpt>
<trkpt lat="40.0738633" lon="-105.2302292">
  <ele>1662.87</ele>
  <time>2026-08-27T18:26:46Z</time>
  <course>11.22</course>
  <speed>0.02</speed>
  <fix>3d</fix>
</trkpt>
<trkpt lat="40.0738633" lon="-105.2302292">
  <ele>1663.27</ele>
  <time>2026-08-27T18:26:46Z</time>
  <course>11.23</course>
  <speed>0.02</speed>
  <fix>3d</fix>
</trkpt>
<trkpt lat="40.0738632" lon="-105.2302292">
  <ele>1662.51</ele>
  <time>2026-08-27T18:26:46Z</time>
  <course>8.95</course>
  <speed>0.01</speed>
  <fix>3d</fix>
</trkpt>
<trkpt lat="40.0738633" lon="-105.2302292">
  <ele>1663.29</ele>
  <time>2026-08-27T18:26:46Z</time>
  <course>11.23</course>
  <speed>0.02</speed>
  <fix>3d</fix>
</trkpt>
<trkpt lat="40.0738633" lon="-105.2302292">
  <ele>1663.78</ele>
  <time>2026-08-27T18:26:46Z</time>
  <course>11.23</course>
  <speed>0.01</speed>
  <fix>3d</fix>
</trkpt>
<trkpt lat="40.0738633" lon="-105.2302292">
  <ele>1663.0</ele>
  <time>2026-08-27T18:26:46Z</time>
  <course>13.47</course>
  <speed>0.0</speed>
  <fix>3d</fix>
</trkpt>
<trkpt lat="40.0738633" lon="-105.2302292">
  <ele>1663.86</ele>
  <time>2026-08-27T18:26:46Z</time>
  <course>11.24</course>
  <speed>0.01</speed>
  <fix>3d</fix>
</trkpt>
<trkpt lat="40.0738633" lon="-105.2302292">
  <ele>1664.28</ele>
  <time>2026-08-27T18:26:46Z</time>
  <course>11.24</course>
  <speed>0.01</speed>
  <fix>3d</fix>
</trkpt>
<trkpt lat="40.0738633" lon="-105.2302292">
  <ele>1663.5</ele>
  <time>2026-08-27T18:26:46Z</time>
  <course>18.27</course>
  <speed>0.0</speed>
  <fix>3d</fix>
</trkpt>
<trkpt lat="40.0738633" lon="-105.2302292">
  <ele>1664.38</ele>
  <time>2026-08-27T18:26:46Z</time>
  <course>11.25</course>
  <speed>0.01</speed>
  <fix>3d</fix>
</trkpt>
<trkpt lat="40.0738633" lon="-105.2302292">
  <ele>1664.78</ele>
  <time>2026-08-27T18:26:46Z</time>
  <course>11.25</course>
  <speed>0.01</speed>
  <fix>3d</fix>
</trkpt>
<trkpt lat="40.0738633" lon="-105.2302292">
  <ele>1664.0</ele>
  <time>2026-08-27T18:26:46Z</time>
  <course>25.62</course>
  <speed>0.0</speed>
  <fix>3d</fix>
</trkpt>
<trkpt lat="40.0738633" lon="-105.2302292">
  <ele>1664.86</ele>
  <time>2026-08-27T18:26:46Z</time>
  <course>11.25</course>
  <speed>0.01</speed>
  <fix>3d</fix>
</trkpt>
<trkpt lat="40.0738633" lon="-105.2302292">
  <ele>1665.29</ele>
  <time>2026-08-27T18:26:46Z</time>
  <course>11.27</course>
  <speed>0.01</speed>
  <fix>3d</fix>
</trkpt>
<trkpt lat="40.0738633" lon="-105.2302292">
  <ele>1664.5</ele>
  <time>2026-08-27T18:26:46Z</time>
  <course>42.98</course>
  <speed>0.0</speed>
  <fix>3d</fix>
</trkpt>
<trkpt lat="40.0738633" lon="-105.2302292">
  <ele>1665.35</ele>
  <time>2026-08-27T18:26:46Z</time>
  <course>11.27</course>
  <speed>0.01</speed>
  <fix>3d</fix>
</trkpt>
<trkpt lat="40.0738633" lon="-105.2302292">
  <ele>1665.79</ele>
  <time>2026-08-27T18:26:46Z</time>
  <course>11.28</course>
  <speed>0.01</speed>
  <fix>3d</fix>
</trkpt>
<trkpt lat="40.0738633" lon="-105.2302292">
  <ele>1665.0</ele>
  <time>2026-08-27T18:26:46Z</time>
  <course>97.34</course>
  <speed>0.0</speed>
  <fix>3d</fix>
</trkpt>
<trkpt lat="40.0738633" lon="-105.2302292">
  <ele>1665.81</ele>
  <time>2026-08-27T18:26:46Z</time>
  <course>11.29</course>
  <speed>0.01</speed>
  <fix>3d</fix>
</trkpt>
<trkpt lat="40.0738633" lon="-105.2302292">
  <ele>1666.29</ele>
  <time>2026-08-27T18:26:46Z</time>
  <course>11.3</course>
  <speed>0.0</speed>
  <fix>3d</fix>
</trkpt>
<trkpt lat="40.0738633" lon="-105.2302292">
  <ele>1665.5</ele>
  <time>2026-08-27T18:26:46Z</time>
  <course>135.72</course>
  <speed>0.0</speed>
  <fix>3d</fix>
</trkpt>
<trkpt lat="40.0738633" lon="-105.2302292">
  <ele>1666.38</ele>
  <time>2026-08-27T18:26:46Z</time>
  <course>11.3</course>
  <speed>0.0</speed>
  <fix>3d</fix>
</trkpt>
<trkpt lat="40.0738633" lon="-105.2302292">
  <ele>1666.79</ele>
  <time>2026-08-27T18:26:46Z</time>
  <course>11.3</course>
  <speed>0.0</speed>
  <fix>3d</fix>
</trkpt>
<trkpt lat="40.0738633" lon="-105.2302292">
  <ele>1666.0</ele>
  <time>2026-08-27T18:26:46Z</time>
  <course>144.37</course>
  <speed>0.0</speed>
  <fix>3d</fix>
</trkpt>
<trkpt lat="40.0738633" lon="-105.2302292">
  <ele>1666.89</ele>
  <time>2026-08-27T18:26:46Z</time>
  <course>11.31</course>
  <speed>0.0</speed>
  <fix>3d</fix>
</trkpt>
<trkpt lat="40.0738633" lon="-105.2302292">
  <ele>1667.28</ele>
  <time>2026-08-27T18:26:46Z</time>
  <course>11.33</course>
  <speed>0.0</speed>
  <fix>3d</fix>
</trkpt>
<trkpt lat="40.0738633" lon="-105.2302292">
  <ele>1666.49</ele>
  <time>2026-08-27T18:26:46Z</time>
  <course>148.77</course>
  <speed>0.0</speed>
  <fix>3d</fix>
</trkpt>
<trkpt lat="40.0738633" lon="-105.2302292">
  <ele>1667.39</ele>
  <time>2026-08-27T18:26:46Z</time>
  <course>11.31</course>
  <speed>0.0</speed>
  <fix>3d</fix>
</trkpt>
<trkpt lat="40.0738633" lon="-105.2302292">
  <ele>1667.78</ele>
  <time>2026-08-27T18:26:46Z</time>
  <course>11.31</course>
  <speed>0.0</speed>
  <fix>3d</fix>
</trkpt>
<trkpt lat="40.0738633" lon="-105.2302292">
  <ele>1666.99</ele>
  <time>2026-08-27T18:26:46Z</time>
  <course>152.86</course>
  <speed>0.0</speed>
  <fix>3d</fix>
</trkpt>
<trkpt lat="40.0738633" lon="-105.2302292">
  <ele>1667.88</ele>
  <time>2026-08-27T18:26:46Z</time>
  <course>11.31</course>
  <speed>0.0</speed>
  <fix>3d</fix>
</trkpt>
<trkpt lat="40.0738633" lon="-105.2302292">
  <ele>1668.28</ele>
  <time>2026-08-27T18:26:46Z</time>
  <course>11.31</course>
  <speed>0.0</speed>
  <fix>3d</fix>
</trkpt>
<trkpt lat="40.0738633" lon="-105.2302292">
  <ele>1667.49</ele>
  <time>2026-08-27T18:26:46Z</time>
  <course>155.61</course>
  <speed>0.01</speed>
  <fix>3d</fix>
</trkpt>
<trkpt lat="40.0738633" lon="-105.2302292">
  <ele>1668.28</ele>
  <time>2026-08-27T18:26:46Z</time>
  <course>11.31</course>
  <speed>0.0</speed>
  <fix>3d</fix>
</trkpt>
<trkpt lat="40.0738633" lon="-105.2302292">
  <ele>1668.78</ele>
  <time>2026-08-27T18:26:46Z</time>
  <course>11.32</course>
  <speed>0.0</speed>
  <fix>3d</fix>
</trkpt>
<trkpt lat="40.0738633" lon="-105.2302292">
  <ele>1667.98</ele>
  <time>2026-08-27T18:26:46Z</time>
  <course>158.98</course>
  <speed>0.01</speed>
  <fix>3d</fix>
</trkpt>
<trkpt lat="40.0738633" lon="-105.2302292">
  <ele>1668.84</ele>
  <time>2026-08-27T18:26:46Z</time>
  <course>11.32</course>
  <speed>0.0</speed>
  <fix>3d</fix>
</trkpt>
<trkpt lat="40.0738633" lon="-105.2302292">
  <ele>1669.28</ele>
  <time>2026-08-27T18:26:46Z</time>
  <course>11.33</course>
  <speed>0.0</speed>
  <fix>3d</fix>
</trkpt>
<trkpt lat="40.0738633" lon="-105.2302292">
  <ele>1668.48</ele>
  <time>2026-08-27T18:26:46Z</time>
  <course>162.29</course>
  <speed>0.01</speed>
  <fix>3d</fix>
</trkpt>
<trkpt lat="40.0738633" lon="-105.2302292">
  <ele>1669.34</ele>
  <time>2026-08-27T18:26:46Z</time>
  <course>11.34</course>
  <speed>0.0</speed>
  <fix>3d</fix>
</trkpt>
<trkpt lat="40.0738633" lon="-105.2302292">
  <ele>1669.77</ele>
  <time>2026-08-27T18:26:46Z</time>
  <course>11.33</course>
  <speed>0.0</speed>
  <fix>3d</fix>
</trkpt>
<trkpt lat="40.0738633" lon="-105.2302292">
  <ele>1668.98</ele>
  <time>2026-08-27T18:26:46Z</time>
  <course>164.3</course>
  <speed>0.01</speed>
  <fix>3d</fix>
</trkpt>
<trkpt lat="40.0738633" lon="-105.2302292">
  <ele>1669.83</ele>
  <time>2026-08-27T18:26:46Z</time>
  <course>11.33</course>
  <speed>0.0</speed>
  <fix>3d</fix>
</trkpt>
<trkpt lat="40.0738633" lon="-105.2302292">
  <ele>1670.27</ele>
  <time>2026-08-27T18:26:46Z</time>
  <course>11.33</course>
  <speed>0.0</speed>
  <fix>3d</fix>
</trkpt>
<trkpt lat="40.0738633" lon="-105.2302292">
  <ele>1669.48</ele>
  <time>2026-08-27T18:26:46Z</time>
  <course>163.6</course>
  <speed>0.01</speed>
  <fix>3d</fix>
</trkpt>
<trkpt lat="40.0738633" lon="-105.2302292">
  <ele>1670.33</ele>
  <time>2026-08-27T18:26:46Z</time>
  <course>11.33</course>
  <speed>0.0</speed>
  <fix>3d</fix>
</trkpt>
<trkpt lat="40.0738633" lon="-105.2302292">
  <ele>1670.77</ele>
  <time>2026-08-27T18:26:46Z</time>
  <course>11.34</course>
  <speed>0.0</speed>
  <fix>3d</fix>
</trkpt>
<trkpt lat="40.0738632" lon="-105.2302292">
  <ele>1669.98</ele>
  <time>2026-08-27T18:26:46Z</time>
  <course>161.61</course>
  <speed>0.01</speed>
  <fix>3d</fix>
</trkpt>
<trkpt lat="40.0738633" lon="-105.2302292">
  <ele>1670.82</ele>
  <time>2026-08-27T18:26:46Z</time>
  <course>11.34</course>
  <speed>0.0</speed>
  <fix>3d</fix>
</trkpt>
<trkpt lat="40.0738633" lon="-105.2302292">
  <ele>1671.27</ele>
  <time>2026-08-27T18:26:46Z</time>
  <course>11.35</course>
  <speed>0.0</speed>
  <fix>3d</fix>
</trkpt>
<trkpt lat="40.0738632" lon="-105.2302292">
  <ele>1670.48</ele>
  <time>2026-08-27T18:26:46Z</time>
  <course>159.81</course>
  <speed>0.01</speed>
  <fix>3d</fix>
</trkpt>
<trkpt lat="40.0738633" lon="-105.2302292">
  <ele>1671.27</ele>
  <time>2026-08-27T18:26:46Z</time>
  <course>11.35</course>
  <speed>0.0</speed>
  <fix>3d</fix>
</trkpt>
<trkpt lat="40.0738633" lon="-105.2302292">
  <ele>1671.77</ele>
  <time>2026-08-27T18:26:46Z</time>
  <course>11.32</course>
  <speed>0.0</speed>
  <fix>3d</fix>
</trkpt>
<trkpt lat="40.0738632" lon="-105.2302292">
  <ele>1670.98</ele>
  <time>2026-08-27T18:26:46Z</time>
  <course>160.03</course>
  <speed>0.01</speed>
  <fix>3d</fix>
</trkpt>
<trkpt lat="40.0738633" lon="-105.2302292">
  <ele>1671.82</ele>
  <time>2026-08-27T18:26:46Z</time>
  <course>11.32</course>
  <speed>0.0</speed>
  <fix>3d</fix>
</trkpt>
<trkpt lat="40.0738633" lon="-105.2302292">
  <ele>1672.26</ele>
  <time>2026-08-27T18:26:46Z</time>
  <course>11.36</course>
  <speed>0.0</speed>
  <fix>3d</fix>
</trkpt>
<trkpt lat="40.0738632" lon="-105.2302292">
  <ele>1671.48</ele>
  <time>2026-08-27T18:26:46Z</time>
  <course>163.45</course>
  <speed>0.01</speed>
  <fix>3d</fix>
</trkpt>
<trkpt lat="40.0738633" lon="-105.2302292">
  <ele>1672.32</ele>
  <time>2026-08-27T18:26:46Z</time>
  <course>11.35</course>
  <speed>0.0</speed>
  <fix>3d</fix>
</trkpt>
<trkpt lat="40.0738633" lon="-105.2302292">
  <ele>1672.76</ele>
  <time>2026-08-27T18:26:46Z</time>
  <course>11.33</course>
  <speed>0.01</speed>
  <fix>3d</fix>
</trkpt>
<trkpt lat="40.0738632" lon="-105.2302292">
  <ele>1671.98</ele>
  <time>2026-08-27T18:26:46Z</time>
  <course>165.2</course>
  <speed>0.0</speed>
  <fix>3d</fix>
</trkpt>
<trkpt lat="40.0738633" lon="-105.2302292">
  <ele>1672.81</ele>
  <time>2026-08-27T18:26:46Z</time>
  <course>11.33</course>
  <speed>0.01</speed>
  <fix>3d</fix>
</trkpt>
<trkpt lat="40.0738633" lon="-105.2302292">
  <ele>1673.26</ele>
  <time>2026-08-27T18:26:46Z</time>
  <course>11.35</course>
  <speed>0.01</speed>
  <fix>3d</fix>
</trkpt>
<trkpt lat="40.0738632" lon="-105.2302292">
  <ele>1672.48</ele>
  <time>2026-08-27T18:26:46Z</time>
  <course>165.03</course>
  <speed>0.0</speed>
  <fix>3d</fix>
</trkpt>
<trkpt lat="40.0738633" lon="-105.2302292">
  <ele>1673.27</ele>
  <time>2026-08-27T18:26:46Z</time>
  <course>11.35</course>
  <speed>0.01</speed>
  <fix>3d</fix>
</trkpt>
<trkpt lat="40.0738633" lon="-105.2302292">
  <ele>1673.76</ele>
  <time>2026-08-27T18:26:46Z</time>
  <course>11.35</course>
  <speed>0.01</speed>
  <fix>3d</fix>
</trkpt>
<trkpt lat="40.0738631" lon="-105.2302292">
  <ele>1672.98</ele>
  <time>2026-08-27T18:26:46Z</time>
  <course>166.06</course>
  <speed>0.0</speed>
  <fix>3d</fix>
</trkpt>
<trkpt lat="40.0738633" lon="-105.2302292">
  <ele>1673.82</ele>
  <time>2026-08-27T18:26:46Z</time>
  <course>11.35</course>
  <speed>0.01</speed>
  <fix>3d</fix>
</trkpt>
<trkpt lat="40.0738633" lon="-105.2302292">
  <ele>1674.26</ele>
  <time>2026-08-27T18:26:46Z</time>
  <course>11.36</course>
  <speed>0.01</speed>
  <fix>3d</fix>
</trkpt>
<trkpt lat="40.073863" lon="-105.2302292">
  <ele>1673.48</ele>
  <time>2026-08-27T18:26:46Z</time>
  <course>166.52</course>
  <speed>0.0</speed>
  <fix>3d</fix>
</trkpt>
<trkpt lat="40.0738633" lon="-105.2302292">
  <ele>1674.27</ele>
  <time>2026-08-27T18:26:46Z</time>
  <course>11.37</course>
  <speed>0.01</speed>
  <fix>3d</fix>
</trkpt>
<trkpt lat="40.0738633" lon="-105.2302292">
  <ele>1674.76</ele>
  <time>2026-08-27T18:26:46Z</time>
  <course>11.4</course>
  <speed>0.01</speed>
  <fix>3d</fix>
</trkpt>
<trkpt lat="40.073863" lon="-105.2302292">
  <ele>1673.98</ele>
  <time>2026-08-27T18:26:46Z</time>
  <course>164.81</course>
  <speed>0.0</speed>
  <fix>3d</fix>
</trkpt>
<trkpt lat="40.0738633" lon="-105.2302292">
  <ele>1674.84</ele>
  <time>2026-08-27T18:26:46Z</time>
  <course>11.4</course>
  <speed>0.01</speed>
  <fix>3d</fix>
</trkpt>
<trkpt lat="40.0738632" lon="-105.2302292">
  <ele>1675.26</ele>
  <time>2026-08-27T18:26:46Z</time>
  <course>11.38</course>
  <speed>0.01</speed>
  <fix>3d</fix>
</trkpt>
<trkpt lat="40.073863" lon="-105.2302292">
  <ele>1674.48</ele>
  <time>2026-08-27T18:26:46Z</time>
  <course>158.09</course>
  <speed>0.0</speed>
  <fix>3d</fix>
</trkpt>
<trkpt lat="40.0738632" lon="-105.2302292">
  <ele>1675.34</ele>
  <time>2026-08-27T18:26:46Z</time>
  <course>11.38</course>
  <speed>0.01</speed>
  <fix>3d</fix>
</trkpt>
<trkpt lat="40.0738632" lon="-105.2302292">
  <ele>1675.76</ele>
  <time>2026-08-27T18:26:46Z</time>
  <course>11.39</course>
  <speed>0.01</speed>
  <fix>3d</fix>
</trkpt>
<trkpt lat="40.073863" lon="-105.2302292">
  <ele>1674.99</ele>
  <time>2026-08-27T18:26:46Z</time>
  <course>146.67</course>
  <speed>0.0</speed>
  <fix>3d</fix>
</trkpt>
<trkpt lat="40.0738632" lon="-105.2302292">
  <ele>1675.83</ele>
  <time>2026-08-27T18:26:46Z</time>
  <course>11.4</course>
  <speed>0.01</speed>
  <fix>3d</fix>
</trkpt>
<trkpt lat="40.0738632" lon="-105.2302292">
  <ele>1676.27</ele>
  <time>2026-08-27T18:26:46Z</time>
  <course>11.4</course>
  <speed>0.01</speed>
  <fix>3d</fix>
</trkpt>
<trkpt lat="40.073863" lon="-105.2302292">
  <ele>1675.49</ele>
  <time>2026-08-27T18:26:46Z</time>
  <course>121.48</course>
  <speed>0.0</speed>
  <fix>3d</fix>
</trkpt>
<trkpt lat="40.0738632" lon="-105.2302292">
  <ele>1676.27</ele>
  <time>2026-08-27T18:26:46Z</time>
  <course>11.4</course>
  <speed>0.01</speed>
  <fix>3d</fix>
</trkpt>
<trkpt lat="40.0738632" lon="-105.2302292">
  <ele>1676.77</ele>
  <time>2026-08-27T18:26:46Z</time>
  <course>11.42</course>
  <speed>0.01</speed>
  <fix>3d</fix>
</trkpt>
<trkpt lat="40.073863" lon="-105.2302292">
  <ele>1675.99</ele>
  <time>2026-08-27T18:26:46Z</time>
  <course>70.25</course>
  <speed>0.0</speed>
  <fix>3d</fix>
</trkpt>
<trkpt lat="40.0738632" lon="-105.2302292">
  <ele>1676.84</ele>
  <time>2026-08-27T18:26:46Z</time>
  <course>11.42</course>
  <speed>0.01</speed>
  <fix>3d</fix>
</trkpt>
<trkpt lat="40.0738632" lon="-105.2302292">
  <ele>1677.27</ele>
  <time>2026-08-27T18:26:46Z</time>
  <course>11.42</course>
  <speed>0.02</speed>
  <fix>3d</fix>
</trkpt>
<trkpt lat="40.073863" lon="-105.2302292">
  <ele>1676.49</ele>
  <time>2026-08-27T18:26:46Z</time>
  <course>39.97</course>
  <speed>0.0</speed>
  <fix>3d</fix>
</trkpt>
<trkpt lat="40.0738632" lon="-105.2302292">
  <ele>1677.27</ele>
  <time>2026-08-27T18:26:46Z</time>
  <course>11.42</course>
  <speed>0.02</speed>
  <fix>3d</fix>
</trkpt>
<trkpt lat="40.0738632" lon="-105.2302292">
  <ele>1677.76</ele>
  <time>2026-08-27T18:26:46Z</time>
  <course>11.42</course>
  <speed>0.02</speed>
  <fix>3d</fix>
</trkpt>
<trkpt lat="40.073863" lon="-105.2302292">
  <ele>1677.0</ele>
  <time>2026-08-27T18:26:46Z</time>
  <course>24.44</course>
  <speed>0.0</speed>
  <fix>3d</fix>
</trkpt>
<trkpt lat="40.0738632" lon="-105.2302292">
  <ele>1677.84</ele>
  <time>2026-08-27T18:26:46Z</time>
  <course>11.42</course>
  <speed>0.02</speed>
  <fix>3d</fix>
</trkpt>
<trkpt lat="40.0738632" lon="-105.2302292">
  <ele>1678.26</ele>
  <time>2026-08-27T18:26:46Z</time>
  <course>11.43</course>
  <speed>0.02</speed>
  <fix>3d</fix>
</trkpt>
<trkpt lat="40.073863" lon="-105.2302292">
  <ele>1677.5</ele>
  <time>2026-08-27T18:26:46Z</time>
  <course>19.76</course>
  <speed>0.0</speed>
  <fix>3d</fix>
</trkpt>
<trkpt lat="40.0738632" lon="-105.2302292">
  <ele>1678.33</ele>
  <time>2026-08-27T18:26:46Z</time>
  <course>11.42</course>
  <speed>0.02</speed>
  <fix>3d</fix>
</trkpt>
<trkpt lat="40.0738632" lon="-105.2302292">
  <ele>1678.76</ele>
  <time>2026-08-27T18:26:47Z</time>
  <course>11.43</course>
  <speed>0.02</speed>
  <fix>3d</fix>
</trkpt>
<trkpt lat="40.073863" lon="-105.2302292">
  <ele>1678.0</ele>
  <time>2026-08-27T18:26:47Z</time>
  <course>20.46</course>
  <speed>0.0</speed>
  <fix>3d</fix>
</trkpt>
<trkpt lat="40.0738632" lon="-105.2302292">
  <ele>1678.77</ele>
  <time>2026-08-27T18:26:47Z</time>
  <course>11.43</course>
  <speed>0.02</speed>
  <fix>3d</fix>
</trkpt>
<trkpt lat="40.0738632" lon="-105.2302292">
  <ele>1679.26</ele>
  <time>2026-08-27T18:26:47Z</time>
  <course>11.4</course>
  <speed>0.02</speed>
  <fix>3d</fix>
</trkpt>
<trkpt lat="40.073863" lon="-105.2302292">
  <ele>1678.5</ele>
  <time>2026-08-27T18:26:47Z</time>
  <course>19.83</course>
  <speed>0.0</speed>
  <fix>3d</fix>
</trkpt>
<trkpt lat="40.0738632" lon="-105.2302292">
  <ele>1679.33</ele>
  <time>2026-08-27T18:26:47Z</time>
  <course>11.4</course>
  <speed>0.02</speed>
  <fix>3d</fix>
</trkpt>
<trkpt lat="40.0738632" lon="-105.2302292">
  <ele>1679.76</ele>
  <time>2026-08-27T18:26:47Z</time>
  <course>11.43</course>
  <speed>0.02</speed>
  <fix>3d</fix>
</trkpt>
<trkpt lat="40.073863" lon="-105.2302292">
  <ele>1679.0</ele>
  <time>2026-08-27T18:26:47Z</time>
  <course>16.55</course>
  <speed>0.0</speed>
  <fix>3d</fix>
</trkpt>
<trkpt lat="40.0738632" lon="-105.2302292">
  <ele>1679.83</ele>
  <time>2026-08-27T18:26:47Z</time>
  <course>11.43</course>
  <speed>0.02</speed>
  <fix>3d</fix>
</trkpt>
<trkpt lat="40.0738632" lon="-105.2302292">
  <ele>1680.26</ele>
  <time>2026-08-27T18:26:47Z</time>
  <course>11.44</course>
  <speed>0.02</speed>
  <fix>3d</fix>
</trkpt>
<trkpt lat="40.073863" lon="-105.2302292">
  <ele>1679.5</ele>
  <time>2026-08-27T18:26:47Z</time>
  <course>14.6</course>
  <speed>0.0</speed>
  <fix>3d</fix>
</trkpt>
<trkpt lat="40.0738632" lon="-105.2302292">
  <ele>1680.33</ele>
  <time>2026-08-27T18:26:47Z</time>
  <course>11.43</course>
  <speed>0.02</speed>
  <fix>3d</fix>
</trkpt>
<trkpt lat="40.0738632" lon="-105.2302292">
  <ele>1680.75</ele>
  <time>2026-08-27T18:26:47Z</time>
  <course>11.42</course>
  <speed>0.02</speed>
  <fix>3d</fix>
</trkpt>
<trkpt lat="40.073863" lon="-105.2302292">
  <ele>1680.01</ele>
  <time>2026-08-27T18:26:47Z</time>
  <course>15.57</course>
  <speed>0.01</speed>
  <fix>3d</fix>
</trkpt>
<trkpt lat="40.0738632" lon="-105.2302292">
  <ele>1680.76</ele>
  <time>2026-08-27T18:26:47Z</time>
  <course>11.42</course>
  <speed>0.02</speed>
  <fix>3d</fix>
</trkpt>
<trkpt lat="40.0738632" lon="-105.2302292">
  <ele>1681.26</ele>
  <time>2026-08-27T18:26:47Z</time>
  <course>11.42</course>
  <speed>0.02</speed>
  <fix>3d</fix>
</trkpt>
<trkpt lat="40.073863" lon="-105.2302292">
  <ele>1680.51</ele>
  <time>2026-08-27T18:26:47Z</time>
  <course>16.39</course>
  <speed>0.01</speed>
  <fix>3d</fix>
</trkpt>
<trkpt lat="40.0738632" lon="-105.2302292">
  <ele>1681.34</ele>
  <time>2026-08-27T18:26:47Z</time>
  <course>11.42</course>
  <speed>0.02</speed>
  <fix>3d</fix>
</trkpt>
<trkpt lat="40.0738632" lon="-105.2302292">
  <ele>1681.76</ele>
  <time>2026-08-27T18:26:47Z</time>
  <course>11.44</course>
  <speed>0.02</speed>
  <fix>3d</fix>
</trkpt>
<trkpt lat="40.073863" lon="-105.2302292">
  <ele>1681.01</ele>
  <time>2026-08-27T18:26:47Z</time>
  <course>15.49</course>
  <speed>0.01</speed>
  <fix>3d</fix>
</trkpt>
<trkpt lat="40.0738632" lon="-105.2302292">
  <ele>1681.84</ele>
  <time>2026-08-27T18:26:47Z</time>
  <course>11.44</course>
  <speed>0.02</speed>
  <fix>3d</fix>
</trkpt>
<trkpt lat="40.0738632" lon="-105.2302292">
  <ele>1682.26</ele>
  <time>2026-08-27T18:26:47Z</time>
  <course>11.45</course>
  <speed>0.02</speed>
  <fix>3d</fix>
</trkpt>
<trkpt lat="40.0738631" lon="-105.2302292">
  <ele>1681.52</ele>
  <time>2026-08-27T18:26:47Z</time>
  <course>14.46</course>
  <speed>0.01</speed>
  <fix>3d</fix>
</trkpt>
<trkpt lat="40.0738632" lon="-105.2302292">
  <ele>1682.34</ele>
  <time>2026-08-27T18:26:47Z</time>
  <course>11.45</course>
  <speed>0.02</speed>
  <fix>3d</fix>
</trkpt>
<trkpt lat="40.0738632" lon="-105.2302292">
  <ele>1682.76</ele>
  <time>2026-08-27T18:26:47Z</time>
  <course>11.45</course>
  <speed>0.02</speed>
  <fix>3d</fix>
</trkpt>
<trkpt lat="40.0738632" lon="-105.2302292">
  <ele>1682.02</ele>
  <time>2026-08-27T18:26:47Z</time>
  <course>15.38</course>
  <speed>0.01</speed>
  <fix>3d</fix>
</trkpt>
<trkpt lat="40.0738632" lon="-105.2302292">
  <ele>1682.83</ele>
  <time>2026-08-27T18:26:47Z</time>
  <course>11.46</course>
  <speed>0.02</speed>
  <fix>3d</fix>
</trkpt>
<trkpt lat="40.0738632" lon="-105.2302292">
  <ele>1683.27</ele>
  <time>2026-08-27T18:26:47Z</time>
  <course>11.49</course>
  <speed>0.02</speed>
  <fix>3d</fix>
</trkpt>
<trkpt lat="40.0738632" lon="-105.2302291">
  <ele>1682.52</ele>
  <time>2026-08-27T18:26:47Z</time>
  <course>17.22</course>
  <speed>0.01</speed>
  <fix>3d</fix>
</trkpt>
<trkpt lat="40.0738632" lon="-105.2302292">
  <ele>1683.28</ele>
  <time>2026-08-27T18:26:47Z</time>
  <course>11.49</course>
  <speed>0.02</speed>
  <fix>3d</fix>
</trkpt>
<trkpt lat="40.0738632" lon="-105.2302292">
  <ele>1683.77</ele>
  <time>2026-08-27T18:26:47Z</time>
  <course>11.5</course>
  <speed>0.02</speed>
  <fix>3d</fix>
</trkpt>
<trkpt lat="40.0738632" lon="-105.230229">
  <ele>1683.03</ele>
  <time>2026-08-27T18:26:47Z</time>
  <course>19.55</course>
  <speed>0.0</speed>
  <fix>3d</fix>
</trkpt>
<trkpt lat="40.0738632" lon="-105.2302292">
  <ele>1683.84</ele>
  <time>2026-08-27T18:26:47Z</time>
  <course>11.5</course>
  <speed>0.02</speed>
  <fix>3d</fix>
</trkpt>
<trkpt lat="40.0738633" lon="-105.2302292">
  <ele>1684.27</ele>
  <time>2026-08-27T18:26:47Z</time>
  <course>11.5</course>
  <speed>0.02</speed>
  <fix>3d</fix>
</trkpt>
<trkpt lat="40.0738632" lon="-105.230229">
  <ele>1683.53</ele>
  <time>2026-08-27T18:26:47Z</time>
  <course>23.47</course>
  <speed>0.0</speed>
  <fix>3d</fix>
</trkpt>
<trkpt lat="40.0738633" lon="-105.2302292">
  <ele>1684.78</ele>
  <time>2026-08-27T18:26:47Z</time>
  <course>11.27</course>
  <speed>0.01</speed>
  <fix>3d</fix>
</trkpt>
<trkpt lat="40.0738632" lon="-105.230229">
  <ele>1684.03</ele>
  <time>2026-08-27T18:26:47Z</time>
  <course>24.83</course>
  <speed>0.0</speed>
  <fix>3d</fix>
</trkpt>
<trkpt lat="40.0738633" lon="-105.2302292">
  <ele>1685.35</ele>
  <time>2026-08-27T18:26:47Z</time>
  <course>9.79</course>
  <speed>0.044721359549995794</speed>
  <fix>3d</fix>
</trkpt>
<trkpt lat="40.0738632" lon="-105.230229">
  <ele>1684.54</ele>
  <time>2026-08-27T18:26:47Z</time>
  <course>56.63</course>
  <speed>0.0</speed>
  <fix>3d</fix>
</trkpt>
<trkpt lat="40.0738633" lon="-105.2302293">
  <ele>1685.59</ele>
  <time>2026-08-27T18:26:47Z</time>
  <course>17.36</course>
  <speed>0.13152946437965907</speed>
  <fix>3d</fix>
</trkpt>
<trkpt lat="40.0738632" lon="-105.230229">
  <ele>1685.06</ele>
  <time>2026-08-27T18:26:47Z</time>
  <course>280.51</course>
  <speed>0.04</speed>
  <fix>3d</fix>
</trkpt>
<trkpt lat="40.0738633" lon="-105.2302297">
  <ele>1685.34</ele>
  <time>2026-08-27T18:26:47Z</time>
  <course>18.35</course>
  <speed>0.2039607805437114</speed>
  <fix>3d</fix>
</trkpt>
<trkpt lat="40.0738633" lon="-105.2302292">
  <ele>1685.37</ele>
  <time>2026-08-27T18:26:47Z</time>
  <course>278.59</course>
  <speed>0.12</speed>
  <fix>3d</fix>
</trkpt>
<trkpt lat="40.0738634" lon="-105.2302302">
  <ele>1684.74</ele>
  <time>2026-08-27T18:26:47Z</time>
  <course>18.36</course>
  <speed>0.23345235059857505</speed>
  <fix>3d</fix>
</trkpt>
<trkpt lat="40.0738633" lon="-105.2302295">
  <ele>1685.21</ele>
  <time>2026-08-27T18:26:47Z</time>
  <course>280.16</course>
  <speed>0.17</speed>
  <fix>3d</fix>
</trkpt>
<trkpt lat="40.0738635" lon="-105.2302308">
  <ele>1683.92</ele>
  <time>2026-08-27T18:26:47Z</time>
  <course>16.91</course>
  <speed>0.2863564212655271</speed>
  <fix>3d</fix>
</trkpt>
<trkpt lat="40.0738633" lon="-105.23023">
  <ele>1684.67</ele>
  <time>2026-08-27T18:26:47Z</time>
  <course>281.62</course>
  <speed>0.22</speed>
  <fix>3d</fix>
</trkpt>
<trkpt lat="40.0738636" lon="-105.2302314">
  <ele>1682.94</ele>
  <time>2026-08-27T18:26:47Z</time>
  <course>17.13</course>
  <speed>0.29614185789921693</speed>
  <fix>3d</fix>
</trkpt>
<trkpt lat="40.0738634" lon="-105.2302306">
  <ele>1683.89</ele>
  <time>2026-08-27T18:26:47Z</time>
  <course>282.45</course>
  <speed>0.26</speed>
  <fix>3d</fix>
</trkpt>
<trkpt lat="40.0738637" lon="-105.2302321">
  <ele>1681.86</ele>
  <time>2026-08-27T18:26:47Z</time>
  <course>17.86</course>
  <speed>0.29614185789921693</speed>
  <fix>3d</fix>
</trkpt>
<trkpt lat="40.0738635" lon="-105.2302312">
  <ele>1682.94</ele>
  <time>2026-08-27T18:26:47Z</time>
  <course>282.84</course>
  <speed>0.29</speed>
  <fix>3d</fix>
</trkpt>
<trkpt lat="40.0738638" lon="-105.2302327">
  <ele>1680.72</ele>
  <time>2026-08-27T18:26:47Z</time>
  <course>18.77</course>
  <speed>0.2668332812825267</speed>
  <fix>3d</fix>
</trkpt>
<trkpt lat="40.0738636" lon="-105.2302318">
  <ele>1681.88</ele>
  <time>2026-08-27T18:26:47Z</time>
  <course>283.18</course>
  <speed>0.29</speed>
  <fix>3d</fix>
</trkpt>
<trkpt lat="40.0738639" lon="-105.2302332">
  <ele>1679.52</ele>
  <time>2026-08-27T18:26:47Z</time>
  <course>19.1</course>
  <speed>0.23769728648009425</speed>
  <fix>3d</fix>
</trkpt>
<trkpt lat="40.0738638" lon="-105.2302325">
  <ele>1680.76</ele>
  <time>2026-08-27T18:26:47Z</time>
  <course>283.64</course>
  <speed>0.26</speed>
  <fix>3d</fix>
</trkpt>
<trkpt lat="40.073864" lon="-105.2302337">
  <ele>1678.3</ele>
  <time>2026-08-27T18:26:47Z</time>
  <course>18.99</course>
  <speed>0.20615528128088303</speed>
  <fix>3d</fix>
</trkpt>
<trkpt lat="40.0738639" lon="-105.230233">
  <ele>1679.6</ele>
  <time>2026-08-27T18:26:47Z</time>
  <course>284.34</course>
  <speed>0.23</speed>
  <fix>3d</fix>
</trkpt>
<trkpt lat="40.0738641" lon="-105.2302341">
  <ele>1677.07</ele>
  <time>2026-08-27T18:26:47Z</time>
  <course>18.72</course>
  <speed>0.18681541692269404</speed>
  <fix>3d</fix>
</trkpt>
<trkpt lat="40.073864" lon="-105.2302336">
  <ele>1678.4</ele>
  <time>2026-08-27T18:26:47Z</time>
  <course>285.32</course>
  <speed>0.2</speed>
  <fix>3d</fix>
</trkpt>
<trkpt lat="40.0738642" lon="-105.2302345">
  <ele>1675.83</ele>
  <time>2026-08-27T18:26:47Z</time>
  <course>18.42</course>
  <speed>0.15811388300841897</speed>
  <fix>3d</fix>
</trkpt>
<trkpt lat="40.0738641" lon="-105.230234">
  <ele>1677.19</ele>
  <time>2026-08-27T18:26:47Z</time>
  <course>286.53</course>
  <speed>0.18</speed>
  <fix>3d</fix>
</trkpt>
<trkpt lat="40.0738643" lon="-105.2302348">
  <ele>1674.6</ele>
  <time>2026-08-27T18:26:47Z</time>
  <course>18.14</course>
  <speed>0.1392838827718412</speed>
  <fix>3d</fix>
</trkpt>
<trkpt lat="40.0738642" lon="-105.2302344">
  <ele>1675.97</ele>
  <time>2026-08-27T18:26:47Z</time>
  <course>287.96</course>
  <speed>0.15</speed>
  <fix>3d</fix>
</trkpt>
<trkpt lat="40.0738643" lon="-105.2302351">
  <ele>1673.36</ele>
  <time>2026-08-27T18:26:47Z</time>
  <course>17.87</course>
  <speed>0.11704699910719625</speed>
  <fix>3d</fix>
</trkpt>
<trkpt lat="40.0738642" lon="-105.2302347">
  <ele>1674.75</ele>
  <time>2026-08-27T18:26:47Z</time>
  <course>289.68</course>
  <speed>0.13</speed>
  <fix>3d</fix>
</trkpt>
<trkpt lat="40.0738644" lon="-105.2302353">
  <ele>1672.12</ele>
  <time>2026-08-27T18:26:47Z</time>
  <course>17.62</course>
  <speed>0.09848857801796104</speed>
  <fix>3d</fix>
</trkpt>
<trkpt lat="40.0738643" lon="-105.2302349">
  <ele>1673.52</ele>
  <time>2026-08-27T18:26:47Z</time>
  <course>291.82</course>
  <speed>0.1</speed>
  <fix>3d</fix>
</trkpt>
<trkpt lat="40.0738645" lon="-105.2302354">
  <ele>1670.89</ele>
  <time>2026-08-27T18:26:47Z</time>
  <course>17.39</course>
  <speed>0.08062257748298549</speed>
  <fix>3d</fix>
</trkpt>
<trkpt lat="40.0738644" lon="-105.2302352">
  <ele>1672.29</ele>
  <time>2026-08-27T18:26:47Z</time>
  <course>294.56</course>
  <speed>0.08</speed>
  <fix>3d</fix>
</trkpt>
<trkpt lat="40.0738645" lon="-105.2302356">
  <ele>1669.66</ele>
  <time>2026-08-27T18:26:47Z</time>
  <course>17.21</course>
  <speed>0.06403124237432849</speed>
  <fix>3d</fix>
</trkpt>
<trkpt lat="40.0738645" lon="-105.2302354">
  <ele>1671.06</ele>
  <time>2026-08-27T18:26:47Z</time>
  <course>298.32</course>
  <speed>0.06</speed>
  <fix>3d</fix>
</trkpt>
<trkpt lat="40.0738646" lon="-105.2302356">
  <ele>1668.42</ele>
  <time>2026-08-27T18:26:47Z</time>
  <course>17.04</course>
  <speed>0.04242640687119285</speed>
  <fix>3d</fix>
</trkpt>
<trkpt lat="40.0738645" lon="-105.2302355">
  <ele>1669.83</ele>
  <time>2026-08-27T18:26:47Z</time>
  <course>304.06</course>
  <speed>0.05</speed>
  <fix>3d</fix>
</trkpt>
<trkpt lat="40.0738646" lon="-105.2302357">
  <ele>1667.19</ele>
  <time>2026-08-27T18:26:47Z</time>
  <course>16.88</course>
  <speed>0.03605551275463989</speed>
  <fix>3d</fix>
</trkpt>
<trkpt lat="40.0738646" lon="-105.2302356">
  <ele>1668.6</ele>
  <time>2026-08-27T18:26:47Z</time>
  <course>314.02</course>
  <speed>0.03</speed>
  <fix>3d</fix>
</trkpt>
<trkpt lat="40.0738647" lon="-105.2302357">
  <ele>1665.96</ele>
  <time>2026-08-27T18:26:47Z</time>
  <course>16.65</course>
  <speed>0.03</speed>
  <fix>3d</fix>
</trkpt>
<trkpt lat="40.0738646" lon="-105.2302356">
  <ele>1667.38</ele>
  <time>2026-08-27T18:26:47Z</time>
  <course>334.33</course>
  <speed>0.02</speed>
  <fix>3d</fix>
</trkpt>
<trkpt lat="40.0738647" lon="-105.2302357">
  <ele>1664.71</ele>
  <time>2026-08-27T18:26:47Z</time>
  <course>16.4</course>
  <speed>0.03</speed>
  <fix>3d</fix>
</trkpt>
<trkpt lat="40.0738647" lon="-105.2302356">
  <ele>1666.15</ele>
  <time>2026-08-27T18:26:47Z</time>
  <course>11.86</course>
  <speed>0.01</speed>
  <fix>3d</fix>
</trkpt>
<trkpt lat="40.0738647" lon="-105.2302357">
  <ele>1663.54</ele>
  <time>2026-08-27T18:26:47Z</time>
  <course>16.28</course>
  <speed>0.07071067811865475</speed>
  <fix>3d</fix>
</trkpt>
<trkpt lat="40.0738647" lon="-105.2302356">
  <ele>1664.92</ele>
  <time>2026-08-27T18:26:47Z</time>
  <course>46.44</course>
  <speed>0.02</speed>
  <fix>3d</fix>
</trkpt>
<trkpt lat="40.0738647" lon="-105.2302354">
  <ele>1662.67</ele>
  <time>2026-08-27T18:26:47Z</time>
  <course>16.91</course>
  <speed>0.16</speed>
  <fix>3d</fix>
</trkpt>
<trkpt lat="40.0738647" lon="-105.2302355">
  <ele>1663.77</ele>
  <time>2026-08-27T18:26:47Z</time>
  <course>90.81</course>
  <speed>0.06</speed>
  <fix>3d</fix>
</trkpt>
<trkpt lat="40.0738647" lon="-105.2302349">
  <ele>1661.99</ele>
  <time>2026-08-27T18:26:47Z</time>
  <course>17.23</course>
  <speed>0.24083189157584592</speed>
  <fix>3d</fix>
</trkpt>
<trkpt lat="40.0738647" lon="-105.2302353">
  <ele>1662.84</ele>
  <time>2026-08-27T18:26:47Z</time>
  <course>98.82</course>
  <speed>0.16</speed>
  <fix>3d</fix>
</trkpt>
<trkpt lat="40.0738647" lon="-105.2302342">
  <ele>1661.42</ele>
  <time>2026-08-27T18:26:47Z</time>
  <course>17.13</course>
  <speed>0.3014962686336267</speed>
  <fix>3d</fix>
</trkpt>
<trkpt lat="40.0738647" lon="-105.2302349">
  <ele>1662.13</ele>
  <time>2026-08-27T18:26:47Z</time>
  <course>100.59</course>
  <speed>0.24</speed>
  <fix>3d</fix>
</trkpt>
<trkpt lat="40.0738646" lon="-105.2302334">
  <ele>1660.91</ele>
  <time>2026-08-27T18:26:47Z</time>
  <course>16.68</course>
  <speed>0.3423448553724738</speed>
  <fix>3d</fix>
</trkpt>
<trkpt lat="40.0738646" lon="-105.2302342">
  <ele>1661.56</ele>
  <time>2026-08-27T18:26:47Z</time>
  <course>101.27</course>
  <speed>0.31</speed>
  <fix>3d</fix>
</trkpt>
<trkpt lat="40.0738645" lon="-105.2302326">
  <ele>1660.43</ele>
  <time>2026-08-27T18:26:47Z</time>
  <course>16.01</course>
  <speed>0.383275357934736</speed>
  <fix>3d</fix>
</trkpt>
<trkpt lat="40.0738645" lon="-105.2302334">
  <ele>1661.06</ele>
  <time>2026-08-27T18:26:47Z</time>
  <course>101.66</course>
  <speed>0.36</speed>
  <fix>3d</fix>
</trkpt>
<trkpt lat="40.0738643" lon="-105.2302316">
  <ele>1659.97</ele>
  <time>2026-08-27T18:26:47Z</time>
  <course>15.29</course>
  <speed>0.4143669871020132</speed>
  <fix>3d</fix>
</trkpt>
<trkpt lat="40.0738644" lon="-105.2302325">
  <ele>1660.59</ele>
  <time>2026-08-27T18:26:47Z</time>
  <course>101.98</course>
  <speed>0.4</speed>
  <fix>3d</fix>
</trkpt>
<trkpt lat="40.0738642" lon="-105.2302306">
  <ele>1659.52</ele>
  <time>2026-08-27T18:26:47Z</time>
  <course>14.71</course>
  <speed>0.4356604182158393</speed>
  <fix>3d</fix>
</trkpt>
<trkpt lat="40.0738642" lon="-105.2302316">
  <ele>1660.13</ele>
  <time>2026-08-27T18:26:47Z</time>
  <course>102.31</course>
  <speed>0.43</speed>
  <fix>3d</fix>
</trkpt>
<trkpt lat="40.073864" lon="-105.2302295">
  <ele>1659.07</ele>
  <time>2026-08-27T18:26:47Z</time>
  <course>14.3</course>
  <speed>0.4570557952810576</speed>
  <fix>3d</fix>
</trkpt>
<trkpt lat="40.073864" lon="-105.2302306">
  <ele>1659.68</ele>
  <time>2026-08-27T18:26:47Z</time>
  <course>102.66</course>
  <speed>0.45</speed>
  <fix>3d</fix>
</trkpt>
<trkpt lat="40.0738638" lon="-105.2302284">
  <ele>1658.62</ele>
  <time>2026-08-27T18:26:47Z</time>
  <course>14.03</course>
  <speed>0.47853944456021597</speed>
  <fix>3d</fix>
</trkpt>
<trkpt lat="40.0738639" lon="-105.2302295">
  <ele>1659.23</ele>
  <time>2026-08-27T18:26:47Z</time>
  <course>103.05</course>
  <speed>0.48</speed>
  <fix>3d</fix>
</trkpt>
<trkpt lat="40.0738636" lon="-105.2302273">
  <ele>1658.18</ele>
  <time>2026-08-27T18:26:47Z</time>
  <course>13.84</course>
  <speed>0.4903060268852505</speed>
  <fix>3d</fix>
</trkpt>
<trkpt lat="40.0738636" lon="-105.2302283">
  <ele>1658.79</ele>
  <time>2026-08-27T18:26:47Z</time>
  <course>103.45</course>
  <speed>0.49</speed>
  <fix>3d</fix>
</trkpt>
<trkpt lat="40.0738633" lon="-105.2302261">
  <ele>1657.74</ele>
  <time>2026-08-27T18:26:47Z</time>
  <course>13.73</course>
  <speed>0.5099019513592785</speed>
  <fix>3d</fix>
</trkpt>
<trkpt lat="40.0738634" lon="-105.2302272">
  <ele>1658.34</ele>
  <time>2026-08-27T18:26:47Z</time>
  <course>103.85</course>
  <speed>0.51</speed>
  <fix>3d</fix>
</trkpt>
<trkpt lat="40.0738631" lon="-105.2302249">
  <ele>1657.31</ele>
  <time>2026-08-27T18:26:47Z</time>
  <course>13.68</course>
  <speed>0.5217278984298233</speed>
  <fix>3d</fix>
</trkpt>
<trkpt lat="40.0738632" lon="-105.2302259">
  <ele>1657.9</ele>
  <time>2026-08-27T18:26:47Z</time>
  <course>104.26</course>
  <speed>0.52</speed>
  <fix>3d</fix>
</trkpt>
<trkpt lat="40.0738629" lon="-105.2302236">
  <ele>1656.89</ele>
  <time>2026-08-27T18:26:47Z</time>
  <course>13.6</course>
  <speed>0.5434151267677411</speed>
  <fix>3d</fix>
</trkpt>
<trkpt lat="40.073863" lon="-105.2302248">
  <ele>1657.46</ele>
  <time>2026-08-27T18:26:47Z</time>
  <course>104.66</course>
  <speed>0.54</speed>
  <fix>3d</fix>
</trkpt>
<trkpt lat="40.0738626" lon="-105.2302223">
  <ele>1656.52</ele>
  <time>2026-08-27T18:26:47Z</time>
  <course>13.44</course>
  <speed>0.5651548460377916</speed>
  <fix>3d</fix>
</trkpt>
<trkpt lat="40.0738627" lon="-105.2302235">
  <ele>1657.03</ele>
  <time>2026-08-27T18:26:47Z</time>
  <course>105.01</course>
  <speed>0.56</speed>
  <fix>3d</fix>
</trkpt>
<trkpt lat="40.0738623" lon="-105.230221">
  <ele>1656.18</ele>
  <time>2026-08-27T18:26:47Z</time>
  <course>13.14</course>
  <speed>0.5846366392897386</speed>
  <fix>3d</fix>
</trkpt>
<trkpt lat="40.0738624" lon="-105.2302222">
  <ele>1656.65</ele>
  <time>2026-08-27T18:26:47Z</time>
  <course>105.31</course>
  <speed>0.58</speed>
  <fix>3d</fix>
</trkpt>
<trkpt lat="40.073862" lon="-105.2302196">
  <ele>1655.87</ele>
  <time>2026-08-27T18:26:47Z</time>
  <course>12.78</course>
  <speed>0.5966573556070519</speed>
  <fix>3d</fix>
</trkpt>
<trkpt lat="40.0738621" lon="-105.2302208">
  <ele>1656.32</ele>
  <time>2026-08-27T18:26:47Z</time>
  <course>105.62</course>
  <speed>0.6</speed>
  <fix>3d</fix>
</trkpt>
<trkpt lat="40.0738617" lon="-105.2302182">
  <ele>1655.56</ele>
  <time>2026-08-27T18:26:47Z</time>
  <course>12.45</course>
  <speed>0.5990826320300063</speed>
  <fix>3d</fix>
</trkpt>
<trkpt lat="40.0738618" lon="-105.2302195">
  <ele>1656.0</ele>
  <time>2026-08-27T18:26:47Z</time>
  <course>105.97</course>
  <speed>0.61</speed>
  <fix>3d</fix>
</trkpt>
<trkpt lat="40.0738614" lon="-105.2302168">
  <ele>1655.27</ele>
  <time>2026-08-27T18:26:47Z</time>
  <course>12.2</course>
  <speed>0.608769250208977</speed>
  <fix>3d</fix>
</trkpt>
<trkpt lat="40.0738615" lon="-105.2302181">
  <ele>1655.69</ele>
  <time>2026-08-27T18:26:47Z</time>
  <course>106.37</course>
  <speed>0.62</speed>
  <fix>3d</fix>
</trkpt>
<trkpt lat="40.0738611" lon="-105.2302154">
  <ele>1654.98</ele>
  <time>2026-08-27T18:26:47Z</time>
  <course>12.05</course>
  <speed>0.611310068623117</speed>
  <fix>3d</fix>
</trkpt>
<trkpt lat="40.0738612" lon="-105.2302167">
  <ele>1655.39</ele>
  <time>2026-08-27T18:26:47Z</time>
  <course>106.81</course>
  <speed>0.63</speed>
  <fix>3d</fix>
</trkpt>
<trkpt lat="40.0738607" lon="-105.2302139">
  <ele>1654.69</ele>
  <time>2026-08-27T18:26:47Z</time>
  <course>11.96</course>
  <speed>0.6140032573203501</speed>
  <fix>3d</fix>
</trkpt>
<trkpt lat="40.0738609" lon="-105.2302153">
  <ele>1655.1</ele>
  <time>2026-08-27T18:26:47Z</time>
  <course>107.27</course>
  <speed>0.63</speed>
  <fix>3d</fix>
</trkpt>
<trkpt lat="40.0738604" lon="-105.2302125">
  <ele>1654.41</ele>
  <time>2026-08-27T18:26:47Z</time>
  <course>11.91</course>
  <speed>0.6236184731067546</speed>
  <fix>3d</fix>
</trkpt>
<trkpt lat="40.0738605" lon="-105.2302139">
  <ele>1654.81</ele>
  <time>2026-08-27T18:26:47Z</time>
  <course>107.76</course>
  <speed>0.63</speed>
  <fix>3d</fix>
</trkpt>
<trkpt lat="40.07386" lon="-105.2302111">
  <ele>1654.13</ele>
  <time>2026-08-27T18:26:47Z</time>
  <course>11.89</course>
  <speed>0.6168468205316454</speed>
  <fix>3d</fix>
</trkpt>
<trkpt lat="40.0738602" lon="-105.2302124">
  <ele>1654.52</ele>
  <time>2026-08-27T18:26:47Z</time>
  <course>108.25</course>
  <speed>0.64</speed>
  <fix>3d</fix>
</trkpt>
<trkpt lat="40.0738596" lon="-105.2302096">
  <ele>1653.86</ele>
  <time>2026-08-27T18:26:47Z</time>
  <course>11.87</course>
  <speed>0.6168468205316454</speed>
  <fix>3d</fix>
</trkpt>
<trkpt lat="40.0738598" lon="-105.230211">
  <ele>1654.24</ele>
  <time>2026-08-27T18:26:47Z</time>
  <course>108.74</course>
  <speed>0.64</speed>
  <fix>3d</fix>
</trkpt>
<trkpt lat="40.0738592" lon="-105.2302082">
  <ele>1653.61</ele>
  <time>2026-08-27T18:26:47Z</time>
  <course>11.88</course>
  <speed>0.6198386886924694</speed>
  <fix>3d</fix>
</trkpt>
<trkpt lat="40.0738595" lon="-105.2302096">
  <ele>1653.97</ele>
  <time>2026-08-27T18:26:47Z</time>
  <course>109.24</course>
  <speed>0.64</speed>
  <fix>3d</fix>
</trkpt>
<trkpt lat="40.0738589" lon="-105.2302068">
  <ele>1653.36</ele>
  <time>2026-08-27T18:26:47Z</time>
  <course>11.89</course>
  <speed>0.6198386886924694</speed>
  <fix>3d</fix>
</trkpt>
<trkpt lat="40.073859" lon="-105.2302081">
  <ele>1653.7</ele>
  <time>2026-08-27T18:26:47Z</time>
  <course>109.74</course>
  <speed>0.64</speed>
  <fix>3d</fix>
</trkpt>
<trkpt lat="40.0738585" lon="-105.2302054">
  <ele>1653.11</ele>
  <time>2026-08-27T18:26:47Z</time>
  <course>11.91</course>
  <speed>0.6135144660071187</speed>
  <fix>3d</fix>
</trkpt>
<trkpt lat="40.0738587" lon="-105.2302067">
  <ele>1653.44</ele>
  <time>2026-08-27T18:26:47Z</time>
  <course>110.24</course>
  <speed>0.64</speed>
  <fix>3d</fix>
</trkpt>
<trkpt lat="40.0738581" lon="-105.230204">
  <ele>1652.87</ele>
  <time>2026-08-27T18:26:47Z</time>
  <course>11.92</course>
  <speed>0.6135144660071187</speed>
  <fix>3d</fix>
</trkpt>
<trkpt lat="40.0738583" lon="-105.2302053">
  <ele>1653.19</ele>
  <time>2026-08-27T18:26:47Z</time>
  <course>110.74</course>
  <speed>0.63</speed>
  <fix>3d</fix>
</trkpt>
<trkpt lat="40.0738576" lon="-105.2302026">
  <ele>1652.63</ele>
  <time>2026-08-27T18:26:47Z</time>
  <course>11.92</course>
  <speed>0.6040695324215583</speed>
  <fix>3d</fix>
</trkpt>
<trkpt lat="40.0738578" lon="-105.230204">
  <ele>1652.95</ele>
  <time>2026-08-27T18:26:47Z</time>
  <course>111.25</course>
  <speed>0.63</speed>
  <fix>3d</fix>
</trkpt>
<trkpt lat="40.0738572" lon="-105.2302013">
  <ele>1652.41</ele>
  <time>2026-08-27T18:26:47Z</time>
  <course>11.92</course>
  <speed>0.6074537019394977</speed>
  <fix>3d</fix>
</trkpt>
<trkpt lat="40.0738574" lon="-105.2302026">
  <ele>1652.71</ele>
  <time>2026-08-27T18:26:47Z</time>
  <course>111.76</course>
  <speed>0.63</speed>
  <fix>3d</fix>
</trkpt>
<trkpt lat="40.0738568" lon="-105.2301999">
  <ele>1652.19</ele>
  <time>2026-08-27T18:26:47Z</time>
  <course>11.92</course>
  <speed>0.5980802621722272</speed>
  <fix>3d</fix>
</trkpt>
<trkpt lat="40.073857" lon="-105.2302012">
  <ele>1652.48</ele>
  <time>2026-08-27T18:26:47Z</time>
  <course>112.27</course>
  <speed>0.62</speed>
  <fix>3d</fix>
</trkpt>
<trkpt lat="40.0738563" lon="-105.2301986">
  <ele>1651.97</ele>
  <time>2026-08-27T18:26:47Z</time>
  <course>11.92</course>
  <speed>0.5887274411814011</speed>
  <fix>3d</fix>
</trkpt>
<trkpt lat="40.0738566" lon="-105.2301998">
  <ele>1652.26</ele>
  <time>2026-08-27T18:26:47Z</time>
  <course>112.79</course>
  <speed>0.61</speed>
  <fix>3d</fix>
</trkpt>
<trkpt lat="40.0738559" lon="-105.2301972">
  <ele>1651.76</ele>
  <time>2026-08-27T18:26:47Z</time>
  <course>11.91</course>
  <speed>0.58309518948453</speed>
  <fix>3d</fix>
</trkpt>
<trkpt lat="40.0738561" lon="-105.2301985">
  <ele>1652.04</ele>
  <time>2026-08-27T18:26:47Z</time>
  <course>113.32</course>
  <speed>0.61</speed>
  <fix>3d</fix>
</trkpt>
<trkpt lat="40.0738555" lon="-105.2301959">
  <ele>1651.56</ele>
  <time>2026-08-27T18:26:47Z</time>
  <course>11.92</course>
  <speed>0.5738466694161429</speed>
  <fix>3d</fix>
</trkpt>
<trkpt lat="40.0738557" lon="-105.2301972">
  <ele>1651.82</ele>
  <time>2026-08-27T18:26:47Z</time>
  <course>113.87</course>
  <speed>0.6</speed>
  <fix>3d</fix>
</trkpt>
<trkpt lat="40.073855" lon="-105.2301947">
  <ele>1651.36</ele>
  <time>2026-08-27T18:26:47Z</time>
  <course>11.91</course>
  <speed>0.5646237685397242</speed>
  <fix>3d</fix>
</trkpt>
<trkpt lat="40.0738553" lon="-105.2301959">
  <ele>1651.62</ele>
  <time>2026-08-27T18:26:47Z</time>
  <course>114.42</course>
  <speed>0.59</speed>
  <fix>3d</fix>
</trkpt>
<trkpt lat="40.0738546" lon="-105.2301934">
  <ele>1651.17</ele>
  <time>2026-08-27T18:26:47Z</time>
  <course>11.91</course>
  <speed>0.5554277630799526</speed>
  <fix>3d</fix>
</trkpt>
<trkpt lat="40.0738548" lon="-105.2301946">
  <ele>1651.42</ele>
  <time>2026-08-27T18:26:47Z</time>
  <course>114.98</course>
  <speed>0.59</speed>
  <fix>3d</fix>
</trkpt>
<trkpt lat="40.0738541" lon="-105.2301922">
  <ele>1650.99</ele>
  <time>2026-08-27T18:26:47Z</time>
  <course>11.92</course>
  <speed>0.5462600113499065</speed>
  <fix>3d</fix>
</trkpt>
<trkpt lat="40.0738544" lon="-105.2301933">
  <ele>1651.23</ele>
  <time>2026-08-27T18:26:47Z</time>
  <course>115.56</course>
  <speed>0.58</speed>
  <fix>3d</fix>
</trkpt>
<trkpt lat="40.0738537" lon="-105.230191">
  <ele>1650.81</ele>
  <time>2026-08-27T18:26:47Z</time>
  <course>11.94</course>
  <speed>0.5412947441089743</speed>
  <fix>3d</fix>
</trkpt>
<trkpt lat="40.0738539" lon="-105.2301922">
  <ele>1651.05</ele>
  <time>2026-08-27T18:26:47Z</time>
  <course>116.16</course>
  <speed>0.57</speed>
  <fix>3d</fix>
</trkpt>
<trkpt lat="40.0738532" lon="-105.2301898">
  <ele>1650.65</ele>
  <time>2026-08-27T18:26:47Z</time>
  <course>12.03</course>
  <speed>0.5322593352868505</speed>
  <fix>3d</fix>
</trkpt>
<trkpt lat="40.0738535" lon="-105.2301909">
  <ele>1650.88</ele>
  <time>2026-08-27T18:26:47Z</time>
  <course>116.77</course>
  <speed>0.56</speed>
  <fix>3d</fix>
</trkpt>
<trkpt lat="40.0738527" lon="-105.2301887">
  <ele>1650.49</ele>
  <time>2026-08-27T18:26:47Z</time>
  <course>12.12</course>
  <speed>0.5232590180780452</speed>
  <fix>3d</fix>
</trkpt>
<trkpt lat="40.073853" lon="-105.2301898">
  <ele>1650.71</ele>
  <time>2026-08-27T18:26:47Z</time>
  <course>117.36</course>
  <speed>0.55</speed>
  <fix>3d</fix>
</trkpt>
<trkpt lat="40.0738523" lon="-105.2301876">
  <ele>1650.33</ele>
  <time>2026-08-27T18:26:47Z</time>
  <course>12.15</course>
  <speed>0.5142956348249517</speed>
  <fix>3d</fix>
</trkpt>
<trkpt lat="40.0738525" lon="-105.2301886">
  <ele>1650.54</ele>
  <time>2026-08-27T18:26:47Z</time>
  <course>117.91</course>
  <speed>0.54</speed>
  <fix>3d</fix>
</trkpt>
<trkpt lat="40.0738518" lon="-105.2301865">
  <ele>1650.12</ele>
  <time>2026-08-27T18:26:47Z</time>
  <course>12.13</course>
  <speed>0.45650848842053304</speed>
  <fix>3d</fix>
</trkpt>
<trkpt lat="40.073852" lon="-105.2301875">
  <ele>1650.38</ele>
  <time>2026-08-27T18:26:47Z</time>
  <course>118.42</course>
  <speed>0.53</speed>
  <fix>3d</fix>
</trkpt>
<trkpt lat="40.0738514" lon="-105.2301857">
  <ele>1649.6</ele>
  <time>2026-08-27T18:26:47Z</time>
  <course>13.04</course>
  <speed>0.3522782990761707</speed>
  <fix>3d</fix>
</trkpt>
<trkpt lat="40.0738516" lon="-105.2301865">
  <ele>1650.16</ele>
  <time>2026-08-27T18:26:47Z</time>
  <course>120.46</course>
  <speed>0.48</speed>
  <fix>3d</fix>
</trkpt>
<trkpt lat="40.073851" lon="-105.230185">
  <ele>1648.84</ele>
  <time>2026-08-27T18:26:47Z</time>
  <course>14.31</course>
  <speed>0.31400636936215165</speed>
  <fix>3d</fix>
</trkpt>
<trkpt lat="40.0738511" lon="-105.2301856">
  <ele>1649.71</ele>
  <time>2026-08-27T18:26:47Z</time>
  <course>124.72</course>
  <speed>0.39</speed>
  <fix>3d</fix>
</trkpt>
<trkpt lat="40.0738506" lon="-105.2301844">
  <ele>1647.92</ele>
  <time>2026-08-27T18:26:47Z</time>
  <course>13.91</course>
  <speed>0.2765863337187866</speed>
  <fix>3d</fix>
</trkpt>
<trkpt lat="40.0738508" lon="-105.2301849">
  <ele>1648.98</ele>
  <time>2026-08-27T18:26:47Z</time>
  <course>128.58</course>
  <speed>0.34</speed>
  <fix>3d</fix>
</trkpt>
<trkpt lat="40.0738502" lon="-105.230184">
  <ele>1646.89</ele>
  <time>2026-08-27T18:26:47Z</time>
  <course>12.25</course>
  <speed>0.21400934559032694</speed>
  <fix>3d</fix>
</trkpt>
<trkpt lat="40.0738504" lon="-105.2301843">
  <ele>1648.08</ele>
  <time>2026-08-27T18:26:47Z</time>
  <course>132.26</course>
  <speed>0.3</speed>
  <fix>3d</fix>
</trkpt>
<trkpt lat="40.0738499" lon="-105.2301837">
  <ele>1645.79</ele>
  <time>2026-08-27T18:26:47Z</time>
  <course>13.2</course>
  <speed>0.1835755975068582</speed>
  <fix>3d</fix>
</trkpt>
<trkpt lat="40.0738501" lon="-105.2301838">
  <ele>1647.06</ele>
  <time>2026-08-27T18:26:47Z</time>
  <course>139.86</course>
  <speed>0.24</speed>
  <fix>3d</fix>
</trkpt>
<trkpt lat="40.0738496" lon="-105.2301835">
  <ele>1644.63</ele>
  <time>2026-08-27T18:26:47Z</time>
  <course>14.24</course>
  <speed>0.17464249196572978</speed>
  <fix>3d</fix>
</trkpt>
<trkpt lat="40.0738497" lon="-105.2301836">
  <ele>1645.96</ele>
  <time>2026-08-27T18:26:47Z</time>
  <course>149.76</course>
  <speed>0.2</speed>
  <fix>3d</fix>
</trkpt>
<trkpt lat="40.0738493" lon="-105.2301833">
  <ele>1643.43</ele>
  <time>2026-08-27T18:26:47Z</time>
  <course>15.13</course>
  <speed>0.16552945357246848</speed>
  <fix>3d</fix>
</trkpt>
<trkpt lat="40.0738494" lon="-105.2301833">
  <ele>1644.81</ele>
  <time>2026-08-27T18:26:47Z</time>
  <course>155.2</course>
  <speed>0.19</speed>
  <fix>3d</fix>
</trkpt>
<trkpt lat="40.0738489" lon="-105.2301831">
  <ele>1642.21</ele>
  <time>2026-08-27T18:26:47Z</time>
  <course>15.31</course>
  <speed>0.16552945357246848</speed>
  <fix>3d</fix>
</trkpt>
<trkpt lat="40.0738491" lon="-105.2301832">
  <ele>1643.62</ele>
  <time>2026-08-27T18:26:47Z</time>
  <course>156.15</course>
  <speed>0.18</speed>
  <fix>3d</fix>
</trkpt>
<trkpt lat="40.0738486" lon="-105.2301829">
  <ele>1640.98</ele>
  <time>2026-08-27T18:26:47Z</time>
  <course>15.19</course>
  <speed>0.17</speed>
  <fix>3d</fix>
</trkpt>
<trkpt lat="40.0738488" lon="-105.2301829">
  <ele>1642.4</ele>
  <time>2026-08-27T18:26:47Z</time>
  <course>154.76</course>
  <speed>0.18</speed>
  <fix>3d</fix>
</trkpt>
<trkpt lat="40.0738483" lon="-105.2301827">
  <ele>1639.73</ele>
  <time>2026-08-27T18:26:47Z</time>
  <course>15.02</course>
  <speed>0.17</speed>
  <fix>3d</fix>
</trkpt>
<trkpt lat="40.0738485" lon="-105.2301828">
  <ele>1641.17</ele>
  <time>2026-08-27T18:26:47Z</time>
  <course>153.39</course>
  <speed>0.18</speed>
  <fix>3d</fix>
</trkpt>
<trkpt lat="40.073848" lon="-105.2301825">
  <ele>1638.49</ele>
  <time>2026-08-27T18:26:47Z</time>
  <course>14.89</course>
  <speed>0.17</speed>
  <fix>3d</fix>
</trkpt>
<trkpt lat="40.0738482" lon="-105.2301826">
  <ele>1639.94</ele>
  <time>2026-08-27T18:26:47Z</time>
  <course>152.18</course>
  <speed>0.19</speed>
  <fix>3d</fix>
</trkpt>
<trkpt lat="40.0738477" lon="-105.2301822">
  <ele>1637.25</ele>
  <time>2026-08-27T18:26:47Z</time>
  <course>14.78</course>
  <speed>0.17</speed>
  <fix>3d</fix>
</trkpt>
<trkpt lat="40.0738479" lon="-105.2301823">
  <ele>1638.71</ele>
  <time>2026-08-27T18:26:47Z</time>
  <course>151.04</course>
  <speed>0.19</speed>
  <fix>3d</fix>
</trkpt>
<trkpt lat="40.0738474" lon="-105.230182">
  <ele>1636.01</ele>
  <time>2026-08-27T18:26:47Z</time>
  <course>14.69</course>
  <speed>0.17492855684535902</speed>
  <fix>3d</fix>
</trkpt>
<trkpt lat="40.0738476" lon="-105.2301822">
  <ele>1637.47</ele>
  <time>2026-08-27T18:26:47Z</time>
  <course>149.94</course>
  <speed>0.19</speed>
  <fix>3d</fix>
</trkpt>
<trkpt lat="40.0738471" lon="-105.2301818">
  <ele>1634.77</ele>
  <time>2026-08-27T18:26:47Z</time>
  <course>14.58</course>
  <speed>0.17492855684535902</speed>
  <fix>3d</fix>
</trkpt>
<trkpt lat="40.0738473" lon="-105.2301819">
  <ele>1636.23</ele>
  <time>2026-08-27T18:26:47Z</time>
  <course>148.87</course>
  <speed>0.19</speed>
  <fix>3d</fix>
</trkpt>
<trkpt lat="40.0738468" lon="-105.2301815">
  <ele>1633.53</ele>
  <time>2026-08-27T18:26:47Z</time>
  <course>14.48</course>
  <speed>0.1664331697709324</speed>
  <fix>3d</fix>
</trkpt>
<trkpt lat="40.073847" lon="-105.2301817">
  <ele>1634.99</ele>
  <time>2026-08-27T18:26:47Z</time>
  <course>147.89</course>
  <speed>0.19</speed>
  <fix>3d</fix>
</trkpt>
<trkpt lat="40.0738466" lon="-105.2301813">
  <ele>1632.29</ele>
  <time>2026-08-27T18:26:47Z</time>
  <course>14.39</course>
  <speed>0.17204650534085253</speed>
  <fix>3d</fix>
</trkpt>
<trkpt lat="40.0738467" lon="-105.2301814">
  <ele>1633.76</ele>
  <time>2026-08-27T18:26:47Z</time>
  <course>147.03</course>
  <speed>0.19</speed>
  <fix>3d</fix>
</trkpt>
<trkpt lat="40.0738463" lon="-105.230181">
  <ele>1631.05</ele>
  <time>2026-08-27T18:26:47Z</time>
  <course>14.33</course>
  <speed>0.17204650534085253</speed>
  <fix>3d</fix>
</trkpt>
<trkpt lat="40.0738464" lon="-105.2301812">
  <ele>1632.52</ele>
  <time>2026-08-27T18:26:47Z</time>
  <course>146.25</course>
  <speed>0.19</speed>
  <fix>3d</fix>
</trkpt>
<trkpt lat="40.073846" lon="-105.2301808">
  <ele>1629.81</ele>
  <time>2026-08-27T18:26:47Z</time>
  <course>14.27</course>
  <speed>0.17204650534085253</speed>
  <fix>3d</fix>
</trkpt>
<trkpt lat="40.0738461" lon="-105.2301809">
  <ele>1631.29</ele>
  <time>2026-08-27T18:26:47Z</time>
  <course>145.5</course>
  <speed>0.2</speed>
  <fix>3d</fix>
</trkpt>
<trkpt lat="40.0738457" lon="-105.2301805">
  <ele>1628.57</ele>
  <time>2026-08-27T18:26:47Z</time>
  <course>14.21</course>
  <speed>0.17804493814764857</speed>
  <fix>3d</fix>
</trkpt>
<trkpt lat="40.0738458" lon="-105.2301806">
  <ele>1630.05</ele>
  <time>2026-08-27T18:26:47Z</time>
  <course>144.83</course>
  <speed>0.2</speed>
  <fix>3d</fix>
</trkpt>
<trkpt lat="40.0738454" lon="-105.2301802">
  <ele>1627.32</ele>
  <time>2026-08-27T18:26:47Z</time>
  <course>14.15</course>
  <speed>0.17804493814764857</speed>
  <fix>3d</fix>
</trkpt>
<trkpt lat="40.0738455" lon="-105.2301803">
  <ele>1628.82</ele>
  <time>2026-08-27T18:26:47Z</time>
  <course>144.25</course>
  <speed>0.2</speed>
  <fix>3d</fix>
</trkpt>
<trkpt lat="40.0738451" lon="-105.2301799">
  <ele>1626.07</ele>
  <time>2026-08-27T18:26:47Z</time>
  <course>14.09</course>
  <speed>0.18601075237738274</speed>
  <fix>3d</fix>
</trkpt>
<trkpt lat="40.0738452" lon="-105.23018">
  <ele>1627.59</ele>
  <time>2026-08-27T18:26:47Z</time>
  <course>143.76</course>
  <speed>0.2</speed>
  <fix>3d</fix>
</trkpt>
<trkpt lat="40.0738448" lon="-105.2301796">
  <ele>1624.83</ele>
  <time>2026-08-27T18:26:47Z</time>
  <course>14.03</course>
  <speed>0.18601075237738274</speed>
  <fix>3d</fix>
</trkpt>
<trkpt lat="40.0738449" lon="-105.2301798">
  <ele>1626.36</ele>
  <time>2026-08-27T18:26:47Z</time>
  <course>143.29</course>
  <speed>0.2</speed>
  <fix>3d</fix>
</trkpt>
<trkpt lat="40.0738445" lon="-105.2301793">
  <ele>1623.59</ele>
  <time>2026-08-27T18:26:47Z</time>
  <course>13.99</course>
  <speed>0.18601075237738274</speed>
  <fix>3d</fix>
</trkpt>
<trkpt lat="40.0738446" lon="-105.2301795">
  <ele>1625.12</ele>
  <time>2026-08-27T18:26:47Z</time>
  <course>142.84</course>
  <speed>0.21</speed>
  <fix>3d</fix>
</trkpt>
<trkpt lat="40.0738442" lon="-105.230179">
  <ele>1622.35</ele>
  <time>2026-08-27T18:26:47Z</time>
  <course>13.94</course>
  <speed>0.19209372712298545</speed>
  <fix>3d</fix>
</trkpt>
<trkpt lat="40.0738443" lon="-105.2301792">
  <ele>1623.89</ele>
  <time>2026-08-27T18:26:47Z</time>
  <course>142.46</course>
  <speed>0.21</speed>
  <fix>3d</fix>
</trkpt>
<trkpt lat="40.0738439" lon="-105.2301787">
  <ele>1621.11</ele>
  <time>2026-08-27T18:26:47Z</time>
  <course>13.88</course>
  <speed>0.19209372712298545</speed>
  <fix>3d</fix>
</trkpt>
<trkpt lat="40.073844" lon="-105.2301789">
  <ele>1622.66</ele>
  <time>2026-08-27T18:26:47Z</time>
  <course>142.12</course>
  <speed>0.21</speed>
  <fix>3d</fix>
</trkpt>
<trkpt lat="40.0738435" lon="-105.2301784">
  <ele>1619.87</ele>
  <time>2026-08-27T18:26:47Z</time>
  <course>13.82</course>
  <speed>0.19209372712298545</speed>
  <fix>3d</fix>
</trkpt>
<trkpt lat="40.0738437" lon="-105.2301785">
  <ele>1621.43</ele>
  <time>2026-08-27T18:26:47Z</time>
  <course>141.84</course>
  <speed>0.21</speed>
  <fix>3d</fix>
</trkpt>
<trkpt lat="40.0738432" lon="-105.2301781">
  <ele>1618.64</ele>
  <time>2026-08-27T18:26:47Z</time>
  <course>13.77</course>
  <speed>0.19209372712298545</speed>
  <fix>3d</fix>
</trkpt>
<trkpt lat="40.0738434" lon="-105.2301782">
  <ele>1620.2</ele>
  <time>2026-08-27T18:26:47Z</time>
  <course>141.61</course>
  <speed>0.21</speed>
  <fix>3d</fix>
</trkpt>
<trkpt lat="40.0738429" lon="-105.2301777">
  <ele>1617.41</ele>
  <time>2026-08-27T18:26:47Z</time>
  <course>13.73</course>
  <speed>0.19209372712298545</speed>
  <fix>3d</fix>
</trkpt>
<trkpt lat="40.0738431" lon="-105.2301779">
  <ele>1618.97</ele>
  <time>2026-08-27T18:26:47Z</time>
  <course>141.42</course>
  <speed>0.22</speed>
  <fix>3d</fix>
</trkpt>
<trkpt lat="40.0738426" lon="-105.2301774">
  <ele>1616.19</ele>
  <time>2026-08-27T18:26:47Z</time>
  <course>13.68</course>
  <speed>0.19209372712298545</speed>
  <fix>3d</fix>
</trkpt>
<trkpt lat="40.0738427" lon="-105.2301776">
  <ele>1617.74</ele>
  <time>2026-08-27T18:26:47Z</time>
  <course>141.25</course>
  <speed>0.22</speed>
  <fix>3d</fix>
</trkpt>
<trkpt lat="40.0738423" lon="-105.2301771">
  <ele>1614.96</ele>
  <time>2026-08-27T18:26:47Z</time>
  <course>13.64</course>
  <speed>0.19849433241279207</speed>
  <fix>3d</fix>
</trkpt>
<trkpt lat="40.0738424" lon="-105.2301772">
  <ele>1616.51</ele>
  <time>2026-08-27T18:26:47Z</time>
  <course>141.12</course>
  <speed>0.22</speed>
  <fix>3d</fix>
</trkpt>
<trkpt lat="40.073842" lon="-105.2301767">
  <ele>1613.72</ele>
  <time>2026-08-27T18:26:47Z</time>
  <course>13.6</course>
  <speed>0.19849433241279207</speed>
  <fix>3d</fix>
</trkpt>
<trkpt lat="40.0738421" lon="-105.2301769">
  <ele>1615.28</ele>
  <time>2026-08-27T18:26:47Z</time>
  <course>141.01</course>
  <speed>0.22</speed>
  <fix>3d</fix>
</trkpt>
<trkpt lat="40.0738417" lon="-105.2301764">
  <ele>1612.49</ele>
  <time>2026-08-27T18:26:47Z</time>
  <course>13.57</course>
  <speed>0.19849433241279207</speed>
  <fix>3d</fix>
</trkpt>
<trkpt lat="40.0738418" lon="-105.2301766">
  <ele>1614.05</ele>
  <time>2026-08-27T18:26:47Z</time>
  <course>140.92</course>
  <speed>0.22</speed>
  <fix>3d</fix>
</trkpt>
<trkpt lat="40.0738414" lon="-105.2301761">
  <ele>1611.26</ele>
  <time>2026-08-27T18:26:47Z</time>
  <course>13.53</course>
  <speed>0.19849433241279207</speed>
  <fix>3d</fix>
</trkpt>
<trkpt lat="40.0738415" lon="-105.2301763">
  <ele>1612.82</ele>
  <time>2026-08-27T18:26:47Z</time>
  <course>140.85</course>
  <speed>0.22</speed>
  <fix>3d</fix>
</trkpt>
<trkpt lat="40.073841" lon="-105.2301757">
  <ele>1610.03</ele>
  <time>2026-08-27T18:26:47Z</time>
  <course>13.49</course>
  <speed>0.19849433241279207</speed>
  <fix>3d</fix>
</trkpt>
<trkpt lat="40.0738412" lon="-105.2301759">
  <ele>1611.59</ele>
  <time>2026-08-27T18:26:47Z</time>
  <course>140.81</course>
  <speed>0.22</speed>
  <fix>3d</fix>
</trkpt>
<trkpt lat="40.0738407" lon="-105.2301754">
  <ele>1608.8</ele>
  <time>2026-08-27T18:26:47Z</time>
  <course>13.45</course>
  <speed>0.20615528128088303</speed>
  <fix>3d</fix>
</trkpt>
<trkpt lat="40.0738408" lon="-105.2301756">
  <ele>1610.36</ele>
  <time>2026-08-27T18:26:47Z</time>
  <course>140.8</course>
  <speed>0.23</speed>
  <fix>3d</fix>
</trkpt>
<trkpt lat="40.0738404" lon="-105.230175">
  <ele>1607.57</ele>
  <time>2026-08-27T18:26:47Z</time>
  <course>13.41</course>
  <speed>0.20615528128088303</speed>
  <fix>3d</fix>
</trkpt>
<trkpt lat="40.0738405" lon="-105.2301753">
  <ele>1609.14</ele>
  <time>2026-08-27T18:26:47Z</time>
  <course>140.81</course>
  <speed>0.23</speed>
  <fix>3d</fix>
</trkpt>
<trkpt lat="40.0738401" lon="-105.2301747">
  <ele>1606.34</ele>
  <time>2026-08-27T18:26:47Z</time>
  <course>13.38</course>
  <speed>0.20615528128088303</speed>
  <fix>3d</fix>
</trkpt>
<trkpt lat="40.0738402" lon="-105.2301749">
  <ele>1607.91</ele>
  <time>2026-08-27T18:26:47Z</time>
  <course>140.83</course>
  <speed>0.23</speed>
  <fix>3d</fix>
</trkpt>
<trkpt lat="40.0738397" lon="-105.2301743">
  <ele>1605.11</ele>
  <time>2026-08-27T18:26:47Z</time>
  <course>13.34</course>
  <speed>0.20615528128088303</speed>
  <fix>3d</fix>
</trkpt>
<trkpt lat="40.0738399" lon="-105.2301746">
  <ele>1606.68</ele>
  <time>2026-08-27T18:26:47Z</time>
  <course>140.87</course>
  <speed>0.23</speed>
  <fix>3d</fix>
</trkpt>
<trkpt lat="40.0738394" lon="-105.230174">
  <ele>1603.88</ele>
  <time>2026-08-27T18:26:47Z</time>
  <course>13.31</course>
  <speed>0.20615528128088303</speed>
  <fix>3d</fix>
</trkpt>
<trkpt lat="40.0738396" lon="-105.2301742">
  <ele>1605.45</ele>
  <time>2026-08-27T18:26:47Z</time>
  <course>140.91</course>
  <speed>0.23</speed>
  <fix>3d</fix>
</trkpt>
<trkpt lat="40.0738391" lon="-105.2301737">
  <ele>1602.65</ele>
  <time>2026-08-27T18:26:47Z</time>
  <course>13.28</course>
  <speed>0.20615528128088303</speed>
  <fix>3d</fix>
</trkpt>
<trkpt lat="40.0738392" lon="-105.2301739">
  <ele>1604.22</ele>
  <time>2026-08-27T18:26:47Z</time>
  <course>140.98</course>
  <speed>0.23</speed>
  <fix>3d</fix>
</trkpt>
<trkpt lat="40.0738387" lon="-105.2301733">
  <ele>1601.41</ele>
  <time>2026-08-27T18:26:47Z</time>
  <course>13.24</course>
  <speed>0.20615528128088303</speed>
  <fix>3d</fix>
</trkpt>
<trkpt lat="40.0738389" lon="-105.2301735">
  <ele>1603.0</ele>
  <time>2026-08-27T18:26:47Z</time>
  <course>141.05</course>
  <speed>0.23</speed>
  <fix>3d</fix>
</trkpt>
<trkpt lat="40.0738384" lon="-105.2301729">
  <ele>1600.18</ele>
  <time>2026-08-27T18:26:47Z</time>
  <course>13.21</course>
  <speed>0.20615528128088303</speed>
  <fix>3d</fix>
</trkpt>
<trkpt lat="40.0738386" lon="-105.2301732">
  <ele>1601.77</ele>
  <time>2026-08-27T18:26:47Z</time>
  <course>141.14</course>
  <speed>0.23</speed>
  <fix>3d</fix>
</trkpt>
<trkpt lat="40.0738381" lon="-105.2301726">
  <ele>1598.94</ele>
  <time>2026-08-27T18:26:47Z</time>
  <course>13.18</course>
  <speed>0.20615528128088303</speed>
  <fix>3d</fix>
</trkpt>
<trkpt lat="40.0738382" lon="-105.2301728">
  <ele>1600.54</ele>
  <time>2026-08-27T18:26:47Z</time>
  <course>141.25</course>
  <speed>0.23</speed>
  <fix>3d</fix>
</trkpt>
<trkpt lat="40.0738377" lon="-105.2301722">
  <ele>1597.71</ele>
  <time>2026-08-27T18:26:47Z</time>
  <course>13.16</course>
  <speed>0.21400934559032694</speed>
  <fix>3d</fix>
</trkpt>
<trkpt lat="40.0738379" lon="-105.2301725">
  <ele>1599.31</ele>
  <time>2026-08-27T18:26:47Z</time>
  <course>141.36</course>
  <speed>0.24</speed>
  <fix>3d</fix>
</trkpt>
<trkpt lat="40.0738374" lon="-105.2301719">
  <ele>1596.48</ele>
  <time>2026-08-27T18:26:47Z</time>
  <course>13.13</course>
  <speed>0.22022715545545238</speed>
  <fix>3d</fix>
</trkpt>
<trkpt lat="40.0738376" lon="-105.2301721">
  <ele>1598.08</ele>
  <time>2026-08-27T18:26:47Z</time>
  <course>141.47</course>
  <speed>0.24</speed>
  <fix>3d</fix>
</trkpt>
<trkpt lat="40.073837" lon="-105.2301715">
  <ele>1595.24</ele>
  <time>2026-08-27T18:26:47Z</time>
  <course>13.1</course>
  <speed>0.22022715545545238</speed>
  <fix>3d</fix>
</trkpt>
<trkpt lat="40.0738372" lon="-105.2301717">
  <ele>1596.85</ele>
  <time>2026-08-27T18:26:47Z</time>
  <course>141.57</course>
  <speed>0.24</speed>
  <fix>3d</fix>
</trkpt>
<trkpt lat="40.0738367" lon="-105.2301712">
  <ele>1594.01</ele>
  <time>2026-08-27T18:26:47Z</time>
  <course>13.07</course>
  <speed>0.22022715545545238</speed>
  <fix>3d</fix>
</trkpt>
<trkpt lat="40.0738369" lon="-105.2301713">
  <ele>1595.62</ele>
  <time>2026-08-27T18:26:47Z</time>
  <course>141.68</course>
  <speed>0.24</speed>
  <fix>3d</fix>
</trkpt>
<trkpt lat="40.0738364" lon="-105.2301708">
  <ele>1592.78</ele>
  <time>2026-08-27T18:26:47Z</time>
  <course>13.05</course>
  <speed>0.22022715545545238</speed>
  <fix>3d</fix>
</trkpt>
<trkpt lat="40.0738365" lon="-105.230171">
  <ele>1594.4</ele>
  <time>2026-08-27T18:26:47Z</time>
  <course>141.8</course>
  <speed>0.24</speed>
  <fix>3d</fix>
</trkpt>
<trkpt lat="40.073836" lon="-105.2301705">
  <ele>1591.55</ele>
  <time>2026-08-27T18:26:47Z</time>
  <course>13.02</course>
  <speed>0.22022715545545238</speed>
  <fix>3d</fix>
</trkpt>
<trkpt lat="40.0738362" lon="-105.2301707">
  <ele>1593.17</ele>
  <time>2026-08-27T18:26:47Z</time>
  <course>141.92</course>
  <speed>0.24</speed>
  <fix>3d</fix>
</trkpt>
<trkpt lat="40.0738357" lon="-105.2301701">
  <ele>1590.32</ele>
  <time>2026-08-27T18:26:47Z</time>
  <course>13.0</course>
  <speed>0.22022715545545238</speed>
  <fix>3d</fix>
</trkpt>
<trkpt lat="40.0738358" lon="-105.2301703">
  <ele>1591.94</ele>
  <time>2026-08-27T18:26:47Z</time>
  <course>142.05</course>
  <speed>0.24</speed>
  <fix>3d</fix>
</trkpt>
<trkpt lat="40.0738353" lon="-105.2301697">
  <ele>1589.08</ele>
  <time>2026-08-27T18:26:47Z</time>
  <course>12.97</course>
  <speed>0.22022715545545238</speed>
  <fix>3d</fix>
</trkpt>
<trkpt lat="40.0738355" lon="-105.2301699">
  <ele>1590.71</ele>
  <time>2026-08-27T18:26:47Z</time>
  <course>142.19</course>
  <speed>0.24</speed>
  <fix>3d</fix>
</trkpt>
<trkpt lat="40.073835" lon="-105.2301694">
  <ele>1587.84</ele>
  <time>2026-08-27T18:26:47Z</time>
  <course>12.95</course>
  <speed>0.22022715545545238</speed>
  <fix>3d</fix>
</trkpt>
<trkpt lat="40.0738351" lon="-105.2301696">
  <ele>1589.48</ele>
  <time>2026-08-27T18:26:47Z</time>
  <course>142.34</course>
  <speed>0.24</speed>
  <fix>3d</fix>
</trkpt>
<trkpt lat="40.0738346" lon="-105.230169">
  <ele>1586.61</ele>
  <time>2026-08-27T18:26:47Z</time>
  <course>12.92</course>
  <speed>0.22803508501982758</speed>
  <fix>3d</fix>
</trkpt>
<trkpt lat="40.0738348" lon="-105.2301693">
  <ele>1588.26</ele>
  <time>2026-08-27T18:26:48Z</time>
  <course>142.49</course>
  <speed>0.25</speed>
  <fix>3d</fix>
</trkpt>
<trkpt lat="40.0738342" lon="-105.2301687">
  <ele>1585.38</ele>
  <time>2026-08-27T18:26:48Z</time>
  <course>12.89</course>
  <speed>0.22803508501982758</speed>
  <fix>3d</fix>
</trkpt>
<trkpt lat="40.0738344" lon="-105.2301689">
  <ele>1587.03</ele>
  <time>2026-08-27T18:26:48Z</time>
  <course>142.66</course>
  <speed>0.25</speed>
  <fix>3d</fix>
</trkpt>
<trkpt lat="40.0738339" lon="-105.2301683">
  <ele>1584.15</ele>
  <time>2026-08-27T18:26:48Z</time>
  <course>12.87</course>
  <speed>0.22803508501982758</speed>
  <fix>3d</fix>
</trkpt>
<trkpt lat="40.0738341" lon="-105.2301685">
  <ele>1585.8</ele>
  <time>2026-08-27T18:26:48Z</time>
  <course>142.84</course>
  <speed>0.25</speed>
  <fix>3d</fix>
</trkpt>
<trkpt lat="40.0738336" lon="-105.230168">
  <ele>1583.07</ele>
  <time>2026-08-27T18:26:48Z</time>
  <course>12.85</course>
  <speed>0.0282842712474619</speed>
  <fix>3d</fix>
</trkpt>
<trkpt lat="40.0738336" lon="-105.2301682">
  <ele>1584.57</ele>
  <time>2026-08-27T18:26:48Z</time>
  <course>143.0</course>
  <speed>0.25</speed>
  <fix>3d</fix>
</trkpt>
<trkpt lat="40.0738337" lon="-105.2301681">
  <ele>1583.21</ele>
  <time>2026-08-27T18:26:48Z</time>
  <course>12.91</course>
  <speed>0.12083045973594572</speed>
  <fix>3d</fix>
</trkpt>
<trkpt lat="40.0738334" lon="-105.2301679">
  <ele>1583.59</ele>
  <time>2026-08-27T18:26:48Z</time>
  <course>145.69</course>
  <speed>0.11</speed>
  <fix>3d</fix>
</trkpt>
<trkpt lat="40.0738337" lon="-105.2301681">
  <ele>1583.38</ele>
  <time>2026-08-27T18:26:48Z</time>
  <course>12.94</course>
  <speed>0.04</speed>
  <fix>3d</fix>
</trkpt>
<trkpt lat="40.0738333" lon="-105.2301678">
  <ele>1583.38</ele>
  <time>2026-08-27T18:26:48Z</time>
  <course>319.23</course>
  <speed>0.04</speed>
  <fix>3d</fix>
</trkpt>
<trkpt lat="40.0738336" lon="-105.230168">
  <ele>1583.33</ele>
  <time>2026-08-27T18:26:48Z</time>
  <course>12.95</course>
  <speed>0.02</speed>
  <fix>3d</fix>
</trkpt>
<trkpt lat="40.0738334" lon="-105.2301679">
  <ele>1583.57</ele>
  <time>2026-08-27T18:26:48Z</time>
  <course>334.73</course>
  <speed>0.02</speed>
  <fix>3d</fix>
</trkpt>
<trkpt lat="40.0738336" lon="-105.230168">
  <ele>1583.33</ele>
  <time>2026-08-27T18:26:48Z</time>
  <course>12.96</course>
  <speed>0.03</speed>
  <fix>3d</fix>
</trkpt>
<trkpt lat="40.0738334" lon="-105.2301679">
  <ele>1583.58</ele>
  <time>2026-08-27T18:26:48Z</time>
  <course>130.62</course>
  <speed>0.0</speed>
  <fix>3d</fix>
</trkpt>
<trkpt lat="40.0738336" lon="-105.230168">
  <ele>1583.35</ele>
  <time>2026-08-27T18:26:48Z</time>
  <course>12.97</course>
  <speed>0.02</speed>
  <fix>3d</fix>
</trkpt>
<trkpt lat="40.0738334" lon="-105.2301679">
  <ele>1583.55</ele>
  <time>2026-08-27T18:26:48Z</time>
  <course>126.33</course>
  <speed>0.0</speed>
  <fix>3d</fix>
</trkpt>
<trkpt lat="40.0738336" lon="-105.230168">
  <ele>1583.38</ele>
  <time>2026-08-27T18:26:48Z</time>
  <course>12.96</course>
  <speed>0.02</speed>
  <fix>3d</fix>
</trkpt>
<trkpt lat="40.0738334" lon="-105.2301679">
  <ele>1583.55</ele>
  <time>2026-08-27T18:26:48Z</time>
  <course>85.91</course>
  <speed>0.0</speed>
  <fix>3d</fix>
</trkpt>
<trkpt lat="40.0738336" lon="-105.230168">
  <ele>1583.39</ele>
  <time>2026-08-27T18:26:48Z</time>
  <course>12.95</course>
  <speed>0.02</speed>
  <fix>3d</fix>
</trkpt>
<trkpt lat="40.0738334" lon="-105.2301679">
  <ele>1583.56</ele>
  <time>2026-08-27T18:26:48Z</time>
  <course>98.06</course>
  <speed>0.0</speed>
  <fix>3d</fix>
</trkpt>
<trkpt lat="40.0738336" lon="-105.230168">
  <ele>1583.41</ele>
  <time>2026-08-27T18:26:48Z</time>
  <course>12.93</course>
  <speed>0.022360679774997897</speed>
  <fix>3d</fix>
</trkpt>
<trkpt lat="40.0738334" lon="-105.2301679">
  <ele>1583.56</ele>
  <time>2026-08-27T18:26:48Z</time>
  <course>94.27</course>
  <speed>0.0</speed>
  <fix>3d</fix>
</trkpt>
<trkpt lat="40.0738336" lon="-105.230168">
  <ele>1583.43</ele>
  <time>2026-08-27T18:26:48Z</time>
  <course>12.91</course>
  <speed>0.01414213562373095</speed>
  <fix>3d</fix>
</trkpt>
<trkpt lat="40.0738334" lon="-105.2301679">
  <ele>1583.56</ele>
  <time>2026-08-27T18:26:48Z</time>
  <course>336.9</course>
  <speed>0.0</speed>
  <fix>3d</fix>
</trkpt>
<trkpt lat="40.0738336" lon="-105.230168">
  <ele>1583.44</ele>
  <time>2026-08-27T18:26:48Z</time>
  <course>12.9</course>
  <speed>0.01414213562373095</speed>
  <fix>3d</fix>
</trkpt>
<trkpt lat="40.0738334" lon="-105.2301679">
  <ele>1583.56</ele>
  <time>2026-08-27T18:26:48Z</time>
  <course>47.43</course>
  <speed>0.0</speed>
  <fix>3d</fix>
</trkpt>
<trkpt lat="40.0738336" lon="-105.230168">
  <ele>1583.45</ele>
  <time>2026-08-27T18:26:48Z</time>
  <course>12.89</course>
  <speed>0.01414213562373095</speed>
  <fix>3d</fix>
</trkpt>
<trkpt lat="40.0738334" lon="-105.2301679">
  <ele>1583.56</ele>
  <time>2026-08-27T18:26:48Z</time>
  <course>314.58</course>
  <speed>0.0</speed>
  <fix>3d</fix>
</trkpt>
<trkpt lat="40.0738336" lon="-105.230168">
  <ele>1583.46</ele>
  <time>2026-08-27T18:26:48Z</time>
  <course>12.87</course>
  <speed>0.01414213562373095</speed>
  <fix>3d</fix>
</trkpt>
<trkpt lat="40.0738334" lon="-105.2301679">
  <ele>1583.56</ele>
  <time>2026-08-27T18:26:48Z</time>
  <course>255.84</course>
  <speed>0.0</speed>
  <fix>3d</fix>
</trkpt>
<trkpt lat="40.0738336" lon="-105.230168">
  <ele>1583.46</ele>
  <time>2026-08-27T18:26:48Z</time>
  <course>12.86</course>
  <speed>0.01414213562373095</speed>
  <fix>3d</fix>
</trkpt>
<trkpt lat="40.0738334" lon="-105.2301679">
  <ele>1583.56</ele>
  <time>2026-08-27T18:26:48Z</time>
  <course>243.4</course>
  <speed>0.0</speed>
  <fix>3d</fix>
</trkpt>
<trkpt lat="40.0738336" lon="-105.230168">
  <ele>1583.47</ele>
  <time>2026-08-27T18:26:48Z</time>
  <course>12.85</course>
  <speed>0.01414213562373095</speed>
  <fix>3d</fix>
</trkpt>
<trkpt lat="40.0738334" lon="-105.2301679">
  <ele>1583.56</ele>
  <time>2026-08-27T18:26:48Z</time>
  <course>240.16</course>
  <speed>0.0</speed>
  <fix>3d</fix>
</trkpt>
<trkpt lat="40.0738336" lon="-105.230168">
  <ele>1583.47</ele>
  <time>2026-08-27T18:26:48Z</time>
  <course>12.84</course>
  <speed>0.01414213562373095</speed>
  <fix>3d</fix>
</trkpt>
<trkpt lat="40.0738334" lon="-105.2301679">
  <ele>1583.56</ele>
  <time>2026-08-27T18:26:48Z</time>
  <course>243.22</course>
  <speed>0.0</speed>
  <fix>3d</fix>
</trkpt>
<trkpt lat="40.0738336" lon="-105.230168">
  <ele>1583.48</ele>
  <time>2026-08-27T18:26:48Z</time>
  <course>12.83</course>
  <speed>0.01414213562373095</speed>
  <fix>3d</fix>
</trkpt>
<trkpt lat="40.0738334" lon="-105.2301679">
  <ele>1583.56</ele>
  <time>2026-08-27T18:26:48Z</time>
  <course>234.62</course>
  <speed>0.0</speed>
  <fix>3d</fix>
</trkpt>
<trkpt lat="40.0738336" lon="-105.230168">
  <ele>1583.48</ele>
  <time>2026-08-27T18:26:48Z</time>
  <course>12.82</course>
  <speed>0.01414213562373095</speed>
  <fix>3d</fix>
</trkpt>
<trkpt lat="40.0738334" lon="-105.2301679">
  <ele>1583.56</ele>
  <time>2026-08-27T18:26:48Z</time>
  <course>154.78</course>
  <speed>0.0</speed>
  <fix>3d</fix>
</trkpt>
<trkpt lat="40.0738336" lon="-105.230168">
  <ele>1583.49</ele>
  <time>2026-08-27T18:26:48Z</time>
  <course>12.81</course>
  <speed>0.01414213562373095</speed>
  <fix>3d</fix>
</trkpt>
<trkpt lat="40.0738334" lon="-105.2301679">
  <ele>1583.56</ele>
  <time>2026-08-27T18:26:48Z</time>
  <course>85.17</course>
  <speed>0.0</speed>
  <fix>3d</fix>
</trkpt>
<trkpt lat="40.0738336" lon="-105.230168">
  <ele>1583.49</ele>
  <time>2026-08-27T18:26:48Z</time>
  <course>12.8</course>
  <speed>0.01414213562373095</speed>
  <fix>3d</fix>
</trkpt>
<trkpt lat="40.0738334" lon="-105.2301679">
  <ele>1583.56</ele>
  <time>2026-08-27T18:26:48Z</time>
  <course>39.68</course>
  <speed>0.0</speed>
  <fix>3d</fix>
</trkpt>
<trkpt lat="40.0738336" lon="-105.230168">
  <ele>1583.5</ele>
  <time>2026-08-27T18:26:48Z</time>
  <course>12.79</course>
  <speed>0.01414213562373095</speed>
  <fix>3d</fix>
</trkpt>
<trkpt lat="40.0738334" lon="-105.2301679">
  <ele>1583.56</ele>
  <time>2026-08-27T18:26:48Z</time>
  <course>223.46</course>
  <speed>0.0</speed>
  <fix>3d</fix>
</trkpt>
<trkpt lat="40.0738336" lon="-105.230168">
  <ele>1583.5</ele>
  <time>2026-08-27T18:26:48Z</time>
  <course>12.78</course>
  <speed>0.01414213562373095</speed>
  <fix>3d</fix>
</trkpt>
<trkpt lat="40.0738334" lon="-105.2301679">
  <ele>1583.56</ele>
  <time>2026-08-27T18:26:48Z</time>
  <course>193.17</course>
  <speed>0.0</speed>
  <fix>3d</fix>
</trkpt>
<trkpt lat="40.0738335" lon="-105.230168">
  <ele>1583.5</ele>
  <time>2026-08-27T18:26:48Z</time>
  <course>12.77</course>
  <speed>0.01414213562373095</speed>
  <fix>3d</fix>
</trkpt>
<trkpt lat="40.0738334" lon="-105.2301679">
  <ele>1583.56</ele>
  <time>2026-08-27T18:26:48Z</time>
  <course>114.37</course>
  <speed>0.0</speed>
  <fix>3d</fix>
</trkpt>
<trkpt lat="40.0738335" lon="-105.230168">
  <ele>1583.51</ele>
  <time>2026-08-27T18:26:48Z</time>
  <course>12.76</course>
  <speed>0.01414213562373095</speed>
  <fix>3d</fix>
</trkpt>
<trkpt lat="40.0738334" lon="-105.2301679">
  <ele>1583.56</ele>
  <time>2026-08-27T18:26:48Z</time>
  <course>113.75</course>
  <speed>0.0</speed>
  <fix>3d</fix>
</trkpt>
<trkpt lat="40.0738335" lon="-105.230168">
  <ele>1583.51</ele>
  <time>2026-08-27T18:26:48Z</time>
  <course>12.75</course>
  <speed>0.01414213562373095</speed>
  <fix>3d</fix>
</trkpt>
<trkpt lat="40.0738334" lon="-105.2301679">
  <ele>1583.56</ele>
  <time>2026-08-27T18:26:48Z</time>
  <course>83.44</course>
  <speed>0.0</speed>
  <fix>3d</fix>
</trkpt>
<trkpt lat="40.0738335" lon="-105.230168">
  <ele>1583.51</ele>
  <time>2026-08-27T18:26:48Z</time>
  <course>12.74</course>
  <speed>0.01414213562373095</speed>
  <fix>3d</fix>
</trkpt>
<trkpt lat="40.0738334" lon="-105.2301679">
  <ele>1583.56</ele>
  <time>2026-08-27T18:26:48Z</time>
  <course>64.57</course>
  <speed>0.0</speed>
  <fix>3d</fix>
</trkpt>
<trkpt lat="40.0738335" lon="-105.230168">
  <ele>1583.51</ele>
  <time>2026-08-27T18:26:48Z</time>
  <course>12.73</course>
  <speed>0.01414213562373095</speed>
  <fix>3d</fix>
</trkpt>
<trkpt lat="40.0738334" lon="-105.2301679">
  <ele>1583.56</ele>
  <time>2026-08-27T18:26:48Z</time>
  <course>68.87</course>
  <speed>0.0</speed>
  <fix>3d</fix>
</trkpt>
<trkpt lat="40.0738335" lon="-105.230168">
  <ele>1583.52</ele>
  <time>2026-08-27T18:26:48Z</time>
  <course>12.72</course>
  <speed>0.01414213562373095</speed>
  <fix>3d</fix>
</trkpt>
<trkpt lat="40.0738334" lon="-105.2301679">
  <ele>1583.56</ele>
  <time>2026-08-27T18:26:48Z</time>
  <course>124.48</course>
  <speed>0.0</speed>
  <fix>3d</fix>
</trkpt>
<trkpt lat="40.0738335" lon="-105.230168">
  <ele>1583.52</ele>
  <time>2026-08-27T18:26:48Z</time>
  <course>12.71</course>
  <speed>0.01414213562373095</speed>
  <fix>3d</fix>
</trkpt>
<trkpt lat="40.0738334" lon="-105.2301679">
  <ele>1583.56</ele>
  <time>2026-08-27T18:26:48Z</time>
  <course>121.22</course>
  <speed>0.0</speed>
  <fix>3d</fix>
</trkpt>
<trkpt lat="40.0738335" lon="-105.230168">
  <ele>1583.52</ele>
  <time>2026-08-27T18:26:48Z</time>
  <course>12.7</course>
  <speed>0.01414213562373095</speed>
  <fix>3d</fix>
</trkpt>
<trkpt lat="40.0738334" lon="-105.2301679">
  <ele>1583.56</ele>
  <time>2026-08-27T18:26:48Z</time>
  <course>75.86</course>
  <speed>0.0</speed>
  <fix>3d</fix>
</trkpt>
<trkpt lat="40.0738335" lon="-105.230168">
  <ele>1583.53</ele>
  <time>2026-08-27T18:26:48Z</time>
  <course>12.69</course>
  <speed>0.01414213562373095</speed>
  <fix>3d</fix>
</trkpt>
<trkpt lat="40.0738334" lon="-105.2301679">
  <ele>1583.56</ele>
  <time>2026-08-27T18:26:48Z</time>
  <course>59.48</course>
  <speed>0.0</speed>
  <fix>3d</fix>
</trkpt>
<trkpt lat="40.0738335" lon="-105.230168">
  <ele>1583.53</ele>
  <time>2026-08-27T18:26:48Z</time>
  <course>12.68</course>
  <speed>0.01414213562373095</speed>
  <fix>3d</fix>
</trkpt>
<trkpt lat="40.0738334" lon="-105.2301679">
  <ele>1583.56</ele>
  <time>2026-08-27T18:26:48Z</time>
  <course>71.39</course>
  <speed>0.0</speed>
  <fix>3d</fix>
</trkpt>
<trkpt lat="40.0738335" lon="-105.230168">
  <ele>1583.54</ele>
  <time>2026-08-27T18:26:48Z</time>
  <course>12.67</course>
  <speed>0.01414213562373095</speed>
  <fix>3d</fix>
</trkpt>
<trkpt lat="40.0738334" lon="-105.2301679">
  <ele>1583.56</ele>
  <time>2026-08-27T18:26:48Z</time>
  <course>112.23</course>
  <speed>0.0</speed>
  <fix>3d</fix>
</trkpt>
<trkpt lat="40.0738336" lon="-105.230168">
  <ele>1583.54</ele>
  <time>2026-08-27T18:26:48Z</time>
  <course>12.66</course>
  <speed>0.01414213562373095</speed>
  <fix>3d</fix>
</trkpt>
<trkpt lat="40.0738334" lon="-105.2301679">
  <ele>1583.56</ele>
  <time>2026-08-27T18:26:48Z</time>
  <course>131.47</course>
  <speed>0.0</speed>
  <fix>3d</fix>
</trkpt>
<trkpt lat="40.0738336" lon="-105.230168">
  <ele>1583.54</ele>
  <time>2026-08-27T18:26:48Z</time>
  <course>12.65</course>
  <speed>0.01414213562373095</speed>
  <fix>3d</fix>
</trkpt>
<trkpt lat="40.0738334" lon="-105.2301679">
  <ele>1583.56</ele>
  <time>2026-08-27T18:26:48Z</time>
  <course>122.3</course>
  <speed>0.0</speed>
  <fix>3d</fix>
</trkpt>
<trkpt lat="40.0738336" lon="-105.230168">
  <ele>1583.54</ele>
  <time>2026-08-27T18:26:48Z</time>
  <course>12.65</course>
  <speed>0.01414213562373095</speed>
  <fix>3d</fix>
</trkpt>
<trkpt lat="40.0738334" lon="-105.2301679">
  <ele>1583.56</ele>
  <time>2026-08-27T18:26:48Z</time>
  <course>68.29</course>
  <speed>0.0</speed>
  <fix>3d</fix>
</trkpt>
<trkpt lat="40.0738336" lon="-105.230168">
  <ele>1583.54</ele>
  <time>2026-08-27T18:26:48Z</time>
  <course>12.64</course>
  <speed>0.01414213562373095</speed>
  <fix>3d</fix>
</trkpt>
<trkpt lat="40.0738334" lon="-105.2301679">
  <ele>1583.56</ele>
  <time>2026-08-27T18:26:48Z</time>
  <course>77.88</course>
  <speed>0.0</speed>
  <fix>3d</fix>
</trkpt>
<trkpt lat="40.0738336" lon="-105.230168">
  <ele>1583.54</ele>
  <time>2026-08-27T18:26:48Z</time>
  <course>12.63</course>
  <speed>0.01414213562373095</speed>
  <fix>3d</fix>
</trkpt>
<trkpt lat="40.0738334" lon="-105.2301679">
  <ele>1583.56</ele>
  <time>2026-08-27T18:26:48Z</time>
  <course>123.97</course>
  <speed>0.0</speed>
  <fix>3d</fix>
</trkpt>
<trkpt lat="40.0738336" lon="-105.230168">
  <ele>1583.55</ele>
  <time>2026-08-27T18:26:48Z</time>
  <course>12.62</course>
  <speed>0.01414213562373095</speed>
  <fix>3d</fix>
</trkpt>
<trkpt lat="40.0738334" lon="-105.2301679">
  <ele>1583.56</ele>
  <time>2026-08-27T18:26:48Z</time>
  <course>121.03</course>
  <speed>0.0</speed>
  <fix>3d</fix>
</trkpt>
<trkpt lat="40.0738336" lon="-105.230168">
  <ele>1583.55</ele>
  <time>2026-08-27T18:26:48Z</time>
  <course>12.61</course>
  <speed>0.01414213562373095</speed>
  <fix>3d</fix>
</trkpt>
<trkpt lat="40.0738334" lon="-105.2301679">
  <ele>1583.56</ele>
  <time>2026-08-27T18:26:48Z</time>
  <course>78.81</course>
  <speed>0.0</speed>
  <fix>3d</fix>
</trkpt>
<trkpt lat="40.0738336" lon="-105.230168">
  <ele>1583.56</ele>
  <time>2026-08-27T18:26:48Z</time>
  <course>12.6</course>
  <speed>0.01414213562373095</speed>
  <fix>3d</fix>
</trkpt>
<trkpt lat="40.0738334" lon="-105.2301679">
  <ele>1583.56</ele>
  <time>2026-08-27T18:26:48Z</time>
  <course>89.29</course>
  <speed>0.0</speed>
  <fix>3d</fix>
</trkpt>
<trkpt lat="40.0738336" lon="-105.230168">
  <ele>1583.56</ele>
  <time>2026-08-27T18:26:48Z</time>
  <course>12.59</course>
  <speed>0.01414213562373095</speed>
  <fix>3d</fix>
</trkpt>
<trkpt lat="40.0738334" lon="-105.2301679">
  <ele>1583.56</ele>
  <time>2026-08-27T18:26:48Z</time>
  <course>89.49</course>
  <speed>0.0</speed>
  <fix>3d</fix>
</trkpt>
<trkpt lat="40.0738336" lon="-105.230168">
  <ele>1583.57</ele>
  <time>2026-08-27T18:26:48Z</time>
  <course>12.58</course>
  <speed>0.01414213562373095</speed>
  <fix>3d</fix>
</trkpt>
<trkpt lat="40.0738334" lon="-105.2301679">
  <ele>1583.56</ele>
  <time>2026-08-27T18:26:48Z</time>
  <course>117.06</course>
  <speed>0.0</speed>
  <fix>3d</fix>
</trkpt>
<trkpt lat="40.0738336" lon="-105.230168">
  <ele>1583.57</ele>
  <time>2026-08-27T18:26:48Z</time>
  <course>12.58</course>
  <speed>0.01414213562373095</speed>
  <fix>3d</fix>
</trkpt>
<trkpt lat="40.0738334" lon="-105.2301679">
  <ele>1583.56</ele>
  <time>2026-08-27T18:26:48Z</time>
  <course>118.92</course>
  <speed>0.0</speed>
  <fix>3d</fix>
</trkpt>
<trkpt lat="40.0738336" lon="-105.230168">
  <ele>1583.58</ele>
  <time>2026-08-27T18:26:48Z</time>
  <course>12.57</course>
  <speed>0.01414213562373095</speed>
  <fix>3d</fix>
</trkpt>
<trkpt lat="40.0738334" lon="-105.2301679">
  <ele>1583.56</ele>
  <time>2026-08-27T18:26:48Z</time>
  <course>80.36</course>
  <speed>0.0</speed>
  <fix>3d</fix>
</trkpt>
<trkpt lat="40.0738336" lon="-105.230168">
  <ele>1583.58</ele>
  <time>2026-08-27T18:26:48Z</time>
  <course>12.56</course>
  <speed>0.01414213562373095</speed>
  <fix>3d</fix>
</trkpt>
<trkpt lat="40.0738334" lon="-105.2301679">
  <ele>1583.56</ele>
  <time>2026-08-27T18:26:48Z</time>
  <course>133.29</course>
  <speed>0.0</speed>
  <fix>3d</fix>
</trkpt>
<trkpt lat="40.0738336" lon="-105.230168">
  <ele>1583.58</ele>
  <time>2026-08-27T18:26:48Z</time>
  <course>12.55</course>
  <speed>0.01414213562373095</speed>
  <fix>3d</fix>
</trkpt>
<trkpt lat="40.0738334" lon="-105.2301679">
  <ele>1583.56</ele>
  <time>2026-08-27T18:26:48Z</time>
  <course>118.97</course>
  <speed>0.0</speed>
  <fix>3d</fix>
</trkpt>
<trkpt lat="40.0738336" lon="-105.230168">
  <ele>1583.59</ele>
  <time>2026-08-27T18:26:48Z</time>
  <course>12.54</course>
  <speed>0.01414213562373095</speed>
  <fix>3d</fix>
</trkpt>
<trkpt lat="40.0738334" lon="-105.2301679">
  <ele>1583.56</ele>
  <time>2026-08-27T18:26:48Z</time>
  <course>110.26</course>
  <speed>0.0</speed>
  <fix>3d</fix>
</trkpt>
<trkpt lat="40.0738336" lon="-105.230168">
  <ele>1583.59</ele>
  <time>2026-08-27T18:26:48Z</time>
  <course>12.54</course>
  <speed>0.01414213562373095</speed>
  <fix>3d</fix>
</trkpt>
<trkpt lat="40.0738334" lon="-105.2301679">
  <ele>1583.56</ele>
  <time>2026-08-27T18:26:48Z</time>
  <course>113.8</course>
  <speed>0.0</speed>
  <fix>3d</fix>
</trkpt>
<trkpt lat="40.0738335" lon="-105.230168">
  <ele>1583.59</ele>
  <time>2026-08-27T18:26:48Z</time>
  <course>12.53</course>
  <speed>0.01414213562373095</speed>
  <fix>3d</fix>
</trkpt>
<trkpt lat="40.0738334" lon="-105.2301679">
  <ele>1583.56</ele>
  <time>2026-08-27T18:26:48Z</time>
  <course>90.05</course>
  <speed>0.0</speed>
  <fix>3d</fix>
</trkpt>
<trkpt lat="40.0738335" lon="-105.230168">
  <ele>1583.59</ele>
  <time>2026-08-27T18:26:48Z</time>
  <course>12.52</course>
  <speed>0.01414213562373095</speed>
  <fix>3d</fix>
</trkpt>
<trkpt lat="40.0738334" lon="-105.2301679">
  <ele>1583.56</ele>
  <time>2026-08-27T18:26:48Z</time>
  <course>77.48</course>
  <speed>0.0</speed>
  <fix>3d</fix>
</trkpt>
<trkpt lat="40.0738335" lon="-105.230168">
  <ele>1583.59</ele>
  <time>2026-08-27T18:26:48Z</time>
  <course>12.51</course>
  <speed>0.01414213562373095</speed>
  <fix>3d</fix>
</trkpt>
<trkpt lat="40.0738334" lon="-105.2301679">
  <ele>1583.56</ele>
  <time>2026-08-27T18:26:48Z</time>
  <course>102.66</course>
  <speed>0.0</speed>
  <fix>3d</fix>
</trkpt>
<trkpt lat="40.0738335" lon="-105.230168">
  <ele>1583.59</ele>
  <time>2026-08-27T18:26:48Z</time>
  <course>12.5</course>
  <speed>0.01414213562373095</speed>
  <fix>3d</fix>
</trkpt>
<trkpt lat="40.0738334" lon="-105.2301679">
  <ele>1583.56</ele>
  <time>2026-08-27T18:26:48Z</time>
  <course>119.38</course>
  <speed>0.0</speed>
  <fix>3d</fix>
</trkpt>
<trkpt lat="40.0738335" lon="-105.230168">
  <ele>1583.59</ele>
  <time>2026-08-27T18:26:48Z</time>
  <course>12.49</course>
  <speed>0.01414213562373095</speed>
  <fix>3d</fix>
</trkpt>
<trkpt lat="40.0738334" lon="-105.2301679">
  <ele>1583.56</ele>
  <time>2026-08-27T18:26:48Z</time>
  <course>104.71</course>
  <speed>0.0</speed>
  <fix>3d</fix>
</trkpt>
<trkpt lat="40.0738335" lon="-105.230168">
  <ele>1583.59</ele>
  <time>2026-08-27T18:26:48Z</time>
  <course>12.48</course>
  <speed>0.01414213562373095</speed>
  <fix>3d</fix>
</trkpt>
<trkpt lat="40.0738334" lon="-105.2301679">
  <ele>1583.56</ele>
  <time>2026-08-27T18:26:48Z</time>
  <course>76.01</course>
  <speed>0.0</speed>
  <fix>3d</fix>
</trkpt>
<trkpt lat="40.0738335" lon="-105.230168">
  <ele>1583.6</ele>
  <time>2026-08-27T18:26:48Z</time>
  <course>12.48</course>
  <speed>0.01414213562373095</speed>
  <fix>3d</fix>
</trkpt>
<trkpt lat="40.0738334" lon="-105.2301679">
  <ele>1583.56</ele>
  <time>2026-08-27T18:26:48Z</time>
  <course>86.48</course>
  <speed>0.0</speed>
  <fix>3d</fix>
</trkpt>
<trkpt lat="40.0738335" lon="-105.230168">
  <ele>1583.6</ele>
  <time>2026-08-27T18:26:48Z</time>
  <course>12.47</course>
  <speed>0.01414213562373095</speed>
  <fix>3d</fix>
</trkpt>
<trkpt lat="40.0738334" lon="-105.2301679">
  <ele>1583.56</ele>
  <time>2026-08-27T18:26:48Z</time>
  <course>152.82</course>
  <speed>0.0</speed>
  <fix>3d</fix>
</trkpt>
<trkpt lat="40.0738335" lon="-105.230168">
  <ele>1583.6</ele>
  <time>2026-08-27T18:26:48Z</time>
  <course>12.46</course>
  <speed>0.01414213562373095</speed>
  <fix>3d</fix>
</trkpt>
<trkpt lat="40.0738334" lon="-105.2301679">
  <ele>1583.56</ele>
  <time>2026-08-27T18:26:48Z</time>
  <course>139.96</course>
  <speed>0.0</speed>
  <fix>3d</fix>
</trkpt>
<trkpt lat="40.0738335" lon="-105.230168">
  <ele>1583.6</ele>
  <time>2026-08-27T18:26:48Z</time>
  <course>12.45</course>
  <speed>0.01414213562373095</speed>
  <fix>3d</fix>
</trkpt>
<trkpt lat="40.0738334" lon="-105.2301679">
  <ele>1583.56</ele>
  <time>2026-08-27T18:26:48Z</time>
  <course>99.46</course>
  <speed>0.0</speed>
  <fix>3d</fix>
</trkpt>
<trkpt lat="40.0738335" lon="-105.230168">
  <ele>1583.61</ele>
  <time>2026-08-27T18:26:48Z</time>
  <course>12.44</course>
  <speed>0.01414213562373095</speed>
  <fix>3d</fix>
</trkpt>
<trkpt lat="40.0738334" lon="-105.2301679">
  <ele>1583.56</ele>
  <time>2026-08-27T18:26:48Z</time>
  <course>68.35</course>
  <speed>0.0</speed>
  <fix>3d</fix>
</trkpt>
<trkpt lat="40.0738335" lon="-105.230168">
  <ele>1583.61</ele>
  <time>2026-08-27T18:26:48Z</time>
  <course>12.43</course>
  <speed>0.01414213562373095</speed>
  <fix>3d</fix>
</trkpt>
<trkpt lat="40.0738334" lon="-105.2301679">
  <ele>1583.56</ele>
  <time>2026-08-27T18:26:48Z</time>
  <course>92.01</course>
  <speed>0.0</speed>
  <fix>3d</fix>
</trkpt>
<trkpt lat="40.0738335" lon="-105.230168">
  <ele>1583.61</ele>
  <time>2026-08-27T18:26:48Z</time>
  <course>12.43</course>
  <speed>0.01414213562373095</speed>
  <fix>3d</fix>
</trkpt>
<trkpt lat="40.0738334" lon="-105.2301679">
  <ele>1583.56</ele>
  <time>2026-08-27T18:26:48Z</time>
  <course>126.73</course>
  <speed>0.0</speed>
  <fix>3d</fix>
</trkpt>
<trkpt lat="40.0738335" lon="-105.230168">
  <ele>1583.61</ele>
  <time>2026-08-27T18:26:48Z</time>
  <course>12.42</course>
  <speed>0.01414213562373095</speed>
  <fix>3d</fix>
</trkpt>
<trkpt lat="40.0738334" lon="-105.2301679">
  <ele>1583.56</ele>
  <time>2026-08-27T18:26:48Z</time>
  <course>125.9</course>
  <speed>0.0</speed>
  <fix>3d</fix>
</trkpt>
<trkpt lat="40.0738335" lon="-105.230168">
  <ele>1583.62</ele>
  <time>2026-08-27T18:26:48Z</time>
  <course>12.41</course>
  <speed>0.01414213562373095</speed>
  <fix>3d</fix>
</trkpt>
<trkpt lat="40.0738334" lon="-105.2301679">
  <ele>1583.56</ele>
  <time>2026-08-27T18:26:48Z</time>
  <course>94.41</course>
  <speed>0.0</speed>
  <fix>3d</fix>
</trkpt>
<trkpt lat="40.0738335" lon="-105.230168">
  <ele>1583.62</ele>
  <time>2026-08-27T18:26:48Z</time>
  <course>12.4</course>
  <speed>0.01414213562373095</speed>
  <fix>3d</fix>
</trkpt>
<trkpt lat="40.0738334" lon="-105.2301679">
  <ele>1583.56</ele>
  <time>2026-08-27T18:26:48Z</time>
  <course>83.81</course>
  <speed>0.0</speed>
  <fix>3d</fix>
</trkpt>
<trkpt lat="40.0738335" lon="-105.230168">
  <ele>1583.62</ele>
  <time>2026-08-27T18:26:48Z</time>
  <course>12.39</course>
  <speed>0.01414213562373095</speed>
  <fix>3d</fix>
</trkpt>
<trkpt lat="40.0738334" lon="-105.2301679">
  <ele>1583.56</ele>
  <time>2026-08-27T18:26:48Z</time>
  <course>94.24</course>
  <speed>0.0</speed>
  <fix>3d</fix>
</trkpt>
<trkpt lat="40.0738335" lon="-105.230168">
  <ele>1583.62</ele>
  <time>2026-08-27T18:26:48Z</time>
  <course>12.38</course>
  <speed>0.01414213562373095</speed>
  <fix>3d</fix>
</trkpt>
<trkpt lat="40.0738334" lon="-105.2301679">
  <ele>1583.56</ele>
  <time>2026-08-27T18:26:48Z</time>
  <course>114.65</course>
  <speed>0.0</speed>
  <fix>3d</fix>
</trkpt>
<trkpt lat="40.0738335" lon="-105.230168">
  <ele>1583.62</ele>
  <time>2026-08-27T18:26:48Z</time>
  <course>12.38</course>
  <speed>0.01414213562373095</speed>
  <fix>3d</fix>
</trkpt>
<trkpt lat="40.0738334" lon="-105.2301679">
  <ele>1583.56</ele>
  <time>2026-08-27T18:26:48Z</time>
  <course>123.97</course>
  <speed>0.0</speed>
  <fix>3d</fix>
</trkpt>
<trkpt lat="40.0738335" lon="-105.230168">
  <ele>1583.62</ele>
  <time>2026-08-27T18:26:48Z</time>
  <course>12.37</course>
  <speed>0.01414213562373095</speed>
  <fix>3d</fix>
</trkpt>
<trkpt lat="40.0738334" lon="-105.2301679">
  <ele>1583.56</ele>
  <time>2026-08-27T18:26:48Z</time>
  <course>137.26</course>
  <speed>0.0</speed>
  <fix>3d</fix>
</trkpt>
<trkpt lat="40.0738335" lon="-105.230168">
  <ele>1583.62</ele>
  <time>2026-08-27T18:26:48Z</time>
  <course>12.36</course>
  <speed>0.01414213562373095</speed>
  <fix>3d</fix>
</trkpt>
<trkpt lat="40.0738334" lon="-105.2301679">
  <ele>1583.56</ele>
  <time>2026-08-27T18:26:48Z</time>
  <course>137.6</course>
  <speed>0.0</speed>
  <fix>3d</fix>
</trkpt>
<trkpt lat="40.0738335" lon="-105.230168">
  <ele>1583.62</ele>
  <time>2026-08-27T18:26:48Z</time>
  <course>12.35</course>
  <speed>0.01414213562373095</speed>
  <fix>3d</fix>
</trkpt>
<trkpt lat="40.0738334" lon="-105.2301679">
  <ele>1583.56</ele>
  <time>2026-08-27T18:26:48Z</time>
  <course>93.09</course>
  <speed>0.0</speed>
  <fix>3d</fix>
</trkpt>
<trkpt lat="40.0738335" lon="-105.230168">
  <ele>1583.62</ele>
  <time>2026-08-27T18:26:48Z</time>
  <course>12.34</course>
  <speed>0.01414213562373095</speed>
  <fix>3d</fix>
</trkpt>
<trkpt lat="40.0738334" lon="-105.2301679">
  <ele>1583.56</ele>
  <time>2026-08-27T18:26:48Z</time>
  <course>121.72</course>
  <speed>0.0</speed>
  <fix>3d</fix>
</trkpt>
<trkpt lat="40.0738335" lon="-105.230168">
  <ele>1583.62</ele>
  <time>2026-08-27T18:26:48Z</time>
  <course>12.33</course>
  <speed>0.01414213562373095</speed>
  <fix>3d</fix>
</trkpt>
<trkpt lat="40.0738334" lon="-105.2301679">
  <ele>1583.56</ele>
  <time>2026-08-27T18:26:48Z</time>
  <course>122.88</course>
  <speed>0.0</speed>
  <fix>3d</fix>
</trkpt>
<trkpt lat="40.0738335" lon="-105.230168">
  <ele>1583.62</ele>
  <time>2026-08-27T18:26:48Z</time>
  <course>12.33</course>
  <speed>0.01414213562373095</speed>
  <fix>3d</fix>
</trkpt>
<trkpt lat="40.0738334" lon="-105.2301679">
  <ele>1583.56</ele>
  <time>2026-08-27T18:26:48Z</time>
  <course>96.22</course>
  <speed>0.0</speed>
  <fix>3d</fix>
</trkpt>
<trkpt lat="40.0738335" lon="-105.230168">
  <ele>1583.62</ele>
  <time>2026-08-27T18:26:48Z</time>
  <course>12.32</course>
  <speed>0.01414213562373095</speed>
  <fix>3d</fix>
</trkpt>
<trkpt lat="40.0738334" lon="-105.2301679">
  <ele>1583.56</ele>
  <time>2026-08-27T18:26:48Z</time>
  <course>93.51</course>
  <speed>0.0</speed>
  <fix>3d</fix>
</trkpt>
<trkpt lat="40.0738335" lon="-105.230168">
  <ele>1583.62</ele>
  <time>2026-08-27T18:26:48Z</time>
  <course>12.31</course>
  <speed>0.01414213562373095</speed>
  <fix>3d</fix>
</trkpt>
<trkpt lat="40.0738334" lon="-105.2301679">
  <ele>1583.56</ele>
  <time>2026-08-27T18:26:48Z</time>
  <course>91.59</course>
  <speed>0.0</speed>
  <fix>3d</fix>
</trkpt>
<trkpt lat="40.0738335" lon="-105.230168">
  <ele>1583.62</ele>
  <time>2026-08-27T18:26:48Z</time>
  <course>12.3</course>
  <speed>0.01414213562373095</speed>
  <fix>3d</fix>
</trkpt>
<trkpt lat="40.0738334" lon="-105.2301679">
  <ele>1583.56</ele>
  <time>2026-08-27T18:26:48Z</time>
  <course>122.74</course>
  <speed>0.0</speed>
  <fix>3d</fix>
</trkpt>
<trkpt lat="40.0738335" lon="-105.230168">
  <ele>1583.62</ele>
  <time>2026-08-27T18:26:48Z</time>
  <course>12.29</course>
  <speed>0.01414213562373095</speed>
  <fix>3d</fix>
</trkpt>
<trkpt lat="40.0738334" lon="-105.2301679">
  <ele>1583.56</ele>
  <time>2026-08-27T18:26:48Z</time>
  <course>116.69</course>
  <speed>0.0</speed>
  <fix>3d</fix>
</trkpt>
<trkpt lat="40.0738335" lon="-105.230168">
  <ele>1583.62</ele>
  <time>2026-08-27T18:26:48Z</time>
  <course>12.28</course>
  <speed>0.01414213562373095</speed>
  <fix>3d</fix>
</trkpt>
<trkpt lat="40.0738334" lon="-105.2301679">
  <ele>1583.56</ele>
  <time>2026-08-27T18:26:48Z</time>
  <course>88.56</course>
  <speed>0.0</speed>
  <fix>3d</fix>
</trkpt>
<trkpt lat="40.0738335" lon="-105.230168">
  <ele>1583.62</ele>
  <time>2026-08-27T18:26:48Z</time>
  <course>12.28</course>
  <speed>0.01414213562373095</speed>
  <fix>3d</fix>
</trkpt>
<trkpt lat="40.0738334" lon="-105.2301679">
  <ele>1583.56</ele>
  <time>2026-08-27T18:26:48Z</time>
  <course>94.97</course>
  <speed>0.0</speed>
  <fix>3d</fix>
</trkpt>
<trkpt lat="40.0738335" lon="-105.230168">
  <ele>1583.62</ele>
  <time>2026-08-27T18:26:48Z</time>
  <course>12.27</course>
  <speed>0.01414213562373095</speed>
  <fix>3d</fix>
</trkpt>
<trkpt lat="40.0738334" lon="-105.2301679">
  <ele>1583.56</ele>
  <time>2026-08-27T18:26:48Z</time>
  <course>142.45</course>
  <speed>0.0</speed>
  <fix>3d</fix>
</trkpt>
<trkpt lat="40.0738335" lon="-105.230168">
  <ele>1583.62</ele>
  <time>2026-08-27T18:26:48Z</time>
  <course>12.26</course>
  <speed>0.01414213562373095</speed>
  <fix>3d</fix>
</trkpt>
<trkpt lat="40.0738334" lon="-105.2301679">
  <ele>1583.56</ele>
  <time>2026-08-27T18:26:48Z</time>
  <course>134.82</course>
  <speed>0.0</speed>
  <fix>3d</fix>
</trkpt>
<trkpt lat="40.0738335" lon="-105.230168">
  <ele>1583.62</ele>
  <time>2026-08-27T18:26:48Z</time>
  <course>12.25</course>
  <speed>0.01414213562373095</speed>
  <fix>3d</fix>
</trkpt>
<trkpt lat="40.0738334" lon="-105.2301679">
  <ele>1583.56</ele>
  <time>2026-08-27T18:26:48Z</time>
  <course>106.6</course>
  <speed>0.0</speed>
  <fix>3d</fix>
</trkpt>
<trkpt lat="40.0738335" lon="-105.230168">
  <ele>1583.62</ele>
  <time>2026-08-27T18:26:48Z</time>
  <course>12.24</course>
  <speed>0.01414213562373095</speed>
  <fix>3d</fix>
</trkpt>
<trkpt lat="40.0738334" lon="-105.2301679">
  <ele>1583.56</ele>
  <time>2026-08-27T18:26:48Z</time>
  <course>80.55</course>
  <speed>0.0</speed>
  <fix>3d</fix>
</trkpt>
<trkpt lat="40.0738335" lon="-105.230168">
  <ele>1583.62</ele>
  <time>2026-08-27T18:26:48Z</time>
  <course>12.24</course>
  <speed>0.01414213562373095</speed>
  <fix>3d</fix>
</trkpt>
<trkpt lat="40.0738334" lon="-105.2301679">
  <ele>1583.56</ele>
  <time>2026-08-27T18:26:48Z</time>
  <course>100.46</course>
  <speed>0.0</speed>
  <fix>3d</fix>
</trkpt>
<trkpt lat="40.0738335" lon="-105.230168">
  <ele>1583.62</ele>
  <time>2026-08-27T18:26:48Z</time>
  <course>12.23</course>
  <speed>0.01414213562373095</speed>
  <fix>3d</fix>
</trkpt>
<trkpt lat="40.0738334" lon="-105.2301679">
  <ele>1583.56</ele>
  <time>2026-08-27T18:26:48Z</time>
  <course>119.79</course>
  <speed>0.0</speed>
  <fix>3d</fix>
</trkpt>
<trkpt lat="40.0738335" lon="-105.230168">
  <ele>1583.62</ele>
  <time>2026-08-27T18:26:48Z</time>
  <course>12.22</course>
  <speed>0.01414213562373095</speed>
  <fix>3d</fix>
</trkpt>
<trkpt lat="40.0738334" lon="-105.2301679">
  <ele>1583.56</ele>
  <time>2026-08-27T18:26:48Z</time>
  <course>124.58</course>
  <speed>0.0</speed>
  <fix>3d</fix>
</trkpt>
<trkpt lat="40.0738335" lon="-105.230168">
  <ele>1583.62</ele>
  <time>2026-08-27T18:26:48Z</time>
  <course>12.21</course>
  <speed>0.01414213562373095</speed>
  <fix>3d</fix>
</trkpt>
<trkpt lat="40.0738334" lon="-105.2301679">
  <ele>1583.56</ele>
  <time>2026-08-27T18:26:48Z</time>
  <course>108.59</course>
  <speed>0.0</speed>
  <fix>3d</fix>
</trkpt>
<trkpt lat="40.0738335" lon="-105.230168">
  <ele>1583.62</ele>
  <time>2026-08-27T18:26:48Z</time>
  <course>12.2</course>
  <speed>0.01414213562373095</speed>
  <fix>3d</fix>
</trkpt>
<trkpt lat="40.0738334" lon="-105.2301679">
  <ele>1583.56</ele>
  <time>2026-08-27T18:26:48Z</time>
  <course>91.97</course>
  <speed>0.0</speed>
  <fix>3d</fix>
</trkpt>
<trkpt lat="40.0738335" lon="-105.230168">
  <ele>1583.63</ele>
  <time>2026-08-27T18:26:48Z</time>
  <course>12.2</course>
  <speed>0.01414213562373095</speed>
  <fix>3d</fix>
</trkpt>
<trkpt lat="40.0738334" lon="-105.2301679">
  <ele>1583.56</ele>
  <time>2026-08-27T18:26:48Z</time>
  <course>107.45</course>
  <speed>0.0</speed>
  <fix>3d</fix>
</trkpt>
<trkpt lat="40.0738335" lon="-105.230168">
  <ele>1583.63</ele>
  <time>2026-08-27T18:26:48Z</time>
  <course>12.19</course>
  <speed>0.01414213562373095</speed>
  <fix>3d</fix>
</trkpt>
<trkpt lat="40.0738334" lon="-105.2301679">
  <ele>1583.56</ele>
  <time>2026-08-27T18:26:48Z</time>
  <course>114.56</course>
  <speed>0.0</speed>
  <fix>3d</fix>
</trkpt>
<trkpt lat="40.0738335" lon="-105.230168">
  <ele>1583.63</ele>
  <time>2026-08-27T18:26:48Z</time>
  <course>12.18</course>
  <speed>0.01414213562373095</speed>
  <fix>3d</fix>
</trkpt>
<trkpt lat="40.0738334" lon="-105.2301679">
  <ele>1583.56</ele>
  <time>2026-08-27T18:26:48Z</time>
  <course>116.94</course>
  <speed>0.0</speed>
  <fix>3d</fix>
</trkpt>
<trkpt lat="40.0738335" lon="-105.230168">
  <ele>1583.63</ele>
  <time>2026-08-27T18:26:48Z</time>
  <course>12.31</course>
  <speed>0.022360679774997897</speed>
  <fix>3d</fix>
</trkpt>
<trkpt lat="40.0738334" lon="-105.2301679">
  <ele>1583.56</ele>
  <time>2026-08-27T18:26:48Z</time>
  <course>139.85</course>
  <speed>0.0</speed>
  <fix>3d</fix>
</trkpt>
<trkpt lat="40.0738335" lon="-105.230168">
  <ele>1583.63</ele>
  <time>2026-08-27T18:26:48Z</time>
  <course>12.67</course>
  <speed>0.01414213562373095</speed>
  <fix>3d</fix>
</trkpt>
<trkpt lat="40.0738334" lon="-105.2301679">
  <ele>1583.56</ele>
  <time>2026-08-27T18:26:48Z</time>
  <course>279.07</course>
  <speed>0.0</speed>
  <fix>3d</fix>
</trkpt>
<trkpt lat="40.0738335" lon="-105.230168">
  <ele>1583.63</ele>
  <time>2026-08-27T18:26:48Z</time>
  <course>13.02</course>
  <speed>0.01414213562373095</speed>
  <fix>3d</fix>
</trkpt>
<trkpt lat="40.0738334" lon="-105.2301679">
  <ele>1583.56</ele>
  <time>2026-08-27T18:26:48Z</time>
  <course>272.44</course>
  <speed>0.0</speed>
  <fix>3d</fix>
</trkpt>
<trkpt lat="40.0738335" lon="-105.230168">
  <ele>1583.64</ele>
  <time>2026-08-27T18:26:48Z</time>
  <course>13.32</course>
  <speed>0.01414213562373095</speed>
  <fix>3d</fix>
</trkpt>
<trkpt lat="40.0738334" lon="-105.2301679">
  <ele>1583.56</ele>
  <time>2026-08-27T18:26:48Z</time>
  <course>135.05</course>
  <speed>0.0</speed>
  <fix>3d</fix>
</trkpt>
<trkpt lat="40.0738335" lon="-105.230168">
  <ele>1583.64</ele>
  <time>2026-08-27T18:26:48Z</time>
  <course>13.59</course>
  <speed>0.01414213562373095</speed>
  <fix>3d</fix>
</trkpt>
<trkpt lat="40.0738334" lon="-105.2301679">
  <ele>1583.56</ele>
  <time>2026-08-27T18:26:48Z</time>
  <course>82.33</course>
  <speed>0.0</speed>
  <fix>3d</fix>
</trkpt>
<trkpt lat="40.0738335" lon="-105.230168">
  <ele>1583.64</ele>
  <time>2026-08-27T18:26:48Z</time>
  <course>13.85</course>
  <speed>0.01414213562373095</speed>
  <fix>3d</fix>
</trkpt>
<trkpt lat="40.0738334" lon="-105.2301679">
  <ele>1583.56</ele>
  <time>2026-08-27T18:26:48Z</time>
  <course>293.6</course>
  <speed>0.0</speed>
  <fix>3d</fix>
</trkpt>
<trkpt lat="40.0738335" lon="-105.230168">
  <ele>1583.65</ele>
  <time>2026-08-27T18:26:48Z</time>
  <course>14.1</course>
  <speed>0.022360679774997897</speed>
  <fix>3d</fix>
</trkpt>
<trkpt lat="40.0738334" lon="-105.2301679">
  <ele>1583.56</ele>
  <time>2026-08-27T18:26:48Z</time>
  <course>240.56</course>
  <speed>0.0</speed>
  <fix>3d</fix>
</trkpt>
<trkpt lat="40.0738335" lon="-105.230168">
  <ele>1583.66</ele>
  <time>2026-08-27T18:26:48Z</time>
  <course>14.32</course>
  <speed>0.02</speed>
  <fix>3d</fix>
</trkpt>
<trkpt lat="40.0738334" lon="-105.2301679">
  <ele>1583.56</ele>
  <time>2026-08-27T18:26:48Z</time>
  <course>115.88</course>
  <speed>0.0</speed>
  <fix>3d</fix>
</trkpt>
<trkpt lat="40.0738335" lon="-105.230168">
  <ele>1583.66</ele>
  <time>2026-08-27T18:26:48Z</time>
  <course>14.54</course>
  <speed>0.02</speed>
  <fix>3d</fix>
</trkpt>
<trkpt lat="40.0738334" lon="-105.2301679">
  <ele>1583.56</ele>
  <time>2026-08-27T18:26:48Z</time>
  <course>116.31</course>
  <speed>0.0</speed>
  <fix>3d</fix>
</trkpt>
<trkpt lat="40.0738335" lon="-105.230168">
  <ele>1583.66</ele>
  <time>2026-08-27T18:26:48Z</time>
  <course>14.74</course>
  <speed>0.01</speed>
  <fix>3d</fix>
</trkpt>
<trkpt lat="40.0738334" lon="-105.2301679">
  <ele>1583.56</ele>
  <time>2026-08-27T18:26:48Z</time>
  <course>164.25</course>
  <speed>0.0</speed>
  <fix>3d</fix>
</trkpt>
<trkpt lat="40.0738335" lon="-105.230168">
  <ele>1583.67</ele>
  <time>2026-08-27T18:26:48Z</time>
  <course>14.92</course>
  <speed>0.01</speed>
  <fix>3d</fix>
</trkpt>
<trkpt lat="40.0738334" lon="-105.2301679">
  <ele>1583.56</ele>
  <time>2026-08-27T18:26:48Z</time>
  <course>146.11</course>
  <speed>0.0</speed>
  <fix>3d</fix>
</trkpt>
<trkpt lat="40.0738335" lon="-105.230168">
  <ele>1583.67</ele>
  <time>2026-08-27T18:26:48Z</time>
  <course>15.1</course>
  <speed>0.01</speed>
  <fix>3d</fix>
</trkpt>
<trkpt lat="40.0738334" lon="-105.2301679">
  <ele>1583.56</ele>
  <time>2026-08-27T18:26:48Z</time>
  <course>141.78</course>
  <speed>0.0</speed>
  <fix>3d</fix>
</trkpt>
<trkpt lat="40.0738335" lon="-105.230168">
  <ele>1583.67</ele>
  <time>2026-08-27T18:26:48Z</time>
  <course>15.27</course>
  <speed>0.01</speed>
  <fix>3d</fix>
</trkpt>
<trkpt lat="40.0738334" lon="-105.2301679">
  <ele>1583.56</ele>
  <time>2026-08-27T18:26:48Z</time>
  <course>144.06</course>
  <speed>0.0</speed>
  <fix>3d</fix>
</trkpt>
<trkpt lat="40.0738335" lon="-105.230168">
  <ele>1583.67</ele>
  <time>2026-08-27T18:26:48Z</time>
  <course>15.42</course>
  <speed>0.01</speed>
  <fix>3d</fix>
</trkpt>
<trkpt lat="40.0738334" lon="-105.2301679">
  <ele>1583.56</ele>
  <time>2026-08-27T18:26:48Z</time>
  <course>144.37</course>
  <speed>0.0</speed>
  <fix>3d</fix>
</trkpt>
<trkpt lat="40.0738335" lon="-105.230168">
  <ele>1583.67</ele>
  <time>2026-08-27T18:26:48Z</time>
  <course>15.57</course>
  <speed>0.01</speed>
  <fix>3d</fix>
</trkpt>
<trkpt lat="40.0738334" lon="-105.2301679">
  <ele>1583.56</ele>
  <time>2026-08-27T18:26:48Z</time>
  <course>144.02</course>
  <speed>0.0</speed>
  <fix>3d</fix>
</trkpt>
<trkpt lat="40.0738335" lon="-105.230168">
  <ele>1583.66</ele>
  <time>2026-08-27T18:26:48Z</time>
  <course>15.71</course>
  <speed>0.01</speed>
  <fix>3d</fix>
</trkpt>
<trkpt lat="40.0738334" lon="-105.2301679">
  <ele>1583.56</ele>
  <time>2026-08-27T18:26:48Z</time>
  <course>144.02</course>
  <speed>0.0</speed>
  <fix>3d</fix>
</trkpt>
<trkpt lat="40.0738335" lon="-105.230168">
  <ele>1583.66</ele>
  <time>2026-08-27T18:26:48Z</time>
  <course>15.85</course>
  <speed>0.01</speed>
  <fix>3d</fix>
</trkpt>
<trkpt lat="40.0738334" lon="-105.2301679">
  <ele>1583.56</ele>
  <time>2026-08-27T18:26:48Z</time>
  <course>144.07</course>
  <speed>0.0</speed>
  <fix>3d</fix>
</trkpt>
<trkpt lat="40.0738335" lon="-105.230168">
  <ele>1583.66</ele>
  <time>2026-08-27T18:26:48Z</time>
  <course>15.98</course>
  <speed>0.01</speed>
  <fix>3d</fix>
</trkpt>
<trkpt lat="40.0738334" lon="-105.2301679">
  <ele>1583.56</ele>
  <time>2026-08-27T18:26:48Z</time>
  <course>144.06</course>
  <speed>0.0</speed>
  <fix>3d</fix>
</trkpt>
<trkpt lat="40.0738335" lon="-105.230168">
  <ele>1583.66</ele>
  <time>2026-08-27T18:26:48Z</time>
  <course>16.1</course>
  <speed>0.01</speed>
  <fix>3d</fix>
</trkpt>
<trkpt lat="40.0738334" lon="-105.2301679">
  <ele>1583.56</ele>
  <time>2026-08-27T18:26:48Z</time>
  <course>144.05</course>
  <speed>0.0</speed>
  <fix>3d</fix>
</trkpt>
<trkpt lat="40.0738335" lon="-105.230168">
  <ele>1583.66</ele>
  <time>2026-08-27T18:26:48Z</time>
  <course>16.22</course>
  <speed>0.01</speed>
  <fix>3d</fix>
</trkpt>
<trkpt lat="40.0738334" lon="-105.2301679">
  <ele>1583.56</ele>
  <time>2026-08-27T18:26:48Z</time>
  <course>144.06</course>
  <speed>0.0</speed>
  <fix>3d</fix>
</trkpt>
<trkpt lat="40.0738335" lon="-105.230168">
  <ele>1583.65</ele>
  <time>2026-08-27T18:26:48Z</time>
  <course>16.33</course>
  <speed>0.01</speed>
  <fix>3d</fix>
</trkpt>
<trkpt lat="40.0738334" lon="-105.2301679">
  <ele>1583.56</ele>
  <time>2026-08-27T18:26:48Z</time>
  <course>144.06</course>
  <speed>0.0</speed>
  <fix>3d</fix>
</trkpt>
<trkpt lat="40.0738335" lon="-105.230168">
  <ele>1583.65</ele>
  <time>2026-08-27T18:26:48Z</time>
  <course>16.43</course>
  <speed>0.01</speed>
  <fix>3d</fix>
</trkpt>
<trkpt lat="40.0738334" lon="-105.2301679">
  <ele>1583.56</ele>
  <time>2026-08-27T18:26:48Z</time>
  <course>144.06</course>
  <speed>0.0</speed>
  <fix>3d</fix>
</trkpt>
<trkpt lat="40.0738335" lon="-105.230168">
  <ele>1583.64</ele>
  <time>2026-08-27T18:26:48Z</time>
  <course>16.54</course>
  <speed>0.01</speed>
  <fix>3d</fix>
</trkpt>
<trkpt lat="40.0738334" lon="-105.2301679">
  <ele>1583.56</ele>
  <time>2026-08-27T18:26:48Z</time>
  <course>158.74</course>
  <speed>0.0</speed>
  <fix>3d</fix>
</trkpt>
<trkpt lat="40.0738335" lon="-105.230168">
  <ele>1583.64</ele>
  <time>2026-08-27T18:26:48Z</time>
  <course>16.63</course>
  <speed>0.01</speed>
  <fix>3d</fix>
</trkpt>
<trkpt lat="40.0738334" lon="-105.2301679">
  <ele>1583.56</ele>
  <time>2026-08-27T18:26:48Z</time>
  <course>152.91</course>
  <speed>0.0</speed>
  <fix>3d</fix>
</trkpt>
<trkpt lat="40.0738335" lon="-105.230168">
  <ele>1583.64</ele>
  <time>2026-08-27T18:26:48Z</time>
  <course>16.72</course>
  <speed>0.01</speed>
  <fix>3d</fix>
</trkpt>
<trkpt lat="40.0738334" lon="-105.2301679">
  <ele>1583.56</ele>
  <time>2026-08-27T18:26:48Z</time>
  <course>138.55</course>
  <speed>0.0</speed>
  <fix>3d</fix>
</trkpt>
<trkpt lat="40.0738335" lon="-105.230168">
  <ele>1583.64</ele>
  <time>2026-08-27T18:26:48Z</time>
  <course>16.81</course>
  <speed>0.01</speed>
  <fix>3d</fix>
</trkpt>
<trkpt lat="40.0738334" lon="-105.2301679">
  <ele>1583.56</ele>
  <time>2026-08-27T18:26:48Z</time>
  <course>143.6</course>
  <speed>0.0</speed>
  <fix>3d</fix>
</trkpt>
<trkpt lat="40.0738335" lon="-105.230168">
  <ele>1583.64</ele>
  <time>2026-08-27T18:26:49Z</time>
  <course>16.89</course>
  <speed>0.01</speed>
  <fix>3d</fix>
</trkpt>
<trkpt lat="40.0738334" lon="-105.2301679">
  <ele>1583.56</ele>
  <time>2026-08-27T18:26:49Z</time>
  <course>144.94</course>
  <speed>0.0</speed>
  <fix>3d</fix>
</trkpt>
<trkpt lat="40.0738335" lon="-105.230168">
  <ele>1583.64</ele>
  <time>2026-08-27T18:26:49Z</time>
  <course>16.98</course>
  <speed>0.01</speed>
  <fix>3d</fix>
</trkpt>
<trkpt lat="40.0738334" lon="-105.2301679">
  <ele>1583.56</ele>
  <time>2026-08-27T18:26:49Z</time>
  <course>144.01</course>
  <speed>0.0</speed>
  <fix>3d</fix>
</trkpt>
<trkpt lat="40.0738335" lon="-105.230168">
  <ele>1583.64</ele>
  <time>2026-08-27T18:26:49Z</time>
  <course>17.06</course>
  <speed>0.01</speed>
  <fix>3d</fix>
</trkpt>
<trkpt lat="40.0738334" lon="-105.2301679">
  <ele>1583.56</ele>
  <time>2026-08-27T18:26:49Z</time>
  <course>143.94</course>
  <speed>0.0</speed>
  <fix>3d</fix>
</trkpt>
<trkpt lat="40.0738335" lon="-105.230168">
  <ele>1583.63</ele>
  <time>2026-08-27T18:26:49Z</time>
  <course>17.13</course>
  <speed>0.01</speed>
  <fix>3d</fix>
</trkpt>
<trkpt lat="40.0738334" lon="-105.2301679">
  <ele>1583.56</ele>
  <time>2026-08-27T18:26:49Z</time>
  <course>144.08</course>
  <speed>0.0</speed>
  <fix>3d</fix>
</trkpt>
<trkpt lat="40.0738335" lon="-105.230168">
  <ele>1583.63</ele>
  <time>2026-08-27T18:26:49Z</time>
  <course>17.21</course>
  <speed>0.01</speed>
  <fix>3d</fix>
</trkpt>
<trkpt lat="40.0738334" lon="-105.2301679">
  <ele>1583.56</ele>
  <time>2026-08-27T18:26:49Z</time>
  <course>144.07</course>
  <speed>0.0</speed>
  <fix>3d</fix>
</trkpt>
<trkpt lat="40.0738335" lon="-105.230168">
  <ele>1583.63</ele>
  <time>2026-08-27T18:26:49Z</time>
  <course>17.28</course>
  <speed>0.01</speed>
  <fix>3d</fix>
</trkpt>
<trkpt lat="40.0738334" lon="-105.2301679">
  <ele>1583.56</ele>
  <time>2026-08-27T18:26:49Z</time>
  <course>144.05</course>
  <speed>0.0</speed>
  <fix>3d</fix>
</trkpt>
<trkpt lat="40.0738335" lon="-105.230168">
  <ele>1583.63</ele>
  <time>2026-08-27T18:26:49Z</time>
  <course>17.35</course>
  <speed>0.01</speed>
  <fix>3d</fix>
</trkpt>
<trkpt lat="40.0738334" lon="-105.2301679">
  <ele>1583.56</ele>
  <time>2026-08-27T18:26:49Z</time>
  <course>144.05</course>
  <speed>0.0</speed>
  <fix>3d</fix>
</trkpt>
<trkpt lat="40.0738335" lon="-105.230168">
  <ele>1583.63</ele>
  <time>2026-08-27T18:26:49Z</time>
  <course>17.41</course>
  <speed>0.01</speed>
  <fix>3d</fix>
</trkpt>
<trkpt lat="40.0738334" lon="-105.2301679">
  <ele>1583.56</ele>
  <time>2026-08-27T18:26:49Z</time>
  <course>144.06</course>
  <speed>0.0</speed>
  <fix>3d</fix>
</trkpt>
<trkpt lat="40.0738335" lon="-105.230168">
  <ele>1583.63</ele>
  <time>2026-08-27T18:26:49Z</time>
  <course>17.48</course>
  <speed>0.01414213562373095</speed>
  <fix>3d</fix>
</trkpt>
<trkpt lat="40.0738334" lon="-105.2301679">
  <ele>1583.56</ele>
  <time>2026-08-27T18:26:49Z</time>
  <course>144.06</course>
  <speed>0.0</speed>
  <fix>3d</fix>
</trkpt>
<trkpt lat="40.0738335" lon="-105.230168">
  <ele>1583.63</ele>
  <time>2026-08-27T18:26:49Z</time>
  <course>17.54</course>
  <speed>0.01414213562373095</speed>
  <fix>3d</fix>
</trkpt>
<trkpt lat="40.0738334" lon="-105.2301679">
  <ele>1583.56</ele>
  <time>2026-08-27T18:26:49Z</time>
  <course>144.06</course>
  <speed>0.0</speed>
  <fix>3d</fix>
</trkpt>
<trkpt lat="40.0738335" lon="-105.230168">
  <ele>1583.63</ele>
  <time>2026-08-27T18:26:49Z</time>
  <course>17.6</course>
  <speed>0.01414213562373095</speed>
  <fix>3d</fix>
</trkpt>
<trkpt lat="40.0738334" lon="-105.2301679">
  <ele>1583.56</ele>
  <time>2026-08-27T18:26:49Z</time>
  <course>144.06</course>
  <speed>0.0</speed>
  <fix>3d</fix>
</trkpt>
<trkpt lat="40.0738335" lon="-105.230168">
  <ele>1583.63</ele>
  <time>2026-08-27T18:26:49Z</time>
  <course>17.65</course>
  <speed>0.01414213562373095</speed>
  <fix>3d</fix>
</trkpt>
<trkpt lat="40.0738334" lon="-105.2301679">
  <ele>1583.56</ele>
  <time>2026-08-27T18:26:49Z</time>
  <course>144.06</course>
  <speed>0.0</speed>
  <fix>3d</fix>
</trkpt>
<trkpt lat="40.0738335" lon="-105.230168">
  <ele>1583.63</ele>
  <time>2026-08-27T18:26:49Z</time>
  <course>17.71</course>
  <speed>0.01414213562373095</speed>
  <fix>3d</fix>
</trkpt>
<trkpt lat="40.0738334" lon="-105.2301679">
  <ele>1583.56</ele>
  <time>2026-08-27T18:26:49Z</time>
  <course>144.06</course>
  <speed>0.0</speed>
  <fix>3d</fix>
</trkpt>
<trkpt lat="40.0738335" lon="-105.230168">
  <ele>1583.63</ele>
  <time>2026-08-27T18:26:49Z</time>
  <course>17.76</course>
  <speed>0.01414213562373095</speed>
  <fix>3d</fix>
</trkpt>
<trkpt lat="40.0738334" lon="-105.2301679">
  <ele>1583.56</ele>
  <time>2026-08-27T18:26:49Z</time>
  <course>144.06</course>
  <speed>0.0</speed>
  <fix>3d</fix>
</trkpt>
<trkpt lat="40.0738335" lon="-105.230168">
  <ele>1583.63</ele>
  <time>2026-08-27T18:26:49Z</time>
  <course>17.82</course>
  <speed>0.01414213562373095</speed>
  <fix>3d</fix>
</trkpt>
<trkpt lat="40.0738334" lon="-105.2301679">
  <ele>1583.56</ele>
  <time>2026-08-27T18:26:49Z</time>
  <course>144.06</course>
  <speed>0.0</speed>
  <fix>3d</fix>
</trkpt>
<trkpt lat="40.0738335" lon="-105.230168">
  <ele>1583.63</ele>
  <time>2026-08-27T18:26:49Z</time>
  <course>17.87</course>
  <speed>0.01414213562373095</speed>
  <fix>3d</fix>
</trkpt>
<trkpt lat="40.0738334" lon="-105.2301679">
  <ele>1583.56</ele>
  <time>2026-08-27T18:26:49Z</time>
  <course>144.06</course>
  <speed>0.0</speed>
  <fix>3d</fix>
</trkpt>
<trkpt lat="40.0738335" lon="-105.230168">
  <ele>1583.63</ele>
  <time>2026-08-27T18:26:49Z</time>
  <course>17.92</course>
  <speed>0.01414213562373095</speed>
  <fix>3d</fix>
</trkpt>
<trkpt lat="40.0738334" lon="-105.2301679">
  <ele>1583.56</ele>
  <time>2026-08-27T18:26:49Z</time>
  <course>144.06</course>
  <speed>0.0</speed>
  <fix>3d</fix>
</trkpt>
<trkpt lat="40.0738335" lon="-105.230168">
  <ele>1583.63</ele>
  <time>2026-08-27T18:26:49Z</time>
  <course>17.96</course>
  <speed>0.01414213562373095</speed>
  <fix>3d</fix>
</trkpt>
<trkpt lat="40.0738334" lon="-105.2301679">
  <ele>1583.56</ele>
  <time>2026-08-27T18:26:49Z</time>
  <course>144.06</course>
  <speed>0.0</speed>
  <fix>3d</fix>
</trkpt>
<trkpt lat="40.0738335" lon="-105.230168">
  <ele>1583.63</ele>
  <time>2026-08-27T18:26:49Z</time>
  <course>18.01</course>
  <speed>0.01414213562373095</speed>
  <fix>3d</fix>
</trkpt>
<trkpt lat="40.0738334" lon="-105.2301679">
  <ele>1583.56</ele>
  <time>2026-08-27T18:26:49Z</time>
  <course>144.06</course>
  <speed>0.0</speed>
  <fix>3d</fix>
</trkpt>
<trkpt lat="40.0738335" lon="-105.230168">
  <ele>1583.63</ele>
  <time>2026-08-27T18:26:49Z</time>
  <course>18.05</course>
  <speed>0.01414213562373095</speed>
  <fix>3d</fix>
</trkpt>
<trkpt lat="40.0738334" lon="-105.2301679">
  <ele>1583.56</ele>
  <time>2026-08-27T18:26:49Z</time>
  <course>144.06</course>
  <speed>0.0</speed>
  <fix>3d</fix>
</trkpt>
<trkpt lat="40.0738335" lon="-105.230168">
  <ele>1583.62</ele>
  <time>2026-08-27T18:26:49Z</time>
  <course>18.1</course>
  <speed>0.01414213562373095</speed>
  <fix>3d</fix>
</trkpt>
<trkpt lat="40.0738334" lon="-105.2301679">
  <ele>1583.56</ele>
  <time>2026-08-27T18:26:49Z</time>
  <course>144.06</course>
  <speed>0.0</speed>
  <fix>3d</fix>
</trkpt>
<trkpt lat="40.0738335" lon="-105.230168">
  <ele>1583.62</ele>
  <time>2026-08-27T18:26:49Z</time>
  <course>18.14</course>
  <speed>0.01414213562373095</speed>
  <fix>3d</fix>
</trkpt>
<trkpt lat="40.0738334" lon="-105.2301679">
  <ele>1583.56</ele>
  <time>2026-08-27T18:26:49Z</time>
  <course>144.06</course>
  <speed>0.0</speed>
  <fix>3d</fix>
</trkpt>
<trkpt lat="40.0738335" lon="-105.230168">
  <ele>1583.62</ele>
  <time>2026-08-27T18:26:49Z</time>
  <course>18.18</course>
  <speed>0.01414213562373095</speed>
  <fix>3d</fix>
</trkpt>
<trkpt lat="40.0738334" lon="-105.2301679">
  <ele>1583.56</ele>
  <time>2026-08-27T18:26:49Z</time>
  <course>144.05</course>
  <speed>0.0</speed>
  <fix>3d</fix>
</trkpt>
<trkpt lat="40.0738335" lon="-105.230168">
  <ele>1583.62</ele>
  <time>2026-08-27T18:26:49Z</time>
  <course>18.22</course>
  <speed>0.01414213562373095</speed>
  <fix>3d</fix>
</trkpt>
<trkpt lat="40.0738334" lon="-105.2301679">
  <ele>1583.56</ele>
  <time>2026-08-27T18:26:49Z</time>
  <course>143.67</course>
  <speed>0.0</speed>
  <fix>3d</fix>
</trkpt>
<trkpt lat="40.0738335" lon="-105.230168">
  <ele>1583.61</ele>
  <time>2026-08-27T18:26:49Z</time>
  <course>18.25</course>
  <speed>0.01414213562373095</speed>
  <fix>3d</fix>
</trkpt>
<trkpt lat="40.0738334" lon="-105.2301679">
  <ele>1583.56</ele>
  <time>2026-08-27T18:26:49Z</time>
  <course>141.44</course>
  <speed>0.0</speed>
  <fix>3d</fix>
</trkpt>
<trkpt lat="40.0738335" lon="-105.230168">
  <ele>1583.61</ele>
  <time>2026-08-27T18:26:49Z</time>
  <course>18.28</course>
  <speed>0.01414213562373095</speed>
  <fix>3d</fix>
</trkpt>
<trkpt lat="40.0738334" lon="-105.2301679">
  <ele>1583.56</ele>
  <time>2026-08-27T18:26:49Z</time>
  <course>135.08</course>
  <speed>0.0</speed>
  <fix>3d</fix>
</trkpt>
<trkpt lat="40.0738335" lon="-105.230168">
  <ele>1583.62</ele>
  <time>2026-08-27T18:26:49Z</time>
  <course>18.31</course>
  <speed>0.01414213562373095</speed>
  <fix>3d</fix>
</trkpt>
<trkpt lat="40.0738334" lon="-105.2301679">
  <ele>1583.56</ele>
  <time>2026-08-27T18:26:49Z</time>
  <course>126.46</course>
  <speed>0.0</speed>
  <fix>3d</fix>
</trkpt>
<trkpt lat="40.0738335" lon="-105.230168">
  <ele>1583.62</ele>
  <time>2026-08-27T18:26:49Z</time>
  <course>18.34</course>
  <speed>0.01414213562373095</speed>
  <fix>3d</fix>
</trkpt>
<trkpt lat="40.0738334" lon="-105.2301679">
  <ele>1583.56</ele>
  <time>2026-08-27T18:26:49Z</time>
  <course>118.86</course>
  <speed>0.0</speed>
  <fix>3d</fix>
</trkpt>
<trkpt lat="40.0738335" lon="-105.230168">
  <ele>1583.62</ele>
  <time>2026-08-27T18:26:49Z</time>
  <course>18.36</course>
  <speed>0.01414213562373095</speed>
  <fix>3d</fix>
</trkpt>
<trkpt lat="40.0738334" lon="-105.2301679">
  <ele>1583.56</ele>
  <time>2026-08-27T18:26:49Z</time>
  <course>112.34</course>
  <speed>0.0</speed>
  <fix>3d</fix>
</trkpt>
<trkpt lat="40.0738335" lon="-105.230168">
  <ele>1583.62</ele>
  <time>2026-08-27T18:26:49Z</time>
  <course>18.38</course>
  <speed>0.01414213562373095</speed>
  <fix>3d</fix>
</trkpt>
<trkpt lat="40.0738334" lon="-105.2301679">
  <ele>1583.56</ele>
  <time>2026-08-27T18:26:49Z</time>
  <course>108.91</course>
  <speed>0.0</speed>
  <fix>3d</fix>
</trkpt>
<trkpt lat="40.0738335" lon="-105.230168">
  <ele>1583.62</ele>
  <time>2026-08-27T18:26:49Z</time>
  <course>18.4</course>
  <speed>0.022360679774997897</speed>
  <fix>3d</fix>
</trkpt>
<trkpt lat="40.0738334" lon="-105.2301679">
  <ele>1583.56</ele>
  <time>2026-08-27T18:26:49Z</time>
  <course>107.1</course>
  <speed>0.0</speed>
  <fix>3d</fix>
</trkpt>
<trkpt lat="40.0738335" lon="-105.230168">
  <ele>1583.62</ele>
  <time>2026-08-27T18:26:49Z</time>
  <course>18.42</course>
  <speed>0.022360679774997897</speed>
  <fix>3d</fix>
</trkpt>
<trkpt lat="40.0738334" lon="-105.2301679">
  <ele>1583.56</ele>
  <time>2026-08-27T18:26:49Z</time>
  <course>105.78</course>
  <speed>0.0</speed>
  <fix>3d</fix>
</trkpt>
<trkpt lat="40.0738335" lon="-105.230168">
  <ele>1583.62</ele>
  <time>2026-08-27T18:26:49Z</time>
  <course>18.44</course>
  <speed>0.022360679774997897</speed>
  <fix>3d</fix>
</trkpt>
<trkpt lat="40.0738334" lon="-105.2301679">
  <ele>1583.56</ele>
  <time>2026-08-27T18:26:49Z</time>
  <course>104.87</course>
  <speed>0.0</speed>
  <fix>3d</fix>
</trkpt>
<trkpt lat="40.0738335" lon="-105.230168">
  <ele>1583.62</ele>
  <time>2026-08-27T18:26:49Z</time>
  <course>18.45</course>
  <speed>0.022360679774997897</speed>
  <fix>3d</fix>
</trkpt>
<trkpt lat="40.0738334" lon="-105.2301679">
  <ele>1583.56</ele>
  <time>2026-08-27T18:26:49Z</time>
  <course>103.82</course>
  <speed>0.0</speed>
  <fix>3d</fix>
</trkpt>
<trkpt lat="40.0738335" lon="-105.230168">
  <ele>1583.62</ele>
  <time>2026-08-27T18:26:49Z</time>
  <course>18.46</course>
  <speed>0.022360679774997897</speed>
  <fix>3d</fix>
</trkpt>
<trkpt lat="40.0738334" lon="-105.2301679">
  <ele>1583.56</ele>
  <time>2026-08-27T18:26:49Z</time>
  <course>103.38</course>
  <speed>0.0</speed>
  <fix>3d</fix>
</trkpt>
<trkpt lat="40.0738335" lon="-105.230168">
  <ele>1583.62</ele>
  <time>2026-08-27T18:26:49Z</time>
  <course>18.46</course>
  <speed>0.022360679774997897</speed>
  <fix>3d</fix>
</trkpt>
<trkpt lat="40.0738334" lon="-105.2301679">
  <ele>1583.56</ele>
  <time>2026-08-27T18:26:49Z</time>
  <course>103.35</course>
  <speed>0.0</speed>
  <fix>3d</fix>
</trkpt>
<trkpt lat="40.0738335" lon="-105.230168">
  <ele>1583.62</ele>
  <time>2026-08-27T18:26:49Z</time>
  <course>18.46</course>
  <speed>0.022360679774997897</speed>
  <fix>3d</fix>
</trkpt>
<trkpt lat="40.0738334" lon="-105.2301679">
  <ele>1583.56</ele>
  <time>2026-08-27T18:26:49Z</time>
  <course>103.17</course>
  <speed>0.0</speed>
  <fix>3d</fix>
</trkpt>
<trkpt lat="40.0738335" lon="-105.230168">
  <ele>1583.62</ele>
  <time>2026-08-27T18:26:49Z</time>
  <course>18.46</course>
  <speed>0.022360679774997897</speed>
  <fix>3d</fix>
</trkpt>
<trkpt lat="40.0738334" lon="-105.2301679">
  <ele>1583.56</ele>
  <time>2026-08-27T18:26:49Z</time>
  <course>102.99</course>
  <speed>0.0</speed>
  <fix>3d</fix>
</trkpt>
<trkpt lat="40.0738335" lon="-105.230168">
  <ele>1583.62</ele>
  <time>2026-08-27T18:26:49Z</time>
  <course>18.46</course>
  <speed>0.022360679774997897</speed>
  <fix>3d</fix>
</trkpt>
<trkpt lat="40.0738334" lon="-105.2301679">
  <ele>1583.56</ele>
  <time>2026-08-27T18:26:49Z</time>
  <course>102.86</course>
  <speed>0.0</speed>
  <fix>3d</fix>
</trkpt>
<trkpt lat="40.0738335" lon="-105.230168">
  <ele>1583.62</ele>
  <time>2026-08-27T18:26:49Z</time>
  <course>18.46</course>
  <speed>0.022360679774997897</speed>
  <fix>3d</fix>
</trkpt>
<trkpt lat="40.0738334" lon="-105.2301679">
  <ele>1583.56</ele>
  <time>2026-08-27T18:26:49Z</time>
  <course>102.76</course>
  <speed>0.0</speed>
  <fix>3d</fix>
</trkpt>
<trkpt lat="40.0738335" lon="-105.230168">
  <ele>1583.62</ele>
  <time>2026-08-27T18:26:49Z</time>
  <course>18.45</course>
  <speed>0.022360679774997897</speed>
  <fix>3d</fix>
</trkpt>
<trkpt lat="40.0738334" lon="-105.2301679">
  <ele>1583.56</ele>
  <time>2026-08-27T18:26:49Z</time>
  <course>102.67</course>
  <speed>0.0</speed>
  <fix>3d</fix>
</trkpt>
<trkpt lat="40.0738335" lon="-105.230168">
  <ele>1583.62</ele>
  <time>2026-08-27T18:26:49Z</time>
  <course>18.44</course>
  <speed>0.022360679774997897</speed>
  <fix>3d</fix>
</trkpt>
<trkpt lat="40.0738334" lon="-105.2301679">
  <ele>1583.56</ele>
  <time>2026-08-27T18:26:49Z</time>
  <course>102.58</course>
  <speed>0.0</speed>
  <fix>3d</fix>
</trkpt>
<trkpt lat="40.0738335" lon="-105.230168">
  <ele>1583.62</ele>
  <time>2026-08-27T18:26:49Z</time>
  <course>18.43</course>
  <speed>0.022360679774997897</speed>
  <fix>3d</fix>
</trkpt>
<trkpt lat="40.0738334" lon="-105.2301679">
  <ele>1583.56</ele>
  <time>2026-08-27T18:26:49Z</time>
  <course>103.43</course>
  <speed>0.0</speed>
  <fix>3d</fix>
</trkpt>
<trkpt lat="40.0738335" lon="-105.230168">
  <ele>1583.62</ele>
  <time>2026-08-27T18:26:49Z</time>
  <course>18.41</course>
  <speed>0.022360679774997897</speed>
  <fix>3d</fix>
</trkpt>
<trkpt lat="40.0738334" lon="-105.2301679">
  <ele>1583.56</ele>
  <time>2026-08-27T18:26:49Z</time>
  <course>104.34</course>
  <speed>0.0</speed>
  <fix>3d</fix>
</trkpt>
<trkpt lat="40.0738335" lon="-105.230168">
  <ele>1583.62</ele>
  <time>2026-08-27T18:26:49Z</time>
  <course>18.39</course>
  <speed>0.022360679774997897</speed>
  <fix>3d</fix>
</trkpt>
<trkpt lat="40.0738334" lon="-105.2301679">
  <ele>1583.56</ele>
  <time>2026-08-27T18:26:49Z</time>
  <course>102.62</course>
  <speed>0.0</speed>
  <fix>3d</fix>
</trkpt>
<trkpt lat="40.0738335" lon="-105.230168">
  <ele>1583.62</ele>
  <time>2026-08-27T18:26:49Z</time>
  <course>18.37</course>
  <speed>0.022360679774997897</speed>
  <fix>3d</fix>
</trkpt>
<trkpt lat="40.0738334" lon="-105.2301679">
  <ele>1583.56</ele>
  <time>2026-08-27T18:26:49Z</time>
  <course>102.3</course>
  <speed>0.0</speed>
  <fix>3d</fix>
</trkpt>
<trkpt lat="40.0738335" lon="-105.230168">
  <ele>1583.62</ele>
  <time>2026-08-27T18:26:49Z</time>
  <course>18.35</course>
  <speed>0.022360679774997897</speed>
  <fix>3d</fix>
</trkpt>
<trkpt lat="40.0738334" lon="-105.2301679">
  <ele>1583.56</ele>
  <time>2026-08-27T18:26:49Z</time>
  <course>102.3</course>
  <speed>0.0</speed>
  <fix>3d</fix>
</trkpt>
<trkpt lat="40.0738335" lon="-105.230168">
  <ele>1583.62</ele>
  <time>2026-08-27T18:26:49Z</time>
  <course>18.33</course>
  <speed>0.022360679774997897</speed>
  <fix>3d</fix>
</trkpt>
<trkpt lat="40.0738334" lon="-105.2301679">
  <ele>1583.56</ele>
  <time>2026-08-27T18:26:49Z</time>
  <course>103.16</course>
  <speed>0.0</speed>
  <fix>3d</fix>
</trkpt>
<trkpt lat="40.0738335" lon="-105.230168">
  <ele>1583.62</ele>
  <time>2026-08-27T18:26:49Z</time>
  <course>18.3</course>
  <speed>0.022360679774997897</speed>
  <fix>3d</fix>
</trkpt>
<trkpt lat="40.0738334" lon="-105.2301679">
  <ele>1583.56</ele>
  <time>2026-08-27T18:26:49Z</time>
  <course>108.23</course>
  <speed>0.0</speed>
  <fix>3d</fix>
</trkpt>
<trkpt lat="40.0738335" lon="-105.230168">
  <ele>1583.62</ele>
  <time>2026-08-27T18:26:49Z</time>
  <course>18.27</course>
  <speed>0.022360679774997897</speed>
  <fix>3d</fix>
</trkpt>
<trkpt lat="40.0738334" lon="-105.2301679">
  <ele>1583.56</ele>
  <time>2026-08-27T18:26:49Z</time>
  <course>102.74</course>
  <speed>0.0</speed>
  <fix>3d</fix>
</trkpt>
<trkpt lat="40.0738335" lon="-105.230168">
  <ele>1583.62</ele>
  <time>2026-08-27T18:26:49Z</time>
  <course>18.24</course>
  <speed>0.022360679774997897</speed>
  <fix>3d</fix>
</trkpt>
<trkpt lat="40.0738334" lon="-105.2301679">
  <ele>1583.56</ele>
  <time>2026-08-27T18:26:49Z</time>
  <course>101.91</course>
  <speed>0.0</speed>
  <fix>3d</fix>
</trkpt>
<trkpt lat="40.0738335" lon="-105.230168">
  <ele>1583.62</ele>
  <time>2026-08-27T18:26:49Z</time>
  <course>18.21</course>
  <speed>0.022360679774997897</speed>
  <fix>3d</fix>
</trkpt>
<trkpt lat="40.0738334" lon="-105.2301679">
  <ele>1583.56</ele>
  <time>2026-08-27T18:26:49Z</time>
  <course>107.57</course>
  <speed>0.0</speed>
  <fix>3d</fix>
</trkpt>
<trkpt lat="40.0738335" lon="-105.230168">
  <ele>1583.62</ele>
  <time>2026-08-27T18:26:49Z</time>
  <course>18.17</course>
  <speed>0.022360679774997897</speed>
  <fix>3d</fix>
</trkpt>
<trkpt lat="40.0738334" lon="-105.2301679">
  <ele>1583.56</ele>
  <time>2026-08-27T18:26:49Z</time>
  <course>114.45</course>
  <speed>0.0</speed>
  <fix>3d</fix>
</trkpt>
<trkpt lat="40.0738335" lon="-105.230168">
  <ele>1583.62</ele>
  <time>2026-08-27T18:26:49Z</time>
  <course>18.13</course>
  <speed>0.022360679774997897</speed>
  <fix>3d</fix>
</trkpt>
<trkpt lat="40.0738334" lon="-105.2301679">
  <ele>1583.56</ele>
  <time>2026-08-27T18:26:49Z</time>
  <course>101.98</course>
  <speed>0.0</speed>
  <fix>3d</fix>
</trkpt>
<trkpt lat="40.0738335" lon="-105.230168">
  <ele>1583.62</ele>
  <time>2026-08-27T18:26:49Z</time>
  <course>18.1</course>
  <speed>0.022360679774997897</speed>
  <fix>3d</fix>
</trkpt>
<trkpt lat="40.0738334" lon="-105.2301679">
  <ele>1583.56</ele>
  <time>2026-08-27T18:26:49Z</time>
  <course>110.37</course>
  <speed>0.0</speed>
  <fix>3d</fix>
</trkpt>
<trkpt lat="40.0738335" lon="-105.230168">
  <ele>1583.62</ele>
  <time>2026-08-27T18:26:49Z</time>
  <course>18.05</course>
  <speed>0.022360679774997897</speed>
  <fix>3d</fix>
</trkpt>
<trkpt lat="40.0738334" lon="-105.2301679">
  <ele>1583.56</ele>
  <time>2026-08-27T18:26:49Z</time>
  <course>106.24</course>
  <speed>0.0</speed>
  <fix>3d</fix>
</trkpt>
<trkpt lat="40.0738335" lon="-105.230168">
  <ele>1583.62</ele>
  <time>2026-08-27T18:26:49Z</time>
  <course>18.01</course>
  <speed>0.022360679774997897</speed>
  <fix>3d</fix>
</trkpt>
<trkpt lat="40.0738334" lon="-105.2301679">
  <ele>1583.56</ele>
  <time>2026-08-27T18:26:49Z</time>
  <course>139.24</course>
  <speed>0.0</speed>
  <fix>3d</fix>
</trkpt>
<trkpt lat="40.0738335" lon="-105.230168">
  <ele>1583.62</ele>
  <time>2026-08-27T18:26:49Z</time>
  <course>17.97</course>
  <speed>0.022360679774997897</speed>
  <fix>3d</fix>
</trkpt>
<trkpt lat="40.0738334" lon="-105.2301679">
  <ele>1583.56</ele>
  <time>2026-08-27T18:26:49Z</time>
  <course>278.26</course>
  <speed>0.0</speed>
  <fix>3d</fix>
</trkpt>
<trkpt lat="40.0738335" lon="-105.230168">
  <ele>1583.62</ele>
  <time>2026-08-27T18:26:49Z</time>
  <course>17.92</course>
  <speed>0.022360679774997897</speed>
  <fix>3d</fix>
</trkpt>
<trkpt lat="40.0738334" lon="-105.2301679">
  <ele>1583.56</ele>
  <time>2026-08-27T18:26:49Z</time>
  <course>275.98</course>
  <speed>0.0</speed>
  <fix>3d</fix>
</trkpt>
<trkpt lat="40.0738335" lon="-105.230168">
  <ele>1583.62</ele>
  <time>2026-08-27T18:26:49Z</time>
  <course>17.87</course>
  <speed>0.022360679774997897</speed>
  <fix>3d</fix>
</trkpt>
<trkpt lat="40.0738334" lon="-105.2301679">
  <ele>1583.56</ele>
  <time>2026-08-27T18:26:49Z</time>
  <course>277.86</course>
  <speed>0.0</speed>
  <fix>3d</fix>
</trkpt>
<trkpt lat="40.0738335" lon="-105.230168">
  <ele>1583.62</ele>
  <time>2026-08-27T18:26:49Z</time>
  <course>17.82</course>
  <speed>0.022360679774997897</speed>
  <fix>3d</fix>
</trkpt>
<trkpt lat="40.0738334" lon="-105.2301679">
  <ele>1583.56</ele>
  <time>2026-08-27T18:26:49Z</time>
  <course>278.1</course>
  <speed>0.0</speed>
  <fix>3d</fix>
</trkpt>
<trkpt lat="40.0738335" lon="-105.230168">
  <ele>1583.63</ele>
  <time>2026-08-27T18:26:49Z</time>
  <course>17.77</course>
  <speed>0.022360679774997897</speed>
  <fix>3d</fix>
</trkpt>
<trkpt lat="40.0738334" lon="-105.2301679">
  <ele>1583.56</ele>
  <time>2026-08-27T18:26:49Z</time>
  <course>278.24</course>
  <speed>0.0</speed>
  <fix>3d</fix>
</trkpt>
<trkpt lat="40.0738335" lon="-105.230168">
  <ele>1583.63</ele>
  <time>2026-08-27T18:26:49Z</time>
  <course>17.72</course>
  <speed>0.022360679774997897</speed>
  <fix>3d</fix>
</trkpt>
<trkpt lat="40.0738334" lon="-105.2301679">
  <ele>1583.56</ele>
  <time>2026-08-27T18:26:49Z</time>
  <course>278.68</course>
  <speed>0.0</speed>
  <fix>3d</fix>
</trkpt>
<trkpt lat="40.0738335" lon="-105.230168">
  <ele>1583.63</ele>
  <time>2026-08-27T18:26:49Z</time>
  <course>17.67</course>
  <speed>0.022360679774997897</speed>
  <fix>3d</fix>
</trkpt>
<trkpt lat="40.0738334" lon="-105.2301679">
  <ele>1583.56</ele>
  <time>2026-08-27T18:26:49Z</time>
  <course>278.57</course>
  <speed>0.0</speed>
  <fix>3d</fix>
</trkpt>
<trkpt lat="40.0738335" lon="-105.230168">
  <ele>1583.63</ele>
  <time>2026-08-27T18:26:49Z</time>
  <course>17.62</course>
  <speed>0.022360679774997897</speed>
  <fix>3d</fix>
</trkpt>
<trkpt lat="40.0738334" lon="-105.2301679">
  <ele>1583.56</ele>
  <time>2026-08-27T18:26:49Z</time>
  <course>278.47</course>
  <speed>0.0</speed>
  <fix>3d</fix>
</trkpt>
<trkpt lat="40.0738335" lon="-105.230168">
  <ele>1583.63</ele>
  <time>2026-08-27T18:26:49Z</time>
  <course>17.56</course>
  <speed>0.022360679774997897</speed>
  <fix>3d</fix>
</trkpt>
<trkpt lat="40.0738334" lon="-105.2301679">
  <ele>1583.56</ele>
  <time>2026-08-27T18:26:49Z</time>
  <course>278.62</course>
  <speed>0.0</speed>
  <fix>3d</fix>
</trkpt>
<trkpt lat="40.0738335" lon="-105.230168">
  <ele>1583.63</ele>
  <time>2026-08-27T18:26:49Z</time>
  <course>17.51</course>
  <speed>0.022360679774997897</speed>
  <fix>3d</fix>
</trkpt>
<trkpt lat="40.0738334" lon="-105.2301679">
  <ele>1583.56</ele>
  <time>2026-08-27T18:26:49Z</time>
  <course>278.74</course>
  <speed>0.0</speed>
  <fix>3d</fix>
</trkpt>
<trkpt lat="40.0738335" lon="-105.230168">
  <ele>1583.63</ele>
  <time>2026-08-27T18:26:49Z</time>
  <course>17.46</course>
  <speed>0.022360679774997897</speed>
  <fix>3d</fix>
</trkpt>
<trkpt lat="40.0738334" lon="-105.2301679">
  <ele>1583.56</ele>
  <time>2026-08-27T18:26:49Z</time>
  <course>278.47</course>
  <speed>0.0</speed>
  <fix>3d</fix>
</trkpt>
<trkpt lat="40.0738335" lon="-105.230168">
  <ele>1583.63</ele>
  <time>2026-08-27T18:26:49Z</time>
  <course>17.41</course>
  <speed>0.022360679774997897</speed>
  <fix>3d</fix>
</trkpt>
<trkpt lat="40.0738334" lon="-105.2301679">
  <ele>1583.56</ele>
  <time>2026-08-27T18:26:49Z</time>
  <course>278.41</course>
  <speed>0.0</speed>
  <fix>3d</fix>
</trkpt>
<trkpt lat="40.0738335" lon="-105.230168">
  <ele>1583.63</ele>
  <time>2026-08-27T18:26:49Z</time>
  <course>17.36</course>
  <speed>0.022360679774997897</speed>
  <fix>3d</fix>
</trkpt>
<trkpt lat="40.0738334" lon="-105.2301679">
  <ele>1583.56</ele>
  <time>2026-08-27T18:26:49Z</time>
  <course>278.29</course>
  <speed>0.0</speed>
  <fix>3d</fix>
</trkpt>
<trkpt lat="40.0738335" lon="-105.230168">
  <ele>1583.63</ele>
  <time>2026-08-27T18:26:49Z</time>
  <course>17.31</course>
  <speed>0.022360679774997897</speed>
  <fix>3d</fix>
</trkpt>
<trkpt lat="40.0738334" lon="-105.2301679">
  <ele>1583.56</ele>
  <time>2026-08-27T18:26:49Z</time>
  <course>278.2</course>
  <speed>0.0</speed>
  <fix>3d</fix>
</trkpt>
<trkpt lat="40.0738335" lon="-105.230168">
  <ele>1583.63</ele>
  <time>2026-08-27T18:26:49Z</time>
  <course>17.26</course>
  <speed>0.022360679774997897</speed>
  <fix>3d</fix>
</trkpt>
<trkpt lat="40.0738334" lon="-105.2301679">
  <ele>1583.56</ele>
  <time>2026-08-27T18:26:49Z</time>
  <course>278.08</course>
  <speed>0.0</speed>
  <fix>3d</fix>
</trkpt>
<trkpt lat="40.0738335" lon="-105.230168">
  <ele>1583.63</ele>
  <time>2026-08-27T18:26:49Z</time>
  <course>17.21</course>
  <speed>0.022360679774997897</speed>
  <fix>3d</fix>
</trkpt>
<trkpt lat="40.0738334" lon="-105.2301679">
  <ele>1583.56</ele>
  <time>2026-08-27T18:26:49Z</time>
  <course>259.73</course>
  <speed>0.0</speed>
  <fix>3d</fix>
</trkpt>
<trkpt lat="40.0738335" lon="-105.230168">
  <ele>1583.63</ele>
  <time>2026-08-27T18:26:49Z</time>
  <course>17.16</course>
  <speed>0.022360679774997897</speed>
  <fix>3d</fix>
</trkpt>
<trkpt lat="40.0738334" lon="-105.2301679">
  <ele>1583.56</ele>
  <time>2026-08-27T18:26:49Z</time>
  <course>107.29</course>
  <speed>0.0</speed>
  <fix>3d</fix>
</trkpt>
<trkpt lat="40.0738335" lon="-105.230168">
  <ele>1583.63</ele>
  <time>2026-08-27T18:26:49Z</time>
  <course>17.11</course>
  <speed>0.022360679774997897</speed>
  <fix>3d</fix>
</trkpt>
<trkpt lat="40.0738334" lon="-105.2301679">
  <ele>1583.56</ele>
  <time>2026-08-27T18:26:49Z</time>
  <course>276.66</course>
  <speed>0.0</speed>
  <fix>3d</fix>
</trkpt>
<trkpt lat="40.0738335" lon="-105.230168">
  <ele>1583.63</ele>
  <time>2026-08-27T18:26:49Z</time>
  <course>17.06</course>
  <speed>0.022360679774997897</speed>
  <fix>3d</fix>
</trkpt>
<trkpt lat="40.0738334" lon="-105.2301679">
  <ele>1583.56</ele>
  <time>2026-08-27T18:26:49Z</time>
  <course>277.9</course>
  <speed>0.0</speed>
  <fix>3d</fix>
</trkpt>
<trkpt lat="40.0738335" lon="-105.230168">
  <ele>1583.63</ele>
  <time>2026-08-27T18:26:49Z</time>
  <course>17.02</course>
  <speed>0.022360679774997897</speed>
  <fix>3d</fix>
</trkpt>
<trkpt lat="40.0738334" lon="-105.2301679">
  <ele>1583.56</ele>
  <time>2026-08-27T18:26:49Z</time>
  <course>277.64</course>
  <speed>0.0</speed>
  <fix>3d</fix>
</trkpt>
<trkpt lat="40.0738335" lon="-105.230168">
  <ele>1583.63</ele>
  <time>2026-08-27T18:26:49Z</time>
  <course>16.97</course>
  <speed>0.022360679774997897</speed>
  <fix>3d</fix>
</trkpt>
<trkpt lat="40.0738334" lon="-105.2301679">
  <ele>1583.56</ele>
  <time>2026-08-27T18:26:49Z</time>
  <course>277.41</course>
  <speed>0.0</speed>
  <fix>3d</fix>
</trkpt>
<trkpt lat="40.0738335" lon="-105.230168">
  <ele>1583.62</ele>
  <time>2026-08-27T18:26:49Z</time>
  <course>16.92</course>
  <speed>0.022360679774997897</speed>
  <fix>3d</fix>
</trkpt>
<trkpt lat="40.0738334" lon="-105.2301679">
  <ele>1583.56</ele>
  <time>2026-08-27T18:26:49Z</time>
  <course>277.36</course>
  <speed>0.0</speed>
  <fix>3d</fix>
</trkpt>
<trkpt lat="40.0738335" lon="-105.230168">
  <ele>1583.63</ele>
  <time>2026-08-27T18:26:49Z</time>
  <course>16.87</course>
  <speed>0.022360679774997897</speed>
  <fix>3d</fix>
</trkpt>
<trkpt lat="40.0738334" lon="-105.2301679">
  <ele>1583.56</ele>
  <time>2026-08-27T18:26:49Z</time>
  <course>277.29</course>
  <speed>0.0</speed>
  <fix>3d</fix>
</trkpt>
<trkpt lat="40.0738335" lon="-105.230168">
  <ele>1583.63</ele>
  <time>2026-08-27T18:26:49Z</time>
  <course>16.82</course>
  <speed>0.022360679774997897</speed>
  <fix>3d</fix>
</trkpt>
<trkpt lat="40.0738334" lon="-105.2301679">
  <ele>1583.56</ele>
  <time>2026-08-27T18:26:49Z</time>
  <course>276.8</course>
  <speed>0.0</speed>
  <fix>3d</fix>
</trkpt>
<trkpt lat="40.0738335" lon="-105.230168">
  <ele>1583.63</ele>
  <time>2026-08-27T18:26:49Z</time>
  <course>16.78</course>
  <speed>0.022360679774997897</speed>
  <fix>3d</fix>
</trkpt>
<trkpt lat="40.0738334" lon="-105.2301679">
  <ele>1583.56</ele>
  <time>2026-08-27T18:26:49Z</time>
  <course>276.91</course>
  <speed>0.0</speed>
  <fix>3d</fix>
</trkpt>
<trkpt lat="40.0738335" lon="-105.230168">
  <ele>1583.63</ele>
  <time>2026-08-27T18:26:49Z</time>
  <course>16.73</course>
  <speed>0.022360679774997897</speed>
  <fix>3d</fix>
</trkpt>
<trkpt lat="40.0738334" lon="-105.2301679">
  <ele>1583.56</ele>
  <time>2026-08-27T18:26:49Z</time>
  <course>275.39</course>
  <speed>0.0</speed>
  <fix>3d</fix>
</trkpt>
<trkpt lat="40.0738335" lon="-105.230168">
  <ele>1583.63</ele>
  <time>2026-08-27T18:26:49Z</time>
  <course>16.69</course>
  <speed>0.022360679774997897</speed>
  <fix>3d</fix>
</trkpt>
<trkpt lat="40.0738334" lon="-105.2301679">
  <ele>1583.56</ele>
  <time>2026-08-27T18:26:49Z</time>
  <course>276.15</course>
  <speed>0.0</speed>
  <fix>3d</fix>
</trkpt>
<trkpt lat="40.0738335" lon="-105.230168">
  <ele>1583.64</ele>
  <time>2026-08-27T18:26:49Z</time>
  <course>16.64</course>
  <speed>0.022360679774997897</speed>
  <fix>3d</fix>
</trkpt>
<trkpt lat="40.0738334" lon="-105.2301679">
  <ele>1583.56</ele>
  <time>2026-08-27T18:26:49Z</time>
  <course>276.36</course>
  <speed>0.0</speed>
  <fix>3d</fix>
</trkpt>
<trkpt lat="40.0738335" lon="-105.230168">
  <ele>1583.64</ele>
  <time>2026-08-27T18:26:49Z</time>
  <course>16.6</course>
  <speed>0.022360679774997897</speed>
  <fix>3d</fix>
</trkpt>
<trkpt lat="40.0738334" lon="-105.2301679">
  <ele>1583.56</ele>
  <time>2026-08-27T18:26:49Z</time>
  <course>276.3</course>
  <speed>0.0</speed>
  <fix>3d</fix>
</trkpt>
<trkpt lat="40.0738335" lon="-105.230168">
  <ele>1583.64</ele>
  <time>2026-08-27T18:26:49Z</time>
  <course>16.55</course>
  <speed>0.022360679774997897</speed>
  <fix>3d</fix>
</trkpt>
<trkpt lat="40.0738334" lon="-105.2301679">
  <ele>1583.56</ele>
  <time>2026-08-27T18:26:49Z</time>
  <course>276.36</course>
  <speed>0.0</speed>
  <fix>3d</fix>
</trkpt>
<trkpt lat="40.0738335" lon="-105.230168">
  <ele>1583.64</ele>
  <time>2026-08-27T18:26:49Z</time>
  <course>16.51</course>
  <speed>0.022360679774997897</speed>
  <fix>3d</fix>
</trkpt>
<trkpt lat="40.0738334" lon="-105.2301679">
  <ele>1583.56</ele>
  <time>2026-08-27T18:26:49Z</time>
  <course>276.4</course>
  <speed>0.0</speed>
  <fix>3d</fix>
</trkpt>
<trkpt lat="40.0738335" lon="-105.230168">
  <ele>1583.64</ele>
  <time>2026-08-27T18:26:49Z</time>
  <course>16.46</course>
  <speed>0.022360679774997897</speed>
  <fix>3d</fix>
</trkpt>
<trkpt lat="40.0738334" lon="-105.2301679">
  <ele>1583.56</ele>
  <time>2026-08-27T18:26:49Z</time>
  <course>276.52</course>
  <speed>0.0</speed>
  <fix>3d</fix>
</trkpt>
<trkpt lat="40.0738335" lon="-105.230168">
  <ele>1583.64</ele>
  <time>2026-08-27T18:26:49Z</time>
  <course>16.42</course>
  <speed>0.022360679774997897</speed>
  <fix>3d</fix>
</trkpt>
<trkpt lat="40.0738334" lon="-105.2301679">
  <ele>1583.56</ele>
  <time>2026-08-27T18:26:49Z</time>
  <course>276.38</course>
  <speed>0.0</speed>
  <fix>3d</fix>
</trkpt>
<trkpt lat="40.0738335" lon="-105.230168">
  <ele>1583.64</ele>
  <time>2026-08-27T18:26:49Z</time>
  <course>16.38</course>
  <speed>0.022360679774997897</speed>
  <fix>3d</fix>
</trkpt>
<trkpt lat="40.0738334" lon="-105.2301679">
  <ele>1583.56</ele>
  <time>2026-08-27T18:26:49Z</time>
  <course>276.61</course>
  <speed>0.0</speed>
  <fix>3d</fix>
</trkpt>
<trkpt lat="40.0738335" lon="-105.230168">
  <ele>1583.64</ele>
  <time>2026-08-27T18:26:49Z</time>
  <course>16.33</course>
  <speed>0.022360679774997897</speed>
  <fix>3d</fix>
</trkpt>
<trkpt lat="40.0738334" lon="-105.2301679">
  <ele>1583.56</ele>
  <time>2026-08-27T18:26:49Z</time>
  <course>273.36</course>
  <speed>0.0</speed>
  <fix>3d</fix>
</trkpt>
<trkpt lat="40.0738335" lon="-105.230168">
  <ele>1583.64</ele>
  <time>2026-08-27T18:26:49Z</time>
  <course>16.29</course>
  <speed>0.022360679774997897</speed>
  <fix>3d</fix>
</trkpt>
<trkpt lat="40.0738334" lon="-105.2301679">
  <ele>1583.56</ele>
  <time>2026-08-27T18:26:49Z</time>
  <course>275.74</course>
  <speed>0.0</speed>
  <fix>3d</fix>
</trkpt>
<trkpt lat="40.0738335" lon="-105.230168">
  <ele>1583.64</ele>
  <time>2026-08-27T18:26:49Z</time>
  <course>16.25</course>
  <speed>0.022360679774997897</speed>
  <fix>3d</fix>
</trkpt>
<trkpt lat="40.0738334" lon="-105.2301679">
  <ele>1583.56</ele>
  <time>2026-08-27T18:26:49Z</time>
  <course>275.49</course>
  <speed>0.0</speed>
  <fix>3d</fix>
</trkpt>
<trkpt lat="40.0738335" lon="-105.230168">
  <ele>1583.64</ele>
  <time>2026-08-27T18:26:49Z</time>
  <course>16.21</course>
  <speed>0.022360679774997897</speed>
  <fix>3d</fix>
</trkpt>
<trkpt lat="40.0738334" lon="-105.2301679">
  <ele>1583.56</ele>
  <time>2026-08-27T18:26:49Z</time>
  <course>275.77</course>
  <speed>0.0</speed>
  <fix>3d</fix>
</trkpt>
<trkpt lat="40.0738335" lon="-105.230168">
  <ele>1583.63</ele>
  <time>2026-08-27T18:26:49Z</time>
  <course>16.17</course>
  <speed>0.022360679774997897</speed>
  <fix>3d</fix>
</trkpt>
<trkpt lat="40.0738334" lon="-105.2301679">
  <ele>1583.56</ele>
  <time>2026-08-27T18:26:49Z</time>
  <course>276.02</course>
  <speed>0.0</speed>
  <fix>3d</fix>
</trkpt>
<trkpt lat="40.0738335" lon="-105.230168">
  <ele>1583.63</ele>
  <time>2026-08-27T18:26:49Z</time>
  <course>16.13</course>
  <speed>0.022360679774997897</speed>
  <fix>3d</fix>
</trkpt>
<trkpt lat="40.0738334" lon="-105.2301679">
  <ele>1583.56</ele>
  <time>2026-08-27T18:26:49Z</time>
  <course>275.78</course>
  <speed>0.0</speed>
  <fix>3d</fix>
</trkpt>
<trkpt lat="40.0738335" lon="-105.230168">
  <ele>1583.63</ele>
  <time>2026-08-27T18:26:49Z</time>
  <course>16.08</course>
  <speed>0.022360679774997897</speed>
  <fix>3d</fix>
</trkpt>
<trkpt lat="40.0738334" lon="-105.2301679">
  <ele>1583.56</ele>
  <time>2026-08-27T18:26:49Z</time>
  <course>276.22</course>
  <speed>0.0</speed>
  <fix>3d</fix>
</trkpt>
<trkpt lat="40.0738335" lon="-105.230168">
  <ele>1583.63</ele>
  <time>2026-08-27T18:26:49Z</time>
  <course>16.04</course>
  <speed>0.022360679774997897</speed>
  <fix>3d</fix>
</trkpt>
<trkpt lat="40.0738334" lon="-105.2301679">
  <ele>1583.56</ele>
  <time>2026-08-27T18:26:49Z</time>
  <course>273.7</course>
  <speed>0.0</speed>
  <fix>3d</fix>
</trkpt>
<trkpt lat="40.0738335" lon="-105.230168">
  <ele>1583.63</ele>
  <time>2026-08-27T18:26:49Z</time>
  <course>16.0</course>
  <speed>0.022360679774997897</speed>
  <fix>3d</fix>
</trkpt>
<trkpt lat="40.0738334" lon="-105.2301679">
  <ele>1583.56</ele>
  <time>2026-08-27T18:26:49Z</time>
  <course>275.22</course>
  <speed>0.0</speed>
  <fix>3d</fix>
</trkpt>
<trkpt lat="40.0738335" lon="-105.230168">
  <ele>1583.63</ele>
  <time>2026-08-27T18:26:49Z</time>
  <course>15.96</course>
  <speed>0.022360679774997897</speed>
  <fix>3d</fix>
</trkpt>
<trkpt lat="40.0738334" lon="-105.2301679">
  <ele>1583.56</ele>
  <time>2026-08-27T18:26:49Z</time>
  <course>275.17</course>
  <speed>0.0</speed>
  <fix>3d</fix>
</trkpt>
<trkpt lat="40.0738335" lon="-105.230168">
  <ele>1583.63</ele>
  <time>2026-08-27T18:26:49Z</time>
  <course>15.93</course>
  <speed>0.022360679774997897</speed>
  <fix>3d</fix>
</trkpt>
<trkpt lat="40.0738334" lon="-105.2301679">
  <ele>1583.56</ele>
  <time>2026-08-27T18:26:49Z</time>
  <course>275.28</course>
  <speed>0.0</speed>
  <fix>3d</fix>
</trkpt>
<trkpt lat="40.0738335" lon="-105.230168">
  <ele>1583.63</ele>
  <time>2026-08-27T18:26:49Z</time>
  <course>15.89</course>
  <speed>0.022360679774997897</speed>
  <fix>3d</fix>
</trkpt>
<trkpt lat="40.0738334" lon="-105.2301679">
  <ele>1583.56</ele>
  <time>2026-08-27T18:26:49Z</time>
  <course>276.01</course>
  <speed>0.0</speed>
  <fix>3d</fix>
</trkpt>
<trkpt lat="40.0738335" lon="-105.230168">
  <ele>1583.63</ele>
  <time>2026-08-27T18:26:49Z</time>
  <course>15.85</course>
  <speed>0.022360679774997897</speed>
  <fix>3d</fix>
</trkpt>
<trkpt lat="40.0738334" lon="-105.2301679">
  <ele>1583.56</ele>
  <time>2026-08-27T18:26:49Z</time>
  <course>273.28</course>
  <speed>0.0</speed>
  <fix>3d</fix>
</trkpt>
<trkpt lat="40.0738335" lon="-105.230168">
  <ele>1583.63</ele>
  <time>2026-08-27T18:26:49Z</time>
  <course>15.81</course>
  <speed>0.022360679774997897</speed>
  <fix>3d</fix>
</trkpt>
<trkpt lat="40.0738334" lon="-105.2301679">
  <ele>1583.56</ele>
  <time>2026-08-27T18:26:49Z</time>
  <course>275.04</course>
  <speed>0.0</speed>
  <fix>3d</fix>
</trkpt>
<trkpt lat="40.0738335" lon="-105.230168">
  <ele>1583.63</ele>
  <time>2026-08-27T18:26:49Z</time>
  <course>15.77</course>
  <speed>0.022360679774997897</speed>
  <fix>3d</fix>
</trkpt>
<trkpt lat="40.0738334" lon="-105.2301679">
  <ele>1583.56</ele>
  <time>2026-08-27T18:26:49Z</time>
  <course>275.32</course>
  <speed>0.0</speed>
  <fix>3d</fix>
</trkpt>
<trkpt lat="40.0738335" lon="-105.230168">
  <ele>1583.64</ele>
  <time>2026-08-27T18:26:49Z</time>
  <course>15.74</course>
  <speed>0.022360679774997897</speed>
  <fix>3d</fix>
</trkpt>
<trkpt lat="40.0738334" lon="-105.2301679">
  <ele>1583.56</ele>
  <time>2026-08-27T18:26:49Z</time>
  <course>275.04</course>
  <speed>0.0</speed>
  <fix>3d</fix>
</trkpt>
<trkpt lat="40.0738335" lon="-105.230168">
  <ele>1583.63</ele>
  <time>2026-08-27T18:26:49Z</time>
  <course>15.7</course>
  <speed>0.022360679774997897</speed>
  <fix>3d</fix>
</trkpt>
<trkpt lat="40.0738334" lon="-105.2301679">
  <ele>1583.56</ele>
  <time>2026-08-27T18:26:49Z</time>
  <course>275.72</course>
  <speed>0.0</speed>
  <fix>3d</fix>
</trkpt>
<trkpt lat="40.0738335" lon="-105.230168">
  <ele>1583.63</ele>
  <time>2026-08-27T18:26:49Z</time>
  <course>15.66</course>
  <speed>0.022360679774997897</speed>
  <fix>3d</fix>
</trkpt>
<trkpt lat="40.0738334" lon="-105.2301679">
  <ele>1583.56</ele>
  <time>2026-08-27T18:26:49Z</time>
  <course>273.51</course>
  <speed>0.0</speed>
  <fix>3d</fix>
</trkpt>
<trkpt lat="40.0738335" lon="-105.230168">
  <ele>1583.63</ele>
  <time>2026-08-27T18:26:49Z</time>
  <course>15.63</course>
  <speed>0.022360679774997897</speed>
  <fix>3d</fix>
</trkpt>
<trkpt lat="40.0738334" lon="-105.2301679">
  <ele>1583.56</ele>
  <time>2026-08-27T18:26:49Z</time>
  <course>275.1</course>
  <speed>0.0</speed>
  <fix>3d</fix>
</trkpt>
<trkpt lat="40.0738335" lon="-105.230168">
  <ele>1583.64</ele>
  <time>2026-08-27T18:26:50Z</time>
  <course>15.59</course>
  <speed>0.022360679774997897</speed>
  <fix>3d</fix>
</trkpt>
<trkpt lat="40.0738334" lon="-105.2301679">
  <ele>1583.56</ele>
  <time>2026-08-27T18:26:50Z</time>
  <course>275.47</course>
  <speed>0.0</speed>
  <fix>3d</fix>
</trkpt>
<trkpt lat="40.0738335" lon="-105.230168">
  <ele>1583.64</ele>
  <time>2026-08-27T18:26:50Z</time>
  <course>15.55</course>
  <speed>0.022360679774997897</speed>
  <fix>3d</fix>
</trkpt>
<trkpt lat="40.0738334" lon="-105.2301679">
  <ele>1583.56</ele>
  <time>2026-08-27T18:26:50Z</time>
  <course>270.61</course>
  <speed>0.0</speed>
  <fix>3d</fix>
</trkpt>
<trkpt lat="40.0738335" lon="-105.230168">
  <ele>1583.64</ele>
  <time>2026-08-27T18:26:50Z</time>
  <course>15.52</course>
  <speed>0.022360679774997897</speed>
  <fix>3d</fix>
</trkpt>
<trkpt lat="40.0738334" lon="-105.2301679">
  <ele>1583.56</ele>
  <time>2026-08-27T18:26:50Z</time>
  <course>274.99</course>
  <speed>0.0</speed>
  <fix>3d</fix>
</trkpt>
<trkpt lat="40.0738335" lon="-105.230168">
  <ele>1583.64</ele>
  <time>2026-08-27T18:26:50Z</time>
  <course>15.48</course>
  <speed>0.022360679774997897</speed>
  <fix>3d</fix>
</trkpt>
<trkpt lat="40.0738334" lon="-105.2301679">
  <ele>1583.56</ele>
  <time>2026-08-27T18:26:50Z</time>
  <course>275.24</course>
  <speed>0.0</speed>
  <fix>3d</fix>
</trkpt>
<trkpt lat="40.0738335" lon="-105.230168">
  <ele>1583.64</ele>
  <time>2026-08-27T18:26:50Z</time>
  <course>15.45</course>
  <speed>0.022360679774997897</speed>
  <fix>3d</fix>
</trkpt>
<trkpt lat="40.0738334" lon="-105.2301679">
  <ele>1583.56</ele>
  <time>2026-08-27T18:26:50Z</time>
  <course>269.77</course>
  <speed>0.0</speed>
  <fix>3d</fix>
</trkpt>
<trkpt lat="40.0738335" lon="-105.230168">
  <ele>1583.64</ele>
  <time>2026-08-27T18:26:50Z</time>
  <course>15.42</course>
  <speed>0.022360679774997897</speed>
  <fix>3d</fix>
</trkpt>
<trkpt lat="40.0738334" lon="-105.2301679">
  <ele>1583.56</ele>
  <time>2026-08-27T18:26:50Z</time>
  <course>274.65</course>
  <speed>0.0</speed>
  <fix>3d</fix>
</trkpt>
<trkpt lat="40.0738335" lon="-105.230168">
  <ele>1583.64</ele>
  <time>2026-08-27T18:26:50Z</time>
  <course>15.38</course>
  <speed>0.022360679774997897</speed>
  <fix>3d</fix>
</trkpt>
<trkpt lat="40.0738334" lon="-105.2301679">
  <ele>1583.56</ele>
  <time>2026-08-27T18:26:50Z</time>
  <course>274.78</course>
  <speed>0.0</speed>
  <fix>3d</fix>
</trkpt>
<trkpt lat="40.0738335" lon="-105.230168">
  <ele>1583.65</ele>
  <time>2026-08-27T18:26:50Z</time>
  <course>15.35</course>
  <speed>0.022360679774997897</speed>
  <fix>3d</fix>
</trkpt>
<trkpt lat="40.0738334" lon="-105.2301679">
  <ele>1583.56</ele>
  <time>2026-08-27T18:26:50Z</time>
  <course>273.05</course>
  <speed>0.0</speed>
  <fix>3d</fix>
</trkpt>
<trkpt lat="40.0738335" lon="-105.230168">
  <ele>1583.65</ele>
  <time>2026-08-27T18:26:50Z</time>
  <course>15.31</course>
  <speed>0.022360679774997897</speed>
  <fix>3d</fix>
</trkpt>
<trkpt lat="40.0738334" lon="-105.2301679">
  <ele>1583.56</ele>
  <time>2026-08-27T18:26:50Z</time>
  <course>275.01</course>
  <speed>0.0</speed>
  <fix>3d</fix>
</trkpt>
<trkpt lat="40.0738335" lon="-105.230168">
  <ele>1583.65</ele>
  <time>2026-08-27T18:26:50Z</time>
  <course>15.28</course>
  <speed>0.022360679774997897</speed>
  <fix>3d</fix>
</trkpt>
<trkpt lat="40.0738334" lon="-105.2301679">
  <ele>1583.56</ele>
  <time>2026-08-27T18:26:50Z</time>
  <course>274.3</course>
  <speed>0.0</speed>
  <fix>3d</fix>
</trkpt>
<trkpt lat="40.0738335" lon="-105.230168">
  <ele>1583.65</ele>
  <time>2026-08-27T18:26:50Z</time>
  <course>15.25</course>
  <speed>0.022360679774997897</speed>
  <fix>3d</fix>
</trkpt>
<trkpt lat="40.0738334" lon="-105.2301679">
  <ele>1583.56</ele>
  <time>2026-08-27T18:26:50Z</time>
  <course>273.97</course>
  <speed>0.0</speed>
  <fix>3d</fix>
</trkpt>
<trkpt lat="40.0738335" lon="-105.230168">
  <ele>1583.65</ele>
  <time>2026-08-27T18:26:50Z</time>
  <course>15.22</course>
  <speed>0.022360679774997897</speed>
  <fix>3d</fix>
</trkpt>
<trkpt lat="40.0738334" lon="-105.2301679">
  <ele>1583.56</ele>
  <time>2026-08-27T18:26:50Z</time>
  <course>275.12</course>
  <speed>0.0</speed>
  <fix>3d</fix>
</trkpt>
<trkpt lat="40.0738335" lon="-105.230168">
  <ele>1583.65</ele>
  <time>2026-08-27T18:26:50Z</time>
  <course>15.18</course>
  <speed>0.022360679774997897</speed>
  <fix>3d</fix>
</trkpt>
<trkpt lat="40.0738334" lon="-105.2301679">
  <ele>1583.56</ele>
  <time>2026-08-27T18:26:50Z</time>
  <course>273.84</course>
  <speed>0.0</speed>
  <fix>3d</fix>
</trkpt>
<trkpt lat="40.0738335" lon="-105.230168">
  <ele>1583.65</ele>
  <time>2026-08-27T18:26:50Z</time>
  <course>15.15</course>
  <speed>0.022360679774997897</speed>
  <fix>3d</fix>
</trkpt>
<trkpt lat="40.0738334" lon="-105.2301679">
  <ele>1583.56</ele>
  <time>2026-08-27T18:26:50Z</time>
  <course>269.02</course>
  <speed>0.0</speed>
  <fix>3d</fix>
</trkpt>
<trkpt lat="40.0738335" lon="-105.230168">
  <ele>1583.64</ele>
  <time>2026-08-27T18:26:50Z</time>
  <course>15.12</course>
  <speed>0.022360679774997897</speed>
  <fix>3d</fix>
</trkpt>
<trkpt lat="40.0738334" lon="-105.2301679">
  <ele>1583.56</ele>
  <time>2026-08-27T18:26:50Z</time>
  <course>274.6</course>
  <speed>0.0</speed>
  <fix>3d</fix>
</trkpt>
<trkpt lat="40.0738335" lon="-105.230168">
  <ele>1583.64</ele>
  <time>2026-08-27T18:26:50Z</time>
  <course>15.09</course>
  <speed>0.022360679774997897</speed>
  <fix>3d</fix>
</trkpt>
<trkpt lat="40.0738334" lon="-105.2301679">
  <ele>1583.56</ele>
  <time>2026-08-27T18:26:50Z</time>
  <course>274.61</course>
  <speed>0.0</speed>
  <fix>3d</fix>
</trkpt>
<trkpt lat="40.0738335" lon="-105.230168">
  <ele>1583.64</ele>
  <time>2026-08-27T18:26:50Z</time>
  <course>15.06</course>
  <speed>0.022360679774997897</speed>
  <fix>3d</fix>
</trkpt>
<trkpt lat="40.0738334" lon="-105.2301679">
  <ele>1583.56</ele>
  <time>2026-08-27T18:26:50Z</time>
  <course>269.98</course>
  <speed>0.0</speed>
  <fix>3d</fix>
</trkpt>
<trkpt lat="40.0738335" lon="-105.230168">
  <ele>1583.64</ele>
  <time>2026-08-27T18:26:50Z</time>
  <course>15.03</course>
  <speed>0.022360679774997897</speed>
  <fix>3d</fix>
</trkpt>
<trkpt lat="40.0738334" lon="-105.2301679">
  <ele>1583.56</ele>
  <time>2026-08-27T18:26:50Z</time>
  <course>274.55</course>
  <speed>0.0</speed>
  <fix>3d</fix>
</trkpt>
<trkpt lat="40.0738335" lon="-105.230168">
  <ele>1583.64</ele>
  <time>2026-08-27T18:26:50Z</time>
  <course>15.0</course>
  <speed>0.022360679774997897</speed>
  <fix>3d</fix>
</trkpt>
<trkpt lat="40.0738334" lon="-105.2301679">
  <ele>1583.56</ele>
  <time>2026-08-27T18:26:50Z</time>
  <course>274.71</course>
  <speed>0.0</speed>
  <fix>3d</fix>
</trkpt>
<trkpt lat="40.0738335" lon="-105.230168">
  <ele>1583.64</ele>
  <time>2026-08-27T18:26:50Z</time>
  <course>14.97</course>
  <speed>0.022360679774997897</speed>
  <fix>3d</fix>
</trkpt>
<trkpt lat="40.0738334" lon="-105.2301679">
  <ele>1583.56</ele>
  <time>2026-08-27T18:26:50Z</time>
  <course>270.82</course>
  <speed>0.0</speed>
  <fix>3d</fix>
</trkpt>
<trkpt lat="40.0738335" lon="-105.230168">
  <ele>1583.64</ele>
  <time>2026-08-27T18:26:50Z</time>
  <course>14.94</course>
  <speed>0.022360679774997897</speed>
  <fix>3d</fix>
</trkpt>
<trkpt lat="40.0738334" lon="-105.2301679">
  <ele>1583.56</ele>
  <time>2026-08-27T18:26:50Z</time>
  <course>274.52</course>
  <speed>0.0</speed>
  <fix>3d</fix>
</trkpt>
<trkpt lat="40.0738335" lon="-105.230168">
  <ele>1583.64</ele>
  <time>2026-08-27T18:26:50Z</time>
  <course>14.91</course>
  <speed>0.022360679774997897</speed>
  <fix>3d</fix>
</trkpt>
<trkpt lat="40.0738334" lon="-105.2301679">
  <ele>1583.56</ele>
  <time>2026-08-27T18:26:50Z</time>
  <course>274.79</course>
  <speed>0.0</speed>
  <fix>3d</fix>
</trkpt>
<trkpt lat="40.0738335" lon="-105.230168">
  <ele>1583.64</ele>
  <time>2026-08-27T18:26:50Z</time>
  <course>14.88</course>
  <speed>0.022360679774997897</speed>
  <fix>3d</fix>
</trkpt>
<trkpt lat="40.0738334" lon="-105.2301679">
  <ele>1583.56</ele>
  <time>2026-08-27T18:26:50Z</time>
  <course>271.7</course>
  <speed>0.0</speed>
  <fix>3d</fix>
</trkpt>
<trkpt lat="40.0738335" lon="-105.230168">
  <ele>1583.64</ele>
  <time>2026-08-27T18:26:50Z</time>
  <course>14.85</course>
  <speed>0.022360679774997897</speed>
  <fix>3d</fix>
</trkpt>
<trkpt lat="40.0738334" lon="-105.2301679">
  <ele>1583.56</ele>
  <time>2026-08-27T18:26:50Z</time>
  <course>274.16</course>
  <speed>0.0</speed>
  <fix>3d</fix>
</trkpt>
<trkpt lat="40.0738335" lon="-105.230168">
  <ele>1583.64</ele>
  <time>2026-08-27T18:26:50Z</time>
  <course>14.82</course>
  <speed>0.022360679774997897</speed>
  <fix>3d</fix>
</trkpt>
<trkpt lat="40.0738334" lon="-105.2301679">
  <ele>1583.56</ele>
  <time>2026-08-27T18:26:50Z</time>
  <course>274.82</course>
  <speed>0.0</speed>
  <fix>3d</fix>
</trkpt>
<trkpt lat="40.0738335" lon="-105.230168">
  <ele>1583.64</ele>
  <time>2026-08-27T18:26:50Z</time>
  <course>14.8</course>
  <speed>0.022360679774997897</speed>
  <fix>3d</fix>
</trkpt>
<trkpt lat="40.0738334" lon="-105.2301679">
  <ele>1583.56</ele>
  <time>2026-08-27T18:26:50Z</time>
  <course>273.18</course>
  <speed>0.0</speed>
  <fix>3d</fix>
</trkpt>
<trkpt lat="40.0738335" lon="-105.230168">
  <ele>1583.64</ele>
  <time>2026-08-27T18:26:50Z</time>
  <course>14.77</course>
  <speed>0.022360679774997897</speed>
  <fix>3d</fix>
</trkpt>
<trkpt lat="40.0738334" lon="-105.2301679">
  <ele>1583.56</ele>
  <time>2026-08-27T18:26:50Z</time>
  <course>270.22</course>
  <speed>0.0</speed>
  <fix>3d</fix>
</trkpt>
<trkpt lat="40.0738335" lon="-105.230168">
  <ele>1583.64</ele>
  <time>2026-08-27T18:26:50Z</time>
  <course>14.74</course>
  <speed>0.022360679774997897</speed>
  <fix>3d</fix>
</trkpt>
<trkpt lat="40.0738334" lon="-105.2301679">
  <ele>1583.56</ele>
  <time>2026-08-27T18:26:50Z</time>
  <course>274.45</course>
  <speed>0.0</speed>
  <fix>3d</fix>
</trkpt>
<trkpt lat="40.0738335" lon="-105.230168">
  <ele>1583.65</ele>
  <time>2026-08-27T18:26:50Z</time>
  <course>14.71</course>
  <speed>0.022360679774997897</speed>
  <fix>3d</fix>
</trkpt>
<trkpt lat="40.0738334" lon="-105.2301679">
  <ele>1583.56</ele>
  <time>2026-08-27T18:26:50Z</time>
  <course>274.66</course>
  <speed>0.0</speed>
  <fix>3d</fix>
</trkpt>
<trkpt lat="40.0738335" lon="-105.230168">
  <ele>1583.65</ele>
  <time>2026-08-27T18:26:50Z</time>
  <course>14.69</course>
  <speed>0.022360679774997897</speed>
  <fix>3d</fix>
</trkpt>
<trkpt lat="40.0738334" lon="-105.2301679">
  <ele>1583.56</ele>
  <time>2026-08-27T18:26:50Z</time>
  <course>272.18</course>
  <speed>0.0</speed>
  <fix>3d</fix>
</trkpt>
<trkpt lat="40.0738335" lon="-105.230168">
  <ele>1583.65</ele>
  <time>2026-08-27T18:26:50Z</time>
  <course>14.66</course>
  <speed>0.022360679774997897</speed>
  <fix>3d</fix>
</trkpt>
<trkpt lat="40.0738334" lon="-105.2301679">
  <ele>1583.56</ele>
  <time>2026-08-27T18:26:50Z</time>
  <course>272.1</course>
  <speed>0.0</speed>
  <fix>3d</fix>
</trkpt>
<trkpt lat="40.0738335" lon="-105.230168">
  <ele>1583.65</ele>
  <time>2026-08-27T18:26:50Z</time>
  <course>14.63</course>
  <speed>0.022360679774997897</speed>
  <fix>3d</fix>
</trkpt>
<trkpt lat="40.0738334" lon="-105.2301679">
  <ele>1583.56</ele>
  <time>2026-08-27T18:26:50Z</time>
  <course>274.29</course>
  <speed>0.0</speed>
  <fix>3d</fix>
</trkpt>
<trkpt lat="40.0738335" lon="-105.230168">
  <ele>1583.65</ele>
  <time>2026-08-27T18:26:50Z</time>
  <course>14.61</course>
  <speed>0.022360679774997897</speed>
  <fix>3d</fix>
</trkpt>
<trkpt lat="40.0738334" lon="-105.2301679">
  <ele>1583.56</ele>
  <time>2026-08-27T18:26:50Z</time>
  <course>273.9</course>
  <speed>0.0</speed>
  <fix>3d</fix>
</trkpt>
<trkpt lat="40.0738335" lon="-105.230168">
  <ele>1583.65</ele>
  <time>2026-08-27T18:26:50Z</time>
  <course>14.58</course>
  <speed>0.022360679774997897</speed>
  <fix>3d</fix>
</trkpt>
<trkpt lat="40.0738334" lon="-105.2301679">
  <ele>1583.56</ele>
  <time>2026-08-27T18:26:50Z</time>
  <course>270.66</course>
  <speed>0.0</speed>
  <fix>3d</fix>
</trkpt>
<trkpt lat="40.0738335" lon="-105.230168">
  <ele>1583.65</ele>
  <time>2026-08-27T18:26:50Z</time>
  <course>14.55</course>
  <speed>0.022360679774997897</speed>
  <fix>3d</fix>
</trkpt>
<trkpt lat="40.0738334" lon="-105.2301679">
  <ele>1583.56</ele>
  <time>2026-08-27T18:26:50Z</time>
  <course>274.13</course>
  <speed>0.0</speed>
  <fix>3d</fix>
</trkpt>
<trkpt lat="40.0738335" lon="-105.230168">
  <ele>1583.65</ele>
  <time>2026-08-27T18:26:50Z</time>
  <course>14.53</course>
  <speed>0.022360679774997897</speed>
  <fix>3d</fix>
</trkpt>
<trkpt lat="40.0738334" lon="-105.2301679">
  <ele>1583.56</ele>
  <time>2026-08-27T18:26:50Z</time>
  <course>274.52</course>
  <speed>0.0</speed>
  <fix>3d</fix>
</trkpt>
<trkpt lat="40.0738335" lon="-105.230168">
  <ele>1583.64</ele>
  <time>2026-08-27T18:26:50Z</time>
  <course>14.5</course>
  <speed>0.022360679774997897</speed>
  <fix>3d</fix>
</trkpt>
<trkpt lat="40.0738334" lon="-105.2301679">
  <ele>1583.56</ele>
  <time>2026-08-27T18:26:50Z</time>
  <course>272.79</course>
  <speed>0.0</speed>
  <fix>3d</fix>
</trkpt>
<trkpt lat="40.0738335" lon="-105.230168">
  <ele>1583.65</ele>
  <time>2026-08-27T18:26:50Z</time>
  <course>14.48</course>
  <speed>0.022360679774997897</speed>
  <fix>3d</fix>
</trkpt>
<trkpt lat="40.0738334" lon="-105.2301679">
  <ele>1583.56</ele>
  <time>2026-08-27T18:26:50Z</time>
  <course>270.83</course>
  <speed>0.0</speed>
  <fix>3d</fix>
</trkpt>
<trkpt lat="40.0738335" lon="-105.230168">
  <ele>1583.65</ele>
  <time>2026-08-27T18:26:50Z</time>
  <course>14.45</course>
  <speed>0.022360679774997897</speed>
  <fix>3d</fix>
</trkpt>
<trkpt lat="40.0738334" lon="-105.2301679">
  <ele>1583.56</ele>
  <time>2026-08-27T18:26:50Z</time>
  <course>274.18</course>
  <speed>0.0</speed>
  <fix>3d</fix>
</trkpt>
<trkpt lat="40.0738335" lon="-105.230168">
  <ele>1583.65</ele>
  <time>2026-08-27T18:26:50Z</time>
  <course>14.43</course>
  <speed>0.022360679774997897</speed>
  <fix>3d</fix>
</trkpt>
<trkpt lat="40.0738334" lon="-105.2301679">
  <ele>1583.56</ele>
  <time>2026-08-27T18:26:50Z</time>
  <course>274.38</course>
  <speed>0.0</speed>
  <fix>3d</fix>
</trkpt>
<trkpt lat="40.0738335" lon="-105.230168">
  <ele>1583.65</ele>
  <time>2026-08-27T18:26:50Z</time>
  <course>14.41</course>
  <speed>0.022360679774997897</speed>
  <fix>3d</fix>
</trkpt>
<trkpt lat="40.0738334" lon="-105.2301679">
  <ele>1583.56</ele>
  <time>2026-08-27T18:26:50Z</time>
  <course>272.33</course>
  <speed>0.0</speed>
  <fix>3d</fix>
</trkpt>
<trkpt lat="40.0738335" lon="-105.230168">
  <ele>1583.65</ele>
  <time>2026-08-27T18:26:50Z</time>
  <course>14.38</course>
  <speed>0.022360679774997897</speed>
  <fix>3d</fix>
</trkpt>
<trkpt lat="40.0738334" lon="-105.2301679">
  <ele>1583.56</ele>
  <time>2026-08-27T18:26:50Z</time>
  <course>271.13</course>
  <speed>0.0</speed>
  <fix>3d</fix>
</trkpt>
<trkpt lat="40.0738335" lon="-105.230168">
  <ele>1583.65</ele>
  <time>2026-08-27T18:26:50Z</time>
  <course>14.36</course>
  <speed>0.022360679774997897</speed>
  <fix>3d</fix>
</trkpt>
<trkpt lat="40.0738334" lon="-105.2301679">
  <ele>1583.56</ele>
  <time>2026-08-27T18:26:50Z</time>
  <course>273.55</course>
  <speed>0.0</speed>
  <fix>3d</fix>
</trkpt>
<trkpt lat="40.0738335" lon="-105.230168">
  <ele>1583.65</ele>
  <time>2026-08-27T18:26:50Z</time>
  <course>14.33</course>
  <speed>0.022360679774997897</speed>
  <fix>3d</fix>
</trkpt>
<trkpt lat="40.0738334" lon="-105.2301679">
  <ele>1583.56</ele>
  <time>2026-08-27T18:26:50Z</time>
  <course>274.21</course>
  <speed>0.0</speed>
  <fix>3d</fix>
</trkpt>
<trkpt lat="40.0738335" lon="-105.230168">
  <ele>1583.65</ele>
  <time>2026-08-27T18:26:50Z</time>
  <course>14.31</course>
  <speed>0.022360679774997897</speed>
  <fix>3d</fix>
</trkpt>
<trkpt lat="40.0738334" lon="-105.2301679">
  <ele>1583.56</ele>
  <time>2026-08-27T18:26:50Z</time>
  <course>273.36</course>
  <speed>0.0</speed>
  <fix>3d</fix>
</trkpt>
<trkpt lat="40.0738335" lon="-105.230168">
  <ele>1583.65</ele>
  <time>2026-08-27T18:26:50Z</time>
  <course>14.29</course>
  <speed>0.022360679774997897</speed>
  <fix>3d</fix>
</trkpt>
<trkpt lat="40.0738334" lon="-105.2301679">
  <ele>1583.56</ele>
  <time>2026-08-27T18:26:50Z</time>
  <course>271.0</course>
  <speed>0.0</speed>
  <fix>3d</fix>
</trkpt>
<trkpt lat="40.0738335" lon="-105.230168">
  <ele>1583.66</ele>
  <time>2026-08-27T18:26:50Z</time>
  <course>14.27</course>
  <speed>0.022360679774997897</speed>
  <fix>3d</fix>
</trkpt>
<trkpt lat="40.0738334" lon="-105.2301679">
  <ele>1583.56</ele>
  <time>2026-08-27T18:26:50Z</time>
  <course>272.51</course>
  <speed>0.0</speed>
  <fix>3d</fix>
</trkpt>
<trkpt lat="40.0738335" lon="-105.230168">
  <ele>1583.65</ele>
  <time>2026-08-27T18:26:50Z</time>
  <course>14.25</course>
  <speed>0.022360679774997897</speed>
  <fix>3d</fix>
</trkpt>
<trkpt lat="40.0738334" lon="-105.2301679">
  <ele>1583.56</ele>
  <time>2026-08-27T18:26:50Z</time>
  <course>264.94</course>
  <speed>0.0</speed>
  <fix>3d</fix>
</trkpt>
<trkpt lat="40.0738335" lon="-105.230168">
  <ele>1583.65</ele>
  <time>2026-08-27T18:26:50Z</time>
  <course>14.24</course>
  <speed>0.022360679774997897</speed>
  <fix>3d</fix>
</trkpt>
<trkpt lat="40.0738334" lon="-105.2301679">
  <ele>1583.56</ele>
  <time>2026-08-27T18:26:50Z</time>
  <course>265.31</course>
  <speed>0.0</speed>
  <fix>3d</fix>
</trkpt>
<trkpt lat="40.0738335" lon="-105.230168">
  <ele>1583.65</ele>
  <time>2026-08-27T18:26:50Z</time>
  <course>14.22</course>
  <speed>0.022360679774997897</speed>
  <fix>3d</fix>
</trkpt>
<trkpt lat="40.0738334" lon="-105.2301679">
  <ele>1583.56</ele>
  <time>2026-08-27T18:26:50Z</time>
  <course>270.59</course>
  <speed>0.0</speed>
  <fix>3d</fix>
</trkpt>
<trkpt lat="40.0738335" lon="-105.230168">
  <ele>1583.65</ele>
  <time>2026-08-27T18:26:50Z</time>
  <course>14.22</course>
  <speed>0.022360679774997897</speed>
  <fix>3d</fix>
</trkpt>
<trkpt lat="40.0738335" lon="-105.230168">
  <ele>1583.65</ele>
  <time>2026-08-27T18:26:50Z</time>
  <course>14.2</course>
  <speed>0.022360679774997897</speed>
  <fix>3d</fix>
</trkpt>
<trkpt lat="40.0738334" lon="-105.2301679">
  <ele>1583.56</ele>
  <time>2026-08-27T18:26:50Z</time>
  <course>268.99</course>
  <speed>0.0</speed>
  <fix>3d</fix>
</trkpt>
<trkpt lat="40.0738335" lon="-105.230168">
  <ele>1583.65</ele>
  <time>2026-08-27T18:26:50Z</time>
  <course>14.19</course>
  <speed>0.022360679774997897</speed>
  <fix>3d</fix>
</trkpt>
<trkpt lat="40.0738335" lon="-105.230168">
  <ele>1583.65</ele>
  <time>2026-08-27T18:26:50Z</time>
  <course>14.16</course>
  <speed>0.022360679774997897</speed>
  <fix>3d</fix>
</trkpt>
<trkpt lat="40.0738334" lon="-105.2301679">
  <ele>1583.56</ele>
  <time>2026-08-27T18:26:50Z</time>
  <course>267.7</course>
  <speed>0.0</speed>
  <fix>3d</fix>
</trkpt>
<trkpt lat="40.0738335" lon="-105.230168">
  <ele>1583.65</ele>
  <time>2026-08-27T18:26:50Z</time>
  <course>14.16</course>
  <speed>0.022360679774997897</speed>
  <fix>3d</fix>
</trkpt>
<trkpt lat="40.0738335" lon="-105.230168">
  <ele>1583.67</ele>
  <time>2026-08-27T18:26:50Z</time>
  <course>14.1</course>
  <speed>0.022360679774997897</speed>
  <fix>3d</fix>
</trkpt>
<trkpt lat="40.0738334" lon="-105.2301679">
  <ele>1583.56</ele>
  <time>2026-08-27T18:26:50Z</time>
  <course>269.78</course>
  <speed>0.0</speed>
  <fix>3d</fix>
</trkpt>
<trkpt lat="40.0738335" lon="-105.230168">
  <ele>1583.68</ele>
  <time>2026-08-27T18:26:50Z</time>
  <course>14.09</course>
  <speed>0.022360679774997897</speed>
  <fix>3d</fix>
</trkpt>
<trkpt lat="40.0738335" lon="-105.230168">
  <ele>1583.73</ele>
  <time>2026-08-27T18:26:50Z</time>
  <course>14.02</course>
  <speed>0.022360679774997897</speed>
  <fix>3d</fix>
</trkpt>
<trkpt lat="40.0738334" lon="-105.2301679">
  <ele>1583.58</ele>
  <time>2026-08-27T18:26:50Z</time>
  <course>268.68</course>
  <speed>0.0</speed>
  <fix>3d</fix>
</trkpt>
<trkpt lat="40.0738335" lon="-105.230168">
  <ele>1583.74</ele>
  <time>2026-08-27T18:26:50Z</time>
  <course>14.01</course>
  <speed>0.022360679774997897</speed>
  <fix>3d</fix>
</trkpt>
<trkpt lat="40.0738335" lon="-105.230168">
  <ele>1583.83</ele>
  <time>2026-08-27T18:26:50Z</time>
  <course>10.66</course>
  <speed>0.03605551275463989</speed>
  <fix>3d</fix>
</trkpt>
<trkpt lat="40.0738334" lon="-105.2301679">
  <ele>1583.63</ele>
  <time>2026-08-27T18:26:50Z</time>
  <course>273.1</course>
  <speed>0.0</speed>
  <fix>3d</fix>
</trkpt>
<trkpt lat="40.0738335" lon="-105.230168">
  <ele>1583.86</ele>
  <time>2026-08-27T18:26:50Z</time>
  <course>9.17</course>
  <speed>0.053851648071345036</speed>
  <fix>3d</fix>
</trkpt>
<trkpt lat="40.0738335" lon="-105.2301683">
  <ele>1584.16</ele>
  <time>2026-08-27T18:26:50Z</time>
  <course>5.1</course>
  <speed>0.2109502310972899</speed>
  <fix>3d</fix>
</trkpt>
<trkpt lat="40.0738334" lon="-105.2301679">
  <ele>1583.74</ele>
  <time>2026-08-27T18:26:50Z</time>
  <course>264.08</course>
  <speed>0.04</speed>
  <fix>3d</fix>
</trkpt>
<trkpt lat="40.0738335" lon="-105.2301683">
  <ele>1584.16</ele>
  <time>2026-08-27T18:26:50Z</time>
  <course>5.1</course>
  <speed>0.2109502310972899</speed>
  <fix>3d</fix>
</trkpt>
<trkpt lat="40.0738335" lon="-105.2301688">
  <ele>1584.54</ele>
  <time>2026-08-27T18:26:50Z</time>
  <course>4.16</course>
  <speed>0.2601922366251538</speed>
  <fix>3d</fix>
</trkpt>
<trkpt lat="40.0738334" lon="-105.230168">
  <ele>1584.0</ele>
  <time>2026-08-27T18:26:50Z</time>
  <course>260.3</course>
  <speed>0.15</speed>
  <fix>3d</fix>
</trkpt>
<trkpt lat="40.0738335" lon="-105.2301689">
  <ele>1584.59</ele>
  <time>2026-08-27T18:26:50Z</time>
  <course>3.94</course>
  <speed>0.260768096208106</speed>
  <fix>3d</fix>
</trkpt>
<trkpt lat="40.0738334" lon="-105.2301694">
  <ele>1584.93</ele>
  <time>2026-08-27T18:26:50Z</time>
  <course>2.49</course>
  <speed>0.2692582403567252</speed>
  <fix>3d</fix>
</trkpt>
<trkpt lat="40.0738332" lon="-105.2301685">
  <ele>1584.38</ele>
  <time>2026-08-27T18:26:50Z</time>
  <course>253.47</course>
  <speed>0.24</speed>
  <fix>3d</fix>
</trkpt>
<trkpt lat="40.0738334" lon="-105.2301694">
  <ele>1584.93</ele>
  <time>2026-08-27T18:26:50Z</time>
  <course>2.46</course>
  <speed>0.2692582403567252</speed>
  <fix>3d</fix>
</trkpt>
<trkpt lat="40.0738331" lon="-105.2301698">
  <ele>1585.36</ele>
  <time>2026-08-27T18:26:50Z</time>
  <course>1.32</course>
  <speed>0.24698178070456936</speed>
  <fix>3d</fix>
</trkpt>
<trkpt lat="40.0738331" lon="-105.2301691">
  <ele>1584.78</ele>
  <time>2026-08-27T18:26:50Z</time>
  <course>242.04</course>
  <speed>0.27</speed>
  <fix>3d</fix>
</trkpt>
<trkpt lat="40.0738331" lon="-105.2301699">
  <ele>1585.43</ele>
  <time>2026-08-27T18:26:50Z</time>
  <course>1.21</course>
  <speed>0.24413111231467405</speed>
  <fix>3d</fix>
</trkpt>
<trkpt lat="40.0738328" lon="-105.2301702">
  <ele>1585.83</ele>
  <time>2026-08-27T18:26:50Z</time>
  <course>0.77</course>
  <speed>0.22022715545545238</speed>
  <fix>3d</fix>
</trkpt>
<trkpt lat="40.0738328" lon="-105.2301696">
  <ele>1585.2</ele>
  <time>2026-08-27T18:26:50Z</time>
  <course>227.81</course>
  <speed>0.26</speed>
  <fix>3d</fix>
</trkpt>
<trkpt lat="40.0738327" lon="-105.2301702">
  <ele>1585.9</ele>
  <time>2026-08-27T18:26:50Z</time>
  <course>0.72</course>
  <speed>0.2220360331117452</speed>
  <fix>3d</fix>
</trkpt>
<trkpt lat="40.0738323" lon="-105.2301704">
  <ele>1586.31</ele>
  <time>2026-08-27T18:26:50Z</time>
  <course>0.55</course>
  <speed>0.19924858845171275</speed>
  <fix>3d</fix>
</trkpt>
<trkpt lat="40.0738324" lon="-105.23017">
  <ele>1585.65</ele>
  <time>2026-08-27T18:26:50Z</time>
  <course>211.55</course>
  <speed>0.24</speed>
  <fix>3d</fix>
</trkpt>
<trkpt lat="40.0738323" lon="-105.2301704">
  <ele>1586.31</ele>
  <time>2026-08-27T18:26:50Z</time>
  <course>0.55</course>
  <speed>0.19924858845171275</speed>
  <fix>3d</fix>
</trkpt>
<trkpt lat="40.0738319" lon="-105.2301704">
  <ele>1586.8</ele>
  <time>2026-08-27T18:26:50Z</time>
  <course>0.48</course>
  <speed>0.19</speed>
  <fix>3d</fix>
</trkpt>
<trkpt lat="40.0738321" lon="-105.2301702">
  <ele>1586.12</ele>
  <time>2026-08-27T18:26:50Z</time>
  <course>194.02</course>
  <speed>0.21</speed>
  <fix>3d</fix>
</trkpt>
<trkpt lat="40.0738319" lon="-105.2301704">
  <ele>1586.8</ele>
  <time>2026-08-27T18:26:50Z</time>
  <course>0.42</course>
  <speed>0.19</speed>
  <fix>3d</fix>
</trkpt>
<trkpt lat="40.0738315" lon="-105.2301703">
  <ele>1587.3</ele>
  <time>2026-08-27T18:26:50Z</time>
  <course>356.93</course>
  <speed>0.18439088914585774</speed>
  <fix>3d</fix>
</trkpt>
<trkpt lat="40.0738317" lon="-105.2301703">
  <ele>1586.6</ele>
  <time>2026-08-27T18:26:50Z</time>
  <course>177.21</course>
  <speed>0.19</speed>
  <fix>3d</fix>
</trkpt>
<trkpt lat="40.0738315" lon="-105.2301703">
  <ele>1587.36</ele>
  <time>2026-08-27T18:26:50Z</time>
  <course>356.85</course>
  <speed>0.18681541692269404</speed>
  <fix>3d</fix>
</trkpt>
<trkpt lat="40.0738312" lon="-105.2301702">
  <ele>1587.8</ele>
  <time>2026-08-27T18:26:50Z</time>
  <course>357.91</course>
  <speed>0.17492855684535902</speed>
  <fix>3d</fix>
</trkpt>
<trkpt lat="40.0738314" lon="-105.2301702">
  <ele>1587.09</ele>
  <time>2026-08-27T18:26:50Z</time>
  <course>160.5</course>
  <speed>0.17</speed>
  <fix>3d</fix>
</trkpt>
<trkpt lat="40.0738312" lon="-105.2301702">
  <ele>1587.81</ele>
  <time>2026-08-27T18:26:50Z</time>
  <course>357.93</course>
  <speed>0.17492855684535902</speed>
  <fix>3d</fix>
</trkpt>
<trkpt lat="40.073831" lon="-105.2301699">
  <ele>1588.31</ele>
  <time>2026-08-27T18:26:50Z</time>
  <course>359.73</course>
  <speed>0.1664331697709324</speed>
  <fix>3d</fix>
</trkpt>
<trkpt lat="40.0738312" lon="-105.23017">
  <ele>1587.58</ele>
  <time>2026-08-27T18:26:50Z</time>
  <course>137.14</course>
  <speed>0.14</speed>
  <fix>3d</fix>
</trkpt>
<trkpt lat="40.073831" lon="-105.2301698">
  <ele>1588.38</ele>
  <time>2026-08-27T18:26:50Z</time>
  <course>359.94</course>
  <speed>0.16124515496597097</speed>
  <fix>3d</fix>
</trkpt>
<trkpt lat="40.073831" lon="-105.2301695">
  <ele>1588.81</ele>
  <time>2026-08-27T18:26:50Z</time>
  <course>1.07</course>
  <speed>0.17029386365926402</speed>
  <fix>3d</fix>
</trkpt>
<trkpt lat="40.073831" lon="-105.2301698">
  <ele>1588.08</ele>
  <time>2026-08-27T18:26:50Z</time>
  <course>105.16</course>
  <speed>0.14</speed>
  <fix>3d</fix>
</trkpt>
<trkpt lat="40.073831" lon="-105.2301695">
  <ele>1588.81</ele>
  <time>2026-08-27T18:26:50Z</time>
  <course>1.08</course>
  <speed>0.17029386365926402</speed>
  <fix>3d</fix>
</trkpt>
<trkpt lat="40.0738311" lon="-105.2301691">
  <ele>1589.3</ele>
  <time>2026-08-27T18:26:50Z</time>
  <course>2.13</course>
  <speed>0.18027756377319945</speed>
  <fix>3d</fix>
</trkpt>
<trkpt lat="40.073831" lon="-105.2301694">
  <ele>1588.57</ele>
  <time>2026-08-27T18:26:50Z</time>
  <course>77.18</course>
  <speed>0.17</speed>
  <fix>3d</fix>
</trkpt>
<trkpt lat="40.0738311" lon="-105.230169">
  <ele>1589.37</ele>
  <time>2026-08-27T18:26:50Z</time>
  <course>2.26</course>
  <speed>0.18384776310850234</speed>
  <fix>3d</fix>
</trkpt>
<trkpt lat="40.0738313" lon="-105.2301687">
  <ele>1589.79</ele>
  <time>2026-08-27T18:26:50Z</time>
  <course>3.01</course>
  <speed>0.2</speed>
  <fix>3d</fix>
</trkpt>
<trkpt lat="40.0738311" lon="-105.2301691">
  <ele>1589.07</ele>
  <time>2026-08-27T18:26:50Z</time>
  <course>58.12</course>
  <speed>0.2</speed>
  <fix>3d</fix>
</trkpt>
<trkpt lat="40.0738314" lon="-105.2301686">
  <ele>1589.87</ele>
  <time>2026-08-27T18:26:50Z</time>
  <course>3.13</course>
  <speed>0.20615528128088303</speed>
  <fix>3d</fix>
</trkpt>
<trkpt lat="40.0738316" lon="-105.2301683">
  <ele>1590.29</ele>
  <time>2026-08-27T18:26:50Z</time>
  <course>3.77</course>
  <speed>0.20615528128088303</speed>
  <fix>3d</fix>
</trkpt>
<trkpt lat="40.0738313" lon="-105.2301686">
  <ele>1589.56</ele>
  <time>2026-08-27T18:26:50Z</time>
  <course>44.86</course>
  <speed>0.22</speed>
  <fix>3d</fix>
</trkpt>
<trkpt lat="40.0738316" lon="-105.2301683">
  <ele>1590.36</ele>
  <time>2026-08-27T18:26:50Z</time>
  <course>3.86</course>
  <speed>0.21400934559032694</speed>
  <fix>3d</fix>
</trkpt>
<trkpt lat="40.073832" lon="-105.230168">
  <ele>1590.79</ele>
  <time>2026-08-27T18:26:50Z</time>
  <course>4.42</course>
  <speed>0.21470910553583888</speed>
  <fix>3d</fix>
</trkpt>
<trkpt lat="40.0738316" lon="-105.2301683">
  <ele>1590.05</ele>
  <time>2026-08-27T18:26:50Z</time>
  <course>34.89</course>
  <speed>0.24</speed>
  <fix>3d</fix>
</trkpt>
<trkpt lat="40.073832" lon="-105.230168">
  <ele>1590.86</ele>
  <time>2026-08-27T18:26:50Z</time>
  <course>4.51</course>
  <speed>0.21470910553583888</speed>
  <fix>3d</fix>
</trkpt>
<trkpt lat="40.0738324" lon="-105.2301678">
  <ele>1591.29</ele>
  <time>2026-08-27T18:26:50Z</time>
  <course>5.02</course>
  <speed>0.21540659228538014</speed>
  <fix>3d</fix>
</trkpt>
<trkpt lat="40.0738319" lon="-105.230168">
  <ele>1590.55</ele>
  <time>2026-08-27T18:26:50Z</time>
  <course>27.0</course>
  <speed>0.24</speed>
  <fix>3d</fix>
</trkpt>
<trkpt lat="40.0738324" lon="-105.2301678">
  <ele>1591.29</ele>
  <time>2026-08-27T18:26:50Z</time>
  <course>5.02</course>
  <speed>0.21540659228538014</speed>
  <fix>3d</fix>
</trkpt>
<trkpt lat="40.0738328" lon="-105.2301677">
  <ele>1591.79</ele>
  <time>2026-08-27T18:26:50Z</time>
  <course>5.54</course>
  <speed>0.20615528128088303</speed>
  <fix>3d</fix>
</trkpt>
<trkpt lat="40.0738324" lon="-105.2301678">
  <ele>1591.04</ele>
  <time>2026-08-27T18:26:50Z</time>
  <course>20.67</course>
  <speed>0.23</speed>
  <fix>3d</fix>
</trkpt>
<trkpt lat="40.0738328" lon="-105.2301676">
  <ele>1591.87</ele>
  <time>2026-08-27T18:26:50Z</time>
  <course>5.61</course>
  <speed>0.20615528128088303</speed>
  <fix>3d</fix>
</trkpt>
<trkpt lat="40.0738332" lon="-105.2301676">
  <ele>1592.29</ele>
  <time>2026-08-27T18:26:50Z</time>
  <course>6.03</course>
  <speed>0.19235384061671343</speed>
  <fix>3d</fix>
</trkpt>
<trkpt lat="40.0738328" lon="-105.2301676">
  <ele>1591.54</ele>
  <time>2026-08-27T18:26:50Z</time>
  <course>15.46</course>
  <speed>0.22</speed>
  <fix>3d</fix>
</trkpt>
<trkpt lat="40.0738332" lon="-105.2301675">
  <ele>1592.37</ele>
  <time>2026-08-27T18:26:50Z</time>
  <course>6.1</course>
  <speed>0.191049731745428</speed>
  <fix>3d</fix>
</trkpt>
<trkpt lat="40.0738335" lon="-105.2301675">
  <ele>1592.79</ele>
  <time>2026-08-27T18:26:50Z</time>
  <course>6.5</course>
  <speed>0.17029386365926402</speed>
  <fix>3d</fix>
</trkpt>
<trkpt lat="40.0738331" lon="-105.2301675">
  <ele>1592.04</ele>
  <time>2026-08-27T18:26:50Z</time>
  <course>10.9</course>
  <speed>0.2</speed>
  <fix>3d</fix>
</trkpt>
<trkpt lat="40.0738335" lon="-105.2301675">
  <ele>1592.8</ele>
  <time>2026-08-27T18:26:50Z</time>
  <course>6.51</course>
  <speed>0.17029386365926402</speed>
  <fix>3d</fix>
</trkpt>
<trkpt lat="40.0738338" lon="-105.2301675">
  <ele>1593.3</ele>
  <time>2026-08-27T18:26:50Z</time>
  <course>6.92</course>
  <speed>0.15</speed>
  <fix>3d</fix>
</trkpt>
<trkpt lat="40.0738335" lon="-105.2301674">
  <ele>1592.54</ele>
  <time>2026-08-27T18:26:50Z</time>
  <course>6.87</course>
  <speed>0.18</speed>
  <fix>3d</fix>
</trkpt>
<trkpt lat="40.0738339" lon="-105.2301675">
  <ele>1593.36</ele>
  <time>2026-08-27T18:26:50Z</time>
  <course>6.97</course>
  <speed>0.15</speed>
  <fix>3d</fix>
</trkpt>
<trkpt lat="40.0738341" lon="-105.2301675">
  <ele>1593.8</ele>
  <time>2026-08-27T18:26:50Z</time>
  <course>7.31</course>
  <speed>0.130384048104053</speed>
  <fix>3d</fix>
</trkpt>
<trkpt lat="40.0738338" lon="-105.2301674">
  <ele>1593.03</ele>
  <time>2026-08-27T18:26:50Z</time>
  <course>3.15</course>
  <speed>0.16</speed>
  <fix>3d</fix>
</trkpt>
<trkpt lat="40.0738341" lon="-105.2301675">
  <ele>1593.8</ele>
  <time>2026-08-27T18:26:50Z</time>
  <course>7.31</course>
  <speed>0.130384048104053</speed>
  <fix>3d</fix>
</trkpt>
<trkpt lat="40.0738343" lon="-105.2301675">
  <ele>1594.3</ele>
  <time>2026-08-27T18:26:50Z</time>
  <course>7.69</course>
  <speed>0.1118033988749895</speed>
  <fix>3d</fix>
</trkpt>
<trkpt lat="40.0738341" lon="-105.2301674">
  <ele>1593.53</ele>
  <time>2026-08-27T18:26:50Z</time>
  <course>359.47</course>
  <speed>0.14</speed>
  <fix>3d</fix>
</trkpt>
<trkpt lat="40.0738344" lon="-105.2301675">
  <ele>1594.4</ele>
  <time>2026-08-27T18:26:50Z</time>
  <course>7.75</course>
  <speed>0.1019803902718557</speed>
  <fix>3d</fix>
</trkpt>
<trkpt lat="40.0738345" lon="-105.2301676">
  <ele>1594.8</ele>
  <time>2026-08-27T18:26:50Z</time>
  <course>8.01</course>
  <speed>0.0854400374531753</speed>
  <fix>3d</fix>
</trkpt>
<trkpt lat="40.0738343" lon="-105.2301674">
  <ele>1594.02</ele>
  <time>2026-08-27T18:26:50Z</time>
  <course>355.67</course>
  <speed>0.11</speed>
  <fix>3d</fix>
</trkpt>
<trkpt lat="40.0738345" lon="-105.2301676">
  <ele>1594.87</ele>
  <time>2026-08-27T18:26:50Z</time>
  <course>8.05</course>
  <speed>0.0854400374531753</speed>
  <fix>3d</fix>
</trkpt>
<trkpt lat="40.0738346" lon="-105.2301675">
  <ele>1595.3</ele>
  <time>2026-08-27T18:26:50Z</time>
  <course>8.34</course>
  <speed>0.05830951894845301</speed>
  <fix>3d</fix>
</trkpt>
<trkpt lat="40.0738345" lon="-105.2301674">
  <ele>1594.52</ele>
  <time>2026-08-27T18:26:50Z</time>
  <course>350.66</course>
  <speed>0.08</speed>
  <fix>3d</fix>
</trkpt>
<trkpt lat="40.0738346" lon="-105.2301675">
  <ele>1595.37</ele>
  <time>2026-08-27T18:26:50Z</time>
  <course>8.37</course>
  <speed>0.05830951894845301</speed>
  <fix>3d</fix>
</trkpt>
<trkpt lat="40.0738347" lon="-105.2301676">
  <ele>1595.79</ele>
  <time>2026-08-27T18:26:50Z</time>
  <course>8.61</course>
  <speed>0.05</speed>
  <fix>3d</fix>
</trkpt>
<trkpt lat="40.0738346" lon="-105.2301674">
  <ele>1595.01</ele>
  <time>2026-08-27T18:26:50Z</time>
  <course>342.63</course>
  <speed>0.06</speed>
  <fix>3d</fix>
</trkpt>
<trkpt lat="40.0738347" lon="-105.2301676">
  <ele>1595.88</ele>
  <time>2026-08-27T18:26:50Z</time>
  <course>8.65</course>
  <speed>0.044721359549995794</speed>
  <fix>3d</fix>
</trkpt>
<trkpt lat="40.0738347" lon="-105.2301676">
  <ele>1596.29</ele>
  <time>2026-08-27T18:26:50Z</time>
  <course>8.89</course>
  <speed>0.04</speed>
  <fix>3d</fix>
</trkpt>
<trkpt lat="40.0738347" lon="-105.2301674">
  <ele>1595.51</ele>
  <time>2026-08-27T18:26:50Z</time>
  <course>326.85</course>
  <speed>0.03</speed>
  <fix>3d</fix>
</trkpt>
<trkpt lat="40.0738347" lon="-105.2301676">
  <ele>1596.36</ele>
  <time>2026-08-27T18:26:50Z</time>
  <course>8.94</course>
  <speed>0.04</speed>
  <fix>3d</fix>
</trkpt>
<trkpt lat="40.0738347" lon="-105.2301677">
  <ele>1596.79</ele>
  <time>2026-08-27T18:26:50Z</time>
  <course>9.19</course>
  <speed>0.0412310562561766</speed>
  <fix>3d</fix>
</trkpt>
<trkpt lat="40.0738348" lon="-105.2301674">
  <ele>1596.01</ele>
  <time>2026-08-27T18:26:50Z</time>
  <course>285.32</course>
  <speed>0.02</speed>
  <fix>3d</fix>
</trkpt>
<trkpt lat="40.0738347" lon="-105.2301677">
  <ele>1596.8</ele>
  <time>2026-08-27T18:26:50Z</time>
  <course>9.19</course>
  <speed>0.0412310562561766</speed>
  <fix>3d</fix>
</trkpt>
<trkpt lat="40.0738347" lon="-105.2301677">
  <ele>1597.29</ele>
  <time>2026-08-27T18:26:50Z</time>
  <course>9.45</course>
  <speed>0.05</speed>
  <fix>3d</fix>
</trkpt>
<trkpt lat="40.0738348" lon="-105.2301675">
  <ele>1596.5</ele>
  <time>2026-08-27T18:26:50Z</time>
  <course>229.08</course>
  <speed>0.02</speed>
  <fix>3d</fix>
</trkpt>
<trkpt lat="40.0738347" lon="-105.2301677">
  <ele>1597.36</ele>
  <time>2026-08-27T18:26:50Z</time>
  <course>9.49</course>
  <speed>0.05</speed>
  <fix>3d</fix>
</trkpt>
<trkpt lat="40.0738347" lon="-105.2301677">
  <ele>1597.79</ele>
  <time>2026-08-27T18:26:50Z</time>
  <course>9.71</course>
  <speed>0.05</speed>
  <fix>3d</fix>
</trkpt>
<trkpt lat="40.0738348" lon="-105.2301676">
  <ele>1597.0</ele>
  <time>2026-08-27T18:26:50Z</time>
  <course>205.98</course>
  <speed>0.03</speed>
  <fix>3d</fix>
</trkpt>
<trkpt lat="40.0738347" lon="-105.2301677">
  <ele>1597.86</ele>
  <time>2026-08-27T18:26:50Z</time>
  <course>9.73</course>
  <speed>0.05</speed>
  <fix>3d</fix>
</trkpt>
<trkpt lat="40.0738346" lon="-105.2301678">
  <ele>1598.28</ele>
  <time>2026-08-27T18:26:50Z</time>
  <course>9.9</course>
  <speed>0.05830951894845301</speed>
  <fix>3d</fix>
</trkpt>
<trkpt lat="40.0738347" lon="-105.2301676">
  <ele>1597.49</ele>
  <time>2026-08-27T18:26:50Z</time>
  <course>196.62</course>
  <speed>0.05</speed>
  <fix>3d</fix>
</trkpt>
<trkpt lat="40.0738346" lon="-105.2301678">
  <ele>1598.35</ele>
  <time>2026-08-27T18:26:50Z</time>
  <course>9.93</course>
  <speed>0.05830951894845301</speed>
  <fix>3d</fix>
</trkpt>
<trkpt lat="40.0738345" lon="-105.2301678">
  <ele>1598.78</ele>
  <time>2026-08-27T18:26:50Z</time>
  <course>10.16</course>
  <speed>0.0670820393249937</speed>
  <fix>3d</fix>
</trkpt>
<trkpt lat="40.0738346" lon="-105.2301676">
  <ele>1597.99</ele>
  <time>2026-08-27T18:26:50Z</time>
  <course>191.87</course>
  <speed>0.06</speed>
  <fix>3d</fix>
</trkpt>
<trkpt lat="40.0738345" lon="-105.2301678">
  <ele>1598.79</ele>
  <time>2026-08-27T18:26:50Z</time>
  <course>10.16</course>
  <speed>0.0670820393249937</speed>
  <fix>3d</fix>
</trkpt>
<trkpt lat="40.0738344" lon="-105.2301678">
  <ele>1599.28</ele>
  <time>2026-08-27T18:26:50Z</time>
  <course>10.39</course>
  <speed>0.0670820393249937</speed>
  <fix>3d</fix>
</trkpt>
<trkpt lat="40.0738345" lon="-105.2301677">
  <ele>1598.49</ele>
  <time>2026-08-27T18:26:50Z</time>
  <course>188.9</course>
  <speed>0.07</speed>
  <fix>3d</fix>
</trkpt>
<trkpt lat="40.0738344" lon="-105.2301678">
  <ele>1599.35</ele>
  <time>2026-08-27T18:26:50Z</time>
  <course>10.42</course>
  <speed>0.0632455532033676</speed>
  <fix>3d</fix>
</trkpt>
<trkpt lat="40.0738342" lon="-105.2301678">
  <ele>1599.77</ele>
  <time>2026-08-27T18:26:50Z</time>
  <course>10.59</course>
  <speed>0.0632455532033676</speed>
  <fix>3d</fix>
</trkpt>
<trkpt lat="40.0738343" lon="-105.2301677">
  <ele>1598.98</ele>
  <time>2026-08-27T18:26:50Z</time>
  <course>186.55</course>
  <speed>0.07</speed>
  <fix>3d</fix>
</trkpt>
<trkpt lat="40.0738342" lon="-105.2301678">
  <ele>1599.84</ele>
  <time>2026-08-27T18:26:50Z</time>
  <course>10.63</course>
  <speed>0.0632455532033676</speed>
  <fix>3d</fix>
</trkpt>
<trkpt lat="40.0738341" lon="-105.2301678">
  <ele>1600.27</ele>
  <time>2026-08-27T18:26:50Z</time>
  <course>10.83</course>
  <speed>0.0632455532033676</speed>
  <fix>3d</fix>
</trkpt>
<trkpt lat="40.0738342" lon="-105.2301677">
  <ele>1599.48</ele>
  <time>2026-08-27T18:26:50Z</time>
  <course>184.92</course>
  <speed>0.08</speed>
  <fix>3d</fix>
</trkpt>
<trkpt lat="40.0738341" lon="-105.2301678">
  <ele>1600.34</ele>
  <time>2026-08-27T18:26:50Z</time>
  <course>10.86</course>
  <speed>0.0632455532033676</speed>
  <fix>3d</fix>
</trkpt>
<trkpt lat="40.073834" lon="-105.2301678">
  <ele>1600.76</ele>
  <time>2026-08-27T18:26:50Z</time>
  <course>11.02</course>
  <speed>0.0632455532033676</speed>
  <fix>3d</fix>
</trkpt>
<trkpt lat="40.0738341" lon="-105.2301677">
  <ele>1599.98</ele>
  <time>2026-08-27T18:26:50Z</time>
  <course>183.5</course>
  <speed>0.08</speed>
  <fix>3d</fix>
</trkpt>
<trkpt lat="40.073834" lon="-105.2301678">
  <ele>1600.83</ele>
  <time>2026-08-27T18:26:50Z</time>
  <course>11.05</course>
  <speed>0.053851648071345036</speed>
  <fix>3d</fix>
</trkpt>
<trkpt lat="40.0738339" lon="-105.2301678">
  <ele>1601.26</ele>
  <time>2026-08-27T18:26:50Z</time>
  <course>11.23</course>
  <speed>0.053851648071345036</speed>
  <fix>3d</fix>
</trkpt>
<trkpt lat="40.0738339" lon="-105.2301677">
  <ele>1600.48</ele>
  <time>2026-08-27T18:26:50Z</time>
  <course>182.22</course>
  <speed>0.07</speed>
  <fix>3d</fix>
</trkpt>
<trkpt lat="40.0738338" lon="-105.2301678">
  <ele>1601.33</ele>
  <time>2026-08-27T18:26:50Z</time>
  <course>11.26</course>
  <speed>0.05099019513592785</speed>
  <fix>3d</fix>
</trkpt>
<trkpt lat="40.0738338" lon="-105.2301678">
  <ele>1601.76</ele>
  <time>2026-08-27T18:26:50Z</time>
  <course>11.43</course>
  <speed>0.0412310562561766</speed>
  <fix>3d</fix>
</trkpt>
<trkpt lat="40.0738338" lon="-105.2301677">
  <ele>1600.98</ele>
  <time>2026-08-27T18:26:50Z</time>
  <course>181.41</course>
  <speed>0.07</speed>
  <fix>3d</fix>
</trkpt>
<trkpt lat="40.0738338" lon="-105.2301678">
  <ele>1601.77</ele>
  <time>2026-08-27T18:26:50Z</time>
  <course>11.44</course>
  <speed>0.0412310562561766</speed>
  <fix>3d</fix>
</trkpt>
<trkpt lat="40.0738337" lon="-105.2301678">
  <ele>1602.26</ele>
  <time>2026-08-27T18:26:50Z</time>
  <course>11.63</course>
  <speed>0.0316227766016838</speed>
  <fix>3d</fix>
</trkpt>
<trkpt lat="40.0738337" lon="-105.2301677">
  <ele>1601.48</ele>
  <time>2026-08-27T18:26:50Z</time>
  <course>181.18</course>
  <speed>0.06</speed>
  <fix>3d</fix>
</trkpt>
<trkpt lat="40.0738336" lon="-105.2301678">
  <ele>1602.33</ele>
  <time>2026-08-27T18:26:50Z</time>
  <course>11.65</course>
  <speed>0.0316227766016838</speed>
  <fix>3d</fix>
</trkpt>
<trkpt lat="40.0738336" lon="-105.2301678">
  <ele>1602.76</ele>
  <time>2026-08-27T18:26:50Z</time>
  <course>11.84</course>
  <speed>0.022360679774997897</speed>
  <fix>3d</fix>
</trkpt>
<trkpt lat="40.0738336" lon="-105.2301677">
  <ele>1601.98</ele>
  <time>2026-08-27T18:26:50Z</time>
  <course>181.35</course>
  <speed>0.05</speed>
  <fix>3d</fix>
</trkpt>
<trkpt lat="40.0738336" lon="-105.2301678">
  <ele>1602.77</ele>
  <time>2026-08-27T18:26:50Z</time>
  <course>11.84</course>
  <speed>0.022360679774997897</speed>
  <fix>3d</fix>
</trkpt>
<trkpt lat="40.0738335" lon="-105.2301678">
  <ele>1603.26</ele>
  <time>2026-08-27T18:26:50Z</time>
  <course>12.02</course>
  <speed>0.01414213562373095</speed>
  <fix>3d</fix>
</trkpt>
<trkpt lat="40.0738335" lon="-105.2301677">
  <ele>1602.49</ele>
  <time>2026-08-27T18:26:50Z</time>
  <course>181.42</course>
  <speed>0.04</speed>
  <fix>3d</fix>
</trkpt>
<trkpt lat="40.0738335" lon="-105.2301678">
  <ele>1603.33</ele>
  <time>2026-08-27T18:26:50Z</time>
  <course>12.04</course>
  <speed>0.01414213562373095</speed>
  <fix>3d</fix>
</trkpt>
<trkpt lat="40.0738335" lon="-105.2301678">
  <ele>1603.77</ele>
  <time>2026-08-27T18:26:50Z</time>
  <course>12.17</course>
  <speed>0.01</speed>
  <fix>3d</fix>
</trkpt>
<trkpt lat="40.0738334" lon="-105.2301677">
  <ele>1602.99</ele>
  <time>2026-08-27T18:26:50Z</time>
  <course>182.0</course>
  <speed>0.03</speed>
  <fix>3d</fix>
</trkpt>
<trkpt lat="40.0738335" lon="-105.2301678">
  <ele>1603.77</ele>
  <time>2026-08-27T18:26:50Z</time>
  <course>12.18</course>
  <speed>0.01</speed>
  <fix>3d</fix>
</trkpt>
<trkpt lat="40.0738334" lon="-105.2301678">
  <ele>1604.27</ele>
  <time>2026-08-27T18:26:50Z</time>
  <course>12.38</course>
  <speed>0.01</speed>
  <fix>3d</fix>
</trkpt>
<trkpt lat="40.0738334" lon="-105.2301677">
  <ele>1603.49</ele>
  <time>2026-08-27T18:26:50Z</time>
  <course>183.5</course>
  <speed>0.02</speed>
  <fix>3d</fix>
</trkpt>
<trkpt lat="40.0738334" lon="-105.2301678">
  <ele>1604.34</ele>
  <time>2026-08-27T18:26:50Z</time>
  <course>12.41</course>
  <speed>0.01</speed>
  <fix>3d</fix>
</trkpt>
<trkpt lat="40.0738334" lon="-105.2301678">
  <ele>1604.77</ele>
  <time>2026-08-27T18:26:50Z</time>
  <course>12.57</course>
  <speed>0.01</speed>
  <fix>3d</fix>
</trkpt>
<trkpt lat="40.0738333" lon="-105.2301677">
  <ele>1603.99</ele>
  <time>2026-08-27T18:26:50Z</time>
  <course>185.16</course>
  <speed>0.02</speed>
  <fix>3d</fix>
</trkpt>
<trkpt lat="40.0738334" lon="-105.2301678">
  <ele>1604.84</ele>
  <time>2026-08-27T18:26:50Z</time>
  <course>12.59</course>
  <speed>0.01414213562373095</speed>
  <fix>3d</fix>
</trkpt>
<trkpt lat="40.0738334" lon="-105.2301678">
  <ele>1605.28</ele>
  <time>2026-08-27T18:26:50Z</time>
  <course>12.73</course>
  <speed>0.01414213562373095</speed>
  <fix>3d</fix>
</trkpt>
<trkpt lat="40.0738332" lon="-105.2301677">
  <ele>1604.5</ele>
  <time>2026-08-27T18:26:50Z</time>
  <course>186.14</course>
  <speed>0.01</speed>
  <fix>3d</fix>
</trkpt>
<trkpt lat="40.0738334" lon="-105.2301678">
  <ele>1605.35</ele>
  <time>2026-08-27T18:26:50Z</time>
  <course>12.75</course>
  <speed>0.01414213562373095</speed>
  <fix>3d</fix>
</trkpt>
<trkpt lat="40.0738334" lon="-105.2301678">
  <ele>1605.78</ele>
  <time>2026-08-27T18:26:50Z</time>
  <course>12.86</course>
  <speed>0.022360679774997897</speed>
  <fix>3d</fix>
</trkpt>
<trkpt lat="40.0738332" lon="-105.2301677">
  <ele>1605.0</ele>
  <time>2026-08-27T18:26:50Z</time>
  <course>190.25</course>
  <speed>0.0</speed>
  <fix>3d</fix>
</trkpt>
<trkpt lat="40.0738334" lon="-105.2301678">
  <ele>1605.86</ele>
  <time>2026-08-27T18:26:50Z</time>
  <course>12.88</course>
  <speed>0.022360679774997897</speed>
  <fix>3d</fix>
</trkpt>
<trkpt lat="40.0738334" lon="-105.2301678">
  <ele>1606.29</ele>
  <time>2026-08-27T18:26:50Z</time>
  <course>13.02</course>
  <speed>0.0316227766016838</speed>
  <fix>3d</fix>
</trkpt>
<trkpt lat="40.0738332" lon="-105.2301677">
  <ele>1605.5</ele>
  <time>2026-08-27T18:26:50Z</time>
  <course>308.9</course>
  <speed>0.0</speed>
  <fix>3d</fix>
</trkpt>
<trkpt lat="40.0738334" lon="-105.2301678">
  <ele>1606.3</ele>
  <time>2026-08-27T18:26:50Z</time>
  <course>13.02</course>
  <speed>0.0316227766016838</speed>
  <fix>3d</fix>
</trkpt>
<trkpt lat="40.0738334" lon="-105.2301678">
  <ele>1606.79</ele>
  <time>2026-08-27T18:26:50Z</time>
  <course>13.15</course>
  <speed>0.0316227766016838</speed>
  <fix>3d</fix>
</trkpt>
<trkpt lat="40.0738332" lon="-105.2301677">
  <ele>1606.0</ele>
  <time>2026-08-27T18:26:50Z</time>
  <course>349.98</course>
  <speed>0.0</speed>
  <fix>3d</fix>
</trkpt>
<trkpt lat="40.0738334" lon="-105.2301678">
  <ele>1606.87</ele>
  <time>2026-08-27T18:26:50Z</time>
  <course>13.16</course>
  <speed>0.0316227766016838</speed>
  <fix>3d</fix>
</trkpt>
<trkpt lat="40.0738334" lon="-105.2301678">
  <ele>1607.29</ele>
  <time>2026-08-27T18:26:50Z</time>
  <course>13.29</course>
  <speed>0.0316227766016838</speed>
  <fix>3d</fix>
</trkpt>
<trkpt lat="40.0738332" lon="-105.2301677">
  <ele>1606.5</ele>
  <time>2026-08-27T18:26:50Z</time>
  <course>351.72</course>
  <speed>0.01</speed>
  <fix>3d</fix>
</trkpt>
<trkpt lat="40.0738334" lon="-105.2301678">
  <ele>1607.37</ele>
  <time>2026-08-27T18:26:50Z</time>
  <course>13.3</course>
  <speed>0.0316227766016838</speed>
  <fix>3d</fix>
</trkpt>
<trkpt lat="40.0738334" lon="-105.2301678">
  <ele>1607.79</ele>
  <time>2026-08-27T18:26:50Z</time>
  <course>13.39</course>
  <speed>0.0316227766016838</speed>
  <fix>3d</fix>
</trkpt>
<trkpt lat="40.0738332" lon="-105.2301677">
  <ele>1607.0</ele>
  <time>2026-08-27T18:26:50Z</time>
  <course>353.6</course>
  <speed>0.01</speed>
  <fix>3d</fix>
</trkpt>
<trkpt lat="40.0738334" lon="-105.2301678">
  <ele>1607.86</ele>
  <time>2026-08-27T18:26:50Z</time>
  <course>13.41</course>
  <speed>0.0412310562561766</speed>
  <fix>3d</fix>
</trkpt>
<trkpt lat="40.0738334" lon="-105.2301678">
  <ele>1608.29</ele>
  <time>2026-08-27T18:26:50Z</time>
  <course>13.49</course>
  <speed>0.0412310562561766</speed>
  <fix>3d</fix>
</trkpt>
<trkpt lat="40.0738332" lon="-105.2301677">
  <ele>1607.49</ele>
  <time>2026-08-27T18:26:50Z</time>
  <course>356.81</course>
  <speed>0.01</speed>
  <fix>3d</fix>
</trkpt>
<trkpt lat="40.0738334" lon="-105.2301678">
  <ele>1608.35</ele>
  <time>2026-08-27T18:26:50Z</time>
  <course>13.51</course>
  <speed>0.0412310562561766</speed>
  <fix>3d</fix>
</trkpt>
<trkpt lat="40.0738334" lon="-105.2301678">
  <ele>1608.78</ele>
  <time>2026-08-27T18:26:50Z</time>
  <course>13.6</course>
  <speed>0.0412310562561766</speed>
  <fix>3d</fix>
</trkpt>
<trkpt lat="40.0738332" lon="-105.2301677">
  <ele>1607.99</ele>
  <time>2026-08-27T18:26:50Z</time>
  <course>359.48</course>
  <speed>0.01</speed>
  <fix>3d</fix>
</trkpt>
<trkpt lat="40.0738334" lon="-105.2301678">
  <ele>1608.79</ele>
  <time>2026-08-27T18:26:50Z</time>
  <course>13.6</course>
  <speed>0.0412310562561766</speed>
  <fix>3d</fix>
</trkpt>
<trkpt lat="40.0738335" lon="-105.2301678">
  <ele>1609.28</ele>
  <time>2026-08-27T18:26:50Z</time>
  <course>13.71</course>
  <speed>0.0412310562561766</speed>
  <fix>3d</fix>
</trkpt>
<trkpt lat="40.0738332" lon="-105.2301677">
  <ele>1608.49</ele>
  <time>2026-08-27T18:26:50Z</time>
  <course>1.69</course>
  <speed>0.01</speed>
  <fix>3d</fix>
</trkpt>
<trkpt lat="40.0738335" lon="-105.2301678">
  <ele>1609.35</ele>
  <time>2026-08-27T18:26:50Z</time>
  <course>13.73</course>
  <speed>0.0412310562561766</speed>
  <fix>3d</fix>
</trkpt>
<trkpt lat="40.0738335" lon="-105.2301678">
  <ele>1609.77</ele>
  <time>2026-08-27T18:26:50Z</time>
  <course>13.78</course>
  <speed>0.0412310562561766</speed>
  <fix>3d</fix>
</trkpt>
<trkpt lat="40.0738333" lon="-105.2301677">
  <ele>1608.99</ele>
  <time>2026-08-27T18:26:50Z</time>
  <course>3.2</course>
  <speed>0.01</speed>
  <fix>3d</fix>
</trkpt>
<trkpt lat="40.0738335" lon="-105.2301678">
  <ele>1609.84</ele>
  <time>2026-08-27T18:26:50Z</time>
  <course>13.8</course>
  <speed>0.0316227766016838</speed>
  <fix>3d</fix>
</trkpt>
<trkpt lat="40.0738335" lon="-105.2301678">
  <ele>1610.27</ele>
  <time>2026-08-27T18:26:50Z</time>
  <course>13.89</course>
  <speed>0.0316227766016838</speed>
  <fix>3d</fix>
</trkpt>
<trkpt lat="40.0738334" lon="-105.2301677">
  <ele>1609.48</ele>
  <time>2026-08-27T18:26:50Z</time>
  <course>3.96</course>
  <speed>0.01</speed>
  <fix>3d</fix>
</trkpt>
<trkpt lat="40.0738335" lon="-105.2301678">
  <ele>1610.35</ele>
  <time>2026-08-27T18:26:50Z</time>
  <course>13.89</course>
  <speed>0.0316227766016838</speed>
  <fix>3d</fix>
</trkpt>
<trkpt lat="40.0738335" lon="-105.2301678">
  <ele>1610.77</ele>
  <time>2026-08-27T18:26:50Z</time>
  <course>13.96</course>
  <speed>0.0316227766016838</speed>
  <fix>3d</fix>
</trkpt>
<trkpt lat="40.0738334" lon="-105.2301677">
  <ele>1609.98</ele>
  <time>2026-08-27T18:26:50Z</time>
  <course>6.09</course>
  <speed>0.01</speed>
  <fix>3d</fix>
</trkpt>
<trkpt lat="40.0738335" lon="-105.2301678">
  <ele>1610.84</ele>
  <time>2026-08-27T18:26:50Z</time>
  <course>13.97</course>
  <speed>0.0316227766016838</speed>
  <fix>3d</fix>
</trkpt>
<trkpt lat="40.0738336" lon="-105.2301678">
  <ele>1611.28</ele>
  <time>2026-08-27T18:26:50Z</time>
  <course>14.05</course>
  <speed>0.0316227766016838</speed>
  <fix>3d</fix>
</trkpt>
<trkpt lat="40.0738334" lon="-105.2301677">
  <ele>1610.48</ele>
  <time>2026-08-27T18:26:50Z</time>
  <course>10.61</course>
  <speed>0.01</speed>
  <fix>3d</fix>
</trkpt>
<trkpt lat="40.0738336" lon="-105.2301678">
  <ele>1611.35</ele>
  <time>2026-08-27T18:26:50Z</time>
  <course>14.07</course>
  <speed>0.0316227766016838</speed>
  <fix>3d</fix>
</trkpt>
<trkpt lat="40.0738336" lon="-105.2301678">
  <ele>1611.78</ele>
  <time>2026-08-27T18:26:50Z</time>
  <course>14.14</course>
  <speed>0.0316227766016838</speed>
  <fix>3d</fix>
</trkpt>
<trkpt lat="40.0738335" lon="-105.2301677">
  <ele>1610.98</ele>
  <time>2026-08-27T18:26:50Z</time>
  <course>15.57</course>
  <speed>0.01</speed>
  <fix>3d</fix>
</trkpt>
<trkpt lat="40.0738336" lon="-105.2301678">
  <ele>1611.78</ele>
  <time>2026-08-27T18:26:50Z</time>
  <course>14.14</course>
  <speed>0.0316227766016838</speed>
  <fix>3d</fix>
</trkpt>
<trkpt lat="40.0738336" lon="-105.2301678">
  <ele>1612.28</ele>
  <time>2026-08-27T18:26:50Z</time>
  <course>14.22</course>
  <speed>0.0316227766016838</speed>
  <fix>3d</fix>
</trkpt>
<trkpt lat="40.0738335" lon="-105.2301677">
  <ele>1611.48</ele>
  <time>2026-08-27T18:26:50Z</time>
  <course>20.7</course>
  <speed>0.01</speed>
  <fix>3d</fix>
</trkpt>
<trkpt lat="40.0738336" lon="-105.2301678">
  <ele>1612.35</ele>
  <time>2026-08-27T18:26:50Z</time>
  <course>14.23</course>
  <speed>0.0316227766016838</speed>
  <fix>3d</fix>
</trkpt>
<trkpt lat="40.0738336" lon="-105.2301678">
  <ele>1612.77</ele>
  <time>2026-08-27T18:26:50Z</time>
  <course>14.3</course>
  <speed>0.022360679774997897</speed>
  <fix>3d</fix>
</trkpt>
<trkpt lat="40.0738335" lon="-105.2301677">
  <ele>1611.98</ele>
  <time>2026-08-27T18:26:50Z</time>
  <course>29.59</course>
  <speed>0.0</speed>
  <fix>3d</fix>
</trkpt>
<trkpt lat="40.0738336" lon="-105.2301678">
  <ele>1612.84</ele>
  <time>2026-08-27T18:26:50Z</time>
  <course>14.31</course>
  <speed>0.022360679774997897</speed>
  <fix>3d</fix>
</trkpt>
<trkpt lat="40.0738336" lon="-105.2301678">
  <ele>1613.27</ele>
  <time>2026-08-27T18:26:50Z</time>
  <course>14.37</course>
  <speed>0.022360679774997897</speed>
  <fix>3d</fix>
</trkpt>
<trkpt lat="40.0738335" lon="-105.2301677">
  <ele>1612.48</ele>
  <time>2026-08-27T18:26:50Z</time>
  <course>45.07</course>
  <speed>0.0</speed>
  <fix>3d</fix>
</trkpt>
<trkpt lat="40.0738336" lon="-105.2301678">
  <ele>1613.34</ele>
  <time>2026-08-27T18:26:50Z</time>
  <course>14.38</course>
  <speed>0.022360679774997897</speed>
  <fix>3d</fix>
</trkpt>
<trkpt lat="40.0738336" lon="-105.2301678">
  <ele>1613.77</ele>
  <time>2026-08-27T18:26:50Z</time>
  <course>14.4</course>
  <speed>0.01414213562373095</speed>
  <fix>3d</fix>
</trkpt>
<trkpt lat="40.0738335" lon="-105.2301677">
  <ele>1612.98</ele>
  <time>2026-08-27T18:26:50Z</time>
  <course>83.36</course>
  <speed>0.0</speed>
  <fix>3d</fix>
</trkpt>
<trkpt lat="40.0738336" lon="-105.2301678">
  <ele>1613.78</ele>
  <time>2026-08-27T18:26:50Z</time>
  <course>14.4</course>
  <speed>0.01414213562373095</speed>
  <fix>3d</fix>
</trkpt>
<trkpt lat="40.0738336" lon="-105.2301678">
  <ele>1614.28</ele>
  <time>2026-08-27T18:26:50Z</time>
  <course>14.46</course>
  <speed>0.01414213562373095</speed>
  <fix>3d</fix>
</trkpt>
<trkpt lat="40.0738335" lon="-105.2301677">
  <ele>1613.48</ele>
  <time>2026-08-27T18:26:50Z</time>
  <course>127.64</course>
  <speed>0.0</speed>
  <fix>3d</fix>
</trkpt>
<trkpt lat="40.0738336" lon="-105.2301678">
  <ele>1614.35</ele>
  <time>2026-08-27T18:26:50Z</time>
  <course>14.47</course>
  <speed>0.01414213562373095</speed>
  <fix>3d</fix>
</trkpt>
<trkpt lat="40.0738336" lon="-105.2301678">
  <ele>1614.78</ele>
  <time>2026-08-27T18:26:50Z</time>
  <course>14.56</course>
  <speed>0.01414213562373095</speed>
  <fix>3d</fix>
</trkpt>
<trkpt lat="40.0738335" lon="-105.2301677">
  <ele>1613.99</ele>
  <time>2026-08-27T18:26:50Z</time>
  <course>149.32</course>
  <speed>0.0</speed>
  <fix>3d</fix>
</trkpt>
<trkpt lat="40.0738336" lon="-105.2301678">
  <ele>1614.78</ele>
  <time>2026-08-27T18:26:50Z</time>
  <course>14.56</course>
  <speed>0.01414213562373095</speed>
  <fix>3d</fix>
</trkpt>
<trkpt lat="40.0738336" lon="-105.2301678">
  <ele>1615.28</ele>
  <time>2026-08-27T18:26:51Z</time>
  <course>14.64</course>
  <speed>0.01414213562373095</speed>
  <fix>3d</fix>
</trkpt>
<trkpt lat="40.0738335" lon="-105.2301677">
  <ele>1614.49</ele>
  <time>2026-08-27T18:26:51Z</time>
  <course>158.38</course>
  <speed>0.01</speed>
  <fix>3d</fix>
</trkpt>
<trkpt lat="40.0738336" lon="-105.2301678">
  <ele>1615.35</ele>
  <time>2026-08-27T18:26:51Z</time>
  <course>14.65</course>
  <speed>0.01414213562373095</speed>
  <fix>3d</fix>
</trkpt>
<trkpt lat="40.0738336" lon="-105.2301678">
  <ele>1615.78</ele>
  <time>2026-08-27T18:26:51Z</time>
  <course>14.7</course>
  <speed>0.01414213562373095</speed>
  <fix>3d</fix>
</trkpt>
<trkpt lat="40.0738335" lon="-105.2301677">
  <ele>1614.99</ele>
  <time>2026-08-27T18:26:51Z</time>
  <course>163.02</course>
  <speed>0.01</speed>
  <fix>3d</fix>
</trkpt>
<trkpt lat="40.0738336" lon="-105.2301678">
  <ele>1615.84</ele>
  <time>2026-08-27T18:26:51Z</time>
  <course>14.7</course>
  <speed>0.01414213562373095</speed>
  <fix>3d</fix>
</trkpt>
<trkpt lat="40.0738336" lon="-105.2301678">
  <ele>1616.27</ele>
  <time>2026-08-27T18:26:51Z</time>
  <course>14.77</course>
  <speed>0.01414213562373095</speed>
  <fix>3d</fix>
</trkpt>
<trkpt lat="40.0738335" lon="-105.2301677">
  <ele>1615.49</ele>
  <time>2026-08-27T18:26:51Z</time>
  <course>165.25</course>
  <speed>0.01</speed>
  <fix>3d</fix>
</trkpt>
<trkpt lat="40.0738336" lon="-105.2301678">
  <ele>1616.28</ele>
  <time>2026-08-27T18:26:51Z</time>
  <course>14.77</course>
  <speed>0.01</speed>
  <fix>3d</fix>
</trkpt>
<trkpt lat="40.0738336" lon="-105.2301678">
  <ele>1616.77</ele>
  <time>2026-08-27T18:26:51Z</time>
  <course>14.81</course>
  <speed>0.01</speed>
  <fix>3d</fix>
</trkpt>
<trkpt lat="40.0738335" lon="-105.2301677">
  <ele>1615.99</ele>
  <time>2026-08-27T18:26:51Z</time>
  <course>165.71</course>
  <speed>0.01</speed>
  <fix>3d</fix>
</trkpt>
<trkpt lat="40.0738336" lon="-105.2301678">
  <ele>1616.84</ele>
  <time>2026-08-27T18:26:51Z</time>
  <course>14.82</course>
  <speed>0.01</speed>
  <fix>3d</fix>
</trkpt>
<trkpt lat="40.0738336" lon="-105.2301678">
  <ele>1617.27</ele>
  <time>2026-08-27T18:26:51Z</time>
  <course>14.88</course>
  <speed>0.01</speed>
  <fix>3d</fix>
</trkpt>
<trkpt lat="40.0738335" lon="-105.2301677">
  <ele>1616.49</ele>
  <time>2026-08-27T18:26:51Z</time>
  <course>166.3</course>
  <speed>0.01</speed>
  <fix>3d</fix>
</trkpt>
<trkpt lat="40.0738336" lon="-105.2301678">
  <ele>1617.34</ele>
  <time>2026-08-27T18:26:51Z</time>
  <course>14.89</course>
  <speed>0.01</speed>
  <fix>3d</fix>
</trkpt>
<trkpt lat="40.0738336" lon="-105.2301678">
  <ele>1617.78</ele>
  <time>2026-08-27T18:26:51Z</time>
  <course>14.94</course>
  <speed>0.01</speed>
  <fix>3d</fix>
</trkpt>
<trkpt lat="40.0738335" lon="-105.2301677">
  <ele>1616.99</ele>
  <time>2026-08-27T18:26:51Z</time>
  <course>167.02</course>
  <speed>0.01</speed>
  <fix>3d</fix>
</trkpt>
<trkpt lat="40.0738336" lon="-105.2301678">
  <ele>1617.79</ele>
  <time>2026-08-27T18:26:51Z</time>
  <course>14.94</course>
  <speed>0.01</speed>
  <fix>3d</fix>
</trkpt>
<trkpt lat="40.0738336" lon="-105.2301678">
  <ele>1618.28</ele>
  <time>2026-08-27T18:26:51Z</time>
  <course>14.99</course>
  <speed>0.01414213562373095</speed>
  <fix>3d</fix>
</trkpt>
<trkpt lat="40.0738334" lon="-105.2301677">
  <ele>1617.49</ele>
  <time>2026-08-27T18:26:51Z</time>
  <course>167.31</course>
  <speed>0.01</speed>
  <fix>3d</fix>
</trkpt>
<trkpt lat="40.0738336" lon="-105.2301678">
  <ele>1618.34</ele>
  <time>2026-08-27T18:26:51Z</time>
  <course>15.0</course>
  <speed>0.01414213562373095</speed>
  <fix>3d</fix>
</trkpt>
<trkpt lat="40.0738335" lon="-105.2301678">
  <ele>1618.78</ele>
  <time>2026-08-27T18:26:51Z</time>
  <course>15.07</course>
  <speed>0.01414213562373095</speed>
  <fix>3d</fix>
</trkpt>
<trkpt lat="40.0738334" lon="-105.2301677">
  <ele>1617.99</ele>
  <time>2026-08-27T18:26:51Z</time>
  <course>167.65</course>
  <speed>0.01</speed>
  <fix>3d</fix>
</trkpt>
<trkpt lat="40.0738335" lon="-105.2301678">
  <ele>1618.78</ele>
  <time>2026-08-27T18:26:51Z</time>
  <course>15.07</course>
  <speed>0.01414213562373095</speed>
  <fix>3d</fix>
</trkpt>
<trkpt lat="40.0738335" lon="-105.2301678">
  <ele>1619.28</ele>
  <time>2026-08-27T18:26:51Z</time>
  <course>15.11</course>
  <speed>0.01414213562373095</speed>
  <fix>3d</fix>
</trkpt>
<trkpt lat="40.0738334" lon="-105.2301677">
  <ele>1618.49</ele>
  <time>2026-08-27T18:26:51Z</time>
  <course>167.89</course>
  <speed>0.01</speed>
  <fix>3d</fix>
</trkpt>
<trkpt lat="40.0738335" lon="-105.2301678">
  <ele>1619.33</ele>
  <time>2026-08-27T18:26:51Z</time>
  <course>15.11</course>
  <speed>0.01414213562373095</speed>
  <fix>3d</fix>
</trkpt>
<trkpt lat="40.0738335" lon="-105.2301678">
  <ele>1619.78</ele>
  <time>2026-08-27T18:26:51Z</time>
  <course>15.19</course>
  <speed>0.01414213562373095</speed>
  <fix>3d</fix>
</trkpt>
<trkpt lat="40.0738334" lon="-105.2301677">
  <ele>1618.99</ele>
  <time>2026-08-27T18:26:51Z</time>
  <course>168.06</course>
  <speed>0.01</speed>
  <fix>3d</fix>
</trkpt>
<trkpt lat="40.0738335" lon="-105.2301678">
  <ele>1619.84</ele>
  <time>2026-08-27T18:26:51Z</time>
  <course>15.19</course>
  <speed>0.01414213562373095</speed>
  <fix>3d</fix>
</trkpt>
<trkpt lat="40.0738335" lon="-105.2301678">
  <ele>1620.28</ele>
  <time>2026-08-27T18:26:51Z</time>
  <course>15.24</course>
  <speed>0.01414213562373095</speed>
  <fix>3d</fix>
</trkpt>
<trkpt lat="40.0738333" lon="-105.2301677">
  <ele>1619.49</ele>
  <time>2026-08-27T18:26:51Z</time>
  <course>168.51</course>
  <speed>0.01</speed>
  <fix>3d</fix>
</trkpt>
<trkpt lat="40.0738335" lon="-105.2301678">
  <ele>1620.35</ele>
  <time>2026-08-27T18:26:51Z</time>
  <course>15.25</course>
  <speed>0.01414213562373095</speed>
  <fix>3d</fix>
</trkpt>
<trkpt lat="40.0738335" lon="-105.2301678">
  <ele>1620.79</ele>
  <time>2026-08-27T18:26:51Z</time>
  <course>15.29</course>
  <speed>0.01414213562373095</speed>
  <fix>3d</fix>
</trkpt>
<trkpt lat="40.0738332" lon="-105.2301677">
  <ele>1619.99</ele>
  <time>2026-08-27T18:26:51Z</time>
  <course>169.52</course>
  <speed>0.01</speed>
  <fix>3d</fix>
</trkpt>
<trkpt lat="40.0738335" lon="-105.2301678">
  <ele>1620.85</ele>
  <time>2026-08-27T18:26:51Z</time>
  <course>15.3</course>
  <speed>0.01414213562373095</speed>
  <fix>3d</fix>
</trkpt>
<trkpt lat="40.0738335" lon="-105.2301678">
  <ele>1621.28</ele>
  <time>2026-08-27T18:26:51Z</time>
  <course>15.34</course>
  <speed>0.01414213562373095</speed>
  <fix>3d</fix>
</trkpt>
<trkpt lat="40.0738332" lon="-105.2301677">
  <ele>1620.49</ele>
  <time>2026-08-27T18:26:51Z</time>
  <course>170.73</course>
  <speed>0.01</speed>
  <fix>3d</fix>
</trkpt>
<trkpt lat="40.0738335" lon="-105.2301678">
  <ele>1621.29</ele>
  <time>2026-08-27T18:26:51Z</time>
  <course>15.34</course>
  <speed>0.01414213562373095</speed>
  <fix>3d</fix>
</trkpt>
<trkpt lat="40.0738334" lon="-105.2301678">
  <ele>1621.78</ele>
  <time>2026-08-27T18:26:51Z</time>
  <course>15.4</course>
  <speed>0.01414213562373095</speed>
  <fix>3d</fix>
</trkpt>
<trkpt lat="40.0738332" lon="-105.2301677">
  <ele>1620.99</ele>
  <time>2026-08-27T18:26:51Z</time>
  <course>170.76</course>
  <speed>0.01</speed>
  <fix>3d</fix>
</trkpt>
<trkpt lat="40.0738334" lon="-105.2301678">
  <ele>1621.85</ele>
  <time>2026-08-27T18:26:51Z</time>
  <course>15.4</course>
  <speed>0.01414213562373095</speed>
  <fix>3d</fix>
</trkpt>
<trkpt lat="40.0738334" lon="-105.2301678">
  <ele>1622.29</ele>
  <time>2026-08-27T18:26:51Z</time>
  <course>15.46</course>
  <speed>0.01414213562373095</speed>
  <fix>3d</fix>
</trkpt>
<trkpt lat="40.0738332" lon="-105.2301677">
  <ele>1621.49</ele>
  <time>2026-08-27T18:26:51Z</time>
  <course>169.54</course>
  <speed>0.0</speed>
  <fix>3d</fix>
</trkpt>
<trkpt lat="40.0738334" lon="-105.2301678">
  <ele>1622.35</ele>
  <time>2026-08-27T18:26:51Z</time>
  <course>15.47</course>
  <speed>0.01414213562373095</speed>
  <fix>3d</fix>
</trkpt>
<trkpt lat="40.0738334" lon="-105.2301678">
  <ele>1622.79</ele>
  <time>2026-08-27T18:26:51Z</time>
  <course>15.5</course>
  <speed>0.01414213562373095</speed>
  <fix>3d</fix>
</trkpt>
<trkpt lat="40.0738331" lon="-105.2301677">
  <ele>1621.99</ele>
  <time>2026-08-27T18:26:51Z</time>
  <course>167.7</course>
  <speed>0.0</speed>
  <fix>3d</fix>
</trkpt>
<trkpt lat="40.0738334" lon="-105.2301678">
  <ele>1622.86</ele>
  <time>2026-08-27T18:26:51Z</time>
  <course>15.51</course>
  <speed>0.022360679774997897</speed>
  <fix>3d</fix>
</trkpt>
<trkpt lat="40.0738334" lon="-105.2301678">
  <ele>1623.29</ele>
  <time>2026-08-27T18:26:51Z</time>
  <course>15.56</course>
  <speed>0.022360679774997897</speed>
  <fix>3d</fix>
</trkpt>
<trkpt lat="40.0738331" lon="-105.2301677">
  <ele>1622.49</ele>
  <time>2026-08-27T18:26:51Z</time>
  <course>161.59</course>
  <speed>0.0</speed>
  <fix>3d</fix>
</trkpt>
<trkpt lat="40.0738334" lon="-105.2301678">
  <ele>1623.35</ele>
  <time>2026-08-27T18:26:51Z</time>
  <course>15.57</course>
  <speed>0.022360679774997897</speed>
  <fix>3d</fix>
</trkpt>
<trkpt lat="40.0738334" lon="-105.2301678">
  <ele>1623.78</ele>
  <time>2026-08-27T18:26:51Z</time>
  <course>15.6</course>
  <speed>0.022360679774997897</speed>
  <fix>3d</fix>
</trkpt>
<trkpt lat="40.0738331" lon="-105.2301677">
  <ele>1622.99</ele>
  <time>2026-08-27T18:26:51Z</time>
  <course>142.27</course>
  <speed>0.0</speed>
  <fix>3d</fix>
</trkpt>
<trkpt lat="40.0738334" lon="-105.2301678">
  <ele>1623.78</ele>
  <time>2026-08-27T18:26:51Z</time>
  <course>15.6</course>
  <speed>0.022360679774997897</speed>
  <fix>3d</fix>
</trkpt>
<trkpt lat="40.0738334" lon="-105.2301678">
  <ele>1624.27</ele>
  <time>2026-08-27T18:26:51Z</time>
  <course>15.64</course>
  <speed>0.022360679774997897</speed>
  <fix>3d</fix>
</trkpt>
<trkpt lat="40.0738331" lon="-105.2301677">
  <ele>1623.49</ele>
  <time>2026-08-27T18:26:51Z</time>
  <course>66.88</course>
  <speed>0.0</speed>
  <fix>3d</fix>
</trkpt>
<trkpt lat="40.0738334" lon="-105.2301678">
  <ele>1624.34</ele>
  <time>2026-08-27T18:26:51Z</time>
  <course>15.64</course>
  <speed>0.022360679774997897</speed>
  <fix>3d</fix>
</trkpt>
<trkpt lat="40.0738334" lon="-105.2301678">
  <ele>1624.77</ele>
  <time>2026-08-27T18:26:51Z</time>
  <course>15.66</course>
  <speed>0.022360679774997897</speed>
  <fix>3d</fix>
</trkpt>
<trkpt lat="40.0738331" lon="-105.2301677">
  <ele>1623.99</ele>
  <time>2026-08-27T18:26:51Z</time>
  <course>31.15</course>
  <speed>0.0</speed>
  <fix>3d</fix>
</trkpt>
<trkpt lat="40.0738334" lon="-105.2301678">
  <ele>1624.83</ele>
  <time>2026-08-27T18:26:51Z</time>
  <course>15.66</course>
  <speed>0.022360679774997897</speed>
  <fix>3d</fix>
</trkpt>
<trkpt lat="40.0738334" lon="-105.2301678">
  <ele>1625.26</ele>
  <time>2026-08-27T18:26:51Z</time>
  <course>15.7</course>
  <speed>0.0316227766016838</speed>
  <fix>3d</fix>
</trkpt>
<trkpt lat="40.0738331" lon="-105.2301677">
  <ele>1624.49</ele>
  <time>2026-08-27T18:26:51Z</time>
  <course>19.34</course>
  <speed>0.0</speed>
  <fix>3d</fix>
</trkpt>
<trkpt lat="40.0738334" lon="-105.2301678">
  <ele>1625.32</ele>
  <time>2026-08-27T18:26:51Z</time>
  <course>15.71</course>
  <speed>0.0316227766016838</speed>
  <fix>3d</fix>
</trkpt>
<trkpt lat="40.0738334" lon="-105.2301678">
  <ele>1625.76</ele>
  <time>2026-08-27T18:26:51Z</time>
  <course>15.72</course>
  <speed>0.0316227766016838</speed>
  <fix>3d</fix>
</trkpt>
<trkpt lat="40.0738331" lon="-105.2301677">
  <ele>1624.99</ele>
  <time>2026-08-27T18:26:51Z</time>
  <course>11.76</course>
  <speed>0.0</speed>
  <fix>3d</fix>
</trkpt>
<trkpt lat="40.0738334" lon="-105.2301678">
  <ele>1625.82</ele>
  <time>2026-08-27T18:26:51Z</time>
  <course>15.73</course>
  <speed>0.0316227766016838</speed>
  <fix>3d</fix>
</trkpt>
<trkpt lat="40.0738334" lon="-105.2301678">
  <ele>1626.26</ele>
  <time>2026-08-27T18:26:51Z</time>
  <course>15.76</course>
  <speed>0.0316227766016838</speed>
  <fix>3d</fix>
</trkpt>
<trkpt lat="40.0738331" lon="-105.2301677">
  <ele>1625.49</ele>
  <time>2026-08-27T18:26:51Z</time>
  <course>6.47</course>
  <speed>0.0</speed>
  <fix>3d</fix>
</trkpt>
<trkpt lat="40.0738334" lon="-105.2301678">
  <ele>1626.32</ele>
  <time>2026-08-27T18:26:51Z</time>
  <course>15.76</course>
  <speed>0.0316227766016838</speed>
  <fix>3d</fix>
</trkpt>
<trkpt lat="40.0738334" lon="-105.2301678">
  <ele>1626.76</ele>
  <time>2026-08-27T18:26:51Z</time>
  <course>15.78</course>
  <speed>0.0316227766016838</speed>
  <fix>3d</fix>
</trkpt>
<trkpt lat="40.0738331" lon="-105.2301677">
  <ele>1625.99</ele>
  <time>2026-08-27T18:26:51Z</time>
  <course>3.71</course>
  <speed>0.01</speed>
  <fix>3d</fix>
</trkpt>
<trkpt lat="40.0738334" lon="-105.2301678">
  <ele>1626.77</ele>
  <time>2026-08-27T18:26:51Z</time>
  <course>15.78</course>
  <speed>0.0316227766016838</speed>
  <fix>3d</fix>
</trkpt>
<trkpt lat="40.0738334" lon="-105.2301678">
  <ele>1627.26</ele>
  <time>2026-08-27T18:26:51Z</time>
  <course>15.85</course>
  <speed>0.0316227766016838</speed>
  <fix>3d</fix>
</trkpt>
<trkpt lat="40.0738331" lon="-105.2301677">
  <ele>1626.49</ele>
  <time>2026-08-27T18:26:51Z</time>
  <course>1.28</course>
  <speed>0.01</speed>
  <fix>3d</fix>
</trkpt>
<trkpt lat="40.0738334" lon="-105.2301678">
  <ele>1627.33</ele>
  <time>2026-08-27T18:26:51Z</time>
  <course>15.85</course>
  <speed>0.0316227766016838</speed>
  <fix>3d</fix>
</trkpt>
<trkpt lat="40.0738334" lon="-105.2301678">
  <ele>1627.76</ele>
  <time>2026-08-27T18:26:51Z</time>
  <course>15.87</course>
  <speed>0.0316227766016838</speed>
  <fix>3d</fix>
</trkpt>
<trkpt lat="40.0738331" lon="-105.2301677">
  <ele>1627.0</ele>
  <time>2026-08-27T18:26:51Z</time>
  <course>358.53</course>
  <speed>0.01</speed>
  <fix>3d</fix>
</trkpt>
<trkpt lat="40.0738334" lon="-105.2301678">
  <ele>1627.83</ele>
  <time>2026-08-27T18:26:51Z</time>
  <course>15.87</course>
  <speed>0.0316227766016838</speed>
  <fix>3d</fix>
</trkpt>
<trkpt lat="40.0738334" lon="-105.2301678">
  <ele>1628.26</ele>
  <time>2026-08-27T18:26:51Z</time>
  <course>15.93</course>
  <speed>0.0316227766016838</speed>
  <fix>3d</fix>
</trkpt>
<trkpt lat="40.0738332" lon="-105.2301677">
  <ele>1627.5</ele>
  <time>2026-08-27T18:26:51Z</time>
  <course>357.12</course>
  <speed>0.01</speed>
  <fix>3d</fix>
</trkpt>
<trkpt lat="40.0738334" lon="-105.2301678">
  <ele>1628.32</ele>
  <time>2026-08-27T18:26:51Z</time>
  <course>15.93</course>
  <speed>0.0316227766016838</speed>
  <fix>3d</fix>
</trkpt>
<trkpt lat="40.0738334" lon="-105.2301678">
  <ele>1628.76</ele>
  <time>2026-08-27T18:26:51Z</time>
  <course>15.96</course>
  <speed>0.0316227766016838</speed>
  <fix>3d</fix>
</trkpt>
<trkpt lat="40.0738332" lon="-105.2301677">
  <ele>1628.01</ele>
  <time>2026-08-27T18:26:51Z</time>
  <course>355.4</course>
  <speed>0.01</speed>
  <fix>3d</fix>
</trkpt>
<trkpt lat="40.0738334" lon="-105.2301678">
  <ele>1628.76</ele>
  <time>2026-08-27T18:26:51Z</time>
  <course>15.96</course>
  <speed>0.0316227766016838</speed>
  <fix>3d</fix>
</trkpt>
<trkpt lat="40.0738334" lon="-105.2301678">
  <ele>1629.26</ele>
  <time>2026-08-27T18:26:51Z</time>
  <course>16.01</course>
  <speed>0.0316227766016838</speed>
  <fix>3d</fix>
</trkpt>
<trkpt lat="40.0738332" lon="-105.2301677">
  <ele>1628.51</ele>
  <time>2026-08-27T18:26:51Z</time>
  <course>354.24</course>
  <speed>0.01</speed>
  <fix>3d</fix>
</trkpt>
<trkpt lat="40.0738334" lon="-105.2301678">
  <ele>1629.33</ele>
  <time>2026-08-27T18:26:51Z</time>
  <course>16.02</course>
  <speed>0.0316227766016838</speed>
  <fix>3d</fix>
</trkpt>
<trkpt lat="40.0738334" lon="-105.2301678">
  <ele>1629.77</ele>
  <time>2026-08-27T18:26:51Z</time>
  <course>16.04</course>
  <speed>0.022360679774997897</speed>
  <fix>3d</fix>
</trkpt>
<trkpt lat="40.0738332" lon="-105.2301677">
  <ele>1629.02</ele>
  <time>2026-08-27T18:26:51Z</time>
  <course>353.98</course>
  <speed>0.01</speed>
  <fix>3d</fix>
</trkpt>
<trkpt lat="40.0738334" lon="-105.2301678">
  <ele>1629.78</ele>
  <time>2026-08-27T18:26:51Z</time>
  <course>16.04</course>
  <speed>0.022360679774997897</speed>
  <fix>3d</fix>
</trkpt>
<trkpt lat="40.0738334" lon="-105.2301678">
  <ele>1630.27</ele>
  <time>2026-08-27T18:26:51Z</time>
  <course>16.1</course>
  <speed>0.022360679774997897</speed>
  <fix>3d</fix>
</trkpt>
<trkpt lat="40.0738332" lon="-105.2301677">
  <ele>1629.52</ele>
  <time>2026-08-27T18:26:51Z</time>
  <course>352.05</course>
  <speed>0.01</speed>
  <fix>3d</fix>
</trkpt>
<trkpt lat="40.0738334" lon="-105.2301678">
  <ele>1630.35</ele>
  <time>2026-08-27T18:26:51Z</time>
  <course>16.11</course>
  <speed>0.022360679774997897</speed>
  <fix>3d</fix>
</trkpt>
<trkpt lat="40.0738334" lon="-105.2301678">
  <ele>1630.78</ele>
  <time>2026-08-27T18:26:51Z</time>
  <course>16.15</course>
  <speed>0.022360679774997897</speed>
  <fix>3d</fix>
</trkpt>
<trkpt lat="40.0738333" lon="-105.2301677">
  <ele>1630.03</ele>
  <time>2026-08-27T18:26:51Z</time>
  <course>347.54</course>
  <speed>0.01</speed>
  <fix>3d</fix>
</trkpt>
<trkpt lat="40.0738334" lon="-105.2301678">
  <ele>1630.85</ele>
  <time>2026-08-27T18:26:51Z</time>
  <course>16.15</course>
  <speed>0.022360679774997897</speed>
  <fix>3d</fix>
</trkpt>
<trkpt lat="40.0738334" lon="-105.2301678">
  <ele>1631.28</ele>
  <time>2026-08-27T18:26:51Z</time>
  <course>16.2</course>
  <speed>0.022360679774997897</speed>
  <fix>3d</fix>
</trkpt>
<trkpt lat="40.0738334" lon="-105.2301677">
  <ele>1630.53</ele>
  <time>2026-08-27T18:26:51Z</time>
  <course>343.98</course>
  <speed>0.0</speed>
  <fix>3d</fix>
</trkpt>
<trkpt lat="40.0738334" lon="-105.2301678">
  <ele>1631.35</ele>
  <time>2026-08-27T18:26:51Z</time>
  <course>16.2</course>
  <speed>0.022360679774997897</speed>
  <fix>3d</fix>
</trkpt>
<trkpt lat="40.0738334" lon="-105.2301678">
  <ele>1631.78</ele>
  <time>2026-08-27T18:26:51Z</time>
  <course>16.24</course>
  <speed>0.022360679774997897</speed>
  <fix>3d</fix>
</trkpt>
<trkpt lat="40.0738334" lon="-105.2301677">
  <ele>1631.04</ele>
  <time>2026-08-27T18:26:51Z</time>
  <course>345.15</course>
  <speed>0.0</speed>
  <fix>3d</fix>
</trkpt>
<trkpt lat="40.0738334" lon="-105.2301678">
  <ele>1631.78</ele>
  <time>2026-08-27T18:26:51Z</time>
  <course>16.24</course>
  <speed>0.022360679774997897</speed>
  <fix>3d</fix>
</trkpt>
<trkpt lat="40.0738334" lon="-105.2301678">
  <ele>1632.28</ele>
  <time>2026-08-27T18:26:51Z</time>
  <course>16.24</course>
  <speed>0.022360679774997897</speed>
  <fix>3d</fix>
</trkpt>
<trkpt lat="40.0738334" lon="-105.2301677">
  <ele>1631.54</ele>
  <time>2026-08-27T18:26:51Z</time>
  <course>349.11</course>
  <speed>0.0</speed>
  <fix>3d</fix>
</trkpt>
<trkpt lat="40.0738334" lon="-105.2301678">
  <ele>1632.35</ele>
  <time>2026-08-27T18:26:51Z</time>
  <course>16.24</course>
  <speed>0.022360679774997897</speed>
  <fix>3d</fix>
</trkpt>
<trkpt lat="40.0738335" lon="-105.2301678">
  <ele>1632.78</ele>
  <time>2026-08-27T18:26:51Z</time>
  <course>16.29</course>
  <speed>0.022360679774997897</speed>
  <fix>3d</fix>
</trkpt>
<trkpt lat="40.0738334" lon="-105.2301677">
  <ele>1632.04</ele>
  <time>2026-08-27T18:26:51Z</time>
  <course>349.95</course>
  <speed>0.0</speed>
  <fix>3d</fix>
</trkpt>
<trkpt lat="40.0738335" lon="-105.2301678">
  <ele>1632.79</ele>
  <time>2026-08-27T18:26:51Z</time>
  <course>16.29</course>
  <speed>0.022360679774997897</speed>
  <fix>3d</fix>
</trkpt>
<trkpt lat="40.0738335" lon="-105.2301678">
  <ele>1633.29</ele>
  <time>2026-08-27T18:26:51Z</time>
  <course>16.31</course>
  <speed>0.022360679774997897</speed>
  <fix>3d</fix>
</trkpt>
<trkpt lat="40.0738334" lon="-105.2301677">
  <ele>1632.54</ele>
  <time>2026-08-27T18:26:51Z</time>
  <course>347.04</course>
  <speed>0.0</speed>
  <fix>3d</fix>
</trkpt>
<trkpt lat="40.0738335" lon="-105.2301678">
  <ele>1633.36</ele>
  <time>2026-08-27T18:26:51Z</time>
  <course>16.32</course>
  <speed>0.022360679774997897</speed>
  <fix>3d</fix>
</trkpt>
<trkpt lat="40.0738335" lon="-105.2301678">
  <ele>1633.79</ele>
  <time>2026-08-27T18:26:51Z</time>
  <course>16.36</course>
  <speed>0.01414213562373095</speed>
  <fix>3d</fix>
</trkpt>
<trkpt lat="40.0738334" lon="-105.2301677">
  <ele>1633.04</ele>
  <time>2026-08-27T18:26:51Z</time>
  <course>324.33</course>
  <speed>0.0</speed>
  <fix>3d</fix>
</trkpt>
<trkpt lat="40.0738335" lon="-105.2301678">
  <ele>1633.8</ele>
  <time>2026-08-27T18:26:51Z</time>
  <course>16.36</course>
  <speed>0.01414213562373095</speed>
  <fix>3d</fix>
</trkpt>
<trkpt lat="40.0738335" lon="-105.2301678">
  <ele>1634.3</ele>
  <time>2026-08-27T18:26:51Z</time>
  <course>16.41</course>
  <speed>0.01414213562373095</speed>
  <fix>3d</fix>
</trkpt>
<trkpt lat="40.0738334" lon="-105.2301677">
  <ele>1633.54</ele>
  <time>2026-08-27T18:26:51Z</time>
  <course>265.26</course>
  <speed>0.0</speed>
  <fix>3d</fix>
</trkpt>
<trkpt lat="40.0738335" lon="-105.2301678">
  <ele>1634.36</ele>
  <time>2026-08-27T18:26:51Z</time>
  <course>16.42</course>
  <speed>0.01414213562373095</speed>
  <fix>3d</fix>
</trkpt>
<trkpt lat="40.0738335" lon="-105.2301678">
  <ele>1634.8</ele>
  <time>2026-08-27T18:26:51Z</time>
  <course>16.45</course>
  <speed>0.01414213562373095</speed>
  <fix>3d</fix>
</trkpt>
<trkpt lat="40.0738334" lon="-105.2301677">
  <ele>1634.04</ele>
  <time>2026-08-27T18:26:51Z</time>
  <course>223.57</course>
  <speed>0.0</speed>
  <fix>3d</fix>
</trkpt>
<trkpt lat="40.0738335" lon="-105.2301678">
  <ele>1634.86</ele>
  <time>2026-08-27T18:26:51Z</time>
  <course>16.46</course>
  <speed>0.01414213562373095</speed>
  <fix>3d</fix>
</trkpt>
<trkpt lat="40.0738335" lon="-105.2301678">
  <ele>1635.29</ele>
  <time>2026-08-27T18:26:51Z</time>
  <course>16.48</course>
  <speed>0.01414213562373095</speed>
  <fix>3d</fix>
</trkpt>
<trkpt lat="40.0738334" lon="-105.2301677">
  <ele>1634.54</ele>
  <time>2026-08-27T18:26:51Z</time>
  <course>203.4</course>
  <speed>0.0</speed>
  <fix>3d</fix>
</trkpt>
<trkpt lat="40.0738335" lon="-105.2301678">
  <ele>1635.37</ele>
  <time>2026-08-27T18:26:51Z</time>
  <course>16.48</course>
  <speed>0.01414213562373095</speed>
  <fix>3d</fix>
</trkpt>
<trkpt lat="40.0738335" lon="-105.2301678">
  <ele>1635.79</ele>
  <time>2026-08-27T18:26:51Z</time>
  <course>16.49</course>
  <speed>0.01414213562373095</speed>
  <fix>3d</fix>
</trkpt>
<trkpt lat="40.0738334" lon="-105.2301677">
  <ele>1635.04</ele>
  <time>2026-08-27T18:26:51Z</time>
  <course>194.14</course>
  <speed>0.0</speed>
  <fix>3d</fix>
</trkpt>
<trkpt lat="40.0738335" lon="-105.2301678">
  <ele>1635.86</ele>
  <time>2026-08-27T18:26:51Z</time>
  <course>16.5</course>
  <speed>0.01414213562373095</speed>
  <fix>3d</fix>
</trkpt>
<trkpt lat="40.0738335" lon="-105.2301678">
  <ele>1636.29</ele>
  <time>2026-08-27T18:26:51Z</time>
  <course>16.52</course>
  <speed>0.01414213562373095</speed>
  <fix>3d</fix>
</trkpt>
<trkpt lat="40.0738334" lon="-105.2301677">
  <ele>1635.54</ele>
  <time>2026-08-27T18:26:51Z</time>
  <course>189.51</course>
  <speed>0.0</speed>
  <fix>3d</fix>
</trkpt>
<trkpt lat="40.0738335" lon="-105.2301678">
  <ele>1636.3</ele>
  <time>2026-08-27T18:26:51Z</time>
  <course>16.52</course>
  <speed>0.01414213562373095</speed>
  <fix>3d</fix>
</trkpt>
<trkpt lat="40.0738335" lon="-105.2301678">
  <ele>1636.78</ele>
  <time>2026-08-27T18:26:51Z</time>
  <course>16.54</course>
  <speed>0.01414213562373095</speed>
  <fix>3d</fix>
</trkpt>
<trkpt lat="40.0738334" lon="-105.2301677">
  <ele>1636.03</ele>
  <time>2026-08-27T18:26:51Z</time>
  <course>188.45</course>
  <speed>0.0</speed>
  <fix>3d</fix>
</trkpt>
<trkpt lat="40.0738335" lon="-105.2301678">
  <ele>1636.86</ele>
  <time>2026-08-27T18:26:51Z</time>
  <course>16.55</course>
  <speed>0.01414213562373095</speed>
  <fix>3d</fix>
</trkpt>
<trkpt lat="40.0738335" lon="-105.2301678">
  <ele>1637.28</ele>
  <time>2026-08-27T18:26:51Z</time>
  <course>16.57</course>
  <speed>0.01414213562373095</speed>
  <fix>3d</fix>
</trkpt>
<trkpt lat="40.0738334" lon="-105.2301677">
  <ele>1636.53</ele>
  <time>2026-08-27T18:26:51Z</time>
  <course>188.09</course>
  <speed>0.0</speed>
  <fix>3d</fix>
</trkpt>
<trkpt lat="40.0738335" lon="-105.2301678">
  <ele>1637.35</ele>
  <time>2026-08-27T18:26:51Z</time>
  <course>16.57</course>
  <speed>0.01414213562373095</speed>
  <fix>3d</fix>
</trkpt>
<trkpt lat="40.0738335" lon="-105.2301678">
  <ele>1637.78</ele>
  <time>2026-08-27T18:26:51Z</time>
  <course>16.6</course>
  <speed>0.01414213562373095</speed>
  <fix>3d</fix>
</trkpt>
<trkpt lat="40.0738334" lon="-105.2301677">
  <ele>1637.03</ele>
  <time>2026-08-27T18:26:51Z</time>
  <course>188.09</course>
  <speed>0.0</speed>
  <fix>3d</fix>
</trkpt>
<trkpt lat="40.0738335" lon="-105.2301678">
  <ele>1637.85</ele>
  <time>2026-08-27T18:26:51Z</time>
  <course>16.6</course>
  <speed>0.01414213562373095</speed>
  <fix>3d</fix>
</trkpt>
<trkpt lat="40.0738335" lon="-105.2301678">
  <ele>1638.28</ele>
  <time>2026-08-27T18:26:51Z</time>
  <course>16.63</course>
  <speed>0.01414213562373095</speed>
  <fix>3d</fix>
</trkpt>
<trkpt lat="40.0738334" lon="-105.2301677">
  <ele>1637.53</ele>
  <time>2026-08-27T18:26:51Z</time>
  <course>188.23</course>
  <speed>0.01</speed>
  <fix>3d</fix>
</trkpt>
<trkpt lat="40.0738335" lon="-105.2301678">
  <ele>1638.34</ele>
  <time>2026-08-27T18:26:51Z</time>
  <course>16.63</course>
  <speed>0.01414213562373095</speed>
  <fix>3d</fix>
</trkpt>
<trkpt lat="40.0738335" lon="-105.2301678">
  <ele>1638.77</ele>
  <time>2026-08-27T18:26:51Z</time>
  <course>16.65</course>
  <speed>0.01414213562373095</speed>
  <fix>3d</fix>
</trkpt>
<trkpt lat="40.0738334" lon="-105.2301677">
  <ele>1638.03</ele>
  <time>2026-08-27T18:26:51Z</time>
  <course>188.45</course>
  <speed>0.01</speed>
  <fix>3d</fix>
</trkpt>
<trkpt lat="40.0738335" lon="-105.2301678">
  <ele>1638.78</ele>
  <time>2026-08-27T18:26:51Z</time>
  <course>16.65</course>
  <speed>0.01414213562373095</speed>
  <fix>3d</fix>
</trkpt>
<trkpt lat="40.0738335" lon="-105.2301678">
  <ele>1639.27</ele>
  <time>2026-08-27T18:26:51Z</time>
  <course>16.63</course>
  <speed>0.01414213562373095</speed>
  <fix>3d</fix>
</trkpt>
<trkpt lat="40.0738334" lon="-105.2301677">
  <ele>1638.53</ele>
  <time>2026-08-27T18:26:51Z</time>
  <course>188.63</course>
  <speed>0.01</speed>
  <fix>3d</fix>
</trkpt>
<trkpt lat="40.0738335" lon="-105.2301678">
  <ele>1639.34</ele>
  <time>2026-08-27T18:26:51Z</time>
  <course>16.64</course>
  <speed>0.01414213562373095</speed>
  <fix>3d</fix>
</trkpt>
<trkpt lat="40.0738335" lon="-105.2301678">
  <ele>1639.77</ele>
  <time>2026-08-27T18:26:51Z</time>
  <course>16.66</course>
  <speed>0.01414213562373095</speed>
  <fix>3d</fix>
</trkpt>
<trkpt lat="40.0738334" lon="-105.2301677">
  <ele>1639.03</ele>
  <time>2026-08-27T18:26:51Z</time>
  <course>190.72</course>
  <speed>0.01</speed>
  <fix>3d</fix>
</trkpt>
<trkpt lat="40.0738335" lon="-105.2301678">
  <ele>1639.84</ele>
  <time>2026-08-27T18:26:51Z</time>
  <course>16.67</course>
  <speed>0.01414213562373095</speed>
  <fix>3d</fix>
</trkpt>
<trkpt lat="40.0738335" lon="-105.2301678">
  <ele>1640.27</ele>
  <time>2026-08-27T18:26:51Z</time>
  <course>16.71</course>
  <speed>0.01414213562373095</speed>
  <fix>3d</fix>
</trkpt>
<trkpt lat="40.0738333" lon="-105.2301677">
  <ele>1639.53</ele>
  <time>2026-08-27T18:26:51Z</time>
  <course>194.47</course>
  <speed>0.01</speed>
  <fix>3d</fix>
</trkpt>
<trkpt lat="40.0738335" lon="-105.2301678">
  <ele>1640.34</ele>
  <time>2026-08-27T18:26:51Z</time>
  <course>16.72</course>
  <speed>0.01414213562373095</speed>
  <fix>3d</fix>
</trkpt>
<trkpt lat="40.0738335" lon="-105.2301678">
  <ele>1640.77</ele>
  <time>2026-08-27T18:26:51Z</time>
  <course>16.73</course>
  <speed>0.01414213562373095</speed>
  <fix>3d</fix>
</trkpt>
<trkpt lat="40.0738332" lon="-105.2301677">
  <ele>1640.03</ele>
  <time>2026-08-27T18:26:51Z</time>
  <course>196.5</course>
  <speed>0.01</speed>
  <fix>3d</fix>
</trkpt>
<trkpt lat="40.0738335" lon="-105.2301678">
  <ele>1640.84</ele>
  <time>2026-08-27T18:26:51Z</time>
  <course>16.73</course>
  <speed>0.01414213562373095</speed>
  <fix>3d</fix>
</trkpt>
<trkpt lat="40.0738334" lon="-105.2301678">
  <ele>1641.27</ele>
  <time>2026-08-27T18:26:51Z</time>
  <course>16.75</course>
  <speed>0.01414213562373095</speed>
  <fix>3d</fix>
</trkpt>
<trkpt lat="40.0738332" lon="-105.2301677">
  <ele>1640.53</ele>
  <time>2026-08-27T18:26:51Z</time>
  <course>197.31</course>
  <speed>0.01</speed>
  <fix>3d</fix>
</trkpt>
<trkpt lat="40.0738334" lon="-105.2301678">
  <ele>1641.34</ele>
  <time>2026-08-27T18:26:51Z</time>
  <course>16.75</course>
  <speed>0.01414213562373095</speed>
  <fix>3d</fix>
</trkpt>
<trkpt lat="40.0738334" lon="-105.2301678">
  <ele>1641.78</ele>
  <time>2026-08-27T18:26:51Z</time>
  <course>16.79</course>
  <speed>0.01414213562373095</speed>
  <fix>3d</fix>
</trkpt>
<trkpt lat="40.0738332" lon="-105.2301677">
  <ele>1641.04</ele>
  <time>2026-08-27T18:26:51Z</time>
  <course>199.85</course>
  <speed>0.01</speed>
  <fix>3d</fix>
</trkpt>
<trkpt lat="40.0738334" lon="-105.2301678">
  <ele>1641.78</ele>
  <time>2026-08-27T18:26:51Z</time>
  <course>16.79</course>
  <speed>0.01414213562373095</speed>
  <fix>3d</fix>
</trkpt>
<trkpt lat="40.0738334" lon="-105.2301678">
  <ele>1642.28</ele>
  <time>2026-08-27T18:26:51Z</time>
  <course>16.81</course>
  <speed>0.01414213562373095</speed>
  <fix>3d</fix>
</trkpt>
<trkpt lat="40.0738332" lon="-105.2301677">
  <ele>1641.54</ele>
  <time>2026-08-27T18:26:51Z</time>
  <course>203.57</course>
  <speed>0.0</speed>
  <fix>3d</fix>
</trkpt>
<trkpt lat="40.0738334" lon="-105.2301678">
  <ele>1642.35</ele>
  <time>2026-08-27T18:26:51Z</time>
  <course>16.82</course>
  <speed>0.01414213562373095</speed>
  <fix>3d</fix>
</trkpt>
<trkpt lat="40.0738334" lon="-105.2301678">
  <ele>1642.78</ele>
  <time>2026-08-27T18:26:51Z</time>
  <course>16.84</course>
  <speed>0.01414213562373095</speed>
  <fix>3d</fix>
</trkpt>
<trkpt lat="40.0738332" lon="-105.2301677">
  <ele>1642.04</ele>
  <time>2026-08-27T18:26:51Z</time>
  <course>210.04</course>
  <speed>0.0</speed>
  <fix>3d</fix>
</trkpt>
<trkpt lat="40.0738334" lon="-105.2301678">
  <ele>1642.85</ele>
  <time>2026-08-27T18:26:51Z</time>
  <course>16.84</course>
  <speed>0.01414213562373095</speed>
  <fix>3d</fix>
</trkpt>
<trkpt lat="40.0738334" lon="-105.2301678">
  <ele>1643.29</ele>
  <time>2026-08-27T18:26:51Z</time>
  <course>16.86</course>
  <speed>0.01414213562373095</speed>
  <fix>3d</fix>
</trkpt>
<trkpt lat="40.0738331" lon="-105.2301677">
  <ele>1642.54</ele>
  <time>2026-08-27T18:26:51Z</time>
  <course>220.87</course>
  <speed>0.0</speed>
  <fix>3d</fix>
</trkpt>
<trkpt lat="40.0738334" lon="-105.2301678">
  <ele>1643.36</ele>
  <time>2026-08-27T18:26:51Z</time>
  <course>16.86</course>
  <speed>0.01414213562373095</speed>
  <fix>3d</fix>
</trkpt>
<trkpt lat="40.0738334" lon="-105.2301678">
  <ele>1643.79</ele>
  <time>2026-08-27T18:26:51Z</time>
  <course>16.88</course>
  <speed>0.022360679774997897</speed>
  <fix>3d</fix>
</trkpt>
<trkpt lat="40.0738331" lon="-105.2301677">
  <ele>1643.04</ele>
  <time>2026-08-27T18:26:51Z</time>
  <course>234.14</course>
  <speed>0.0</speed>
  <fix>3d</fix>
</trkpt>
<trkpt lat="40.0738334" lon="-105.2301678">
  <ele>1643.79</ele>
  <time>2026-08-27T18:26:51Z</time>
  <course>16.88</course>
  <speed>0.022360679774997897</speed>
  <fix>3d</fix>
</trkpt>
<trkpt lat="40.0738334" lon="-105.2301678">
  <ele>1644.29</ele>
  <time>2026-08-27T18:26:51Z</time>
  <course>16.91</course>
  <speed>0.022360679774997897</speed>
  <fix>3d</fix>
</trkpt>
<trkpt lat="40.0738331" lon="-105.2301677">
  <ele>1643.54</ele>
  <time>2026-08-27T18:26:51Z</time>
  <course>250.66</course>
  <speed>0.0</speed>
  <fix>3d</fix>
</trkpt>
<trkpt lat="40.0738334" lon="-105.2301678">
  <ele>1644.35</ele>
  <time>2026-08-27T18:26:51Z</time>
  <course>16.91</course>
  <speed>0.022360679774997897</speed>
  <fix>3d</fix>
</trkpt>
<trkpt lat="40.0738334" lon="-105.2301678">
  <ele>1644.79</ele>
  <time>2026-08-27T18:26:51Z</time>
  <course>16.93</course>
  <speed>0.022360679774997897</speed>
  <fix>3d</fix>
</trkpt>
<trkpt lat="40.0738331" lon="-105.2301677">
  <ele>1644.04</ele>
  <time>2026-08-27T18:26:51Z</time>
  <course>269.86</course>
  <speed>0.0</speed>
  <fix>3d</fix>
</trkpt>
<trkpt lat="40.0738334" lon="-105.2301678">
  <ele>1644.79</ele>
  <time>2026-08-27T18:26:51Z</time>
  <course>16.93</course>
  <speed>0.022360679774997897</speed>
  <fix>3d</fix>
</trkpt>
<trkpt lat="40.0738334" lon="-105.2301678">
  <ele>1645.29</ele>
  <time>2026-08-27T18:26:51Z</time>
  <course>16.95</course>
  <speed>0.022360679774997897</speed>
  <fix>3d</fix>
</trkpt>
<trkpt lat="40.0738331" lon="-105.2301677">
  <ele>1644.54</ele>
  <time>2026-08-27T18:26:51Z</time>
  <course>290.15</course>
  <speed>0.0</speed>
  <fix>3d</fix>
</trkpt>
<trkpt lat="40.0738334" lon="-105.2301678">
  <ele>1645.38</ele>
  <time>2026-08-27T18:26:51Z</time>
  <course>16.95</course>
  <speed>0.022360679774997897</speed>
  <fix>3d</fix>
</trkpt>
<trkpt lat="40.0738333" lon="-105.2301678">
  <ele>1645.79</ele>
  <time>2026-08-27T18:26:51Z</time>
  <course>16.97</course>
  <speed>0.022360679774997897</speed>
  <fix>3d</fix>
</trkpt>
<trkpt lat="40.0738331" lon="-105.2301677">
  <ele>1645.04</ele>
  <time>2026-08-27T18:26:51Z</time>
  <course>309.13</course>
  <speed>0.0</speed>
  <fix>3d</fix>
</trkpt>
<trkpt lat="40.0738333" lon="-105.2301678">
  <ele>1645.86</ele>
  <time>2026-08-27T18:26:51Z</time>
  <course>16.97</course>
  <speed>0.022360679774997897</speed>
  <fix>3d</fix>
</trkpt>
<trkpt lat="40.0738333" lon="-105.2301678">
  <ele>1646.29</ele>
  <time>2026-08-27T18:26:51Z</time>
  <course>17.0</course>
  <speed>0.022360679774997897</speed>
  <fix>3d</fix>
</trkpt>
<trkpt lat="40.0738331" lon="-105.2301677">
  <ele>1645.54</ele>
  <time>2026-08-27T18:26:51Z</time>
  <course>327.64</course>
  <speed>0.0</speed>
  <fix>3d</fix>
</trkpt>
<trkpt lat="40.0738333" lon="-105.2301678">
  <ele>1646.3</ele>
  <time>2026-08-27T18:26:51Z</time>
  <course>17.0</course>
  <speed>0.022360679774997897</speed>
  <fix>3d</fix>
</trkpt>
<trkpt lat="40.0738333" lon="-105.2301678">
  <ele>1646.79</ele>
  <time>2026-08-27T18:26:51Z</time>
  <course>17.01</course>
  <speed>0.022360679774997897</speed>
  <fix>3d</fix>
</trkpt>
<trkpt lat="40.0738331" lon="-105.2301677">
  <ele>1646.04</ele>
  <time>2026-08-27T18:26:51Z</time>
  <course>342.68</course>
  <speed>0.0</speed>
  <fix>3d</fix>
</trkpt>
<trkpt lat="40.0738333" lon="-105.2301678">
  <ele>1646.86</ele>
  <time>2026-08-27T18:26:51Z</time>
  <course>17.02</course>
  <speed>0.022360679774997897</speed>
  <fix>3d</fix>
</trkpt>
<trkpt lat="40.0738333" lon="-105.2301678">
  <ele>1647.28</ele>
  <time>2026-08-27T18:26:51Z</time>
  <course>17.03</course>
  <speed>0.022360679774997897</speed>
  <fix>3d</fix>
</trkpt>
<trkpt lat="40.0738331" lon="-105.2301677">
  <ele>1646.53</ele>
  <time>2026-08-27T18:26:51Z</time>
  <course>349.83</course>
  <speed>0.0</speed>
  <fix>3d</fix>
</trkpt>
<trkpt lat="40.0738333" lon="-105.2301678">
  <ele>1647.35</ele>
  <time>2026-08-27T18:26:51Z</time>
  <course>17.04</course>
  <speed>0.022360679774997897</speed>
  <fix>3d</fix>
</trkpt>
<trkpt lat="40.0738333" lon="-105.2301678">
  <ele>1647.78</ele>
  <time>2026-08-27T18:26:51Z</time>
  <course>17.05</course>
  <speed>0.022360679774997897</speed>
  <fix>3d</fix>
</trkpt>
<trkpt lat="40.0738331" lon="-105.2301677">
  <ele>1647.03</ele>
  <time>2026-08-27T18:26:51Z</time>
  <course>352.14</course>
  <speed>0.0</speed>
  <fix>3d</fix>
</trkpt>
<trkpt lat="40.0738333" lon="-105.2301678">
  <ele>1647.79</ele>
  <time>2026-08-27T18:26:51Z</time>
  <course>17.05</course>
  <speed>0.022360679774997897</speed>
  <fix>3d</fix>
</trkpt>
<trkpt lat="40.0738333" lon="-105.2301678">
  <ele>1648.29</ele>
  <time>2026-08-27T18:26:51Z</time>
  <course>17.06</course>
  <speed>0.022360679774997897</speed>
  <fix>3d</fix>
</trkpt>
<trkpt lat="40.0738331" lon="-105.2301677">
  <ele>1647.53</ele>
  <time>2026-08-27T18:26:51Z</time>
  <course>353.29</course>
  <speed>0.01</speed>
  <fix>3d</fix>
</trkpt>
<trkpt lat="40.0738333" lon="-105.2301678">
  <ele>1648.36</ele>
  <time>2026-08-27T18:26:51Z</time>
  <course>17.06</course>
  <speed>0.022360679774997897</speed>
  <fix>3d</fix>
</trkpt>
<trkpt lat="40.0738333" lon="-105.2301678">
  <ele>1648.79</ele>
  <time>2026-08-27T18:26:51Z</time>
  <course>17.08</course>
  <speed>0.022360679774997897</speed>
  <fix>3d</fix>
</trkpt>
<trkpt lat="40.0738331" lon="-105.2301677">
  <ele>1648.03</ele>
  <time>2026-08-27T18:26:51Z</time>
  <course>354.24</course>
  <speed>0.01</speed>
  <fix>3d</fix>
</trkpt>
<trkpt lat="40.0738333" lon="-105.2301678">
  <ele>1648.8</ele>
  <time>2026-08-27T18:26:51Z</time>
  <course>17.08</course>
  <speed>0.022360679774997897</speed>
  <fix>3d</fix>
</trkpt>
<trkpt lat="40.0738333" lon="-105.2301678">
  <ele>1649.29</ele>
  <time>2026-08-27T18:26:51Z</time>
  <course>17.1</course>
  <speed>0.022360679774997897</speed>
  <fix>3d</fix>
</trkpt>
<trkpt lat="40.0738332" lon="-105.2301677">
  <ele>1648.53</ele>
  <time>2026-08-27T18:26:51Z</time>
  <course>354.11</course>
  <speed>0.01</speed>
  <fix>3d</fix>
</trkpt>
<trkpt lat="40.0738333" lon="-105.2301678">
  <ele>1649.36</ele>
  <time>2026-08-27T18:26:51Z</time>
  <course>17.1</course>
  <speed>0.022360679774997897</speed>
  <fix>3d</fix>
</trkpt>
<trkpt lat="40.0738333" lon="-105.2301678">
  <ele>1649.79</ele>
  <time>2026-08-27T18:26:51Z</time>
  <course>17.13</course>
  <speed>0.022360679774997897</speed>
  <fix>3d</fix>
</trkpt>
<trkpt lat="40.0738332" lon="-105.2301677">
  <ele>1649.03</ele>
  <time>2026-08-27T18:26:51Z</time>
  <course>353.43</course>
  <speed>0.01</speed>
  <fix>3d</fix>
</trkpt>
<trkpt lat="40.0738333" lon="-105.2301678">
  <ele>1649.85</ele>
  <time>2026-08-27T18:26:51Z</time>
  <course>17.13</course>
  <speed>0.022360679774997897</speed>
  <fix>3d</fix>
</trkpt>
<trkpt lat="40.0738333" lon="-105.2301678">
  <ele>1650.28</ele>
  <time>2026-08-27T18:26:51Z</time>
  <course>17.13</course>
  <speed>0.022360679774997897</speed>
  <fix>3d</fix>
</trkpt>
<trkpt lat="40.0738332" lon="-105.2301677">
  <ele>1649.52</ele>
  <time>2026-08-27T18:26:51Z</time>
  <course>354.07</course>
  <speed>0.01</speed>
  <fix>3d</fix>
</trkpt>
<trkpt lat="40.0738333" lon="-105.2301678">
  <ele>1650.35</ele>
  <time>2026-08-27T18:26:51Z</time>
  <course>17.14</course>
  <speed>0.022360679774997897</speed>
  <fix>3d</fix>
</trkpt>
<trkpt lat="40.0738334" lon="-105.2301678">
  <ele>1650.78</ele>
  <time>2026-08-27T18:26:51Z</time>
  <course>17.14</course>
  <speed>0.022360679774997897</speed>
  <fix>3d</fix>
</trkpt>
<trkpt lat="40.0738332" lon="-105.2301677">
  <ele>1650.02</ele>
  <time>2026-08-27T18:26:51Z</time>
  <course>354.98</course>
  <speed>0.01</speed>
  <fix>3d</fix>
</trkpt>
<trkpt lat="40.0738334" lon="-105.2301678">
  <ele>1650.85</ele>
  <time>2026-08-27T18:26:51Z</time>
  <course>17.15</course>
  <speed>0.022360679774997897</speed>
  <fix>3d</fix>
</trkpt>
<trkpt lat="40.0738334" lon="-105.2301678">
  <ele>1651.28</ele>
  <time>2026-08-27T18:26:51Z</time>
  <course>17.15</course>
  <speed>0.022360679774997897</speed>
  <fix>3d</fix>
</trkpt>
<trkpt lat="40.0738332" lon="-105.2301677">
  <ele>1650.52</ele>
  <time>2026-08-27T18:26:51Z</time>
  <course>354.07</course>
  <speed>0.01</speed>
  <fix>3d</fix>
</trkpt>
<trkpt lat="40.0738334" lon="-105.2301678">
  <ele>1651.29</ele>
  <time>2026-08-27T18:26:51Z</time>
  <course>17.15</course>
  <speed>0.022360679774997897</speed>
  <fix>3d</fix>
</trkpt>
<trkpt lat="40.0738334" lon="-105.2301678">
  <ele>1651.78</ele>
  <time>2026-08-27T18:26:51Z</time>
  <course>17.17</course>
  <speed>0.022360679774997897</speed>
  <fix>3d</fix>
</trkpt>
<trkpt lat="40.0738333" lon="-105.2301677">
  <ele>1651.02</ele>
  <time>2026-08-27T18:26:51Z</time>
  <course>351.89</course>
  <speed>0.0</speed>
  <fix>3d</fix>
</trkpt>
<trkpt lat="40.0738334" lon="-105.2301678">
  <ele>1651.84</ele>
  <time>2026-08-27T18:26:51Z</time>
  <course>17.17</course>
  <speed>0.022360679774997897</speed>
  <fix>3d</fix>
</trkpt>
<trkpt lat="40.0738334" lon="-105.2301678">
  <ele>1652.27</ele>
  <time>2026-08-27T18:26:51Z</time>
  <course>17.17</course>
  <speed>0.022360679774997897</speed>
  <fix>3d</fix>
</trkpt>
<trkpt lat="40.0738334" lon="-105.2301677">
  <ele>1651.52</ele>
  <time>2026-08-27T18:26:51Z</time>
  <course>349.25</course>
  <speed>0.0</speed>
  <fix>3d</fix>
</trkpt>
<trkpt lat="40.0738334" lon="-105.2301678">
  <ele>1652.35</ele>
  <time>2026-08-27T18:26:51Z</time>
  <course>17.17</course>
  <speed>0.022360679774997897</speed>
  <fix>3d</fix>
</trkpt>
<trkpt lat="40.0738334" lon="-105.2301678">
  <ele>1652.77</ele>
  <time>2026-08-27T18:26:51Z</time>
  <course>17.19</course>
  <speed>0.022360679774997897</speed>
  <fix>3d</fix>
</trkpt>
<trkpt lat="40.0738334" lon="-105.2301677">
  <ele>1652.02</ele>
  <time>2026-08-27T18:26:51Z</time>
  <course>347.31</course>
  <speed>0.0</speed>
  <fix>3d</fix>
</trkpt>
<trkpt lat="40.0738334" lon="-105.2301678">
  <ele>1652.85</ele>
  <time>2026-08-27T18:26:51Z</time>
  <course>17.19</course>
  <speed>0.022360679774997897</speed>
  <fix>3d</fix>
</trkpt>
<trkpt lat="40.0738334" lon="-105.2301678">
  <ele>1653.28</ele>
  <time>2026-08-27T18:26:51Z</time>
  <course>17.19</course>
  <speed>0.022360679774997897</speed>
  <fix>3d</fix>
</trkpt>
<trkpt lat="40.0738334" lon="-105.2301677">
  <ele>1652.52</ele>
  <time>2026-08-27T18:26:51Z</time>
  <course>346.61</course>
  <speed>0.0</speed>
  <fix>3d</fix>
</trkpt>
<trkpt lat="40.0738334" lon="-105.2301678">
  <ele>1653.35</ele>
  <time>2026-08-27T18:26:51Z</time>
  <course>17.2</course>
  <speed>0.022360679774997897</speed>
  <fix>3d</fix>
</trkpt>
<trkpt lat="40.0738334" lon="-105.2301678">
  <ele>1653.79</ele>
  <time>2026-08-27T18:26:51Z</time>
  <course>17.22</course>
  <speed>0.022360679774997897</speed>
  <fix>3d</fix>
</trkpt>
<trkpt lat="40.0738334" lon="-105.2301677">
  <ele>1653.02</ele>
  <time>2026-08-27T18:26:51Z</time>
  <course>336.82</course>
  <speed>0.0</speed>
  <fix>3d</fix>
</trkpt>
<trkpt lat="40.0738334" lon="-105.2301678">
  <ele>1653.81</ele>
  <time>2026-08-27T18:26:51Z</time>
  <course>17.22</course>
  <speed>0.022360679774997897</speed>
  <fix>3d</fix>
</trkpt>
<trkpt lat="40.0738335" lon="-105.2301678">
  <ele>1654.29</ele>
  <time>2026-08-27T18:26:51Z</time>
  <course>17.25</course>
  <speed>0.01414213562373095</speed>
  <fix>3d</fix>
</trkpt>
<trkpt lat="40.0738334" lon="-105.2301677">
  <ele>1653.52</ele>
  <time>2026-08-27T18:26:51Z</time>
  <course>307.13</course>
  <speed>0.0</speed>
  <fix>3d</fix>
</trkpt>
<trkpt lat="40.0738335" lon="-105.2301678">
  <ele>1654.37</ele>
  <time>2026-08-27T18:26:51Z</time>
  <course>17.25</course>
  <speed>0.01414213562373095</speed>
  <fix>3d</fix>
</trkpt>
<trkpt lat="40.0738335" lon="-105.2301678">
  <ele>1654.79</ele>
  <time>2026-08-27T18:26:51Z</time>
  <course>17.28</course>
  <speed>0.01414213562373095</speed>
  <fix>3d</fix>
</trkpt>
<trkpt lat="40.0738334" lon="-105.2301677">
  <ele>1654.02</ele>
  <time>2026-08-27T18:26:51Z</time>
  <course>263.94</course>
  <speed>0.0</speed>
  <fix>3d</fix>
</trkpt>
<trkpt lat="40.0738335" lon="-105.2301678">
  <ele>1654.85</ele>
  <time>2026-08-27T18:26:51Z</time>
  <course>17.27</course>
  <speed>0.01414213562373095</speed>
  <fix>3d</fix>
</trkpt>
<trkpt lat="40.0738335" lon="-105.2301678">
  <ele>1655.28</ele>
  <time>2026-08-27T18:26:51Z</time>
  <course>17.28</course>
  <speed>0.01414213562373095</speed>
  <fix>3d</fix>
</trkpt>
<trkpt lat="40.0738334" lon="-105.2301677">
  <ele>1654.52</ele>
  <time>2026-08-27T18:26:51Z</time>
  <course>227.19</course>
  <speed>0.0</speed>
  <fix>3d</fix>
</trkpt>
<trkpt lat="40.0738334" lon="-105.2301678">
  <ele>1655.35</ele>
  <time>2026-08-27T18:26:51Z</time>
  <course>17.28</course>
  <speed>0.01414213562373095</speed>
  <fix>3d</fix>
</trkpt>
<trkpt lat="40.0738334" lon="-105.2301678">
  <ele>1655.79</ele>
  <time>2026-08-27T18:26:51Z</time>
  <course>17.29</course>
  <speed>0.01414213562373095</speed>
  <fix>3d</fix>
</trkpt>
<trkpt lat="40.0738334" lon="-105.2301677">
  <ele>1655.01</ele>
  <time>2026-08-27T18:26:51Z</time>
  <course>205.62</course>
  <speed>0.0</speed>
  <fix>3d</fix>
</trkpt>
<trkpt lat="40.0738334" lon="-105.2301678">
  <ele>1655.86</ele>
  <time>2026-08-27T18:26:51Z</time>
  <course>17.29</course>
  <speed>0.01414213562373095</speed>
  <fix>3d</fix>
</trkpt>
<trkpt lat="40.0738334" lon="-105.2301678">
  <ele>1656.29</ele>
  <time>2026-08-27T18:26:51Z</time>
  <course>17.3</course>
  <speed>0.01414213562373095</speed>
  <fix>3d</fix>
</trkpt>
<trkpt lat="40.0738334" lon="-105.2301678">
  <ele>1655.51</ele>
  <time>2026-08-27T18:26:51Z</time>
  <course>194.97</course>
  <speed>0.0</speed>
  <fix>3d</fix>
</trkpt>
<trkpt lat="40.0738334" lon="-105.2301678">
  <ele>1656.36</ele>
  <time>2026-08-27T18:26:51Z</time>
  <course>17.31</course>
  <speed>0.01414213562373095</speed>
  <fix>3d</fix>
</trkpt>
<trkpt lat="40.0738334" lon="-105.2301678">
  <ele>1656.79</ele>
  <time>2026-08-27T18:26:51Z</time>
  <course>17.32</course>
  <speed>0.01414213562373095</speed>
  <fix>3d</fix>
</trkpt>
<trkpt lat="40.0738334" lon="-105.2301679">
  <ele>1656.01</ele>
  <time>2026-08-27T18:26:51Z</time>
  <course>190.13</course>
  <speed>0.0</speed>
  <fix>3d</fix>
</trkpt>
<trkpt lat="40.0738334" lon="-105.2301678">
  <ele>1656.79</ele>
  <time>2026-08-27T18:26:51Z</time>
  <course>17.32</course>
  <speed>0.01414213562373095</speed>
  <fix>3d</fix>
</trkpt>
<trkpt lat="40.0738334" lon="-105.2301678">
  <ele>1657.28</ele>
  <time>2026-08-27T18:26:51Z</time>
  <course>17.33</course>
  <speed>0.01</speed>
  <fix>3d</fix>
</trkpt>
<trkpt lat="40.0738334" lon="-105.2301679">
  <ele>1656.51</ele>
  <time>2026-08-27T18:26:51Z</time>
  <course>189.9</course>
  <speed>0.01</speed>
  <fix>3d</fix>
</trkpt>
<trkpt lat="40.0738334" lon="-105.2301678">
  <ele>1657.35</ele>
  <time>2026-08-27T18:26:51Z</time>
  <course>17.33</course>
  <speed>0.01</speed>
  <fix>3d</fix>
</trkpt>
<trkpt lat="40.0738334" lon="-105.2301679">
  <ele>1657.77</ele>
  <time>2026-08-27T18:26:51Z</time>
  <course>17.34</course>
  <speed>0.01</speed>
  <fix>3d</fix>
</trkpt>
<trkpt lat="40.0738334" lon="-105.2301679">
  <ele>1657.0</ele>
  <time>2026-08-27T18:26:51Z</time>
  <course>188.85</course>
  <speed>0.01</speed>
  <fix>3d</fix>
</trkpt>
<trkpt lat="40.0738334" lon="-105.2301679">
  <ele>1657.84</ele>
  <time>2026-08-27T18:26:51Z</time>
  <course>17.34</course>
  <speed>0.01</speed>
  <fix>3d</fix>
</trkpt>
<trkpt lat="40.0738334" lon="-105.2301679">
  <ele>1658.27</ele>
  <time>2026-08-27T18:26:51Z</time>
  <course>17.35</course>
  <speed>0.01</speed>
  <fix>3d</fix>
</trkpt>
<trkpt lat="40.0738334" lon="-105.2301679">
  <ele>1657.5</ele>
  <time>2026-08-27T18:26:51Z</time>
  <course>185.6</course>
  <speed>0.01</speed>
  <fix>3d</fix>
</trkpt>
<trkpt lat="40.0738334" lon="-105.2301679">
  <ele>1658.34</ele>
  <time>2026-08-27T18:26:51Z</time>
  <course>17.35</course>
  <speed>0.01</speed>
  <fix>3d</fix>
</trkpt>
<trkpt lat="40.0738334" lon="-105.2301679">
  <ele>1658.78</ele>
  <time>2026-08-27T18:26:51Z</time>
  <course>17.34</course>
  <speed>0.01</speed>
  <fix>3d</fix>
</trkpt>
<trkpt lat="40.0738334" lon="-105.2301679">
  <ele>1658.0</ele>
  <time>2026-08-27T18:26:51Z</time>
  <course>182.13</course>
  <speed>0.01</speed>
  <fix>3d</fix>
</trkpt>
<trkpt lat="40.0738334" lon="-105.2301679">
  <ele>1658.78</ele>
  <time>2026-08-27T18:26:51Z</time>
  <course>17.34</course>
  <speed>0.01</speed>
  <fix>3d</fix>
</trkpt>
<trkpt lat="40.0738334" lon="-105.2301679">
  <ele>1659.28</ele>
  <time>2026-08-27T18:26:51Z</time>
  <course>17.36</course>
  <speed>0.01</speed>
  <fix>3d</fix>
</trkpt>
<trkpt lat="40.0738333" lon="-105.2301679">
  <ele>1658.5</ele>
  <time>2026-08-27T18:26:51Z</time>
  <course>179.12</course>
  <speed>0.01</speed>
  <fix>3d</fix>
</trkpt>
<trkpt lat="40.0738334" lon="-105.2301679">
  <ele>1659.35</ele>
  <time>2026-08-27T18:26:51Z</time>
  <course>17.36</course>
  <speed>0.01</speed>
  <fix>3d</fix>
</trkpt>
<trkpt lat="40.0738334" lon="-105.2301679">
  <ele>1659.77</ele>
  <time>2026-08-27T18:26:51Z</time>
  <course>17.37</course>
  <speed>0.01414213562373095</speed>
  <fix>3d</fix>
</trkpt>
<trkpt lat="40.0738332" lon="-105.2301679">
  <ele>1659.0</ele>
  <time>2026-08-27T18:26:51Z</time>
  <course>175.36</course>
  <speed>0.01</speed>
  <fix>3d</fix>
</trkpt>
<trkpt lat="40.0738334" lon="-105.2301679">
  <ele>1659.78</ele>
  <time>2026-08-27T18:26:51Z</time>
  <course>17.37</course>
  <speed>0.01414213562373095</speed>
  <fix>3d</fix>
</trkpt>
<trkpt lat="40.0738334" lon="-105.2301679">
  <ele>1660.28</ele>
  <time>2026-08-27T18:26:51Z</time>
  <course>17.38</course>
  <speed>0.01414213562373095</speed>
  <fix>3d</fix>
</trkpt>
<trkpt lat="40.0738332" lon="-105.2301679">
  <ele>1659.5</ele>
  <time>2026-08-27T18:26:51Z</time>
  <course>169.21</course>
  <speed>0.01</speed>
  <fix>3d</fix>
</trkpt>
<trkpt lat="40.0738334" lon="-105.2301679">
  <ele>1660.34</ele>
  <time>2026-08-27T18:26:51Z</time>
  <course>17.39</course>
  <speed>0.01414213562373095</speed>
  <fix>3d</fix>
</trkpt>
<trkpt lat="40.0738334" lon="-105.2301679">
  <ele>1660.78</ele>
  <time>2026-08-27T18:26:51Z</time>
  <course>17.36</course>
  <speed>0.01</speed>
  <fix>3d</fix>
</trkpt>
<trkpt lat="40.0738332" lon="-105.2301679">
  <ele>1660.0</ele>
  <time>2026-08-27T18:26:51Z</time>
  <course>160.12</course>
  <speed>0.01</speed>
  <fix>3d</fix>
</trkpt>
<trkpt lat="40.0738334" lon="-105.2301679">
  <ele>1660.85</ele>
  <time>2026-08-27T18:26:51Z</time>
  <course>17.36</course>
  <speed>0.01</speed>
  <fix>3d</fix>
</trkpt>
<trkpt lat="40.0738334" lon="-105.2301679">
  <ele>1661.29</ele>
  <time>2026-08-27T18:26:51Z</time>
  <course>17.4</course>
  <speed>0.01</speed>
  <fix>3d</fix>
</trkpt>
<trkpt lat="40.0738332" lon="-105.2301679">
  <ele>1660.5</ele>
  <time>2026-08-27T18:26:51Z</time>
  <course>150.44</course>
  <speed>0.01</speed>
  <fix>3d</fix>
</trkpt>
<trkpt lat="40.0738334" lon="-105.2301679">
  <ele>1661.31</ele>
  <time>2026-08-27T18:26:51Z</time>
  <course>17.4</course>
  <speed>0.01</speed>
  <fix>3d</fix>
</trkpt>
<trkpt lat="40.0738334" lon="-105.2301679">
  <ele>1661.8</ele>
  <time>2026-08-27T18:26:51Z</time>
  <course>17.43</course>
  <speed>0.01</speed>
  <fix>3d</fix>
</trkpt>
<trkpt lat="40.0738332" lon="-105.2301679">
  <ele>1661.0</ele>
  <time>2026-08-27T18:26:51Z</time>
  <course>138.44</course>
  <speed>0.0</speed>
  <fix>3d</fix>
</trkpt>
<trkpt lat="40.0738334" lon="-105.2301679">
  <ele>1661.92</ele>
  <time>2026-08-27T18:26:51Z</time>
  <course>17.44</course>
  <speed>0.01</speed>
  <fix>3d</fix>
</trkpt>
<trkpt lat="40.0738334" lon="-105.2301679">
  <ele>1662.3</ele>
  <time>2026-08-27T18:26:51Z</time>
  <course>17.45</course>
  <speed>0.01</speed>
  <fix>3d</fix>
</trkpt>
<trkpt lat="40.0738332" lon="-105.2301679">
  <ele>1661.5</ele>
  <time>2026-08-27T18:26:51Z</time>
  <course>123.86</course>
  <speed>0.0</speed>
  <fix>3d</fix>
</trkpt>
<trkpt lat="40.0738334" lon="-105.2301679">
  <ele>1662.39</ele>
  <time>2026-08-27T18:26:51Z</time>
  <course>17.44</course>
  <speed>0.01</speed>
  <fix>3d</fix>
</trkpt>
<trkpt lat="40.0738334" lon="-105.2301679">
  <ele>1662.8</ele>
  <time>2026-08-27T18:26:51Z</time>
  <course>17.47</course>
  <speed>0.01</speed>
  <fix>3d</fix>
</trkpt>
<trkpt lat="40.0738331" lon="-105.2301679">
  <ele>1662.0</ele>
  <time>2026-08-27T18:26:51Z</time>
  <course>112.41</course>
  <speed>0.0</speed>
  <fix>3d</fix>
</trkpt>
<trkpt lat="40.0738334" lon="-105.2301679">
  <ele>1662.87</ele>
  <time>2026-08-27T18:26:51Z</time>
  <course>17.48</course>
  <speed>0.02</speed>
  <fix>3d</fix>
</trkpt>
<trkpt lat="40.0738333" lon="-105.2301679">
  <ele>1663.3</ele>
  <time>2026-08-27T18:26:51Z</time>
  <course>17.49</course>
  <speed>0.02</speed>
  <fix>3d</fix>
</trkpt>
<trkpt lat="40.0738331" lon="-105.2301679">
  <ele>1662.49</ele>
  <time>2026-08-27T18:26:51Z</time>
  <course>102.72</course>
  <speed>0.0</speed>
  <fix>3d</fix>
</trkpt>
<trkpt lat="40.0738333" lon="-105.2301679">
  <ele>1663.37</ele>
  <time>2026-08-27T18:26:51Z</time>
  <course>17.48</course>
  <speed>0.02</speed>
  <fix>3d</fix>
</trkpt>
<trkpt lat="40.0738333" lon="-105.2301679">
  <ele>1663.79</ele>
  <time>2026-08-27T18:26:51Z</time>
  <course>17.47</course>
  <speed>0.02</speed>
  <fix>3d</fix>
</trkpt>
<trkpt lat="40.0738331" lon="-105.2301678">
  <ele>1662.99</ele>
  <time>2026-08-27T18:26:51Z</time>
  <course>92.31</course>
  <speed>0.0</speed>
  <fix>3d</fix>
</trkpt>
<trkpt lat="40.0738333" lon="-105.2301679">
  <ele>1663.81</ele>
  <time>2026-08-27T18:26:51Z</time>
  <course>17.48</course>
  <speed>0.02</speed>
  <fix>3d</fix>
</trkpt>
<trkpt lat="40.0738333" lon="-105.2301679">
  <ele>1664.29</ele>
  <time>2026-08-27T18:26:51Z</time>
  <course>17.51</course>
  <speed>0.02</speed>
  <fix>3d</fix>
</trkpt>
<trkpt lat="40.0738331" lon="-105.2301677">
  <ele>1663.48</ele>
  <time>2026-08-27T18:26:51Z</time>
  <course>81.73</course>
  <speed>0.0</speed>
  <fix>3d</fix>
</trkpt>
<trkpt lat="40.0738333" lon="-105.2301679">
  <ele>1664.37</ele>
  <time>2026-08-27T18:26:51Z</time>
  <course>17.5</course>
  <speed>0.02</speed>
  <fix>3d</fix>
</trkpt>
<trkpt lat="40.0738333" lon="-105.2301679">
  <ele>1664.79</ele>
  <time>2026-08-27T18:26:51Z</time>
  <course>17.51</course>
  <speed>0.02</speed>
  <fix>3d</fix>
</trkpt>
<trkpt lat="40.0738331" lon="-105.2301677">
  <ele>1663.98</ele>
  <time>2026-08-27T18:26:51Z</time>
  <course>71.99</course>
  <speed>0.0</speed>
  <fix>3d</fix>
</trkpt>
<trkpt lat="40.0738333" lon="-105.2301679">
  <ele>1664.88</ele>
  <time>2026-08-27T18:26:51Z</time>
  <course>17.51</course>
  <speed>0.02</speed>
  <fix>3d</fix>
</trkpt>
<trkpt lat="40.0738333" lon="-105.2301679">
  <ele>1665.29</ele>
  <time>2026-08-27T18:26:51Z</time>
  <course>17.49</course>
  <speed>0.02</speed>
  <fix>3d</fix>
</trkpt>
<trkpt lat="40.0738331" lon="-105.2301677">
  <ele>1664.48</ele>
  <time>2026-08-27T18:26:51Z</time>
  <course>62.69</course>
  <speed>0.0</speed>
  <fix>3d</fix>
</trkpt>
<trkpt lat="40.0738333" lon="-105.2301679">
  <ele>1665.38</ele>
  <time>2026-08-27T18:26:51Z</time>
  <course>17.5</course>
  <speed>0.02</speed>
  <fix>3d</fix>
</trkpt>
<trkpt lat="40.0738333" lon="-105.2301679">
  <ele>1665.78</ele>
  <time>2026-08-27T18:26:51Z</time>
  <course>17.5</course>
  <speed>0.02</speed>
  <fix>3d</fix>
</trkpt>
<trkpt lat="40.0738331" lon="-105.2301677">
  <ele>1664.97</ele>
  <time>2026-08-27T18:26:51Z</time>
  <course>50.84</course>
  <speed>0.0</speed>
  <fix>3d</fix>
</trkpt>
<trkpt lat="40.0738333" lon="-105.2301679">
  <ele>1665.86</ele>
  <time>2026-08-27T18:26:51Z</time>
  <course>17.5</course>
  <speed>0.02</speed>
  <fix>3d</fix>
</trkpt>
<trkpt lat="40.0738333" lon="-105.2301679">
  <ele>1666.27</ele>
  <time>2026-08-27T18:26:51Z</time>
  <course>17.5</course>
  <speed>0.02</speed>
  <fix>3d</fix>
</trkpt>
<trkpt lat="40.0738331" lon="-105.2301677">
  <ele>1665.47</ele>
  <time>2026-08-27T18:26:51Z</time>
  <course>38.93</course>
  <speed>0.0</speed>
  <fix>3d</fix>
</trkpt>
<trkpt lat="40.0738333" lon="-105.2301679">
  <ele>1666.29</ele>
  <time>2026-08-27T18:26:51Z</time>
  <course>17.5</course>
  <speed>0.02</speed>
  <fix>3d</fix>
</trkpt>
<trkpt lat="40.0738333" lon="-105.2301679">
  <ele>1666.76</ele>
  <time>2026-08-27T18:26:51Z</time>
  <course>17.5</course>
  <speed>0.022360679774997897</speed>
  <fix>3d</fix>
</trkpt>
<trkpt lat="40.0738331" lon="-105.2301677">
  <ele>1665.97</ele>
  <time>2026-08-27T18:26:51Z</time>
  <course>29.35</course>
  <speed>0.0</speed>
  <fix>3d</fix>
</trkpt>
<trkpt lat="40.0738333" lon="-105.2301679">
  <ele>1666.84</ele>
  <time>2026-08-27T18:26:51Z</time>
  <course>17.5</course>
  <speed>0.022360679774997897</speed>
  <fix>3d</fix>
</trkpt>
<trkpt lat="40.0738333" lon="-105.2301679">
  <ele>1667.26</ele>
  <time>2026-08-27T18:26:51Z</time>
  <course>17.48</course>
  <speed>0.022360679774997897</speed>
  <fix>3d</fix>
</trkpt>
<trkpt lat="40.0738331" lon="-105.2301677">
  <ele>1666.47</ele>
  <time>2026-08-27T18:26:51Z</time>
  <course>23.34</course>
  <speed>0.0</speed>
  <fix>3d</fix>
</trkpt>
<trkpt lat="40.0738333" lon="-105.2301679">
  <ele>1667.33</ele>
  <time>2026-08-27T18:26:51Z</time>
  <course>17.48</course>
  <speed>0.022360679774997897</speed>
  <fix>3d</fix>
</trkpt>
<trkpt lat="40.0738333" lon="-105.2301679">
  <ele>1667.77</ele>
  <time>2026-08-27T18:26:51Z</time>
  <course>17.49</course>
  <speed>0.022360679774997897</speed>
  <fix>3d</fix>
</trkpt>
<trkpt lat="40.0738331" lon="-105.2301677">
  <ele>1666.97</ele>
  <time>2026-08-27T18:26:51Z</time>
  <course>16.35</course>
  <speed>0.0</speed>
  <fix>3d</fix>
</trkpt>
<trkpt lat="40.0738333" lon="-105.2301679">
  <ele>1667.83</ele>
  <time>2026-08-27T18:26:51Z</time>
  <course>17.49</course>
  <speed>0.022360679774997897</speed>
  <fix>3d</fix>
</trkpt>
<trkpt lat="40.0738333" lon="-105.2301678">
  <ele>1668.26</ele>
  <time>2026-08-27T18:26:51Z</time>
  <course>17.52</course>
  <speed>0.022360679774997897</speed>
  <fix>3d</fix>
</trkpt>
<trkpt lat="40.0738331" lon="-105.2301677">
  <ele>1667.47</ele>
  <time>2026-08-27T18:26:51Z</time>
  <course>6.68</course>
  <speed>0.0</speed>
  <fix>3d</fix>
</trkpt>
<trkpt lat="40.0738333" lon="-105.2301678">
  <ele>1668.35</ele>
  <time>2026-08-27T18:26:51Z</time>
  <course>17.52</course>
  <speed>0.022360679774997897</speed>
  <fix>3d</fix>
</trkpt>
<trkpt lat="40.0738333" lon="-105.2301678">
  <ele>1668.76</ele>
  <time>2026-08-27T18:26:51Z</time>
  <course>17.5</course>
  <speed>0.022360679774997897</speed>
  <fix>3d</fix>
</trkpt>
<trkpt lat="40.0738332" lon="-105.2301677">
  <ele>1667.97</ele>
  <time>2026-08-27T18:26:51Z</time>
  <course>359.9</course>
  <speed>0.0</speed>
  <fix>3d</fix>
</trkpt>
<trkpt lat="40.0738333" lon="-105.2301678">
  <ele>1668.77</ele>
  <time>2026-08-27T18:26:51Z</time>
  <course>17.5</course>
  <speed>0.022360679774997897</speed>
  <fix>3d</fix>
</trkpt>
<trkpt lat="40.0738333" lon="-105.2301678">
  <ele>1669.26</ele>
  <time>2026-08-27T18:26:51Z</time>
  <course>17.52</course>
  <speed>0.022360679774997897</speed>
  <fix>3d</fix>
</trkpt>
<trkpt lat="40.0738332" lon="-105.2301677">
  <ele>1668.47</ele>
  <time>2026-08-27T18:26:51Z</time>
  <course>354.97</course>
  <speed>0.0</speed>
  <fix>3d</fix>
</trkpt>
<trkpt lat="40.0738333" lon="-105.2301678">
  <ele>1669.33</ele>
  <time>2026-08-27T18:26:51Z</time>
  <course>17.52</course>
  <speed>0.022360679774997897</speed>
  <fix>3d</fix>
</trkpt>
<trkpt lat="40.0738333" lon="-105.2301678">
  <ele>1669.76</ele>
  <time>2026-08-27T18:26:51Z</time>
  <course>17.53</course>
  <speed>0.022360679774997897</speed>
  <fix>3d</fix>
</trkpt>
<trkpt lat="40.0738332" lon="-105.2301677">
  <ele>1668.97</ele>
  <time>2026-08-27T18:26:51Z</time>
  <course>350.96</course>
  <speed>0.0</speed>
  <fix>3d</fix>
</trkpt>
<trkpt lat="40.0738333" lon="-105.2301678">
  <ele>1669.82</ele>
  <time>2026-08-27T18:26:51Z</time>
  <course>17.53</course>
  <speed>0.022360679774997897</speed>
  <fix>3d</fix>
</trkpt>
<trkpt lat="40.0738333" lon="-105.2301678">
  <ele>1670.26</ele>
  <time>2026-08-27T18:26:51Z</time>
  <course>17.52</course>
  <speed>0.022360679774997897</speed>
  <fix>3d</fix>
</trkpt>
<trkpt lat="40.0738332" lon="-105.2301677">
  <ele>1669.47</ele>
  <time>2026-08-27T18:26:51Z</time>
  <course>348.16</course>
  <speed>0.0</speed>
  <fix>3d</fix>
</trkpt>
<trkpt lat="40.0738333" lon="-105.2301678">
  <ele>1670.32</ele>
  <time>2026-08-27T18:26:51Z</time>
  <course>17.52</course>
  <speed>0.022360679774997897</speed>
  <fix>3d</fix>
</trkpt>
<trkpt lat="40.0738333" lon="-105.2301678">
  <ele>1670.76</ele>
  <time>2026-08-27T18:26:51Z</time>
  <course>17.52</course>
  <speed>0.022360679774997897</speed>
  <fix>3d</fix>
</trkpt>
<trkpt lat="40.0738332" lon="-105.2301677">
  <ele>1669.98</ele>
  <time>2026-08-27T18:26:51Z</time>
  <course>346.1</course>
  <speed>0.0</speed>
  <fix>3d</fix>
</trkpt>
<trkpt lat="40.0738333" lon="-105.2301678">
  <ele>1670.83</ele>
  <time>2026-08-27T18:26:51Z</time>
  <course>17.53</course>
  <speed>0.022360679774997897</speed>
  <fix>3d</fix>
</trkpt>
<trkpt lat="40.0738333" lon="-105.2301678">
  <ele>1671.27</ele>
  <time>2026-08-27T18:26:52Z</time>
  <course>17.57</course>
  <speed>0.022360679774997897</speed>
  <fix>3d</fix>
</trkpt>
<trkpt lat="40.0738332" lon="-105.2301677">
  <ele>1670.48</ele>
  <time>2026-08-27T18:26:52Z</time>
  <course>341.32</course>
  <speed>0.0</speed>
  <fix>3d</fix>
</trkpt>
<trkpt lat="40.0738333" lon="-105.2301678">
  <ele>1671.35</ele>
  <time>2026-08-27T18:26:52Z</time>
  <course>17.58</course>
  <speed>0.022360679774997897</speed>
  <fix>3d</fix>
</trkpt>
<trkpt lat="40.0738333" lon="-105.2301678">
  <ele>1671.78</ele>
  <time>2026-08-27T18:26:52Z</time>
  <course>17.58</course>
  <speed>0.022360679774997897</speed>
  <fix>3d</fix>
</trkpt>
<trkpt lat="40.0738332" lon="-105.2301677">
  <ele>1670.99</ele>
  <time>2026-08-27T18:26:52Z</time>
  <course>335.59</course>
  <speed>0.0</speed>
  <fix>3d</fix>
</trkpt>
<trkpt lat="40.0738333" lon="-105.2301678">
  <ele>1671.81</ele>
  <time>2026-08-27T18:26:52Z</time>
  <course>17.58</course>
  <speed>0.022360679774997897</speed>
  <fix>3d</fix>
</trkpt>
<trkpt lat="40.0738333" lon="-105.2301678">
  <ele>1672.28</ele>
  <time>2026-08-27T18:26:52Z</time>
  <course>17.59</course>
  <speed>0.022360679774997897</speed>
  <fix>3d</fix>
</trkpt>
<trkpt lat="40.0738332" lon="-105.2301677">
  <ele>1671.49</ele>
  <time>2026-08-27T18:26:52Z</time>
  <course>329.22</course>
  <speed>0.0</speed>
  <fix>3d</fix>
</trkpt>
<trkpt lat="40.0738333" lon="-105.2301678">
  <ele>1672.35</ele>
  <time>2026-08-27T18:26:52Z</time>
  <course>17.59</course>
  <speed>0.022360679774997897</speed>
  <fix>3d</fix>
</trkpt>
<trkpt lat="40.0738334" lon="-105.2301678">
  <ele>1672.78</ele>
  <time>2026-08-27T18:26:52Z</time>
  <course>17.6</course>
  <speed>0.022360679774997897</speed>
  <fix>3d</fix>
</trkpt>
<trkpt lat="40.0738333" lon="-105.2301677">
  <ele>1671.99</ele>
  <time>2026-08-27T18:26:52Z</time>
  <course>319.57</course>
  <speed>0.0</speed>
  <fix>3d</fix>
</trkpt>
<trkpt lat="40.0738334" lon="-105.2301678">
  <ele>1672.85</ele>
  <time>2026-08-27T18:26:52Z</time>
  <course>17.6</course>
  <speed>0.022360679774997897</speed>
  <fix>3d</fix>
</trkpt>
<trkpt lat="40.0738334" lon="-105.2301678">
  <ele>1673.28</ele>
  <time>2026-08-27T18:26:52Z</time>
  <course>17.61</course>
  <speed>0.022360679774997897</speed>
  <fix>3d</fix>
</trkpt>
<trkpt lat="40.0738334" lon="-105.2301677">
  <ele>1672.5</ele>
  <time>2026-08-27T18:26:52Z</time>
  <course>310.88</course>
  <speed>0.0</speed>
  <fix>3d</fix>
</trkpt>
<trkpt lat="40.0738334" lon="-105.2301678">
  <ele>1673.36</ele>
  <time>2026-08-27T18:26:52Z</time>
  <course>17.61</course>
  <speed>0.022360679774997897</speed>
  <fix>3d</fix>
</trkpt>
<trkpt lat="40.0738334" lon="-105.2301678">
  <ele>1673.78</ele>
  <time>2026-08-27T18:26:52Z</time>
  <course>17.62</course>
  <speed>0.01414213562373095</speed>
  <fix>3d</fix>
</trkpt>
<trkpt lat="40.0738334" lon="-105.2301677">
  <ele>1673.0</ele>
  <time>2026-08-27T18:26:52Z</time>
  <course>302.69</course>
  <speed>0.0</speed>
  <fix>3d</fix>
</trkpt>
<trkpt lat="40.0738334" lon="-105.2301678">
  <ele>1673.79</ele>
  <time>2026-08-27T18:26:52Z</time>
  <course>17.62</course>
  <speed>0.022360679774997897</speed>
  <fix>3d</fix>
</trkpt>
<trkpt lat="40.0738334" lon="-105.2301678">
  <ele>1674.29</ele>
  <time>2026-08-27T18:26:52Z</time>
  <course>17.63</course>
  <speed>0.01414213562373095</speed>
  <fix>3d</fix>
</trkpt>
<trkpt lat="40.0738334" lon="-105.2301677">
  <ele>1673.5</ele>
  <time>2026-08-27T18:26:52Z</time>
  <course>297.19</course>
  <speed>0.0</speed>
  <fix>3d</fix>
</trkpt>
<trkpt lat="40.0738334" lon="-105.2301678">
  <ele>1674.37</ele>
  <time>2026-08-27T18:26:52Z</time>
  <course>17.63</course>
  <speed>0.01414213562373095</speed>
  <fix>3d</fix>
</trkpt>
<trkpt lat="40.0738334" lon="-105.2301678">
  <ele>1674.79</ele>
  <time>2026-08-27T18:26:52Z</time>
  <course>17.65</course>
  <speed>0.01414213562373095</speed>
  <fix>3d</fix>
</trkpt>
<trkpt lat="40.0738334" lon="-105.2301677">
  <ele>1674.0</ele>
  <time>2026-08-27T18:26:52Z</time>
  <course>289.36</course>
  <speed>0.0</speed>
  <fix>3d</fix>
</trkpt>
<trkpt lat="40.0738334" lon="-105.2301678">
  <ele>1674.81</ele>
  <time>2026-08-27T18:26:52Z</time>
  <course>17.65</course>
  <speed>0.01414213562373095</speed>
  <fix>3d</fix>
</trkpt>
<trkpt lat="40.0738334" lon="-105.2301678">
  <ele>1675.29</ele>
  <time>2026-08-27T18:26:52Z</time>
  <course>17.65</course>
  <speed>0.01414213562373095</speed>
  <fix>3d</fix>
</trkpt>
<trkpt lat="40.0738334" lon="-105.2301677">
  <ele>1674.49</ele>
  <time>2026-08-27T18:26:52Z</time>
  <course>264.09</course>
  <speed>0.0</speed>
  <fix>3d</fix>
</trkpt>
<trkpt lat="40.0738334" lon="-105.2301678">
  <ele>1675.36</ele>
  <time>2026-08-27T18:26:52Z</time>
  <course>17.65</course>
  <speed>0.01414213562373095</speed>
  <fix>3d</fix>
</trkpt>
<trkpt lat="40.0738334" lon="-105.2301678">
  <ele>1675.78</ele>
  <time>2026-08-27T18:26:52Z</time>
  <course>17.65</course>
  <speed>0.01414213562373095</speed>
  <fix>3d</fix>
</trkpt>
<trkpt lat="40.0738334" lon="-105.2301677">
  <ele>1674.99</ele>
  <time>2026-08-27T18:26:52Z</time>
  <course>233.17</course>
  <speed>0.0</speed>
  <fix>3d</fix>
</trkpt>
<trkpt lat="40.0738334" lon="-105.2301678">
  <ele>1675.86</ele>
  <time>2026-08-27T18:26:52Z</time>
  <course>17.65</course>
  <speed>0.01414213562373095</speed>
  <fix>3d</fix>
</trkpt>
<trkpt lat="40.0738334" lon="-105.2301678">
  <ele>1676.28</ele>
  <time>2026-08-27T18:26:52Z</time>
  <course>17.65</course>
  <speed>0.01414213562373095</speed>
  <fix>3d</fix>
</trkpt>
<trkpt lat="40.0738334" lon="-105.2301677">
  <ele>1675.49</ele>
  <time>2026-08-27T18:26:52Z</time>
  <course>208.19</course>
  <speed>0.0</speed>
  <fix>3d</fix>
</trkpt>
<trkpt lat="40.0738334" lon="-105.2301678">
  <ele>1676.28</ele>
  <time>2026-08-27T18:26:52Z</time>
  <course>17.65</course>
  <speed>0.01414213562373095</speed>
  <fix>3d</fix>
</trkpt>
<trkpt lat="40.0738334" lon="-105.2301678">
  <ele>1676.78</ele>
  <time>2026-08-27T18:26:52Z</time>
  <course>17.65</course>
  <speed>0.01414213562373095</speed>
  <fix>3d</fix>
</trkpt>
<trkpt lat="40.0738334" lon="-105.2301677">
  <ele>1675.99</ele>
  <time>2026-08-27T18:26:52Z</time>
  <course>190.88</course>
  <speed>0.0</speed>
  <fix>3d</fix>
</trkpt>
<trkpt lat="40.0738334" lon="-105.2301678">
  <ele>1676.85</ele>
  <time>2026-08-27T18:26:52Z</time>
  <course>17.65</course>
  <speed>0.01414213562373095</speed>
  <fix>3d</fix>
</trkpt>
<trkpt lat="40.0738334" lon="-105.2301678">
  <ele>1677.28</ele>
  <time>2026-08-27T18:26:52Z</time>
  <course>17.66</course>
  <speed>0.01414213562373095</speed>
  <fix>3d</fix>
</trkpt>
<trkpt lat="40.0738334" lon="-105.2301677">
  <ele>1676.49</ele>
  <time>2026-08-27T18:26:52Z</time>
  <course>184.35</course>
  <speed>0.0</speed>
  <fix>3d</fix>
</trkpt>
<trkpt lat="40.0738334" lon="-105.2301678">
  <ele>1677.35</ele>
  <time>2026-08-27T18:26:52Z</time>
  <course>17.66</course>
  <speed>0.01414213562373095</speed>
  <fix>3d</fix>
</trkpt>
<trkpt lat="40.0738334" lon="-105.2301678">
  <ele>1677.78</ele>
  <time>2026-08-27T18:26:52Z</time>
  <course>17.67</course>
  <speed>0.01414213562373095</speed>
  <fix>3d</fix>
</trkpt>
<trkpt lat="40.0738334" lon="-105.2301677">
  <ele>1676.98</ele>
  <time>2026-08-27T18:26:52Z</time>
  <course>182.87</course>
  <speed>0.0</speed>
  <fix>3d</fix>
</trkpt>
<trkpt lat="40.0738334" lon="-105.2301678">
  <ele>1677.78</ele>
  <time>2026-08-27T18:26:52Z</time>
  <course>17.67</course>
  <speed>0.01414213562373095</speed>
  <fix>3d</fix>
</trkpt>
<trkpt lat="40.0738334" lon="-105.2301678">
  <ele>1678.27</ele>
  <time>2026-08-27T18:26:52Z</time>
  <course>17.66</course>
  <speed>0.01414213562373095</speed>
  <fix>3d</fix>
</trkpt>
<trkpt lat="40.0738334" lon="-105.2301677">
  <ele>1677.48</ele>
  <time>2026-08-27T18:26:52Z</time>
  <course>183.46</course>
  <speed>0.0</speed>
  <fix>3d</fix>
</trkpt>
<trkpt lat="40.0738334" lon="-105.2301678">
  <ele>1678.34</ele>
  <time>2026-08-27T18:26:52Z</time>
  <course>17.67</course>
  <speed>0.01414213562373095</speed>
  <fix>3d</fix>
</trkpt>
<trkpt lat="40.0738334" lon="-105.2301678">
  <ele>1678.77</ele>
  <time>2026-08-27T18:26:52Z</time>
  <course>17.66</course>
  <speed>0.01414213562373095</speed>
  <fix>3d</fix>
</trkpt>
<trkpt lat="40.0738334" lon="-105.2301677">
  <ele>1677.98</ele>
  <time>2026-08-27T18:26:52Z</time>
  <course>186.23</course>
  <speed>0.01</speed>
  <fix>3d</fix>
</trkpt>
<trkpt lat="40.0738334" lon="-105.2301678">
  <ele>1678.84</ele>
  <time>2026-08-27T18:26:52Z</time>
  <course>17.66</course>
  <speed>0.01414213562373095</speed>
  <fix>3d</fix>
</trkpt>
<trkpt lat="40.0738334" lon="-105.2301678">
  <ele>1679.27</ele>
  <time>2026-08-27T18:26:52Z</time>
  <course>17.67</course>
  <speed>0.01414213562373095</speed>
  <fix>3d</fix>
</trkpt>
<trkpt lat="40.0738334" lon="-105.2301677">
  <ele>1678.48</ele>
  <time>2026-08-27T18:26:52Z</time>
  <course>190.01</course>
  <speed>0.01</speed>
  <fix>3d</fix>
</trkpt>
<trkpt lat="40.0738334" lon="-105.2301678">
  <ele>1679.28</ele>
  <time>2026-08-27T18:26:52Z</time>
  <course>17.67</course>
  <speed>0.01414213562373095</speed>
  <fix>3d</fix>
</trkpt>
<trkpt lat="40.0738334" lon="-105.2301678">
  <ele>1679.78</ele>
  <time>2026-08-27T18:26:52Z</time>
  <course>17.68</course>
  <speed>0.01414213562373095</speed>
  <fix>3d</fix>
</trkpt>
<trkpt lat="40.0738334" lon="-105.2301677">
  <ele>1678.98</ele>
  <time>2026-08-27T18:26:52Z</time>
  <course>192.33</course>
  <speed>0.01</speed>
  <fix>3d</fix>
</trkpt>
<trkpt lat="40.0738334" lon="-105.2301678">
  <ele>1679.86</ele>
  <time>2026-08-27T18:26:52Z</time>
  <course>17.68</course>
  <speed>0.01414213562373095</speed>
  <fix>3d</fix>
</trkpt>
<trkpt lat="40.0738334" lon="-105.2301678">
  <ele>1680.28</ele>
  <time>2026-08-27T18:26:52Z</time>
  <course>17.69</course>
  <speed>0.01414213562373095</speed>
  <fix>3d</fix>
</trkpt>
<trkpt lat="40.0738333" lon="-105.2301677">
  <ele>1679.48</ele>
  <time>2026-08-27T18:26:52Z</time>
  <course>194.14</course>
  <speed>0.01</speed>
  <fix>3d</fix>
</trkpt>
<trkpt lat="40.0738334" lon="-105.2301678">
  <ele>1680.35</ele>
  <time>2026-08-27T18:26:52Z</time>
  <course>17.69</course>
  <speed>0.01414213562373095</speed>
  <fix>3d</fix>
</trkpt>
<trkpt lat="40.0738334" lon="-105.2301678">
  <ele>1680.78</ele>
  <time>2026-08-27T18:26:52Z</time>
  <course>17.69</course>
  <speed>0.01414213562373095</speed>
  <fix>3d</fix>
</trkpt>
<trkpt lat="40.0738332" lon="-105.2301677">
  <ele>1679.98</ele>
  <time>2026-08-27T18:26:52Z</time>
  <course>195.63</course>
  <speed>0.01</speed>
  <fix>3d</fix>
</trkpt>
<trkpt lat="40.0738334" lon="-105.2301678">
  <ele>1680.85</ele>
  <time>2026-08-27T18:26:52Z</time>
  <course>17.7</course>
  <speed>0.01414213562373095</speed>
  <fix>3d</fix>
</trkpt>
<trkpt lat="40.0738334" lon="-105.2301678">
  <ele>1681.28</ele>
  <time>2026-08-27T18:26:52Z</time>
  <course>17.7</course>
  <speed>0.01414213562373095</speed>
  <fix>3d</fix>
</trkpt>
<trkpt lat="40.0738332" lon="-105.2301677">
  <ele>1680.49</ele>
  <time>2026-08-27T18:26:52Z</time>
  <course>196.53</course>
  <speed>0.01</speed>
  <fix>3d</fix>
</trkpt>
<trkpt lat="40.0738334" lon="-105.2301678">
  <ele>1681.28</ele>
  <time>2026-08-27T18:26:52Z</time>
  <course>17.7</course>
  <speed>0.01414213562373095</speed>
  <fix>3d</fix>
</trkpt>
<trkpt lat="40.0738334" lon="-105.2301678">
  <ele>1681.78</ele>
  <time>2026-08-27T18:26:52Z</time>
  <course>17.69</course>
  <speed>0.01414213562373095</speed>
  <fix>3d</fix>
</trkpt>
<trkpt lat="40.0738332" lon="-105.2301677">
  <ele>1680.98</ele>
  <time>2026-08-27T18:26:52Z</time>
  <course>196.46</course>
  <speed>0.01</speed>
  <fix>3d</fix>
</trkpt>
<trkpt lat="40.0738334" lon="-105.2301678">
  <ele>1681.84</ele>
  <time>2026-08-27T18:26:52Z</time>
  <course>17.7</course>
  <speed>0.01414213562373095</speed>
  <fix>3d</fix>
</trkpt>
<trkpt lat="40.0738334" lon="-105.2301678">
  <ele>1682.27</ele>
  <time>2026-08-27T18:26:52Z</time>
  <course>17.69</course>
  <speed>0.01414213562373095</speed>
  <fix>3d</fix>
</trkpt>
<trkpt lat="40.0738332" lon="-105.2301677">
  <ele>1681.48</ele>
  <time>2026-08-27T18:26:52Z</time>
  <course>195.71</course>
  <speed>0.01</speed>
  <fix>3d</fix>
</trkpt>
<trkpt lat="40.0738334" lon="-105.2301678">
  <ele>1682.34</ele>
  <time>2026-08-27T18:26:52Z</time>
  <course>17.69</course>
  <speed>0.01414213562373095</speed>
  <fix>3d</fix>
</trkpt>
<trkpt lat="40.0738334" lon="-105.2301678">
  <ele>1682.77</ele>
  <time>2026-08-27T18:26:52Z</time>
  <course>17.7</course>
  <speed>0.01414213562373095</speed>
  <fix>3d</fix>
</trkpt>
<trkpt lat="40.0738331" lon="-105.2301677">
  <ele>1681.98</ele>
  <time>2026-08-27T18:26:52Z</time>
  <course>194.2</course>
  <speed>0.01</speed>
  <fix>3d</fix>
</trkpt>
<trkpt lat="40.0738334" lon="-105.2301678">
  <ele>1682.84</ele>
  <time>2026-08-27T18:26:52Z</time>
  <course>17.71</course>
  <speed>0.01414213562373095</speed>
  <fix>3d</fix>
</trkpt>
<trkpt lat="40.0738333" lon="-105.2301678">
  <ele>1683.27</ele>
  <time>2026-08-27T18:26:52Z</time>
  <course>17.7</course>
  <speed>0.01414213562373095</speed>
  <fix>3d</fix>
</trkpt>
<trkpt lat="40.0738331" lon="-105.2301677">
  <ele>1682.48</ele>
  <time>2026-08-27T18:26:52Z</time>
  <course>195.55</course>
  <speed>0.0</speed>
  <fix>3d</fix>
</trkpt>
<trkpt lat="40.0738333" lon="-105.2301678">
  <ele>1683.35</ele>
  <time>2026-08-27T18:26:52Z</time>
  <course>17.71</course>
  <speed>0.01414213562373095</speed>
  <fix>3d</fix>
</trkpt>
<trkpt lat="40.0738333" lon="-105.2301678">
  <ele>1683.77</ele>
  <time>2026-08-27T18:26:52Z</time>
  <course>17.7</course>
  <speed>0.01414213562373095</speed>
  <fix>3d</fix>
</trkpt>
<trkpt lat="40.0738331" lon="-105.2301677">
  <ele>1682.99</ele>
  <time>2026-08-27T18:26:52Z</time>
  <course>205.89</course>
  <speed>0.0</speed>
  <fix>3d</fix>
</trkpt>
<trkpt lat="40.0738333" lon="-105.2301678">
  <ele>1683.78</ele>
  <time>2026-08-27T18:26:52Z</time>
  <course>17.7</course>
  <speed>0.01414213562373095</speed>
  <fix>3d</fix>
</trkpt>
<trkpt lat="40.0738333" lon="-105.2301678">
  <ele>1684.27</ele>
  <time>2026-08-27T18:26:52Z</time>
  <course>17.72</course>
  <speed>0.022360679774997897</speed>
  <fix>3d</fix>
</trkpt>
<trkpt lat="40.0738331" lon="-105.2301677">
  <ele>1683.49</ele>
  <time>2026-08-27T18:26:52Z</time>
  <course>230.13</course>
  <speed>0.0</speed>
  <fix>3d</fix>
</trkpt>
<trkpt lat="40.0738333" lon="-105.2301678">
  <ele>1684.78</ele>
  <time>2026-08-27T18:26:52Z</time>
  <course>17.48</course>
  <speed>0.02</speed>
  <fix>3d</fix>
</trkpt>
<trkpt lat="40.0738331" lon="-105.2301677">
  <ele>1683.99</ele>
  <time>2026-08-27T18:26:52Z</time>
  <course>268.96</course>
  <speed>0.0</speed>
  <fix>3d</fix>
</trkpt>
<trkpt lat="40.0738333" lon="-105.2301678">
  <ele>1685.35</ele>
  <time>2026-08-27T18:26:52Z</time>
  <course>15.51</course>
  <speed>0.022360679774997897</speed>
  <fix>3d</fix>
</trkpt>
<trkpt lat="40.0738331" lon="-105.2301677">
  <ele>1684.49</ele>
  <time>2026-08-27T18:26:52Z</time>
  <course>10.95</course>
  <speed>0.0</speed>
  <fix>3d</fix>
</trkpt>
<trkpt lat="40.0738333" lon="-105.2301679">
  <ele>1686.05</ele>
  <time>2026-08-27T18:26:52Z</time>
  <course>13.5</course>
  <speed>0.1044030650891055</speed>
  <fix>3d</fix>
</trkpt>
<trkpt lat="40.0738331" lon="-105.2301677">
  <ele>1685.06</ele>
  <time>2026-08-27T18:26:52Z</time>
  <course>274.95</course>
  <speed>0.0</speed>
  <fix>3d</fix>
</trkpt>
<trkpt lat="40.0738333" lon="-105.2301683">
  <ele>1686.29</ele>
  <time>2026-08-27T18:26:52Z</time>
  <course>22.66</course>
  <speed>0.23769728648009425</speed>
  <fix>3d</fix>
</trkpt>
<trkpt lat="40.0738331" lon="-105.2301679">
  <ele>1685.69</ele>
  <time>2026-08-27T18:26:52Z</time>
  <course>280.95</course>
  <speed>0.1</speed>
  <fix>3d</fix>
</trkpt>
<trkpt lat="40.0738334" lon="-105.2301689">
  <ele>1686.01</ele>
  <time>2026-08-27T18:26:52Z</time>
  <course>24.33</course>
  <speed>0.28861739379323625</speed>
  <fix>3d</fix>
</trkpt>
<trkpt lat="40.0738331" lon="-105.2301682">
  <ele>1686.04</ele>
  <time>2026-08-27T18:26:52Z</time>
  <course>282.8</course>
  <speed>0.21</speed>
  <fix>3d</fix>
</trkpt>
<trkpt lat="40.0738335" lon="-105.2301696">
  <ele>1685.41</ele>
  <time>2026-08-27T18:26:52Z</time>
  <course>24.57</course>
  <speed>0.31048349392520047</speed>
  <fix>3d</fix>
</trkpt>
<trkpt lat="40.0738332" lon="-105.2301688">
  <ele>1685.86</ele>
  <time>2026-08-27T18:26:52Z</time>
  <course>284.6</course>
  <speed>0.26</speed>
  <fix>3d</fix>
</trkpt>
<trkpt lat="40.0738336" lon="-105.2301703">
  <ele>1684.58</ele>
  <time>2026-08-27T18:26:52Z</time>
  <course>23.21</course>
  <speed>0.354400902933387</speed>
  <fix>3d</fix>
</trkpt>
<trkpt lat="40.0738334" lon="-105.2301694">
  <ele>1685.31</ele>
  <time>2026-08-27T18:26:52Z</time>
  <course>286.05</course>
  <speed>0.3</speed>
  <fix>3d</fix>
</trkpt>
<trkpt lat="40.0738338" lon="-105.2301711">
  <ele>1683.6</ele>
  <time>2026-08-27T18:26:52Z</time>
  <course>23.48</course>
  <speed>0.3668787265568828</speed>
  <fix>3d</fix>
</trkpt>
<trkpt lat="40.0738336" lon="-105.2301702">
  <ele>1684.51</ele>
  <time>2026-08-27T18:26:52Z</time>
  <course>287.12</course>
  <speed>0.33</speed>
  <fix>3d</fix>
</trkpt>
<trkpt lat="40.073834" lon="-105.2301719">
  <ele>1682.53</ele>
  <time>2026-08-27T18:26:52Z</time>
  <course>24.24</course>
  <speed>0.35735136770411274</speed>
  <fix>3d</fix>
</trkpt>
<trkpt lat="40.0738338" lon="-105.2301709">
  <ele>1683.56</ele>
  <time>2026-08-27T18:26:52Z</time>
  <course>287.78</course>
  <speed>0.35</speed>
  <fix>3d</fix>
</trkpt>
<trkpt lat="40.0738342" lon="-105.2301726">
  <ele>1681.39</ele>
  <time>2026-08-27T18:26:52Z</time>
  <course>25.18</course>
  <speed>0.32572994949804657</speed>
  <fix>3d</fix>
</trkpt>
<trkpt lat="40.073834" lon="-105.2301717">
  <ele>1682.5</ele>
  <time>2026-08-27T18:26:52Z</time>
  <course>288.15</course>
  <speed>0.35</speed>
  <fix>3d</fix>
</trkpt>
<trkpt lat="40.0738344" lon="-105.2301733">
  <ele>1680.2</ele>
  <time>2026-08-27T18:26:52Z</time>
  <course>25.53</course>
  <speed>0.29410882339705485</speed>
  <fix>3d</fix>
</trkpt>
<trkpt lat="40.0738341" lon="-105.2301725">
  <ele>1681.37</ele>
  <time>2026-08-27T18:26:52Z</time>
  <course>288.47</course>
  <speed>0.32</speed>
  <fix>3d</fix>
</trkpt>
<trkpt lat="40.0738345" lon="-105.2301739">
  <ele>1678.98</ele>
  <time>2026-08-27T18:26:52Z</time>
  <course>25.43</course>
  <speed>0.26248809496813374</speed>
  <fix>3d</fix>
</trkpt>
<trkpt lat="40.0738343" lon="-105.2301732">
  <ele>1680.2</ele>
  <time>2026-08-27T18:26:52Z</time>
  <course>288.88</course>
  <speed>0.29</speed>
  <fix>3d</fix>
</trkpt>
<trkpt lat="40.0738346" lon="-105.2301744">
  <ele>1677.76</ele>
  <time>2026-08-27T18:26:52Z</time>
  <course>25.17</course>
  <speed>0.2340939982143925</speed>
  <fix>3d</fix>
</trkpt>
<trkpt lat="40.0738344" lon="-105.2301738">
  <ele>1679.01</ele>
  <time>2026-08-27T18:26:52Z</time>
  <course>289.49</course>
  <speed>0.25</speed>
  <fix>3d</fix>
</trkpt>
<trkpt lat="40.0738348" lon="-105.2301749">
  <ele>1676.52</ele>
  <time>2026-08-27T18:26:52Z</time>
  <course>24.86</course>
  <speed>0.20248456731316586</speed>
  <fix>3d</fix>
</trkpt>
<trkpt lat="40.0738346" lon="-105.2301743">
  <ele>1677.8</ele>
  <time>2026-08-27T18:26:52Z</time>
  <course>290.27</course>
  <speed>0.22</speed>
  <fix>3d</fix>
</trkpt>
<trkpt lat="40.0738349" lon="-105.2301753">
  <ele>1675.29</ele>
  <time>2026-08-27T18:26:52Z</time>
  <course>24.57</course>
  <speed>0.17464249196572978</speed>
  <fix>3d</fix>
</trkpt>
<trkpt lat="40.0738347" lon="-105.2301747">
  <ele>1676.58</ele>
  <time>2026-08-27T18:26:52Z</time>
  <course>291.19</course>
  <speed>0.19</speed>
  <fix>3d</fix>
</trkpt>
<trkpt lat="40.073835" lon="-105.2301756">
  <ele>1674.05</ele>
  <time>2026-08-27T18:26:52Z</time>
  <course>24.29</course>
  <speed>0.15231546211727817</speed>
  <fix>3d</fix>
</trkpt>
<trkpt lat="40.0738348" lon="-105.2301751">
  <ele>1675.35</ele>
  <time>2026-08-27T18:26:52Z</time>
  <course>292.25</course>
  <speed>0.16</speed>
  <fix>3d</fix>
</trkpt>
<trkpt lat="40.0738351" lon="-105.2301759">
  <ele>1672.81</ele>
  <time>2026-08-27T18:26:52Z</time>
  <course>24.03</course>
  <speed>0.12529964086141668</speed>
  <fix>3d</fix>
</trkpt>
<trkpt lat="40.073835" lon="-105.2301755">
  <ele>1674.12</ele>
  <time>2026-08-27T18:26:52Z</time>
  <course>293.51</course>
  <speed>0.14</speed>
  <fix>3d</fix>
</trkpt>
<trkpt lat="40.0738352" lon="-105.2301761">
  <ele>1671.57</ele>
  <time>2026-08-27T18:26:52Z</time>
  <course>23.8</course>
  <speed>0.10295630140987001</speed>
  <fix>3d</fix>
</trkpt>
<trkpt lat="40.073835" lon="-105.2301758">
  <ele>1672.89</ele>
  <time>2026-08-27T18:26:52Z</time>
  <course>295.01</course>
  <speed>0.11</speed>
  <fix>3d</fix>
</trkpt>
<trkpt lat="40.0738353" lon="-105.2301763">
  <ele>1670.32</ele>
  <time>2026-08-27T18:26:52Z</time>
  <course>23.6</course>
  <speed>0.08602325267042626</speed>
  <fix>3d</fix>
</trkpt>
<trkpt lat="40.0738351" lon="-105.2301761">
  <ele>1671.67</ele>
  <time>2026-08-27T18:26:52Z</time>
  <course>296.95</course>
  <speed>0.09</speed>
  <fix>3d</fix>
</trkpt>
<trkpt lat="40.0738353" lon="-105.2301764">
  <ele>1669.08</ele>
  <time>2026-08-27T18:26:52Z</time>
  <course>23.42</course>
  <speed>0.06403124237432849</speed>
  <fix>3d</fix>
</trkpt>
<trkpt lat="40.0738352" lon="-105.2301762">
  <ele>1670.44</ele>
  <time>2026-08-27T18:26:52Z</time>
  <course>299.63</course>
  <speed>0.07</speed>
  <fix>3d</fix>
</trkpt>
<trkpt lat="40.0738354" lon="-105.2301765">
  <ele>1667.84</ele>
  <time>2026-08-27T18:26:52Z</time>
  <course>23.26</course>
  <speed>0.0565685424949238</speed>
  <fix>3d</fix>
</trkpt>
<trkpt lat="40.0738353" lon="-105.2301763">
  <ele>1669.21</ele>
  <time>2026-08-27T18:26:52Z</time>
  <course>303.77</course>
  <speed>0.05</speed>
  <fix>3d</fix>
</trkpt>
<trkpt lat="40.0738354" lon="-105.2301765">
  <ele>1666.58</ele>
  <time>2026-08-27T18:26:52Z</time>
  <course>23.1</course>
  <speed>0.044721359549995794</speed>
  <fix>3d</fix>
</trkpt>
<trkpt lat="40.0738353" lon="-105.2301764">
  <ele>1667.98</ele>
  <time>2026-08-27T18:26:52Z</time>
  <course>311.46</course>
  <speed>0.03</speed>
  <fix>3d</fix>
</trkpt>
<trkpt lat="40.0738355" lon="-105.2301766">
  <ele>1665.34</ele>
  <time>2026-08-27T18:26:52Z</time>
  <course>22.95</course>
  <speed>0.0316227766016838</speed>
  <fix>3d</fix>
</trkpt>
<trkpt lat="40.0738354" lon="-105.2301765">
  <ele>1666.75</ele>
  <time>2026-08-27T18:26:52Z</time>
  <course>329.33</course>
  <speed>0.02</speed>
  <fix>3d</fix>
</trkpt>
<trkpt lat="40.0738355" lon="-105.2301765">
  <ele>1664.1</ele>
  <time>2026-08-27T18:26:52Z</time>
  <course>22.82</course>
  <speed>0.03</speed>
  <fix>3d</fix>
</trkpt>
<trkpt lat="40.0738354" lon="-105.2301765">
  <ele>1665.52</ele>
  <time>2026-08-27T18:26:52Z</time>
  <course>17.62</course>
  <speed>0.01</speed>
  <fix>3d</fix>
</trkpt>
<trkpt lat="40.0738355" lon="-105.2301765">
  <ele>1662.85</ele>
  <time>2026-08-27T18:26:52Z</time>
  <course>22.66</course>
  <speed>0.022360679774997897</speed>
  <fix>3d</fix>
</trkpt>
<trkpt lat="40.0738354" lon="-105.2301765">
  <ele>1664.29</ele>
  <time>2026-08-27T18:26:52Z</time>
  <course>66.69</course>
  <speed>0.01</speed>
  <fix>3d</fix>
</trkpt>
<trkpt lat="40.0738355" lon="-105.2301765">
  <ele>1661.61</ele>
  <time>2026-08-27T18:26:52Z</time>
  <course>22.41</course>
  <speed>0.0282842712474619</speed>
  <fix>3d</fix>
</trkpt>
<trkpt lat="40.0738355" lon="-105.2301765">
  <ele>1663.06</ele>
  <time>2026-08-27T18:26:52Z</time>
  <course>84.63</course>
  <speed>0.03</speed>
  <fix>3d</fix>
</trkpt>
<trkpt lat="40.0738355" lon="-105.2301764">
  <ele>1660.36</ele>
  <time>2026-08-27T18:26:52Z</time>
  <course>22.17</course>
  <speed>0.03605551275463989</speed>
  <fix>3d</fix>
</trkpt>
<trkpt lat="40.0738355" lon="-105.2301764">
  <ele>1661.83</ele>
  <time>2026-08-27T18:26:52Z</time>
  <course>91.83</course>
  <speed>0.04</speed>
  <fix>3d</fix>
</trkpt>
<trkpt lat="40.0738355" lon="-105.2301763">
  <ele>1659.12</ele>
  <time>2026-08-27T18:26:52Z</time>
  <course>21.96</course>
  <speed>0.03605551275463989</speed>
  <fix>3d</fix>
</trkpt>
<trkpt lat="40.0738354" lon="-105.2301763">
  <ele>1660.6</ele>
  <time>2026-08-27T18:26:52Z</time>
  <course>95.67</course>
  <speed>0.04</speed>
  <fix>3d</fix>
</trkpt>
<trkpt lat="40.0738355" lon="-105.2301762">
  <ele>1657.87</ele>
  <time>2026-08-27T18:26:52Z</time>
  <course>21.82</course>
  <speed>0.0316227766016838</speed>
  <fix>3d</fix>
</trkpt>
<trkpt lat="40.0738354" lon="-105.2301762">
  <ele>1659.37</ele>
  <time>2026-08-27T18:26:52Z</time>
  <course>98.28</course>
  <speed>0.05</speed>
  <fix>3d</fix>
</trkpt>
<trkpt lat="40.0738355" lon="-105.2301761">
  <ele>1656.62</ele>
  <time>2026-08-27T18:26:52Z</time>
  <course>21.65</course>
  <speed>0.0316227766016838</speed>
  <fix>3d</fix>
</trkpt>
<trkpt lat="40.0738354" lon="-105.2301761">
  <ele>1658.14</ele>
  <time>2026-08-27T18:26:52Z</time>
  <course>100.26</course>
  <speed>0.05</speed>
  <fix>3d</fix>
</trkpt>
<trkpt lat="40.0738355" lon="-105.230176">
  <ele>1655.37</ele>
  <time>2026-08-27T18:26:52Z</time>
  <course>21.52</course>
  <speed>0.0316227766016838</speed>
  <fix>3d</fix>
</trkpt>
<trkpt lat="40.0738354" lon="-105.2301759">
  <ele>1656.91</ele>
  <time>2026-08-27T18:26:52Z</time>
  <course>101.91</course>
  <speed>0.05</speed>
  <fix>3d</fix>
</trkpt>
<trkpt lat="40.0738355" lon="-105.2301758">
  <ele>1654.19</ele>
  <time>2026-08-27T18:26:52Z</time>
  <course>21.52</course>
  <speed>0.09</speed>
  <fix>3d</fix>
</trkpt>
<trkpt lat="40.0738354" lon="-105.2301758">
  <ele>1655.68</ele>
  <time>2026-08-27T18:26:52Z</time>
  <course>103.44</course>
  <speed>0.05</speed>
  <fix>3d</fix>
</trkpt>
<trkpt lat="40.0738355" lon="-105.2301754">
  <ele>1653.31</ele>
  <time>2026-08-27T18:26:52Z</time>
  <course>22.21</course>
  <speed>0.1824828759089466</speed>
  <fix>3d</fix>
</trkpt>
<trkpt lat="40.0738354" lon="-105.2301756">
  <ele>1654.53</ele>
  <time>2026-08-27T18:26:52Z</time>
  <course>108.16</course>
  <speed>0.1</speed>
  <fix>3d</fix>
</trkpt>
<trkpt lat="40.0738353" lon="-105.2301749">
  <ele>1652.64</ele>
  <time>2026-08-27T18:26:52Z</time>
  <course>22.7</course>
  <speed>0.2570992026436488</speed>
  <fix>3d</fix>
</trkpt>
<trkpt lat="40.0738353" lon="-105.2301753">
  <ele>1653.6</ele>
  <time>2026-08-27T18:26:52Z</time>
  <course>110.06</course>
  <speed>0.19</speed>
  <fix>3d</fix>
</trkpt>
<trkpt lat="40.0738352" lon="-105.2301742">
  <ele>1652.1</ele>
  <time>2026-08-27T18:26:52Z</time>
  <course>22.62</course>
  <speed>0.3080584360149873</speed>
  <fix>3d</fix>
</trkpt>
<trkpt lat="40.0738352" lon="-105.2301747">
  <ele>1652.9</ele>
  <time>2026-08-27T18:26:52Z</time>
  <course>110.48</course>
  <speed>0.27</speed>
  <fix>3d</fix>
</trkpt>
<trkpt lat="40.073835" lon="-105.2301734">
  <ele>1651.64</ele>
  <time>2026-08-27T18:26:52Z</time>
  <course>22.15</course>
  <speed>0.35171010790137947</speed>
  <fix>3d</fix>
</trkpt>
<trkpt lat="40.073835" lon="-105.2301741">
  <ele>1652.36</ele>
  <time>2026-08-27T18:26:52Z</time>
  <course>110.59</course>
  <speed>0.32</speed>
  <fix>3d</fix>
</trkpt>
<trkpt lat="40.0738347" lon="-105.2301726">
  <ele>1651.21</ele>
  <time>2026-08-27T18:26:52Z</time>
  <course>21.51</course>
  <speed>0.383275357934736</speed>
  <fix>3d</fix>
</trkpt>
<trkpt lat="40.0738348" lon="-105.2301733">
  <ele>1651.88</ele>
  <time>2026-08-27T18:26:52Z</time>
  <course>110.66</course>
  <speed>0.37</speed>
  <fix>3d</fix>
</trkpt>
<trkpt lat="40.0738345" lon="-105.2301717">
  <ele>1650.79</ele>
  <time>2026-08-27T18:26:52Z</time>
  <course>20.9</course>
  <speed>0.4080441152620633</speed>
  <fix>3d</fix>
</trkpt>
<trkpt lat="40.0738345" lon="-105.2301725">
  <ele>1651.44</ele>
  <time>2026-08-27T18:26:52Z</time>
  <course>110.76</course>
  <speed>0.4</speed>
  <fix>3d</fix>
</trkpt>
<trkpt lat="40.0738342" lon="-105.2301707">
  <ele>1650.38</ele>
  <time>2026-08-27T18:26:52Z</time>
  <course>20.43</course>
  <speed>0.4301162633521314</speed>
  <fix>3d</fix>
</trkpt>
<trkpt lat="40.0738342" lon="-105.2301715">
  <ele>1651.02</ele>
  <time>2026-08-27T18:26:52Z</time>
  <course>110.92</course>
  <speed>0.43</speed>
  <fix>3d</fix>
</trkpt>
<trkpt lat="40.0738339" lon="-105.2301697">
  <ele>1649.97</ele>
  <time>2026-08-27T18:26:52Z</time>
  <course>20.08</course>
  <speed>0.4427188724235731</speed>
  <fix>3d</fix>
</trkpt>
<trkpt lat="40.0738339" lon="-105.2301705">
  <ele>1650.6</ele>
  <time>2026-08-27T18:26:52Z</time>
  <course>111.15</course>
  <speed>0.45</speed>
  <fix>3d</fix>
</trkpt>
<trkpt lat="40.0738336" lon="-105.2301686">
  <ele>1649.55</ele>
  <time>2026-08-27T18:26:52Z</time>
  <course>19.83</course>
  <speed>0.455411901469428</speed>
  <fix>3d</fix>
</trkpt>
<trkpt lat="40.0738336" lon="-105.2301696">
  <ele>1650.19</ele>
  <time>2026-08-27T18:26:52Z</time>
  <course>111.42</course>
  <speed>0.47</speed>
  <fix>3d</fix>
</trkpt>
<trkpt lat="40.0738332" lon="-105.2301676">
  <ele>1649.14</ele>
  <time>2026-08-27T18:26:52Z</time>
  <course>19.66</course>
  <speed>0.4743416490252569</speed>
  <fix>3d</fix>
</trkpt>
<trkpt lat="40.0738333" lon="-105.2301685">
  <ele>1649.77</ele>
  <time>2026-08-27T18:26:52Z</time>
  <course>111.72</course>
  <speed>0.48</speed>
  <fix>3d</fix>
</trkpt>
<trkpt lat="40.0738329" lon="-105.2301665">
  <ele>1648.73</ele>
  <time>2026-08-27T18:26:52Z</time>
  <course>19.56</course>
  <speed>0.4775981574503821</speed>
  <fix>3d</fix>
</trkpt>
<trkpt lat="40.073833" lon="-105.2301674">
  <ele>1649.36</ele>
  <time>2026-08-27T18:26:52Z</time>
  <course>112.05</course>
  <speed>0.49</speed>
  <fix>3d</fix>
</trkpt>
<trkpt lat="40.0738325" lon="-105.2301653">
  <ele>1648.33</ele>
  <time>2026-08-27T18:26:52Z</time>
  <course>19.48</course>
  <speed>0.49040799340956914</speed>
  <fix>3d</fix>
</trkpt>
<trkpt lat="40.0738326" lon="-105.2301664">
  <ele>1648.94</ele>
  <time>2026-08-27T18:26:52Z</time>
  <course>112.39</course>
  <speed>0.5</speed>
  <fix>3d</fix>
</trkpt>
<trkpt lat="40.0738321" lon="-105.2301642">
  <ele>1647.94</ele>
  <time>2026-08-27T18:26:52Z</time>
  <course>19.43</course>
  <speed>0.5126402247190519</speed>
  <fix>3d</fix>
</trkpt>
<trkpt lat="40.0738323" lon="-105.2301652">
  <ele>1648.53</ele>
  <time>2026-08-27T18:26:52Z</time>
  <course>112.74</course>
  <speed>0.51</speed>
  <fix>3d</fix>
</trkpt>
<trkpt lat="40.0738317" lon="-105.230163">
  <ele>1647.61</ele>
  <time>2026-08-27T18:26:52Z</time>
  <course>19.28</course>
  <speed>0.5348831648126533</speed>
  <fix>3d</fix>
</trkpt>
<trkpt lat="40.0738319" lon="-105.2301641">
  <ele>1648.13</ele>
  <time>2026-08-27T18:26:52Z</time>
  <course>113.02</course>
  <speed>0.53</speed>
  <fix>3d</fix>
</trkpt>
<trkpt lat="40.0738313" lon="-105.2301618">
  <ele>1647.32</ele>
  <time>2026-08-27T18:26:52Z</time>
  <course>18.97</course>
  <speed>0.5478138369920935</speed>
  <fix>3d</fix>
</trkpt>
<trkpt lat="40.0738316" lon="-105.230163">
  <ele>1647.79</ele>
  <time>2026-08-27T18:26:52Z</time>
  <course>113.25</course>
  <speed>0.55</speed>
  <fix>3d</fix>
</trkpt>
<trkpt lat="40.0738309" lon="-105.2301606">
  <ele>1647.05</ele>
  <time>2026-08-27T18:26:52Z</time>
  <course>18.61</course>
  <speed>0.5571355310873648</speed>
  <fix>3d</fix>
</trkpt>
<trkpt lat="40.0738312" lon="-105.2301617">
  <ele>1647.48</ele>
  <time>2026-08-27T18:26:52Z</time>
  <course>113.5</course>
  <speed>0.56</speed>
  <fix>3d</fix>
</trkpt>
<trkpt lat="40.0738305" lon="-105.2301593">
  <ele>1646.78</ele>
  <time>2026-08-27T18:26:52Z</time>
  <course>18.3</course>
  <speed>0.5608029957123981</speed>
  <fix>3d</fix>
</trkpt>
<trkpt lat="40.0738307" lon="-105.2301605">
  <ele>1647.2</ele>
  <time>2026-08-27T18:26:52Z</time>
  <course>113.81</course>
  <speed>0.58</speed>
  <fix>3d</fix>
</trkpt>
<trkpt lat="40.0738301" lon="-105.2301581">
  <ele>1646.52</ele>
  <time>2026-08-27T18:26:52Z</time>
  <course>18.08</course>
  <speed>0.5646237685397242</speed>
  <fix>3d</fix>
</trkpt>
<trkpt lat="40.0738303" lon="-105.2301593">
  <ele>1646.93</ele>
  <time>2026-08-27T18:26:52Z</time>
  <course>114.18</course>
  <speed>0.58</speed>
  <fix>3d</fix>
</trkpt>
<trkpt lat="40.0738296" lon="-105.2301568">
  <ele>1646.26</ele>
  <time>2026-08-27T18:26:52Z</time>
  <course>17.94</course>
  <speed>0.5646237685397242</speed>
  <fix>3d</fix>
</trkpt>
<trkpt lat="40.0738298" lon="-105.230158">
  <ele>1646.67</ele>
  <time>2026-08-27T18:26:52Z</time>
  <course>114.6</course>
  <speed>0.59</speed>
  <fix>3d</fix>
</trkpt>
<trkpt lat="40.0738292" lon="-105.2301556">
  <ele>1646.01</ele>
  <time>2026-08-27T18:26:52Z</time>
  <course>17.86</course>
  <speed>0.56859475903318</speed>
  <fix>3d</fix>
</trkpt>
<trkpt lat="40.0738294" lon="-105.2301567">
  <ele>1646.41</ele>
  <time>2026-08-27T18:26:52Z</time>
  <course>115.05</course>
  <speed>0.59</speed>
  <fix>3d</fix>
</trkpt>
<trkpt lat="40.0738287" lon="-105.2301543">
  <ele>1645.77</ele>
  <time>2026-08-27T18:26:52Z</time>
  <course>17.83</course>
  <speed>0.56859475903318</speed>
  <fix>3d</fix>
</trkpt>
<trkpt lat="40.073829" lon="-105.2301555">
  <ele>1646.15</ele>
  <time>2026-08-27T18:26:52Z</time>
  <course>115.52</course>
  <speed>0.59</speed>
  <fix>3d</fix>
</trkpt>
<trkpt lat="40.0738282" lon="-105.230153">
  <ele>1645.54</ele>
  <time>2026-08-27T18:26:52Z</time>
  <course>17.83</course>
  <speed>0.5727128425310541</speed>
  <fix>3d</fix>
</trkpt>
<trkpt lat="40.0738285" lon="-105.2301542">
  <ele>1645.9</ele>
  <time>2026-08-27T18:26:52Z</time>
  <course>116.0</course>
  <speed>0.59</speed>
  <fix>3d</fix>
</trkpt>
<trkpt lat="40.0738277" lon="-105.2301518">
  <ele>1645.3</ele>
  <time>2026-08-27T18:26:52Z</time>
  <course>17.82</course>
  <speed>0.563648826841678</speed>
  <fix>3d</fix>
</trkpt>
<trkpt lat="40.073828" lon="-105.230153">
  <ele>1645.66</ele>
  <time>2026-08-27T18:26:52Z</time>
  <course>116.49</course>
  <speed>0.59</speed>
  <fix>3d</fix>
</trkpt>
<trkpt lat="40.0738272" lon="-105.2301506">
  <ele>1645.08</ele>
  <time>2026-08-27T18:26:52Z</time>
  <course>17.82</course>
  <speed>0.567978872846517</speed>
  <fix>3d</fix>
</trkpt>
<trkpt lat="40.0738276" lon="-105.2301517">
  <ele>1645.42</ele>
  <time>2026-08-27T18:26:52Z</time>
  <course>116.99</course>
  <speed>0.59</speed>
  <fix>3d</fix>
</trkpt>
<trkpt lat="40.0738268" lon="-105.2301493">
  <ele>1644.85</ele>
  <time>2026-08-27T18:26:52Z</time>
  <course>17.82</course>
  <speed>0.5590169943749475</speed>
  <fix>3d</fix>
</trkpt>
<trkpt lat="40.0738271" lon="-105.2301505">
  <ele>1645.19</ele>
  <time>2026-08-27T18:26:52Z</time>
  <course>117.49</course>
  <speed>0.59</speed>
  <fix>3d</fix>
</trkpt>
<trkpt lat="40.0738263" lon="-105.2301481">
  <ele>1644.64</ele>
  <time>2026-08-27T18:26:52Z</time>
  <course>17.83</course>
  <speed>0.5590169943749475</speed>
  <fix>3d</fix>
</trkpt>
<trkpt lat="40.0738266" lon="-105.2301492">
  <ele>1644.97</ele>
  <time>2026-08-27T18:26:52Z</time>
  <course>117.99</course>
  <speed>0.58</speed>
  <fix>3d</fix>
</trkpt>
<trkpt lat="40.0738258" lon="-105.230147">
  <ele>1644.44</ele>
  <time>2026-08-27T18:26:52Z</time>
  <course>17.84</course>
  <speed>0.5500909015790026</speed>
  <fix>3d</fix>
</trkpt>
<trkpt lat="40.0738261" lon="-105.2301481">
  <ele>1644.75</ele>
  <time>2026-08-27T18:26:52Z</time>
  <course>118.51</course>
  <speed>0.58</speed>
  <fix>3d</fix>
</trkpt>
<trkpt lat="40.0738253" lon="-105.2301458">
  <ele>1644.25</ele>
  <time>2026-08-27T18:26:52Z</time>
  <course>17.84</course>
  <speed>0.5458937625582473</speed>
  <fix>3d</fix>
</trkpt>
<trkpt lat="40.0738256" lon="-105.2301469">
  <ele>1644.53</ele>
  <time>2026-08-27T18:26:52Z</time>
  <course>119.02</course>
  <speed>0.57</speed>
  <fix>3d</fix>
</trkpt>
<trkpt lat="40.0738248" lon="-105.2301446">
  <ele>1644.06</ele>
  <time>2026-08-27T18:26:52Z</time>
  <course>17.86</course>
  <speed>0.5371219600798314</speed>
  <fix>3d</fix>
</trkpt>
<trkpt lat="40.0738251" lon="-105.2301457">
  <ele>1644.33</ele>
  <time>2026-08-27T18:26:52Z</time>
  <course>119.56</course>
  <speed>0.57</speed>
  <fix>3d</fix>
</trkpt>
<trkpt lat="40.0738243" lon="-105.2301435">
  <ele>1643.87</ele>
  <time>2026-08-27T18:26:52Z</time>
  <course>17.86</course>
  <speed>0.5283937925449163</speed>
  <fix>3d</fix>
</trkpt>
<trkpt lat="40.0738245" lon="-105.2301445">
  <ele>1644.13</ele>
  <time>2026-08-27T18:26:52Z</time>
  <course>120.1</course>
  <speed>0.56</speed>
  <fix>3d</fix>
</trkpt>
<trkpt lat="40.0738237" lon="-105.2301424">
  <ele>1643.69</ele>
  <time>2026-08-27T18:26:52Z</time>
  <course>17.87</course>
  <speed>0.5283937925449163</speed>
  <fix>3d</fix>
</trkpt>
<trkpt lat="40.073824" lon="-105.2301434">
  <ele>1643.94</ele>
  <time>2026-08-27T18:26:52Z</time>
  <course>120.65</course>
  <speed>0.56</speed>
  <fix>3d</fix>
</trkpt>
<trkpt lat="40.0738232" lon="-105.2301413">
  <ele>1643.51</ele>
  <time>2026-08-27T18:26:52Z</time>
  <course>17.88</course>
  <speed>0.5197114584074513</speed>
  <fix>3d</fix>
</trkpt>
<trkpt lat="40.0738235" lon="-105.2301422">
  <ele>1643.76</ele>
  <time>2026-08-27T18:26:52Z</time>
  <course>121.22</course>
  <speed>0.55</speed>
  <fix>3d</fix>
</trkpt>
<trkpt lat="40.0738227" lon="-105.2301402">
  <ele>1643.34</ele>
  <time>2026-08-27T18:26:52Z</time>
  <course>17.96</course>
  <speed>0.5110772935672255</speed>
  <fix>3d</fix>
</trkpt>
<trkpt lat="40.073823" lon="-105.2301411">
  <ele>1643.58</ele>
  <time>2026-08-27T18:26:52Z</time>
  <course>121.8</course>
  <speed>0.54</speed>
  <fix>3d</fix>
</trkpt>
<trkpt lat="40.0738222" lon="-105.2301392">
  <ele>1643.18</ele>
  <time>2026-08-27T18:26:52Z</time>
  <course>18.06</course>
  <speed>0.5024937810560445</speed>
  <fix>3d</fix>
</trkpt>
<trkpt lat="40.0738225" lon="-105.2301401">
  <ele>1643.4</ele>
  <time>2026-08-27T18:26:52Z</time>
  <course>122.38</course>
  <speed>0.53</speed>
  <fix>3d</fix>
</trkpt>
<trkpt lat="40.0738217" lon="-105.2301381">
  <ele>1643.02</ele>
  <time>2026-08-27T18:26:52Z</time>
  <course>18.11</course>
  <speed>0.4939635614091387</speed>
  <fix>3d</fix>
</trkpt>
<trkpt lat="40.073822" lon="-105.230139">
  <ele>1643.24</ele>
  <time>2026-08-27T18:26:52Z</time>
  <course>122.92</course>
  <speed>0.52</speed>
  <fix>3d</fix>
</trkpt>
<trkpt lat="40.0738211" lon="-105.2301371">
  <ele>1642.87</ele>
  <time>2026-08-27T18:26:52Z</time>
  <course>18.13</course>
  <speed>0.4854894437575342</speed>
  <fix>3d</fix>
</trkpt>
<trkpt lat="40.0738214" lon="-105.230138">
  <ele>1643.08</ele>
  <time>2026-08-27T18:26:52Z</time>
  <course>123.42</course>
  <speed>0.52</speed>
  <fix>3d</fix>
</trkpt>
<trkpt lat="40.0738206" lon="-105.2301361">
  <ele>1642.72</ele>
  <time>2026-08-27T18:26:52Z</time>
  <course>18.13</course>
  <speed>0.4854894437575342</speed>
  <fix>3d</fix>
</trkpt>
<trkpt lat="40.0738209" lon="-105.230137">
  <ele>1642.92</ele>
  <time>2026-08-27T18:26:52Z</time>
  <course>123.9</course>
  <speed>0.51</speed>
  <fix>3d</fix>
</trkpt>
<trkpt lat="40.0738201" lon="-105.2301351">
  <ele>1642.57</ele>
  <time>2026-08-27T18:26:52Z</time>
  <course>18.13</course>
  <speed>0.47707441767506253</speed>
  <fix>3d</fix>
</trkpt>
<trkpt lat="40.0738204" lon="-105.2301359">
  <ele>1642.77</ele>
  <time>2026-08-27T18:26:52Z</time>
  <course>124.36</course>
  <speed>0.51</speed>
  <fix>3d</fix>
</trkpt>
<trkpt lat="40.0738196" lon="-105.2301341">
  <ele>1642.42</ele>
  <time>2026-08-27T18:26:52Z</time>
  <course>18.13</course>
  <speed>0.4687216658103186</speed>
  <fix>3d</fix>
</trkpt>
<trkpt lat="40.0738199" lon="-105.2301349">
  <ele>1642.61</ele>
  <time>2026-08-27T18:26:52Z</time>
  <course>124.81</course>
  <speed>0.5</speed>
  <fix>3d</fix>
</trkpt>
<trkpt lat="40.073819" lon="-105.2301332">
  <ele>1642.27</ele>
  <time>2026-08-27T18:26:52Z</time>
  <course>18.12</course>
  <speed>0.4743416490252569</speed>
  <fix>3d</fix>
</trkpt>
<trkpt lat="40.0738194" lon="-105.230134">
  <ele>1642.46</ele>
  <time>2026-08-27T18:26:52Z</time>
  <course>125.25</course>
  <speed>0.5</speed>
  <fix>3d</fix>
</trkpt>
<trkpt lat="40.0738185" lon="-105.2301323">
  <ele>1642.04</ele>
  <time>2026-08-27T18:26:52Z</time>
  <course>18.07</course>
  <speed>0.4</speed>
  <fix>3d</fix>
</trkpt>
<trkpt lat="40.0738189" lon="-105.230133">
  <ele>1642.31</ele>
  <time>2026-08-27T18:26:52Z</time>
  <course>125.67</course>
  <speed>0.49</speed>
  <fix>3d</fix>
</trkpt>
<trkpt lat="40.0738181" lon="-105.2301316">
  <ele>1641.5</ele>
  <time>2026-08-27T18:26:52Z</time>
  <course>19.19</course>
  <speed>0.3111269837220809</speed>
  <fix>3d</fix>
</trkpt>
<trkpt lat="40.0738184" lon="-105.2301321">
  <ele>1642.07</ele>
  <time>2026-08-27T18:26:52Z</time>
  <course>127.99</course>
  <speed>0.44</speed>
  <fix>3d</fix>
</trkpt>
<trkpt lat="40.0738177" lon="-105.2301311">
  <ele>1640.73</ele>
  <time>2026-08-27T18:26:52Z</time>
  <course>20.32</course>
  <speed>0.2690724809414742</speed>
  <fix>3d</fix>
</trkpt>
<trkpt lat="40.0738179" lon="-105.2301315">
  <ele>1641.59</ele>
  <time>2026-08-27T18:26:52Z</time>
  <course>132.82</course>
  <speed>0.35</speed>
  <fix>3d</fix>
</trkpt>
<trkpt lat="40.0738173" lon="-105.2301306">
  <ele>1639.79</ele>
  <time>2026-08-27T18:26:52Z</time>
  <course>19.9</course>
  <speed>0.2420743687382041</speed>
  <fix>3d</fix>
</trkpt>
<trkpt lat="40.0738174" lon="-105.2301309">
  <ele>1640.84</ele>
  <time>2026-08-27T18:26:52Z</time>
  <course>136.84</course>
  <speed>0.3</speed>
  <fix>3d</fix>
</trkpt>
<trkpt lat="40.0738169" lon="-105.2301303">
  <ele>1638.75</ele>
  <time>2026-08-27T18:26:52Z</time>
  <course>18.22</course>
  <speed>0.18788294228055935</speed>
  <fix>3d</fix>
</trkpt>
<trkpt lat="40.0738171" lon="-105.2301305">
  <ele>1639.92</ele>
  <time>2026-08-27T18:26:52Z</time>
  <course>140.81</course>
  <speed>0.26</speed>
  <fix>3d</fix>
</trkpt>
<trkpt lat="40.0738166" lon="-105.2301301">
  <ele>1637.63</ele>
  <time>2026-08-27T18:26:52Z</time>
  <course>19.18</course>
  <speed>0.1649242250247064</speed>
  <fix>3d</fix>
</trkpt>
<trkpt lat="40.0738168" lon="-105.2301301">
  <ele>1638.9</ele>
  <time>2026-08-27T18:26:52Z</time>
  <course>149.4</course>
  <speed>0.21</speed>
  <fix>3d</fix>
</trkpt>
<trkpt lat="40.0738163" lon="-105.23013">
  <ele>1636.45</ele>
  <time>2026-08-27T18:26:52Z</time>
  <course>20.23</course>
  <speed>0.15132745950421556</speed>
  <fix>3d</fix>
</trkpt>
<trkpt lat="40.0738164" lon="-105.23013">
  <ele>1637.8</ele>
  <time>2026-08-27T18:26:52Z</time>
  <course>160.76</course>
  <speed>0.18</speed>
  <fix>3d</fix>
</trkpt>
<trkpt lat="40.073816" lon="-105.2301299">
  <ele>1635.24</ele>
  <time>2026-08-27T18:26:52Z</time>
  <course>21.13</course>
  <speed>0.15132745950421556</speed>
  <fix>3d</fix>
</trkpt>
<trkpt lat="40.0738161" lon="-105.2301298">
  <ele>1636.64</ele>
  <time>2026-08-27T18:26:52Z</time>
  <course>166.59</course>
  <speed>0.16</speed>
  <fix>3d</fix>
</trkpt>
<trkpt lat="40.0738157" lon="-105.2301298">
  <ele>1634.0</ele>
  <time>2026-08-27T18:26:52Z</time>
  <course>21.31</course>
  <speed>0.15297058540778355</speed>
  <fix>3d</fix>
</trkpt>
<trkpt lat="40.0738158" lon="-105.2301297">
  <ele>1635.45</ele>
  <time>2026-08-27T18:26:52Z</time>
  <course>167.04</course>
  <speed>0.16</speed>
  <fix>3d</fix>
</trkpt>
<trkpt lat="40.0738154" lon="-105.2301297">
  <ele>1632.76</ele>
  <time>2026-08-27T18:26:52Z</time>
  <course>21.2</course>
  <speed>0.15524174696260024</speed>
  <fix>3d</fix>
</trkpt>
<trkpt lat="40.0738155" lon="-105.2301296">
  <ele>1634.24</ele>
  <time>2026-08-27T18:26:52Z</time>
  <course>164.82</course>
  <speed>0.16</speed>
  <fix>3d</fix>
</trkpt>
<trkpt lat="40.0738151" lon="-105.2301296">
  <ele>1631.52</ele>
  <time>2026-08-27T18:26:52Z</time>
  <course>21.03</course>
  <speed>0.15524174696260024</speed>
  <fix>3d</fix>
</trkpt>
<trkpt lat="40.0738153" lon="-105.2301295">
  <ele>1633.01</ele>
  <time>2026-08-27T18:26:52Z</time>
  <course>162.73</course>
  <speed>0.17</speed>
  <fix>3d</fix>
</trkpt>
<trkpt lat="40.0738148" lon="-105.2301294">
  <ele>1630.26</ele>
  <time>2026-08-27T18:26:52Z</time>
  <course>20.92</course>
  <speed>0.14866068747318506</speed>
  <fix>3d</fix>
</trkpt>
<trkpt lat="40.073815" lon="-105.2301294">
  <ele>1631.78</ele>
  <time>2026-08-27T18:26:52Z</time>
  <course>160.9</course>
  <speed>0.17</speed>
  <fix>3d</fix>
</trkpt>
<trkpt lat="40.0738145" lon="-105.2301293">
  <ele>1629.01</ele>
  <time>2026-08-27T18:26:52Z</time>
  <course>20.79</course>
  <speed>0.14866068747318506</speed>
  <fix>3d</fix>
</trkpt>
<trkpt lat="40.0738147" lon="-105.2301292">
  <ele>1630.54</ele>
  <time>2026-08-27T18:26:52Z</time>
  <course>159.16</course>
  <speed>0.17</speed>
  <fix>3d</fix>
</trkpt>
<trkpt lat="40.0738142" lon="-105.2301291">
  <ele>1627.76</ele>
  <time>2026-08-27T18:26:52Z</time>
  <course>20.7</course>
  <speed>0.15231546211727817</speed>
  <fix>3d</fix>
</trkpt>
<trkpt lat="40.0738144" lon="-105.2301291">
  <ele>1629.3</ele>
  <time>2026-08-27T18:26:52Z</time>
  <course>157.55</course>
  <speed>0.17</speed>
  <fix>3d</fix>
</trkpt>
<trkpt lat="40.0738139" lon="-105.2301289">
  <ele>1626.51</ele>
  <time>2026-08-27T18:26:52Z</time>
  <course>20.59</course>
  <speed>0.15231546211727817</speed>
  <fix>3d</fix>
</trkpt>
<trkpt lat="40.0738141" lon="-105.230129">
  <ele>1628.06</ele>
  <time>2026-08-27T18:26:52Z</time>
  <course>156.09</course>
  <speed>0.18</speed>
  <fix>3d</fix>
</trkpt>
<trkpt lat="40.0738136" lon="-105.2301287">
  <ele>1625.27</ele>
  <time>2026-08-27T18:26:52Z</time>
  <course>20.5</course>
  <speed>0.15652475842498528</speed>
  <fix>3d</fix>
</trkpt>
<trkpt lat="40.0738138" lon="-105.2301287">
  <ele>1626.82</ele>
  <time>2026-08-27T18:26:52Z</time>
  <course>154.74</course>
  <speed>0.18</speed>
  <fix>3d</fix>
</trkpt>
<trkpt lat="40.0738134" lon="-105.2301285">
  <ele>1624.03</ele>
  <time>2026-08-27T18:26:52Z</time>
  <course>20.44</course>
  <speed>0.15652475842498528</speed>
  <fix>3d</fix>
</trkpt>
<trkpt lat="40.0738135" lon="-105.2301286">
  <ele>1625.59</ele>
  <time>2026-08-27T18:26:52Z</time>
  <course>153.57</course>
  <speed>0.18</speed>
  <fix>3d</fix>
</trkpt>
<trkpt lat="40.0738131" lon="-105.2301283">
  <ele>1622.79</ele>
  <time>2026-08-27T18:26:52Z</time>
  <course>20.35</course>
  <speed>0.16124515496597097</speed>
  <fix>3d</fix>
</trkpt>
<trkpt lat="40.0738132" lon="-105.2301283">
  <ele>1624.35</ele>
  <time>2026-08-27T18:26:52Z</time>
  <course>152.5</course>
  <speed>0.18</speed>
  <fix>3d</fix>
</trkpt>
<trkpt lat="40.0738128" lon="-105.2301281">
  <ele>1621.55</ele>
  <time>2026-08-27T18:26:52Z</time>
  <course>20.3</course>
  <speed>0.16124515496597097</speed>
  <fix>3d</fix>
</trkpt>
<trkpt lat="40.0738129" lon="-105.2301282">
  <ele>1623.12</ele>
  <time>2026-08-27T18:26:52Z</time>
  <course>151.55</course>
  <speed>0.19</speed>
  <fix>3d</fix>
</trkpt>
<trkpt lat="40.0738125" lon="-105.2301279">
  <ele>1620.32</ele>
  <time>2026-08-27T18:26:52Z</time>
  <course>20.24</course>
  <speed>0.16124515496597097</speed>
  <fix>3d</fix>
</trkpt>
<trkpt lat="40.0738126" lon="-105.230128">
  <ele>1621.88</ele>
  <time>2026-08-27T18:26:52Z</time>
  <course>150.71</course>
  <speed>0.19</speed>
  <fix>3d</fix>
</trkpt>
<trkpt lat="40.0738122" lon="-105.2301276">
  <ele>1619.09</ele>
  <time>2026-08-27T18:26:52Z</time>
  <course>20.19</course>
  <speed>0.17492855684535902</speed>
  <fix>3d</fix>
</trkpt>
<trkpt lat="40.0738123" lon="-105.2301277">
  <ele>1620.65</ele>
  <time>2026-08-27T18:26:52Z</time>
  <course>149.94</course>
  <speed>0.19</speed>
  <fix>3d</fix>
</trkpt>
<trkpt lat="40.0738119" lon="-105.2301274">
  <ele>1617.86</ele>
  <time>2026-08-27T18:26:52Z</time>
  <course>20.14</course>
  <speed>0.17492855684535902</speed>
  <fix>3d</fix>
</trkpt>
<trkpt lat="40.073812" lon="-105.2301275">
  <ele>1619.42</ele>
  <time>2026-08-27T18:26:52Z</time>
  <course>149.26</course>
  <speed>0.2</speed>
  <fix>3d</fix>
</trkpt>
<trkpt lat="40.0738115" lon="-105.2301272">
  <ele>1616.62</ele>
  <time>2026-08-27T18:26:52Z</time>
  <course>20.08</course>
  <speed>0.17492855684535902</speed>
  <fix>3d</fix>
</trkpt>
<trkpt lat="40.0738116" lon="-105.2301272">
  <ele>1618.18</ele>
  <time>2026-08-27T18:26:52Z</time>
  <course>148.65</course>
  <speed>0.2</speed>
  <fix>3d</fix>
</trkpt>
<trkpt lat="40.0738112" lon="-105.2301269">
  <ele>1615.39</ele>
  <time>2026-08-27T18:26:52Z</time>
  <course>20.02</course>
  <speed>0.17492855684535902</speed>
  <fix>3d</fix>
</trkpt>
<trkpt lat="40.0738113" lon="-105.230127">
  <ele>1616.95</ele>
  <time>2026-08-27T18:26:52Z</time>
  <course>148.11</course>
  <speed>0.2</speed>
  <fix>3d</fix>
</trkpt>
<trkpt lat="40.0738109" lon="-105.2301266">
  <ele>1614.15</ele>
  <time>2026-08-27T18:26:52Z</time>
  <course>19.98</course>
  <speed>0.18027756377319945</speed>
  <fix>3d</fix>
</trkpt>
<trkpt lat="40.073811" lon="-105.2301267">
  <ele>1615.72</ele>
  <time>2026-08-27T18:26:52Z</time>
  <course>147.63</course>
  <speed>0.2</speed>
  <fix>3d</fix>
</trkpt>
<trkpt lat="40.0738106" lon="-105.2301264">
  <ele>1612.92</ele>
  <time>2026-08-27T18:26:52Z</time>
  <course>19.92</course>
  <speed>0.18027756377319945</speed>
  <fix>3d</fix>
</trkpt>
<trkpt lat="40.0738107" lon="-105.2301264">
  <ele>1614.49</ele>
  <time>2026-08-27T18:26:52Z</time>
  <course>147.21</course>
  <speed>0.21</speed>
  <fix>3d</fix>
</trkpt>
<trkpt lat="40.0738103" lon="-105.2301261">
  <ele>1611.69</ele>
  <time>2026-08-27T18:26:52Z</time>
  <course>19.87</course>
  <speed>0.18027756377319945</speed>
  <fix>3d</fix>
</trkpt>
<trkpt lat="40.0738104" lon="-105.2301262">
  <ele>1613.26</ele>
  <time>2026-08-27T18:26:52Z</time>
  <course>146.84</course>
  <speed>0.21</speed>
  <fix>3d</fix>
</trkpt>
<trkpt lat="40.0738099" lon="-105.2301258">
  <ele>1610.46</ele>
  <time>2026-08-27T18:26:53Z</time>
  <course>19.84</course>
  <speed>0.18027756377319945</speed>
  <fix>3d</fix>
</trkpt>
<trkpt lat="40.0738101" lon="-105.2301259">
  <ele>1612.03</ele>
  <time>2026-08-27T18:26:53Z</time>
  <course>146.55</course>
  <speed>0.21</speed>
  <fix>3d</fix>
</trkpt>
<trkpt lat="40.0738096" lon="-105.2301255">
  <ele>1609.22</ele>
  <time>2026-08-27T18:26:53Z</time>
  <course>19.8</course>
  <speed>0.18027756377319945</speed>
  <fix>3d</fix>
</trkpt>
<trkpt lat="40.0738097" lon="-105.2301256">
  <ele>1610.8</ele>
  <time>2026-08-27T18:26:53Z</time>
  <course>146.28</course>
  <speed>0.21</speed>
  <fix>3d</fix>
</trkpt>
<trkpt lat="40.0738093" lon="-105.2301252">
  <ele>1607.99</ele>
  <time>2026-08-27T18:26:53Z</time>
  <course>19.75</course>
  <speed>0.194164878389476</speed>
  <fix>3d</fix>
</trkpt>
<trkpt lat="40.0738094" lon="-105.2301253">
  <ele>1609.57</ele>
  <time>2026-08-27T18:26:53Z</time>
  <course>146.05</course>
  <speed>0.21</speed>
  <fix>3d</fix>
</trkpt>
<trkpt lat="40.073809" lon="-105.2301249">
  <ele>1606.76</ele>
  <time>2026-08-27T18:26:53Z</time>
  <course>19.72</course>
  <speed>0.194164878389476</speed>
  <fix>3d</fix>
</trkpt>
<trkpt lat="40.0738091" lon="-105.2301251">
  <ele>1608.34</ele>
  <time>2026-08-27T18:26:53Z</time>
  <course>145.87</course>
  <speed>0.22</speed>
  <fix>3d</fix>
</trkpt>
<trkpt lat="40.0738086" lon="-105.2301246">
  <ele>1605.53</ele>
  <time>2026-08-27T18:26:53Z</time>
  <course>19.68</course>
  <speed>0.194164878389476</speed>
  <fix>3d</fix>
</trkpt>
<trkpt lat="40.0738087" lon="-105.2301248">
  <ele>1607.11</ele>
  <time>2026-08-27T18:26:53Z</time>
  <course>145.7</course>
  <speed>0.22</speed>
  <fix>3d</fix>
</trkpt>
<trkpt lat="40.0738083" lon="-105.2301243">
  <ele>1604.28</ele>
  <time>2026-08-27T18:26:53Z</time>
  <course>19.64</course>
  <speed>0.194164878389476</speed>
  <fix>3d</fix>
</trkpt>
<trkpt lat="40.0738084" lon="-105.2301245">
  <ele>1605.88</ele>
  <time>2026-08-27T18:26:53Z</time>
  <course>145.55</course>
  <speed>0.22</speed>
  <fix>3d</fix>
</trkpt>
<trkpt lat="40.0738079" lon="-105.230124">
  <ele>1603.04</ele>
  <time>2026-08-27T18:26:53Z</time>
  <course>19.6</course>
  <speed>0.194164878389476</speed>
  <fix>3d</fix>
</trkpt>
<trkpt lat="40.073808" lon="-105.2301242">
  <ele>1604.65</ele>
  <time>2026-08-27T18:26:53Z</time>
  <course>145.45</course>
  <speed>0.22</speed>
  <fix>3d</fix>
</trkpt>
<trkpt lat="40.0738076" lon="-105.2301237">
  <ele>1601.81</ele>
  <time>2026-08-27T18:26:53Z</time>
  <course>19.57</course>
  <speed>0.194164878389476</speed>
  <fix>3d</fix>
</trkpt>
<trkpt lat="40.0738077" lon="-105.2301239">
  <ele>1603.42</ele>
  <time>2026-08-27T18:26:53Z</time>
  <course>145.38</course>
  <speed>0.22</speed>
  <fix>3d</fix>
</trkpt>
<trkpt lat="40.0738072" lon="-105.2301234">
  <ele>1600.58</ele>
  <time>2026-08-27T18:26:53Z</time>
  <course>19.53</course>
  <speed>0.194164878389476</speed>
  <fix>3d</fix>
</trkpt>
<trkpt lat="40.0738074" lon="-105.2301236">
  <ele>1602.2</ele>
  <time>2026-08-27T18:26:53Z</time>
  <course>145.31</course>
  <speed>0.22</speed>
  <fix>3d</fix>
</trkpt>
<trkpt lat="40.0738069" lon="-105.2301231">
  <ele>1599.35</ele>
  <time>2026-08-27T18:26:53Z</time>
  <course>19.5</course>
  <speed>0.194164878389476</speed>
  <fix>3d</fix>
</trkpt>
<trkpt lat="40.073807" lon="-105.2301232">
  <ele>1600.96</ele>
  <time>2026-08-27T18:26:53Z</time>
  <course>145.26</course>
  <speed>0.23</speed>
  <fix>3d</fix>
</trkpt>
<trkpt lat="40.0738066" lon="-105.2301228">
  <ele>1598.11</ele>
  <time>2026-08-27T18:26:53Z</time>
  <course>19.47</course>
  <speed>0.20808652046684814</speed>
  <fix>3d</fix>
</trkpt>
<trkpt lat="40.0738067" lon="-105.2301229">
  <ele>1599.74</ele>
  <time>2026-08-27T18:26:53Z</time>
  <course>145.23</course>
  <speed>0.23</speed>
  <fix>3d</fix>
</trkpt>
<trkpt lat="40.0738062" lon="-105.2301225">
  <ele>1596.88</ele>
  <time>2026-08-27T18:26:53Z</time>
  <course>19.44</course>
  <speed>0.20808652046684814</speed>
  <fix>3d</fix>
</trkpt>
<trkpt lat="40.0738063" lon="-105.2301226">
  <ele>1598.51</ele>
  <time>2026-08-27T18:26:53Z</time>
  <course>145.21</course>
  <speed>0.23</speed>
  <fix>3d</fix>
</trkpt>
<trkpt lat="40.0738059" lon="-105.2301222">
  <ele>1595.66</ele>
  <time>2026-08-27T18:26:53Z</time>
  <course>19.41</course>
  <speed>0.20808652046684814</speed>
  <fix>3d</fix>
</trkpt>
<trkpt lat="40.073806" lon="-105.2301223">
  <ele>1597.28</ele>
  <time>2026-08-27T18:26:53Z</time>
  <course>145.21</course>
  <speed>0.23</speed>
  <fix>3d</fix>
</trkpt>
<trkpt lat="40.0738055" lon="-105.2301218">
  <ele>1594.43</ele>
  <time>2026-08-27T18:26:53Z</time>
  <course>19.38</course>
  <speed>0.20808652046684814</speed>
  <fix>3d</fix>
</trkpt>
<trkpt lat="40.0738056" lon="-105.230122">
  <ele>1596.05</ele>
  <time>2026-08-27T18:26:53Z</time>
  <course>145.22</course>
  <speed>0.23</speed>
  <fix>3d</fix>
</trkpt>
<trkpt lat="40.0738052" lon="-105.2301215">
  <ele>1593.21</ele>
  <time>2026-08-27T18:26:53Z</time>
  <course>19.36</course>
  <speed>0.20808652046684814</speed>
  <fix>3d</fix>
</trkpt>
<trkpt lat="40.0738053" lon="-105.2301217">
  <ele>1594.82</ele>
  <time>2026-08-27T18:26:53Z</time>
  <course>145.23</course>
  <speed>0.23</speed>
  <fix>3d</fix>
</trkpt>
<trkpt lat="40.0738048" lon="-105.2301212">
  <ele>1591.98</ele>
  <time>2026-08-27T18:26:53Z</time>
  <course>19.33</course>
  <speed>0.20808652046684814</speed>
  <fix>3d</fix>
</trkpt>
<trkpt lat="40.0738049" lon="-105.2301214">
  <ele>1593.6</ele>
  <time>2026-08-27T18:26:53Z</time>
  <course>145.24</course>
  <speed>0.23</speed>
  <fix>3d</fix>
</trkpt>
<trkpt lat="40.0738044" lon="-105.2301209">
  <ele>1590.74</ele>
  <time>2026-08-27T18:26:53Z</time>
  <course>19.3</course>
  <speed>0.20808652046684814</speed>
  <fix>3d</fix>
</trkpt>
<trkpt lat="40.0738046" lon="-105.230121">
  <ele>1592.37</ele>
  <time>2026-08-27T18:26:53Z</time>
  <course>145.28</course>
  <speed>0.23</speed>
  <fix>3d</fix>
</trkpt>
<trkpt lat="40.0738041" lon="-105.2301206">
  <ele>1589.52</ele>
  <time>2026-08-27T18:26:53Z</time>
  <course>19.27</course>
  <speed>0.20808652046684814</speed>
  <fix>3d</fix>
</trkpt>
<trkpt lat="40.0738043" lon="-105.2301207">
  <ele>1591.14</ele>
  <time>2026-08-27T18:26:53Z</time>
  <course>145.34</course>
  <speed>0.24</speed>
  <fix>3d</fix>
</trkpt>
<trkpt lat="40.0738037" lon="-105.2301202">
  <ele>1588.29</ele>
  <time>2026-08-27T18:26:53Z</time>
  <course>19.24</course>
  <speed>0.20808652046684814</speed>
  <fix>3d</fix>
</trkpt>
<trkpt lat="40.0738039" lon="-105.2301204">
  <ele>1589.91</ele>
  <time>2026-08-27T18:26:53Z</time>
  <course>145.4</course>
  <speed>0.24</speed>
  <fix>3d</fix>
</trkpt>
<trkpt lat="40.0738034" lon="-105.2301199">
  <ele>1587.07</ele>
  <time>2026-08-27T18:26:53Z</time>
  <course>19.22</course>
  <speed>0.20808652046684814</speed>
  <fix>3d</fix>
</trkpt>
<trkpt lat="40.0738036" lon="-105.2301201">
  <ele>1588.68</ele>
  <time>2026-08-27T18:26:53Z</time>
  <course>145.49</course>
  <speed>0.24</speed>
  <fix>3d</fix>
</trkpt>
<trkpt lat="40.073803" lon="-105.2301196">
  <ele>1585.85</ele>
  <time>2026-08-27T18:26:53Z</time>
  <course>19.19</course>
  <speed>0.21633307652783937</speed>
  <fix>3d</fix>
</trkpt>
<trkpt lat="40.0738032" lon="-105.2301198">
  <ele>1587.45</ele>
  <time>2026-08-27T18:26:53Z</time>
  <course>145.59</course>
  <speed>0.24</speed>
  <fix>3d</fix>
</trkpt>
<trkpt lat="40.0738027" lon="-105.2301193">
  <ele>1584.63</ele>
  <time>2026-08-27T18:26:53Z</time>
  <course>19.16</course>
  <speed>0.21633307652783937</speed>
  <fix>3d</fix>
</trkpt>
<trkpt lat="40.0738029" lon="-105.2301194">
  <ele>1586.22</ele>
  <time>2026-08-27T18:26:53Z</time>
  <course>145.7</course>
  <speed>0.24</speed>
  <fix>3d</fix>
</trkpt>
<trkpt lat="40.0738023" lon="-105.230119">
  <ele>1583.4</ele>
  <time>2026-08-27T18:26:53Z</time>
  <course>19.14</course>
  <speed>0.21633307652783937</speed>
  <fix>3d</fix>
</trkpt>
<trkpt lat="40.0738025" lon="-105.2301191">
  <ele>1585.0</ele>
  <time>2026-08-27T18:26:53Z</time>
  <course>145.8</course>
  <speed>0.24</speed>
  <fix>3d</fix>
</trkpt>
<trkpt lat="40.0738023" lon="-105.2301189">
  <ele>1583.21</ele>
  <time>2026-08-27T18:26:53Z</time>
  <course>19.18</course>
  <speed>0.12083045973594572</speed>
  <fix>3d</fix>
</trkpt>
<trkpt lat="40.0738021" lon="-105.2301188">
  <ele>1583.84</ele>
  <time>2026-08-27T18:26:53Z</time>
  <course>147.47</course>
  <speed>0.16</speed>
  <fix>3d</fix>
</trkpt>
<trkpt lat="40.0738023" lon="-105.2301189">
  <ele>1583.51</ele>
  <time>2026-08-27T18:26:53Z</time>
  <course>19.23</course>
  <speed>0.07280109889280519</speed>
  <fix>3d</fix>
</trkpt>
<trkpt lat="40.073802" lon="-105.2301187">
  <ele>1583.35</ele>
  <time>2026-08-27T18:26:53Z</time>
  <course>182.31</course>
  <speed>0.0</speed>
  <fix>3d</fix>
</trkpt>
<trkpt lat="40.0738023" lon="-105.2301189">
  <ele>1583.51</ele>
  <time>2026-08-27T18:26:53Z</time>
  <course>19.26</course>
  <speed>0.03</speed>
  <fix>3d</fix>
</trkpt>
<trkpt lat="40.073802" lon="-105.2301188">
  <ele>1583.51</ele>
  <time>2026-08-27T18:26:53Z</time>
  <course>330.69</course>
  <speed>0.03</speed>
  <fix>3d</fix>
</trkpt>
<trkpt lat="40.0738023" lon="-105.2301189">
  <ele>1583.49</ele>
  <time>2026-08-27T18:26:53Z</time>
  <course>19.28</course>
  <speed>0.0316227766016838</speed>
  <fix>3d</fix>
</trkpt>
<trkpt lat="40.073802" lon="-105.2301188">
  <ele>1583.59</ele>
  <time>2026-08-27T18:26:53Z</time>
  <course>119.36</course>
  <speed>0.0</speed>
  <fix>3d</fix>
</trkpt>
<trkpt lat="40.0738023" lon="-105.2301189">
  <ele>1583.51</ele>
  <time>2026-08-27T18:26:53Z</time>
  <course>19.3</course>
  <speed>0.0316227766016838</speed>
  <fix>3d</fix>
</trkpt>
<trkpt lat="40.073802" lon="-105.2301188">
  <ele>1583.56</ele>
  <time>2026-08-27T18:26:53Z</time>
  <course>137.02</course>
  <speed>0.0</speed>
  <fix>3d</fix>
</trkpt>
<trkpt lat="40.0738023" lon="-105.2301189">
  <ele>1583.52</ele>
  <time>2026-08-27T18:26:53Z</time>
  <course>19.31</course>
  <speed>0.02</speed>
  <fix>3d</fix>
</trkpt>
<trkpt lat="40.073802" lon="-105.2301188">
  <ele>1583.55</ele>
  <time>2026-08-27T18:26:53Z</time>
  <course>93.76</course>
  <speed>0.0</speed>
  <fix>3d</fix>
</trkpt>
<trkpt lat="40.0738023" lon="-105.2301189">
  <ele>1583.54</ele>
  <time>2026-08-27T18:26:53Z</time>
  <course>19.3</course>
  <speed>0.022360679774997897</speed>
  <fix>3d</fix>
</trkpt>
<trkpt lat="40.073802" lon="-105.2301188">
  <ele>1583.56</ele>
  <time>2026-08-27T18:26:53Z</time>
  <course>102.43</course>
  <speed>0.0</speed>
  <fix>3d</fix>
</trkpt>
<trkpt lat="40.0738023" lon="-105.2301189">
  <ele>1583.56</ele>
  <time>2026-08-27T18:26:53Z</time>
  <course>19.29</course>
  <speed>0.022360679774997897</speed>
  <fix>3d</fix>
</trkpt>
<trkpt lat="40.073802" lon="-105.2301187">
  <ele>1583.56</ele>
  <time>2026-08-27T18:26:53Z</time>
  <course>105.34</course>
  <speed>0.0</speed>
  <fix>3d</fix>
</trkpt>
<trkpt lat="40.0738023" lon="-105.2301189">
  <ele>1583.57</ele>
  <time>2026-08-27T18:26:53Z</time>
  <course>19.28</course>
  <speed>0.022360679774997897</speed>
  <fix>3d</fix>
</trkpt>
<trkpt lat="40.073802" lon="-105.2301186">
  <ele>1583.56</ele>
  <time>2026-08-27T18:26:53Z</time>
  <course>356.55</course>
  <speed>0.0</speed>
  <fix>3d</fix>
</trkpt>
<trkpt lat="40.0738023" lon="-105.2301189">
  <ele>1583.59</ele>
  <time>2026-08-27T18:26:53Z</time>
  <course>19.27</course>
  <speed>0.022360679774997897</speed>
  <fix>3d</fix>
</trkpt>
<trkpt lat="40.073802" lon="-105.2301186">
  <ele>1583.56</ele>
  <time>2026-08-27T18:26:53Z</time>
  <course>40.74</course>
  <speed>0.0</speed>
  <fix>3d</fix>
</trkpt>
<trkpt lat="40.0738023" lon="-105.2301189">
  <ele>1583.59</ele>
  <time>2026-08-27T18:26:53Z</time>
  <course>19.26</course>
  <speed>0.01414213562373095</speed>
  <fix>3d</fix>
</trkpt>
<trkpt lat="40.073802" lon="-105.2301186">
  <ele>1583.56</ele>
  <time>2026-08-27T18:26:53Z</time>
  <course>77.32</course>
  <speed>0.0</speed>
  <fix>3d</fix>
</trkpt>
<trkpt lat="40.0738022" lon="-105.2301189">
  <ele>1583.6</ele>
  <time>2026-08-27T18:26:53Z</time>
  <course>19.26</course>
  <speed>0.01414213562373095</speed>
  <fix>3d</fix>
</trkpt>
<trkpt lat="40.073802" lon="-105.2301186">
  <ele>1583.56</ele>
  <time>2026-08-27T18:26:53Z</time>
  <course>264.97</course>
  <speed>0.0</speed>
  <fix>3d</fix>
</trkpt>
<trkpt lat="40.0738022" lon="-105.2301189">
  <ele>1583.61</ele>
  <time>2026-08-27T18:26:53Z</time>
  <course>19.25</course>
  <speed>0.01414213562373095</speed>
  <fix>3d</fix>
</trkpt>
<trkpt lat="40.073802" lon="-105.2301187">
  <ele>1583.56</ele>
  <time>2026-08-27T18:26:53Z</time>
  <course>257.36</course>
  <speed>0.0</speed>
  <fix>3d</fix>
</trkpt>
<trkpt lat="40.0738022" lon="-105.2301189">
  <ele>1583.61</ele>
  <time>2026-08-27T18:26:53Z</time>
  <course>19.24</course>
  <speed>0.01414213562373095</speed>
  <fix>3d</fix>
</trkpt>
<trkpt lat="40.073802" lon="-105.2301188">
  <ele>1583.56</ele>
  <time>2026-08-27T18:26:53Z</time>
  <course>253.17</course>
  <speed>0.0</speed>
  <fix>3d</fix>
</trkpt>
<trkpt lat="40.0738022" lon="-105.2301189">
  <ele>1583.62</ele>
  <time>2026-08-27T18:26:53Z</time>
  <course>19.24</course>
  <speed>0.01414213562373095</speed>
  <fix>3d</fix>
</trkpt>
<trkpt lat="40.073802" lon="-105.2301188">
  <ele>1583.56</ele>
  <time>2026-08-27T18:26:53Z</time>
  <course>247.14</course>
  <speed>0.0</speed>
  <fix>3d</fix>
</trkpt>
<trkpt lat="40.0738022" lon="-105.2301189">
  <ele>1583.63</ele>
  <time>2026-08-27T18:26:53Z</time>
  <course>19.23</course>
  <speed>0.01414213562373095</speed>
  <fix>3d</fix>
</trkpt>
<trkpt lat="40.073802" lon="-105.2301188">
  <ele>1583.56</ele>
  <time>2026-08-27T18:26:53Z</time>
  <course>241.79</course>
  <speed>0.0</speed>
  <fix>3d</fix>
</trkpt>
<trkpt lat="40.0738022" lon="-105.2301189">
  <ele>1583.63</ele>
  <time>2026-08-27T18:26:53Z</time>
  <course>19.22</course>
  <speed>0.01414213562373095</speed>
  <fix>3d</fix>
</trkpt>
<trkpt lat="40.073802" lon="-105.2301188">
  <ele>1583.56</ele>
  <time>2026-08-27T18:26:53Z</time>
  <course>232.2</course>
  <speed>0.0</speed>
  <fix>3d</fix>
</trkpt>
<trkpt lat="40.0738022" lon="-105.2301189">
  <ele>1583.63</ele>
  <time>2026-08-27T18:26:53Z</time>
  <course>19.22</course>
  <speed>0.01414213562373095</speed>
  <fix>3d</fix>
</trkpt>
<trkpt lat="40.073802" lon="-105.2301188">
  <ele>1583.56</ele>
  <time>2026-08-27T18:26:53Z</time>
  <course>92.49</course>
  <speed>0.0</speed>
  <fix>3d</fix>
</trkpt>
<trkpt lat="40.0738022" lon="-105.2301189">
  <ele>1583.64</ele>
  <time>2026-08-27T18:26:53Z</time>
  <course>19.21</course>
  <speed>0.01414213562373095</speed>
  <fix>3d</fix>
</trkpt>
<trkpt lat="40.073802" lon="-105.2301188">
  <ele>1583.56</ele>
  <time>2026-08-27T18:26:53Z</time>
  <course>111.16</course>
  <speed>0.0</speed>
  <fix>3d</fix>
</trkpt>
<trkpt lat="40.0738022" lon="-105.2301189">
  <ele>1583.64</ele>
  <time>2026-08-27T18:26:53Z</time>
  <course>19.21</course>
  <speed>0.01414213562373095</speed>
  <fix>3d</fix>
</trkpt>
<trkpt lat="40.073802" lon="-105.2301188">
  <ele>1583.56</ele>
  <time>2026-08-27T18:26:53Z</time>
  <course>128.24</course>
  <speed>0.0</speed>
  <fix>3d</fix>
</trkpt>
<trkpt lat="40.0738022" lon="-105.2301189">
  <ele>1583.65</ele>
  <time>2026-08-27T18:26:53Z</time>
  <course>19.2</course>
  <speed>0.01414213562373095</speed>
  <fix>3d</fix>
</trkpt>
<trkpt lat="40.073802" lon="-105.2301188">
  <ele>1583.56</ele>
  <time>2026-08-27T18:26:53Z</time>
  <course>89.11</course>
  <speed>0.0</speed>
  <fix>3d</fix>
</trkpt>
<trkpt lat="40.0738022" lon="-105.2301189">
  <ele>1583.65</ele>
  <time>2026-08-27T18:26:53Z</time>
  <course>19.2</course>
  <speed>0.01414213562373095</speed>
  <fix>3d</fix>
</trkpt>
<trkpt lat="40.073802" lon="-105.2301188">
  <ele>1583.56</ele>
  <time>2026-08-27T18:26:53Z</time>
  <course>56.37</course>
  <speed>0.0</speed>
  <fix>3d</fix>
</trkpt>
<trkpt lat="40.0738022" lon="-105.2301189">
  <ele>1583.65</ele>
  <time>2026-08-27T18:26:53Z</time>
  <course>19.19</course>
  <speed>0.01414213562373095</speed>
  <fix>3d</fix>
</trkpt>
<trkpt lat="40.073802" lon="-105.2301188">
  <ele>1583.56</ele>
  <time>2026-08-27T18:26:53Z</time>
  <course>88.24</course>
  <speed>0.0</speed>
  <fix>3d</fix>
</trkpt>
<trkpt lat="40.0738022" lon="-105.2301189">
  <ele>1583.65</ele>
  <time>2026-08-27T18:26:53Z</time>
  <course>19.18</course>
  <speed>0.01414213562373095</speed>
  <fix>3d</fix>
</trkpt>
<trkpt lat="40.073802" lon="-105.2301188">
  <ele>1583.56</ele>
  <time>2026-08-27T18:26:53Z</time>
  <course>86.12</course>
  <speed>0.0</speed>
  <fix>3d</fix>
</trkpt>
<trkpt lat="40.0738022" lon="-105.2301189">
  <ele>1583.66</ele>
  <time>2026-08-27T18:26:53Z</time>
  <course>19.18</course>
  <speed>0.01414213562373095</speed>
  <fix>3d</fix>
</trkpt>
<trkpt lat="40.073802" lon="-105.2301188">
  <ele>1583.56</ele>
  <time>2026-08-27T18:26:53Z</time>
  <course>126.61</course>
  <speed>0.0</speed>
  <fix>3d</fix>
</trkpt>
<trkpt lat="40.0738022" lon="-105.2301189">
  <ele>1583.66</ele>
  <time>2026-08-27T18:26:53Z</time>
  <course>19.17</course>
  <speed>0.01414213562373095</speed>
  <fix>3d</fix>
</trkpt>
<trkpt lat="40.073802" lon="-105.2301188">
  <ele>1583.56</ele>
  <time>2026-08-27T18:26:53Z</time>
  <course>128.21</course>
  <speed>0.0</speed>
  <fix>3d</fix>
</trkpt>
<trkpt lat="40.0738022" lon="-105.2301189">
  <ele>1583.66</ele>
  <time>2026-08-27T18:26:53Z</time>
  <course>19.17</course>
  <speed>0.01414213562373095</speed>
  <fix>3d</fix>
</trkpt>
<trkpt lat="40.073802" lon="-105.2301188">
  <ele>1583.56</ele>
  <time>2026-08-27T18:26:53Z</time>
  <course>76.35</course>
  <speed>0.0</speed>
  <fix>3d</fix>
</trkpt>
<trkpt lat="40.0738022" lon="-105.2301189">
  <ele>1583.66</ele>
  <time>2026-08-27T18:26:53Z</time>
  <course>19.16</course>
  <speed>0.01414213562373095</speed>
  <fix>3d</fix>
</trkpt>
<trkpt lat="40.073802" lon="-105.2301188">
  <ele>1583.56</ele>
  <time>2026-08-27T18:26:53Z</time>
  <course>69.76</course>
  <speed>0.0</speed>
  <fix>3d</fix>
</trkpt>
<trkpt lat="40.0738022" lon="-105.2301189">
  <ele>1583.66</ele>
  <time>2026-08-27T18:26:53Z</time>
  <course>19.16</course>
  <speed>0.01414213562373095</speed>
  <fix>3d</fix>
</trkpt>
<trkpt lat="40.073802" lon="-105.2301188">
  <ele>1583.56</ele>
  <time>2026-08-27T18:26:53Z</time>
  <course>135.44</course>
  <speed>0.0</speed>
  <fix>3d</fix>
</trkpt>
<trkpt lat="40.0738022" lon="-105.2301189">
  <ele>1583.66</ele>
  <time>2026-08-27T18:26:53Z</time>
  <course>19.15</course>
  <speed>0.01414213562373095</speed>
  <fix>3d</fix>
</trkpt>
<trkpt lat="40.073802" lon="-105.2301188">
  <ele>1583.56</ele>
  <time>2026-08-27T18:26:53Z</time>
  <course>175.58</course>
  <speed>0.0</speed>
  <fix>3d</fix>
</trkpt>
<trkpt lat="40.0738022" lon="-105.2301189">
  <ele>1583.66</ele>
  <time>2026-08-27T18:26:53Z</time>
  <course>19.15</course>
  <speed>0.01414213562373095</speed>
  <fix>3d</fix>
</trkpt>
<trkpt lat="40.073802" lon="-105.2301188">
  <ele>1583.56</ele>
  <time>2026-08-27T18:26:53Z</time>
  <course>127.64</course>
  <speed>0.0</speed>
  <fix>3d</fix>
</trkpt>
<trkpt lat="40.0738022" lon="-105.2301189">
  <ele>1583.66</ele>
  <time>2026-08-27T18:26:53Z</time>
  <course>19.14</course>
  <speed>0.01414213562373095</speed>
  <fix>3d</fix>
</trkpt>
<trkpt lat="40.073802" lon="-105.2301188">
  <ele>1583.56</ele>
  <time>2026-08-27T18:26:53Z</time>
  <course>101.19</course>
  <speed>0.0</speed>
  <fix>3d</fix>
</trkpt>
<trkpt lat="40.0738022" lon="-105.2301189">
  <ele>1583.66</ele>
  <time>2026-08-27T18:26:53Z</time>
  <course>19.14</course>
  <speed>0.01414213562373095</speed>
  <fix>3d</fix>
</trkpt>
<trkpt lat="40.073802" lon="-105.2301188">
  <ele>1583.56</ele>
  <time>2026-08-27T18:26:53Z</time>
  <course>66.06</course>
  <speed>0.0</speed>
  <fix>3d</fix>
</trkpt>
<trkpt lat="40.0738022" lon="-105.2301189">
  <ele>1583.66</ele>
  <time>2026-08-27T18:26:53Z</time>
  <course>19.14</course>
  <speed>0.01414213562373095</speed>
  <fix>3d</fix>
</trkpt>
<trkpt lat="40.073802" lon="-105.2301188">
  <ele>1583.56</ele>
  <time>2026-08-27T18:26:53Z</time>
  <course>80.36</course>
  <speed>0.0</speed>
  <fix>3d</fix>
</trkpt>
<trkpt lat="40.0738022" lon="-105.2301189">
  <ele>1583.66</ele>
  <time>2026-08-27T18:26:53Z</time>
  <course>19.13</course>
  <speed>0.01414213562373095</speed>
  <fix>3d</fix>
</trkpt>
<trkpt lat="40.073802" lon="-105.2301188">
  <ele>1583.56</ele>
  <time>2026-08-27T18:26:53Z</time>
  <course>87.47</course>
  <speed>0.0</speed>
  <fix>3d</fix>
</trkpt>
<trkpt lat="40.0738022" lon="-105.2301189">
  <ele>1583.66</ele>
  <time>2026-08-27T18:26:53Z</time>
  <course>19.13</course>
  <speed>0.01414213562373095</speed>
  <fix>3d</fix>
</trkpt>
<trkpt lat="40.073802" lon="-105.2301188">
  <ele>1583.56</ele>
  <time>2026-08-27T18:26:53Z</time>
  <course>122.3</course>
  <speed>0.0</speed>
  <fix>3d</fix>
</trkpt>
<trkpt lat="40.0738022" lon="-105.2301189">
  <ele>1583.66</ele>
  <time>2026-08-27T18:26:53Z</time>
  <course>19.12</course>
  <speed>0.01414213562373095</speed>
  <fix>3d</fix>
</trkpt>
<trkpt lat="40.073802" lon="-105.2301188">
  <ele>1583.56</ele>
  <time>2026-08-27T18:26:53Z</time>
  <course>119.21</course>
  <speed>0.0</speed>
  <fix>3d</fix>
</trkpt>
<trkpt lat="40.0738022" lon="-105.2301189">
  <ele>1583.66</ele>
  <time>2026-08-27T18:26:53Z</time>
  <course>19.12</course>
  <speed>0.01414213562373095</speed>
  <fix>3d</fix>
</trkpt>
<trkpt lat="40.073802" lon="-105.2301188">
  <ele>1583.56</ele>
  <time>2026-08-27T18:26:53Z</time>
  <course>77.8</course>
  <speed>0.0</speed>
  <fix>3d</fix>
</trkpt>
<trkpt lat="40.0738022" lon="-105.2301189">
  <ele>1583.66</ele>
  <time>2026-08-27T18:26:53Z</time>
  <course>19.11</course>
  <speed>0.01414213562373095</speed>
  <fix>3d</fix>
</trkpt>
<trkpt lat="40.073802" lon="-105.2301188">
  <ele>1583.56</ele>
  <time>2026-08-27T18:26:53Z</time>
  <course>97.29</course>
  <speed>0.0</speed>
  <fix>3d</fix>
</trkpt>
<trkpt lat="40.0738022" lon="-105.2301189">
  <ele>1583.66</ele>
  <time>2026-08-27T18:26:53Z</time>
  <course>19.11</course>
  <speed>0.01414213562373095</speed>
  <fix>3d</fix>
</trkpt>
<trkpt lat="40.073802" lon="-105.2301188">
  <ele>1583.56</ele>
  <time>2026-08-27T18:26:53Z</time>
  <course>97.69</course>
  <speed>0.0</speed>
  <fix>3d</fix>
</trkpt>
<trkpt lat="40.0738022" lon="-105.2301189">
  <ele>1583.66</ele>
  <time>2026-08-27T18:26:53Z</time>
  <course>19.1</course>
  <speed>0.01414213562373095</speed>
  <fix>3d</fix>
</trkpt>
<trkpt lat="40.073802" lon="-105.2301188">
  <ele>1583.56</ele>
  <time>2026-08-27T18:26:53Z</time>
  <course>117.91</course>
  <speed>0.0</speed>
  <fix>3d</fix>
</trkpt>
<trkpt lat="40.0738022" lon="-105.2301189">
  <ele>1583.67</ele>
  <time>2026-08-27T18:26:53Z</time>
  <course>19.1</course>
  <speed>0.01414213562373095</speed>
  <fix>3d</fix>
</trkpt>
<trkpt lat="40.073802" lon="-105.2301188">
  <ele>1583.56</ele>
  <time>2026-08-27T18:26:53Z</time>
  <course>129.32</course>
  <speed>0.0</speed>
  <fix>3d</fix>
</trkpt>
<trkpt lat="40.0738022" lon="-105.2301189">
  <ele>1583.67</ele>
  <time>2026-08-27T18:26:53Z</time>
  <course>19.1</course>
  <speed>0.01414213562373095</speed>
  <fix>3d</fix>
</trkpt>
<trkpt lat="40.073802" lon="-105.2301188">
  <ele>1583.56</ele>
  <time>2026-08-27T18:26:53Z</time>
  <course>87.44</course>
  <speed>0.0</speed>
  <fix>3d</fix>
</trkpt>
<trkpt lat="40.0738022" lon="-105.2301189">
  <ele>1583.67</ele>
  <time>2026-08-27T18:26:53Z</time>
  <course>19.09</course>
  <speed>0.01414213562373095</speed>
  <fix>3d</fix>
</trkpt>
<trkpt lat="40.073802" lon="-105.2301188">
  <ele>1583.56</ele>
  <time>2026-08-27T18:26:53Z</time>
  <course>141.26</course>
  <speed>0.0</speed>
  <fix>3d</fix>
</trkpt>
<trkpt lat="40.0738022" lon="-105.2301189">
  <ele>1583.67</ele>
  <time>2026-08-27T18:26:53Z</time>
  <course>19.09</course>
  <speed>0.022360679774997897</speed>
  <fix>3d</fix>
</trkpt>
<trkpt lat="40.073802" lon="-105.2301188">
  <ele>1583.56</ele>
  <time>2026-08-27T18:26:53Z</time>
  <course>144.94</course>
  <speed>0.0</speed>
  <fix>3d</fix>
</trkpt>
<trkpt lat="40.0738022" lon="-105.2301189">
  <ele>1583.67</ele>
  <time>2026-08-27T18:26:53Z</time>
  <course>19.09</course>
  <speed>0.022360679774997897</speed>
  <fix>3d</fix>
</trkpt>
<trkpt lat="40.073802" lon="-105.2301187">
  <ele>1583.56</ele>
  <time>2026-08-27T18:26:53Z</time>
  <course>121.32</course>
  <speed>0.0</speed>
  <fix>3d</fix>
</trkpt>
<trkpt lat="40.0738022" lon="-105.2301189">
  <ele>1583.68</ele>
  <time>2026-08-27T18:26:53Z</time>
  <course>19.08</course>
  <speed>0.022360679774997897</speed>
  <fix>3d</fix>
</trkpt>
<trkpt lat="40.073802" lon="-105.2301186">
  <ele>1583.56</ele>
  <time>2026-08-27T18:26:53Z</time>
  <course>126.96</course>
  <speed>0.0</speed>
  <fix>3d</fix>
</trkpt>
<trkpt lat="40.0738022" lon="-105.2301189">
  <ele>1583.68</ele>
  <time>2026-08-27T18:26:53Z</time>
  <course>19.08</course>
  <speed>0.022360679774997897</speed>
  <fix>3d</fix>
</trkpt>
<trkpt lat="40.073802" lon="-105.2301186">
  <ele>1583.56</ele>
  <time>2026-08-27T18:26:53Z</time>
  <course>99.91</course>
  <speed>0.0</speed>
  <fix>3d</fix>
</trkpt>
<trkpt lat="40.0738022" lon="-105.2301189">
  <ele>1583.68</ele>
  <time>2026-08-27T18:26:53Z</time>
  <course>19.07</course>
  <speed>0.022360679774997897</speed>
  <fix>3d</fix>
</trkpt>
<trkpt lat="40.073802" lon="-105.2301186">
  <ele>1583.56</ele>
  <time>2026-08-27T18:26:53Z</time>
  <course>85.12</course>
  <speed>0.0</speed>
  <fix>3d</fix>
</trkpt>
<trkpt lat="40.0738022" lon="-105.2301189">
  <ele>1583.68</ele>
  <time>2026-08-27T18:26:53Z</time>
  <course>19.07</course>
  <speed>0.022360679774997897</speed>
  <fix>3d</fix>
</trkpt>
<trkpt lat="40.073802" lon="-105.2301186">
  <ele>1583.56</ele>
  <time>2026-08-27T18:26:53Z</time>
  <course>85.12</course>
  <speed>0.0</speed>
  <fix>3d</fix>
</trkpt>
<trkpt lat="40.0738022" lon="-105.2301189">
  <ele>1583.68</ele>
  <time>2026-08-27T18:26:53Z</time>
  <course>19.07</course>
  <speed>0.02</speed>
  <fix>3d</fix>
</trkpt>
<trkpt lat="40.073802" lon="-105.2301186">
  <ele>1583.56</ele>
  <time>2026-08-27T18:26:53Z</time>
  <course>119.13</course>
  <speed>0.0</speed>
  <fix>3d</fix>
</trkpt>
<trkpt lat="40.0738022" lon="-105.2301189">
  <ele>1583.68</ele>
  <time>2026-08-27T18:26:53Z</time>
  <course>19.06</course>
  <speed>0.02</speed>
  <fix>3d</fix>
</trkpt>
<trkpt lat="40.073802" lon="-105.2301186">
  <ele>1583.56</ele>
  <time>2026-08-27T18:26:53Z</time>
  <course>126.96</course>
  <speed>0.0</speed>
  <fix>3d</fix>
</trkpt>
<trkpt lat="40.0738022" lon="-105.2301189">
  <ele>1583.68</ele>
  <time>2026-08-27T18:26:53Z</time>
  <course>19.06</course>
  <speed>0.02</speed>
  <fix>3d</fix>
</trkpt>
<trkpt lat="40.073802" lon="-105.2301186">
  <ele>1583.56</ele>
  <time>2026-08-27T18:26:53Z</time>
  <course>105.62</course>
  <speed>0.0</speed>
  <fix>3d</fix>
</trkpt>
<trkpt lat="40.0738022" lon="-105.2301188">
  <ele>1583.68</ele>
  <time>2026-08-27T18:26:53Z</time>
  <course>19.05</course>
  <speed>0.02</speed>
  <fix>3d</fix>
</trkpt>
<trkpt lat="40.073802" lon="-105.2301186">
  <ele>1583.56</ele>
  <time>2026-08-27T18:26:53Z</time>
  <course>81.71</course>
  <speed>0.0</speed>
  <fix>3d</fix>
</trkpt>
<trkpt lat="40.0738022" lon="-105.2301188">
  <ele>1583.68</ele>
  <time>2026-08-27T18:26:53Z</time>
  <course>19.05</course>
  <speed>0.02</speed>
  <fix>3d</fix>
</trkpt>
<trkpt lat="40.073802" lon="-105.2301186">
  <ele>1583.56</ele>
  <time>2026-08-27T18:26:53Z</time>
  <course>92.05</course>
  <speed>0.0</speed>
  <fix>3d</fix>
</trkpt>
<trkpt lat="40.0738022" lon="-105.2301188">
  <ele>1583.67</ele>
  <time>2026-08-27T18:26:53Z</time>
  <course>19.05</course>
  <speed>0.02</speed>
  <fix>3d</fix>
</trkpt>
<trkpt lat="40.073802" lon="-105.2301186">
  <ele>1583.56</ele>
  <time>2026-08-27T18:26:53Z</time>
  <course>102.21</course>
  <speed>0.0</speed>
  <fix>3d</fix>
</trkpt>
<trkpt lat="40.0738022" lon="-105.2301188">
  <ele>1583.68</ele>
  <time>2026-08-27T18:26:53Z</time>
  <course>19.04</course>
  <speed>0.02</speed>
  <fix>3d</fix>
</trkpt>
<trkpt lat="40.073802" lon="-105.2301186">
  <ele>1583.56</ele>
  <time>2026-08-27T18:26:53Z</time>
  <course>114.67</course>
  <speed>0.0</speed>
  <fix>3d</fix>
</trkpt>
<trkpt lat="40.0738022" lon="-105.2301188">
  <ele>1583.68</ele>
  <time>2026-08-27T18:26:53Z</time>
  <course>19.04</course>
  <speed>0.02</speed>
  <fix>3d</fix>
</trkpt>
<trkpt lat="40.073802" lon="-105.2301186">
  <ele>1583.56</ele>
  <time>2026-08-27T18:26:53Z</time>
  <course>148.66</course>
  <speed>0.0</speed>
  <fix>3d</fix>
</trkpt>
<trkpt lat="40.0738022" lon="-105.2301188">
  <ele>1583.68</ele>
  <time>2026-08-27T18:26:53Z</time>
  <course>19.03</course>
  <speed>0.02</speed>
  <fix>3d</fix>
</trkpt>
<trkpt lat="40.073802" lon="-105.2301186">
  <ele>1583.56</ele>
  <time>2026-08-27T18:26:53Z</time>
  <course>156.58</course>
  <speed>0.0</speed>
  <fix>3d</fix>
</trkpt>
<trkpt lat="40.0738022" lon="-105.2301188">
  <ele>1583.68</ele>
  <time>2026-08-27T18:26:53Z</time>
  <course>19.03</course>
  <speed>0.02</speed>
  <fix>3d</fix>
</trkpt>
<trkpt lat="40.073802" lon="-105.2301186">
  <ele>1583.56</ele>
  <time>2026-08-27T18:26:53Z</time>
  <course>98.49</course>
  <speed>0.0</speed>
  <fix>3d</fix>
</trkpt>
<trkpt lat="40.0738022" lon="-105.2301188">
  <ele>1583.67</ele>
  <time>2026-08-27T18:26:53Z</time>
  <course>19.03</course>
  <speed>0.02</speed>
  <fix>3d</fix>
</trkpt>
<trkpt lat="40.073802" lon="-105.2301186">
  <ele>1583.56</ele>
  <time>2026-08-27T18:26:53Z</time>
  <course>90.5</course>
  <speed>0.0</speed>
  <fix>3d</fix>
</trkpt>
<trkpt lat="40.0738022" lon="-105.2301188">
  <ele>1583.67</ele>
  <time>2026-08-27T18:26:53Z</time>
  <course>19.02</course>
  <speed>0.02</speed>
  <fix>3d</fix>
</trkpt>
<trkpt lat="40.073802" lon="-105.2301186">
  <ele>1583.56</ele>
  <time>2026-08-27T18:26:53Z</time>
  <course>129.71</course>
  <speed>0.0</speed>
  <fix>3d</fix>
</trkpt>
<trkpt lat="40.0738022" lon="-105.2301188">
  <ele>1583.67</ele>
  <time>2026-08-27T18:26:53Z</time>
  <course>19.02</course>
  <speed>0.02</speed>
  <fix>3d</fix>
</trkpt>
<trkpt lat="40.073802" lon="-105.2301186">
  <ele>1583.56</ele>
  <time>2026-08-27T18:26:53Z</time>
  <course>127.14</course>
  <speed>0.0</speed>
  <fix>3d</fix>
</trkpt>
<trkpt lat="40.0738022" lon="-105.2301188">
  <ele>1583.67</ele>
  <time>2026-08-27T18:26:53Z</time>
  <course>19.01</course>
  <speed>0.02</speed>
  <fix>3d</fix>
</trkpt>
<trkpt lat="40.073802" lon="-105.2301186">
  <ele>1583.56</ele>
  <time>2026-08-27T18:26:53Z</time>
  <course>99.29</course>
  <speed>0.0</speed>
  <fix>3d</fix>
</trkpt>
<trkpt lat="40.0738022" lon="-105.2301188">
  <ele>1583.67</ele>
  <time>2026-08-27T18:26:53Z</time>
  <course>19.01</course>
  <speed>0.02</speed>
  <fix>3d</fix>
</trkpt>
<trkpt lat="40.073802" lon="-105.2301186">
  <ele>1583.56</ele>
  <time>2026-08-27T18:26:53Z</time>
  <course>97.19</course>
  <speed>0.0</speed>
  <fix>3d</fix>
</trkpt>
<trkpt lat="40.0738022" lon="-105.2301188">
  <ele>1583.67</ele>
  <time>2026-08-27T18:26:53Z</time>
  <course>19.0</course>
  <speed>0.02</speed>
  <fix>3d</fix>
</trkpt>
<trkpt lat="40.073802" lon="-105.2301186">
  <ele>1583.56</ele>
  <time>2026-08-27T18:26:53Z</time>
  <course>92.22</course>
  <speed>0.0</speed>
  <fix>3d</fix>
</trkpt>
<trkpt lat="40.0738022" lon="-105.2301188">
  <ele>1583.67</ele>
  <time>2026-08-27T18:26:53Z</time>
  <course>19.0</course>
  <speed>0.02</speed>
  <fix>3d</fix>
</trkpt>
<trkpt lat="40.073802" lon="-105.2301186">
  <ele>1583.56</ele>
  <time>2026-08-27T18:26:53Z</time>
  <course>134.56</course>
  <speed>0.0</speed>
  <fix>3d</fix>
</trkpt>
<trkpt lat="40.0738022" lon="-105.2301188">
  <ele>1583.67</ele>
  <time>2026-08-27T18:26:53Z</time>
  <course>19.0</course>
  <speed>0.022360679774997897</speed>
  <fix>3d</fix>
</trkpt>
<trkpt lat="40.073802" lon="-105.2301186">
  <ele>1583.56</ele>
  <time>2026-08-27T18:26:53Z</time>
  <course>132.13</course>
  <speed>0.0</speed>
  <fix>3d</fix>
</trkpt>
<trkpt lat="40.0738022" lon="-105.2301188">
  <ele>1583.67</ele>
  <time>2026-08-27T18:26:53Z</time>
  <course>18.99</course>
  <speed>0.022360679774997897</speed>
  <fix>3d</fix>
</trkpt>
<trkpt lat="40.073802" lon="-105.2301186">
  <ele>1583.56</ele>
  <time>2026-08-27T18:26:53Z</time>
  <course>101.54</course>
  <speed>0.0</speed>
  <fix>3d</fix>
</trkpt>
<trkpt lat="40.0738022" lon="-105.2301188">
  <ele>1583.68</ele>
  <time>2026-08-27T18:26:53Z</time>
  <course>18.99</course>
  <speed>0.022360679774997897</speed>
  <fix>3d</fix>
</trkpt>
<trkpt lat="40.073802" lon="-105.2301186">
  <ele>1583.56</ele>
  <time>2026-08-27T18:26:53Z</time>
  <course>89.79</course>
  <speed>0.0</speed>
  <fix>3d</fix>
</trkpt>
<trkpt lat="40.0738022" lon="-105.2301188">
  <ele>1583.68</ele>
  <time>2026-08-27T18:26:53Z</time>
  <course>18.98</course>
  <speed>0.022360679774997897</speed>
  <fix>3d</fix>
</trkpt>
<trkpt lat="40.073802" lon="-105.2301186">
  <ele>1583.56</ele>
  <time>2026-08-27T18:26:53Z</time>
  <course>99.32</course>
  <speed>0.0</speed>
  <fix>3d</fix>
</trkpt>
<trkpt lat="40.0738022" lon="-105.2301188">
  <ele>1583.68</ele>
  <time>2026-08-27T18:26:53Z</time>
  <course>18.98</course>
  <speed>0.022360679774997897</speed>
  <fix>3d</fix>
</trkpt>
<trkpt lat="40.073802" lon="-105.2301186">
  <ele>1583.56</ele>
  <time>2026-08-27T18:26:53Z</time>
  <course>113.59</course>
  <speed>0.0</speed>
  <fix>3d</fix>
</trkpt>
<trkpt lat="40.0738022" lon="-105.2301187">
  <ele>1583.67</ele>
  <time>2026-08-27T18:26:53Z</time>
  <course>18.97</course>
  <speed>0.022360679774997897</speed>
  <fix>3d</fix>
</trkpt>
<trkpt lat="40.073802" lon="-105.2301186">
  <ele>1583.56</ele>
  <time>2026-08-27T18:26:53Z</time>
  <course>130.18</course>
  <speed>0.0</speed>
  <fix>3d</fix>
</trkpt>
<trkpt lat="40.0738022" lon="-105.2301187">
  <ele>1583.67</ele>
  <time>2026-08-27T18:26:53Z</time>
  <course>18.97</course>
  <speed>0.022360679774997897</speed>
  <fix>3d</fix>
</trkpt>
<trkpt lat="40.073802" lon="-105.2301186">
  <ele>1583.56</ele>
  <time>2026-08-27T18:26:53Z</time>
  <course>143.71</course>
  <speed>0.0</speed>
  <fix>3d</fix>
</trkpt>
<trkpt lat="40.0738022" lon="-105.2301187">
  <ele>1583.67</ele>
  <time>2026-08-27T18:26:53Z</time>
  <course>18.97</course>
  <speed>0.022360679774997897</speed>
  <fix>3d</fix>
</trkpt>
<trkpt lat="40.073802" lon="-105.2301186">
  <ele>1583.56</ele>
  <time>2026-08-27T18:26:53Z</time>
  <course>109.88</course>
  <speed>0.0</speed>
  <fix>3d</fix>
</trkpt>
<trkpt lat="40.0738022" lon="-105.2301187">
  <ele>1583.67</ele>
  <time>2026-08-27T18:26:53Z</time>
  <course>18.96</course>
  <speed>0.022360679774997897</speed>
  <fix>3d</fix>
</trkpt>
<trkpt lat="40.073802" lon="-105.2301186">
  <ele>1583.56</ele>
  <time>2026-08-27T18:26:53Z</time>
  <course>93.23</course>
  <speed>0.0</speed>
  <fix>3d</fix>
</trkpt>
<trkpt lat="40.0738022" lon="-105.2301187">
  <ele>1583.67</ele>
  <time>2026-08-27T18:26:53Z</time>
  <course>18.96</course>
  <speed>0.022360679774997897</speed>
  <fix>3d</fix>
</trkpt>
<trkpt lat="40.073802" lon="-105.2301186">
  <ele>1583.56</ele>
  <time>2026-08-27T18:26:53Z</time>
  <course>101.28</course>
  <speed>0.0</speed>
  <fix>3d</fix>
</trkpt>
<trkpt lat="40.0738022" lon="-105.2301187">
  <ele>1583.66</ele>
  <time>2026-08-27T18:26:53Z</time>
  <course>18.95</course>
  <speed>0.022360679774997897</speed>
  <fix>3d</fix>
</trkpt>
<trkpt lat="40.073802" lon="-105.2301186">
  <ele>1583.56</ele>
  <time>2026-08-27T18:26:53Z</time>
  <course>131.75</course>
  <speed>0.0</speed>
  <fix>3d</fix>
</trkpt>
<trkpt lat="40.0738022" lon="-105.2301187">
  <ele>1583.66</ele>
  <time>2026-08-27T18:26:53Z</time>
  <course>18.95</course>
  <speed>0.022360679774997897</speed>
  <fix>3d</fix>
</trkpt>
<trkpt lat="40.073802" lon="-105.2301186">
  <ele>1583.56</ele>
  <time>2026-08-27T18:26:53Z</time>
  <course>128.36</course>
  <speed>0.0</speed>
  <fix>3d</fix>
</trkpt>
<trkpt lat="40.0738022" lon="-105.2301187">
  <ele>1583.67</ele>
  <time>2026-08-27T18:26:53Z</time>
  <course>18.94</course>
  <speed>0.022360679774997897</speed>
  <fix>3d</fix>
</trkpt>
<trkpt lat="40.073802" lon="-105.2301186">
  <ele>1583.56</ele>
  <time>2026-08-27T18:26:53Z</time>
  <course>106.78</course>
  <speed>0.0</speed>
  <fix>3d</fix>
</trkpt>
<trkpt lat="40.0738022" lon="-105.2301187">
  <ele>1583.67</ele>
  <time>2026-08-27T18:26:53Z</time>
  <course>18.94</course>
  <speed>0.022360679774997897</speed>
  <fix>3d</fix>
</trkpt>
<trkpt lat="40.073802" lon="-105.2301186">
  <ele>1583.56</ele>
  <time>2026-08-27T18:26:53Z</time>
  <course>103.42</course>
  <speed>0.0</speed>
  <fix>3d</fix>
</trkpt>
<trkpt lat="40.0738022" lon="-105.2301187">
  <ele>1583.67</ele>
  <time>2026-08-27T18:26:53Z</time>
  <course>18.94</course>
  <speed>0.022360679774997897</speed>
  <fix>3d</fix>
</trkpt>
<trkpt lat="40.073802" lon="-105.2301186">
  <ele>1583.56</ele>
  <time>2026-08-27T18:26:53Z</time>
  <course>96.5</course>
  <speed>0.0</speed>
  <fix>3d</fix>
</trkpt>
<trkpt lat="40.0738022" lon="-105.2301187">
  <ele>1583.67</ele>
  <time>2026-08-27T18:26:53Z</time>
  <course>18.93</course>
  <speed>0.022360679774997897</speed>
  <fix>3d</fix>
</trkpt>
<trkpt lat="40.073802" lon="-105.2301186">
  <ele>1583.56</ele>
  <time>2026-08-27T18:26:53Z</time>
  <course>134.37</course>
  <speed>0.0</speed>
  <fix>3d</fix>
</trkpt>
<trkpt lat="40.0738022" lon="-105.2301187">
  <ele>1583.67</ele>
  <time>2026-08-27T18:26:53Z</time>
  <course>18.93</course>
  <speed>0.022360679774997897</speed>
  <fix>3d</fix>
</trkpt>
<trkpt lat="40.073802" lon="-105.2301186">
  <ele>1583.56</ele>
  <time>2026-08-27T18:26:53Z</time>
  <course>133.44</course>
  <speed>0.0</speed>
  <fix>3d</fix>
</trkpt>
<trkpt lat="40.0738022" lon="-105.2301187">
  <ele>1583.66</ele>
  <time>2026-08-27T18:26:53Z</time>
  <course>18.92</course>
  <speed>0.022360679774997897</speed>
  <fix>3d</fix>
</trkpt>
<trkpt lat="40.073802" lon="-105.2301186">
  <ele>1583.56</ele>
  <time>2026-08-27T18:26:53Z</time>
  <course>107.0</course>
  <speed>0.0</speed>
  <fix>3d</fix>
</trkpt>
<trkpt lat="40.0738022" lon="-105.2301187">
  <ele>1583.66</ele>
  <time>2026-08-27T18:26:53Z</time>
  <course>18.92</course>
  <speed>0.022360679774997897</speed>
  <fix>3d</fix>
</trkpt>
<trkpt lat="40.073802" lon="-105.2301186">
  <ele>1583.56</ele>
  <time>2026-08-27T18:26:53Z</time>
  <course>95.25</course>
  <speed>0.0</speed>
  <fix>3d</fix>
</trkpt>
<trkpt lat="40.0738022" lon="-105.2301187">
  <ele>1583.66</ele>
  <time>2026-08-27T18:26:53Z</time>
  <course>18.92</course>
  <speed>0.022360679774997897</speed>
  <fix>3d</fix>
</trkpt>
<trkpt lat="40.073802" lon="-105.2301186">
  <ele>1583.56</ele>
  <time>2026-08-27T18:26:53Z</time>
  <course>103.96</course>
  <speed>0.0</speed>
  <fix>3d</fix>
</trkpt>
<trkpt lat="40.0738022" lon="-105.2301187">
  <ele>1583.67</ele>
  <time>2026-08-27T18:26:53Z</time>
  <course>18.91</course>
  <speed>0.022360679774997897</speed>
  <fix>3d</fix>
</trkpt>
<trkpt lat="40.073802" lon="-105.2301186">
  <ele>1583.56</ele>
  <time>2026-08-27T18:26:53Z</time>
  <course>114.0</course>
  <speed>0.0</speed>
  <fix>3d</fix>
</trkpt>
<trkpt lat="40.0738022" lon="-105.2301187">
  <ele>1583.67</ele>
  <time>2026-08-27T18:26:53Z</time>
  <course>18.91</course>
  <speed>0.022360679774997897</speed>
  <fix>3d</fix>
</trkpt>
<trkpt lat="40.073802" lon="-105.2301186">
  <ele>1583.56</ele>
  <time>2026-08-27T18:26:53Z</time>
  <course>139.94</course>
  <speed>0.0</speed>
  <fix>3d</fix>
</trkpt>
<trkpt lat="40.0738022" lon="-105.2301187">
  <ele>1583.67</ele>
  <time>2026-08-27T18:26:53Z</time>
  <course>18.9</course>
  <speed>0.022360679774997897</speed>
  <fix>3d</fix>
</trkpt>
<trkpt lat="40.073802" lon="-105.2301186">
  <ele>1583.56</ele>
  <time>2026-08-27T18:26:53Z</time>
  <course>135.24</course>
  <speed>0.0</speed>
  <fix>3d</fix>
</trkpt>
<trkpt lat="40.0738022" lon="-105.2301187">
  <ele>1583.67</ele>
  <time>2026-08-27T18:26:53Z</time>
  <course>18.9</course>
  <speed>0.022360679774997897</speed>
  <fix>3d</fix>
</trkpt>
<trkpt lat="40.073802" lon="-105.2301186">
  <ele>1583.56</ele>
  <time>2026-08-27T18:26:53Z</time>
  <course>92.55</course>
  <speed>0.0</speed>
  <fix>3d</fix>
</trkpt>
<trkpt lat="40.0738022" lon="-105.2301187">
  <ele>1583.67</ele>
  <time>2026-08-27T18:26:53Z</time>
  <course>18.93</course>
  <speed>0.022360679774997897</speed>
  <fix>3d</fix>
</trkpt>
<trkpt lat="40.073802" lon="-105.2301186">
  <ele>1583.56</ele>
  <time>2026-08-27T18:26:53Z</time>
  <course>100.16</course>
  <speed>0.0</speed>
  <fix>3d</fix>
</trkpt>
<trkpt lat="40.0738022" lon="-105.2301187">
  <ele>1583.68</ele>
  <time>2026-08-27T18:26:53Z</time>
  <course>19.29</course>
  <speed>0.022360679774997897</speed>
  <fix>3d</fix>
</trkpt>
<trkpt lat="40.073802" lon="-105.2301186">
  <ele>1583.56</ele>
  <time>2026-08-27T18:26:53Z</time>
  <course>308.88</course>
  <speed>0.0</speed>
  <fix>3d</fix>
</trkpt>
<trkpt lat="40.0738022" lon="-105.2301187">
  <ele>1583.67</ele>
  <time>2026-08-27T18:26:53Z</time>
  <course>19.72</course>
  <speed>0.022360679774997897</speed>
  <fix>3d</fix>
</trkpt>
<trkpt lat="40.073802" lon="-105.2301187">
  <ele>1583.56</ele>
  <time>2026-08-27T18:26:53Z</time>
  <course>288.09</course>
  <speed>0.0</speed>
  <fix>3d</fix>
</trkpt>
<trkpt lat="40.0738022" lon="-105.2301187">
  <ele>1583.67</ele>
  <time>2026-08-27T18:26:53Z</time>
  <course>20.09</course>
  <speed>0.022360679774997897</speed>
  <fix>3d</fix>
</trkpt>
<trkpt lat="40.073802" lon="-105.2301188">
  <ele>1583.56</ele>
  <time>2026-08-27T18:26:53Z</time>
  <course>243.06</course>
  <speed>0.0</speed>
  <fix>3d</fix>
</trkpt>
<trkpt lat="40.0738022" lon="-105.2301187">
  <ele>1583.66</ele>
  <time>2026-08-27T18:26:53Z</time>
  <course>20.43</course>
  <speed>0.022360679774997897</speed>
  <fix>3d</fix>
</trkpt>
<trkpt lat="40.073802" lon="-105.2301188">
  <ele>1583.56</ele>
  <time>2026-08-27T18:26:53Z</time>
  <course>102.84</course>
  <speed>0.0</speed>
  <fix>3d</fix>
</trkpt>
<trkpt lat="40.0738022" lon="-105.2301187">
  <ele>1583.65</ele>
  <time>2026-08-27T18:26:53Z</time>
  <course>20.73</course>
  <speed>0.022360679774997897</speed>
  <fix>3d</fix>
</trkpt>
<trkpt lat="40.073802" lon="-105.2301188">
  <ele>1583.56</ele>
  <time>2026-08-27T18:26:53Z</time>
  <course>36.12</course>
  <speed>0.0</speed>
  <fix>3d</fix>
</trkpt>
<trkpt lat="40.0738022" lon="-105.2301187">
  <ele>1583.65</ele>
  <time>2026-08-27T18:26:53Z</time>
  <course>21.02</course>
  <speed>0.022360679774997897</speed>
  <fix>3d</fix>
</trkpt>
<trkpt lat="40.073802" lon="-105.2301188">
  <ele>1583.56</ele>
  <time>2026-08-27T18:26:53Z</time>
  <course>271.95</course>
  <speed>0.0</speed>
  <fix>3d</fix>
</trkpt>
<trkpt lat="40.0738022" lon="-105.2301187">
  <ele>1583.64</ele>
  <time>2026-08-27T18:26:53Z</time>
  <course>21.28</course>
  <speed>0.022360679774997897</speed>
  <fix>3d</fix>
</trkpt>
<trkpt lat="40.073802" lon="-105.2301188">
  <ele>1583.56</ele>
  <time>2026-08-27T18:26:53Z</time>
  <course>158.19</course>
  <speed>0.0</speed>
  <fix>3d</fix>
</trkpt>
<trkpt lat="40.0738022" lon="-105.2301188">
  <ele>1583.63</ele>
  <time>2026-08-27T18:26:53Z</time>
  <course>21.52</course>
  <speed>0.022360679774997897</speed>
  <fix>3d</fix>
</trkpt>
<trkpt lat="40.073802" lon="-105.2301188">
  <ele>1583.56</ele>
  <time>2026-08-27T18:26:53Z</time>
  <course>111.72</course>
  <speed>0.0</speed>
  <fix>3d</fix>
</trkpt>
<trkpt lat="40.0738022" lon="-105.2301188">
  <ele>1583.63</ele>
  <time>2026-08-27T18:26:54Z</time>
  <course>21.74</course>
  <speed>0.022360679774997897</speed>
  <fix>3d</fix>
</trkpt>
<trkpt lat="40.073802" lon="-105.2301188">
  <ele>1583.56</ele>
  <time>2026-08-27T18:26:54Z</time>
  <course>162.24</course>
  <speed>0.0</speed>
  <fix>3d</fix>
</trkpt>
<trkpt lat="40.0738022" lon="-105.2301188">
  <ele>1583.63</ele>
  <time>2026-08-27T18:26:54Z</time>
  <course>21.95</course>
  <speed>0.022360679774997897</speed>
  <fix>3d</fix>
</trkpt>
<trkpt lat="40.073802" lon="-105.2301188">
  <ele>1583.56</ele>
  <time>2026-08-27T18:26:54Z</time>
  <course>162.04</course>
  <speed>0.0</speed>
  <fix>3d</fix>
</trkpt>
<trkpt lat="40.0738022" lon="-105.2301188">
  <ele>1583.63</ele>
  <time>2026-08-27T18:26:54Z</time>
  <course>22.15</course>
  <speed>0.022360679774997897</speed>
  <fix>3d</fix>
</trkpt>
<trkpt lat="40.073802" lon="-105.2301188">
  <ele>1583.56</ele>
  <time>2026-08-27T18:26:54Z</time>
  <course>149.05</course>
  <speed>0.0</speed>
  <fix>3d</fix>
</trkpt>
<trkpt lat="40.0738022" lon="-105.2301188">
  <ele>1583.63</ele>
  <time>2026-08-27T18:26:54Z</time>
  <course>22.33</course>
  <speed>0.022360679774997897</speed>
  <fix>3d</fix>
</trkpt>
<trkpt lat="40.073802" lon="-105.2301188">
  <ele>1583.56</ele>
  <time>2026-08-27T18:26:54Z</time>
  <course>150.06</course>
  <speed>0.0</speed>
  <fix>3d</fix>
</trkpt>
<trkpt lat="40.0738022" lon="-105.2301188">
  <ele>1583.63</ele>
  <time>2026-08-27T18:26:54Z</time>
  <course>22.5</course>
  <speed>0.02</speed>
  <fix>3d</fix>
</trkpt>
<trkpt lat="40.073802" lon="-105.2301188">
  <ele>1583.56</ele>
  <time>2026-08-27T18:26:54Z</time>
  <course>151.61</course>
  <speed>0.0</speed>
  <fix>3d</fix>
</trkpt>
<trkpt lat="40.0738022" lon="-105.2301188">
  <ele>1583.63</ele>
  <time>2026-08-27T18:26:54Z</time>
  <course>22.66</course>
  <speed>0.02</speed>
  <fix>3d</fix>
</trkpt>
<trkpt lat="40.073802" lon="-105.2301188">
  <ele>1583.56</ele>
  <time>2026-08-27T18:26:54Z</time>
  <course>151.27</course>
  <speed>0.0</speed>
  <fix>3d</fix>
</trkpt>
<trkpt lat="40.0738022" lon="-105.2301188">
  <ele>1583.64</ele>
  <time>2026-08-27T18:26:54Z</time>
  <course>22.81</course>
  <speed>0.02</speed>
  <fix>3d</fix>
</trkpt>
<trkpt lat="40.073802" lon="-105.2301188">
  <ele>1583.56</ele>
  <time>2026-08-27T18:26:54Z</time>
  <course>151.1</course>
  <speed>0.0</speed>
  <fix>3d</fix>
</trkpt>
<trkpt lat="40.0738022" lon="-105.2301188">
  <ele>1583.64</ele>
  <time>2026-08-27T18:26:54Z</time>
  <course>22.95</course>
  <speed>0.02</speed>
  <fix>3d</fix>
</trkpt>
<trkpt lat="40.073802" lon="-105.2301188">
  <ele>1583.56</ele>
  <time>2026-08-27T18:26:54Z</time>
  <course>151.17</course>
  <speed>0.0</speed>
  <fix>3d</fix>
</trkpt>
<trkpt lat="40.0738022" lon="-105.2301188">
  <ele>1583.64</ele>
  <time>2026-08-27T18:26:54Z</time>
  <course>23.08</course>
  <speed>0.02</speed>
  <fix>3d</fix>
</trkpt>
<trkpt lat="40.073802" lon="-105.2301188">
  <ele>1583.56</ele>
  <time>2026-08-27T18:26:54Z</time>
  <course>151.18</course>
  <speed>0.0</speed>
  <fix>3d</fix>
</trkpt>
<trkpt lat="40.0738022" lon="-105.2301188">
  <ele>1583.64</ele>
  <time>2026-08-27T18:26:54Z</time>
  <course>23.2</course>
  <speed>0.02</speed>
  <fix>3d</fix>
</trkpt>
<trkpt lat="40.073802" lon="-105.2301188">
  <ele>1583.56</ele>
  <time>2026-08-27T18:26:54Z</time>
  <course>151.17</course>
  <speed>0.0</speed>
  <fix>3d</fix>
</trkpt>
<trkpt lat="40.0738022" lon="-105.2301188">
  <ele>1583.63</ele>
  <time>2026-08-27T18:26:54Z</time>
  <course>23.32</course>
  <speed>0.02</speed>
  <fix>3d</fix>
</trkpt>
<trkpt lat="40.073802" lon="-105.2301188">
  <ele>1583.56</ele>
  <time>2026-08-27T18:26:54Z</time>
  <course>151.17</course>
  <speed>0.0</speed>
  <fix>3d</fix>
</trkpt>
<trkpt lat="40.0738022" lon="-105.2301188">
  <ele>1583.63</ele>
  <time>2026-08-27T18:26:54Z</time>
  <course>23.44</course>
  <speed>0.02</speed>
  <fix>3d</fix>
</trkpt>
<trkpt lat="40.073802" lon="-105.2301188">
  <ele>1583.56</ele>
  <time>2026-08-27T18:26:54Z</time>
  <course>151.17</course>
  <speed>0.0</speed>
  <fix>3d</fix>
</trkpt>
<trkpt lat="40.0738022" lon="-105.2301188">
  <ele>1583.63</ele>
  <time>2026-08-27T18:26:54Z</time>
  <course>23.54</course>
  <speed>0.02</speed>
  <fix>3d</fix>
</trkpt>
<trkpt lat="40.073802" lon="-105.2301188">
  <ele>1583.56</ele>
  <time>2026-08-27T18:26:54Z</time>
  <course>151.17</course>
  <speed>0.0</speed>
  <fix>3d</fix>
</trkpt>
<trkpt lat="40.0738022" lon="-105.2301188">
  <ele>1583.63</ele>
  <time>2026-08-27T18:26:54Z</time>
  <course>23.65</course>
  <speed>0.02</speed>
  <fix>3d</fix>
</trkpt>
<trkpt lat="40.073802" lon="-105.2301188">
  <ele>1583.56</ele>
  <time>2026-08-27T18:26:54Z</time>
  <course>151.17</course>
  <speed>0.0</speed>
  <fix>3d</fix>
</trkpt>
<trkpt lat="40.0738022" lon="-105.2301188">
  <ele>1583.63</ele>
  <time>2026-08-27T18:26:54Z</time>
  <course>23.74</course>
  <speed>0.01</speed>
  <fix>3d</fix>
</trkpt>
<trkpt lat="40.073802" lon="-105.2301188">
  <ele>1583.56</ele>
  <time>2026-08-27T18:26:54Z</time>
  <course>151.17</course>
  <speed>0.0</speed>
  <fix>3d</fix>
</trkpt>
<trkpt lat="40.0738022" lon="-105.2301188">
  <ele>1583.62</ele>
  <time>2026-08-27T18:26:54Z</time>
  <course>23.84</course>
  <speed>0.01</speed>
  <fix>3d</fix>
</trkpt>
<trkpt lat="40.073802" lon="-105.2301188">
  <ele>1583.56</ele>
  <time>2026-08-27T18:26:54Z</time>
  <course>151.17</course>
  <speed>0.0</speed>
  <fix>3d</fix>
</trkpt>
<trkpt lat="40.0738022" lon="-105.2301188">
  <ele>1583.62</ele>
  <time>2026-08-27T18:26:54Z</time>
  <course>23.93</course>
  <speed>0.01</speed>
  <fix>3d</fix>
</trkpt>
<trkpt lat="40.073802" lon="-105.2301188">
  <ele>1583.56</ele>
  <time>2026-08-27T18:26:54Z</time>
  <course>151.17</course>
  <speed>0.0</speed>
  <fix>3d</fix>
</trkpt>
<trkpt lat="40.0738022" lon="-105.2301188">
  <ele>1583.62</ele>
  <time>2026-08-27T18:26:54Z</time>
  <course>24.01</course>
  <speed>0.01</speed>
  <fix>3d</fix>
</trkpt>
<trkpt lat="40.073802" lon="-105.2301188">
  <ele>1583.56</ele>
  <time>2026-08-27T18:26:54Z</time>
  <course>166.34</course>
  <speed>0.0</speed>
  <fix>3d</fix>
</trkpt>
<trkpt lat="40.0738022" lon="-105.2301188">
  <ele>1583.62</ele>
  <time>2026-08-27T18:26:54Z</time>
  <course>24.09</course>
  <speed>0.02</speed>
  <fix>3d</fix>
</trkpt>
<trkpt lat="40.073802" lon="-105.2301188">
  <ele>1583.56</ele>
  <time>2026-08-27T18:26:54Z</time>
  <course>160.32</course>
  <speed>0.0</speed>
  <fix>3d</fix>
</trkpt>
<trkpt lat="40.0738022" lon="-105.2301188">
  <ele>1583.62</ele>
  <time>2026-08-27T18:26:54Z</time>
  <course>24.17</course>
  <speed>0.01</speed>
  <fix>3d</fix>
</trkpt>
<trkpt lat="40.073802" lon="-105.2301188">
  <ele>1583.56</ele>
  <time>2026-08-27T18:26:54Z</time>
  <course>145.67</course>
  <speed>0.0</speed>
  <fix>3d</fix>
</trkpt>
<trkpt lat="40.0738022" lon="-105.2301188">
  <ele>1583.62</ele>
  <time>2026-08-27T18:26:54Z</time>
  <course>24.24</course>
  <speed>0.01</speed>
  <fix>3d</fix>
</trkpt>
<trkpt lat="40.073802" lon="-105.2301188">
  <ele>1583.56</ele>
  <time>2026-08-27T18:26:54Z</time>
  <course>150.66</course>
  <speed>0.0</speed>
  <fix>3d</fix>
</trkpt>
<trkpt lat="40.0738022" lon="-105.2301188">
  <ele>1583.61</ele>
  <time>2026-08-27T18:26:54Z</time>
  <course>24.32</course>
  <speed>0.01</speed>
  <fix>3d</fix>
</trkpt>
<trkpt lat="40.073802" lon="-105.2301188">
  <ele>1583.56</ele>
  <time>2026-08-27T18:26:54Z</time>
  <course>152.06</course>
  <speed>0.0</speed>
  <fix>3d</fix>
</trkpt>
<trkpt lat="40.0738022" lon="-105.2301188">
  <ele>1583.61</ele>
  <time>2026-08-27T18:26:54Z</time>
  <course>24.38</course>
  <speed>0.01</speed>
  <fix>3d</fix>
</trkpt>
<trkpt lat="40.073802" lon="-105.2301188">
  <ele>1583.56</ele>
  <time>2026-08-27T18:26:54Z</time>
  <course>151.13</course>
  <speed>0.0</speed>
  <fix>3d</fix>
</trkpt>
<trkpt lat="40.0738022" lon="-105.2301188">
  <ele>1583.61</ele>
  <time>2026-08-27T18:26:54Z</time>
  <course>24.45</course>
  <speed>0.01</speed>
  <fix>3d</fix>
</trkpt>
<trkpt lat="40.073802" lon="-105.2301188">
  <ele>1583.56</ele>
  <time>2026-08-27T18:26:54Z</time>
  <course>151.06</course>
  <speed>0.0</speed>
  <fix>3d</fix>
</trkpt>
<trkpt lat="40.0738022" lon="-105.2301188">
  <ele>1583.61</ele>
  <time>2026-08-27T18:26:54Z</time>
  <course>24.51</course>
  <speed>0.01</speed>
  <fix>3d</fix>
</trkpt>
<trkpt lat="40.073802" lon="-105.2301188">
  <ele>1583.56</ele>
  <time>2026-08-27T18:26:54Z</time>
  <course>151.19</course>
  <speed>0.0</speed>
  <fix>3d</fix>
</trkpt>
<trkpt lat="40.0738022" lon="-105.2301188">
  <ele>1583.61</ele>
  <time>2026-08-27T18:26:54Z</time>
  <course>24.57</course>
  <speed>0.01</speed>
  <fix>3d</fix>
</trkpt>
<trkpt lat="40.073802" lon="-105.2301188">
  <ele>1583.56</ele>
  <time>2026-08-27T18:26:54Z</time>
  <course>151.19</course>
  <speed>0.0</speed>
  <fix>3d</fix>
</trkpt>
<trkpt lat="40.0738022" lon="-105.2301188">
  <ele>1583.61</ele>
  <time>2026-08-27T18:26:54Z</time>
  <course>24.63</course>
  <speed>0.01</speed>
  <fix>3d</fix>
</trkpt>
<trkpt lat="40.073802" lon="-105.2301188">
  <ele>1583.56</ele>
  <time>2026-08-27T18:26:54Z</time>
  <course>151.17</course>
  <speed>0.0</speed>
  <fix>3d</fix>
</trkpt>
<trkpt lat="40.0738022" lon="-105.2301188">
  <ele>1583.61</ele>
  <time>2026-08-27T18:26:54Z</time>
  <course>24.69</course>
  <speed>0.01</speed>
  <fix>3d</fix>
</trkpt>
<trkpt lat="40.073802" lon="-105.2301188">
  <ele>1583.56</ele>
  <time>2026-08-27T18:26:54Z</time>
  <course>151.17</course>
  <speed>0.0</speed>
  <fix>3d</fix>
</trkpt>
<trkpt lat="40.0738022" lon="-105.2301188">
  <ele>1583.61</ele>
  <time>2026-08-27T18:26:54Z</time>
  <course>24.74</course>
  <speed>0.01</speed>
  <fix>3d</fix>
</trkpt>
<trkpt lat="40.073802" lon="-105.2301188">
  <ele>1583.56</ele>
  <time>2026-08-27T18:26:54Z</time>
  <course>151.17</course>
  <speed>0.0</speed>
  <fix>3d</fix>
</trkpt>
<trkpt lat="40.0738022" lon="-105.2301188">
  <ele>1583.61</ele>
  <time>2026-08-27T18:26:54Z</time>
  <course>24.79</course>
  <speed>0.01</speed>
  <fix>3d</fix>
</trkpt>
<trkpt lat="40.073802" lon="-105.2301188">
  <ele>1583.56</ele>
  <time>2026-08-27T18:26:54Z</time>
  <course>151.17</course>
  <speed>0.0</speed>
  <fix>3d</fix>
</trkpt>
<trkpt lat="40.0738022" lon="-105.2301188">
  <ele>1583.61</ele>
  <time>2026-08-27T18:26:54Z</time>
  <course>24.84</course>
  <speed>0.01</speed>
  <fix>3d</fix>
</trkpt>
<trkpt lat="40.073802" lon="-105.2301188">
  <ele>1583.56</ele>
  <time>2026-08-27T18:26:54Z</time>
  <course>151.17</course>
  <speed>0.0</speed>
  <fix>3d</fix>
</trkpt>
<trkpt lat="40.0738022" lon="-105.2301188">
  <ele>1583.61</ele>
  <time>2026-08-27T18:26:54Z</time>
  <course>24.89</course>
  <speed>0.01</speed>
  <fix>3d</fix>
</trkpt>
<trkpt lat="40.073802" lon="-105.2301188">
  <ele>1583.56</ele>
  <time>2026-08-27T18:26:54Z</time>
  <course>151.17</course>
  <speed>0.0</speed>
  <fix>3d</fix>
</trkpt>
<trkpt lat="40.0738022" lon="-105.2301188">
  <ele>1583.6</ele>
  <time>2026-08-27T18:26:54Z</time>
  <course>24.94</course>
  <speed>0.01</speed>
  <fix>3d</fix>
</trkpt>
<trkpt lat="40.073802" lon="-105.2301188">
  <ele>1583.56</ele>
  <time>2026-08-27T18:26:54Z</time>
  <course>151.17</course>
  <speed>0.0</speed>
  <fix>3d</fix>
</trkpt>
<trkpt lat="40.0738022" lon="-105.2301188">
  <ele>1583.6</ele>
  <time>2026-08-27T18:26:54Z</time>
  <course>24.98</course>
  <speed>0.01</speed>
  <fix>3d</fix>
</trkpt>
<trkpt lat="40.073802" lon="-105.2301188">
  <ele>1583.56</ele>
  <time>2026-08-27T18:26:54Z</time>
  <course>151.17</course>
  <speed>0.0</speed>
  <fix>3d</fix>
</trkpt>
<trkpt lat="40.0738022" lon="-105.2301188">
  <ele>1583.6</ele>
  <time>2026-08-27T18:26:54Z</time>
  <course>25.02</course>
  <speed>0.01</speed>
  <fix>3d</fix>
</trkpt>
<trkpt lat="40.073802" lon="-105.2301188">
  <ele>1583.56</ele>
  <time>2026-08-27T18:26:54Z</time>
  <course>151.17</course>
  <speed>0.0</speed>
  <fix>3d</fix>
</trkpt>
<trkpt lat="40.0738022" lon="-105.2301188">
  <ele>1583.6</ele>
  <time>2026-08-27T18:26:54Z</time>
  <course>25.07</course>
  <speed>0.01</speed>
  <fix>3d</fix>
</trkpt>
<trkpt lat="40.073802" lon="-105.2301188">
  <ele>1583.56</ele>
  <time>2026-08-27T18:26:54Z</time>
  <course>151.17</course>
  <speed>0.0</speed>
  <fix>3d</fix>
</trkpt>
<trkpt lat="40.0738022" lon="-105.2301188">
  <ele>1583.6</ele>
  <time>2026-08-27T18:26:54Z</time>
  <course>25.11</course>
  <speed>0.01</speed>
  <fix>3d</fix>
</trkpt>
<trkpt lat="40.073802" lon="-105.2301188">
  <ele>1583.56</ele>
  <time>2026-08-27T18:26:54Z</time>
  <course>151.17</course>
  <speed>0.0</speed>
  <fix>3d</fix>
</trkpt>
<trkpt lat="40.0738022" lon="-105.2301188">
  <ele>1583.6</ele>
  <time>2026-08-27T18:26:54Z</time>
  <course>25.15</course>
  <speed>0.01</speed>
  <fix>3d</fix>
</trkpt>
<trkpt lat="40.073802" lon="-105.2301188">
  <ele>1583.56</ele>
  <time>2026-08-27T18:26:54Z</time>
  <course>151.17</course>
  <speed>0.0</speed>
  <fix>3d</fix>
</trkpt>
<trkpt lat="40.0738022" lon="-105.2301188">
  <ele>1583.6</ele>
  <time>2026-08-27T18:26:54Z</time>
  <course>25.18</course>
  <speed>0.01</speed>
  <fix>3d</fix>
</trkpt>
<trkpt lat="40.073802" lon="-105.2301188">
  <ele>1583.56</ele>
  <time>2026-08-27T18:26:54Z</time>
  <course>151.17</course>
  <speed>0.0</speed>
  <fix>3d</fix>
</trkpt>
<trkpt lat="40.0738022" lon="-105.2301188">
  <ele>1583.6</ele>
  <time>2026-08-27T18:26:54Z</time>
  <course>25.22</course>
  <speed>0.01</speed>
  <fix>3d</fix>
</trkpt>
<trkpt lat="40.073802" lon="-105.2301188">
  <ele>1583.56</ele>
  <time>2026-08-27T18:26:54Z</time>
  <course>151.17</course>
  <speed>0.0</speed>
  <fix>3d</fix>
</trkpt>
<trkpt lat="40.0738022" lon="-105.2301188">
  <ele>1583.6</ele>
  <time>2026-08-27T18:26:54Z</time>
  <course>25.26</course>
  <speed>0.01</speed>
  <fix>3d</fix>
</trkpt>
<trkpt lat="40.073802" lon="-105.2301188">
  <ele>1583.56</ele>
  <time>2026-08-27T18:26:54Z</time>
  <course>151.17</course>
  <speed>0.0</speed>
  <fix>3d</fix>
</trkpt>
<trkpt lat="40.0738022" lon="-105.2301188">
  <ele>1583.6</ele>
  <time>2026-08-27T18:26:54Z</time>
  <course>25.29</course>
  <speed>0.01</speed>
  <fix>3d</fix>
</trkpt>
<trkpt lat="40.073802" lon="-105.2301188">
  <ele>1583.56</ele>
  <time>2026-08-27T18:26:54Z</time>
  <course>151.17</course>
  <speed>0.0</speed>
  <fix>3d</fix>
</trkpt>
<trkpt lat="40.0738022" lon="-105.2301188">
  <ele>1583.6</ele>
  <time>2026-08-27T18:26:54Z</time>
  <course>25.33</course>
  <speed>0.01</speed>
  <fix>3d</fix>
</trkpt>
<trkpt lat="40.073802" lon="-105.2301188">
  <ele>1583.56</ele>
  <time>2026-08-27T18:26:54Z</time>
  <course>151.17</course>
  <speed>0.0</speed>
  <fix>3d</fix>
</trkpt>
<trkpt lat="40.0738022" lon="-105.2301188">
  <ele>1583.6</ele>
  <time>2026-08-27T18:26:54Z</time>
  <course>25.36</course>
  <speed>0.01</speed>
  <fix>3d</fix>
</trkpt>
<trkpt lat="40.073802" lon="-105.2301188">
  <ele>1583.56</ele>
  <time>2026-08-27T18:26:54Z</time>
  <course>151.17</course>
  <speed>0.0</speed>
  <fix>3d</fix>
</trkpt>
<trkpt lat="40.0738022" lon="-105.2301188">
  <ele>1583.6</ele>
  <time>2026-08-27T18:26:54Z</time>
  <course>25.39</course>
  <speed>0.01</speed>
  <fix>3d</fix>
</trkpt>
<trkpt lat="40.073802" lon="-105.2301188">
  <ele>1583.56</ele>
  <time>2026-08-27T18:26:54Z</time>
  <course>150.86</course>
  <speed>0.0</speed>
  <fix>3d</fix>
</trkpt>
<trkpt lat="40.0738022" lon="-105.2301188">
  <ele>1583.6</ele>
  <time>2026-08-27T18:26:54Z</time>
  <course>25.41</course>
  <speed>0.01</speed>
  <fix>3d</fix>
</trkpt>
<trkpt lat="40.073802" lon="-105.2301188">
  <ele>1583.56</ele>
  <time>2026-08-27T18:26:54Z</time>
  <course>148.91</course>
  <speed>0.0</speed>
  <fix>3d</fix>
</trkpt>
<trkpt lat="40.0738022" lon="-105.2301188">
  <ele>1583.61</ele>
  <time>2026-08-27T18:26:54Z</time>
  <course>25.44</course>
  <speed>0.02</speed>
  <fix>3d</fix>
</trkpt>
<trkpt lat="40.073802" lon="-105.2301188">
  <ele>1583.56</ele>
  <time>2026-08-27T18:26:54Z</time>
  <course>143.61</course>
  <speed>0.0</speed>
  <fix>3d</fix>
</trkpt>
<trkpt lat="40.0738022" lon="-105.2301188">
  <ele>1583.61</ele>
  <time>2026-08-27T18:26:54Z</time>
  <course>25.46</course>
  <speed>0.02</speed>
  <fix>3d</fix>
</trkpt>
<trkpt lat="40.073802" lon="-105.2301188">
  <ele>1583.56</ele>
  <time>2026-08-27T18:26:54Z</time>
  <course>135.95</course>
  <speed>0.0</speed>
  <fix>3d</fix>
</trkpt>
<trkpt lat="40.0738022" lon="-105.2301188">
  <ele>1583.61</ele>
  <time>2026-08-27T18:26:54Z</time>
  <course>25.48</course>
  <speed>0.02</speed>
  <fix>3d</fix>
</trkpt>
<trkpt lat="40.073802" lon="-105.2301188">
  <ele>1583.56</ele>
  <time>2026-08-27T18:26:54Z</time>
  <course>128.44</course>
  <speed>0.0</speed>
  <fix>3d</fix>
</trkpt>
<trkpt lat="40.0738022" lon="-105.2301188">
  <ele>1583.61</ele>
  <time>2026-08-27T18:26:54Z</time>
  <course>25.5</course>
  <speed>0.02</speed>
  <fix>3d</fix>
</trkpt>
<trkpt lat="40.073802" lon="-105.2301188">
  <ele>1583.56</ele>
  <time>2026-08-27T18:26:54Z</time>
  <course>122.62</course>
  <speed>0.0</speed>
  <fix>3d</fix>
</trkpt>
<trkpt lat="40.0738022" lon="-105.2301188">
  <ele>1583.61</ele>
  <time>2026-08-27T18:26:54Z</time>
  <course>25.51</course>
  <speed>0.02</speed>
  <fix>3d</fix>
</trkpt>
<trkpt lat="40.073802" lon="-105.2301188">
  <ele>1583.56</ele>
  <time>2026-08-27T18:26:54Z</time>
  <course>117.8</course>
  <speed>0.0</speed>
  <fix>3d</fix>
</trkpt>
<trkpt lat="40.0738022" lon="-105.2301188">
  <ele>1583.61</ele>
  <time>2026-08-27T18:26:54Z</time>
  <course>25.53</course>
  <speed>0.02</speed>
  <fix>3d</fix>
</trkpt>
<trkpt lat="40.073802" lon="-105.2301188">
  <ele>1583.56</ele>
  <time>2026-08-27T18:26:54Z</time>
  <course>114.88</course>
  <speed>0.0</speed>
  <fix>3d</fix>
</trkpt>
<trkpt lat="40.0738022" lon="-105.2301188">
  <ele>1583.62</ele>
  <time>2026-08-27T18:26:54Z</time>
  <course>25.54</course>
  <speed>0.022360679774997897</speed>
  <fix>3d</fix>
</trkpt>
<trkpt lat="40.073802" lon="-105.2301188">
  <ele>1583.56</ele>
  <time>2026-08-27T18:26:54Z</time>
  <course>113.59</course>
  <speed>0.0</speed>
  <fix>3d</fix>
</trkpt>
<trkpt lat="40.0738022" lon="-105.2301188">
  <ele>1583.62</ele>
  <time>2026-08-27T18:26:54Z</time>
  <course>25.54</course>
  <speed>0.022360679774997897</speed>
  <fix>3d</fix>
</trkpt>
<trkpt lat="40.073802" lon="-105.2301188">
  <ele>1583.56</ele>
  <time>2026-08-27T18:26:54Z</time>
  <course>112.74</course>
  <speed>0.0</speed>
  <fix>3d</fix>
</trkpt>
<trkpt lat="40.0738022" lon="-105.2301188">
  <ele>1583.62</ele>
  <time>2026-08-27T18:26:54Z</time>
  <course>25.55</course>
  <speed>0.022360679774997897</speed>
  <fix>3d</fix>
</trkpt>
<trkpt lat="40.073802" lon="-105.2301188">
  <ele>1583.56</ele>
  <time>2026-08-27T18:26:54Z</time>
  <course>112.0</course>
  <speed>0.0</speed>
  <fix>3d</fix>
</trkpt>
<trkpt lat="40.0738022" lon="-105.2301188">
  <ele>1583.61</ele>
  <time>2026-08-27T18:26:54Z</time>
  <course>25.55</course>
  <speed>0.022360679774997897</speed>
  <fix>3d</fix>
</trkpt>
<trkpt lat="40.073802" lon="-105.2301187">
  <ele>1583.56</ele>
  <time>2026-08-27T18:26:54Z</time>
  <course>111.49</course>
  <speed>0.0</speed>
  <fix>3d</fix>
</trkpt>
<trkpt lat="40.0738022" lon="-105.2301188">
  <ele>1583.61</ele>
  <time>2026-08-27T18:26:54Z</time>
  <course>25.55</course>
  <speed>0.02</speed>
  <fix>3d</fix>
</trkpt>
<trkpt lat="40.073802" lon="-105.2301186">
  <ele>1583.56</ele>
  <time>2026-08-27T18:26:54Z</time>
  <course>111.14</course>
  <speed>0.0</speed>
  <fix>3d</fix>
</trkpt>
<trkpt lat="40.0738022" lon="-105.2301188">
  <ele>1583.61</ele>
  <time>2026-08-27T18:26:54Z</time>
  <course>25.55</course>
  <speed>0.02</speed>
  <fix>3d</fix>
</trkpt>
<trkpt lat="40.073802" lon="-105.2301186">
  <ele>1583.56</ele>
  <time>2026-08-27T18:26:54Z</time>
  <course>110.88</course>
  <speed>0.0</speed>
  <fix>3d</fix>
</trkpt>
<trkpt lat="40.0738022" lon="-105.2301188">
  <ele>1583.61</ele>
  <time>2026-08-27T18:26:54Z</time>
  <course>25.54</course>
  <speed>0.02</speed>
  <fix>3d</fix>
</trkpt>
<trkpt lat="40.073802" lon="-105.2301186">
  <ele>1583.56</ele>
  <time>2026-08-27T18:26:54Z</time>
  <course>110.69</course>
  <speed>0.0</speed>
  <fix>3d</fix>
</trkpt>
<trkpt lat="40.0738022" lon="-105.2301188">
  <ele>1583.61</ele>
  <time>2026-08-27T18:26:54Z</time>
  <course>25.54</course>
  <speed>0.02</speed>
  <fix>3d</fix>
</trkpt>
<trkpt lat="40.073802" lon="-105.2301186">
  <ele>1583.56</ele>
  <time>2026-08-27T18:26:54Z</time>
  <course>110.55</course>
  <speed>0.0</speed>
  <fix>3d</fix>
</trkpt>
<trkpt lat="40.0738022" lon="-105.2301188">
  <ele>1583.61</ele>
  <time>2026-08-27T18:26:54Z</time>
  <course>25.52</course>
  <speed>0.02</speed>
  <fix>3d</fix>
</trkpt>
<trkpt lat="40.073802" lon="-105.2301186">
  <ele>1583.56</ele>
  <time>2026-08-27T18:26:54Z</time>
  <course>110.43</course>
  <speed>0.0</speed>
  <fix>3d</fix>
</trkpt>
<trkpt lat="40.0738022" lon="-105.2301188">
  <ele>1583.61</ele>
  <time>2026-08-27T18:26:54Z</time>
  <course>25.51</course>
  <speed>0.02</speed>
  <fix>3d</fix>
</trkpt>
<trkpt lat="40.073802" lon="-105.2301186">
  <ele>1583.56</ele>
  <time>2026-08-27T18:26:54Z</time>
  <course>110.34</course>
  <speed>0.0</speed>
  <fix>3d</fix>
</trkpt>
<trkpt lat="40.0738022" lon="-105.2301188">
  <ele>1583.61</ele>
  <time>2026-08-27T18:26:54Z</time>
  <course>25.5</course>
  <speed>0.02</speed>
  <fix>3d</fix>
</trkpt>
<trkpt lat="40.073802" lon="-105.2301186">
  <ele>1583.56</ele>
  <time>2026-08-27T18:26:54Z</time>
  <course>111.79</course>
  <speed>0.0</speed>
  <fix>3d</fix>
</trkpt>
<trkpt lat="40.0738022" lon="-105.2301188">
  <ele>1583.61</ele>
  <time>2026-08-27T18:26:54Z</time>
  <course>25.48</course>
  <speed>0.02</speed>
  <fix>3d</fix>
</trkpt>
<trkpt lat="40.073802" lon="-105.2301186">
  <ele>1583.56</ele>
  <time>2026-08-27T18:26:54Z</time>
  <course>114.89</course>
  <speed>0.0</speed>
  <fix>3d</fix>
</trkpt>
<trkpt lat="40.0738022" lon="-105.2301188">
  <ele>1583.61</ele>
  <time>2026-08-27T18:26:54Z</time>
  <course>25.46</course>
  <speed>0.02</speed>
  <fix>3d</fix>
</trkpt>
<trkpt lat="40.073802" lon="-105.2301186">
  <ele>1583.56</ele>
  <time>2026-08-27T18:26:54Z</time>
  <course>110.78</course>
  <speed>0.0</speed>
  <fix>3d</fix>
</trkpt>
<trkpt lat="40.0738022" lon="-105.2301188">
  <ele>1583.61</ele>
  <time>2026-08-27T18:26:54Z</time>
  <course>25.44</course>
  <speed>0.02</speed>
  <fix>3d</fix>
</trkpt>
<trkpt lat="40.073802" lon="-105.2301186">
  <ele>1583.56</ele>
  <time>2026-08-27T18:26:54Z</time>
  <course>110.1</course>
  <speed>0.0</speed>
  <fix>3d</fix>
</trkpt>
<trkpt lat="40.0738022" lon="-105.2301188">
  <ele>1583.61</ele>
  <time>2026-08-27T18:26:54Z</time>
  <course>25.42</course>
  <speed>0.02</speed>
  <fix>3d</fix>
</trkpt>
<trkpt lat="40.073802" lon="-105.2301186">
  <ele>1583.56</ele>
  <time>2026-08-27T18:26:54Z</time>
  <course>110.2</course>
  <speed>0.0</speed>
  <fix>3d</fix>
</trkpt>
<trkpt lat="40.0738022" lon="-105.2301188">
  <ele>1583.61</ele>
  <time>2026-08-27T18:26:54Z</time>
  <course>25.39</course>
  <speed>0.02</speed>
  <fix>3d</fix>
</trkpt>
<trkpt lat="40.073802" lon="-105.2301186">
  <ele>1583.56</ele>
  <time>2026-08-27T18:26:54Z</time>
  <course>112.0</course>
  <speed>0.0</speed>
  <fix>3d</fix>
</trkpt>
<trkpt lat="40.0738022" lon="-105.2301188">
  <ele>1583.61</ele>
  <time>2026-08-27T18:26:54Z</time>
  <course>25.36</course>
  <speed>0.02</speed>
  <fix>3d</fix>
</trkpt>
<trkpt lat="40.073802" lon="-105.2301186">
  <ele>1583.56</ele>
  <time>2026-08-27T18:26:54Z</time>
  <course>235.9</course>
  <speed>0.0</speed>
  <fix>3d</fix>
</trkpt>
<trkpt lat="40.0738022" lon="-105.2301188">
  <ele>1583.61</ele>
  <time>2026-08-27T18:26:54Z</time>
  <course>25.33</course>
  <speed>0.02</speed>
  <fix>3d</fix>
</trkpt>
<trkpt lat="40.073802" lon="-105.2301186">
  <ele>1583.56</ele>
  <time>2026-08-27T18:26:54Z</time>
  <course>112.05</course>
  <speed>0.0</speed>
  <fix>3d</fix>
</trkpt>
<trkpt lat="40.0738022" lon="-105.2301188">
  <ele>1583.61</ele>
  <time>2026-08-27T18:26:54Z</time>
  <course>25.3</course>
  <speed>0.02</speed>
  <fix>3d</fix>
</trkpt>
<trkpt lat="40.073802" lon="-105.2301186">
  <ele>1583.56</ele>
  <time>2026-08-27T18:26:54Z</time>
  <course>109.85</course>
  <speed>0.0</speed>
  <fix>3d</fix>
</trkpt>
<trkpt lat="40.0738022" lon="-105.2301188">
  <ele>1583.61</ele>
  <time>2026-08-27T18:26:54Z</time>
  <course>25.27</course>
  <speed>0.02</speed>
  <fix>3d</fix>
</trkpt>
<trkpt lat="40.073802" lon="-105.2301186">
  <ele>1583.56</ele>
  <time>2026-08-27T18:26:54Z</time>
  <course>262.68</course>
  <speed>0.0</speed>
  <fix>3d</fix>
</trkpt>
<trkpt lat="40.0738022" lon="-105.2301187">
  <ele>1583.61</ele>
  <time>2026-08-27T18:26:54Z</time>
  <course>25.23</course>
  <speed>0.02</speed>
  <fix>3d</fix>
</trkpt>
<trkpt lat="40.073802" lon="-105.2301186">
  <ele>1583.56</ele>
  <time>2026-08-27T18:26:54Z</time>
  <course>277.37</course>
  <speed>0.0</speed>
  <fix>3d</fix>
</trkpt>
<trkpt lat="40.0738022" lon="-105.2301187">
  <ele>1583.61</ele>
  <time>2026-08-27T18:26:54Z</time>
  <course>25.19</course>
  <speed>0.02</speed>
  <fix>3d</fix>
</trkpt>
<trkpt lat="40.073802" lon="-105.2301186">
  <ele>1583.56</ele>
  <time>2026-08-27T18:26:54Z</time>
  <course>111.69</course>
  <speed>0.0</speed>
  <fix>3d</fix>
</trkpt>
<trkpt lat="40.0738022" lon="-105.2301187">
  <ele>1583.61</ele>
  <time>2026-08-27T18:26:54Z</time>
  <course>25.15</course>
  <speed>0.02</speed>
  <fix>3d</fix>
</trkpt>
<trkpt lat="40.073802" lon="-105.2301186">
  <ele>1583.56</ele>
  <time>2026-08-27T18:26:54Z</time>
  <course>282.33</course>
  <speed>0.0</speed>
  <fix>3d</fix>
</trkpt>
<trkpt lat="40.0738022" lon="-105.2301187">
  <ele>1583.61</ele>
  <time>2026-08-27T18:26:54Z</time>
  <course>25.11</course>
  <speed>0.02</speed>
  <fix>3d</fix>
</trkpt>
<trkpt lat="40.073802" lon="-105.2301186">
  <ele>1583.56</ele>
  <time>2026-08-27T18:26:54Z</time>
  <course>206.57</course>
  <speed>0.0</speed>
  <fix>3d</fix>
</trkpt>
<trkpt lat="40.0738022" lon="-105.2301187">
  <ele>1583.61</ele>
  <time>2026-08-27T18:26:54Z</time>
  <course>25.07</course>
  <speed>0.02</speed>
  <fix>3d</fix>
</trkpt>
<trkpt lat="40.073802" lon="-105.2301186">
  <ele>1583.56</ele>
  <time>2026-08-27T18:26:54Z</time>
  <course>283.16</course>
  <speed>0.0</speed>
  <fix>3d</fix>
</trkpt>
<trkpt lat="40.0738022" lon="-105.2301187">
  <ele>1583.61</ele>
  <time>2026-08-27T18:26:54Z</time>
  <course>25.03</course>
  <speed>0.02</speed>
  <fix>3d</fix>
</trkpt>
<trkpt lat="40.073802" lon="-105.2301186">
  <ele>1583.56</ele>
  <time>2026-08-27T18:26:54Z</time>
  <course>285.17</course>
  <speed>0.0</speed>
  <fix>3d</fix>
</trkpt>
<trkpt lat="40.0738022" lon="-105.2301187">
  <ele>1583.61</ele>
  <time>2026-08-27T18:26:54Z</time>
  <course>24.98</course>
  <speed>0.02</speed>
  <fix>3d</fix>
</trkpt>
<trkpt lat="40.073802" lon="-105.2301186">
  <ele>1583.56</ele>
  <time>2026-08-27T18:26:54Z</time>
  <course>283.45</course>
  <speed>0.0</speed>
  <fix>3d</fix>
</trkpt>
<trkpt lat="40.0738022" lon="-105.2301187">
  <ele>1583.61</ele>
  <time>2026-08-27T18:26:54Z</time>
  <course>24.93</course>
  <speed>0.02</speed>
  <fix>3d</fix>
</trkpt>
<trkpt lat="40.073802" lon="-105.2301186">
  <ele>1583.56</ele>
  <time>2026-08-27T18:26:54Z</time>
  <course>285.57</course>
  <speed>0.0</speed>
  <fix>3d</fix>
</trkpt>
<trkpt lat="40.0738022" lon="-105.2301187">
  <ele>1583.61</ele>
  <time>2026-08-27T18:26:54Z</time>
  <course>24.88</course>
  <speed>0.02</speed>
  <fix>3d</fix>
</trkpt>
<trkpt lat="40.073802" lon="-105.2301186">
  <ele>1583.56</ele>
  <time>2026-08-27T18:26:54Z</time>
  <course>285.33</course>
  <speed>0.0</speed>
  <fix>3d</fix>
</trkpt>
<trkpt lat="40.0738022" lon="-105.2301187">
  <ele>1583.61</ele>
  <time>2026-08-27T18:26:54Z</time>
  <course>24.83</course>
  <speed>0.02</speed>
  <fix>3d</fix>
</trkpt>
<trkpt lat="40.073802" lon="-105.2301186">
  <ele>1583.56</ele>
  <time>2026-08-27T18:26:54Z</time>
  <course>285.48</course>
  <speed>0.0</speed>
  <fix>3d</fix>
</trkpt>
<trkpt lat="40.0738022" lon="-105.2301187">
  <ele>1583.61</ele>
  <time>2026-08-27T18:26:54Z</time>
  <course>24.78</course>
  <speed>0.02</speed>
  <fix>3d</fix>
</trkpt>
<trkpt lat="40.073802" lon="-105.2301186">
  <ele>1583.56</ele>
  <time>2026-08-27T18:26:54Z</time>
  <course>285.78</course>
  <speed>0.0</speed>
  <fix>3d</fix>
</trkpt>
<trkpt lat="40.0738022" lon="-105.2301187">
  <ele>1583.61</ele>
  <time>2026-08-27T18:26:54Z</time>
  <course>24.73</course>
  <speed>0.02</speed>
  <fix>3d</fix>
</trkpt>
<trkpt lat="40.073802" lon="-105.2301186">
  <ele>1583.56</ele>
  <time>2026-08-27T18:26:54Z</time>
  <course>285.66</course>
  <speed>0.0</speed>
  <fix>3d</fix>
</trkpt>
<trkpt lat="40.0738022" lon="-105.2301187">
  <ele>1583.61</ele>
  <time>2026-08-27T18:26:54Z</time>
  <course>24.68</course>
  <speed>0.02</speed>
  <fix>3d</fix>
</trkpt>
<trkpt lat="40.073802" lon="-105.2301186">
  <ele>1583.56</ele>
  <time>2026-08-27T18:26:54Z</time>
  <course>285.87</course>
  <speed>0.0</speed>
  <fix>3d</fix>
</trkpt>
<trkpt lat="40.0738022" lon="-105.2301187">
  <ele>1583.61</ele>
  <time>2026-08-27T18:26:54Z</time>
  <course>24.63</course>
  <speed>0.02</speed>
  <fix>3d</fix>
</trkpt>
<trkpt lat="40.073802" lon="-105.2301186">
  <ele>1583.56</ele>
  <time>2026-08-27T18:26:54Z</time>
  <course>285.69</course>
  <speed>0.0</speed>
  <fix>3d</fix>
</trkpt>
<trkpt lat="40.0738022" lon="-105.2301187">
  <ele>1583.6</ele>
  <time>2026-08-27T18:26:54Z</time>
  <course>24.57</course>
  <speed>0.02</speed>
  <fix>3d</fix>
</trkpt>
<trkpt lat="40.073802" lon="-105.2301186">
  <ele>1583.56</ele>
  <time>2026-08-27T18:26:54Z</time>
  <course>275.62</course>
  <speed>0.0</speed>
  <fix>3d</fix>
</trkpt>
<trkpt lat="40.0738022" lon="-105.2301187">
  <ele>1583.6</ele>
  <time>2026-08-27T18:26:54Z</time>
  <course>24.52</course>
  <speed>0.02</speed>
  <fix>3d</fix>
</trkpt>
<trkpt lat="40.073802" lon="-105.2301186">
  <ele>1583.56</ele>
  <time>2026-08-27T18:26:54Z</time>
  <course>114.84</course>
  <speed>0.0</speed>
  <fix>3d</fix>
</trkpt>
<trkpt lat="40.0738022" lon="-105.2301187">
  <ele>1583.61</ele>
  <time>2026-08-27T18:26:54Z</time>
  <course>24.47</course>
  <speed>0.02</speed>
  <fix>3d</fix>
</trkpt>
<trkpt lat="40.073802" lon="-105.2301186">
  <ele>1583.56</ele>
  <time>2026-08-27T18:26:54Z</time>
  <course>285.11</course>
  <speed>0.0</speed>
  <fix>3d</fix>
</trkpt>
<trkpt lat="40.0738022" lon="-105.2301187">
  <ele>1583.61</ele>
  <time>2026-08-27T18:26:54Z</time>
  <course>24.42</course>
  <speed>0.02</speed>
  <fix>3d</fix>
</trkpt>
<trkpt lat="40.073802" lon="-105.2301186">
  <ele>1583.56</ele>
  <time>2026-08-27T18:26:54Z</time>
  <course>285.65</course>
  <speed>0.0</speed>
  <fix>3d</fix>
</trkpt>
<trkpt lat="40.0738022" lon="-105.2301187">
  <ele>1583.61</ele>
  <time>2026-08-27T18:26:54Z</time>
  <course>24.37</course>
  <speed>0.02</speed>
  <fix>3d</fix>
</trkpt>
<trkpt lat="40.073802" lon="-105.2301186">
  <ele>1583.56</ele>
  <time>2026-08-27T18:26:54Z</time>
  <course>285.42</course>
  <speed>0.0</speed>
  <fix>3d</fix>
</trkpt>
<trkpt lat="40.0738022" lon="-105.2301187">
  <ele>1583.61</ele>
  <time>2026-08-27T18:26:54Z</time>
  <course>24.31</course>
  <speed>0.02</speed>
  <fix>3d</fix>
</trkpt>
<trkpt lat="40.073802" lon="-105.2301186">
  <ele>1583.56</ele>
  <time>2026-08-27T18:26:54Z</time>
  <course>285.17</course>
  <speed>0.0</speed>
  <fix>3d</fix>
</trkpt>
<trkpt lat="40.0738022" lon="-105.2301187">
  <ele>1583.61</ele>
  <time>2026-08-27T18:26:54Z</time>
  <course>24.26</course>
  <speed>0.02</speed>
  <fix>3d</fix>
</trkpt>
<trkpt lat="40.073802" lon="-105.2301186">
  <ele>1583.56</ele>
  <time>2026-08-27T18:26:54Z</time>
  <course>285.15</course>
  <speed>0.0</speed>
  <fix>3d</fix>
</trkpt>
<trkpt lat="40.0738022" lon="-105.2301187">
  <ele>1583.6</ele>
  <time>2026-08-27T18:26:54Z</time>
  <course>24.21</course>
  <speed>0.02</speed>
  <fix>3d</fix>
</trkpt>
<trkpt lat="40.073802" lon="-105.2301186">
  <ele>1583.56</ele>
  <time>2026-08-27T18:26:54Z</time>
  <course>284.99</course>
  <speed>0.0</speed>
  <fix>3d</fix>
</trkpt>
<trkpt lat="40.0738022" lon="-105.2301187">
  <ele>1583.6</ele>
  <time>2026-08-27T18:26:54Z</time>
  <course>24.16</course>
  <speed>0.02</speed>
  <fix>3d</fix>
</trkpt>
<trkpt lat="40.073802" lon="-105.2301186">
  <ele>1583.56</ele>
  <time>2026-08-27T18:26:54Z</time>
  <course>284.87</course>
  <speed>0.0</speed>
  <fix>3d</fix>
</trkpt>
<trkpt lat="40.0738022" lon="-105.2301187">
  <ele>1583.6</ele>
  <time>2026-08-27T18:26:54Z</time>
  <course>24.12</course>
  <speed>0.02</speed>
  <fix>3d</fix>
</trkpt>
<trkpt lat="40.073802" lon="-105.2301186">
  <ele>1583.56</ele>
  <time>2026-08-27T18:26:54Z</time>
  <course>284.74</course>
  <speed>0.0</speed>
  <fix>3d</fix>
</trkpt>
<trkpt lat="40.0738022" lon="-105.2301187">
  <ele>1583.6</ele>
  <time>2026-08-27T18:26:54Z</time>
  <course>24.07</course>
  <speed>0.02</speed>
  <fix>3d</fix>
</trkpt>
<trkpt lat="40.073802" lon="-105.2301186">
  <ele>1583.56</ele>
  <time>2026-08-27T18:26:54Z</time>
  <course>284.56</course>
  <speed>0.0</speed>
  <fix>3d</fix>
</trkpt>
<trkpt lat="40.0738022" lon="-105.2301187">
  <ele>1583.6</ele>
  <time>2026-08-27T18:26:54Z</time>
  <course>24.02</course>
  <speed>0.02</speed>
  <fix>3d</fix>
</trkpt>
<trkpt lat="40.073802" lon="-105.2301186">
  <ele>1583.56</ele>
  <time>2026-08-27T18:26:54Z</time>
  <course>284.77</course>
  <speed>0.0</speed>
  <fix>3d</fix>
</trkpt>
<trkpt lat="40.0738022" lon="-105.2301187">
  <ele>1583.6</ele>
  <time>2026-08-27T18:26:54Z</time>
  <course>23.97</course>
  <speed>0.02</speed>
  <fix>3d</fix>
</trkpt>
<trkpt lat="40.073802" lon="-105.2301186">
  <ele>1583.56</ele>
  <time>2026-08-27T18:26:54Z</time>
  <course>284.65</course>
  <speed>0.0</speed>
  <fix>3d</fix>
</trkpt>
<trkpt lat="40.0738022" lon="-105.2301187">
  <ele>1583.6</ele>
  <time>2026-08-27T18:26:54Z</time>
  <course>23.92</course>
  <speed>0.02</speed>
  <fix>3d</fix>
</trkpt>
<trkpt lat="40.073802" lon="-105.2301186">
  <ele>1583.56</ele>
  <time>2026-08-27T18:26:54Z</time>
  <course>284.57</course>
  <speed>0.0</speed>
  <fix>3d</fix>
</trkpt>
<trkpt lat="40.0738022" lon="-105.2301187">
  <ele>1583.61</ele>
  <time>2026-08-27T18:26:54Z</time>
  <course>23.88</course>
  <speed>0.02</speed>
  <fix>3d</fix>
</trkpt>
<trkpt lat="40.073802" lon="-105.2301186">
  <ele>1583.56</ele>
  <time>2026-08-27T18:26:54Z</time>
  <course>284.34</course>
  <speed>0.0</speed>
  <fix>3d</fix>
</trkpt>
<trkpt lat="40.0738022" lon="-105.2301187">
  <ele>1583.61</ele>
  <time>2026-08-27T18:26:54Z</time>
  <course>23.83</course>
  <speed>0.02</speed>
  <fix>3d</fix>
</trkpt>
<trkpt lat="40.073802" lon="-105.2301186">
  <ele>1583.56</ele>
  <time>2026-08-27T18:26:54Z</time>
  <course>284.44</course>
  <speed>0.0</speed>
  <fix>3d</fix>
</trkpt>
<trkpt lat="40.0738022" lon="-105.2301187">
  <ele>1583.61</ele>
  <time>2026-08-27T18:26:54Z</time>
  <course>23.78</course>
  <speed>0.02</speed>
  <fix>3d</fix>
</trkpt>
<trkpt lat="40.073802" lon="-105.2301186">
  <ele>1583.56</ele>
  <time>2026-08-27T18:26:54Z</time>
  <course>284.33</course>
  <speed>0.0</speed>
  <fix>3d</fix>
</trkpt>
<trkpt lat="40.0738022" lon="-105.2301187">
  <ele>1583.61</ele>
  <time>2026-08-27T18:26:54Z</time>
  <course>23.74</course>
  <speed>0.02</speed>
  <fix>3d</fix>
</trkpt>
<trkpt lat="40.073802" lon="-105.2301186">
  <ele>1583.56</ele>
  <time>2026-08-27T18:26:54Z</time>
  <course>284.27</course>
  <speed>0.0</speed>
  <fix>3d</fix>
</trkpt>
<trkpt lat="40.0738022" lon="-105.2301187">
  <ele>1583.61</ele>
  <time>2026-08-27T18:26:54Z</time>
  <course>23.69</course>
  <speed>0.022360679774997897</speed>
  <fix>3d</fix>
</trkpt>
<trkpt lat="40.073802" lon="-105.2301186">
  <ele>1583.56</ele>
  <time>2026-08-27T18:26:54Z</time>
  <course>283.28</course>
  <speed>0.0</speed>
  <fix>3d</fix>
</trkpt>
<trkpt lat="40.0738022" lon="-105.2301187">
  <ele>1583.61</ele>
  <time>2026-08-27T18:26:54Z</time>
  <course>23.65</course>
  <speed>0.02</speed>
  <fix>3d</fix>
</trkpt>
<trkpt lat="40.073802" lon="-105.2301186">
  <ele>1583.56</ele>
  <time>2026-08-27T18:26:54Z</time>
  <course>283.82</course>
  <speed>0.0</speed>
  <fix>3d</fix>
</trkpt>
<trkpt lat="40.0738022" lon="-105.2301187">
  <ele>1583.61</ele>
  <time>2026-08-27T18:26:54Z</time>
  <course>23.6</course>
  <speed>0.022360679774997897</speed>
  <fix>3d</fix>
</trkpt>
<trkpt lat="40.073802" lon="-105.2301186">
  <ele>1583.56</ele>
  <time>2026-08-27T18:26:54Z</time>
  <course>282.72</course>
  <speed>0.0</speed>
  <fix>3d</fix>
</trkpt>
<trkpt lat="40.0738022" lon="-105.2301187">
  <ele>1583.62</ele>
  <time>2026-08-27T18:26:54Z</time>
  <course>23.56</course>
  <speed>0.02</speed>
  <fix>3d</fix>
</trkpt>
<trkpt lat="40.073802" lon="-105.2301186">
  <ele>1583.56</ele>
  <time>2026-08-27T18:26:54Z</time>
  <course>283.09</course>
  <speed>0.0</speed>
  <fix>3d</fix>
</trkpt>
<trkpt lat="40.0738022" lon="-105.2301187">
  <ele>1583.62</ele>
  <time>2026-08-27T18:26:54Z</time>
  <course>23.52</course>
  <speed>0.02</speed>
  <fix>3d</fix>
</trkpt>
<trkpt lat="40.073802" lon="-105.2301186">
  <ele>1583.56</ele>
  <time>2026-08-27T18:26:54Z</time>
  <course>283.24</course>
  <speed>0.0</speed>
  <fix>3d</fix>
</trkpt>
<trkpt lat="40.0738022" lon="-105.2301187">
  <ele>1583.62</ele>
  <time>2026-08-27T18:26:54Z</time>
  <course>23.48</course>
  <speed>0.02</speed>
  <fix>3d</fix>
</trkpt>
<trkpt lat="40.073802" lon="-105.2301186">
  <ele>1583.56</ele>
  <time>2026-08-27T18:26:54Z</time>
  <course>283.49</course>
  <speed>0.0</speed>
  <fix>3d</fix>
</trkpt>
<trkpt lat="40.0738022" lon="-105.2301187">
  <ele>1583.62</ele>
  <time>2026-08-27T18:26:54Z</time>
  <course>23.43</course>
  <speed>0.02</speed>
  <fix>3d</fix>
</trkpt>
<trkpt lat="40.073802" lon="-105.2301186">
  <ele>1583.56</ele>
  <time>2026-08-27T18:26:54Z</time>
  <course>283.72</course>
  <speed>0.0</speed>
  <fix>3d</fix>
</trkpt>
<trkpt lat="40.0738022" lon="-105.2301187">
  <ele>1583.62</ele>
  <time>2026-08-27T18:26:54Z</time>
  <course>23.39</course>
  <speed>0.02</speed>
  <fix>3d</fix>
</trkpt>
<trkpt lat="40.073802" lon="-105.2301186">
  <ele>1583.56</ele>
  <time>2026-08-27T18:26:54Z</time>
  <course>283.52</course>
  <speed>0.0</speed>
  <fix>3d</fix>
</trkpt>
<trkpt lat="40.0738022" lon="-105.2301187">
  <ele>1583.62</ele>
  <time>2026-08-27T18:26:54Z</time>
  <course>23.35</course>
  <speed>0.02</speed>
  <fix>3d</fix>
</trkpt>
<trkpt lat="40.073802" lon="-105.2301186">
  <ele>1583.56</ele>
  <time>2026-08-27T18:26:54Z</time>
  <course>283.8</course>
  <speed>0.0</speed>
  <fix>3d</fix>
</trkpt>
<trkpt lat="40.0738022" lon="-105.2301187">
  <ele>1583.62</ele>
  <time>2026-08-27T18:26:54Z</time>
  <course>23.31</course>
  <speed>0.02</speed>
  <fix>3d</fix>
</trkpt>
<trkpt lat="40.073802" lon="-105.2301186">
  <ele>1583.56</ele>
  <time>2026-08-27T18:26:54Z</time>
  <course>280.22</course>
  <speed>0.0</speed>
  <fix>3d</fix>
</trkpt>
<trkpt lat="40.0738022" lon="-105.2301187">
  <ele>1583.62</ele>
  <time>2026-08-27T18:26:54Z</time>
  <course>23.26</course>
  <speed>0.02</speed>
  <fix>3d</fix>
</trkpt>
<trkpt lat="40.073802" lon="-105.2301186">
  <ele>1583.56</ele>
  <time>2026-08-27T18:26:54Z</time>
  <course>282.82</course>
  <speed>0.0</speed>
  <fix>3d</fix>
</trkpt>
<trkpt lat="40.0738022" lon="-105.2301187">
  <ele>1583.61</ele>
  <time>2026-08-27T18:26:54Z</time>
  <course>23.22</course>
  <speed>0.02</speed>
  <fix>3d</fix>
</trkpt>
<trkpt lat="40.073802" lon="-105.2301186">
  <ele>1583.56</ele>
  <time>2026-08-27T18:26:54Z</time>
  <course>283.06</course>
  <speed>0.0</speed>
  <fix>3d</fix>
</trkpt>
<trkpt lat="40.0738022" lon="-105.2301187">
  <ele>1583.61</ele>
  <time>2026-08-27T18:26:54Z</time>
  <course>23.18</course>
  <speed>0.02</speed>
  <fix>3d</fix>
</trkpt>
<trkpt lat="40.073802" lon="-105.2301186">
  <ele>1583.56</ele>
  <time>2026-08-27T18:26:54Z</time>
  <course>283.17</course>
  <speed>0.0</speed>
  <fix>3d</fix>
</trkpt>
<trkpt lat="40.0738022" lon="-105.2301187">
  <ele>1583.62</ele>
  <time>2026-08-27T18:26:54Z</time>
  <course>23.14</course>
  <speed>0.02</speed>
  <fix>3d</fix>
</trkpt>
<trkpt lat="40.073802" lon="-105.2301186">
  <ele>1583.56</ele>
  <time>2026-08-27T18:26:54Z</time>
  <course>283.49</course>
  <speed>0.0</speed>
  <fix>3d</fix>
</trkpt>
<trkpt lat="40.0738022" lon="-105.2301187">
  <ele>1583.62</ele>
  <time>2026-08-27T18:26:54Z</time>
  <course>23.1</course>
  <speed>0.02</speed>
  <fix>3d</fix>
</trkpt>
<trkpt lat="40.073802" lon="-105.2301186">
  <ele>1583.56</ele>
  <time>2026-08-27T18:26:54Z</time>
  <course>282.47</course>
  <speed>0.0</speed>
  <fix>3d</fix>
</trkpt>
<trkpt lat="40.0738022" lon="-105.2301187">
  <ele>1583.62</ele>
  <time>2026-08-27T18:26:55Z</time>
  <course>23.07</course>
  <speed>0.02</speed>
  <fix>3d</fix>
</trkpt>
<trkpt lat="40.073802" lon="-105.2301186">
  <ele>1583.56</ele>
  <time>2026-08-27T18:26:55Z</time>
  <course>283.25</course>
  <speed>0.0</speed>
  <fix>3d</fix>
</trkpt>
<trkpt lat="40.0738022" lon="-105.2301187">
  <ele>1583.61</ele>
  <time>2026-08-27T18:26:55Z</time>
  <course>23.03</course>
  <speed>0.02</speed>
  <fix>3d</fix>
</trkpt>
<trkpt lat="40.073802" lon="-105.2301186">
  <ele>1583.56</ele>
  <time>2026-08-27T18:26:55Z</time>
  <course>282.07</course>
  <speed>0.0</speed>
  <fix>3d</fix>
</trkpt>
<trkpt lat="40.0738022" lon="-105.2301187">
  <ele>1583.62</ele>
  <time>2026-08-27T18:26:55Z</time>
  <course>22.99</course>
  <speed>0.02</speed>
  <fix>3d</fix>
</trkpt>
<trkpt lat="40.073802" lon="-105.2301186">
  <ele>1583.56</ele>
  <time>2026-08-27T18:26:55Z</time>
  <course>282.87</course>
  <speed>0.0</speed>
  <fix>3d</fix>
</trkpt>
<trkpt lat="40.0738022" lon="-105.2301187">
  <ele>1583.62</ele>
  <time>2026-08-27T18:26:55Z</time>
  <course>22.95</course>
  <speed>0.02</speed>
  <fix>3d</fix>
</trkpt>
<trkpt lat="40.073802" lon="-105.2301186">
  <ele>1583.56</ele>
  <time>2026-08-27T18:26:55Z</time>
  <course>283.22</course>
  <speed>0.0</speed>
  <fix>3d</fix>
</trkpt>
<trkpt lat="40.0738022" lon="-105.2301187">
  <ele>1583.62</ele>
  <time>2026-08-27T18:26:55Z</time>
  <course>22.91</course>
  <speed>0.02</speed>
  <fix>3d</fix>
</trkpt>
<trkpt lat="40.073802" lon="-105.2301186">
  <ele>1583.56</ele>
  <time>2026-08-27T18:26:55Z</time>
  <course>278.55</course>
  <speed>0.0</speed>
  <fix>3d</fix>
</trkpt>
<trkpt lat="40.0738022" lon="-105.2301187">
  <ele>1583.62</ele>
  <time>2026-08-27T18:26:55Z</time>
  <course>22.88</course>
  <speed>0.02</speed>
  <fix>3d</fix>
</trkpt>
<trkpt lat="40.073802" lon="-105.2301186">
  <ele>1583.56</ele>
  <time>2026-08-27T18:26:55Z</time>
  <course>282.64</course>
  <speed>0.0</speed>
  <fix>3d</fix>
</trkpt>
<trkpt lat="40.0738022" lon="-105.2301187">
  <ele>1583.62</ele>
  <time>2026-08-27T18:26:55Z</time>
  <course>22.84</course>
  <speed>0.02</speed>
  <fix>3d</fix>
</trkpt>
<trkpt lat="40.073802" lon="-105.2301186">
  <ele>1583.56</ele>
  <time>2026-08-27T18:26:55Z</time>
  <course>282.83</course>
  <speed>0.0</speed>
  <fix>3d</fix>
</trkpt>
<trkpt lat="40.0738022" lon="-105.2301187">
  <ele>1583.63</ele>
  <time>2026-08-27T18:26:55Z</time>
  <course>22.8</course>
  <speed>0.02</speed>
  <fix>3d</fix>
</trkpt>
<trkpt lat="40.073802" lon="-105.2301186">
  <ele>1583.56</ele>
  <time>2026-08-27T18:26:55Z</time>
  <course>282.28</course>
  <speed>0.0</speed>
  <fix>3d</fix>
</trkpt>
<trkpt lat="40.0738022" lon="-105.2301187">
  <ele>1583.63</ele>
  <time>2026-08-27T18:26:55Z</time>
  <course>22.77</course>
  <speed>0.02</speed>
  <fix>3d</fix>
</trkpt>
<trkpt lat="40.073802" lon="-105.2301186">
  <ele>1583.56</ele>
  <time>2026-08-27T18:26:55Z</time>
  <course>283.1</course>
  <speed>0.0</speed>
  <fix>3d</fix>
</trkpt>
<trkpt lat="40.0738022" lon="-105.2301187">
  <ele>1583.63</ele>
  <time>2026-08-27T18:26:55Z</time>
  <course>22.73</course>
  <speed>0.02</speed>
  <fix>3d</fix>
</trkpt>
<trkpt lat="40.073802" lon="-105.2301186">
  <ele>1583.56</ele>
  <time>2026-08-27T18:26:55Z</time>
  <course>281.5</course>
  <speed>0.0</speed>
  <fix>3d</fix>
</trkpt>
<trkpt lat="40.0738022" lon="-105.2301187">
  <ele>1583.63</ele>
  <time>2026-08-27T18:26:55Z</time>
  <course>22.7</course>
  <speed>0.02</speed>
  <fix>3d</fix>
</trkpt>
<trkpt lat="40.073802" lon="-105.2301186">
  <ele>1583.56</ele>
  <time>2026-08-27T18:26:55Z</time>
  <course>282.59</course>
  <speed>0.0</speed>
  <fix>3d</fix>
</trkpt>
<trkpt lat="40.0738022" lon="-105.2301187">
  <ele>1583.63</ele>
  <time>2026-08-27T18:26:55Z</time>
  <course>22.66</course>
  <speed>0.02</speed>
  <fix>3d</fix>
</trkpt>
<trkpt lat="40.073802" lon="-105.2301186">
  <ele>1583.56</ele>
  <time>2026-08-27T18:26:55Z</time>
  <course>282.99</course>
  <speed>0.0</speed>
  <fix>3d</fix>
</trkpt>
<trkpt lat="40.0738022" lon="-105.2301187">
  <ele>1583.63</ele>
  <time>2026-08-27T18:26:55Z</time>
  <course>22.63</course>
  <speed>0.02</speed>
  <fix>3d</fix>
</trkpt>
<trkpt lat="40.073802" lon="-105.2301186">
  <ele>1583.56</ele>
  <time>2026-08-27T18:26:55Z</time>
  <course>279.56</course>
  <speed>0.0</speed>
  <fix>3d</fix>
</trkpt>
<trkpt lat="40.0738022" lon="-105.2301187">
  <ele>1583.63</ele>
  <time>2026-08-27T18:26:55Z</time>
  <course>22.59</course>
  <speed>0.02</speed>
  <fix>3d</fix>
</trkpt>
<trkpt lat="40.073802" lon="-105.2301186">
  <ele>1583.56</ele>
  <time>2026-08-27T18:26:55Z</time>
  <course>282.4</course>
  <speed>0.0</speed>
  <fix>3d</fix>
</trkpt>
<trkpt lat="40.0738022" lon="-105.2301187">
  <ele>1583.63</ele>
  <time>2026-08-27T18:26:55Z</time>
  <course>22.56</course>
  <speed>0.02</speed>
  <fix>3d</fix>
</trkpt>
<trkpt lat="40.073802" lon="-105.2301186">
  <ele>1583.56</ele>
  <time>2026-08-27T18:26:55Z</time>
  <course>282.64</course>
  <speed>0.0</speed>
  <fix>3d</fix>
</trkpt>
<trkpt lat="40.0738022" lon="-105.2301187">
  <ele>1583.62</ele>
  <time>2026-08-27T18:26:55Z</time>
  <course>22.53</course>
  <speed>0.02</speed>
  <fix>3d</fix>
</trkpt>
<trkpt lat="40.073802" lon="-105.2301186">
  <ele>1583.56</ele>
  <time>2026-08-27T18:26:55Z</time>
  <course>278.22</course>
  <speed>0.0</speed>
  <fix>3d</fix>
</trkpt>
<trkpt lat="40.0738022" lon="-105.2301187">
  <ele>1583.62</ele>
  <time>2026-08-27T18:26:55Z</time>
  <course>22.49</course>
  <speed>0.02</speed>
  <fix>3d</fix>
</trkpt>
<trkpt lat="40.073802" lon="-105.2301186">
  <ele>1583.56</ele>
  <time>2026-08-27T18:26:55Z</time>
  <course>282.48</course>
  <speed>0.0</speed>
  <fix>3d</fix>
</trkpt>
<trkpt lat="40.0738022" lon="-105.2301187">
  <ele>1583.62</ele>
  <time>2026-08-27T18:26:55Z</time>
  <course>22.46</course>
  <speed>0.02</speed>
  <fix>3d</fix>
</trkpt>
<trkpt lat="40.073802" lon="-105.2301186">
  <ele>1583.56</ele>
  <time>2026-08-27T18:26:55Z</time>
  <course>282.72</course>
  <speed>0.0</speed>
  <fix>3d</fix>
</trkpt>
<trkpt lat="40.0738022" lon="-105.2301187">
  <ele>1583.62</ele>
  <time>2026-08-27T18:26:55Z</time>
  <course>22.43</course>
  <speed>0.02</speed>
  <fix>3d</fix>
</trkpt>
<trkpt lat="40.073802" lon="-105.2301186">
  <ele>1583.56</ele>
  <time>2026-08-27T18:26:55Z</time>
  <course>278.94</course>
  <speed>0.0</speed>
  <fix>3d</fix>
</trkpt>
<trkpt lat="40.0738022" lon="-105.2301187">
  <ele>1583.62</ele>
  <time>2026-08-27T18:26:55Z</time>
  <course>22.4</course>
  <speed>0.02</speed>
  <fix>3d</fix>
</trkpt>
<trkpt lat="40.073802" lon="-105.2301186">
  <ele>1583.56</ele>
  <time>2026-08-27T18:26:55Z</time>
  <course>282.33</course>
  <speed>0.0</speed>
  <fix>3d</fix>
</trkpt>
<trkpt lat="40.0738022" lon="-105.2301187">
  <ele>1583.62</ele>
  <time>2026-08-27T18:26:55Z</time>
  <course>22.36</course>
  <speed>0.02</speed>
  <fix>3d</fix>
</trkpt>
<trkpt lat="40.073802" lon="-105.2301186">
  <ele>1583.56</ele>
  <time>2026-08-27T18:26:55Z</time>
  <course>282.57</course>
  <speed>0.0</speed>
  <fix>3d</fix>
</trkpt>
<trkpt lat="40.0738022" lon="-105.2301187">
  <ele>1583.63</ele>
  <time>2026-08-27T18:26:55Z</time>
  <course>22.33</course>
  <speed>0.02</speed>
  <fix>3d</fix>
</trkpt>
<trkpt lat="40.073802" lon="-105.2301186">
  <ele>1583.56</ele>
  <time>2026-08-27T18:26:55Z</time>
  <course>278.92</course>
  <speed>0.0</speed>
  <fix>3d</fix>
</trkpt>
<trkpt lat="40.0738022" lon="-105.2301187">
  <ele>1583.63</ele>
  <time>2026-08-27T18:26:55Z</time>
  <course>22.3</course>
  <speed>0.02</speed>
  <fix>3d</fix>
</trkpt>
<trkpt lat="40.073802" lon="-105.2301186">
  <ele>1583.56</ele>
  <time>2026-08-27T18:26:55Z</time>
  <course>282.27</course>
  <speed>0.0</speed>
  <fix>3d</fix>
</trkpt>
<trkpt lat="40.0738022" lon="-105.2301187">
  <ele>1583.63</ele>
  <time>2026-08-27T18:26:55Z</time>
  <course>22.27</course>
  <speed>0.02</speed>
  <fix>3d</fix>
</trkpt>
<trkpt lat="40.073802" lon="-105.2301186">
  <ele>1583.56</ele>
  <time>2026-08-27T18:26:55Z</time>
  <course>282.52</course>
  <speed>0.0</speed>
  <fix>3d</fix>
</trkpt>
<trkpt lat="40.0738022" lon="-105.2301187">
  <ele>1583.63</ele>
  <time>2026-08-27T18:26:55Z</time>
  <course>22.24</course>
  <speed>0.02</speed>
  <fix>3d</fix>
</trkpt>
<trkpt lat="40.073802" lon="-105.2301186">
  <ele>1583.56</ele>
  <time>2026-08-27T18:26:55Z</time>
  <course>279.17</course>
  <speed>0.0</speed>
  <fix>3d</fix>
</trkpt>
<trkpt lat="40.0738022" lon="-105.2301187">
  <ele>1583.63</ele>
  <time>2026-08-27T18:26:55Z</time>
  <course>22.21</course>
  <speed>0.02</speed>
  <fix>3d</fix>
</trkpt>
<trkpt lat="40.073802" lon="-105.2301186">
  <ele>1583.56</ele>
  <time>2026-08-27T18:26:55Z</time>
  <course>282.23</course>
  <speed>0.0</speed>
  <fix>3d</fix>
</trkpt>
<trkpt lat="40.0738022" lon="-105.2301187">
  <ele>1583.63</ele>
  <time>2026-08-27T18:26:55Z</time>
  <course>22.18</course>
  <speed>0.02</speed>
  <fix>3d</fix>
</trkpt>
<trkpt lat="40.073802" lon="-105.2301186">
  <ele>1583.56</ele>
  <time>2026-08-27T18:26:55Z</time>
  <course>282.55</course>
  <speed>0.0</speed>
  <fix>3d</fix>
</trkpt>
<trkpt lat="40.0738022" lon="-105.2301187">
  <ele>1583.63</ele>
  <time>2026-08-27T18:26:55Z</time>
  <course>22.15</course>
  <speed>0.02</speed>
  <fix>3d</fix>
</trkpt>
<trkpt lat="40.073802" lon="-105.2301186">
  <ele>1583.56</ele>
  <time>2026-08-27T18:26:55Z</time>
  <course>279.88</course>
  <speed>0.0</speed>
  <fix>3d</fix>
</trkpt>
<trkpt lat="40.0738022" lon="-105.2301187">
  <ele>1583.63</ele>
  <time>2026-08-27T18:26:55Z</time>
  <course>22.12</course>
  <speed>0.022360679774997897</speed>
  <fix>3d</fix>
</trkpt>
<trkpt lat="40.073802" lon="-105.2301186">
  <ele>1583.56</ele>
  <time>2026-08-27T18:26:55Z</time>
  <course>278.65</course>
  <speed>0.0</speed>
  <fix>3d</fix>
</trkpt>
<trkpt lat="40.0738022" lon="-105.2301187">
  <ele>1583.63</ele>
  <time>2026-08-27T18:26:55Z</time>
  <course>22.09</course>
  <speed>0.02</speed>
  <fix>3d</fix>
</trkpt>
<trkpt lat="40.073802" lon="-105.2301186">
  <ele>1583.56</ele>
  <time>2026-08-27T18:26:55Z</time>
  <course>282.05</course>
  <speed>0.0</speed>
  <fix>3d</fix>
</trkpt>
<trkpt lat="40.0738022" lon="-105.2301187">
  <ele>1583.63</ele>
  <time>2026-08-27T18:26:55Z</time>
  <course>22.06</course>
  <speed>0.02</speed>
  <fix>3d</fix>
</trkpt>
<trkpt lat="40.073802" lon="-105.2301186">
  <ele>1583.56</ele>
  <time>2026-08-27T18:26:55Z</time>
  <course>281.89</course>
  <speed>0.0</speed>
  <fix>3d</fix>
</trkpt>
<trkpt lat="40.0738022" lon="-105.2301187">
  <ele>1583.63</ele>
  <time>2026-08-27T18:26:55Z</time>
  <course>22.04</course>
  <speed>0.02</speed>
  <fix>3d</fix>
</trkpt>
<trkpt lat="40.073802" lon="-105.2301186">
  <ele>1583.56</ele>
  <time>2026-08-27T18:26:55Z</time>
  <course>278.38</course>
  <speed>0.0</speed>
  <fix>3d</fix>
</trkpt>
<trkpt lat="40.0738022" lon="-105.2301187">
  <ele>1583.63</ele>
  <time>2026-08-27T18:26:55Z</time>
  <course>22.01</course>
  <speed>0.02</speed>
  <fix>3d</fix>
</trkpt>
<trkpt lat="40.073802" lon="-105.2301186">
  <ele>1583.56</ele>
  <time>2026-08-27T18:26:55Z</time>
  <course>282.11</course>
  <speed>0.0</speed>
  <fix>3d</fix>
</trkpt>
<trkpt lat="40.0738022" lon="-105.2301187">
  <ele>1583.63</ele>
  <time>2026-08-27T18:26:55Z</time>
  <course>21.98</course>
  <speed>0.02</speed>
  <fix>3d</fix>
</trkpt>
<trkpt lat="40.073802" lon="-105.2301186">
  <ele>1583.56</ele>
  <time>2026-08-27T18:26:55Z</time>
  <course>282.34</course>
  <speed>0.0</speed>
  <fix>3d</fix>
</trkpt>
<trkpt lat="40.0738022" lon="-105.2301187">
  <ele>1583.64</ele>
  <time>2026-08-27T18:26:55Z</time>
  <course>21.95</course>
  <speed>0.02</speed>
  <fix>3d</fix>
</trkpt>
<trkpt lat="40.073802" lon="-105.2301186">
  <ele>1583.56</ele>
  <time>2026-08-27T18:26:55Z</time>
  <course>279.77</course>
  <speed>0.0</speed>
  <fix>3d</fix>
</trkpt>
<trkpt lat="40.0738022" lon="-105.2301187">
  <ele>1583.64</ele>
  <time>2026-08-27T18:26:55Z</time>
  <course>21.93</course>
  <speed>0.02</speed>
  <fix>3d</fix>
</trkpt>
<trkpt lat="40.073802" lon="-105.2301186">
  <ele>1583.56</ele>
  <time>2026-08-27T18:26:55Z</time>
  <course>280.71</course>
  <speed>0.0</speed>
  <fix>3d</fix>
</trkpt>
<trkpt lat="40.0738022" lon="-105.2301187">
  <ele>1583.64</ele>
  <time>2026-08-27T18:26:55Z</time>
  <course>21.9</course>
  <speed>0.02</speed>
  <fix>3d</fix>
</trkpt>
<trkpt lat="40.073802" lon="-105.2301186">
  <ele>1583.56</ele>
  <time>2026-08-27T18:26:55Z</time>
  <course>282.14</course>
  <speed>0.0</speed>
  <fix>3d</fix>
</trkpt>
<trkpt lat="40.0738022" lon="-105.2301187">
  <ele>1583.64</ele>
  <time>2026-08-27T18:26:55Z</time>
  <course>21.87</course>
  <speed>0.02</speed>
  <fix>3d</fix>
</trkpt>
<trkpt lat="40.073802" lon="-105.2301186">
  <ele>1583.56</ele>
  <time>2026-08-27T18:26:55Z</time>
  <course>281.52</course>
  <speed>0.0</speed>
  <fix>3d</fix>
</trkpt>
<trkpt lat="40.0738022" lon="-105.2301187">
  <ele>1583.64</ele>
  <time>2026-08-27T18:26:55Z</time>
  <course>21.85</course>
  <speed>0.02</speed>
  <fix>3d</fix>
</trkpt>
<trkpt lat="40.073802" lon="-105.2301186">
  <ele>1583.56</ele>
  <time>2026-08-27T18:26:55Z</time>
  <course>278.58</course>
  <speed>0.0</speed>
  <fix>3d</fix>
</trkpt>
<trkpt lat="40.0738022" lon="-105.2301187">
  <ele>1583.64</ele>
  <time>2026-08-27T18:26:55Z</time>
  <course>21.82</course>
  <speed>0.02</speed>
  <fix>3d</fix>
</trkpt>
<trkpt lat="40.073802" lon="-105.2301186">
  <ele>1583.56</ele>
  <time>2026-08-27T18:26:55Z</time>
  <course>281.96</course>
  <speed>0.0</speed>
  <fix>3d</fix>
</trkpt>
<trkpt lat="40.0738022" lon="-105.2301187">
  <ele>1583.64</ele>
  <time>2026-08-27T18:26:55Z</time>
  <course>21.79</course>
  <speed>0.02</speed>
  <fix>3d</fix>
</trkpt>
<trkpt lat="40.073802" lon="-105.2301186">
  <ele>1583.56</ele>
  <time>2026-08-27T18:26:55Z</time>
  <course>282.23</course>
  <speed>0.0</speed>
  <fix>3d</fix>
</trkpt>
<trkpt lat="40.0738022" lon="-105.2301187">
  <ele>1583.64</ele>
  <time>2026-08-27T18:26:55Z</time>
  <course>21.77</course>
  <speed>0.02</speed>
  <fix>3d</fix>
</trkpt>
<trkpt lat="40.073802" lon="-105.2301186">
  <ele>1583.56</ele>
  <time>2026-08-27T18:26:55Z</time>
  <course>280.26</course>
  <speed>0.0</speed>
  <fix>3d</fix>
</trkpt>
<trkpt lat="40.0738022" lon="-105.2301187">
  <ele>1583.63</ele>
  <time>2026-08-27T18:26:55Z</time>
  <course>21.74</course>
  <speed>0.02</speed>
  <fix>3d</fix>
</trkpt>
<trkpt lat="40.073802" lon="-105.2301186">
  <ele>1583.56</ele>
  <time>2026-08-27T18:26:55Z</time>
  <course>278.91</course>
  <speed>0.0</speed>
  <fix>3d</fix>
</trkpt>
<trkpt lat="40.0738022" lon="-105.2301187">
  <ele>1583.63</ele>
  <time>2026-08-27T18:26:55Z</time>
  <course>21.72</course>
  <speed>0.02</speed>
  <fix>3d</fix>
</trkpt>
<trkpt lat="40.073802" lon="-105.2301186">
  <ele>1583.56</ele>
  <time>2026-08-27T18:26:55Z</time>
  <course>281.81</course>
  <speed>0.0</speed>
  <fix>3d</fix>
</trkpt>
<trkpt lat="40.0738022" lon="-105.2301187">
  <ele>1583.63</ele>
  <time>2026-08-27T18:26:55Z</time>
  <course>21.69</course>
  <speed>0.02</speed>
  <fix>3d</fix>
</trkpt>
<trkpt lat="40.073802" lon="-105.2301186">
  <ele>1583.56</ele>
  <time>2026-08-27T18:26:55Z</time>
  <course>282.14</course>
  <speed>0.0</speed>
  <fix>3d</fix>
</trkpt>
<trkpt lat="40.0738022" lon="-105.2301187">
  <ele>1583.63</ele>
  <time>2026-08-27T18:26:55Z</time>
  <course>21.67</course>
  <speed>0.02</speed>
  <fix>3d</fix>
</trkpt>
<trkpt lat="40.073802" lon="-105.2301186">
  <ele>1583.56</ele>
  <time>2026-08-27T18:26:55Z</time>
  <course>280.68</course>
  <speed>0.0</speed>
  <fix>3d</fix>
</trkpt>
<trkpt lat="40.0738022" lon="-105.2301187">
  <ele>1583.63</ele>
  <time>2026-08-27T18:26:55Z</time>
  <course>21.64</course>
  <speed>0.02</speed>
  <fix>3d</fix>
</trkpt>
<trkpt lat="40.073802" lon="-105.2301186">
  <ele>1583.56</ele>
  <time>2026-08-27T18:26:55Z</time>
  <course>278.92</course>
  <speed>0.0</speed>
  <fix>3d</fix>
</trkpt>
<trkpt lat="40.0738022" lon="-105.2301187">
  <ele>1583.64</ele>
  <time>2026-08-27T18:26:55Z</time>
  <course>21.62</course>
  <speed>0.02</speed>
  <fix>3d</fix>
</trkpt>
<trkpt lat="40.073802" lon="-105.2301186">
  <ele>1583.56</ele>
  <time>2026-08-27T18:26:55Z</time>
  <course>281.8</course>
  <speed>0.0</speed>
  <fix>3d</fix>
</trkpt>
<trkpt lat="40.0738022" lon="-105.2301187">
  <ele>1583.63</ele>
  <time>2026-08-27T18:26:55Z</time>
  <course>21.6</course>
  <speed>0.02</speed>
  <fix>3d</fix>
</trkpt>
<trkpt lat="40.073802" lon="-105.2301186">
  <ele>1583.56</ele>
  <time>2026-08-27T18:26:55Z</time>
  <course>282.06</course>
  <speed>0.0</speed>
  <fix>3d</fix>
</trkpt>
<trkpt lat="40.0738022" lon="-105.2301187">
  <ele>1583.63</ele>
  <time>2026-08-27T18:26:55Z</time>
  <course>21.57</course>
  <speed>0.02</speed>
  <fix>3d</fix>
</trkpt>
<trkpt lat="40.073802" lon="-105.2301186">
  <ele>1583.56</ele>
  <time>2026-08-27T18:26:55Z</time>
  <course>280.44</course>
  <speed>0.0</speed>
  <fix>3d</fix>
</trkpt>
<trkpt lat="40.0738022" lon="-105.2301187">
  <ele>1583.63</ele>
  <time>2026-08-27T18:26:55Z</time>
  <course>21.55</course>
  <speed>0.02</speed>
  <fix>3d</fix>
</trkpt>
<trkpt lat="40.073802" lon="-105.2301186">
  <ele>1583.56</ele>
  <time>2026-08-27T18:26:55Z</time>
  <course>279.07</course>
  <speed>0.0</speed>
  <fix>3d</fix>
</trkpt>
<trkpt lat="40.0738022" lon="-105.2301187">
  <ele>1583.63</ele>
  <time>2026-08-27T18:26:55Z</time>
  <course>21.53</course>
  <speed>0.02</speed>
  <fix>3d</fix>
</trkpt>
<trkpt lat="40.073802" lon="-105.2301186">
  <ele>1583.56</ele>
  <time>2026-08-27T18:26:55Z</time>
  <course>281.63</course>
  <speed>0.0</speed>
  <fix>3d</fix>
</trkpt>
<trkpt lat="40.0738022" lon="-105.2301187">
  <ele>1583.63</ele>
  <time>2026-08-27T18:26:55Z</time>
  <course>21.51</course>
  <speed>0.02</speed>
  <fix>3d</fix>
</trkpt>
<trkpt lat="40.073802" lon="-105.2301186">
  <ele>1583.56</ele>
  <time>2026-08-27T18:26:55Z</time>
  <course>281.97</course>
  <speed>0.0</speed>
  <fix>3d</fix>
</trkpt>
<trkpt lat="40.0738022" lon="-105.2301187">
  <ele>1583.63</ele>
  <time>2026-08-27T18:26:55Z</time>
  <course>21.48</course>
  <speed>0.02</speed>
  <fix>3d</fix>
</trkpt>
<trkpt lat="40.073802" lon="-105.2301186">
  <ele>1583.56</ele>
  <time>2026-08-27T18:26:55Z</time>
  <course>280.74</course>
  <speed>0.0</speed>
  <fix>3d</fix>
</trkpt>
<trkpt lat="40.0738022" lon="-105.2301187">
  <ele>1583.62</ele>
  <time>2026-08-27T18:26:55Z</time>
  <course>21.46</course>
  <speed>0.02</speed>
  <fix>3d</fix>
</trkpt>
<trkpt lat="40.073802" lon="-105.2301186">
  <ele>1583.56</ele>
  <time>2026-08-27T18:26:55Z</time>
  <course>279.1</course>
  <speed>0.0</speed>
  <fix>3d</fix>
</trkpt>
<trkpt lat="40.0738022" lon="-105.2301187">
  <ele>1583.62</ele>
  <time>2026-08-27T18:26:55Z</time>
  <course>21.44</course>
  <speed>0.022360679774997897</speed>
  <fix>3d</fix>
</trkpt>
<trkpt lat="40.073802" lon="-105.2301186">
  <ele>1583.56</ele>
  <time>2026-08-27T18:26:55Z</time>
  <course>279.96</course>
  <speed>0.0</speed>
  <fix>3d</fix>
</trkpt>
<trkpt lat="40.0738022" lon="-105.2301187">
  <ele>1583.63</ele>
  <time>2026-08-27T18:26:55Z</time>
  <course>21.42</course>
  <speed>0.02</speed>
  <fix>3d</fix>
</trkpt>
<trkpt lat="40.073802" lon="-105.2301186">
  <ele>1583.56</ele>
  <time>2026-08-27T18:26:55Z</time>
  <course>281.55</course>
  <speed>0.0</speed>
  <fix>3d</fix>
</trkpt>
<trkpt lat="40.0738022" lon="-105.2301187">
  <ele>1583.63</ele>
  <time>2026-08-27T18:26:55Z</time>
  <course>21.4</course>
  <speed>0.02</speed>
  <fix>3d</fix>
</trkpt>
<trkpt lat="40.073802" lon="-105.2301186">
  <ele>1583.56</ele>
  <time>2026-08-27T18:26:55Z</time>
  <course>281.45</course>
  <speed>0.0</speed>
  <fix>3d</fix>
</trkpt>
<trkpt lat="40.0738022" lon="-105.2301187">
  <ele>1583.63</ele>
  <time>2026-08-27T18:26:55Z</time>
  <course>21.38</course>
  <speed>0.02</speed>
  <fix>3d</fix>
</trkpt>
<trkpt lat="40.073802" lon="-105.2301186">
  <ele>1583.56</ele>
  <time>2026-08-27T18:26:55Z</time>
  <course>279.31</course>
  <speed>0.0</speed>
  <fix>3d</fix>
</trkpt>
<trkpt lat="40.0738022" lon="-105.2301187">
  <ele>1583.63</ele>
  <time>2026-08-27T18:26:55Z</time>
  <course>21.36</course>
  <speed>0.022360679774997897</speed>
  <fix>3d</fix>
</trkpt>
<trkpt lat="40.073802" lon="-105.2301186">
  <ele>1583.56</ele>
  <time>2026-08-27T18:26:55Z</time>
  <course>279.72</course>
  <speed>0.0</speed>
  <fix>3d</fix>
</trkpt>
<trkpt lat="40.0738022" lon="-105.2301187">
  <ele>1583.63</ele>
  <time>2026-08-27T18:26:55Z</time>
  <course>21.34</course>
  <speed>0.02</speed>
  <fix>3d</fix>
</trkpt>
<trkpt lat="40.073802" lon="-105.2301186">
  <ele>1583.56</ele>
  <time>2026-08-27T18:26:55Z</time>
  <course>278.63</course>
  <speed>0.0</speed>
  <fix>3d</fix>
</trkpt>
<trkpt lat="40.0738022" lon="-105.2301187">
  <ele>1583.63</ele>
  <time>2026-08-27T18:26:55Z</time>
  <course>21.33</course>
  <speed>0.02</speed>
  <fix>3d</fix>
</trkpt>
<trkpt lat="40.073802" lon="-105.2301186">
  <ele>1583.56</ele>
  <time>2026-08-27T18:26:55Z</time>
  <course>278.66</course>
  <speed>0.0</speed>
  <fix>3d</fix>
</trkpt>
<trkpt lat="40.0738022" lon="-105.2301187">
  <ele>1583.63</ele>
  <time>2026-08-27T18:26:55Z</time>
  <course>21.32</course>
  <speed>0.02</speed>
  <fix>3d</fix>
</trkpt>
<trkpt lat="40.073802" lon="-105.2301186">
  <ele>1583.56</ele>
  <time>2026-08-27T18:26:55Z</time>
  <course>277.58</course>
  <speed>0.0</speed>
  <fix>3d</fix>
</trkpt>
<trkpt lat="40.0738022" lon="-105.2301187">
  <ele>1583.63</ele>
  <time>2026-08-27T18:26:55Z</time>
  <course>21.32</course>
  <speed>0.02</speed>
  <fix>3d</fix>
</trkpt>
<trkpt lat="40.0738022" lon="-105.2301187">
  <ele>1583.63</ele>
  <time>2026-08-27T18:26:55Z</time>
  <course>21.3</course>
  <speed>0.022360679774997897</speed>
  <fix>3d</fix>
</trkpt>
<trkpt lat="40.073802" lon="-105.2301186">
  <ele>1583.56</ele>
  <time>2026-08-27T18:26:55Z</time>
  <course>276.23</course>
  <speed>0.0</speed>
  <fix>3d</fix>
</trkpt>
<trkpt lat="40.0738022" lon="-105.2301187">
  <ele>1583.63</ele>
  <time>2026-08-27T18:26:55Z</time>
  <course>21.29</course>
  <speed>0.022360679774997897</speed>
  <fix>3d</fix>
</trkpt>
<trkpt lat="40.0738022" lon="-105.2301187">
  <ele>1583.64</ele>
  <time>2026-08-27T18:26:55Z</time>
  <course>21.26</course>
  <speed>0.022360679774997897</speed>
  <fix>3d</fix>
</trkpt>
<trkpt lat="40.073802" lon="-105.2301186">
  <ele>1583.56</ele>
  <time>2026-08-27T18:26:55Z</time>
  <course>277.73</course>
  <speed>0.0</speed>
  <fix>3d</fix>
</trkpt>
<trkpt lat="40.0738022" lon="-105.2301187">
  <ele>1583.64</ele>
  <time>2026-08-27T18:26:55Z</time>
  <course>21.26</course>
  <speed>0.022360679774997897</speed>
  <fix>3d</fix>
</trkpt>
<trkpt lat="40.0738022" lon="-105.2301187">
  <ele>1583.66</ele>
  <time>2026-08-27T18:26:55Z</time>
  <course>21.21</course>
  <speed>0.022360679774997897</speed>
  <fix>3d</fix>
</trkpt>
<trkpt lat="40.073802" lon="-105.2301186">
  <ele>1583.56</ele>
  <time>2026-08-27T18:26:55Z</time>
  <course>277.92</course>
  <speed>0.0</speed>
  <fix>3d</fix>
</trkpt>
<trkpt lat="40.0738022" lon="-105.2301187">
  <ele>1583.66</ele>
  <time>2026-08-27T18:26:55Z</time>
  <course>21.2</course>
  <speed>0.02</speed>
  <fix>3d</fix>
</trkpt>
<trkpt lat="40.0738022" lon="-105.2301187">
  <ele>1583.72</ele>
  <time>2026-08-27T18:26:55Z</time>
  <course>21.14</course>
  <speed>0.02</speed>
  <fix>3d</fix>
</trkpt>
<trkpt lat="40.073802" lon="-105.2301186">
  <ele>1583.57</ele>
  <time>2026-08-27T18:26:55Z</time>
  <course>277.65</course>
  <speed>0.0</speed>
  <fix>3d</fix>
</trkpt>
<trkpt lat="40.0738022" lon="-105.2301187">
  <ele>1583.73</ele>
  <time>2026-08-27T18:26:55Z</time>
  <course>21.12</course>
  <speed>0.02</speed>
  <fix>3d</fix>
</trkpt>
<trkpt lat="40.0738022" lon="-105.2301187">
  <ele>1583.81</ele>
  <time>2026-08-27T18:26:55Z</time>
  <course>18.8</course>
  <speed>0.0282842712474619</speed>
  <fix>3d</fix>
</trkpt>
<trkpt lat="40.073802" lon="-105.2301186">
  <ele>1583.62</ele>
  <time>2026-08-27T18:26:55Z</time>
  <course>277.57</course>
  <speed>0.0</speed>
  <fix>3d</fix>
</trkpt>
<trkpt lat="40.0738022" lon="-105.2301187">
  <ele>1583.81</ele>
  <time>2026-08-27T18:26:55Z</time>
  <course>18.47</course>
  <speed>0.0282842712474619</speed>
  <fix>3d</fix>
</trkpt>
<trkpt lat="40.0738022" lon="-105.2301189">
  <ele>1584.12</ele>
  <time>2026-08-27T18:26:55Z</time>
  <course>12.51</course>
  <speed>0.196468827043885</speed>
  <fix>3d</fix>
</trkpt>
<trkpt lat="40.073802" lon="-105.2301186">
  <ele>1583.72</ele>
  <time>2026-08-27T18:26:55Z</time>
  <course>272.49</course>
  <speed>0.03</speed>
  <fix>3d</fix>
</trkpt>
<trkpt lat="40.0738022" lon="-105.230119">
  <ele>1584.18</ele>
  <time>2026-08-27T18:26:55Z</time>
  <course>12.4</course>
  <speed>0.215870331449229</speed>
  <fix>3d</fix>
</trkpt>
<trkpt lat="40.0738022" lon="-105.2301194">
  <ele>1584.51</ele>
  <time>2026-08-27T18:26:55Z</time>
  <course>11.69</course>
  <speed>0.260768096208106</speed>
  <fix>3d</fix>
</trkpt>
<trkpt lat="40.073802" lon="-105.2301188">
  <ele>1583.97</ele>
  <time>2026-08-27T18:26:55Z</time>
  <course>268.75</course>
  <speed>0.14</speed>
  <fix>3d</fix>
</trkpt>
<trkpt lat="40.0738022" lon="-105.2301195">
  <ele>1584.57</ele>
  <time>2026-08-27T18:26:55Z</time>
  <course>11.46</course>
  <speed>0.2601922366251538</speed>
  <fix>3d</fix>
</trkpt>
<trkpt lat="40.0738022" lon="-105.23012">
  <ele>1584.9</ele>
  <time>2026-08-27T18:26:55Z</time>
  <course>10.1</course>
  <speed>0.27166155414412246</speed>
  <fix>3d</fix>
</trkpt>
<trkpt lat="40.073802" lon="-105.2301193">
  <ele>1584.35</ele>
  <time>2026-08-27T18:26:55Z</time>
  <course>262.54</course>
  <speed>0.24</speed>
  <fix>3d</fix>
</trkpt>
<trkpt lat="40.0738022" lon="-105.23012">
  <ele>1584.91</ele>
  <time>2026-08-27T18:26:55Z</time>
  <course>10.06</course>
  <speed>0.27166155414412246</speed>
  <fix>3d</fix>
</trkpt>
<trkpt lat="40.073802" lon="-105.2301206">
  <ele>1585.33</ele>
  <time>2026-08-27T18:26:55Z</time>
  <course>8.91</course>
  <speed>0.24698178070456936</speed>
  <fix>3d</fix>
</trkpt>
<trkpt lat="40.0738019" lon="-105.23012">
  <ele>1584.74</ele>
  <time>2026-08-27T18:26:55Z</time>
  <course>251.62</course>
  <speed>0.26</speed>
  <fix>3d</fix>
</trkpt>
<trkpt lat="40.0738019" lon="-105.2301207">
  <ele>1585.4</ele>
  <time>2026-08-27T18:26:55Z</time>
  <course>8.8</course>
  <speed>0.24166091947189144</speed>
  <fix>3d</fix>
</trkpt>
<trkpt lat="40.0738017" lon="-105.230121">
  <ele>1585.79</ele>
  <time>2026-08-27T18:26:55Z</time>
  <course>8.37</course>
  <speed>0.22022715545545238</speed>
  <fix>3d</fix>
</trkpt>
<trkpt lat="40.0738017" lon="-105.2301205">
  <ele>1585.15</ele>
  <time>2026-08-27T18:26:55Z</time>
  <course>237.65</course>
  <speed>0.26</speed>
  <fix>3d</fix>
</trkpt>
<trkpt lat="40.0738017" lon="-105.230121">
  <ele>1585.8</ele>
  <time>2026-08-27T18:26:55Z</time>
  <course>8.37</course>
  <speed>0.22671568097509268</speed>
  <fix>3d</fix>
</trkpt>
<trkpt lat="40.0738013" lon="-105.2301213">
  <ele>1586.26</ele>
  <time>2026-08-27T18:26:55Z</time>
  <course>8.17</course>
  <speed>0.19235384061671343</speed>
  <fix>3d</fix>
</trkpt>
<trkpt lat="40.0738014" lon="-105.230121">
  <ele>1585.59</ele>
  <time>2026-08-27T18:26:55Z</time>
  <course>221.39</course>
  <speed>0.23</speed>
  <fix>3d</fix>
</trkpt>
<trkpt lat="40.0738013" lon="-105.2301213">
  <ele>1586.32</ele>
  <time>2026-08-27T18:26:55Z</time>
  <course>8.16</course>
  <speed>0.18788294228055935</speed>
  <fix>3d</fix>
</trkpt>
<trkpt lat="40.0738009" lon="-105.2301214">
  <ele>1586.75</ele>
  <time>2026-08-27T18:26:55Z</time>
  <course>8.72</course>
  <speed>0.1824828759089466</speed>
  <fix>3d</fix>
</trkpt>
<trkpt lat="40.0738011" lon="-105.2301213">
  <ele>1586.06</ele>
  <time>2026-08-27T18:26:55Z</time>
  <course>203.37</course>
  <speed>0.21</speed>
  <fix>3d</fix>
</trkpt>
<trkpt lat="40.0738009" lon="-105.2301214">
  <ele>1586.76</ele>
  <time>2026-08-27T18:26:55Z</time>
  <course>8.67</course>
  <speed>0.1824828759089466</speed>
  <fix>3d</fix>
</trkpt>
<trkpt lat="40.0738005" lon="-105.2301214">
  <ele>1587.24</ele>
  <time>2026-08-27T18:26:55Z</time>
  <course>5.59</course>
  <speed>0.18110770276274835</speed>
  <fix>3d</fix>
</trkpt>
<trkpt lat="40.0738007" lon="-105.2301214">
  <ele>1586.54</ele>
  <time>2026-08-27T18:26:55Z</time>
  <course>185.72</course>
  <speed>0.19</speed>
  <fix>3d</fix>
</trkpt>
<trkpt lat="40.0738005" lon="-105.2301214">
  <ele>1587.32</ele>
  <time>2026-08-27T18:26:55Z</time>
  <course>5.51</course>
  <speed>0.1711724276862369</speed>
  <fix>3d</fix>
</trkpt>
<trkpt lat="40.0738002" lon="-105.2301214">
  <ele>1587.74</ele>
  <time>2026-08-27T18:26:55Z</time>
  <course>6.37</course>
  <speed>0.16552945357246848</speed>
  <fix>3d</fix>
</trkpt>
<trkpt lat="40.0738004" lon="-105.2301213">
  <ele>1587.02</ele>
  <time>2026-08-27T18:26:55Z</time>
  <course>168.29</course>
  <speed>0.17</speed>
  <fix>3d</fix>
</trkpt>
<trkpt lat="40.0738002" lon="-105.2301213">
  <ele>1587.82</ele>
  <time>2026-08-27T18:26:55Z</time>
  <course>6.63</course>
  <speed>0.17</speed>
  <fix>3d</fix>
</trkpt>
<trkpt lat="40.0738" lon="-105.2301211">
  <ele>1588.24</ele>
  <time>2026-08-27T18:26:55Z</time>
  <course>7.95</course>
  <speed>0.15620499351813308</speed>
  <fix>3d</fix>
</trkpt>
<trkpt lat="40.0738001" lon="-105.2301212">
  <ele>1587.51</ele>
  <time>2026-08-27T18:26:55Z</time>
  <course>145.61</course>
  <speed>0.15</speed>
  <fix>3d</fix>
</trkpt>
<trkpt lat="40.0738" lon="-105.2301211">
  <ele>1588.25</ele>
  <time>2026-08-27T18:26:55Z</time>
  <course>7.98</course>
  <speed>0.15620499351813308</speed>
  <fix>3d</fix>
</trkpt>
<trkpt lat="40.0737999" lon="-105.2301207">
  <ele>1588.74</ele>
  <time>2026-08-27T18:26:55Z</time>
  <course>9.14</course>
  <speed>0.1649242250247064</speed>
  <fix>3d</fix>
</trkpt>
<trkpt lat="40.0738" lon="-105.230121">
  <ele>1588.0</ele>
  <time>2026-08-27T18:26:55Z</time>
  <course>116.89</course>
  <speed>0.15</speed>
  <fix>3d</fix>
</trkpt>
<trkpt lat="40.0737999" lon="-105.2301207">
  <ele>1588.81</ele>
  <time>2026-08-27T18:26:55Z</time>
  <course>9.28</course>
  <speed>0.16278820596099705</speed>
  <fix>3d</fix>
</trkpt>
<trkpt lat="40.0737999" lon="-105.2301203">
  <ele>1589.24</ele>
  <time>2026-08-27T18:26:55Z</time>
  <course>10.14</course>
  <speed>0.18110770276274835</speed>
  <fix>3d</fix>
</trkpt>
<trkpt lat="40.0737999" lon="-105.2301206">
  <ele>1588.5</ele>
  <time>2026-08-27T18:26:55Z</time>
  <course>91.34</course>
  <speed>0.17</speed>
  <fix>3d</fix>
</trkpt>
<trkpt lat="40.0737999" lon="-105.2301202">
  <ele>1589.32</ele>
  <time>2026-08-27T18:26:55Z</time>
  <course>10.27</course>
  <speed>0.1824828759089466</speed>
  <fix>3d</fix>
</trkpt>
<trkpt lat="40.0738001" lon="-105.2301198">
  <ele>1589.74</ele>
  <time>2026-08-27T18:26:55Z</time>
  <course>11.0</course>
  <speed>0.19697715603592209</speed>
  <fix>3d</fix>
</trkpt>
<trkpt lat="40.0737999" lon="-105.2301203">
  <ele>1588.99</ele>
  <time>2026-08-27T18:26:55Z</time>
  <course>72.65</course>
  <speed>0.19</speed>
  <fix>3d</fix>
</trkpt>
<trkpt lat="40.0738001" lon="-105.2301198">
  <ele>1589.81</ele>
  <time>2026-08-27T18:26:55Z</time>
  <course>11.11</course>
  <speed>0.18788294228055935</speed>
  <fix>3d</fix>
</trkpt>
<trkpt lat="40.0738002" lon="-105.2301194">
  <ele>1590.23</ele>
  <time>2026-08-27T18:26:55Z</time>
  <course>11.74</course>
  <speed>0.2</speed>
  <fix>3d</fix>
</trkpt>
<trkpt lat="40.0738001" lon="-105.2301198">
  <ele>1589.48</ele>
  <time>2026-08-27T18:26:55Z</time>
  <course>58.96</course>
  <speed>0.21</speed>
  <fix>3d</fix>
</trkpt>
<trkpt lat="40.0738003" lon="-105.2301194">
  <ele>1590.31</ele>
  <time>2026-08-27T18:26:55Z</time>
  <course>11.84</course>
  <speed>0.20615528128088303</speed>
  <fix>3d</fix>
</trkpt>
<trkpt lat="40.0738005" lon="-105.230119">
  <ele>1590.73</ele>
  <time>2026-08-27T18:26:55Z</time>
  <course>12.41</course>
  <speed>0.20518284528683192</speed>
  <fix>3d</fix>
</trkpt>
<trkpt lat="40.0738003" lon="-105.2301193">
  <ele>1589.98</ele>
  <time>2026-08-27T18:26:55Z</time>
  <course>48.42</course>
  <speed>0.23</speed>
  <fix>3d</fix>
</trkpt>
<trkpt lat="40.0738005" lon="-105.230119">
  <ele>1590.73</ele>
  <time>2026-08-27T18:26:55Z</time>
  <course>12.42</course>
  <speed>0.20518284528683192</speed>
  <fix>3d</fix>
</trkpt>
<trkpt lat="40.0738009" lon="-105.2301187">
  <ele>1591.22</ele>
  <time>2026-08-27T18:26:55Z</time>
  <course>12.98</course>
  <speed>0.20248456731316586</speed>
  <fix>3d</fix>
</trkpt>
<trkpt lat="40.0738005" lon="-105.230119">
  <ele>1590.47</ele>
  <time>2026-08-27T18:26:55Z</time>
  <course>39.99</course>
  <speed>0.23</speed>
  <fix>3d</fix>
</trkpt>
<trkpt lat="40.0738009" lon="-105.2301187">
  <ele>1591.3</ele>
  <time>2026-08-27T18:26:55Z</time>
  <course>13.06</course>
  <speed>0.20248456731316586</speed>
  <fix>3d</fix>
</trkpt>
<trkpt lat="40.0738012" lon="-105.2301185">
  <ele>1591.72</ele>
  <time>2026-08-27T18:26:55Z</time>
  <course>13.49</course>
  <speed>0.20124611797498107</speed>
  <fix>3d</fix>
</trkpt>
<trkpt lat="40.0738008" lon="-105.2301187">
  <ele>1590.97</ele>
  <time>2026-08-27T18:26:55Z</time>
  <course>33.07</course>
  <speed>0.23</speed>
  <fix>3d</fix>
</trkpt>
<trkpt lat="40.0738013" lon="-105.2301184">
  <ele>1591.79</ele>
  <time>2026-08-27T18:26:55Z</time>
  <course>13.57</course>
  <speed>0.19697715603592209</speed>
  <fix>3d</fix>
</trkpt>
<trkpt lat="40.0738016" lon="-105.2301183">
  <ele>1592.22</ele>
  <time>2026-08-27T18:26:55Z</time>
  <course>13.97</course>
  <speed>0.18973665961010278</speed>
  <fix>3d</fix>
</trkpt>
<trkpt lat="40.0738012" lon="-105.2301184">
  <ele>1591.47</ele>
  <time>2026-08-27T18:26:55Z</time>
  <course>27.21</course>
  <speed>0.22</speed>
  <fix>3d</fix>
</trkpt>
<trkpt lat="40.0738016" lon="-105.2301182">
  <ele>1592.29</ele>
  <time>2026-08-27T18:26:55Z</time>
  <course>14.04</course>
  <speed>0.18973665961010278</speed>
  <fix>3d</fix>
</trkpt>
<trkpt lat="40.0738019" lon="-105.2301181">
  <ele>1592.72</ele>
  <time>2026-08-27T18:26:55Z</time>
  <course>14.41</course>
  <speed>0.17464249196572978</speed>
  <fix>3d</fix>
</trkpt>
<trkpt lat="40.0738015" lon="-105.2301182">
  <ele>1591.96</ele>
  <time>2026-08-27T18:26:55Z</time>
  <course>22.16</course>
  <speed>0.2</speed>
  <fix>3d</fix>
</trkpt>
<trkpt lat="40.073802" lon="-105.2301181">
  <ele>1592.79</ele>
  <time>2026-08-27T18:26:55Z</time>
  <course>14.47</course>
  <speed>0.17464249196572978</speed>
  <fix>3d</fix>
</trkpt>
<trkpt lat="40.0738022" lon="-105.230118">
  <ele>1593.22</ele>
  <time>2026-08-27T18:26:55Z</time>
  <course>14.81</course>
  <speed>0.16124515496597097</speed>
  <fix>3d</fix>
</trkpt>
<trkpt lat="40.0738019" lon="-105.2301181">
  <ele>1592.46</ele>
  <time>2026-08-27T18:26:55Z</time>
  <course>17.64</course>
  <speed>0.19</speed>
  <fix>3d</fix>
</trkpt>
<trkpt lat="40.0738023" lon="-105.230118">
  <ele>1593.29</ele>
  <time>2026-08-27T18:26:55Z</time>
  <course>14.86</course>
  <speed>0.15132745950421556</speed>
  <fix>3d</fix>
</trkpt>
<trkpt lat="40.0738025" lon="-105.230118">
  <ele>1593.72</ele>
  <time>2026-08-27T18:26:55Z</time>
  <course>15.19</course>
  <speed>0.14</speed>
  <fix>3d</fix>
</trkpt>
<trkpt lat="40.0738022" lon="-105.2301179">
  <ele>1592.96</ele>
  <time>2026-08-27T18:26:55Z</time>
  <course>13.23</course>
  <speed>0.17</speed>
  <fix>3d</fix>
</trkpt>
<trkpt lat="40.0738025" lon="-105.230118">
  <ele>1593.73</ele>
  <time>2026-08-27T18:26:55Z</time>
  <course>15.2</course>
  <speed>0.14</speed>
  <fix>3d</fix>
</trkpt>
<trkpt lat="40.0738027" lon="-105.230118">
  <ele>1594.22</ele>
  <time>2026-08-27T18:26:55Z</time>
  <course>15.54</course>
  <speed>0.12041594578792296</speed>
  <fix>3d</fix>
</trkpt>
<trkpt lat="40.0738025" lon="-105.2301179">
  <ele>1593.46</ele>
  <time>2026-08-27T18:26:55Z</time>
  <course>8.6</course>
  <speed>0.14</speed>
  <fix>3d</fix>
</trkpt>
<trkpt lat="40.0738028" lon="-105.230118">
  <ele>1594.29</ele>
  <time>2026-08-27T18:26:55Z</time>
  <course>15.59</course>
  <speed>0.11045361017187261</speed>
  <fix>3d</fix>
</trkpt>
<trkpt lat="40.0738029" lon="-105.2301179">
  <ele>1594.72</ele>
  <time>2026-08-27T18:26:55Z</time>
  <course>15.91</course>
  <speed>0.09219544457292887</speed>
  <fix>3d</fix>
</trkpt>
<trkpt lat="40.0738027" lon="-105.2301179">
  <ele>1593.96</ele>
  <time>2026-08-27T18:26:55Z</time>
  <course>3.54</course>
  <speed>0.12</speed>
  <fix>3d</fix>
</trkpt>
<trkpt lat="40.073803" lon="-105.2301179">
  <ele>1594.8</ele>
  <time>2026-08-27T18:26:55Z</time>
  <course>15.95</course>
  <speed>0.09219544457292887</speed>
  <fix>3d</fix>
</trkpt>
<trkpt lat="40.0738031" lon="-105.2301179">
  <ele>1595.22</ele>
  <time>2026-08-27T18:26:55Z</time>
  <course>16.2</course>
  <speed>0.07615773105863909</speed>
  <fix>3d</fix>
</trkpt>
<trkpt lat="40.073803" lon="-105.2301179">
  <ele>1594.46</ele>
  <time>2026-08-27T18:26:55Z</time>
  <course>357.74</course>
  <speed>0.09</speed>
  <fix>3d</fix>
</trkpt>
<trkpt lat="40.0738031" lon="-105.2301179">
  <ele>1595.29</ele>
  <time>2026-08-27T18:26:55Z</time>
  <course>16.25</course>
  <speed>0.0670820393249937</speed>
  <fix>3d</fix>
</trkpt>
<trkpt lat="40.0738032" lon="-105.230118">
  <ele>1595.72</ele>
  <time>2026-08-27T18:26:55Z</time>
  <course>16.51</course>
  <speed>0.0565685424949238</speed>
  <fix>3d</fix>
</trkpt>
<trkpt lat="40.0738031" lon="-105.2301179">
  <ele>1594.96</ele>
  <time>2026-08-27T18:26:55Z</time>
  <course>350.44</course>
  <speed>0.07</speed>
  <fix>3d</fix>
</trkpt>
<trkpt lat="40.0738032" lon="-105.230118">
  <ele>1595.73</ele>
  <time>2026-08-27T18:26:55Z</time>
  <course>16.52</course>
  <speed>0.0565685424949238</speed>
  <fix>3d</fix>
</trkpt>
<trkpt lat="40.0738032" lon="-105.230118">
  <ele>1596.22</ele>
  <time>2026-08-27T18:26:55Z</time>
  <course>16.78</course>
  <speed>0.044721359549995794</speed>
  <fix>3d</fix>
</trkpt>
<trkpt lat="40.0738032" lon="-105.2301179">
  <ele>1595.46</ele>
  <time>2026-08-27T18:26:55Z</time>
  <course>338.95</course>
  <speed>0.04</speed>
  <fix>3d</fix>
</trkpt>
<trkpt lat="40.0738032" lon="-105.230118">
  <ele>1596.3</ele>
  <time>2026-08-27T18:26:55Z</time>
  <course>16.82</course>
  <speed>0.044721359549995794</speed>
  <fix>3d</fix>
</trkpt>
<trkpt lat="40.0738033" lon="-105.2301181">
  <ele>1596.72</ele>
  <time>2026-08-27T18:26:55Z</time>
  <course>17.07</course>
  <speed>0.04</speed>
  <fix>3d</fix>
</trkpt>
<trkpt lat="40.0738033" lon="-105.2301179">
  <ele>1595.95</ele>
  <time>2026-08-27T18:26:55Z</time>
  <course>314.43</course>
  <speed>0.02</speed>
  <fix>3d</fix>
</trkpt>
<trkpt lat="40.0738033" lon="-105.2301181">
  <ele>1596.78</ele>
  <time>2026-08-27T18:26:55Z</time>
  <course>17.1</course>
  <speed>0.04</speed>
  <fix>3d</fix>
</trkpt>
<trkpt lat="40.0738032" lon="-105.2301181">
  <ele>1597.22</ele>
  <time>2026-08-27T18:26:55Z</time>
  <course>17.35</course>
  <speed>0.0412310562561766</speed>
  <fix>3d</fix>
</trkpt>
<trkpt lat="40.0738033" lon="-105.2301179">
  <ele>1596.45</ele>
  <time>2026-08-27T18:26:55Z</time>
  <course>264.31</course>
  <speed>0.02</speed>
  <fix>3d</fix>
</trkpt>
<trkpt lat="40.0738032" lon="-105.2301182">
  <ele>1597.23</ele>
  <time>2026-08-27T18:26:55Z</time>
  <course>17.36</course>
  <speed>0.0412310562561766</speed>
  <fix>3d</fix>
</trkpt>
<trkpt lat="40.0738032" lon="-105.2301182">
  <ele>1597.72</ele>
  <time>2026-08-27T18:26:55Z</time>
  <course>17.59</course>
  <speed>0.05</speed>
  <fix>3d</fix>
</trkpt>
<trkpt lat="40.0738033" lon="-105.2301179">
  <ele>1596.95</ele>
  <time>2026-08-27T18:26:55Z</time>
  <course>225.85</course>
  <speed>0.03</speed>
  <fix>3d</fix>
</trkpt>
<trkpt lat="40.0738032" lon="-105.2301182">
  <ele>1597.8</ele>
  <time>2026-08-27T18:26:55Z</time>
  <course>17.64</course>
  <speed>0.05</speed>
  <fix>3d</fix>
</trkpt>
<trkpt lat="40.0738032" lon="-105.2301182">
  <ele>1598.23</ele>
  <time>2026-08-27T18:26:55Z</time>
  <course>17.86</course>
  <speed>0.0565685424949238</speed>
  <fix>3d</fix>
</trkpt>
<trkpt lat="40.0738033" lon="-105.2301179">
  <ele>1597.45</ele>
  <time>2026-08-27T18:26:55Z</time>
  <course>210.12</course>
  <speed>0.04</speed>
  <fix>3d</fix>
</trkpt>
<trkpt lat="40.0738032" lon="-105.2301182">
  <ele>1598.31</ele>
  <time>2026-08-27T18:26:55Z</time>
  <course>17.9</course>
  <speed>0.0565685424949238</speed>
  <fix>3d</fix>
</trkpt>
<trkpt lat="40.0738031" lon="-105.2301183">
  <ele>1598.73</ele>
  <time>2026-08-27T18:26:55Z</time>
  <course>18.1</course>
  <speed>0.06403124237432849</speed>
  <fix>3d</fix>
</trkpt>
<trkpt lat="40.0738032" lon="-105.230118">
  <ele>1597.95</ele>
  <time>2026-08-27T18:26:55Z</time>
  <course>202.82</course>
  <speed>0.05</speed>
  <fix>3d</fix>
</trkpt>
<trkpt lat="40.0738031" lon="-105.2301183">
  <ele>1598.74</ele>
  <time>2026-08-27T18:26:55Z</time>
  <course>18.11</course>
  <speed>0.06403124237432849</speed>
  <fix>3d</fix>
</trkpt>
<trkpt lat="40.073803" lon="-105.2301183">
  <ele>1599.23</ele>
  <time>2026-08-27T18:26:55Z</time>
  <course>18.37</course>
  <speed>0.06403124237432849</speed>
  <fix>3d</fix>
</trkpt>
<trkpt lat="40.0738031" lon="-105.2301181">
  <ele>1598.45</ele>
  <time>2026-08-27T18:26:55Z</time>
  <course>198.9</course>
  <speed>0.06</speed>
  <fix>3d</fix>
</trkpt>
<trkpt lat="40.073803" lon="-105.2301183">
  <ele>1599.31</ele>
  <time>2026-08-27T18:26:55Z</time>
  <course>18.41</course>
  <speed>0.06403124237432849</speed>
  <fix>3d</fix>
</trkpt>
<trkpt lat="40.0738029" lon="-105.2301183">
  <ele>1599.74</ele>
  <time>2026-08-27T18:26:55Z</time>
  <course>18.62</course>
  <speed>0.0670820393249937</speed>
  <fix>3d</fix>
</trkpt>
<trkpt lat="40.073803" lon="-105.2301181">
  <ele>1598.95</ele>
  <time>2026-08-27T18:26:55Z</time>
  <course>196.84</course>
  <speed>0.07</speed>
  <fix>3d</fix>
</trkpt>
<trkpt lat="40.0738029" lon="-105.2301183">
  <ele>1599.75</ele>
  <time>2026-08-27T18:26:55Z</time>
  <course>18.62</course>
  <speed>0.0670820393249937</speed>
  <fix>3d</fix>
</trkpt>
<trkpt lat="40.0738028" lon="-105.2301184">
  <ele>1600.24</ele>
  <time>2026-08-27T18:26:55Z</time>
  <course>18.86</course>
  <speed>0.0670820393249937</speed>
  <fix>3d</fix>
</trkpt>
<trkpt lat="40.0738028" lon="-105.2301182">
  <ele>1599.44</ele>
  <time>2026-08-27T18:26:55Z</time>
  <course>195.28</course>
  <speed>0.07</speed>
  <fix>3d</fix>
</trkpt>
<trkpt lat="40.0738027" lon="-105.2301184">
  <ele>1600.36</ele>
  <time>2026-08-27T18:26:55Z</time>
  <course>18.93</course>
  <speed>0.0670820393249937</speed>
  <fix>3d</fix>
</trkpt>
<trkpt lat="40.0738026" lon="-105.2301184">
  <ele>1600.74</ele>
  <time>2026-08-27T18:26:55Z</time>
  <course>19.09</course>
  <speed>0.05830951894845301</speed>
  <fix>3d</fix>
</trkpt>
<trkpt lat="40.0738027" lon="-105.2301183">
  <ele>1599.94</ele>
  <time>2026-08-27T18:26:55Z</time>
  <course>193.87</course>
  <speed>0.07</speed>
  <fix>3d</fix>
</trkpt>
<trkpt lat="40.0738026" lon="-105.2301184">
  <ele>1600.85</ele>
  <time>2026-08-27T18:26:55Z</time>
  <course>19.15</course>
  <speed>0.05830951894845301</speed>
  <fix>3d</fix>
</trkpt>
<trkpt lat="40.0738025" lon="-105.2301184">
  <ele>1601.24</ele>
  <time>2026-08-27T18:26:55Z</time>
  <course>19.32</course>
  <speed>0.053851648071345036</speed>
  <fix>3d</fix>
</trkpt>
<trkpt lat="40.0738026" lon="-105.2301183">
  <ele>1600.43</ele>
  <time>2026-08-27T18:26:55Z</time>
  <course>192.33</course>
  <speed>0.07</speed>
  <fix>3d</fix>
</trkpt>
<trkpt lat="40.0738025" lon="-105.2301184">
  <ele>1601.32</ele>
  <time>2026-08-27T18:26:55Z</time>
  <course>19.36</course>
  <speed>0.053851648071345036</speed>
  <fix>3d</fix>
</trkpt>
<trkpt lat="40.0738024" lon="-105.2301185">
  <ele>1601.73</ele>
  <time>2026-08-27T18:26:55Z</time>
  <course>19.51</course>
  <speed>0.044721359549995794</speed>
  <fix>3d</fix>
</trkpt>
<trkpt lat="40.0738025" lon="-105.2301183">
  <ele>1600.93</ele>
  <time>2026-08-27T18:26:55Z</time>
  <course>190.7</course>
  <speed>0.07</speed>
  <fix>3d</fix>
</trkpt>
<trkpt lat="40.0738024" lon="-105.2301185">
  <ele>1601.81</ele>
  <time>2026-08-27T18:26:55Z</time>
  <course>19.55</course>
  <speed>0.044721359549995794</speed>
  <fix>3d</fix>
</trkpt>
<trkpt lat="40.0738023" lon="-105.2301185">
  <ele>1602.22</ele>
  <time>2026-08-27T18:26:55Z</time>
  <course>19.71</course>
  <speed>0.03605551275463989</speed>
  <fix>3d</fix>
</trkpt>
<trkpt lat="40.0738023" lon="-105.2301184">
  <ele>1601.42</ele>
  <time>2026-08-27T18:26:55Z</time>
  <course>189.87</course>
  <speed>0.06</speed>
  <fix>3d</fix>
</trkpt>
<trkpt lat="40.0738023" lon="-105.2301185">
  <ele>1602.31</ele>
  <time>2026-08-27T18:26:55Z</time>
  <course>19.73</course>
  <speed>0.03605551275463989</speed>
  <fix>3d</fix>
</trkpt>
<trkpt lat="40.0738022" lon="-105.2301185">
  <ele>1602.71</ele>
  <time>2026-08-27T18:26:55Z</time>
  <course>19.85</course>
  <speed>0.0282842712474619</speed>
  <fix>3d</fix>
</trkpt>
<trkpt lat="40.0738022" lon="-105.2301184">
  <ele>1601.92</ele>
  <time>2026-08-27T18:26:55Z</time>
  <course>189.37</course>
  <speed>0.05</speed>
  <fix>3d</fix>
</trkpt>
<trkpt lat="40.0738022" lon="-105.2301185">
  <ele>1602.79</ele>
  <time>2026-08-27T18:26:55Z</time>
  <course>19.87</course>
  <speed>0.0282842712474619</speed>
  <fix>3d</fix>
</trkpt>
<trkpt lat="40.0738022" lon="-105.2301185">
  <ele>1603.21</ele>
  <time>2026-08-27T18:26:55Z</time>
  <course>20.01</course>
  <speed>0.01414213562373095</speed>
  <fix>3d</fix>
</trkpt>
<trkpt lat="40.0738021" lon="-105.2301184">
  <ele>1602.41</ele>
  <time>2026-08-27T18:26:55Z</time>
  <course>189.0</course>
  <speed>0.04</speed>
  <fix>3d</fix>
</trkpt>
<trkpt lat="40.0738022" lon="-105.2301185">
  <ele>1603.22</ele>
  <time>2026-08-27T18:26:55Z</time>
  <course>20.01</course>
  <speed>0.01414213562373095</speed>
  <fix>3d</fix>
</trkpt>
<trkpt lat="40.0738021" lon="-105.2301185">
  <ele>1603.71</ele>
  <time>2026-08-27T18:26:55Z</time>
  <course>20.16</course>
  <speed>0.01</speed>
  <fix>3d</fix>
</trkpt>
<trkpt lat="40.073802" lon="-105.2301184">
  <ele>1602.91</ele>
  <time>2026-08-27T18:26:55Z</time>
  <course>188.94</course>
  <speed>0.03</speed>
  <fix>3d</fix>
</trkpt>
<trkpt lat="40.0738021" lon="-105.2301185">
  <ele>1603.79</ele>
  <time>2026-08-27T18:26:55Z</time>
  <course>20.19</course>
  <speed>0.01</speed>
  <fix>3d</fix>
</trkpt>
<trkpt lat="40.0738021" lon="-105.2301185">
  <ele>1604.22</ele>
  <time>2026-08-27T18:26:55Z</time>
  <course>20.36</course>
  <speed>0.01</speed>
  <fix>3d</fix>
</trkpt>
<trkpt lat="40.073802" lon="-105.2301184">
  <ele>1603.41</ele>
  <time>2026-08-27T18:26:55Z</time>
  <course>189.47</course>
  <speed>0.03</speed>
  <fix>3d</fix>
</trkpt>
<trkpt lat="40.0738021" lon="-105.2301185">
  <ele>1604.28</ele>
  <time>2026-08-27T18:26:55Z</time>
  <course>20.38</course>
  <speed>0.01</speed>
  <fix>3d</fix>
</trkpt>
<trkpt lat="40.073802" lon="-105.2301185">
  <ele>1604.72</ele>
  <time>2026-08-27T18:26:55Z</time>
  <course>20.52</course>
  <speed>0.01</speed>
  <fix>3d</fix>
</trkpt>
<trkpt lat="40.073802" lon="-105.2301184">
  <ele>1603.91</ele>
  <time>2026-08-27T18:26:55Z</time>
  <course>190.57</course>
  <speed>0.02</speed>
  <fix>3d</fix>
</trkpt>
<trkpt lat="40.073802" lon="-105.2301185">
  <ele>1604.79</ele>
  <time>2026-08-27T18:26:55Z</time>
  <course>20.55</course>
  <speed>0.01</speed>
  <fix>3d</fix>
</trkpt>
<trkpt lat="40.073802" lon="-105.2301185">
  <ele>1605.22</ele>
  <time>2026-08-27T18:26:55Z</time>
  <course>20.69</course>
  <speed>0.01414213562373095</speed>
  <fix>3d</fix>
</trkpt>
<trkpt lat="40.0738019" lon="-105.2301184">
  <ele>1604.41</ele>
  <time>2026-08-27T18:26:55Z</time>
  <course>192.4</course>
  <speed>0.01</speed>
  <fix>3d</fix>
</trkpt>
<trkpt lat="40.073802" lon="-105.2301185">
  <ele>1605.29</ele>
  <time>2026-08-27T18:26:55Z</time>
  <course>20.71</course>
  <speed>0.01414213562373095</speed>
  <fix>3d</fix>
</trkpt>
<trkpt lat="40.073802" lon="-105.2301185">
  <ele>1605.72</ele>
  <time>2026-08-27T18:26:55Z</time>
  <course>20.83</course>
  <speed>0.022360679774997897</speed>
  <fix>3d</fix>
</trkpt>
<trkpt lat="40.0738019" lon="-105.2301184">
  <ele>1604.91</ele>
  <time>2026-08-27T18:26:55Z</time>
  <course>199.29</course>
  <speed>0.0</speed>
  <fix>3d</fix>
</trkpt>
<trkpt lat="40.073802" lon="-105.2301185">
  <ele>1605.72</ele>
  <time>2026-08-27T18:26:55Z</time>
  <course>20.83</course>
  <speed>0.022360679774997897</speed>
  <fix>3d</fix>
</trkpt>
<trkpt lat="40.073802" lon="-105.2301185">
  <ele>1606.21</ele>
  <time>2026-08-27T18:26:55Z</time>
  <course>20.94</course>
  <speed>0.022360679774997897</speed>
  <fix>3d</fix>
</trkpt>
<trkpt lat="40.0738019" lon="-105.2301184">
  <ele>1605.41</ele>
  <time>2026-08-27T18:26:55Z</time>
  <course>260.0</course>
  <speed>0.0</speed>
  <fix>3d</fix>
</trkpt>
<trkpt lat="40.073802" lon="-105.2301185">
  <ele>1606.26</ele>
  <time>2026-08-27T18:26:55Z</time>
  <course>20.95</course>
  <speed>0.022360679774997897</speed>
  <fix>3d</fix>
</trkpt>
<trkpt lat="40.073802" lon="-105.2301185">
  <ele>1606.71</ele>
  <time>2026-08-27T18:26:56Z</time>
  <course>21.05</course>
  <speed>0.0316227766016838</speed>
  <fix>3d</fix>
</trkpt>
<trkpt lat="40.0738019" lon="-105.2301184">
  <ele>1605.91</ele>
  <time>2026-08-27T18:26:56Z</time>
  <course>347.64</course>
  <speed>0.0</speed>
  <fix>3d</fix>
</trkpt>
<trkpt lat="40.073802" lon="-105.2301185">
  <ele>1606.79</ele>
  <time>2026-08-27T18:26:56Z</time>
  <course>21.06</course>
  <speed>0.0316227766016838</speed>
  <fix>3d</fix>
</trkpt>
<trkpt lat="40.073802" lon="-105.2301185">
  <ele>1607.21</ele>
  <time>2026-08-27T18:26:56Z</time>
  <course>21.16</course>
  <speed>0.0316227766016838</speed>
  <fix>3d</fix>
</trkpt>
<trkpt lat="40.0738019" lon="-105.2301184">
  <ele>1606.41</ele>
  <time>2026-08-27T18:26:56Z</time>
  <course>358.6</course>
  <speed>0.0</speed>
  <fix>3d</fix>
</trkpt>
<trkpt lat="40.073802" lon="-105.2301185">
  <ele>1607.28</ele>
  <time>2026-08-27T18:26:56Z</time>
  <course>21.18</course>
  <speed>0.0316227766016838</speed>
  <fix>3d</fix>
</trkpt>
<trkpt lat="40.073802" lon="-105.2301185">
  <ele>1607.7</ele>
  <time>2026-08-27T18:26:56Z</time>
  <course>21.27</course>
  <speed>0.0316227766016838</speed>
  <fix>3d</fix>
</trkpt>
<trkpt lat="40.0738019" lon="-105.2301184">
  <ele>1606.91</ele>
  <time>2026-08-27T18:26:56Z</time>
  <course>3.03</course>
  <speed>0.01</speed>
  <fix>3d</fix>
</trkpt>
<trkpt lat="40.073802" lon="-105.2301185">
  <ele>1607.77</ele>
  <time>2026-08-27T18:26:56Z</time>
  <course>21.29</course>
  <speed>0.0316227766016838</speed>
  <fix>3d</fix>
</trkpt>
<trkpt lat="40.0738021" lon="-105.2301185">
  <ele>1608.19</ele>
  <time>2026-08-27T18:26:56Z</time>
  <course>21.37</course>
  <speed>0.0316227766016838</speed>
  <fix>3d</fix>
</trkpt>
<trkpt lat="40.0738019" lon="-105.2301184">
  <ele>1607.41</ele>
  <time>2026-08-27T18:26:56Z</time>
  <course>4.41</course>
  <speed>0.01</speed>
  <fix>3d</fix>
</trkpt>
<trkpt lat="40.0738021" lon="-105.2301185">
  <ele>1608.31</ele>
  <time>2026-08-27T18:26:56Z</time>
  <course>21.4</course>
  <speed>0.0316227766016838</speed>
  <fix>3d</fix>
</trkpt>
<trkpt lat="40.0738021" lon="-105.2301185">
  <ele>1608.69</ele>
  <time>2026-08-27T18:26:56Z</time>
  <course>21.47</course>
  <speed>0.0316227766016838</speed>
  <fix>3d</fix>
</trkpt>
<trkpt lat="40.0738019" lon="-105.2301184">
  <ele>1607.91</ele>
  <time>2026-08-27T18:26:56Z</time>
  <course>3.73</course>
  <speed>0.01</speed>
  <fix>3d</fix>
</trkpt>
<trkpt lat="40.0738021" lon="-105.2301185">
  <ele>1608.7</ele>
  <time>2026-08-27T18:26:56Z</time>
  <course>21.48</course>
  <speed>0.0316227766016838</speed>
  <fix>3d</fix>
</trkpt>
<trkpt lat="40.0738021" lon="-105.2301185">
  <ele>1609.19</ele>
  <time>2026-08-27T18:26:56Z</time>
  <course>21.57</course>
  <speed>0.0316227766016838</speed>
  <fix>3d</fix>
</trkpt>
<trkpt lat="40.0738019" lon="-105.2301184">
  <ele>1608.41</ele>
  <time>2026-08-27T18:26:56Z</time>
  <course>2.58</course>
  <speed>0.01</speed>
  <fix>3d</fix>
</trkpt>
<trkpt lat="40.0738021" lon="-105.2301185">
  <ele>1609.27</ele>
  <time>2026-08-27T18:26:56Z</time>
  <course>21.58</course>
  <speed>0.0316227766016838</speed>
  <fix>3d</fix>
</trkpt>
<trkpt lat="40.0738021" lon="-105.2301185">
  <ele>1609.69</ele>
  <time>2026-08-27T18:26:56Z</time>
  <course>21.67</course>
  <speed>0.0316227766016838</speed>
  <fix>3d</fix>
</trkpt>
<trkpt lat="40.0738019" lon="-105.2301184">
  <ele>1608.91</ele>
  <time>2026-08-27T18:26:56Z</time>
  <course>1.48</course>
  <speed>0.01</speed>
  <fix>3d</fix>
</trkpt>
<trkpt lat="40.0738021" lon="-105.2301185">
  <ele>1609.76</ele>
  <time>2026-08-27T18:26:56Z</time>
  <course>21.68</course>
  <speed>0.0316227766016838</speed>
  <fix>3d</fix>
</trkpt>
<trkpt lat="40.0738021" lon="-105.2301185">
  <ele>1610.2</ele>
  <time>2026-08-27T18:26:56Z</time>
  <course>21.77</course>
  <speed>0.0316227766016838</speed>
  <fix>3d</fix>
</trkpt>
<trkpt lat="40.073802" lon="-105.2301184">
  <ele>1609.42</ele>
  <time>2026-08-27T18:26:56Z</time>
  <course>359.2</course>
  <speed>0.01</speed>
  <fix>3d</fix>
</trkpt>
<trkpt lat="40.0738021" lon="-105.2301185">
  <ele>1610.27</ele>
  <time>2026-08-27T18:26:56Z</time>
  <course>21.78</course>
  <speed>0.0316227766016838</speed>
  <fix>3d</fix>
</trkpt>
<trkpt lat="40.0738021" lon="-105.2301185">
  <ele>1610.7</ele>
  <time>2026-08-27T18:26:56Z</time>
  <course>21.88</course>
  <speed>0.0316227766016838</speed>
  <fix>3d</fix>
</trkpt>
<trkpt lat="40.073802" lon="-105.2301184">
  <ele>1609.92</ele>
  <time>2026-08-27T18:26:56Z</time>
  <course>357.81</course>
  <speed>0.0</speed>
  <fix>3d</fix>
</trkpt>
<trkpt lat="40.0738021" lon="-105.2301185">
  <ele>1610.71</ele>
  <time>2026-08-27T18:26:56Z</time>
  <course>21.88</course>
  <speed>0.0316227766016838</speed>
  <fix>3d</fix>
</trkpt>
<trkpt lat="40.0738021" lon="-105.2301185">
  <ele>1611.2</ele>
  <time>2026-08-27T18:26:56Z</time>
  <course>21.95</course>
  <speed>0.022360679774997897</speed>
  <fix>3d</fix>
</trkpt>
<trkpt lat="40.073802" lon="-105.2301184">
  <ele>1610.43</ele>
  <time>2026-08-27T18:26:56Z</time>
  <course>357.62</course>
  <speed>0.0</speed>
  <fix>3d</fix>
</trkpt>
<trkpt lat="40.0738021" lon="-105.2301185">
  <ele>1611.28</ele>
  <time>2026-08-27T18:26:56Z</time>
  <course>21.96</course>
  <speed>0.022360679774997897</speed>
  <fix>3d</fix>
</trkpt>
<trkpt lat="40.0738022" lon="-105.2301185">
  <ele>1611.7</ele>
  <time>2026-08-27T18:26:56Z</time>
  <course>22.07</course>
  <speed>0.022360679774997897</speed>
  <fix>3d</fix>
</trkpt>
<trkpt lat="40.073802" lon="-105.2301184">
  <ele>1610.94</ele>
  <time>2026-08-27T18:26:56Z</time>
  <course>0.43</course>
  <speed>0.0</speed>
  <fix>3d</fix>
</trkpt>
<trkpt lat="40.0738022" lon="-105.2301185">
  <ele>1611.72</ele>
  <time>2026-08-27T18:26:56Z</time>
  <course>22.07</course>
  <speed>0.022360679774997897</speed>
  <fix>3d</fix>
</trkpt>
<trkpt lat="40.0738022" lon="-105.2301185">
  <ele>1612.21</ele>
  <time>2026-08-27T18:26:56Z</time>
  <course>22.16</course>
  <speed>0.022360679774997897</speed>
  <fix>3d</fix>
</trkpt>
<trkpt lat="40.073802" lon="-105.2301184">
  <ele>1611.44</ele>
  <time>2026-08-27T18:26:56Z</time>
  <course>15.51</course>
  <speed>0.0</speed>
  <fix>3d</fix>
</trkpt>
<trkpt lat="40.0738022" lon="-105.2301185">
  <ele>1612.28</ele>
  <time>2026-08-27T18:26:56Z</time>
  <course>22.17</course>
  <speed>0.022360679774997897</speed>
  <fix>3d</fix>
</trkpt>
<trkpt lat="40.0738021" lon="-105.2301185">
  <ele>1612.71</ele>
  <time>2026-08-27T18:26:56Z</time>
  <course>22.23</course>
  <speed>0.022360679774997897</speed>
  <fix>3d</fix>
</trkpt>
<trkpt lat="40.073802" lon="-105.2301184">
  <ele>1611.95</ele>
  <time>2026-08-27T18:26:56Z</time>
  <course>61.71</course>
  <speed>0.0</speed>
  <fix>3d</fix>
</trkpt>
<trkpt lat="40.0738022" lon="-105.2301185">
  <ele>1612.79</ele>
  <time>2026-08-27T18:26:56Z</time>
  <course>22.25</course>
  <speed>0.022360679774997897</speed>
  <fix>3d</fix>
</trkpt>
<trkpt lat="40.0738021" lon="-105.2301185">
  <ele>1613.22</ele>
  <time>2026-08-27T18:26:56Z</time>
  <course>22.33</course>
  <speed>0.022360679774997897</speed>
  <fix>3d</fix>
</trkpt>
<trkpt lat="40.073802" lon="-105.2301184">
  <ele>1612.45</ele>
  <time>2026-08-27T18:26:56Z</time>
  <course>107.15</course>
  <speed>0.0</speed>
  <fix>3d</fix>
</trkpt>
<trkpt lat="40.0738021" lon="-105.2301185">
  <ele>1613.22</ele>
  <time>2026-08-27T18:26:56Z</time>
  <course>22.33</course>
  <speed>0.022360679774997897</speed>
  <fix>3d</fix>
</trkpt>
<trkpt lat="40.0738021" lon="-105.2301185">
  <ele>1613.72</ele>
  <time>2026-08-27T18:26:56Z</time>
  <course>22.39</course>
  <speed>0.01414213562373095</speed>
  <fix>3d</fix>
</trkpt>
<trkpt lat="40.073802" lon="-105.2301184">
  <ele>1612.95</ele>
  <time>2026-08-27T18:26:56Z</time>
  <course>127.77</course>
  <speed>0.0</speed>
  <fix>3d</fix>
</trkpt>
<trkpt lat="40.0738021" lon="-105.2301185">
  <ele>1613.8</ele>
  <time>2026-08-27T18:26:56Z</time>
  <course>22.4</course>
  <speed>0.01414213562373095</speed>
  <fix>3d</fix>
</trkpt>
<trkpt lat="40.0738021" lon="-105.2301185">
  <ele>1614.23</ele>
  <time>2026-08-27T18:26:56Z</time>
  <course>22.48</course>
  <speed>0.01414213562373095</speed>
  <fix>3d</fix>
</trkpt>
<trkpt lat="40.073802" lon="-105.2301184">
  <ele>1613.46</ele>
  <time>2026-08-27T18:26:56Z</time>
  <course>140.16</course>
  <speed>0.0</speed>
  <fix>3d</fix>
</trkpt>
<trkpt lat="40.0738021" lon="-105.2301185">
  <ele>1614.3</ele>
  <time>2026-08-27T18:26:56Z</time>
  <course>22.49</course>
  <speed>0.01414213562373095</speed>
  <fix>3d</fix>
</trkpt>
<trkpt lat="40.0738021" lon="-105.2301185">
  <ele>1614.73</ele>
  <time>2026-08-27T18:26:56Z</time>
  <course>22.55</course>
  <speed>0.01414213562373095</speed>
  <fix>3d</fix>
</trkpt>
<trkpt lat="40.073802" lon="-105.2301184">
  <ele>1613.96</ele>
  <time>2026-08-27T18:26:56Z</time>
  <course>149.58</course>
  <speed>0.0</speed>
  <fix>3d</fix>
</trkpt>
<trkpt lat="40.0738021" lon="-105.2301185">
  <ele>1614.74</ele>
  <time>2026-08-27T18:26:56Z</time>
  <course>22.55</course>
  <speed>0.01414213562373095</speed>
  <fix>3d</fix>
</trkpt>
<trkpt lat="40.0738021" lon="-105.2301185">
  <ele>1615.24</ele>
  <time>2026-08-27T18:26:56Z</time>
  <course>22.61</course>
  <speed>0.01414213562373095</speed>
  <fix>3d</fix>
</trkpt>
<trkpt lat="40.073802" lon="-105.2301184">
  <ele>1614.46</ele>
  <time>2026-08-27T18:26:56Z</time>
  <course>153.28</course>
  <speed>0.0</speed>
  <fix>3d</fix>
</trkpt>
<trkpt lat="40.0738021" lon="-105.2301185">
  <ele>1615.3</ele>
  <time>2026-08-27T18:26:56Z</time>
  <course>22.62</course>
  <speed>0.01414213562373095</speed>
  <fix>3d</fix>
</trkpt>
<trkpt lat="40.0738021" lon="-105.2301185">
  <ele>1615.74</ele>
  <time>2026-08-27T18:26:56Z</time>
  <course>22.69</course>
  <speed>0.01414213562373095</speed>
  <fix>3d</fix>
</trkpt>
<trkpt lat="40.073802" lon="-105.2301184">
  <ele>1614.96</ele>
  <time>2026-08-27T18:26:56Z</time>
  <course>156.0</course>
  <speed>0.0</speed>
  <fix>3d</fix>
</trkpt>
<trkpt lat="40.0738021" lon="-105.2301185">
  <ele>1615.74</ele>
  <time>2026-08-27T18:26:56Z</time>
  <course>22.69</course>
  <speed>0.01414213562373095</speed>
  <fix>3d</fix>
</trkpt>
<trkpt lat="40.0738021" lon="-105.2301185">
  <ele>1616.24</ele>
  <time>2026-08-27T18:26:56Z</time>
  <course>22.76</course>
  <speed>0.01414213562373095</speed>
  <fix>3d</fix>
</trkpt>
<trkpt lat="40.073802" lon="-105.2301184">
  <ele>1615.46</ele>
  <time>2026-08-27T18:26:56Z</time>
  <course>156.4</course>
  <speed>0.0</speed>
  <fix>3d</fix>
</trkpt>
<trkpt lat="40.0738021" lon="-105.2301185">
  <ele>1616.31</ele>
  <time>2026-08-27T18:26:56Z</time>
  <course>22.76</course>
  <speed>0.01414213562373095</speed>
  <fix>3d</fix>
</trkpt>
<trkpt lat="40.0738021" lon="-105.2301185">
  <ele>1616.73</ele>
  <time>2026-08-27T18:26:56Z</time>
  <course>22.82</course>
  <speed>0.01414213562373095</speed>
  <fix>3d</fix>
</trkpt>
<trkpt lat="40.073802" lon="-105.2301184">
  <ele>1615.96</ele>
  <time>2026-08-27T18:26:56Z</time>
  <course>155.09</course>
  <speed>0.0</speed>
  <fix>3d</fix>
</trkpt>
<trkpt lat="40.0738021" lon="-105.2301185">
  <ele>1616.81</ele>
  <time>2026-08-27T18:26:56Z</time>
  <course>22.83</course>
  <speed>0.01414213562373095</speed>
  <fix>3d</fix>
</trkpt>
<trkpt lat="40.0738021" lon="-105.2301185">
  <ele>1617.23</ele>
  <time>2026-08-27T18:26:56Z</time>
  <course>22.88</course>
  <speed>0.01414213562373095</speed>
  <fix>3d</fix>
</trkpt>
<trkpt lat="40.073802" lon="-105.2301184">
  <ele>1616.45</ele>
  <time>2026-08-27T18:26:56Z</time>
  <course>154.58</course>
  <speed>0.0</speed>
  <fix>3d</fix>
</trkpt>
<trkpt lat="40.0738021" lon="-105.2301185">
  <ele>1617.31</ele>
  <time>2026-08-27T18:26:56Z</time>
  <course>22.89</course>
  <speed>0.01414213562373095</speed>
  <fix>3d</fix>
</trkpt>
<trkpt lat="40.0738021" lon="-105.2301185">
  <ele>1617.73</ele>
  <time>2026-08-27T18:26:56Z</time>
  <course>22.93</course>
  <speed>0.01414213562373095</speed>
  <fix>3d</fix>
</trkpt>
<trkpt lat="40.073802" lon="-105.2301184">
  <ele>1616.95</ele>
  <time>2026-08-27T18:26:56Z</time>
  <course>154.22</course>
  <speed>0.0</speed>
  <fix>3d</fix>
</trkpt>
<trkpt lat="40.0738021" lon="-105.2301185">
  <ele>1617.8</ele>
  <time>2026-08-27T18:26:56Z</time>
  <course>22.94</course>
  <speed>0.01414213562373095</speed>
  <fix>3d</fix>
</trkpt>
<trkpt lat="40.0738021" lon="-105.2301185">
  <ele>1618.23</ele>
  <time>2026-08-27T18:26:56Z</time>
  <course>22.99</course>
  <speed>0.01414213562373095</speed>
  <fix>3d</fix>
</trkpt>
<trkpt lat="40.073802" lon="-105.2301184">
  <ele>1617.45</ele>
  <time>2026-08-27T18:26:56Z</time>
  <course>154.85</course>
  <speed>0.0</speed>
  <fix>3d</fix>
</trkpt>
<trkpt lat="40.0738021" lon="-105.2301185">
  <ele>1618.24</ele>
  <time>2026-08-27T18:26:56Z</time>
  <course>22.99</course>
  <speed>0.01414213562373095</speed>
  <fix>3d</fix>
</trkpt>
<trkpt lat="40.0738021" lon="-105.2301185">
  <ele>1618.74</ele>
  <time>2026-08-27T18:26:56Z</time>
  <course>23.05</course>
  <speed>0.01414213562373095</speed>
  <fix>3d</fix>
</trkpt>
<trkpt lat="40.073802" lon="-105.2301184">
  <ele>1617.95</ele>
  <time>2026-08-27T18:26:56Z</time>
  <course>156.87</course>
  <speed>0.0</speed>
  <fix>3d</fix>
</trkpt>
<trkpt lat="40.0738021" lon="-105.2301185">
  <ele>1618.81</ele>
  <time>2026-08-27T18:26:56Z</time>
  <course>23.06</course>
  <speed>0.01414213562373095</speed>
  <fix>3d</fix>
</trkpt>
<trkpt lat="40.0738021" lon="-105.2301185">
  <ele>1619.24</ele>
  <time>2026-08-27T18:26:56Z</time>
  <course>23.1</course>
  <speed>0.01414213562373095</speed>
  <fix>3d</fix>
</trkpt>
<trkpt lat="40.073802" lon="-105.2301184">
  <ele>1618.44</ele>
  <time>2026-08-27T18:26:56Z</time>
  <course>160.29</course>
  <speed>0.0</speed>
  <fix>3d</fix>
</trkpt>
<trkpt lat="40.0738021" lon="-105.2301185">
  <ele>1619.3</ele>
  <time>2026-08-27T18:26:56Z</time>
  <course>23.11</course>
  <speed>0.01414213562373095</speed>
  <fix>3d</fix>
</trkpt>
<trkpt lat="40.0738021" lon="-105.2301185">
  <ele>1619.73</ele>
  <time>2026-08-27T18:26:56Z</time>
  <course>23.18</course>
  <speed>0.01414213562373095</speed>
  <fix>3d</fix>
</trkpt>
<trkpt lat="40.073802" lon="-105.2301184">
  <ele>1618.94</ele>
  <time>2026-08-27T18:26:56Z</time>
  <course>163.56</course>
  <speed>0.0</speed>
  <fix>3d</fix>
</trkpt>
<trkpt lat="40.0738021" lon="-105.2301185">
  <ele>1619.8</ele>
  <time>2026-08-27T18:26:56Z</time>
  <course>23.19</course>
  <speed>0.01414213562373095</speed>
  <fix>3d</fix>
</trkpt>
<trkpt lat="40.0738021" lon="-105.2301185">
  <ele>1620.22</ele>
  <time>2026-08-27T18:26:56Z</time>
  <course>23.2</course>
  <speed>0.01414213562373095</speed>
  <fix>3d</fix>
</trkpt>
<trkpt lat="40.073802" lon="-105.2301184">
  <ele>1619.44</ele>
  <time>2026-08-27T18:26:56Z</time>
  <course>164.44</course>
  <speed>0.0</speed>
  <fix>3d</fix>
</trkpt>
<trkpt lat="40.0738021" lon="-105.2301185">
  <ele>1620.29</ele>
  <time>2026-08-27T18:26:56Z</time>
  <course>23.21</course>
  <speed>0.01414213562373095</speed>
  <fix>3d</fix>
</trkpt>
<trkpt lat="40.0738021" lon="-105.2301185">
  <ele>1620.72</ele>
  <time>2026-08-27T18:26:56Z</time>
  <course>23.25</course>
  <speed>0.01414213562373095</speed>
  <fix>3d</fix>
</trkpt>
<trkpt lat="40.0738019" lon="-105.2301184">
  <ele>1619.94</ele>
  <time>2026-08-27T18:26:56Z</time>
  <course>166.48</course>
  <speed>0.0</speed>
  <fix>3d</fix>
</trkpt>
<trkpt lat="40.0738021" lon="-105.2301185">
  <ele>1620.73</ele>
  <time>2026-08-27T18:26:56Z</time>
  <course>23.25</course>
  <speed>0.01414213562373095</speed>
  <fix>3d</fix>
</trkpt>
<trkpt lat="40.0738021" lon="-105.2301185">
  <ele>1621.22</ele>
  <time>2026-08-27T18:26:56Z</time>
  <course>23.3</course>
  <speed>0.01414213562373095</speed>
  <fix>3d</fix>
</trkpt>
<trkpt lat="40.0738019" lon="-105.2301184">
  <ele>1620.43</ele>
  <time>2026-08-27T18:26:56Z</time>
  <course>169.62</course>
  <speed>0.0</speed>
  <fix>3d</fix>
</trkpt>
<trkpt lat="40.0738021" lon="-105.2301185">
  <ele>1621.3</ele>
  <time>2026-08-27T18:26:56Z</time>
  <course>23.31</course>
  <speed>0.01414213562373095</speed>
  <fix>3d</fix>
</trkpt>
<trkpt lat="40.0738021" lon="-105.2301185">
  <ele>1621.71</ele>
  <time>2026-08-27T18:26:56Z</time>
  <course>23.34</course>
  <speed>0.01414213562373095</speed>
  <fix>3d</fix>
</trkpt>
<trkpt lat="40.0738019" lon="-105.2301184">
  <ele>1620.93</ele>
  <time>2026-08-27T18:26:56Z</time>
  <course>170.75</course>
  <speed>0.0</speed>
  <fix>3d</fix>
</trkpt>
<trkpt lat="40.0738021" lon="-105.2301185">
  <ele>1621.79</ele>
  <time>2026-08-27T18:26:56Z</time>
  <course>23.35</course>
  <speed>0.01414213562373095</speed>
  <fix>3d</fix>
</trkpt>
<trkpt lat="40.0738021" lon="-105.2301185">
  <ele>1622.21</ele>
  <time>2026-08-27T18:26:56Z</time>
  <course>23.39</course>
  <speed>0.01414213562373095</speed>
  <fix>3d</fix>
</trkpt>
<trkpt lat="40.0738019" lon="-105.2301184">
  <ele>1621.43</ele>
  <time>2026-08-27T18:26:56Z</time>
  <course>171.4</course>
  <speed>0.0</speed>
  <fix>3d</fix>
</trkpt>
<trkpt lat="40.0738021" lon="-105.2301185">
  <ele>1622.29</ele>
  <time>2026-08-27T18:26:56Z</time>
  <course>23.41</course>
  <speed>0.01414213562373095</speed>
  <fix>3d</fix>
</trkpt>
<trkpt lat="40.0738021" lon="-105.2301185">
  <ele>1622.71</ele>
  <time>2026-08-27T18:26:56Z</time>
  <course>23.41</course>
  <speed>0.01414213562373095</speed>
  <fix>3d</fix>
</trkpt>
<trkpt lat="40.0738019" lon="-105.2301184">
  <ele>1621.93</ele>
  <time>2026-08-27T18:26:56Z</time>
  <course>172.0</course>
  <speed>0.0</speed>
  <fix>3d</fix>
</trkpt>
<trkpt lat="40.0738021" lon="-105.2301185">
  <ele>1622.78</ele>
  <time>2026-08-27T18:26:56Z</time>
  <course>23.42</course>
  <speed>0.01414213562373095</speed>
  <fix>3d</fix>
</trkpt>
<trkpt lat="40.0738021" lon="-105.2301185">
  <ele>1623.21</ele>
  <time>2026-08-27T18:26:56Z</time>
  <course>23.49</course>
  <speed>0.022360679774997897</speed>
  <fix>3d</fix>
</trkpt>
<trkpt lat="40.0738019" lon="-105.2301184">
  <ele>1622.43</ele>
  <time>2026-08-27T18:26:56Z</time>
  <course>172.63</course>
  <speed>0.0</speed>
  <fix>3d</fix>
</trkpt>
<trkpt lat="40.0738021" lon="-105.2301185">
  <ele>1623.27</ele>
  <time>2026-08-27T18:26:56Z</time>
  <course>23.5</course>
  <speed>0.022360679774997897</speed>
  <fix>3d</fix>
</trkpt>
<trkpt lat="40.0738021" lon="-105.2301185">
  <ele>1623.7</ele>
  <time>2026-08-27T18:26:56Z</time>
  <course>23.51</course>
  <speed>0.022360679774997897</speed>
  <fix>3d</fix>
</trkpt>
<trkpt lat="40.0738019" lon="-105.2301184">
  <ele>1622.93</ele>
  <time>2026-08-27T18:26:56Z</time>
  <course>172.79</course>
  <speed>0.0</speed>
  <fix>3d</fix>
</trkpt>
<trkpt lat="40.0738021" lon="-105.2301185">
  <ele>1623.71</ele>
  <time>2026-08-27T18:26:56Z</time>
  <course>23.51</course>
  <speed>0.022360679774997897</speed>
  <fix>3d</fix>
</trkpt>
<trkpt lat="40.0738021" lon="-105.2301185">
  <ele>1624.21</ele>
  <time>2026-08-27T18:26:56Z</time>
  <course>23.57</course>
  <speed>0.022360679774997897</speed>
  <fix>3d</fix>
</trkpt>
<trkpt lat="40.0738018" lon="-105.2301184">
  <ele>1623.43</ele>
  <time>2026-08-27T18:26:56Z</time>
  <course>175.61</course>
  <speed>0.0</speed>
  <fix>3d</fix>
</trkpt>
<trkpt lat="40.0738021" lon="-105.2301185">
  <ele>1624.29</ele>
  <time>2026-08-27T18:26:56Z</time>
  <course>23.57</course>
  <speed>0.022360679774997897</speed>
  <fix>3d</fix>
</trkpt>
<trkpt lat="40.0738021" lon="-105.2301185">
  <ele>1624.72</ele>
  <time>2026-08-27T18:26:56Z</time>
  <course>23.62</course>
  <speed>0.022360679774997897</speed>
  <fix>3d</fix>
</trkpt>
<trkpt lat="40.0738018" lon="-105.2301184">
  <ele>1623.94</ele>
  <time>2026-08-27T18:26:56Z</time>
  <course>180.43</course>
  <speed>0.0</speed>
  <fix>3d</fix>
</trkpt>
<trkpt lat="40.073802" lon="-105.2301185">
  <ele>1624.79</ele>
  <time>2026-08-27T18:26:56Z</time>
  <course>23.63</course>
  <speed>0.022360679774997897</speed>
  <fix>3d</fix>
</trkpt>
<trkpt lat="40.073802" lon="-105.2301185">
  <ele>1625.22</ele>
  <time>2026-08-27T18:26:56Z</time>
  <course>23.68</course>
  <speed>0.022360679774997897</speed>
  <fix>3d</fix>
</trkpt>
<trkpt lat="40.0738018" lon="-105.2301184">
  <ele>1624.44</ele>
  <time>2026-08-27T18:26:56Z</time>
  <course>185.8</course>
  <speed>0.0</speed>
  <fix>3d</fix>
</trkpt>
<trkpt lat="40.073802" lon="-105.2301185">
  <ele>1625.23</ele>
  <time>2026-08-27T18:26:56Z</time>
  <course>23.68</course>
  <speed>0.022360679774997897</speed>
  <fix>3d</fix>
</trkpt>
<trkpt lat="40.073802" lon="-105.2301185">
  <ele>1625.72</ele>
  <time>2026-08-27T18:26:56Z</time>
  <course>23.73</course>
  <speed>0.022360679774997897</speed>
  <fix>3d</fix>
</trkpt>
<trkpt lat="40.0738018" lon="-105.2301184">
  <ele>1624.94</ele>
  <time>2026-08-27T18:26:56Z</time>
  <course>192.93</course>
  <speed>0.0</speed>
  <fix>3d</fix>
</trkpt>
<trkpt lat="40.073802" lon="-105.2301185">
  <ele>1625.73</ele>
  <time>2026-08-27T18:26:56Z</time>
  <course>23.73</course>
  <speed>0.022360679774997897</speed>
  <fix>3d</fix>
</trkpt>
<trkpt lat="40.073802" lon="-105.2301185">
  <ele>1626.22</ele>
  <time>2026-08-27T18:26:56Z</time>
  <course>23.78</course>
  <speed>0.022360679774997897</speed>
  <fix>3d</fix>
</trkpt>
<trkpt lat="40.0738018" lon="-105.2301184">
  <ele>1625.45</ele>
  <time>2026-08-27T18:26:56Z</time>
  <course>200.13</course>
  <speed>0.0</speed>
  <fix>3d</fix>
</trkpt>
<trkpt lat="40.073802" lon="-105.2301185">
  <ele>1626.31</ele>
  <time>2026-08-27T18:26:56Z</time>
  <course>23.78</course>
  <speed>0.022360679774997897</speed>
  <fix>3d</fix>
</trkpt>
<trkpt lat="40.073802" lon="-105.2301185">
  <ele>1626.73</ele>
  <time>2026-08-27T18:26:56Z</time>
  <course>23.81</course>
  <speed>0.022360679774997897</speed>
  <fix>3d</fix>
</trkpt>
<trkpt lat="40.0738018" lon="-105.2301184">
  <ele>1625.95</ele>
  <time>2026-08-27T18:26:56Z</time>
  <course>213.91</course>
  <speed>0.0</speed>
  <fix>3d</fix>
</trkpt>
<trkpt lat="40.073802" lon="-105.2301185">
  <ele>1626.73</ele>
  <time>2026-08-27T18:26:56Z</time>
  <course>23.81</course>
  <speed>0.022360679774997897</speed>
  <fix>3d</fix>
</trkpt>
<trkpt lat="40.073802" lon="-105.2301185">
  <ele>1627.22</ele>
  <time>2026-08-27T18:26:56Z</time>
  <course>23.85</course>
  <speed>0.022360679774997897</speed>
  <fix>3d</fix>
</trkpt>
<trkpt lat="40.0738018" lon="-105.2301184">
  <ele>1626.45</ele>
  <time>2026-08-27T18:26:56Z</time>
  <course>278.89</course>
  <speed>0.0</speed>
  <fix>3d</fix>
</trkpt>
<trkpt lat="40.073802" lon="-105.2301185">
  <ele>1627.31</ele>
  <time>2026-08-27T18:26:56Z</time>
  <course>23.86</course>
  <speed>0.022360679774997897</speed>
  <fix>3d</fix>
</trkpt>
<trkpt lat="40.073802" lon="-105.2301185">
  <ele>1627.73</ele>
  <time>2026-08-27T18:26:56Z</time>
  <course>23.89</course>
  <speed>0.022360679774997897</speed>
  <fix>3d</fix>
</trkpt>
<trkpt lat="40.0738018" lon="-105.2301184">
  <ele>1626.95</ele>
  <time>2026-08-27T18:26:56Z</time>
  <course>338.77</course>
  <speed>0.0</speed>
  <fix>3d</fix>
</trkpt>
<trkpt lat="40.073802" lon="-105.2301185">
  <ele>1627.82</ele>
  <time>2026-08-27T18:26:56Z</time>
  <course>23.9</course>
  <speed>0.022360679774997897</speed>
  <fix>3d</fix>
</trkpt>
<trkpt lat="40.073802" lon="-105.2301185">
  <ele>1628.23</ele>
  <time>2026-08-27T18:26:56Z</time>
  <course>23.93</course>
  <speed>0.022360679774997897</speed>
  <fix>3d</fix>
</trkpt>
<trkpt lat="40.0738018" lon="-105.2301184">
  <ele>1627.45</ele>
  <time>2026-08-27T18:26:56Z</time>
  <course>351.23</course>
  <speed>0.0</speed>
  <fix>3d</fix>
</trkpt>
<trkpt lat="40.073802" lon="-105.2301185">
  <ele>1628.31</ele>
  <time>2026-08-27T18:26:56Z</time>
  <course>23.94</course>
  <speed>0.022360679774997897</speed>
  <fix>3d</fix>
</trkpt>
<trkpt lat="40.073802" lon="-105.2301185">
  <ele>1628.72</ele>
  <time>2026-08-27T18:26:56Z</time>
  <course>23.99</course>
  <speed>0.022360679774997897</speed>
  <fix>3d</fix>
</trkpt>
<trkpt lat="40.0738018" lon="-105.2301184">
  <ele>1627.94</ele>
  <time>2026-08-27T18:26:56Z</time>
  <course>351.65</course>
  <speed>0.0</speed>
  <fix>3d</fix>
</trkpt>
<trkpt lat="40.073802" lon="-105.2301185">
  <ele>1628.74</ele>
  <time>2026-08-27T18:26:56Z</time>
  <course>23.99</course>
  <speed>0.022360679774997897</speed>
  <fix>3d</fix>
</trkpt>
<trkpt lat="40.073802" lon="-105.2301185">
  <ele>1629.22</ele>
  <time>2026-08-27T18:26:56Z</time>
  <course>24.02</course>
  <speed>0.022360679774997897</speed>
  <fix>3d</fix>
</trkpt>
<trkpt lat="40.0738018" lon="-105.2301184">
  <ele>1628.44</ele>
  <time>2026-08-27T18:26:56Z</time>
  <course>346.41</course>
  <speed>0.0</speed>
  <fix>3d</fix>
</trkpt>
<trkpt lat="40.073802" lon="-105.2301185">
  <ele>1629.29</ele>
  <time>2026-08-27T18:26:56Z</time>
  <course>24.02</course>
  <speed>0.022360679774997897</speed>
  <fix>3d</fix>
</trkpt>
<trkpt lat="40.073802" lon="-105.2301185">
  <ele>1629.72</ele>
  <time>2026-08-27T18:26:56Z</time>
  <course>24.05</course>
  <speed>0.022360679774997897</speed>
  <fix>3d</fix>
</trkpt>
<trkpt lat="40.0738018" lon="-105.2301184">
  <ele>1628.94</ele>
  <time>2026-08-27T18:26:56Z</time>
  <course>338.67</course>
  <speed>0.0</speed>
  <fix>3d</fix>
</trkpt>
<trkpt lat="40.073802" lon="-105.2301185">
  <ele>1629.73</ele>
  <time>2026-08-27T18:26:56Z</time>
  <course>24.05</course>
  <speed>0.022360679774997897</speed>
  <fix>3d</fix>
</trkpt>
<trkpt lat="40.073802" lon="-105.2301185">
  <ele>1630.22</ele>
  <time>2026-08-27T18:26:56Z</time>
  <course>24.07</course>
  <speed>0.022360679774997897</speed>
  <fix>3d</fix>
</trkpt>
<trkpt lat="40.0738018" lon="-105.2301184">
  <ele>1629.44</ele>
  <time>2026-08-27T18:26:56Z</time>
  <course>332.01</course>
  <speed>0.0</speed>
  <fix>3d</fix>
</trkpt>
<trkpt lat="40.073802" lon="-105.2301185">
  <ele>1630.29</ele>
  <time>2026-08-27T18:26:56Z</time>
  <course>24.08</course>
  <speed>0.022360679774997897</speed>
  <fix>3d</fix>
</trkpt>
<trkpt lat="40.073802" lon="-105.2301185">
  <ele>1630.72</ele>
  <time>2026-08-27T18:26:56Z</time>
  <course>24.11</course>
  <speed>0.022360679774997897</speed>
  <fix>3d</fix>
</trkpt>
<trkpt lat="40.0738018" lon="-105.2301184">
  <ele>1629.94</ele>
  <time>2026-08-27T18:26:56Z</time>
  <course>325.29</course>
  <speed>0.0</speed>
  <fix>3d</fix>
</trkpt>
<trkpt lat="40.073802" lon="-105.2301185">
  <ele>1630.72</ele>
  <time>2026-08-27T18:26:56Z</time>
  <course>24.11</course>
  <speed>0.022360679774997897</speed>
  <fix>3d</fix>
</trkpt>
<trkpt lat="40.073802" lon="-105.2301185">
  <ele>1631.21</ele>
  <time>2026-08-27T18:26:56Z</time>
  <course>24.15</course>
  <speed>0.022360679774997897</speed>
  <fix>3d</fix>
</trkpt>
<trkpt lat="40.0738018" lon="-105.2301184">
  <ele>1630.44</ele>
  <time>2026-08-27T18:26:56Z</time>
  <course>318.36</course>
  <speed>0.0</speed>
  <fix>3d</fix>
</trkpt>
<trkpt lat="40.073802" lon="-105.2301185">
  <ele>1631.28</ele>
  <time>2026-08-27T18:26:56Z</time>
  <course>24.15</course>
  <speed>0.022360679774997897</speed>
  <fix>3d</fix>
</trkpt>
<trkpt lat="40.073802" lon="-105.2301185">
  <ele>1631.71</ele>
  <time>2026-08-27T18:26:56Z</time>
  <course>24.15</course>
  <speed>0.022360679774997897</speed>
  <fix>3d</fix>
</trkpt>
<trkpt lat="40.0738018" lon="-105.2301184">
  <ele>1630.94</ele>
  <time>2026-08-27T18:26:56Z</time>
  <course>314.66</course>
  <speed>0.0</speed>
  <fix>3d</fix>
</trkpt>
<trkpt lat="40.073802" lon="-105.2301185">
  <ele>1631.78</ele>
  <time>2026-08-27T18:26:56Z</time>
  <course>24.16</course>
  <speed>0.022360679774997897</speed>
  <fix>3d</fix>
</trkpt>
<trkpt lat="40.073802" lon="-105.2301185">
  <ele>1632.21</ele>
  <time>2026-08-27T18:26:56Z</time>
  <course>24.17</course>
  <speed>0.022360679774997897</speed>
  <fix>3d</fix>
</trkpt>
<trkpt lat="40.0738018" lon="-105.2301184">
  <ele>1631.44</ele>
  <time>2026-08-27T18:26:56Z</time>
  <course>316.46</course>
  <speed>0.0</speed>
  <fix>3d</fix>
</trkpt>
<trkpt lat="40.073802" lon="-105.2301185">
  <ele>1632.28</ele>
  <time>2026-08-27T18:26:56Z</time>
  <course>24.17</course>
  <speed>0.022360679774997897</speed>
  <fix>3d</fix>
</trkpt>
<trkpt lat="40.073802" lon="-105.2301185">
  <ele>1632.71</ele>
  <time>2026-08-27T18:26:56Z</time>
  <course>24.2</course>
  <speed>0.022360679774997897</speed>
  <fix>3d</fix>
</trkpt>
<trkpt lat="40.0738018" lon="-105.2301184">
  <ele>1631.94</ele>
  <time>2026-08-27T18:26:56Z</time>
  <course>326.25</course>
  <speed>0.0</speed>
  <fix>3d</fix>
</trkpt>
<trkpt lat="40.073802" lon="-105.2301185">
  <ele>1632.8</ele>
  <time>2026-08-27T18:26:56Z</time>
  <course>24.2</course>
  <speed>0.022360679774997897</speed>
  <fix>3d</fix>
</trkpt>
<trkpt lat="40.073802" lon="-105.2301185">
  <ele>1633.21</ele>
  <time>2026-08-27T18:26:56Z</time>
  <course>24.24</course>
  <speed>0.022360679774997897</speed>
  <fix>3d</fix>
</trkpt>
<trkpt lat="40.0738018" lon="-105.2301184">
  <ele>1632.44</ele>
  <time>2026-08-27T18:26:56Z</time>
  <course>334.44</course>
  <speed>0.0</speed>
  <fix>3d</fix>
</trkpt>
<trkpt lat="40.073802" lon="-105.2301185">
  <ele>1633.22</ele>
  <time>2026-08-27T18:26:56Z</time>
  <course>24.25</course>
  <speed>0.022360679774997897</speed>
  <fix>3d</fix>
</trkpt>
<trkpt lat="40.073802" lon="-105.2301185">
  <ele>1633.71</ele>
  <time>2026-08-27T18:26:56Z</time>
  <course>24.29</course>
  <speed>0.022360679774997897</speed>
  <fix>3d</fix>
</trkpt>
<trkpt lat="40.0738018" lon="-105.2301184">
  <ele>1632.94</ele>
  <time>2026-08-27T18:26:56Z</time>
  <course>331.36</course>
  <speed>0.0</speed>
  <fix>3d</fix>
</trkpt>
<trkpt lat="40.073802" lon="-105.2301185">
  <ele>1633.8</ele>
  <time>2026-08-27T18:26:56Z</time>
  <course>24.29</course>
  <speed>0.022360679774997897</speed>
  <fix>3d</fix>
</trkpt>
<trkpt lat="40.073802" lon="-105.2301185">
  <ele>1634.21</ele>
  <time>2026-08-27T18:26:56Z</time>
  <course>24.31</course>
  <speed>0.022360679774997897</speed>
  <fix>3d</fix>
</trkpt>
<trkpt lat="40.0738018" lon="-105.2301184">
  <ele>1633.45</ele>
  <time>2026-08-27T18:26:56Z</time>
  <course>327.21</course>
  <speed>0.0</speed>
  <fix>3d</fix>
</trkpt>
<trkpt lat="40.073802" lon="-105.2301185">
  <ele>1634.3</ele>
  <time>2026-08-27T18:26:56Z</time>
  <course>24.31</course>
  <speed>0.022360679774997897</speed>
  <fix>3d</fix>
</trkpt>
<trkpt lat="40.073802" lon="-105.2301185">
  <ele>1634.71</ele>
  <time>2026-08-27T18:26:56Z</time>
  <course>24.35</course>
  <speed>0.022360679774997897</speed>
  <fix>3d</fix>
</trkpt>
<trkpt lat="40.0738018" lon="-105.2301184">
  <ele>1633.95</ele>
  <time>2026-08-27T18:26:56Z</time>
  <course>328.0</course>
  <speed>0.0</speed>
  <fix>3d</fix>
</trkpt>
<trkpt lat="40.073802" lon="-105.2301185">
  <ele>1634.78</ele>
  <time>2026-08-27T18:26:56Z</time>
  <course>24.35</course>
  <speed>0.022360679774997897</speed>
  <fix>3d</fix>
</trkpt>
<trkpt lat="40.073802" lon="-105.2301185">
  <ele>1635.21</ele>
  <time>2026-08-27T18:26:56Z</time>
  <course>24.39</course>
  <speed>0.022360679774997897</speed>
  <fix>3d</fix>
</trkpt>
<trkpt lat="40.0738018" lon="-105.2301184">
  <ele>1634.45</ele>
  <time>2026-08-27T18:26:56Z</time>
  <course>328.51</course>
  <speed>0.0</speed>
  <fix>3d</fix>
</trkpt>
<trkpt lat="40.073802" lon="-105.2301185">
  <ele>1635.28</ele>
  <time>2026-08-27T18:26:56Z</time>
  <course>24.4</course>
  <speed>0.022360679774997897</speed>
  <fix>3d</fix>
</trkpt>
<trkpt lat="40.073802" lon="-105.2301185">
  <ele>1635.71</ele>
  <time>2026-08-27T18:26:56Z</time>
  <course>24.42</course>
  <speed>0.022360679774997897</speed>
  <fix>3d</fix>
</trkpt>
<trkpt lat="40.0738018" lon="-105.2301184">
  <ele>1634.95</ele>
  <time>2026-08-27T18:26:56Z</time>
  <course>326.78</course>
  <speed>0.0</speed>
  <fix>3d</fix>
</trkpt>
<trkpt lat="40.073802" lon="-105.2301185">
  <ele>1635.72</ele>
  <time>2026-08-27T18:26:56Z</time>
  <course>24.43</course>
  <speed>0.022360679774997897</speed>
  <fix>3d</fix>
</trkpt>
<trkpt lat="40.073802" lon="-105.2301185">
  <ele>1636.21</ele>
  <time>2026-08-27T18:26:56Z</time>
  <course>24.45</course>
  <speed>0.022360679774997897</speed>
  <fix>3d</fix>
</trkpt>
<trkpt lat="40.0738018" lon="-105.2301184">
  <ele>1635.46</ele>
  <time>2026-08-27T18:26:56Z</time>
  <course>325.03</course>
  <speed>0.0</speed>
  <fix>3d</fix>
</trkpt>
<trkpt lat="40.073802" lon="-105.2301185">
  <ele>1636.29</ele>
  <time>2026-08-27T18:26:56Z</time>
  <course>24.45</course>
  <speed>0.022360679774997897</speed>
  <fix>3d</fix>
</trkpt>
<trkpt lat="40.073802" lon="-105.2301185">
  <ele>1636.71</ele>
  <time>2026-08-27T18:26:56Z</time>
  <course>24.48</course>
  <speed>0.022360679774997897</speed>
  <fix>3d</fix>
</trkpt>
<trkpt lat="40.0738018" lon="-105.2301184">
  <ele>1635.96</ele>
  <time>2026-08-27T18:26:56Z</time>
  <course>325.2</course>
  <speed>0.0</speed>
  <fix>3d</fix>
</trkpt>
<trkpt lat="40.073802" lon="-105.2301185">
  <ele>1636.79</ele>
  <time>2026-08-27T18:26:56Z</time>
  <course>24.48</course>
  <speed>0.022360679774997897</speed>
  <fix>3d</fix>
</trkpt>
<trkpt lat="40.073802" lon="-105.2301185">
  <ele>1637.2</ele>
  <time>2026-08-27T18:26:56Z</time>
  <course>24.48</course>
  <speed>0.022360679774997897</speed>
  <fix>3d</fix>
</trkpt>
<trkpt lat="40.0738018" lon="-105.2301184">
  <ele>1636.47</ele>
  <time>2026-08-27T18:26:56Z</time>
  <course>325.0</course>
  <speed>0.0</speed>
  <fix>3d</fix>
</trkpt>
<trkpt lat="40.073802" lon="-105.2301185">
  <ele>1637.28</ele>
  <time>2026-08-27T18:26:56Z</time>
  <course>24.48</course>
  <speed>0.022360679774997897</speed>
  <fix>3d</fix>
</trkpt>
<trkpt lat="40.073802" lon="-105.2301185">
  <ele>1637.71</ele>
  <time>2026-08-27T18:26:56Z</time>
  <course>24.5</course>
  <speed>0.022360679774997897</speed>
  <fix>3d</fix>
</trkpt>
<trkpt lat="40.0738018" lon="-105.2301184">
  <ele>1636.97</ele>
  <time>2026-08-27T18:26:56Z</time>
  <course>324.14</course>
  <speed>0.0</speed>
  <fix>3d</fix>
</trkpt>
<trkpt lat="40.073802" lon="-105.2301185">
  <ele>1637.78</ele>
  <time>2026-08-27T18:26:56Z</time>
  <course>24.51</course>
  <speed>0.022360679774997897</speed>
  <fix>3d</fix>
</trkpt>
<trkpt lat="40.073802" lon="-105.2301185">
  <ele>1638.22</ele>
  <time>2026-08-27T18:26:56Z</time>
  <course>24.55</course>
  <speed>0.022360679774997897</speed>
  <fix>3d</fix>
</trkpt>
<trkpt lat="40.0738018" lon="-105.2301184">
  <ele>1637.47</ele>
  <time>2026-08-27T18:26:56Z</time>
  <course>322.91</course>
  <speed>0.0</speed>
  <fix>3d</fix>
</trkpt>
<trkpt lat="40.073802" lon="-105.2301185">
  <ele>1638.29</ele>
  <time>2026-08-27T18:26:56Z</time>
  <course>24.55</course>
  <speed>0.022360679774997897</speed>
  <fix>3d</fix>
</trkpt>
<trkpt lat="40.073802" lon="-105.2301185">
  <ele>1638.72</ele>
  <time>2026-08-27T18:26:56Z</time>
  <course>24.6</course>
  <speed>0.022360679774997897</speed>
  <fix>3d</fix>
</trkpt>
<trkpt lat="40.0738018" lon="-105.2301184">
  <ele>1637.98</ele>
  <time>2026-08-27T18:26:56Z</time>
  <course>320.3</course>
  <speed>0.0</speed>
  <fix>3d</fix>
</trkpt>
<trkpt lat="40.073802" lon="-105.2301185">
  <ele>1638.73</ele>
  <time>2026-08-27T18:26:56Z</time>
  <course>24.6</course>
  <speed>0.022360679774997897</speed>
  <fix>3d</fix>
</trkpt>
<trkpt lat="40.073802" lon="-105.2301185">
  <ele>1639.22</ele>
  <time>2026-08-27T18:26:56Z</time>
  <course>24.64</course>
  <speed>0.022360679774997897</speed>
  <fix>3d</fix>
</trkpt>
<trkpt lat="40.0738018" lon="-105.2301184">
  <ele>1638.48</ele>
  <time>2026-08-27T18:26:56Z</time>
  <course>318.43</course>
  <speed>0.0</speed>
  <fix>3d</fix>
</trkpt>
<trkpt lat="40.073802" lon="-105.2301185">
  <ele>1639.29</ele>
  <time>2026-08-27T18:26:56Z</time>
  <course>24.64</course>
  <speed>0.022360679774997897</speed>
  <fix>3d</fix>
</trkpt>
<trkpt lat="40.073802" lon="-105.2301185">
  <ele>1639.73</ele>
  <time>2026-08-27T18:26:56Z</time>
  <course>24.66</course>
  <speed>0.022360679774997897</speed>
  <fix>3d</fix>
</trkpt>
<trkpt lat="40.0738019" lon="-105.2301184">
  <ele>1638.98</ele>
  <time>2026-08-27T18:26:56Z</time>
  <course>317.98</course>
  <speed>0.0</speed>
  <fix>3d</fix>
</trkpt>
<trkpt lat="40.073802" lon="-105.2301185">
  <ele>1639.8</ele>
  <time>2026-08-27T18:26:56Z</time>
  <course>24.66</course>
  <speed>0.022360679774997897</speed>
  <fix>3d</fix>
</trkpt>
<trkpt lat="40.073802" lon="-105.2301185">
  <ele>1640.23</ele>
  <time>2026-08-27T18:26:56Z</time>
  <course>24.69</course>
  <speed>0.022360679774997897</speed>
  <fix>3d</fix>
</trkpt>
<trkpt lat="40.0738019" lon="-105.2301184">
  <ele>1639.49</ele>
  <time>2026-08-27T18:26:56Z</time>
  <course>318.28</course>
  <speed>0.0</speed>
  <fix>3d</fix>
</trkpt>
<trkpt lat="40.073802" lon="-105.2301185">
  <ele>1640.3</ele>
  <time>2026-08-27T18:26:56Z</time>
  <course>24.69</course>
  <speed>0.022360679774997897</speed>
  <fix>3d</fix>
</trkpt>
<trkpt lat="40.073802" lon="-105.2301185">
  <ele>1640.73</ele>
  <time>2026-08-27T18:26:56Z</time>
  <course>24.71</course>
  <speed>0.022360679774997897</speed>
  <fix>3d</fix>
</trkpt>
<trkpt lat="40.0738019" lon="-105.2301184">
  <ele>1639.99</ele>
  <time>2026-08-27T18:26:56Z</time>
  <course>319.82</course>
  <speed>0.0</speed>
  <fix>3d</fix>
</trkpt>
<trkpt lat="40.073802" lon="-105.2301185">
  <ele>1640.73</ele>
  <time>2026-08-27T18:26:56Z</time>
  <course>24.71</course>
  <speed>0.022360679774997897</speed>
  <fix>3d</fix>
</trkpt>
<trkpt lat="40.073802" lon="-105.2301185">
  <ele>1641.23</ele>
  <time>2026-08-27T18:26:56Z</time>
  <course>24.74</course>
  <speed>0.022360679774997897</speed>
  <fix>3d</fix>
</trkpt>
<trkpt lat="40.0738019" lon="-105.2301184">
  <ele>1640.49</ele>
  <time>2026-08-27T18:26:56Z</time>
  <course>322.59</course>
  <speed>0.0</speed>
  <fix>3d</fix>
</trkpt>
<trkpt lat="40.073802" lon="-105.2301185">
  <ele>1641.31</ele>
  <time>2026-08-27T18:26:56Z</time>
  <course>24.75</course>
  <speed>0.022360679774997897</speed>
  <fix>3d</fix>
</trkpt>
<trkpt lat="40.073802" lon="-105.2301185">
  <ele>1641.74</ele>
  <time>2026-08-27T18:26:56Z</time>
  <course>24.75</course>
  <speed>0.022360679774997897</speed>
  <fix>3d</fix>
</trkpt>
<trkpt lat="40.0738019" lon="-105.2301184">
  <ele>1640.99</ele>
  <time>2026-08-27T18:26:56Z</time>
  <course>323.49</course>
  <speed>0.0</speed>
  <fix>3d</fix>
</trkpt>
<trkpt lat="40.073802" lon="-105.2301185">
  <ele>1641.74</ele>
  <time>2026-08-27T18:26:56Z</time>
  <course>24.75</course>
  <speed>0.022360679774997897</speed>
  <fix>3d</fix>
</trkpt>
<trkpt lat="40.073802" lon="-105.2301185">
  <ele>1642.24</ele>
  <time>2026-08-27T18:26:56Z</time>
  <course>24.8</course>
  <speed>0.022360679774997897</speed>
  <fix>3d</fix>
</trkpt>
<trkpt lat="40.0738019" lon="-105.2301184">
  <ele>1641.49</ele>
  <time>2026-08-27T18:26:56Z</time>
  <course>316.15</course>
  <speed>0.0</speed>
  <fix>3d</fix>
</trkpt>
<trkpt lat="40.073802" lon="-105.2301185">
  <ele>1642.32</ele>
  <time>2026-08-27T18:26:56Z</time>
  <course>24.79</course>
  <speed>0.022360679774997897</speed>
  <fix>3d</fix>
</trkpt>
<trkpt lat="40.073802" lon="-105.2301185">
  <ele>1642.74</ele>
  <time>2026-08-27T18:26:56Z</time>
  <course>24.83</course>
  <speed>0.022360679774997897</speed>
  <fix>3d</fix>
</trkpt>
<trkpt lat="40.0738019" lon="-105.2301184">
  <ele>1641.99</ele>
  <time>2026-08-27T18:26:56Z</time>
  <course>301.71</course>
  <speed>0.0</speed>
  <fix>3d</fix>
</trkpt>
<trkpt lat="40.073802" lon="-105.2301185">
  <ele>1642.82</ele>
  <time>2026-08-27T18:26:56Z</time>
  <course>24.84</course>
  <speed>0.022360679774997897</speed>
  <fix>3d</fix>
</trkpt>
<trkpt lat="40.073802" lon="-105.2301185">
  <ele>1643.24</ele>
  <time>2026-08-27T18:26:56Z</time>
  <course>24.85</course>
  <speed>0.01414213562373095</speed>
  <fix>3d</fix>
</trkpt>
<trkpt lat="40.0738019" lon="-105.2301184">
  <ele>1642.48</ele>
  <time>2026-08-27T18:26:56Z</time>
  <course>281.25</course>
  <speed>0.0</speed>
  <fix>3d</fix>
</trkpt>
<trkpt lat="40.073802" lon="-105.2301185">
  <ele>1643.24</ele>
  <time>2026-08-27T18:26:56Z</time>
  <course>24.85</course>
  <speed>0.01414213562373095</speed>
  <fix>3d</fix>
</trkpt>
<trkpt lat="40.073802" lon="-105.2301185">
  <ele>1643.73</ele>
  <time>2026-08-27T18:26:56Z</time>
  <course>24.87</course>
  <speed>0.01</speed>
  <fix>3d</fix>
</trkpt>
<trkpt lat="40.0738019" lon="-105.2301184">
  <ele>1642.98</ele>
  <time>2026-08-27T18:26:56Z</time>
  <course>253.95</course>
  <speed>0.0</speed>
  <fix>3d</fix>
</trkpt>
<trkpt lat="40.073802" lon="-105.2301185">
  <ele>1643.8</ele>
  <time>2026-08-27T18:26:56Z</time>
  <course>24.86</course>
  <speed>0.01</speed>
  <fix>3d</fix>
</trkpt>
<trkpt lat="40.073802" lon="-105.2301185">
  <ele>1644.22</ele>
  <time>2026-08-27T18:26:56Z</time>
  <course>24.87</course>
  <speed>0.01</speed>
  <fix>3d</fix>
</trkpt>
<trkpt lat="40.0738019" lon="-105.2301184">
  <ele>1643.48</ele>
  <time>2026-08-27T18:26:56Z</time>
  <course>227.87</course>
  <speed>0.0</speed>
  <fix>3d</fix>
</trkpt>
<trkpt lat="40.073802" lon="-105.2301185">
  <ele>1644.29</ele>
  <time>2026-08-27T18:26:56Z</time>
  <course>24.88</course>
  <speed>0.01</speed>
  <fix>3d</fix>
</trkpt>
<trkpt lat="40.073802" lon="-105.2301185">
  <ele>1644.71</ele>
  <time>2026-08-27T18:26:56Z</time>
  <course>24.88</course>
  <speed>0.01</speed>
  <fix>3d</fix>
</trkpt>
<trkpt lat="40.0738019" lon="-105.2301184">
  <ele>1643.97</ele>
  <time>2026-08-27T18:26:56Z</time>
  <course>211.3</course>
  <speed>0.0</speed>
  <fix>3d</fix>
</trkpt>
<trkpt lat="40.073802" lon="-105.2301185">
  <ele>1644.72</ele>
  <time>2026-08-27T18:26:56Z</time>
  <course>24.88</course>
  <speed>0.01</speed>
  <fix>3d</fix>
</trkpt>
<trkpt lat="40.073802" lon="-105.2301185">
  <ele>1645.21</ele>
  <time>2026-08-27T18:26:56Z</time>
  <course>24.87</course>
  <speed>0.01</speed>
  <fix>3d</fix>
</trkpt>
<trkpt lat="40.0738019" lon="-105.2301184">
  <ele>1644.47</ele>
  <time>2026-08-27T18:26:56Z</time>
  <course>203.3</course>
  <speed>0.0</speed>
  <fix>3d</fix>
</trkpt>
<trkpt lat="40.073802" lon="-105.2301185">
  <ele>1645.28</ele>
  <time>2026-08-27T18:26:56Z</time>
  <course>24.87</course>
  <speed>0.01</speed>
  <fix>3d</fix>
</trkpt>
<trkpt lat="40.073802" lon="-105.2301185">
  <ele>1645.71</ele>
  <time>2026-08-27T18:26:56Z</time>
  <course>24.86</course>
  <speed>0.01414213562373095</speed>
  <fix>3d</fix>
</trkpt>
<trkpt lat="40.0738019" lon="-105.2301185">
  <ele>1644.97</ele>
  <time>2026-08-27T18:26:56Z</time>
  <course>203.04</course>
  <speed>0.0</speed>
  <fix>3d</fix>
</trkpt>
<trkpt lat="40.073802" lon="-105.2301185">
  <ele>1645.71</ele>
  <time>2026-08-27T18:26:56Z</time>
  <course>24.86</course>
  <speed>0.01414213562373095</speed>
  <fix>3d</fix>
</trkpt>
<trkpt lat="40.073802" lon="-105.2301185">
  <ele>1646.21</ele>
  <time>2026-08-27T18:26:56Z</time>
  <course>24.89</course>
  <speed>0.01414213562373095</speed>
  <fix>3d</fix>
</trkpt>
<trkpt lat="40.0738019" lon="-105.2301186">
  <ele>1645.47</ele>
  <time>2026-08-27T18:26:56Z</time>
  <course>206.66</course>
  <speed>0.0</speed>
  <fix>3d</fix>
</trkpt>
<trkpt lat="40.073802" lon="-105.2301185">
  <ele>1646.28</ele>
  <time>2026-08-27T18:26:56Z</time>
  <course>24.9</course>
  <speed>0.01414213562373095</speed>
  <fix>3d</fix>
</trkpt>
<trkpt lat="40.073802" lon="-105.2301185">
  <ele>1646.72</ele>
  <time>2026-08-27T18:26:56Z</time>
  <course>24.93</course>
  <speed>0.01414213562373095</speed>
  <fix>3d</fix>
</trkpt>
<trkpt lat="40.0738019" lon="-105.2301186">
  <ele>1645.97</ele>
  <time>2026-08-27T18:26:56Z</time>
  <course>211.66</course>
  <speed>0.0</speed>
  <fix>3d</fix>
</trkpt>
<trkpt lat="40.073802" lon="-105.2301185">
  <ele>1646.79</ele>
  <time>2026-08-27T18:26:56Z</time>
  <course>24.94</course>
  <speed>0.01414213562373095</speed>
  <fix>3d</fix>
</trkpt>
<trkpt lat="40.073802" lon="-105.2301185">
  <ele>1647.23</ele>
  <time>2026-08-27T18:26:56Z</time>
  <course>24.98</course>
  <speed>0.01414213562373095</speed>
  <fix>3d</fix>
</trkpt>
<trkpt lat="40.0738019" lon="-105.2301186">
  <ele>1646.48</ele>
  <time>2026-08-27T18:26:56Z</time>
  <course>213.35</course>
  <speed>0.0</speed>
  <fix>3d</fix>
</trkpt>
<trkpt lat="40.073802" lon="-105.2301185">
  <ele>1647.3</ele>
  <time>2026-08-27T18:26:56Z</time>
  <course>24.98</course>
  <speed>0.01414213562373095</speed>
  <fix>3d</fix>
</trkpt>
<trkpt lat="40.073802" lon="-105.2301186">
  <ele>1647.73</ele>
  <time>2026-08-27T18:26:56Z</time>
  <course>25.0</course>
  <speed>0.01414213562373095</speed>
  <fix>3d</fix>
</trkpt>
<trkpt lat="40.0738019" lon="-105.2301186">
  <ele>1646.98</ele>
  <time>2026-08-27T18:26:56Z</time>
  <course>207.79</course>
  <speed>0.0</speed>
  <fix>3d</fix>
</trkpt>
<trkpt lat="40.073802" lon="-105.2301186">
  <ele>1647.81</ele>
  <time>2026-08-27T18:26:56Z</time>
  <course>25.0</course>
  <speed>0.01414213562373095</speed>
  <fix>3d</fix>
</trkpt>
<trkpt lat="40.073802" lon="-105.2301186">
  <ele>1648.24</ele>
  <time>2026-08-27T18:26:56Z</time>
  <course>25.04</course>
  <speed>0.01414213562373095</speed>
  <fix>3d</fix>
</trkpt>
<trkpt lat="40.0738019" lon="-105.2301186">
  <ele>1647.48</ele>
  <time>2026-08-27T18:26:56Z</time>
  <course>200.6</course>
  <speed>0.0</speed>
  <fix>3d</fix>
</trkpt>
<trkpt lat="40.073802" lon="-105.2301186">
  <ele>1648.25</ele>
  <time>2026-08-27T18:26:56Z</time>
  <course>25.04</course>
  <speed>0.01414213562373095</speed>
  <fix>3d</fix>
</trkpt>
<trkpt lat="40.073802" lon="-105.2301186">
  <ele>1648.73</ele>
  <time>2026-08-27T18:26:56Z</time>
  <course>25.06</course>
  <speed>0.01</speed>
  <fix>3d</fix>
</trkpt>
<trkpt lat="40.0738019" lon="-105.2301186">
  <ele>1647.98</ele>
  <time>2026-08-27T18:26:56Z</time>
  <course>189.09</course>
  <speed>0.0</speed>
  <fix>3d</fix>
</trkpt>
<trkpt lat="40.073802" lon="-105.2301186">
  <ele>1648.8</ele>
  <time>2026-08-27T18:26:56Z</time>
  <course>25.05</course>
  <speed>0.01</speed>
  <fix>3d</fix>
</trkpt>
<trkpt lat="40.073802" lon="-105.2301186">
  <ele>1649.23</ele>
  <time>2026-08-27T18:26:56Z</time>
  <course>25.07</course>
  <speed>0.01</speed>
  <fix>3d</fix>
</trkpt>
<trkpt lat="40.0738019" lon="-105.2301186">
  <ele>1648.48</ele>
  <time>2026-08-27T18:26:56Z</time>
  <course>168.74</course>
  <speed>0.0</speed>
  <fix>3d</fix>
</trkpt>
<trkpt lat="40.073802" lon="-105.2301186">
  <ele>1649.32</ele>
  <time>2026-08-27T18:26:56Z</time>
  <course>25.07</course>
  <speed>0.01</speed>
  <fix>3d</fix>
</trkpt>
<trkpt lat="40.073802" lon="-105.2301186">
  <ele>1649.73</ele>
  <time>2026-08-27T18:26:56Z</time>
  <course>25.08</course>
  <speed>0.01</speed>
  <fix>3d</fix>
</trkpt>
<trkpt lat="40.0738019" lon="-105.2301186">
  <ele>1648.98</ele>
  <time>2026-08-27T18:26:56Z</time>
  <course>151.42</course>
  <speed>0.0</speed>
  <fix>3d</fix>
</trkpt>
<trkpt lat="40.073802" lon="-105.2301186">
  <ele>1649.8</ele>
  <time>2026-08-27T18:26:56Z</time>
  <course>25.08</course>
  <speed>0.01</speed>
  <fix>3d</fix>
</trkpt>
<trkpt lat="40.073802" lon="-105.2301186">
  <ele>1650.23</ele>
  <time>2026-08-27T18:26:56Z</time>
  <course>25.08</course>
  <speed>0.01</speed>
  <fix>3d</fix>
</trkpt>
<trkpt lat="40.0738019" lon="-105.2301186">
  <ele>1649.47</ele>
  <time>2026-08-27T18:26:56Z</time>
  <course>139.05</course>
  <speed>0.0</speed>
  <fix>3d</fix>
</trkpt>
<trkpt lat="40.073802" lon="-105.2301186">
  <ele>1650.3</ele>
  <time>2026-08-27T18:26:56Z</time>
  <course>25.09</course>
  <speed>0.01</speed>
  <fix>3d</fix>
</trkpt>
<trkpt lat="40.073802" lon="-105.2301186">
  <ele>1650.73</ele>
  <time>2026-08-27T18:26:56Z</time>
  <course>25.09</course>
  <speed>0.01</speed>
  <fix>3d</fix>
</trkpt>
<trkpt lat="40.0738019" lon="-105.2301186">
  <ele>1649.97</ele>
  <time>2026-08-27T18:26:56Z</time>
  <course>129.53</course>
  <speed>0.0</speed>
  <fix>3d</fix>
</trkpt>
<trkpt lat="40.073802" lon="-105.2301186">
  <ele>1650.73</ele>
  <time>2026-08-27T18:26:56Z</time>
  <course>25.09</course>
  <speed>0.01</speed>
  <fix>3d</fix>
</trkpt>
<trkpt lat="40.073802" lon="-105.2301186">
  <ele>1651.23</ele>
  <time>2026-08-27T18:26:56Z</time>
  <course>25.11</course>
  <speed>0.01</speed>
  <fix>3d</fix>
</trkpt>
<trkpt lat="40.0738019" lon="-105.2301186">
  <ele>1650.47</ele>
  <time>2026-08-27T18:26:56Z</time>
  <course>122.95</course>
  <speed>0.0</speed>
  <fix>3d</fix>
</trkpt>
<trkpt lat="40.073802" lon="-105.2301186">
  <ele>1651.31</ele>
  <time>2026-08-27T18:26:56Z</time>
  <course>25.11</course>
  <speed>0.01</speed>
  <fix>3d</fix>
</trkpt>
<trkpt lat="40.073802" lon="-105.2301186">
  <ele>1651.72</ele>
  <time>2026-08-27T18:26:56Z</time>
  <course>25.12</course>
  <speed>0.02</speed>
  <fix>3d</fix>
</trkpt>
<trkpt lat="40.0738019" lon="-105.2301186">
  <ele>1650.97</ele>
  <time>2026-08-27T18:26:56Z</time>
  <course>117.04</course>
  <speed>0.0</speed>
  <fix>3d</fix>
</trkpt>
<trkpt lat="40.073802" lon="-105.2301186">
  <ele>1651.77</ele>
  <time>2026-08-27T18:26:56Z</time>
  <course>25.12</course>
  <speed>0.02</speed>
  <fix>3d</fix>
</trkpt>
<trkpt lat="40.073802" lon="-105.2301186">
  <ele>1652.22</ele>
  <time>2026-08-27T18:26:56Z</time>
  <course>25.13</course>
  <speed>0.02</speed>
  <fix>3d</fix>
</trkpt>
<trkpt lat="40.0738019" lon="-105.2301186">
  <ele>1651.47</ele>
  <time>2026-08-27T18:26:56Z</time>
  <course>111.86</course>
  <speed>0.0</speed>
  <fix>3d</fix>
</trkpt>
<trkpt lat="40.073802" lon="-105.2301186">
  <ele>1652.27</ele>
  <time>2026-08-27T18:26:56Z</time>
  <course>25.13</course>
  <speed>0.02</speed>
  <fix>3d</fix>
</trkpt>
<trkpt lat="40.073802" lon="-105.2301186">
  <ele>1652.73</ele>
  <time>2026-08-27T18:26:56Z</time>
  <course>25.16</course>
  <speed>0.02</speed>
  <fix>3d</fix>
</trkpt>
<trkpt lat="40.0738019" lon="-105.2301186">
  <ele>1651.97</ele>
  <time>2026-08-27T18:26:56Z</time>
  <course>108.29</course>
  <speed>0.0</speed>
  <fix>3d</fix>
</trkpt>
<trkpt lat="40.073802" lon="-105.2301186">
  <ele>1652.8</ele>
  <time>2026-08-27T18:26:56Z</time>
  <course>25.15</course>
  <speed>0.02</speed>
  <fix>3d</fix>
</trkpt>
<trkpt lat="40.073802" lon="-105.2301186">
  <ele>1653.23</ele>
  <time>2026-08-27T18:26:56Z</time>
  <course>25.17</course>
  <speed>0.02</speed>
  <fix>3d</fix>
</trkpt>
<trkpt lat="40.0738019" lon="-105.2301186">
  <ele>1652.47</ele>
  <time>2026-08-27T18:26:56Z</time>
  <course>108.57</course>
  <speed>0.0</speed>
  <fix>3d</fix>
</trkpt>
<trkpt lat="40.073802" lon="-105.2301186">
  <ele>1653.31</ele>
  <time>2026-08-27T18:26:56Z</time>
  <course>25.17</course>
  <speed>0.02</speed>
  <fix>3d</fix>
</trkpt>
<trkpt lat="40.073802" lon="-105.2301186">
  <ele>1653.74</ele>
  <time>2026-08-27T18:26:56Z</time>
  <course>25.21</course>
  <speed>0.02</speed>
  <fix>3d</fix>
</trkpt>
<trkpt lat="40.0738019" lon="-105.2301185">
  <ele>1652.97</ele>
  <time>2026-08-27T18:26:56Z</time>
  <course>111.52</course>
  <speed>0.0</speed>
  <fix>3d</fix>
</trkpt>
<trkpt lat="40.073802" lon="-105.2301186">
  <ele>1653.8</ele>
  <time>2026-08-27T18:26:56Z</time>
  <course>25.21</course>
  <speed>0.02</speed>
  <fix>3d</fix>
</trkpt>
<trkpt lat="40.073802" lon="-105.2301186">
  <ele>1654.24</ele>
  <time>2026-08-27T18:26:56Z</time>
  <course>25.22</course>
  <speed>0.01</speed>
  <fix>3d</fix>
</trkpt>
<trkpt lat="40.0738019" lon="-105.2301184">
  <ele>1653.46</ele>
  <time>2026-08-27T18:26:56Z</time>
  <course>117.12</course>
  <speed>0.0</speed>
  <fix>3d</fix>
</trkpt>
<trkpt lat="40.073802" lon="-105.2301186">
  <ele>1654.32</ele>
  <time>2026-08-27T18:26:56Z</time>
  <course>25.22</course>
  <speed>0.01</speed>
  <fix>3d</fix>
</trkpt>
<trkpt lat="40.073802" lon="-105.2301186">
  <ele>1654.74</ele>
  <time>2026-08-27T18:26:56Z</time>
  <course>25.26</course>
  <speed>0.01</speed>
  <fix>3d</fix>
</trkpt>
<trkpt lat="40.0738018" lon="-105.2301184">
  <ele>1653.96</ele>
  <time>2026-08-27T18:26:56Z</time>
  <course>125.15</course>
  <speed>0.0</speed>
  <fix>3d</fix>
</trkpt>
<trkpt lat="40.073802" lon="-105.2301186">
  <ele>1654.83</ele>
  <time>2026-08-27T18:26:56Z</time>
  <course>25.27</course>
  <speed>0.01</speed>
  <fix>3d</fix>
</trkpt>
<trkpt lat="40.073802" lon="-105.2301186">
  <ele>1655.25</ele>
  <time>2026-08-27T18:26:56Z</time>
  <course>25.29</course>
  <speed>0.01</speed>
  <fix>3d</fix>
</trkpt>
<trkpt lat="40.0738018" lon="-105.2301184">
  <ele>1654.46</ele>
  <time>2026-08-27T18:26:56Z</time>
  <course>131.64</course>
  <speed>0.0</speed>
  <fix>3d</fix>
</trkpt>
<trkpt lat="40.073802" lon="-105.2301186">
  <ele>1655.32</ele>
  <time>2026-08-27T18:26:56Z</time>
  <course>25.28</course>
  <speed>0.01</speed>
  <fix>3d</fix>
</trkpt>
<trkpt lat="40.073802" lon="-105.2301186">
  <ele>1655.74</ele>
  <time>2026-08-27T18:26:56Z</time>
  <course>25.26</course>
  <speed>0.01</speed>
  <fix>3d</fix>
</trkpt>
<trkpt lat="40.0738018" lon="-105.2301184">
  <ele>1654.95</ele>
  <time>2026-08-27T18:26:56Z</time>
  <course>135.15</course>
  <speed>0.0</speed>
  <fix>3d</fix>
</trkpt>
<trkpt lat="40.073802" lon="-105.2301186">
  <ele>1655.76</ele>
  <time>2026-08-27T18:26:56Z</time>
  <course>25.26</course>
  <speed>0.01</speed>
  <fix>3d</fix>
</trkpt>
<trkpt lat="40.073802" lon="-105.2301186">
  <ele>1656.24</ele>
  <time>2026-08-27T18:26:56Z</time>
  <course>25.28</course>
  <speed>0.01</speed>
  <fix>3d</fix>
</trkpt>
<trkpt lat="40.0738018" lon="-105.2301184">
  <ele>1655.45</ele>
  <time>2026-08-27T18:26:56Z</time>
  <course>139.23</course>
  <speed>0.0</speed>
  <fix>3d</fix>
</trkpt>
<trkpt lat="40.073802" lon="-105.2301186">
  <ele>1656.31</ele>
  <time>2026-08-27T18:26:56Z</time>
  <course>25.28</course>
  <speed>0.01</speed>
  <fix>3d</fix>
</trkpt>
<trkpt lat="40.073802" lon="-105.2301186">
  <ele>1656.73</ele>
  <time>2026-08-27T18:26:56Z</time>
  <course>25.28</course>
  <speed>0.01</speed>
  <fix>3d</fix>
</trkpt>
<trkpt lat="40.0738018" lon="-105.2301184">
  <ele>1655.94</ele>
  <time>2026-08-27T18:26:56Z</time>
  <course>146.89</course>
  <speed>0.0</speed>
  <fix>3d</fix>
</trkpt>
<trkpt lat="40.073802" lon="-105.2301186">
  <ele>1656.74</ele>
  <time>2026-08-27T18:26:56Z</time>
  <course>25.28</course>
  <speed>0.01414213562373095</speed>
  <fix>3d</fix>
</trkpt>
<trkpt lat="40.073802" lon="-105.2301186">
  <ele>1657.22</ele>
  <time>2026-08-27T18:26:56Z</time>
  <course>25.28</course>
  <speed>0.01</speed>
  <fix>3d</fix>
</trkpt>
<trkpt lat="40.0738018" lon="-105.2301184">
  <ele>1656.43</ele>
  <time>2026-08-27T18:26:56Z</time>
  <course>154.9</course>
  <speed>0.0</speed>
  <fix>3d</fix>
</trkpt>
<trkpt lat="40.073802" lon="-105.2301186">
  <ele>1657.29</ele>
  <time>2026-08-27T18:26:56Z</time>
  <course>25.28</course>
  <speed>0.01414213562373095</speed>
  <fix>3d</fix>
</trkpt>
<trkpt lat="40.073802" lon="-105.2301185">
  <ele>1657.72</ele>
  <time>2026-08-27T18:26:56Z</time>
  <course>25.29</course>
  <speed>0.022360679774997897</speed>
  <fix>3d</fix>
</trkpt>
<trkpt lat="40.0738018" lon="-105.2301184">
  <ele>1656.93</ele>
  <time>2026-08-27T18:26:56Z</time>
  <course>158.29</course>
  <speed>0.0</speed>
  <fix>3d</fix>
</trkpt>
<trkpt lat="40.073802" lon="-105.2301185">
  <ele>1657.78</ele>
  <time>2026-08-27T18:26:56Z</time>
  <course>25.28</course>
  <speed>0.022360679774997897</speed>
  <fix>3d</fix>
</trkpt>
<trkpt lat="40.073802" lon="-105.2301185">
  <ele>1658.21</ele>
  <time>2026-08-27T18:26:56Z</time>
  <course>25.3</course>
  <speed>0.022360679774997897</speed>
  <fix>3d</fix>
</trkpt>
<trkpt lat="40.0738018" lon="-105.2301184">
  <ele>1657.43</ele>
  <time>2026-08-27T18:26:56Z</time>
  <course>159.31</course>
  <speed>0.0</speed>
  <fix>3d</fix>
</trkpt>
<trkpt lat="40.073802" lon="-105.2301185">
  <ele>1658.22</ele>
  <time>2026-08-27T18:26:56Z</time>
  <course>25.3</course>
  <speed>0.022360679774997897</speed>
  <fix>3d</fix>
</trkpt>
<trkpt lat="40.073802" lon="-105.2301185">
  <ele>1658.71</ele>
  <time>2026-08-27T18:26:56Z</time>
  <course>25.29</course>
  <speed>0.022360679774997897</speed>
  <fix>3d</fix>
</trkpt>
<trkpt lat="40.0738018" lon="-105.2301184">
  <ele>1657.92</ele>
  <time>2026-08-27T18:26:56Z</time>
  <course>166.62</course>
  <speed>0.0</speed>
  <fix>3d</fix>
</trkpt>
<trkpt lat="40.073802" lon="-105.2301185">
  <ele>1658.85</ele>
  <time>2026-08-27T18:26:56Z</time>
  <course>25.3</course>
  <speed>0.022360679774997897</speed>
  <fix>3d</fix>
</trkpt>
<trkpt lat="40.073802" lon="-105.2301185">
  <ele>1659.2</ele>
  <time>2026-08-27T18:26:56Z</time>
  <course>25.29</course>
  <speed>0.022360679774997897</speed>
  <fix>3d</fix>
</trkpt>
<trkpt lat="40.0738018" lon="-105.2301184">
  <ele>1658.42</ele>
  <time>2026-08-27T18:26:56Z</time>
  <course>197.51</course>
  <speed>0.0</speed>
  <fix>3d</fix>
</trkpt>
<trkpt lat="40.073802" lon="-105.2301185">
  <ele>1659.29</ele>
  <time>2026-08-27T18:26:56Z</time>
  <course>25.28</course>
  <speed>0.022360679774997897</speed>
  <fix>3d</fix>
</trkpt>
<trkpt lat="40.073802" lon="-105.2301185">
  <ele>1659.7</ele>
  <time>2026-08-27T18:26:56Z</time>
  <course>25.27</course>
  <speed>0.022360679774997897</speed>
  <fix>3d</fix>
</trkpt>
<trkpt lat="40.0738018" lon="-105.2301184">
  <ele>1658.92</ele>
  <time>2026-08-27T18:26:56Z</time>
  <course>231.02</course>
  <speed>0.0</speed>
  <fix>3d</fix>
</trkpt>
<trkpt lat="40.073802" lon="-105.2301185">
  <ele>1659.79</ele>
  <time>2026-08-27T18:26:56Z</time>
  <course>25.26</course>
  <speed>0.022360679774997897</speed>
  <fix>3d</fix>
</trkpt>
<trkpt lat="40.073802" lon="-105.2301185">
  <ele>1660.2</ele>
  <time>2026-08-27T18:26:56Z</time>
  <course>25.3</course>
  <speed>0.022360679774997897</speed>
  <fix>3d</fix>
</trkpt>
<trkpt lat="40.0738018" lon="-105.2301184">
  <ele>1659.42</ele>
  <time>2026-08-27T18:26:56Z</time>
  <course>252.83</course>
  <speed>0.0</speed>
  <fix>3d</fix>
</trkpt>
<trkpt lat="40.073802" lon="-105.2301185">
  <ele>1660.29</ele>
  <time>2026-08-27T18:26:56Z</time>
  <course>25.3</course>
  <speed>0.022360679774997897</speed>
  <fix>3d</fix>
</trkpt>
<trkpt lat="40.073802" lon="-105.2301185">
  <ele>1660.7</ele>
  <time>2026-08-27T18:26:56Z</time>
  <course>25.33</course>
  <speed>0.022360679774997897</speed>
  <fix>3d</fix>
</trkpt>
<trkpt lat="40.0738018" lon="-105.2301184">
  <ele>1659.93</ele>
  <time>2026-08-27T18:26:56Z</time>
  <course>271.52</course>
  <speed>0.0</speed>
  <fix>3d</fix>
</trkpt>
<trkpt lat="40.073802" lon="-105.2301185">
  <ele>1660.72</ele>
  <time>2026-08-27T18:26:56Z</time>
  <course>25.34</course>
  <speed>0.022360679774997897</speed>
  <fix>3d</fix>
</trkpt>
<trkpt lat="40.073802" lon="-105.2301185">
  <ele>1661.21</ele>
  <time>2026-08-27T18:26:56Z</time>
  <course>25.36</course>
  <speed>0.022360679774997897</speed>
  <fix>3d</fix>
</trkpt>
<trkpt lat="40.0738018" lon="-105.2301184">
  <ele>1660.43</ele>
  <time>2026-08-27T18:26:56Z</time>
  <course>280.3</course>
  <speed>0.0</speed>
  <fix>3d</fix>
</trkpt>
<trkpt lat="40.073802" lon="-105.2301185">
  <ele>1661.28</ele>
  <time>2026-08-27T18:26:56Z</time>
  <course>25.36</course>
  <speed>0.022360679774997897</speed>
  <fix>3d</fix>
</trkpt>
<trkpt lat="40.073802" lon="-105.2301185">
  <ele>1661.71</ele>
  <time>2026-08-27T18:26:56Z</time>
  <course>25.33</course>
  <speed>0.022360679774997897</speed>
  <fix>3d</fix>
</trkpt>
<trkpt lat="40.0738018" lon="-105.2301184">
  <ele>1660.93</ele>
  <time>2026-08-27T18:26:56Z</time>
  <course>282.79</course>
  <speed>0.0</speed>
  <fix>3d</fix>
</trkpt>
<trkpt lat="40.073802" lon="-105.2301185">
  <ele>1661.79</ele>
  <time>2026-08-27T18:26:56Z</time>
  <course>25.32</course>
  <speed>0.022360679774997897</speed>
  <fix>3d</fix>
</trkpt>
<trkpt lat="40.073802" lon="-105.2301185">
  <ele>1662.21</ele>
  <time>2026-08-27T18:26:56Z</time>
  <course>25.35</course>
  <speed>0.022360679774997897</speed>
  <fix>3d</fix>
</trkpt>
<trkpt lat="40.0738018" lon="-105.2301184">
  <ele>1661.44</ele>
  <time>2026-08-27T18:26:56Z</time>
  <course>284.53</course>
  <speed>0.0</speed>
  <fix>3d</fix>
</trkpt>
<trkpt lat="40.073802" lon="-105.2301185">
  <ele>1662.28</ele>
  <time>2026-08-27T18:26:56Z</time>
  <course>25.36</course>
  <speed>0.022360679774997897</speed>
  <fix>3d</fix>
</trkpt>
<trkpt lat="40.073802" lon="-105.2301185">
  <ele>1662.72</ele>
  <time>2026-08-27T18:26:57Z</time>
  <course>25.37</course>
  <speed>0.022360679774997897</speed>
  <fix>3d</fix>
</trkpt>
<trkpt lat="40.0738018" lon="-105.2301184">
  <ele>1661.94</ele>
  <time>2026-08-27T18:26:57Z</time>
  <course>285.56</course>
  <speed>0.0</speed>
  <fix>3d</fix>
</trkpt>
<trkpt lat="40.073802" lon="-105.2301185">
  <ele>1662.79</ele>
  <time>2026-08-27T18:26:57Z</time>
  <course>25.38</course>
  <speed>0.022360679774997897</speed>
  <fix>3d</fix>
</trkpt>
<trkpt lat="40.073802" lon="-105.2301185">
  <ele>1663.22</ele>
  <time>2026-08-27T18:26:57Z</time>
  <course>25.4</course>
  <speed>0.022360679774997897</speed>
  <fix>3d</fix>
</trkpt>
<trkpt lat="40.0738018" lon="-105.2301184">
  <ele>1662.44</ele>
  <time>2026-08-27T18:26:57Z</time>
  <course>285.17</course>
  <speed>0.0</speed>
  <fix>3d</fix>
</trkpt>
<trkpt lat="40.073802" lon="-105.2301185">
  <ele>1663.29</ele>
  <time>2026-08-27T18:26:57Z</time>
  <course>25.4</course>
  <speed>0.022360679774997897</speed>
  <fix>3d</fix>
</trkpt>
<trkpt lat="40.073802" lon="-105.2301185">
  <ele>1663.72</ele>
  <time>2026-08-27T18:26:57Z</time>
  <course>25.41</course>
  <speed>0.022360679774997897</speed>
  <fix>3d</fix>
</trkpt>
<trkpt lat="40.0738018" lon="-105.2301184">
  <ele>1662.94</ele>
  <time>2026-08-27T18:26:57Z</time>
  <course>285.0</course>
  <speed>0.0</speed>
  <fix>3d</fix>
</trkpt>
<trkpt lat="40.073802" lon="-105.2301185">
  <ele>1663.79</ele>
  <time>2026-08-27T18:26:57Z</time>
  <course>25.41</course>
  <speed>0.022360679774997897</speed>
  <fix>3d</fix>
</trkpt>
<trkpt lat="40.073802" lon="-105.2301185">
  <ele>1664.22</ele>
  <time>2026-08-27T18:26:57Z</time>
  <course>25.42</course>
  <speed>0.022360679774997897</speed>
  <fix>3d</fix>
</trkpt>
<trkpt lat="40.0738018" lon="-105.2301184">
  <ele>1663.44</ele>
  <time>2026-08-27T18:26:57Z</time>
  <course>285.18</course>
  <speed>0.0</speed>
  <fix>3d</fix>
</trkpt>
<trkpt lat="40.073802" lon="-105.2301185">
  <ele>1664.29</ele>
  <time>2026-08-27T18:26:57Z</time>
  <course>25.42</course>
  <speed>0.022360679774997897</speed>
  <fix>3d</fix>
</trkpt>
<trkpt lat="40.073802" lon="-105.2301185">
  <ele>1664.72</ele>
  <time>2026-08-27T18:26:57Z</time>
  <course>25.44</course>
  <speed>0.022360679774997897</speed>
  <fix>3d</fix>
</trkpt>
<trkpt lat="40.0738018" lon="-105.2301184">
  <ele>1663.95</ele>
  <time>2026-08-27T18:26:57Z</time>
  <course>286.05</course>
  <speed>0.0</speed>
  <fix>3d</fix>
</trkpt>
<trkpt lat="40.073802" lon="-105.2301185">
  <ele>1664.79</ele>
  <time>2026-08-27T18:26:57Z</time>
  <course>25.43</course>
  <speed>0.022360679774997897</speed>
  <fix>3d</fix>
</trkpt>
<trkpt lat="40.073802" lon="-105.2301185">
  <ele>1665.22</ele>
  <time>2026-08-27T18:26:57Z</time>
  <course>25.45</course>
  <speed>0.022360679774997897</speed>
  <fix>3d</fix>
</trkpt>
<trkpt lat="40.0738018" lon="-105.2301184">
  <ele>1664.44</ele>
  <time>2026-08-27T18:26:57Z</time>
  <course>287.83</course>
  <speed>0.0</speed>
  <fix>3d</fix>
</trkpt>
<trkpt lat="40.073802" lon="-105.2301185">
  <ele>1665.29</ele>
  <time>2026-08-27T18:26:57Z</time>
  <course>25.44</course>
  <speed>0.022360679774997897</speed>
  <fix>3d</fix>
</trkpt>
<trkpt lat="40.073802" lon="-105.2301185">
  <ele>1665.73</ele>
  <time>2026-08-27T18:26:57Z</time>
  <course>25.46</course>
  <speed>0.022360679774997897</speed>
  <fix>3d</fix>
</trkpt>
<trkpt lat="40.0738018" lon="-105.2301184">
  <ele>1664.94</ele>
  <time>2026-08-27T18:26:57Z</time>
  <course>290.83</course>
  <speed>0.0</speed>
  <fix>3d</fix>
</trkpt>
<trkpt lat="40.073802" lon="-105.2301185">
  <ele>1665.75</ele>
  <time>2026-08-27T18:26:57Z</time>
  <course>25.46</course>
  <speed>0.022360679774997897</speed>
  <fix>3d</fix>
</trkpt>
<trkpt lat="40.073802" lon="-105.2301185">
  <ele>1666.23</ele>
  <time>2026-08-27T18:26:57Z</time>
  <course>25.47</course>
  <speed>0.022360679774997897</speed>
  <fix>3d</fix>
</trkpt>
<trkpt lat="40.0738018" lon="-105.2301184">
  <ele>1665.44</ele>
  <time>2026-08-27T18:26:57Z</time>
  <course>295.66</course>
  <speed>0.0</speed>
  <fix>3d</fix>
</trkpt>
<trkpt lat="40.073802" lon="-105.2301185">
  <ele>1666.31</ele>
  <time>2026-08-27T18:26:57Z</time>
  <course>25.47</course>
  <speed>0.022360679774997897</speed>
  <fix>3d</fix>
</trkpt>
<trkpt lat="40.073802" lon="-105.2301185">
  <ele>1666.72</ele>
  <time>2026-08-27T18:26:57Z</time>
  <course>25.48</course>
  <speed>0.022360679774997897</speed>
  <fix>3d</fix>
</trkpt>
<trkpt lat="40.0738018" lon="-105.2301184">
  <ele>1665.94</ele>
  <time>2026-08-27T18:26:57Z</time>
  <course>307.94</course>
  <speed>0.0</speed>
  <fix>3d</fix>
</trkpt>
<trkpt lat="40.073802" lon="-105.2301185">
  <ele>1666.8</ele>
  <time>2026-08-27T18:26:57Z</time>
  <course>25.48</course>
  <speed>0.022360679774997897</speed>
  <fix>3d</fix>
</trkpt>
<trkpt lat="40.073802" lon="-105.2301185">
  <ele>1667.22</ele>
  <time>2026-08-27T18:26:57Z</time>
  <course>25.48</course>
  <speed>0.022360679774997897</speed>
  <fix>3d</fix>
</trkpt>
<trkpt lat="40.0738018" lon="-105.2301184">
  <ele>1666.44</ele>
  <time>2026-08-27T18:26:57Z</time>
  <course>321.49</course>
  <speed>0.0</speed>
  <fix>3d</fix>
</trkpt>
<trkpt lat="40.073802" lon="-105.2301185">
  <ele>1667.29</ele>
  <time>2026-08-27T18:26:57Z</time>
  <course>25.49</course>
  <speed>0.022360679774997897</speed>
  <fix>3d</fix>
</trkpt>
<trkpt lat="40.073802" lon="-105.2301185">
  <ele>1667.71</ele>
  <time>2026-08-27T18:26:57Z</time>
  <course>25.49</course>
  <speed>0.022360679774997897</speed>
  <fix>3d</fix>
</trkpt>
<trkpt lat="40.0738018" lon="-105.2301184">
  <ele>1666.94</ele>
  <time>2026-08-27T18:26:57Z</time>
  <course>326.82</course>
  <speed>0.0</speed>
  <fix>3d</fix>
</trkpt>
<trkpt lat="40.073802" lon="-105.2301185">
  <ele>1667.78</ele>
  <time>2026-08-27T18:26:57Z</time>
  <course>25.49</course>
  <speed>0.022360679774997897</speed>
  <fix>3d</fix>
</trkpt>
<trkpt lat="40.073802" lon="-105.2301185">
  <ele>1668.21</ele>
  <time>2026-08-27T18:26:57Z</time>
  <course>25.47</course>
  <speed>0.022360679774997897</speed>
  <fix>3d</fix>
</trkpt>
<trkpt lat="40.0738018" lon="-105.2301184">
  <ele>1667.44</ele>
  <time>2026-08-27T18:26:57Z</time>
  <course>328.28</course>
  <speed>0.0</speed>
  <fix>3d</fix>
</trkpt>
<trkpt lat="40.073802" lon="-105.2301185">
  <ele>1668.28</ele>
  <time>2026-08-27T18:26:57Z</time>
  <course>25.47</course>
  <speed>0.022360679774997897</speed>
  <fix>3d</fix>
</trkpt>
<trkpt lat="40.073802" lon="-105.2301185">
  <ele>1668.72</ele>
  <time>2026-08-27T18:26:57Z</time>
  <course>25.5</course>
  <speed>0.022360679774997897</speed>
  <fix>3d</fix>
</trkpt>
<trkpt lat="40.0738018" lon="-105.2301184">
  <ele>1667.94</ele>
  <time>2026-08-27T18:26:57Z</time>
  <course>326.84</course>
  <speed>0.0</speed>
  <fix>3d</fix>
</trkpt>
<trkpt lat="40.073802" lon="-105.2301185">
  <ele>1668.72</ele>
  <time>2026-08-27T18:26:57Z</time>
  <course>25.49</course>
  <speed>0.022360679774997897</speed>
  <fix>3d</fix>
</trkpt>
<trkpt lat="40.073802" lon="-105.2301185">
  <ele>1669.21</ele>
  <time>2026-08-27T18:26:57Z</time>
  <course>25.5</course>
  <speed>0.022360679774997897</speed>
  <fix>3d</fix>
</trkpt>
<trkpt lat="40.0738018" lon="-105.2301184">
  <ele>1668.44</ele>
  <time>2026-08-27T18:26:57Z</time>
  <course>319.26</course>
  <speed>0.0</speed>
  <fix>3d</fix>
</trkpt>
<trkpt lat="40.073802" lon="-105.2301185">
  <ele>1669.29</ele>
  <time>2026-08-27T18:26:57Z</time>
  <course>25.51</course>
  <speed>0.022360679774997897</speed>
  <fix>3d</fix>
</trkpt>
<trkpt lat="40.073802" lon="-105.2301185">
  <ele>1669.71</ele>
  <time>2026-08-27T18:26:57Z</time>
  <course>25.51</course>
  <speed>0.022360679774997897</speed>
  <fix>3d</fix>
</trkpt>
<trkpt lat="40.0738018" lon="-105.2301184">
  <ele>1668.94</ele>
  <time>2026-08-27T18:26:57Z</time>
  <course>310.32</course>
  <speed>0.0</speed>
  <fix>3d</fix>
</trkpt>
<trkpt lat="40.073802" lon="-105.2301185">
  <ele>1669.81</ele>
  <time>2026-08-27T18:26:57Z</time>
  <course>25.5</course>
  <speed>0.022360679774997897</speed>
  <fix>3d</fix>
</trkpt>
<trkpt lat="40.073802" lon="-105.2301185">
  <ele>1670.21</ele>
  <time>2026-08-27T18:26:57Z</time>
  <course>25.52</course>
  <speed>0.022360679774997897</speed>
  <fix>3d</fix>
</trkpt>
<trkpt lat="40.0738018" lon="-105.2301184">
  <ele>1669.44</ele>
  <time>2026-08-27T18:26:57Z</time>
  <course>308.08</course>
  <speed>0.0</speed>
  <fix>3d</fix>
</trkpt>
<trkpt lat="40.073802" lon="-105.2301185">
  <ele>1670.29</ele>
  <time>2026-08-27T18:26:57Z</time>
  <course>25.53</course>
  <speed>0.022360679774997897</speed>
  <fix>3d</fix>
</trkpt>
<trkpt lat="40.073802" lon="-105.2301185">
  <ele>1670.72</ele>
  <time>2026-08-27T18:26:57Z</time>
  <course>25.51</course>
  <speed>0.022360679774997897</speed>
  <fix>3d</fix>
</trkpt>
<trkpt lat="40.0738018" lon="-105.2301184">
  <ele>1669.94</ele>
  <time>2026-08-27T18:26:57Z</time>
  <course>309.29</course>
  <speed>0.0</speed>
  <fix>3d</fix>
</trkpt>
<trkpt lat="40.073802" lon="-105.2301185">
  <ele>1670.72</ele>
  <time>2026-08-27T18:26:57Z</time>
  <course>25.51</course>
  <speed>0.022360679774997897</speed>
  <fix>3d</fix>
</trkpt>
<trkpt lat="40.073802" lon="-105.2301185">
  <ele>1671.22</ele>
  <time>2026-08-27T18:26:57Z</time>
  <course>25.54</course>
  <speed>0.022360679774997897</speed>
  <fix>3d</fix>
</trkpt>
<trkpt lat="40.0738018" lon="-105.2301184">
  <ele>1670.44</ele>
  <time>2026-08-27T18:26:57Z</time>
  <course>307.62</course>
  <speed>0.0</speed>
  <fix>3d</fix>
</trkpt>
<trkpt lat="40.073802" lon="-105.2301185">
  <ele>1671.29</ele>
  <time>2026-08-27T18:26:57Z</time>
  <course>25.53</course>
  <speed>0.022360679774997897</speed>
  <fix>3d</fix>
</trkpt>
<trkpt lat="40.073802" lon="-105.2301185">
  <ele>1671.72</ele>
  <time>2026-08-27T18:26:57Z</time>
  <course>25.55</course>
  <speed>0.022360679774997897</speed>
  <fix>3d</fix>
</trkpt>
<trkpt lat="40.0738018" lon="-105.2301185">
  <ele>1670.94</ele>
  <time>2026-08-27T18:26:57Z</time>
  <course>302.97</course>
  <speed>0.0</speed>
  <fix>3d</fix>
</trkpt>
<trkpt lat="40.073802" lon="-105.2301185">
  <ele>1671.73</ele>
  <time>2026-08-27T18:26:57Z</time>
  <course>25.55</course>
  <speed>0.022360679774997897</speed>
  <fix>3d</fix>
</trkpt>
<trkpt lat="40.073802" lon="-105.2301185">
  <ele>1672.22</ele>
  <time>2026-08-27T18:26:57Z</time>
  <course>25.56</course>
  <speed>0.022360679774997897</speed>
  <fix>3d</fix>
</trkpt>
<trkpt lat="40.0738018" lon="-105.2301186">
  <ele>1671.44</ele>
  <time>2026-08-27T18:26:57Z</time>
  <course>297.59</course>
  <speed>0.0</speed>
  <fix>3d</fix>
</trkpt>
<trkpt lat="40.073802" lon="-105.2301185">
  <ele>1672.27</ele>
  <time>2026-08-27T18:26:57Z</time>
  <course>25.56</course>
  <speed>0.022360679774997897</speed>
  <fix>3d</fix>
</trkpt>
<trkpt lat="40.073802" lon="-105.2301185">
  <ele>1672.72</ele>
  <time>2026-08-27T18:26:57Z</time>
  <course>25.55</course>
  <speed>0.022360679774997897</speed>
  <fix>3d</fix>
</trkpt>
<trkpt lat="40.0738018" lon="-105.2301186">
  <ele>1671.95</ele>
  <time>2026-08-27T18:26:57Z</time>
  <course>293.29</course>
  <speed>0.0</speed>
  <fix>3d</fix>
</trkpt>
<trkpt lat="40.073802" lon="-105.2301186">
  <ele>1672.79</ele>
  <time>2026-08-27T18:26:57Z</time>
  <course>25.56</course>
  <speed>0.022360679774997897</speed>
  <fix>3d</fix>
</trkpt>
<trkpt lat="40.073802" lon="-105.2301186">
  <ele>1673.22</ele>
  <time>2026-08-27T18:26:57Z</time>
  <course>25.56</course>
  <speed>0.022360679774997897</speed>
  <fix>3d</fix>
</trkpt>
<trkpt lat="40.0738018" lon="-105.2301186">
  <ele>1672.45</ele>
  <time>2026-08-27T18:26:57Z</time>
  <course>294.67</course>
  <speed>0.0</speed>
  <fix>3d</fix>
</trkpt>
<trkpt lat="40.073802" lon="-105.2301186">
  <ele>1673.23</ele>
  <time>2026-08-27T18:26:57Z</time>
  <course>25.56</course>
  <speed>0.022360679774997897</speed>
  <fix>3d</fix>
</trkpt>
<trkpt lat="40.073802" lon="-105.2301186">
  <ele>1673.72</ele>
  <time>2026-08-27T18:26:57Z</time>
  <course>25.56</course>
  <speed>0.022360679774997897</speed>
  <fix>3d</fix>
</trkpt>
<trkpt lat="40.0738018" lon="-105.2301186">
  <ele>1672.95</ele>
  <time>2026-08-27T18:26:57Z</time>
  <course>302.51</course>
  <speed>0.0</speed>
  <fix>3d</fix>
</trkpt>
<trkpt lat="40.073802" lon="-105.2301186">
  <ele>1673.8</ele>
  <time>2026-08-27T18:26:57Z</time>
  <course>25.57</course>
  <speed>0.022360679774997897</speed>
  <fix>3d</fix>
</trkpt>
<trkpt lat="40.073802" lon="-105.2301186">
  <ele>1674.22</ele>
  <time>2026-08-27T18:26:57Z</time>
  <course>25.57</course>
  <speed>0.022360679774997897</speed>
  <fix>3d</fix>
</trkpt>
<trkpt lat="40.0738018" lon="-105.2301186">
  <ele>1673.45</ele>
  <time>2026-08-27T18:26:57Z</time>
  <course>310.8</course>
  <speed>0.0</speed>
  <fix>3d</fix>
</trkpt>
<trkpt lat="40.073802" lon="-105.2301186">
  <ele>1674.3</ele>
  <time>2026-08-27T18:26:57Z</time>
  <course>25.57</course>
  <speed>0.022360679774997897</speed>
  <fix>3d</fix>
</trkpt>
<trkpt lat="40.073802" lon="-105.2301186">
  <ele>1674.71</ele>
  <time>2026-08-27T18:26:57Z</time>
  <course>25.58</course>
  <speed>0.022360679774997897</speed>
  <fix>3d</fix>
</trkpt>
<trkpt lat="40.0738018" lon="-105.2301186">
  <ele>1673.95</ele>
  <time>2026-08-27T18:26:57Z</time>
  <course>327.37</course>
  <speed>0.0</speed>
  <fix>3d</fix>
</trkpt>
<trkpt lat="40.073802" lon="-105.2301186">
  <ele>1674.73</ele>
  <time>2026-08-27T18:26:57Z</time>
  <course>25.58</course>
  <speed>0.022360679774997897</speed>
  <fix>3d</fix>
</trkpt>
<trkpt lat="40.073802" lon="-105.2301186">
  <ele>1675.21</ele>
  <time>2026-08-27T18:26:57Z</time>
  <course>25.58</course>
  <speed>0.02</speed>
  <fix>3d</fix>
</trkpt>
<trkpt lat="40.0738018" lon="-105.2301186">
  <ele>1674.45</ele>
  <time>2026-08-27T18:26:57Z</time>
  <course>1.25</course>
  <speed>0.0</speed>
  <fix>3d</fix>
</trkpt>
<trkpt lat="40.073802" lon="-105.2301186">
  <ele>1675.3</ele>
  <time>2026-08-27T18:26:57Z</time>
  <course>25.58</course>
  <speed>0.02</speed>
  <fix>3d</fix>
</trkpt>
<trkpt lat="40.073802" lon="-105.2301186">
  <ele>1675.71</ele>
  <time>2026-08-27T18:26:57Z</time>
  <course>25.59</course>
  <speed>0.02</speed>
  <fix>3d</fix>
</trkpt>
<trkpt lat="40.0738018" lon="-105.2301186">
  <ele>1674.95</ele>
  <time>2026-08-27T18:26:57Z</time>
  <course>37.51</course>
  <speed>0.0</speed>
  <fix>3d</fix>
</trkpt>
<trkpt lat="40.073802" lon="-105.2301186">
  <ele>1675.79</ele>
  <time>2026-08-27T18:26:57Z</time>
  <course>25.59</course>
  <speed>0.02</speed>
  <fix>3d</fix>
</trkpt>
<trkpt lat="40.073802" lon="-105.2301186">
  <ele>1676.21</ele>
  <time>2026-08-27T18:26:57Z</time>
  <course>25.56</course>
  <speed>0.02</speed>
  <fix>3d</fix>
</trkpt>
<trkpt lat="40.0738018" lon="-105.2301186">
  <ele>1675.45</ele>
  <time>2026-08-27T18:26:57Z</time>
  <course>56.19</course>
  <speed>0.0</speed>
  <fix>3d</fix>
</trkpt>
<trkpt lat="40.073802" lon="-105.2301186">
  <ele>1676.25</ele>
  <time>2026-08-27T18:26:57Z</time>
  <course>25.56</course>
  <speed>0.02</speed>
  <fix>3d</fix>
</trkpt>
<trkpt lat="40.073802" lon="-105.2301186">
  <ele>1676.71</ele>
  <time>2026-08-27T18:26:57Z</time>
  <course>25.57</course>
  <speed>0.02</speed>
  <fix>3d</fix>
</trkpt>
<trkpt lat="40.0738018" lon="-105.2301186">
  <ele>1675.95</ele>
  <time>2026-08-27T18:26:57Z</time>
  <course>62.86</course>
  <speed>0.0</speed>
  <fix>3d</fix>
</trkpt>
<trkpt lat="40.073802" lon="-105.2301186">
  <ele>1676.79</ele>
  <time>2026-08-27T18:26:57Z</time>
  <course>25.58</course>
  <speed>0.02</speed>
  <fix>3d</fix>
</trkpt>
<trkpt lat="40.073802" lon="-105.2301186">
  <ele>1677.22</ele>
  <time>2026-08-27T18:26:57Z</time>
  <course>25.6</course>
  <speed>0.02</speed>
  <fix>3d</fix>
</trkpt>
<trkpt lat="40.0738018" lon="-105.2301186">
  <ele>1676.45</ele>
  <time>2026-08-27T18:26:57Z</time>
  <course>64.23</course>
  <speed>0.0</speed>
  <fix>3d</fix>
</trkpt>
<trkpt lat="40.073802" lon="-105.2301186">
  <ele>1677.29</ele>
  <time>2026-08-27T18:26:57Z</time>
  <course>25.6</course>
  <speed>0.02</speed>
  <fix>3d</fix>
</trkpt>
<trkpt lat="40.073802" lon="-105.2301186">
  <ele>1677.72</ele>
  <time>2026-08-27T18:26:57Z</time>
  <course>25.61</course>
  <speed>0.02</speed>
  <fix>3d</fix>
</trkpt>
<trkpt lat="40.0738018" lon="-105.2301186">
  <ele>1676.95</ele>
  <time>2026-08-27T18:26:57Z</time>
  <course>66.61</course>
  <speed>0.0</speed>
  <fix>3d</fix>
</trkpt>
<trkpt lat="40.073802" lon="-105.2301186">
  <ele>1677.83</ele>
  <time>2026-08-27T18:26:57Z</time>
  <course>25.62</course>
  <speed>0.02</speed>
  <fix>3d</fix>
</trkpt>
<trkpt lat="40.073802" lon="-105.2301186">
  <ele>1678.23</ele>
  <time>2026-08-27T18:26:57Z</time>
  <course>25.62</course>
  <speed>0.02</speed>
  <fix>3d</fix>
</trkpt>
<trkpt lat="40.0738018" lon="-105.2301186">
  <ele>1677.45</ele>
  <time>2026-08-27T18:26:57Z</time>
  <course>68.56</course>
  <speed>0.0</speed>
  <fix>3d</fix>
</trkpt>
<trkpt lat="40.073802" lon="-105.2301186">
  <ele>1678.24</ele>
  <time>2026-08-27T18:26:57Z</time>
  <course>25.62</course>
  <speed>0.02</speed>
  <fix>3d</fix>
</trkpt>
<trkpt lat="40.073802" lon="-105.2301186">
  <ele>1678.73</ele>
  <time>2026-08-27T18:26:57Z</time>
  <course>25.63</course>
  <speed>0.02</speed>
  <fix>3d</fix>
</trkpt>
<trkpt lat="40.0738018" lon="-105.2301186">
  <ele>1677.96</ele>
  <time>2026-08-27T18:26:57Z</time>
  <course>67.86</course>
  <speed>0.0</speed>
  <fix>3d</fix>
</trkpt>
<trkpt lat="40.073802" lon="-105.2301186">
  <ele>1678.81</ele>
  <time>2026-08-27T18:26:57Z</time>
  <course>25.64</course>
  <speed>0.02</speed>
  <fix>3d</fix>
</trkpt>
<trkpt lat="40.073802" lon="-105.2301186">
  <ele>1679.23</ele>
  <time>2026-08-27T18:26:57Z</time>
  <course>25.65</course>
  <speed>0.02</speed>
  <fix>3d</fix>
</trkpt>
<trkpt lat="40.0738018" lon="-105.2301186">
  <ele>1678.46</ele>
  <time>2026-08-27T18:26:57Z</time>
  <course>67.68</course>
  <speed>0.0</speed>
  <fix>3d</fix>
</trkpt>
<trkpt lat="40.073802" lon="-105.2301186">
  <ele>1679.3</ele>
  <time>2026-08-27T18:26:57Z</time>
  <course>25.65</course>
  <speed>0.02</speed>
  <fix>3d</fix>
</trkpt>
<trkpt lat="40.073802" lon="-105.2301186">
  <ele>1679.73</ele>
  <time>2026-08-27T18:26:57Z</time>
  <course>25.65</course>
  <speed>0.02</speed>
  <fix>3d</fix>
</trkpt>
<trkpt lat="40.0738018" lon="-105.2301186">
  <ele>1678.95</ele>
  <time>2026-08-27T18:26:57Z</time>
  <course>67.62</course>
  <speed>0.0</speed>
  <fix>3d</fix>
</trkpt>
<trkpt lat="40.073802" lon="-105.2301186">
  <ele>1679.8</ele>
  <time>2026-08-27T18:26:57Z</time>
  <course>25.65</course>
  <speed>0.02</speed>
  <fix>3d</fix>
</trkpt>
<trkpt lat="40.073802" lon="-105.2301186">
  <ele>1680.23</ele>
  <time>2026-08-27T18:26:57Z</time>
  <course>25.67</course>
  <speed>0.02</speed>
  <fix>3d</fix>
</trkpt>
<trkpt lat="40.0738018" lon="-105.2301185">
  <ele>1679.45</ele>
  <time>2026-08-27T18:26:57Z</time>
  <course>68.39</course>
  <speed>0.0</speed>
  <fix>3d</fix>
</trkpt>
<trkpt lat="40.073802" lon="-105.2301186">
  <ele>1680.32</ele>
  <time>2026-08-27T18:26:57Z</time>
  <course>25.67</course>
  <speed>0.02</speed>
  <fix>3d</fix>
</trkpt>
<trkpt lat="40.073802" lon="-105.2301186">
  <ele>1680.74</ele>
  <time>2026-08-27T18:26:57Z</time>
  <course>25.7</course>
  <speed>0.02</speed>
  <fix>3d</fix>
</trkpt>
<trkpt lat="40.0738018" lon="-105.2301184">
  <ele>1679.95</ele>
  <time>2026-08-27T18:26:57Z</time>
  <course>70.03</course>
  <speed>0.0</speed>
  <fix>3d</fix>
</trkpt>
<trkpt lat="40.073802" lon="-105.2301186">
  <ele>1680.74</ele>
  <time>2026-08-27T18:26:57Z</time>
  <course>25.7</course>
  <speed>0.02</speed>
  <fix>3d</fix>
</trkpt>
<trkpt lat="40.073802" lon="-105.2301186">
  <ele>1681.24</ele>
  <time>2026-08-27T18:26:57Z</time>
  <course>25.69</course>
  <speed>0.02</speed>
  <fix>3d</fix>
</trkpt>
<trkpt lat="40.0738019" lon="-105.2301184">
  <ele>1680.45</ele>
  <time>2026-08-27T18:26:57Z</time>
  <course>71.86</course>
  <speed>0.0</speed>
  <fix>3d</fix>
</trkpt>
<trkpt lat="40.073802" lon="-105.2301186">
  <ele>1681.3</ele>
  <time>2026-08-27T18:26:57Z</time>
  <course>25.69</course>
  <speed>0.02</speed>
  <fix>3d</fix>
</trkpt>
<trkpt lat="40.073802" lon="-105.2301186">
  <ele>1681.74</ele>
  <time>2026-08-27T18:26:57Z</time>
  <course>25.68</course>
  <speed>0.02</speed>
  <fix>3d</fix>
</trkpt>
<trkpt lat="40.0738019" lon="-105.2301184">
  <ele>1680.94</ele>
  <time>2026-08-27T18:26:57Z</time>
  <course>73.39</course>
  <speed>0.0</speed>
  <fix>3d</fix>
</trkpt>
<trkpt lat="40.073802" lon="-105.2301186">
  <ele>1681.81</ele>
  <time>2026-08-27T18:26:57Z</time>
  <course>25.68</course>
  <speed>0.02</speed>
  <fix>3d</fix>
</trkpt>
<trkpt lat="40.073802" lon="-105.2301186">
  <ele>1682.24</ele>
  <time>2026-08-27T18:26:57Z</time>
  <course>25.71</course>
  <speed>0.02</speed>
  <fix>3d</fix>
</trkpt>
<trkpt lat="40.0738019" lon="-105.2301184">
  <ele>1681.44</ele>
  <time>2026-08-27T18:26:57Z</time>
  <course>74.91</course>
  <speed>0.0</speed>
  <fix>3d</fix>
</trkpt>
<trkpt lat="40.073802" lon="-105.2301186">
  <ele>1682.34</ele>
  <time>2026-08-27T18:26:57Z</time>
  <course>25.71</course>
  <speed>0.02</speed>
  <fix>3d</fix>
</trkpt>
<trkpt lat="40.073802" lon="-105.2301185">
  <ele>1682.74</ele>
  <time>2026-08-27T18:26:57Z</time>
  <course>25.7</course>
  <speed>0.02</speed>
  <fix>3d</fix>
</trkpt>
<trkpt lat="40.0738019" lon="-105.2301184">
  <ele>1681.94</ele>
  <time>2026-08-27T18:26:57Z</time>
  <course>78.79</course>
  <speed>0.0</speed>
  <fix>3d</fix>
</trkpt>
<trkpt lat="40.073802" lon="-105.2301185">
  <ele>1682.8</ele>
  <time>2026-08-27T18:26:57Z</time>
  <course>25.69</course>
  <speed>0.02</speed>
  <fix>3d</fix>
</trkpt>
<trkpt lat="40.073802" lon="-105.2301185">
  <ele>1683.23</ele>
  <time>2026-08-27T18:26:57Z</time>
  <course>25.71</course>
  <speed>0.01</speed>
  <fix>3d</fix>
</trkpt>
<trkpt lat="40.0738019" lon="-105.2301184">
  <ele>1682.43</ele>
  <time>2026-08-27T18:26:57Z</time>
  <course>86.44</course>
  <speed>0.0</speed>
  <fix>3d</fix>
</trkpt>
<trkpt lat="40.073802" lon="-105.2301185">
  <ele>1683.33</ele>
  <time>2026-08-27T18:26:57Z</time>
  <course>25.71</course>
  <speed>0.01</speed>
  <fix>3d</fix>
</trkpt>
<trkpt lat="40.073802" lon="-105.2301185">
  <ele>1683.72</ele>
  <time>2026-08-27T18:26:57Z</time>
  <course>25.68</course>
  <speed>0.01</speed>
  <fix>3d</fix>
</trkpt>
<trkpt lat="40.0738019" lon="-105.2301184">
  <ele>1682.93</ele>
  <time>2026-08-27T18:26:57Z</time>
  <course>100.61</course>
  <speed>0.0</speed>
  <fix>3d</fix>
</trkpt>
<trkpt lat="40.073802" lon="-105.2301185">
  <ele>1683.75</ele>
  <time>2026-08-27T18:26:57Z</time>
  <course>25.68</course>
  <speed>0.01</speed>
  <fix>3d</fix>
</trkpt>
<trkpt lat="40.073802" lon="-105.2301185">
  <ele>1684.21</ele>
  <time>2026-08-27T18:26:57Z</time>
  <course>25.68</course>
  <speed>0.01414213562373095</speed>
  <fix>3d</fix>
</trkpt>
<trkpt lat="40.0738019" lon="-105.2301184">
  <ele>1683.42</ele>
  <time>2026-08-27T18:26:57Z</time>
  <course>120.8</course>
  <speed>0.0</speed>
  <fix>3d</fix>
</trkpt>
<trkpt lat="40.073802" lon="-105.2301185">
  <ele>1684.71</ele>
  <time>2026-08-27T18:26:57Z</time>
  <course>25.44</course>
  <speed>0.01</speed>
  <fix>3d</fix>
</trkpt>
<trkpt lat="40.0738019" lon="-105.2301184">
  <ele>1683.92</ele>
  <time>2026-08-27T18:26:57Z</time>
  <course>143.06</course>
  <speed>0.0</speed>
  <fix>3d</fix>
</trkpt>
<trkpt lat="40.073802" lon="-105.2301185">
  <ele>1685.27</ele>
  <time>2026-08-27T18:26:57Z</time>
  <course>23.56</course>
  <speed>0.0282842712474619</speed>
  <fix>3d</fix>
</trkpt>
<trkpt lat="40.0738019" lon="-105.2301184">
  <ele>1684.42</ele>
  <time>2026-08-27T18:26:57Z</time>
  <course>138.97</course>
  <speed>0.0</speed>
  <fix>3d</fix>
</trkpt>
<trkpt lat="40.073802" lon="-105.2301187">
  <ele>1685.56</ele>
  <time>2026-08-27T18:26:57Z</time>
  <course>31.15</course>
  <speed>0.14317821063276354</speed>
  <fix>3d</fix>
</trkpt>
<trkpt lat="40.0738019" lon="-105.2301184">
  <ele>1684.96</ele>
  <time>2026-08-27T18:26:57Z</time>
  <course>285.46</course>
  <speed>0.03</speed>
  <fix>3d</fix>
</trkpt>
<trkpt lat="40.0738021" lon="-105.230119">
  <ele>1685.32</ele>
  <time>2026-08-27T18:26:57Z</time>
  <course>32.41</course>
  <speed>0.2102379604162864</speed>
  <fix>3d</fix>
</trkpt>
<trkpt lat="40.0738019" lon="-105.2301185">
  <ele>1685.3</ele>
  <time>2026-08-27T18:26:57Z</time>
  <course>290.94</course>
  <speed>0.11</speed>
  <fix>3d</fix>
</trkpt>
<trkpt lat="40.0738023" lon="-105.2301195">
  <ele>1684.74</ele>
  <time>2026-08-27T18:26:57Z</time>
  <course>32.55</course>
  <speed>0.24166091947189144</speed>
  <fix>3d</fix>
</trkpt>
<trkpt lat="40.073802" lon="-105.2301188">
  <ele>1685.17</ele>
  <time>2026-08-27T18:26:57Z</time>
  <course>293.81</course>
  <speed>0.18</speed>
  <fix>3d</fix>
</trkpt>
<trkpt lat="40.0738025" lon="-105.23012">
  <ele>1683.93</ele>
  <time>2026-08-27T18:26:57Z</time>
  <course>31.17</course>
  <speed>0.2906888370749727</speed>
  <fix>3d</fix>
</trkpt>
<trkpt lat="40.0738021" lon="-105.2301192">
  <ele>1684.66</ele>
  <time>2026-08-27T18:26:57Z</time>
  <course>295.95</course>
  <speed>0.22</speed>
  <fix>3d</fix>
</trkpt>
<trkpt lat="40.0738027" lon="-105.2301206">
  <ele>1682.97</ele>
  <time>2026-08-27T18:26:57Z</time>
  <course>31.38</course>
  <speed>0.304138126514911</speed>
  <fix>3d</fix>
</trkpt>
<trkpt lat="40.0738023" lon="-105.2301198">
  <ele>1683.88</ele>
  <time>2026-08-27T18:26:57Z</time>
  <course>297.26</course>
  <speed>0.26</speed>
  <fix>3d</fix>
</trkpt>
<trkpt lat="40.0738029" lon="-105.2301212">
  <ele>1681.9</ele>
  <time>2026-08-27T18:26:57Z</time>
  <course>32.11</course>
  <speed>0.304138126514911</speed>
  <fix>3d</fix>
</trkpt>
<trkpt lat="40.0738026" lon="-105.2301204">
  <ele>1682.94</ele>
  <time>2026-08-27T18:26:57Z</time>
  <course>297.99</course>
  <speed>0.29</speed>
  <fix>3d</fix>
</trkpt>
<trkpt lat="40.0738031" lon="-105.2301218">
  <ele>1680.76</ele>
  <time>2026-08-27T18:26:57Z</time>
  <course>33.02</course>
  <speed>0.27294688127912364</speed>
  <fix>3d</fix>
</trkpt>
<trkpt lat="40.0738028" lon="-105.230121">
  <ele>1681.89</ele>
  <time>2026-08-27T18:26:57Z</time>
  <course>298.51</course>
  <speed>0.29</speed>
  <fix>3d</fix>
</trkpt>
<trkpt lat="40.0738034" lon="-105.2301223">
  <ele>1679.58</ele>
  <time>2026-08-27T18:26:57Z</time>
  <course>33.34</course>
  <speed>0.24186773244895649</speed>
  <fix>3d</fix>
</trkpt>
<trkpt lat="40.0738031" lon="-105.2301215">
  <ele>1680.77</ele>
  <time>2026-08-27T18:26:57Z</time>
  <course>299.12</course>
  <speed>0.27</speed>
  <fix>3d</fix>
</trkpt>
<trkpt lat="40.0738036" lon="-105.2301227">
  <ele>1678.36</ele>
  <time>2026-08-27T18:26:57Z</time>
  <course>33.23</course>
  <speed>0.2109502310972899</speed>
  <fix>3d</fix>
</trkpt>
<trkpt lat="40.0738032" lon="-105.230122">
  <ele>1679.61</ele>
  <time>2026-08-27T18:26:57Z</time>
  <course>300.0</course>
  <speed>0.23</speed>
  <fix>3d</fix>
</trkpt>
<trkpt lat="40.0738037" lon="-105.2301231">
  <ele>1677.14</ele>
  <time>2026-08-27T18:26:57Z</time>
  <course>32.96</course>
  <speed>0.18867962264113206</speed>
  <fix>3d</fix>
</trkpt>
<trkpt lat="40.0738034" lon="-105.2301225">
  <ele>1678.41</ele>
  <time>2026-08-27T18:26:57Z</time>
  <course>301.22</course>
  <speed>0.2</speed>
  <fix>3d</fix>
</trkpt>
<trkpt lat="40.0738039" lon="-105.2301234">
  <ele>1675.9</ele>
  <time>2026-08-27T18:26:57Z</time>
  <course>32.65</course>
  <speed>0.15811388300841897</speed>
  <fix>3d</fix>
</trkpt>
<trkpt lat="40.0738037" lon="-105.2301229">
  <ele>1677.21</ele>
  <time>2026-08-27T18:26:57Z</time>
  <course>302.76</course>
  <speed>0.17</speed>
  <fix>3d</fix>
</trkpt>
<trkpt lat="40.073804" lon="-105.2301236">
  <ele>1674.66</ele>
  <time>2026-08-27T18:26:57Z</time>
  <course>32.37</course>
  <speed>0.14212670403551894</speed>
  <fix>3d</fix>
</trkpt>
<trkpt lat="40.0738038" lon="-105.2301232">
  <ele>1675.99</ele>
  <time>2026-08-27T18:26:57Z</time>
  <course>304.67</course>
  <speed>0.15</speed>
  <fix>3d</fix>
</trkpt>
<trkpt lat="40.0738042" lon="-105.2301238">
  <ele>1673.4</ele>
  <time>2026-08-27T18:26:57Z</time>
  <course>32.09</course>
  <speed>0.12041594578792296</speed>
  <fix>3d</fix>
</trkpt>
<trkpt lat="40.0738039" lon="-105.2301234">
  <ele>1674.77</ele>
  <time>2026-08-27T18:26:57Z</time>
  <course>307.1</course>
  <speed>0.12</speed>
  <fix>3d</fix>
</trkpt>
<trkpt lat="40.0738043" lon="-105.230124">
  <ele>1672.15</ele>
  <time>2026-08-27T18:26:57Z</time>
  <course>31.84</course>
  <speed>0.09219544457292887</speed>
  <fix>3d</fix>
</trkpt>
<trkpt lat="40.0738041" lon="-105.2301237">
  <ele>1673.54</ele>
  <time>2026-08-27T18:26:57Z</time>
  <course>310.27</course>
  <speed>0.1</speed>
  <fix>3d</fix>
</trkpt>
<trkpt lat="40.0738044" lon="-105.2301241">
  <ele>1670.9</ele>
  <time>2026-08-27T18:26:57Z</time>
  <course>31.61</course>
  <speed>0.08602325267042626</speed>
  <fix>3d</fix>
</trkpt>
<trkpt lat="40.0738042" lon="-105.2301239">
  <ele>1672.31</ele>
  <time>2026-08-27T18:26:57Z</time>
  <course>314.61</course>
  <speed>0.08</speed>
  <fix>3d</fix>
</trkpt>
<trkpt lat="40.0738045" lon="-105.2301242">
  <ele>1669.65</ele>
  <time>2026-08-27T18:26:57Z</time>
  <course>31.42</course>
  <speed>0.0670820393249937</speed>
  <fix>3d</fix>
</trkpt>
<trkpt lat="40.0738043" lon="-105.230124">
  <ele>1671.08</ele>
  <time>2026-08-27T18:26:57Z</time>
  <course>320.93</course>
  <speed>0.06</speed>
  <fix>3d</fix>
</trkpt>
<trkpt lat="40.0738046" lon="-105.2301242">
  <ele>1668.4</ele>
  <time>2026-08-27T18:26:57Z</time>
  <course>31.25</course>
  <speed>0.05099019513592785</speed>
  <fix>3d</fix>
</trkpt>
<trkpt lat="40.0738044" lon="-105.2301241">
  <ele>1669.85</ele>
  <time>2026-08-27T18:26:57Z</time>
  <course>330.85</course>
  <speed>0.04</speed>
  <fix>3d</fix>
</trkpt>
<trkpt lat="40.0738046" lon="-105.2301242">
  <ele>1667.15</ele>
  <time>2026-08-27T18:26:57Z</time>
  <course>31.09</course>
  <speed>0.05</speed>
  <fix>3d</fix>
</trkpt>
<trkpt lat="40.0738045" lon="-105.2301241">
  <ele>1668.62</ele>
  <time>2026-08-27T18:26:57Z</time>
  <course>347.78</course>
  <speed>0.03</speed>
  <fix>3d</fix>
</trkpt>
<trkpt lat="40.0738047" lon="-105.2301242">
  <ele>1665.91</ele>
  <time>2026-08-27T18:26:57Z</time>
  <course>30.95</course>
  <speed>0.0412310562561766</speed>
  <fix>3d</fix>
</trkpt>
<trkpt lat="40.0738045" lon="-105.2301241">
  <ele>1667.39</ele>
  <time>2026-08-27T18:26:57Z</time>
  <course>15.5</course>
  <speed>0.02</speed>
  <fix>3d</fix>
</trkpt>
<trkpt lat="40.0738047" lon="-105.2301241">
  <ele>1664.67</ele>
  <time>2026-08-27T18:26:57Z</time>
  <course>30.79</course>
  <speed>0.03605551275463989</speed>
  <fix>3d</fix>
</trkpt>
<trkpt lat="40.0738045" lon="-105.2301241">
  <ele>1666.16</ele>
  <time>2026-08-27T18:26:57Z</time>
  <course>47.04</course>
  <speed>0.02</speed>
  <fix>3d</fix>
</trkpt>
<trkpt lat="40.0738047" lon="-105.2301241">
  <ele>1663.44</ele>
  <time>2026-08-27T18:26:57Z</time>
  <course>30.67</course>
  <speed>0.04242640687119285</speed>
  <fix>3d</fix>
</trkpt>
<trkpt lat="40.0738046" lon="-105.2301241">
  <ele>1664.94</ele>
  <time>2026-08-27T18:26:57Z</time>
  <course>68.71</course>
  <speed>0.03</speed>
  <fix>3d</fix>
</trkpt>
<trkpt lat="40.0738047" lon="-105.230124">
  <ele>1662.2</ele>
  <time>2026-08-27T18:26:57Z</time>
  <course>30.42</course>
  <speed>0.044721359549995794</speed>
  <fix>3d</fix>
</trkpt>
<trkpt lat="40.0738046" lon="-105.230124">
  <ele>1663.71</ele>
  <time>2026-08-27T18:26:57Z</time>
  <course>81.15</course>
  <speed>0.04</speed>
  <fix>3d</fix>
</trkpt>
<trkpt lat="40.0738047" lon="-105.2301238">
  <ele>1660.96</ele>
  <time>2026-08-27T18:26:57Z</time>
  <course>30.19</course>
  <speed>0.053851648071345036</speed>
  <fix>3d</fix>
</trkpt>
<trkpt lat="40.0738046" lon="-105.2301239">
  <ele>1662.48</ele>
  <time>2026-08-27T18:26:57Z</time>
  <course>88.13</course>
  <speed>0.05</speed>
  <fix>3d</fix>
</trkpt>
<trkpt lat="40.0738047" lon="-105.2301237">
  <ele>1659.72</ele>
  <time>2026-08-27T18:26:57Z</time>
  <course>29.98</course>
  <speed>0.053851648071345036</speed>
  <fix>3d</fix>
</trkpt>
<trkpt lat="40.0738046" lon="-105.2301238">
  <ele>1661.25</ele>
  <time>2026-08-27T18:26:57Z</time>
  <course>92.16</course>
  <speed>0.06</speed>
  <fix>3d</fix>
</trkpt>
<trkpt lat="40.0738047" lon="-105.2301235">
  <ele>1658.48</ele>
  <time>2026-08-27T18:26:57Z</time>
  <course>29.81</course>
  <speed>0.053851648071345036</speed>
  <fix>3d</fix>
</trkpt>
<trkpt lat="40.0738046" lon="-105.2301235">
  <ele>1660.02</ele>
  <time>2026-08-27T18:26:57Z</time>
  <course>94.79</course>
  <speed>0.06</speed>
  <fix>3d</fix>
</trkpt>
<trkpt lat="40.0738047" lon="-105.2301234">
  <ele>1657.24</ele>
  <time>2026-08-27T18:26:57Z</time>
  <course>29.64</course>
  <speed>0.06082762530298219</speed>
  <fix>3d</fix>
</trkpt>
<trkpt lat="40.0738046" lon="-105.2301234">
  <ele>1658.79</ele>
  <time>2026-08-27T18:26:57Z</time>
  <course>96.61</course>
  <speed>0.07</speed>
  <fix>3d</fix>
</trkpt>
<trkpt lat="40.0738047" lon="-105.2301232">
  <ele>1656.0</ele>
  <time>2026-08-27T18:26:57Z</time>
  <course>29.52</course>
  <speed>0.05099019513592785</speed>
  <fix>3d</fix>
</trkpt>
<trkpt lat="40.0738046" lon="-105.2301233">
  <ele>1657.56</ele>
  <time>2026-08-27T18:26:57Z</time>
  <course>97.85</course>
  <speed>0.07</speed>
  <fix>3d</fix>
</trkpt>
<trkpt lat="40.0738047" lon="-105.2301231">
  <ele>1654.77</ele>
  <time>2026-08-27T18:26:57Z</time>
  <course>29.4</course>
  <speed>0.05099019513592785</speed>
  <fix>3d</fix>
</trkpt>
<trkpt lat="40.0738046" lon="-105.2301231">
  <ele>1656.33</ele>
  <time>2026-08-27T18:26:57Z</time>
  <course>98.63</course>
  <speed>0.06</speed>
  <fix>3d</fix>
</trkpt>
<trkpt lat="40.0738047" lon="-105.2301229">
  <ele>1653.59</ele>
  <time>2026-08-27T18:26:57Z</time>
  <course>29.41</course>
  <speed>0.11</speed>
  <fix>3d</fix>
</trkpt>
<trkpt lat="40.0738046" lon="-105.2301229">
  <ele>1655.09</ele>
  <time>2026-08-27T18:26:57Z</time>
  <course>99.02</course>
  <speed>0.06</speed>
  <fix>3d</fix>
</trkpt>
<trkpt lat="40.0738047" lon="-105.2301225">
  <ele>1652.72</ele>
  <time>2026-08-27T18:26:57Z</time>
  <course>30.08</course>
  <speed>0.196468827043885</speed>
  <fix>3d</fix>
</trkpt>
<trkpt lat="40.0738046" lon="-105.2301228">
  <ele>1653.94</ele>
  <time>2026-08-27T18:26:57Z</time>
  <course>108.13</course>
  <speed>0.11</speed>
  <fix>3d</fix>
</trkpt>
<trkpt lat="40.0738045" lon="-105.230122">
  <ele>1652.06</ele>
  <time>2026-08-27T18:26:57Z</time>
  <course>30.57</course>
  <speed>0.26248809496813374</speed>
  <fix>3d</fix>
</trkpt>
<trkpt lat="40.0738045" lon="-105.2301224">
  <ele>1653.01</ele>
  <time>2026-08-27T18:26:57Z</time>
  <course>113.45</course>
  <speed>0.2</speed>
  <fix>3d</fix>
</trkpt>
<trkpt lat="40.0738043" lon="-105.2301213">
  <ele>1651.53</ele>
  <time>2026-08-27T18:26:57Z</time>
  <course>30.53</course>
  <speed>0.31622776601683794</speed>
  <fix>3d</fix>
</trkpt>
<trkpt lat="40.0738044" lon="-105.2301219">
  <ele>1652.32</ele>
  <time>2026-08-27T18:26:57Z</time>
  <course>115.07</course>
  <speed>0.27</speed>
  <fix>3d</fix>
</trkpt>
<trkpt lat="40.073804" lon="-105.2301205">
  <ele>1651.06</ele>
  <time>2026-08-27T18:26:57Z</time>
  <course>30.06</course>
  <speed>0.354682957019364</speed>
  <fix>3d</fix>
</trkpt>
<trkpt lat="40.0738041" lon="-105.2301212">
  <ele>1651.78</ele>
  <time>2026-08-27T18:26:57Z</time>
  <course>115.75</course>
  <speed>0.33</speed>
  <fix>3d</fix>
</trkpt>
<trkpt lat="40.0738037" lon="-105.2301197">
  <ele>1650.62</ele>
  <time>2026-08-27T18:26:57Z</time>
  <course>29.42</course>
  <speed>0.38626415831655936</speed>
  <fix>3d</fix>
</trkpt>
<trkpt lat="40.0738038" lon="-105.2301205">
  <ele>1651.3</ele>
  <time>2026-08-27T18:26:57Z</time>
  <course>116.13</course>
  <speed>0.38</speed>
  <fix>3d</fix>
</trkpt>
<trkpt lat="40.0738034" lon="-105.2301188">
  <ele>1650.2</ele>
  <time>2026-08-27T18:26:57Z</time>
  <course>28.82</course>
  <speed>0.41231056256176607</speed>
  <fix>3d</fix>
</trkpt>
<trkpt lat="40.0738035" lon="-105.2301196">
  <ele>1650.87</ele>
  <time>2026-08-27T18:26:57Z</time>
  <course>116.41</course>
  <speed>0.41</speed>
  <fix>3d</fix>
</trkpt>
<trkpt lat="40.073803" lon="-105.2301179">
  <ele>1649.79</ele>
  <time>2026-08-27T18:26:57Z</time>
  <course>28.35</course>
  <speed>0.4346262762420146</speed>
  <fix>3d</fix>
</trkpt>
<trkpt lat="40.0738032" lon="-105.2301187">
  <ele>1650.45</ele>
  <time>2026-08-27T18:26:57Z</time>
  <course>116.7</course>
  <speed>0.43</speed>
  <fix>3d</fix>
</trkpt>
<trkpt lat="40.0738026" lon="-105.2301169">
  <ele>1649.38</ele>
  <time>2026-08-27T18:26:57Z</time>
  <course>27.99</course>
  <speed>0.4477722635447622</speed>
  <fix>3d</fix>
</trkpt>
<trkpt lat="40.0738027" lon="-105.2301177">
  <ele>1650.03</ele>
  <time>2026-08-27T18:26:57Z</time>
  <course>117.0</course>
  <speed>0.45</speed>
  <fix>3d</fix>
</trkpt>
<trkpt lat="40.0738022" lon="-105.2301159">
  <ele>1648.97</ele>
  <time>2026-08-27T18:26:57Z</time>
  <course>27.74</course>
  <speed>0.4609772228646444</speed>
  <fix>3d</fix>
</trkpt>
<trkpt lat="40.0738024" lon="-105.2301167">
  <ele>1649.62</ele>
  <time>2026-08-27T18:26:57Z</time>
  <course>117.34</course>
  <speed>0.47</speed>
  <fix>3d</fix>
</trkpt>
<trkpt lat="40.0738018" lon="-105.2301148">
  <ele>1648.57</ele>
  <time>2026-08-27T18:26:57Z</time>
  <course>27.58</course>
  <speed>0.474236228055175</speed>
  <fix>3d</fix>
</trkpt>
<trkpt lat="40.073802" lon="-105.2301157">
  <ele>1649.21</ele>
  <time>2026-08-27T18:26:57Z</time>
  <course>117.69</course>
  <speed>0.49</speed>
  <fix>3d</fix>
</trkpt>
<trkpt lat="40.0738014" lon="-105.2301138">
  <ele>1648.17</ele>
  <time>2026-08-27T18:26:57Z</time>
  <course>27.48</course>
  <speed>0.4875448697299562</speed>
  <fix>3d</fix>
</trkpt>
<trkpt lat="40.0738015" lon="-105.2301148">
  <ele>1648.8</ele>
  <time>2026-08-27T18:26:57Z</time>
  <course>118.04</course>
  <speed>0.5</speed>
  <fix>3d</fix>
</trkpt>
<trkpt lat="40.0738009" lon="-105.2301127">
  <ele>1647.77</ele>
  <time>2026-08-27T18:26:57Z</time>
  <course>27.41</course>
  <speed>0.49193495504995377</speed>
  <fix>3d</fix>
</trkpt>
<trkpt lat="40.0738012" lon="-105.2301137">
  <ele>1648.39</ele>
  <time>2026-08-27T18:26:57Z</time>
  <course>118.39</course>
  <speed>0.51</speed>
  <fix>3d</fix>
</trkpt>
<trkpt lat="40.0738005" lon="-105.2301117">
  <ele>1647.38</ele>
  <time>2026-08-27T18:26:57Z</time>
  <course>27.36</course>
  <speed>0.5142956348249517</speed>
  <fix>3d</fix>
</trkpt>
<trkpt lat="40.0738007" lon="-105.2301126">
  <ele>1647.99</ele>
  <time>2026-08-27T18:26:57Z</time>
  <course>118.73</course>
  <speed>0.51</speed>
  <fix>3d</fix>
</trkpt>
<trkpt lat="40.0738" lon="-105.2301105">
  <ele>1647.05</ele>
  <time>2026-08-27T18:26:57Z</time>
  <course>27.2</course>
  <speed>0.5277309920783505</speed>
  <fix>3d</fix>
</trkpt>
<trkpt lat="40.0738003" lon="-105.2301116">
  <ele>1647.6</ele>
  <time>2026-08-27T18:26:57Z</time>
  <course>119.07</course>
  <speed>0.53</speed>
  <fix>3d</fix>
</trkpt>
<trkpt lat="40.0737995" lon="-105.2301094">
  <ele>1646.76</ele>
  <time>2026-08-27T18:26:57Z</time>
  <course>26.88</course>
  <speed>0.5412023651093923</speed>
  <fix>3d</fix>
</trkpt>
<trkpt lat="40.0737998" lon="-105.2301105">
  <ele>1647.25</ele>
  <time>2026-08-27T18:26:57Z</time>
  <course>119.41</course>
  <speed>0.55</speed>
  <fix>3d</fix>
</trkpt>
<trkpt lat="40.073799" lon="-105.2301082">
  <ele>1646.49</ele>
  <time>2026-08-27T18:26:57Z</time>
  <course>26.52</course>
  <speed>0.5547071299343466</speed>
  <fix>3d</fix>
</trkpt>
<trkpt lat="40.0737993" lon="-105.2301093">
  <ele>1646.95</ele>
  <time>2026-08-27T18:26:57Z</time>
  <course>119.75</course>
  <speed>0.57</speed>
  <fix>3d</fix>
</trkpt>
<trkpt lat="40.0737984" lon="-105.230107">
  <ele>1646.24</ele>
  <time>2026-08-27T18:26:57Z</time>
  <course>26.22</course>
  <speed>0.5594640292279746</speed>
  <fix>3d</fix>
</trkpt>
<trkpt lat="40.0737987" lon="-105.2301081">
  <ele>1646.67</ele>
  <time>2026-08-27T18:26:57Z</time>
  <course>120.14</course>
  <speed>0.58</speed>
  <fix>3d</fix>
</trkpt>
<trkpt lat="40.0737979" lon="-105.2301058">
  <ele>1645.98</ele>
  <time>2026-08-27T18:26:57Z</time>
  <course>26.0</course>
  <speed>0.5643580423808985</speed>
  <fix>3d</fix>
</trkpt>
<trkpt lat="40.0737982" lon="-105.230107">
  <ele>1646.4</ele>
  <time>2026-08-27T18:26:57Z</time>
  <course>120.57</course>
  <speed>0.58</speed>
  <fix>3d</fix>
</trkpt>
<trkpt lat="40.0737973" lon="-105.2301047">
  <ele>1645.74</ele>
  <time>2026-08-27T18:26:57Z</time>
  <course>25.87</course>
  <speed>0.5643580423808985</speed>
  <fix>3d</fix>
</trkpt>
<trkpt lat="40.0737977" lon="-105.2301057">
  <ele>1646.14</ele>
  <time>2026-08-27T18:26:57Z</time>
  <course>121.03</course>
  <speed>0.59</speed>
  <fix>3d</fix>
</trkpt>
<trkpt lat="40.0737968" lon="-105.2301035">
  <ele>1645.5</ele>
  <time>2026-08-27T18:26:57Z</time>
  <course>25.79</course>
  <speed>0.5693856338194704</speed>
  <fix>3d</fix>
</trkpt>
<trkpt lat="40.0737971" lon="-105.2301046">
  <ele>1645.89</ele>
  <time>2026-08-27T18:26:57Z</time>
  <course>121.53</course>
  <speed>0.59</speed>
  <fix>3d</fix>
</trkpt>
<trkpt lat="40.0737962" lon="-105.2301023">
  <ele>1645.26</ele>
  <time>2026-08-27T18:26:57Z</time>
  <course>25.76</course>
  <speed>0.5693856338194704</speed>
  <fix>3d</fix>
</trkpt>
<trkpt lat="40.0737965" lon="-105.2301033">
  <ele>1645.64</ele>
  <time>2026-08-27T18:26:57Z</time>
  <course>122.03</course>
  <speed>0.59</speed>
  <fix>3d</fix>
</trkpt>
<trkpt lat="40.0737956" lon="-105.2301011">
  <ele>1645.03</ele>
  <time>2026-08-27T18:26:57Z</time>
  <course>25.75</course>
  <speed>0.574543296888929</speed>
  <fix>3d</fix>
</trkpt>
<trkpt lat="40.073796" lon="-105.2301022">
  <ele>1645.39</ele>
  <time>2026-08-27T18:26:57Z</time>
  <course>122.54</course>
  <speed>0.59</speed>
  <fix>3d</fix>
</trkpt>
<trkpt lat="40.073795" lon="-105.2300999">
  <ele>1644.8</ele>
  <time>2026-08-27T18:26:57Z</time>
  <course>25.75</course>
  <speed>0.5660388679233962</speed>
  <fix>3d</fix>
</trkpt>
<trkpt lat="40.0737953" lon="-105.2301009">
  <ele>1645.15</ele>
  <time>2026-08-27T18:26:57Z</time>
  <course>123.06</course>
  <speed>0.59</speed>
  <fix>3d</fix>
</trkpt>
<trkpt lat="40.0737944" lon="-105.2300988">
  <ele>1644.59</ele>
  <time>2026-08-27T18:26:57Z</time>
  <course>25.75</course>
  <speed>0.5660388679233962</speed>
  <fix>3d</fix>
</trkpt>
<trkpt lat="40.0737948" lon="-105.2300998">
  <ele>1644.92</ele>
  <time>2026-08-27T18:26:57Z</time>
  <course>123.58</course>
  <speed>0.59</speed>
  <fix>3d</fix>
</trkpt>
<trkpt lat="40.0737938" lon="-105.2300976">
  <ele>1644.37</ele>
  <time>2026-08-27T18:26:57Z</time>
  <course>25.76</course>
  <speed>0.5630275304103699</speed>
  <fix>3d</fix>
</trkpt>
<trkpt lat="40.0737943" lon="-105.2300986">
  <ele>1644.69</ele>
  <time>2026-08-27T18:26:57Z</time>
  <course>124.1</course>
  <speed>0.59</speed>
  <fix>3d</fix>
</trkpt>
<trkpt lat="40.0737932" lon="-105.2300965">
  <ele>1644.17</ele>
  <time>2026-08-27T18:26:57Z</time>
  <course>25.76</course>
  <speed>0.5547071299343466</speed>
  <fix>3d</fix>
</trkpt>
<trkpt lat="40.0737936" lon="-105.2300975">
  <ele>1644.47</ele>
  <time>2026-08-27T18:26:57Z</time>
  <course>124.62</course>
  <speed>0.58</speed>
  <fix>3d</fix>
</trkpt>
<trkpt lat="40.0737926" lon="-105.2300954">
  <ele>1643.96</ele>
  <time>2026-08-27T18:26:57Z</time>
  <course>25.77</course>
  <speed>0.5547071299343466</speed>
  <fix>3d</fix>
</trkpt>
<trkpt lat="40.0737931" lon="-105.2300964">
  <ele>1644.25</ele>
  <time>2026-08-27T18:26:57Z</time>
  <course>125.15</course>
  <speed>0.58</speed>
  <fix>3d</fix>
</trkpt>
<trkpt lat="40.073792" lon="-105.2300943">
  <ele>1643.77</ele>
  <time>2026-08-27T18:26:57Z</time>
  <course>25.77</course>
  <speed>0.54644304369257</speed>
  <fix>3d</fix>
</trkpt>
<trkpt lat="40.0737924" lon="-105.2300953">
  <ele>1644.05</ele>
  <time>2026-08-27T18:26:57Z</time>
  <course>125.69</course>
  <speed>0.58</speed>
  <fix>3d</fix>
</trkpt>
<trkpt lat="40.0737914" lon="-105.2300932">
  <ele>1643.58</ele>
  <time>2026-08-27T18:26:57Z</time>
  <course>25.8</course>
  <speed>0.5382378656319156</speed>
  <fix>3d</fix>
</trkpt>
<trkpt lat="40.0737917" lon="-105.2300942">
  <ele>1643.85</ele>
  <time>2026-08-27T18:26:57Z</time>
  <course>126.23</course>
  <speed>0.57</speed>
  <fix>3d</fix>
</trkpt>
<trkpt lat="40.0737908" lon="-105.2300921">
  <ele>1643.4</ele>
  <time>2026-08-27T18:26:57Z</time>
  <course>25.81</course>
  <speed>0.5300943312279428</speed>
  <fix>3d</fix>
</trkpt>
<trkpt lat="40.0737912" lon="-105.2300931">
  <ele>1643.65</ele>
  <time>2026-08-27T18:26:57Z</time>
  <course>126.78</course>
  <speed>0.56</speed>
  <fix>3d</fix>
</trkpt>
<trkpt lat="40.0737901" lon="-105.2300911">
  <ele>1643.22</ele>
  <time>2026-08-27T18:26:57Z</time>
  <course>25.83</course>
  <speed>0.5280151512977634</speed>
  <fix>3d</fix>
</trkpt>
<trkpt lat="40.0737905" lon="-105.230092">
  <ele>1643.47</ele>
  <time>2026-08-27T18:26:57Z</time>
  <course>127.34</course>
  <speed>0.56</speed>
  <fix>3d</fix>
</trkpt>
<trkpt lat="40.0737895" lon="-105.2300901">
  <ele>1643.06</ele>
  <time>2026-08-27T18:26:57Z</time>
  <course>25.86</course>
  <speed>0.5200961449578337</speed>
  <fix>3d</fix>
</trkpt>
<trkpt lat="40.07379" lon="-105.230091">
  <ele>1643.29</ele>
  <time>2026-08-27T18:26:57Z</time>
  <course>127.91</course>
  <speed>0.55</speed>
  <fix>3d</fix>
</trkpt>
<trkpt lat="40.0737889" lon="-105.2300891">
  <ele>1642.9</ele>
  <time>2026-08-27T18:26:57Z</time>
  <course>25.95</course>
  <speed>0.5122499389946279</speed>
  <fix>3d</fix>
</trkpt>
<trkpt lat="40.0737893" lon="-105.2300899">
  <ele>1643.11</ele>
  <time>2026-08-27T18:26:57Z</time>
  <course>128.48</course>
  <speed>0.54</speed>
  <fix>3d</fix>
</trkpt>
<trkpt lat="40.0737883" lon="-105.2300881">
  <ele>1642.74</ele>
  <time>2026-08-27T18:26:57Z</time>
  <course>26.03</course>
  <speed>0.5122499389946279</speed>
  <fix>3d</fix>
</trkpt>
<trkpt lat="40.0737888" lon="-105.2300889">
  <ele>1642.95</ele>
  <time>2026-08-27T18:26:57Z</time>
  <course>129.03</course>
  <speed>0.53</speed>
  <fix>3d</fix>
</trkpt>
<trkpt lat="40.0737877" lon="-105.2300872">
  <ele>1642.59</ele>
  <time>2026-08-27T18:26:57Z</time>
  <course>26.06</course>
  <speed>0.5044799302251776</speed>
  <fix>3d</fix>
</trkpt>
<trkpt lat="40.0737881" lon="-105.230088">
  <ele>1642.78</ele>
  <time>2026-08-27T18:26:57Z</time>
  <course>129.55</course>
  <speed>0.53</speed>
  <fix>3d</fix>
</trkpt>
<trkpt lat="40.0737871" lon="-105.2300862">
  <ele>1642.44</ele>
  <time>2026-08-27T18:26:57Z</time>
  <course>26.06</course>
  <speed>0.49678969393496886</speed>
  <fix>3d</fix>
</trkpt>
<trkpt lat="40.0737876" lon="-105.230087">
  <ele>1642.62</ele>
  <time>2026-08-27T18:26:57Z</time>
  <course>130.04</course>
  <speed>0.52</speed>
  <fix>3d</fix>
</trkpt>
<trkpt lat="40.0737865" lon="-105.2300853">
  <ele>1642.28</ele>
  <time>2026-08-27T18:26:57Z</time>
  <course>26.07</course>
  <speed>0.49678969393496886</speed>
  <fix>3d</fix>
</trkpt>
<trkpt lat="40.0737869" lon="-105.2300861">
  <ele>1642.47</ele>
  <time>2026-08-27T18:26:57Z</time>
  <course>130.51</course>
  <speed>0.52</speed>
  <fix>3d</fix>
</trkpt>
<trkpt lat="40.0737859" lon="-105.2300844">
  <ele>1642.13</ele>
  <time>2026-08-27T18:26:57Z</time>
  <course>26.06</course>
  <speed>0.48918299234540036</speed>
  <fix>3d</fix>
</trkpt>
<trkpt lat="40.0737863" lon="-105.2300852">
  <ele>1642.31</ele>
  <time>2026-08-27T18:26:57Z</time>
  <course>130.98</course>
  <speed>0.51</speed>
  <fix>3d</fix>
</trkpt>
<trkpt lat="40.0737853" lon="-105.2300835">
  <ele>1641.99</ele>
  <time>2026-08-27T18:26:57Z</time>
  <course>26.05</course>
  <speed>0.48166378315169184</speed>
  <fix>3d</fix>
</trkpt>
<trkpt lat="40.0737857" lon="-105.2300843">
  <ele>1642.15</ele>
  <time>2026-08-27T18:26:58Z</time>
  <course>131.42</course>
  <speed>0.5</speed>
  <fix>3d</fix>
</trkpt>
<trkpt lat="40.0737847" lon="-105.2300826">
  <ele>1641.84</ele>
  <time>2026-08-27T18:26:58Z</time>
  <course>26.06</course>
  <speed>0.48166378315169184</speed>
  <fix>3d</fix>
</trkpt>
<trkpt lat="40.073785" lon="-105.2300834">
  <ele>1642.0</ele>
  <time>2026-08-27T18:26:58Z</time>
  <course>131.86</course>
  <speed>0.5</speed>
  <fix>3d</fix>
</trkpt>
<trkpt lat="40.0737841" lon="-105.2300818">
  <ele>1641.64</ele>
  <time>2026-08-27T18:26:58Z</time>
  <course>26.03</course>
  <speed>0.4172529209005013</speed>
  <fix>3d</fix>
</trkpt>
<trkpt lat="40.0737845" lon="-105.2300825">
  <ele>1641.85</ele>
  <time>2026-08-27T18:26:58Z</time>
  <course>132.29</course>
  <speed>0.5</speed>
  <fix>3d</fix>
</trkpt>
<trkpt lat="40.0737835" lon="-105.2300812">
  <ele>1641.13</ele>
  <time>2026-08-27T18:26:58Z</time>
  <course>26.89</course>
  <speed>0.32649655434629016</speed>
  <fix>3d</fix>
</trkpt>
<trkpt lat="40.0737839" lon="-105.2300817">
  <ele>1641.63</ele>
  <time>2026-08-27T18:26:58Z</time>
  <course>134.2</course>
  <speed>0.44</speed>
  <fix>3d</fix>
</trkpt>
<trkpt lat="40.0737831" lon="-105.2300807">
  <ele>1640.37</ele>
  <time>2026-08-27T18:26:58Z</time>
  <course>28.2</course>
  <speed>0.28600699292150183</speed>
  <fix>3d</fix>
</trkpt>
<trkpt lat="40.0737834" lon="-105.230081">
  <ele>1641.18</ele>
  <time>2026-08-27T18:26:58Z</time>
  <course>138.35</course>
  <speed>0.36</speed>
  <fix>3d</fix>
</trkpt>
<trkpt lat="40.0737826" lon="-105.2300803">
  <ele>1639.45</ele>
  <time>2026-08-27T18:26:58Z</time>
  <course>27.84</course>
  <speed>0.25238858928247926</speed>
  <fix>3d</fix>
</trkpt>
<trkpt lat="40.0737829" lon="-105.2300805">
  <ele>1640.46</ele>
  <time>2026-08-27T18:26:58Z</time>
  <course>142.09</course>
  <speed>0.3</speed>
  <fix>3d</fix>
</trkpt>
<trkpt lat="40.0737823" lon="-105.23008">
  <ele>1638.41</ele>
  <time>2026-08-27T18:26:58Z</time>
  <course>26.16</course>
  <speed>0.18027756377319945</speed>
  <fix>3d</fix>
</trkpt>
<trkpt lat="40.0737825" lon="-105.2300802">
  <ele>1639.56</ele>
  <time>2026-08-27T18:26:58Z</time>
  <course>145.55</course>
  <speed>0.26</speed>
  <fix>3d</fix>
</trkpt>
<trkpt lat="40.073782" lon="-105.2300799">
  <ele>1637.29</ele>
  <time>2026-08-27T18:26:58Z</time>
  <course>27.12</course>
  <speed>0.15297058540778355</speed>
  <fix>3d</fix>
</trkpt>
<trkpt lat="40.0737821" lon="-105.2300798">
  <ele>1638.54</ele>
  <time>2026-08-27T18:26:58Z</time>
  <course>153.29</course>
  <speed>0.21</speed>
  <fix>3d</fix>
</trkpt>
<trkpt lat="40.0737817" lon="-105.2300798">
  <ele>1636.13</ele>
  <time>2026-08-27T18:26:58Z</time>
  <course>28.17</course>
  <speed>0.140356688476182</speed>
  <fix>3d</fix>
</trkpt>
<trkpt lat="40.0737818" lon="-105.2300797">
  <ele>1637.44</ele>
  <time>2026-08-27T18:26:58Z</time>
  <course>164.03</course>
  <speed>0.17</speed>
  <fix>3d</fix>
</trkpt>
<trkpt lat="40.0737814" lon="-105.2300797">
  <ele>1634.92</ele>
  <time>2026-08-27T18:26:58Z</time>
  <course>29.07</course>
  <speed>0.1414213562373095</speed>
  <fix>3d</fix>
</trkpt>
<trkpt lat="40.0737815" lon="-105.2300796">
  <ele>1636.29</ele>
  <time>2026-08-27T18:26:58Z</time>
  <course>169.78</course>
  <speed>0.15</speed>
  <fix>3d</fix>
</trkpt>
<trkpt lat="40.0737811" lon="-105.2300796">
  <ele>1633.7</ele>
  <time>2026-08-27T18:26:58Z</time>
  <course>29.25</course>
  <speed>0.1414213562373095</speed>
  <fix>3d</fix>
</trkpt>
<trkpt lat="40.0737813" lon="-105.2300796">
  <ele>1635.1</ele>
  <time>2026-08-27T18:26:58Z</time>
  <course>170.11</course>
  <speed>0.15</speed>
  <fix>3d</fix>
</trkpt>
<trkpt lat="40.0737808" lon="-105.2300795">
  <ele>1632.47</ele>
  <time>2026-08-27T18:26:58Z</time>
  <course>29.13</course>
  <speed>0.14317821063276354</speed>
  <fix>3d</fix>
</trkpt>
<trkpt lat="40.073781" lon="-105.2300795">
  <ele>1633.89</ele>
  <time>2026-08-27T18:26:58Z</time>
  <course>167.61</course>
  <speed>0.15</speed>
  <fix>3d</fix>
</trkpt>
<trkpt lat="40.0737806" lon="-105.2300794">
  <ele>1631.23</ele>
  <time>2026-08-27T18:26:58Z</time>
  <course>28.96</course>
  <speed>0.14317821063276354</speed>
  <fix>3d</fix>
</trkpt>
<trkpt lat="40.0737807" lon="-105.2300794">
  <ele>1632.66</ele>
  <time>2026-08-27T18:26:58Z</time>
  <course>165.16</course>
  <speed>0.15</speed>
  <fix>3d</fix>
</trkpt>
<trkpt lat="40.0737803" lon="-105.2300793">
  <ele>1629.98</ele>
  <time>2026-08-27T18:26:58Z</time>
  <course>28.84</course>
  <speed>0.13601470508735444</speed>
  <fix>3d</fix>
</trkpt>
<trkpt lat="40.0737805" lon="-105.2300793">
  <ele>1631.43</ele>
  <time>2026-08-27T18:26:58Z</time>
  <course>162.97</course>
  <speed>0.15</speed>
  <fix>3d</fix>
</trkpt>
<trkpt lat="40.07378" lon="-105.2300792">
  <ele>1628.74</ele>
  <time>2026-08-27T18:26:58Z</time>
  <course>28.73</course>
  <speed>0.1392838827718412</speed>
  <fix>3d</fix>
</trkpt>
<trkpt lat="40.0737802" lon="-105.2300792">
  <ele>1630.19</ele>
  <time>2026-08-27T18:26:58Z</time>
  <course>160.91</course>
  <speed>0.15</speed>
  <fix>3d</fix>
</trkpt>
<trkpt lat="40.0737798" lon="-105.2300791">
  <ele>1627.49</ele>
  <time>2026-08-27T18:26:58Z</time>
  <course>28.64</course>
  <speed>0.1392838827718412</speed>
  <fix>3d</fix>
</trkpt>
<trkpt lat="40.0737799" lon="-105.2300791">
  <ele>1628.96</ele>
  <time>2026-08-27T18:26:58Z</time>
  <course>158.96</course>
  <speed>0.15</speed>
  <fix>3d</fix>
</trkpt>
<trkpt lat="40.0737795" lon="-105.2300789">
  <ele>1626.25</ele>
  <time>2026-08-27T18:26:58Z</time>
  <course>28.53</course>
  <speed>0.14317821063276354</speed>
  <fix>3d</fix>
</trkpt>
<trkpt lat="40.0737797" lon="-105.2300789">
  <ele>1627.72</ele>
  <time>2026-08-27T18:26:58Z</time>
  <course>157.12</course>
  <speed>0.15</speed>
  <fix>3d</fix>
</trkpt>
<trkpt lat="40.0737793" lon="-105.2300787">
  <ele>1625.01</ele>
  <time>2026-08-27T18:26:58Z</time>
  <course>28.44</course>
  <speed>0.14317821063276354</speed>
  <fix>3d</fix>
</trkpt>
<trkpt lat="40.0737794" lon="-105.2300788">
  <ele>1626.48</ele>
  <time>2026-08-27T18:26:58Z</time>
  <course>155.44</course>
  <speed>0.16</speed>
  <fix>3d</fix>
</trkpt>
<trkpt lat="40.073779" lon="-105.2300786">
  <ele>1623.75</ele>
  <time>2026-08-27T18:26:58Z</time>
  <course>28.35</course>
  <speed>0.14317821063276354</speed>
  <fix>3d</fix>
</trkpt>
<trkpt lat="40.0737792" lon="-105.2300787">
  <ele>1625.25</ele>
  <time>2026-08-27T18:26:58Z</time>
  <course>153.95</course>
  <speed>0.16</speed>
  <fix>3d</fix>
</trkpt>
<trkpt lat="40.0737787" lon="-105.2300784">
  <ele>1622.51</ele>
  <time>2026-08-27T18:26:58Z</time>
  <course>28.3</course>
  <speed>0.147648230602334</speed>
  <fix>3d</fix>
</trkpt>
<trkpt lat="40.0737789" lon="-105.2300784">
  <ele>1624.01</ele>
  <time>2026-08-27T18:26:58Z</time>
  <course>152.58</course>
  <speed>0.16</speed>
  <fix>3d</fix>
</trkpt>
<trkpt lat="40.0737785" lon="-105.2300782">
  <ele>1621.26</ele>
  <time>2026-08-27T18:26:58Z</time>
  <course>28.23</course>
  <speed>0.147648230602334</speed>
  <fix>3d</fix>
</trkpt>
<trkpt lat="40.0737786" lon="-105.2300783">
  <ele>1622.78</ele>
  <time>2026-08-27T18:26:58Z</time>
  <course>151.32</course>
  <speed>0.16</speed>
  <fix>3d</fix>
</trkpt>
<trkpt lat="40.0737782" lon="-105.230078">
  <ele>1620.02</ele>
  <time>2026-08-27T18:26:58Z</time>
  <course>28.18</course>
  <speed>0.15264337522473748</speed>
  <fix>3d</fix>
</trkpt>
<trkpt lat="40.0737783" lon="-105.230078">
  <ele>1621.54</ele>
  <time>2026-08-27T18:26:58Z</time>
  <course>150.18</course>
  <speed>0.16</speed>
  <fix>3d</fix>
</trkpt>
<trkpt lat="40.0737779" lon="-105.2300778">
  <ele>1618.77</ele>
  <time>2026-08-27T18:26:58Z</time>
  <course>28.12</course>
  <speed>0.15264337522473748</speed>
  <fix>3d</fix>
</trkpt>
<trkpt lat="40.0737781" lon="-105.2300779">
  <ele>1620.3</ele>
  <time>2026-08-27T18:26:58Z</time>
  <course>149.14</course>
  <speed>0.17</speed>
  <fix>3d</fix>
</trkpt>
<trkpt lat="40.0737777" lon="-105.2300776">
  <ele>1617.53</ele>
  <time>2026-08-27T18:26:58Z</time>
  <course>28.08</course>
  <speed>0.15264337522473748</speed>
  <fix>3d</fix>
</trkpt>
<trkpt lat="40.0737778" lon="-105.2300777">
  <ele>1619.07</ele>
  <time>2026-08-27T18:26:58Z</time>
  <course>148.21</course>
  <speed>0.17</speed>
  <fix>3d</fix>
</trkpt>
<trkpt lat="40.0737774" lon="-105.2300773">
  <ele>1616.29</ele>
  <time>2026-08-27T18:26:58Z</time>
  <course>28.0</course>
  <speed>0.15811388300841897</speed>
  <fix>3d</fix>
</trkpt>
<trkpt lat="40.0737776" lon="-105.2300774">
  <ele>1617.84</ele>
  <time>2026-08-27T18:26:58Z</time>
  <course>147.35</course>
  <speed>0.17</speed>
  <fix>3d</fix>
</trkpt>
<trkpt lat="40.0737771" lon="-105.2300771">
  <ele>1615.05</ele>
  <time>2026-08-27T18:26:58Z</time>
  <course>27.96</course>
  <speed>0.15811388300841897</speed>
  <fix>3d</fix>
</trkpt>
<trkpt lat="40.0737773" lon="-105.2300772">
  <ele>1616.61</ele>
  <time>2026-08-27T18:26:58Z</time>
  <course>146.57</course>
  <speed>0.17</speed>
  <fix>3d</fix>
</trkpt>
<trkpt lat="40.0737769" lon="-105.2300769">
  <ele>1613.82</ele>
  <time>2026-08-27T18:26:58Z</time>
  <course>27.91</course>
  <speed>0.15811388300841897</speed>
  <fix>3d</fix>
</trkpt>
<trkpt lat="40.073777" lon="-105.230077">
  <ele>1615.38</ele>
  <time>2026-08-27T18:26:58Z</time>
  <course>145.9</course>
  <speed>0.17</speed>
  <fix>3d</fix>
</trkpt>
<trkpt lat="40.0737766" lon="-105.2300766">
  <ele>1612.58</ele>
  <time>2026-08-27T18:26:58Z</time>
  <course>27.85</course>
  <speed>0.15811388300841897</speed>
  <fix>3d</fix>
</trkpt>
<trkpt lat="40.0737768" lon="-105.2300768">
  <ele>1614.15</ele>
  <time>2026-08-27T18:26:58Z</time>
  <course>145.28</course>
  <speed>0.18</speed>
  <fix>3d</fix>
</trkpt>
<trkpt lat="40.0737763" lon="-105.2300764">
  <ele>1611.34</ele>
  <time>2026-08-27T18:26:58Z</time>
  <course>27.82</course>
  <speed>0.16401219466856726</speed>
  <fix>3d</fix>
</trkpt>
<trkpt lat="40.0737765" lon="-105.2300765">
  <ele>1612.92</ele>
  <time>2026-08-27T18:26:58Z</time>
  <course>144.7</course>
  <speed>0.18</speed>
  <fix>3d</fix>
</trkpt>
<trkpt lat="40.0737761" lon="-105.2300761">
  <ele>1610.1</ele>
  <time>2026-08-27T18:26:58Z</time>
  <course>27.77</course>
  <speed>0.16401219466856726</speed>
  <fix>3d</fix>
</trkpt>
<trkpt lat="40.0737762" lon="-105.2300763">
  <ele>1611.69</ele>
  <time>2026-08-27T18:26:58Z</time>
  <course>144.19</course>
  <speed>0.18</speed>
  <fix>3d</fix>
</trkpt>
<trkpt lat="40.0737758" lon="-105.2300759">
  <ele>1608.87</ele>
  <time>2026-08-27T18:26:58Z</time>
  <course>27.74</course>
  <speed>0.17204650534085253</speed>
  <fix>3d</fix>
</trkpt>
<trkpt lat="40.0737759" lon="-105.230076">
  <ele>1610.46</ele>
  <time>2026-08-27T18:26:58Z</time>
  <course>143.73</course>
  <speed>0.18</speed>
  <fix>3d</fix>
</trkpt>
<trkpt lat="40.0737755" lon="-105.2300756">
  <ele>1607.64</ele>
  <time>2026-08-27T18:26:58Z</time>
  <course>27.69</course>
  <speed>0.17204650534085253</speed>
  <fix>3d</fix>
</trkpt>
<trkpt lat="40.0737757" lon="-105.2300757">
  <ele>1609.23</ele>
  <time>2026-08-27T18:26:58Z</time>
  <course>143.29</course>
  <speed>0.18</speed>
  <fix>3d</fix>
</trkpt>
<trkpt lat="40.0737753" lon="-105.2300753">
  <ele>1606.41</ele>
  <time>2026-08-27T18:26:58Z</time>
  <course>27.64</course>
  <speed>0.17204650534085253</speed>
  <fix>3d</fix>
</trkpt>
<trkpt lat="40.0737754" lon="-105.2300755">
  <ele>1608.0</ele>
  <time>2026-08-27T18:26:58Z</time>
  <course>142.91</course>
  <speed>0.18</speed>
  <fix>3d</fix>
</trkpt>
<trkpt lat="40.073775" lon="-105.2300751">
  <ele>1605.18</ele>
  <time>2026-08-27T18:26:58Z</time>
  <course>27.61</course>
  <speed>0.17804493814764857</speed>
  <fix>3d</fix>
</trkpt>
<trkpt lat="40.0737752" lon="-105.2300752">
  <ele>1606.77</ele>
  <time>2026-08-27T18:26:58Z</time>
  <course>142.58</course>
  <speed>0.18</speed>
  <fix>3d</fix>
</trkpt>
<trkpt lat="40.0737747" lon="-105.2300748">
  <ele>1603.95</ele>
  <time>2026-08-27T18:26:58Z</time>
  <course>27.58</course>
  <speed>0.17804493814764857</speed>
  <fix>3d</fix>
</trkpt>
<trkpt lat="40.0737749" lon="-105.2300749">
  <ele>1605.54</ele>
  <time>2026-08-27T18:26:58Z</time>
  <course>142.28</course>
  <speed>0.18</speed>
  <fix>3d</fix>
</trkpt>
<trkpt lat="40.0737745" lon="-105.2300745">
  <ele>1602.72</ele>
  <time>2026-08-27T18:26:58Z</time>
  <course>27.55</course>
  <speed>0.17804493814764857</speed>
  <fix>3d</fix>
</trkpt>
<trkpt lat="40.0737746" lon="-105.2300746">
  <ele>1604.31</ele>
  <time>2026-08-27T18:26:58Z</time>
  <course>142.0</course>
  <speed>0.19</speed>
  <fix>3d</fix>
</trkpt>
<trkpt lat="40.0737742" lon="-105.2300742">
  <ele>1601.5</ele>
  <time>2026-08-27T18:26:58Z</time>
  <course>27.51</course>
  <speed>0.17804493814764857</speed>
  <fix>3d</fix>
</trkpt>
<trkpt lat="40.0737744" lon="-105.2300744">
  <ele>1603.09</ele>
  <time>2026-08-27T18:26:58Z</time>
  <course>141.75</course>
  <speed>0.19</speed>
  <fix>3d</fix>
</trkpt>
<trkpt lat="40.0737739" lon="-105.2300739">
  <ele>1600.27</ele>
  <time>2026-08-27T18:26:58Z</time>
  <course>27.47</course>
  <speed>0.17804493814764857</speed>
  <fix>3d</fix>
</trkpt>
<trkpt lat="40.0737741" lon="-105.2300741">
  <ele>1601.86</ele>
  <time>2026-08-27T18:26:58Z</time>
  <course>141.55</course>
  <speed>0.19</speed>
  <fix>3d</fix>
</trkpt>
<trkpt lat="40.0737736" lon="-105.2300736">
  <ele>1599.04</ele>
  <time>2026-08-27T18:26:58Z</time>
  <course>27.44</course>
  <speed>0.17804493814764857</speed>
  <fix>3d</fix>
</trkpt>
<trkpt lat="40.0737738" lon="-105.2300738">
  <ele>1600.63</ele>
  <time>2026-08-27T18:26:58Z</time>
  <course>141.38</course>
  <speed>0.19</speed>
  <fix>3d</fix>
</trkpt>
<trkpt lat="40.0737734" lon="-105.2300733">
  <ele>1597.8</ele>
  <time>2026-08-27T18:26:58Z</time>
  <course>27.41</course>
  <speed>0.17804493814764857</speed>
  <fix>3d</fix>
</trkpt>
<trkpt lat="40.0737735" lon="-105.2300735">
  <ele>1599.4</ele>
  <time>2026-08-27T18:26:58Z</time>
  <course>141.22</course>
  <speed>0.19</speed>
  <fix>3d</fix>
</trkpt>
<trkpt lat="40.0737731" lon="-105.2300731">
  <ele>1596.58</ele>
  <time>2026-08-27T18:26:58Z</time>
  <course>27.38</course>
  <speed>0.17804493814764857</speed>
  <fix>3d</fix>
</trkpt>
<trkpt lat="40.0737733" lon="-105.2300732">
  <ele>1598.17</ele>
  <time>2026-08-27T18:26:58Z</time>
  <course>141.08</course>
  <speed>0.19</speed>
  <fix>3d</fix>
</trkpt>
<trkpt lat="40.0737728" lon="-105.2300728">
  <ele>1595.35</ele>
  <time>2026-08-27T18:26:58Z</time>
  <course>27.35</course>
  <speed>0.18439088914585774</speed>
  <fix>3d</fix>
</trkpt>
<trkpt lat="40.073773" lon="-105.230073">
  <ele>1596.94</ele>
  <time>2026-08-27T18:26:58Z</time>
  <course>140.95</course>
  <speed>0.19</speed>
  <fix>3d</fix>
</trkpt>
<trkpt lat="40.0737725" lon="-105.2300725">
  <ele>1594.12</ele>
  <time>2026-08-27T18:26:58Z</time>
  <course>27.32</course>
  <speed>0.18439088914585774</speed>
  <fix>3d</fix>
</trkpt>
<trkpt lat="40.0737727" lon="-105.2300727">
  <ele>1595.71</ele>
  <time>2026-08-27T18:26:58Z</time>
  <course>140.83</course>
  <speed>0.19</speed>
  <fix>3d</fix>
</trkpt>
<trkpt lat="40.0737723" lon="-105.2300722">
  <ele>1592.89</ele>
  <time>2026-08-27T18:26:58Z</time>
  <course>27.29</course>
  <speed>0.18439088914585774</speed>
  <fix>3d</fix>
</trkpt>
<trkpt lat="40.0737724" lon="-105.2300724">
  <ele>1594.48</ele>
  <time>2026-08-27T18:26:58Z</time>
  <course>140.72</course>
  <speed>0.19</speed>
  <fix>3d</fix>
</trkpt>
<trkpt lat="40.073772" lon="-105.2300719">
  <ele>1591.66</ele>
  <time>2026-08-27T18:26:58Z</time>
  <course>27.26</course>
  <speed>0.18439088914585774</speed>
  <fix>3d</fix>
</trkpt>
<trkpt lat="40.0737722" lon="-105.2300721">
  <ele>1593.26</ele>
  <time>2026-08-27T18:26:58Z</time>
  <course>140.63</course>
  <speed>0.19</speed>
  <fix>3d</fix>
</trkpt>
<trkpt lat="40.0737717" lon="-105.2300716">
  <ele>1590.44</ele>
  <time>2026-08-27T18:26:58Z</time>
  <course>27.23</course>
  <speed>0.18439088914585774</speed>
  <fix>3d</fix>
</trkpt>
<trkpt lat="40.0737719" lon="-105.2300718">
  <ele>1592.03</ele>
  <time>2026-08-27T18:26:58Z</time>
  <course>140.54</course>
  <speed>0.19</speed>
  <fix>3d</fix>
</trkpt>
<trkpt lat="40.0737714" lon="-105.2300713">
  <ele>1589.21</ele>
  <time>2026-08-27T18:26:58Z</time>
  <course>27.2</course>
  <speed>0.18439088914585774</speed>
  <fix>3d</fix>
</trkpt>
<trkpt lat="40.0737716" lon="-105.2300715">
  <ele>1590.8</ele>
  <time>2026-08-27T18:26:58Z</time>
  <course>140.45</course>
  <speed>0.19</speed>
  <fix>3d</fix>
</trkpt>
<trkpt lat="40.0737712" lon="-105.230071">
  <ele>1588.0</ele>
  <time>2026-08-27T18:26:58Z</time>
  <course>27.18</course>
  <speed>0.18439088914585774</speed>
  <fix>3d</fix>
</trkpt>
<trkpt lat="40.0737714" lon="-105.2300712">
  <ele>1589.57</ele>
  <time>2026-08-27T18:26:58Z</time>
  <course>140.39</course>
  <speed>0.19</speed>
  <fix>3d</fix>
</trkpt>
<trkpt lat="40.0737709" lon="-105.2300707">
  <ele>1586.77</ele>
  <time>2026-08-27T18:26:58Z</time>
  <course>27.15</course>
  <speed>0.18439088914585774</speed>
  <fix>3d</fix>
</trkpt>
<trkpt lat="40.0737711" lon="-105.2300709">
  <ele>1588.35</ele>
  <time>2026-08-27T18:26:58Z</time>
  <course>140.34</course>
  <speed>0.19</speed>
  <fix>3d</fix>
</trkpt>
<trkpt lat="40.0737706" lon="-105.2300704">
  <ele>1585.53</ele>
  <time>2026-08-27T18:26:58Z</time>
  <course>27.13</course>
  <speed>0.18439088914585774</speed>
  <fix>3d</fix>
</trkpt>
<trkpt lat="40.0737708" lon="-105.2300706">
  <ele>1587.12</ele>
  <time>2026-08-27T18:26:58Z</time>
  <course>140.3</course>
  <speed>0.19</speed>
  <fix>3d</fix>
</trkpt>
<trkpt lat="40.0737703" lon="-105.2300701">
  <ele>1584.3</ele>
  <time>2026-08-27T18:26:58Z</time>
  <course>27.11</course>
  <speed>0.19209372712298545</speed>
  <fix>3d</fix>
</trkpt>
<trkpt lat="40.0737705" lon="-105.2300703">
  <ele>1585.89</ele>
  <time>2026-08-27T18:26:58Z</time>
  <course>140.27</course>
  <speed>0.19</speed>
  <fix>3d</fix>
</trkpt>
<trkpt lat="40.0737701" lon="-105.2300698">
  <ele>1583.16</ele>
  <time>2026-08-27T18:26:58Z</time>
  <course>27.1</course>
  <speed>0.06403124237432849</speed>
  <fix>3d</fix>
</trkpt>
<trkpt lat="40.0737703" lon="-105.23007">
  <ele>1584.66</ele>
  <time>2026-08-27T18:26:58Z</time>
  <course>140.24</course>
  <speed>0.19</speed>
  <fix>3d</fix>
</trkpt>
<trkpt lat="40.0737701" lon="-105.2300699">
  <ele>1583.24</ele>
  <time>2026-08-27T18:26:58Z</time>
  <course>27.15</course>
  <speed>0.0670820393249937</speed>
  <fix>3d</fix>
</trkpt>
<trkpt lat="40.0737701" lon="-105.2300698">
  <ele>1583.63</ele>
  <time>2026-08-27T18:26:58Z</time>
  <course>142.27</course>
  <speed>0.09</speed>
  <fix>3d</fix>
</trkpt>
<trkpt lat="40.0737701" lon="-105.2300699">
  <ele>1583.42</ele>
  <time>2026-08-27T18:26:58Z</time>
  <course>27.21</course>
  <speed>0.01</speed>
  <fix>3d</fix>
</trkpt>
<trkpt lat="40.07377" lon="-105.2300698">
  <ele>1583.36</ele>
  <time>2026-08-27T18:26:58Z</time>
  <course>317.55</course>
  <speed>0.02</speed>
  <fix>3d</fix>
</trkpt>
<trkpt lat="40.0737701" lon="-105.2300699">
  <ele>1583.37</ele>
  <time>2026-08-27T18:26:58Z</time>
  <course>27.24</course>
  <speed>0.0</speed>
  <fix>3d</fix>
</trkpt>
<trkpt lat="40.0737701" lon="-105.2300698">
  <ele>1583.56</ele>
  <time>2026-08-27T18:26:58Z</time>
  <course>330.92</course>
  <speed>0.01</speed>
  <fix>3d</fix>
</trkpt>
<trkpt lat="40.0737701" lon="-105.2300699">
  <ele>1583.36</ele>
  <time>2026-08-27T18:26:58Z</time>
  <course>27.27</course>
  <speed>0.0</speed>
  <fix>3d</fix>
</trkpt>
<trkpt lat="40.0737701" lon="-105.2300698">
  <ele>1583.58</ele>
  <time>2026-08-27T18:26:58Z</time>
  <course>129.88</course>
  <speed>0.0</speed>
  <fix>3d</fix>
</trkpt>
<trkpt lat="40.0737701" lon="-105.2300699">
  <ele>1583.38</ele>
  <time>2026-08-27T18:26:58Z</time>
  <course>27.3</course>
  <speed>0.0</speed>
  <fix>3d</fix>
</trkpt>
<trkpt lat="40.0737701" lon="-105.2300698">
  <ele>1583.55</ele>
  <time>2026-08-27T18:26:58Z</time>
  <course>129.62</course>
  <speed>0.0</speed>
  <fix>3d</fix>
</trkpt>
<trkpt lat="40.0737701" lon="-105.2300698">
  <ele>1583.39</ele>
  <time>2026-08-27T18:26:58Z</time>
  <course>27.3</course>
  <speed>0.0</speed>
  <fix>3d</fix>
</trkpt>
<trkpt lat="40.0737701" lon="-105.2300698">
  <ele>1583.55</ele>
  <time>2026-08-27T18:26:58Z</time>
  <course>106.91</course>
  <speed>0.0</speed>
  <fix>3d</fix>
</trkpt>
<trkpt lat="40.0737701" lon="-105.2300698">
  <ele>1583.41</ele>
  <time>2026-08-27T18:26:58Z</time>
  <course>27.29</course>
  <speed>0.0</speed>
  <fix>3d</fix>
</trkpt>
<trkpt lat="40.0737701" lon="-105.2300698">
  <ele>1583.56</ele>
  <time>2026-08-27T18:26:58Z</time>
  <course>113.29</course>
  <speed>0.0</speed>
  <fix>3d</fix>
</trkpt>
<trkpt lat="40.0737701" lon="-105.2300698">
  <ele>1583.43</ele>
  <time>2026-08-27T18:26:58Z</time>
  <course>27.29</course>
  <speed>0.0</speed>
  <fix>3d</fix>
</trkpt>
<trkpt lat="40.0737701" lon="-105.2300698">
  <ele>1583.56</ele>
  <time>2026-08-27T18:26:58Z</time>
  <course>108.97</course>
  <speed>0.0</speed>
  <fix>3d</fix>
</trkpt>
<trkpt lat="40.0737701" lon="-105.2300698">
  <ele>1583.44</ele>
  <time>2026-08-27T18:26:58Z</time>
  <course>27.28</course>
  <speed>0.0</speed>
  <fix>3d</fix>
</trkpt>
<trkpt lat="40.0737701" lon="-105.2300698">
  <ele>1583.56</ele>
  <time>2026-08-27T18:26:58Z</time>
  <course>347.61</course>
  <speed>0.0</speed>
  <fix>3d</fix>
</trkpt>
<trkpt lat="40.0737701" lon="-105.2300698">
  <ele>1583.45</ele>
  <time>2026-08-27T18:26:58Z</time>
  <course>27.27</course>
  <speed>0.0</speed>
  <fix>3d</fix>
</trkpt>
<trkpt lat="40.0737701" lon="-105.2300698">
  <ele>1583.56</ele>
  <time>2026-08-27T18:26:58Z</time>
  <course>52.51</course>
  <speed>0.0</speed>
  <fix>3d</fix>
</trkpt>
<trkpt lat="40.0737701" lon="-105.2300698">
  <ele>1583.45</ele>
  <time>2026-08-27T18:26:58Z</time>
  <course>27.27</course>
  <speed>0.0</speed>
  <fix>3d</fix>
</trkpt>
<trkpt lat="40.0737701" lon="-105.2300698">
  <ele>1583.56</ele>
  <time>2026-08-27T18:26:58Z</time>
  <course>343.95</course>
  <speed>0.0</speed>
  <fix>3d</fix>
</trkpt>
<trkpt lat="40.0737701" lon="-105.2300698">
  <ele>1583.46</ele>
  <time>2026-08-27T18:26:58Z</time>
  <course>27.26</course>
  <speed>0.0</speed>
  <fix>3d</fix>
</trkpt>
<trkpt lat="40.0737701" lon="-105.2300698">
  <ele>1583.56</ele>
  <time>2026-08-27T18:26:58Z</time>
  <course>273.89</course>
  <speed>0.0</speed>
  <fix>3d</fix>
</trkpt>
<trkpt lat="40.0737701" lon="-105.2300698">
  <ele>1583.46</ele>
  <time>2026-08-27T18:26:58Z</time>
  <course>27.26</course>
  <speed>0.0</speed>
  <fix>3d</fix>
</trkpt>
<trkpt lat="40.0737701" lon="-105.2300698">
  <ele>1583.56</ele>
  <time>2026-08-27T18:26:58Z</time>
  <course>260.39</course>
  <speed>0.0</speed>
  <fix>3d</fix>
</trkpt>
<trkpt lat="40.0737701" lon="-105.2300698">
  <ele>1583.46</ele>
  <time>2026-08-27T18:26:58Z</time>
  <course>27.25</course>
  <speed>0.0</speed>
  <fix>3d</fix>
</trkpt>
<trkpt lat="40.0737701" lon="-105.2300698">
  <ele>1583.56</ele>
  <time>2026-08-27T18:26:58Z</time>
  <course>256.05</course>
  <speed>0.0</speed>
  <fix>3d</fix>
</trkpt>
<trkpt lat="40.0737701" lon="-105.2300698">
  <ele>1583.47</ele>
  <time>2026-08-27T18:26:58Z</time>
  <course>27.25</course>
  <speed>0.0</speed>
  <fix>3d</fix>
</trkpt>
<trkpt lat="40.0737701" lon="-105.2300698">
  <ele>1583.56</ele>
  <time>2026-08-27T18:26:58Z</time>
  <course>258.6</course>
  <speed>0.0</speed>
  <fix>3d</fix>
</trkpt>
<trkpt lat="40.0737701" lon="-105.2300698">
  <ele>1583.47</ele>
  <time>2026-08-27T18:26:58Z</time>
  <course>27.24</course>
  <speed>0.0</speed>
  <fix>3d</fix>
</trkpt>
<trkpt lat="40.0737701" lon="-105.2300698">
  <ele>1583.56</ele>
  <time>2026-08-27T18:26:58Z</time>
  <course>257.3</course>
  <speed>0.0</speed>
  <fix>3d</fix>
</trkpt>
<trkpt lat="40.0737701" lon="-105.2300698">
  <ele>1583.48</ele>
  <time>2026-08-27T18:26:58Z</time>
  <course>27.24</course>
  <speed>0.0</speed>
  <fix>3d</fix>
</trkpt>
<trkpt lat="40.0737701" lon="-105.2300698">
  <ele>1583.56</ele>
  <time>2026-08-27T18:26:58Z</time>
  <course>217.17</course>
  <speed>0.0</speed>
  <fix>3d</fix>
</trkpt>
<trkpt lat="40.0737701" lon="-105.2300698">
  <ele>1583.48</ele>
  <time>2026-08-27T18:26:58Z</time>
  <course>27.23</course>
  <speed>0.0</speed>
  <fix>3d</fix>
</trkpt>
<trkpt lat="40.0737701" lon="-105.2300698">
  <ele>1583.56</ele>
  <time>2026-08-27T18:26:58Z</time>
  <course>87.01</course>
  <speed>0.0</speed>
  <fix>3d</fix>
</trkpt>
<trkpt lat="40.0737701" lon="-105.2300698">
  <ele>1583.48</ele>
  <time>2026-08-27T18:26:58Z</time>
  <course>27.23</course>
  <speed>0.0</speed>
  <fix>3d</fix>
</trkpt>
<trkpt lat="40.0737701" lon="-105.2300698">
  <ele>1583.56</ele>
  <time>2026-08-27T18:26:58Z</time>
  <course>56.09</course>
  <speed>0.0</speed>
  <fix>3d</fix>
</trkpt>
<trkpt lat="40.0737701" lon="-105.2300698">
  <ele>1583.49</ele>
  <time>2026-08-27T18:26:58Z</time>
  <course>27.23</course>
  <speed>0.0</speed>
  <fix>3d</fix>
</trkpt>
<trkpt lat="40.0737701" lon="-105.2300698">
  <ele>1583.56</ele>
  <time>2026-08-27T18:26:58Z</time>
  <course>59.59</course>
  <speed>0.0</speed>
  <fix>3d</fix>
</trkpt>
<trkpt lat="40.0737701" lon="-105.2300698">
  <ele>1583.49</ele>
  <time>2026-08-27T18:26:58Z</time>
  <course>27.22</course>
  <speed>0.0</speed>
  <fix>3d</fix>
</trkpt>
<trkpt lat="40.0737701" lon="-105.2300698">
  <ele>1583.56</ele>
  <time>2026-08-27T18:26:58Z</time>
  <course>99.0</course>
  <speed>0.0</speed>
  <fix>3d</fix>
</trkpt>
<trkpt lat="40.0737701" lon="-105.2300698">
  <ele>1583.49</ele>
  <time>2026-08-27T18:26:58Z</time>
  <course>27.22</course>
  <speed>0.0</speed>
  <fix>3d</fix>
</trkpt>
<trkpt lat="40.0737701" lon="-105.2300698">
  <ele>1583.56</ele>
  <time>2026-08-27T18:26:58Z</time>
  <course>131.05</course>
  <speed>0.0</speed>
  <fix>3d</fix>
</trkpt>
<trkpt lat="40.0737701" lon="-105.2300698">
  <ele>1583.5</ele>
  <time>2026-08-27T18:26:58Z</time>
  <course>27.21</course>
  <speed>0.0</speed>
  <fix>3d</fix>
</trkpt>
<trkpt lat="40.0737701" lon="-105.2300698">
  <ele>1583.56</ele>
  <time>2026-08-27T18:26:58Z</time>
  <course>102.55</course>
  <speed>0.0</speed>
  <fix>3d</fix>
</trkpt>
<trkpt lat="40.0737701" lon="-105.2300698">
  <ele>1583.5</ele>
  <time>2026-08-27T18:26:58Z</time>
  <course>27.21</course>
  <speed>0.01</speed>
  <fix>3d</fix>
</trkpt>
<trkpt lat="40.0737701" lon="-105.2300698">
  <ele>1583.56</ele>
  <time>2026-08-27T18:26:58Z</time>
  <course>60.88</course>
  <speed>0.0</speed>
  <fix>3d</fix>
</trkpt>
<trkpt lat="40.0737701" lon="-105.2300698">
  <ele>1583.5</ele>
  <time>2026-08-27T18:26:58Z</time>
  <course>27.21</course>
  <speed>0.01</speed>
  <fix>3d</fix>
</trkpt>
<trkpt lat="40.0737701" lon="-105.2300698">
  <ele>1583.56</ele>
  <time>2026-08-27T18:26:58Z</time>
  <course>73.17</course>
  <speed>0.0</speed>
  <fix>3d</fix>
</trkpt>
<trkpt lat="40.0737701" lon="-105.2300698">
  <ele>1583.51</ele>
  <time>2026-08-27T18:26:58Z</time>
  <course>27.2</course>
  <speed>0.01</speed>
  <fix>3d</fix>
</trkpt>
<trkpt lat="40.0737701" lon="-105.2300698">
  <ele>1583.56</ele>
  <time>2026-08-27T18:26:58Z</time>
  <course>79.42</course>
  <speed>0.0</speed>
  <fix>3d</fix>
</trkpt>
<trkpt lat="40.0737701" lon="-105.2300698">
  <ele>1583.51</ele>
  <time>2026-08-27T18:26:58Z</time>
  <course>27.2</course>
  <speed>0.01</speed>
  <fix>3d</fix>
</trkpt>
<trkpt lat="40.0737701" lon="-105.2300698">
  <ele>1583.56</ele>
  <time>2026-08-27T18:26:58Z</time>
  <course>76.15</course>
  <speed>0.0</speed>
  <fix>3d</fix>
</trkpt>
<trkpt lat="40.0737701" lon="-105.2300698">
  <ele>1583.52</ele>
  <time>2026-08-27T18:26:58Z</time>
  <course>27.2</course>
  <speed>0.01</speed>
  <fix>3d</fix>
</trkpt>
<trkpt lat="40.0737701" lon="-105.2300698">
  <ele>1583.56</ele>
  <time>2026-08-27T18:26:58Z</time>
  <course>151.46</course>
  <speed>0.0</speed>
  <fix>3d</fix>
</trkpt>
<trkpt lat="40.0737701" lon="-105.2300698">
  <ele>1583.52</ele>
  <time>2026-08-27T18:26:58Z</time>
  <course>27.19</course>
  <speed>0.01</speed>
  <fix>3d</fix>
</trkpt>
<trkpt lat="40.0737701" lon="-105.2300698">
  <ele>1583.56</ele>
  <time>2026-08-27T18:26:58Z</time>
  <course>132.53</course>
  <speed>0.0</speed>
  <fix>3d</fix>
</trkpt>
<trkpt lat="40.0737701" lon="-105.2300698">
  <ele>1583.53</ele>
  <time>2026-08-27T18:26:58Z</time>
  <course>27.19</course>
  <speed>0.01</speed>
  <fix>3d</fix>
</trkpt>
<trkpt lat="40.0737701" lon="-105.2300698">
  <ele>1583.56</ele>
  <time>2026-08-27T18:26:58Z</time>
  <course>77.71</course>
  <speed>0.0</speed>
  <fix>3d</fix>
</trkpt>
<trkpt lat="40.0737701" lon="-105.2300698">
  <ele>1583.53</ele>
  <time>2026-08-27T18:26:58Z</time>
  <course>27.18</course>
  <speed>0.01</speed>
  <fix>3d</fix>
</trkpt>
<trkpt lat="40.0737701" lon="-105.2300698">
  <ele>1583.56</ele>
  <time>2026-08-27T18:26:58Z</time>
  <course>77.59</course>
  <speed>0.0</speed>
  <fix>3d</fix>
</trkpt>
<trkpt lat="40.0737701" lon="-105.2300698">
  <ele>1583.54</ele>
  <time>2026-08-27T18:26:58Z</time>
  <course>27.18</course>
  <speed>0.01</speed>
  <fix>3d</fix>
</trkpt>
<trkpt lat="40.0737701" lon="-105.2300698">
  <ele>1583.56</ele>
  <time>2026-08-27T18:26:58Z</time>
  <course>83.08</course>
  <speed>0.0</speed>
  <fix>3d</fix>
</trkpt>
<trkpt lat="40.0737701" lon="-105.2300698">
  <ele>1583.54</ele>
  <time>2026-08-27T18:26:58Z</time>
  <course>27.18</course>
  <speed>0.01</speed>
  <fix>3d</fix>
</trkpt>
<trkpt lat="40.0737701" lon="-105.2300698">
  <ele>1583.56</ele>
  <time>2026-08-27T18:26:58Z</time>
  <course>88.84</course>
  <speed>0.0</speed>
  <fix>3d</fix>
</trkpt>
<trkpt lat="40.0737701" lon="-105.2300698">
  <ele>1583.54</ele>
  <time>2026-08-27T18:26:58Z</time>
  <course>27.17</course>
  <speed>0.01</speed>
  <fix>3d</fix>
</trkpt>
<trkpt lat="40.0737701" lon="-105.2300698">
  <ele>1583.56</ele>
  <time>2026-08-27T18:26:58Z</time>
  <course>125.95</course>
  <speed>0.0</speed>
  <fix>3d</fix>
</trkpt>
<trkpt lat="40.0737701" lon="-105.2300698">
  <ele>1583.55</ele>
  <time>2026-08-27T18:26:58Z</time>
  <course>27.17</course>
  <speed>0.01</speed>
  <fix>3d</fix>
</trkpt>
<trkpt lat="40.0737701" lon="-105.2300698">
  <ele>1583.56</ele>
  <time>2026-08-27T18:26:58Z</time>
  <course>115.43</course>
  <speed>0.0</speed>
  <fix>3d</fix>
</trkpt>
<trkpt lat="40.0737701" lon="-105.2300698">
  <ele>1583.55</ele>
  <time>2026-08-27T18:26:58Z</time>
  <course>27.17</course>
  <speed>0.01</speed>
  <fix>3d</fix>
</trkpt>
<trkpt lat="40.0737701" lon="-105.2300698">
  <ele>1583.56</ele>
  <time>2026-08-27T18:26:58Z</time>
  <course>67.37</course>
  <speed>0.0</speed>
  <fix>3d</fix>
</trkpt>
<trkpt lat="40.0737701" lon="-105.2300698">
  <ele>1583.55</ele>
  <time>2026-08-27T18:26:58Z</time>
  <course>27.17</course>
  <speed>0.01</speed>
  <fix>3d</fix>
</trkpt>
<trkpt lat="40.0737701" lon="-105.2300698">
  <ele>1583.56</ele>
  <time>2026-08-27T18:26:58Z</time>
  <course>76.51</course>
  <speed>0.0</speed>
  <fix>3d</fix>
</trkpt>
<trkpt lat="40.0737701" lon="-105.2300698">
  <ele>1583.55</ele>
  <time>2026-08-27T18:26:58Z</time>
  <course>27.17</course>
  <speed>0.01</speed>
  <fix>3d</fix>
</trkpt>
<trkpt lat="40.0737701" lon="-105.2300698">
  <ele>1583.56</ele>
  <time>2026-08-27T18:26:58Z</time>
  <course>88.45</course>
  <speed>0.0</speed>
  <fix>3d</fix>
</trkpt>
<trkpt lat="40.0737701" lon="-105.2300698">
  <ele>1583.56</ele>
  <time>2026-08-27T18:26:58Z</time>
  <course>27.16</course>
  <speed>0.01</speed>
  <fix>3d</fix>
</trkpt>
<trkpt lat="40.0737701" lon="-105.2300698">
  <ele>1583.56</ele>
  <time>2026-08-27T18:26:58Z</time>
  <course>86.74</course>
  <speed>0.0</speed>
  <fix>3d</fix>
</trkpt>
<trkpt lat="40.0737701" lon="-105.2300698">
  <ele>1583.56</ele>
  <time>2026-08-27T18:26:58Z</time>
  <course>27.16</course>
  <speed>0.01</speed>
  <fix>3d</fix>
</trkpt>
<trkpt lat="40.0737701" lon="-105.2300698">
  <ele>1583.56</ele>
  <time>2026-08-27T18:26:58Z</time>
  <course>85.76</course>
  <speed>0.0</speed>
  <fix>3d</fix>
</trkpt>
<trkpt lat="40.0737701" lon="-105.2300698">
  <ele>1583.56</ele>
  <time>2026-08-27T18:26:58Z</time>
  <course>27.16</course>
  <speed>0.01</speed>
  <fix>3d</fix>
</trkpt>
<trkpt lat="40.0737701" lon="-105.2300698">
  <ele>1583.56</ele>
  <time>2026-08-27T18:26:58Z</time>
  <course>86.3</course>
  <speed>0.0</speed>
  <fix>3d</fix>
</trkpt>
<trkpt lat="40.0737701" lon="-105.2300698">
  <ele>1583.57</ele>
  <time>2026-08-27T18:26:58Z</time>
  <course>27.16</course>
  <speed>0.01</speed>
  <fix>3d</fix>
</trkpt>
<trkpt lat="40.0737701" lon="-105.2300698">
  <ele>1583.56</ele>
  <time>2026-08-27T18:26:58Z</time>
  <course>86.54</course>
  <speed>0.0</speed>
  <fix>3d</fix>
</trkpt>
<trkpt lat="40.0737701" lon="-105.2300698">
  <ele>1583.57</ele>
  <time>2026-08-27T18:26:58Z</time>
  <course>27.16</course>
  <speed>0.01</speed>
  <fix>3d</fix>
</trkpt>
<trkpt lat="40.0737701" lon="-105.2300698">
  <ele>1583.56</ele>
  <time>2026-08-27T18:26:58Z</time>
  <course>86.59</course>
  <speed>0.0</speed>
  <fix>3d</fix>
</trkpt>
<trkpt lat="40.0737701" lon="-105.2300698">
  <ele>1583.57</ele>
  <time>2026-08-27T18:26:58Z</time>
  <course>27.16</course>
  <speed>0.01</speed>
  <fix>3d</fix>
</trkpt>
<trkpt lat="40.0737701" lon="-105.2300698">
  <ele>1583.56</ele>
  <time>2026-08-27T18:26:58Z</time>
  <course>161.89</course>
  <speed>0.0</speed>
  <fix>3d</fix>
</trkpt>
<trkpt lat="40.0737701" lon="-105.2300698">
  <ele>1583.57</ele>
  <time>2026-08-27T18:26:58Z</time>
  <course>27.16</course>
  <speed>0.01</speed>
  <fix>3d</fix>
</trkpt>
<trkpt lat="40.0737701" lon="-105.2300698">
  <ele>1583.56</ele>
  <time>2026-08-27T18:26:58Z</time>
  <course>163.64</course>
  <speed>0.0</speed>
  <fix>3d</fix>
</trkpt>
<trkpt lat="40.0737701" lon="-105.2300698">
  <ele>1583.57</ele>
  <time>2026-08-27T18:26:58Z</time>
  <course>27.15</course>
  <speed>0.01</speed>
  <fix>3d</fix>
</trkpt>
<trkpt lat="40.0737701" lon="-105.2300698">
  <ele>1583.56</ele>
  <time>2026-08-27T18:26:58Z</time>
  <course>134.84</course>
  <speed>0.0</speed>
  <fix>3d</fix>
</trkpt>
<trkpt lat="40.0737701" lon="-105.2300698">
  <ele>1583.57</ele>
  <time>2026-08-27T18:26:58Z</time>
  <course>27.15</course>
  <speed>0.01</speed>
  <fix>3d</fix>
</trkpt>
<trkpt lat="40.0737701" lon="-105.2300698">
  <ele>1583.56</ele>
  <time>2026-08-27T18:26:58Z</time>
  <course>133.09</course>
  <speed>0.0</speed>
  <fix>3d</fix>
</trkpt>
<trkpt lat="40.0737701" lon="-105.2300698">
  <ele>1583.58</ele>
  <time>2026-08-27T18:26:58Z</time>
  <course>27.15</course>
  <speed>0.01</speed>
  <fix>3d</fix>
</trkpt>
<trkpt lat="40.0737701" lon="-105.2300698">
  <ele>1583.56</ele>
  <time>2026-08-27T18:26:58Z</time>
  <course>93.04</course>
  <speed>0.0</speed>
  <fix>3d</fix>
</trkpt>
<trkpt lat="40.0737701" lon="-105.2300698">
  <ele>1583.58</ele>
  <time>2026-08-27T18:26:58Z</time>
  <course>27.15</course>
  <speed>0.01</speed>
  <fix>3d</fix>
</trkpt>
<trkpt lat="40.0737701" lon="-105.2300698">
  <ele>1583.56</ele>
  <time>2026-08-27T18:26:58Z</time>
  <course>77.72</course>
  <speed>0.0</speed>
  <fix>3d</fix>
</trkpt>
<trkpt lat="40.0737701" lon="-105.2300698">
  <ele>1583.59</ele>
  <time>2026-08-27T18:26:58Z</time>
  <course>27.15</course>
  <speed>0.01</speed>
  <fix>3d</fix>
</trkpt>
<trkpt lat="40.0737701" lon="-105.2300698">
  <ele>1583.56</ele>
  <time>2026-08-27T18:26:58Z</time>
  <course>89.31</course>
  <speed>0.0</speed>
  <fix>3d</fix>
</trkpt>
<trkpt lat="40.0737701" lon="-105.2300698">
  <ele>1583.59</ele>
  <time>2026-08-27T18:26:58Z</time>
  <course>27.15</course>
  <speed>0.01</speed>
  <fix>3d</fix>
</trkpt>
<trkpt lat="40.0737701" lon="-105.2300698">
  <ele>1583.56</ele>
  <time>2026-08-27T18:26:58Z</time>
  <course>90.09</course>
  <speed>0.0</speed>
  <fix>3d</fix>
</trkpt>
<trkpt lat="40.0737701" lon="-105.2300698">
  <ele>1583.6</ele>
  <time>2026-08-27T18:26:58Z</time>
  <course>27.15</course>
  <speed>0.01</speed>
  <fix>3d</fix>
</trkpt>
<trkpt lat="40.0737701" lon="-105.2300698">
  <ele>1583.56</ele>
  <time>2026-08-27T18:26:58Z</time>
  <course>88.56</course>
  <speed>0.0</speed>
  <fix>3d</fix>
</trkpt>
<trkpt lat="40.0737701" lon="-105.2300698">
  <ele>1583.6</ele>
  <time>2026-08-27T18:26:58Z</time>
  <course>27.15</course>
  <speed>0.01</speed>
  <fix>3d</fix>
</trkpt>
<trkpt lat="40.0737701" lon="-105.2300698">
  <ele>1583.56</ele>
  <time>2026-08-27T18:26:58Z</time>
  <course>88.69</course>
  <speed>0.0</speed>
  <fix>3d</fix>
</trkpt>
<trkpt lat="40.0737701" lon="-105.2300698">
  <ele>1583.6</ele>
  <time>2026-08-27T18:26:58Z</time>
  <course>27.15</course>
  <speed>0.01</speed>
  <fix>3d</fix>
</trkpt>
<trkpt lat="40.0737701" lon="-105.2300698">
  <ele>1583.56</ele>
  <time>2026-08-27T18:26:58Z</time>
  <course>88.94</course>
  <speed>0.0</speed>
  <fix>3d</fix>
</trkpt>
<trkpt lat="40.0737701" lon="-105.2300698">
  <ele>1583.61</ele>
  <time>2026-08-27T18:26:58Z</time>
  <course>27.15</course>
  <speed>0.01</speed>
  <fix>3d</fix>
</trkpt>
<trkpt lat="40.0737701" lon="-105.2300698">
  <ele>1583.56</ele>
  <time>2026-08-27T18:26:58Z</time>
  <course>90.28</course>
  <speed>0.0</speed>
  <fix>3d</fix>
</trkpt>
<trkpt lat="40.0737701" lon="-105.2300698">
  <ele>1583.61</ele>
  <time>2026-08-27T18:26:58Z</time>
  <course>27.15</course>
  <speed>0.01</speed>
  <fix>3d</fix>
</trkpt>
<trkpt lat="40.0737701" lon="-105.2300698">
  <ele>1583.56</ele>
  <time>2026-08-27T18:26:58Z</time>
  <course>98.43</course>
  <speed>0.0</speed>
  <fix>3d</fix>
</trkpt>
<trkpt lat="40.0737701" lon="-105.2300698">
  <ele>1583.61</ele>
  <time>2026-08-27T18:26:58Z</time>
  <course>27.15</course>
  <speed>0.01</speed>
  <fix>3d</fix>
</trkpt>
<trkpt lat="40.0737701" lon="-105.2300698">
  <ele>1583.56</ele>
  <time>2026-08-27T18:26:58Z</time>
  <course>94.23</course>
  <speed>0.0</speed>
  <fix>3d</fix>
</trkpt>
<trkpt lat="40.0737701" lon="-105.2300698">
  <ele>1583.62</ele>
  <time>2026-08-27T18:26:58Z</time>
  <course>27.15</course>
  <speed>0.01</speed>
  <fix>3d</fix>
</trkpt>
<trkpt lat="40.0737701" lon="-105.2300698">
  <ele>1583.56</ele>
  <time>2026-08-27T18:26:58Z</time>
  <course>80.84</course>
  <speed>0.0</speed>
  <fix>3d</fix>
</trkpt>
<trkpt lat="40.0737701" lon="-105.2300698">
  <ele>1583.62</ele>
  <time>2026-08-27T18:26:58Z</time>
  <course>27.15</course>
  <speed>0.01</speed>
  <fix>3d</fix>
</trkpt>
<trkpt lat="40.0737701" lon="-105.2300698">
  <ele>1583.56</ele>
  <time>2026-08-27T18:26:58Z</time>
  <course>131.95</course>
  <speed>0.0</speed>
  <fix>3d</fix>
</trkpt>
<trkpt lat="40.0737701" lon="-105.2300698">
  <ele>1583.62</ele>
  <time>2026-08-27T18:26:58Z</time>
  <course>27.15</course>
  <speed>0.01</speed>
  <fix>3d</fix>
</trkpt>
<trkpt lat="40.0737701" lon="-105.2300698">
  <ele>1583.56</ele>
  <time>2026-08-27T18:26:58Z</time>
  <course>172.24</course>
  <speed>0.0</speed>
  <fix>3d</fix>
</trkpt>
<trkpt lat="40.0737701" lon="-105.2300698">
  <ele>1583.62</ele>
  <time>2026-08-27T18:26:58Z</time>
  <course>27.15</course>
  <speed>0.01</speed>
  <fix>3d</fix>
</trkpt>
<trkpt lat="40.0737701" lon="-105.2300698">
  <ele>1583.56</ele>
  <time>2026-08-27T18:26:58Z</time>
  <course>157.53</course>
  <speed>0.0</speed>
  <fix>3d</fix>
</trkpt>
<trkpt lat="40.0737701" lon="-105.2300698">
  <ele>1583.62</ele>
  <time>2026-08-27T18:26:58Z</time>
  <course>27.15</course>
  <speed>0.01</speed>
  <fix>3d</fix>
</trkpt>
<trkpt lat="40.0737701" lon="-105.2300698">
  <ele>1583.56</ele>
  <time>2026-08-27T18:26:58Z</time>
  <course>85.48</course>
  <speed>0.0</speed>
  <fix>3d</fix>
</trkpt>
<trkpt lat="40.0737701" lon="-105.2300698">
  <ele>1583.63</ele>
  <time>2026-08-27T18:26:58Z</time>
  <course>27.15</course>
  <speed>0.01</speed>
  <fix>3d</fix>
</trkpt>
<trkpt lat="40.0737701" lon="-105.2300698">
  <ele>1583.56</ele>
  <time>2026-08-27T18:26:58Z</time>
  <course>85.31</course>
  <speed>0.0</speed>
  <fix>3d</fix>
</trkpt>
<trkpt lat="40.0737701" lon="-105.2300698">
  <ele>1583.63</ele>
  <time>2026-08-27T18:26:58Z</time>
  <course>27.15</course>
  <speed>0.01</speed>
  <fix>3d</fix>
</trkpt>
<trkpt lat="40.0737701" lon="-105.2300698">
  <ele>1583.56</ele>
  <time>2026-08-27T18:26:58Z</time>
  <course>94.96</course>
  <speed>0.0</speed>
  <fix>3d</fix>
</trkpt>
<trkpt lat="40.0737701" lon="-105.2300698">
  <ele>1583.63</ele>
  <time>2026-08-27T18:26:58Z</time>
  <course>27.15</course>
  <speed>0.01</speed>
  <fix>3d</fix>
</trkpt>
<trkpt lat="40.0737701" lon="-105.2300698">
  <ele>1583.56</ele>
  <time>2026-08-27T18:26:58Z</time>
  <course>93.74</course>
  <speed>0.0</speed>
  <fix>3d</fix>
</trkpt>
<trkpt lat="40.0737701" lon="-105.2300698">
  <ele>1583.63</ele>
  <time>2026-08-27T18:26:58Z</time>
  <course>27.15</course>
  <speed>0.01</speed>
  <fix>3d</fix>
</trkpt>
<trkpt lat="40.0737701" lon="-105.2300698">
  <ele>1583.56</ele>
  <time>2026-08-27T18:26:58Z</time>
  <course>92.61</course>
  <speed>0.0</speed>
  <fix>3d</fix>
</trkpt>
<trkpt lat="40.0737701" lon="-105.2300698">
  <ele>1583.63</ele>
  <time>2026-08-27T18:26:58Z</time>
  <course>27.15</course>
  <speed>0.01</speed>
  <fix>3d</fix>
</trkpt>
<trkpt lat="40.0737701" lon="-105.2300698">
  <ele>1583.56</ele>
  <time>2026-08-27T18:26:58Z</time>
  <course>92.97</course>
  <speed>0.0</speed>
  <fix>3d</fix>
</trkpt>
<trkpt lat="40.0737701" lon="-105.2300698">
  <ele>1583.63</ele>
  <time>2026-08-27T18:26:58Z</time>
  <course>27.15</course>
  <speed>0.01</speed>
  <fix>3d</fix>
</trkpt>
<trkpt lat="40.0737701" lon="-105.2300698">
  <ele>1583.56</ele>
  <time>2026-08-27T18:26:58Z</time>
  <course>93.15</course>
  <speed>0.0</speed>
  <fix>3d</fix>
</trkpt>
<trkpt lat="40.0737701" lon="-105.2300698">
  <ele>1583.63</ele>
  <time>2026-08-27T18:26:58Z</time>
  <course>27.15</course>
  <speed>0.01</speed>
  <fix>3d</fix>
</trkpt>
<trkpt lat="40.0737701" lon="-105.2300698">
  <ele>1583.56</ele>
  <time>2026-08-27T18:26:58Z</time>
  <course>93.15</course>
  <speed>0.0</speed>
  <fix>3d</fix>
</trkpt>
<trkpt lat="40.0737701" lon="-105.2300698">
  <ele>1583.63</ele>
  <time>2026-08-27T18:26:58Z</time>
  <course>27.15</course>
  <speed>0.01</speed>
  <fix>3d</fix>
</trkpt>
<trkpt lat="40.0737701" lon="-105.2300698">
  <ele>1583.56</ele>
  <time>2026-08-27T18:26:58Z</time>
  <course>93.19</course>
  <speed>0.0</speed>
  <fix>3d</fix>
</trkpt>
<trkpt lat="40.0737701" lon="-105.2300698">
  <ele>1583.64</ele>
  <time>2026-08-27T18:26:58Z</time>
  <course>27.15</course>
  <speed>0.01</speed>
  <fix>3d</fix>
</trkpt>
<trkpt lat="40.0737701" lon="-105.2300698">
  <ele>1583.56</ele>
  <time>2026-08-27T18:26:58Z</time>
  <course>93.26</course>
  <speed>0.0</speed>
  <fix>3d</fix>
</trkpt>
<trkpt lat="40.0737701" lon="-105.2300698">
  <ele>1583.64</ele>
  <time>2026-08-27T18:26:58Z</time>
  <course>27.15</course>
  <speed>0.01</speed>
  <fix>3d</fix>
</trkpt>
<trkpt lat="40.0737701" lon="-105.2300698">
  <ele>1583.56</ele>
  <time>2026-08-27T18:26:58Z</time>
  <course>93.32</course>
  <speed>0.0</speed>
  <fix>3d</fix>
</trkpt>
<trkpt lat="40.0737701" lon="-105.2300698">
  <ele>1583.64</ele>
  <time>2026-08-27T18:26:58Z</time>
  <course>27.15</course>
  <speed>0.01</speed>
  <fix>3d</fix>
</trkpt>
<trkpt lat="40.0737701" lon="-105.2300698">
  <ele>1583.56</ele>
  <time>2026-08-27T18:26:58Z</time>
  <course>134.24</course>
  <speed>0.0</speed>
  <fix>3d</fix>
</trkpt>
<trkpt lat="40.0737701" lon="-105.2300698">
  <ele>1583.64</ele>
  <time>2026-08-27T18:26:58Z</time>
  <course>27.15</course>
  <speed>0.01</speed>
  <fix>3d</fix>
</trkpt>
<trkpt lat="40.0737701" lon="-105.2300698">
  <ele>1583.56</ele>
  <time>2026-08-27T18:26:58Z</time>
  <course>130.76</course>
  <speed>0.0</speed>
  <fix>3d</fix>
</trkpt>
<trkpt lat="40.0737701" lon="-105.2300698">
  <ele>1583.63</ele>
  <time>2026-08-27T18:26:58Z</time>
  <course>27.15</course>
  <speed>0.01</speed>
  <fix>3d</fix>
</trkpt>
<trkpt lat="40.0737701" lon="-105.2300698">
  <ele>1583.56</ele>
  <time>2026-08-27T18:26:58Z</time>
  <course>86.7</course>
  <speed>0.0</speed>
  <fix>3d</fix>
</trkpt>
<trkpt lat="40.0737701" lon="-105.2300698">
  <ele>1583.63</ele>
  <time>2026-08-27T18:26:58Z</time>
  <course>27.15</course>
  <speed>0.01</speed>
  <fix>3d</fix>
</trkpt>
<trkpt lat="40.0737701" lon="-105.2300698">
  <ele>1583.56</ele>
  <time>2026-08-27T18:26:58Z</time>
  <course>160.18</course>
  <speed>0.0</speed>
  <fix>3d</fix>
</trkpt>
<trkpt lat="40.0737701" lon="-105.2300698">
  <ele>1583.63</ele>
  <time>2026-08-27T18:26:59Z</time>
  <course>27.16</course>
  <speed>0.01</speed>
  <fix>3d</fix>
</trkpt>
<trkpt lat="40.0737701" lon="-105.2300698">
  <ele>1583.56</ele>
  <time>2026-08-27T18:26:59Z</time>
  <course>157.9</course>
  <speed>0.0</speed>
  <fix>3d</fix>
</trkpt>
<trkpt lat="40.0737701" lon="-105.2300698">
  <ele>1583.63</ele>
  <time>2026-08-27T18:26:59Z</time>
  <course>27.16</course>
  <speed>0.01</speed>
  <fix>3d</fix>
</trkpt>
<trkpt lat="40.0737701" lon="-105.2300698">
  <ele>1583.56</ele>
  <time>2026-08-27T18:26:59Z</time>
  <course>95.39</course>
  <speed>0.0</speed>
  <fix>3d</fix>
</trkpt>
<trkpt lat="40.0737701" lon="-105.2300698">
  <ele>1583.63</ele>
  <time>2026-08-27T18:26:59Z</time>
  <course>27.16</course>
  <speed>0.01</speed>
  <fix>3d</fix>
</trkpt>
<trkpt lat="40.0737701" lon="-105.2300698">
  <ele>1583.56</ele>
  <time>2026-08-27T18:26:59Z</time>
  <course>90.46</course>
  <speed>0.0</speed>
  <fix>3d</fix>
</trkpt>
<trkpt lat="40.0737701" lon="-105.2300698">
  <ele>1583.63</ele>
  <time>2026-08-27T18:26:59Z</time>
  <course>27.16</course>
  <speed>0.01</speed>
  <fix>3d</fix>
</trkpt>
<trkpt lat="40.0737701" lon="-105.2300698">
  <ele>1583.56</ele>
  <time>2026-08-27T18:26:59Z</time>
  <course>97.61</course>
  <speed>0.0</speed>
  <fix>3d</fix>
</trkpt>
<trkpt lat="40.0737701" lon="-105.2300698">
  <ele>1583.63</ele>
  <time>2026-08-27T18:26:59Z</time>
  <course>27.16</course>
  <speed>0.01</speed>
  <fix>3d</fix>
</trkpt>
<trkpt lat="40.0737701" lon="-105.2300698">
  <ele>1583.56</ele>
  <time>2026-08-27T18:26:59Z</time>
  <course>97.45</course>
  <speed>0.0</speed>
  <fix>3d</fix>
</trkpt>
<trkpt lat="40.0737701" lon="-105.2300698">
  <ele>1583.63</ele>
  <time>2026-08-27T18:26:59Z</time>
  <course>27.16</course>
  <speed>0.01</speed>
  <fix>3d</fix>
</trkpt>
<trkpt lat="40.0737701" lon="-105.2300698">
  <ele>1583.56</ele>
  <time>2026-08-27T18:26:59Z</time>
  <course>96.55</course>
  <speed>0.0</speed>
  <fix>3d</fix>
</trkpt>
<trkpt lat="40.0737701" lon="-105.2300698">
  <ele>1583.63</ele>
  <time>2026-08-27T18:26:59Z</time>
  <course>27.16</course>
  <speed>0.01</speed>
  <fix>3d</fix>
</trkpt>
<trkpt lat="40.0737701" lon="-105.2300698">
  <ele>1583.56</ele>
  <time>2026-08-27T18:26:59Z</time>
  <course>96.75</course>
  <speed>0.0</speed>
  <fix>3d</fix>
</trkpt>
<trkpt lat="40.0737701" lon="-105.2300698">
  <ele>1583.63</ele>
  <time>2026-08-27T18:26:59Z</time>
  <course>27.16</course>
  <speed>0.01</speed>
  <fix>3d</fix>
</trkpt>
<trkpt lat="40.0737701" lon="-105.2300698">
  <ele>1583.56</ele>
  <time>2026-08-27T18:26:59Z</time>
  <course>96.9</course>
  <speed>0.0</speed>
  <fix>3d</fix>
</trkpt>
<trkpt lat="40.07377" lon="-105.2300698">
  <ele>1583.63</ele>
  <time>2026-08-27T18:26:59Z</time>
  <course>27.16</course>
  <speed>0.01</speed>
  <fix>3d</fix>
</trkpt>
<trkpt lat="40.0737701" lon="-105.2300698">
  <ele>1583.56</ele>
  <time>2026-08-27T18:26:59Z</time>
  <course>96.86</course>
  <speed>0.0</speed>
  <fix>3d</fix>
</trkpt>
<trkpt lat="40.07377" lon="-105.2300698">
  <ele>1583.64</ele>
  <time>2026-08-27T18:26:59Z</time>
  <course>27.16</course>
  <speed>0.01</speed>
  <fix>3d</fix>
</trkpt>
<trkpt lat="40.0737701" lon="-105.2300698">
  <ele>1583.56</ele>
  <time>2026-08-27T18:26:59Z</time>
  <course>96.85</course>
  <speed>0.0</speed>
  <fix>3d</fix>
</trkpt>
<trkpt lat="40.07377" lon="-105.2300698">
  <ele>1583.64</ele>
  <time>2026-08-27T18:26:59Z</time>
  <course>27.16</course>
  <speed>0.01</speed>
  <fix>3d</fix>
</trkpt>
<trkpt lat="40.0737701" lon="-105.2300698">
  <ele>1583.56</ele>
  <time>2026-08-27T18:26:59Z</time>
  <course>139.25</course>
  <speed>0.0</speed>
  <fix>3d</fix>
</trkpt>
<trkpt lat="40.07377" lon="-105.2300698">
  <ele>1583.64</ele>
  <time>2026-08-27T18:26:59Z</time>
  <course>27.16</course>
  <speed>0.01</speed>
  <fix>3d</fix>
</trkpt>
<trkpt lat="40.0737701" lon="-105.2300698">
  <ele>1583.56</ele>
  <time>2026-08-27T18:26:59Z</time>
  <course>140.73</course>
  <speed>0.0</speed>
  <fix>3d</fix>
</trkpt>
<trkpt lat="40.07377" lon="-105.2300698">
  <ele>1583.65</ele>
  <time>2026-08-27T18:26:59Z</time>
  <course>27.17</course>
  <speed>0.01</speed>
  <fix>3d</fix>
</trkpt>
<trkpt lat="40.0737701" lon="-105.2300698">
  <ele>1583.56</ele>
  <time>2026-08-27T18:26:59Z</time>
  <course>103.83</course>
  <speed>0.0</speed>
  <fix>3d</fix>
</trkpt>
<trkpt lat="40.07377" lon="-105.2300698">
  <ele>1583.65</ele>
  <time>2026-08-27T18:26:59Z</time>
  <course>27.17</course>
  <speed>0.01</speed>
  <fix>3d</fix>
</trkpt>
<trkpt lat="40.0737701" lon="-105.2300698">
  <ele>1583.56</ele>
  <time>2026-08-27T18:26:59Z</time>
  <course>87.01</course>
  <speed>0.0</speed>
  <fix>3d</fix>
</trkpt>
<trkpt lat="40.07377" lon="-105.2300698">
  <ele>1583.65</ele>
  <time>2026-08-27T18:26:59Z</time>
  <course>27.17</course>
  <speed>0.01</speed>
  <fix>3d</fix>
</trkpt>
<trkpt lat="40.0737701" lon="-105.2300698">
  <ele>1583.56</ele>
  <time>2026-08-27T18:26:59Z</time>
  <course>166.97</course>
  <speed>0.0</speed>
  <fix>3d</fix>
</trkpt>
<trkpt lat="40.07377" lon="-105.2300698">
  <ele>1583.65</ele>
  <time>2026-08-27T18:26:59Z</time>
  <course>27.21</course>
  <speed>0.01</speed>
  <fix>3d</fix>
</trkpt>
<trkpt lat="40.0737701" lon="-105.2300698">
  <ele>1583.56</ele>
  <time>2026-08-27T18:26:59Z</time>
  <course>171.03</course>
  <speed>0.0</speed>
  <fix>3d</fix>
</trkpt>
<trkpt lat="40.07377" lon="-105.2300698">
  <ele>1583.65</ele>
  <time>2026-08-27T18:26:59Z</time>
  <course>27.57</course>
  <speed>0.01</speed>
  <fix>3d</fix>
</trkpt>
<trkpt lat="40.0737701" lon="-105.2300698">
  <ele>1583.56</ele>
  <time>2026-08-27T18:26:59Z</time>
  <course>304.7</course>
  <speed>0.0</speed>
  <fix>3d</fix>
</trkpt>
<trkpt lat="40.07377" lon="-105.2300698">
  <ele>1583.66</ele>
  <time>2026-08-27T18:26:59Z</time>
  <course>28.0</course>
  <speed>0.01</speed>
  <fix>3d</fix>
</trkpt>
<trkpt lat="40.0737701" lon="-105.2300698">
  <ele>1583.56</ele>
  <time>2026-08-27T18:26:59Z</time>
  <course>283.99</course>
  <speed>0.0</speed>
  <fix>3d</fix>
</trkpt>
<trkpt lat="40.07377" lon="-105.2300698">
  <ele>1583.65</ele>
  <time>2026-08-27T18:26:59Z</time>
  <course>28.38</course>
  <speed>0.01</speed>
  <fix>3d</fix>
</trkpt>
<trkpt lat="40.0737701" lon="-105.2300698">
  <ele>1583.56</ele>
  <time>2026-08-27T18:26:59Z</time>
  <course>239.21</course>
  <speed>0.0</speed>
  <fix>3d</fix>
</trkpt>
<trkpt lat="40.07377" lon="-105.2300698">
  <ele>1583.66</ele>
  <time>2026-08-27T18:26:59Z</time>
  <course>28.71</course>
  <speed>0.01</speed>
  <fix>3d</fix>
</trkpt>
<trkpt lat="40.0737701" lon="-105.2300698">
  <ele>1583.56</ele>
  <time>2026-08-27T18:26:59Z</time>
  <course>98.37</course>
  <speed>0.0</speed>
  <fix>3d</fix>
</trkpt>
<trkpt lat="40.07377" lon="-105.2300698">
  <ele>1583.66</ele>
  <time>2026-08-27T18:26:59Z</time>
  <course>29.02</course>
  <speed>0.01</speed>
  <fix>3d</fix>
</trkpt>
<trkpt lat="40.0737701" lon="-105.2300698">
  <ele>1583.56</ele>
  <time>2026-08-27T18:26:59Z</time>
  <course>29.43</course>
  <speed>0.0</speed>
  <fix>3d</fix>
</trkpt>
<trkpt lat="40.07377" lon="-105.2300698">
  <ele>1583.66</ele>
  <time>2026-08-27T18:26:59Z</time>
  <course>29.3</course>
  <speed>0.01</speed>
  <fix>3d</fix>
</trkpt>
<trkpt lat="40.0737701" lon="-105.2300698">
  <ele>1583.56</ele>
  <time>2026-08-27T18:26:59Z</time>
  <course>269.88</course>
  <speed>0.0</speed>
  <fix>3d</fix>
</trkpt>
<trkpt lat="40.07377" lon="-105.2300698">
  <ele>1583.65</ele>
  <time>2026-08-27T18:26:59Z</time>
  <course>29.56</course>
  <speed>0.01</speed>
  <fix>3d</fix>
</trkpt>
<trkpt lat="40.0737701" lon="-105.2300698">
  <ele>1583.56</ele>
  <time>2026-08-27T18:26:59Z</time>
  <course>160.74</course>
  <speed>0.0</speed>
  <fix>3d</fix>
</trkpt>
<trkpt lat="40.0737701" lon="-105.2300698">
  <ele>1583.65</ele>
  <time>2026-08-27T18:26:59Z</time>
  <course>29.8</course>
  <speed>0.01</speed>
  <fix>3d</fix>
</trkpt>
<trkpt lat="40.0737701" lon="-105.2300698">
  <ele>1583.56</ele>
  <time>2026-08-27T18:26:59Z</time>
  <course>97.43</course>
  <speed>0.0</speed>
  <fix>3d</fix>
</trkpt>
<trkpt lat="40.0737701" lon="-105.2300698">
  <ele>1583.65</ele>
  <time>2026-08-27T18:26:59Z</time>
  <course>30.03</course>
  <speed>0.01</speed>
  <fix>3d</fix>
</trkpt>
<trkpt lat="40.0737701" lon="-105.2300698">
  <ele>1583.56</ele>
  <time>2026-08-27T18:26:59Z</time>
  <course>234.33</course>
  <speed>0.0</speed>
  <fix>3d</fix>
</trkpt>
<trkpt lat="40.0737701" lon="-105.2300698">
  <ele>1583.65</ele>
  <time>2026-08-27T18:26:59Z</time>
  <course>30.24</course>
  <speed>0.01</speed>
  <fix>3d</fix>
</trkpt>
<trkpt lat="40.0737701" lon="-105.2300698">
  <ele>1583.56</ele>
  <time>2026-08-27T18:26:59Z</time>
  <course>198.22</course>
  <speed>0.0</speed>
  <fix>3d</fix>
</trkpt>
<trkpt lat="40.0737701" lon="-105.2300698">
  <ele>1583.65</ele>
  <time>2026-08-27T18:26:59Z</time>
  <course>30.43</course>
  <speed>0.01</speed>
  <fix>3d</fix>
</trkpt>
<trkpt lat="40.0737701" lon="-105.2300698">
  <ele>1583.56</ele>
  <time>2026-08-27T18:26:59Z</time>
  <course>164.25</course>
  <speed>0.0</speed>
  <fix>3d</fix>
</trkpt>
<trkpt lat="40.0737701" lon="-105.2300698">
  <ele>1583.65</ele>
  <time>2026-08-27T18:26:59Z</time>
  <course>30.61</course>
  <speed>0.01</speed>
  <fix>3d</fix>
</trkpt>
<trkpt lat="40.0737701" lon="-105.2300698">
  <ele>1583.56</ele>
  <time>2026-08-27T18:26:59Z</time>
  <course>169.31</course>
  <speed>0.0</speed>
  <fix>3d</fix>
</trkpt>
<trkpt lat="40.0737701" lon="-105.2300698">
  <ele>1583.65</ele>
  <time>2026-08-27T18:26:59Z</time>
  <course>30.78</course>
  <speed>0.01</speed>
  <fix>3d</fix>
</trkpt>
<trkpt lat="40.0737701" lon="-105.2300698">
  <ele>1583.56</ele>
  <time>2026-08-27T18:26:59Z</time>
  <course>173.77</course>
  <speed>0.0</speed>
  <fix>3d</fix>
</trkpt>
<trkpt lat="40.0737701" lon="-105.2300698">
  <ele>1583.66</ele>
  <time>2026-08-27T18:26:59Z</time>
  <course>31.38</course>
  <speed>0.01</speed>
  <fix>3d</fix>
</trkpt>
<trkpt lat="40.0737701" lon="-105.2300698">
  <ele>1583.56</ele>
  <time>2026-08-27T18:26:59Z</time>
  <course>172.28</course>
  <speed>0.0</speed>
  <fix>3d</fix>
</trkpt>
<trkpt lat="40.0737701" lon="-105.2300698">
  <ele>1583.65</ele>
  <time>2026-08-27T18:26:59Z</time>
  <course>31.5</course>
  <speed>0.01</speed>
  <fix>3d</fix>
</trkpt>
<trkpt lat="40.0737701" lon="-105.2300698">
  <ele>1583.56</ele>
  <time>2026-08-27T18:26:59Z</time>
  <course>172.25</course>
  <speed>0.0</speed>
  <fix>3d</fix>
</trkpt>
<trkpt lat="40.0737701" lon="-105.2300698">
  <ele>1583.65</ele>
  <time>2026-08-27T18:26:59Z</time>
  <course>31.62</course>
  <speed>0.01</speed>
  <fix>3d</fix>
</trkpt>
<trkpt lat="40.0737701" lon="-105.2300698">
  <ele>1583.56</ele>
  <time>2026-08-27T18:26:59Z</time>
  <course>172.25</course>
  <speed>0.0</speed>
  <fix>3d</fix>
</trkpt>
<trkpt lat="40.0737701" lon="-105.2300698">
  <ele>1583.66</ele>
  <time>2026-08-27T18:26:59Z</time>
  <course>31.74</course>
  <speed>0.01</speed>
  <fix>3d</fix>
</trkpt>
<trkpt lat="40.0737701" lon="-105.2300698">
  <ele>1583.56</ele>
  <time>2026-08-27T18:26:59Z</time>
  <course>172.25</course>
  <speed>0.0</speed>
  <fix>3d</fix>
</trkpt>
<trkpt lat="40.0737701" lon="-105.2300698">
  <ele>1583.66</ele>
  <time>2026-08-27T18:26:59Z</time>
  <course>31.85</course>
  <speed>0.01</speed>
  <fix>3d</fix>
</trkpt>
<trkpt lat="40.0737701" lon="-105.2300698">
  <ele>1583.56</ele>
  <time>2026-08-27T18:26:59Z</time>
  <course>172.25</course>
  <speed>0.0</speed>
  <fix>3d</fix>
</trkpt>
<trkpt lat="40.0737701" lon="-105.2300698">
  <ele>1583.66</ele>
  <time>2026-08-27T18:26:59Z</time>
  <course>31.96</course>
  <speed>0.01</speed>
  <fix>3d</fix>
</trkpt>
<trkpt lat="40.0737701" lon="-105.2300698">
  <ele>1583.56</ele>
  <time>2026-08-27T18:26:59Z</time>
  <course>172.25</course>
  <speed>0.0</speed>
  <fix>3d</fix>
</trkpt>
<trkpt lat="40.0737701" lon="-105.2300698">
  <ele>1583.66</ele>
  <time>2026-08-27T18:26:59Z</time>
  <course>32.05</course>
  <speed>0.01</speed>
  <fix>3d</fix>
</trkpt>
<trkpt lat="40.0737701" lon="-105.2300698">
  <ele>1583.56</ele>
  <time>2026-08-27T18:26:59Z</time>
  <course>172.25</course>
  <speed>0.0</speed>
  <fix>3d</fix>
</trkpt>
<trkpt lat="39.6562421" lon="-104.1365912">
  <ele>1569.6</ele>
  <time>2026-08-27T18:26:59Z</time>
  <course>14.17</course>
  <speed>0.0</speed>
  <fix>3d</fix>
</trkpt>
<trkpt lat="40.072842" lon="-105.230575">
  <ele>1586.09</ele>
  <time>2026-08-27T18:26:59Z</time>
  <course>2.03</course>
  <speed>0.0</speed>
  <fix>3d</fix>
</trkpt>
<trkpt lat="40.072842" lon="-105.230575">
  <ele>1586.09</ele>
  <time>2026-08-27T18:26:59Z</time>
  <course>344.04</course>
  <speed>0.0</speed>
  <fix>3d</fix>
</trkpt>
<trkpt lat="40.072842" lon="-105.230575">
  <ele>1586.09</ele>
  <time>2026-08-27T18:26:59Z</time>
  <course>2.51</course>
  <speed>0.0</speed>
  <fix>3d</fix>
</trkpt>
<trkpt lat="40.072842" lon="-105.230575">
  <ele>1586.09</ele>
  <time>2026-08-27T18:26:59Z</time>
  <course>236.53</course>
  <speed>0.0</speed>
  <fix>3d</fix>
</trkpt>
<trkpt lat="40.072842" lon="-105.230575">
  <ele>1586.09</ele>
  <time>2026-08-27T18:26:59Z</time>
  <course>3.26</course>
  <speed>0.0</speed>
  <fix>3d</fix>
</trkpt>
<trkpt lat="40.072842" lon="-105.230575">
  <ele>1586.09</ele>
  <time>2026-08-27T18:26:59Z</time>
  <course>181.85</course>
  <speed>0.0</speed>
  <fix>3d</fix>
</trkpt>
<trkpt lat="40.072842" lon="-105.230575">
  <ele>1586.09</ele>
  <time>2026-08-27T18:26:59Z</time>
  <course>3.93</course>
  <speed>0.0</speed>
  <fix>3d</fix>
</trkpt>
<trkpt lat="40.072842" lon="-105.230575">
  <ele>1586.09</ele>
  <time>2026-08-27T18:26:59Z</time>
  <course>38.5</course>
  <speed>0.0</speed>
  <fix>3d</fix>
</trkpt>
<trkpt lat="40.072842" lon="-105.230575">
  <ele>1586.09</ele>
  <time>2026-08-27T18:26:59Z</time>
  <course>4.55</course>
  <speed>0.0</speed>
  <fix>3d</fix>
</trkpt>
<trkpt lat="40.072842" lon="-105.230575">
  <ele>1586.09</ele>
  <time>2026-08-27T18:26:59Z</time>
  <course>341.08</course>
  <speed>0.0</speed>
  <fix>3d</fix>
</trkpt>
<trkpt lat="40.072842" lon="-105.230575">
  <ele>1586.09</ele>
  <time>2026-08-27T18:26:59Z</time>
  <course>5.14</course>
  <speed>0.0</speed>
  <fix>3d</fix>
</trkpt>
<trkpt lat="40.072842" lon="-105.230575">
  <ele>1586.09</ele>
  <time>2026-08-27T18:26:59Z</time>
  <course>79.87</course>
  <speed>0.0</speed>
  <fix>3d</fix>
</trkpt>
<trkpt lat="40.072842" lon="-105.230575">
  <ele>1586.09</ele>
  <time>2026-08-27T18:27:00Z</time>
  <course>5.69</course>
  <speed>0.0</speed>
  <fix>3d</fix>
</trkpt>
<trkpt lat="40.072842" lon="-105.230575">
  <ele>1586.09</ele>
  <time>2026-08-27T18:27:00Z</time>
  <course>78.75</course>
  <speed>0.0</speed>
  <fix>3d</fix>
</trkpt>
<trkpt lat="40.072842" lon="-105.230575">
  <ele>1586.09</ele>
  <time>2026-08-27T18:27:00Z</time>
  <course>6.21</course>
  <speed>0.0</speed>
  <fix>3d</fix>
</trkpt>
<trkpt lat="40.072842" lon="-105.230575">
  <ele>1586.09</ele>
  <time>2026-08-27T18:27:00Z</time>
  <course>198.3</course>
  <speed>0.0</speed>
  <fix>3d</fix>
</trkpt>
<trkpt lat="40.072842" lon="-105.230575">
  <ele>1586.09</ele>
  <time>2026-08-27T18:27:00Z</time>
  <course>6.7</course>
  <speed>0.0</speed>
  <fix>3d</fix>
</trkpt>
<trkpt lat="40.072842" lon="-105.230575">
  <ele>1586.09</ele>
  <time>2026-08-27T18:27:00Z</time>
  <course>208.9</course>
  <speed>0.0</speed>
  <fix>3d</fix>
</trkpt>
<trkpt lat="40.072842" lon="-105.230575">
  <ele>1586.09</ele>
  <time>2026-08-27T18:27:00Z</time>
  <course>7.16</course>
  <speed>0.0</speed>
  <fix>3d</fix>
</trkpt>
<trkpt lat="40.072842" lon="-105.230575">
  <ele>1586.09</ele>
  <time>2026-08-27T18:27:00Z</time>
  <course>59.22</course>
  <speed>0.0</speed>
  <fix>3d</fix>
</trkpt>
<trkpt lat="40.072842" lon="-105.230575">
  <ele>1586.09</ele>
  <time>2026-08-27T18:27:00Z</time>
  <course>7.58</course>
  <speed>0.0</speed>
  <fix>3d</fix>
</trkpt>
<trkpt lat="40.072842" lon="-105.230575">
  <ele>1586.09</ele>
  <time>2026-08-27T18:27:00Z</time>
  <course>78.2</course>
  <speed>0.0</speed>
  <fix>3d</fix>
</trkpt>
<trkpt lat="40.072842" lon="-105.230575">
  <ele>1586.09</ele>
  <time>2026-08-27T18:27:00Z</time>
  <course>7.97</course>
  <speed>0.0</speed>
  <fix>3d</fix>
</trkpt>
<trkpt lat="40.072842" lon="-105.230575">
  <ele>1586.09</ele>
  <time>2026-08-27T18:27:00Z</time>
  <course>275.97</course>
  <speed>0.0</speed>
  <fix>3d</fix>
</trkpt>
<trkpt lat="40.072842" lon="-105.230575">
  <ele>1586.09</ele>
  <time>2026-08-27T18:27:00Z</time>
  <course>8.33</course>
  <speed>0.0</speed>
  <fix>3d</fix>
</trkpt>
<trkpt lat="40.072842" lon="-105.230575">
  <ele>1586.09</ele>
  <time>2026-08-27T18:27:00Z</time>
  <course>272.6</course>
  <speed>0.0</speed>
  <fix>3d</fix>
</trkpt>
<trkpt lat="40.072842" lon="-105.230575">
  <ele>1586.09</ele>
  <time>2026-08-27T18:27:00Z</time>
  <course>8.66</course>
  <speed>0.0</speed>
  <fix>3d</fix>
</trkpt>
<trkpt lat="40.072842" lon="-105.230575">
  <ele>1586.09</ele>
  <time>2026-08-27T18:27:00Z</time>
  <course>135.8</course>
  <speed>0.0</speed>
  <fix>3d</fix>
</trkpt>
<trkpt lat="40.072842" lon="-105.230575">
  <ele>1586.09</ele>
  <time>2026-08-27T18:27:00Z</time>
  <course>8.97</course>
  <speed>0.0</speed>
  <fix>3d</fix>
</trkpt>
<trkpt lat="40.072842" lon="-105.230575">
  <ele>1586.09</ele>
  <time>2026-08-27T18:27:00Z</time>
  <course>4.81</course>
  <speed>0.0</speed>
  <fix>3d</fix>
</trkpt>
<trkpt lat="40.072842" lon="-105.230575">
  <ele>1586.09</ele>
  <time>2026-08-27T18:27:00Z</time>
  <course>9.25</course>
  <speed>0.0</speed>
  <fix>3d</fix>
</trkpt>
<trkpt lat="40.072842" lon="-105.230575">
  <ele>1586.09</ele>
  <time>2026-08-27T18:27:00Z</time>
  <course>333.21</course>
  <speed>0.0</speed>
  <fix>3d</fix>
</trkpt>
<trkpt lat="40.072842" lon="-105.230575">
  <ele>1586.09</ele>
  <time>2026-08-27T18:27:00Z</time>
  <course>9.52</course>
  <speed>0.0</speed>
  <fix>3d</fix>
</trkpt>
<trkpt lat="40.072842" lon="-105.230575">
  <ele>1586.09</ele>
  <time>2026-08-27T18:27:00Z</time>
  <course>207.41</course>
  <speed>0.0</speed>
  <fix>3d</fix>
</trkpt>
<trkpt lat="40.072842" lon="-105.230575">
  <ele>1586.09</ele>
  <time>2026-08-27T18:27:00Z</time>
  <course>9.76</course>
  <speed>0.0</speed>
  <fix>3d</fix>
</trkpt>
<trkpt lat="40.072842" lon="-105.230575">
  <ele>1586.09</ele>
  <time>2026-08-27T18:27:00Z</time>
  <course>250.02</course>
  <speed>0.0</speed>
  <fix>3d</fix>
</trkpt>
<trkpt lat="40.072842" lon="-105.230575">
  <ele>1586.09</ele>
  <time>2026-08-27T18:27:00Z</time>
  <course>9.98</course>
  <speed>0.0</speed>
  <fix>3d</fix>
</trkpt>
<trkpt lat="40.072842" lon="-105.230575">
  <ele>1586.09</ele>
  <time>2026-08-27T18:27:00Z</time>
  <course>260.86</course>
  <speed>0.0</speed>
  <fix>3d</fix>
</trkpt>
<trkpt lat="40.072842" lon="-105.230575">
  <ele>1586.09</ele>
  <time>2026-08-27T18:27:00Z</time>
  <course>10.18</course>
  <speed>0.0</speed>
  <fix>3d</fix>
</trkpt>
<trkpt lat="40.072842" lon="-105.230575">
  <ele>1586.09</ele>
  <time>2026-08-27T18:27:00Z</time>
  <course>291.3</course>
  <speed>0.0</speed>
  <fix>3d</fix>
</trkpt>
<trkpt lat="40.072842" lon="-105.230575">
  <ele>1586.09</ele>
  <time>2026-08-27T18:27:00Z</time>
  <course>10.37</course>
  <speed>0.0</speed>
  <fix>3d</fix>
</trkpt>
<trkpt lat="40.072842" lon="-105.230575">
  <ele>1586.09</ele>
  <time>2026-08-27T18:27:00Z</time>
  <course>266.59</course>
  <speed>0.0</speed>
  <fix>3d</fix>
</trkpt>
<trkpt lat="40.072842" lon="-105.230575">
  <ele>1586.09</ele>
  <time>2026-08-27T18:27:00Z</time>
  <course>10.54</course>
  <speed>0.0</speed>
  <fix>3d</fix>
</trkpt>
<trkpt lat="40.072842" lon="-105.230575">
  <ele>1586.09</ele>
  <time>2026-08-27T18:27:00Z</time>
  <course>264.88</course>
  <speed>0.0</speed>
  <fix>3d</fix>
</trkpt>
<trkpt lat="40.072842" lon="-105.230575">
  <ele>1586.09</ele>
  <time>2026-08-27T18:27:00Z</time>
  <course>10.69</course>
  <speed>0.0</speed>
  <fix>3d</fix>
</trkpt>
<trkpt lat="40.072842" lon="-105.230575">
  <ele>1586.09</ele>
  <time>2026-08-27T18:27:00Z</time>
  <course>266.12</course>
  <speed>0.0</speed>
  <fix>3d</fix>
</trkpt>
<trkpt lat="40.072842" lon="-105.230575">
  <ele>1586.09</ele>
  <time>2026-08-27T18:27:00Z</time>
  <course>10.83</course>
  <speed>0.0</speed>
  <fix>3d</fix>
</trkpt>
<trkpt lat="40.072842" lon="-105.230575">
  <ele>1586.09</ele>
  <time>2026-08-27T18:27:00Z</time>
  <course>266.2</course>
  <speed>0.0</speed>
  <fix>3d</fix>
</trkpt>
<trkpt lat="40.072842" lon="-105.230575">
  <ele>1586.09</ele>
  <time>2026-08-27T18:27:00Z</time>
  <course>10.96</course>
  <speed>0.0</speed>
  <fix>3d</fix>
</trkpt>
<trkpt lat="40.072842" lon="-105.230575">
  <ele>1586.09</ele>
  <time>2026-08-27T18:27:00Z</time>
  <course>266.0</course>
  <speed>0.0</speed>
  <fix>3d</fix>
</trkpt>
<trkpt lat="40.072842" lon="-105.230575">
  <ele>1586.09</ele>
  <time>2026-08-27T18:27:00Z</time>
  <course>11.08</course>
  <speed>0.0</speed>
  <fix>3d</fix>
</trkpt>
<trkpt lat="40.072842" lon="-105.230575">
  <ele>1586.09</ele>
  <time>2026-08-27T18:27:00Z</time>
  <course>266.02</course>
  <speed>0.0</speed>
  <fix>3d</fix>
</trkpt>
<trkpt lat="40.072842" lon="-105.230575">
  <ele>1586.09</ele>
  <time>2026-08-27T18:27:00Z</time>
  <course>11.19</course>
  <speed>0.0</speed>
  <fix>3d</fix>
</trkpt>
<trkpt lat="40.072842" lon="-105.230575">
  <ele>1586.09</ele>
  <time>2026-08-27T18:27:00Z</time>
  <course>266.04</course>
  <speed>0.0</speed>
  <fix>3d</fix>
</trkpt>
<trkpt lat="40.072842" lon="-105.230575">
  <ele>1586.09</ele>
  <time>2026-08-27T18:27:00Z</time>
  <course>11.29</course>
  <speed>0.0</speed>
  <fix>3d</fix>
</trkpt>
<trkpt lat="40.072842" lon="-105.230575">
  <ele>1586.09</ele>
  <time>2026-08-27T18:27:00Z</time>
  <course>266.04</course>
  <speed>0.0</speed>
  <fix>3d</fix>
</trkpt>
<trkpt lat="40.072842" lon="-105.230575">
  <ele>1586.09</ele>
  <time>2026-08-27T18:27:00Z</time>
  <course>11.38</course>
  <speed>0.0</speed>
  <fix>3d</fix>
</trkpt>
<trkpt lat="40.072842" lon="-105.230575">
  <ele>1586.09</ele>
  <time>2026-08-27T18:27:00Z</time>
  <course>266.03</course>
  <speed>0.0</speed>
  <fix>3d</fix>
</trkpt>
<trkpt lat="40.072842" lon="-105.230575">
  <ele>1586.09</ele>
  <time>2026-08-27T18:27:00Z</time>
  <course>11.46</course>
  <speed>0.0</speed>
  <fix>3d</fix>
</trkpt>
<trkpt lat="40.072842" lon="-105.230575">
  <ele>1586.09</ele>
  <time>2026-08-27T18:27:00Z</time>
  <course>266.03</course>
  <speed>0.0</speed>
  <fix>3d</fix>
</trkpt>
<trkpt lat="40.072842" lon="-105.230575">
  <ele>1586.09</ele>
  <time>2026-08-27T18:27:00Z</time>
  <course>11.53</course>
  <speed>0.0</speed>
  <fix>3d</fix>
</trkpt>
<trkpt lat="40.072842" lon="-105.230575">
  <ele>1586.09</ele>
  <time>2026-08-27T18:27:00Z</time>
  <course>266.03</course>
  <speed>0.0</speed>
  <fix>3d</fix>
</trkpt>
<trkpt lat="40.072842" lon="-105.230575">
  <ele>1586.09</ele>
  <time>2026-08-27T18:27:00Z</time>
  <course>11.6</course>
  <speed>0.0</speed>
  <fix>3d</fix>
</trkpt>
<trkpt lat="40.072842" lon="-105.230575">
  <ele>1586.09</ele>
  <time>2026-08-27T18:27:00Z</time>
  <course>266.03</course>
  <speed>0.0</speed>
  <fix>3d</fix>
</trkpt>
<trkpt lat="40.072842" lon="-105.230575">
  <ele>1586.09</ele>
  <time>2026-08-27T18:27:00Z</time>
  <course>11.66</course>
  <speed>0.0</speed>
  <fix>3d</fix>
</trkpt>
<trkpt lat="40.072842" lon="-105.230575">
  <ele>1586.09</ele>
  <time>2026-08-27T18:27:00Z</time>
  <course>266.03</course>
  <speed>0.0</speed>
  <fix>3d</fix>
</trkpt>
<trkpt lat="40.072842" lon="-105.230575">
  <ele>1586.09</ele>
  <time>2026-08-27T18:27:00Z</time>
  <course>11.72</course>
  <speed>0.0</speed>
  <fix>3d</fix>
</trkpt>
<trkpt lat="40.072842" lon="-105.230575">
  <ele>1586.09</ele>
  <time>2026-08-27T18:27:00Z</time>
  <course>266.03</course>
  <speed>0.0</speed>
  <fix>3d</fix>
</trkpt>
<trkpt lat="40.072842" lon="-105.230575">
  <ele>1586.09</ele>
  <time>2026-08-27T18:27:00Z</time>
  <course>11.77</course>
  <speed>0.0</speed>
  <fix>3d</fix>
</trkpt>
<trkpt lat="40.072842" lon="-105.230575">
  <ele>1586.09</ele>
  <time>2026-08-27T18:27:00Z</time>
  <course>266.03</course>
  <speed>0.0</speed>
  <fix>3d</fix>
</trkpt>
<trkpt lat="40.072842" lon="-105.230575">
  <ele>1586.09</ele>
  <time>2026-08-27T18:27:00Z</time>
  <course>11.82</course>
  <speed>0.0</speed>
  <fix>3d</fix>
</trkpt>
<trkpt lat="40.072842" lon="-105.230575">
  <ele>1586.09</ele>
  <time>2026-08-27T18:27:00Z</time>
  <course>266.03</course>
  <speed>0.0</speed>
  <fix>3d</fix>
</trkpt>
<trkpt lat="40.072842" lon="-105.230575">
  <ele>1586.09</ele>
  <time>2026-08-27T18:27:00Z</time>
  <course>11.86</course>
  <speed>0.0</speed>
  <fix>3d</fix>
</trkpt>
<trkpt lat="40.072842" lon="-105.230575">
  <ele>1586.09</ele>
  <time>2026-08-27T18:27:00Z</time>
  <course>266.03</course>
  <speed>0.0</speed>
  <fix>3d</fix>
</trkpt>
<trkpt lat="40.072842" lon="-105.230575">
  <ele>1586.09</ele>
  <time>2026-08-27T18:27:00Z</time>
  <course>11.89</course>
  <speed>0.0</speed>
  <fix>3d</fix>
</trkpt>
<trkpt lat="40.072842" lon="-105.230575">
  <ele>1586.09</ele>
  <time>2026-08-27T18:27:00Z</time>
  <course>266.03</course>
  <speed>0.0</speed>
  <fix>3d</fix>
</trkpt>
<trkpt lat="40.072842" lon="-105.230575">
  <ele>1586.09</ele>
  <time>2026-08-27T18:27:00Z</time>
  <course>11.93</course>
  <speed>0.0</speed>
  <fix>3d</fix>
</trkpt>
<trkpt lat="40.072842" lon="-105.230575">
  <ele>1586.09</ele>
  <time>2026-08-27T18:27:00Z</time>
  <course>266.03</course>
  <speed>0.0</speed>
  <fix>3d</fix>
</trkpt>
<trkpt lat="40.072842" lon="-105.230575">
  <ele>1586.09</ele>
  <time>2026-08-27T18:27:00Z</time>
  <course>11.96</course>
  <speed>0.0</speed>
  <fix>3d</fix>
</trkpt>
<trkpt lat="40.072842" lon="-105.230575">
  <ele>1586.09</ele>
  <time>2026-08-27T18:27:00Z</time>
  <course>266.03</course>
  <speed>0.0</speed>
  <fix>3d</fix>
</trkpt>
<trkpt lat="40.072842" lon="-105.230575">
  <ele>1586.09</ele>
  <time>2026-08-27T18:27:00Z</time>
  <course>11.98</course>
  <speed>0.0</speed>
  <fix>3d</fix>
</trkpt>
<trkpt lat="40.072842" lon="-105.230575">
  <ele>1586.09</ele>
  <time>2026-08-27T18:27:00Z</time>
  <course>266.03</course>
  <speed>0.0</speed>
  <fix>3d</fix>
</trkpt>
<trkpt lat="40.072842" lon="-105.230575">
  <ele>1586.09</ele>
  <time>2026-08-27T18:27:00Z</time>
  <course>12.0</course>
  <speed>0.0</speed>
  <fix>3d</fix>
</trkpt>
<trkpt lat="40.072842" lon="-105.230575">
  <ele>1586.09</ele>
  <time>2026-08-27T18:27:00Z</time>
  <course>266.03</course>
  <speed>0.0</speed>
  <fix>3d</fix>
</trkpt>
<trkpt lat="40.072842" lon="-105.230575">
  <ele>1586.09</ele>
  <time>2026-08-27T18:27:00Z</time>
  <course>12.02</course>
  <speed>0.0</speed>
  <fix>3d</fix>
</trkpt>
<trkpt lat="40.072842" lon="-105.230575">
  <ele>1586.09</ele>
  <time>2026-08-27T18:27:00Z</time>
  <course>266.03</course>
  <speed>0.0</speed>
  <fix>3d</fix>
</trkpt>
<trkpt lat="40.072842" lon="-105.230575">
  <ele>1586.09</ele>
  <time>2026-08-27T18:27:00Z</time>
  <course>12.04</course>
  <speed>0.0</speed>
  <fix>3d</fix>
</trkpt>
<trkpt lat="40.072842" lon="-105.230575">
  <ele>1586.09</ele>
  <time>2026-08-27T18:27:00Z</time>
  <course>266.03</course>
  <speed>0.0</speed>
  <fix>3d</fix>
</trkpt>
<trkpt lat="40.072842" lon="-105.230575">
  <ele>1586.09</ele>
  <time>2026-08-27T18:27:00Z</time>
  <course>12.06</course>
  <speed>0.0</speed>
  <fix>3d</fix>
</trkpt>
<trkpt lat="40.072842" lon="-105.230575">
  <ele>1586.09</ele>
  <time>2026-08-27T18:27:00Z</time>
  <course>266.03</course>
  <speed>0.0</speed>
  <fix>3d</fix>
</trkpt>
<trkpt lat="40.072842" lon="-105.230575">
  <ele>1586.09</ele>
  <time>2026-08-27T18:27:00Z</time>
  <course>12.07</course>
  <speed>0.0</speed>
  <fix>3d</fix>
</trkpt>
<trkpt lat="40.072842" lon="-105.230575">
  <ele>1586.09</ele>
  <time>2026-08-27T18:27:00Z</time>
  <course>266.03</course>
  <speed>0.0</speed>
  <fix>3d</fix>
</trkpt>
<trkpt lat="40.072842" lon="-105.230575">
  <ele>1586.09</ele>
  <time>2026-08-27T18:27:00Z</time>
  <course>12.08</course>
  <speed>0.0</speed>
  <fix>3d</fix>
</trkpt>
<trkpt lat="40.072842" lon="-105.230575">
  <ele>1586.09</ele>
  <time>2026-08-27T18:27:00Z</time>
  <course>266.03</course>
  <speed>0.0</speed>
  <fix>3d</fix>
</trkpt>
<trkpt lat="40.072842" lon="-105.230575">
  <ele>1586.09</ele>
  <time>2026-08-27T18:27:00Z</time>
  <course>12.09</course>
  <speed>0.0</speed>
  <fix>3d</fix>
</trkpt>
<trkpt lat="40.072842" lon="-105.230575">
  <ele>1586.09</ele>
  <time>2026-08-27T18:27:00Z</time>
  <course>266.03</course>
  <speed>0.0</speed>
  <fix>3d</fix>
</trkpt>
<trkpt lat="40.072842" lon="-105.230575">
  <ele>1586.09</ele>
  <time>2026-08-27T18:27:00Z</time>
  <course>12.1</course>
  <speed>0.0</speed>
  <fix>3d</fix>
</trkpt>
<trkpt lat="40.072842" lon="-105.230575">
  <ele>1586.09</ele>
  <time>2026-08-27T18:27:00Z</time>
  <course>266.03</course>
  <speed>0.0</speed>
  <fix>3d</fix>
</trkpt>
<trkpt lat="40.072842" lon="-105.230575">
  <ele>1586.09</ele>
  <time>2026-08-27T18:27:00Z</time>
  <course>12.11</course>
  <speed>0.0</speed>
  <fix>3d</fix>
</trkpt>
<trkpt lat="40.072842" lon="-105.230575">
  <ele>1586.09</ele>
  <time>2026-08-27T18:27:00Z</time>
  <course>266.03</course>
  <speed>0.0</speed>
  <fix>3d</fix>
</trkpt>
<trkpt lat="40.072842" lon="-105.230575">
  <ele>1586.09</ele>
  <time>2026-08-27T18:27:00Z</time>
  <course>12.11</course>
  <speed>0.0</speed>
  <fix>3d</fix>
</trkpt>
<trkpt lat="40.072842" lon="-105.230575">
  <ele>1586.09</ele>
  <time>2026-08-27T18:27:00Z</time>
  <course>266.03</course>
  <speed>0.0</speed>
  <fix>3d</fix>
</trkpt>
<trkpt lat="40.072842" lon="-105.230575">
  <ele>1586.09</ele>
  <time>2026-08-27T18:27:00Z</time>
  <course>12.12</course>
  <speed>0.0</speed>
  <fix>3d</fix>
</trkpt>
<trkpt lat="40.072842" lon="-105.230575">
  <ele>1586.09</ele>
  <time>2026-08-27T18:27:00Z</time>
  <course>266.03</course>
  <speed>0.0</speed>
  <fix>3d</fix>
</trkpt>
<trkpt lat="40.072842" lon="-105.230575">
  <ele>1586.09</ele>
  <time>2026-08-27T18:27:00Z</time>
  <course>12.12</course>
  <speed>0.0</speed>
  <fix>3d</fix>
</trkpt>
<trkpt lat="40.072842" lon="-105.230575">
  <ele>1586.09</ele>
  <time>2026-08-27T18:27:00Z</time>
  <course>266.03</course>
  <speed>0.0</speed>
  <fix>3d</fix>
</trkpt>
<trkpt lat="40.072842" lon="-105.230575">
  <ele>1586.09</ele>
  <time>2026-08-27T18:27:00Z</time>
  <course>12.12</course>
  <speed>0.0</speed>
  <fix>3d</fix>
</trkpt>
<trkpt lat="40.072842" lon="-105.230575">
  <ele>1586.09</ele>
  <time>2026-08-27T18:27:00Z</time>
  <course>266.03</course>
  <speed>0.0</speed>
  <fix>3d</fix>
</trkpt>
<trkpt lat="40.072842" lon="-105.230575">
  <ele>1586.09</ele>
  <time>2026-08-27T18:27:00Z</time>
  <course>12.12</course>
  <speed>0.0</speed>
  <fix>3d</fix>
</trkpt>
<trkpt lat="40.072842" lon="-105.230575">
  <ele>1586.09</ele>
  <time>2026-08-27T18:27:00Z</time>
  <course>266.03</course>
  <speed>0.0</speed>
  <fix>3d</fix>
</trkpt>
<trkpt lat="40.072842" lon="-105.230575">
  <ele>1586.09</ele>
  <time>2026-08-27T18:27:00Z</time>
  <course>12.12</course>
  <speed>0.0</speed>
  <fix>3d</fix>
</trkpt>
<trkpt lat="40.072842" lon="-105.230575">
  <ele>1586.09</ele>
  <time>2026-08-27T18:27:00Z</time>
  <course>266.03</course>
  <speed>0.0</speed>
  <fix>3d</fix>
</trkpt>
<trkpt lat="40.072842" lon="-105.230575">
  <ele>1586.09</ele>
  <time>2026-08-27T18:27:00Z</time>
  <course>12.12</course>
  <speed>0.01</speed>
  <fix>3d</fix>
</trkpt>
<trkpt lat="40.072842" lon="-105.230575">
  <ele>1586.09</ele>
  <time>2026-08-27T18:27:00Z</time>
  <course>266.03</course>
  <speed>0.0</speed>
  <fix>3d</fix>
</trkpt>
<trkpt lat="40.072842" lon="-105.230575">
  <ele>1586.09</ele>
  <time>2026-08-27T18:27:00Z</time>
  <course>12.12</course>
  <speed>0.01</speed>
  <fix>3d</fix>
</trkpt>
<trkpt lat="40.072842" lon="-105.230575">
  <ele>1586.09</ele>
  <time>2026-08-27T18:27:00Z</time>
  <course>266.03</course>
  <speed>0.0</speed>
  <fix>3d</fix>
</trkpt>
<trkpt lat="40.072842" lon="-105.230575">
  <ele>1586.09</ele>
  <time>2026-08-27T18:27:00Z</time>
  <course>12.12</course>
  <speed>0.01</speed>
  <fix>3d</fix>
</trkpt>
<trkpt lat="40.072842" lon="-105.230575">
  <ele>1586.09</ele>
  <time>2026-08-27T18:27:00Z</time>
  <course>266.03</course>
  <speed>0.0</speed>
  <fix>3d</fix>
</trkpt>
<trkpt lat="40.072842" lon="-105.230575">
  <ele>1586.09</ele>
  <time>2026-08-27T18:27:00Z</time>
  <course>12.12</course>
  <speed>0.01</speed>
  <fix>3d</fix>
</trkpt>
<trkpt lat="40.072842" lon="-105.230575">
  <ele>1586.09</ele>
  <time>2026-08-27T18:27:00Z</time>
  <course>266.03</course>
  <speed>0.0</speed>
  <fix>3d</fix>
</trkpt>
<trkpt lat="40.072842" lon="-105.230575">
  <ele>1586.09</ele>
  <time>2026-08-27T18:27:00Z</time>
  <course>12.11</course>
  <speed>0.01</speed>
  <fix>3d</fix>
</trkpt>
<trkpt lat="40.072842" lon="-105.230575">
  <ele>1586.09</ele>
  <time>2026-08-27T18:27:00Z</time>
  <course>266.03</course>
  <speed>0.0</speed>
  <fix>3d</fix>
</trkpt>
<trkpt lat="40.072842" lon="-105.230575">
  <ele>1586.09</ele>
  <time>2026-08-27T18:27:00Z</time>
  <course>12.11</course>
  <speed>0.01</speed>
  <fix>3d</fix>
</trkpt>
<trkpt lat="40.072842" lon="-105.230575">
  <ele>1586.09</ele>
  <time>2026-08-27T18:27:00Z</time>
  <course>266.03</course>
  <speed>0.0</speed>
  <fix>3d</fix>
</trkpt>
<trkpt lat="40.072842" lon="-105.230575">
  <ele>1586.09</ele>
  <time>2026-08-27T18:27:00Z</time>
  <course>12.11</course>
  <speed>0.01</speed>
  <fix>3d</fix>
</trkpt>
<trkpt lat="40.072842" lon="-105.230575">
  <ele>1586.09</ele>
  <time>2026-08-27T18:27:00Z</time>
  <course>266.03</course>
  <speed>0.0</speed>
  <fix>3d</fix>
</trkpt>
<trkpt lat="40.072842" lon="-105.230575">
  <ele>1586.09</ele>
  <time>2026-08-27T18:27:00Z</time>
  <course>12.1</course>
  <speed>0.01</speed>
  <fix>3d</fix>
</trkpt>
<trkpt lat="40.072842" lon="-105.230575">
  <ele>1586.09</ele>
  <time>2026-08-27T18:27:00Z</time>
  <course>266.03</course>
  <speed>0.0</speed>
  <fix>3d</fix>
</trkpt>
<trkpt lat="40.072842" lon="-105.230575">
  <ele>1586.09</ele>
  <time>2026-08-27T18:27:00Z</time>
  <course>12.1</course>
  <speed>0.01</speed>
  <fix>3d</fix>
</trkpt>
<trkpt lat="40.072842" lon="-105.230575">
  <ele>1586.09</ele>
  <time>2026-08-27T18:27:00Z</time>
  <course>266.03</course>
  <speed>0.0</speed>
  <fix>3d</fix>
</trkpt>
<trkpt lat="40.072842" lon="-105.230575">
  <ele>1586.09</ele>
  <time>2026-08-27T18:27:00Z</time>
  <course>12.09</course>
  <speed>0.01</speed>
  <fix>3d</fix>
</trkpt>
<trkpt lat="40.072842" lon="-105.230575">
  <ele>1586.09</ele>
  <time>2026-08-27T18:27:00Z</time>
  <course>266.03</course>
  <speed>0.0</speed>
  <fix>3d</fix>
</trkpt>
<trkpt lat="40.072842" lon="-105.230575">
  <ele>1586.09</ele>
  <time>2026-08-27T18:27:00Z</time>
  <course>12.09</course>
  <speed>0.01</speed>
  <fix>3d</fix>
</trkpt>
<trkpt lat="40.072842" lon="-105.230575">
  <ele>1586.09</ele>
  <time>2026-08-27T18:27:00Z</time>
  <course>266.03</course>
  <speed>0.0</speed>
  <fix>3d</fix>
</trkpt>
<trkpt lat="40.072842" lon="-105.230575">
  <ele>1586.09</ele>
  <time>2026-08-27T18:27:00Z</time>
  <course>12.08</course>
  <speed>0.01414213562373095</speed>
  <fix>3d</fix>
</trkpt>
<trkpt lat="40.072842" lon="-105.230575">
  <ele>1586.09</ele>
  <time>2026-08-27T18:27:00Z</time>
  <course>266.03</course>
  <speed>0.0</speed>
  <fix>3d</fix>
</trkpt>
<trkpt lat="40.072842" lon="-105.230575">
  <ele>1586.09</ele>
  <time>2026-08-27T18:27:00Z</time>
  <course>12.07</course>
  <speed>0.01414213562373095</speed>
  <fix>3d</fix>
</trkpt>
<trkpt lat="40.072842" lon="-105.230575">
  <ele>1586.09</ele>
  <time>2026-08-27T18:27:00Z</time>
  <course>266.03</course>
  <speed>0.0</speed>
  <fix>3d</fix>
</trkpt>
<trkpt lat="40.072842" lon="-105.230575">
  <ele>1586.09</ele>
  <time>2026-08-27T18:27:00Z</time>
  <course>12.07</course>
  <speed>0.01414213562373095</speed>
  <fix>3d</fix>
</trkpt>
<trkpt lat="40.072842" lon="-105.230575">
  <ele>1586.09</ele>
  <time>2026-08-27T18:27:00Z</time>
  <course>266.03</course>
  <speed>0.0</speed>
  <fix>3d</fix>
</trkpt>
<trkpt lat="40.072842" lon="-105.230575">
  <ele>1586.09</ele>
  <time>2026-08-27T18:27:00Z</time>
  <course>12.06</course>
  <speed>0.01414213562373095</speed>
  <fix>3d</fix>
</trkpt>
<trkpt lat="40.072842" lon="-105.230575">
  <ele>1586.09</ele>
  <time>2026-08-27T18:27:00Z</time>
  <course>266.03</course>
  <speed>0.0</speed>
  <fix>3d</fix>
</trkpt>
<trkpt lat="40.072842" lon="-105.230575">
  <ele>1586.09</ele>
  <time>2026-08-27T18:27:00Z</time>
  <course>12.05</course>
  <speed>0.01414213562373095</speed>
  <fix>3d</fix>
</trkpt>
<trkpt lat="40.072842" lon="-105.230575">
  <ele>1586.09</ele>
  <time>2026-08-27T18:27:00Z</time>
  <course>266.03</course>
  <speed>0.0</speed>
  <fix>3d</fix>
</trkpt>
<trkpt lat="40.072842" lon="-105.230575">
  <ele>1586.09</ele>
  <time>2026-08-27T18:27:00Z</time>
  <course>12.05</course>
  <speed>0.01414213562373095</speed>
  <fix>3d</fix>
</trkpt>
<trkpt lat="40.072842" lon="-105.230575">
  <ele>1586.09</ele>
  <time>2026-08-27T18:27:00Z</time>
  <course>266.03</course>
  <speed>0.0</speed>
  <fix>3d</fix>
</trkpt>
<trkpt lat="40.072842" lon="-105.230575">
  <ele>1586.09</ele>
  <time>2026-08-27T18:27:00Z</time>
  <course>12.04</course>
  <speed>0.01414213562373095</speed>
  <fix>3d</fix>
</trkpt>
<trkpt lat="40.072842" lon="-105.230575">
  <ele>1586.09</ele>
  <time>2026-08-27T18:27:00Z</time>
  <course>266.03</course>
  <speed>0.0</speed>
  <fix>3d</fix>
</trkpt>
<trkpt lat="40.072842" lon="-105.230575">
  <ele>1586.09</ele>
  <time>2026-08-27T18:27:00Z</time>
  <course>12.03</course>
  <speed>0.01414213562373095</speed>
  <fix>3d</fix>
</trkpt>
<trkpt lat="40.072842" lon="-105.230575">
  <ele>1586.09</ele>
  <time>2026-08-27T18:27:00Z</time>
  <course>266.03</course>
  <speed>0.0</speed>
  <fix>3d</fix>
</trkpt>
<trkpt lat="40.072842" lon="-105.230575">
  <ele>1586.09</ele>
  <time>2026-08-27T18:27:00Z</time>
  <course>12.03</course>
  <speed>0.01414213562373095</speed>
  <fix>3d</fix>
</trkpt>
<trkpt lat="40.072842" lon="-105.230575">
  <ele>1586.09</ele>
  <time>2026-08-27T18:27:00Z</time>
  <course>266.03</course>
  <speed>0.0</speed>
  <fix>3d</fix>
</trkpt>
<trkpt lat="40.072842" lon="-105.230575">
  <ele>1586.09</ele>
  <time>2026-08-27T18:27:00Z</time>
  <course>12.02</course>
  <speed>0.01414213562373095</speed>
  <fix>3d</fix>
</trkpt>
<trkpt lat="40.072842" lon="-105.230575">
  <ele>1586.09</ele>
  <time>2026-08-27T18:27:00Z</time>
  <course>266.03</course>
  <speed>0.0</speed>
  <fix>3d</fix>
</trkpt>
<trkpt lat="40.072842" lon="-105.230575">
  <ele>1586.09</ele>
  <time>2026-08-27T18:27:00Z</time>
  <course>12.01</course>
  <speed>0.01414213562373095</speed>
  <fix>3d</fix>
</trkpt>
<trkpt lat="40.072842" lon="-105.230575">
  <ele>1586.09</ele>
  <time>2026-08-27T18:27:00Z</time>
  <course>266.03</course>
  <speed>0.0</speed>
  <fix>3d</fix>
</trkpt>
<trkpt lat="40.072842" lon="-105.230575">
  <ele>1586.09</ele>
  <time>2026-08-27T18:27:00Z</time>
  <course>12.0</course>
  <speed>0.01414213562373095</speed>
  <fix>3d</fix>
</trkpt>
<trkpt lat="40.072842" lon="-105.230575">
  <ele>1586.09</ele>
  <time>2026-08-27T18:27:00Z</time>
  <course>266.03</course>
  <speed>0.0</speed>
  <fix>3d</fix>
</trkpt>
<trkpt lat="40.072842" lon="-105.230575">
  <ele>1586.09</ele>
  <time>2026-08-27T18:27:00Z</time>
  <course>11.99</course>
  <speed>0.01414213562373095</speed>
  <fix>3d</fix>
</trkpt>
<trkpt lat="40.072842" lon="-105.230575">
  <ele>1586.09</ele>
  <time>2026-08-27T18:27:00Z</time>
  <course>266.03</course>
  <speed>0.0</speed>
  <fix>3d</fix>
</trkpt>
<trkpt lat="40.072842" lon="-105.230575">
  <ele>1586.09</ele>
  <time>2026-08-27T18:27:00Z</time>
  <course>11.99</course>
  <speed>0.01414213562373095</speed>
  <fix>3d</fix>
</trkpt>
<trkpt lat="40.072842" lon="-105.230575">
  <ele>1586.09</ele>
  <time>2026-08-27T18:27:00Z</time>
  <course>266.03</course>
  <speed>0.0</speed>
  <fix>3d</fix>
</trkpt>
<trkpt lat="40.072842" lon="-105.230575">
  <ele>1586.09</ele>
  <time>2026-08-27T18:27:00Z</time>
  <course>11.98</course>
  <speed>0.01414213562373095</speed>
  <fix>3d</fix>
</trkpt>
<trkpt lat="40.072842" lon="-105.230575">
  <ele>1586.09</ele>
  <time>2026-08-27T18:27:00Z</time>
  <course>266.03</course>
  <speed>0.0</speed>
  <fix>3d</fix>
</trkpt>
<trkpt lat="40.072842" lon="-105.230575">
  <ele>1586.09</ele>
  <time>2026-08-27T18:27:00Z</time>
  <course>11.97</course>
  <speed>0.01414213562373095</speed>
  <fix>3d</fix>
</trkpt>
<trkpt lat="40.072842" lon="-105.230575">
  <ele>1586.09</ele>
  <time>2026-08-27T18:27:00Z</time>
  <course>266.03</course>
  <speed>0.0</speed>
  <fix>3d</fix>
</trkpt>
<trkpt lat="40.072842" lon="-105.230575">
  <ele>1586.09</ele>
  <time>2026-08-27T18:27:00Z</time>
  <course>11.96</course>
  <speed>0.022360679774997897</speed>
  <fix>3d</fix>
</trkpt>
<trkpt lat="40.072842" lon="-105.230575">
  <ele>1586.09</ele>
  <time>2026-08-27T18:27:00Z</time>
  <course>266.03</course>
  <speed>0.0</speed>
  <fix>3d</fix>
</trkpt>
<trkpt lat="40.072842" lon="-105.230575">
  <ele>1586.09</ele>
  <time>2026-08-27T18:27:00Z</time>
  <course>11.95</course>
  <speed>0.022360679774997897</speed>
  <fix>3d</fix>
</trkpt>
<trkpt lat="40.072842" lon="-105.230575">
  <ele>1586.09</ele>
  <time>2026-08-27T18:27:00Z</time>
  <course>266.03</course>
  <speed>0.0</speed>
  <fix>3d</fix>
</trkpt>
<trkpt lat="40.072842" lon="-105.230575">
  <ele>1586.09</ele>
  <time>2026-08-27T18:27:00Z</time>
  <course>11.95</course>
  <speed>0.022360679774997897</speed>
  <fix>3d</fix>
</trkpt>
<trkpt lat="40.072842" lon="-105.230575">
  <ele>1586.09</ele>
  <time>2026-08-27T18:27:00Z</time>
  <course>266.03</course>
  <speed>0.0</speed>
  <fix>3d</fix>
</trkpt>
<trkpt lat="40.072842" lon="-105.230575">
  <ele>1586.09</ele>
  <time>2026-08-27T18:27:00Z</time>
  <course>11.94</course>
  <speed>0.022360679774997897</speed>
  <fix>3d</fix>
</trkpt>
<trkpt lat="40.072842" lon="-105.230575">
  <ele>1586.09</ele>
  <time>2026-08-27T18:27:00Z</time>
  <course>266.03</course>
  <speed>0.0</speed>
  <fix>3d</fix>
</trkpt>
<trkpt lat="40.072842" lon="-105.230575">
  <ele>1586.09</ele>
  <time>2026-08-27T18:27:00Z</time>
  <course>11.93</course>
  <speed>0.022360679774997897</speed>
  <fix>3d</fix>
</trkpt>
<trkpt lat="40.072842" lon="-105.230575">
  <ele>1586.09</ele>
  <time>2026-08-27T18:27:00Z</time>
  <course>266.03</course>
  <speed>0.0</speed>
  <fix>3d</fix>
</trkpt>
<trkpt lat="40.072842" lon="-105.230575">
  <ele>1586.09</ele>
  <time>2026-08-27T18:27:00Z</time>
  <course>11.92</course>
  <speed>0.022360679774997897</speed>
  <fix>3d</fix>
</trkpt>
<trkpt lat="40.072842" lon="-105.230575">
  <ele>1586.09</ele>
  <time>2026-08-27T18:27:00Z</time>
  <course>266.03</course>
  <speed>0.0</speed>
  <fix>3d</fix>
</trkpt>
<trkpt lat="40.072842" lon="-105.230575">
  <ele>1586.09</ele>
  <time>2026-08-27T18:27:00Z</time>
  <course>11.91</course>
  <speed>0.022360679774997897</speed>
  <fix>3d</fix>
</trkpt>
<trkpt lat="40.072842" lon="-105.230575">
  <ele>1586.09</ele>
  <time>2026-08-27T18:27:00Z</time>
  <course>266.03</course>
  <speed>0.0</speed>
  <fix>3d</fix>
</trkpt>
<trkpt lat="40.072842" lon="-105.230575">
  <ele>1586.09</ele>
  <time>2026-08-27T18:27:00Z</time>
  <course>11.91</course>
  <speed>0.022360679774997897</speed>
  <fix>3d</fix>
</trkpt>
<trkpt lat="40.072842" lon="-105.230575">
  <ele>1586.09</ele>
  <time>2026-08-27T18:27:00Z</time>
  <course>266.03</course>
  <speed>0.0</speed>
  <fix>3d</fix>
</trkpt>
<trkpt lat="40.072842" lon="-105.230575">
  <ele>1586.09</ele>
  <time>2026-08-27T18:27:00Z</time>
  <course>11.9</course>
  <speed>0.022360679774997897</speed>
  <fix>3d</fix>
</trkpt>
<trkpt lat="40.072842" lon="-105.230575">
  <ele>1586.09</ele>
  <time>2026-08-27T18:27:00Z</time>
  <course>266.03</course>
  <speed>0.0</speed>
  <fix>3d</fix>
</trkpt>
<trkpt lat="40.072842" lon="-105.230575">
  <ele>1586.09</ele>
  <time>2026-08-27T18:27:00Z</time>
  <course>11.89</course>
  <speed>0.022360679774997897</speed>
  <fix>3d</fix>
</trkpt>
<trkpt lat="40.072842" lon="-105.230575">
  <ele>1586.09</ele>
  <time>2026-08-27T18:27:00Z</time>
  <course>266.03</course>
  <speed>0.0</speed>
  <fix>3d</fix>
</trkpt>
<trkpt lat="40.072842" lon="-105.230575">
  <ele>1586.09</ele>
  <time>2026-08-27T18:27:00Z</time>
  <course>11.88</course>
  <speed>0.022360679774997897</speed>
  <fix>3d</fix>
</trkpt>
<trkpt lat="40.072842" lon="-105.230575">
  <ele>1586.09</ele>
  <time>2026-08-27T18:27:00Z</time>
  <course>266.03</course>
  <speed>0.0</speed>
  <fix>3d</fix>
</trkpt>
<trkpt lat="40.072842" lon="-105.230575">
  <ele>1586.09</ele>
  <time>2026-08-27T18:27:00Z</time>
  <course>11.87</course>
  <speed>0.022360679774997897</speed>
  <fix>3d</fix>
</trkpt>
<trkpt lat="40.072842" lon="-105.230575">
  <ele>1586.09</ele>
  <time>2026-08-27T18:27:00Z</time>
  <course>266.03</course>
  <speed>0.0</speed>
  <fix>3d</fix>
</trkpt>
<trkpt lat="40.072842" lon="-105.230575">
  <ele>1586.09</ele>
  <time>2026-08-27T18:27:00Z</time>
  <course>11.86</course>
  <speed>0.022360679774997897</speed>
  <fix>3d</fix>
</trkpt>
<trkpt lat="40.072842" lon="-105.230575">
  <ele>1586.09</ele>
  <time>2026-08-27T18:27:00Z</time>
  <course>266.03</course>
  <speed>0.0</speed>
  <fix>3d</fix>
</trkpt>
<trkpt lat="40.072842" lon="-105.230575">
  <ele>1586.09</ele>
  <time>2026-08-27T18:27:00Z</time>
  <course>11.86</course>
  <speed>0.022360679774997897</speed>
  <fix>3d</fix>
</trkpt>
<trkpt lat="40.072842" lon="-105.230575">
  <ele>1586.09</ele>
  <time>2026-08-27T18:27:00Z</time>
  <course>266.03</course>
  <speed>0.0</speed>
  <fix>3d</fix>
</trkpt>
<trkpt lat="40.072842" lon="-105.230575">
  <ele>1586.09</ele>
  <time>2026-08-27T18:27:00Z</time>
  <course>11.85</course>
  <speed>0.022360679774997897</speed>
  <fix>3d</fix>
</trkpt>
<trkpt lat="40.072842" lon="-105.230575">
  <ele>1586.09</ele>
  <time>2026-08-27T18:27:00Z</time>
  <course>266.03</course>
  <speed>0.0</speed>
  <fix>3d</fix>
</trkpt>
<trkpt lat="40.072842" lon="-105.230575">
  <ele>1586.09</ele>
  <time>2026-08-27T18:27:00Z</time>
  <course>11.84</course>
  <speed>0.022360679774997897</speed>
  <fix>3d</fix>
</trkpt>
<trkpt lat="40.072842" lon="-105.230575">
  <ele>1586.09</ele>
  <time>2026-08-27T18:27:00Z</time>
  <course>266.03</course>
  <speed>0.0</speed>
  <fix>3d</fix>
</trkpt>
<trkpt lat="40.072842" lon="-105.230575">
  <ele>1586.09</ele>
  <time>2026-08-27T18:27:00Z</time>
  <course>11.83</course>
  <speed>0.022360679774997897</speed>
  <fix>3d</fix>
</trkpt>
<trkpt lat="40.072842" lon="-105.230575">
  <ele>1586.09</ele>
  <time>2026-08-27T18:27:00Z</time>
  <course>266.03</course>
  <speed>0.0</speed>
  <fix>3d</fix>
</trkpt>
<trkpt lat="40.072842" lon="-105.230575">
  <ele>1586.09</ele>
  <time>2026-08-27T18:27:00Z</time>
  <course>11.82</course>
  <speed>0.0282842712474619</speed>
  <fix>3d</fix>
</trkpt>
<trkpt lat="40.072842" lon="-105.230575">
  <ele>1586.09</ele>
  <time>2026-08-27T18:27:00Z</time>
  <course>266.03</course>
  <speed>0.0</speed>
  <fix>3d</fix>
</trkpt>
<trkpt lat="40.072842" lon="-105.230575">
  <ele>1586.09</ele>
  <time>2026-08-27T18:27:00Z</time>
  <course>11.82</course>
  <speed>0.0282842712474619</speed>
  <fix>3d</fix>
</trkpt>
<trkpt lat="40.072842" lon="-105.230575">
  <ele>1586.09</ele>
  <time>2026-08-27T18:27:00Z</time>
  <course>266.03</course>
  <speed>0.0</speed>
  <fix>3d</fix>
</trkpt>
<trkpt lat="40.072842" lon="-105.230575">
  <ele>1586.09</ele>
  <time>2026-08-27T18:27:00Z</time>
  <course>11.81</course>
  <speed>0.0282842712474619</speed>
  <fix>3d</fix>
</trkpt>
<trkpt lat="40.072842" lon="-105.230575">
  <ele>1586.09</ele>
  <time>2026-08-27T18:27:00Z</time>
  <course>266.03</course>
  <speed>0.0</speed>
  <fix>3d</fix>
</trkpt>
<trkpt lat="40.072842" lon="-105.230575">
  <ele>1586.09</ele>
  <time>2026-08-27T18:27:00Z</time>
  <course>11.8</course>
  <speed>0.0282842712474619</speed>
  <fix>3d</fix>
</trkpt>
<trkpt lat="40.072842" lon="-105.230575">
  <ele>1586.09</ele>
  <time>2026-08-27T18:27:00Z</time>
  <course>266.03</course>
  <speed>0.0</speed>
  <fix>3d</fix>
</trkpt>
<trkpt lat="40.072842" lon="-105.230575">
  <ele>1586.09</ele>
  <time>2026-08-27T18:27:00Z</time>
  <course>11.79</course>
  <speed>0.0282842712474619</speed>
  <fix>3d</fix>
</trkpt>
<trkpt lat="40.072842" lon="-105.230575">
  <ele>1586.09</ele>
  <time>2026-08-27T18:27:00Z</time>
  <course>266.03</course>
  <speed>0.0</speed>
  <fix>3d</fix>
</trkpt>
<trkpt lat="40.072842" lon="-105.230575">
  <ele>1586.09</ele>
  <time>2026-08-27T18:27:00Z</time>
  <course>11.78</course>
  <speed>0.0282842712474619</speed>
  <fix>3d</fix>
</trkpt>
<trkpt lat="40.072842" lon="-105.230575">
  <ele>1586.09</ele>
  <time>2026-08-27T18:27:00Z</time>
  <course>266.03</course>
  <speed>0.0</speed>
  <fix>3d</fix>
</trkpt>
<trkpt lat="40.072842" lon="-105.230575">
  <ele>1586.09</ele>
  <time>2026-08-27T18:27:00Z</time>
  <course>11.78</course>
  <speed>0.0282842712474619</speed>
  <fix>3d</fix>
</trkpt>
<trkpt lat="40.072842" lon="-105.230575">
  <ele>1586.09</ele>
  <time>2026-08-27T18:27:00Z</time>
  <course>266.03</course>
  <speed>0.0</speed>
  <fix>3d</fix>
</trkpt>
<trkpt lat="40.072842" lon="-105.230575">
  <ele>1586.09</ele>
  <time>2026-08-27T18:27:00Z</time>
  <course>11.77</course>
  <speed>0.0282842712474619</speed>
  <fix>3d</fix>
</trkpt>
<trkpt lat="40.072842" lon="-105.230575">
  <ele>1586.09</ele>
  <time>2026-08-27T18:27:00Z</time>
  <course>266.03</course>
  <speed>0.0</speed>
  <fix>3d</fix>
</trkpt>
<trkpt lat="40.072842" lon="-105.230575">
  <ele>1586.09</ele>
  <time>2026-08-27T18:27:00Z</time>
  <course>11.76</course>
  <speed>0.0282842712474619</speed>
  <fix>3d</fix>
</trkpt>
<trkpt lat="40.072842" lon="-105.230575">
  <ele>1586.09</ele>
  <time>2026-08-27T18:27:00Z</time>
  <course>266.03</course>
  <speed>0.0</speed>
  <fix>3d</fix>
</trkpt>
<trkpt lat="40.072842" lon="-105.230575">
  <ele>1586.09</ele>
  <time>2026-08-27T18:27:00Z</time>
  <course>11.76</course>
  <speed>0.0282842712474619</speed>
  <fix>3d</fix>
</trkpt>
<trkpt lat="40.072842" lon="-105.230575">
  <ele>1586.09</ele>
  <time>2026-08-27T18:27:00Z</time>
  <course>266.03</course>
  <speed>0.0</speed>
  <fix>3d</fix>
</trkpt>
<trkpt lat="40.072842" lon="-105.230575">
  <ele>1586.09</ele>
  <time>2026-08-27T18:27:00Z</time>
  <course>11.75</course>
  <speed>0.0282842712474619</speed>
  <fix>3d</fix>
</trkpt>
<trkpt lat="40.072842" lon="-105.230575">
  <ele>1586.09</ele>
  <time>2026-08-27T18:27:00Z</time>
  <course>266.03</course>
  <speed>0.0</speed>
  <fix>3d</fix>
</trkpt>
<trkpt lat="40.072842" lon="-105.230575">
  <ele>1586.09</ele>
  <time>2026-08-27T18:27:00Z</time>
  <course>11.74</course>
  <speed>0.03605551275463989</speed>
  <fix>3d</fix>
</trkpt>
<trkpt lat="40.072842" lon="-105.230575">
  <ele>1586.09</ele>
  <time>2026-08-27T18:27:00Z</time>
  <course>266.03</course>
  <speed>0.0</speed>
  <fix>3d</fix>
</trkpt>
<trkpt lat="40.072842" lon="-105.230575">
  <ele>1586.09</ele>
  <time>2026-08-27T18:27:00Z</time>
  <course>11.73</course>
  <speed>0.03605551275463989</speed>
  <fix>3d</fix>
</trkpt>
<trkpt lat="40.072842" lon="-105.230575">
  <ele>1586.09</ele>
  <time>2026-08-27T18:27:00Z</time>
  <course>266.03</course>
  <speed>0.0</speed>
  <fix>3d</fix>
</trkpt>
<trkpt lat="40.072842" lon="-105.230575">
  <ele>1586.09</ele>
  <time>2026-08-27T18:27:00Z</time>
  <course>11.73</course>
  <speed>0.03605551275463989</speed>
  <fix>3d</fix>
</trkpt>
<trkpt lat="40.072842" lon="-105.230575">
  <ele>1586.09</ele>
  <time>2026-08-27T18:27:00Z</time>
  <course>266.03</course>
  <speed>0.0</speed>
  <fix>3d</fix>
</trkpt>
<trkpt lat="40.072842" lon="-105.230575">
  <ele>1586.09</ele>
  <time>2026-08-27T18:27:00Z</time>
  <course>11.72</course>
  <speed>0.03605551275463989</speed>
  <fix>3d</fix>
</trkpt>
<trkpt lat="40.072842" lon="-105.230575">
  <ele>1586.09</ele>
  <time>2026-08-27T18:27:00Z</time>
  <course>266.03</course>
  <speed>0.0</speed>
  <fix>3d</fix>
</trkpt>
<trkpt lat="40.072842" lon="-105.230575">
  <ele>1586.09</ele>
  <time>2026-08-27T18:27:00Z</time>
  <course>11.71</course>
  <speed>0.03605551275463989</speed>
  <fix>3d</fix>
</trkpt>
<trkpt lat="40.072842" lon="-105.230575">
  <ele>1586.09</ele>
  <time>2026-08-27T18:27:00Z</time>
  <course>266.03</course>
  <speed>0.0</speed>
  <fix>3d</fix>
</trkpt>
<trkpt lat="40.072842" lon="-105.230575">
  <ele>1586.09</ele>
  <time>2026-08-27T18:27:00Z</time>
  <course>11.7</course>
  <speed>0.03605551275463989</speed>
  <fix>3d</fix>
</trkpt>
<trkpt lat="40.072842" lon="-105.230575">
  <ele>1586.09</ele>
  <time>2026-08-27T18:27:00Z</time>
  <course>266.03</course>
  <speed>0.0</speed>
  <fix>3d</fix>
</trkpt>
<trkpt lat="40.072842" lon="-105.230575">
  <ele>1586.09</ele>
  <time>2026-08-27T18:27:00Z</time>
  <course>11.69</course>
  <speed>0.03605551275463989</speed>
  <fix>3d</fix>
</trkpt>
<trkpt lat="40.072842" lon="-105.230575">
  <ele>1586.09</ele>
  <time>2026-08-27T18:27:00Z</time>
  <course>266.03</course>
  <speed>0.0</speed>
  <fix>3d</fix>
</trkpt>
<trkpt lat="40.072842" lon="-105.230575">
  <ele>1586.09</ele>
  <time>2026-08-27T18:27:00Z</time>
  <course>11.69</course>
  <speed>0.03605551275463989</speed>
  <fix>3d</fix>
</trkpt>
<trkpt lat="40.072842" lon="-105.230575">
  <ele>1586.09</ele>
  <time>2026-08-27T18:27:00Z</time>
  <course>266.03</course>
  <speed>0.0</speed>
  <fix>3d</fix>
</trkpt>
<trkpt lat="40.072842" lon="-105.230575">
  <ele>1586.09</ele>
  <time>2026-08-27T18:27:00Z</time>
  <course>11.68</course>
  <speed>0.03605551275463989</speed>
  <fix>3d</fix>
</trkpt>
<trkpt lat="40.072842" lon="-105.230575">
  <ele>1586.09</ele>
  <time>2026-08-27T18:27:00Z</time>
  <course>266.03</course>
  <speed>0.0</speed>
  <fix>3d</fix>
</trkpt>
<trkpt lat="40.072842" lon="-105.230575">
  <ele>1586.09</ele>
  <time>2026-08-27T18:27:00Z</time>
  <course>11.67</course>
  <speed>0.03605551275463989</speed>
  <fix>3d</fix>
</trkpt>
<trkpt lat="40.072842" lon="-105.230575">
  <ele>1586.09</ele>
  <time>2026-08-27T18:27:00Z</time>
  <course>266.03</course>
  <speed>0.0</speed>
  <fix>3d</fix>
</trkpt>
<trkpt lat="40.072842" lon="-105.230575">
  <ele>1586.09</ele>
  <time>2026-08-27T18:27:00Z</time>
  <course>11.67</course>
  <speed>0.03605551275463989</speed>
  <fix>3d</fix>
</trkpt>
<trkpt lat="40.072842" lon="-105.230575">
  <ele>1586.09</ele>
  <time>2026-08-27T18:27:00Z</time>
  <course>266.03</course>
  <speed>0.0</speed>
  <fix>3d</fix>
</trkpt>
<trkpt lat="40.072842" lon="-105.230575">
  <ele>1586.09</ele>
  <time>2026-08-27T18:27:00Z</time>
  <course>11.66</course>
  <speed>0.03605551275463989</speed>
  <fix>3d</fix>
</trkpt>
<trkpt lat="40.072842" lon="-105.230575">
  <ele>1586.09</ele>
  <time>2026-08-27T18:27:00Z</time>
  <course>266.03</course>
  <speed>0.0</speed>
  <fix>3d</fix>
</trkpt>
<trkpt lat="40.072842" lon="-105.230575">
  <ele>1586.09</ele>
  <time>2026-08-27T18:27:00Z</time>
  <course>11.65</course>
  <speed>0.03605551275463989</speed>
  <fix>3d</fix>
</trkpt>
<trkpt lat="40.072842" lon="-105.230575">
  <ele>1586.09</ele>
  <time>2026-08-27T18:27:00Z</time>
  <course>266.03</course>
  <speed>0.0</speed>
  <fix>3d</fix>
</trkpt>
<trkpt lat="40.072842" lon="-105.230575">
  <ele>1586.09</ele>
  <time>2026-08-27T18:27:00Z</time>
  <course>11.65</course>
  <speed>0.03605551275463989</speed>
  <fix>3d</fix>
</trkpt>
<trkpt lat="40.072842" lon="-105.230575">
  <ele>1586.09</ele>
  <time>2026-08-27T18:27:00Z</time>
  <course>266.03</course>
  <speed>0.0</speed>
  <fix>3d</fix>
</trkpt>
<trkpt lat="40.072842" lon="-105.230575">
  <ele>1586.09</ele>
  <time>2026-08-27T18:27:00Z</time>
  <course>11.64</course>
  <speed>0.03605551275463989</speed>
  <fix>3d</fix>
</trkpt>
<trkpt lat="40.072842" lon="-105.230575">
  <ele>1586.09</ele>
  <time>2026-08-27T18:27:00Z</time>
  <course>266.03</course>
  <speed>0.0</speed>
  <fix>3d</fix>
</trkpt>
<trkpt lat="40.072842" lon="-105.230575">
  <ele>1586.09</ele>
  <time>2026-08-27T18:27:00Z</time>
  <course>11.63</course>
  <speed>0.03605551275463989</speed>
  <fix>3d</fix>
</trkpt>
<trkpt lat="40.072842" lon="-105.230575">
  <ele>1586.09</ele>
  <time>2026-08-27T18:27:00Z</time>
  <course>266.03</course>
  <speed>0.0</speed>
  <fix>3d</fix>
</trkpt>
<trkpt lat="40.072842" lon="-105.230575">
  <ele>1586.09</ele>
  <time>2026-08-27T18:27:00Z</time>
  <course>11.62</course>
  <speed>0.03605551275463989</speed>
  <fix>3d</fix>
</trkpt>
<trkpt lat="40.072842" lon="-105.230575">
  <ele>1586.09</ele>
  <time>2026-08-27T18:27:00Z</time>
  <course>266.03</course>
  <speed>0.0</speed>
  <fix>3d</fix>
</trkpt>
<trkpt lat="40.072842" lon="-105.230575">
  <ele>1586.09</ele>
  <time>2026-08-27T18:27:00Z</time>
  <course>11.62</course>
  <speed>0.03605551275463989</speed>
  <fix>3d</fix>
</trkpt>
<trkpt lat="40.072842" lon="-105.230575">
  <ele>1586.09</ele>
  <time>2026-08-27T18:27:00Z</time>
  <course>266.03</course>
  <speed>0.0</speed>
  <fix>3d</fix>
</trkpt>
<trkpt lat="40.072842" lon="-105.230575">
  <ele>1586.09</ele>
  <time>2026-08-27T18:27:00Z</time>
  <course>11.61</course>
  <speed>0.03605551275463989</speed>
  <fix>3d</fix>
</trkpt>
<trkpt lat="40.072842" lon="-105.230575">
  <ele>1586.09</ele>
  <time>2026-08-27T18:27:00Z</time>
  <course>266.03</course>
  <speed>0.0</speed>
  <fix>3d</fix>
</trkpt>
<trkpt lat="40.072842" lon="-105.230575">
  <ele>1586.09</ele>
  <time>2026-08-27T18:27:00Z</time>
  <course>11.61</course>
  <speed>0.03605551275463989</speed>
  <fix>3d</fix>
</trkpt>
<trkpt lat="40.072842" lon="-105.230575">
  <ele>1586.09</ele>
  <time>2026-08-27T18:27:00Z</time>
  <course>266.03</course>
  <speed>0.0</speed>
  <fix>3d</fix>
</trkpt>
<trkpt lat="40.072842" lon="-105.230575">
  <ele>1586.09</ele>
  <time>2026-08-27T18:27:00Z</time>
  <course>11.6</course>
  <speed>0.03605551275463989</speed>
  <fix>3d</fix>
</trkpt>
<trkpt lat="40.072842" lon="-105.230575">
  <ele>1586.09</ele>
  <time>2026-08-27T18:27:00Z</time>
  <course>266.03</course>
  <speed>0.0</speed>
  <fix>3d</fix>
</trkpt>
<trkpt lat="40.072842" lon="-105.230575">
  <ele>1586.09</ele>
  <time>2026-08-27T18:27:00Z</time>
  <course>11.59</course>
  <speed>0.03605551275463989</speed>
  <fix>3d</fix>
</trkpt>
<trkpt lat="40.072842" lon="-105.230575">
  <ele>1586.09</ele>
  <time>2026-08-27T18:27:00Z</time>
  <course>266.03</course>
  <speed>0.0</speed>
  <fix>3d</fix>
</trkpt>
<trkpt lat="40.072842" lon="-105.230575">
  <ele>1586.09</ele>
  <time>2026-08-27T18:27:00Z</time>
  <course>11.59</course>
  <speed>0.03605551275463989</speed>
  <fix>3d</fix>
</trkpt>
<trkpt lat="40.072842" lon="-105.230575">
  <ele>1586.09</ele>
  <time>2026-08-27T18:27:00Z</time>
  <course>266.03</course>
  <speed>0.0</speed>
  <fix>3d</fix>
</trkpt>
<trkpt lat="40.072842" lon="-105.230575">
  <ele>1586.09</ele>
  <time>2026-08-27T18:27:00Z</time>
  <course>11.58</course>
  <speed>0.03605551275463989</speed>
  <fix>3d</fix>
</trkpt>
<trkpt lat="40.072842" lon="-105.230575">
  <ele>1586.09</ele>
  <time>2026-08-27T18:27:00Z</time>
  <course>266.03</course>
  <speed>0.0</speed>
  <fix>3d</fix>
</trkpt>
<trkpt lat="40.072842" lon="-105.230575">
  <ele>1586.09</ele>
  <time>2026-08-27T18:27:00Z</time>
  <course>11.57</course>
  <speed>0.03605551275463989</speed>
  <fix>3d</fix>
</trkpt>
<trkpt lat="40.072842" lon="-105.230575">
  <ele>1586.09</ele>
  <time>2026-08-27T18:27:00Z</time>
  <course>266.03</course>
  <speed>0.0</speed>
  <fix>3d</fix>
</trkpt>
<trkpt lat="40.072842" lon="-105.230575">
  <ele>1586.09</ele>
  <time>2026-08-27T18:27:00Z</time>
  <course>11.57</course>
  <speed>0.03605551275463989</speed>
  <fix>3d</fix>
</trkpt>
<trkpt lat="40.072842" lon="-105.230575">
  <ele>1586.09</ele>
  <time>2026-08-27T18:27:00Z</time>
  <course>266.03</course>
  <speed>0.0</speed>
  <fix>3d</fix>
</trkpt>
<trkpt lat="40.072842" lon="-105.230575">
  <ele>1586.09</ele>
  <time>2026-08-27T18:27:01Z</time>
  <course>11.56</course>
  <speed>0.03605551275463989</speed>
  <fix>3d</fix>
</trkpt>
<trkpt lat="40.072842" lon="-105.230575">
  <ele>1586.09</ele>
  <time>2026-08-27T18:27:01Z</time>
  <course>266.03</course>
  <speed>0.0</speed>
  <fix>3d</fix>
</trkpt>
<trkpt lat="40.072842" lon="-105.230575">
  <ele>1586.09</ele>
  <time>2026-08-27T18:27:01Z</time>
  <course>11.56</course>
  <speed>0.03605551275463989</speed>
  <fix>3d</fix>
</trkpt>
<trkpt lat="40.072842" lon="-105.230575">
  <ele>1586.09</ele>
  <time>2026-08-27T18:27:01Z</time>
  <course>266.03</course>
  <speed>0.0</speed>
  <fix>3d</fix>
</trkpt>
<trkpt lat="40.072842" lon="-105.230575">
  <ele>1586.09</ele>
  <time>2026-08-27T18:27:01Z</time>
  <course>11.55</course>
  <speed>0.03605551275463989</speed>
  <fix>3d</fix>
</trkpt>
<trkpt lat="40.072842" lon="-105.230575">
  <ele>1586.09</ele>
  <time>2026-08-27T18:27:01Z</time>
  <course>266.03</course>
  <speed>0.0</speed>
  <fix>3d</fix>
</trkpt>
<trkpt lat="40.072842" lon="-105.230575">
  <ele>1586.09</ele>
  <time>2026-08-27T18:27:01Z</time>
  <course>11.54</course>
  <speed>0.03605551275463989</speed>
  <fix>3d</fix>
</trkpt>
<trkpt lat="40.072842" lon="-105.230575">
  <ele>1586.09</ele>
  <time>2026-08-27T18:27:01Z</time>
  <course>266.03</course>
  <speed>0.0</speed>
  <fix>3d</fix>
</trkpt>
<trkpt lat="40.072842" lon="-105.230575">
  <ele>1586.09</ele>
  <time>2026-08-27T18:27:01Z</time>
  <course>11.54</course>
  <speed>0.03605551275463989</speed>
  <fix>3d</fix>
</trkpt>
<trkpt lat="40.072842" lon="-105.230575">
  <ele>1586.09</ele>
  <time>2026-08-27T18:27:01Z</time>
  <course>266.03</course>
  <speed>0.0</speed>
  <fix>3d</fix>
</trkpt>
<trkpt lat="40.072842" lon="-105.230575">
  <ele>1586.09</ele>
  <time>2026-08-27T18:27:01Z</time>
  <course>11.53</course>
  <speed>0.03605551275463989</speed>
  <fix>3d</fix>
</trkpt>
<trkpt lat="40.072842" lon="-105.230575">
  <ele>1586.09</ele>
  <time>2026-08-27T18:27:01Z</time>
  <course>266.03</course>
  <speed>0.0</speed>
  <fix>3d</fix>
</trkpt>
<trkpt lat="40.072842" lon="-105.230575">
  <ele>1586.09</ele>
  <time>2026-08-27T18:27:01Z</time>
  <course>11.53</course>
  <speed>0.03605551275463989</speed>
  <fix>3d</fix>
</trkpt>
<trkpt lat="40.072842" lon="-105.230575">
  <ele>1586.09</ele>
  <time>2026-08-27T18:27:01Z</time>
  <course>266.03</course>
  <speed>0.0</speed>
  <fix>3d</fix>
</trkpt>
<trkpt lat="40.072842" lon="-105.230575">
  <ele>1586.09</ele>
  <time>2026-08-27T18:27:01Z</time>
  <course>11.52</course>
  <speed>0.03605551275463989</speed>
  <fix>3d</fix>
</trkpt>
<trkpt lat="40.072842" lon="-105.230575">
  <ele>1586.09</ele>
  <time>2026-08-27T18:27:01Z</time>
  <course>266.03</course>
  <speed>0.0</speed>
  <fix>3d</fix>
</trkpt>
<trkpt lat="40.072842" lon="-105.230575">
  <ele>1586.09</ele>
  <time>2026-08-27T18:27:01Z</time>
  <course>11.51</course>
  <speed>0.03605551275463989</speed>
  <fix>3d</fix>
</trkpt>
<trkpt lat="40.072842" lon="-105.230575">
  <ele>1586.09</ele>
  <time>2026-08-27T18:27:01Z</time>
  <course>266.03</course>
  <speed>0.0</speed>
  <fix>3d</fix>
</trkpt>
<trkpt lat="40.072842" lon="-105.230575">
  <ele>1586.09</ele>
  <time>2026-08-27T18:27:01Z</time>
  <course>11.51</course>
  <speed>0.03605551275463989</speed>
  <fix>3d</fix>
</trkpt>
<trkpt lat="40.072842" lon="-105.230575">
  <ele>1586.09</ele>
  <time>2026-08-27T18:27:01Z</time>
  <course>266.03</course>
  <speed>0.0</speed>
  <fix>3d</fix>
</trkpt>
<trkpt lat="40.072842" lon="-105.230575">
  <ele>1586.09</ele>
  <time>2026-08-27T18:27:01Z</time>
  <course>11.5</course>
  <speed>0.03605551275463989</speed>
  <fix>3d</fix>
</trkpt>
<trkpt lat="40.072842" lon="-105.230575">
  <ele>1586.09</ele>
  <time>2026-08-27T18:27:01Z</time>
  <course>266.03</course>
  <speed>0.0</speed>
  <fix>3d</fix>
</trkpt>
<trkpt lat="40.072842" lon="-105.230575">
  <ele>1586.09</ele>
  <time>2026-08-27T18:27:01Z</time>
  <course>11.5</course>
  <speed>0.03605551275463989</speed>
  <fix>3d</fix>
</trkpt>
<trkpt lat="40.072842" lon="-105.230575">
  <ele>1586.09</ele>
  <time>2026-08-27T18:27:01Z</time>
  <course>266.03</course>
  <speed>0.0</speed>
  <fix>3d</fix>
</trkpt>
<trkpt lat="40.072842" lon="-105.230575">
  <ele>1586.09</ele>
  <time>2026-08-27T18:27:01Z</time>
  <course>11.49</course>
  <speed>0.044721359549995794</speed>
  <fix>3d</fix>
</trkpt>
<trkpt lat="40.072842" lon="-105.230575">
  <ele>1586.09</ele>
  <time>2026-08-27T18:27:01Z</time>
  <course>266.03</course>
  <speed>0.0</speed>
  <fix>3d</fix>
</trkpt>
<trkpt lat="40.072842" lon="-105.230575">
  <ele>1586.09</ele>
  <time>2026-08-27T18:27:01Z</time>
  <course>11.49</course>
  <speed>0.044721359549995794</speed>
  <fix>3d</fix>
</trkpt>
<trkpt lat="40.072842" lon="-105.230575">
  <ele>1586.09</ele>
  <time>2026-08-27T18:27:01Z</time>
  <course>266.03</course>
  <speed>0.0</speed>
  <fix>3d</fix>
</trkpt>
<trkpt lat="40.072842" lon="-105.230575">
  <ele>1586.09</ele>
  <time>2026-08-27T18:27:01Z</time>
  <course>11.48</course>
  <speed>0.044721359549995794</speed>
  <fix>3d</fix>
</trkpt>
<trkpt lat="40.072842" lon="-105.230575">
  <ele>1586.09</ele>
  <time>2026-08-27T18:27:01Z</time>
  <course>266.03</course>
  <speed>0.0</speed>
  <fix>3d</fix>
</trkpt>
<trkpt lat="40.072842" lon="-105.230575">
  <ele>1586.09</ele>
  <time>2026-08-27T18:27:01Z</time>
  <course>11.48</course>
  <speed>0.044721359549995794</speed>
  <fix>3d</fix>
</trkpt>
<trkpt lat="40.072842" lon="-105.230575">
  <ele>1586.09</ele>
  <time>2026-08-27T18:27:01Z</time>
  <course>266.03</course>
  <speed>0.0</speed>
  <fix>3d</fix>
</trkpt>
<trkpt lat="40.072842" lon="-105.230575">
  <ele>1586.09</ele>
  <time>2026-08-27T18:27:01Z</time>
  <course>11.47</course>
  <speed>0.044721359549995794</speed>
  <fix>3d</fix>
</trkpt>
<trkpt lat="40.072842" lon="-105.230575">
  <ele>1586.09</ele>
  <time>2026-08-27T18:27:01Z</time>
  <course>266.03</course>
  <speed>0.0</speed>
  <fix>3d</fix>
</trkpt>
<trkpt lat="40.072842" lon="-105.230575">
  <ele>1586.09</ele>
  <time>2026-08-27T18:27:01Z</time>
  <course>11.47</course>
  <speed>0.044721359549995794</speed>
  <fix>3d</fix>
</trkpt>
<trkpt lat="40.072842" lon="-105.230575">
  <ele>1586.09</ele>
  <time>2026-08-27T18:27:01Z</time>
  <course>266.03</course>
  <speed>0.0</speed>
  <fix>3d</fix>
</trkpt>
<trkpt lat="40.072842" lon="-105.230575">
  <ele>1586.09</ele>
  <time>2026-08-27T18:27:01Z</time>
  <course>11.46</course>
  <speed>0.044721359549995794</speed>
  <fix>3d</fix>
</trkpt>
<trkpt lat="40.072842" lon="-105.230575">
  <ele>1586.09</ele>
  <time>2026-08-27T18:27:01Z</time>
  <course>266.03</course>
  <speed>0.0</speed>
  <fix>3d</fix>
</trkpt>
<trkpt lat="40.072842" lon="-105.230575">
  <ele>1586.09</ele>
  <time>2026-08-27T18:27:01Z</time>
  <course>11.46</course>
  <speed>0.044721359549995794</speed>
  <fix>3d</fix>
</trkpt>
<trkpt lat="40.072842" lon="-105.230575">
  <ele>1586.09</ele>
  <time>2026-08-27T18:27:01Z</time>
  <course>266.03</course>
  <speed>0.0</speed>
  <fix>3d</fix>
</trkpt>
<trkpt lat="40.072842" lon="-105.230575">
  <ele>1586.15</ele>
  <time>2026-08-27T18:27:01Z</time>
  <course>11.45</course>
  <speed>0.0</speed>
  <fix>3d</fix>
</trkpt>
<trkpt lat="40.072842" lon="-105.230575">
  <ele>1586.09</ele>
  <time>2026-08-27T18:27:01Z</time>
  <course>266.03</course>
  <speed>0.0</speed>
  <fix>3d</fix>
</trkpt>
<trkpt lat="40.072842" lon="-105.230575">
  <ele>1586.15</ele>
  <time>2026-08-27T18:27:01Z</time>
  <course>11.45</course>
  <speed>0.0</speed>
  <fix>3d</fix>
</trkpt>
<trkpt lat="40.072842" lon="-105.230575">
  <ele>1586.09</ele>
  <time>2026-08-27T18:27:01Z</time>
  <course>266.03</course>
  <speed>0.0</speed>
  <fix>3d</fix>
</trkpt>
<trkpt lat="40.072842" lon="-105.230575">
  <ele>1586.14</ele>
  <time>2026-08-27T18:27:01Z</time>
  <course>11.44</course>
  <speed>0.0</speed>
  <fix>3d</fix>
</trkpt>
<trkpt lat="40.072842" lon="-105.230575">
  <ele>1586.09</ele>
  <time>2026-08-27T18:27:01Z</time>
  <course>281.49</course>
  <speed>0.0</speed>
  <fix>3d</fix>
</trkpt>
<trkpt lat="40.072842" lon="-105.230575">
  <ele>1586.14</ele>
  <time>2026-08-27T18:27:01Z</time>
  <course>11.44</course>
  <speed>0.0</speed>
  <fix>3d</fix>
</trkpt>
<trkpt lat="40.072842" lon="-105.230575">
  <ele>1586.09</ele>
  <time>2026-08-27T18:27:01Z</time>
  <course>269.42</course>
  <speed>0.0</speed>
  <fix>3d</fix>
</trkpt>
<trkpt lat="40.072842" lon="-105.230575">
  <ele>1586.14</ele>
  <time>2026-08-27T18:27:01Z</time>
  <course>11.43</course>
  <speed>0.0</speed>
  <fix>3d</fix>
</trkpt>
<trkpt lat="40.072842" lon="-105.230575">
  <ele>1586.09</ele>
  <time>2026-08-27T18:27:01Z</time>
  <course>211.84</course>
  <speed>0.0</speed>
  <fix>3d</fix>
</trkpt>
<trkpt lat="40.072842" lon="-105.230575">
  <ele>1586.14</ele>
  <time>2026-08-27T18:27:01Z</time>
  <course>11.43</course>
  <speed>0.01</speed>
  <fix>3d</fix>
</trkpt>
<trkpt lat="40.072842" lon="-105.230575">
  <ele>1586.09</ele>
  <time>2026-08-27T18:27:01Z</time>
  <course>76.8</course>
  <speed>0.0</speed>
  <fix>3d</fix>
</trkpt>
<trkpt lat="40.072842" lon="-105.230575">
  <ele>1586.14</ele>
  <time>2026-08-27T18:27:01Z</time>
  <course>11.42</course>
  <speed>0.01</speed>
  <fix>3d</fix>
</trkpt>
<trkpt lat="40.072842" lon="-105.230575">
  <ele>1586.09</ele>
  <time>2026-08-27T18:27:01Z</time>
  <course>283.66</course>
  <speed>0.0</speed>
  <fix>3d</fix>
</trkpt>
<trkpt lat="40.072842" lon="-105.230575">
  <ele>1586.14</ele>
  <time>2026-08-27T18:27:01Z</time>
  <course>11.42</course>
  <speed>0.01</speed>
  <fix>3d</fix>
</trkpt>
<trkpt lat="40.072842" lon="-105.230575">
  <ele>1586.09</ele>
  <time>2026-08-27T18:27:01Z</time>
  <course>262.24</course>
  <speed>0.0</speed>
  <fix>3d</fix>
</trkpt>
<trkpt lat="40.072842" lon="-105.230575">
  <ele>1586.14</ele>
  <time>2026-08-27T18:27:01Z</time>
  <course>11.42</course>
  <speed>0.01414213562373095</speed>
  <fix>3d</fix>
</trkpt>
<trkpt lat="40.072842" lon="-105.230575">
  <ele>1586.09</ele>
  <time>2026-08-27T18:27:01Z</time>
  <course>263.53</course>
  <speed>0.0</speed>
  <fix>3d</fix>
</trkpt>
<trkpt lat="40.072842" lon="-105.230575">
  <ele>1586.15</ele>
  <time>2026-08-27T18:27:01Z</time>
  <course>11.41</course>
  <speed>0.01414213562373095</speed>
  <fix>3d</fix>
</trkpt>
<trkpt lat="40.072842" lon="-105.230575">
  <ele>1586.09</ele>
  <time>2026-08-27T18:27:01Z</time>
  <course>267.07</course>
  <speed>0.0</speed>
  <fix>3d</fix>
</trkpt>
<trkpt lat="40.072842" lon="-105.230575">
  <ele>1586.15</ele>
  <time>2026-08-27T18:27:01Z</time>
  <course>11.41</course>
  <speed>0.01414213562373095</speed>
  <fix>3d</fix>
</trkpt>
<trkpt lat="40.072842" lon="-105.230575">
  <ele>1586.09</ele>
  <time>2026-08-27T18:27:01Z</time>
  <course>266.23</course>
  <speed>0.0</speed>
  <fix>3d</fix>
</trkpt>
<trkpt lat="40.072842" lon="-105.230575">
  <ele>1586.15</ele>
  <time>2026-08-27T18:27:01Z</time>
  <course>11.4</course>
  <speed>0.022360679774997897</speed>
  <fix>3d</fix>
</trkpt>
<trkpt lat="40.072842" lon="-105.230575">
  <ele>1586.09</ele>
  <time>2026-08-27T18:27:01Z</time>
  <course>265.88</course>
  <speed>0.0</speed>
  <fix>3d</fix>
</trkpt>
<trkpt lat="40.072842" lon="-105.230575">
  <ele>1586.15</ele>
  <time>2026-08-27T18:27:01Z</time>
  <course>11.39</course>
  <speed>0.022360679774997897</speed>
  <fix>3d</fix>
</trkpt>
<trkpt lat="40.072842" lon="-105.230575">
  <ele>1586.09</ele>
  <time>2026-08-27T18:27:01Z</time>
  <course>261.24</course>
  <speed>0.0</speed>
  <fix>3d</fix>
</trkpt>
<trkpt lat="40.072842" lon="-105.230575">
  <ele>1586.16</ele>
  <time>2026-08-27T18:27:01Z</time>
  <course>11.36</course>
  <speed>0.022360679774997897</speed>
  <fix>3d</fix>
</trkpt>
<trkpt lat="40.072842" lon="-105.230575">
  <ele>1586.09</ele>
  <time>2026-08-27T18:27:01Z</time>
  <course>265.72</course>
  <speed>0.0</speed>
  <fix>3d</fix>
</trkpt>
<trkpt lat="40.072842" lon="-105.230575">
  <ele>1586.16</ele>
  <time>2026-08-27T18:27:01Z</time>
  <course>11.32</course>
  <speed>0.022360679774997897</speed>
  <fix>3d</fix>
</trkpt>
<trkpt lat="40.072842" lon="-105.230575">
  <ele>1586.09</ele>
  <time>2026-08-27T18:27:01Z</time>
  <course>267.05</course>
  <speed>0.0</speed>
  <fix>3d</fix>
</trkpt>
<trkpt lat="40.072842" lon="-105.230575">
  <ele>1586.16</ele>
  <time>2026-08-27T18:27:01Z</time>
  <course>11.29</course>
  <speed>0.01414213562373095</speed>
  <fix>3d</fix>
</trkpt>
<trkpt lat="40.072842" lon="-105.230575">
  <ele>1586.09</ele>
  <time>2026-08-27T18:27:01Z</time>
  <course>262.07</course>
  <speed>0.0</speed>
  <fix>3d</fix>
</trkpt>
<trkpt lat="40.072842" lon="-105.230575">
  <ele>1586.16</ele>
  <time>2026-08-27T18:27:01Z</time>
  <course>11.25</course>
  <speed>0.01414213562373095</speed>
  <fix>3d</fix>
</trkpt>
<trkpt lat="40.072842" lon="-105.230575">
  <ele>1586.09</ele>
  <time>2026-08-27T18:27:01Z</time>
  <course>263.99</course>
  <speed>0.0</speed>
  <fix>3d</fix>
</trkpt>
<trkpt lat="40.072842" lon="-105.230575">
  <ele>1586.16</ele>
  <time>2026-08-27T18:27:01Z</time>
  <course>11.21</course>
  <speed>0.01</speed>
  <fix>3d</fix>
</trkpt>
<trkpt lat="40.072842" lon="-105.230575">
  <ele>1586.09</ele>
  <time>2026-08-27T18:27:01Z</time>
  <course>264.25</course>
  <speed>0.0</speed>
  <fix>3d</fix>
</trkpt>
<trkpt lat="40.072842" lon="-105.230575">
  <ele>1586.16</ele>
  <time>2026-08-27T18:27:01Z</time>
  <course>11.18</course>
  <speed>0.0</speed>
  <fix>3d</fix>
</trkpt>
<trkpt lat="40.072842" lon="-105.230575">
  <ele>1586.09</ele>
  <time>2026-08-27T18:27:01Z</time>
  <course>263.92</course>
  <speed>0.0</speed>
  <fix>3d</fix>
</trkpt>
<trkpt lat="40.072842" lon="-105.230575">
  <ele>1586.16</ele>
  <time>2026-08-27T18:27:01Z</time>
  <course>11.14</course>
  <speed>0.0</speed>
  <fix>3d</fix>
</trkpt>
<trkpt lat="40.072842" lon="-105.230575">
  <ele>1586.09</ele>
  <time>2026-08-27T18:27:01Z</time>
  <course>263.88</course>
  <speed>0.0</speed>
  <fix>3d</fix>
</trkpt>
<trkpt lat="40.072842" lon="-105.230575">
  <ele>1586.16</ele>
  <time>2026-08-27T18:27:01Z</time>
  <course>11.1</course>
  <speed>0.0</speed>
  <fix>3d</fix>
</trkpt>
<trkpt lat="40.072842" lon="-105.230575">
  <ele>1586.09</ele>
  <time>2026-08-27T18:27:01Z</time>
  <course>263.89</course>
  <speed>0.0</speed>
  <fix>3d</fix>
</trkpt>
<trkpt lat="40.072842" lon="-105.230575">
  <ele>1586.16</ele>
  <time>2026-08-27T18:27:01Z</time>
  <course>11.07</course>
  <speed>0.0</speed>
  <fix>3d</fix>
</trkpt>
<trkpt lat="40.072842" lon="-105.230575">
  <ele>1586.09</ele>
  <time>2026-08-27T18:27:01Z</time>
  <course>324.58</course>
  <speed>0.0</speed>
  <fix>3d</fix>
</trkpt>
<trkpt lat="40.072842" lon="-105.230575">
  <ele>1586.16</ele>
  <time>2026-08-27T18:27:01Z</time>
  <course>11.03</course>
  <speed>0.0</speed>
  <fix>3d</fix>
</trkpt>
<trkpt lat="40.072842" lon="-105.230575">
  <ele>1586.09</ele>
  <time>2026-08-27T18:27:01Z</time>
  <course>318.9</course>
  <speed>0.0</speed>
  <fix>3d</fix>
</trkpt>
<trkpt lat="40.072842" lon="-105.230575">
  <ele>1586.16</ele>
  <time>2026-08-27T18:27:01Z</time>
  <course>11.0</course>
  <speed>0.0</speed>
  <fix>3d</fix>
</trkpt>
<trkpt lat="40.072842" lon="-105.230575">
  <ele>1586.09</ele>
  <time>2026-08-27T18:27:01Z</time>
  <course>308.5</course>
  <speed>0.0</speed>
  <fix>3d</fix>
</trkpt>
<trkpt lat="40.072842" lon="-105.230575">
  <ele>1586.16</ele>
  <time>2026-08-27T18:27:01Z</time>
  <course>10.96</course>
  <speed>0.0</speed>
  <fix>3d</fix>
</trkpt>
<trkpt lat="40.072842" lon="-105.230575">
  <ele>1586.09</ele>
  <time>2026-08-27T18:27:01Z</time>
  <course>182.44</course>
  <speed>0.0</speed>
  <fix>3d</fix>
</trkpt>
<trkpt lat="40.072842" lon="-105.230575">
  <ele>1586.16</ele>
  <time>2026-08-27T18:27:01Z</time>
  <course>10.92</course>
  <speed>0.0</speed>
  <fix>3d</fix>
</trkpt>
<trkpt lat="40.072842" lon="-105.230575">
  <ele>1586.09</ele>
  <time>2026-08-27T18:27:01Z</time>
  <course>175.11</course>
  <speed>0.0</speed>
  <fix>3d</fix>
</trkpt>
<trkpt lat="40.072842" lon="-105.230575">
  <ele>1586.16</ele>
  <time>2026-08-27T18:27:01Z</time>
  <course>10.89</course>
  <speed>0.0</speed>
  <fix>3d</fix>
</trkpt>
<trkpt lat="40.072842" lon="-105.230575">
  <ele>1586.09</ele>
  <time>2026-08-27T18:27:01Z</time>
  <course>298.95</course>
  <speed>0.0</speed>
  <fix>3d</fix>
</trkpt>
<trkpt lat="40.072842" lon="-105.230575">
  <ele>1586.16</ele>
  <time>2026-08-27T18:27:01Z</time>
  <course>10.85</course>
  <speed>0.0</speed>
  <fix>3d</fix>
</trkpt>
<trkpt lat="40.072842" lon="-105.230575">
  <ele>1586.09</ele>
  <time>2026-08-27T18:27:01Z</time>
  <course>268.28</course>
  <speed>0.0</speed>
  <fix>3d</fix>
</trkpt>
<trkpt lat="40.072842" lon="-105.230575">
  <ele>1586.16</ele>
  <time>2026-08-27T18:27:01Z</time>
  <course>10.81</course>
  <speed>0.0</speed>
  <fix>3d</fix>
</trkpt>
<trkpt lat="40.072842" lon="-105.230575">
  <ele>1586.09</ele>
  <time>2026-08-27T18:27:01Z</time>
  <course>261.17</course>
  <speed>0.0</speed>
  <fix>3d</fix>
</trkpt>
<trkpt lat="40.072842" lon="-105.230575">
  <ele>1586.16</ele>
  <time>2026-08-27T18:27:01Z</time>
  <course>10.77</course>
  <speed>0.0</speed>
  <fix>3d</fix>
</trkpt>
<trkpt lat="40.072842" lon="-105.230575">
  <ele>1586.09</ele>
  <time>2026-08-27T18:27:01Z</time>
  <course>217.66</course>
  <speed>0.0</speed>
  <fix>3d</fix>
</trkpt>
<trkpt lat="40.072842" lon="-105.230575">
  <ele>1586.16</ele>
  <time>2026-08-27T18:27:01Z</time>
  <course>10.73</course>
  <speed>0.0</speed>
  <fix>3d</fix>
</trkpt>
<trkpt lat="40.072842" lon="-105.230575">
  <ele>1586.09</ele>
  <time>2026-08-27T18:27:01Z</time>
  <course>330.0</course>
  <speed>0.0</speed>
  <fix>3d</fix>
</trkpt>
<trkpt lat="40.072842" lon="-105.230575">
  <ele>1586.16</ele>
  <time>2026-08-27T18:27:01Z</time>
  <course>10.69</course>
  <speed>0.0</speed>
  <fix>3d</fix>
</trkpt>
<trkpt lat="40.072842" lon="-105.230575">
  <ele>1586.09</ele>
  <time>2026-08-27T18:27:01Z</time>
  <course>312.46</course>
  <speed>0.0</speed>
  <fix>3d</fix>
</trkpt>
<trkpt lat="40.072842" lon="-105.230575">
  <ele>1586.16</ele>
  <time>2026-08-27T18:27:01Z</time>
  <course>10.65</course>
  <speed>0.0</speed>
  <fix>3d</fix>
</trkpt>
<trkpt lat="40.072842" lon="-105.230575">
  <ele>1586.09</ele>
  <time>2026-08-27T18:27:01Z</time>
  <course>271.21</course>
  <speed>0.0</speed>
  <fix>3d</fix>
</trkpt>
<trkpt lat="40.072842" lon="-105.230575">
  <ele>1586.16</ele>
  <time>2026-08-27T18:27:01Z</time>
  <course>10.61</course>
  <speed>0.0</speed>
  <fix>3d</fix>
</trkpt>
<trkpt lat="40.072842" lon="-105.230575">
  <ele>1586.09</ele>
  <time>2026-08-27T18:27:01Z</time>
  <course>261.65</course>
  <speed>0.0</speed>
  <fix>3d</fix>
</trkpt>
<trkpt lat="40.072842" lon="-105.230575">
  <ele>1586.16</ele>
  <time>2026-08-27T18:27:01Z</time>
  <course>10.57</course>
  <speed>0.0</speed>
  <fix>3d</fix>
</trkpt>
<trkpt lat="40.072842" lon="-105.230575">
  <ele>1586.09</ele>
  <time>2026-08-27T18:27:01Z</time>
  <course>262.94</course>
  <speed>0.0</speed>
  <fix>3d</fix>
</trkpt>
<trkpt lat="40.072842" lon="-105.230575">
  <ele>1586.16</ele>
  <time>2026-08-27T18:27:01Z</time>
  <course>10.53</course>
  <speed>0.0</speed>
  <fix>3d</fix>
</trkpt>
<trkpt lat="40.072842" lon="-105.230575">
  <ele>1586.09</ele>
  <time>2026-08-27T18:27:01Z</time>
  <course>269.69</course>
  <speed>0.0</speed>
  <fix>3d</fix>
</trkpt>
<trkpt lat="40.072842" lon="-105.230575">
  <ele>1586.16</ele>
  <time>2026-08-27T18:27:01Z</time>
  <course>10.49</course>
  <speed>0.0</speed>
  <fix>3d</fix>
</trkpt>
<trkpt lat="40.072842" lon="-105.230575">
  <ele>1586.09</ele>
  <time>2026-08-27T18:27:01Z</time>
  <course>277.09</course>
  <speed>0.0</speed>
  <fix>3d</fix>
</trkpt>
<trkpt lat="40.072842" lon="-105.230575">
  <ele>1586.16</ele>
  <time>2026-08-27T18:27:01Z</time>
  <course>10.45</course>
  <speed>0.0</speed>
  <fix>3d</fix>
</trkpt>
<trkpt lat="40.072842" lon="-105.230575">
  <ele>1586.09</ele>
  <time>2026-08-27T18:27:01Z</time>
  <course>292.25</course>
  <speed>0.0</speed>
  <fix>3d</fix>
</trkpt>
<trkpt lat="40.072842" lon="-105.230575">
  <ele>1586.16</ele>
  <time>2026-08-27T18:27:01Z</time>
  <course>10.41</course>
  <speed>0.0</speed>
  <fix>3d</fix>
</trkpt>
<trkpt lat="40.072842" lon="-105.230575">
  <ele>1586.09</ele>
  <time>2026-08-27T18:27:01Z</time>
  <course>277.68</course>
  <speed>0.0</speed>
  <fix>3d</fix>
</trkpt>
<trkpt lat="40.072842" lon="-105.230575">
  <ele>1586.17</ele>
  <time>2026-08-27T18:27:01Z</time>
  <course>10.36</course>
  <speed>0.0</speed>
  <fix>3d</fix>
</trkpt>
<trkpt lat="40.072842" lon="-105.230575">
  <ele>1586.09</ele>
  <time>2026-08-27T18:27:01Z</time>
  <course>262.7</course>
  <speed>0.0</speed>
  <fix>3d</fix>
</trkpt>
<trkpt lat="40.072842" lon="-105.230575">
  <ele>1586.17</ele>
  <time>2026-08-27T18:27:01Z</time>
  <course>10.32</course>
  <speed>0.0</speed>
  <fix>3d</fix>
</trkpt>
<trkpt lat="40.072842" lon="-105.230575">
  <ele>1586.09</ele>
  <time>2026-08-27T18:27:01Z</time>
  <course>266.77</course>
  <speed>0.0</speed>
  <fix>3d</fix>
</trkpt>
<trkpt lat="40.072842" lon="-105.230575">
  <ele>1586.17</ele>
  <time>2026-08-27T18:27:01Z</time>
  <course>10.27</course>
  <speed>0.01</speed>
  <fix>3d</fix>
</trkpt>
<trkpt lat="40.072842" lon="-105.230575">
  <ele>1586.09</ele>
  <time>2026-08-27T18:27:01Z</time>
  <course>271.76</course>
  <speed>0.0</speed>
  <fix>3d</fix>
</trkpt>
<trkpt lat="40.072842" lon="-105.230575">
  <ele>1586.17</ele>
  <time>2026-08-27T18:27:01Z</time>
  <course>10.23</course>
  <speed>0.01</speed>
  <fix>3d</fix>
</trkpt>
<trkpt lat="40.072842" lon="-105.230575">
  <ele>1586.09</ele>
  <time>2026-08-27T18:27:01Z</time>
  <course>278.91</course>
  <speed>0.0</speed>
  <fix>3d</fix>
</trkpt>
<trkpt lat="40.072842" lon="-105.230575">
  <ele>1586.18</ele>
  <time>2026-08-27T18:27:01Z</time>
  <course>10.18</course>
  <speed>0.01</speed>
  <fix>3d</fix>
</trkpt>
<trkpt lat="40.072842" lon="-105.230575">
  <ele>1586.09</ele>
  <time>2026-08-27T18:27:01Z</time>
  <course>278.95</course>
  <speed>0.0</speed>
  <fix>3d</fix>
</trkpt>
<trkpt lat="40.072842" lon="-105.230575">
  <ele>1586.18</ele>
  <time>2026-08-27T18:27:01Z</time>
  <course>10.13</course>
  <speed>0.01</speed>
  <fix>3d</fix>
</trkpt>
<trkpt lat="40.072842" lon="-105.230575">
  <ele>1586.09</ele>
  <time>2026-08-27T18:27:01Z</time>
  <course>260.43</course>
  <speed>0.0</speed>
  <fix>3d</fix>
</trkpt>
<trkpt lat="40.072842" lon="-105.230575">
  <ele>1586.18</ele>
  <time>2026-08-27T18:27:01Z</time>
  <course>10.09</course>
  <speed>0.01</speed>
  <fix>3d</fix>
</trkpt>
<trkpt lat="40.072842" lon="-105.230575">
  <ele>1586.09</ele>
  <time>2026-08-27T18:27:01Z</time>
  <course>250.54</course>
  <speed>0.0</speed>
  <fix>3d</fix>
</trkpt>
<trkpt lat="40.072842" lon="-105.230575">
  <ele>1586.18</ele>
  <time>2026-08-27T18:27:01Z</time>
  <course>10.04</course>
  <speed>0.01414213562373095</speed>
  <fix>3d</fix>
</trkpt>
<trkpt lat="40.072842" lon="-105.230575">
  <ele>1586.09</ele>
  <time>2026-08-27T18:27:01Z</time>
  <course>268.56</course>
  <speed>0.0</speed>
  <fix>3d</fix>
</trkpt>
<trkpt lat="40.072842" lon="-105.230575">
  <ele>1586.18</ele>
  <time>2026-08-27T18:27:01Z</time>
  <course>9.99</course>
  <speed>0.01414213562373095</speed>
  <fix>3d</fix>
</trkpt>
<trkpt lat="40.072842" lon="-105.230575">
  <ele>1586.09</ele>
  <time>2026-08-27T18:27:01Z</time>
  <course>274.56</course>
  <speed>0.0</speed>
  <fix>3d</fix>
</trkpt>
<trkpt lat="40.072842" lon="-105.230575">
  <ele>1586.18</ele>
  <time>2026-08-27T18:27:01Z</time>
  <course>9.94</course>
  <speed>0.01414213562373095</speed>
  <fix>3d</fix>
</trkpt>
<trkpt lat="40.072842" lon="-105.230575">
  <ele>1586.09</ele>
  <time>2026-08-27T18:27:01Z</time>
  <course>278.42</course>
  <speed>0.0</speed>
  <fix>3d</fix>
</trkpt>
<trkpt lat="40.072842" lon="-105.230575">
  <ele>1586.18</ele>
  <time>2026-08-27T18:27:01Z</time>
  <course>9.9</course>
  <speed>0.01414213562373095</speed>
  <fix>3d</fix>
</trkpt>
<trkpt lat="40.072842" lon="-105.230575">
  <ele>1586.09</ele>
  <time>2026-08-27T18:27:01Z</time>
  <course>276.01</course>
  <speed>0.0</speed>
  <fix>3d</fix>
</trkpt>
<trkpt lat="40.072842" lon="-105.230575">
  <ele>1586.18</ele>
  <time>2026-08-27T18:27:01Z</time>
  <course>9.85</course>
  <speed>0.01414213562373095</speed>
  <fix>3d</fix>
</trkpt>
<trkpt lat="40.072842" lon="-105.230575">
  <ele>1586.09</ele>
  <time>2026-08-27T18:27:01Z</time>
  <course>267.32</course>
  <speed>0.0</speed>
  <fix>3d</fix>
</trkpt>
<trkpt lat="40.072842" lon="-105.230575">
  <ele>1586.18</ele>
  <time>2026-08-27T18:27:01Z</time>
  <course>9.8</course>
  <speed>0.01414213562373095</speed>
  <fix>3d</fix>
</trkpt>
<trkpt lat="40.072842" lon="-105.230575">
  <ele>1586.09</ele>
  <time>2026-08-27T18:27:01Z</time>
  <course>268.08</course>
  <speed>0.0</speed>
  <fix>3d</fix>
</trkpt>
<trkpt lat="40.0728419" lon="-105.230575">
  <ele>1586.17</ele>
  <time>2026-08-27T18:27:01Z</time>
  <course>9.75</course>
  <speed>0.01414213562373095</speed>
  <fix>3d</fix>
</trkpt>
<trkpt lat="40.072842" lon="-105.230575">
  <ele>1586.09</ele>
  <time>2026-08-27T18:27:01Z</time>
  <course>270.63</course>
  <speed>0.0</speed>
  <fix>3d</fix>
</trkpt>
<trkpt lat="40.0728419" lon="-105.230575">
  <ele>1586.17</ele>
  <time>2026-08-27T18:27:01Z</time>
  <course>9.7</course>
  <speed>0.022360679774997897</speed>
  <fix>3d</fix>
</trkpt>
<trkpt lat="40.072842" lon="-105.230575">
  <ele>1586.09</ele>
  <time>2026-08-27T18:27:01Z</time>
  <course>272.02</course>
  <speed>0.0</speed>
  <fix>3d</fix>
</trkpt>
<trkpt lat="40.0728419" lon="-105.2305749">
  <ele>1586.17</ele>
  <time>2026-08-27T18:27:01Z</time>
  <course>9.65</course>
  <speed>0.022360679774997897</speed>
  <fix>3d</fix>
</trkpt>
<trkpt lat="40.072842" lon="-105.230575">
  <ele>1586.09</ele>
  <time>2026-08-27T18:27:01Z</time>
  <course>275.72</course>
  <speed>0.0</speed>
  <fix>3d</fix>
</trkpt>
<trkpt lat="40.0728419" lon="-105.2305749">
  <ele>1586.17</ele>
  <time>2026-08-27T18:27:01Z</time>
  <course>9.6</course>
  <speed>0.022360679774997897</speed>
  <fix>3d</fix>
</trkpt>
<trkpt lat="40.072842" lon="-105.230575">
  <ele>1586.09</ele>
  <time>2026-08-27T18:27:01Z</time>
  <course>272.45</course>
  <speed>0.0</speed>
  <fix>3d</fix>
</trkpt>
<trkpt lat="40.0728419" lon="-105.2305749">
  <ele>1586.17</ele>
  <time>2026-08-27T18:27:01Z</time>
  <course>9.55</course>
  <speed>0.022360679774997897</speed>
  <fix>3d</fix>
</trkpt>
<trkpt lat="40.072842" lon="-105.230575">
  <ele>1586.09</ele>
  <time>2026-08-27T18:27:01Z</time>
  <course>266.75</course>
  <speed>0.0</speed>
  <fix>3d</fix>
</trkpt>
<trkpt lat="40.0728419" lon="-105.2305749">
  <ele>1586.17</ele>
  <time>2026-08-27T18:27:01Z</time>
  <course>9.5</course>
  <speed>0.022360679774997897</speed>
  <fix>3d</fix>
</trkpt>
<trkpt lat="40.072842" lon="-105.230575">
  <ele>1586.09</ele>
  <time>2026-08-27T18:27:01Z</time>
  <course>269.03</course>
  <speed>0.0</speed>
  <fix>3d</fix>
</trkpt>
<trkpt lat="40.0728419" lon="-105.2305749">
  <ele>1586.17</ele>
  <time>2026-08-27T18:27:01Z</time>
  <course>9.45</course>
  <speed>0.022360679774997897</speed>
  <fix>3d</fix>
</trkpt>
<trkpt lat="40.072842" lon="-105.230575">
  <ele>1586.09</ele>
  <time>2026-08-27T18:27:01Z</time>
  <course>267.93</course>
  <speed>0.0</speed>
  <fix>3d</fix>
</trkpt>
<trkpt lat="40.0728419" lon="-105.2305749">
  <ele>1586.18</ele>
  <time>2026-08-27T18:27:01Z</time>
  <course>9.4</course>
  <speed>0.022360679774997897</speed>
  <fix>3d</fix>
</trkpt>
<trkpt lat="40.072842" lon="-105.230575">
  <ele>1586.09</ele>
  <time>2026-08-27T18:27:01Z</time>
  <course>273.76</course>
  <speed>0.0</speed>
  <fix>3d</fix>
</trkpt>
<trkpt lat="40.0728419" lon="-105.2305749">
  <ele>1586.18</ele>
  <time>2026-08-27T18:27:01Z</time>
  <course>9.35</course>
  <speed>0.022360679774997897</speed>
  <fix>3d</fix>
</trkpt>
<trkpt lat="40.072842" lon="-105.230575">
  <ele>1586.09</ele>
  <time>2026-08-27T18:27:01Z</time>
  <course>277.76</course>
  <speed>0.0</speed>
  <fix>3d</fix>
</trkpt>
<trkpt lat="40.0728419" lon="-105.2305749">
  <ele>1586.18</ele>
  <time>2026-08-27T18:27:01Z</time>
  <course>9.3</course>
  <speed>0.022360679774997897</speed>
  <fix>3d</fix>
</trkpt>
<trkpt lat="40.072842" lon="-105.230575">
  <ele>1586.09</ele>
  <time>2026-08-27T18:27:01Z</time>
  <course>269.54</course>
  <speed>0.0</speed>
  <fix>3d</fix>
</trkpt>
<trkpt lat="40.0728419" lon="-105.2305749">
  <ele>1586.18</ele>
  <time>2026-08-27T18:27:01Z</time>
  <course>9.25</course>
  <speed>0.022360679774997897</speed>
  <fix>3d</fix>
</trkpt>
<trkpt lat="40.072842" lon="-105.230575">
  <ele>1586.09</ele>
  <time>2026-08-27T18:27:01Z</time>
  <course>268.81</course>
  <speed>0.0</speed>
  <fix>3d</fix>
</trkpt>
<trkpt lat="40.0728419" lon="-105.2305749">
  <ele>1586.18</ele>
  <time>2026-08-27T18:27:01Z</time>
  <course>9.2</course>
  <speed>0.022360679774997897</speed>
  <fix>3d</fix>
</trkpt>
<trkpt lat="40.072842" lon="-105.230575">
  <ele>1586.09</ele>
  <time>2026-08-27T18:27:01Z</time>
  <course>268.67</course>
  <speed>0.0</speed>
  <fix>3d</fix>
</trkpt>
<trkpt lat="40.0728419" lon="-105.2305749">
  <ele>1586.18</ele>
  <time>2026-08-27T18:27:01Z</time>
  <course>9.15</course>
  <speed>0.022360679774997897</speed>
  <fix>3d</fix>
</trkpt>
<trkpt lat="40.072842" lon="-105.230575">
  <ele>1586.09</ele>
  <time>2026-08-27T18:27:01Z</time>
  <course>265.87</course>
  <speed>0.0</speed>
  <fix>3d</fix>
</trkpt>
<trkpt lat="40.0728419" lon="-105.2305749">
  <ele>1586.18</ele>
  <time>2026-08-27T18:27:01Z</time>
  <course>9.1</course>
  <speed>0.022360679774997897</speed>
  <fix>3d</fix>
</trkpt>
<trkpt lat="40.072842" lon="-105.230575">
  <ele>1586.09</ele>
  <time>2026-08-27T18:27:01Z</time>
  <course>268.42</course>
  <speed>0.0</speed>
  <fix>3d</fix>
</trkpt>
<trkpt lat="40.0728419" lon="-105.2305749">
  <ele>1586.18</ele>
  <time>2026-08-27T18:27:01Z</time>
  <course>9.05</course>
  <speed>0.022360679774997897</speed>
  <fix>3d</fix>
</trkpt>
<trkpt lat="40.072842" lon="-105.230575">
  <ele>1586.09</ele>
  <time>2026-08-27T18:27:01Z</time>
  <course>276.56</course>
  <speed>0.0</speed>
  <fix>3d</fix>
</trkpt>
<trkpt lat="40.0728419" lon="-105.2305749">
  <ele>1586.18</ele>
  <time>2026-08-27T18:27:01Z</time>
  <course>9.01</course>
  <speed>0.022360679774997897</speed>
  <fix>3d</fix>
</trkpt>
<trkpt lat="40.072842" lon="-105.230575">
  <ele>1586.09</ele>
  <time>2026-08-27T18:27:01Z</time>
  <course>275.45</course>
  <speed>0.0</speed>
  <fix>3d</fix>
</trkpt>
<trkpt lat="40.0728419" lon="-105.2305749">
  <ele>1586.18</ele>
  <time>2026-08-27T18:27:01Z</time>
  <course>8.96</course>
  <speed>0.022360679774997897</speed>
  <fix>3d</fix>
</trkpt>
<trkpt lat="40.072842" lon="-105.230575">
  <ele>1586.09</ele>
  <time>2026-08-27T18:27:01Z</time>
  <course>268.43</course>
  <speed>0.0</speed>
  <fix>3d</fix>
</trkpt>
<trkpt lat="40.0728419" lon="-105.2305749">
  <ele>1586.18</ele>
  <time>2026-08-27T18:27:01Z</time>
  <course>8.91</course>
  <speed>0.022360679774997897</speed>
  <fix>3d</fix>
</trkpt>
<trkpt lat="40.072842" lon="-105.230575">
  <ele>1586.09</ele>
  <time>2026-08-27T18:27:01Z</time>
  <course>267.59</course>
  <speed>0.0</speed>
  <fix>3d</fix>
</trkpt>
<trkpt lat="40.0728419" lon="-105.2305749">
  <ele>1586.18</ele>
  <time>2026-08-27T18:27:01Z</time>
  <course>8.87</course>
  <speed>0.022360679774997897</speed>
  <fix>3d</fix>
</trkpt>
<trkpt lat="40.072842" lon="-105.230575">
  <ele>1586.09</ele>
  <time>2026-08-27T18:27:01Z</time>
  <course>266.3</course>
  <speed>0.0</speed>
  <fix>3d</fix>
</trkpt>
<trkpt lat="40.0728419" lon="-105.2305749">
  <ele>1586.18</ele>
  <time>2026-08-27T18:27:01Z</time>
  <course>8.82</course>
  <speed>0.022360679774997897</speed>
  <fix>3d</fix>
</trkpt>
<trkpt lat="40.072842" lon="-105.230575">
  <ele>1586.09</ele>
  <time>2026-08-27T18:27:01Z</time>
  <course>268.63</course>
  <speed>0.0</speed>
  <fix>3d</fix>
</trkpt>
<trkpt lat="40.0728419" lon="-105.2305749">
  <ele>1586.18</ele>
  <time>2026-08-27T18:27:01Z</time>
  <course>8.78</course>
  <speed>0.022360679774997897</speed>
  <fix>3d</fix>
</trkpt>
<trkpt lat="40.072842" lon="-105.230575">
  <ele>1586.09</ele>
  <time>2026-08-27T18:27:01Z</time>
  <course>268.63</course>
  <speed>0.0</speed>
  <fix>3d</fix>
</trkpt>
<trkpt lat="40.0728419" lon="-105.2305749">
  <ele>1586.18</ele>
  <time>2026-08-27T18:27:01Z</time>
  <course>8.73</course>
  <speed>0.022360679774997897</speed>
  <fix>3d</fix>
</trkpt>
<trkpt lat="40.072842" lon="-105.230575">
  <ele>1586.09</ele>
  <time>2026-08-27T18:27:01Z</time>
  <course>279.71</course>
  <speed>0.0</speed>
  <fix>3d</fix>
</trkpt>
<trkpt lat="40.0728419" lon="-105.2305749">
  <ele>1586.18</ele>
  <time>2026-08-27T18:27:01Z</time>
  <course>8.69</course>
  <speed>0.022360679774997897</speed>
  <fix>3d</fix>
</trkpt>
<trkpt lat="40.072842" lon="-105.230575">
  <ele>1586.09</ele>
  <time>2026-08-27T18:27:01Z</time>
  <course>278.19</course>
  <speed>0.0</speed>
  <fix>3d</fix>
</trkpt>
<trkpt lat="40.0728419" lon="-105.2305749">
  <ele>1586.18</ele>
  <time>2026-08-27T18:27:01Z</time>
  <course>8.64</course>
  <speed>0.022360679774997897</speed>
  <fix>3d</fix>
</trkpt>
<trkpt lat="40.072842" lon="-105.230575">
  <ele>1586.09</ele>
  <time>2026-08-27T18:27:01Z</time>
  <course>265.99</course>
  <speed>0.0</speed>
  <fix>3d</fix>
</trkpt>
<trkpt lat="40.0728419" lon="-105.2305749">
  <ele>1586.18</ele>
  <time>2026-08-27T18:27:01Z</time>
  <course>8.6</course>
  <speed>0.022360679774997897</speed>
  <fix>3d</fix>
</trkpt>
<trkpt lat="40.072842" lon="-105.230575">
  <ele>1586.09</ele>
  <time>2026-08-27T18:27:01Z</time>
  <course>265.27</course>
  <speed>0.0</speed>
  <fix>3d</fix>
</trkpt>
<trkpt lat="40.0728419" lon="-105.2305749">
  <ele>1586.18</ele>
  <time>2026-08-27T18:27:01Z</time>
  <course>8.56</course>
  <speed>0.022360679774997897</speed>
  <fix>3d</fix>
</trkpt>
<trkpt lat="40.072842" lon="-105.230575">
  <ele>1586.09</ele>
  <time>2026-08-27T18:27:01Z</time>
  <course>267.48</course>
  <speed>0.0</speed>
  <fix>3d</fix>
</trkpt>
<trkpt lat="40.0728419" lon="-105.2305749">
  <ele>1586.18</ele>
  <time>2026-08-27T18:27:01Z</time>
  <course>8.52</course>
  <speed>0.022360679774997897</speed>
  <fix>3d</fix>
</trkpt>
<trkpt lat="40.072842" lon="-105.230575">
  <ele>1586.09</ele>
  <time>2026-08-27T18:27:01Z</time>
  <course>268.62</course>
  <speed>0.0</speed>
  <fix>3d</fix>
</trkpt>
<trkpt lat="40.0728419" lon="-105.2305749">
  <ele>1586.18</ele>
  <time>2026-08-27T18:27:01Z</time>
  <course>8.48</course>
  <speed>0.022360679774997897</speed>
  <fix>3d</fix>
</trkpt>
<trkpt lat="40.072842" lon="-105.230575">
  <ele>1586.09</ele>
  <time>2026-08-27T18:27:01Z</time>
  <course>268.37</course>
  <speed>0.0</speed>
  <fix>3d</fix>
</trkpt>
<trkpt lat="40.0728419" lon="-105.2305749">
  <ele>1586.18</ele>
  <time>2026-08-27T18:27:01Z</time>
  <course>8.44</course>
  <speed>0.022360679774997897</speed>
  <fix>3d</fix>
</trkpt>
<trkpt lat="40.072842" lon="-105.230575">
  <ele>1586.09</ele>
  <time>2026-08-27T18:27:01Z</time>
  <course>268.0</course>
  <speed>0.0</speed>
  <fix>3d</fix>
</trkpt>
<trkpt lat="40.0728419" lon="-105.2305749">
  <ele>1586.17</ele>
  <time>2026-08-27T18:27:01Z</time>
  <course>8.39</course>
  <speed>0.022360679774997897</speed>
  <fix>3d</fix>
</trkpt>
<trkpt lat="40.072842" lon="-105.230575">
  <ele>1586.09</ele>
  <time>2026-08-27T18:27:01Z</time>
  <course>278.78</course>
  <speed>0.0</speed>
  <fix>3d</fix>
</trkpt>
<trkpt lat="40.0728419" lon="-105.2305749">
  <ele>1586.17</ele>
  <time>2026-08-27T18:27:01Z</time>
  <course>8.36</course>
  <speed>0.022360679774997897</speed>
  <fix>3d</fix>
</trkpt>
<trkpt lat="40.072842" lon="-105.230575">
  <ele>1586.09</ele>
  <time>2026-08-27T18:27:01Z</time>
  <course>277.08</course>
  <speed>0.0</speed>
  <fix>3d</fix>
</trkpt>
<trkpt lat="40.0728419" lon="-105.2305749">
  <ele>1586.17</ele>
  <time>2026-08-27T18:27:01Z</time>
  <course>8.32</course>
  <speed>0.022360679774997897</speed>
  <fix>3d</fix>
</trkpt>
<trkpt lat="40.072842" lon="-105.230575">
  <ele>1586.09</ele>
  <time>2026-08-27T18:27:01Z</time>
  <course>266.44</course>
  <speed>0.0</speed>
  <fix>3d</fix>
</trkpt>
<trkpt lat="40.0728419" lon="-105.2305749">
  <ele>1586.17</ele>
  <time>2026-08-27T18:27:01Z</time>
  <course>8.28</course>
  <speed>0.022360679774997897</speed>
  <fix>3d</fix>
</trkpt>
<trkpt lat="40.072842" lon="-105.230575">
  <ele>1586.09</ele>
  <time>2026-08-27T18:27:01Z</time>
  <course>262.7</course>
  <speed>0.0</speed>
  <fix>3d</fix>
</trkpt>
<trkpt lat="40.0728419" lon="-105.2305749">
  <ele>1586.17</ele>
  <time>2026-08-27T18:27:01Z</time>
  <course>8.24</course>
  <speed>0.022360679774997897</speed>
  <fix>3d</fix>
</trkpt>
<trkpt lat="40.072842" lon="-105.230575">
  <ele>1586.09</ele>
  <time>2026-08-27T18:27:01Z</time>
  <course>269.28</course>
  <speed>0.0</speed>
  <fix>3d</fix>
</trkpt>
<trkpt lat="40.0728419" lon="-105.2305749">
  <ele>1586.18</ele>
  <time>2026-08-27T18:27:01Z</time>
  <course>8.2</course>
  <speed>0.022360679774997897</speed>
  <fix>3d</fix>
</trkpt>
<trkpt lat="40.072842" lon="-105.230575">
  <ele>1586.09</ele>
  <time>2026-08-27T18:27:01Z</time>
  <course>268.46</course>
  <speed>0.0</speed>
  <fix>3d</fix>
</trkpt>
<trkpt lat="40.0728419" lon="-105.2305749">
  <ele>1586.18</ele>
  <time>2026-08-27T18:27:01Z</time>
  <course>8.16</course>
  <speed>0.022360679774997897</speed>
  <fix>3d</fix>
</trkpt>
<trkpt lat="40.072842" lon="-105.230575">
  <ele>1586.09</ele>
  <time>2026-08-27T18:27:01Z</time>
  <course>267.88</course>
  <speed>0.0</speed>
  <fix>3d</fix>
</trkpt>
<trkpt lat="40.0728419" lon="-105.2305749">
  <ele>1586.18</ele>
  <time>2026-08-27T18:27:01Z</time>
  <course>8.12</course>
  <speed>0.022360679774997897</speed>
  <fix>3d</fix>
</trkpt>
<trkpt lat="40.072842" lon="-105.230575">
  <ele>1586.09</ele>
  <time>2026-08-27T18:27:01Z</time>
  <course>267.76</course>
  <speed>0.0</speed>
  <fix>3d</fix>
</trkpt>
<trkpt lat="40.0728419" lon="-105.2305749">
  <ele>1586.18</ele>
  <time>2026-08-27T18:27:01Z</time>
  <course>8.08</course>
  <speed>0.022360679774997897</speed>
  <fix>3d</fix>
</trkpt>
<trkpt lat="40.072842" lon="-105.230575">
  <ele>1586.09</ele>
  <time>2026-08-27T18:27:01Z</time>
  <course>268.25</course>
  <speed>0.0</speed>
  <fix>3d</fix>
</trkpt>
<trkpt lat="40.0728419" lon="-105.2305749">
  <ele>1586.18</ele>
  <time>2026-08-27T18:27:01Z</time>
  <course>8.05</course>
  <speed>0.022360679774997897</speed>
  <fix>3d</fix>
</trkpt>
<trkpt lat="40.072842" lon="-105.230575">
  <ele>1586.09</ele>
  <time>2026-08-27T18:27:01Z</time>
  <course>276.37</course>
  <speed>0.0</speed>
  <fix>3d</fix>
</trkpt>
<trkpt lat="40.0728419" lon="-105.2305749">
  <ele>1586.18</ele>
  <time>2026-08-27T18:27:01Z</time>
  <course>8.01</course>
  <speed>0.022360679774997897</speed>
  <fix>3d</fix>
</trkpt>
<trkpt lat="40.072842" lon="-105.230575">
  <ele>1586.09</ele>
  <time>2026-08-27T18:27:01Z</time>
  <course>268.28</course>
  <speed>0.0</speed>
  <fix>3d</fix>
</trkpt>
<trkpt lat="40.0728419" lon="-105.2305749">
  <ele>1586.18</ele>
  <time>2026-08-27T18:27:01Z</time>
  <course>7.97</course>
  <speed>0.022360679774997897</speed>
  <fix>3d</fix>
</trkpt>
<trkpt lat="40.072842" lon="-105.230575">
  <ele>1586.09</ele>
  <time>2026-08-27T18:27:01Z</time>
  <course>256.28</course>
  <speed>0.0</speed>
  <fix>3d</fix>
</trkpt>
<trkpt lat="40.0728419" lon="-105.2305749">
  <ele>1586.19</ele>
  <time>2026-08-27T18:27:01Z</time>
  <course>7.94</course>
  <speed>0.022360679774997897</speed>
  <fix>3d</fix>
</trkpt>
<trkpt lat="40.072842" lon="-105.230575">
  <ele>1586.09</ele>
  <time>2026-08-27T18:27:01Z</time>
  <course>268.59</course>
  <speed>0.0</speed>
  <fix>3d</fix>
</trkpt>
<trkpt lat="40.0728419" lon="-105.2305749">
  <ele>1586.19</ele>
  <time>2026-08-27T18:27:01Z</time>
  <course>7.9</course>
  <speed>0.022360679774997897</speed>
  <fix>3d</fix>
</trkpt>
<trkpt lat="40.072842" lon="-105.230575">
  <ele>1586.09</ele>
  <time>2026-08-27T18:27:01Z</time>
  <course>269.22</course>
  <speed>0.0</speed>
  <fix>3d</fix>
</trkpt>
<trkpt lat="40.0728419" lon="-105.2305749">
  <ele>1586.19</ele>
  <time>2026-08-27T18:27:01Z</time>
  <course>7.87</course>
  <speed>0.01414213562373095</speed>
  <fix>3d</fix>
</trkpt>
<trkpt lat="40.072842" lon="-105.230575">
  <ele>1586.09</ele>
  <time>2026-08-27T18:27:01Z</time>
  <course>267.31</course>
  <speed>0.0</speed>
  <fix>3d</fix>
</trkpt>
<trkpt lat="40.0728419" lon="-105.2305749">
  <ele>1586.19</ele>
  <time>2026-08-27T18:27:01Z</time>
  <course>7.83</course>
  <speed>0.01414213562373095</speed>
  <fix>3d</fix>
</trkpt>
<trkpt lat="40.072842" lon="-105.230575">
  <ele>1586.09</ele>
  <time>2026-08-27T18:27:01Z</time>
  <course>267.32</course>
  <speed>0.0</speed>
  <fix>3d</fix>
</trkpt>
<trkpt lat="40.0728419" lon="-105.2305749">
  <ele>1586.19</ele>
  <time>2026-08-27T18:27:01Z</time>
  <course>7.8</course>
  <speed>0.01414213562373095</speed>
  <fix>3d</fix>
</trkpt>
<trkpt lat="40.072842" lon="-105.230575">
  <ele>1586.09</ele>
  <time>2026-08-27T18:27:01Z</time>
  <course>268.41</course>
  <speed>0.0</speed>
  <fix>3d</fix>
</trkpt>
<trkpt lat="40.0728419" lon="-105.2305749">
  <ele>1586.19</ele>
  <time>2026-08-27T18:27:01Z</time>
  <course>7.76</course>
  <speed>0.01414213562373095</speed>
  <fix>3d</fix>
</trkpt>
<trkpt lat="40.072842" lon="-105.230575">
  <ele>1586.09</ele>
  <time>2026-08-27T18:27:01Z</time>
  <course>267.54</course>
  <speed>0.0</speed>
  <fix>3d</fix>
</trkpt>
<trkpt lat="40.0728419" lon="-105.2305749">
  <ele>1586.18</ele>
  <time>2026-08-27T18:27:01Z</time>
  <course>7.73</course>
  <speed>0.01414213562373095</speed>
  <fix>3d</fix>
</trkpt>
<trkpt lat="40.072842" lon="-105.230575">
  <ele>1586.09</ele>
  <time>2026-08-27T18:27:01Z</time>
  <course>267.22</course>
  <speed>0.0</speed>
  <fix>3d</fix>
</trkpt>
<trkpt lat="40.0728419" lon="-105.2305749">
  <ele>1586.18</ele>
  <time>2026-08-27T18:27:02Z</time>
  <course>7.7</course>
  <speed>0.01414213562373095</speed>
  <fix>3d</fix>
</trkpt>
<trkpt lat="40.072842" lon="-105.230575">
  <ele>1586.09</ele>
  <time>2026-08-27T18:27:02Z</time>
  <course>272.24</course>
  <speed>0.0</speed>
  <fix>3d</fix>
</trkpt>
<trkpt lat="40.0728419" lon="-105.2305749">
  <ele>1586.18</ele>
  <time>2026-08-27T18:27:02Z</time>
  <course>7.67</course>
  <speed>0.01414213562373095</speed>
  <fix>3d</fix>
</trkpt>
<trkpt lat="40.072842" lon="-105.230575">
  <ele>1586.09</ele>
  <time>2026-08-27T18:27:02Z</time>
  <course>273.09</course>
  <speed>0.0</speed>
  <fix>3d</fix>
</trkpt>
<trkpt lat="40.0728419" lon="-105.2305749">
  <ele>1586.18</ele>
  <time>2026-08-27T18:27:02Z</time>
  <course>7.64</course>
  <speed>0.01414213562373095</speed>
  <fix>3d</fix>
</trkpt>
<trkpt lat="40.072842" lon="-105.230575">
  <ele>1586.09</ele>
  <time>2026-08-27T18:27:02Z</time>
  <course>266.85</course>
  <speed>0.0</speed>
  <fix>3d</fix>
</trkpt>
<trkpt lat="40.0728419" lon="-105.2305749">
  <ele>1586.18</ele>
  <time>2026-08-27T18:27:02Z</time>
  <course>7.62</course>
  <speed>0.01414213562373095</speed>
  <fix>3d</fix>
</trkpt>
<trkpt lat="40.072842" lon="-105.230575">
  <ele>1586.09</ele>
  <time>2026-08-27T18:27:02Z</time>
  <course>266.44</course>
  <speed>0.0</speed>
  <fix>3d</fix>
</trkpt>
<trkpt lat="40.0728419" lon="-105.2305749">
  <ele>1586.18</ele>
  <time>2026-08-27T18:27:02Z</time>
  <course>7.59</course>
  <speed>0.01414213562373095</speed>
  <fix>3d</fix>
</trkpt>
<trkpt lat="40.072842" lon="-105.230575">
  <ele>1586.09</ele>
  <time>2026-08-27T18:27:02Z</time>
  <course>267.31</course>
  <speed>0.0</speed>
  <fix>3d</fix>
</trkpt>
<trkpt lat="40.0728419" lon="-105.2305749">
  <ele>1586.18</ele>
  <time>2026-08-27T18:27:02Z</time>
  <course>7.56</course>
  <speed>0.01414213562373095</speed>
  <fix>3d</fix>
</trkpt>
<trkpt lat="40.072842" lon="-105.230575">
  <ele>1586.09</ele>
  <time>2026-08-27T18:27:02Z</time>
  <course>267.25</course>
  <speed>0.0</speed>
  <fix>3d</fix>
</trkpt>
<trkpt lat="40.0728419" lon="-105.2305749">
  <ele>1586.18</ele>
  <time>2026-08-27T18:27:02Z</time>
  <course>7.54</course>
  <speed>0.01414213562373095</speed>
  <fix>3d</fix>
</trkpt>
<trkpt lat="40.072842" lon="-105.230575">
  <ele>1586.09</ele>
  <time>2026-08-27T18:27:02Z</time>
  <course>267.11</course>
  <speed>0.0</speed>
  <fix>3d</fix>
</trkpt>
<trkpt lat="40.0728419" lon="-105.2305749">
  <ele>1586.19</ele>
  <time>2026-08-27T18:27:02Z</time>
  <course>7.52</course>
  <speed>0.01414213562373095</speed>
  <fix>3d</fix>
</trkpt>
<trkpt lat="40.072842" lon="-105.230575">
  <ele>1586.09</ele>
  <time>2026-08-27T18:27:02Z</time>
  <course>267.12</course>
  <speed>0.0</speed>
  <fix>3d</fix>
</trkpt>
<trkpt lat="40.0728419" lon="-105.2305749">
  <ele>1586.19</ele>
  <time>2026-08-27T18:27:02Z</time>
  <course>7.5</course>
  <speed>0.01414213562373095</speed>
  <fix>3d</fix>
</trkpt>
<trkpt lat="40.072842" lon="-105.230575">
  <ele>1586.09</ele>
  <time>2026-08-27T18:27:02Z</time>
  <course>268.35</course>
  <speed>0.0</speed>
  <fix>3d</fix>
</trkpt>
<trkpt lat="40.0728419" lon="-105.2305749">
  <ele>1586.19</ele>
  <time>2026-08-27T18:27:02Z</time>
  <course>7.48</course>
  <speed>0.01414213562373095</speed>
  <fix>3d</fix>
</trkpt>
<trkpt lat="40.072842" lon="-105.230575">
  <ele>1586.09</ele>
  <time>2026-08-27T18:27:02Z</time>
  <course>267.1</course>
  <speed>0.0</speed>
  <fix>3d</fix>
</trkpt>
<trkpt lat="40.0728419" lon="-105.2305749">
  <ele>1586.19</ele>
  <time>2026-08-27T18:27:02Z</time>
  <course>7.46</course>
  <speed>0.01414213562373095</speed>
  <fix>3d</fix>
</trkpt>
<trkpt lat="40.072842" lon="-105.230575">
  <ele>1586.09</ele>
  <time>2026-08-27T18:27:02Z</time>
  <course>265.55</course>
  <speed>0.0</speed>
  <fix>3d</fix>
</trkpt>
<trkpt lat="40.0728419" lon="-105.2305749">
  <ele>1586.19</ele>
  <time>2026-08-27T18:27:02Z</time>
  <course>7.44</course>
  <speed>0.01414213562373095</speed>
  <fix>3d</fix>
</trkpt>
<trkpt lat="40.072842" lon="-105.230575">
  <ele>1586.09</ele>
  <time>2026-08-27T18:27:02Z</time>
  <course>274.53</course>
  <speed>0.0</speed>
  <fix>3d</fix>
</trkpt>
<trkpt lat="40.0728419" lon="-105.2305749">
  <ele>1586.19</ele>
  <time>2026-08-27T18:27:02Z</time>
  <course>7.42</course>
  <speed>0.01414213562373095</speed>
  <fix>3d</fix>
</trkpt>
<trkpt lat="40.072842" lon="-105.230575">
  <ele>1586.09</ele>
  <time>2026-08-27T18:27:02Z</time>
  <course>274.93</course>
  <speed>0.0</speed>
  <fix>3d</fix>
</trkpt>
<trkpt lat="40.0728419" lon="-105.2305749">
  <ele>1586.19</ele>
  <time>2026-08-27T18:27:02Z</time>
  <course>7.4</course>
  <speed>0.01414213562373095</speed>
  <fix>3d</fix>
</trkpt>
<trkpt lat="40.072842" lon="-105.230575">
  <ele>1586.09</ele>
  <time>2026-08-27T18:27:02Z</time>
  <course>266.76</course>
  <speed>0.0</speed>
  <fix>3d</fix>
</trkpt>
<trkpt lat="40.0728419" lon="-105.2305749">
  <ele>1586.19</ele>
  <time>2026-08-27T18:27:02Z</time>
  <course>7.39</course>
  <speed>0.01414213562373095</speed>
  <fix>3d</fix>
</trkpt>
<trkpt lat="40.072842" lon="-105.230575">
  <ele>1586.09</ele>
  <time>2026-08-27T18:27:02Z</time>
  <course>266.53</course>
  <speed>0.0</speed>
  <fix>3d</fix>
</trkpt>
<trkpt lat="40.0728419" lon="-105.2305749">
  <ele>1586.19</ele>
  <time>2026-08-27T18:27:02Z</time>
  <course>7.37</course>
  <speed>0.01414213562373095</speed>
  <fix>3d</fix>
</trkpt>
<trkpt lat="40.072842" lon="-105.230575">
  <ele>1586.09</ele>
  <time>2026-08-27T18:27:02Z</time>
  <course>267.53</course>
  <speed>0.0</speed>
  <fix>3d</fix>
</trkpt>
<trkpt lat="40.0728419" lon="-105.2305749">
  <ele>1586.19</ele>
  <time>2026-08-27T18:27:02Z</time>
  <course>7.36</course>
  <speed>0.01414213562373095</speed>
  <fix>3d</fix>
</trkpt>
<trkpt lat="40.072842" lon="-105.230575">
  <ele>1586.09</ele>
  <time>2026-08-27T18:27:02Z</time>
  <course>267.29</course>
  <speed>0.0</speed>
  <fix>3d</fix>
</trkpt>
<trkpt lat="40.0728419" lon="-105.2305749">
  <ele>1586.19</ele>
  <time>2026-08-27T18:27:02Z</time>
  <course>7.35</course>
  <speed>0.01414213562373095</speed>
  <fix>3d</fix>
</trkpt>
<trkpt lat="40.072842" lon="-105.230575">
  <ele>1586.09</ele>
  <time>2026-08-27T18:27:02Z</time>
  <course>267.24</course>
  <speed>0.0</speed>
  <fix>3d</fix>
</trkpt>
<trkpt lat="40.0728419" lon="-105.2305749">
  <ele>1586.19</ele>
  <time>2026-08-27T18:27:02Z</time>
  <course>7.34</course>
  <speed>0.01414213562373095</speed>
  <fix>3d</fix>
</trkpt>
<trkpt lat="40.072842" lon="-105.230575">
  <ele>1586.09</ele>
  <time>2026-08-27T18:27:02Z</time>
  <course>267.83</course>
  <speed>0.0</speed>
  <fix>3d</fix>
</trkpt>
<trkpt lat="40.0728419" lon="-105.2305749">
  <ele>1586.18</ele>
  <time>2026-08-27T18:27:02Z</time>
  <course>7.33</course>
  <speed>0.01414213562373095</speed>
  <fix>3d</fix>
</trkpt>
<trkpt lat="40.072842" lon="-105.230575">
  <ele>1586.09</ele>
  <time>2026-08-27T18:27:02Z</time>
  <course>266.8</course>
  <speed>0.0</speed>
  <fix>3d</fix>
</trkpt>
<trkpt lat="40.0728419" lon="-105.2305749">
  <ele>1586.18</ele>
  <time>2026-08-27T18:27:02Z</time>
  <course>7.32</course>
  <speed>0.01414213562373095</speed>
  <fix>3d</fix>
</trkpt>
<trkpt lat="40.072842" lon="-105.230575">
  <ele>1586.09</ele>
  <time>2026-08-27T18:27:02Z</time>
  <course>265.87</course>
  <speed>0.0</speed>
  <fix>3d</fix>
</trkpt>
<trkpt lat="40.0728419" lon="-105.2305749">
  <ele>1586.18</ele>
  <time>2026-08-27T18:27:02Z</time>
  <course>7.31</course>
  <speed>0.01414213562373095</speed>
  <fix>3d</fix>
</trkpt>
<trkpt lat="40.072842" lon="-105.230575">
  <ele>1586.09</ele>
  <time>2026-08-27T18:27:02Z</time>
  <course>267.16</course>
  <speed>0.0</speed>
  <fix>3d</fix>
</trkpt>
<trkpt lat="40.0728419" lon="-105.2305749">
  <ele>1586.18</ele>
  <time>2026-08-27T18:27:02Z</time>
  <course>7.3</course>
  <speed>0.01414213562373095</speed>
  <fix>3d</fix>
</trkpt>
<trkpt lat="40.072842" lon="-105.230575">
  <ele>1586.09</ele>
  <time>2026-08-27T18:27:02Z</time>
  <course>267.57</course>
  <speed>0.0</speed>
  <fix>3d</fix>
</trkpt>
<trkpt lat="40.0728419" lon="-105.2305749">
  <ele>1586.18</ele>
  <time>2026-08-27T18:27:02Z</time>
  <course>7.3</course>
  <speed>0.01414213562373095</speed>
  <fix>3d</fix>
</trkpt>
<trkpt lat="40.072842" lon="-105.230575">
  <ele>1586.09</ele>
  <time>2026-08-27T18:27:02Z</time>
  <course>272.5</course>
  <speed>0.0</speed>
  <fix>3d</fix>
</trkpt>
<trkpt lat="40.0728419" lon="-105.2305749">
  <ele>1586.18</ele>
  <time>2026-08-27T18:27:02Z</time>
  <course>7.29</course>
  <speed>0.01414213562373095</speed>
  <fix>3d</fix>
</trkpt>
<trkpt lat="40.072842" lon="-105.230575">
  <ele>1586.09</ele>
  <time>2026-08-27T18:27:02Z</time>
  <course>274.03</course>
  <speed>0.0</speed>
  <fix>3d</fix>
</trkpt>
<trkpt lat="40.0728419" lon="-105.2305749">
  <ele>1586.18</ele>
  <time>2026-08-27T18:27:02Z</time>
  <course>7.29</course>
  <speed>0.01414213562373095</speed>
  <fix>3d</fix>
</trkpt>
<trkpt lat="40.072842" lon="-105.230575">
  <ele>1586.09</ele>
  <time>2026-08-27T18:27:02Z</time>
  <course>267.51</course>
  <speed>0.0</speed>
  <fix>3d</fix>
</trkpt>
<trkpt lat="40.0728419" lon="-105.2305749">
  <ele>1586.18</ele>
  <time>2026-08-27T18:27:02Z</time>
  <course>7.29</course>
  <speed>0.01414213562373095</speed>
  <fix>3d</fix>
</trkpt>
<trkpt lat="40.072842" lon="-105.230575">
  <ele>1586.09</ele>
  <time>2026-08-27T18:27:02Z</time>
  <course>266.77</course>
  <speed>0.0</speed>
  <fix>3d</fix>
</trkpt>
<trkpt lat="40.0728419" lon="-105.2305749">
  <ele>1586.17</ele>
  <time>2026-08-27T18:27:02Z</time>
  <course>7.28</course>
  <speed>0.01414213562373095</speed>
  <fix>3d</fix>
</trkpt>
<trkpt lat="40.072842" lon="-105.230575">
  <ele>1586.09</ele>
  <time>2026-08-27T18:27:02Z</time>
  <course>267.74</course>
  <speed>0.0</speed>
  <fix>3d</fix>
</trkpt>
<trkpt lat="40.0728419" lon="-105.2305749">
  <ele>1586.17</ele>
  <time>2026-08-27T18:27:02Z</time>
  <course>7.28</course>
  <speed>0.01414213562373095</speed>
  <fix>3d</fix>
</trkpt>
<trkpt lat="40.072842" lon="-105.230575">
  <ele>1586.09</ele>
  <time>2026-08-27T18:27:02Z</time>
  <course>267.95</course>
  <speed>0.0</speed>
  <fix>3d</fix>
</trkpt>
<trkpt lat="40.0728419" lon="-105.2305749">
  <ele>1586.17</ele>
  <time>2026-08-27T18:27:02Z</time>
  <course>7.28</course>
  <speed>0.01414213562373095</speed>
  <fix>3d</fix>
</trkpt>
<trkpt lat="40.072842" lon="-105.230575">
  <ele>1586.09</ele>
  <time>2026-08-27T18:27:02Z</time>
  <course>268.01</course>
  <speed>0.0</speed>
  <fix>3d</fix>
</trkpt>
<trkpt lat="40.0728419" lon="-105.2305749">
  <ele>1586.17</ele>
  <time>2026-08-27T18:27:02Z</time>
  <course>7.28</course>
  <speed>0.01414213562373095</speed>
  <fix>3d</fix>
</trkpt>
<trkpt lat="40.072842" lon="-105.230575">
  <ele>1586.09</ele>
  <time>2026-08-27T18:27:02Z</time>
  <course>267.23</course>
  <speed>0.0</speed>
  <fix>3d</fix>
</trkpt>
<trkpt lat="40.0728419" lon="-105.2305749">
  <ele>1586.17</ele>
  <time>2026-08-27T18:27:02Z</time>
  <course>7.29</course>
  <speed>0.01414213562373095</speed>
  <fix>3d</fix>
</trkpt>
<trkpt lat="40.072842" lon="-105.230575">
  <ele>1586.09</ele>
  <time>2026-08-27T18:27:02Z</time>
  <course>266.62</course>
  <speed>0.0</speed>
  <fix>3d</fix>
</trkpt>
<trkpt lat="40.0728419" lon="-105.2305749">
  <ele>1586.17</ele>
  <time>2026-08-27T18:27:02Z</time>
  <course>7.29</course>
  <speed>0.01414213562373095</speed>
  <fix>3d</fix>
</trkpt>
<trkpt lat="40.072842" lon="-105.230575">
  <ele>1586.09</ele>
  <time>2026-08-27T18:27:02Z</time>
  <course>267.44</course>
  <speed>0.0</speed>
  <fix>3d</fix>
</trkpt>
<trkpt lat="40.0728419" lon="-105.2305749">
  <ele>1586.17</ele>
  <time>2026-08-27T18:27:02Z</time>
  <course>7.29</course>
  <speed>0.01414213562373095</speed>
  <fix>3d</fix>
</trkpt>
<trkpt lat="40.072842" lon="-105.2305751">
  <ele>1586.09</ele>
  <time>2026-08-27T18:27:02Z</time>
  <course>268.38</course>
  <speed>0.0</speed>
  <fix>3d</fix>
</trkpt>
<trkpt lat="40.0728419" lon="-105.2305749">
  <ele>1586.17</ele>
  <time>2026-08-27T18:27:02Z</time>
  <course>7.3</course>
  <speed>0.01414213562373095</speed>
  <fix>3d</fix>
</trkpt>
<trkpt lat="40.072842" lon="-105.2305751">
  <ele>1586.09</ele>
  <time>2026-08-27T18:27:02Z</time>
  <course>267.89</course>
  <speed>0.0</speed>
  <fix>3d</fix>
</trkpt>
<trkpt lat="40.0728419" lon="-105.2305749">
  <ele>1586.17</ele>
  <time>2026-08-27T18:27:02Z</time>
  <course>7.3</course>
  <speed>0.01414213562373095</speed>
  <fix>3d</fix>
</trkpt>
<trkpt lat="40.072842" lon="-105.2305751">
  <ele>1586.09</ele>
  <time>2026-08-27T18:27:02Z</time>
  <course>268.1</course>
  <speed>0.0</speed>
  <fix>3d</fix>
</trkpt>
<trkpt lat="40.0728419" lon="-105.2305749">
  <ele>1586.17</ele>
  <time>2026-08-27T18:27:02Z</time>
  <course>7.31</course>
  <speed>0.01414213562373095</speed>
  <fix>3d</fix>
</trkpt>
<trkpt lat="40.072842" lon="-105.2305751">
  <ele>1586.09</ele>
  <time>2026-08-27T18:27:02Z</time>
  <course>273.39</course>
  <speed>0.0</speed>
  <fix>3d</fix>
</trkpt>
<trkpt lat="40.0728419" lon="-105.2305749">
  <ele>1586.17</ele>
  <time>2026-08-27T18:27:02Z</time>
  <course>7.31</course>
  <speed>0.01414213562373095</speed>
  <fix>3d</fix>
</trkpt>
<trkpt lat="40.072842" lon="-105.2305751">
  <ele>1586.09</ele>
  <time>2026-08-27T18:27:02Z</time>
  <course>273.06</course>
  <speed>0.0</speed>
  <fix>3d</fix>
</trkpt>
<trkpt lat="40.0728419" lon="-105.2305749">
  <ele>1586.17</ele>
  <time>2026-08-27T18:27:02Z</time>
  <course>7.32</course>
  <speed>0.01414213562373095</speed>
  <fix>3d</fix>
</trkpt>
<trkpt lat="40.072842" lon="-105.2305751">
  <ele>1586.09</ele>
  <time>2026-08-27T18:27:02Z</time>
  <course>268.69</course>
  <speed>0.0</speed>
  <fix>3d</fix>
</trkpt>
<trkpt lat="40.0728419" lon="-105.2305749">
  <ele>1586.17</ele>
  <time>2026-08-27T18:27:02Z</time>
  <course>7.33</course>
  <speed>0.01414213562373095</speed>
  <fix>3d</fix>
</trkpt>
<trkpt lat="40.072842" lon="-105.2305751">
  <ele>1586.09</ele>
  <time>2026-08-27T18:27:02Z</time>
  <course>267.33</course>
  <speed>0.0</speed>
  <fix>3d</fix>
</trkpt>
<trkpt lat="40.0728419" lon="-105.2305749">
  <ele>1586.17</ele>
  <time>2026-08-27T18:27:02Z</time>
  <course>7.34</course>
  <speed>0.01414213562373095</speed>
  <fix>3d</fix>
</trkpt>
<trkpt lat="40.072842" lon="-105.2305751">
  <ele>1586.09</ele>
  <time>2026-08-27T18:27:02Z</time>
  <course>268.4</course>
  <speed>0.0</speed>
  <fix>3d</fix>
</trkpt>
<trkpt lat="40.0728419" lon="-105.2305749">
  <ele>1586.17</ele>
  <time>2026-08-27T18:27:02Z</time>
  <course>7.35</course>
  <speed>0.01414213562373095</speed>
  <fix>3d</fix>
</trkpt>
<trkpt lat="40.072842" lon="-105.2305751">
  <ele>1586.09</ele>
  <time>2026-08-27T18:27:02Z</time>
  <course>268.81</course>
  <speed>0.0</speed>
  <fix>3d</fix>
</trkpt>
<trkpt lat="40.0728419" lon="-105.2305749">
  <ele>1586.17</ele>
  <time>2026-08-27T18:27:02Z</time>
  <course>7.36</course>
  <speed>0.01414213562373095</speed>
  <fix>3d</fix>
</trkpt>
<trkpt lat="40.072842" lon="-105.2305751">
  <ele>1586.09</ele>
  <time>2026-08-27T18:27:02Z</time>
  <course>267.93</course>
  <speed>0.0</speed>
  <fix>3d</fix>
</trkpt>
<trkpt lat="40.0728419" lon="-105.2305749">
  <ele>1586.17</ele>
  <time>2026-08-27T18:27:02Z</time>
  <course>7.37</course>
  <speed>0.01414213562373095</speed>
  <fix>3d</fix>
</trkpt>
<trkpt lat="40.072842" lon="-105.2305751">
  <ele>1586.09</ele>
  <time>2026-08-27T18:27:02Z</time>
  <course>267.16</course>
  <speed>0.0</speed>
  <fix>3d</fix>
</trkpt>
<trkpt lat="40.0728419" lon="-105.2305749">
  <ele>1586.17</ele>
  <time>2026-08-27T18:27:02Z</time>
  <course>7.39</course>
  <speed>0.01414213562373095</speed>
  <fix>3d</fix>
</trkpt>
<trkpt lat="40.072842" lon="-105.2305751">
  <ele>1586.09</ele>
  <time>2026-08-27T18:27:02Z</time>
  <course>268.08</course>
  <speed>0.0</speed>
  <fix>3d</fix>
</trkpt>
<trkpt lat="40.0728419" lon="-105.2305749">
  <ele>1586.17</ele>
  <time>2026-08-27T18:27:02Z</time>
  <course>7.4</course>
  <speed>0.01414213562373095</speed>
  <fix>3d</fix>
</trkpt>
<trkpt lat="40.072842" lon="-105.2305751">
  <ele>1586.09</ele>
  <time>2026-08-27T18:27:02Z</time>
  <course>268.82</course>
  <speed>0.0</speed>
  <fix>3d</fix>
</trkpt>
<trkpt lat="40.0728419" lon="-105.2305749">
  <ele>1586.17</ele>
  <time>2026-08-27T18:27:02Z</time>
  <course>7.41</course>
  <speed>0.01414213562373095</speed>
  <fix>3d</fix>
</trkpt>
<trkpt lat="40.072842" lon="-105.2305751">
  <ele>1586.09</ele>
  <time>2026-08-27T18:27:02Z</time>
  <course>268.75</course>
  <speed>0.0</speed>
  <fix>3d</fix>
</trkpt>
<trkpt lat="40.0728419" lon="-105.2305749">
  <ele>1586.17</ele>
  <time>2026-08-27T18:27:02Z</time>
  <course>7.43</course>
  <speed>0.01414213562373095</speed>
  <fix>3d</fix>
</trkpt>
<trkpt lat="40.072842" lon="-105.2305751">
  <ele>1586.09</ele>
  <time>2026-08-27T18:27:02Z</time>
  <course>268.84</course>
  <speed>0.0</speed>
  <fix>3d</fix>
</trkpt>
<trkpt lat="40.0728419" lon="-105.2305749">
  <ele>1586.17</ele>
  <time>2026-08-27T18:27:02Z</time>
  <course>7.44</course>
  <speed>0.01414213562373095</speed>
  <fix>3d</fix>
</trkpt>
<trkpt lat="40.072842" lon="-105.2305751">
  <ele>1586.09</ele>
  <time>2026-08-27T18:27:02Z</time>
  <course>268.86</course>
  <speed>0.0</speed>
  <fix>3d</fix>
</trkpt>
<trkpt lat="40.0728419" lon="-105.2305749">
  <ele>1586.17</ele>
  <time>2026-08-27T18:27:02Z</time>
  <course>7.46</course>
  <speed>0.01414213562373095</speed>
  <fix>3d</fix>
</trkpt>
<trkpt lat="40.072842" lon="-105.2305751">
  <ele>1586.09</ele>
  <time>2026-08-27T18:27:02Z</time>
  <course>268.82</course>
  <speed>0.0</speed>
  <fix>3d</fix>
</trkpt>
<trkpt lat="40.0728419" lon="-105.2305749">
  <ele>1586.17</ele>
  <time>2026-08-27T18:27:02Z</time>
  <course>7.48</course>
  <speed>0.01414213562373095</speed>
  <fix>3d</fix>
</trkpt>
<trkpt lat="40.072842" lon="-105.2305751">
  <ele>1586.09</ele>
  <time>2026-08-27T18:27:02Z</time>
  <course>268.62</course>
  <speed>0.0</speed>
  <fix>3d</fix>
</trkpt>
<trkpt lat="40.0728419" lon="-105.2305749">
  <ele>1586.17</ele>
  <time>2026-08-27T18:27:02Z</time>
  <course>7.49</course>
  <speed>0.01414213562373095</speed>
  <fix>3d</fix>
</trkpt>
<trkpt lat="40.072842" lon="-105.2305751">
  <ele>1586.09</ele>
  <time>2026-08-27T18:27:02Z</time>
  <course>274.12</course>
  <speed>0.0</speed>
  <fix>3d</fix>
</trkpt>
<trkpt lat="40.0728419" lon="-105.2305749">
  <ele>1586.17</ele>
  <time>2026-08-27T18:27:02Z</time>
  <course>7.51</course>
  <speed>0.01414213562373095</speed>
  <fix>3d</fix>
</trkpt>
<trkpt lat="40.072842" lon="-105.2305751">
  <ele>1586.09</ele>
  <time>2026-08-27T18:27:02Z</time>
  <course>273.97</course>
  <speed>0.0</speed>
  <fix>3d</fix>
</trkpt>
<trkpt lat="40.0728419" lon="-105.2305749">
  <ele>1586.17</ele>
  <time>2026-08-27T18:27:02Z</time>
  <course>7.53</course>
  <speed>0.01414213562373095</speed>
  <fix>3d</fix>
</trkpt>
<trkpt lat="40.072842" lon="-105.2305751">
  <ele>1586.09</ele>
  <time>2026-08-27T18:27:02Z</time>
  <course>268.59</course>
  <speed>0.0</speed>
  <fix>3d</fix>
</trkpt>
<trkpt lat="40.0728419" lon="-105.2305749">
  <ele>1586.16</ele>
  <time>2026-08-27T18:27:02Z</time>
  <course>7.55</course>
  <speed>0.01414213562373095</speed>
  <fix>3d</fix>
</trkpt>
<trkpt lat="40.072842" lon="-105.2305751">
  <ele>1586.09</ele>
  <time>2026-08-27T18:27:02Z</time>
  <course>269.21</course>
  <speed>0.0</speed>
  <fix>3d</fix>
</trkpt>
<trkpt lat="40.0728419" lon="-105.2305749">
  <ele>1586.17</ele>
  <time>2026-08-27T18:27:02Z</time>
  <course>7.57</course>
  <speed>0.01414213562373095</speed>
  <fix>3d</fix>
</trkpt>
<trkpt lat="40.072842" lon="-105.2305751">
  <ele>1586.09</ele>
  <time>2026-08-27T18:27:02Z</time>
  <course>268.55</course>
  <speed>0.0</speed>
  <fix>3d</fix>
</trkpt>
<trkpt lat="40.0728419" lon="-105.2305749">
  <ele>1586.17</ele>
  <time>2026-08-27T18:27:02Z</time>
  <course>7.59</course>
  <speed>0.01414213562373095</speed>
  <fix>3d</fix>
</trkpt>
<trkpt lat="40.072842" lon="-105.2305751">
  <ele>1586.09</ele>
  <time>2026-08-27T18:27:02Z</time>
  <course>267.81</course>
  <speed>0.0</speed>
  <fix>3d</fix>
</trkpt>
<trkpt lat="40.0728419" lon="-105.2305749">
  <ele>1586.17</ele>
  <time>2026-08-27T18:27:02Z</time>
  <course>7.61</course>
  <speed>0.01414213562373095</speed>
  <fix>3d</fix>
</trkpt>
<trkpt lat="40.072842" lon="-105.2305751">
  <ele>1586.09</ele>
  <time>2026-08-27T18:27:02Z</time>
  <course>269.22</course>
  <speed>0.0</speed>
  <fix>3d</fix>
</trkpt>
<trkpt lat="40.0728419" lon="-105.2305749">
  <ele>1586.17</ele>
  <time>2026-08-27T18:27:02Z</time>
  <course>7.63</course>
  <speed>0.01414213562373095</speed>
  <fix>3d</fix>
</trkpt>
<trkpt lat="40.072842" lon="-105.2305751">
  <ele>1586.09</ele>
  <time>2026-08-27T18:27:02Z</time>
  <course>269.6</course>
  <speed>0.0</speed>
  <fix>3d</fix>
</trkpt>
<trkpt lat="40.0728419" lon="-105.2305749">
  <ele>1586.17</ele>
  <time>2026-08-27T18:27:02Z</time>
  <course>7.66</course>
  <speed>0.01414213562373095</speed>
  <fix>3d</fix>
</trkpt>
<trkpt lat="40.072842" lon="-105.2305751">
  <ele>1586.09</ele>
  <time>2026-08-27T18:27:02Z</time>
  <course>269.28</course>
  <speed>0.0</speed>
  <fix>3d</fix>
</trkpt>
<trkpt lat="40.0728419" lon="-105.2305749">
  <ele>1586.17</ele>
  <time>2026-08-27T18:27:02Z</time>
  <course>7.68</course>
  <speed>0.01414213562373095</speed>
  <fix>3d</fix>
</trkpt>
<trkpt lat="40.072842" lon="-105.2305751">
  <ele>1586.09</ele>
  <time>2026-08-27T18:27:02Z</time>
  <course>269.67</course>
  <speed>0.0</speed>
  <fix>3d</fix>
</trkpt>
<trkpt lat="40.0728419" lon="-105.2305749">
  <ele>1586.17</ele>
  <time>2026-08-27T18:27:02Z</time>
  <course>7.7</course>
  <speed>0.01414213562373095</speed>
  <fix>3d</fix>
</trkpt>
<trkpt lat="40.072842" lon="-105.2305751">
  <ele>1586.09</ele>
  <time>2026-08-27T18:27:02Z</time>
  <course>269.44</course>
  <speed>0.0</speed>
  <fix>3d</fix>
</trkpt>
<trkpt lat="40.0728419" lon="-105.2305749">
  <ele>1586.17</ele>
  <time>2026-08-27T18:27:02Z</time>
  <course>7.73</course>
  <speed>0.01414213562373095</speed>
  <fix>3d</fix>
</trkpt>
<trkpt lat="40.072842" lon="-105.2305751">
  <ele>1586.09</ele>
  <time>2026-08-27T18:27:02Z</time>
  <course>269.97</course>
  <speed>0.0</speed>
  <fix>3d</fix>
</trkpt>
<trkpt lat="40.0728419" lon="-105.2305749">
  <ele>1586.17</ele>
  <time>2026-08-27T18:27:02Z</time>
  <course>7.75</course>
  <speed>0.01414213562373095</speed>
  <fix>3d</fix>
</trkpt>
<trkpt lat="40.072842" lon="-105.2305751">
  <ele>1586.09</ele>
  <time>2026-08-27T18:27:02Z</time>
  <course>269.83</course>
  <speed>0.0</speed>
  <fix>3d</fix>
</trkpt>
<trkpt lat="40.0728419" lon="-105.2305749">
  <ele>1586.17</ele>
  <time>2026-08-27T18:27:02Z</time>
  <course>7.78</course>
  <speed>0.01414213562373095</speed>
  <fix>3d</fix>
</trkpt>
<trkpt lat="40.072842" lon="-105.2305751">
  <ele>1586.09</ele>
  <time>2026-08-27T18:27:02Z</time>
  <course>269.78</course>
  <speed>0.0</speed>
  <fix>3d</fix>
</trkpt>
<trkpt lat="40.0728419" lon="-105.2305749">
  <ele>1586.17</ele>
  <time>2026-08-27T18:27:02Z</time>
  <course>7.8</course>
  <speed>0.01414213562373095</speed>
  <fix>3d</fix>
</trkpt>
<trkpt lat="40.072842" lon="-105.2305751">
  <ele>1586.09</ele>
  <time>2026-08-27T18:27:02Z</time>
  <course>270.12</course>
  <speed>0.0</speed>
  <fix>3d</fix>
</trkpt>
<trkpt lat="40.0728419" lon="-105.2305749">
  <ele>1586.17</ele>
  <time>2026-08-27T18:27:02Z</time>
  <course>7.83</course>
  <speed>0.01414213562373095</speed>
  <fix>3d</fix>
</trkpt>
<trkpt lat="40.072842" lon="-105.2305751">
  <ele>1586.09</ele>
  <time>2026-08-27T18:27:02Z</time>
  <course>269.59</course>
  <speed>0.0</speed>
  <fix>3d</fix>
</trkpt>
<trkpt lat="40.0728419" lon="-105.2305749">
  <ele>1586.17</ele>
  <time>2026-08-27T18:27:02Z</time>
  <course>7.85</course>
  <speed>0.01414213562373095</speed>
  <fix>3d</fix>
</trkpt>
<trkpt lat="40.072842" lon="-105.2305751">
  <ele>1586.09</ele>
  <time>2026-08-27T18:27:02Z</time>
  <course>274.74</course>
  <speed>0.0</speed>
  <fix>3d</fix>
</trkpt>
<trkpt lat="40.0728419" lon="-105.2305749">
  <ele>1586.17</ele>
  <time>2026-08-27T18:27:02Z</time>
  <course>7.88</course>
  <speed>0.01414213562373095</speed>
  <fix>3d</fix>
</trkpt>
<trkpt lat="40.072842" lon="-105.2305751">
  <ele>1586.09</ele>
  <time>2026-08-27T18:27:02Z</time>
  <course>275.53</course>
  <speed>0.0</speed>
  <fix>3d</fix>
</trkpt>
<trkpt lat="40.0728419" lon="-105.2305749">
  <ele>1586.17</ele>
  <time>2026-08-27T18:27:02Z</time>
  <course>7.91</course>
  <speed>0.01414213562373095</speed>
  <fix>3d</fix>
</trkpt>
<trkpt lat="40.072842" lon="-105.2305751">
  <ele>1586.09</ele>
  <time>2026-08-27T18:27:02Z</time>
  <course>270.3</course>
  <speed>0.0</speed>
  <fix>3d</fix>
</trkpt>
<trkpt lat="40.0728419" lon="-105.2305749">
  <ele>1586.17</ele>
  <time>2026-08-27T18:27:02Z</time>
  <course>7.94</course>
  <speed>0.01414213562373095</speed>
  <fix>3d</fix>
</trkpt>
<trkpt lat="40.072842" lon="-105.2305751">
  <ele>1586.09</ele>
  <time>2026-08-27T18:27:02Z</time>
  <course>268.08</course>
  <speed>0.0</speed>
  <fix>3d</fix>
</trkpt>
<trkpt lat="40.0728419" lon="-105.2305749">
  <ele>1586.17</ele>
  <time>2026-08-27T18:27:02Z</time>
  <course>7.96</course>
  <speed>0.01414213562373095</speed>
  <fix>3d</fix>
</trkpt>
<trkpt lat="40.072842" lon="-105.2305751">
  <ele>1586.09</ele>
  <time>2026-08-27T18:27:02Z</time>
  <course>270.36</course>
  <speed>0.0</speed>
  <fix>3d</fix>
</trkpt>
<trkpt lat="40.0728419" lon="-105.2305749">
  <ele>1586.17</ele>
  <time>2026-08-27T18:27:02Z</time>
  <course>7.99</course>
  <speed>0.01414213562373095</speed>
  <fix>3d</fix>
</trkpt>
<trkpt lat="40.072842" lon="-105.2305751">
  <ele>1586.09</ele>
  <time>2026-08-27T18:27:02Z</time>
  <course>265.33</course>
  <speed>0.0</speed>
  <fix>3d</fix>
</trkpt>
<trkpt lat="40.0728419" lon="-105.2305749">
  <ele>1586.17</ele>
  <time>2026-08-27T18:27:02Z</time>
  <course>8.02</course>
  <speed>0.01414213562373095</speed>
  <fix>3d</fix>
</trkpt>
<trkpt lat="40.072842" lon="-105.2305751">
  <ele>1586.09</ele>
  <time>2026-08-27T18:27:02Z</time>
  <course>264.53</course>
  <speed>0.0</speed>
  <fix>3d</fix>
</trkpt>
<trkpt lat="40.0728419" lon="-105.2305749">
  <ele>1586.17</ele>
  <time>2026-08-27T18:27:02Z</time>
  <course>8.05</course>
  <speed>0.01414213562373095</speed>
  <fix>3d</fix>
</trkpt>
<trkpt lat="40.072842" lon="-105.2305751">
  <ele>1586.09</ele>
  <time>2026-08-27T18:27:02Z</time>
  <course>270.97</course>
  <speed>0.0</speed>
  <fix>3d</fix>
</trkpt>
<trkpt lat="40.0728419" lon="-105.2305749">
  <ele>1586.17</ele>
  <time>2026-08-27T18:27:02Z</time>
  <course>8.08</course>
  <speed>0.01414213562373095</speed>
  <fix>3d</fix>
</trkpt>
<trkpt lat="40.072842" lon="-105.2305751">
  <ele>1586.09</ele>
  <time>2026-08-27T18:27:02Z</time>
  <course>270.46</course>
  <speed>0.0</speed>
  <fix>3d</fix>
</trkpt>
<trkpt lat="40.0728419" lon="-105.2305749">
  <ele>1586.17</ele>
  <time>2026-08-27T18:27:02Z</time>
  <course>8.11</course>
  <speed>0.01414213562373095</speed>
  <fix>3d</fix>
</trkpt>
<trkpt lat="40.072842" lon="-105.2305751">
  <ele>1586.09</ele>
  <time>2026-08-27T18:27:02Z</time>
  <course>270.98</course>
  <speed>0.0</speed>
  <fix>3d</fix>
</trkpt>
<trkpt lat="40.0728419" lon="-105.2305749">
  <ele>1586.17</ele>
  <time>2026-08-27T18:27:02Z</time>
  <course>8.14</course>
  <speed>0.01414213562373095</speed>
  <fix>3d</fix>
</trkpt>
<trkpt lat="40.072842" lon="-105.2305751">
  <ele>1586.09</ele>
  <time>2026-08-27T18:27:02Z</time>
  <course>271.1</course>
  <speed>0.0</speed>
  <fix>3d</fix>
</trkpt>
<trkpt lat="40.0728419" lon="-105.2305749">
  <ele>1586.17</ele>
  <time>2026-08-27T18:27:02Z</time>
  <course>8.17</course>
  <speed>0.01414213562373095</speed>
  <fix>3d</fix>
</trkpt>
<trkpt lat="40.072842" lon="-105.2305751">
  <ele>1586.09</ele>
  <time>2026-08-27T18:27:02Z</time>
  <course>270.26</course>
  <speed>0.0</speed>
  <fix>3d</fix>
</trkpt>
<trkpt lat="40.0728419" lon="-105.2305749">
  <ele>1586.17</ele>
  <time>2026-08-27T18:27:02Z</time>
  <course>8.21</course>
  <speed>0.01414213562373095</speed>
  <fix>3d</fix>
</trkpt>
<trkpt lat="40.072842" lon="-105.2305751">
  <ele>1586.09</ele>
  <time>2026-08-27T18:27:02Z</time>
  <course>270.68</course>
  <speed>0.0</speed>
  <fix>3d</fix>
</trkpt>
<trkpt lat="40.0728419" lon="-105.2305749">
  <ele>1586.17</ele>
  <time>2026-08-27T18:27:02Z</time>
  <course>8.24</course>
  <speed>0.01414213562373095</speed>
  <fix>3d</fix>
</trkpt>
<trkpt lat="40.072842" lon="-105.2305751">
  <ele>1586.09</ele>
  <time>2026-08-27T18:27:02Z</time>
  <course>271.54</course>
  <speed>0.0</speed>
  <fix>3d</fix>
</trkpt>
<trkpt lat="40.0728419" lon="-105.2305749">
  <ele>1586.17</ele>
  <time>2026-08-27T18:27:02Z</time>
  <course>8.27</course>
  <speed>0.01414213562373095</speed>
  <fix>3d</fix>
</trkpt>
<trkpt lat="40.072842" lon="-105.2305751">
  <ele>1586.09</ele>
  <time>2026-08-27T18:27:02Z</time>
  <course>271.26</course>
  <speed>0.0</speed>
  <fix>3d</fix>
</trkpt>
<trkpt lat="40.0728419" lon="-105.2305749">
  <ele>1586.18</ele>
  <time>2026-08-27T18:27:02Z</time>
  <course>8.3</course>
  <speed>0.01414213562373095</speed>
  <fix>3d</fix>
</trkpt>
<trkpt lat="40.072842" lon="-105.2305751">
  <ele>1586.09</ele>
  <time>2026-08-27T18:27:02Z</time>
  <course>270.34</course>
  <speed>0.0</speed>
  <fix>3d</fix>
</trkpt>
<trkpt lat="40.0728419" lon="-105.2305749">
  <ele>1586.18</ele>
  <time>2026-08-27T18:27:02Z</time>
  <course>8.33</course>
  <speed>0.01414213562373095</speed>
  <fix>3d</fix>
</trkpt>
<trkpt lat="40.072842" lon="-105.2305751">
  <ele>1586.09</ele>
  <time>2026-08-27T18:27:02Z</time>
  <course>270.54</course>
  <speed>0.0</speed>
  <fix>3d</fix>
</trkpt>
<trkpt lat="40.0728419" lon="-105.2305749">
  <ele>1586.18</ele>
  <time>2026-08-27T18:27:02Z</time>
  <course>8.37</course>
  <speed>0.01414213562373095</speed>
  <fix>3d</fix>
</trkpt>
<trkpt lat="40.072842" lon="-105.2305751">
  <ele>1586.09</ele>
  <time>2026-08-27T18:27:02Z</time>
  <course>270.41</course>
  <speed>0.0</speed>
  <fix>3d</fix>
</trkpt>
<trkpt lat="40.0728419" lon="-105.2305749">
  <ele>1586.18</ele>
  <time>2026-08-27T18:27:02Z</time>
  <course>8.4</course>
  <speed>0.01414213562373095</speed>
  <fix>3d</fix>
</trkpt>
<trkpt lat="40.072842" lon="-105.2305751">
  <ele>1586.09</ele>
  <time>2026-08-27T18:27:02Z</time>
  <course>270.53</course>
  <speed>0.0</speed>
  <fix>3d</fix>
</trkpt>
<trkpt lat="40.0728419" lon="-105.2305749">
  <ele>1586.18</ele>
  <time>2026-08-27T18:27:02Z</time>
  <course>8.43</course>
  <speed>0.01414213562373095</speed>
  <fix>3d</fix>
</trkpt>
<trkpt lat="40.072842" lon="-105.2305751">
  <ele>1586.09</ele>
  <time>2026-08-27T18:27:02Z</time>
  <course>275.12</course>
  <speed>0.0</speed>
  <fix>3d</fix>
</trkpt>
<trkpt lat="40.0728419" lon="-105.2305749">
  <ele>1586.18</ele>
  <time>2026-08-27T18:27:02Z</time>
  <course>8.47</course>
  <speed>0.01414213562373095</speed>
  <fix>3d</fix>
</trkpt>
<trkpt lat="40.072842" lon="-105.2305751">
  <ele>1586.09</ele>
  <time>2026-08-27T18:27:02Z</time>
  <course>274.48</course>
  <speed>0.0</speed>
  <fix>3d</fix>
</trkpt>
<trkpt lat="40.0728419" lon="-105.2305749">
  <ele>1586.17</ele>
  <time>2026-08-27T18:27:02Z</time>
  <course>8.5</course>
  <speed>0.01414213562373095</speed>
  <fix>3d</fix>
</trkpt>
<trkpt lat="40.072842" lon="-105.2305751">
  <ele>1586.09</ele>
  <time>2026-08-27T18:27:02Z</time>
  <course>271.43</course>
  <speed>0.0</speed>
  <fix>3d</fix>
</trkpt>
<trkpt lat="40.0728419" lon="-105.2305749">
  <ele>1586.17</ele>
  <time>2026-08-27T18:27:02Z</time>
  <course>8.54</course>
  <speed>0.01414213562373095</speed>
  <fix>3d</fix>
</trkpt>
<trkpt lat="40.072842" lon="-105.2305751">
  <ele>1586.09</ele>
  <time>2026-08-27T18:27:02Z</time>
  <course>271.5</course>
  <speed>0.0</speed>
  <fix>3d</fix>
</trkpt>
<trkpt lat="40.0728419" lon="-105.2305749">
  <ele>1586.18</ele>
  <time>2026-08-27T18:27:02Z</time>
  <course>8.57</course>
  <speed>0.01414213562373095</speed>
  <fix>3d</fix>
</trkpt>
<trkpt lat="40.072842" lon="-105.2305751">
  <ele>1586.09</ele>
  <time>2026-08-27T18:27:02Z</time>
  <course>272.0</course>
  <speed>0.0</speed>
  <fix>3d</fix>
</trkpt>
<trkpt lat="40.0728419" lon="-105.2305749">
  <ele>1586.18</ele>
  <time>2026-08-27T18:27:02Z</time>
  <course>8.61</course>
  <speed>0.01414213562373095</speed>
  <fix>3d</fix>
</trkpt>
<trkpt lat="40.072842" lon="-105.2305751">
  <ele>1586.09</ele>
  <time>2026-08-27T18:27:02Z</time>
  <course>272.46</course>
  <speed>0.0</speed>
  <fix>3d</fix>
</trkpt>
<trkpt lat="40.0728419" lon="-105.2305749">
  <ele>1586.18</ele>
  <time>2026-08-27T18:27:02Z</time>
  <course>8.64</course>
  <speed>0.01414213562373095</speed>
  <fix>3d</fix>
</trkpt>
<trkpt lat="40.072842" lon="-105.2305751">
  <ele>1586.09</ele>
  <time>2026-08-27T18:27:02Z</time>
  <course>271.63</course>
  <speed>0.0</speed>
  <fix>3d</fix>
</trkpt>
<trkpt lat="40.0728419" lon="-105.2305749">
  <ele>1586.18</ele>
  <time>2026-08-27T18:27:02Z</time>
  <course>8.68</course>
  <speed>0.01414213562373095</speed>
  <fix>3d</fix>
</trkpt>
<trkpt lat="40.072842" lon="-105.2305751">
  <ele>1586.09</ele>
  <time>2026-08-27T18:27:02Z</time>
  <course>270.91</course>
  <speed>0.0</speed>
  <fix>3d</fix>
</trkpt>
<trkpt lat="40.0728419" lon="-105.2305749">
  <ele>1586.18</ele>
  <time>2026-08-27T18:27:02Z</time>
  <course>8.71</course>
  <speed>0.01414213562373095</speed>
  <fix>3d</fix>
</trkpt>
<trkpt lat="40.072842" lon="-105.2305751">
  <ele>1586.09</ele>
  <time>2026-08-27T18:27:02Z</time>
  <course>271.42</course>
  <speed>0.0</speed>
  <fix>3d</fix>
</trkpt>
<trkpt lat="40.0728419" lon="-105.2305749">
  <ele>1586.18</ele>
  <time>2026-08-27T18:27:02Z</time>
  <course>8.75</course>
  <speed>0.01414213562373095</speed>
  <fix>3d</fix>
</trkpt>
<trkpt lat="40.072842" lon="-105.2305751">
  <ele>1586.09</ele>
  <time>2026-08-27T18:27:02Z</time>
  <course>272.54</course>
  <speed>0.0</speed>
  <fix>3d</fix>
</trkpt>
<trkpt lat="40.0728419" lon="-105.2305749">
  <ele>1586.18</ele>
  <time>2026-08-27T18:27:02Z</time>
  <course>8.78</course>
  <speed>0.01414213562373095</speed>
  <fix>3d</fix>
</trkpt>
<trkpt lat="40.072842" lon="-105.2305751">
  <ele>1586.09</ele>
  <time>2026-08-27T18:27:02Z</time>
  <course>272.27</course>
  <speed>0.0</speed>
  <fix>3d</fix>
</trkpt>
<trkpt lat="40.0728419" lon="-105.2305749">
  <ele>1586.17</ele>
  <time>2026-08-27T18:27:02Z</time>
  <course>8.82</course>
  <speed>0.01414213562373095</speed>
  <fix>3d</fix>
</trkpt>
<trkpt lat="40.072842" lon="-105.2305751">
  <ele>1586.09</ele>
  <time>2026-08-27T18:27:02Z</time>
  <course>271.95</course>
  <speed>0.0</speed>
  <fix>3d</fix>
</trkpt>
<trkpt lat="40.0728419" lon="-105.2305749">
  <ele>1586.19</ele>
  <time>2026-08-27T18:27:02Z</time>
  <course>8.84</course>
  <speed>0.01414213562373095</speed>
  <fix>3d</fix>
</trkpt>
<trkpt lat="40.072842" lon="-105.2305751">
  <ele>1586.09</ele>
  <time>2026-08-27T18:27:02Z</time>
  <course>272.26</course>
  <speed>0.0</speed>
  <fix>3d</fix>
</trkpt>
<trkpt lat="40.0728419" lon="-105.2305749">
  <ele>1586.28</ele>
  <time>2026-08-27T18:27:02Z</time>
  <course>8.83</course>
  <speed>0.01414213562373095</speed>
  <fix>3d</fix>
</trkpt>
<trkpt lat="40.072842" lon="-105.2305751">
  <ele>1586.12</ele>
  <time>2026-08-27T18:27:02Z</time>
  <course>293.47</course>
  <speed>0.0</speed>
  <fix>3d</fix>
</trkpt>
<trkpt lat="40.0728419" lon="-105.2305749">
  <ele>1586.35</ele>
  <time>2026-08-27T18:27:02Z</time>
  <course>7.53</course>
  <speed>0.04</speed>
  <fix>3d</fix>
</trkpt>
<trkpt lat="40.072842" lon="-105.2305751">
  <ele>1586.2</ele>
  <time>2026-08-27T18:27:02Z</time>
  <course>282.2</course>
  <speed>0.0</speed>
  <fix>3d</fix>
</trkpt>
<trkpt lat="40.0728419" lon="-105.2305753">
  <ele>1586.63</ele>
  <time>2026-08-27T18:27:02Z</time>
  <course>6.1</course>
  <speed>0.2340939982143925</speed>
  <fix>3d</fix>
</trkpt>
<trkpt lat="40.072842" lon="-105.2305752">
  <ele>1586.32</ele>
  <time>2026-08-27T18:27:02Z</time>
  <course>280.9</course>
  <speed>0.08</speed>
  <fix>3d</fix>
</trkpt>
<trkpt lat="40.072842" lon="-105.2305754">
  <ele>1586.7</ele>
  <time>2026-08-27T18:27:02Z</time>
  <course>6.02</course>
  <speed>0.25632011235952595</speed>
  <fix>3d</fix>
</trkpt>
<trkpt lat="40.0728421" lon="-105.230576">
  <ele>1587.01</ele>
  <time>2026-08-27T18:27:02Z</time>
  <course>5.79</course>
  <speed>0.3769615364994153</speed>
  <fix>3d</fix>
</trkpt>
<trkpt lat="40.072842" lon="-105.2305756">
  <ele>1586.59</ele>
  <time>2026-08-27T18:27:02Z</time>
  <course>282.33</course>
  <speed>0.25</speed>
  <fix>3d</fix>
</trkpt>
<trkpt lat="40.0728422" lon="-105.2305762">
  <ele>1587.07</ele>
  <time>2026-08-27T18:27:02Z</time>
  <course>5.77</course>
  <speed>0.39</speed>
  <fix>3d</fix>
</trkpt>
<trkpt lat="40.0728424" lon="-105.230577">
  <ele>1587.41</ele>
  <time>2026-08-27T18:27:02Z</time>
  <course>5.74</course>
  <speed>0.47927027865287036</speed>
  <fix>3d</fix>
</trkpt>
<trkpt lat="40.0728421" lon="-105.2305763">
  <ele>1586.97</ele>
  <time>2026-08-27T18:27:02Z</time>
  <course>283.83</course>
  <speed>0.4</speed>
  <fix>3d</fix>
</trkpt>
<trkpt lat="40.0728424" lon="-105.230577">
  <ele>1587.42</ele>
  <time>2026-08-27T18:27:02Z</time>
  <course>5.74</course>
  <speed>0.47927027865287036</speed>
  <fix>3d</fix>
</trkpt>
<trkpt lat="40.0728427" lon="-105.2305782">
  <ele>1587.83</ele>
  <time>2026-08-27T18:27:02Z</time>
  <course>5.77</course>
  <speed>0.5462600113499065</speed>
  <fix>3d</fix>
</trkpt>
<trkpt lat="40.0728423" lon="-105.2305774">
  <ele>1587.37</ele>
  <time>2026-08-27T18:27:02Z</time>
  <course>284.85</course>
  <speed>0.5</speed>
  <fix>3d</fix>
</trkpt>
<trkpt lat="40.0728428" lon="-105.2305784">
  <ele>1587.9</ele>
  <time>2026-08-27T18:27:02Z</time>
  <course>5.79</course>
  <speed>0.5554277630799526</speed>
  <fix>3d</fix>
</trkpt>
<trkpt lat="40.0728431" lon="-105.2305795">
  <ele>1588.27</ele>
  <time>2026-08-27T18:27:02Z</time>
  <course>5.87</course>
  <speed>0.6000833275470999</speed>
  <fix>3d</fix>
</trkpt>
<trkpt lat="40.0728426" lon="-105.2305786">
  <ele>1587.78</ele>
  <time>2026-08-27T18:27:02Z</time>
  <course>285.58</course>
  <speed>0.58</speed>
  <fix>3d</fix>
</trkpt>
<trkpt lat="40.0728431" lon="-105.2305795">
  <ele>1588.27</ele>
  <time>2026-08-27T18:27:02Z</time>
  <course>5.87</course>
  <speed>0.6000833275470999</speed>
  <fix>3d</fix>
</trkpt>
<trkpt lat="40.0728434" lon="-105.230581">
  <ele>1588.71</ele>
  <time>2026-08-27T18:27:02Z</time>
  <course>6.0</course>
  <speed>0.6447480127925949</speed>
  <fix>3d</fix>
</trkpt>
<trkpt lat="40.0728429" lon="-105.23058">
  <ele>1588.2</ele>
  <time>2026-08-27T18:27:02Z</time>
  <course>286.39</course>
  <speed>0.64</speed>
  <fix>3d</fix>
</trkpt>
<trkpt lat="40.0728435" lon="-105.2305812">
  <ele>1588.78</ele>
  <time>2026-08-27T18:27:02Z</time>
  <course>6.03</course>
  <speed>0.6539113089708727</speed>
  <fix>3d</fix>
</trkpt>
<trkpt lat="40.0728438" lon="-105.2305825">
  <ele>1589.17</ele>
  <time>2026-08-27T18:27:02Z</time>
  <course>4.9</course>
  <speed>0.6762396025078685</speed>
  <fix>3d</fix>
</trkpt>
<trkpt lat="40.0728433" lon="-105.2305815">
  <ele>1588.63</ele>
  <time>2026-08-27T18:27:02Z</time>
  <course>287.31</course>
  <speed>0.68</speed>
  <fix>3d</fix>
</trkpt>
<trkpt lat="40.0728439" lon="-105.2305828">
  <ele>1589.24</ele>
  <time>2026-08-27T18:27:02Z</time>
  <course>4.92</course>
  <speed>0.6762396025078685</speed>
  <fix>3d</fix>
</trkpt>
<trkpt lat="40.0728442" lon="-105.2305841">
  <ele>1589.62</ele>
  <time>2026-08-27T18:27:02Z</time>
  <course>4.95</course>
  <speed>0.6985699678629191</speed>
  <fix>3d</fix>
</trkpt>
<trkpt lat="40.0728436" lon="-105.230583">
  <ele>1589.07</ele>
  <time>2026-08-27T18:27:02Z</time>
  <course>288.23</course>
  <speed>0.71</speed>
  <fix>3d</fix>
</trkpt>
<trkpt lat="40.0728443" lon="-105.2305841">
  <ele>1589.63</ele>
  <time>2026-08-27T18:27:02Z</time>
  <course>4.95</course>
  <speed>0.6985699678629191</speed>
  <fix>3d</fix>
</trkpt>
<trkpt lat="40.0728447" lon="-105.2305857">
  <ele>1590.09</ele>
  <time>2026-08-27T18:27:02Z</time>
  <course>5.0</course>
  <speed>0.7209022125087423</speed>
  <fix>3d</fix>
</trkpt>
<trkpt lat="40.0728441" lon="-105.2305847">
  <ele>1589.51</ele>
  <time>2026-08-27T18:27:02Z</time>
  <course>289.09</course>
  <speed>0.74</speed>
  <fix>3d</fix>
</trkpt>
<trkpt lat="40.0728447" lon="-105.230586">
  <ele>1590.16</ele>
  <time>2026-08-27T18:27:02Z</time>
  <course>5.01</course>
  <speed>0.7209022125087423</speed>
  <fix>3d</fix>
</trkpt>
<trkpt lat="40.0728451" lon="-105.2305874">
  <ele>1590.54</ele>
  <time>2026-08-27T18:27:02Z</time>
  <course>5.09</course>
  <speed>0.7392563831310488</speed>
  <fix>3d</fix>
</trkpt>
<trkpt lat="40.0728445" lon="-105.2305863">
  <ele>1589.95</ele>
  <time>2026-08-27T18:27:02Z</time>
  <course>289.87</course>
  <speed>0.76</speed>
  <fix>3d</fix>
</trkpt>
<trkpt lat="40.0728451" lon="-105.2305875">
  <ele>1590.55</ele>
  <time>2026-08-27T18:27:02Z</time>
  <course>5.1</course>
  <speed>0.7392563831310488</speed>
  <fix>3d</fix>
</trkpt>
<trkpt lat="40.0728456" lon="-105.2305891">
  <ele>1590.99</ele>
  <time>2026-08-27T18:27:02Z</time>
  <course>5.22</course>
  <speed>0.7484650960465692</speed>
  <fix>3d</fix>
</trkpt>
<trkpt lat="40.072845" lon="-105.2305881">
  <ele>1590.39</ele>
  <time>2026-08-27T18:27:02Z</time>
  <course>290.65</course>
  <speed>0.78</speed>
  <fix>3d</fix>
</trkpt>
<trkpt lat="40.0728456" lon="-105.2305893">
  <ele>1591.05</ele>
  <time>2026-08-27T18:27:02Z</time>
  <course>5.23</course>
  <speed>0.7484650960465692</speed>
  <fix>3d</fix>
</trkpt>
<trkpt lat="40.0728461" lon="-105.2305909">
  <ele>1591.44</ele>
  <time>2026-08-27T18:27:02Z</time>
  <course>5.42</course>
  <speed>0.7576938695805846</speed>
  <fix>3d</fix>
</trkpt>
<trkpt lat="40.0728455" lon="-105.2305898">
  <ele>1590.84</ele>
  <time>2026-08-27T18:27:02Z</time>
  <course>291.43</course>
  <speed>0.79</speed>
  <fix>3d</fix>
</trkpt>
<trkpt lat="40.0728461" lon="-105.2305912">
  <ele>1591.52</ele>
  <time>2026-08-27T18:27:02Z</time>
  <course>5.45</course>
  <speed>0.7669419795525605</speed>
  <fix>3d</fix>
</trkpt>
<trkpt lat="40.0728466" lon="-105.2305926">
  <ele>1591.89</ele>
  <time>2026-08-27T18:27:02Z</time>
  <course>5.63</course>
  <speed>0.7669419795525605</speed>
  <fix>3d</fix>
</trkpt>
<trkpt lat="40.072846" lon="-105.2305916">
  <ele>1591.29</ele>
  <time>2026-08-27T18:27:02Z</time>
  <course>292.23</course>
  <speed>0.8</speed>
  <fix>3d</fix>
</trkpt>
<trkpt lat="40.0728466" lon="-105.2305929">
  <ele>1591.96</ele>
  <time>2026-08-27T18:27:02Z</time>
  <course>5.66</course>
  <speed>0.7669419795525605</speed>
  <fix>3d</fix>
</trkpt>
<trkpt lat="40.0728471" lon="-105.2305944">
  <ele>1592.34</ele>
  <time>2026-08-27T18:27:02Z</time>
  <course>5.77</course>
  <speed>0.78</speed>
  <fix>3d</fix>
</trkpt>
<trkpt lat="40.0728465" lon="-105.2305933">
  <ele>1591.74</ele>
  <time>2026-08-27T18:27:02Z</time>
  <course>293.03</course>
  <speed>0.81</speed>
  <fix>3d</fix>
</trkpt>
<trkpt lat="40.0728472" lon="-105.2305948">
  <ele>1592.42</ele>
  <time>2026-08-27T18:27:02Z</time>
  <course>5.8</course>
  <speed>0.78</speed>
  <fix>3d</fix>
</trkpt>
<trkpt lat="40.0728476" lon="-105.2305962">
  <ele>1592.79</ele>
  <time>2026-08-27T18:27:02Z</time>
  <course>5.89</course>
  <speed>0.7892401408950256</speed>
  <fix>3d</fix>
</trkpt>
<trkpt lat="40.0728472" lon="-105.230595">
  <ele>1592.19</ele>
  <time>2026-08-27T18:27:02Z</time>
  <course>293.8</course>
  <speed>0.82</speed>
  <fix>3d</fix>
</trkpt>
<trkpt lat="40.0728476" lon="-105.2305962">
  <ele>1592.79</ele>
  <time>2026-08-27T18:27:02Z</time>
  <course>5.89</course>
  <speed>0.7892401408950256</speed>
  <fix>3d</fix>
</trkpt>
<trkpt lat="40.0728482" lon="-105.230598">
  <ele>1593.23</ele>
  <time>2026-08-27T18:27:02Z</time>
  <course>6.0</course>
  <speed>0.7930952023559341</speed>
  <fix>3d</fix>
</trkpt>
<trkpt lat="40.0728478" lon="-105.2305969">
  <ele>1592.64</ele>
  <time>2026-08-27T18:27:02Z</time>
  <course>294.51</course>
  <speed>0.82</speed>
  <fix>3d</fix>
</trkpt>
<trkpt lat="40.0728483" lon="-105.2305983">
  <ele>1593.3</ele>
  <time>2026-08-27T18:27:02Z</time>
  <course>6.01</course>
  <speed>0.7930952023559341</speed>
  <fix>3d</fix>
</trkpt>
<trkpt lat="40.0728488" lon="-105.2305998">
  <ele>1593.68</ele>
  <time>2026-08-27T18:27:02Z</time>
  <course>6.08</course>
  <speed>0.8023091673413684</speed>
  <fix>3d</fix>
</trkpt>
<trkpt lat="40.0728484" lon="-105.2305986">
  <ele>1593.09</ele>
  <time>2026-08-27T18:27:02Z</time>
  <course>295.16</course>
  <speed>0.82</speed>
  <fix>3d</fix>
</trkpt>
<trkpt lat="40.0728488" lon="-105.2305999">
  <ele>1593.69</ele>
  <time>2026-08-27T18:27:02Z</time>
  <course>6.08</course>
  <speed>0.8023091673413684</speed>
  <fix>3d</fix>
</trkpt>
<trkpt lat="40.0728495" lon="-105.2306016">
  <ele>1594.14</ele>
  <time>2026-08-27T18:27:02Z</time>
  <course>6.15</course>
  <speed>0.8062257748298549</speed>
  <fix>3d</fix>
</trkpt>
<trkpt lat="40.0728491" lon="-105.2306003">
  <ele>1593.54</ele>
  <time>2026-08-27T18:27:02Z</time>
  <course>295.74</course>
  <speed>0.82</speed>
  <fix>3d</fix>
</trkpt>
<trkpt lat="40.0728496" lon="-105.2306019">
  <ele>1594.2</ele>
  <time>2026-08-27T18:27:02Z</time>
  <course>6.16</course>
  <speed>0.8062257748298549</speed>
  <fix>3d</fix>
</trkpt>
<trkpt lat="40.0728501" lon="-105.2306034">
  <ele>1594.59</ele>
  <time>2026-08-27T18:27:02Z</time>
  <course>6.21</course>
  <speed>0.8062257748298549</speed>
  <fix>3d</fix>
</trkpt>
<trkpt lat="40.0728497" lon="-105.2306021">
  <ele>1593.99</ele>
  <time>2026-08-27T18:27:02Z</time>
  <course>296.25</course>
  <speed>0.82</speed>
  <fix>3d</fix>
</trkpt>
<trkpt lat="40.0728502" lon="-105.2306037">
  <ele>1594.67</ele>
  <time>2026-08-27T18:27:02Z</time>
  <course>6.22</course>
  <speed>0.797057087039567</speed>
  <fix>3d</fix>
</trkpt>
<trkpt lat="40.0728508" lon="-105.2306051">
  <ele>1595.05</ele>
  <time>2026-08-27T18:27:02Z</time>
  <course>6.26</course>
  <speed>0.797057087039567</speed>
  <fix>3d</fix>
</trkpt>
<trkpt lat="40.0728503" lon="-105.2306038">
  <ele>1594.45</ele>
  <time>2026-08-27T18:27:02Z</time>
  <course>296.71</course>
  <speed>0.82</speed>
  <fix>3d</fix>
</trkpt>
<trkpt lat="40.0728508" lon="-105.2306052">
  <ele>1595.06</ele>
  <time>2026-08-27T18:27:02Z</time>
  <course>6.26</course>
  <speed>0.797057087039567</speed>
  <fix>3d</fix>
</trkpt>
<trkpt lat="40.0728514" lon="-105.2306069">
  <ele>1595.5</ele>
  <time>2026-08-27T18:27:02Z</time>
  <course>6.33</course>
  <speed>0.797057087039567</speed>
  <fix>3d</fix>
</trkpt>
<trkpt lat="40.072851" lon="-105.2306055">
  <ele>1594.9</ele>
  <time>2026-08-27T18:27:02Z</time>
  <course>297.12</course>
  <speed>0.81</speed>
  <fix>3d</fix>
</trkpt>
<trkpt lat="40.0728515" lon="-105.2306071">
  <ele>1595.56</ele>
  <time>2026-08-27T18:27:02Z</time>
  <course>6.34</course>
  <speed>0.797057087039567</speed>
  <fix>3d</fix>
</trkpt>
<trkpt lat="40.0728521" lon="-105.2306086">
  <ele>1595.93</ele>
  <time>2026-08-27T18:27:02Z</time>
  <course>7.39</course>
  <speed>0.8011242100947892</speed>
  <fix>3d</fix>
</trkpt>
<trkpt lat="40.0728517" lon="-105.2306072">
  <ele>1595.35</ele>
  <time>2026-08-27T18:27:02Z</time>
  <course>297.5</course>
  <speed>0.8</speed>
  <fix>3d</fix>
</trkpt>
<trkpt lat="40.0728527" lon="-105.2306103">
  <ele>1596.21</ele>
  <time>2026-08-27T18:27:02Z</time>
  <course>9.18</course>
  <speed>0.7920227269466451</speed>
  <fix>3d</fix>
</trkpt>
<trkpt lat="40.0728524" lon="-105.2306089">
  <ele>1595.76</ele>
  <time>2026-08-27T18:27:02Z</time>
  <course>297.48</course>
  <speed>0.8</speed>
  <fix>3d</fix>
</trkpt>
<trkpt lat="40.0728534" lon="-105.2306119">
  <ele>1596.4</ele>
  <time>2026-08-27T18:27:02Z</time>
  <course>9.88</course>
  <speed>0.7648529270389177</speed>
  <fix>3d</fix>
</trkpt>
<trkpt lat="40.072853" lon="-105.2306106">
  <ele>1596.05</ele>
  <time>2026-08-27T18:27:02Z</time>
  <course>297.72</course>
  <speed>0.79</speed>
  <fix>3d</fix>
</trkpt>
<trkpt lat="40.0728541" lon="-105.2306135">
  <ele>1596.51</ele>
  <time>2026-08-27T18:27:02Z</time>
  <course>9.97</course>
  <speed>0.7379024325749306</speed>
  <fix>3d</fix>
</trkpt>
<trkpt lat="40.0728537" lon="-105.2306122">
  <ele>1596.23</ele>
  <time>2026-08-27T18:27:02Z</time>
  <course>298.83</course>
  <speed>0.77</speed>
  <fix>3d</fix>
</trkpt>
<trkpt lat="40.0728547" lon="-105.230615">
  <ele>1596.61</ele>
  <time>2026-08-27T18:27:02Z</time>
  <course>9.7</course>
  <speed>0.688839603971781</speed>
  <fix>3d</fix>
</trkpt>
<trkpt lat="40.0728544" lon="-105.2306138">
  <ele>1596.34</ele>
  <time>2026-08-27T18:27:02Z</time>
  <course>300.34</course>
  <speed>0.74</speed>
  <fix>3d</fix>
</trkpt>
<trkpt lat="40.0728554" lon="-105.2306164">
  <ele>1596.69</ele>
  <time>2026-08-27T18:27:02Z</time>
  <course>9.53</course>
  <speed>0.6171709649683789</speed>
  <fix>3d</fix>
</trkpt>
<trkpt lat="40.072855" lon="-105.2306153">
  <ele>1596.43</ele>
  <time>2026-08-27T18:27:02Z</time>
  <course>301.93</course>
  <speed>0.69</speed>
  <fix>3d</fix>
</trkpt>
<trkpt lat="40.0728559" lon="-105.2306176">
  <ele>1596.78</ele>
  <time>2026-08-27T18:27:02Z</time>
  <course>9.4</course>
  <speed>0.5366563145999496</speed>
  <fix>3d</fix>
</trkpt>
<trkpt lat="40.0728557" lon="-105.2306165">
  <ele>1596.52</ele>
  <time>2026-08-27T18:27:02Z</time>
  <course>303.36</course>
  <speed>0.63</speed>
  <fix>3d</fix>
</trkpt>
<trkpt lat="40.0728564" lon="-105.2306186">
  <ele>1596.87</ele>
  <time>2026-08-27T18:27:02Z</time>
  <course>9.21</course>
  <speed>0.4338202392696773</speed>
  <fix>3d</fix>
</trkpt>
<trkpt lat="40.0728563" lon="-105.2306177">
  <ele>1596.61</ele>
  <time>2026-08-27T18:27:02Z</time>
  <course>305.06</course>
  <speed>0.54</speed>
  <fix>3d</fix>
</trkpt>
<trkpt lat="40.0728569" lon="-105.2306193">
  <ele>1596.97</ele>
  <time>2026-08-27T18:27:02Z</time>
  <course>8.95</course>
  <speed>0.34438350715445126</speed>
  <fix>3d</fix>
</trkpt>
<trkpt lat="40.0728568" lon="-105.2306186">
  <ele>1596.71</ele>
  <time>2026-08-27T18:27:02Z</time>
  <course>307.6</course>
  <speed>0.45</speed>
  <fix>3d</fix>
</trkpt>
<trkpt lat="40.0728572" lon="-105.2306199">
  <ele>1597.08</ele>
  <time>2026-08-27T18:27:02Z</time>
  <course>8.69</course>
  <speed>0.25079872407968906</speed>
  <fix>3d</fix>
</trkpt>
<trkpt lat="40.0728572" lon="-105.2306194">
  <ele>1596.81</ele>
  <time>2026-08-27T18:27:02Z</time>
  <course>311.37</course>
  <speed>0.35</speed>
  <fix>3d</fix>
</trkpt>
<trkpt lat="40.0728575" lon="-105.2306203">
  <ele>1597.21</ele>
  <time>2026-08-27T18:27:03Z</time>
  <course>8.46</course>
  <speed>0.1708800749063506</speed>
  <fix>3d</fix>
</trkpt>
<trkpt lat="40.0728577" lon="-105.2306199">
  <ele>1596.92</ele>
  <time>2026-08-27T18:27:03Z</time>
  <course>316.42</course>
  <speed>0.27</speed>
  <fix>3d</fix>
</trkpt>
<trkpt lat="40.0728577" lon="-105.2306206">
  <ele>1597.36</ele>
  <time>2026-08-27T18:27:03Z</time>
  <course>8.34</course>
  <speed>0.1044030650891055</speed>
  <fix>3d</fix>
</trkpt>
<trkpt lat="40.0728579" lon="-105.2306203">
  <ele>1597.06</ele>
  <time>2026-08-27T18:27:03Z</time>
  <course>322.84</course>
  <speed>0.19</speed>
  <fix>3d</fix>
</trkpt>
<trkpt lat="40.0728579" lon="-105.2306207">
  <ele>1597.52</ele>
  <time>2026-08-27T18:27:03Z</time>
  <course>8.31</course>
  <speed>0.06</speed>
  <fix>3d</fix>
</trkpt>
<trkpt lat="40.0728582" lon="-105.2306204">
  <ele>1597.21</ele>
  <time>2026-08-27T18:27:03Z</time>
  <course>331.56</course>
  <speed>0.12</speed>
  <fix>3d</fix>
</trkpt>
<trkpt lat="40.072858" lon="-105.2306207">
  <ele>1597.69</ele>
  <time>2026-08-27T18:27:03Z</time>
  <course>8.41</course>
  <speed>0.044721359549995794</speed>
  <fix>3d</fix>
</trkpt>
<trkpt lat="40.0728584" lon="-105.2306206">
  <ele>1597.37</ele>
  <time>2026-08-27T18:27:03Z</time>
  <course>347.53</course>
  <speed>0.06</speed>
  <fix>3d</fix>
</trkpt>
<trkpt lat="40.072858" lon="-105.2306206">
  <ele>1597.86</ele>
  <time>2026-08-27T18:27:03Z</time>
  <course>8.56</course>
  <speed>0.07</speed>
  <fix>3d</fix>
</trkpt>
<trkpt lat="40.0728584" lon="-105.2306206">
  <ele>1597.54</ele>
  <time>2026-08-27T18:27:03Z</time>
  <course>44.11</course>
  <speed>0.02</speed>
  <fix>3d</fix>
</trkpt>
<trkpt lat="40.0728581" lon="-105.2306205">
  <ele>1598.02</ele>
  <time>2026-08-27T18:27:03Z</time>
  <course>8.72</course>
  <speed>0.1019803902718557</speed>
  <fix>3d</fix>
</trkpt>
<trkpt lat="40.0728584" lon="-105.2306206">
  <ele>1597.71</ele>
  <time>2026-08-27T18:27:03Z</time>
  <course>114.91</course>
  <speed>0.04</speed>
  <fix>3d</fix>
</trkpt>
<trkpt lat="40.072858" lon="-105.2306204">
  <ele>1598.18</ele>
  <time>2026-08-27T18:27:03Z</time>
  <course>8.85</course>
  <speed>0.13601470508735444</speed>
  <fix>3d</fix>
</trkpt>
<trkpt lat="40.0728584" lon="-105.2306204">
  <ele>1597.88</ele>
  <time>2026-08-27T18:27:03Z</time>
  <course>132.9</course>
  <speed>0.08</speed>
  <fix>3d</fix>
</trkpt>
<trkpt lat="40.0728578" lon="-105.2306203">
  <ele>1598.33</ele>
  <time>2026-08-27T18:27:03Z</time>
  <course>9.01</course>
  <speed>0.1615549442140351</speed>
  <fix>3d</fix>
</trkpt>
<trkpt lat="40.0728583" lon="-105.2306203">
  <ele>1598.04</ele>
  <time>2026-08-27T18:27:03Z</time>
  <course>140.1</course>
  <speed>0.11</speed>
  <fix>3d</fix>
</trkpt>
<trkpt lat="40.0728576" lon="-105.23062">
  <ele>1598.47</ele>
  <time>2026-08-27T18:27:03Z</time>
  <course>9.26</course>
  <speed>0.21470910553583888</speed>
  <fix>3d</fix>
</trkpt>
<trkpt lat="40.0728582" lon="-105.2306201">
  <ele>1598.19</ele>
  <time>2026-08-27T18:27:03Z</time>
  <course>142.5</course>
  <speed>0.15</speed>
  <fix>3d</fix>
</trkpt>
<trkpt lat="40.0728573" lon="-105.2306196">
  <ele>1598.59</ele>
  <time>2026-08-27T18:27:03Z</time>
  <course>9.55</course>
  <speed>0.28600699292150183</speed>
  <fix>3d</fix>
</trkpt>
<trkpt lat="40.0728579" lon="-105.2306198">
  <ele>1598.33</ele>
  <time>2026-08-27T18:27:03Z</time>
  <course>140.51</course>
  <speed>0.2</speed>
  <fix>3d</fix>
</trkpt>
<trkpt lat="40.0728569" lon="-105.2306191">
  <ele>1598.68</ele>
  <time>2026-08-27T18:27:03Z</time>
  <course>9.85</course>
  <speed>0.396232255123179</speed>
  <fix>3d</fix>
</trkpt>
<trkpt lat="40.0728576" lon="-105.2306194">
  <ele>1598.45</ele>
  <time>2026-08-27T18:27:03Z</time>
  <course>135.73</course>
  <speed>0.28</speed>
  <fix>3d</fix>
</trkpt>
<trkpt lat="40.0728564" lon="-105.2306182">
  <ele>1598.75</ele>
  <time>2026-08-27T18:27:03Z</time>
  <course>10.04</course>
  <speed>0.5467174773134658</speed>
  <fix>3d</fix>
</trkpt>
<trkpt lat="40.0728571" lon="-105.2306188">
  <ele>1598.55</ele>
  <time>2026-08-27T18:27:03Z</time>
  <course>130.26</course>
  <speed>0.4</speed>
  <fix>3d</fix>
</trkpt>
<trkpt lat="40.0728558" lon="-105.230617">
  <ele>1598.78</ele>
  <time>2026-08-27T18:27:03Z</time>
  <course>10.21</course>
  <speed>0.7381734213584231</speed>
  <fix>3d</fix>
</trkpt>
<trkpt lat="40.0728566" lon="-105.2306179">
  <ele>1598.61</ele>
  <time>2026-08-27T18:27:03Z</time>
  <course>125.41</course>
  <speed>0.55</speed>
  <fix>3d</fix>
</trkpt>
<trkpt lat="40.0728551" lon="-105.2306153">
  <ele>1598.8</ele>
  <time>2026-08-27T18:27:03Z</time>
  <course>10.22</course>
  <speed>0.9433981132056605</speed>
  <fix>3d</fix>
</trkpt>
<trkpt lat="40.072856" lon="-105.2306167">
  <ele>1598.65</ele>
  <time>2026-08-27T18:27:03Z</time>
  <course>121.57</course>
  <speed>0.74</speed>
  <fix>3d</fix>
</trkpt>
<trkpt lat="40.0728542" lon="-105.2306132">
  <ele>1598.79</ele>
  <time>2026-08-27T18:27:03Z</time>
  <course>11.04</course>
  <speed>1.120044641967453</speed>
  <fix>3d</fix>
</trkpt>
<trkpt lat="40.0728552" lon="-105.230615">
  <ele>1598.66</ele>
  <time>2026-08-27T18:27:03Z</time>
  <course>118.65</course>
  <speed>0.94</speed>
  <fix>3d</fix>
</trkpt>
<trkpt lat="40.0728533" lon="-105.2306107">
  <ele>1598.78</ele>
  <time>2026-08-27T18:27:03Z</time>
  <course>23.92</course>
  <speed>1.2790621564255584</speed>
  <fix>3d</fix>
</trkpt>
<trkpt lat="40.0728543" lon="-105.2306128">
  <ele>1598.65</ele>
  <time>2026-08-27T18:27:03Z</time>
  <course>116.81</course>
  <speed>1.12</speed>
  <fix>3d</fix>
</trkpt>
<trkpt lat="40.0728523" lon="-105.2306077">
  <ele>1598.75</ele>
  <time>2026-08-27T18:27:03Z</time>
  <course>36.17</course>
  <speed>1.4392359083902817</speed>
  <fix>3d</fix>
</trkpt>
<trkpt lat="40.0728534" lon="-105.2306103">
  <ele>1598.63</ele>
  <time>2026-08-27T18:27:03Z</time>
  <course>114.33</course>
  <speed>1.27</speed>
  <fix>3d</fix>
</trkpt>
<trkpt lat="40.0728515" lon="-105.2306044">
  <ele>1598.73</ele>
  <time>2026-08-27T18:27:03Z</time>
  <course>48.28</course>
  <speed>1.5463828762631846</speed>
  <fix>3d</fix>
</trkpt>
<trkpt lat="40.0728525" lon="-105.2306073">
  <ele>1598.61</ele>
  <time>2026-08-27T18:27:03Z</time>
  <course>110.62</course>
  <speed>1.43</speed>
  <fix>3d</fix>
</trkpt>
<trkpt lat="40.0728508" lon="-105.2306008">
  <ele>1598.71</ele>
  <time>2026-08-27T18:27:03Z</time>
  <course>60.51</course>
  <speed>1.6298466185503468</speed>
  <fix>3d</fix>
</trkpt>
<trkpt lat="40.0728517" lon="-105.230604">
  <ele>1598.59</ele>
  <time>2026-08-27T18:27:03Z</time>
  <course>106.71</course>
  <speed>1.54</speed>
  <fix>3d</fix>
</trkpt>
<trkpt lat="40.0728502" lon="-105.230597">
  <ele>1598.7</ele>
  <time>2026-08-27T18:27:03Z</time>
  <course>72.77</course>
  <speed>1.6807438829280326</speed>
  <fix>3d</fix>
</trkpt>
<trkpt lat="40.0728509" lon="-105.2306004">
  <ele>1598.58</ele>
  <time>2026-08-27T18:27:03Z</time>
  <course>103.2</course>
  <speed>1.62</speed>
  <fix>3d</fix>
</trkpt>
<trkpt lat="40.0728498" lon="-105.2305931">
  <ele>1598.7</ele>
  <time>2026-08-27T18:27:03Z</time>
  <course>84.98</course>
  <speed>1.7130382365843442</speed>
  <fix>3d</fix>
</trkpt>
<trkpt lat="40.0728503" lon="-105.2305966">
  <ele>1598.57</ele>
  <time>2026-08-27T18:27:03Z</time>
  <course>100.59</course>
  <speed>1.67</speed>
  <fix>3d</fix>
</trkpt>
<trkpt lat="40.0728493" lon="-105.2305892">
  <ele>1598.7</ele>
  <time>2026-08-27T18:27:03Z</time>
  <course>97.07</course>
  <speed>1.7229045243425418</speed>
  <fix>3d</fix>
</trkpt>
<trkpt lat="40.0728498" lon="-105.2305927">
  <ele>1598.57</ele>
  <time>2026-08-27T18:27:03Z</time>
  <course>99.21</course>
  <speed>1.69</speed>
  <fix>3d</fix>
</trkpt>
<trkpt lat="40.0728488" lon="-105.2305853">
  <ele>1598.7</ele>
  <time>2026-08-27T18:27:03Z</time>
  <course>102.34</course>
  <speed>1.727917822120022</speed>
  <fix>3d</fix>
</trkpt>
<trkpt lat="40.0728493" lon="-105.2305887">
  <ele>1598.58</ele>
  <time>2026-08-27T18:27:03Z</time>
  <course>99.93</course>
  <speed>1.7</speed>
  <fix>3d</fix>
</trkpt>
<trkpt lat="40.0728481" lon="-105.2305814">
  <ele>1598.7</ele>
  <time>2026-08-27T18:27:03Z</time>
  <course>103.58</course>
  <speed>1.685734261382855</speed>
  <fix>3d</fix>
</trkpt>
<trkpt lat="40.0728487" lon="-105.2305848">
  <ele>1598.58</ele>
  <time>2026-08-27T18:27:03Z</time>
  <course>101.89</course>
  <speed>1.7</speed>
  <fix>3d</fix>
</trkpt>
<trkpt lat="40.0728474" lon="-105.2305777">
  <ele>1598.7</ele>
  <time>2026-08-27T18:27:03Z</time>
  <course>104.78</course>
  <speed>1.5911002482559042</speed>
  <fix>3d</fix>
</trkpt>
<trkpt lat="40.072848" lon="-105.230581">
  <ele>1598.59</ele>
  <time>2026-08-27T18:27:03Z</time>
  <course>103.46</course>
  <speed>1.66</speed>
  <fix>3d</fix>
</trkpt>
<trkpt lat="40.0728467" lon="-105.2305743">
  <ele>1598.71</ele>
  <time>2026-08-27T18:27:03Z</time>
  <course>106.08</course>
  <speed>1.4244297104455523</speed>
  <fix>3d</fix>
</trkpt>
<trkpt lat="40.0728473" lon="-105.2305772">
  <ele>1598.6</ele>
  <time>2026-08-27T18:27:03Z</time>
  <course>104.76</course>
  <speed>1.56</speed>
  <fix>3d</fix>
</trkpt>
<trkpt lat="40.0728461" lon="-105.2305713">
  <ele>1598.73</ele>
  <time>2026-08-27T18:27:03Z</time>
  <course>107.61</course>
  <speed>1.2050311199301038</speed>
  <fix>3d</fix>
</trkpt>
<trkpt lat="40.0728466" lon="-105.2305739">
  <ele>1598.61</ele>
  <time>2026-08-27T18:27:03Z</time>
  <course>106.14</course>
  <speed>1.39</speed>
  <fix>3d</fix>
</trkpt>
<trkpt lat="40.0728454" lon="-105.230569">
  <ele>1598.74</ele>
  <time>2026-08-27T18:27:03Z</time>
  <course>109.68</course>
  <speed>0.9330058949438638</speed>
  <fix>3d</fix>
</trkpt>
<trkpt lat="40.072846" lon="-105.230571">
  <ele>1598.62</ele>
  <time>2026-08-27T18:27:03Z</time>
  <course>107.89</course>
  <speed>1.17</speed>
  <fix>3d</fix>
</trkpt>
<trkpt lat="40.0728449" lon="-105.2305673">
  <ele>1598.74</ele>
  <time>2026-08-27T18:27:03Z</time>
  <course>110.73</course>
  <speed>0.6440496875241847</speed>
  <fix>3d</fix>
</trkpt>
<trkpt lat="40.0728453" lon="-105.2305687">
  <ele>1598.63</ele>
  <time>2026-08-27T18:27:03Z</time>
  <course>110.9</course>
  <speed>0.9</speed>
  <fix>3d</fix>
</trkpt>
<trkpt lat="40.0728444" lon="-105.2305662">
  <ele>1598.74</ele>
  <time>2026-08-27T18:27:03Z</time>
  <course>110.5</course>
  <speed>0.36235341863986875</speed>
  <fix>3d</fix>
</trkpt>
<trkpt lat="40.0728448" lon="-105.2305671">
  <ele>1598.63</ele>
  <time>2026-08-27T18:27:03Z</time>
  <course>117.15</course>
  <speed>0.61</speed>
  <fix>3d</fix>
</trkpt>
<trkpt lat="40.0728441" lon="-105.2305659">
  <ele>1598.73</ele>
  <time>2026-08-27T18:27:03Z</time>
  <course>110.39</course>
  <speed>0.18027756377319945</speed>
  <fix>3d</fix>
</trkpt>
<trkpt lat="40.0728443" lon="-105.2305662">
  <ele>1598.63</ele>
  <time>2026-08-27T18:27:03Z</time>
  <course>133.25</course>
  <speed>0.34</speed>
  <fix>3d</fix>
</trkpt>
<trkpt lat="40.0728437" lon="-105.2305661">
  <ele>1598.73</ele>
  <time>2026-08-27T18:27:03Z</time>
  <course>110.21</course>
  <speed>0.25612496949731395</speed>
  <fix>3d</fix>
</trkpt>
<trkpt lat="40.0728439" lon="-105.2305659">
  <ele>1598.62</ele>
  <time>2026-08-27T18:27:03Z</time>
  <course>187.49</course>
  <speed>0.19</speed>
  <fix>3d</fix>
</trkpt>
<trkpt lat="40.0728435" lon="-105.2305667">
  <ele>1598.73</ele>
  <time>2026-08-27T18:27:03Z</time>
  <course>110.04</course>
  <speed>0.38626415831655936</speed>
  <fix>3d</fix>
</trkpt>
<trkpt lat="40.0728436" lon="-105.2305662">
  <ele>1598.61</ele>
  <time>2026-08-27T18:27:03Z</time>
  <course>237.12</course>
  <speed>0.29</speed>
  <fix>3d</fix>
</trkpt>
<trkpt lat="40.0728432" lon="-105.2305677">
  <ele>1598.72</ele>
  <time>2026-08-27T18:27:03Z</time>
  <course>109.93</course>
  <speed>0.4808326112068523</speed>
  <fix>3d</fix>
</trkpt>
<trkpt lat="40.0728433" lon="-105.2305669">
  <ele>1598.6</ele>
  <time>2026-08-27T18:27:03Z</time>
  <course>250.35</course>
  <speed>0.43</speed>
  <fix>3d</fix>
</trkpt>
<trkpt lat="40.0728429" lon="-105.2305689">
  <ele>1598.71</ele>
  <time>2026-08-27T18:27:03Z</time>
  <course>109.8</course>
  <speed>0.5124451190127582</speed>
  <fix>3d</fix>
</trkpt>
<trkpt lat="40.0728431" lon="-105.230568">
  <ele>1598.59</ele>
  <time>2026-08-27T18:27:03Z</time>
  <course>254.12</course>
  <speed>0.52</speed>
  <fix>3d</fix>
</trkpt>
<trkpt lat="40.0728426" lon="-105.2305701">
  <ele>1598.71</ele>
  <time>2026-08-27T18:27:03Z</time>
  <course>102.63</course>
  <speed>0.5462600113499065</speed>
  <fix>3d</fix>
</trkpt>
<trkpt lat="40.0728428" lon="-105.2305692">
  <ele>1598.59</ele>
  <time>2026-08-27T18:27:03Z</time>
  <course>253.16</course>
  <speed>0.56</speed>
  <fix>3d</fix>
</trkpt>
<trkpt lat="40.0728422" lon="-105.2305713">
  <ele>1598.7</ele>
  <time>2026-08-27T18:27:03Z</time>
  <course>89.07</course>
  <speed>0.5032891812864648</speed>
  <fix>3d</fix>
</trkpt>
<trkpt lat="40.0728425" lon="-105.2305705">
  <ele>1598.58</ele>
  <time>2026-08-27T18:27:03Z</time>
  <course>250.68</course>
  <speed>0.57</speed>
  <fix>3d</fix>
</trkpt>
<trkpt lat="40.0728419" lon="-105.2305725">
  <ele>1598.7</ele>
  <time>2026-08-27T18:27:03Z</time>
  <course>76.63</course>
  <speed>0.4838388161361178</speed>
  <fix>3d</fix>
</trkpt>
<trkpt lat="40.0728421" lon="-105.2305718">
  <ele>1598.58</ele>
  <time>2026-08-27T18:27:03Z</time>
  <course>251.14</course>
  <speed>0.55</speed>
  <fix>3d</fix>
</trkpt>
<trkpt lat="40.0728417" lon="-105.2305737">
  <ele>1598.69</ele>
  <time>2026-08-27T18:27:03Z</time>
  <course>64.5</course>
  <speed>0.4753945729601885</speed>
  <fix>3d</fix>
</trkpt>
<trkpt lat="40.0728419" lon="-105.2305729">
  <ele>1598.58</ele>
  <time>2026-08-27T18:27:03Z</time>
  <course>253.98</course>
  <speed>0.52</speed>
  <fix>3d</fix>
</trkpt>
<trkpt lat="40.0728415" lon="-105.2305749">
  <ele>1598.7</ele>
  <time>2026-08-27T18:27:03Z</time>
  <course>52.45</course>
  <speed>0.4753945729601885</speed>
  <fix>3d</fix>
</trkpt>
<trkpt lat="40.0728417" lon="-105.2305742">
  <ele>1598.59</ele>
  <time>2026-08-27T18:27:03Z</time>
  <course>256.3</course>
  <speed>0.5</speed>
  <fix>3d</fix>
</trkpt>
<trkpt lat="40.0728413" lon="-105.230576">
  <ele>1598.7</ele>
  <time>2026-08-27T18:27:03Z</time>
  <course>40.39</course>
  <speed>0.45607017003965516</speed>
  <fix>3d</fix>
</trkpt>
<trkpt lat="40.0728414" lon="-105.2305753">
  <ele>1598.59</ele>
  <time>2026-08-27T18:27:03Z</time>
  <course>256.94</course>
  <speed>0.49</speed>
  <fix>3d</fix>
</trkpt>
<trkpt lat="40.072841" lon="-105.2305771">
  <ele>1598.7</ele>
  <time>2026-08-27T18:27:03Z</time>
  <course>28.34</course>
  <speed>0.4332435804486894</speed>
  <fix>3d</fix>
</trkpt>
<trkpt lat="40.0728413" lon="-105.2305764">
  <ele>1598.59</ele>
  <time>2026-08-27T18:27:03Z</time>
  <course>255.78</course>
  <speed>0.47</speed>
  <fix>3d</fix>
</trkpt>
<trkpt lat="40.0728408" lon="-105.2305781">
  <ele>1598.71</ele>
  <time>2026-08-27T18:27:03Z</time>
  <course>16.4</course>
  <speed>0.40311288741492746</speed>
  <fix>3d</fix>
</trkpt>
<trkpt lat="40.072841" lon="-105.2305775">
  <ele>1598.6</ele>
  <time>2026-08-27T18:27:03Z</time>
  <course>253.09</course>
  <speed>0.44</speed>
  <fix>3d</fix>
</trkpt>
<trkpt lat="40.0728405" lon="-105.230579">
  <ele>1598.71</ele>
  <time>2026-08-27T18:27:03Z</time>
  <course>9.55</course>
  <speed>0.416293165929973</speed>
  <fix>3d</fix>
</trkpt>
<trkpt lat="40.0728407" lon="-105.2305784">
  <ele>1598.6</ele>
  <time>2026-08-27T18:27:03Z</time>
  <course>249.6</course>
  <speed>0.41</speed>
  <fix>3d</fix>
</trkpt>
<trkpt lat="40.0728402" lon="-105.2305798">
  <ele>1598.72</ele>
  <time>2026-08-27T18:27:03Z</time>
  <course>11.4</course>
  <speed>0.34985711369071804</speed>
  <fix>3d</fix>
</trkpt>
<trkpt lat="40.0728405" lon="-105.2305793">
  <ele>1598.61</ele>
  <time>2026-08-27T18:27:03Z</time>
  <course>246.76</course>
  <speed>0.38</speed>
  <fix>3d</fix>
</trkpt>
<trkpt lat="40.0728399" lon="-105.2305805">
  <ele>1598.72</ele>
  <time>2026-08-27T18:27:03Z</time>
  <course>11.56</course>
  <speed>0.27018512172212594</speed>
  <fix>3d</fix>
</trkpt>
<trkpt lat="40.0728402" lon="-105.2305801">
  <ele>1598.61</ele>
  <time>2026-08-27T18:27:03Z</time>
  <course>242.49</course>
  <speed>0.33</speed>
  <fix>3d</fix>
</trkpt>
<trkpt lat="40.0728397" lon="-105.2305809">
  <ele>1598.72</ele>
  <time>2026-08-27T18:27:03Z</time>
  <course>11.57</course>
  <speed>0.191049731745428</speed>
  <fix>3d</fix>
</trkpt>
<trkpt lat="40.07284" lon="-105.2305806">
  <ele>1598.61</ele>
  <time>2026-08-27T18:27:03Z</time>
  <course>234.77</course>
  <speed>0.24</speed>
  <fix>3d</fix>
</trkpt>
<trkpt lat="40.0728395" lon="-105.2305811">
  <ele>1598.72</ele>
  <time>2026-08-27T18:27:03Z</time>
  <course>11.55</course>
  <speed>0.12083045973594572</speed>
  <fix>3d</fix>
</trkpt>
<trkpt lat="40.0728397" lon="-105.230581">
  <ele>1598.61</ele>
  <time>2026-08-27T18:27:03Z</time>
  <course>224.3</course>
  <speed>0.16</speed>
  <fix>3d</fix>
</trkpt>
<trkpt lat="40.0728393" lon="-105.2305811">
  <ele>1598.71</ele>
  <time>2026-08-27T18:27:03Z</time>
  <course>11.52</course>
  <speed>0.07071067811865475</speed>
  <fix>3d</fix>
</trkpt>
<trkpt lat="40.0728395" lon="-105.2305812">
  <ele>1598.61</ele>
  <time>2026-08-27T18:27:03Z</time>
  <course>203.56</course>
  <speed>0.09</speed>
  <fix>3d</fix>
</trkpt>
<trkpt lat="40.0728393" lon="-105.230581">
  <ele>1598.71</ele>
  <time>2026-08-27T18:27:03Z</time>
  <course>11.51</course>
  <speed>0.0670820393249937</speed>
  <fix>3d</fix>
</trkpt>
<trkpt lat="40.0728394" lon="-105.2305812">
  <ele>1598.61</ele>
  <time>2026-08-27T18:27:03Z</time>
  <course>142.85</course>
  <speed>0.05</speed>
  <fix>3d</fix>
</trkpt>
<trkpt lat="40.0728393" lon="-105.2305809">
  <ele>1598.71</ele>
  <time>2026-08-27T18:27:03Z</time>
  <course>11.5</course>
  <speed>0.11</speed>
  <fix>3d</fix>
</trkpt>
<trkpt lat="40.0728394" lon="-105.2305811">
  <ele>1598.61</ele>
  <time>2026-08-27T18:27:03Z</time>
  <course>91.85</course>
  <speed>0.09</speed>
  <fix>3d</fix>
</trkpt>
<trkpt lat="40.0728393" lon="-105.2305806">
  <ele>1598.72</ele>
  <time>2026-08-27T18:27:03Z</time>
  <course>11.5</course>
  <speed>0.15297058540778355</speed>
  <fix>3d</fix>
</trkpt>
<trkpt lat="40.0728394" lon="-105.2305809">
  <ele>1598.61</ele>
  <time>2026-08-27T18:27:03Z</time>
  <course>76.11</course>
  <speed>0.14</speed>
  <fix>3d</fix>
</trkpt>
<trkpt lat="40.0728394" lon="-105.2305801">
  <ele>1598.72</ele>
  <time>2026-08-27T18:27:03Z</time>
  <course>11.51</course>
  <speed>0.19924858845171275</speed>
  <fix>3d</fix>
</trkpt>
<trkpt lat="40.0728395" lon="-105.2305805">
  <ele>1598.61</ele>
  <time>2026-08-27T18:27:03Z</time>
  <course>69.07</course>
  <speed>0.19</speed>
  <fix>3d</fix>
</trkpt>
<trkpt lat="40.0728396" lon="-105.2305796">
  <ele>1598.72</ele>
  <time>2026-08-27T18:27:03Z</time>
  <course>11.51</course>
  <speed>0.22847319317591727</speed>
  <fix>3d</fix>
</trkpt>
<trkpt lat="40.0728396" lon="-105.23058">
  <ele>1598.61</ele>
  <time>2026-08-27T18:27:03Z</time>
  <course>64.92</course>
  <speed>0.24</speed>
  <fix>3d</fix>
</trkpt>
<trkpt lat="40.0728398" lon="-105.2305791">
  <ele>1598.72</ele>
  <time>2026-08-27T18:27:03Z</time>
  <course>11.5</course>
  <speed>0.25495097567963926</speed>
  <fix>3d</fix>
</trkpt>
<trkpt lat="40.0728397" lon="-105.2305795">
  <ele>1598.61</ele>
  <time>2026-08-27T18:27:03Z</time>
  <course>62.06</course>
  <speed>0.27</speed>
  <fix>3d</fix>
</trkpt>
<trkpt lat="40.0728401" lon="-105.2305785">
  <ele>1598.71</ele>
  <time>2026-08-27T18:27:03Z</time>
  <course>11.51</course>
  <speed>0.2683281572999748</speed>
  <fix>3d</fix>
</trkpt>
<trkpt lat="40.07284" lon="-105.2305789">
  <ele>1598.6</ele>
  <time>2026-08-27T18:27:03Z</time>
  <course>59.82</course>
  <speed>0.29</speed>
  <fix>3d</fix>
</trkpt>
<trkpt lat="40.0728404" lon="-105.2305779">
  <ele>1598.7</ele>
  <time>2026-08-27T18:27:03Z</time>
  <course>11.52</course>
  <speed>0.27294688127912364</speed>
  <fix>3d</fix>
</trkpt>
<trkpt lat="40.0728403" lon="-105.2305782">
  <ele>1598.6</ele>
  <time>2026-08-27T18:27:03Z</time>
  <course>58.02</course>
  <speed>0.31</speed>
  <fix>3d</fix>
</trkpt>
<trkpt lat="40.0728407" lon="-105.2305773">
  <ele>1598.7</ele>
  <time>2026-08-27T18:27:03Z</time>
  <course>11.51</course>
  <speed>0.2692582403567252</speed>
  <fix>3d</fix>
</trkpt>
<trkpt lat="40.0728406" lon="-105.2305777">
  <ele>1598.6</ele>
  <time>2026-08-27T18:27:03Z</time>
  <course>56.65</course>
  <speed>0.31</speed>
  <fix>3d</fix>
</trkpt>
<trkpt lat="40.072841" lon="-105.2305767">
  <ele>1598.7</ele>
  <time>2026-08-27T18:27:03Z</time>
  <course>11.52</course>
  <speed>0.25553864678361277</speed>
  <fix>3d</fix>
</trkpt>
<trkpt lat="40.0728409" lon="-105.2305771">
  <ele>1598.6</ele>
  <time>2026-08-27T18:27:03Z</time>
  <course>55.57</course>
  <speed>0.31</speed>
  <fix>3d</fix>
</trkpt>
<trkpt lat="40.0728413" lon="-105.2305761">
  <ele>1598.69</ele>
  <time>2026-08-27T18:27:03Z</time>
  <course>11.53</course>
  <speed>0.23853720883753127</speed>
  <fix>3d</fix>
</trkpt>
<trkpt lat="40.0728412" lon="-105.2305765">
  <ele>1598.6</ele>
  <time>2026-08-27T18:27:03Z</time>
  <course>54.61</course>
  <speed>0.29</speed>
  <fix>3d</fix>
</trkpt>
<trkpt lat="40.0728415" lon="-105.2305756">
  <ele>1598.69</ele>
  <time>2026-08-27T18:27:03Z</time>
  <course>11.59</course>
  <speed>0.21633307652783937</speed>
  <fix>3d</fix>
</trkpt>
<trkpt lat="40.0728415" lon="-105.2305759">
  <ele>1598.61</ele>
  <time>2026-08-27T18:27:03Z</time>
  <course>53.75</course>
  <speed>0.27</speed>
  <fix>3d</fix>
</trkpt>
<trkpt lat="40.0728418" lon="-105.2305752">
  <ele>1598.68</ele>
  <time>2026-08-27T18:27:03Z</time>
  <course>11.89</course>
  <speed>0.18027756377319945</speed>
  <fix>3d</fix>
</trkpt>
<trkpt lat="40.0728418" lon="-105.2305754">
  <ele>1598.61</ele>
  <time>2026-08-27T18:27:03Z</time>
  <course>52.72</course>
  <speed>0.25</speed>
  <fix>3d</fix>
</trkpt>
<trkpt lat="40.072842" lon="-105.2305748">
  <ele>1598.62</ele>
  <time>2026-08-27T18:27:03Z</time>
  <course>12.34</course>
  <speed>0.15811388300841897</speed>
  <fix>3d</fix>
</trkpt>
<trkpt lat="40.0728421" lon="-105.2305749">
  <ele>1598.59</ele>
  <time>2026-08-27T18:27:03Z</time>
  <course>51.59</course>
  <speed>0.22</speed>
  <fix>3d</fix>
</trkpt>
<trkpt lat="40.0728422" lon="-105.2305745">
  <ele>1598.53</ele>
  <time>2026-08-27T18:27:03Z</time>
  <course>12.82</course>
  <speed>0.130384048104053</speed>
  <fix>3d</fix>
</trkpt>
<trkpt lat="40.0728424" lon="-105.2305746">
  <ele>1598.53</ele>
  <time>2026-08-27T18:27:03Z</time>
  <course>51.1</course>
  <speed>0.19</speed>
  <fix>3d</fix>
</trkpt>
<trkpt lat="40.0728424" lon="-105.2305742">
  <ele>1598.39</ele>
  <time>2026-08-27T18:27:03Z</time>
  <course>13.3</course>
  <speed>0.10295630140987001</speed>
  <fix>3d</fix>
</trkpt>
<trkpt lat="40.0728426" lon="-105.2305742">
  <ele>1598.44</ele>
  <time>2026-08-27T18:27:03Z</time>
  <course>51.82</course>
  <speed>0.16</speed>
  <fix>3d</fix>
</trkpt>
<trkpt lat="40.0728426" lon="-105.2305739">
  <ele>1598.2</ele>
  <time>2026-08-27T18:27:03Z</time>
  <course>13.75</course>
  <speed>0.0854400374531753</speed>
  <fix>3d</fix>
</trkpt>
<trkpt lat="40.0728427" lon="-105.2305739">
  <ele>1598.29</ele>
  <time>2026-08-27T18:27:03Z</time>
  <course>54.17</course>
  <speed>0.13</speed>
  <fix>3d</fix>
</trkpt>
<trkpt lat="40.0728427" lon="-105.2305737">
  <ele>1597.97</ele>
  <time>2026-08-27T18:27:03Z</time>
  <course>13.97</course>
  <speed>0.07071067811865475</speed>
  <fix>3d</fix>
</trkpt>
<trkpt lat="40.0728428" lon="-105.2305737">
  <ele>1598.1</ele>
  <time>2026-08-27T18:27:03Z</time>
  <course>58.84</course>
  <speed>0.11</speed>
  <fix>3d</fix>
</trkpt>
<trkpt lat="40.0728427" lon="-105.2305735">
  <ele>1597.69</ele>
  <time>2026-08-27T18:27:03Z</time>
  <course>13.92</course>
  <speed>0.05</speed>
  <fix>3d</fix>
</trkpt>
<trkpt lat="40.0728429" lon="-105.2305735">
  <ele>1597.86</ele>
  <time>2026-08-27T18:27:03Z</time>
  <course>66.01</course>
  <speed>0.08</speed>
  <fix>3d</fix>
</trkpt>
<trkpt lat="40.0728427" lon="-105.2305734">
  <ele>1597.37</ele>
  <time>2026-08-27T18:27:03Z</time>
  <course>13.95</course>
  <speed>0.044721359549995794</speed>
  <fix>3d</fix>
</trkpt>
<trkpt lat="40.072843" lon="-105.2305734">
  <ele>1597.58</ele>
  <time>2026-08-27T18:27:03Z</time>
  <course>77.53</course>
  <speed>0.06</speed>
  <fix>3d</fix>
</trkpt>
<trkpt lat="40.0728427" lon="-105.2305733">
  <ele>1597.07</ele>
  <time>2026-08-27T18:27:03Z</time>
  <course>13.9</course>
  <speed>0.05830951894845301</speed>
  <fix>3d</fix>
</trkpt>
<trkpt lat="40.072843" lon="-105.2305732">
  <ele>1597.27</ele>
  <time>2026-08-27T18:27:03Z</time>
  <course>102.12</course>
  <speed>0.04</speed>
  <fix>3d</fix>
</trkpt>
<trkpt lat="40.0728427" lon="-105.2305732">
  <ele>1596.79</ele>
  <time>2026-08-27T18:27:03Z</time>
  <course>13.83</course>
  <speed>0.07280109889280519</speed>
  <fix>3d</fix>
</trkpt>
<trkpt lat="40.072843" lon="-105.2305731">
  <ele>1596.97</ele>
  <time>2026-08-27T18:27:03Z</time>
  <course>135.37</course>
  <speed>0.04</speed>
  <fix>3d</fix>
</trkpt>
<trkpt lat="40.0728426" lon="-105.2305731">
  <ele>1596.56</ele>
  <time>2026-08-27T18:27:03Z</time>
  <course>13.43</course>
  <speed>0.08062257748298549</speed>
  <fix>3d</fix>
</trkpt>
<trkpt lat="40.0728429" lon="-105.2305731">
  <ele>1596.7</ele>
  <time>2026-08-27T18:27:03Z</time>
  <course>157.97</course>
  <speed>0.05</speed>
  <fix>3d</fix>
</trkpt>
<trkpt lat="40.0728425" lon="-105.2305731">
  <ele>1596.38</ele>
  <time>2026-08-27T18:27:03Z</time>
  <course>12.87</course>
  <speed>0.09</speed>
  <fix>3d</fix>
</trkpt>
<trkpt lat="40.0728428" lon="-105.2305731">
  <ele>1596.48</ele>
  <time>2026-08-27T18:27:03Z</time>
  <course>175.37</course>
  <speed>0.06</speed>
  <fix>3d</fix>
</trkpt>
<trkpt lat="40.0728424" lon="-105.2305732">
  <ele>1596.24</ele>
  <time>2026-08-27T18:27:03Z</time>
  <course>12.39</course>
  <speed>0.09486832980505139</speed>
  <fix>3d</fix>
</trkpt>
<trkpt lat="40.0728427" lon="-105.2305731">
  <ele>1596.3</ele>
  <time>2026-08-27T18:27:03Z</time>
  <course>193.56</course>
  <speed>0.07</speed>
  <fix>3d</fix>
</trkpt>
<trkpt lat="40.0728423" lon="-105.2305732">
  <ele>1596.13</ele>
  <time>2026-08-27T18:27:03Z</time>
  <course>12.09</course>
  <speed>0.10816653826391968</speed>
  <fix>3d</fix>
</trkpt>
<trkpt lat="40.0728426" lon="-105.2305731">
  <ele>1596.16</ele>
  <time>2026-08-27T18:27:03Z</time>
  <course>210.67</course>
  <speed>0.09</speed>
  <fix>3d</fix>
</trkpt>
<trkpt lat="40.0728422" lon="-105.2305734">
  <ele>1596.04</ele>
  <time>2026-08-27T18:27:03Z</time>
  <course>11.97</course>
  <speed>0.12041594578792296</speed>
  <fix>3d</fix>
</trkpt>
<trkpt lat="40.0728424" lon="-105.2305732">
  <ele>1596.06</ele>
  <time>2026-08-27T18:27:03Z</time>
  <course>223.55</course>
  <speed>0.1</speed>
  <fix>3d</fix>
</trkpt>
<trkpt lat="40.072842" lon="-105.2305736">
  <ele>1595.96</ele>
  <time>2026-08-27T18:27:03Z</time>
  <course>11.94</course>
  <speed>0.12041594578792296</speed>
  <fix>3d</fix>
</trkpt>
<trkpt lat="40.0728423" lon="-105.2305734">
  <ele>1595.97</ele>
  <time>2026-08-27T18:27:03Z</time>
  <course>232.09</course>
  <speed>0.12</speed>
  <fix>3d</fix>
</trkpt>
<trkpt lat="40.0728419" lon="-105.2305738">
  <ele>1595.88</ele>
  <time>2026-08-27T18:27:03Z</time>
  <course>11.92</course>
  <speed>0.12206555615733702</speed>
  <fix>3d</fix>
</trkpt>
<trkpt lat="40.0728421" lon="-105.2305736">
  <ele>1595.89</ele>
  <time>2026-08-27T18:27:03Z</time>
  <course>238.04</course>
  <speed>0.13</speed>
  <fix>3d</fix>
</trkpt>
<trkpt lat="40.0728418" lon="-105.2305741">
  <ele>1595.8</ele>
  <time>2026-08-27T18:27:03Z</time>
  <course>11.94</course>
  <speed>0.11661903789690602</speed>
  <fix>3d</fix>
</trkpt>
<trkpt lat="40.072842" lon="-105.2305739">
  <ele>1595.81</ele>
  <time>2026-08-27T18:27:03Z</time>
  <course>242.96</course>
  <speed>0.13</speed>
  <fix>3d</fix>
</trkpt>
<trkpt lat="40.0728417" lon="-105.2305744">
  <ele>1595.72</ele>
  <time>2026-08-27T18:27:03Z</time>
  <course>11.98</course>
  <speed>0.1118033988749895</speed>
  <fix>3d</fix>
</trkpt>
<trkpt lat="40.0728419" lon="-105.2305742">
  <ele>1595.73</ele>
  <time>2026-08-27T18:27:03Z</time>
  <course>247.52</course>
  <speed>0.13</speed>
  <fix>3d</fix>
</trkpt>
<trkpt lat="40.0728417" lon="-105.2305746">
  <ele>1595.63</ele>
  <time>2026-08-27T18:27:03Z</time>
  <course>11.98</course>
  <speed>0.10770329614269007</speed>
  <fix>3d</fix>
</trkpt>
<trkpt lat="40.0728418" lon="-105.2305745">
  <ele>1595.64</ele>
  <time>2026-08-27T18:27:03Z</time>
  <course>252.03</course>
  <speed>0.13</speed>
  <fix>3d</fix>
</trkpt>
<trkpt lat="40.0728416" lon="-105.2305749">
  <ele>1595.54</ele>
  <time>2026-08-27T18:27:03Z</time>
  <course>12.03</course>
  <speed>0.09486832980505139</speed>
  <fix>3d</fix>
</trkpt>
<trkpt lat="40.0728418" lon="-105.2305748">
  <ele>1595.56</ele>
  <time>2026-08-27T18:27:03Z</time>
  <course>256.75</course>
  <speed>0.12</speed>
  <fix>3d</fix>
</trkpt>
<trkpt lat="40.0728416" lon="-105.2305751">
  <ele>1595.45</ele>
  <time>2026-08-27T18:27:03Z</time>
  <course>12.06</course>
  <speed>0.0824621125123532</speed>
  <fix>3d</fix>
</trkpt>
<trkpt lat="40.0728418" lon="-105.230575">
  <ele>1595.47</ele>
  <time>2026-08-27T18:27:03Z</time>
  <course>261.93</course>
  <speed>0.11</speed>
  <fix>3d</fix>
</trkpt>
<trkpt lat="40.0728416" lon="-105.2305753">
  <ele>1595.35</ele>
  <time>2026-08-27T18:27:03Z</time>
  <course>12.09</course>
  <speed>0.06082762530298219</speed>
  <fix>3d</fix>
</trkpt>
<trkpt lat="40.0728418" lon="-105.2305753">
  <ele>1595.37</ele>
  <time>2026-08-27T18:27:03Z</time>
  <course>267.91</course>
  <speed>0.1</speed>
  <fix>3d</fix>
</trkpt>
<trkpt lat="40.0728417" lon="-105.2305755">
  <ele>1595.25</ele>
  <time>2026-08-27T18:27:03Z</time>
  <course>12.1</course>
  <speed>0.05</speed>
  <fix>3d</fix>
</trkpt>
<trkpt lat="40.0728418" lon="-105.2305755">
  <ele>1595.28</ele>
  <time>2026-08-27T18:27:03Z</time>
  <course>275.1</course>
  <speed>0.08</speed>
  <fix>3d</fix>
</trkpt>
<trkpt lat="40.0728417" lon="-105.2305757">
  <ele>1595.15</ele>
  <time>2026-08-27T18:27:03Z</time>
  <course>12.08</course>
  <speed>0.03</speed>
  <fix>3d</fix>
</trkpt>
<trkpt lat="40.0728418" lon="-105.2305757">
  <ele>1595.17</ele>
  <time>2026-08-27T18:27:03Z</time>
  <course>283.83</course>
  <speed>0.07</speed>
  <fix>3d</fix>
</trkpt>
<trkpt lat="40.0728417" lon="-105.2305758">
  <ele>1595.05</ele>
  <time>2026-08-27T18:27:03Z</time>
  <course>12.06</course>
  <speed>0.022360679774997897</speed>
  <fix>3d</fix>
</trkpt>
<trkpt lat="40.0728418" lon="-105.2305758">
  <ele>1595.08</ele>
  <time>2026-08-27T18:27:03Z</time>
  <course>294.08</course>
  <speed>0.06</speed>
  <fix>3d</fix>
</trkpt>
<trkpt lat="40.0728417" lon="-105.2305759">
  <ele>1594.95</ele>
  <time>2026-08-27T18:27:03Z</time>
  <course>12.06</course>
  <speed>0.01414213562373095</speed>
  <fix>3d</fix>
</trkpt>
<trkpt lat="40.0728418" lon="-105.230576">
  <ele>1594.97</ele>
  <time>2026-08-27T18:27:03Z</time>
  <course>305.86</course>
  <speed>0.05</speed>
  <fix>3d</fix>
</trkpt>
<trkpt lat="40.0728418" lon="-105.2305759">
  <ele>1594.85</ele>
  <time>2026-08-27T18:27:03Z</time>
  <course>12.06</course>
  <speed>0.02</speed>
  <fix>3d</fix>
</trkpt>
<trkpt lat="40.0728418" lon="-105.2305761">
  <ele>1594.87</ele>
  <time>2026-08-27T18:27:03Z</time>
  <course>319.36</course>
  <speed>0.05</speed>
  <fix>3d</fix>
</trkpt>
<trkpt lat="40.0728419" lon="-105.2305759">
  <ele>1594.74</ele>
  <time>2026-08-27T18:27:03Z</time>
  <course>12.04</course>
  <speed>0.022360679774997897</speed>
  <fix>3d</fix>
</trkpt>
<trkpt lat="40.0728419" lon="-105.2305762">
  <ele>1594.77</ele>
  <time>2026-08-27T18:27:03Z</time>
  <course>334.55</course>
  <speed>0.04</speed>
  <fix>3d</fix>
</trkpt>
<trkpt lat="40.0728419" lon="-105.230576">
  <ele>1594.64</ele>
  <time>2026-08-27T18:27:03Z</time>
  <course>12.0</course>
  <speed>0.0282842712474619</speed>
  <fix>3d</fix>
</trkpt>
<trkpt lat="40.072842" lon="-105.2305762">
  <ele>1594.66</ele>
  <time>2026-08-27T18:27:03Z</time>
  <course>349.85</course>
  <speed>0.04</speed>
  <fix>3d</fix>
</trkpt>
<trkpt lat="40.072842" lon="-105.230576">
  <ele>1594.54</ele>
  <time>2026-08-27T18:27:03Z</time>
  <course>11.98</course>
  <speed>0.03605551275463989</speed>
  <fix>3d</fix>
</trkpt>
<trkpt lat="40.072842" lon="-105.2305762">
  <ele>1594.57</ele>
  <time>2026-08-27T18:27:03Z</time>
  <course>3.44</course>
  <speed>0.04</speed>
  <fix>3d</fix>
</trkpt>
<trkpt lat="40.0728421" lon="-105.230576">
  <ele>1594.44</ele>
  <time>2026-08-27T18:27:03Z</time>
  <course>11.95</course>
  <speed>0.0412310562561766</speed>
  <fix>3d</fix>
</trkpt>
<trkpt lat="40.0728421" lon="-105.2305762">
  <ele>1594.47</ele>
  <time>2026-08-27T18:27:03Z</time>
  <course>15.16</course>
  <speed>0.04</speed>
  <fix>3d</fix>
</trkpt>
<trkpt lat="40.0728421" lon="-105.2305759">
  <ele>1594.34</ele>
  <time>2026-08-27T18:27:03Z</time>
  <course>11.94</course>
  <speed>0.0412310562561766</speed>
  <fix>3d</fix>
</trkpt>
<trkpt lat="40.0728422" lon="-105.2305762">
  <ele>1594.37</ele>
  <time>2026-08-27T18:27:03Z</time>
  <course>24.98</course>
  <speed>0.04</speed>
  <fix>3d</fix>
</trkpt>
<trkpt lat="40.0728422" lon="-105.2305759">
  <ele>1594.24</ele>
  <time>2026-08-27T18:27:03Z</time>
  <course>11.94</course>
  <speed>0.05099019513592785</speed>
  <fix>3d</fix>
</trkpt>
<trkpt lat="40.0728423" lon="-105.2305762">
  <ele>1594.27</ele>
  <time>2026-08-27T18:27:03Z</time>
  <course>33.02</course>
  <speed>0.04</speed>
  <fix>3d</fix>
</trkpt>
<trkpt lat="40.0728422" lon="-105.2305758">
  <ele>1594.14</ele>
  <time>2026-08-27T18:27:03Z</time>
  <course>11.93</course>
  <speed>0.05</speed>
  <fix>3d</fix>
</trkpt>
<trkpt lat="40.0728424" lon="-105.2305761">
  <ele>1594.16</ele>
  <time>2026-08-27T18:27:03Z</time>
  <course>40.46</course>
  <speed>0.04</speed>
  <fix>3d</fix>
</trkpt>
<trkpt lat="40.0728423" lon="-105.2305758">
  <ele>1594.04</ele>
  <time>2026-08-27T18:27:03Z</time>
  <course>11.91</course>
  <speed>0.05</speed>
  <fix>3d</fix>
</trkpt>
<trkpt lat="40.0728424" lon="-105.230576">
  <ele>1594.07</ele>
  <time>2026-08-27T18:27:03Z</time>
  <course>47.64</course>
  <speed>0.04</speed>
  <fix>3d</fix>
</trkpt>
<trkpt lat="40.0728423" lon="-105.2305757">
  <ele>1593.94</ele>
  <time>2026-08-27T18:27:03Z</time>
  <course>11.9</course>
  <speed>0.05</speed>
  <fix>3d</fix>
</trkpt>
<trkpt lat="40.0728425" lon="-105.2305759">
  <ele>1593.97</ele>
  <time>2026-08-27T18:27:03Z</time>
  <course>54.68</course>
  <speed>0.04</speed>
  <fix>3d</fix>
</trkpt>
<trkpt lat="40.0728423" lon="-105.2305756">
  <ele>1593.84</ele>
  <time>2026-08-27T18:27:03Z</time>
  <course>11.89</course>
  <speed>0.05099019513592785</speed>
  <fix>3d</fix>
</trkpt>
<trkpt lat="40.0728425" lon="-105.2305758">
  <ele>1593.87</ele>
  <time>2026-08-27T18:27:03Z</time>
  <course>61.71</course>
  <speed>0.04</speed>
  <fix>3d</fix>
</trkpt>
<trkpt lat="40.0728424" lon="-105.2305755">
  <ele>1593.74</ele>
  <time>2026-08-27T18:27:03Z</time>
  <course>11.88</course>
  <speed>0.05099019513592785</speed>
  <fix>3d</fix>
</trkpt>
<trkpt lat="40.0728426" lon="-105.2305758">
  <ele>1593.78</ele>
  <time>2026-08-27T18:27:03Z</time>
  <course>68.75</course>
  <speed>0.04</speed>
  <fix>3d</fix>
</trkpt>
<trkpt lat="40.0728424" lon="-105.2305754">
  <ele>1593.65</ele>
  <time>2026-08-27T18:27:03Z</time>
  <course>11.87</course>
  <speed>0.053851648071345036</speed>
  <fix>3d</fix>
</trkpt>
<trkpt lat="40.0728426" lon="-105.2305757">
  <ele>1593.67</ele>
  <time>2026-08-27T18:27:03Z</time>
  <course>76.22</course>
  <speed>0.03</speed>
  <fix>3d</fix>
</trkpt>
<trkpt lat="40.0728424" lon="-105.2305754">
  <ele>1593.55</ele>
  <time>2026-08-27T18:27:03Z</time>
  <course>11.86</course>
  <speed>0.044721359549995794</speed>
  <fix>3d</fix>
</trkpt>
<trkpt lat="40.0728426" lon="-105.2305756">
  <ele>1593.58</ele>
  <time>2026-08-27T18:27:03Z</time>
  <course>84.42</course>
  <speed>0.03</speed>
  <fix>3d</fix>
</trkpt>
<trkpt lat="40.0728424" lon="-105.2305753">
  <ele>1593.45</ele>
  <time>2026-08-27T18:27:03Z</time>
  <course>11.87</course>
  <speed>0.044721359549995794</speed>
  <fix>3d</fix>
</trkpt>
<trkpt lat="40.0728426" lon="-105.2305755">
  <ele>1593.48</ele>
  <time>2026-08-27T18:27:03Z</time>
  <course>93.08</course>
  <speed>0.03</speed>
  <fix>3d</fix>
</trkpt>
<trkpt lat="40.0728424" lon="-105.2305752">
  <ele>1593.35</ele>
  <time>2026-08-27T18:27:03Z</time>
  <course>11.86</course>
  <speed>0.05</speed>
  <fix>3d</fix>
</trkpt>
<trkpt lat="40.0728426" lon="-105.2305755">
  <ele>1593.38</ele>
  <time>2026-08-27T18:27:03Z</time>
  <course>102.19</course>
  <speed>0.02</speed>
  <fix>3d</fix>
</trkpt>
<trkpt lat="40.0728424" lon="-105.2305752">
  <ele>1593.25</ele>
  <time>2026-08-27T18:27:03Z</time>
  <course>11.85</course>
  <speed>0.04242640687119285</speed>
  <fix>3d</fix>
</trkpt>
<trkpt lat="40.0728426" lon="-105.2305754">
  <ele>1593.27</ele>
  <time>2026-08-27T18:27:03Z</time>
  <course>111.98</course>
  <speed>0.02</speed>
  <fix>3d</fix>
</trkpt>
<trkpt lat="40.0728424" lon="-105.2305751">
  <ele>1593.15</ele>
  <time>2026-08-27T18:27:03Z</time>
  <course>11.83</course>
  <speed>0.04242640687119285</speed>
  <fix>3d</fix>
</trkpt>
<trkpt lat="40.0728426" lon="-105.2305753">
  <ele>1593.16</ele>
  <time>2026-08-27T18:27:03Z</time>
  <course>122.22</course>
  <speed>0.02</speed>
  <fix>3d</fix>
</trkpt>
<trkpt lat="40.0728424" lon="-105.2305751">
  <ele>1593.05</ele>
  <time>2026-08-27T18:27:03Z</time>
  <course>11.83</course>
  <speed>0.05</speed>
  <fix>3d</fix>
</trkpt>
<trkpt lat="40.0728426" lon="-105.2305753">
  <ele>1593.07</ele>
  <time>2026-08-27T18:27:03Z</time>
  <course>132.75</course>
  <speed>0.02</speed>
  <fix>3d</fix>
</trkpt>
<trkpt lat="40.0728424" lon="-105.2305751">
  <ele>1592.95</ele>
  <time>2026-08-27T18:27:03Z</time>
  <course>11.83</course>
  <speed>0.044721359549995794</speed>
  <fix>3d</fix>
</trkpt>
<trkpt lat="40.0728426" lon="-105.2305753">
  <ele>1592.97</ele>
  <time>2026-08-27T18:27:03Z</time>
  <course>143.43</course>
  <speed>0.02</speed>
  <fix>3d</fix>
</trkpt>
<trkpt lat="40.0728424" lon="-105.2305751">
  <ele>1592.85</ele>
  <time>2026-08-27T18:27:03Z</time>
  <course>11.81</course>
  <speed>0.044721359549995794</speed>
  <fix>3d</fix>
</trkpt>
<trkpt lat="40.0728426" lon="-105.2305752">
  <ele>1592.87</ele>
  <time>2026-08-27T18:27:03Z</time>
  <course>153.25</course>
  <speed>0.02</speed>
  <fix>3d</fix>
</trkpt>
<trkpt lat="40.0728423" lon="-105.2305751">
  <ele>1592.75</ele>
  <time>2026-08-27T18:27:03Z</time>
  <course>11.8</course>
  <speed>0.044721359549995794</speed>
  <fix>3d</fix>
</trkpt>
<trkpt lat="40.0728425" lon="-105.2305751">
  <ele>1592.77</ele>
  <time>2026-08-27T18:27:03Z</time>
  <course>162.27</course>
  <speed>0.02</speed>
  <fix>3d</fix>
</trkpt>
<trkpt lat="40.0728423" lon="-105.230575">
  <ele>1592.64</ele>
  <time>2026-08-27T18:27:03Z</time>
  <course>11.8</course>
  <speed>0.0412310562561766</speed>
  <fix>3d</fix>
</trkpt>
<trkpt lat="40.0728425" lon="-105.2305751">
  <ele>1592.66</ele>
  <time>2026-08-27T18:27:03Z</time>
  <course>171.84</course>
  <speed>0.02</speed>
  <fix>3d</fix>
</trkpt>
<trkpt lat="40.0728423" lon="-105.230575">
  <ele>1592.54</ele>
  <time>2026-08-27T18:27:03Z</time>
  <course>11.78</course>
  <speed>0.0412310562561766</speed>
  <fix>3d</fix>
</trkpt>
<trkpt lat="40.0728424" lon="-105.2305751">
  <ele>1592.57</ele>
  <time>2026-08-27T18:27:03Z</time>
  <course>180.43</course>
  <speed>0.02</speed>
  <fix>3d</fix>
</trkpt>
<trkpt lat="40.0728422" lon="-105.230575">
  <ele>1592.44</ele>
  <time>2026-08-27T18:27:03Z</time>
  <course>11.76</course>
  <speed>0.0316227766016838</speed>
  <fix>3d</fix>
</trkpt>
<trkpt lat="40.0728424" lon="-105.2305751">
  <ele>1592.47</ele>
  <time>2026-08-27T18:27:03Z</time>
  <course>187.65</course>
  <speed>0.02</speed>
  <fix>3d</fix>
</trkpt>
<trkpt lat="40.0728422" lon="-105.230575">
  <ele>1592.35</ele>
  <time>2026-08-27T18:27:04Z</time>
  <course>11.76</course>
  <speed>0.0316227766016838</speed>
  <fix>3d</fix>
</trkpt>
<trkpt lat="40.0728424" lon="-105.2305751">
  <ele>1592.37</ele>
  <time>2026-08-27T18:27:04Z</time>
  <course>194.87</course>
  <speed>0.02</speed>
  <fix>3d</fix>
</trkpt>
<trkpt lat="40.0728422" lon="-105.2305751">
  <ele>1592.25</ele>
  <time>2026-08-27T18:27:04Z</time>
  <course>11.77</course>
  <speed>0.03</speed>
  <fix>3d</fix>
</trkpt>
<trkpt lat="40.0728423" lon="-105.2305751">
  <ele>1592.27</ele>
  <time>2026-08-27T18:27:04Z</time>
  <course>202.52</course>
  <speed>0.02</speed>
  <fix>3d</fix>
</trkpt>
<trkpt lat="40.0728422" lon="-105.2305751">
  <ele>1592.15</ele>
  <time>2026-08-27T18:27:04Z</time>
  <course>11.76</course>
  <speed>0.03</speed>
  <fix>3d</fix>
</trkpt>
<trkpt lat="40.0728423" lon="-105.2305751">
  <ele>1592.16</ele>
  <time>2026-08-27T18:27:04Z</time>
  <course>210.5</course>
  <speed>0.02</speed>
  <fix>3d</fix>
</trkpt>
<trkpt lat="40.0728421" lon="-105.2305751">
  <ele>1592.05</ele>
  <time>2026-08-27T18:27:04Z</time>
  <course>11.74</course>
  <speed>0.03</speed>
  <fix>3d</fix>
</trkpt>
<trkpt lat="40.0728423" lon="-105.2305751">
  <ele>1592.07</ele>
  <time>2026-08-27T18:27:04Z</time>
  <course>218.2</course>
  <speed>0.01</speed>
  <fix>3d</fix>
</trkpt>
<trkpt lat="40.0728421" lon="-105.2305751">
  <ele>1591.94</ele>
  <time>2026-08-27T18:27:04Z</time>
  <course>11.73</course>
  <speed>0.02</speed>
  <fix>3d</fix>
</trkpt>
<trkpt lat="40.0728422" lon="-105.2305751">
  <ele>1591.96</ele>
  <time>2026-08-27T18:27:04Z</time>
  <course>225.88</course>
  <speed>0.01</speed>
  <fix>3d</fix>
</trkpt>
<trkpt lat="40.0728421" lon="-105.2305751">
  <ele>1591.84</ele>
  <time>2026-08-27T18:27:04Z</time>
  <course>11.73</course>
  <speed>0.02</speed>
  <fix>3d</fix>
</trkpt>
<trkpt lat="40.0728421" lon="-105.2305752">
  <ele>1591.86</ele>
  <time>2026-08-27T18:27:04Z</time>
  <course>234.36</course>
  <speed>0.01</speed>
  <fix>3d</fix>
</trkpt>
<trkpt lat="40.0728421" lon="-105.2305751">
  <ele>1591.74</ele>
  <time>2026-08-27T18:27:04Z</time>
  <course>11.72</course>
  <speed>0.02</speed>
  <fix>3d</fix>
</trkpt>
<trkpt lat="40.0728421" lon="-105.2305753">
  <ele>1591.76</ele>
  <time>2026-08-27T18:27:04Z</time>
  <course>244.39</course>
  <speed>0.01</speed>
  <fix>3d</fix>
</trkpt>
<trkpt lat="40.0728421" lon="-105.2305751">
  <ele>1591.64</ele>
  <time>2026-08-27T18:27:04Z</time>
  <course>11.72</course>
  <speed>0.02</speed>
  <fix>3d</fix>
</trkpt>
<trkpt lat="40.0728421" lon="-105.2305753">
  <ele>1591.65</ele>
  <time>2026-08-27T18:27:04Z</time>
  <course>254.81</course>
  <speed>0.01</speed>
  <fix>3d</fix>
</trkpt>
<trkpt lat="40.0728421" lon="-105.2305751">
  <ele>1591.54</ele>
  <time>2026-08-27T18:27:04Z</time>
  <course>11.7</course>
  <speed>0.01</speed>
  <fix>3d</fix>
</trkpt>
<trkpt lat="40.0728421" lon="-105.2305753">
  <ele>1591.56</ele>
  <time>2026-08-27T18:27:04Z</time>
  <course>265.32</course>
  <speed>0.01</speed>
  <fix>3d</fix>
</trkpt>
<trkpt lat="40.0728421" lon="-105.2305751">
  <ele>1591.44</ele>
  <time>2026-08-27T18:27:04Z</time>
  <course>11.69</course>
  <speed>0.01</speed>
  <fix>3d</fix>
</trkpt>
<trkpt lat="40.0728421" lon="-105.2305753">
  <ele>1591.46</ele>
  <time>2026-08-27T18:27:04Z</time>
  <course>276.56</course>
  <speed>0.01</speed>
  <fix>3d</fix>
</trkpt>
<trkpt lat="40.0728421" lon="-105.2305752">
  <ele>1591.34</ele>
  <time>2026-08-27T18:27:04Z</time>
  <course>11.69</course>
  <speed>0.01</speed>
  <fix>3d</fix>
</trkpt>
<trkpt lat="40.0728421" lon="-105.2305753">
  <ele>1591.36</ele>
  <time>2026-08-27T18:27:04Z</time>
  <course>288.5</course>
  <speed>0.01</speed>
  <fix>3d</fix>
</trkpt>
<trkpt lat="40.0728421" lon="-105.2305752">
  <ele>1591.24</ele>
  <time>2026-08-27T18:27:04Z</time>
  <course>11.69</course>
  <speed>0.01414213562373095</speed>
  <fix>3d</fix>
</trkpt>
<trkpt lat="40.0728421" lon="-105.2305754">
  <ele>1591.26</ele>
  <time>2026-08-27T18:27:04Z</time>
  <course>300.52</course>
  <speed>0.01</speed>
  <fix>3d</fix>
</trkpt>
<trkpt lat="40.0728421" lon="-105.2305752">
  <ele>1591.14</ele>
  <time>2026-08-27T18:27:04Z</time>
  <course>11.68</course>
  <speed>0.01</speed>
  <fix>3d</fix>
</trkpt>
<trkpt lat="40.0728421" lon="-105.2305755">
  <ele>1591.15</ele>
  <time>2026-08-27T18:27:04Z</time>
  <course>310.57</course>
  <speed>0.01</speed>
  <fix>3d</fix>
</trkpt>
<trkpt lat="40.0728421" lon="-105.2305752">
  <ele>1591.04</ele>
  <time>2026-08-27T18:27:04Z</time>
  <course>11.67</course>
  <speed>0.01</speed>
  <fix>3d</fix>
</trkpt>
<trkpt lat="40.0728421" lon="-105.2305755">
  <ele>1591.06</ele>
  <time>2026-08-27T18:27:04Z</time>
  <course>319.5</course>
  <speed>0.01</speed>
  <fix>3d</fix>
</trkpt>
<trkpt lat="40.0728421" lon="-105.2305752">
  <ele>1590.95</ele>
  <time>2026-08-27T18:27:04Z</time>
  <course>11.68</course>
  <speed>0.01</speed>
  <fix>3d</fix>
</trkpt>
<trkpt lat="40.0728421" lon="-105.2305755">
  <ele>1590.96</ele>
  <time>2026-08-27T18:27:04Z</time>
  <course>327.59</course>
  <speed>0.01</speed>
  <fix>3d</fix>
</trkpt>
<trkpt lat="40.0728421" lon="-105.2305753">
  <ele>1590.84</ele>
  <time>2026-08-27T18:27:04Z</time>
  <course>11.67</course>
  <speed>0.01</speed>
  <fix>3d</fix>
</trkpt>
<trkpt lat="40.0728421" lon="-105.2305755">
  <ele>1590.86</ele>
  <time>2026-08-27T18:27:04Z</time>
  <course>335.07</course>
  <speed>0.01</speed>
  <fix>3d</fix>
</trkpt>
<trkpt lat="40.0728421" lon="-105.2305753">
  <ele>1590.74</ele>
  <time>2026-08-27T18:27:04Z</time>
  <course>11.65</course>
  <speed>0.01</speed>
  <fix>3d</fix>
</trkpt>
<trkpt lat="40.0728421" lon="-105.2305756">
  <ele>1590.76</ele>
  <time>2026-08-27T18:27:04Z</time>
  <course>342.63</course>
  <speed>0.01</speed>
  <fix>3d</fix>
</trkpt>
<trkpt lat="40.0728421" lon="-105.2305753">
  <ele>1590.64</ele>
  <time>2026-08-27T18:27:04Z</time>
  <course>11.65</course>
  <speed>0.01</speed>
  <fix>3d</fix>
</trkpt>
<trkpt lat="40.0728422" lon="-105.2305756">
  <ele>1590.65</ele>
  <time>2026-08-27T18:27:04Z</time>
  <course>349.16</course>
  <speed>0.01</speed>
  <fix>3d</fix>
</trkpt>
<trkpt lat="40.0728421" lon="-105.2305753">
  <ele>1590.54</ele>
  <time>2026-08-27T18:27:04Z</time>
  <course>11.65</course>
  <speed>0.01</speed>
  <fix>3d</fix>
</trkpt>
<trkpt lat="40.0728423" lon="-105.2305756">
  <ele>1590.56</ele>
  <time>2026-08-27T18:27:04Z</time>
  <course>354.79</course>
  <speed>0.01</speed>
  <fix>3d</fix>
</trkpt>
<trkpt lat="40.0728421" lon="-105.2305753">
  <ele>1590.44</ele>
  <time>2026-08-27T18:27:04Z</time>
  <course>11.65</course>
  <speed>0.02</speed>
  <fix>3d</fix>
</trkpt>
<trkpt lat="40.0728423" lon="-105.2305756">
  <ele>1590.46</ele>
  <time>2026-08-27T18:27:04Z</time>
  <course>0.58</course>
  <speed>0.01</speed>
  <fix>3d</fix>
</trkpt>
<trkpt lat="40.0728421" lon="-105.2305753">
  <ele>1590.34</ele>
  <time>2026-08-27T18:27:04Z</time>
  <course>11.64</course>
  <speed>0.02</speed>
  <fix>3d</fix>
</trkpt>
<trkpt lat="40.0728423" lon="-105.2305756">
  <ele>1590.36</ele>
  <time>2026-08-27T18:27:04Z</time>
  <course>6.87</course>
  <speed>0.01</speed>
  <fix>3d</fix>
</trkpt>
<trkpt lat="40.0728422" lon="-105.2305753">
  <ele>1590.24</ele>
  <time>2026-08-27T18:27:04Z</time>
  <course>11.64</course>
  <speed>0.02</speed>
  <fix>3d</fix>
</trkpt>
<trkpt lat="40.0728424" lon="-105.2305756">
  <ele>1590.26</ele>
  <time>2026-08-27T18:27:04Z</time>
  <course>13.64</course>
  <speed>0.01</speed>
  <fix>3d</fix>
</trkpt>
<trkpt lat="40.0728422" lon="-105.2305753">
  <ele>1590.14</ele>
  <time>2026-08-27T18:27:04Z</time>
  <course>11.63</course>
  <speed>0.022360679774997897</speed>
  <fix>3d</fix>
</trkpt>
<trkpt lat="40.0728424" lon="-105.2305756">
  <ele>1590.15</ele>
  <time>2026-08-27T18:27:04Z</time>
  <course>21.08</course>
  <speed>0.01</speed>
  <fix>3d</fix>
</trkpt>
<trkpt lat="40.0728422" lon="-105.2305753">
  <ele>1590.04</ele>
  <time>2026-08-27T18:27:04Z</time>
  <course>11.63</course>
  <speed>0.022360679774997897</speed>
  <fix>3d</fix>
</trkpt>
<trkpt lat="40.0728424" lon="-105.2305756">
  <ele>1590.06</ele>
  <time>2026-08-27T18:27:04Z</time>
  <course>29.0</course>
  <speed>0.01</speed>
  <fix>3d</fix>
</trkpt>
<trkpt lat="40.0728422" lon="-105.2305753">
  <ele>1589.94</ele>
  <time>2026-08-27T18:27:04Z</time>
  <course>11.62</course>
  <speed>0.022360679774997897</speed>
  <fix>3d</fix>
</trkpt>
<trkpt lat="40.0728424" lon="-105.2305756">
  <ele>1589.96</ele>
  <time>2026-08-27T18:27:04Z</time>
  <course>39.6</course>
  <speed>0.01</speed>
  <fix>3d</fix>
</trkpt>
<trkpt lat="40.0728422" lon="-105.2305753">
  <ele>1589.84</ele>
  <time>2026-08-27T18:27:04Z</time>
  <course>11.61</course>
  <speed>0.022360679774997897</speed>
  <fix>3d</fix>
</trkpt>
<trkpt lat="40.0728424" lon="-105.2305756">
  <ele>1589.87</ele>
  <time>2026-08-27T18:27:04Z</time>
  <course>53.39</course>
  <speed>0.0</speed>
  <fix>3d</fix>
</trkpt>
<trkpt lat="40.0728422" lon="-105.2305753">
  <ele>1589.75</ele>
  <time>2026-08-27T18:27:04Z</time>
  <course>11.61</course>
  <speed>0.022360679774997897</speed>
  <fix>3d</fix>
</trkpt>
<trkpt lat="40.0728424" lon="-105.2305756">
  <ele>1589.77</ele>
  <time>2026-08-27T18:27:04Z</time>
  <course>67.84</course>
  <speed>0.0</speed>
  <fix>3d</fix>
</trkpt>
<trkpt lat="40.0728423" lon="-105.2305753">
  <ele>1589.65</ele>
  <time>2026-08-27T18:27:04Z</time>
  <course>11.61</course>
  <speed>0.0282842712474619</speed>
  <fix>3d</fix>
</trkpt>
<trkpt lat="40.0728425" lon="-105.2305756">
  <ele>1589.66</ele>
  <time>2026-08-27T18:27:04Z</time>
  <course>81.71</course>
  <speed>0.0</speed>
  <fix>3d</fix>
</trkpt>
<trkpt lat="40.0728423" lon="-105.2305753">
  <ele>1589.55</ele>
  <time>2026-08-27T18:27:04Z</time>
  <course>11.61</course>
  <speed>0.0282842712474619</speed>
  <fix>3d</fix>
</trkpt>
<trkpt lat="40.0728425" lon="-105.2305755">
  <ele>1589.57</ele>
  <time>2026-08-27T18:27:04Z</time>
  <course>93.22</course>
  <speed>0.0</speed>
  <fix>3d</fix>
</trkpt>
<trkpt lat="40.0728423" lon="-105.2305753">
  <ele>1589.45</ele>
  <time>2026-08-27T18:27:04Z</time>
  <course>11.62</course>
  <speed>0.0282842712474619</speed>
  <fix>3d</fix>
</trkpt>
<trkpt lat="40.0728425" lon="-105.2305755">
  <ele>1589.46</ele>
  <time>2026-08-27T18:27:04Z</time>
  <course>102.28</course>
  <speed>0.0</speed>
  <fix>3d</fix>
</trkpt>
<trkpt lat="40.0728423" lon="-105.2305753">
  <ele>1589.35</ele>
  <time>2026-08-27T18:27:04Z</time>
  <course>11.6</course>
  <speed>0.0282842712474619</speed>
  <fix>3d</fix>
</trkpt>
<trkpt lat="40.0728425" lon="-105.2305755">
  <ele>1589.36</ele>
  <time>2026-08-27T18:27:04Z</time>
  <course>111.43</course>
  <speed>0.01</speed>
  <fix>3d</fix>
</trkpt>
<trkpt lat="40.0728423" lon="-105.2305753">
  <ele>1589.25</ele>
  <time>2026-08-27T18:27:04Z</time>
  <course>11.62</course>
  <speed>0.0282842712474619</speed>
  <fix>3d</fix>
</trkpt>
<trkpt lat="40.0728425" lon="-105.2305755">
  <ele>1589.26</ele>
  <time>2026-08-27T18:27:04Z</time>
  <course>121.86</course>
  <speed>0.01</speed>
  <fix>3d</fix>
</trkpt>
<trkpt lat="40.0728423" lon="-105.2305753">
  <ele>1589.15</ele>
  <time>2026-08-27T18:27:04Z</time>
  <course>11.6</course>
  <speed>0.0282842712474619</speed>
  <fix>3d</fix>
</trkpt>
<trkpt lat="40.0728425" lon="-105.2305755">
  <ele>1589.15</ele>
  <time>2026-08-27T18:27:04Z</time>
  <course>130.66</course>
  <speed>0.01</speed>
  <fix>3d</fix>
</trkpt>
<trkpt lat="40.0728423" lon="-105.2305753">
  <ele>1589.04</ele>
  <time>2026-08-27T18:27:04Z</time>
  <course>11.6</course>
  <speed>0.0282842712474619</speed>
  <fix>3d</fix>
</trkpt>
<trkpt lat="40.0728425" lon="-105.2305754">
  <ele>1589.06</ele>
  <time>2026-08-27T18:27:04Z</time>
  <course>136.92</course>
  <speed>0.01</speed>
  <fix>3d</fix>
</trkpt>
<trkpt lat="40.0728423" lon="-105.2305753">
  <ele>1588.95</ele>
  <time>2026-08-27T18:27:04Z</time>
  <course>11.59</course>
  <speed>0.0282842712474619</speed>
  <fix>3d</fix>
</trkpt>
<trkpt lat="40.0728425" lon="-105.2305753">
  <ele>1588.96</ele>
  <time>2026-08-27T18:27:04Z</time>
  <course>142.46</course>
  <speed>0.01</speed>
  <fix>3d</fix>
</trkpt>
<trkpt lat="40.0728423" lon="-105.2305752">
  <ele>1588.85</ele>
  <time>2026-08-27T18:27:04Z</time>
  <course>11.59</course>
  <speed>0.0282842712474619</speed>
  <fix>3d</fix>
</trkpt>
<trkpt lat="40.0728425" lon="-105.2305753">
  <ele>1588.86</ele>
  <time>2026-08-27T18:27:04Z</time>
  <course>147.06</course>
  <speed>0.01</speed>
  <fix>3d</fix>
</trkpt>
<trkpt lat="40.0728423" lon="-105.2305752">
  <ele>1588.75</ele>
  <time>2026-08-27T18:27:04Z</time>
  <course>11.58</course>
  <speed>0.03605551275463989</speed>
  <fix>3d</fix>
</trkpt>
<trkpt lat="40.0728424" lon="-105.2305753">
  <ele>1588.76</ele>
  <time>2026-08-27T18:27:04Z</time>
  <course>151.54</course>
  <speed>0.01</speed>
  <fix>3d</fix>
</trkpt>
<trkpt lat="40.0728423" lon="-105.2305752">
  <ele>1588.64</ele>
  <time>2026-08-27T18:27:04Z</time>
  <course>11.57</course>
  <speed>0.03605551275463989</speed>
  <fix>3d</fix>
</trkpt>
<trkpt lat="40.0728424" lon="-105.2305753">
  <ele>1588.65</ele>
  <time>2026-08-27T18:27:04Z</time>
  <course>156.57</course>
  <speed>0.01</speed>
  <fix>3d</fix>
</trkpt>
<trkpt lat="40.0728423" lon="-105.2305752">
  <ele>1588.54</ele>
  <time>2026-08-27T18:27:04Z</time>
  <course>11.57</course>
  <speed>0.022360679774997897</speed>
  <fix>3d</fix>
</trkpt>
<trkpt lat="40.0728424" lon="-105.2305753">
  <ele>1588.56</ele>
  <time>2026-08-27T18:27:04Z</time>
  <course>162.59</course>
  <speed>0.01</speed>
  <fix>3d</fix>
</trkpt>
<trkpt lat="40.0728422" lon="-105.2305752">
  <ele>1588.44</ele>
  <time>2026-08-27T18:27:04Z</time>
  <course>11.56</course>
  <speed>0.022360679774997897</speed>
  <fix>3d</fix>
</trkpt>
<trkpt lat="40.0728424" lon="-105.2305753">
  <ele>1588.45</ele>
  <time>2026-08-27T18:27:04Z</time>
  <course>169.26</course>
  <speed>0.01</speed>
  <fix>3d</fix>
</trkpt>
<trkpt lat="40.0728422" lon="-105.2305752">
  <ele>1588.34</ele>
  <time>2026-08-27T18:27:04Z</time>
  <course>11.56</course>
  <speed>0.022360679774997897</speed>
  <fix>3d</fix>
</trkpt>
<trkpt lat="40.0728423" lon="-105.2305753">
  <ele>1588.35</ele>
  <time>2026-08-27T18:27:04Z</time>
  <course>175.93</course>
  <speed>0.01</speed>
  <fix>3d</fix>
</trkpt>
<trkpt lat="40.0728422" lon="-105.2305752">
  <ele>1588.24</ele>
  <time>2026-08-27T18:27:04Z</time>
  <course>11.55</course>
  <speed>0.022360679774997897</speed>
  <fix>3d</fix>
</trkpt>
<trkpt lat="40.0728423" lon="-105.2305753">
  <ele>1588.25</ele>
  <time>2026-08-27T18:27:04Z</time>
  <course>181.67</course>
  <speed>0.01</speed>
  <fix>3d</fix>
</trkpt>
<trkpt lat="40.0728422" lon="-105.2305752">
  <ele>1588.14</ele>
  <time>2026-08-27T18:27:04Z</time>
  <course>11.55</course>
  <speed>0.022360679774997897</speed>
  <fix>3d</fix>
</trkpt>
<trkpt lat="40.0728423" lon="-105.2305753">
  <ele>1588.15</ele>
  <time>2026-08-27T18:27:04Z</time>
  <course>187.47</course>
  <speed>0.01</speed>
  <fix>3d</fix>
</trkpt>
<trkpt lat="40.0728422" lon="-105.2305752">
  <ele>1588.04</ele>
  <time>2026-08-27T18:27:04Z</time>
  <course>11.55</course>
  <speed>0.022360679774997897</speed>
  <fix>3d</fix>
</trkpt>
<trkpt lat="40.0728423" lon="-105.2305753">
  <ele>1588.06</ele>
  <time>2026-08-27T18:27:04Z</time>
  <course>194.31</course>
  <speed>0.01</speed>
  <fix>3d</fix>
</trkpt>
<trkpt lat="40.0728422" lon="-105.2305752">
  <ele>1587.94</ele>
  <time>2026-08-27T18:27:04Z</time>
  <course>11.55</course>
  <speed>0.022360679774997897</speed>
  <fix>3d</fix>
</trkpt>
<trkpt lat="40.0728423" lon="-105.2305753">
  <ele>1587.96</ele>
  <time>2026-08-27T18:27:04Z</time>
  <course>202.88</course>
  <speed>0.0</speed>
  <fix>3d</fix>
</trkpt>
<trkpt lat="40.0728422" lon="-105.2305752">
  <ele>1587.84</ele>
  <time>2026-08-27T18:27:04Z</time>
  <course>11.54</course>
  <speed>0.022360679774997897</speed>
  <fix>3d</fix>
</trkpt>
<trkpt lat="40.0728423" lon="-105.2305753">
  <ele>1587.86</ele>
  <time>2026-08-27T18:27:04Z</time>
  <course>213.82</course>
  <speed>0.0</speed>
  <fix>3d</fix>
</trkpt>
<trkpt lat="40.0728422" lon="-105.2305752">
  <ele>1587.74</ele>
  <time>2026-08-27T18:27:04Z</time>
  <course>11.54</course>
  <speed>0.022360679774997897</speed>
  <fix>3d</fix>
</trkpt>
<trkpt lat="40.0728422" lon="-105.2305753">
  <ele>1587.76</ele>
  <time>2026-08-27T18:27:04Z</time>
  <course>224.64</course>
  <speed>0.0</speed>
  <fix>3d</fix>
</trkpt>
<trkpt lat="40.0728422" lon="-105.2305752">
  <ele>1587.64</ele>
  <time>2026-08-27T18:27:04Z</time>
  <course>11.53</course>
  <speed>0.01414213562373095</speed>
  <fix>3d</fix>
</trkpt>
<trkpt lat="40.0728421" lon="-105.2305753">
  <ele>1587.65</ele>
  <time>2026-08-27T18:27:04Z</time>
  <course>235.01</course>
  <speed>0.0</speed>
  <fix>3d</fix>
</trkpt>
<trkpt lat="40.0728421" lon="-105.2305752">
  <ele>1587.54</ele>
  <time>2026-08-27T18:27:04Z</time>
  <course>11.52</course>
  <speed>0.01414213562373095</speed>
  <fix>3d</fix>
</trkpt>
<trkpt lat="40.0728421" lon="-105.2305753">
  <ele>1587.56</ele>
  <time>2026-08-27T18:27:04Z</time>
  <course>245.4</course>
  <speed>0.0</speed>
  <fix>3d</fix>
</trkpt>
<trkpt lat="40.0728421" lon="-105.2305752">
  <ele>1587.44</ele>
  <time>2026-08-27T18:27:04Z</time>
  <course>11.52</course>
  <speed>0.01414213562373095</speed>
  <fix>3d</fix>
</trkpt>
<trkpt lat="40.0728421" lon="-105.2305753">
  <ele>1587.46</ele>
  <time>2026-08-27T18:27:04Z</time>
  <course>258.41</course>
  <speed>0.0</speed>
  <fix>3d</fix>
</trkpt>
<trkpt lat="40.0728421" lon="-105.2305752">
  <ele>1587.34</ele>
  <time>2026-08-27T18:27:04Z</time>
  <course>11.52</course>
  <speed>0.01414213562373095</speed>
  <fix>3d</fix>
</trkpt>
<trkpt lat="40.0728421" lon="-105.2305753">
  <ele>1587.36</ele>
  <time>2026-08-27T18:27:04Z</time>
  <course>277.7</course>
  <speed>0.0</speed>
  <fix>3d</fix>
</trkpt>
<trkpt lat="40.0728421" lon="-105.2305752">
  <ele>1587.24</ele>
  <time>2026-08-27T18:27:04Z</time>
  <course>11.53</course>
  <speed>0.01414213562373095</speed>
  <fix>3d</fix>
</trkpt>
<trkpt lat="40.0728421" lon="-105.2305753">
  <ele>1587.26</ele>
  <time>2026-08-27T18:27:04Z</time>
  <course>297.09</course>
  <speed>0.0</speed>
  <fix>3d</fix>
</trkpt>
<trkpt lat="40.0728421" lon="-105.2305752">
  <ele>1587.15</ele>
  <time>2026-08-27T18:27:04Z</time>
  <course>11.54</course>
  <speed>0.01414213562373095</speed>
  <fix>3d</fix>
</trkpt>
<trkpt lat="40.0728421" lon="-105.2305753">
  <ele>1587.15</ele>
  <time>2026-08-27T18:27:04Z</time>
  <course>311.8</course>
  <speed>0.0</speed>
  <fix>3d</fix>
</trkpt>
<trkpt lat="40.0728421" lon="-105.2305752">
  <ele>1587.05</ele>
  <time>2026-08-27T18:27:04Z</time>
  <course>11.53</course>
  <speed>0.01414213562373095</speed>
  <fix>3d</fix>
</trkpt>
<trkpt lat="40.0728421" lon="-105.2305753">
  <ele>1587.06</ele>
  <time>2026-08-27T18:27:04Z</time>
  <course>321.7</course>
  <speed>0.0</speed>
  <fix>3d</fix>
</trkpt>
<trkpt lat="40.0728421" lon="-105.2305752">
  <ele>1586.95</ele>
  <time>2026-08-27T18:27:04Z</time>
  <course>11.52</course>
  <speed>0.01414213562373095</speed>
  <fix>3d</fix>
</trkpt>
<trkpt lat="40.0728421" lon="-105.2305753">
  <ele>1586.96</ele>
  <time>2026-08-27T18:27:04Z</time>
  <course>328.32</course>
  <speed>0.01</speed>
  <fix>3d</fix>
</trkpt>
<trkpt lat="40.0728421" lon="-105.2305752">
  <ele>1586.85</ele>
  <time>2026-08-27T18:27:04Z</time>
  <course>11.54</course>
  <speed>0.01414213562373095</speed>
  <fix>3d</fix>
</trkpt>
<trkpt lat="40.0728421" lon="-105.2305753">
  <ele>1586.86</ele>
  <time>2026-08-27T18:27:04Z</time>
  <course>332.09</course>
  <speed>0.01</speed>
  <fix>3d</fix>
</trkpt>
<trkpt lat="40.0728421" lon="-105.2305752">
  <ele>1586.75</ele>
  <time>2026-08-27T18:27:04Z</time>
  <course>11.53</course>
  <speed>0.01</speed>
  <fix>3d</fix>
</trkpt>
<trkpt lat="40.0728421" lon="-105.2305753">
  <ele>1586.75</ele>
  <time>2026-08-27T18:27:04Z</time>
  <course>333.5</course>
  <speed>0.01</speed>
  <fix>3d</fix>
</trkpt>
<trkpt lat="40.0728421" lon="-105.2305752">
  <ele>1586.65</ele>
  <time>2026-08-27T18:27:04Z</time>
  <course>11.53</course>
  <speed>0.01</speed>
  <fix>3d</fix>
</trkpt>
<trkpt lat="40.0728421" lon="-105.2305753">
  <ele>1586.64</ele>
  <time>2026-08-27T18:27:04Z</time>
  <course>334.72</course>
  <speed>0.01</speed>
  <fix>3d</fix>
</trkpt>
<trkpt lat="40.0728421" lon="-105.2305752">
  <ele>1586.55</ele>
  <time>2026-08-27T18:27:04Z</time>
  <course>11.52</course>
  <speed>0.01</speed>
  <fix>3d</fix>
</trkpt>
<trkpt lat="40.0728422" lon="-105.2305753">
  <ele>1586.55</ele>
  <time>2026-08-27T18:27:04Z</time>
  <course>338.09</course>
  <speed>0.01</speed>
  <fix>3d</fix>
</trkpt>
<trkpt lat="40.0728421" lon="-105.2305752">
  <ele>1586.44</ele>
  <time>2026-08-27T18:27:04Z</time>
  <course>11.52</course>
  <speed>0.01</speed>
  <fix>3d</fix>
</trkpt>
<trkpt lat="40.0728423" lon="-105.2305754">
  <ele>1586.45</ele>
  <time>2026-08-27T18:27:04Z</time>
  <course>341.19</course>
  <speed>0.01</speed>
  <fix>3d</fix>
</trkpt>
<trkpt lat="40.0728421" lon="-105.2305752">
  <ele>1586.34</ele>
  <time>2026-08-27T18:27:04Z</time>
  <course>11.52</course>
  <speed>0.01</speed>
  <fix>3d</fix>
</trkpt>
<trkpt lat="40.0728423" lon="-105.2305755">
  <ele>1586.35</ele>
  <time>2026-08-27T18:27:04Z</time>
  <course>341.57</course>
  <speed>0.01</speed>
  <fix>3d</fix>
</trkpt>
<trkpt lat="40.0728421" lon="-105.2305752">
  <ele>1586.24</ele>
  <time>2026-08-27T18:27:04Z</time>
  <course>11.51</course>
  <speed>0.01</speed>
  <fix>3d</fix>
</trkpt>
<trkpt lat="40.0728423" lon="-105.2305755">
  <ele>1586.25</ele>
  <time>2026-08-27T18:27:04Z</time>
  <course>340.98</course>
  <speed>0.01</speed>
  <fix>3d</fix>
</trkpt>
<trkpt lat="40.0728421" lon="-105.2305752">
  <ele>1586.16</ele>
  <time>2026-08-27T18:27:04Z</time>
  <course>11.51</course>
  <speed>0.01</speed>
  <fix>3d</fix>
</trkpt>
<trkpt lat="40.0728423" lon="-105.2305755">
  <ele>1586.14</ele>
  <time>2026-08-27T18:27:04Z</time>
  <course>341.07</course>
  <speed>0.01</speed>
  <fix>3d</fix>
</trkpt>
<trkpt lat="40.0728422" lon="-105.2305752">
  <ele>1586.17</ele>
  <time>2026-08-27T18:27:04Z</time>
  <course>11.54</course>
  <speed>0.022360679774997897</speed>
  <fix>3d</fix>
</trkpt>
<trkpt lat="40.0728424" lon="-105.2305755">
  <ele>1586.08</ele>
  <time>2026-08-27T18:27:04Z</time>
  <course>304.72</course>
  <speed>0.01</speed>
  <fix>3d</fix>
</trkpt>
<trkpt lat="40.0728422" lon="-105.2305752">
  <ele>1586.18</ele>
  <time>2026-08-27T18:27:04Z</time>
  <course>11.57</course>
  <speed>0.0282842712474619</speed>
  <fix>3d</fix>
</trkpt>
<trkpt lat="40.0728424" lon="-105.2305755">
  <ele>1586.08</ele>
  <time>2026-08-27T18:27:04Z</time>
  <course>277.79</course>
  <speed>0.0</speed>
  <fix>3d</fix>
</trkpt>
<trkpt lat="40.0728422" lon="-105.2305752">
  <ele>1586.17</ele>
  <time>2026-08-27T18:27:04Z</time>
  <course>11.59</course>
  <speed>0.022360679774997897</speed>
  <fix>3d</fix>
</trkpt>
<trkpt lat="40.0728424" lon="-105.2305755">
  <ele>1586.1</ele>
  <time>2026-08-27T18:27:04Z</time>
  <course>86.37</course>
  <speed>0.0</speed>
  <fix>3d</fix>
</trkpt>
<trkpt lat="40.0728422" lon="-105.2305753">
  <ele>1586.17</ele>
  <time>2026-08-27T18:27:04Z</time>
  <course>11.61</course>
  <speed>0.01414213562373095</speed>
  <fix>3d</fix>
</trkpt>
<trkpt lat="40.0728424" lon="-105.2305755">
  <ele>1586.09</ele>
  <time>2026-08-27T18:27:04Z</time>
  <course>85.93</course>
  <speed>0.0</speed>
  <fix>3d</fix>
</trkpt>
<trkpt lat="40.0728422" lon="-105.2305753">
  <ele>1586.17</ele>
  <time>2026-08-27T18:27:04Z</time>
  <course>11.62</course>
  <speed>0.01414213562373095</speed>
  <fix>3d</fix>
</trkpt>
<trkpt lat="40.0728424" lon="-105.2305755">
  <ele>1586.09</ele>
  <time>2026-08-27T18:27:04Z</time>
  <course>337.25</course>
  <speed>0.0</speed>
  <fix>3d</fix>
</trkpt>
<trkpt lat="40.0728422" lon="-105.2305753">
  <ele>1586.17</ele>
  <time>2026-08-27T18:27:04Z</time>
  <course>11.64</course>
  <speed>0.01414213562373095</speed>
  <fix>3d</fix>
</trkpt>
<trkpt lat="40.0728424" lon="-105.2305755">
  <ele>1586.09</ele>
  <time>2026-08-27T18:27:04Z</time>
  <course>4.61</course>
  <speed>0.0</speed>
  <fix>3d</fix>
</trkpt>
<trkpt lat="40.0728422" lon="-105.2305753">
  <ele>1586.17</ele>
  <time>2026-08-27T18:27:04Z</time>
  <course>11.65</course>
  <speed>0.01414213562373095</speed>
  <fix>3d</fix>
</trkpt>
<trkpt lat="40.0728424" lon="-105.2305755">
  <ele>1586.09</ele>
  <time>2026-08-27T18:27:04Z</time>
  <course>342.22</course>
  <speed>0.0</speed>
  <fix>3d</fix>
</trkpt>
<trkpt lat="40.0728422" lon="-105.2305753">
  <ele>1586.17</ele>
  <time>2026-08-27T18:27:04Z</time>
  <course>11.67</course>
  <speed>0.01414213562373095</speed>
  <fix>3d</fix>
</trkpt>
<trkpt lat="40.0728424" lon="-105.2305755">
  <ele>1586.09</ele>
  <time>2026-08-27T18:27:04Z</time>
  <course>327.48</course>
  <speed>0.0</speed>
  <fix>3d</fix>
</trkpt>
<trkpt lat="40.0728422" lon="-105.2305753">
  <ele>1586.17</ele>
  <time>2026-08-27T18:27:04Z</time>
  <course>11.68</course>
  <speed>0.01414213562373095</speed>
  <fix>3d</fix>
</trkpt>
<trkpt lat="40.0728424" lon="-105.2305755">
  <ele>1586.09</ele>
  <time>2026-08-27T18:27:04Z</time>
  <course>348.13</course>
  <speed>0.0</speed>
  <fix>3d</fix>
</trkpt>
<trkpt lat="40.0728422" lon="-105.2305753">
  <ele>1586.17</ele>
  <time>2026-08-27T18:27:04Z</time>
  <course>11.71</course>
  <speed>0.0282842712474619</speed>
  <fix>3d</fix>
</trkpt>
<trkpt lat="40.0728424" lon="-105.2305755">
  <ele>1586.09</ele>
  <time>2026-08-27T18:27:04Z</time>
  <course>18.76</course>
  <speed>0.0</speed>
  <fix>3d</fix>
</trkpt>
<trkpt lat="40.0728422" lon="-105.2305753">
  <ele>1586.17</ele>
  <time>2026-08-27T18:27:04Z</time>
  <course>11.71</course>
  <speed>0.0282842712474619</speed>
  <fix>3d</fix>
</trkpt>
<trkpt lat="40.0728424" lon="-105.2305755">
  <ele>1586.09</ele>
  <time>2026-08-27T18:27:04Z</time>
  <course>101.98</course>
  <speed>0.0</speed>
  <fix>3d</fix>
</trkpt>
<trkpt lat="40.0728422" lon="-105.2305753">
  <ele>1586.17</ele>
  <time>2026-08-27T18:27:04Z</time>
  <course>11.69</course>
  <speed>0.01414213562373095</speed>
  <fix>3d</fix>
</trkpt>
<trkpt lat="40.0728424" lon="-105.2305755">
  <ele>1586.09</ele>
  <time>2026-08-27T18:27:04Z</time>
  <course>105.67</course>
  <speed>0.01</speed>
  <fix>3d</fix>
</trkpt>
<trkpt lat="40.0728422" lon="-105.2305753">
  <ele>1586.17</ele>
  <time>2026-08-27T18:27:04Z</time>
  <course>11.66</course>
  <speed>0.01414213562373095</speed>
  <fix>3d</fix>
</trkpt>
<trkpt lat="40.0728424" lon="-105.2305755">
  <ele>1586.09</ele>
  <time>2026-08-27T18:27:04Z</time>
  <course>124.57</course>
  <speed>0.0</speed>
  <fix>3d</fix>
</trkpt>
<trkpt lat="40.0728422" lon="-105.2305753">
  <ele>1586.17</ele>
  <time>2026-08-27T18:27:04Z</time>
  <course>11.63</course>
  <speed>0.01414213562373095</speed>
  <fix>3d</fix>
</trkpt>
<trkpt lat="40.0728424" lon="-105.2305755">
  <ele>1586.09</ele>
  <time>2026-08-27T18:27:04Z</time>
  <course>260.79</course>
  <speed>0.0</speed>
  <fix>3d</fix>
</trkpt>
<trkpt lat="40.0728422" lon="-105.2305753">
  <ele>1586.17</ele>
  <time>2026-08-27T18:27:04Z</time>
  <course>11.6</course>
  <speed>0.01414213562373095</speed>
  <fix>3d</fix>
</trkpt>
<trkpt lat="40.0728424" lon="-105.2305755">
  <ele>1586.09</ele>
  <time>2026-08-27T18:27:04Z</time>
  <course>249.69</course>
  <speed>0.0</speed>
  <fix>3d</fix>
</trkpt>
<trkpt lat="40.0728422" lon="-105.2305753">
  <ele>1586.17</ele>
  <time>2026-08-27T18:27:04Z</time>
  <course>11.57</course>
  <speed>0.01414213562373095</speed>
  <fix>3d</fix>
</trkpt>
<trkpt lat="40.0728424" lon="-105.2305755">
  <ele>1586.09</ele>
  <time>2026-08-27T18:27:04Z</time>
  <course>235.14</course>
  <speed>0.0</speed>
  <fix>3d</fix>
</trkpt>
<trkpt lat="40.0728422" lon="-105.2305753">
  <ele>1586.17</ele>
  <time>2026-08-27T18:27:04Z</time>
  <course>11.54</course>
  <speed>0.01414213562373095</speed>
  <fix>3d</fix>
</trkpt>
<trkpt lat="40.0728424" lon="-105.2305755">
  <ele>1586.09</ele>
  <time>2026-08-27T18:27:04Z</time>
  <course>231.94</course>
  <speed>0.0</speed>
  <fix>3d</fix>
</trkpt>
<trkpt lat="40.0728422" lon="-105.2305753">
  <ele>1586.17</ele>
  <time>2026-08-27T18:27:04Z</time>
  <course>11.5</course>
  <speed>0.01414213562373095</speed>
  <fix>3d</fix>
</trkpt>
<trkpt lat="40.0728424" lon="-105.2305755">
  <ele>1586.09</ele>
  <time>2026-08-27T18:27:04Z</time>
  <course>228.88</course>
  <speed>0.0</speed>
  <fix>3d</fix>
</trkpt>
<trkpt lat="40.0728422" lon="-105.2305753">
  <ele>1586.17</ele>
  <time>2026-08-27T18:27:04Z</time>
  <course>11.47</course>
  <speed>0.01414213562373095</speed>
  <fix>3d</fix>
</trkpt>
<trkpt lat="40.0728424" lon="-105.2305755">
  <ele>1586.09</ele>
  <time>2026-08-27T18:27:04Z</time>
  <course>260.14</course>
  <speed>0.0</speed>
  <fix>3d</fix>
</trkpt>
<trkpt lat="40.0728422" lon="-105.2305753">
  <ele>1586.17</ele>
  <time>2026-08-27T18:27:04Z</time>
  <course>11.44</course>
  <speed>0.01414213562373095</speed>
  <fix>3d</fix>
</trkpt>
<trkpt lat="40.0728424" lon="-105.2305755">
  <ele>1586.09</ele>
  <time>2026-08-27T18:27:04Z</time>
  <course>286.22</course>
  <speed>0.0</speed>
  <fix>3d</fix>
</trkpt>
<trkpt lat="40.0728422" lon="-105.2305753">
  <ele>1586.17</ele>
  <time>2026-08-27T18:27:04Z</time>
  <course>11.41</course>
  <speed>0.01414213562373095</speed>
  <fix>3d</fix>
</trkpt>
<trkpt lat="40.0728424" lon="-105.2305755">
  <ele>1586.09</ele>
  <time>2026-08-27T18:27:04Z</time>
  <course>64.13</course>
  <speed>0.0</speed>
  <fix>3d</fix>
</trkpt>
<trkpt lat="40.0728422" lon="-105.2305753">
  <ele>1586.18</ele>
  <time>2026-08-27T18:27:04Z</time>
  <course>11.38</course>
  <speed>0.01414213562373095</speed>
  <fix>3d</fix>
</trkpt>
<trkpt lat="40.0728424" lon="-105.2305755">
  <ele>1586.09</ele>
  <time>2026-08-27T18:27:04Z</time>
  <course>288.03</course>
  <speed>0.0</speed>
  <fix>3d</fix>
</trkpt>
<trkpt lat="40.0728422" lon="-105.2305753">
  <ele>1586.18</ele>
  <time>2026-08-27T18:27:04Z</time>
  <course>11.34</course>
  <speed>0.01414213562373095</speed>
  <fix>3d</fix>
</trkpt>
<trkpt lat="40.0728424" lon="-105.2305755">
  <ele>1586.09</ele>
  <time>2026-08-27T18:27:04Z</time>
  <course>285.93</course>
  <speed>0.0</speed>
  <fix>3d</fix>
</trkpt>
<trkpt lat="40.0728422" lon="-105.2305753">
  <ele>1586.18</ele>
  <time>2026-08-27T18:27:04Z</time>
  <course>11.31</course>
  <speed>0.01414213562373095</speed>
  <fix>3d</fix>
</trkpt>
<trkpt lat="40.0728424" lon="-105.2305755">
  <ele>1586.09</ele>
  <time>2026-08-27T18:27:04Z</time>
  <course>296.21</course>
  <speed>0.0</speed>
  <fix>3d</fix>
</trkpt>
<trkpt lat="40.0728422" lon="-105.2305753">
  <ele>1586.18</ele>
  <time>2026-08-27T18:27:04Z</time>
  <course>11.28</course>
  <speed>0.01414213562373095</speed>
  <fix>3d</fix>
</trkpt>
<trkpt lat="40.0728424" lon="-105.2305755">
  <ele>1586.09</ele>
  <time>2026-08-27T18:27:04Z</time>
  <course>282.23</course>
  <speed>0.0</speed>
  <fix>3d</fix>
</trkpt>
<trkpt lat="40.0728422" lon="-105.2305753">
  <ele>1586.17</ele>
  <time>2026-08-27T18:27:04Z</time>
  <course>11.25</course>
  <speed>0.01414213562373095</speed>
  <fix>3d</fix>
</trkpt>
<trkpt lat="40.0728424" lon="-105.2305755">
  <ele>1586.09</ele>
  <time>2026-08-27T18:27:04Z</time>
  <course>281.62</course>
  <speed>0.0</speed>
  <fix>3d</fix>
</trkpt>
<trkpt lat="40.0728422" lon="-105.2305753">
  <ele>1586.17</ele>
  <time>2026-08-27T18:27:04Z</time>
  <course>11.22</course>
  <speed>0.01414213562373095</speed>
  <fix>3d</fix>
</trkpt>
<trkpt lat="40.0728424" lon="-105.2305755">
  <ele>1586.09</ele>
  <time>2026-08-27T18:27:04Z</time>
  <course>289.54</course>
  <speed>0.0</speed>
  <fix>3d</fix>
</trkpt>
<trkpt lat="40.0728422" lon="-105.2305753">
  <ele>1586.17</ele>
  <time>2026-08-27T18:27:04Z</time>
  <course>11.18</course>
  <speed>0.01414213562373095</speed>
  <fix>3d</fix>
</trkpt>
<trkpt lat="40.0728424" lon="-105.2305755">
  <ele>1586.09</ele>
  <time>2026-08-27T18:27:04Z</time>
  <course>283.77</course>
  <speed>0.0</speed>
  <fix>3d</fix>
</trkpt>
<trkpt lat="40.0728422" lon="-105.2305753">
  <ele>1586.18</ele>
  <time>2026-08-27T18:27:04Z</time>
  <course>11.15</course>
  <speed>0.01414213562373095</speed>
  <fix>3d</fix>
</trkpt>
<trkpt lat="40.0728424" lon="-105.2305755">
  <ele>1586.09</ele>
  <time>2026-08-27T18:27:04Z</time>
  <course>282.0</course>
  <speed>0.0</speed>
  <fix>3d</fix>
</trkpt>
<trkpt lat="40.0728422" lon="-105.2305753">
  <ele>1586.18</ele>
  <time>2026-08-27T18:27:04Z</time>
  <course>11.12</course>
  <speed>0.022360679774997897</speed>
  <fix>3d</fix>
</trkpt>
<trkpt lat="40.0728424" lon="-105.2305755">
  <ele>1586.09</ele>
  <time>2026-08-27T18:27:04Z</time>
  <course>289.46</course>
  <speed>0.0</speed>
  <fix>3d</fix>
</trkpt>
<trkpt lat="40.0728422" lon="-105.2305753">
  <ele>1586.18</ele>
  <time>2026-08-27T18:27:04Z</time>
  <course>11.09</course>
  <speed>0.022360679774997897</speed>
  <fix>3d</fix>
</trkpt>
<trkpt lat="40.0728424" lon="-105.2305755">
  <ele>1586.09</ele>
  <time>2026-08-27T18:27:04Z</time>
  <course>284.59</course>
  <speed>0.0</speed>
  <fix>3d</fix>
</trkpt>
<trkpt lat="40.0728422" lon="-105.2305753">
  <ele>1586.17</ele>
  <time>2026-08-27T18:27:04Z</time>
  <course>11.06</course>
  <speed>0.022360679774997897</speed>
  <fix>3d</fix>
</trkpt>
<trkpt lat="40.0728424" lon="-105.2305755">
  <ele>1586.09</ele>
  <time>2026-08-27T18:27:04Z</time>
  <course>282.38</course>
  <speed>0.0</speed>
  <fix>3d</fix>
</trkpt>
<trkpt lat="40.0728422" lon="-105.2305753">
  <ele>1586.17</ele>
  <time>2026-08-27T18:27:04Z</time>
  <course>11.03</course>
  <speed>0.022360679774997897</speed>
  <fix>3d</fix>
</trkpt>
<trkpt lat="40.0728424" lon="-105.2305755">
  <ele>1586.09</ele>
  <time>2026-08-27T18:27:04Z</time>
  <course>292.35</course>
  <speed>0.0</speed>
  <fix>3d</fix>
</trkpt>
<trkpt lat="40.0728422" lon="-105.2305753">
  <ele>1586.17</ele>
  <time>2026-08-27T18:27:04Z</time>
  <course>10.99</course>
  <speed>0.022360679774997897</speed>
  <fix>3d</fix>
</trkpt>
<trkpt lat="40.0728424" lon="-105.2305755">
  <ele>1586.09</ele>
  <time>2026-08-27T18:27:04Z</time>
  <course>286.25</course>
  <speed>0.0</speed>
  <fix>3d</fix>
</trkpt>
<trkpt lat="40.0728422" lon="-105.2305753">
  <ele>1586.17</ele>
  <time>2026-08-27T18:27:04Z</time>
  <course>10.96</course>
  <speed>0.022360679774997897</speed>
  <fix>3d</fix>
</trkpt>
<trkpt lat="40.0728424" lon="-105.2305755">
  <ele>1586.09</ele>
  <time>2026-08-27T18:27:04Z</time>
  <course>282.83</course>
  <speed>0.0</speed>
  <fix>3d</fix>
</trkpt>
<trkpt lat="40.0728422" lon="-105.2305753">
  <ele>1586.18</ele>
  <time>2026-08-27T18:27:04Z</time>
  <course>10.93</course>
  <speed>0.022360679774997897</speed>
  <fix>3d</fix>
</trkpt>
<trkpt lat="40.0728424" lon="-105.2305755">
  <ele>1586.09</ele>
  <time>2026-08-27T18:27:04Z</time>
  <course>291.46</course>
  <speed>0.0</speed>
  <fix>3d</fix>
</trkpt>
<trkpt lat="40.0728422" lon="-105.2305753">
  <ele>1586.17</ele>
  <time>2026-08-27T18:27:04Z</time>
  <course>10.9</course>
  <speed>0.022360679774997897</speed>
  <fix>3d</fix>
</trkpt>
<trkpt lat="40.0728424" lon="-105.2305755">
  <ele>1586.09</ele>
  <time>2026-08-27T18:27:04Z</time>
  <course>20.32</course>
  <speed>0.0</speed>
  <fix>3d</fix>
</trkpt>
<trkpt lat="40.0728422" lon="-105.2305753">
  <ele>1586.17</ele>
  <time>2026-08-27T18:27:04Z</time>
  <course>10.87</course>
  <speed>0.022360679774997897</speed>
  <fix>3d</fix>
</trkpt>
<trkpt lat="40.0728424" lon="-105.2305755">
  <ele>1586.09</ele>
  <time>2026-08-27T18:27:04Z</time>
  <course>284.53</course>
  <speed>0.0</speed>
  <fix>3d</fix>
</trkpt>
<trkpt lat="40.0728422" lon="-105.2305753">
  <ele>1586.17</ele>
  <time>2026-08-27T18:27:04Z</time>
  <course>10.83</course>
  <speed>0.022360679774997897</speed>
  <fix>3d</fix>
</trkpt>
<trkpt lat="40.0728424" lon="-105.2305755">
  <ele>1586.09</ele>
  <time>2026-08-27T18:27:04Z</time>
  <course>286.36</course>
  <speed>0.0</speed>
  <fix>3d</fix>
</trkpt>
<trkpt lat="40.0728422" lon="-105.2305753">
  <ele>1586.17</ele>
  <time>2026-08-27T18:27:04Z</time>
  <course>10.8</course>
  <speed>0.022360679774997897</speed>
  <fix>3d</fix>
</trkpt>
<trkpt lat="40.0728424" lon="-105.2305755">
  <ele>1586.09</ele>
  <time>2026-08-27T18:27:04Z</time>
  <course>45.21</course>
  <speed>0.0</speed>
  <fix>3d</fix>
</trkpt>
<trkpt lat="40.0728422" lon="-105.2305753">
  <ele>1586.17</ele>
  <time>2026-08-27T18:27:04Z</time>
  <course>10.77</course>
  <speed>0.022360679774997897</speed>
  <fix>3d</fix>
</trkpt>
<trkpt lat="40.0728424" lon="-105.2305755">
  <ele>1586.09</ele>
  <time>2026-08-27T18:27:04Z</time>
  <course>285.78</course>
  <speed>0.0</speed>
  <fix>3d</fix>
</trkpt>
<trkpt lat="40.0728422" lon="-105.2305753">
  <ele>1586.16</ele>
  <time>2026-08-27T18:27:04Z</time>
  <course>10.74</course>
  <speed>0.022360679774997897</speed>
  <fix>3d</fix>
</trkpt>
<trkpt lat="40.0728424" lon="-105.2305755">
  <ele>1586.09</ele>
  <time>2026-08-27T18:27:04Z</time>
  <course>286.61</course>
  <speed>0.0</speed>
  <fix>3d</fix>
</trkpt>
<trkpt lat="40.0728422" lon="-105.2305753">
  <ele>1586.16</ele>
  <time>2026-08-27T18:27:04Z</time>
  <course>10.7</course>
  <speed>0.022360679774997897</speed>
  <fix>3d</fix>
</trkpt>
<trkpt lat="40.0728424" lon="-105.2305755">
  <ele>1586.09</ele>
  <time>2026-08-27T18:27:04Z</time>
  <course>355.57</course>
  <speed>0.0</speed>
  <fix>3d</fix>
</trkpt>
<trkpt lat="40.0728422" lon="-105.2305753">
  <ele>1586.16</ele>
  <time>2026-08-27T18:27:04Z</time>
  <course>10.67</course>
  <speed>0.022360679774997897</speed>
  <fix>3d</fix>
</trkpt>
<trkpt lat="40.0728424" lon="-105.2305755">
  <ele>1586.09</ele>
  <time>2026-08-27T18:27:04Z</time>
  <course>286.13</course>
  <speed>0.0</speed>
  <fix>3d</fix>
</trkpt>
<trkpt lat="40.0728422" lon="-105.2305753">
  <ele>1586.16</ele>
  <time>2026-08-27T18:27:04Z</time>
  <course>10.64</course>
  <speed>0.022360679774997897</speed>
  <fix>3d</fix>
</trkpt>
<trkpt lat="40.0728424" lon="-105.2305755">
  <ele>1586.09</ele>
  <time>2026-08-27T18:27:04Z</time>
  <course>287.33</course>
  <speed>0.0</speed>
  <fix>3d</fix>
</trkpt>
<trkpt lat="40.0728422" lon="-105.2305753">
  <ele>1586.16</ele>
  <time>2026-08-27T18:27:04Z</time>
  <course>10.61</course>
  <speed>0.022360679774997897</speed>
  <fix>3d</fix>
</trkpt>
<trkpt lat="40.0728424" lon="-105.2305755">
  <ele>1586.09</ele>
  <time>2026-08-27T18:27:04Z</time>
  <course>355.06</course>
  <speed>0.0</speed>
  <fix>3d</fix>
</trkpt>
<trkpt lat="40.0728422" lon="-105.2305753">
  <ele>1586.16</ele>
  <time>2026-08-27T18:27:04Z</time>
  <course>10.58</course>
  <speed>0.022360679774997897</speed>
  <fix>3d</fix>
</trkpt>
<trkpt lat="40.0728424" lon="-105.2305755">
  <ele>1586.09</ele>
  <time>2026-08-27T18:27:04Z</time>
  <course>286.76</course>
  <speed>0.0</speed>
  <fix>3d</fix>
</trkpt>
<trkpt lat="40.0728422" lon="-105.2305753">
  <ele>1586.16</ele>
  <time>2026-08-27T18:27:04Z</time>
  <course>10.54</course>
  <speed>0.022360679774997897</speed>
  <fix>3d</fix>
</trkpt>
<trkpt lat="40.0728424" lon="-105.2305755">
  <ele>1586.09</ele>
  <time>2026-08-27T18:27:04Z</time>
  <course>287.58</course>
  <speed>0.0</speed>
  <fix>3d</fix>
</trkpt>
<trkpt lat="40.0728422" lon="-105.2305753">
  <ele>1586.17</ele>
  <time>2026-08-27T18:27:04Z</time>
  <course>10.51</course>
  <speed>0.022360679774997897</speed>
  <fix>3d</fix>
</trkpt>
<trkpt lat="40.0728424" lon="-105.2305755">
  <ele>1586.09</ele>
  <time>2026-08-27T18:27:04Z</time>
  <course>15.28</course>
  <speed>0.0</speed>
  <fix>3d</fix>
</trkpt>
<trkpt lat="40.0728422" lon="-105.2305753">
  <ele>1586.17</ele>
  <time>2026-08-27T18:27:04Z</time>
  <course>10.48</course>
  <speed>0.022360679774997897</speed>
  <fix>3d</fix>
</trkpt>
<trkpt lat="40.0728424" lon="-105.2305755">
  <ele>1586.09</ele>
  <time>2026-08-27T18:27:04Z</time>
  <course>286.14</course>
  <speed>0.0</speed>
  <fix>3d</fix>
</trkpt>
<trkpt lat="40.0728422" lon="-105.2305753">
  <ele>1586.16</ele>
  <time>2026-08-27T18:27:04Z</time>
  <course>10.45</course>
  <speed>0.022360679774997897</speed>
  <fix>3d</fix>
</trkpt>
<trkpt lat="40.0728424" lon="-105.2305755">
  <ele>1586.09</ele>
  <time>2026-08-27T18:27:04Z</time>
  <course>284.66</course>
  <speed>0.0</speed>
  <fix>3d</fix>
</trkpt>
<trkpt lat="40.0728422" lon="-105.2305753">
  <ele>1586.16</ele>
  <time>2026-08-27T18:27:04Z</time>
  <course>10.42</course>
  <speed>0.022360679774997897</speed>
  <fix>3d</fix>
</trkpt>
<trkpt lat="40.0728424" lon="-105.2305755">
  <ele>1586.09</ele>
  <time>2026-08-27T18:27:04Z</time>
  <course>305.74</course>
  <speed>0.0</speed>
  <fix>3d</fix>
</trkpt>
<trkpt lat="40.0728422" lon="-105.2305753">
  <ele>1586.17</ele>
  <time>2026-08-27T18:27:04Z</time>
  <course>10.38</course>
  <speed>0.022360679774997897</speed>
  <fix>3d</fix>
</trkpt>
<trkpt lat="40.0728424" lon="-105.2305755">
  <ele>1586.09</ele>
  <time>2026-08-27T18:27:04Z</time>
  <course>287.22</course>
  <speed>0.0</speed>
  <fix>3d</fix>
</trkpt>
<trkpt lat="40.0728422" lon="-105.2305753">
  <ele>1586.17</ele>
  <time>2026-08-27T18:27:04Z</time>
  <course>10.35</course>
  <speed>0.022360679774997897</speed>
  <fix>3d</fix>
</trkpt>
<trkpt lat="40.0728424" lon="-105.2305755">
  <ele>1586.09</ele>
  <time>2026-08-27T18:27:04Z</time>
  <course>285.01</course>
  <speed>0.0</speed>
  <fix>3d</fix>
</trkpt>
<trkpt lat="40.0728422" lon="-105.2305753">
  <ele>1586.17</ele>
  <time>2026-08-27T18:27:04Z</time>
  <course>10.32</course>
  <speed>0.022360679774997897</speed>
  <fix>3d</fix>
</trkpt>
<trkpt lat="40.0728424" lon="-105.2305755">
  <ele>1586.09</ele>
  <time>2026-08-27T18:27:04Z</time>
  <course>305.37</course>
  <speed>0.0</speed>
  <fix>3d</fix>
</trkpt>
<trkpt lat="40.0728422" lon="-105.2305753">
  <ele>1586.17</ele>
  <time>2026-08-27T18:27:04Z</time>
  <course>10.29</course>
  <speed>0.022360679774997897</speed>
  <fix>3d</fix>
</trkpt>
<trkpt lat="40.0728424" lon="-105.2305755">
  <ele>1586.09</ele>
  <time>2026-08-27T18:27:04Z</time>
  <course>290.26</course>
  <speed>0.0</speed>
  <fix>3d</fix>
</trkpt>
<trkpt lat="40.0728422" lon="-105.2305753">
  <ele>1586.17</ele>
  <time>2026-08-27T18:27:04Z</time>
  <course>10.25</course>
  <speed>0.022360679774997897</speed>
  <fix>3d</fix>
</trkpt>
<trkpt lat="40.0728424" lon="-105.2305755">
  <ele>1586.09</ele>
  <time>2026-08-27T18:27:04Z</time>
  <course>287.55</course>
  <speed>0.0</speed>
  <fix>3d</fix>
</trkpt>
<trkpt lat="40.0728422" lon="-105.2305753">
  <ele>1586.16</ele>
  <time>2026-08-27T18:27:04Z</time>
  <course>10.22</course>
  <speed>0.022360679774997897</speed>
  <fix>3d</fix>
</trkpt>
<trkpt lat="40.0728424" lon="-105.2305755">
  <ele>1586.09</ele>
  <time>2026-08-27T18:27:04Z</time>
  <course>351.45</course>
  <speed>0.0</speed>
  <fix>3d</fix>
</trkpt>
<trkpt lat="40.0728422" lon="-105.2305753">
  <ele>1586.16</ele>
  <time>2026-08-27T18:27:04Z</time>
  <course>10.19</course>
  <speed>0.022360679774997897</speed>
  <fix>3d</fix>
</trkpt>
<trkpt lat="40.0728424" lon="-105.2305755">
  <ele>1586.09</ele>
  <time>2026-08-27T18:27:04Z</time>
  <course>294.39</course>
  <speed>0.0</speed>
  <fix>3d</fix>
</trkpt>
<trkpt lat="40.0728422" lon="-105.2305753">
  <ele>1586.16</ele>
  <time>2026-08-27T18:27:04Z</time>
  <course>10.16</course>
  <speed>0.022360679774997897</speed>
  <fix>3d</fix>
</trkpt>
<trkpt lat="40.0728424" lon="-105.2305755">
  <ele>1586.09</ele>
  <time>2026-08-27T18:27:04Z</time>
  <course>289.1</course>
  <speed>0.0</speed>
  <fix>3d</fix>
</trkpt>
<trkpt lat="40.0728422" lon="-105.2305753">
  <ele>1586.16</ele>
  <time>2026-08-27T18:27:04Z</time>
  <course>10.12</course>
  <speed>0.022360679774997897</speed>
  <fix>3d</fix>
</trkpt>
<trkpt lat="40.0728424" lon="-105.2305755">
  <ele>1586.09</ele>
  <time>2026-08-27T18:27:04Z</time>
  <course>0.76</course>
  <speed>0.0</speed>
  <fix>3d</fix>
</trkpt>
<trkpt lat="40.0728422" lon="-105.2305753">
  <ele>1586.16</ele>
  <time>2026-08-27T18:27:05Z</time>
  <course>10.09</course>
  <speed>0.022360679774997897</speed>
  <fix>3d</fix>
</trkpt>
<trkpt lat="40.0728424" lon="-105.2305755">
  <ele>1586.09</ele>
  <time>2026-08-27T18:27:05Z</time>
  <course>312.7</course>
  <speed>0.0</speed>
  <fix>3d</fix>
</trkpt>
<trkpt lat="40.0728422" lon="-105.2305753">
  <ele>1586.16</ele>
  <time>2026-08-27T18:27:05Z</time>
  <course>10.06</course>
  <speed>0.022360679774997897</speed>
  <fix>3d</fix>
</trkpt>
<trkpt lat="40.0728424" lon="-105.2305755">
  <ele>1586.09</ele>
  <time>2026-08-27T18:27:05Z</time>
  <course>291.91</course>
  <speed>0.0</speed>
  <fix>3d</fix>
</trkpt>
<trkpt lat="40.0728422" lon="-105.2305753">
  <ele>1586.16</ele>
  <time>2026-08-27T18:27:05Z</time>
  <course>10.03</course>
  <speed>0.022360679774997897</speed>
  <fix>3d</fix>
</trkpt>
<trkpt lat="40.0728424" lon="-105.2305755">
  <ele>1586.09</ele>
  <time>2026-08-27T18:27:05Z</time>
  <course>318.72</course>
  <speed>0.0</speed>
  <fix>3d</fix>
</trkpt>
<trkpt lat="40.0728422" lon="-105.2305753">
  <ele>1586.16</ele>
  <time>2026-08-27T18:27:05Z</time>
  <course>9.99</course>
  <speed>0.022360679774997897</speed>
  <fix>3d</fix>
</trkpt>
<trkpt lat="40.0728424" lon="-105.2305755">
  <ele>1586.09</ele>
  <time>2026-08-27T18:27:05Z</time>
  <course>324.18</course>
  <speed>0.0</speed>
  <fix>3d</fix>
</trkpt>
<trkpt lat="40.0728422" lon="-105.2305753">
  <ele>1586.16</ele>
  <time>2026-08-27T18:27:05Z</time>
  <course>9.96</course>
  <speed>0.022360679774997897</speed>
  <fix>3d</fix>
</trkpt>
<trkpt lat="40.0728424" lon="-105.2305755">
  <ele>1586.09</ele>
  <time>2026-08-27T18:27:05Z</time>
  <course>295.85</course>
  <speed>0.0</speed>
  <fix>3d</fix>
</trkpt>
<trkpt lat="40.0728422" lon="-105.2305753">
  <ele>1586.17</ele>
  <time>2026-08-27T18:27:05Z</time>
  <course>9.93</course>
  <speed>0.022360679774997897</speed>
  <fix>3d</fix>
</trkpt>
<trkpt lat="40.0728424" lon="-105.2305755">
  <ele>1586.09</ele>
  <time>2026-08-27T18:27:05Z</time>
  <course>325.77</course>
  <speed>0.0</speed>
  <fix>3d</fix>
</trkpt>
<trkpt lat="40.0728422" lon="-105.2305753">
  <ele>1586.17</ele>
  <time>2026-08-27T18:27:05Z</time>
  <course>9.9</course>
  <speed>0.022360679774997897</speed>
  <fix>3d</fix>
</trkpt>
<trkpt lat="40.0728424" lon="-105.2305755">
  <ele>1586.09</ele>
  <time>2026-08-27T18:27:05Z</time>
  <course>324.01</course>
  <speed>0.0</speed>
  <fix>3d</fix>
</trkpt>
<trkpt lat="40.0728422" lon="-105.2305753">
  <ele>1586.17</ele>
  <time>2026-08-27T18:27:05Z</time>
  <course>9.86</course>
  <speed>0.022360679774997897</speed>
  <fix>3d</fix>
</trkpt>
<trkpt lat="40.0728424" lon="-105.2305755">
  <ele>1586.09</ele>
  <time>2026-08-27T18:27:05Z</time>
  <course>299.22</course>
  <speed>0.0</speed>
  <fix>3d</fix>
</trkpt>
<trkpt lat="40.0728422" lon="-105.2305753">
  <ele>1586.18</ele>
  <time>2026-08-27T18:27:05Z</time>
  <course>9.83</course>
  <speed>0.022360679774997897</speed>
  <fix>3d</fix>
</trkpt>
<trkpt lat="40.0728424" lon="-105.2305755">
  <ele>1586.09</ele>
  <time>2026-08-27T18:27:05Z</time>
  <course>336.51</course>
  <speed>0.0</speed>
  <fix>3d</fix>
</trkpt>
<trkpt lat="40.0728422" lon="-105.2305753">
  <ele>1586.18</ele>
  <time>2026-08-27T18:27:05Z</time>
  <course>9.8</course>
  <speed>0.01414213562373095</speed>
  <fix>3d</fix>
</trkpt>
<trkpt lat="40.0728424" lon="-105.2305755">
  <ele>1586.09</ele>
  <time>2026-08-27T18:27:05Z</time>
  <course>324.74</course>
  <speed>0.0</speed>
  <fix>3d</fix>
</trkpt>
<trkpt lat="40.0728422" lon="-105.2305753">
  <ele>1586.18</ele>
  <time>2026-08-27T18:27:05Z</time>
  <course>9.76</course>
  <speed>0.01414213562373095</speed>
  <fix>3d</fix>
</trkpt>
<trkpt lat="40.0728424" lon="-105.2305755">
  <ele>1586.09</ele>
  <time>2026-08-27T18:27:05Z</time>
  <course>303.03</course>
  <speed>0.0</speed>
  <fix>3d</fix>
</trkpt>
<trkpt lat="40.0728422" lon="-105.2305753">
  <ele>1586.18</ele>
  <time>2026-08-27T18:27:05Z</time>
  <course>9.73</course>
  <speed>0.022360679774997897</speed>
  <fix>3d</fix>
</trkpt>
<trkpt lat="40.0728424" lon="-105.2305755">
  <ele>1586.09</ele>
  <time>2026-08-27T18:27:05Z</time>
  <course>341.73</course>
  <speed>0.0</speed>
  <fix>3d</fix>
</trkpt>
<trkpt lat="40.0728422" lon="-105.2305753">
  <ele>1586.18</ele>
  <time>2026-08-27T18:27:05Z</time>
  <course>9.7</course>
  <speed>0.022360679774997897</speed>
  <fix>3d</fix>
</trkpt>
<trkpt lat="40.0728424" lon="-105.2305755">
  <ele>1586.09</ele>
  <time>2026-08-27T18:27:05Z</time>
  <course>1.83</course>
  <speed>0.0</speed>
  <fix>3d</fix>
</trkpt>
<trkpt lat="40.0728422" lon="-105.2305753">
  <ele>1586.18</ele>
  <time>2026-08-27T18:27:05Z</time>
  <course>9.67</course>
  <speed>0.022360679774997897</speed>
  <fix>3d</fix>
</trkpt>
<trkpt lat="40.0728424" lon="-105.2305755">
  <ele>1586.09</ele>
  <time>2026-08-27T18:27:05Z</time>
  <course>312.86</course>
  <speed>0.0</speed>
  <fix>3d</fix>
</trkpt>
<trkpt lat="40.0728422" lon="-105.2305753">
  <ele>1586.18</ele>
  <time>2026-08-27T18:27:05Z</time>
  <course>9.63</course>
  <speed>0.01414213562373095</speed>
  <fix>3d</fix>
</trkpt>
<trkpt lat="40.0728424" lon="-105.2305755">
  <ele>1586.09</ele>
  <time>2026-08-27T18:27:05Z</time>
  <course>321.55</course>
  <speed>0.0</speed>
  <fix>3d</fix>
</trkpt>
<trkpt lat="40.0728422" lon="-105.2305753">
  <ele>1586.18</ele>
  <time>2026-08-27T18:27:05Z</time>
  <course>9.6</course>
  <speed>0.01414213562373095</speed>
  <fix>3d</fix>
</trkpt>
<trkpt lat="40.0728424" lon="-105.2305755">
  <ele>1586.09</ele>
  <time>2026-08-27T18:27:05Z</time>
  <course>334.58</course>
  <speed>0.0</speed>
  <fix>3d</fix>
</trkpt>
<trkpt lat="40.0728422" lon="-105.2305753">
  <ele>1586.18</ele>
  <time>2026-08-27T18:27:05Z</time>
  <course>9.57</course>
  <speed>0.01414213562373095</speed>
  <fix>3d</fix>
</trkpt>
<trkpt lat="40.0728424" lon="-105.2305755">
  <ele>1586.09</ele>
  <time>2026-08-27T18:27:05Z</time>
  <course>311.79</course>
  <speed>0.0</speed>
  <fix>3d</fix>
</trkpt>
<trkpt lat="40.0728422" lon="-105.2305753">
  <ele>1586.18</ele>
  <time>2026-08-27T18:27:05Z</time>
  <course>9.53</course>
  <speed>0.022360679774997897</speed>
  <fix>3d</fix>
</trkpt>
<trkpt lat="40.0728424" lon="-105.2305755">
  <ele>1586.09</ele>
  <time>2026-08-27T18:27:05Z</time>
  <course>320.94</course>
  <speed>0.0</speed>
  <fix>3d</fix>
</trkpt>
<trkpt lat="40.0728422" lon="-105.2305753">
  <ele>1586.18</ele>
  <time>2026-08-27T18:27:05Z</time>
  <course>9.5</course>
  <speed>0.022360679774997897</speed>
  <fix>3d</fix>
</trkpt>
<trkpt lat="40.0728424" lon="-105.2305755">
  <ele>1586.09</ele>
  <time>2026-08-27T18:27:05Z</time>
  <course>323.0</course>
  <speed>0.0</speed>
  <fix>3d</fix>
</trkpt>
<trkpt lat="40.0728422" lon="-105.2305753">
  <ele>1586.18</ele>
  <time>2026-08-27T18:27:05Z</time>
  <course>9.47</course>
  <speed>0.022360679774997897</speed>
  <fix>3d</fix>
</trkpt>
<trkpt lat="40.0728424" lon="-105.2305755">
  <ele>1586.09</ele>
  <time>2026-08-27T18:27:05Z</time>
  <course>309.68</course>
  <speed>0.0</speed>
  <fix>3d</fix>
</trkpt>
<trkpt lat="40.0728422" lon="-105.2305753">
  <ele>1586.18</ele>
  <time>2026-08-27T18:27:05Z</time>
  <course>9.44</course>
  <speed>0.01414213562373095</speed>
  <fix>3d</fix>
</trkpt>
<trkpt lat="40.0728424" lon="-105.2305755">
  <ele>1586.09</ele>
  <time>2026-08-27T18:27:05Z</time>
  <course>313.88</course>
  <speed>0.0</speed>
  <fix>3d</fix>
</trkpt>
<trkpt lat="40.0728422" lon="-105.2305753">
  <ele>1586.18</ele>
  <time>2026-08-27T18:27:05Z</time>
  <course>9.4</course>
  <speed>0.01414213562373095</speed>
  <fix>3d</fix>
</trkpt>
<trkpt lat="40.0728424" lon="-105.2305755">
  <ele>1586.09</ele>
  <time>2026-08-27T18:27:05Z</time>
  <course>312.16</course>
  <speed>0.0</speed>
  <fix>3d</fix>
</trkpt>
<trkpt lat="40.0728422" lon="-105.2305753">
  <ele>1586.18</ele>
  <time>2026-08-27T18:27:05Z</time>
  <course>9.37</course>
  <speed>0.01414213562373095</speed>
  <fix>3d</fix>
</trkpt>
<trkpt lat="40.0728424" lon="-105.2305755">
  <ele>1586.09</ele>
  <time>2026-08-27T18:27:05Z</time>
  <course>305.54</course>
  <speed>0.0</speed>
  <fix>3d</fix>
</trkpt>
<trkpt lat="40.0728422" lon="-105.2305753">
  <ele>1586.18</ele>
  <time>2026-08-27T18:27:05Z</time>
  <course>9.37</course>
  <speed>0.01414213562373095</speed>
  <fix>3d</fix>
</trkpt>
<trkpt lat="40.0728424" lon="-105.2305755">
  <ele>1586.09</ele>
  <time>2026-08-27T18:27:05Z</time>
  <course>306.69</course>
  <speed>0.0</speed>
  <fix>3d</fix>
</trkpt>
<trkpt lat="40.0728422" lon="-105.2305753">
  <ele>1586.18</ele>
  <time>2026-08-27T18:27:05Z</time>
  <course>9.45</course>
  <speed>0.01414213562373095</speed>
  <fix>3d</fix>
</trkpt>
<trkpt lat="40.0728424" lon="-105.2305755">
  <ele>1586.09</ele>
  <time>2026-08-27T18:27:05Z</time>
  <course>28.97</course>
  <speed>0.0</speed>
  <fix>3d</fix>
</trkpt>
<trkpt lat="40.0728422" lon="-105.2305753">
  <ele>1586.18</ele>
  <time>2026-08-27T18:27:05Z</time>
  <course>9.56</course>
  <speed>0.022360679774997897</speed>
  <fix>3d</fix>
</trkpt>
<trkpt lat="40.0728424" lon="-105.2305755">
  <ele>1586.09</ele>
  <time>2026-08-27T18:27:05Z</time>
  <course>322.04</course>
  <speed>0.0</speed>
  <fix>3d</fix>
</trkpt>
<trkpt lat="40.0728422" lon="-105.2305753">
  <ele>1586.17</ele>
  <time>2026-08-27T18:27:05Z</time>
  <course>9.65</course>
  <speed>0.022360679774997897</speed>
  <fix>3d</fix>
</trkpt>
<trkpt lat="40.0728424" lon="-105.2305755">
  <ele>1586.09</ele>
  <time>2026-08-27T18:27:05Z</time>
  <course>291.55</course>
  <speed>0.0</speed>
  <fix>3d</fix>
</trkpt>
<trkpt lat="40.0728422" lon="-105.2305753">
  <ele>1586.18</ele>
  <time>2026-08-27T18:27:05Z</time>
  <course>9.75</course>
  <speed>0.022360679774997897</speed>
  <fix>3d</fix>
</trkpt>
<trkpt lat="40.0728424" lon="-105.2305755">
  <ele>1586.09</ele>
  <time>2026-08-27T18:27:05Z</time>
  <course>293.35</course>
  <speed>0.0</speed>
  <fix>3d</fix>
</trkpt>
<trkpt lat="40.0728422" lon="-105.2305753">
  <ele>1586.19</ele>
  <time>2026-08-27T18:27:05Z</time>
  <course>9.84</course>
  <speed>0.022360679774997897</speed>
  <fix>3d</fix>
</trkpt>
<trkpt lat="40.0728424" lon="-105.2305755">
  <ele>1586.09</ele>
  <time>2026-08-27T18:27:05Z</time>
  <course>294.93</course>
  <speed>0.0</speed>
  <fix>3d</fix>
</trkpt>
<trkpt lat="40.0728422" lon="-105.2305753">
  <ele>1586.18</ele>
  <time>2026-08-27T18:27:05Z</time>
  <course>9.93</course>
  <speed>0.022360679774997897</speed>
  <fix>3d</fix>
</trkpt>
<trkpt lat="40.0728424" lon="-105.2305755">
  <ele>1586.09</ele>
  <time>2026-08-27T18:27:05Z</time>
  <course>294.4</course>
  <speed>0.0</speed>
  <fix>3d</fix>
</trkpt>
<trkpt lat="40.0728422" lon="-105.2305753">
  <ele>1586.18</ele>
  <time>2026-08-27T18:27:05Z</time>
  <course>10.02</course>
  <speed>0.022360679774997897</speed>
  <fix>3d</fix>
</trkpt>
<trkpt lat="40.0728424" lon="-105.2305755">
  <ele>1586.09</ele>
  <time>2026-08-27T18:27:05Z</time>
  <course>282.86</course>
  <speed>0.0</speed>
  <fix>3d</fix>
</trkpt>
<trkpt lat="40.0728422" lon="-105.2305753">
  <ele>1586.19</ele>
  <time>2026-08-27T18:27:05Z</time>
  <course>10.11</course>
  <speed>0.022360679774997897</speed>
  <fix>3d</fix>
</trkpt>
<trkpt lat="40.0728424" lon="-105.2305755">
  <ele>1586.09</ele>
  <time>2026-08-27T18:27:05Z</time>
  <course>274.41</course>
  <speed>0.0</speed>
  <fix>3d</fix>
</trkpt>
<trkpt lat="40.0728422" lon="-105.2305753">
  <ele>1586.19</ele>
  <time>2026-08-27T18:27:05Z</time>
  <course>10.2</course>
  <speed>0.022360679774997897</speed>
  <fix>3d</fix>
</trkpt>
<trkpt lat="40.0728424" lon="-105.2305755">
  <ele>1586.09</ele>
  <time>2026-08-27T18:27:05Z</time>
  <course>205.55</course>
  <speed>0.0</speed>
  <fix>3d</fix>
</trkpt>
<trkpt lat="40.0728422" lon="-105.2305753">
  <ele>1586.2</ele>
  <time>2026-08-27T18:27:05Z</time>
  <course>10.29</course>
  <speed>0.022360679774997897</speed>
  <fix>3d</fix>
</trkpt>
<trkpt lat="40.0728424" lon="-105.2305755">
  <ele>1586.09</ele>
  <time>2026-08-27T18:27:05Z</time>
  <course>42.06</course>
  <speed>0.0</speed>
  <fix>3d</fix>
</trkpt>
<trkpt lat="40.0728422" lon="-105.2305753">
  <ele>1586.2</ele>
  <time>2026-08-27T18:27:05Z</time>
  <course>10.38</course>
  <speed>0.022360679774997897</speed>
  <fix>3d</fix>
</trkpt>
<trkpt lat="40.0728424" lon="-105.2305755">
  <ele>1586.09</ele>
  <time>2026-08-27T18:27:05Z</time>
  <course>292.68</course>
  <speed>0.0</speed>
  <fix>3d</fix>
</trkpt>
<trkpt lat="39.654938" lon="-104.1331666">
  <ele>1569.54</ele>
  <time>2026-08-27T18:27:06Z</time>
  <course>168.11</course>
  <speed>0.0</speed>
  <fix>3d</fix>
</trkpt>
<trkpt lat="40.072842" lon="-105.230575">
  <ele>1586.09</ele>
  <time>2026-08-27T18:27:06Z</time>
  <course>2.03</course>
  <speed>0.0</speed>
  <fix>3d</fix>
</trkpt>
<trkpt lat="40.072842" lon="-105.230575">
  <ele>1586.09</ele>
  <time>2026-08-27T18:27:06Z</time>
  <course>238.4</course>
  <speed>0.0</speed>
  <fix>3d</fix>
</trkpt>
<trkpt lat="40.072842" lon="-105.230575">
  <ele>1586.09</ele>
  <time>2026-08-27T18:27:06Z</time>
  <course>2.43</course>
  <speed>0.0</speed>
  <fix>3d</fix>
</trkpt>
<trkpt lat="40.072842" lon="-105.230575">
  <ele>1586.09</ele>
  <time>2026-08-27T18:27:06Z</time>
  <course>194.29</course>
  <speed>0.0</speed>
  <fix>3d</fix>
</trkpt>
<trkpt lat="40.072842" lon="-105.230575">
  <ele>1586.09</ele>
  <time>2026-08-27T18:27:06Z</time>
  <course>3.17</course>
  <speed>0.0</speed>
  <fix>3d</fix>
</trkpt>
<trkpt lat="40.072842" lon="-105.230575">
  <ele>1586.09</ele>
  <time>2026-08-27T18:27:06Z</time>
  <course>193.66</course>
  <speed>0.0</speed>
  <fix>3d</fix>
</trkpt>
<trkpt lat="40.072842" lon="-105.230575">
  <ele>1586.09</ele>
  <time>2026-08-27T18:27:06Z</time>
  <course>3.85</course>
  <speed>0.0</speed>
  <fix>3d</fix>
</trkpt>
<trkpt lat="40.072842" lon="-105.230575">
  <ele>1586.09</ele>
  <time>2026-08-27T18:27:06Z</time>
  <course>303.54</course>
  <speed>0.0</speed>
  <fix>3d</fix>
</trkpt>
<trkpt lat="40.072842" lon="-105.230575">
  <ele>1586.09</ele>
  <time>2026-08-27T18:27:06Z</time>
  <course>4.48</course>
  <speed>0.0</speed>
  <fix>3d</fix>
</trkpt>
<trkpt lat="40.072842" lon="-105.230575">
  <ele>1586.09</ele>
  <time>2026-08-27T18:27:06Z</time>
  <course>110.94</course>
  <speed>0.0</speed>
  <fix>3d</fix>
</trkpt>
<trkpt lat="40.072842" lon="-105.230575">
  <ele>1586.09</ele>
  <time>2026-08-27T18:27:06Z</time>
  <course>5.06</course>
  <speed>0.0</speed>
  <fix>3d</fix>
</trkpt>
<trkpt lat="40.072842" lon="-105.230575">
  <ele>1586.09</ele>
  <time>2026-08-27T18:27:06Z</time>
  <course>191.21</course>
  <speed>0.0</speed>
  <fix>3d</fix>
</trkpt>
<trkpt lat="40.072842" lon="-105.230575">
  <ele>1586.09</ele>
  <time>2026-08-27T18:27:06Z</time>
  <course>5.62</course>
  <speed>0.0</speed>
  <fix>3d</fix>
</trkpt>
<trkpt lat="40.072842" lon="-105.230575">
  <ele>1586.09</ele>
  <time>2026-08-27T18:27:06Z</time>
  <course>252.23</course>
  <speed>0.0</speed>
  <fix>3d</fix>
</trkpt>
<trkpt lat="40.072842" lon="-105.230575">
  <ele>1586.09</ele>
  <time>2026-08-27T18:27:06Z</time>
  <course>6.15</course>
  <speed>0.0</speed>
  <fix>3d</fix>
</trkpt>
<trkpt lat="40.072842" lon="-105.230575">
  <ele>1586.09</ele>
  <time>2026-08-27T18:27:06Z</time>
  <course>170.36</course>
  <speed>0.0</speed>
  <fix>3d</fix>
</trkpt>
<trkpt lat="40.072842" lon="-105.230575">
  <ele>1586.09</ele>
  <time>2026-08-27T18:27:06Z</time>
  <course>6.65</course>
  <speed>0.0</speed>
  <fix>3d</fix>
</trkpt>
<trkpt lat="40.072842" lon="-105.230575">
  <ele>1586.09</ele>
  <time>2026-08-27T18:27:06Z</time>
  <course>179.36</course>
  <speed>0.0</speed>
  <fix>3d</fix>
</trkpt>
<trkpt lat="40.072842" lon="-105.230575">
  <ele>1586.09</ele>
  <time>2026-08-27T18:27:06Z</time>
  <course>7.11</course>
  <speed>0.0</speed>
  <fix>3d</fix>
</trkpt>
<trkpt lat="40.072842" lon="-105.230575">
  <ele>1586.09</ele>
  <time>2026-08-27T18:27:06Z</time>
  <course>19.98</course>
  <speed>0.0</speed>
  <fix>3d</fix>
</trkpt>
<trkpt lat="40.072842" lon="-105.230575">
  <ele>1586.09</ele>
  <time>2026-08-27T18:27:06Z</time>
  <course>7.53</course>
  <speed>0.0</speed>
  <fix>3d</fix>
</trkpt>
<trkpt lat="40.072842" lon="-105.230575">
  <ele>1586.09</ele>
  <time>2026-08-27T18:27:06Z</time>
  <course>17.49</course>
  <speed>0.0</speed>
  <fix>3d</fix>
</trkpt>
<trkpt lat="40.072842" lon="-105.230575">
  <ele>1586.09</ele>
  <time>2026-08-27T18:27:06Z</time>
  <course>7.92</course>
  <speed>0.0</speed>
  <fix>3d</fix>
</trkpt>
<trkpt lat="40.072842" lon="-105.230575">
  <ele>1586.09</ele>
  <time>2026-08-27T18:27:06Z</time>
  <course>356.19</course>
  <speed>0.0</speed>
  <fix>3d</fix>
</trkpt>
<trkpt lat="40.072842" lon="-105.230575">
  <ele>1586.09</ele>
  <time>2026-08-27T18:27:06Z</time>
  <course>8.29</course>
  <speed>0.0</speed>
  <fix>3d</fix>
</trkpt>
<trkpt lat="40.072842" lon="-105.230575">
  <ele>1586.09</ele>
  <time>2026-08-27T18:27:06Z</time>
  <course>77.32</course>
  <speed>0.0</speed>
  <fix>3d</fix>
</trkpt>
<trkpt lat="40.072842" lon="-105.230575">
  <ele>1586.09</ele>
  <time>2026-08-27T18:27:06Z</time>
  <course>8.63</course>
  <speed>0.0</speed>
  <fix>3d</fix>
</trkpt>
<trkpt lat="40.072842" lon="-105.230575">
  <ele>1586.09</ele>
  <time>2026-08-27T18:27:06Z</time>
  <course>290.54</course>
  <speed>0.0</speed>
  <fix>3d</fix>
</trkpt>
<trkpt lat="40.072842" lon="-105.230575">
  <ele>1586.09</ele>
  <time>2026-08-27T18:27:06Z</time>
  <course>8.94</course>
  <speed>0.0</speed>
  <fix>3d</fix>
</trkpt>
<trkpt lat="40.072842" lon="-105.230575">
  <ele>1586.09</ele>
  <time>2026-08-27T18:27:06Z</time>
  <course>338.69</course>
  <speed>0.0</speed>
  <fix>3d</fix>
</trkpt>
<trkpt lat="40.072842" lon="-105.230575">
  <ele>1586.09</ele>
  <time>2026-08-27T18:27:06Z</time>
  <course>9.23</course>
  <speed>0.0</speed>
  <fix>3d</fix>
</trkpt>
<trkpt lat="40.072842" lon="-105.230575">
  <ele>1586.09</ele>
  <time>2026-08-27T18:27:06Z</time>
  <course>326.81</course>
  <speed>0.0</speed>
  <fix>3d</fix>
</trkpt>
<trkpt lat="40.072842" lon="-105.230575">
  <ele>1586.09</ele>
  <time>2026-08-27T18:27:06Z</time>
  <course>9.49</course>
  <speed>0.0</speed>
  <fix>3d</fix>
</trkpt>
<trkpt lat="40.072842" lon="-105.230575">
  <ele>1586.09</ele>
  <time>2026-08-27T18:27:06Z</time>
  <course>262.23</course>
  <speed>0.0</speed>
  <fix>3d</fix>
</trkpt>
<trkpt lat="40.072842" lon="-105.230575">
  <ele>1586.09</ele>
  <time>2026-08-27T18:27:06Z</time>
  <course>9.73</course>
  <speed>0.0</speed>
  <fix>3d</fix>
</trkpt>
<trkpt lat="40.072842" lon="-105.230575">
  <ele>1586.09</ele>
  <time>2026-08-27T18:27:06Z</time>
  <course>159.08</course>
  <speed>0.0</speed>
  <fix>3d</fix>
</trkpt>
<trkpt lat="40.072842" lon="-105.230575">
  <ele>1586.09</ele>
  <time>2026-08-27T18:27:06Z</time>
  <course>9.96</course>
  <speed>0.0</speed>
  <fix>3d</fix>
</trkpt>
<trkpt lat="40.072842" lon="-105.230575">
  <ele>1586.09</ele>
  <time>2026-08-27T18:27:06Z</time>
  <course>287.98</course>
  <speed>0.0</speed>
  <fix>3d</fix>
</trkpt>
<trkpt lat="40.072842" lon="-105.230575">
  <ele>1586.09</ele>
  <time>2026-08-27T18:27:06Z</time>
  <course>10.16</course>
  <speed>0.0</speed>
  <fix>3d</fix>
</trkpt>
<trkpt lat="40.072842" lon="-105.230575">
  <ele>1586.09</ele>
  <time>2026-08-27T18:27:06Z</time>
  <course>278.3</course>
  <speed>0.0</speed>
  <fix>3d</fix>
</trkpt>
<trkpt lat="40.072842" lon="-105.230575">
  <ele>1586.09</ele>
  <time>2026-08-27T18:27:06Z</time>
  <course>10.35</course>
  <speed>0.0</speed>
  <fix>3d</fix>
</trkpt>
<trkpt lat="40.072842" lon="-105.230575">
  <ele>1586.09</ele>
  <time>2026-08-27T18:27:06Z</time>
  <course>261.72</course>
  <speed>0.0</speed>
  <fix>3d</fix>
</trkpt>
<trkpt lat="40.072842" lon="-105.230575">
  <ele>1586.09</ele>
  <time>2026-08-27T18:27:06Z</time>
  <course>10.52</course>
  <speed>0.0</speed>
  <fix>3d</fix>
</trkpt>
<trkpt lat="40.072842" lon="-105.230575">
  <ele>1586.09</ele>
  <time>2026-08-27T18:27:06Z</time>
  <course>264.4</course>
  <speed>0.0</speed>
  <fix>3d</fix>
</trkpt>
<trkpt lat="40.072842" lon="-105.230575">
  <ele>1586.09</ele>
  <time>2026-08-27T18:27:06Z</time>
  <course>10.67</course>
  <speed>0.0</speed>
  <fix>3d</fix>
</trkpt>
<trkpt lat="40.072842" lon="-105.230575">
  <ele>1586.09</ele>
  <time>2026-08-27T18:27:06Z</time>
  <course>266.8</course>
  <speed>0.0</speed>
  <fix>3d</fix>
</trkpt>
<trkpt lat="40.072842" lon="-105.230575">
  <ele>1586.09</ele>
  <time>2026-08-27T18:27:06Z</time>
  <course>10.82</course>
  <speed>0.0</speed>
  <fix>3d</fix>
</trkpt>
<trkpt lat="40.072842" lon="-105.230575">
  <ele>1586.09</ele>
  <time>2026-08-27T18:27:06Z</time>
  <course>266.15</course>
  <speed>0.0</speed>
  <fix>3d</fix>
</trkpt>
<trkpt lat="40.072842" lon="-105.230575">
  <ele>1586.09</ele>
  <time>2026-08-27T18:27:06Z</time>
  <course>10.95</course>
  <speed>0.0</speed>
  <fix>3d</fix>
</trkpt>
<trkpt lat="40.072842" lon="-105.230575">
  <ele>1586.09</ele>
  <time>2026-08-27T18:27:06Z</time>
  <course>265.92</course>
  <speed>0.0</speed>
  <fix>3d</fix>
</trkpt>
<trkpt lat="40.072842" lon="-105.230575">
  <ele>1586.09</ele>
  <time>2026-08-27T18:27:06Z</time>
  <course>11.07</course>
  <speed>0.0</speed>
  <fix>3d</fix>
</trkpt>
<trkpt lat="40.072842" lon="-105.230575">
  <ele>1586.09</ele>
  <time>2026-08-27T18:27:06Z</time>
  <course>266.03</course>
  <speed>0.0</speed>
  <fix>3d</fix>
</trkpt>
<trkpt lat="40.072842" lon="-105.230575">
  <ele>1586.09</ele>
  <time>2026-08-27T18:27:06Z</time>
  <course>11.18</course>
  <speed>0.0</speed>
  <fix>3d</fix>
</trkpt>
<trkpt lat="40.072842" lon="-105.230575">
  <ele>1586.09</ele>
  <time>2026-08-27T18:27:06Z</time>
  <course>266.05</course>
  <speed>0.0</speed>
  <fix>3d</fix>
</trkpt>
<trkpt lat="40.072842" lon="-105.230575">
  <ele>1586.09</ele>
  <time>2026-08-27T18:27:06Z</time>
  <course>11.28</course>
  <speed>0.0</speed>
  <fix>3d</fix>
</trkpt>
<trkpt lat="40.072842" lon="-105.230575">
  <ele>1586.09</ele>
  <time>2026-08-27T18:27:06Z</time>
  <course>266.03</course>
  <speed>0.0</speed>
  <fix>3d</fix>
</trkpt>
<trkpt lat="40.072842" lon="-105.230575">
  <ele>1586.09</ele>
  <time>2026-08-27T18:27:06Z</time>
  <course>11.37</course>
  <speed>0.0</speed>
  <fix>3d</fix>
</trkpt>
<trkpt lat="40.072842" lon="-105.230575">
  <ele>1586.09</ele>
  <time>2026-08-27T18:27:06Z</time>
  <course>266.03</course>
  <speed>0.0</speed>
  <fix>3d</fix>
</trkpt>
<trkpt lat="40.072842" lon="-105.230575">
  <ele>1586.09</ele>
  <time>2026-08-27T18:27:06Z</time>
  <course>11.45</course>
  <speed>0.0</speed>
  <fix>3d</fix>
</trkpt>
<trkpt lat="40.072842" lon="-105.230575">
  <ele>1586.09</ele>
  <time>2026-08-27T18:27:06Z</time>
  <course>266.03</course>
  <speed>0.0</speed>
  <fix>3d</fix>
</trkpt>
<trkpt lat="40.072842" lon="-105.230575">
  <ele>1586.09</ele>
  <time>2026-08-27T18:27:06Z</time>
  <course>11.53</course>
  <speed>0.0</speed>
  <fix>3d</fix>
</trkpt>
<trkpt lat="40.072842" lon="-105.230575">
  <ele>1586.09</ele>
  <time>2026-08-27T18:27:06Z</time>
  <course>266.03</course>
  <speed>0.0</speed>
  <fix>3d</fix>
</trkpt>
<trkpt lat="40.072842" lon="-105.230575">
  <ele>1586.09</ele>
  <time>2026-08-27T18:27:06Z</time>
  <course>11.6</course>
  <speed>0.0</speed>
  <fix>3d</fix>
</trkpt>
<trkpt lat="40.072842" lon="-105.230575">
  <ele>1586.09</ele>
  <time>2026-08-27T18:27:06Z</time>
  <course>266.03</course>
  <speed>0.0</speed>
  <fix>3d</fix>
</trkpt>
<trkpt lat="40.072842" lon="-105.230575">
  <ele>1586.09</ele>
  <time>2026-08-27T18:27:06Z</time>
  <course>11.66</course>
  <speed>0.0</speed>
  <fix>3d</fix>
</trkpt>
<trkpt lat="40.072842" lon="-105.230575">
  <ele>1586.09</ele>
  <time>2026-08-27T18:27:06Z</time>
  <course>266.03</course>
  <speed>0.0</speed>
  <fix>3d</fix>
</trkpt>
<trkpt lat="40.072842" lon="-105.230575">
  <ele>1586.09</ele>
  <time>2026-08-27T18:27:06Z</time>
  <course>11.71</course>
  <speed>0.0</speed>
  <fix>3d</fix>
</trkpt>
<trkpt lat="40.072842" lon="-105.230575">
  <ele>1586.09</ele>
  <time>2026-08-27T18:27:06Z</time>
  <course>266.03</course>
  <speed>0.0</speed>
  <fix>3d</fix>
</trkpt>
<trkpt lat="40.072842" lon="-105.230575">
  <ele>1586.09</ele>
  <time>2026-08-27T18:27:06Z</time>
  <course>11.76</course>
  <speed>0.0</speed>
  <fix>3d</fix>
</trkpt>
<trkpt lat="40.072842" lon="-105.230575">
  <ele>1586.09</ele>
  <time>2026-08-27T18:27:06Z</time>
  <course>266.03</course>
  <speed>0.0</speed>
  <fix>3d</fix>
</trkpt>
<trkpt lat="40.072842" lon="-105.230575">
  <ele>1586.09</ele>
  <time>2026-08-27T18:27:06Z</time>
  <course>11.81</course>
  <speed>0.0</speed>
  <fix>3d</fix>
</trkpt>
<trkpt lat="40.072842" lon="-105.230575">
  <ele>1586.09</ele>
  <time>2026-08-27T18:27:06Z</time>
  <course>266.03</course>
  <speed>0.0</speed>
  <fix>3d</fix>
</trkpt>
<trkpt lat="40.072842" lon="-105.230575">
  <ele>1586.09</ele>
  <time>2026-08-27T18:27:06Z</time>
  <course>11.85</course>
  <speed>0.0</speed>
  <fix>3d</fix>
</trkpt>
<trkpt lat="40.072842" lon="-105.230575">
  <ele>1586.09</ele>
  <time>2026-08-27T18:27:06Z</time>
  <course>266.03</course>
  <speed>0.0</speed>
  <fix>3d</fix>
</trkpt>
<trkpt lat="40.072842" lon="-105.230575">
  <ele>1586.09</ele>
  <time>2026-08-27T18:27:06Z</time>
  <course>11.89</course>
  <speed>0.0</speed>
  <fix>3d</fix>
</trkpt>
<trkpt lat="40.072842" lon="-105.230575">
  <ele>1586.09</ele>
  <time>2026-08-27T18:27:06Z</time>
  <course>266.03</course>
  <speed>0.0</speed>
  <fix>3d</fix>
</trkpt>
<trkpt lat="40.072842" lon="-105.230575">
  <ele>1586.09</ele>
  <time>2026-08-27T18:27:06Z</time>
  <course>11.92</course>
  <speed>0.0</speed>
  <fix>3d</fix>
</trkpt>
<trkpt lat="40.072842" lon="-105.230575">
  <ele>1586.09</ele>
  <time>2026-08-27T18:27:06Z</time>
  <course>266.03</course>
  <speed>0.0</speed>
  <fix>3d</fix>
</trkpt>
<trkpt lat="40.072842" lon="-105.230575">
  <ele>1586.09</ele>
  <time>2026-08-27T18:27:06Z</time>
  <course>11.95</course>
  <speed>0.0</speed>
  <fix>3d</fix>
</trkpt>
<trkpt lat="40.072842" lon="-105.230575">
  <ele>1586.09</ele>
  <time>2026-08-27T18:27:06Z</time>
  <course>266.03</course>
  <speed>0.0</speed>
  <fix>3d</fix>
</trkpt>
<trkpt lat="40.072842" lon="-105.230575">
  <ele>1586.09</ele>
  <time>2026-08-27T18:27:06Z</time>
  <course>11.97</course>
  <speed>0.0</speed>
  <fix>3d</fix>
</trkpt>
<trkpt lat="40.072842" lon="-105.230575">
  <ele>1586.09</ele>
  <time>2026-08-27T18:27:06Z</time>
  <course>266.03</course>
  <speed>0.0</speed>
  <fix>3d</fix>
</trkpt>
<trkpt lat="40.072842" lon="-105.230575">
  <ele>1586.09</ele>
  <time>2026-08-27T18:27:06Z</time>
  <course>12.0</course>
  <speed>0.0</speed>
  <fix>3d</fix>
</trkpt>
<trkpt lat="40.072842" lon="-105.230575">
  <ele>1586.09</ele>
  <time>2026-08-27T18:27:06Z</time>
  <course>266.03</course>
  <speed>0.0</speed>
  <fix>3d</fix>
</trkpt>
<trkpt lat="40.072842" lon="-105.230575">
  <ele>1586.09</ele>
  <time>2026-08-27T18:27:06Z</time>
  <course>12.02</course>
  <speed>0.0</speed>
  <fix>3d</fix>
</trkpt>
<trkpt lat="40.072842" lon="-105.230575">
  <ele>1586.09</ele>
  <time>2026-08-27T18:27:06Z</time>
  <course>266.03</course>
  <speed>0.0</speed>
  <fix>3d</fix>
</trkpt>
<trkpt lat="40.072842" lon="-105.230575">
  <ele>1586.09</ele>
  <time>2026-08-27T18:27:06Z</time>
  <course>12.04</course>
  <speed>0.0</speed>
  <fix>3d</fix>
</trkpt>
<trkpt lat="40.072842" lon="-105.230575">
  <ele>1586.09</ele>
  <time>2026-08-27T18:27:06Z</time>
  <course>266.03</course>
  <speed>0.0</speed>
  <fix>3d</fix>
</trkpt>
<trkpt lat="40.072842" lon="-105.230575">
  <ele>1586.09</ele>
  <time>2026-08-27T18:27:06Z</time>
  <course>12.05</course>
  <speed>0.0</speed>
  <fix>3d</fix>
</trkpt>
<trkpt lat="40.072842" lon="-105.230575">
  <ele>1586.09</ele>
  <time>2026-08-27T18:27:06Z</time>
  <course>266.03</course>
  <speed>0.0</speed>
  <fix>3d</fix>
</trkpt>
<trkpt lat="40.072842" lon="-105.230575">
  <ele>1586.09</ele>
  <time>2026-08-27T18:27:06Z</time>
  <course>12.07</course>
  <speed>0.0</speed>
  <fix>3d</fix>
</trkpt>
<trkpt lat="40.072842" lon="-105.230575">
  <ele>1586.09</ele>
  <time>2026-08-27T18:27:06Z</time>
  <course>266.03</course>
  <speed>0.0</speed>
  <fix>3d</fix>
</trkpt>
<trkpt lat="40.072842" lon="-105.230575">
  <ele>1586.09</ele>
  <time>2026-08-27T18:27:06Z</time>
  <course>12.08</course>
  <speed>0.0</speed>
  <fix>3d</fix>
</trkpt>
<trkpt lat="40.072842" lon="-105.230575">
  <ele>1586.09</ele>
  <time>2026-08-27T18:27:06Z</time>
  <course>266.03</course>
  <speed>0.0</speed>
  <fix>3d</fix>
</trkpt>
<trkpt lat="40.072842" lon="-105.230575">
  <ele>1586.09</ele>
  <time>2026-08-27T18:27:07Z</time>
  <course>12.09</course>
  <speed>0.0</speed>
  <fix>3d</fix>
</trkpt>
<trkpt lat="40.072842" lon="-105.230575">
  <ele>1586.09</ele>
  <time>2026-08-27T18:27:07Z</time>
  <course>266.03</course>
  <speed>0.0</speed>
  <fix>3d</fix>
</trkpt>
<trkpt lat="40.072842" lon="-105.230575">
  <ele>1586.09</ele>
  <time>2026-08-27T18:27:07Z</time>
  <course>12.1</course>
  <speed>0.0</speed>
  <fix>3d</fix>
</trkpt>
<trkpt lat="40.072842" lon="-105.230575">
  <ele>1586.09</ele>
  <time>2026-08-27T18:27:07Z</time>
  <course>266.03</course>
  <speed>0.0</speed>
  <fix>3d</fix>
</trkpt>
<trkpt lat="40.072842" lon="-105.230575">
  <ele>1586.09</ele>
  <time>2026-08-27T18:27:07Z</time>
  <course>12.1</course>
  <speed>0.0</speed>
  <fix>3d</fix>
</trkpt>
<trkpt lat="40.072842" lon="-105.230575">
  <ele>1586.09</ele>
  <time>2026-08-27T18:27:07Z</time>
  <course>266.03</course>
  <speed>0.0</speed>
  <fix>3d</fix>
</trkpt>
<trkpt lat="40.072842" lon="-105.230575">
  <ele>1586.09</ele>
  <time>2026-08-27T18:27:07Z</time>
  <course>12.11</course>
  <speed>0.0</speed>
  <fix>3d</fix>
</trkpt>
<trkpt lat="40.072842" lon="-105.230575">
  <ele>1586.09</ele>
  <time>2026-08-27T18:27:07Z</time>
  <course>266.03</course>
  <speed>0.0</speed>
  <fix>3d</fix>
</trkpt>
<trkpt lat="40.072842" lon="-105.230575">
  <ele>1586.09</ele>
  <time>2026-08-27T18:27:07Z</time>
  <course>12.12</course>
  <speed>0.0</speed>
  <fix>3d</fix>
</trkpt>
<trkpt lat="40.072842" lon="-105.230575">
  <ele>1586.09</ele>
  <time>2026-08-27T18:27:07Z</time>
  <course>266.03</course>
  <speed>0.0</speed>
  <fix>3d</fix>
</trkpt>
<trkpt lat="40.072842" lon="-105.230575">
  <ele>1586.09</ele>
  <time>2026-08-27T18:27:07Z</time>
  <course>12.12</course>
  <speed>0.0</speed>
  <fix>3d</fix>
</trkpt>
<trkpt lat="40.072842" lon="-105.230575">
  <ele>1586.09</ele>
  <time>2026-08-27T18:27:07Z</time>
  <course>266.03</course>
  <speed>0.0</speed>
  <fix>3d</fix>
</trkpt>
<trkpt lat="40.072842" lon="-105.230575">
  <ele>1586.09</ele>
  <time>2026-08-27T18:27:07Z</time>
  <course>12.12</course>
  <speed>0.0</speed>
  <fix>3d</fix>
</trkpt>
<trkpt lat="40.072842" lon="-105.230575">
  <ele>1586.09</ele>
  <time>2026-08-27T18:27:07Z</time>
  <course>266.03</course>
  <speed>0.0</speed>
  <fix>3d</fix>
</trkpt>
<trkpt lat="40.072842" lon="-105.230575">
  <ele>1586.09</ele>
  <time>2026-08-27T18:27:07Z</time>
  <course>12.13</course>
  <speed>0.0</speed>
  <fix>3d</fix>
</trkpt>
<trkpt lat="40.072842" lon="-105.230575">
  <ele>1586.09</ele>
  <time>2026-08-27T18:27:07Z</time>
  <course>266.03</course>
  <speed>0.0</speed>
  <fix>3d</fix>
</trkpt>
<trkpt lat="40.072842" lon="-105.230575">
  <ele>1586.09</ele>
  <time>2026-08-27T18:27:07Z</time>
  <course>12.13</course>
  <speed>0.0</speed>
  <fix>3d</fix>
</trkpt>
<trkpt lat="40.072842" lon="-105.230575">
  <ele>1586.09</ele>
  <time>2026-08-27T18:27:07Z</time>
  <course>266.03</course>
  <speed>0.0</speed>
  <fix>3d</fix>
</trkpt>
<trkpt lat="40.072842" lon="-105.230575">
  <ele>1586.09</ele>
  <time>2026-08-27T18:27:07Z</time>
  <course>12.13</course>
  <speed>0.0</speed>
  <fix>3d</fix>
</trkpt>
<trkpt lat="40.072842" lon="-105.230575">
  <ele>1586.09</ele>
  <time>2026-08-27T18:27:07Z</time>
  <course>266.03</course>
  <speed>0.0</speed>
  <fix>3d</fix>
</trkpt>
<trkpt lat="40.072842" lon="-105.230575">
  <ele>1586.09</ele>
  <time>2026-08-27T18:27:07Z</time>
  <course>12.12</course>
  <speed>0.01</speed>
  <fix>3d</fix>
</trkpt>
<trkpt lat="40.072842" lon="-105.230575">
  <ele>1586.09</ele>
  <time>2026-08-27T18:27:07Z</time>
  <course>266.03</course>
  <speed>0.0</speed>
  <fix>3d</fix>
</trkpt>
<trkpt lat="40.072842" lon="-105.230575">
  <ele>1586.09</ele>
  <time>2026-08-27T18:27:07Z</time>
  <course>12.12</course>
  <speed>0.01</speed>
  <fix>3d</fix>
</trkpt>
<trkpt lat="40.072842" lon="-105.230575">
  <ele>1586.09</ele>
  <time>2026-08-27T18:27:07Z</time>
  <course>266.03</course>
  <speed>0.0</speed>
  <fix>3d</fix>
</trkpt>
<trkpt lat="40.072842" lon="-105.230575">
  <ele>1586.09</ele>
  <time>2026-08-27T18:27:07Z</time>
  <course>12.12</course>
  <speed>0.01</speed>
  <fix>3d</fix>
</trkpt>
<trkpt lat="40.072842" lon="-105.230575">
  <ele>1586.09</ele>
  <time>2026-08-27T18:27:07Z</time>
  <course>266.03</course>
  <speed>0.0</speed>
  <fix>3d</fix>
</trkpt>
<trkpt lat="40.072842" lon="-105.230575">
  <ele>1586.09</ele>
  <time>2026-08-27T18:27:07Z</time>
  <course>12.12</course>
  <speed>0.01</speed>
  <fix>3d</fix>
</trkpt>
<trkpt lat="40.072842" lon="-105.230575">
  <ele>1586.09</ele>
  <time>2026-08-27T18:27:07Z</time>
  <course>266.03</course>
  <speed>0.0</speed>
  <fix>3d</fix>
</trkpt>
<trkpt lat="40.072842" lon="-105.230575">
  <ele>1586.09</ele>
  <time>2026-08-27T18:27:07Z</time>
  <course>12.11</course>
  <speed>0.01</speed>
  <fix>3d</fix>
</trkpt>
<trkpt lat="40.072842" lon="-105.230575">
  <ele>1586.09</ele>
  <time>2026-08-27T18:27:07Z</time>
  <course>266.03</course>
  <speed>0.0</speed>
  <fix>3d</fix>
</trkpt>
<trkpt lat="40.072842" lon="-105.230575">
  <ele>1586.09</ele>
  <time>2026-08-27T18:27:07Z</time>
  <course>12.11</course>
  <speed>0.01</speed>
  <fix>3d</fix>
</trkpt>
<trkpt lat="40.072842" lon="-105.230575">
  <ele>1586.09</ele>
  <time>2026-08-27T18:27:07Z</time>
  <course>266.03</course>
  <speed>0.0</speed>
  <fix>3d</fix>
</trkpt>
<trkpt lat="40.072842" lon="-105.230575">
  <ele>1586.09</ele>
  <time>2026-08-27T18:27:07Z</time>
  <course>12.1</course>
  <speed>0.01</speed>
  <fix>3d</fix>
</trkpt>
<trkpt lat="40.072842" lon="-105.230575">
  <ele>1586.09</ele>
  <time>2026-08-27T18:27:07Z</time>
  <course>266.03</course>
  <speed>0.0</speed>
  <fix>3d</fix>
</trkpt>
<trkpt lat="40.072842" lon="-105.230575">
  <ele>1586.09</ele>
  <time>2026-08-27T18:27:07Z</time>
  <course>12.1</course>
  <speed>0.01</speed>
  <fix>3d</fix>
</trkpt>
<trkpt lat="40.072842" lon="-105.230575">
  <ele>1586.09</ele>
  <time>2026-08-27T18:27:07Z</time>
  <course>266.03</course>
  <speed>0.0</speed>
  <fix>3d</fix>
</trkpt>
<trkpt lat="40.072842" lon="-105.230575">
  <ele>1586.09</ele>
  <time>2026-08-27T18:27:07Z</time>
  <course>12.09</course>
  <speed>0.01</speed>
  <fix>3d</fix>
</trkpt>
<trkpt lat="40.072842" lon="-105.230575">
  <ele>1586.09</ele>
  <time>2026-08-27T18:27:07Z</time>
  <course>266.03</course>
  <speed>0.0</speed>
  <fix>3d</fix>
</trkpt>
<trkpt lat="40.072842" lon="-105.230575">
  <ele>1586.09</ele>
  <time>2026-08-27T18:27:07Z</time>
  <course>12.09</course>
  <speed>0.01</speed>
  <fix>3d</fix>
</trkpt>
<trkpt lat="40.072842" lon="-105.230575">
  <ele>1586.09</ele>
  <time>2026-08-27T18:27:07Z</time>
  <course>266.03</course>
  <speed>0.0</speed>
  <fix>3d</fix>
</trkpt>
<trkpt lat="40.072842" lon="-105.230575">
  <ele>1586.09</ele>
  <time>2026-08-27T18:27:07Z</time>
  <course>12.08</course>
  <speed>0.01</speed>
  <fix>3d</fix>
</trkpt>
<trkpt lat="40.072842" lon="-105.230575">
  <ele>1586.09</ele>
  <time>2026-08-27T18:27:07Z</time>
  <course>266.03</course>
  <speed>0.0</speed>
  <fix>3d</fix>
</trkpt>
<trkpt lat="40.072842" lon="-105.230575">
  <ele>1586.09</ele>
  <time>2026-08-27T18:27:07Z</time>
  <course>12.08</course>
  <speed>0.01414213562373095</speed>
  <fix>3d</fix>
</trkpt>
<trkpt lat="40.072842" lon="-105.230575">
  <ele>1586.09</ele>
  <time>2026-08-27T18:27:07Z</time>
  <course>266.03</course>
  <speed>0.0</speed>
  <fix>3d</fix>
</trkpt>
<trkpt lat="40.072842" lon="-105.230575">
  <ele>1586.09</ele>
  <time>2026-08-27T18:27:07Z</time>
  <course>12.07</course>
  <speed>0.01414213562373095</speed>
  <fix>3d</fix>
</trkpt>
<trkpt lat="40.072842" lon="-105.230575">
  <ele>1586.09</ele>
  <time>2026-08-27T18:27:07Z</time>
  <course>266.03</course>
  <speed>0.0</speed>
  <fix>3d</fix>
</trkpt>
<trkpt lat="40.072842" lon="-105.230575">
  <ele>1586.09</ele>
  <time>2026-08-27T18:27:07Z</time>
  <course>12.06</course>
  <speed>0.01414213562373095</speed>
  <fix>3d</fix>
</trkpt>
<trkpt lat="40.072842" lon="-105.230575">
  <ele>1586.09</ele>
  <time>2026-08-27T18:27:07Z</time>
  <course>266.03</course>
  <speed>0.0</speed>
  <fix>3d</fix>
</trkpt>
<trkpt lat="40.072842" lon="-105.230575">
  <ele>1586.09</ele>
  <time>2026-08-27T18:27:07Z</time>
  <course>12.05</course>
  <speed>0.01414213562373095</speed>
  <fix>3d</fix>
</trkpt>
<trkpt lat="40.072842" lon="-105.230575">
  <ele>1586.09</ele>
  <time>2026-08-27T18:27:07Z</time>
  <course>266.03</course>
  <speed>0.0</speed>
  <fix>3d</fix>
</trkpt>
<trkpt lat="40.072842" lon="-105.230575">
  <ele>1586.09</ele>
  <time>2026-08-27T18:27:07Z</time>
  <course>12.05</course>
  <speed>0.01414213562373095</speed>
  <fix>3d</fix>
</trkpt>
<trkpt lat="40.072842" lon="-105.230575">
  <ele>1586.09</ele>
  <time>2026-08-27T18:27:07Z</time>
  <course>266.03</course>
  <speed>0.0</speed>
  <fix>3d</fix>
</trkpt>
<trkpt lat="40.072842" lon="-105.230575">
  <ele>1586.09</ele>
  <time>2026-08-27T18:27:07Z</time>
  <course>12.04</course>
  <speed>0.01414213562373095</speed>
  <fix>3d</fix>
</trkpt>
<trkpt lat="40.072842" lon="-105.230575">
  <ele>1586.09</ele>
  <time>2026-08-27T18:27:07Z</time>
  <course>266.03</course>
  <speed>0.0</speed>
  <fix>3d</fix>
</trkpt>
<trkpt lat="40.072842" lon="-105.230575">
  <ele>1586.09</ele>
  <time>2026-08-27T18:27:07Z</time>
  <course>12.03</course>
  <speed>0.01414213562373095</speed>
  <fix>3d</fix>
</trkpt>
<trkpt lat="40.072842" lon="-105.230575">
  <ele>1586.09</ele>
  <time>2026-08-27T18:27:07Z</time>
  <course>266.03</course>
  <speed>0.0</speed>
  <fix>3d</fix>
</trkpt>
<trkpt lat="40.072842" lon="-105.230575">
  <ele>1586.09</ele>
  <time>2026-08-27T18:27:07Z</time>
  <course>12.03</course>
  <speed>0.01414213562373095</speed>
  <fix>3d</fix>
</trkpt>
<trkpt lat="40.072842" lon="-105.230575">
  <ele>1586.09</ele>
  <time>2026-08-27T18:27:07Z</time>
  <course>266.03</course>
  <speed>0.0</speed>
  <fix>3d</fix>
</trkpt>
<trkpt lat="40.072842" lon="-105.230575">
  <ele>1586.09</ele>
  <time>2026-08-27T18:27:07Z</time>
  <course>12.02</course>
  <speed>0.01414213562373095</speed>
  <fix>3d</fix>
</trkpt>
<trkpt lat="40.072842" lon="-105.230575">
  <ele>1586.09</ele>
  <time>2026-08-27T18:27:07Z</time>
  <course>266.03</course>
  <speed>0.0</speed>
  <fix>3d</fix>
</trkpt>
<trkpt lat="40.072842" lon="-105.230575">
  <ele>1586.09</ele>
  <time>2026-08-27T18:27:07Z</time>
  <course>12.01</course>
  <speed>0.01414213562373095</speed>
  <fix>3d</fix>
</trkpt>
<trkpt lat="40.072842" lon="-105.230575">
  <ele>1586.09</ele>
  <time>2026-08-27T18:27:07Z</time>
  <course>266.03</course>
  <speed>0.0</speed>
  <fix>3d</fix>
</trkpt>
<trkpt lat="40.072842" lon="-105.230575">
  <ele>1586.09</ele>
  <time>2026-08-27T18:27:07Z</time>
  <course>12.01</course>
  <speed>0.01414213562373095</speed>
  <fix>3d</fix>
</trkpt>
<trkpt lat="40.072842" lon="-105.230575">
  <ele>1586.09</ele>
  <time>2026-08-27T18:27:07Z</time>
  <course>266.03</course>
  <speed>0.0</speed>
  <fix>3d</fix>
</trkpt>
<trkpt lat="40.072842" lon="-105.230575">
  <ele>1586.09</ele>
  <time>2026-08-27T18:27:07Z</time>
  <course>12.0</course>
  <speed>0.01414213562373095</speed>
  <fix>3d</fix>
</trkpt>
<trkpt lat="40.072842" lon="-105.230575">
  <ele>1586.09</ele>
  <time>2026-08-27T18:27:07Z</time>
  <course>266.03</course>
  <speed>0.0</speed>
  <fix>3d</fix>
</trkpt>
<trkpt lat="40.072842" lon="-105.230575">
  <ele>1586.09</ele>
  <time>2026-08-27T18:27:07Z</time>
  <course>11.99</course>
  <speed>0.01414213562373095</speed>
  <fix>3d</fix>
</trkpt>
<trkpt lat="40.072842" lon="-105.230575">
  <ele>1586.09</ele>
  <time>2026-08-27T18:27:07Z</time>
  <course>266.03</course>
  <speed>0.0</speed>
  <fix>3d</fix>
</trkpt>
<trkpt lat="40.072842" lon="-105.230575">
  <ele>1586.09</ele>
  <time>2026-08-27T18:27:07Z</time>
  <course>11.98</course>
  <speed>0.01414213562373095</speed>
  <fix>3d</fix>
</trkpt>
<trkpt lat="40.072842" lon="-105.230575">
  <ele>1586.09</ele>
  <time>2026-08-27T18:27:07Z</time>
  <course>266.03</course>
  <speed>0.0</speed>
  <fix>3d</fix>
</trkpt>
<trkpt lat="40.072842" lon="-105.230575">
  <ele>1586.09</ele>
  <time>2026-08-27T18:27:07Z</time>
  <course>11.98</course>
  <speed>0.01414213562373095</speed>
  <fix>3d</fix>
</trkpt>
<trkpt lat="40.072842" lon="-105.230575">
  <ele>1586.09</ele>
  <time>2026-08-27T18:27:07Z</time>
  <course>266.03</course>
  <speed>0.0</speed>
  <fix>3d</fix>
</trkpt>
<trkpt lat="40.072842" lon="-105.230575">
  <ele>1586.09</ele>
  <time>2026-08-27T18:27:07Z</time>
  <course>11.97</course>
  <speed>0.022360679774997897</speed>
  <fix>3d</fix>
</trkpt>
<trkpt lat="40.072842" lon="-105.230575">
  <ele>1586.09</ele>
  <time>2026-08-27T18:27:07Z</time>
  <course>266.03</course>
  <speed>0.0</speed>
  <fix>3d</fix>
</trkpt>
<trkpt lat="40.072842" lon="-105.230575">
  <ele>1586.09</ele>
  <time>2026-08-27T18:27:07Z</time>
  <course>11.96</course>
  <speed>0.022360679774997897</speed>
  <fix>3d</fix>
</trkpt>
<trkpt lat="40.072842" lon="-105.230575">
  <ele>1586.09</ele>
  <time>2026-08-27T18:27:07Z</time>
  <course>266.03</course>
  <speed>0.0</speed>
  <fix>3d</fix>
</trkpt>
<trkpt lat="40.072842" lon="-105.230575">
  <ele>1586.09</ele>
  <time>2026-08-27T18:27:07Z</time>
  <course>11.95</course>
  <speed>0.022360679774997897</speed>
  <fix>3d</fix>
</trkpt>
<trkpt lat="40.072842" lon="-105.230575">
  <ele>1586.09</ele>
  <time>2026-08-27T18:27:07Z</time>
  <course>266.03</course>
  <speed>0.0</speed>
  <fix>3d</fix>
</trkpt>
<trkpt lat="40.072842" lon="-105.230575">
  <ele>1586.09</ele>
  <time>2026-08-27T18:27:07Z</time>
  <course>11.94</course>
  <speed>0.022360679774997897</speed>
  <fix>3d</fix>
</trkpt>
<trkpt lat="40.072842" lon="-105.230575">
  <ele>1586.09</ele>
  <time>2026-08-27T18:27:07Z</time>
  <course>266.03</course>
  <speed>0.0</speed>
  <fix>3d</fix>
</trkpt>
<trkpt lat="40.072842" lon="-105.230575">
  <ele>1586.09</ele>
  <time>2026-08-27T18:27:07Z</time>
  <course>11.93</course>
  <speed>0.022360679774997897</speed>
  <fix>3d</fix>
</trkpt>
<trkpt lat="40.072842" lon="-105.230575">
  <ele>1586.09</ele>
  <time>2026-08-27T18:27:07Z</time>
  <course>266.03</course>
  <speed>0.0</speed>
  <fix>3d</fix>
</trkpt>
<trkpt lat="40.072842" lon="-105.230575">
  <ele>1586.09</ele>
  <time>2026-08-27T18:27:07Z</time>
  <course>11.92</course>
  <speed>0.022360679774997897</speed>
  <fix>3d</fix>
</trkpt>
<trkpt lat="40.072842" lon="-105.230575">
  <ele>1586.09</ele>
  <time>2026-08-27T18:27:07Z</time>
  <course>266.03</course>
  <speed>0.0</speed>
  <fix>3d</fix>
</trkpt>
<trkpt lat="40.072842" lon="-105.230575">
  <ele>1586.09</ele>
  <time>2026-08-27T18:27:07Z</time>
  <course>11.92</course>
  <speed>0.022360679774997897</speed>
  <fix>3d</fix>
</trkpt>
<trkpt lat="40.072842" lon="-105.230575">
  <ele>1586.09</ele>
  <time>2026-08-27T18:27:07Z</time>
  <course>266.03</course>
  <speed>0.0</speed>
  <fix>3d</fix>
</trkpt>
<trkpt lat="40.072842" lon="-105.230575">
  <ele>1586.09</ele>
  <time>2026-08-27T18:27:07Z</time>
  <course>11.91</course>
  <speed>0.022360679774997897</speed>
  <fix>3d</fix>
</trkpt>
<trkpt lat="40.072842" lon="-105.230575">
  <ele>1586.09</ele>
  <time>2026-08-27T18:27:07Z</time>
  <course>266.03</course>
  <speed>0.0</speed>
  <fix>3d</fix>
</trkpt>
<trkpt lat="40.072842" lon="-105.230575">
  <ele>1586.09</ele>
  <time>2026-08-27T18:27:07Z</time>
  <course>11.9</course>
  <speed>0.022360679774997897</speed>
  <fix>3d</fix>
</trkpt>
<trkpt lat="40.072842" lon="-105.230575">
  <ele>1586.09</ele>
  <time>2026-08-27T18:27:07Z</time>
  <course>266.03</course>
  <speed>0.0</speed>
  <fix>3d</fix>
</trkpt>
<trkpt lat="40.072842" lon="-105.230575">
  <ele>1586.09</ele>
  <time>2026-08-27T18:27:07Z</time>
  <course>11.89</course>
  <speed>0.022360679774997897</speed>
  <fix>3d</fix>
</trkpt>
<trkpt lat="40.072842" lon="-105.230575">
  <ele>1586.09</ele>
  <time>2026-08-27T18:27:07Z</time>
  <course>266.03</course>
  <speed>0.0</speed>
  <fix>3d</fix>
</trkpt>
<trkpt lat="40.072842" lon="-105.230575">
  <ele>1586.09</ele>
  <time>2026-08-27T18:27:07Z</time>
  <course>11.88</course>
  <speed>0.022360679774997897</speed>
  <fix>3d</fix>
</trkpt>
<trkpt lat="40.072842" lon="-105.230575">
  <ele>1586.09</ele>
  <time>2026-08-27T18:27:07Z</time>
  <course>266.03</course>
  <speed>0.0</speed>
  <fix>3d</fix>
</trkpt>
<trkpt lat="40.072842" lon="-105.230575">
  <ele>1586.09</ele>
  <time>2026-08-27T18:27:07Z</time>
  <course>11.87</course>
  <speed>0.022360679774997897</speed>
  <fix>3d</fix>
</trkpt>
<trkpt lat="40.072842" lon="-105.230575">
  <ele>1586.09</ele>
  <time>2026-08-27T18:27:07Z</time>
  <course>266.03</course>
  <speed>0.0</speed>
  <fix>3d</fix>
</trkpt>
<trkpt lat="40.072842" lon="-105.230575">
  <ele>1586.09</ele>
  <time>2026-08-27T18:27:07Z</time>
  <course>11.87</course>
  <speed>0.022360679774997897</speed>
  <fix>3d</fix>
</trkpt>
<trkpt lat="40.072842" lon="-105.230575">
  <ele>1586.09</ele>
  <time>2026-08-27T18:27:07Z</time>
  <course>266.03</course>
  <speed>0.0</speed>
  <fix>3d</fix>
</trkpt>
<trkpt lat="40.072842" lon="-105.230575">
  <ele>1586.09</ele>
  <time>2026-08-27T18:27:07Z</time>
  <course>11.86</course>
  <speed>0.022360679774997897</speed>
  <fix>3d</fix>
</trkpt>
<trkpt lat="40.072842" lon="-105.230575">
  <ele>1586.09</ele>
  <time>2026-08-27T18:27:07Z</time>
  <course>266.03</course>
  <speed>0.0</speed>
  <fix>3d</fix>
</trkpt>
<trkpt lat="40.072842" lon="-105.230575">
  <ele>1586.09</ele>
  <time>2026-08-27T18:27:07Z</time>
  <course>11.85</course>
  <speed>0.022360679774997897</speed>
  <fix>3d</fix>
</trkpt>
<trkpt lat="40.072842" lon="-105.230575">
  <ele>1586.09</ele>
  <time>2026-08-27T18:27:07Z</time>
  <course>266.03</course>
  <speed>0.0</speed>
  <fix>3d</fix>
</trkpt>
<trkpt lat="40.072842" lon="-105.230575">
  <ele>1586.09</ele>
  <time>2026-08-27T18:27:07Z</time>
  <course>11.84</course>
  <speed>0.0282842712474619</speed>
  <fix>3d</fix>
</trkpt>
<trkpt lat="40.072842" lon="-105.230575">
  <ele>1586.09</ele>
  <time>2026-08-27T18:27:07Z</time>
  <course>266.03</course>
  <speed>0.0</speed>
  <fix>3d</fix>
</trkpt>
<trkpt lat="40.072842" lon="-105.230575">
  <ele>1586.09</ele>
  <time>2026-08-27T18:27:07Z</time>
  <course>11.83</course>
  <speed>0.0282842712474619</speed>
  <fix>3d</fix>
</trkpt>
<trkpt lat="40.072842" lon="-105.230575">
  <ele>1586.09</ele>
  <time>2026-08-27T18:27:07Z</time>
  <course>266.03</course>
  <speed>0.0</speed>
  <fix>3d</fix>
</trkpt>
<trkpt lat="40.072842" lon="-105.230575">
  <ele>1586.09</ele>
  <time>2026-08-27T18:27:07Z</time>
  <course>11.83</course>
  <speed>0.0282842712474619</speed>
  <fix>3d</fix>
</trkpt>
<trkpt lat="40.072842" lon="-105.230575">
  <ele>1586.09</ele>
  <time>2026-08-27T18:27:07Z</time>
  <course>266.03</course>
  <speed>0.0</speed>
  <fix>3d</fix>
</trkpt>
<trkpt lat="40.072842" lon="-105.230575">
  <ele>1586.09</ele>
  <time>2026-08-27T18:27:07Z</time>
  <course>11.82</course>
  <speed>0.0282842712474619</speed>
  <fix>3d</fix>
</trkpt>
<trkpt lat="40.072842" lon="-105.230575">
  <ele>1586.09</ele>
  <time>2026-08-27T18:27:07Z</time>
  <course>266.03</course>
  <speed>0.0</speed>
  <fix>3d</fix>
</trkpt>
<trkpt lat="40.072842" lon="-105.230575">
  <ele>1586.09</ele>
  <time>2026-08-27T18:27:07Z</time>
  <course>11.81</course>
  <speed>0.0282842712474619</speed>
  <fix>3d</fix>
</trkpt>
<trkpt lat="40.072842" lon="-105.230575">
  <ele>1586.09</ele>
  <time>2026-08-27T18:27:07Z</time>
  <course>266.03</course>
  <speed>0.0</speed>
  <fix>3d</fix>
</trkpt>
<trkpt lat="40.072842" lon="-105.230575">
  <ele>1586.09</ele>
  <time>2026-08-27T18:27:07Z</time>
  <course>11.8</course>
  <speed>0.0282842712474619</speed>
  <fix>3d</fix>
</trkpt>
<trkpt lat="40.072842" lon="-105.230575">
  <ele>1586.09</ele>
  <time>2026-08-27T18:27:07Z</time>
  <course>266.03</course>
  <speed>0.0</speed>
  <fix>3d</fix>
</trkpt>
<trkpt lat="40.072842" lon="-105.230575">
  <ele>1586.09</ele>
  <time>2026-08-27T18:27:07Z</time>
  <course>11.79</course>
  <speed>0.0282842712474619</speed>
  <fix>3d</fix>
</trkpt>
<trkpt lat="40.072842" lon="-105.230575">
  <ele>1586.09</ele>
  <time>2026-08-27T18:27:07Z</time>
  <course>266.03</course>
  <speed>0.0</speed>
  <fix>3d</fix>
</trkpt>
<trkpt lat="40.072842" lon="-105.230575">
  <ele>1586.09</ele>
  <time>2026-08-27T18:27:07Z</time>
  <course>11.79</course>
  <speed>0.0282842712474619</speed>
  <fix>3d</fix>
</trkpt>
<trkpt lat="40.072842" lon="-105.230575">
  <ele>1586.09</ele>
  <time>2026-08-27T18:27:07Z</time>
  <course>266.03</course>
  <speed>0.0</speed>
  <fix>3d</fix>
</trkpt>
<trkpt lat="40.072842" lon="-105.230575">
  <ele>1586.09</ele>
  <time>2026-08-27T18:27:07Z</time>
  <course>11.78</course>
  <speed>0.0282842712474619</speed>
  <fix>3d</fix>
</trkpt>
<trkpt lat="40.072842" lon="-105.230575">
  <ele>1586.09</ele>
  <time>2026-08-27T18:27:07Z</time>
  <course>266.03</course>
  <speed>0.0</speed>
  <fix>3d</fix>
</trkpt>
<trkpt lat="40.072842" lon="-105.230575">
  <ele>1586.09</ele>
  <time>2026-08-27T18:27:07Z</time>
  <course>11.77</course>
  <speed>0.0282842712474619</speed>
  <fix>3d</fix>
</trkpt>
<trkpt lat="40.072842" lon="-105.230575">
  <ele>1586.09</ele>
  <time>2026-08-27T18:27:07Z</time>
  <course>266.03</course>
  <speed>0.0</speed>
  <fix>3d</fix>
</trkpt>
<trkpt lat="40.072842" lon="-105.230575">
  <ele>1586.09</ele>
  <time>2026-08-27T18:27:07Z</time>
  <course>11.77</course>
  <speed>0.0282842712474619</speed>
  <fix>3d</fix>
</trkpt>
<trkpt lat="40.072842" lon="-105.230575">
  <ele>1586.09</ele>
  <time>2026-08-27T18:27:07Z</time>
  <course>266.03</course>
  <speed>0.0</speed>
  <fix>3d</fix>
</trkpt>
<trkpt lat="40.072842" lon="-105.230575">
  <ele>1586.09</ele>
  <time>2026-08-27T18:27:07Z</time>
  <course>11.76</course>
  <speed>0.0282842712474619</speed>
  <fix>3d</fix>
</trkpt>
<trkpt lat="40.072842" lon="-105.230575">
  <ele>1586.09</ele>
  <time>2026-08-27T18:27:07Z</time>
  <course>266.03</course>
  <speed>0.0</speed>
  <fix>3d</fix>
</trkpt>
<trkpt lat="40.072842" lon="-105.230575">
  <ele>1586.09</ele>
  <time>2026-08-27T18:27:07Z</time>
  <course>11.75</course>
  <speed>0.0282842712474619</speed>
  <fix>3d</fix>
</trkpt>
<trkpt lat="40.072842" lon="-105.230575">
  <ele>1586.09</ele>
  <time>2026-08-27T18:27:07Z</time>
  <course>266.03</course>
  <speed>0.0</speed>
  <fix>3d</fix>
</trkpt>
<trkpt lat="40.072842" lon="-105.230575">
  <ele>1586.09</ele>
  <time>2026-08-27T18:27:07Z</time>
  <course>11.74</course>
  <speed>0.03605551275463989</speed>
  <fix>3d</fix>
</trkpt>
<trkpt lat="40.072842" lon="-105.230575">
  <ele>1586.09</ele>
  <time>2026-08-27T18:27:07Z</time>
  <course>266.03</course>
  <speed>0.0</speed>
  <fix>3d</fix>
</trkpt>
<trkpt lat="40.072842" lon="-105.230575">
  <ele>1586.09</ele>
  <time>2026-08-27T18:27:07Z</time>
  <course>11.73</course>
  <speed>0.03605551275463989</speed>
  <fix>3d</fix>
</trkpt>
<trkpt lat="40.072842" lon="-105.230575">
  <ele>1586.09</ele>
  <time>2026-08-27T18:27:07Z</time>
  <course>266.03</course>
  <speed>0.0</speed>
  <fix>3d</fix>
</trkpt>
<trkpt lat="40.072842" lon="-105.230575">
  <ele>1586.09</ele>
  <time>2026-08-27T18:27:07Z</time>
  <course>11.73</course>
  <speed>0.03605551275463989</speed>
  <fix>3d</fix>
</trkpt>
<trkpt lat="40.072842" lon="-105.230575">
  <ele>1586.09</ele>
  <time>2026-08-27T18:27:07Z</time>
  <course>266.03</course>
  <speed>0.0</speed>
  <fix>3d</fix>
</trkpt>
<trkpt lat="40.072842" lon="-105.230575">
  <ele>1586.09</ele>
  <time>2026-08-27T18:27:07Z</time>
  <course>11.72</course>
  <speed>0.03605551275463989</speed>
  <fix>3d</fix>
</trkpt>
<trkpt lat="40.072842" lon="-105.230575">
  <ele>1586.09</ele>
  <time>2026-08-27T18:27:07Z</time>
  <course>266.03</course>
  <speed>0.0</speed>
  <fix>3d</fix>
</trkpt>
<trkpt lat="40.072842" lon="-105.230575">
  <ele>1586.09</ele>
  <time>2026-08-27T18:27:07Z</time>
  <course>11.71</course>
  <speed>0.03605551275463989</speed>
  <fix>3d</fix>
</trkpt>
<trkpt lat="40.072842" lon="-105.230575">
  <ele>1586.09</ele>
  <time>2026-08-27T18:27:07Z</time>
  <course>266.03</course>
  <speed>0.0</speed>
  <fix>3d</fix>
</trkpt>
<trkpt lat="40.072842" lon="-105.230575">
  <ele>1586.09</ele>
  <time>2026-08-27T18:27:07Z</time>
  <course>11.7</course>
  <speed>0.03605551275463989</speed>
  <fix>3d</fix>
</trkpt>
<trkpt lat="40.072842" lon="-105.230575">
  <ele>1586.09</ele>
  <time>2026-08-27T18:27:07Z</time>
  <course>266.03</course>
  <speed>0.0</speed>
  <fix>3d</fix>
</trkpt>
<trkpt lat="40.072842" lon="-105.230575">
  <ele>1586.09</ele>
  <time>2026-08-27T18:27:07Z</time>
  <course>11.7</course>
  <speed>0.03605551275463989</speed>
  <fix>3d</fix>
</trkpt>
<trkpt lat="40.072842" lon="-105.230575">
  <ele>1586.09</ele>
  <time>2026-08-27T18:27:07Z</time>
  <course>266.03</course>
  <speed>0.0</speed>
  <fix>3d</fix>
</trkpt>
<trkpt lat="40.072842" lon="-105.230575">
  <ele>1586.09</ele>
  <time>2026-08-27T18:27:07Z</time>
  <course>11.69</course>
  <speed>0.03605551275463989</speed>
  <fix>3d</fix>
</trkpt>
<trkpt lat="40.072842" lon="-105.230575">
  <ele>1586.09</ele>
  <time>2026-08-27T18:27:07Z</time>
  <course>266.03</course>
  <speed>0.0</speed>
  <fix>3d</fix>
</trkpt>
<trkpt lat="40.072842" lon="-105.230575">
  <ele>1586.09</ele>
  <time>2026-08-27T18:27:07Z</time>
  <course>11.68</course>
  <speed>0.03605551275463989</speed>
  <fix>3d</fix>
</trkpt>
<trkpt lat="40.072842" lon="-105.230575">
  <ele>1586.09</ele>
  <time>2026-08-27T18:27:07Z</time>
  <course>266.03</course>
  <speed>0.0</speed>
  <fix>3d</fix>
</trkpt>
<trkpt lat="40.072842" lon="-105.230575">
  <ele>1586.09</ele>
  <time>2026-08-27T18:27:07Z</time>
  <course>11.68</course>
  <speed>0.03605551275463989</speed>
  <fix>3d</fix>
</trkpt>
<trkpt lat="40.072842" lon="-105.230575">
  <ele>1586.09</ele>
  <time>2026-08-27T18:27:07Z</time>
  <course>266.03</course>
  <speed>0.0</speed>
  <fix>3d</fix>
</trkpt>
<trkpt lat="40.072842" lon="-105.230575">
  <ele>1586.09</ele>
  <time>2026-08-27T18:27:07Z</time>
  <course>11.67</course>
  <speed>0.03605551275463989</speed>
  <fix>3d</fix>
</trkpt>
<trkpt lat="40.072842" lon="-105.230575">
  <ele>1586.09</ele>
  <time>2026-08-27T18:27:07Z</time>
  <course>266.03</course>
  <speed>0.0</speed>
  <fix>3d</fix>
</trkpt>
<trkpt lat="40.072842" lon="-105.230575">
  <ele>1586.09</ele>
  <time>2026-08-27T18:27:07Z</time>
  <course>11.66</course>
  <speed>0.03605551275463989</speed>
  <fix>3d</fix>
</trkpt>
<trkpt lat="40.072842" lon="-105.230575">
  <ele>1586.09</ele>
  <time>2026-08-27T18:27:07Z</time>
  <course>266.03</course>
  <speed>0.0</speed>
  <fix>3d</fix>
</trkpt>
<trkpt lat="40.072842" lon="-105.230575">
  <ele>1586.09</ele>
  <time>2026-08-27T18:27:07Z</time>
  <course>11.65</course>
  <speed>0.03605551275463989</speed>
  <fix>3d</fix>
</trkpt>
<trkpt lat="40.072842" lon="-105.230575">
  <ele>1586.09</ele>
  <time>2026-08-27T18:27:07Z</time>
  <course>266.03</course>
  <speed>0.0</speed>
  <fix>3d</fix>
</trkpt>
<trkpt lat="40.072842" lon="-105.230575">
  <ele>1586.09</ele>
  <time>2026-08-27T18:27:07Z</time>
  <course>11.65</course>
  <speed>0.03605551275463989</speed>
  <fix>3d</fix>
</trkpt>
<trkpt lat="40.072842" lon="-105.230575">
  <ele>1586.09</ele>
  <time>2026-08-27T18:27:07Z</time>
  <course>266.03</course>
  <speed>0.0</speed>
  <fix>3d</fix>
</trkpt>
<trkpt lat="40.072842" lon="-105.230575">
  <ele>1586.09</ele>
  <time>2026-08-27T18:27:07Z</time>
  <course>11.64</course>
  <speed>0.03605551275463989</speed>
  <fix>3d</fix>
</trkpt>
<trkpt lat="40.072842" lon="-105.230575">
  <ele>1586.09</ele>
  <time>2026-08-27T18:27:07Z</time>
  <course>266.03</course>
  <speed>0.0</speed>
  <fix>3d</fix>
</trkpt>
<trkpt lat="40.072842" lon="-105.230575">
  <ele>1586.09</ele>
  <time>2026-08-27T18:27:07Z</time>
  <course>11.63</course>
  <speed>0.03605551275463989</speed>
  <fix>3d</fix>
</trkpt>
<trkpt lat="40.072842" lon="-105.230575">
  <ele>1586.09</ele>
  <time>2026-08-27T18:27:07Z</time>
  <course>266.03</course>
  <speed>0.0</speed>
  <fix>3d</fix>
</trkpt>
<trkpt lat="40.072842" lon="-105.230575">
  <ele>1586.09</ele>
  <time>2026-08-27T18:27:07Z</time>
  <course>11.63</course>
  <speed>0.03605551275463989</speed>
  <fix>3d</fix>
</trkpt>
<trkpt lat="40.072842" lon="-105.230575">
  <ele>1586.09</ele>
  <time>2026-08-27T18:27:07Z</time>
  <course>266.03</course>
  <speed>0.0</speed>
  <fix>3d</fix>
</trkpt>
<trkpt lat="40.072842" lon="-105.230575">
  <ele>1586.09</ele>
  <time>2026-08-27T18:27:07Z</time>
  <course>11.62</course>
  <speed>0.03605551275463989</speed>
  <fix>3d</fix>
</trkpt>
<trkpt lat="40.072842" lon="-105.230575">
  <ele>1586.09</ele>
  <time>2026-08-27T18:27:07Z</time>
  <course>266.03</course>
  <speed>0.0</speed>
  <fix>3d</fix>
</trkpt>
<trkpt lat="40.072842" lon="-105.230575">
  <ele>1586.09</ele>
  <time>2026-08-27T18:27:07Z</time>
  <course>11.61</course>
  <speed>0.03605551275463989</speed>
  <fix>3d</fix>
</trkpt>
<trkpt lat="40.072842" lon="-105.230575">
  <ele>1586.09</ele>
  <time>2026-08-27T18:27:07Z</time>
  <course>266.03</course>
  <speed>0.0</speed>
  <fix>3d</fix>
</trkpt>
<trkpt lat="40.072842" lon="-105.230575">
  <ele>1586.09</ele>
  <time>2026-08-27T18:27:07Z</time>
  <course>11.61</course>
  <speed>0.03605551275463989</speed>
  <fix>3d</fix>
</trkpt>
<trkpt lat="40.072842" lon="-105.230575">
  <ele>1586.09</ele>
  <time>2026-08-27T18:27:07Z</time>
  <course>266.03</course>
  <speed>0.0</speed>
  <fix>3d</fix>
</trkpt>
<trkpt lat="40.072842" lon="-105.230575">
  <ele>1586.09</ele>
  <time>2026-08-27T18:27:07Z</time>
  <course>11.6</course>
  <speed>0.03605551275463989</speed>
  <fix>3d</fix>
</trkpt>
<trkpt lat="40.072842" lon="-105.230575">
  <ele>1586.09</ele>
  <time>2026-08-27T18:27:07Z</time>
  <course>266.03</course>
  <speed>0.0</speed>
  <fix>3d</fix>
</trkpt>
<trkpt lat="40.072842" lon="-105.230575">
  <ele>1586.09</ele>
  <time>2026-08-27T18:27:07Z</time>
  <course>11.6</course>
  <speed>0.03605551275463989</speed>
  <fix>3d</fix>
</trkpt>
<trkpt lat="40.072842" lon="-105.230575">
  <ele>1586.09</ele>
  <time>2026-08-27T18:27:07Z</time>
  <course>266.03</course>
  <speed>0.0</speed>
  <fix>3d</fix>
</trkpt>
<trkpt lat="40.072842" lon="-105.230575">
  <ele>1586.09</ele>
  <time>2026-08-27T18:27:07Z</time>
  <course>11.59</course>
  <speed>0.03605551275463989</speed>
  <fix>3d</fix>
</trkpt>
<trkpt lat="40.072842" lon="-105.230575">
  <ele>1586.09</ele>
  <time>2026-08-27T18:27:07Z</time>
  <course>266.03</course>
  <speed>0.0</speed>
  <fix>3d</fix>
</trkpt>
<trkpt lat="40.072842" lon="-105.230575">
  <ele>1586.09</ele>
  <time>2026-08-27T18:27:07Z</time>
  <course>11.58</course>
  <speed>0.03605551275463989</speed>
  <fix>3d</fix>
</trkpt>
<trkpt lat="40.072842" lon="-105.230575">
  <ele>1586.09</ele>
  <time>2026-08-27T18:27:07Z</time>
  <course>266.03</course>
  <speed>0.0</speed>
  <fix>3d</fix>
</trkpt>
<trkpt lat="40.072842" lon="-105.230575">
  <ele>1586.09</ele>
  <time>2026-08-27T18:27:07Z</time>
  <course>11.58</course>
  <speed>0.03605551275463989</speed>
  <fix>3d</fix>
</trkpt>
<trkpt lat="40.072842" lon="-105.230575">
  <ele>1586.09</ele>
  <time>2026-08-27T18:27:07Z</time>
  <course>266.03</course>
  <speed>0.0</speed>
  <fix>3d</fix>
</trkpt>
<trkpt lat="40.072842" lon="-105.230575">
  <ele>1586.09</ele>
  <time>2026-08-27T18:27:07Z</time>
  <course>11.57</course>
  <speed>0.03605551275463989</speed>
  <fix>3d</fix>
</trkpt>
<trkpt lat="40.072842" lon="-105.230575">
  <ele>1586.09</ele>
  <time>2026-08-27T18:27:07Z</time>
  <course>266.03</course>
  <speed>0.0</speed>
  <fix>3d</fix>
</trkpt>
<trkpt lat="40.072842" lon="-105.230575">
  <ele>1586.09</ele>
  <time>2026-08-27T18:27:07Z</time>
  <course>11.56</course>
  <speed>0.03605551275463989</speed>
  <fix>3d</fix>
</trkpt>
<trkpt lat="40.072842" lon="-105.230575">
  <ele>1586.09</ele>
  <time>2026-08-27T18:27:07Z</time>
  <course>266.03</course>
  <speed>0.0</speed>
  <fix>3d</fix>
</trkpt>
<trkpt lat="40.072842" lon="-105.230575">
  <ele>1586.09</ele>
  <time>2026-08-27T18:27:07Z</time>
  <course>11.56</course>
  <speed>0.03605551275463989</speed>
  <fix>3d</fix>
</trkpt>
<trkpt lat="40.072842" lon="-105.230575">
  <ele>1586.09</ele>
  <time>2026-08-27T18:27:07Z</time>
  <course>266.03</course>
  <speed>0.0</speed>
  <fix>3d</fix>
</trkpt>
<trkpt lat="40.072842" lon="-105.230575">
  <ele>1586.09</ele>
  <time>2026-08-27T18:27:07Z</time>
  <course>11.55</course>
  <speed>0.03605551275463989</speed>
  <fix>3d</fix>
</trkpt>
<trkpt lat="40.072842" lon="-105.230575">
  <ele>1586.09</ele>
  <time>2026-08-27T18:27:07Z</time>
  <course>266.03</course>
  <speed>0.0</speed>
  <fix>3d</fix>
</trkpt>
<trkpt lat="40.072842" lon="-105.230575">
  <ele>1586.09</ele>
  <time>2026-08-27T18:27:07Z</time>
  <course>11.55</course>
  <speed>0.03605551275463989</speed>
  <fix>3d</fix>
</trkpt>
<trkpt lat="40.072842" lon="-105.230575">
  <ele>1586.09</ele>
  <time>2026-08-27T18:27:07Z</time>
  <course>266.03</course>
  <speed>0.0</speed>
  <fix>3d</fix>
</trkpt>
<trkpt lat="40.072842" lon="-105.230575">
  <ele>1586.09</ele>
  <time>2026-08-27T18:27:07Z</time>
  <course>11.54</course>
  <speed>0.03605551275463989</speed>
  <fix>3d</fix>
</trkpt>
<trkpt lat="40.072842" lon="-105.230575">
  <ele>1586.09</ele>
  <time>2026-08-27T18:27:07Z</time>
  <course>266.03</course>
  <speed>0.0</speed>
  <fix>3d</fix>
</trkpt>
<trkpt lat="40.072842" lon="-105.230575">
  <ele>1586.09</ele>
  <time>2026-08-27T18:27:07Z</time>
  <course>11.53</course>
  <speed>0.03605551275463989</speed>
  <fix>3d</fix>
</trkpt>
<trkpt lat="40.072842" lon="-105.230575">
  <ele>1586.09</ele>
  <time>2026-08-27T18:27:07Z</time>
  <course>266.03</course>
  <speed>0.0</speed>
  <fix>3d</fix>
</trkpt>
<trkpt lat="40.072842" lon="-105.230575">
  <ele>1586.09</ele>
  <time>2026-08-27T18:27:07Z</time>
  <course>11.53</course>
  <speed>0.03605551275463989</speed>
  <fix>3d</fix>
</trkpt>
<trkpt lat="40.072842" lon="-105.230575">
  <ele>1586.09</ele>
  <time>2026-08-27T18:27:07Z</time>
  <course>266.03</course>
  <speed>0.0</speed>
  <fix>3d</fix>
</trkpt>
<trkpt lat="40.072842" lon="-105.230575">
  <ele>1586.09</ele>
  <time>2026-08-27T18:27:07Z</time>
  <course>11.52</course>
  <speed>0.03605551275463989</speed>
  <fix>3d</fix>
</trkpt>
<trkpt lat="40.072842" lon="-105.230575">
  <ele>1586.09</ele>
  <time>2026-08-27T18:27:07Z</time>
  <course>266.03</course>
  <speed>0.0</speed>
  <fix>3d</fix>
</trkpt>
<trkpt lat="40.072842" lon="-105.230575">
  <ele>1586.09</ele>
  <time>2026-08-27T18:27:07Z</time>
  <course>11.52</course>
  <speed>0.03605551275463989</speed>
  <fix>3d</fix>
</trkpt>
<trkpt lat="40.072842" lon="-105.230575">
  <ele>1586.09</ele>
  <time>2026-08-27T18:27:07Z</time>
  <course>266.03</course>
  <speed>0.0</speed>
  <fix>3d</fix>
</trkpt>
<trkpt lat="40.072842" lon="-105.230575">
  <ele>1586.09</ele>
  <time>2026-08-27T18:27:07Z</time>
  <course>11.51</course>
  <speed>0.03605551275463989</speed>
  <fix>3d</fix>
</trkpt>
<trkpt lat="40.072842" lon="-105.230575">
  <ele>1586.09</ele>
  <time>2026-08-27T18:27:07Z</time>
  <course>266.03</course>
  <speed>0.0</speed>
  <fix>3d</fix>
</trkpt>
<trkpt lat="40.072842" lon="-105.230575">
  <ele>1586.09</ele>
  <time>2026-08-27T18:27:07Z</time>
  <course>11.51</course>
  <speed>0.044721359549995794</speed>
  <fix>3d</fix>
</trkpt>
<trkpt lat="40.072842" lon="-105.230575">
  <ele>1586.09</ele>
  <time>2026-08-27T18:27:07Z</time>
  <course>266.03</course>
  <speed>0.0</speed>
  <fix>3d</fix>
</trkpt>
<trkpt lat="40.072842" lon="-105.230575">
  <ele>1586.09</ele>
  <time>2026-08-27T18:27:07Z</time>
  <course>11.5</course>
  <speed>0.044721359549995794</speed>
  <fix>3d</fix>
</trkpt>
<trkpt lat="40.072842" lon="-105.230575">
  <ele>1586.09</ele>
  <time>2026-08-27T18:27:07Z</time>
  <course>266.03</course>
  <speed>0.0</speed>
  <fix>3d</fix>
</trkpt>
<trkpt lat="40.072842" lon="-105.230575">
  <ele>1586.09</ele>
  <time>2026-08-27T18:27:07Z</time>
  <course>11.49</course>
  <speed>0.044721359549995794</speed>
  <fix>3d</fix>
</trkpt>
<trkpt lat="40.072842" lon="-105.230575">
  <ele>1586.09</ele>
  <time>2026-08-27T18:27:07Z</time>
  <course>266.03</course>
  <speed>0.0</speed>
  <fix>3d</fix>
</trkpt>
<trkpt lat="40.072842" lon="-105.230575">
  <ele>1586.09</ele>
  <time>2026-08-27T18:27:07Z</time>
  <course>11.49</course>
  <speed>0.044721359549995794</speed>
  <fix>3d</fix>
</trkpt>
<trkpt lat="40.072842" lon="-105.230575">
  <ele>1586.09</ele>
  <time>2026-08-27T18:27:07Z</time>
  <course>266.03</course>
  <speed>0.0</speed>
  <fix>3d</fix>
</trkpt>
<trkpt lat="40.072842" lon="-105.230575">
  <ele>1586.09</ele>
  <time>2026-08-27T18:27:07Z</time>
  <course>11.48</course>
  <speed>0.044721359549995794</speed>
  <fix>3d</fix>
</trkpt>
<trkpt lat="40.072842" lon="-105.230575">
  <ele>1586.09</ele>
  <time>2026-08-27T18:27:07Z</time>
  <course>266.03</course>
  <speed>0.0</speed>
  <fix>3d</fix>
</trkpt>
<trkpt lat="40.072842" lon="-105.230575">
  <ele>1586.09</ele>
  <time>2026-08-27T18:27:07Z</time>
  <course>11.48</course>
  <speed>0.044721359549995794</speed>
  <fix>3d</fix>
</trkpt>
<trkpt lat="40.072842" lon="-105.230575">
  <ele>1586.09</ele>
  <time>2026-08-27T18:27:07Z</time>
  <course>266.03</course>
  <speed>0.0</speed>
  <fix>3d</fix>
</trkpt>
<trkpt lat="40.072842" lon="-105.230575">
  <ele>1586.09</ele>
  <time>2026-08-27T18:27:07Z</time>
  <course>11.47</course>
  <speed>0.044721359549995794</speed>
  <fix>3d</fix>
</trkpt>
<trkpt lat="40.072842" lon="-105.230575">
  <ele>1586.09</ele>
  <time>2026-08-27T18:27:07Z</time>
  <course>266.03</course>
  <speed>0.0</speed>
  <fix>3d</fix>
</trkpt>
<trkpt lat="40.072842" lon="-105.230575">
  <ele>1586.09</ele>
  <time>2026-08-27T18:27:07Z</time>
  <course>11.47</course>
  <speed>0.044721359549995794</speed>
  <fix>3d</fix>
</trkpt>
<trkpt lat="40.072842" lon="-105.230575">
  <ele>1586.09</ele>
  <time>2026-08-27T18:27:07Z</time>
  <course>266.03</course>
  <speed>0.0</speed>
  <fix>3d</fix>
</trkpt>
<trkpt lat="40.072842" lon="-105.230575">
  <ele>1586.09</ele>
  <time>2026-08-27T18:27:07Z</time>
  <course>11.46</course>
  <speed>0.044721359549995794</speed>
  <fix>3d</fix>
</trkpt>
<trkpt lat="40.072842" lon="-105.230575">
  <ele>1586.09</ele>
  <time>2026-08-27T18:27:07Z</time>
  <course>266.03</course>
  <speed>0.0</speed>
  <fix>3d</fix>
</trkpt>
<trkpt lat="40.072842" lon="-105.230575">
  <ele>1586.09</ele>
  <time>2026-08-27T18:27:07Z</time>
  <course>11.46</course>
  <speed>0.044721359549995794</speed>
  <fix>3d</fix>
</trkpt>
<trkpt lat="40.072842" lon="-105.230575">
  <ele>1586.09</ele>
  <time>2026-08-27T18:27:07Z</time>
  <course>266.03</course>
  <speed>0.0</speed>
  <fix>3d</fix>
</trkpt>
<trkpt lat="40.072842" lon="-105.230575">
  <ele>1586.16</ele>
  <time>2026-08-27T18:27:07Z</time>
  <course>11.45</course>
  <speed>0.0</speed>
  <fix>3d</fix>
</trkpt>
<trkpt lat="40.072842" lon="-105.230575">
  <ele>1586.09</ele>
  <time>2026-08-27T18:27:07Z</time>
  <course>297.19</course>
  <speed>0.0</speed>
  <fix>3d</fix>
</trkpt>
<trkpt lat="40.072842" lon="-105.230575">
  <ele>1586.16</ele>
  <time>2026-08-27T18:27:07Z</time>
  <course>11.45</course>
  <speed>0.0</speed>
  <fix>3d</fix>
</trkpt>
<trkpt lat="40.072842" lon="-105.230575">
  <ele>1586.09</ele>
  <time>2026-08-27T18:27:07Z</time>
  <course>269.87</course>
  <speed>0.0</speed>
  <fix>3d</fix>
</trkpt>
<trkpt lat="40.072842" lon="-105.230575">
  <ele>1586.16</ele>
  <time>2026-08-27T18:27:07Z</time>
  <course>11.44</course>
  <speed>0.0</speed>
  <fix>3d</fix>
</trkpt>
<trkpt lat="40.072842" lon="-105.230575">
  <ele>1586.09</ele>
  <time>2026-08-27T18:27:07Z</time>
  <course>241.23</course>
  <speed>0.0</speed>
  <fix>3d</fix>
</trkpt>
<trkpt lat="40.072842" lon="-105.230575">
  <ele>1586.16</ele>
  <time>2026-08-27T18:27:07Z</time>
  <course>11.44</course>
  <speed>0.0</speed>
  <fix>3d</fix>
</trkpt>
<trkpt lat="40.072842" lon="-105.230575">
  <ele>1586.09</ele>
  <time>2026-08-27T18:27:07Z</time>
  <course>93.08</course>
  <speed>0.0</speed>
  <fix>3d</fix>
</trkpt>
<trkpt lat="40.072842" lon="-105.230575">
  <ele>1586.17</ele>
  <time>2026-08-27T18:27:07Z</time>
  <course>11.44</course>
  <speed>0.0</speed>
  <fix>3d</fix>
</trkpt>
<trkpt lat="40.072842" lon="-105.230575">
  <ele>1586.09</ele>
  <time>2026-08-27T18:27:07Z</time>
  <course>317.31</course>
  <speed>0.0</speed>
  <fix>3d</fix>
</trkpt>
<trkpt lat="40.072842" lon="-105.230575">
  <ele>1586.17</ele>
  <time>2026-08-27T18:27:07Z</time>
  <course>11.43</course>
  <speed>0.01</speed>
  <fix>3d</fix>
</trkpt>
<trkpt lat="40.072842" lon="-105.230575">
  <ele>1586.09</ele>
  <time>2026-08-27T18:27:07Z</time>
  <course>265.24</course>
  <speed>0.0</speed>
  <fix>3d</fix>
</trkpt>
<trkpt lat="40.072842" lon="-105.230575">
  <ele>1586.17</ele>
  <time>2026-08-27T18:27:07Z</time>
  <course>11.43</course>
  <speed>0.01</speed>
  <fix>3d</fix>
</trkpt>
<trkpt lat="40.072842" lon="-105.230575">
  <ele>1586.09</ele>
  <time>2026-08-27T18:27:07Z</time>
  <course>261.76</course>
  <speed>0.0</speed>
  <fix>3d</fix>
</trkpt>
<trkpt lat="40.072842" lon="-105.230575">
  <ele>1586.17</ele>
  <time>2026-08-27T18:27:07Z</time>
  <course>11.42</course>
  <speed>0.01</speed>
  <fix>3d</fix>
</trkpt>
<trkpt lat="40.072842" lon="-105.230575">
  <ele>1586.09</ele>
  <time>2026-08-27T18:27:07Z</time>
  <course>266.78</course>
  <speed>0.0</speed>
  <fix>3d</fix>
</trkpt>
<trkpt lat="40.072842" lon="-105.230575">
  <ele>1586.17</ele>
  <time>2026-08-27T18:27:07Z</time>
  <course>11.42</course>
  <speed>0.01414213562373095</speed>
  <fix>3d</fix>
</trkpt>
<trkpt lat="40.072842" lon="-105.230575">
  <ele>1586.09</ele>
  <time>2026-08-27T18:27:07Z</time>
  <course>266.53</course>
  <speed>0.0</speed>
  <fix>3d</fix>
</trkpt>
<trkpt lat="40.072842" lon="-105.230575">
  <ele>1586.17</ele>
  <time>2026-08-27T18:27:07Z</time>
  <course>11.42</course>
  <speed>0.01414213562373095</speed>
  <fix>3d</fix>
</trkpt>
<trkpt lat="40.072842" lon="-105.230575">
  <ele>1586.09</ele>
  <time>2026-08-27T18:27:07Z</time>
  <course>265.88</course>
  <speed>0.0</speed>
  <fix>3d</fix>
</trkpt>
<trkpt lat="40.072842" lon="-105.230575">
  <ele>1586.17</ele>
  <time>2026-08-27T18:27:07Z</time>
  <course>11.4</course>
  <speed>0.01414213562373095</speed>
  <fix>3d</fix>
</trkpt>
<trkpt lat="40.072842" lon="-105.230575">
  <ele>1586.09</ele>
  <time>2026-08-27T18:27:07Z</time>
  <course>254.48</course>
  <speed>0.0</speed>
  <fix>3d</fix>
</trkpt>
<trkpt lat="40.072842" lon="-105.230575">
  <ele>1586.17</ele>
  <time>2026-08-27T18:27:07Z</time>
  <course>11.37</course>
  <speed>0.01414213562373095</speed>
  <fix>3d</fix>
</trkpt>
<trkpt lat="40.072842" lon="-105.230575">
  <ele>1586.09</ele>
  <time>2026-08-27T18:27:07Z</time>
  <course>258.62</course>
  <speed>0.0</speed>
  <fix>3d</fix>
</trkpt>
<trkpt lat="40.072842" lon="-105.230575">
  <ele>1586.17</ele>
  <time>2026-08-27T18:27:07Z</time>
  <course>11.33</course>
  <speed>0.01414213562373095</speed>
  <fix>3d</fix>
</trkpt>
<trkpt lat="40.072842" lon="-105.230575">
  <ele>1586.09</ele>
  <time>2026-08-27T18:27:07Z</time>
  <course>265.3</course>
  <speed>0.0</speed>
  <fix>3d</fix>
</trkpt>
<trkpt lat="40.072842" lon="-105.230575">
  <ele>1586.17</ele>
  <time>2026-08-27T18:27:07Z</time>
  <course>11.3</course>
  <speed>0.01414213562373095</speed>
  <fix>3d</fix>
</trkpt>
<trkpt lat="40.072842" lon="-105.230575">
  <ele>1586.09</ele>
  <time>2026-08-27T18:27:07Z</time>
  <course>262.33</course>
  <speed>0.0</speed>
  <fix>3d</fix>
</trkpt>
<trkpt lat="40.072842" lon="-105.230575">
  <ele>1586.17</ele>
  <time>2026-08-27T18:27:07Z</time>
  <course>11.26</course>
  <speed>0.01414213562373095</speed>
  <fix>3d</fix>
</trkpt>
<trkpt lat="40.072842" lon="-105.230575">
  <ele>1586.09</ele>
  <time>2026-08-27T18:27:07Z</time>
  <course>264.16</course>
  <speed>0.0</speed>
  <fix>3d</fix>
</trkpt>
<trkpt lat="40.072842" lon="-105.230575">
  <ele>1586.17</ele>
  <time>2026-08-27T18:27:07Z</time>
  <course>11.22</course>
  <speed>0.01</speed>
  <fix>3d</fix>
</trkpt>
<trkpt lat="40.072842" lon="-105.230575">
  <ele>1586.09</ele>
  <time>2026-08-27T18:27:07Z</time>
  <course>264.19</course>
  <speed>0.0</speed>
  <fix>3d</fix>
</trkpt>
<trkpt lat="40.072842" lon="-105.230575">
  <ele>1586.17</ele>
  <time>2026-08-27T18:27:07Z</time>
  <course>11.19</course>
  <speed>0.0</speed>
  <fix>3d</fix>
</trkpt>
<trkpt lat="40.072842" lon="-105.230575">
  <ele>1586.09</ele>
  <time>2026-08-27T18:27:07Z</time>
  <course>263.9</course>
  <speed>0.0</speed>
  <fix>3d</fix>
</trkpt>
<trkpt lat="40.072842" lon="-105.230575">
  <ele>1586.17</ele>
  <time>2026-08-27T18:27:07Z</time>
  <course>11.15</course>
  <speed>0.0</speed>
  <fix>3d</fix>
</trkpt>
<trkpt lat="40.072842" lon="-105.230575">
  <ele>1586.09</ele>
  <time>2026-08-27T18:27:07Z</time>
  <course>291.2</course>
  <speed>0.0</speed>
  <fix>3d</fix>
</trkpt>
<trkpt lat="40.072842" lon="-105.230575">
  <ele>1586.17</ele>
  <time>2026-08-27T18:27:07Z</time>
  <course>11.12</course>
  <speed>0.0</speed>
  <fix>3d</fix>
</trkpt>
<trkpt lat="40.072842" lon="-105.230575">
  <ele>1586.09</ele>
  <time>2026-08-27T18:27:07Z</time>
  <course>318.62</course>
  <speed>0.0</speed>
  <fix>3d</fix>
</trkpt>
<trkpt lat="40.072842" lon="-105.230575">
  <ele>1586.17</ele>
  <time>2026-08-27T18:27:07Z</time>
  <course>11.08</course>
  <speed>0.0</speed>
  <fix>3d</fix>
</trkpt>
<trkpt lat="40.072842" lon="-105.230575">
  <ele>1586.09</ele>
  <time>2026-08-27T18:27:07Z</time>
  <course>310.35</course>
  <speed>0.0</speed>
  <fix>3d</fix>
</trkpt>
<trkpt lat="40.072842" lon="-105.230575">
  <ele>1586.18</ele>
  <time>2026-08-27T18:27:07Z</time>
  <course>11.04</course>
  <speed>0.0</speed>
  <fix>3d</fix>
</trkpt>
<trkpt lat="40.072842" lon="-105.230575">
  <ele>1586.09</ele>
  <time>2026-08-27T18:27:07Z</time>
  <course>186.37</course>
  <speed>0.0</speed>
  <fix>3d</fix>
</trkpt>
<trkpt lat="40.072842" lon="-105.230575">
  <ele>1586.18</ele>
  <time>2026-08-27T18:27:07Z</time>
  <course>11.01</course>
  <speed>0.0</speed>
  <fix>3d</fix>
</trkpt>
<trkpt lat="40.072842" lon="-105.230575">
  <ele>1586.09</ele>
  <time>2026-08-27T18:27:07Z</time>
  <course>166.47</course>
  <speed>0.0</speed>
  <fix>3d</fix>
</trkpt>
<trkpt lat="40.072842" lon="-105.230575">
  <ele>1586.18</ele>
  <time>2026-08-27T18:27:08Z</time>
  <course>10.97</course>
  <speed>0.0</speed>
  <fix>3d</fix>
</trkpt>
<trkpt lat="40.072842" lon="-105.230575">
  <ele>1586.09</ele>
  <time>2026-08-27T18:27:08Z</time>
  <course>299.62</course>
  <speed>0.0</speed>
  <fix>3d</fix>
</trkpt>
<trkpt lat="40.072842" lon="-105.230575">
  <ele>1586.18</ele>
  <time>2026-08-27T18:27:08Z</time>
  <course>10.93</course>
  <speed>0.0</speed>
  <fix>3d</fix>
</trkpt>
<trkpt lat="40.072842" lon="-105.230575">
  <ele>1586.09</ele>
  <time>2026-08-27T18:27:08Z</time>
  <course>283.99</course>
  <speed>0.0</speed>
  <fix>3d</fix>
</trkpt>
<trkpt lat="40.072842" lon="-105.230575">
  <ele>1586.18</ele>
  <time>2026-08-27T18:27:08Z</time>
  <course>10.9</course>
  <speed>0.0</speed>
  <fix>3d</fix>
</trkpt>
<trkpt lat="40.072842" lon="-105.230575">
  <ele>1586.09</ele>
  <time>2026-08-27T18:27:08Z</time>
  <course>280.65</course>
  <speed>0.0</speed>
  <fix>3d</fix>
</trkpt>
<trkpt lat="40.072842" lon="-105.230575">
  <ele>1586.18</ele>
  <time>2026-08-27T18:27:08Z</time>
  <course>10.86</course>
  <speed>0.0</speed>
  <fix>3d</fix>
</trkpt>
<trkpt lat="40.072842" lon="-105.230575">
  <ele>1586.09</ele>
  <time>2026-08-27T18:27:08Z</time>
  <course>282.85</course>
  <speed>0.0</speed>
  <fix>3d</fix>
</trkpt>
<trkpt lat="40.072842" lon="-105.230575">
  <ele>1586.18</ele>
  <time>2026-08-27T18:27:08Z</time>
  <course>10.82</course>
  <speed>0.0</speed>
  <fix>3d</fix>
</trkpt>
<trkpt lat="40.072842" lon="-105.230575">
  <ele>1586.09</ele>
  <time>2026-08-27T18:27:08Z</time>
  <course>278.2</course>
  <speed>0.0</speed>
  <fix>3d</fix>
</trkpt>
<trkpt lat="40.072842" lon="-105.230575">
  <ele>1586.18</ele>
  <time>2026-08-27T18:27:08Z</time>
  <course>10.78</course>
  <speed>0.0</speed>
  <fix>3d</fix>
</trkpt>
<trkpt lat="40.072842" lon="-105.230575">
  <ele>1586.09</ele>
  <time>2026-08-27T18:27:08Z</time>
  <course>275.15</course>
  <speed>0.0</speed>
  <fix>3d</fix>
</trkpt>
<trkpt lat="40.072842" lon="-105.230575">
  <ele>1586.18</ele>
  <time>2026-08-27T18:27:08Z</time>
  <course>10.74</course>
  <speed>0.0</speed>
  <fix>3d</fix>
</trkpt>
<trkpt lat="40.072842" lon="-105.230575">
  <ele>1586.09</ele>
  <time>2026-08-27T18:27:08Z</time>
  <course>272.68</course>
  <speed>0.0</speed>
  <fix>3d</fix>
</trkpt>
<trkpt lat="40.072842" lon="-105.230575">
  <ele>1586.18</ele>
  <time>2026-08-27T18:27:08Z</time>
  <course>10.71</course>
  <speed>0.0</speed>
  <fix>3d</fix>
</trkpt>
<trkpt lat="40.072842" lon="-105.230575">
  <ele>1586.09</ele>
  <time>2026-08-27T18:27:08Z</time>
  <course>271.66</course>
  <speed>0.0</speed>
  <fix>3d</fix>
</trkpt>
<trkpt lat="40.072842" lon="-105.230575">
  <ele>1586.18</ele>
  <time>2026-08-27T18:27:08Z</time>
  <course>10.67</course>
  <speed>0.0</speed>
  <fix>3d</fix>
</trkpt>
<trkpt lat="40.072842" lon="-105.230575">
  <ele>1586.09</ele>
  <time>2026-08-27T18:27:08Z</time>
  <course>271.56</course>
  <speed>0.0</speed>
  <fix>3d</fix>
</trkpt>
<trkpt lat="40.072842" lon="-105.230575">
  <ele>1586.18</ele>
  <time>2026-08-27T18:27:08Z</time>
  <course>10.63</course>
  <speed>0.0</speed>
  <fix>3d</fix>
</trkpt>
<trkpt lat="40.072842" lon="-105.230575">
  <ele>1586.09</ele>
  <time>2026-08-27T18:27:08Z</time>
  <course>270.65</course>
  <speed>0.0</speed>
  <fix>3d</fix>
</trkpt>
<trkpt lat="40.072842" lon="-105.230575">
  <ele>1586.18</ele>
  <time>2026-08-27T18:27:08Z</time>
  <course>10.59</course>
  <speed>0.0</speed>
  <fix>3d</fix>
</trkpt>
<trkpt lat="40.072842" lon="-105.230575">
  <ele>1586.09</ele>
  <time>2026-08-27T18:27:08Z</time>
  <course>270.38</course>
  <speed>0.0</speed>
  <fix>3d</fix>
</trkpt>
<trkpt lat="40.072842" lon="-105.230575">
  <ele>1586.18</ele>
  <time>2026-08-27T18:27:08Z</time>
  <course>10.55</course>
  <speed>0.0</speed>
  <fix>3d</fix>
</trkpt>
<trkpt lat="40.072842" lon="-105.230575">
  <ele>1586.09</ele>
  <time>2026-08-27T18:27:08Z</time>
  <course>270.06</course>
  <speed>0.0</speed>
  <fix>3d</fix>
</trkpt>
<trkpt lat="40.072842" lon="-105.230575">
  <ele>1586.18</ele>
  <time>2026-08-27T18:27:08Z</time>
  <course>10.51</course>
  <speed>0.0</speed>
  <fix>3d</fix>
</trkpt>
<trkpt lat="40.072842" lon="-105.230575">
  <ele>1586.09</ele>
  <time>2026-08-27T18:27:08Z</time>
  <course>270.73</course>
  <speed>0.0</speed>
  <fix>3d</fix>
</trkpt>
<trkpt lat="40.072842" lon="-105.230575">
  <ele>1586.19</ele>
  <time>2026-08-27T18:27:08Z</time>
  <course>10.47</course>
  <speed>0.0</speed>
  <fix>3d</fix>
</trkpt>
<trkpt lat="40.072842" lon="-105.230575">
  <ele>1586.09</ele>
  <time>2026-08-27T18:27:08Z</time>
  <course>266.73</course>
  <speed>0.0</speed>
  <fix>3d</fix>
</trkpt>
<trkpt lat="40.072842" lon="-105.230575">
  <ele>1586.19</ele>
  <time>2026-08-27T18:27:08Z</time>
  <course>10.42</course>
  <speed>0.0</speed>
  <fix>3d</fix>
</trkpt>
<trkpt lat="40.072842" lon="-105.230575">
  <ele>1586.09</ele>
  <time>2026-08-27T18:27:08Z</time>
  <course>264.54</course>
  <speed>0.0</speed>
  <fix>3d</fix>
</trkpt>
<trkpt lat="40.072842" lon="-105.230575">
  <ele>1586.19</ele>
  <time>2026-08-27T18:27:08Z</time>
  <course>10.38</course>
  <speed>0.0</speed>
  <fix>3d</fix>
</trkpt>
<trkpt lat="40.072842" lon="-105.230575">
  <ele>1586.09</ele>
  <time>2026-08-27T18:27:08Z</time>
  <course>270.84</course>
  <speed>0.0</speed>
  <fix>3d</fix>
</trkpt>
<trkpt lat="40.072842" lon="-105.230575">
  <ele>1586.2</ele>
  <time>2026-08-27T18:27:08Z</time>
  <course>10.34</course>
  <speed>0.01</speed>
  <fix>3d</fix>
</trkpt>
<trkpt lat="40.072842" lon="-105.230575">
  <ele>1586.09</ele>
  <time>2026-08-27T18:27:08Z</time>
  <course>269.58</course>
  <speed>0.0</speed>
  <fix>3d</fix>
</trkpt>
<trkpt lat="40.072842" lon="-105.230575">
  <ele>1586.2</ele>
  <time>2026-08-27T18:27:08Z</time>
  <course>10.3</course>
  <speed>0.01</speed>
  <fix>3d</fix>
</trkpt>
<trkpt lat="40.072842" lon="-105.230575">
  <ele>1586.09</ele>
  <time>2026-08-27T18:27:08Z</time>
  <course>269.0</course>
  <speed>0.0</speed>
  <fix>3d</fix>
</trkpt>
<trkpt lat="40.072842" lon="-105.230575">
  <ele>1586.2</ele>
  <time>2026-08-27T18:27:08Z</time>
  <course>10.26</course>
  <speed>0.01</speed>
  <fix>3d</fix>
</trkpt>
<trkpt lat="40.072842" lon="-105.230575">
  <ele>1586.09</ele>
  <time>2026-08-27T18:27:08Z</time>
  <course>269.09</course>
  <speed>0.0</speed>
  <fix>3d</fix>
</trkpt>
<trkpt lat="40.072842" lon="-105.230575">
  <ele>1586.2</ele>
  <time>2026-08-27T18:27:08Z</time>
  <course>10.22</course>
  <speed>0.01</speed>
  <fix>3d</fix>
</trkpt>
<trkpt lat="40.072842" lon="-105.230575">
  <ele>1586.09</ele>
  <time>2026-08-27T18:27:08Z</time>
  <course>269.06</course>
  <speed>0.0</speed>
  <fix>3d</fix>
</trkpt>
<trkpt lat="40.072842" lon="-105.230575">
  <ele>1586.2</ele>
  <time>2026-08-27T18:27:08Z</time>
  <course>10.18</course>
  <speed>0.01</speed>
  <fix>3d</fix>
</trkpt>
<trkpt lat="40.072842" lon="-105.230575">
  <ele>1586.09</ele>
  <time>2026-08-27T18:27:08Z</time>
  <course>269.04</course>
  <speed>0.0</speed>
  <fix>3d</fix>
</trkpt>
<trkpt lat="40.072842" lon="-105.230575">
  <ele>1586.2</ele>
  <time>2026-08-27T18:27:08Z</time>
  <course>10.14</course>
  <speed>0.01</speed>
  <fix>3d</fix>
</trkpt>
<trkpt lat="40.072842" lon="-105.230575">
  <ele>1586.09</ele>
  <time>2026-08-27T18:27:08Z</time>
  <course>268.89</course>
  <speed>0.0</speed>
  <fix>3d</fix>
</trkpt>
<trkpt lat="40.072842" lon="-105.230575">
  <ele>1586.2</ele>
  <time>2026-08-27T18:27:08Z</time>
  <course>10.09</course>
  <speed>0.01414213562373095</speed>
  <fix>3d</fix>
</trkpt>
<trkpt lat="40.072842" lon="-105.230575">
  <ele>1586.09</ele>
  <time>2026-08-27T18:27:08Z</time>
  <course>268.84</course>
  <speed>0.0</speed>
  <fix>3d</fix>
</trkpt>
<trkpt lat="40.072842" lon="-105.230575">
  <ele>1586.21</ele>
  <time>2026-08-27T18:27:08Z</time>
  <course>10.05</course>
  <speed>0.01414213562373095</speed>
  <fix>3d</fix>
</trkpt>
<trkpt lat="40.072842" lon="-105.230575">
  <ele>1586.09</ele>
  <time>2026-08-27T18:27:08Z</time>
  <course>268.74</course>
  <speed>0.0</speed>
  <fix>3d</fix>
</trkpt>
<trkpt lat="40.072842" lon="-105.230575">
  <ele>1586.21</ele>
  <time>2026-08-27T18:27:08Z</time>
  <course>10.01</course>
  <speed>0.01414213562373095</speed>
  <fix>3d</fix>
</trkpt>
<trkpt lat="40.072842" lon="-105.230575">
  <ele>1586.09</ele>
  <time>2026-08-27T18:27:08Z</time>
  <course>268.69</course>
  <speed>0.0</speed>
  <fix>3d</fix>
</trkpt>
<trkpt lat="40.072842" lon="-105.230575">
  <ele>1586.21</ele>
  <time>2026-08-27T18:27:08Z</time>
  <course>9.97</course>
  <speed>0.01414213562373095</speed>
  <fix>3d</fix>
</trkpt>
<trkpt lat="40.072842" lon="-105.230575">
  <ele>1586.09</ele>
  <time>2026-08-27T18:27:08Z</time>
  <course>268.6</course>
  <speed>0.0</speed>
  <fix>3d</fix>
</trkpt>
<trkpt lat="40.072842" lon="-105.230575">
  <ele>1586.21</ele>
  <time>2026-08-27T18:27:08Z</time>
  <course>9.93</course>
  <speed>0.01414213562373095</speed>
  <fix>3d</fix>
</trkpt>
<trkpt lat="40.072842" lon="-105.230575">
  <ele>1586.09</ele>
  <time>2026-08-27T18:27:08Z</time>
  <course>268.52</course>
  <speed>0.0</speed>
  <fix>3d</fix>
</trkpt>
<trkpt lat="40.0728419" lon="-105.230575">
  <ele>1586.2</ele>
  <time>2026-08-27T18:27:08Z</time>
  <course>9.88</course>
  <speed>0.01414213562373095</speed>
  <fix>3d</fix>
</trkpt>
<trkpt lat="40.072842" lon="-105.230575">
  <ele>1586.09</ele>
  <time>2026-08-27T18:27:08Z</time>
  <course>288.45</course>
  <speed>0.0</speed>
  <fix>3d</fix>
</trkpt>
<trkpt lat="40.0728419" lon="-105.230575">
  <ele>1586.2</ele>
  <time>2026-08-27T18:27:08Z</time>
  <course>9.84</course>
  <speed>0.022360679774997897</speed>
  <fix>3d</fix>
</trkpt>
<trkpt lat="40.072842" lon="-105.230575">
  <ele>1586.09</ele>
  <time>2026-08-27T18:27:08Z</time>
  <course>284.3</course>
  <speed>0.0</speed>
  <fix>3d</fix>
</trkpt>
<trkpt lat="40.0728419" lon="-105.230575">
  <ele>1586.2</ele>
  <time>2026-08-27T18:27:08Z</time>
  <course>9.8</course>
  <speed>0.022360679774997897</speed>
  <fix>3d</fix>
</trkpt>
<trkpt lat="40.072842" lon="-105.230575">
  <ele>1586.09</ele>
  <time>2026-08-27T18:27:08Z</time>
  <course>265.03</course>
  <speed>0.0</speed>
  <fix>3d</fix>
</trkpt>
<trkpt lat="40.0728419" lon="-105.2305749">
  <ele>1586.2</ele>
  <time>2026-08-27T18:27:08Z</time>
  <course>9.75</course>
  <speed>0.022360679774997897</speed>
  <fix>3d</fix>
</trkpt>
<trkpt lat="40.072842" lon="-105.230575">
  <ele>1586.09</ele>
  <time>2026-08-27T18:27:08Z</time>
  <course>266.69</course>
  <speed>0.0</speed>
  <fix>3d</fix>
</trkpt>
<trkpt lat="40.0728419" lon="-105.2305749">
  <ele>1586.2</ele>
  <time>2026-08-27T18:27:08Z</time>
  <course>9.71</course>
  <speed>0.022360679774997897</speed>
  <fix>3d</fix>
</trkpt>
<trkpt lat="40.072842" lon="-105.230575">
  <ele>1586.09</ele>
  <time>2026-08-27T18:27:08Z</time>
  <course>269.26</course>
  <speed>0.0</speed>
  <fix>3d</fix>
</trkpt>
<trkpt lat="40.0728419" lon="-105.2305749">
  <ele>1586.2</ele>
  <time>2026-08-27T18:27:08Z</time>
  <course>9.67</course>
  <speed>0.022360679774997897</speed>
  <fix>3d</fix>
</trkpt>
<trkpt lat="40.072842" lon="-105.230575">
  <ele>1586.09</ele>
  <time>2026-08-27T18:27:08Z</time>
  <course>268.85</course>
  <speed>0.0</speed>
  <fix>3d</fix>
</trkpt>
<trkpt lat="40.0728419" lon="-105.2305749">
  <ele>1586.2</ele>
  <time>2026-08-27T18:27:08Z</time>
  <course>9.63</course>
  <speed>0.022360679774997897</speed>
  <fix>3d</fix>
</trkpt>
<trkpt lat="40.072842" lon="-105.230575">
  <ele>1586.09</ele>
  <time>2026-08-27T18:27:08Z</time>
  <course>268.42</course>
  <speed>0.0</speed>
  <fix>3d</fix>
</trkpt>
<trkpt lat="40.0728419" lon="-105.2305749">
  <ele>1586.2</ele>
  <time>2026-08-27T18:27:08Z</time>
  <course>9.58</course>
  <speed>0.022360679774997897</speed>
  <fix>3d</fix>
</trkpt>
<trkpt lat="40.072842" lon="-105.230575">
  <ele>1586.09</ele>
  <time>2026-08-27T18:27:08Z</time>
  <course>268.48</course>
  <speed>0.0</speed>
  <fix>3d</fix>
</trkpt>
<trkpt lat="40.0728419" lon="-105.2305749">
  <ele>1586.19</ele>
  <time>2026-08-27T18:27:08Z</time>
  <course>9.54</course>
  <speed>0.022360679774997897</speed>
  <fix>3d</fix>
</trkpt>
<trkpt lat="40.072842" lon="-105.230575">
  <ele>1586.09</ele>
  <time>2026-08-27T18:27:08Z</time>
  <course>268.38</course>
  <speed>0.0</speed>
  <fix>3d</fix>
</trkpt>
<trkpt lat="40.0728419" lon="-105.2305749">
  <ele>1586.19</ele>
  <time>2026-08-27T18:27:08Z</time>
  <course>9.49</course>
  <speed>0.022360679774997897</speed>
  <fix>3d</fix>
</trkpt>
<trkpt lat="40.072842" lon="-105.230575">
  <ele>1586.09</ele>
  <time>2026-08-27T18:27:08Z</time>
  <course>268.3</course>
  <speed>0.0</speed>
  <fix>3d</fix>
</trkpt>
<trkpt lat="40.0728419" lon="-105.2305749">
  <ele>1586.19</ele>
  <time>2026-08-27T18:27:08Z</time>
  <course>9.45</course>
  <speed>0.022360679774997897</speed>
  <fix>3d</fix>
</trkpt>
<trkpt lat="40.072842" lon="-105.230575">
  <ele>1586.09</ele>
  <time>2026-08-27T18:27:08Z</time>
  <course>268.15</course>
  <speed>0.0</speed>
  <fix>3d</fix>
</trkpt>
<trkpt lat="40.0728419" lon="-105.2305749">
  <ele>1586.19</ele>
  <time>2026-08-27T18:27:08Z</time>
  <course>9.41</course>
  <speed>0.022360679774997897</speed>
  <fix>3d</fix>
</trkpt>
<trkpt lat="40.072842" lon="-105.230575">
  <ele>1586.09</ele>
  <time>2026-08-27T18:27:08Z</time>
  <course>255.42</course>
  <speed>0.0</speed>
  <fix>3d</fix>
</trkpt>
<trkpt lat="40.0728419" lon="-105.2305749">
  <ele>1586.19</ele>
  <time>2026-08-27T18:27:08Z</time>
  <course>9.36</course>
  <speed>0.022360679774997897</speed>
  <fix>3d</fix>
</trkpt>
<trkpt lat="40.072842" lon="-105.230575">
  <ele>1586.09</ele>
  <time>2026-08-27T18:27:08Z</time>
  <course>249.28</course>
  <speed>0.0</speed>
  <fix>3d</fix>
</trkpt>
<trkpt lat="40.0728419" lon="-105.2305749">
  <ele>1586.18</ele>
  <time>2026-08-27T18:27:08Z</time>
  <course>9.32</course>
  <speed>0.022360679774997897</speed>
  <fix>3d</fix>
</trkpt>
<trkpt lat="40.072842" lon="-105.230575">
  <ele>1586.09</ele>
  <time>2026-08-27T18:27:08Z</time>
  <course>269.34</course>
  <speed>0.0</speed>
  <fix>3d</fix>
</trkpt>
<trkpt lat="40.0728419" lon="-105.2305749">
  <ele>1586.18</ele>
  <time>2026-08-27T18:27:08Z</time>
  <course>9.28</course>
  <speed>0.022360679774997897</speed>
  <fix>3d</fix>
</trkpt>
<trkpt lat="40.072842" lon="-105.230575">
  <ele>1586.09</ele>
  <time>2026-08-27T18:27:08Z</time>
  <course>269.17</course>
  <speed>0.0</speed>
  <fix>3d</fix>
</trkpt>
<trkpt lat="40.0728419" lon="-105.2305749">
  <ele>1586.18</ele>
  <time>2026-08-27T18:27:08Z</time>
  <course>9.23</course>
  <speed>0.022360679774997897</speed>
  <fix>3d</fix>
</trkpt>
<trkpt lat="40.072842" lon="-105.230575">
  <ele>1586.09</ele>
  <time>2026-08-27T18:27:08Z</time>
  <course>267.03</course>
  <speed>0.0</speed>
  <fix>3d</fix>
</trkpt>
<trkpt lat="40.0728419" lon="-105.2305749">
  <ele>1586.18</ele>
  <time>2026-08-27T18:27:08Z</time>
  <course>9.19</course>
  <speed>0.022360679774997897</speed>
  <fix>3d</fix>
</trkpt>
<trkpt lat="40.072842" lon="-105.230575">
  <ele>1586.09</ele>
  <time>2026-08-27T18:27:08Z</time>
  <course>267.28</course>
  <speed>0.0</speed>
  <fix>3d</fix>
</trkpt>
<trkpt lat="40.0728419" lon="-105.2305749">
  <ele>1586.18</ele>
  <time>2026-08-27T18:27:08Z</time>
  <course>9.15</course>
  <speed>0.022360679774997897</speed>
  <fix>3d</fix>
</trkpt>
<trkpt lat="40.072842" lon="-105.230575">
  <ele>1586.09</ele>
  <time>2026-08-27T18:27:08Z</time>
  <course>267.45</course>
  <speed>0.0</speed>
  <fix>3d</fix>
</trkpt>
<trkpt lat="40.0728419" lon="-105.2305749">
  <ele>1586.18</ele>
  <time>2026-08-27T18:27:08Z</time>
  <course>9.1</course>
  <speed>0.022360679774997897</speed>
  <fix>3d</fix>
</trkpt>
<trkpt lat="40.072842" lon="-105.230575">
  <ele>1586.09</ele>
  <time>2026-08-27T18:27:08Z</time>
  <course>267.39</course>
  <speed>0.0</speed>
  <fix>3d</fix>
</trkpt>
<trkpt lat="40.0728419" lon="-105.2305749">
  <ele>1586.18</ele>
  <time>2026-08-27T18:27:08Z</time>
  <course>9.06</course>
  <speed>0.022360679774997897</speed>
  <fix>3d</fix>
</trkpt>
<trkpt lat="40.072842" lon="-105.230575">
  <ele>1586.09</ele>
  <time>2026-08-27T18:27:08Z</time>
  <course>267.29</course>
  <speed>0.0</speed>
  <fix>3d</fix>
</trkpt>
<trkpt lat="40.0728419" lon="-105.2305749">
  <ele>1586.19</ele>
  <time>2026-08-27T18:27:08Z</time>
  <course>9.02</course>
  <speed>0.022360679774997897</speed>
  <fix>3d</fix>
</trkpt>
<trkpt lat="40.072842" lon="-105.230575">
  <ele>1586.09</ele>
  <time>2026-08-27T18:27:08Z</time>
  <course>267.28</course>
  <speed>0.0</speed>
  <fix>3d</fix>
</trkpt>
<trkpt lat="40.0728419" lon="-105.2305749">
  <ele>1586.19</ele>
  <time>2026-08-27T18:27:08Z</time>
  <course>8.97</course>
  <speed>0.022360679774997897</speed>
  <fix>3d</fix>
</trkpt>
<trkpt lat="40.072842" lon="-105.230575">
  <ele>1586.09</ele>
  <time>2026-08-27T18:27:08Z</time>
  <course>266.94</course>
  <speed>0.0</speed>
  <fix>3d</fix>
</trkpt>
<trkpt lat="40.0728419" lon="-105.2305749">
  <ele>1586.19</ele>
  <time>2026-08-27T18:27:08Z</time>
  <course>8.93</course>
  <speed>0.022360679774997897</speed>
  <fix>3d</fix>
</trkpt>
<trkpt lat="40.072842" lon="-105.230575">
  <ele>1586.09</ele>
  <time>2026-08-27T18:27:08Z</time>
  <course>266.9</course>
  <speed>0.0</speed>
  <fix>3d</fix>
</trkpt>
<trkpt lat="40.0728419" lon="-105.2305749">
  <ele>1586.19</ele>
  <time>2026-08-27T18:27:08Z</time>
  <course>8.89</course>
  <speed>0.022360679774997897</speed>
  <fix>3d</fix>
</trkpt>
<trkpt lat="40.072842" lon="-105.230575">
  <ele>1586.09</ele>
  <time>2026-08-27T18:27:08Z</time>
  <course>266.67</course>
  <speed>0.0</speed>
  <fix>3d</fix>
</trkpt>
<trkpt lat="40.0728419" lon="-105.2305749">
  <ele>1586.19</ele>
  <time>2026-08-27T18:27:08Z</time>
  <course>8.85</course>
  <speed>0.022360679774997897</speed>
  <fix>3d</fix>
</trkpt>
<trkpt lat="40.072842" lon="-105.230575">
  <ele>1586.09</ele>
  <time>2026-08-27T18:27:08Z</time>
  <course>266.75</course>
  <speed>0.0</speed>
  <fix>3d</fix>
</trkpt>
<trkpt lat="40.0728419" lon="-105.2305749">
  <ele>1586.19</ele>
  <time>2026-08-27T18:27:08Z</time>
  <course>8.8</course>
  <speed>0.022360679774997897</speed>
  <fix>3d</fix>
</trkpt>
<trkpt lat="40.072842" lon="-105.230575">
  <ele>1586.09</ele>
  <time>2026-08-27T18:27:08Z</time>
  <course>266.83</course>
  <speed>0.0</speed>
  <fix>3d</fix>
</trkpt>
<trkpt lat="40.0728419" lon="-105.2305749">
  <ele>1586.19</ele>
  <time>2026-08-27T18:27:08Z</time>
  <course>8.76</course>
  <speed>0.022360679774997897</speed>
  <fix>3d</fix>
</trkpt>
<trkpt lat="40.072842" lon="-105.230575">
  <ele>1586.09</ele>
  <time>2026-08-27T18:27:08Z</time>
  <course>266.72</course>
  <speed>0.0</speed>
  <fix>3d</fix>
</trkpt>
<trkpt lat="40.0728419" lon="-105.2305749">
  <ele>1586.19</ele>
  <time>2026-08-27T18:27:08Z</time>
  <course>8.72</course>
  <speed>0.022360679774997897</speed>
  <fix>3d</fix>
</trkpt>
<trkpt lat="40.072842" lon="-105.230575">
  <ele>1586.09</ele>
  <time>2026-08-27T18:27:08Z</time>
  <course>266.79</course>
  <speed>0.0</speed>
  <fix>3d</fix>
</trkpt>
<trkpt lat="40.0728419" lon="-105.2305749">
  <ele>1586.19</ele>
  <time>2026-08-27T18:27:08Z</time>
  <course>8.68</course>
  <speed>0.022360679774997897</speed>
  <fix>3d</fix>
</trkpt>
<trkpt lat="40.072842" lon="-105.230575">
  <ele>1586.09</ele>
  <time>2026-08-27T18:27:08Z</time>
  <course>266.22</course>
  <speed>0.0</speed>
  <fix>3d</fix>
</trkpt>
<trkpt lat="40.0728419" lon="-105.2305749">
  <ele>1586.19</ele>
  <time>2026-08-27T18:27:08Z</time>
  <course>8.64</course>
  <speed>0.022360679774997897</speed>
  <fix>3d</fix>
</trkpt>
<trkpt lat="40.072842" lon="-105.230575">
  <ele>1586.09</ele>
  <time>2026-08-27T18:27:08Z</time>
  <course>265.09</course>
  <speed>0.0</speed>
  <fix>3d</fix>
</trkpt>
<trkpt lat="40.0728419" lon="-105.2305749">
  <ele>1586.19</ele>
  <time>2026-08-27T18:27:08Z</time>
  <course>8.6</course>
  <speed>0.022360679774997897</speed>
  <fix>3d</fix>
</trkpt>
<trkpt lat="40.072842" lon="-105.230575">
  <ele>1586.09</ele>
  <time>2026-08-27T18:27:08Z</time>
  <course>268.74</course>
  <speed>0.0</speed>
  <fix>3d</fix>
</trkpt>
<trkpt lat="40.0728419" lon="-105.2305749">
  <ele>1586.19</ele>
  <time>2026-08-27T18:27:08Z</time>
  <course>8.56</course>
  <speed>0.022360679774997897</speed>
  <fix>3d</fix>
</trkpt>
<trkpt lat="40.072842" lon="-105.230575">
  <ele>1586.09</ele>
  <time>2026-08-27T18:27:08Z</time>
  <course>271.62</course>
  <speed>0.0</speed>
  <fix>3d</fix>
</trkpt>
<trkpt lat="40.0728419" lon="-105.2305749">
  <ele>1586.19</ele>
  <time>2026-08-27T18:27:08Z</time>
  <course>8.52</course>
  <speed>0.022360679774997897</speed>
  <fix>3d</fix>
</trkpt>
<trkpt lat="40.072842" lon="-105.230575">
  <ele>1586.09</ele>
  <time>2026-08-27T18:27:08Z</time>
  <course>267.19</course>
  <speed>0.0</speed>
  <fix>3d</fix>
</trkpt>
<trkpt lat="40.0728419" lon="-105.2305749">
  <ele>1586.19</ele>
  <time>2026-08-27T18:27:08Z</time>
  <course>8.48</course>
  <speed>0.022360679774997897</speed>
  <fix>3d</fix>
</trkpt>
<trkpt lat="40.072842" lon="-105.230575">
  <ele>1586.09</ele>
  <time>2026-08-27T18:27:08Z</time>
  <course>264.99</course>
  <speed>0.0</speed>
  <fix>3d</fix>
</trkpt>
<trkpt lat="40.0728419" lon="-105.2305749">
  <ele>1586.19</ele>
  <time>2026-08-27T18:27:08Z</time>
  <course>8.44</course>
  <speed>0.022360679774997897</speed>
  <fix>3d</fix>
</trkpt>
<trkpt lat="40.072842" lon="-105.230575">
  <ele>1586.09</ele>
  <time>2026-08-27T18:27:08Z</time>
  <course>266.32</course>
  <speed>0.0</speed>
  <fix>3d</fix>
</trkpt>
<trkpt lat="40.0728419" lon="-105.2305749">
  <ele>1586.19</ele>
  <time>2026-08-27T18:27:08Z</time>
  <course>8.41</course>
  <speed>0.022360679774997897</speed>
  <fix>3d</fix>
</trkpt>
<trkpt lat="40.072842" lon="-105.230575">
  <ele>1586.09</ele>
  <time>2026-08-27T18:27:08Z</time>
  <course>266.48</course>
  <speed>0.0</speed>
  <fix>3d</fix>
</trkpt>
<trkpt lat="40.0728419" lon="-105.2305749">
  <ele>1586.19</ele>
  <time>2026-08-27T18:27:08Z</time>
  <course>8.37</course>
  <speed>0.022360679774997897</speed>
  <fix>3d</fix>
</trkpt>
<trkpt lat="40.072842" lon="-105.230575">
  <ele>1586.09</ele>
  <time>2026-08-27T18:27:08Z</time>
  <course>266.3</course>
  <speed>0.0</speed>
  <fix>3d</fix>
</trkpt>
<trkpt lat="40.0728419" lon="-105.2305749">
  <ele>1586.19</ele>
  <time>2026-08-27T18:27:08Z</time>
  <course>8.33</course>
  <speed>0.022360679774997897</speed>
  <fix>3d</fix>
</trkpt>
<trkpt lat="40.072842" lon="-105.230575">
  <ele>1586.09</ele>
  <time>2026-08-27T18:27:08Z</time>
  <course>266.45</course>
  <speed>0.0</speed>
  <fix>3d</fix>
</trkpt>
<trkpt lat="40.0728419" lon="-105.2305749">
  <ele>1586.19</ele>
  <time>2026-08-27T18:27:08Z</time>
  <course>8.29</course>
  <speed>0.022360679774997897</speed>
  <fix>3d</fix>
</trkpt>
<trkpt lat="40.072842" lon="-105.230575">
  <ele>1586.09</ele>
  <time>2026-08-27T18:27:08Z</time>
  <course>265.93</course>
  <speed>0.0</speed>
  <fix>3d</fix>
</trkpt>
<trkpt lat="40.0728419" lon="-105.2305749">
  <ele>1586.19</ele>
  <time>2026-08-27T18:27:08Z</time>
  <course>8.26</course>
  <speed>0.022360679774997897</speed>
  <fix>3d</fix>
</trkpt>
<trkpt lat="40.072842" lon="-105.230575">
  <ele>1586.09</ele>
  <time>2026-08-27T18:27:08Z</time>
  <course>266.22</course>
  <speed>0.0</speed>
  <fix>3d</fix>
</trkpt>
<trkpt lat="40.0728419" lon="-105.2305749">
  <ele>1586.19</ele>
  <time>2026-08-27T18:27:08Z</time>
  <course>8.22</course>
  <speed>0.022360679774997897</speed>
  <fix>3d</fix>
</trkpt>
<trkpt lat="40.072842" lon="-105.230575">
  <ele>1586.09</ele>
  <time>2026-08-27T18:27:08Z</time>
  <course>266.29</course>
  <speed>0.0</speed>
  <fix>3d</fix>
</trkpt>
<trkpt lat="40.0728419" lon="-105.2305749">
  <ele>1586.19</ele>
  <time>2026-08-27T18:27:08Z</time>
  <course>8.18</course>
  <speed>0.01414213562373095</speed>
  <fix>3d</fix>
</trkpt>
<trkpt lat="40.072842" lon="-105.230575">
  <ele>1586.09</ele>
  <time>2026-08-27T18:27:08Z</time>
  <course>265.36</course>
  <speed>0.0</speed>
  <fix>3d</fix>
</trkpt>
<trkpt lat="40.0728419" lon="-105.2305749">
  <ele>1586.19</ele>
  <time>2026-08-27T18:27:08Z</time>
  <course>8.15</course>
  <speed>0.01414213562373095</speed>
  <fix>3d</fix>
</trkpt>
<trkpt lat="40.072842" lon="-105.230575">
  <ele>1586.09</ele>
  <time>2026-08-27T18:27:08Z</time>
  <course>266.14</course>
  <speed>0.0</speed>
  <fix>3d</fix>
</trkpt>
<trkpt lat="40.0728419" lon="-105.2305749">
  <ele>1586.19</ele>
  <time>2026-08-27T18:27:08Z</time>
  <course>8.11</course>
  <speed>0.01414213562373095</speed>
  <fix>3d</fix>
</trkpt>
<trkpt lat="40.072842" lon="-105.230575">
  <ele>1586.09</ele>
  <time>2026-08-27T18:27:08Z</time>
  <course>266.18</course>
  <speed>0.0</speed>
  <fix>3d</fix>
</trkpt>
<trkpt lat="40.0728419" lon="-105.2305749">
  <ele>1586.18</ele>
  <time>2026-08-27T18:27:08Z</time>
  <course>8.07</course>
  <speed>0.01414213562373095</speed>
  <fix>3d</fix>
</trkpt>
<trkpt lat="40.072842" lon="-105.230575">
  <ele>1586.09</ele>
  <time>2026-08-27T18:27:08Z</time>
  <course>265.87</course>
  <speed>0.0</speed>
  <fix>3d</fix>
</trkpt>
<trkpt lat="40.0728419" lon="-105.2305749">
  <ele>1586.18</ele>
  <time>2026-08-27T18:27:08Z</time>
  <course>8.04</course>
  <speed>0.01414213562373095</speed>
  <fix>3d</fix>
</trkpt>
<trkpt lat="40.072842" lon="-105.230575">
  <ele>1586.09</ele>
  <time>2026-08-27T18:27:08Z</time>
  <course>266.15</course>
  <speed>0.0</speed>
  <fix>3d</fix>
</trkpt>
<trkpt lat="40.0728419" lon="-105.2305749">
  <ele>1586.18</ele>
  <time>2026-08-27T18:27:08Z</time>
  <course>8.0</course>
  <speed>0.01414213562373095</speed>
  <fix>3d</fix>
</trkpt>
<trkpt lat="40.072842" lon="-105.230575">
  <ele>1586.09</ele>
  <time>2026-08-27T18:27:08Z</time>
  <course>265.89</course>
  <speed>0.0</speed>
  <fix>3d</fix>
</trkpt>
<trkpt lat="40.0728419" lon="-105.2305749">
  <ele>1586.18</ele>
  <time>2026-08-27T18:27:08Z</time>
  <course>7.97</course>
  <speed>0.01414213562373095</speed>
  <fix>3d</fix>
</trkpt>
<trkpt lat="40.072842" lon="-105.230575">
  <ele>1586.09</ele>
  <time>2026-08-27T18:27:08Z</time>
  <course>265.97</course>
  <speed>0.0</speed>
  <fix>3d</fix>
</trkpt>
<trkpt lat="40.0728419" lon="-105.2305749">
  <ele>1586.18</ele>
  <time>2026-08-27T18:27:08Z</time>
  <course>7.94</course>
  <speed>0.01414213562373095</speed>
  <fix>3d</fix>
</trkpt>
<trkpt lat="40.072842" lon="-105.230575">
  <ele>1586.09</ele>
  <time>2026-08-27T18:27:08Z</time>
  <course>266.13</course>
  <speed>0.0</speed>
  <fix>3d</fix>
</trkpt>
<trkpt lat="40.0728419" lon="-105.2305749">
  <ele>1586.18</ele>
  <time>2026-08-27T18:27:08Z</time>
  <course>7.9</course>
  <speed>0.01414213562373095</speed>
  <fix>3d</fix>
</trkpt>
<trkpt lat="40.072842" lon="-105.230575">
  <ele>1586.09</ele>
  <time>2026-08-27T18:27:08Z</time>
  <course>265.61</course>
  <speed>0.0</speed>
  <fix>3d</fix>
</trkpt>
<trkpt lat="40.0728419" lon="-105.2305749">
  <ele>1586.18</ele>
  <time>2026-08-27T18:27:08Z</time>
  <course>7.87</course>
  <speed>0.01414213562373095</speed>
  <fix>3d</fix>
</trkpt>
<trkpt lat="40.072842" lon="-105.230575">
  <ele>1586.09</ele>
  <time>2026-08-27T18:27:08Z</time>
  <course>265.92</course>
  <speed>0.0</speed>
  <fix>3d</fix>
</trkpt>
<trkpt lat="40.0728419" lon="-105.2305749">
  <ele>1586.18</ele>
  <time>2026-08-27T18:27:08Z</time>
  <course>7.84</course>
  <speed>0.01414213562373095</speed>
  <fix>3d</fix>
</trkpt>
<trkpt lat="40.072842" lon="-105.230575">
  <ele>1586.09</ele>
  <time>2026-08-27T18:27:08Z</time>
  <course>266.05</course>
  <speed>0.0</speed>
  <fix>3d</fix>
</trkpt>
<trkpt lat="40.0728419" lon="-105.2305749">
  <ele>1586.18</ele>
  <time>2026-08-27T18:27:08Z</time>
  <course>7.8</course>
  <speed>0.01414213562373095</speed>
  <fix>3d</fix>
</trkpt>
<trkpt lat="40.072842" lon="-105.230575">
  <ele>1586.09</ele>
  <time>2026-08-27T18:27:08Z</time>
  <course>265.45</course>
  <speed>0.0</speed>
  <fix>3d</fix>
</trkpt>
<trkpt lat="40.0728419" lon="-105.2305749">
  <ele>1586.18</ele>
  <time>2026-08-27T18:27:08Z</time>
  <course>7.77</course>
  <speed>0.01414213562373095</speed>
  <fix>3d</fix>
</trkpt>
<trkpt lat="40.072842" lon="-105.230575">
  <ele>1586.09</ele>
  <time>2026-08-27T18:27:08Z</time>
  <course>265.78</course>
  <speed>0.0</speed>
  <fix>3d</fix>
</trkpt>
<trkpt lat="40.0728419" lon="-105.2305749">
  <ele>1586.18</ele>
  <time>2026-08-27T18:27:08Z</time>
  <course>7.74</course>
  <speed>0.01414213562373095</speed>
  <fix>3d</fix>
</trkpt>
<trkpt lat="40.072842" lon="-105.230575">
  <ele>1586.09</ele>
  <time>2026-08-27T18:27:08Z</time>
  <course>265.98</course>
  <speed>0.0</speed>
  <fix>3d</fix>
</trkpt>
<trkpt lat="40.0728419" lon="-105.2305749">
  <ele>1586.18</ele>
  <time>2026-08-27T18:27:08Z</time>
  <course>7.7</course>
  <speed>0.01414213562373095</speed>
  <fix>3d</fix>
</trkpt>
<trkpt lat="40.072842" lon="-105.230575">
  <ele>1586.09</ele>
  <time>2026-08-27T18:27:08Z</time>
  <course>265.54</course>
  <speed>0.0</speed>
  <fix>3d</fix>
</trkpt>
<trkpt lat="40.0728419" lon="-105.2305749">
  <ele>1586.18</ele>
  <time>2026-08-27T18:27:08Z</time>
  <course>7.67</course>
  <speed>0.01414213562373095</speed>
  <fix>3d</fix>
</trkpt>
<trkpt lat="40.072842" lon="-105.230575">
  <ele>1586.09</ele>
  <time>2026-08-27T18:27:08Z</time>
  <course>265.66</course>
  <speed>0.0</speed>
  <fix>3d</fix>
</trkpt>
<trkpt lat="40.0728419" lon="-105.2305749">
  <ele>1586.18</ele>
  <time>2026-08-27T18:27:08Z</time>
  <course>7.64</course>
  <speed>0.01414213562373095</speed>
  <fix>3d</fix>
</trkpt>
<trkpt lat="40.072842" lon="-105.230575">
  <ele>1586.09</ele>
  <time>2026-08-27T18:27:08Z</time>
  <course>265.89</course>
  <speed>0.0</speed>
  <fix>3d</fix>
</trkpt>
<trkpt lat="40.0728419" lon="-105.2305749">
  <ele>1586.18</ele>
  <time>2026-08-27T18:27:08Z</time>
  <course>7.61</course>
  <speed>0.01414213562373095</speed>
  <fix>3d</fix>
</trkpt>
<trkpt lat="40.072842" lon="-105.230575">
  <ele>1586.09</ele>
  <time>2026-08-27T18:27:08Z</time>
  <course>265.53</course>
  <speed>0.0</speed>
  <fix>3d</fix>
</trkpt>
<trkpt lat="40.0728419" lon="-105.2305749">
  <ele>1586.18</ele>
  <time>2026-08-27T18:27:08Z</time>
  <course>7.58</course>
  <speed>0.01414213562373095</speed>
  <fix>3d</fix>
</trkpt>
<trkpt lat="40.072842" lon="-105.230575">
  <ele>1586.09</ele>
  <time>2026-08-27T18:27:08Z</time>
  <course>265.43</course>
  <speed>0.0</speed>
  <fix>3d</fix>
</trkpt>
<trkpt lat="40.0728419" lon="-105.2305749">
  <ele>1586.17</ele>
  <time>2026-08-27T18:27:08Z</time>
  <course>7.55</course>
  <speed>0.01414213562373095</speed>
  <fix>3d</fix>
</trkpt>
<trkpt lat="40.072842" lon="-105.230575">
  <ele>1586.09</ele>
  <time>2026-08-27T18:27:08Z</time>
  <course>265.77</course>
  <speed>0.0</speed>
  <fix>3d</fix>
</trkpt>
<trkpt lat="40.0728419" lon="-105.2305749">
  <ele>1586.17</ele>
  <time>2026-08-27T18:27:08Z</time>
  <course>7.52</course>
  <speed>0.01414213562373095</speed>
  <fix>3d</fix>
</trkpt>
<trkpt lat="40.072842" lon="-105.230575">
  <ele>1586.09</ele>
  <time>2026-08-27T18:27:08Z</time>
  <course>265.57</course>
  <speed>0.0</speed>
  <fix>3d</fix>
</trkpt>
<trkpt lat="40.0728419" lon="-105.2305749">
  <ele>1586.17</ele>
  <time>2026-08-27T18:27:08Z</time>
  <course>7.49</course>
  <speed>0.01414213562373095</speed>
  <fix>3d</fix>
</trkpt>
<trkpt lat="40.072842" lon="-105.230575">
  <ele>1586.09</ele>
  <time>2026-08-27T18:27:08Z</time>
  <course>264.92</course>
  <speed>0.0</speed>
  <fix>3d</fix>
</trkpt>
<trkpt lat="40.0728419" lon="-105.2305749">
  <ele>1586.17</ele>
  <time>2026-08-27T18:27:08Z</time>
  <course>7.46</course>
  <speed>0.01414213562373095</speed>
  <fix>3d</fix>
</trkpt>
<trkpt lat="40.072842" lon="-105.230575">
  <ele>1586.09</ele>
  <time>2026-08-27T18:27:08Z</time>
  <course>265.62</course>
  <speed>0.0</speed>
  <fix>3d</fix>
</trkpt>
<trkpt lat="40.0728419" lon="-105.2305749">
  <ele>1586.17</ele>
  <time>2026-08-27T18:27:08Z</time>
  <course>7.43</course>
  <speed>0.01414213562373095</speed>
  <fix>3d</fix>
</trkpt>
<trkpt lat="40.072842" lon="-105.230575">
  <ele>1586.09</ele>
  <time>2026-08-27T18:27:08Z</time>
  <course>265.63</course>
  <speed>0.0</speed>
  <fix>3d</fix>
</trkpt>
<trkpt lat="40.0728419" lon="-105.2305749">
  <ele>1586.17</ele>
  <time>2026-08-27T18:27:08Z</time>
  <course>7.4</course>
  <speed>0.01414213562373095</speed>
  <fix>3d</fix>
</trkpt>
<trkpt lat="40.072842" lon="-105.230575">
  <ele>1586.09</ele>
  <time>2026-08-27T18:27:08Z</time>
  <course>264.96</course>
  <speed>0.0</speed>
  <fix>3d</fix>
</trkpt>
<trkpt lat="40.0728419" lon="-105.2305749">
  <ele>1586.17</ele>
  <time>2026-08-27T18:27:08Z</time>
  <course>7.37</course>
  <speed>0.01414213562373095</speed>
  <fix>3d</fix>
</trkpt>
<trkpt lat="40.072842" lon="-105.230575">
  <ele>1586.09</ele>
  <time>2026-08-27T18:27:08Z</time>
  <course>265.49</course>
  <speed>0.0</speed>
  <fix>3d</fix>
</trkpt>
<trkpt lat="40.0728419" lon="-105.2305749">
  <ele>1586.18</ele>
  <time>2026-08-27T18:27:08Z</time>
  <course>7.34</course>
  <speed>0.01414213562373095</speed>
  <fix>3d</fix>
</trkpt>
<trkpt lat="40.072842" lon="-105.230575">
  <ele>1586.09</ele>
  <time>2026-08-27T18:27:08Z</time>
  <course>265.66</course>
  <speed>0.0</speed>
  <fix>3d</fix>
</trkpt>
<trkpt lat="40.0728419" lon="-105.2305749">
  <ele>1586.18</ele>
  <time>2026-08-27T18:27:08Z</time>
  <course>7.32</course>
  <speed>0.01414213562373095</speed>
  <fix>3d</fix>
</trkpt>
<trkpt lat="40.072842" lon="-105.230575">
  <ele>1586.09</ele>
  <time>2026-08-27T18:27:08Z</time>
  <course>265.35</course>
  <speed>0.0</speed>
  <fix>3d</fix>
</trkpt>
<trkpt lat="40.0728419" lon="-105.2305749">
  <ele>1586.18</ele>
  <time>2026-08-27T18:27:08Z</time>
  <course>7.29</course>
  <speed>0.01414213562373095</speed>
  <fix>3d</fix>
</trkpt>
<trkpt lat="40.072842" lon="-105.230575">
  <ele>1586.09</ele>
  <time>2026-08-27T18:27:08Z</time>
  <course>264.85</course>
  <speed>0.0</speed>
  <fix>3d</fix>
</trkpt>
<trkpt lat="40.0728419" lon="-105.2305749">
  <ele>1586.18</ele>
  <time>2026-08-27T18:27:08Z</time>
  <course>7.26</course>
  <speed>0.01414213562373095</speed>
  <fix>3d</fix>
</trkpt>
<trkpt lat="40.072842" lon="-105.230575">
  <ele>1586.09</ele>
  <time>2026-08-27T18:27:08Z</time>
  <course>265.53</course>
  <speed>0.0</speed>
  <fix>3d</fix>
</trkpt>
<trkpt lat="40.0728419" lon="-105.2305749">
  <ele>1586.18</ele>
  <time>2026-08-27T18:27:08Z</time>
  <course>7.23</course>
  <speed>0.01414213562373095</speed>
  <fix>3d</fix>
</trkpt>
<trkpt lat="40.072842" lon="-105.230575">
  <ele>1586.09</ele>
  <time>2026-08-27T18:27:08Z</time>
  <course>265.56</course>
  <speed>0.0</speed>
  <fix>3d</fix>
</trkpt>
<trkpt lat="40.0728419" lon="-105.2305749">
  <ele>1586.17</ele>
  <time>2026-08-27T18:27:08Z</time>
  <course>7.21</course>
  <speed>0.01414213562373095</speed>
  <fix>3d</fix>
</trkpt>
<trkpt lat="40.072842" lon="-105.230575">
  <ele>1586.09</ele>
  <time>2026-08-27T18:27:08Z</time>
  <course>265.01</course>
  <speed>0.0</speed>
  <fix>3d</fix>
</trkpt>
<trkpt lat="40.0728419" lon="-105.2305749">
  <ele>1586.17</ele>
  <time>2026-08-27T18:27:08Z</time>
  <course>7.18</course>
  <speed>0.01414213562373095</speed>
  <fix>3d</fix>
</trkpt>
<trkpt lat="40.072842" lon="-105.230575">
  <ele>1586.09</ele>
  <time>2026-08-27T18:27:08Z</time>
  <course>264.89</course>
  <speed>0.0</speed>
  <fix>3d</fix>
</trkpt>
<trkpt lat="40.0728419" lon="-105.2305749">
  <ele>1586.17</ele>
  <time>2026-08-27T18:27:08Z</time>
  <course>7.15</course>
  <speed>0.01414213562373095</speed>
  <fix>3d</fix>
</trkpt>
<trkpt lat="40.072842" lon="-105.230575">
  <ele>1586.09</ele>
  <time>2026-08-27T18:27:08Z</time>
  <course>265.45</course>
  <speed>0.0</speed>
  <fix>3d</fix>
</trkpt>
<trkpt lat="40.0728419" lon="-105.2305749">
  <ele>1586.17</ele>
  <time>2026-08-27T18:27:08Z</time>
  <course>7.13</course>
  <speed>0.01414213562373095</speed>
  <fix>3d</fix>
</trkpt>
<trkpt lat="40.072842" lon="-105.230575">
  <ele>1586.09</ele>
  <time>2026-08-27T18:27:08Z</time>
  <course>259.36</course>
  <speed>0.0</speed>
  <fix>3d</fix>
</trkpt>
<trkpt lat="40.0728419" lon="-105.2305749">
  <ele>1586.17</ele>
  <time>2026-08-27T18:27:08Z</time>
  <course>7.1</course>
  <speed>0.01414213562373095</speed>
  <fix>3d</fix>
</trkpt>
<trkpt lat="40.072842" lon="-105.230575">
  <ele>1586.09</ele>
  <time>2026-08-27T18:27:08Z</time>
  <course>237.98</course>
  <speed>0.0</speed>
  <fix>3d</fix>
</trkpt>
<trkpt lat="40.0728419" lon="-105.2305749">
  <ele>1586.17</ele>
  <time>2026-08-27T18:27:08Z</time>
  <course>7.07</course>
  <speed>0.01414213562373095</speed>
  <fix>3d</fix>
</trkpt>
<trkpt lat="40.072842" lon="-105.230575">
  <ele>1586.09</ele>
  <time>2026-08-27T18:27:08Z</time>
  <course>256.71</course>
  <speed>0.0</speed>
  <fix>3d</fix>
</trkpt>
<trkpt lat="40.0728419" lon="-105.2305749">
  <ele>1586.17</ele>
  <time>2026-08-27T18:27:08Z</time>
  <course>7.05</course>
  <speed>0.01414213562373095</speed>
  <fix>3d</fix>
</trkpt>
<trkpt lat="40.072842" lon="-105.230575">
  <ele>1586.09</ele>
  <time>2026-08-27T18:27:08Z</time>
  <course>267.49</course>
  <speed>0.0</speed>
  <fix>3d</fix>
</trkpt>
<trkpt lat="40.0728419" lon="-105.2305749">
  <ele>1586.17</ele>
  <time>2026-08-27T18:27:08Z</time>
  <course>7.02</course>
  <speed>0.01414213562373095</speed>
  <fix>3d</fix>
</trkpt>
<trkpt lat="40.072842" lon="-105.230575">
  <ele>1586.09</ele>
  <time>2026-08-27T18:27:08Z</time>
  <course>265.15</course>
  <speed>0.0</speed>
  <fix>3d</fix>
</trkpt>
<trkpt lat="40.0728419" lon="-105.2305749">
  <ele>1586.17</ele>
  <time>2026-08-27T18:27:08Z</time>
  <course>7.0</course>
  <speed>0.01414213562373095</speed>
  <fix>3d</fix>
</trkpt>
<trkpt lat="40.072842" lon="-105.230575">
  <ele>1586.09</ele>
  <time>2026-08-27T18:27:08Z</time>
  <course>263.57</course>
  <speed>0.0</speed>
  <fix>3d</fix>
</trkpt>
<trkpt lat="40.0728419" lon="-105.2305749">
  <ele>1586.17</ele>
  <time>2026-08-27T18:27:08Z</time>
  <course>6.97</course>
  <speed>0.01414213562373095</speed>
  <fix>3d</fix>
</trkpt>
<trkpt lat="40.072842" lon="-105.230575">
  <ele>1586.09</ele>
  <time>2026-08-27T18:27:08Z</time>
  <course>264.33</course>
  <speed>0.0</speed>
  <fix>3d</fix>
</trkpt>
<trkpt lat="40.0728419" lon="-105.2305749">
  <ele>1586.17</ele>
  <time>2026-08-27T18:27:08Z</time>
  <course>6.95</course>
  <speed>0.01414213562373095</speed>
  <fix>3d</fix>
</trkpt>
<trkpt lat="40.072842" lon="-105.230575">
  <ele>1586.09</ele>
  <time>2026-08-27T18:27:08Z</time>
  <course>264.63</course>
  <speed>0.0</speed>
  <fix>3d</fix>
</trkpt>
<trkpt lat="40.0728419" lon="-105.2305749">
  <ele>1586.16</ele>
  <time>2026-08-27T18:27:08Z</time>
  <course>6.92</course>
  <speed>0.01414213562373095</speed>
  <fix>3d</fix>
</trkpt>
<trkpt lat="40.072842" lon="-105.230575">
  <ele>1586.09</ele>
  <time>2026-08-27T18:27:08Z</time>
  <course>264.96</course>
  <speed>0.0</speed>
  <fix>3d</fix>
</trkpt>
<trkpt lat="40.0728419" lon="-105.2305749">
  <ele>1586.16</ele>
  <time>2026-08-27T18:27:08Z</time>
  <course>6.9</course>
  <speed>0.01414213562373095</speed>
  <fix>3d</fix>
</trkpt>
<trkpt lat="40.072842" lon="-105.230575">
  <ele>1586.09</ele>
  <time>2026-08-27T18:27:08Z</time>
  <course>264.85</course>
  <speed>0.0</speed>
  <fix>3d</fix>
</trkpt>
<trkpt lat="40.0728419" lon="-105.2305749">
  <ele>1586.17</ele>
  <time>2026-08-27T18:27:08Z</time>
  <course>6.87</course>
  <speed>0.01414213562373095</speed>
  <fix>3d</fix>
</trkpt>
<trkpt lat="40.072842" lon="-105.230575">
  <ele>1586.09</ele>
  <time>2026-08-27T18:27:08Z</time>
  <course>264.14</course>
  <speed>0.0</speed>
  <fix>3d</fix>
</trkpt>
<trkpt lat="40.0728419" lon="-105.2305749">
  <ele>1586.16</ele>
  <time>2026-08-27T18:27:08Z</time>
  <course>6.85</course>
  <speed>0.01414213562373095</speed>
  <fix>3d</fix>
</trkpt>
<trkpt lat="40.072842" lon="-105.230575">
  <ele>1586.09</ele>
  <time>2026-08-27T18:27:08Z</time>
  <course>264.29</course>
  <speed>0.0</speed>
  <fix>3d</fix>
</trkpt>
<trkpt lat="40.0728419" lon="-105.2305749">
  <ele>1586.16</ele>
  <time>2026-08-27T18:27:08Z</time>
  <course>6.83</course>
  <speed>0.01414213562373095</speed>
  <fix>3d</fix>
</trkpt>
<trkpt lat="40.072842" lon="-105.230575">
  <ele>1586.09</ele>
  <time>2026-08-27T18:27:08Z</time>
  <course>264.9</course>
  <speed>0.0</speed>
  <fix>3d</fix>
</trkpt>
<trkpt lat="40.0728419" lon="-105.2305749">
  <ele>1586.16</ele>
  <time>2026-08-27T18:27:08Z</time>
  <course>6.8</course>
  <speed>0.01414213562373095</speed>
  <fix>3d</fix>
</trkpt>
<trkpt lat="40.072842" lon="-105.230575">
  <ele>1586.09</ele>
  <time>2026-08-27T18:27:08Z</time>
  <course>265.01</course>
  <speed>0.0</speed>
  <fix>3d</fix>
</trkpt>
<trkpt lat="40.0728419" lon="-105.2305749">
  <ele>1586.16</ele>
  <time>2026-08-27T18:27:08Z</time>
  <course>6.78</course>
  <speed>0.01414213562373095</speed>
  <fix>3d</fix>
</trkpt>
<trkpt lat="40.072842" lon="-105.230575">
  <ele>1586.09</ele>
  <time>2026-08-27T18:27:08Z</time>
  <course>264.55</course>
  <speed>0.0</speed>
  <fix>3d</fix>
</trkpt>
<trkpt lat="40.0728419" lon="-105.2305749">
  <ele>1586.17</ele>
  <time>2026-08-27T18:27:08Z</time>
  <course>6.76</course>
  <speed>0.01414213562373095</speed>
  <fix>3d</fix>
</trkpt>
<trkpt lat="40.072842" lon="-105.230575">
  <ele>1586.09</ele>
  <time>2026-08-27T18:27:08Z</time>
  <course>264.11</course>
  <speed>0.0</speed>
  <fix>3d</fix>
</trkpt>
<trkpt lat="40.0728419" lon="-105.2305749">
  <ele>1586.17</ele>
  <time>2026-08-27T18:27:08Z</time>
  <course>6.74</course>
  <speed>0.01414213562373095</speed>
  <fix>3d</fix>
</trkpt>
<trkpt lat="40.072842" lon="-105.230575">
  <ele>1586.09</ele>
  <time>2026-08-27T18:27:08Z</time>
  <course>264.31</course>
  <speed>0.0</speed>
  <fix>3d</fix>
</trkpt>
<trkpt lat="40.0728419" lon="-105.2305749">
  <ele>1586.17</ele>
  <time>2026-08-27T18:27:08Z</time>
  <course>6.71</course>
  <speed>0.01414213562373095</speed>
  <fix>3d</fix>
</trkpt>
<trkpt lat="40.072842" lon="-105.230575">
  <ele>1586.09</ele>
  <time>2026-08-27T18:27:08Z</time>
  <course>264.84</course>
  <speed>0.0</speed>
  <fix>3d</fix>
</trkpt>
<trkpt lat="40.0728419" lon="-105.2305749">
  <ele>1586.17</ele>
  <time>2026-08-27T18:27:08Z</time>
  <course>6.69</course>
  <speed>0.01414213562373095</speed>
  <fix>3d</fix>
</trkpt>
<trkpt lat="40.072842" lon="-105.230575">
  <ele>1586.09</ele>
  <time>2026-08-27T18:27:08Z</time>
  <course>264.93</course>
  <speed>0.0</speed>
  <fix>3d</fix>
</trkpt>
<trkpt lat="40.0728419" lon="-105.2305749">
  <ele>1586.17</ele>
  <time>2026-08-27T18:27:08Z</time>
  <course>6.67</course>
  <speed>0.01414213562373095</speed>
  <fix>3d</fix>
</trkpt>
<trkpt lat="40.072842" lon="-105.230575">
  <ele>1586.09</ele>
  <time>2026-08-27T18:27:08Z</time>
  <course>264.47</course>
  <speed>0.0</speed>
  <fix>3d</fix>
</trkpt>
<trkpt lat="40.0728419" lon="-105.2305749">
  <ele>1586.17</ele>
  <time>2026-08-27T18:27:08Z</time>
  <course>6.65</course>
  <speed>0.01414213562373095</speed>
  <fix>3d</fix>
</trkpt>
<trkpt lat="40.072842" lon="-105.230575">
  <ele>1586.09</ele>
  <time>2026-08-27T18:27:08Z</time>
  <course>264.09</course>
  <speed>0.0</speed>
  <fix>3d</fix>
</trkpt>
<trkpt lat="40.0728419" lon="-105.2305749">
  <ele>1586.17</ele>
  <time>2026-08-27T18:27:08Z</time>
  <course>6.62</course>
  <speed>0.01414213562373095</speed>
  <fix>3d</fix>
</trkpt>
<trkpt lat="40.072842" lon="-105.230575">
  <ele>1586.09</ele>
  <time>2026-08-27T18:27:08Z</time>
  <course>264.28</course>
  <speed>0.0</speed>
  <fix>3d</fix>
</trkpt>
<trkpt lat="40.0728419" lon="-105.2305749">
  <ele>1586.17</ele>
  <time>2026-08-27T18:27:08Z</time>
  <course>6.6</course>
  <speed>0.01414213562373095</speed>
  <fix>3d</fix>
</trkpt>
<trkpt lat="40.072842" lon="-105.230575">
  <ele>1586.09</ele>
  <time>2026-08-27T18:27:08Z</time>
  <course>264.45</course>
  <speed>0.0</speed>
  <fix>3d</fix>
</trkpt>
<trkpt lat="40.0728419" lon="-105.2305749">
  <ele>1586.17</ele>
  <time>2026-08-27T18:27:08Z</time>
  <course>6.58</course>
  <speed>0.01414213562373095</speed>
  <fix>3d</fix>
</trkpt>
<trkpt lat="40.072842" lon="-105.230575">
  <ele>1586.09</ele>
  <time>2026-08-27T18:27:08Z</time>
  <course>264.76</course>
  <speed>0.0</speed>
  <fix>3d</fix>
</trkpt>
<trkpt lat="40.0728419" lon="-105.2305749">
  <ele>1586.17</ele>
  <time>2026-08-27T18:27:08Z</time>
  <course>6.56</course>
  <speed>0.01414213562373095</speed>
  <fix>3d</fix>
</trkpt>
<trkpt lat="40.072842" lon="-105.230575">
  <ele>1586.09</ele>
  <time>2026-08-27T18:27:08Z</time>
  <course>264.64</course>
  <speed>0.0</speed>
  <fix>3d</fix>
</trkpt>
<trkpt lat="40.0728419" lon="-105.2305749">
  <ele>1586.17</ele>
  <time>2026-08-27T18:27:08Z</time>
  <course>6.54</course>
  <speed>0.01414213562373095</speed>
  <fix>3d</fix>
</trkpt>
<trkpt lat="40.072842" lon="-105.230575">
  <ele>1586.09</ele>
  <time>2026-08-27T18:27:08Z</time>
  <course>264.07</course>
  <speed>0.0</speed>
  <fix>3d</fix>
</trkpt>
<trkpt lat="40.0728419" lon="-105.2305749">
  <ele>1586.17</ele>
  <time>2026-08-27T18:27:08Z</time>
  <course>6.52</course>
  <speed>0.01414213562373095</speed>
  <fix>3d</fix>
</trkpt>
<trkpt lat="40.072842" lon="-105.230575">
  <ele>1586.09</ele>
  <time>2026-08-27T18:27:08Z</time>
  <course>263.74</course>
  <speed>0.0</speed>
  <fix>3d</fix>
</trkpt>
<trkpt lat="40.0728419" lon="-105.2305749">
  <ele>1586.17</ele>
  <time>2026-08-27T18:27:08Z</time>
  <course>6.5</course>
  <speed>0.01414213562373095</speed>
  <fix>3d</fix>
</trkpt>
<trkpt lat="40.072842" lon="-105.230575">
  <ele>1586.09</ele>
  <time>2026-08-27T18:27:08Z</time>
  <course>260.03</course>
  <speed>0.0</speed>
  <fix>3d</fix>
</trkpt>
<trkpt lat="40.0728419" lon="-105.2305749">
  <ele>1586.17</ele>
  <time>2026-08-27T18:27:08Z</time>
  <course>6.48</course>
  <speed>0.01414213562373095</speed>
  <fix>3d</fix>
</trkpt>
<trkpt lat="40.072842" lon="-105.230575">
  <ele>1586.09</ele>
  <time>2026-08-27T18:27:08Z</time>
  <course>264.87</course>
  <speed>0.0</speed>
  <fix>3d</fix>
</trkpt>
<trkpt lat="40.0728419" lon="-105.2305749">
  <ele>1586.17</ele>
  <time>2026-08-27T18:27:08Z</time>
  <course>6.46</course>
  <speed>0.01414213562373095</speed>
  <fix>3d</fix>
</trkpt>
<trkpt lat="40.072842" lon="-105.230575">
  <ele>1586.09</ele>
  <time>2026-08-27T18:27:08Z</time>
  <course>266.66</course>
  <speed>0.0</speed>
  <fix>3d</fix>
</trkpt>
<trkpt lat="40.0728419" lon="-105.2305749">
  <ele>1586.17</ele>
  <time>2026-08-27T18:27:08Z</time>
  <course>6.44</course>
  <speed>0.01414213562373095</speed>
  <fix>3d</fix>
</trkpt>
<trkpt lat="40.072842" lon="-105.230575">
  <ele>1586.09</ele>
  <time>2026-08-27T18:27:08Z</time>
  <course>264.43</course>
  <speed>0.0</speed>
  <fix>3d</fix>
</trkpt>
<trkpt lat="40.0728419" lon="-105.2305749">
  <ele>1586.17</ele>
  <time>2026-08-27T18:27:09Z</time>
  <course>6.42</course>
  <speed>0.01414213562373095</speed>
  <fix>3d</fix>
</trkpt>
<trkpt lat="40.072842" lon="-105.230575">
  <ele>1586.09</ele>
  <time>2026-08-27T18:27:09Z</time>
  <course>263.76</course>
  <speed>0.0</speed>
  <fix>3d</fix>
</trkpt>
<trkpt lat="40.0728419" lon="-105.2305749">
  <ele>1586.17</ele>
  <time>2026-08-27T18:27:09Z</time>
  <course>6.4</course>
  <speed>0.01414213562373095</speed>
  <fix>3d</fix>
</trkpt>
<trkpt lat="40.072842" lon="-105.230575">
  <ele>1586.09</ele>
  <time>2026-08-27T18:27:09Z</time>
  <course>264.25</course>
  <speed>0.0</speed>
  <fix>3d</fix>
</trkpt>
<trkpt lat="40.0728419" lon="-105.2305749">
  <ele>1586.17</ele>
  <time>2026-08-27T18:27:09Z</time>
  <course>6.38</course>
  <speed>0.01414213562373095</speed>
  <fix>3d</fix>
</trkpt>
<trkpt lat="40.072842" lon="-105.230575">
  <ele>1586.09</ele>
  <time>2026-08-27T18:27:09Z</time>
  <course>264.28</course>
  <speed>0.0</speed>
  <fix>3d</fix>
</trkpt>
<trkpt lat="40.0728419" lon="-105.2305749">
  <ele>1586.17</ele>
  <time>2026-08-27T18:27:09Z</time>
  <course>6.36</course>
  <speed>0.01414213562373095</speed>
  <fix>3d</fix>
</trkpt>
<trkpt lat="40.072842" lon="-105.230575">
  <ele>1586.09</ele>
  <time>2026-08-27T18:27:09Z</time>
  <course>264.19</course>
  <speed>0.0</speed>
  <fix>3d</fix>
</trkpt>
<trkpt lat="40.0728419" lon="-105.2305749">
  <ele>1586.17</ele>
  <time>2026-08-27T18:27:09Z</time>
  <course>6.34</course>
  <speed>0.01414213562373095</speed>
  <fix>3d</fix>
</trkpt>
<trkpt lat="40.072842" lon="-105.230575">
  <ele>1586.09</ele>
  <time>2026-08-27T18:27:09Z</time>
  <course>264.64</course>
  <speed>0.0</speed>
  <fix>3d</fix>
</trkpt>
<trkpt lat="40.0728419" lon="-105.2305749">
  <ele>1586.17</ele>
  <time>2026-08-27T18:27:09Z</time>
  <course>6.32</course>
  <speed>0.01414213562373095</speed>
  <fix>3d</fix>
</trkpt>
<trkpt lat="40.072842" lon="-105.230575">
  <ele>1586.09</ele>
  <time>2026-08-27T18:27:09Z</time>
  <course>264.67</course>
  <speed>0.0</speed>
  <fix>3d</fix>
</trkpt>
<trkpt lat="40.0728419" lon="-105.2305749">
  <ele>1586.17</ele>
  <time>2026-08-27T18:27:09Z</time>
  <course>6.3</course>
  <speed>0.01414213562373095</speed>
  <fix>3d</fix>
</trkpt>
<trkpt lat="40.072842" lon="-105.230575">
  <ele>1586.09</ele>
  <time>2026-08-27T18:27:09Z</time>
  <course>264.18</course>
  <speed>0.0</speed>
  <fix>3d</fix>
</trkpt>
<trkpt lat="40.0728419" lon="-105.2305749">
  <ele>1586.16</ele>
  <time>2026-08-27T18:27:09Z</time>
  <course>6.28</course>
  <speed>0.01414213562373095</speed>
  <fix>3d</fix>
</trkpt>
<trkpt lat="40.072842" lon="-105.230575">
  <ele>1586.09</ele>
  <time>2026-08-27T18:27:09Z</time>
  <course>264.08</course>
  <speed>0.0</speed>
  <fix>3d</fix>
</trkpt>
<trkpt lat="40.0728419" lon="-105.2305749">
  <ele>1586.16</ele>
  <time>2026-08-27T18:27:09Z</time>
  <course>6.26</course>
  <speed>0.01414213562373095</speed>
  <fix>3d</fix>
</trkpt>
<trkpt lat="40.072842" lon="-105.230575">
  <ele>1586.09</ele>
  <time>2026-08-27T18:27:09Z</time>
  <course>264.19</course>
  <speed>0.0</speed>
  <fix>3d</fix>
</trkpt>
<trkpt lat="40.0728419" lon="-105.2305749">
  <ele>1586.16</ele>
  <time>2026-08-27T18:27:09Z</time>
  <course>6.24</course>
  <speed>0.01414213562373095</speed>
  <fix>3d</fix>
</trkpt>
<trkpt lat="40.072842" lon="-105.230575">
  <ele>1586.09</ele>
  <time>2026-08-27T18:27:09Z</time>
  <course>264.17</course>
  <speed>0.0</speed>
  <fix>3d</fix>
</trkpt>
<trkpt lat="40.0728419" lon="-105.2305749">
  <ele>1586.16</ele>
  <time>2026-08-27T18:27:09Z</time>
  <course>6.22</course>
  <speed>0.01414213562373095</speed>
  <fix>3d</fix>
</trkpt>
<trkpt lat="40.072842" lon="-105.230575">
  <ele>1586.09</ele>
  <time>2026-08-27T18:27:09Z</time>
  <course>264.2</course>
  <speed>0.0</speed>
  <fix>3d</fix>
</trkpt>
<trkpt lat="40.0728419" lon="-105.2305749">
  <ele>1586.15</ele>
  <time>2026-08-27T18:27:09Z</time>
  <course>6.21</course>
  <speed>0.01414213562373095</speed>
  <fix>3d</fix>
</trkpt>
<trkpt lat="40.072842" lon="-105.230575">
  <ele>1586.09</ele>
  <time>2026-08-27T18:27:09Z</time>
  <course>264.53</course>
  <speed>0.0</speed>
  <fix>3d</fix>
</trkpt>
<trkpt lat="40.0728419" lon="-105.2305749">
  <ele>1586.15</ele>
  <time>2026-08-27T18:27:09Z</time>
  <course>6.19</course>
  <speed>0.01414213562373095</speed>
  <fix>3d</fix>
</trkpt>
<trkpt lat="40.072842" lon="-105.230575">
  <ele>1586.09</ele>
  <time>2026-08-27T18:27:09Z</time>
  <course>264.49</course>
  <speed>0.0</speed>
  <fix>3d</fix>
</trkpt>
<trkpt lat="40.0728419" lon="-105.2305749">
  <ele>1586.15</ele>
  <time>2026-08-27T18:27:09Z</time>
  <course>6.17</course>
  <speed>0.01414213562373095</speed>
  <fix>3d</fix>
</trkpt>
<trkpt lat="40.072842" lon="-105.230575">
  <ele>1586.09</ele>
  <time>2026-08-27T18:27:09Z</time>
  <course>264.03</course>
  <speed>0.0</speed>
  <fix>3d</fix>
</trkpt>
<trkpt lat="40.0728419" lon="-105.2305749">
  <ele>1586.15</ele>
  <time>2026-08-27T18:27:09Z</time>
  <course>6.15</course>
  <speed>0.01414213562373095</speed>
  <fix>3d</fix>
</trkpt>
<trkpt lat="40.072842" lon="-105.230575">
  <ele>1586.09</ele>
  <time>2026-08-27T18:27:09Z</time>
  <course>264.09</course>
  <speed>0.0</speed>
  <fix>3d</fix>
</trkpt>
<trkpt lat="40.0728419" lon="-105.2305749">
  <ele>1586.15</ele>
  <time>2026-08-27T18:27:09Z</time>
  <course>6.13</course>
  <speed>0.01414213562373095</speed>
  <fix>3d</fix>
</trkpt>
<trkpt lat="40.072842" lon="-105.230575">
  <ele>1586.09</ele>
  <time>2026-08-27T18:27:09Z</time>
  <course>264.15</course>
  <speed>0.0</speed>
  <fix>3d</fix>
</trkpt>
<trkpt lat="40.0728419" lon="-105.2305749">
  <ele>1586.15</ele>
  <time>2026-08-27T18:27:09Z</time>
  <course>6.12</course>
  <speed>0.01414213562373095</speed>
  <fix>3d</fix>
</trkpt>
<trkpt lat="40.072842" lon="-105.230575">
  <ele>1586.09</ele>
  <time>2026-08-27T18:27:09Z</time>
  <course>264.12</course>
  <speed>0.0</speed>
  <fix>3d</fix>
</trkpt>
<trkpt lat="40.0728419" lon="-105.2305749">
  <ele>1586.15</ele>
  <time>2026-08-27T18:27:09Z</time>
  <course>6.1</course>
  <speed>0.01414213562373095</speed>
  <fix>3d</fix>
</trkpt>
<trkpt lat="40.072842" lon="-105.230575">
  <ele>1586.09</ele>
  <time>2026-08-27T18:27:09Z</time>
  <course>264.09</course>
  <speed>0.0</speed>
  <fix>3d</fix>
</trkpt>
<trkpt lat="40.0728419" lon="-105.2305749">
  <ele>1586.15</ele>
  <time>2026-08-27T18:27:09Z</time>
  <course>6.08</course>
  <speed>0.01414213562373095</speed>
  <fix>3d</fix>
</trkpt>
<trkpt lat="40.072842" lon="-105.230575">
  <ele>1586.09</ele>
  <time>2026-08-27T18:27:09Z</time>
  <course>264.48</course>
  <speed>0.0</speed>
  <fix>3d</fix>
</trkpt>
<trkpt lat="40.0728419" lon="-105.2305749">
  <ele>1586.15</ele>
  <time>2026-08-27T18:27:09Z</time>
  <course>6.06</course>
  <speed>0.01414213562373095</speed>
  <fix>3d</fix>
</trkpt>
<trkpt lat="40.072842" lon="-105.230575">
  <ele>1586.09</ele>
  <time>2026-08-27T18:27:09Z</time>
  <course>264.5</course>
  <speed>0.0</speed>
  <fix>3d</fix>
</trkpt>
<trkpt lat="40.0728419" lon="-105.2305749">
  <ele>1586.15</ele>
  <time>2026-08-27T18:27:09Z</time>
  <course>6.05</course>
  <speed>0.01414213562373095</speed>
  <fix>3d</fix>
</trkpt>
<trkpt lat="40.072842" lon="-105.230575">
  <ele>1586.09</ele>
  <time>2026-08-27T18:27:09Z</time>
  <course>264.06</course>
  <speed>0.0</speed>
  <fix>3d</fix>
</trkpt>
<trkpt lat="40.0728419" lon="-105.2305749">
  <ele>1586.15</ele>
  <time>2026-08-27T18:27:09Z</time>
  <course>6.03</course>
  <speed>0.01414213562373095</speed>
  <fix>3d</fix>
</trkpt>
<trkpt lat="40.072842" lon="-105.230575">
  <ele>1586.09</ele>
  <time>2026-08-27T18:27:09Z</time>
  <course>264.01</course>
  <speed>0.0</speed>
  <fix>3d</fix>
</trkpt>
<trkpt lat="40.0728419" lon="-105.2305749">
  <ele>1586.15</ele>
  <time>2026-08-27T18:27:09Z</time>
  <course>6.02</course>
  <speed>0.01414213562373095</speed>
  <fix>3d</fix>
</trkpt>
<trkpt lat="40.072842" lon="-105.230575">
  <ele>1586.09</ele>
  <time>2026-08-27T18:27:09Z</time>
  <course>264.1</course>
  <speed>0.0</speed>
  <fix>3d</fix>
</trkpt>
<trkpt lat="40.0728419" lon="-105.2305749">
  <ele>1586.15</ele>
  <time>2026-08-27T18:27:09Z</time>
  <course>6.0</course>
  <speed>0.01414213562373095</speed>
  <fix>3d</fix>
</trkpt>
<trkpt lat="40.072842" lon="-105.230575">
  <ele>1586.09</ele>
  <time>2026-08-27T18:27:09Z</time>
  <course>264.07</course>
  <speed>0.0</speed>
  <fix>3d</fix>
</trkpt>
<trkpt lat="40.0728419" lon="-105.2305749">
  <ele>1586.15</ele>
  <time>2026-08-27T18:27:09Z</time>
  <course>5.98</course>
  <speed>0.01414213562373095</speed>
  <fix>3d</fix>
</trkpt>
<trkpt lat="40.072842" lon="-105.230575">
  <ele>1586.09</ele>
  <time>2026-08-27T18:27:09Z</time>
  <course>264.05</course>
  <speed>0.0</speed>
  <fix>3d</fix>
</trkpt>
<trkpt lat="40.0728419" lon="-105.2305749">
  <ele>1586.15</ele>
  <time>2026-08-27T18:27:09Z</time>
  <course>5.97</course>
  <speed>0.01414213562373095</speed>
  <fix>3d</fix>
</trkpt>
<trkpt lat="40.072842" lon="-105.230575">
  <ele>1586.09</ele>
  <time>2026-08-27T18:27:09Z</time>
  <course>264.04</course>
  <speed>0.0</speed>
  <fix>3d</fix>
</trkpt>
<trkpt lat="40.0728419" lon="-105.2305749">
  <ele>1586.15</ele>
  <time>2026-08-27T18:27:09Z</time>
  <course>5.95</course>
  <speed>0.01414213562373095</speed>
  <fix>3d</fix>
</trkpt>
<trkpt lat="40.072842" lon="-105.230575">
  <ele>1586.09</ele>
  <time>2026-08-27T18:27:09Z</time>
  <course>264.21</course>
  <speed>0.0</speed>
  <fix>3d</fix>
</trkpt>
<trkpt lat="40.0728419" lon="-105.2305749">
  <ele>1586.15</ele>
  <time>2026-08-27T18:27:09Z</time>
  <course>5.93</course>
  <speed>0.01414213562373095</speed>
  <fix>3d</fix>
</trkpt>
<trkpt lat="40.072842" lon="-105.230575">
  <ele>1586.09</ele>
  <time>2026-08-27T18:27:09Z</time>
  <course>264.4</course>
  <speed>0.0</speed>
  <fix>3d</fix>
</trkpt>
<trkpt lat="40.0728419" lon="-105.2305749">
  <ele>1586.16</ele>
  <time>2026-08-27T18:27:09Z</time>
  <course>5.92</course>
  <speed>0.01414213562373095</speed>
  <fix>3d</fix>
</trkpt>
<trkpt lat="40.072842" lon="-105.230575">
  <ele>1586.09</ele>
  <time>2026-08-27T18:27:09Z</time>
  <course>264.27</course>
  <speed>0.0</speed>
  <fix>3d</fix>
</trkpt>
<trkpt lat="40.0728419" lon="-105.2305749">
  <ele>1586.16</ele>
  <time>2026-08-27T18:27:09Z</time>
  <course>5.9</course>
  <speed>0.01414213562373095</speed>
  <fix>3d</fix>
</trkpt>
<trkpt lat="40.072842" lon="-105.230575">
  <ele>1586.09</ele>
  <time>2026-08-27T18:27:09Z</time>
  <course>263.92</course>
  <speed>0.0</speed>
  <fix>3d</fix>
</trkpt>
<trkpt lat="40.0728419" lon="-105.2305749">
  <ele>1586.16</ele>
  <time>2026-08-27T18:27:09Z</time>
  <course>5.89</course>
  <speed>0.01414213562373095</speed>
  <fix>3d</fix>
</trkpt>
<trkpt lat="40.072842" lon="-105.230575">
  <ele>1586.09</ele>
  <time>2026-08-27T18:27:09Z</time>
  <course>264.0</course>
  <speed>0.0</speed>
  <fix>3d</fix>
</trkpt>
<trkpt lat="40.0728419" lon="-105.2305749">
  <ele>1586.16</ele>
  <time>2026-08-27T18:27:09Z</time>
  <course>5.87</course>
  <speed>0.01414213562373095</speed>
  <fix>3d</fix>
</trkpt>
<trkpt lat="40.072842" lon="-105.230575">
  <ele>1586.09</ele>
  <time>2026-08-27T18:27:09Z</time>
  <course>264.04</course>
  <speed>0.0</speed>
  <fix>3d</fix>
</trkpt>
<trkpt lat="40.0728419" lon="-105.2305749">
  <ele>1586.15</ele>
  <time>2026-08-27T18:27:09Z</time>
  <course>5.86</course>
  <speed>0.01414213562373095</speed>
  <fix>3d</fix>
</trkpt>
<trkpt lat="40.072842" lon="-105.230575">
  <ele>1586.09</ele>
  <time>2026-08-27T18:27:09Z</time>
  <course>264.01</course>
  <speed>0.0</speed>
  <fix>3d</fix>
</trkpt>
<trkpt lat="40.0728419" lon="-105.2305749">
  <ele>1586.15</ele>
  <time>2026-08-27T18:27:09Z</time>
  <course>5.84</course>
  <speed>0.01414213562373095</speed>
  <fix>3d</fix>
</trkpt>
<trkpt lat="40.072842" lon="-105.230575">
  <ele>1586.09</ele>
  <time>2026-08-27T18:27:09Z</time>
  <course>263.99</course>
  <speed>0.0</speed>
  <fix>3d</fix>
</trkpt>
<trkpt lat="40.0728419" lon="-105.2305749">
  <ele>1586.15</ele>
  <time>2026-08-27T18:27:09Z</time>
  <course>5.83</course>
  <speed>0.01414213562373095</speed>
  <fix>3d</fix>
</trkpt>
<trkpt lat="40.072842" lon="-105.230575">
  <ele>1586.09</ele>
  <time>2026-08-27T18:27:09Z</time>
  <course>263.98</course>
  <speed>0.0</speed>
  <fix>3d</fix>
</trkpt>
<trkpt lat="40.0728419" lon="-105.2305749">
  <ele>1586.15</ele>
  <time>2026-08-27T18:27:09Z</time>
  <course>5.81</course>
  <speed>0.01414213562373095</speed>
  <fix>3d</fix>
</trkpt>
<trkpt lat="40.072842" lon="-105.230575">
  <ele>1586.09</ele>
  <time>2026-08-27T18:27:09Z</time>
  <course>264.29</course>
  <speed>0.0</speed>
  <fix>3d</fix>
</trkpt>
<trkpt lat="40.0728419" lon="-105.2305749">
  <ele>1586.15</ele>
  <time>2026-08-27T18:27:09Z</time>
  <course>5.8</course>
  <speed>0.01414213562373095</speed>
  <fix>3d</fix>
</trkpt>
<trkpt lat="40.072842" lon="-105.230575">
  <ele>1586.09</ele>
  <time>2026-08-27T18:27:09Z</time>
  <course>264.35</course>
  <speed>0.0</speed>
  <fix>3d</fix>
</trkpt>
<trkpt lat="40.0728419" lon="-105.2305749">
  <ele>1586.15</ele>
  <time>2026-08-27T18:27:09Z</time>
  <course>5.78</course>
  <speed>0.01414213562373095</speed>
  <fix>3d</fix>
</trkpt>
<trkpt lat="40.072842" lon="-105.230575">
  <ele>1586.09</ele>
  <time>2026-08-27T18:27:09Z</time>
  <course>264.05</course>
  <speed>0.0</speed>
  <fix>3d</fix>
</trkpt>
<trkpt lat="40.0728419" lon="-105.2305749">
  <ele>1586.15</ele>
  <time>2026-08-27T18:27:09Z</time>
  <course>5.77</course>
  <speed>0.01414213562373095</speed>
  <fix>3d</fix>
</trkpt>
<trkpt lat="40.072842" lon="-105.230575">
  <ele>1586.09</ele>
  <time>2026-08-27T18:27:09Z</time>
  <course>263.88</course>
  <speed>0.0</speed>
  <fix>3d</fix>
</trkpt>
<trkpt lat="40.0728419" lon="-105.2305749">
  <ele>1586.15</ele>
  <time>2026-08-27T18:27:09Z</time>
  <course>5.75</course>
  <speed>0.01414213562373095</speed>
  <fix>3d</fix>
</trkpt>
<trkpt lat="40.072842" lon="-105.230575">
  <ele>1586.09</ele>
  <time>2026-08-27T18:27:09Z</time>
  <course>263.97</course>
  <speed>0.0</speed>
  <fix>3d</fix>
</trkpt>
<trkpt lat="40.0728419" lon="-105.2305749">
  <ele>1586.15</ele>
  <time>2026-08-27T18:27:09Z</time>
  <course>5.74</course>
  <speed>0.01414213562373095</speed>
  <fix>3d</fix>
</trkpt>
<trkpt lat="40.072842" lon="-105.230575">
  <ele>1586.09</ele>
  <time>2026-08-27T18:27:09Z</time>
  <course>263.97</course>
  <speed>0.0</speed>
  <fix>3d</fix>
</trkpt>
<trkpt lat="40.0728419" lon="-105.2305749">
  <ele>1586.15</ele>
  <time>2026-08-27T18:27:09Z</time>
  <course>5.72</course>
  <speed>0.01414213562373095</speed>
  <fix>3d</fix>
</trkpt>
<trkpt lat="40.072842" lon="-105.230575">
  <ele>1586.09</ele>
  <time>2026-08-27T18:27:09Z</time>
  <course>264.25</course>
  <speed>0.0</speed>
  <fix>3d</fix>
</trkpt>
<trkpt lat="40.0728419" lon="-105.2305749">
  <ele>1586.15</ele>
  <time>2026-08-27T18:27:09Z</time>
  <course>5.71</course>
  <speed>0.01414213562373095</speed>
  <fix>3d</fix>
</trkpt>
<trkpt lat="40.072842" lon="-105.230575">
  <ele>1586.09</ele>
  <time>2026-08-27T18:27:09Z</time>
  <course>264.39</course>
  <speed>0.0</speed>
  <fix>3d</fix>
</trkpt>
<trkpt lat="40.0728419" lon="-105.2305749">
  <ele>1586.14</ele>
  <time>2026-08-27T18:27:09Z</time>
  <course>5.7</course>
  <speed>0.01414213562373095</speed>
  <fix>3d</fix>
</trkpt>
<trkpt lat="40.072842" lon="-105.230575">
  <ele>1586.09</ele>
  <time>2026-08-27T18:27:09Z</time>
  <course>264.39</course>
  <speed>0.0</speed>
  <fix>3d</fix>
</trkpt>
<trkpt lat="40.0728419" lon="-105.2305749">
  <ele>1586.14</ele>
  <time>2026-08-27T18:27:09Z</time>
  <course>5.69</course>
  <speed>0.01414213562373095</speed>
  <fix>3d</fix>
</trkpt>
<trkpt lat="40.072842" lon="-105.230575">
  <ele>1586.09</ele>
  <time>2026-08-27T18:27:09Z</time>
  <course>265.24</course>
  <speed>0.0</speed>
  <fix>3d</fix>
</trkpt>
<trkpt lat="40.0728419" lon="-105.2305749">
  <ele>1586.14</ele>
  <time>2026-08-27T18:27:09Z</time>
  <course>5.68</course>
  <speed>0.01414213562373095</speed>
  <fix>3d</fix>
</trkpt>
<trkpt lat="40.072842" lon="-105.230575">
  <ele>1586.09</ele>
  <time>2026-08-27T18:27:09Z</time>
  <course>264.06</course>
  <speed>0.0</speed>
  <fix>3d</fix>
</trkpt>
<trkpt lat="40.0728419" lon="-105.2305749">
  <ele>1586.16</ele>
  <time>2026-08-27T18:27:09Z</time>
  <course>5.64</course>
  <speed>0.01414213562373095</speed>
  <fix>3d</fix>
</trkpt>
<trkpt lat="40.072842" lon="-105.230575">
  <ele>1586.09</ele>
  <time>2026-08-27T18:27:09Z</time>
  <course>263.77</course>
  <speed>0.0</speed>
  <fix>3d</fix>
</trkpt>
<trkpt lat="40.0728419" lon="-105.2305749">
  <ele>1586.24</ele>
  <time>2026-08-27T18:27:09Z</time>
  <course>5.56</course>
  <speed>0.01414213562373095</speed>
  <fix>3d</fix>
</trkpt>
<trkpt lat="40.072842" lon="-105.230575">
  <ele>1586.13</ele>
  <time>2026-08-27T18:27:09Z</time>
  <course>266.11</course>
  <speed>0.0</speed>
  <fix>3d</fix>
</trkpt>
<trkpt lat="40.0728419" lon="-105.2305749">
  <ele>1586.31</ele>
  <time>2026-08-27T18:27:09Z</time>
  <course>3.07</course>
  <speed>0.01414213562373095</speed>
  <fix>3d</fix>
</trkpt>
<trkpt lat="40.072842" lon="-105.2305751">
  <ele>1586.2</ele>
  <time>2026-08-27T18:27:09Z</time>
  <course>268.39</course>
  <speed>0.0</speed>
  <fix>3d</fix>
</trkpt>
<trkpt lat="40.0728419" lon="-105.2305751">
  <ele>1586.57</ele>
  <time>2026-08-27T18:27:09Z</time>
  <course>358.34</course>
  <speed>0.18110770276274835</speed>
  <fix>3d</fix>
</trkpt>
<trkpt lat="40.072842" lon="-105.2305751">
  <ele>1586.33</ele>
  <time>2026-08-27T18:27:09Z</time>
  <course>260.43</course>
  <speed>0.07</speed>
  <fix>3d</fix>
</trkpt>
<trkpt lat="40.0728419" lon="-105.2305752">
  <ele>1586.63</ele>
  <time>2026-08-27T18:27:09Z</time>
  <course>357.91</course>
  <speed>0.2009975124224178</speed>
  <fix>3d</fix>
</trkpt>
<trkpt lat="40.0728419" lon="-105.2305757">
  <ele>1586.99</ele>
  <time>2026-08-27T18:27:09Z</time>
  <course>356.14</course>
  <speed>0.29274562336608895</speed>
  <fix>3d</fix>
</trkpt>
<trkpt lat="40.0728419" lon="-105.2305754">
  <ele>1586.62</ele>
  <time>2026-08-27T18:27:09Z</time>
  <course>257.94</course>
  <speed>0.21</speed>
  <fix>3d</fix>
</trkpt>
<trkpt lat="40.0728419" lon="-105.2305759">
  <ele>1587.06</ele>
  <time>2026-08-27T18:27:09Z</time>
  <course>355.91</course>
  <speed>0.3125699921617557</speed>
  <fix>3d</fix>
</trkpt>
<trkpt lat="40.0728418" lon="-105.2305765">
  <ele>1587.42</ele>
  <time>2026-08-27T18:27:09Z</time>
  <course>355.05</course>
  <speed>0.366742416417845</speed>
  <fix>3d</fix>
</trkpt>
<trkpt lat="40.0728418" lon="-105.230576">
  <ele>1587.02</ele>
  <time>2026-08-27T18:27:09Z</time>
  <course>254.83</course>
  <speed>0.32</speed>
  <fix>3d</fix>
</trkpt>
<trkpt lat="40.0728418" lon="-105.2305766">
  <ele>1587.43</ele>
  <time>2026-08-27T18:27:09Z</time>
  <course>355.03</course>
  <speed>0.366742416417845</speed>
  <fix>3d</fix>
</trkpt>
<trkpt lat="40.0728416" lon="-105.2305775">
  <ele>1587.88</ele>
  <time>2026-08-27T18:27:09Z</time>
  <course>354.61</course>
  <speed>0.4220189569201838</speed>
  <fix>3d</fix>
</trkpt>
<trkpt lat="40.0728417" lon="-105.2305769">
  <ele>1587.46</ele>
  <time>2026-08-27T18:27:09Z</time>
  <course>251.55</course>
  <speed>0.39</speed>
  <fix>3d</fix>
</trkpt>
<trkpt lat="40.0728415" lon="-105.2305777">
  <ele>1587.97</ele>
  <time>2026-08-27T18:27:09Z</time>
  <course>354.57</course>
  <speed>0.42449970553582245</speed>
  <fix>3d</fix>
</trkpt>
<trkpt lat="40.0728413" lon="-105.2305785">
  <ele>1588.37</ele>
  <time>2026-08-27T18:27:09Z</time>
  <course>354.54</course>
  <speed>0.4617358552246078</speed>
  <fix>3d</fix>
</trkpt>
<trkpt lat="40.0728414" lon="-105.2305778">
  <ele>1587.92</ele>
  <time>2026-08-27T18:27:09Z</time>
  <course>248.33</course>
  <speed>0.44</speed>
  <fix>3d</fix>
</trkpt>
<trkpt lat="40.0728413" lon="-105.2305786">
  <ele>1588.46</ele>
  <time>2026-08-27T18:27:09Z</time>
  <course>354.56</course>
  <speed>0.46486557196677836</speed>
  <fix>3d</fix>
</trkpt>
<trkpt lat="40.072841" lon="-105.2305795">
  <ele>1588.88</ele>
  <time>2026-08-27T18:27:09Z</time>
  <course>354.72</course>
  <speed>0.48466483264210536</speed>
  <fix>3d</fix>
</trkpt>
<trkpt lat="40.0728411" lon="-105.2305787">
  <ele>1588.4</ele>
  <time>2026-08-27T18:27:09Z</time>
  <course>245.38</course>
  <speed>0.47</speed>
  <fix>3d</fix>
</trkpt>
<trkpt lat="40.0728409" lon="-105.2305797">
  <ele>1588.96</ele>
  <time>2026-08-27T18:27:09Z</time>
  <course>354.77</course>
  <speed>0.4939635614091387</speed>
  <fix>3d</fix>
</trkpt>
<trkpt lat="40.0728406" lon="-105.2305806">
  <ele>1589.4</ele>
  <time>2026-08-27T18:27:09Z</time>
  <course>353.35</course>
  <speed>0.5056678751908212</speed>
  <fix>3d</fix>
</trkpt>
<trkpt lat="40.0728407" lon="-105.2305798">
  <ele>1588.9</ele>
  <time>2026-08-27T18:27:09Z</time>
  <course>242.82</course>
  <speed>0.5</speed>
  <fix>3d</fix>
</trkpt>
<trkpt lat="40.0728405" lon="-105.2305808">
  <ele>1589.48</ele>
  <time>2026-08-27T18:27:09Z</time>
  <course>353.34</course>
  <speed>0.5189412298131648</speed>
  <fix>3d</fix>
</trkpt>
<trkpt lat="40.0728401" lon="-105.2305817">
  <ele>1589.92</ele>
  <time>2026-08-27T18:27:09Z</time>
  <course>353.58</course>
  <speed>0.5323532661682466</speed>
  <fix>3d</fix>
</trkpt>
<trkpt lat="40.0728402" lon="-105.2305809">
  <ele>1589.4</ele>
  <time>2026-08-27T18:27:09Z</time>
  <course>240.65</course>
  <speed>0.52</speed>
  <fix>3d</fix>
</trkpt>
<trkpt lat="40.07284" lon="-105.2305818">
  <ele>1589.99</ele>
  <time>2026-08-27T18:27:09Z</time>
  <course>353.64</course>
  <speed>0.5323532661682466</speed>
  <fix>3d</fix>
</trkpt>
<trkpt lat="40.0728395" lon="-105.2305828">
  <ele>1590.44</ele>
  <time>2026-08-27T18:27:09Z</time>
  <course>354.15</course>
  <speed>0.5556977595779922</speed>
  <fix>3d</fix>
</trkpt>
<trkpt lat="40.0728397" lon="-105.230582">
  <ele>1589.92</ele>
  <time>2026-08-27T18:27:09Z</time>
  <course>238.89</course>
  <speed>0.54</speed>
  <fix>3d</fix>
</trkpt>
<trkpt lat="40.0728395" lon="-105.2305829">
  <ele>1590.52</ele>
  <time>2026-08-27T18:27:09Z</time>
  <course>354.24</course>
  <speed>0.5556977595779922</speed>
  <fix>3d</fix>
</trkpt>
<trkpt lat="40.072839" lon="-105.2305839">
  <ele>1590.97</ele>
  <time>2026-08-27T18:27:09Z</time>
  <course>354.73</course>
  <speed>0.5798275605729689</speed>
  <fix>3d</fix>
</trkpt>
<trkpt lat="40.0728392" lon="-105.2305831">
  <ele>1590.44</ele>
  <time>2026-08-27T18:27:09Z</time>
  <course>237.54</course>
  <speed>0.56</speed>
  <fix>3d</fix>
</trkpt>
<trkpt lat="40.0728389" lon="-105.2305841">
  <ele>1591.05</ele>
  <time>2026-08-27T18:27:09Z</time>
  <course>354.81</course>
  <speed>0.5798275605729689</speed>
  <fix>3d</fix>
</trkpt>
<trkpt lat="40.0728384" lon="-105.230585">
  <ele>1591.51</ele>
  <time>2026-08-27T18:27:09Z</time>
  <course>355.3</course>
  <speed>0.5907622195096772</speed>
  <fix>3d</fix>
</trkpt>
<trkpt lat="40.0728386" lon="-105.2305843">
  <ele>1590.96</ele>
  <time>2026-08-27T18:27:09Z</time>
  <course>236.54</course>
  <speed>0.58</speed>
  <fix>3d</fix>
</trkpt>
<trkpt lat="40.0728383" lon="-105.2305852">
  <ele>1591.58</ele>
  <time>2026-08-27T18:27:09Z</time>
  <course>355.38</course>
  <speed>0.604648658313239</speed>
  <fix>3d</fix>
</trkpt>
<trkpt lat="40.0728377" lon="-105.2305862">
  <ele>1592.02</ele>
  <time>2026-08-27T18:27:09Z</time>
  <course>357.85</course>
  <speed>0.6185466837676846</speed>
  <fix>3d</fix>
</trkpt>
<trkpt lat="40.0728381" lon="-105.2305854">
  <ele>1591.48</ele>
  <time>2026-08-27T18:27:09Z</time>
  <course>235.92</course>
  <speed>0.6</speed>
  <fix>3d</fix>
</trkpt>
<trkpt lat="40.0728371" lon="-105.2305874">
  <ele>1592.37</ele>
  <time>2026-08-27T18:27:09Z</time>
  <course>1.09</course>
  <speed>0.6021627686929839</speed>
  <fix>3d</fix>
</trkpt>
<trkpt lat="40.0728374" lon="-105.2305866">
  <ele>1591.95</ele>
  <time>2026-08-27T18:27:09Z</time>
  <course>235.67</course>
  <speed>0.6</speed>
  <fix>3d</fix>
</trkpt>
<trkpt lat="40.0728364" lon="-105.2305885">
  <ele>1592.61</ele>
  <time>2026-08-27T18:27:09Z</time>
  <course>2.96</course>
  <speed>0.5860034129593444</speed>
  <fix>3d</fix>
</trkpt>
<trkpt lat="40.0728369" lon="-105.2305878">
  <ele>1592.28</ele>
  <time>2026-08-27T18:27:09Z</time>
  <course>235.46</course>
  <speed>0.6</speed>
  <fix>3d</fix>
</trkpt>
<trkpt lat="40.0728358" lon="-105.2305896">
  <ele>1592.77</ele>
  <time>2026-08-27T18:27:09Z</time>
  <course>3.92</course>
  <speed>0.570087712549569</speed>
  <fix>3d</fix>
</trkpt>
<trkpt lat="40.0728362" lon="-105.2305889">
  <ele>1592.49</ele>
  <time>2026-08-27T18:27:09Z</time>
  <course>235.03</course>
  <speed>0.58</speed>
  <fix>3d</fix>
</trkpt>
<trkpt lat="40.0728352" lon="-105.2305907">
  <ele>1592.87</ele>
  <time>2026-08-27T18:27:09Z</time>
  <course>4.37</course>
  <speed>0.5467174773134658</speed>
  <fix>3d</fix>
</trkpt>
<trkpt lat="40.0728357" lon="-105.23059">
  <ele>1592.63</ele>
  <time>2026-08-27T18:27:09Z</time>
  <course>234.47</course>
  <speed>0.56</speed>
  <fix>3d</fix>
</trkpt>
<trkpt lat="40.0728346" lon="-105.2305916">
  <ele>1592.93</ele>
  <time>2026-08-27T18:27:09Z</time>
  <course>4.61</course>
  <speed>0.5249761899362675</speed>
  <fix>3d</fix>
</trkpt>
<trkpt lat="40.072835" lon="-105.2305911">
  <ele>1592.71</ele>
  <time>2026-08-27T18:27:09Z</time>
  <course>233.8</course>
  <speed>0.54</speed>
  <fix>3d</fix>
</trkpt>
<trkpt lat="40.0728341" lon="-105.2305926">
  <ele>1592.97</ele>
  <time>2026-08-27T18:27:09Z</time>
  <course>4.77</course>
  <speed>0.5024937810560445</speed>
  <fix>3d</fix>
</trkpt>
<trkpt lat="40.0728345" lon="-105.2305921">
  <ele>1592.77</ele>
  <time>2026-08-27T18:27:09Z</time>
  <course>233.03</course>
  <speed>0.51</speed>
  <fix>3d</fix>
</trkpt>
<trkpt lat="40.0728335" lon="-105.2305935">
  <ele>1592.99</ele>
  <time>2026-08-27T18:27:09Z</time>
  <course>4.87</course>
  <speed>0.48104053883222775</speed>
  <fix>3d</fix>
</trkpt>
<trkpt lat="40.0728339" lon="-105.230593">
  <ele>1592.8</ele>
  <time>2026-08-27T18:27:09Z</time>
  <course>232.16</course>
  <speed>0.49</speed>
  <fix>3d</fix>
</trkpt>
<trkpt lat="40.072833" lon="-105.2305943">
  <ele>1593.01</ele>
  <time>2026-08-27T18:27:09Z</time>
  <course>4.9</course>
  <speed>0.4525483399593904</speed>
  <fix>3d</fix>
</trkpt>
<trkpt lat="40.0728334" lon="-105.2305939">
  <ele>1592.83</ele>
  <time>2026-08-27T18:27:09Z</time>
  <course>231.29</course>
  <speed>0.47</speed>
  <fix>3d</fix>
</trkpt>
<trkpt lat="40.0728325" lon="-105.2305951">
  <ele>1593.02</ele>
  <time>2026-08-27T18:27:09Z</time>
  <course>5.01</course>
  <speed>0.40311288741492746</speed>
  <fix>3d</fix>
</trkpt>
<trkpt lat="40.0728329" lon="-105.2305947">
  <ele>1592.84</ele>
  <time>2026-08-27T18:27:09Z</time>
  <course>230.69</course>
  <speed>0.43</speed>
  <fix>3d</fix>
</trkpt>
<trkpt lat="40.072832" lon="-105.2305958">
  <ele>1593.03</ele>
  <time>2026-08-27T18:27:09Z</time>
  <course>5.17</course>
  <speed>0.3397057550292606</speed>
  <fix>3d</fix>
</trkpt>
<trkpt lat="40.0728324" lon="-105.2305955">
  <ele>1592.85</ele>
  <time>2026-08-27T18:27:09Z</time>
  <course>230.87</course>
  <speed>0.38</speed>
  <fix>3d</fix>
</trkpt>
<trkpt lat="40.0728317" lon="-105.2305963">
  <ele>1593.03</ele>
  <time>2026-08-27T18:27:09Z</time>
  <course>5.29</course>
  <speed>0.27586228448267447</speed>
  <fix>3d</fix>
</trkpt>
<trkpt lat="40.072832" lon="-105.2305961">
  <ele>1592.86</ele>
  <time>2026-08-27T18:27:09Z</time>
  <course>232.34</course>
  <speed>0.32</speed>
  <fix>3d</fix>
</trkpt>
<trkpt lat="40.0728314" lon="-105.2305968">
  <ele>1593.02</ele>
  <time>2026-08-27T18:27:09Z</time>
  <course>5.36</course>
  <speed>0.20518284528683192</speed>
  <fix>3d</fix>
</trkpt>
<trkpt lat="40.0728317" lon="-105.2305967">
  <ele>1592.86</ele>
  <time>2026-08-27T18:27:09Z</time>
  <course>235.53</course>
  <speed>0.26</speed>
  <fix>3d</fix>
</trkpt>
<trkpt lat="40.0728313" lon="-105.2305972">
  <ele>1593.0</ele>
  <time>2026-08-27T18:27:09Z</time>
  <course>5.45</course>
  <speed>0.15556349186104046</speed>
  <fix>3d</fix>
</trkpt>
<trkpt lat="40.0728315" lon="-105.2305971">
  <ele>1592.85</ele>
  <time>2026-08-27T18:27:09Z</time>
  <course>240.89</course>
  <speed>0.2</speed>
  <fix>3d</fix>
</trkpt>
<trkpt lat="40.0728312" lon="-105.2305975">
  <ele>1592.98</ele>
  <time>2026-08-27T18:27:09Z</time>
  <course>5.52</course>
  <speed>0.09899494936611665</speed>
  <fix>3d</fix>
</trkpt>
<trkpt lat="40.0728313" lon="-105.2305975">
  <ele>1592.83</ele>
  <time>2026-08-27T18:27:09Z</time>
  <course>248.86</course>
  <speed>0.15</speed>
  <fix>3d</fix>
</trkpt>
<trkpt lat="40.0728312" lon="-105.2305977">
  <ele>1592.96</ele>
  <time>2026-08-27T18:27:09Z</time>
  <course>5.58</course>
  <speed>0.0565685424949238</speed>
  <fix>3d</fix>
</trkpt>
<trkpt lat="40.0728313" lon="-105.2305978">
  <ele>1592.82</ele>
  <time>2026-08-27T18:27:09Z</time>
  <course>260.36</course>
  <speed>0.11</speed>
  <fix>3d</fix>
</trkpt>
<trkpt lat="40.0728312" lon="-105.2305979">
  <ele>1592.95</ele>
  <time>2026-08-27T18:27:09Z</time>
  <course>5.6</course>
  <speed>0.01</speed>
  <fix>3d</fix>
</trkpt>
<trkpt lat="40.0728313" lon="-105.2305981">
  <ele>1592.8</ele>
  <time>2026-08-27T18:27:09Z</time>
  <course>280.02</course>
  <speed>0.07</speed>
  <fix>3d</fix>
</trkpt>
<trkpt lat="40.0728313" lon="-105.2305979">
  <ele>1592.94</ele>
  <time>2026-08-27T18:27:09Z</time>
  <course>2.84</course>
  <speed>0.09219544457292887</speed>
  <fix>3d</fix>
</trkpt>
<trkpt lat="40.0728313" lon="-105.2305981">
  <ele>1592.78</ele>
  <time>2026-08-27T18:27:09Z</time>
  <course>339.21</course>
  <speed>0.04</speed>
  <fix>3d</fix>
</trkpt>
<trkpt lat="40.0728314" lon="-105.2305978">
  <ele>1592.93</ele>
  <time>2026-08-27T18:27:09Z</time>
  <course>1.47</course>
  <speed>0.147648230602334</speed>
  <fix>3d</fix>
</trkpt>
<trkpt lat="40.0728313" lon="-105.2305981">
  <ele>1592.78</ele>
  <time>2026-08-27T18:27:09Z</time>
  <course>27.76</course>
  <speed>0.09</speed>
  <fix>3d</fix>
</trkpt>
<trkpt lat="40.0728316" lon="-105.2305975">
  <ele>1592.94</ele>
  <time>2026-08-27T18:27:09Z</time>
  <course>1.59</course>
  <speed>0.27294688127912364</speed>
  <fix>3d</fix>
</trkpt>
<trkpt lat="40.0728315" lon="-105.2305979">
  <ele>1592.78</ele>
  <time>2026-08-27T18:27:09Z</time>
  <course>41.99</course>
  <speed>0.18</speed>
  <fix>3d</fix>
</trkpt>
<trkpt lat="40.072832" lon="-105.2305968">
  <ele>1592.94</ele>
  <time>2026-08-27T18:27:09Z</time>
  <course>1.64</course>
  <speed>0.425440947723653</speed>
  <fix>3d</fix>
</trkpt>
<trkpt lat="40.0728319" lon="-105.2305975">
  <ele>1592.78</ele>
  <time>2026-08-27T18:27:09Z</time>
  <course>48.25</course>
  <speed>0.31</speed>
  <fix>3d</fix>
</trkpt>
<trkpt lat="40.0728325" lon="-105.2305959">
  <ele>1592.94</ele>
  <time>2026-08-27T18:27:09Z</time>
  <course>1.56</course>
  <speed>0.574543296888929</speed>
  <fix>3d</fix>
</trkpt>
<trkpt lat="40.0728323" lon="-105.2305969">
  <ele>1592.78</ele>
  <time>2026-08-27T18:27:09Z</time>
  <course>50.06</course>
  <speed>0.46</speed>
  <fix>3d</fix>
</trkpt>
<trkpt lat="40.0728333" lon="-105.2305947">
  <ele>1592.94</ele>
  <time>2026-08-27T18:27:09Z</time>
  <course>1.53</course>
  <speed>0.7240165743959182</speed>
  <fix>3d</fix>
</trkpt>
<trkpt lat="40.0728329" lon="-105.2305959">
  <ele>1592.79</ele>
  <time>2026-08-27T18:27:09Z</time>
  <course>50.51</course>
  <speed>0.62</speed>
  <fix>3d</fix>
</trkpt>
<trkpt lat="40.0728341" lon="-105.2305933">
  <ele>1592.93</ele>
  <time>2026-08-27T18:27:09Z</time>
  <course>1.53</course>
  <speed>0.8431488599292536</speed>
  <fix>3d</fix>
</trkpt>
<trkpt lat="40.0728337" lon="-105.2305947">
  <ele>1592.79</ele>
  <time>2026-08-27T18:27:09Z</time>
  <course>50.6</course>
  <speed>0.76</speed>
  <fix>3d</fix>
</trkpt>
<trkpt lat="40.0728351" lon="-105.2305917">
  <ele>1592.93</ele>
  <time>2026-08-27T18:27:09Z</time>
  <course>1.6</course>
  <speed>0.9347726996441434</speed>
  <fix>3d</fix>
</trkpt>
<trkpt lat="40.0728347" lon="-105.2305931">
  <ele>1592.8</ele>
  <time>2026-08-27T18:27:09Z</time>
  <course>50.8</course>
  <speed>0.88</speed>
  <fix>3d</fix>
</trkpt>
<trkpt lat="40.0728362" lon="-105.2305899">
  <ele>1592.93</ele>
  <time>2026-08-27T18:27:09Z</time>
  <course>1.77</course>
  <speed>0.984733466477097</speed>
  <fix>3d</fix>
</trkpt>
<trkpt lat="40.0728357" lon="-105.2305915">
  <ele>1592.8</ele>
  <time>2026-08-27T18:27:09Z</time>
  <course>51.21</course>
  <speed>0.96</speed>
  <fix>3d</fix>
</trkpt>
<trkpt lat="40.0728374" lon="-105.2305881">
  <ele>1592.94</ele>
  <time>2026-08-27T18:27:09Z</time>
  <course>3.41</course>
  <speed>0.9741663102366043</speed>
  <fix>3d</fix>
</trkpt>
<trkpt lat="40.0728368" lon="-105.2305896">
  <ele>1592.81</ele>
  <time>2026-08-27T18:27:09Z</time>
  <course>51.79</course>
  <speed>1.01</speed>
  <fix>3d</fix>
</trkpt>
<trkpt lat="40.0728385" lon="-105.2305864">
  <ele>1592.94</ele>
  <time>2026-08-27T18:27:09Z</time>
  <course>16.4</course>
  <speed>0.9521029356114811</speed>
  <fix>3d</fix>
</trkpt>
<trkpt lat="40.0728379" lon="-105.2305878">
  <ele>1592.81</ele>
  <time>2026-08-27T18:27:09Z</time>
  <course>51.57</course>
  <speed>0.99</speed>
  <fix>3d</fix>
</trkpt>
<trkpt lat="40.0728396" lon="-105.2305846">
  <ele>1592.95</ele>
  <time>2026-08-27T18:27:09Z</time>
  <course>28.94</course>
  <speed>0.9521029356114811</speed>
  <fix>3d</fix>
</trkpt>
<trkpt lat="40.072839" lon="-105.2305859">
  <ele>1592.82</ele>
  <time>2026-08-27T18:27:09Z</time>
  <course>51.38</course>
  <speed>0.97</speed>
  <fix>3d</fix>
</trkpt>
<trkpt lat="40.0728406" lon="-105.2305828">
  <ele>1592.96</ele>
  <time>2026-08-27T18:27:09Z</time>
  <course>41.23</course>
  <speed>0.9462557793746889</speed>
  <fix>3d</fix>
</trkpt>
<trkpt lat="40.0728401" lon="-105.2305842">
  <ele>1592.83</ele>
  <time>2026-08-27T18:27:09Z</time>
  <course>52.07</course>
  <speed>0.97</speed>
  <fix>3d</fix>
</trkpt>
<trkpt lat="40.0728417" lon="-105.230581">
  <ele>1592.96</ele>
  <time>2026-08-27T18:27:09Z</time>
  <course>52.68</course>
  <speed>0.9596353474106714</speed>
  <fix>3d</fix>
</trkpt>
<trkpt lat="40.0728412" lon="-105.2305824">
  <ele>1592.84</ele>
  <time>2026-08-27T18:27:09Z</time>
  <course>52.86</course>
  <speed>0.97</speed>
  <fix>3d</fix>
</trkpt>
<trkpt lat="40.0728427" lon="-105.2305791">
  <ele>1592.97</ele>
  <time>2026-08-27T18:27:09Z</time>
  <course>52.4</course>
  <speed>0.9588013350011565</speed>
  <fix>3d</fix>
</trkpt>
<trkpt lat="40.0728421" lon="-105.2305805">
  <ele>1592.84</ele>
  <time>2026-08-27T18:27:09Z</time>
  <course>55.95</course>
  <speed>0.97</speed>
  <fix>3d</fix>
</trkpt>
<trkpt lat="40.0728436" lon="-105.2305772">
  <ele>1592.97</ele>
  <time>2026-08-27T18:27:09Z</time>
  <course>52.37</course>
  <speed>0.900499861188218</speed>
  <fix>3d</fix>
</trkpt>
<trkpt lat="40.0728431" lon="-105.2305786">
  <ele>1592.85</ele>
  <time>2026-08-27T18:27:09Z</time>
  <course>58.63</course>
  <speed>0.96</speed>
  <fix>3d</fix>
</trkpt>
<trkpt lat="40.0728444" lon="-105.2305755">
  <ele>1592.97</ele>
  <time>2026-08-27T18:27:09Z</time>
  <course>52.54</course>
  <speed>0.7877182237323191</speed>
  <fix>3d</fix>
</trkpt>
<trkpt lat="40.072844" lon="-105.2305768">
  <ele>1592.85</ele>
  <time>2026-08-27T18:27:09Z</time>
  <course>59.12</course>
  <speed>0.89</speed>
  <fix>3d</fix>
</trkpt>
<trkpt lat="40.072845" lon="-105.230574">
  <ele>1592.97</ele>
  <time>2026-08-27T18:27:09Z</time>
  <course>52.79</course>
  <speed>0.6306346010171024</speed>
  <fix>3d</fix>
</trkpt>
<trkpt lat="40.0728447" lon="-105.2305751">
  <ele>1592.86</ele>
  <time>2026-08-27T18:27:09Z</time>
  <course>60.19</course>
  <speed>0.77</speed>
  <fix>3d</fix>
</trkpt>
<trkpt lat="40.0728455" lon="-105.2305729">
  <ele>1592.97</ele>
  <time>2026-08-27T18:27:09Z</time>
  <course>52.98</course>
  <speed>0.4438468204234429</speed>
  <fix>3d</fix>
</trkpt>
<trkpt lat="40.0728453" lon="-105.2305736">
  <ele>1592.86</ele>
  <time>2026-08-27T18:27:09Z</time>
  <course>62.29</course>
  <speed>0.6</speed>
  <fix>3d</fix>
</trkpt>
<trkpt lat="40.0728457" lon="-105.2305721">
  <ele>1592.97</ele>
  <time>2026-08-27T18:27:09Z</time>
  <course>53.09</course>
  <speed>0.23194827009486402</speed>
  <fix>3d</fix>
</trkpt>
<trkpt lat="40.0728457" lon="-105.2305725">
  <ele>1592.86</ele>
  <time>2026-08-27T18:27:09Z</time>
  <course>67.36</course>
  <speed>0.4</speed>
  <fix>3d</fix>
</trkpt>
<trkpt lat="40.0728457" lon="-105.2305717">
  <ele>1592.97</ele>
  <time>2026-08-27T18:27:09Z</time>
  <course>53.17</course>
  <speed>0.11401754250991379</speed>
  <fix>3d</fix>
</trkpt>
<trkpt lat="40.0728459" lon="-105.2305718">
  <ele>1592.86</ele>
  <time>2026-08-27T18:27:09Z</time>
  <course>84.0</course>
  <speed>0.2</speed>
  <fix>3d</fix>
</trkpt>
<trkpt lat="40.0728454" lon="-105.2305717">
  <ele>1592.96</ele>
  <time>2026-08-27T18:27:09Z</time>
  <course>53.17</course>
  <speed>0.21840329667841554</speed>
  <fix>3d</fix>
</trkpt>
<trkpt lat="40.0728459" lon="-105.2305715">
  <ele>1592.86</ele>
  <time>2026-08-27T18:27:09Z</time>
  <course>156.43</course>
  <speed>0.11</speed>
  <fix>3d</fix>
</trkpt>
<trkpt lat="40.0728451" lon="-105.2305718">
  <ele>1592.96</ele>
  <time>2026-08-27T18:27:09Z</time>
  <course>53.15</course>
  <speed>0.32649655434629016</speed>
  <fix>3d</fix>
</trkpt>
<trkpt lat="40.0728455" lon="-105.2305715">
  <ele>1592.86</ele>
  <time>2026-08-27T18:27:09Z</time>
  <course>200.6</course>
  <speed>0.23</speed>
  <fix>3d</fix>
</trkpt>
<trkpt lat="40.0728446" lon="-105.2305722">
  <ele>1592.96</ele>
  <time>2026-08-27T18:27:09Z</time>
  <course>53.12</course>
  <speed>0.38948684188300897</speed>
  <fix>3d</fix>
</trkpt>
<trkpt lat="40.0728451" lon="-105.2305718">
  <ele>1592.86</ele>
  <time>2026-08-27T18:27:09Z</time>
  <course>209.53</course>
  <speed>0.34</speed>
  <fix>3d</fix>
</trkpt>
<trkpt lat="40.072844" lon="-105.2305727">
  <ele>1592.95</ele>
  <time>2026-08-27T18:27:09Z</time>
  <course>53.09</course>
  <speed>0.40311288741492746</speed>
  <fix>3d</fix>
</trkpt>
<trkpt lat="40.0728445" lon="-105.2305723">
  <ele>1592.86</ele>
  <time>2026-08-27T18:27:09Z</time>
  <course>211.61</course>
  <speed>0.4</speed>
  <fix>3d</fix>
</trkpt>
<trkpt lat="40.0728433" lon="-105.2305731">
  <ele>1592.95</ele>
  <time>2026-08-27T18:27:09Z</time>
  <course>46.4</course>
  <speed>0.4016217125604641</speed>
  <fix>3d</fix>
</trkpt>
<trkpt lat="40.0728439" lon="-105.2305728">
  <ele>1592.86</ele>
  <time>2026-08-27T18:27:09Z</time>
  <course>208.36</course>
  <speed>0.42</speed>
  <fix>3d</fix>
</trkpt>
<trkpt lat="40.0728427" lon="-105.2305734">
  <ele>1592.96</ele>
  <time>2026-08-27T18:27:09Z</time>
  <course>32.85</course>
  <speed>0.3584689665786984</speed>
  <fix>3d</fix>
</trkpt>
<trkpt lat="40.0728433" lon="-105.2305732">
  <ele>1592.87</ele>
  <time>2026-08-27T18:27:09Z</time>
  <course>204.67</course>
  <speed>0.4</speed>
  <fix>3d</fix>
</trkpt>
<trkpt lat="40.0728421" lon="-105.2305738">
  <ele>1592.96</ele>
  <time>2026-08-27T18:27:09Z</time>
  <course>20.72</course>
  <speed>0.33541019662496846</speed>
  <fix>3d</fix>
</trkpt>
<trkpt lat="40.0728426" lon="-105.2305736">
  <ele>1592.87</ele>
  <time>2026-08-27T18:27:09Z</time>
  <course>206.22</course>
  <speed>0.37</speed>
  <fix>3d</fix>
</trkpt>
<trkpt lat="40.0728416" lon="-105.2305742">
  <ele>1592.96</ele>
  <time>2026-08-27T18:27:09Z</time>
  <course>8.98</course>
  <speed>0.3361547262794322</speed>
  <fix>3d</fix>
</trkpt>
<trkpt lat="40.0728421" lon="-105.2305739">
  <ele>1592.88</ele>
  <time>2026-08-27T18:27:09Z</time>
  <course>210.0</course>
  <speed>0.35</speed>
  <fix>3d</fix>
</trkpt>
<trkpt lat="40.0728411" lon="-105.2305747">
  <ele>1592.97</ele>
  <time>2026-08-27T18:27:09Z</time>
  <course>8.74</course>
  <speed>0.34828149534535996</speed>
  <fix>3d</fix>
</trkpt>
<trkpt lat="40.0728415" lon="-105.2305744">
  <ele>1592.88</ele>
  <time>2026-08-27T18:27:09Z</time>
  <course>217.48</course>
  <speed>0.35</speed>
  <fix>3d</fix>
</trkpt>
<trkpt lat="40.0728406" lon="-105.2305752">
  <ele>1592.97</ele>
  <time>2026-08-27T18:27:09Z</time>
  <course>9.3</course>
  <speed>0.31622776601683794</speed>
  <fix>3d</fix>
</trkpt>
<trkpt lat="40.072841" lon="-105.2305749">
  <ele>1592.89</ele>
  <time>2026-08-27T18:27:09Z</time>
  <course>221.32</course>
  <speed>0.35</speed>
  <fix>3d</fix>
</trkpt>
<trkpt lat="40.0728402" lon="-105.2305756">
  <ele>1592.97</ele>
  <time>2026-08-27T18:27:09Z</time>
  <course>9.44</course>
  <speed>0.260768096208106</speed>
  <fix>3d</fix>
</trkpt>
<trkpt lat="40.0728406" lon="-105.2305755">
  <ele>1592.89</ele>
  <time>2026-08-27T18:27:09Z</time>
  <course>219.03</course>
  <speed>0.31</speed>
  <fix>3d</fix>
</trkpt>
<trkpt lat="40.0728399" lon="-105.230576">
  <ele>1592.97</ele>
  <time>2026-08-27T18:27:09Z</time>
  <course>9.49</course>
  <speed>0.1972308292331602</speed>
  <fix>3d</fix>
</trkpt>
<trkpt lat="40.0728402" lon="-105.2305759">
  <ele>1592.89</ele>
  <time>2026-08-27T18:27:09Z</time>
  <course>217.8</course>
  <speed>0.25</speed>
  <fix>3d</fix>
</trkpt>
<trkpt lat="40.0728396" lon="-105.2305762">
  <ele>1592.97</ele>
  <time>2026-08-27T18:27:09Z</time>
  <course>9.53</course>
  <speed>0.13892443989449804</speed>
  <fix>3d</fix>
</trkpt>
<trkpt lat="40.0728398" lon="-105.2305762">
  <ele>1592.89</ele>
  <time>2026-08-27T18:27:09Z</time>
  <course>218.52</course>
  <speed>0.19</speed>
  <fix>3d</fix>
</trkpt>
<trkpt lat="40.0728395" lon="-105.2305764">
  <ele>1592.98</ele>
  <time>2026-08-27T18:27:09Z</time>
  <course>9.56</course>
  <speed>0.08062257748298549</speed>
  <fix>3d</fix>
</trkpt>
<trkpt lat="40.0728396" lon="-105.2305764">
  <ele>1592.9</ele>
  <time>2026-08-27T18:27:09Z</time>
  <course>223.47</course>
  <speed>0.13</speed>
  <fix>3d</fix>
</trkpt>
<trkpt lat="40.0728394" lon="-105.2305765">
  <ele>1592.98</ele>
  <time>2026-08-27T18:27:09Z</time>
  <course>9.6</course>
  <speed>0.0282842712474619</speed>
  <fix>3d</fix>
</trkpt>
<trkpt lat="40.0728395" lon="-105.2305767">
  <ele>1592.9</ele>
  <time>2026-08-27T18:27:09Z</time>
  <course>238.42</course>
  <speed>0.07</speed>
  <fix>3d</fix>
</trkpt>
<trkpt lat="40.0728394" lon="-105.2305766">
  <ele>1592.98</ele>
  <time>2026-08-27T18:27:09Z</time>
  <course>9.64</course>
  <speed>0.02</speed>
  <fix>3d</fix>
</trkpt>
<trkpt lat="40.0728395" lon="-105.2305768">
  <ele>1592.9</ele>
  <time>2026-08-27T18:27:09Z</time>
  <course>284.02</course>
  <speed>0.04</speed>
  <fix>3d</fix>
</trkpt>
<trkpt lat="40.0728394" lon="-105.2305767">
  <ele>1592.98</ele>
  <time>2026-08-27T18:27:09Z</time>
  <course>9.67</course>
  <speed>0.06082762530298219</speed>
  <fix>3d</fix>
</trkpt>
<trkpt lat="40.0728395" lon="-105.2305768">
  <ele>1592.9</ele>
  <time>2026-08-27T18:27:09Z</time>
  <course>338.19</course>
  <speed>0.06</speed>
  <fix>3d</fix>
</trkpt>
<trkpt lat="40.0728396" lon="-105.2305766">
  <ele>1592.98</ele>
  <time>2026-08-27T18:27:09Z</time>
  <course>9.7</course>
  <speed>0.09486832980505139</speed>
  <fix>3d</fix>
</trkpt>
<trkpt lat="40.0728396" lon="-105.2305768">
  <ele>1592.89</ele>
  <time>2026-08-27T18:27:09Z</time>
  <course>358.38</course>
  <speed>0.09</speed>
  <fix>3d</fix>
</trkpt>
<trkpt lat="40.0728398" lon="-105.2305766">
  <ele>1592.98</ele>
  <time>2026-08-27T18:27:09Z</time>
  <course>9.73</course>
  <speed>0.1264911064067352</speed>
  <fix>3d</fix>
</trkpt>
<trkpt lat="40.0728397" lon="-105.2305768">
  <ele>1592.89</ele>
  <time>2026-08-27T18:27:09Z</time>
  <course>6.75</course>
  <speed>0.13</speed>
  <fix>3d</fix>
</trkpt>
<trkpt lat="40.0728401" lon="-105.2305766">
  <ele>1592.98</ele>
  <time>2026-08-27T18:27:09Z</time>
  <course>9.77</course>
  <speed>0.15231546211727817</speed>
  <fix>3d</fix>
</trkpt>
<trkpt lat="40.07284" lon="-105.2305768">
  <ele>1592.89</ele>
  <time>2026-08-27T18:27:09Z</time>
  <course>11.26</course>
  <speed>0.16</speed>
  <fix>3d</fix>
</trkpt>
<trkpt lat="40.0728404" lon="-105.2305765">
  <ele>1592.98</ele>
  <time>2026-08-27T18:27:09Z</time>
  <course>9.8</course>
  <speed>0.16552945357246848</speed>
  <fix>3d</fix>
</trkpt>
<trkpt lat="40.0728404" lon="-105.2305768">
  <ele>1592.89</ele>
  <time>2026-08-27T18:27:09Z</time>
  <course>14.22</course>
  <speed>0.18</speed>
  <fix>3d</fix>
</trkpt>
<trkpt lat="40.0728408" lon="-105.2305764">
  <ele>1592.98</ele>
  <time>2026-08-27T18:27:09Z</time>
  <course>9.85</course>
  <speed>0.17888543819998318</speed>
  <fix>3d</fix>
</trkpt>
<trkpt lat="40.0728407" lon="-105.2305767">
  <ele>1592.89</ele>
  <time>2026-08-27T18:27:09Z</time>
  <course>16.32</course>
  <speed>0.2</speed>
  <fix>3d</fix>
</trkpt>
<trkpt lat="40.0728411" lon="-105.2305762">
  <ele>1592.97</ele>
  <time>2026-08-27T18:27:09Z</time>
  <course>9.86</course>
  <speed>0.17888543819998318</speed>
  <fix>3d</fix>
</trkpt>
<trkpt lat="40.0728411" lon="-105.2305766">
  <ele>1592.89</ele>
  <time>2026-08-27T18:27:09Z</time>
  <course>18.01</course>
  <speed>0.21</speed>
  <fix>3d</fix>
</trkpt>
<trkpt lat="40.0728414" lon="-105.2305761">
  <ele>1592.97</ele>
  <time>2026-08-27T18:27:09Z</time>
  <course>9.91</course>
  <speed>0.17</speed>
  <fix>3d</fix>
</trkpt>
<trkpt lat="40.0728414" lon="-105.2305764">
  <ele>1592.88</ele>
  <time>2026-08-27T18:27:09Z</time>
  <course>19.55</course>
  <speed>0.21</speed>
  <fix>3d</fix>
</trkpt>
<trkpt lat="40.0728418" lon="-105.2305759">
  <ele>1592.98</ele>
  <time>2026-08-27T18:27:09Z</time>
  <course>9.94</course>
  <speed>0.16124515496597097</speed>
  <fix>3d</fix>
</trkpt>
<trkpt lat="40.0728418" lon="-105.2305763">
  <ele>1592.88</ele>
  <time>2026-08-27T18:27:09Z</time>
  <course>21.04</course>
  <speed>0.2</speed>
  <fix>3d</fix>
</trkpt>
<trkpt lat="40.0728421" lon="-105.2305758">
  <ele>1592.98</ele>
  <time>2026-08-27T18:27:09Z</time>
  <course>9.99</course>
  <speed>0.14422205101855956</speed>
  <fix>3d</fix>
</trkpt>
<trkpt lat="40.0728421" lon="-105.2305761">
  <ele>1592.88</ele>
  <time>2026-08-27T18:27:09Z</time>
  <course>22.77</course>
  <speed>0.19</speed>
  <fix>3d</fix>
</trkpt>
<trkpt lat="40.0728424" lon="-105.2305756">
  <ele>1592.99</ele>
  <time>2026-08-27T18:27:09Z</time>
  <course>10.03</course>
  <speed>0.12806248474865697</speed>
  <fix>3d</fix>
</trkpt>
<trkpt lat="40.0728424" lon="-105.2305758">
  <ele>1592.88</ele>
  <time>2026-08-27T18:27:09Z</time>
  <course>24.73</course>
  <speed>0.17</speed>
  <fix>3d</fix>
</trkpt>
<trkpt lat="40.0728426" lon="-105.2305755">
  <ele>1592.99</ele>
  <time>2026-08-27T18:27:09Z</time>
  <course>10.07</course>
  <speed>0.1063014581273465</speed>
  <fix>3d</fix>
</trkpt>
<trkpt lat="40.0728427" lon="-105.2305757">
  <ele>1592.88</ele>
  <time>2026-08-27T18:27:09Z</time>
  <course>27.02</course>
  <speed>0.15</speed>
  <fix>3d</fix>
</trkpt>
<trkpt lat="40.0728428" lon="-105.2305753">
  <ele>1592.99</ele>
  <time>2026-08-27T18:27:09Z</time>
  <course>10.11</course>
  <speed>0.09219544457292887</speed>
  <fix>3d</fix>
</trkpt>
<trkpt lat="40.072843" lon="-105.2305756">
  <ele>1592.88</ele>
  <time>2026-08-27T18:27:09Z</time>
  <course>30.33</course>
  <speed>0.13</speed>
  <fix>3d</fix>
</trkpt>
<trkpt lat="40.0728429" lon="-105.2305752">
  <ele>1592.98</ele>
  <time>2026-08-27T18:27:09Z</time>
  <course>10.27</course>
  <speed>0.0670820393249937</speed>
  <fix>3d</fix>
</trkpt>
<trkpt lat="40.0728431" lon="-105.2305754">
  <ele>1592.87</ele>
  <time>2026-08-27T18:27:09Z</time>
  <course>35.16</course>
  <speed>0.1</speed>
  <fix>3d</fix>
</trkpt>
<trkpt lat="40.072843" lon="-105.2305751">
  <ele>1592.95</ele>
  <time>2026-08-27T18:27:09Z</time>
  <course>10.65</course>
  <speed>0.05099019513592785</speed>
  <fix>3d</fix>
</trkpt>
<trkpt lat="40.0728432" lon="-105.2305753">
  <ele>1592.86</ele>
  <time>2026-08-27T18:27:09Z</time>
  <course>41.78</course>
  <speed>0.08</speed>
  <fix>3d</fix>
</trkpt>
<trkpt lat="40.0728431" lon="-105.230575">
  <ele>1592.9</ele>
  <time>2026-08-27T18:27:09Z</time>
  <course>10.92</course>
  <speed>0.05</speed>
  <fix>3d</fix>
</trkpt>
<trkpt lat="40.0728433" lon="-105.2305751">
  <ele>1592.83</ele>
  <time>2026-08-27T18:27:09Z</time>
  <course>52.07</course>
  <speed>0.06</speed>
  <fix>3d</fix>
</trkpt>
<trkpt lat="40.0728431" lon="-105.2305749">
  <ele>1592.81</ele>
  <time>2026-08-27T18:27:10Z</time>
  <course>11.03</course>
  <speed>0.05</speed>
  <fix>3d</fix>
</trkpt>
<trkpt lat="40.0728433" lon="-105.230575">
  <ele>1592.77</ele>
  <time>2026-08-27T18:27:10Z</time>
  <course>70.8</course>
  <speed>0.04</speed>
  <fix>3d</fix>
</trkpt>
<trkpt lat="40.0728431" lon="-105.2305748">
  <ele>1592.71</ele>
  <time>2026-08-27T18:27:10Z</time>
  <course>11.14</course>
  <speed>0.06403124237432849</speed>
  <fix>3d</fix>
</trkpt>
<trkpt lat="40.0728433" lon="-105.2305749">
  <ele>1592.69</ele>
  <time>2026-08-27T18:27:10Z</time>
  <course>99.77</course>
  <speed>0.04</speed>
  <fix>3d</fix>
</trkpt>
<trkpt lat="40.0728431" lon="-105.2305747">
  <ele>1592.61</ele>
  <time>2026-08-27T18:27:10Z</time>
  <course>11.2</course>
  <speed>0.07211102550927978</speed>
  <fix>3d</fix>
</trkpt>
<trkpt lat="40.0728433" lon="-105.2305748">
  <ele>1592.58</ele>
  <time>2026-08-27T18:27:10Z</time>
  <course>126.95</course>
  <speed>0.04</speed>
  <fix>3d</fix>
</trkpt>
<trkpt lat="40.0728431" lon="-105.2305746">
  <ele>1592.5</ele>
  <time>2026-08-27T18:27:10Z</time>
  <course>11.26</course>
  <speed>0.0854400374531753</speed>
  <fix>3d</fix>
</trkpt>
<trkpt lat="40.0728433" lon="-105.2305747">
  <ele>1592.47</ele>
  <time>2026-08-27T18:27:10Z</time>
  <course>144.08</course>
  <speed>0.05</speed>
  <fix>3d</fix>
</trkpt>
<trkpt lat="40.0728429" lon="-105.2305746">
  <ele>1592.39</ele>
  <time>2026-08-27T18:27:10Z</time>
  <course>11.29</course>
  <speed>0.09486832980505139</speed>
  <fix>3d</fix>
</trkpt>
<trkpt lat="40.0728433" lon="-105.2305746">
  <ele>1592.36</ele>
  <time>2026-08-27T18:27:10Z</time>
  <course>154.25</course>
  <speed>0.06</speed>
  <fix>3d</fix>
</trkpt>
<trkpt lat="40.0728428" lon="-105.2305745">
  <ele>1592.28</ele>
  <time>2026-08-27T18:27:10Z</time>
  <course>11.3</course>
  <speed>0.09219544457292887</speed>
  <fix>3d</fix>
</trkpt>
<trkpt lat="40.0728431" lon="-105.2305746">
  <ele>1592.25</ele>
  <time>2026-08-27T18:27:10Z</time>
  <course>161.65</course>
  <speed>0.07</speed>
  <fix>3d</fix>
</trkpt>
<trkpt lat="40.0728427" lon="-105.2305745">
  <ele>1592.17</ele>
  <time>2026-08-27T18:27:10Z</time>
  <course>11.3</course>
  <speed>0.1019803902718557</speed>
  <fix>3d</fix>
</trkpt>
<trkpt lat="40.072843" lon="-105.2305746">
  <ele>1592.14</ele>
  <time>2026-08-27T18:27:10Z</time>
  <course>168.08</course>
  <speed>0.07</speed>
  <fix>3d</fix>
</trkpt>
<trkpt lat="40.0728426" lon="-105.2305745">
  <ele>1592.06</ele>
  <time>2026-08-27T18:27:10Z</time>
  <course>11.32</course>
  <speed>0.1004987562112089</speed>
  <fix>3d</fix>
</trkpt>
<trkpt lat="40.0728429" lon="-105.2305746">
  <ele>1592.03</ele>
  <time>2026-08-27T18:27:10Z</time>
  <course>174.07</course>
  <speed>0.08</speed>
  <fix>3d</fix>
</trkpt>
<trkpt lat="40.0728424" lon="-105.2305745">
  <ele>1591.95</ele>
  <time>2026-08-27T18:27:10Z</time>
  <course>11.34</course>
  <speed>0.09</speed>
  <fix>3d</fix>
</trkpt>
<trkpt lat="40.0728427" lon="-105.2305746">
  <ele>1591.92</ele>
  <time>2026-08-27T18:27:10Z</time>
  <course>179.66</course>
  <speed>0.08</speed>
  <fix>3d</fix>
</trkpt>
<trkpt lat="40.0728423" lon="-105.2305745">
  <ele>1591.85</ele>
  <time>2026-08-27T18:27:10Z</time>
  <course>11.36</course>
  <speed>0.09</speed>
  <fix>3d</fix>
</trkpt>
<trkpt lat="40.0728426" lon="-105.2305746">
  <ele>1591.83</ele>
  <time>2026-08-27T18:27:10Z</time>
  <course>185.04</course>
  <speed>0.08</speed>
  <fix>3d</fix>
</trkpt>
<trkpt lat="40.0728422" lon="-105.2305745">
  <ele>1591.74</ele>
  <time>2026-08-27T18:27:10Z</time>
  <course>11.34</course>
  <speed>0.08</speed>
  <fix>3d</fix>
</trkpt>
<trkpt lat="40.0728425" lon="-105.2305746">
  <ele>1591.72</ele>
  <time>2026-08-27T18:27:10Z</time>
  <course>190.4</course>
  <speed>0.07</speed>
  <fix>3d</fix>
</trkpt>
<trkpt lat="40.0728421" lon="-105.2305745">
  <ele>1591.64</ele>
  <time>2026-08-27T18:27:10Z</time>
  <course>11.34</course>
  <speed>0.08</speed>
  <fix>3d</fix>
</trkpt>
<trkpt lat="40.0728423" lon="-105.2305746">
  <ele>1591.62</ele>
  <time>2026-08-27T18:27:10Z</time>
  <course>195.71</course>
  <speed>0.07</speed>
  <fix>3d</fix>
</trkpt>
<trkpt lat="40.072842" lon="-105.2305745">
  <ele>1591.54</ele>
  <time>2026-08-27T18:27:10Z</time>
  <course>11.35</course>
  <speed>0.07071067811865475</speed>
  <fix>3d</fix>
</trkpt>
<trkpt lat="40.0728422" lon="-105.2305746">
  <ele>1591.52</ele>
  <time>2026-08-27T18:27:10Z</time>
  <course>201.66</course>
  <speed>0.06</speed>
  <fix>3d</fix>
</trkpt>
<trkpt lat="40.0728419" lon="-105.2305746">
  <ele>1591.45</ele>
  <time>2026-08-27T18:27:10Z</time>
  <course>11.34</course>
  <speed>0.06082762530298219</speed>
  <fix>3d</fix>
</trkpt>
<trkpt lat="40.0728421" lon="-105.2305746">
  <ele>1591.41</ele>
  <time>2026-08-27T18:27:10Z</time>
  <course>208.34</course>
  <speed>0.05</speed>
  <fix>3d</fix>
</trkpt>
<trkpt lat="40.0728419" lon="-105.2305746">
  <ele>1591.34</ele>
  <time>2026-08-27T18:27:10Z</time>
  <course>11.35</course>
  <speed>0.05099019513592785</speed>
  <fix>3d</fix>
</trkpt>
<trkpt lat="40.072842" lon="-105.2305746">
  <ele>1591.32</ele>
  <time>2026-08-27T18:27:10Z</time>
  <course>215.95</course>
  <speed>0.05</speed>
  <fix>3d</fix>
</trkpt>
<trkpt lat="40.0728418" lon="-105.2305747">
  <ele>1591.24</ele>
  <time>2026-08-27T18:27:10Z</time>
  <course>11.35</course>
  <speed>0.0316227766016838</speed>
  <fix>3d</fix>
</trkpt>
<trkpt lat="40.072842" lon="-105.2305747">
  <ele>1591.22</ele>
  <time>2026-08-27T18:27:10Z</time>
  <course>225.44</course>
  <speed>0.04</speed>
  <fix>3d</fix>
</trkpt>
<trkpt lat="40.0728418" lon="-105.2305747">
  <ele>1591.14</ele>
  <time>2026-08-27T18:27:10Z</time>
  <course>11.35</course>
  <speed>0.022360679774997897</speed>
  <fix>3d</fix>
</trkpt>
<trkpt lat="40.0728419" lon="-105.2305748">
  <ele>1591.12</ele>
  <time>2026-08-27T18:27:10Z</time>
  <course>237.94</course>
  <speed>0.04</speed>
  <fix>3d</fix>
</trkpt>
<trkpt lat="40.0728418" lon="-105.2305748">
  <ele>1591.04</ele>
  <time>2026-08-27T18:27:10Z</time>
  <course>11.36</course>
  <speed>0.01414213562373095</speed>
  <fix>3d</fix>
</trkpt>
<trkpt lat="40.0728419" lon="-105.2305749">
  <ele>1591.02</ele>
  <time>2026-08-27T18:27:10Z</time>
  <course>253.26</course>
  <speed>0.03</speed>
  <fix>3d</fix>
</trkpt>
<trkpt lat="40.0728418" lon="-105.2305749">
  <ele>1590.94</ele>
  <time>2026-08-27T18:27:10Z</time>
  <course>11.35</course>
  <speed>0.01</speed>
  <fix>3d</fix>
</trkpt>
<trkpt lat="40.0728419" lon="-105.230575">
  <ele>1590.92</ele>
  <time>2026-08-27T18:27:10Z</time>
  <course>268.84</course>
  <speed>0.03</speed>
  <fix>3d</fix>
</trkpt>
<trkpt lat="40.0728418" lon="-105.2305749">
  <ele>1590.84</ele>
  <time>2026-08-27T18:27:10Z</time>
  <course>11.34</course>
  <speed>0.01</speed>
  <fix>3d</fix>
</trkpt>
<trkpt lat="40.0728419" lon="-105.2305751">
  <ele>1590.83</ele>
  <time>2026-08-27T18:27:10Z</time>
  <course>282.9</course>
  <speed>0.03</speed>
  <fix>3d</fix>
</trkpt>
<trkpt lat="40.0728418" lon="-105.230575">
  <ele>1590.74</ele>
  <time>2026-08-27T18:27:10Z</time>
  <course>11.35</course>
  <speed>0.01</speed>
  <fix>3d</fix>
</trkpt>
<trkpt lat="40.0728419" lon="-105.2305751">
  <ele>1590.73</ele>
  <time>2026-08-27T18:27:10Z</time>
  <course>294.21</course>
  <speed>0.03</speed>
  <fix>3d</fix>
</trkpt>
<trkpt lat="40.0728418" lon="-105.2305751">
  <ele>1590.64</ele>
  <time>2026-08-27T18:27:10Z</time>
  <course>11.34</course>
  <speed>0.0</speed>
  <fix>3d</fix>
</trkpt>
<trkpt lat="40.0728419" lon="-105.2305752">
  <ele>1590.63</ele>
  <time>2026-08-27T18:27:10Z</time>
  <course>303.11</course>
  <speed>0.03</speed>
  <fix>3d</fix>
</trkpt>
<trkpt lat="40.0728418" lon="-105.2305751">
  <ele>1590.54</ele>
  <time>2026-08-27T18:27:10Z</time>
  <course>11.35</course>
  <speed>0.01</speed>
  <fix>3d</fix>
</trkpt>
<trkpt lat="40.0728419" lon="-105.2305753">
  <ele>1590.53</ele>
  <time>2026-08-27T18:27:10Z</time>
  <course>310.8</course>
  <speed>0.04</speed>
  <fix>3d</fix>
</trkpt>
<trkpt lat="40.0728419" lon="-105.2305752">
  <ele>1590.44</ele>
  <time>2026-08-27T18:27:10Z</time>
  <course>11.36</course>
  <speed>0.01</speed>
  <fix>3d</fix>
</trkpt>
<trkpt lat="40.0728419" lon="-105.2305754">
  <ele>1590.42</ele>
  <time>2026-08-27T18:27:10Z</time>
  <course>317.32</course>
  <speed>0.04</speed>
  <fix>3d</fix>
</trkpt>
<trkpt lat="40.0728419" lon="-105.2305752">
  <ele>1590.34</ele>
  <time>2026-08-27T18:27:10Z</time>
  <course>11.34</course>
  <speed>0.01</speed>
  <fix>3d</fix>
</trkpt>
<trkpt lat="40.072842" lon="-105.2305755">
  <ele>1590.33</ele>
  <time>2026-08-27T18:27:10Z</time>
  <course>323.0</course>
  <speed>0.04</speed>
  <fix>3d</fix>
</trkpt>
<trkpt lat="40.072842" lon="-105.2305753">
  <ele>1590.24</ele>
  <time>2026-08-27T18:27:10Z</time>
  <course>11.36</course>
  <speed>0.01</speed>
  <fix>3d</fix>
</trkpt>
<trkpt lat="40.072842" lon="-105.2305755">
  <ele>1590.23</ele>
  <time>2026-08-27T18:27:10Z</time>
  <course>328.52</course>
  <speed>0.03</speed>
  <fix>3d</fix>
</trkpt>
<trkpt lat="40.072842" lon="-105.2305753">
  <ele>1590.14</ele>
  <time>2026-08-27T18:27:10Z</time>
  <course>11.35</course>
  <speed>0.01</speed>
  <fix>3d</fix>
</trkpt>
<trkpt lat="40.0728421" lon="-105.2305756">
  <ele>1590.13</ele>
  <time>2026-08-27T18:27:10Z</time>
  <course>334.09</course>
  <speed>0.03</speed>
  <fix>3d</fix>
</trkpt>
<trkpt lat="40.0728421" lon="-105.2305753">
  <ele>1590.04</ele>
  <time>2026-08-27T18:27:10Z</time>
  <course>11.35</course>
  <speed>0.01414213562373095</speed>
  <fix>3d</fix>
</trkpt>
<trkpt lat="40.0728421" lon="-105.2305756">
  <ele>1590.04</ele>
  <time>2026-08-27T18:27:10Z</time>
  <course>340.12</course>
  <speed>0.03</speed>
  <fix>3d</fix>
</trkpt>
<trkpt lat="40.0728421" lon="-105.2305754">
  <ele>1589.94</ele>
  <time>2026-08-27T18:27:10Z</time>
  <course>11.35</course>
  <speed>0.01</speed>
  <fix>3d</fix>
</trkpt>
<trkpt lat="40.0728422" lon="-105.2305756">
  <ele>1589.94</ele>
  <time>2026-08-27T18:27:10Z</time>
  <course>346.07</course>
  <speed>0.03</speed>
  <fix>3d</fix>
</trkpt>
<trkpt lat="40.0728421" lon="-105.2305754">
  <ele>1589.84</ele>
  <time>2026-08-27T18:27:10Z</time>
  <course>11.36</course>
  <speed>0.02</speed>
  <fix>3d</fix>
</trkpt>
<trkpt lat="40.0728423" lon="-105.2305756">
  <ele>1589.84</ele>
  <time>2026-08-27T18:27:10Z</time>
  <course>351.95</course>
  <speed>0.03</speed>
  <fix>3d</fix>
</trkpt>
<trkpt lat="40.0728422" lon="-105.2305754">
  <ele>1589.74</ele>
  <time>2026-08-27T18:27:10Z</time>
  <course>11.37</course>
  <speed>0.02</speed>
  <fix>3d</fix>
</trkpt>
<trkpt lat="40.0728423" lon="-105.2305756">
  <ele>1589.75</ele>
  <time>2026-08-27T18:27:10Z</time>
  <course>358.24</course>
  <speed>0.02</speed>
  <fix>3d</fix>
</trkpt>
<trkpt lat="40.0728422" lon="-105.2305754">
  <ele>1589.64</ele>
  <time>2026-08-27T18:27:10Z</time>
  <course>11.37</course>
  <speed>0.02</speed>
  <fix>3d</fix>
</trkpt>
<trkpt lat="40.0728424" lon="-105.2305756">
  <ele>1589.64</ele>
  <time>2026-08-27T18:27:10Z</time>
  <course>5.56</course>
  <speed>0.02</speed>
  <fix>3d</fix>
</trkpt>
<trkpt lat="40.0728423" lon="-105.2305754">
  <ele>1589.55</ele>
  <time>2026-08-27T18:27:10Z</time>
  <course>11.36</course>
  <speed>0.02</speed>
  <fix>3d</fix>
</trkpt>
<trkpt lat="40.0728424" lon="-105.2305756">
  <ele>1589.55</ele>
  <time>2026-08-27T18:27:10Z</time>
  <course>15.14</course>
  <speed>0.02</speed>
  <fix>3d</fix>
</trkpt>
<trkpt lat="40.0728423" lon="-105.2305754">
  <ele>1589.44</ele>
  <time>2026-08-27T18:27:10Z</time>
  <course>11.38</course>
  <speed>0.022360679774997897</speed>
  <fix>3d</fix>
</trkpt>
<trkpt lat="40.0728425" lon="-105.2305756">
  <ele>1589.45</ele>
  <time>2026-08-27T18:27:10Z</time>
  <course>26.24</course>
  <speed>0.01</speed>
  <fix>3d</fix>
</trkpt>
<trkpt lat="40.0728423" lon="-105.2305754">
  <ele>1589.34</ele>
  <time>2026-08-27T18:27:10Z</time>
  <course>11.37</course>
  <speed>0.0316227766016838</speed>
  <fix>3d</fix>
</trkpt>
<trkpt lat="40.0728425" lon="-105.2305756">
  <ele>1589.35</ele>
  <time>2026-08-27T18:27:10Z</time>
  <course>39.3</course>
  <speed>0.01</speed>
  <fix>3d</fix>
</trkpt>
<trkpt lat="40.0728423" lon="-105.2305754">
  <ele>1589.24</ele>
  <time>2026-08-27T18:27:10Z</time>
  <course>11.36</course>
  <speed>0.0316227766016838</speed>
  <fix>3d</fix>
</trkpt>
<trkpt lat="40.0728425" lon="-105.2305756">
  <ele>1589.25</ele>
  <time>2026-08-27T18:27:10Z</time>
  <course>56.78</course>
  <speed>0.01</speed>
  <fix>3d</fix>
</trkpt>
<trkpt lat="40.0728423" lon="-105.2305754">
  <ele>1589.14</ele>
  <time>2026-08-27T18:27:10Z</time>
  <course>11.35</course>
  <speed>0.03605551275463989</speed>
  <fix>3d</fix>
</trkpt>
<trkpt lat="40.0728425" lon="-105.2305756">
  <ele>1589.14</ele>
  <time>2026-08-27T18:27:10Z</time>
  <course>76.6</course>
  <speed>0.01</speed>
  <fix>3d</fix>
</trkpt>
<trkpt lat="40.0728423" lon="-105.2305753">
  <ele>1589.04</ele>
  <time>2026-08-27T18:27:10Z</time>
  <course>11.38</course>
  <speed>0.03605551275463989</speed>
  <fix>3d</fix>
</trkpt>
<trkpt lat="40.0728425" lon="-105.2305756">
  <ele>1589.05</ele>
  <time>2026-08-27T18:27:10Z</time>
  <course>95.33</course>
  <speed>0.01</speed>
  <fix>3d</fix>
</trkpt>
<trkpt lat="40.0728423" lon="-105.2305753">
  <ele>1588.94</ele>
  <time>2026-08-27T18:27:10Z</time>
  <course>11.38</course>
  <speed>0.03605551275463989</speed>
  <fix>3d</fix>
</trkpt>
<trkpt lat="40.0728425" lon="-105.2305756">
  <ele>1588.96</ele>
  <time>2026-08-27T18:27:10Z</time>
  <course>110.87</course>
  <speed>0.01</speed>
  <fix>3d</fix>
</trkpt>
<trkpt lat="40.0728423" lon="-105.2305753">
  <ele>1588.85</ele>
  <time>2026-08-27T18:27:10Z</time>
  <course>11.36</course>
  <speed>0.0282842712474619</speed>
  <fix>3d</fix>
</trkpt>
<trkpt lat="40.0728425" lon="-105.2305756">
  <ele>1588.86</ele>
  <time>2026-08-27T18:27:10Z</time>
  <course>121.75</course>
  <speed>0.01</speed>
  <fix>3d</fix>
</trkpt>
<trkpt lat="40.0728423" lon="-105.2305753">
  <ele>1588.75</ele>
  <time>2026-08-27T18:27:10Z</time>
  <course>11.38</course>
  <speed>0.03605551275463989</speed>
  <fix>3d</fix>
</trkpt>
<trkpt lat="40.0728425" lon="-105.2305755">
  <ele>1588.76</ele>
  <time>2026-08-27T18:27:10Z</time>
  <course>130.7</course>
  <speed>0.01</speed>
  <fix>3d</fix>
</trkpt>
<trkpt lat="40.0728423" lon="-105.2305753">
  <ele>1588.65</ele>
  <time>2026-08-27T18:27:10Z</time>
  <course>11.37</course>
  <speed>0.03605551275463989</speed>
  <fix>3d</fix>
</trkpt>
<trkpt lat="40.0728425" lon="-105.2305755">
  <ele>1588.65</ele>
  <time>2026-08-27T18:27:10Z</time>
  <course>137.96</course>
  <speed>0.01</speed>
  <fix>3d</fix>
</trkpt>
<trkpt lat="40.0728423" lon="-105.2305753">
  <ele>1588.55</ele>
  <time>2026-08-27T18:27:10Z</time>
  <course>11.37</course>
  <speed>0.03605551275463989</speed>
  <fix>3d</fix>
</trkpt>
<trkpt lat="40.0728425" lon="-105.2305755">
  <ele>1588.56</ele>
  <time>2026-08-27T18:27:10Z</time>
  <course>143.34</course>
  <speed>0.01</speed>
  <fix>3d</fix>
</trkpt>
<trkpt lat="40.0728423" lon="-105.2305753">
  <ele>1588.45</ele>
  <time>2026-08-27T18:27:10Z</time>
  <course>11.38</course>
  <speed>0.03605551275463989</speed>
  <fix>3d</fix>
</trkpt>
<trkpt lat="40.0728425" lon="-105.2305755">
  <ele>1588.46</ele>
  <time>2026-08-27T18:27:10Z</time>
  <course>148.16</course>
  <speed>0.01</speed>
  <fix>3d</fix>
</trkpt>
<trkpt lat="40.0728423" lon="-105.2305753">
  <ele>1588.35</ele>
  <time>2026-08-27T18:27:10Z</time>
  <course>11.38</course>
  <speed>0.03605551275463989</speed>
  <fix>3d</fix>
</trkpt>
<trkpt lat="40.0728425" lon="-105.2305754">
  <ele>1588.36</ele>
  <time>2026-08-27T18:27:10Z</time>
  <course>150.99</course>
  <speed>0.01</speed>
  <fix>3d</fix>
</trkpt>
<trkpt lat="40.0728423" lon="-105.2305752">
  <ele>1588.25</ele>
  <time>2026-08-27T18:27:10Z</time>
  <course>11.37</course>
  <speed>0.03605551275463989</speed>
  <fix>3d</fix>
</trkpt>
<trkpt lat="40.0728425" lon="-105.2305753">
  <ele>1588.26</ele>
  <time>2026-08-27T18:27:10Z</time>
  <course>152.49</course>
  <speed>0.01</speed>
  <fix>3d</fix>
</trkpt>
<trkpt lat="40.0728423" lon="-105.2305752">
  <ele>1588.15</ele>
  <time>2026-08-27T18:27:10Z</time>
  <course>11.38</course>
  <speed>0.03605551275463989</speed>
  <fix>3d</fix>
</trkpt>
<trkpt lat="40.0728424" lon="-105.2305753">
  <ele>1588.15</ele>
  <time>2026-08-27T18:27:10Z</time>
  <course>155.24</course>
  <speed>0.01</speed>
  <fix>3d</fix>
</trkpt>
<trkpt lat="40.0728423" lon="-105.2305752">
  <ele>1588.05</ele>
  <time>2026-08-27T18:27:10Z</time>
  <course>11.39</course>
  <speed>0.03605551275463989</speed>
  <fix>3d</fix>
</trkpt>
<trkpt lat="40.0728424" lon="-105.2305753">
  <ele>1588.06</ele>
  <time>2026-08-27T18:27:10Z</time>
  <course>158.77</course>
  <speed>0.01</speed>
  <fix>3d</fix>
</trkpt>
<trkpt lat="40.0728422" lon="-105.2305752">
  <ele>1587.95</ele>
  <time>2026-08-27T18:27:10Z</time>
  <course>11.38</course>
  <speed>0.03605551275463989</speed>
  <fix>3d</fix>
</trkpt>
<trkpt lat="40.0728424" lon="-105.2305753">
  <ele>1587.96</ele>
  <time>2026-08-27T18:27:10Z</time>
  <course>163.14</course>
  <speed>0.01</speed>
  <fix>3d</fix>
</trkpt>
<trkpt lat="40.0728422" lon="-105.2305752">
  <ele>1587.85</ele>
  <time>2026-08-27T18:27:10Z</time>
  <course>11.37</course>
  <speed>0.022360679774997897</speed>
  <fix>3d</fix>
</trkpt>
<trkpt lat="40.0728424" lon="-105.2305753">
  <ele>1587.86</ele>
  <time>2026-08-27T18:27:10Z</time>
  <course>167.88</course>
  <speed>0.01</speed>
  <fix>3d</fix>
</trkpt>
<trkpt lat="40.0728422" lon="-105.2305752">
  <ele>1587.75</ele>
  <time>2026-08-27T18:27:10Z</time>
  <course>11.37</course>
  <speed>0.022360679774997897</speed>
  <fix>3d</fix>
</trkpt>
<trkpt lat="40.0728423" lon="-105.2305753">
  <ele>1587.76</ele>
  <time>2026-08-27T18:27:10Z</time>
  <course>171.76</course>
  <speed>0.01</speed>
  <fix>3d</fix>
</trkpt>
<trkpt lat="40.0728422" lon="-105.2305752">
  <ele>1587.65</ele>
  <time>2026-08-27T18:27:10Z</time>
  <course>11.38</course>
  <speed>0.022360679774997897</speed>
  <fix>3d</fix>
</trkpt>
<trkpt lat="40.0728423" lon="-105.2305753">
  <ele>1587.66</ele>
  <time>2026-08-27T18:27:10Z</time>
  <course>177.1</course>
  <speed>0.01</speed>
  <fix>3d</fix>
</trkpt>
<trkpt lat="40.0728422" lon="-105.2305752">
  <ele>1587.55</ele>
  <time>2026-08-27T18:27:10Z</time>
  <course>11.39</course>
  <speed>0.022360679774997897</speed>
  <fix>3d</fix>
</trkpt>
<trkpt lat="40.0728423" lon="-105.2305753">
  <ele>1587.57</ele>
  <time>2026-08-27T18:27:10Z</time>
  <course>184.64</course>
  <speed>0.01</speed>
  <fix>3d</fix>
</trkpt>
<trkpt lat="40.0728422" lon="-105.2305752">
  <ele>1587.45</ele>
  <time>2026-08-27T18:27:10Z</time>
  <course>11.38</course>
  <speed>0.022360679774997897</speed>
  <fix>3d</fix>
</trkpt>
<trkpt lat="40.0728423" lon="-105.2305753">
  <ele>1587.47</ele>
  <time>2026-08-27T18:27:10Z</time>
  <course>191.57</course>
  <speed>0.01</speed>
  <fix>3d</fix>
</trkpt>
<trkpt lat="40.0728422" lon="-105.2305752">
  <ele>1587.34</ele>
  <time>2026-08-27T18:27:10Z</time>
  <course>11.37</course>
  <speed>0.022360679774997897</speed>
  <fix>3d</fix>
</trkpt>
<trkpt lat="40.0728423" lon="-105.2305753">
  <ele>1587.37</ele>
  <time>2026-08-27T18:27:10Z</time>
  <course>198.14</course>
  <speed>0.0</speed>
  <fix>3d</fix>
</trkpt>
<trkpt lat="40.0728422" lon="-105.2305752">
  <ele>1587.24</ele>
  <time>2026-08-27T18:27:10Z</time>
  <course>11.39</course>
  <speed>0.022360679774997897</speed>
  <fix>3d</fix>
</trkpt>
<trkpt lat="40.0728422" lon="-105.2305753">
  <ele>1587.27</ele>
  <time>2026-08-27T18:27:10Z</time>
  <course>207.07</course>
  <speed>0.0</speed>
  <fix>3d</fix>
</trkpt>
<trkpt lat="40.0728421" lon="-105.2305752">
  <ele>1587.14</ele>
  <time>2026-08-27T18:27:10Z</time>
  <course>11.39</course>
  <speed>0.01414213562373095</speed>
  <fix>3d</fix>
</trkpt>
<trkpt lat="40.0728421" lon="-105.2305753">
  <ele>1587.16</ele>
  <time>2026-08-27T18:27:10Z</time>
  <course>216.81</course>
  <speed>0.0</speed>
  <fix>3d</fix>
</trkpt>
<trkpt lat="40.0728421" lon="-105.2305752">
  <ele>1587.04</ele>
  <time>2026-08-27T18:27:10Z</time>
  <course>11.36</course>
  <speed>0.01414213562373095</speed>
  <fix>3d</fix>
</trkpt>
<trkpt lat="40.0728421" lon="-105.2305753">
  <ele>1587.07</ele>
  <time>2026-08-27T18:27:10Z</time>
  <course>226.87</course>
  <speed>0.0</speed>
  <fix>3d</fix>
</trkpt>
<trkpt lat="40.0728421" lon="-105.2305752">
  <ele>1586.95</ele>
  <time>2026-08-27T18:27:10Z</time>
  <course>11.38</course>
  <speed>0.01414213562373095</speed>
  <fix>3d</fix>
</trkpt>
<trkpt lat="40.0728421" lon="-105.2305753">
  <ele>1586.97</ele>
  <time>2026-08-27T18:27:10Z</time>
  <course>241.97</course>
  <speed>0.0</speed>
  <fix>3d</fix>
</trkpt>
<trkpt lat="40.0728421" lon="-105.2305752">
  <ele>1586.85</ele>
  <time>2026-08-27T18:27:10Z</time>
  <course>11.38</course>
  <speed>0.01414213562373095</speed>
  <fix>3d</fix>
</trkpt>
<trkpt lat="40.0728421" lon="-105.2305753">
  <ele>1586.87</ele>
  <time>2026-08-27T18:27:10Z</time>
  <course>263.76</course>
  <speed>0.0</speed>
  <fix>3d</fix>
</trkpt>
<trkpt lat="40.0728421" lon="-105.2305752">
  <ele>1586.75</ele>
  <time>2026-08-27T18:27:10Z</time>
  <course>11.37</course>
  <speed>0.01414213562373095</speed>
  <fix>3d</fix>
</trkpt>
<trkpt lat="40.0728421" lon="-105.2305753">
  <ele>1586.77</ele>
  <time>2026-08-27T18:27:10Z</time>
  <course>289.03</course>
  <speed>0.0</speed>
  <fix>3d</fix>
</trkpt>
<trkpt lat="40.0728421" lon="-105.2305752">
  <ele>1586.65</ele>
  <time>2026-08-27T18:27:10Z</time>
  <course>11.38</course>
  <speed>0.01414213562373095</speed>
  <fix>3d</fix>
</trkpt>
<trkpt lat="40.0728421" lon="-105.2305753">
  <ele>1586.66</ele>
  <time>2026-08-27T18:27:10Z</time>
  <course>306.67</course>
  <speed>0.0</speed>
  <fix>3d</fix>
</trkpt>
<trkpt lat="40.0728421" lon="-105.2305752">
  <ele>1586.55</ele>
  <time>2026-08-27T18:27:10Z</time>
  <course>11.38</course>
  <speed>0.01414213562373095</speed>
  <fix>3d</fix>
</trkpt>
<trkpt lat="40.0728421" lon="-105.2305753">
  <ele>1586.57</ele>
  <time>2026-08-27T18:27:10Z</time>
  <course>316.42</course>
  <speed>0.0</speed>
  <fix>3d</fix>
</trkpt>
<trkpt lat="40.0728421" lon="-105.2305752">
  <ele>1586.45</ele>
  <time>2026-08-27T18:27:10Z</time>
  <course>11.39</course>
  <speed>0.01414213562373095</speed>
  <fix>3d</fix>
</trkpt>
<trkpt lat="40.0728421" lon="-105.2305753">
  <ele>1586.47</ele>
  <time>2026-08-27T18:27:10Z</time>
  <course>322.11</course>
  <speed>0.0</speed>
  <fix>3d</fix>
</trkpt>
<trkpt lat="40.0728421" lon="-105.2305752">
  <ele>1586.35</ele>
  <time>2026-08-27T18:27:10Z</time>
  <course>11.38</course>
  <speed>0.01</speed>
  <fix>3d</fix>
</trkpt>
<trkpt lat="40.0728421" lon="-105.2305753">
  <ele>1586.37</ele>
  <time>2026-08-27T18:27:10Z</time>
  <course>326.7</course>
  <speed>0.01</speed>
  <fix>3d</fix>
</trkpt>
<trkpt lat="40.0728421" lon="-105.2305752">
  <ele>1586.24</ele>
  <time>2026-08-27T18:27:10Z</time>
  <course>11.38</course>
  <speed>0.01</speed>
  <fix>3d</fix>
</trkpt>
<trkpt lat="40.0728421" lon="-105.2305753">
  <ele>1586.27</ele>
  <time>2026-08-27T18:27:10Z</time>
  <course>330.3</course>
  <speed>0.01</speed>
  <fix>3d</fix>
</trkpt>
<trkpt lat="40.0728421" lon="-105.2305752">
  <ele>1586.14</ele>
  <time>2026-08-27T18:27:10Z</time>
  <course>11.39</course>
  <speed>0.01</speed>
  <fix>3d</fix>
</trkpt>
<trkpt lat="40.0728421" lon="-105.2305753">
  <ele>1586.16</ele>
  <time>2026-08-27T18:27:10Z</time>
  <course>333.29</course>
  <speed>0.01</speed>
  <fix>3d</fix>
</trkpt>
<trkpt lat="40.0728421" lon="-105.2305752">
  <ele>1586.12</ele>
  <time>2026-08-27T18:27:10Z</time>
  <course>11.4</course>
  <speed>0.02</speed>
  <fix>3d</fix>
</trkpt>
<trkpt lat="40.0728421" lon="-105.2305754">
  <ele>1586.09</ele>
  <time>2026-08-27T18:27:10Z</time>
  <course>297.49</course>
  <speed>0.01</speed>
  <fix>3d</fix>
</trkpt>
<trkpt lat="40.0728421" lon="-105.2305752">
  <ele>1586.14</ele>
  <time>2026-08-27T18:27:10Z</time>
  <course>11.45</course>
  <speed>0.0282842712474619</speed>
  <fix>3d</fix>
</trkpt>
<trkpt lat="40.0728421" lon="-105.2305755">
  <ele>1586.08</ele>
  <time>2026-08-27T18:27:10Z</time>
  <course>280.43</course>
  <speed>0.01</speed>
  <fix>3d</fix>
</trkpt>
<trkpt lat="40.0728421" lon="-105.2305752">
  <ele>1586.13</ele>
  <time>2026-08-27T18:27:10Z</time>
  <course>11.47</course>
  <speed>0.0282842712474619</speed>
  <fix>3d</fix>
</trkpt>
<trkpt lat="40.0728421" lon="-105.2305755">
  <ele>1586.09</ele>
  <time>2026-08-27T18:27:10Z</time>
  <course>84.99</course>
  <speed>0.0</speed>
  <fix>3d</fix>
</trkpt>
<trkpt lat="40.0728421" lon="-105.2305752">
  <ele>1586.13</ele>
  <time>2026-08-27T18:27:10Z</time>
  <course>11.49</course>
  <speed>0.0282842712474619</speed>
  <fix>3d</fix>
</trkpt>
<trkpt lat="40.0728421" lon="-105.2305755">
  <ele>1586.09</ele>
  <time>2026-08-27T18:27:10Z</time>
  <course>94.3</course>
  <speed>0.0</speed>
  <fix>3d</fix>
</trkpt>
<trkpt lat="40.0728421" lon="-105.2305752">
  <ele>1586.13</ele>
  <time>2026-08-27T18:27:10Z</time>
  <course>11.5</course>
  <speed>0.0282842712474619</speed>
  <fix>3d</fix>
</trkpt>
<trkpt lat="40.0728421" lon="-105.2305755">
  <ele>1586.09</ele>
  <time>2026-08-27T18:27:10Z</time>
  <course>94.15</course>
  <speed>0.0</speed>
  <fix>3d</fix>
</trkpt>
<trkpt lat="40.0728421" lon="-105.2305752">
  <ele>1586.13</ele>
  <time>2026-08-27T18:27:10Z</time>
  <course>11.51</course>
  <speed>0.0282842712474619</speed>
  <fix>3d</fix>
</trkpt>
<trkpt lat="40.0728421" lon="-105.2305755">
  <ele>1586.09</ele>
  <time>2026-08-27T18:27:10Z</time>
  <course>86.2</course>
  <speed>0.0</speed>
  <fix>3d</fix>
</trkpt>
<trkpt lat="40.0728421" lon="-105.2305752">
  <ele>1586.13</ele>
  <time>2026-08-27T18:27:10Z</time>
  <course>11.52</course>
  <speed>0.0282842712474619</speed>
  <fix>3d</fix>
</trkpt>
<trkpt lat="40.0728421" lon="-105.2305755">
  <ele>1586.09</ele>
  <time>2026-08-27T18:27:10Z</time>
  <course>2.05</course>
  <speed>0.0</speed>
  <fix>3d</fix>
</trkpt>
<trkpt lat="40.072842" lon="-105.2305752">
  <ele>1586.13</ele>
  <time>2026-08-27T18:27:10Z</time>
  <course>11.53</course>
  <speed>0.0282842712474619</speed>
  <fix>3d</fix>
</trkpt>
<trkpt lat="40.0728421" lon="-105.2305755">
  <ele>1586.09</ele>
  <time>2026-08-27T18:27:10Z</time>
  <course>320.66</course>
  <speed>0.0</speed>
  <fix>3d</fix>
</trkpt>
<trkpt lat="40.072842" lon="-105.2305752">
  <ele>1586.13</ele>
  <time>2026-08-27T18:27:10Z</time>
  <course>11.54</course>
  <speed>0.0282842712474619</speed>
  <fix>3d</fix>
</trkpt>
<trkpt lat="40.0728421" lon="-105.2305755">
  <ele>1586.09</ele>
  <time>2026-08-27T18:27:10Z</time>
  <course>354.72</course>
  <speed>0.0</speed>
  <fix>3d</fix>
</trkpt>
<trkpt lat="40.072842" lon="-105.2305752">
  <ele>1586.13</ele>
  <time>2026-08-27T18:27:10Z</time>
  <course>11.55</course>
  <speed>0.0282842712474619</speed>
  <fix>3d</fix>
</trkpt>
<trkpt lat="40.0728421" lon="-105.2305755">
  <ele>1586.09</ele>
  <time>2026-08-27T18:27:10Z</time>
  <course>21.35</course>
  <speed>0.0</speed>
  <fix>3d</fix>
</trkpt>
<trkpt lat="40.072842" lon="-105.2305752">
  <ele>1586.13</ele>
  <time>2026-08-27T18:27:10Z</time>
  <course>11.56</course>
  <speed>0.03605551275463989</speed>
  <fix>3d</fix>
</trkpt>
<trkpt lat="40.0728421" lon="-105.2305755">
  <ele>1586.09</ele>
  <time>2026-08-27T18:27:10Z</time>
  <course>100.52</course>
  <speed>0.0</speed>
  <fix>3d</fix>
</trkpt>
<trkpt lat="40.072842" lon="-105.2305752">
  <ele>1586.13</ele>
  <time>2026-08-27T18:27:10Z</time>
  <course>11.55</course>
  <speed>0.0282842712474619</speed>
  <fix>3d</fix>
</trkpt>
<trkpt lat="40.0728421" lon="-105.2305754">
  <ele>1586.09</ele>
  <time>2026-08-27T18:27:10Z</time>
  <course>107.23</course>
  <speed>0.0</speed>
  <fix>3d</fix>
</trkpt>
<trkpt lat="40.072842" lon="-105.2305752">
  <ele>1586.13</ele>
  <time>2026-08-27T18:27:10Z</time>
  <course>11.52</course>
  <speed>0.022360679774997897</speed>
  <fix>3d</fix>
</trkpt>
<trkpt lat="40.0728421" lon="-105.2305753">
  <ele>1586.09</ele>
  <time>2026-08-27T18:27:10Z</time>
  <course>122.9</course>
  <speed>0.0</speed>
  <fix>3d</fix>
</trkpt>
<trkpt lat="40.072842" lon="-105.2305752">
  <ele>1586.13</ele>
  <time>2026-08-27T18:27:10Z</time>
  <course>11.49</course>
  <speed>0.022360679774997897</speed>
  <fix>3d</fix>
</trkpt>
<trkpt lat="40.0728421" lon="-105.2305753">
  <ele>1586.09</ele>
  <time>2026-08-27T18:27:10Z</time>
  <course>250.98</course>
  <speed>0.0</speed>
  <fix>3d</fix>
</trkpt>
<trkpt lat="40.072842" lon="-105.2305752">
  <ele>1586.14</ele>
  <time>2026-08-27T18:27:10Z</time>
  <course>11.46</course>
  <speed>0.022360679774997897</speed>
  <fix>3d</fix>
</trkpt>
<trkpt lat="40.0728421" lon="-105.2305753">
  <ele>1586.09</ele>
  <time>2026-08-27T18:27:10Z</time>
  <course>249.25</course>
  <speed>0.0</speed>
  <fix>3d</fix>
</trkpt>
<trkpt lat="40.072842" lon="-105.2305752">
  <ele>1586.14</ele>
  <time>2026-08-27T18:27:10Z</time>
  <course>11.43</course>
  <speed>0.0282842712474619</speed>
  <fix>3d</fix>
</trkpt>
<trkpt lat="40.0728421" lon="-105.2305753">
  <ele>1586.09</ele>
  <time>2026-08-27T18:27:10Z</time>
  <course>236.16</course>
  <speed>0.0</speed>
  <fix>3d</fix>
</trkpt>
<trkpt lat="40.072842" lon="-105.2305752">
  <ele>1586.14</ele>
  <time>2026-08-27T18:27:10Z</time>
  <course>11.4</course>
  <speed>0.0282842712474619</speed>
  <fix>3d</fix>
</trkpt>
<trkpt lat="40.0728421" lon="-105.2305753">
  <ele>1586.09</ele>
  <time>2026-08-27T18:27:10Z</time>
  <course>234.31</course>
  <speed>0.0</speed>
  <fix>3d</fix>
</trkpt>
<trkpt lat="40.072842" lon="-105.2305752">
  <ele>1586.14</ele>
  <time>2026-08-27T18:27:10Z</time>
  <course>11.37</course>
  <speed>0.0282842712474619</speed>
  <fix>3d</fix>
</trkpt>
<trkpt lat="40.0728421" lon="-105.2305753">
  <ele>1586.09</ele>
  <time>2026-08-27T18:27:10Z</time>
  <course>228.96</course>
  <speed>0.0</speed>
  <fix>3d</fix>
</trkpt>
<trkpt lat="40.072842" lon="-105.2305752">
  <ele>1586.14</ele>
  <time>2026-08-27T18:27:10Z</time>
  <course>11.34</course>
  <speed>0.0282842712474619</speed>
  <fix>3d</fix>
</trkpt>
<trkpt lat="40.0728421" lon="-105.2305753">
  <ele>1586.09</ele>
  <time>2026-08-27T18:27:10Z</time>
  <course>257.04</course>
  <speed>0.0</speed>
  <fix>3d</fix>
</trkpt>
<trkpt lat="40.072842" lon="-105.2305752">
  <ele>1586.14</ele>
  <time>2026-08-27T18:27:10Z</time>
  <course>11.31</course>
  <speed>0.0282842712474619</speed>
  <fix>3d</fix>
</trkpt>
<trkpt lat="40.0728421" lon="-105.2305753">
  <ele>1586.09</ele>
  <time>2026-08-27T18:27:10Z</time>
  <course>49.5</course>
  <speed>0.0</speed>
  <fix>3d</fix>
</trkpt>
<trkpt lat="40.072842" lon="-105.2305752">
  <ele>1586.14</ele>
  <time>2026-08-27T18:27:10Z</time>
  <course>11.28</course>
  <speed>0.0282842712474619</speed>
  <fix>3d</fix>
</trkpt>
<trkpt lat="40.0728421" lon="-105.2305753">
  <ele>1586.09</ele>
  <time>2026-08-27T18:27:10Z</time>
  <course>279.76</course>
  <speed>0.0</speed>
  <fix>3d</fix>
</trkpt>
<trkpt lat="40.072842" lon="-105.2305752">
  <ele>1586.14</ele>
  <time>2026-08-27T18:27:10Z</time>
  <course>11.25</course>
  <speed>0.0282842712474619</speed>
  <fix>3d</fix>
</trkpt>
<trkpt lat="40.0728421" lon="-105.2305753">
  <ele>1586.09</ele>
  <time>2026-08-27T18:27:10Z</time>
  <course>277.84</course>
  <speed>0.0</speed>
  <fix>3d</fix>
</trkpt>
<trkpt lat="40.072842" lon="-105.2305752">
  <ele>1586.14</ele>
  <time>2026-08-27T18:27:10Z</time>
  <course>11.22</course>
  <speed>0.0282842712474619</speed>
  <fix>3d</fix>
</trkpt>
<trkpt lat="40.0728421" lon="-105.2305753">
  <ele>1586.09</ele>
  <time>2026-08-27T18:27:10Z</time>
  <course>278.91</course>
  <speed>0.0</speed>
  <fix>3d</fix>
</trkpt>
<trkpt lat="40.072842" lon="-105.2305752">
  <ele>1586.15</ele>
  <time>2026-08-27T18:27:10Z</time>
  <course>11.19</course>
  <speed>0.0282842712474619</speed>
  <fix>3d</fix>
</trkpt>
<trkpt lat="40.0728421" lon="-105.2305753">
  <ele>1586.09</ele>
  <time>2026-08-27T18:27:10Z</time>
  <course>102.35</course>
  <speed>0.0</speed>
  <fix>3d</fix>
</trkpt>
<trkpt lat="40.072842" lon="-105.2305752">
  <ele>1586.15</ele>
  <time>2026-08-27T18:27:10Z</time>
  <course>11.16</course>
  <speed>0.0282842712474619</speed>
  <fix>3d</fix>
</trkpt>
<trkpt lat="40.0728421" lon="-105.2305753">
  <ele>1586.09</ele>
  <time>2026-08-27T18:27:10Z</time>
  <course>278.7</course>
  <speed>0.0</speed>
  <fix>3d</fix>
</trkpt>
<trkpt lat="40.072842" lon="-105.2305752">
  <ele>1586.15</ele>
  <time>2026-08-27T18:27:10Z</time>
  <course>11.13</course>
  <speed>0.0282842712474619</speed>
  <fix>3d</fix>
</trkpt>
<trkpt lat="40.0728421" lon="-105.2305753">
  <ele>1586.09</ele>
  <time>2026-08-27T18:27:10Z</time>
  <course>278.46</course>
  <speed>0.0</speed>
  <fix>3d</fix>
</trkpt>
<trkpt lat="40.072842" lon="-105.2305752">
  <ele>1586.14</ele>
  <time>2026-08-27T18:27:10Z</time>
  <course>11.1</course>
  <speed>0.0282842712474619</speed>
  <fix>3d</fix>
</trkpt>
<trkpt lat="40.0728421" lon="-105.2305753">
  <ele>1586.09</ele>
  <time>2026-08-27T18:27:10Z</time>
  <course>102.94</course>
  <speed>0.0</speed>
  <fix>3d</fix>
</trkpt>
<trkpt lat="40.072842" lon="-105.2305752">
  <ele>1586.14</ele>
  <time>2026-08-27T18:27:10Z</time>
  <course>11.07</course>
  <speed>0.0282842712474619</speed>
  <fix>3d</fix>
</trkpt>
<trkpt lat="40.0728421" lon="-105.2305753">
  <ele>1586.09</ele>
  <time>2026-08-27T18:27:10Z</time>
  <course>278.32</course>
  <speed>0.0</speed>
  <fix>3d</fix>
</trkpt>
<trkpt lat="40.072842" lon="-105.2305752">
  <ele>1586.14</ele>
  <time>2026-08-27T18:27:10Z</time>
  <course>11.03</course>
  <speed>0.0282842712474619</speed>
  <fix>3d</fix>
</trkpt>
<trkpt lat="40.0728421" lon="-105.2305753">
  <ele>1586.09</ele>
  <time>2026-08-27T18:27:10Z</time>
  <course>278.42</course>
  <speed>0.0</speed>
  <fix>3d</fix>
</trkpt>
<trkpt lat="40.072842" lon="-105.2305752">
  <ele>1586.15</ele>
  <time>2026-08-27T18:27:10Z</time>
  <course>11.0</course>
  <speed>0.022360679774997897</speed>
  <fix>3d</fix>
</trkpt>
<trkpt lat="40.0728421" lon="-105.2305753">
  <ele>1586.09</ele>
  <time>2026-08-27T18:27:10Z</time>
  <course>104.03</course>
  <speed>0.0</speed>
  <fix>3d</fix>
</trkpt>
<trkpt lat="40.072842" lon="-105.2305752">
  <ele>1586.15</ele>
  <time>2026-08-27T18:27:10Z</time>
  <course>10.97</course>
  <speed>0.022360679774997897</speed>
  <fix>3d</fix>
</trkpt>
<trkpt lat="40.0728421" lon="-105.2305753">
  <ele>1586.09</ele>
  <time>2026-08-27T18:27:10Z</time>
  <course>277.96</course>
  <speed>0.0</speed>
  <fix>3d</fix>
</trkpt>
<trkpt lat="40.072842" lon="-105.2305752">
  <ele>1586.15</ele>
  <time>2026-08-27T18:27:10Z</time>
  <course>10.94</course>
  <speed>0.022360679774997897</speed>
  <fix>3d</fix>
</trkpt>
<trkpt lat="40.0728421" lon="-105.2305753">
  <ele>1586.09</ele>
  <time>2026-08-27T18:27:10Z</time>
  <course>278.31</course>
  <speed>0.0</speed>
  <fix>3d</fix>
</trkpt>
<trkpt lat="40.072842" lon="-105.2305752">
  <ele>1586.15</ele>
  <time>2026-08-27T18:27:10Z</time>
  <course>10.91</course>
  <speed>0.022360679774997897</speed>
  <fix>3d</fix>
</trkpt>
<trkpt lat="40.0728421" lon="-105.2305753">
  <ele>1586.09</ele>
  <time>2026-08-27T18:27:10Z</time>
  <course>107.12</course>
  <speed>0.0</speed>
  <fix>3d</fix>
</trkpt>
<trkpt lat="40.072842" lon="-105.2305752">
  <ele>1586.15</ele>
  <time>2026-08-27T18:27:10Z</time>
  <course>10.88</course>
  <speed>0.022360679774997897</speed>
  <fix>3d</fix>
</trkpt>
<trkpt lat="40.0728421" lon="-105.2305753">
  <ele>1586.09</ele>
  <time>2026-08-27T18:27:10Z</time>
  <course>276.52</course>
  <speed>0.0</speed>
  <fix>3d</fix>
</trkpt>
<trkpt lat="40.072842" lon="-105.2305752">
  <ele>1586.16</ele>
  <time>2026-08-27T18:27:10Z</time>
  <course>10.85</course>
  <speed>0.022360679774997897</speed>
  <fix>3d</fix>
</trkpt>
<trkpt lat="40.0728421" lon="-105.2305753">
  <ele>1586.09</ele>
  <time>2026-08-27T18:27:10Z</time>
  <course>278.18</course>
  <speed>0.0</speed>
  <fix>3d</fix>
</trkpt>
<trkpt lat="40.072842" lon="-105.2305752">
  <ele>1586.16</ele>
  <time>2026-08-27T18:27:10Z</time>
  <course>10.82</course>
  <speed>0.022360679774997897</speed>
  <fix>3d</fix>
</trkpt>
<trkpt lat="40.0728421" lon="-105.2305753">
  <ele>1586.09</ele>
  <time>2026-08-27T18:27:10Z</time>
  <course>272.06</course>
  <speed>0.0</speed>
  <fix>3d</fix>
</trkpt>
<trkpt lat="40.072842" lon="-105.2305752">
  <ele>1586.16</ele>
  <time>2026-08-27T18:27:10Z</time>
  <course>10.79</course>
  <speed>0.022360679774997897</speed>
  <fix>3d</fix>
</trkpt>
<trkpt lat="40.0728421" lon="-105.2305753">
  <ele>1586.09</ele>
  <time>2026-08-27T18:27:10Z</time>
  <course>262.96</course>
  <speed>0.0</speed>
  <fix>3d</fix>
</trkpt>
<trkpt lat="40.072842" lon="-105.2305752">
  <ele>1586.16</ele>
  <time>2026-08-27T18:27:10Z</time>
  <course>10.76</course>
  <speed>0.022360679774997897</speed>
  <fix>3d</fix>
</trkpt>
<trkpt lat="40.0728421" lon="-105.2305753">
  <ele>1586.09</ele>
  <time>2026-08-27T18:27:10Z</time>
  <course>277.5</course>
  <speed>0.0</speed>
  <fix>3d</fix>
</trkpt>
<trkpt lat="40.072842" lon="-105.2305752">
  <ele>1586.16</ele>
  <time>2026-08-27T18:27:10Z</time>
  <course>10.73</course>
  <speed>0.022360679774997897</speed>
  <fix>3d</fix>
</trkpt>
<trkpt lat="40.0728421" lon="-105.2305753">
  <ele>1586.09</ele>
  <time>2026-08-27T18:27:10Z</time>
  <course>275.23</course>
  <speed>0.0</speed>
  <fix>3d</fix>
</trkpt>
<trkpt lat="40.072842" lon="-105.2305752">
  <ele>1586.16</ele>
  <time>2026-08-27T18:27:10Z</time>
  <course>10.7</course>
  <speed>0.022360679774997897</speed>
  <fix>3d</fix>
</trkpt>
<trkpt lat="40.0728421" lon="-105.2305753">
  <ele>1586.09</ele>
  <time>2026-08-27T18:27:10Z</time>
  <course>106.42</course>
  <speed>0.0</speed>
  <fix>3d</fix>
</trkpt>
<trkpt lat="40.072842" lon="-105.2305752">
  <ele>1586.16</ele>
  <time>2026-08-27T18:27:10Z</time>
  <course>10.67</course>
  <speed>0.022360679774997897</speed>
  <fix>3d</fix>
</trkpt>
<trkpt lat="40.0728421" lon="-105.2305753">
  <ele>1586.09</ele>
  <time>2026-08-27T18:27:10Z</time>
  <course>276.21</course>
  <speed>0.0</speed>
  <fix>3d</fix>
</trkpt>
<trkpt lat="40.072842" lon="-105.2305752">
  <ele>1586.16</ele>
  <time>2026-08-27T18:27:10Z</time>
  <course>10.64</course>
  <speed>0.022360679774997897</speed>
  <fix>3d</fix>
</trkpt>
<trkpt lat="40.0728421" lon="-105.2305753">
  <ele>1586.09</ele>
  <time>2026-08-27T18:27:10Z</time>
  <course>276.25</course>
  <speed>0.0</speed>
  <fix>3d</fix>
</trkpt>
<trkpt lat="40.072842" lon="-105.2305752">
  <ele>1586.16</ele>
  <time>2026-08-27T18:27:10Z</time>
  <course>10.61</course>
  <speed>0.022360679774997897</speed>
  <fix>3d</fix>
</trkpt>
<trkpt lat="40.0728421" lon="-105.2305753">
  <ele>1586.09</ele>
  <time>2026-08-27T18:27:10Z</time>
  <course>109.53</course>
  <speed>0.0</speed>
  <fix>3d</fix>
</trkpt>
<trkpt lat="40.072842" lon="-105.2305752">
  <ele>1586.16</ele>
  <time>2026-08-27T18:27:10Z</time>
  <course>10.58</course>
  <speed>0.022360679774997897</speed>
  <fix>3d</fix>
</trkpt>
<trkpt lat="40.0728421" lon="-105.2305753">
  <ele>1586.09</ele>
  <time>2026-08-27T18:27:10Z</time>
  <course>276.11</course>
  <speed>0.0</speed>
  <fix>3d</fix>
</trkpt>
<trkpt lat="40.072842" lon="-105.2305752">
  <ele>1586.16</ele>
  <time>2026-08-27T18:27:10Z</time>
  <course>10.55</course>
  <speed>0.022360679774997897</speed>
  <fix>3d</fix>
</trkpt>
<trkpt lat="40.0728421" lon="-105.2305753">
  <ele>1586.09</ele>
  <time>2026-08-27T18:27:10Z</time>
  <course>276.52</course>
  <speed>0.0</speed>
  <fix>3d</fix>
</trkpt>
<trkpt lat="40.072842" lon="-105.2305752">
  <ele>1586.16</ele>
  <time>2026-08-27T18:27:10Z</time>
  <course>10.52</course>
  <speed>0.022360679774997897</speed>
  <fix>3d</fix>
</trkpt>
<trkpt lat="40.0728421" lon="-105.2305753">
  <ele>1586.09</ele>
  <time>2026-08-27T18:27:10Z</time>
  <course>118.31</course>
  <speed>0.0</speed>
  <fix>3d</fix>
</trkpt>
<trkpt lat="40.072842" lon="-105.2305752">
  <ele>1586.16</ele>
  <time>2026-08-27T18:27:10Z</time>
  <course>10.48</course>
  <speed>0.022360679774997897</speed>
  <fix>3d</fix>
</trkpt>
<trkpt lat="40.0728421" lon="-105.2305753">
  <ele>1586.09</ele>
  <time>2026-08-27T18:27:10Z</time>
  <course>275.56</course>
  <speed>0.0</speed>
  <fix>3d</fix>
</trkpt>
<trkpt lat="40.072842" lon="-105.2305752">
  <ele>1586.16</ele>
  <time>2026-08-27T18:27:10Z</time>
  <course>10.45</course>
  <speed>0.022360679774997897</speed>
  <fix>3d</fix>
</trkpt>
<trkpt lat="40.0728421" lon="-105.2305753">
  <ele>1586.09</ele>
  <time>2026-08-27T18:27:10Z</time>
  <course>276.93</course>
  <speed>0.0</speed>
  <fix>3d</fix>
</trkpt>
<trkpt lat="40.072842" lon="-105.2305752">
  <ele>1586.16</ele>
  <time>2026-08-27T18:27:10Z</time>
  <course>10.42</course>
  <speed>0.022360679774997897</speed>
  <fix>3d</fix>
</trkpt>
<trkpt lat="40.0728421" lon="-105.2305753">
  <ele>1586.09</ele>
  <time>2026-08-27T18:27:10Z</time>
  <course>266.95</course>
  <speed>0.0</speed>
  <fix>3d</fix>
</trkpt>
<trkpt lat="40.072842" lon="-105.2305752">
  <ele>1586.16</ele>
  <time>2026-08-27T18:27:10Z</time>
  <course>10.39</course>
  <speed>0.022360679774997897</speed>
  <fix>3d</fix>
</trkpt>
<trkpt lat="40.0728421" lon="-105.2305753">
  <ele>1586.09</ele>
  <time>2026-08-27T18:27:10Z</time>
  <course>154.15</course>
  <speed>0.0</speed>
  <fix>3d</fix>
</trkpt>
<trkpt lat="40.072842" lon="-105.2305752">
  <ele>1586.16</ele>
  <time>2026-08-27T18:27:10Z</time>
  <course>10.36</course>
  <speed>0.022360679774997897</speed>
  <fix>3d</fix>
</trkpt>
<trkpt lat="40.0728421" lon="-105.2305753">
  <ele>1586.09</ele>
  <time>2026-08-27T18:27:10Z</time>
  <course>275.51</course>
  <speed>0.0</speed>
  <fix>3d</fix>
</trkpt>
<trkpt lat="40.072842" lon="-105.2305752">
  <ele>1586.16</ele>
  <time>2026-08-27T18:27:10Z</time>
  <course>10.33</course>
  <speed>0.022360679774997897</speed>
  <fix>3d</fix>
</trkpt>
<trkpt lat="40.0728421" lon="-105.2305753">
  <ele>1586.09</ele>
  <time>2026-08-27T18:27:10Z</time>
  <course>274.72</course>
  <speed>0.0</speed>
  <fix>3d</fix>
</trkpt>
<trkpt lat="40.072842" lon="-105.2305752">
  <ele>1586.16</ele>
  <time>2026-08-27T18:27:10Z</time>
  <course>10.3</course>
  <speed>0.022360679774997897</speed>
  <fix>3d</fix>
</trkpt>
<trkpt lat="40.0728421" lon="-105.2305753">
  <ele>1586.09</ele>
  <time>2026-08-27T18:27:10Z</time>
  <course>135.88</course>
  <speed>0.0</speed>
  <fix>3d</fix>
</trkpt>
<trkpt lat="40.072842" lon="-105.2305752">
  <ele>1586.16</ele>
  <time>2026-08-27T18:27:10Z</time>
  <course>10.27</course>
  <speed>0.022360679774997897</speed>
  <fix>3d</fix>
</trkpt>
<trkpt lat="40.0728421" lon="-105.2305753">
  <ele>1586.09</ele>
  <time>2026-08-27T18:27:10Z</time>
  <course>274.47</course>
  <speed>0.0</speed>
  <fix>3d</fix>
</trkpt>
<trkpt lat="40.072842" lon="-105.2305752">
  <ele>1586.17</ele>
  <time>2026-08-27T18:27:10Z</time>
  <course>10.24</course>
  <speed>0.022360679774997897</speed>
  <fix>3d</fix>
</trkpt>
<trkpt lat="40.0728421" lon="-105.2305753">
  <ele>1586.09</ele>
  <time>2026-08-27T18:27:10Z</time>
  <course>273.55</course>
  <speed>0.0</speed>
  <fix>3d</fix>
</trkpt>
<trkpt lat="40.072842" lon="-105.2305752">
  <ele>1586.17</ele>
  <time>2026-08-27T18:27:10Z</time>
  <course>10.21</course>
  <speed>0.022360679774997897</speed>
  <fix>3d</fix>
</trkpt>
<trkpt lat="40.0728421" lon="-105.2305753">
  <ele>1586.09</ele>
  <time>2026-08-27T18:27:10Z</time>
  <course>108.08</course>
  <speed>0.0</speed>
  <fix>3d</fix>
</trkpt>
<trkpt lat="40.072842" lon="-105.2305752">
  <ele>1586.16</ele>
  <time>2026-08-27T18:27:10Z</time>
  <course>10.17</course>
  <speed>0.022360679774997897</speed>
  <fix>3d</fix>
</trkpt>
<trkpt lat="40.0728421" lon="-105.2305753">
  <ele>1586.09</ele>
  <time>2026-08-27T18:27:10Z</time>
  <course>271.74</course>
  <speed>0.0</speed>
  <fix>3d</fix>
</trkpt>
<trkpt lat="40.072842" lon="-105.2305752">
  <ele>1586.16</ele>
  <time>2026-08-27T18:27:10Z</time>
  <course>10.14</course>
  <speed>0.022360679774997897</speed>
  <fix>3d</fix>
</trkpt>
<trkpt lat="40.0728421" lon="-105.2305753">
  <ele>1586.09</ele>
  <time>2026-08-27T18:27:10Z</time>
  <course>273.31</course>
  <speed>0.0</speed>
  <fix>3d</fix>
</trkpt>
<trkpt lat="40.072842" lon="-105.2305752">
  <ele>1586.16</ele>
  <time>2026-08-27T18:27:11Z</time>
  <course>10.11</course>
  <speed>0.022360679774997897</speed>
  <fix>3d</fix>
</trkpt>
<trkpt lat="40.0728421" lon="-105.2305753">
  <ele>1586.09</ele>
  <time>2026-08-27T18:27:11Z</time>
  <course>110.42</course>
  <speed>0.0</speed>
  <fix>3d</fix>
</trkpt>
<trkpt lat="40.072842" lon="-105.2305752">
  <ele>1586.16</ele>
  <time>2026-08-27T18:27:11Z</time>
  <course>10.08</course>
  <speed>0.022360679774997897</speed>
  <fix>3d</fix>
</trkpt>
<trkpt lat="40.0728421" lon="-105.2305753">
  <ele>1586.09</ele>
  <time>2026-08-27T18:27:11Z</time>
  <course>265.83</course>
  <speed>0.0</speed>
  <fix>3d</fix>
</trkpt>
<trkpt lat="40.072842" lon="-105.2305752">
  <ele>1586.16</ele>
  <time>2026-08-27T18:27:11Z</time>
  <course>10.05</course>
  <speed>0.022360679774997897</speed>
  <fix>3d</fix>
</trkpt>
<trkpt lat="40.0728421" lon="-105.2305753">
  <ele>1586.09</ele>
  <time>2026-08-27T18:27:11Z</time>
  <course>273.25</course>
  <speed>0.0</speed>
  <fix>3d</fix>
</trkpt>
<trkpt lat="40.072842" lon="-105.2305752">
  <ele>1586.16</ele>
  <time>2026-08-27T18:27:11Z</time>
  <course>10.02</course>
  <speed>0.022360679774997897</speed>
  <fix>3d</fix>
</trkpt>
<trkpt lat="40.0728421" lon="-105.2305753">
  <ele>1586.09</ele>
  <time>2026-08-27T18:27:11Z</time>
  <course>134.66</course>
  <speed>0.0</speed>
  <fix>3d</fix>
</trkpt>
<trkpt lat="40.072842" lon="-105.2305752">
  <ele>1586.16</ele>
  <time>2026-08-27T18:27:11Z</time>
  <course>9.99</course>
  <speed>0.022360679774997897</speed>
  <fix>3d</fix>
</trkpt>
<trkpt lat="40.0728421" lon="-105.2305753">
  <ele>1586.09</ele>
  <time>2026-08-27T18:27:11Z</time>
  <course>234.11</course>
  <speed>0.0</speed>
  <fix>3d</fix>
</trkpt>
<trkpt lat="40.072842" lon="-105.2305752">
  <ele>1586.16</ele>
  <time>2026-08-27T18:27:11Z</time>
  <course>9.95</course>
  <speed>0.022360679774997897</speed>
  <fix>3d</fix>
</trkpt>
<trkpt lat="40.0728421" lon="-105.2305753">
  <ele>1586.09</ele>
  <time>2026-08-27T18:27:11Z</time>
  <course>270.75</course>
  <speed>0.0</speed>
  <fix>3d</fix>
</trkpt>
<trkpt lat="40.072842" lon="-105.2305752">
  <ele>1586.16</ele>
  <time>2026-08-27T18:27:11Z</time>
  <course>9.92</course>
  <speed>0.022360679774997897</speed>
  <fix>3d</fix>
</trkpt>
<trkpt lat="40.0728421" lon="-105.2305753">
  <ele>1586.09</ele>
  <time>2026-08-27T18:27:11Z</time>
  <course>145.24</course>
  <speed>0.0</speed>
  <fix>3d</fix>
</trkpt>
<trkpt lat="40.072842" lon="-105.2305752">
  <ele>1586.16</ele>
  <time>2026-08-27T18:27:11Z</time>
  <course>9.89</course>
  <speed>0.022360679774997897</speed>
  <fix>3d</fix>
</trkpt>
<trkpt lat="40.0728421" lon="-105.2305753">
  <ele>1586.09</ele>
  <time>2026-08-27T18:27:11Z</time>
  <course>136.66</course>
  <speed>0.0</speed>
  <fix>3d</fix>
</trkpt>
<trkpt lat="40.072842" lon="-105.2305752">
  <ele>1586.17</ele>
  <time>2026-08-27T18:27:11Z</time>
  <course>9.86</course>
  <speed>0.022360679774997897</speed>
  <fix>3d</fix>
</trkpt>
<trkpt lat="40.0728421" lon="-105.2305753">
  <ele>1586.09</ele>
  <time>2026-08-27T18:27:11Z</time>
  <course>266.01</course>
  <speed>0.0</speed>
  <fix>3d</fix>
</trkpt>
<trkpt lat="40.072842" lon="-105.2305752">
  <ele>1586.17</ele>
  <time>2026-08-27T18:27:11Z</time>
  <course>9.83</course>
  <speed>0.022360679774997897</speed>
  <fix>3d</fix>
</trkpt>
<trkpt lat="40.0728421" lon="-105.2305753">
  <ele>1586.09</ele>
  <time>2026-08-27T18:27:11Z</time>
  <course>161.92</course>
  <speed>0.0</speed>
  <fix>3d</fix>
</trkpt>
<trkpt lat="40.072842" lon="-105.2305752">
  <ele>1586.17</ele>
  <time>2026-08-27T18:27:11Z</time>
  <course>9.8</course>
  <speed>0.022360679774997897</speed>
  <fix>3d</fix>
</trkpt>
<trkpt lat="40.0728421" lon="-105.2305753">
  <ele>1586.09</ele>
  <time>2026-08-27T18:27:11Z</time>
  <course>120.35</course>
  <speed>0.0</speed>
  <fix>3d</fix>
</trkpt>
<trkpt lat="40.072842" lon="-105.2305752">
  <ele>1586.16</ele>
  <time>2026-08-27T18:27:11Z</time>
  <course>9.76</course>
  <speed>0.022360679774997897</speed>
  <fix>3d</fix>
</trkpt>
<trkpt lat="40.0728421" lon="-105.2305753">
  <ele>1586.09</ele>
  <time>2026-08-27T18:27:11Z</time>
  <course>256.26</course>
  <speed>0.0</speed>
  <fix>3d</fix>
</trkpt>
<trkpt lat="40.072842" lon="-105.2305752">
  <ele>1586.16</ele>
  <time>2026-08-27T18:27:11Z</time>
  <course>9.73</course>
  <speed>0.022360679774997897</speed>
  <fix>3d</fix>
</trkpt>
<trkpt lat="40.0728421" lon="-105.2305753">
  <ele>1586.09</ele>
  <time>2026-08-27T18:27:11Z</time>
  <course>170.82</course>
  <speed>0.0</speed>
  <fix>3d</fix>
</trkpt>
<trkpt lat="40.072842" lon="-105.2305752">
  <ele>1586.17</ele>
  <time>2026-08-27T18:27:11Z</time>
  <course>9.7</course>
  <speed>0.022360679774997897</speed>
  <fix>3d</fix>
</trkpt>
<trkpt lat="40.0728421" lon="-105.2305753">
  <ele>1586.09</ele>
  <time>2026-08-27T18:27:11Z</time>
  <course>111.99</course>
  <speed>0.0</speed>
  <fix>3d</fix>
</trkpt>
<trkpt lat="40.072842" lon="-105.2305752">
  <ele>1586.17</ele>
  <time>2026-08-27T18:27:11Z</time>
  <course>9.67</course>
  <speed>0.022360679774997897</speed>
  <fix>3d</fix>
</trkpt>
<trkpt lat="40.0728421" lon="-105.2305753">
  <ele>1586.09</ele>
  <time>2026-08-27T18:27:11Z</time>
  <course>228.41</course>
  <speed>0.0</speed>
  <fix>3d</fix>
</trkpt>
<trkpt lat="40.072842" lon="-105.2305752">
  <ele>1586.17</ele>
  <time>2026-08-27T18:27:11Z</time>
  <course>9.64</course>
  <speed>0.022360679774997897</speed>
  <fix>3d</fix>
</trkpt>
<trkpt lat="40.0728421" lon="-105.2305753">
  <ele>1586.09</ele>
  <time>2026-08-27T18:27:11Z</time>
  <course>240.61</course>
  <speed>0.0</speed>
  <fix>3d</fix>
</trkpt>
<trkpt lat="40.072842" lon="-105.2305752">
  <ele>1586.17</ele>
  <time>2026-08-27T18:27:11Z</time>
  <course>9.6</course>
  <speed>0.022360679774997897</speed>
  <fix>3d</fix>
</trkpt>
<trkpt lat="40.0728421" lon="-105.2305753">
  <ele>1586.09</ele>
  <time>2026-08-27T18:27:11Z</time>
  <course>118.11</course>
  <speed>0.0</speed>
  <fix>3d</fix>
</trkpt>
<trkpt lat="40.072842" lon="-105.2305752">
  <ele>1586.17</ele>
  <time>2026-08-27T18:27:11Z</time>
  <course>9.57</course>
  <speed>0.022360679774997897</speed>
  <fix>3d</fix>
</trkpt>
<trkpt lat="40.0728421" lon="-105.2305753">
  <ele>1586.09</ele>
  <time>2026-08-27T18:27:11Z</time>
  <course>218.13</course>
  <speed>0.0</speed>
  <fix>3d</fix>
</trkpt>
<trkpt lat="40.072842" lon="-105.2305752">
  <ele>1586.17</ele>
  <time>2026-08-27T18:27:11Z</time>
  <course>9.54</course>
  <speed>0.01414213562373095</speed>
  <fix>3d</fix>
</trkpt>
<trkpt lat="40.0728421" lon="-105.2305753">
  <ele>1586.09</ele>
  <time>2026-08-27T18:27:11Z</time>
  <course>242.12</course>
  <speed>0.0</speed>
  <fix>3d</fix>
</trkpt>
<trkpt lat="40.072842" lon="-105.2305752">
  <ele>1586.17</ele>
  <time>2026-08-27T18:27:11Z</time>
  <course>9.51</course>
  <speed>0.01414213562373095</speed>
  <fix>3d</fix>
</trkpt>
<trkpt lat="40.0728421" lon="-105.2305753">
  <ele>1586.09</ele>
  <time>2026-08-27T18:27:11Z</time>
  <course>134.67</course>
  <speed>0.0</speed>
  <fix>3d</fix>
</trkpt>
<trkpt lat="40.072842" lon="-105.2305752">
  <ele>1586.17</ele>
  <time>2026-08-27T18:27:11Z</time>
  <course>9.47</course>
  <speed>0.01414213562373095</speed>
  <fix>3d</fix>
</trkpt>
<trkpt lat="40.0728421" lon="-105.2305753">
  <ele>1586.09</ele>
  <time>2026-08-27T18:27:11Z</time>
  <course>234.64</course>
  <speed>0.0</speed>
  <fix>3d</fix>
</trkpt>
<trkpt lat="40.072842" lon="-105.2305752">
  <ele>1586.17</ele>
  <time>2026-08-27T18:27:11Z</time>
  <course>9.44</course>
  <speed>0.022360679774997897</speed>
  <fix>3d</fix>
</trkpt>
<trkpt lat="40.0728421" lon="-105.2305753">
  <ele>1586.09</ele>
  <time>2026-08-27T18:27:11Z</time>
  <course>249.94</course>
  <speed>0.0</speed>
  <fix>3d</fix>
</trkpt>
<trkpt lat="40.072842" lon="-105.2305752">
  <ele>1586.17</ele>
  <time>2026-08-27T18:27:11Z</time>
  <course>9.41</course>
  <speed>0.01414213562373095</speed>
  <fix>3d</fix>
</trkpt>
<trkpt lat="40.0728421" lon="-105.2305753">
  <ele>1586.09</ele>
  <time>2026-08-27T18:27:11Z</time>
  <course>207.55</course>
  <speed>0.0</speed>
  <fix>3d</fix>
</trkpt>
<trkpt lat="40.072842" lon="-105.2305752">
  <ele>1586.18</ele>
  <time>2026-08-27T18:27:11Z</time>
  <course>9.38</course>
  <speed>0.01414213562373095</speed>
  <fix>3d</fix>
</trkpt>
<trkpt lat="40.0728421" lon="-105.2305753">
  <ele>1586.09</ele>
  <time>2026-08-27T18:27:11Z</time>
  <course>252.51</course>
  <speed>0.0</speed>
  <fix>3d</fix>
</trkpt>
<trkpt lat="40.072842" lon="-105.2305752">
  <ele>1586.18</ele>
  <time>2026-08-27T18:27:11Z</time>
  <course>9.34</course>
  <speed>0.01414213562373095</speed>
  <fix>3d</fix>
</trkpt>
<trkpt lat="40.0728421" lon="-105.2305753">
  <ele>1586.09</ele>
  <time>2026-08-27T18:27:11Z</time>
  <course>259.08</course>
  <speed>0.0</speed>
  <fix>3d</fix>
</trkpt>
<trkpt lat="40.072842" lon="-105.2305752">
  <ele>1586.18</ele>
  <time>2026-08-27T18:27:11Z</time>
  <course>9.31</course>
  <speed>0.01414213562373095</speed>
  <fix>3d</fix>
</trkpt>
<trkpt lat="40.0728421" lon="-105.2305753">
  <ele>1586.09</ele>
  <time>2026-08-27T18:27:11Z</time>
  <course>255.55</course>
  <speed>0.0</speed>
  <fix>3d</fix>
</trkpt>
<trkpt lat="40.072842" lon="-105.2305752">
  <ele>1586.18</ele>
  <time>2026-08-27T18:27:11Z</time>
  <course>9.3</course>
  <speed>0.01414213562373095</speed>
  <fix>3d</fix>
</trkpt>
<trkpt lat="40.0728421" lon="-105.2305753">
  <ele>1586.09</ele>
  <time>2026-08-27T18:27:11Z</time>
  <course>263.18</course>
  <speed>0.0</speed>
  <fix>3d</fix>
</trkpt>
<trkpt lat="40.072842" lon="-105.2305752">
  <ele>1586.19</ele>
  <time>2026-08-27T18:27:11Z</time>
  <course>9.46</course>
  <speed>0.01414213562373095</speed>
  <fix>3d</fix>
</trkpt>
<trkpt lat="40.0728421" lon="-105.2305753">
  <ele>1586.09</ele>
  <time>2026-08-27T18:27:11Z</time>
  <course>126.74</course>
  <speed>0.0</speed>
  <fix>3d</fix>
</trkpt>
<trkpt lat="40.072842" lon="-105.2305752">
  <ele>1586.19</ele>
  <time>2026-08-27T18:27:11Z</time>
  <course>9.65</course>
  <speed>0.022360679774997897</speed>
  <fix>3d</fix>
</trkpt>
<trkpt lat="40.0728421" lon="-105.2305753">
  <ele>1586.09</ele>
  <time>2026-08-27T18:27:11Z</time>
  <course>247.85</course>
  <speed>0.0</speed>
  <fix>3d</fix>
</trkpt>
<trkpt lat="40.072842" lon="-105.2305752">
  <ele>1586.18</ele>
  <time>2026-08-27T18:27:11Z</time>
  <course>9.82</course>
  <speed>0.022360679774997897</speed>
  <fix>3d</fix>
</trkpt>
<trkpt lat="40.0728421" lon="-105.2305753">
  <ele>1586.09</ele>
  <time>2026-08-27T18:27:11Z</time>
  <course>355.64</course>
  <speed>0.0</speed>
  <fix>3d</fix>
</trkpt>
<trkpt lat="40.072842" lon="-105.2305752">
  <ele>1586.19</ele>
  <time>2026-08-27T18:27:11Z</time>
  <course>9.98</course>
  <speed>0.022360679774997897</speed>
  <fix>3d</fix>
</trkpt>
<trkpt lat="40.0728421" lon="-105.2305753">
  <ele>1586.09</ele>
  <time>2026-08-27T18:27:11Z</time>
  <course>329.58</course>
  <speed>0.0</speed>
  <fix>3d</fix>
</trkpt>
<trkpt lat="40.072842" lon="-105.2305752">
  <ele>1586.19</ele>
  <time>2026-08-27T18:27:11Z</time>
  <course>10.14</course>
  <speed>0.022360679774997897</speed>
  <fix>3d</fix>
</trkpt>
<trkpt lat="40.0728421" lon="-105.2305753">
  <ele>1586.09</ele>
  <time>2026-08-27T18:27:11Z</time>
  <course>312.6</course>
  <speed>0.0</speed>
  <fix>3d</fix>
</trkpt>
<trkpt lat="40.072842" lon="-105.2305752">
  <ele>1586.19</ele>
  <time>2026-08-27T18:27:11Z</time>
  <course>10.29</course>
  <speed>0.022360679774997897</speed>
  <fix>3d</fix>
</trkpt>
<trkpt lat="40.0728421" lon="-105.2305753">
  <ele>1586.09</ele>
  <time>2026-08-27T18:27:11Z</time>
  <course>183.21</course>
  <speed>0.0</speed>
  <fix>3d</fix>
</trkpt>
<trkpt lat="40.072842" lon="-105.2305752">
  <ele>1586.19</ele>
  <time>2026-08-27T18:27:11Z</time>
  <course>10.44</course>
  <speed>0.022360679774997897</speed>
  <fix>3d</fix>
</trkpt>
<trkpt lat="40.0728421" lon="-105.2305753">
  <ele>1586.09</ele>
  <time>2026-08-27T18:27:11Z</time>
  <course>253.24</course>
  <speed>0.0</speed>
  <fix>3d</fix>
</trkpt>
<trkpt lat="40.072842" lon="-105.2305752">
  <ele>1586.19</ele>
  <time>2026-08-27T18:27:11Z</time>
  <course>10.58</course>
  <speed>0.022360679774997897</speed>
  <fix>3d</fix>
</trkpt>
<trkpt lat="40.0728421" lon="-105.2305753">
  <ele>1586.09</ele>
  <time>2026-08-27T18:27:11Z</time>
  <course>307.36</course>
  <speed>0.0</speed>
  <fix>3d</fix>
</trkpt>
<trkpt lat="40.072842" lon="-105.2305752">
  <ele>1586.18</ele>
  <time>2026-08-27T18:27:11Z</time>
  <course>10.72</course>
  <speed>0.022360679774997897</speed>
  <fix>3d</fix>
</trkpt>
<trkpt lat="40.0728421" lon="-105.2305753">
  <ele>1586.09</ele>
  <time>2026-08-27T18:27:11Z</time>
  <course>281.47</course>
  <speed>0.0</speed>
  <fix>3d</fix>
</trkpt>
<trkpt lat="40.072842" lon="-105.2305752">
  <ele>1586.19</ele>
  <time>2026-08-27T18:27:11Z</time>
  <course>10.85</course>
  <speed>0.022360679774997897</speed>
  <fix>3d</fix>
</trkpt>
<trkpt lat="40.0728421" lon="-105.2305753">
  <ele>1586.09</ele>
  <time>2026-08-27T18:27:11Z</time>
  <course>273.15</course>
  <speed>0.0</speed>
  <fix>3d</fix>
</trkpt>
<trkpt lat="40.072842" lon="-105.2305752">
  <ele>1586.19</ele>
  <time>2026-08-27T18:27:11Z</time>
  <course>10.98</course>
  <speed>0.022360679774997897</speed>
  <fix>3d</fix>
</trkpt>
<trkpt lat="40.0728421" lon="-105.2305753">
  <ele>1586.09</ele>
  <time>2026-08-27T18:27:11Z</time>
  <course>198.86</course>
  <speed>0.0</speed>
  <fix>3d</fix>
</trkpt>
<trkpt lat="40.072842" lon="-105.2305752">
  <ele>1586.19</ele>
  <time>2026-08-27T18:27:11Z</time>
  <course>11.1</course>
  <speed>0.022360679774997897</speed>
  <fix>3d</fix>
</trkpt>
<trkpt lat="40.0728421" lon="-105.2305753">
  <ele>1586.09</ele>
  <time>2026-08-27T18:27:11Z</time>
  <course>37.09</course>
  <speed>0.0</speed>
  <fix>3d</fix>
</trkpt>
<trkpt lat="40.072842" lon="-105.2305752">
  <ele>1586.18</ele>
  <time>2026-08-27T18:27:11Z</time>
  <course>11.22</course>
  <speed>0.022360679774997897</speed>
  <fix>3d</fix>
</trkpt>
<trkpt lat="40.0728421" lon="-105.2305753">
  <ele>1586.09</ele>
  <time>2026-08-27T18:27:11Z</time>
  <course>291.76</course>
  <speed>0.0</speed>
  <fix>3d</fix>
</trkpt>
<trkpt lat="40.072842" lon="-105.2305752">
  <ele>1586.18</ele>
  <time>2026-08-27T18:27:11Z</time>
  <course>11.34</course>
  <speed>0.022360679774997897</speed>
  <fix>3d</fix>
</trkpt>
<trkpt lat="40.0728421" lon="-105.2305753">
  <ele>1586.09</ele>
  <time>2026-08-27T18:27:11Z</time>
  <course>283.91</course>
  <speed>0.0</speed>
  <fix>3d</fix>
</trkpt>
<trkpt lat="39.6562421" lon="-104.1365912">
  <ele>1569.6</ele>
  <time>2026-08-27T18:27:12Z</time>
  <course>14.17</course>
  <speed>0.0</speed>
  <fix>3d</fix>
</trkpt>
<trkpt lat="40.072842" lon="-105.230575">
  <ele>1586.09</ele>
  <time>2026-08-27T18:27:12Z</time>
  <course>2.03</course>
  <speed>0.0</speed>
  <fix>3d</fix>
</trkpt>
<trkpt lat="40.072842" lon="-105.230575">
  <ele>1586.09</ele>
  <time>2026-08-27T18:27:12Z</time>
  <course>344.04</course>
  <speed>0.0</speed>
  <fix>3d</fix>
</trkpt>
<trkpt lat="40.072842" lon="-105.230575">
  <ele>1586.09</ele>
  <time>2026-08-27T18:27:12Z</time>
  <course>2.51</course>
  <speed>0.0</speed>
  <fix>3d</fix>
</trkpt>
<trkpt lat="40.072842" lon="-105.230575">
  <ele>1586.09</ele>
  <time>2026-08-27T18:27:12Z</time>
  <course>236.53</course>
  <speed>0.0</speed>
  <fix>3d</fix>
</trkpt>
<trkpt lat="40.072842" lon="-105.230575">
  <ele>1586.09</ele>
  <time>2026-08-27T18:27:12Z</time>
  <course>3.26</course>
  <speed>0.0</speed>
  <fix>3d</fix>
</trkpt>
<trkpt lat="40.072842" lon="-105.230575">
  <ele>1586.09</ele>
  <time>2026-08-27T18:27:12Z</time>
  <course>181.85</course>
  <speed>0.0</speed>
  <fix>3d</fix>
</trkpt>
<trkpt lat="40.072842" lon="-105.230575">
  <ele>1586.09</ele>
  <time>2026-08-27T18:27:12Z</time>
  <course>3.93</course>
  <speed>0.0</speed>
  <fix>3d</fix>
</trkpt>
<trkpt lat="40.072842" lon="-105.230575">
  <ele>1586.09</ele>
  <time>2026-08-27T18:27:12Z</time>
  <course>38.5</course>
  <speed>0.0</speed>
  <fix>3d</fix>
</trkpt>
<trkpt lat="40.072842" lon="-105.230575">
  <ele>1586.09</ele>
  <time>2026-08-27T18:27:12Z</time>
  <course>4.55</course>
  <speed>0.0</speed>
  <fix>3d</fix>
</trkpt>
<trkpt lat="40.072842" lon="-105.230575">
  <ele>1586.09</ele>
  <time>2026-08-27T18:27:12Z</time>
  <course>341.08</course>
  <speed>0.0</speed>
  <fix>3d</fix>
</trkpt>
<trkpt lat="40.072842" lon="-105.230575">
  <ele>1586.09</ele>
  <time>2026-08-27T18:27:12Z</time>
  <course>5.14</course>
  <speed>0.0</speed>
  <fix>3d</fix>
</trkpt>
<trkpt lat="40.072842" lon="-105.230575">
  <ele>1586.09</ele>
  <time>2026-08-27T18:27:12Z</time>
  <course>79.87</course>
  <speed>0.0</speed>
  <fix>3d</fix>
</trkpt>
<trkpt lat="40.072842" lon="-105.230575">
  <ele>1586.09</ele>
  <time>2026-08-27T18:27:12Z</time>
  <course>5.69</course>
  <speed>0.0</speed>
  <fix>3d</fix>
</trkpt>
<trkpt lat="40.072842" lon="-105.230575">
  <ele>1586.09</ele>
  <time>2026-08-27T18:27:12Z</time>
  <course>78.75</course>
  <speed>0.0</speed>
  <fix>3d</fix>
</trkpt>
<trkpt lat="40.072842" lon="-105.230575">
  <ele>1586.09</ele>
  <time>2026-08-27T18:27:12Z</time>
  <course>6.21</course>
  <speed>0.0</speed>
  <fix>3d</fix>
</trkpt>
<trkpt lat="40.072842" lon="-105.230575">
  <ele>1586.09</ele>
  <time>2026-08-27T18:27:12Z</time>
  <course>198.3</course>
  <speed>0.0</speed>
  <fix>3d</fix>
</trkpt>
<trkpt lat="40.072842" lon="-105.230575">
  <ele>1586.09</ele>
  <time>2026-08-27T18:27:12Z</time>
  <course>6.7</course>
  <speed>0.0</speed>
  <fix>3d</fix>
</trkpt>
<trkpt lat="40.072842" lon="-105.230575">
  <ele>1586.09</ele>
  <time>2026-08-27T18:27:12Z</time>
  <course>208.9</course>
  <speed>0.0</speed>
  <fix>3d</fix>
</trkpt>
<trkpt lat="40.072842" lon="-105.230575">
  <ele>1586.09</ele>
  <time>2026-08-27T18:27:12Z</time>
  <course>7.16</course>
  <speed>0.0</speed>
  <fix>3d</fix>
</trkpt>
<trkpt lat="40.072842" lon="-105.230575">
  <ele>1586.09</ele>
  <time>2026-08-27T18:27:12Z</time>
  <course>59.22</course>
  <speed>0.0</speed>
  <fix>3d</fix>
</trkpt>
<trkpt lat="40.072842" lon="-105.230575">
  <ele>1586.09</ele>
  <time>2026-08-27T18:27:12Z</time>
  <course>7.58</course>
  <speed>0.0</speed>
  <fix>3d</fix>
</trkpt>
<trkpt lat="40.072842" lon="-105.230575">
  <ele>1586.09</ele>
  <time>2026-08-27T18:27:12Z</time>
  <course>78.2</course>
  <speed>0.0</speed>
  <fix>3d</fix>
</trkpt>
<trkpt lat="40.072842" lon="-105.230575">
  <ele>1586.09</ele>
  <time>2026-08-27T18:27:12Z</time>
  <course>7.97</course>
  <speed>0.0</speed>
  <fix>3d</fix>
</trkpt>
<trkpt lat="40.072842" lon="-105.230575">
  <ele>1586.09</ele>
  <time>2026-08-27T18:27:12Z</time>
  <course>275.97</course>
  <speed>0.0</speed>
  <fix>3d</fix>
</trkpt>
<trkpt lat="40.072842" lon="-105.230575">
  <ele>1586.09</ele>
  <time>2026-08-27T18:27:12Z</time>
  <course>8.33</course>
  <speed>0.0</speed>
  <fix>3d</fix>
</trkpt>
<trkpt lat="40.072842" lon="-105.230575">
  <ele>1586.09</ele>
  <time>2026-08-27T18:27:12Z</time>
  <course>272.6</course>
  <speed>0.0</speed>
  <fix>3d</fix>
</trkpt>
<trkpt lat="40.072842" lon="-105.230575">
  <ele>1586.09</ele>
  <time>2026-08-27T18:27:12Z</time>
  <course>8.66</course>
  <speed>0.0</speed>
  <fix>3d</fix>
</trkpt>
<trkpt lat="40.072842" lon="-105.230575">
  <ele>1586.09</ele>
  <time>2026-08-27T18:27:12Z</time>
  <course>135.8</course>
  <speed>0.0</speed>
  <fix>3d</fix>
</trkpt>
<trkpt lat="40.072842" lon="-105.230575">
  <ele>1586.09</ele>
  <time>2026-08-27T18:27:12Z</time>
  <course>8.97</course>
  <speed>0.0</speed>
  <fix>3d</fix>
</trkpt>
<trkpt lat="40.072842" lon="-105.230575">
  <ele>1586.09</ele>
  <time>2026-08-27T18:27:12Z</time>
  <course>4.81</course>
  <speed>0.0</speed>
  <fix>3d</fix>
</trkpt>
<trkpt lat="40.072842" lon="-105.230575">
  <ele>1586.09</ele>
  <time>2026-08-27T18:27:12Z</time>
  <course>9.25</course>
  <speed>0.0</speed>
  <fix>3d</fix>
</trkpt>
<trkpt lat="40.072842" lon="-105.230575">
  <ele>1586.09</ele>
  <time>2026-08-27T18:27:12Z</time>
  <course>333.21</course>
  <speed>0.0</speed>
  <fix>3d</fix>
</trkpt>
<trkpt lat="40.072842" lon="-105.230575">
  <ele>1586.09</ele>
  <time>2026-08-27T18:27:12Z</time>
  <course>9.52</course>
  <speed>0.0</speed>
  <fix>3d</fix>
</trkpt>
<trkpt lat="40.072842" lon="-105.230575">
  <ele>1586.09</ele>
  <time>2026-08-27T18:27:12Z</time>
  <course>207.41</course>
  <speed>0.0</speed>
  <fix>3d</fix>
</trkpt>
<trkpt lat="40.072842" lon="-105.230575">
  <ele>1586.09</ele>
  <time>2026-08-27T18:27:12Z</time>
  <course>9.76</course>
  <speed>0.0</speed>
  <fix>3d</fix>
</trkpt>
<trkpt lat="40.072842" lon="-105.230575">
  <ele>1586.09</ele>
  <time>2026-08-27T18:27:12Z</time>
  <course>250.02</course>
  <speed>0.0</speed>
  <fix>3d</fix>
</trkpt>
<trkpt lat="40.072842" lon="-105.230575">
  <ele>1586.09</ele>
  <time>2026-08-27T18:27:12Z</time>
  <course>9.98</course>
  <speed>0.0</speed>
  <fix>3d</fix>
</trkpt>
<trkpt lat="40.072842" lon="-105.230575">
  <ele>1586.09</ele>
  <time>2026-08-27T18:27:12Z</time>
  <course>260.86</course>
  <speed>0.0</speed>
  <fix>3d</fix>
</trkpt>
<trkpt lat="40.072842" lon="-105.230575">
  <ele>1586.09</ele>
  <time>2026-08-27T18:27:12Z</time>
  <course>10.18</course>
  <speed>0.0</speed>
  <fix>3d</fix>
</trkpt>
<trkpt lat="40.072842" lon="-105.230575">
  <ele>1586.09</ele>
  <time>2026-08-27T18:27:12Z</time>
  <course>291.3</course>
  <speed>0.0</speed>
  <fix>3d</fix>
</trkpt>
<trkpt lat="40.072842" lon="-105.230575">
  <ele>1586.09</ele>
  <time>2026-08-27T18:27:12Z</time>
  <course>10.37</course>
  <speed>0.0</speed>
  <fix>3d</fix>
</trkpt>
<trkpt lat="40.072842" lon="-105.230575">
  <ele>1586.09</ele>
  <time>2026-08-27T18:27:12Z</time>
  <course>266.59</course>
  <speed>0.0</speed>
  <fix>3d</fix>
</trkpt>
<trkpt lat="40.072842" lon="-105.230575">
  <ele>1586.09</ele>
  <time>2026-08-27T18:27:12Z</time>
  <course>10.54</course>
  <speed>0.0</speed>
  <fix>3d</fix>
</trkpt>
<trkpt lat="40.072842" lon="-105.230575">
  <ele>1586.09</ele>
  <time>2026-08-27T18:27:12Z</time>
  <course>264.88</course>
  <speed>0.0</speed>
  <fix>3d</fix>
</trkpt>
<trkpt lat="40.072842" lon="-105.230575">
  <ele>1586.09</ele>
  <time>2026-08-27T18:27:12Z</time>
  <course>10.69</course>
  <speed>0.0</speed>
  <fix>3d</fix>
</trkpt>
<trkpt lat="40.072842" lon="-105.230575">
  <ele>1586.09</ele>
  <time>2026-08-27T18:27:12Z</time>
  <course>266.12</course>
  <speed>0.0</speed>
  <fix>3d</fix>
</trkpt>
<trkpt lat="40.072842" lon="-105.230575">
  <ele>1586.09</ele>
  <time>2026-08-27T18:27:12Z</time>
  <course>10.83</course>
  <speed>0.0</speed>
  <fix>3d</fix>
</trkpt>
<trkpt lat="40.072842" lon="-105.230575">
  <ele>1586.09</ele>
  <time>2026-08-27T18:27:12Z</time>
  <course>266.2</course>
  <speed>0.0</speed>
  <fix>3d</fix>
</trkpt>
<trkpt lat="40.072842" lon="-105.230575">
  <ele>1586.09</ele>
  <time>2026-08-27T18:27:12Z</time>
  <course>10.96</course>
  <speed>0.0</speed>
  <fix>3d</fix>
</trkpt>
<trkpt lat="40.072842" lon="-105.230575">
  <ele>1586.09</ele>
  <time>2026-08-27T18:27:12Z</time>
  <course>266.0</course>
  <speed>0.0</speed>
  <fix>3d</fix>
</trkpt>
<trkpt lat="40.072842" lon="-105.230575">
  <ele>1586.09</ele>
  <time>2026-08-27T18:27:12Z</time>
  <course>11.08</course>
  <speed>0.0</speed>
  <fix>3d</fix>
</trkpt>
<trkpt lat="40.072842" lon="-105.230575">
  <ele>1586.09</ele>
  <time>2026-08-27T18:27:12Z</time>
  <course>266.02</course>
  <speed>0.0</speed>
  <fix>3d</fix>
</trkpt>
<trkpt lat="40.072842" lon="-105.230575">
  <ele>1586.09</ele>
  <time>2026-08-27T18:27:12Z</time>
  <course>11.19</course>
  <speed>0.0</speed>
  <fix>3d</fix>
</trkpt>
<trkpt lat="40.072842" lon="-105.230575">
  <ele>1586.09</ele>
  <time>2026-08-27T18:27:12Z</time>
  <course>266.04</course>
  <speed>0.0</speed>
  <fix>3d</fix>
</trkpt>
<trkpt lat="40.072842" lon="-105.230575">
  <ele>1586.09</ele>
  <time>2026-08-27T18:27:12Z</time>
  <course>11.29</course>
  <speed>0.0</speed>
  <fix>3d</fix>
</trkpt>
<trkpt lat="40.072842" lon="-105.230575">
  <ele>1586.09</ele>
  <time>2026-08-27T18:27:12Z</time>
  <course>266.04</course>
  <speed>0.0</speed>
  <fix>3d</fix>
</trkpt>
<trkpt lat="40.072842" lon="-105.230575">
  <ele>1586.09</ele>
  <time>2026-08-27T18:27:12Z</time>
  <course>11.38</course>
  <speed>0.0</speed>
  <fix>3d</fix>
</trkpt>
<trkpt lat="40.072842" lon="-105.230575">
  <ele>1586.09</ele>
  <time>2026-08-27T18:27:12Z</time>
  <course>266.03</course>
  <speed>0.0</speed>
  <fix>3d</fix>
</trkpt>
<trkpt lat="40.072842" lon="-105.230575">
  <ele>1586.09</ele>
  <time>2026-08-27T18:27:12Z</time>
  <course>11.46</course>
  <speed>0.0</speed>
  <fix>3d</fix>
</trkpt>
<trkpt lat="40.072842" lon="-105.230575">
  <ele>1586.09</ele>
  <time>2026-08-27T18:27:12Z</time>
  <course>266.03</course>
  <speed>0.0</speed>
  <fix>3d</fix>
</trkpt>
<trkpt lat="40.072842" lon="-105.230575">
  <ele>1586.09</ele>
  <time>2026-08-27T18:27:12Z</time>
  <course>11.53</course>
  <speed>0.0</speed>
  <fix>3d</fix>
</trkpt>
<trkpt lat="40.072842" lon="-105.230575">
  <ele>1586.09</ele>
  <time>2026-08-27T18:27:12Z</time>
  <course>266.03</course>
  <speed>0.0</speed>
  <fix>3d</fix>
</trkpt>
<trkpt lat="40.072842" lon="-105.230575">
  <ele>1586.09</ele>
  <time>2026-08-27T18:27:12Z</time>
  <course>11.6</course>
  <speed>0.0</speed>
  <fix>3d</fix>
</trkpt>
<trkpt lat="40.072842" lon="-105.230575">
  <ele>1586.09</ele>
  <time>2026-08-27T18:27:12Z</time>
  <course>266.03</course>
  <speed>0.0</speed>
  <fix>3d</fix>
</trkpt>
<trkpt lat="40.072842" lon="-105.230575">
  <ele>1586.09</ele>
  <time>2026-08-27T18:27:12Z</time>
  <course>11.66</course>
  <speed>0.0</speed>
  <fix>3d</fix>
</trkpt>
<trkpt lat="40.072842" lon="-105.230575">
  <ele>1586.09</ele>
  <time>2026-08-27T18:27:12Z</time>
  <course>266.03</course>
  <speed>0.0</speed>
  <fix>3d</fix>
</trkpt>
<trkpt lat="40.072842" lon="-105.230575">
  <ele>1586.09</ele>
  <time>2026-08-27T18:27:12Z</time>
  <course>11.72</course>
  <speed>0.0</speed>
  <fix>3d</fix>
</trkpt>
<trkpt lat="40.072842" lon="-105.230575">
  <ele>1586.09</ele>
  <time>2026-08-27T18:27:12Z</time>
  <course>266.03</course>
  <speed>0.0</speed>
  <fix>3d</fix>
</trkpt>
<trkpt lat="40.072842" lon="-105.230575">
  <ele>1586.09</ele>
  <time>2026-08-27T18:27:12Z</time>
  <course>11.77</course>
  <speed>0.0</speed>
  <fix>3d</fix>
</trkpt>
<trkpt lat="40.072842" lon="-105.230575">
  <ele>1586.09</ele>
  <time>2026-08-27T18:27:12Z</time>
  <course>266.03</course>
  <speed>0.0</speed>
  <fix>3d</fix>
</trkpt>
<trkpt lat="40.072842" lon="-105.230575">
  <ele>1586.09</ele>
  <time>2026-08-27T18:27:12Z</time>
  <course>11.82</course>
  <speed>0.0</speed>
  <fix>3d</fix>
</trkpt>
<trkpt lat="40.072842" lon="-105.230575">
  <ele>1586.09</ele>
  <time>2026-08-27T18:27:12Z</time>
  <course>266.03</course>
  <speed>0.0</speed>
  <fix>3d</fix>
</trkpt>
<trkpt lat="40.072842" lon="-105.230575">
  <ele>1586.09</ele>
  <time>2026-08-27T18:27:12Z</time>
  <course>11.86</course>
  <speed>0.0</speed>
  <fix>3d</fix>
</trkpt>
<trkpt lat="40.072842" lon="-105.230575">
  <ele>1586.09</ele>
  <time>2026-08-27T18:27:12Z</time>
  <course>266.03</course>
  <speed>0.0</speed>
  <fix>3d</fix>
</trkpt>
<trkpt lat="40.072842" lon="-105.230575">
  <ele>1586.09</ele>
  <time>2026-08-27T18:27:12Z</time>
  <course>11.89</course>
  <speed>0.0</speed>
  <fix>3d</fix>
</trkpt>
<trkpt lat="40.072842" lon="-105.230575">
  <ele>1586.09</ele>
  <time>2026-08-27T18:27:12Z</time>
  <course>266.03</course>
  <speed>0.0</speed>
  <fix>3d</fix>
</trkpt>
<trkpt lat="40.072842" lon="-105.230575">
  <ele>1586.09</ele>
  <time>2026-08-27T18:27:12Z</time>
  <course>11.93</course>
  <speed>0.0</speed>
  <fix>3d</fix>
</trkpt>
<trkpt lat="40.072842" lon="-105.230575">
  <ele>1586.09</ele>
  <time>2026-08-27T18:27:12Z</time>
  <course>266.03</course>
  <speed>0.0</speed>
  <fix>3d</fix>
</trkpt>
<trkpt lat="40.072842" lon="-105.230575">
  <ele>1586.09</ele>
  <time>2026-08-27T18:27:12Z</time>
  <course>11.96</course>
  <speed>0.0</speed>
  <fix>3d</fix>
</trkpt>
<trkpt lat="40.072842" lon="-105.230575">
  <ele>1586.09</ele>
  <time>2026-08-27T18:27:12Z</time>
  <course>266.03</course>
  <speed>0.0</speed>
  <fix>3d</fix>
</trkpt>
<trkpt lat="40.072842" lon="-105.230575">
  <ele>1586.09</ele>
  <time>2026-08-27T18:27:12Z</time>
  <course>11.98</course>
  <speed>0.0</speed>
  <fix>3d</fix>
</trkpt>
<trkpt lat="40.072842" lon="-105.230575">
  <ele>1586.09</ele>
  <time>2026-08-27T18:27:12Z</time>
  <course>266.03</course>
  <speed>0.0</speed>
  <fix>3d</fix>
</trkpt>
<trkpt lat="40.072842" lon="-105.230575">
  <ele>1586.09</ele>
  <time>2026-08-27T18:27:12Z</time>
  <course>12.0</course>
  <speed>0.0</speed>
  <fix>3d</fix>
</trkpt>
<trkpt lat="40.072842" lon="-105.230575">
  <ele>1586.09</ele>
  <time>2026-08-27T18:27:12Z</time>
  <course>266.03</course>
  <speed>0.0</speed>
  <fix>3d</fix>
</trkpt>
<trkpt lat="40.072842" lon="-105.230575">
  <ele>1586.09</ele>
  <time>2026-08-27T18:27:12Z</time>
  <course>12.02</course>
  <speed>0.0</speed>
  <fix>3d</fix>
</trkpt>
<trkpt lat="40.072842" lon="-105.230575">
  <ele>1586.09</ele>
  <time>2026-08-27T18:27:12Z</time>
  <course>266.03</course>
  <speed>0.0</speed>
  <fix>3d</fix>
</trkpt>
<trkpt lat="40.072842" lon="-105.230575">
  <ele>1586.09</ele>
  <time>2026-08-27T18:27:12Z</time>
  <course>12.04</course>
  <speed>0.0</speed>
  <fix>3d</fix>
</trkpt>
<trkpt lat="40.072842" lon="-105.230575">
  <ele>1586.09</ele>
  <time>2026-08-27T18:27:12Z</time>
  <course>266.03</course>
  <speed>0.0</speed>
  <fix>3d</fix>
</trkpt>
<trkpt lat="40.072842" lon="-105.230575">
  <ele>1586.09</ele>
  <time>2026-08-27T18:27:13Z</time>
  <course>12.06</course>
  <speed>0.0</speed>
  <fix>3d</fix>
</trkpt>
<trkpt lat="40.072842" lon="-105.230575">
  <ele>1586.09</ele>
  <time>2026-08-27T18:27:13Z</time>
  <course>266.03</course>
  <speed>0.0</speed>
  <fix>3d</fix>
</trkpt>
<trkpt lat="40.072842" lon="-105.230575">
  <ele>1586.09</ele>
  <time>2026-08-27T18:27:13Z</time>
  <course>12.07</course>
  <speed>0.0</speed>
  <fix>3d</fix>
</trkpt>
<trkpt lat="40.072842" lon="-105.230575">
  <ele>1586.09</ele>
  <time>2026-08-27T18:27:13Z</time>
  <course>266.03</course>
  <speed>0.0</speed>
  <fix>3d</fix>
</trkpt>
<trkpt lat="40.072842" lon="-105.230575">
  <ele>1586.09</ele>
  <time>2026-08-27T18:27:13Z</time>
  <course>12.08</course>
  <speed>0.0</speed>
  <fix>3d</fix>
</trkpt>
<trkpt lat="40.072842" lon="-105.230575">
  <ele>1586.09</ele>
  <time>2026-08-27T18:27:13Z</time>
  <course>266.03</course>
  <speed>0.0</speed>
  <fix>3d</fix>
</trkpt>
<trkpt lat="40.072842" lon="-105.230575">
  <ele>1586.09</ele>
  <time>2026-08-27T18:27:13Z</time>
  <course>12.09</course>
  <speed>0.0</speed>
  <fix>3d</fix>
</trkpt>
<trkpt lat="40.072842" lon="-105.230575">
  <ele>1586.09</ele>
  <time>2026-08-27T18:27:13Z</time>
  <course>266.03</course>
  <speed>0.0</speed>
  <fix>3d</fix>
</trkpt>
<trkpt lat="40.072842" lon="-105.230575">
  <ele>1586.09</ele>
  <time>2026-08-27T18:27:13Z</time>
  <course>12.1</course>
  <speed>0.0</speed>
  <fix>3d</fix>
</trkpt>
<trkpt lat="40.072842" lon="-105.230575">
  <ele>1586.09</ele>
  <time>2026-08-27T18:27:13Z</time>
  <course>266.03</course>
  <speed>0.0</speed>
  <fix>3d</fix>
</trkpt>
<trkpt lat="40.072842" lon="-105.230575">
  <ele>1586.09</ele>
  <time>2026-08-27T18:27:13Z</time>
  <course>12.11</course>
  <speed>0.0</speed>
  <fix>3d</fix>
</trkpt>
<trkpt lat="40.072842" lon="-105.230575">
  <ele>1586.09</ele>
  <time>2026-08-27T18:27:13Z</time>
  <course>266.03</course>
  <speed>0.0</speed>
  <fix>3d</fix>
</trkpt>
<trkpt lat="40.072842" lon="-105.230575">
  <ele>1586.09</ele>
  <time>2026-08-27T18:27:13Z</time>
  <course>12.11</course>
  <speed>0.0</speed>
  <fix>3d</fix>
</trkpt>
<trkpt lat="40.072842" lon="-105.230575">
  <ele>1586.09</ele>
  <time>2026-08-27T18:27:13Z</time>
  <course>266.03</course>
  <speed>0.0</speed>
  <fix>3d</fix>
</trkpt>
<trkpt lat="40.072842" lon="-105.230575">
  <ele>1586.09</ele>
  <time>2026-08-27T18:27:13Z</time>
  <course>12.12</course>
  <speed>0.0</speed>
  <fix>3d</fix>
</trkpt>
<trkpt lat="40.072842" lon="-105.230575">
  <ele>1586.09</ele>
  <time>2026-08-27T18:27:13Z</time>
  <course>266.03</course>
  <speed>0.0</speed>
  <fix>3d</fix>
</trkpt>
<trkpt lat="40.072842" lon="-105.230575">
  <ele>1586.09</ele>
  <time>2026-08-27T18:27:13Z</time>
  <course>12.12</course>
  <speed>0.0</speed>
  <fix>3d</fix>
</trkpt>
<trkpt lat="40.072842" lon="-105.230575">
  <ele>1586.09</ele>
  <time>2026-08-27T18:27:13Z</time>
  <course>266.03</course>
  <speed>0.0</speed>
  <fix>3d</fix>
</trkpt>
<trkpt lat="40.072842" lon="-105.230575">
  <ele>1586.09</ele>
  <time>2026-08-27T18:27:13Z</time>
  <course>12.12</course>
  <speed>0.0</speed>
  <fix>3d</fix>
</trkpt>
<trkpt lat="40.072842" lon="-105.230575">
  <ele>1586.09</ele>
  <time>2026-08-27T18:27:13Z</time>
  <course>266.03</course>
  <speed>0.0</speed>
  <fix>3d</fix>
</trkpt>
<trkpt lat="40.072842" lon="-105.230575">
  <ele>1586.09</ele>
  <time>2026-08-27T18:27:13Z</time>
  <course>12.12</course>
  <speed>0.0</speed>
  <fix>3d</fix>
</trkpt>
<trkpt lat="40.072842" lon="-105.230575">
  <ele>1586.09</ele>
  <time>2026-08-27T18:27:13Z</time>
  <course>266.03</course>
  <speed>0.0</speed>
  <fix>3d</fix>
</trkpt>
<trkpt lat="40.072842" lon="-105.230575">
  <ele>1586.09</ele>
  <time>2026-08-27T18:27:13Z</time>
  <course>12.12</course>
  <speed>0.0</speed>
  <fix>3d</fix>
</trkpt>
<trkpt lat="40.072842" lon="-105.230575">
  <ele>1586.09</ele>
  <time>2026-08-27T18:27:13Z</time>
  <course>266.03</course>
  <speed>0.0</speed>
  <fix>3d</fix>
</trkpt>
<trkpt lat="40.072842" lon="-105.230575">
  <ele>1586.09</ele>
  <time>2026-08-27T18:27:13Z</time>
  <course>12.12</course>
  <speed>0.01</speed>
  <fix>3d</fix>
</trkpt>
<trkpt lat="40.072842" lon="-105.230575">
  <ele>1586.09</ele>
  <time>2026-08-27T18:27:13Z</time>
  <course>266.03</course>
  <speed>0.0</speed>
  <fix>3d</fix>
</trkpt>
<trkpt lat="40.072842" lon="-105.230575">
  <ele>1586.09</ele>
  <time>2026-08-27T18:27:13Z</time>
  <course>12.12</course>
  <speed>0.01</speed>
  <fix>3d</fix>
</trkpt>
<trkpt lat="40.072842" lon="-105.230575">
  <ele>1586.09</ele>
  <time>2026-08-27T18:27:13Z</time>
  <course>266.03</course>
  <speed>0.0</speed>
  <fix>3d</fix>
</trkpt>
<trkpt lat="40.072842" lon="-105.230575">
  <ele>1586.09</ele>
  <time>2026-08-27T18:27:13Z</time>
  <course>12.12</course>
  <speed>0.01</speed>
  <fix>3d</fix>
</trkpt>
<trkpt lat="40.072842" lon="-105.230575">
  <ele>1586.09</ele>
  <time>2026-08-27T18:27:13Z</time>
  <course>266.03</course>
  <speed>0.0</speed>
  <fix>3d</fix>
</trkpt>
<trkpt lat="40.072842" lon="-105.230575">
  <ele>1586.09</ele>
  <time>2026-08-27T18:27:13Z</time>
  <course>12.12</course>
  <speed>0.01</speed>
  <fix>3d</fix>
</trkpt>
<trkpt lat="40.072842" lon="-105.230575">
  <ele>1586.09</ele>
  <time>2026-08-27T18:27:13Z</time>
  <course>266.03</course>
  <speed>0.0</speed>
  <fix>3d</fix>
</trkpt>
<trkpt lat="40.072842" lon="-105.230575">
  <ele>1586.09</ele>
  <time>2026-08-27T18:27:13Z</time>
  <course>12.11</course>
  <speed>0.01</speed>
  <fix>3d</fix>
</trkpt>
<trkpt lat="40.072842" lon="-105.230575">
  <ele>1586.09</ele>
  <time>2026-08-27T18:27:13Z</time>
  <course>266.03</course>
  <speed>0.0</speed>
  <fix>3d</fix>
</trkpt>
<trkpt lat="40.072842" lon="-105.230575">
  <ele>1586.09</ele>
  <time>2026-08-27T18:27:13Z</time>
  <course>12.11</course>
  <speed>0.01</speed>
  <fix>3d</fix>
</trkpt>
<trkpt lat="40.072842" lon="-105.230575">
  <ele>1586.09</ele>
  <time>2026-08-27T18:27:13Z</time>
  <course>266.03</course>
  <speed>0.0</speed>
  <fix>3d</fix>
</trkpt>
<trkpt lat="40.072842" lon="-105.230575">
  <ele>1586.09</ele>
  <time>2026-08-27T18:27:13Z</time>
  <course>12.11</course>
  <speed>0.01</speed>
  <fix>3d</fix>
</trkpt>
<trkpt lat="40.072842" lon="-105.230575">
  <ele>1586.09</ele>
  <time>2026-08-27T18:27:13Z</time>
  <course>266.03</course>
  <speed>0.0</speed>
  <fix>3d</fix>
</trkpt>
<trkpt lat="40.072842" lon="-105.230575">
  <ele>1586.09</ele>
  <time>2026-08-27T18:27:13Z</time>
  <course>12.1</course>
  <speed>0.01</speed>
  <fix>3d</fix>
</trkpt>
<trkpt lat="40.072842" lon="-105.230575">
  <ele>1586.09</ele>
  <time>2026-08-27T18:27:13Z</time>
  <course>266.03</course>
  <speed>0.0</speed>
  <fix>3d</fix>
</trkpt>
<trkpt lat="40.072842" lon="-105.230575">
  <ele>1586.09</ele>
  <time>2026-08-27T18:27:13Z</time>
  <course>12.1</course>
  <speed>0.01</speed>
  <fix>3d</fix>
</trkpt>
<trkpt lat="40.072842" lon="-105.230575">
  <ele>1586.09</ele>
  <time>2026-08-27T18:27:13Z</time>
  <course>266.03</course>
  <speed>0.0</speed>
  <fix>3d</fix>
</trkpt>
<trkpt lat="40.072842" lon="-105.230575">
  <ele>1586.09</ele>
  <time>2026-08-27T18:27:13Z</time>
  <course>12.09</course>
  <speed>0.01</speed>
  <fix>3d</fix>
</trkpt>
<trkpt lat="40.072842" lon="-105.230575">
  <ele>1586.09</ele>
  <time>2026-08-27T18:27:13Z</time>
  <course>266.03</course>
  <speed>0.0</speed>
  <fix>3d</fix>
</trkpt>
<trkpt lat="40.072842" lon="-105.230575">
  <ele>1586.09</ele>
  <time>2026-08-27T18:27:13Z</time>
  <course>12.09</course>
  <speed>0.01</speed>
  <fix>3d</fix>
</trkpt>
<trkpt lat="40.072842" lon="-105.230575">
  <ele>1586.09</ele>
  <time>2026-08-27T18:27:13Z</time>
  <course>266.03</course>
  <speed>0.0</speed>
  <fix>3d</fix>
</trkpt>
<trkpt lat="40.072842" lon="-105.230575">
  <ele>1586.09</ele>
  <time>2026-08-27T18:27:13Z</time>
  <course>12.08</course>
  <speed>0.01414213562373095</speed>
  <fix>3d</fix>
</trkpt>
<trkpt lat="40.072842" lon="-105.230575">
  <ele>1586.09</ele>
  <time>2026-08-27T18:27:13Z</time>
  <course>266.03</course>
  <speed>0.0</speed>
  <fix>3d</fix>
</trkpt>
<trkpt lat="40.072842" lon="-105.230575">
  <ele>1586.09</ele>
  <time>2026-08-27T18:27:13Z</time>
  <course>12.07</course>
  <speed>0.01414213562373095</speed>
  <fix>3d</fix>
</trkpt>
<trkpt lat="40.072842" lon="-105.230575">
  <ele>1586.09</ele>
  <time>2026-08-27T18:27:13Z</time>
  <course>266.03</course>
  <speed>0.0</speed>
  <fix>3d</fix>
</trkpt>
<trkpt lat="40.072842" lon="-105.230575">
  <ele>1586.09</ele>
  <time>2026-08-27T18:27:13Z</time>
  <course>12.07</course>
  <speed>0.01414213562373095</speed>
  <fix>3d</fix>
</trkpt>
<trkpt lat="40.072842" lon="-105.230575">
  <ele>1586.09</ele>
  <time>2026-08-27T18:27:13Z</time>
  <course>266.03</course>
  <speed>0.0</speed>
  <fix>3d</fix>
</trkpt>
<trkpt lat="40.072842" lon="-105.230575">
  <ele>1586.09</ele>
  <time>2026-08-27T18:27:13Z</time>
  <course>12.06</course>
  <speed>0.01414213562373095</speed>
  <fix>3d</fix>
</trkpt>
<trkpt lat="40.072842" lon="-105.230575">
  <ele>1586.09</ele>
  <time>2026-08-27T18:27:13Z</time>
  <course>266.03</course>
  <speed>0.0</speed>
  <fix>3d</fix>
</trkpt>
<trkpt lat="40.072842" lon="-105.230575">
  <ele>1586.09</ele>
  <time>2026-08-27T18:27:13Z</time>
  <course>12.05</course>
  <speed>0.01414213562373095</speed>
  <fix>3d</fix>
</trkpt>
<trkpt lat="40.072842" lon="-105.230575">
  <ele>1586.09</ele>
  <time>2026-08-27T18:27:13Z</time>
  <course>266.03</course>
  <speed>0.0</speed>
  <fix>3d</fix>
</trkpt>
<trkpt lat="40.072842" lon="-105.230575">
  <ele>1586.09</ele>
  <time>2026-08-27T18:27:13Z</time>
  <course>12.05</course>
  <speed>0.01414213562373095</speed>
  <fix>3d</fix>
</trkpt>
<trkpt lat="40.072842" lon="-105.230575">
  <ele>1586.09</ele>
  <time>2026-08-27T18:27:13Z</time>
  <course>266.03</course>
  <speed>0.0</speed>
  <fix>3d</fix>
</trkpt>
<trkpt lat="40.072842" lon="-105.230575">
  <ele>1586.09</ele>
  <time>2026-08-27T18:27:13Z</time>
  <course>12.04</course>
  <speed>0.01414213562373095</speed>
  <fix>3d</fix>
</trkpt>
<trkpt lat="40.072842" lon="-105.230575">
  <ele>1586.09</ele>
  <time>2026-08-27T18:27:13Z</time>
  <course>266.03</course>
  <speed>0.0</speed>
  <fix>3d</fix>
</trkpt>
<trkpt lat="40.072842" lon="-105.230575">
  <ele>1586.09</ele>
  <time>2026-08-27T18:27:13Z</time>
  <course>12.03</course>
  <speed>0.01414213562373095</speed>
  <fix>3d</fix>
</trkpt>
<trkpt lat="40.072842" lon="-105.230575">
  <ele>1586.09</ele>
  <time>2026-08-27T18:27:13Z</time>
  <course>266.03</course>
  <speed>0.0</speed>
  <fix>3d</fix>
</trkpt>
<trkpt lat="40.072842" lon="-105.230575">
  <ele>1586.09</ele>
  <time>2026-08-27T18:27:13Z</time>
  <course>12.03</course>
  <speed>0.01414213562373095</speed>
  <fix>3d</fix>
</trkpt>
<trkpt lat="40.072842" lon="-105.230575">
  <ele>1586.09</ele>
  <time>2026-08-27T18:27:13Z</time>
  <course>266.03</course>
  <speed>0.0</speed>
  <fix>3d</fix>
</trkpt>
<trkpt lat="40.072842" lon="-105.230575">
  <ele>1586.09</ele>
  <time>2026-08-27T18:27:13Z</time>
  <course>12.02</course>
  <speed>0.01414213562373095</speed>
  <fix>3d</fix>
</trkpt>
<trkpt lat="40.072842" lon="-105.230575">
  <ele>1586.09</ele>
  <time>2026-08-27T18:27:13Z</time>
  <course>266.03</course>
  <speed>0.0</speed>
  <fix>3d</fix>
</trkpt>
<trkpt lat="40.072842" lon="-105.230575">
  <ele>1586.09</ele>
  <time>2026-08-27T18:27:13Z</time>
  <course>12.01</course>
  <speed>0.01414213562373095</speed>
  <fix>3d</fix>
</trkpt>
<trkpt lat="40.072842" lon="-105.230575">
  <ele>1586.09</ele>
  <time>2026-08-27T18:27:13Z</time>
  <course>266.03</course>
  <speed>0.0</speed>
  <fix>3d</fix>
</trkpt>
<trkpt lat="40.072842" lon="-105.230575">
  <ele>1586.09</ele>
  <time>2026-08-27T18:27:13Z</time>
  <course>12.0</course>
  <speed>0.01414213562373095</speed>
  <fix>3d</fix>
</trkpt>
<trkpt lat="40.072842" lon="-105.230575">
  <ele>1586.09</ele>
  <time>2026-08-27T18:27:13Z</time>
  <course>266.03</course>
  <speed>0.0</speed>
  <fix>3d</fix>
</trkpt>
<trkpt lat="40.072842" lon="-105.230575">
  <ele>1586.09</ele>
  <time>2026-08-27T18:27:13Z</time>
  <course>11.99</course>
  <speed>0.01414213562373095</speed>
  <fix>3d</fix>
</trkpt>
<trkpt lat="40.072842" lon="-105.230575">
  <ele>1586.09</ele>
  <time>2026-08-27T18:27:13Z</time>
  <course>266.03</course>
  <speed>0.0</speed>
  <fix>3d</fix>
</trkpt>
<trkpt lat="40.072842" lon="-105.230575">
  <ele>1586.09</ele>
  <time>2026-08-27T18:27:13Z</time>
  <course>11.99</course>
  <speed>0.01414213562373095</speed>
  <fix>3d</fix>
</trkpt>
<trkpt lat="40.072842" lon="-105.230575">
  <ele>1586.09</ele>
  <time>2026-08-27T18:27:13Z</time>
  <course>266.03</course>
  <speed>0.0</speed>
  <fix>3d</fix>
</trkpt>
<trkpt lat="40.072842" lon="-105.230575">
  <ele>1586.09</ele>
  <time>2026-08-27T18:27:13Z</time>
  <course>11.98</course>
  <speed>0.01414213562373095</speed>
  <fix>3d</fix>
</trkpt>
<trkpt lat="40.072842" lon="-105.230575">
  <ele>1586.09</ele>
  <time>2026-08-27T18:27:13Z</time>
  <course>266.03</course>
  <speed>0.0</speed>
  <fix>3d</fix>
</trkpt>
<trkpt lat="40.072842" lon="-105.230575">
  <ele>1586.09</ele>
  <time>2026-08-27T18:27:13Z</time>
  <course>11.97</course>
  <speed>0.01414213562373095</speed>
  <fix>3d</fix>
</trkpt>
<trkpt lat="40.072842" lon="-105.230575">
  <ele>1586.09</ele>
  <time>2026-08-27T18:27:13Z</time>
  <course>266.03</course>
  <speed>0.0</speed>
  <fix>3d</fix>
</trkpt>
<trkpt lat="40.072842" lon="-105.230575">
  <ele>1586.09</ele>
  <time>2026-08-27T18:27:13Z</time>
  <course>11.96</course>
  <speed>0.022360679774997897</speed>
  <fix>3d</fix>
</trkpt>
<trkpt lat="40.072842" lon="-105.230575">
  <ele>1586.09</ele>
  <time>2026-08-27T18:27:13Z</time>
  <course>266.03</course>
  <speed>0.0</speed>
  <fix>3d</fix>
</trkpt>
<trkpt lat="40.072842" lon="-105.230575">
  <ele>1586.09</ele>
  <time>2026-08-27T18:27:13Z</time>
  <course>11.95</course>
  <speed>0.022360679774997897</speed>
  <fix>3d</fix>
</trkpt>
<trkpt lat="40.072842" lon="-105.230575">
  <ele>1586.09</ele>
  <time>2026-08-27T18:27:13Z</time>
  <course>266.03</course>
  <speed>0.0</speed>
  <fix>3d</fix>
</trkpt>
<trkpt lat="40.072842" lon="-105.230575">
  <ele>1586.09</ele>
  <time>2026-08-27T18:27:13Z</time>
  <course>11.95</course>
  <speed>0.022360679774997897</speed>
  <fix>3d</fix>
</trkpt>
<trkpt lat="40.072842" lon="-105.230575">
  <ele>1586.09</ele>
  <time>2026-08-27T18:27:13Z</time>
  <course>266.03</course>
  <speed>0.0</speed>
  <fix>3d</fix>
</trkpt>
<trkpt lat="40.072842" lon="-105.230575">
  <ele>1586.09</ele>
  <time>2026-08-27T18:27:13Z</time>
  <course>11.94</course>
  <speed>0.022360679774997897</speed>
  <fix>3d</fix>
</trkpt>
<trkpt lat="40.072842" lon="-105.230575">
  <ele>1586.09</ele>
  <time>2026-08-27T18:27:13Z</time>
  <course>266.03</course>
  <speed>0.0</speed>
  <fix>3d</fix>
</trkpt>
<trkpt lat="40.072842" lon="-105.230575">
  <ele>1586.09</ele>
  <time>2026-08-27T18:27:13Z</time>
  <course>11.93</course>
  <speed>0.022360679774997897</speed>
  <fix>3d</fix>
</trkpt>
<trkpt lat="40.072842" lon="-105.230575">
  <ele>1586.09</ele>
  <time>2026-08-27T18:27:13Z</time>
  <course>266.03</course>
  <speed>0.0</speed>
  <fix>3d</fix>
</trkpt>
<trkpt lat="40.072842" lon="-105.230575">
  <ele>1586.09</ele>
  <time>2026-08-27T18:27:13Z</time>
  <course>11.92</course>
  <speed>0.022360679774997897</speed>
  <fix>3d</fix>
</trkpt>
<trkpt lat="40.072842" lon="-105.230575">
  <ele>1586.09</ele>
  <time>2026-08-27T18:27:13Z</time>
  <course>266.03</course>
  <speed>0.0</speed>
  <fix>3d</fix>
</trkpt>
<trkpt lat="40.072842" lon="-105.230575">
  <ele>1586.09</ele>
  <time>2026-08-27T18:27:13Z</time>
  <course>11.91</course>
  <speed>0.022360679774997897</speed>
  <fix>3d</fix>
</trkpt>
<trkpt lat="40.072842" lon="-105.230575">
  <ele>1586.09</ele>
  <time>2026-08-27T18:27:13Z</time>
  <course>266.03</course>
  <speed>0.0</speed>
  <fix>3d</fix>
</trkpt>
<trkpt lat="40.072842" lon="-105.230575">
  <ele>1586.09</ele>
  <time>2026-08-27T18:27:13Z</time>
  <course>11.91</course>
  <speed>0.022360679774997897</speed>
  <fix>3d</fix>
</trkpt>
<trkpt lat="40.072842" lon="-105.230575">
  <ele>1586.09</ele>
  <time>2026-08-27T18:27:13Z</time>
  <course>266.03</course>
  <speed>0.0</speed>
  <fix>3d</fix>
</trkpt>
<trkpt lat="40.072842" lon="-105.230575">
  <ele>1586.09</ele>
  <time>2026-08-27T18:27:13Z</time>
  <course>11.9</course>
  <speed>0.022360679774997897</speed>
  <fix>3d</fix>
</trkpt>
<trkpt lat="40.072842" lon="-105.230575">
  <ele>1586.09</ele>
  <time>2026-08-27T18:27:13Z</time>
  <course>266.03</course>
  <speed>0.0</speed>
  <fix>3d</fix>
</trkpt>
<trkpt lat="40.072842" lon="-105.230575">
  <ele>1586.09</ele>
  <time>2026-08-27T18:27:13Z</time>
  <course>11.89</course>
  <speed>0.022360679774997897</speed>
  <fix>3d</fix>
</trkpt>
<trkpt lat="40.072842" lon="-105.230575">
  <ele>1586.09</ele>
  <time>2026-08-27T18:27:13Z</time>
  <course>266.03</course>
  <speed>0.0</speed>
  <fix>3d</fix>
</trkpt>
<trkpt lat="40.072842" lon="-105.230575">
  <ele>1586.09</ele>
  <time>2026-08-27T18:27:13Z</time>
  <course>11.88</course>
  <speed>0.022360679774997897</speed>
  <fix>3d</fix>
</trkpt>
<trkpt lat="40.072842" lon="-105.230575">
  <ele>1586.09</ele>
  <time>2026-08-27T18:27:13Z</time>
  <course>266.03</course>
  <speed>0.0</speed>
  <fix>3d</fix>
</trkpt>
<trkpt lat="40.072842" lon="-105.230575">
  <ele>1586.09</ele>
  <time>2026-08-27T18:27:13Z</time>
  <course>11.87</course>
  <speed>0.022360679774997897</speed>
  <fix>3d</fix>
</trkpt>
<trkpt lat="40.072842" lon="-105.230575">
  <ele>1586.09</ele>
  <time>2026-08-27T18:27:13Z</time>
  <course>266.03</course>
  <speed>0.0</speed>
  <fix>3d</fix>
</trkpt>
<trkpt lat="40.072842" lon="-105.230575">
  <ele>1586.09</ele>
  <time>2026-08-27T18:27:13Z</time>
  <course>11.86</course>
  <speed>0.022360679774997897</speed>
  <fix>3d</fix>
</trkpt>
<trkpt lat="40.072842" lon="-105.230575">
  <ele>1586.09</ele>
  <time>2026-08-27T18:27:13Z</time>
  <course>266.03</course>
  <speed>0.0</speed>
  <fix>3d</fix>
</trkpt>
<trkpt lat="40.072842" lon="-105.230575">
  <ele>1586.09</ele>
  <time>2026-08-27T18:27:13Z</time>
  <course>11.86</course>
  <speed>0.022360679774997897</speed>
  <fix>3d</fix>
</trkpt>
<trkpt lat="40.072842" lon="-105.230575">
  <ele>1586.09</ele>
  <time>2026-08-27T18:27:13Z</time>
  <course>266.03</course>
  <speed>0.0</speed>
  <fix>3d</fix>
</trkpt>
<trkpt lat="40.072842" lon="-105.230575">
  <ele>1586.09</ele>
  <time>2026-08-27T18:27:13Z</time>
  <course>11.85</course>
  <speed>0.022360679774997897</speed>
  <fix>3d</fix>
</trkpt>
<trkpt lat="40.072842" lon="-105.230575">
  <ele>1586.09</ele>
  <time>2026-08-27T18:27:13Z</time>
  <course>266.03</course>
  <speed>0.0</speed>
  <fix>3d</fix>
</trkpt>
<trkpt lat="40.072842" lon="-105.230575">
  <ele>1586.09</ele>
  <time>2026-08-27T18:27:13Z</time>
  <course>11.84</course>
  <speed>0.022360679774997897</speed>
  <fix>3d</fix>
</trkpt>
<trkpt lat="40.072842" lon="-105.230575">
  <ele>1586.09</ele>
  <time>2026-08-27T18:27:13Z</time>
  <course>266.03</course>
  <speed>0.0</speed>
  <fix>3d</fix>
</trkpt>
<trkpt lat="40.072842" lon="-105.230575">
  <ele>1586.09</ele>
  <time>2026-08-27T18:27:13Z</time>
  <course>11.83</course>
  <speed>0.022360679774997897</speed>
  <fix>3d</fix>
</trkpt>
<trkpt lat="40.072842" lon="-105.230575">
  <ele>1586.09</ele>
  <time>2026-08-27T18:27:13Z</time>
  <course>266.03</course>
  <speed>0.0</speed>
  <fix>3d</fix>
</trkpt>
<trkpt lat="40.072842" lon="-105.230575">
  <ele>1586.09</ele>
  <time>2026-08-27T18:27:13Z</time>
  <course>11.82</course>
  <speed>0.0282842712474619</speed>
  <fix>3d</fix>
</trkpt>
<trkpt lat="40.072842" lon="-105.230575">
  <ele>1586.09</ele>
  <time>2026-08-27T18:27:13Z</time>
  <course>266.03</course>
  <speed>0.0</speed>
  <fix>3d</fix>
</trkpt>
<trkpt lat="40.072842" lon="-105.230575">
  <ele>1586.09</ele>
  <time>2026-08-27T18:27:13Z</time>
  <course>11.82</course>
  <speed>0.0282842712474619</speed>
  <fix>3d</fix>
</trkpt>
<trkpt lat="40.072842" lon="-105.230575">
  <ele>1586.09</ele>
  <time>2026-08-27T18:27:13Z</time>
  <course>266.03</course>
  <speed>0.0</speed>
  <fix>3d</fix>
</trkpt>
<trkpt lat="40.072842" lon="-105.230575">
  <ele>1586.09</ele>
  <time>2026-08-27T18:27:13Z</time>
  <course>11.81</course>
  <speed>0.0282842712474619</speed>
  <fix>3d</fix>
</trkpt>
<trkpt lat="40.072842" lon="-105.230575">
  <ele>1586.09</ele>
  <time>2026-08-27T18:27:13Z</time>
  <course>266.03</course>
  <speed>0.0</speed>
  <fix>3d</fix>
</trkpt>
<trkpt lat="40.072842" lon="-105.230575">
  <ele>1586.09</ele>
  <time>2026-08-27T18:27:13Z</time>
  <course>11.8</course>
  <speed>0.0282842712474619</speed>
  <fix>3d</fix>
</trkpt>
<trkpt lat="40.072842" lon="-105.230575">
  <ele>1586.09</ele>
  <time>2026-08-27T18:27:13Z</time>
  <course>266.03</course>
  <speed>0.0</speed>
  <fix>3d</fix>
</trkpt>
<trkpt lat="40.072842" lon="-105.230575">
  <ele>1586.09</ele>
  <time>2026-08-27T18:27:13Z</time>
  <course>11.79</course>
  <speed>0.0282842712474619</speed>
  <fix>3d</fix>
</trkpt>
<trkpt lat="40.072842" lon="-105.230575">
  <ele>1586.09</ele>
  <time>2026-08-27T18:27:13Z</time>
  <course>266.03</course>
  <speed>0.0</speed>
  <fix>3d</fix>
</trkpt>
<trkpt lat="40.072842" lon="-105.230575">
  <ele>1586.09</ele>
  <time>2026-08-27T18:27:13Z</time>
  <course>11.78</course>
  <speed>0.0282842712474619</speed>
  <fix>3d</fix>
</trkpt>
<trkpt lat="40.072842" lon="-105.230575">
  <ele>1586.09</ele>
  <time>2026-08-27T18:27:13Z</time>
  <course>266.03</course>
  <speed>0.0</speed>
  <fix>3d</fix>
</trkpt>
<trkpt lat="40.072842" lon="-105.230575">
  <ele>1586.09</ele>
  <time>2026-08-27T18:27:13Z</time>
  <course>11.78</course>
  <speed>0.0282842712474619</speed>
  <fix>3d</fix>
</trkpt>
<trkpt lat="40.072842" lon="-105.230575">
  <ele>1586.09</ele>
  <time>2026-08-27T18:27:13Z</time>
  <course>266.03</course>
  <speed>0.0</speed>
  <fix>3d</fix>
</trkpt>
<trkpt lat="40.072842" lon="-105.230575">
  <ele>1586.09</ele>
  <time>2026-08-27T18:27:13Z</time>
  <course>11.77</course>
  <speed>0.0282842712474619</speed>
  <fix>3d</fix>
</trkpt>
<trkpt lat="40.072842" lon="-105.230575">
  <ele>1586.09</ele>
  <time>2026-08-27T18:27:13Z</time>
  <course>266.03</course>
  <speed>0.0</speed>
  <fix>3d</fix>
</trkpt>
<trkpt lat="40.072842" lon="-105.230575">
  <ele>1586.09</ele>
  <time>2026-08-27T18:27:13Z</time>
  <course>11.76</course>
  <speed>0.0282842712474619</speed>
  <fix>3d</fix>
</trkpt>
<trkpt lat="40.072842" lon="-105.230575">
  <ele>1586.09</ele>
  <time>2026-08-27T18:27:13Z</time>
  <course>266.03</course>
  <speed>0.0</speed>
  <fix>3d</fix>
</trkpt>
<trkpt lat="40.072842" lon="-105.230575">
  <ele>1586.09</ele>
  <time>2026-08-27T18:27:13Z</time>
  <course>11.76</course>
  <speed>0.0282842712474619</speed>
  <fix>3d</fix>
</trkpt>
<trkpt lat="40.072842" lon="-105.230575">
  <ele>1586.09</ele>
  <time>2026-08-27T18:27:13Z</time>
  <course>266.03</course>
  <speed>0.0</speed>
  <fix>3d</fix>
</trkpt>
<trkpt lat="40.072842" lon="-105.230575">
  <ele>1586.09</ele>
  <time>2026-08-27T18:27:13Z</time>
  <course>11.75</course>
  <speed>0.0282842712474619</speed>
  <fix>3d</fix>
</trkpt>
<trkpt lat="40.072842" lon="-105.230575">
  <ele>1586.09</ele>
  <time>2026-08-27T18:27:13Z</time>
  <course>266.03</course>
  <speed>0.0</speed>
  <fix>3d</fix>
</trkpt>
<trkpt lat="40.072842" lon="-105.230575">
  <ele>1586.09</ele>
  <time>2026-08-27T18:27:13Z</time>
  <course>11.74</course>
  <speed>0.03605551275463989</speed>
  <fix>3d</fix>
</trkpt>
<trkpt lat="40.072842" lon="-105.230575">
  <ele>1586.09</ele>
  <time>2026-08-27T18:27:13Z</time>
  <course>266.03</course>
  <speed>0.0</speed>
  <fix>3d</fix>
</trkpt>
<trkpt lat="40.072842" lon="-105.230575">
  <ele>1586.09</ele>
  <time>2026-08-27T18:27:13Z</time>
  <course>11.73</course>
  <speed>0.03605551275463989</speed>
  <fix>3d</fix>
</trkpt>
<trkpt lat="40.072842" lon="-105.230575">
  <ele>1586.09</ele>
  <time>2026-08-27T18:27:13Z</time>
  <course>266.03</course>
  <speed>0.0</speed>
  <fix>3d</fix>
</trkpt>
<trkpt lat="40.072842" lon="-105.230575">
  <ele>1586.09</ele>
  <time>2026-08-27T18:27:13Z</time>
  <course>11.73</course>
  <speed>0.03605551275463989</speed>
  <fix>3d</fix>
</trkpt>
<trkpt lat="40.072842" lon="-105.230575">
  <ele>1586.09</ele>
  <time>2026-08-27T18:27:13Z</time>
  <course>266.03</course>
  <speed>0.0</speed>
  <fix>3d</fix>
</trkpt>
<trkpt lat="40.072842" lon="-105.230575">
  <ele>1586.09</ele>
  <time>2026-08-27T18:27:13Z</time>
  <course>11.72</course>
  <speed>0.03605551275463989</speed>
  <fix>3d</fix>
</trkpt>
<trkpt lat="40.072842" lon="-105.230575">
  <ele>1586.09</ele>
  <time>2026-08-27T18:27:13Z</time>
  <course>266.03</course>
  <speed>0.0</speed>
  <fix>3d</fix>
</trkpt>
<trkpt lat="40.072842" lon="-105.230575">
  <ele>1586.09</ele>
  <time>2026-08-27T18:27:13Z</time>
  <course>11.71</course>
  <speed>0.03605551275463989</speed>
  <fix>3d</fix>
</trkpt>
<trkpt lat="40.072842" lon="-105.230575">
  <ele>1586.09</ele>
  <time>2026-08-27T18:27:13Z</time>
  <course>266.03</course>
  <speed>0.0</speed>
  <fix>3d</fix>
</trkpt>
<trkpt lat="40.072842" lon="-105.230575">
  <ele>1586.09</ele>
  <time>2026-08-27T18:27:13Z</time>
  <course>11.7</course>
  <speed>0.03605551275463989</speed>
  <fix>3d</fix>
</trkpt>
<trkpt lat="40.072842" lon="-105.230575">
  <ele>1586.09</ele>
  <time>2026-08-27T18:27:13Z</time>
  <course>266.03</course>
  <speed>0.0</speed>
  <fix>3d</fix>
</trkpt>
<trkpt lat="40.072842" lon="-105.230575">
  <ele>1586.09</ele>
  <time>2026-08-27T18:27:13Z</time>
  <course>11.69</course>
  <speed>0.03605551275463989</speed>
  <fix>3d</fix>
</trkpt>
<trkpt lat="40.072842" lon="-105.230575">
  <ele>1586.09</ele>
  <time>2026-08-27T18:27:13Z</time>
  <course>266.03</course>
  <speed>0.0</speed>
  <fix>3d</fix>
</trkpt>
<trkpt lat="40.072842" lon="-105.230575">
  <ele>1586.09</ele>
  <time>2026-08-27T18:27:13Z</time>
  <course>11.69</course>
  <speed>0.03605551275463989</speed>
  <fix>3d</fix>
</trkpt>
<trkpt lat="40.072842" lon="-105.230575">
  <ele>1586.09</ele>
  <time>2026-08-27T18:27:13Z</time>
  <course>266.03</course>
  <speed>0.0</speed>
  <fix>3d</fix>
</trkpt>
<trkpt lat="40.072842" lon="-105.230575">
  <ele>1586.09</ele>
  <time>2026-08-27T18:27:13Z</time>
  <course>11.68</course>
  <speed>0.03605551275463989</speed>
  <fix>3d</fix>
</trkpt>
<trkpt lat="40.072842" lon="-105.230575">
  <ele>1586.09</ele>
  <time>2026-08-27T18:27:13Z</time>
  <course>266.03</course>
  <speed>0.0</speed>
  <fix>3d</fix>
</trkpt>
<trkpt lat="40.072842" lon="-105.230575">
  <ele>1586.09</ele>
  <time>2026-08-27T18:27:13Z</time>
  <course>11.67</course>
  <speed>0.03605551275463989</speed>
  <fix>3d</fix>
</trkpt>
<trkpt lat="40.072842" lon="-105.230575">
  <ele>1586.09</ele>
  <time>2026-08-27T18:27:13Z</time>
  <course>266.03</course>
  <speed>0.0</speed>
  <fix>3d</fix>
</trkpt>
<trkpt lat="40.072842" lon="-105.230575">
  <ele>1586.09</ele>
  <time>2026-08-27T18:27:13Z</time>
  <course>11.67</course>
  <speed>0.03605551275463989</speed>
  <fix>3d</fix>
</trkpt>
<trkpt lat="40.072842" lon="-105.230575">
  <ele>1586.09</ele>
  <time>2026-08-27T18:27:13Z</time>
  <course>266.03</course>
  <speed>0.0</speed>
  <fix>3d</fix>
</trkpt>
<trkpt lat="40.072842" lon="-105.230575">
  <ele>1586.09</ele>
  <time>2026-08-27T18:27:13Z</time>
  <course>11.66</course>
  <speed>0.03605551275463989</speed>
  <fix>3d</fix>
</trkpt>
<trkpt lat="40.072842" lon="-105.230575">
  <ele>1586.09</ele>
  <time>2026-08-27T18:27:13Z</time>
  <course>266.03</course>
  <speed>0.0</speed>
  <fix>3d</fix>
</trkpt>
<trkpt lat="40.072842" lon="-105.230575">
  <ele>1586.09</ele>
  <time>2026-08-27T18:27:13Z</time>
  <course>11.65</course>
  <speed>0.03605551275463989</speed>
  <fix>3d</fix>
</trkpt>
<trkpt lat="40.072842" lon="-105.230575">
  <ele>1586.09</ele>
  <time>2026-08-27T18:27:13Z</time>
  <course>266.03</course>
  <speed>0.0</speed>
  <fix>3d</fix>
</trkpt>
<trkpt lat="40.072842" lon="-105.230575">
  <ele>1586.09</ele>
  <time>2026-08-27T18:27:13Z</time>
  <course>11.65</course>
  <speed>0.03605551275463989</speed>
  <fix>3d</fix>
</trkpt>
<trkpt lat="40.072842" lon="-105.230575">
  <ele>1586.09</ele>
  <time>2026-08-27T18:27:13Z</time>
  <course>266.03</course>
  <speed>0.0</speed>
  <fix>3d</fix>
</trkpt>
<trkpt lat="40.072842" lon="-105.230575">
  <ele>1586.09</ele>
  <time>2026-08-27T18:27:13Z</time>
  <course>11.64</course>
  <speed>0.03605551275463989</speed>
  <fix>3d</fix>
</trkpt>
<trkpt lat="40.072842" lon="-105.230575">
  <ele>1586.09</ele>
  <time>2026-08-27T18:27:13Z</time>
  <course>266.03</course>
  <speed>0.0</speed>
  <fix>3d</fix>
</trkpt>
<trkpt lat="40.072842" lon="-105.230575">
  <ele>1586.09</ele>
  <time>2026-08-27T18:27:13Z</time>
  <course>11.63</course>
  <speed>0.03605551275463989</speed>
  <fix>3d</fix>
</trkpt>
<trkpt lat="40.072842" lon="-105.230575">
  <ele>1586.09</ele>
  <time>2026-08-27T18:27:13Z</time>
  <course>266.03</course>
  <speed>0.0</speed>
  <fix>3d</fix>
</trkpt>
<trkpt lat="40.072842" lon="-105.230575">
  <ele>1586.09</ele>
  <time>2026-08-27T18:27:13Z</time>
  <course>11.62</course>
  <speed>0.03605551275463989</speed>
  <fix>3d</fix>
</trkpt>
<trkpt lat="40.072842" lon="-105.230575">
  <ele>1586.09</ele>
  <time>2026-08-27T18:27:13Z</time>
  <course>266.03</course>
  <speed>0.0</speed>
  <fix>3d</fix>
</trkpt>
<trkpt lat="40.072842" lon="-105.230575">
  <ele>1586.09</ele>
  <time>2026-08-27T18:27:13Z</time>
  <course>11.62</course>
  <speed>0.03605551275463989</speed>
  <fix>3d</fix>
</trkpt>
<trkpt lat="40.072842" lon="-105.230575">
  <ele>1586.09</ele>
  <time>2026-08-27T18:27:13Z</time>
  <course>266.03</course>
  <speed>0.0</speed>
  <fix>3d</fix>
</trkpt>
<trkpt lat="40.072842" lon="-105.230575">
  <ele>1586.09</ele>
  <time>2026-08-27T18:27:13Z</time>
  <course>11.61</course>
  <speed>0.03605551275463989</speed>
  <fix>3d</fix>
</trkpt>
<trkpt lat="40.072842" lon="-105.230575">
  <ele>1586.09</ele>
  <time>2026-08-27T18:27:13Z</time>
  <course>266.03</course>
  <speed>0.0</speed>
  <fix>3d</fix>
</trkpt>
<trkpt lat="40.072842" lon="-105.230575">
  <ele>1586.09</ele>
  <time>2026-08-27T18:27:13Z</time>
  <course>11.61</course>
  <speed>0.03605551275463989</speed>
  <fix>3d</fix>
</trkpt>
<trkpt lat="40.072842" lon="-105.230575">
  <ele>1586.09</ele>
  <time>2026-08-27T18:27:13Z</time>
  <course>266.03</course>
  <speed>0.0</speed>
  <fix>3d</fix>
</trkpt>
<trkpt lat="40.072842" lon="-105.230575">
  <ele>1586.09</ele>
  <time>2026-08-27T18:27:13Z</time>
  <course>11.6</course>
  <speed>0.03605551275463989</speed>
  <fix>3d</fix>
</trkpt>
<trkpt lat="40.072842" lon="-105.230575">
  <ele>1586.09</ele>
  <time>2026-08-27T18:27:13Z</time>
  <course>266.03</course>
  <speed>0.0</speed>
  <fix>3d</fix>
</trkpt>
<trkpt lat="40.072842" lon="-105.230575">
  <ele>1586.09</ele>
  <time>2026-08-27T18:27:13Z</time>
  <course>11.59</course>
  <speed>0.03605551275463989</speed>
  <fix>3d</fix>
</trkpt>
<trkpt lat="40.072842" lon="-105.230575">
  <ele>1586.09</ele>
  <time>2026-08-27T18:27:13Z</time>
  <course>266.03</course>
  <speed>0.0</speed>
  <fix>3d</fix>
</trkpt>
<trkpt lat="40.072842" lon="-105.230575">
  <ele>1586.09</ele>
  <time>2026-08-27T18:27:13Z</time>
  <course>11.59</course>
  <speed>0.03605551275463989</speed>
  <fix>3d</fix>
</trkpt>
<trkpt lat="40.072842" lon="-105.230575">
  <ele>1586.09</ele>
  <time>2026-08-27T18:27:13Z</time>
  <course>266.03</course>
  <speed>0.0</speed>
  <fix>3d</fix>
</trkpt>
<trkpt lat="40.072842" lon="-105.230575">
  <ele>1586.09</ele>
  <time>2026-08-27T18:27:13Z</time>
  <course>11.58</course>
  <speed>0.03605551275463989</speed>
  <fix>3d</fix>
</trkpt>
<trkpt lat="40.072842" lon="-105.230575">
  <ele>1586.09</ele>
  <time>2026-08-27T18:27:13Z</time>
  <course>266.03</course>
  <speed>0.0</speed>
  <fix>3d</fix>
</trkpt>
<trkpt lat="40.072842" lon="-105.230575">
  <ele>1586.09</ele>
  <time>2026-08-27T18:27:13Z</time>
  <course>11.57</course>
  <speed>0.03605551275463989</speed>
  <fix>3d</fix>
</trkpt>
<trkpt lat="40.072842" lon="-105.230575">
  <ele>1586.09</ele>
  <time>2026-08-27T18:27:13Z</time>
  <course>266.03</course>
  <speed>0.0</speed>
  <fix>3d</fix>
</trkpt>
<trkpt lat="40.072842" lon="-105.230575">
  <ele>1586.09</ele>
  <time>2026-08-27T18:27:13Z</time>
  <course>11.57</course>
  <speed>0.03605551275463989</speed>
  <fix>3d</fix>
</trkpt>
<trkpt lat="40.072842" lon="-105.230575">
  <ele>1586.09</ele>
  <time>2026-08-27T18:27:13Z</time>
  <course>266.03</course>
  <speed>0.0</speed>
  <fix>3d</fix>
</trkpt>
<trkpt lat="40.072842" lon="-105.230575">
  <ele>1586.09</ele>
  <time>2026-08-27T18:27:13Z</time>
  <course>11.56</course>
  <speed>0.03605551275463989</speed>
  <fix>3d</fix>
</trkpt>
<trkpt lat="40.072842" lon="-105.230575">
  <ele>1586.09</ele>
  <time>2026-08-27T18:27:13Z</time>
  <course>266.03</course>
  <speed>0.0</speed>
  <fix>3d</fix>
</trkpt>
<trkpt lat="40.072842" lon="-105.230575">
  <ele>1586.09</ele>
  <time>2026-08-27T18:27:13Z</time>
  <course>11.56</course>
  <speed>0.03605551275463989</speed>
  <fix>3d</fix>
</trkpt>
<trkpt lat="40.072842" lon="-105.230575">
  <ele>1586.09</ele>
  <time>2026-08-27T18:27:13Z</time>
  <course>266.03</course>
  <speed>0.0</speed>
  <fix>3d</fix>
</trkpt>
<trkpt lat="40.072842" lon="-105.230575">
  <ele>1586.09</ele>
  <time>2026-08-27T18:27:13Z</time>
  <course>11.55</course>
  <speed>0.03605551275463989</speed>
  <fix>3d</fix>
</trkpt>
<trkpt lat="40.072842" lon="-105.230575">
  <ele>1586.09</ele>
  <time>2026-08-27T18:27:13Z</time>
  <course>266.03</course>
  <speed>0.0</speed>
  <fix>3d</fix>
</trkpt>
<trkpt lat="40.072842" lon="-105.230575">
  <ele>1586.09</ele>
  <time>2026-08-27T18:27:13Z</time>
  <course>11.54</course>
  <speed>0.03605551275463989</speed>
  <fix>3d</fix>
</trkpt>
<trkpt lat="40.072842" lon="-105.230575">
  <ele>1586.09</ele>
  <time>2026-08-27T18:27:13Z</time>
  <course>266.03</course>
  <speed>0.0</speed>
  <fix>3d</fix>
</trkpt>
<trkpt lat="40.072842" lon="-105.230575">
  <ele>1586.09</ele>
  <time>2026-08-27T18:27:13Z</time>
  <course>11.54</course>
  <speed>0.03605551275463989</speed>
  <fix>3d</fix>
</trkpt>
<trkpt lat="40.072842" lon="-105.230575">
  <ele>1586.09</ele>
  <time>2026-08-27T18:27:13Z</time>
  <course>266.03</course>
  <speed>0.0</speed>
  <fix>3d</fix>
</trkpt>
<trkpt lat="40.072842" lon="-105.230575">
  <ele>1586.09</ele>
  <time>2026-08-27T18:27:13Z</time>
  <course>11.53</course>
  <speed>0.03605551275463989</speed>
  <fix>3d</fix>
</trkpt>
<trkpt lat="40.072842" lon="-105.230575">
  <ele>1586.09</ele>
  <time>2026-08-27T18:27:13Z</time>
  <course>266.03</course>
  <speed>0.0</speed>
  <fix>3d</fix>
</trkpt>
<trkpt lat="40.072842" lon="-105.230575">
  <ele>1586.09</ele>
  <time>2026-08-27T18:27:13Z</time>
  <course>11.53</course>
  <speed>0.03605551275463989</speed>
  <fix>3d</fix>
</trkpt>
<trkpt lat="40.072842" lon="-105.230575">
  <ele>1586.09</ele>
  <time>2026-08-27T18:27:13Z</time>
  <course>266.03</course>
  <speed>0.0</speed>
  <fix>3d</fix>
</trkpt>
<trkpt lat="40.072842" lon="-105.230575">
  <ele>1586.09</ele>
  <time>2026-08-27T18:27:13Z</time>
  <course>11.52</course>
  <speed>0.03605551275463989</speed>
  <fix>3d</fix>
</trkpt>
<trkpt lat="40.072842" lon="-105.230575">
  <ele>1586.09</ele>
  <time>2026-08-27T18:27:13Z</time>
  <course>266.03</course>
  <speed>0.0</speed>
  <fix>3d</fix>
</trkpt>
<trkpt lat="40.072842" lon="-105.230575">
  <ele>1586.09</ele>
  <time>2026-08-27T18:27:13Z</time>
  <course>11.51</course>
  <speed>0.03605551275463989</speed>
  <fix>3d</fix>
</trkpt>
<trkpt lat="40.072842" lon="-105.230575">
  <ele>1586.09</ele>
  <time>2026-08-27T18:27:13Z</time>
  <course>266.03</course>
  <speed>0.0</speed>
  <fix>3d</fix>
</trkpt>
<trkpt lat="40.072842" lon="-105.230575">
  <ele>1586.09</ele>
  <time>2026-08-27T18:27:13Z</time>
  <course>11.51</course>
  <speed>0.03605551275463989</speed>
  <fix>3d</fix>
</trkpt>
<trkpt lat="40.072842" lon="-105.230575">
  <ele>1586.09</ele>
  <time>2026-08-27T18:27:13Z</time>
  <course>266.03</course>
  <speed>0.0</speed>
  <fix>3d</fix>
</trkpt>
<trkpt lat="40.072842" lon="-105.230575">
  <ele>1586.09</ele>
  <time>2026-08-27T18:27:13Z</time>
  <course>11.5</course>
  <speed>0.03605551275463989</speed>
  <fix>3d</fix>
</trkpt>
<trkpt lat="40.072842" lon="-105.230575">
  <ele>1586.09</ele>
  <time>2026-08-27T18:27:13Z</time>
  <course>266.03</course>
  <speed>0.0</speed>
  <fix>3d</fix>
</trkpt>
<trkpt lat="40.072842" lon="-105.230575">
  <ele>1586.09</ele>
  <time>2026-08-27T18:27:13Z</time>
  <course>11.5</course>
  <speed>0.03605551275463989</speed>
  <fix>3d</fix>
</trkpt>
<trkpt lat="40.072842" lon="-105.230575">
  <ele>1586.09</ele>
  <time>2026-08-27T18:27:13Z</time>
  <course>266.03</course>
  <speed>0.0</speed>
  <fix>3d</fix>
</trkpt>
<trkpt lat="40.072842" lon="-105.230575">
  <ele>1586.09</ele>
  <time>2026-08-27T18:27:13Z</time>
  <course>11.49</course>
  <speed>0.044721359549995794</speed>
  <fix>3d</fix>
</trkpt>
<trkpt lat="40.072842" lon="-105.230575">
  <ele>1586.09</ele>
  <time>2026-08-27T18:27:13Z</time>
  <course>266.03</course>
  <speed>0.0</speed>
  <fix>3d</fix>
</trkpt>
<trkpt lat="40.072842" lon="-105.230575">
  <ele>1586.09</ele>
  <time>2026-08-27T18:27:13Z</time>
  <course>11.49</course>
  <speed>0.044721359549995794</speed>
  <fix>3d</fix>
</trkpt>
<trkpt lat="40.072842" lon="-105.230575">
  <ele>1586.09</ele>
  <time>2026-08-27T18:27:13Z</time>
  <course>266.03</course>
  <speed>0.0</speed>
  <fix>3d</fix>
</trkpt>
<trkpt lat="40.072842" lon="-105.230575">
  <ele>1586.09</ele>
  <time>2026-08-27T18:27:13Z</time>
  <course>11.48</course>
  <speed>0.044721359549995794</speed>
  <fix>3d</fix>
</trkpt>
<trkpt lat="40.072842" lon="-105.230575">
  <ele>1586.09</ele>
  <time>2026-08-27T18:27:13Z</time>
  <course>266.03</course>
  <speed>0.0</speed>
  <fix>3d</fix>
</trkpt>
<trkpt lat="40.072842" lon="-105.230575">
  <ele>1586.09</ele>
  <time>2026-08-27T18:27:13Z</time>
  <course>11.48</course>
  <speed>0.044721359549995794</speed>
  <fix>3d</fix>
</trkpt>
<trkpt lat="40.072842" lon="-105.230575">
  <ele>1586.09</ele>
  <time>2026-08-27T18:27:13Z</time>
  <course>266.03</course>
  <speed>0.0</speed>
  <fix>3d</fix>
</trkpt>
<trkpt lat="40.072842" lon="-105.230575">
  <ele>1586.09</ele>
  <time>2026-08-27T18:27:13Z</time>
  <course>11.47</course>
  <speed>0.044721359549995794</speed>
  <fix>3d</fix>
</trkpt>
<trkpt lat="40.072842" lon="-105.230575">
  <ele>1586.09</ele>
  <time>2026-08-27T18:27:13Z</time>
  <course>266.03</course>
  <speed>0.0</speed>
  <fix>3d</fix>
</trkpt>
<trkpt lat="40.072842" lon="-105.230575">
  <ele>1586.09</ele>
  <time>2026-08-27T18:27:13Z</time>
  <course>11.47</course>
  <speed>0.044721359549995794</speed>
  <fix>3d</fix>
</trkpt>
<trkpt lat="40.072842" lon="-105.230575">
  <ele>1586.09</ele>
  <time>2026-08-27T18:27:13Z</time>
  <course>266.03</course>
  <speed>0.0</speed>
  <fix>3d</fix>
</trkpt>
<trkpt lat="40.072842" lon="-105.230575">
  <ele>1586.09</ele>
  <time>2026-08-27T18:27:13Z</time>
  <course>11.46</course>
  <speed>0.044721359549995794</speed>
  <fix>3d</fix>
</trkpt>
<trkpt lat="40.072842" lon="-105.230575">
  <ele>1586.09</ele>
  <time>2026-08-27T18:27:13Z</time>
  <course>266.03</course>
  <speed>0.0</speed>
  <fix>3d</fix>
</trkpt>
<trkpt lat="40.072842" lon="-105.230575">
  <ele>1586.09</ele>
  <time>2026-08-27T18:27:13Z</time>
  <course>11.46</course>
  <speed>0.044721359549995794</speed>
  <fix>3d</fix>
</trkpt>
<trkpt lat="40.072842" lon="-105.230575">
  <ele>1586.09</ele>
  <time>2026-08-27T18:27:13Z</time>
  <course>266.03</course>
  <speed>0.0</speed>
  <fix>3d</fix>
</trkpt>
<trkpt lat="40.072842" lon="-105.230575">
  <ele>1586.15</ele>
  <time>2026-08-27T18:27:13Z</time>
  <course>11.45</course>
  <speed>0.0</speed>
  <fix>3d</fix>
</trkpt>
<trkpt lat="40.072842" lon="-105.230575">
  <ele>1586.09</ele>
  <time>2026-08-27T18:27:13Z</time>
  <course>266.03</course>
  <speed>0.0</speed>
  <fix>3d</fix>
</trkpt>
<trkpt lat="40.072842" lon="-105.230575">
  <ele>1586.15</ele>
  <time>2026-08-27T18:27:13Z</time>
  <course>11.45</course>
  <speed>0.0</speed>
  <fix>3d</fix>
</trkpt>
<trkpt lat="40.072842" lon="-105.230575">
  <ele>1586.09</ele>
  <time>2026-08-27T18:27:13Z</time>
  <course>266.03</course>
  <speed>0.0</speed>
  <fix>3d</fix>
</trkpt>
<trkpt lat="40.072842" lon="-105.230575">
  <ele>1586.14</ele>
  <time>2026-08-27T18:27:13Z</time>
  <course>11.44</course>
  <speed>0.0</speed>
  <fix>3d</fix>
</trkpt>
<trkpt lat="40.072842" lon="-105.230575">
  <ele>1586.09</ele>
  <time>2026-08-27T18:27:13Z</time>
  <course>281.49</course>
  <speed>0.0</speed>
  <fix>3d</fix>
</trkpt>
<trkpt lat="40.072842" lon="-105.230575">
  <ele>1586.14</ele>
  <time>2026-08-27T18:27:13Z</time>
  <course>11.44</course>
  <speed>0.0</speed>
  <fix>3d</fix>
</trkpt>
<trkpt lat="40.072842" lon="-105.230575">
  <ele>1586.09</ele>
  <time>2026-08-27T18:27:13Z</time>
  <course>269.42</course>
  <speed>0.0</speed>
  <fix>3d</fix>
</trkpt>
<trkpt lat="40.072842" lon="-105.230575">
  <ele>1586.14</ele>
  <time>2026-08-27T18:27:13Z</time>
  <course>11.43</course>
  <speed>0.0</speed>
  <fix>3d</fix>
</trkpt>
<trkpt lat="40.072842" lon="-105.230575">
  <ele>1586.09</ele>
  <time>2026-08-27T18:27:13Z</time>
  <course>211.84</course>
  <speed>0.0</speed>
  <fix>3d</fix>
</trkpt>
<trkpt lat="40.072842" lon="-105.230575">
  <ele>1586.14</ele>
  <time>2026-08-27T18:27:13Z</time>
  <course>11.43</course>
  <speed>0.01</speed>
  <fix>3d</fix>
</trkpt>
<trkpt lat="40.072842" lon="-105.230575">
  <ele>1586.09</ele>
  <time>2026-08-27T18:27:13Z</time>
  <course>76.8</course>
  <speed>0.0</speed>
  <fix>3d</fix>
</trkpt>
<trkpt lat="40.072842" lon="-105.230575">
  <ele>1586.14</ele>
  <time>2026-08-27T18:27:13Z</time>
  <course>11.42</course>
  <speed>0.01</speed>
  <fix>3d</fix>
</trkpt>
<trkpt lat="40.072842" lon="-105.230575">
  <ele>1586.09</ele>
  <time>2026-08-27T18:27:13Z</time>
  <course>283.66</course>
  <speed>0.0</speed>
  <fix>3d</fix>
</trkpt>
<trkpt lat="40.072842" lon="-105.230575">
  <ele>1586.14</ele>
  <time>2026-08-27T18:27:13Z</time>
  <course>11.42</course>
  <speed>0.01</speed>
  <fix>3d</fix>
</trkpt>
<trkpt lat="40.072842" lon="-105.230575">
  <ele>1586.09</ele>
  <time>2026-08-27T18:27:13Z</time>
  <course>262.24</course>
  <speed>0.0</speed>
  <fix>3d</fix>
</trkpt>
<trkpt lat="40.072842" lon="-105.230575">
  <ele>1586.14</ele>
  <time>2026-08-27T18:27:13Z</time>
  <course>11.42</course>
  <speed>0.01414213562373095</speed>
  <fix>3d</fix>
</trkpt>
<trkpt lat="40.072842" lon="-105.230575">
  <ele>1586.09</ele>
  <time>2026-08-27T18:27:13Z</time>
  <course>263.53</course>
  <speed>0.0</speed>
  <fix>3d</fix>
</trkpt>
<trkpt lat="40.072842" lon="-105.230575">
  <ele>1586.15</ele>
  <time>2026-08-27T18:27:13Z</time>
  <course>11.41</course>
  <speed>0.01414213562373095</speed>
  <fix>3d</fix>
</trkpt>
<trkpt lat="40.072842" lon="-105.230575">
  <ele>1586.09</ele>
  <time>2026-08-27T18:27:13Z</time>
  <course>267.07</course>
  <speed>0.0</speed>
  <fix>3d</fix>
</trkpt>
<trkpt lat="40.072842" lon="-105.230575">
  <ele>1586.15</ele>
  <time>2026-08-27T18:27:13Z</time>
  <course>11.41</course>
  <speed>0.01414213562373095</speed>
  <fix>3d</fix>
</trkpt>
<trkpt lat="40.072842" lon="-105.230575">
  <ele>1586.09</ele>
  <time>2026-08-27T18:27:13Z</time>
  <course>266.23</course>
  <speed>0.0</speed>
  <fix>3d</fix>
</trkpt>
<trkpt lat="40.072842" lon="-105.230575">
  <ele>1586.15</ele>
  <time>2026-08-27T18:27:13Z</time>
  <course>11.4</course>
  <speed>0.022360679774997897</speed>
  <fix>3d</fix>
</trkpt>
<trkpt lat="40.072842" lon="-105.230575">
  <ele>1586.09</ele>
  <time>2026-08-27T18:27:13Z</time>
  <course>265.88</course>
  <speed>0.0</speed>
  <fix>3d</fix>
</trkpt>
<trkpt lat="40.072842" lon="-105.230575">
  <ele>1586.15</ele>
  <time>2026-08-27T18:27:13Z</time>
  <course>11.4</course>
  <speed>0.022360679774997897</speed>
  <fix>3d</fix>
</trkpt>
<trkpt lat="40.072842" lon="-105.230575">
  <ele>1586.09</ele>
  <time>2026-08-27T18:27:13Z</time>
  <course>259.35</course>
  <speed>0.0</speed>
  <fix>3d</fix>
</trkpt>
<trkpt lat="40.072842" lon="-105.230575">
  <ele>1586.16</ele>
  <time>2026-08-27T18:27:13Z</time>
  <course>11.4</course>
  <speed>0.022360679774997897</speed>
  <fix>3d</fix>
</trkpt>
<trkpt lat="40.072842" lon="-105.230575">
  <ele>1586.09</ele>
  <time>2026-08-27T18:27:13Z</time>
  <course>264.89</course>
  <speed>0.0</speed>
  <fix>3d</fix>
</trkpt>
<trkpt lat="40.072842" lon="-105.230575">
  <ele>1586.16</ele>
  <time>2026-08-27T18:27:13Z</time>
  <course>11.39</course>
  <speed>0.022360679774997897</speed>
  <fix>3d</fix>
</trkpt>
<trkpt lat="40.072842" lon="-105.230575">
  <ele>1586.09</ele>
  <time>2026-08-27T18:27:13Z</time>
  <course>268.54</course>
  <speed>0.0</speed>
  <fix>3d</fix>
</trkpt>
<trkpt lat="40.072842" lon="-105.230575">
  <ele>1586.16</ele>
  <time>2026-08-27T18:27:13Z</time>
  <course>11.39</course>
  <speed>0.01414213562373095</speed>
  <fix>3d</fix>
</trkpt>
<trkpt lat="40.072842" lon="-105.230575">
  <ele>1586.09</ele>
  <time>2026-08-27T18:27:13Z</time>
  <course>264.11</course>
  <speed>0.0</speed>
  <fix>3d</fix>
</trkpt>
<trkpt lat="40.072842" lon="-105.230575">
  <ele>1586.16</ele>
  <time>2026-08-27T18:27:13Z</time>
  <course>11.39</course>
  <speed>0.01414213562373095</speed>
  <fix>3d</fix>
</trkpt>
<trkpt lat="40.072842" lon="-105.230575">
  <ele>1586.09</ele>
  <time>2026-08-27T18:27:13Z</time>
  <course>266.08</course>
  <speed>0.0</speed>
  <fix>3d</fix>
</trkpt>
<trkpt lat="40.072842" lon="-105.230575">
  <ele>1586.16</ele>
  <time>2026-08-27T18:27:13Z</time>
  <course>11.38</course>
  <speed>0.01</speed>
  <fix>3d</fix>
</trkpt>
<trkpt lat="40.072842" lon="-105.230575">
  <ele>1586.09</ele>
  <time>2026-08-27T18:27:13Z</time>
  <course>266.29</course>
  <speed>0.0</speed>
  <fix>3d</fix>
</trkpt>
<trkpt lat="40.072842" lon="-105.230575">
  <ele>1586.16</ele>
  <time>2026-08-27T18:27:13Z</time>
  <course>11.38</course>
  <speed>0.0</speed>
  <fix>3d</fix>
</trkpt>
<trkpt lat="40.072842" lon="-105.230575">
  <ele>1586.09</ele>
  <time>2026-08-27T18:27:13Z</time>
  <course>266.0</course>
  <speed>0.0</speed>
  <fix>3d</fix>
</trkpt>
<trkpt lat="40.072842" lon="-105.230575">
  <ele>1586.16</ele>
  <time>2026-08-27T18:27:13Z</time>
  <course>11.37</course>
  <speed>0.0</speed>
  <fix>3d</fix>
</trkpt>
<trkpt lat="40.072842" lon="-105.230575">
  <ele>1586.09</ele>
  <time>2026-08-27T18:27:13Z</time>
  <course>266.01</course>
  <speed>0.0</speed>
  <fix>3d</fix>
</trkpt>
<trkpt lat="40.072842" lon="-105.230575">
  <ele>1586.16</ele>
  <time>2026-08-27T18:27:14Z</time>
  <course>11.37</course>
  <speed>0.0</speed>
  <fix>3d</fix>
</trkpt>
<trkpt lat="40.072842" lon="-105.230575">
  <ele>1586.09</ele>
  <time>2026-08-27T18:27:14Z</time>
  <course>266.04</course>
  <speed>0.0</speed>
  <fix>3d</fix>
</trkpt>
<trkpt lat="40.072842" lon="-105.230575">
  <ele>1586.16</ele>
  <time>2026-08-27T18:27:14Z</time>
  <course>11.37</course>
  <speed>0.0</speed>
  <fix>3d</fix>
</trkpt>
<trkpt lat="40.072842" lon="-105.230575">
  <ele>1586.09</ele>
  <time>2026-08-27T18:27:14Z</time>
  <course>315.89</course>
  <speed>0.0</speed>
  <fix>3d</fix>
</trkpt>
<trkpt lat="40.072842" lon="-105.230575">
  <ele>1586.16</ele>
  <time>2026-08-27T18:27:14Z</time>
  <course>11.36</course>
  <speed>0.0</speed>
  <fix>3d</fix>
</trkpt>
<trkpt lat="40.072842" lon="-105.230575">
  <ele>1586.09</ele>
  <time>2026-08-27T18:27:14Z</time>
  <course>322.06</course>
  <speed>0.0</speed>
  <fix>3d</fix>
</trkpt>
<trkpt lat="40.072842" lon="-105.230575">
  <ele>1586.16</ele>
  <time>2026-08-27T18:27:14Z</time>
  <course>11.36</course>
  <speed>0.0</speed>
  <fix>3d</fix>
</trkpt>
<trkpt lat="40.072842" lon="-105.230575">
  <ele>1586.09</ele>
  <time>2026-08-27T18:27:14Z</time>
  <course>312.76</course>
  <speed>0.0</speed>
  <fix>3d</fix>
</trkpt>
<trkpt lat="40.072842" lon="-105.230575">
  <ele>1586.16</ele>
  <time>2026-08-27T18:27:14Z</time>
  <course>11.36</course>
  <speed>0.0</speed>
  <fix>3d</fix>
</trkpt>
<trkpt lat="40.072842" lon="-105.230575">
  <ele>1586.09</ele>
  <time>2026-08-27T18:27:14Z</time>
  <course>195.16</course>
  <speed>0.0</speed>
  <fix>3d</fix>
</trkpt>
<trkpt lat="40.072842" lon="-105.230575">
  <ele>1586.16</ele>
  <time>2026-08-27T18:27:14Z</time>
  <course>11.35</course>
  <speed>0.0</speed>
  <fix>3d</fix>
</trkpt>
<trkpt lat="40.072842" lon="-105.230575">
  <ele>1586.09</ele>
  <time>2026-08-27T18:27:14Z</time>
  <course>162.38</course>
  <speed>0.0</speed>
  <fix>3d</fix>
</trkpt>
<trkpt lat="40.072842" lon="-105.230575">
  <ele>1586.16</ele>
  <time>2026-08-27T18:27:14Z</time>
  <course>11.35</course>
  <speed>0.0</speed>
  <fix>3d</fix>
</trkpt>
<trkpt lat="40.072842" lon="-105.230575">
  <ele>1586.09</ele>
  <time>2026-08-27T18:27:14Z</time>
  <course>301.46</course>
  <speed>0.0</speed>
  <fix>3d</fix>
</trkpt>
<trkpt lat="40.072842" lon="-105.230575">
  <ele>1586.16</ele>
  <time>2026-08-27T18:27:14Z</time>
  <course>11.34</course>
  <speed>0.0</speed>
  <fix>3d</fix>
</trkpt>
<trkpt lat="40.072842" lon="-105.230575">
  <ele>1586.09</ele>
  <time>2026-08-27T18:27:14Z</time>
  <course>267.99</course>
  <speed>0.0</speed>
  <fix>3d</fix>
</trkpt>
<trkpt lat="40.072842" lon="-105.230575">
  <ele>1586.16</ele>
  <time>2026-08-27T18:27:14Z</time>
  <course>11.33</course>
  <speed>0.0</speed>
  <fix>3d</fix>
</trkpt>
<trkpt lat="40.072842" lon="-105.230575">
  <ele>1586.09</ele>
  <time>2026-08-27T18:27:14Z</time>
  <course>260.56</course>
  <speed>0.0</speed>
  <fix>3d</fix>
</trkpt>
<trkpt lat="40.072842" lon="-105.230575">
  <ele>1586.16</ele>
  <time>2026-08-27T18:27:14Z</time>
  <course>11.32</course>
  <speed>0.0</speed>
  <fix>3d</fix>
</trkpt>
<trkpt lat="40.072842" lon="-105.230575">
  <ele>1586.09</ele>
  <time>2026-08-27T18:27:14Z</time>
  <course>146.89</course>
  <speed>0.0</speed>
  <fix>3d</fix>
</trkpt>
<trkpt lat="40.072842" lon="-105.230575">
  <ele>1586.16</ele>
  <time>2026-08-27T18:27:14Z</time>
  <course>11.31</course>
  <speed>0.0</speed>
  <fix>3d</fix>
</trkpt>
<trkpt lat="40.072842" lon="-105.230575">
  <ele>1586.09</ele>
  <time>2026-08-27T18:27:14Z</time>
  <course>342.13</course>
  <speed>0.0</speed>
  <fix>3d</fix>
</trkpt>
<trkpt lat="40.072842" lon="-105.230575">
  <ele>1586.16</ele>
  <time>2026-08-27T18:27:14Z</time>
  <course>11.3</course>
  <speed>0.0</speed>
  <fix>3d</fix>
</trkpt>
<trkpt lat="40.072842" lon="-105.230575">
  <ele>1586.09</ele>
  <time>2026-08-27T18:27:14Z</time>
  <course>324.46</course>
  <speed>0.0</speed>
  <fix>3d</fix>
</trkpt>
<trkpt lat="40.072842" lon="-105.230575">
  <ele>1586.16</ele>
  <time>2026-08-27T18:27:14Z</time>
  <course>11.28</course>
  <speed>0.0</speed>
  <fix>3d</fix>
</trkpt>
<trkpt lat="40.072842" lon="-105.230575">
  <ele>1586.09</ele>
  <time>2026-08-27T18:27:14Z</time>
  <course>279.76</course>
  <speed>0.0</speed>
  <fix>3d</fix>
</trkpt>
<trkpt lat="40.072842" lon="-105.230575">
  <ele>1586.16</ele>
  <time>2026-08-27T18:27:14Z</time>
  <course>11.27</course>
  <speed>0.0</speed>
  <fix>3d</fix>
</trkpt>
<trkpt lat="40.072842" lon="-105.230575">
  <ele>1586.09</ele>
  <time>2026-08-27T18:27:14Z</time>
  <course>257.04</course>
  <speed>0.0</speed>
  <fix>3d</fix>
</trkpt>
<trkpt lat="40.072842" lon="-105.230575">
  <ele>1586.16</ele>
  <time>2026-08-27T18:27:14Z</time>
  <course>11.25</course>
  <speed>0.0</speed>
  <fix>3d</fix>
</trkpt>
<trkpt lat="40.072842" lon="-105.230575">
  <ele>1586.09</ele>
  <time>2026-08-27T18:27:14Z</time>
  <course>256.57</course>
  <speed>0.0</speed>
  <fix>3d</fix>
</trkpt>
<trkpt lat="40.072842" lon="-105.230575">
  <ele>1586.16</ele>
  <time>2026-08-27T18:27:14Z</time>
  <course>11.23</course>
  <speed>0.0</speed>
  <fix>3d</fix>
</trkpt>
<trkpt lat="40.072842" lon="-105.230575">
  <ele>1586.09</ele>
  <time>2026-08-27T18:27:14Z</time>
  <course>275.54</course>
  <speed>0.0</speed>
  <fix>3d</fix>
</trkpt>
<trkpt lat="40.072842" lon="-105.230575">
  <ele>1586.16</ele>
  <time>2026-08-27T18:27:14Z</time>
  <course>11.21</course>
  <speed>0.0</speed>
  <fix>3d</fix>
</trkpt>
<trkpt lat="40.072842" lon="-105.230575">
  <ele>1586.09</ele>
  <time>2026-08-27T18:27:14Z</time>
  <course>279.85</course>
  <speed>0.0</speed>
  <fix>3d</fix>
</trkpt>
<trkpt lat="40.072842" lon="-105.230575">
  <ele>1586.16</ele>
  <time>2026-08-27T18:27:14Z</time>
  <course>11.19</course>
  <speed>0.0</speed>
  <fix>3d</fix>
</trkpt>
<trkpt lat="40.072842" lon="-105.230575">
  <ele>1586.09</ele>
  <time>2026-08-27T18:27:14Z</time>
  <course>310.57</course>
  <speed>0.0</speed>
  <fix>3d</fix>
</trkpt>
<trkpt lat="40.072842" lon="-105.230575">
  <ele>1586.16</ele>
  <time>2026-08-27T18:27:14Z</time>
  <course>11.17</course>
  <speed>0.0</speed>
  <fix>3d</fix>
</trkpt>
<trkpt lat="40.072842" lon="-105.230575">
  <ele>1586.09</ele>
  <time>2026-08-27T18:27:14Z</time>
  <course>288.5</course>
  <speed>0.0</speed>
  <fix>3d</fix>
</trkpt>
<trkpt lat="40.072842" lon="-105.230575">
  <ele>1586.17</ele>
  <time>2026-08-27T18:27:14Z</time>
  <course>11.14</course>
  <speed>0.0</speed>
  <fix>3d</fix>
</trkpt>
<trkpt lat="40.072842" lon="-105.230575">
  <ele>1586.09</ele>
  <time>2026-08-27T18:27:14Z</time>
  <course>258.35</course>
  <speed>0.0</speed>
  <fix>3d</fix>
</trkpt>
<trkpt lat="40.072842" lon="-105.230575">
  <ele>1586.17</ele>
  <time>2026-08-27T18:27:14Z</time>
  <course>11.11</course>
  <speed>0.0</speed>
  <fix>3d</fix>
</trkpt>
<trkpt lat="40.072842" lon="-105.230575">
  <ele>1586.09</ele>
  <time>2026-08-27T18:27:14Z</time>
  <course>263.96</course>
  <speed>0.0</speed>
  <fix>3d</fix>
</trkpt>
<trkpt lat="40.072842" lon="-105.230575">
  <ele>1586.17</ele>
  <time>2026-08-27T18:27:14Z</time>
  <course>11.09</course>
  <speed>0.01</speed>
  <fix>3d</fix>
</trkpt>
<trkpt lat="40.072842" lon="-105.230575">
  <ele>1586.09</ele>
  <time>2026-08-27T18:27:14Z</time>
  <course>280.25</course>
  <speed>0.0</speed>
  <fix>3d</fix>
</trkpt>
<trkpt lat="40.072842" lon="-105.230575">
  <ele>1586.17</ele>
  <time>2026-08-27T18:27:14Z</time>
  <course>11.06</course>
  <speed>0.01</speed>
  <fix>3d</fix>
</trkpt>
<trkpt lat="40.072842" lon="-105.230575">
  <ele>1586.09</ele>
  <time>2026-08-27T18:27:14Z</time>
  <course>288.6</course>
  <speed>0.0</speed>
  <fix>3d</fix>
</trkpt>
<trkpt lat="40.072842" lon="-105.230575">
  <ele>1586.18</ele>
  <time>2026-08-27T18:27:14Z</time>
  <course>11.03</course>
  <speed>0.01</speed>
  <fix>3d</fix>
</trkpt>
<trkpt lat="40.072842" lon="-105.230575">
  <ele>1586.09</ele>
  <time>2026-08-27T18:27:14Z</time>
  <course>266.15</course>
  <speed>0.0</speed>
  <fix>3d</fix>
</trkpt>
<trkpt lat="40.072842" lon="-105.230575">
  <ele>1586.18</ele>
  <time>2026-08-27T18:27:14Z</time>
  <course>11.0</course>
  <speed>0.01</speed>
  <fix>3d</fix>
</trkpt>
<trkpt lat="40.072842" lon="-105.230575">
  <ele>1586.09</ele>
  <time>2026-08-27T18:27:14Z</time>
  <course>260.57</course>
  <speed>0.0</speed>
  <fix>3d</fix>
</trkpt>
<trkpt lat="40.072842" lon="-105.230575">
  <ele>1586.18</ele>
  <time>2026-08-27T18:27:14Z</time>
  <course>10.97</course>
  <speed>0.01</speed>
  <fix>3d</fix>
</trkpt>
<trkpt lat="40.072842" lon="-105.230575">
  <ele>1586.09</ele>
  <time>2026-08-27T18:27:14Z</time>
  <course>259.77</course>
  <speed>0.0</speed>
  <fix>3d</fix>
</trkpt>
<trkpt lat="40.072842" lon="-105.230575">
  <ele>1586.18</ele>
  <time>2026-08-27T18:27:14Z</time>
  <course>10.94</course>
  <speed>0.01414213562373095</speed>
  <fix>3d</fix>
</trkpt>
<trkpt lat="40.072842" lon="-105.230575">
  <ele>1586.09</ele>
  <time>2026-08-27T18:27:14Z</time>
  <course>274.38</course>
  <speed>0.0</speed>
  <fix>3d</fix>
</trkpt>
<trkpt lat="40.072842" lon="-105.230575">
  <ele>1586.18</ele>
  <time>2026-08-27T18:27:14Z</time>
  <course>10.9</course>
  <speed>0.01414213562373095</speed>
  <fix>3d</fix>
</trkpt>
<trkpt lat="40.072842" lon="-105.230575">
  <ele>1586.09</ele>
  <time>2026-08-27T18:27:14Z</time>
  <course>275.31</course>
  <speed>0.0</speed>
  <fix>3d</fix>
</trkpt>
<trkpt lat="40.072842" lon="-105.230575">
  <ele>1586.18</ele>
  <time>2026-08-27T18:27:14Z</time>
  <course>10.86</course>
  <speed>0.01414213562373095</speed>
  <fix>3d</fix>
</trkpt>
<trkpt lat="40.072842" lon="-105.230575">
  <ele>1586.09</ele>
  <time>2026-08-27T18:27:14Z</time>
  <course>291.77</course>
  <speed>0.0</speed>
  <fix>3d</fix>
</trkpt>
<trkpt lat="40.072842" lon="-105.230575">
  <ele>1586.18</ele>
  <time>2026-08-27T18:27:14Z</time>
  <course>10.83</course>
  <speed>0.01414213562373095</speed>
  <fix>3d</fix>
</trkpt>
<trkpt lat="40.072842" lon="-105.230575">
  <ele>1586.09</ele>
  <time>2026-08-27T18:27:14Z</time>
  <course>285.03</course>
  <speed>0.0</speed>
  <fix>3d</fix>
</trkpt>
<trkpt lat="40.072842" lon="-105.230575">
  <ele>1586.18</ele>
  <time>2026-08-27T18:27:14Z</time>
  <course>10.79</course>
  <speed>0.01414213562373095</speed>
  <fix>3d</fix>
</trkpt>
<trkpt lat="40.072842" lon="-105.230575">
  <ele>1586.09</ele>
  <time>2026-08-27T18:27:14Z</time>
  <course>270.99</course>
  <speed>0.0</speed>
  <fix>3d</fix>
</trkpt>
<trkpt lat="40.072842" lon="-105.230575">
  <ele>1586.18</ele>
  <time>2026-08-27T18:27:14Z</time>
  <course>10.75</course>
  <speed>0.01414213562373095</speed>
  <fix>3d</fix>
</trkpt>
<trkpt lat="40.072842" lon="-105.230575">
  <ele>1586.09</ele>
  <time>2026-08-27T18:27:14Z</time>
  <course>267.19</course>
  <speed>0.0</speed>
  <fix>3d</fix>
</trkpt>
<trkpt lat="40.0728419" lon="-105.230575">
  <ele>1586.17</ele>
  <time>2026-08-27T18:27:14Z</time>
  <course>10.71</course>
  <speed>0.01414213562373095</speed>
  <fix>3d</fix>
</trkpt>
<trkpt lat="40.072842" lon="-105.230575">
  <ele>1586.09</ele>
  <time>2026-08-27T18:27:14Z</time>
  <course>272.1</course>
  <speed>0.0</speed>
  <fix>3d</fix>
</trkpt>
<trkpt lat="40.0728419" lon="-105.230575">
  <ele>1586.17</ele>
  <time>2026-08-27T18:27:14Z</time>
  <course>10.67</course>
  <speed>0.022360679774997897</speed>
  <fix>3d</fix>
</trkpt>
<trkpt lat="40.072842" lon="-105.230575">
  <ele>1586.09</ele>
  <time>2026-08-27T18:27:14Z</time>
  <course>269.38</course>
  <speed>0.0</speed>
  <fix>3d</fix>
</trkpt>
<trkpt lat="40.0728419" lon="-105.2305749">
  <ele>1586.17</ele>
  <time>2026-08-27T18:27:14Z</time>
  <course>10.63</course>
  <speed>0.022360679774997897</speed>
  <fix>3d</fix>
</trkpt>
<trkpt lat="40.072842" lon="-105.230575">
  <ele>1586.09</ele>
  <time>2026-08-27T18:27:14Z</time>
  <course>281.36</course>
  <speed>0.0</speed>
  <fix>3d</fix>
</trkpt>
<trkpt lat="40.0728419" lon="-105.2305749">
  <ele>1586.17</ele>
  <time>2026-08-27T18:27:14Z</time>
  <course>10.58</course>
  <speed>0.022360679774997897</speed>
  <fix>3d</fix>
</trkpt>
<trkpt lat="40.072842" lon="-105.230575">
  <ele>1586.09</ele>
  <time>2026-08-27T18:27:14Z</time>
  <course>281.73</course>
  <speed>0.0</speed>
  <fix>3d</fix>
</trkpt>
<trkpt lat="40.0728419" lon="-105.2305749">
  <ele>1586.17</ele>
  <time>2026-08-27T18:27:14Z</time>
  <course>10.54</course>
  <speed>0.022360679774997897</speed>
  <fix>3d</fix>
</trkpt>
<trkpt lat="40.072842" lon="-105.230575">
  <ele>1586.09</ele>
  <time>2026-08-27T18:27:14Z</time>
  <course>267.52</course>
  <speed>0.0</speed>
  <fix>3d</fix>
</trkpt>
<trkpt lat="40.0728419" lon="-105.2305749">
  <ele>1586.17</ele>
  <time>2026-08-27T18:27:14Z</time>
  <course>10.49</course>
  <speed>0.022360679774997897</speed>
  <fix>3d</fix>
</trkpt>
<trkpt lat="40.072842" lon="-105.230575">
  <ele>1586.09</ele>
  <time>2026-08-27T18:27:14Z</time>
  <course>269.34</course>
  <speed>0.0</speed>
  <fix>3d</fix>
</trkpt>
<trkpt lat="40.0728419" lon="-105.2305749">
  <ele>1586.17</ele>
  <time>2026-08-27T18:27:14Z</time>
  <course>10.45</course>
  <speed>0.022360679774997897</speed>
  <fix>3d</fix>
</trkpt>
<trkpt lat="40.072842" lon="-105.230575">
  <ele>1586.09</ele>
  <time>2026-08-27T18:27:14Z</time>
  <course>268.72</course>
  <speed>0.0</speed>
  <fix>3d</fix>
</trkpt>
<trkpt lat="40.0728419" lon="-105.2305749">
  <ele>1586.18</ele>
  <time>2026-08-27T18:27:14Z</time>
  <course>10.4</course>
  <speed>0.022360679774997897</speed>
  <fix>3d</fix>
</trkpt>
<trkpt lat="40.072842" lon="-105.230575">
  <ele>1586.09</ele>
  <time>2026-08-27T18:27:14Z</time>
  <course>268.35</course>
  <speed>0.0</speed>
  <fix>3d</fix>
</trkpt>
<trkpt lat="40.0728419" lon="-105.2305749">
  <ele>1586.18</ele>
  <time>2026-08-27T18:27:14Z</time>
  <course>10.35</course>
  <speed>0.022360679774997897</speed>
  <fix>3d</fix>
</trkpt>
<trkpt lat="40.072842" lon="-105.230575">
  <ele>1586.09</ele>
  <time>2026-08-27T18:27:14Z</time>
  <course>279.69</course>
  <speed>0.0</speed>
  <fix>3d</fix>
</trkpt>
<trkpt lat="40.0728419" lon="-105.2305749">
  <ele>1586.18</ele>
  <time>2026-08-27T18:27:14Z</time>
  <course>10.3</course>
  <speed>0.022360679774997897</speed>
  <fix>3d</fix>
</trkpt>
<trkpt lat="40.072842" lon="-105.230575">
  <ele>1586.09</ele>
  <time>2026-08-27T18:27:14Z</time>
  <course>277.51</course>
  <speed>0.0</speed>
  <fix>3d</fix>
</trkpt>
<trkpt lat="40.0728419" lon="-105.2305749">
  <ele>1586.18</ele>
  <time>2026-08-27T18:27:14Z</time>
  <course>10.25</course>
  <speed>0.022360679774997897</speed>
  <fix>3d</fix>
</trkpt>
<trkpt lat="40.072842" lon="-105.230575">
  <ele>1586.09</ele>
  <time>2026-08-27T18:27:14Z</time>
  <course>269.98</course>
  <speed>0.0</speed>
  <fix>3d</fix>
</trkpt>
<trkpt lat="40.0728419" lon="-105.2305749">
  <ele>1586.18</ele>
  <time>2026-08-27T18:27:14Z</time>
  <course>10.2</course>
  <speed>0.022360679774997897</speed>
  <fix>3d</fix>
</trkpt>
<trkpt lat="40.072842" lon="-105.230575">
  <ele>1586.09</ele>
  <time>2026-08-27T18:27:14Z</time>
  <course>269.19</course>
  <speed>0.0</speed>
  <fix>3d</fix>
</trkpt>
<trkpt lat="40.0728419" lon="-105.2305749">
  <ele>1586.18</ele>
  <time>2026-08-27T18:27:14Z</time>
  <course>10.15</course>
  <speed>0.022360679774997897</speed>
  <fix>3d</fix>
</trkpt>
<trkpt lat="40.072842" lon="-105.230575">
  <ele>1586.09</ele>
  <time>2026-08-27T18:27:14Z</time>
  <course>267.76</course>
  <speed>0.0</speed>
  <fix>3d</fix>
</trkpt>
<trkpt lat="40.0728419" lon="-105.2305749">
  <ele>1586.18</ele>
  <time>2026-08-27T18:27:14Z</time>
  <course>10.1</course>
  <speed>0.022360679774997897</speed>
  <fix>3d</fix>
</trkpt>
<trkpt lat="40.072842" lon="-105.230575">
  <ele>1586.09</ele>
  <time>2026-08-27T18:27:14Z</time>
  <course>269.81</course>
  <speed>0.0</speed>
  <fix>3d</fix>
</trkpt>
<trkpt lat="40.0728419" lon="-105.2305749">
  <ele>1586.18</ele>
  <time>2026-08-27T18:27:14Z</time>
  <course>10.05</course>
  <speed>0.022360679774997897</speed>
  <fix>3d</fix>
</trkpt>
<trkpt lat="40.072842" lon="-105.230575">
  <ele>1586.09</ele>
  <time>2026-08-27T18:27:14Z</time>
  <course>278.91</course>
  <speed>0.0</speed>
  <fix>3d</fix>
</trkpt>
<trkpt lat="40.0728419" lon="-105.2305749">
  <ele>1586.18</ele>
  <time>2026-08-27T18:27:14Z</time>
  <course>10.0</course>
  <speed>0.022360679774997897</speed>
  <fix>3d</fix>
</trkpt>
<trkpt lat="40.072842" lon="-105.230575">
  <ele>1586.09</ele>
  <time>2026-08-27T18:27:14Z</time>
  <course>280.77</course>
  <speed>0.0</speed>
  <fix>3d</fix>
</trkpt>
<trkpt lat="40.0728419" lon="-105.2305749">
  <ele>1586.18</ele>
  <time>2026-08-27T18:27:14Z</time>
  <course>9.95</course>
  <speed>0.022360679774997897</speed>
  <fix>3d</fix>
</trkpt>
<trkpt lat="40.072842" lon="-105.230575">
  <ele>1586.09</ele>
  <time>2026-08-27T18:27:14Z</time>
  <course>271.08</course>
  <speed>0.0</speed>
  <fix>3d</fix>
</trkpt>
<trkpt lat="40.0728419" lon="-105.2305749">
  <ele>1586.18</ele>
  <time>2026-08-27T18:27:14Z</time>
  <course>9.9</course>
  <speed>0.022360679774997897</speed>
  <fix>3d</fix>
</trkpt>
<trkpt lat="40.072842" lon="-105.230575">
  <ele>1586.09</ele>
  <time>2026-08-27T18:27:14Z</time>
  <course>267.04</course>
  <speed>0.0</speed>
  <fix>3d</fix>
</trkpt>
<trkpt lat="40.0728419" lon="-105.2305749">
  <ele>1586.18</ele>
  <time>2026-08-27T18:27:14Z</time>
  <course>9.85</course>
  <speed>0.022360679774997897</speed>
  <fix>3d</fix>
</trkpt>
<trkpt lat="40.072842" lon="-105.230575">
  <ele>1586.09</ele>
  <time>2026-08-27T18:27:14Z</time>
  <course>267.68</course>
  <speed>0.0</speed>
  <fix>3d</fix>
</trkpt>
<trkpt lat="40.0728419" lon="-105.2305749">
  <ele>1586.18</ele>
  <time>2026-08-27T18:27:14Z</time>
  <course>9.81</course>
  <speed>0.022360679774997897</speed>
  <fix>3d</fix>
</trkpt>
<trkpt lat="40.072842" lon="-105.230575">
  <ele>1586.09</ele>
  <time>2026-08-27T18:27:14Z</time>
  <course>270.2</course>
  <speed>0.0</speed>
  <fix>3d</fix>
</trkpt>
<trkpt lat="40.0728419" lon="-105.2305749">
  <ele>1586.18</ele>
  <time>2026-08-27T18:27:14Z</time>
  <course>9.76</course>
  <speed>0.022360679774997897</speed>
  <fix>3d</fix>
</trkpt>
<trkpt lat="40.072842" lon="-105.230575">
  <ele>1586.09</ele>
  <time>2026-08-27T18:27:14Z</time>
  <course>269.56</course>
  <speed>0.0</speed>
  <fix>3d</fix>
</trkpt>
<trkpt lat="40.0728419" lon="-105.2305749">
  <ele>1586.18</ele>
  <time>2026-08-27T18:27:14Z</time>
  <course>9.71</course>
  <speed>0.022360679774997897</speed>
  <fix>3d</fix>
</trkpt>
<trkpt lat="40.072842" lon="-105.230575">
  <ele>1586.09</ele>
  <time>2026-08-27T18:27:14Z</time>
  <course>269.39</course>
  <speed>0.0</speed>
  <fix>3d</fix>
</trkpt>
<trkpt lat="40.0728419" lon="-105.2305749">
  <ele>1586.18</ele>
  <time>2026-08-27T18:27:14Z</time>
  <course>9.67</course>
  <speed>0.022360679774997897</speed>
  <fix>3d</fix>
</trkpt>
<trkpt lat="40.072842" lon="-105.230575">
  <ele>1586.09</ele>
  <time>2026-08-27T18:27:14Z</time>
  <course>277.09</course>
  <speed>0.0</speed>
  <fix>3d</fix>
</trkpt>
<trkpt lat="40.0728419" lon="-105.2305749">
  <ele>1586.18</ele>
  <time>2026-08-27T18:27:14Z</time>
  <course>9.62</course>
  <speed>0.022360679774997897</speed>
  <fix>3d</fix>
</trkpt>
<trkpt lat="40.072842" lon="-105.230575">
  <ele>1586.09</ele>
  <time>2026-08-27T18:27:14Z</time>
  <course>272.51</course>
  <speed>0.0</speed>
  <fix>3d</fix>
</trkpt>
<trkpt lat="40.0728419" lon="-105.2305749">
  <ele>1586.18</ele>
  <time>2026-08-27T18:27:14Z</time>
  <course>9.58</course>
  <speed>0.022360679774997897</speed>
  <fix>3d</fix>
</trkpt>
<trkpt lat="40.072842" lon="-105.230575">
  <ele>1586.09</ele>
  <time>2026-08-27T18:27:14Z</time>
  <course>265.61</course>
  <speed>0.0</speed>
  <fix>3d</fix>
</trkpt>
<trkpt lat="40.0728419" lon="-105.2305749">
  <ele>1586.18</ele>
  <time>2026-08-27T18:27:14Z</time>
  <course>9.54</course>
  <speed>0.022360679774997897</speed>
  <fix>3d</fix>
</trkpt>
<trkpt lat="40.072842" lon="-105.230575">
  <ele>1586.09</ele>
  <time>2026-08-27T18:27:14Z</time>
  <course>268.18</course>
  <speed>0.0</speed>
  <fix>3d</fix>
</trkpt>
<trkpt lat="40.0728419" lon="-105.2305749">
  <ele>1586.18</ele>
  <time>2026-08-27T18:27:14Z</time>
  <course>9.5</course>
  <speed>0.022360679774997897</speed>
  <fix>3d</fix>
</trkpt>
<trkpt lat="40.072842" lon="-105.230575">
  <ele>1586.09</ele>
  <time>2026-08-27T18:27:14Z</time>
  <course>270.07</course>
  <speed>0.0</speed>
  <fix>3d</fix>
</trkpt>
<trkpt lat="40.0728419" lon="-105.2305749">
  <ele>1586.18</ele>
  <time>2026-08-27T18:27:14Z</time>
  <course>9.45</course>
  <speed>0.022360679774997897</speed>
  <fix>3d</fix>
</trkpt>
<trkpt lat="40.072842" lon="-105.230575">
  <ele>1586.09</ele>
  <time>2026-08-27T18:27:14Z</time>
  <course>269.07</course>
  <speed>0.0</speed>
  <fix>3d</fix>
</trkpt>
<trkpt lat="40.0728419" lon="-105.2305749">
  <ele>1586.18</ele>
  <time>2026-08-27T18:27:14Z</time>
  <course>9.41</course>
  <speed>0.022360679774997897</speed>
  <fix>3d</fix>
</trkpt>
<trkpt lat="40.072842" lon="-105.230575">
  <ele>1586.09</ele>
  <time>2026-08-27T18:27:14Z</time>
  <course>268.76</course>
  <speed>0.0</speed>
  <fix>3d</fix>
</trkpt>
<trkpt lat="40.0728419" lon="-105.2305749">
  <ele>1586.17</ele>
  <time>2026-08-27T18:27:14Z</time>
  <course>9.37</course>
  <speed>0.022360679774997897</speed>
  <fix>3d</fix>
</trkpt>
<trkpt lat="40.072842" lon="-105.230575">
  <ele>1586.09</ele>
  <time>2026-08-27T18:27:14Z</time>
  <course>268.79</course>
  <speed>0.0</speed>
  <fix>3d</fix>
</trkpt>
<trkpt lat="40.0728419" lon="-105.2305749">
  <ele>1586.17</ele>
  <time>2026-08-27T18:27:14Z</time>
  <course>9.34</course>
  <speed>0.022360679774997897</speed>
  <fix>3d</fix>
</trkpt>
<trkpt lat="40.072842" lon="-105.230575">
  <ele>1586.09</ele>
  <time>2026-08-27T18:27:14Z</time>
  <course>268.69</course>
  <speed>0.0</speed>
  <fix>3d</fix>
</trkpt>
<trkpt lat="40.0728419" lon="-105.2305749">
  <ele>1586.17</ele>
  <time>2026-08-27T18:27:14Z</time>
  <course>9.3</course>
  <speed>0.022360679774997897</speed>
  <fix>3d</fix>
</trkpt>
<trkpt lat="40.072842" lon="-105.230575">
  <ele>1586.09</ele>
  <time>2026-08-27T18:27:14Z</time>
  <course>267.33</course>
  <speed>0.0</speed>
  <fix>3d</fix>
</trkpt>
<trkpt lat="40.0728419" lon="-105.2305749">
  <ele>1586.17</ele>
  <time>2026-08-27T18:27:14Z</time>
  <course>9.26</course>
  <speed>0.022360679774997897</speed>
  <fix>3d</fix>
</trkpt>
<trkpt lat="40.072842" lon="-105.230575">
  <ele>1586.09</ele>
  <time>2026-08-27T18:27:14Z</time>
  <course>267.52</course>
  <speed>0.0</speed>
  <fix>3d</fix>
</trkpt>
<trkpt lat="40.0728419" lon="-105.2305749">
  <ele>1586.17</ele>
  <time>2026-08-27T18:27:14Z</time>
  <course>9.23</course>
  <speed>0.022360679774997897</speed>
  <fix>3d</fix>
</trkpt>
<trkpt lat="40.072842" lon="-105.230575">
  <ele>1586.09</ele>
  <time>2026-08-27T18:27:14Z</time>
  <course>269.01</course>
  <speed>0.0</speed>
  <fix>3d</fix>
</trkpt>
<trkpt lat="40.0728419" lon="-105.2305749">
  <ele>1586.18</ele>
  <time>2026-08-27T18:27:14Z</time>
  <course>9.19</course>
  <speed>0.022360679774997897</speed>
  <fix>3d</fix>
</trkpt>
<trkpt lat="40.072842" lon="-105.230575">
  <ele>1586.09</ele>
  <time>2026-08-27T18:27:14Z</time>
  <course>268.78</course>
  <speed>0.0</speed>
  <fix>3d</fix>
</trkpt>
<trkpt lat="40.0728419" lon="-105.2305749">
  <ele>1586.18</ele>
  <time>2026-08-27T18:27:14Z</time>
  <course>9.16</course>
  <speed>0.022360679774997897</speed>
  <fix>3d</fix>
</trkpt>
<trkpt lat="40.072842" lon="-105.230575">
  <ele>1586.09</ele>
  <time>2026-08-27T18:27:14Z</time>
  <course>268.68</course>
  <speed>0.0</speed>
  <fix>3d</fix>
</trkpt>
<trkpt lat="40.0728419" lon="-105.2305749">
  <ele>1586.18</ele>
  <time>2026-08-27T18:27:14Z</time>
  <course>9.13</course>
  <speed>0.022360679774997897</speed>
  <fix>3d</fix>
</trkpt>
<trkpt lat="40.072842" lon="-105.230575">
  <ele>1586.09</ele>
  <time>2026-08-27T18:27:14Z</time>
  <course>268.59</course>
  <speed>0.0</speed>
  <fix>3d</fix>
</trkpt>
<trkpt lat="40.0728419" lon="-105.2305749">
  <ele>1586.18</ele>
  <time>2026-08-27T18:27:14Z</time>
  <course>9.1</course>
  <speed>0.022360679774997897</speed>
  <fix>3d</fix>
</trkpt>
<trkpt lat="40.072842" lon="-105.230575">
  <ele>1586.09</ele>
  <time>2026-08-27T18:27:14Z</time>
  <course>268.51</course>
  <speed>0.0</speed>
  <fix>3d</fix>
</trkpt>
<trkpt lat="40.0728419" lon="-105.2305749">
  <ele>1586.18</ele>
  <time>2026-08-27T18:27:14Z</time>
  <course>9.06</course>
  <speed>0.022360679774997897</speed>
  <fix>3d</fix>
</trkpt>
<trkpt lat="40.072842" lon="-105.230575">
  <ele>1586.09</ele>
  <time>2026-08-27T18:27:14Z</time>
  <course>268.48</course>
  <speed>0.0</speed>
  <fix>3d</fix>
</trkpt>
<trkpt lat="40.0728419" lon="-105.2305749">
  <ele>1586.18</ele>
  <time>2026-08-27T18:27:14Z</time>
  <course>9.04</course>
  <speed>0.022360679774997897</speed>
  <fix>3d</fix>
</trkpt>
<trkpt lat="40.072842" lon="-105.230575">
  <ele>1586.09</ele>
  <time>2026-08-27T18:27:14Z</time>
  <course>274.88</course>
  <speed>0.0</speed>
  <fix>3d</fix>
</trkpt>
<trkpt lat="40.0728419" lon="-105.2305749">
  <ele>1586.18</ele>
  <time>2026-08-27T18:27:14Z</time>
  <course>9.01</course>
  <speed>0.022360679774997897</speed>
  <fix>3d</fix>
</trkpt>
<trkpt lat="40.072842" lon="-105.230575">
  <ele>1586.09</ele>
  <time>2026-08-27T18:27:14Z</time>
  <course>275.69</course>
  <speed>0.0</speed>
  <fix>3d</fix>
</trkpt>
<trkpt lat="40.0728419" lon="-105.2305749">
  <ele>1586.19</ele>
  <time>2026-08-27T18:27:14Z</time>
  <course>8.98</course>
  <speed>0.022360679774997897</speed>
  <fix>3d</fix>
</trkpt>
<trkpt lat="40.072842" lon="-105.230575">
  <ele>1586.09</ele>
  <time>2026-08-27T18:27:14Z</time>
  <course>268.26</course>
  <speed>0.0</speed>
  <fix>3d</fix>
</trkpt>
<trkpt lat="40.0728419" lon="-105.2305749">
  <ele>1586.19</ele>
  <time>2026-08-27T18:27:14Z</time>
  <course>8.95</course>
  <speed>0.022360679774997897</speed>
  <fix>3d</fix>
</trkpt>
<trkpt lat="40.072842" lon="-105.230575">
  <ele>1586.09</ele>
  <time>2026-08-27T18:27:14Z</time>
  <course>267.58</course>
  <speed>0.0</speed>
  <fix>3d</fix>
</trkpt>
<trkpt lat="40.0728419" lon="-105.2305749">
  <ele>1586.19</ele>
  <time>2026-08-27T18:27:14Z</time>
  <course>8.92</course>
  <speed>0.022360679774997897</speed>
  <fix>3d</fix>
</trkpt>
<trkpt lat="40.072842" lon="-105.230575">
  <ele>1586.09</ele>
  <time>2026-08-27T18:27:14Z</time>
  <course>268.98</course>
  <speed>0.0</speed>
  <fix>3d</fix>
</trkpt>
<trkpt lat="40.0728419" lon="-105.2305749">
  <ele>1586.19</ele>
  <time>2026-08-27T18:27:14Z</time>
  <course>8.9</course>
  <speed>0.022360679774997897</speed>
  <fix>3d</fix>
</trkpt>
<trkpt lat="40.072842" lon="-105.230575">
  <ele>1586.09</ele>
  <time>2026-08-27T18:27:14Z</time>
  <course>268.69</course>
  <speed>0.0</speed>
  <fix>3d</fix>
</trkpt>
<trkpt lat="40.0728419" lon="-105.2305749">
  <ele>1586.19</ele>
  <time>2026-08-27T18:27:14Z</time>
  <course>8.87</course>
  <speed>0.022360679774997897</speed>
  <fix>3d</fix>
</trkpt>
<trkpt lat="40.072842" lon="-105.230575">
  <ele>1586.09</ele>
  <time>2026-08-27T18:27:14Z</time>
  <course>268.42</course>
  <speed>0.0</speed>
  <fix>3d</fix>
</trkpt>
<trkpt lat="40.0728419" lon="-105.2305749">
  <ele>1586.19</ele>
  <time>2026-08-27T18:27:14Z</time>
  <course>8.85</course>
  <speed>0.022360679774997897</speed>
  <fix>3d</fix>
</trkpt>
<trkpt lat="40.072842" lon="-105.230575">
  <ele>1586.09</ele>
  <time>2026-08-27T18:27:14Z</time>
  <course>269.21</course>
  <speed>0.0</speed>
  <fix>3d</fix>
</trkpt>
<trkpt lat="40.0728419" lon="-105.2305749">
  <ele>1586.18</ele>
  <time>2026-08-27T18:27:14Z</time>
  <course>8.83</course>
  <speed>0.022360679774997897</speed>
  <fix>3d</fix>
</trkpt>
<trkpt lat="40.072842" lon="-105.230575">
  <ele>1586.09</ele>
  <time>2026-08-27T18:27:14Z</time>
  <course>267.81</course>
  <speed>0.0</speed>
  <fix>3d</fix>
</trkpt>
<trkpt lat="40.0728419" lon="-105.2305749">
  <ele>1586.18</ele>
  <time>2026-08-27T18:27:14Z</time>
  <course>8.8</course>
  <speed>0.01414213562373095</speed>
  <fix>3d</fix>
</trkpt>
<trkpt lat="40.072842" lon="-105.230575">
  <ele>1586.09</ele>
  <time>2026-08-27T18:27:14Z</time>
  <course>266.65</course>
  <speed>0.0</speed>
  <fix>3d</fix>
</trkpt>
<trkpt lat="40.0728419" lon="-105.2305749">
  <ele>1586.18</ele>
  <time>2026-08-27T18:27:14Z</time>
  <course>8.78</course>
  <speed>0.01414213562373095</speed>
  <fix>3d</fix>
</trkpt>
<trkpt lat="40.072842" lon="-105.230575">
  <ele>1586.09</ele>
  <time>2026-08-27T18:27:14Z</time>
  <course>271.23</course>
  <speed>0.0</speed>
  <fix>3d</fix>
</trkpt>
<trkpt lat="40.0728419" lon="-105.2305749">
  <ele>1586.18</ele>
  <time>2026-08-27T18:27:14Z</time>
  <course>8.76</course>
  <speed>0.01414213562373095</speed>
  <fix>3d</fix>
</trkpt>
<trkpt lat="40.072842" lon="-105.230575">
  <ele>1586.09</ele>
  <time>2026-08-27T18:27:14Z</time>
  <course>275.69</course>
  <speed>0.0</speed>
  <fix>3d</fix>
</trkpt>
<trkpt lat="40.0728419" lon="-105.2305749">
  <ele>1586.18</ele>
  <time>2026-08-27T18:27:14Z</time>
  <course>8.74</course>
  <speed>0.01414213562373095</speed>
  <fix>3d</fix>
</trkpt>
<trkpt lat="40.072842" lon="-105.230575">
  <ele>1586.09</ele>
  <time>2026-08-27T18:27:14Z</time>
  <course>270.91</course>
  <speed>0.0</speed>
  <fix>3d</fix>
</trkpt>
<trkpt lat="40.0728419" lon="-105.2305749">
  <ele>1586.18</ele>
  <time>2026-08-27T18:27:14Z</time>
  <course>8.73</course>
  <speed>0.01414213562373095</speed>
  <fix>3d</fix>
</trkpt>
<trkpt lat="40.072842" lon="-105.230575">
  <ele>1586.09</ele>
  <time>2026-08-27T18:27:14Z</time>
  <course>267.11</course>
  <speed>0.0</speed>
  <fix>3d</fix>
</trkpt>
<trkpt lat="40.0728419" lon="-105.2305749">
  <ele>1586.18</ele>
  <time>2026-08-27T18:27:14Z</time>
  <course>8.71</course>
  <speed>0.01414213562373095</speed>
  <fix>3d</fix>
</trkpt>
<trkpt lat="40.072842" lon="-105.230575">
  <ele>1586.09</ele>
  <time>2026-08-27T18:27:14Z</time>
  <course>268.72</course>
  <speed>0.0</speed>
  <fix>3d</fix>
</trkpt>
<trkpt lat="40.0728419" lon="-105.2305749">
  <ele>1586.18</ele>
  <time>2026-08-27T18:27:14Z</time>
  <course>8.69</course>
  <speed>0.01414213562373095</speed>
  <fix>3d</fix>
</trkpt>
<trkpt lat="40.072842" lon="-105.230575">
  <ele>1586.09</ele>
  <time>2026-08-27T18:27:14Z</time>
  <course>269.21</course>
  <speed>0.0</speed>
  <fix>3d</fix>
</trkpt>
<trkpt lat="40.0728419" lon="-105.2305749">
  <ele>1586.19</ele>
  <time>2026-08-27T18:27:14Z</time>
  <course>8.68</course>
  <speed>0.01414213562373095</speed>
  <fix>3d</fix>
</trkpt>
<trkpt lat="40.072842" lon="-105.230575">
  <ele>1586.09</ele>
  <time>2026-08-27T18:27:14Z</time>
  <course>268.56</course>
  <speed>0.0</speed>
  <fix>3d</fix>
</trkpt>
<trkpt lat="40.0728419" lon="-105.2305749">
  <ele>1586.19</ele>
  <time>2026-08-27T18:27:14Z</time>
  <course>8.66</course>
  <speed>0.01414213562373095</speed>
  <fix>3d</fix>
</trkpt>
<trkpt lat="40.072842" lon="-105.230575">
  <ele>1586.09</ele>
  <time>2026-08-27T18:27:14Z</time>
  <course>269.09</course>
  <speed>0.0</speed>
  <fix>3d</fix>
</trkpt>
<trkpt lat="40.0728419" lon="-105.2305749">
  <ele>1586.19</ele>
  <time>2026-08-27T18:27:14Z</time>
  <course>8.64</course>
  <speed>0.01414213562373095</speed>
  <fix>3d</fix>
</trkpt>
<trkpt lat="40.072842" lon="-105.230575">
  <ele>1586.09</ele>
  <time>2026-08-27T18:27:14Z</time>
  <course>268.08</course>
  <speed>0.0</speed>
  <fix>3d</fix>
</trkpt>
<trkpt lat="40.0728419" lon="-105.2305749">
  <ele>1586.19</ele>
  <time>2026-08-27T18:27:14Z</time>
  <course>8.63</course>
  <speed>0.01414213562373095</speed>
  <fix>3d</fix>
</trkpt>
<trkpt lat="40.072842" lon="-105.230575">
  <ele>1586.09</ele>
  <time>2026-08-27T18:27:14Z</time>
  <course>267.53</course>
  <speed>0.0</speed>
  <fix>3d</fix>
</trkpt>
<trkpt lat="40.0728419" lon="-105.2305749">
  <ele>1586.19</ele>
  <time>2026-08-27T18:27:14Z</time>
  <course>8.62</course>
  <speed>0.01414213562373095</speed>
  <fix>3d</fix>
</trkpt>
<trkpt lat="40.072842" lon="-105.230575">
  <ele>1586.09</ele>
  <time>2026-08-27T18:27:14Z</time>
  <course>269.01</course>
  <speed>0.0</speed>
  <fix>3d</fix>
</trkpt>
<trkpt lat="40.0728419" lon="-105.2305749">
  <ele>1586.19</ele>
  <time>2026-08-27T18:27:14Z</time>
  <course>8.61</course>
  <speed>0.01414213562373095</speed>
  <fix>3d</fix>
</trkpt>
<trkpt lat="40.072842" lon="-105.230575">
  <ele>1586.09</ele>
  <time>2026-08-27T18:27:14Z</time>
  <course>268.97</course>
  <speed>0.0</speed>
  <fix>3d</fix>
</trkpt>
<trkpt lat="40.0728419" lon="-105.2305749">
  <ele>1586.19</ele>
  <time>2026-08-27T18:27:14Z</time>
  <course>8.6</course>
  <speed>0.01414213562373095</speed>
  <fix>3d</fix>
</trkpt>
<trkpt lat="40.072842" lon="-105.230575">
  <ele>1586.09</ele>
  <time>2026-08-27T18:27:14Z</time>
  <course>273.65</course>
  <speed>0.0</speed>
  <fix>3d</fix>
</trkpt>
<trkpt lat="40.0728419" lon="-105.2305749">
  <ele>1586.19</ele>
  <time>2026-08-27T18:27:14Z</time>
  <course>8.58</course>
  <speed>0.01414213562373095</speed>
  <fix>3d</fix>
</trkpt>
<trkpt lat="40.072842" lon="-105.230575">
  <ele>1586.09</ele>
  <time>2026-08-27T18:27:14Z</time>
  <course>273.06</course>
  <speed>0.0</speed>
  <fix>3d</fix>
</trkpt>
<trkpt lat="40.0728419" lon="-105.2305749">
  <ele>1586.19</ele>
  <time>2026-08-27T18:27:14Z</time>
  <course>8.58</course>
  <speed>0.01414213562373095</speed>
  <fix>3d</fix>
</trkpt>
<trkpt lat="40.072842" lon="-105.230575">
  <ele>1586.09</ele>
  <time>2026-08-27T18:27:14Z</time>
  <course>267.43</course>
  <speed>0.0</speed>
  <fix>3d</fix>
</trkpt>
<trkpt lat="40.0728419" lon="-105.2305749">
  <ele>1586.19</ele>
  <time>2026-08-27T18:27:14Z</time>
  <course>8.57</course>
  <speed>0.01414213562373095</speed>
  <fix>3d</fix>
</trkpt>
<trkpt lat="40.072842" lon="-105.230575">
  <ele>1586.09</ele>
  <time>2026-08-27T18:27:14Z</time>
  <course>268.41</course>
  <speed>0.0</speed>
  <fix>3d</fix>
</trkpt>
<trkpt lat="40.0728419" lon="-105.2305749">
  <ele>1586.19</ele>
  <time>2026-08-27T18:27:14Z</time>
  <course>8.56</course>
  <speed>0.01414213562373095</speed>
  <fix>3d</fix>
</trkpt>
<trkpt lat="40.072842" lon="-105.230575">
  <ele>1586.09</ele>
  <time>2026-08-27T18:27:14Z</time>
  <course>269.3</course>
  <speed>0.0</speed>
  <fix>3d</fix>
</trkpt>
<trkpt lat="40.0728419" lon="-105.2305749">
  <ele>1586.19</ele>
  <time>2026-08-27T18:27:14Z</time>
  <course>8.55</course>
  <speed>0.01414213562373095</speed>
  <fix>3d</fix>
</trkpt>
<trkpt lat="40.072842" lon="-105.230575">
  <ele>1586.09</ele>
  <time>2026-08-27T18:27:14Z</time>
  <course>270.93</course>
  <speed>0.0</speed>
  <fix>3d</fix>
</trkpt>
<trkpt lat="40.0728419" lon="-105.2305749">
  <ele>1586.18</ele>
  <time>2026-08-27T18:27:14Z</time>
  <course>8.55</course>
  <speed>0.01414213562373095</speed>
  <fix>3d</fix>
</trkpt>
<trkpt lat="40.072842" lon="-105.230575">
  <ele>1586.09</ele>
  <time>2026-08-27T18:27:14Z</time>
  <course>268.79</course>
  <speed>0.0</speed>
  <fix>3d</fix>
</trkpt>
<trkpt lat="40.0728419" lon="-105.2305749">
  <ele>1586.18</ele>
  <time>2026-08-27T18:27:14Z</time>
  <course>8.54</course>
  <speed>0.01414213562373095</speed>
  <fix>3d</fix>
</trkpt>
<trkpt lat="40.072842" lon="-105.230575">
  <ele>1586.09</ele>
  <time>2026-08-27T18:27:14Z</time>
  <course>267.25</course>
  <speed>0.0</speed>
  <fix>3d</fix>
</trkpt>
<trkpt lat="40.0728419" lon="-105.2305749">
  <ele>1586.18</ele>
  <time>2026-08-27T18:27:14Z</time>
  <course>8.54</course>
  <speed>0.01414213562373095</speed>
  <fix>3d</fix>
</trkpt>
<trkpt lat="40.072842" lon="-105.230575">
  <ele>1586.09</ele>
  <time>2026-08-27T18:27:14Z</time>
  <course>269.13</course>
  <speed>0.0</speed>
  <fix>3d</fix>
</trkpt>
<trkpt lat="40.0728419" lon="-105.2305749">
  <ele>1586.18</ele>
  <time>2026-08-27T18:27:14Z</time>
  <course>8.53</course>
  <speed>0.01414213562373095</speed>
  <fix>3d</fix>
</trkpt>
<trkpt lat="40.072842" lon="-105.230575">
  <ele>1586.09</ele>
  <time>2026-08-27T18:27:14Z</time>
  <course>269.12</course>
  <speed>0.0</speed>
  <fix>3d</fix>
</trkpt>
<trkpt lat="40.0728419" lon="-105.2305749">
  <ele>1586.18</ele>
  <time>2026-08-27T18:27:14Z</time>
  <course>8.53</course>
  <speed>0.01414213562373095</speed>
  <fix>3d</fix>
</trkpt>
<trkpt lat="40.072842" lon="-105.230575">
  <ele>1586.09</ele>
  <time>2026-08-27T18:27:14Z</time>
  <course>269.07</course>
  <speed>0.0</speed>
  <fix>3d</fix>
</trkpt>
<trkpt lat="40.0728419" lon="-105.2305749">
  <ele>1586.18</ele>
  <time>2026-08-27T18:27:14Z</time>
  <course>8.52</course>
  <speed>0.01414213562373095</speed>
  <fix>3d</fix>
</trkpt>
<trkpt lat="40.072842" lon="-105.230575">
  <ele>1586.09</ele>
  <time>2026-08-27T18:27:14Z</time>
  <course>268.95</course>
  <speed>0.0</speed>
  <fix>3d</fix>
</trkpt>
<trkpt lat="40.0728419" lon="-105.2305749">
  <ele>1586.18</ele>
  <time>2026-08-27T18:27:14Z</time>
  <course>8.52</course>
  <speed>0.01414213562373095</speed>
  <fix>3d</fix>
</trkpt>
<trkpt lat="40.072842" lon="-105.230575">
  <ele>1586.09</ele>
  <time>2026-08-27T18:27:14Z</time>
  <course>275.27</course>
  <speed>0.0</speed>
  <fix>3d</fix>
</trkpt>
<trkpt lat="40.0728419" lon="-105.2305749">
  <ele>1586.18</ele>
  <time>2026-08-27T18:27:14Z</time>
  <course>8.52</course>
  <speed>0.01414213562373095</speed>
  <fix>3d</fix>
</trkpt>
<trkpt lat="40.072842" lon="-105.230575">
  <ele>1586.09</ele>
  <time>2026-08-27T18:27:14Z</time>
  <course>275.44</course>
  <speed>0.0</speed>
  <fix>3d</fix>
</trkpt>
<trkpt lat="40.0728419" lon="-105.2305749">
  <ele>1586.17</ele>
  <time>2026-08-27T18:27:14Z</time>
  <course>8.52</course>
  <speed>0.01414213562373095</speed>
  <fix>3d</fix>
</trkpt>
<trkpt lat="40.072842" lon="-105.230575">
  <ele>1586.09</ele>
  <time>2026-08-27T18:27:14Z</time>
  <course>269.12</course>
  <speed>0.0</speed>
  <fix>3d</fix>
</trkpt>
<trkpt lat="40.0728419" lon="-105.2305749">
  <ele>1586.17</ele>
  <time>2026-08-27T18:27:14Z</time>
  <course>8.52</course>
  <speed>0.01414213562373095</speed>
  <fix>3d</fix>
</trkpt>
<trkpt lat="40.072842" lon="-105.230575">
  <ele>1586.09</ele>
  <time>2026-08-27T18:27:14Z</time>
  <course>268.37</course>
  <speed>0.0</speed>
  <fix>3d</fix>
</trkpt>
<trkpt lat="40.0728419" lon="-105.2305749">
  <ele>1586.2</ele>
  <time>2026-08-27T18:27:14Z</time>
  <course>8.5</course>
  <speed>0.01414213562373095</speed>
  <fix>3d</fix>
</trkpt>
<trkpt lat="40.072842" lon="-105.230575">
  <ele>1586.09</ele>
  <time>2026-08-27T18:27:14Z</time>
  <course>270.73</course>
  <speed>0.0</speed>
  <fix>3d</fix>
</trkpt>
<trkpt lat="40.0728419" lon="-105.2305749">
  <ele>1586.29</ele>
  <time>2026-08-27T18:27:14Z</time>
  <course>8.44</course>
  <speed>0.01414213562373095</speed>
  <fix>3d</fix>
</trkpt>
<trkpt lat="40.072842" lon="-105.230575">
  <ele>1586.14</ele>
  <time>2026-08-27T18:27:14Z</time>
  <course>271.26</course>
  <speed>0.0</speed>
  <fix>3d</fix>
</trkpt>
<trkpt lat="40.0728419" lon="-105.2305749">
  <ele>1586.43</ele>
  <time>2026-08-27T18:27:14Z</time>
  <course>4.0</course>
  <speed>0.1004987562112089</speed>
  <fix>3d</fix>
</trkpt>
<trkpt lat="40.072842" lon="-105.230575">
  <ele>1586.22</ele>
  <time>2026-08-27T18:27:14Z</time>
  <course>275.74</course>
  <speed>0.01</speed>
  <fix>3d</fix>
</trkpt>
<trkpt lat="40.0728419" lon="-105.2305754">
  <ele>1586.78</ele>
  <time>2026-08-27T18:27:14Z</time>
  <course>1.73</course>
  <speed>0.2765863337187866</speed>
  <fix>3d</fix>
</trkpt>
<trkpt lat="40.072842" lon="-105.2305752">
  <ele>1586.39</ele>
  <time>2026-08-27T18:27:14Z</time>
  <course>276.09</course>
  <speed>0.12</speed>
  <fix>3d</fix>
</trkpt>
<trkpt lat="40.072842" lon="-105.2305755">
  <ele>1586.84</ele>
  <time>2026-08-27T18:27:14Z</time>
  <course>1.5</course>
  <speed>0.29832867780352595</speed>
  <fix>3d</fix>
</trkpt>
<trkpt lat="40.0728421" lon="-105.2305762">
  <ele>1587.21</ele>
  <time>2026-08-27T18:27:14Z</time>
  <course>0.53</course>
  <speed>0.4026164427839479</speed>
  <fix>3d</fix>
</trkpt>
<trkpt lat="40.072842" lon="-105.2305757">
  <ele>1586.72</ele>
  <time>2026-08-27T18:27:14Z</time>
  <course>276.2</course>
  <speed>0.29</speed>
  <fix>3d</fix>
</trkpt>
<trkpt lat="40.0728421" lon="-105.2305764">
  <ele>1587.27</ele>
  <time>2026-08-27T18:27:14Z</time>
  <course>0.41</course>
  <speed>0.41231056256176607</speed>
  <fix>3d</fix>
</trkpt>
<trkpt lat="40.0728423" lon="-105.2305773">
  <ele>1587.63</ele>
  <time>2026-08-27T18:27:14Z</time>
  <course>359.97</course>
  <speed>0.4827007354458868</speed>
  <fix>3d</fix>
</trkpt>
<trkpt lat="40.072842" lon="-105.2305765">
  <ele>1587.14</ele>
  <time>2026-08-27T18:27:14Z</time>
  <course>275.99</course>
  <speed>0.42</speed>
  <fix>3d</fix>
</trkpt>
<trkpt lat="40.0728423" lon="-105.2305775">
  <ele>1587.7</ele>
  <time>2026-08-27T18:27:14Z</time>
  <course>359.93</course>
  <speed>0.49244289008980524</speed>
  <fix>3d</fix>
</trkpt>
<trkpt lat="40.0728424" lon="-105.2305785">
  <ele>1588.09</ele>
  <time>2026-08-27T18:27:14Z</time>
  <course>359.79</course>
  <speed>0.5510898293381942</speed>
  <fix>3d</fix>
</trkpt>
<trkpt lat="40.0728421" lon="-105.2305777">
  <ele>1587.56</ele>
  <time>2026-08-27T18:27:14Z</time>
  <course>275.46</course>
  <speed>0.51</speed>
  <fix>3d</fix>
</trkpt>
<trkpt lat="40.0728424" lon="-105.2305786">
  <ele>1588.09</ele>
  <time>2026-08-27T18:27:14Z</time>
  <course>359.79</course>
  <speed>0.5510898293381942</speed>
  <fix>3d</fix>
</trkpt>
<trkpt lat="40.0728425" lon="-105.2305799">
  <ele>1588.56</ele>
  <time>2026-08-27T18:27:14Z</time>
  <course>359.82</course>
  <speed>0.6001666435249463</speed>
  <fix>3d</fix>
</trkpt>
<trkpt lat="40.0728422" lon="-105.2305789">
  <ele>1588.0</ele>
  <time>2026-08-27T18:27:14Z</time>
  <course>274.89</course>
  <speed>0.57</speed>
  <fix>3d</fix>
</trkpt>
<trkpt lat="40.0728425" lon="-105.2305802">
  <ele>1588.63</ele>
  <time>2026-08-27T18:27:14Z</time>
  <course>359.83</course>
  <speed>0.6001666435249463</speed>
  <fix>3d</fix>
</trkpt>
<trkpt lat="40.0728426" lon="-105.2305814">
  <ele>1589.04</ele>
  <time>2026-08-27T18:27:14Z</time>
  <course>359.98</course>
  <speed>0.6296824596572467</speed>
  <fix>3d</fix>
</trkpt>
<trkpt lat="40.0728423" lon="-105.2305803">
  <ele>1588.46</ele>
  <time>2026-08-27T18:27:14Z</time>
  <course>274.5</course>
  <speed>0.62</speed>
  <fix>3d</fix>
</trkpt>
<trkpt lat="40.0728426" lon="-105.2305816">
  <ele>1589.11</ele>
  <time>2026-08-27T18:27:14Z</time>
  <course>358.53</course>
  <speed>0.6280127387243033</speed>
  <fix>3d</fix>
</trkpt>
<trkpt lat="40.0728427" lon="-105.230583">
  <ele>1589.51</ele>
  <time>2026-08-27T18:27:14Z</time>
  <course>358.65</course>
  <speed>0.6576473218982953</speed>
  <fix>3d</fix>
</trkpt>
<trkpt lat="40.0728424" lon="-105.2305818">
  <ele>1588.92</ele>
  <time>2026-08-27T18:27:14Z</time>
  <course>274.32</course>
  <speed>0.65</speed>
  <fix>3d</fix>
</trkpt>
<trkpt lat="40.0728427" lon="-105.2305832">
  <ele>1589.59</ele>
  <time>2026-08-27T18:27:14Z</time>
  <course>358.66</course>
  <speed>0.6576473218982953</speed>
  <fix>3d</fix>
</trkpt>
<trkpt lat="40.0728428" lon="-105.2305846">
  <ele>1589.99</ele>
  <time>2026-08-27T18:27:14Z</time>
  <course>358.86</course>
  <speed>0.6760177512462228</speed>
  <fix>3d</fix>
</trkpt>
<trkpt lat="40.0728425" lon="-105.2305834">
  <ele>1589.39</ele>
  <time>2026-08-27T18:27:14Z</time>
  <course>274.23</course>
  <speed>0.68</speed>
  <fix>3d</fix>
</trkpt>
<trkpt lat="40.0728428" lon="-105.2305848">
  <ele>1590.06</ele>
  <time>2026-08-27T18:27:14Z</time>
  <course>358.9</course>
  <speed>0.6760177512462228</speed>
  <fix>3d</fix>
</trkpt>
<trkpt lat="40.0728429" lon="-105.2305862">
  <ele>1590.47</ele>
  <time>2026-08-27T18:27:14Z</time>
  <course>359.18</course>
  <speed>0.6846897107449476</speed>
  <fix>3d</fix>
</trkpt>
<trkpt lat="40.0728426" lon="-105.230585">
  <ele>1589.87</ele>
  <time>2026-08-27T18:27:14Z</time>
  <course>274.21</course>
  <speed>0.7</speed>
  <fix>3d</fix>
</trkpt>
<trkpt lat="40.0728429" lon="-105.2305863">
  <ele>1590.48</ele>
  <time>2026-08-27T18:27:14Z</time>
  <course>359.19</course>
  <speed>0.6946221994724903</speed>
  <fix>3d</fix>
</trkpt>
<trkpt lat="40.0728429" lon="-105.2305879">
  <ele>1590.95</ele>
  <time>2026-08-27T18:27:14Z</time>
  <course>359.52</course>
  <speed>0.7034912934784623</speed>
  <fix>3d</fix>
</trkpt>
<trkpt lat="40.0728427" lon="-105.2305867">
  <ele>1590.34</ele>
  <time>2026-08-27T18:27:14Z</time>
  <course>274.26</course>
  <speed>0.72</speed>
  <fix>3d</fix>
</trkpt>
<trkpt lat="40.0728429" lon="-105.2305882">
  <ele>1591.02</ele>
  <time>2026-08-27T18:27:14Z</time>
  <course>359.57</course>
  <speed>0.7025667228100119</speed>
  <fix>3d</fix>
</trkpt>
<trkpt lat="40.072843" lon="-105.2305896">
  <ele>1591.43</ele>
  <time>2026-08-27T18:27:14Z</time>
  <course>359.9</course>
  <speed>0.7125307010929425</speed>
  <fix>3d</fix>
</trkpt>
<trkpt lat="40.0728428" lon="-105.2305884">
  <ele>1590.82</ele>
  <time>2026-08-27T18:27:14Z</time>
  <course>274.39</course>
  <speed>0.73</speed>
  <fix>3d</fix>
</trkpt>
<trkpt lat="40.072843" lon="-105.2305899">
  <ele>1591.5</ele>
  <time>2026-08-27T18:27:14Z</time>
  <course>359.96</course>
  <speed>0.7117583859709699</speed>
  <fix>3d</fix>
</trkpt>
<trkpt lat="40.072843" lon="-105.2305914">
  <ele>1591.91</ele>
  <time>2026-08-27T18:27:14Z</time>
  <course>0.3</course>
  <speed>0.7217340230306452</speed>
  <fix>3d</fix>
</trkpt>
<trkpt lat="40.0728429" lon="-105.2305901">
  <ele>1591.3</ele>
  <time>2026-08-27T18:27:14Z</time>
  <course>274.59</course>
  <speed>0.74</speed>
  <fix>3d</fix>
</trkpt>
<trkpt lat="40.0728431" lon="-105.2305916">
  <ele>1591.99</ele>
  <time>2026-08-27T18:27:14Z</time>
  <course>0.37</course>
  <speed>0.7217340230306452</speed>
  <fix>3d</fix>
</trkpt>
<trkpt lat="40.0728431" lon="-105.2305931">
  <ele>1592.4</ele>
  <time>2026-08-27T18:27:14Z</time>
  <course>0.72</course>
  <speed>0.7310950690573697</speed>
  <fix>3d</fix>
</trkpt>
<trkpt lat="40.072843" lon="-105.2305918">
  <ele>1591.78</ele>
  <time>2026-08-27T18:27:14Z</time>
  <course>274.85</course>
  <speed>0.75</speed>
  <fix>3d</fix>
</trkpt>
<trkpt lat="40.0728431" lon="-105.2305934">
  <ele>1592.48</ele>
  <time>2026-08-27T18:27:14Z</time>
  <course>0.78</course>
  <speed>0.7310950690573697</speed>
  <fix>3d</fix>
</trkpt>
<trkpt lat="40.0728432" lon="-105.2305949">
  <ele>1592.88</ele>
  <time>2026-08-27T18:27:14Z</time>
  <course>1.07</course>
  <speed>0.7310950690573697</speed>
  <fix>3d</fix>
</trkpt>
<trkpt lat="40.0728431" lon="-105.2305936">
  <ele>1592.26</ele>
  <time>2026-08-27T18:27:14Z</time>
  <course>275.12</course>
  <speed>0.75</speed>
  <fix>3d</fix>
</trkpt>
<trkpt lat="40.0728432" lon="-105.230595">
  <ele>1592.89</ele>
  <time>2026-08-27T18:27:14Z</time>
  <course>1.08</course>
  <speed>0.7310950690573697</speed>
  <fix>3d</fix>
</trkpt>
<trkpt lat="40.0728433" lon="-105.2305967">
  <ele>1593.36</ele>
  <time>2026-08-27T18:27:14Z</time>
  <course>1.38</course>
  <speed>0.740607858451421</speed>
  <fix>3d</fix>
</trkpt>
<trkpt lat="40.0728432" lon="-105.2305954">
  <ele>1592.74</ele>
  <time>2026-08-27T18:27:14Z</time>
  <course>275.38</course>
  <speed>0.76</speed>
  <fix>3d</fix>
</trkpt>
<trkpt lat="40.0728433" lon="-105.230597">
  <ele>1593.44</ele>
  <time>2026-08-27T18:27:14Z</time>
  <course>1.43</course>
  <speed>0.740607858451421</speed>
  <fix>3d</fix>
</trkpt>
<trkpt lat="40.0728434" lon="-105.2305985">
  <ele>1593.85</ele>
  <time>2026-08-27T18:27:14Z</time>
  <course>1.66</course>
  <speed>0.740607858451421</speed>
  <fix>3d</fix>
</trkpt>
<trkpt lat="40.0728433" lon="-105.2305972">
  <ele>1593.23</ele>
  <time>2026-08-27T18:27:14Z</time>
  <course>275.6</course>
  <speed>0.76</speed>
  <fix>3d</fix>
</trkpt>
<trkpt lat="40.0728434" lon="-105.2305988">
  <ele>1593.93</ele>
  <time>2026-08-27T18:27:14Z</time>
  <course>1.7</course>
  <speed>0.740607858451421</speed>
  <fix>3d</fix>
</trkpt>
<trkpt lat="40.0728435" lon="-105.2306003">
  <ele>1594.33</ele>
  <time>2026-08-27T18:27:14Z</time>
  <course>1.91</course>
  <speed>0.7505997601918082</speed>
  <fix>3d</fix>
</trkpt>
<trkpt lat="40.0728435" lon="-105.230599">
  <ele>1593.71</ele>
  <time>2026-08-27T18:27:14Z</time>
  <course>275.77</course>
  <speed>0.76</speed>
  <fix>3d</fix>
</trkpt>
<trkpt lat="40.0728435" lon="-105.2306006">
  <ele>1594.41</ele>
  <time>2026-08-27T18:27:14Z</time>
  <course>1.95</course>
  <speed>0.7505997601918082</speed>
  <fix>3d</fix>
</trkpt>
<trkpt lat="40.0728436" lon="-105.2306021">
  <ele>1594.81</ele>
  <time>2026-08-27T18:27:14Z</time>
  <course>2.16</course>
  <speed>0.7505997601918082</speed>
  <fix>3d</fix>
</trkpt>
<trkpt lat="40.0728436" lon="-105.2306007">
  <ele>1594.19</ele>
  <time>2026-08-27T18:27:14Z</time>
  <course>275.88</course>
  <speed>0.76</speed>
  <fix>3d</fix>
</trkpt>
<trkpt lat="40.0728436" lon="-105.2306024">
  <ele>1594.9</ele>
  <time>2026-08-27T18:27:14Z</time>
  <course>2.21</course>
  <speed>0.7505997601918082</speed>
  <fix>3d</fix>
</trkpt>
<trkpt lat="40.0728437" lon="-105.2306039">
  <ele>1595.29</ele>
  <time>2026-08-27T18:27:14Z</time>
  <course>2.41</course>
  <speed>0.7505997601918082</speed>
  <fix>3d</fix>
</trkpt>
<trkpt lat="40.0728438" lon="-105.2306026">
  <ele>1594.67</ele>
  <time>2026-08-27T18:27:14Z</time>
  <course>275.96</course>
  <speed>0.76</speed>
  <fix>3d</fix>
</trkpt>
<trkpt lat="40.0728438" lon="-105.2306041">
  <ele>1595.36</ele>
  <time>2026-08-27T18:27:14Z</time>
  <course>2.44</course>
  <speed>0.7505997601918082</speed>
  <fix>3d</fix>
</trkpt>
<trkpt lat="40.0728439" lon="-105.2306057">
  <ele>1595.75</ele>
  <time>2026-08-27T18:27:14Z</time>
  <course>3.68</course>
  <speed>0.7605918747922567</speed>
  <fix>3d</fix>
</trkpt>
<trkpt lat="40.0728439" lon="-105.2306044">
  <ele>1595.15</ele>
  <time>2026-08-27T18:27:14Z</time>
  <course>276.0</course>
  <speed>0.75</speed>
  <fix>3d</fix>
</trkpt>
<trkpt lat="40.072844" lon="-105.2306075">
  <ele>1596.07</ele>
  <time>2026-08-27T18:27:14Z</time>
  <course>6.68</course>
  <speed>0.7410802925459562</speed>
  <fix>3d</fix>
</trkpt>
<trkpt lat="40.0728441" lon="-105.2306062">
  <ele>1595.59</ele>
  <time>2026-08-27T18:27:14Z</time>
  <course>275.95</course>
  <speed>0.75</speed>
  <fix>3d</fix>
</trkpt>
<trkpt lat="40.0728442" lon="-105.2306092">
  <ele>1596.27</ele>
  <time>2026-08-27T18:27:14Z</time>
  <course>7.46</course>
  <speed>0.711125867902441</speed>
  <fix>3d</fix>
</trkpt>
<trkpt lat="40.0728442" lon="-105.2306079">
  <ele>1595.9</ele>
  <time>2026-08-27T18:27:14Z</time>
  <course>276.25</course>
  <speed>0.74</speed>
  <fix>3d</fix>
</trkpt>
<trkpt lat="40.0728443" lon="-105.2306109">
  <ele>1596.4</ele>
  <time>2026-08-27T18:27:14Z</time>
  <course>7.47</course>
  <speed>0.671863081289633</speed>
  <fix>3d</fix>
</trkpt>
<trkpt lat="40.0728443" lon="-105.2306096">
  <ele>1596.09</ele>
  <time>2026-08-27T18:27:14Z</time>
  <course>277.04</course>
  <speed>0.71</speed>
  <fix>3d</fix>
</trkpt>
<trkpt lat="40.0728445" lon="-105.2306124">
  <ele>1596.51</ele>
  <time>2026-08-27T18:27:15Z</time>
  <course>7.02</course>
  <speed>0.6319810123729984</speed>
  <fix>3d</fix>
</trkpt>
<trkpt lat="40.0728445" lon="-105.2306112">
  <ele>1596.22</ele>
  <time>2026-08-27T18:27:15Z</time>
  <course>278.01</course>
  <speed>0.68</speed>
  <fix>3d</fix>
</trkpt>
<trkpt lat="40.0728446" lon="-105.2306138">
  <ele>1596.61</ele>
  <time>2026-08-27T18:27:15Z</time>
  <course>7.02</course>
  <speed>0.5714017850864661</speed>
  <fix>3d</fix>
</trkpt>
<trkpt lat="40.0728447" lon="-105.2306127">
  <ele>1596.33</ele>
  <time>2026-08-27T18:27:15Z</time>
  <course>279.09</course>
  <speed>0.63</speed>
  <fix>3d</fix>
</trkpt>
<trkpt lat="40.0728448" lon="-105.2306151">
  <ele>1596.71</ele>
  <time>2026-08-27T18:27:15Z</time>
  <course>7.03</course>
  <speed>0.480936586256442</speed>
  <fix>3d</fix>
</trkpt>
<trkpt lat="40.0728449" lon="-105.2306141">
  <ele>1596.42</ele>
  <time>2026-08-27T18:27:15Z</time>
  <course>280.31</course>
  <speed>0.57</speed>
  <fix>3d</fix>
</trkpt>
<trkpt lat="40.0728449" lon="-105.2306162">
  <ele>1596.8</ele>
  <time>2026-08-27T18:27:15Z</time>
  <course>7.07</course>
  <speed>0.4004996878900158</speed>
  <fix>3d</fix>
</trkpt>
<trkpt lat="40.072845" lon="-105.2306154">
  <ele>1596.52</ele>
  <time>2026-08-27T18:27:15Z</time>
  <course>282.05</course>
  <speed>0.49</speed>
  <fix>3d</fix>
</trkpt>
<trkpt lat="40.0728451" lon="-105.230617">
  <ele>1596.87</ele>
  <time>2026-08-27T18:27:15Z</time>
  <course>7.14</course>
  <speed>0.3101612483854165</speed>
  <fix>3d</fix>
</trkpt>
<trkpt lat="40.0728453" lon="-105.2306164">
  <ele>1596.61</ele>
  <time>2026-08-27T18:27:15Z</time>
  <course>284.65</course>
  <speed>0.4</speed>
  <fix>3d</fix>
</trkpt>
<trkpt lat="40.0728452" lon="-105.2306177">
  <ele>1596.94</ele>
  <time>2026-08-27T18:27:15Z</time>
  <course>7.21</course>
  <speed>0.23021728866442676</speed>
  <fix>3d</fix>
</trkpt>
<trkpt lat="40.0728455" lon="-105.2306172">
  <ele>1596.69</ele>
  <time>2026-08-27T18:27:15Z</time>
  <course>288.39</course>
  <speed>0.32</speed>
  <fix>3d</fix>
</trkpt>
<trkpt lat="40.0728454" lon="-105.2306182">
  <ele>1596.99</ele>
  <time>2026-08-27T18:27:15Z</time>
  <course>7.28</course>
  <speed>0.16031219541881397</speed>
  <fix>3d</fix>
</trkpt>
<trkpt lat="40.0728456" lon="-105.2306179">
  <ele>1596.76</ele>
  <time>2026-08-27T18:27:15Z</time>
  <course>293.64</course>
  <speed>0.25</speed>
  <fix>3d</fix>
</trkpt>
<trkpt lat="40.0728455" lon="-105.2306185">
  <ele>1597.03</ele>
  <time>2026-08-27T18:27:15Z</time>
  <course>7.43</course>
  <speed>0.09</speed>
  <fix>3d</fix>
</trkpt>
<trkpt lat="40.0728457" lon="-105.2306183">
  <ele>1596.82</ele>
  <time>2026-08-27T18:27:15Z</time>
  <course>301.18</course>
  <speed>0.18</speed>
  <fix>3d</fix>
</trkpt>
<trkpt lat="40.0728457" lon="-105.2306186">
  <ele>1597.06</ele>
  <time>2026-08-27T18:27:15Z</time>
  <course>4.89</course>
  <speed>0.01414213562373095</speed>
  <fix>3d</fix>
</trkpt>
<trkpt lat="40.072846" lon="-105.2306185">
  <ele>1596.87</ele>
  <time>2026-08-27T18:27:15Z</time>
  <course>318.6</course>
  <speed>0.1</speed>
  <fix>3d</fix>
</trkpt>
<trkpt lat="40.0728457" lon="-105.2306184">
  <ele>1597.08</ele>
  <time>2026-08-27T18:27:15Z</time>
  <course>5.17</course>
  <speed>0.10770329614269007</speed>
  <fix>3d</fix>
</trkpt>
<trkpt lat="40.0728461" lon="-105.2306186">
  <ele>1596.9</ele>
  <time>2026-08-27T18:27:15Z</time>
  <course>15.61</course>
  <speed>0.06</speed>
  <fix>3d</fix>
</trkpt>
<trkpt lat="40.0728458" lon="-105.230618">
  <ele>1597.09</ele>
  <time>2026-08-27T18:27:15Z</time>
  <course>5.23</course>
  <speed>0.2596150997149434</speed>
  <fix>3d</fix>
</trkpt>
<trkpt lat="40.0728462" lon="-105.2306185">
  <ele>1596.91</ele>
  <time>2026-08-27T18:27:15Z</time>
  <course>74.78</course>
  <speed>0.13</speed>
  <fix>3d</fix>
</trkpt>
<trkpt lat="40.0728458" lon="-105.2306173">
  <ele>1597.09</ele>
  <time>2026-08-27T18:27:15Z</time>
  <course>5.2</course>
  <speed>0.44147480109288234</speed>
  <fix>3d</fix>
</trkpt>
<trkpt lat="40.0728462" lon="-105.2306181">
  <ele>1596.92</ele>
  <time>2026-08-27T18:27:15Z</time>
  <course>88.15</course>
  <speed>0.28</speed>
  <fix>3d</fix>
</trkpt>
<trkpt lat="40.0728458" lon="-105.2306161">
  <ele>1597.08</ele>
  <time>2026-08-27T18:27:15Z</time>
  <course>5.1</course>
  <speed>0.6216912416947821</speed>
  <fix>3d</fix>
</trkpt>
<trkpt lat="40.0728462" lon="-105.2306172">
  <ele>1596.93</ele>
  <time>2026-08-27T18:27:15Z</time>
  <course>92.0</course>
  <speed>0.45</speed>
  <fix>3d</fix>
</trkpt>
<trkpt lat="40.0728458" lon="-105.2306144">
  <ele>1597.08</ele>
  <time>2026-08-27T18:27:15Z</time>
  <course>5.04</course>
  <speed>0.8023091673413684</speed>
  <fix>3d</fix>
</trkpt>
<trkpt lat="40.0728462" lon="-105.230616">
  <ele>1596.93</ele>
  <time>2026-08-27T18:27:15Z</time>
  <course>93.47</course>
  <speed>0.63</speed>
  <fix>3d</fix>
</trkpt>
<trkpt lat="40.0728456" lon="-105.2306124">
  <ele>1597.07</ele>
  <time>2026-08-27T18:27:15Z</time>
  <course>5.02</course>
  <speed>0.9617692030835673</speed>
  <fix>3d</fix>
</trkpt>
<trkpt lat="40.0728461" lon="-105.2306143">
  <ele>1596.94</ele>
  <time>2026-08-27T18:27:15Z</time>
  <course>94.21</course>
  <speed>0.81</speed>
  <fix>3d</fix>
</trkpt>
<trkpt lat="40.0728455" lon="-105.23061">
  <ele>1597.07</ele>
  <time>2026-08-27T18:27:15Z</time>
  <course>6.48</course>
  <speed>1.0720074626605918</speed>
  <fix>3d</fix>
</trkpt>
<trkpt lat="40.072846" lon="-105.2306122">
  <ele>1596.94</ele>
  <time>2026-08-27T18:27:15Z</time>
  <course>94.74</course>
  <speed>0.97</speed>
  <fix>3d</fix>
</trkpt>
<trkpt lat="40.0728454" lon="-105.2306074">
  <ele>1597.08</ele>
  <time>2026-08-27T18:27:15Z</time>
  <course>19.6</course>
  <speed>1.1696580696938743</speed>
  <fix>3d</fix>
</trkpt>
<trkpt lat="40.0728459" lon="-105.2306098">
  <ele>1596.94</ele>
  <time>2026-08-27T18:27:15Z</time>
  <course>95.09</course>
  <speed>1.08</speed>
  <fix>3d</fix>
</trkpt>
<trkpt lat="40.0728453" lon="-105.2306045">
  <ele>1597.08</ele>
  <time>2026-08-27T18:27:15Z</time>
  <course>32.11</course>
  <speed>1.2839003076563227</speed>
  <fix>3d</fix>
</trkpt>
<trkpt lat="40.0728457" lon="-105.2306071">
  <ele>1596.94</ele>
  <time>2026-08-27T18:27:15Z</time>
  <course>94.52</course>
  <speed>1.18</speed>
  <fix>3d</fix>
</trkpt>
<trkpt lat="40.0728453" lon="-105.2306014">
  <ele>1597.08</ele>
  <time>2026-08-27T18:27:15Z</time>
  <course>44.54</course>
  <speed>1.3705838172107534</speed>
  <fix>3d</fix>
</trkpt>
<trkpt lat="40.0728455" lon="-105.2306042">
  <ele>1596.95</ele>
  <time>2026-08-27T18:27:15Z</time>
  <course>92.71</course>
  <speed>1.28</speed>
  <fix>3d</fix>
</trkpt>
<trkpt lat="40.0728453" lon="-105.2305981">
  <ele>1597.09</ele>
  <time>2026-08-27T18:27:15Z</time>
  <course>56.92</course>
  <speed>1.4401388821915753</speed>
  <fix>3d</fix>
</trkpt>
<trkpt lat="40.0728455" lon="-105.2306011">
  <ele>1596.95</ele>
  <time>2026-08-27T18:27:15Z</time>
  <course>90.34</course>
  <speed>1.37</speed>
  <fix>3d</fix>
</trkpt>
<trkpt lat="40.0728455" lon="-105.2305947">
  <ele>1597.1</ele>
  <time>2026-08-27T18:27:15Z</time>
  <course>69.48</course>
  <speed>1.4712239802287073</speed>
  <fix>3d</fix>
</trkpt>
<trkpt lat="40.0728455" lon="-105.2305978">
  <ele>1596.96</ele>
  <time>2026-08-27T18:27:15Z</time>
  <course>88.16</course>
  <speed>1.43</speed>
  <fix>3d</fix>
</trkpt>
<trkpt lat="40.0728456" lon="-105.2305913">
  <ele>1597.1</ele>
  <time>2026-08-27T18:27:15Z</time>
  <course>81.85</course>
  <speed>1.4821605850919124</speed>
  <fix>3d</fix>
</trkpt>
<trkpt lat="40.0728455" lon="-105.2305944">
  <ele>1596.96</ele>
  <time>2026-08-27T18:27:15Z</time>
  <course>86.71</course>
  <speed>1.46</speed>
  <fix>3d</fix>
</trkpt>
<trkpt lat="40.0728457" lon="-105.2305878">
  <ele>1597.11</ele>
  <time>2026-08-27T18:27:15Z</time>
  <course>87.86</course>
  <speed>1.4701360481261592</speed>
  <fix>3d</fix>
</trkpt>
<trkpt lat="40.0728457" lon="-105.2305909">
  <ele>1596.97</ele>
  <time>2026-08-27T18:27:15Z</time>
  <course>86.91</course>
  <speed>1.46</speed>
  <fix>3d</fix>
</trkpt>
<trkpt lat="40.0728458" lon="-105.2305845">
  <ele>1597.11</ele>
  <time>2026-08-27T18:27:15Z</time>
  <course>88.77</course>
  <speed>1.42</speed>
  <fix>3d</fix>
</trkpt>
<trkpt lat="40.0728458" lon="-105.2305875">
  <ele>1596.98</ele>
  <time>2026-08-27T18:27:15Z</time>
  <course>88.4</course>
  <speed>1.44</speed>
  <fix>3d</fix>
</trkpt>
<trkpt lat="40.0728458" lon="-105.2305812">
  <ele>1597.12</ele>
  <time>2026-08-27T18:27:15Z</time>
  <course>89.69</course>
  <speed>1.3603308421115798</speed>
  <fix>3d</fix>
</trkpt>
<trkpt lat="40.0728459" lon="-105.2305842">
  <ele>1596.99</ele>
  <time>2026-08-27T18:27:15Z</time>
  <course>89.82</course>
  <speed>1.4</speed>
  <fix>3d</fix>
</trkpt>
<trkpt lat="40.0728457" lon="-105.2305782">
  <ele>1597.12</ele>
  <time>2026-08-27T18:27:15Z</time>
  <course>91.11</course>
  <speed>1.271416532848303</speed>
  <fix>3d</fix>
</trkpt>
<trkpt lat="40.0728459" lon="-105.230581">
  <ele>1596.99</ele>
  <time>2026-08-27T18:27:15Z</time>
  <course>91.19</course>
  <speed>1.33</speed>
  <fix>3d</fix>
</trkpt>
<trkpt lat="40.0728456" lon="-105.2305754">
  <ele>1597.12</ele>
  <time>2026-08-27T18:27:15Z</time>
  <course>92.89</course>
  <speed>1.143547113152755</speed>
  <fix>3d</fix>
</trkpt>
<trkpt lat="40.0728458" lon="-105.230578">
  <ele>1597.0</ele>
  <time>2026-08-27T18:27:15Z</time>
  <course>92.82</course>
  <speed>1.24</speed>
  <fix>3d</fix>
</trkpt>
<trkpt lat="40.0728455" lon="-105.230573">
  <ele>1597.13</ele>
  <time>2026-08-27T18:27:15Z</time>
  <course>95.0</course>
  <speed>0.986154146165801</speed>
  <fix>3d</fix>
</trkpt>
<trkpt lat="40.0728457" lon="-105.2305752">
  <ele>1597.0</ele>
  <time>2026-08-27T18:27:15Z</time>
  <course>94.78</course>
  <speed>1.11</speed>
  <fix>3d</fix>
</trkpt>
<trkpt lat="40.0728453" lon="-105.230571">
  <ele>1597.13</ele>
  <time>2026-08-27T18:27:15Z</time>
  <course>96.32</course>
  <speed>0.7826237921249263</speed>
  <fix>3d</fix>
</trkpt>
<trkpt lat="40.0728455" lon="-105.2305728">
  <ele>1597.01</ele>
  <time>2026-08-27T18:27:15Z</time>
  <course>97.35</course>
  <speed>0.94</speed>
  <fix>3d</fix>
</trkpt>
<trkpt lat="40.072845" lon="-105.2305695">
  <ele>1597.13</ele>
  <time>2026-08-27T18:27:15Z</time>
  <course>96.1</course>
  <speed>0.5508175741568164</speed>
  <fix>3d</fix>
</trkpt>
<trkpt lat="40.0728453" lon="-105.2305708">
  <ele>1597.01</ele>
  <time>2026-08-27T18:27:15Z</time>
  <course>101.34</course>
  <speed>0.74</speed>
  <fix>3d</fix>
</trkpt>
<trkpt lat="40.0728447" lon="-105.2305685">
  <ele>1597.12</ele>
  <time>2026-08-27T18:27:15Z</time>
  <course>96.14</course>
  <speed>0.3138470965295043</speed>
  <fix>3d</fix>
</trkpt>
<trkpt lat="40.072845" lon="-105.2305694">
  <ele>1597.0</ele>
  <time>2026-08-27T18:27:15Z</time>
  <course>108.32</course>
  <speed>0.51</speed>
  <fix>3d</fix>
</trkpt>
<trkpt lat="40.0728445" lon="-105.2305682">
  <ele>1597.11</ele>
  <time>2026-08-27T18:27:15Z</time>
  <course>96.12</course>
  <speed>0.16031219541881397</speed>
  <fix>3d</fix>
</trkpt>
<trkpt lat="40.0728447" lon="-105.2305685">
  <ele>1597.0</ele>
  <time>2026-08-27T18:27:15Z</time>
  <course>126.4</course>
  <speed>0.28</speed>
  <fix>3d</fix>
</trkpt>
<trkpt lat="40.0728441" lon="-105.2305684">
  <ele>1597.11</ele>
  <time>2026-08-27T18:27:15Z</time>
  <course>96.08</course>
  <speed>0.26248809496813374</speed>
  <fix>3d</fix>
</trkpt>
<trkpt lat="40.0728444" lon="-105.2305683">
  <ele>1596.99</ele>
  <time>2026-08-27T18:27:15Z</time>
  <course>187.91</course>
  <speed>0.17</speed>
  <fix>3d</fix>
</trkpt>
<trkpt lat="40.0728438" lon="-105.2305691">
  <ele>1597.09</ele>
  <time>2026-08-27T18:27:15Z</time>
  <course>95.97</course>
  <speed>0.4159326868617084</speed>
  <fix>3d</fix>
</trkpt>
<trkpt lat="40.0728441" lon="-105.2305686">
  <ele>1596.99</ele>
  <time>2026-08-27T18:27:15Z</time>
  <course>232.94</course>
  <speed>0.3</speed>
  <fix>3d</fix>
</trkpt>
<trkpt lat="40.0728435" lon="-105.2305701">
  <ele>1597.09</ele>
  <time>2026-08-27T18:27:15Z</time>
  <course>95.88</course>
  <speed>0.5107837115648853</speed>
  <fix>3d</fix>
</trkpt>
<trkpt lat="40.0728437" lon="-105.2305693">
  <ele>1596.99</ele>
  <time>2026-08-27T18:27:15Z</time>
  <course>244.52</course>
  <speed>0.45</speed>
  <fix>3d</fix>
</trkpt>
<trkpt lat="40.0728431" lon="-105.2305713">
  <ele>1597.1</ele>
  <time>2026-08-27T18:27:15Z</time>
  <course>95.83</course>
  <speed>0.5385164807134504</speed>
  <fix>3d</fix>
</trkpt>
<trkpt lat="40.0728433" lon="-105.2305704">
  <ele>1596.99</ele>
  <time>2026-08-27T18:27:15Z</time>
  <course>248.2</course>
  <speed>0.55</speed>
  <fix>3d</fix>
</trkpt>
<trkpt lat="40.0728427" lon="-105.2305725">
  <ele>1597.1</ele>
  <time>2026-08-27T18:27:15Z</time>
  <course>95.81</course>
  <speed>0.52</speed>
  <fix>3d</fix>
</trkpt>
<trkpt lat="40.072843" lon="-105.2305717">
  <ele>1596.99</ele>
  <time>2026-08-27T18:27:15Z</time>
  <course>249.2</course>
  <speed>0.58</speed>
  <fix>3d</fix>
</trkpt>
<trkpt lat="40.0728423" lon="-105.2305736">
  <ele>1597.1</ele>
  <time>2026-08-27T18:27:15Z</time>
  <course>93.19</course>
  <speed>0.48373546489791297</speed>
  <fix>3d</fix>
</trkpt>
<trkpt lat="40.0728426" lon="-105.2305729">
  <ele>1596.99</ele>
  <time>2026-08-27T18:27:15Z</time>
  <course>248.6</course>
  <speed>0.56</speed>
  <fix>3d</fix>
</trkpt>
<trkpt lat="40.0728419" lon="-105.2305746">
  <ele>1597.11</ele>
  <time>2026-08-27T18:27:15Z</time>
  <course>79.11</course>
  <speed>0.408166632639171</speed>
  <fix>3d</fix>
</trkpt>
<trkpt lat="40.0728422" lon="-105.2305741">
  <ele>1596.99</ele>
  <time>2026-08-27T18:27:15Z</time>
  <course>244.38</course>
  <speed>0.51</speed>
  <fix>3d</fix>
</trkpt>
<trkpt lat="40.0728416" lon="-105.2305755">
  <ele>1597.11</ele>
  <time>2026-08-27T18:27:15Z</time>
  <course>66.89</course>
  <speed>0.34</speed>
  <fix>3d</fix>
</trkpt>
<trkpt lat="40.0728418" lon="-105.2305751">
  <ele>1597.0</ele>
  <time>2026-08-27T18:27:15Z</time>
  <course>241.72</course>
  <speed>0.44</speed>
  <fix>3d</fix>
</trkpt>
<trkpt lat="40.0728413" lon="-105.2305763">
  <ele>1597.11</ele>
  <time>2026-08-27T18:27:15Z</time>
  <course>54.81</course>
  <speed>0.29966648127543394</speed>
  <fix>3d</fix>
</trkpt>
<trkpt lat="40.0728415" lon="-105.2305759">
  <ele>1597.0</ele>
  <time>2026-08-27T18:27:15Z</time>
  <course>244.57</course>
  <speed>0.37</speed>
  <fix>3d</fix>
</trkpt>
<trkpt lat="40.0728411" lon="-105.230577">
  <ele>1597.11</ele>
  <time>2026-08-27T18:27:15Z</time>
  <course>42.6</course>
  <speed>0.27313000567495327</speed>
  <fix>3d</fix>
</trkpt>
<trkpt lat="40.0728412" lon="-105.2305767">
  <ele>1597.0</ele>
  <time>2026-08-27T18:27:15Z</time>
  <course>247.13</course>
  <speed>0.33</speed>
  <fix>3d</fix>
</trkpt>
<trkpt lat="40.0728409" lon="-105.2305777">
  <ele>1597.11</ele>
  <time>2026-08-27T18:27:15Z</time>
  <course>30.57</course>
  <speed>0.25942243542145693</speed>
  <fix>3d</fix>
</trkpt>
<trkpt lat="40.0728409" lon="-105.2305774">
  <ele>1597.01</ele>
  <time>2026-08-27T18:27:15Z</time>
  <course>247.76</course>
  <speed>0.29</speed>
  <fix>3d</fix>
</trkpt>
<trkpt lat="40.0728406" lon="-105.2305782">
  <ele>1597.11</ele>
  <time>2026-08-27T18:27:15Z</time>
  <course>18.55</course>
  <speed>0.23853720883753127</speed>
  <fix>3d</fix>
</trkpt>
<trkpt lat="40.0728407" lon="-105.230578">
  <ele>1597.01</ele>
  <time>2026-08-27T18:27:15Z</time>
  <course>245.39</course>
  <speed>0.26</speed>
  <fix>3d</fix>
</trkpt>
<trkpt lat="40.0728404" lon="-105.2305787">
  <ele>1597.11</ele>
  <time>2026-08-27T18:27:15Z</time>
  <course>8.4</course>
  <speed>0.24413111231467405</speed>
  <fix>3d</fix>
</trkpt>
<trkpt lat="40.0728406" lon="-105.2305785">
  <ele>1597.01</ele>
  <time>2026-08-27T18:27:15Z</time>
  <course>239.85</course>
  <speed>0.24</speed>
  <fix>3d</fix>
</trkpt>
<trkpt lat="40.0728401" lon="-105.2305792">
  <ele>1597.11</ele>
  <time>2026-08-27T18:27:15Z</time>
  <course>10.15</course>
  <speed>0.22671568097509268</speed>
  <fix>3d</fix>
</trkpt>
<trkpt lat="40.0728403" lon="-105.230579">
  <ele>1597.01</ele>
  <time>2026-08-27T18:27:15Z</time>
  <course>236.94</course>
  <speed>0.23</speed>
  <fix>3d</fix>
</trkpt>
<trkpt lat="40.0728399" lon="-105.2305796">
  <ele>1597.11</ele>
  <time>2026-08-27T18:27:15Z</time>
  <course>10.4</course>
  <speed>0.18027756377319945</speed>
  <fix>3d</fix>
</trkpt>
<trkpt lat="40.0728402" lon="-105.2305795">
  <ele>1597.01</ele>
  <time>2026-08-27T18:27:15Z</time>
  <course>232.03</course>
  <speed>0.21</speed>
  <fix>3d</fix>
</trkpt>
<trkpt lat="40.0728397" lon="-105.2305797">
  <ele>1597.11</ele>
  <time>2026-08-27T18:27:15Z</time>
  <course>10.46</course>
  <speed>0.13341664064126335</speed>
  <fix>3d</fix>
</trkpt>
<trkpt lat="40.0728399" lon="-105.2305797">
  <ele>1597.02</ele>
  <time>2026-08-27T18:27:15Z</time>
  <course>216.99</course>
  <speed>0.15</speed>
  <fix>3d</fix>
</trkpt>
<trkpt lat="40.0728395" lon="-105.2305798">
  <ele>1597.11</ele>
  <time>2026-08-27T18:27:15Z</time>
  <course>10.47</course>
  <speed>0.09055385138137417</speed>
  <fix>3d</fix>
</trkpt>
<trkpt lat="40.0728397" lon="-105.2305799">
  <ele>1597.02</ele>
  <time>2026-08-27T18:27:15Z</time>
  <course>194.03</course>
  <speed>0.1</speed>
  <fix>3d</fix>
</trkpt>
<trkpt lat="40.0728394" lon="-105.2305797">
  <ele>1597.11</ele>
  <time>2026-08-27T18:27:15Z</time>
  <course>10.51</course>
  <speed>0.0848528137423857</speed>
  <fix>3d</fix>
</trkpt>
<trkpt lat="40.0728396" lon="-105.2305799">
  <ele>1597.02</ele>
  <time>2026-08-27T18:27:15Z</time>
  <course>152.77</course>
  <speed>0.07</speed>
  <fix>3d</fix>
</trkpt>
<trkpt lat="40.0728394" lon="-105.2305795">
  <ele>1597.11</ele>
  <time>2026-08-27T18:27:15Z</time>
  <course>10.53</course>
  <speed>0.09219544457292887</speed>
  <fix>3d</fix>
</trkpt>
<trkpt lat="40.0728395" lon="-105.2305798">
  <ele>1597.02</ele>
  <time>2026-08-27T18:27:15Z</time>
  <course>108.73</course>
  <speed>0.08</speed>
  <fix>3d</fix>
</trkpt>
<trkpt lat="40.0728394" lon="-105.2305793">
  <ele>1597.11</ele>
  <time>2026-08-27T18:27:15Z</time>
  <course>10.53</course>
  <speed>0.12</speed>
  <fix>3d</fix>
</trkpt>
<trkpt lat="40.0728395" lon="-105.2305796">
  <ele>1597.02</ele>
  <time>2026-08-27T18:27:15Z</time>
  <course>85.22</course>
  <speed>0.11</speed>
  <fix>3d</fix>
</trkpt>
<trkpt lat="40.0728394" lon="-105.230579">
  <ele>1597.11</ele>
  <time>2026-08-27T18:27:15Z</time>
  <course>10.54</course>
  <speed>0.14317821063276354</speed>
  <fix>3d</fix>
</trkpt>
<trkpt lat="40.0728395" lon="-105.2305793">
  <ele>1597.02</ele>
  <time>2026-08-27T18:27:15Z</time>
  <course>73.36</course>
  <speed>0.15</speed>
  <fix>3d</fix>
</trkpt>
<trkpt lat="40.0728395" lon="-105.2305786">
  <ele>1597.12</ele>
  <time>2026-08-27T18:27:15Z</time>
  <course>10.56</course>
  <speed>0.1708800749063506</speed>
  <fix>3d</fix>
</trkpt>
<trkpt lat="40.0728395" lon="-105.2305789">
  <ele>1597.02</ele>
  <time>2026-08-27T18:27:15Z</time>
  <course>66.24</course>
  <speed>0.18</speed>
  <fix>3d</fix>
</trkpt>
<trkpt lat="40.0728397" lon="-105.2305782">
  <ele>1597.13</ele>
  <time>2026-08-27T18:27:15Z</time>
  <course>10.59</course>
  <speed>0.18788294228055935</speed>
  <fix>3d</fix>
</trkpt>
<trkpt lat="40.0728396" lon="-105.2305785">
  <ele>1597.02</ele>
  <time>2026-08-27T18:27:15Z</time>
  <course>61.28</course>
  <speed>0.21</speed>
  <fix>3d</fix>
</trkpt>
<trkpt lat="40.0728399" lon="-105.2305777">
  <ele>1597.13</ele>
  <time>2026-08-27T18:27:15Z</time>
  <course>10.63</course>
  <speed>0.20591260281974003</speed>
  <fix>3d</fix>
</trkpt>
<trkpt lat="40.0728399" lon="-105.2305781">
  <ele>1597.02</ele>
  <time>2026-08-27T18:27:15Z</time>
  <course>57.52</course>
  <speed>0.23</speed>
  <fix>3d</fix>
</trkpt>
<trkpt lat="40.0728402" lon="-105.2305773">
  <ele>1597.13</ele>
  <time>2026-08-27T18:27:15Z</time>
  <course>10.65</course>
  <speed>0.2109502310972899</speed>
  <fix>3d</fix>
</trkpt>
<trkpt lat="40.0728402" lon="-105.2305776">
  <ele>1597.02</ele>
  <time>2026-08-27T18:27:15Z</time>
  <course>54.52</course>
  <speed>0.25</speed>
  <fix>3d</fix>
</trkpt>
<trkpt lat="40.0728404" lon="-105.2305768">
  <ele>1597.12</ele>
  <time>2026-08-27T18:27:15Z</time>
  <course>10.68</course>
  <speed>0.20808652046684814</speed>
  <fix>3d</fix>
</trkpt>
<trkpt lat="40.0728404" lon="-105.2305771">
  <ele>1597.01</ele>
  <time>2026-08-27T18:27:15Z</time>
  <course>51.99</course>
  <speed>0.26</speed>
  <fix>3d</fix>
</trkpt>
<trkpt lat="40.0728407" lon="-105.2305764">
  <ele>1597.12</ele>
  <time>2026-08-27T18:27:15Z</time>
  <course>10.69</course>
  <speed>0.21400934559032694</speed>
  <fix>3d</fix>
</trkpt>
<trkpt lat="40.0728407" lon="-105.2305766">
  <ele>1597.01</ele>
  <time>2026-08-27T18:27:15Z</time>
  <course>49.84</course>
  <speed>0.26</speed>
  <fix>3d</fix>
</trkpt>
<trkpt lat="40.072841" lon="-105.2305759">
  <ele>1597.11</ele>
  <time>2026-08-27T18:27:15Z</time>
  <course>10.71</course>
  <speed>0.19209372712298545</speed>
  <fix>3d</fix>
</trkpt>
<trkpt lat="40.072841" lon="-105.2305762">
  <ele>1597.01</ele>
  <time>2026-08-27T18:27:15Z</time>
  <course>48.1</course>
  <speed>0.25</speed>
  <fix>3d</fix>
</trkpt>
<trkpt lat="40.0728413" lon="-105.2305755">
  <ele>1597.11</ele>
  <time>2026-08-27T18:27:15Z</time>
  <course>10.69</course>
  <speed>0.17804493814764857</speed>
  <fix>3d</fix>
</trkpt>
<trkpt lat="40.0728413" lon="-105.2305757">
  <ele>1597.01</ele>
  <time>2026-08-27T18:27:15Z</time>
  <course>46.67</course>
  <speed>0.24</speed>
  <fix>3d</fix>
</trkpt>
<trkpt lat="40.0728416" lon="-105.2305752">
  <ele>1597.1</ele>
  <time>2026-08-27T18:27:15Z</time>
  <course>10.74</course>
  <speed>0.15620499351813308</speed>
  <fix>3d</fix>
</trkpt>
<trkpt lat="40.0728416" lon="-105.2305753">
  <ele>1597.01</ele>
  <time>2026-08-27T18:27:15Z</time>
  <course>45.41</course>
  <speed>0.22</speed>
  <fix>3d</fix>
</trkpt>
<trkpt lat="40.0728418" lon="-105.2305749">
  <ele>1597.09</ele>
  <time>2026-08-27T18:27:15Z</time>
  <course>10.75</course>
  <speed>0.1345362404707371</speed>
  <fix>3d</fix>
</trkpt>
<trkpt lat="40.0728419" lon="-105.2305749">
  <ele>1597.01</ele>
  <time>2026-08-27T18:27:15Z</time>
  <course>44.34</course>
  <speed>0.2</speed>
  <fix>3d</fix>
</trkpt>
<trkpt lat="40.072842" lon="-105.2305746">
  <ele>1597.08</ele>
  <time>2026-08-27T18:27:15Z</time>
  <course>11.09</course>
  <speed>0.1063014581273465</speed>
  <fix>3d</fix>
</trkpt>
<trkpt lat="40.0728421" lon="-105.2305747">
  <ele>1597.01</ele>
  <time>2026-08-27T18:27:15Z</time>
  <course>42.98</course>
  <speed>0.17</speed>
  <fix>3d</fix>
</trkpt>
<trkpt lat="40.0728422" lon="-105.2305744">
  <ele>1597.04</ele>
  <time>2026-08-27T18:27:15Z</time>
  <course>11.49</course>
  <speed>0.0848528137423857</speed>
  <fix>3d</fix>
</trkpt>
<trkpt lat="40.0728424" lon="-105.2305744">
  <ele>1596.99</ele>
  <time>2026-08-27T18:27:15Z</time>
  <course>41.19</course>
  <speed>0.14</speed>
  <fix>3d</fix>
</trkpt>
<trkpt lat="40.0728424" lon="-105.2305742">
  <ele>1596.96</ele>
  <time>2026-08-27T18:27:15Z</time>
  <course>11.84</course>
  <speed>0.06403124237432849</speed>
  <fix>3d</fix>
</trkpt>
<trkpt lat="40.0728426" lon="-105.2305742">
  <ele>1596.95</ele>
  <time>2026-08-27T18:27:15Z</time>
  <course>39.73</course>
  <speed>0.12</speed>
  <fix>3d</fix>
</trkpt>
<trkpt lat="40.0728425" lon="-105.2305741">
  <ele>1596.83</ele>
  <time>2026-08-27T18:27:15Z</time>
  <course>12.09</course>
  <speed>0.044721359549995794</speed>
  <fix>3d</fix>
</trkpt>
<trkpt lat="40.0728427" lon="-105.230574">
  <ele>1596.86</ele>
  <time>2026-08-27T18:27:15Z</time>
  <course>39.14</course>
  <speed>0.09</speed>
  <fix>3d</fix>
</trkpt>
<trkpt lat="40.0728426" lon="-105.230574">
  <ele>1596.68</ele>
  <time>2026-08-27T18:27:15Z</time>
  <course>11.96</course>
  <speed>0.03</speed>
  <fix>3d</fix>
</trkpt>
<trkpt lat="40.0728428" lon="-105.2305739">
  <ele>1596.74</ele>
  <time>2026-08-27T18:27:15Z</time>
  <course>41.12</course>
  <speed>0.07</speed>
  <fix>3d</fix>
</trkpt>
<trkpt lat="40.0728427" lon="-105.2305739">
  <ele>1596.54</ele>
  <time>2026-08-27T18:27:15Z</time>
  <course>11.68</course>
  <speed>0.01414213562373095</speed>
  <fix>3d</fix>
</trkpt>
<trkpt lat="40.0728429" lon="-105.2305738">
  <ele>1596.59</ele>
  <time>2026-08-27T18:27:15Z</time>
  <course>48.32</course>
  <speed>0.04</speed>
  <fix>3d</fix>
</trkpt>
<trkpt lat="40.0728427" lon="-105.2305738">
  <ele>1596.4</ele>
  <time>2026-08-27T18:27:15Z</time>
  <course>11.5</course>
  <speed>0.03</speed>
  <fix>3d</fix>
</trkpt>
<trkpt lat="40.0728429" lon="-105.2305738">
  <ele>1596.45</ele>
  <time>2026-08-27T18:27:15Z</time>
  <course>69.42</course>
  <speed>0.02</speed>
  <fix>3d</fix>
</trkpt>
<trkpt lat="40.0728426" lon="-105.2305738">
  <ele>1596.28</ele>
  <time>2026-08-27T18:27:15Z</time>
  <course>11.41</course>
  <speed>0.05</speed>
  <fix>3d</fix>
</trkpt>
<trkpt lat="40.072843" lon="-105.2305738">
  <ele>1596.31</ele>
  <time>2026-08-27T18:27:15Z</time>
  <course>157.72</course>
  <speed>0.01</speed>
  <fix>3d</fix>
</trkpt>
<trkpt lat="40.0728426" lon="-105.2305739">
  <ele>1596.16</ele>
  <time>2026-08-27T18:27:15Z</time>
  <course>11.37</course>
  <speed>0.0632455532033676</speed>
  <fix>3d</fix>
</trkpt>
<trkpt lat="40.072843" lon="-105.2305738">
  <ele>1596.19</ele>
  <time>2026-08-27T18:27:15Z</time>
  <course>198.79</course>
  <speed>0.03</speed>
  <fix>3d</fix>
</trkpt>
<trkpt lat="40.0728426" lon="-105.2305739">
  <ele>1596.06</ele>
  <time>2026-08-27T18:27:15Z</time>
  <course>11.34</course>
  <speed>0.07615773105863909</speed>
  <fix>3d</fix>
</trkpt>
<trkpt lat="40.0728429" lon="-105.2305738">
  <ele>1596.07</ele>
  <time>2026-08-27T18:27:15Z</time>
  <course>209.57</course>
  <speed>0.04</speed>
  <fix>3d</fix>
</trkpt>
<trkpt lat="40.0728425" lon="-105.2305739">
  <ele>1595.95</ele>
  <time>2026-08-27T18:27:15Z</time>
  <course>11.34</course>
  <speed>0.08944271909999159</speed>
  <fix>3d</fix>
</trkpt>
<trkpt lat="40.0728428" lon="-105.2305738">
  <ele>1595.97</ele>
  <time>2026-08-27T18:27:15Z</time>
  <course>214.65</course>
  <speed>0.06</speed>
  <fix>3d</fix>
</trkpt>
<trkpt lat="40.0728424" lon="-105.230574">
  <ele>1595.85</ele>
  <time>2026-08-27T18:27:15Z</time>
  <course>11.33</course>
  <speed>0.08944271909999159</speed>
  <fix>3d</fix>
</trkpt>
<trkpt lat="40.0728427" lon="-105.2305738">
  <ele>1595.87</ele>
  <time>2026-08-27T18:27:15Z</time>
  <course>217.93</course>
  <speed>0.07</speed>
  <fix>3d</fix>
</trkpt>
<trkpt lat="40.0728423" lon="-105.2305741">
  <ele>1595.76</ele>
  <time>2026-08-27T18:27:15Z</time>
  <course>11.36</course>
  <speed>0.09433981132056603</speed>
  <fix>3d</fix>
</trkpt>
<trkpt lat="40.0728426" lon="-105.2305739">
  <ele>1595.77</ele>
  <time>2026-08-27T18:27:15Z</time>
  <course>220.61</course>
  <speed>0.08</speed>
  <fix>3d</fix>
</trkpt>
<trkpt lat="40.0728422" lon="-105.2305742">
  <ele>1595.66</ele>
  <time>2026-08-27T18:27:15Z</time>
  <course>11.4</course>
  <speed>0.09433981132056603</speed>
  <fix>3d</fix>
</trkpt>
<trkpt lat="40.0728425" lon="-105.2305741">
  <ele>1595.67</ele>
  <time>2026-08-27T18:27:15Z</time>
  <course>223.21</course>
  <speed>0.09</speed>
  <fix>3d</fix>
</trkpt>
<trkpt lat="40.0728421" lon="-105.2305743">
  <ele>1595.56</ele>
  <time>2026-08-27T18:27:15Z</time>
  <course>11.38</course>
  <speed>0.08602325267042626</speed>
  <fix>3d</fix>
</trkpt>
<trkpt lat="40.0728424" lon="-105.2305743">
  <ele>1595.58</ele>
  <time>2026-08-27T18:27:15Z</time>
  <course>225.95</course>
  <speed>0.09</speed>
  <fix>3d</fix>
</trkpt>
<trkpt lat="40.072842" lon="-105.2305745">
  <ele>1595.46</ele>
  <time>2026-08-27T18:27:15Z</time>
  <course>11.39</course>
  <speed>0.08602325267042626</speed>
  <fix>3d</fix>
</trkpt>
<trkpt lat="40.0728422" lon="-105.2305744">
  <ele>1595.48</ele>
  <time>2026-08-27T18:27:15Z</time>
  <course>229.14</course>
  <speed>0.09</speed>
  <fix>3d</fix>
</trkpt>
<trkpt lat="40.072842" lon="-105.2305746">
  <ele>1595.37</ele>
  <time>2026-08-27T18:27:15Z</time>
  <course>11.39</course>
  <speed>0.07810249675906654</speed>
  <fix>3d</fix>
</trkpt>
<trkpt lat="40.0728421" lon="-105.2305745">
  <ele>1595.38</ele>
  <time>2026-08-27T18:27:15Z</time>
  <course>232.63</course>
  <speed>0.08</speed>
  <fix>3d</fix>
</trkpt>
<trkpt lat="40.0728419" lon="-105.2305748">
  <ele>1595.27</ele>
  <time>2026-08-27T18:27:15Z</time>
  <course>11.4</course>
  <speed>0.06403124237432849</speed>
  <fix>3d</fix>
</trkpt>
<trkpt lat="40.072842" lon="-105.2305748">
  <ele>1595.29</ele>
  <time>2026-08-27T18:27:15Z</time>
  <course>236.41</course>
  <speed>0.08</speed>
  <fix>3d</fix>
</trkpt>
<trkpt lat="40.0728418" lon="-105.2305749">
  <ele>1595.17</ele>
  <time>2026-08-27T18:27:15Z</time>
  <course>11.39</course>
  <speed>0.0565685424949238</speed>
  <fix>3d</fix>
</trkpt>
<trkpt lat="40.072842" lon="-105.2305749">
  <ele>1595.19</ele>
  <time>2026-08-27T18:27:15Z</time>
  <course>240.88</course>
  <speed>0.07</speed>
  <fix>3d</fix>
</trkpt>
<trkpt lat="40.0728418" lon="-105.230575">
  <ele>1595.07</ele>
  <time>2026-08-27T18:27:15Z</time>
  <course>11.38</course>
  <speed>0.04242640687119285</speed>
  <fix>3d</fix>
</trkpt>
<trkpt lat="40.0728419" lon="-105.2305751">
  <ele>1595.09</ele>
  <time>2026-08-27T18:27:15Z</time>
  <course>246.57</course>
  <speed>0.06</speed>
  <fix>3d</fix>
</trkpt>
<trkpt lat="40.0728418" lon="-105.2305751">
  <ele>1594.97</ele>
  <time>2026-08-27T18:27:15Z</time>
  <course>11.37</course>
  <speed>0.03605551275463989</speed>
  <fix>3d</fix>
</trkpt>
<trkpt lat="40.0728419" lon="-105.2305752">
  <ele>1594.99</ele>
  <time>2026-08-27T18:27:15Z</time>
  <course>253.84</course>
  <speed>0.05</speed>
  <fix>3d</fix>
</trkpt>
<trkpt lat="40.0728418" lon="-105.2305752">
  <ele>1594.87</ele>
  <time>2026-08-27T18:27:15Z</time>
  <course>11.38</course>
  <speed>0.022360679774997897</speed>
  <fix>3d</fix>
</trkpt>
<trkpt lat="40.0728419" lon="-105.2305753">
  <ele>1594.88</ele>
  <time>2026-08-27T18:27:15Z</time>
  <course>262.79</course>
  <speed>0.05</speed>
  <fix>3d</fix>
</trkpt>
<trkpt lat="40.0728418" lon="-105.2305753">
  <ele>1594.77</ele>
  <time>2026-08-27T18:27:15Z</time>
  <course>11.39</course>
  <speed>0.01</speed>
  <fix>3d</fix>
</trkpt>
<trkpt lat="40.0728419" lon="-105.2305754">
  <ele>1594.79</ele>
  <time>2026-08-27T18:27:15Z</time>
  <course>273.41</course>
  <speed>0.04</speed>
  <fix>3d</fix>
</trkpt>
<trkpt lat="40.0728418" lon="-105.2305754">
  <ele>1594.67</ele>
  <time>2026-08-27T18:27:15Z</time>
  <course>11.38</course>
  <speed>0.0</speed>
  <fix>3d</fix>
</trkpt>
<trkpt lat="40.0728419" lon="-105.2305755">
  <ele>1594.69</ele>
  <time>2026-08-27T18:27:15Z</time>
  <course>285.34</course>
  <speed>0.03</speed>
  <fix>3d</fix>
</trkpt>
<trkpt lat="40.0728418" lon="-105.2305755">
  <ele>1594.57</ele>
  <time>2026-08-27T18:27:15Z</time>
  <course>11.38</course>
  <speed>0.0</speed>
  <fix>3d</fix>
</trkpt>
<trkpt lat="40.0728419" lon="-105.2305756">
  <ele>1594.59</ele>
  <time>2026-08-27T18:27:15Z</time>
  <course>298.4</course>
  <speed>0.03</speed>
  <fix>3d</fix>
</trkpt>
<trkpt lat="40.0728418" lon="-105.2305755">
  <ele>1594.47</ele>
  <time>2026-08-27T18:27:15Z</time>
  <course>11.4</course>
  <speed>0.0</speed>
  <fix>3d</fix>
</trkpt>
<trkpt lat="40.0728419" lon="-105.2305756">
  <ele>1594.49</ele>
  <time>2026-08-27T18:27:15Z</time>
  <course>312.11</course>
  <speed>0.03</speed>
  <fix>3d</fix>
</trkpt>
<trkpt lat="40.0728418" lon="-105.2305755">
  <ele>1594.37</ele>
  <time>2026-08-27T18:27:15Z</time>
  <course>11.37</course>
  <speed>0.01</speed>
  <fix>3d</fix>
</trkpt>
<trkpt lat="40.0728419" lon="-105.2305757">
  <ele>1594.38</ele>
  <time>2026-08-27T18:27:15Z</time>
  <course>325.5</course>
  <speed>0.03</speed>
  <fix>3d</fix>
</trkpt>
<trkpt lat="40.0728419" lon="-105.2305755">
  <ele>1594.27</ele>
  <time>2026-08-27T18:27:15Z</time>
  <course>11.4</course>
  <speed>0.01414213562373095</speed>
  <fix>3d</fix>
</trkpt>
<trkpt lat="40.072842" lon="-105.2305758">
  <ele>1594.29</ele>
  <time>2026-08-27T18:27:15Z</time>
  <course>337.28</course>
  <speed>0.03</speed>
  <fix>3d</fix>
</trkpt>
<trkpt lat="40.0728419" lon="-105.2305755">
  <ele>1594.17</ele>
  <time>2026-08-27T18:27:15Z</time>
  <course>11.39</course>
  <speed>0.022360679774997897</speed>
  <fix>3d</fix>
</trkpt>
<trkpt lat="40.072842" lon="-105.2305758">
  <ele>1594.19</ele>
  <time>2026-08-27T18:27:15Z</time>
  <course>347.75</course>
  <speed>0.03</speed>
  <fix>3d</fix>
</trkpt>
<trkpt lat="40.072842" lon="-105.2305756">
  <ele>1594.08</ele>
  <time>2026-08-27T18:27:15Z</time>
  <course>11.4</course>
  <speed>0.022360679774997897</speed>
  <fix>3d</fix>
</trkpt>
<trkpt lat="40.072842" lon="-105.2305758">
  <ele>1594.09</ele>
  <time>2026-08-27T18:27:15Z</time>
  <course>357.24</course>
  <speed>0.03</speed>
  <fix>3d</fix>
</trkpt>
<trkpt lat="40.072842" lon="-105.2305756">
  <ele>1593.97</ele>
  <time>2026-08-27T18:27:15Z</time>
  <course>11.4</course>
  <speed>0.022360679774997897</speed>
  <fix>3d</fix>
</trkpt>
<trkpt lat="40.0728421" lon="-105.2305758">
  <ele>1593.99</ele>
  <time>2026-08-27T18:27:15Z</time>
  <course>4.86</course>
  <speed>0.03</speed>
  <fix>3d</fix>
</trkpt>
<trkpt lat="40.0728421" lon="-105.2305756">
  <ele>1593.87</ele>
  <time>2026-08-27T18:27:15Z</time>
  <course>11.4</course>
  <speed>0.03</speed>
  <fix>3d</fix>
</trkpt>
<trkpt lat="40.0728421" lon="-105.2305758">
  <ele>1593.88</ele>
  <time>2026-08-27T18:27:15Z</time>
  <course>11.22</course>
  <speed>0.03</speed>
  <fix>3d</fix>
</trkpt>
<trkpt lat="40.0728421" lon="-105.2305756">
  <ele>1593.77</ele>
  <time>2026-08-27T18:27:15Z</time>
  <course>11.39</course>
  <speed>0.03</speed>
  <fix>3d</fix>
</trkpt>
<trkpt lat="40.0728422" lon="-105.2305758">
  <ele>1593.79</ele>
  <time>2026-08-27T18:27:15Z</time>
  <course>17.18</course>
  <speed>0.03</speed>
  <fix>3d</fix>
</trkpt>
<trkpt lat="40.0728422" lon="-105.2305756">
  <ele>1593.66</ele>
  <time>2026-08-27T18:27:15Z</time>
  <course>11.38</course>
  <speed>0.03</speed>
  <fix>3d</fix>
</trkpt>
<trkpt lat="40.0728423" lon="-105.2305758">
  <ele>1593.69</ele>
  <time>2026-08-27T18:27:15Z</time>
  <course>23.16</course>
  <speed>0.03</speed>
  <fix>3d</fix>
</trkpt>
<trkpt lat="40.0728422" lon="-105.2305755">
  <ele>1593.56</ele>
  <time>2026-08-27T18:27:15Z</time>
  <course>11.39</course>
  <speed>0.03</speed>
  <fix>3d</fix>
</trkpt>
<trkpt lat="40.0728423" lon="-105.2305758">
  <ele>1593.59</ele>
  <time>2026-08-27T18:27:15Z</time>
  <course>28.76</course>
  <speed>0.03</speed>
  <fix>3d</fix>
</trkpt>
<trkpt lat="40.0728422" lon="-105.2305755">
  <ele>1593.46</ele>
  <time>2026-08-27T18:27:15Z</time>
  <course>11.4</course>
  <speed>0.03</speed>
  <fix>3d</fix>
</trkpt>
<trkpt lat="40.0728424" lon="-105.2305758">
  <ele>1593.49</ele>
  <time>2026-08-27T18:27:15Z</time>
  <course>34.3</course>
  <speed>0.02</speed>
  <fix>3d</fix>
</trkpt>
<trkpt lat="40.0728423" lon="-105.2305755">
  <ele>1593.36</ele>
  <time>2026-08-27T18:27:15Z</time>
  <course>11.36</course>
  <speed>0.03</speed>
  <fix>3d</fix>
</trkpt>
<trkpt lat="40.0728424" lon="-105.2305758">
  <ele>1593.38</ele>
  <time>2026-08-27T18:27:15Z</time>
  <course>40.88</course>
  <speed>0.02</speed>
  <fix>3d</fix>
</trkpt>
<trkpt lat="40.0728423" lon="-105.2305754">
  <ele>1593.26</ele>
  <time>2026-08-27T18:27:15Z</time>
  <course>11.37</course>
  <speed>0.0316227766016838</speed>
  <fix>3d</fix>
</trkpt>
<trkpt lat="40.0728425" lon="-105.2305757">
  <ele>1593.29</ele>
  <time>2026-08-27T18:27:15Z</time>
  <course>47.87</course>
  <speed>0.02</speed>
  <fix>3d</fix>
</trkpt>
<trkpt lat="40.0728423" lon="-105.2305754">
  <ele>1593.16</ele>
  <time>2026-08-27T18:27:15Z</time>
  <course>11.39</course>
  <speed>0.0316227766016838</speed>
  <fix>3d</fix>
</trkpt>
<trkpt lat="40.0728425" lon="-105.2305756">
  <ele>1593.19</ele>
  <time>2026-08-27T18:27:15Z</time>
  <course>55.54</course>
  <speed>0.02</speed>
  <fix>3d</fix>
</trkpt>
<trkpt lat="40.0728423" lon="-105.2305754">
  <ele>1593.06</ele>
  <time>2026-08-27T18:27:15Z</time>
  <course>11.4</course>
  <speed>0.0316227766016838</speed>
  <fix>3d</fix>
</trkpt>
<trkpt lat="40.0728425" lon="-105.2305756">
  <ele>1593.09</ele>
  <time>2026-08-27T18:27:15Z</time>
  <course>65.56</course>
  <speed>0.01</speed>
  <fix>3d</fix>
</trkpt>
<trkpt lat="40.0728423" lon="-105.2305754">
  <ele>1592.96</ele>
  <time>2026-08-27T18:27:15Z</time>
  <course>11.37</course>
  <speed>0.03605551275463989</speed>
  <fix>3d</fix>
</trkpt>
<trkpt lat="40.0728425" lon="-105.2305756">
  <ele>1593.0</ele>
  <time>2026-08-27T18:27:15Z</time>
  <course>77.1</course>
  <speed>0.01</speed>
  <fix>3d</fix>
</trkpt>
<trkpt lat="40.0728423" lon="-105.2305753">
  <ele>1592.87</ele>
  <time>2026-08-27T18:27:15Z</time>
  <course>11.39</course>
  <speed>0.03605551275463989</speed>
  <fix>3d</fix>
</trkpt>
<trkpt lat="40.0728425" lon="-105.2305755">
  <ele>1592.89</ele>
  <time>2026-08-27T18:27:15Z</time>
  <course>89.62</course>
  <speed>0.01</speed>
  <fix>3d</fix>
</trkpt>
<trkpt lat="40.0728423" lon="-105.2305753">
  <ele>1592.77</ele>
  <time>2026-08-27T18:27:15Z</time>
  <course>11.4</course>
  <speed>0.03605551275463989</speed>
  <fix>3d</fix>
</trkpt>
<trkpt lat="40.0728425" lon="-105.2305755">
  <ele>1592.8</ele>
  <time>2026-08-27T18:27:15Z</time>
  <course>104.11</course>
  <speed>0.01</speed>
  <fix>3d</fix>
</trkpt>
<trkpt lat="40.0728423" lon="-105.2305753">
  <ele>1592.67</ele>
  <time>2026-08-27T18:27:15Z</time>
  <course>11.4</course>
  <speed>0.04242640687119285</speed>
  <fix>3d</fix>
</trkpt>
<trkpt lat="40.0728425" lon="-105.2305755">
  <ele>1592.7</ele>
  <time>2026-08-27T18:27:15Z</time>
  <course>116.85</course>
  <speed>0.01</speed>
  <fix>3d</fix>
</trkpt>
<trkpt lat="40.0728423" lon="-105.2305753">
  <ele>1592.57</ele>
  <time>2026-08-27T18:27:15Z</time>
  <course>11.41</course>
  <speed>0.03605551275463989</speed>
  <fix>3d</fix>
</trkpt>
<trkpt lat="40.0728425" lon="-105.2305755">
  <ele>1592.6</ele>
  <time>2026-08-27T18:27:15Z</time>
  <course>127.68</course>
  <speed>0.01</speed>
  <fix>3d</fix>
</trkpt>
<trkpt lat="40.0728423" lon="-105.2305752">
  <ele>1592.48</ele>
  <time>2026-08-27T18:27:15Z</time>
  <course>11.4</course>
  <speed>0.03605551275463989</speed>
  <fix>3d</fix>
</trkpt>
<trkpt lat="40.0728425" lon="-105.2305754">
  <ele>1592.5</ele>
  <time>2026-08-27T18:27:15Z</time>
  <course>137.35</course>
  <speed>0.01</speed>
  <fix>3d</fix>
</trkpt>
<trkpt lat="40.0728423" lon="-105.2305752">
  <ele>1592.38</ele>
  <time>2026-08-27T18:27:15Z</time>
  <course>11.4</course>
  <speed>0.03605551275463989</speed>
  <fix>3d</fix>
</trkpt>
<trkpt lat="40.0728425" lon="-105.2305753">
  <ele>1592.39</ele>
  <time>2026-08-27T18:27:15Z</time>
  <course>145.06</course>
  <speed>0.01</speed>
  <fix>3d</fix>
</trkpt>
<trkpt lat="40.0728423" lon="-105.2305752">
  <ele>1592.28</ele>
  <time>2026-08-27T18:27:15Z</time>
  <course>11.4</course>
  <speed>0.03605551275463989</speed>
  <fix>3d</fix>
</trkpt>
<trkpt lat="40.0728425" lon="-105.2305753">
  <ele>1592.3</ele>
  <time>2026-08-27T18:27:15Z</time>
  <course>151.79</course>
  <speed>0.01</speed>
  <fix>3d</fix>
</trkpt>
<trkpt lat="40.0728423" lon="-105.2305752">
  <ele>1592.18</ele>
  <time>2026-08-27T18:27:16Z</time>
  <course>11.41</course>
  <speed>0.03605551275463989</speed>
  <fix>3d</fix>
</trkpt>
<trkpt lat="40.0728425" lon="-105.2305753">
  <ele>1592.2</ele>
  <time>2026-08-27T18:27:16Z</time>
  <course>158.38</course>
  <speed>0.01</speed>
  <fix>3d</fix>
</trkpt>
<trkpt lat="40.0728423" lon="-105.2305752">
  <ele>1592.07</ele>
  <time>2026-08-27T18:27:16Z</time>
  <course>11.4</course>
  <speed>0.03605551275463989</speed>
  <fix>3d</fix>
</trkpt>
<trkpt lat="40.0728425" lon="-105.2305753">
  <ele>1592.09</ele>
  <time>2026-08-27T18:27:16Z</time>
  <course>163.57</course>
  <speed>0.01</speed>
  <fix>3d</fix>
</trkpt>
<trkpt lat="40.0728423" lon="-105.2305752">
  <ele>1591.97</ele>
  <time>2026-08-27T18:27:16Z</time>
  <course>11.38</course>
  <speed>0.0316227766016838</speed>
  <fix>3d</fix>
</trkpt>
<trkpt lat="40.0728425" lon="-105.2305753">
  <ele>1591.99</ele>
  <time>2026-08-27T18:27:16Z</time>
  <course>168.3</course>
  <speed>0.01</speed>
  <fix>3d</fix>
</trkpt>
<trkpt lat="40.0728423" lon="-105.2305752">
  <ele>1591.87</ele>
  <time>2026-08-27T18:27:16Z</time>
  <course>11.4</course>
  <speed>0.0316227766016838</speed>
  <fix>3d</fix>
</trkpt>
<trkpt lat="40.0728424" lon="-105.2305753">
  <ele>1591.88</ele>
  <time>2026-08-27T18:27:16Z</time>
  <course>174.81</course>
  <speed>0.01</speed>
  <fix>3d</fix>
</trkpt>
<trkpt lat="40.0728422" lon="-105.2305752">
  <ele>1591.76</ele>
  <time>2026-08-27T18:27:16Z</time>
  <course>11.37</course>
  <speed>0.0316227766016838</speed>
  <fix>3d</fix>
</trkpt>
<trkpt lat="40.0728424" lon="-105.2305753">
  <ele>1591.79</ele>
  <time>2026-08-27T18:27:16Z</time>
  <course>181.03</course>
  <speed>0.01</speed>
  <fix>3d</fix>
</trkpt>
<trkpt lat="40.0728422" lon="-105.2305752">
  <ele>1591.66</ele>
  <time>2026-08-27T18:27:16Z</time>
  <course>11.38</course>
  <speed>0.0316227766016838</speed>
  <fix>3d</fix>
</trkpt>
<trkpt lat="40.0728424" lon="-105.2305753">
  <ele>1591.69</ele>
  <time>2026-08-27T18:27:16Z</time>
  <course>186.82</course>
  <speed>0.01</speed>
  <fix>3d</fix>
</trkpt>
<trkpt lat="40.0728422" lon="-105.2305752">
  <ele>1591.56</ele>
  <time>2026-08-27T18:27:16Z</time>
  <course>11.37</course>
  <speed>0.022360679774997897</speed>
  <fix>3d</fix>
</trkpt>
<trkpt lat="40.0728424" lon="-105.2305753">
  <ele>1591.59</ele>
  <time>2026-08-27T18:27:16Z</time>
  <course>192.04</course>
  <speed>0.01</speed>
  <fix>3d</fix>
</trkpt>
<trkpt lat="40.0728422" lon="-105.2305752">
  <ele>1591.46</ele>
  <time>2026-08-27T18:27:16Z</time>
  <course>11.38</course>
  <speed>0.022360679774997897</speed>
  <fix>3d</fix>
</trkpt>
<trkpt lat="40.0728423" lon="-105.2305753">
  <ele>1591.49</ele>
  <time>2026-08-27T18:27:16Z</time>
  <course>197.21</course>
  <speed>0.01</speed>
  <fix>3d</fix>
</trkpt>
<trkpt lat="40.0728422" lon="-105.2305752">
  <ele>1591.36</ele>
  <time>2026-08-27T18:27:16Z</time>
  <course>11.39</course>
  <speed>0.022360679774997897</speed>
  <fix>3d</fix>
</trkpt>
<trkpt lat="40.0728423" lon="-105.2305753">
  <ele>1591.38</ele>
  <time>2026-08-27T18:27:16Z</time>
  <course>203.8</course>
  <speed>0.01</speed>
  <fix>3d</fix>
</trkpt>
<trkpt lat="40.0728422" lon="-105.2305752">
  <ele>1591.27</ele>
  <time>2026-08-27T18:27:16Z</time>
  <course>11.39</course>
  <speed>0.022360679774997897</speed>
  <fix>3d</fix>
</trkpt>
<trkpt lat="40.0728423" lon="-105.2305753">
  <ele>1591.29</ele>
  <time>2026-08-27T18:27:16Z</time>
  <course>209.31</course>
  <speed>0.01</speed>
  <fix>3d</fix>
</trkpt>
<trkpt lat="40.0728422" lon="-105.2305752">
  <ele>1591.17</ele>
  <time>2026-08-27T18:27:16Z</time>
  <course>11.38</course>
  <speed>0.022360679774997897</speed>
  <fix>3d</fix>
</trkpt>
<trkpt lat="40.0728423" lon="-105.2305753">
  <ele>1591.19</ele>
  <time>2026-08-27T18:27:16Z</time>
  <course>214.49</course>
  <speed>0.01</speed>
  <fix>3d</fix>
</trkpt>
<trkpt lat="40.0728422" lon="-105.2305752">
  <ele>1591.07</ele>
  <time>2026-08-27T18:27:16Z</time>
  <course>11.4</course>
  <speed>0.022360679774997897</speed>
  <fix>3d</fix>
</trkpt>
<trkpt lat="40.0728423" lon="-105.2305753">
  <ele>1591.09</ele>
  <time>2026-08-27T18:27:16Z</time>
  <course>221.65</course>
  <speed>0.0</speed>
  <fix>3d</fix>
</trkpt>
<trkpt lat="40.0728422" lon="-105.2305752">
  <ele>1590.97</ele>
  <time>2026-08-27T18:27:16Z</time>
  <course>11.4</course>
  <speed>0.022360679774997897</speed>
  <fix>3d</fix>
</trkpt>
<trkpt lat="40.0728423" lon="-105.2305753">
  <ele>1591.0</ele>
  <time>2026-08-27T18:27:16Z</time>
  <course>230.1</course>
  <speed>0.0</speed>
  <fix>3d</fix>
</trkpt>
<trkpt lat="40.0728422" lon="-105.2305752">
  <ele>1590.87</ele>
  <time>2026-08-27T18:27:16Z</time>
  <course>11.38</course>
  <speed>0.01414213562373095</speed>
  <fix>3d</fix>
</trkpt>
<trkpt lat="40.0728422" lon="-105.2305753">
  <ele>1590.89</ele>
  <time>2026-08-27T18:27:16Z</time>
  <course>238.55</course>
  <speed>0.0</speed>
  <fix>3d</fix>
</trkpt>
<trkpt lat="40.0728422" lon="-105.2305752">
  <ele>1590.77</ele>
  <time>2026-08-27T18:27:16Z</time>
  <course>11.38</course>
  <speed>0.01414213562373095</speed>
  <fix>3d</fix>
</trkpt>
<trkpt lat="40.0728421" lon="-105.2305753">
  <ele>1590.79</ele>
  <time>2026-08-27T18:27:16Z</time>
  <course>246.86</course>
  <speed>0.0</speed>
  <fix>3d</fix>
</trkpt>
<trkpt lat="40.0728421" lon="-105.2305752">
  <ele>1590.67</ele>
  <time>2026-08-27T18:27:16Z</time>
  <course>11.39</course>
  <speed>0.01414213562373095</speed>
  <fix>3d</fix>
</trkpt>
<trkpt lat="40.0728421" lon="-105.2305753">
  <ele>1590.69</ele>
  <time>2026-08-27T18:27:16Z</time>
  <course>254.59</course>
  <speed>0.0</speed>
  <fix>3d</fix>
</trkpt>
<trkpt lat="40.0728421" lon="-105.2305752">
  <ele>1590.57</ele>
  <time>2026-08-27T18:27:16Z</time>
  <course>11.38</course>
  <speed>0.01414213562373095</speed>
  <fix>3d</fix>
</trkpt>
<trkpt lat="40.0728421" lon="-105.2305753">
  <ele>1590.59</ele>
  <time>2026-08-27T18:27:16Z</time>
  <course>263.56</course>
  <speed>0.0</speed>
  <fix>3d</fix>
</trkpt>
<trkpt lat="40.0728421" lon="-105.2305752">
  <ele>1590.47</ele>
  <time>2026-08-27T18:27:16Z</time>
  <course>11.38</course>
  <speed>0.01414213562373095</speed>
  <fix>3d</fix>
</trkpt>
<trkpt lat="40.0728421" lon="-105.2305753">
  <ele>1590.5</ele>
  <time>2026-08-27T18:27:16Z</time>
  <course>278.63</course>
  <speed>0.0</speed>
  <fix>3d</fix>
</trkpt>
<trkpt lat="40.0728421" lon="-105.2305752">
  <ele>1590.37</ele>
  <time>2026-08-27T18:27:16Z</time>
  <course>11.39</course>
  <speed>0.01414213562373095</speed>
  <fix>3d</fix>
</trkpt>
<trkpt lat="40.0728421" lon="-105.2305753">
  <ele>1590.39</ele>
  <time>2026-08-27T18:27:16Z</time>
  <course>295.4</course>
  <speed>0.0</speed>
  <fix>3d</fix>
</trkpt>
<trkpt lat="40.0728421" lon="-105.2305752">
  <ele>1590.27</ele>
  <time>2026-08-27T18:27:16Z</time>
  <course>11.39</course>
  <speed>0.01414213562373095</speed>
  <fix>3d</fix>
</trkpt>
<trkpt lat="40.0728421" lon="-105.2305754">
  <ele>1590.29</ele>
  <time>2026-08-27T18:27:16Z</time>
  <course>307.32</course>
  <speed>0.0</speed>
  <fix>3d</fix>
</trkpt>
<trkpt lat="40.0728421" lon="-105.2305752">
  <ele>1590.17</ele>
  <time>2026-08-27T18:27:16Z</time>
  <course>11.4</course>
  <speed>0.01414213562373095</speed>
  <fix>3d</fix>
</trkpt>
<trkpt lat="40.0728421" lon="-105.2305755">
  <ele>1590.19</ele>
  <time>2026-08-27T18:27:16Z</time>
  <course>315.35</course>
  <speed>0.0</speed>
  <fix>3d</fix>
</trkpt>
<trkpt lat="40.0728421" lon="-105.2305752">
  <ele>1590.07</ele>
  <time>2026-08-27T18:27:16Z</time>
  <course>11.38</course>
  <speed>0.01414213562373095</speed>
  <fix>3d</fix>
</trkpt>
<trkpt lat="40.0728421" lon="-105.2305755">
  <ele>1590.09</ele>
  <time>2026-08-27T18:27:16Z</time>
  <course>322.49</course>
  <speed>0.01</speed>
  <fix>3d</fix>
</trkpt>
<trkpt lat="40.0728421" lon="-105.2305752">
  <ele>1589.96</ele>
  <time>2026-08-27T18:27:16Z</time>
  <course>11.37</course>
  <speed>0.01414213562373095</speed>
  <fix>3d</fix>
</trkpt>
<trkpt lat="40.0728421" lon="-105.2305755">
  <ele>1589.99</ele>
  <time>2026-08-27T18:27:16Z</time>
  <course>329.87</course>
  <speed>0.01</speed>
  <fix>3d</fix>
</trkpt>
<trkpt lat="40.0728421" lon="-105.2305752">
  <ele>1589.86</ele>
  <time>2026-08-27T18:27:16Z</time>
  <course>11.37</course>
  <speed>0.01</speed>
  <fix>3d</fix>
</trkpt>
<trkpt lat="40.0728421" lon="-105.2305755">
  <ele>1589.88</ele>
  <time>2026-08-27T18:27:16Z</time>
  <course>335.92</course>
  <speed>0.01</speed>
  <fix>3d</fix>
</trkpt>
<trkpt lat="40.0728421" lon="-105.2305752">
  <ele>1589.76</ele>
  <time>2026-08-27T18:27:16Z</time>
  <course>11.39</course>
  <speed>0.01</speed>
  <fix>3d</fix>
</trkpt>
<trkpt lat="40.0728421" lon="-105.2305755">
  <ele>1589.79</ele>
  <time>2026-08-27T18:27:16Z</time>
  <course>341.56</course>
  <speed>0.01</speed>
  <fix>3d</fix>
</trkpt>
<trkpt lat="40.0728421" lon="-105.2305752">
  <ele>1589.66</ele>
  <time>2026-08-27T18:27:16Z</time>
  <course>11.36</course>
  <speed>0.01</speed>
  <fix>3d</fix>
</trkpt>
<trkpt lat="40.0728422" lon="-105.2305755">
  <ele>1589.69</ele>
  <time>2026-08-27T18:27:16Z</time>
  <course>347.09</course>
  <speed>0.01</speed>
  <fix>3d</fix>
</trkpt>
<trkpt lat="40.0728421" lon="-105.2305753">
  <ele>1589.56</ele>
  <time>2026-08-27T18:27:16Z</time>
  <course>11.37</course>
  <speed>0.01</speed>
  <fix>3d</fix>
</trkpt>
<trkpt lat="40.0728423" lon="-105.2305755">
  <ele>1589.59</ele>
  <time>2026-08-27T18:27:16Z</time>
  <course>351.97</course>
  <speed>0.01</speed>
  <fix>3d</fix>
</trkpt>
<trkpt lat="40.0728421" lon="-105.2305753">
  <ele>1589.46</ele>
  <time>2026-08-27T18:27:16Z</time>
  <course>11.37</course>
  <speed>0.02</speed>
  <fix>3d</fix>
</trkpt>
<trkpt lat="40.0728423" lon="-105.2305755">
  <ele>1589.49</ele>
  <time>2026-08-27T18:27:16Z</time>
  <course>356.52</course>
  <speed>0.01</speed>
  <fix>3d</fix>
</trkpt>
<trkpt lat="40.0728421" lon="-105.2305753">
  <ele>1589.37</ele>
  <time>2026-08-27T18:27:16Z</time>
  <course>11.37</course>
  <speed>0.02</speed>
  <fix>3d</fix>
</trkpt>
<trkpt lat="40.0728423" lon="-105.2305755">
  <ele>1589.39</ele>
  <time>2026-08-27T18:27:16Z</time>
  <course>0.17</course>
  <speed>0.01</speed>
  <fix>3d</fix>
</trkpt>
<trkpt lat="40.0728421" lon="-105.2305753">
  <ele>1589.27</ele>
  <time>2026-08-27T18:27:16Z</time>
  <course>11.38</course>
  <speed>0.022360679774997897</speed>
  <fix>3d</fix>
</trkpt>
<trkpt lat="40.0728423" lon="-105.2305755">
  <ele>1589.3</ele>
  <time>2026-08-27T18:27:16Z</time>
  <course>3.4</course>
  <speed>0.01</speed>
  <fix>3d</fix>
</trkpt>
<trkpt lat="40.0728422" lon="-105.2305753">
  <ele>1589.17</ele>
  <time>2026-08-27T18:27:16Z</time>
  <course>11.39</course>
  <speed>0.022360679774997897</speed>
  <fix>3d</fix>
</trkpt>
<trkpt lat="40.0728424" lon="-105.2305755">
  <ele>1589.2</ele>
  <time>2026-08-27T18:27:16Z</time>
  <course>6.53</course>
  <speed>0.01</speed>
  <fix>3d</fix>
</trkpt>
<trkpt lat="40.0728422" lon="-105.2305753">
  <ele>1589.07</ele>
  <time>2026-08-27T18:27:16Z</time>
  <course>11.4</course>
  <speed>0.022360679774997897</speed>
  <fix>3d</fix>
</trkpt>
<trkpt lat="40.0728424" lon="-105.2305755">
  <ele>1589.1</ele>
  <time>2026-08-27T18:27:16Z</time>
  <course>10.95</course>
  <speed>0.0</speed>
  <fix>3d</fix>
</trkpt>
<trkpt lat="40.0728422" lon="-105.2305753">
  <ele>1588.97</ele>
  <time>2026-08-27T18:27:16Z</time>
  <course>11.4</course>
  <speed>0.022360679774997897</speed>
  <fix>3d</fix>
</trkpt>
<trkpt lat="40.0728424" lon="-105.2305755">
  <ele>1589.0</ele>
  <time>2026-08-27T18:27:16Z</time>
  <course>18.64</course>
  <speed>0.0</speed>
  <fix>3d</fix>
</trkpt>
<trkpt lat="40.0728422" lon="-105.2305753">
  <ele>1588.87</ele>
  <time>2026-08-27T18:27:16Z</time>
  <course>11.4</course>
  <speed>0.022360679774997897</speed>
  <fix>3d</fix>
</trkpt>
<trkpt lat="40.0728424" lon="-105.2305755">
  <ele>1588.89</ele>
  <time>2026-08-27T18:27:16Z</time>
  <course>29.1</course>
  <speed>0.0</speed>
  <fix>3d</fix>
</trkpt>
<trkpt lat="40.0728422" lon="-105.2305753">
  <ele>1588.77</ele>
  <time>2026-08-27T18:27:16Z</time>
  <course>11.38</course>
  <speed>0.022360679774997897</speed>
  <fix>3d</fix>
</trkpt>
<trkpt lat="40.0728424" lon="-105.2305755">
  <ele>1588.8</ele>
  <time>2026-08-27T18:27:16Z</time>
  <course>46.59</course>
  <speed>0.0</speed>
  <fix>3d</fix>
</trkpt>
<trkpt lat="40.0728422" lon="-105.2305753">
  <ele>1588.67</ele>
  <time>2026-08-27T18:27:16Z</time>
  <course>11.39</course>
  <speed>0.0282842712474619</speed>
  <fix>3d</fix>
</trkpt>
<trkpt lat="40.0728424" lon="-105.2305755">
  <ele>1588.7</ele>
  <time>2026-08-27T18:27:16Z</time>
  <course>72.48</course>
  <speed>0.0</speed>
  <fix>3d</fix>
</trkpt>
<trkpt lat="40.0728422" lon="-105.2305753">
  <ele>1588.57</ele>
  <time>2026-08-27T18:27:16Z</time>
  <course>11.39</course>
  <speed>0.0282842712474619</speed>
  <fix>3d</fix>
</trkpt>
<trkpt lat="40.0728424" lon="-105.2305755">
  <ele>1588.6</ele>
  <time>2026-08-27T18:27:16Z</time>
  <course>101.68</course>
  <speed>0.0</speed>
  <fix>3d</fix>
</trkpt>
<trkpt lat="40.0728422" lon="-105.2305753">
  <ele>1588.47</ele>
  <time>2026-08-27T18:27:16Z</time>
  <course>11.38</course>
  <speed>0.0282842712474619</speed>
  <fix>3d</fix>
</trkpt>
<trkpt lat="40.0728424" lon="-105.2305755">
  <ele>1588.49</ele>
  <time>2026-08-27T18:27:16Z</time>
  <course>119.71</course>
  <speed>0.0</speed>
  <fix>3d</fix>
</trkpt>
<trkpt lat="40.0728422" lon="-105.2305753">
  <ele>1588.37</ele>
  <time>2026-08-27T18:27:16Z</time>
  <course>11.39</course>
  <speed>0.0282842712474619</speed>
  <fix>3d</fix>
</trkpt>
<trkpt lat="40.0728424" lon="-105.2305755">
  <ele>1588.38</ele>
  <time>2026-08-27T18:27:16Z</time>
  <course>129.51</course>
  <speed>0.0</speed>
  <fix>3d</fix>
</trkpt>
<trkpt lat="40.0728422" lon="-105.2305753">
  <ele>1588.27</ele>
  <time>2026-08-27T18:27:16Z</time>
  <course>11.4</course>
  <speed>0.0282842712474619</speed>
  <fix>3d</fix>
</trkpt>
<trkpt lat="40.0728424" lon="-105.2305755">
  <ele>1588.29</ele>
  <time>2026-08-27T18:27:16Z</time>
  <course>136.48</course>
  <speed>0.0</speed>
  <fix>3d</fix>
</trkpt>
<trkpt lat="40.0728422" lon="-105.2305753">
  <ele>1588.17</ele>
  <time>2026-08-27T18:27:16Z</time>
  <course>11.4</course>
  <speed>0.0282842712474619</speed>
  <fix>3d</fix>
</trkpt>
<trkpt lat="40.0728424" lon="-105.2305755">
  <ele>1588.19</ele>
  <time>2026-08-27T18:27:16Z</time>
  <course>140.66</course>
  <speed>0.0</speed>
  <fix>3d</fix>
</trkpt>
<trkpt lat="40.0728422" lon="-105.2305753">
  <ele>1588.07</ele>
  <time>2026-08-27T18:27:16Z</time>
  <course>11.39</course>
  <speed>0.0282842712474619</speed>
  <fix>3d</fix>
</trkpt>
<trkpt lat="40.0728424" lon="-105.2305755">
  <ele>1588.09</ele>
  <time>2026-08-27T18:27:16Z</time>
  <course>142.52</course>
  <speed>0.0</speed>
  <fix>3d</fix>
</trkpt>
<trkpt lat="40.0728422" lon="-105.2305753">
  <ele>1587.97</ele>
  <time>2026-08-27T18:27:16Z</time>
  <course>11.4</course>
  <speed>0.0282842712474619</speed>
  <fix>3d</fix>
</trkpt>
<trkpt lat="40.0728424" lon="-105.2305755">
  <ele>1587.99</ele>
  <time>2026-08-27T18:27:16Z</time>
  <course>144.49</course>
  <speed>0.0</speed>
  <fix>3d</fix>
</trkpt>
<trkpt lat="40.0728422" lon="-105.2305753">
  <ele>1587.87</ele>
  <time>2026-08-27T18:27:16Z</time>
  <course>11.37</course>
  <speed>0.0282842712474619</speed>
  <fix>3d</fix>
</trkpt>
<trkpt lat="40.0728424" lon="-105.2305755">
  <ele>1587.88</ele>
  <time>2026-08-27T18:27:16Z</time>
  <course>146.82</course>
  <speed>0.0</speed>
  <fix>3d</fix>
</trkpt>
<trkpt lat="40.0728422" lon="-105.2305753">
  <ele>1587.77</ele>
  <time>2026-08-27T18:27:16Z</time>
  <course>11.39</course>
  <speed>0.0282842712474619</speed>
  <fix>3d</fix>
</trkpt>
<trkpt lat="40.0728424" lon="-105.2305755">
  <ele>1587.79</ele>
  <time>2026-08-27T18:27:16Z</time>
  <course>148.76</course>
  <speed>0.0</speed>
  <fix>3d</fix>
</trkpt>
<trkpt lat="40.0728422" lon="-105.2305753">
  <ele>1587.67</ele>
  <time>2026-08-27T18:27:16Z</time>
  <course>11.39</course>
  <speed>0.0282842712474619</speed>
  <fix>3d</fix>
</trkpt>
<trkpt lat="40.0728424" lon="-105.2305755">
  <ele>1587.69</ele>
  <time>2026-08-27T18:27:16Z</time>
  <course>149.41</course>
  <speed>0.0</speed>
  <fix>3d</fix>
</trkpt>
<trkpt lat="40.0728422" lon="-105.2305753">
  <ele>1587.57</ele>
  <time>2026-08-27T18:27:16Z</time>
  <course>11.39</course>
  <speed>0.0282842712474619</speed>
  <fix>3d</fix>
</trkpt>
<trkpt lat="40.0728424" lon="-105.2305755">
  <ele>1587.59</ele>
  <time>2026-08-27T18:27:16Z</time>
  <course>147.79</course>
  <speed>0.0</speed>
  <fix>3d</fix>
</trkpt>
<trkpt lat="40.0728422" lon="-105.2305753">
  <ele>1587.47</ele>
  <time>2026-08-27T18:27:16Z</time>
  <course>11.38</course>
  <speed>0.0282842712474619</speed>
  <fix>3d</fix>
</trkpt>
<trkpt lat="40.0728424" lon="-105.2305755">
  <ele>1587.49</ele>
  <time>2026-08-27T18:27:16Z</time>
  <course>145.92</course>
  <speed>0.0</speed>
  <fix>3d</fix>
</trkpt>
<trkpt lat="40.0728422" lon="-105.2305753">
  <ele>1587.37</ele>
  <time>2026-08-27T18:27:16Z</time>
  <course>11.38</course>
  <speed>0.0282842712474619</speed>
  <fix>3d</fix>
</trkpt>
<trkpt lat="40.0728424" lon="-105.2305755">
  <ele>1587.38</ele>
  <time>2026-08-27T18:27:16Z</time>
  <course>145.37</course>
  <speed>0.0</speed>
  <fix>3d</fix>
</trkpt>
<trkpt lat="40.0728422" lon="-105.2305753">
  <ele>1587.27</ele>
  <time>2026-08-27T18:27:16Z</time>
  <course>11.4</course>
  <speed>0.0282842712474619</speed>
  <fix>3d</fix>
</trkpt>
<trkpt lat="40.0728424" lon="-105.2305754">
  <ele>1587.29</ele>
  <time>2026-08-27T18:27:16Z</time>
  <course>145.76</course>
  <speed>0.0</speed>
  <fix>3d</fix>
</trkpt>
<trkpt lat="40.0728422" lon="-105.2305753">
  <ele>1587.17</ele>
  <time>2026-08-27T18:27:16Z</time>
  <course>11.39</course>
  <speed>0.0282842712474619</speed>
  <fix>3d</fix>
</trkpt>
<trkpt lat="40.0728424" lon="-105.2305753">
  <ele>1587.19</ele>
  <time>2026-08-27T18:27:16Z</time>
  <course>144.6</course>
  <speed>0.0</speed>
  <fix>3d</fix>
</trkpt>
<trkpt lat="40.0728422" lon="-105.2305753">
  <ele>1587.07</ele>
  <time>2026-08-27T18:27:16Z</time>
  <course>11.39</course>
  <speed>0.0282842712474619</speed>
  <fix>3d</fix>
</trkpt>
<trkpt lat="40.0728424" lon="-105.2305753">
  <ele>1587.09</ele>
  <time>2026-08-27T18:27:16Z</time>
  <course>143.31</course>
  <speed>0.0</speed>
  <fix>3d</fix>
</trkpt>
<trkpt lat="40.0728422" lon="-105.2305752">
  <ele>1586.97</ele>
  <time>2026-08-27T18:27:16Z</time>
  <course>11.39</course>
  <speed>0.0282842712474619</speed>
  <fix>3d</fix>
</trkpt>
<trkpt lat="40.0728423" lon="-105.2305753">
  <ele>1586.99</ele>
  <time>2026-08-27T18:27:16Z</time>
  <course>143.92</course>
  <speed>0.0</speed>
  <fix>3d</fix>
</trkpt>
<trkpt lat="40.0728422" lon="-105.2305752">
  <ele>1586.87</ele>
  <time>2026-08-27T18:27:16Z</time>
  <course>11.39</course>
  <speed>0.0282842712474619</speed>
  <fix>3d</fix>
</trkpt>
<trkpt lat="40.0728423" lon="-105.2305753">
  <ele>1586.88</ele>
  <time>2026-08-27T18:27:16Z</time>
  <course>147.07</course>
  <speed>0.0</speed>
  <fix>3d</fix>
</trkpt>
<trkpt lat="40.0728422" lon="-105.2305752">
  <ele>1586.77</ele>
  <time>2026-08-27T18:27:16Z</time>
  <course>11.38</course>
  <speed>0.022360679774997897</speed>
  <fix>3d</fix>
</trkpt>
<trkpt lat="40.0728423" lon="-105.2305753">
  <ele>1586.79</ele>
  <time>2026-08-27T18:27:16Z</time>
  <course>153.63</course>
  <speed>0.0</speed>
  <fix>3d</fix>
</trkpt>
<trkpt lat="40.0728422" lon="-105.2305752">
  <ele>1586.66</ele>
  <time>2026-08-27T18:27:16Z</time>
  <course>11.38</course>
  <speed>0.022360679774997897</speed>
  <fix>3d</fix>
</trkpt>
<trkpt lat="40.0728423" lon="-105.2305753">
  <ele>1586.69</ele>
  <time>2026-08-27T18:27:16Z</time>
  <course>164.71</course>
  <speed>0.0</speed>
  <fix>3d</fix>
</trkpt>
<trkpt lat="40.0728422" lon="-105.2305752">
  <ele>1586.56</ele>
  <time>2026-08-27T18:27:16Z</time>
  <course>11.37</course>
  <speed>0.022360679774997897</speed>
  <fix>3d</fix>
</trkpt>
<trkpt lat="40.0728423" lon="-105.2305753">
  <ele>1586.59</ele>
  <time>2026-08-27T18:27:16Z</time>
  <course>177.41</course>
  <speed>0.0</speed>
  <fix>3d</fix>
</trkpt>
<trkpt lat="40.0728422" lon="-105.2305752">
  <ele>1586.46</ele>
  <time>2026-08-27T18:27:16Z</time>
  <course>11.38</course>
  <speed>0.01414213562373095</speed>
  <fix>3d</fix>
</trkpt>
<trkpt lat="40.0728423" lon="-105.2305753">
  <ele>1586.49</ele>
  <time>2026-08-27T18:27:16Z</time>
  <course>191.03</course>
  <speed>0.0</speed>
  <fix>3d</fix>
</trkpt>
<trkpt lat="40.0728422" lon="-105.2305752">
  <ele>1586.36</ele>
  <time>2026-08-27T18:27:16Z</time>
  <course>11.36</course>
  <speed>0.01414213562373095</speed>
  <fix>3d</fix>
</trkpt>
<trkpt lat="40.0728423" lon="-105.2305753">
  <ele>1586.38</ele>
  <time>2026-08-27T18:27:16Z</time>
  <course>205.12</course>
  <speed>0.0</speed>
  <fix>3d</fix>
</trkpt>
<trkpt lat="40.0728422" lon="-105.2305752">
  <ele>1586.26</ele>
  <time>2026-08-27T18:27:16Z</time>
  <course>11.37</course>
  <speed>0.01414213562373095</speed>
  <fix>3d</fix>
</trkpt>
<trkpt lat="40.0728423" lon="-105.2305753">
  <ele>1586.29</ele>
  <time>2026-08-27T18:27:16Z</time>
  <course>221.33</course>
  <speed>0.0</speed>
  <fix>3d</fix>
</trkpt>
<trkpt lat="40.0728422" lon="-105.2305752">
  <ele>1586.16</ele>
  <time>2026-08-27T18:27:16Z</time>
  <course>11.38</course>
  <speed>0.01414213562373095</speed>
  <fix>3d</fix>
</trkpt>
<trkpt lat="40.0728423" lon="-105.2305753">
  <ele>1586.19</ele>
  <time>2026-08-27T18:27:16Z</time>
  <course>235.52</course>
  <speed>0.0</speed>
  <fix>3d</fix>
</trkpt>
<trkpt lat="40.0728422" lon="-105.2305752">
  <ele>1586.14</ele>
  <time>2026-08-27T18:27:16Z</time>
  <course>11.39</course>
  <speed>0.01</speed>
  <fix>3d</fix>
</trkpt>
<trkpt lat="40.0728423" lon="-105.2305753">
  <ele>1586.1</ele>
  <time>2026-08-27T18:27:16Z</time>
  <course>274.23</course>
  <speed>0.01</speed>
  <fix>3d</fix>
</trkpt>
<trkpt lat="40.0728422" lon="-105.2305752">
  <ele>1586.17</ele>
  <time>2026-08-27T18:27:16Z</time>
  <course>11.44</course>
  <speed>0.022360679774997897</speed>
  <fix>3d</fix>
</trkpt>
<trkpt lat="40.0728423" lon="-105.2305753">
  <ele>1586.08</ele>
  <time>2026-08-27T18:27:16Z</time>
  <course>286.89</course>
  <speed>0.01</speed>
  <fix>3d</fix>
</trkpt>
<trkpt lat="40.0728422" lon="-105.2305752">
  <ele>1586.16</ele>
  <time>2026-08-27T18:27:16Z</time>
  <course>11.49</course>
  <speed>0.022360679774997897</speed>
  <fix>3d</fix>
</trkpt>
<trkpt lat="40.0728423" lon="-105.2305753">
  <ele>1586.09</ele>
  <time>2026-08-27T18:27:16Z</time>
  <course>38.47</course>
  <speed>0.0</speed>
  <fix>3d</fix>
</trkpt>
<trkpt lat="40.0728422" lon="-105.2305752">
  <ele>1586.16</ele>
  <time>2026-08-27T18:27:16Z</time>
  <course>11.52</course>
  <speed>0.01414213562373095</speed>
  <fix>3d</fix>
</trkpt>
<trkpt lat="40.0728423" lon="-105.2305753">
  <ele>1586.09</ele>
  <time>2026-08-27T18:27:16Z</time>
  <course>98.5</course>
  <speed>0.0</speed>
  <fix>3d</fix>
</trkpt>
<trkpt lat="40.0728422" lon="-105.2305752">
  <ele>1586.16</ele>
  <time>2026-08-27T18:27:16Z</time>
  <course>11.56</course>
  <speed>0.01414213562373095</speed>
  <fix>3d</fix>
</trkpt>
<trkpt lat="40.0728423" lon="-105.2305753">
  <ele>1586.09</ele>
  <time>2026-08-27T18:27:16Z</time>
  <course>303.35</course>
  <speed>0.0</speed>
  <fix>3d</fix>
</trkpt>
<trkpt lat="40.0728422" lon="-105.2305752">
  <ele>1586.17</ele>
  <time>2026-08-27T18:27:16Z</time>
  <course>11.59</course>
  <speed>0.01414213562373095</speed>
  <fix>3d</fix>
</trkpt>
<trkpt lat="40.0728423" lon="-105.2305753">
  <ele>1586.09</ele>
  <time>2026-08-27T18:27:16Z</time>
  <course>341.72</course>
  <speed>0.0</speed>
  <fix>3d</fix>
</trkpt>
<trkpt lat="40.0728422" lon="-105.2305752">
  <ele>1586.17</ele>
  <time>2026-08-27T18:27:16Z</time>
  <course>11.61</course>
  <speed>0.01414213562373095</speed>
  <fix>3d</fix>
</trkpt>
<trkpt lat="40.0728423" lon="-105.2305753">
  <ele>1586.09</ele>
  <time>2026-08-27T18:27:16Z</time>
  <course>28.41</course>
  <speed>0.0</speed>
  <fix>3d</fix>
</trkpt>
<trkpt lat="40.0728422" lon="-105.2305752">
  <ele>1586.17</ele>
  <time>2026-08-27T18:27:16Z</time>
  <course>11.64</course>
  <speed>0.01414213562373095</speed>
  <fix>3d</fix>
</trkpt>
<trkpt lat="40.0728423" lon="-105.2305753">
  <ele>1586.09</ele>
  <time>2026-08-27T18:27:16Z</time>
  <course>352.32</course>
  <speed>0.0</speed>
  <fix>3d</fix>
</trkpt>
<trkpt lat="40.0728422" lon="-105.2305752">
  <ele>1586.17</ele>
  <time>2026-08-27T18:27:16Z</time>
  <course>11.66</course>
  <speed>0.01414213562373095</speed>
  <fix>3d</fix>
</trkpt>
<trkpt lat="40.0728423" lon="-105.2305753">
  <ele>1586.09</ele>
  <time>2026-08-27T18:27:16Z</time>
  <course>328.86</course>
  <speed>0.0</speed>
  <fix>3d</fix>
</trkpt>
<trkpt lat="40.0728422" lon="-105.2305752">
  <ele>1586.17</ele>
  <time>2026-08-27T18:27:16Z</time>
  <course>11.69</course>
  <speed>0.01414213562373095</speed>
  <fix>3d</fix>
</trkpt>
<trkpt lat="40.0728423" lon="-105.2305753">
  <ele>1586.09</ele>
  <time>2026-08-27T18:27:16Z</time>
  <course>31.18</course>
  <speed>0.0</speed>
  <fix>3d</fix>
</trkpt>
<trkpt lat="40.0728422" lon="-105.2305752">
  <ele>1586.17</ele>
  <time>2026-08-27T18:27:16Z</time>
  <course>11.7</course>
  <speed>0.03605551275463989</speed>
  <fix>3d</fix>
</trkpt>
<trkpt lat="40.0728423" lon="-105.2305753">
  <ele>1586.09</ele>
  <time>2026-08-27T18:27:16Z</time>
  <course>98.21</course>
  <speed>0.0</speed>
  <fix>3d</fix>
</trkpt>
<trkpt lat="40.0728422" lon="-105.2305751">
  <ele>1586.17</ele>
  <time>2026-08-27T18:27:16Z</time>
  <course>11.68</course>
  <speed>0.0282842712474619</speed>
  <fix>3d</fix>
</trkpt>
<trkpt lat="40.0728423" lon="-105.2305753">
  <ele>1586.09</ele>
  <time>2026-08-27T18:27:16Z</time>
  <course>103.76</course>
  <speed>0.01</speed>
  <fix>3d</fix>
</trkpt>
<trkpt lat="40.0728422" lon="-105.2305751">
  <ele>1586.18</ele>
  <time>2026-08-27T18:27:16Z</time>
  <course>11.66</course>
  <speed>0.01414213562373095</speed>
  <fix>3d</fix>
</trkpt>
<trkpt lat="40.0728423" lon="-105.2305753">
  <ele>1586.09</ele>
  <time>2026-08-27T18:27:16Z</time>
  <course>109.97</course>
  <speed>0.0</speed>
  <fix>3d</fix>
</trkpt>
<trkpt lat="40.0728422" lon="-105.2305751">
  <ele>1586.18</ele>
  <time>2026-08-27T18:27:16Z</time>
  <course>11.65</course>
  <speed>0.01414213562373095</speed>
  <fix>3d</fix>
</trkpt>
<trkpt lat="40.0728423" lon="-105.2305753">
  <ele>1586.09</ele>
  <time>2026-08-27T18:27:16Z</time>
  <course>222.64</course>
  <speed>0.0</speed>
  <fix>3d</fix>
</trkpt>
<trkpt lat="40.0728422" lon="-105.2305751">
  <ele>1586.18</ele>
  <time>2026-08-27T18:27:16Z</time>
  <course>11.64</course>
  <speed>0.01414213562373095</speed>
  <fix>3d</fix>
</trkpt>
<trkpt lat="40.0728423" lon="-105.2305753">
  <ele>1586.09</ele>
  <time>2026-08-27T18:27:16Z</time>
  <course>256.4</course>
  <speed>0.0</speed>
  <fix>3d</fix>
</trkpt>
<trkpt lat="40.0728422" lon="-105.2305751">
  <ele>1586.18</ele>
  <time>2026-08-27T18:27:16Z</time>
  <course>11.64</course>
  <speed>0.01414213562373095</speed>
  <fix>3d</fix>
</trkpt>
<trkpt lat="40.0728423" lon="-105.2305753">
  <ele>1586.09</ele>
  <time>2026-08-27T18:27:16Z</time>
  <course>236.25</course>
  <speed>0.0</speed>
  <fix>3d</fix>
</trkpt>
<trkpt lat="40.0728422" lon="-105.2305751">
  <ele>1586.18</ele>
  <time>2026-08-27T18:27:16Z</time>
  <course>11.64</course>
  <speed>0.01414213562373095</speed>
  <fix>3d</fix>
</trkpt>
<trkpt lat="40.0728423" lon="-105.2305753">
  <ele>1586.09</ele>
  <time>2026-08-27T18:27:16Z</time>
  <course>236.69</course>
  <speed>0.0</speed>
  <fix>3d</fix>
</trkpt>
<trkpt lat="40.0728422" lon="-105.2305751">
  <ele>1586.18</ele>
  <time>2026-08-27T18:27:16Z</time>
  <course>11.64</course>
  <speed>0.01414213562373095</speed>
  <fix>3d</fix>
</trkpt>
<trkpt lat="40.0728423" lon="-105.2305753">
  <ele>1586.09</ele>
  <time>2026-08-27T18:27:16Z</time>
  <course>239.72</course>
  <speed>0.0</speed>
  <fix>3d</fix>
</trkpt>
<trkpt lat="40.0728422" lon="-105.2305752">
  <ele>1586.18</ele>
  <time>2026-08-27T18:27:16Z</time>
  <course>11.63</course>
  <speed>0.022360679774997897</speed>
  <fix>3d</fix>
</trkpt>
<trkpt lat="40.0728423" lon="-105.2305753">
  <ele>1586.09</ele>
  <time>2026-08-27T18:27:16Z</time>
  <course>248.75</course>
  <speed>0.0</speed>
  <fix>3d</fix>
</trkpt>
<trkpt lat="40.0728422" lon="-105.2305752">
  <ele>1586.18</ele>
  <time>2026-08-27T18:27:16Z</time>
  <course>11.63</course>
  <speed>0.022360679774997897</speed>
  <fix>3d</fix>
</trkpt>
<trkpt lat="40.0728423" lon="-105.2305753">
  <ele>1586.09</ele>
  <time>2026-08-27T18:27:16Z</time>
  <course>341.31</course>
  <speed>0.0</speed>
  <fix>3d</fix>
</trkpt>
<trkpt lat="40.0728422" lon="-105.2305752">
  <ele>1586.18</ele>
  <time>2026-08-27T18:27:16Z</time>
  <course>11.63</course>
  <speed>0.022360679774997897</speed>
  <fix>3d</fix>
</trkpt>
<trkpt lat="40.0728423" lon="-105.2305753">
  <ele>1586.09</ele>
  <time>2026-08-27T18:27:16Z</time>
  <course>313.42</course>
  <speed>0.0</speed>
  <fix>3d</fix>
</trkpt>
<trkpt lat="40.0728422" lon="-105.2305752">
  <ele>1586.18</ele>
  <time>2026-08-27T18:27:16Z</time>
  <course>11.63</course>
  <speed>0.022360679774997897</speed>
  <fix>3d</fix>
</trkpt>
<trkpt lat="40.0728423" lon="-105.2305753">
  <ele>1586.09</ele>
  <time>2026-08-27T18:27:16Z</time>
  <course>284.05</course>
  <speed>0.0</speed>
  <fix>3d</fix>
</trkpt>
<trkpt lat="40.0728422" lon="-105.2305752">
  <ele>1586.18</ele>
  <time>2026-08-27T18:27:16Z</time>
  <course>11.63</course>
  <speed>0.022360679774997897</speed>
  <fix>3d</fix>
</trkpt>
<trkpt lat="40.0728423" lon="-105.2305753">
  <ele>1586.09</ele>
  <time>2026-08-27T18:27:16Z</time>
  <course>278.27</course>
  <speed>0.0</speed>
  <fix>3d</fix>
</trkpt>
<trkpt lat="40.0728422" lon="-105.2305752">
  <ele>1586.18</ele>
  <time>2026-08-27T18:27:16Z</time>
  <course>11.62</course>
  <speed>0.022360679774997897</speed>
  <fix>3d</fix>
</trkpt>
<trkpt lat="40.0728423" lon="-105.2305753">
  <ele>1586.09</ele>
  <time>2026-08-27T18:27:16Z</time>
  <course>285.82</course>
  <speed>0.0</speed>
  <fix>3d</fix>
</trkpt>
<trkpt lat="40.0728422" lon="-105.2305752">
  <ele>1586.18</ele>
  <time>2026-08-27T18:27:16Z</time>
  <course>11.62</course>
  <speed>0.022360679774997897</speed>
  <fix>3d</fix>
</trkpt>
<trkpt lat="40.0728423" lon="-105.2305753">
  <ele>1586.09</ele>
  <time>2026-08-27T18:27:16Z</time>
  <course>286.29</course>
  <speed>0.0</speed>
  <fix>3d</fix>
</trkpt>
<trkpt lat="40.0728422" lon="-105.2305752">
  <ele>1586.18</ele>
  <time>2026-08-27T18:27:16Z</time>
  <course>11.62</course>
  <speed>0.022360679774997897</speed>
  <fix>3d</fix>
</trkpt>
<trkpt lat="40.0728423" lon="-105.2305753">
  <ele>1586.09</ele>
  <time>2026-08-27T18:27:16Z</time>
  <course>285.71</course>
  <speed>0.0</speed>
  <fix>3d</fix>
</trkpt>
<trkpt lat="40.0728422" lon="-105.2305752">
  <ele>1586.18</ele>
  <time>2026-08-27T18:27:16Z</time>
  <course>11.62</course>
  <speed>0.022360679774997897</speed>
  <fix>3d</fix>
</trkpt>
<trkpt lat="40.0728423" lon="-105.2305753">
  <ele>1586.09</ele>
  <time>2026-08-27T18:27:16Z</time>
  <course>286.36</course>
  <speed>0.0</speed>
  <fix>3d</fix>
</trkpt>
<trkpt lat="40.0728422" lon="-105.2305752">
  <ele>1586.18</ele>
  <time>2026-08-27T18:27:16Z</time>
  <course>11.62</course>
  <speed>0.022360679774997897</speed>
  <fix>3d</fix>
</trkpt>
<trkpt lat="40.0728423" lon="-105.2305753">
  <ele>1586.09</ele>
  <time>2026-08-27T18:27:16Z</time>
  <course>287.01</course>
  <speed>0.0</speed>
  <fix>3d</fix>
</trkpt>
<trkpt lat="40.0728422" lon="-105.2305752">
  <ele>1586.18</ele>
  <time>2026-08-27T18:27:16Z</time>
  <course>11.62</course>
  <speed>0.022360679774997897</speed>
  <fix>3d</fix>
</trkpt>
<trkpt lat="40.0728423" lon="-105.2305753">
  <ele>1586.09</ele>
  <time>2026-08-27T18:27:16Z</time>
  <course>287.46</course>
  <speed>0.0</speed>
  <fix>3d</fix>
</trkpt>
<trkpt lat="40.0728422" lon="-105.2305752">
  <ele>1586.18</ele>
  <time>2026-08-27T18:27:16Z</time>
  <course>11.62</course>
  <speed>0.022360679774997897</speed>
  <fix>3d</fix>
</trkpt>
<trkpt lat="40.0728423" lon="-105.2305753">
  <ele>1586.09</ele>
  <time>2026-08-27T18:27:16Z</time>
  <course>287.93</course>
  <speed>0.0</speed>
  <fix>3d</fix>
</trkpt>
<trkpt lat="40.0728422" lon="-105.2305752">
  <ele>1586.18</ele>
  <time>2026-08-27T18:27:16Z</time>
  <course>11.61</course>
  <speed>0.022360679774997897</speed>
  <fix>3d</fix>
</trkpt>
<trkpt lat="40.0728423" lon="-105.2305753">
  <ele>1586.09</ele>
  <time>2026-08-27T18:27:16Z</time>
  <course>288.41</course>
  <speed>0.0</speed>
  <fix>3d</fix>
</trkpt>
<trkpt lat="40.0728422" lon="-105.2305752">
  <ele>1586.19</ele>
  <time>2026-08-27T18:27:16Z</time>
  <course>11.61</course>
  <speed>0.022360679774997897</speed>
  <fix>3d</fix>
</trkpt>
<trkpt lat="40.0728423" lon="-105.2305753">
  <ele>1586.09</ele>
  <time>2026-08-27T18:27:16Z</time>
  <course>288.87</course>
  <speed>0.0</speed>
  <fix>3d</fix>
</trkpt>
<trkpt lat="40.0728422" lon="-105.2305752">
  <ele>1586.19</ele>
  <time>2026-08-27T18:27:16Z</time>
  <course>11.61</course>
  <speed>0.022360679774997897</speed>
  <fix>3d</fix>
</trkpt>
<trkpt lat="40.0728423" lon="-105.2305753">
  <ele>1586.09</ele>
  <time>2026-08-27T18:27:16Z</time>
  <course>289.32</course>
  <speed>0.0</speed>
  <fix>3d</fix>
</trkpt>
<trkpt lat="40.0728422" lon="-105.2305752">
  <ele>1586.18</ele>
  <time>2026-08-27T18:27:16Z</time>
  <course>11.61</course>
  <speed>0.022360679774997897</speed>
  <fix>3d</fix>
</trkpt>
<trkpt lat="40.0728423" lon="-105.2305753">
  <ele>1586.09</ele>
  <time>2026-08-27T18:27:16Z</time>
  <course>289.75</course>
  <speed>0.0</speed>
  <fix>3d</fix>
</trkpt>
<trkpt lat="40.0728422" lon="-105.2305752">
  <ele>1586.18</ele>
  <time>2026-08-27T18:27:16Z</time>
  <course>11.61</course>
  <speed>0.022360679774997897</speed>
  <fix>3d</fix>
</trkpt>
<trkpt lat="40.0728423" lon="-105.2305753">
  <ele>1586.09</ele>
  <time>2026-08-27T18:27:16Z</time>
  <course>290.16</course>
  <speed>0.0</speed>
  <fix>3d</fix>
</trkpt>
<trkpt lat="40.0728422" lon="-105.2305752">
  <ele>1586.18</ele>
  <time>2026-08-27T18:27:16Z</time>
  <course>11.61</course>
  <speed>0.022360679774997897</speed>
  <fix>3d</fix>
</trkpt>
<trkpt lat="40.0728423" lon="-105.2305753">
  <ele>1586.09</ele>
  <time>2026-08-27T18:27:16Z</time>
  <course>290.55</course>
  <speed>0.0</speed>
  <fix>3d</fix>
</trkpt>
<trkpt lat="40.0728422" lon="-105.2305752">
  <ele>1586.18</ele>
  <time>2026-08-27T18:27:16Z</time>
  <course>11.61</course>
  <speed>0.022360679774997897</speed>
  <fix>3d</fix>
</trkpt>
<trkpt lat="40.0728423" lon="-105.2305753">
  <ele>1586.09</ele>
  <time>2026-08-27T18:27:16Z</time>
  <course>290.92</course>
  <speed>0.0</speed>
  <fix>3d</fix>
</trkpt>
<trkpt lat="40.0728422" lon="-105.2305752">
  <ele>1586.18</ele>
  <time>2026-08-27T18:27:16Z</time>
  <course>11.61</course>
  <speed>0.022360679774997897</speed>
  <fix>3d</fix>
</trkpt>
<trkpt lat="40.0728423" lon="-105.2305753">
  <ele>1586.09</ele>
  <time>2026-08-27T18:27:16Z</time>
  <course>291.27</course>
  <speed>0.0</speed>
  <fix>3d</fix>
</trkpt>
<trkpt lat="40.0728422" lon="-105.2305752">
  <ele>1586.18</ele>
  <time>2026-08-27T18:27:16Z</time>
  <course>11.6</course>
  <speed>0.022360679774997897</speed>
  <fix>3d</fix>
</trkpt>
<trkpt lat="40.0728423" lon="-105.2305753">
  <ele>1586.09</ele>
  <time>2026-08-27T18:27:16Z</time>
  <course>291.61</course>
  <speed>0.0</speed>
  <fix>3d</fix>
</trkpt>
<trkpt lat="40.0728422" lon="-105.2305752">
  <ele>1586.18</ele>
  <time>2026-08-27T18:27:16Z</time>
  <course>11.6</course>
  <speed>0.022360679774997897</speed>
  <fix>3d</fix>
</trkpt>
<trkpt lat="40.0728423" lon="-105.2305753">
  <ele>1586.09</ele>
  <time>2026-08-27T18:27:16Z</time>
  <course>291.92</course>
  <speed>0.0</speed>
  <fix>3d</fix>
</trkpt>
<trkpt lat="40.0728422" lon="-105.2305752">
  <ele>1586.18</ele>
  <time>2026-08-27T18:27:16Z</time>
  <course>11.6</course>
  <speed>0.022360679774997897</speed>
  <fix>3d</fix>
</trkpt>
<trkpt lat="40.0728423" lon="-105.2305753">
  <ele>1586.09</ele>
  <time>2026-08-27T18:27:16Z</time>
  <course>292.22</course>
  <speed>0.0</speed>
  <fix>3d</fix>
</trkpt>
<trkpt lat="40.0728422" lon="-105.2305752">
  <ele>1586.18</ele>
  <time>2026-08-27T18:27:16Z</time>
  <course>11.6</course>
  <speed>0.022360679774997897</speed>
  <fix>3d</fix>
</trkpt>
<trkpt lat="40.0728423" lon="-105.2305753">
  <ele>1586.09</ele>
  <time>2026-08-27T18:27:16Z</time>
  <course>292.49</course>
  <speed>0.0</speed>
  <fix>3d</fix>
</trkpt>
<trkpt lat="40.0728422" lon="-105.2305752">
  <ele>1586.18</ele>
  <time>2026-08-27T18:27:16Z</time>
  <course>11.6</course>
  <speed>0.022360679774997897</speed>
  <fix>3d</fix>
</trkpt>
<trkpt lat="40.0728423" lon="-105.2305753">
  <ele>1586.09</ele>
  <time>2026-08-27T18:27:16Z</time>
  <course>259.69</course>
  <speed>0.0</speed>
  <fix>3d</fix>
</trkpt>
<trkpt lat="40.0728422" lon="-105.2305752">
  <ele>1586.18</ele>
  <time>2026-08-27T18:27:16Z</time>
  <course>11.6</course>
  <speed>0.022360679774997897</speed>
  <fix>3d</fix>
</trkpt>
<trkpt lat="40.0728423" lon="-105.2305753">
  <ele>1586.09</ele>
  <time>2026-08-27T18:27:16Z</time>
  <course>185.97</course>
  <speed>0.0</speed>
  <fix>3d</fix>
</trkpt>
<trkpt lat="40.0728422" lon="-105.2305752">
  <ele>1586.18</ele>
  <time>2026-08-27T18:27:16Z</time>
  <course>11.6</course>
  <speed>0.022360679774997897</speed>
  <fix>3d</fix>
</trkpt>
<trkpt lat="40.0728423" lon="-105.2305753">
  <ele>1586.09</ele>
  <time>2026-08-27T18:27:16Z</time>
  <course>277.0</course>
  <speed>0.0</speed>
  <fix>3d</fix>
</trkpt>
<trkpt lat="40.0728422" lon="-105.2305752">
  <ele>1586.18</ele>
  <time>2026-08-27T18:27:16Z</time>
  <course>11.59</course>
  <speed>0.022360679774997897</speed>
  <fix>3d</fix>
</trkpt>
<trkpt lat="40.0728423" lon="-105.2305753">
  <ele>1586.09</ele>
  <time>2026-08-27T18:27:16Z</time>
  <course>279.54</course>
  <speed>0.0</speed>
  <fix>3d</fix>
</trkpt>
<trkpt lat="40.0728422" lon="-105.2305752">
  <ele>1586.19</ele>
  <time>2026-08-27T18:27:16Z</time>
  <course>11.59</course>
  <speed>0.022360679774997897</speed>
  <fix>3d</fix>
</trkpt>
<trkpt lat="40.0728423" lon="-105.2305753">
  <ele>1586.09</ele>
  <time>2026-08-27T18:27:16Z</time>
  <course>296.04</course>
  <speed>0.0</speed>
  <fix>3d</fix>
</trkpt>
<trkpt lat="40.0728422" lon="-105.2305752">
  <ele>1586.19</ele>
  <time>2026-08-27T18:27:16Z</time>
  <course>11.59</course>
  <speed>0.022360679774997897</speed>
  <fix>3d</fix>
</trkpt>
<trkpt lat="40.0728423" lon="-105.2305753">
  <ele>1586.09</ele>
  <time>2026-08-27T18:27:16Z</time>
  <course>219.97</course>
  <speed>0.0</speed>
  <fix>3d</fix>
</trkpt>
<trkpt lat="40.0728422" lon="-105.2305752">
  <ele>1586.19</ele>
  <time>2026-08-27T18:27:16Z</time>
  <course>11.59</course>
  <speed>0.022360679774997897</speed>
  <fix>3d</fix>
</trkpt>
<trkpt lat="40.0728423" lon="-105.2305753">
  <ele>1586.09</ele>
  <time>2026-08-27T18:27:16Z</time>
  <course>173.31</course>
  <speed>0.0</speed>
  <fix>3d</fix>
</trkpt>
<trkpt lat="40.0728422" lon="-105.2305752">
  <ele>1586.19</ele>
  <time>2026-08-27T18:27:16Z</time>
  <course>11.59</course>
  <speed>0.022360679774997897</speed>
  <fix>3d</fix>
</trkpt>
<trkpt lat="40.0728423" lon="-105.2305753">
  <ele>1586.09</ele>
  <time>2026-08-27T18:27:16Z</time>
  <course>146.57</course>
  <speed>0.0</speed>
  <fix>3d</fix>
</trkpt>
<trkpt lat="40.0728422" lon="-105.2305752">
  <ele>1586.19</ele>
  <time>2026-08-27T18:27:16Z</time>
  <course>11.59</course>
  <speed>0.022360679774997897</speed>
  <fix>3d</fix>
</trkpt>
<trkpt lat="40.0728423" lon="-105.2305753">
  <ele>1586.09</ele>
  <time>2026-08-27T18:27:16Z</time>
  <course>341.83</course>
  <speed>0.0</speed>
  <fix>3d</fix>
</trkpt>
<trkpt lat="40.0728422" lon="-105.2305752">
  <ele>1586.19</ele>
  <time>2026-08-27T18:27:16Z</time>
  <course>11.59</course>
  <speed>0.022360679774997897</speed>
  <fix>3d</fix>
</trkpt>
<trkpt lat="40.0728423" lon="-105.2305753">
  <ele>1586.09</ele>
  <time>2026-08-27T18:27:16Z</time>
  <course>299.36</course>
  <speed>0.0</speed>
  <fix>3d</fix>
</trkpt>
<trkpt lat="40.0728422" lon="-105.2305752">
  <ele>1586.19</ele>
  <time>2026-08-27T18:27:16Z</time>
  <course>11.58</course>
  <speed>0.022360679774997897</speed>
  <fix>3d</fix>
</trkpt>
<trkpt lat="40.0728423" lon="-105.2305753">
  <ele>1586.09</ele>
  <time>2026-08-27T18:27:16Z</time>
  <course>265.66</course>
  <speed>0.0</speed>
  <fix>3d</fix>
</trkpt>
<trkpt lat="40.0728422" lon="-105.2305752">
  <ele>1586.19</ele>
  <time>2026-08-27T18:27:16Z</time>
  <course>11.58</course>
  <speed>0.022360679774997897</speed>
  <fix>3d</fix>
</trkpt>
<trkpt lat="40.0728423" lon="-105.2305753">
  <ele>1586.09</ele>
  <time>2026-08-27T18:27:16Z</time>
  <course>276.69</course>
  <speed>0.0</speed>
  <fix>3d</fix>
</trkpt>
<trkpt lat="40.0728422" lon="-105.2305752">
  <ele>1586.19</ele>
  <time>2026-08-27T18:27:16Z</time>
  <course>11.58</course>
  <speed>0.022360679774997897</speed>
  <fix>3d</fix>
</trkpt>
<trkpt lat="40.0728423" lon="-105.2305753">
  <ele>1586.09</ele>
  <time>2026-08-27T18:27:16Z</time>
  <course>279.94</course>
  <speed>0.0</speed>
  <fix>3d</fix>
</trkpt>
<trkpt lat="40.0728422" lon="-105.2305752">
  <ele>1586.19</ele>
  <time>2026-08-27T18:27:16Z</time>
  <course>11.58</course>
  <speed>0.022360679774997897</speed>
  <fix>3d</fix>
</trkpt>
<trkpt lat="40.0728423" lon="-105.2305753">
  <ele>1586.09</ele>
  <time>2026-08-27T18:27:16Z</time>
  <course>278.95</course>
  <speed>0.0</speed>
  <fix>3d</fix>
</trkpt>
<trkpt lat="40.0728422" lon="-105.2305752">
  <ele>1586.19</ele>
  <time>2026-08-27T18:27:16Z</time>
  <course>11.58</course>
  <speed>0.022360679774997897</speed>
  <fix>3d</fix>
</trkpt>
<trkpt lat="40.0728423" lon="-105.2305753">
  <ele>1586.09</ele>
  <time>2026-08-27T18:27:16Z</time>
  <course>276.0</course>
  <speed>0.0</speed>
  <fix>3d</fix>
</trkpt>
<trkpt lat="40.0728422" lon="-105.2305752">
  <ele>1586.19</ele>
  <time>2026-08-27T18:27:16Z</time>
  <course>11.58</course>
  <speed>0.022360679774997897</speed>
  <fix>3d</fix>
</trkpt>
<trkpt lat="40.0728423" lon="-105.2305753">
  <ele>1586.09</ele>
  <time>2026-08-27T18:27:16Z</time>
  <course>276.01</course>
  <speed>0.0</speed>
  <fix>3d</fix>
</trkpt>
<trkpt lat="40.0728422" lon="-105.2305752">
  <ele>1586.19</ele>
  <time>2026-08-27T18:27:16Z</time>
  <course>11.57</course>
  <speed>0.022360679774997897</speed>
  <fix>3d</fix>
</trkpt>
<trkpt lat="40.0728423" lon="-105.2305753">
  <ele>1586.09</ele>
  <time>2026-08-27T18:27:16Z</time>
  <course>277.01</course>
  <speed>0.0</speed>
  <fix>3d</fix>
</trkpt>
<trkpt lat="40.0728422" lon="-105.2305752">
  <ele>1586.19</ele>
  <time>2026-08-27T18:27:16Z</time>
  <course>11.57</course>
  <speed>0.022360679774997897</speed>
  <fix>3d</fix>
</trkpt>
<trkpt lat="40.0728423" lon="-105.2305753">
  <ele>1586.09</ele>
  <time>2026-08-27T18:27:16Z</time>
  <course>276.93</course>
  <speed>0.0</speed>
  <fix>3d</fix>
</trkpt>
<trkpt lat="40.0728422" lon="-105.2305752">
  <ele>1586.19</ele>
  <time>2026-08-27T18:27:16Z</time>
  <course>11.64</course>
  <speed>0.022360679774997897</speed>
  <fix>3d</fix>
</trkpt>
<trkpt lat="40.0728423" lon="-105.2305753">
  <ele>1586.09</ele>
  <time>2026-08-27T18:27:16Z</time>
  <course>338.98</course>
  <speed>0.0</speed>
  <fix>3d</fix>
</trkpt>
<trkpt lat="40.0728422" lon="-105.2305752">
  <ele>1586.19</ele>
  <time>2026-08-27T18:27:16Z</time>
  <course>11.75</course>
  <speed>0.022360679774997897</speed>
  <fix>3d</fix>
</trkpt>
<trkpt lat="40.0728423" lon="-105.2305753">
  <ele>1586.09</ele>
  <time>2026-08-27T18:27:16Z</time>
  <course>328.03</course>
  <speed>0.0</speed>
  <fix>3d</fix>
</trkpt>
<trkpt lat="40.0728422" lon="-105.2305752">
  <ele>1586.19</ele>
  <time>2026-08-27T18:27:16Z</time>
  <course>11.86</course>
  <speed>0.022360679774997897</speed>
  <fix>3d</fix>
</trkpt>
<trkpt lat="40.0728423" lon="-105.2305753">
  <ele>1586.09</ele>
  <time>2026-08-27T18:27:16Z</time>
  <course>314.72</course>
  <speed>0.0</speed>
  <fix>3d</fix>
</trkpt>
<trkpt lat="40.0728422" lon="-105.2305752">
  <ele>1586.19</ele>
  <time>2026-08-27T18:27:17Z</time>
  <course>11.96</course>
  <speed>0.022360679774997897</speed>
  <fix>3d</fix>
</trkpt>
<trkpt lat="40.0728423" lon="-105.2305753">
  <ele>1586.09</ele>
  <time>2026-08-27T18:27:17Z</time>
  <course>181.25</course>
  <speed>0.0</speed>
  <fix>3d</fix>
</trkpt>
<trkpt lat="40.0728422" lon="-105.2305752">
  <ele>1586.19</ele>
  <time>2026-08-27T18:27:17Z</time>
  <course>12.06</course>
  <speed>0.022360679774997897</speed>
  <fix>3d</fix>
</trkpt>
<trkpt lat="40.0728423" lon="-105.2305753">
  <ele>1586.09</ele>
  <time>2026-08-27T18:27:17Z</time>
  <course>262.18</course>
  <speed>0.0</speed>
  <fix>3d</fix>
</trkpt>
<trkpt lat="40.0728422" lon="-105.2305752">
  <ele>1586.19</ele>
  <time>2026-08-27T18:27:17Z</time>
  <course>12.16</course>
  <speed>0.022360679774997897</speed>
  <fix>3d</fix>
</trkpt>
<trkpt lat="39.6562421" lon="-104.1365913">
  <ele>1569.6</ele>
  <time>2026-08-27T18:27:17Z</time>
  <course>271.25</course>
  <speed>0.0</speed>
  <fix>3d</fix>
</trkpt>
<trkpt lat="40.072842" lon="-105.2305751">
  <ele>1586.09</ele>
  <time>2026-08-27T18:27:17Z</time>
  <course>2.03</course>
  <speed>0.0</speed>
  <fix>3d</fix>
</trkpt>
<trkpt lat="40.072842" lon="-105.2305751">
  <ele>1586.09</ele>
  <time>2026-08-27T18:27:17Z</time>
  <course>270.66</course>
  <speed>0.0</speed>
  <fix>3d</fix>
</trkpt>
<trkpt lat="40.072842" lon="-105.2305751">
  <ele>1586.09</ele>
  <time>2026-08-27T18:27:17Z</time>
  <course>2.37</course>
  <speed>0.0</speed>
  <fix>3d</fix>
</trkpt>
<trkpt lat="40.072842" lon="-105.2305751">
  <ele>1586.09</ele>
  <time>2026-08-27T18:27:17Z</time>
  <course>269.74</course>
  <speed>0.0</speed>
  <fix>3d</fix>
</trkpt>
<trkpt lat="40.072842" lon="-105.2305751">
  <ele>1586.09</ele>
  <time>2026-08-27T18:27:17Z</time>
  <course>3.11</course>
  <speed>0.0</speed>
  <fix>3d</fix>
</trkpt>
<trkpt lat="40.072842" lon="-105.2305751">
  <ele>1586.09</ele>
  <time>2026-08-27T18:27:17Z</time>
  <course>268.36</course>
  <speed>0.0</speed>
  <fix>3d</fix>
</trkpt>
<trkpt lat="40.072842" lon="-105.2305751">
  <ele>1586.09</ele>
  <time>2026-08-27T18:27:17Z</time>
  <course>3.8</course>
  <speed>0.0</speed>
  <fix>3d</fix>
</trkpt>
<trkpt lat="40.072842" lon="-105.2305751">
  <ele>1586.09</ele>
  <time>2026-08-27T18:27:17Z</time>
  <course>270.59</course>
  <speed>0.0</speed>
  <fix>3d</fix>
</trkpt>
<trkpt lat="40.072842" lon="-105.2305751">
  <ele>1586.09</ele>
  <time>2026-08-27T18:27:17Z</time>
  <course>4.43</course>
  <speed>0.0</speed>
  <fix>3d</fix>
</trkpt>
<trkpt lat="40.072842" lon="-105.2305751">
  <ele>1586.09</ele>
  <time>2026-08-27T18:27:17Z</time>
  <course>271.4</course>
  <speed>0.0</speed>
  <fix>3d</fix>
</trkpt>
<trkpt lat="40.072842" lon="-105.2305751">
  <ele>1586.09</ele>
  <time>2026-08-27T18:27:17Z</time>
  <course>5.02</course>
  <speed>0.0</speed>
  <fix>3d</fix>
</trkpt>
<trkpt lat="40.072842" lon="-105.2305751">
  <ele>1586.09</ele>
  <time>2026-08-27T18:27:17Z</time>
  <course>269.91</course>
  <speed>0.0</speed>
  <fix>3d</fix>
</trkpt>
<trkpt lat="40.072842" lon="-105.2305751">
  <ele>1586.09</ele>
  <time>2026-08-27T18:27:17Z</time>
  <course>5.59</course>
  <speed>0.0</speed>
  <fix>3d</fix>
</trkpt>
<trkpt lat="40.072842" lon="-105.2305751">
  <ele>1586.09</ele>
  <time>2026-08-27T18:27:17Z</time>
  <course>270.94</course>
  <speed>0.0</speed>
  <fix>3d</fix>
</trkpt>
<trkpt lat="40.072842" lon="-105.2305751">
  <ele>1586.09</ele>
  <time>2026-08-27T18:27:17Z</time>
  <course>6.11</course>
  <speed>0.0</speed>
  <fix>3d</fix>
</trkpt>
<trkpt lat="40.072842" lon="-105.2305751">
  <ele>1586.09</ele>
  <time>2026-08-27T18:27:17Z</time>
  <course>269.58</course>
  <speed>0.0</speed>
  <fix>3d</fix>
</trkpt>
<trkpt lat="40.072842" lon="-105.2305751">
  <ele>1586.09</ele>
  <time>2026-08-27T18:27:17Z</time>
  <course>6.61</course>
  <speed>0.0</speed>
  <fix>3d</fix>
</trkpt>
<trkpt lat="40.072842" lon="-105.2305751">
  <ele>1586.09</ele>
  <time>2026-08-27T18:27:17Z</time>
  <course>269.2</course>
  <speed>0.0</speed>
  <fix>3d</fix>
</trkpt>
<trkpt lat="40.072842" lon="-105.2305751">
  <ele>1586.09</ele>
  <time>2026-08-27T18:27:17Z</time>
  <course>7.07</course>
  <speed>0.0</speed>
  <fix>3d</fix>
</trkpt>
<trkpt lat="40.072842" lon="-105.2305751">
  <ele>1586.09</ele>
  <time>2026-08-27T18:27:17Z</time>
  <course>269.83</course>
  <speed>0.0</speed>
  <fix>3d</fix>
</trkpt>
<trkpt lat="40.072842" lon="-105.2305751">
  <ele>1586.09</ele>
  <time>2026-08-27T18:27:17Z</time>
  <course>7.49</course>
  <speed>0.0</speed>
  <fix>3d</fix>
</trkpt>
<trkpt lat="40.072842" lon="-105.2305751">
  <ele>1586.09</ele>
  <time>2026-08-27T18:27:17Z</time>
  <course>268.68</course>
  <speed>0.0</speed>
  <fix>3d</fix>
</trkpt>
<trkpt lat="40.072842" lon="-105.2305751">
  <ele>1586.09</ele>
  <time>2026-08-27T18:27:17Z</time>
  <course>7.89</course>
  <speed>0.0</speed>
  <fix>3d</fix>
</trkpt>
<trkpt lat="40.072842" lon="-105.2305751">
  <ele>1586.09</ele>
  <time>2026-08-27T18:27:17Z</time>
  <course>268.89</course>
  <speed>0.0</speed>
  <fix>3d</fix>
</trkpt>
<trkpt lat="40.072842" lon="-105.2305751">
  <ele>1586.09</ele>
  <time>2026-08-27T18:27:17Z</time>
  <course>8.26</course>
  <speed>0.0</speed>
  <fix>3d</fix>
</trkpt>
<trkpt lat="40.072842" lon="-105.2305751">
  <ele>1586.09</ele>
  <time>2026-08-27T18:27:17Z</time>
  <course>270.08</course>
  <speed>0.0</speed>
  <fix>3d</fix>
</trkpt>
<trkpt lat="40.072842" lon="-105.2305751">
  <ele>1586.09</ele>
  <time>2026-08-27T18:27:17Z</time>
  <course>8.59</course>
  <speed>0.0</speed>
  <fix>3d</fix>
</trkpt>
<trkpt lat="40.072842" lon="-105.2305751">
  <ele>1586.09</ele>
  <time>2026-08-27T18:27:17Z</time>
  <course>269.85</course>
  <speed>0.0</speed>
  <fix>3d</fix>
</trkpt>
<trkpt lat="40.072842" lon="-105.2305751">
  <ele>1586.09</ele>
  <time>2026-08-27T18:27:17Z</time>
  <course>8.91</course>
  <speed>0.0</speed>
  <fix>3d</fix>
</trkpt>
<trkpt lat="40.072842" lon="-105.2305751">
  <ele>1586.09</ele>
  <time>2026-08-27T18:27:17Z</time>
  <course>270.52</course>
  <speed>0.0</speed>
  <fix>3d</fix>
</trkpt>
<trkpt lat="40.072842" lon="-105.2305751">
  <ele>1586.09</ele>
  <time>2026-08-27T18:27:17Z</time>
  <course>9.2</course>
  <speed>0.0</speed>
  <fix>3d</fix>
</trkpt>
<trkpt lat="40.072842" lon="-105.2305751">
  <ele>1586.09</ele>
  <time>2026-08-27T18:27:17Z</time>
  <course>270.44</course>
  <speed>0.0</speed>
  <fix>3d</fix>
</trkpt>
<trkpt lat="40.072842" lon="-105.2305751">
  <ele>1586.09</ele>
  <time>2026-08-27T18:27:17Z</time>
  <course>9.46</course>
  <speed>0.0</speed>
  <fix>3d</fix>
</trkpt>
<trkpt lat="40.072842" lon="-105.2305751">
  <ele>1586.09</ele>
  <time>2026-08-27T18:27:17Z</time>
  <course>269.65</course>
  <speed>0.0</speed>
  <fix>3d</fix>
</trkpt>
<trkpt lat="40.072842" lon="-105.2305751">
  <ele>1586.09</ele>
  <time>2026-08-27T18:27:17Z</time>
  <course>9.71</course>
  <speed>0.0</speed>
  <fix>3d</fix>
</trkpt>
<trkpt lat="40.072842" lon="-105.2305751">
  <ele>1586.09</ele>
  <time>2026-08-27T18:27:17Z</time>
  <course>270.28</course>
  <speed>0.0</speed>
  <fix>3d</fix>
</trkpt>
<trkpt lat="40.072842" lon="-105.2305751">
  <ele>1586.09</ele>
  <time>2026-08-27T18:27:17Z</time>
  <course>9.93</course>
  <speed>0.0</speed>
  <fix>3d</fix>
</trkpt>
<trkpt lat="40.072842" lon="-105.2305751">
  <ele>1586.09</ele>
  <time>2026-08-27T18:27:17Z</time>
  <course>270.09</course>
  <speed>0.0</speed>
  <fix>3d</fix>
</trkpt>
<trkpt lat="40.072842" lon="-105.2305751">
  <ele>1586.09</ele>
  <time>2026-08-27T18:27:17Z</time>
  <course>10.14</course>
  <speed>0.0</speed>
  <fix>3d</fix>
</trkpt>
<trkpt lat="40.072842" lon="-105.2305751">
  <ele>1586.09</ele>
  <time>2026-08-27T18:27:17Z</time>
  <course>269.9</course>
  <speed>0.0</speed>
  <fix>3d</fix>
</trkpt>
<trkpt lat="40.072842" lon="-105.2305751">
  <ele>1586.09</ele>
  <time>2026-08-27T18:27:17Z</time>
  <course>10.33</course>
  <speed>0.0</speed>
  <fix>3d</fix>
</trkpt>
<trkpt lat="40.072842" lon="-105.2305751">
  <ele>1586.09</ele>
  <time>2026-08-27T18:27:17Z</time>
  <course>269.95</course>
  <speed>0.0</speed>
  <fix>3d</fix>
</trkpt>
<trkpt lat="40.072842" lon="-105.2305751">
  <ele>1586.09</ele>
  <time>2026-08-27T18:27:17Z</time>
  <course>10.5</course>
  <speed>0.0</speed>
  <fix>3d</fix>
</trkpt>
<trkpt lat="40.072842" lon="-105.2305751">
  <ele>1586.09</ele>
  <time>2026-08-27T18:27:17Z</time>
  <course>269.97</course>
  <speed>0.0</speed>
  <fix>3d</fix>
</trkpt>
<trkpt lat="40.072842" lon="-105.2305751">
  <ele>1586.09</ele>
  <time>2026-08-27T18:27:17Z</time>
  <course>10.66</course>
  <speed>0.0</speed>
  <fix>3d</fix>
</trkpt>
<trkpt lat="40.072842" lon="-105.2305751">
  <ele>1586.09</ele>
  <time>2026-08-27T18:27:17Z</time>
  <course>269.96</course>
  <speed>0.0</speed>
  <fix>3d</fix>
</trkpt>
<trkpt lat="40.072842" lon="-105.2305751">
  <ele>1586.09</ele>
  <time>2026-08-27T18:27:17Z</time>
  <course>10.8</course>
  <speed>0.0</speed>
  <fix>3d</fix>
</trkpt>
<trkpt lat="40.072842" lon="-105.2305751">
  <ele>1586.09</ele>
  <time>2026-08-27T18:27:17Z</time>
  <course>269.96</course>
  <speed>0.0</speed>
  <fix>3d</fix>
</trkpt>
<trkpt lat="40.072842" lon="-105.2305751">
  <ele>1586.09</ele>
  <time>2026-08-27T18:27:17Z</time>
  <course>10.93</course>
  <speed>0.0</speed>
  <fix>3d</fix>
</trkpt>
<trkpt lat="40.072842" lon="-105.2305751">
  <ele>1586.09</ele>
  <time>2026-08-27T18:27:17Z</time>
  <course>269.96</course>
  <speed>0.0</speed>
  <fix>3d</fix>
</trkpt>
<trkpt lat="40.072842" lon="-105.2305751">
  <ele>1586.09</ele>
  <time>2026-08-27T18:27:17Z</time>
  <course>11.05</course>
  <speed>0.0</speed>
  <fix>3d</fix>
</trkpt>
<trkpt lat="40.072842" lon="-105.2305751">
  <ele>1586.09</ele>
  <time>2026-08-27T18:27:17Z</time>
  <course>269.96</course>
  <speed>0.0</speed>
  <fix>3d</fix>
</trkpt>
<trkpt lat="40.072842" lon="-105.2305751">
  <ele>1586.09</ele>
  <time>2026-08-27T18:27:17Z</time>
  <course>11.16</course>
  <speed>0.0</speed>
  <fix>3d</fix>
</trkpt>
<trkpt lat="40.072842" lon="-105.2305751">
  <ele>1586.09</ele>
  <time>2026-08-27T18:27:17Z</time>
  <course>269.96</course>
  <speed>0.0</speed>
  <fix>3d</fix>
</trkpt>
<trkpt lat="40.072842" lon="-105.2305751">
  <ele>1586.09</ele>
  <time>2026-08-27T18:27:17Z</time>
  <course>11.27</course>
  <speed>0.0</speed>
  <fix>3d</fix>
</trkpt>
<trkpt lat="40.072842" lon="-105.2305751">
  <ele>1586.09</ele>
  <time>2026-08-27T18:27:17Z</time>
  <course>269.96</course>
  <speed>0.0</speed>
  <fix>3d</fix>
</trkpt>
<trkpt lat="40.072842" lon="-105.2305751">
  <ele>1586.09</ele>
  <time>2026-08-27T18:27:17Z</time>
  <course>11.36</course>
  <speed>0.0</speed>
  <fix>3d</fix>
</trkpt>
<trkpt lat="40.072842" lon="-105.2305751">
  <ele>1586.09</ele>
  <time>2026-08-27T18:27:17Z</time>
  <course>269.96</course>
  <speed>0.0</speed>
  <fix>3d</fix>
</trkpt>
<trkpt lat="40.072842" lon="-105.2305751">
  <ele>1586.09</ele>
  <time>2026-08-27T18:27:17Z</time>
  <course>11.44</course>
  <speed>0.0</speed>
  <fix>3d</fix>
</trkpt>
<trkpt lat="40.072842" lon="-105.2305751">
  <ele>1586.09</ele>
  <time>2026-08-27T18:27:17Z</time>
  <course>269.96</course>
  <speed>0.0</speed>
  <fix>3d</fix>
</trkpt>
<trkpt lat="40.072842" lon="-105.2305751">
  <ele>1586.09</ele>
  <time>2026-08-27T18:27:17Z</time>
  <course>11.52</course>
  <speed>0.0</speed>
  <fix>3d</fix>
</trkpt>
<trkpt lat="40.072842" lon="-105.2305751">
  <ele>1586.09</ele>
  <time>2026-08-27T18:27:17Z</time>
  <course>269.96</course>
  <speed>0.0</speed>
  <fix>3d</fix>
</trkpt>
<trkpt lat="40.072842" lon="-105.2305751">
  <ele>1586.09</ele>
  <time>2026-08-27T18:27:17Z</time>
  <course>11.58</course>
  <speed>0.0</speed>
  <fix>3d</fix>
</trkpt>
<trkpt lat="40.072842" lon="-105.2305751">
  <ele>1586.09</ele>
  <time>2026-08-27T18:27:17Z</time>
  <course>269.96</course>
  <speed>0.0</speed>
  <fix>3d</fix>
</trkpt>
<trkpt lat="40.072842" lon="-105.2305751">
  <ele>1586.09</ele>
  <time>2026-08-27T18:27:17Z</time>
  <course>11.65</course>
  <speed>0.0</speed>
  <fix>3d</fix>
</trkpt>
<trkpt lat="40.072842" lon="-105.2305751">
  <ele>1586.09</ele>
  <time>2026-08-27T18:27:17Z</time>
  <course>269.96</course>
  <speed>0.0</speed>
  <fix>3d</fix>
</trkpt>
<trkpt lat="40.072842" lon="-105.2305751">
  <ele>1586.09</ele>
  <time>2026-08-27T18:27:17Z</time>
  <course>11.71</course>
  <speed>0.0</speed>
  <fix>3d</fix>
</trkpt>
<trkpt lat="40.072842" lon="-105.2305751">
  <ele>1586.09</ele>
  <time>2026-08-27T18:27:17Z</time>
  <course>269.96</course>
  <speed>0.0</speed>
  <fix>3d</fix>
</trkpt>
<trkpt lat="40.072842" lon="-105.2305751">
  <ele>1586.09</ele>
  <time>2026-08-27T18:27:17Z</time>
  <course>11.76</course>
  <speed>0.0</speed>
  <fix>3d</fix>
</trkpt>
<trkpt lat="40.072842" lon="-105.2305751">
  <ele>1586.09</ele>
  <time>2026-08-27T18:27:17Z</time>
  <course>269.96</course>
  <speed>0.0</speed>
  <fix>3d</fix>
</trkpt>
<trkpt lat="40.072842" lon="-105.2305751">
  <ele>1586.09</ele>
  <time>2026-08-27T18:27:17Z</time>
  <course>11.81</course>
  <speed>0.0</speed>
  <fix>3d</fix>
</trkpt>
<trkpt lat="40.072842" lon="-105.2305751">
  <ele>1586.09</ele>
  <time>2026-08-27T18:27:17Z</time>
  <course>269.96</course>
  <speed>0.0</speed>
  <fix>3d</fix>
</trkpt>
<trkpt lat="40.072842" lon="-105.2305751">
  <ele>1586.09</ele>
  <time>2026-08-27T18:27:17Z</time>
  <course>11.85</course>
  <speed>0.0</speed>
  <fix>3d</fix>
</trkpt>
<trkpt lat="40.072842" lon="-105.2305751">
  <ele>1586.09</ele>
  <time>2026-08-27T18:27:17Z</time>
  <course>269.96</course>
  <speed>0.0</speed>
  <fix>3d</fix>
</trkpt>
<trkpt lat="40.072842" lon="-105.2305751">
  <ele>1586.09</ele>
  <time>2026-08-27T18:27:17Z</time>
  <course>11.88</course>
  <speed>0.0</speed>
  <fix>3d</fix>
</trkpt>
<trkpt lat="40.072842" lon="-105.2305751">
  <ele>1586.09</ele>
  <time>2026-08-27T18:27:17Z</time>
  <course>269.96</course>
  <speed>0.0</speed>
  <fix>3d</fix>
</trkpt>
<trkpt lat="40.072842" lon="-105.2305751">
  <ele>1586.09</ele>
  <time>2026-08-27T18:27:17Z</time>
  <course>11.92</course>
  <speed>0.0</speed>
  <fix>3d</fix>
</trkpt>
<trkpt lat="40.072842" lon="-105.2305751">
  <ele>1586.09</ele>
  <time>2026-08-27T18:27:17Z</time>
  <course>269.96</course>
  <speed>0.0</speed>
  <fix>3d</fix>
</trkpt>
<trkpt lat="40.072842" lon="-105.2305751">
  <ele>1586.09</ele>
  <time>2026-08-27T18:27:17Z</time>
  <course>11.95</course>
  <speed>0.0</speed>
  <fix>3d</fix>
</trkpt>
<trkpt lat="40.072842" lon="-105.2305751">
  <ele>1586.09</ele>
  <time>2026-08-27T18:27:17Z</time>
  <course>269.96</course>
  <speed>0.0</speed>
  <fix>3d</fix>
</trkpt>
<trkpt lat="40.072842" lon="-105.2305751">
  <ele>1586.09</ele>
  <time>2026-08-27T18:27:17Z</time>
  <course>11.97</course>
  <speed>0.0</speed>
  <fix>3d</fix>
</trkpt>
<trkpt lat="40.072842" lon="-105.2305751">
  <ele>1586.09</ele>
  <time>2026-08-27T18:27:17Z</time>
  <course>269.96</course>
  <speed>0.0</speed>
  <fix>3d</fix>
</trkpt>
<trkpt lat="40.072842" lon="-105.2305751">
  <ele>1586.09</ele>
  <time>2026-08-27T18:27:17Z</time>
  <course>12.0</course>
  <speed>0.0</speed>
  <fix>3d</fix>
</trkpt>
<trkpt lat="40.072842" lon="-105.2305751">
  <ele>1586.09</ele>
  <time>2026-08-27T18:27:17Z</time>
  <course>269.96</course>
  <speed>0.0</speed>
  <fix>3d</fix>
</trkpt>
<trkpt lat="40.072842" lon="-105.2305751">
  <ele>1586.09</ele>
  <time>2026-08-27T18:27:17Z</time>
  <course>12.02</course>
  <speed>0.0</speed>
  <fix>3d</fix>
</trkpt>
<trkpt lat="40.072842" lon="-105.2305751">
  <ele>1586.09</ele>
  <time>2026-08-27T18:27:17Z</time>
  <course>269.96</course>
  <speed>0.0</speed>
  <fix>3d</fix>
</trkpt>
<trkpt lat="40.072842" lon="-105.2305751">
  <ele>1586.09</ele>
  <time>2026-08-27T18:27:17Z</time>
  <course>12.03</course>
  <speed>0.0</speed>
  <fix>3d</fix>
</trkpt>
<trkpt lat="40.072842" lon="-105.2305751">
  <ele>1586.09</ele>
  <time>2026-08-27T18:27:17Z</time>
  <course>269.96</course>
  <speed>0.0</speed>
  <fix>3d</fix>
</trkpt>
<trkpt lat="40.072842" lon="-105.2305751">
  <ele>1586.09</ele>
  <time>2026-08-27T18:27:17Z</time>
  <course>12.05</course>
  <speed>0.0</speed>
  <fix>3d</fix>
</trkpt>
<trkpt lat="40.072842" lon="-105.2305751">
  <ele>1586.09</ele>
  <time>2026-08-27T18:27:17Z</time>
  <course>269.96</course>
  <speed>0.0</speed>
  <fix>3d</fix>
</trkpt>
<trkpt lat="40.072842" lon="-105.2305751">
  <ele>1586.09</ele>
  <time>2026-08-27T18:27:17Z</time>
  <course>12.06</course>
  <speed>0.0</speed>
  <fix>3d</fix>
</trkpt>
<trkpt lat="40.072842" lon="-105.2305751">
  <ele>1586.09</ele>
  <time>2026-08-27T18:27:17Z</time>
  <course>269.96</course>
  <speed>0.0</speed>
  <fix>3d</fix>
</trkpt>
<trkpt lat="40.072842" lon="-105.2305751">
  <ele>1586.09</ele>
  <time>2026-08-27T18:27:17Z</time>
  <course>12.08</course>
  <speed>0.0</speed>
  <fix>3d</fix>
</trkpt>
<trkpt lat="40.072842" lon="-105.2305751">
  <ele>1586.09</ele>
  <time>2026-08-27T18:27:17Z</time>
  <course>269.96</course>
  <speed>0.0</speed>
  <fix>3d</fix>
</trkpt>
<trkpt lat="40.072842" lon="-105.2305751">
  <ele>1586.09</ele>
  <time>2026-08-27T18:27:17Z</time>
  <course>12.09</course>
  <speed>0.0</speed>
  <fix>3d</fix>
</trkpt>
<trkpt lat="40.072842" lon="-105.2305751">
  <ele>1586.09</ele>
  <time>2026-08-27T18:27:17Z</time>
  <course>269.96</course>
  <speed>0.0</speed>
  <fix>3d</fix>
</trkpt>
<trkpt lat="40.072842" lon="-105.2305751">
  <ele>1586.09</ele>
  <time>2026-08-27T18:27:17Z</time>
  <course>12.1</course>
  <speed>0.0</speed>
  <fix>3d</fix>
</trkpt>
<trkpt lat="40.072842" lon="-105.2305751">
  <ele>1586.09</ele>
  <time>2026-08-27T18:27:17Z</time>
  <course>269.96</course>
  <speed>0.0</speed>
  <fix>3d</fix>
</trkpt>
<trkpt lat="40.072842" lon="-105.2305751">
  <ele>1586.09</ele>
  <time>2026-08-27T18:27:17Z</time>
  <course>12.1</course>
  <speed>0.0</speed>
  <fix>3d</fix>
</trkpt>
<trkpt lat="40.072842" lon="-105.2305751">
  <ele>1586.09</ele>
  <time>2026-08-27T18:27:17Z</time>
  <course>269.96</course>
  <speed>0.0</speed>
  <fix>3d</fix>
</trkpt>
<trkpt lat="40.072842" lon="-105.2305751">
  <ele>1586.09</ele>
  <time>2026-08-27T18:27:17Z</time>
  <course>12.11</course>
  <speed>0.0</speed>
  <fix>3d</fix>
</trkpt>
<trkpt lat="40.072842" lon="-105.2305751">
  <ele>1586.09</ele>
  <time>2026-08-27T18:27:17Z</time>
  <course>269.96</course>
  <speed>0.0</speed>
  <fix>3d</fix>
</trkpt>
<trkpt lat="40.072842" lon="-105.2305751">
  <ele>1586.09</ele>
  <time>2026-08-27T18:27:17Z</time>
  <course>12.11</course>
  <speed>0.0</speed>
  <fix>3d</fix>
</trkpt>
<trkpt lat="40.072842" lon="-105.2305751">
  <ele>1586.09</ele>
  <time>2026-08-27T18:27:17Z</time>
  <course>269.96</course>
  <speed>0.0</speed>
  <fix>3d</fix>
</trkpt>
<trkpt lat="40.072842" lon="-105.2305751">
  <ele>1586.09</ele>
  <time>2026-08-27T18:27:17Z</time>
  <course>12.12</course>
  <speed>0.0</speed>
  <fix>3d</fix>
</trkpt>
<trkpt lat="40.072842" lon="-105.2305751">
  <ele>1586.09</ele>
  <time>2026-08-27T18:27:17Z</time>
  <course>269.96</course>
  <speed>0.0</speed>
  <fix>3d</fix>
</trkpt>
<trkpt lat="40.072842" lon="-105.2305751">
  <ele>1586.09</ele>
  <time>2026-08-27T18:27:18Z</time>
  <course>12.12</course>
  <speed>0.0</speed>
  <fix>3d</fix>
</trkpt>
<trkpt lat="40.072842" lon="-105.2305751">
  <ele>1586.09</ele>
  <time>2026-08-27T18:27:18Z</time>
  <course>269.96</course>
  <speed>0.0</speed>
  <fix>3d</fix>
</trkpt>
<trkpt lat="40.072842" lon="-105.2305751">
  <ele>1586.09</ele>
  <time>2026-08-27T18:27:18Z</time>
  <course>12.12</course>
  <speed>0.0</speed>
  <fix>3d</fix>
</trkpt>
<trkpt lat="40.072842" lon="-105.2305751">
  <ele>1586.09</ele>
  <time>2026-08-27T18:27:18Z</time>
  <course>269.96</course>
  <speed>0.0</speed>
  <fix>3d</fix>
</trkpt>
<trkpt lat="40.072842" lon="-105.2305751">
  <ele>1586.09</ele>
  <time>2026-08-27T18:27:18Z</time>
  <course>12.12</course>
  <speed>0.0</speed>
  <fix>3d</fix>
</trkpt>
<trkpt lat="40.072842" lon="-105.2305751">
  <ele>1586.09</ele>
  <time>2026-08-27T18:27:18Z</time>
  <course>269.96</course>
  <speed>0.0</speed>
  <fix>3d</fix>
</trkpt>
<trkpt lat="40.072842" lon="-105.2305751">
  <ele>1586.09</ele>
  <time>2026-08-27T18:27:18Z</time>
  <course>12.12</course>
  <speed>0.0</speed>
  <fix>3d</fix>
</trkpt>
<trkpt lat="40.072842" lon="-105.2305751">
  <ele>1586.09</ele>
  <time>2026-08-27T18:27:18Z</time>
  <course>269.96</course>
  <speed>0.0</speed>
  <fix>3d</fix>
</trkpt>
<trkpt lat="40.072842" lon="-105.2305751">
  <ele>1586.09</ele>
  <time>2026-08-27T18:27:18Z</time>
  <course>12.12</course>
  <speed>0.01</speed>
  <fix>3d</fix>
</trkpt>
<trkpt lat="40.072842" lon="-105.2305751">
  <ele>1586.09</ele>
  <time>2026-08-27T18:27:18Z</time>
  <course>269.96</course>
  <speed>0.0</speed>
  <fix>3d</fix>
</trkpt>
<trkpt lat="40.072842" lon="-105.2305751">
  <ele>1586.09</ele>
  <time>2026-08-27T18:27:18Z</time>
  <course>12.12</course>
  <speed>0.01</speed>
  <fix>3d</fix>
</trkpt>
<trkpt lat="40.072842" lon="-105.2305751">
  <ele>1586.09</ele>
  <time>2026-08-27T18:27:18Z</time>
  <course>269.96</course>
  <speed>0.0</speed>
  <fix>3d</fix>
</trkpt>
<trkpt lat="40.072842" lon="-105.2305751">
  <ele>1586.09</ele>
  <time>2026-08-27T18:27:18Z</time>
  <course>12.12</course>
  <speed>0.01</speed>
  <fix>3d</fix>
</trkpt>
<trkpt lat="40.072842" lon="-105.2305751">
  <ele>1586.09</ele>
  <time>2026-08-27T18:27:18Z</time>
  <course>269.96</course>
  <speed>0.0</speed>
  <fix>3d</fix>
</trkpt>
<trkpt lat="40.072842" lon="-105.2305751">
  <ele>1586.09</ele>
  <time>2026-08-27T18:27:18Z</time>
  <course>12.11</course>
  <speed>0.01</speed>
  <fix>3d</fix>
</trkpt>
<trkpt lat="40.072842" lon="-105.2305751">
  <ele>1586.09</ele>
  <time>2026-08-27T18:27:18Z</time>
  <course>269.96</course>
  <speed>0.0</speed>
  <fix>3d</fix>
</trkpt>
<trkpt lat="40.072842" lon="-105.2305751">
  <ele>1586.09</ele>
  <time>2026-08-27T18:27:18Z</time>
  <course>12.11</course>
  <speed>0.01</speed>
  <fix>3d</fix>
</trkpt>
<trkpt lat="40.072842" lon="-105.2305751">
  <ele>1586.09</ele>
  <time>2026-08-27T18:27:18Z</time>
  <course>269.96</course>
  <speed>0.0</speed>
  <fix>3d</fix>
</trkpt>
<trkpt lat="40.072842" lon="-105.2305751">
  <ele>1586.09</ele>
  <time>2026-08-27T18:27:18Z</time>
  <course>12.11</course>
  <speed>0.01</speed>
  <fix>3d</fix>
</trkpt>
<trkpt lat="40.072842" lon="-105.2305751">
  <ele>1586.09</ele>
  <time>2026-08-27T18:27:18Z</time>
  <course>269.96</course>
  <speed>0.0</speed>
  <fix>3d</fix>
</trkpt>
<trkpt lat="40.072842" lon="-105.2305751">
  <ele>1586.09</ele>
  <time>2026-08-27T18:27:18Z</time>
  <course>12.1</course>
  <speed>0.01</speed>
  <fix>3d</fix>
</trkpt>
<trkpt lat="40.072842" lon="-105.2305751">
  <ele>1586.09</ele>
  <time>2026-08-27T18:27:18Z</time>
  <course>269.96</course>
  <speed>0.0</speed>
  <fix>3d</fix>
</trkpt>
<trkpt lat="40.072842" lon="-105.2305751">
  <ele>1586.09</ele>
  <time>2026-08-27T18:27:18Z</time>
  <course>12.09</course>
  <speed>0.01</speed>
  <fix>3d</fix>
</trkpt>
<trkpt lat="40.072842" lon="-105.2305751">
  <ele>1586.09</ele>
  <time>2026-08-27T18:27:18Z</time>
  <course>269.96</course>
  <speed>0.0</speed>
  <fix>3d</fix>
</trkpt>
<trkpt lat="40.072842" lon="-105.2305751">
  <ele>1586.09</ele>
  <time>2026-08-27T18:27:18Z</time>
  <course>12.09</course>
  <speed>0.01</speed>
  <fix>3d</fix>
</trkpt>
<trkpt lat="40.072842" lon="-105.2305751">
  <ele>1586.09</ele>
  <time>2026-08-27T18:27:18Z</time>
  <course>269.96</course>
  <speed>0.0</speed>
  <fix>3d</fix>
</trkpt>
<trkpt lat="40.072842" lon="-105.2305751">
  <ele>1586.09</ele>
  <time>2026-08-27T18:27:18Z</time>
  <course>12.08</course>
  <speed>0.01</speed>
  <fix>3d</fix>
</trkpt>
<trkpt lat="40.072842" lon="-105.2305751">
  <ele>1586.09</ele>
  <time>2026-08-27T18:27:18Z</time>
  <course>269.96</course>
  <speed>0.0</speed>
  <fix>3d</fix>
</trkpt>
<trkpt lat="40.072842" lon="-105.2305751">
  <ele>1586.09</ele>
  <time>2026-08-27T18:27:18Z</time>
  <course>12.08</course>
  <speed>0.01414213562373095</speed>
  <fix>3d</fix>
</trkpt>
<trkpt lat="40.072842" lon="-105.2305751">
  <ele>1586.09</ele>
  <time>2026-08-27T18:27:18Z</time>
  <course>269.96</course>
  <speed>0.0</speed>
  <fix>3d</fix>
</trkpt>
<trkpt lat="40.072842" lon="-105.2305751">
  <ele>1586.09</ele>
  <time>2026-08-27T18:27:18Z</time>
  <course>12.07</course>
  <speed>0.01414213562373095</speed>
  <fix>3d</fix>
</trkpt>
<trkpt lat="40.072842" lon="-105.2305751">
  <ele>1586.09</ele>
  <time>2026-08-27T18:27:18Z</time>
  <course>269.96</course>
  <speed>0.0</speed>
  <fix>3d</fix>
</trkpt>
<trkpt lat="40.072842" lon="-105.2305751">
  <ele>1586.09</ele>
  <time>2026-08-27T18:27:18Z</time>
  <course>12.07</course>
  <speed>0.01414213562373095</speed>
  <fix>3d</fix>
</trkpt>
<trkpt lat="40.072842" lon="-105.2305751">
  <ele>1586.09</ele>
  <time>2026-08-27T18:27:18Z</time>
  <course>269.96</course>
  <speed>0.0</speed>
  <fix>3d</fix>
</trkpt>
<trkpt lat="40.072842" lon="-105.2305751">
  <ele>1586.09</ele>
  <time>2026-08-27T18:27:18Z</time>
  <course>12.06</course>
  <speed>0.01414213562373095</speed>
  <fix>3d</fix>
</trkpt>
<trkpt lat="40.072842" lon="-105.2305751">
  <ele>1586.09</ele>
  <time>2026-08-27T18:27:18Z</time>
  <course>269.96</course>
  <speed>0.0</speed>
  <fix>3d</fix>
</trkpt>
<trkpt lat="40.072842" lon="-105.2305751">
  <ele>1586.09</ele>
  <time>2026-08-27T18:27:18Z</time>
  <course>12.05</course>
  <speed>0.01414213562373095</speed>
  <fix>3d</fix>
</trkpt>
<trkpt lat="40.072842" lon="-105.2305751">
  <ele>1586.09</ele>
  <time>2026-08-27T18:27:18Z</time>
  <course>269.96</course>
  <speed>0.0</speed>
  <fix>3d</fix>
</trkpt>
<trkpt lat="40.072842" lon="-105.2305751">
  <ele>1586.09</ele>
  <time>2026-08-27T18:27:18Z</time>
  <course>12.05</course>
  <speed>0.01414213562373095</speed>
  <fix>3d</fix>
</trkpt>
<trkpt lat="40.072842" lon="-105.2305751">
  <ele>1586.09</ele>
  <time>2026-08-27T18:27:18Z</time>
  <course>269.96</course>
  <speed>0.0</speed>
  <fix>3d</fix>
</trkpt>
<trkpt lat="40.072842" lon="-105.2305751">
  <ele>1586.09</ele>
  <time>2026-08-27T18:27:18Z</time>
  <course>12.04</course>
  <speed>0.01414213562373095</speed>
  <fix>3d</fix>
</trkpt>
<trkpt lat="40.072842" lon="-105.2305751">
  <ele>1586.09</ele>
  <time>2026-08-27T18:27:18Z</time>
  <course>269.96</course>
  <speed>0.0</speed>
  <fix>3d</fix>
</trkpt>
<trkpt lat="40.072842" lon="-105.2305751">
  <ele>1586.09</ele>
  <time>2026-08-27T18:27:18Z</time>
  <course>12.03</course>
  <speed>0.01414213562373095</speed>
  <fix>3d</fix>
</trkpt>
<trkpt lat="40.072842" lon="-105.2305751">
  <ele>1586.09</ele>
  <time>2026-08-27T18:27:18Z</time>
  <course>269.96</course>
  <speed>0.0</speed>
  <fix>3d</fix>
</trkpt>
<trkpt lat="40.072842" lon="-105.2305751">
  <ele>1586.09</ele>
  <time>2026-08-27T18:27:18Z</time>
  <course>12.02</course>
  <speed>0.01414213562373095</speed>
  <fix>3d</fix>
</trkpt>
<trkpt lat="40.072842" lon="-105.2305751">
  <ele>1586.09</ele>
  <time>2026-08-27T18:27:18Z</time>
  <course>269.96</course>
  <speed>0.0</speed>
  <fix>3d</fix>
</trkpt>
<trkpt lat="40.072842" lon="-105.2305751">
  <ele>1586.09</ele>
  <time>2026-08-27T18:27:18Z</time>
  <course>12.02</course>
  <speed>0.01414213562373095</speed>
  <fix>3d</fix>
</trkpt>
<trkpt lat="40.072842" lon="-105.2305751">
  <ele>1586.09</ele>
  <time>2026-08-27T18:27:18Z</time>
  <course>269.96</course>
  <speed>0.0</speed>
  <fix>3d</fix>
</trkpt>
<trkpt lat="40.072842" lon="-105.2305751">
  <ele>1586.09</ele>
  <time>2026-08-27T18:27:18Z</time>
  <course>12.01</course>
  <speed>0.01414213562373095</speed>
  <fix>3d</fix>
</trkpt>
<trkpt lat="40.072842" lon="-105.2305751">
  <ele>1586.09</ele>
  <time>2026-08-27T18:27:18Z</time>
  <course>269.96</course>
  <speed>0.0</speed>
  <fix>3d</fix>
</trkpt>
<trkpt lat="40.072842" lon="-105.2305751">
  <ele>1586.09</ele>
  <time>2026-08-27T18:27:18Z</time>
  <course>12.0</course>
  <speed>0.01414213562373095</speed>
  <fix>3d</fix>
</trkpt>
<trkpt lat="40.072842" lon="-105.2305751">
  <ele>1586.09</ele>
  <time>2026-08-27T18:27:18Z</time>
  <course>269.96</course>
  <speed>0.0</speed>
  <fix>3d</fix>
</trkpt>
<trkpt lat="40.072842" lon="-105.2305751">
  <ele>1586.09</ele>
  <time>2026-08-27T18:27:18Z</time>
  <course>11.99</course>
  <speed>0.01414213562373095</speed>
  <fix>3d</fix>
</trkpt>
<trkpt lat="40.072842" lon="-105.2305751">
  <ele>1586.09</ele>
  <time>2026-08-27T18:27:18Z</time>
  <course>269.96</course>
  <speed>0.0</speed>
  <fix>3d</fix>
</trkpt>
<trkpt lat="40.072842" lon="-105.2305751">
  <ele>1586.09</ele>
  <time>2026-08-27T18:27:18Z</time>
  <course>11.99</course>
  <speed>0.01414213562373095</speed>
  <fix>3d</fix>
</trkpt>
<trkpt lat="40.072842" lon="-105.2305751">
  <ele>1586.09</ele>
  <time>2026-08-27T18:27:18Z</time>
  <course>269.96</course>
  <speed>0.0</speed>
  <fix>3d</fix>
</trkpt>
<trkpt lat="40.072842" lon="-105.2305751">
  <ele>1586.09</ele>
  <time>2026-08-27T18:27:18Z</time>
  <course>11.98</course>
  <speed>0.01414213562373095</speed>
  <fix>3d</fix>
</trkpt>
<trkpt lat="40.072842" lon="-105.2305751">
  <ele>1586.09</ele>
  <time>2026-08-27T18:27:18Z</time>
  <course>269.96</course>
  <speed>0.0</speed>
  <fix>3d</fix>
</trkpt>
<trkpt lat="40.072842" lon="-105.2305751">
  <ele>1586.09</ele>
  <time>2026-08-27T18:27:18Z</time>
  <course>11.97</course>
  <speed>0.01414213562373095</speed>
  <fix>3d</fix>
</trkpt>
<trkpt lat="40.072842" lon="-105.2305751">
  <ele>1586.09</ele>
  <time>2026-08-27T18:27:18Z</time>
  <course>269.96</course>
  <speed>0.0</speed>
  <fix>3d</fix>
</trkpt>
<trkpt lat="40.072842" lon="-105.2305751">
  <ele>1586.09</ele>
  <time>2026-08-27T18:27:18Z</time>
  <course>11.96</course>
  <speed>0.01414213562373095</speed>
  <fix>3d</fix>
</trkpt>
<trkpt lat="40.072842" lon="-105.2305751">
  <ele>1586.09</ele>
  <time>2026-08-27T18:27:18Z</time>
  <course>269.96</course>
  <speed>0.0</speed>
  <fix>3d</fix>
</trkpt>
<trkpt lat="40.072842" lon="-105.2305751">
  <ele>1586.09</ele>
  <time>2026-08-27T18:27:18Z</time>
  <course>11.95</course>
  <speed>0.022360679774997897</speed>
  <fix>3d</fix>
</trkpt>
<trkpt lat="40.072842" lon="-105.2305751">
  <ele>1586.09</ele>
  <time>2026-08-27T18:27:18Z</time>
  <course>269.96</course>
  <speed>0.0</speed>
  <fix>3d</fix>
</trkpt>
<trkpt lat="40.072842" lon="-105.2305751">
  <ele>1586.09</ele>
  <time>2026-08-27T18:27:18Z</time>
  <course>11.94</course>
  <speed>0.022360679774997897</speed>
  <fix>3d</fix>
</trkpt>
<trkpt lat="40.072842" lon="-105.2305751">
  <ele>1586.09</ele>
  <time>2026-08-27T18:27:18Z</time>
  <course>269.96</course>
  <speed>0.0</speed>
  <fix>3d</fix>
</trkpt>
<trkpt lat="40.072842" lon="-105.2305751">
  <ele>1586.09</ele>
  <time>2026-08-27T18:27:18Z</time>
  <course>11.94</course>
  <speed>0.022360679774997897</speed>
  <fix>3d</fix>
</trkpt>
<trkpt lat="40.072842" lon="-105.2305751">
  <ele>1586.09</ele>
  <time>2026-08-27T18:27:18Z</time>
  <course>269.96</course>
  <speed>0.0</speed>
  <fix>3d</fix>
</trkpt>
<trkpt lat="40.072842" lon="-105.2305751">
  <ele>1586.09</ele>
  <time>2026-08-27T18:27:18Z</time>
  <course>11.93</course>
  <speed>0.022360679774997897</speed>
  <fix>3d</fix>
</trkpt>
<trkpt lat="40.072842" lon="-105.2305751">
  <ele>1586.09</ele>
  <time>2026-08-27T18:27:18Z</time>
  <course>269.96</course>
  <speed>0.0</speed>
  <fix>3d</fix>
</trkpt>
<trkpt lat="40.072842" lon="-105.2305751">
  <ele>1586.09</ele>
  <time>2026-08-27T18:27:18Z</time>
  <course>11.92</course>
  <speed>0.022360679774997897</speed>
  <fix>3d</fix>
</trkpt>
<trkpt lat="40.072842" lon="-105.2305751">
  <ele>1586.09</ele>
  <time>2026-08-27T18:27:18Z</time>
  <course>269.96</course>
  <speed>0.0</speed>
  <fix>3d</fix>
</trkpt>
<trkpt lat="40.072842" lon="-105.2305751">
  <ele>1586.09</ele>
  <time>2026-08-27T18:27:18Z</time>
  <course>11.91</course>
  <speed>0.022360679774997897</speed>
  <fix>3d</fix>
</trkpt>
<trkpt lat="40.072842" lon="-105.2305751">
  <ele>1586.09</ele>
  <time>2026-08-27T18:27:18Z</time>
  <course>269.96</course>
  <speed>0.0</speed>
  <fix>3d</fix>
</trkpt>
<trkpt lat="40.072842" lon="-105.2305751">
  <ele>1586.09</ele>
  <time>2026-08-27T18:27:18Z</time>
  <course>11.9</course>
  <speed>0.022360679774997897</speed>
  <fix>3d</fix>
</trkpt>
<trkpt lat="40.072842" lon="-105.2305751">
  <ele>1586.09</ele>
  <time>2026-08-27T18:27:18Z</time>
  <course>269.96</course>
  <speed>0.0</speed>
  <fix>3d</fix>
</trkpt>
<trkpt lat="40.072842" lon="-105.2305751">
  <ele>1586.09</ele>
  <time>2026-08-27T18:27:18Z</time>
  <course>11.9</course>
  <speed>0.022360679774997897</speed>
  <fix>3d</fix>
</trkpt>
<trkpt lat="40.072842" lon="-105.2305751">
  <ele>1586.09</ele>
  <time>2026-08-27T18:27:18Z</time>
  <course>269.96</course>
  <speed>0.0</speed>
  <fix>3d</fix>
</trkpt>
<trkpt lat="40.072842" lon="-105.2305751">
  <ele>1586.09</ele>
  <time>2026-08-27T18:27:18Z</time>
  <course>11.89</course>
  <speed>0.022360679774997897</speed>
  <fix>3d</fix>
</trkpt>
<trkpt lat="40.072842" lon="-105.2305751">
  <ele>1586.09</ele>
  <time>2026-08-27T18:27:18Z</time>
  <course>269.96</course>
  <speed>0.0</speed>
  <fix>3d</fix>
</trkpt>
<trkpt lat="40.072842" lon="-105.2305751">
  <ele>1586.09</ele>
  <time>2026-08-27T18:27:18Z</time>
  <course>11.88</course>
  <speed>0.022360679774997897</speed>
  <fix>3d</fix>
</trkpt>
<trkpt lat="40.072842" lon="-105.2305751">
  <ele>1586.09</ele>
  <time>2026-08-27T18:27:18Z</time>
  <course>269.96</course>
  <speed>0.0</speed>
  <fix>3d</fix>
</trkpt>
<trkpt lat="40.072842" lon="-105.2305751">
  <ele>1586.09</ele>
  <time>2026-08-27T18:27:18Z</time>
  <course>11.87</course>
  <speed>0.022360679774997897</speed>
  <fix>3d</fix>
</trkpt>
<trkpt lat="40.072842" lon="-105.2305751">
  <ele>1586.09</ele>
  <time>2026-08-27T18:27:18Z</time>
  <course>269.96</course>
  <speed>0.0</speed>
  <fix>3d</fix>
</trkpt>
<trkpt lat="40.072842" lon="-105.2305751">
  <ele>1586.09</ele>
  <time>2026-08-27T18:27:18Z</time>
  <course>11.86</course>
  <speed>0.022360679774997897</speed>
  <fix>3d</fix>
</trkpt>
<trkpt lat="40.072842" lon="-105.2305751">
  <ele>1586.09</ele>
  <time>2026-08-27T18:27:18Z</time>
  <course>269.96</course>
  <speed>0.0</speed>
  <fix>3d</fix>
</trkpt>
<trkpt lat="40.072842" lon="-105.2305751">
  <ele>1586.09</ele>
  <time>2026-08-27T18:27:18Z</time>
  <course>11.86</course>
  <speed>0.022360679774997897</speed>
  <fix>3d</fix>
</trkpt>
<trkpt lat="40.072842" lon="-105.2305751">
  <ele>1586.09</ele>
  <time>2026-08-27T18:27:18Z</time>
  <course>269.96</course>
  <speed>0.0</speed>
  <fix>3d</fix>
</trkpt>
<trkpt lat="40.072842" lon="-105.2305751">
  <ele>1586.09</ele>
  <time>2026-08-27T18:27:18Z</time>
  <course>11.85</course>
  <speed>0.022360679774997897</speed>
  <fix>3d</fix>
</trkpt>
<trkpt lat="40.072842" lon="-105.2305751">
  <ele>1586.09</ele>
  <time>2026-08-27T18:27:18Z</time>
  <course>269.96</course>
  <speed>0.0</speed>
  <fix>3d</fix>
</trkpt>
<trkpt lat="40.072842" lon="-105.2305751">
  <ele>1586.09</ele>
  <time>2026-08-27T18:27:18Z</time>
  <course>11.84</course>
  <speed>0.022360679774997897</speed>
  <fix>3d</fix>
</trkpt>
<trkpt lat="40.072842" lon="-105.2305751">
  <ele>1586.09</ele>
  <time>2026-08-27T18:27:18Z</time>
  <course>269.96</course>
  <speed>0.0</speed>
  <fix>3d</fix>
</trkpt>
<trkpt lat="40.072842" lon="-105.2305751">
  <ele>1586.09</ele>
  <time>2026-08-27T18:27:18Z</time>
  <course>11.83</course>
  <speed>0.022360679774997897</speed>
  <fix>3d</fix>
</trkpt>
<trkpt lat="40.072842" lon="-105.2305751">
  <ele>1586.09</ele>
  <time>2026-08-27T18:27:18Z</time>
  <course>269.96</course>
  <speed>0.0</speed>
  <fix>3d</fix>
</trkpt>
<trkpt lat="40.072842" lon="-105.2305751">
  <ele>1586.09</ele>
  <time>2026-08-27T18:27:18Z</time>
  <course>11.82</course>
  <speed>0.022360679774997897</speed>
  <fix>3d</fix>
</trkpt>
<trkpt lat="40.072842" lon="-105.2305751">
  <ele>1586.09</ele>
  <time>2026-08-27T18:27:18Z</time>
  <course>269.96</course>
  <speed>0.0</speed>
  <fix>3d</fix>
</trkpt>
<trkpt lat="40.072842" lon="-105.2305751">
  <ele>1586.09</ele>
  <time>2026-08-27T18:27:18Z</time>
  <course>11.82</course>
  <speed>0.0282842712474619</speed>
  <fix>3d</fix>
</trkpt>
<trkpt lat="40.072842" lon="-105.2305751">
  <ele>1586.09</ele>
  <time>2026-08-27T18:27:18Z</time>
  <course>269.96</course>
  <speed>0.0</speed>
  <fix>3d</fix>
</trkpt>
<trkpt lat="40.072842" lon="-105.2305751">
  <ele>1586.09</ele>
  <time>2026-08-27T18:27:18Z</time>
  <course>11.81</course>
  <speed>0.0282842712474619</speed>
  <fix>3d</fix>
</trkpt>
<trkpt lat="40.072842" lon="-105.2305751">
  <ele>1586.09</ele>
  <time>2026-08-27T18:27:18Z</time>
  <course>269.96</course>
  <speed>0.0</speed>
  <fix>3d</fix>
</trkpt>
<trkpt lat="40.072842" lon="-105.2305751">
  <ele>1586.09</ele>
  <time>2026-08-27T18:27:18Z</time>
  <course>11.8</course>
  <speed>0.0282842712474619</speed>
  <fix>3d</fix>
</trkpt>
<trkpt lat="40.072842" lon="-105.2305751">
  <ele>1586.09</ele>
  <time>2026-08-27T18:27:18Z</time>
  <course>269.96</course>
  <speed>0.0</speed>
  <fix>3d</fix>
</trkpt>
<trkpt lat="40.072842" lon="-105.2305751">
  <ele>1586.09</ele>
  <time>2026-08-27T18:27:18Z</time>
  <course>11.79</course>
  <speed>0.0282842712474619</speed>
  <fix>3d</fix>
</trkpt>
<trkpt lat="40.072842" lon="-105.2305751">
  <ele>1586.09</ele>
  <time>2026-08-27T18:27:18Z</time>
  <course>269.96</course>
  <speed>0.0</speed>
  <fix>3d</fix>
</trkpt>
<trkpt lat="40.072842" lon="-105.2305751">
  <ele>1586.09</ele>
  <time>2026-08-27T18:27:18Z</time>
  <course>11.78</course>
  <speed>0.0282842712474619</speed>
  <fix>3d</fix>
</trkpt>
<trkpt lat="40.072842" lon="-105.2305751">
  <ele>1586.09</ele>
  <time>2026-08-27T18:27:18Z</time>
  <course>269.96</course>
  <speed>0.0</speed>
  <fix>3d</fix>
</trkpt>
<trkpt lat="40.072842" lon="-105.2305751">
  <ele>1586.09</ele>
  <time>2026-08-27T18:27:18Z</time>
  <course>11.78</course>
  <speed>0.0282842712474619</speed>
  <fix>3d</fix>
</trkpt>
<trkpt lat="40.072842" lon="-105.2305751">
  <ele>1586.09</ele>
  <time>2026-08-27T18:27:18Z</time>
  <course>269.96</course>
  <speed>0.0</speed>
  <fix>3d</fix>
</trkpt>
<trkpt lat="40.072842" lon="-105.2305751">
  <ele>1586.09</ele>
  <time>2026-08-27T18:27:18Z</time>
  <course>11.77</course>
  <speed>0.0282842712474619</speed>
  <fix>3d</fix>
</trkpt>
<trkpt lat="40.072842" lon="-105.2305751">
  <ele>1586.09</ele>
  <time>2026-08-27T18:27:18Z</time>
  <course>269.96</course>
  <speed>0.0</speed>
  <fix>3d</fix>
</trkpt>
<trkpt lat="40.072842" lon="-105.2305751">
  <ele>1586.09</ele>
  <time>2026-08-27T18:27:18Z</time>
  <course>11.76</course>
  <speed>0.0282842712474619</speed>
  <fix>3d</fix>
</trkpt>
<trkpt lat="40.072842" lon="-105.2305751">
  <ele>1586.09</ele>
  <time>2026-08-27T18:27:18Z</time>
  <course>269.96</course>
  <speed>0.0</speed>
  <fix>3d</fix>
</trkpt>
<trkpt lat="40.072842" lon="-105.2305751">
  <ele>1586.09</ele>
  <time>2026-08-27T18:27:18Z</time>
  <course>11.76</course>
  <speed>0.0282842712474619</speed>
  <fix>3d</fix>
</trkpt>
<trkpt lat="40.072842" lon="-105.2305751">
  <ele>1586.09</ele>
  <time>2026-08-27T18:27:18Z</time>
  <course>269.96</course>
  <speed>0.0</speed>
  <fix>3d</fix>
</trkpt>
<trkpt lat="40.072842" lon="-105.2305751">
  <ele>1586.09</ele>
  <time>2026-08-27T18:27:18Z</time>
  <course>11.75</course>
  <speed>0.0282842712474619</speed>
  <fix>3d</fix>
</trkpt>
<trkpt lat="40.072842" lon="-105.2305751">
  <ele>1586.09</ele>
  <time>2026-08-27T18:27:18Z</time>
  <course>269.96</course>
  <speed>0.0</speed>
  <fix>3d</fix>
</trkpt>
<trkpt lat="40.072842" lon="-105.2305751">
  <ele>1586.09</ele>
  <time>2026-08-27T18:27:18Z</time>
  <course>11.74</course>
  <speed>0.0282842712474619</speed>
  <fix>3d</fix>
</trkpt>
<trkpt lat="40.072842" lon="-105.2305751">
  <ele>1586.09</ele>
  <time>2026-08-27T18:27:18Z</time>
  <course>269.96</course>
  <speed>0.0</speed>
  <fix>3d</fix>
</trkpt>
<trkpt lat="40.072842" lon="-105.2305751">
  <ele>1586.09</ele>
  <time>2026-08-27T18:27:18Z</time>
  <course>11.73</course>
  <speed>0.03605551275463989</speed>
  <fix>3d</fix>
</trkpt>
<trkpt lat="40.072842" lon="-105.2305751">
  <ele>1586.09</ele>
  <time>2026-08-27T18:27:18Z</time>
  <course>269.96</course>
  <speed>0.0</speed>
  <fix>3d</fix>
</trkpt>
<trkpt lat="40.072842" lon="-105.2305751">
  <ele>1586.09</ele>
  <time>2026-08-27T18:27:18Z</time>
  <course>11.72</course>
  <speed>0.03605551275463989</speed>
  <fix>3d</fix>
</trkpt>
<trkpt lat="40.072842" lon="-105.2305751">
  <ele>1586.09</ele>
  <time>2026-08-27T18:27:18Z</time>
  <course>269.96</course>
  <speed>0.0</speed>
  <fix>3d</fix>
</trkpt>
<trkpt lat="40.072842" lon="-105.2305751">
  <ele>1586.09</ele>
  <time>2026-08-27T18:27:18Z</time>
  <course>11.72</course>
  <speed>0.03605551275463989</speed>
  <fix>3d</fix>
</trkpt>
<trkpt lat="40.072842" lon="-105.2305751">
  <ele>1586.09</ele>
  <time>2026-08-27T18:27:18Z</time>
  <course>269.96</course>
  <speed>0.0</speed>
  <fix>3d</fix>
</trkpt>
<trkpt lat="40.072842" lon="-105.2305751">
  <ele>1586.09</ele>
  <time>2026-08-27T18:27:18Z</time>
  <course>11.71</course>
  <speed>0.03605551275463989</speed>
  <fix>3d</fix>
</trkpt>
<trkpt lat="40.072842" lon="-105.2305751">
  <ele>1586.09</ele>
  <time>2026-08-27T18:27:18Z</time>
  <course>269.96</course>
  <speed>0.0</speed>
  <fix>3d</fix>
</trkpt>
<trkpt lat="40.072842" lon="-105.2305751">
  <ele>1586.09</ele>
  <time>2026-08-27T18:27:18Z</time>
  <course>11.7</course>
  <speed>0.03605551275463989</speed>
  <fix>3d</fix>
</trkpt>
<trkpt lat="40.072842" lon="-105.2305751">
  <ele>1586.09</ele>
  <time>2026-08-27T18:27:18Z</time>
  <course>269.96</course>
  <speed>0.0</speed>
  <fix>3d</fix>
</trkpt>
<trkpt lat="40.072842" lon="-105.2305751">
  <ele>1586.09</ele>
  <time>2026-08-27T18:27:18Z</time>
  <course>11.69</course>
  <speed>0.03605551275463989</speed>
  <fix>3d</fix>
</trkpt>
<trkpt lat="40.072842" lon="-105.2305751">
  <ele>1586.09</ele>
  <time>2026-08-27T18:27:18Z</time>
  <course>269.96</course>
  <speed>0.0</speed>
  <fix>3d</fix>
</trkpt>
<trkpt lat="40.072842" lon="-105.2305751">
  <ele>1586.09</ele>
  <time>2026-08-27T18:27:18Z</time>
  <course>11.69</course>
  <speed>0.03605551275463989</speed>
  <fix>3d</fix>
</trkpt>
<trkpt lat="40.072842" lon="-105.2305751">
  <ele>1586.09</ele>
  <time>2026-08-27T18:27:18Z</time>
  <course>269.96</course>
  <speed>0.0</speed>
  <fix>3d</fix>
</trkpt>
<trkpt lat="40.072842" lon="-105.2305751">
  <ele>1586.09</ele>
  <time>2026-08-27T18:27:18Z</time>
  <course>11.68</course>
  <speed>0.03605551275463989</speed>
  <fix>3d</fix>
</trkpt>
<trkpt lat="40.072842" lon="-105.2305751">
  <ele>1586.09</ele>
  <time>2026-08-27T18:27:18Z</time>
  <course>269.96</course>
  <speed>0.0</speed>
  <fix>3d</fix>
</trkpt>
<trkpt lat="40.072842" lon="-105.2305751">
  <ele>1586.09</ele>
  <time>2026-08-27T18:27:18Z</time>
  <course>11.67</course>
  <speed>0.03605551275463989</speed>
  <fix>3d</fix>
</trkpt>
<trkpt lat="40.072842" lon="-105.2305751">
  <ele>1586.09</ele>
  <time>2026-08-27T18:27:18Z</time>
  <course>269.96</course>
  <speed>0.0</speed>
  <fix>3d</fix>
</trkpt>
<trkpt lat="40.072842" lon="-105.2305751">
  <ele>1586.09</ele>
  <time>2026-08-27T18:27:18Z</time>
  <course>11.67</course>
  <speed>0.03605551275463989</speed>
  <fix>3d</fix>
</trkpt>
<trkpt lat="40.072842" lon="-105.2305751">
  <ele>1586.09</ele>
  <time>2026-08-27T18:27:18Z</time>
  <course>269.96</course>
  <speed>0.0</speed>
  <fix>3d</fix>
</trkpt>
<trkpt lat="40.072842" lon="-105.2305751">
  <ele>1586.09</ele>
  <time>2026-08-27T18:27:18Z</time>
  <course>11.66</course>
  <speed>0.03605551275463989</speed>
  <fix>3d</fix>
</trkpt>
<trkpt lat="40.072842" lon="-105.2305751">
  <ele>1586.09</ele>
  <time>2026-08-27T18:27:18Z</time>
  <course>269.96</course>
  <speed>0.0</speed>
  <fix>3d</fix>
</trkpt>
<trkpt lat="40.072842" lon="-105.2305751">
  <ele>1586.09</ele>
  <time>2026-08-27T18:27:18Z</time>
  <course>11.65</course>
  <speed>0.03605551275463989</speed>
  <fix>3d</fix>
</trkpt>
<trkpt lat="40.072842" lon="-105.2305751">
  <ele>1586.09</ele>
  <time>2026-08-27T18:27:18Z</time>
  <course>269.96</course>
  <speed>0.0</speed>
  <fix>3d</fix>
</trkpt>
<trkpt lat="40.072842" lon="-105.2305751">
  <ele>1586.09</ele>
  <time>2026-08-27T18:27:18Z</time>
  <course>11.64</course>
  <speed>0.03605551275463989</speed>
  <fix>3d</fix>
</trkpt>
<trkpt lat="40.072842" lon="-105.2305751">
  <ele>1586.09</ele>
  <time>2026-08-27T18:27:18Z</time>
  <course>269.96</course>
  <speed>0.0</speed>
  <fix>3d</fix>
</trkpt>
<trkpt lat="40.072842" lon="-105.2305751">
  <ele>1586.09</ele>
  <time>2026-08-27T18:27:18Z</time>
  <course>11.64</course>
  <speed>0.03605551275463989</speed>
  <fix>3d</fix>
</trkpt>
<trkpt lat="40.072842" lon="-105.2305751">
  <ele>1586.09</ele>
  <time>2026-08-27T18:27:18Z</time>
  <course>269.96</course>
  <speed>0.0</speed>
  <fix>3d</fix>
</trkpt>
<trkpt lat="40.072842" lon="-105.2305751">
  <ele>1586.09</ele>
  <time>2026-08-27T18:27:18Z</time>
  <course>11.63</course>
  <speed>0.03605551275463989</speed>
  <fix>3d</fix>
</trkpt>
<trkpt lat="40.072842" lon="-105.2305751">
  <ele>1586.09</ele>
  <time>2026-08-27T18:27:18Z</time>
  <course>269.96</course>
  <speed>0.0</speed>
  <fix>3d</fix>
</trkpt>
<trkpt lat="40.072842" lon="-105.2305751">
  <ele>1586.09</ele>
  <time>2026-08-27T18:27:18Z</time>
  <course>11.62</course>
  <speed>0.03605551275463989</speed>
  <fix>3d</fix>
</trkpt>
<trkpt lat="40.072842" lon="-105.2305751">
  <ele>1586.09</ele>
  <time>2026-08-27T18:27:18Z</time>
  <course>269.96</course>
  <speed>0.0</speed>
  <fix>3d</fix>
</trkpt>
<trkpt lat="40.072842" lon="-105.2305751">
  <ele>1586.09</ele>
  <time>2026-08-27T18:27:18Z</time>
  <course>11.62</course>
  <speed>0.03605551275463989</speed>
  <fix>3d</fix>
</trkpt>
<trkpt lat="40.072842" lon="-105.2305751">
  <ele>1586.09</ele>
  <time>2026-08-27T18:27:18Z</time>
  <course>269.96</course>
  <speed>0.0</speed>
  <fix>3d</fix>
</trkpt>
<trkpt lat="40.072842" lon="-105.2305751">
  <ele>1586.09</ele>
  <time>2026-08-27T18:27:18Z</time>
  <course>11.61</course>
  <speed>0.03605551275463989</speed>
  <fix>3d</fix>
</trkpt>
<trkpt lat="40.072842" lon="-105.2305751">
  <ele>1586.09</ele>
  <time>2026-08-27T18:27:18Z</time>
  <course>269.96</course>
  <speed>0.0</speed>
  <fix>3d</fix>
</trkpt>
<trkpt lat="40.072842" lon="-105.2305751">
  <ele>1586.09</ele>
  <time>2026-08-27T18:27:18Z</time>
  <course>11.6</course>
  <speed>0.03605551275463989</speed>
  <fix>3d</fix>
</trkpt>
<trkpt lat="40.072842" lon="-105.2305751">
  <ele>1586.09</ele>
  <time>2026-08-27T18:27:18Z</time>
  <course>269.96</course>
  <speed>0.0</speed>
  <fix>3d</fix>
</trkpt>
<trkpt lat="40.072842" lon="-105.2305751">
  <ele>1586.09</ele>
  <time>2026-08-27T18:27:18Z</time>
  <course>11.6</course>
  <speed>0.03605551275463989</speed>
  <fix>3d</fix>
</trkpt>
<trkpt lat="40.072842" lon="-105.2305751">
  <ele>1586.09</ele>
  <time>2026-08-27T18:27:18Z</time>
  <course>269.96</course>
  <speed>0.0</speed>
  <fix>3d</fix>
</trkpt>
<trkpt lat="40.072842" lon="-105.2305751">
  <ele>1586.09</ele>
  <time>2026-08-27T18:27:18Z</time>
  <course>11.59</course>
  <speed>0.03605551275463989</speed>
  <fix>3d</fix>
</trkpt>
<trkpt lat="40.072842" lon="-105.2305751">
  <ele>1586.09</ele>
  <time>2026-08-27T18:27:18Z</time>
  <course>269.96</course>
  <speed>0.0</speed>
  <fix>3d</fix>
</trkpt>
<trkpt lat="40.072842" lon="-105.2305751">
  <ele>1586.09</ele>
  <time>2026-08-27T18:27:18Z</time>
  <course>11.59</course>
  <speed>0.03605551275463989</speed>
  <fix>3d</fix>
</trkpt>
<trkpt lat="40.072842" lon="-105.2305751">
  <ele>1586.09</ele>
  <time>2026-08-27T18:27:18Z</time>
  <course>269.96</course>
  <speed>0.0</speed>
  <fix>3d</fix>
</trkpt>
<trkpt lat="40.072842" lon="-105.2305751">
  <ele>1586.09</ele>
  <time>2026-08-27T18:27:18Z</time>
  <course>11.58</course>
  <speed>0.03605551275463989</speed>
  <fix>3d</fix>
</trkpt>
<trkpt lat="40.072842" lon="-105.2305751">
  <ele>1586.09</ele>
  <time>2026-08-27T18:27:18Z</time>
  <course>269.96</course>
  <speed>0.0</speed>
  <fix>3d</fix>
</trkpt>
<trkpt lat="40.072842" lon="-105.2305751">
  <ele>1586.09</ele>
  <time>2026-08-27T18:27:18Z</time>
  <course>11.57</course>
  <speed>0.03605551275463989</speed>
  <fix>3d</fix>
</trkpt>
<trkpt lat="40.072842" lon="-105.2305751">
  <ele>1586.09</ele>
  <time>2026-08-27T18:27:18Z</time>
  <course>269.96</course>
  <speed>0.0</speed>
  <fix>3d</fix>
</trkpt>
<trkpt lat="40.072842" lon="-105.2305751">
  <ele>1586.09</ele>
  <time>2026-08-27T18:27:18Z</time>
  <course>11.57</course>
  <speed>0.03605551275463989</speed>
  <fix>3d</fix>
</trkpt>
<trkpt lat="40.072842" lon="-105.2305751">
  <ele>1586.09</ele>
  <time>2026-08-27T18:27:18Z</time>
  <course>269.96</course>
  <speed>0.0</speed>
  <fix>3d</fix>
</trkpt>
<trkpt lat="40.072842" lon="-105.2305751">
  <ele>1586.09</ele>
  <time>2026-08-27T18:27:18Z</time>
  <course>11.56</course>
  <speed>0.03605551275463989</speed>
  <fix>3d</fix>
</trkpt>
<trkpt lat="40.072842" lon="-105.2305751">
  <ele>1586.09</ele>
  <time>2026-08-27T18:27:18Z</time>
  <course>269.96</course>
  <speed>0.0</speed>
  <fix>3d</fix>
</trkpt>
<trkpt lat="40.072842" lon="-105.2305751">
  <ele>1586.09</ele>
  <time>2026-08-27T18:27:18Z</time>
  <course>11.55</course>
  <speed>0.03605551275463989</speed>
  <fix>3d</fix>
</trkpt>
<trkpt lat="40.072842" lon="-105.2305751">
  <ele>1586.09</ele>
  <time>2026-08-27T18:27:18Z</time>
  <course>269.96</course>
  <speed>0.0</speed>
  <fix>3d</fix>
</trkpt>
<trkpt lat="40.072842" lon="-105.2305751">
  <ele>1586.09</ele>
  <time>2026-08-27T18:27:18Z</time>
  <course>11.55</course>
  <speed>0.03605551275463989</speed>
  <fix>3d</fix>
</trkpt>
<trkpt lat="40.072842" lon="-105.2305751">
  <ele>1586.09</ele>
  <time>2026-08-27T18:27:18Z</time>
  <course>269.96</course>
  <speed>0.0</speed>
  <fix>3d</fix>
</trkpt>
<trkpt lat="40.072842" lon="-105.2305751">
  <ele>1586.09</ele>
  <time>2026-08-27T18:27:18Z</time>
  <course>11.54</course>
  <speed>0.03605551275463989</speed>
  <fix>3d</fix>
</trkpt>
<trkpt lat="40.072842" lon="-105.2305751">
  <ele>1586.09</ele>
  <time>2026-08-27T18:27:18Z</time>
  <course>269.96</course>
  <speed>0.0</speed>
  <fix>3d</fix>
</trkpt>
<trkpt lat="40.072842" lon="-105.2305751">
  <ele>1586.09</ele>
  <time>2026-08-27T18:27:18Z</time>
  <course>11.54</course>
  <speed>0.03605551275463989</speed>
  <fix>3d</fix>
</trkpt>
<trkpt lat="40.072842" lon="-105.2305751">
  <ele>1586.09</ele>
  <time>2026-08-27T18:27:18Z</time>
  <course>269.96</course>
  <speed>0.0</speed>
  <fix>3d</fix>
</trkpt>
<trkpt lat="40.072842" lon="-105.2305751">
  <ele>1586.09</ele>
  <time>2026-08-27T18:27:18Z</time>
  <course>11.53</course>
  <speed>0.03605551275463989</speed>
  <fix>3d</fix>
</trkpt>
<trkpt lat="40.072842" lon="-105.2305751">
  <ele>1586.09</ele>
  <time>2026-08-27T18:27:18Z</time>
  <course>269.96</course>
  <speed>0.0</speed>
  <fix>3d</fix>
</trkpt>
<trkpt lat="40.072842" lon="-105.2305751">
  <ele>1586.09</ele>
  <time>2026-08-27T18:27:18Z</time>
  <course>11.53</course>
  <speed>0.03605551275463989</speed>
  <fix>3d</fix>
</trkpt>
<trkpt lat="40.072842" lon="-105.2305751">
  <ele>1586.09</ele>
  <time>2026-08-27T18:27:18Z</time>
  <course>269.96</course>
  <speed>0.0</speed>
  <fix>3d</fix>
</trkpt>
<trkpt lat="40.072842" lon="-105.2305751">
  <ele>1586.09</ele>
  <time>2026-08-27T18:27:18Z</time>
  <course>11.52</course>
  <speed>0.03605551275463989</speed>
  <fix>3d</fix>
</trkpt>
<trkpt lat="40.072842" lon="-105.2305751">
  <ele>1586.09</ele>
  <time>2026-08-27T18:27:18Z</time>
  <course>269.96</course>
  <speed>0.0</speed>
  <fix>3d</fix>
</trkpt>
<trkpt lat="40.072842" lon="-105.2305751">
  <ele>1586.09</ele>
  <time>2026-08-27T18:27:18Z</time>
  <course>11.51</course>
  <speed>0.03605551275463989</speed>
  <fix>3d</fix>
</trkpt>
<trkpt lat="40.072842" lon="-105.2305751">
  <ele>1586.09</ele>
  <time>2026-08-27T18:27:18Z</time>
  <course>269.96</course>
  <speed>0.0</speed>
  <fix>3d</fix>
</trkpt>
<trkpt lat="40.072842" lon="-105.2305751">
  <ele>1586.09</ele>
  <time>2026-08-27T18:27:18Z</time>
  <course>11.51</course>
  <speed>0.03605551275463989</speed>
  <fix>3d</fix>
</trkpt>
<trkpt lat="40.072842" lon="-105.2305751">
  <ele>1586.09</ele>
  <time>2026-08-27T18:27:18Z</time>
  <course>269.96</course>
  <speed>0.0</speed>
  <fix>3d</fix>
</trkpt>
<trkpt lat="40.072842" lon="-105.2305751">
  <ele>1586.09</ele>
  <time>2026-08-27T18:27:18Z</time>
  <course>11.5</course>
  <speed>0.03605551275463989</speed>
  <fix>3d</fix>
</trkpt>
<trkpt lat="40.072842" lon="-105.2305751">
  <ele>1586.09</ele>
  <time>2026-08-27T18:27:18Z</time>
  <course>269.96</course>
  <speed>0.0</speed>
  <fix>3d</fix>
</trkpt>
<trkpt lat="40.072842" lon="-105.2305751">
  <ele>1586.09</ele>
  <time>2026-08-27T18:27:18Z</time>
  <course>11.5</course>
  <speed>0.03605551275463989</speed>
  <fix>3d</fix>
</trkpt>
<trkpt lat="40.072842" lon="-105.2305751">
  <ele>1586.09</ele>
  <time>2026-08-27T18:27:18Z</time>
  <course>269.96</course>
  <speed>0.0</speed>
  <fix>3d</fix>
</trkpt>
<trkpt lat="40.072842" lon="-105.2305751">
  <ele>1586.09</ele>
  <time>2026-08-27T18:27:18Z</time>
  <course>11.49</course>
  <speed>0.044721359549995794</speed>
  <fix>3d</fix>
</trkpt>
<trkpt lat="40.072842" lon="-105.2305751">
  <ele>1586.09</ele>
  <time>2026-08-27T18:27:18Z</time>
  <course>269.96</course>
  <speed>0.0</speed>
  <fix>3d</fix>
</trkpt>
<trkpt lat="40.072842" lon="-105.2305751">
  <ele>1586.09</ele>
  <time>2026-08-27T18:27:18Z</time>
  <course>11.49</course>
  <speed>0.044721359549995794</speed>
  <fix>3d</fix>
</trkpt>
<trkpt lat="40.072842" lon="-105.2305751">
  <ele>1586.09</ele>
  <time>2026-08-27T18:27:18Z</time>
  <course>269.96</course>
  <speed>0.0</speed>
  <fix>3d</fix>
</trkpt>
<trkpt lat="40.072842" lon="-105.2305751">
  <ele>1586.09</ele>
  <time>2026-08-27T18:27:18Z</time>
  <course>11.48</course>
  <speed>0.044721359549995794</speed>
  <fix>3d</fix>
</trkpt>
<trkpt lat="40.072842" lon="-105.2305751">
  <ele>1586.09</ele>
  <time>2026-08-27T18:27:18Z</time>
  <course>269.96</course>
  <speed>0.0</speed>
  <fix>3d</fix>
</trkpt>
<trkpt lat="40.072842" lon="-105.2305751">
  <ele>1586.09</ele>
  <time>2026-08-27T18:27:18Z</time>
  <course>11.48</course>
  <speed>0.044721359549995794</speed>
  <fix>3d</fix>
</trkpt>
<trkpt lat="40.072842" lon="-105.2305751">
  <ele>1586.09</ele>
  <time>2026-08-27T18:27:18Z</time>
  <course>269.96</course>
  <speed>0.0</speed>
  <fix>3d</fix>
</trkpt>
<trkpt lat="40.072842" lon="-105.2305751">
  <ele>1586.09</ele>
  <time>2026-08-27T18:27:18Z</time>
  <course>11.47</course>
  <speed>0.044721359549995794</speed>
  <fix>3d</fix>
</trkpt>
<trkpt lat="40.072842" lon="-105.2305751">
  <ele>1586.09</ele>
  <time>2026-08-27T18:27:18Z</time>
  <course>269.96</course>
  <speed>0.0</speed>
  <fix>3d</fix>
</trkpt>
<trkpt lat="40.072842" lon="-105.2305751">
  <ele>1586.09</ele>
  <time>2026-08-27T18:27:18Z</time>
  <course>11.46</course>
  <speed>0.044721359549995794</speed>
  <fix>3d</fix>
</trkpt>
<trkpt lat="40.072842" lon="-105.2305751">
  <ele>1586.09</ele>
  <time>2026-08-27T18:27:18Z</time>
  <course>269.96</course>
  <speed>0.0</speed>
  <fix>3d</fix>
</trkpt>
<trkpt lat="40.072842" lon="-105.2305751">
  <ele>1586.09</ele>
  <time>2026-08-27T18:27:18Z</time>
  <course>11.46</course>
  <speed>0.044721359549995794</speed>
  <fix>3d</fix>
</trkpt>
<trkpt lat="40.072842" lon="-105.2305751">
  <ele>1586.09</ele>
  <time>2026-08-27T18:27:18Z</time>
  <course>269.96</course>
  <speed>0.0</speed>
  <fix>3d</fix>
</trkpt>
<trkpt lat="40.072842" lon="-105.2305751">
  <ele>1586.09</ele>
  <time>2026-08-27T18:27:18Z</time>
  <course>11.45</course>
  <speed>0.044721359549995794</speed>
  <fix>3d</fix>
</trkpt>
<trkpt lat="40.072842" lon="-105.2305751">
  <ele>1586.09</ele>
  <time>2026-08-27T18:27:18Z</time>
  <course>269.96</course>
  <speed>0.0</speed>
  <fix>3d</fix>
</trkpt>
<trkpt lat="40.072842" lon="-105.2305751">
  <ele>1586.15</ele>
  <time>2026-08-27T18:27:18Z</time>
  <course>11.45</course>
  <speed>0.0</speed>
  <fix>3d</fix>
</trkpt>
<trkpt lat="40.072842" lon="-105.2305751">
  <ele>1586.09</ele>
  <time>2026-08-27T18:27:18Z</time>
  <course>269.96</course>
  <speed>0.0</speed>
  <fix>3d</fix>
</trkpt>
<trkpt lat="40.072842" lon="-105.2305751">
  <ele>1586.15</ele>
  <time>2026-08-27T18:27:18Z</time>
  <course>11.44</course>
  <speed>0.0</speed>
  <fix>3d</fix>
</trkpt>
<trkpt lat="40.072842" lon="-105.2305751">
  <ele>1586.09</ele>
  <time>2026-08-27T18:27:18Z</time>
  <course>269.96</course>
  <speed>0.0</speed>
  <fix>3d</fix>
</trkpt>
<trkpt lat="40.072842" lon="-105.2305751">
  <ele>1586.14</ele>
  <time>2026-08-27T18:27:18Z</time>
  <course>11.44</course>
  <speed>0.0</speed>
  <fix>3d</fix>
</trkpt>
<trkpt lat="40.072842" lon="-105.2305751">
  <ele>1586.09</ele>
  <time>2026-08-27T18:27:18Z</time>
  <course>269.34</course>
  <speed>0.0</speed>
  <fix>3d</fix>
</trkpt>
<trkpt lat="40.072842" lon="-105.2305751">
  <ele>1586.14</ele>
  <time>2026-08-27T18:27:18Z</time>
  <course>11.44</course>
  <speed>0.0</speed>
  <fix>3d</fix>
</trkpt>
<trkpt lat="40.072842" lon="-105.2305751">
  <ele>1586.09</ele>
  <time>2026-08-27T18:27:18Z</time>
  <course>268.58</course>
  <speed>0.0</speed>
  <fix>3d</fix>
</trkpt>
<trkpt lat="40.072842" lon="-105.2305751">
  <ele>1586.14</ele>
  <time>2026-08-27T18:27:18Z</time>
  <course>11.43</course>
  <speed>0.0</speed>
  <fix>3d</fix>
</trkpt>
<trkpt lat="40.072842" lon="-105.2305751">
  <ele>1586.09</ele>
  <time>2026-08-27T18:27:18Z</time>
  <course>269.25</course>
  <speed>0.0</speed>
  <fix>3d</fix>
</trkpt>
<trkpt lat="40.072842" lon="-105.2305751">
  <ele>1586.14</ele>
  <time>2026-08-27T18:27:18Z</time>
  <course>11.43</course>
  <speed>0.01</speed>
  <fix>3d</fix>
</trkpt>
<trkpt lat="40.072842" lon="-105.2305751">
  <ele>1586.09</ele>
  <time>2026-08-27T18:27:18Z</time>
  <course>270.23</course>
  <speed>0.0</speed>
  <fix>3d</fix>
</trkpt>
<trkpt lat="40.072842" lon="-105.2305751">
  <ele>1586.14</ele>
  <time>2026-08-27T18:27:18Z</time>
  <course>11.42</course>
  <speed>0.01</speed>
  <fix>3d</fix>
</trkpt>
<trkpt lat="40.072842" lon="-105.2305751">
  <ele>1586.09</ele>
  <time>2026-08-27T18:27:18Z</time>
  <course>269.98</course>
  <speed>0.0</speed>
  <fix>3d</fix>
</trkpt>
<trkpt lat="40.072842" lon="-105.2305751">
  <ele>1586.14</ele>
  <time>2026-08-27T18:27:18Z</time>
  <course>11.42</course>
  <speed>0.01</speed>
  <fix>3d</fix>
</trkpt>
<trkpt lat="40.072842" lon="-105.2305751">
  <ele>1586.09</ele>
  <time>2026-08-27T18:27:18Z</time>
  <course>269.88</course>
  <speed>0.0</speed>
  <fix>3d</fix>
</trkpt>
<trkpt lat="40.072842" lon="-105.2305751">
  <ele>1586.14</ele>
  <time>2026-08-27T18:27:18Z</time>
  <course>11.41</course>
  <speed>0.01414213562373095</speed>
  <fix>3d</fix>
</trkpt>
<trkpt lat="40.072842" lon="-105.2305751">
  <ele>1586.09</ele>
  <time>2026-08-27T18:27:18Z</time>
  <course>269.92</course>
  <speed>0.0</speed>
  <fix>3d</fix>
</trkpt>
<trkpt lat="40.072842" lon="-105.2305751">
  <ele>1586.14</ele>
  <time>2026-08-27T18:27:18Z</time>
  <course>11.41</course>
  <speed>0.01414213562373095</speed>
  <fix>3d</fix>
</trkpt>
<trkpt lat="40.072842" lon="-105.2305751">
  <ele>1586.09</ele>
  <time>2026-08-27T18:27:18Z</time>
  <course>269.93</course>
  <speed>0.0</speed>
  <fix>3d</fix>
</trkpt>
<trkpt lat="40.072842" lon="-105.2305751">
  <ele>1586.15</ele>
  <time>2026-08-27T18:27:18Z</time>
  <course>11.41</course>
  <speed>0.01414213562373095</speed>
  <fix>3d</fix>
</trkpt>
<trkpt lat="40.072842" lon="-105.2305751">
  <ele>1586.09</ele>
  <time>2026-08-27T18:27:18Z</time>
  <course>269.92</course>
  <speed>0.0</speed>
  <fix>3d</fix>
</trkpt>
<trkpt lat="40.072842" lon="-105.2305751">
  <ele>1586.15</ele>
  <time>2026-08-27T18:27:18Z</time>
  <course>11.4</course>
  <speed>0.022360679774997897</speed>
  <fix>3d</fix>
</trkpt>
<trkpt lat="40.072842" lon="-105.2305751">
  <ele>1586.09</ele>
  <time>2026-08-27T18:27:18Z</time>
  <course>269.92</course>
  <speed>0.0</speed>
  <fix>3d</fix>
</trkpt>
<trkpt lat="40.072842" lon="-105.2305751">
  <ele>1586.15</ele>
  <time>2026-08-27T18:27:18Z</time>
  <course>11.4</course>
  <speed>0.022360679774997897</speed>
  <fix>3d</fix>
</trkpt>
<trkpt lat="40.072842" lon="-105.2305751">
  <ele>1586.09</ele>
  <time>2026-08-27T18:27:18Z</time>
  <course>269.95</course>
  <speed>0.0</speed>
  <fix>3d</fix>
</trkpt>
<trkpt lat="40.072842" lon="-105.2305751">
  <ele>1586.15</ele>
  <time>2026-08-27T18:27:18Z</time>
  <course>11.4</course>
  <speed>0.022360679774997897</speed>
  <fix>3d</fix>
</trkpt>
<trkpt lat="40.072842" lon="-105.2305751">
  <ele>1586.09</ele>
  <time>2026-08-27T18:27:18Z</time>
  <course>269.94</course>
  <speed>0.0</speed>
  <fix>3d</fix>
</trkpt>
<trkpt lat="40.072842" lon="-105.2305751">
  <ele>1586.16</ele>
  <time>2026-08-27T18:27:18Z</time>
  <course>11.39</course>
  <speed>0.022360679774997897</speed>
  <fix>3d</fix>
</trkpt>
<trkpt lat="40.072842" lon="-105.2305752">
  <ele>1586.09</ele>
  <time>2026-08-27T18:27:18Z</time>
  <course>269.91</course>
  <speed>0.0</speed>
  <fix>3d</fix>
</trkpt>
<trkpt lat="40.072842" lon="-105.2305751">
  <ele>1586.16</ele>
  <time>2026-08-27T18:27:18Z</time>
  <course>11.39</course>
  <speed>0.01414213562373095</speed>
  <fix>3d</fix>
</trkpt>
<trkpt lat="40.072842" lon="-105.2305753">
  <ele>1586.09</ele>
  <time>2026-08-27T18:27:18Z</time>
  <course>269.92</course>
  <speed>0.0</speed>
  <fix>3d</fix>
</trkpt>
<trkpt lat="40.072842" lon="-105.2305751">
  <ele>1586.16</ele>
  <time>2026-08-27T18:27:18Z</time>
  <course>11.38</course>
  <speed>0.01</speed>
  <fix>3d</fix>
</trkpt>
<trkpt lat="40.072842" lon="-105.2305753">
  <ele>1586.09</ele>
  <time>2026-08-27T18:27:18Z</time>
  <course>269.92</course>
  <speed>0.0</speed>
  <fix>3d</fix>
</trkpt>
<trkpt lat="40.072842" lon="-105.2305751">
  <ele>1586.16</ele>
  <time>2026-08-27T18:27:18Z</time>
  <course>11.38</course>
  <speed>0.01</speed>
  <fix>3d</fix>
</trkpt>
<trkpt lat="40.072842" lon="-105.2305753">
  <ele>1586.09</ele>
  <time>2026-08-27T18:27:18Z</time>
  <course>269.92</course>
  <speed>0.0</speed>
  <fix>3d</fix>
</trkpt>
<trkpt lat="40.072842" lon="-105.2305751">
  <ele>1586.16</ele>
  <time>2026-08-27T18:27:18Z</time>
  <course>11.38</course>
  <speed>0.0</speed>
  <fix>3d</fix>
</trkpt>
<trkpt lat="40.072842" lon="-105.2305753">
  <ele>1586.09</ele>
  <time>2026-08-27T18:27:18Z</time>
  <course>269.92</course>
  <speed>0.0</speed>
  <fix>3d</fix>
</trkpt>
<trkpt lat="40.072842" lon="-105.2305751">
  <ele>1586.16</ele>
  <time>2026-08-27T18:27:18Z</time>
  <course>11.37</course>
  <speed>0.0</speed>
  <fix>3d</fix>
</trkpt>
<trkpt lat="40.072842" lon="-105.2305753">
  <ele>1586.09</ele>
  <time>2026-08-27T18:27:18Z</time>
  <course>269.92</course>
  <speed>0.0</speed>
  <fix>3d</fix>
</trkpt>
<trkpt lat="40.072842" lon="-105.2305751">
  <ele>1586.16</ele>
  <time>2026-08-27T18:27:18Z</time>
  <course>11.37</course>
  <speed>0.0</speed>
  <fix>3d</fix>
</trkpt>
<trkpt lat="40.072842" lon="-105.2305753">
  <ele>1586.09</ele>
  <time>2026-08-27T18:27:18Z</time>
  <course>269.92</course>
  <speed>0.0</speed>
  <fix>3d</fix>
</trkpt>
<trkpt lat="40.072842" lon="-105.2305751">
  <ele>1586.16</ele>
  <time>2026-08-27T18:27:18Z</time>
  <course>11.37</course>
  <speed>0.0</speed>
  <fix>3d</fix>
</trkpt>
<trkpt lat="40.072842" lon="-105.2305753">
  <ele>1586.09</ele>
  <time>2026-08-27T18:27:18Z</time>
  <course>276.09</course>
  <speed>0.0</speed>
  <fix>3d</fix>
</trkpt>
<trkpt lat="40.072842" lon="-105.2305752">
  <ele>1586.16</ele>
  <time>2026-08-27T18:27:18Z</time>
  <course>11.36</course>
  <speed>0.0</speed>
  <fix>3d</fix>
</trkpt>
<trkpt lat="40.072842" lon="-105.2305753">
  <ele>1586.09</ele>
  <time>2026-08-27T18:27:18Z</time>
  <course>276.63</course>
  <speed>0.0</speed>
  <fix>3d</fix>
</trkpt>
<trkpt lat="40.072842" lon="-105.2305752">
  <ele>1586.16</ele>
  <time>2026-08-27T18:27:18Z</time>
  <course>11.36</course>
  <speed>0.0</speed>
  <fix>3d</fix>
</trkpt>
<trkpt lat="40.072842" lon="-105.2305753">
  <ele>1586.09</ele>
  <time>2026-08-27T18:27:18Z</time>
  <course>269.83</course>
  <speed>0.0</speed>
  <fix>3d</fix>
</trkpt>
<trkpt lat="40.072842" lon="-105.2305752">
  <ele>1586.16</ele>
  <time>2026-08-27T18:27:18Z</time>
  <course>11.36</course>
  <speed>0.0</speed>
  <fix>3d</fix>
</trkpt>
<trkpt lat="40.072842" lon="-105.2305753">
  <ele>1586.09</ele>
  <time>2026-08-27T18:27:18Z</time>
  <course>269.17</course>
  <speed>0.0</speed>
  <fix>3d</fix>
</trkpt>
<trkpt lat="40.072842" lon="-105.2305752">
  <ele>1586.16</ele>
  <time>2026-08-27T18:27:18Z</time>
  <course>11.35</course>
  <speed>0.0</speed>
  <fix>3d</fix>
</trkpt>
<trkpt lat="40.072842" lon="-105.2305753">
  <ele>1586.09</ele>
  <time>2026-08-27T18:27:18Z</time>
  <course>270.26</course>
  <speed>0.0</speed>
  <fix>3d</fix>
</trkpt>
<trkpt lat="40.072842" lon="-105.2305752">
  <ele>1586.16</ele>
  <time>2026-08-27T18:27:19Z</time>
  <course>11.35</course>
  <speed>0.0</speed>
  <fix>3d</fix>
</trkpt>
<trkpt lat="40.072842" lon="-105.2305753">
  <ele>1586.09</ele>
  <time>2026-08-27T18:27:19Z</time>
  <course>270.83</course>
  <speed>0.0</speed>
  <fix>3d</fix>
</trkpt>
<trkpt lat="40.072842" lon="-105.2305752">
  <ele>1586.16</ele>
  <time>2026-08-27T18:27:19Z</time>
  <course>11.35</course>
  <speed>0.0</speed>
  <fix>3d</fix>
</trkpt>
<trkpt lat="40.072842" lon="-105.2305753">
  <ele>1586.09</ele>
  <time>2026-08-27T18:27:19Z</time>
  <course>269.27</course>
  <speed>0.0</speed>
  <fix>3d</fix>
</trkpt>
<trkpt lat="40.072842" lon="-105.2305752">
  <ele>1586.16</ele>
  <time>2026-08-27T18:27:19Z</time>
  <course>11.34</course>
  <speed>0.0</speed>
  <fix>3d</fix>
</trkpt>
<trkpt lat="40.072842" lon="-105.2305753">
  <ele>1586.09</ele>
  <time>2026-08-27T18:27:19Z</time>
  <course>268.52</course>
  <speed>0.0</speed>
  <fix>3d</fix>
</trkpt>
<trkpt lat="40.072842" lon="-105.2305752">
  <ele>1586.16</ele>
  <time>2026-08-27T18:27:19Z</time>
  <course>11.34</course>
  <speed>0.0</speed>
  <fix>3d</fix>
</trkpt>
<trkpt lat="40.072842" lon="-105.2305753">
  <ele>1586.09</ele>
  <time>2026-08-27T18:27:19Z</time>
  <course>270.16</course>
  <speed>0.0</speed>
  <fix>3d</fix>
</trkpt>
<trkpt lat="40.072842" lon="-105.2305752">
  <ele>1586.16</ele>
  <time>2026-08-27T18:27:19Z</time>
  <course>11.34</course>
  <speed>0.0</speed>
  <fix>3d</fix>
</trkpt>
<trkpt lat="40.072842" lon="-105.2305753">
  <ele>1586.09</ele>
  <time>2026-08-27T18:27:19Z</time>
  <course>274.98</course>
  <speed>0.0</speed>
  <fix>3d</fix>
</trkpt>
<trkpt lat="40.072842" lon="-105.2305752">
  <ele>1586.16</ele>
  <time>2026-08-27T18:27:19Z</time>
  <course>11.34</course>
  <speed>0.0</speed>
  <fix>3d</fix>
</trkpt>
<trkpt lat="40.072842" lon="-105.2305753">
  <ele>1586.09</ele>
  <time>2026-08-27T18:27:19Z</time>
  <course>274.23</course>
  <speed>0.0</speed>
  <fix>3d</fix>
</trkpt>
<trkpt lat="40.072842" lon="-105.2305752">
  <ele>1586.16</ele>
  <time>2026-08-27T18:27:19Z</time>
  <course>11.34</course>
  <speed>0.0</speed>
  <fix>3d</fix>
</trkpt>
<trkpt lat="40.072842" lon="-105.2305753">
  <ele>1586.09</ele>
  <time>2026-08-27T18:27:19Z</time>
  <course>270.13</course>
  <speed>0.0</speed>
  <fix>3d</fix>
</trkpt>
<trkpt lat="40.072842" lon="-105.2305752">
  <ele>1586.16</ele>
  <time>2026-08-27T18:27:19Z</time>
  <course>11.34</course>
  <speed>0.0</speed>
  <fix>3d</fix>
</trkpt>
<trkpt lat="40.072842" lon="-105.2305753">
  <ele>1586.09</ele>
  <time>2026-08-27T18:27:19Z</time>
  <course>269.7</course>
  <speed>0.0</speed>
  <fix>3d</fix>
</trkpt>
<trkpt lat="40.072842" lon="-105.2305752">
  <ele>1586.16</ele>
  <time>2026-08-27T18:27:19Z</time>
  <course>11.35</course>
  <speed>0.0</speed>
  <fix>3d</fix>
</trkpt>
<trkpt lat="40.072842" lon="-105.2305753">
  <ele>1586.09</ele>
  <time>2026-08-27T18:27:19Z</time>
  <course>269.48</course>
  <speed>0.0</speed>
  <fix>3d</fix>
</trkpt>
<trkpt lat="40.072842" lon="-105.2305752">
  <ele>1586.16</ele>
  <time>2026-08-27T18:27:19Z</time>
  <course>11.36</course>
  <speed>0.0</speed>
  <fix>3d</fix>
</trkpt>
<trkpt lat="40.072842" lon="-105.2305753">
  <ele>1586.09</ele>
  <time>2026-08-27T18:27:19Z</time>
  <course>271.03</course>
  <speed>0.0</speed>
  <fix>3d</fix>
</trkpt>
<trkpt lat="40.072842" lon="-105.2305752">
  <ele>1586.16</ele>
  <time>2026-08-27T18:27:19Z</time>
  <course>11.37</course>
  <speed>0.0</speed>
  <fix>3d</fix>
</trkpt>
<trkpt lat="40.072842" lon="-105.2305753">
  <ele>1586.09</ele>
  <time>2026-08-27T18:27:19Z</time>
  <course>276.9</course>
  <speed>0.0</speed>
  <fix>3d</fix>
</trkpt>
<trkpt lat="40.072842" lon="-105.2305752">
  <ele>1586.16</ele>
  <time>2026-08-27T18:27:19Z</time>
  <course>11.39</course>
  <speed>0.0</speed>
  <fix>3d</fix>
</trkpt>
<trkpt lat="40.072842" lon="-105.2305753">
  <ele>1586.09</ele>
  <time>2026-08-27T18:27:19Z</time>
  <course>278.59</course>
  <speed>0.0</speed>
  <fix>3d</fix>
</trkpt>
<trkpt lat="40.072842" lon="-105.2305752">
  <ele>1586.16</ele>
  <time>2026-08-27T18:27:19Z</time>
  <course>11.41</course>
  <speed>0.0</speed>
  <fix>3d</fix>
</trkpt>
<trkpt lat="40.072842" lon="-105.2305753">
  <ele>1586.09</ele>
  <time>2026-08-27T18:27:19Z</time>
  <course>271.19</course>
  <speed>0.0</speed>
  <fix>3d</fix>
</trkpt>
<trkpt lat="40.072842" lon="-105.2305752">
  <ele>1586.16</ele>
  <time>2026-08-27T18:27:19Z</time>
  <course>11.44</course>
  <speed>0.0</speed>
  <fix>3d</fix>
</trkpt>
<trkpt lat="40.072842" lon="-105.2305753">
  <ele>1586.09</ele>
  <time>2026-08-27T18:27:19Z</time>
  <course>269.27</course>
  <speed>0.0</speed>
  <fix>3d</fix>
</trkpt>
<trkpt lat="40.072842" lon="-105.2305752">
  <ele>1586.17</ele>
  <time>2026-08-27T18:27:19Z</time>
  <course>11.47</course>
  <speed>0.0</speed>
  <fix>3d</fix>
</trkpt>
<trkpt lat="40.072842" lon="-105.2305753">
  <ele>1586.09</ele>
  <time>2026-08-27T18:27:19Z</time>
  <course>272.59</course>
  <speed>0.0</speed>
  <fix>3d</fix>
</trkpt>
<trkpt lat="40.072842" lon="-105.2305752">
  <ele>1586.17</ele>
  <time>2026-08-27T18:27:19Z</time>
  <course>11.51</course>
  <speed>0.01</speed>
  <fix>3d</fix>
</trkpt>
<trkpt lat="40.072842" lon="-105.2305753">
  <ele>1586.09</ele>
  <time>2026-08-27T18:27:19Z</time>
  <course>273.3</course>
  <speed>0.0</speed>
  <fix>3d</fix>
</trkpt>
<trkpt lat="40.072842" lon="-105.2305752">
  <ele>1586.17</ele>
  <time>2026-08-27T18:27:19Z</time>
  <course>11.56</course>
  <speed>0.01</speed>
  <fix>3d</fix>
</trkpt>
<trkpt lat="40.072842" lon="-105.2305753">
  <ele>1586.09</ele>
  <time>2026-08-27T18:27:19Z</time>
  <course>279.4</course>
  <speed>0.0</speed>
  <fix>3d</fix>
</trkpt>
<trkpt lat="40.072842" lon="-105.2305752">
  <ele>1586.18</ele>
  <time>2026-08-27T18:27:19Z</time>
  <course>11.62</course>
  <speed>0.01</speed>
  <fix>3d</fix>
</trkpt>
<trkpt lat="40.072842" lon="-105.2305753">
  <ele>1586.09</ele>
  <time>2026-08-27T18:27:19Z</time>
  <course>279.05</course>
  <speed>0.0</speed>
  <fix>3d</fix>
</trkpt>
<trkpt lat="40.072842" lon="-105.2305752">
  <ele>1586.18</ele>
  <time>2026-08-27T18:27:19Z</time>
  <course>11.68</course>
  <speed>0.01</speed>
  <fix>3d</fix>
</trkpt>
<trkpt lat="40.072842" lon="-105.2305753">
  <ele>1586.09</ele>
  <time>2026-08-27T18:27:19Z</time>
  <course>266.99</course>
  <speed>0.0</speed>
  <fix>3d</fix>
</trkpt>
<trkpt lat="40.072842" lon="-105.2305752">
  <ele>1586.18</ele>
  <time>2026-08-27T18:27:19Z</time>
  <course>11.75</course>
  <speed>0.01414213562373095</speed>
  <fix>3d</fix>
</trkpt>
<trkpt lat="40.072842" lon="-105.2305753">
  <ele>1586.09</ele>
  <time>2026-08-27T18:27:19Z</time>
  <course>266.83</course>
  <speed>0.0</speed>
  <fix>3d</fix>
</trkpt>
<trkpt lat="40.072842" lon="-105.2305752">
  <ele>1586.18</ele>
  <time>2026-08-27T18:27:19Z</time>
  <course>11.83</course>
  <speed>0.01414213562373095</speed>
  <fix>3d</fix>
</trkpt>
<trkpt lat="40.072842" lon="-105.2305753">
  <ele>1586.09</ele>
  <time>2026-08-27T18:27:19Z</time>
  <course>276.47</course>
  <speed>0.0</speed>
  <fix>3d</fix>
</trkpt>
<trkpt lat="40.072842" lon="-105.2305752">
  <ele>1586.18</ele>
  <time>2026-08-27T18:27:19Z</time>
  <course>11.92</course>
  <speed>0.01414213562373095</speed>
  <fix>3d</fix>
</trkpt>
<trkpt lat="40.072842" lon="-105.2305753">
  <ele>1586.09</ele>
  <time>2026-08-27T18:27:19Z</time>
  <course>276.0</course>
  <speed>0.0</speed>
  <fix>3d</fix>
</trkpt>
<trkpt lat="40.072842" lon="-105.2305752">
  <ele>1586.18</ele>
  <time>2026-08-27T18:27:19Z</time>
  <course>12.01</course>
  <speed>0.01414213562373095</speed>
  <fix>3d</fix>
</trkpt>
<trkpt lat="40.072842" lon="-105.2305753">
  <ele>1586.09</ele>
  <time>2026-08-27T18:27:19Z</time>
  <course>278.74</course>
  <speed>0.0</speed>
  <fix>3d</fix>
</trkpt>
<trkpt lat="40.072842" lon="-105.2305752">
  <ele>1586.18</ele>
  <time>2026-08-27T18:27:19Z</time>
  <course>12.11</course>
  <speed>0.01414213562373095</speed>
  <fix>3d</fix>
</trkpt>
<trkpt lat="40.072842" lon="-105.2305753">
  <ele>1586.09</ele>
  <time>2026-08-27T18:27:19Z</time>
  <course>280.61</course>
  <speed>0.0</speed>
  <fix>3d</fix>
</trkpt>
<trkpt lat="40.072842" lon="-105.2305752">
  <ele>1586.18</ele>
  <time>2026-08-27T18:27:19Z</time>
  <course>12.22</course>
  <speed>0.01414213562373095</speed>
  <fix>3d</fix>
</trkpt>
<trkpt lat="40.072842" lon="-105.2305753">
  <ele>1586.09</ele>
  <time>2026-08-27T18:27:19Z</time>
  <course>277.26</course>
  <speed>0.0</speed>
  <fix>3d</fix>
</trkpt>
<trkpt lat="40.0728419" lon="-105.2305752">
  <ele>1586.18</ele>
  <time>2026-08-27T18:27:19Z</time>
  <course>12.34</course>
  <speed>0.01414213562373095</speed>
  <fix>3d</fix>
</trkpt>
<trkpt lat="40.072842" lon="-105.2305753">
  <ele>1586.09</ele>
  <time>2026-08-27T18:27:19Z</time>
  <course>277.62</course>
  <speed>0.0</speed>
  <fix>3d</fix>
</trkpt>
<trkpt lat="40.0728419" lon="-105.2305752">
  <ele>1586.18</ele>
  <time>2026-08-27T18:27:19Z</time>
  <course>12.46</course>
  <speed>0.01414213562373095</speed>
  <fix>3d</fix>
</trkpt>
<trkpt lat="40.072842" lon="-105.2305753">
  <ele>1586.09</ele>
  <time>2026-08-27T18:27:19Z</time>
  <course>276.71</course>
  <speed>0.0</speed>
  <fix>3d</fix>
</trkpt>
<trkpt lat="40.0728419" lon="-105.2305752">
  <ele>1586.17</ele>
  <time>2026-08-27T18:27:19Z</time>
  <course>12.58</course>
  <speed>0.022360679774997897</speed>
  <fix>3d</fix>
</trkpt>
<trkpt lat="40.072842" lon="-105.2305753">
  <ele>1586.09</ele>
  <time>2026-08-27T18:27:19Z</time>
  <course>276.56</course>
  <speed>0.0</speed>
  <fix>3d</fix>
</trkpt>
<trkpt lat="40.0728419" lon="-105.2305752">
  <ele>1586.17</ele>
  <time>2026-08-27T18:27:19Z</time>
  <course>12.72</course>
  <speed>0.022360679774997897</speed>
  <fix>3d</fix>
</trkpt>
<trkpt lat="40.072842" lon="-105.2305753">
  <ele>1586.09</ele>
  <time>2026-08-27T18:27:19Z</time>
  <course>283.01</course>
  <speed>0.0</speed>
  <fix>3d</fix>
</trkpt>
<trkpt lat="40.0728419" lon="-105.2305752">
  <ele>1586.17</ele>
  <time>2026-08-27T18:27:19Z</time>
  <course>12.85</course>
  <speed>0.022360679774997897</speed>
  <fix>3d</fix>
</trkpt>
<trkpt lat="40.072842" lon="-105.2305753">
  <ele>1586.09</ele>
  <time>2026-08-27T18:27:19Z</time>
  <course>283.51</course>
  <speed>0.0</speed>
  <fix>3d</fix>
</trkpt>
<trkpt lat="40.0728419" lon="-105.2305752">
  <ele>1586.17</ele>
  <time>2026-08-27T18:27:19Z</time>
  <course>13.0</course>
  <speed>0.022360679774997897</speed>
  <fix>3d</fix>
</trkpt>
<trkpt lat="40.072842" lon="-105.2305753">
  <ele>1586.09</ele>
  <time>2026-08-27T18:27:19Z</time>
  <course>279.37</course>
  <speed>0.0</speed>
  <fix>3d</fix>
</trkpt>
<trkpt lat="40.0728419" lon="-105.2305752">
  <ele>1586.17</ele>
  <time>2026-08-27T18:27:19Z</time>
  <course>13.14</course>
  <speed>0.022360679774997897</speed>
  <fix>3d</fix>
</trkpt>
<trkpt lat="40.072842" lon="-105.2305753">
  <ele>1586.09</ele>
  <time>2026-08-27T18:27:19Z</time>
  <course>278.35</course>
  <speed>0.0</speed>
  <fix>3d</fix>
</trkpt>
<trkpt lat="40.0728419" lon="-105.2305752">
  <ele>1586.17</ele>
  <time>2026-08-27T18:27:19Z</time>
  <course>13.29</course>
  <speed>0.022360679774997897</speed>
  <fix>3d</fix>
</trkpt>
<trkpt lat="40.072842" lon="-105.2305753">
  <ele>1586.09</ele>
  <time>2026-08-27T18:27:19Z</time>
  <course>278.69</course>
  <speed>0.0</speed>
  <fix>3d</fix>
</trkpt>
<trkpt lat="40.0728419" lon="-105.2305752">
  <ele>1586.18</ele>
  <time>2026-08-27T18:27:19Z</time>
  <course>13.44</course>
  <speed>0.022360679774997897</speed>
  <fix>3d</fix>
</trkpt>
<trkpt lat="40.072842" lon="-105.2305753">
  <ele>1586.09</ele>
  <time>2026-08-27T18:27:19Z</time>
  <course>281.42</course>
  <speed>0.0</speed>
  <fix>3d</fix>
</trkpt>
<trkpt lat="40.0728419" lon="-105.2305752">
  <ele>1586.18</ele>
  <time>2026-08-27T18:27:19Z</time>
  <course>13.6</course>
  <speed>0.022360679774997897</speed>
  <fix>3d</fix>
</trkpt>
<trkpt lat="40.072842" lon="-105.2305753">
  <ele>1586.09</ele>
  <time>2026-08-27T18:27:19Z</time>
  <course>287.35</course>
  <speed>0.0</speed>
  <fix>3d</fix>
</trkpt>
<trkpt lat="40.0728419" lon="-105.2305752">
  <ele>1586.18</ele>
  <time>2026-08-27T18:27:19Z</time>
  <course>13.76</course>
  <speed>0.022360679774997897</speed>
  <fix>3d</fix>
</trkpt>
<trkpt lat="40.072842" lon="-105.2305753">
  <ele>1586.09</ele>
  <time>2026-08-27T18:27:19Z</time>
  <course>287.47</course>
  <speed>0.0</speed>
  <fix>3d</fix>
</trkpt>
<trkpt lat="40.0728419" lon="-105.2305752">
  <ele>1586.18</ele>
  <time>2026-08-27T18:27:19Z</time>
  <course>13.91</course>
  <speed>0.022360679774997897</speed>
  <fix>3d</fix>
</trkpt>
<trkpt lat="40.072842" lon="-105.2305753">
  <ele>1586.09</ele>
  <time>2026-08-27T18:27:19Z</time>
  <course>281.25</course>
  <speed>0.0</speed>
  <fix>3d</fix>
</trkpt>
<trkpt lat="40.0728419" lon="-105.2305752">
  <ele>1586.18</ele>
  <time>2026-08-27T18:27:19Z</time>
  <course>14.07</course>
  <speed>0.022360679774997897</speed>
  <fix>3d</fix>
</trkpt>
<trkpt lat="40.072842" lon="-105.2305753">
  <ele>1586.09</ele>
  <time>2026-08-27T18:27:19Z</time>
  <course>279.71</course>
  <speed>0.0</speed>
  <fix>3d</fix>
</trkpt>
<trkpt lat="40.0728419" lon="-105.2305752">
  <ele>1586.18</ele>
  <time>2026-08-27T18:27:19Z</time>
  <course>14.22</course>
  <speed>0.022360679774997897</speed>
  <fix>3d</fix>
</trkpt>
<trkpt lat="40.072842" lon="-105.2305753">
  <ele>1586.09</ele>
  <time>2026-08-27T18:27:19Z</time>
  <course>281.71</course>
  <speed>0.0</speed>
  <fix>3d</fix>
</trkpt>
<trkpt lat="40.0728419" lon="-105.2305752">
  <ele>1586.18</ele>
  <time>2026-08-27T18:27:19Z</time>
  <course>14.38</course>
  <speed>0.022360679774997897</speed>
  <fix>3d</fix>
</trkpt>
<trkpt lat="40.072842" lon="-105.2305753">
  <ele>1586.09</ele>
  <time>2026-08-27T18:27:19Z</time>
  <course>283.39</course>
  <speed>0.0</speed>
  <fix>3d</fix>
</trkpt>
<trkpt lat="40.0728419" lon="-105.2305752">
  <ele>1586.18</ele>
  <time>2026-08-27T18:27:19Z</time>
  <course>14.53</course>
  <speed>0.022360679774997897</speed>
  <fix>3d</fix>
</trkpt>
<trkpt lat="40.072842" lon="-105.2305753">
  <ele>1586.09</ele>
  <time>2026-08-27T18:27:19Z</time>
  <course>282.8</course>
  <speed>0.0</speed>
  <fix>3d</fix>
</trkpt>
<trkpt lat="40.0728419" lon="-105.2305752">
  <ele>1586.18</ele>
  <time>2026-08-27T18:27:19Z</time>
  <course>14.67</course>
  <speed>0.022360679774997897</speed>
  <fix>3d</fix>
</trkpt>
<trkpt lat="40.072842" lon="-105.2305753">
  <ele>1586.09</ele>
  <time>2026-08-27T18:27:19Z</time>
  <course>286.59</course>
  <speed>0.0</speed>
  <fix>3d</fix>
</trkpt>
<trkpt lat="40.0728419" lon="-105.2305752">
  <ele>1586.18</ele>
  <time>2026-08-27T18:27:19Z</time>
  <course>14.82</course>
  <speed>0.022360679774997897</speed>
  <fix>3d</fix>
</trkpt>
<trkpt lat="40.072842" lon="-105.2305753">
  <ele>1586.09</ele>
  <time>2026-08-27T18:27:19Z</time>
  <course>286.54</course>
  <speed>0.0</speed>
  <fix>3d</fix>
</trkpt>
<trkpt lat="40.0728419" lon="-105.2305752">
  <ele>1586.18</ele>
  <time>2026-08-27T18:27:19Z</time>
  <course>14.96</course>
  <speed>0.022360679774997897</speed>
  <fix>3d</fix>
</trkpt>
<trkpt lat="40.072842" lon="-105.2305753">
  <ele>1586.09</ele>
  <time>2026-08-27T18:27:19Z</time>
  <course>281.47</course>
  <speed>0.0</speed>
  <fix>3d</fix>
</trkpt>
<trkpt lat="40.0728419" lon="-105.2305752">
  <ele>1586.18</ele>
  <time>2026-08-27T18:27:19Z</time>
  <course>15.1</course>
  <speed>0.022360679774997897</speed>
  <fix>3d</fix>
</trkpt>
<trkpt lat="40.072842" lon="-105.2305753">
  <ele>1586.09</ele>
  <time>2026-08-27T18:27:19Z</time>
  <course>280.81</course>
  <speed>0.0</speed>
  <fix>3d</fix>
</trkpt>
<trkpt lat="40.0728419" lon="-105.2305752">
  <ele>1586.18</ele>
  <time>2026-08-27T18:27:19Z</time>
  <course>15.23</course>
  <speed>0.022360679774997897</speed>
  <fix>3d</fix>
</trkpt>
<trkpt lat="40.072842" lon="-105.2305753">
  <ele>1586.09</ele>
  <time>2026-08-27T18:27:19Z</time>
  <course>276.39</course>
  <speed>0.0</speed>
  <fix>3d</fix>
</trkpt>
<trkpt lat="40.0728419" lon="-105.2305752">
  <ele>1586.18</ele>
  <time>2026-08-27T18:27:19Z</time>
  <course>15.36</course>
  <speed>0.022360679774997897</speed>
  <fix>3d</fix>
</trkpt>
<trkpt lat="40.072842" lon="-105.2305753">
  <ele>1586.09</ele>
  <time>2026-08-27T18:27:19Z</time>
  <course>274.21</course>
  <speed>0.0</speed>
  <fix>3d</fix>
</trkpt>
<trkpt lat="40.0728419" lon="-105.2305752">
  <ele>1586.18</ele>
  <time>2026-08-27T18:27:19Z</time>
  <course>15.49</course>
  <speed>0.022360679774997897</speed>
  <fix>3d</fix>
</trkpt>
<trkpt lat="40.072842" lon="-105.2305753">
  <ele>1586.09</ele>
  <time>2026-08-27T18:27:19Z</time>
  <course>281.4</course>
  <speed>0.0</speed>
  <fix>3d</fix>
</trkpt>
<trkpt lat="40.0728419" lon="-105.2305752">
  <ele>1586.18</ele>
  <time>2026-08-27T18:27:19Z</time>
  <course>15.61</course>
  <speed>0.022360679774997897</speed>
  <fix>3d</fix>
</trkpt>
<trkpt lat="40.072842" lon="-105.2305753">
  <ele>1586.09</ele>
  <time>2026-08-27T18:27:19Z</time>
  <course>283.66</course>
  <speed>0.0</speed>
  <fix>3d</fix>
</trkpt>
<trkpt lat="40.0728419" lon="-105.2305752">
  <ele>1586.18</ele>
  <time>2026-08-27T18:27:19Z</time>
  <course>15.73</course>
  <speed>0.022360679774997897</speed>
  <fix>3d</fix>
</trkpt>
<trkpt lat="40.072842" lon="-105.2305753">
  <ele>1586.09</ele>
  <time>2026-08-27T18:27:19Z</time>
  <course>280.27</course>
  <speed>0.0</speed>
  <fix>3d</fix>
</trkpt>
<trkpt lat="40.0728419" lon="-105.2305752">
  <ele>1586.18</ele>
  <time>2026-08-27T18:27:19Z</time>
  <course>15.85</course>
  <speed>0.022360679774997897</speed>
  <fix>3d</fix>
</trkpt>
<trkpt lat="40.072842" lon="-105.2305753">
  <ele>1586.09</ele>
  <time>2026-08-27T18:27:19Z</time>
  <course>284.16</course>
  <speed>0.0</speed>
  <fix>3d</fix>
</trkpt>
<trkpt lat="40.0728419" lon="-105.2305752">
  <ele>1586.18</ele>
  <time>2026-08-27T18:27:19Z</time>
  <course>15.97</course>
  <speed>0.022360679774997897</speed>
  <fix>3d</fix>
</trkpt>
<trkpt lat="40.072842" lon="-105.2305753">
  <ele>1586.09</ele>
  <time>2026-08-27T18:27:19Z</time>
  <course>287.07</course>
  <speed>0.0</speed>
  <fix>3d</fix>
</trkpt>
<trkpt lat="40.0728419" lon="-105.2305752">
  <ele>1586.18</ele>
  <time>2026-08-27T18:27:19Z</time>
  <course>16.08</course>
  <speed>0.022360679774997897</speed>
  <fix>3d</fix>
</trkpt>
<trkpt lat="40.072842" lon="-105.2305753">
  <ele>1586.09</ele>
  <time>2026-08-27T18:27:19Z</time>
  <course>282.04</course>
  <speed>0.0</speed>
  <fix>3d</fix>
</trkpt>
<trkpt lat="40.0728419" lon="-105.2305752">
  <ele>1586.18</ele>
  <time>2026-08-27T18:27:19Z</time>
  <course>16.18</course>
  <speed>0.022360679774997897</speed>
  <fix>3d</fix>
</trkpt>
<trkpt lat="40.072842" lon="-105.2305753">
  <ele>1586.09</ele>
  <time>2026-08-27T18:27:19Z</time>
  <course>281.37</course>
  <speed>0.0</speed>
  <fix>3d</fix>
</trkpt>
<trkpt lat="40.0728419" lon="-105.2305752">
  <ele>1586.18</ele>
  <time>2026-08-27T18:27:19Z</time>
  <course>16.29</course>
  <speed>0.022360679774997897</speed>
  <fix>3d</fix>
</trkpt>
<trkpt lat="40.072842" lon="-105.2305753">
  <ele>1586.09</ele>
  <time>2026-08-27T18:27:19Z</time>
  <course>282.09</course>
  <speed>0.0</speed>
  <fix>3d</fix>
</trkpt>
<trkpt lat="40.0728419" lon="-105.2305752">
  <ele>1586.17</ele>
  <time>2026-08-27T18:27:19Z</time>
  <course>16.39</course>
  <speed>0.022360679774997897</speed>
  <fix>3d</fix>
</trkpt>
<trkpt lat="40.072842" lon="-105.2305753">
  <ele>1586.09</ele>
  <time>2026-08-27T18:27:19Z</time>
  <course>281.99</course>
  <speed>0.0</speed>
  <fix>3d</fix>
</trkpt>
<trkpt lat="40.0728419" lon="-105.2305752">
  <ele>1586.17</ele>
  <time>2026-08-27T18:27:19Z</time>
  <course>16.49</course>
  <speed>0.022360679774997897</speed>
  <fix>3d</fix>
</trkpt>
<trkpt lat="40.072842" lon="-105.2305753">
  <ele>1586.09</ele>
  <time>2026-08-27T18:27:19Z</time>
  <course>281.66</course>
  <speed>0.0</speed>
  <fix>3d</fix>
</trkpt>
<trkpt lat="40.0728419" lon="-105.2305752">
  <ele>1586.17</ele>
  <time>2026-08-27T18:27:19Z</time>
  <course>16.58</course>
  <speed>0.022360679774997897</speed>
  <fix>3d</fix>
</trkpt>
<trkpt lat="40.072842" lon="-105.2305753">
  <ele>1586.09</ele>
  <time>2026-08-27T18:27:19Z</time>
  <course>280.28</course>
  <speed>0.0</speed>
  <fix>3d</fix>
</trkpt>
<trkpt lat="40.0728419" lon="-105.2305752">
  <ele>1586.17</ele>
  <time>2026-08-27T18:27:19Z</time>
  <course>16.67</course>
  <speed>0.022360679774997897</speed>
  <fix>3d</fix>
</trkpt>
<trkpt lat="40.072842" lon="-105.2305753">
  <ele>1586.09</ele>
  <time>2026-08-27T18:27:19Z</time>
  <course>280.4</course>
  <speed>0.0</speed>
  <fix>3d</fix>
</trkpt>
<trkpt lat="40.0728419" lon="-105.2305752">
  <ele>1586.17</ele>
  <time>2026-08-27T18:27:19Z</time>
  <course>16.76</course>
  <speed>0.022360679774997897</speed>
  <fix>3d</fix>
</trkpt>
<trkpt lat="40.072842" lon="-105.2305753">
  <ele>1586.09</ele>
  <time>2026-08-27T18:27:19Z</time>
  <course>281.99</course>
  <speed>0.0</speed>
  <fix>3d</fix>
</trkpt>
<trkpt lat="40.0728419" lon="-105.2305752">
  <ele>1586.17</ele>
  <time>2026-08-27T18:27:19Z</time>
  <course>16.85</course>
  <speed>0.022360679774997897</speed>
  <fix>3d</fix>
</trkpt>
<trkpt lat="40.072842" lon="-105.2305753">
  <ele>1586.09</ele>
  <time>2026-08-27T18:27:19Z</time>
  <course>286.91</course>
  <speed>0.0</speed>
  <fix>3d</fix>
</trkpt>
<trkpt lat="40.0728419" lon="-105.2305752">
  <ele>1586.18</ele>
  <time>2026-08-27T18:27:19Z</time>
  <course>16.93</course>
  <speed>0.022360679774997897</speed>
  <fix>3d</fix>
</trkpt>
<trkpt lat="40.072842" lon="-105.2305753">
  <ele>1586.09</ele>
  <time>2026-08-27T18:27:19Z</time>
  <course>287.42</course>
  <speed>0.0</speed>
  <fix>3d</fix>
</trkpt>
<trkpt lat="40.0728419" lon="-105.2305752">
  <ele>1586.18</ele>
  <time>2026-08-27T18:27:19Z</time>
  <course>17.01</course>
  <speed>0.022360679774997897</speed>
  <fix>3d</fix>
</trkpt>
<trkpt lat="40.072842" lon="-105.2305753">
  <ele>1586.09</ele>
  <time>2026-08-27T18:27:19Z</time>
  <course>281.59</course>
  <speed>0.0</speed>
  <fix>3d</fix>
</trkpt>
<trkpt lat="40.0728419" lon="-105.2305752">
  <ele>1586.18</ele>
  <time>2026-08-27T18:27:19Z</time>
  <course>17.09</course>
  <speed>0.022360679774997897</speed>
  <fix>3d</fix>
</trkpt>
<trkpt lat="40.072842" lon="-105.2305753">
  <ele>1586.09</ele>
  <time>2026-08-27T18:27:19Z</time>
  <course>280.49</course>
  <speed>0.0</speed>
  <fix>3d</fix>
</trkpt>
<trkpt lat="40.0728419" lon="-105.2305752">
  <ele>1586.18</ele>
  <time>2026-08-27T18:27:19Z</time>
  <course>17.16</course>
  <speed>0.022360679774997897</speed>
  <fix>3d</fix>
</trkpt>
<trkpt lat="40.072842" lon="-105.2305753">
  <ele>1586.09</ele>
  <time>2026-08-27T18:27:19Z</time>
  <course>281.95</course>
  <speed>0.0</speed>
  <fix>3d</fix>
</trkpt>
<trkpt lat="40.0728419" lon="-105.2305752">
  <ele>1586.18</ele>
  <time>2026-08-27T18:27:19Z</time>
  <course>17.23</course>
  <speed>0.022360679774997897</speed>
  <fix>3d</fix>
</trkpt>
<trkpt lat="40.072842" lon="-105.2305753">
  <ele>1586.09</ele>
  <time>2026-08-27T18:27:19Z</time>
  <course>280.31</course>
  <speed>0.0</speed>
  <fix>3d</fix>
</trkpt>
<trkpt lat="40.0728419" lon="-105.2305752">
  <ele>1586.18</ele>
  <time>2026-08-27T18:27:19Z</time>
  <course>17.3</course>
  <speed>0.022360679774997897</speed>
  <fix>3d</fix>
</trkpt>
<trkpt lat="40.072842" lon="-105.2305753">
  <ele>1586.09</ele>
  <time>2026-08-27T18:27:19Z</time>
  <course>279.52</course>
  <speed>0.0</speed>
  <fix>3d</fix>
</trkpt>
<trkpt lat="40.0728419" lon="-105.2305752">
  <ele>1586.19</ele>
  <time>2026-08-27T18:27:19Z</time>
  <course>17.37</course>
  <speed>0.022360679774997897</speed>
  <fix>3d</fix>
</trkpt>
<trkpt lat="40.072842" lon="-105.2305753">
  <ele>1586.09</ele>
  <time>2026-08-27T18:27:19Z</time>
  <course>281.31</course>
  <speed>0.0</speed>
  <fix>3d</fix>
</trkpt>
<trkpt lat="40.0728419" lon="-105.2305752">
  <ele>1586.19</ele>
  <time>2026-08-27T18:27:19Z</time>
  <course>17.43</course>
  <speed>0.022360679774997897</speed>
  <fix>3d</fix>
</trkpt>
<trkpt lat="40.072842" lon="-105.2305753">
  <ele>1586.09</ele>
  <time>2026-08-27T18:27:19Z</time>
  <course>281.12</course>
  <speed>0.0</speed>
  <fix>3d</fix>
</trkpt>
<trkpt lat="40.0728419" lon="-105.2305752">
  <ele>1586.19</ele>
  <time>2026-08-27T18:27:19Z</time>
  <course>17.49</course>
  <speed>0.022360679774997897</speed>
  <fix>3d</fix>
</trkpt>
<trkpt lat="40.072842" lon="-105.2305753">
  <ele>1586.09</ele>
  <time>2026-08-27T18:27:19Z</time>
  <course>280.78</course>
  <speed>0.0</speed>
  <fix>3d</fix>
</trkpt>
<trkpt lat="40.0728419" lon="-105.2305752">
  <ele>1586.19</ele>
  <time>2026-08-27T18:27:19Z</time>
  <course>17.55</course>
  <speed>0.022360679774997897</speed>
  <fix>3d</fix>
</trkpt>
<trkpt lat="40.072842" lon="-105.2305753">
  <ele>1586.09</ele>
  <time>2026-08-27T18:27:19Z</time>
  <course>280.73</course>
  <speed>0.0</speed>
  <fix>3d</fix>
</trkpt>
<trkpt lat="40.0728419" lon="-105.2305752">
  <ele>1586.19</ele>
  <time>2026-08-27T18:27:19Z</time>
  <course>17.61</course>
  <speed>0.022360679774997897</speed>
  <fix>3d</fix>
</trkpt>
<trkpt lat="40.072842" lon="-105.2305753">
  <ele>1586.09</ele>
  <time>2026-08-27T18:27:19Z</time>
  <course>280.66</course>
  <speed>0.0</speed>
  <fix>3d</fix>
</trkpt>
<trkpt lat="40.0728419" lon="-105.2305752">
  <ele>1586.19</ele>
  <time>2026-08-27T18:27:19Z</time>
  <course>17.66</course>
  <speed>0.022360679774997897</speed>
  <fix>3d</fix>
</trkpt>
<trkpt lat="40.072842" lon="-105.2305753">
  <ele>1586.09</ele>
  <time>2026-08-27T18:27:19Z</time>
  <course>285.99</course>
  <speed>0.0</speed>
  <fix>3d</fix>
</trkpt>
<trkpt lat="40.0728419" lon="-105.2305752">
  <ele>1586.18</ele>
  <time>2026-08-27T18:27:19Z</time>
  <course>17.71</course>
  <speed>0.022360679774997897</speed>
  <fix>3d</fix>
</trkpt>
<trkpt lat="40.072842" lon="-105.2305753">
  <ele>1586.09</ele>
  <time>2026-08-27T18:27:19Z</time>
  <course>286.19</course>
  <speed>0.0</speed>
  <fix>3d</fix>
</trkpt>
<trkpt lat="40.0728419" lon="-105.2305752">
  <ele>1586.18</ele>
  <time>2026-08-27T18:27:19Z</time>
  <course>17.76</course>
  <speed>0.022360679774997897</speed>
  <fix>3d</fix>
</trkpt>
<trkpt lat="40.072842" lon="-105.2305753">
  <ele>1586.09</ele>
  <time>2026-08-27T18:27:19Z</time>
  <course>279.46</course>
  <speed>0.0</speed>
  <fix>3d</fix>
</trkpt>
<trkpt lat="40.0728419" lon="-105.2305752">
  <ele>1586.18</ele>
  <time>2026-08-27T18:27:19Z</time>
  <course>17.8</course>
  <speed>0.022360679774997897</speed>
  <fix>3d</fix>
</trkpt>
<trkpt lat="40.072842" lon="-105.2305753">
  <ele>1586.09</ele>
  <time>2026-08-27T18:27:19Z</time>
  <course>278.32</course>
  <speed>0.0</speed>
  <fix>3d</fix>
</trkpt>
<trkpt lat="40.0728419" lon="-105.2305752">
  <ele>1586.18</ele>
  <time>2026-08-27T18:27:19Z</time>
  <course>17.85</course>
  <speed>0.022360679774997897</speed>
  <fix>3d</fix>
</trkpt>
<trkpt lat="40.072842" lon="-105.2305753">
  <ele>1586.09</ele>
  <time>2026-08-27T18:27:19Z</time>
  <course>274.54</course>
  <speed>0.0</speed>
  <fix>3d</fix>
</trkpt>
<trkpt lat="40.0728419" lon="-105.2305752">
  <ele>1586.18</ele>
  <time>2026-08-27T18:27:19Z</time>
  <course>17.89</course>
  <speed>0.022360679774997897</speed>
  <fix>3d</fix>
</trkpt>
<trkpt lat="40.072842" lon="-105.2305753">
  <ele>1586.09</ele>
  <time>2026-08-27T18:27:19Z</time>
  <course>274.49</course>
  <speed>0.0</speed>
  <fix>3d</fix>
</trkpt>
<trkpt lat="40.0728419" lon="-105.2305752">
  <ele>1586.18</ele>
  <time>2026-08-27T18:27:19Z</time>
  <course>17.92</course>
  <speed>0.022360679774997897</speed>
  <fix>3d</fix>
</trkpt>
<trkpt lat="40.072842" lon="-105.2305753">
  <ele>1586.09</ele>
  <time>2026-08-27T18:27:19Z</time>
  <course>280.83</course>
  <speed>0.0</speed>
  <fix>3d</fix>
</trkpt>
<trkpt lat="40.0728419" lon="-105.2305752">
  <ele>1586.18</ele>
  <time>2026-08-27T18:27:19Z</time>
  <course>17.96</course>
  <speed>0.022360679774997897</speed>
  <fix>3d</fix>
</trkpt>
<trkpt lat="40.072842" lon="-105.2305753">
  <ele>1586.09</ele>
  <time>2026-08-27T18:27:19Z</time>
  <course>280.4</course>
  <speed>0.0</speed>
  <fix>3d</fix>
</trkpt>
<trkpt lat="40.0728419" lon="-105.2305752">
  <ele>1586.18</ele>
  <time>2026-08-27T18:27:19Z</time>
  <course>17.99</course>
  <speed>0.022360679774997897</speed>
  <fix>3d</fix>
</trkpt>
<trkpt lat="40.072842" lon="-105.2305753">
  <ele>1586.09</ele>
  <time>2026-08-27T18:27:19Z</time>
  <course>279.45</course>
  <speed>0.0</speed>
  <fix>3d</fix>
</trkpt>
<trkpt lat="40.0728419" lon="-105.2305752">
  <ele>1586.18</ele>
  <time>2026-08-27T18:27:19Z</time>
  <course>18.02</course>
  <speed>0.022360679774997897</speed>
  <fix>3d</fix>
</trkpt>
<trkpt lat="40.072842" lon="-105.2305753">
  <ele>1586.09</ele>
  <time>2026-08-27T18:27:19Z</time>
  <course>279.49</course>
  <speed>0.0</speed>
  <fix>3d</fix>
</trkpt>
<trkpt lat="40.0728419" lon="-105.2305752">
  <ele>1586.19</ele>
  <time>2026-08-27T18:27:19Z</time>
  <course>18.05</course>
  <speed>0.022360679774997897</speed>
  <fix>3d</fix>
</trkpt>
<trkpt lat="40.072842" lon="-105.2305753">
  <ele>1586.09</ele>
  <time>2026-08-27T18:27:19Z</time>
  <course>279.47</course>
  <speed>0.0</speed>
  <fix>3d</fix>
</trkpt>
<trkpt lat="40.0728419" lon="-105.2305752">
  <ele>1586.19</ele>
  <time>2026-08-27T18:27:19Z</time>
  <course>18.07</course>
  <speed>0.022360679774997897</speed>
  <fix>3d</fix>
</trkpt>
<trkpt lat="40.072842" lon="-105.2305753">
  <ele>1586.09</ele>
  <time>2026-08-27T18:27:19Z</time>
  <course>277.94</course>
  <speed>0.0</speed>
  <fix>3d</fix>
</trkpt>
<trkpt lat="40.0728419" lon="-105.2305752">
  <ele>1586.19</ele>
  <time>2026-08-27T18:27:19Z</time>
  <course>18.1</course>
  <speed>0.022360679774997897</speed>
  <fix>3d</fix>
</trkpt>
<trkpt lat="40.072842" lon="-105.2305753">
  <ele>1586.09</ele>
  <time>2026-08-27T18:27:19Z</time>
  <course>277.4</course>
  <speed>0.0</speed>
  <fix>3d</fix>
</trkpt>
<trkpt lat="40.0728419" lon="-105.2305752">
  <ele>1586.19</ele>
  <time>2026-08-27T18:27:19Z</time>
  <course>18.12</course>
  <speed>0.022360679774997897</speed>
  <fix>3d</fix>
</trkpt>
<trkpt lat="40.072842" lon="-105.2305753">
  <ele>1586.09</ele>
  <time>2026-08-27T18:27:19Z</time>
  <course>278.86</course>
  <speed>0.0</speed>
  <fix>3d</fix>
</trkpt>
<trkpt lat="40.0728419" lon="-105.2305752">
  <ele>1586.19</ele>
  <time>2026-08-27T18:27:19Z</time>
  <course>18.14</course>
  <speed>0.022360679774997897</speed>
  <fix>3d</fix>
</trkpt>
<trkpt lat="40.072842" lon="-105.2305753">
  <ele>1586.09</ele>
  <time>2026-08-27T18:27:19Z</time>
  <course>284.88</course>
  <speed>0.0</speed>
  <fix>3d</fix>
</trkpt>
<trkpt lat="40.0728419" lon="-105.2305752">
  <ele>1586.19</ele>
  <time>2026-08-27T18:27:19Z</time>
  <course>18.15</course>
  <speed>0.022360679774997897</speed>
  <fix>3d</fix>
</trkpt>
<trkpt lat="40.072842" lon="-105.2305753">
  <ele>1586.09</ele>
  <time>2026-08-27T18:27:19Z</time>
  <course>285.03</course>
  <speed>0.0</speed>
  <fix>3d</fix>
</trkpt>
<trkpt lat="40.0728419" lon="-105.2305752">
  <ele>1586.19</ele>
  <time>2026-08-27T18:27:19Z</time>
  <course>18.17</course>
  <speed>0.022360679774997897</speed>
  <fix>3d</fix>
</trkpt>
<trkpt lat="40.072842" lon="-105.2305753">
  <ele>1586.09</ele>
  <time>2026-08-27T18:27:19Z</time>
  <course>278.79</course>
  <speed>0.0</speed>
  <fix>3d</fix>
</trkpt>
<trkpt lat="40.0728419" lon="-105.2305752">
  <ele>1586.19</ele>
  <time>2026-08-27T18:27:19Z</time>
  <course>18.18</course>
  <speed>0.022360679774997897</speed>
  <fix>3d</fix>
</trkpt>
<trkpt lat="40.072842" lon="-105.2305753">
  <ele>1586.09</ele>
  <time>2026-08-27T18:27:19Z</time>
  <course>277.9</course>
  <speed>0.0</speed>
  <fix>3d</fix>
</trkpt>
<trkpt lat="40.0728419" lon="-105.2305752">
  <ele>1586.19</ele>
  <time>2026-08-27T18:27:19Z</time>
  <course>18.19</course>
  <speed>0.022360679774997897</speed>
  <fix>3d</fix>
</trkpt>
<trkpt lat="40.072842" lon="-105.2305753">
  <ele>1586.09</ele>
  <time>2026-08-27T18:27:19Z</time>
  <course>278.79</course>
  <speed>0.0</speed>
  <fix>3d</fix>
</trkpt>
<trkpt lat="40.0728419" lon="-105.2305752">
  <ele>1586.19</ele>
  <time>2026-08-27T18:27:19Z</time>
  <course>18.2</course>
  <speed>0.022360679774997897</speed>
  <fix>3d</fix>
</trkpt>
<trkpt lat="40.072842" lon="-105.2305753">
  <ele>1586.09</ele>
  <time>2026-08-27T18:27:19Z</time>
  <course>278.66</course>
  <speed>0.0</speed>
  <fix>3d</fix>
</trkpt>
<trkpt lat="40.0728419" lon="-105.2305752">
  <ele>1586.19</ele>
  <time>2026-08-27T18:27:19Z</time>
  <course>18.21</course>
  <speed>0.022360679774997897</speed>
  <fix>3d</fix>
</trkpt>
<trkpt lat="40.072842" lon="-105.2305753">
  <ele>1586.09</ele>
  <time>2026-08-27T18:27:19Z</time>
  <course>278.41</course>
  <speed>0.0</speed>
  <fix>3d</fix>
</trkpt>
<trkpt lat="40.0728419" lon="-105.2305752">
  <ele>1586.18</ele>
  <time>2026-08-27T18:27:19Z</time>
  <course>18.21</course>
  <speed>0.022360679774997897</speed>
  <fix>3d</fix>
</trkpt>
<trkpt lat="40.072842" lon="-105.2305753">
  <ele>1586.09</ele>
  <time>2026-08-27T18:27:19Z</time>
  <course>278.38</course>
  <speed>0.0</speed>
  <fix>3d</fix>
</trkpt>
<trkpt lat="40.0728419" lon="-105.2305752">
  <ele>1586.18</ele>
  <time>2026-08-27T18:27:19Z</time>
  <course>18.21</course>
  <speed>0.022360679774997897</speed>
  <fix>3d</fix>
</trkpt>
<trkpt lat="40.072842" lon="-105.2305753">
  <ele>1586.09</ele>
  <time>2026-08-27T18:27:19Z</time>
  <course>277.31</course>
  <speed>0.0</speed>
  <fix>3d</fix>
</trkpt>
<trkpt lat="40.0728419" lon="-105.2305752">
  <ele>1586.18</ele>
  <time>2026-08-27T18:27:19Z</time>
  <course>18.21</course>
  <speed>0.022360679774997897</speed>
  <fix>3d</fix>
</trkpt>
<trkpt lat="40.072842" lon="-105.2305753">
  <ele>1586.09</ele>
  <time>2026-08-27T18:27:19Z</time>
  <course>277.11</course>
  <speed>0.0</speed>
  <fix>3d</fix>
</trkpt>
<trkpt lat="40.0728419" lon="-105.2305752">
  <ele>1586.18</ele>
  <time>2026-08-27T18:27:19Z</time>
  <course>18.21</course>
  <speed>0.022360679774997897</speed>
  <fix>3d</fix>
</trkpt>
<trkpt lat="40.072842" lon="-105.2305753">
  <ele>1586.09</ele>
  <time>2026-08-27T18:27:19Z</time>
  <course>278.22</course>
  <speed>0.0</speed>
  <fix>3d</fix>
</trkpt>
<trkpt lat="40.0728419" lon="-105.2305752">
  <ele>1586.18</ele>
  <time>2026-08-27T18:27:19Z</time>
  <course>18.2</course>
  <speed>0.022360679774997897</speed>
  <fix>3d</fix>
</trkpt>
<trkpt lat="40.072842" lon="-105.2305753">
  <ele>1586.09</ele>
  <time>2026-08-27T18:27:19Z</time>
  <course>277.91</course>
  <speed>0.0</speed>
  <fix>3d</fix>
</trkpt>
<trkpt lat="40.0728419" lon="-105.2305752">
  <ele>1586.18</ele>
  <time>2026-08-27T18:27:19Z</time>
  <course>18.2</course>
  <speed>0.022360679774997897</speed>
  <fix>3d</fix>
</trkpt>
<trkpt lat="40.072842" lon="-105.2305753">
  <ele>1586.09</ele>
  <time>2026-08-27T18:27:19Z</time>
  <course>277.64</course>
  <speed>0.0</speed>
  <fix>3d</fix>
</trkpt>
<trkpt lat="40.0728419" lon="-105.2305752">
  <ele>1586.18</ele>
  <time>2026-08-27T18:27:19Z</time>
  <course>18.19</course>
  <speed>0.022360679774997897</speed>
  <fix>3d</fix>
</trkpt>
<trkpt lat="40.072842" lon="-105.2305753">
  <ele>1586.09</ele>
  <time>2026-08-27T18:27:19Z</time>
  <course>277.56</course>
  <speed>0.0</speed>
  <fix>3d</fix>
</trkpt>
<trkpt lat="40.0728419" lon="-105.2305752">
  <ele>1586.18</ele>
  <time>2026-08-27T18:27:19Z</time>
  <course>18.18</course>
  <speed>0.022360679774997897</speed>
  <fix>3d</fix>
</trkpt>
<trkpt lat="40.072842" lon="-105.2305753">
  <ele>1586.09</ele>
  <time>2026-08-27T18:27:19Z</time>
  <course>277.45</course>
  <speed>0.0</speed>
  <fix>3d</fix>
</trkpt>
<trkpt lat="40.0728419" lon="-105.2305752">
  <ele>1586.17</ele>
  <time>2026-08-27T18:27:19Z</time>
  <course>18.16</course>
  <speed>0.022360679774997897</speed>
  <fix>3d</fix>
</trkpt>
<trkpt lat="40.072842" lon="-105.2305753">
  <ele>1586.09</ele>
  <time>2026-08-27T18:27:19Z</time>
  <course>277.32</course>
  <speed>0.0</speed>
  <fix>3d</fix>
</trkpt>
<trkpt lat="40.0728419" lon="-105.2305752">
  <ele>1586.17</ele>
  <time>2026-08-27T18:27:19Z</time>
  <course>18.15</course>
  <speed>0.022360679774997897</speed>
  <fix>3d</fix>
</trkpt>
<trkpt lat="40.072842" lon="-105.2305753">
  <ele>1586.09</ele>
  <time>2026-08-27T18:27:19Z</time>
  <course>282.62</course>
  <speed>0.0</speed>
  <fix>3d</fix>
</trkpt>
<trkpt lat="40.0728419" lon="-105.2305752">
  <ele>1586.18</ele>
  <time>2026-08-27T18:27:19Z</time>
  <course>18.09</course>
  <speed>0.022360679774997897</speed>
  <fix>3d</fix>
</trkpt>
<trkpt lat="40.072842" lon="-105.2305753">
  <ele>1586.09</ele>
  <time>2026-08-27T18:27:19Z</time>
  <course>279.61</course>
  <speed>0.0</speed>
  <fix>3d</fix>
</trkpt>
<trkpt lat="40.0728419" lon="-105.2305752">
  <ele>1586.23</ele>
  <time>2026-08-27T18:27:19Z</time>
  <course>17.88</course>
  <speed>0.022360679774997897</speed>
  <fix>3d</fix>
</trkpt>
<trkpt lat="40.072842" lon="-105.2305753">
  <ele>1586.12</ele>
  <time>2026-08-27T18:27:19Z</time>
  <course>278.21</course>
  <speed>0.0</speed>
  <fix>3d</fix>
</trkpt>
<trkpt lat="40.0728419" lon="-105.2305752">
  <ele>1586.27</ele>
  <time>2026-08-27T18:27:19Z</time>
  <course>17.63</course>
  <speed>0.022360679774997897</speed>
  <fix>3d</fix>
</trkpt>
<trkpt lat="40.072842" lon="-105.2305753">
  <ele>1586.16</ele>
  <time>2026-08-27T18:27:19Z</time>
  <course>10.85</course>
  <speed>0.0</speed>
  <fix>3d</fix>
</trkpt>
<trkpt lat="40.0728419" lon="-105.2305752">
  <ele>1586.31</ele>
  <time>2026-08-27T18:27:19Z</time>
  <course>14.73</course>
  <speed>0.01</speed>
  <fix>3d</fix>
</trkpt>
<trkpt lat="40.072842" lon="-105.2305753">
  <ele>1586.2</ele>
  <time>2026-08-27T18:27:19Z</time>
  <course>24.91</course>
  <speed>0.0</speed>
  <fix>3d</fix>
</trkpt>
<trkpt lat="40.0728419" lon="-105.2305752">
  <ele>1586.32</ele>
  <time>2026-08-27T18:27:19Z</time>
  <course>11.61</course>
  <speed>0.01</speed>
  <fix>3d</fix>
</trkpt>
<trkpt lat="40.0728419" lon="-105.2305753">
  <ele>1586.51</ele>
  <time>2026-08-27T18:27:19Z</time>
  <course>2.32</course>
  <speed>0.07615773105863909</speed>
  <fix>3d</fix>
</trkpt>
<trkpt lat="40.072842" lon="-105.2305754">
  <ele>1586.28</ele>
  <time>2026-08-27T18:27:19Z</time>
  <course>291.72</course>
  <speed>0.04</speed>
  <fix>3d</fix>
</trkpt>
<trkpt lat="40.0728419" lon="-105.2305753">
  <ele>1586.56</ele>
  <time>2026-08-27T18:27:19Z</time>
  <course>1.34</course>
  <speed>0.09848857801796104</speed>
  <fix>3d</fix>
</trkpt>
<trkpt lat="40.072842" lon="-105.2305756">
  <ele>1586.88</ele>
  <time>2026-08-27T18:27:19Z</time>
  <course>357.14</course>
  <speed>0.1615549442140351</speed>
  <fix>3d</fix>
</trkpt>
<trkpt lat="40.072842" lon="-105.2305756">
  <ele>1586.52</ele>
  <time>2026-08-27T18:27:19Z</time>
  <course>289.26</course>
  <speed>0.13</speed>
  <fix>3d</fix>
</trkpt>
<trkpt lat="40.072842" lon="-105.2305757">
  <ele>1586.94</ele>
  <time>2026-08-27T18:27:19Z</time>
  <course>356.52</course>
  <speed>0.1708800749063506</speed>
  <fix>3d</fix>
</trkpt>
<trkpt lat="40.0728421" lon="-105.230576">
  <ele>1587.29</ele>
  <time>2026-08-27T18:27:19Z</time>
  <course>353.45</course>
  <speed>0.19924858845171275</speed>
  <fix>3d</fix>
</trkpt>
<trkpt lat="40.0728421" lon="-105.230576">
  <ele>1586.89</ele>
  <time>2026-08-27T18:27:19Z</time>
  <course>285.96</course>
  <speed>0.2</speed>
  <fix>3d</fix>
</trkpt>
<trkpt lat="40.0728421" lon="-105.2305761">
  <ele>1587.35</ele>
  <time>2026-08-27T18:27:19Z</time>
  <course>352.98</course>
  <speed>0.208806130178211</speed>
  <fix>3d</fix>
</trkpt>
<trkpt lat="40.0728422" lon="-105.2305766">
  <ele>1587.73</ele>
  <time>2026-08-27T18:27:19Z</time>
  <course>350.55</course>
  <speed>0.23345235059857505</speed>
  <fix>3d</fix>
</trkpt>
<trkpt lat="40.0728422" lon="-105.2305765">
  <ele>1587.31</ele>
  <time>2026-08-27T18:27:19Z</time>
  <course>281.24</course>
  <speed>0.23</speed>
  <fix>3d</fix>
</trkpt>
<trkpt lat="40.0728422" lon="-105.2305766">
  <ele>1587.74</ele>
  <time>2026-08-27T18:27:19Z</time>
  <course>350.52</course>
  <speed>0.23345235059857505</speed>
  <fix>3d</fix>
</trkpt>
<trkpt lat="40.0728423" lon="-105.2305773">
  <ele>1588.22</ele>
  <time>2026-08-27T18:27:19Z</time>
  <course>348.16</course>
  <speed>0.260768096208106</speed>
  <fix>3d</fix>
</trkpt>
<trkpt lat="40.0728423" lon="-105.2305771">
  <ele>1587.76</ele>
  <time>2026-08-27T18:27:19Z</time>
  <course>275.72</course>
  <speed>0.26</speed>
  <fix>3d</fix>
</trkpt>
<trkpt lat="40.0728423" lon="-105.2305773">
  <ele>1588.29</ele>
  <time>2026-08-27T18:27:19Z</time>
  <course>347.86</course>
  <speed>0.27018512172212594</speed>
  <fix>3d</fix>
</trkpt>
<trkpt lat="40.0728423" lon="-105.230578">
  <ele>1588.74</ele>
  <time>2026-08-27T18:27:19Z</time>
  <course>346.18</course>
  <speed>0.29017236257093815</speed>
  <fix>3d</fix>
</trkpt>
<trkpt lat="40.0728423" lon="-105.2305777">
  <ele>1588.24</ele>
  <time>2026-08-27T18:27:19Z</time>
  <course>269.68</course>
  <speed>0.28</speed>
  <fix>3d</fix>
</trkpt>
<trkpt lat="40.0728423" lon="-105.2305781">
  <ele>1588.82</ele>
  <time>2026-08-27T18:27:19Z</time>
  <course>345.94</course>
  <speed>0.29017236257093815</speed>
  <fix>3d</fix>
</trkpt>
<trkpt lat="40.0728422" lon="-105.2305787">
  <ele>1589.29</ele>
  <time>2026-08-27T18:27:19Z</time>
  <course>342.0</course>
  <speed>0.31400636936215165</speed>
  <fix>3d</fix>
</trkpt>
<trkpt lat="40.0728422" lon="-105.2305784">
  <ele>1588.76</ele>
  <time>2026-08-27T18:27:19Z</time>
  <course>263.19</course>
  <speed>0.3</speed>
  <fix>3d</fix>
</trkpt>
<trkpt lat="40.0728422" lon="-105.2305788">
  <ele>1589.38</ele>
  <time>2026-08-27T18:27:19Z</time>
  <course>341.78</course>
  <speed>0.31400636936215165</speed>
  <fix>3d</fix>
</trkpt>
<trkpt lat="40.0728421" lon="-105.2305795">
  <ele>1589.87</ele>
  <time>2026-08-27T18:27:19Z</time>
  <course>340.29</course>
  <speed>0.33241540277189324</speed>
  <fix>3d</fix>
</trkpt>
<trkpt lat="40.0728421" lon="-105.2305791">
  <ele>1589.31</ele>
  <time>2026-08-27T18:27:19Z</time>
  <course>256.56</course>
  <speed>0.32</speed>
  <fix>3d</fix>
</trkpt>
<trkpt lat="40.0728421" lon="-105.2305795">
  <ele>1589.88</ele>
  <time>2026-08-27T18:27:19Z</time>
  <course>340.27</course>
  <speed>0.33241540277189324</speed>
  <fix>3d</fix>
</trkpt>
<trkpt lat="40.0728419" lon="-105.2305803">
  <ele>1590.46</ele>
  <time>2026-08-27T18:27:19Z</time>
  <course>339.19</course>
  <speed>0.3584689665786984</speed>
  <fix>3d</fix>
</trkpt>
<trkpt lat="40.0728421" lon="-105.2305799">
  <ele>1589.89</ele>
  <time>2026-08-27T18:27:19Z</time>
  <course>249.96</course>
  <speed>0.34</speed>
  <fix>3d</fix>
</trkpt>
<trkpt lat="40.0728419" lon="-105.2305804">
  <ele>1590.56</ele>
  <time>2026-08-27T18:27:19Z</time>
  <course>339.05</course>
  <speed>0.3624913792078372</speed>
  <fix>3d</fix>
</trkpt>
<trkpt lat="40.0728416" lon="-105.2305811">
  <ele>1591.08</ele>
  <time>2026-08-27T18:27:19Z</time>
  <course>338.43</course>
  <speed>0.38078865529319544</speed>
  <fix>3d</fix>
</trkpt>
<trkpt lat="40.0728418" lon="-105.2305806">
  <ele>1590.48</ele>
  <time>2026-08-27T18:27:19Z</time>
  <course>243.53</course>
  <speed>0.36</speed>
  <fix>3d</fix>
</trkpt>
<trkpt lat="40.0728415" lon="-105.2305812">
  <ele>1591.17</ele>
  <time>2026-08-27T18:27:19Z</time>
  <course>338.33</course>
  <speed>0.3858756276314948</speed>
  <fix>3d</fix>
</trkpt>
<trkpt lat="40.0728412" lon="-105.2305818">
  <ele>1591.72</ele>
  <time>2026-08-27T18:27:19Z</time>
  <course>337.77</course>
  <speed>0.4080441152620633</speed>
  <fix>3d</fix>
</trkpt>
<trkpt lat="40.0728414" lon="-105.2305814">
  <ele>1591.1</ele>
  <time>2026-08-27T18:27:19Z</time>
  <course>237.45</course>
  <speed>0.37</speed>
  <fix>3d</fix>
</trkpt>
<trkpt lat="40.0728411" lon="-105.2305819">
  <ele>1591.81</ele>
  <time>2026-08-27T18:27:19Z</time>
  <course>337.69</course>
  <speed>0.41400483088968904</speed>
  <fix>3d</fix>
</trkpt>
<trkpt lat="40.0728407" lon="-105.2305826">
  <ele>1592.37</ele>
  <time>2026-08-27T18:27:19Z</time>
  <course>337.25</course>
  <speed>0.43185645763378366</speed>
  <fix>3d</fix>
</trkpt>
<trkpt lat="40.0728411" lon="-105.2305821">
  <ele>1591.74</ele>
  <time>2026-08-27T18:27:19Z</time>
  <course>231.67</course>
  <speed>0.4</speed>
  <fix>3d</fix>
</trkpt>
<trkpt lat="40.0728406" lon="-105.2305827">
  <ele>1592.47</ele>
  <time>2026-08-27T18:27:19Z</time>
  <course>337.19</course>
  <speed>0.4386342439892262</speed>
  <fix>3d</fix>
</trkpt>
<trkpt lat="40.0728402" lon="-105.2305833">
  <ele>1593.04</ele>
  <time>2026-08-27T18:27:19Z</time>
  <course>336.9</course>
  <speed>0.45276925690687087</speed>
  <fix>3d</fix>
</trkpt>
<trkpt lat="40.0728406" lon="-105.2305828">
  <ele>1592.39</ele>
  <time>2026-08-27T18:27:19Z</time>
  <course>226.22</course>
  <speed>0.42</speed>
  <fix>3d</fix>
</trkpt>
<trkpt lat="40.0728401" lon="-105.2305834">
  <ele>1593.14</ele>
  <time>2026-08-27T18:27:19Z</time>
  <course>336.86</course>
  <speed>0.46010868281309364</speed>
  <fix>3d</fix>
</trkpt>
<trkpt lat="40.0728396" lon="-105.230584">
  <ele>1593.72</ele>
  <time>2026-08-27T18:27:19Z</time>
  <course>336.7</course>
  <speed>0.4841487374764082</speed>
  <fix>3d</fix>
</trkpt>
<trkpt lat="40.07284" lon="-105.2305835">
  <ele>1593.06</ele>
  <time>2026-08-27T18:27:19Z</time>
  <course>221.2</course>
  <speed>0.44</speed>
  <fix>3d</fix>
</trkpt>
<trkpt lat="40.0728396" lon="-105.230584">
  <ele>1593.73</ele>
  <time>2026-08-27T18:27:19Z</time>
  <course>336.7</course>
  <speed>0.4841487374764082</speed>
  <fix>3d</fix>
</trkpt>
<trkpt lat="40.0728389" lon="-105.2305847">
  <ele>1594.41</ele>
  <time>2026-08-27T18:27:19Z</time>
  <course>336.65</course>
  <speed>0.5047771785649585</speed>
  <fix>3d</fix>
</trkpt>
<trkpt lat="40.0728394" lon="-105.2305842">
  <ele>1593.74</ele>
  <time>2026-08-27T18:27:19Z</time>
  <course>216.48</course>
  <speed>0.46</speed>
  <fix>3d</fix>
</trkpt>
<trkpt lat="40.0728388" lon="-105.2305848">
  <ele>1594.53</ele>
  <time>2026-08-27T18:27:19Z</time>
  <course>336.65</course>
  <speed>0.5047771785649585</speed>
  <fix>3d</fix>
</trkpt>
<trkpt lat="40.0728381" lon="-105.2305853">
  <ele>1595.12</ele>
  <time>2026-08-27T18:27:19Z</time>
  <course>336.72</course>
  <speed>0.5283937925449163</speed>
  <fix>3d</fix>
</trkpt>
<trkpt lat="40.0728387" lon="-105.2305849">
  <ele>1594.44</ele>
  <time>2026-08-27T18:27:19Z</time>
  <course>212.09</course>
  <speed>0.48</speed>
  <fix>3d</fix>
</trkpt>
<trkpt lat="40.072838" lon="-105.2305854">
  <ele>1595.24</ele>
  <time>2026-08-27T18:27:19Z</time>
  <course>336.74</course>
  <speed>0.5283937925449163</speed>
  <fix>3d</fix>
</trkpt>
<trkpt lat="40.0728373" lon="-105.2305858">
  <ele>1595.81</ele>
  <time>2026-08-27T18:27:19Z</time>
  <course>338.62</course>
  <speed>0.5547071299343466</speed>
  <fix>3d</fix>
</trkpt>
<trkpt lat="40.0728379" lon="-105.2305854">
  <ele>1595.14</ele>
  <time>2026-08-27T18:27:19Z</time>
  <course>208.61</course>
  <speed>0.51</speed>
  <fix>3d</fix>
</trkpt>
<trkpt lat="40.0728365" lon="-105.2305865">
  <ele>1596.36</ele>
  <time>2026-08-27T18:27:19Z</time>
  <course>344.37</course>
  <speed>0.5818075283115542</speed>
  <fix>3d</fix>
</trkpt>
<trkpt lat="40.0728371" lon="-105.2305861">
  <ele>1595.78</ele>
  <time>2026-08-27T18:27:19Z</time>
  <course>207.63</course>
  <speed>0.54</speed>
  <fix>3d</fix>
</trkpt>
<trkpt lat="40.0728356" lon="-105.2305871">
  <ele>1596.78</ele>
  <time>2026-08-27T18:27:19Z</time>
  <course>350.9</course>
  <speed>0.6003332407921453</speed>
  <fix>3d</fix>
</trkpt>
<trkpt lat="40.0728362" lon="-105.2305867">
  <ele>1596.3</ele>
  <time>2026-08-27T18:27:19Z</time>
  <course>208.49</course>
  <speed>0.58</speed>
  <fix>3d</fix>
</trkpt>
<trkpt lat="40.0728346" lon="-105.2305878">
  <ele>1597.07</ele>
  <time>2026-08-27T18:27:19Z</time>
  <course>356.91</course>
  <speed>0.5916924876994806</speed>
  <fix>3d</fix>
</trkpt>
<trkpt lat="40.0728352" lon="-105.2305873">
  <ele>1596.68</ele>
  <time>2026-08-27T18:27:20Z</time>
  <course>209.58</course>
  <speed>0.6</speed>
  <fix>3d</fix>
</trkpt>
<trkpt lat="40.0728337" lon="-105.2305885">
  <ele>1597.31</ele>
  <time>2026-08-27T18:27:20Z</time>
  <course>0.19</course>
  <speed>0.5507267925205745</speed>
  <fix>3d</fix>
</trkpt>
<trkpt lat="40.0728343" lon="-105.230588">
  <ele>1596.96</ele>
  <time>2026-08-27T18:27:20Z</time>
  <course>210.31</course>
  <speed>0.59</speed>
  <fix>3d</fix>
</trkpt>
<trkpt lat="40.0728329" lon="-105.230589">
  <ele>1597.54</ele>
  <time>2026-08-27T18:27:20Z</time>
  <course>2.03</course>
  <speed>0.47010637094172636</speed>
  <fix>3d</fix>
</trkpt>
<trkpt lat="40.0728334" lon="-105.2305887">
  <ele>1597.19</ele>
  <time>2026-08-27T18:27:20Z</time>
  <course>211.06</course>
  <speed>0.54</speed>
  <fix>3d</fix>
</trkpt>
<trkpt lat="40.0728323" lon="-105.2305896">
  <ele>1597.74</ele>
  <time>2026-08-27T18:27:20Z</time>
  <course>3.46</course>
  <speed>0.3721558813185679</speed>
  <fix>3d</fix>
</trkpt>
<trkpt lat="40.0728326" lon="-105.2305893">
  <ele>1597.4</ele>
  <time>2026-08-27T18:27:20Z</time>
  <course>213.42</course>
  <speed>0.45</speed>
  <fix>3d</fix>
</trkpt>
<trkpt lat="40.0728318" lon="-105.23059">
  <ele>1597.91</ele>
  <time>2026-08-27T18:27:20Z</time>
  <course>4.97</course>
  <speed>0.3</speed>
  <fix>3d</fix>
</trkpt>
<trkpt lat="40.072832" lon="-105.2305899">
  <ele>1597.59</ele>
  <time>2026-08-27T18:27:20Z</time>
  <course>218.44</course>
  <speed>0.37</speed>
  <fix>3d</fix>
</trkpt>
<trkpt lat="40.0728314" lon="-105.2305905">
  <ele>1598.02</ele>
  <time>2026-08-27T18:27:20Z</time>
  <course>6.48</course>
  <speed>0.24041630560342614</speed>
  <fix>3d</fix>
</trkpt>
<trkpt lat="40.0728316" lon="-105.2305904">
  <ele>1597.74</ele>
  <time>2026-08-27T18:27:20Z</time>
  <course>226.27</course>
  <speed>0.31</speed>
  <fix>3d</fix>
</trkpt>
<trkpt lat="40.0728311" lon="-105.230591">
  <ele>1598.08</ele>
  <time>2026-08-27T18:27:20Z</time>
  <course>7.92</course>
  <speed>0.18867962264113206</speed>
  <fix>3d</fix>
</trkpt>
<trkpt lat="40.0728313" lon="-105.230591">
  <ele>1597.84</ele>
  <time>2026-08-27T18:27:20Z</time>
  <course>236.59</course>
  <speed>0.26</speed>
  <fix>3d</fix>
</trkpt>
<trkpt lat="40.072831" lon="-105.2305915">
  <ele>1598.07</ele>
  <time>2026-08-27T18:27:20Z</time>
  <course>9.11</course>
  <speed>0.14560219778561037</speed>
  <fix>3d</fix>
</trkpt>
<trkpt lat="40.0728311" lon="-105.2305915">
  <ele>1597.88</ele>
  <time>2026-08-27T18:27:20Z</time>
  <course>249.41</course>
  <speed>0.21</speed>
  <fix>3d</fix>
</trkpt>
<trkpt lat="40.072831" lon="-105.2305919">
  <ele>1598.01</ele>
  <time>2026-08-27T18:27:20Z</time>
  <course>10.0</course>
  <speed>0.12041594578792296</speed>
  <fix>3d</fix>
</trkpt>
<trkpt lat="40.072831" lon="-105.2305919">
  <ele>1597.86</ele>
  <time>2026-08-27T18:27:20Z</time>
  <course>265.27</course>
  <speed>0.18</speed>
  <fix>3d</fix>
</trkpt>
<trkpt lat="40.0728311" lon="-105.2305922">
  <ele>1597.91</ele>
  <time>2026-08-27T18:27:20Z</time>
  <course>10.56</course>
  <speed>0.09433981132056603</speed>
  <fix>3d</fix>
</trkpt>
<trkpt lat="40.072831" lon="-105.2305923">
  <ele>1597.79</ele>
  <time>2026-08-27T18:27:20Z</time>
  <course>284.68</course>
  <speed>0.15</speed>
  <fix>3d</fix>
</trkpt>
<trkpt lat="40.0728311" lon="-105.2305925">
  <ele>1597.79</ele>
  <time>2026-08-27T18:27:20Z</time>
  <course>10.82</course>
  <speed>0.09848857801796104</speed>
  <fix>3d</fix>
</trkpt>
<trkpt lat="40.072831" lon="-105.2305926">
  <ele>1597.67</ele>
  <time>2026-08-27T18:27:20Z</time>
  <course>306.88</course>
  <speed>0.14</speed>
  <fix>3d</fix>
</trkpt>
<trkpt lat="40.0728313" lon="-105.2305927">
  <ele>1597.65</ele>
  <time>2026-08-27T18:27:20Z</time>
  <course>10.87</course>
  <speed>0.11045361017187261</speed>
  <fix>3d</fix>
</trkpt>
<trkpt lat="40.0728312" lon="-105.2305929">
  <ele>1597.55</ele>
  <time>2026-08-27T18:27:20Z</time>
  <course>329.06</course>
  <speed>0.14</speed>
  <fix>3d</fix>
</trkpt>
<trkpt lat="40.0728316" lon="-105.2305927">
  <ele>1597.52</ele>
  <time>2026-08-27T18:27:20Z</time>
  <course>10.79</course>
  <speed>0.13152946437965907</speed>
  <fix>3d</fix>
</trkpt>
<trkpt lat="40.0728315" lon="-105.230593">
  <ele>1597.41</ele>
  <time>2026-08-27T18:27:20Z</time>
  <course>348.45</course>
  <speed>0.14</speed>
  <fix>3d</fix>
</trkpt>
<trkpt lat="40.0728318" lon="-105.2305927">
  <ele>1597.39</ele>
  <time>2026-08-27T18:27:20Z</time>
  <course>10.68</course>
  <speed>0.14317821063276354</speed>
  <fix>3d</fix>
</trkpt>
<trkpt lat="40.0728317" lon="-105.230593">
  <ele>1597.28</ele>
  <time>2026-08-27T18:27:20Z</time>
  <course>4.29</course>
  <speed>0.15</speed>
  <fix>3d</fix>
</trkpt>
<trkpt lat="40.0728321" lon="-105.2305926">
  <ele>1597.26</ele>
  <time>2026-08-27T18:27:20Z</time>
  <course>10.63</course>
  <speed>0.15</speed>
  <fix>3d</fix>
</trkpt>
<trkpt lat="40.072832" lon="-105.230593">
  <ele>1597.15</ele>
  <time>2026-08-27T18:27:20Z</time>
  <course>17.31</course>
  <speed>0.16</speed>
  <fix>3d</fix>
</trkpt>
<trkpt lat="40.0728324" lon="-105.2305925">
  <ele>1597.14</ele>
  <time>2026-08-27T18:27:20Z</time>
  <course>10.52</course>
  <speed>0.16278820596099705</speed>
  <fix>3d</fix>
</trkpt>
<trkpt lat="40.0728323" lon="-105.2305929">
  <ele>1597.03</ele>
  <time>2026-08-27T18:27:20Z</time>
  <course>29.05</course>
  <speed>0.17</speed>
  <fix>3d</fix>
</trkpt>
<trkpt lat="40.0728326" lon="-105.2305923">
  <ele>1597.02</ele>
  <time>2026-08-27T18:27:20Z</time>
  <course>10.31</course>
  <speed>0.20808652046684814</speed>
  <fix>3d</fix>
</trkpt>
<trkpt lat="40.0728326" lon="-105.2305926">
  <ele>1596.91</ele>
  <time>2026-08-27T18:27:20Z</time>
  <course>40.62</course>
  <speed>0.19</speed>
  <fix>3d</fix>
</trkpt>
<trkpt lat="40.0728329" lon="-105.2305918">
  <ele>1596.92</ele>
  <time>2026-08-27T18:27:20Z</time>
  <course>9.93</course>
  <speed>0.2778488797889961</speed>
  <fix>3d</fix>
</trkpt>
<trkpt lat="40.0728328" lon="-105.2305923">
  <ele>1596.81</ele>
  <time>2026-08-27T18:27:20Z</time>
  <course>50.02</course>
  <speed>0.23</speed>
  <fix>3d</fix>
</trkpt>
<trkpt lat="40.0728332" lon="-105.2305912">
  <ele>1596.83</ele>
  <time>2026-08-27T18:27:20Z</time>
  <course>9.42</course>
  <speed>0.38948684188300897</speed>
  <fix>3d</fix>
</trkpt>
<trkpt lat="40.0728331" lon="-105.2305917">
  <ele>1596.71</ele>
  <time>2026-08-27T18:27:20Z</time>
  <course>54.93</course>
  <speed>0.32</speed>
  <fix>3d</fix>
</trkpt>
<trkpt lat="40.0728337" lon="-105.2305903">
  <ele>1596.77</ele>
  <time>2026-08-27T18:27:20Z</time>
  <course>9.01</course>
  <speed>0.524785670536077</speed>
  <fix>3d</fix>
</trkpt>
<trkpt lat="40.0728335" lon="-105.230591">
  <ele>1596.64</ele>
  <time>2026-08-27T18:27:20Z</time>
  <course>56.23</course>
  <speed>0.43</speed>
  <fix>3d</fix>
</trkpt>
<trkpt lat="40.0728343" lon="-105.2305891">
  <ele>1596.74</ele>
  <time>2026-08-27T18:27:20Z</time>
  <course>8.76</course>
  <speed>0.6603786792439622</speed>
  <fix>3d</fix>
</trkpt>
<trkpt lat="40.072834" lon="-105.23059">
  <ele>1596.59</ele>
  <time>2026-08-27T18:27:20Z</time>
  <course>55.72</course>
  <speed>0.57</speed>
  <fix>3d</fix>
</trkpt>
<trkpt lat="40.072835" lon="-105.2305877">
  <ele>1596.72</ele>
  <time>2026-08-27T18:27:20Z</time>
  <course>8.37</course>
  <speed>0.7849203781276163</speed>
  <fix>3d</fix>
</trkpt>
<trkpt lat="40.0728347" lon="-105.2305888">
  <ele>1596.56</ele>
  <time>2026-08-27T18:27:20Z</time>
  <course>54.62</course>
  <speed>0.7</speed>
  <fix>3d</fix>
</trkpt>
<trkpt lat="40.0728359" lon="-105.2305862">
  <ele>1596.73</ele>
  <time>2026-08-27T18:27:20Z</time>
  <course>8.2</course>
  <speed>0.8683893136145793</speed>
  <fix>3d</fix>
</trkpt>
<trkpt lat="40.0728354" lon="-105.2305873">
  <ele>1596.55</ele>
  <time>2026-08-27T18:27:20Z</time>
  <course>53.47</course>
  <speed>0.81</speed>
  <fix>3d</fix>
</trkpt>
<trkpt lat="40.0728369" lon="-105.2305845">
  <ele>1596.76</ele>
  <time>2026-08-27T18:27:20Z</time>
  <course>8.26</course>
  <speed>0.8940357934669059</speed>
  <fix>3d</fix>
</trkpt>
<trkpt lat="40.0728364" lon="-105.2305857">
  <ele>1596.57</ele>
  <time>2026-08-27T18:27:20Z</time>
  <course>52.51</course>
  <speed>0.88</speed>
  <fix>3d</fix>
</trkpt>
<trkpt lat="40.0728379" lon="-105.2305829">
  <ele>1596.78</ele>
  <time>2026-08-27T18:27:20Z</time>
  <course>8.49</course>
  <speed>0.880056816347672</speed>
  <fix>3d</fix>
</trkpt>
<trkpt lat="40.0728374" lon="-105.230584">
  <ele>1596.6</ele>
  <time>2026-08-27T18:27:20Z</time>
  <course>51.9</course>
  <speed>0.9</speed>
  <fix>3d</fix>
</trkpt>
<trkpt lat="40.0728388" lon="-105.2305813">
  <ele>1596.81</ele>
  <time>2026-08-27T18:27:20Z</time>
  <course>8.78</course>
  <speed>0.8360023923410747</speed>
  <fix>3d</fix>
</trkpt>
<trkpt lat="40.0728383" lon="-105.2305824">
  <ele>1596.63</ele>
  <time>2026-08-27T18:27:20Z</time>
  <course>51.68</course>
  <speed>0.88</speed>
  <fix>3d</fix>
</trkpt>
<trkpt lat="40.0728397" lon="-105.2305798">
  <ele>1596.82</ele>
  <time>2026-08-27T18:27:20Z</time>
  <course>9.0</course>
  <speed>0.7800640999302557</speed>
  <fix>3d</fix>
</trkpt>
<trkpt lat="40.0728393" lon="-105.2305808">
  <ele>1596.65</ele>
  <time>2026-08-27T18:27:20Z</time>
  <course>51.91</course>
  <speed>0.83</speed>
  <fix>3d</fix>
</trkpt>
<trkpt lat="40.0728406" lon="-105.2305784">
  <ele>1596.83</ele>
  <time>2026-08-27T18:27:20Z</time>
  <course>9.08</course>
  <speed>0.7184705978674423</speed>
  <fix>3d</fix>
</trkpt>
<trkpt lat="40.0728402" lon="-105.2305793">
  <ele>1596.67</ele>
  <time>2026-08-27T18:27:20Z</time>
  <course>52.58</course>
  <speed>0.77</speed>
  <fix>3d</fix>
</trkpt>
<trkpt lat="40.0728413" lon="-105.230577">
  <ele>1596.83</ele>
  <time>2026-08-27T18:27:20Z</time>
  <course>9.13</course>
  <speed>0.6545991139621257</speed>
  <fix>3d</fix>
</trkpt>
<trkpt lat="40.072841" lon="-105.2305779">
  <ele>1596.68</ele>
  <time>2026-08-27T18:27:20Z</time>
  <course>53.49</course>
  <speed>0.71</speed>
  <fix>3d</fix>
</trkpt>
<trkpt lat="40.072842" lon="-105.2305759">
  <ele>1596.83</ele>
  <time>2026-08-27T18:27:20Z</time>
  <course>9.14</course>
  <speed>0.5575840743780259</speed>
  <fix>3d</fix>
</trkpt>
<trkpt lat="40.0728417" lon="-105.2305767">
  <ele>1596.68</ele>
  <time>2026-08-27T18:27:20Z</time>
  <course>54.57</course>
  <speed>0.64</speed>
  <fix>3d</fix>
</trkpt>
<trkpt lat="40.0728425" lon="-105.2305749">
  <ele>1596.83</ele>
  <time>2026-08-27T18:27:20Z</time>
  <course>9.1</course>
  <speed>0.425440947723653</speed>
  <fix>3d</fix>
</trkpt>
<trkpt lat="40.0728424" lon="-105.2305755">
  <ele>1596.69</ele>
  <time>2026-08-27T18:27:20Z</time>
  <course>56.38</course>
  <speed>0.53</speed>
  <fix>3d</fix>
</trkpt>
<trkpt lat="40.0728428" lon="-105.2305741">
  <ele>1596.83</ele>
  <time>2026-08-27T18:27:20Z</time>
  <course>9.03</course>
  <speed>0.26570660511172844</speed>
  <fix>3d</fix>
</trkpt>
<trkpt lat="40.0728428" lon="-105.2305746">
  <ele>1596.69</ele>
  <time>2026-08-27T18:27:20Z</time>
  <course>60.49</course>
  <speed>0.39</speed>
  <fix>3d</fix>
</trkpt>
<trkpt lat="40.0728429" lon="-105.2305737">
  <ele>1596.83</ele>
  <time>2026-08-27T18:27:20Z</time>
  <course>8.92</course>
  <speed>0.1414213562373095</speed>
  <fix>3d</fix>
</trkpt>
<trkpt lat="40.072843" lon="-105.2305739">
  <ele>1596.69</ele>
  <time>2026-08-27T18:27:20Z</time>
  <course>71.96</course>
  <speed>0.23</speed>
  <fix>3d</fix>
</trkpt>
<trkpt lat="40.0728428" lon="-105.2305734">
  <ele>1596.83</ele>
  <time>2026-08-27T18:27:20Z</time>
  <course>8.83</course>
  <speed>0.13341664064126335</speed>
  <fix>3d</fix>
</trkpt>
<trkpt lat="40.0728431" lon="-105.2305735">
  <ele>1596.69</ele>
  <time>2026-08-27T18:27:20Z</time>
  <course>114.17</course>
  <speed>0.12</speed>
  <fix>3d</fix>
</trkpt>
<trkpt lat="40.0728425" lon="-105.2305734">
  <ele>1596.83</ele>
  <time>2026-08-27T18:27:20Z</time>
  <course>8.75</course>
  <speed>0.223606797749979</speed>
  <fix>3d</fix>
</trkpt>
<trkpt lat="40.072843" lon="-105.2305734">
  <ele>1596.7</ele>
  <time>2026-08-27T18:27:20Z</time>
  <course>175.33</course>
  <speed>0.16</speed>
  <fix>3d</fix>
</trkpt>
<trkpt lat="40.0728422" lon="-105.2305735">
  <ele>1596.83</ele>
  <time>2026-08-27T18:27:20Z</time>
  <course>8.73</course>
  <speed>0.2720294101747089</speed>
  <fix>3d</fix>
</trkpt>
<trkpt lat="40.0728426" lon="-105.2305734">
  <ele>1596.7</ele>
  <time>2026-08-27T18:27:20Z</time>
  <course>193.19</course>
  <speed>0.24</speed>
  <fix>3d</fix>
</trkpt>
<trkpt lat="40.0728417" lon="-105.2305737">
  <ele>1596.82</ele>
  <time>2026-08-27T18:27:20Z</time>
  <course>8.67</course>
  <speed>0.2816025568065745</speed>
  <fix>3d</fix>
</trkpt>
<trkpt lat="40.0728421" lon="-105.2305735">
  <ele>1596.71</ele>
  <time>2026-08-27T18:27:20Z</time>
  <course>198.3</course>
  <speed>0.28</speed>
  <fix>3d</fix>
</trkpt>
<trkpt lat="40.0728413" lon="-105.2305739">
  <ele>1596.83</ele>
  <time>2026-08-27T18:27:20Z</time>
  <course>8.77</course>
  <speed>0.25</speed>
  <fix>3d</fix>
</trkpt>
<trkpt lat="40.0728416" lon="-105.2305738">
  <ele>1596.71</ele>
  <time>2026-08-27T18:27:20Z</time>
  <course>199.89</course>
  <speed>0.28</speed>
  <fix>3d</fix>
</trkpt>
<trkpt lat="40.0728409" lon="-105.230574">
  <ele>1596.84</ele>
  <time>2026-08-27T18:27:20Z</time>
  <course>11.07</course>
  <speed>0.18973665961010278</speed>
  <fix>3d</fix>
</trkpt>
<trkpt lat="40.0728412" lon="-105.2305739">
  <ele>1596.72</ele>
  <time>2026-08-27T18:27:20Z</time>
  <course>200.88</course>
  <speed>0.25</speed>
  <fix>3d</fix>
</trkpt>
<trkpt lat="40.0728406" lon="-105.2305742">
  <ele>1596.84</ele>
  <time>2026-08-27T18:27:20Z</time>
  <course>10.98</course>
  <speed>0.1392838827718412</speed>
  <fix>3d</fix>
</trkpt>
<trkpt lat="40.0728408" lon="-105.2305742">
  <ele>1596.72</ele>
  <time>2026-08-27T18:27:20Z</time>
  <course>203.84</course>
  <speed>0.19</speed>
  <fix>3d</fix>
</trkpt>
<trkpt lat="40.0728404" lon="-105.2305743">
  <ele>1596.84</ele>
  <time>2026-08-27T18:27:20Z</time>
  <course>10.98</course>
  <speed>0.09433981132056603</speed>
  <fix>3d</fix>
</trkpt>
<trkpt lat="40.0728406" lon="-105.2305744">
  <ele>1596.73</ele>
  <time>2026-08-27T18:27:20Z</time>
  <course>211.6</course>
  <speed>0.14</speed>
  <fix>3d</fix>
</trkpt>
<trkpt lat="40.0728403" lon="-105.2305745">
  <ele>1596.85</ele>
  <time>2026-08-27T18:27:20Z</time>
  <course>11.0</course>
  <speed>0.05830951894845301</speed>
  <fix>3d</fix>
</trkpt>
<trkpt lat="40.0728403" lon="-105.2305745">
  <ele>1596.73</ele>
  <time>2026-08-27T18:27:20Z</time>
  <course>227.72</course>
  <speed>0.1</speed>
  <fix>3d</fix>
</trkpt>
<trkpt lat="40.0728403" lon="-105.2305746">
  <ele>1596.85</ele>
  <time>2026-08-27T18:27:20Z</time>
  <course>11.01</course>
  <speed>0.05099019513592785</speed>
  <fix>3d</fix>
</trkpt>
<trkpt lat="40.0728402" lon="-105.2305747">
  <ele>1596.74</ele>
  <time>2026-08-27T18:27:20Z</time>
  <course>255.81</course>
  <speed>0.08</speed>
  <fix>3d</fix>
</trkpt>
<trkpt lat="40.0728403" lon="-105.2305748">
  <ele>1596.85</ele>
  <time>2026-08-27T18:27:20Z</time>
  <course>10.99</course>
  <speed>0.07071067811865475</speed>
  <fix>3d</fix>
</trkpt>
<trkpt lat="40.0728402" lon="-105.2305748">
  <ele>1596.74</ele>
  <time>2026-08-27T18:27:20Z</time>
  <course>287.54</course>
  <speed>0.08</speed>
  <fix>3d</fix>
</trkpt>
<trkpt lat="40.0728405" lon="-105.230575">
  <ele>1596.84</ele>
  <time>2026-08-27T18:27:20Z</time>
  <course>11.02</course>
  <speed>0.08944271909999159</speed>
  <fix>3d</fix>
</trkpt>
<trkpt lat="40.0728403" lon="-105.2305751">
  <ele>1596.74</ele>
  <time>2026-08-27T18:27:20Z</time>
  <course>308.71</course>
  <speed>0.1</speed>
  <fix>3d</fix>
</trkpt>
<trkpt lat="40.0728405" lon="-105.2305751">
  <ele>1596.84</ele>
  <time>2026-08-27T18:27:20Z</time>
  <course>11.0</course>
  <speed>0.10770329614269007</speed>
  <fix>3d</fix>
</trkpt>
<trkpt lat="40.0728404" lon="-105.2305753">
  <ele>1596.74</ele>
  <time>2026-08-27T18:27:20Z</time>
  <course>320.77</course>
  <speed>0.12</speed>
  <fix>3d</fix>
</trkpt>
<trkpt lat="40.0728407" lon="-105.2305753">
  <ele>1596.84</ele>
  <time>2026-08-27T18:27:20Z</time>
  <course>10.99</course>
  <speed>0.1264911064067352</speed>
  <fix>3d</fix>
</trkpt>
<trkpt lat="40.0728406" lon="-105.2305754">
  <ele>1596.74</ele>
  <time>2026-08-27T18:27:20Z</time>
  <course>328.24</course>
  <speed>0.14</speed>
  <fix>3d</fix>
</trkpt>
<trkpt lat="40.072841" lon="-105.2305755">
  <ele>1596.84</ele>
  <time>2026-08-27T18:27:20Z</time>
  <course>10.99</course>
  <speed>0.14317821063276354</speed>
  <fix>3d</fix>
</trkpt>
<trkpt lat="40.0728409" lon="-105.2305757">
  <ele>1596.74</ele>
  <time>2026-08-27T18:27:20Z</time>
  <course>333.25</course>
  <speed>0.16</speed>
  <fix>3d</fix>
</trkpt>
<trkpt lat="40.0728413" lon="-105.2305756">
  <ele>1596.84</ele>
  <time>2026-08-27T18:27:20Z</time>
  <course>11.0</course>
  <speed>0.14317821063276354</speed>
  <fix>3d</fix>
</trkpt>
<trkpt lat="40.0728411" lon="-105.2305758">
  <ele>1596.74</ele>
  <time>2026-08-27T18:27:20Z</time>
  <course>336.9</course>
  <speed>0.17</speed>
  <fix>3d</fix>
</trkpt>
<trkpt lat="40.0728415" lon="-105.2305757">
  <ele>1596.84</ele>
  <time>2026-08-27T18:27:20Z</time>
  <course>11.04</course>
  <speed>0.1414213562373095</speed>
  <fix>3d</fix>
</trkpt>
<trkpt lat="40.0728414" lon="-105.2305759">
  <ele>1596.75</ele>
  <time>2026-08-27T18:27:20Z</time>
  <course>339.98</course>
  <speed>0.17</speed>
  <fix>3d</fix>
</trkpt>
<trkpt lat="40.0728418" lon="-105.2305759">
  <ele>1596.84</ele>
  <time>2026-08-27T18:27:20Z</time>
  <course>11.06</course>
  <speed>0.140356688476182</speed>
  <fix>3d</fix>
</trkpt>
<trkpt lat="40.0728417" lon="-105.2305761">
  <ele>1596.75</ele>
  <time>2026-08-27T18:27:20Z</time>
  <course>342.97</course>
  <speed>0.17</speed>
  <fix>3d</fix>
</trkpt>
<trkpt lat="40.0728421" lon="-105.2305759">
  <ele>1596.84</ele>
  <time>2026-08-27T18:27:20Z</time>
  <course>11.1</course>
  <speed>0.13</speed>
  <fix>3d</fix>
</trkpt>
<trkpt lat="40.072842" lon="-105.2305762">
  <ele>1596.75</ele>
  <time>2026-08-27T18:27:20Z</time>
  <course>346.18</course>
  <speed>0.16</speed>
  <fix>3d</fix>
</trkpt>
<trkpt lat="40.0728423" lon="-105.230576">
  <ele>1596.85</ele>
  <time>2026-08-27T18:27:20Z</time>
  <course>11.11</course>
  <speed>0.12</speed>
  <fix>3d</fix>
</trkpt>
<trkpt lat="40.0728423" lon="-105.2305763">
  <ele>1596.75</ele>
  <time>2026-08-27T18:27:20Z</time>
  <course>349.77</course>
  <speed>0.15</speed>
  <fix>3d</fix>
</trkpt>
<trkpt lat="40.0728426" lon="-105.230576">
  <ele>1596.85</ele>
  <time>2026-08-27T18:27:20Z</time>
  <course>11.13</course>
  <speed>0.1019803902718557</speed>
  <fix>3d</fix>
</trkpt>
<trkpt lat="40.0728426" lon="-105.2305763">
  <ele>1596.75</ele>
  <time>2026-08-27T18:27:20Z</time>
  <course>354.03</course>
  <speed>0.14</speed>
  <fix>3d</fix>
</trkpt>
<trkpt lat="40.0728428" lon="-105.230576">
  <ele>1596.85</ele>
  <time>2026-08-27T18:27:20Z</time>
  <course>11.16</course>
  <speed>0.0854400374531753</speed>
  <fix>3d</fix>
</trkpt>
<trkpt lat="40.0728429" lon="-105.2305763">
  <ele>1596.76</ele>
  <time>2026-08-27T18:27:20Z</time>
  <course>359.48</course>
  <speed>0.12</speed>
  <fix>3d</fix>
</trkpt>
<trkpt lat="40.072843" lon="-105.2305761">
  <ele>1596.85</ele>
  <time>2026-08-27T18:27:20Z</time>
  <course>11.19</course>
  <speed>0.07211102550927978</speed>
  <fix>3d</fix>
</trkpt>
<trkpt lat="40.0728431" lon="-105.2305763">
  <ele>1596.76</ele>
  <time>2026-08-27T18:27:20Z</time>
  <course>6.75</course>
  <speed>0.1</speed>
  <fix>3d</fix>
</trkpt>
<trkpt lat="40.0728431" lon="-105.230576">
  <ele>1596.85</ele>
  <time>2026-08-27T18:27:20Z</time>
  <course>11.22</course>
  <speed>0.06403124237432849</speed>
  <fix>3d</fix>
</trkpt>
<trkpt lat="40.0728432" lon="-105.2305763">
  <ele>1596.76</ele>
  <time>2026-08-27T18:27:20Z</time>
  <course>16.45</course>
  <speed>0.08</speed>
  <fix>3d</fix>
</trkpt>
<trkpt lat="40.0728432" lon="-105.230576">
  <ele>1596.86</ele>
  <time>2026-08-27T18:27:20Z</time>
  <course>11.25</course>
  <speed>0.06082762530298219</speed>
  <fix>3d</fix>
</trkpt>
<trkpt lat="40.0728433" lon="-105.2305763">
  <ele>1596.76</ele>
  <time>2026-08-27T18:27:20Z</time>
  <course>30.17</course>
  <speed>0.07</speed>
  <fix>3d</fix>
</trkpt>
<trkpt lat="40.0728433" lon="-105.2305759">
  <ele>1596.86</ele>
  <time>2026-08-27T18:27:20Z</time>
  <course>11.28</course>
  <speed>0.07</speed>
  <fix>3d</fix>
</trkpt>
<trkpt lat="40.0728434" lon="-105.2305762">
  <ele>1596.76</ele>
  <time>2026-08-27T18:27:20Z</time>
  <course>49.6</course>
  <speed>0.05</speed>
  <fix>3d</fix>
</trkpt>
<trkpt lat="40.0728433" lon="-105.2305758">
  <ele>1596.86</ele>
  <time>2026-08-27T18:27:20Z</time>
  <course>11.31</course>
  <speed>0.07280109889280519</speed>
  <fix>3d</fix>
</trkpt>
<trkpt lat="40.0728435" lon="-105.2305761">
  <ele>1596.75</ele>
  <time>2026-08-27T18:27:20Z</time>
  <course>72.87</course>
  <speed>0.05</speed>
  <fix>3d</fix>
</trkpt>
<trkpt lat="40.0728433" lon="-105.2305756">
  <ele>1596.86</ele>
  <time>2026-08-27T18:27:20Z</time>
  <course>11.34</course>
  <speed>0.08062257748298549</speed>
  <fix>3d</fix>
</trkpt>
<trkpt lat="40.0728435" lon="-105.2305759">
  <ele>1596.75</ele>
  <time>2026-08-27T18:27:20Z</time>
  <course>93.87</course>
  <speed>0.05</speed>
  <fix>3d</fix>
</trkpt>
<trkpt lat="40.0728433" lon="-105.2305755">
  <ele>1596.85</ele>
  <time>2026-08-27T18:27:20Z</time>
  <course>11.32</course>
  <speed>0.09433981132056603</speed>
  <fix>3d</fix>
</trkpt>
<trkpt lat="40.0728435" lon="-105.2305758">
  <ele>1596.75</ele>
  <time>2026-08-27T18:27:20Z</time>
  <course>109.16</course>
  <speed>0.06</speed>
  <fix>3d</fix>
</trkpt>
<trkpt lat="40.0728433" lon="-105.2305754">
  <ele>1596.84</ele>
  <time>2026-08-27T18:27:20Z</time>
  <course>11.32</course>
  <speed>0.09219544457292887</speed>
  <fix>3d</fix>
</trkpt>
<trkpt lat="40.0728434" lon="-105.2305757">
  <ele>1596.75</ele>
  <time>2026-08-27T18:27:20Z</time>
  <course>120.08</course>
  <speed>0.07</speed>
  <fix>3d</fix>
</trkpt>
<trkpt lat="40.0728432" lon="-105.2305752">
  <ele>1596.84</ele>
  <time>2026-08-27T18:27:20Z</time>
  <course>11.52</course>
  <speed>0.09899494936611665</speed>
  <fix>3d</fix>
</trkpt>
<trkpt lat="40.0728433" lon="-105.2305755">
  <ele>1596.74</ele>
  <time>2026-08-27T18:27:20Z</time>
  <course>128.61</course>
  <speed>0.08</speed>
  <fix>3d</fix>
</trkpt>
<trkpt lat="40.0728431" lon="-105.2305751">
  <ele>1596.81</ele>
  <time>2026-08-27T18:27:20Z</time>
  <course>12.27</course>
  <speed>0.1</speed>
  <fix>3d</fix>
</trkpt>
<trkpt lat="40.0728433" lon="-105.2305754">
  <ele>1596.73</ele>
  <time>2026-08-27T18:27:20Z</time>
  <course>136.94</course>
  <speed>0.08</speed>
  <fix>3d</fix>
</trkpt>
<trkpt lat="40.072843" lon="-105.2305751">
  <ele>1596.73</ele>
  <time>2026-08-27T18:27:20Z</time>
  <course>13.16</course>
  <speed>0.08944271909999159</speed>
  <fix>3d</fix>
</trkpt>
<trkpt lat="40.0728432" lon="-105.2305753">
  <ele>1596.69</ele>
  <time>2026-08-27T18:27:20Z</time>
  <course>146.43</course>
  <speed>0.07</speed>
  <fix>3d</fix>
</trkpt>
<trkpt lat="40.0728429" lon="-105.230575">
  <ele>1596.62</ele>
  <time>2026-08-27T18:27:20Z</time>
  <course>13.69</course>
  <speed>0.0854400374531753</speed>
  <fix>3d</fix>
</trkpt>
<trkpt lat="40.0728431" lon="-105.2305752">
  <ele>1596.61</ele>
  <time>2026-08-27T18:27:20Z</time>
  <course>155.67</course>
  <speed>0.07</speed>
  <fix>3d</fix>
</trkpt>
<trkpt lat="40.0728427" lon="-105.230575">
  <ele>1596.5</ele>
  <time>2026-08-27T18:27:20Z</time>
  <course>13.66</course>
  <speed>0.0854400374531753</speed>
  <fix>3d</fix>
</trkpt>
<trkpt lat="40.072843" lon="-105.2305751">
  <ele>1596.49</ele>
  <time>2026-08-27T18:27:20Z</time>
  <course>161.35</course>
  <speed>0.06</speed>
  <fix>3d</fix>
</trkpt>
<trkpt lat="40.0728426" lon="-105.2305749">
  <ele>1596.37</ele>
  <time>2026-08-27T18:27:20Z</time>
  <course>13.46</course>
  <speed>0.0854400374531753</speed>
  <fix>3d</fix>
</trkpt>
<trkpt lat="40.0728429" lon="-105.2305751">
  <ele>1596.36</ele>
  <time>2026-08-27T18:27:20Z</time>
  <course>163.22</course>
  <speed>0.06</speed>
  <fix>3d</fix>
</trkpt>
<trkpt lat="40.0728425" lon="-105.2305749">
  <ele>1596.24</ele>
  <time>2026-08-27T18:27:20Z</time>
  <course>13.19</course>
  <speed>0.0854400374531753</speed>
  <fix>3d</fix>
</trkpt>
<trkpt lat="40.0728427" lon="-105.2305751">
  <ele>1596.23</ele>
  <time>2026-08-27T18:27:20Z</time>
  <course>164.32</course>
  <speed>0.06</speed>
  <fix>3d</fix>
</trkpt>
<trkpt lat="40.0728424" lon="-105.2305749">
  <ele>1596.13</ele>
  <time>2026-08-27T18:27:20Z</time>
  <course>12.93</course>
  <speed>0.07280109889280519</speed>
  <fix>3d</fix>
</trkpt>
<trkpt lat="40.0728426" lon="-105.230575">
  <ele>1596.11</ele>
  <time>2026-08-27T18:27:20Z</time>
  <course>166.48</course>
  <speed>0.06</speed>
  <fix>3d</fix>
</trkpt>
<trkpt lat="40.0728423" lon="-105.2305748">
  <ele>1596.02</ele>
  <time>2026-08-27T18:27:20Z</time>
  <course>12.73</course>
  <speed>0.07280109889280519</speed>
  <fix>3d</fix>
</trkpt>
<trkpt lat="40.0728425" lon="-105.230575">
  <ele>1596.0</ele>
  <time>2026-08-27T18:27:20Z</time>
  <course>170.01</course>
  <speed>0.06</speed>
  <fix>3d</fix>
</trkpt>
<trkpt lat="40.0728422" lon="-105.2305748">
  <ele>1595.92</ele>
  <time>2026-08-27T18:27:20Z</time>
  <course>12.61</course>
  <speed>0.06082762530298219</speed>
  <fix>3d</fix>
</trkpt>
<trkpt lat="40.0728424" lon="-105.230575">
  <ele>1595.89</ele>
  <time>2026-08-27T18:27:20Z</time>
  <course>175.18</course>
  <speed>0.05</speed>
  <fix>3d</fix>
</trkpt>
<trkpt lat="40.0728422" lon="-105.2305748">
  <ele>1595.83</ele>
  <time>2026-08-27T18:27:20Z</time>
  <course>12.55</course>
  <speed>0.06</speed>
  <fix>3d</fix>
</trkpt>
<trkpt lat="40.0728423" lon="-105.230575">
  <ele>1595.8</ele>
  <time>2026-08-27T18:27:20Z</time>
  <course>182.55</course>
  <speed>0.05</speed>
  <fix>3d</fix>
</trkpt>
<trkpt lat="40.0728421" lon="-105.2305749">
  <ele>1595.74</ele>
  <time>2026-08-27T18:27:20Z</time>
  <course>12.55</course>
  <speed>0.05</speed>
  <fix>3d</fix>
</trkpt>
<trkpt lat="40.0728422" lon="-105.230575">
  <ele>1595.71</ele>
  <time>2026-08-27T18:27:20Z</time>
  <course>191.86</course>
  <speed>0.04</speed>
  <fix>3d</fix>
</trkpt>
<trkpt lat="40.072842" lon="-105.2305749">
  <ele>1595.64</ele>
  <time>2026-08-27T18:27:20Z</time>
  <course>12.57</course>
  <speed>0.04</speed>
  <fix>3d</fix>
</trkpt>
<trkpt lat="40.0728421" lon="-105.230575">
  <ele>1595.61</ele>
  <time>2026-08-27T18:27:20Z</time>
  <course>203.4</course>
  <speed>0.04</speed>
  <fix>3d</fix>
</trkpt>
<trkpt lat="40.072842" lon="-105.2305749">
  <ele>1595.54</ele>
  <time>2026-08-27T18:27:20Z</time>
  <course>12.57</course>
  <speed>0.03</speed>
  <fix>3d</fix>
</trkpt>
<trkpt lat="40.0728421" lon="-105.230575">
  <ele>1595.52</ele>
  <time>2026-08-27T18:27:20Z</time>
  <course>216.61</course>
  <speed>0.03</speed>
  <fix>3d</fix>
</trkpt>
<trkpt lat="40.0728419" lon="-105.2305749">
  <ele>1595.45</ele>
  <time>2026-08-27T18:27:20Z</time>
  <course>12.58</course>
  <speed>0.0316227766016838</speed>
  <fix>3d</fix>
</trkpt>
<trkpt lat="40.072842" lon="-105.230575">
  <ele>1595.42</ele>
  <time>2026-08-27T18:27:20Z</time>
  <course>230.72</course>
  <speed>0.03</speed>
  <fix>3d</fix>
</trkpt>
<trkpt lat="40.0728419" lon="-105.230575">
  <ele>1595.35</ele>
  <time>2026-08-27T18:27:20Z</time>
  <course>12.57</course>
  <speed>0.022360679774997897</speed>
  <fix>3d</fix>
</trkpt>
<trkpt lat="40.072842" lon="-105.2305751">
  <ele>1595.33</ele>
  <time>2026-08-27T18:27:20Z</time>
  <course>245.3</course>
  <speed>0.03</speed>
  <fix>3d</fix>
</trkpt>
<trkpt lat="40.0728419" lon="-105.2305751">
  <ele>1595.25</ele>
  <time>2026-08-27T18:27:20Z</time>
  <course>12.56</course>
  <speed>0.01414213562373095</speed>
  <fix>3d</fix>
</trkpt>
<trkpt lat="40.072842" lon="-105.2305751">
  <ele>1595.23</ele>
  <time>2026-08-27T18:27:20Z</time>
  <course>258.6</course>
  <speed>0.03</speed>
  <fix>3d</fix>
</trkpt>
<trkpt lat="40.0728419" lon="-105.2305751">
  <ele>1595.15</ele>
  <time>2026-08-27T18:27:20Z</time>
  <course>12.55</course>
  <speed>0.01414213562373095</speed>
  <fix>3d</fix>
</trkpt>
<trkpt lat="40.072842" lon="-105.2305752">
  <ele>1595.13</ele>
  <time>2026-08-27T18:27:20Z</time>
  <course>269.71</course>
  <speed>0.03</speed>
  <fix>3d</fix>
</trkpt>
<trkpt lat="40.0728419" lon="-105.2305752">
  <ele>1595.05</ele>
  <time>2026-08-27T18:27:20Z</time>
  <course>12.51</course>
  <speed>0.01</speed>
  <fix>3d</fix>
</trkpt>
<trkpt lat="40.072842" lon="-105.2305753">
  <ele>1595.03</ele>
  <time>2026-08-27T18:27:20Z</time>
  <course>278.46</course>
  <speed>0.03</speed>
  <fix>3d</fix>
</trkpt>
<trkpt lat="40.0728419" lon="-105.2305753">
  <ele>1594.95</ele>
  <time>2026-08-27T18:27:20Z</time>
  <course>12.46</course>
  <speed>0.01</speed>
  <fix>3d</fix>
</trkpt>
<trkpt lat="40.072842" lon="-105.2305754">
  <ele>1594.92</ele>
  <time>2026-08-27T18:27:20Z</time>
  <course>285.77</course>
  <speed>0.03</speed>
  <fix>3d</fix>
</trkpt>
<trkpt lat="40.0728419" lon="-105.2305753">
  <ele>1594.85</ele>
  <time>2026-08-27T18:27:20Z</time>
  <course>12.44</course>
  <speed>0.01</speed>
  <fix>3d</fix>
</trkpt>
<trkpt lat="40.072842" lon="-105.2305755">
  <ele>1594.83</ele>
  <time>2026-08-27T18:27:20Z</time>
  <course>292.4</course>
  <speed>0.03</speed>
  <fix>3d</fix>
</trkpt>
<trkpt lat="40.0728419" lon="-105.2305754">
  <ele>1594.75</ele>
  <time>2026-08-27T18:27:20Z</time>
  <course>12.45</course>
  <speed>0.0</speed>
  <fix>3d</fix>
</trkpt>
<trkpt lat="40.072842" lon="-105.2305756">
  <ele>1594.73</ele>
  <time>2026-08-27T18:27:20Z</time>
  <course>298.56</course>
  <speed>0.03</speed>
  <fix>3d</fix>
</trkpt>
<trkpt lat="40.0728419" lon="-105.2305755">
  <ele>1594.65</ele>
  <time>2026-08-27T18:27:20Z</time>
  <course>12.45</course>
  <speed>0.0</speed>
  <fix>3d</fix>
</trkpt>
<trkpt lat="40.072842" lon="-105.2305756">
  <ele>1594.63</ele>
  <time>2026-08-27T18:27:20Z</time>
  <course>304.92</course>
  <speed>0.03</speed>
  <fix>3d</fix>
</trkpt>
<trkpt lat="40.072842" lon="-105.2305755">
  <ele>1594.55</ele>
  <time>2026-08-27T18:27:20Z</time>
  <course>12.4</course>
  <speed>0.0</speed>
  <fix>3d</fix>
</trkpt>
<trkpt lat="40.072842" lon="-105.2305757">
  <ele>1594.54</ele>
  <time>2026-08-27T18:27:20Z</time>
  <course>311.36</course>
  <speed>0.03</speed>
  <fix>3d</fix>
</trkpt>
<trkpt lat="40.072842" lon="-105.2305756">
  <ele>1594.44</ele>
  <time>2026-08-27T18:27:20Z</time>
  <course>12.39</course>
  <speed>0.0</speed>
  <fix>3d</fix>
</trkpt>
<trkpt lat="40.072842" lon="-105.2305758">
  <ele>1594.44</ele>
  <time>2026-08-27T18:27:20Z</time>
  <course>318.58</course>
  <speed>0.03</speed>
  <fix>3d</fix>
</trkpt>
<trkpt lat="40.072842" lon="-105.2305756">
  <ele>1594.35</ele>
  <time>2026-08-27T18:27:20Z</time>
  <course>12.38</course>
  <speed>0.0</speed>
  <fix>3d</fix>
</trkpt>
<trkpt lat="40.0728421" lon="-105.2305758">
  <ele>1594.34</ele>
  <time>2026-08-27T18:27:20Z</time>
  <course>327.27</course>
  <speed>0.02</speed>
  <fix>3d</fix>
</trkpt>
<trkpt lat="40.0728421" lon="-105.2305756">
  <ele>1594.25</ele>
  <time>2026-08-27T18:27:20Z</time>
  <course>12.35</course>
  <speed>0.01</speed>
  <fix>3d</fix>
</trkpt>
<trkpt lat="40.0728421" lon="-105.2305758">
  <ele>1594.24</ele>
  <time>2026-08-27T18:27:20Z</time>
  <course>336.72</course>
  <speed>0.02</speed>
  <fix>3d</fix>
</trkpt>
<trkpt lat="40.0728421" lon="-105.2305756">
  <ele>1594.15</ele>
  <time>2026-08-27T18:27:20Z</time>
  <course>12.35</course>
  <speed>0.01</speed>
  <fix>3d</fix>
</trkpt>
<trkpt lat="40.0728422" lon="-105.2305758">
  <ele>1594.13</ele>
  <time>2026-08-27T18:27:20Z</time>
  <course>347.18</course>
  <speed>0.02</speed>
  <fix>3d</fix>
</trkpt>
<trkpt lat="40.0728421" lon="-105.2305756">
  <ele>1594.04</ele>
  <time>2026-08-27T18:27:20Z</time>
  <course>12.31</course>
  <speed>0.02</speed>
  <fix>3d</fix>
</trkpt>
<trkpt lat="40.0728423" lon="-105.2305758">
  <ele>1594.04</ele>
  <time>2026-08-27T18:27:20Z</time>
  <course>358.51</course>
  <speed>0.02</speed>
  <fix>3d</fix>
</trkpt>
<trkpt lat="40.0728421" lon="-105.2305756">
  <ele>1593.95</ele>
  <time>2026-08-27T18:27:20Z</time>
  <course>12.29</course>
  <speed>0.02</speed>
  <fix>3d</fix>
</trkpt>
<trkpt lat="40.0728423" lon="-105.2305758">
  <ele>1593.94</ele>
  <time>2026-08-27T18:27:20Z</time>
  <course>10.37</course>
  <speed>0.02</speed>
  <fix>3d</fix>
</trkpt>
<trkpt lat="40.0728422" lon="-105.2305756">
  <ele>1593.85</ele>
  <time>2026-08-27T18:27:20Z</time>
  <course>12.29</course>
  <speed>0.03</speed>
  <fix>3d</fix>
</trkpt>
<trkpt lat="40.0728424" lon="-105.2305758">
  <ele>1593.84</ele>
  <time>2026-08-27T18:27:20Z</time>
  <course>21.06</course>
  <speed>0.02</speed>
  <fix>3d</fix>
</trkpt>
<trkpt lat="40.0728422" lon="-105.2305756">
  <ele>1593.75</ele>
  <time>2026-08-27T18:27:20Z</time>
  <course>12.28</course>
  <speed>0.03</speed>
  <fix>3d</fix>
</trkpt>
<trkpt lat="40.0728424" lon="-105.2305758">
  <ele>1593.74</ele>
  <time>2026-08-27T18:27:20Z</time>
  <course>30.34</course>
  <speed>0.02</speed>
  <fix>3d</fix>
</trkpt>
<trkpt lat="40.0728423" lon="-105.2305756">
  <ele>1593.66</ele>
  <time>2026-08-27T18:27:20Z</time>
  <course>12.27</course>
  <speed>0.03</speed>
  <fix>3d</fix>
</trkpt>
<trkpt lat="40.0728424" lon="-105.2305758">
  <ele>1593.63</ele>
  <time>2026-08-27T18:27:20Z</time>
  <course>40.2</course>
  <speed>0.02</speed>
  <fix>3d</fix>
</trkpt>
<trkpt lat="40.0728423" lon="-105.2305756">
  <ele>1593.55</ele>
  <time>2026-08-27T18:27:20Z</time>
  <course>12.28</course>
  <speed>0.0316227766016838</speed>
  <fix>3d</fix>
</trkpt>
<trkpt lat="40.0728425" lon="-105.2305758">
  <ele>1593.54</ele>
  <time>2026-08-27T18:27:20Z</time>
  <course>51.51</course>
  <speed>0.02</speed>
  <fix>3d</fix>
</trkpt>
<trkpt lat="40.0728423" lon="-105.2305755">
  <ele>1593.45</ele>
  <time>2026-08-27T18:27:20Z</time>
  <course>12.29</course>
  <speed>0.0316227766016838</speed>
  <fix>3d</fix>
</trkpt>
<trkpt lat="40.0728425" lon="-105.2305758">
  <ele>1593.44</ele>
  <time>2026-08-27T18:27:20Z</time>
  <course>62.78</course>
  <speed>0.02</speed>
  <fix>3d</fix>
</trkpt>
<trkpt lat="40.0728423" lon="-105.2305755">
  <ele>1593.35</ele>
  <time>2026-08-27T18:27:20Z</time>
  <course>12.25</course>
  <speed>0.0316227766016838</speed>
  <fix>3d</fix>
</trkpt>
<trkpt lat="40.0728425" lon="-105.2305758">
  <ele>1593.34</ele>
  <time>2026-08-27T18:27:20Z</time>
  <course>73.12</course>
  <speed>0.02</speed>
  <fix>3d</fix>
</trkpt>
<trkpt lat="40.0728423" lon="-105.2305755">
  <ele>1593.25</ele>
  <time>2026-08-27T18:27:20Z</time>
  <course>12.22</course>
  <speed>0.03605551275463989</speed>
  <fix>3d</fix>
</trkpt>
<trkpt lat="40.0728425" lon="-105.2305757">
  <ele>1593.24</ele>
  <time>2026-08-27T18:27:20Z</time>
  <course>83.74</course>
  <speed>0.02</speed>
  <fix>3d</fix>
</trkpt>
<trkpt lat="40.0728423" lon="-105.2305754">
  <ele>1593.14</ele>
  <time>2026-08-27T18:27:20Z</time>
  <course>12.18</course>
  <speed>0.03605551275463989</speed>
  <fix>3d</fix>
</trkpt>
<trkpt lat="40.0728425" lon="-105.2305756">
  <ele>1593.13</ele>
  <time>2026-08-27T18:27:20Z</time>
  <course>94.08</course>
  <speed>0.02</speed>
  <fix>3d</fix>
</trkpt>
<trkpt lat="40.0728423" lon="-105.2305754">
  <ele>1593.04</ele>
  <time>2026-08-27T18:27:20Z</time>
  <course>12.16</course>
  <speed>0.03605551275463989</speed>
  <fix>3d</fix>
</trkpt>
<trkpt lat="40.0728425" lon="-105.2305756">
  <ele>1593.04</ele>
  <time>2026-08-27T18:27:20Z</time>
  <course>103.06</course>
  <speed>0.02</speed>
  <fix>3d</fix>
</trkpt>
<trkpt lat="40.0728423" lon="-105.2305753">
  <ele>1592.94</ele>
  <time>2026-08-27T18:27:20Z</time>
  <course>12.12</course>
  <speed>0.03605551275463989</speed>
  <fix>3d</fix>
</trkpt>
<trkpt lat="40.0728425" lon="-105.2305756">
  <ele>1592.94</ele>
  <time>2026-08-27T18:27:20Z</time>
  <course>110.92</course>
  <speed>0.02</speed>
  <fix>3d</fix>
</trkpt>
<trkpt lat="40.0728423" lon="-105.2305753">
  <ele>1592.84</ele>
  <time>2026-08-27T18:27:20Z</time>
  <course>12.09</course>
  <speed>0.04242640687119285</speed>
  <fix>3d</fix>
</trkpt>
<trkpt lat="40.0728425" lon="-105.2305755">
  <ele>1592.84</ele>
  <time>2026-08-27T18:27:20Z</time>
  <course>118.06</course>
  <speed>0.02</speed>
  <fix>3d</fix>
</trkpt>
<trkpt lat="40.0728423" lon="-105.2305753">
  <ele>1592.74</ele>
  <time>2026-08-27T18:27:20Z</time>
  <course>12.09</course>
  <speed>0.04242640687119285</speed>
  <fix>3d</fix>
</trkpt>
<trkpt lat="40.0728425" lon="-105.2305755">
  <ele>1592.74</ele>
  <time>2026-08-27T18:27:20Z</time>
  <course>125.08</course>
  <speed>0.02</speed>
  <fix>3d</fix>
</trkpt>
<trkpt lat="40.0728423" lon="-105.2305752">
  <ele>1592.64</ele>
  <time>2026-08-27T18:27:20Z</time>
  <course>12.06</course>
  <speed>0.03605551275463989</speed>
  <fix>3d</fix>
</trkpt>
<trkpt lat="40.0728425" lon="-105.2305754">
  <ele>1592.64</ele>
  <time>2026-08-27T18:27:20Z</time>
  <course>131.86</course>
  <speed>0.02</speed>
  <fix>3d</fix>
</trkpt>
<trkpt lat="40.0728423" lon="-105.2305752">
  <ele>1592.54</ele>
  <time>2026-08-27T18:27:20Z</time>
  <course>12.06</course>
  <speed>0.03605551275463989</speed>
  <fix>3d</fix>
</trkpt>
<trkpt lat="40.0728425" lon="-105.2305753">
  <ele>1592.55</ele>
  <time>2026-08-27T18:27:20Z</time>
  <course>138.7</course>
  <speed>0.02</speed>
  <fix>3d</fix>
</trkpt>
<trkpt lat="40.0728423" lon="-105.2305752">
  <ele>1592.45</ele>
  <time>2026-08-27T18:27:20Z</time>
  <course>12.08</course>
  <speed>0.03605551275463989</speed>
  <fix>3d</fix>
</trkpt>
<trkpt lat="40.0728425" lon="-105.2305753">
  <ele>1592.45</ele>
  <time>2026-08-27T18:27:20Z</time>
  <course>145.69</course>
  <speed>0.02</speed>
  <fix>3d</fix>
</trkpt>
<trkpt lat="40.0728423" lon="-105.2305752">
  <ele>1592.35</ele>
  <time>2026-08-27T18:27:20Z</time>
  <course>12.06</course>
  <speed>0.03605551275463989</speed>
  <fix>3d</fix>
</trkpt>
<trkpt lat="40.0728424" lon="-105.2305753">
  <ele>1592.35</ele>
  <time>2026-08-27T18:27:20Z</time>
  <course>153.07</course>
  <speed>0.01</speed>
  <fix>3d</fix>
</trkpt>
<trkpt lat="40.0728422" lon="-105.2305752">
  <ele>1592.25</ele>
  <time>2026-08-27T18:27:20Z</time>
  <course>12.06</course>
  <speed>0.0316227766016838</speed>
  <fix>3d</fix>
</trkpt>
<trkpt lat="40.0728424" lon="-105.2305753">
  <ele>1592.25</ele>
  <time>2026-08-27T18:27:20Z</time>
  <course>161.67</course>
  <speed>0.01</speed>
  <fix>3d</fix>
</trkpt>
<trkpt lat="40.0728422" lon="-105.2305752">
  <ele>1592.15</ele>
  <time>2026-08-27T18:27:20Z</time>
  <course>12.05</course>
  <speed>0.0316227766016838</speed>
  <fix>3d</fix>
</trkpt>
<trkpt lat="40.0728424" lon="-105.2305753">
  <ele>1592.15</ele>
  <time>2026-08-27T18:27:20Z</time>
  <course>170.9</course>
  <speed>0.01</speed>
  <fix>3d</fix>
</trkpt>
<trkpt lat="40.0728422" lon="-105.2305752">
  <ele>1592.06</ele>
  <time>2026-08-27T18:27:20Z</time>
  <course>12.04</course>
  <speed>0.0316227766016838</speed>
  <fix>3d</fix>
</trkpt>
<trkpt lat="40.0728423" lon="-105.2305753">
  <ele>1592.06</ele>
  <time>2026-08-27T18:27:20Z</time>
  <course>179.35</course>
  <speed>0.01</speed>
  <fix>3d</fix>
</trkpt>
<trkpt lat="40.0728422" lon="-105.2305752">
  <ele>1591.96</ele>
  <time>2026-08-27T18:27:20Z</time>
  <course>12.04</course>
  <speed>0.0316227766016838</speed>
  <fix>3d</fix>
</trkpt>
<trkpt lat="40.0728423" lon="-105.2305753">
  <ele>1591.95</ele>
  <time>2026-08-27T18:27:20Z</time>
  <course>187.53</course>
  <speed>0.01</speed>
  <fix>3d</fix>
</trkpt>
<trkpt lat="40.0728422" lon="-105.2305752">
  <ele>1591.86</ele>
  <time>2026-08-27T18:27:20Z</time>
  <course>12.03</course>
  <speed>0.022360679774997897</speed>
  <fix>3d</fix>
</trkpt>
<trkpt lat="40.0728423" lon="-105.2305753">
  <ele>1591.85</ele>
  <time>2026-08-27T18:27:20Z</time>
  <course>197.25</course>
  <speed>0.01</speed>
  <fix>3d</fix>
</trkpt>
<trkpt lat="40.0728422" lon="-105.2305752">
  <ele>1591.75</ele>
  <time>2026-08-27T18:27:20Z</time>
  <course>12.01</course>
  <speed>0.02</speed>
  <fix>3d</fix>
</trkpt>
<trkpt lat="40.0728423" lon="-105.2305753">
  <ele>1591.75</ele>
  <time>2026-08-27T18:27:20Z</time>
  <course>207.16</course>
  <speed>0.01</speed>
  <fix>3d</fix>
</trkpt>
<trkpt lat="40.0728421" lon="-105.2305752">
  <ele>1591.65</ele>
  <time>2026-08-27T18:27:20Z</time>
  <course>12.0</course>
  <speed>0.02</speed>
  <fix>3d</fix>
</trkpt>
<trkpt lat="40.0728422" lon="-105.2305753">
  <ele>1591.64</ele>
  <time>2026-08-27T18:27:20Z</time>
  <course>216.79</course>
  <speed>0.01</speed>
  <fix>3d</fix>
</trkpt>
<trkpt lat="40.0728421" lon="-105.2305752">
  <ele>1591.55</ele>
  <time>2026-08-27T18:27:21Z</time>
  <course>11.98</course>
  <speed>0.02</speed>
  <fix>3d</fix>
</trkpt>
<trkpt lat="40.0728421" lon="-105.2305753">
  <ele>1591.55</ele>
  <time>2026-08-27T18:27:21Z</time>
  <course>227.6</course>
  <speed>0.01</speed>
  <fix>3d</fix>
</trkpt>
<trkpt lat="40.0728421" lon="-105.2305752">
  <ele>1591.45</ele>
  <time>2026-08-27T18:27:21Z</time>
  <course>11.96</course>
  <speed>0.02</speed>
  <fix>3d</fix>
</trkpt>
<trkpt lat="40.0728421" lon="-105.2305753">
  <ele>1591.45</ele>
  <time>2026-08-27T18:27:21Z</time>
  <course>238.27</course>
  <speed>0.01</speed>
  <fix>3d</fix>
</trkpt>
<trkpt lat="40.0728421" lon="-105.2305752">
  <ele>1591.34</ele>
  <time>2026-08-27T18:27:21Z</time>
  <course>11.92</course>
  <speed>0.02</speed>
  <fix>3d</fix>
</trkpt>
<trkpt lat="40.0728421" lon="-105.2305753">
  <ele>1591.34</ele>
  <time>2026-08-27T18:27:21Z</time>
  <course>246.46</course>
  <speed>0.01</speed>
  <fix>3d</fix>
</trkpt>
<trkpt lat="40.0728421" lon="-105.2305752">
  <ele>1591.24</ele>
  <time>2026-08-27T18:27:21Z</time>
  <course>11.9</course>
  <speed>0.01</speed>
  <fix>3d</fix>
</trkpt>
<trkpt lat="40.0728421" lon="-105.2305753">
  <ele>1591.24</ele>
  <time>2026-08-27T18:27:21Z</time>
  <course>254.53</course>
  <speed>0.01</speed>
  <fix>3d</fix>
</trkpt>
<trkpt lat="40.0728421" lon="-105.2305752">
  <ele>1591.14</ele>
  <time>2026-08-27T18:27:21Z</time>
  <course>11.89</course>
  <speed>0.01</speed>
  <fix>3d</fix>
</trkpt>
<trkpt lat="40.0728421" lon="-105.2305753">
  <ele>1591.14</ele>
  <time>2026-08-27T18:27:21Z</time>
  <course>264.86</course>
  <speed>0.01</speed>
  <fix>3d</fix>
</trkpt>
<trkpt lat="40.0728421" lon="-105.2305752">
  <ele>1591.04</ele>
  <time>2026-08-27T18:27:21Z</time>
  <course>11.87</course>
  <speed>0.01</speed>
  <fix>3d</fix>
</trkpt>
<trkpt lat="40.0728421" lon="-105.2305754">
  <ele>1591.05</ele>
  <time>2026-08-27T18:27:21Z</time>
  <course>275.56</course>
  <speed>0.01</speed>
  <fix>3d</fix>
</trkpt>
<trkpt lat="40.0728421" lon="-105.2305752">
  <ele>1590.94</ele>
  <time>2026-08-27T18:27:21Z</time>
  <course>11.85</course>
  <speed>0.01</speed>
  <fix>3d</fix>
</trkpt>
<trkpt lat="40.0728421" lon="-105.2305755">
  <ele>1590.95</ele>
  <time>2026-08-27T18:27:21Z</time>
  <course>285.5</course>
  <speed>0.01</speed>
  <fix>3d</fix>
</trkpt>
<trkpt lat="40.0728421" lon="-105.2305753">
  <ele>1590.85</ele>
  <time>2026-08-27T18:27:21Z</time>
  <course>11.85</course>
  <speed>0.01</speed>
  <fix>3d</fix>
</trkpt>
<trkpt lat="40.0728421" lon="-105.2305755">
  <ele>1590.85</ele>
  <time>2026-08-27T18:27:21Z</time>
  <course>293.49</course>
  <speed>0.01</speed>
  <fix>3d</fix>
</trkpt>
<trkpt lat="40.0728421" lon="-105.2305753">
  <ele>1590.75</ele>
  <time>2026-08-27T18:27:21Z</time>
  <course>11.85</course>
  <speed>0.01</speed>
  <fix>3d</fix>
</trkpt>
<trkpt lat="40.0728421" lon="-105.2305755">
  <ele>1590.75</ele>
  <time>2026-08-27T18:27:21Z</time>
  <course>301.09</course>
  <speed>0.01</speed>
  <fix>3d</fix>
</trkpt>
<trkpt lat="40.0728421" lon="-105.2305753">
  <ele>1590.65</ele>
  <time>2026-08-27T18:27:21Z</time>
  <course>11.87</course>
  <speed>0.0</speed>
  <fix>3d</fix>
</trkpt>
<trkpt lat="40.0728421" lon="-105.2305755">
  <ele>1590.64</ele>
  <time>2026-08-27T18:27:21Z</time>
  <course>309.33</course>
  <speed>0.01</speed>
  <fix>3d</fix>
</trkpt>
<trkpt lat="40.0728421" lon="-105.2305753">
  <ele>1590.55</ele>
  <time>2026-08-27T18:27:21Z</time>
  <course>11.85</course>
  <speed>0.01</speed>
  <fix>3d</fix>
</trkpt>
<trkpt lat="40.0728421" lon="-105.2305756">
  <ele>1590.55</ele>
  <time>2026-08-27T18:27:21Z</time>
  <course>318.09</course>
  <speed>0.01</speed>
  <fix>3d</fix>
</trkpt>
<trkpt lat="40.0728421" lon="-105.2305754">
  <ele>1590.45</ele>
  <time>2026-08-27T18:27:21Z</time>
  <course>11.84</course>
  <speed>0.01</speed>
  <fix>3d</fix>
</trkpt>
<trkpt lat="40.0728421" lon="-105.2305756">
  <ele>1590.45</ele>
  <time>2026-08-27T18:27:21Z</time>
  <course>325.22</course>
  <speed>0.01</speed>
  <fix>3d</fix>
</trkpt>
<trkpt lat="40.0728421" lon="-105.2305754">
  <ele>1590.35</ele>
  <time>2026-08-27T18:27:21Z</time>
  <course>11.83</course>
  <speed>0.01</speed>
  <fix>3d</fix>
</trkpt>
<trkpt lat="40.0728421" lon="-105.2305756">
  <ele>1590.35</ele>
  <time>2026-08-27T18:27:21Z</time>
  <course>330.6</course>
  <speed>0.01</speed>
  <fix>3d</fix>
</trkpt>
<trkpt lat="40.0728421" lon="-105.2305754">
  <ele>1590.25</ele>
  <time>2026-08-27T18:27:21Z</time>
  <course>11.84</course>
  <speed>0.01</speed>
  <fix>3d</fix>
</trkpt>
<trkpt lat="40.0728421" lon="-105.2305756">
  <ele>1590.25</ele>
  <time>2026-08-27T18:27:21Z</time>
  <course>336.37</course>
  <speed>0.01</speed>
  <fix>3d</fix>
</trkpt>
<trkpt lat="40.0728421" lon="-105.2305754">
  <ele>1590.15</ele>
  <time>2026-08-27T18:27:21Z</time>
  <course>11.83</course>
  <speed>0.01</speed>
  <fix>3d</fix>
</trkpt>
<trkpt lat="40.0728422" lon="-105.2305756">
  <ele>1590.14</ele>
  <time>2026-08-27T18:27:21Z</time>
  <course>342.41</course>
  <speed>0.01</speed>
  <fix>3d</fix>
</trkpt>
<trkpt lat="40.0728421" lon="-105.2305754">
  <ele>1590.05</ele>
  <time>2026-08-27T18:27:21Z</time>
  <course>11.82</course>
  <speed>0.01</speed>
  <fix>3d</fix>
</trkpt>
<trkpt lat="40.0728423" lon="-105.2305756">
  <ele>1590.05</ele>
  <time>2026-08-27T18:27:21Z</time>
  <course>348.75</course>
  <speed>0.01</speed>
  <fix>3d</fix>
</trkpt>
<trkpt lat="40.0728421" lon="-105.2305754">
  <ele>1589.95</ele>
  <time>2026-08-27T18:27:21Z</time>
  <course>11.82</course>
  <speed>0.02</speed>
  <fix>3d</fix>
</trkpt>
<trkpt lat="40.0728423" lon="-105.2305756">
  <ele>1589.95</ele>
  <time>2026-08-27T18:27:21Z</time>
  <course>356.43</course>
  <speed>0.01</speed>
  <fix>3d</fix>
</trkpt>
<trkpt lat="40.0728421" lon="-105.2305754">
  <ele>1589.85</ele>
  <time>2026-08-27T18:27:21Z</time>
  <course>11.81</course>
  <speed>0.02</speed>
  <fix>3d</fix>
</trkpt>
<trkpt lat="40.0728423" lon="-105.2305756">
  <ele>1589.85</ele>
  <time>2026-08-27T18:27:21Z</time>
  <course>3.86</course>
  <speed>0.01</speed>
  <fix>3d</fix>
</trkpt>
<trkpt lat="40.0728422" lon="-105.2305754">
  <ele>1589.75</ele>
  <time>2026-08-27T18:27:21Z</time>
  <course>11.81</course>
  <speed>0.02</speed>
  <fix>3d</fix>
</trkpt>
<trkpt lat="40.0728424" lon="-105.2305756">
  <ele>1589.75</ele>
  <time>2026-08-27T18:27:21Z</time>
  <course>9.96</course>
  <speed>0.01</speed>
  <fix>3d</fix>
</trkpt>
<trkpt lat="40.0728422" lon="-105.2305754">
  <ele>1589.65</ele>
  <time>2026-08-27T18:27:21Z</time>
  <course>11.82</course>
  <speed>0.022360679774997897</speed>
  <fix>3d</fix>
</trkpt>
<trkpt lat="40.0728424" lon="-105.2305756">
  <ele>1589.64</ele>
  <time>2026-08-27T18:27:21Z</time>
  <course>17.38</course>
  <speed>0.01</speed>
  <fix>3d</fix>
</trkpt>
<trkpt lat="40.0728422" lon="-105.2305754">
  <ele>1589.55</ele>
  <time>2026-08-27T18:27:21Z</time>
  <course>11.8</course>
  <speed>0.022360679774997897</speed>
  <fix>3d</fix>
</trkpt>
<trkpt lat="40.0728424" lon="-105.2305756">
  <ele>1589.55</ele>
  <time>2026-08-27T18:27:21Z</time>
  <course>27.95</course>
  <speed>0.01</speed>
  <fix>3d</fix>
</trkpt>
<trkpt lat="40.0728422" lon="-105.2305754">
  <ele>1589.44</ele>
  <time>2026-08-27T18:27:21Z</time>
  <course>11.77</course>
  <speed>0.022360679774997897</speed>
  <fix>3d</fix>
</trkpt>
<trkpt lat="40.0728424" lon="-105.2305756">
  <ele>1589.45</ele>
  <time>2026-08-27T18:27:21Z</time>
  <course>40.21</course>
  <speed>0.0</speed>
  <fix>3d</fix>
</trkpt>
<trkpt lat="40.0728422" lon="-105.2305754">
  <ele>1589.34</ele>
  <time>2026-08-27T18:27:21Z</time>
  <course>11.74</course>
  <speed>0.022360679774997897</speed>
  <fix>3d</fix>
</trkpt>
<trkpt lat="40.0728424" lon="-105.2305756">
  <ele>1589.35</ele>
  <time>2026-08-27T18:27:21Z</time>
  <course>54.01</course>
  <speed>0.0</speed>
  <fix>3d</fix>
</trkpt>
<trkpt lat="40.0728422" lon="-105.2305754">
  <ele>1589.24</ele>
  <time>2026-08-27T18:27:21Z</time>
  <course>11.72</course>
  <speed>0.022360679774997897</speed>
  <fix>3d</fix>
</trkpt>
<trkpt lat="40.0728424" lon="-105.2305756">
  <ele>1589.25</ele>
  <time>2026-08-27T18:27:21Z</time>
  <course>71.15</course>
  <speed>0.0</speed>
  <fix>3d</fix>
</trkpt>
<trkpt lat="40.0728423" lon="-105.2305754">
  <ele>1589.14</ele>
  <time>2026-08-27T18:27:21Z</time>
  <course>11.72</course>
  <speed>0.0282842712474619</speed>
  <fix>3d</fix>
</trkpt>
<trkpt lat="40.0728424" lon="-105.2305756">
  <ele>1589.14</ele>
  <time>2026-08-27T18:27:21Z</time>
  <course>90.86</course>
  <speed>0.0</speed>
  <fix>3d</fix>
</trkpt>
<trkpt lat="40.0728423" lon="-105.2305754">
  <ele>1589.04</ele>
  <time>2026-08-27T18:27:21Z</time>
  <course>11.72</course>
  <speed>0.0282842712474619</speed>
  <fix>3d</fix>
</trkpt>
<trkpt lat="40.0728424" lon="-105.2305756">
  <ele>1589.05</ele>
  <time>2026-08-27T18:27:21Z</time>
  <course>108.5</course>
  <speed>0.0</speed>
  <fix>3d</fix>
</trkpt>
<trkpt lat="40.0728423" lon="-105.2305754">
  <ele>1588.95</ele>
  <time>2026-08-27T18:27:21Z</time>
  <course>11.72</course>
  <speed>0.0282842712474619</speed>
  <fix>3d</fix>
</trkpt>
<trkpt lat="40.0728424" lon="-105.2305756">
  <ele>1588.95</ele>
  <time>2026-08-27T18:27:21Z</time>
  <course>121.59</course>
  <speed>0.0</speed>
  <fix>3d</fix>
</trkpt>
<trkpt lat="40.0728423" lon="-105.2305754">
  <ele>1588.85</ele>
  <time>2026-08-27T18:27:21Z</time>
  <course>11.7</course>
  <speed>0.0282842712474619</speed>
  <fix>3d</fix>
</trkpt>
<trkpt lat="40.0728424" lon="-105.2305756">
  <ele>1588.85</ele>
  <time>2026-08-27T18:27:21Z</time>
  <course>129.0</course>
  <speed>0.01</speed>
  <fix>3d</fix>
</trkpt>
<trkpt lat="40.0728423" lon="-105.2305753">
  <ele>1588.75</ele>
  <time>2026-08-27T18:27:21Z</time>
  <course>11.71</course>
  <speed>0.0282842712474619</speed>
  <fix>3d</fix>
</trkpt>
<trkpt lat="40.0728424" lon="-105.2305756">
  <ele>1588.75</ele>
  <time>2026-08-27T18:27:21Z</time>
  <course>132.47</course>
  <speed>0.01</speed>
  <fix>3d</fix>
</trkpt>
<trkpt lat="40.0728423" lon="-105.2305753">
  <ele>1588.65</ele>
  <time>2026-08-27T18:27:21Z</time>
  <course>11.72</course>
  <speed>0.0282842712474619</speed>
  <fix>3d</fix>
</trkpt>
<trkpt lat="40.0728424" lon="-105.2305756">
  <ele>1588.64</ele>
  <time>2026-08-27T18:27:21Z</time>
  <course>135.07</course>
  <speed>0.01</speed>
  <fix>3d</fix>
</trkpt>
<trkpt lat="40.0728423" lon="-105.2305753">
  <ele>1588.55</ele>
  <time>2026-08-27T18:27:21Z</time>
  <course>11.71</course>
  <speed>0.0282842712474619</speed>
  <fix>3d</fix>
</trkpt>
<trkpt lat="40.0728424" lon="-105.2305756">
  <ele>1588.55</ele>
  <time>2026-08-27T18:27:21Z</time>
  <course>137.33</course>
  <speed>0.01</speed>
  <fix>3d</fix>
</trkpt>
<trkpt lat="40.0728423" lon="-105.2305753">
  <ele>1588.45</ele>
  <time>2026-08-27T18:27:21Z</time>
  <course>11.71</course>
  <speed>0.0282842712474619</speed>
  <fix>3d</fix>
</trkpt>
<trkpt lat="40.0728424" lon="-105.2305755">
  <ele>1588.45</ele>
  <time>2026-08-27T18:27:21Z</time>
  <course>139.26</course>
  <speed>0.01</speed>
  <fix>3d</fix>
</trkpt>
<trkpt lat="40.0728422" lon="-105.2305753">
  <ele>1588.35</ele>
  <time>2026-08-27T18:27:21Z</time>
  <course>11.72</course>
  <speed>0.0282842712474619</speed>
  <fix>3d</fix>
</trkpt>
<trkpt lat="40.0728424" lon="-105.2305755">
  <ele>1588.35</ele>
  <time>2026-08-27T18:27:21Z</time>
  <course>141.17</course>
  <speed>0.01</speed>
  <fix>3d</fix>
</trkpt>
<trkpt lat="40.0728422" lon="-105.2305753">
  <ele>1588.25</ele>
  <time>2026-08-27T18:27:21Z</time>
  <course>11.71</course>
  <speed>0.0282842712474619</speed>
  <fix>3d</fix>
</trkpt>
<trkpt lat="40.0728424" lon="-105.2305755">
  <ele>1588.25</ele>
  <time>2026-08-27T18:27:21Z</time>
  <course>143.73</course>
  <speed>0.01</speed>
  <fix>3d</fix>
</trkpt>
<trkpt lat="40.0728422" lon="-105.2305753">
  <ele>1588.15</ele>
  <time>2026-08-27T18:27:21Z</time>
  <course>11.69</course>
  <speed>0.0282842712474619</speed>
  <fix>3d</fix>
</trkpt>
<trkpt lat="40.0728424" lon="-105.2305755">
  <ele>1588.14</ele>
  <time>2026-08-27T18:27:21Z</time>
  <course>147.09</course>
  <speed>0.01</speed>
  <fix>3d</fix>
</trkpt>
<trkpt lat="40.0728422" lon="-105.2305753">
  <ele>1588.05</ele>
  <time>2026-08-27T18:27:21Z</time>
  <course>11.67</course>
  <speed>0.022360679774997897</speed>
  <fix>3d</fix>
</trkpt>
<trkpt lat="40.0728424" lon="-105.2305755">
  <ele>1588.05</ele>
  <time>2026-08-27T18:27:21Z</time>
  <course>151.03</course>
  <speed>0.0</speed>
  <fix>3d</fix>
</trkpt>
<trkpt lat="40.0728422" lon="-105.2305753">
  <ele>1587.95</ele>
  <time>2026-08-27T18:27:21Z</time>
  <course>11.66</course>
  <speed>0.022360679774997897</speed>
  <fix>3d</fix>
</trkpt>
<trkpt lat="40.0728424" lon="-105.2305755">
  <ele>1587.95</ele>
  <time>2026-08-27T18:27:21Z</time>
  <course>155.93</course>
  <speed>0.0</speed>
  <fix>3d</fix>
</trkpt>
<trkpt lat="40.0728422" lon="-105.2305753">
  <ele>1587.85</ele>
  <time>2026-08-27T18:27:21Z</time>
  <course>11.67</course>
  <speed>0.022360679774997897</speed>
  <fix>3d</fix>
</trkpt>
<trkpt lat="40.0728424" lon="-105.2305755">
  <ele>1587.85</ele>
  <time>2026-08-27T18:27:21Z</time>
  <course>160.6</course>
  <speed>0.0</speed>
  <fix>3d</fix>
</trkpt>
<trkpt lat="40.0728422" lon="-105.2305753">
  <ele>1587.75</ele>
  <time>2026-08-27T18:27:21Z</time>
  <course>11.67</course>
  <speed>0.022360679774997897</speed>
  <fix>3d</fix>
</trkpt>
<trkpt lat="40.0728424" lon="-105.2305755">
  <ele>1587.75</ele>
  <time>2026-08-27T18:27:21Z</time>
  <course>165.91</course>
  <speed>0.0</speed>
  <fix>3d</fix>
</trkpt>
<trkpt lat="40.0728422" lon="-105.2305753">
  <ele>1587.65</ele>
  <time>2026-08-27T18:27:21Z</time>
  <course>11.65</course>
  <speed>0.022360679774997897</speed>
  <fix>3d</fix>
</trkpt>
<trkpt lat="40.0728423" lon="-105.2305755">
  <ele>1587.64</ele>
  <time>2026-08-27T18:27:21Z</time>
  <course>171.65</course>
  <speed>0.0</speed>
  <fix>3d</fix>
</trkpt>
<trkpt lat="40.0728422" lon="-105.2305753">
  <ele>1587.55</ele>
  <time>2026-08-27T18:27:21Z</time>
  <course>11.64</course>
  <speed>0.022360679774997897</speed>
  <fix>3d</fix>
</trkpt>
<trkpt lat="40.0728423" lon="-105.2305755">
  <ele>1587.55</ele>
  <time>2026-08-27T18:27:21Z</time>
  <course>175.12</course>
  <speed>0.0</speed>
  <fix>3d</fix>
</trkpt>
<trkpt lat="40.0728422" lon="-105.2305753">
  <ele>1587.45</ele>
  <time>2026-08-27T18:27:21Z</time>
  <course>11.64</course>
  <speed>0.022360679774997897</speed>
  <fix>3d</fix>
</trkpt>
<trkpt lat="40.0728423" lon="-105.2305755">
  <ele>1587.45</ele>
  <time>2026-08-27T18:27:21Z</time>
  <course>178.46</course>
  <speed>0.0</speed>
  <fix>3d</fix>
</trkpt>
<trkpt lat="40.0728422" lon="-105.2305753">
  <ele>1587.35</ele>
  <time>2026-08-27T18:27:21Z</time>
  <course>11.64</course>
  <speed>0.022360679774997897</speed>
  <fix>3d</fix>
</trkpt>
<trkpt lat="40.0728423" lon="-105.2305755">
  <ele>1587.35</ele>
  <time>2026-08-27T18:27:21Z</time>
  <course>183.36</course>
  <speed>0.0</speed>
  <fix>3d</fix>
</trkpt>
<trkpt lat="40.0728422" lon="-105.2305754">
  <ele>1587.25</ele>
  <time>2026-08-27T18:27:21Z</time>
  <course>11.64</course>
  <speed>0.022360679774997897</speed>
  <fix>3d</fix>
</trkpt>
<trkpt lat="40.0728423" lon="-105.2305755">
  <ele>1587.25</ele>
  <time>2026-08-27T18:27:21Z</time>
  <course>187.92</course>
  <speed>0.0</speed>
  <fix>3d</fix>
</trkpt>
<trkpt lat="40.0728422" lon="-105.2305754">
  <ele>1587.15</ele>
  <time>2026-08-27T18:27:21Z</time>
  <course>11.62</course>
  <speed>0.01414213562373095</speed>
  <fix>3d</fix>
</trkpt>
<trkpt lat="40.0728423" lon="-105.2305755">
  <ele>1587.14</ele>
  <time>2026-08-27T18:27:21Z</time>
  <course>192.15</course>
  <speed>0.0</speed>
  <fix>3d</fix>
</trkpt>
<trkpt lat="40.0728422" lon="-105.2305754">
  <ele>1587.05</ele>
  <time>2026-08-27T18:27:21Z</time>
  <course>11.61</course>
  <speed>0.01414213562373095</speed>
  <fix>3d</fix>
</trkpt>
<trkpt lat="40.0728423" lon="-105.2305755">
  <ele>1587.05</ele>
  <time>2026-08-27T18:27:21Z</time>
  <course>196.28</course>
  <speed>0.0</speed>
  <fix>3d</fix>
</trkpt>
<trkpt lat="40.0728422" lon="-105.2305754">
  <ele>1586.95</ele>
  <time>2026-08-27T18:27:21Z</time>
  <course>11.61</course>
  <speed>0.01414213562373095</speed>
  <fix>3d</fix>
</trkpt>
<trkpt lat="40.0728423" lon="-105.2305755">
  <ele>1586.95</ele>
  <time>2026-08-27T18:27:21Z</time>
  <course>201.06</course>
  <speed>0.0</speed>
  <fix>3d</fix>
</trkpt>
<trkpt lat="40.0728422" lon="-105.2305754">
  <ele>1586.85</ele>
  <time>2026-08-27T18:27:21Z</time>
  <course>11.62</course>
  <speed>0.01414213562373095</speed>
  <fix>3d</fix>
</trkpt>
<trkpt lat="40.0728423" lon="-105.2305755">
  <ele>1586.85</ele>
  <time>2026-08-27T18:27:21Z</time>
  <course>208.4</course>
  <speed>0.0</speed>
  <fix>3d</fix>
</trkpt>
<trkpt lat="40.0728422" lon="-105.2305754">
  <ele>1586.75</ele>
  <time>2026-08-27T18:27:21Z</time>
  <course>11.62</course>
  <speed>0.01414213562373095</speed>
  <fix>3d</fix>
</trkpt>
<trkpt lat="40.0728423" lon="-105.2305755">
  <ele>1586.75</ele>
  <time>2026-08-27T18:27:21Z</time>
  <course>212.51</course>
  <speed>0.0</speed>
  <fix>3d</fix>
</trkpt>
<trkpt lat="40.0728422" lon="-105.2305754">
  <ele>1586.65</ele>
  <time>2026-08-27T18:27:21Z</time>
  <course>11.62</course>
  <speed>0.01414213562373095</speed>
  <fix>3d</fix>
</trkpt>
<trkpt lat="40.0728423" lon="-105.2305755">
  <ele>1586.64</ele>
  <time>2026-08-27T18:27:21Z</time>
  <course>209.57</course>
  <speed>0.0</speed>
  <fix>3d</fix>
</trkpt>
<trkpt lat="40.0728422" lon="-105.2305754">
  <ele>1586.55</ele>
  <time>2026-08-27T18:27:21Z</time>
  <course>11.63</course>
  <speed>0.01414213562373095</speed>
  <fix>3d</fix>
</trkpt>
<trkpt lat="40.0728423" lon="-105.2305755">
  <ele>1586.55</ele>
  <time>2026-08-27T18:27:21Z</time>
  <course>212.72</course>
  <speed>0.0</speed>
  <fix>3d</fix>
</trkpt>
<trkpt lat="40.0728422" lon="-105.2305754">
  <ele>1586.45</ele>
  <time>2026-08-27T18:27:21Z</time>
  <course>11.61</course>
  <speed>0.01414213562373095</speed>
  <fix>3d</fix>
</trkpt>
<trkpt lat="40.0728423" lon="-105.2305755">
  <ele>1586.44</ele>
  <time>2026-08-27T18:27:21Z</time>
  <course>216.49</course>
  <speed>0.0</speed>
  <fix>3d</fix>
</trkpt>
<trkpt lat="40.0728422" lon="-105.2305754">
  <ele>1586.35</ele>
  <time>2026-08-27T18:27:21Z</time>
  <course>11.6</course>
  <speed>0.01414213562373095</speed>
  <fix>3d</fix>
</trkpt>
<trkpt lat="40.0728423" lon="-105.2305755">
  <ele>1586.34</ele>
  <time>2026-08-27T18:27:21Z</time>
  <course>223.35</course>
  <speed>0.0</speed>
  <fix>3d</fix>
</trkpt>
<trkpt lat="40.0728422" lon="-105.2305754">
  <ele>1586.24</ele>
  <time>2026-08-27T18:27:21Z</time>
  <course>11.59</course>
  <speed>0.01414213562373095</speed>
  <fix>3d</fix>
</trkpt>
<trkpt lat="40.0728423" lon="-105.2305755">
  <ele>1586.24</ele>
  <time>2026-08-27T18:27:21Z</time>
  <course>228.01</course>
  <speed>0.0</speed>
  <fix>3d</fix>
</trkpt>
<trkpt lat="40.0728422" lon="-105.2305754">
  <ele>1586.15</ele>
  <time>2026-08-27T18:27:21Z</time>
  <course>11.56</course>
  <speed>0.01</speed>
  <fix>3d</fix>
</trkpt>
<trkpt lat="40.0728422" lon="-105.2305755">
  <ele>1586.13</ele>
  <time>2026-08-27T18:27:21Z</time>
  <course>246.75</course>
  <speed>0.0</speed>
  <fix>3d</fix>
</trkpt>
<trkpt lat="40.0728422" lon="-105.2305754">
  <ele>1586.15</ele>
  <time>2026-08-27T18:27:21Z</time>
  <course>11.59</course>
  <speed>0.01414213562373095</speed>
  <fix>3d</fix>
</trkpt>
<trkpt lat="40.0728422" lon="-105.2305755">
  <ele>1586.08</ele>
  <time>2026-08-27T18:27:21Z</time>
  <course>285.44</course>
  <speed>0.01</speed>
  <fix>3d</fix>
</trkpt>
<trkpt lat="40.0728422" lon="-105.2305754">
  <ele>1586.16</ele>
  <time>2026-08-27T18:27:21Z</time>
  <course>11.64</course>
  <speed>0.022360679774997897</speed>
  <fix>3d</fix>
</trkpt>
<trkpt lat="40.0728422" lon="-105.2305755">
  <ele>1586.08</ele>
  <time>2026-08-27T18:27:21Z</time>
  <course>298.91</course>
  <speed>0.0</speed>
  <fix>3d</fix>
</trkpt>
<trkpt lat="40.0728422" lon="-105.2305754">
  <ele>1586.15</ele>
  <time>2026-08-27T18:27:21Z</time>
  <course>11.68</course>
  <speed>0.022360679774997897</speed>
  <fix>3d</fix>
</trkpt>
<trkpt lat="40.0728421" lon="-105.2305755">
  <ele>1586.1</ele>
  <time>2026-08-27T18:27:21Z</time>
  <course>86.07</course>
  <speed>0.0</speed>
  <fix>3d</fix>
</trkpt>
<trkpt lat="40.0728422" lon="-105.2305754">
  <ele>1586.14</ele>
  <time>2026-08-27T18:27:21Z</time>
  <course>11.73</course>
  <speed>0.022360679774997897</speed>
  <fix>3d</fix>
</trkpt>
<trkpt lat="40.0728421" lon="-105.2305755">
  <ele>1586.09</ele>
  <time>2026-08-27T18:27:21Z</time>
  <course>104.66</course>
  <speed>0.0</speed>
  <fix>3d</fix>
</trkpt>
<trkpt lat="40.0728422" lon="-105.2305754">
  <ele>1586.14</ele>
  <time>2026-08-27T18:27:21Z</time>
  <course>11.81</course>
  <speed>0.0282842712474619</speed>
  <fix>3d</fix>
</trkpt>
<trkpt lat="40.0728421" lon="-105.2305755">
  <ele>1586.09</ele>
  <time>2026-08-27T18:27:21Z</time>
  <course>321.74</course>
  <speed>0.0</speed>
  <fix>3d</fix>
</trkpt>
<trkpt lat="40.0728421" lon="-105.2305754">
  <ele>1586.15</ele>
  <time>2026-08-27T18:27:21Z</time>
  <course>11.93</course>
  <speed>0.0282842712474619</speed>
  <fix>3d</fix>
</trkpt>
<trkpt lat="40.0728421" lon="-105.2305755">
  <ele>1586.09</ele>
  <time>2026-08-27T18:27:21Z</time>
  <course>358.57</course>
  <speed>0.0</speed>
  <fix>3d</fix>
</trkpt>
<trkpt lat="40.0728421" lon="-105.2305754">
  <ele>1586.15</ele>
  <time>2026-08-27T18:27:21Z</time>
  <course>12.06</course>
  <speed>0.0282842712474619</speed>
  <fix>3d</fix>
</trkpt>
<trkpt lat="40.0728421" lon="-105.2305755">
  <ele>1586.09</ele>
  <time>2026-08-27T18:27:21Z</time>
  <course>2.62</course>
  <speed>0.0</speed>
  <fix>3d</fix>
</trkpt>
<trkpt lat="40.0728421" lon="-105.2305754">
  <ele>1586.15</ele>
  <time>2026-08-27T18:27:21Z</time>
  <course>12.19</course>
  <speed>0.0282842712474619</speed>
  <fix>3d</fix>
</trkpt>
<trkpt lat="40.0728421" lon="-105.2305755">
  <ele>1586.09</ele>
  <time>2026-08-27T18:27:21Z</time>
  <course>340.64</course>
  <speed>0.0</speed>
  <fix>3d</fix>
</trkpt>
<trkpt lat="40.0728421" lon="-105.2305754">
  <ele>1586.15</ele>
  <time>2026-08-27T18:27:21Z</time>
  <course>12.31</course>
  <speed>0.0282842712474619</speed>
  <fix>3d</fix>
</trkpt>
<trkpt lat="40.0728421" lon="-105.2305755">
  <ele>1586.09</ele>
  <time>2026-08-27T18:27:21Z</time>
  <course>331.28</course>
  <speed>0.0</speed>
  <fix>3d</fix>
</trkpt>
<trkpt lat="40.0728421" lon="-105.2305754">
  <ele>1586.15</ele>
  <time>2026-08-27T18:27:21Z</time>
  <course>12.44</course>
  <speed>0.0282842712474619</speed>
  <fix>3d</fix>
</trkpt>
<trkpt lat="40.0728421" lon="-105.2305755">
  <ele>1586.09</ele>
  <time>2026-08-27T18:27:21Z</time>
  <course>350.91</course>
  <speed>0.0</speed>
  <fix>3d</fix>
</trkpt>
<trkpt lat="40.0728421" lon="-105.2305754">
  <ele>1586.15</ele>
  <time>2026-08-27T18:27:21Z</time>
  <course>12.56</course>
  <speed>0.0282842712474619</speed>
  <fix>3d</fix>
</trkpt>
<trkpt lat="40.0728421" lon="-105.2305755">
  <ele>1586.09</ele>
  <time>2026-08-27T18:27:21Z</time>
  <course>5.73</course>
  <speed>0.0</speed>
  <fix>3d</fix>
</trkpt>
<trkpt lat="40.0728421" lon="-105.2305754">
  <ele>1586.16</ele>
  <time>2026-08-27T18:27:21Z</time>
  <course>12.7</course>
  <speed>0.022360679774997897</speed>
  <fix>3d</fix>
</trkpt>
<trkpt lat="40.0728421" lon="-105.2305755">
  <ele>1586.09</ele>
  <time>2026-08-27T18:27:21Z</time>
  <course>265.15</course>
  <speed>0.0</speed>
  <fix>3d</fix>
</trkpt>
<trkpt lat="40.072842" lon="-105.2305754">
  <ele>1586.16</ele>
  <time>2026-08-27T18:27:21Z</time>
  <course>12.85</course>
  <speed>0.022360679774997897</speed>
  <fix>3d</fix>
</trkpt>
<trkpt lat="40.0728421" lon="-105.2305755">
  <ele>1586.09</ele>
  <time>2026-08-27T18:27:21Z</time>
  <course>250.84</course>
  <speed>0.0</speed>
  <fix>3d</fix>
</trkpt>
<trkpt lat="40.072842" lon="-105.2305754">
  <ele>1586.16</ele>
  <time>2026-08-27T18:27:21Z</time>
  <course>13.01</course>
  <speed>0.0282842712474619</speed>
  <fix>3d</fix>
</trkpt>
<trkpt lat="40.0728421" lon="-105.2305755">
  <ele>1586.09</ele>
  <time>2026-08-27T18:27:21Z</time>
  <course>247.53</course>
  <speed>0.0</speed>
  <fix>3d</fix>
</trkpt>
<trkpt lat="40.072842" lon="-105.2305754">
  <ele>1586.16</ele>
  <time>2026-08-27T18:27:21Z</time>
  <course>13.15</course>
  <speed>0.0282842712474619</speed>
  <fix>3d</fix>
</trkpt>
<trkpt lat="40.0728421" lon="-105.2305755">
  <ele>1586.09</ele>
  <time>2026-08-27T18:27:21Z</time>
  <course>256.77</course>
  <speed>0.0</speed>
  <fix>3d</fix>
</trkpt>
<trkpt lat="40.072842" lon="-105.2305754">
  <ele>1586.16</ele>
  <time>2026-08-27T18:27:21Z</time>
  <course>13.29</course>
  <speed>0.0282842712474619</speed>
  <fix>3d</fix>
</trkpt>
<trkpt lat="40.0728421" lon="-105.2305755">
  <ele>1586.09</ele>
  <time>2026-08-27T18:27:21Z</time>
  <course>259.16</course>
  <speed>0.0</speed>
  <fix>3d</fix>
</trkpt>
<trkpt lat="40.072842" lon="-105.2305754">
  <ele>1586.17</ele>
  <time>2026-08-27T18:27:21Z</time>
  <course>13.41</course>
  <speed>0.0282842712474619</speed>
  <fix>3d</fix>
</trkpt>
<trkpt lat="40.0728421" lon="-105.2305755">
  <ele>1586.09</ele>
  <time>2026-08-27T18:27:21Z</time>
  <course>257.39</course>
  <speed>0.0</speed>
  <fix>3d</fix>
</trkpt>
<trkpt lat="40.072842" lon="-105.2305754">
  <ele>1586.17</ele>
  <time>2026-08-27T18:27:21Z</time>
  <course>13.51</course>
  <speed>0.0282842712474619</speed>
  <fix>3d</fix>
</trkpt>
<trkpt lat="40.0728421" lon="-105.2305755">
  <ele>1586.09</ele>
  <time>2026-08-27T18:27:21Z</time>
  <course>258.22</course>
  <speed>0.0</speed>
  <fix>3d</fix>
</trkpt>
<trkpt lat="40.072842" lon="-105.2305754">
  <ele>1586.17</ele>
  <time>2026-08-27T18:27:21Z</time>
  <course>13.61</course>
  <speed>0.0282842712474619</speed>
  <fix>3d</fix>
</trkpt>
<trkpt lat="40.0728421" lon="-105.2305755">
  <ele>1586.09</ele>
  <time>2026-08-27T18:27:21Z</time>
  <course>272.98</course>
  <speed>0.0</speed>
  <fix>3d</fix>
</trkpt>
<trkpt lat="40.072842" lon="-105.2305753">
  <ele>1586.17</ele>
  <time>2026-08-27T18:27:21Z</time>
  <course>13.7</course>
  <speed>0.0282842712474619</speed>
  <fix>3d</fix>
</trkpt>
<trkpt lat="40.0728421" lon="-105.2305755">
  <ele>1586.09</ele>
  <time>2026-08-27T18:27:21Z</time>
  <course>286.83</course>
  <speed>0.0</speed>
  <fix>3d</fix>
</trkpt>
<trkpt lat="40.072842" lon="-105.2305753">
  <ele>1586.17</ele>
  <time>2026-08-27T18:27:21Z</time>
  <course>13.78</course>
  <speed>0.0282842712474619</speed>
  <fix>3d</fix>
</trkpt>
<trkpt lat="40.0728421" lon="-105.2305755">
  <ele>1586.09</ele>
  <time>2026-08-27T18:27:21Z</time>
  <course>288.74</course>
  <speed>0.0</speed>
  <fix>3d</fix>
</trkpt>
<trkpt lat="40.072842" lon="-105.2305754">
  <ele>1586.17</ele>
  <time>2026-08-27T18:27:21Z</time>
  <course>13.85</course>
  <speed>0.0282842712474619</speed>
  <fix>3d</fix>
</trkpt>
<trkpt lat="40.0728421" lon="-105.2305755">
  <ele>1586.09</ele>
  <time>2026-08-27T18:27:21Z</time>
  <course>286.86</course>
  <speed>0.0</speed>
  <fix>3d</fix>
</trkpt>
<trkpt lat="40.072842" lon="-105.2305754">
  <ele>1586.17</ele>
  <time>2026-08-27T18:27:21Z</time>
  <course>13.92</course>
  <speed>0.022360679774997897</speed>
  <fix>3d</fix>
</trkpt>
<trkpt lat="40.0728421" lon="-105.2305755">
  <ele>1586.09</ele>
  <time>2026-08-27T18:27:21Z</time>
  <course>286.45</course>
  <speed>0.0</speed>
  <fix>3d</fix>
</trkpt>
<trkpt lat="40.072842" lon="-105.2305754">
  <ele>1586.17</ele>
  <time>2026-08-27T18:27:21Z</time>
  <course>13.98</course>
  <speed>0.022360679774997897</speed>
  <fix>3d</fix>
</trkpt>
<trkpt lat="40.0728421" lon="-105.2305755">
  <ele>1586.09</ele>
  <time>2026-08-27T18:27:21Z</time>
  <course>286.4</course>
  <speed>0.0</speed>
  <fix>3d</fix>
</trkpt>
<trkpt lat="40.072842" lon="-105.2305754">
  <ele>1586.17</ele>
  <time>2026-08-27T18:27:21Z</time>
  <course>14.03</course>
  <speed>0.022360679774997897</speed>
  <fix>3d</fix>
</trkpt>
<trkpt lat="40.0728421" lon="-105.2305755">
  <ele>1586.09</ele>
  <time>2026-08-27T18:27:21Z</time>
  <course>286.16</course>
  <speed>0.0</speed>
  <fix>3d</fix>
</trkpt>
<trkpt lat="40.072842" lon="-105.2305754">
  <ele>1586.17</ele>
  <time>2026-08-27T18:27:21Z</time>
  <course>14.09</course>
  <speed>0.022360679774997897</speed>
  <fix>3d</fix>
</trkpt>
<trkpt lat="40.0728421" lon="-105.2305755">
  <ele>1586.09</ele>
  <time>2026-08-27T18:27:21Z</time>
  <course>285.93</course>
  <speed>0.0</speed>
  <fix>3d</fix>
</trkpt>
<trkpt lat="40.072842" lon="-105.2305754">
  <ele>1586.18</ele>
  <time>2026-08-27T18:27:21Z</time>
  <course>14.13</course>
  <speed>0.022360679774997897</speed>
  <fix>3d</fix>
</trkpt>
<trkpt lat="40.0728421" lon="-105.2305755">
  <ele>1586.09</ele>
  <time>2026-08-27T18:27:21Z</time>
  <course>285.75</course>
  <speed>0.0</speed>
  <fix>3d</fix>
</trkpt>
<trkpt lat="40.072842" lon="-105.2305754">
  <ele>1586.17</ele>
  <time>2026-08-27T18:27:21Z</time>
  <course>14.18</course>
  <speed>0.022360679774997897</speed>
  <fix>3d</fix>
</trkpt>
<trkpt lat="40.0728421" lon="-105.2305755">
  <ele>1586.09</ele>
  <time>2026-08-27T18:27:21Z</time>
  <course>285.59</course>
  <speed>0.0</speed>
  <fix>3d</fix>
</trkpt>
<trkpt lat="40.072842" lon="-105.2305754">
  <ele>1586.18</ele>
  <time>2026-08-27T18:27:21Z</time>
  <course>14.22</course>
  <speed>0.022360679774997897</speed>
  <fix>3d</fix>
</trkpt>
<trkpt lat="40.0728421" lon="-105.2305755">
  <ele>1586.09</ele>
  <time>2026-08-27T18:27:21Z</time>
  <course>285.45</course>
  <speed>0.0</speed>
  <fix>3d</fix>
</trkpt>
<trkpt lat="40.072842" lon="-105.2305754">
  <ele>1586.18</ele>
  <time>2026-08-27T18:27:21Z</time>
  <course>14.26</course>
  <speed>0.022360679774997897</speed>
  <fix>3d</fix>
</trkpt>
<trkpt lat="40.0728421" lon="-105.2305755">
  <ele>1586.09</ele>
  <time>2026-08-27T18:27:21Z</time>
  <course>285.32</course>
  <speed>0.0</speed>
  <fix>3d</fix>
</trkpt>
<trkpt lat="40.072842" lon="-105.2305754">
  <ele>1586.18</ele>
  <time>2026-08-27T18:27:21Z</time>
  <course>14.3</course>
  <speed>0.022360679774997897</speed>
  <fix>3d</fix>
</trkpt>
<trkpt lat="40.0728421" lon="-105.2305755">
  <ele>1586.09</ele>
  <time>2026-08-27T18:27:21Z</time>
  <course>285.2</course>
  <speed>0.0</speed>
  <fix>3d</fix>
</trkpt>
<trkpt lat="40.072842" lon="-105.2305754">
  <ele>1586.18</ele>
  <time>2026-08-27T18:27:21Z</time>
  <course>14.33</course>
  <speed>0.022360679774997897</speed>
  <fix>3d</fix>
</trkpt>
<trkpt lat="40.0728421" lon="-105.2305755">
  <ele>1586.09</ele>
  <time>2026-08-27T18:27:21Z</time>
  <course>285.09</course>
  <speed>0.0</speed>
  <fix>3d</fix>
</trkpt>
<trkpt lat="40.072842" lon="-105.2305754">
  <ele>1586.18</ele>
  <time>2026-08-27T18:27:21Z</time>
  <course>14.36</course>
  <speed>0.022360679774997897</speed>
  <fix>3d</fix>
</trkpt>
<trkpt lat="40.0728421" lon="-105.2305755">
  <ele>1586.09</ele>
  <time>2026-08-27T18:27:21Z</time>
  <course>284.99</course>
  <speed>0.0</speed>
  <fix>3d</fix>
</trkpt>
<trkpt lat="40.072842" lon="-105.2305754">
  <ele>1586.18</ele>
  <time>2026-08-27T18:27:21Z</time>
  <course>14.39</course>
  <speed>0.022360679774997897</speed>
  <fix>3d</fix>
</trkpt>
<trkpt lat="40.0728421" lon="-105.2305755">
  <ele>1586.09</ele>
  <time>2026-08-27T18:27:21Z</time>
  <course>284.91</course>
  <speed>0.0</speed>
  <fix>3d</fix>
</trkpt>
<trkpt lat="40.072842" lon="-105.2305754">
  <ele>1586.18</ele>
  <time>2026-08-27T18:27:21Z</time>
  <course>14.42</course>
  <speed>0.022360679774997897</speed>
  <fix>3d</fix>
</trkpt>
<trkpt lat="40.0728421" lon="-105.2305755">
  <ele>1586.09</ele>
  <time>2026-08-27T18:27:21Z</time>
  <course>284.83</course>
  <speed>0.0</speed>
  <fix>3d</fix>
</trkpt>
<trkpt lat="40.072842" lon="-105.2305754">
  <ele>1586.18</ele>
  <time>2026-08-27T18:27:21Z</time>
  <course>14.45</course>
  <speed>0.022360679774997897</speed>
  <fix>3d</fix>
</trkpt>
<trkpt lat="40.0728421" lon="-105.2305755">
  <ele>1586.09</ele>
  <time>2026-08-27T18:27:21Z</time>
  <course>284.76</course>
  <speed>0.0</speed>
  <fix>3d</fix>
</trkpt>
<trkpt lat="40.072842" lon="-105.2305754">
  <ele>1586.18</ele>
  <time>2026-08-27T18:27:21Z</time>
  <course>14.47</course>
  <speed>0.022360679774997897</speed>
  <fix>3d</fix>
</trkpt>
<trkpt lat="40.0728421" lon="-105.2305755">
  <ele>1586.09</ele>
  <time>2026-08-27T18:27:21Z</time>
  <course>284.68</course>
  <speed>0.0</speed>
  <fix>3d</fix>
</trkpt>
<trkpt lat="40.072842" lon="-105.2305754">
  <ele>1586.18</ele>
  <time>2026-08-27T18:27:21Z</time>
  <course>14.5</course>
  <speed>0.022360679774997897</speed>
  <fix>3d</fix>
</trkpt>
<trkpt lat="40.0728421" lon="-105.2305755">
  <ele>1586.09</ele>
  <time>2026-08-27T18:27:21Z</time>
  <course>284.63</course>
  <speed>0.0</speed>
  <fix>3d</fix>
</trkpt>
<trkpt lat="40.072842" lon="-105.2305754">
  <ele>1586.18</ele>
  <time>2026-08-27T18:27:21Z</time>
  <course>14.52</course>
  <speed>0.022360679774997897</speed>
  <fix>3d</fix>
</trkpt>
<trkpt lat="40.0728421" lon="-105.2305755">
  <ele>1586.09</ele>
  <time>2026-08-27T18:27:21Z</time>
  <course>284.58</course>
  <speed>0.0</speed>
  <fix>3d</fix>
</trkpt>
<trkpt lat="40.072842" lon="-105.2305754">
  <ele>1586.18</ele>
  <time>2026-08-27T18:27:21Z</time>
  <course>14.54</course>
  <speed>0.022360679774997897</speed>
  <fix>3d</fix>
</trkpt>
<trkpt lat="40.0728421" lon="-105.2305755">
  <ele>1586.09</ele>
  <time>2026-08-27T18:27:21Z</time>
  <course>284.53</course>
  <speed>0.0</speed>
  <fix>3d</fix>
</trkpt>
<trkpt lat="40.072842" lon="-105.2305754">
  <ele>1586.18</ele>
  <time>2026-08-27T18:27:21Z</time>
  <course>14.56</course>
  <speed>0.022360679774997897</speed>
  <fix>3d</fix>
</trkpt>
<trkpt lat="40.0728421" lon="-105.2305755">
  <ele>1586.09</ele>
  <time>2026-08-27T18:27:21Z</time>
  <course>284.48</course>
  <speed>0.0</speed>
  <fix>3d</fix>
</trkpt>
<trkpt lat="40.072842" lon="-105.2305754">
  <ele>1586.17</ele>
  <time>2026-08-27T18:27:21Z</time>
  <course>14.58</course>
  <speed>0.022360679774997897</speed>
  <fix>3d</fix>
</trkpt>
<trkpt lat="40.0728421" lon="-105.2305755">
  <ele>1586.09</ele>
  <time>2026-08-27T18:27:21Z</time>
  <course>284.44</course>
  <speed>0.0</speed>
  <fix>3d</fix>
</trkpt>
<trkpt lat="40.072842" lon="-105.2305754">
  <ele>1586.17</ele>
  <time>2026-08-27T18:27:21Z</time>
  <course>14.6</course>
  <speed>0.022360679774997897</speed>
  <fix>3d</fix>
</trkpt>
<trkpt lat="40.0728421" lon="-105.2305755">
  <ele>1586.09</ele>
  <time>2026-08-27T18:27:21Z</time>
  <course>284.4</course>
  <speed>0.0</speed>
  <fix>3d</fix>
</trkpt>
<trkpt lat="40.072842" lon="-105.2305754">
  <ele>1586.17</ele>
  <time>2026-08-27T18:27:21Z</time>
  <course>14.62</course>
  <speed>0.022360679774997897</speed>
  <fix>3d</fix>
</trkpt>
<trkpt lat="40.0728421" lon="-105.2305755">
  <ele>1586.09</ele>
  <time>2026-08-27T18:27:21Z</time>
  <course>284.36</course>
  <speed>0.0</speed>
  <fix>3d</fix>
</trkpt>
<trkpt lat="40.072842" lon="-105.2305754">
  <ele>1586.17</ele>
  <time>2026-08-27T18:27:21Z</time>
  <course>14.63</course>
  <speed>0.022360679774997897</speed>
  <fix>3d</fix>
</trkpt>
<trkpt lat="40.0728421" lon="-105.2305755">
  <ele>1586.09</ele>
  <time>2026-08-27T18:27:21Z</time>
  <course>284.33</course>
  <speed>0.0</speed>
  <fix>3d</fix>
</trkpt>
<trkpt lat="40.072842" lon="-105.2305754">
  <ele>1586.17</ele>
  <time>2026-08-27T18:27:21Z</time>
  <course>14.65</course>
  <speed>0.022360679774997897</speed>
  <fix>3d</fix>
</trkpt>
<trkpt lat="40.0728421" lon="-105.2305755">
  <ele>1586.09</ele>
  <time>2026-08-27T18:27:21Z</time>
  <course>284.31</course>
  <speed>0.0</speed>
  <fix>3d</fix>
</trkpt>
<trkpt lat="40.072842" lon="-105.2305754">
  <ele>1586.18</ele>
  <time>2026-08-27T18:27:21Z</time>
  <course>14.66</course>
  <speed>0.022360679774997897</speed>
  <fix>3d</fix>
</trkpt>
<trkpt lat="40.0728421" lon="-105.2305755">
  <ele>1586.09</ele>
  <time>2026-08-27T18:27:21Z</time>
  <course>284.27</course>
  <speed>0.0</speed>
  <fix>3d</fix>
</trkpt>
<trkpt lat="40.072842" lon="-105.2305754">
  <ele>1586.18</ele>
  <time>2026-08-27T18:27:21Z</time>
  <course>14.68</course>
  <speed>0.022360679774997897</speed>
  <fix>3d</fix>
</trkpt>
<trkpt lat="40.0728421" lon="-105.2305755">
  <ele>1586.09</ele>
  <time>2026-08-27T18:27:21Z</time>
  <course>284.23</course>
  <speed>0.0</speed>
  <fix>3d</fix>
</trkpt>
<trkpt lat="40.072842" lon="-105.2305754">
  <ele>1586.18</ele>
  <time>2026-08-27T18:27:21Z</time>
  <course>14.69</course>
  <speed>0.022360679774997897</speed>
  <fix>3d</fix>
</trkpt>
<trkpt lat="40.0728421" lon="-105.2305755">
  <ele>1586.09</ele>
  <time>2026-08-27T18:27:21Z</time>
  <course>284.21</course>
  <speed>0.0</speed>
  <fix>3d</fix>
</trkpt>
<trkpt lat="40.072842" lon="-105.2305754">
  <ele>1586.18</ele>
  <time>2026-08-27T18:27:21Z</time>
  <course>14.7</course>
  <speed>0.022360679774997897</speed>
  <fix>3d</fix>
</trkpt>
<trkpt lat="40.0728421" lon="-105.2305755">
  <ele>1586.09</ele>
  <time>2026-08-27T18:27:21Z</time>
  <course>284.19</course>
  <speed>0.0</speed>
  <fix>3d</fix>
</trkpt>
<trkpt lat="40.072842" lon="-105.2305754">
  <ele>1586.18</ele>
  <time>2026-08-27T18:27:21Z</time>
  <course>14.71</course>
  <speed>0.022360679774997897</speed>
  <fix>3d</fix>
</trkpt>
<trkpt lat="40.0728421" lon="-105.2305755">
  <ele>1586.09</ele>
  <time>2026-08-27T18:27:21Z</time>
  <course>284.17</course>
  <speed>0.0</speed>
  <fix>3d</fix>
</trkpt>
<trkpt lat="40.072842" lon="-105.2305754">
  <ele>1586.18</ele>
  <time>2026-08-27T18:27:21Z</time>
  <course>14.73</course>
  <speed>0.022360679774997897</speed>
  <fix>3d</fix>
</trkpt>
<trkpt lat="40.0728421" lon="-105.2305755">
  <ele>1586.09</ele>
  <time>2026-08-27T18:27:21Z</time>
  <course>284.16</course>
  <speed>0.0</speed>
  <fix>3d</fix>
</trkpt>
<trkpt lat="40.072842" lon="-105.2305754">
  <ele>1586.19</ele>
  <time>2026-08-27T18:27:21Z</time>
  <course>14.74</course>
  <speed>0.022360679774997897</speed>
  <fix>3d</fix>
</trkpt>
<trkpt lat="40.0728421" lon="-105.2305755">
  <ele>1586.09</ele>
  <time>2026-08-27T18:27:21Z</time>
  <course>284.13</course>
  <speed>0.0</speed>
  <fix>3d</fix>
</trkpt>
<trkpt lat="40.072842" lon="-105.2305754">
  <ele>1586.19</ele>
  <time>2026-08-27T18:27:21Z</time>
  <course>14.75</course>
  <speed>0.022360679774997897</speed>
  <fix>3d</fix>
</trkpt>
<trkpt lat="40.0728421" lon="-105.2305755">
  <ele>1586.09</ele>
  <time>2026-08-27T18:27:21Z</time>
  <course>284.11</course>
  <speed>0.0</speed>
  <fix>3d</fix>
</trkpt>
<trkpt lat="40.072842" lon="-105.2305754">
  <ele>1586.19</ele>
  <time>2026-08-27T18:27:21Z</time>
  <course>14.76</course>
  <speed>0.022360679774997897</speed>
  <fix>3d</fix>
</trkpt>
<trkpt lat="40.0728421" lon="-105.2305755">
  <ele>1586.09</ele>
  <time>2026-08-27T18:27:21Z</time>
  <course>284.1</course>
  <speed>0.0</speed>
  <fix>3d</fix>
</trkpt>
<trkpt lat="40.072842" lon="-105.2305754">
  <ele>1586.19</ele>
  <time>2026-08-27T18:27:21Z</time>
  <course>14.77</course>
  <speed>0.022360679774997897</speed>
  <fix>3d</fix>
</trkpt>
<trkpt lat="40.0728421" lon="-105.2305755">
  <ele>1586.09</ele>
  <time>2026-08-27T18:27:21Z</time>
  <course>284.08</course>
  <speed>0.0</speed>
  <fix>3d</fix>
</trkpt>
<trkpt lat="40.072842" lon="-105.2305754">
  <ele>1586.19</ele>
  <time>2026-08-27T18:27:21Z</time>
  <course>14.78</course>
  <speed>0.022360679774997897</speed>
  <fix>3d</fix>
</trkpt>
<trkpt lat="40.0728421" lon="-105.2305755">
  <ele>1586.09</ele>
  <time>2026-08-27T18:27:21Z</time>
  <course>284.07</course>
  <speed>0.0</speed>
  <fix>3d</fix>
</trkpt>
<trkpt lat="40.072842" lon="-105.2305754">
  <ele>1586.19</ele>
  <time>2026-08-27T18:27:21Z</time>
  <course>14.78</course>
  <speed>0.022360679774997897</speed>
  <fix>3d</fix>
</trkpt>
<trkpt lat="40.0728421" lon="-105.2305755">
  <ele>1586.09</ele>
  <time>2026-08-27T18:27:21Z</time>
  <course>284.06</course>
  <speed>0.0</speed>
  <fix>3d</fix>
</trkpt>
<trkpt lat="40.072842" lon="-105.2305754">
  <ele>1586.19</ele>
  <time>2026-08-27T18:27:21Z</time>
  <course>14.79</course>
  <speed>0.022360679774997897</speed>
  <fix>3d</fix>
</trkpt>
<trkpt lat="40.0728421" lon="-105.2305755">
  <ele>1586.09</ele>
  <time>2026-08-27T18:27:21Z</time>
  <course>284.05</course>
  <speed>0.0</speed>
  <fix>3d</fix>
</trkpt>
<trkpt lat="40.072842" lon="-105.2305754">
  <ele>1586.19</ele>
  <time>2026-08-27T18:27:21Z</time>
  <course>14.8</course>
  <speed>0.022360679774997897</speed>
  <fix>3d</fix>
</trkpt>
<trkpt lat="40.0728421" lon="-105.2305755">
  <ele>1586.09</ele>
  <time>2026-08-27T18:27:21Z</time>
  <course>284.03</course>
  <speed>0.0</speed>
  <fix>3d</fix>
</trkpt>
<trkpt lat="40.072842" lon="-105.2305754">
  <ele>1586.19</ele>
  <time>2026-08-27T18:27:21Z</time>
  <course>14.83</course>
  <speed>0.022360679774997897</speed>
  <fix>3d</fix>
</trkpt>
<trkpt lat="40.0728421" lon="-105.2305755">
  <ele>1586.09</ele>
  <time>2026-08-27T18:27:21Z</time>
  <course>284.01</course>
  <speed>0.0</speed>
  <fix>3d</fix>
</trkpt>
<trkpt lat="40.072842" lon="-105.2305754">
  <ele>1586.18</ele>
  <time>2026-08-27T18:27:21Z</time>
  <course>15.06</course>
  <speed>0.022360679774997897</speed>
  <fix>3d</fix>
</trkpt>
<trkpt lat="40.0728421" lon="-105.2305755">
  <ele>1586.09</ele>
  <time>2026-08-27T18:27:21Z</time>
  <course>284.12</course>
  <speed>0.0</speed>
  <fix>3d</fix>
</trkpt>
<trkpt lat="40.072842" lon="-105.2305754">
  <ele>1586.18</ele>
  <time>2026-08-27T18:27:21Z</time>
  <course>15.32</course>
  <speed>0.022360679774997897</speed>
  <fix>3d</fix>
</trkpt>
<trkpt lat="40.0728421" lon="-105.2305755">
  <ele>1586.09</ele>
  <time>2026-08-27T18:27:21Z</time>
  <course>284.29</course>
  <speed>0.0</speed>
  <fix>3d</fix>
</trkpt>
<trkpt lat="40.072842" lon="-105.2305754">
  <ele>1586.18</ele>
  <time>2026-08-27T18:27:21Z</time>
  <course>15.56</course>
  <speed>0.022360679774997897</speed>
  <fix>3d</fix>
</trkpt>
<trkpt lat="39.6566745" lon="-104.1377265">
  <ele>1569.61</ele>
  <time>2026-08-27T18:27:22Z</time>
  <course>247.54</course>
  <speed>0.0</speed>
  <fix>3d</fix>
</trkpt>
<trkpt lat="40.072842" lon="-105.230575">
  <ele>1586.09</ele>
  <time>2026-08-27T18:27:22Z</time>
  <course>4.22</course>
  <speed>0.0</speed>
  <fix>3d</fix>
</trkpt>
<trkpt lat="40.072842" lon="-105.230575">
  <ele>1586.09</ele>
  <time>2026-08-27T18:27:22Z</time>
  <course>201.62</course>
  <speed>0.0</speed>
  <fix>3d</fix>
</trkpt>
<trkpt lat="40.072842" lon="-105.230575">
  <ele>1586.09</ele>
  <time>2026-08-27T18:27:22Z</time>
  <course>4.62</course>
  <speed>0.0</speed>
  <fix>3d</fix>
</trkpt>
<trkpt lat="40.072842" lon="-105.230575">
  <ele>1586.09</ele>
  <time>2026-08-27T18:27:22Z</time>
  <course>309.16</course>
  <speed>0.0</speed>
  <fix>3d</fix>
</trkpt>
<trkpt lat="40.072842" lon="-105.230575">
  <ele>1586.09</ele>
  <time>2026-08-27T18:27:22Z</time>
  <course>5.4</course>
  <speed>0.0</speed>
  <fix>3d</fix>
</trkpt>
<trkpt lat="40.072842" lon="-105.230575">
  <ele>1586.09</ele>
  <time>2026-08-27T18:27:22Z</time>
  <course>17.18</course>
  <speed>0.0</speed>
  <fix>3d</fix>
</trkpt>
<trkpt lat="40.072842" lon="-105.230575">
  <ele>1586.09</ele>
  <time>2026-08-27T18:27:22Z</time>
  <course>6.14</course>
  <speed>0.0</speed>
  <fix>3d</fix>
</trkpt>
<trkpt lat="40.072842" lon="-105.230575">
  <ele>1586.09</ele>
  <time>2026-08-27T18:27:22Z</time>
  <course>45.49</course>
  <speed>0.0</speed>
  <fix>3d</fix>
</trkpt>
<trkpt lat="40.072842" lon="-105.230575">
  <ele>1586.09</ele>
  <time>2026-08-27T18:27:22Z</time>
  <course>6.83</course>
  <speed>0.0</speed>
  <fix>3d</fix>
</trkpt>
<trkpt lat="40.072842" lon="-105.230575">
  <ele>1586.09</ele>
  <time>2026-08-27T18:27:22Z</time>
  <course>343.37</course>
  <speed>0.0</speed>
  <fix>3d</fix>
</trkpt>
<trkpt lat="40.072842" lon="-105.230575">
  <ele>1586.09</ele>
  <time>2026-08-27T18:27:22Z</time>
  <course>7.5</course>
  <speed>0.0</speed>
  <fix>3d</fix>
</trkpt>
<trkpt lat="40.072842" lon="-105.230575">
  <ele>1586.09</ele>
  <time>2026-08-27T18:27:22Z</time>
  <course>330.72</course>
  <speed>0.0</speed>
  <fix>3d</fix>
</trkpt>
<trkpt lat="40.072842" lon="-105.230575">
  <ele>1586.09</ele>
  <time>2026-08-27T18:27:22Z</time>
  <course>8.15</course>
  <speed>0.0</speed>
  <fix>3d</fix>
</trkpt>
<trkpt lat="40.072842" lon="-105.230575">
  <ele>1586.09</ele>
  <time>2026-08-27T18:27:22Z</time>
  <course>241.18</course>
  <speed>0.0</speed>
  <fix>3d</fix>
</trkpt>
<trkpt lat="40.072842" lon="-105.230575">
  <ele>1586.09</ele>
  <time>2026-08-27T18:27:22Z</time>
  <course>8.76</course>
  <speed>0.0</speed>
  <fix>3d</fix>
</trkpt>
<trkpt lat="40.072842" lon="-105.230575">
  <ele>1586.09</ele>
  <time>2026-08-27T18:27:22Z</time>
  <course>243.85</course>
  <speed>0.0</speed>
  <fix>3d</fix>
</trkpt>
<trkpt lat="40.072842" lon="-105.230575">
  <ele>1586.09</ele>
  <time>2026-08-27T18:27:22Z</time>
  <course>9.36</course>
  <speed>0.0</speed>
  <fix>3d</fix>
</trkpt>
<trkpt lat="40.072842" lon="-105.230575">
  <ele>1586.09</ele>
  <time>2026-08-27T18:27:22Z</time>
  <course>220.29</course>
  <speed>0.0</speed>
  <fix>3d</fix>
</trkpt>
<trkpt lat="40.072842" lon="-105.230575">
  <ele>1586.09</ele>
  <time>2026-08-27T18:27:22Z</time>
  <course>9.92</course>
  <speed>0.0</speed>
  <fix>3d</fix>
</trkpt>
<trkpt lat="40.072842" lon="-105.230575">
  <ele>1586.09</ele>
  <time>2026-08-27T18:27:22Z</time>
  <course>185.56</course>
  <speed>0.0</speed>
  <fix>3d</fix>
</trkpt>
<trkpt lat="40.072842" lon="-105.230575">
  <ele>1586.09</ele>
  <time>2026-08-27T18:27:22Z</time>
  <course>10.45</course>
  <speed>0.0</speed>
  <fix>3d</fix>
</trkpt>
<trkpt lat="40.072842" lon="-105.230575">
  <ele>1586.09</ele>
  <time>2026-08-27T18:27:22Z</time>
  <course>1.38</course>
  <speed>0.0</speed>
  <fix>3d</fix>
</trkpt>
<trkpt lat="40.072842" lon="-105.230575">
  <ele>1586.09</ele>
  <time>2026-08-27T18:27:22Z</time>
  <course>10.96</course>
  <speed>0.0</speed>
  <fix>3d</fix>
</trkpt>
<trkpt lat="40.072842" lon="-105.230575">
  <ele>1586.09</ele>
  <time>2026-08-27T18:27:22Z</time>
  <course>23.38</course>
  <speed>0.0</speed>
  <fix>3d</fix>
</trkpt>
<trkpt lat="40.072842" lon="-105.230575">
  <ele>1586.09</ele>
  <time>2026-08-27T18:27:22Z</time>
  <course>11.44</course>
  <speed>0.0</speed>
  <fix>3d</fix>
</trkpt>
<trkpt lat="40.072842" lon="-105.230575">
  <ele>1586.09</ele>
  <time>2026-08-27T18:27:22Z</time>
  <course>158.04</course>
  <speed>0.0</speed>
  <fix>3d</fix>
</trkpt>
<trkpt lat="40.072842" lon="-105.230575">
  <ele>1586.09</ele>
  <time>2026-08-27T18:27:22Z</time>
  <course>11.89</course>
  <speed>0.0</speed>
  <fix>3d</fix>
</trkpt>
<trkpt lat="40.072842" lon="-105.230575">
  <ele>1586.09</ele>
  <time>2026-08-27T18:27:22Z</time>
  <course>197.14</course>
  <speed>0.0</speed>
  <fix>3d</fix>
</trkpt>
<trkpt lat="40.072842" lon="-105.230575">
  <ele>1586.09</ele>
  <time>2026-08-27T18:27:22Z</time>
  <course>12.31</course>
  <speed>0.0</speed>
  <fix>3d</fix>
</trkpt>
<trkpt lat="40.072842" lon="-105.230575">
  <ele>1586.09</ele>
  <time>2026-08-27T18:27:22Z</time>
  <course>170.99</course>
  <speed>0.0</speed>
  <fix>3d</fix>
</trkpt>
<trkpt lat="40.072842" lon="-105.230575">
  <ele>1586.09</ele>
  <time>2026-08-27T18:27:22Z</time>
  <course>12.71</course>
  <speed>0.0</speed>
  <fix>3d</fix>
</trkpt>
<trkpt lat="40.072842" lon="-105.230575">
  <ele>1586.09</ele>
  <time>2026-08-27T18:27:22Z</time>
  <course>133.82</course>
  <speed>0.0</speed>
  <fix>3d</fix>
</trkpt>
<trkpt lat="40.072842" lon="-105.230575">
  <ele>1586.09</ele>
  <time>2026-08-27T18:27:22Z</time>
  <course>13.09</course>
  <speed>0.0</speed>
  <fix>3d</fix>
</trkpt>
<trkpt lat="40.072842" lon="-105.230575">
  <ele>1586.09</ele>
  <time>2026-08-27T18:27:22Z</time>
  <course>324.53</course>
  <speed>0.0</speed>
  <fix>3d</fix>
</trkpt>
<trkpt lat="40.072842" lon="-105.230575">
  <ele>1586.09</ele>
  <time>2026-08-27T18:27:22Z</time>
  <course>13.44</course>
  <speed>0.0</speed>
  <fix>3d</fix>
</trkpt>
<trkpt lat="40.072842" lon="-105.230575">
  <ele>1586.09</ele>
  <time>2026-08-27T18:27:22Z</time>
  <course>244.44</course>
  <speed>0.0</speed>
  <fix>3d</fix>
</trkpt>
<trkpt lat="40.072842" lon="-105.230575">
  <ele>1586.09</ele>
  <time>2026-08-27T18:27:22Z</time>
  <course>13.77</course>
  <speed>0.0</speed>
  <fix>3d</fix>
</trkpt>
<trkpt lat="40.072842" lon="-105.230575">
  <ele>1586.09</ele>
  <time>2026-08-27T18:27:22Z</time>
  <course>344.93</course>
  <speed>0.0</speed>
  <fix>3d</fix>
</trkpt>
<trkpt lat="40.072842" lon="-105.230575">
  <ele>1586.09</ele>
  <time>2026-08-27T18:27:22Z</time>
  <course>14.08</course>
  <speed>0.0</speed>
  <fix>3d</fix>
</trkpt>
<trkpt lat="40.072842" lon="-105.230575">
  <ele>1586.09</ele>
  <time>2026-08-27T18:27:22Z</time>
  <course>332.41</course>
  <speed>0.0</speed>
  <fix>3d</fix>
</trkpt>
<trkpt lat="40.072842" lon="-105.230575">
  <ele>1586.09</ele>
  <time>2026-08-27T18:27:22Z</time>
  <course>14.36</course>
  <speed>0.0</speed>
  <fix>3d</fix>
</trkpt>
<trkpt lat="40.072842" lon="-105.230575">
  <ele>1586.09</ele>
  <time>2026-08-27T18:27:22Z</time>
  <course>309.21</course>
  <speed>0.0</speed>
  <fix>3d</fix>
</trkpt>
<trkpt lat="40.072842" lon="-105.230575">
  <ele>1586.09</ele>
  <time>2026-08-27T18:27:22Z</time>
  <course>14.63</course>
  <speed>0.0</speed>
  <fix>3d</fix>
</trkpt>
<trkpt lat="40.072842" lon="-105.230575">
  <ele>1586.09</ele>
  <time>2026-08-27T18:27:22Z</time>
  <course>170.04</course>
  <speed>0.0</speed>
  <fix>3d</fix>
</trkpt>
<trkpt lat="40.072842" lon="-105.230575">
  <ele>1586.09</ele>
  <time>2026-08-27T18:27:22Z</time>
  <course>14.89</course>
  <speed>0.0</speed>
  <fix>3d</fix>
</trkpt>
<trkpt lat="40.072842" lon="-105.230575">
  <ele>1586.09</ele>
  <time>2026-08-27T18:27:22Z</time>
  <course>140.18</course>
  <speed>0.0</speed>
  <fix>3d</fix>
</trkpt>
<trkpt lat="40.072842" lon="-105.230575">
  <ele>1586.09</ele>
  <time>2026-08-27T18:27:22Z</time>
  <course>15.13</course>
  <speed>0.0</speed>
  <fix>3d</fix>
</trkpt>
<trkpt lat="40.072842" lon="-105.230575">
  <ele>1586.09</ele>
  <time>2026-08-27T18:27:22Z</time>
  <course>303.33</course>
  <speed>0.0</speed>
  <fix>3d</fix>
</trkpt>
<trkpt lat="40.072842" lon="-105.230575">
  <ele>1586.09</ele>
  <time>2026-08-27T18:27:22Z</time>
  <course>15.35</course>
  <speed>0.0</speed>
  <fix>3d</fix>
</trkpt>
<trkpt lat="40.072842" lon="-105.230575">
  <ele>1586.09</ele>
  <time>2026-08-27T18:27:22Z</time>
  <course>271.91</course>
  <speed>0.0</speed>
  <fix>3d</fix>
</trkpt>
<trkpt lat="40.072842" lon="-105.230575">
  <ele>1586.09</ele>
  <time>2026-08-27T18:27:22Z</time>
  <course>15.55</course>
  <speed>0.0</speed>
  <fix>3d</fix>
</trkpt>
<trkpt lat="40.072842" lon="-105.230575">
  <ele>1586.09</ele>
  <time>2026-08-27T18:27:22Z</time>
  <course>265.83</course>
  <speed>0.0</speed>
  <fix>3d</fix>
</trkpt>
<trkpt lat="40.072842" lon="-105.230575">
  <ele>1586.09</ele>
  <time>2026-08-27T18:27:22Z</time>
  <course>15.74</course>
  <speed>0.0</speed>
  <fix>3d</fix>
</trkpt>
<trkpt lat="40.072842" lon="-105.230575">
  <ele>1586.09</ele>
  <time>2026-08-27T18:27:22Z</time>
  <course>274.0</course>
  <speed>0.0</speed>
  <fix>3d</fix>
</trkpt>
<trkpt lat="40.072842" lon="-105.230575">
  <ele>1586.09</ele>
  <time>2026-08-27T18:27:22Z</time>
  <course>15.92</course>
  <speed>0.0</speed>
  <fix>3d</fix>
</trkpt>
<trkpt lat="40.072842" lon="-105.230575">
  <ele>1586.09</ele>
  <time>2026-08-27T18:27:22Z</time>
  <course>273.8</course>
  <speed>0.0</speed>
  <fix>3d</fix>
</trkpt>
<trkpt lat="40.072842" lon="-105.230575">
  <ele>1586.09</ele>
  <time>2026-08-27T18:27:22Z</time>
  <course>16.09</course>
  <speed>0.0</speed>
  <fix>3d</fix>
</trkpt>
<trkpt lat="40.072842" lon="-105.230575">
  <ele>1586.09</ele>
  <time>2026-08-27T18:27:22Z</time>
  <course>272.81</course>
  <speed>0.0</speed>
  <fix>3d</fix>
</trkpt>
<trkpt lat="40.072842" lon="-105.230575">
  <ele>1586.09</ele>
  <time>2026-08-27T18:27:22Z</time>
  <course>16.24</course>
  <speed>0.0</speed>
  <fix>3d</fix>
</trkpt>
<trkpt lat="40.072842" lon="-105.230575">
  <ele>1586.09</ele>
  <time>2026-08-27T18:27:22Z</time>
  <course>272.96</course>
  <speed>0.0</speed>
  <fix>3d</fix>
</trkpt>
<trkpt lat="40.072842" lon="-105.230575">
  <ele>1586.09</ele>
  <time>2026-08-27T18:27:22Z</time>
  <course>16.39</course>
  <speed>0.0</speed>
  <fix>3d</fix>
</trkpt>
<trkpt lat="40.072842" lon="-105.230575">
  <ele>1586.09</ele>
  <time>2026-08-27T18:27:22Z</time>
  <course>273.08</course>
  <speed>0.0</speed>
  <fix>3d</fix>
</trkpt>
<trkpt lat="40.072842" lon="-105.230575">
  <ele>1586.09</ele>
  <time>2026-08-27T18:27:22Z</time>
  <course>16.52</course>
  <speed>0.0</speed>
  <fix>3d</fix>
</trkpt>
<trkpt lat="40.072842" lon="-105.230575">
  <ele>1586.09</ele>
  <time>2026-08-27T18:27:22Z</time>
  <course>273.04</course>
  <speed>0.0</speed>
  <fix>3d</fix>
</trkpt>
<trkpt lat="40.072842" lon="-105.230575">
  <ele>1586.09</ele>
  <time>2026-08-27T18:27:22Z</time>
  <course>16.65</course>
  <speed>0.0</speed>
  <fix>3d</fix>
</trkpt>
<trkpt lat="40.072842" lon="-105.230575">
  <ele>1586.09</ele>
  <time>2026-08-27T18:27:22Z</time>
  <course>273.03</course>
  <speed>0.0</speed>
  <fix>3d</fix>
</trkpt>
<trkpt lat="40.072842" lon="-105.230575">
  <ele>1586.09</ele>
  <time>2026-08-27T18:27:22Z</time>
  <course>16.77</course>
  <speed>0.0</speed>
  <fix>3d</fix>
</trkpt>
<trkpt lat="40.072842" lon="-105.230575">
  <ele>1586.09</ele>
  <time>2026-08-27T18:27:22Z</time>
  <course>273.04</course>
  <speed>0.0</speed>
  <fix>3d</fix>
</trkpt>
<trkpt lat="40.072842" lon="-105.230575">
  <ele>1586.09</ele>
  <time>2026-08-27T18:27:22Z</time>
  <course>16.88</course>
  <speed>0.0</speed>
  <fix>3d</fix>
</trkpt>
<trkpt lat="40.072842" lon="-105.230575">
  <ele>1586.09</ele>
  <time>2026-08-27T18:27:22Z</time>
  <course>273.04</course>
  <speed>0.0</speed>
  <fix>3d</fix>
</trkpt>
<trkpt lat="40.072842" lon="-105.230575">
  <ele>1586.09</ele>
  <time>2026-08-27T18:27:22Z</time>
  <course>16.98</course>
  <speed>0.0</speed>
  <fix>3d</fix>
</trkpt>
<trkpt lat="40.072842" lon="-105.230575">
  <ele>1586.09</ele>
  <time>2026-08-27T18:27:22Z</time>
  <course>273.04</course>
  <speed>0.0</speed>
  <fix>3d</fix>
</trkpt>
<trkpt lat="40.072842" lon="-105.230575">
  <ele>1586.09</ele>
  <time>2026-08-27T18:27:22Z</time>
  <course>17.08</course>
  <speed>0.0</speed>
  <fix>3d</fix>
</trkpt>
<trkpt lat="40.072842" lon="-105.230575">
  <ele>1586.09</ele>
  <time>2026-08-27T18:27:22Z</time>
  <course>273.04</course>
  <speed>0.0</speed>
  <fix>3d</fix>
</trkpt>
<trkpt lat="40.072842" lon="-105.230575">
  <ele>1586.09</ele>
  <time>2026-08-27T18:27:22Z</time>
  <course>17.17</course>
  <speed>0.0</speed>
  <fix>3d</fix>
</trkpt>
<trkpt lat="40.072842" lon="-105.230575">
  <ele>1586.09</ele>
  <time>2026-08-27T18:27:22Z</time>
  <course>273.04</course>
  <speed>0.0</speed>
  <fix>3d</fix>
</trkpt>
<trkpt lat="40.072842" lon="-105.230575">
  <ele>1586.09</ele>
  <time>2026-08-27T18:27:22Z</time>
  <course>17.25</course>
  <speed>0.0</speed>
  <fix>3d</fix>
</trkpt>
<trkpt lat="40.072842" lon="-105.230575">
  <ele>1586.09</ele>
  <time>2026-08-27T18:27:22Z</time>
  <course>273.04</course>
  <speed>0.0</speed>
  <fix>3d</fix>
</trkpt>
<trkpt lat="40.072842" lon="-105.230575">
  <ele>1586.09</ele>
  <time>2026-08-27T18:27:22Z</time>
  <course>17.33</course>
  <speed>0.0</speed>
  <fix>3d</fix>
</trkpt>
<trkpt lat="40.072842" lon="-105.230575">
  <ele>1586.09</ele>
  <time>2026-08-27T18:27:22Z</time>
  <course>273.04</course>
  <speed>0.0</speed>
  <fix>3d</fix>
</trkpt>
<trkpt lat="40.072842" lon="-105.230575">
  <ele>1586.09</ele>
  <time>2026-08-27T18:27:22Z</time>
  <course>17.4</course>
  <speed>0.0</speed>
  <fix>3d</fix>
</trkpt>
<trkpt lat="40.072842" lon="-105.230575">
  <ele>1586.09</ele>
  <time>2026-08-27T18:27:22Z</time>
  <course>273.04</course>
  <speed>0.0</speed>
  <fix>3d</fix>
</trkpt>
<trkpt lat="40.072842" lon="-105.230575">
  <ele>1586.09</ele>
  <time>2026-08-27T18:27:22Z</time>
  <course>17.47</course>
  <speed>0.0</speed>
  <fix>3d</fix>
</trkpt>
<trkpt lat="40.072842" lon="-105.230575">
  <ele>1586.09</ele>
  <time>2026-08-27T18:27:22Z</time>
  <course>273.04</course>
  <speed>0.0</speed>
  <fix>3d</fix>
</trkpt>
<trkpt lat="40.072842" lon="-105.230575">
  <ele>1586.09</ele>
  <time>2026-08-27T18:27:22Z</time>
  <course>17.53</course>
  <speed>0.0</speed>
  <fix>3d</fix>
</trkpt>
<trkpt lat="40.072842" lon="-105.230575">
  <ele>1586.09</ele>
  <time>2026-08-27T18:27:22Z</time>
  <course>273.04</course>
  <speed>0.0</speed>
  <fix>3d</fix>
</trkpt>
<trkpt lat="40.072842" lon="-105.230575">
  <ele>1586.09</ele>
  <time>2026-08-27T18:27:22Z</time>
  <course>17.59</course>
  <speed>0.0</speed>
  <fix>3d</fix>
</trkpt>
<trkpt lat="40.072842" lon="-105.230575">
  <ele>1586.09</ele>
  <time>2026-08-27T18:27:22Z</time>
  <course>273.04</course>
  <speed>0.0</speed>
  <fix>3d</fix>
</trkpt>
<trkpt lat="40.072842" lon="-105.230575">
  <ele>1586.09</ele>
  <time>2026-08-27T18:27:22Z</time>
  <course>17.65</course>
  <speed>0.0</speed>
  <fix>3d</fix>
</trkpt>
<trkpt lat="40.072842" lon="-105.230575">
  <ele>1586.09</ele>
  <time>2026-08-27T18:27:22Z</time>
  <course>273.04</course>
  <speed>0.0</speed>
  <fix>3d</fix>
</trkpt>
<trkpt lat="40.072842" lon="-105.230575">
  <ele>1586.09</ele>
  <time>2026-08-27T18:27:22Z</time>
  <course>17.7</course>
  <speed>0.0</speed>
  <fix>3d</fix>
</trkpt>
<trkpt lat="40.072842" lon="-105.230575">
  <ele>1586.09</ele>
  <time>2026-08-27T18:27:22Z</time>
  <course>273.04</course>
  <speed>0.0</speed>
  <fix>3d</fix>
</trkpt>
<trkpt lat="40.072842" lon="-105.230575">
  <ele>1586.09</ele>
  <time>2026-08-27T18:27:22Z</time>
  <course>17.75</course>
  <speed>0.0</speed>
  <fix>3d</fix>
</trkpt>
<trkpt lat="40.072842" lon="-105.230575">
  <ele>1586.09</ele>
  <time>2026-08-27T18:27:22Z</time>
  <course>273.04</course>
  <speed>0.0</speed>
  <fix>3d</fix>
</trkpt>
<trkpt lat="40.072842" lon="-105.230575">
  <ele>1586.09</ele>
  <time>2026-08-27T18:27:22Z</time>
  <course>17.79</course>
  <speed>0.0</speed>
  <fix>3d</fix>
</trkpt>
<trkpt lat="40.072842" lon="-105.230575">
  <ele>1586.09</ele>
  <time>2026-08-27T18:27:22Z</time>
  <course>273.04</course>
  <speed>0.0</speed>
  <fix>3d</fix>
</trkpt>
<trkpt lat="40.072842" lon="-105.230575">
  <ele>1586.09</ele>
  <time>2026-08-27T18:27:22Z</time>
  <course>17.84</course>
  <speed>0.0</speed>
  <fix>3d</fix>
</trkpt>
<trkpt lat="40.072842" lon="-105.230575">
  <ele>1586.09</ele>
  <time>2026-08-27T18:27:22Z</time>
  <course>273.04</course>
  <speed>0.0</speed>
  <fix>3d</fix>
</trkpt>
<trkpt lat="40.072842" lon="-105.230575">
  <ele>1586.09</ele>
  <time>2026-08-27T18:27:22Z</time>
  <course>17.87</course>
  <speed>0.0</speed>
  <fix>3d</fix>
</trkpt>
<trkpt lat="40.072842" lon="-105.230575">
  <ele>1586.09</ele>
  <time>2026-08-27T18:27:22Z</time>
  <course>273.04</course>
  <speed>0.0</speed>
  <fix>3d</fix>
</trkpt>
<trkpt lat="40.072842" lon="-105.230575">
  <ele>1586.09</ele>
  <time>2026-08-27T18:27:22Z</time>
  <course>17.91</course>
  <speed>0.0</speed>
  <fix>3d</fix>
</trkpt>
<trkpt lat="40.072842" lon="-105.230575">
  <ele>1586.09</ele>
  <time>2026-08-27T18:27:22Z</time>
  <course>273.04</course>
  <speed>0.0</speed>
  <fix>3d</fix>
</trkpt>
<trkpt lat="40.072842" lon="-105.230575">
  <ele>1586.09</ele>
  <time>2026-08-27T18:27:22Z</time>
  <course>17.95</course>
  <speed>0.0</speed>
  <fix>3d</fix>
</trkpt>
<trkpt lat="40.072842" lon="-105.230575">
  <ele>1586.09</ele>
  <time>2026-08-27T18:27:22Z</time>
  <course>273.04</course>
  <speed>0.0</speed>
  <fix>3d</fix>
</trkpt>
<trkpt lat="40.072842" lon="-105.230575">
  <ele>1586.09</ele>
  <time>2026-08-27T18:27:22Z</time>
  <course>17.98</course>
  <speed>0.0</speed>
  <fix>3d</fix>
</trkpt>
<trkpt lat="40.072842" lon="-105.230575">
  <ele>1586.09</ele>
  <time>2026-08-27T18:27:22Z</time>
  <course>273.04</course>
  <speed>0.0</speed>
  <fix>3d</fix>
</trkpt>
<trkpt lat="40.072842" lon="-105.230575">
  <ele>1586.09</ele>
  <time>2026-08-27T18:27:22Z</time>
  <course>18.01</course>
  <speed>0.0</speed>
  <fix>3d</fix>
</trkpt>
<trkpt lat="40.072842" lon="-105.230575">
  <ele>1586.09</ele>
  <time>2026-08-27T18:27:22Z</time>
  <course>273.04</course>
  <speed>0.0</speed>
  <fix>3d</fix>
</trkpt>
<trkpt lat="40.072842" lon="-105.230575">
  <ele>1586.09</ele>
  <time>2026-08-27T18:27:22Z</time>
  <course>18.04</course>
  <speed>0.0</speed>
  <fix>3d</fix>
</trkpt>
<trkpt lat="40.072842" lon="-105.230575">
  <ele>1586.09</ele>
  <time>2026-08-27T18:27:22Z</time>
  <course>273.04</course>
  <speed>0.0</speed>
  <fix>3d</fix>
</trkpt>
<trkpt lat="40.072842" lon="-105.230575">
  <ele>1586.09</ele>
  <time>2026-08-27T18:27:22Z</time>
  <course>18.06</course>
  <speed>0.01</speed>
  <fix>3d</fix>
</trkpt>
<trkpt lat="40.072842" lon="-105.230575">
  <ele>1586.09</ele>
  <time>2026-08-27T18:27:22Z</time>
  <course>273.04</course>
  <speed>0.0</speed>
  <fix>3d</fix>
</trkpt>
<trkpt lat="40.072842" lon="-105.230575">
  <ele>1586.09</ele>
  <time>2026-08-27T18:27:22Z</time>
  <course>18.09</course>
  <speed>0.01</speed>
  <fix>3d</fix>
</trkpt>
<trkpt lat="40.072842" lon="-105.230575">
  <ele>1586.09</ele>
  <time>2026-08-27T18:27:22Z</time>
  <course>273.04</course>
  <speed>0.0</speed>
  <fix>3d</fix>
</trkpt>
<trkpt lat="40.072842" lon="-105.230575">
  <ele>1586.09</ele>
  <time>2026-08-27T18:27:22Z</time>
  <course>18.11</course>
  <speed>0.01</speed>
  <fix>3d</fix>
</trkpt>
<trkpt lat="40.072842" lon="-105.230575">
  <ele>1586.09</ele>
  <time>2026-08-27T18:27:22Z</time>
  <course>273.04</course>
  <speed>0.0</speed>
  <fix>3d</fix>
</trkpt>
<trkpt lat="40.072842" lon="-105.230575">
  <ele>1586.09</ele>
  <time>2026-08-27T18:27:22Z</time>
  <course>18.13</course>
  <speed>0.01</speed>
  <fix>3d</fix>
</trkpt>
<trkpt lat="40.072842" lon="-105.230575">
  <ele>1586.09</ele>
  <time>2026-08-27T18:27:22Z</time>
  <course>273.04</course>
  <speed>0.0</speed>
  <fix>3d</fix>
</trkpt>
<trkpt lat="40.072842" lon="-105.230575">
  <ele>1586.09</ele>
  <time>2026-08-27T18:27:22Z</time>
  <course>18.15</course>
  <speed>0.01</speed>
  <fix>3d</fix>
</trkpt>
<trkpt lat="40.072842" lon="-105.230575">
  <ele>1586.09</ele>
  <time>2026-08-27T18:27:22Z</time>
  <course>273.04</course>
  <speed>0.0</speed>
  <fix>3d</fix>
</trkpt>
<trkpt lat="40.072842" lon="-105.230575">
  <ele>1586.09</ele>
  <time>2026-08-27T18:27:22Z</time>
  <course>18.17</course>
  <speed>0.01</speed>
  <fix>3d</fix>
</trkpt>
<trkpt lat="40.072842" lon="-105.230575">
  <ele>1586.09</ele>
  <time>2026-08-27T18:27:22Z</time>
  <course>273.04</course>
  <speed>0.0</speed>
  <fix>3d</fix>
</trkpt>
<trkpt lat="40.072842" lon="-105.230575">
  <ele>1586.09</ele>
  <time>2026-08-27T18:27:22Z</time>
  <course>18.19</course>
  <speed>0.01</speed>
  <fix>3d</fix>
</trkpt>
<trkpt lat="40.072842" lon="-105.230575">
  <ele>1586.09</ele>
  <time>2026-08-27T18:27:22Z</time>
  <course>273.04</course>
  <speed>0.0</speed>
  <fix>3d</fix>
</trkpt>
<trkpt lat="40.072842" lon="-105.230575">
  <ele>1586.09</ele>
  <time>2026-08-27T18:27:22Z</time>
  <course>18.2</course>
  <speed>0.01</speed>
  <fix>3d</fix>
</trkpt>
<trkpt lat="40.072842" lon="-105.230575">
  <ele>1586.09</ele>
  <time>2026-08-27T18:27:22Z</time>
  <course>273.04</course>
  <speed>0.0</speed>
  <fix>3d</fix>
</trkpt>
<trkpt lat="40.072842" lon="-105.230575">
  <ele>1586.09</ele>
  <time>2026-08-27T18:27:22Z</time>
  <course>18.22</course>
  <speed>0.01</speed>
  <fix>3d</fix>
</trkpt>
<trkpt lat="40.072842" lon="-105.230575">
  <ele>1586.09</ele>
  <time>2026-08-27T18:27:22Z</time>
  <course>273.04</course>
  <speed>0.0</speed>
  <fix>3d</fix>
</trkpt>
<trkpt lat="40.072842" lon="-105.230575">
  <ele>1586.09</ele>
  <time>2026-08-27T18:27:22Z</time>
  <course>18.23</course>
  <speed>0.01</speed>
  <fix>3d</fix>
</trkpt>
<trkpt lat="40.072842" lon="-105.230575">
  <ele>1586.09</ele>
  <time>2026-08-27T18:27:22Z</time>
  <course>273.04</course>
  <speed>0.0</speed>
  <fix>3d</fix>
</trkpt>
<trkpt lat="40.072842" lon="-105.230575">
  <ele>1586.09</ele>
  <time>2026-08-27T18:27:22Z</time>
  <course>18.25</course>
  <speed>0.01</speed>
  <fix>3d</fix>
</trkpt>
<trkpt lat="40.072842" lon="-105.230575">
  <ele>1586.09</ele>
  <time>2026-08-27T18:27:22Z</time>
  <course>273.04</course>
  <speed>0.0</speed>
  <fix>3d</fix>
</trkpt>
<trkpt lat="40.072842" lon="-105.230575">
  <ele>1586.09</ele>
  <time>2026-08-27T18:27:22Z</time>
  <course>18.26</course>
  <speed>0.01</speed>
  <fix>3d</fix>
</trkpt>
<trkpt lat="40.072842" lon="-105.230575">
  <ele>1586.09</ele>
  <time>2026-08-27T18:27:22Z</time>
  <course>273.04</course>
  <speed>0.0</speed>
  <fix>3d</fix>
</trkpt>
<trkpt lat="40.072842" lon="-105.230575">
  <ele>1586.09</ele>
  <time>2026-08-27T18:27:22Z</time>
  <course>18.27</course>
  <speed>0.01</speed>
  <fix>3d</fix>
</trkpt>
<trkpt lat="40.072842" lon="-105.230575">
  <ele>1586.09</ele>
  <time>2026-08-27T18:27:22Z</time>
  <course>273.04</course>
  <speed>0.0</speed>
  <fix>3d</fix>
</trkpt>
<trkpt lat="40.072842" lon="-105.230575">
  <ele>1586.09</ele>
  <time>2026-08-27T18:27:22Z</time>
  <course>18.28</course>
  <speed>0.01</speed>
  <fix>3d</fix>
</trkpt>
<trkpt lat="40.072842" lon="-105.230575">
  <ele>1586.09</ele>
  <time>2026-08-27T18:27:22Z</time>
  <course>273.04</course>
  <speed>0.0</speed>
  <fix>3d</fix>
</trkpt>
<trkpt lat="40.072842" lon="-105.230575">
  <ele>1586.09</ele>
  <time>2026-08-27T18:27:23Z</time>
  <course>18.29</course>
  <speed>0.01</speed>
  <fix>3d</fix>
</trkpt>
<trkpt lat="40.072842" lon="-105.230575">
  <ele>1586.09</ele>
  <time>2026-08-27T18:27:23Z</time>
  <course>273.04</course>
  <speed>0.0</speed>
  <fix>3d</fix>
</trkpt>
<trkpt lat="40.072842" lon="-105.230575">
  <ele>1586.09</ele>
  <time>2026-08-27T18:27:23Z</time>
  <course>18.3</course>
  <speed>0.01</speed>
  <fix>3d</fix>
</trkpt>
<trkpt lat="40.072842" lon="-105.230575">
  <ele>1586.09</ele>
  <time>2026-08-27T18:27:23Z</time>
  <course>273.04</course>
  <speed>0.0</speed>
  <fix>3d</fix>
</trkpt>
<trkpt lat="40.072842" lon="-105.230575">
  <ele>1586.09</ele>
  <time>2026-08-27T18:27:23Z</time>
  <course>18.31</course>
  <speed>0.01</speed>
  <fix>3d</fix>
</trkpt>
<trkpt lat="40.072842" lon="-105.230575">
  <ele>1586.09</ele>
  <time>2026-08-27T18:27:23Z</time>
  <course>273.04</course>
  <speed>0.0</speed>
  <fix>3d</fix>
</trkpt>
<trkpt lat="40.072842" lon="-105.230575">
  <ele>1586.09</ele>
  <time>2026-08-27T18:27:23Z</time>
  <course>18.32</course>
  <speed>0.01414213562373095</speed>
  <fix>3d</fix>
</trkpt>
<trkpt lat="40.072842" lon="-105.230575">
  <ele>1586.09</ele>
  <time>2026-08-27T18:27:23Z</time>
  <course>273.04</course>
  <speed>0.0</speed>
  <fix>3d</fix>
</trkpt>
<trkpt lat="40.072842" lon="-105.230575">
  <ele>1586.09</ele>
  <time>2026-08-27T18:27:23Z</time>
  <course>18.32</course>
  <speed>0.01414213562373095</speed>
  <fix>3d</fix>
</trkpt>
<trkpt lat="40.072842" lon="-105.230575">
  <ele>1586.09</ele>
  <time>2026-08-27T18:27:23Z</time>
  <course>273.04</course>
  <speed>0.0</speed>
  <fix>3d</fix>
</trkpt>
<trkpt lat="40.072842" lon="-105.230575">
  <ele>1586.09</ele>
  <time>2026-08-27T18:27:23Z</time>
  <course>18.33</course>
  <speed>0.01414213562373095</speed>
  <fix>3d</fix>
</trkpt>
<trkpt lat="40.072842" lon="-105.230575">
  <ele>1586.09</ele>
  <time>2026-08-27T18:27:23Z</time>
  <course>273.04</course>
  <speed>0.0</speed>
  <fix>3d</fix>
</trkpt>
<trkpt lat="40.072842" lon="-105.230575">
  <ele>1586.09</ele>
  <time>2026-08-27T18:27:23Z</time>
  <course>18.34</course>
  <speed>0.01414213562373095</speed>
  <fix>3d</fix>
</trkpt>
<trkpt lat="40.072842" lon="-105.230575">
  <ele>1586.09</ele>
  <time>2026-08-27T18:27:23Z</time>
  <course>273.04</course>
  <speed>0.0</speed>
  <fix>3d</fix>
</trkpt>
<trkpt lat="40.072842" lon="-105.230575">
  <ele>1586.09</ele>
  <time>2026-08-27T18:27:23Z</time>
  <course>18.35</course>
  <speed>0.01414213562373095</speed>
  <fix>3d</fix>
</trkpt>
<trkpt lat="40.072842" lon="-105.230575">
  <ele>1586.09</ele>
  <time>2026-08-27T18:27:23Z</time>
  <course>273.04</course>
  <speed>0.0</speed>
  <fix>3d</fix>
</trkpt>
<trkpt lat="40.072842" lon="-105.230575">
  <ele>1586.09</ele>
  <time>2026-08-27T18:27:23Z</time>
  <course>18.35</course>
  <speed>0.01414213562373095</speed>
  <fix>3d</fix>
</trkpt>
<trkpt lat="40.072842" lon="-105.230575">
  <ele>1586.09</ele>
  <time>2026-08-27T18:27:23Z</time>
  <course>273.04</course>
  <speed>0.0</speed>
  <fix>3d</fix>
</trkpt>
<trkpt lat="40.072842" lon="-105.230575">
  <ele>1586.09</ele>
  <time>2026-08-27T18:27:23Z</time>
  <course>18.36</course>
  <speed>0.01414213562373095</speed>
  <fix>3d</fix>
</trkpt>
<trkpt lat="40.072842" lon="-105.230575">
  <ele>1586.09</ele>
  <time>2026-08-27T18:27:23Z</time>
  <course>273.04</course>
  <speed>0.0</speed>
  <fix>3d</fix>
</trkpt>
<trkpt lat="40.072842" lon="-105.230575">
  <ele>1586.09</ele>
  <time>2026-08-27T18:27:23Z</time>
  <course>18.36</course>
  <speed>0.022360679774997897</speed>
  <fix>3d</fix>
</trkpt>
<trkpt lat="40.072842" lon="-105.230575">
  <ele>1586.09</ele>
  <time>2026-08-27T18:27:23Z</time>
  <course>273.04</course>
  <speed>0.0</speed>
  <fix>3d</fix>
</trkpt>
<trkpt lat="40.072842" lon="-105.230575">
  <ele>1586.09</ele>
  <time>2026-08-27T18:27:23Z</time>
  <course>18.36</course>
  <speed>0.022360679774997897</speed>
  <fix>3d</fix>
</trkpt>
<trkpt lat="40.072842" lon="-105.230575">
  <ele>1586.09</ele>
  <time>2026-08-27T18:27:23Z</time>
  <course>273.04</course>
  <speed>0.0</speed>
  <fix>3d</fix>
</trkpt>
<trkpt lat="40.072842" lon="-105.230575">
  <ele>1586.09</ele>
  <time>2026-08-27T18:27:23Z</time>
  <course>18.37</course>
  <speed>0.022360679774997897</speed>
  <fix>3d</fix>
</trkpt>
<trkpt lat="40.072842" lon="-105.230575">
  <ele>1586.09</ele>
  <time>2026-08-27T18:27:23Z</time>
  <course>273.04</course>
  <speed>0.0</speed>
  <fix>3d</fix>
</trkpt>
<trkpt lat="40.072842" lon="-105.230575">
  <ele>1586.09</ele>
  <time>2026-08-27T18:27:23Z</time>
  <course>18.37</course>
  <speed>0.022360679774997897</speed>
  <fix>3d</fix>
</trkpt>
<trkpt lat="40.072842" lon="-105.230575">
  <ele>1586.09</ele>
  <time>2026-08-27T18:27:23Z</time>
  <course>273.04</course>
  <speed>0.0</speed>
  <fix>3d</fix>
</trkpt>
<trkpt lat="40.072842" lon="-105.230575">
  <ele>1586.09</ele>
  <time>2026-08-27T18:27:23Z</time>
  <course>18.37</course>
  <speed>0.022360679774997897</speed>
  <fix>3d</fix>
</trkpt>
<trkpt lat="40.072842" lon="-105.230575">
  <ele>1586.09</ele>
  <time>2026-08-27T18:27:23Z</time>
  <course>273.04</course>
  <speed>0.0</speed>
  <fix>3d</fix>
</trkpt>
<trkpt lat="40.072842" lon="-105.230575">
  <ele>1586.09</ele>
  <time>2026-08-27T18:27:23Z</time>
  <course>18.37</course>
  <speed>0.022360679774997897</speed>
  <fix>3d</fix>
</trkpt>
<trkpt lat="40.072842" lon="-105.230575">
  <ele>1586.09</ele>
  <time>2026-08-27T18:27:23Z</time>
  <course>273.04</course>
  <speed>0.0</speed>
  <fix>3d</fix>
</trkpt>
<trkpt lat="40.072842" lon="-105.230575">
  <ele>1586.09</ele>
  <time>2026-08-27T18:27:23Z</time>
  <course>18.38</course>
  <speed>0.022360679774997897</speed>
  <fix>3d</fix>
</trkpt>
<trkpt lat="40.072842" lon="-105.230575">
  <ele>1586.09</ele>
  <time>2026-08-27T18:27:23Z</time>
  <course>273.04</course>
  <speed>0.0</speed>
  <fix>3d</fix>
</trkpt>
<trkpt lat="40.072842" lon="-105.230575">
  <ele>1586.09</ele>
  <time>2026-08-27T18:27:23Z</time>
  <course>18.38</course>
  <speed>0.022360679774997897</speed>
  <fix>3d</fix>
</trkpt>
<trkpt lat="40.072842" lon="-105.230575">
  <ele>1586.09</ele>
  <time>2026-08-27T18:27:23Z</time>
  <course>273.04</course>
  <speed>0.0</speed>
  <fix>3d</fix>
</trkpt>
<trkpt lat="40.072842" lon="-105.230575">
  <ele>1586.09</ele>
  <time>2026-08-27T18:27:23Z</time>
  <course>18.38</course>
  <speed>0.022360679774997897</speed>
  <fix>3d</fix>
</trkpt>
<trkpt lat="40.072842" lon="-105.230575">
  <ele>1586.09</ele>
  <time>2026-08-27T18:27:23Z</time>
  <course>273.04</course>
  <speed>0.0</speed>
  <fix>3d</fix>
</trkpt>
<trkpt lat="40.072842" lon="-105.230575">
  <ele>1586.09</ele>
  <time>2026-08-27T18:27:23Z</time>
  <course>18.38</course>
  <speed>0.022360679774997897</speed>
  <fix>3d</fix>
</trkpt>
<trkpt lat="40.072842" lon="-105.230575">
  <ele>1586.09</ele>
  <time>2026-08-27T18:27:23Z</time>
  <course>273.04</course>
  <speed>0.0</speed>
  <fix>3d</fix>
</trkpt>
<trkpt lat="40.072842" lon="-105.230575">
  <ele>1586.09</ele>
  <time>2026-08-27T18:27:23Z</time>
  <course>18.38</course>
  <speed>0.022360679774997897</speed>
  <fix>3d</fix>
</trkpt>
<trkpt lat="40.072842" lon="-105.230575">
  <ele>1586.09</ele>
  <time>2026-08-27T18:27:23Z</time>
  <course>273.04</course>
  <speed>0.0</speed>
  <fix>3d</fix>
</trkpt>
<trkpt lat="40.072842" lon="-105.230575">
  <ele>1586.09</ele>
  <time>2026-08-27T18:27:23Z</time>
  <course>18.38</course>
  <speed>0.022360679774997897</speed>
  <fix>3d</fix>
</trkpt>
<trkpt lat="40.072842" lon="-105.230575">
  <ele>1586.09</ele>
  <time>2026-08-27T18:27:23Z</time>
  <course>273.04</course>
  <speed>0.0</speed>
  <fix>3d</fix>
</trkpt>
<trkpt lat="40.072842" lon="-105.230575">
  <ele>1586.09</ele>
  <time>2026-08-27T18:27:23Z</time>
  <course>18.38</course>
  <speed>0.022360679774997897</speed>
  <fix>3d</fix>
</trkpt>
<trkpt lat="40.072842" lon="-105.230575">
  <ele>1586.09</ele>
  <time>2026-08-27T18:27:23Z</time>
  <course>273.04</course>
  <speed>0.0</speed>
  <fix>3d</fix>
</trkpt>
<trkpt lat="40.072842" lon="-105.230575">
  <ele>1586.09</ele>
  <time>2026-08-27T18:27:23Z</time>
  <course>18.38</course>
  <speed>0.022360679774997897</speed>
  <fix>3d</fix>
</trkpt>
<trkpt lat="40.072842" lon="-105.230575">
  <ele>1586.09</ele>
  <time>2026-08-27T18:27:23Z</time>
  <course>273.04</course>
  <speed>0.0</speed>
  <fix>3d</fix>
</trkpt>
<trkpt lat="40.072842" lon="-105.230575">
  <ele>1586.09</ele>
  <time>2026-08-27T18:27:23Z</time>
  <course>18.38</course>
  <speed>0.022360679774997897</speed>
  <fix>3d</fix>
</trkpt>
<trkpt lat="40.072842" lon="-105.230575">
  <ele>1586.09</ele>
  <time>2026-08-27T18:27:23Z</time>
  <course>273.04</course>
  <speed>0.0</speed>
  <fix>3d</fix>
</trkpt>
<trkpt lat="40.072842" lon="-105.230575">
  <ele>1586.09</ele>
  <time>2026-08-27T18:27:23Z</time>
  <course>18.38</course>
  <speed>0.022360679774997897</speed>
  <fix>3d</fix>
</trkpt>
<trkpt lat="40.072842" lon="-105.230575">
  <ele>1586.09</ele>
  <time>2026-08-27T18:27:23Z</time>
  <course>273.04</course>
  <speed>0.0</speed>
  <fix>3d</fix>
</trkpt>
<trkpt lat="40.072842" lon="-105.230575">
  <ele>1586.09</ele>
  <time>2026-08-27T18:27:23Z</time>
  <course>18.38</course>
  <speed>0.022360679774997897</speed>
  <fix>3d</fix>
</trkpt>
<trkpt lat="40.072842" lon="-105.230575">
  <ele>1586.09</ele>
  <time>2026-08-27T18:27:23Z</time>
  <course>273.04</course>
  <speed>0.0</speed>
  <fix>3d</fix>
</trkpt>
<trkpt lat="40.072842" lon="-105.230575">
  <ele>1586.09</ele>
  <time>2026-08-27T18:27:23Z</time>
  <course>18.38</course>
  <speed>0.022360679774997897</speed>
  <fix>3d</fix>
</trkpt>
<trkpt lat="40.072842" lon="-105.230575">
  <ele>1586.09</ele>
  <time>2026-08-27T18:27:23Z</time>
  <course>273.04</course>
  <speed>0.0</speed>
  <fix>3d</fix>
</trkpt>
<trkpt lat="40.072842" lon="-105.230575">
  <ele>1586.09</ele>
  <time>2026-08-27T18:27:23Z</time>
  <course>18.38</course>
  <speed>0.022360679774997897</speed>
  <fix>3d</fix>
</trkpt>
<trkpt lat="40.072842" lon="-105.230575">
  <ele>1586.09</ele>
  <time>2026-08-27T18:27:23Z</time>
  <course>273.04</course>
  <speed>0.0</speed>
  <fix>3d</fix>
</trkpt>
<trkpt lat="40.072842" lon="-105.230575">
  <ele>1586.09</ele>
  <time>2026-08-27T18:27:23Z</time>
  <course>18.38</course>
  <speed>0.022360679774997897</speed>
  <fix>3d</fix>
</trkpt>
<trkpt lat="40.072842" lon="-105.230575">
  <ele>1586.09</ele>
  <time>2026-08-27T18:27:23Z</time>
  <course>273.04</course>
  <speed>0.0</speed>
  <fix>3d</fix>
</trkpt>
<trkpt lat="40.072842" lon="-105.230575">
  <ele>1586.09</ele>
  <time>2026-08-27T18:27:23Z</time>
  <course>18.37</course>
  <speed>0.022360679774997897</speed>
  <fix>3d</fix>
</trkpt>
<trkpt lat="40.072842" lon="-105.230575">
  <ele>1586.09</ele>
  <time>2026-08-27T18:27:23Z</time>
  <course>273.04</course>
  <speed>0.0</speed>
  <fix>3d</fix>
</trkpt>
<trkpt lat="40.072842" lon="-105.230575">
  <ele>1586.09</ele>
  <time>2026-08-27T18:27:23Z</time>
  <course>18.37</course>
  <speed>0.022360679774997897</speed>
  <fix>3d</fix>
</trkpt>
<trkpt lat="40.072842" lon="-105.230575">
  <ele>1586.09</ele>
  <time>2026-08-27T18:27:23Z</time>
  <course>273.04</course>
  <speed>0.0</speed>
  <fix>3d</fix>
</trkpt>
<trkpt lat="40.072842" lon="-105.230575">
  <ele>1586.09</ele>
  <time>2026-08-27T18:27:23Z</time>
  <course>18.37</course>
  <speed>0.022360679774997897</speed>
  <fix>3d</fix>
</trkpt>
<trkpt lat="40.072842" lon="-105.230575">
  <ele>1586.09</ele>
  <time>2026-08-27T18:27:23Z</time>
  <course>273.04</course>
  <speed>0.0</speed>
  <fix>3d</fix>
</trkpt>
<trkpt lat="40.072842" lon="-105.230575">
  <ele>1586.09</ele>
  <time>2026-08-27T18:27:23Z</time>
  <course>18.37</course>
  <speed>0.022360679774997897</speed>
  <fix>3d</fix>
</trkpt>
<trkpt lat="40.072842" lon="-105.230575">
  <ele>1586.09</ele>
  <time>2026-08-27T18:27:23Z</time>
  <course>273.04</course>
  <speed>0.0</speed>
  <fix>3d</fix>
</trkpt>
<trkpt lat="40.072842" lon="-105.230575">
  <ele>1586.09</ele>
  <time>2026-08-27T18:27:23Z</time>
  <course>18.37</course>
  <speed>0.0316227766016838</speed>
  <fix>3d</fix>
</trkpt>
<trkpt lat="40.072842" lon="-105.230575">
  <ele>1586.09</ele>
  <time>2026-08-27T18:27:23Z</time>
  <course>273.04</course>
  <speed>0.0</speed>
  <fix>3d</fix>
</trkpt>
<trkpt lat="40.072842" lon="-105.230575">
  <ele>1586.09</ele>
  <time>2026-08-27T18:27:23Z</time>
  <course>18.36</course>
  <speed>0.0316227766016838</speed>
  <fix>3d</fix>
</trkpt>
<trkpt lat="40.072842" lon="-105.230575">
  <ele>1586.09</ele>
  <time>2026-08-27T18:27:23Z</time>
  <course>273.04</course>
  <speed>0.0</speed>
  <fix>3d</fix>
</trkpt>
<trkpt lat="40.072842" lon="-105.230575">
  <ele>1586.09</ele>
  <time>2026-08-27T18:27:23Z</time>
  <course>18.36</course>
  <speed>0.0316227766016838</speed>
  <fix>3d</fix>
</trkpt>
<trkpt lat="40.072842" lon="-105.230575">
  <ele>1586.09</ele>
  <time>2026-08-27T18:27:23Z</time>
  <course>273.04</course>
  <speed>0.0</speed>
  <fix>3d</fix>
</trkpt>
<trkpt lat="40.072842" lon="-105.230575">
  <ele>1586.09</ele>
  <time>2026-08-27T18:27:23Z</time>
  <course>18.36</course>
  <speed>0.0316227766016838</speed>
  <fix>3d</fix>
</trkpt>
<trkpt lat="40.072842" lon="-105.230575">
  <ele>1586.09</ele>
  <time>2026-08-27T18:27:23Z</time>
  <course>273.04</course>
  <speed>0.0</speed>
  <fix>3d</fix>
</trkpt>
<trkpt lat="40.072842" lon="-105.230575">
  <ele>1586.09</ele>
  <time>2026-08-27T18:27:23Z</time>
  <course>18.36</course>
  <speed>0.0316227766016838</speed>
  <fix>3d</fix>
</trkpt>
<trkpt lat="40.072842" lon="-105.230575">
  <ele>1586.09</ele>
  <time>2026-08-27T18:27:23Z</time>
  <course>273.04</course>
  <speed>0.0</speed>
  <fix>3d</fix>
</trkpt>
<trkpt lat="40.072842" lon="-105.230575">
  <ele>1586.09</ele>
  <time>2026-08-27T18:27:23Z</time>
  <course>18.36</course>
  <speed>0.0316227766016838</speed>
  <fix>3d</fix>
</trkpt>
<trkpt lat="40.072842" lon="-105.230575">
  <ele>1586.09</ele>
  <time>2026-08-27T18:27:23Z</time>
  <course>273.04</course>
  <speed>0.0</speed>
  <fix>3d</fix>
</trkpt>
<trkpt lat="40.072842" lon="-105.230575">
  <ele>1586.09</ele>
  <time>2026-08-27T18:27:23Z</time>
  <course>18.36</course>
  <speed>0.0316227766016838</speed>
  <fix>3d</fix>
</trkpt>
<trkpt lat="40.072842" lon="-105.230575">
  <ele>1586.09</ele>
  <time>2026-08-27T18:27:23Z</time>
  <course>273.04</course>
  <speed>0.0</speed>
  <fix>3d</fix>
</trkpt>
<trkpt lat="40.072842" lon="-105.230575">
  <ele>1586.09</ele>
  <time>2026-08-27T18:27:23Z</time>
  <course>18.36</course>
  <speed>0.0316227766016838</speed>
  <fix>3d</fix>
</trkpt>
<trkpt lat="40.072842" lon="-105.230575">
  <ele>1586.09</ele>
  <time>2026-08-27T18:27:23Z</time>
  <course>273.04</course>
  <speed>0.0</speed>
  <fix>3d</fix>
</trkpt>
<trkpt lat="40.072842" lon="-105.230575">
  <ele>1586.09</ele>
  <time>2026-08-27T18:27:23Z</time>
  <course>18.35</course>
  <speed>0.0316227766016838</speed>
  <fix>3d</fix>
</trkpt>
<trkpt lat="40.072842" lon="-105.230575">
  <ele>1586.09</ele>
  <time>2026-08-27T18:27:23Z</time>
  <course>273.04</course>
  <speed>0.0</speed>
  <fix>3d</fix>
</trkpt>
<trkpt lat="40.072842" lon="-105.230575">
  <ele>1586.09</ele>
  <time>2026-08-27T18:27:23Z</time>
  <course>18.35</course>
  <speed>0.0316227766016838</speed>
  <fix>3d</fix>
</trkpt>
<trkpt lat="40.072842" lon="-105.230575">
  <ele>1586.09</ele>
  <time>2026-08-27T18:27:23Z</time>
  <course>273.04</course>
  <speed>0.0</speed>
  <fix>3d</fix>
</trkpt>
<trkpt lat="40.072842" lon="-105.230575">
  <ele>1586.09</ele>
  <time>2026-08-27T18:27:23Z</time>
  <course>18.35</course>
  <speed>0.0316227766016838</speed>
  <fix>3d</fix>
</trkpt>
<trkpt lat="40.072842" lon="-105.230575">
  <ele>1586.09</ele>
  <time>2026-08-27T18:27:23Z</time>
  <course>273.04</course>
  <speed>0.0</speed>
  <fix>3d</fix>
</trkpt>
<trkpt lat="40.072842" lon="-105.230575">
  <ele>1586.09</ele>
  <time>2026-08-27T18:27:23Z</time>
  <course>18.35</course>
  <speed>0.0316227766016838</speed>
  <fix>3d</fix>
</trkpt>
<trkpt lat="40.072842" lon="-105.230575">
  <ele>1586.09</ele>
  <time>2026-08-27T18:27:23Z</time>
  <course>273.04</course>
  <speed>0.0</speed>
  <fix>3d</fix>
</trkpt>
<trkpt lat="40.072842" lon="-105.230575">
  <ele>1586.09</ele>
  <time>2026-08-27T18:27:23Z</time>
  <course>18.34</course>
  <speed>0.0316227766016838</speed>
  <fix>3d</fix>
</trkpt>
<trkpt lat="40.072842" lon="-105.230575">
  <ele>1586.09</ele>
  <time>2026-08-27T18:27:23Z</time>
  <course>273.04</course>
  <speed>0.0</speed>
  <fix>3d</fix>
</trkpt>
<trkpt lat="40.072842" lon="-105.230575">
  <ele>1586.09</ele>
  <time>2026-08-27T18:27:23Z</time>
  <course>18.34</course>
  <speed>0.0316227766016838</speed>
  <fix>3d</fix>
</trkpt>
<trkpt lat="40.072842" lon="-105.230575">
  <ele>1586.09</ele>
  <time>2026-08-27T18:27:23Z</time>
  <course>273.04</course>
  <speed>0.0</speed>
  <fix>3d</fix>
</trkpt>
<trkpt lat="40.072842" lon="-105.230575">
  <ele>1586.09</ele>
  <time>2026-08-27T18:27:23Z</time>
  <course>18.34</course>
  <speed>0.0316227766016838</speed>
  <fix>3d</fix>
</trkpt>
<trkpt lat="40.072842" lon="-105.230575">
  <ele>1586.09</ele>
  <time>2026-08-27T18:27:23Z</time>
  <course>273.04</course>
  <speed>0.0</speed>
  <fix>3d</fix>
</trkpt>
<trkpt lat="40.072842" lon="-105.230575">
  <ele>1586.09</ele>
  <time>2026-08-27T18:27:23Z</time>
  <course>18.34</course>
  <speed>0.0316227766016838</speed>
  <fix>3d</fix>
</trkpt>
<trkpt lat="40.072842" lon="-105.230575">
  <ele>1586.09</ele>
  <time>2026-08-27T18:27:23Z</time>
  <course>273.04</course>
  <speed>0.0</speed>
  <fix>3d</fix>
</trkpt>
<trkpt lat="40.072842" lon="-105.230575">
  <ele>1586.09</ele>
  <time>2026-08-27T18:27:23Z</time>
  <course>18.34</course>
  <speed>0.0316227766016838</speed>
  <fix>3d</fix>
</trkpt>
<trkpt lat="40.072842" lon="-105.230575">
  <ele>1586.09</ele>
  <time>2026-08-27T18:27:23Z</time>
  <course>273.04</course>
  <speed>0.0</speed>
  <fix>3d</fix>
</trkpt>
<trkpt lat="40.072842" lon="-105.230575">
  <ele>1586.09</ele>
  <time>2026-08-27T18:27:23Z</time>
  <course>18.33</course>
  <speed>0.0316227766016838</speed>
  <fix>3d</fix>
</trkpt>
<trkpt lat="40.072842" lon="-105.230575">
  <ele>1586.09</ele>
  <time>2026-08-27T18:27:23Z</time>
  <course>273.04</course>
  <speed>0.0</speed>
  <fix>3d</fix>
</trkpt>
<trkpt lat="40.072842" lon="-105.230575">
  <ele>1586.09</ele>
  <time>2026-08-27T18:27:23Z</time>
  <course>18.33</course>
  <speed>0.0316227766016838</speed>
  <fix>3d</fix>
</trkpt>
<trkpt lat="40.072842" lon="-105.230575">
  <ele>1586.09</ele>
  <time>2026-08-27T18:27:23Z</time>
  <course>273.04</course>
  <speed>0.0</speed>
  <fix>3d</fix>
</trkpt>
<trkpt lat="40.072842" lon="-105.230575">
  <ele>1586.09</ele>
  <time>2026-08-27T18:27:23Z</time>
  <course>18.33</course>
  <speed>0.0316227766016838</speed>
  <fix>3d</fix>
</trkpt>
<trkpt lat="40.072842" lon="-105.230575">
  <ele>1586.09</ele>
  <time>2026-08-27T18:27:23Z</time>
  <course>273.04</course>
  <speed>0.0</speed>
  <fix>3d</fix>
</trkpt>
<trkpt lat="40.072842" lon="-105.230575">
  <ele>1586.09</ele>
  <time>2026-08-27T18:27:23Z</time>
  <course>18.32</course>
  <speed>0.0316227766016838</speed>
  <fix>3d</fix>
</trkpt>
<trkpt lat="40.072842" lon="-105.230575">
  <ele>1586.09</ele>
  <time>2026-08-27T18:27:23Z</time>
  <course>273.04</course>
  <speed>0.0</speed>
  <fix>3d</fix>
</trkpt>
<trkpt lat="40.072842" lon="-105.230575">
  <ele>1586.09</ele>
  <time>2026-08-27T18:27:23Z</time>
  <course>18.32</course>
  <speed>0.0316227766016838</speed>
  <fix>3d</fix>
</trkpt>
<trkpt lat="40.072842" lon="-105.230575">
  <ele>1586.09</ele>
  <time>2026-08-27T18:27:23Z</time>
  <course>273.04</course>
  <speed>0.0</speed>
  <fix>3d</fix>
</trkpt>
<trkpt lat="40.072842" lon="-105.230575">
  <ele>1586.09</ele>
  <time>2026-08-27T18:27:23Z</time>
  <course>18.32</course>
  <speed>0.0316227766016838</speed>
  <fix>3d</fix>
</trkpt>
<trkpt lat="40.072842" lon="-105.230575">
  <ele>1586.09</ele>
  <time>2026-08-27T18:27:23Z</time>
  <course>273.04</course>
  <speed>0.0</speed>
  <fix>3d</fix>
</trkpt>
<trkpt lat="40.072842" lon="-105.230575">
  <ele>1586.09</ele>
  <time>2026-08-27T18:27:23Z</time>
  <course>18.31</course>
  <speed>0.0316227766016838</speed>
  <fix>3d</fix>
</trkpt>
<trkpt lat="40.072842" lon="-105.230575">
  <ele>1586.09</ele>
  <time>2026-08-27T18:27:23Z</time>
  <course>273.04</course>
  <speed>0.0</speed>
  <fix>3d</fix>
</trkpt>
<trkpt lat="40.072842" lon="-105.230575">
  <ele>1586.09</ele>
  <time>2026-08-27T18:27:23Z</time>
  <course>18.31</course>
  <speed>0.0316227766016838</speed>
  <fix>3d</fix>
</trkpt>
<trkpt lat="40.072842" lon="-105.230575">
  <ele>1586.09</ele>
  <time>2026-08-27T18:27:23Z</time>
  <course>273.04</course>
  <speed>0.0</speed>
  <fix>3d</fix>
</trkpt>
<trkpt lat="40.072842" lon="-105.230575">
  <ele>1586.09</ele>
  <time>2026-08-27T18:27:23Z</time>
  <course>18.31</course>
  <speed>0.03605551275463989</speed>
  <fix>3d</fix>
</trkpt>
<trkpt lat="40.072842" lon="-105.230575">
  <ele>1586.09</ele>
  <time>2026-08-27T18:27:23Z</time>
  <course>273.04</course>
  <speed>0.0</speed>
  <fix>3d</fix>
</trkpt>
<trkpt lat="40.072842" lon="-105.230575">
  <ele>1586.09</ele>
  <time>2026-08-27T18:27:23Z</time>
  <course>18.31</course>
  <speed>0.03605551275463989</speed>
  <fix>3d</fix>
</trkpt>
<trkpt lat="40.072842" lon="-105.230575">
  <ele>1586.09</ele>
  <time>2026-08-27T18:27:23Z</time>
  <course>273.04</course>
  <speed>0.0</speed>
  <fix>3d</fix>
</trkpt>
<trkpt lat="40.072842" lon="-105.230575">
  <ele>1586.09</ele>
  <time>2026-08-27T18:27:23Z</time>
  <course>18.3</course>
  <speed>0.03605551275463989</speed>
  <fix>3d</fix>
</trkpt>
<trkpt lat="40.072842" lon="-105.230575">
  <ele>1586.09</ele>
  <time>2026-08-27T18:27:23Z</time>
  <course>273.04</course>
  <speed>0.0</speed>
  <fix>3d</fix>
</trkpt>
<trkpt lat="40.072842" lon="-105.230575">
  <ele>1586.09</ele>
  <time>2026-08-27T18:27:23Z</time>
  <course>18.3</course>
  <speed>0.03605551275463989</speed>
  <fix>3d</fix>
</trkpt>
<trkpt lat="40.072842" lon="-105.230575">
  <ele>1586.09</ele>
  <time>2026-08-27T18:27:23Z</time>
  <course>273.04</course>
  <speed>0.0</speed>
  <fix>3d</fix>
</trkpt>
<trkpt lat="40.072842" lon="-105.230575">
  <ele>1586.09</ele>
  <time>2026-08-27T18:27:23Z</time>
  <course>18.3</course>
  <speed>0.03605551275463989</speed>
  <fix>3d</fix>
</trkpt>
<trkpt lat="40.072842" lon="-105.230575">
  <ele>1586.09</ele>
  <time>2026-08-27T18:27:23Z</time>
  <course>273.04</course>
  <speed>0.0</speed>
  <fix>3d</fix>
</trkpt>
<trkpt lat="40.072842" lon="-105.230575">
  <ele>1586.09</ele>
  <time>2026-08-27T18:27:23Z</time>
  <course>18.29</course>
  <speed>0.03605551275463989</speed>
  <fix>3d</fix>
</trkpt>
<trkpt lat="40.072842" lon="-105.230575">
  <ele>1586.09</ele>
  <time>2026-08-27T18:27:23Z</time>
  <course>273.04</course>
  <speed>0.0</speed>
  <fix>3d</fix>
</trkpt>
<trkpt lat="40.072842" lon="-105.230575">
  <ele>1586.09</ele>
  <time>2026-08-27T18:27:23Z</time>
  <course>18.29</course>
  <speed>0.03605551275463989</speed>
  <fix>3d</fix>
</trkpt>
<trkpt lat="40.072842" lon="-105.230575">
  <ele>1586.09</ele>
  <time>2026-08-27T18:27:23Z</time>
  <course>273.04</course>
  <speed>0.0</speed>
  <fix>3d</fix>
</trkpt>
<trkpt lat="40.072842" lon="-105.230575">
  <ele>1586.09</ele>
  <time>2026-08-27T18:27:23Z</time>
  <course>18.29</course>
  <speed>0.03605551275463989</speed>
  <fix>3d</fix>
</trkpt>
<trkpt lat="40.072842" lon="-105.230575">
  <ele>1586.09</ele>
  <time>2026-08-27T18:27:23Z</time>
  <course>273.04</course>
  <speed>0.0</speed>
  <fix>3d</fix>
</trkpt>
<trkpt lat="40.072842" lon="-105.230575">
  <ele>1586.09</ele>
  <time>2026-08-27T18:27:23Z</time>
  <course>18.28</course>
  <speed>0.03605551275463989</speed>
  <fix>3d</fix>
</trkpt>
<trkpt lat="40.072842" lon="-105.230575">
  <ele>1586.09</ele>
  <time>2026-08-27T18:27:23Z</time>
  <course>273.04</course>
  <speed>0.0</speed>
  <fix>3d</fix>
</trkpt>
<trkpt lat="40.072842" lon="-105.230575">
  <ele>1586.09</ele>
  <time>2026-08-27T18:27:23Z</time>
  <course>18.28</course>
  <speed>0.03605551275463989</speed>
  <fix>3d</fix>
</trkpt>
<trkpt lat="40.072842" lon="-105.230575">
  <ele>1586.09</ele>
  <time>2026-08-27T18:27:23Z</time>
  <course>273.04</course>
  <speed>0.0</speed>
  <fix>3d</fix>
</trkpt>
<trkpt lat="40.072842" lon="-105.230575">
  <ele>1586.09</ele>
  <time>2026-08-27T18:27:23Z</time>
  <course>18.27</course>
  <speed>0.044721359549995794</speed>
  <fix>3d</fix>
</trkpt>
<trkpt lat="40.072842" lon="-105.230575">
  <ele>1586.09</ele>
  <time>2026-08-27T18:27:23Z</time>
  <course>273.04</course>
  <speed>0.0</speed>
  <fix>3d</fix>
</trkpt>
<trkpt lat="40.072842" lon="-105.230575">
  <ele>1586.09</ele>
  <time>2026-08-27T18:27:23Z</time>
  <course>18.27</course>
  <speed>0.044721359549995794</speed>
  <fix>3d</fix>
</trkpt>
<trkpt lat="40.072842" lon="-105.230575">
  <ele>1586.09</ele>
  <time>2026-08-27T18:27:23Z</time>
  <course>273.04</course>
  <speed>0.0</speed>
  <fix>3d</fix>
</trkpt>
<trkpt lat="40.072842" lon="-105.230575">
  <ele>1586.09</ele>
  <time>2026-08-27T18:27:23Z</time>
  <course>18.27</course>
  <speed>0.044721359549995794</speed>
  <fix>3d</fix>
</trkpt>
<trkpt lat="40.072842" lon="-105.230575">
  <ele>1586.09</ele>
  <time>2026-08-27T18:27:23Z</time>
  <course>273.04</course>
  <speed>0.0</speed>
  <fix>3d</fix>
</trkpt>
<trkpt lat="40.072842" lon="-105.230575">
  <ele>1586.09</ele>
  <time>2026-08-27T18:27:23Z</time>
  <course>18.26</course>
  <speed>0.044721359549995794</speed>
  <fix>3d</fix>
</trkpt>
<trkpt lat="40.072842" lon="-105.230575">
  <ele>1586.09</ele>
  <time>2026-08-27T18:27:23Z</time>
  <course>273.04</course>
  <speed>0.0</speed>
  <fix>3d</fix>
</trkpt>
<trkpt lat="40.072842" lon="-105.230575">
  <ele>1586.09</ele>
  <time>2026-08-27T18:27:23Z</time>
  <course>18.26</course>
  <speed>0.044721359549995794</speed>
  <fix>3d</fix>
</trkpt>
<trkpt lat="40.072842" lon="-105.230575">
  <ele>1586.09</ele>
  <time>2026-08-27T18:27:23Z</time>
  <course>273.04</course>
  <speed>0.0</speed>
  <fix>3d</fix>
</trkpt>
<trkpt lat="40.072842" lon="-105.230575">
  <ele>1586.09</ele>
  <time>2026-08-27T18:27:23Z</time>
  <course>18.26</course>
  <speed>0.044721359549995794</speed>
  <fix>3d</fix>
</trkpt>
<trkpt lat="40.072842" lon="-105.230575">
  <ele>1586.09</ele>
  <time>2026-08-27T18:27:23Z</time>
  <course>273.04</course>
  <speed>0.0</speed>
  <fix>3d</fix>
</trkpt>
<trkpt lat="40.072842" lon="-105.230575">
  <ele>1586.09</ele>
  <time>2026-08-27T18:27:23Z</time>
  <course>18.25</course>
  <speed>0.044721359549995794</speed>
  <fix>3d</fix>
</trkpt>
<trkpt lat="40.072842" lon="-105.230575">
  <ele>1586.09</ele>
  <time>2026-08-27T18:27:23Z</time>
  <course>273.04</course>
  <speed>0.0</speed>
  <fix>3d</fix>
</trkpt>
<trkpt lat="40.072842" lon="-105.230575">
  <ele>1586.09</ele>
  <time>2026-08-27T18:27:23Z</time>
  <course>18.25</course>
  <speed>0.044721359549995794</speed>
  <fix>3d</fix>
</trkpt>
<trkpt lat="40.072842" lon="-105.230575">
  <ele>1586.09</ele>
  <time>2026-08-27T18:27:23Z</time>
  <course>273.04</course>
  <speed>0.0</speed>
  <fix>3d</fix>
</trkpt>
<trkpt lat="40.072842" lon="-105.230575">
  <ele>1586.09</ele>
  <time>2026-08-27T18:27:23Z</time>
  <course>18.25</course>
  <speed>0.044721359549995794</speed>
  <fix>3d</fix>
</trkpt>
<trkpt lat="40.072842" lon="-105.230575">
  <ele>1586.09</ele>
  <time>2026-08-27T18:27:23Z</time>
  <course>273.04</course>
  <speed>0.0</speed>
  <fix>3d</fix>
</trkpt>
<trkpt lat="40.072842" lon="-105.230575">
  <ele>1586.09</ele>
  <time>2026-08-27T18:27:23Z</time>
  <course>18.24</course>
  <speed>0.044721359549995794</speed>
  <fix>3d</fix>
</trkpt>
<trkpt lat="40.072842" lon="-105.230575">
  <ele>1586.09</ele>
  <time>2026-08-27T18:27:23Z</time>
  <course>273.04</course>
  <speed>0.0</speed>
  <fix>3d</fix>
</trkpt>
<trkpt lat="40.072842" lon="-105.230575">
  <ele>1586.09</ele>
  <time>2026-08-27T18:27:23Z</time>
  <course>18.24</course>
  <speed>0.044721359549995794</speed>
  <fix>3d</fix>
</trkpt>
<trkpt lat="40.072842" lon="-105.230575">
  <ele>1586.09</ele>
  <time>2026-08-27T18:27:23Z</time>
  <course>273.04</course>
  <speed>0.0</speed>
  <fix>3d</fix>
</trkpt>
<trkpt lat="40.072842" lon="-105.230575">
  <ele>1586.09</ele>
  <time>2026-08-27T18:27:23Z</time>
  <course>18.24</course>
  <speed>0.044721359549995794</speed>
  <fix>3d</fix>
</trkpt>
<trkpt lat="40.072842" lon="-105.230575">
  <ele>1586.09</ele>
  <time>2026-08-27T18:27:23Z</time>
  <course>273.04</course>
  <speed>0.0</speed>
  <fix>3d</fix>
</trkpt>
<trkpt lat="40.072842" lon="-105.230575">
  <ele>1586.09</ele>
  <time>2026-08-27T18:27:23Z</time>
  <course>18.24</course>
  <speed>0.044721359549995794</speed>
  <fix>3d</fix>
</trkpt>
<trkpt lat="40.072842" lon="-105.230575">
  <ele>1586.09</ele>
  <time>2026-08-27T18:27:23Z</time>
  <course>273.04</course>
  <speed>0.0</speed>
  <fix>3d</fix>
</trkpt>
<trkpt lat="40.072842" lon="-105.230575">
  <ele>1586.09</ele>
  <time>2026-08-27T18:27:23Z</time>
  <course>18.23</course>
  <speed>0.044721359549995794</speed>
  <fix>3d</fix>
</trkpt>
<trkpt lat="40.072842" lon="-105.230575">
  <ele>1586.09</ele>
  <time>2026-08-27T18:27:23Z</time>
  <course>273.04</course>
  <speed>0.0</speed>
  <fix>3d</fix>
</trkpt>
<trkpt lat="40.072842" lon="-105.230575">
  <ele>1586.09</ele>
  <time>2026-08-27T18:27:23Z</time>
  <course>18.23</course>
  <speed>0.044721359549995794</speed>
  <fix>3d</fix>
</trkpt>
<trkpt lat="40.072842" lon="-105.230575">
  <ele>1586.09</ele>
  <time>2026-08-27T18:27:23Z</time>
  <course>273.04</course>
  <speed>0.0</speed>
  <fix>3d</fix>
</trkpt>
<trkpt lat="40.072842" lon="-105.230575">
  <ele>1586.09</ele>
  <time>2026-08-27T18:27:23Z</time>
  <course>18.23</course>
  <speed>0.044721359549995794</speed>
  <fix>3d</fix>
</trkpt>
<trkpt lat="40.072842" lon="-105.230575">
  <ele>1586.09</ele>
  <time>2026-08-27T18:27:23Z</time>
  <course>273.04</course>
  <speed>0.0</speed>
  <fix>3d</fix>
</trkpt>
<trkpt lat="40.072842" lon="-105.230575">
  <ele>1586.09</ele>
  <time>2026-08-27T18:27:23Z</time>
  <course>18.22</course>
  <speed>0.044721359549995794</speed>
  <fix>3d</fix>
</trkpt>
<trkpt lat="40.072842" lon="-105.230575">
  <ele>1586.09</ele>
  <time>2026-08-27T18:27:23Z</time>
  <course>273.04</course>
  <speed>0.0</speed>
  <fix>3d</fix>
</trkpt>
<trkpt lat="40.072842" lon="-105.230575">
  <ele>1586.09</ele>
  <time>2026-08-27T18:27:23Z</time>
  <course>18.22</course>
  <speed>0.044721359549995794</speed>
  <fix>3d</fix>
</trkpt>
<trkpt lat="40.072842" lon="-105.230575">
  <ele>1586.09</ele>
  <time>2026-08-27T18:27:23Z</time>
  <course>273.04</course>
  <speed>0.0</speed>
  <fix>3d</fix>
</trkpt>
<trkpt lat="40.072842" lon="-105.230575">
  <ele>1586.09</ele>
  <time>2026-08-27T18:27:23Z</time>
  <course>18.22</course>
  <speed>0.044721359549995794</speed>
  <fix>3d</fix>
</trkpt>
<trkpt lat="40.072842" lon="-105.230575">
  <ele>1586.09</ele>
  <time>2026-08-27T18:27:23Z</time>
  <course>273.04</course>
  <speed>0.0</speed>
  <fix>3d</fix>
</trkpt>
<trkpt lat="40.072842" lon="-105.230575">
  <ele>1586.17</ele>
  <time>2026-08-27T18:27:23Z</time>
  <course>18.21</course>
  <speed>0.0</speed>
  <fix>3d</fix>
</trkpt>
<trkpt lat="40.072842" lon="-105.230575">
  <ele>1586.09</ele>
  <time>2026-08-27T18:27:23Z</time>
  <course>273.04</course>
  <speed>0.0</speed>
  <fix>3d</fix>
</trkpt>
<trkpt lat="40.072842" lon="-105.230575">
  <ele>1586.17</ele>
  <time>2026-08-27T18:27:23Z</time>
  <course>18.21</course>
  <speed>0.0</speed>
  <fix>3d</fix>
</trkpt>
<trkpt lat="40.072842" lon="-105.230575">
  <ele>1586.09</ele>
  <time>2026-08-27T18:27:23Z</time>
  <course>273.04</course>
  <speed>0.0</speed>
  <fix>3d</fix>
</trkpt>
<trkpt lat="40.072842" lon="-105.230575">
  <ele>1586.18</ele>
  <time>2026-08-27T18:27:23Z</time>
  <course>18.21</course>
  <speed>0.0</speed>
  <fix>3d</fix>
</trkpt>
<trkpt lat="40.072842" lon="-105.230575">
  <ele>1586.09</ele>
  <time>2026-08-27T18:27:23Z</time>
  <course>284.79</course>
  <speed>0.0</speed>
  <fix>3d</fix>
</trkpt>
<trkpt lat="40.072842" lon="-105.230575">
  <ele>1586.18</ele>
  <time>2026-08-27T18:27:23Z</time>
  <course>18.21</course>
  <speed>0.0</speed>
  <fix>3d</fix>
</trkpt>
<trkpt lat="40.072842" lon="-105.230575">
  <ele>1586.09</ele>
  <time>2026-08-27T18:27:23Z</time>
  <course>274.56</course>
  <speed>0.0</speed>
  <fix>3d</fix>
</trkpt>
<trkpt lat="40.072842" lon="-105.230575">
  <ele>1586.18</ele>
  <time>2026-08-27T18:27:23Z</time>
  <course>18.21</course>
  <speed>0.0</speed>
  <fix>3d</fix>
</trkpt>
<trkpt lat="40.072842" lon="-105.230575">
  <ele>1586.09</ele>
  <time>2026-08-27T18:27:23Z</time>
  <course>205.11</course>
  <speed>0.0</speed>
  <fix>3d</fix>
</trkpt>
<trkpt lat="40.072842" lon="-105.230575">
  <ele>1586.17</ele>
  <time>2026-08-27T18:27:23Z</time>
  <course>18.2</course>
  <speed>0.01</speed>
  <fix>3d</fix>
</trkpt>
<trkpt lat="40.072842" lon="-105.230575">
  <ele>1586.09</ele>
  <time>2026-08-27T18:27:23Z</time>
  <course>79.54</course>
  <speed>0.0</speed>
  <fix>3d</fix>
</trkpt>
<trkpt lat="40.072842" lon="-105.230575">
  <ele>1586.17</ele>
  <time>2026-08-27T18:27:23Z</time>
  <course>18.2</course>
  <speed>0.01</speed>
  <fix>3d</fix>
</trkpt>
<trkpt lat="40.072842" lon="-105.230575">
  <ele>1586.09</ele>
  <time>2026-08-27T18:27:23Z</time>
  <course>286.98</course>
  <speed>0.0</speed>
  <fix>3d</fix>
</trkpt>
<trkpt lat="40.072842" lon="-105.230575">
  <ele>1586.17</ele>
  <time>2026-08-27T18:27:23Z</time>
  <course>18.2</course>
  <speed>0.01</speed>
  <fix>3d</fix>
</trkpt>
<trkpt lat="40.072842" lon="-105.230575">
  <ele>1586.09</ele>
  <time>2026-08-27T18:27:23Z</time>
  <course>268.78</course>
  <speed>0.0</speed>
  <fix>3d</fix>
</trkpt>
<trkpt lat="40.072842" lon="-105.230575">
  <ele>1586.17</ele>
  <time>2026-08-27T18:27:23Z</time>
  <course>18.19</course>
  <speed>0.01</speed>
  <fix>3d</fix>
</trkpt>
<trkpt lat="40.072842" lon="-105.230575">
  <ele>1586.09</ele>
  <time>2026-08-27T18:27:23Z</time>
  <course>271.02</course>
  <speed>0.0</speed>
  <fix>3d</fix>
</trkpt>
<trkpt lat="40.072842" lon="-105.230575">
  <ele>1586.17</ele>
  <time>2026-08-27T18:27:23Z</time>
  <course>18.19</course>
  <speed>0.01</speed>
  <fix>3d</fix>
</trkpt>
<trkpt lat="40.072842" lon="-105.230575">
  <ele>1586.09</ele>
  <time>2026-08-27T18:27:23Z</time>
  <course>274.07</course>
  <speed>0.0</speed>
  <fix>3d</fix>
</trkpt>
<trkpt lat="40.072842" lon="-105.230575">
  <ele>1586.18</ele>
  <time>2026-08-27T18:27:23Z</time>
  <course>18.19</course>
  <speed>0.022360679774997897</speed>
  <fix>3d</fix>
</trkpt>
<trkpt lat="40.072842" lon="-105.230575">
  <ele>1586.09</ele>
  <time>2026-08-27T18:27:23Z</time>
  <course>273.17</course>
  <speed>0.0</speed>
  <fix>3d</fix>
</trkpt>
<trkpt lat="40.072842" lon="-105.230575">
  <ele>1586.18</ele>
  <time>2026-08-27T18:27:23Z</time>
  <course>18.19</course>
  <speed>0.022360679774997897</speed>
  <fix>3d</fix>
</trkpt>
<trkpt lat="40.072842" lon="-105.230575">
  <ele>1586.09</ele>
  <time>2026-08-27T18:27:23Z</time>
  <course>272.89</course>
  <speed>0.0</speed>
  <fix>3d</fix>
</trkpt>
<trkpt lat="40.072842" lon="-105.230575">
  <ele>1586.18</ele>
  <time>2026-08-27T18:27:23Z</time>
  <course>18.19</course>
  <speed>0.022360679774997897</speed>
  <fix>3d</fix>
</trkpt>
<trkpt lat="40.072842" lon="-105.230575">
  <ele>1586.09</ele>
  <time>2026-08-27T18:27:23Z</time>
  <course>262.01</course>
  <speed>0.0</speed>
  <fix>3d</fix>
</trkpt>
<trkpt lat="40.072842" lon="-105.230575">
  <ele>1586.18</ele>
  <time>2026-08-27T18:27:23Z</time>
  <course>18.19</course>
  <speed>0.022360679774997897</speed>
  <fix>3d</fix>
</trkpt>
<trkpt lat="40.072842" lon="-105.230575">
  <ele>1586.09</ele>
  <time>2026-08-27T18:27:23Z</time>
  <course>267.04</course>
  <speed>0.0</speed>
  <fix>3d</fix>
</trkpt>
<trkpt lat="40.072842" lon="-105.230575">
  <ele>1586.18</ele>
  <time>2026-08-27T18:27:23Z</time>
  <course>18.19</course>
  <speed>0.022360679774997897</speed>
  <fix>3d</fix>
</trkpt>
<trkpt lat="40.072842" lon="-105.230575">
  <ele>1586.09</ele>
  <time>2026-08-27T18:27:23Z</time>
  <course>273.95</course>
  <speed>0.0</speed>
  <fix>3d</fix>
</trkpt>
<trkpt lat="40.0728419" lon="-105.230575">
  <ele>1586.17</ele>
  <time>2026-08-27T18:27:23Z</time>
  <course>18.18</course>
  <speed>0.01414213562373095</speed>
  <fix>3d</fix>
</trkpt>
<trkpt lat="40.072842" lon="-105.230575">
  <ele>1586.09</ele>
  <time>2026-08-27T18:27:23Z</time>
  <course>271.39</course>
  <speed>0.0</speed>
  <fix>3d</fix>
</trkpt>
<trkpt lat="40.072842" lon="-105.230575">
  <ele>1586.17</ele>
  <time>2026-08-27T18:27:23Z</time>
  <course>18.18</course>
  <speed>0.01</speed>
  <fix>3d</fix>
</trkpt>
<trkpt lat="40.072842" lon="-105.230575">
  <ele>1586.09</ele>
  <time>2026-08-27T18:27:23Z</time>
  <course>273.24</course>
  <speed>0.0</speed>
  <fix>3d</fix>
</trkpt>
<trkpt lat="40.072842" lon="-105.230575">
  <ele>1586.17</ele>
  <time>2026-08-27T18:27:23Z</time>
  <course>18.18</course>
  <speed>0.01</speed>
  <fix>3d</fix>
</trkpt>
<trkpt lat="40.072842" lon="-105.230575">
  <ele>1586.09</ele>
  <time>2026-08-27T18:27:23Z</time>
  <course>273.24</course>
  <speed>0.0</speed>
  <fix>3d</fix>
</trkpt>
<trkpt lat="40.072842" lon="-105.230575">
  <ele>1586.17</ele>
  <time>2026-08-27T18:27:23Z</time>
  <course>18.17</course>
  <speed>0.0</speed>
  <fix>3d</fix>
</trkpt>
<trkpt lat="40.072842" lon="-105.230575">
  <ele>1586.09</ele>
  <time>2026-08-27T18:27:23Z</time>
  <course>272.99</course>
  <speed>0.0</speed>
  <fix>3d</fix>
</trkpt>
<trkpt lat="40.072842" lon="-105.230575">
  <ele>1586.17</ele>
  <time>2026-08-27T18:27:23Z</time>
  <course>18.17</course>
  <speed>0.0</speed>
  <fix>3d</fix>
</trkpt>
<trkpt lat="40.072842" lon="-105.230575">
  <ele>1586.09</ele>
  <time>2026-08-27T18:27:23Z</time>
  <course>273.02</course>
  <speed>0.0</speed>
  <fix>3d</fix>
</trkpt>
<trkpt lat="40.072842" lon="-105.230575">
  <ele>1586.17</ele>
  <time>2026-08-27T18:27:23Z</time>
  <course>18.17</course>
  <speed>0.0</speed>
  <fix>3d</fix>
</trkpt>
<trkpt lat="40.072842" lon="-105.230575">
  <ele>1586.09</ele>
  <time>2026-08-27T18:27:23Z</time>
  <course>273.05</course>
  <speed>0.0</speed>
  <fix>3d</fix>
</trkpt>
<trkpt lat="40.072842" lon="-105.230575">
  <ele>1586.17</ele>
  <time>2026-08-27T18:27:23Z</time>
  <course>18.17</course>
  <speed>0.0</speed>
  <fix>3d</fix>
</trkpt>
<trkpt lat="40.072842" lon="-105.230575">
  <ele>1586.09</ele>
  <time>2026-08-27T18:27:23Z</time>
  <course>357.39</course>
  <speed>0.0</speed>
  <fix>3d</fix>
</trkpt>
<trkpt lat="40.072842" lon="-105.230575">
  <ele>1586.17</ele>
  <time>2026-08-27T18:27:23Z</time>
  <course>18.16</course>
  <speed>0.0</speed>
  <fix>3d</fix>
</trkpt>
<trkpt lat="40.072842" lon="-105.230575">
  <ele>1586.09</ele>
  <time>2026-08-27T18:27:23Z</time>
  <course>329.12</course>
  <speed>0.0</speed>
  <fix>3d</fix>
</trkpt>
<trkpt lat="40.072842" lon="-105.230575">
  <ele>1586.17</ele>
  <time>2026-08-27T18:27:23Z</time>
  <course>18.16</course>
  <speed>0.0</speed>
  <fix>3d</fix>
</trkpt>
<trkpt lat="40.072842" lon="-105.230575">
  <ele>1586.09</ele>
  <time>2026-08-27T18:27:23Z</time>
  <course>311.41</course>
  <speed>0.0</speed>
  <fix>3d</fix>
</trkpt>
<trkpt lat="40.072842" lon="-105.230575">
  <ele>1586.17</ele>
  <time>2026-08-27T18:27:23Z</time>
  <course>18.16</course>
  <speed>0.0</speed>
  <fix>3d</fix>
</trkpt>
<trkpt lat="40.072842" lon="-105.230575">
  <ele>1586.09</ele>
  <time>2026-08-27T18:27:23Z</time>
  <course>182.06</course>
  <speed>0.0</speed>
  <fix>3d</fix>
</trkpt>
<trkpt lat="40.072842" lon="-105.230575">
  <ele>1586.17</ele>
  <time>2026-08-27T18:27:23Z</time>
  <course>18.16</course>
  <speed>0.0</speed>
  <fix>3d</fix>
</trkpt>
<trkpt lat="40.072842" lon="-105.230575">
  <ele>1586.09</ele>
  <time>2026-08-27T18:27:23Z</time>
  <course>251.34</course>
  <speed>0.0</speed>
  <fix>3d</fix>
</trkpt>
<trkpt lat="40.072842" lon="-105.230575">
  <ele>1586.17</ele>
  <time>2026-08-27T18:27:23Z</time>
  <course>18.15</course>
  <speed>0.0</speed>
  <fix>3d</fix>
</trkpt>
<trkpt lat="40.072842" lon="-105.230575">
  <ele>1586.09</ele>
  <time>2026-08-27T18:27:23Z</time>
  <course>310.89</course>
  <speed>0.0</speed>
  <fix>3d</fix>
</trkpt>
<trkpt lat="40.072842" lon="-105.230575">
  <ele>1586.17</ele>
  <time>2026-08-27T18:27:23Z</time>
  <course>18.14</course>
  <speed>0.0</speed>
  <fix>3d</fix>
</trkpt>
<trkpt lat="40.072842" lon="-105.230575">
  <ele>1586.09</ele>
  <time>2026-08-27T18:27:23Z</time>
  <course>271.14</course>
  <speed>0.0</speed>
  <fix>3d</fix>
</trkpt>
<trkpt lat="40.072842" lon="-105.230575">
  <ele>1586.17</ele>
  <time>2026-08-27T18:27:23Z</time>
  <course>18.13</course>
  <speed>0.0</speed>
  <fix>3d</fix>
</trkpt>
<trkpt lat="40.072842" lon="-105.230575">
  <ele>1586.09</ele>
  <time>2026-08-27T18:27:23Z</time>
  <course>261.94</course>
  <speed>0.0</speed>
  <fix>3d</fix>
</trkpt>
<trkpt lat="40.072842" lon="-105.230575">
  <ele>1586.18</ele>
  <time>2026-08-27T18:27:23Z</time>
  <course>18.12</course>
  <speed>0.0</speed>
  <fix>3d</fix>
</trkpt>
<trkpt lat="40.072842" lon="-105.230575">
  <ele>1586.09</ele>
  <time>2026-08-27T18:27:23Z</time>
  <course>116.45</course>
  <speed>0.0</speed>
  <fix>3d</fix>
</trkpt>
<trkpt lat="40.072842" lon="-105.230575">
  <ele>1586.18</ele>
  <time>2026-08-27T18:27:23Z</time>
  <course>18.11</course>
  <speed>0.0</speed>
  <fix>3d</fix>
</trkpt>
<trkpt lat="40.072842" lon="-105.230575">
  <ele>1586.09</ele>
  <time>2026-08-27T18:27:23Z</time>
  <course>342.76</course>
  <speed>0.0</speed>
  <fix>3d</fix>
</trkpt>
<trkpt lat="40.072842" lon="-105.230575">
  <ele>1586.18</ele>
  <time>2026-08-27T18:27:23Z</time>
  <course>18.1</course>
  <speed>0.0</speed>
  <fix>3d</fix>
</trkpt>
<trkpt lat="40.072842" lon="-105.230575">
  <ele>1586.09</ele>
  <time>2026-08-27T18:27:23Z</time>
  <course>328.78</course>
  <speed>0.0</speed>
  <fix>3d</fix>
</trkpt>
<trkpt lat="40.072842" lon="-105.230575">
  <ele>1586.18</ele>
  <time>2026-08-27T18:27:23Z</time>
  <course>18.09</course>
  <speed>0.0</speed>
  <fix>3d</fix>
</trkpt>
<trkpt lat="40.072842" lon="-105.230575">
  <ele>1586.09</ele>
  <time>2026-08-27T18:27:23Z</time>
  <course>288.53</course>
  <speed>0.0</speed>
  <fix>3d</fix>
</trkpt>
<trkpt lat="40.072842" lon="-105.230575">
  <ele>1586.18</ele>
  <time>2026-08-27T18:27:23Z</time>
  <course>18.08</course>
  <speed>0.0</speed>
  <fix>3d</fix>
</trkpt>
<trkpt lat="40.072842" lon="-105.230575">
  <ele>1586.09</ele>
  <time>2026-08-27T18:27:23Z</time>
  <course>270.34</course>
  <speed>0.0</speed>
  <fix>3d</fix>
</trkpt>
<trkpt lat="40.072842" lon="-105.230575">
  <ele>1586.18</ele>
  <time>2026-08-27T18:27:23Z</time>
  <course>18.06</course>
  <speed>0.0</speed>
  <fix>3d</fix>
</trkpt>
<trkpt lat="40.072842" lon="-105.230575">
  <ele>1586.09</ele>
  <time>2026-08-27T18:27:23Z</time>
  <course>260.48</course>
  <speed>0.0</speed>
  <fix>3d</fix>
</trkpt>
<trkpt lat="40.072842" lon="-105.230575">
  <ele>1586.18</ele>
  <time>2026-08-27T18:27:23Z</time>
  <course>18.04</course>
  <speed>0.0</speed>
  <fix>3d</fix>
</trkpt>
<trkpt lat="40.072842" lon="-105.230575">
  <ele>1586.09</ele>
  <time>2026-08-27T18:27:23Z</time>
  <course>52.04</course>
  <speed>0.0</speed>
  <fix>3d</fix>
</trkpt>
<trkpt lat="40.072842" lon="-105.230575">
  <ele>1586.18</ele>
  <time>2026-08-27T18:27:23Z</time>
  <course>18.02</course>
  <speed>0.0</speed>
  <fix>3d</fix>
</trkpt>
<trkpt lat="40.072842" lon="-105.230575">
  <ele>1586.09</ele>
  <time>2026-08-27T18:27:23Z</time>
  <course>336.93</course>
  <speed>0.0</speed>
  <fix>3d</fix>
</trkpt>
<trkpt lat="40.072842" lon="-105.230575">
  <ele>1586.18</ele>
  <time>2026-08-27T18:27:23Z</time>
  <course>18.0</course>
  <speed>0.0</speed>
  <fix>3d</fix>
</trkpt>
<trkpt lat="40.072842" lon="-105.230575">
  <ele>1586.09</ele>
  <time>2026-08-27T18:27:23Z</time>
  <course>322.9</course>
  <speed>0.0</speed>
  <fix>3d</fix>
</trkpt>
<trkpt lat="40.072842" lon="-105.230575">
  <ele>1586.18</ele>
  <time>2026-08-27T18:27:23Z</time>
  <course>17.98</course>
  <speed>0.0</speed>
  <fix>3d</fix>
</trkpt>
<trkpt lat="40.072842" lon="-105.230575">
  <ele>1586.09</ele>
  <time>2026-08-27T18:27:23Z</time>
  <course>291.65</course>
  <speed>0.0</speed>
  <fix>3d</fix>
</trkpt>
<trkpt lat="40.072842" lon="-105.230575">
  <ele>1586.18</ele>
  <time>2026-08-27T18:27:23Z</time>
  <course>17.95</course>
  <speed>0.0</speed>
  <fix>3d</fix>
</trkpt>
<trkpt lat="40.072842" lon="-105.230575">
  <ele>1586.09</ele>
  <time>2026-08-27T18:27:23Z</time>
  <course>253.4</course>
  <speed>0.0</speed>
  <fix>3d</fix>
</trkpt>
<trkpt lat="40.072842" lon="-105.230575">
  <ele>1586.18</ele>
  <time>2026-08-27T18:27:23Z</time>
  <course>17.93</course>
  <speed>0.01</speed>
  <fix>3d</fix>
</trkpt>
<trkpt lat="40.072842" lon="-105.230575">
  <ele>1586.09</ele>
  <time>2026-08-27T18:27:23Z</time>
  <course>127.7</course>
  <speed>0.0</speed>
  <fix>3d</fix>
</trkpt>
<trkpt lat="40.072842" lon="-105.230575">
  <ele>1586.18</ele>
  <time>2026-08-27T18:27:23Z</time>
  <course>17.9</course>
  <speed>0.01</speed>
  <fix>3d</fix>
</trkpt>
<trkpt lat="40.072842" lon="-105.230575">
  <ele>1586.09</ele>
  <time>2026-08-27T18:27:23Z</time>
  <course>316.96</course>
  <speed>0.0</speed>
  <fix>3d</fix>
</trkpt>
<trkpt lat="40.072842" lon="-105.230575">
  <ele>1586.18</ele>
  <time>2026-08-27T18:27:23Z</time>
  <course>17.87</course>
  <speed>0.01</speed>
  <fix>3d</fix>
</trkpt>
<trkpt lat="40.072842" lon="-105.230575">
  <ele>1586.09</ele>
  <time>2026-08-27T18:27:23Z</time>
  <course>327.93</course>
  <speed>0.0</speed>
  <fix>3d</fix>
</trkpt>
<trkpt lat="40.072842" lon="-105.230575">
  <ele>1586.18</ele>
  <time>2026-08-27T18:27:23Z</time>
  <course>17.85</course>
  <speed>0.01</speed>
  <fix>3d</fix>
</trkpt>
<trkpt lat="40.072842" lon="-105.230575">
  <ele>1586.09</ele>
  <time>2026-08-27T18:27:23Z</time>
  <course>276.95</course>
  <speed>0.0</speed>
  <fix>3d</fix>
</trkpt>
<trkpt lat="40.072842" lon="-105.230575">
  <ele>1586.18</ele>
  <time>2026-08-27T18:27:23Z</time>
  <course>17.82</course>
  <speed>0.01</speed>
  <fix>3d</fix>
</trkpt>
<trkpt lat="40.072842" lon="-105.230575">
  <ele>1586.09</ele>
  <time>2026-08-27T18:27:23Z</time>
  <course>248.63</course>
  <speed>0.0</speed>
  <fix>3d</fix>
</trkpt>
<trkpt lat="40.072842" lon="-105.230575">
  <ele>1586.18</ele>
  <time>2026-08-27T18:27:24Z</time>
  <course>17.78</course>
  <speed>0.01</speed>
  <fix>3d</fix>
</trkpt>
<trkpt lat="40.072842" lon="-105.230575">
  <ele>1586.09</ele>
  <time>2026-08-27T18:27:24Z</time>
  <course>106.41</course>
  <speed>0.0</speed>
  <fix>3d</fix>
</trkpt>
<trkpt lat="40.072842" lon="-105.230575">
  <ele>1586.18</ele>
  <time>2026-08-27T18:27:24Z</time>
  <course>17.75</course>
  <speed>0.01</speed>
  <fix>3d</fix>
</trkpt>
<trkpt lat="40.072842" lon="-105.230575">
  <ele>1586.09</ele>
  <time>2026-08-27T18:27:24Z</time>
  <course>314.03</course>
  <speed>0.0</speed>
  <fix>3d</fix>
</trkpt>
<trkpt lat="40.072842" lon="-105.230575">
  <ele>1586.18</ele>
  <time>2026-08-27T18:27:24Z</time>
  <course>17.71</course>
  <speed>0.01</speed>
  <fix>3d</fix>
</trkpt>
<trkpt lat="40.072842" lon="-105.230575">
  <ele>1586.09</ele>
  <time>2026-08-27T18:27:24Z</time>
  <course>287.45</course>
  <speed>0.0</speed>
  <fix>3d</fix>
</trkpt>
<trkpt lat="40.072842" lon="-105.230575">
  <ele>1586.18</ele>
  <time>2026-08-27T18:27:24Z</time>
  <course>17.67</course>
  <speed>0.01</speed>
  <fix>3d</fix>
</trkpt>
<trkpt lat="40.072842" lon="-105.230575">
  <ele>1586.09</ele>
  <time>2026-08-27T18:27:24Z</time>
  <course>304.42</course>
  <speed>0.0</speed>
  <fix>3d</fix>
</trkpt>
<trkpt lat="40.072842" lon="-105.230575">
  <ele>1586.17</ele>
  <time>2026-08-27T18:27:24Z</time>
  <course>17.63</course>
  <speed>0.01</speed>
  <fix>3d</fix>
</trkpt>
<trkpt lat="40.072842" lon="-105.230575">
  <ele>1586.09</ele>
  <time>2026-08-27T18:27:24Z</time>
  <course>314.73</course>
  <speed>0.0</speed>
  <fix>3d</fix>
</trkpt>
<trkpt lat="40.0728419" lon="-105.230575">
  <ele>1586.17</ele>
  <time>2026-08-27T18:27:24Z</time>
  <course>17.59</course>
  <speed>0.01414213562373095</speed>
  <fix>3d</fix>
</trkpt>
<trkpt lat="40.072842" lon="-105.230575">
  <ele>1586.09</ele>
  <time>2026-08-27T18:27:24Z</time>
  <course>276.05</course>
  <speed>0.0</speed>
  <fix>3d</fix>
</trkpt>
<trkpt lat="40.0728419" lon="-105.230575">
  <ele>1586.17</ele>
  <time>2026-08-27T18:27:24Z</time>
  <course>17.55</course>
  <speed>0.022360679774997897</speed>
  <fix>3d</fix>
</trkpt>
<trkpt lat="40.072842" lon="-105.230575">
  <ele>1586.09</ele>
  <time>2026-08-27T18:27:24Z</time>
  <course>270.38</course>
  <speed>0.0</speed>
  <fix>3d</fix>
</trkpt>
<trkpt lat="40.0728419" lon="-105.230575">
  <ele>1586.17</ele>
  <time>2026-08-27T18:27:24Z</time>
  <course>17.51</course>
  <speed>0.022360679774997897</speed>
  <fix>3d</fix>
</trkpt>
<trkpt lat="40.072842" lon="-105.230575">
  <ele>1586.09</ele>
  <time>2026-08-27T18:27:24Z</time>
  <course>278.78</course>
  <speed>0.0</speed>
  <fix>3d</fix>
</trkpt>
<trkpt lat="40.0728419" lon="-105.230575">
  <ele>1586.17</ele>
  <time>2026-08-27T18:27:24Z</time>
  <course>17.46</course>
  <speed>0.022360679774997897</speed>
  <fix>3d</fix>
</trkpt>
<trkpt lat="40.072842" lon="-105.230575">
  <ele>1586.09</ele>
  <time>2026-08-27T18:27:24Z</time>
  <course>276.3</course>
  <speed>0.0</speed>
  <fix>3d</fix>
</trkpt>
<trkpt lat="40.0728419" lon="-105.230575">
  <ele>1586.17</ele>
  <time>2026-08-27T18:27:24Z</time>
  <course>17.42</course>
  <speed>0.022360679774997897</speed>
  <fix>3d</fix>
</trkpt>
<trkpt lat="40.072842" lon="-105.230575">
  <ele>1586.09</ele>
  <time>2026-08-27T18:27:24Z</time>
  <course>314.13</course>
  <speed>0.0</speed>
  <fix>3d</fix>
</trkpt>
<trkpt lat="40.0728419" lon="-105.230575">
  <ele>1586.17</ele>
  <time>2026-08-27T18:27:24Z</time>
  <course>17.37</course>
  <speed>0.022360679774997897</speed>
  <fix>3d</fix>
</trkpt>
<trkpt lat="40.072842" lon="-105.230575">
  <ele>1586.09</ele>
  <time>2026-08-27T18:27:24Z</time>
  <course>308.98</course>
  <speed>0.0</speed>
  <fix>3d</fix>
</trkpt>
<trkpt lat="40.0728419" lon="-105.230575">
  <ele>1586.17</ele>
  <time>2026-08-27T18:27:24Z</time>
  <course>17.32</course>
  <speed>0.022360679774997897</speed>
  <fix>3d</fix>
</trkpt>
<trkpt lat="40.072842" lon="-105.230575">
  <ele>1586.09</ele>
  <time>2026-08-27T18:27:24Z</time>
  <course>265.47</course>
  <speed>0.0</speed>
  <fix>3d</fix>
</trkpt>
<trkpt lat="40.0728419" lon="-105.230575">
  <ele>1586.18</ele>
  <time>2026-08-27T18:27:24Z</time>
  <course>17.27</course>
  <speed>0.022360679774997897</speed>
  <fix>3d</fix>
</trkpt>
<trkpt lat="40.072842" lon="-105.230575">
  <ele>1586.09</ele>
  <time>2026-08-27T18:27:24Z</time>
  <course>272.74</course>
  <speed>0.0</speed>
  <fix>3d</fix>
</trkpt>
<trkpt lat="40.0728419" lon="-105.230575">
  <ele>1586.18</ele>
  <time>2026-08-27T18:27:24Z</time>
  <course>17.21</course>
  <speed>0.022360679774997897</speed>
  <fix>3d</fix>
</trkpt>
<trkpt lat="40.072842" lon="-105.230575">
  <ele>1586.09</ele>
  <time>2026-08-27T18:27:24Z</time>
  <course>271.47</course>
  <speed>0.0</speed>
  <fix>3d</fix>
</trkpt>
<trkpt lat="40.0728419" lon="-105.2305749">
  <ele>1586.18</ele>
  <time>2026-08-27T18:27:24Z</time>
  <course>17.16</course>
  <speed>0.022360679774997897</speed>
  <fix>3d</fix>
</trkpt>
<trkpt lat="40.072842" lon="-105.230575">
  <ele>1586.09</ele>
  <time>2026-08-27T18:27:24Z</time>
  <course>300.16</course>
  <speed>0.0</speed>
  <fix>3d</fix>
</trkpt>
<trkpt lat="40.0728419" lon="-105.2305749">
  <ele>1586.18</ele>
  <time>2026-08-27T18:27:24Z</time>
  <course>17.1</course>
  <speed>0.022360679774997897</speed>
  <fix>3d</fix>
</trkpt>
<trkpt lat="40.072842" lon="-105.230575">
  <ele>1586.09</ele>
  <time>2026-08-27T18:27:24Z</time>
  <course>314.43</course>
  <speed>0.0</speed>
  <fix>3d</fix>
</trkpt>
<trkpt lat="40.0728419" lon="-105.2305749">
  <ele>1586.18</ele>
  <time>2026-08-27T18:27:24Z</time>
  <course>17.05</course>
  <speed>0.022360679774997897</speed>
  <fix>3d</fix>
</trkpt>
<trkpt lat="40.072842" lon="-105.230575">
  <ele>1586.09</ele>
  <time>2026-08-27T18:27:24Z</time>
  <course>299.01</course>
  <speed>0.0</speed>
  <fix>3d</fix>
</trkpt>
<trkpt lat="40.0728419" lon="-105.2305749">
  <ele>1586.18</ele>
  <time>2026-08-27T18:27:24Z</time>
  <course>16.99</course>
  <speed>0.022360679774997897</speed>
  <fix>3d</fix>
</trkpt>
<trkpt lat="40.072842" lon="-105.230575">
  <ele>1586.09</ele>
  <time>2026-08-27T18:27:24Z</time>
  <course>273.24</course>
  <speed>0.0</speed>
  <fix>3d</fix>
</trkpt>
<trkpt lat="40.0728419" lon="-105.2305749">
  <ele>1586.18</ele>
  <time>2026-08-27T18:27:24Z</time>
  <course>16.92</course>
  <speed>0.022360679774997897</speed>
  <fix>3d</fix>
</trkpt>
<trkpt lat="40.072842" lon="-105.230575">
  <ele>1586.09</ele>
  <time>2026-08-27T18:27:24Z</time>
  <course>274.33</course>
  <speed>0.0</speed>
  <fix>3d</fix>
</trkpt>
<trkpt lat="40.0728419" lon="-105.2305749">
  <ele>1586.18</ele>
  <time>2026-08-27T18:27:24Z</time>
  <course>16.86</course>
  <speed>0.022360679774997897</speed>
  <fix>3d</fix>
</trkpt>
<trkpt lat="40.072842" lon="-105.230575">
  <ele>1586.09</ele>
  <time>2026-08-27T18:27:24Z</time>
  <course>275.94</course>
  <speed>0.0</speed>
  <fix>3d</fix>
</trkpt>
<trkpt lat="40.0728419" lon="-105.2305749">
  <ele>1586.18</ele>
  <time>2026-08-27T18:27:24Z</time>
  <course>16.8</course>
  <speed>0.022360679774997897</speed>
  <fix>3d</fix>
</trkpt>
<trkpt lat="40.072842" lon="-105.230575">
  <ele>1586.09</ele>
  <time>2026-08-27T18:27:24Z</time>
  <course>287.02</course>
  <speed>0.0</speed>
  <fix>3d</fix>
</trkpt>
<trkpt lat="40.0728419" lon="-105.2305749">
  <ele>1586.17</ele>
  <time>2026-08-27T18:27:24Z</time>
  <course>16.73</course>
  <speed>0.022360679774997897</speed>
  <fix>3d</fix>
</trkpt>
<trkpt lat="40.072842" lon="-105.230575">
  <ele>1586.09</ele>
  <time>2026-08-27T18:27:24Z</time>
  <course>315.78</course>
  <speed>0.0</speed>
  <fix>3d</fix>
</trkpt>
<trkpt lat="40.0728419" lon="-105.2305749">
  <ele>1586.17</ele>
  <time>2026-08-27T18:27:24Z</time>
  <course>16.67</course>
  <speed>0.022360679774997897</speed>
  <fix>3d</fix>
</trkpt>
<trkpt lat="40.072842" lon="-105.230575">
  <ele>1586.09</ele>
  <time>2026-08-27T18:27:24Z</time>
  <course>311.18</course>
  <speed>0.0</speed>
  <fix>3d</fix>
</trkpt>
<trkpt lat="40.0728419" lon="-105.2305749">
  <ele>1586.17</ele>
  <time>2026-08-27T18:27:24Z</time>
  <course>16.6</course>
  <speed>0.022360679774997897</speed>
  <fix>3d</fix>
</trkpt>
<trkpt lat="40.072842" lon="-105.230575">
  <ele>1586.09</ele>
  <time>2026-08-27T18:27:24Z</time>
  <course>274.28</course>
  <speed>0.0</speed>
  <fix>3d</fix>
</trkpt>
<trkpt lat="40.0728419" lon="-105.2305749">
  <ele>1586.17</ele>
  <time>2026-08-27T18:27:24Z</time>
  <course>16.54</course>
  <speed>0.022360679774997897</speed>
  <fix>3d</fix>
</trkpt>
<trkpt lat="40.072842" lon="-105.230575">
  <ele>1586.09</ele>
  <time>2026-08-27T18:27:24Z</time>
  <course>269.36</course>
  <speed>0.0</speed>
  <fix>3d</fix>
</trkpt>
<trkpt lat="40.0728419" lon="-105.2305749">
  <ele>1586.17</ele>
  <time>2026-08-27T18:27:24Z</time>
  <course>16.48</course>
  <speed>0.022360679774997897</speed>
  <fix>3d</fix>
</trkpt>
<trkpt lat="40.072842" lon="-105.230575">
  <ele>1586.09</ele>
  <time>2026-08-27T18:27:24Z</time>
  <course>278.85</course>
  <speed>0.0</speed>
  <fix>3d</fix>
</trkpt>
<trkpt lat="40.0728419" lon="-105.2305749">
  <ele>1586.17</ele>
  <time>2026-08-27T18:27:24Z</time>
  <course>16.41</course>
  <speed>0.022360679774997897</speed>
  <fix>3d</fix>
</trkpt>
<trkpt lat="40.072842" lon="-105.230575">
  <ele>1586.09</ele>
  <time>2026-08-27T18:27:24Z</time>
  <course>285.56</course>
  <speed>0.0</speed>
  <fix>3d</fix>
</trkpt>
<trkpt lat="40.0728419" lon="-105.2305749">
  <ele>1586.17</ele>
  <time>2026-08-27T18:27:24Z</time>
  <course>16.35</course>
  <speed>0.022360679774997897</speed>
  <fix>3d</fix>
</trkpt>
<trkpt lat="40.072842" lon="-105.230575">
  <ele>1586.09</ele>
  <time>2026-08-27T18:27:24Z</time>
  <course>281.19</course>
  <speed>0.0</speed>
  <fix>3d</fix>
</trkpt>
<trkpt lat="40.0728419" lon="-105.2305749">
  <ele>1586.18</ele>
  <time>2026-08-27T18:27:24Z</time>
  <course>16.29</course>
  <speed>0.022360679774997897</speed>
  <fix>3d</fix>
</trkpt>
<trkpt lat="40.072842" lon="-105.230575">
  <ele>1586.09</ele>
  <time>2026-08-27T18:27:24Z</time>
  <course>305.95</course>
  <speed>0.0</speed>
  <fix>3d</fix>
</trkpt>
<trkpt lat="40.0728419" lon="-105.2305749">
  <ele>1586.18</ele>
  <time>2026-08-27T18:27:24Z</time>
  <course>16.23</course>
  <speed>0.022360679774997897</speed>
  <fix>3d</fix>
</trkpt>
<trkpt lat="40.072842" lon="-105.230575">
  <ele>1586.09</ele>
  <time>2026-08-27T18:27:24Z</time>
  <course>304.31</course>
  <speed>0.0</speed>
  <fix>3d</fix>
</trkpt>
<trkpt lat="40.0728419" lon="-105.2305749">
  <ele>1586.18</ele>
  <time>2026-08-27T18:27:24Z</time>
  <course>16.17</course>
  <speed>0.022360679774997897</speed>
  <fix>3d</fix>
</trkpt>
<trkpt lat="40.072842" lon="-105.230575">
  <ele>1586.09</ele>
  <time>2026-08-27T18:27:24Z</time>
  <course>280.17</course>
  <speed>0.0</speed>
  <fix>3d</fix>
</trkpt>
<trkpt lat="40.0728419" lon="-105.2305749">
  <ele>1586.18</ele>
  <time>2026-08-27T18:27:24Z</time>
  <course>16.1</course>
  <speed>0.022360679774997897</speed>
  <fix>3d</fix>
</trkpt>
<trkpt lat="40.072842" lon="-105.230575">
  <ele>1586.09</ele>
  <time>2026-08-27T18:27:24Z</time>
  <course>265.83</course>
  <speed>0.0</speed>
  <fix>3d</fix>
</trkpt>
<trkpt lat="40.0728419" lon="-105.2305749">
  <ele>1586.18</ele>
  <time>2026-08-27T18:27:24Z</time>
  <course>16.04</course>
  <speed>0.022360679774997897</speed>
  <fix>3d</fix>
</trkpt>
<trkpt lat="40.072842" lon="-105.230575">
  <ele>1586.09</ele>
  <time>2026-08-27T18:27:24Z</time>
  <course>280.49</course>
  <speed>0.0</speed>
  <fix>3d</fix>
</trkpt>
<trkpt lat="40.0728419" lon="-105.2305749">
  <ele>1586.17</ele>
  <time>2026-08-27T18:27:24Z</time>
  <course>15.98</course>
  <speed>0.022360679774997897</speed>
  <fix>3d</fix>
</trkpt>
<trkpt lat="40.072842" lon="-105.230575">
  <ele>1586.09</ele>
  <time>2026-08-27T18:27:24Z</time>
  <course>281.0</course>
  <speed>0.0</speed>
  <fix>3d</fix>
</trkpt>
<trkpt lat="40.0728419" lon="-105.2305749">
  <ele>1586.17</ele>
  <time>2026-08-27T18:27:24Z</time>
  <course>15.91</course>
  <speed>0.022360679774997897</speed>
  <fix>3d</fix>
</trkpt>
<trkpt lat="40.072842" lon="-105.230575">
  <ele>1586.09</ele>
  <time>2026-08-27T18:27:24Z</time>
  <course>278.57</course>
  <speed>0.0</speed>
  <fix>3d</fix>
</trkpt>
<trkpt lat="40.0728419" lon="-105.2305749">
  <ele>1586.17</ele>
  <time>2026-08-27T18:27:24Z</time>
  <course>15.85</course>
  <speed>0.022360679774997897</speed>
  <fix>3d</fix>
</trkpt>
<trkpt lat="40.072842" lon="-105.230575">
  <ele>1586.09</ele>
  <time>2026-08-27T18:27:24Z</time>
  <course>278.47</course>
  <speed>0.0</speed>
  <fix>3d</fix>
</trkpt>
<trkpt lat="40.0728419" lon="-105.2305749">
  <ele>1586.17</ele>
  <time>2026-08-27T18:27:24Z</time>
  <course>15.79</course>
  <speed>0.022360679774997897</speed>
  <fix>3d</fix>
</trkpt>
<trkpt lat="40.072842" lon="-105.230575">
  <ele>1586.09</ele>
  <time>2026-08-27T18:27:24Z</time>
  <course>283.49</course>
  <speed>0.0</speed>
  <fix>3d</fix>
</trkpt>
<trkpt lat="40.0728419" lon="-105.2305749">
  <ele>1586.17</ele>
  <time>2026-08-27T18:27:24Z</time>
  <course>15.73</course>
  <speed>0.022360679774997897</speed>
  <fix>3d</fix>
</trkpt>
<trkpt lat="40.072842" lon="-105.230575">
  <ele>1586.09</ele>
  <time>2026-08-27T18:27:24Z</time>
  <course>287.6</course>
  <speed>0.0</speed>
  <fix>3d</fix>
</trkpt>
<trkpt lat="40.0728419" lon="-105.2305749">
  <ele>1586.17</ele>
  <time>2026-08-27T18:27:24Z</time>
  <course>15.67</course>
  <speed>0.022360679774997897</speed>
  <fix>3d</fix>
</trkpt>
<trkpt lat="40.072842" lon="-105.230575">
  <ele>1586.09</ele>
  <time>2026-08-27T18:27:24Z</time>
  <course>275.98</course>
  <speed>0.0</speed>
  <fix>3d</fix>
</trkpt>
<trkpt lat="40.0728419" lon="-105.2305749">
  <ele>1586.17</ele>
  <time>2026-08-27T18:27:24Z</time>
  <course>15.61</course>
  <speed>0.022360679774997897</speed>
  <fix>3d</fix>
</trkpt>
<trkpt lat="40.072842" lon="-105.230575">
  <ele>1586.09</ele>
  <time>2026-08-27T18:27:24Z</time>
  <course>251.05</course>
  <speed>0.0</speed>
  <fix>3d</fix>
</trkpt>
<trkpt lat="40.0728419" lon="-105.2305749">
  <ele>1586.17</ele>
  <time>2026-08-27T18:27:24Z</time>
  <course>15.55</course>
  <speed>0.022360679774997897</speed>
  <fix>3d</fix>
</trkpt>
<trkpt lat="40.072842" lon="-105.230575">
  <ele>1586.09</ele>
  <time>2026-08-27T18:27:24Z</time>
  <course>265.02</course>
  <speed>0.0</speed>
  <fix>3d</fix>
</trkpt>
<trkpt lat="40.0728419" lon="-105.2305749">
  <ele>1586.17</ele>
  <time>2026-08-27T18:27:24Z</time>
  <course>15.49</course>
  <speed>0.022360679774997897</speed>
  <fix>3d</fix>
</trkpt>
<trkpt lat="40.072842" lon="-105.230575">
  <ele>1586.09</ele>
  <time>2026-08-27T18:27:24Z</time>
  <course>282.85</course>
  <speed>0.0</speed>
  <fix>3d</fix>
</trkpt>
<trkpt lat="40.0728419" lon="-105.2305749">
  <ele>1586.17</ele>
  <time>2026-08-27T18:27:24Z</time>
  <course>15.43</course>
  <speed>0.022360679774997897</speed>
  <fix>3d</fix>
</trkpt>
<trkpt lat="40.072842" lon="-105.230575">
  <ele>1586.09</ele>
  <time>2026-08-27T18:27:24Z</time>
  <course>277.67</course>
  <speed>0.0</speed>
  <fix>3d</fix>
</trkpt>
<trkpt lat="40.0728419" lon="-105.2305749">
  <ele>1586.17</ele>
  <time>2026-08-27T18:27:24Z</time>
  <course>15.37</course>
  <speed>0.022360679774997897</speed>
  <fix>3d</fix>
</trkpt>
<trkpt lat="40.072842" lon="-105.230575">
  <ele>1586.09</ele>
  <time>2026-08-27T18:27:24Z</time>
  <course>275.99</course>
  <speed>0.0</speed>
  <fix>3d</fix>
</trkpt>
<trkpt lat="40.0728419" lon="-105.2305749">
  <ele>1586.17</ele>
  <time>2026-08-27T18:27:24Z</time>
  <course>15.31</course>
  <speed>0.022360679774997897</speed>
  <fix>3d</fix>
</trkpt>
<trkpt lat="40.072842" lon="-105.230575">
  <ele>1586.09</ele>
  <time>2026-08-27T18:27:24Z</time>
  <course>276.59</course>
  <speed>0.0</speed>
  <fix>3d</fix>
</trkpt>
<trkpt lat="40.0728419" lon="-105.2305749">
  <ele>1586.17</ele>
  <time>2026-08-27T18:27:24Z</time>
  <course>15.25</course>
  <speed>0.022360679774997897</speed>
  <fix>3d</fix>
</trkpt>
<trkpt lat="40.072842" lon="-105.230575">
  <ele>1586.09</ele>
  <time>2026-08-27T18:27:24Z</time>
  <course>275.98</course>
  <speed>0.0</speed>
  <fix>3d</fix>
</trkpt>
<trkpt lat="40.0728419" lon="-105.2305749">
  <ele>1586.18</ele>
  <time>2026-08-27T18:27:24Z</time>
  <course>15.2</course>
  <speed>0.022360679774997897</speed>
  <fix>3d</fix>
</trkpt>
<trkpt lat="40.072842" lon="-105.230575">
  <ele>1586.09</ele>
  <time>2026-08-27T18:27:24Z</time>
  <course>284.81</course>
  <speed>0.0</speed>
  <fix>3d</fix>
</trkpt>
<trkpt lat="40.0728419" lon="-105.2305749">
  <ele>1586.18</ele>
  <time>2026-08-27T18:27:24Z</time>
  <course>15.14</course>
  <speed>0.022360679774997897</speed>
  <fix>3d</fix>
</trkpt>
<trkpt lat="40.072842" lon="-105.230575">
  <ele>1586.09</ele>
  <time>2026-08-27T18:27:24Z</time>
  <course>286.56</course>
  <speed>0.0</speed>
  <fix>3d</fix>
</trkpt>
<trkpt lat="40.0728419" lon="-105.2305749">
  <ele>1586.18</ele>
  <time>2026-08-27T18:27:24Z</time>
  <course>15.08</course>
  <speed>0.022360679774997897</speed>
  <fix>3d</fix>
</trkpt>
<trkpt lat="40.072842" lon="-105.230575">
  <ele>1586.09</ele>
  <time>2026-08-27T18:27:24Z</time>
  <course>273.72</course>
  <speed>0.0</speed>
  <fix>3d</fix>
</trkpt>
<trkpt lat="40.0728419" lon="-105.2305749">
  <ele>1586.18</ele>
  <time>2026-08-27T18:27:24Z</time>
  <course>15.02</course>
  <speed>0.022360679774997897</speed>
  <fix>3d</fix>
</trkpt>
<trkpt lat="40.072842" lon="-105.230575">
  <ele>1586.09</ele>
  <time>2026-08-27T18:27:24Z</time>
  <course>274.97</course>
  <speed>0.0</speed>
  <fix>3d</fix>
</trkpt>
<trkpt lat="40.0728419" lon="-105.2305749">
  <ele>1586.18</ele>
  <time>2026-08-27T18:27:24Z</time>
  <course>14.97</course>
  <speed>0.022360679774997897</speed>
  <fix>3d</fix>
</trkpt>
<trkpt lat="40.072842" lon="-105.230575">
  <ele>1586.09</ele>
  <time>2026-08-27T18:27:24Z</time>
  <course>276.48</course>
  <speed>0.0</speed>
  <fix>3d</fix>
</trkpt>
<trkpt lat="40.0728419" lon="-105.2305749">
  <ele>1586.18</ele>
  <time>2026-08-27T18:27:24Z</time>
  <course>14.92</course>
  <speed>0.022360679774997897</speed>
  <fix>3d</fix>
</trkpt>
<trkpt lat="40.072842" lon="-105.230575">
  <ele>1586.09</ele>
  <time>2026-08-27T18:27:24Z</time>
  <course>276.02</course>
  <speed>0.0</speed>
  <fix>3d</fix>
</trkpt>
<trkpt lat="40.0728419" lon="-105.2305749">
  <ele>1586.18</ele>
  <time>2026-08-27T18:27:24Z</time>
  <course>14.86</course>
  <speed>0.022360679774997897</speed>
  <fix>3d</fix>
</trkpt>
<trkpt lat="40.072842" lon="-105.230575">
  <ele>1586.09</ele>
  <time>2026-08-27T18:27:24Z</time>
  <course>275.69</course>
  <speed>0.0</speed>
  <fix>3d</fix>
</trkpt>
<trkpt lat="40.0728419" lon="-105.2305749">
  <ele>1586.18</ele>
  <time>2026-08-27T18:27:24Z</time>
  <course>14.81</course>
  <speed>0.022360679774997897</speed>
  <fix>3d</fix>
</trkpt>
<trkpt lat="40.072842" lon="-105.230575">
  <ele>1586.09</ele>
  <time>2026-08-27T18:27:24Z</time>
  <course>275.61</course>
  <speed>0.0</speed>
  <fix>3d</fix>
</trkpt>
<trkpt lat="40.0728419" lon="-105.2305749">
  <ele>1586.18</ele>
  <time>2026-08-27T18:27:24Z</time>
  <course>14.75</course>
  <speed>0.022360679774997897</speed>
  <fix>3d</fix>
</trkpt>
<trkpt lat="40.072842" lon="-105.230575">
  <ele>1586.09</ele>
  <time>2026-08-27T18:27:24Z</time>
  <course>274.28</course>
  <speed>0.0</speed>
  <fix>3d</fix>
</trkpt>
<trkpt lat="40.0728419" lon="-105.2305749">
  <ele>1586.17</ele>
  <time>2026-08-27T18:27:24Z</time>
  <course>14.7</course>
  <speed>0.022360679774997897</speed>
  <fix>3d</fix>
</trkpt>
<trkpt lat="40.072842" lon="-105.230575">
  <ele>1586.09</ele>
  <time>2026-08-27T18:27:24Z</time>
  <course>272.76</course>
  <speed>0.0</speed>
  <fix>3d</fix>
</trkpt>
<trkpt lat="40.0728419" lon="-105.2305749">
  <ele>1586.17</ele>
  <time>2026-08-27T18:27:24Z</time>
  <course>14.64</course>
  <speed>0.022360679774997897</speed>
  <fix>3d</fix>
</trkpt>
<trkpt lat="40.072842" lon="-105.230575">
  <ele>1586.09</ele>
  <time>2026-08-27T18:27:24Z</time>
  <course>285.86</course>
  <speed>0.0</speed>
  <fix>3d</fix>
</trkpt>
<trkpt lat="40.0728419" lon="-105.2305749">
  <ele>1586.17</ele>
  <time>2026-08-27T18:27:24Z</time>
  <course>14.59</course>
  <speed>0.022360679774997897</speed>
  <fix>3d</fix>
</trkpt>
<trkpt lat="40.072842" lon="-105.230575">
  <ele>1586.09</ele>
  <time>2026-08-27T18:27:24Z</time>
  <course>286.12</course>
  <speed>0.0</speed>
  <fix>3d</fix>
</trkpt>
<trkpt lat="40.0728419" lon="-105.2305749">
  <ele>1586.17</ele>
  <time>2026-08-27T18:27:24Z</time>
  <course>14.54</course>
  <speed>0.022360679774997897</speed>
  <fix>3d</fix>
</trkpt>
<trkpt lat="40.072842" lon="-105.230575">
  <ele>1586.09</ele>
  <time>2026-08-27T18:27:24Z</time>
  <course>273.2</course>
  <speed>0.0</speed>
  <fix>3d</fix>
</trkpt>
<trkpt lat="40.0728419" lon="-105.2305749">
  <ele>1586.17</ele>
  <time>2026-08-27T18:27:24Z</time>
  <course>14.49</course>
  <speed>0.022360679774997897</speed>
  <fix>3d</fix>
</trkpt>
<trkpt lat="40.072842" lon="-105.230575">
  <ele>1586.09</ele>
  <time>2026-08-27T18:27:24Z</time>
  <course>273.84</course>
  <speed>0.0</speed>
  <fix>3d</fix>
</trkpt>
<trkpt lat="40.0728419" lon="-105.2305749">
  <ele>1586.17</ele>
  <time>2026-08-27T18:27:24Z</time>
  <course>14.44</course>
  <speed>0.022360679774997897</speed>
  <fix>3d</fix>
</trkpt>
<trkpt lat="40.072842" lon="-105.230575">
  <ele>1586.09</ele>
  <time>2026-08-27T18:27:24Z</time>
  <course>275.5</course>
  <speed>0.0</speed>
  <fix>3d</fix>
</trkpt>
<trkpt lat="40.0728419" lon="-105.2305749">
  <ele>1586.16</ele>
  <time>2026-08-27T18:27:24Z</time>
  <course>14.39</course>
  <speed>0.022360679774997897</speed>
  <fix>3d</fix>
</trkpt>
<trkpt lat="40.072842" lon="-105.230575">
  <ele>1586.09</ele>
  <time>2026-08-27T18:27:24Z</time>
  <course>275.09</course>
  <speed>0.0</speed>
  <fix>3d</fix>
</trkpt>
<trkpt lat="40.0728419" lon="-105.2305749">
  <ele>1586.16</ele>
  <time>2026-08-27T18:27:24Z</time>
  <course>14.34</course>
  <speed>0.022360679774997897</speed>
  <fix>3d</fix>
</trkpt>
<trkpt lat="40.072842" lon="-105.230575">
  <ele>1586.09</ele>
  <time>2026-08-27T18:27:24Z</time>
  <course>274.8</course>
  <speed>0.0</speed>
  <fix>3d</fix>
</trkpt>
<trkpt lat="40.0728419" lon="-105.2305749">
  <ele>1586.16</ele>
  <time>2026-08-27T18:27:24Z</time>
  <course>14.29</course>
  <speed>0.022360679774997897</speed>
  <fix>3d</fix>
</trkpt>
<trkpt lat="40.072842" lon="-105.2305751">
  <ele>1586.09</ele>
  <time>2026-08-27T18:27:24Z</time>
  <course>277.17</course>
  <speed>0.0</speed>
  <fix>3d</fix>
</trkpt>
<trkpt lat="40.0728419" lon="-105.230575">
  <ele>1586.16</ele>
  <time>2026-08-27T18:27:24Z</time>
  <course>14.24</course>
  <speed>0.022360679774997897</speed>
  <fix>3d</fix>
</trkpt>
<trkpt lat="40.072842" lon="-105.2305751">
  <ele>1586.09</ele>
  <time>2026-08-27T18:27:24Z</time>
  <course>274.7</course>
  <speed>0.0</speed>
  <fix>3d</fix>
</trkpt>
<trkpt lat="40.0728419" lon="-105.230575">
  <ele>1586.17</ele>
  <time>2026-08-27T18:27:24Z</time>
  <course>14.2</course>
  <speed>0.022360679774997897</speed>
  <fix>3d</fix>
</trkpt>
<trkpt lat="40.072842" lon="-105.2305751">
  <ele>1586.09</ele>
  <time>2026-08-27T18:27:24Z</time>
  <course>272.02</course>
  <speed>0.0</speed>
  <fix>3d</fix>
</trkpt>
<trkpt lat="40.0728419" lon="-105.230575">
  <ele>1586.17</ele>
  <time>2026-08-27T18:27:24Z</time>
  <course>14.15</course>
  <speed>0.022360679774997897</speed>
  <fix>3d</fix>
</trkpt>
<trkpt lat="40.072842" lon="-105.2305751">
  <ele>1586.09</ele>
  <time>2026-08-27T18:27:24Z</time>
  <course>278.44</course>
  <speed>0.0</speed>
  <fix>3d</fix>
</trkpt>
<trkpt lat="40.0728419" lon="-105.230575">
  <ele>1586.17</ele>
  <time>2026-08-27T18:27:24Z</time>
  <course>14.1</course>
  <speed>0.022360679774997897</speed>
  <fix>3d</fix>
</trkpt>
<trkpt lat="40.072842" lon="-105.2305751">
  <ele>1586.09</ele>
  <time>2026-08-27T18:27:24Z</time>
  <course>282.71</course>
  <speed>0.0</speed>
  <fix>3d</fix>
</trkpt>
<trkpt lat="40.0728419" lon="-105.230575">
  <ele>1586.17</ele>
  <time>2026-08-27T18:27:24Z</time>
  <course>14.06</course>
  <speed>0.022360679774997897</speed>
  <fix>3d</fix>
</trkpt>
<trkpt lat="40.072842" lon="-105.2305751">
  <ele>1586.09</ele>
  <time>2026-08-27T18:27:24Z</time>
  <course>277.7</course>
  <speed>0.0</speed>
  <fix>3d</fix>
</trkpt>
<trkpt lat="40.0728419" lon="-105.230575">
  <ele>1586.16</ele>
  <time>2026-08-27T18:27:24Z</time>
  <course>14.02</course>
  <speed>0.022360679774997897</speed>
  <fix>3d</fix>
</trkpt>
<trkpt lat="40.072842" lon="-105.2305751">
  <ele>1586.09</ele>
  <time>2026-08-27T18:27:24Z</time>
  <course>272.28</course>
  <speed>0.0</speed>
  <fix>3d</fix>
</trkpt>
<trkpt lat="40.0728419" lon="-105.230575">
  <ele>1586.16</ele>
  <time>2026-08-27T18:27:24Z</time>
  <course>13.97</course>
  <speed>0.022360679774997897</speed>
  <fix>3d</fix>
</trkpt>
<trkpt lat="40.072842" lon="-105.2305751">
  <ele>1586.09</ele>
  <time>2026-08-27T18:27:24Z</time>
  <course>274.27</course>
  <speed>0.0</speed>
  <fix>3d</fix>
</trkpt>
<trkpt lat="40.0728419" lon="-105.230575">
  <ele>1586.16</ele>
  <time>2026-08-27T18:27:24Z</time>
  <course>13.94</course>
  <speed>0.022360679774997897</speed>
  <fix>3d</fix>
</trkpt>
<trkpt lat="40.072842" lon="-105.2305751">
  <ele>1586.09</ele>
  <time>2026-08-27T18:27:24Z</time>
  <course>274.66</course>
  <speed>0.0</speed>
  <fix>3d</fix>
</trkpt>
<trkpt lat="40.0728419" lon="-105.230575">
  <ele>1586.17</ele>
  <time>2026-08-27T18:27:24Z</time>
  <course>13.9</course>
  <speed>0.02</speed>
  <fix>3d</fix>
</trkpt>
<trkpt lat="40.072842" lon="-105.2305751">
  <ele>1586.09</ele>
  <time>2026-08-27T18:27:24Z</time>
  <course>274.29</course>
  <speed>0.0</speed>
  <fix>3d</fix>
</trkpt>
<trkpt lat="40.0728419" lon="-105.230575">
  <ele>1586.17</ele>
  <time>2026-08-27T18:27:24Z</time>
  <course>13.86</course>
  <speed>0.02</speed>
  <fix>3d</fix>
</trkpt>
<trkpt lat="40.072842" lon="-105.2305751">
  <ele>1586.09</ele>
  <time>2026-08-27T18:27:24Z</time>
  <course>274.33</course>
  <speed>0.0</speed>
  <fix>3d</fix>
</trkpt>
<trkpt lat="40.0728419" lon="-105.230575">
  <ele>1586.17</ele>
  <time>2026-08-27T18:27:24Z</time>
  <course>13.82</course>
  <speed>0.02</speed>
  <fix>3d</fix>
</trkpt>
<trkpt lat="40.072842" lon="-105.2305751">
  <ele>1586.09</ele>
  <time>2026-08-27T18:27:24Z</time>
  <course>272.94</course>
  <speed>0.0</speed>
  <fix>3d</fix>
</trkpt>
<trkpt lat="40.0728419" lon="-105.230575">
  <ele>1586.17</ele>
  <time>2026-08-27T18:27:24Z</time>
  <course>13.78</course>
  <speed>0.022360679774997897</speed>
  <fix>3d</fix>
</trkpt>
<trkpt lat="40.072842" lon="-105.2305751">
  <ele>1586.09</ele>
  <time>2026-08-27T18:27:24Z</time>
  <course>272.0</course>
  <speed>0.0</speed>
  <fix>3d</fix>
</trkpt>
<trkpt lat="40.0728419" lon="-105.230575">
  <ele>1586.17</ele>
  <time>2026-08-27T18:27:24Z</time>
  <course>13.74</course>
  <speed>0.022360679774997897</speed>
  <fix>3d</fix>
</trkpt>
<trkpt lat="40.072842" lon="-105.2305751">
  <ele>1586.09</ele>
  <time>2026-08-27T18:27:24Z</time>
  <course>273.48</course>
  <speed>0.0</speed>
  <fix>3d</fix>
</trkpt>
<trkpt lat="40.0728419" lon="-105.230575">
  <ele>1586.16</ele>
  <time>2026-08-27T18:27:24Z</time>
  <course>13.7</course>
  <speed>0.022360679774997897</speed>
  <fix>3d</fix>
</trkpt>
<trkpt lat="40.072842" lon="-105.2305751">
  <ele>1586.09</ele>
  <time>2026-08-27T18:27:24Z</time>
  <course>274.35</course>
  <speed>0.0</speed>
  <fix>3d</fix>
</trkpt>
<trkpt lat="40.0728419" lon="-105.230575">
  <ele>1586.16</ele>
  <time>2026-08-27T18:27:24Z</time>
  <course>13.67</course>
  <speed>0.01414213562373095</speed>
  <fix>3d</fix>
</trkpt>
<trkpt lat="40.072842" lon="-105.2305751">
  <ele>1586.09</ele>
  <time>2026-08-27T18:27:24Z</time>
  <course>281.36</course>
  <speed>0.0</speed>
  <fix>3d</fix>
</trkpt>
<trkpt lat="40.0728419" lon="-105.230575">
  <ele>1586.16</ele>
  <time>2026-08-27T18:27:24Z</time>
  <course>13.63</course>
  <speed>0.022360679774997897</speed>
  <fix>3d</fix>
</trkpt>
<trkpt lat="40.072842" lon="-105.2305751">
  <ele>1586.09</ele>
  <time>2026-08-27T18:27:24Z</time>
  <course>282.14</course>
  <speed>0.0</speed>
  <fix>3d</fix>
</trkpt>
<trkpt lat="40.0728419" lon="-105.230575">
  <ele>1586.17</ele>
  <time>2026-08-27T18:27:24Z</time>
  <course>13.6</course>
  <speed>0.022360679774997897</speed>
  <fix>3d</fix>
</trkpt>
<trkpt lat="40.072842" lon="-105.2305751">
  <ele>1586.09</ele>
  <time>2026-08-27T18:27:24Z</time>
  <course>274.07</course>
  <speed>0.0</speed>
  <fix>3d</fix>
</trkpt>
<trkpt lat="40.0728419" lon="-105.230575">
  <ele>1586.17</ele>
  <time>2026-08-27T18:27:24Z</time>
  <course>13.57</course>
  <speed>0.022360679774997897</speed>
  <fix>3d</fix>
</trkpt>
<trkpt lat="40.072842" lon="-105.2305751">
  <ele>1586.09</ele>
  <time>2026-08-27T18:27:24Z</time>
  <course>272.58</course>
  <speed>0.0</speed>
  <fix>3d</fix>
</trkpt>
<trkpt lat="40.0728419" lon="-105.230575">
  <ele>1586.17</ele>
  <time>2026-08-27T18:27:24Z</time>
  <course>13.54</course>
  <speed>0.022360679774997897</speed>
  <fix>3d</fix>
</trkpt>
<trkpt lat="40.072842" lon="-105.2305751">
  <ele>1586.09</ele>
  <time>2026-08-27T18:27:24Z</time>
  <course>274.07</course>
  <speed>0.0</speed>
  <fix>3d</fix>
</trkpt>
<trkpt lat="40.0728419" lon="-105.230575">
  <ele>1586.17</ele>
  <time>2026-08-27T18:27:24Z</time>
  <course>13.51</course>
  <speed>0.022360679774997897</speed>
  <fix>3d</fix>
</trkpt>
<trkpt lat="40.072842" lon="-105.2305751">
  <ele>1586.09</ele>
  <time>2026-08-27T18:27:24Z</time>
  <course>274.04</course>
  <speed>0.0</speed>
  <fix>3d</fix>
</trkpt>
<trkpt lat="40.0728419" lon="-105.230575">
  <ele>1586.2</ele>
  <time>2026-08-27T18:27:24Z</time>
  <course>13.46</course>
  <speed>0.022360679774997897</speed>
  <fix>3d</fix>
</trkpt>
<trkpt lat="40.072842" lon="-105.2305751">
  <ele>1586.09</ele>
  <time>2026-08-27T18:27:24Z</time>
  <course>274.63</course>
  <speed>0.0</speed>
  <fix>3d</fix>
</trkpt>
<trkpt lat="40.0728419" lon="-105.230575">
  <ele>1586.3</ele>
  <time>2026-08-27T18:27:24Z</time>
  <course>13.37</course>
  <speed>0.022360679774997897</speed>
  <fix>3d</fix>
</trkpt>
<trkpt lat="40.072842" lon="-105.2305751">
  <ele>1586.14</ele>
  <time>2026-08-27T18:27:24Z</time>
  <course>279.19</course>
  <speed>0.0</speed>
  <fix>3d</fix>
</trkpt>
<trkpt lat="40.0728419" lon="-105.230575">
  <ele>1586.42</ele>
  <time>2026-08-27T18:27:24Z</time>
  <course>8.71</course>
  <speed>0.08062257748298549</speed>
  <fix>3d</fix>
</trkpt>
<trkpt lat="40.072842" lon="-105.2305751">
  <ele>1586.23</ele>
  <time>2026-08-27T18:27:24Z</time>
  <course>278.98</course>
  <speed>0.02</speed>
  <fix>3d</fix>
</trkpt>
<trkpt lat="40.0728419" lon="-105.2305755">
  <ele>1586.76</ele>
  <time>2026-08-27T18:27:24Z</time>
  <course>3.63</course>
  <speed>0.25</speed>
  <fix>3d</fix>
</trkpt>
<trkpt lat="40.072842" lon="-105.2305752">
  <ele>1586.41</ele>
  <time>2026-08-27T18:27:24Z</time>
  <course>280.49</course>
  <speed>0.14</speed>
  <fix>3d</fix>
</trkpt>
<trkpt lat="40.072842" lon="-105.2305755">
  <ele>1586.82</ele>
  <time>2026-08-27T18:27:24Z</time>
  <course>3.13</course>
  <speed>0.2720294101747089</speed>
  <fix>3d</fix>
</trkpt>
<trkpt lat="40.0728421" lon="-105.2305762">
  <ele>1587.18</ele>
  <time>2026-08-27T18:27:24Z</time>
  <course>0.75</course>
  <speed>0.38600518131237566</speed>
  <fix>3d</fix>
</trkpt>
<trkpt lat="40.072842" lon="-105.2305757">
  <ele>1586.75</ele>
  <time>2026-08-27T18:27:24Z</time>
  <course>279.9</course>
  <speed>0.3</speed>
  <fix>3d</fix>
</trkpt>
<trkpt lat="40.0728422" lon="-105.2305764">
  <ele>1587.24</ele>
  <time>2026-08-27T18:27:24Z</time>
  <course>0.44</course>
  <speed>0.3956008088970496</speed>
  <fix>3d</fix>
</trkpt>
<trkpt lat="40.0728423" lon="-105.2305772">
  <ele>1587.61</ele>
  <time>2026-08-27T18:27:24Z</time>
  <course>359.16</course>
  <speed>0.4729693436154187</speed>
  <fix>3d</fix>
</trkpt>
<trkpt lat="40.0728421" lon="-105.2305765">
  <ele>1587.16</ele>
  <time>2026-08-27T18:27:24Z</time>
  <course>278.19</course>
  <speed>0.42</speed>
  <fix>3d</fix>
</trkpt>
<trkpt lat="40.0728423" lon="-105.2305774">
  <ele>1587.67</ele>
  <time>2026-08-27T18:27:24Z</time>
  <course>359.0</course>
  <speed>0.4827007354458868</speed>
  <fix>3d</fix>
</trkpt>
<trkpt lat="40.0728425" lon="-105.2305784">
  <ele>1588.06</ele>
  <time>2026-08-27T18:27:24Z</time>
  <course>358.33</course>
  <speed>0.5412947441089743</speed>
  <fix>3d</fix>
</trkpt>
<trkpt lat="40.0728422" lon="-105.2305777">
  <ele>1587.59</ele>
  <time>2026-08-27T18:27:24Z</time>
  <course>276.13</course>
  <speed>0.51</speed>
  <fix>3d</fix>
</trkpt>
<trkpt lat="40.0728425" lon="-105.2305785">
  <ele>1588.07</ele>
  <time>2026-08-27T18:27:24Z</time>
  <course>358.32</course>
  <speed>0.539351462406472</speed>
  <fix>3d</fix>
</trkpt>
<trkpt lat="40.0728426" lon="-105.2305798">
  <ele>1588.52</ele>
  <time>2026-08-27T18:27:24Z</time>
  <course>358.02</course>
  <speed>0.596824932455071</speed>
  <fix>3d</fix>
</trkpt>
<trkpt lat="40.0728423" lon="-105.2305789">
  <ele>1588.03</ele>
  <time>2026-08-27T18:27:24Z</time>
  <course>274.06</course>
  <speed>0.57</speed>
  <fix>3d</fix>
</trkpt>
<trkpt lat="40.0728426" lon="-105.23058">
  <ele>1588.59</ele>
  <time>2026-08-27T18:27:24Z</time>
  <course>358.0</course>
  <speed>0.5953990258641678</speed>
  <fix>3d</fix>
</trkpt>
<trkpt lat="40.0728426" lon="-105.2305813">
  <ele>1588.98</ele>
  <time>2026-08-27T18:27:24Z</time>
  <course>358.05</course>
  <speed>0.6338769596696191</speed>
  <fix>3d</fix>
</trkpt>
<trkpt lat="40.0728424" lon="-105.2305803">
  <ele>1588.49</ele>
  <time>2026-08-27T18:27:24Z</time>
  <course>272.21</course>
  <speed>0.62</speed>
  <fix>3d</fix>
</trkpt>
<trkpt lat="40.0728426" lon="-105.2305815">
  <ele>1589.04</ele>
  <time>2026-08-27T18:27:24Z</time>
  <course>358.07</course>
  <speed>0.6328506932918696</speed>
  <fix>3d</fix>
</trkpt>
<trkpt lat="40.0728426" lon="-105.2305828">
  <ele>1589.45</ele>
  <time>2026-08-27T18:27:24Z</time>
  <course>356.77</course>
  <speed>0.6512296062065974</speed>
  <fix>3d</fix>
</trkpt>
<trkpt lat="40.0728424" lon="-105.2305819">
  <ele>1588.95</ele>
  <time>2026-08-27T18:27:24Z</time>
  <course>270.64</course>
  <speed>0.65</speed>
  <fix>3d</fix>
</trkpt>
<trkpt lat="40.0728426" lon="-105.2305831">
  <ele>1589.53</ele>
  <time>2026-08-27T18:27:24Z</time>
  <course>356.78</course>
  <speed>0.6612110101926616</speed>
  <fix>3d</fix>
</trkpt>
<trkpt lat="40.0728426" lon="-105.2305845">
  <ele>1589.94</ele>
  <time>2026-08-27T18:27:24Z</time>
  <course>357.04</course>
  <speed>0.680294054067798</speed>
  <fix>3d</fix>
</trkpt>
<trkpt lat="40.0728424" lon="-105.2305835">
  <ele>1589.42</ele>
  <time>2026-08-27T18:27:24Z</time>
  <course>269.27</course>
  <speed>0.68</speed>
  <fix>3d</fix>
</trkpt>
<trkpt lat="40.0728426" lon="-105.2305847">
  <ele>1590.01</ele>
  <time>2026-08-27T18:27:24Z</time>
  <course>357.11</course>
  <speed>0.6800735254367721</speed>
  <fix>3d</fix>
</trkpt>
<trkpt lat="40.0728425" lon="-105.2305861">
  <ele>1590.42</ele>
  <time>2026-08-27T18:27:24Z</time>
  <course>357.55</course>
  <speed>0.7</speed>
  <fix>3d</fix>
</trkpt>
<trkpt lat="40.0728424" lon="-105.230585">
  <ele>1589.9</ele>
  <time>2026-08-27T18:27:24Z</time>
  <course>268.07</course>
  <speed>0.7</speed>
  <fix>3d</fix>
</trkpt>
<trkpt lat="40.0728425" lon="-105.2305861">
  <ele>1590.43</ele>
  <time>2026-08-27T18:27:24Z</time>
  <course>357.56</course>
  <speed>0.7</speed>
  <fix>3d</fix>
</trkpt>
<trkpt lat="40.0728424" lon="-105.2305878">
  <ele>1590.91</ele>
  <time>2026-08-27T18:27:24Z</time>
  <course>358.1</course>
  <speed>0.7102816342831905</speed>
  <fix>3d</fix>
</trkpt>
<trkpt lat="40.0728424" lon="-105.2305867">
  <ele>1590.38</ele>
  <time>2026-08-27T18:27:24Z</time>
  <course>267.02</course>
  <speed>0.71</speed>
  <fix>3d</fix>
</trkpt>
<trkpt lat="40.0728424" lon="-105.2305881">
  <ele>1590.98</ele>
  <time>2026-08-27T18:27:24Z</time>
  <course>358.19</course>
  <speed>0.7206247289678588</speed>
  <fix>3d</fix>
</trkpt>
<trkpt lat="40.0728424" lon="-105.2305895">
  <ele>1591.39</ele>
  <time>2026-08-27T18:27:24Z</time>
  <course>358.72</course>
  <speed>0.7317103251970687</speed>
  <fix>3d</fix>
</trkpt>
<trkpt lat="40.0728423" lon="-105.2305884">
  <ele>1590.86</ele>
  <time>2026-08-27T18:27:24Z</time>
  <course>266.13</course>
  <speed>0.73</speed>
  <fix>3d</fix>
</trkpt>
<trkpt lat="40.0728424" lon="-105.2305898">
  <ele>1591.47</ele>
  <time>2026-08-27T18:27:24Z</time>
  <course>358.81</course>
  <speed>0.7317103251970687</speed>
  <fix>3d</fix>
</trkpt>
<trkpt lat="40.0728423" lon="-105.2305913">
  <ele>1591.88</ele>
  <time>2026-08-27T18:27:24Z</time>
  <course>359.39</course>
  <speed>0.7433034373659253</speed>
  <fix>3d</fix>
</trkpt>
<trkpt lat="40.0728422" lon="-105.2305902">
  <ele>1591.34</ele>
  <time>2026-08-27T18:27:24Z</time>
  <course>265.4</course>
  <speed>0.74</speed>
  <fix>3d</fix>
</trkpt>
<trkpt lat="40.0728422" lon="-105.2305915">
  <ele>1591.95</ele>
  <time>2026-08-27T18:27:24Z</time>
  <course>359.49</course>
  <speed>0.7433034373659253</speed>
  <fix>3d</fix>
</trkpt>
<trkpt lat="40.0728421" lon="-105.230593">
  <ele>1592.35</ele>
  <time>2026-08-27T18:27:24Z</time>
  <course>0.05</course>
  <speed>0.7454528824815153</speed>
  <fix>3d</fix>
</trkpt>
<trkpt lat="40.0728421" lon="-105.230592">
  <ele>1591.82</ele>
  <time>2026-08-27T18:27:24Z</time>
  <course>264.78</course>
  <speed>0.75</speed>
  <fix>3d</fix>
</trkpt>
<trkpt lat="40.0728421" lon="-105.2305933">
  <ele>1592.42</ele>
  <time>2026-08-27T18:27:24Z</time>
  <course>0.15</course>
  <speed>0.7454528824815153</speed>
  <fix>3d</fix>
</trkpt>
<trkpt lat="40.0728419" lon="-105.2305948">
  <ele>1592.84</ele>
  <time>2026-08-27T18:27:24Z</time>
  <course>0.7</course>
  <speed>0.7566372975210779</speed>
  <fix>3d</fix>
</trkpt>
<trkpt lat="40.072842" lon="-105.2305937">
  <ele>1592.3</ele>
  <time>2026-08-27T18:27:24Z</time>
  <course>264.23</course>
  <speed>0.75</speed>
  <fix>3d</fix>
</trkpt>
<trkpt lat="40.0728419" lon="-105.2305948">
  <ele>1592.84</ele>
  <time>2026-08-27T18:27:24Z</time>
  <course>0.72</course>
  <speed>0.7566372975210779</speed>
  <fix>3d</fix>
</trkpt>
<trkpt lat="40.0728417" lon="-105.2305966">
  <ele>1593.32</ele>
  <time>2026-08-27T18:27:24Z</time>
  <course>1.32</course>
  <speed>0.758023746329889</speed>
  <fix>3d</fix>
</trkpt>
<trkpt lat="40.0728419" lon="-105.2305954">
  <ele>1592.78</ele>
  <time>2026-08-27T18:27:24Z</time>
  <course>263.72</course>
  <speed>0.76</speed>
  <fix>3d</fix>
</trkpt>
<trkpt lat="40.0728417" lon="-105.2305969">
  <ele>1593.41</ele>
  <time>2026-08-27T18:27:24Z</time>
  <course>1.44</course>
  <speed>0.758023746329889</speed>
  <fix>3d</fix>
</trkpt>
<trkpt lat="40.0728415" lon="-105.2305984">
  <ele>1593.81</ele>
  <time>2026-08-27T18:27:24Z</time>
  <course>1.9</course>
  <speed>0.7595393340703298</speed>
  <fix>3d</fix>
</trkpt>
<trkpt lat="40.0728417" lon="-105.2305973">
  <ele>1593.26</ele>
  <time>2026-08-27T18:27:24Z</time>
  <course>263.23</course>
  <speed>0.76</speed>
  <fix>3d</fix>
</trkpt>
<trkpt lat="40.0728415" lon="-105.2305988">
  <ele>1593.93</ele>
  <time>2026-08-27T18:27:24Z</time>
  <course>2.03</course>
  <speed>0.7595393340703298</speed>
  <fix>3d</fix>
</trkpt>
<trkpt lat="40.0728414" lon="-105.2306002">
  <ele>1594.3</ele>
  <time>2026-08-27T18:27:24Z</time>
  <course>2.43</course>
  <speed>0.7611832893594026</speed>
  <fix>3d</fix>
</trkpt>
<trkpt lat="40.0728415" lon="-105.230599">
  <ele>1593.74</ele>
  <time>2026-08-27T18:27:24Z</time>
  <course>262.73</course>
  <speed>0.76</speed>
  <fix>3d</fix>
</trkpt>
<trkpt lat="40.0728413" lon="-105.2306006">
  <ele>1594.42</ele>
  <time>2026-08-27T18:27:24Z</time>
  <course>2.56</course>
  <speed>0.7611832893594026</speed>
  <fix>3d</fix>
</trkpt>
<trkpt lat="40.0728412" lon="-105.230602">
  <ele>1594.79</ele>
  <time>2026-08-27T18:27:24Z</time>
  <course>2.94</course>
  <speed>0.762954782408499</speed>
  <fix>3d</fix>
</trkpt>
<trkpt lat="40.0728414" lon="-105.2306009">
  <ele>1594.22</ele>
  <time>2026-08-27T18:27:24Z</time>
  <course>262.24</course>
  <speed>0.76</speed>
  <fix>3d</fix>
</trkpt>
<trkpt lat="40.0728411" lon="-105.2306024">
  <ele>1594.9</ele>
  <time>2026-08-27T18:27:24Z</time>
  <course>3.05</course>
  <speed>0.762954782408499</speed>
  <fix>3d</fix>
</trkpt>
<trkpt lat="40.072841" lon="-105.2306038">
  <ele>1595.27</ele>
  <time>2026-08-27T18:27:24Z</time>
  <course>3.42</course>
  <speed>0.7648529270389177</speed>
  <fix>3d</fix>
</trkpt>
<trkpt lat="40.0728412" lon="-105.2306026">
  <ele>1594.71</ele>
  <time>2026-08-27T18:27:24Z</time>
  <course>261.75</course>
  <speed>0.76</speed>
  <fix>3d</fix>
</trkpt>
<trkpt lat="40.0728409" lon="-105.230604">
  <ele>1595.34</ele>
  <time>2026-08-27T18:27:24Z</time>
  <course>3.48</course>
  <speed>0.7648529270389177</speed>
  <fix>3d</fix>
</trkpt>
<trkpt lat="40.0728407" lon="-105.2306056">
  <ele>1595.74</ele>
  <time>2026-08-27T18:27:24Z</time>
  <course>4.44</course>
  <speed>0.7746612162745725</speed>
  <fix>3d</fix>
</trkpt>
<trkpt lat="40.0728409" lon="-105.2306044">
  <ele>1595.19</ele>
  <time>2026-08-27T18:27:24Z</time>
  <course>261.26</course>
  <speed>0.76</speed>
  <fix>3d</fix>
</trkpt>
<trkpt lat="40.0728405" lon="-105.2306073">
  <ele>1596.06</ele>
  <time>2026-08-27T18:27:24Z</time>
  <course>7.32</course>
  <speed>0.7550496672405067</speed>
  <fix>3d</fix>
</trkpt>
<trkpt lat="40.0728407" lon="-105.2306062">
  <ele>1595.61</ele>
  <time>2026-08-27T18:27:24Z</time>
  <course>260.96</course>
  <speed>0.76</speed>
  <fix>3d</fix>
</trkpt>
<trkpt lat="40.0728403" lon="-105.2306091">
  <ele>1596.27</ele>
  <time>2026-08-27T18:27:24Z</time>
  <course>9.22</course>
  <speed>0.7354590403278758</speed>
  <fix>3d</fix>
</trkpt>
<trkpt lat="40.0728405" lon="-105.2306079">
  <ele>1595.92</ele>
  <time>2026-08-27T18:27:24Z</time>
  <course>260.83</course>
  <speed>0.75</speed>
  <fix>3d</fix>
</trkpt>
<trkpt lat="40.0728401" lon="-105.2306107">
  <ele>1596.41</ele>
  <time>2026-08-27T18:27:24Z</time>
  <course>10.05</course>
  <speed>0.6963476143421474</speed>
  <fix>3d</fix>
</trkpt>
<trkpt lat="40.0728402" lon="-105.2306097">
  <ele>1596.11</ele>
  <time>2026-08-27T18:27:24Z</time>
  <course>260.71</course>
  <speed>0.72</speed>
  <fix>3d</fix>
</trkpt>
<trkpt lat="40.0728399" lon="-105.2306123">
  <ele>1596.53</ele>
  <time>2026-08-27T18:27:24Z</time>
  <course>9.99</course>
  <speed>0.655133574166368</speed>
  <fix>3d</fix>
</trkpt>
<trkpt lat="40.0728401" lon="-105.2306113">
  <ele>1596.23</ele>
  <time>2026-08-27T18:27:24Z</time>
  <course>260.69</course>
  <speed>0.68</speed>
  <fix>3d</fix>
</trkpt>
<trkpt lat="40.0728397" lon="-105.2306137">
  <ele>1596.63</ele>
  <time>2026-08-27T18:27:24Z</time>
  <course>9.97</course>
  <speed>0.5846366392897386</speed>
  <fix>3d</fix>
</trkpt>
<trkpt lat="40.0728399" lon="-105.2306128">
  <ele>1596.34</ele>
  <time>2026-08-27T18:27:24Z</time>
  <course>261.04</course>
  <speed>0.63</speed>
  <fix>3d</fix>
</trkpt>
<trkpt lat="40.0728395" lon="-105.230615">
  <ele>1596.73</ele>
  <time>2026-08-27T18:27:24Z</time>
  <course>10.03</course>
  <speed>0.49244289008980524</speed>
  <fix>3d</fix>
</trkpt>
<trkpt lat="40.0728397" lon="-105.2306143">
  <ele>1596.45</ele>
  <time>2026-08-27T18:27:24Z</time>
  <course>262.25</course>
  <speed>0.56</speed>
  <fix>3d</fix>
</trkpt>
<trkpt lat="40.0728394" lon="-105.2306161">
  <ele>1596.82</ele>
  <time>2026-08-27T18:27:24Z</time>
  <course>10.17</course>
  <speed>0.39812058474788764</speed>
  <fix>3d</fix>
</trkpt>
<trkpt lat="40.0728396" lon="-105.2306155">
  <ele>1596.54</ele>
  <time>2026-08-27T18:27:24Z</time>
  <course>264.79</course>
  <speed>0.48</speed>
  <fix>3d</fix>
</trkpt>
<trkpt lat="40.0728394" lon="-105.2306169">
  <ele>1596.9</ele>
  <time>2026-08-27T18:27:24Z</time>
  <course>10.37</course>
  <speed>0.31400636936215165</speed>
  <fix>3d</fix>
</trkpt>
<trkpt lat="40.0728395" lon="-105.2306165">
  <ele>1596.63</ele>
  <time>2026-08-27T18:27:24Z</time>
  <course>268.92</course>
  <speed>0.4</speed>
  <fix>3d</fix>
</trkpt>
<trkpt lat="40.0728394" lon="-105.2306177">
  <ele>1596.98</ele>
  <time>2026-08-27T18:27:24Z</time>
  <course>10.6</course>
  <speed>0.24083189157584592</speed>
  <fix>3d</fix>
</trkpt>
<trkpt lat="40.0728395" lon="-105.2306174">
  <ele>1596.71</ele>
  <time>2026-08-27T18:27:24Z</time>
  <course>274.65</course>
  <speed>0.32</speed>
  <fix>3d</fix>
</trkpt>
<trkpt lat="40.0728395" lon="-105.2306182">
  <ele>1597.04</ele>
  <time>2026-08-27T18:27:24Z</time>
  <course>10.84</course>
  <speed>0.17</speed>
  <fix>3d</fix>
</trkpt>
<trkpt lat="40.0728396" lon="-105.230618">
  <ele>1596.78</ele>
  <time>2026-08-27T18:27:24Z</time>
  <course>281.88</course>
  <speed>0.25</speed>
  <fix>3d</fix>
</trkpt>
<trkpt lat="40.0728396" lon="-105.2306186">
  <ele>1597.08</ele>
  <time>2026-08-27T18:27:24Z</time>
  <course>11.12</course>
  <speed>0.1</speed>
  <fix>3d</fix>
</trkpt>
<trkpt lat="40.0728397" lon="-105.2306186">
  <ele>1596.84</ele>
  <time>2026-08-27T18:27:24Z</time>
  <course>291.39</course>
  <speed>0.19</speed>
  <fix>3d</fix>
</trkpt>
<trkpt lat="40.0728396" lon="-105.2306187">
  <ele>1597.11</ele>
  <time>2026-08-27T18:27:24Z</time>
  <course>6.58</course>
  <speed>0.0</speed>
  <fix>3d</fix>
</trkpt>
<trkpt lat="40.0728398" lon="-105.2306189">
  <ele>1596.88</ele>
  <time>2026-08-27T18:27:24Z</time>
  <course>313.13</course>
  <speed>0.11</speed>
  <fix>3d</fix>
</trkpt>
<trkpt lat="40.0728397" lon="-105.2306187">
  <ele>1597.12</ele>
  <time>2026-08-27T18:27:24Z</time>
  <course>5.7</course>
  <speed>0.1</speed>
  <fix>3d</fix>
</trkpt>
<trkpt lat="40.07284" lon="-105.2306189">
  <ele>1596.91</ele>
  <time>2026-08-27T18:27:24Z</time>
  <course>12.03</course>
  <speed>0.08</speed>
  <fix>3d</fix>
</trkpt>
<trkpt lat="40.0728399" lon="-105.2306183">
  <ele>1597.12</ele>
  <time>2026-08-27T18:27:24Z</time>
  <course>6.04</course>
  <speed>0.26</speed>
  <fix>3d</fix>
</trkpt>
<trkpt lat="40.0728401" lon="-105.2306189">
  <ele>1596.92</ele>
  <time>2026-08-27T18:27:24Z</time>
  <course>59.44</course>
  <speed>0.15</speed>
  <fix>3d</fix>
</trkpt>
<trkpt lat="40.07284" lon="-105.2306176">
  <ele>1597.12</ele>
  <time>2026-08-27T18:27:24Z</time>
  <course>6.16</course>
  <speed>0.45</speed>
  <fix>3d</fix>
</trkpt>
<trkpt lat="40.0728402" lon="-105.2306184">
  <ele>1596.93</ele>
  <time>2026-08-27T18:27:24Z</time>
  <course>74.74</course>
  <speed>0.3</speed>
  <fix>3d</fix>
</trkpt>
<trkpt lat="40.0728402" lon="-105.2306164">
  <ele>1597.12</ele>
  <time>2026-08-27T18:27:24Z</time>
  <course>6.14</course>
  <speed>0.6403124237432849</speed>
  <fix>3d</fix>
</trkpt>
<trkpt lat="40.0728404" lon="-105.2306175">
  <ele>1596.94</ele>
  <time>2026-08-27T18:27:24Z</time>
  <course>79.29</course>
  <speed>0.48</speed>
  <fix>3d</fix>
</trkpt>
<trkpt lat="40.0728403" lon="-105.2306147">
  <ele>1597.12</ele>
  <time>2026-08-27T18:27:24Z</time>
  <course>6.12</course>
  <speed>0.8309632964216891</speed>
  <fix>3d</fix>
</trkpt>
<trkpt lat="40.0728406" lon="-105.2306161">
  <ele>1596.94</ele>
  <time>2026-08-27T18:27:24Z</time>
  <course>80.93</course>
  <speed>0.68</speed>
  <fix>3d</fix>
</trkpt>
<trkpt lat="40.0728406" lon="-105.2306126">
  <ele>1597.12</ele>
  <time>2026-08-27T18:27:24Z</time>
  <course>6.19</course>
  <speed>0.9918165152889924</speed>
  <fix>3d</fix>
</trkpt>
<trkpt lat="40.0728407" lon="-105.2306143">
  <ele>1596.94</ele>
  <time>2026-08-27T18:27:24Z</time>
  <course>81.72</course>
  <speed>0.86</speed>
  <fix>3d</fix>
</trkpt>
<trkpt lat="40.0728409" lon="-105.2306102">
  <ele>1597.12</ele>
  <time>2026-08-27T18:27:24Z</time>
  <course>11.93</course>
  <speed>1.0829589096544707</speed>
  <fix>3d</fix>
</trkpt>
<trkpt lat="40.072841" lon="-105.2306122">
  <ele>1596.94</ele>
  <time>2026-08-27T18:27:24Z</time>
  <course>82.05</course>
  <speed>1.01</speed>
  <fix>3d</fix>
</trkpt>
<trkpt lat="40.0728412" lon="-105.2306076">
  <ele>1597.12</ele>
  <time>2026-08-27T18:27:24Z</time>
  <course>24.88</course>
  <speed>1.216963434126104</speed>
  <fix>3d</fix>
</trkpt>
<trkpt lat="40.0728413" lon="-105.2306097">
  <ele>1596.94</ele>
  <time>2026-08-27T18:27:24Z</time>
  <course>81.84</course>
  <speed>1.12</speed>
  <fix>3d</fix>
</trkpt>
<trkpt lat="40.0728416" lon="-105.2306046">
  <ele>1597.11</ele>
  <time>2026-08-27T18:27:24Z</time>
  <course>37.81</course>
  <speed>1.3520355024924455</speed>
  <fix>3d</fix>
</trkpt>
<trkpt lat="40.0728416" lon="-105.2306069">
  <ele>1596.95</ele>
  <time>2026-08-27T18:27:24Z</time>
  <course>81.04</course>
  <speed>1.25</speed>
  <fix>3d</fix>
</trkpt>
<trkpt lat="40.0728421" lon="-105.2306014">
  <ele>1597.11</ele>
  <time>2026-08-27T18:27:24Z</time>
  <course>50.36</course>
  <speed>1.4598630072715728</speed>
  <fix>3d</fix>
</trkpt>
<trkpt lat="40.072842" lon="-105.2306039">
  <ele>1596.95</ele>
  <time>2026-08-27T18:27:24Z</time>
  <course>79.8</course>
  <speed>1.37</speed>
  <fix>3d</fix>
</trkpt>
<trkpt lat="40.0728427" lon="-105.230598">
  <ele>1597.11</ele>
  <time>2026-08-27T18:27:24Z</time>
  <course>62.77</course>
  <speed>1.537595525487766</speed>
  <fix>3d</fix>
</trkpt>
<trkpt lat="40.0728425" lon="-105.2306006">
  <ele>1596.96</ele>
  <time>2026-08-27T18:27:24Z</time>
  <course>78.55</course>
  <speed>1.47</speed>
  <fix>3d</fix>
</trkpt>
<trkpt lat="40.0728433" lon="-105.2305944">
  <ele>1597.12</ele>
  <time>2026-08-27T18:27:25Z</time>
  <course>74.72</course>
  <speed>1.5768956845650888</speed>
  <fix>3d</fix>
</trkpt>
<trkpt lat="40.0728431" lon="-105.230597">
  <ele>1596.96</ele>
  <time>2026-08-27T18:27:25Z</time>
  <course>77.83</course>
  <speed>1.54</speed>
  <fix>3d</fix>
</trkpt>
<trkpt lat="40.0728438" lon="-105.2305908">
  <ele>1597.12</ele>
  <time>2026-08-27T18:27:25Z</time>
  <course>78.65</course>
  <speed>1.5684705926475002</speed>
  <fix>3d</fix>
</trkpt>
<trkpt lat="40.0728436" lon="-105.2305935">
  <ele>1596.97</ele>
  <time>2026-08-27T18:27:25Z</time>
  <course>78.69</course>
  <speed>1.57</speed>
  <fix>3d</fix>
</trkpt>
<trkpt lat="40.0728443" lon="-105.2305873">
  <ele>1597.13</ele>
  <time>2026-08-27T18:27:25Z</time>
  <course>78.68</course>
  <speed>1.5146286673637206</speed>
  <fix>3d</fix>
</trkpt>
<trkpt lat="40.0728441" lon="-105.2305898">
  <ele>1596.99</ele>
  <time>2026-08-27T18:27:25Z</time>
  <course>80.26</course>
  <speed>1.55</speed>
  <fix>3d</fix>
</trkpt>
<trkpt lat="40.0728447" lon="-105.2305838">
  <ele>1597.15</ele>
  <time>2026-08-27T18:27:25Z</time>
  <course>79.19</course>
  <speed>1.4301398533010679</speed>
  <fix>3d</fix>
</trkpt>
<trkpt lat="40.0728445" lon="-105.2305863">
  <ele>1597.0</ele>
  <time>2026-08-27T18:27:25Z</time>
  <course>81.3</course>
  <speed>1.49</speed>
  <fix>3d</fix>
</trkpt>
<trkpt lat="40.072845" lon="-105.2305806">
  <ele>1597.15</ele>
  <time>2026-08-27T18:27:25Z</time>
  <course>80.67</course>
  <speed>1.3453624047073711</speed>
  <fix>3d</fix>
</trkpt>
<trkpt lat="40.0728449" lon="-105.2305829">
  <ele>1597.01</ele>
  <time>2026-08-27T18:27:25Z</time>
  <course>82.56</course>
  <speed>1.4</speed>
  <fix>3d</fix>
</trkpt>
<trkpt lat="40.0728452" lon="-105.2305776">
  <ele>1597.16</ele>
  <time>2026-08-27T18:27:25Z</time>
  <course>82.85</course>
  <speed>1.231990259701756</speed>
  <fix>3d</fix>
</trkpt>
<trkpt lat="40.0728452" lon="-105.2305797">
  <ele>1597.02</ele>
  <time>2026-08-27T18:27:25Z</time>
  <course>84.34</course>
  <speed>1.3</speed>
  <fix>3d</fix>
</trkpt>
<trkpt lat="40.0728453" lon="-105.2305749">
  <ele>1597.16</ele>
  <time>2026-08-27T18:27:25Z</time>
  <course>85.38</course>
  <speed>1.0900458705944442</speed>
  <fix>3d</fix>
</trkpt>
<trkpt lat="40.0728454" lon="-105.2305768">
  <ele>1597.03</ele>
  <time>2026-08-27T18:27:25Z</time>
  <course>86.55</course>
  <speed>1.18</speed>
  <fix>3d</fix>
</trkpt>
<trkpt lat="40.0728453" lon="-105.2305726">
  <ele>1597.16</ele>
  <time>2026-08-27T18:27:25Z</time>
  <course>87.94</course>
  <speed>0.910494371207203</speed>
  <fix>3d</fix>
</trkpt>
<trkpt lat="40.0728455" lon="-105.2305742">
  <ele>1597.03</ele>
  <time>2026-08-27T18:27:25Z</time>
  <course>89.14</course>
  <speed>1.03</speed>
  <fix>3d</fix>
</trkpt>
<trkpt lat="40.0728453" lon="-105.2305707">
  <ele>1597.15</ele>
  <time>2026-08-27T18:27:25Z</time>
  <course>88.18</course>
  <speed>0.6958448102845921</speed>
  <fix>3d</fix>
</trkpt>
<trkpt lat="40.0728455" lon="-105.230572">
  <ele>1597.03</ele>
  <time>2026-08-27T18:27:25Z</time>
  <course>92.9</course>
  <speed>0.84</speed>
  <fix>3d</fix>
</trkpt>
<trkpt lat="40.0728452" lon="-105.2305694">
  <ele>1597.15</ele>
  <time>2026-08-27T18:27:25Z</time>
  <course>88.03</course>
  <speed>0.4657252408878007</speed>
  <fix>3d</fix>
</trkpt>
<trkpt lat="40.0728454" lon="-105.2305703">
  <ele>1597.04</ele>
  <time>2026-08-27T18:27:25Z</time>
  <course>98.78</course>
  <speed>0.63</speed>
  <fix>3d</fix>
</trkpt>
<trkpt lat="40.0728449" lon="-105.2305686">
  <ele>1597.14</ele>
  <time>2026-08-27T18:27:25Z</time>
  <course>88.03</course>
  <speed>0.24083189157584592</speed>
  <fix>3d</fix>
</trkpt>
<trkpt lat="40.0728451" lon="-105.2305691">
  <ele>1597.03</ele>
  <time>2026-08-27T18:27:25Z</time>
  <course>110.43</course>
  <speed>0.39</speed>
  <fix>3d</fix>
</trkpt>
<trkpt lat="40.0728446" lon="-105.2305685">
  <ele>1597.14</ele>
  <time>2026-08-27T18:27:25Z</time>
  <course>88.05</course>
  <speed>0.208806130178211</speed>
  <fix>3d</fix>
</trkpt>
<trkpt lat="40.0728449" lon="-105.2305685">
  <ele>1597.03</ele>
  <time>2026-08-27T18:27:25Z</time>
  <course>148.58</course>
  <speed>0.2</speed>
  <fix>3d</fix>
</trkpt>
<trkpt lat="40.0728442" lon="-105.2305688">
  <ele>1597.13</ele>
  <time>2026-08-27T18:27:25Z</time>
  <course>88.03</course>
  <speed>0.354682957019364</speed>
  <fix>3d</fix>
</trkpt>
<trkpt lat="40.0728445" lon="-105.2305686">
  <ele>1597.03</ele>
  <time>2026-08-27T18:27:25Z</time>
  <course>212.1</course>
  <speed>0.25</speed>
  <fix>3d</fix>
</trkpt>
<trkpt lat="40.0728438" lon="-105.2305696">
  <ele>1597.13</ele>
  <time>2026-08-27T18:27:25Z</time>
  <course>87.98</course>
  <speed>0.4939635614091387</speed>
  <fix>3d</fix>
</trkpt>
<trkpt lat="40.0728442" lon="-105.2305691">
  <ele>1597.03</ele>
  <time>2026-08-27T18:27:25Z</time>
  <course>233.38</course>
  <speed>0.42</speed>
  <fix>3d</fix>
</trkpt>
<trkpt lat="40.0728433" lon="-105.2305707">
  <ele>1597.13</ele>
  <time>2026-08-27T18:27:25Z</time>
  <course>87.95</course>
  <speed>0.5730619512757761</speed>
  <fix>3d</fix>
</trkpt>
<trkpt lat="40.0728437" lon="-105.2305701">
  <ele>1597.03</ele>
  <time>2026-08-27T18:27:25Z</time>
  <course>239.99</course>
  <speed>0.55</speed>
  <fix>3d</fix>
</trkpt>
<trkpt lat="40.0728428" lon="-105.230572">
  <ele>1597.14</ele>
  <time>2026-08-27T18:27:25Z</time>
  <course>87.95</course>
  <speed>0.590592922409336</speed>
  <fix>3d</fix>
</trkpt>
<trkpt lat="40.0728432" lon="-105.2305712">
  <ele>1597.03</ele>
  <time>2026-08-27T18:27:25Z</time>
  <course>242.44</course>
  <speed>0.62</speed>
  <fix>3d</fix>
</trkpt>
<trkpt lat="40.0728423" lon="-105.2305732">
  <ele>1597.14</ele>
  <time>2026-08-27T18:27:25Z</time>
  <course>87.96</course>
  <speed>0.5458937625582473</speed>
  <fix>3d</fix>
</trkpt>
<trkpt lat="40.0728426" lon="-105.2305725">
  <ele>1597.04</ele>
  <time>2026-08-27T18:27:25Z</time>
  <course>243.21</course>
  <speed>0.62</speed>
  <fix>3d</fix>
</trkpt>
<trkpt lat="40.0728418" lon="-105.2305743">
  <ele>1597.15</ele>
  <time>2026-08-27T18:27:25Z</time>
  <course>83.06</course>
  <speed>0.4882622246293481</speed>
  <fix>3d</fix>
</trkpt>
<trkpt lat="40.0728421" lon="-105.2305738">
  <ele>1597.04</ele>
  <time>2026-08-27T18:27:25Z</time>
  <course>241.55</course>
  <speed>0.58</speed>
  <fix>3d</fix>
</trkpt>
<trkpt lat="40.0728413" lon="-105.2305753">
  <ele>1597.15</ele>
  <time>2026-08-27T18:27:25Z</time>
  <course>69.47</course>
  <speed>0.4080441152620633</speed>
  <fix>3d</fix>
</trkpt>
<trkpt lat="40.0728417" lon="-105.2305748">
  <ele>1597.05</ele>
  <time>2026-08-27T18:27:25Z</time>
  <course>238.24</course>
  <speed>0.51</speed>
  <fix>3d</fix>
</trkpt>
<trkpt lat="40.072841" lon="-105.2305761">
  <ele>1597.16</ele>
  <time>2026-08-27T18:27:25Z</time>
  <course>56.55</course>
  <speed>0.34132096331752027</speed>
  <fix>3d</fix>
</trkpt>
<trkpt lat="40.0728412" lon="-105.2305758">
  <ele>1597.05</ele>
  <time>2026-08-27T18:27:25Z</time>
  <course>238.2</course>
  <speed>0.42</speed>
  <fix>3d</fix>
</trkpt>
<trkpt lat="40.0728407" lon="-105.2305768">
  <ele>1597.16</ele>
  <time>2026-08-27T18:27:25Z</time>
  <course>44.46</course>
  <speed>0.295296461204668</speed>
  <fix>3d</fix>
</trkpt>
<trkpt lat="40.0728409" lon="-105.2305766">
  <ele>1597.06</ele>
  <time>2026-08-27T18:27:25Z</time>
  <course>241.99</course>
  <speed>0.35</speed>
  <fix>3d</fix>
</trkpt>
<trkpt lat="40.0728405" lon="-105.2305775">
  <ele>1597.16</ele>
  <time>2026-08-27T18:27:25Z</time>
  <course>32.58</course>
  <speed>0.25942243542145693</speed>
  <fix>3d</fix>
</trkpt>
<trkpt lat="40.0728406" lon="-105.2305773">
  <ele>1597.06</ele>
  <time>2026-08-27T18:27:25Z</time>
  <course>245.27</course>
  <speed>0.3</speed>
  <fix>3d</fix>
</trkpt>
<trkpt lat="40.0728402" lon="-105.2305781">
  <ele>1597.16</ele>
  <time>2026-08-27T18:27:25Z</time>
  <course>20.62</course>
  <speed>0.23323807579381203</speed>
  <fix>3d</fix>
</trkpt>
<trkpt lat="40.0728403" lon="-105.230578">
  <ele>1597.06</ele>
  <time>2026-08-27T18:27:25Z</time>
  <course>245.74</course>
  <speed>0.26</speed>
  <fix>3d</fix>
</trkpt>
<trkpt lat="40.07284" lon="-105.2305786">
  <ele>1597.16</ele>
  <time>2026-08-27T18:27:25Z</time>
  <course>14.07</course>
  <speed>0.23706539182259395</speed>
  <fix>3d</fix>
</trkpt>
<trkpt lat="40.0728402" lon="-105.2305785">
  <ele>1597.06</ele>
  <time>2026-08-27T18:27:25Z</time>
  <course>245.78</course>
  <speed>0.24</speed>
  <fix>3d</fix>
</trkpt>
<trkpt lat="40.0728399" lon="-105.2305791">
  <ele>1597.16</ele>
  <time>2026-08-27T18:27:25Z</time>
  <course>15.29</course>
  <speed>0.194164878389476</speed>
  <fix>3d</fix>
</trkpt>
<trkpt lat="40.07284" lon="-105.230579">
  <ele>1597.06</ele>
  <time>2026-08-27T18:27:25Z</time>
  <course>245.49</course>
  <speed>0.22</speed>
  <fix>3d</fix>
</trkpt>
<trkpt lat="40.0728397" lon="-105.2305794">
  <ele>1597.16</ele>
  <time>2026-08-27T18:27:25Z</time>
  <course>15.95</course>
  <speed>0.12041594578792296</speed>
  <fix>3d</fix>
</trkpt>
<trkpt lat="40.0728399" lon="-105.2305794">
  <ele>1597.06</ele>
  <time>2026-08-27T18:27:25Z</time>
  <course>240.43</course>
  <speed>0.16</speed>
  <fix>3d</fix>
</trkpt>
<trkpt lat="40.0728396" lon="-105.2305796">
  <ele>1597.17</ele>
  <time>2026-08-27T18:27:25Z</time>
  <course>16.05</course>
  <speed>0.07280109889280519</speed>
  <fix>3d</fix>
</trkpt>
<trkpt lat="40.0728397" lon="-105.2305796">
  <ele>1597.06</ele>
  <time>2026-08-27T18:27:25Z</time>
  <course>228.21</course>
  <speed>0.09</speed>
  <fix>3d</fix>
</trkpt>
<trkpt lat="40.0728395" lon="-105.2305796">
  <ele>1597.16</ele>
  <time>2026-08-27T18:27:25Z</time>
  <course>16.07</course>
  <speed>0.04242640687119285</speed>
  <fix>3d</fix>
</trkpt>
<trkpt lat="40.0728396" lon="-105.2305798">
  <ele>1597.05</ele>
  <time>2026-08-27T18:27:25Z</time>
  <course>186.85</course>
  <speed>0.03</speed>
  <fix>3d</fix>
</trkpt>
<trkpt lat="40.0728395" lon="-105.2305796">
  <ele>1597.16</ele>
  <time>2026-08-27T18:27:25Z</time>
  <course>16.11</course>
  <speed>0.07</speed>
  <fix>3d</fix>
</trkpt>
<trkpt lat="40.0728396" lon="-105.2305797">
  <ele>1597.05</ele>
  <time>2026-08-27T18:27:25Z</time>
  <course>87.34</course>
  <speed>0.05</speed>
  <fix>3d</fix>
</trkpt>
<trkpt lat="40.0728396" lon="-105.2305794">
  <ele>1597.16</ele>
  <time>2026-08-27T18:27:25Z</time>
  <course>16.15</course>
  <speed>0.1118033988749895</speed>
  <fix>3d</fix>
</trkpt>
<trkpt lat="40.0728396" lon="-105.2305796">
  <ele>1597.05</ele>
  <time>2026-08-27T18:27:25Z</time>
  <course>68.2</course>
  <speed>0.1</speed>
  <fix>3d</fix>
</trkpt>
<trkpt lat="40.0728396" lon="-105.2305791">
  <ele>1597.15</ele>
  <time>2026-08-27T18:27:25Z</time>
  <course>16.19</course>
  <speed>0.14866068747318506</speed>
  <fix>3d</fix>
</trkpt>
<trkpt lat="40.0728397" lon="-105.2305793">
  <ele>1597.04</ele>
  <time>2026-08-27T18:27:25Z</time>
  <course>61.65</course>
  <speed>0.14</speed>
  <fix>3d</fix>
</trkpt>
<trkpt lat="40.0728398" lon="-105.2305787">
  <ele>1597.15</ele>
  <time>2026-08-27T18:27:25Z</time>
  <course>16.21</course>
  <speed>0.17464249196572978</speed>
  <fix>3d</fix>
</trkpt>
<trkpt lat="40.0728398" lon="-105.2305789">
  <ele>1597.04</ele>
  <time>2026-08-27T18:27:25Z</time>
  <course>58.19</course>
  <speed>0.18</speed>
  <fix>3d</fix>
</trkpt>
<trkpt lat="40.07284" lon="-105.2305783">
  <ele>1597.15</ele>
  <time>2026-08-27T18:27:25Z</time>
  <course>16.25</course>
  <speed>0.19235384061671343</speed>
  <fix>3d</fix>
</trkpt>
<trkpt lat="40.07284" lon="-105.2305786">
  <ele>1597.04</ele>
  <time>2026-08-27T18:27:25Z</time>
  <course>55.97</course>
  <speed>0.22</speed>
  <fix>3d</fix>
</trkpt>
<trkpt lat="40.0728402" lon="-105.2305778">
  <ele>1597.14</ele>
  <time>2026-08-27T18:27:25Z</time>
  <course>16.29</course>
  <speed>0.2109502310972899</speed>
  <fix>3d</fix>
</trkpt>
<trkpt lat="40.0728402" lon="-105.2305781">
  <ele>1597.04</ele>
  <time>2026-08-27T18:27:25Z</time>
  <course>54.33</course>
  <speed>0.24</speed>
  <fix>3d</fix>
</trkpt>
<trkpt lat="40.0728405" lon="-105.2305774">
  <ele>1597.15</ele>
  <time>2026-08-27T18:27:25Z</time>
  <course>16.33</course>
  <speed>0.22472205054244232</speed>
  <fix>3d</fix>
</trkpt>
<trkpt lat="40.0728405" lon="-105.2305777">
  <ele>1597.04</ele>
  <time>2026-08-27T18:27:25Z</time>
  <course>53.01</course>
  <speed>0.25</speed>
  <fix>3d</fix>
</trkpt>
<trkpt lat="40.0728408" lon="-105.2305769">
  <ele>1597.15</ele>
  <time>2026-08-27T18:27:25Z</time>
  <course>16.38</course>
  <speed>0.21633307652783937</speed>
  <fix>3d</fix>
</trkpt>
<trkpt lat="40.0728408" lon="-105.2305772">
  <ele>1597.04</ele>
  <time>2026-08-27T18:27:25Z</time>
  <course>51.88</course>
  <speed>0.26</speed>
  <fix>3d</fix>
</trkpt>
<trkpt lat="40.072841" lon="-105.2305764">
  <ele>1597.15</ele>
  <time>2026-08-27T18:27:25Z</time>
  <course>16.42</course>
  <speed>0.21633307652783937</speed>
  <fix>3d</fix>
</trkpt>
<trkpt lat="40.0728411" lon="-105.2305767">
  <ele>1597.04</ele>
  <time>2026-08-27T18:27:25Z</time>
  <course>50.94</course>
  <speed>0.26</speed>
  <fix>3d</fix>
</trkpt>
<trkpt lat="40.0728413" lon="-105.230576">
  <ele>1597.15</ele>
  <time>2026-08-27T18:27:25Z</time>
  <course>16.47</course>
  <speed>0.20248456731316586</speed>
  <fix>3d</fix>
</trkpt>
<trkpt lat="40.0728414" lon="-105.2305762">
  <ele>1597.04</ele>
  <time>2026-08-27T18:27:25Z</time>
  <course>50.22</course>
  <speed>0.25</speed>
  <fix>3d</fix>
</trkpt>
<trkpt lat="40.0728416" lon="-105.2305756">
  <ele>1597.15</ele>
  <time>2026-08-27T18:27:25Z</time>
  <course>16.51</course>
  <speed>0.18027756377319945</speed>
  <fix>3d</fix>
</trkpt>
<trkpt lat="40.0728417" lon="-105.2305758">
  <ele>1597.05</ele>
  <time>2026-08-27T18:27:25Z</time>
  <course>49.64</course>
  <speed>0.24</speed>
  <fix>3d</fix>
</trkpt>
<trkpt lat="40.0728418" lon="-105.2305752">
  <ele>1597.15</ele>
  <time>2026-08-27T18:27:25Z</time>
  <course>16.54</course>
  <speed>0.15811388300841897</speed>
  <fix>3d</fix>
</trkpt>
<trkpt lat="40.0728419" lon="-105.2305753">
  <ele>1597.05</ele>
  <time>2026-08-27T18:27:25Z</time>
  <course>49.12</course>
  <speed>0.22</speed>
  <fix>3d</fix>
</trkpt>
<trkpt lat="40.0728421" lon="-105.2305749">
  <ele>1597.15</ele>
  <time>2026-08-27T18:27:25Z</time>
  <course>16.59</course>
  <speed>0.130384048104053</speed>
  <fix>3d</fix>
</trkpt>
<trkpt lat="40.0728422" lon="-105.230575">
  <ele>1597.05</ele>
  <time>2026-08-27T18:27:25Z</time>
  <course>48.7</course>
  <speed>0.19</speed>
  <fix>3d</fix>
</trkpt>
<trkpt lat="40.0728423" lon="-105.2305746">
  <ele>1597.15</ele>
  <time>2026-08-27T18:27:25Z</time>
  <course>16.63</course>
  <speed>0.10295630140987001</speed>
  <fix>3d</fix>
</trkpt>
<trkpt lat="40.0728425" lon="-105.2305747">
  <ele>1597.05</ele>
  <time>2026-08-27T18:27:25Z</time>
  <course>48.42</course>
  <speed>0.16</speed>
  <fix>3d</fix>
</trkpt>
<trkpt lat="40.0728424" lon="-105.2305744">
  <ele>1597.15</ele>
  <time>2026-08-27T18:27:25Z</time>
  <course>16.69</course>
  <speed>0.08062257748298549</speed>
  <fix>3d</fix>
</trkpt>
<trkpt lat="40.0728426" lon="-105.2305744">
  <ele>1597.05</ele>
  <time>2026-08-27T18:27:25Z</time>
  <course>48.41</course>
  <speed>0.13</speed>
  <fix>3d</fix>
</trkpt>
<trkpt lat="40.0728425" lon="-105.2305742">
  <ele>1597.14</ele>
  <time>2026-08-27T18:27:25Z</time>
  <course>16.96</course>
  <speed>0.053851648071345036</speed>
  <fix>3d</fix>
</trkpt>
<trkpt lat="40.0728427" lon="-105.2305742">
  <ele>1597.04</ele>
  <time>2026-08-27T18:27:25Z</time>
  <course>48.38</course>
  <speed>0.1</speed>
  <fix>3d</fix>
</trkpt>
<trkpt lat="40.0728426" lon="-105.2305741">
  <ele>1597.09</ele>
  <time>2026-08-27T18:27:25Z</time>
  <course>17.35</course>
  <speed>0.03</speed>
  <fix>3d</fix>
</trkpt>
<trkpt lat="40.0728428" lon="-105.230574">
  <ele>1597.02</ele>
  <time>2026-08-27T18:27:25Z</time>
  <course>48.61</course>
  <speed>0.07</speed>
  <fix>3d</fix>
</trkpt>
<trkpt lat="40.0728427" lon="-105.230574">
  <ele>1597.0</ele>
  <time>2026-08-27T18:27:25Z</time>
  <course>17.68</course>
  <speed>0.022360679774997897</speed>
  <fix>3d</fix>
</trkpt>
<trkpt lat="40.0728429" lon="-105.2305739">
  <ele>1596.97</ele>
  <time>2026-08-27T18:27:25Z</time>
  <course>51.33</course>
  <speed>0.04</speed>
  <fix>3d</fix>
</trkpt>
<trkpt lat="40.0728427" lon="-105.2305739">
  <ele>1596.87</ele>
  <time>2026-08-27T18:27:25Z</time>
  <course>17.94</course>
  <speed>0.022360679774997897</speed>
  <fix>3d</fix>
</trkpt>
<trkpt lat="40.072843" lon="-105.2305739">
  <ele>1596.87</ele>
  <time>2026-08-27T18:27:25Z</time>
  <course>62.65</course>
  <speed>0.02</speed>
  <fix>3d</fix>
</trkpt>
<trkpt lat="40.0728427" lon="-105.2305739">
  <ele>1596.72</ele>
  <time>2026-08-27T18:27:25Z</time>
  <course>17.88</course>
  <speed>0.04</speed>
  <fix>3d</fix>
</trkpt>
<trkpt lat="40.072843" lon="-105.2305738">
  <ele>1596.74</ele>
  <time>2026-08-27T18:27:25Z</time>
  <course>116.08</course>
  <speed>0.01</speed>
  <fix>3d</fix>
</trkpt>
<trkpt lat="40.0728427" lon="-105.2305739">
  <ele>1596.56</ele>
  <time>2026-08-27T18:27:25Z</time>
  <course>17.6</course>
  <speed>0.06</speed>
  <fix>3d</fix>
</trkpt>
<trkpt lat="40.072843" lon="-105.2305738">
  <ele>1596.58</ele>
  <time>2026-08-27T18:27:25Z</time>
  <course>171.75</course>
  <speed>0.02</speed>
  <fix>3d</fix>
</trkpt>
<trkpt lat="40.0728427" lon="-105.2305739">
  <ele>1596.42</ele>
  <time>2026-08-27T18:27:25Z</time>
  <course>17.41</course>
  <speed>0.07071067811865475</speed>
  <fix>3d</fix>
</trkpt>
<trkpt lat="40.0728429" lon="-105.2305738">
  <ele>1596.42</ele>
  <time>2026-08-27T18:27:25Z</time>
  <course>189.63</course>
  <speed>0.04</speed>
  <fix>3d</fix>
</trkpt>
<trkpt lat="40.0728426" lon="-105.2305739">
  <ele>1596.3</ele>
  <time>2026-08-27T18:27:25Z</time>
  <course>17.34</course>
  <speed>0.0824621125123532</speed>
  <fix>3d</fix>
</trkpt>
<trkpt lat="40.0728429" lon="-105.2305738">
  <ele>1596.29</ele>
  <time>2026-08-27T18:27:25Z</time>
  <course>199.69</course>
  <speed>0.05</speed>
  <fix>3d</fix>
</trkpt>
<trkpt lat="40.0728425" lon="-105.2305739">
  <ele>1596.18</ele>
  <time>2026-08-27T18:27:25Z</time>
  <course>17.32</course>
  <speed>0.0854400374531753</speed>
  <fix>3d</fix>
</trkpt>
<trkpt lat="40.0728428" lon="-105.2305738">
  <ele>1596.17</ele>
  <time>2026-08-27T18:27:25Z</time>
  <course>206.79</course>
  <speed>0.06</speed>
  <fix>3d</fix>
</trkpt>
<trkpt lat="40.0728424" lon="-105.230574">
  <ele>1596.08</ele>
  <time>2026-08-27T18:27:25Z</time>
  <course>17.32</course>
  <speed>0.08944271909999159</speed>
  <fix>3d</fix>
</trkpt>
<trkpt lat="40.0728427" lon="-105.2305739">
  <ele>1596.06</ele>
  <time>2026-08-27T18:27:25Z</time>
  <course>212.13</course>
  <speed>0.07</speed>
  <fix>3d</fix>
</trkpt>
<trkpt lat="40.0728423" lon="-105.2305741">
  <ele>1595.97</ele>
  <time>2026-08-27T18:27:25Z</time>
  <course>17.33</course>
  <speed>0.08944271909999159</speed>
  <fix>3d</fix>
</trkpt>
<trkpt lat="40.0728426" lon="-105.2305739">
  <ele>1595.96</ele>
  <time>2026-08-27T18:27:25Z</time>
  <course>216.4</course>
  <speed>0.08</speed>
  <fix>3d</fix>
</trkpt>
<trkpt lat="40.0728422" lon="-105.2305742">
  <ele>1595.88</ele>
  <time>2026-08-27T18:27:25Z</time>
  <course>17.35</course>
  <speed>0.08944271909999159</speed>
  <fix>3d</fix>
</trkpt>
<trkpt lat="40.0728424" lon="-105.2305741">
  <ele>1595.86</ele>
  <time>2026-08-27T18:27:25Z</time>
  <course>220.39</course>
  <speed>0.08</speed>
  <fix>3d</fix>
</trkpt>
<trkpt lat="40.0728421" lon="-105.2305743">
  <ele>1595.78</ele>
  <time>2026-08-27T18:27:25Z</time>
  <course>17.37</course>
  <speed>0.08602325267042626</speed>
  <fix>3d</fix>
</trkpt>
<trkpt lat="40.0728423" lon="-105.2305742">
  <ele>1595.76</ele>
  <time>2026-08-27T18:27:25Z</time>
  <course>224.48</course>
  <speed>0.08</speed>
  <fix>3d</fix>
</trkpt>
<trkpt lat="40.072842" lon="-105.2305744">
  <ele>1595.68</ele>
  <time>2026-08-27T18:27:25Z</time>
  <course>17.4</course>
  <speed>0.08602325267042626</speed>
  <fix>3d</fix>
</trkpt>
<trkpt lat="40.0728422" lon="-105.2305744">
  <ele>1595.66</ele>
  <time>2026-08-27T18:27:25Z</time>
  <course>228.76</course>
  <speed>0.08</speed>
  <fix>3d</fix>
</trkpt>
<trkpt lat="40.0728419" lon="-105.2305746">
  <ele>1595.58</ele>
  <time>2026-08-27T18:27:25Z</time>
  <course>17.41</course>
  <speed>0.07810249675906654</speed>
  <fix>3d</fix>
</trkpt>
<trkpt lat="40.0728421" lon="-105.2305745">
  <ele>1595.57</ele>
  <time>2026-08-27T18:27:25Z</time>
  <course>233.42</course>
  <speed>0.08</speed>
  <fix>3d</fix>
</trkpt>
<trkpt lat="40.0728419" lon="-105.2305747">
  <ele>1595.49</ele>
  <time>2026-08-27T18:27:25Z</time>
  <course>17.43</course>
  <speed>0.06403124237432849</speed>
  <fix>3d</fix>
</trkpt>
<trkpt lat="40.072842" lon="-105.2305747">
  <ele>1595.47</ele>
  <time>2026-08-27T18:27:25Z</time>
  <course>238.52</course>
  <speed>0.07</speed>
  <fix>3d</fix>
</trkpt>
<trkpt lat="40.0728418" lon="-105.2305748">
  <ele>1595.39</ele>
  <time>2026-08-27T18:27:25Z</time>
  <course>17.45</course>
  <speed>0.0565685424949238</speed>
  <fix>3d</fix>
</trkpt>
<trkpt lat="40.072842" lon="-105.2305748">
  <ele>1595.37</ele>
  <time>2026-08-27T18:27:25Z</time>
  <course>244.14</course>
  <speed>0.07</speed>
  <fix>3d</fix>
</trkpt>
<trkpt lat="40.0728418" lon="-105.230575">
  <ele>1595.29</ele>
  <time>2026-08-27T18:27:25Z</time>
  <course>17.47</course>
  <speed>0.04242640687119285</speed>
  <fix>3d</fix>
</trkpt>
<trkpt lat="40.0728419" lon="-105.230575">
  <ele>1595.28</ele>
  <time>2026-08-27T18:27:25Z</time>
  <course>250.6</course>
  <speed>0.06</speed>
  <fix>3d</fix>
</trkpt>
<trkpt lat="40.0728418" lon="-105.2305751">
  <ele>1595.2</ele>
  <time>2026-08-27T18:27:25Z</time>
  <course>17.49</course>
  <speed>0.03605551275463989</speed>
  <fix>3d</fix>
</trkpt>
<trkpt lat="40.0728419" lon="-105.2305752">
  <ele>1595.17</ele>
  <time>2026-08-27T18:27:25Z</time>
  <course>258.51</course>
  <speed>0.05</speed>
  <fix>3d</fix>
</trkpt>
<trkpt lat="40.0728418" lon="-105.2305752">
  <ele>1595.1</ele>
  <time>2026-08-27T18:27:25Z</time>
  <course>17.51</course>
  <speed>0.022360679774997897</speed>
  <fix>3d</fix>
</trkpt>
<trkpt lat="40.0728419" lon="-105.2305753">
  <ele>1595.08</ele>
  <time>2026-08-27T18:27:25Z</time>
  <course>268.01</course>
  <speed>0.05</speed>
  <fix>3d</fix>
</trkpt>
<trkpt lat="40.0728418" lon="-105.2305753">
  <ele>1595.0</ele>
  <time>2026-08-27T18:27:25Z</time>
  <course>17.52</course>
  <speed>0.01</speed>
  <fix>3d</fix>
</trkpt>
<trkpt lat="40.0728419" lon="-105.2305754">
  <ele>1594.98</ele>
  <time>2026-08-27T18:27:25Z</time>
  <course>278.84</course>
  <speed>0.04</speed>
  <fix>3d</fix>
</trkpt>
<trkpt lat="40.0728418" lon="-105.2305753">
  <ele>1594.9</ele>
  <time>2026-08-27T18:27:25Z</time>
  <course>17.53</course>
  <speed>0.01</speed>
  <fix>3d</fix>
</trkpt>
<trkpt lat="40.0728419" lon="-105.2305755">
  <ele>1594.88</ele>
  <time>2026-08-27T18:27:25Z</time>
  <course>291.07</course>
  <speed>0.04</speed>
  <fix>3d</fix>
</trkpt>
<trkpt lat="40.0728418" lon="-105.2305754">
  <ele>1594.79</ele>
  <time>2026-08-27T18:27:25Z</time>
  <course>17.55</course>
  <speed>0.0</speed>
  <fix>3d</fix>
</trkpt>
<trkpt lat="40.072842" lon="-105.2305756">
  <ele>1594.78</ele>
  <time>2026-08-27T18:27:25Z</time>
  <course>304.24</course>
  <speed>0.03</speed>
  <fix>3d</fix>
</trkpt>
<trkpt lat="40.0728418" lon="-105.2305755">
  <ele>1594.69</ele>
  <time>2026-08-27T18:27:25Z</time>
  <course>17.56</course>
  <speed>0.0</speed>
  <fix>3d</fix>
</trkpt>
<trkpt lat="40.072842" lon="-105.2305756">
  <ele>1594.67</ele>
  <time>2026-08-27T18:27:25Z</time>
  <course>317.87</course>
  <speed>0.03</speed>
  <fix>3d</fix>
</trkpt>
<trkpt lat="40.0728419" lon="-105.2305755">
  <ele>1594.59</ele>
  <time>2026-08-27T18:27:25Z</time>
  <course>17.57</course>
  <speed>0.01</speed>
  <fix>3d</fix>
</trkpt>
<trkpt lat="40.072842" lon="-105.2305756">
  <ele>1594.58</ele>
  <time>2026-08-27T18:27:25Z</time>
  <course>330.9</course>
  <speed>0.03</speed>
  <fix>3d</fix>
</trkpt>
<trkpt lat="40.0728419" lon="-105.2305755">
  <ele>1594.49</ele>
  <time>2026-08-27T18:27:25Z</time>
  <course>17.58</course>
  <speed>0.01414213562373095</speed>
  <fix>3d</fix>
</trkpt>
<trkpt lat="40.072842" lon="-105.2305757">
  <ele>1594.48</ele>
  <time>2026-08-27T18:27:25Z</time>
  <course>342.42</course>
  <speed>0.03</speed>
  <fix>3d</fix>
</trkpt>
<trkpt lat="40.072842" lon="-105.2305755">
  <ele>1594.39</ele>
  <time>2026-08-27T18:27:25Z</time>
  <course>17.6</course>
  <speed>0.022360679774997897</speed>
  <fix>3d</fix>
</trkpt>
<trkpt lat="40.072842" lon="-105.2305758">
  <ele>1594.37</ele>
  <time>2026-08-27T18:27:25Z</time>
  <course>352.65</course>
  <speed>0.03</speed>
  <fix>3d</fix>
</trkpt>
<trkpt lat="40.072842" lon="-105.2305755">
  <ele>1594.29</ele>
  <time>2026-08-27T18:27:25Z</time>
  <course>17.61</course>
  <speed>0.022360679774997897</speed>
  <fix>3d</fix>
</trkpt>
<trkpt lat="40.0728421" lon="-105.2305758">
  <ele>1594.27</ele>
  <time>2026-08-27T18:27:25Z</time>
  <course>1.37</course>
  <speed>0.03</speed>
  <fix>3d</fix>
</trkpt>
<trkpt lat="40.0728421" lon="-105.2305755">
  <ele>1594.19</ele>
  <time>2026-08-27T18:27:25Z</time>
  <course>17.62</course>
  <speed>0.02</speed>
  <fix>3d</fix>
</trkpt>
<trkpt lat="40.0728421" lon="-105.2305758">
  <ele>1594.16</ele>
  <time>2026-08-27T18:27:25Z</time>
  <course>8.77</course>
  <speed>0.03</speed>
  <fix>3d</fix>
</trkpt>
<trkpt lat="40.0728421" lon="-105.2305755">
  <ele>1594.09</ele>
  <time>2026-08-27T18:27:25Z</time>
  <course>17.63</course>
  <speed>0.03</speed>
  <fix>3d</fix>
</trkpt>
<trkpt lat="40.0728422" lon="-105.2305758">
  <ele>1594.07</ele>
  <time>2026-08-27T18:27:25Z</time>
  <course>15.23</course>
  <speed>0.03</speed>
  <fix>3d</fix>
</trkpt>
<trkpt lat="40.0728422" lon="-105.2305755">
  <ele>1593.99</ele>
  <time>2026-08-27T18:27:25Z</time>
  <course>17.63</course>
  <speed>0.03</speed>
  <fix>3d</fix>
</trkpt>
<trkpt lat="40.0728423" lon="-105.2305758">
  <ele>1593.97</ele>
  <time>2026-08-27T18:27:25Z</time>
  <course>21.63</course>
  <speed>0.03</speed>
  <fix>3d</fix>
</trkpt>
<trkpt lat="40.0728422" lon="-105.2305755">
  <ele>1593.89</ele>
  <time>2026-08-27T18:27:25Z</time>
  <course>17.64</course>
  <speed>0.03</speed>
  <fix>3d</fix>
</trkpt>
<trkpt lat="40.0728423" lon="-105.2305758">
  <ele>1593.87</ele>
  <time>2026-08-27T18:27:25Z</time>
  <course>27.97</course>
  <speed>0.03</speed>
  <fix>3d</fix>
</trkpt>
<trkpt lat="40.0728422" lon="-105.2305755">
  <ele>1593.79</ele>
  <time>2026-08-27T18:27:25Z</time>
  <course>17.65</course>
  <speed>0.03</speed>
  <fix>3d</fix>
</trkpt>
<trkpt lat="40.0728424" lon="-105.2305757">
  <ele>1593.78</ele>
  <time>2026-08-27T18:27:25Z</time>
  <course>33.93</course>
  <speed>0.03</speed>
  <fix>3d</fix>
</trkpt>
<trkpt lat="40.0728423" lon="-105.2305755">
  <ele>1593.69</ele>
  <time>2026-08-27T18:27:25Z</time>
  <course>17.66</course>
  <speed>0.03</speed>
  <fix>3d</fix>
</trkpt>
<trkpt lat="40.0728424" lon="-105.2305756">
  <ele>1593.67</ele>
  <time>2026-08-27T18:27:25Z</time>
  <course>39.67</course>
  <speed>0.02</speed>
  <fix>3d</fix>
</trkpt>
<trkpt lat="40.0728423" lon="-105.2305754">
  <ele>1593.59</ele>
  <time>2026-08-27T18:27:25Z</time>
  <course>17.67</course>
  <speed>0.03</speed>
  <fix>3d</fix>
</trkpt>
<trkpt lat="40.0728425" lon="-105.2305756">
  <ele>1593.58</ele>
  <time>2026-08-27T18:27:25Z</time>
  <course>46.18</course>
  <speed>0.02</speed>
  <fix>3d</fix>
</trkpt>
<trkpt lat="40.0728423" lon="-105.2305754">
  <ele>1593.49</ele>
  <time>2026-08-27T18:27:25Z</time>
  <course>17.69</course>
  <speed>0.0316227766016838</speed>
  <fix>3d</fix>
</trkpt>
<trkpt lat="40.0728425" lon="-105.2305756">
  <ele>1593.48</ele>
  <time>2026-08-27T18:27:25Z</time>
  <course>53.62</course>
  <speed>0.02</speed>
  <fix>3d</fix>
</trkpt>
<trkpt lat="40.0728423" lon="-105.2305753">
  <ele>1593.39</ele>
  <time>2026-08-27T18:27:25Z</time>
  <course>17.69</course>
  <speed>0.0316227766016838</speed>
  <fix>3d</fix>
</trkpt>
<trkpt lat="40.0728425" lon="-105.2305755">
  <ele>1593.38</ele>
  <time>2026-08-27T18:27:25Z</time>
  <course>61.59</course>
  <speed>0.02</speed>
  <fix>3d</fix>
</trkpt>
<trkpt lat="40.0728423" lon="-105.2305753">
  <ele>1593.29</ele>
  <time>2026-08-27T18:27:25Z</time>
  <course>17.69</course>
  <speed>0.03605551275463989</speed>
  <fix>3d</fix>
</trkpt>
<trkpt lat="40.0728426" lon="-105.2305755">
  <ele>1593.28</ele>
  <time>2026-08-27T18:27:25Z</time>
  <course>70.92</course>
  <speed>0.01</speed>
  <fix>3d</fix>
</trkpt>
<trkpt lat="40.0728423" lon="-105.2305753">
  <ele>1593.19</ele>
  <time>2026-08-27T18:27:25Z</time>
  <course>17.7</course>
  <speed>0.03605551275463989</speed>
  <fix>3d</fix>
</trkpt>
<trkpt lat="40.0728426" lon="-105.2305755">
  <ele>1593.17</ele>
  <time>2026-08-27T18:27:25Z</time>
  <course>82.32</course>
  <speed>0.01</speed>
  <fix>3d</fix>
</trkpt>
<trkpt lat="40.0728424" lon="-105.2305752">
  <ele>1593.09</ele>
  <time>2026-08-27T18:27:25Z</time>
  <course>17.72</course>
  <speed>0.0282842712474619</speed>
  <fix>3d</fix>
</trkpt>
<trkpt lat="40.0728426" lon="-105.2305754">
  <ele>1593.08</ele>
  <time>2026-08-27T18:27:25Z</time>
  <course>95.62</course>
  <speed>0.01</speed>
  <fix>3d</fix>
</trkpt>
<trkpt lat="40.0728424" lon="-105.2305752">
  <ele>1592.99</ele>
  <time>2026-08-27T18:27:25Z</time>
  <course>17.74</course>
  <speed>0.0282842712474619</speed>
  <fix>3d</fix>
</trkpt>
<trkpt lat="40.0728426" lon="-105.2305753">
  <ele>1592.98</ele>
  <time>2026-08-27T18:27:25Z</time>
  <course>110.74</course>
  <speed>0.01</speed>
  <fix>3d</fix>
</trkpt>
<trkpt lat="40.0728424" lon="-105.2305752">
  <ele>1592.89</ele>
  <time>2026-08-27T18:27:25Z</time>
  <course>17.74</course>
  <speed>0.03605551275463989</speed>
  <fix>3d</fix>
</trkpt>
<trkpt lat="40.0728426" lon="-105.2305753">
  <ele>1592.88</ele>
  <time>2026-08-27T18:27:25Z</time>
  <course>126.41</course>
  <speed>0.01</speed>
  <fix>3d</fix>
</trkpt>
<trkpt lat="40.0728424" lon="-105.2305752">
  <ele>1592.79</ele>
  <time>2026-08-27T18:27:25Z</time>
  <course>17.76</course>
  <speed>0.03605551275463989</speed>
  <fix>3d</fix>
</trkpt>
<trkpt lat="40.0728426" lon="-105.2305753">
  <ele>1592.79</ele>
  <time>2026-08-27T18:27:25Z</time>
  <course>140.54</course>
  <speed>0.01</speed>
  <fix>3d</fix>
</trkpt>
<trkpt lat="40.0728424" lon="-105.2305752">
  <ele>1592.69</ele>
  <time>2026-08-27T18:27:25Z</time>
  <course>17.77</course>
  <speed>0.03605551275463989</speed>
  <fix>3d</fix>
</trkpt>
<trkpt lat="40.0728426" lon="-105.2305753">
  <ele>1592.69</ele>
  <time>2026-08-27T18:27:25Z</time>
  <course>151.47</course>
  <speed>0.01</speed>
  <fix>3d</fix>
</trkpt>
<trkpt lat="40.0728424" lon="-105.2305751">
  <ele>1592.59</ele>
  <time>2026-08-27T18:27:25Z</time>
  <course>17.76</course>
  <speed>0.03605551275463989</speed>
  <fix>3d</fix>
</trkpt>
<trkpt lat="40.0728426" lon="-105.2305753">
  <ele>1592.59</ele>
  <time>2026-08-27T18:27:25Z</time>
  <course>160.68</course>
  <speed>0.01</speed>
  <fix>3d</fix>
</trkpt>
<trkpt lat="40.0728424" lon="-105.2305751">
  <ele>1592.48</ele>
  <time>2026-08-27T18:27:25Z</time>
  <course>17.77</course>
  <speed>0.0316227766016838</speed>
  <fix>3d</fix>
</trkpt>
<trkpt lat="40.0728425" lon="-105.2305753">
  <ele>1592.49</ele>
  <time>2026-08-27T18:27:25Z</time>
  <course>169.33</course>
  <speed>0.01</speed>
  <fix>3d</fix>
</trkpt>
<trkpt lat="40.0728423" lon="-105.2305751">
  <ele>1592.38</ele>
  <time>2026-08-27T18:27:25Z</time>
  <course>17.77</course>
  <speed>0.0316227766016838</speed>
  <fix>3d</fix>
</trkpt>
<trkpt lat="40.0728425" lon="-105.2305753">
  <ele>1592.38</ele>
  <time>2026-08-27T18:27:25Z</time>
  <course>176.15</course>
  <speed>0.01</speed>
  <fix>3d</fix>
</trkpt>
<trkpt lat="40.0728423" lon="-105.2305751">
  <ele>1592.29</ele>
  <time>2026-08-27T18:27:25Z</time>
  <course>17.77</course>
  <speed>0.0316227766016838</speed>
  <fix>3d</fix>
</trkpt>
<trkpt lat="40.0728425" lon="-105.2305753">
  <ele>1592.29</ele>
  <time>2026-08-27T18:27:25Z</time>
  <course>181.49</course>
  <speed>0.01</speed>
  <fix>3d</fix>
</trkpt>
<trkpt lat="40.0728423" lon="-105.2305752">
  <ele>1592.19</ele>
  <time>2026-08-27T18:27:25Z</time>
  <course>17.78</course>
  <speed>0.0316227766016838</speed>
  <fix>3d</fix>
</trkpt>
<trkpt lat="40.0728424" lon="-105.2305753">
  <ele>1592.19</ele>
  <time>2026-08-27T18:27:25Z</time>
  <course>185.8</course>
  <speed>0.01</speed>
  <fix>3d</fix>
</trkpt>
<trkpt lat="40.0728423" lon="-105.2305752">
  <ele>1592.09</ele>
  <time>2026-08-27T18:27:25Z</time>
  <course>17.79</course>
  <speed>0.0316227766016838</speed>
  <fix>3d</fix>
</trkpt>
<trkpt lat="40.0728424" lon="-105.2305753">
  <ele>1592.1</ele>
  <time>2026-08-27T18:27:25Z</time>
  <course>188.75</course>
  <speed>0.01</speed>
  <fix>3d</fix>
</trkpt>
<trkpt lat="40.0728422" lon="-105.2305752">
  <ele>1591.99</ele>
  <time>2026-08-27T18:27:25Z</time>
  <course>17.81</course>
  <speed>0.0316227766016838</speed>
  <fix>3d</fix>
</trkpt>
<trkpt lat="40.0728424" lon="-105.2305753">
  <ele>1592.0</ele>
  <time>2026-08-27T18:27:25Z</time>
  <course>191.0</course>
  <speed>0.01</speed>
  <fix>3d</fix>
</trkpt>
<trkpt lat="40.0728422" lon="-105.2305752">
  <ele>1591.89</ele>
  <time>2026-08-27T18:27:25Z</time>
  <course>17.82</course>
  <speed>0.0316227766016838</speed>
  <fix>3d</fix>
</trkpt>
<trkpt lat="40.0728423" lon="-105.2305753">
  <ele>1591.89</ele>
  <time>2026-08-27T18:27:25Z</time>
  <course>193.48</course>
  <speed>0.01</speed>
  <fix>3d</fix>
</trkpt>
<trkpt lat="40.0728422" lon="-105.2305752">
  <ele>1591.79</ele>
  <time>2026-08-27T18:27:25Z</time>
  <course>17.83</course>
  <speed>0.0316227766016838</speed>
  <fix>3d</fix>
</trkpt>
<trkpt lat="40.0728423" lon="-105.2305753">
  <ele>1591.8</ele>
  <time>2026-08-27T18:27:25Z</time>
  <course>196.66</course>
  <speed>0.01</speed>
  <fix>3d</fix>
</trkpt>
<trkpt lat="40.0728422" lon="-105.2305752">
  <ele>1591.69</ele>
  <time>2026-08-27T18:27:25Z</time>
  <course>17.83</course>
  <speed>0.022360679774997897</speed>
  <fix>3d</fix>
</trkpt>
<trkpt lat="40.0728423" lon="-105.2305753">
  <ele>1591.7</ele>
  <time>2026-08-27T18:27:25Z</time>
  <course>200.72</course>
  <speed>0.01</speed>
  <fix>3d</fix>
</trkpt>
<trkpt lat="40.0728422" lon="-105.2305752">
  <ele>1591.59</ele>
  <time>2026-08-27T18:27:25Z</time>
  <course>17.83</course>
  <speed>0.022360679774997897</speed>
  <fix>3d</fix>
</trkpt>
<trkpt lat="40.0728423" lon="-105.2305753">
  <ele>1591.6</ele>
  <time>2026-08-27T18:27:25Z</time>
  <course>206.34</course>
  <speed>0.01</speed>
  <fix>3d</fix>
</trkpt>
<trkpt lat="40.0728421" lon="-105.2305752">
  <ele>1591.49</ele>
  <time>2026-08-27T18:27:25Z</time>
  <course>17.83</course>
  <speed>0.022360679774997897</speed>
  <fix>3d</fix>
</trkpt>
<trkpt lat="40.0728423" lon="-105.2305753">
  <ele>1591.5</ele>
  <time>2026-08-27T18:27:25Z</time>
  <course>213.22</course>
  <speed>0.0</speed>
  <fix>3d</fix>
</trkpt>
<trkpt lat="40.0728421" lon="-105.2305752">
  <ele>1591.39</ele>
  <time>2026-08-27T18:27:25Z</time>
  <course>17.83</course>
  <speed>0.022360679774997897</speed>
  <fix>3d</fix>
</trkpt>
<trkpt lat="40.0728423" lon="-105.2305753">
  <ele>1591.39</ele>
  <time>2026-08-27T18:27:25Z</time>
  <course>222.8</course>
  <speed>0.0</speed>
  <fix>3d</fix>
</trkpt>
<trkpt lat="40.0728421" lon="-105.2305752">
  <ele>1591.29</ele>
  <time>2026-08-27T18:27:25Z</time>
  <course>17.85</course>
  <speed>0.022360679774997897</speed>
  <fix>3d</fix>
</trkpt>
<trkpt lat="40.0728423" lon="-105.2305753">
  <ele>1591.3</ele>
  <time>2026-08-27T18:27:25Z</time>
  <course>235.52</course>
  <speed>0.0</speed>
  <fix>3d</fix>
</trkpt>
<trkpt lat="40.0728422" lon="-105.2305752">
  <ele>1591.19</ele>
  <time>2026-08-27T18:27:25Z</time>
  <course>17.86</course>
  <speed>0.01414213562373095</speed>
  <fix>3d</fix>
</trkpt>
<trkpt lat="40.0728422" lon="-105.2305753">
  <ele>1591.21</ele>
  <time>2026-08-27T18:27:25Z</time>
  <course>250.15</course>
  <speed>0.0</speed>
  <fix>3d</fix>
</trkpt>
<trkpt lat="40.0728421" lon="-105.2305752">
  <ele>1591.09</ele>
  <time>2026-08-27T18:27:25Z</time>
  <course>17.87</course>
  <speed>0.01414213562373095</speed>
  <fix>3d</fix>
</trkpt>
<trkpt lat="40.0728421" lon="-105.2305753">
  <ele>1591.11</ele>
  <time>2026-08-27T18:27:25Z</time>
  <course>266.09</course>
  <speed>0.0</speed>
  <fix>3d</fix>
</trkpt>
<trkpt lat="40.0728421" lon="-105.2305752">
  <ele>1590.99</ele>
  <time>2026-08-27T18:27:25Z</time>
  <course>17.88</course>
  <speed>0.01414213562373095</speed>
  <fix>3d</fix>
</trkpt>
<trkpt lat="40.0728421" lon="-105.2305753">
  <ele>1591.01</ele>
  <time>2026-08-27T18:27:25Z</time>
  <course>282.3</course>
  <speed>0.0</speed>
  <fix>3d</fix>
</trkpt>
<trkpt lat="40.0728421" lon="-105.2305752">
  <ele>1590.9</ele>
  <time>2026-08-27T18:27:25Z</time>
  <course>17.88</course>
  <speed>0.01414213562373095</speed>
  <fix>3d</fix>
</trkpt>
<trkpt lat="40.0728422" lon="-105.2305753">
  <ele>1590.9</ele>
  <time>2026-08-27T18:27:25Z</time>
  <course>297.82</course>
  <speed>0.0</speed>
  <fix>3d</fix>
</trkpt>
<trkpt lat="40.0728421" lon="-105.2305752">
  <ele>1590.8</ele>
  <time>2026-08-27T18:27:25Z</time>
  <course>17.89</course>
  <speed>0.01414213562373095</speed>
  <fix>3d</fix>
</trkpt>
<trkpt lat="40.0728423" lon="-105.2305753">
  <ele>1590.81</ele>
  <time>2026-08-27T18:27:25Z</time>
  <course>313.35</course>
  <speed>0.0</speed>
  <fix>3d</fix>
</trkpt>
<trkpt lat="40.0728421" lon="-105.2305752">
  <ele>1590.7</ele>
  <time>2026-08-27T18:27:25Z</time>
  <course>17.9</course>
  <speed>0.01414213562373095</speed>
  <fix>3d</fix>
</trkpt>
<trkpt lat="40.0728423" lon="-105.2305753">
  <ele>1590.71</ele>
  <time>2026-08-27T18:27:25Z</time>
  <course>325.87</course>
  <speed>0.0</speed>
  <fix>3d</fix>
</trkpt>
<trkpt lat="40.0728421" lon="-105.2305752">
  <ele>1590.59</ele>
  <time>2026-08-27T18:27:25Z</time>
  <course>17.9</course>
  <speed>0.01414213562373095</speed>
  <fix>3d</fix>
</trkpt>
<trkpt lat="40.0728423" lon="-105.2305753">
  <ele>1590.61</ele>
  <time>2026-08-27T18:27:25Z</time>
  <course>331.58</course>
  <speed>0.0</speed>
  <fix>3d</fix>
</trkpt>
<trkpt lat="40.0728421" lon="-105.2305752">
  <ele>1590.49</ele>
  <time>2026-08-27T18:27:25Z</time>
  <course>17.9</course>
  <speed>0.01414213562373095</speed>
  <fix>3d</fix>
</trkpt>
<trkpt lat="40.0728423" lon="-105.2305753">
  <ele>1590.51</ele>
  <time>2026-08-27T18:27:25Z</time>
  <course>332.88</course>
  <speed>0.0</speed>
  <fix>3d</fix>
</trkpt>
<trkpt lat="40.0728421" lon="-105.2305752">
  <ele>1590.39</ele>
  <time>2026-08-27T18:27:25Z</time>
  <course>17.91</course>
  <speed>0.01414213562373095</speed>
  <fix>3d</fix>
</trkpt>
<trkpt lat="40.0728423" lon="-105.2305753">
  <ele>1590.4</ele>
  <time>2026-08-27T18:27:25Z</time>
  <course>332.09</course>
  <speed>0.0</speed>
  <fix>3d</fix>
</trkpt>
<trkpt lat="40.0728421" lon="-105.2305752">
  <ele>1590.29</ele>
  <time>2026-08-27T18:27:25Z</time>
  <course>17.9</course>
  <speed>0.01414213562373095</speed>
  <fix>3d</fix>
</trkpt>
<trkpt lat="40.0728423" lon="-105.2305753">
  <ele>1590.31</ele>
  <time>2026-08-27T18:27:25Z</time>
  <course>330.98</course>
  <speed>0.0</speed>
  <fix>3d</fix>
</trkpt>
<trkpt lat="40.0728421" lon="-105.2305752">
  <ele>1590.19</ele>
  <time>2026-08-27T18:27:25Z</time>
  <course>17.9</course>
  <speed>0.01414213562373095</speed>
  <fix>3d</fix>
</trkpt>
<trkpt lat="40.0728423" lon="-105.2305753">
  <ele>1590.21</ele>
  <time>2026-08-27T18:27:25Z</time>
  <course>329.54</course>
  <speed>0.0</speed>
  <fix>3d</fix>
</trkpt>
<trkpt lat="40.0728422" lon="-105.2305752">
  <ele>1590.09</ele>
  <time>2026-08-27T18:27:25Z</time>
  <course>17.92</course>
  <speed>0.01414213562373095</speed>
  <fix>3d</fix>
</trkpt>
<trkpt lat="40.0728423" lon="-105.2305753">
  <ele>1590.11</ele>
  <time>2026-08-27T18:27:25Z</time>
  <course>326.02</course>
  <speed>0.0</speed>
  <fix>3d</fix>
</trkpt>
<trkpt lat="40.0728422" lon="-105.2305752">
  <ele>1589.99</ele>
  <time>2026-08-27T18:27:25Z</time>
  <course>17.93</course>
  <speed>0.01414213562373095</speed>
  <fix>3d</fix>
</trkpt>
<trkpt lat="40.0728423" lon="-105.2305753">
  <ele>1590.01</ele>
  <time>2026-08-27T18:27:25Z</time>
  <course>321.59</course>
  <speed>0.0</speed>
  <fix>3d</fix>
</trkpt>
<trkpt lat="40.0728422" lon="-105.2305752">
  <ele>1589.89</ele>
  <time>2026-08-27T18:27:25Z</time>
  <course>17.93</course>
  <speed>0.01414213562373095</speed>
  <fix>3d</fix>
</trkpt>
<trkpt lat="40.0728423" lon="-105.2305753">
  <ele>1589.9</ele>
  <time>2026-08-27T18:27:25Z</time>
  <course>318.34</course>
  <speed>0.0</speed>
  <fix>3d</fix>
</trkpt>
<trkpt lat="40.0728422" lon="-105.2305752">
  <ele>1589.79</ele>
  <time>2026-08-27T18:27:25Z</time>
  <course>17.93</course>
  <speed>0.01414213562373095</speed>
  <fix>3d</fix>
</trkpt>
<trkpt lat="40.0728423" lon="-105.2305754">
  <ele>1589.81</ele>
  <time>2026-08-27T18:27:25Z</time>
  <course>315.03</course>
  <speed>0.0</speed>
  <fix>3d</fix>
</trkpt>
<trkpt lat="40.0728422" lon="-105.2305752">
  <ele>1589.7</ele>
  <time>2026-08-27T18:27:25Z</time>
  <course>17.94</course>
  <speed>0.01414213562373095</speed>
  <fix>3d</fix>
</trkpt>
<trkpt lat="40.0728423" lon="-105.2305755">
  <ele>1589.71</ele>
  <time>2026-08-27T18:27:25Z</time>
  <course>310.44</course>
  <speed>0.0</speed>
  <fix>3d</fix>
</trkpt>
<trkpt lat="40.0728422" lon="-105.2305752">
  <ele>1589.6</ele>
  <time>2026-08-27T18:27:25Z</time>
  <course>17.95</course>
  <speed>0.01414213562373095</speed>
  <fix>3d</fix>
</trkpt>
<trkpt lat="40.0728423" lon="-105.2305755">
  <ele>1589.61</ele>
  <time>2026-08-27T18:27:25Z</time>
  <course>305.85</course>
  <speed>0.0</speed>
  <fix>3d</fix>
</trkpt>
<trkpt lat="40.0728422" lon="-105.2305752">
  <ele>1589.5</ele>
  <time>2026-08-27T18:27:25Z</time>
  <course>17.95</course>
  <speed>0.01414213562373095</speed>
  <fix>3d</fix>
</trkpt>
<trkpt lat="40.0728423" lon="-105.2305755">
  <ele>1589.51</ele>
  <time>2026-08-27T18:27:25Z</time>
  <course>304.29</course>
  <speed>0.0</speed>
  <fix>3d</fix>
</trkpt>
<trkpt lat="40.0728422" lon="-105.2305752">
  <ele>1589.4</ele>
  <time>2026-08-27T18:27:26Z</time>
  <course>17.96</course>
  <speed>0.01414213562373095</speed>
  <fix>3d</fix>
</trkpt>
<trkpt lat="40.0728423" lon="-105.2305755">
  <ele>1589.4</ele>
  <time>2026-08-27T18:27:26Z</time>
  <course>307.79</course>
  <speed>0.0</speed>
  <fix>3d</fix>
</trkpt>
<trkpt lat="40.0728422" lon="-105.2305752">
  <ele>1589.3</ele>
  <time>2026-08-27T18:27:26Z</time>
  <course>17.96</course>
  <speed>0.022360679774997897</speed>
  <fix>3d</fix>
</trkpt>
<trkpt lat="40.0728423" lon="-105.2305755">
  <ele>1589.31</ele>
  <time>2026-08-27T18:27:26Z</time>
  <course>320.3</course>
  <speed>0.0</speed>
  <fix>3d</fix>
</trkpt>
<trkpt lat="40.0728422" lon="-105.2305752">
  <ele>1589.2</ele>
  <time>2026-08-27T18:27:26Z</time>
  <course>17.97</course>
  <speed>0.022360679774997897</speed>
  <fix>3d</fix>
</trkpt>
<trkpt lat="40.0728423" lon="-105.2305755">
  <ele>1589.21</ele>
  <time>2026-08-27T18:27:26Z</time>
  <course>356.36</course>
  <speed>0.0</speed>
  <fix>3d</fix>
</trkpt>
<trkpt lat="40.0728422" lon="-105.2305753">
  <ele>1589.1</ele>
  <time>2026-08-27T18:27:26Z</time>
  <course>17.97</course>
  <speed>0.022360679774997897</speed>
  <fix>3d</fix>
</trkpt>
<trkpt lat="40.0728423" lon="-105.2305755">
  <ele>1589.11</ele>
  <time>2026-08-27T18:27:26Z</time>
  <course>28.34</course>
  <speed>0.0</speed>
  <fix>3d</fix>
</trkpt>
<trkpt lat="40.0728422" lon="-105.2305753">
  <ele>1589.0</ele>
  <time>2026-08-27T18:27:26Z</time>
  <course>17.97</course>
  <speed>0.022360679774997897</speed>
  <fix>3d</fix>
</trkpt>
<trkpt lat="40.0728423" lon="-105.2305755">
  <ele>1589.01</ele>
  <time>2026-08-27T18:27:26Z</time>
  <course>43.64</course>
  <speed>0.0</speed>
  <fix>3d</fix>
</trkpt>
<trkpt lat="40.0728422" lon="-105.2305753">
  <ele>1588.9</ele>
  <time>2026-08-27T18:27:26Z</time>
  <course>17.98</course>
  <speed>0.0282842712474619</speed>
  <fix>3d</fix>
</trkpt>
<trkpt lat="40.0728423" lon="-105.2305755">
  <ele>1588.9</ele>
  <time>2026-08-27T18:27:26Z</time>
  <course>55.01</course>
  <speed>0.0</speed>
  <fix>3d</fix>
</trkpt>
<trkpt lat="40.0728422" lon="-105.2305753">
  <ele>1588.79</ele>
  <time>2026-08-27T18:27:26Z</time>
  <course>17.98</course>
  <speed>0.0282842712474619</speed>
  <fix>3d</fix>
</trkpt>
<trkpt lat="40.0728423" lon="-105.2305755">
  <ele>1588.81</ele>
  <time>2026-08-27T18:27:26Z</time>
  <course>62.64</course>
  <speed>0.0</speed>
  <fix>3d</fix>
</trkpt>
<trkpt lat="40.0728422" lon="-105.2305753">
  <ele>1588.69</ele>
  <time>2026-08-27T18:27:26Z</time>
  <course>17.98</course>
  <speed>0.0282842712474619</speed>
  <fix>3d</fix>
</trkpt>
<trkpt lat="40.0728423" lon="-105.2305755">
  <ele>1588.71</ele>
  <time>2026-08-27T18:27:26Z</time>
  <course>66.52</course>
  <speed>0.0</speed>
  <fix>3d</fix>
</trkpt>
<trkpt lat="40.0728422" lon="-105.2305753">
  <ele>1588.59</ele>
  <time>2026-08-27T18:27:26Z</time>
  <course>17.98</course>
  <speed>0.022360679774997897</speed>
  <fix>3d</fix>
</trkpt>
<trkpt lat="40.0728423" lon="-105.2305755">
  <ele>1588.61</ele>
  <time>2026-08-27T18:27:26Z</time>
  <course>66.54</course>
  <speed>0.0</speed>
  <fix>3d</fix>
</trkpt>
<trkpt lat="40.0728422" lon="-105.2305753">
  <ele>1588.49</ele>
  <time>2026-08-27T18:27:26Z</time>
  <course>17.99</course>
  <speed>0.022360679774997897</speed>
  <fix>3d</fix>
</trkpt>
<trkpt lat="40.0728423" lon="-105.2305755">
  <ele>1588.51</ele>
  <time>2026-08-27T18:27:26Z</time>
  <course>65.2</course>
  <speed>0.0</speed>
  <fix>3d</fix>
</trkpt>
<trkpt lat="40.0728422" lon="-105.2305753">
  <ele>1588.39</ele>
  <time>2026-08-27T18:27:26Z</time>
  <course>17.99</course>
  <speed>0.022360679774997897</speed>
  <fix>3d</fix>
</trkpt>
<trkpt lat="40.0728423" lon="-105.2305755">
  <ele>1588.4</ele>
  <time>2026-08-27T18:27:26Z</time>
  <course>66.0</course>
  <speed>0.0</speed>
  <fix>3d</fix>
</trkpt>
<trkpt lat="40.0728422" lon="-105.2305753">
  <ele>1588.29</ele>
  <time>2026-08-27T18:27:26Z</time>
  <course>18.0</course>
  <speed>0.022360679774997897</speed>
  <fix>3d</fix>
</trkpt>
<trkpt lat="40.0728423" lon="-105.2305755">
  <ele>1588.31</ele>
  <time>2026-08-27T18:27:26Z</time>
  <course>67.69</course>
  <speed>0.0</speed>
  <fix>3d</fix>
</trkpt>
<trkpt lat="40.0728422" lon="-105.2305753">
  <ele>1588.19</ele>
  <time>2026-08-27T18:27:26Z</time>
  <course>18.0</course>
  <speed>0.022360679774997897</speed>
  <fix>3d</fix>
</trkpt>
<trkpt lat="40.0728423" lon="-105.2305755">
  <ele>1588.21</ele>
  <time>2026-08-27T18:27:26Z</time>
  <course>67.51</course>
  <speed>0.0</speed>
  <fix>3d</fix>
</trkpt>
<trkpt lat="40.0728422" lon="-105.2305753">
  <ele>1588.09</ele>
  <time>2026-08-27T18:27:26Z</time>
  <course>18.0</course>
  <speed>0.022360679774997897</speed>
  <fix>3d</fix>
</trkpt>
<trkpt lat="40.0728423" lon="-105.2305755">
  <ele>1588.11</ele>
  <time>2026-08-27T18:27:26Z</time>
  <course>67.36</course>
  <speed>0.0</speed>
  <fix>3d</fix>
</trkpt>
<trkpt lat="40.0728422" lon="-105.2305753">
  <ele>1587.99</ele>
  <time>2026-08-27T18:27:26Z</time>
  <course>18.0</course>
  <speed>0.022360679774997897</speed>
  <fix>3d</fix>
</trkpt>
<trkpt lat="40.0728423" lon="-105.2305755">
  <ele>1588.01</ele>
  <time>2026-08-27T18:27:26Z</time>
  <course>68.43</course>
  <speed>0.0</speed>
  <fix>3d</fix>
</trkpt>
<trkpt lat="40.0728422" lon="-105.2305753">
  <ele>1587.89</ele>
  <time>2026-08-27T18:27:26Z</time>
  <course>18.0</course>
  <speed>0.022360679774997897</speed>
  <fix>3d</fix>
</trkpt>
<trkpt lat="40.0728424" lon="-105.2305754">
  <ele>1587.9</ele>
  <time>2026-08-27T18:27:26Z</time>
  <course>68.45</course>
  <speed>0.0</speed>
  <fix>3d</fix>
</trkpt>
<trkpt lat="40.0728422" lon="-105.2305753">
  <ele>1587.78</ele>
  <time>2026-08-27T18:27:26Z</time>
  <course>17.99</course>
  <speed>0.022360679774997897</speed>
  <fix>3d</fix>
</trkpt>
<trkpt lat="40.0728424" lon="-105.2305753">
  <ele>1587.81</ele>
  <time>2026-08-27T18:27:26Z</time>
  <course>67.93</course>
  <speed>0.0</speed>
  <fix>3d</fix>
</trkpt>
<trkpt lat="40.0728422" lon="-105.2305753">
  <ele>1587.68</ele>
  <time>2026-08-27T18:27:26Z</time>
  <course>17.99</course>
  <speed>0.022360679774997897</speed>
  <fix>3d</fix>
</trkpt>
<trkpt lat="40.0728424" lon="-105.2305753">
  <ele>1587.71</ele>
  <time>2026-08-27T18:27:26Z</time>
  <course>67.67</course>
  <speed>0.0</speed>
  <fix>3d</fix>
</trkpt>
<trkpt lat="40.0728422" lon="-105.2305752">
  <ele>1587.59</ele>
  <time>2026-08-27T18:27:26Z</time>
  <course>17.99</course>
  <speed>0.01414213562373095</speed>
  <fix>3d</fix>
</trkpt>
<trkpt lat="40.0728424" lon="-105.2305753">
  <ele>1587.61</ele>
  <time>2026-08-27T18:27:26Z</time>
  <course>69.92</course>
  <speed>0.0</speed>
  <fix>3d</fix>
</trkpt>
<trkpt lat="40.0728422" lon="-105.2305752">
  <ele>1587.49</ele>
  <time>2026-08-27T18:27:26Z</time>
  <course>18.01</course>
  <speed>0.022360679774997897</speed>
  <fix>3d</fix>
</trkpt>
<trkpt lat="40.0728424" lon="-105.2305753">
  <ele>1587.51</ele>
  <time>2026-08-27T18:27:26Z</time>
  <course>74.73</course>
  <speed>0.0</speed>
  <fix>3d</fix>
</trkpt>
<trkpt lat="40.0728422" lon="-105.2305752">
  <ele>1587.39</ele>
  <time>2026-08-27T18:27:26Z</time>
  <course>18.02</course>
  <speed>0.022360679774997897</speed>
  <fix>3d</fix>
</trkpt>
<trkpt lat="40.0728424" lon="-105.2305753">
  <ele>1587.4</ele>
  <time>2026-08-27T18:27:26Z</time>
  <course>81.71</course>
  <speed>0.0</speed>
  <fix>3d</fix>
</trkpt>
<trkpt lat="40.0728422" lon="-105.2305752">
  <ele>1587.29</ele>
  <time>2026-08-27T18:27:26Z</time>
  <course>18.03</course>
  <speed>0.022360679774997897</speed>
  <fix>3d</fix>
</trkpt>
<trkpt lat="40.0728424" lon="-105.2305753">
  <ele>1587.31</ele>
  <time>2026-08-27T18:27:26Z</time>
  <course>96.71</course>
  <speed>0.0</speed>
  <fix>3d</fix>
</trkpt>
<trkpt lat="40.0728422" lon="-105.2305752">
  <ele>1587.19</ele>
  <time>2026-08-27T18:27:26Z</time>
  <course>18.03</course>
  <speed>0.022360679774997897</speed>
  <fix>3d</fix>
</trkpt>
<trkpt lat="40.0728424" lon="-105.2305753">
  <ele>1587.21</ele>
  <time>2026-08-27T18:27:26Z</time>
  <course>122.82</course>
  <speed>0.0</speed>
  <fix>3d</fix>
</trkpt>
<trkpt lat="40.0728422" lon="-105.2305752">
  <ele>1587.09</ele>
  <time>2026-08-27T18:27:26Z</time>
  <course>18.03</course>
  <speed>0.022360679774997897</speed>
  <fix>3d</fix>
</trkpt>
<trkpt lat="40.0728424" lon="-105.2305753">
  <ele>1587.11</ele>
  <time>2026-08-27T18:27:26Z</time>
  <course>155.12</course>
  <speed>0.0</speed>
  <fix>3d</fix>
</trkpt>
<trkpt lat="40.0728422" lon="-105.2305752">
  <ele>1586.99</ele>
  <time>2026-08-27T18:27:26Z</time>
  <course>18.04</course>
  <speed>0.022360679774997897</speed>
  <fix>3d</fix>
</trkpt>
<trkpt lat="40.0728424" lon="-105.2305753">
  <ele>1587.01</ele>
  <time>2026-08-27T18:27:26Z</time>
  <course>179.29</course>
  <speed>0.0</speed>
  <fix>3d</fix>
</trkpt>
<trkpt lat="40.0728422" lon="-105.2305752">
  <ele>1586.89</ele>
  <time>2026-08-27T18:27:26Z</time>
  <course>18.03</course>
  <speed>0.022360679774997897</speed>
  <fix>3d</fix>
</trkpt>
<trkpt lat="40.0728424" lon="-105.2305753">
  <ele>1586.91</ele>
  <time>2026-08-27T18:27:26Z</time>
  <course>192.42</course>
  <speed>0.0</speed>
  <fix>3d</fix>
</trkpt>
<trkpt lat="40.0728422" lon="-105.2305752">
  <ele>1586.79</ele>
  <time>2026-08-27T18:27:26Z</time>
  <course>18.04</course>
  <speed>0.022360679774997897</speed>
  <fix>3d</fix>
</trkpt>
<trkpt lat="40.0728424" lon="-105.2305753">
  <ele>1586.82</ele>
  <time>2026-08-27T18:27:26Z</time>
  <course>198.43</course>
  <speed>0.0</speed>
  <fix>3d</fix>
</trkpt>
<trkpt lat="40.0728422" lon="-105.2305752">
  <ele>1586.69</ele>
  <time>2026-08-27T18:27:26Z</time>
  <course>18.04</course>
  <speed>0.022360679774997897</speed>
  <fix>3d</fix>
</trkpt>
<trkpt lat="40.0728424" lon="-105.2305753">
  <ele>1586.72</ele>
  <time>2026-08-27T18:27:26Z</time>
  <course>201.12</course>
  <speed>0.0</speed>
  <fix>3d</fix>
</trkpt>
<trkpt lat="40.0728422" lon="-105.2305752">
  <ele>1586.59</ele>
  <time>2026-08-27T18:27:26Z</time>
  <course>18.05</course>
  <speed>0.022360679774997897</speed>
  <fix>3d</fix>
</trkpt>
<trkpt lat="40.0728424" lon="-105.2305753">
  <ele>1586.62</ele>
  <time>2026-08-27T18:27:26Z</time>
  <course>203.11</course>
  <speed>0.0</speed>
  <fix>3d</fix>
</trkpt>
<trkpt lat="40.0728422" lon="-105.2305752">
  <ele>1586.49</ele>
  <time>2026-08-27T18:27:26Z</time>
  <course>18.05</course>
  <speed>0.022360679774997897</speed>
  <fix>3d</fix>
</trkpt>
<trkpt lat="40.0728424" lon="-105.2305753">
  <ele>1586.52</ele>
  <time>2026-08-27T18:27:26Z</time>
  <course>205.36</course>
  <speed>0.0</speed>
  <fix>3d</fix>
</trkpt>
<trkpt lat="40.0728422" lon="-105.2305752">
  <ele>1586.39</ele>
  <time>2026-08-27T18:27:26Z</time>
  <course>18.05</course>
  <speed>0.022360679774997897</speed>
  <fix>3d</fix>
</trkpt>
<trkpt lat="40.0728424" lon="-105.2305753">
  <ele>1586.41</ele>
  <time>2026-08-27T18:27:26Z</time>
  <course>206.56</course>
  <speed>0.0</speed>
  <fix>3d</fix>
</trkpt>
<trkpt lat="40.0728422" lon="-105.2305752">
  <ele>1586.29</ele>
  <time>2026-08-27T18:27:26Z</time>
  <course>18.05</course>
  <speed>0.022360679774997897</speed>
  <fix>3d</fix>
</trkpt>
<trkpt lat="40.0728424" lon="-105.2305753">
  <ele>1586.32</ele>
  <time>2026-08-27T18:27:26Z</time>
  <course>207.37</course>
  <speed>0.0</speed>
  <fix>3d</fix>
</trkpt>
<trkpt lat="40.0728422" lon="-105.2305752">
  <ele>1586.19</ele>
  <time>2026-08-27T18:27:26Z</time>
  <course>18.05</course>
  <speed>0.022360679774997897</speed>
  <fix>3d</fix>
</trkpt>
<trkpt lat="40.0728424" lon="-105.2305753">
  <ele>1586.22</ele>
  <time>2026-08-27T18:27:26Z</time>
  <course>209.91</course>
  <speed>0.0</speed>
  <fix>3d</fix>
</trkpt>
<trkpt lat="40.0728422" lon="-105.2305752">
  <ele>1586.12</ele>
  <time>2026-08-27T18:27:26Z</time>
  <course>18.05</course>
  <speed>0.01</speed>
  <fix>3d</fix>
</trkpt>
<trkpt lat="40.0728424" lon="-105.2305753">
  <ele>1586.12</ele>
  <time>2026-08-27T18:27:26Z</time>
  <course>265.0</course>
  <speed>0.01</speed>
  <fix>3d</fix>
</trkpt>
<trkpt lat="40.0728422" lon="-105.2305752">
  <ele>1586.15</ele>
  <time>2026-08-27T18:27:26Z</time>
  <course>18.09</course>
  <speed>0.01414213562373095</speed>
  <fix>3d</fix>
</trkpt>
<trkpt lat="40.0728424" lon="-105.2305753">
  <ele>1586.07</ele>
  <time>2026-08-27T18:27:26Z</time>
  <course>289.63</course>
  <speed>0.01</speed>
  <fix>3d</fix>
</trkpt>
<trkpt lat="40.0728422" lon="-105.2305752">
  <ele>1586.16</ele>
  <time>2026-08-27T18:27:26Z</time>
  <course>18.13</course>
  <speed>0.01414213562373095</speed>
  <fix>3d</fix>
</trkpt>
<trkpt lat="40.0728424" lon="-105.2305753">
  <ele>1586.09</ele>
  <time>2026-08-27T18:27:26Z</time>
  <course>341.69</course>
  <speed>0.0</speed>
  <fix>3d</fix>
</trkpt>
<trkpt lat="40.0728422" lon="-105.2305752">
  <ele>1586.15</ele>
  <time>2026-08-27T18:27:26Z</time>
  <course>18.17</course>
  <speed>0.01414213562373095</speed>
  <fix>3d</fix>
</trkpt>
<trkpt lat="40.0728424" lon="-105.2305753">
  <ele>1586.09</ele>
  <time>2026-08-27T18:27:26Z</time>
  <course>98.31</course>
  <speed>0.0</speed>
  <fix>3d</fix>
</trkpt>
<trkpt lat="40.0728422" lon="-105.2305752">
  <ele>1586.15</ele>
  <time>2026-08-27T18:27:26Z</time>
  <course>18.21</course>
  <speed>0.01414213562373095</speed>
  <fix>3d</fix>
</trkpt>
<trkpt lat="40.0728424" lon="-105.2305753">
  <ele>1586.09</ele>
  <time>2026-08-27T18:27:26Z</time>
  <course>163.33</course>
  <speed>0.0</speed>
  <fix>3d</fix>
</trkpt>
<trkpt lat="40.0728422" lon="-105.2305752">
  <ele>1586.15</ele>
  <time>2026-08-27T18:27:26Z</time>
  <course>18.24</course>
  <speed>0.01414213562373095</speed>
  <fix>3d</fix>
</trkpt>
<trkpt lat="40.0728424" lon="-105.2305753">
  <ele>1586.09</ele>
  <time>2026-08-27T18:27:26Z</time>
  <course>351.6</course>
  <speed>0.0</speed>
  <fix>3d</fix>
</trkpt>
<trkpt lat="40.0728422" lon="-105.2305752">
  <ele>1586.15</ele>
  <time>2026-08-27T18:27:26Z</time>
  <course>18.26</course>
  <speed>0.01414213562373095</speed>
  <fix>3d</fix>
</trkpt>
<trkpt lat="40.0728424" lon="-105.2305753">
  <ele>1586.09</ele>
  <time>2026-08-27T18:27:26Z</time>
  <course>41.61</course>
  <speed>0.0</speed>
  <fix>3d</fix>
</trkpt>
<trkpt lat="40.0728422" lon="-105.2305752">
  <ele>1586.15</ele>
  <time>2026-08-27T18:27:26Z</time>
  <course>18.29</course>
  <speed>0.01414213562373095</speed>
  <fix>3d</fix>
</trkpt>
<trkpt lat="40.0728424" lon="-105.2305753">
  <ele>1586.09</ele>
  <time>2026-08-27T18:27:26Z</time>
  <course>356.94</course>
  <speed>0.0</speed>
  <fix>3d</fix>
</trkpt>
<trkpt lat="40.0728422" lon="-105.2305752">
  <ele>1586.15</ele>
  <time>2026-08-27T18:27:26Z</time>
  <course>18.31</course>
  <speed>0.01414213562373095</speed>
  <fix>3d</fix>
</trkpt>
<trkpt lat="40.0728424" lon="-105.2305753">
  <ele>1586.09</ele>
  <time>2026-08-27T18:27:26Z</time>
  <course>340.69</course>
  <speed>0.0</speed>
  <fix>3d</fix>
</trkpt>
<trkpt lat="40.0728422" lon="-105.2305752">
  <ele>1586.15</ele>
  <time>2026-08-27T18:27:26Z</time>
  <course>18.34</course>
  <speed>0.01414213562373095</speed>
  <fix>3d</fix>
</trkpt>
<trkpt lat="40.0728424" lon="-105.2305753">
  <ele>1586.09</ele>
  <time>2026-08-27T18:27:26Z</time>
  <course>15.37</course>
  <speed>0.0</speed>
  <fix>3d</fix>
</trkpt>
<trkpt lat="40.0728422" lon="-105.2305752">
  <ele>1586.15</ele>
  <time>2026-08-27T18:27:26Z</time>
  <course>18.32</course>
  <speed>0.03605551275463989</speed>
  <fix>3d</fix>
</trkpt>
<trkpt lat="40.0728424" lon="-105.2305753">
  <ele>1586.09</ele>
  <time>2026-08-27T18:27:26Z</time>
  <course>105.94</course>
  <speed>0.01</speed>
  <fix>3d</fix>
</trkpt>
<trkpt lat="40.0728422" lon="-105.2305752">
  <ele>1586.15</ele>
  <time>2026-08-27T18:27:26Z</time>
  <course>18.28</course>
  <speed>0.01414213562373095</speed>
  <fix>3d</fix>
</trkpt>
<trkpt lat="40.0728424" lon="-105.2305753">
  <ele>1586.09</ele>
  <time>2026-08-27T18:27:26Z</time>
  <course>108.92</course>
  <speed>0.01</speed>
  <fix>3d</fix>
</trkpt>
<trkpt lat="40.0728422" lon="-105.2305752">
  <ele>1586.15</ele>
  <time>2026-08-27T18:27:26Z</time>
  <course>18.25</course>
  <speed>0.01414213562373095</speed>
  <fix>3d</fix>
</trkpt>
<trkpt lat="40.0728424" lon="-105.2305753">
  <ele>1586.09</ele>
  <time>2026-08-27T18:27:26Z</time>
  <course>243.08</course>
  <speed>0.0</speed>
  <fix>3d</fix>
</trkpt>
<trkpt lat="40.0728422" lon="-105.2305752">
  <ele>1586.15</ele>
  <time>2026-08-27T18:27:26Z</time>
  <course>18.23</course>
  <speed>0.01414213562373095</speed>
  <fix>3d</fix>
</trkpt>
<trkpt lat="40.0728424" lon="-105.2305753">
  <ele>1586.09</ele>
  <time>2026-08-27T18:27:26Z</time>
  <course>272.06</course>
  <speed>0.0</speed>
  <fix>3d</fix>
</trkpt>
<trkpt lat="40.0728422" lon="-105.2305752">
  <ele>1586.15</ele>
  <time>2026-08-27T18:27:26Z</time>
  <course>18.22</course>
  <speed>0.01414213562373095</speed>
  <fix>3d</fix>
</trkpt>
<trkpt lat="40.0728424" lon="-105.2305753">
  <ele>1586.09</ele>
  <time>2026-08-27T18:27:26Z</time>
  <course>240.03</course>
  <speed>0.0</speed>
  <fix>3d</fix>
</trkpt>
<trkpt lat="40.0728422" lon="-105.2305752">
  <ele>1586.15</ele>
  <time>2026-08-27T18:27:26Z</time>
  <course>18.22</course>
  <speed>0.022360679774997897</speed>
  <fix>3d</fix>
</trkpt>
<trkpt lat="40.0728424" lon="-105.2305753">
  <ele>1586.09</ele>
  <time>2026-08-27T18:27:26Z</time>
  <course>239.47</course>
  <speed>0.0</speed>
  <fix>3d</fix>
</trkpt>
<trkpt lat="40.0728422" lon="-105.2305752">
  <ele>1586.15</ele>
  <time>2026-08-27T18:27:26Z</time>
  <course>18.22</course>
  <speed>0.022360679774997897</speed>
  <fix>3d</fix>
</trkpt>
<trkpt lat="40.0728424" lon="-105.2305753">
  <ele>1586.09</ele>
  <time>2026-08-27T18:27:26Z</time>
  <course>249.04</course>
  <speed>0.0</speed>
  <fix>3d</fix>
</trkpt>
<trkpt lat="40.0728422" lon="-105.2305752">
  <ele>1586.15</ele>
  <time>2026-08-27T18:27:26Z</time>
  <course>18.22</course>
  <speed>0.01414213562373095</speed>
  <fix>3d</fix>
</trkpt>
<trkpt lat="40.0728424" lon="-105.2305753">
  <ele>1586.09</ele>
  <time>2026-08-27T18:27:26Z</time>
  <course>243.3</course>
  <speed>0.0</speed>
  <fix>3d</fix>
</trkpt>
<trkpt lat="40.0728422" lon="-105.2305752">
  <ele>1586.15</ele>
  <time>2026-08-27T18:27:26Z</time>
  <course>18.22</course>
  <speed>0.022360679774997897</speed>
  <fix>3d</fix>
</trkpt>
<trkpt lat="40.0728424" lon="-105.2305753">
  <ele>1586.09</ele>
  <time>2026-08-27T18:27:26Z</time>
  <course>225.26</course>
  <speed>0.0</speed>
  <fix>3d</fix>
</trkpt>
<trkpt lat="40.0728422" lon="-105.2305752">
  <ele>1586.15</ele>
  <time>2026-08-27T18:27:26Z</time>
  <course>18.22</course>
  <speed>0.022360679774997897</speed>
  <fix>3d</fix>
</trkpt>
<trkpt lat="40.0728424" lon="-105.2305753">
  <ele>1586.09</ele>
  <time>2026-08-27T18:27:26Z</time>
  <course>75.59</course>
  <speed>0.0</speed>
  <fix>3d</fix>
</trkpt>
<trkpt lat="40.0728422" lon="-105.2305752">
  <ele>1586.15</ele>
  <time>2026-08-27T18:27:26Z</time>
  <course>18.22</course>
  <speed>0.022360679774997897</speed>
  <fix>3d</fix>
</trkpt>
<trkpt lat="40.0728424" lon="-105.2305753">
  <ele>1586.09</ele>
  <time>2026-08-27T18:27:26Z</time>
  <course>355.82</course>
  <speed>0.0</speed>
  <fix>3d</fix>
</trkpt>
<trkpt lat="40.0728422" lon="-105.2305752">
  <ele>1586.15</ele>
  <time>2026-08-27T18:27:26Z</time>
  <course>18.21</course>
  <speed>0.022360679774997897</speed>
  <fix>3d</fix>
</trkpt>
<trkpt lat="40.0728424" lon="-105.2305753">
  <ele>1586.09</ele>
  <time>2026-08-27T18:27:26Z</time>
  <course>268.24</course>
  <speed>0.0</speed>
  <fix>3d</fix>
</trkpt>
<trkpt lat="40.0728422" lon="-105.2305752">
  <ele>1586.15</ele>
  <time>2026-08-27T18:27:26Z</time>
  <course>18.21</course>
  <speed>0.022360679774997897</speed>
  <fix>3d</fix>
</trkpt>
<trkpt lat="40.0728424" lon="-105.2305753">
  <ele>1586.09</ele>
  <time>2026-08-27T18:27:26Z</time>
  <course>275.21</course>
  <speed>0.0</speed>
  <fix>3d</fix>
</trkpt>
<trkpt lat="40.0728422" lon="-105.2305752">
  <ele>1586.15</ele>
  <time>2026-08-27T18:27:26Z</time>
  <course>18.21</course>
  <speed>0.022360679774997897</speed>
  <fix>3d</fix>
</trkpt>
<trkpt lat="40.0728424" lon="-105.2305753">
  <ele>1586.09</ele>
  <time>2026-08-27T18:27:26Z</time>
  <course>287.92</course>
  <speed>0.0</speed>
  <fix>3d</fix>
</trkpt>
<trkpt lat="40.0728422" lon="-105.2305752">
  <ele>1586.15</ele>
  <time>2026-08-27T18:27:26Z</time>
  <course>18.21</course>
  <speed>0.022360679774997897</speed>
  <fix>3d</fix>
</trkpt>
<trkpt lat="40.0728424" lon="-105.2305753">
  <ele>1586.09</ele>
  <time>2026-08-27T18:27:26Z</time>
  <course>283.63</course>
  <speed>0.0</speed>
  <fix>3d</fix>
</trkpt>
<trkpt lat="40.0728422" lon="-105.2305752">
  <ele>1586.15</ele>
  <time>2026-08-27T18:27:26Z</time>
  <course>18.21</course>
  <speed>0.022360679774997897</speed>
  <fix>3d</fix>
</trkpt>
<trkpt lat="40.0728424" lon="-105.2305753">
  <ele>1586.09</ele>
  <time>2026-08-27T18:27:26Z</time>
  <course>282.45</course>
  <speed>0.0</speed>
  <fix>3d</fix>
</trkpt>
<trkpt lat="40.0728422" lon="-105.2305752">
  <ele>1586.15</ele>
  <time>2026-08-27T18:27:26Z</time>
  <course>18.2</course>
  <speed>0.022360679774997897</speed>
  <fix>3d</fix>
</trkpt>
<trkpt lat="40.0728424" lon="-105.2305753">
  <ele>1586.09</ele>
  <time>2026-08-27T18:27:26Z</time>
  <course>283.1</course>
  <speed>0.0</speed>
  <fix>3d</fix>
</trkpt>
<trkpt lat="40.0728422" lon="-105.2305752">
  <ele>1586.15</ele>
  <time>2026-08-27T18:27:26Z</time>
  <course>18.2</course>
  <speed>0.022360679774997897</speed>
  <fix>3d</fix>
</trkpt>
<trkpt lat="40.0728424" lon="-105.2305753">
  <ele>1586.09</ele>
  <time>2026-08-27T18:27:26Z</time>
  <course>283.18</course>
  <speed>0.0</speed>
  <fix>3d</fix>
</trkpt>
<trkpt lat="40.0728422" lon="-105.2305752">
  <ele>1586.15</ele>
  <time>2026-08-27T18:27:26Z</time>
  <course>18.2</course>
  <speed>0.022360679774997897</speed>
  <fix>3d</fix>
</trkpt>
<trkpt lat="40.0728424" lon="-105.2305753">
  <ele>1586.09</ele>
  <time>2026-08-27T18:27:26Z</time>
  <course>283.09</course>
  <speed>0.0</speed>
  <fix>3d</fix>
</trkpt>
<trkpt lat="40.0728422" lon="-105.2305752">
  <ele>1586.15</ele>
  <time>2026-08-27T18:27:26Z</time>
  <course>18.2</course>
  <speed>0.022360679774997897</speed>
  <fix>3d</fix>
</trkpt>
<trkpt lat="40.0728424" lon="-105.2305753">
  <ele>1586.09</ele>
  <time>2026-08-27T18:27:26Z</time>
  <course>283.09</course>
  <speed>0.0</speed>
  <fix>3d</fix>
</trkpt>
<trkpt lat="40.0728422" lon="-105.2305752">
  <ele>1586.16</ele>
  <time>2026-08-27T18:27:26Z</time>
  <course>18.2</course>
  <speed>0.022360679774997897</speed>
  <fix>3d</fix>
</trkpt>
<trkpt lat="40.0728424" lon="-105.2305753">
  <ele>1586.09</ele>
  <time>2026-08-27T18:27:26Z</time>
  <course>283.1</course>
  <speed>0.0</speed>
  <fix>3d</fix>
</trkpt>
<trkpt lat="40.0728422" lon="-105.2305752">
  <ele>1586.16</ele>
  <time>2026-08-27T18:27:26Z</time>
  <course>18.19</course>
  <speed>0.022360679774997897</speed>
  <fix>3d</fix>
</trkpt>
<trkpt lat="40.0728424" lon="-105.2305753">
  <ele>1586.09</ele>
  <time>2026-08-27T18:27:26Z</time>
  <course>283.1</course>
  <speed>0.0</speed>
  <fix>3d</fix>
</trkpt>
<trkpt lat="40.0728422" lon="-105.2305752">
  <ele>1586.16</ele>
  <time>2026-08-27T18:27:26Z</time>
  <course>18.19</course>
  <speed>0.022360679774997897</speed>
  <fix>3d</fix>
</trkpt>
<trkpt lat="40.0728424" lon="-105.2305753">
  <ele>1586.09</ele>
  <time>2026-08-27T18:27:26Z</time>
  <course>283.1</course>
  <speed>0.0</speed>
  <fix>3d</fix>
</trkpt>
<trkpt lat="40.0728422" lon="-105.2305752">
  <ele>1586.16</ele>
  <time>2026-08-27T18:27:26Z</time>
  <course>18.19</course>
  <speed>0.022360679774997897</speed>
  <fix>3d</fix>
</trkpt>
<trkpt lat="40.0728424" lon="-105.2305753">
  <ele>1586.09</ele>
  <time>2026-08-27T18:27:26Z</time>
  <course>283.1</course>
  <speed>0.0</speed>
  <fix>3d</fix>
</trkpt>
<trkpt lat="40.0728422" lon="-105.2305752">
  <ele>1586.16</ele>
  <time>2026-08-27T18:27:26Z</time>
  <course>18.19</course>
  <speed>0.022360679774997897</speed>
  <fix>3d</fix>
</trkpt>
<trkpt lat="40.0728424" lon="-105.2305753">
  <ele>1586.09</ele>
  <time>2026-08-27T18:27:26Z</time>
  <course>283.1</course>
  <speed>0.0</speed>
  <fix>3d</fix>
</trkpt>
<trkpt lat="40.0728422" lon="-105.2305752">
  <ele>1586.16</ele>
  <time>2026-08-27T18:27:26Z</time>
  <course>18.18</course>
  <speed>0.022360679774997897</speed>
  <fix>3d</fix>
</trkpt>
<trkpt lat="40.0728424" lon="-105.2305753">
  <ele>1586.09</ele>
  <time>2026-08-27T18:27:26Z</time>
  <course>283.1</course>
  <speed>0.0</speed>
  <fix>3d</fix>
</trkpt>
<trkpt lat="40.0728422" lon="-105.2305752">
  <ele>1586.16</ele>
  <time>2026-08-27T18:27:26Z</time>
  <course>18.18</course>
  <speed>0.022360679774997897</speed>
  <fix>3d</fix>
</trkpt>
<trkpt lat="40.0728424" lon="-105.2305753">
  <ele>1586.09</ele>
  <time>2026-08-27T18:27:26Z</time>
  <course>283.1</course>
  <speed>0.0</speed>
  <fix>3d</fix>
</trkpt>
<trkpt lat="40.0728422" lon="-105.2305752">
  <ele>1586.16</ele>
  <time>2026-08-27T18:27:26Z</time>
  <course>18.18</course>
  <speed>0.022360679774997897</speed>
  <fix>3d</fix>
</trkpt>
<trkpt lat="40.0728424" lon="-105.2305753">
  <ele>1586.09</ele>
  <time>2026-08-27T18:27:26Z</time>
  <course>283.1</course>
  <speed>0.0</speed>
  <fix>3d</fix>
</trkpt>
<trkpt lat="40.0728422" lon="-105.2305752">
  <ele>1586.16</ele>
  <time>2026-08-27T18:27:26Z</time>
  <course>18.18</course>
  <speed>0.022360679774997897</speed>
  <fix>3d</fix>
</trkpt>
<trkpt lat="40.0728424" lon="-105.2305753">
  <ele>1586.09</ele>
  <time>2026-08-27T18:27:26Z</time>
  <course>283.1</course>
  <speed>0.0</speed>
  <fix>3d</fix>
</trkpt>
<trkpt lat="40.0728422" lon="-105.2305752">
  <ele>1586.16</ele>
  <time>2026-08-27T18:27:26Z</time>
  <course>18.18</course>
  <speed>0.022360679774997897</speed>
  <fix>3d</fix>
</trkpt>
<trkpt lat="40.0728424" lon="-105.2305753">
  <ele>1586.09</ele>
  <time>2026-08-27T18:27:26Z</time>
  <course>283.1</course>
  <speed>0.0</speed>
  <fix>3d</fix>
</trkpt>
<trkpt lat="40.0728422" lon="-105.2305752">
  <ele>1586.17</ele>
  <time>2026-08-27T18:27:26Z</time>
  <course>18.18</course>
  <speed>0.022360679774997897</speed>
  <fix>3d</fix>
</trkpt>
<trkpt lat="40.0728424" lon="-105.2305753">
  <ele>1586.09</ele>
  <time>2026-08-27T18:27:26Z</time>
  <course>283.1</course>
  <speed>0.0</speed>
  <fix>3d</fix>
</trkpt>
<trkpt lat="40.0728422" lon="-105.2305752">
  <ele>1586.17</ele>
  <time>2026-08-27T18:27:26Z</time>
  <course>18.18</course>
  <speed>0.022360679774997897</speed>
  <fix>3d</fix>
</trkpt>
<trkpt lat="40.0728424" lon="-105.2305753">
  <ele>1586.09</ele>
  <time>2026-08-27T18:27:26Z</time>
  <course>283.1</course>
  <speed>0.0</speed>
  <fix>3d</fix>
</trkpt>
<trkpt lat="40.0728422" lon="-105.2305752">
  <ele>1586.17</ele>
  <time>2026-08-27T18:27:26Z</time>
  <course>18.17</course>
  <speed>0.022360679774997897</speed>
  <fix>3d</fix>
</trkpt>
<trkpt lat="40.0728424" lon="-105.2305753">
  <ele>1586.09</ele>
  <time>2026-08-27T18:27:26Z</time>
  <course>283.1</course>
  <speed>0.0</speed>
  <fix>3d</fix>
</trkpt>
<trkpt lat="40.0728422" lon="-105.2305752">
  <ele>1586.17</ele>
  <time>2026-08-27T18:27:26Z</time>
  <course>18.17</course>
  <speed>0.022360679774997897</speed>
  <fix>3d</fix>
</trkpt>
<trkpt lat="40.0728424" lon="-105.2305753">
  <ele>1586.09</ele>
  <time>2026-08-27T18:27:26Z</time>
  <course>283.1</course>
  <speed>0.0</speed>
  <fix>3d</fix>
</trkpt>
<trkpt lat="40.0728422" lon="-105.2305752">
  <ele>1586.17</ele>
  <time>2026-08-27T18:27:26Z</time>
  <course>18.17</course>
  <speed>0.022360679774997897</speed>
  <fix>3d</fix>
</trkpt>
<trkpt lat="40.0728424" lon="-105.2305753">
  <ele>1586.09</ele>
  <time>2026-08-27T18:27:26Z</time>
  <course>283.1</course>
  <speed>0.0</speed>
  <fix>3d</fix>
</trkpt>
<trkpt lat="40.0728422" lon="-105.2305752">
  <ele>1586.17</ele>
  <time>2026-08-27T18:27:26Z</time>
  <course>18.17</course>
  <speed>0.022360679774997897</speed>
  <fix>3d</fix>
</trkpt>
<trkpt lat="40.0728424" lon="-105.2305753">
  <ele>1586.09</ele>
  <time>2026-08-27T18:27:26Z</time>
  <course>283.1</course>
  <speed>0.0</speed>
  <fix>3d</fix>
</trkpt>
<trkpt lat="40.0728422" lon="-105.2305752">
  <ele>1586.17</ele>
  <time>2026-08-27T18:27:26Z</time>
  <course>18.17</course>
  <speed>0.022360679774997897</speed>
  <fix>3d</fix>
</trkpt>
<trkpt lat="40.0728424" lon="-105.2305753">
  <ele>1586.09</ele>
  <time>2026-08-27T18:27:26Z</time>
  <course>283.1</course>
  <speed>0.0</speed>
  <fix>3d</fix>
</trkpt>
<trkpt lat="40.0728422" lon="-105.2305752">
  <ele>1586.17</ele>
  <time>2026-08-27T18:27:26Z</time>
  <course>18.16</course>
  <speed>0.022360679774997897</speed>
  <fix>3d</fix>
</trkpt>
<trkpt lat="40.0728424" lon="-105.2305753">
  <ele>1586.09</ele>
  <time>2026-08-27T18:27:26Z</time>
  <course>283.1</course>
  <speed>0.0</speed>
  <fix>3d</fix>
</trkpt>
<trkpt lat="40.0728422" lon="-105.2305752">
  <ele>1586.17</ele>
  <time>2026-08-27T18:27:26Z</time>
  <course>18.16</course>
  <speed>0.022360679774997897</speed>
  <fix>3d</fix>
</trkpt>
<trkpt lat="40.0728424" lon="-105.2305753">
  <ele>1586.09</ele>
  <time>2026-08-27T18:27:26Z</time>
  <course>283.1</course>
  <speed>0.0</speed>
  <fix>3d</fix>
</trkpt>
<trkpt lat="40.0728422" lon="-105.2305752">
  <ele>1586.17</ele>
  <time>2026-08-27T18:27:26Z</time>
  <course>18.16</course>
  <speed>0.022360679774997897</speed>
  <fix>3d</fix>
</trkpt>
<trkpt lat="40.0728424" lon="-105.2305753">
  <ele>1586.09</ele>
  <time>2026-08-27T18:27:26Z</time>
  <course>283.1</course>
  <speed>0.0</speed>
  <fix>3d</fix>
</trkpt>
<trkpt lat="40.0728422" lon="-105.2305752">
  <ele>1586.17</ele>
  <time>2026-08-27T18:27:26Z</time>
  <course>18.16</course>
  <speed>0.022360679774997897</speed>
  <fix>3d</fix>
</trkpt>
<trkpt lat="40.0728424" lon="-105.2305753">
  <ele>1586.09</ele>
  <time>2026-08-27T18:27:26Z</time>
  <course>283.1</course>
  <speed>0.0</speed>
  <fix>3d</fix>
</trkpt>
<trkpt lat="40.0728422" lon="-105.2305752">
  <ele>1586.17</ele>
  <time>2026-08-27T18:27:26Z</time>
  <course>18.16</course>
  <speed>0.022360679774997897</speed>
  <fix>3d</fix>
</trkpt>
<trkpt lat="40.0728424" lon="-105.2305753">
  <ele>1586.09</ele>
  <time>2026-08-27T18:27:26Z</time>
  <course>283.1</course>
  <speed>0.0</speed>
  <fix>3d</fix>
</trkpt>
<trkpt lat="40.0728422" lon="-105.2305752">
  <ele>1586.17</ele>
  <time>2026-08-27T18:27:26Z</time>
  <course>18.16</course>
  <speed>0.022360679774997897</speed>
  <fix>3d</fix>
</trkpt>
<trkpt lat="40.0728424" lon="-105.2305753">
  <ele>1586.09</ele>
  <time>2026-08-27T18:27:26Z</time>
  <course>283.1</course>
  <speed>0.0</speed>
  <fix>3d</fix>
</trkpt>
<trkpt lat="40.0728422" lon="-105.2305752">
  <ele>1586.17</ele>
  <time>2026-08-27T18:27:26Z</time>
  <course>18.16</course>
  <speed>0.022360679774997897</speed>
  <fix>3d</fix>
</trkpt>
<trkpt lat="40.0728424" lon="-105.2305753">
  <ele>1586.09</ele>
  <time>2026-08-27T18:27:26Z</time>
  <course>283.1</course>
  <speed>0.0</speed>
  <fix>3d</fix>
</trkpt>
<trkpt lat="40.0728422" lon="-105.2305752">
  <ele>1586.17</ele>
  <time>2026-08-27T18:27:26Z</time>
  <course>18.15</course>
  <speed>0.022360679774997897</speed>
  <fix>3d</fix>
</trkpt>
<trkpt lat="40.0728424" lon="-105.2305753">
  <ele>1586.09</ele>
  <time>2026-08-27T18:27:26Z</time>
  <course>283.1</course>
  <speed>0.0</speed>
  <fix>3d</fix>
</trkpt>
<trkpt lat="40.0728422" lon="-105.2305752">
  <ele>1586.17</ele>
  <time>2026-08-27T18:27:26Z</time>
  <course>18.15</course>
  <speed>0.022360679774997897</speed>
  <fix>3d</fix>
</trkpt>
<trkpt lat="40.0728424" lon="-105.2305753">
  <ele>1586.09</ele>
  <time>2026-08-27T18:27:26Z</time>
  <course>283.1</course>
  <speed>0.0</speed>
  <fix>3d</fix>
</trkpt>
<trkpt lat="40.0728422" lon="-105.2305752">
  <ele>1586.17</ele>
  <time>2026-08-27T18:27:26Z</time>
  <course>18.15</course>
  <speed>0.022360679774997897</speed>
  <fix>3d</fix>
</trkpt>
<trkpt lat="40.0728424" lon="-105.2305753">
  <ele>1586.09</ele>
  <time>2026-08-27T18:27:26Z</time>
  <course>283.1</course>
  <speed>0.0</speed>
  <fix>3d</fix>
</trkpt>
<trkpt lat="40.0728422" lon="-105.2305752">
  <ele>1586.17</ele>
  <time>2026-08-27T18:27:26Z</time>
  <course>18.15</course>
  <speed>0.022360679774997897</speed>
  <fix>3d</fix>
</trkpt>
<trkpt lat="40.0728424" lon="-105.2305753">
  <ele>1586.09</ele>
  <time>2026-08-27T18:27:26Z</time>
  <course>283.1</course>
  <speed>0.0</speed>
  <fix>3d</fix>
</trkpt>
<trkpt lat="40.0728422" lon="-105.2305752">
  <ele>1586.17</ele>
  <time>2026-08-27T18:27:26Z</time>
  <course>18.15</course>
  <speed>0.022360679774997897</speed>
  <fix>3d</fix>
</trkpt>
<trkpt lat="40.0728424" lon="-105.2305753">
  <ele>1586.09</ele>
  <time>2026-08-27T18:27:26Z</time>
  <course>283.1</course>
  <speed>0.0</speed>
  <fix>3d</fix>
</trkpt>
<trkpt lat="40.0728422" lon="-105.2305752">
  <ele>1586.17</ele>
  <time>2026-08-27T18:27:26Z</time>
  <course>18.15</course>
  <speed>0.022360679774997897</speed>
  <fix>3d</fix>
</trkpt>
<trkpt lat="40.0728424" lon="-105.2305753">
  <ele>1586.09</ele>
  <time>2026-08-27T18:27:26Z</time>
  <course>283.1</course>
  <speed>0.0</speed>
  <fix>3d</fix>
</trkpt>
<trkpt lat="40.0728422" lon="-105.2305752">
  <ele>1586.17</ele>
  <time>2026-08-27T18:27:26Z</time>
  <course>18.2</course>
  <speed>0.022360679774997897</speed>
  <fix>3d</fix>
</trkpt>
<trkpt lat="40.0728424" lon="-105.2305753">
  <ele>1586.09</ele>
  <time>2026-08-27T18:27:26Z</time>
  <course>283.1</course>
  <speed>0.0</speed>
  <fix>3d</fix>
</trkpt>
<trkpt lat="40.0728422" lon="-105.2305752">
  <ele>1586.18</ele>
  <time>2026-08-27T18:27:26Z</time>
  <course>18.31</course>
  <speed>0.022360679774997897</speed>
  <fix>3d</fix>
</trkpt>
<trkpt lat="40.0728424" lon="-105.2305753">
  <ele>1586.09</ele>
  <time>2026-08-27T18:27:26Z</time>
  <course>2.62</course>
  <speed>0.0</speed>
  <fix>3d</fix>
</trkpt>
<trkpt lat="40.0728422" lon="-105.2305752">
  <ele>1586.19</ele>
  <time>2026-08-27T18:27:26Z</time>
  <course>18.43</course>
  <speed>0.022360679774997897</speed>
  <fix>3d</fix>
</trkpt>
<trkpt lat="40.0728424" lon="-105.2305753">
  <ele>1586.09</ele>
  <time>2026-08-27T18:27:26Z</time>
  <course>337.75</course>
  <speed>0.0</speed>
  <fix>3d</fix>
</trkpt>
<trkpt lat="40.0728422" lon="-105.2305752">
  <ele>1586.2</ele>
  <time>2026-08-27T18:27:26Z</time>
  <course>18.53</course>
  <speed>0.022360679774997897</speed>
  <fix>3d</fix>
</trkpt>
<trkpt lat="40.0728424" lon="-105.2305753">
  <ele>1586.09</ele>
  <time>2026-08-27T18:27:26Z</time>
  <course>323.52</course>
  <speed>0.0</speed>
  <fix>3d</fix>
</trkpt>
<trkpt lat="40.0728422" lon="-105.2305752">
  <ele>1586.21</ele>
  <time>2026-08-27T18:27:26Z</time>
  <course>18.64</course>
  <speed>0.022360679774997897</speed>
  <fix>3d</fix>
</trkpt>
<trkpt lat="40.0728424" lon="-105.2305753">
  <ele>1586.09</ele>
  <time>2026-08-27T18:27:26Z</time>
  <course>194.72</course>
  <speed>0.0</speed>
  <fix>3d</fix>
</trkpt>
<trkpt lat="40.0728422" lon="-105.2305752">
  <ele>1586.21</ele>
  <time>2026-08-27T18:27:26Z</time>
  <course>18.74</course>
  <speed>0.022360679774997897</speed>
  <fix>3d</fix>
</trkpt>
<trkpt lat="39.6562421" lon="-104.1365912">
  <ele>1569.6</ele>
  <time>2026-08-27T18:27:27Z</time>
  <course>14.17</course>
  <speed>0.0</speed>
  <fix>3d</fix>
</trkpt>
<trkpt lat="40.072842" lon="-105.230575">
  <ele>1586.09</ele>
  <time>2026-08-27T18:27:27Z</time>
  <course>2.03</course>
  <speed>0.0</speed>
  <fix>3d</fix>
</trkpt>
<trkpt lat="40.072842" lon="-105.230575">
  <ele>1586.09</ele>
  <time>2026-08-27T18:27:27Z</time>
  <course>344.04</course>
  <speed>0.0</speed>
  <fix>3d</fix>
</trkpt>
<trkpt lat="40.072842" lon="-105.230575">
  <ele>1586.09</ele>
  <time>2026-08-27T18:27:27Z</time>
  <course>2.51</course>
  <speed>0.0</speed>
  <fix>3d</fix>
</trkpt>
<trkpt lat="40.072842" lon="-105.230575">
  <ele>1586.09</ele>
  <time>2026-08-27T18:27:27Z</time>
  <course>236.53</course>
  <speed>0.0</speed>
  <fix>3d</fix>
</trkpt>
<trkpt lat="40.072842" lon="-105.230575">
  <ele>1586.09</ele>
  <time>2026-08-27T18:27:27Z</time>
  <course>3.26</course>
  <speed>0.0</speed>
  <fix>3d</fix>
</trkpt>
<trkpt lat="40.072842" lon="-105.230575">
  <ele>1586.09</ele>
  <time>2026-08-27T18:27:27Z</time>
  <course>181.85</course>
  <speed>0.0</speed>
  <fix>3d</fix>
</trkpt>
<trkpt lat="40.072842" lon="-105.230575">
  <ele>1586.09</ele>
  <time>2026-08-27T18:27:27Z</time>
  <course>3.93</course>
  <speed>0.0</speed>
  <fix>3d</fix>
</trkpt>
<trkpt lat="40.072842" lon="-105.230575">
  <ele>1586.09</ele>
  <time>2026-08-27T18:27:27Z</time>
  <course>38.5</course>
  <speed>0.0</speed>
  <fix>3d</fix>
</trkpt>
<trkpt lat="40.072842" lon="-105.230575">
  <ele>1586.09</ele>
  <time>2026-08-27T18:27:27Z</time>
  <course>4.55</course>
  <speed>0.0</speed>
  <fix>3d</fix>
</trkpt>
<trkpt lat="40.072842" lon="-105.230575">
  <ele>1586.09</ele>
  <time>2026-08-27T18:27:27Z</time>
  <course>341.08</course>
  <speed>0.0</speed>
  <fix>3d</fix>
</trkpt>
<trkpt lat="40.072842" lon="-105.230575">
  <ele>1586.09</ele>
  <time>2026-08-27T18:27:27Z</time>
  <course>5.14</course>
  <speed>0.0</speed>
  <fix>3d</fix>
</trkpt>
<trkpt lat="40.072842" lon="-105.230575">
  <ele>1586.09</ele>
  <time>2026-08-27T18:27:27Z</time>
  <course>79.87</course>
  <speed>0.0</speed>
  <fix>3d</fix>
</trkpt>
<trkpt lat="40.072842" lon="-105.230575">
  <ele>1586.09</ele>
  <time>2026-08-27T18:27:27Z</time>
  <course>5.69</course>
  <speed>0.0</speed>
  <fix>3d</fix>
</trkpt>
<trkpt lat="40.072842" lon="-105.230575">
  <ele>1586.09</ele>
  <time>2026-08-27T18:27:27Z</time>
  <course>78.75</course>
  <speed>0.0</speed>
  <fix>3d</fix>
</trkpt>
<trkpt lat="40.072842" lon="-105.230575">
  <ele>1586.09</ele>
  <time>2026-08-27T18:27:27Z</time>
  <course>6.21</course>
  <speed>0.0</speed>
  <fix>3d</fix>
</trkpt>
<trkpt lat="40.072842" lon="-105.230575">
  <ele>1586.09</ele>
  <time>2026-08-27T18:27:27Z</time>
  <course>198.3</course>
  <speed>0.0</speed>
  <fix>3d</fix>
</trkpt>
<trkpt lat="40.072842" lon="-105.230575">
  <ele>1586.09</ele>
  <time>2026-08-27T18:27:27Z</time>
  <course>6.7</course>
  <speed>0.0</speed>
  <fix>3d</fix>
</trkpt>
<trkpt lat="40.072842" lon="-105.230575">
  <ele>1586.09</ele>
  <time>2026-08-27T18:27:27Z</time>
  <course>208.9</course>
  <speed>0.0</speed>
  <fix>3d</fix>
</trkpt>
<trkpt lat="40.072842" lon="-105.230575">
  <ele>1586.09</ele>
  <time>2026-08-27T18:27:27Z</time>
  <course>7.16</course>
  <speed>0.0</speed>
  <fix>3d</fix>
</trkpt>
<trkpt lat="40.072842" lon="-105.230575">
  <ele>1586.09</ele>
  <time>2026-08-27T18:27:27Z</time>
  <course>59.22</course>
  <speed>0.0</speed>
  <fix>3d</fix>
</trkpt>
<trkpt lat="40.072842" lon="-105.230575">
  <ele>1586.09</ele>
  <time>2026-08-27T18:27:27Z</time>
  <course>7.58</course>
  <speed>0.0</speed>
  <fix>3d</fix>
</trkpt>
<trkpt lat="40.072842" lon="-105.230575">
  <ele>1586.09</ele>
  <time>2026-08-27T18:27:27Z</time>
  <course>78.2</course>
  <speed>0.0</speed>
  <fix>3d</fix>
</trkpt>
<trkpt lat="40.072842" lon="-105.230575">
  <ele>1586.09</ele>
  <time>2026-08-27T18:27:27Z</time>
  <course>7.97</course>
  <speed>0.0</speed>
  <fix>3d</fix>
</trkpt>
<trkpt lat="40.072842" lon="-105.230575">
  <ele>1586.09</ele>
  <time>2026-08-27T18:27:27Z</time>
  <course>275.97</course>
  <speed>0.0</speed>
  <fix>3d</fix>
</trkpt>
<trkpt lat="40.072842" lon="-105.230575">
  <ele>1586.09</ele>
  <time>2026-08-27T18:27:27Z</time>
  <course>8.33</course>
  <speed>0.0</speed>
  <fix>3d</fix>
</trkpt>
<trkpt lat="40.072842" lon="-105.230575">
  <ele>1586.09</ele>
  <time>2026-08-27T18:27:27Z</time>
  <course>272.6</course>
  <speed>0.0</speed>
  <fix>3d</fix>
</trkpt>
<trkpt lat="40.072842" lon="-105.230575">
  <ele>1586.09</ele>
  <time>2026-08-27T18:27:27Z</time>
  <course>8.66</course>
  <speed>0.0</speed>
  <fix>3d</fix>
</trkpt>
<trkpt lat="40.072842" lon="-105.230575">
  <ele>1586.09</ele>
  <time>2026-08-27T18:27:27Z</time>
  <course>135.8</course>
  <speed>0.0</speed>
  <fix>3d</fix>
</trkpt>
<trkpt lat="40.072842" lon="-105.230575">
  <ele>1586.09</ele>
  <time>2026-08-27T18:27:27Z</time>
  <course>8.97</course>
  <speed>0.0</speed>
  <fix>3d</fix>
</trkpt>
<trkpt lat="40.072842" lon="-105.230575">
  <ele>1586.09</ele>
  <time>2026-08-27T18:27:27Z</time>
  <course>4.81</course>
  <speed>0.0</speed>
  <fix>3d</fix>
</trkpt>
<trkpt lat="40.072842" lon="-105.230575">
  <ele>1586.09</ele>
  <time>2026-08-27T18:27:27Z</time>
  <course>9.25</course>
  <speed>0.0</speed>
  <fix>3d</fix>
</trkpt>
<trkpt lat="40.072842" lon="-105.230575">
  <ele>1586.09</ele>
  <time>2026-08-27T18:27:27Z</time>
  <course>333.21</course>
  <speed>0.0</speed>
  <fix>3d</fix>
</trkpt>
<trkpt lat="40.072842" lon="-105.230575">
  <ele>1586.09</ele>
  <time>2026-08-27T18:27:27Z</time>
  <course>9.52</course>
  <speed>0.0</speed>
  <fix>3d</fix>
</trkpt>
<trkpt lat="40.072842" lon="-105.230575">
  <ele>1586.09</ele>
  <time>2026-08-27T18:27:27Z</time>
  <course>207.41</course>
  <speed>0.0</speed>
  <fix>3d</fix>
</trkpt>
<trkpt lat="40.072842" lon="-105.230575">
  <ele>1586.09</ele>
  <time>2026-08-27T18:27:27Z</time>
  <course>9.76</course>
  <speed>0.0</speed>
  <fix>3d</fix>
</trkpt>
<trkpt lat="40.072842" lon="-105.230575">
  <ele>1586.09</ele>
  <time>2026-08-27T18:27:27Z</time>
  <course>250.02</course>
  <speed>0.0</speed>
  <fix>3d</fix>
</trkpt>
<trkpt lat="40.072842" lon="-105.230575">
  <ele>1586.09</ele>
  <time>2026-08-27T18:27:27Z</time>
  <course>9.98</course>
  <speed>0.0</speed>
  <fix>3d</fix>
</trkpt>
<trkpt lat="40.072842" lon="-105.230575">
  <ele>1586.09</ele>
  <time>2026-08-27T18:27:27Z</time>
  <course>260.86</course>
  <speed>0.0</speed>
  <fix>3d</fix>
</trkpt>
<trkpt lat="40.072842" lon="-105.230575">
  <ele>1586.09</ele>
  <time>2026-08-27T18:27:27Z</time>
  <course>10.18</course>
  <speed>0.0</speed>
  <fix>3d</fix>
</trkpt>
<trkpt lat="40.072842" lon="-105.230575">
  <ele>1586.09</ele>
  <time>2026-08-27T18:27:27Z</time>
  <course>291.3</course>
  <speed>0.0</speed>
  <fix>3d</fix>
</trkpt>
<trkpt lat="40.072842" lon="-105.230575">
  <ele>1586.09</ele>
  <time>2026-08-27T18:27:27Z</time>
  <course>10.37</course>
  <speed>0.0</speed>
  <fix>3d</fix>
</trkpt>
<trkpt lat="40.072842" lon="-105.230575">
  <ele>1586.09</ele>
  <time>2026-08-27T18:27:27Z</time>
  <course>266.59</course>
  <speed>0.0</speed>
  <fix>3d</fix>
</trkpt>
<trkpt lat="40.072842" lon="-105.230575">
  <ele>1586.09</ele>
  <time>2026-08-27T18:27:27Z</time>
  <course>10.54</course>
  <speed>0.0</speed>
  <fix>3d</fix>
</trkpt>
<trkpt lat="40.072842" lon="-105.230575">
  <ele>1586.09</ele>
  <time>2026-08-27T18:27:27Z</time>
  <course>264.88</course>
  <speed>0.0</speed>
  <fix>3d</fix>
</trkpt>
<trkpt lat="40.072842" lon="-105.230575">
  <ele>1586.09</ele>
  <time>2026-08-27T18:27:27Z</time>
  <course>10.69</course>
  <speed>0.0</speed>
  <fix>3d</fix>
</trkpt>
<trkpt lat="40.072842" lon="-105.230575">
  <ele>1586.09</ele>
  <time>2026-08-27T18:27:27Z</time>
  <course>266.12</course>
  <speed>0.0</speed>
  <fix>3d</fix>
</trkpt>
<trkpt lat="40.072842" lon="-105.230575">
  <ele>1586.09</ele>
  <time>2026-08-27T18:27:27Z</time>
  <course>10.83</course>
  <speed>0.0</speed>
  <fix>3d</fix>
</trkpt>
<trkpt lat="40.072842" lon="-105.230575">
  <ele>1586.09</ele>
  <time>2026-08-27T18:27:27Z</time>
  <course>266.2</course>
  <speed>0.0</speed>
  <fix>3d</fix>
</trkpt>
<trkpt lat="40.072842" lon="-105.230575">
  <ele>1586.09</ele>
  <time>2026-08-27T18:27:27Z</time>
  <course>10.96</course>
  <speed>0.0</speed>
  <fix>3d</fix>
</trkpt>
<trkpt lat="40.072842" lon="-105.230575">
  <ele>1586.09</ele>
  <time>2026-08-27T18:27:27Z</time>
  <course>266.0</course>
  <speed>0.0</speed>
  <fix>3d</fix>
</trkpt>
<trkpt lat="40.072842" lon="-105.230575">
  <ele>1586.09</ele>
  <time>2026-08-27T18:27:27Z</time>
  <course>11.08</course>
  <speed>0.0</speed>
  <fix>3d</fix>
</trkpt>
<trkpt lat="40.072842" lon="-105.230575">
  <ele>1586.09</ele>
  <time>2026-08-27T18:27:27Z</time>
  <course>266.02</course>
  <speed>0.0</speed>
  <fix>3d</fix>
</trkpt>
<trkpt lat="40.072842" lon="-105.230575">
  <ele>1586.09</ele>
  <time>2026-08-27T18:27:27Z</time>
  <course>11.19</course>
  <speed>0.0</speed>
  <fix>3d</fix>
</trkpt>
<trkpt lat="40.072842" lon="-105.230575">
  <ele>1586.09</ele>
  <time>2026-08-27T18:27:27Z</time>
  <course>266.04</course>
  <speed>0.0</speed>
  <fix>3d</fix>
</trkpt>
<trkpt lat="40.072842" lon="-105.230575">
  <ele>1586.09</ele>
  <time>2026-08-27T18:27:27Z</time>
  <course>11.29</course>
  <speed>0.0</speed>
  <fix>3d</fix>
</trkpt>
<trkpt lat="40.072842" lon="-105.230575">
  <ele>1586.09</ele>
  <time>2026-08-27T18:27:27Z</time>
  <course>266.04</course>
  <speed>0.0</speed>
  <fix>3d</fix>
</trkpt>
<trkpt lat="40.072842" lon="-105.230575">
  <ele>1586.09</ele>
  <time>2026-08-27T18:27:27Z</time>
  <course>11.38</course>
  <speed>0.0</speed>
  <fix>3d</fix>
</trkpt>
<trkpt lat="40.072842" lon="-105.230575">
  <ele>1586.09</ele>
  <time>2026-08-27T18:27:27Z</time>
  <course>266.03</course>
  <speed>0.0</speed>
  <fix>3d</fix>
</trkpt>
<trkpt lat="40.072842" lon="-105.230575">
  <ele>1586.09</ele>
  <time>2026-08-27T18:27:27Z</time>
  <course>11.46</course>
  <speed>0.0</speed>
  <fix>3d</fix>
</trkpt>
<trkpt lat="40.072842" lon="-105.230575">
  <ele>1586.09</ele>
  <time>2026-08-27T18:27:27Z</time>
  <course>266.03</course>
  <speed>0.0</speed>
  <fix>3d</fix>
</trkpt>
<trkpt lat="40.072842" lon="-105.230575">
  <ele>1586.09</ele>
  <time>2026-08-27T18:27:27Z</time>
  <course>11.53</course>
  <speed>0.0</speed>
  <fix>3d</fix>
</trkpt>
<trkpt lat="40.072842" lon="-105.230575">
  <ele>1586.09</ele>
  <time>2026-08-27T18:27:27Z</time>
  <course>266.03</course>
  <speed>0.0</speed>
  <fix>3d</fix>
</trkpt>
<trkpt lat="40.072842" lon="-105.230575">
  <ele>1586.09</ele>
  <time>2026-08-27T18:27:27Z</time>
  <course>11.6</course>
  <speed>0.0</speed>
  <fix>3d</fix>
</trkpt>
<trkpt lat="40.072842" lon="-105.230575">
  <ele>1586.09</ele>
  <time>2026-08-27T18:27:27Z</time>
  <course>266.03</course>
  <speed>0.0</speed>
  <fix>3d</fix>
</trkpt>
<trkpt lat="40.072842" lon="-105.230575">
  <ele>1586.09</ele>
  <time>2026-08-27T18:27:27Z</time>
  <course>11.66</course>
  <speed>0.0</speed>
  <fix>3d</fix>
</trkpt>
<trkpt lat="40.072842" lon="-105.230575">
  <ele>1586.09</ele>
  <time>2026-08-27T18:27:27Z</time>
  <course>266.03</course>
  <speed>0.0</speed>
  <fix>3d</fix>
</trkpt>
<trkpt lat="40.072842" lon="-105.230575">
  <ele>1586.09</ele>
  <time>2026-08-27T18:27:27Z</time>
  <course>11.72</course>
  <speed>0.0</speed>
  <fix>3d</fix>
</trkpt>
<trkpt lat="40.072842" lon="-105.230575">
  <ele>1586.09</ele>
  <time>2026-08-27T18:27:27Z</time>
  <course>266.03</course>
  <speed>0.0</speed>
  <fix>3d</fix>
</trkpt>
<trkpt lat="40.072842" lon="-105.230575">
  <ele>1586.09</ele>
  <time>2026-08-27T18:27:27Z</time>
  <course>11.77</course>
  <speed>0.0</speed>
  <fix>3d</fix>
</trkpt>
<trkpt lat="40.072842" lon="-105.230575">
  <ele>1586.09</ele>
  <time>2026-08-27T18:27:27Z</time>
  <course>266.03</course>
  <speed>0.0</speed>
  <fix>3d</fix>
</trkpt>
<trkpt lat="40.072842" lon="-105.230575">
  <ele>1586.09</ele>
  <time>2026-08-27T18:27:27Z</time>
  <course>11.82</course>
  <speed>0.0</speed>
  <fix>3d</fix>
</trkpt>
<trkpt lat="40.072842" lon="-105.230575">
  <ele>1586.09</ele>
  <time>2026-08-27T18:27:27Z</time>
  <course>266.03</course>
  <speed>0.0</speed>
  <fix>3d</fix>
</trkpt>
<trkpt lat="40.072842" lon="-105.230575">
  <ele>1586.09</ele>
  <time>2026-08-27T18:27:27Z</time>
  <course>11.86</course>
  <speed>0.0</speed>
  <fix>3d</fix>
</trkpt>
<trkpt lat="40.072842" lon="-105.230575">
  <ele>1586.09</ele>
  <time>2026-08-27T18:27:27Z</time>
  <course>266.03</course>
  <speed>0.0</speed>
  <fix>3d</fix>
</trkpt>
<trkpt lat="40.072842" lon="-105.230575">
  <ele>1586.09</ele>
  <time>2026-08-27T18:27:27Z</time>
  <course>11.89</course>
  <speed>0.0</speed>
  <fix>3d</fix>
</trkpt>
<trkpt lat="40.072842" lon="-105.230575">
  <ele>1586.09</ele>
  <time>2026-08-27T18:27:27Z</time>
  <course>266.03</course>
  <speed>0.0</speed>
  <fix>3d</fix>
</trkpt>
<trkpt lat="40.072842" lon="-105.230575">
  <ele>1586.09</ele>
  <time>2026-08-27T18:27:27Z</time>
  <course>11.93</course>
  <speed>0.0</speed>
  <fix>3d</fix>
</trkpt>
<trkpt lat="40.072842" lon="-105.230575">
  <ele>1586.09</ele>
  <time>2026-08-27T18:27:27Z</time>
  <course>266.03</course>
  <speed>0.0</speed>
  <fix>3d</fix>
</trkpt>
<trkpt lat="40.072842" lon="-105.230575">
  <ele>1586.09</ele>
  <time>2026-08-27T18:27:27Z</time>
  <course>11.96</course>
  <speed>0.0</speed>
  <fix>3d</fix>
</trkpt>
<trkpt lat="40.072842" lon="-105.230575">
  <ele>1586.09</ele>
  <time>2026-08-27T18:27:27Z</time>
  <course>266.03</course>
  <speed>0.0</speed>
  <fix>3d</fix>
</trkpt>
<trkpt lat="40.072842" lon="-105.230575">
  <ele>1586.09</ele>
  <time>2026-08-27T18:27:27Z</time>
  <course>11.98</course>
  <speed>0.0</speed>
  <fix>3d</fix>
</trkpt>
<trkpt lat="40.072842" lon="-105.230575">
  <ele>1586.09</ele>
  <time>2026-08-27T18:27:27Z</time>
  <course>266.03</course>
  <speed>0.0</speed>
  <fix>3d</fix>
</trkpt>
<trkpt lat="40.072842" lon="-105.230575">
  <ele>1586.09</ele>
  <time>2026-08-27T18:27:27Z</time>
  <course>12.0</course>
  <speed>0.0</speed>
  <fix>3d</fix>
</trkpt>
<trkpt lat="40.072842" lon="-105.230575">
  <ele>1586.09</ele>
  <time>2026-08-27T18:27:27Z</time>
  <course>266.03</course>
  <speed>0.0</speed>
  <fix>3d</fix>
</trkpt>
<trkpt lat="40.072842" lon="-105.230575">
  <ele>1586.09</ele>
  <time>2026-08-27T18:27:27Z</time>
  <course>12.02</course>
  <speed>0.0</speed>
  <fix>3d</fix>
</trkpt>
<trkpt lat="40.072842" lon="-105.230575">
  <ele>1586.09</ele>
  <time>2026-08-27T18:27:27Z</time>
  <course>266.03</course>
  <speed>0.0</speed>
  <fix>3d</fix>
</trkpt>
<trkpt lat="40.072842" lon="-105.230575">
  <ele>1586.09</ele>
  <time>2026-08-27T18:27:27Z</time>
  <course>12.04</course>
  <speed>0.0</speed>
  <fix>3d</fix>
</trkpt>
<trkpt lat="40.072842" lon="-105.230575">
  <ele>1586.09</ele>
  <time>2026-08-27T18:27:27Z</time>
  <course>266.03</course>
  <speed>0.0</speed>
  <fix>3d</fix>
</trkpt>
<trkpt lat="40.072842" lon="-105.230575">
  <ele>1586.09</ele>
  <time>2026-08-27T18:27:27Z</time>
  <course>12.06</course>
  <speed>0.0</speed>
  <fix>3d</fix>
</trkpt>
<trkpt lat="40.072842" lon="-105.230575">
  <ele>1586.09</ele>
  <time>2026-08-27T18:27:27Z</time>
  <course>266.03</course>
  <speed>0.0</speed>
  <fix>3d</fix>
</trkpt>
<trkpt lat="40.072842" lon="-105.230575">
  <ele>1586.09</ele>
  <time>2026-08-27T18:27:27Z</time>
  <course>12.07</course>
  <speed>0.0</speed>
  <fix>3d</fix>
</trkpt>
<trkpt lat="40.072842" lon="-105.230575">
  <ele>1586.09</ele>
  <time>2026-08-27T18:27:27Z</time>
  <course>266.03</course>
  <speed>0.0</speed>
  <fix>3d</fix>
</trkpt>
<trkpt lat="40.072842" lon="-105.230575">
  <ele>1586.09</ele>
  <time>2026-08-27T18:27:27Z</time>
  <course>12.08</course>
  <speed>0.0</speed>
  <fix>3d</fix>
</trkpt>
<trkpt lat="40.072842" lon="-105.230575">
  <ele>1586.09</ele>
  <time>2026-08-27T18:27:27Z</time>
  <course>266.03</course>
  <speed>0.0</speed>
  <fix>3d</fix>
</trkpt>
<trkpt lat="40.072842" lon="-105.230575">
  <ele>1586.09</ele>
  <time>2026-08-27T18:27:27Z</time>
  <course>12.09</course>
  <speed>0.0</speed>
  <fix>3d</fix>
</trkpt>
<trkpt lat="40.072842" lon="-105.230575">
  <ele>1586.09</ele>
  <time>2026-08-27T18:27:27Z</time>
  <course>266.03</course>
  <speed>0.0</speed>
  <fix>3d</fix>
</trkpt>
<trkpt lat="40.072842" lon="-105.230575">
  <ele>1586.09</ele>
  <time>2026-08-27T18:27:27Z</time>
  <course>12.1</course>
  <speed>0.0</speed>
  <fix>3d</fix>
</trkpt>
<trkpt lat="40.072842" lon="-105.230575">
  <ele>1586.09</ele>
  <time>2026-08-27T18:27:27Z</time>
  <course>266.03</course>
  <speed>0.0</speed>
  <fix>3d</fix>
</trkpt>
<trkpt lat="40.072842" lon="-105.230575">
  <ele>1586.09</ele>
  <time>2026-08-27T18:27:27Z</time>
  <course>12.11</course>
  <speed>0.0</speed>
  <fix>3d</fix>
</trkpt>
<trkpt lat="40.072842" lon="-105.230575">
  <ele>1586.09</ele>
  <time>2026-08-27T18:27:27Z</time>
  <course>266.03</course>
  <speed>0.0</speed>
  <fix>3d</fix>
</trkpt>
<trkpt lat="40.072842" lon="-105.230575">
  <ele>1586.09</ele>
  <time>2026-08-27T18:27:27Z</time>
  <course>12.11</course>
  <speed>0.0</speed>
  <fix>3d</fix>
</trkpt>
<trkpt lat="40.072842" lon="-105.230575">
  <ele>1586.09</ele>
  <time>2026-08-27T18:27:27Z</time>
  <course>266.03</course>
  <speed>0.0</speed>
  <fix>3d</fix>
</trkpt>
<trkpt lat="40.072842" lon="-105.230575">
  <ele>1586.09</ele>
  <time>2026-08-27T18:27:27Z</time>
  <course>12.12</course>
  <speed>0.0</speed>
  <fix>3d</fix>
</trkpt>
<trkpt lat="40.072842" lon="-105.230575">
  <ele>1586.09</ele>
  <time>2026-08-27T18:27:27Z</time>
  <course>266.03</course>
  <speed>0.0</speed>
  <fix>3d</fix>
</trkpt>
<trkpt lat="40.072842" lon="-105.230575">
  <ele>1586.09</ele>
  <time>2026-08-27T18:27:27Z</time>
  <course>12.12</course>
  <speed>0.0</speed>
  <fix>3d</fix>
</trkpt>
<trkpt lat="40.072842" lon="-105.230575">
  <ele>1586.09</ele>
  <time>2026-08-27T18:27:27Z</time>
  <course>266.03</course>
  <speed>0.0</speed>
  <fix>3d</fix>
</trkpt>
<trkpt lat="40.072842" lon="-105.230575">
  <ele>1586.09</ele>
  <time>2026-08-27T18:27:27Z</time>
  <course>12.12</course>
  <speed>0.0</speed>
  <fix>3d</fix>
</trkpt>
<trkpt lat="40.072842" lon="-105.230575">
  <ele>1586.09</ele>
  <time>2026-08-27T18:27:27Z</time>
  <course>266.03</course>
  <speed>0.0</speed>
  <fix>3d</fix>
</trkpt>
<trkpt lat="40.072842" lon="-105.230575">
  <ele>1586.09</ele>
  <time>2026-08-27T18:27:27Z</time>
  <course>12.12</course>
  <speed>0.0</speed>
  <fix>3d</fix>
</trkpt>
<trkpt lat="40.072842" lon="-105.230575">
  <ele>1586.09</ele>
  <time>2026-08-27T18:27:27Z</time>
  <course>266.03</course>
  <speed>0.0</speed>
  <fix>3d</fix>
</trkpt>
<trkpt lat="40.072842" lon="-105.230575">
  <ele>1586.09</ele>
  <time>2026-08-27T18:27:27Z</time>
  <course>12.12</course>
  <speed>0.0</speed>
  <fix>3d</fix>
</trkpt>
<trkpt lat="40.072842" lon="-105.230575">
  <ele>1586.09</ele>
  <time>2026-08-27T18:27:27Z</time>
  <course>266.03</course>
  <speed>0.0</speed>
  <fix>3d</fix>
</trkpt>
<trkpt lat="40.072842" lon="-105.230575">
  <ele>1586.09</ele>
  <time>2026-08-27T18:27:27Z</time>
  <course>12.12</course>
  <speed>0.01</speed>
  <fix>3d</fix>
</trkpt>
<trkpt lat="40.072842" lon="-105.230575">
  <ele>1586.09</ele>
  <time>2026-08-27T18:27:27Z</time>
  <course>266.03</course>
  <speed>0.0</speed>
  <fix>3d</fix>
</trkpt>
<trkpt lat="40.072842" lon="-105.230575">
  <ele>1586.09</ele>
  <time>2026-08-27T18:27:27Z</time>
  <course>12.12</course>
  <speed>0.01</speed>
  <fix>3d</fix>
</trkpt>
<trkpt lat="40.072842" lon="-105.230575">
  <ele>1586.09</ele>
  <time>2026-08-27T18:27:27Z</time>
  <course>266.03</course>
  <speed>0.0</speed>
  <fix>3d</fix>
</trkpt>
<trkpt lat="40.072842" lon="-105.230575">
  <ele>1586.09</ele>
  <time>2026-08-27T18:27:27Z</time>
  <course>12.12</course>
  <speed>0.01</speed>
  <fix>3d</fix>
</trkpt>
<trkpt lat="40.072842" lon="-105.230575">
  <ele>1586.09</ele>
  <time>2026-08-27T18:27:27Z</time>
  <course>266.03</course>
  <speed>0.0</speed>
  <fix>3d</fix>
</trkpt>
<trkpt lat="40.072842" lon="-105.230575">
  <ele>1586.09</ele>
  <time>2026-08-27T18:27:27Z</time>
  <course>12.12</course>
  <speed>0.01</speed>
  <fix>3d</fix>
</trkpt>
<trkpt lat="40.072842" lon="-105.230575">
  <ele>1586.09</ele>
  <time>2026-08-27T18:27:27Z</time>
  <course>266.03</course>
  <speed>0.0</speed>
  <fix>3d</fix>
</trkpt>
<trkpt lat="40.072842" lon="-105.230575">
  <ele>1586.09</ele>
  <time>2026-08-27T18:27:27Z</time>
  <course>12.11</course>
  <speed>0.01</speed>
  <fix>3d</fix>
</trkpt>
<trkpt lat="40.072842" lon="-105.230575">
  <ele>1586.09</ele>
  <time>2026-08-27T18:27:27Z</time>
  <course>266.03</course>
  <speed>0.0</speed>
  <fix>3d</fix>
</trkpt>
<trkpt lat="40.072842" lon="-105.230575">
  <ele>1586.09</ele>
  <time>2026-08-27T18:27:27Z</time>
  <course>12.11</course>
  <speed>0.01</speed>
  <fix>3d</fix>
</trkpt>
<trkpt lat="40.072842" lon="-105.230575">
  <ele>1586.09</ele>
  <time>2026-08-27T18:27:27Z</time>
  <course>266.03</course>
  <speed>0.0</speed>
  <fix>3d</fix>
</trkpt>
<trkpt lat="40.072842" lon="-105.230575">
  <ele>1586.09</ele>
  <time>2026-08-27T18:27:27Z</time>
  <course>12.11</course>
  <speed>0.01</speed>
  <fix>3d</fix>
</trkpt>
<trkpt lat="40.072842" lon="-105.230575">
  <ele>1586.09</ele>
  <time>2026-08-27T18:27:27Z</time>
  <course>266.03</course>
  <speed>0.0</speed>
  <fix>3d</fix>
</trkpt>
<trkpt lat="40.072842" lon="-105.230575">
  <ele>1586.09</ele>
  <time>2026-08-27T18:27:27Z</time>
  <course>12.1</course>
  <speed>0.01</speed>
  <fix>3d</fix>
</trkpt>
<trkpt lat="40.072842" lon="-105.230575">
  <ele>1586.09</ele>
  <time>2026-08-27T18:27:27Z</time>
  <course>266.03</course>
  <speed>0.0</speed>
  <fix>3d</fix>
</trkpt>
<trkpt lat="40.072842" lon="-105.230575">
  <ele>1586.09</ele>
  <time>2026-08-27T18:27:27Z</time>
  <course>12.1</course>
  <speed>0.01</speed>
  <fix>3d</fix>
</trkpt>
<trkpt lat="40.072842" lon="-105.230575">
  <ele>1586.09</ele>
  <time>2026-08-27T18:27:27Z</time>
  <course>266.03</course>
  <speed>0.0</speed>
  <fix>3d</fix>
</trkpt>
<trkpt lat="40.072842" lon="-105.230575">
  <ele>1586.09</ele>
  <time>2026-08-27T18:27:27Z</time>
  <course>12.09</course>
  <speed>0.01</speed>
  <fix>3d</fix>
</trkpt>
<trkpt lat="40.072842" lon="-105.230575">
  <ele>1586.09</ele>
  <time>2026-08-27T18:27:27Z</time>
  <course>266.03</course>
  <speed>0.0</speed>
  <fix>3d</fix>
</trkpt>
<trkpt lat="40.072842" lon="-105.230575">
  <ele>1586.09</ele>
  <time>2026-08-27T18:27:27Z</time>
  <course>12.09</course>
  <speed>0.01</speed>
  <fix>3d</fix>
</trkpt>
<trkpt lat="40.072842" lon="-105.230575">
  <ele>1586.09</ele>
  <time>2026-08-27T18:27:27Z</time>
  <course>266.03</course>
  <speed>0.0</speed>
  <fix>3d</fix>
</trkpt>
<trkpt lat="40.072842" lon="-105.230575">
  <ele>1586.09</ele>
  <time>2026-08-27T18:27:27Z</time>
  <course>12.08</course>
  <speed>0.01414213562373095</speed>
  <fix>3d</fix>
</trkpt>
<trkpt lat="40.072842" lon="-105.230575">
  <ele>1586.09</ele>
  <time>2026-08-27T18:27:27Z</time>
  <course>266.03</course>
  <speed>0.0</speed>
  <fix>3d</fix>
</trkpt>
<trkpt lat="40.072842" lon="-105.230575">
  <ele>1586.09</ele>
  <time>2026-08-27T18:27:27Z</time>
  <course>12.07</course>
  <speed>0.01414213562373095</speed>
  <fix>3d</fix>
</trkpt>
<trkpt lat="40.072842" lon="-105.230575">
  <ele>1586.09</ele>
  <time>2026-08-27T18:27:27Z</time>
  <course>266.03</course>
  <speed>0.0</speed>
  <fix>3d</fix>
</trkpt>
<trkpt lat="40.072842" lon="-105.230575">
  <ele>1586.09</ele>
  <time>2026-08-27T18:27:27Z</time>
  <course>12.07</course>
  <speed>0.01414213562373095</speed>
  <fix>3d</fix>
</trkpt>
<trkpt lat="40.072842" lon="-105.230575">
  <ele>1586.09</ele>
  <time>2026-08-27T18:27:27Z</time>
  <course>266.03</course>
  <speed>0.0</speed>
  <fix>3d</fix>
</trkpt>
<trkpt lat="40.072842" lon="-105.230575">
  <ele>1586.09</ele>
  <time>2026-08-27T18:27:27Z</time>
  <course>12.06</course>
  <speed>0.01414213562373095</speed>
  <fix>3d</fix>
</trkpt>
<trkpt lat="40.072842" lon="-105.230575">
  <ele>1586.09</ele>
  <time>2026-08-27T18:27:27Z</time>
  <course>266.03</course>
  <speed>0.0</speed>
  <fix>3d</fix>
</trkpt>
<trkpt lat="40.072842" lon="-105.230575">
  <ele>1586.09</ele>
  <time>2026-08-27T18:27:27Z</time>
  <course>12.05</course>
  <speed>0.01414213562373095</speed>
  <fix>3d</fix>
</trkpt>
<trkpt lat="40.072842" lon="-105.230575">
  <ele>1586.09</ele>
  <time>2026-08-27T18:27:27Z</time>
  <course>266.03</course>
  <speed>0.0</speed>
  <fix>3d</fix>
</trkpt>
<trkpt lat="40.072842" lon="-105.230575">
  <ele>1586.09</ele>
  <time>2026-08-27T18:27:27Z</time>
  <course>12.05</course>
  <speed>0.01414213562373095</speed>
  <fix>3d</fix>
</trkpt>
<trkpt lat="40.072842" lon="-105.230575">
  <ele>1586.09</ele>
  <time>2026-08-27T18:27:27Z</time>
  <course>266.03</course>
  <speed>0.0</speed>
  <fix>3d</fix>
</trkpt>
<trkpt lat="40.072842" lon="-105.230575">
  <ele>1586.09</ele>
  <time>2026-08-27T18:27:27Z</time>
  <course>12.04</course>
  <speed>0.01414213562373095</speed>
  <fix>3d</fix>
</trkpt>
<trkpt lat="40.072842" lon="-105.230575">
  <ele>1586.09</ele>
  <time>2026-08-27T18:27:27Z</time>
  <course>266.03</course>
  <speed>0.0</speed>
  <fix>3d</fix>
</trkpt>
<trkpt lat="40.072842" lon="-105.230575">
  <ele>1586.09</ele>
  <time>2026-08-27T18:27:27Z</time>
  <course>12.03</course>
  <speed>0.01414213562373095</speed>
  <fix>3d</fix>
</trkpt>
<trkpt lat="40.072842" lon="-105.230575">
  <ele>1586.09</ele>
  <time>2026-08-27T18:27:27Z</time>
  <course>266.03</course>
  <speed>0.0</speed>
  <fix>3d</fix>
</trkpt>
<trkpt lat="40.072842" lon="-105.230575">
  <ele>1586.09</ele>
  <time>2026-08-27T18:27:27Z</time>
  <course>12.03</course>
  <speed>0.01414213562373095</speed>
  <fix>3d</fix>
</trkpt>
<trkpt lat="40.072842" lon="-105.230575">
  <ele>1586.09</ele>
  <time>2026-08-27T18:27:27Z</time>
  <course>266.03</course>
  <speed>0.0</speed>
  <fix>3d</fix>
</trkpt>
<trkpt lat="40.072842" lon="-105.230575">
  <ele>1586.09</ele>
  <time>2026-08-27T18:27:27Z</time>
  <course>12.02</course>
  <speed>0.01414213562373095</speed>
  <fix>3d</fix>
</trkpt>
<trkpt lat="40.072842" lon="-105.230575">
  <ele>1586.09</ele>
  <time>2026-08-27T18:27:27Z</time>
  <course>266.03</course>
  <speed>0.0</speed>
  <fix>3d</fix>
</trkpt>
<trkpt lat="40.072842" lon="-105.230575">
  <ele>1586.09</ele>
  <time>2026-08-27T18:27:27Z</time>
  <course>12.01</course>
  <speed>0.01414213562373095</speed>
  <fix>3d</fix>
</trkpt>
<trkpt lat="40.072842" lon="-105.230575">
  <ele>1586.09</ele>
  <time>2026-08-27T18:27:27Z</time>
  <course>266.03</course>
  <speed>0.0</speed>
  <fix>3d</fix>
</trkpt>
<trkpt lat="40.072842" lon="-105.230575">
  <ele>1586.09</ele>
  <time>2026-08-27T18:27:27Z</time>
  <course>12.0</course>
  <speed>0.01414213562373095</speed>
  <fix>3d</fix>
</trkpt>
<trkpt lat="40.072842" lon="-105.230575">
  <ele>1586.09</ele>
  <time>2026-08-27T18:27:27Z</time>
  <course>266.03</course>
  <speed>0.0</speed>
  <fix>3d</fix>
</trkpt>
<trkpt lat="40.072842" lon="-105.230575">
  <ele>1586.09</ele>
  <time>2026-08-27T18:27:27Z</time>
  <course>11.99</course>
  <speed>0.01414213562373095</speed>
  <fix>3d</fix>
</trkpt>
<trkpt lat="40.072842" lon="-105.230575">
  <ele>1586.09</ele>
  <time>2026-08-27T18:27:27Z</time>
  <course>266.03</course>
  <speed>0.0</speed>
  <fix>3d</fix>
</trkpt>
<trkpt lat="40.072842" lon="-105.230575">
  <ele>1586.09</ele>
  <time>2026-08-27T18:27:27Z</time>
  <course>11.99</course>
  <speed>0.01414213562373095</speed>
  <fix>3d</fix>
</trkpt>
<trkpt lat="40.072842" lon="-105.230575">
  <ele>1586.09</ele>
  <time>2026-08-27T18:27:27Z</time>
  <course>266.03</course>
  <speed>0.0</speed>
  <fix>3d</fix>
</trkpt>
<trkpt lat="40.072842" lon="-105.230575">
  <ele>1586.09</ele>
  <time>2026-08-27T18:27:27Z</time>
  <course>11.98</course>
  <speed>0.01414213562373095</speed>
  <fix>3d</fix>
</trkpt>
<trkpt lat="40.072842" lon="-105.230575">
  <ele>1586.09</ele>
  <time>2026-08-27T18:27:27Z</time>
  <course>266.03</course>
  <speed>0.0</speed>
  <fix>3d</fix>
</trkpt>
<trkpt lat="40.072842" lon="-105.230575">
  <ele>1586.09</ele>
  <time>2026-08-27T18:27:27Z</time>
  <course>11.97</course>
  <speed>0.01414213562373095</speed>
  <fix>3d</fix>
</trkpt>
<trkpt lat="40.072842" lon="-105.230575">
  <ele>1586.09</ele>
  <time>2026-08-27T18:27:27Z</time>
  <course>266.03</course>
  <speed>0.0</speed>
  <fix>3d</fix>
</trkpt>
<trkpt lat="40.072842" lon="-105.230575">
  <ele>1586.09</ele>
  <time>2026-08-27T18:27:27Z</time>
  <course>11.96</course>
  <speed>0.022360679774997897</speed>
  <fix>3d</fix>
</trkpt>
<trkpt lat="40.072842" lon="-105.230575">
  <ele>1586.09</ele>
  <time>2026-08-27T18:27:27Z</time>
  <course>266.03</course>
  <speed>0.0</speed>
  <fix>3d</fix>
</trkpt>
<trkpt lat="40.072842" lon="-105.230575">
  <ele>1586.09</ele>
  <time>2026-08-27T18:27:27Z</time>
  <course>11.95</course>
  <speed>0.022360679774997897</speed>
  <fix>3d</fix>
</trkpt>
<trkpt lat="40.072842" lon="-105.230575">
  <ele>1586.09</ele>
  <time>2026-08-27T18:27:27Z</time>
  <course>266.03</course>
  <speed>0.0</speed>
  <fix>3d</fix>
</trkpt>
<trkpt lat="40.072842" lon="-105.230575">
  <ele>1586.09</ele>
  <time>2026-08-27T18:27:27Z</time>
  <course>11.95</course>
  <speed>0.022360679774997897</speed>
  <fix>3d</fix>
</trkpt>
<trkpt lat="40.072842" lon="-105.230575">
  <ele>1586.09</ele>
  <time>2026-08-27T18:27:27Z</time>
  <course>266.03</course>
  <speed>0.0</speed>
  <fix>3d</fix>
</trkpt>
<trkpt lat="40.072842" lon="-105.230575">
  <ele>1586.09</ele>
  <time>2026-08-27T18:27:27Z</time>
  <course>11.94</course>
  <speed>0.022360679774997897</speed>
  <fix>3d</fix>
</trkpt>
<trkpt lat="40.072842" lon="-105.230575">
  <ele>1586.09</ele>
  <time>2026-08-27T18:27:27Z</time>
  <course>266.03</course>
  <speed>0.0</speed>
  <fix>3d</fix>
</trkpt>
<trkpt lat="40.072842" lon="-105.230575">
  <ele>1586.09</ele>
  <time>2026-08-27T18:27:27Z</time>
  <course>11.93</course>
  <speed>0.022360679774997897</speed>
  <fix>3d</fix>
</trkpt>
<trkpt lat="40.072842" lon="-105.230575">
  <ele>1586.09</ele>
  <time>2026-08-27T18:27:27Z</time>
  <course>266.03</course>
  <speed>0.0</speed>
  <fix>3d</fix>
</trkpt>
<trkpt lat="40.072842" lon="-105.230575">
  <ele>1586.09</ele>
  <time>2026-08-27T18:27:27Z</time>
  <course>11.92</course>
  <speed>0.022360679774997897</speed>
  <fix>3d</fix>
</trkpt>
<trkpt lat="40.072842" lon="-105.230575">
  <ele>1586.09</ele>
  <time>2026-08-27T18:27:27Z</time>
  <course>266.03</course>
  <speed>0.0</speed>
  <fix>3d</fix>
</trkpt>
<trkpt lat="40.072842" lon="-105.230575">
  <ele>1586.09</ele>
  <time>2026-08-27T18:27:27Z</time>
  <course>11.91</course>
  <speed>0.022360679774997897</speed>
  <fix>3d</fix>
</trkpt>
<trkpt lat="40.072842" lon="-105.230575">
  <ele>1586.09</ele>
  <time>2026-08-27T18:27:27Z</time>
  <course>266.03</course>
  <speed>0.0</speed>
  <fix>3d</fix>
</trkpt>
<trkpt lat="40.072842" lon="-105.230575">
  <ele>1586.09</ele>
  <time>2026-08-27T18:27:27Z</time>
  <course>11.91</course>
  <speed>0.022360679774997897</speed>
  <fix>3d</fix>
</trkpt>
<trkpt lat="40.072842" lon="-105.230575">
  <ele>1586.09</ele>
  <time>2026-08-27T18:27:27Z</time>
  <course>266.03</course>
  <speed>0.0</speed>
  <fix>3d</fix>
</trkpt>
<trkpt lat="40.072842" lon="-105.230575">
  <ele>1586.09</ele>
  <time>2026-08-27T18:27:27Z</time>
  <course>11.9</course>
  <speed>0.022360679774997897</speed>
  <fix>3d</fix>
</trkpt>
<trkpt lat="40.072842" lon="-105.230575">
  <ele>1586.09</ele>
  <time>2026-08-27T18:27:27Z</time>
  <course>266.03</course>
  <speed>0.0</speed>
  <fix>3d</fix>
</trkpt>
<trkpt lat="40.072842" lon="-105.230575">
  <ele>1586.09</ele>
  <time>2026-08-27T18:27:27Z</time>
  <course>11.89</course>
  <speed>0.022360679774997897</speed>
  <fix>3d</fix>
</trkpt>
<trkpt lat="40.072842" lon="-105.230575">
  <ele>1586.09</ele>
  <time>2026-08-27T18:27:27Z</time>
  <course>266.03</course>
  <speed>0.0</speed>
  <fix>3d</fix>
</trkpt>
<trkpt lat="40.072842" lon="-105.230575">
  <ele>1586.09</ele>
  <time>2026-08-27T18:27:27Z</time>
  <course>11.88</course>
  <speed>0.022360679774997897</speed>
  <fix>3d</fix>
</trkpt>
<trkpt lat="40.072842" lon="-105.230575">
  <ele>1586.09</ele>
  <time>2026-08-27T18:27:27Z</time>
  <course>266.03</course>
  <speed>0.0</speed>
  <fix>3d</fix>
</trkpt>
<trkpt lat="40.072842" lon="-105.230575">
  <ele>1586.09</ele>
  <time>2026-08-27T18:27:27Z</time>
  <course>11.87</course>
  <speed>0.022360679774997897</speed>
  <fix>3d</fix>
</trkpt>
<trkpt lat="40.072842" lon="-105.230575">
  <ele>1586.09</ele>
  <time>2026-08-27T18:27:28Z</time>
  <course>266.03</course>
  <speed>0.0</speed>
  <fix>3d</fix>
</trkpt>
<trkpt lat="40.072842" lon="-105.230575">
  <ele>1586.09</ele>
  <time>2026-08-27T18:27:28Z</time>
  <course>11.86</course>
  <speed>0.022360679774997897</speed>
  <fix>3d</fix>
</trkpt>
<trkpt lat="40.072842" lon="-105.230575">
  <ele>1586.09</ele>
  <time>2026-08-27T18:27:28Z</time>
  <course>266.03</course>
  <speed>0.0</speed>
  <fix>3d</fix>
</trkpt>
<trkpt lat="40.072842" lon="-105.230575">
  <ele>1586.09</ele>
  <time>2026-08-27T18:27:28Z</time>
  <course>11.86</course>
  <speed>0.022360679774997897</speed>
  <fix>3d</fix>
</trkpt>
<trkpt lat="40.072842" lon="-105.230575">
  <ele>1586.09</ele>
  <time>2026-08-27T18:27:28Z</time>
  <course>266.03</course>
  <speed>0.0</speed>
  <fix>3d</fix>
</trkpt>
<trkpt lat="40.072842" lon="-105.230575">
  <ele>1586.09</ele>
  <time>2026-08-27T18:27:28Z</time>
  <course>11.85</course>
  <speed>0.022360679774997897</speed>
  <fix>3d</fix>
</trkpt>
<trkpt lat="40.072842" lon="-105.230575">
  <ele>1586.09</ele>
  <time>2026-08-27T18:27:28Z</time>
  <course>266.03</course>
  <speed>0.0</speed>
  <fix>3d</fix>
</trkpt>
<trkpt lat="40.072842" lon="-105.230575">
  <ele>1586.09</ele>
  <time>2026-08-27T18:27:28Z</time>
  <course>11.84</course>
  <speed>0.022360679774997897</speed>
  <fix>3d</fix>
</trkpt>
<trkpt lat="40.072842" lon="-105.230575">
  <ele>1586.09</ele>
  <time>2026-08-27T18:27:28Z</time>
  <course>266.03</course>
  <speed>0.0</speed>
  <fix>3d</fix>
</trkpt>
<trkpt lat="40.072842" lon="-105.230575">
  <ele>1586.09</ele>
  <time>2026-08-27T18:27:28Z</time>
  <course>11.83</course>
  <speed>0.022360679774997897</speed>
  <fix>3d</fix>
</trkpt>
<trkpt lat="40.072842" lon="-105.230575">
  <ele>1586.09</ele>
  <time>2026-08-27T18:27:28Z</time>
  <course>266.03</course>
  <speed>0.0</speed>
  <fix>3d</fix>
</trkpt>
<trkpt lat="40.072842" lon="-105.230575">
  <ele>1586.09</ele>
  <time>2026-08-27T18:27:28Z</time>
  <course>11.82</course>
  <speed>0.0282842712474619</speed>
  <fix>3d</fix>
</trkpt>
<trkpt lat="40.072842" lon="-105.230575">
  <ele>1586.09</ele>
  <time>2026-08-27T18:27:28Z</time>
  <course>266.03</course>
  <speed>0.0</speed>
  <fix>3d</fix>
</trkpt>
<trkpt lat="40.072842" lon="-105.230575">
  <ele>1586.09</ele>
  <time>2026-08-27T18:27:28Z</time>
  <course>11.82</course>
  <speed>0.0282842712474619</speed>
  <fix>3d</fix>
</trkpt>
<trkpt lat="40.072842" lon="-105.230575">
  <ele>1586.09</ele>
  <time>2026-08-27T18:27:28Z</time>
  <course>266.03</course>
  <speed>0.0</speed>
  <fix>3d</fix>
</trkpt>
<trkpt lat="40.072842" lon="-105.230575">
  <ele>1586.09</ele>
  <time>2026-08-27T18:27:28Z</time>
  <course>11.81</course>
  <speed>0.0282842712474619</speed>
  <fix>3d</fix>
</trkpt>
<trkpt lat="40.072842" lon="-105.230575">
  <ele>1586.09</ele>
  <time>2026-08-27T18:27:28Z</time>
  <course>266.03</course>
  <speed>0.0</speed>
  <fix>3d</fix>
</trkpt>
<trkpt lat="40.072842" lon="-105.230575">
  <ele>1586.09</ele>
  <time>2026-08-27T18:27:28Z</time>
  <course>11.8</course>
  <speed>0.0282842712474619</speed>
  <fix>3d</fix>
</trkpt>
<trkpt lat="40.072842" lon="-105.230575">
  <ele>1586.09</ele>
  <time>2026-08-27T18:27:28Z</time>
  <course>266.03</course>
  <speed>0.0</speed>
  <fix>3d</fix>
</trkpt>
<trkpt lat="40.072842" lon="-105.230575">
  <ele>1586.09</ele>
  <time>2026-08-27T18:27:28Z</time>
  <course>11.79</course>
  <speed>0.0282842712474619</speed>
  <fix>3d</fix>
</trkpt>
<trkpt lat="40.072842" lon="-105.230575">
  <ele>1586.09</ele>
  <time>2026-08-27T18:27:28Z</time>
  <course>266.03</course>
  <speed>0.0</speed>
  <fix>3d</fix>
</trkpt>
<trkpt lat="40.072842" lon="-105.230575">
  <ele>1586.09</ele>
  <time>2026-08-27T18:27:28Z</time>
  <course>11.78</course>
  <speed>0.0282842712474619</speed>
  <fix>3d</fix>
</trkpt>
<trkpt lat="40.072842" lon="-105.230575">
  <ele>1586.09</ele>
  <time>2026-08-27T18:27:28Z</time>
  <course>266.03</course>
  <speed>0.0</speed>
  <fix>3d</fix>
</trkpt>
<trkpt lat="40.072842" lon="-105.230575">
  <ele>1586.09</ele>
  <time>2026-08-27T18:27:28Z</time>
  <course>11.78</course>
  <speed>0.0282842712474619</speed>
  <fix>3d</fix>
</trkpt>
<trkpt lat="40.072842" lon="-105.230575">
  <ele>1586.09</ele>
  <time>2026-08-27T18:27:28Z</time>
  <course>266.03</course>
  <speed>0.0</speed>
  <fix>3d</fix>
</trkpt>
<trkpt lat="40.072842" lon="-105.230575">
  <ele>1586.09</ele>
  <time>2026-08-27T18:27:28Z</time>
  <course>11.77</course>
  <speed>0.0282842712474619</speed>
  <fix>3d</fix>
</trkpt>
<trkpt lat="40.072842" lon="-105.230575">
  <ele>1586.09</ele>
  <time>2026-08-27T18:27:28Z</time>
  <course>266.03</course>
  <speed>0.0</speed>
  <fix>3d</fix>
</trkpt>
<trkpt lat="40.072842" lon="-105.230575">
  <ele>1586.09</ele>
  <time>2026-08-27T18:27:28Z</time>
  <course>11.76</course>
  <speed>0.0282842712474619</speed>
  <fix>3d</fix>
</trkpt>
<trkpt lat="40.072842" lon="-105.230575">
  <ele>1586.09</ele>
  <time>2026-08-27T18:27:28Z</time>
  <course>266.03</course>
  <speed>0.0</speed>
  <fix>3d</fix>
</trkpt>
<trkpt lat="40.072842" lon="-105.230575">
  <ele>1586.09</ele>
  <time>2026-08-27T18:27:28Z</time>
  <course>11.76</course>
  <speed>0.0282842712474619</speed>
  <fix>3d</fix>
</trkpt>
<trkpt lat="40.072842" lon="-105.230575">
  <ele>1586.09</ele>
  <time>2026-08-27T18:27:28Z</time>
  <course>266.03</course>
  <speed>0.0</speed>
  <fix>3d</fix>
</trkpt>
<trkpt lat="40.072842" lon="-105.230575">
  <ele>1586.09</ele>
  <time>2026-08-27T18:27:28Z</time>
  <course>11.75</course>
  <speed>0.0282842712474619</speed>
  <fix>3d</fix>
</trkpt>
<trkpt lat="40.072842" lon="-105.230575">
  <ele>1586.09</ele>
  <time>2026-08-27T18:27:28Z</time>
  <course>266.03</course>
  <speed>0.0</speed>
  <fix>3d</fix>
</trkpt>
<trkpt lat="40.072842" lon="-105.230575">
  <ele>1586.09</ele>
  <time>2026-08-27T18:27:28Z</time>
  <course>11.74</course>
  <speed>0.03605551275463989</speed>
  <fix>3d</fix>
</trkpt>
<trkpt lat="40.072842" lon="-105.230575">
  <ele>1586.09</ele>
  <time>2026-08-27T18:27:28Z</time>
  <course>266.03</course>
  <speed>0.0</speed>
  <fix>3d</fix>
</trkpt>
<trkpt lat="40.072842" lon="-105.230575">
  <ele>1586.09</ele>
  <time>2026-08-27T18:27:28Z</time>
  <course>11.73</course>
  <speed>0.03605551275463989</speed>
  <fix>3d</fix>
</trkpt>
<trkpt lat="40.072842" lon="-105.230575">
  <ele>1586.09</ele>
  <time>2026-08-27T18:27:28Z</time>
  <course>266.03</course>
  <speed>0.0</speed>
  <fix>3d</fix>
</trkpt>
<trkpt lat="40.072842" lon="-105.230575">
  <ele>1586.09</ele>
  <time>2026-08-27T18:27:28Z</time>
  <course>11.73</course>
  <speed>0.03605551275463989</speed>
  <fix>3d</fix>
</trkpt>
<trkpt lat="40.072842" lon="-105.230575">
  <ele>1586.09</ele>
  <time>2026-08-27T18:27:28Z</time>
  <course>266.03</course>
  <speed>0.0</speed>
  <fix>3d</fix>
</trkpt>
<trkpt lat="40.072842" lon="-105.230575">
  <ele>1586.09</ele>
  <time>2026-08-27T18:27:28Z</time>
  <course>11.72</course>
  <speed>0.03605551275463989</speed>
  <fix>3d</fix>
</trkpt>
<trkpt lat="40.072842" lon="-105.230575">
  <ele>1586.09</ele>
  <time>2026-08-27T18:27:28Z</time>
  <course>266.03</course>
  <speed>0.0</speed>
  <fix>3d</fix>
</trkpt>
<trkpt lat="40.072842" lon="-105.230575">
  <ele>1586.09</ele>
  <time>2026-08-27T18:27:28Z</time>
  <course>11.71</course>
  <speed>0.03605551275463989</speed>
  <fix>3d</fix>
</trkpt>
<trkpt lat="40.072842" lon="-105.230575">
  <ele>1586.09</ele>
  <time>2026-08-27T18:27:28Z</time>
  <course>266.03</course>
  <speed>0.0</speed>
  <fix>3d</fix>
</trkpt>
<trkpt lat="40.072842" lon="-105.230575">
  <ele>1586.09</ele>
  <time>2026-08-27T18:27:28Z</time>
  <course>11.7</course>
  <speed>0.03605551275463989</speed>
  <fix>3d</fix>
</trkpt>
<trkpt lat="40.072842" lon="-105.230575">
  <ele>1586.09</ele>
  <time>2026-08-27T18:27:28Z</time>
  <course>266.03</course>
  <speed>0.0</speed>
  <fix>3d</fix>
</trkpt>
<trkpt lat="40.072842" lon="-105.230575">
  <ele>1586.09</ele>
  <time>2026-08-27T18:27:28Z</time>
  <course>11.69</course>
  <speed>0.03605551275463989</speed>
  <fix>3d</fix>
</trkpt>
<trkpt lat="40.072842" lon="-105.230575">
  <ele>1586.09</ele>
  <time>2026-08-27T18:27:28Z</time>
  <course>266.03</course>
  <speed>0.0</speed>
  <fix>3d</fix>
</trkpt>
<trkpt lat="40.072842" lon="-105.230575">
  <ele>1586.09</ele>
  <time>2026-08-27T18:27:28Z</time>
  <course>11.69</course>
  <speed>0.03605551275463989</speed>
  <fix>3d</fix>
</trkpt>
<trkpt lat="40.072842" lon="-105.230575">
  <ele>1586.09</ele>
  <time>2026-08-27T18:27:28Z</time>
  <course>266.03</course>
  <speed>0.0</speed>
  <fix>3d</fix>
</trkpt>
<trkpt lat="40.072842" lon="-105.230575">
  <ele>1586.09</ele>
  <time>2026-08-27T18:27:28Z</time>
  <course>11.68</course>
  <speed>0.03605551275463989</speed>
  <fix>3d</fix>
</trkpt>
<trkpt lat="40.072842" lon="-105.230575">
  <ele>1586.09</ele>
  <time>2026-08-27T18:27:28Z</time>
  <course>266.03</course>
  <speed>0.0</speed>
  <fix>3d</fix>
</trkpt>
<trkpt lat="40.072842" lon="-105.230575">
  <ele>1586.09</ele>
  <time>2026-08-27T18:27:28Z</time>
  <course>11.67</course>
  <speed>0.03605551275463989</speed>
  <fix>3d</fix>
</trkpt>
<trkpt lat="40.072842" lon="-105.230575">
  <ele>1586.09</ele>
  <time>2026-08-27T18:27:28Z</time>
  <course>266.03</course>
  <speed>0.0</speed>
  <fix>3d</fix>
</trkpt>
<trkpt lat="40.072842" lon="-105.230575">
  <ele>1586.09</ele>
  <time>2026-08-27T18:27:28Z</time>
  <course>11.67</course>
  <speed>0.03605551275463989</speed>
  <fix>3d</fix>
</trkpt>
<trkpt lat="40.072842" lon="-105.230575">
  <ele>1586.09</ele>
  <time>2026-08-27T18:27:28Z</time>
  <course>266.03</course>
  <speed>0.0</speed>
  <fix>3d</fix>
</trkpt>
<trkpt lat="40.072842" lon="-105.230575">
  <ele>1586.09</ele>
  <time>2026-08-27T18:27:28Z</time>
  <course>11.66</course>
  <speed>0.03605551275463989</speed>
  <fix>3d</fix>
</trkpt>
<trkpt lat="40.072842" lon="-105.230575">
  <ele>1586.09</ele>
  <time>2026-08-27T18:27:28Z</time>
  <course>266.03</course>
  <speed>0.0</speed>
  <fix>3d</fix>
</trkpt>
<trkpt lat="40.072842" lon="-105.230575">
  <ele>1586.09</ele>
  <time>2026-08-27T18:27:28Z</time>
  <course>11.65</course>
  <speed>0.03605551275463989</speed>
  <fix>3d</fix>
</trkpt>
<trkpt lat="40.072842" lon="-105.230575">
  <ele>1586.09</ele>
  <time>2026-08-27T18:27:28Z</time>
  <course>266.03</course>
  <speed>0.0</speed>
  <fix>3d</fix>
</trkpt>
<trkpt lat="40.072842" lon="-105.230575">
  <ele>1586.09</ele>
  <time>2026-08-27T18:27:28Z</time>
  <course>11.65</course>
  <speed>0.03605551275463989</speed>
  <fix>3d</fix>
</trkpt>
<trkpt lat="40.072842" lon="-105.230575">
  <ele>1586.09</ele>
  <time>2026-08-27T18:27:28Z</time>
  <course>266.03</course>
  <speed>0.0</speed>
  <fix>3d</fix>
</trkpt>
<trkpt lat="40.072842" lon="-105.230575">
  <ele>1586.09</ele>
  <time>2026-08-27T18:27:28Z</time>
  <course>11.64</course>
  <speed>0.03605551275463989</speed>
  <fix>3d</fix>
</trkpt>
<trkpt lat="40.072842" lon="-105.230575">
  <ele>1586.09</ele>
  <time>2026-08-27T18:27:28Z</time>
  <course>266.03</course>
  <speed>0.0</speed>
  <fix>3d</fix>
</trkpt>
<trkpt lat="40.072842" lon="-105.230575">
  <ele>1586.09</ele>
  <time>2026-08-27T18:27:28Z</time>
  <course>11.63</course>
  <speed>0.03605551275463989</speed>
  <fix>3d</fix>
</trkpt>
<trkpt lat="40.072842" lon="-105.230575">
  <ele>1586.09</ele>
  <time>2026-08-27T18:27:28Z</time>
  <course>266.03</course>
  <speed>0.0</speed>
  <fix>3d</fix>
</trkpt>
<trkpt lat="40.072842" lon="-105.230575">
  <ele>1586.09</ele>
  <time>2026-08-27T18:27:28Z</time>
  <course>11.62</course>
  <speed>0.03605551275463989</speed>
  <fix>3d</fix>
</trkpt>
<trkpt lat="40.072842" lon="-105.230575">
  <ele>1586.09</ele>
  <time>2026-08-27T18:27:28Z</time>
  <course>266.03</course>
  <speed>0.0</speed>
  <fix>3d</fix>
</trkpt>
<trkpt lat="40.072842" lon="-105.230575">
  <ele>1586.09</ele>
  <time>2026-08-27T18:27:28Z</time>
  <course>11.62</course>
  <speed>0.03605551275463989</speed>
  <fix>3d</fix>
</trkpt>
<trkpt lat="40.072842" lon="-105.230575">
  <ele>1586.09</ele>
  <time>2026-08-27T18:27:28Z</time>
  <course>266.03</course>
  <speed>0.0</speed>
  <fix>3d</fix>
</trkpt>
<trkpt lat="40.072842" lon="-105.230575">
  <ele>1586.09</ele>
  <time>2026-08-27T18:27:28Z</time>
  <course>11.61</course>
  <speed>0.03605551275463989</speed>
  <fix>3d</fix>
</trkpt>
<trkpt lat="40.072842" lon="-105.230575">
  <ele>1586.09</ele>
  <time>2026-08-27T18:27:28Z</time>
  <course>266.03</course>
  <speed>0.0</speed>
  <fix>3d</fix>
</trkpt>
<trkpt lat="40.072842" lon="-105.230575">
  <ele>1586.09</ele>
  <time>2026-08-27T18:27:28Z</time>
  <course>11.61</course>
  <speed>0.03605551275463989</speed>
  <fix>3d</fix>
</trkpt>
<trkpt lat="40.072842" lon="-105.230575">
  <ele>1586.09</ele>
  <time>2026-08-27T18:27:28Z</time>
  <course>266.03</course>
  <speed>0.0</speed>
  <fix>3d</fix>
</trkpt>
<trkpt lat="40.072842" lon="-105.230575">
  <ele>1586.09</ele>
  <time>2026-08-27T18:27:28Z</time>
  <course>11.6</course>
  <speed>0.03605551275463989</speed>
  <fix>3d</fix>
</trkpt>
<trkpt lat="40.072842" lon="-105.230575">
  <ele>1586.09</ele>
  <time>2026-08-27T18:27:28Z</time>
  <course>266.03</course>
  <speed>0.0</speed>
  <fix>3d</fix>
</trkpt>
<trkpt lat="40.072842" lon="-105.230575">
  <ele>1586.09</ele>
  <time>2026-08-27T18:27:28Z</time>
  <course>11.59</course>
  <speed>0.03605551275463989</speed>
  <fix>3d</fix>
</trkpt>
<trkpt lat="40.072842" lon="-105.230575">
  <ele>1586.09</ele>
  <time>2026-08-27T18:27:28Z</time>
  <course>266.03</course>
  <speed>0.0</speed>
  <fix>3d</fix>
</trkpt>
<trkpt lat="40.072842" lon="-105.230575">
  <ele>1586.09</ele>
  <time>2026-08-27T18:27:28Z</time>
  <course>11.59</course>
  <speed>0.03605551275463989</speed>
  <fix>3d</fix>
</trkpt>
<trkpt lat="40.072842" lon="-105.230575">
  <ele>1586.09</ele>
  <time>2026-08-27T18:27:28Z</time>
  <course>266.03</course>
  <speed>0.0</speed>
  <fix>3d</fix>
</trkpt>
<trkpt lat="40.072842" lon="-105.230575">
  <ele>1586.09</ele>
  <time>2026-08-27T18:27:28Z</time>
  <course>11.58</course>
  <speed>0.03605551275463989</speed>
  <fix>3d</fix>
</trkpt>
<trkpt lat="40.072842" lon="-105.230575">
  <ele>1586.09</ele>
  <time>2026-08-27T18:27:28Z</time>
  <course>266.03</course>
  <speed>0.0</speed>
  <fix>3d</fix>
</trkpt>
<trkpt lat="40.072842" lon="-105.230575">
  <ele>1586.09</ele>
  <time>2026-08-27T18:27:28Z</time>
  <course>11.57</course>
  <speed>0.03605551275463989</speed>
  <fix>3d</fix>
</trkpt>
<trkpt lat="40.072842" lon="-105.230575">
  <ele>1586.09</ele>
  <time>2026-08-27T18:27:28Z</time>
  <course>266.03</course>
  <speed>0.0</speed>
  <fix>3d</fix>
</trkpt>
<trkpt lat="40.072842" lon="-105.230575">
  <ele>1586.09</ele>
  <time>2026-08-27T18:27:28Z</time>
  <course>11.57</course>
  <speed>0.03605551275463989</speed>
  <fix>3d</fix>
</trkpt>
<trkpt lat="40.072842" lon="-105.230575">
  <ele>1586.09</ele>
  <time>2026-08-27T18:27:28Z</time>
  <course>266.03</course>
  <speed>0.0</speed>
  <fix>3d</fix>
</trkpt>
<trkpt lat="40.072842" lon="-105.230575">
  <ele>1586.09</ele>
  <time>2026-08-27T18:27:28Z</time>
  <course>11.56</course>
  <speed>0.03605551275463989</speed>
  <fix>3d</fix>
</trkpt>
<trkpt lat="40.072842" lon="-105.230575">
  <ele>1586.09</ele>
  <time>2026-08-27T18:27:28Z</time>
  <course>266.03</course>
  <speed>0.0</speed>
  <fix>3d</fix>
</trkpt>
<trkpt lat="40.072842" lon="-105.230575">
  <ele>1586.09</ele>
  <time>2026-08-27T18:27:28Z</time>
  <course>11.56</course>
  <speed>0.03605551275463989</speed>
  <fix>3d</fix>
</trkpt>
<trkpt lat="40.072842" lon="-105.230575">
  <ele>1586.09</ele>
  <time>2026-08-27T18:27:28Z</time>
  <course>266.03</course>
  <speed>0.0</speed>
  <fix>3d</fix>
</trkpt>
<trkpt lat="40.072842" lon="-105.230575">
  <ele>1586.09</ele>
  <time>2026-08-27T18:27:28Z</time>
  <course>11.55</course>
  <speed>0.03605551275463989</speed>
  <fix>3d</fix>
</trkpt>
<trkpt lat="40.072842" lon="-105.230575">
  <ele>1586.09</ele>
  <time>2026-08-27T18:27:28Z</time>
  <course>266.03</course>
  <speed>0.0</speed>
  <fix>3d</fix>
</trkpt>
<trkpt lat="40.072842" lon="-105.230575">
  <ele>1586.09</ele>
  <time>2026-08-27T18:27:28Z</time>
  <course>11.54</course>
  <speed>0.03605551275463989</speed>
  <fix>3d</fix>
</trkpt>
<trkpt lat="40.072842" lon="-105.230575">
  <ele>1586.09</ele>
  <time>2026-08-27T18:27:28Z</time>
  <course>266.03</course>
  <speed>0.0</speed>
  <fix>3d</fix>
</trkpt>
<trkpt lat="40.072842" lon="-105.230575">
  <ele>1586.09</ele>
  <time>2026-08-27T18:27:28Z</time>
  <course>11.54</course>
  <speed>0.03605551275463989</speed>
  <fix>3d</fix>
</trkpt>
<trkpt lat="40.072842" lon="-105.230575">
  <ele>1586.09</ele>
  <time>2026-08-27T18:27:28Z</time>
  <course>266.03</course>
  <speed>0.0</speed>
  <fix>3d</fix>
</trkpt>
<trkpt lat="40.072842" lon="-105.230575">
  <ele>1586.09</ele>
  <time>2026-08-27T18:27:28Z</time>
  <course>11.53</course>
  <speed>0.03605551275463989</speed>
  <fix>3d</fix>
</trkpt>
<trkpt lat="40.072842" lon="-105.230575">
  <ele>1586.09</ele>
  <time>2026-08-27T18:27:28Z</time>
  <course>266.03</course>
  <speed>0.0</speed>
  <fix>3d</fix>
</trkpt>
<trkpt lat="40.072842" lon="-105.230575">
  <ele>1586.09</ele>
  <time>2026-08-27T18:27:28Z</time>
  <course>11.53</course>
  <speed>0.03605551275463989</speed>
  <fix>3d</fix>
</trkpt>
<trkpt lat="40.072842" lon="-105.230575">
  <ele>1586.09</ele>
  <time>2026-08-27T18:27:28Z</time>
  <course>266.03</course>
  <speed>0.0</speed>
  <fix>3d</fix>
</trkpt>
<trkpt lat="40.072842" lon="-105.230575">
  <ele>1586.09</ele>
  <time>2026-08-27T18:27:28Z</time>
  <course>11.52</course>
  <speed>0.03605551275463989</speed>
  <fix>3d</fix>
</trkpt>
<trkpt lat="40.072842" lon="-105.230575">
  <ele>1586.09</ele>
  <time>2026-08-27T18:27:28Z</time>
  <course>266.03</course>
  <speed>0.0</speed>
  <fix>3d</fix>
</trkpt>
<trkpt lat="40.072842" lon="-105.230575">
  <ele>1586.09</ele>
  <time>2026-08-27T18:27:28Z</time>
  <course>11.51</course>
  <speed>0.03605551275463989</speed>
  <fix>3d</fix>
</trkpt>
<trkpt lat="40.072842" lon="-105.230575">
  <ele>1586.09</ele>
  <time>2026-08-27T18:27:28Z</time>
  <course>266.03</course>
  <speed>0.0</speed>
  <fix>3d</fix>
</trkpt>
<trkpt lat="40.072842" lon="-105.230575">
  <ele>1586.09</ele>
  <time>2026-08-27T18:27:28Z</time>
  <course>11.51</course>
  <speed>0.03605551275463989</speed>
  <fix>3d</fix>
</trkpt>
<trkpt lat="40.072842" lon="-105.230575">
  <ele>1586.09</ele>
  <time>2026-08-27T18:27:28Z</time>
  <course>266.03</course>
  <speed>0.0</speed>
  <fix>3d</fix>
</trkpt>
<trkpt lat="40.072842" lon="-105.230575">
  <ele>1586.09</ele>
  <time>2026-08-27T18:27:28Z</time>
  <course>11.5</course>
  <speed>0.03605551275463989</speed>
  <fix>3d</fix>
</trkpt>
<trkpt lat="40.072842" lon="-105.230575">
  <ele>1586.09</ele>
  <time>2026-08-27T18:27:28Z</time>
  <course>266.03</course>
  <speed>0.0</speed>
  <fix>3d</fix>
</trkpt>
<trkpt lat="40.072842" lon="-105.230575">
  <ele>1586.09</ele>
  <time>2026-08-27T18:27:28Z</time>
  <course>11.5</course>
  <speed>0.03605551275463989</speed>
  <fix>3d</fix>
</trkpt>
<trkpt lat="40.072842" lon="-105.230575">
  <ele>1586.09</ele>
  <time>2026-08-27T18:27:28Z</time>
  <course>266.03</course>
  <speed>0.0</speed>
  <fix>3d</fix>
</trkpt>
<trkpt lat="40.072842" lon="-105.230575">
  <ele>1586.09</ele>
  <time>2026-08-27T18:27:28Z</time>
  <course>11.49</course>
  <speed>0.044721359549995794</speed>
  <fix>3d</fix>
</trkpt>
<trkpt lat="40.072842" lon="-105.230575">
  <ele>1586.09</ele>
  <time>2026-08-27T18:27:28Z</time>
  <course>266.03</course>
  <speed>0.0</speed>
  <fix>3d</fix>
</trkpt>
<trkpt lat="40.072842" lon="-105.230575">
  <ele>1586.09</ele>
  <time>2026-08-27T18:27:28Z</time>
  <course>11.49</course>
  <speed>0.044721359549995794</speed>
  <fix>3d</fix>
</trkpt>
<trkpt lat="40.072842" lon="-105.230575">
  <ele>1586.09</ele>
  <time>2026-08-27T18:27:28Z</time>
  <course>266.03</course>
  <speed>0.0</speed>
  <fix>3d</fix>
</trkpt>
<trkpt lat="40.072842" lon="-105.230575">
  <ele>1586.09</ele>
  <time>2026-08-27T18:27:28Z</time>
  <course>11.48</course>
  <speed>0.044721359549995794</speed>
  <fix>3d</fix>
</trkpt>
<trkpt lat="40.072842" lon="-105.230575">
  <ele>1586.09</ele>
  <time>2026-08-27T18:27:28Z</time>
  <course>266.03</course>
  <speed>0.0</speed>
  <fix>3d</fix>
</trkpt>
<trkpt lat="40.072842" lon="-105.230575">
  <ele>1586.09</ele>
  <time>2026-08-27T18:27:28Z</time>
  <course>11.48</course>
  <speed>0.044721359549995794</speed>
  <fix>3d</fix>
</trkpt>
<trkpt lat="40.072842" lon="-105.230575">
  <ele>1586.09</ele>
  <time>2026-08-27T18:27:28Z</time>
  <course>266.03</course>
  <speed>0.0</speed>
  <fix>3d</fix>
</trkpt>
<trkpt lat="40.072842" lon="-105.230575">
  <ele>1586.09</ele>
  <time>2026-08-27T18:27:28Z</time>
  <course>11.47</course>
  <speed>0.044721359549995794</speed>
  <fix>3d</fix>
</trkpt>
<trkpt lat="40.072842" lon="-105.230575">
  <ele>1586.09</ele>
  <time>2026-08-27T18:27:28Z</time>
  <course>266.03</course>
  <speed>0.0</speed>
  <fix>3d</fix>
</trkpt>
<trkpt lat="40.072842" lon="-105.230575">
  <ele>1586.09</ele>
  <time>2026-08-27T18:27:28Z</time>
  <course>11.47</course>
  <speed>0.044721359549995794</speed>
  <fix>3d</fix>
</trkpt>
<trkpt lat="40.072842" lon="-105.230575">
  <ele>1586.09</ele>
  <time>2026-08-27T18:27:28Z</time>
  <course>266.03</course>
  <speed>0.0</speed>
  <fix>3d</fix>
</trkpt>
<trkpt lat="40.072842" lon="-105.230575">
  <ele>1586.09</ele>
  <time>2026-08-27T18:27:28Z</time>
  <course>11.46</course>
  <speed>0.044721359549995794</speed>
  <fix>3d</fix>
</trkpt>
<trkpt lat="40.072842" lon="-105.230575">
  <ele>1586.09</ele>
  <time>2026-08-27T18:27:28Z</time>
  <course>266.03</course>
  <speed>0.0</speed>
  <fix>3d</fix>
</trkpt>
<trkpt lat="40.072842" lon="-105.230575">
  <ele>1586.09</ele>
  <time>2026-08-27T18:27:28Z</time>
  <course>11.46</course>
  <speed>0.044721359549995794</speed>
  <fix>3d</fix>
</trkpt>
<trkpt lat="40.072842" lon="-105.230575">
  <ele>1586.09</ele>
  <time>2026-08-27T18:27:28Z</time>
  <course>266.03</course>
  <speed>0.0</speed>
  <fix>3d</fix>
</trkpt>
<trkpt lat="40.072842" lon="-105.230575">
  <ele>1586.15</ele>
  <time>2026-08-27T18:27:28Z</time>
  <course>11.45</course>
  <speed>0.0</speed>
  <fix>3d</fix>
</trkpt>
<trkpt lat="40.072842" lon="-105.230575">
  <ele>1586.09</ele>
  <time>2026-08-27T18:27:28Z</time>
  <course>266.03</course>
  <speed>0.0</speed>
  <fix>3d</fix>
</trkpt>
<trkpt lat="40.072842" lon="-105.230575">
  <ele>1586.15</ele>
  <time>2026-08-27T18:27:28Z</time>
  <course>11.45</course>
  <speed>0.0</speed>
  <fix>3d</fix>
</trkpt>
<trkpt lat="40.072842" lon="-105.230575">
  <ele>1586.09</ele>
  <time>2026-08-27T18:27:28Z</time>
  <course>266.03</course>
  <speed>0.0</speed>
  <fix>3d</fix>
</trkpt>
<trkpt lat="40.072842" lon="-105.230575">
  <ele>1586.14</ele>
  <time>2026-08-27T18:27:28Z</time>
  <course>11.44</course>
  <speed>0.0</speed>
  <fix>3d</fix>
</trkpt>
<trkpt lat="40.072842" lon="-105.230575">
  <ele>1586.09</ele>
  <time>2026-08-27T18:27:28Z</time>
  <course>281.49</course>
  <speed>0.0</speed>
  <fix>3d</fix>
</trkpt>
<trkpt lat="40.072842" lon="-105.230575">
  <ele>1586.14</ele>
  <time>2026-08-27T18:27:28Z</time>
  <course>11.44</course>
  <speed>0.0</speed>
  <fix>3d</fix>
</trkpt>
<trkpt lat="40.072842" lon="-105.230575">
  <ele>1586.09</ele>
  <time>2026-08-27T18:27:28Z</time>
  <course>269.42</course>
  <speed>0.0</speed>
  <fix>3d</fix>
</trkpt>
<trkpt lat="40.072842" lon="-105.230575">
  <ele>1586.14</ele>
  <time>2026-08-27T18:27:28Z</time>
  <course>11.43</course>
  <speed>0.0</speed>
  <fix>3d</fix>
</trkpt>
<trkpt lat="40.072842" lon="-105.230575">
  <ele>1586.09</ele>
  <time>2026-08-27T18:27:28Z</time>
  <course>211.84</course>
  <speed>0.0</speed>
  <fix>3d</fix>
</trkpt>
<trkpt lat="40.072842" lon="-105.230575">
  <ele>1586.14</ele>
  <time>2026-08-27T18:27:28Z</time>
  <course>11.43</course>
  <speed>0.01</speed>
  <fix>3d</fix>
</trkpt>
<trkpt lat="40.072842" lon="-105.230575">
  <ele>1586.09</ele>
  <time>2026-08-27T18:27:28Z</time>
  <course>76.8</course>
  <speed>0.0</speed>
  <fix>3d</fix>
</trkpt>
<trkpt lat="40.072842" lon="-105.230575">
  <ele>1586.14</ele>
  <time>2026-08-27T18:27:28Z</time>
  <course>11.42</course>
  <speed>0.01</speed>
  <fix>3d</fix>
</trkpt>
<trkpt lat="40.072842" lon="-105.230575">
  <ele>1586.09</ele>
  <time>2026-08-27T18:27:28Z</time>
  <course>283.66</course>
  <speed>0.0</speed>
  <fix>3d</fix>
</trkpt>
<trkpt lat="40.072842" lon="-105.230575">
  <ele>1586.14</ele>
  <time>2026-08-27T18:27:28Z</time>
  <course>11.42</course>
  <speed>0.01</speed>
  <fix>3d</fix>
</trkpt>
<trkpt lat="40.072842" lon="-105.230575">
  <ele>1586.09</ele>
  <time>2026-08-27T18:27:28Z</time>
  <course>262.24</course>
  <speed>0.0</speed>
  <fix>3d</fix>
</trkpt>
<trkpt lat="40.072842" lon="-105.230575">
  <ele>1586.14</ele>
  <time>2026-08-27T18:27:28Z</time>
  <course>11.42</course>
  <speed>0.01414213562373095</speed>
  <fix>3d</fix>
</trkpt>
<trkpt lat="40.072842" lon="-105.230575">
  <ele>1586.09</ele>
  <time>2026-08-27T18:27:28Z</time>
  <course>263.53</course>
  <speed>0.0</speed>
  <fix>3d</fix>
</trkpt>
<trkpt lat="40.072842" lon="-105.230575">
  <ele>1586.15</ele>
  <time>2026-08-27T18:27:28Z</time>
  <course>11.41</course>
  <speed>0.01414213562373095</speed>
  <fix>3d</fix>
</trkpt>
<trkpt lat="40.072842" lon="-105.230575">
  <ele>1586.09</ele>
  <time>2026-08-27T18:27:28Z</time>
  <course>267.07</course>
  <speed>0.0</speed>
  <fix>3d</fix>
</trkpt>
<trkpt lat="40.072842" lon="-105.230575">
  <ele>1586.15</ele>
  <time>2026-08-27T18:27:28Z</time>
  <course>11.41</course>
  <speed>0.01414213562373095</speed>
  <fix>3d</fix>
</trkpt>
<trkpt lat="40.072842" lon="-105.230575">
  <ele>1586.09</ele>
  <time>2026-08-27T18:27:28Z</time>
  <course>266.23</course>
  <speed>0.0</speed>
  <fix>3d</fix>
</trkpt>
<trkpt lat="40.072842" lon="-105.230575">
  <ele>1586.15</ele>
  <time>2026-08-27T18:27:28Z</time>
  <course>11.4</course>
  <speed>0.022360679774997897</speed>
  <fix>3d</fix>
</trkpt>
<trkpt lat="40.072842" lon="-105.230575">
  <ele>1586.09</ele>
  <time>2026-08-27T18:27:28Z</time>
  <course>265.88</course>
  <speed>0.0</speed>
  <fix>3d</fix>
</trkpt>
<trkpt lat="40.072842" lon="-105.230575">
  <ele>1586.15</ele>
  <time>2026-08-27T18:27:28Z</time>
  <course>11.4</course>
  <speed>0.022360679774997897</speed>
  <fix>3d</fix>
</trkpt>
<trkpt lat="40.072842" lon="-105.230575">
  <ele>1586.09</ele>
  <time>2026-08-27T18:27:28Z</time>
  <course>259.35</course>
  <speed>0.0</speed>
  <fix>3d</fix>
</trkpt>
<trkpt lat="40.072842" lon="-105.230575">
  <ele>1586.16</ele>
  <time>2026-08-27T18:27:28Z</time>
  <course>11.4</course>
  <speed>0.022360679774997897</speed>
  <fix>3d</fix>
</trkpt>
<trkpt lat="40.072842" lon="-105.230575">
  <ele>1586.09</ele>
  <time>2026-08-27T18:27:28Z</time>
  <course>264.89</course>
  <speed>0.0</speed>
  <fix>3d</fix>
</trkpt>
<trkpt lat="40.072842" lon="-105.230575">
  <ele>1586.16</ele>
  <time>2026-08-27T18:27:28Z</time>
  <course>11.39</course>
  <speed>0.022360679774997897</speed>
  <fix>3d</fix>
</trkpt>
<trkpt lat="40.072842" lon="-105.230575">
  <ele>1586.09</ele>
  <time>2026-08-27T18:27:28Z</time>
  <course>268.54</course>
  <speed>0.0</speed>
  <fix>3d</fix>
</trkpt>
<trkpt lat="40.072842" lon="-105.230575">
  <ele>1586.16</ele>
  <time>2026-08-27T18:27:28Z</time>
  <course>11.39</course>
  <speed>0.01414213562373095</speed>
  <fix>3d</fix>
</trkpt>
<trkpt lat="40.072842" lon="-105.230575">
  <ele>1586.09</ele>
  <time>2026-08-27T18:27:28Z</time>
  <course>264.11</course>
  <speed>0.0</speed>
  <fix>3d</fix>
</trkpt>
<trkpt lat="40.072842" lon="-105.230575">
  <ele>1586.16</ele>
  <time>2026-08-27T18:27:28Z</time>
  <course>11.39</course>
  <speed>0.01414213562373095</speed>
  <fix>3d</fix>
</trkpt>
<trkpt lat="40.072842" lon="-105.230575">
  <ele>1586.09</ele>
  <time>2026-08-27T18:27:28Z</time>
  <course>266.08</course>
  <speed>0.0</speed>
  <fix>3d</fix>
</trkpt>
<trkpt lat="40.072842" lon="-105.230575">
  <ele>1586.16</ele>
  <time>2026-08-27T18:27:28Z</time>
  <course>11.38</course>
  <speed>0.01</speed>
  <fix>3d</fix>
</trkpt>
<trkpt lat="40.072842" lon="-105.230575">
  <ele>1586.09</ele>
  <time>2026-08-27T18:27:28Z</time>
  <course>266.29</course>
  <speed>0.0</speed>
  <fix>3d</fix>
</trkpt>
<trkpt lat="40.072842" lon="-105.230575">
  <ele>1586.16</ele>
  <time>2026-08-27T18:27:28Z</time>
  <course>11.38</course>
  <speed>0.0</speed>
  <fix>3d</fix>
</trkpt>
<trkpt lat="40.072842" lon="-105.230575">
  <ele>1586.09</ele>
  <time>2026-08-27T18:27:28Z</time>
  <course>266.0</course>
  <speed>0.0</speed>
  <fix>3d</fix>
</trkpt>
<trkpt lat="40.072842" lon="-105.230575">
  <ele>1586.16</ele>
  <time>2026-08-27T18:27:28Z</time>
  <course>11.37</course>
  <speed>0.0</speed>
  <fix>3d</fix>
</trkpt>
<trkpt lat="40.072842" lon="-105.230575">
  <ele>1586.09</ele>
  <time>2026-08-27T18:27:28Z</time>
  <course>266.01</course>
  <speed>0.0</speed>
  <fix>3d</fix>
</trkpt>
<trkpt lat="40.072842" lon="-105.230575">
  <ele>1586.16</ele>
  <time>2026-08-27T18:27:28Z</time>
  <course>11.37</course>
  <speed>0.0</speed>
  <fix>3d</fix>
</trkpt>
<trkpt lat="40.072842" lon="-105.230575">
  <ele>1586.09</ele>
  <time>2026-08-27T18:27:28Z</time>
  <course>266.04</course>
  <speed>0.0</speed>
  <fix>3d</fix>
</trkpt>
<trkpt lat="40.072842" lon="-105.230575">
  <ele>1586.16</ele>
  <time>2026-08-27T18:27:28Z</time>
  <course>11.37</course>
  <speed>0.0</speed>
  <fix>3d</fix>
</trkpt>
<trkpt lat="40.072842" lon="-105.230575">
  <ele>1586.09</ele>
  <time>2026-08-27T18:27:28Z</time>
  <course>315.89</course>
  <speed>0.0</speed>
  <fix>3d</fix>
</trkpt>
<trkpt lat="40.072842" lon="-105.230575">
  <ele>1586.16</ele>
  <time>2026-08-27T18:27:28Z</time>
  <course>11.36</course>
  <speed>0.0</speed>
  <fix>3d</fix>
</trkpt>
<trkpt lat="40.072842" lon="-105.230575">
  <ele>1586.09</ele>
  <time>2026-08-27T18:27:28Z</time>
  <course>322.06</course>
  <speed>0.0</speed>
  <fix>3d</fix>
</trkpt>
<trkpt lat="40.072842" lon="-105.230575">
  <ele>1586.16</ele>
  <time>2026-08-27T18:27:28Z</time>
  <course>11.36</course>
  <speed>0.0</speed>
  <fix>3d</fix>
</trkpt>
<trkpt lat="40.072842" lon="-105.230575">
  <ele>1586.09</ele>
  <time>2026-08-27T18:27:28Z</time>
  <course>312.76</course>
  <speed>0.0</speed>
  <fix>3d</fix>
</trkpt>
<trkpt lat="40.072842" lon="-105.230575">
  <ele>1586.16</ele>
  <time>2026-08-27T18:27:28Z</time>
  <course>11.36</course>
  <speed>0.0</speed>
  <fix>3d</fix>
</trkpt>
<trkpt lat="40.072842" lon="-105.230575">
  <ele>1586.09</ele>
  <time>2026-08-27T18:27:28Z</time>
  <course>195.16</course>
  <speed>0.0</speed>
  <fix>3d</fix>
</trkpt>
<trkpt lat="40.072842" lon="-105.230575">
  <ele>1586.16</ele>
  <time>2026-08-27T18:27:28Z</time>
  <course>11.35</course>
  <speed>0.0</speed>
  <fix>3d</fix>
</trkpt>
<trkpt lat="40.072842" lon="-105.230575">
  <ele>1586.09</ele>
  <time>2026-08-27T18:27:28Z</time>
  <course>162.38</course>
  <speed>0.0</speed>
  <fix>3d</fix>
</trkpt>
<trkpt lat="40.072842" lon="-105.230575">
  <ele>1586.16</ele>
  <time>2026-08-27T18:27:28Z</time>
  <course>11.35</course>
  <speed>0.0</speed>
  <fix>3d</fix>
</trkpt>
<trkpt lat="40.072842" lon="-105.230575">
  <ele>1586.09</ele>
  <time>2026-08-27T18:27:28Z</time>
  <course>301.46</course>
  <speed>0.0</speed>
  <fix>3d</fix>
</trkpt>
<trkpt lat="40.072842" lon="-105.230575">
  <ele>1586.16</ele>
  <time>2026-08-27T18:27:28Z</time>
  <course>11.34</course>
  <speed>0.0</speed>
  <fix>3d</fix>
</trkpt>
<trkpt lat="40.072842" lon="-105.230575">
  <ele>1586.09</ele>
  <time>2026-08-27T18:27:28Z</time>
  <course>267.99</course>
  <speed>0.0</speed>
  <fix>3d</fix>
</trkpt>
<trkpt lat="40.072842" lon="-105.230575">
  <ele>1586.16</ele>
  <time>2026-08-27T18:27:28Z</time>
  <course>11.33</course>
  <speed>0.0</speed>
  <fix>3d</fix>
</trkpt>
<trkpt lat="40.072842" lon="-105.230575">
  <ele>1586.09</ele>
  <time>2026-08-27T18:27:28Z</time>
  <course>260.56</course>
  <speed>0.0</speed>
  <fix>3d</fix>
</trkpt>
<trkpt lat="40.072842" lon="-105.230575">
  <ele>1586.16</ele>
  <time>2026-08-27T18:27:28Z</time>
  <course>11.32</course>
  <speed>0.0</speed>
  <fix>3d</fix>
</trkpt>
<trkpt lat="40.072842" lon="-105.230575">
  <ele>1586.09</ele>
  <time>2026-08-27T18:27:28Z</time>
  <course>146.89</course>
  <speed>0.0</speed>
  <fix>3d</fix>
</trkpt>
<trkpt lat="40.072842" lon="-105.230575">
  <ele>1586.16</ele>
  <time>2026-08-27T18:27:28Z</time>
  <course>11.31</course>
  <speed>0.0</speed>
  <fix>3d</fix>
</trkpt>
<trkpt lat="40.072842" lon="-105.230575">
  <ele>1586.09</ele>
  <time>2026-08-27T18:27:28Z</time>
  <course>342.13</course>
  <speed>0.0</speed>
  <fix>3d</fix>
</trkpt>
<trkpt lat="40.072842" lon="-105.230575">
  <ele>1586.16</ele>
  <time>2026-08-27T18:27:28Z</time>
  <course>11.3</course>
  <speed>0.0</speed>
  <fix>3d</fix>
</trkpt>
<trkpt lat="40.072842" lon="-105.230575">
  <ele>1586.09</ele>
  <time>2026-08-27T18:27:28Z</time>
  <course>324.46</course>
  <speed>0.0</speed>
  <fix>3d</fix>
</trkpt>
<trkpt lat="40.072842" lon="-105.230575">
  <ele>1586.16</ele>
  <time>2026-08-27T18:27:28Z</time>
  <course>11.28</course>
  <speed>0.0</speed>
  <fix>3d</fix>
</trkpt>
<trkpt lat="40.072842" lon="-105.230575">
  <ele>1586.09</ele>
  <time>2026-08-27T18:27:28Z</time>
  <course>279.76</course>
  <speed>0.0</speed>
  <fix>3d</fix>
</trkpt>
<trkpt lat="40.072842" lon="-105.230575">
  <ele>1586.16</ele>
  <time>2026-08-27T18:27:28Z</time>
  <course>11.27</course>
  <speed>0.0</speed>
  <fix>3d</fix>
</trkpt>
<trkpt lat="40.072842" lon="-105.230575">
  <ele>1586.09</ele>
  <time>2026-08-27T18:27:28Z</time>
  <course>257.04</course>
  <speed>0.0</speed>
  <fix>3d</fix>
</trkpt>
<trkpt lat="40.072842" lon="-105.230575">
  <ele>1586.16</ele>
  <time>2026-08-27T18:27:28Z</time>
  <course>11.25</course>
  <speed>0.0</speed>
  <fix>3d</fix>
</trkpt>
<trkpt lat="40.072842" lon="-105.230575">
  <ele>1586.09</ele>
  <time>2026-08-27T18:27:28Z</time>
  <course>256.57</course>
  <speed>0.0</speed>
  <fix>3d</fix>
</trkpt>
<trkpt lat="40.072842" lon="-105.230575">
  <ele>1586.16</ele>
  <time>2026-08-27T18:27:28Z</time>
  <course>11.23</course>
  <speed>0.0</speed>
  <fix>3d</fix>
</trkpt>
<trkpt lat="40.072842" lon="-105.230575">
  <ele>1586.09</ele>
  <time>2026-08-27T18:27:28Z</time>
  <course>275.54</course>
  <speed>0.0</speed>
  <fix>3d</fix>
</trkpt>
<trkpt lat="40.072842" lon="-105.230575">
  <ele>1586.16</ele>
  <time>2026-08-27T18:27:28Z</time>
  <course>11.21</course>
  <speed>0.0</speed>
  <fix>3d</fix>
</trkpt>
<trkpt lat="40.072842" lon="-105.230575">
  <ele>1586.09</ele>
  <time>2026-08-27T18:27:28Z</time>
  <course>279.85</course>
  <speed>0.0</speed>
  <fix>3d</fix>
</trkpt>
<trkpt lat="40.072842" lon="-105.230575">
  <ele>1586.16</ele>
  <time>2026-08-27T18:27:28Z</time>
  <course>11.19</course>
  <speed>0.0</speed>
  <fix>3d</fix>
</trkpt>
<trkpt lat="40.072842" lon="-105.230575">
  <ele>1586.09</ele>
  <time>2026-08-27T18:27:28Z</time>
  <course>310.57</course>
  <speed>0.0</speed>
  <fix>3d</fix>
</trkpt>
<trkpt lat="40.072842" lon="-105.230575">
  <ele>1586.16</ele>
  <time>2026-08-27T18:27:28Z</time>
  <course>11.17</course>
  <speed>0.0</speed>
  <fix>3d</fix>
</trkpt>
<trkpt lat="40.072842" lon="-105.230575">
  <ele>1586.09</ele>
  <time>2026-08-27T18:27:28Z</time>
  <course>288.5</course>
  <speed>0.0</speed>
  <fix>3d</fix>
</trkpt>
<trkpt lat="40.072842" lon="-105.230575">
  <ele>1586.17</ele>
  <time>2026-08-27T18:27:28Z</time>
  <course>11.14</course>
  <speed>0.0</speed>
  <fix>3d</fix>
</trkpt>
<trkpt lat="40.072842" lon="-105.230575">
  <ele>1586.09</ele>
  <time>2026-08-27T18:27:28Z</time>
  <course>258.35</course>
  <speed>0.0</speed>
  <fix>3d</fix>
</trkpt>
<trkpt lat="40.072842" lon="-105.230575">
  <ele>1586.17</ele>
  <time>2026-08-27T18:27:28Z</time>
  <course>11.11</course>
  <speed>0.0</speed>
  <fix>3d</fix>
</trkpt>
<trkpt lat="40.072842" lon="-105.230575">
  <ele>1586.09</ele>
  <time>2026-08-27T18:27:28Z</time>
  <course>263.96</course>
  <speed>0.0</speed>
  <fix>3d</fix>
</trkpt>
<trkpt lat="40.072842" lon="-105.230575">
  <ele>1586.17</ele>
  <time>2026-08-27T18:27:28Z</time>
  <course>11.09</course>
  <speed>0.01</speed>
  <fix>3d</fix>
</trkpt>
<trkpt lat="40.072842" lon="-105.230575">
  <ele>1586.09</ele>
  <time>2026-08-27T18:27:28Z</time>
  <course>280.25</course>
  <speed>0.0</speed>
  <fix>3d</fix>
</trkpt>
<trkpt lat="40.072842" lon="-105.230575">
  <ele>1586.17</ele>
  <time>2026-08-27T18:27:28Z</time>
  <course>11.06</course>
  <speed>0.01</speed>
  <fix>3d</fix>
</trkpt>
<trkpt lat="40.072842" lon="-105.230575">
  <ele>1586.09</ele>
  <time>2026-08-27T18:27:28Z</time>
  <course>286.94</course>
  <speed>0.0</speed>
  <fix>3d</fix>
</trkpt>
<trkpt lat="40.072842" lon="-105.230575">
  <ele>1586.18</ele>
  <time>2026-08-27T18:27:28Z</time>
  <course>11.03</course>
  <speed>0.01</speed>
  <fix>3d</fix>
</trkpt>
<trkpt lat="40.072842" lon="-105.230575">
  <ele>1586.09</ele>
  <time>2026-08-27T18:27:28Z</time>
  <course>266.12</course>
  <speed>0.0</speed>
  <fix>3d</fix>
</trkpt>
<trkpt lat="40.072842" lon="-105.230575">
  <ele>1586.18</ele>
  <time>2026-08-27T18:27:28Z</time>
  <course>11.0</course>
  <speed>0.01</speed>
  <fix>3d</fix>
</trkpt>
<trkpt lat="40.072842" lon="-105.230575">
  <ele>1586.09</ele>
  <time>2026-08-27T18:27:28Z</time>
  <course>260.91</course>
  <speed>0.0</speed>
  <fix>3d</fix>
</trkpt>
<trkpt lat="40.072842" lon="-105.230575">
  <ele>1586.18</ele>
  <time>2026-08-27T18:27:28Z</time>
  <course>10.97</course>
  <speed>0.01</speed>
  <fix>3d</fix>
</trkpt>
<trkpt lat="40.072842" lon="-105.230575">
  <ele>1586.09</ele>
  <time>2026-08-27T18:27:28Z</time>
  <course>259.93</course>
  <speed>0.0</speed>
  <fix>3d</fix>
</trkpt>
<trkpt lat="40.072842" lon="-105.230575">
  <ele>1586.18</ele>
  <time>2026-08-27T18:27:28Z</time>
  <course>10.93</course>
  <speed>0.01414213562373095</speed>
  <fix>3d</fix>
</trkpt>
<trkpt lat="40.072842" lon="-105.230575">
  <ele>1586.09</ele>
  <time>2026-08-27T18:27:28Z</time>
  <course>274.32</course>
  <speed>0.0</speed>
  <fix>3d</fix>
</trkpt>
<trkpt lat="40.072842" lon="-105.230575">
  <ele>1586.18</ele>
  <time>2026-08-27T18:27:28Z</time>
  <course>10.9</course>
  <speed>0.01414213562373095</speed>
  <fix>3d</fix>
</trkpt>
<trkpt lat="40.072842" lon="-105.230575">
  <ele>1586.09</ele>
  <time>2026-08-27T18:27:28Z</time>
  <course>275.39</course>
  <speed>0.0</speed>
  <fix>3d</fix>
</trkpt>
<trkpt lat="40.072842" lon="-105.230575">
  <ele>1586.18</ele>
  <time>2026-08-27T18:27:28Z</time>
  <course>10.86</course>
  <speed>0.01414213562373095</speed>
  <fix>3d</fix>
</trkpt>
<trkpt lat="40.072842" lon="-105.230575">
  <ele>1586.09</ele>
  <time>2026-08-27T18:27:28Z</time>
  <course>292.15</course>
  <speed>0.0</speed>
  <fix>3d</fix>
</trkpt>
<trkpt lat="40.072842" lon="-105.230575">
  <ele>1586.18</ele>
  <time>2026-08-27T18:27:28Z</time>
  <course>10.83</course>
  <speed>0.01414213562373095</speed>
  <fix>3d</fix>
</trkpt>
<trkpt lat="40.072842" lon="-105.230575">
  <ele>1586.09</ele>
  <time>2026-08-27T18:27:28Z</time>
  <course>285.01</course>
  <speed>0.0</speed>
  <fix>3d</fix>
</trkpt>
<trkpt lat="40.072842" lon="-105.230575">
  <ele>1586.18</ele>
  <time>2026-08-27T18:27:28Z</time>
  <course>10.79</course>
  <speed>0.01414213562373095</speed>
  <fix>3d</fix>
</trkpt>
<trkpt lat="40.072842" lon="-105.230575">
  <ele>1586.09</ele>
  <time>2026-08-27T18:27:28Z</time>
  <course>270.82</course>
  <speed>0.0</speed>
  <fix>3d</fix>
</trkpt>
<trkpt lat="40.072842" lon="-105.230575">
  <ele>1586.18</ele>
  <time>2026-08-27T18:27:28Z</time>
  <course>10.75</course>
  <speed>0.01414213562373095</speed>
  <fix>3d</fix>
</trkpt>
<trkpt lat="40.072842" lon="-105.230575">
  <ele>1586.09</ele>
  <time>2026-08-27T18:27:28Z</time>
  <course>267.43</course>
  <speed>0.0</speed>
  <fix>3d</fix>
</trkpt>
<trkpt lat="40.0728419" lon="-105.230575">
  <ele>1586.17</ele>
  <time>2026-08-27T18:27:28Z</time>
  <course>10.71</course>
  <speed>0.01414213562373095</speed>
  <fix>3d</fix>
</trkpt>
<trkpt lat="40.072842" lon="-105.230575">
  <ele>1586.09</ele>
  <time>2026-08-27T18:27:28Z</time>
  <course>272.04</course>
  <speed>0.0</speed>
  <fix>3d</fix>
</trkpt>
<trkpt lat="40.0728419" lon="-105.230575">
  <ele>1586.17</ele>
  <time>2026-08-27T18:27:28Z</time>
  <course>10.67</course>
  <speed>0.022360679774997897</speed>
  <fix>3d</fix>
</trkpt>
<trkpt lat="40.072842" lon="-105.230575">
  <ele>1586.09</ele>
  <time>2026-08-27T18:27:28Z</time>
  <course>269.37</course>
  <speed>0.0</speed>
  <fix>3d</fix>
</trkpt>
<trkpt lat="40.0728419" lon="-105.2305749">
  <ele>1586.17</ele>
  <time>2026-08-27T18:27:28Z</time>
  <course>10.63</course>
  <speed>0.022360679774997897</speed>
  <fix>3d</fix>
</trkpt>
<trkpt lat="40.072842" lon="-105.230575">
  <ele>1586.09</ele>
  <time>2026-08-27T18:27:28Z</time>
  <course>281.21</course>
  <speed>0.0</speed>
  <fix>3d</fix>
</trkpt>
<trkpt lat="40.0728419" lon="-105.2305749">
  <ele>1586.17</ele>
  <time>2026-08-27T18:27:28Z</time>
  <course>10.58</course>
  <speed>0.022360679774997897</speed>
  <fix>3d</fix>
</trkpt>
<trkpt lat="40.072842" lon="-105.230575">
  <ele>1586.09</ele>
  <time>2026-08-27T18:27:28Z</time>
  <course>281.54</course>
  <speed>0.0</speed>
  <fix>3d</fix>
</trkpt>
<trkpt lat="40.0728419" lon="-105.2305749">
  <ele>1586.17</ele>
  <time>2026-08-27T18:27:28Z</time>
  <course>10.54</course>
  <speed>0.022360679774997897</speed>
  <fix>3d</fix>
</trkpt>
<trkpt lat="40.072842" lon="-105.230575">
  <ele>1586.09</ele>
  <time>2026-08-27T18:27:28Z</time>
  <course>267.48</course>
  <speed>0.0</speed>
  <fix>3d</fix>
</trkpt>
<trkpt lat="40.0728419" lon="-105.2305749">
  <ele>1586.17</ele>
  <time>2026-08-27T18:27:28Z</time>
  <course>10.49</course>
  <speed>0.022360679774997897</speed>
  <fix>3d</fix>
</trkpt>
<trkpt lat="40.072842" lon="-105.230575">
  <ele>1586.09</ele>
  <time>2026-08-27T18:27:28Z</time>
  <course>269.25</course>
  <speed>0.0</speed>
  <fix>3d</fix>
</trkpt>
<trkpt lat="40.0728419" lon="-105.2305749">
  <ele>1586.17</ele>
  <time>2026-08-27T18:27:28Z</time>
  <course>10.45</course>
  <speed>0.022360679774997897</speed>
  <fix>3d</fix>
</trkpt>
<trkpt lat="40.072842" lon="-105.230575">
  <ele>1586.09</ele>
  <time>2026-08-27T18:27:28Z</time>
  <course>268.63</course>
  <speed>0.0</speed>
  <fix>3d</fix>
</trkpt>
<trkpt lat="40.0728419" lon="-105.2305749">
  <ele>1586.18</ele>
  <time>2026-08-27T18:27:28Z</time>
  <course>10.4</course>
  <speed>0.022360679774997897</speed>
  <fix>3d</fix>
</trkpt>
<trkpt lat="40.072842" lon="-105.230575">
  <ele>1586.09</ele>
  <time>2026-08-27T18:27:28Z</time>
  <course>268.4</course>
  <speed>0.0</speed>
  <fix>3d</fix>
</trkpt>
<trkpt lat="40.0728419" lon="-105.2305749">
  <ele>1586.18</ele>
  <time>2026-08-27T18:27:28Z</time>
  <course>10.35</course>
  <speed>0.022360679774997897</speed>
  <fix>3d</fix>
</trkpt>
<trkpt lat="40.072842" lon="-105.230575">
  <ele>1586.09</ele>
  <time>2026-08-27T18:27:28Z</time>
  <course>279.68</course>
  <speed>0.0</speed>
  <fix>3d</fix>
</trkpt>
<trkpt lat="40.0728419" lon="-105.2305749">
  <ele>1586.18</ele>
  <time>2026-08-27T18:27:28Z</time>
  <course>10.3</course>
  <speed>0.022360679774997897</speed>
  <fix>3d</fix>
</trkpt>
<trkpt lat="40.072842" lon="-105.230575">
  <ele>1586.09</ele>
  <time>2026-08-27T18:27:28Z</time>
  <course>277.51</course>
  <speed>0.0</speed>
  <fix>3d</fix>
</trkpt>
<trkpt lat="40.0728419" lon="-105.2305749">
  <ele>1586.18</ele>
  <time>2026-08-27T18:27:28Z</time>
  <course>10.25</course>
  <speed>0.022360679774997897</speed>
  <fix>3d</fix>
</trkpt>
<trkpt lat="40.072842" lon="-105.230575">
  <ele>1586.09</ele>
  <time>2026-08-27T18:27:28Z</time>
  <course>269.98</course>
  <speed>0.0</speed>
  <fix>3d</fix>
</trkpt>
<trkpt lat="40.0728419" lon="-105.2305749">
  <ele>1586.18</ele>
  <time>2026-08-27T18:27:28Z</time>
  <course>10.2</course>
  <speed>0.022360679774997897</speed>
  <fix>3d</fix>
</trkpt>
<trkpt lat="40.072842" lon="-105.230575">
  <ele>1586.09</ele>
  <time>2026-08-27T18:27:28Z</time>
  <course>269.19</course>
  <speed>0.0</speed>
  <fix>3d</fix>
</trkpt>
<trkpt lat="40.0728419" lon="-105.2305749">
  <ele>1586.18</ele>
  <time>2026-08-27T18:27:28Z</time>
  <course>10.15</course>
  <speed>0.022360679774997897</speed>
  <fix>3d</fix>
</trkpt>
<trkpt lat="40.072842" lon="-105.230575">
  <ele>1586.09</ele>
  <time>2026-08-27T18:27:28Z</time>
  <course>267.76</course>
  <speed>0.0</speed>
  <fix>3d</fix>
</trkpt>
<trkpt lat="40.0728419" lon="-105.2305749">
  <ele>1586.18</ele>
  <time>2026-08-27T18:27:28Z</time>
  <course>10.1</course>
  <speed>0.022360679774997897</speed>
  <fix>3d</fix>
</trkpt>
<trkpt lat="40.072842" lon="-105.230575">
  <ele>1586.09</ele>
  <time>2026-08-27T18:27:28Z</time>
  <course>269.81</course>
  <speed>0.0</speed>
  <fix>3d</fix>
</trkpt>
<trkpt lat="40.0728419" lon="-105.2305749">
  <ele>1586.18</ele>
  <time>2026-08-27T18:27:28Z</time>
  <course>10.05</course>
  <speed>0.022360679774997897</speed>
  <fix>3d</fix>
</trkpt>
<trkpt lat="40.072842" lon="-105.230575">
  <ele>1586.09</ele>
  <time>2026-08-27T18:27:28Z</time>
  <course>278.91</course>
  <speed>0.0</speed>
  <fix>3d</fix>
</trkpt>
<trkpt lat="40.0728419" lon="-105.2305749">
  <ele>1586.18</ele>
  <time>2026-08-27T18:27:28Z</time>
  <course>10.0</course>
  <speed>0.022360679774997897</speed>
  <fix>3d</fix>
</trkpt>
<trkpt lat="40.072842" lon="-105.230575">
  <ele>1586.09</ele>
  <time>2026-08-27T18:27:28Z</time>
  <course>280.77</course>
  <speed>0.0</speed>
  <fix>3d</fix>
</trkpt>
<trkpt lat="40.0728419" lon="-105.2305749">
  <ele>1586.18</ele>
  <time>2026-08-27T18:27:28Z</time>
  <course>9.95</course>
  <speed>0.022360679774997897</speed>
  <fix>3d</fix>
</trkpt>
<trkpt lat="40.072842" lon="-105.230575">
  <ele>1586.09</ele>
  <time>2026-08-27T18:27:28Z</time>
  <course>271.08</course>
  <speed>0.0</speed>
  <fix>3d</fix>
</trkpt>
<trkpt lat="40.0728419" lon="-105.2305749">
  <ele>1586.18</ele>
  <time>2026-08-27T18:27:28Z</time>
  <course>9.9</course>
  <speed>0.022360679774997897</speed>
  <fix>3d</fix>
</trkpt>
<trkpt lat="40.072842" lon="-105.230575">
  <ele>1586.09</ele>
  <time>2026-08-27T18:27:28Z</time>
  <course>267.04</course>
  <speed>0.0</speed>
  <fix>3d</fix>
</trkpt>
<trkpt lat="40.0728419" lon="-105.2305749">
  <ele>1586.18</ele>
  <time>2026-08-27T18:27:28Z</time>
  <course>9.85</course>
  <speed>0.022360679774997897</speed>
  <fix>3d</fix>
</trkpt>
<trkpt lat="40.072842" lon="-105.230575">
  <ele>1586.09</ele>
  <time>2026-08-27T18:27:28Z</time>
  <course>267.68</course>
  <speed>0.0</speed>
  <fix>3d</fix>
</trkpt>
<trkpt lat="40.0728419" lon="-105.2305749">
  <ele>1586.18</ele>
  <time>2026-08-27T18:27:28Z</time>
  <course>9.81</course>
  <speed>0.022360679774997897</speed>
  <fix>3d</fix>
</trkpt>
<trkpt lat="40.072842" lon="-105.230575">
  <ele>1586.09</ele>
  <time>2026-08-27T18:27:28Z</time>
  <course>270.2</course>
  <speed>0.0</speed>
  <fix>3d</fix>
</trkpt>
<trkpt lat="40.0728419" lon="-105.2305749">
  <ele>1586.18</ele>
  <time>2026-08-27T18:27:28Z</time>
  <course>9.76</course>
  <speed>0.022360679774997897</speed>
  <fix>3d</fix>
</trkpt>
<trkpt lat="40.072842" lon="-105.230575">
  <ele>1586.09</ele>
  <time>2026-08-27T18:27:28Z</time>
  <course>269.54</course>
  <speed>0.0</speed>
  <fix>3d</fix>
</trkpt>
<trkpt lat="40.0728419" lon="-105.2305749">
  <ele>1586.18</ele>
  <time>2026-08-27T18:27:29Z</time>
  <course>9.71</course>
  <speed>0.022360679774997897</speed>
  <fix>3d</fix>
</trkpt>
<trkpt lat="40.072842" lon="-105.230575">
  <ele>1586.09</ele>
  <time>2026-08-27T18:27:29Z</time>
  <course>269.39</course>
  <speed>0.0</speed>
  <fix>3d</fix>
</trkpt>
<trkpt lat="40.0728419" lon="-105.2305749">
  <ele>1586.18</ele>
  <time>2026-08-27T18:27:29Z</time>
  <course>9.67</course>
  <speed>0.022360679774997897</speed>
  <fix>3d</fix>
</trkpt>
<trkpt lat="40.072842" lon="-105.230575">
  <ele>1586.09</ele>
  <time>2026-08-27T18:27:29Z</time>
  <course>277.15</course>
  <speed>0.0</speed>
  <fix>3d</fix>
</trkpt>
<trkpt lat="40.0728419" lon="-105.2305749">
  <ele>1586.18</ele>
  <time>2026-08-27T18:27:29Z</time>
  <course>9.62</course>
  <speed>0.022360679774997897</speed>
  <fix>3d</fix>
</trkpt>
<trkpt lat="40.072842" lon="-105.230575">
  <ele>1586.09</ele>
  <time>2026-08-27T18:27:29Z</time>
  <course>272.51</course>
  <speed>0.0</speed>
  <fix>3d</fix>
</trkpt>
<trkpt lat="40.0728419" lon="-105.2305749">
  <ele>1586.18</ele>
  <time>2026-08-27T18:27:29Z</time>
  <course>9.58</course>
  <speed>0.022360679774997897</speed>
  <fix>3d</fix>
</trkpt>
<trkpt lat="40.072842" lon="-105.230575">
  <ele>1586.09</ele>
  <time>2026-08-27T18:27:29Z</time>
  <course>265.62</course>
  <speed>0.0</speed>
  <fix>3d</fix>
</trkpt>
<trkpt lat="40.0728419" lon="-105.2305749">
  <ele>1586.18</ele>
  <time>2026-08-27T18:27:29Z</time>
  <course>9.54</course>
  <speed>0.022360679774997897</speed>
  <fix>3d</fix>
</trkpt>
<trkpt lat="40.072842" lon="-105.230575">
  <ele>1586.09</ele>
  <time>2026-08-27T18:27:29Z</time>
  <course>268.18</course>
  <speed>0.0</speed>
  <fix>3d</fix>
</trkpt>
<trkpt lat="40.0728419" lon="-105.2305749">
  <ele>1586.18</ele>
  <time>2026-08-27T18:27:29Z</time>
  <course>9.49</course>
  <speed>0.022360679774997897</speed>
  <fix>3d</fix>
</trkpt>
<trkpt lat="40.072842" lon="-105.230575">
  <ele>1586.09</ele>
  <time>2026-08-27T18:27:29Z</time>
  <course>270.07</course>
  <speed>0.0</speed>
  <fix>3d</fix>
</trkpt>
<trkpt lat="40.0728419" lon="-105.2305749">
  <ele>1586.18</ele>
  <time>2026-08-27T18:27:29Z</time>
  <course>9.45</course>
  <speed>0.022360679774997897</speed>
  <fix>3d</fix>
</trkpt>
<trkpt lat="40.072842" lon="-105.230575">
  <ele>1586.09</ele>
  <time>2026-08-27T18:27:29Z</time>
  <course>269.07</course>
  <speed>0.0</speed>
  <fix>3d</fix>
</trkpt>
<trkpt lat="40.0728419" lon="-105.2305749">
  <ele>1586.18</ele>
  <time>2026-08-27T18:27:29Z</time>
  <course>9.41</course>
  <speed>0.022360679774997897</speed>
  <fix>3d</fix>
</trkpt>
<trkpt lat="40.072842" lon="-105.230575">
  <ele>1586.09</ele>
  <time>2026-08-27T18:27:29Z</time>
  <course>268.76</course>
  <speed>0.0</speed>
  <fix>3d</fix>
</trkpt>
<trkpt lat="40.0728419" lon="-105.2305749">
  <ele>1586.17</ele>
  <time>2026-08-27T18:27:29Z</time>
  <course>9.37</course>
  <speed>0.022360679774997897</speed>
  <fix>3d</fix>
</trkpt>
<trkpt lat="40.072842" lon="-105.230575">
  <ele>1586.09</ele>
  <time>2026-08-27T18:27:29Z</time>
  <course>268.79</course>
  <speed>0.0</speed>
  <fix>3d</fix>
</trkpt>
<trkpt lat="40.0728419" lon="-105.2305749">
  <ele>1586.17</ele>
  <time>2026-08-27T18:27:29Z</time>
  <course>9.34</course>
  <speed>0.022360679774997897</speed>
  <fix>3d</fix>
</trkpt>
<trkpt lat="40.072842" lon="-105.230575">
  <ele>1586.09</ele>
  <time>2026-08-27T18:27:29Z</time>
  <course>268.69</course>
  <speed>0.0</speed>
  <fix>3d</fix>
</trkpt>
<trkpt lat="40.0728419" lon="-105.2305749">
  <ele>1586.17</ele>
  <time>2026-08-27T18:27:29Z</time>
  <course>9.3</course>
  <speed>0.022360679774997897</speed>
  <fix>3d</fix>
</trkpt>
<trkpt lat="40.072842" lon="-105.230575">
  <ele>1586.09</ele>
  <time>2026-08-27T18:27:29Z</time>
  <course>267.33</course>
  <speed>0.0</speed>
  <fix>3d</fix>
</trkpt>
<trkpt lat="40.0728419" lon="-105.2305749">
  <ele>1586.17</ele>
  <time>2026-08-27T18:27:29Z</time>
  <course>9.26</course>
  <speed>0.022360679774997897</speed>
  <fix>3d</fix>
</trkpt>
<trkpt lat="40.072842" lon="-105.230575">
  <ele>1586.09</ele>
  <time>2026-08-27T18:27:29Z</time>
  <course>267.52</course>
  <speed>0.0</speed>
  <fix>3d</fix>
</trkpt>
<trkpt lat="40.0728419" lon="-105.2305749">
  <ele>1586.17</ele>
  <time>2026-08-27T18:27:29Z</time>
  <course>9.23</course>
  <speed>0.022360679774997897</speed>
  <fix>3d</fix>
</trkpt>
<trkpt lat="40.072842" lon="-105.230575">
  <ele>1586.09</ele>
  <time>2026-08-27T18:27:29Z</time>
  <course>269.01</course>
  <speed>0.0</speed>
  <fix>3d</fix>
</trkpt>
<trkpt lat="40.0728419" lon="-105.2305749">
  <ele>1586.18</ele>
  <time>2026-08-27T18:27:29Z</time>
  <course>9.19</course>
  <speed>0.022360679774997897</speed>
  <fix>3d</fix>
</trkpt>
<trkpt lat="40.072842" lon="-105.230575">
  <ele>1586.09</ele>
  <time>2026-08-27T18:27:29Z</time>
  <course>268.78</course>
  <speed>0.0</speed>
  <fix>3d</fix>
</trkpt>
<trkpt lat="40.0728419" lon="-105.2305749">
  <ele>1586.18</ele>
  <time>2026-08-27T18:27:29Z</time>
  <course>9.16</course>
  <speed>0.022360679774997897</speed>
  <fix>3d</fix>
</trkpt>
<trkpt lat="40.072842" lon="-105.230575">
  <ele>1586.09</ele>
  <time>2026-08-27T18:27:29Z</time>
  <course>268.68</course>
  <speed>0.0</speed>
  <fix>3d</fix>
</trkpt>
<trkpt lat="40.0728419" lon="-105.2305749">
  <ele>1586.18</ele>
  <time>2026-08-27T18:27:29Z</time>
  <course>9.13</course>
  <speed>0.022360679774997897</speed>
  <fix>3d</fix>
</trkpt>
<trkpt lat="40.072842" lon="-105.230575">
  <ele>1586.09</ele>
  <time>2026-08-27T18:27:29Z</time>
  <course>268.59</course>
  <speed>0.0</speed>
  <fix>3d</fix>
</trkpt>
<trkpt lat="40.0728419" lon="-105.2305749">
  <ele>1586.18</ele>
  <time>2026-08-27T18:27:29Z</time>
  <course>9.1</course>
  <speed>0.022360679774997897</speed>
  <fix>3d</fix>
</trkpt>
<trkpt lat="40.072842" lon="-105.230575">
  <ele>1586.09</ele>
  <time>2026-08-27T18:27:29Z</time>
  <course>268.51</course>
  <speed>0.0</speed>
  <fix>3d</fix>
</trkpt>
<trkpt lat="40.0728419" lon="-105.2305749">
  <ele>1586.18</ele>
  <time>2026-08-27T18:27:29Z</time>
  <course>9.06</course>
  <speed>0.022360679774997897</speed>
  <fix>3d</fix>
</trkpt>
<trkpt lat="40.072842" lon="-105.230575">
  <ele>1586.09</ele>
  <time>2026-08-27T18:27:29Z</time>
  <course>268.48</course>
  <speed>0.0</speed>
  <fix>3d</fix>
</trkpt>
<trkpt lat="40.0728419" lon="-105.2305749">
  <ele>1586.18</ele>
  <time>2026-08-27T18:27:29Z</time>
  <course>9.04</course>
  <speed>0.022360679774997897</speed>
  <fix>3d</fix>
</trkpt>
<trkpt lat="40.072842" lon="-105.230575">
  <ele>1586.09</ele>
  <time>2026-08-27T18:27:29Z</time>
  <course>274.86</course>
  <speed>0.0</speed>
  <fix>3d</fix>
</trkpt>
<trkpt lat="40.0728419" lon="-105.2305749">
  <ele>1586.18</ele>
  <time>2026-08-27T18:27:29Z</time>
  <course>9.01</course>
  <speed>0.022360679774997897</speed>
  <fix>3d</fix>
</trkpt>
<trkpt lat="40.072842" lon="-105.230575">
  <ele>1586.09</ele>
  <time>2026-08-27T18:27:29Z</time>
  <course>275.74</course>
  <speed>0.0</speed>
  <fix>3d</fix>
</trkpt>
<trkpt lat="40.0728419" lon="-105.2305749">
  <ele>1586.19</ele>
  <time>2026-08-27T18:27:29Z</time>
  <course>8.98</course>
  <speed>0.022360679774997897</speed>
  <fix>3d</fix>
</trkpt>
<trkpt lat="40.072842" lon="-105.230575">
  <ele>1586.09</ele>
  <time>2026-08-27T18:27:29Z</time>
  <course>268.32</course>
  <speed>0.0</speed>
  <fix>3d</fix>
</trkpt>
<trkpt lat="40.0728419" lon="-105.2305749">
  <ele>1586.19</ele>
  <time>2026-08-27T18:27:29Z</time>
  <course>8.95</course>
  <speed>0.022360679774997897</speed>
  <fix>3d</fix>
</trkpt>
<trkpt lat="40.072842" lon="-105.230575">
  <ele>1586.09</ele>
  <time>2026-08-27T18:27:29Z</time>
  <course>267.55</course>
  <speed>0.0</speed>
  <fix>3d</fix>
</trkpt>
<trkpt lat="40.0728419" lon="-105.2305749">
  <ele>1586.19</ele>
  <time>2026-08-27T18:27:29Z</time>
  <course>8.92</course>
  <speed>0.022360679774997897</speed>
  <fix>3d</fix>
</trkpt>
<trkpt lat="40.072842" lon="-105.230575">
  <ele>1586.09</ele>
  <time>2026-08-27T18:27:29Z</time>
  <course>268.98</course>
  <speed>0.0</speed>
  <fix>3d</fix>
</trkpt>
<trkpt lat="40.0728419" lon="-105.2305749">
  <ele>1586.19</ele>
  <time>2026-08-27T18:27:29Z</time>
  <course>8.9</course>
  <speed>0.022360679774997897</speed>
  <fix>3d</fix>
</trkpt>
<trkpt lat="40.072842" lon="-105.230575">
  <ele>1586.09</ele>
  <time>2026-08-27T18:27:29Z</time>
  <course>268.69</course>
  <speed>0.0</speed>
  <fix>3d</fix>
</trkpt>
<trkpt lat="40.0728419" lon="-105.2305749">
  <ele>1586.19</ele>
  <time>2026-08-27T18:27:29Z</time>
  <course>8.87</course>
  <speed>0.022360679774997897</speed>
  <fix>3d</fix>
</trkpt>
<trkpt lat="40.072842" lon="-105.230575">
  <ele>1586.09</ele>
  <time>2026-08-27T18:27:29Z</time>
  <course>268.42</course>
  <speed>0.0</speed>
  <fix>3d</fix>
</trkpt>
<trkpt lat="40.0728419" lon="-105.2305749">
  <ele>1586.19</ele>
  <time>2026-08-27T18:27:29Z</time>
  <course>8.85</course>
  <speed>0.022360679774997897</speed>
  <fix>3d</fix>
</trkpt>
<trkpt lat="40.072842" lon="-105.230575">
  <ele>1586.09</ele>
  <time>2026-08-27T18:27:29Z</time>
  <course>269.13</course>
  <speed>0.0</speed>
  <fix>3d</fix>
</trkpt>
<trkpt lat="40.0728419" lon="-105.2305749">
  <ele>1586.18</ele>
  <time>2026-08-27T18:27:29Z</time>
  <course>8.83</course>
  <speed>0.022360679774997897</speed>
  <fix>3d</fix>
</trkpt>
<trkpt lat="40.072842" lon="-105.230575">
  <ele>1586.09</ele>
  <time>2026-08-27T18:27:29Z</time>
  <course>267.76</course>
  <speed>0.0</speed>
  <fix>3d</fix>
</trkpt>
<trkpt lat="40.0728419" lon="-105.2305749">
  <ele>1586.18</ele>
  <time>2026-08-27T18:27:29Z</time>
  <course>8.8</course>
  <speed>0.01414213562373095</speed>
  <fix>3d</fix>
</trkpt>
<trkpt lat="40.072842" lon="-105.230575">
  <ele>1586.09</ele>
  <time>2026-08-27T18:27:29Z</time>
  <course>266.67</course>
  <speed>0.0</speed>
  <fix>3d</fix>
</trkpt>
<trkpt lat="40.0728419" lon="-105.2305749">
  <ele>1586.18</ele>
  <time>2026-08-27T18:27:29Z</time>
  <course>8.78</course>
  <speed>0.01414213562373095</speed>
  <fix>3d</fix>
</trkpt>
<trkpt lat="40.072842" lon="-105.230575">
  <ele>1586.09</ele>
  <time>2026-08-27T18:27:29Z</time>
  <course>270.84</course>
  <speed>0.0</speed>
  <fix>3d</fix>
</trkpt>
<trkpt lat="40.0728419" lon="-105.2305749">
  <ele>1586.18</ele>
  <time>2026-08-27T18:27:29Z</time>
  <course>8.76</course>
  <speed>0.01414213562373095</speed>
  <fix>3d</fix>
</trkpt>
<trkpt lat="40.072842" lon="-105.230575">
  <ele>1586.09</ele>
  <time>2026-08-27T18:27:29Z</time>
  <course>275.51</course>
  <speed>0.0</speed>
  <fix>3d</fix>
</trkpt>
<trkpt lat="40.0728419" lon="-105.2305749">
  <ele>1586.18</ele>
  <time>2026-08-27T18:27:29Z</time>
  <course>8.74</course>
  <speed>0.01414213562373095</speed>
  <fix>3d</fix>
</trkpt>
<trkpt lat="40.072842" lon="-105.230575">
  <ele>1586.09</ele>
  <time>2026-08-27T18:27:29Z</time>
  <course>271.14</course>
  <speed>0.0</speed>
  <fix>3d</fix>
</trkpt>
<trkpt lat="40.0728419" lon="-105.2305749">
  <ele>1586.18</ele>
  <time>2026-08-27T18:27:29Z</time>
  <course>8.73</course>
  <speed>0.01414213562373095</speed>
  <fix>3d</fix>
</trkpt>
<trkpt lat="40.072842" lon="-105.230575">
  <ele>1586.09</ele>
  <time>2026-08-27T18:27:29Z</time>
  <course>267.09</course>
  <speed>0.0</speed>
  <fix>3d</fix>
</trkpt>
<trkpt lat="40.0728419" lon="-105.2305749">
  <ele>1586.18</ele>
  <time>2026-08-27T18:27:29Z</time>
  <course>8.71</course>
  <speed>0.01414213562373095</speed>
  <fix>3d</fix>
</trkpt>
<trkpt lat="40.072842" lon="-105.230575">
  <ele>1586.09</ele>
  <time>2026-08-27T18:27:29Z</time>
  <course>268.7</course>
  <speed>0.0</speed>
  <fix>3d</fix>
</trkpt>
<trkpt lat="40.0728419" lon="-105.2305749">
  <ele>1586.18</ele>
  <time>2026-08-27T18:27:29Z</time>
  <course>8.69</course>
  <speed>0.01414213562373095</speed>
  <fix>3d</fix>
</trkpt>
<trkpt lat="40.072842" lon="-105.230575">
  <ele>1586.09</ele>
  <time>2026-08-27T18:27:29Z</time>
  <course>269.22</course>
  <speed>0.0</speed>
  <fix>3d</fix>
</trkpt>
<trkpt lat="40.0728419" lon="-105.2305749">
  <ele>1586.19</ele>
  <time>2026-08-27T18:27:29Z</time>
  <course>8.68</course>
  <speed>0.01414213562373095</speed>
  <fix>3d</fix>
</trkpt>
<trkpt lat="40.072842" lon="-105.230575">
  <ele>1586.09</ele>
  <time>2026-08-27T18:27:29Z</time>
  <course>268.56</course>
  <speed>0.0</speed>
  <fix>3d</fix>
</trkpt>
<trkpt lat="40.0728419" lon="-105.2305749">
  <ele>1586.19</ele>
  <time>2026-08-27T18:27:29Z</time>
  <course>8.66</course>
  <speed>0.01414213562373095</speed>
  <fix>3d</fix>
</trkpt>
<trkpt lat="40.072842" lon="-105.230575">
  <ele>1586.09</ele>
  <time>2026-08-27T18:27:29Z</time>
  <course>269.09</course>
  <speed>0.0</speed>
  <fix>3d</fix>
</trkpt>
<trkpt lat="40.0728419" lon="-105.2305749">
  <ele>1586.19</ele>
  <time>2026-08-27T18:27:29Z</time>
  <course>8.65</course>
  <speed>0.01414213562373095</speed>
  <fix>3d</fix>
</trkpt>
<trkpt lat="40.072842" lon="-105.230575">
  <ele>1586.09</ele>
  <time>2026-08-27T18:27:29Z</time>
  <course>268.08</course>
  <speed>0.0</speed>
  <fix>3d</fix>
</trkpt>
<trkpt lat="40.0728419" lon="-105.2305749">
  <ele>1586.19</ele>
  <time>2026-08-27T18:27:29Z</time>
  <course>8.63</course>
  <speed>0.01414213562373095</speed>
  <fix>3d</fix>
</trkpt>
<trkpt lat="40.072842" lon="-105.230575">
  <ele>1586.09</ele>
  <time>2026-08-27T18:27:29Z</time>
  <course>267.53</course>
  <speed>0.0</speed>
  <fix>3d</fix>
</trkpt>
<trkpt lat="40.0728419" lon="-105.2305749">
  <ele>1586.19</ele>
  <time>2026-08-27T18:27:29Z</time>
  <course>8.62</course>
  <speed>0.01414213562373095</speed>
  <fix>3d</fix>
</trkpt>
<trkpt lat="40.072842" lon="-105.230575">
  <ele>1586.09</ele>
  <time>2026-08-27T18:27:29Z</time>
  <course>269.01</course>
  <speed>0.0</speed>
  <fix>3d</fix>
</trkpt>
<trkpt lat="40.0728419" lon="-105.2305749">
  <ele>1586.19</ele>
  <time>2026-08-27T18:27:29Z</time>
  <course>8.61</course>
  <speed>0.01414213562373095</speed>
  <fix>3d</fix>
</trkpt>
<trkpt lat="40.072842" lon="-105.230575">
  <ele>1586.09</ele>
  <time>2026-08-27T18:27:29Z</time>
  <course>268.97</course>
  <speed>0.0</speed>
  <fix>3d</fix>
</trkpt>
<trkpt lat="40.0728419" lon="-105.2305749">
  <ele>1586.19</ele>
  <time>2026-08-27T18:27:29Z</time>
  <course>8.6</course>
  <speed>0.01414213562373095</speed>
  <fix>3d</fix>
</trkpt>
<trkpt lat="40.072842" lon="-105.230575">
  <ele>1586.09</ele>
  <time>2026-08-27T18:27:29Z</time>
  <course>273.98</course>
  <speed>0.0</speed>
  <fix>3d</fix>
</trkpt>
<trkpt lat="40.0728419" lon="-105.2305749">
  <ele>1586.19</ele>
  <time>2026-08-27T18:27:29Z</time>
  <course>8.58</course>
  <speed>0.01414213562373095</speed>
  <fix>3d</fix>
</trkpt>
<trkpt lat="40.072842" lon="-105.230575">
  <ele>1586.09</ele>
  <time>2026-08-27T18:27:29Z</time>
  <course>273.49</course>
  <speed>0.0</speed>
  <fix>3d</fix>
</trkpt>
<trkpt lat="40.0728419" lon="-105.2305749">
  <ele>1586.19</ele>
  <time>2026-08-27T18:27:29Z</time>
  <course>8.58</course>
  <speed>0.01414213562373095</speed>
  <fix>3d</fix>
</trkpt>
<trkpt lat="40.072842" lon="-105.230575">
  <ele>1586.09</ele>
  <time>2026-08-27T18:27:29Z</time>
  <course>267.5</course>
  <speed>0.0</speed>
  <fix>3d</fix>
</trkpt>
<trkpt lat="40.0728419" lon="-105.2305749">
  <ele>1586.19</ele>
  <time>2026-08-27T18:27:29Z</time>
  <course>8.57</course>
  <speed>0.01414213562373095</speed>
  <fix>3d</fix>
</trkpt>
<trkpt lat="40.072842" lon="-105.230575">
  <ele>1586.09</ele>
  <time>2026-08-27T18:27:29Z</time>
  <course>268.34</course>
  <speed>0.0</speed>
  <fix>3d</fix>
</trkpt>
<trkpt lat="40.0728419" lon="-105.2305749">
  <ele>1586.19</ele>
  <time>2026-08-27T18:27:29Z</time>
  <course>8.56</course>
  <speed>0.01414213562373095</speed>
  <fix>3d</fix>
</trkpt>
<trkpt lat="40.072842" lon="-105.230575">
  <ele>1586.09</ele>
  <time>2026-08-27T18:27:29Z</time>
  <course>269.31</course>
  <speed>0.0</speed>
  <fix>3d</fix>
</trkpt>
<trkpt lat="40.0728419" lon="-105.2305749">
  <ele>1586.19</ele>
  <time>2026-08-27T18:27:29Z</time>
  <course>8.55</course>
  <speed>0.01414213562373095</speed>
  <fix>3d</fix>
</trkpt>
<trkpt lat="40.072842" lon="-105.230575">
  <ele>1586.09</ele>
  <time>2026-08-27T18:27:29Z</time>
  <course>270.98</course>
  <speed>0.0</speed>
  <fix>3d</fix>
</trkpt>
<trkpt lat="40.0728419" lon="-105.2305749">
  <ele>1586.18</ele>
  <time>2026-08-27T18:27:29Z</time>
  <course>8.55</course>
  <speed>0.01414213562373095</speed>
  <fix>3d</fix>
</trkpt>
<trkpt lat="40.072842" lon="-105.230575">
  <ele>1586.09</ele>
  <time>2026-08-27T18:27:29Z</time>
  <course>268.79</course>
  <speed>0.0</speed>
  <fix>3d</fix>
</trkpt>
<trkpt lat="40.0728419" lon="-105.2305749">
  <ele>1586.18</ele>
  <time>2026-08-27T18:27:29Z</time>
  <course>8.54</course>
  <speed>0.01414213562373095</speed>
  <fix>3d</fix>
</trkpt>
<trkpt lat="40.072842" lon="-105.230575">
  <ele>1586.09</ele>
  <time>2026-08-27T18:27:29Z</time>
  <course>267.23</course>
  <speed>0.0</speed>
  <fix>3d</fix>
</trkpt>
<trkpt lat="40.0728419" lon="-105.2305749">
  <ele>1586.18</ele>
  <time>2026-08-27T18:27:29Z</time>
  <course>8.53</course>
  <speed>0.01414213562373095</speed>
  <fix>3d</fix>
</trkpt>
<trkpt lat="40.072842" lon="-105.230575">
  <ele>1586.09</ele>
  <time>2026-08-27T18:27:29Z</time>
  <course>269.13</course>
  <speed>0.0</speed>
  <fix>3d</fix>
</trkpt>
<trkpt lat="40.0728419" lon="-105.2305749">
  <ele>1586.18</ele>
  <time>2026-08-27T18:27:29Z</time>
  <course>8.53</course>
  <speed>0.01414213562373095</speed>
  <fix>3d</fix>
</trkpt>
<trkpt lat="40.072842" lon="-105.230575">
  <ele>1586.09</ele>
  <time>2026-08-27T18:27:29Z</time>
  <course>269.12</course>
  <speed>0.0</speed>
  <fix>3d</fix>
</trkpt>
<trkpt lat="40.0728419" lon="-105.2305749">
  <ele>1586.18</ele>
  <time>2026-08-27T18:27:29Z</time>
  <course>8.53</course>
  <speed>0.01414213562373095</speed>
  <fix>3d</fix>
</trkpt>
<trkpt lat="40.072842" lon="-105.230575">
  <ele>1586.09</ele>
  <time>2026-08-27T18:27:29Z</time>
  <course>269.06</course>
  <speed>0.0</speed>
  <fix>3d</fix>
</trkpt>
<trkpt lat="40.0728419" lon="-105.2305749">
  <ele>1586.18</ele>
  <time>2026-08-27T18:27:29Z</time>
  <course>8.52</course>
  <speed>0.01414213562373095</speed>
  <fix>3d</fix>
</trkpt>
<trkpt lat="40.072842" lon="-105.230575">
  <ele>1586.09</ele>
  <time>2026-08-27T18:27:29Z</time>
  <course>268.95</course>
  <speed>0.0</speed>
  <fix>3d</fix>
</trkpt>
<trkpt lat="40.0728419" lon="-105.2305749">
  <ele>1586.18</ele>
  <time>2026-08-27T18:27:29Z</time>
  <course>8.52</course>
  <speed>0.01414213562373095</speed>
  <fix>3d</fix>
</trkpt>
<trkpt lat="40.072842" lon="-105.230575">
  <ele>1586.09</ele>
  <time>2026-08-27T18:27:29Z</time>
  <course>275.27</course>
  <speed>0.0</speed>
  <fix>3d</fix>
</trkpt>
<trkpt lat="40.0728419" lon="-105.2305749">
  <ele>1586.18</ele>
  <time>2026-08-27T18:27:29Z</time>
  <course>8.52</course>
  <speed>0.01414213562373095</speed>
  <fix>3d</fix>
</trkpt>
<trkpt lat="40.072842" lon="-105.230575">
  <ele>1586.09</ele>
  <time>2026-08-27T18:27:29Z</time>
  <course>275.46</course>
  <speed>0.0</speed>
  <fix>3d</fix>
</trkpt>
<trkpt lat="40.0728419" lon="-105.2305749">
  <ele>1586.17</ele>
  <time>2026-08-27T18:27:29Z</time>
  <course>8.52</course>
  <speed>0.01414213562373095</speed>
  <fix>3d</fix>
</trkpt>
<trkpt lat="40.072842" lon="-105.230575">
  <ele>1586.09</ele>
  <time>2026-08-27T18:27:29Z</time>
  <course>269.1</course>
  <speed>0.0</speed>
  <fix>3d</fix>
</trkpt>
<trkpt lat="40.0728419" lon="-105.2305749">
  <ele>1586.17</ele>
  <time>2026-08-27T18:27:29Z</time>
  <course>8.52</course>
  <speed>0.01414213562373095</speed>
  <fix>3d</fix>
</trkpt>
<trkpt lat="40.072842" lon="-105.230575">
  <ele>1586.09</ele>
  <time>2026-08-27T18:27:29Z</time>
  <course>268.4</course>
  <speed>0.0</speed>
  <fix>3d</fix>
</trkpt>
<trkpt lat="40.0728419" lon="-105.2305749">
  <ele>1586.2</ele>
  <time>2026-08-27T18:27:29Z</time>
  <course>8.5</course>
  <speed>0.01414213562373095</speed>
  <fix>3d</fix>
</trkpt>
<trkpt lat="40.072842" lon="-105.230575">
  <ele>1586.09</ele>
  <time>2026-08-27T18:27:29Z</time>
  <course>270.75</course>
  <speed>0.0</speed>
  <fix>3d</fix>
</trkpt>
<trkpt lat="40.0728419" lon="-105.2305749">
  <ele>1586.29</ele>
  <time>2026-08-27T18:27:29Z</time>
  <course>8.44</course>
  <speed>0.01414213562373095</speed>
  <fix>3d</fix>
</trkpt>
<trkpt lat="40.072842" lon="-105.230575">
  <ele>1586.14</ele>
  <time>2026-08-27T18:27:29Z</time>
  <course>271.16</course>
  <speed>0.0</speed>
  <fix>3d</fix>
</trkpt>
<trkpt lat="40.0728419" lon="-105.2305749">
  <ele>1586.43</ele>
  <time>2026-08-27T18:27:29Z</time>
  <course>4.0</course>
  <speed>0.1004987562112089</speed>
  <fix>3d</fix>
</trkpt>
<trkpt lat="40.072842" lon="-105.230575">
  <ele>1586.22</ele>
  <time>2026-08-27T18:27:29Z</time>
  <course>275.74</course>
  <speed>0.01</speed>
  <fix>3d</fix>
</trkpt>
<trkpt lat="40.0728419" lon="-105.2305754">
  <ele>1586.78</ele>
  <time>2026-08-27T18:27:29Z</time>
  <course>1.73</course>
  <speed>0.2765863337187866</speed>
  <fix>3d</fix>
</trkpt>
<trkpt lat="40.072842" lon="-105.2305752">
  <ele>1586.39</ele>
  <time>2026-08-27T18:27:29Z</time>
  <course>276.09</course>
  <speed>0.12</speed>
  <fix>3d</fix>
</trkpt>
<trkpt lat="40.072842" lon="-105.2305755">
  <ele>1586.86</ele>
  <time>2026-08-27T18:27:29Z</time>
  <course>1.44</course>
  <speed>0.29832867780352595</speed>
  <fix>3d</fix>
</trkpt>
<trkpt lat="40.0728421" lon="-105.2305762">
  <ele>1587.21</ele>
  <time>2026-08-27T18:27:29Z</time>
  <course>0.53</course>
  <speed>0.4026164427839479</speed>
  <fix>3d</fix>
</trkpt>
<trkpt lat="40.072842" lon="-105.2305757">
  <ele>1586.72</ele>
  <time>2026-08-27T18:27:29Z</time>
  <course>276.2</course>
  <speed>0.29</speed>
  <fix>3d</fix>
</trkpt>
<trkpt lat="40.0728421" lon="-105.2305764">
  <ele>1587.28</ele>
  <time>2026-08-27T18:27:29Z</time>
  <course>0.4</course>
  <speed>0.41231056256176607</speed>
  <fix>3d</fix>
</trkpt>
<trkpt lat="40.0728423" lon="-105.2305773">
  <ele>1587.63</ele>
  <time>2026-08-27T18:27:29Z</time>
  <course>359.97</course>
  <speed>0.4827007354458868</speed>
  <fix>3d</fix>
</trkpt>
<trkpt lat="40.072842" lon="-105.2305765">
  <ele>1587.14</ele>
  <time>2026-08-27T18:27:29Z</time>
  <course>276.0</course>
  <speed>0.42</speed>
  <fix>3d</fix>
</trkpt>
<trkpt lat="40.0728423" lon="-105.2305775">
  <ele>1587.71</ele>
  <time>2026-08-27T18:27:29Z</time>
  <course>359.93</course>
  <speed>0.5021951811795887</speed>
  <fix>3d</fix>
</trkpt>
<trkpt lat="40.0728424" lon="-105.2305785">
  <ele>1588.09</ele>
  <time>2026-08-27T18:27:29Z</time>
  <course>359.79</course>
  <speed>0.5510898293381942</speed>
  <fix>3d</fix>
</trkpt>
<trkpt lat="40.0728421" lon="-105.2305777">
  <ele>1587.56</ele>
  <time>2026-08-27T18:27:29Z</time>
  <course>275.46</course>
  <speed>0.51</speed>
  <fix>3d</fix>
</trkpt>
<trkpt lat="40.0728424" lon="-105.2305786">
  <ele>1588.1</ele>
  <time>2026-08-27T18:27:29Z</time>
  <course>359.79</course>
  <speed>0.5510898293381942</speed>
  <fix>3d</fix>
</trkpt>
<trkpt lat="40.0728425" lon="-105.2305799">
  <ele>1588.56</ele>
  <time>2026-08-27T18:27:29Z</time>
  <course>359.82</course>
  <speed>0.6001666435249463</speed>
  <fix>3d</fix>
</trkpt>
<trkpt lat="40.0728422" lon="-105.2305789">
  <ele>1588.0</ele>
  <time>2026-08-27T18:27:29Z</time>
  <course>274.89</course>
  <speed>0.57</speed>
  <fix>3d</fix>
</trkpt>
<trkpt lat="40.0728425" lon="-105.2305802">
  <ele>1588.65</ele>
  <time>2026-08-27T18:27:29Z</time>
  <course>359.83</course>
  <speed>0.6001666435249463</speed>
  <fix>3d</fix>
</trkpt>
<trkpt lat="40.0728426" lon="-105.2305814">
  <ele>1589.04</ele>
  <time>2026-08-27T18:27:29Z</time>
  <course>359.98</course>
  <speed>0.6296824596572467</speed>
  <fix>3d</fix>
</trkpt>
<trkpt lat="40.0728423" lon="-105.2305803">
  <ele>1588.46</ele>
  <time>2026-08-27T18:27:29Z</time>
  <course>274.5</course>
  <speed>0.62</speed>
  <fix>3d</fix>
</trkpt>
<trkpt lat="40.0728426" lon="-105.2305816">
  <ele>1589.11</ele>
  <time>2026-08-27T18:27:29Z</time>
  <course>358.53</course>
  <speed>0.6280127387243033</speed>
  <fix>3d</fix>
</trkpt>
<trkpt lat="40.0728427" lon="-105.230583">
  <ele>1589.52</ele>
  <time>2026-08-27T18:27:29Z</time>
  <course>358.65</course>
  <speed>0.6576473218982953</speed>
  <fix>3d</fix>
</trkpt>
<trkpt lat="40.0728424" lon="-105.2305818">
  <ele>1588.92</ele>
  <time>2026-08-27T18:27:29Z</time>
  <course>274.31</course>
  <speed>0.65</speed>
  <fix>3d</fix>
</trkpt>
<trkpt lat="40.0728427" lon="-105.2305832">
  <ele>1589.6</ele>
  <time>2026-08-27T18:27:29Z</time>
  <course>358.66</course>
  <speed>0.6576473218982953</speed>
  <fix>3d</fix>
</trkpt>
<trkpt lat="40.0728428" lon="-105.2305846">
  <ele>1590.0</ele>
  <time>2026-08-27T18:27:29Z</time>
  <course>358.86</course>
  <speed>0.6760177512462228</speed>
  <fix>3d</fix>
</trkpt>
<trkpt lat="40.0728425" lon="-105.2305834">
  <ele>1589.39</ele>
  <time>2026-08-27T18:27:29Z</time>
  <course>274.23</course>
  <speed>0.68</speed>
  <fix>3d</fix>
</trkpt>
<trkpt lat="40.0728428" lon="-105.2305848">
  <ele>1590.07</ele>
  <time>2026-08-27T18:27:29Z</time>
  <course>358.91</course>
  <speed>0.6760177512462228</speed>
  <fix>3d</fix>
</trkpt>
<trkpt lat="40.0728429" lon="-105.2305862">
  <ele>1590.48</ele>
  <time>2026-08-27T18:27:29Z</time>
  <course>359.18</course>
  <speed>0.6846897107449476</speed>
  <fix>3d</fix>
</trkpt>
<trkpt lat="40.0728426" lon="-105.230585">
  <ele>1589.87</ele>
  <time>2026-08-27T18:27:29Z</time>
  <course>274.2</course>
  <speed>0.7</speed>
  <fix>3d</fix>
</trkpt>
<trkpt lat="40.0728429" lon="-105.2305862">
  <ele>1590.49</ele>
  <time>2026-08-27T18:27:29Z</time>
  <course>359.19</course>
  <speed>0.6846897107449476</speed>
  <fix>3d</fix>
</trkpt>
<trkpt lat="40.0728429" lon="-105.2305879">
  <ele>1590.96</ele>
  <time>2026-08-27T18:27:29Z</time>
  <course>359.52</course>
  <speed>0.7034912934784623</speed>
  <fix>3d</fix>
</trkpt>
<trkpt lat="40.0728426" lon="-105.2305867">
  <ele>1590.34</ele>
  <time>2026-08-27T18:27:29Z</time>
  <course>274.26</course>
  <speed>0.72</speed>
  <fix>3d</fix>
</trkpt>
<trkpt lat="40.0728429" lon="-105.2305882">
  <ele>1591.04</ele>
  <time>2026-08-27T18:27:29Z</time>
  <course>359.57</course>
  <speed>0.7025667228100119</speed>
  <fix>3d</fix>
</trkpt>
<trkpt lat="40.072843" lon="-105.2305896">
  <ele>1591.45</ele>
  <time>2026-08-27T18:27:29Z</time>
  <course>359.9</course>
  <speed>0.7125307010929425</speed>
  <fix>3d</fix>
</trkpt>
<trkpt lat="40.0728427" lon="-105.2305884">
  <ele>1590.82</ele>
  <time>2026-08-27T18:27:29Z</time>
  <course>274.39</course>
  <speed>0.73</speed>
  <fix>3d</fix>
</trkpt>
<trkpt lat="40.072843" lon="-105.2305899">
  <ele>1591.52</ele>
  <time>2026-08-27T18:27:29Z</time>
  <course>359.96</course>
  <speed>0.7117583859709699</speed>
  <fix>3d</fix>
</trkpt>
<trkpt lat="40.072843" lon="-105.2305914">
  <ele>1591.94</ele>
  <time>2026-08-27T18:27:29Z</time>
  <course>0.3</course>
  <speed>0.7217340230306452</speed>
  <fix>3d</fix>
</trkpt>
<trkpt lat="40.0728429" lon="-105.2305901">
  <ele>1591.3</ele>
  <time>2026-08-27T18:27:29Z</time>
  <course>274.59</course>
  <speed>0.74</speed>
  <fix>3d</fix>
</trkpt>
<trkpt lat="40.072843" lon="-105.2305916">
  <ele>1592.01</ele>
  <time>2026-08-27T18:27:29Z</time>
  <course>0.37</course>
  <speed>0.7217340230306452</speed>
  <fix>3d</fix>
</trkpt>
<trkpt lat="40.0728431" lon="-105.2305931">
  <ele>1592.43</ele>
  <time>2026-08-27T18:27:29Z</time>
  <course>0.73</course>
  <speed>0.7310950690573697</speed>
  <fix>3d</fix>
</trkpt>
<trkpt lat="40.072843" lon="-105.2305918">
  <ele>1591.78</ele>
  <time>2026-08-27T18:27:29Z</time>
  <course>274.85</course>
  <speed>0.75</speed>
  <fix>3d</fix>
</trkpt>
<trkpt lat="40.0728431" lon="-105.2305934">
  <ele>1592.5</ele>
  <time>2026-08-27T18:27:29Z</time>
  <course>0.79</course>
  <speed>0.7310950690573697</speed>
  <fix>3d</fix>
</trkpt>
<trkpt lat="40.0728432" lon="-105.2305949">
  <ele>1592.91</ele>
  <time>2026-08-27T18:27:29Z</time>
  <course>1.08</course>
  <speed>0.7310950690573697</speed>
  <fix>3d</fix>
</trkpt>
<trkpt lat="40.0728431" lon="-105.2305936">
  <ele>1592.26</ele>
  <time>2026-08-27T18:27:29Z</time>
  <course>275.13</course>
  <speed>0.75</speed>
  <fix>3d</fix>
</trkpt>
<trkpt lat="40.0728432" lon="-105.2305949">
  <ele>1592.92</ele>
  <time>2026-08-27T18:27:29Z</time>
  <course>1.08</course>
  <speed>0.7310950690573697</speed>
  <fix>3d</fix>
</trkpt>
<trkpt lat="40.0728433" lon="-105.2305967">
  <ele>1593.4</ele>
  <time>2026-08-27T18:27:29Z</time>
  <course>1.39</course>
  <speed>0.740607858451421</speed>
  <fix>3d</fix>
</trkpt>
<trkpt lat="40.0728432" lon="-105.2305954">
  <ele>1592.74</ele>
  <time>2026-08-27T18:27:29Z</time>
  <course>275.38</course>
  <speed>0.76</speed>
  <fix>3d</fix>
</trkpt>
<trkpt lat="40.0728433" lon="-105.230597">
  <ele>1593.48</ele>
  <time>2026-08-27T18:27:29Z</time>
  <course>1.44</course>
  <speed>0.740607858451421</speed>
  <fix>3d</fix>
</trkpt>
<trkpt lat="40.0728434" lon="-105.2305985">
  <ele>1593.88</ele>
  <time>2026-08-27T18:27:29Z</time>
  <course>1.68</course>
  <speed>0.740607858451421</speed>
  <fix>3d</fix>
</trkpt>
<trkpt lat="40.0728433" lon="-105.2305972">
  <ele>1593.23</ele>
  <time>2026-08-27T18:27:29Z</time>
  <course>275.6</course>
  <speed>0.76</speed>
  <fix>3d</fix>
</trkpt>
<trkpt lat="40.0728434" lon="-105.2305988">
  <ele>1593.96</ele>
  <time>2026-08-27T18:27:29Z</time>
  <course>1.71</course>
  <speed>0.740607858451421</speed>
  <fix>3d</fix>
</trkpt>
<trkpt lat="40.0728435" lon="-105.2306003">
  <ele>1594.37</ele>
  <time>2026-08-27T18:27:29Z</time>
  <course>1.93</course>
  <speed>0.7505997601918082</speed>
  <fix>3d</fix>
</trkpt>
<trkpt lat="40.0728435" lon="-105.230599">
  <ele>1593.71</ele>
  <time>2026-08-27T18:27:29Z</time>
  <course>275.76</course>
  <speed>0.76</speed>
  <fix>3d</fix>
</trkpt>
<trkpt lat="40.0728435" lon="-105.2306006">
  <ele>1594.45</ele>
  <time>2026-08-27T18:27:29Z</time>
  <course>1.97</course>
  <speed>0.7505997601918082</speed>
  <fix>3d</fix>
</trkpt>
<trkpt lat="40.0728436" lon="-105.2306021">
  <ele>1594.85</ele>
  <time>2026-08-27T18:27:29Z</time>
  <course>2.16</course>
  <speed>0.7505997601918082</speed>
  <fix>3d</fix>
</trkpt>
<trkpt lat="40.0728436" lon="-105.2306007">
  <ele>1594.19</ele>
  <time>2026-08-27T18:27:29Z</time>
  <course>275.88</course>
  <speed>0.76</speed>
  <fix>3d</fix>
</trkpt>
<trkpt lat="40.0728436" lon="-105.2306024">
  <ele>1594.94</ele>
  <time>2026-08-27T18:27:29Z</time>
  <course>2.21</course>
  <speed>0.7505997601918082</speed>
  <fix>3d</fix>
</trkpt>
<trkpt lat="40.0728437" lon="-105.2306039">
  <ele>1595.34</ele>
  <time>2026-08-27T18:27:29Z</time>
  <course>2.43</course>
  <speed>0.7505997601918082</speed>
  <fix>3d</fix>
</trkpt>
<trkpt lat="40.0728438" lon="-105.2306026">
  <ele>1594.67</ele>
  <time>2026-08-27T18:27:29Z</time>
  <course>275.96</course>
  <speed>0.76</speed>
  <fix>3d</fix>
</trkpt>
<trkpt lat="40.0728438" lon="-105.2306042">
  <ele>1595.41</ele>
  <time>2026-08-27T18:27:29Z</time>
  <course>2.47</course>
  <speed>0.7505997601918082</speed>
  <fix>3d</fix>
</trkpt>
<trkpt lat="40.0728439" lon="-105.2306057">
  <ele>1595.81</ele>
  <time>2026-08-27T18:27:29Z</time>
  <course>3.35</course>
  <speed>0.7605918747922567</speed>
  <fix>3d</fix>
</trkpt>
<trkpt lat="40.0728439" lon="-105.2306044">
  <ele>1595.15</ele>
  <time>2026-08-27T18:27:29Z</time>
  <course>275.99</course>
  <speed>0.75</speed>
  <fix>3d</fix>
</trkpt>
<trkpt lat="40.072844" lon="-105.2306075">
  <ele>1596.13</ele>
  <time>2026-08-27T18:27:29Z</time>
  <course>6.57</course>
  <speed>0.7410802925459562</speed>
  <fix>3d</fix>
</trkpt>
<trkpt lat="40.0728441" lon="-105.2306062">
  <ele>1595.6</ele>
  <time>2026-08-27T18:27:29Z</time>
  <course>275.92</course>
  <speed>0.76</speed>
  <fix>3d</fix>
</trkpt>
<trkpt lat="40.0728442" lon="-105.2306092">
  <ele>1596.34</ele>
  <time>2026-08-27T18:27:29Z</time>
  <course>7.45</course>
  <speed>0.711125867902441</speed>
  <fix>3d</fix>
</trkpt>
<trkpt lat="40.0728442" lon="-105.2306079">
  <ele>1595.92</ele>
  <time>2026-08-27T18:27:29Z</time>
  <course>276.18</course>
  <speed>0.74</speed>
  <fix>3d</fix>
</trkpt>
<trkpt lat="40.0728443" lon="-105.2306109">
  <ele>1596.48</ele>
  <time>2026-08-27T18:27:29Z</time>
  <course>7.45</course>
  <speed>0.6818357573492314</speed>
  <fix>3d</fix>
</trkpt>
<trkpt lat="40.0728443" lon="-105.2306096">
  <ele>1596.13</ele>
  <time>2026-08-27T18:27:29Z</time>
  <course>276.95</course>
  <speed>0.71</speed>
  <fix>3d</fix>
</trkpt>
<trkpt lat="40.0728445" lon="-105.2306124">
  <ele>1596.59</ele>
  <time>2026-08-27T18:27:29Z</time>
  <course>7.01</course>
  <speed>0.6312685640834652</speed>
  <fix>3d</fix>
</trkpt>
<trkpt lat="40.0728445" lon="-105.2306112">
  <ele>1596.26</ele>
  <time>2026-08-27T18:27:29Z</time>
  <course>277.89</course>
  <speed>0.68</speed>
  <fix>3d</fix>
</trkpt>
<trkpt lat="40.0728446" lon="-105.2306139">
  <ele>1596.7</ele>
  <time>2026-08-27T18:27:29Z</time>
  <course>7.03</course>
  <speed>0.5714017850864661</speed>
  <fix>3d</fix>
</trkpt>
<trkpt lat="40.0728447" lon="-105.2306128">
  <ele>1596.37</ele>
  <time>2026-08-27T18:27:29Z</time>
  <course>278.88</course>
  <speed>0.64</speed>
  <fix>3d</fix>
</trkpt>
<trkpt lat="40.0728448" lon="-105.2306152">
  <ele>1596.8</ele>
  <time>2026-08-27T18:27:29Z</time>
  <course>7.11</course>
  <speed>0.49040799340956914</speed>
  <fix>3d</fix>
</trkpt>
<trkpt lat="40.0728449" lon="-105.2306142">
  <ele>1596.48</ele>
  <time>2026-08-27T18:27:29Z</time>
  <course>279.85</course>
  <speed>0.57</speed>
  <fix>3d</fix>
</trkpt>
<trkpt lat="40.0728449" lon="-105.2306162">
  <ele>1596.88</ele>
  <time>2026-08-27T18:27:29Z</time>
  <course>7.2</course>
  <speed>0.41012193308819755</speed>
  <fix>3d</fix>
</trkpt>
<trkpt lat="40.072845" lon="-105.2306154">
  <ele>1596.57</ele>
  <time>2026-08-27T18:27:29Z</time>
  <course>281.09</course>
  <speed>0.49</speed>
  <fix>3d</fix>
</trkpt>
<trkpt lat="40.072845" lon="-105.2306171">
  <ele>1596.94</ele>
  <time>2026-08-27T18:27:29Z</time>
  <course>7.26</course>
  <speed>0.32015621187164245</speed>
  <fix>3d</fix>
</trkpt>
<trkpt lat="40.0728452" lon="-105.2306165">
  <ele>1596.65</ele>
  <time>2026-08-27T18:27:29Z</time>
  <course>283.21</course>
  <speed>0.41</speed>
  <fix>3d</fix>
</trkpt>
<trkpt lat="40.0728452" lon="-105.2306177">
  <ele>1596.99</ele>
  <time>2026-08-27T18:27:29Z</time>
  <course>4.16</course>
  <speed>0.22</speed>
  <fix>3d</fix>
</trkpt>
<trkpt lat="40.0728454" lon="-105.2306173">
  <ele>1596.72</ele>
  <time>2026-08-27T18:27:29Z</time>
  <course>287.59</course>
  <speed>0.31</speed>
  <fix>3d</fix>
</trkpt>
<trkpt lat="40.0728453" lon="-105.2306182">
  <ele>1597.02</ele>
  <time>2026-08-27T18:27:29Z</time>
  <course>4.73</course>
  <speed>0.12</speed>
  <fix>3d</fix>
</trkpt>
<trkpt lat="40.0728455" lon="-105.2306179">
  <ele>1596.78</ele>
  <time>2026-08-27T18:27:29Z</time>
  <course>294.11</course>
  <speed>0.23</speed>
  <fix>3d</fix>
</trkpt>
<trkpt lat="40.0728454" lon="-105.2306183">
  <ele>1597.04</ele>
  <time>2026-08-27T18:27:29Z</time>
  <course>4.79</course>
  <speed>0.01414213562373095</speed>
  <fix>3d</fix>
</trkpt>
<trkpt lat="40.0728457" lon="-105.2306183">
  <ele>1596.82</ele>
  <time>2026-08-27T18:27:29Z</time>
  <course>308.44</course>
  <speed>0.14</speed>
  <fix>3d</fix>
</trkpt>
<trkpt lat="40.0728455" lon="-105.2306181">
  <ele>1597.06</ele>
  <time>2026-08-27T18:27:29Z</time>
  <course>4.79</course>
  <speed>0.16278820596099705</speed>
  <fix>3d</fix>
</trkpt>
<trkpt lat="40.0728459" lon="-105.2306184">
  <ele>1596.85</ele>
  <time>2026-08-27T18:27:29Z</time>
  <course>20.5</course>
  <speed>0.08</speed>
  <fix>3d</fix>
</trkpt>
<trkpt lat="40.0728456" lon="-105.2306176">
  <ele>1597.07</ele>
  <time>2026-08-27T18:27:29Z</time>
  <course>4.72</course>
  <speed>0.34365680554879163</speed>
  <fix>3d</fix>
</trkpt>
<trkpt lat="40.072846" lon="-105.2306182">
  <ele>1596.87</ele>
  <time>2026-08-27T18:27:29Z</time>
  <course>72.2</course>
  <speed>0.19</speed>
  <fix>3d</fix>
</trkpt>
<trkpt lat="40.0728457" lon="-105.2306166">
  <ele>1597.08</ele>
  <time>2026-08-27T18:27:29Z</time>
  <course>4.67</course>
  <speed>0.5246903848937962</speed>
  <fix>3d</fix>
</trkpt>
<trkpt lat="40.0728461" lon="-105.2306175">
  <ele>1596.88</ele>
  <time>2026-08-27T18:27:29Z</time>
  <course>83.34</course>
  <speed>0.36</speed>
  <fix>3d</fix>
</trkpt>
<trkpt lat="40.0728457" lon="-105.2306152">
  <ele>1597.08</ele>
  <time>2026-08-27T18:27:29Z</time>
  <course>4.65</course>
  <speed>0.7057619995437555</speed>
  <fix>3d</fix>
</trkpt>
<trkpt lat="40.0728462" lon="-105.2306165">
  <ele>1596.89</ele>
  <time>2026-08-27T18:27:29Z</time>
  <course>87.6</course>
  <speed>0.54</speed>
  <fix>3d</fix>
</trkpt>
<trkpt lat="40.0728458" lon="-105.2306133">
  <ele>1597.08</ele>
  <time>2026-08-27T18:27:29Z</time>
  <course>4.7</course>
  <speed>0.8657944328765345</speed>
  <fix>3d</fix>
</trkpt>
<trkpt lat="40.0728462" lon="-105.230615">
  <ele>1596.9</ele>
  <time>2026-08-27T18:27:29Z</time>
  <course>89.99</course>
  <speed>0.71</speed>
  <fix>3d</fix>
</trkpt>
<trkpt lat="40.0728458" lon="-105.2306111">
  <ele>1597.08</ele>
  <time>2026-08-27T18:27:29Z</time>
  <course>4.79</course>
  <speed>1.0071742649611337</speed>
  <fix>3d</fix>
</trkpt>
<trkpt lat="40.0728461" lon="-105.2306131">
  <ele>1596.91</ele>
  <time>2026-08-27T18:27:29Z</time>
  <course>91.71</course>
  <speed>0.87</speed>
  <fix>3d</fix>
</trkpt>
<trkpt lat="40.0728457" lon="-105.2306087">
  <ele>1597.08</ele>
  <time>2026-08-27T18:27:29Z</time>
  <course>9.67</course>
  <speed>1.0692053123698928</speed>
  <fix>3d</fix>
</trkpt>
<trkpt lat="40.0728461" lon="-105.230611">
  <ele>1596.92</ele>
  <time>2026-08-27T18:27:29Z</time>
  <course>93.17</course>
  <speed>1.01</speed>
  <fix>3d</fix>
</trkpt>
<trkpt lat="40.0728456" lon="-105.2306061">
  <ele>1597.08</ele>
  <time>2026-08-27T18:27:29Z</time>
  <course>23.02</course>
  <speed>1.1772000679578642</speed>
  <fix>3d</fix>
</trkpt>
<trkpt lat="40.072846" lon="-105.2306084">
  <ele>1596.92</ele>
  <time>2026-08-27T18:27:29Z</time>
  <course>94.09</course>
  <speed>1.1</speed>
  <fix>3d</fix>
</trkpt>
<trkpt lat="40.0728455" lon="-105.2306032">
  <ele>1597.09</ele>
  <time>2026-08-27T18:27:29Z</time>
  <course>35.51</course>
  <speed>1.27251719045363</speed>
  <fix>3d</fix>
</trkpt>
<trkpt lat="40.0728459" lon="-105.2306057">
  <ele>1596.93</ele>
  <time>2026-08-27T18:27:29Z</time>
  <course>93.74</course>
  <speed>1.18</speed>
  <fix>3d</fix>
</trkpt>
<trkpt lat="40.0728455" lon="-105.2306001">
  <ele>1597.09</ele>
  <time>2026-08-27T18:27:29Z</time>
  <course>47.9</course>
  <speed>1.3401492454200763</speed>
  <fix>3d</fix>
</trkpt>
<trkpt lat="40.0728458" lon="-105.2306028">
  <ele>1596.94</ele>
  <time>2026-08-27T18:27:29Z</time>
  <course>92.1</course>
  <speed>1.27</speed>
  <fix>3d</fix>
</trkpt>
<trkpt lat="40.0728456" lon="-105.2305969">
  <ele>1597.1</ele>
  <time>2026-08-27T18:27:29Z</time>
  <course>60.3</course>
  <speed>1.3901438774457844</speed>
  <fix>3d</fix>
</trkpt>
<trkpt lat="40.0728457" lon="-105.2305998">
  <ele>1596.95</ele>
  <time>2026-08-27T18:27:29Z</time>
  <course>89.97</course>
  <speed>1.34</speed>
  <fix>3d</fix>
</trkpt>
<trkpt lat="40.0728457" lon="-105.2305936">
  <ele>1597.11</ele>
  <time>2026-08-27T18:27:29Z</time>
  <course>72.68</course>
  <speed>1.4212670403551895</speed>
  <fix>3d</fix>
</trkpt>
<trkpt lat="40.0728457" lon="-105.2305966">
  <ele>1596.96</ele>
  <time>2026-08-27T18:27:29Z</time>
  <course>88.1</course>
  <speed>1.38</speed>
  <fix>3d</fix>
</trkpt>
<trkpt lat="40.0728458" lon="-105.2305903">
  <ele>1597.12</ele>
  <time>2026-08-27T18:27:29Z</time>
  <course>85.06</course>
  <speed>1.4112760183606892</speed>
  <fix>3d</fix>
</trkpt>
<trkpt lat="40.0728458" lon="-105.2305933">
  <ele>1596.97</ele>
  <time>2026-08-27T18:27:29Z</time>
  <course>87.0</course>
  <speed>1.4</speed>
  <fix>3d</fix>
</trkpt>
<trkpt lat="40.0728459" lon="-105.230587">
  <ele>1597.12</ele>
  <time>2026-08-27T18:27:29Z</time>
  <course>88.77</course>
  <speed>1.39</speed>
  <fix>3d</fix>
</trkpt>
<trkpt lat="40.0728459" lon="-105.23059">
  <ele>1596.98</ele>
  <time>2026-08-27T18:27:29Z</time>
  <course>87.92</course>
  <speed>1.4</speed>
  <fix>3d</fix>
</trkpt>
<trkpt lat="40.0728459" lon="-105.2305838">
  <ele>1597.13</ele>
  <time>2026-08-27T18:27:29Z</time>
  <course>89.64</course>
  <speed>1.3401492454200763</speed>
  <fix>3d</fix>
</trkpt>
<trkpt lat="40.072846" lon="-105.2305868">
  <ele>1596.99</ele>
  <time>2026-08-27T18:27:29Z</time>
  <course>89.79</course>
  <speed>1.37</speed>
  <fix>3d</fix>
</trkpt>
<trkpt lat="40.0728458" lon="-105.2305808">
  <ele>1597.13</ele>
  <time>2026-08-27T18:27:29Z</time>
  <course>90.79</course>
  <speed>1.2809761902549164</speed>
  <fix>3d</fix>
</trkpt>
<trkpt lat="40.072846" lon="-105.2305836">
  <ele>1596.99</ele>
  <time>2026-08-27T18:27:29Z</time>
  <course>91.04</course>
  <speed>1.31</speed>
  <fix>3d</fix>
</trkpt>
<trkpt lat="40.0728458" lon="-105.2305779">
  <ele>1597.14</ele>
  <time>2026-08-27T18:27:29Z</time>
  <course>92.48</course>
  <speed>1.1926860441876563</speed>
  <fix>3d</fix>
</trkpt>
<trkpt lat="40.0728459" lon="-105.2305806">
  <ele>1597.0</ele>
  <time>2026-08-27T18:27:29Z</time>
  <course>92.47</course>
  <speed>1.25</speed>
  <fix>3d</fix>
</trkpt>
<trkpt lat="40.0728456" lon="-105.2305754">
  <ele>1597.14</ele>
  <time>2026-08-27T18:27:29Z</time>
  <course>94.48</course>
  <speed>1.0756393447619885</speed>
  <fix>3d</fix>
</trkpt>
<trkpt lat="40.0728458" lon="-105.2305778">
  <ele>1597.01</ele>
  <time>2026-08-27T18:27:29Z</time>
  <course>94.25</course>
  <speed>1.15</speed>
  <fix>3d</fix>
</trkpt>
<trkpt lat="40.0728454" lon="-105.2305731">
  <ele>1597.14</ele>
  <time>2026-08-27T18:27:29Z</time>
  <course>96.73</course>
  <speed>0.9207062506576134</speed>
  <fix>3d</fix>
</trkpt>
<trkpt lat="40.0728457" lon="-105.2305752">
  <ele>1597.01</ele>
  <time>2026-08-27T18:27:29Z</time>
  <course>96.35</course>
  <speed>1.03</speed>
  <fix>3d</fix>
</trkpt>
<trkpt lat="40.0728451" lon="-105.2305712">
  <ele>1597.14</ele>
  <time>2026-08-27T18:27:29Z</time>
  <course>96.98</course>
  <speed>0.737563556583431</speed>
  <fix>3d</fix>
</trkpt>
<trkpt lat="40.0728455" lon="-105.2305729">
  <ele>1597.01</ele>
  <time>2026-08-27T18:27:29Z</time>
  <course>99.35</course>
  <speed>0.88</speed>
  <fix>3d</fix>
</trkpt>
<trkpt lat="40.0728449" lon="-105.2305698">
  <ele>1597.14</ele>
  <time>2026-08-27T18:27:29Z</time>
  <course>96.97</course>
  <speed>0.5154609587543949</speed>
  <fix>3d</fix>
</trkpt>
<trkpt lat="40.0728452" lon="-105.2305711">
  <ele>1597.02</ele>
  <time>2026-08-27T18:27:29Z</time>
  <course>103.63</course>
  <speed>0.69</speed>
  <fix>3d</fix>
</trkpt>
<trkpt lat="40.0728446" lon="-105.230569">
  <ele>1597.14</ele>
  <time>2026-08-27T18:27:29Z</time>
  <course>97.02</course>
  <speed>0.29410882339705485</speed>
  <fix>3d</fix>
</trkpt>
<trkpt lat="40.0728449" lon="-105.2305698">
  <ele>1597.02</ele>
  <time>2026-08-27T18:27:29Z</time>
  <course>110.76</course>
  <speed>0.48</speed>
  <fix>3d</fix>
</trkpt>
<trkpt lat="40.0728443" lon="-105.2305687">
  <ele>1597.13</ele>
  <time>2026-08-27T18:27:29Z</time>
  <course>97.0</course>
  <speed>0.17</speed>
  <fix>3d</fix>
</trkpt>
<trkpt lat="40.0728446" lon="-105.230569">
  <ele>1597.01</ele>
  <time>2026-08-27T18:27:29Z</time>
  <course>130.18</course>
  <speed>0.26</speed>
  <fix>3d</fix>
</trkpt>
<trkpt lat="40.072844" lon="-105.230569">
  <ele>1597.13</ele>
  <time>2026-08-27T18:27:29Z</time>
  <course>96.96</course>
  <speed>0.27018512172212594</speed>
  <fix>3d</fix>
</trkpt>
<trkpt lat="40.0728443" lon="-105.2305688">
  <ele>1597.01</ele>
  <time>2026-08-27T18:27:29Z</time>
  <course>191.06</course>
  <speed>0.17</speed>
  <fix>3d</fix>
</trkpt>
<trkpt lat="40.0728437" lon="-105.2305697">
  <ele>1597.12</ele>
  <time>2026-08-27T18:27:29Z</time>
  <course>96.87</course>
  <speed>0.4114608122288197</speed>
  <fix>3d</fix>
</trkpt>
<trkpt lat="40.0728439" lon="-105.2305691">
  <ele>1597.01</ele>
  <time>2026-08-27T18:27:29Z</time>
  <course>233.54</course>
  <speed>0.3</speed>
  <fix>3d</fix>
</trkpt>
<trkpt lat="40.0728433" lon="-105.2305707">
  <ele>1597.11</ele>
  <time>2026-08-27T18:27:29Z</time>
  <course>96.78</course>
  <speed>0.5069516742254631</speed>
  <fix>3d</fix>
</trkpt>
<trkpt lat="40.0728436" lon="-105.2305698">
  <ele>1597.0</ele>
  <time>2026-08-27T18:27:29Z</time>
  <course>245.05</course>
  <speed>0.44</speed>
  <fix>3d</fix>
</trkpt>
<trkpt lat="40.072843" lon="-105.2305719">
  <ele>1597.11</ele>
  <time>2026-08-27T18:27:29Z</time>
  <course>96.72</course>
  <speed>0.5348831648126533</speed>
  <fix>3d</fix>
</trkpt>
<trkpt lat="40.0728433" lon="-105.230571">
  <ele>1597.0</ele>
  <time>2026-08-27T18:27:29Z</time>
  <course>248.78</course>
  <speed>0.53</speed>
  <fix>3d</fix>
</trkpt>
<trkpt lat="40.0728426" lon="-105.2305731">
  <ele>1597.12</ele>
  <time>2026-08-27T18:27:29Z</time>
  <course>96.7</course>
  <speed>0.5069516742254631</speed>
  <fix>3d</fix>
</trkpt>
<trkpt lat="40.0728429" lon="-105.2305721">
  <ele>1597.0</ele>
  <time>2026-08-27T18:27:29Z</time>
  <course>249.8</course>
  <speed>0.56</speed>
  <fix>3d</fix>
</trkpt>
<trkpt lat="40.0728423" lon="-105.2305742">
  <ele>1597.12</ele>
  <time>2026-08-27T18:27:29Z</time>
  <course>96.56</course>
  <speed>0.4386342439892262</speed>
  <fix>3d</fix>
</trkpt>
<trkpt lat="40.0728426" lon="-105.2305734">
  <ele>1597.01</ele>
  <time>2026-08-27T18:27:29Z</time>
  <course>249.42</course>
  <speed>0.53</speed>
  <fix>3d</fix>
</trkpt>
<trkpt lat="40.0728419" lon="-105.2305751">
  <ele>1597.13</ele>
  <time>2026-08-27T18:27:29Z</time>
  <course>85.39</course>
  <speed>0.3827531841800928</speed>
  <fix>3d</fix>
</trkpt>
<trkpt lat="40.0728422" lon="-105.2305744">
  <ele>1597.01</ele>
  <time>2026-08-27T18:27:29Z</time>
  <course>244.83</course>
  <speed>0.48</speed>
  <fix>3d</fix>
</trkpt>
<trkpt lat="40.0728416" lon="-105.2305759">
  <ele>1597.13</ele>
  <time>2026-08-27T18:27:29Z</time>
  <course>72.66</course>
  <speed>0.30528675044947495</speed>
  <fix>3d</fix>
</trkpt>
<trkpt lat="40.0728419" lon="-105.2305754">
  <ele>1597.02</ele>
  <time>2026-08-27T18:27:29Z</time>
  <course>240.49</course>
  <speed>0.4</speed>
  <fix>3d</fix>
</trkpt>
<trkpt lat="40.0728413" lon="-105.2305765">
  <ele>1597.13</ele>
  <time>2026-08-27T18:27:29Z</time>
  <course>60.53</course>
  <speed>0.25059928172283336</speed>
  <fix>3d</fix>
</trkpt>
<trkpt lat="40.0728415" lon="-105.2305762">
  <ele>1597.02</ele>
  <time>2026-08-27T18:27:29Z</time>
  <course>242.01</course>
  <speed>0.32</speed>
  <fix>3d</fix>
</trkpt>
<trkpt lat="40.0728411" lon="-105.2305771">
  <ele>1597.13</ele>
  <time>2026-08-27T18:27:29Z</time>
  <course>48.48</course>
  <speed>0.2193171219946131</speed>
  <fix>3d</fix>
</trkpt>
<trkpt lat="40.0728413" lon="-105.2305768">
  <ele>1597.03</ele>
  <time>2026-08-27T18:27:29Z</time>
  <course>245.22</course>
  <speed>0.27</speed>
  <fix>3d</fix>
</trkpt>
<trkpt lat="40.072841" lon="-105.2305776">
  <ele>1597.13</ele>
  <time>2026-08-27T18:27:29Z</time>
  <course>36.33</course>
  <speed>0.20124611797498107</speed>
  <fix>3d</fix>
</trkpt>
<trkpt lat="40.0728411" lon="-105.2305773">
  <ele>1597.03</ele>
  <time>2026-08-27T18:27:29Z</time>
  <course>247.6</course>
  <speed>0.23</speed>
  <fix>3d</fix>
</trkpt>
<trkpt lat="40.0728408" lon="-105.230578">
  <ele>1597.13</ele>
  <time>2026-08-27T18:27:29Z</time>
  <course>24.27</course>
  <speed>0.18867962264113206</speed>
  <fix>3d</fix>
</trkpt>
<trkpt lat="40.0728409" lon="-105.2305778">
  <ele>1597.03</ele>
  <time>2026-08-27T18:27:29Z</time>
  <course>246.36</course>
  <speed>0.2</speed>
  <fix>3d</fix>
</trkpt>
<trkpt lat="40.0728406" lon="-105.2305784">
  <ele>1597.13</ele>
  <time>2026-08-27T18:27:30Z</time>
  <course>12.27</course>
  <speed>0.18439088914585774</speed>
  <fix>3d</fix>
</trkpt>
<trkpt lat="40.0728408" lon="-105.2305782">
  <ele>1597.03</ele>
  <time>2026-08-27T18:27:30Z</time>
  <course>240.69</course>
  <speed>0.18</speed>
  <fix>3d</fix>
</trkpt>
<trkpt lat="40.0728404" lon="-105.2305788">
  <ele>1597.13</ele>
  <time>2026-08-27T18:27:30Z</time>
  <course>9.15</course>
  <speed>0.22022715545545238</speed>
  <fix>3d</fix>
</trkpt>
<trkpt lat="40.0728407" lon="-105.2305786">
  <ele>1597.03</ele>
  <time>2026-08-27T18:27:30Z</time>
  <course>236.04</course>
  <speed>0.18</speed>
  <fix>3d</fix>
</trkpt>
<trkpt lat="40.0728402" lon="-105.2305792">
  <ele>1597.13</ele>
  <time>2026-08-27T18:27:30Z</time>
  <course>10.31</course>
  <speed>0.17204650534085253</speed>
  <fix>3d</fix>
</trkpt>
<trkpt lat="40.0728405" lon="-105.2305789">
  <ele>1597.03</ele>
  <time>2026-08-27T18:27:30Z</time>
  <course>231.06</course>
  <speed>0.18</speed>
  <fix>3d</fix>
</trkpt>
<trkpt lat="40.07284" lon="-105.2305793">
  <ele>1597.13</ele>
  <time>2026-08-27T18:27:30Z</time>
  <course>10.44</course>
  <speed>0.14560219778561037</speed>
  <fix>3d</fix>
</trkpt>
<trkpt lat="40.0728402" lon="-105.2305792">
  <ele>1597.04</ele>
  <time>2026-08-27T18:27:30Z</time>
  <course>218.15</course>
  <speed>0.15</speed>
  <fix>3d</fix>
</trkpt>
<trkpt lat="40.0728398" lon="-105.2305794">
  <ele>1597.13</ele>
  <time>2026-08-27T18:27:30Z</time>
  <course>10.47</course>
  <speed>0.11</speed>
  <fix>3d</fix>
</trkpt>
<trkpt lat="40.07284" lon="-105.2305794">
  <ele>1597.04</ele>
  <time>2026-08-27T18:27:30Z</time>
  <course>196.81</course>
  <speed>0.11</speed>
  <fix>3d</fix>
</trkpt>
<trkpt lat="40.0728396" lon="-105.2305793">
  <ele>1597.13</ele>
  <time>2026-08-27T18:27:30Z</time>
  <course>10.49</course>
  <speed>0.08944271909999159</speed>
  <fix>3d</fix>
</trkpt>
<trkpt lat="40.0728398" lon="-105.2305794">
  <ele>1597.04</ele>
  <time>2026-08-27T18:27:30Z</time>
  <course>165.57</course>
  <speed>0.08</speed>
  <fix>3d</fix>
</trkpt>
<trkpt lat="40.0728395" lon="-105.2305792">
  <ele>1597.13</ele>
  <time>2026-08-27T18:27:30Z</time>
  <course>10.51</course>
  <speed>0.08602325267042626</speed>
  <fix>3d</fix>
</trkpt>
<trkpt lat="40.0728397" lon="-105.2305793">
  <ele>1597.04</ele>
  <time>2026-08-27T18:27:30Z</time>
  <course>128.75</course>
  <speed>0.08</speed>
  <fix>3d</fix>
</trkpt>
<trkpt lat="40.0728395" lon="-105.230579">
  <ele>1597.13</ele>
  <time>2026-08-27T18:27:30Z</time>
  <course>10.52</course>
  <speed>0.1019803902718557</speed>
  <fix>3d</fix>
</trkpt>
<trkpt lat="40.0728396" lon="-105.2305791">
  <ele>1597.04</ele>
  <time>2026-08-27T18:27:30Z</time>
  <course>100.57</course>
  <speed>0.1</speed>
  <fix>3d</fix>
</trkpt>
<trkpt lat="40.0728395" lon="-105.2305787">
  <ele>1597.13</ele>
  <time>2026-08-27T18:27:30Z</time>
  <course>10.54</course>
  <speed>0.12</speed>
  <fix>3d</fix>
</trkpt>
<trkpt lat="40.0728396" lon="-105.2305789">
  <ele>1597.04</ele>
  <time>2026-08-27T18:27:30Z</time>
  <course>83.44</course>
  <speed>0.12</speed>
  <fix>3d</fix>
</trkpt>
<trkpt lat="40.0728396" lon="-105.2305784">
  <ele>1597.14</ele>
  <time>2026-08-27T18:27:30Z</time>
  <course>10.55</course>
  <speed>0.14317821063276354</speed>
  <fix>3d</fix>
</trkpt>
<trkpt lat="40.0728396" lon="-105.2305786">
  <ele>1597.04</ele>
  <time>2026-08-27T18:27:30Z</time>
  <course>72.91</course>
  <speed>0.15</speed>
  <fix>3d</fix>
</trkpt>
<trkpt lat="40.0728397" lon="-105.230578">
  <ele>1597.14</ele>
  <time>2026-08-27T18:27:30Z</time>
  <course>10.57</course>
  <speed>0.15811388300841897</speed>
  <fix>3d</fix>
</trkpt>
<trkpt lat="40.0728397" lon="-105.2305782">
  <ele>1597.04</ele>
  <time>2026-08-27T18:27:30Z</time>
  <course>65.84</course>
  <speed>0.17</speed>
  <fix>3d</fix>
</trkpt>
<trkpt lat="40.0728398" lon="-105.2305776">
  <ele>1597.15</ele>
  <time>2026-08-27T18:27:30Z</time>
  <course>10.61</course>
  <speed>0.17464249196572978</speed>
  <fix>3d</fix>
</trkpt>
<trkpt lat="40.0728399" lon="-105.2305778">
  <ele>1597.05</ele>
  <time>2026-08-27T18:27:30Z</time>
  <course>60.56</course>
  <speed>0.2</speed>
  <fix>3d</fix>
</trkpt>
<trkpt lat="40.07284" lon="-105.2305772">
  <ele>1597.15</ele>
  <time>2026-08-27T18:27:30Z</time>
  <course>10.64</course>
  <speed>0.1835755975068582</speed>
  <fix>3d</fix>
</trkpt>
<trkpt lat="40.0728401" lon="-105.2305775">
  <ele>1597.04</ele>
  <time>2026-08-27T18:27:30Z</time>
  <course>56.35</course>
  <speed>0.21</speed>
  <fix>3d</fix>
</trkpt>
<trkpt lat="40.0728403" lon="-105.2305768">
  <ele>1597.15</ele>
  <time>2026-08-27T18:27:30Z</time>
  <course>10.65</course>
  <speed>0.18027756377319945</speed>
  <fix>3d</fix>
</trkpt>
<trkpt lat="40.0728402" lon="-105.230577">
  <ele>1597.04</ele>
  <time>2026-08-27T18:27:30Z</time>
  <course>52.91</course>
  <speed>0.22</speed>
  <fix>3d</fix>
</trkpt>
<trkpt lat="40.0728405" lon="-105.2305764">
  <ele>1597.14</ele>
  <time>2026-08-27T18:27:30Z</time>
  <course>10.67</course>
  <speed>0.18601075237738274</speed>
  <fix>3d</fix>
</trkpt>
<trkpt lat="40.0728405" lon="-105.2305765">
  <ele>1597.04</ele>
  <time>2026-08-27T18:27:30Z</time>
  <course>49.94</course>
  <speed>0.23</speed>
  <fix>3d</fix>
</trkpt>
<trkpt lat="40.0728408" lon="-105.230576">
  <ele>1597.14</ele>
  <time>2026-08-27T18:27:30Z</time>
  <course>10.68</course>
  <speed>0.17804493814764857</speed>
  <fix>3d</fix>
</trkpt>
<trkpt lat="40.0728408" lon="-105.2305762">
  <ele>1597.04</ele>
  <time>2026-08-27T18:27:30Z</time>
  <course>47.29</course>
  <speed>0.23</speed>
  <fix>3d</fix>
</trkpt>
<trkpt lat="40.0728411" lon="-105.2305756">
  <ele>1597.13</ele>
  <time>2026-08-27T18:27:30Z</time>
  <course>10.7</course>
  <speed>0.16278820596099705</speed>
  <fix>3d</fix>
</trkpt>
<trkpt lat="40.0728411" lon="-105.2305758">
  <ele>1597.04</ele>
  <time>2026-08-27T18:27:30Z</time>
  <course>44.87</course>
  <speed>0.22</speed>
  <fix>3d</fix>
</trkpt>
<trkpt lat="40.0728413" lon="-105.2305753">
  <ele>1597.13</ele>
  <time>2026-08-27T18:27:30Z</time>
  <course>10.71</course>
  <speed>0.14866068747318506</speed>
  <fix>3d</fix>
</trkpt>
<trkpt lat="40.0728414" lon="-105.2305754">
  <ele>1597.03</ele>
  <time>2026-08-27T18:27:30Z</time>
  <course>42.72</course>
  <speed>0.21</speed>
  <fix>3d</fix>
</trkpt>
<trkpt lat="40.0728416" lon="-105.230575">
  <ele>1597.12</ele>
  <time>2026-08-27T18:27:30Z</time>
  <course>10.74</course>
  <speed>0.12727922061357855</speed>
  <fix>3d</fix>
</trkpt>
<trkpt lat="40.0728417" lon="-105.2305751">
  <ele>1597.03</ele>
  <time>2026-08-27T18:27:30Z</time>
  <course>40.82</course>
  <speed>0.19</speed>
  <fix>3d</fix>
</trkpt>
<trkpt lat="40.0728418" lon="-105.2305748">
  <ele>1597.11</ele>
  <time>2026-08-27T18:27:30Z</time>
  <course>10.9</course>
  <speed>0.1063014581273465</speed>
  <fix>3d</fix>
</trkpt>
<trkpt lat="40.0728419" lon="-105.2305748">
  <ele>1597.04</ele>
  <time>2026-08-27T18:27:30Z</time>
  <course>38.92</course>
  <speed>0.17</speed>
  <fix>3d</fix>
</trkpt>
<trkpt lat="40.072842" lon="-105.2305746">
  <ele>1597.08</ele>
  <time>2026-08-27T18:27:30Z</time>
  <course>11.34</course>
  <speed>0.09219544457292887</speed>
  <fix>3d</fix>
</trkpt>
<trkpt lat="40.0728421" lon="-105.2305746">
  <ele>1597.03</ele>
  <time>2026-08-27T18:27:30Z</time>
  <course>36.48</course>
  <speed>0.14</speed>
  <fix>3d</fix>
</trkpt>
<trkpt lat="40.0728422" lon="-105.2305744">
  <ele>1597.02</ele>
  <time>2026-08-27T18:27:30Z</time>
  <course>11.7</course>
  <speed>0.06403124237432849</speed>
  <fix>3d</fix>
</trkpt>
<trkpt lat="40.0728424" lon="-105.2305744">
  <ele>1596.99</ele>
  <time>2026-08-27T18:27:30Z</time>
  <course>33.9</course>
  <speed>0.12</speed>
  <fix>3d</fix>
</trkpt>
<trkpt lat="40.0728424" lon="-105.2305743">
  <ele>1596.91</ele>
  <time>2026-08-27T18:27:30Z</time>
  <course>12.02</course>
  <speed>0.05</speed>
  <fix>3d</fix>
</trkpt>
<trkpt lat="40.0728425" lon="-105.2305743">
  <ele>1596.92</ele>
  <time>2026-08-27T18:27:30Z</time>
  <course>31.95</course>
  <speed>0.1</speed>
  <fix>3d</fix>
</trkpt>
<trkpt lat="40.0728425" lon="-105.2305742">
  <ele>1596.76</ele>
  <time>2026-08-27T18:27:30Z</time>
  <course>12.09</course>
  <speed>0.0282842712474619</speed>
  <fix>3d</fix>
</trkpt>
<trkpt lat="40.0728426" lon="-105.2305742">
  <ele>1596.82</ele>
  <time>2026-08-27T18:27:30Z</time>
  <course>31.35</course>
  <speed>0.07</speed>
  <fix>3d</fix>
</trkpt>
<trkpt lat="40.0728426" lon="-105.2305741">
  <ele>1596.61</ele>
  <time>2026-08-27T18:27:30Z</time>
  <course>11.82</course>
  <speed>0.02</speed>
  <fix>3d</fix>
</trkpt>
<trkpt lat="40.0728427" lon="-105.2305741">
  <ele>1596.67</ele>
  <time>2026-08-27T18:27:30Z</time>
  <course>34.01</course>
  <speed>0.05</speed>
  <fix>3d</fix>
</trkpt>
<trkpt lat="40.0728426" lon="-105.2305741">
  <ele>1596.46</ele>
  <time>2026-08-27T18:27:30Z</time>
  <course>11.55</course>
  <speed>0.01414213562373095</speed>
  <fix>3d</fix>
</trkpt>
<trkpt lat="40.0728428" lon="-105.230574">
  <ele>1596.52</ele>
  <time>2026-08-27T18:27:30Z</time>
  <course>41.27</course>
  <speed>0.03</speed>
  <fix>3d</fix>
</trkpt>
<trkpt lat="40.0728426" lon="-105.230574">
  <ele>1596.33</ele>
  <time>2026-08-27T18:27:30Z</time>
  <course>11.45</course>
  <speed>0.03</speed>
  <fix>3d</fix>
</trkpt>
<trkpt lat="40.0728429" lon="-105.2305739">
  <ele>1596.38</ele>
  <time>2026-08-27T18:27:30Z</time>
  <course>62.42</course>
  <speed>0.01</speed>
  <fix>3d</fix>
</trkpt>
<trkpt lat="40.0728426" lon="-105.230574">
  <ele>1596.22</ele>
  <time>2026-08-27T18:27:30Z</time>
  <course>11.39</course>
  <speed>0.04</speed>
  <fix>3d</fix>
</trkpt>
<trkpt lat="40.0728429" lon="-105.2305739">
  <ele>1596.25</ele>
  <time>2026-08-27T18:27:30Z</time>
  <course>184.8</course>
  <speed>0.01</speed>
  <fix>3d</fix>
</trkpt>
<trkpt lat="40.0728425" lon="-105.2305741">
  <ele>1596.11</ele>
  <time>2026-08-27T18:27:30Z</time>
  <course>11.35</course>
  <speed>0.05099019513592785</speed>
  <fix>3d</fix>
</trkpt>
<trkpt lat="40.0728429" lon="-105.2305739">
  <ele>1596.12</ele>
  <time>2026-08-27T18:27:30Z</time>
  <course>207.15</course>
  <speed>0.02</speed>
  <fix>3d</fix>
</trkpt>
<trkpt lat="40.0728425" lon="-105.2305741">
  <ele>1596.0</ele>
  <time>2026-08-27T18:27:30Z</time>
  <course>11.33</course>
  <speed>0.0632455532033676</speed>
  <fix>3d</fix>
</trkpt>
<trkpt lat="40.0728429" lon="-105.2305739">
  <ele>1596.02</ele>
  <time>2026-08-27T18:27:30Z</time>
  <course>213.11</course>
  <speed>0.04</speed>
  <fix>3d</fix>
</trkpt>
<trkpt lat="40.0728425" lon="-105.2305741">
  <ele>1595.9</ele>
  <time>2026-08-27T18:27:30Z</time>
  <course>11.34</course>
  <speed>0.07615773105863909</speed>
  <fix>3d</fix>
</trkpt>
<trkpt lat="40.0728428" lon="-105.230574">
  <ele>1595.91</ele>
  <time>2026-08-27T18:27:30Z</time>
  <course>216.64</course>
  <speed>0.05</speed>
  <fix>3d</fix>
</trkpt>
<trkpt lat="40.0728424" lon="-105.2305742">
  <ele>1595.8</ele>
  <time>2026-08-27T18:27:30Z</time>
  <course>11.35</course>
  <speed>0.08062257748298549</speed>
  <fix>3d</fix>
</trkpt>
<trkpt lat="40.0728427" lon="-105.2305741">
  <ele>1595.82</ele>
  <time>2026-08-27T18:27:30Z</time>
  <course>219.47</course>
  <speed>0.06</speed>
  <fix>3d</fix>
</trkpt>
<trkpt lat="40.0728423" lon="-105.2305743">
  <ele>1595.7</ele>
  <time>2026-08-27T18:27:30Z</time>
  <course>11.38</course>
  <speed>0.08062257748298549</speed>
  <fix>3d</fix>
</trkpt>
<trkpt lat="40.0728426" lon="-105.2305742">
  <ele>1595.72</ele>
  <time>2026-08-27T18:27:30Z</time>
  <course>221.82</course>
  <speed>0.07</speed>
  <fix>3d</fix>
</trkpt>
<trkpt lat="40.0728422" lon="-105.2305744">
  <ele>1595.61</ele>
  <time>2026-08-27T18:27:30Z</time>
  <course>11.4</course>
  <speed>0.08062257748298549</speed>
  <fix>3d</fix>
</trkpt>
<trkpt lat="40.0728425" lon="-105.2305743">
  <ele>1595.63</ele>
  <time>2026-08-27T18:27:30Z</time>
  <course>224.15</course>
  <speed>0.08</speed>
  <fix>3d</fix>
</trkpt>
<trkpt lat="40.0728422" lon="-105.2305745">
  <ele>1595.51</ele>
  <time>2026-08-27T18:27:30Z</time>
  <course>11.37</course>
  <speed>0.08062257748298549</speed>
  <fix>3d</fix>
</trkpt>
<trkpt lat="40.0728424" lon="-105.2305744">
  <ele>1595.53</ele>
  <time>2026-08-27T18:27:30Z</time>
  <course>226.51</course>
  <speed>0.08</speed>
  <fix>3d</fix>
</trkpt>
<trkpt lat="40.0728421" lon="-105.2305746">
  <ele>1595.41</ele>
  <time>2026-08-27T18:27:30Z</time>
  <course>11.39</course>
  <speed>0.07211102550927978</speed>
  <fix>3d</fix>
</trkpt>
<trkpt lat="40.0728423" lon="-105.2305746">
  <ele>1595.43</ele>
  <time>2026-08-27T18:27:30Z</time>
  <course>229.11</course>
  <speed>0.08</speed>
  <fix>3d</fix>
</trkpt>
<trkpt lat="40.072842" lon="-105.2305747">
  <ele>1595.32</ele>
  <time>2026-08-27T18:27:30Z</time>
  <course>11.38</course>
  <speed>0.06403124237432849</speed>
  <fix>3d</fix>
</trkpt>
<trkpt lat="40.0728422" lon="-105.2305748">
  <ele>1595.34</ele>
  <time>2026-08-27T18:27:30Z</time>
  <course>231.91</course>
  <speed>0.07</speed>
  <fix>3d</fix>
</trkpt>
<trkpt lat="40.0728419" lon="-105.2305749">
  <ele>1595.22</ele>
  <time>2026-08-27T18:27:30Z</time>
  <course>11.37</course>
  <speed>0.05830951894845301</speed>
  <fix>3d</fix>
</trkpt>
<trkpt lat="40.0728421" lon="-105.2305749">
  <ele>1595.24</ele>
  <time>2026-08-27T18:27:30Z</time>
  <course>235.02</course>
  <speed>0.07</speed>
  <fix>3d</fix>
</trkpt>
<trkpt lat="40.0728419" lon="-105.230575">
  <ele>1595.12</ele>
  <time>2026-08-27T18:27:30Z</time>
  <course>11.38</course>
  <speed>0.05</speed>
  <fix>3d</fix>
</trkpt>
<trkpt lat="40.072842" lon="-105.230575">
  <ele>1595.13</ele>
  <time>2026-08-27T18:27:30Z</time>
  <course>239.11</course>
  <speed>0.06</speed>
  <fix>3d</fix>
</trkpt>
<trkpt lat="40.0728419" lon="-105.2305751">
  <ele>1595.02</ele>
  <time>2026-08-27T18:27:30Z</time>
  <course>11.39</course>
  <speed>0.03605551275463989</speed>
  <fix>3d</fix>
</trkpt>
<trkpt lat="40.072842" lon="-105.2305752">
  <ele>1595.04</ele>
  <time>2026-08-27T18:27:30Z</time>
  <course>244.25</course>
  <speed>0.05</speed>
  <fix>3d</fix>
</trkpt>
<trkpt lat="40.0728418" lon="-105.2305752">
  <ele>1594.92</ele>
  <time>2026-08-27T18:27:30Z</time>
  <course>11.39</course>
  <speed>0.0282842712474619</speed>
  <fix>3d</fix>
</trkpt>
<trkpt lat="40.072842" lon="-105.2305753">
  <ele>1594.94</ele>
  <time>2026-08-27T18:27:30Z</time>
  <course>250.69</course>
  <speed>0.05</speed>
  <fix>3d</fix>
</trkpt>
<trkpt lat="40.0728418" lon="-105.2305753">
  <ele>1594.82</ele>
  <time>2026-08-27T18:27:30Z</time>
  <course>11.37</course>
  <speed>0.01414213562373095</speed>
  <fix>3d</fix>
</trkpt>
<trkpt lat="40.072842" lon="-105.2305754">
  <ele>1594.84</ele>
  <time>2026-08-27T18:27:30Z</time>
  <course>258.98</course>
  <speed>0.04</speed>
  <fix>3d</fix>
</trkpt>
<trkpt lat="40.0728419" lon="-105.2305753">
  <ele>1594.72</ele>
  <time>2026-08-27T18:27:30Z</time>
  <course>11.37</course>
  <speed>0.01</speed>
  <fix>3d</fix>
</trkpt>
<trkpt lat="40.072842" lon="-105.2305755">
  <ele>1594.74</ele>
  <time>2026-08-27T18:27:30Z</time>
  <course>269.52</course>
  <speed>0.03</speed>
  <fix>3d</fix>
</trkpt>
<trkpt lat="40.0728419" lon="-105.2305754">
  <ele>1594.62</ele>
  <time>2026-08-27T18:27:30Z</time>
  <course>11.39</course>
  <speed>0.0</speed>
  <fix>3d</fix>
</trkpt>
<trkpt lat="40.072842" lon="-105.2305756">
  <ele>1594.63</ele>
  <time>2026-08-27T18:27:30Z</time>
  <course>282.27</course>
  <speed>0.03</speed>
  <fix>3d</fix>
</trkpt>
<trkpt lat="40.0728419" lon="-105.2305755">
  <ele>1594.51</ele>
  <time>2026-08-27T18:27:30Z</time>
  <course>11.37</course>
  <speed>0.0</speed>
  <fix>3d</fix>
</trkpt>
<trkpt lat="40.072842" lon="-105.2305756">
  <ele>1594.54</ele>
  <time>2026-08-27T18:27:30Z</time>
  <course>296.53</course>
  <speed>0.02</speed>
  <fix>3d</fix>
</trkpt>
<trkpt lat="40.0728419" lon="-105.2305755">
  <ele>1594.41</ele>
  <time>2026-08-27T18:27:30Z</time>
  <course>11.38</course>
  <speed>0.0</speed>
  <fix>3d</fix>
</trkpt>
<trkpt lat="40.072842" lon="-105.2305756">
  <ele>1594.44</ele>
  <time>2026-08-27T18:27:30Z</time>
  <course>312.14</course>
  <speed>0.02</speed>
  <fix>3d</fix>
</trkpt>
<trkpt lat="40.0728419" lon="-105.2305755">
  <ele>1594.32</ele>
  <time>2026-08-27T18:27:30Z</time>
  <course>11.37</course>
  <speed>0.01</speed>
  <fix>3d</fix>
</trkpt>
<trkpt lat="40.072842" lon="-105.2305757">
  <ele>1594.34</ele>
  <time>2026-08-27T18:27:30Z</time>
  <course>328.62</course>
  <speed>0.02</speed>
  <fix>3d</fix>
</trkpt>
<trkpt lat="40.0728419" lon="-105.2305755">
  <ele>1594.22</ele>
  <time>2026-08-27T18:27:30Z</time>
  <course>11.38</course>
  <speed>0.02</speed>
  <fix>3d</fix>
</trkpt>
<trkpt lat="40.072842" lon="-105.2305758">
  <ele>1594.24</ele>
  <time>2026-08-27T18:27:30Z</time>
  <course>343.08</course>
  <speed>0.02</speed>
  <fix>3d</fix>
</trkpt>
<trkpt lat="40.072842" lon="-105.2305755">
  <ele>1594.12</ele>
  <time>2026-08-27T18:27:30Z</time>
  <course>11.39</course>
  <speed>0.02</speed>
  <fix>3d</fix>
</trkpt>
<trkpt lat="40.072842" lon="-105.2305758">
  <ele>1594.13</ele>
  <time>2026-08-27T18:27:30Z</time>
  <course>354.04</course>
  <speed>0.02</speed>
  <fix>3d</fix>
</trkpt>
<trkpt lat="40.072842" lon="-105.2305755">
  <ele>1594.02</ele>
  <time>2026-08-27T18:27:30Z</time>
  <course>11.39</course>
  <speed>0.02</speed>
  <fix>3d</fix>
</trkpt>
<trkpt lat="40.072842" lon="-105.2305758">
  <ele>1594.04</ele>
  <time>2026-08-27T18:27:30Z</time>
  <course>3.11</course>
  <speed>0.02</speed>
  <fix>3d</fix>
</trkpt>
<trkpt lat="40.072842" lon="-105.2305755">
  <ele>1593.92</ele>
  <time>2026-08-27T18:27:30Z</time>
  <course>11.39</course>
  <speed>0.02</speed>
  <fix>3d</fix>
</trkpt>
<trkpt lat="40.072842" lon="-105.2305758">
  <ele>1593.94</ele>
  <time>2026-08-27T18:27:30Z</time>
  <course>11.16</course>
  <speed>0.02</speed>
  <fix>3d</fix>
</trkpt>
<trkpt lat="40.072842" lon="-105.2305755">
  <ele>1593.82</ele>
  <time>2026-08-27T18:27:30Z</time>
  <course>11.39</course>
  <speed>0.03</speed>
  <fix>3d</fix>
</trkpt>
<trkpt lat="40.0728421" lon="-105.2305758">
  <ele>1593.84</ele>
  <time>2026-08-27T18:27:30Z</time>
  <course>18.82</course>
  <speed>0.02</speed>
  <fix>3d</fix>
</trkpt>
<trkpt lat="40.0728421" lon="-105.2305755">
  <ele>1593.71</ele>
  <time>2026-08-27T18:27:30Z</time>
  <course>11.38</course>
  <speed>0.03</speed>
  <fix>3d</fix>
</trkpt>
<trkpt lat="40.0728421" lon="-105.2305758">
  <ele>1593.74</ele>
  <time>2026-08-27T18:27:30Z</time>
  <course>25.29</course>
  <speed>0.02</speed>
  <fix>3d</fix>
</trkpt>
<trkpt lat="40.0728421" lon="-105.2305755">
  <ele>1593.61</ele>
  <time>2026-08-27T18:27:30Z</time>
  <course>11.39</course>
  <speed>0.03</speed>
  <fix>3d</fix>
</trkpt>
<trkpt lat="40.0728422" lon="-105.2305758">
  <ele>1593.63</ele>
  <time>2026-08-27T18:27:30Z</time>
  <course>30.01</course>
  <speed>0.02</speed>
  <fix>3d</fix>
</trkpt>
<trkpt lat="40.0728421" lon="-105.2305755">
  <ele>1593.51</ele>
  <time>2026-08-27T18:27:30Z</time>
  <course>11.37</course>
  <speed>0.03</speed>
  <fix>3d</fix>
</trkpt>
<trkpt lat="40.0728423" lon="-105.2305758">
  <ele>1593.54</ele>
  <time>2026-08-27T18:27:30Z</time>
  <course>34.41</course>
  <speed>0.02</speed>
  <fix>3d</fix>
</trkpt>
<trkpt lat="40.0728422" lon="-105.2305755">
  <ele>1593.41</ele>
  <time>2026-08-27T18:27:30Z</time>
  <course>11.39</course>
  <speed>0.03</speed>
  <fix>3d</fix>
</trkpt>
<trkpt lat="40.0728423" lon="-105.2305757">
  <ele>1593.44</ele>
  <time>2026-08-27T18:27:30Z</time>
  <course>38.28</course>
  <speed>0.02</speed>
  <fix>3d</fix>
</trkpt>
<trkpt lat="40.0728422" lon="-105.2305754">
  <ele>1593.31</ele>
  <time>2026-08-27T18:27:30Z</time>
  <course>11.37</course>
  <speed>0.03</speed>
  <fix>3d</fix>
</trkpt>
<trkpt lat="40.0728424" lon="-105.2305756">
  <ele>1593.34</ele>
  <time>2026-08-27T18:27:30Z</time>
  <course>41.93</course>
  <speed>0.02</speed>
  <fix>3d</fix>
</trkpt>
<trkpt lat="40.0728422" lon="-105.2305754">
  <ele>1593.21</ele>
  <time>2026-08-27T18:27:30Z</time>
  <course>11.37</course>
  <speed>0.03</speed>
  <fix>3d</fix>
</trkpt>
<trkpt lat="40.0728424" lon="-105.2305756">
  <ele>1593.24</ele>
  <time>2026-08-27T18:27:30Z</time>
  <course>46.56</course>
  <speed>0.02</speed>
  <fix>3d</fix>
</trkpt>
<trkpt lat="40.0728422" lon="-105.2305754">
  <ele>1593.11</ele>
  <time>2026-08-27T18:27:30Z</time>
  <course>11.4</course>
  <speed>0.0316227766016838</speed>
  <fix>3d</fix>
</trkpt>
<trkpt lat="40.0728424" lon="-105.2305756">
  <ele>1593.13</ele>
  <time>2026-08-27T18:27:30Z</time>
  <course>51.71</course>
  <speed>0.02</speed>
  <fix>3d</fix>
</trkpt>
<trkpt lat="40.0728423" lon="-105.2305753">
  <ele>1593.01</ele>
  <time>2026-08-27T18:27:30Z</time>
  <course>11.36</course>
  <speed>0.0316227766016838</speed>
  <fix>3d</fix>
</trkpt>
<trkpt lat="40.0728424" lon="-105.2305755">
  <ele>1593.04</ele>
  <time>2026-08-27T18:27:30Z</time>
  <course>57.73</course>
  <speed>0.02</speed>
  <fix>3d</fix>
</trkpt>
<trkpt lat="40.0728423" lon="-105.2305753">
  <ele>1592.91</ele>
  <time>2026-08-27T18:27:30Z</time>
  <course>11.36</course>
  <speed>0.0316227766016838</speed>
  <fix>3d</fix>
</trkpt>
<trkpt lat="40.0728425" lon="-105.2305755">
  <ele>1592.94</ele>
  <time>2026-08-27T18:27:30Z</time>
  <course>65.22</course>
  <speed>0.01</speed>
  <fix>3d</fix>
</trkpt>
<trkpt lat="40.0728423" lon="-105.2305753">
  <ele>1592.82</ele>
  <time>2026-08-27T18:27:30Z</time>
  <course>11.4</course>
  <speed>0.03605551275463989</speed>
  <fix>3d</fix>
</trkpt>
<trkpt lat="40.0728425" lon="-105.2305755">
  <ele>1592.85</ele>
  <time>2026-08-27T18:27:30Z</time>
  <course>74.48</course>
  <speed>0.01</speed>
  <fix>3d</fix>
</trkpt>
<trkpt lat="40.0728423" lon="-105.2305752">
  <ele>1592.72</ele>
  <time>2026-08-27T18:27:30Z</time>
  <course>11.39</course>
  <speed>0.0282842712474619</speed>
  <fix>3d</fix>
</trkpt>
<trkpt lat="40.0728425" lon="-105.2305754">
  <ele>1592.75</ele>
  <time>2026-08-27T18:27:30Z</time>
  <course>86.76</course>
  <speed>0.01</speed>
  <fix>3d</fix>
</trkpt>
<trkpt lat="40.0728423" lon="-105.2305752">
  <ele>1592.62</ele>
  <time>2026-08-27T18:27:30Z</time>
  <course>11.39</course>
  <speed>0.0282842712474619</speed>
  <fix>3d</fix>
</trkpt>
<trkpt lat="40.0728425" lon="-105.2305753">
  <ele>1592.64</ele>
  <time>2026-08-27T18:27:30Z</time>
  <course>101.98</course>
  <speed>0.01</speed>
  <fix>3d</fix>
</trkpt>
<trkpt lat="40.0728423" lon="-105.2305752">
  <ele>1592.52</ele>
  <time>2026-08-27T18:27:30Z</time>
  <course>11.4</course>
  <speed>0.0282842712474619</speed>
  <fix>3d</fix>
</trkpt>
<trkpt lat="40.0728425" lon="-105.2305753">
  <ele>1592.55</ele>
  <time>2026-08-27T18:27:30Z</time>
  <course>118.64</course>
  <speed>0.01</speed>
  <fix>3d</fix>
</trkpt>
<trkpt lat="40.0728423" lon="-105.2305752">
  <ele>1592.42</ele>
  <time>2026-08-27T18:27:30Z</time>
  <course>11.41</course>
  <speed>0.03605551275463989</speed>
  <fix>3d</fix>
</trkpt>
<trkpt lat="40.0728425" lon="-105.2305753">
  <ele>1592.45</ele>
  <time>2026-08-27T18:27:30Z</time>
  <course>134.85</course>
  <speed>0.01</speed>
  <fix>3d</fix>
</trkpt>
<trkpt lat="40.0728423" lon="-105.2305752">
  <ele>1592.33</ele>
  <time>2026-08-27T18:27:30Z</time>
  <course>11.41</course>
  <speed>0.03605551275463989</speed>
  <fix>3d</fix>
</trkpt>
<trkpt lat="40.0728425" lon="-105.2305753">
  <ele>1592.35</ele>
  <time>2026-08-27T18:27:30Z</time>
  <course>147.71</course>
  <speed>0.01</speed>
  <fix>3d</fix>
</trkpt>
<trkpt lat="40.0728423" lon="-105.2305752">
  <ele>1592.23</ele>
  <time>2026-08-27T18:27:30Z</time>
  <course>11.4</course>
  <speed>0.03605551275463989</speed>
  <fix>3d</fix>
</trkpt>
<trkpt lat="40.0728425" lon="-105.2305753">
  <ele>1592.24</ele>
  <time>2026-08-27T18:27:30Z</time>
  <course>159.87</course>
  <speed>0.01</speed>
  <fix>3d</fix>
</trkpt>
<trkpt lat="40.0728423" lon="-105.2305752">
  <ele>1592.12</ele>
  <time>2026-08-27T18:27:30Z</time>
  <course>11.4</course>
  <speed>0.0316227766016838</speed>
  <fix>3d</fix>
</trkpt>
<trkpt lat="40.0728425" lon="-105.2305753">
  <ele>1592.13</ele>
  <time>2026-08-27T18:27:30Z</time>
  <course>170.73</course>
  <speed>0.01</speed>
  <fix>3d</fix>
</trkpt>
<trkpt lat="40.0728423" lon="-105.2305751">
  <ele>1592.02</ele>
  <time>2026-08-27T18:27:30Z</time>
  <course>11.4</course>
  <speed>0.0316227766016838</speed>
  <fix>3d</fix>
</trkpt>
<trkpt lat="40.0728425" lon="-105.2305753">
  <ele>1592.04</ele>
  <time>2026-08-27T18:27:30Z</time>
  <course>179.27</course>
  <speed>0.01</speed>
  <fix>3d</fix>
</trkpt>
<trkpt lat="40.0728423" lon="-105.2305751">
  <ele>1591.92</ele>
  <time>2026-08-27T18:27:30Z</time>
  <course>11.38</course>
  <speed>0.0316227766016838</speed>
  <fix>3d</fix>
</trkpt>
<trkpt lat="40.0728424" lon="-105.2305753">
  <ele>1591.94</ele>
  <time>2026-08-27T18:27:30Z</time>
  <course>185.54</course>
  <speed>0.01</speed>
  <fix>3d</fix>
</trkpt>
<trkpt lat="40.0728423" lon="-105.2305751">
  <ele>1591.81</ele>
  <time>2026-08-27T18:27:30Z</time>
  <course>11.39</course>
  <speed>0.0316227766016838</speed>
  <fix>3d</fix>
</trkpt>
<trkpt lat="40.0728424" lon="-105.2305753">
  <ele>1591.84</ele>
  <time>2026-08-27T18:27:30Z</time>
  <course>191.01</course>
  <speed>0.01</speed>
  <fix>3d</fix>
</trkpt>
<trkpt lat="40.0728422" lon="-105.2305751">
  <ele>1591.71</ele>
  <time>2026-08-27T18:27:30Z</time>
  <course>11.37</course>
  <speed>0.0316227766016838</speed>
  <fix>3d</fix>
</trkpt>
<trkpt lat="40.0728424" lon="-105.2305753">
  <ele>1591.74</ele>
  <time>2026-08-27T18:27:30Z</time>
  <course>195.1</course>
  <speed>0.01</speed>
  <fix>3d</fix>
</trkpt>
<trkpt lat="40.0728422" lon="-105.2305751">
  <ele>1591.61</ele>
  <time>2026-08-27T18:27:30Z</time>
  <course>11.39</course>
  <speed>0.0316227766016838</speed>
  <fix>3d</fix>
</trkpt>
<trkpt lat="40.0728424" lon="-105.2305753">
  <ele>1591.63</ele>
  <time>2026-08-27T18:27:30Z</time>
  <course>197.94</course>
  <speed>0.01</speed>
  <fix>3d</fix>
</trkpt>
<trkpt lat="40.0728422" lon="-105.2305751">
  <ele>1591.51</ele>
  <time>2026-08-27T18:27:30Z</time>
  <course>11.37</course>
  <speed>0.022360679774997897</speed>
  <fix>3d</fix>
</trkpt>
<trkpt lat="40.0728423" lon="-105.2305753">
  <ele>1591.54</ele>
  <time>2026-08-27T18:27:30Z</time>
  <course>201.39</course>
  <speed>0.01</speed>
  <fix>3d</fix>
</trkpt>
<trkpt lat="40.0728422" lon="-105.2305751">
  <ele>1591.41</ele>
  <time>2026-08-27T18:27:30Z</time>
  <course>11.38</course>
  <speed>0.022360679774997897</speed>
  <fix>3d</fix>
</trkpt>
<trkpt lat="40.0728423" lon="-105.2305753">
  <ele>1591.44</ele>
  <time>2026-08-27T18:27:30Z</time>
  <course>206.04</course>
  <speed>0.01</speed>
  <fix>3d</fix>
</trkpt>
<trkpt lat="40.0728422" lon="-105.2305751">
  <ele>1591.31</ele>
  <time>2026-08-27T18:27:30Z</time>
  <course>11.37</course>
  <speed>0.022360679774997897</speed>
  <fix>3d</fix>
</trkpt>
<trkpt lat="40.0728423" lon="-105.2305753">
  <ele>1591.34</ele>
  <time>2026-08-27T18:27:30Z</time>
  <course>210.78</course>
  <speed>0.01</speed>
  <fix>3d</fix>
</trkpt>
<trkpt lat="40.0728422" lon="-105.2305751">
  <ele>1591.21</ele>
  <time>2026-08-27T18:27:30Z</time>
  <course>11.39</course>
  <speed>0.022360679774997897</speed>
  <fix>3d</fix>
</trkpt>
<trkpt lat="40.0728423" lon="-105.2305753">
  <ele>1591.24</ele>
  <time>2026-08-27T18:27:30Z</time>
  <course>215.67</course>
  <speed>0.01</speed>
  <fix>3d</fix>
</trkpt>
<trkpt lat="40.0728422" lon="-105.2305751">
  <ele>1591.12</ele>
  <time>2026-08-27T18:27:30Z</time>
  <course>11.37</course>
  <speed>0.022360679774997897</speed>
  <fix>3d</fix>
</trkpt>
<trkpt lat="40.0728423" lon="-105.2305753">
  <ele>1591.13</ele>
  <time>2026-08-27T18:27:30Z</time>
  <course>221.44</course>
  <speed>0.01</speed>
  <fix>3d</fix>
</trkpt>
<trkpt lat="40.0728422" lon="-105.2305751">
  <ele>1591.02</ele>
  <time>2026-08-27T18:27:30Z</time>
  <course>11.38</course>
  <speed>0.022360679774997897</speed>
  <fix>3d</fix>
</trkpt>
<trkpt lat="40.0728423" lon="-105.2305753">
  <ele>1591.04</ele>
  <time>2026-08-27T18:27:30Z</time>
  <course>227.83</course>
  <speed>0.0</speed>
  <fix>3d</fix>
</trkpt>
<trkpt lat="40.0728422" lon="-105.2305751">
  <ele>1590.92</ele>
  <time>2026-08-27T18:27:30Z</time>
  <course>11.39</course>
  <speed>0.022360679774997897</speed>
  <fix>3d</fix>
</trkpt>
<trkpt lat="40.0728423" lon="-105.2305753">
  <ele>1590.94</ele>
  <time>2026-08-27T18:27:30Z</time>
  <course>235.33</course>
  <speed>0.0</speed>
  <fix>3d</fix>
</trkpt>
<trkpt lat="40.0728422" lon="-105.2305751">
  <ele>1590.81</ele>
  <time>2026-08-27T18:27:30Z</time>
  <course>11.39</course>
  <speed>0.01414213562373095</speed>
  <fix>3d</fix>
</trkpt>
<trkpt lat="40.0728422" lon="-105.2305753">
  <ele>1590.84</ele>
  <time>2026-08-27T18:27:30Z</time>
  <course>242.29</course>
  <speed>0.0</speed>
  <fix>3d</fix>
</trkpt>
<trkpt lat="40.0728422" lon="-105.2305751">
  <ele>1590.71</ele>
  <time>2026-08-27T18:27:30Z</time>
  <course>11.39</course>
  <speed>0.01414213562373095</speed>
  <fix>3d</fix>
</trkpt>
<trkpt lat="40.0728421" lon="-105.2305753">
  <ele>1590.74</ele>
  <time>2026-08-27T18:27:30Z</time>
  <course>248.81</course>
  <speed>0.0</speed>
  <fix>3d</fix>
</trkpt>
<trkpt lat="40.0728421" lon="-105.2305752">
  <ele>1590.61</ele>
  <time>2026-08-27T18:27:30Z</time>
  <course>11.38</course>
  <speed>0.01414213562373095</speed>
  <fix>3d</fix>
</trkpt>
<trkpt lat="40.0728421" lon="-105.2305753">
  <ele>1590.63</ele>
  <time>2026-08-27T18:27:30Z</time>
  <course>256.0</course>
  <speed>0.0</speed>
  <fix>3d</fix>
</trkpt>
<trkpt lat="40.0728421" lon="-105.2305752">
  <ele>1590.51</ele>
  <time>2026-08-27T18:27:30Z</time>
  <course>11.38</course>
  <speed>0.01414213562373095</speed>
  <fix>3d</fix>
</trkpt>
<trkpt lat="40.0728421" lon="-105.2305753">
  <ele>1590.54</ele>
  <time>2026-08-27T18:27:30Z</time>
  <course>267.04</course>
  <speed>0.0</speed>
  <fix>3d</fix>
</trkpt>
<trkpt lat="40.0728421" lon="-105.2305752">
  <ele>1590.42</ele>
  <time>2026-08-27T18:27:30Z</time>
  <course>11.39</course>
  <speed>0.01414213562373095</speed>
  <fix>3d</fix>
</trkpt>
<trkpt lat="40.0728421" lon="-105.2305754">
  <ele>1590.44</ele>
  <time>2026-08-27T18:27:30Z</time>
  <course>282.31</course>
  <speed>0.0</speed>
  <fix>3d</fix>
</trkpt>
<trkpt lat="40.0728421" lon="-105.2305752">
  <ele>1590.32</ele>
  <time>2026-08-27T18:27:30Z</time>
  <course>11.39</course>
  <speed>0.01414213562373095</speed>
  <fix>3d</fix>
</trkpt>
<trkpt lat="40.0728421" lon="-105.2305755">
  <ele>1590.34</ele>
  <time>2026-08-27T18:27:30Z</time>
  <course>297.17</course>
  <speed>0.0</speed>
  <fix>3d</fix>
</trkpt>
<trkpt lat="40.0728421" lon="-105.2305752">
  <ele>1590.22</ele>
  <time>2026-08-27T18:27:30Z</time>
  <course>11.39</course>
  <speed>0.01414213562373095</speed>
  <fix>3d</fix>
</trkpt>
<trkpt lat="40.0728421" lon="-105.2305755">
  <ele>1590.24</ele>
  <time>2026-08-27T18:27:30Z</time>
  <course>309.19</course>
  <speed>0.0</speed>
  <fix>3d</fix>
</trkpt>
<trkpt lat="40.0728421" lon="-105.2305752">
  <ele>1590.12</ele>
  <time>2026-08-27T18:27:30Z</time>
  <course>11.38</course>
  <speed>0.01414213562373095</speed>
  <fix>3d</fix>
</trkpt>
<trkpt lat="40.0728421" lon="-105.2305755">
  <ele>1590.13</ele>
  <time>2026-08-27T18:27:30Z</time>
  <course>320.83</course>
  <speed>0.0</speed>
  <fix>3d</fix>
</trkpt>
<trkpt lat="40.0728421" lon="-105.2305753">
  <ele>1590.01</ele>
  <time>2026-08-27T18:27:30Z</time>
  <course>11.38</course>
  <speed>0.01414213562373095</speed>
  <fix>3d</fix>
</trkpt>
<trkpt lat="40.0728421" lon="-105.2305755">
  <ele>1590.04</ele>
  <time>2026-08-27T18:27:30Z</time>
  <course>332.37</course>
  <speed>0.0</speed>
  <fix>3d</fix>
</trkpt>
<trkpt lat="40.0728421" lon="-105.2305753">
  <ele>1589.91</ele>
  <time>2026-08-27T18:27:30Z</time>
  <course>11.38</course>
  <speed>0.01</speed>
  <fix>3d</fix>
</trkpt>
<trkpt lat="40.0728421" lon="-105.2305755">
  <ele>1589.94</ele>
  <time>2026-08-27T18:27:30Z</time>
  <course>342.4</course>
  <speed>0.01</speed>
  <fix>3d</fix>
</trkpt>
<trkpt lat="40.0728421" lon="-105.2305753">
  <ele>1589.81</ele>
  <time>2026-08-27T18:27:30Z</time>
  <course>11.37</course>
  <speed>0.01</speed>
  <fix>3d</fix>
</trkpt>
<trkpt lat="40.0728421" lon="-105.2305755">
  <ele>1589.84</ele>
  <time>2026-08-27T18:27:30Z</time>
  <course>351.61</course>
  <speed>0.01</speed>
  <fix>3d</fix>
</trkpt>
<trkpt lat="40.0728421" lon="-105.2305753">
  <ele>1589.71</ele>
  <time>2026-08-27T18:27:30Z</time>
  <course>11.36</course>
  <speed>0.02</speed>
  <fix>3d</fix>
</trkpt>
<trkpt lat="40.0728421" lon="-105.2305755">
  <ele>1589.74</ele>
  <time>2026-08-27T18:27:30Z</time>
  <course>357.05</course>
  <speed>0.01</speed>
  <fix>3d</fix>
</trkpt>
<trkpt lat="40.0728421" lon="-105.2305753">
  <ele>1589.61</ele>
  <time>2026-08-27T18:27:30Z</time>
  <course>11.37</course>
  <speed>0.02</speed>
  <fix>3d</fix>
</trkpt>
<trkpt lat="40.0728422" lon="-105.2305755">
  <ele>1589.63</ele>
  <time>2026-08-27T18:27:30Z</time>
  <course>0.17</course>
  <speed>0.01</speed>
  <fix>3d</fix>
</trkpt>
<trkpt lat="40.0728421" lon="-105.2305753">
  <ele>1589.51</ele>
  <time>2026-08-27T18:27:30Z</time>
  <course>11.39</course>
  <speed>0.02</speed>
  <fix>3d</fix>
</trkpt>
<trkpt lat="40.0728423" lon="-105.2305755">
  <ele>1589.54</ele>
  <time>2026-08-27T18:27:30Z</time>
  <course>3.87</course>
  <speed>0.01</speed>
  <fix>3d</fix>
</trkpt>
<trkpt lat="40.0728421" lon="-105.2305753">
  <ele>1589.41</ele>
  <time>2026-08-27T18:27:30Z</time>
  <course>11.37</course>
  <speed>0.02</speed>
  <fix>3d</fix>
</trkpt>
<trkpt lat="40.0728423" lon="-105.2305755">
  <ele>1589.44</ele>
  <time>2026-08-27T18:27:30Z</time>
  <course>7.28</course>
  <speed>0.01</speed>
  <fix>3d</fix>
</trkpt>
<trkpt lat="40.0728421" lon="-105.2305753">
  <ele>1589.31</ele>
  <time>2026-08-27T18:27:30Z</time>
  <course>11.39</course>
  <speed>0.02</speed>
  <fix>3d</fix>
</trkpt>
<trkpt lat="40.0728423" lon="-105.2305755">
  <ele>1589.34</ele>
  <time>2026-08-27T18:27:30Z</time>
  <course>8.57</course>
  <speed>0.01</speed>
  <fix>3d</fix>
</trkpt>
<trkpt lat="40.0728421" lon="-105.2305753">
  <ele>1589.22</ele>
  <time>2026-08-27T18:27:30Z</time>
  <course>11.38</course>
  <speed>0.022360679774997897</speed>
  <fix>3d</fix>
</trkpt>
<trkpt lat="40.0728423" lon="-105.2305755">
  <ele>1589.24</ele>
  <time>2026-08-27T18:27:30Z</time>
  <course>9.48</course>
  <speed>0.01</speed>
  <fix>3d</fix>
</trkpt>
<trkpt lat="40.0728422" lon="-105.2305753">
  <ele>1589.12</ele>
  <time>2026-08-27T18:27:30Z</time>
  <course>11.39</course>
  <speed>0.022360679774997897</speed>
  <fix>3d</fix>
</trkpt>
<trkpt lat="40.0728424" lon="-105.2305755">
  <ele>1589.14</ele>
  <time>2026-08-27T18:27:30Z</time>
  <course>12.25</course>
  <speed>0.01</speed>
  <fix>3d</fix>
</trkpt>
<trkpt lat="40.0728422" lon="-105.2305753">
  <ele>1589.02</ele>
  <time>2026-08-27T18:27:30Z</time>
  <course>11.39</course>
  <speed>0.022360679774997897</speed>
  <fix>3d</fix>
</trkpt>
<trkpt lat="40.0728424" lon="-105.2305755">
  <ele>1589.05</ele>
  <time>2026-08-27T18:27:30Z</time>
  <course>16.69</course>
  <speed>0.0</speed>
  <fix>3d</fix>
</trkpt>
<trkpt lat="40.0728422" lon="-105.2305753">
  <ele>1588.92</ele>
  <time>2026-08-27T18:27:30Z</time>
  <course>11.39</course>
  <speed>0.022360679774997897</speed>
  <fix>3d</fix>
</trkpt>
<trkpt lat="40.0728424" lon="-105.2305755">
  <ele>1588.95</ele>
  <time>2026-08-27T18:27:30Z</time>
  <course>24.34</course>
  <speed>0.0</speed>
  <fix>3d</fix>
</trkpt>
<trkpt lat="40.0728422" lon="-105.2305753">
  <ele>1588.82</ele>
  <time>2026-08-27T18:27:30Z</time>
  <course>11.38</course>
  <speed>0.022360679774997897</speed>
  <fix>3d</fix>
</trkpt>
<trkpt lat="40.0728424" lon="-105.2305755">
  <ele>1588.84</ele>
  <time>2026-08-27T18:27:30Z</time>
  <course>36.25</course>
  <speed>0.0</speed>
  <fix>3d</fix>
</trkpt>
<trkpt lat="40.0728422" lon="-105.2305753">
  <ele>1588.71</ele>
  <time>2026-08-27T18:27:30Z</time>
  <course>11.38</course>
  <speed>0.022360679774997897</speed>
  <fix>3d</fix>
</trkpt>
<trkpt lat="40.0728424" lon="-105.2305755">
  <ele>1588.74</ele>
  <time>2026-08-27T18:27:30Z</time>
  <course>55.56</course>
  <speed>0.0</speed>
  <fix>3d</fix>
</trkpt>
<trkpt lat="40.0728422" lon="-105.2305753">
  <ele>1588.61</ele>
  <time>2026-08-27T18:27:30Z</time>
  <course>11.39</course>
  <speed>0.0282842712474619</speed>
  <fix>3d</fix>
</trkpt>
<trkpt lat="40.0728424" lon="-105.2305755">
  <ele>1588.63</ele>
  <time>2026-08-27T18:27:30Z</time>
  <course>82.2</course>
  <speed>0.0</speed>
  <fix>3d</fix>
</trkpt>
<trkpt lat="40.0728422" lon="-105.2305753">
  <ele>1588.51</ele>
  <time>2026-08-27T18:27:30Z</time>
  <course>11.38</course>
  <speed>0.0282842712474619</speed>
  <fix>3d</fix>
</trkpt>
<trkpt lat="40.0728424" lon="-105.2305755">
  <ele>1588.54</ele>
  <time>2026-08-27T18:27:30Z</time>
  <course>107.07</course>
  <speed>0.0</speed>
  <fix>3d</fix>
</trkpt>
<trkpt lat="40.0728422" lon="-105.2305753">
  <ele>1588.42</ele>
  <time>2026-08-27T18:27:30Z</time>
  <course>11.38</course>
  <speed>0.0282842712474619</speed>
  <fix>3d</fix>
</trkpt>
<trkpt lat="40.0728424" lon="-105.2305755">
  <ele>1588.44</ele>
  <time>2026-08-27T18:27:30Z</time>
  <course>120.99</course>
  <speed>0.0</speed>
  <fix>3d</fix>
</trkpt>
<trkpt lat="40.0728422" lon="-105.2305753">
  <ele>1588.32</ele>
  <time>2026-08-27T18:27:30Z</time>
  <course>11.39</course>
  <speed>0.0282842712474619</speed>
  <fix>3d</fix>
</trkpt>
<trkpt lat="40.0728424" lon="-105.2305755">
  <ele>1588.34</ele>
  <time>2026-08-27T18:27:30Z</time>
  <course>128.58</course>
  <speed>0.0</speed>
  <fix>3d</fix>
</trkpt>
<trkpt lat="40.0728422" lon="-105.2305753">
  <ele>1588.22</ele>
  <time>2026-08-27T18:27:30Z</time>
  <course>11.39</course>
  <speed>0.0282842712474619</speed>
  <fix>3d</fix>
</trkpt>
<trkpt lat="40.0728424" lon="-105.2305755">
  <ele>1588.24</ele>
  <time>2026-08-27T18:27:30Z</time>
  <course>133.65</course>
  <speed>0.0</speed>
  <fix>3d</fix>
</trkpt>
<trkpt lat="40.0728422" lon="-105.2305753">
  <ele>1588.11</ele>
  <time>2026-08-27T18:27:30Z</time>
  <course>11.39</course>
  <speed>0.0282842712474619</speed>
  <fix>3d</fix>
</trkpt>
<trkpt lat="40.0728424" lon="-105.2305755">
  <ele>1588.13</ele>
  <time>2026-08-27T18:27:30Z</time>
  <course>138.46</course>
  <speed>0.0</speed>
  <fix>3d</fix>
</trkpt>
<trkpt lat="40.0728422" lon="-105.2305753">
  <ele>1588.01</ele>
  <time>2026-08-27T18:27:30Z</time>
  <course>11.38</course>
  <speed>0.0282842712474619</speed>
  <fix>3d</fix>
</trkpt>
<trkpt lat="40.0728424" lon="-105.2305755">
  <ele>1588.04</ele>
  <time>2026-08-27T18:27:30Z</time>
  <course>141.78</course>
  <speed>0.0</speed>
  <fix>3d</fix>
</trkpt>
<trkpt lat="40.0728422" lon="-105.2305753">
  <ele>1587.91</ele>
  <time>2026-08-27T18:27:30Z</time>
  <course>11.4</course>
  <speed>0.0282842712474619</speed>
  <fix>3d</fix>
</trkpt>
<trkpt lat="40.0728424" lon="-105.2305755">
  <ele>1587.94</ele>
  <time>2026-08-27T18:27:30Z</time>
  <course>144.18</course>
  <speed>0.0</speed>
  <fix>3d</fix>
</trkpt>
<trkpt lat="40.0728422" lon="-105.2305753">
  <ele>1587.82</ele>
  <time>2026-08-27T18:27:30Z</time>
  <course>11.37</course>
  <speed>0.0282842712474619</speed>
  <fix>3d</fix>
</trkpt>
<trkpt lat="40.0728424" lon="-105.2305755">
  <ele>1587.84</ele>
  <time>2026-08-27T18:27:30Z</time>
  <course>145.45</course>
  <speed>0.0</speed>
  <fix>3d</fix>
</trkpt>
<trkpt lat="40.0728422" lon="-105.2305753">
  <ele>1587.72</ele>
  <time>2026-08-27T18:27:30Z</time>
  <course>11.38</course>
  <speed>0.0282842712474619</speed>
  <fix>3d</fix>
</trkpt>
<trkpt lat="40.0728424" lon="-105.2305755">
  <ele>1587.74</ele>
  <time>2026-08-27T18:27:30Z</time>
  <course>146.5</course>
  <speed>0.0</speed>
  <fix>3d</fix>
</trkpt>
<trkpt lat="40.0728422" lon="-105.2305753">
  <ele>1587.62</ele>
  <time>2026-08-27T18:27:30Z</time>
  <course>11.39</course>
  <speed>0.0282842712474619</speed>
  <fix>3d</fix>
</trkpt>
<trkpt lat="40.0728424" lon="-105.2305754">
  <ele>1587.63</ele>
  <time>2026-08-27T18:27:30Z</time>
  <course>148.05</course>
  <speed>0.0</speed>
  <fix>3d</fix>
</trkpt>
<trkpt lat="40.0728422" lon="-105.2305753">
  <ele>1587.52</ele>
  <time>2026-08-27T18:27:30Z</time>
  <course>11.39</course>
  <speed>0.0282842712474619</speed>
  <fix>3d</fix>
</trkpt>
<trkpt lat="40.0728424" lon="-105.2305753">
  <ele>1587.54</ele>
  <time>2026-08-27T18:27:30Z</time>
  <course>148.7</course>
  <speed>0.0</speed>
  <fix>3d</fix>
</trkpt>
<trkpt lat="40.0728422" lon="-105.2305753">
  <ele>1587.42</ele>
  <time>2026-08-27T18:27:30Z</time>
  <course>11.38</course>
  <speed>0.0282842712474619</speed>
  <fix>3d</fix>
</trkpt>
<trkpt lat="40.0728424" lon="-105.2305753">
  <ele>1587.44</ele>
  <time>2026-08-27T18:27:30Z</time>
  <course>149.01</course>
  <speed>0.0</speed>
  <fix>3d</fix>
</trkpt>
<trkpt lat="40.0728422" lon="-105.2305752">
  <ele>1587.32</ele>
  <time>2026-08-27T18:27:30Z</time>
  <course>11.38</course>
  <speed>0.0282842712474619</speed>
  <fix>3d</fix>
</trkpt>
<trkpt lat="40.0728424" lon="-105.2305753">
  <ele>1587.34</ele>
  <time>2026-08-27T18:27:30Z</time>
  <course>150.33</course>
  <speed>0.0</speed>
  <fix>3d</fix>
</trkpt>
<trkpt lat="40.0728422" lon="-105.2305752">
  <ele>1587.22</ele>
  <time>2026-08-27T18:27:30Z</time>
  <course>11.4</course>
  <speed>0.022360679774997897</speed>
  <fix>3d</fix>
</trkpt>
<trkpt lat="40.0728424" lon="-105.2305753">
  <ele>1587.24</ele>
  <time>2026-08-27T18:27:30Z</time>
  <course>154.05</course>
  <speed>0.0</speed>
  <fix>3d</fix>
</trkpt>
<trkpt lat="40.0728422" lon="-105.2305752">
  <ele>1587.12</ele>
  <time>2026-08-27T18:27:30Z</time>
  <course>11.4</course>
  <speed>0.022360679774997897</speed>
  <fix>3d</fix>
</trkpt>
<trkpt lat="40.0728424" lon="-105.2305753">
  <ele>1587.13</ele>
  <time>2026-08-27T18:27:30Z</time>
  <course>159.96</course>
  <speed>0.0</speed>
  <fix>3d</fix>
</trkpt>
<trkpt lat="40.0728422" lon="-105.2305752">
  <ele>1587.02</ele>
  <time>2026-08-27T18:27:30Z</time>
  <course>11.39</course>
  <speed>0.022360679774997897</speed>
  <fix>3d</fix>
</trkpt>
<trkpt lat="40.0728424" lon="-105.2305753">
  <ele>1587.04</ele>
  <time>2026-08-27T18:27:30Z</time>
  <course>166.92</course>
  <speed>0.0</speed>
  <fix>3d</fix>
</trkpt>
<trkpt lat="40.0728422" lon="-105.2305752">
  <ele>1586.92</ele>
  <time>2026-08-27T18:27:30Z</time>
  <course>11.38</course>
  <speed>0.022360679774997897</speed>
  <fix>3d</fix>
</trkpt>
<trkpt lat="40.0728423" lon="-105.2305753">
  <ele>1586.94</ele>
  <time>2026-08-27T18:27:30Z</time>
  <course>173.69</course>
  <speed>0.0</speed>
  <fix>3d</fix>
</trkpt>
<trkpt lat="40.0728422" lon="-105.2305752">
  <ele>1586.82</ele>
  <time>2026-08-27T18:27:30Z</time>
  <course>11.39</course>
  <speed>0.022360679774997897</speed>
  <fix>3d</fix>
</trkpt>
<trkpt lat="40.0728423" lon="-105.2305753">
  <ele>1586.84</ele>
  <time>2026-08-27T18:27:30Z</time>
  <course>182.73</course>
  <speed>0.0</speed>
  <fix>3d</fix>
</trkpt>
<trkpt lat="40.0728422" lon="-105.2305752">
  <ele>1586.71</ele>
  <time>2026-08-27T18:27:30Z</time>
  <course>11.38</course>
  <speed>0.022360679774997897</speed>
  <fix>3d</fix>
</trkpt>
<trkpt lat="40.0728423" lon="-105.2305753">
  <ele>1586.74</ele>
  <time>2026-08-27T18:27:30Z</time>
  <course>190.27</course>
  <speed>0.0</speed>
  <fix>3d</fix>
</trkpt>
<trkpt lat="40.0728422" lon="-105.2305752">
  <ele>1586.61</ele>
  <time>2026-08-27T18:27:31Z</time>
  <course>11.37</course>
  <speed>0.022360679774997897</speed>
  <fix>3d</fix>
</trkpt>
<trkpt lat="40.0728423" lon="-105.2305753">
  <ele>1586.63</ele>
  <time>2026-08-27T18:27:31Z</time>
  <course>195.63</course>
  <speed>0.0</speed>
  <fix>3d</fix>
</trkpt>
<trkpt lat="40.0728422" lon="-105.2305752">
  <ele>1586.51</ele>
  <time>2026-08-27T18:27:31Z</time>
  <course>11.38</course>
  <speed>0.022360679774997897</speed>
  <fix>3d</fix>
</trkpt>
<trkpt lat="40.0728423" lon="-105.2305753">
  <ele>1586.53</ele>
  <time>2026-08-27T18:27:31Z</time>
  <course>204.04</course>
  <speed>0.0</speed>
  <fix>3d</fix>
</trkpt>
<trkpt lat="40.0728422" lon="-105.2305752">
  <ele>1586.41</ele>
  <time>2026-08-27T18:27:31Z</time>
  <course>11.38</course>
  <speed>0.01414213562373095</speed>
  <fix>3d</fix>
</trkpt>
<trkpt lat="40.0728423" lon="-105.2305753">
  <ele>1586.43</ele>
  <time>2026-08-27T18:27:31Z</time>
  <course>214.87</course>
  <speed>0.0</speed>
  <fix>3d</fix>
</trkpt>
<trkpt lat="40.0728422" lon="-105.2305752">
  <ele>1586.31</ele>
  <time>2026-08-27T18:27:31Z</time>
  <course>11.34</course>
  <speed>0.01414213562373095</speed>
  <fix>3d</fix>
</trkpt>
<trkpt lat="40.0728423" lon="-105.2305753">
  <ele>1586.34</ele>
  <time>2026-08-27T18:27:31Z</time>
  <course>223.97</course>
  <speed>0.0</speed>
  <fix>3d</fix>
</trkpt>
<trkpt lat="40.0728422" lon="-105.2305752">
  <ele>1586.21</ele>
  <time>2026-08-27T18:27:31Z</time>
  <course>11.36</course>
  <speed>0.01414213562373095</speed>
  <fix>3d</fix>
</trkpt>
<trkpt lat="40.0728423" lon="-105.2305753">
  <ele>1586.24</ele>
  <time>2026-08-27T18:27:31Z</time>
  <course>233.38</course>
  <speed>0.0</speed>
  <fix>3d</fix>
</trkpt>
<trkpt lat="40.0728422" lon="-105.2305752">
  <ele>1586.14</ele>
  <time>2026-08-27T18:27:31Z</time>
  <course>11.38</course>
  <speed>0.01</speed>
  <fix>3d</fix>
</trkpt>
<trkpt lat="40.0728423" lon="-105.2305753">
  <ele>1586.13</ele>
  <time>2026-08-27T18:27:31Z</time>
  <course>255.52</course>
  <speed>0.0</speed>
  <fix>3d</fix>
</trkpt>
<trkpt lat="40.0728422" lon="-105.2305752">
  <ele>1586.15</ele>
  <time>2026-08-27T18:27:31Z</time>
  <course>11.43</course>
  <speed>0.01414213562373095</speed>
  <fix>3d</fix>
</trkpt>
<trkpt lat="40.0728423" lon="-105.2305753">
  <ele>1586.08</ele>
  <time>2026-08-27T18:27:31Z</time>
  <course>280.14</course>
  <speed>0.01</speed>
  <fix>3d</fix>
</trkpt>
<trkpt lat="40.0728422" lon="-105.2305752">
  <ele>1586.15</ele>
  <time>2026-08-27T18:27:31Z</time>
  <course>11.48</course>
  <speed>0.022360679774997897</speed>
  <fix>3d</fix>
</trkpt>
<trkpt lat="40.0728423" lon="-105.2305753">
  <ele>1586.08</ele>
  <time>2026-08-27T18:27:31Z</time>
  <course>304.64</course>
  <speed>0.0</speed>
  <fix>3d</fix>
</trkpt>
<trkpt lat="40.0728422" lon="-105.2305752">
  <ele>1586.15</ele>
  <time>2026-08-27T18:27:31Z</time>
  <course>11.51</course>
  <speed>0.022360679774997897</speed>
  <fix>3d</fix>
</trkpt>
<trkpt lat="40.0728423" lon="-105.2305753">
  <ele>1586.1</ele>
  <time>2026-08-27T18:27:31Z</time>
  <course>84.32</course>
  <speed>0.0</speed>
  <fix>3d</fix>
</trkpt>
<trkpt lat="40.0728422" lon="-105.2305752">
  <ele>1586.14</ele>
  <time>2026-08-27T18:27:31Z</time>
  <course>11.55</course>
  <speed>0.022360679774997897</speed>
  <fix>3d</fix>
</trkpt>
<trkpt lat="40.0728423" lon="-105.2305753">
  <ele>1586.09</ele>
  <time>2026-08-27T18:27:31Z</time>
  <course>120.16</course>
  <speed>0.0</speed>
  <fix>3d</fix>
</trkpt>
<trkpt lat="40.0728422" lon="-105.2305752">
  <ele>1586.15</ele>
  <time>2026-08-27T18:27:31Z</time>
  <course>11.58</course>
  <speed>0.022360679774997897</speed>
  <fix>3d</fix>
</trkpt>
<trkpt lat="40.0728423" lon="-105.2305753">
  <ele>1586.09</ele>
  <time>2026-08-27T18:27:31Z</time>
  <course>318.96</course>
  <speed>0.0</speed>
  <fix>3d</fix>
</trkpt>
<trkpt lat="40.0728422" lon="-105.2305752">
  <ele>1586.15</ele>
  <time>2026-08-27T18:27:31Z</time>
  <course>11.61</course>
  <speed>0.022360679774997897</speed>
  <fix>3d</fix>
</trkpt>
<trkpt lat="40.0728423" lon="-105.2305753">
  <ele>1586.09</ele>
  <time>2026-08-27T18:27:31Z</time>
  <course>26.08</course>
  <speed>0.0</speed>
  <fix>3d</fix>
</trkpt>
<trkpt lat="40.0728422" lon="-105.2305752">
  <ele>1586.15</ele>
  <time>2026-08-27T18:27:31Z</time>
  <course>11.63</course>
  <speed>0.022360679774997897</speed>
  <fix>3d</fix>
</trkpt>
<trkpt lat="40.0728423" lon="-105.2305753">
  <ele>1586.09</ele>
  <time>2026-08-27T18:27:31Z</time>
  <course>14.77</course>
  <speed>0.0</speed>
  <fix>3d</fix>
</trkpt>
<trkpt lat="40.0728422" lon="-105.2305752">
  <ele>1586.15</ele>
  <time>2026-08-27T18:27:31Z</time>
  <course>11.66</course>
  <speed>0.022360679774997897</speed>
  <fix>3d</fix>
</trkpt>
<trkpt lat="40.0728423" lon="-105.2305753">
  <ele>1586.09</ele>
  <time>2026-08-27T18:27:31Z</time>
  <course>327.88</course>
  <speed>0.0</speed>
  <fix>3d</fix>
</trkpt>
<trkpt lat="40.0728422" lon="-105.2305752">
  <ele>1586.15</ele>
  <time>2026-08-27T18:27:31Z</time>
  <course>11.68</course>
  <speed>0.022360679774997897</speed>
  <fix>3d</fix>
</trkpt>
<trkpt lat="40.0728423" lon="-105.2305753">
  <ele>1586.09</ele>
  <time>2026-08-27T18:27:31Z</time>
  <course>8.37</course>
  <speed>0.0</speed>
  <fix>3d</fix>
</trkpt>
<trkpt lat="40.0728422" lon="-105.2305751">
  <ele>1586.16</ele>
  <time>2026-08-27T18:27:31Z</time>
  <course>11.68</course>
  <speed>0.044721359549995794</speed>
  <fix>3d</fix>
</trkpt>
<trkpt lat="40.0728423" lon="-105.2305753">
  <ele>1586.09</ele>
  <time>2026-08-27T18:27:31Z</time>
  <course>98.86</course>
  <speed>0.0</speed>
  <fix>3d</fix>
</trkpt>
<trkpt lat="40.0728422" lon="-105.2305751">
  <ele>1586.16</ele>
  <time>2026-08-27T18:27:31Z</time>
  <course>11.64</course>
  <speed>0.0282842712474619</speed>
  <fix>3d</fix>
</trkpt>
<trkpt lat="40.0728423" lon="-105.2305753">
  <ele>1586.09</ele>
  <time>2026-08-27T18:27:31Z</time>
  <course>101.24</course>
  <speed>0.01</speed>
  <fix>3d</fix>
</trkpt>
<trkpt lat="40.0728422" lon="-105.2305751">
  <ele>1586.16</ele>
  <time>2026-08-27T18:27:31Z</time>
  <course>11.6</course>
  <speed>0.01414213562373095</speed>
  <fix>3d</fix>
</trkpt>
<trkpt lat="40.0728423" lon="-105.2305753">
  <ele>1586.09</ele>
  <time>2026-08-27T18:27:31Z</time>
  <course>117.97</course>
  <speed>0.0</speed>
  <fix>3d</fix>
</trkpt>
<trkpt lat="40.0728422" lon="-105.2305751">
  <ele>1586.16</ele>
  <time>2026-08-27T18:27:31Z</time>
  <course>11.58</course>
  <speed>0.022360679774997897</speed>
  <fix>3d</fix>
</trkpt>
<trkpt lat="40.0728423" lon="-105.2305753">
  <ele>1586.09</ele>
  <time>2026-08-27T18:27:31Z</time>
  <course>266.08</course>
  <speed>0.0</speed>
  <fix>3d</fix>
</trkpt>
<trkpt lat="40.0728422" lon="-105.2305751">
  <ele>1586.17</ele>
  <time>2026-08-27T18:27:31Z</time>
  <course>11.57</course>
  <speed>0.0282842712474619</speed>
  <fix>3d</fix>
</trkpt>
<trkpt lat="40.0728423" lon="-105.2305753">
  <ele>1586.09</ele>
  <time>2026-08-27T18:27:31Z</time>
  <course>249.07</course>
  <speed>0.0</speed>
  <fix>3d</fix>
</trkpt>
<trkpt lat="40.0728422" lon="-105.2305751">
  <ele>1586.17</ele>
  <time>2026-08-27T18:27:31Z</time>
  <course>11.57</course>
  <speed>0.0282842712474619</speed>
  <fix>3d</fix>
</trkpt>
<trkpt lat="40.0728423" lon="-105.2305753">
  <ele>1586.09</ele>
  <time>2026-08-27T18:27:31Z</time>
  <course>218.92</course>
  <speed>0.0</speed>
  <fix>3d</fix>
</trkpt>
<trkpt lat="40.0728422" lon="-105.2305751">
  <ele>1586.17</ele>
  <time>2026-08-27T18:27:31Z</time>
  <course>11.57</course>
  <speed>0.0282842712474619</speed>
  <fix>3d</fix>
</trkpt>
<trkpt lat="40.0728423" lon="-105.2305753">
  <ele>1586.09</ele>
  <time>2026-08-27T18:27:31Z</time>
  <course>238.78</course>
  <speed>0.0</speed>
  <fix>3d</fix>
</trkpt>
<trkpt lat="40.0728422" lon="-105.2305751">
  <ele>1586.17</ele>
  <time>2026-08-27T18:27:31Z</time>
  <course>11.57</course>
  <speed>0.0282842712474619</speed>
  <fix>3d</fix>
</trkpt>
<trkpt lat="40.0728423" lon="-105.2305753">
  <ele>1586.09</ele>
  <time>2026-08-27T18:27:31Z</time>
  <course>240.59</course>
  <speed>0.0</speed>
  <fix>3d</fix>
</trkpt>
<trkpt lat="40.0728422" lon="-105.2305751">
  <ele>1586.17</ele>
  <time>2026-08-27T18:27:31Z</time>
  <course>11.57</course>
  <speed>0.0282842712474619</speed>
  <fix>3d</fix>
</trkpt>
<trkpt lat="40.0728423" lon="-105.2305753">
  <ele>1586.09</ele>
  <time>2026-08-27T18:27:31Z</time>
  <course>216.06</course>
  <speed>0.0</speed>
  <fix>3d</fix>
</trkpt>
<trkpt lat="40.0728422" lon="-105.2305751">
  <ele>1586.17</ele>
  <time>2026-08-27T18:27:31Z</time>
  <course>11.57</course>
  <speed>0.0282842712474619</speed>
  <fix>3d</fix>
</trkpt>
<trkpt lat="40.0728423" lon="-105.2305753">
  <ele>1586.09</ele>
  <time>2026-08-27T18:27:31Z</time>
  <course>116.25</course>
  <speed>0.0</speed>
  <fix>3d</fix>
</trkpt>
<trkpt lat="40.0728422" lon="-105.2305751">
  <ele>1586.17</ele>
  <time>2026-08-27T18:27:31Z</time>
  <course>11.57</course>
  <speed>0.0282842712474619</speed>
  <fix>3d</fix>
</trkpt>
<trkpt lat="40.0728423" lon="-105.2305753">
  <ele>1586.09</ele>
  <time>2026-08-27T18:27:31Z</time>
  <course>26.95</course>
  <speed>0.0</speed>
  <fix>3d</fix>
</trkpt>
<trkpt lat="40.0728422" lon="-105.2305751">
  <ele>1586.17</ele>
  <time>2026-08-27T18:27:31Z</time>
  <course>11.57</course>
  <speed>0.022360679774997897</speed>
  <fix>3d</fix>
</trkpt>
<trkpt lat="40.0728423" lon="-105.2305753">
  <ele>1586.09</ele>
  <time>2026-08-27T18:27:31Z</time>
  <course>272.37</course>
  <speed>0.0</speed>
  <fix>3d</fix>
</trkpt>
<trkpt lat="40.0728422" lon="-105.2305751">
  <ele>1586.17</ele>
  <time>2026-08-27T18:27:31Z</time>
  <course>11.56</course>
  <speed>0.022360679774997897</speed>
  <fix>3d</fix>
</trkpt>
<trkpt lat="40.0728423" lon="-105.2305753">
  <ele>1586.09</ele>
  <time>2026-08-27T18:27:31Z</time>
  <course>260.07</course>
  <speed>0.0</speed>
  <fix>3d</fix>
</trkpt>
<trkpt lat="40.0728422" lon="-105.2305751">
  <ele>1586.17</ele>
  <time>2026-08-27T18:27:31Z</time>
  <course>11.56</course>
  <speed>0.022360679774997897</speed>
  <fix>3d</fix>
</trkpt>
<trkpt lat="40.0728423" lon="-105.2305753">
  <ele>1586.09</ele>
  <time>2026-08-27T18:27:31Z</time>
  <course>280.38</course>
  <speed>0.0</speed>
  <fix>3d</fix>
</trkpt>
<trkpt lat="40.0728422" lon="-105.2305751">
  <ele>1586.17</ele>
  <time>2026-08-27T18:27:31Z</time>
  <course>11.56</course>
  <speed>0.022360679774997897</speed>
  <fix>3d</fix>
</trkpt>
<trkpt lat="40.0728423" lon="-105.2305753">
  <ele>1586.09</ele>
  <time>2026-08-27T18:27:31Z</time>
  <course>278.55</course>
  <speed>0.0</speed>
  <fix>3d</fix>
</trkpt>
<trkpt lat="40.0728422" lon="-105.2305751">
  <ele>1586.17</ele>
  <time>2026-08-27T18:27:31Z</time>
  <course>11.56</course>
  <speed>0.022360679774997897</speed>
  <fix>3d</fix>
</trkpt>
<trkpt lat="40.0728423" lon="-105.2305753">
  <ele>1586.09</ele>
  <time>2026-08-27T18:27:31Z</time>
  <course>275.68</course>
  <speed>0.0</speed>
  <fix>3d</fix>
</trkpt>
<trkpt lat="40.0728422" lon="-105.2305751">
  <ele>1586.17</ele>
  <time>2026-08-27T18:27:31Z</time>
  <course>11.56</course>
  <speed>0.022360679774997897</speed>
  <fix>3d</fix>
</trkpt>
<trkpt lat="40.0728423" lon="-105.2305753">
  <ele>1586.09</ele>
  <time>2026-08-27T18:27:31Z</time>
  <course>276.17</course>
  <speed>0.0</speed>
  <fix>3d</fix>
</trkpt>
<trkpt lat="40.0728422" lon="-105.2305751">
  <ele>1586.17</ele>
  <time>2026-08-27T18:27:31Z</time>
  <course>11.56</course>
  <speed>0.022360679774997897</speed>
  <fix>3d</fix>
</trkpt>
<trkpt lat="40.0728423" lon="-105.2305753">
  <ele>1586.09</ele>
  <time>2026-08-27T18:27:31Z</time>
  <course>276.5</course>
  <speed>0.0</speed>
  <fix>3d</fix>
</trkpt>
<trkpt lat="40.0728422" lon="-105.2305751">
  <ele>1586.17</ele>
  <time>2026-08-27T18:27:31Z</time>
  <course>11.56</course>
  <speed>0.022360679774997897</speed>
  <fix>3d</fix>
</trkpt>
<trkpt lat="40.0728423" lon="-105.2305753">
  <ele>1586.09</ele>
  <time>2026-08-27T18:27:31Z</time>
  <course>276.39</course>
  <speed>0.0</speed>
  <fix>3d</fix>
</trkpt>
<trkpt lat="40.0728422" lon="-105.2305752">
  <ele>1586.17</ele>
  <time>2026-08-27T18:27:31Z</time>
  <course>11.55</course>
  <speed>0.022360679774997897</speed>
  <fix>3d</fix>
</trkpt>
<trkpt lat="40.0728423" lon="-105.2305753">
  <ele>1586.09</ele>
  <time>2026-08-27T18:27:31Z</time>
  <course>276.36</course>
  <speed>0.0</speed>
  <fix>3d</fix>
</trkpt>
<trkpt lat="40.0728422" lon="-105.2305752">
  <ele>1586.17</ele>
  <time>2026-08-27T18:27:31Z</time>
  <course>11.55</course>
  <speed>0.022360679774997897</speed>
  <fix>3d</fix>
</trkpt>
<trkpt lat="40.0728423" lon="-105.2305753">
  <ele>1586.09</ele>
  <time>2026-08-27T18:27:31Z</time>
  <course>276.38</course>
  <speed>0.0</speed>
  <fix>3d</fix>
</trkpt>
<trkpt lat="40.0728422" lon="-105.2305752">
  <ele>1586.17</ele>
  <time>2026-08-27T18:27:31Z</time>
  <course>11.55</course>
  <speed>0.022360679774997897</speed>
  <fix>3d</fix>
</trkpt>
<trkpt lat="40.0728423" lon="-105.2305753">
  <ele>1586.09</ele>
  <time>2026-08-27T18:27:31Z</time>
  <course>276.38</course>
  <speed>0.0</speed>
  <fix>3d</fix>
</trkpt>
<trkpt lat="40.0728422" lon="-105.2305752">
  <ele>1586.18</ele>
  <time>2026-08-27T18:27:31Z</time>
  <course>11.55</course>
  <speed>0.022360679774997897</speed>
  <fix>3d</fix>
</trkpt>
<trkpt lat="40.0728423" lon="-105.2305753">
  <ele>1586.09</ele>
  <time>2026-08-27T18:27:31Z</time>
  <course>276.37</course>
  <speed>0.0</speed>
  <fix>3d</fix>
</trkpt>
<trkpt lat="40.0728422" lon="-105.2305752">
  <ele>1586.18</ele>
  <time>2026-08-27T18:27:31Z</time>
  <course>11.55</course>
  <speed>0.022360679774997897</speed>
  <fix>3d</fix>
</trkpt>
<trkpt lat="40.0728423" lon="-105.2305753">
  <ele>1586.09</ele>
  <time>2026-08-27T18:27:31Z</time>
  <course>276.37</course>
  <speed>0.0</speed>
  <fix>3d</fix>
</trkpt>
<trkpt lat="40.0728422" lon="-105.2305752">
  <ele>1586.18</ele>
  <time>2026-08-27T18:27:31Z</time>
  <course>11.55</course>
  <speed>0.022360679774997897</speed>
  <fix>3d</fix>
</trkpt>
<trkpt lat="40.0728423" lon="-105.2305753">
  <ele>1586.09</ele>
  <time>2026-08-27T18:27:31Z</time>
  <course>276.37</course>
  <speed>0.0</speed>
  <fix>3d</fix>
</trkpt>
<trkpt lat="40.0728422" lon="-105.2305752">
  <ele>1586.18</ele>
  <time>2026-08-27T18:27:31Z</time>
  <course>11.55</course>
  <speed>0.022360679774997897</speed>
  <fix>3d</fix>
</trkpt>
<trkpt lat="40.0728423" lon="-105.2305753">
  <ele>1586.09</ele>
  <time>2026-08-27T18:27:31Z</time>
  <course>276.37</course>
  <speed>0.0</speed>
  <fix>3d</fix>
</trkpt>
<trkpt lat="40.0728422" lon="-105.2305752">
  <ele>1586.18</ele>
  <time>2026-08-27T18:27:31Z</time>
  <course>11.55</course>
  <speed>0.022360679774997897</speed>
  <fix>3d</fix>
</trkpt>
<trkpt lat="40.0728423" lon="-105.2305753">
  <ele>1586.09</ele>
  <time>2026-08-27T18:27:31Z</time>
  <course>276.37</course>
  <speed>0.0</speed>
  <fix>3d</fix>
</trkpt>
<trkpt lat="40.0728422" lon="-105.2305752">
  <ele>1586.17</ele>
  <time>2026-08-27T18:27:31Z</time>
  <course>11.54</course>
  <speed>0.022360679774997897</speed>
  <fix>3d</fix>
</trkpt>
<trkpt lat="40.0728423" lon="-105.2305753">
  <ele>1586.09</ele>
  <time>2026-08-27T18:27:31Z</time>
  <course>276.37</course>
  <speed>0.0</speed>
  <fix>3d</fix>
</trkpt>
<trkpt lat="40.0728422" lon="-105.2305752">
  <ele>1586.17</ele>
  <time>2026-08-27T18:27:31Z</time>
  <course>11.54</course>
  <speed>0.022360679774997897</speed>
  <fix>3d</fix>
</trkpt>
<trkpt lat="40.0728423" lon="-105.2305753">
  <ele>1586.09</ele>
  <time>2026-08-27T18:27:31Z</time>
  <course>276.37</course>
  <speed>0.0</speed>
  <fix>3d</fix>
</trkpt>
<trkpt lat="40.0728422" lon="-105.2305752">
  <ele>1586.17</ele>
  <time>2026-08-27T18:27:31Z</time>
  <course>11.54</course>
  <speed>0.022360679774997897</speed>
  <fix>3d</fix>
</trkpt>
<trkpt lat="40.0728423" lon="-105.2305753">
  <ele>1586.09</ele>
  <time>2026-08-27T18:27:31Z</time>
  <course>276.37</course>
  <speed>0.0</speed>
  <fix>3d</fix>
</trkpt>
<trkpt lat="40.0728422" lon="-105.2305752">
  <ele>1586.17</ele>
  <time>2026-08-27T18:27:31Z</time>
  <course>11.54</course>
  <speed>0.022360679774997897</speed>
  <fix>3d</fix>
</trkpt>
<trkpt lat="40.0728423" lon="-105.2305753">
  <ele>1586.09</ele>
  <time>2026-08-27T18:27:31Z</time>
  <course>276.37</course>
  <speed>0.0</speed>
  <fix>3d</fix>
</trkpt>
<trkpt lat="40.0728422" lon="-105.2305752">
  <ele>1586.17</ele>
  <time>2026-08-27T18:27:31Z</time>
  <course>11.54</course>
  <speed>0.022360679774997897</speed>
  <fix>3d</fix>
</trkpt>
<trkpt lat="40.0728423" lon="-105.2305753">
  <ele>1586.09</ele>
  <time>2026-08-27T18:27:31Z</time>
  <course>276.37</course>
  <speed>0.0</speed>
  <fix>3d</fix>
</trkpt>
<trkpt lat="40.0728422" lon="-105.2305752">
  <ele>1586.17</ele>
  <time>2026-08-27T18:27:31Z</time>
  <course>11.54</course>
  <speed>0.022360679774997897</speed>
  <fix>3d</fix>
</trkpt>
<trkpt lat="40.0728423" lon="-105.2305753">
  <ele>1586.09</ele>
  <time>2026-08-27T18:27:31Z</time>
  <course>276.37</course>
  <speed>0.0</speed>
  <fix>3d</fix>
</trkpt>
<trkpt lat="40.0728422" lon="-105.2305752">
  <ele>1586.18</ele>
  <time>2026-08-27T18:27:31Z</time>
  <course>11.54</course>
  <speed>0.022360679774997897</speed>
  <fix>3d</fix>
</trkpt>
<trkpt lat="40.0728423" lon="-105.2305753">
  <ele>1586.09</ele>
  <time>2026-08-27T18:27:31Z</time>
  <course>276.37</course>
  <speed>0.0</speed>
  <fix>3d</fix>
</trkpt>
<trkpt lat="40.0728422" lon="-105.2305752">
  <ele>1586.18</ele>
  <time>2026-08-27T18:27:31Z</time>
  <course>11.53</course>
  <speed>0.022360679774997897</speed>
  <fix>3d</fix>
</trkpt>
<trkpt lat="40.0728423" lon="-105.2305753">
  <ele>1586.09</ele>
  <time>2026-08-27T18:27:31Z</time>
  <course>276.37</course>
  <speed>0.0</speed>
  <fix>3d</fix>
</trkpt>
<trkpt lat="40.0728422" lon="-105.2305752">
  <ele>1586.18</ele>
  <time>2026-08-27T18:27:31Z</time>
  <course>11.53</course>
  <speed>0.022360679774997897</speed>
  <fix>3d</fix>
</trkpt>
<trkpt lat="40.0728423" lon="-105.2305753">
  <ele>1586.09</ele>
  <time>2026-08-27T18:27:31Z</time>
  <course>276.37</course>
  <speed>0.0</speed>
  <fix>3d</fix>
</trkpt>
<trkpt lat="40.0728422" lon="-105.2305752">
  <ele>1586.18</ele>
  <time>2026-08-27T18:27:31Z</time>
  <course>11.53</course>
  <speed>0.022360679774997897</speed>
  <fix>3d</fix>
</trkpt>
<trkpt lat="40.0728423" lon="-105.2305753">
  <ele>1586.09</ele>
  <time>2026-08-27T18:27:31Z</time>
  <course>276.37</course>
  <speed>0.0</speed>
  <fix>3d</fix>
</trkpt>
<trkpt lat="40.0728422" lon="-105.2305752">
  <ele>1586.18</ele>
  <time>2026-08-27T18:27:31Z</time>
  <course>11.53</course>
  <speed>0.022360679774997897</speed>
  <fix>3d</fix>
</trkpt>
<trkpt lat="40.0728423" lon="-105.2305753">
  <ele>1586.09</ele>
  <time>2026-08-27T18:27:31Z</time>
  <course>276.37</course>
  <speed>0.0</speed>
  <fix>3d</fix>
</trkpt>
<trkpt lat="40.0728422" lon="-105.2305752">
  <ele>1586.18</ele>
  <time>2026-08-27T18:27:31Z</time>
  <course>11.53</course>
  <speed>0.022360679774997897</speed>
  <fix>3d</fix>
</trkpt>
<trkpt lat="40.0728423" lon="-105.2305753">
  <ele>1586.09</ele>
  <time>2026-08-27T18:27:31Z</time>
  <course>276.37</course>
  <speed>0.0</speed>
  <fix>3d</fix>
</trkpt>
<trkpt lat="40.0728422" lon="-105.2305752">
  <ele>1586.18</ele>
  <time>2026-08-27T18:27:31Z</time>
  <course>11.53</course>
  <speed>0.022360679774997897</speed>
  <fix>3d</fix>
</trkpt>
<trkpt lat="40.0728423" lon="-105.2305753">
  <ele>1586.09</ele>
  <time>2026-08-27T18:27:31Z</time>
  <course>276.37</course>
  <speed>0.0</speed>
  <fix>3d</fix>
</trkpt>
<trkpt lat="40.0728422" lon="-105.2305752">
  <ele>1586.19</ele>
  <time>2026-08-27T18:27:31Z</time>
  <course>11.52</course>
  <speed>0.022360679774997897</speed>
  <fix>3d</fix>
</trkpt>
<trkpt lat="40.0728423" lon="-105.2305753">
  <ele>1586.09</ele>
  <time>2026-08-27T18:27:31Z</time>
  <course>276.37</course>
  <speed>0.0</speed>
  <fix>3d</fix>
</trkpt>
<trkpt lat="40.0728422" lon="-105.2305752">
  <ele>1586.18</ele>
  <time>2026-08-27T18:27:31Z</time>
  <course>11.52</course>
  <speed>0.022360679774997897</speed>
  <fix>3d</fix>
</trkpt>
<trkpt lat="40.0728423" lon="-105.2305753">
  <ele>1586.09</ele>
  <time>2026-08-27T18:27:31Z</time>
  <course>276.37</course>
  <speed>0.0</speed>
  <fix>3d</fix>
</trkpt>
<trkpt lat="40.0728422" lon="-105.2305752">
  <ele>1586.18</ele>
  <time>2026-08-27T18:27:31Z</time>
  <course>11.52</course>
  <speed>0.022360679774997897</speed>
  <fix>3d</fix>
</trkpt>
<trkpt lat="40.0728423" lon="-105.2305753">
  <ele>1586.09</ele>
  <time>2026-08-27T18:27:31Z</time>
  <course>276.37</course>
  <speed>0.0</speed>
  <fix>3d</fix>
</trkpt>
<trkpt lat="40.0728422" lon="-105.2305752">
  <ele>1586.19</ele>
  <time>2026-08-27T18:27:31Z</time>
  <course>11.52</course>
  <speed>0.022360679774997897</speed>
  <fix>3d</fix>
</trkpt>
<trkpt lat="40.0728423" lon="-105.2305753">
  <ele>1586.09</ele>
  <time>2026-08-27T18:27:31Z</time>
  <course>276.37</course>
  <speed>0.0</speed>
  <fix>3d</fix>
</trkpt>
<trkpt lat="40.0728422" lon="-105.2305752">
  <ele>1586.19</ele>
  <time>2026-08-27T18:27:31Z</time>
  <course>11.52</course>
  <speed>0.022360679774997897</speed>
  <fix>3d</fix>
</trkpt>
<trkpt lat="40.0728423" lon="-105.2305753">
  <ele>1586.09</ele>
  <time>2026-08-27T18:27:31Z</time>
  <course>276.37</course>
  <speed>0.0</speed>
  <fix>3d</fix>
</trkpt>
<trkpt lat="40.0728422" lon="-105.2305752">
  <ele>1586.19</ele>
  <time>2026-08-27T18:27:31Z</time>
  <course>11.52</course>
  <speed>0.022360679774997897</speed>
  <fix>3d</fix>
</trkpt>
<trkpt lat="40.0728423" lon="-105.2305753">
  <ele>1586.09</ele>
  <time>2026-08-27T18:27:31Z</time>
  <course>276.37</course>
  <speed>0.0</speed>
  <fix>3d</fix>
</trkpt>
<trkpt lat="40.0728422" lon="-105.2305752">
  <ele>1586.19</ele>
  <time>2026-08-27T18:27:31Z</time>
  <course>11.52</course>
  <speed>0.022360679774997897</speed>
  <fix>3d</fix>
</trkpt>
<trkpt lat="40.0728423" lon="-105.2305753">
  <ele>1586.09</ele>
  <time>2026-08-27T18:27:31Z</time>
  <course>276.37</course>
  <speed>0.0</speed>
  <fix>3d</fix>
</trkpt>
<trkpt lat="40.0728422" lon="-105.2305752">
  <ele>1586.19</ele>
  <time>2026-08-27T18:27:31Z</time>
  <course>11.51</course>
  <speed>0.022360679774997897</speed>
  <fix>3d</fix>
</trkpt>
<trkpt lat="40.0728423" lon="-105.2305753">
  <ele>1586.09</ele>
  <time>2026-08-27T18:27:31Z</time>
  <course>276.37</course>
  <speed>0.0</speed>
  <fix>3d</fix>
</trkpt>
<trkpt lat="40.0728422" lon="-105.2305752">
  <ele>1586.18</ele>
  <time>2026-08-27T18:27:31Z</time>
  <course>11.51</course>
  <speed>0.022360679774997897</speed>
  <fix>3d</fix>
</trkpt>
<trkpt lat="40.0728423" lon="-105.2305753">
  <ele>1586.09</ele>
  <time>2026-08-27T18:27:31Z</time>
  <course>276.37</course>
  <speed>0.0</speed>
  <fix>3d</fix>
</trkpt>
<trkpt lat="40.0728422" lon="-105.2305752">
  <ele>1586.18</ele>
  <time>2026-08-27T18:27:31Z</time>
  <course>11.51</course>
  <speed>0.022360679774997897</speed>
  <fix>3d</fix>
</trkpt>
<trkpt lat="40.0728423" lon="-105.2305753">
  <ele>1586.09</ele>
  <time>2026-08-27T18:27:31Z</time>
  <course>276.37</course>
  <speed>0.0</speed>
  <fix>3d</fix>
</trkpt>
<trkpt lat="40.0728422" lon="-105.2305752">
  <ele>1586.18</ele>
  <time>2026-08-27T18:27:31Z</time>
  <course>11.53</course>
  <speed>0.022360679774997897</speed>
  <fix>3d</fix>
</trkpt>
<trkpt lat="40.0728423" lon="-105.2305753">
  <ele>1586.09</ele>
  <time>2026-08-27T18:27:31Z</time>
  <course>276.37</course>
  <speed>0.0</speed>
  <fix>3d</fix>
</trkpt>
<trkpt lat="40.0728422" lon="-105.2305752">
  <ele>1586.18</ele>
  <time>2026-08-27T18:27:31Z</time>
  <course>11.64</course>
  <speed>0.022360679774997897</speed>
  <fix>3d</fix>
</trkpt>
<trkpt lat="40.0728423" lon="-105.2305753">
  <ele>1586.09</ele>
  <time>2026-08-27T18:27:31Z</time>
  <course>326.46</course>
  <speed>0.0</speed>
  <fix>3d</fix>
</trkpt>
<trkpt lat="40.0728422" lon="-105.2305752">
  <ele>1586.18</ele>
  <time>2026-08-27T18:27:31Z</time>
  <course>11.74</course>
  <speed>0.022360679774997897</speed>
  <fix>3d</fix>
</trkpt>
<trkpt lat="40.0728423" lon="-105.2305753">
  <ele>1586.09</ele>
  <time>2026-08-27T18:27:31Z</time>
  <course>329.44</course>
  <speed>0.0</speed>
  <fix>3d</fix>
</trkpt>
<trkpt lat="40.0728422" lon="-105.2305752">
  <ele>1586.18</ele>
  <time>2026-08-27T18:27:31Z</time>
  <course>11.85</course>
  <speed>0.022360679774997897</speed>
  <fix>3d</fix>
</trkpt>
<trkpt lat="40.0728423" lon="-105.2305753">
  <ele>1586.09</ele>
  <time>2026-08-27T18:27:31Z</time>
  <course>319.9</course>
  <speed>0.0</speed>
  <fix>3d</fix>
</trkpt>
<trkpt lat="40.0728422" lon="-105.2305752">
  <ele>1586.18</ele>
  <time>2026-08-27T18:27:31Z</time>
  <course>11.95</course>
  <speed>0.022360679774997897</speed>
  <fix>3d</fix>
</trkpt>
<trkpt lat="40.0728423" lon="-105.2305753">
  <ele>1586.09</ele>
  <time>2026-08-27T18:27:31Z</time>
  <course>194.27</course>
  <speed>0.0</speed>
  <fix>3d</fix>
</trkpt>
<trkpt lat="40.0728422" lon="-105.2305752">
  <ele>1586.18</ele>
  <time>2026-08-27T18:27:31Z</time>
  <course>12.05</course>
  <speed>0.022360679774997897</speed>
  <fix>3d</fix>
</trkpt>
<trkpt lat="40.0728423" lon="-105.2305753">
  <ele>1586.09</ele>
  <time>2026-08-27T18:27:31Z</time>
  <course>180.55</course>
  <speed>0.0</speed>
  <fix>3d</fix>
</trkpt>
<trkpt lat="40.0728422" lon="-105.2305752">
  <ele>1586.18</ele>
  <time>2026-08-27T18:27:31Z</time>
  <course>12.15</course>
  <speed>0.022360679774997897</speed>
  <fix>3d</fix>
</trkpt>
<trkpt lat="39.6562421" lon="-104.1365912">
  <ele>1569.6</ele>
  <time>2026-08-27T18:27:32Z</time>
  <course>296.79</course>
  <speed>0.0</speed>
  <fix>3d</fix>
</trkpt>
<trkpt lat="40.072842" lon="-105.230575">
  <ele>1586.09</ele>
  <time>2026-08-27T18:27:32Z</time>
  <course>2.03</course>
  <speed>0.0</speed>
  <fix>3d</fix>
</trkpt>
<trkpt lat="40.072842" lon="-105.230575">
  <ele>1586.09</ele>
  <time>2026-08-27T18:27:32Z</time>
  <course>280.47</course>
  <speed>0.0</speed>
  <fix>3d</fix>
</trkpt>
<trkpt lat="40.072842" lon="-105.230575">
  <ele>1586.09</ele>
  <time>2026-08-27T18:27:32Z</time>
  <course>2.44</course>
  <speed>0.0</speed>
  <fix>3d</fix>
</trkpt>
<trkpt lat="40.072842" lon="-105.230575">
  <ele>1586.09</ele>
  <time>2026-08-27T18:27:32Z</time>
  <course>97.57</course>
  <speed>0.0</speed>
  <fix>3d</fix>
</trkpt>
<trkpt lat="40.072842" lon="-105.230575">
  <ele>1586.09</ele>
  <time>2026-08-27T18:27:32Z</time>
  <course>3.19</course>
  <speed>0.0</speed>
  <fix>3d</fix>
</trkpt>
<trkpt lat="40.072842" lon="-105.230575">
  <ele>1586.09</ele>
  <time>2026-08-27T18:27:32Z</time>
  <course>67.08</course>
  <speed>0.0</speed>
  <fix>3d</fix>
</trkpt>
<trkpt lat="40.072842" lon="-105.230575">
  <ele>1586.09</ele>
  <time>2026-08-27T18:27:32Z</time>
  <course>3.87</course>
  <speed>0.0</speed>
  <fix>3d</fix>
</trkpt>
<trkpt lat="40.072842" lon="-105.230575">
  <ele>1586.09</ele>
  <time>2026-08-27T18:27:32Z</time>
  <course>60.84</course>
  <speed>0.0</speed>
  <fix>3d</fix>
</trkpt>
<trkpt lat="40.072842" lon="-105.230575">
  <ele>1586.09</ele>
  <time>2026-08-27T18:27:32Z</time>
  <course>4.49</course>
  <speed>0.0</speed>
  <fix>3d</fix>
</trkpt>
<trkpt lat="40.072842" lon="-105.230575">
  <ele>1586.09</ele>
  <time>2026-08-27T18:27:32Z</time>
  <course>234.79</course>
  <speed>0.0</speed>
  <fix>3d</fix>
</trkpt>
<trkpt lat="40.072842" lon="-105.230575">
  <ele>1586.09</ele>
  <time>2026-08-27T18:27:32Z</time>
  <course>5.09</course>
  <speed>0.0</speed>
  <fix>3d</fix>
</trkpt>
<trkpt lat="40.072842" lon="-105.230575">
  <ele>1586.09</ele>
  <time>2026-08-27T18:27:32Z</time>
  <course>233.55</course>
  <speed>0.0</speed>
  <fix>3d</fix>
</trkpt>
<trkpt lat="40.072842" lon="-105.230575">
  <ele>1586.09</ele>
  <time>2026-08-27T18:27:32Z</time>
  <course>5.65</course>
  <speed>0.0</speed>
  <fix>3d</fix>
</trkpt>
<trkpt lat="40.072842" lon="-105.230575">
  <ele>1586.09</ele>
  <time>2026-08-27T18:27:32Z</time>
  <course>68.34</course>
  <speed>0.0</speed>
  <fix>3d</fix>
</trkpt>
<trkpt lat="40.072842" lon="-105.230575">
  <ele>1586.09</ele>
  <time>2026-08-27T18:27:32Z</time>
  <course>6.17</course>
  <speed>0.0</speed>
  <fix>3d</fix>
</trkpt>
<trkpt lat="40.072842" lon="-105.230575">
  <ele>1586.09</ele>
  <time>2026-08-27T18:27:32Z</time>
  <course>139.41</course>
  <speed>0.0</speed>
  <fix>3d</fix>
</trkpt>
<trkpt lat="40.072842" lon="-105.230575">
  <ele>1586.09</ele>
  <time>2026-08-27T18:27:32Z</time>
  <course>6.66</course>
  <speed>0.0</speed>
  <fix>3d</fix>
</trkpt>
<trkpt lat="40.072842" lon="-105.230575">
  <ele>1586.09</ele>
  <time>2026-08-27T18:27:32Z</time>
  <course>249.95</course>
  <speed>0.0</speed>
  <fix>3d</fix>
</trkpt>
<trkpt lat="40.072842" lon="-105.230575">
  <ele>1586.09</ele>
  <time>2026-08-27T18:27:32Z</time>
  <course>7.11</course>
  <speed>0.0</speed>
  <fix>3d</fix>
</trkpt>
<trkpt lat="40.072842" lon="-105.230575">
  <ele>1586.09</ele>
  <time>2026-08-27T18:27:32Z</time>
  <course>350.08</course>
  <speed>0.0</speed>
  <fix>3d</fix>
</trkpt>
<trkpt lat="40.072842" lon="-105.230575">
  <ele>1586.09</ele>
  <time>2026-08-27T18:27:32Z</time>
  <course>7.54</course>
  <speed>0.0</speed>
  <fix>3d</fix>
</trkpt>
<trkpt lat="40.072842" lon="-105.230575">
  <ele>1586.09</ele>
  <time>2026-08-27T18:27:32Z</time>
  <course>30.1</course>
  <speed>0.0</speed>
  <fix>3d</fix>
</trkpt>
<trkpt lat="40.072842" lon="-105.230575">
  <ele>1586.09</ele>
  <time>2026-08-27T18:27:32Z</time>
  <course>7.93</course>
  <speed>0.0</speed>
  <fix>3d</fix>
</trkpt>
<trkpt lat="40.072842" lon="-105.230575">
  <ele>1586.09</ele>
  <time>2026-08-27T18:27:32Z</time>
  <course>282.33</course>
  <speed>0.0</speed>
  <fix>3d</fix>
</trkpt>
<trkpt lat="40.072842" lon="-105.230575">
  <ele>1586.09</ele>
  <time>2026-08-27T18:27:32Z</time>
  <course>8.29</course>
  <speed>0.0</speed>
  <fix>3d</fix>
</trkpt>
<trkpt lat="40.072842" lon="-105.230575">
  <ele>1586.09</ele>
  <time>2026-08-27T18:27:32Z</time>
  <course>252.92</course>
  <speed>0.0</speed>
  <fix>3d</fix>
</trkpt>
<trkpt lat="40.072842" lon="-105.230575">
  <ele>1586.09</ele>
  <time>2026-08-27T18:27:32Z</time>
  <course>8.63</course>
  <speed>0.0</speed>
  <fix>3d</fix>
</trkpt>
<trkpt lat="40.072842" lon="-105.230575">
  <ele>1586.09</ele>
  <time>2026-08-27T18:27:32Z</time>
  <course>126.45</course>
  <speed>0.0</speed>
  <fix>3d</fix>
</trkpt>
<trkpt lat="40.072842" lon="-105.230575">
  <ele>1586.09</ele>
  <time>2026-08-27T18:27:32Z</time>
  <course>8.94</course>
  <speed>0.0</speed>
  <fix>3d</fix>
</trkpt>
<trkpt lat="40.072842" lon="-105.230575">
  <ele>1586.09</ele>
  <time>2026-08-27T18:27:32Z</time>
  <course>75.25</course>
  <speed>0.0</speed>
  <fix>3d</fix>
</trkpt>
<trkpt lat="40.072842" lon="-105.230575">
  <ele>1586.09</ele>
  <time>2026-08-27T18:27:32Z</time>
  <course>9.23</course>
  <speed>0.0</speed>
  <fix>3d</fix>
</trkpt>
<trkpt lat="40.072842" lon="-105.230575">
  <ele>1586.09</ele>
  <time>2026-08-27T18:27:32Z</time>
  <course>314.16</course>
  <speed>0.0</speed>
  <fix>3d</fix>
</trkpt>
<trkpt lat="40.072842" lon="-105.230575">
  <ele>1586.09</ele>
  <time>2026-08-27T18:27:32Z</time>
  <course>9.49</course>
  <speed>0.0</speed>
  <fix>3d</fix>
</trkpt>
<trkpt lat="40.072842" lon="-105.230575">
  <ele>1586.09</ele>
  <time>2026-08-27T18:27:32Z</time>
  <course>268.2</course>
  <speed>0.0</speed>
  <fix>3d</fix>
</trkpt>
<trkpt lat="40.072842" lon="-105.230575">
  <ele>1586.09</ele>
  <time>2026-08-27T18:27:32Z</time>
  <course>9.73</course>
  <speed>0.0</speed>
  <fix>3d</fix>
</trkpt>
<trkpt lat="40.072842" lon="-105.230575">
  <ele>1586.09</ele>
  <time>2026-08-27T18:27:32Z</time>
  <course>269.63</course>
  <speed>0.0</speed>
  <fix>3d</fix>
</trkpt>
<trkpt lat="40.072842" lon="-105.230575">
  <ele>1586.09</ele>
  <time>2026-08-27T18:27:32Z</time>
  <course>9.95</course>
  <speed>0.0</speed>
  <fix>3d</fix>
</trkpt>
<trkpt lat="40.072842" lon="-105.230575">
  <ele>1586.09</ele>
  <time>2026-08-27T18:27:32Z</time>
  <course>270.25</course>
  <speed>0.0</speed>
  <fix>3d</fix>
</trkpt>
<trkpt lat="40.072842" lon="-105.230575">
  <ele>1586.09</ele>
  <time>2026-08-27T18:27:32Z</time>
  <course>10.16</course>
  <speed>0.0</speed>
  <fix>3d</fix>
</trkpt>
<trkpt lat="40.072842" lon="-105.230575">
  <ele>1586.09</ele>
  <time>2026-08-27T18:27:32Z</time>
  <course>89.02</course>
  <speed>0.0</speed>
  <fix>3d</fix>
</trkpt>
<trkpt lat="40.072842" lon="-105.230575">
  <ele>1586.09</ele>
  <time>2026-08-27T18:27:32Z</time>
  <course>10.34</course>
  <speed>0.0</speed>
  <fix>3d</fix>
</trkpt>
<trkpt lat="40.072842" lon="-105.230575">
  <ele>1586.09</ele>
  <time>2026-08-27T18:27:32Z</time>
  <course>91.15</course>
  <speed>0.0</speed>
  <fix>3d</fix>
</trkpt>
<trkpt lat="40.072842" lon="-105.230575">
  <ele>1586.09</ele>
  <time>2026-08-27T18:27:32Z</time>
  <course>10.52</course>
  <speed>0.0</speed>
  <fix>3d</fix>
</trkpt>
<trkpt lat="40.072842" lon="-105.230575">
  <ele>1586.09</ele>
  <time>2026-08-27T18:27:32Z</time>
  <course>269.82</course>
  <speed>0.0</speed>
  <fix>3d</fix>
</trkpt>
<trkpt lat="40.072842" lon="-105.230575">
  <ele>1586.09</ele>
  <time>2026-08-27T18:27:32Z</time>
  <course>10.67</course>
  <speed>0.0</speed>
  <fix>3d</fix>
</trkpt>
<trkpt lat="40.072842" lon="-105.230575">
  <ele>1586.09</ele>
  <time>2026-08-27T18:27:32Z</time>
  <course>270.13</course>
  <speed>0.0</speed>
  <fix>3d</fix>
</trkpt>
<trkpt lat="40.072842" lon="-105.230575">
  <ele>1586.09</ele>
  <time>2026-08-27T18:27:32Z</time>
  <course>10.82</course>
  <speed>0.0</speed>
  <fix>3d</fix>
</trkpt>
<trkpt lat="40.072842" lon="-105.230575">
  <ele>1586.09</ele>
  <time>2026-08-27T18:27:32Z</time>
  <course>270.02</course>
  <speed>0.0</speed>
  <fix>3d</fix>
</trkpt>
<trkpt lat="40.072842" lon="-105.230575">
  <ele>1586.09</ele>
  <time>2026-08-27T18:27:32Z</time>
  <course>10.95</course>
  <speed>0.0</speed>
  <fix>3d</fix>
</trkpt>
<trkpt lat="40.072842" lon="-105.230575">
  <ele>1586.09</ele>
  <time>2026-08-27T18:27:32Z</time>
  <course>269.97</course>
  <speed>0.0</speed>
  <fix>3d</fix>
</trkpt>
<trkpt lat="40.072842" lon="-105.230575">
  <ele>1586.09</ele>
  <time>2026-08-27T18:27:32Z</time>
  <course>11.07</course>
  <speed>0.0</speed>
  <fix>3d</fix>
</trkpt>
<trkpt lat="40.072842" lon="-105.230575">
  <ele>1586.09</ele>
  <time>2026-08-27T18:27:32Z</time>
  <course>269.99</course>
  <speed>0.0</speed>
  <fix>3d</fix>
</trkpt>
<trkpt lat="40.072842" lon="-105.230575">
  <ele>1586.09</ele>
  <time>2026-08-27T18:27:32Z</time>
  <course>11.18</course>
  <speed>0.0</speed>
  <fix>3d</fix>
</trkpt>
<trkpt lat="40.072842" lon="-105.230575">
  <ele>1586.09</ele>
  <time>2026-08-27T18:27:32Z</time>
  <course>270.0</course>
  <speed>0.0</speed>
  <fix>3d</fix>
</trkpt>
<trkpt lat="40.072842" lon="-105.230575">
  <ele>1586.09</ele>
  <time>2026-08-27T18:27:32Z</time>
  <course>11.28</course>
  <speed>0.0</speed>
  <fix>3d</fix>
</trkpt>
<trkpt lat="40.072842" lon="-105.230575">
  <ele>1586.09</ele>
  <time>2026-08-27T18:27:32Z</time>
  <course>269.99</course>
  <speed>0.0</speed>
  <fix>3d</fix>
</trkpt>
<trkpt lat="40.072842" lon="-105.230575">
  <ele>1586.09</ele>
  <time>2026-08-27T18:27:32Z</time>
  <course>11.37</course>
  <speed>0.0</speed>
  <fix>3d</fix>
</trkpt>
<trkpt lat="40.072842" lon="-105.230575">
  <ele>1586.09</ele>
  <time>2026-08-27T18:27:32Z</time>
  <course>269.99</course>
  <speed>0.0</speed>
  <fix>3d</fix>
</trkpt>
<trkpt lat="40.072842" lon="-105.230575">
  <ele>1586.09</ele>
  <time>2026-08-27T18:27:32Z</time>
  <course>11.45</course>
  <speed>0.0</speed>
  <fix>3d</fix>
</trkpt>
<trkpt lat="40.072842" lon="-105.230575">
  <ele>1586.09</ele>
  <time>2026-08-27T18:27:32Z</time>
  <course>269.99</course>
  <speed>0.0</speed>
  <fix>3d</fix>
</trkpt>
<trkpt lat="40.072842" lon="-105.230575">
  <ele>1586.09</ele>
  <time>2026-08-27T18:27:32Z</time>
  <course>11.53</course>
  <speed>0.0</speed>
  <fix>3d</fix>
</trkpt>
<trkpt lat="40.072842" lon="-105.230575">
  <ele>1586.09</ele>
  <time>2026-08-27T18:27:32Z</time>
  <course>269.99</course>
  <speed>0.0</speed>
  <fix>3d</fix>
</trkpt>
<trkpt lat="40.072842" lon="-105.230575">
  <ele>1586.09</ele>
  <time>2026-08-27T18:27:32Z</time>
  <course>11.59</course>
  <speed>0.0</speed>
  <fix>3d</fix>
</trkpt>
<trkpt lat="40.072842" lon="-105.230575">
  <ele>1586.09</ele>
  <time>2026-08-27T18:27:32Z</time>
  <course>269.99</course>
  <speed>0.0</speed>
  <fix>3d</fix>
</trkpt>
<trkpt lat="40.072842" lon="-105.230575">
  <ele>1586.09</ele>
  <time>2026-08-27T18:27:32Z</time>
  <course>11.65</course>
  <speed>0.0</speed>
  <fix>3d</fix>
</trkpt>
<trkpt lat="40.072842" lon="-105.230575">
  <ele>1586.09</ele>
  <time>2026-08-27T18:27:32Z</time>
  <course>284.93</course>
  <speed>0.0</speed>
  <fix>3d</fix>
</trkpt>
<trkpt lat="40.072842" lon="-105.230575">
  <ele>1586.09</ele>
  <time>2026-08-27T18:27:32Z</time>
  <course>11.71</course>
  <speed>0.0</speed>
  <fix>3d</fix>
</trkpt>
<trkpt lat="40.072842" lon="-105.230575">
  <ele>1586.09</ele>
  <time>2026-08-27T18:27:32Z</time>
  <course>302.13</course>
  <speed>0.0</speed>
  <fix>3d</fix>
</trkpt>
<trkpt lat="40.072842" lon="-105.230575">
  <ele>1586.09</ele>
  <time>2026-08-27T18:27:32Z</time>
  <course>11.77</course>
  <speed>0.0</speed>
  <fix>3d</fix>
</trkpt>
<trkpt lat="40.072842" lon="-105.230575">
  <ele>1586.09</ele>
  <time>2026-08-27T18:27:32Z</time>
  <course>51.93</course>
  <speed>0.0</speed>
  <fix>3d</fix>
</trkpt>
<trkpt lat="40.072842" lon="-105.230575">
  <ele>1586.09</ele>
  <time>2026-08-27T18:27:32Z</time>
  <course>11.81</course>
  <speed>0.0</speed>
  <fix>3d</fix>
</trkpt>
<trkpt lat="40.072842" lon="-105.230575">
  <ele>1586.09</ele>
  <time>2026-08-27T18:27:32Z</time>
  <course>54.62</course>
  <speed>0.0</speed>
  <fix>3d</fix>
</trkpt>
<trkpt lat="40.072842" lon="-105.230575">
  <ele>1586.09</ele>
  <time>2026-08-27T18:27:32Z</time>
  <course>11.85</course>
  <speed>0.0</speed>
  <fix>3d</fix>
</trkpt>
<trkpt lat="40.072842" lon="-105.230575">
  <ele>1586.09</ele>
  <time>2026-08-27T18:27:32Z</time>
  <course>247.89</course>
  <speed>0.0</speed>
  <fix>3d</fix>
</trkpt>
<trkpt lat="40.072842" lon="-105.230575">
  <ele>1586.09</ele>
  <time>2026-08-27T18:27:32Z</time>
  <course>11.89</course>
  <speed>0.0</speed>
  <fix>3d</fix>
</trkpt>
<trkpt lat="40.072842" lon="-105.230575">
  <ele>1586.09</ele>
  <time>2026-08-27T18:27:32Z</time>
  <course>51.14</course>
  <speed>0.0</speed>
  <fix>3d</fix>
</trkpt>
<trkpt lat="40.072842" lon="-105.230575">
  <ele>1586.09</ele>
  <time>2026-08-27T18:27:32Z</time>
  <course>11.92</course>
  <speed>0.0</speed>
  <fix>3d</fix>
</trkpt>
<trkpt lat="40.072842" lon="-105.230575">
  <ele>1586.09</ele>
  <time>2026-08-27T18:27:32Z</time>
  <course>55.4</course>
  <speed>0.0</speed>
  <fix>3d</fix>
</trkpt>
<trkpt lat="40.072842" lon="-105.230575">
  <ele>1586.09</ele>
  <time>2026-08-27T18:27:32Z</time>
  <course>11.95</course>
  <speed>0.0</speed>
  <fix>3d</fix>
</trkpt>
<trkpt lat="40.072842" lon="-105.230575">
  <ele>1586.09</ele>
  <time>2026-08-27T18:27:32Z</time>
  <course>326.12</course>
  <speed>0.0</speed>
  <fix>3d</fix>
</trkpt>
<trkpt lat="40.072842" lon="-105.230575">
  <ele>1586.09</ele>
  <time>2026-08-27T18:27:32Z</time>
  <course>11.98</course>
  <speed>0.0</speed>
  <fix>3d</fix>
</trkpt>
<trkpt lat="40.072842" lon="-105.230575">
  <ele>1586.09</ele>
  <time>2026-08-27T18:27:32Z</time>
  <course>251.62</course>
  <speed>0.0</speed>
  <fix>3d</fix>
</trkpt>
<trkpt lat="40.072842" lon="-105.230575">
  <ele>1586.09</ele>
  <time>2026-08-27T18:27:32Z</time>
  <course>12.0</course>
  <speed>0.0</speed>
  <fix>3d</fix>
</trkpt>
<trkpt lat="40.072842" lon="-105.230575">
  <ele>1586.09</ele>
  <time>2026-08-27T18:27:32Z</time>
  <course>322.05</course>
  <speed>0.0</speed>
  <fix>3d</fix>
</trkpt>
<trkpt lat="40.072842" lon="-105.230575">
  <ele>1586.09</ele>
  <time>2026-08-27T18:27:32Z</time>
  <course>12.02</course>
  <speed>0.0</speed>
  <fix>3d</fix>
</trkpt>
<trkpt lat="40.072842" lon="-105.230575">
  <ele>1586.09</ele>
  <time>2026-08-27T18:27:32Z</time>
  <course>356.91</course>
  <speed>0.0</speed>
  <fix>3d</fix>
</trkpt>
<trkpt lat="40.072842" lon="-105.230575">
  <ele>1586.09</ele>
  <time>2026-08-27T18:27:32Z</time>
  <course>12.04</course>
  <speed>0.0</speed>
  <fix>3d</fix>
</trkpt>
<trkpt lat="40.072842" lon="-105.230575">
  <ele>1586.09</ele>
  <time>2026-08-27T18:27:32Z</time>
  <course>193.76</course>
  <speed>0.0</speed>
  <fix>3d</fix>
</trkpt>
<trkpt lat="40.072842" lon="-105.230575">
  <ele>1586.09</ele>
  <time>2026-08-27T18:27:32Z</time>
  <course>12.05</course>
  <speed>0.0</speed>
  <fix>3d</fix>
</trkpt>
<trkpt lat="40.072842" lon="-105.230575">
  <ele>1586.09</ele>
  <time>2026-08-27T18:27:32Z</time>
  <course>122.77</course>
  <speed>0.0</speed>
  <fix>3d</fix>
</trkpt>
<trkpt lat="40.072842" lon="-105.230575">
  <ele>1586.09</ele>
  <time>2026-08-27T18:27:32Z</time>
  <course>12.07</course>
  <speed>0.0</speed>
  <fix>3d</fix>
</trkpt>
<trkpt lat="40.072842" lon="-105.230575">
  <ele>1586.09</ele>
  <time>2026-08-27T18:27:32Z</time>
  <course>122.47</course>
  <speed>0.0</speed>
  <fix>3d</fix>
</trkpt>
<trkpt lat="40.072842" lon="-105.230575">
  <ele>1586.09</ele>
  <time>2026-08-27T18:27:32Z</time>
  <course>12.08</course>
  <speed>0.0</speed>
  <fix>3d</fix>
</trkpt>
<trkpt lat="40.072842" lon="-105.230575">
  <ele>1586.09</ele>
  <time>2026-08-27T18:27:32Z</time>
  <course>122.49</course>
  <speed>0.0</speed>
  <fix>3d</fix>
</trkpt>
<trkpt lat="40.072842" lon="-105.230575">
  <ele>1586.09</ele>
  <time>2026-08-27T18:27:32Z</time>
  <course>12.09</course>
  <speed>0.0</speed>
  <fix>3d</fix>
</trkpt>
<trkpt lat="40.072842" lon="-105.230575">
  <ele>1586.09</ele>
  <time>2026-08-27T18:27:32Z</time>
  <course>302.5</course>
  <speed>0.0</speed>
  <fix>3d</fix>
</trkpt>
<trkpt lat="40.072842" lon="-105.230575">
  <ele>1586.09</ele>
  <time>2026-08-27T18:27:32Z</time>
  <course>12.1</course>
  <speed>0.0</speed>
  <fix>3d</fix>
</trkpt>
<trkpt lat="40.072842" lon="-105.230575">
  <ele>1586.09</ele>
  <time>2026-08-27T18:27:32Z</time>
  <course>302.5</course>
  <speed>0.0</speed>
  <fix>3d</fix>
</trkpt>
<trkpt lat="40.072842" lon="-105.230575">
  <ele>1586.09</ele>
  <time>2026-08-27T18:27:32Z</time>
  <course>12.1</course>
  <speed>0.0</speed>
  <fix>3d</fix>
</trkpt>
<trkpt lat="40.072842" lon="-105.230575">
  <ele>1586.09</ele>
  <time>2026-08-27T18:27:32Z</time>
  <course>122.5</course>
  <speed>0.0</speed>
  <fix>3d</fix>
</trkpt>
<trkpt lat="40.072842" lon="-105.230575">
  <ele>1586.09</ele>
  <time>2026-08-27T18:27:32Z</time>
  <course>12.11</course>
  <speed>0.0</speed>
  <fix>3d</fix>
</trkpt>
<trkpt lat="40.072842" lon="-105.230575">
  <ele>1586.09</ele>
  <time>2026-08-27T18:27:32Z</time>
  <course>122.5</course>
  <speed>0.0</speed>
  <fix>3d</fix>
</trkpt>
<trkpt lat="40.072842" lon="-105.230575">
  <ele>1586.09</ele>
  <time>2026-08-27T18:27:32Z</time>
  <course>12.11</course>
  <speed>0.0</speed>
  <fix>3d</fix>
</trkpt>
<trkpt lat="40.072842" lon="-105.230575">
  <ele>1586.09</ele>
  <time>2026-08-27T18:27:32Z</time>
  <course>302.5</course>
  <speed>0.0</speed>
  <fix>3d</fix>
</trkpt>
<trkpt lat="40.072842" lon="-105.230575">
  <ele>1586.09</ele>
  <time>2026-08-27T18:27:32Z</time>
  <course>12.12</course>
  <speed>0.0</speed>
  <fix>3d</fix>
</trkpt>
<trkpt lat="40.072842" lon="-105.230575">
  <ele>1586.09</ele>
  <time>2026-08-27T18:27:32Z</time>
  <course>302.5</course>
  <speed>0.0</speed>
  <fix>3d</fix>
</trkpt>
<trkpt lat="40.072842" lon="-105.230575">
  <ele>1586.09</ele>
  <time>2026-08-27T18:27:32Z</time>
  <course>12.12</course>
  <speed>0.0</speed>
  <fix>3d</fix>
</trkpt>
<trkpt lat="40.072842" lon="-105.230575">
  <ele>1586.09</ele>
  <time>2026-08-27T18:27:32Z</time>
  <course>122.51</course>
  <speed>0.0</speed>
  <fix>3d</fix>
</trkpt>
<trkpt lat="40.072842" lon="-105.230575">
  <ele>1586.09</ele>
  <time>2026-08-27T18:27:32Z</time>
  <course>12.12</course>
  <speed>0.0</speed>
  <fix>3d</fix>
</trkpt>
<trkpt lat="40.072842" lon="-105.230575">
  <ele>1586.09</ele>
  <time>2026-08-27T18:27:32Z</time>
  <course>122.51</course>
  <speed>0.0</speed>
  <fix>3d</fix>
</trkpt>
<trkpt lat="40.072842" lon="-105.230575">
  <ele>1586.09</ele>
  <time>2026-08-27T18:27:32Z</time>
  <course>12.12</course>
  <speed>0.0</speed>
  <fix>3d</fix>
</trkpt>
<trkpt lat="40.072842" lon="-105.230575">
  <ele>1586.09</ele>
  <time>2026-08-27T18:27:32Z</time>
  <course>302.49</course>
  <speed>0.0</speed>
  <fix>3d</fix>
</trkpt>
<trkpt lat="40.072842" lon="-105.230575">
  <ele>1586.09</ele>
  <time>2026-08-27T18:27:32Z</time>
  <course>12.12</course>
  <speed>0.0</speed>
  <fix>3d</fix>
</trkpt>
<trkpt lat="40.072842" lon="-105.230575">
  <ele>1586.09</ele>
  <time>2026-08-27T18:27:32Z</time>
  <course>302.44</course>
  <speed>0.0</speed>
  <fix>3d</fix>
</trkpt>
<trkpt lat="40.072842" lon="-105.230575">
  <ele>1586.09</ele>
  <time>2026-08-27T18:27:32Z</time>
  <course>12.12</course>
  <speed>0.01</speed>
  <fix>3d</fix>
</trkpt>
<trkpt lat="40.072842" lon="-105.230575">
  <ele>1586.09</ele>
  <time>2026-08-27T18:27:32Z</time>
  <course>122.58</course>
  <speed>0.0</speed>
  <fix>3d</fix>
</trkpt>
<trkpt lat="40.072842" lon="-105.230575">
  <ele>1586.09</ele>
  <time>2026-08-27T18:27:32Z</time>
  <course>12.12</course>
  <speed>0.01</speed>
  <fix>3d</fix>
</trkpt>
<trkpt lat="40.072842" lon="-105.230575">
  <ele>1586.09</ele>
  <time>2026-08-27T18:27:32Z</time>
  <course>124.31</course>
  <speed>0.0</speed>
  <fix>3d</fix>
</trkpt>
<trkpt lat="40.072842" lon="-105.230575">
  <ele>1586.09</ele>
  <time>2026-08-27T18:27:32Z</time>
  <course>12.12</course>
  <speed>0.01</speed>
  <fix>3d</fix>
</trkpt>
<trkpt lat="40.072842" lon="-105.230575">
  <ele>1586.09</ele>
  <time>2026-08-27T18:27:32Z</time>
  <course>301.92</course>
  <speed>0.0</speed>
  <fix>3d</fix>
</trkpt>
<trkpt lat="40.072842" lon="-105.230575">
  <ele>1586.09</ele>
  <time>2026-08-27T18:27:32Z</time>
  <course>12.11</course>
  <speed>0.01</speed>
  <fix>3d</fix>
</trkpt>
<trkpt lat="40.072842" lon="-105.230575">
  <ele>1586.09</ele>
  <time>2026-08-27T18:27:32Z</time>
  <course>129.13</course>
  <speed>0.0</speed>
  <fix>3d</fix>
</trkpt>
<trkpt lat="40.072842" lon="-105.230575">
  <ele>1586.09</ele>
  <time>2026-08-27T18:27:32Z</time>
  <course>12.11</course>
  <speed>0.01</speed>
  <fix>3d</fix>
</trkpt>
<trkpt lat="40.072842" lon="-105.230575">
  <ele>1586.09</ele>
  <time>2026-08-27T18:27:32Z</time>
  <course>126.88</course>
  <speed>0.0</speed>
  <fix>3d</fix>
</trkpt>
<trkpt lat="40.072842" lon="-105.230575">
  <ele>1586.09</ele>
  <time>2026-08-27T18:27:32Z</time>
  <course>12.11</course>
  <speed>0.01</speed>
  <fix>3d</fix>
</trkpt>
<trkpt lat="40.072842" lon="-105.230575">
  <ele>1586.09</ele>
  <time>2026-08-27T18:27:32Z</time>
  <course>274.89</course>
  <speed>0.0</speed>
  <fix>3d</fix>
</trkpt>
<trkpt lat="40.072842" lon="-105.230575">
  <ele>1586.09</ele>
  <time>2026-08-27T18:27:32Z</time>
  <course>12.1</course>
  <speed>0.01</speed>
  <fix>3d</fix>
</trkpt>
<trkpt lat="40.072842" lon="-105.230575">
  <ele>1586.09</ele>
  <time>2026-08-27T18:27:32Z</time>
  <course>248.59</course>
  <speed>0.0</speed>
  <fix>3d</fix>
</trkpt>
<trkpt lat="40.072842" lon="-105.230575">
  <ele>1586.09</ele>
  <time>2026-08-27T18:27:32Z</time>
  <course>12.1</course>
  <speed>0.01</speed>
  <fix>3d</fix>
</trkpt>
<trkpt lat="40.072842" lon="-105.230575">
  <ele>1586.09</ele>
  <time>2026-08-27T18:27:32Z</time>
  <course>163.71</course>
  <speed>0.0</speed>
  <fix>3d</fix>
</trkpt>
<trkpt lat="40.072842" lon="-105.230575">
  <ele>1586.09</ele>
  <time>2026-08-27T18:27:32Z</time>
  <course>12.09</course>
  <speed>0.01</speed>
  <fix>3d</fix>
</trkpt>
<trkpt lat="40.072842" lon="-105.230575">
  <ele>1586.09</ele>
  <time>2026-08-27T18:27:32Z</time>
  <course>175.24</course>
  <speed>0.0</speed>
  <fix>3d</fix>
</trkpt>
<trkpt lat="40.072842" lon="-105.230575">
  <ele>1586.09</ele>
  <time>2026-08-27T18:27:32Z</time>
  <course>12.09</course>
  <speed>0.01</speed>
  <fix>3d</fix>
</trkpt>
<trkpt lat="40.072842" lon="-105.230575">
  <ele>1586.09</ele>
  <time>2026-08-27T18:27:32Z</time>
  <course>183.48</course>
  <speed>0.0</speed>
  <fix>3d</fix>
</trkpt>
<trkpt lat="40.072842" lon="-105.230575">
  <ele>1586.09</ele>
  <time>2026-08-27T18:27:32Z</time>
  <course>12.08</course>
  <speed>0.01414213562373095</speed>
  <fix>3d</fix>
</trkpt>
<trkpt lat="40.072842" lon="-105.230575">
  <ele>1586.09</ele>
  <time>2026-08-27T18:27:32Z</time>
  <course>180.27</course>
  <speed>0.0</speed>
  <fix>3d</fix>
</trkpt>
<trkpt lat="40.072842" lon="-105.230575">
  <ele>1586.09</ele>
  <time>2026-08-27T18:27:32Z</time>
  <course>12.07</course>
  <speed>0.01414213562373095</speed>
  <fix>3d</fix>
</trkpt>
<trkpt lat="40.072842" lon="-105.230575">
  <ele>1586.09</ele>
  <time>2026-08-27T18:27:32Z</time>
  <course>237.49</course>
  <speed>0.0</speed>
  <fix>3d</fix>
</trkpt>
<trkpt lat="40.072842" lon="-105.230575">
  <ele>1586.09</ele>
  <time>2026-08-27T18:27:32Z</time>
  <course>12.07</course>
  <speed>0.01414213562373095</speed>
  <fix>3d</fix>
</trkpt>
<trkpt lat="40.072842" lon="-105.230575">
  <ele>1586.09</ele>
  <time>2026-08-27T18:27:32Z</time>
  <course>237.49</course>
  <speed>0.0</speed>
  <fix>3d</fix>
</trkpt>
<trkpt lat="40.072842" lon="-105.230575">
  <ele>1586.09</ele>
  <time>2026-08-27T18:27:32Z</time>
  <course>12.06</course>
  <speed>0.01414213562373095</speed>
  <fix>3d</fix>
</trkpt>
<trkpt lat="40.072842" lon="-105.230575">
  <ele>1586.09</ele>
  <time>2026-08-27T18:27:32Z</time>
  <course>237.49</course>
  <speed>0.0</speed>
  <fix>3d</fix>
</trkpt>
<trkpt lat="40.072842" lon="-105.230575">
  <ele>1586.09</ele>
  <time>2026-08-27T18:27:32Z</time>
  <course>12.05</course>
  <speed>0.01414213562373095</speed>
  <fix>3d</fix>
</trkpt>
<trkpt lat="40.072842" lon="-105.230575">
  <ele>1586.09</ele>
  <time>2026-08-27T18:27:32Z</time>
  <course>57.47</course>
  <speed>0.0</speed>
  <fix>3d</fix>
</trkpt>
<trkpt lat="40.072842" lon="-105.230575">
  <ele>1586.09</ele>
  <time>2026-08-27T18:27:32Z</time>
  <course>12.05</course>
  <speed>0.01414213562373095</speed>
  <fix>3d</fix>
</trkpt>
<trkpt lat="40.072842" lon="-105.230575">
  <ele>1586.09</ele>
  <time>2026-08-27T18:27:32Z</time>
  <course>57.35</course>
  <speed>0.0</speed>
  <fix>3d</fix>
</trkpt>
<trkpt lat="40.072842" lon="-105.230575">
  <ele>1586.09</ele>
  <time>2026-08-27T18:27:32Z</time>
  <course>12.04</course>
  <speed>0.01414213562373095</speed>
  <fix>3d</fix>
</trkpt>
<trkpt lat="40.072842" lon="-105.230575">
  <ele>1586.09</ele>
  <time>2026-08-27T18:27:32Z</time>
  <course>237.52</course>
  <speed>0.0</speed>
  <fix>3d</fix>
</trkpt>
<trkpt lat="40.072842" lon="-105.230575">
  <ele>1586.09</ele>
  <time>2026-08-27T18:27:32Z</time>
  <course>12.03</course>
  <speed>0.01414213562373095</speed>
  <fix>3d</fix>
</trkpt>
<trkpt lat="40.072842" lon="-105.230575">
  <ele>1586.09</ele>
  <time>2026-08-27T18:27:32Z</time>
  <course>237.55</course>
  <speed>0.0</speed>
  <fix>3d</fix>
</trkpt>
<trkpt lat="40.072842" lon="-105.230575">
  <ele>1586.09</ele>
  <time>2026-08-27T18:27:32Z</time>
  <course>12.02</course>
  <speed>0.01414213562373095</speed>
  <fix>3d</fix>
</trkpt>
<trkpt lat="40.072842" lon="-105.230575">
  <ele>1586.09</ele>
  <time>2026-08-27T18:27:32Z</time>
  <course>237.56</course>
  <speed>0.0</speed>
  <fix>3d</fix>
</trkpt>
<trkpt lat="40.072842" lon="-105.230575">
  <ele>1586.09</ele>
  <time>2026-08-27T18:27:32Z</time>
  <course>12.02</course>
  <speed>0.01414213562373095</speed>
  <fix>3d</fix>
</trkpt>
<trkpt lat="40.072842" lon="-105.230575">
  <ele>1586.09</ele>
  <time>2026-08-27T18:27:32Z</time>
  <course>237.55</course>
  <speed>0.0</speed>
  <fix>3d</fix>
</trkpt>
<trkpt lat="40.072842" lon="-105.230575">
  <ele>1586.09</ele>
  <time>2026-08-27T18:27:32Z</time>
  <course>12.01</course>
  <speed>0.01414213562373095</speed>
  <fix>3d</fix>
</trkpt>
<trkpt lat="40.072842" lon="-105.230575">
  <ele>1586.09</ele>
  <time>2026-08-27T18:27:32Z</time>
  <course>237.55</course>
  <speed>0.0</speed>
  <fix>3d</fix>
</trkpt>
<trkpt lat="40.072842" lon="-105.230575">
  <ele>1586.09</ele>
  <time>2026-08-27T18:27:32Z</time>
  <course>12.0</course>
  <speed>0.01414213562373095</speed>
  <fix>3d</fix>
</trkpt>
<trkpt lat="40.072842" lon="-105.230575">
  <ele>1586.09</ele>
  <time>2026-08-27T18:27:32Z</time>
  <course>237.55</course>
  <speed>0.0</speed>
  <fix>3d</fix>
</trkpt>
<trkpt lat="40.072842" lon="-105.230575">
  <ele>1586.09</ele>
  <time>2026-08-27T18:27:32Z</time>
  <course>11.99</course>
  <speed>0.01414213562373095</speed>
  <fix>3d</fix>
</trkpt>
<trkpt lat="40.072842" lon="-105.230575">
  <ele>1586.09</ele>
  <time>2026-08-27T18:27:32Z</time>
  <course>237.55</course>
  <speed>0.0</speed>
  <fix>3d</fix>
</trkpt>
<trkpt lat="40.072842" lon="-105.230575">
  <ele>1586.09</ele>
  <time>2026-08-27T18:27:32Z</time>
  <course>11.99</course>
  <speed>0.01414213562373095</speed>
  <fix>3d</fix>
</trkpt>
<trkpt lat="40.072842" lon="-105.230575">
  <ele>1586.09</ele>
  <time>2026-08-27T18:27:32Z</time>
  <course>237.55</course>
  <speed>0.0</speed>
  <fix>3d</fix>
</trkpt>
<trkpt lat="40.072842" lon="-105.230575">
  <ele>1586.09</ele>
  <time>2026-08-27T18:27:32Z</time>
  <course>11.98</course>
  <speed>0.01414213562373095</speed>
  <fix>3d</fix>
</trkpt>
<trkpt lat="40.072842" lon="-105.230575">
  <ele>1586.09</ele>
  <time>2026-08-27T18:27:32Z</time>
  <course>237.55</course>
  <speed>0.0</speed>
  <fix>3d</fix>
</trkpt>
<trkpt lat="40.072842" lon="-105.230575">
  <ele>1586.09</ele>
  <time>2026-08-27T18:27:32Z</time>
  <course>11.97</course>
  <speed>0.01414213562373095</speed>
  <fix>3d</fix>
</trkpt>
<trkpt lat="40.072842" lon="-105.230575">
  <ele>1586.09</ele>
  <time>2026-08-27T18:27:32Z</time>
  <course>237.55</course>
  <speed>0.0</speed>
  <fix>3d</fix>
</trkpt>
<trkpt lat="40.072842" lon="-105.230575">
  <ele>1586.09</ele>
  <time>2026-08-27T18:27:32Z</time>
  <course>11.96</course>
  <speed>0.01414213562373095</speed>
  <fix>3d</fix>
</trkpt>
<trkpt lat="40.072842" lon="-105.230575">
  <ele>1586.09</ele>
  <time>2026-08-27T18:27:32Z</time>
  <course>237.55</course>
  <speed>0.0</speed>
  <fix>3d</fix>
</trkpt>
<trkpt lat="40.072842" lon="-105.230575">
  <ele>1586.09</ele>
  <time>2026-08-27T18:27:32Z</time>
  <course>11.95</course>
  <speed>0.022360679774997897</speed>
  <fix>3d</fix>
</trkpt>
<trkpt lat="40.072842" lon="-105.230575">
  <ele>1586.09</ele>
  <time>2026-08-27T18:27:32Z</time>
  <course>237.55</course>
  <speed>0.0</speed>
  <fix>3d</fix>
</trkpt>
<trkpt lat="40.072842" lon="-105.230575">
  <ele>1586.09</ele>
  <time>2026-08-27T18:27:32Z</time>
  <course>11.95</course>
  <speed>0.022360679774997897</speed>
  <fix>3d</fix>
</trkpt>
<trkpt lat="40.072842" lon="-105.230575">
  <ele>1586.09</ele>
  <time>2026-08-27T18:27:32Z</time>
  <course>237.55</course>
  <speed>0.0</speed>
  <fix>3d</fix>
</trkpt>
<trkpt lat="40.072842" lon="-105.230575">
  <ele>1586.09</ele>
  <time>2026-08-27T18:27:32Z</time>
  <course>11.94</course>
  <speed>0.022360679774997897</speed>
  <fix>3d</fix>
</trkpt>
<trkpt lat="40.072842" lon="-105.230575">
  <ele>1586.09</ele>
  <time>2026-08-27T18:27:32Z</time>
  <course>237.55</course>
  <speed>0.0</speed>
  <fix>3d</fix>
</trkpt>
<trkpt lat="40.072842" lon="-105.230575">
  <ele>1586.09</ele>
  <time>2026-08-27T18:27:32Z</time>
  <course>11.93</course>
  <speed>0.022360679774997897</speed>
  <fix>3d</fix>
</trkpt>
<trkpt lat="40.072842" lon="-105.230575">
  <ele>1586.09</ele>
  <time>2026-08-27T18:27:32Z</time>
  <course>237.55</course>
  <speed>0.0</speed>
  <fix>3d</fix>
</trkpt>
<trkpt lat="40.072842" lon="-105.230575">
  <ele>1586.09</ele>
  <time>2026-08-27T18:27:32Z</time>
  <course>11.92</course>
  <speed>0.022360679774997897</speed>
  <fix>3d</fix>
</trkpt>
<trkpt lat="40.072842" lon="-105.230575">
  <ele>1586.09</ele>
  <time>2026-08-27T18:27:32Z</time>
  <course>237.55</course>
  <speed>0.0</speed>
  <fix>3d</fix>
</trkpt>
<trkpt lat="40.072842" lon="-105.230575">
  <ele>1586.09</ele>
  <time>2026-08-27T18:27:32Z</time>
  <course>11.91</course>
  <speed>0.022360679774997897</speed>
  <fix>3d</fix>
</trkpt>
<trkpt lat="40.072842" lon="-105.230575">
  <ele>1586.09</ele>
  <time>2026-08-27T18:27:32Z</time>
  <course>237.55</course>
  <speed>0.0</speed>
  <fix>3d</fix>
</trkpt>
<trkpt lat="40.072842" lon="-105.230575">
  <ele>1586.09</ele>
  <time>2026-08-27T18:27:32Z</time>
  <course>11.91</course>
  <speed>0.022360679774997897</speed>
  <fix>3d</fix>
</trkpt>
<trkpt lat="40.072842" lon="-105.230575">
  <ele>1586.09</ele>
  <time>2026-08-27T18:27:32Z</time>
  <course>237.55</course>
  <speed>0.0</speed>
  <fix>3d</fix>
</trkpt>
<trkpt lat="40.072842" lon="-105.230575">
  <ele>1586.09</ele>
  <time>2026-08-27T18:27:32Z</time>
  <course>11.9</course>
  <speed>0.022360679774997897</speed>
  <fix>3d</fix>
</trkpt>
<trkpt lat="40.072842" lon="-105.230575">
  <ele>1586.09</ele>
  <time>2026-08-27T18:27:32Z</time>
  <course>237.55</course>
  <speed>0.0</speed>
  <fix>3d</fix>
</trkpt>
<trkpt lat="40.072842" lon="-105.230575">
  <ele>1586.09</ele>
  <time>2026-08-27T18:27:32Z</time>
  <course>11.89</course>
  <speed>0.022360679774997897</speed>
  <fix>3d</fix>
</trkpt>
<trkpt lat="40.072842" lon="-105.230575">
  <ele>1586.09</ele>
  <time>2026-08-27T18:27:32Z</time>
  <course>237.55</course>
  <speed>0.0</speed>
  <fix>3d</fix>
</trkpt>
<trkpt lat="40.072842" lon="-105.230575">
  <ele>1586.09</ele>
  <time>2026-08-27T18:27:32Z</time>
  <course>11.88</course>
  <speed>0.022360679774997897</speed>
  <fix>3d</fix>
</trkpt>
<trkpt lat="40.072842" lon="-105.230575">
  <ele>1586.09</ele>
  <time>2026-08-27T18:27:32Z</time>
  <course>293.77</course>
  <speed>0.0</speed>
  <fix>3d</fix>
</trkpt>
<trkpt lat="40.072842" lon="-105.230575">
  <ele>1586.09</ele>
  <time>2026-08-27T18:27:32Z</time>
  <course>11.87</course>
  <speed>0.022360679774997897</speed>
  <fix>3d</fix>
</trkpt>
<trkpt lat="40.072842" lon="-105.230575">
  <ele>1586.09</ele>
  <time>2026-08-27T18:27:32Z</time>
  <course>286.06</course>
  <speed>0.0</speed>
  <fix>3d</fix>
</trkpt>
<trkpt lat="40.072842" lon="-105.230575">
  <ele>1586.09</ele>
  <time>2026-08-27T18:27:32Z</time>
  <course>11.86</course>
  <speed>0.022360679774997897</speed>
  <fix>3d</fix>
</trkpt>
<trkpt lat="40.072842" lon="-105.230575">
  <ele>1586.09</ele>
  <time>2026-08-27T18:27:32Z</time>
  <course>133.93</course>
  <speed>0.0</speed>
  <fix>3d</fix>
</trkpt>
<trkpt lat="40.072842" lon="-105.230575">
  <ele>1586.09</ele>
  <time>2026-08-27T18:27:32Z</time>
  <course>11.86</course>
  <speed>0.022360679774997897</speed>
  <fix>3d</fix>
</trkpt>
<trkpt lat="40.072842" lon="-105.230575">
  <ele>1586.09</ele>
  <time>2026-08-27T18:27:32Z</time>
  <course>298.64</course>
  <speed>0.0</speed>
  <fix>3d</fix>
</trkpt>
<trkpt lat="40.072842" lon="-105.230575">
  <ele>1586.09</ele>
  <time>2026-08-27T18:27:32Z</time>
  <course>11.85</course>
  <speed>0.022360679774997897</speed>
  <fix>3d</fix>
</trkpt>
<trkpt lat="40.072842" lon="-105.230575">
  <ele>1586.09</ele>
  <time>2026-08-27T18:27:32Z</time>
  <course>300.97</course>
  <speed>0.0</speed>
  <fix>3d</fix>
</trkpt>
<trkpt lat="40.072842" lon="-105.230575">
  <ele>1586.09</ele>
  <time>2026-08-27T18:27:32Z</time>
  <course>11.84</course>
  <speed>0.022360679774997897</speed>
  <fix>3d</fix>
</trkpt>
<trkpt lat="40.072842" lon="-105.230575">
  <ele>1586.09</ele>
  <time>2026-08-27T18:27:32Z</time>
  <course>295.76</course>
  <speed>0.0</speed>
  <fix>3d</fix>
</trkpt>
<trkpt lat="40.072842" lon="-105.230575">
  <ele>1586.09</ele>
  <time>2026-08-27T18:27:32Z</time>
  <course>11.83</course>
  <speed>0.022360679774997897</speed>
  <fix>3d</fix>
</trkpt>
<trkpt lat="40.072842" lon="-105.230575">
  <ele>1586.09</ele>
  <time>2026-08-27T18:27:32Z</time>
  <course>124.42</course>
  <speed>0.0</speed>
  <fix>3d</fix>
</trkpt>
<trkpt lat="40.072842" lon="-105.230575">
  <ele>1586.09</ele>
  <time>2026-08-27T18:27:32Z</time>
  <course>11.82</course>
  <speed>0.022360679774997897</speed>
  <fix>3d</fix>
</trkpt>
<trkpt lat="40.072842" lon="-105.230575">
  <ele>1586.09</ele>
  <time>2026-08-27T18:27:32Z</time>
  <course>293.38</course>
  <speed>0.0</speed>
  <fix>3d</fix>
</trkpt>
<trkpt lat="40.072842" lon="-105.230575">
  <ele>1586.09</ele>
  <time>2026-08-27T18:27:32Z</time>
  <course>11.82</course>
  <speed>0.0282842712474619</speed>
  <fix>3d</fix>
</trkpt>
<trkpt lat="40.072842" lon="-105.230575">
  <ele>1586.09</ele>
  <time>2026-08-27T18:27:32Z</time>
  <course>300.67</course>
  <speed>0.0</speed>
  <fix>3d</fix>
</trkpt>
<trkpt lat="40.072842" lon="-105.230575">
  <ele>1586.09</ele>
  <time>2026-08-27T18:27:32Z</time>
  <course>11.81</course>
  <speed>0.0282842712474619</speed>
  <fix>3d</fix>
</trkpt>
<trkpt lat="40.072842" lon="-105.230575">
  <ele>1586.09</ele>
  <time>2026-08-27T18:27:32Z</time>
  <course>288.37</course>
  <speed>0.0</speed>
  <fix>3d</fix>
</trkpt>
<trkpt lat="40.072842" lon="-105.230575">
  <ele>1586.09</ele>
  <time>2026-08-27T18:27:32Z</time>
  <course>11.8</course>
  <speed>0.0282842712474619</speed>
  <fix>3d</fix>
</trkpt>
<trkpt lat="40.072842" lon="-105.230575">
  <ele>1586.09</ele>
  <time>2026-08-27T18:27:32Z</time>
  <course>138.2</course>
  <speed>0.0</speed>
  <fix>3d</fix>
</trkpt>
<trkpt lat="40.072842" lon="-105.230575">
  <ele>1586.09</ele>
  <time>2026-08-27T18:27:32Z</time>
  <course>11.79</course>
  <speed>0.0282842712474619</speed>
  <fix>3d</fix>
</trkpt>
<trkpt lat="40.072842" lon="-105.230575">
  <ele>1586.09</ele>
  <time>2026-08-27T18:27:32Z</time>
  <course>280.71</course>
  <speed>0.0</speed>
  <fix>3d</fix>
</trkpt>
<trkpt lat="40.072842" lon="-105.230575">
  <ele>1586.09</ele>
  <time>2026-08-27T18:27:32Z</time>
  <course>11.78</course>
  <speed>0.0282842712474619</speed>
  <fix>3d</fix>
</trkpt>
<trkpt lat="40.072842" lon="-105.230575">
  <ele>1586.09</ele>
  <time>2026-08-27T18:27:32Z</time>
  <course>287.76</course>
  <speed>0.0</speed>
  <fix>3d</fix>
</trkpt>
<trkpt lat="40.072842" lon="-105.230575">
  <ele>1586.09</ele>
  <time>2026-08-27T18:27:32Z</time>
  <course>11.78</course>
  <speed>0.0282842712474619</speed>
  <fix>3d</fix>
</trkpt>
<trkpt lat="40.072842" lon="-105.230575">
  <ele>1586.09</ele>
  <time>2026-08-27T18:27:32Z</time>
  <course>266.75</course>
  <speed>0.0</speed>
  <fix>3d</fix>
</trkpt>
<trkpt lat="40.072842" lon="-105.230575">
  <ele>1586.09</ele>
  <time>2026-08-27T18:27:32Z</time>
  <course>11.77</course>
  <speed>0.0282842712474619</speed>
  <fix>3d</fix>
</trkpt>
<trkpt lat="40.072842" lon="-105.230575">
  <ele>1586.09</ele>
  <time>2026-08-27T18:27:32Z</time>
  <course>264.98</course>
  <speed>0.0</speed>
  <fix>3d</fix>
</trkpt>
<trkpt lat="40.072842" lon="-105.230575">
  <ele>1586.09</ele>
  <time>2026-08-27T18:27:32Z</time>
  <course>11.76</course>
  <speed>0.0282842712474619</speed>
  <fix>3d</fix>
</trkpt>
<trkpt lat="40.072842" lon="-105.230575">
  <ele>1586.09</ele>
  <time>2026-08-27T18:27:32Z</time>
  <course>270.91</course>
  <speed>0.0</speed>
  <fix>3d</fix>
</trkpt>
<trkpt lat="40.072842" lon="-105.230575">
  <ele>1586.09</ele>
  <time>2026-08-27T18:27:32Z</time>
  <course>11.76</course>
  <speed>0.0282842712474619</speed>
  <fix>3d</fix>
</trkpt>
<trkpt lat="40.072842" lon="-105.230575">
  <ele>1586.09</ele>
  <time>2026-08-27T18:27:32Z</time>
  <course>270.47</course>
  <speed>0.0</speed>
  <fix>3d</fix>
</trkpt>
<trkpt lat="40.072842" lon="-105.230575">
  <ele>1586.09</ele>
  <time>2026-08-27T18:27:32Z</time>
  <course>11.75</course>
  <speed>0.0282842712474619</speed>
  <fix>3d</fix>
</trkpt>
<trkpt lat="40.072842" lon="-105.230575">
  <ele>1586.09</ele>
  <time>2026-08-27T18:27:32Z</time>
  <course>269.81</course>
  <speed>0.0</speed>
  <fix>3d</fix>
</trkpt>
<trkpt lat="40.072842" lon="-105.230575">
  <ele>1586.09</ele>
  <time>2026-08-27T18:27:32Z</time>
  <course>11.74</course>
  <speed>0.03605551275463989</speed>
  <fix>3d</fix>
</trkpt>
<trkpt lat="40.072842" lon="-105.230575">
  <ele>1586.09</ele>
  <time>2026-08-27T18:27:32Z</time>
  <course>285.25</course>
  <speed>0.0</speed>
  <fix>3d</fix>
</trkpt>
<trkpt lat="40.072842" lon="-105.230575">
  <ele>1586.09</ele>
  <time>2026-08-27T18:27:32Z</time>
  <course>11.73</course>
  <speed>0.03605551275463989</speed>
  <fix>3d</fix>
</trkpt>
<trkpt lat="40.072842" lon="-105.230575">
  <ele>1586.09</ele>
  <time>2026-08-27T18:27:32Z</time>
  <course>290.38</course>
  <speed>0.0</speed>
  <fix>3d</fix>
</trkpt>
<trkpt lat="40.072842" lon="-105.230575">
  <ele>1586.09</ele>
  <time>2026-08-27T18:27:32Z</time>
  <course>11.73</course>
  <speed>0.03605551275463989</speed>
  <fix>3d</fix>
</trkpt>
<trkpt lat="40.072842" lon="-105.230575">
  <ele>1586.09</ele>
  <time>2026-08-27T18:27:32Z</time>
  <course>282.33</course>
  <speed>0.0</speed>
  <fix>3d</fix>
</trkpt>
<trkpt lat="40.072842" lon="-105.230575">
  <ele>1586.09</ele>
  <time>2026-08-27T18:27:32Z</time>
  <course>11.72</course>
  <speed>0.03605551275463989</speed>
  <fix>3d</fix>
</trkpt>
<trkpt lat="40.072842" lon="-105.230575">
  <ele>1586.09</ele>
  <time>2026-08-27T18:27:32Z</time>
  <course>300.37</course>
  <speed>0.0</speed>
  <fix>3d</fix>
</trkpt>
<trkpt lat="40.072842" lon="-105.230575">
  <ele>1586.09</ele>
  <time>2026-08-27T18:27:32Z</time>
  <course>11.71</course>
  <speed>0.03605551275463989</speed>
  <fix>3d</fix>
</trkpt>
<trkpt lat="40.072842" lon="-105.230575">
  <ele>1586.09</ele>
  <time>2026-08-27T18:27:32Z</time>
  <course>301.03</course>
  <speed>0.0</speed>
  <fix>3d</fix>
</trkpt>
<trkpt lat="40.072842" lon="-105.230575">
  <ele>1586.09</ele>
  <time>2026-08-27T18:27:32Z</time>
  <course>11.7</course>
  <speed>0.03605551275463989</speed>
  <fix>3d</fix>
</trkpt>
<trkpt lat="40.072842" lon="-105.230575">
  <ele>1586.09</ele>
  <time>2026-08-27T18:27:32Z</time>
  <course>297.25</course>
  <speed>0.0</speed>
  <fix>3d</fix>
</trkpt>
<trkpt lat="40.072842" lon="-105.230575">
  <ele>1586.09</ele>
  <time>2026-08-27T18:27:32Z</time>
  <course>11.69</course>
  <speed>0.03605551275463989</speed>
  <fix>3d</fix>
</trkpt>
<trkpt lat="40.072842" lon="-105.230575">
  <ele>1586.09</ele>
  <time>2026-08-27T18:27:32Z</time>
  <course>155.93</course>
  <speed>0.0</speed>
  <fix>3d</fix>
</trkpt>
<trkpt lat="40.072842" lon="-105.230575">
  <ele>1586.09</ele>
  <time>2026-08-27T18:27:32Z</time>
  <course>11.69</course>
  <speed>0.03605551275463989</speed>
  <fix>3d</fix>
</trkpt>
<trkpt lat="40.072842" lon="-105.230575">
  <ele>1586.09</ele>
  <time>2026-08-27T18:27:32Z</time>
  <course>277.82</course>
  <speed>0.0</speed>
  <fix>3d</fix>
</trkpt>
<trkpt lat="40.072842" lon="-105.230575">
  <ele>1586.09</ele>
  <time>2026-08-27T18:27:32Z</time>
  <course>11.68</course>
  <speed>0.03605551275463989</speed>
  <fix>3d</fix>
</trkpt>
<trkpt lat="40.072842" lon="-105.230575">
  <ele>1586.09</ele>
  <time>2026-08-27T18:27:32Z</time>
  <course>285.62</course>
  <speed>0.0</speed>
  <fix>3d</fix>
</trkpt>
<trkpt lat="40.072842" lon="-105.230575">
  <ele>1586.09</ele>
  <time>2026-08-27T18:27:32Z</time>
  <course>11.67</course>
  <speed>0.03605551275463989</speed>
  <fix>3d</fix>
</trkpt>
<trkpt lat="40.072842" lon="-105.230575">
  <ele>1586.09</ele>
  <time>2026-08-27T18:27:32Z</time>
  <course>281.9</course>
  <speed>0.0</speed>
  <fix>3d</fix>
</trkpt>
<trkpt lat="40.072842" lon="-105.230575">
  <ele>1586.09</ele>
  <time>2026-08-27T18:27:33Z</time>
  <course>11.67</course>
  <speed>0.03605551275463989</speed>
  <fix>3d</fix>
</trkpt>
<trkpt lat="40.072842" lon="-105.230575">
  <ele>1586.09</ele>
  <time>2026-08-27T18:27:33Z</time>
  <course>281.36</course>
  <speed>0.0</speed>
  <fix>3d</fix>
</trkpt>
<trkpt lat="40.072842" lon="-105.230575">
  <ele>1586.09</ele>
  <time>2026-08-27T18:27:33Z</time>
  <course>11.66</course>
  <speed>0.03605551275463989</speed>
  <fix>3d</fix>
</trkpt>
<trkpt lat="40.072842" lon="-105.230575">
  <ele>1586.09</ele>
  <time>2026-08-27T18:27:33Z</time>
  <course>282.04</course>
  <speed>0.0</speed>
  <fix>3d</fix>
</trkpt>
<trkpt lat="40.072842" lon="-105.230575">
  <ele>1586.09</ele>
  <time>2026-08-27T18:27:33Z</time>
  <course>11.65</course>
  <speed>0.03605551275463989</speed>
  <fix>3d</fix>
</trkpt>
<trkpt lat="40.072842" lon="-105.230575">
  <ele>1586.09</ele>
  <time>2026-08-27T18:27:33Z</time>
  <course>282.03</course>
  <speed>0.0</speed>
  <fix>3d</fix>
</trkpt>
<trkpt lat="40.072842" lon="-105.230575">
  <ele>1586.09</ele>
  <time>2026-08-27T18:27:33Z</time>
  <course>11.65</course>
  <speed>0.03605551275463989</speed>
  <fix>3d</fix>
</trkpt>
<trkpt lat="40.072842" lon="-105.230575">
  <ele>1586.09</ele>
  <time>2026-08-27T18:27:33Z</time>
  <course>281.94</course>
  <speed>0.0</speed>
  <fix>3d</fix>
</trkpt>
<trkpt lat="40.072842" lon="-105.230575">
  <ele>1586.09</ele>
  <time>2026-08-27T18:27:33Z</time>
  <course>11.64</course>
  <speed>0.03605551275463989</speed>
  <fix>3d</fix>
</trkpt>
<trkpt lat="40.072842" lon="-105.230575">
  <ele>1586.09</ele>
  <time>2026-08-27T18:27:33Z</time>
  <course>281.95</course>
  <speed>0.0</speed>
  <fix>3d</fix>
</trkpt>
<trkpt lat="40.072842" lon="-105.230575">
  <ele>1586.09</ele>
  <time>2026-08-27T18:27:33Z</time>
  <course>11.63</course>
  <speed>0.03605551275463989</speed>
  <fix>3d</fix>
</trkpt>
<trkpt lat="40.072842" lon="-105.230575">
  <ele>1586.09</ele>
  <time>2026-08-27T18:27:33Z</time>
  <course>281.96</course>
  <speed>0.0</speed>
  <fix>3d</fix>
</trkpt>
<trkpt lat="40.072842" lon="-105.230575">
  <ele>1586.09</ele>
  <time>2026-08-27T18:27:33Z</time>
  <course>11.62</course>
  <speed>0.03605551275463989</speed>
  <fix>3d</fix>
</trkpt>
<trkpt lat="40.072842" lon="-105.230575">
  <ele>1586.09</ele>
  <time>2026-08-27T18:27:33Z</time>
  <course>281.96</course>
  <speed>0.0</speed>
  <fix>3d</fix>
</trkpt>
<trkpt lat="40.072842" lon="-105.230575">
  <ele>1586.09</ele>
  <time>2026-08-27T18:27:33Z</time>
  <course>11.62</course>
  <speed>0.03605551275463989</speed>
  <fix>3d</fix>
</trkpt>
<trkpt lat="40.072842" lon="-105.230575">
  <ele>1586.09</ele>
  <time>2026-08-27T18:27:33Z</time>
  <course>281.96</course>
  <speed>0.0</speed>
  <fix>3d</fix>
</trkpt>
<trkpt lat="40.072842" lon="-105.230575">
  <ele>1586.09</ele>
  <time>2026-08-27T18:27:33Z</time>
  <course>11.61</course>
  <speed>0.03605551275463989</speed>
  <fix>3d</fix>
</trkpt>
<trkpt lat="40.072842" lon="-105.230575">
  <ele>1586.09</ele>
  <time>2026-08-27T18:27:33Z</time>
  <course>281.96</course>
  <speed>0.0</speed>
  <fix>3d</fix>
</trkpt>
<trkpt lat="40.072842" lon="-105.230575">
  <ele>1586.09</ele>
  <time>2026-08-27T18:27:33Z</time>
  <course>11.61</course>
  <speed>0.03605551275463989</speed>
  <fix>3d</fix>
</trkpt>
<trkpt lat="40.072842" lon="-105.230575">
  <ele>1586.09</ele>
  <time>2026-08-27T18:27:33Z</time>
  <course>281.96</course>
  <speed>0.0</speed>
  <fix>3d</fix>
</trkpt>
<trkpt lat="40.072842" lon="-105.230575">
  <ele>1586.09</ele>
  <time>2026-08-27T18:27:33Z</time>
  <course>11.6</course>
  <speed>0.03605551275463989</speed>
  <fix>3d</fix>
</trkpt>
<trkpt lat="40.072842" lon="-105.230575">
  <ele>1586.09</ele>
  <time>2026-08-27T18:27:33Z</time>
  <course>281.96</course>
  <speed>0.0</speed>
  <fix>3d</fix>
</trkpt>
<trkpt lat="40.072842" lon="-105.230575">
  <ele>1586.09</ele>
  <time>2026-08-27T18:27:33Z</time>
  <course>11.59</course>
  <speed>0.03605551275463989</speed>
  <fix>3d</fix>
</trkpt>
<trkpt lat="40.072842" lon="-105.230575">
  <ele>1586.09</ele>
  <time>2026-08-27T18:27:33Z</time>
  <course>281.96</course>
  <speed>0.0</speed>
  <fix>3d</fix>
</trkpt>
<trkpt lat="40.072842" lon="-105.230575">
  <ele>1586.09</ele>
  <time>2026-08-27T18:27:33Z</time>
  <course>11.59</course>
  <speed>0.03605551275463989</speed>
  <fix>3d</fix>
</trkpt>
<trkpt lat="40.072842" lon="-105.230575">
  <ele>1586.09</ele>
  <time>2026-08-27T18:27:33Z</time>
  <course>281.96</course>
  <speed>0.0</speed>
  <fix>3d</fix>
</trkpt>
<trkpt lat="40.072842" lon="-105.230575">
  <ele>1586.09</ele>
  <time>2026-08-27T18:27:33Z</time>
  <course>11.58</course>
  <speed>0.03605551275463989</speed>
  <fix>3d</fix>
</trkpt>
<trkpt lat="40.072842" lon="-105.230575">
  <ele>1586.09</ele>
  <time>2026-08-27T18:27:33Z</time>
  <course>281.96</course>
  <speed>0.0</speed>
  <fix>3d</fix>
</trkpt>
<trkpt lat="40.072842" lon="-105.230575">
  <ele>1586.09</ele>
  <time>2026-08-27T18:27:33Z</time>
  <course>11.57</course>
  <speed>0.03605551275463989</speed>
  <fix>3d</fix>
</trkpt>
<trkpt lat="40.072842" lon="-105.230575">
  <ele>1586.09</ele>
  <time>2026-08-27T18:27:33Z</time>
  <course>281.96</course>
  <speed>0.0</speed>
  <fix>3d</fix>
</trkpt>
<trkpt lat="40.072842" lon="-105.230575">
  <ele>1586.09</ele>
  <time>2026-08-27T18:27:33Z</time>
  <course>11.57</course>
  <speed>0.03605551275463989</speed>
  <fix>3d</fix>
</trkpt>
<trkpt lat="40.072842" lon="-105.230575">
  <ele>1586.09</ele>
  <time>2026-08-27T18:27:33Z</time>
  <course>281.96</course>
  <speed>0.0</speed>
  <fix>3d</fix>
</trkpt>
<trkpt lat="40.072842" lon="-105.230575">
  <ele>1586.09</ele>
  <time>2026-08-27T18:27:33Z</time>
  <course>11.56</course>
  <speed>0.03605551275463989</speed>
  <fix>3d</fix>
</trkpt>
<trkpt lat="40.072842" lon="-105.230575">
  <ele>1586.09</ele>
  <time>2026-08-27T18:27:33Z</time>
  <course>281.96</course>
  <speed>0.0</speed>
  <fix>3d</fix>
</trkpt>
<trkpt lat="40.072842" lon="-105.230575">
  <ele>1586.09</ele>
  <time>2026-08-27T18:27:33Z</time>
  <course>11.56</course>
  <speed>0.03605551275463989</speed>
  <fix>3d</fix>
</trkpt>
<trkpt lat="40.072842" lon="-105.230575">
  <ele>1586.09</ele>
  <time>2026-08-27T18:27:33Z</time>
  <course>281.96</course>
  <speed>0.0</speed>
  <fix>3d</fix>
</trkpt>
<trkpt lat="40.072842" lon="-105.230575">
  <ele>1586.09</ele>
  <time>2026-08-27T18:27:33Z</time>
  <course>11.55</course>
  <speed>0.03605551275463989</speed>
  <fix>3d</fix>
</trkpt>
<trkpt lat="40.072842" lon="-105.230575">
  <ele>1586.09</ele>
  <time>2026-08-27T18:27:33Z</time>
  <course>281.96</course>
  <speed>0.0</speed>
  <fix>3d</fix>
</trkpt>
<trkpt lat="40.072842" lon="-105.230575">
  <ele>1586.09</ele>
  <time>2026-08-27T18:27:33Z</time>
  <course>11.54</course>
  <speed>0.03605551275463989</speed>
  <fix>3d</fix>
</trkpt>
<trkpt lat="40.072842" lon="-105.230575">
  <ele>1586.09</ele>
  <time>2026-08-27T18:27:33Z</time>
  <course>281.96</course>
  <speed>0.0</speed>
  <fix>3d</fix>
</trkpt>
<trkpt lat="40.072842" lon="-105.230575">
  <ele>1586.09</ele>
  <time>2026-08-27T18:27:33Z</time>
  <course>11.54</course>
  <speed>0.03605551275463989</speed>
  <fix>3d</fix>
</trkpt>
<trkpt lat="40.072842" lon="-105.230575">
  <ele>1586.09</ele>
  <time>2026-08-27T18:27:33Z</time>
  <course>281.96</course>
  <speed>0.0</speed>
  <fix>3d</fix>
</trkpt>
<trkpt lat="40.072842" lon="-105.230575">
  <ele>1586.09</ele>
  <time>2026-08-27T18:27:33Z</time>
  <course>11.53</course>
  <speed>0.03605551275463989</speed>
  <fix>3d</fix>
</trkpt>
<trkpt lat="40.072842" lon="-105.230575">
  <ele>1586.09</ele>
  <time>2026-08-27T18:27:33Z</time>
  <course>281.96</course>
  <speed>0.0</speed>
  <fix>3d</fix>
</trkpt>
<trkpt lat="40.072842" lon="-105.230575">
  <ele>1586.09</ele>
  <time>2026-08-27T18:27:33Z</time>
  <course>11.53</course>
  <speed>0.03605551275463989</speed>
  <fix>3d</fix>
</trkpt>
<trkpt lat="40.072842" lon="-105.230575">
  <ele>1586.09</ele>
  <time>2026-08-27T18:27:33Z</time>
  <course>281.96</course>
  <speed>0.0</speed>
  <fix>3d</fix>
</trkpt>
<trkpt lat="40.072842" lon="-105.230575">
  <ele>1586.09</ele>
  <time>2026-08-27T18:27:33Z</time>
  <course>11.52</course>
  <speed>0.03605551275463989</speed>
  <fix>3d</fix>
</trkpt>
<trkpt lat="40.072842" lon="-105.230575">
  <ele>1586.09</ele>
  <time>2026-08-27T18:27:33Z</time>
  <course>281.96</course>
  <speed>0.0</speed>
  <fix>3d</fix>
</trkpt>
<trkpt lat="40.072842" lon="-105.230575">
  <ele>1586.09</ele>
  <time>2026-08-27T18:27:33Z</time>
  <course>11.51</course>
  <speed>0.03605551275463989</speed>
  <fix>3d</fix>
</trkpt>
<trkpt lat="40.072842" lon="-105.230575">
  <ele>1586.09</ele>
  <time>2026-08-27T18:27:33Z</time>
  <course>281.96</course>
  <speed>0.0</speed>
  <fix>3d</fix>
</trkpt>
<trkpt lat="40.072842" lon="-105.230575">
  <ele>1586.09</ele>
  <time>2026-08-27T18:27:33Z</time>
  <course>11.51</course>
  <speed>0.03605551275463989</speed>
  <fix>3d</fix>
</trkpt>
<trkpt lat="40.072842" lon="-105.230575">
  <ele>1586.09</ele>
  <time>2026-08-27T18:27:33Z</time>
  <course>281.96</course>
  <speed>0.0</speed>
  <fix>3d</fix>
</trkpt>
<trkpt lat="40.072842" lon="-105.230575">
  <ele>1586.09</ele>
  <time>2026-08-27T18:27:33Z</time>
  <course>11.5</course>
  <speed>0.03605551275463989</speed>
  <fix>3d</fix>
</trkpt>
<trkpt lat="40.072842" lon="-105.230575">
  <ele>1586.09</ele>
  <time>2026-08-27T18:27:33Z</time>
  <course>281.96</course>
  <speed>0.0</speed>
  <fix>3d</fix>
</trkpt>
<trkpt lat="40.072842" lon="-105.230575">
  <ele>1586.09</ele>
  <time>2026-08-27T18:27:33Z</time>
  <course>11.5</course>
  <speed>0.03605551275463989</speed>
  <fix>3d</fix>
</trkpt>
<trkpt lat="40.072842" lon="-105.230575">
  <ele>1586.09</ele>
  <time>2026-08-27T18:27:33Z</time>
  <course>281.96</course>
  <speed>0.0</speed>
  <fix>3d</fix>
</trkpt>
<trkpt lat="40.072842" lon="-105.230575">
  <ele>1586.09</ele>
  <time>2026-08-27T18:27:33Z</time>
  <course>11.49</course>
  <speed>0.044721359549995794</speed>
  <fix>3d</fix>
</trkpt>
<trkpt lat="40.072842" lon="-105.230575">
  <ele>1586.09</ele>
  <time>2026-08-27T18:27:33Z</time>
  <course>281.96</course>
  <speed>0.0</speed>
  <fix>3d</fix>
</trkpt>
<trkpt lat="40.072842" lon="-105.230575">
  <ele>1586.09</ele>
  <time>2026-08-27T18:27:33Z</time>
  <course>11.49</course>
  <speed>0.044721359549995794</speed>
  <fix>3d</fix>
</trkpt>
<trkpt lat="40.072842" lon="-105.230575">
  <ele>1586.09</ele>
  <time>2026-08-27T18:27:33Z</time>
  <course>281.96</course>
  <speed>0.0</speed>
  <fix>3d</fix>
</trkpt>
<trkpt lat="40.072842" lon="-105.230575">
  <ele>1586.09</ele>
  <time>2026-08-27T18:27:33Z</time>
  <course>11.48</course>
  <speed>0.044721359549995794</speed>
  <fix>3d</fix>
</trkpt>
<trkpt lat="40.072842" lon="-105.230575">
  <ele>1586.09</ele>
  <time>2026-08-27T18:27:33Z</time>
  <course>281.96</course>
  <speed>0.0</speed>
  <fix>3d</fix>
</trkpt>
<trkpt lat="40.072842" lon="-105.230575">
  <ele>1586.09</ele>
  <time>2026-08-27T18:27:33Z</time>
  <course>11.48</course>
  <speed>0.044721359549995794</speed>
  <fix>3d</fix>
</trkpt>
<trkpt lat="40.072842" lon="-105.230575">
  <ele>1586.09</ele>
  <time>2026-08-27T18:27:33Z</time>
  <course>281.96</course>
  <speed>0.0</speed>
  <fix>3d</fix>
</trkpt>
<trkpt lat="40.072842" lon="-105.230575">
  <ele>1586.09</ele>
  <time>2026-08-27T18:27:33Z</time>
  <course>11.47</course>
  <speed>0.044721359549995794</speed>
  <fix>3d</fix>
</trkpt>
<trkpt lat="40.072842" lon="-105.230575">
  <ele>1586.09</ele>
  <time>2026-08-27T18:27:33Z</time>
  <course>281.96</course>
  <speed>0.0</speed>
  <fix>3d</fix>
</trkpt>
<trkpt lat="40.072842" lon="-105.230575">
  <ele>1586.09</ele>
  <time>2026-08-27T18:27:33Z</time>
  <course>11.47</course>
  <speed>0.044721359549995794</speed>
  <fix>3d</fix>
</trkpt>
<trkpt lat="40.072842" lon="-105.230575">
  <ele>1586.09</ele>
  <time>2026-08-27T18:27:33Z</time>
  <course>281.96</course>
  <speed>0.0</speed>
  <fix>3d</fix>
</trkpt>
<trkpt lat="40.072842" lon="-105.230575">
  <ele>1586.09</ele>
  <time>2026-08-27T18:27:33Z</time>
  <course>11.46</course>
  <speed>0.044721359549995794</speed>
  <fix>3d</fix>
</trkpt>
<trkpt lat="40.072842" lon="-105.230575">
  <ele>1586.09</ele>
  <time>2026-08-27T18:27:33Z</time>
  <course>281.96</course>
  <speed>0.0</speed>
  <fix>3d</fix>
</trkpt>
<trkpt lat="40.072842" lon="-105.230575">
  <ele>1586.09</ele>
  <time>2026-08-27T18:27:33Z</time>
  <course>11.46</course>
  <speed>0.044721359549995794</speed>
  <fix>3d</fix>
</trkpt>
<trkpt lat="40.072842" lon="-105.230575">
  <ele>1586.09</ele>
  <time>2026-08-27T18:27:33Z</time>
  <course>281.96</course>
  <speed>0.0</speed>
  <fix>3d</fix>
</trkpt>
<trkpt lat="40.072842" lon="-105.230575">
  <ele>1586.15</ele>
  <time>2026-08-27T18:27:33Z</time>
  <course>11.45</course>
  <speed>0.0</speed>
  <fix>3d</fix>
</trkpt>
<trkpt lat="40.072842" lon="-105.230575">
  <ele>1586.09</ele>
  <time>2026-08-27T18:27:33Z</time>
  <course>281.96</course>
  <speed>0.0</speed>
  <fix>3d</fix>
</trkpt>
<trkpt lat="40.072842" lon="-105.230575">
  <ele>1586.15</ele>
  <time>2026-08-27T18:27:33Z</time>
  <course>11.45</course>
  <speed>0.0</speed>
  <fix>3d</fix>
</trkpt>
<trkpt lat="40.072842" lon="-105.230575">
  <ele>1586.09</ele>
  <time>2026-08-27T18:27:33Z</time>
  <course>281.96</course>
  <speed>0.0</speed>
  <fix>3d</fix>
</trkpt>
<trkpt lat="40.072842" lon="-105.230575">
  <ele>1586.14</ele>
  <time>2026-08-27T18:27:33Z</time>
  <course>11.44</course>
  <speed>0.0</speed>
  <fix>3d</fix>
</trkpt>
<trkpt lat="40.072842" lon="-105.230575">
  <ele>1586.09</ele>
  <time>2026-08-27T18:27:33Z</time>
  <course>281.96</course>
  <speed>0.0</speed>
  <fix>3d</fix>
</trkpt>
<trkpt lat="40.072842" lon="-105.230575">
  <ele>1586.14</ele>
  <time>2026-08-27T18:27:33Z</time>
  <course>11.44</course>
  <speed>0.0</speed>
  <fix>3d</fix>
</trkpt>
<trkpt lat="40.072842" lon="-105.230575">
  <ele>1586.09</ele>
  <time>2026-08-27T18:27:33Z</time>
  <course>281.96</course>
  <speed>0.0</speed>
  <fix>3d</fix>
</trkpt>
<trkpt lat="40.072842" lon="-105.230575">
  <ele>1586.14</ele>
  <time>2026-08-27T18:27:33Z</time>
  <course>11.43</course>
  <speed>0.0</speed>
  <fix>3d</fix>
</trkpt>
<trkpt lat="40.072842" lon="-105.230575">
  <ele>1586.09</ele>
  <time>2026-08-27T18:27:33Z</time>
  <course>281.96</course>
  <speed>0.0</speed>
  <fix>3d</fix>
</trkpt>
<trkpt lat="40.072842" lon="-105.230575">
  <ele>1586.14</ele>
  <time>2026-08-27T18:27:33Z</time>
  <course>11.43</course>
  <speed>0.01</speed>
  <fix>3d</fix>
</trkpt>
<trkpt lat="40.072842" lon="-105.230575">
  <ele>1586.09</ele>
  <time>2026-08-27T18:27:33Z</time>
  <course>281.96</course>
  <speed>0.0</speed>
  <fix>3d</fix>
</trkpt>
<trkpt lat="40.072842" lon="-105.230575">
  <ele>1586.14</ele>
  <time>2026-08-27T18:27:33Z</time>
  <course>11.42</course>
  <speed>0.01</speed>
  <fix>3d</fix>
</trkpt>
<trkpt lat="40.072842" lon="-105.230575">
  <ele>1586.09</ele>
  <time>2026-08-27T18:27:33Z</time>
  <course>241.03</course>
  <speed>0.0</speed>
  <fix>3d</fix>
</trkpt>
<trkpt lat="40.072842" lon="-105.230575">
  <ele>1586.14</ele>
  <time>2026-08-27T18:27:33Z</time>
  <course>11.42</course>
  <speed>0.01</speed>
  <fix>3d</fix>
</trkpt>
<trkpt lat="40.072842" lon="-105.230575">
  <ele>1586.09</ele>
  <time>2026-08-27T18:27:33Z</time>
  <course>240.38</course>
  <speed>0.0</speed>
  <fix>3d</fix>
</trkpt>
<trkpt lat="40.072842" lon="-105.230575">
  <ele>1586.14</ele>
  <time>2026-08-27T18:27:33Z</time>
  <course>11.41</course>
  <speed>0.01414213562373095</speed>
  <fix>3d</fix>
</trkpt>
<trkpt lat="40.072842" lon="-105.230575">
  <ele>1586.09</ele>
  <time>2026-08-27T18:27:33Z</time>
  <course>256.96</course>
  <speed>0.0</speed>
  <fix>3d</fix>
</trkpt>
<trkpt lat="40.072842" lon="-105.230575">
  <ele>1586.14</ele>
  <time>2026-08-27T18:27:33Z</time>
  <course>11.41</course>
  <speed>0.01414213562373095</speed>
  <fix>3d</fix>
</trkpt>
<trkpt lat="40.072842" lon="-105.230575">
  <ele>1586.09</ele>
  <time>2026-08-27T18:27:33Z</time>
  <course>4.15</course>
  <speed>0.0</speed>
  <fix>3d</fix>
</trkpt>
<trkpt lat="40.072842" lon="-105.230575">
  <ele>1586.15</ele>
  <time>2026-08-27T18:27:33Z</time>
  <course>11.41</course>
  <speed>0.01414213562373095</speed>
  <fix>3d</fix>
</trkpt>
<trkpt lat="40.072842" lon="-105.230575">
  <ele>1586.09</ele>
  <time>2026-08-27T18:27:33Z</time>
  <course>268.1</course>
  <speed>0.0</speed>
  <fix>3d</fix>
</trkpt>
<trkpt lat="40.072842" lon="-105.230575">
  <ele>1586.15</ele>
  <time>2026-08-27T18:27:33Z</time>
  <course>11.4</course>
  <speed>0.022360679774997897</speed>
  <fix>3d</fix>
</trkpt>
<trkpt lat="40.072842" lon="-105.230575">
  <ele>1586.09</ele>
  <time>2026-08-27T18:27:33Z</time>
  <course>265.67</course>
  <speed>0.0</speed>
  <fix>3d</fix>
</trkpt>
<trkpt lat="40.072842" lon="-105.230575">
  <ele>1586.15</ele>
  <time>2026-08-27T18:27:33Z</time>
  <course>11.4</course>
  <speed>0.022360679774997897</speed>
  <fix>3d</fix>
</trkpt>
<trkpt lat="40.072842" lon="-105.230575">
  <ele>1586.09</ele>
  <time>2026-08-27T18:27:33Z</time>
  <course>271.09</course>
  <speed>0.0</speed>
  <fix>3d</fix>
</trkpt>
<trkpt lat="40.072842" lon="-105.230575">
  <ele>1586.16</ele>
  <time>2026-08-27T18:27:33Z</time>
  <course>11.4</course>
  <speed>0.022360679774997897</speed>
  <fix>3d</fix>
</trkpt>
<trkpt lat="40.072842" lon="-105.230575">
  <ele>1586.09</ele>
  <time>2026-08-27T18:27:33Z</time>
  <course>270.63</course>
  <speed>0.0</speed>
  <fix>3d</fix>
</trkpt>
<trkpt lat="40.072842" lon="-105.230575">
  <ele>1586.16</ele>
  <time>2026-08-27T18:27:33Z</time>
  <course>11.39</course>
  <speed>0.022360679774997897</speed>
  <fix>3d</fix>
</trkpt>
<trkpt lat="40.072842" lon="-105.230575">
  <ele>1586.09</ele>
  <time>2026-08-27T18:27:33Z</time>
  <course>269.84</course>
  <speed>0.0</speed>
  <fix>3d</fix>
</trkpt>
<trkpt lat="40.072842" lon="-105.230575">
  <ele>1586.16</ele>
  <time>2026-08-27T18:27:33Z</time>
  <course>11.39</course>
  <speed>0.01414213562373095</speed>
  <fix>3d</fix>
</trkpt>
<trkpt lat="40.072842" lon="-105.230575">
  <ele>1586.09</ele>
  <time>2026-08-27T18:27:33Z</time>
  <course>269.94</course>
  <speed>0.0</speed>
  <fix>3d</fix>
</trkpt>
<trkpt lat="40.072842" lon="-105.230575">
  <ele>1586.16</ele>
  <time>2026-08-27T18:27:33Z</time>
  <course>11.39</course>
  <speed>0.01414213562373095</speed>
  <fix>3d</fix>
</trkpt>
<trkpt lat="40.072842" lon="-105.230575">
  <ele>1586.09</ele>
  <time>2026-08-27T18:27:33Z</time>
  <course>270.03</course>
  <speed>0.0</speed>
  <fix>3d</fix>
</trkpt>
<trkpt lat="40.072842" lon="-105.230575">
  <ele>1586.16</ele>
  <time>2026-08-27T18:27:33Z</time>
  <course>11.38</course>
  <speed>0.01</speed>
  <fix>3d</fix>
</trkpt>
<trkpt lat="40.072842" lon="-105.230575">
  <ele>1586.09</ele>
  <time>2026-08-27T18:27:33Z</time>
  <course>270.0</course>
  <speed>0.0</speed>
  <fix>3d</fix>
</trkpt>
<trkpt lat="40.072842" lon="-105.230575">
  <ele>1586.16</ele>
  <time>2026-08-27T18:27:33Z</time>
  <course>11.38</course>
  <speed>0.0</speed>
  <fix>3d</fix>
</trkpt>
<trkpt lat="40.072842" lon="-105.230575">
  <ele>1586.09</ele>
  <time>2026-08-27T18:27:33Z</time>
  <course>269.99</course>
  <speed>0.0</speed>
  <fix>3d</fix>
</trkpt>
<trkpt lat="40.072842" lon="-105.230575">
  <ele>1586.16</ele>
  <time>2026-08-27T18:27:33Z</time>
  <course>11.37</course>
  <speed>0.0</speed>
  <fix>3d</fix>
</trkpt>
<trkpt lat="40.072842" lon="-105.230575">
  <ele>1586.09</ele>
  <time>2026-08-27T18:27:33Z</time>
  <course>270.0</course>
  <speed>0.0</speed>
  <fix>3d</fix>
</trkpt>
<trkpt lat="40.072842" lon="-105.230575">
  <ele>1586.16</ele>
  <time>2026-08-27T18:27:33Z</time>
  <course>11.37</course>
  <speed>0.0</speed>
  <fix>3d</fix>
</trkpt>
<trkpt lat="40.072842" lon="-105.230575">
  <ele>1586.09</ele>
  <time>2026-08-27T18:27:33Z</time>
  <course>270.0</course>
  <speed>0.0</speed>
  <fix>3d</fix>
</trkpt>
<trkpt lat="40.072842" lon="-105.230575">
  <ele>1586.16</ele>
  <time>2026-08-27T18:27:33Z</time>
  <course>11.37</course>
  <speed>0.0</speed>
  <fix>3d</fix>
</trkpt>
<trkpt lat="40.072842" lon="-105.230575">
  <ele>1586.09</ele>
  <time>2026-08-27T18:27:33Z</time>
  <course>270.0</course>
  <speed>0.0</speed>
  <fix>3d</fix>
</trkpt>
<trkpt lat="40.072842" lon="-105.230575">
  <ele>1586.16</ele>
  <time>2026-08-27T18:27:33Z</time>
  <course>11.36</course>
  <speed>0.0</speed>
  <fix>3d</fix>
</trkpt>
<trkpt lat="40.072842" lon="-105.230575">
  <ele>1586.09</ele>
  <time>2026-08-27T18:27:33Z</time>
  <course>270.0</course>
  <speed>0.0</speed>
  <fix>3d</fix>
</trkpt>
<trkpt lat="40.072842" lon="-105.230575">
  <ele>1586.16</ele>
  <time>2026-08-27T18:27:33Z</time>
  <course>11.36</course>
  <speed>0.0</speed>
  <fix>3d</fix>
</trkpt>
<trkpt lat="40.072842" lon="-105.230575">
  <ele>1586.09</ele>
  <time>2026-08-27T18:27:33Z</time>
  <course>270.0</course>
  <speed>0.0</speed>
  <fix>3d</fix>
</trkpt>
<trkpt lat="40.072842" lon="-105.230575">
  <ele>1586.16</ele>
  <time>2026-08-27T18:27:33Z</time>
  <course>11.36</course>
  <speed>0.0</speed>
  <fix>3d</fix>
</trkpt>
<trkpt lat="40.072842" lon="-105.230575">
  <ele>1586.09</ele>
  <time>2026-08-27T18:27:33Z</time>
  <course>270.0</course>
  <speed>0.0</speed>
  <fix>3d</fix>
</trkpt>
<trkpt lat="40.072842" lon="-105.230575">
  <ele>1586.16</ele>
  <time>2026-08-27T18:27:33Z</time>
  <course>11.35</course>
  <speed>0.0</speed>
  <fix>3d</fix>
</trkpt>
<trkpt lat="40.072842" lon="-105.230575">
  <ele>1586.09</ele>
  <time>2026-08-27T18:27:33Z</time>
  <course>270.0</course>
  <speed>0.0</speed>
  <fix>3d</fix>
</trkpt>
<trkpt lat="40.072842" lon="-105.230575">
  <ele>1586.16</ele>
  <time>2026-08-27T18:27:33Z</time>
  <course>11.35</course>
  <speed>0.0</speed>
  <fix>3d</fix>
</trkpt>
<trkpt lat="40.072842" lon="-105.230575">
  <ele>1586.09</ele>
  <time>2026-08-27T18:27:33Z</time>
  <course>270.0</course>
  <speed>0.0</speed>
  <fix>3d</fix>
</trkpt>
<trkpt lat="40.072842" lon="-105.230575">
  <ele>1586.16</ele>
  <time>2026-08-27T18:27:33Z</time>
  <course>11.35</course>
  <speed>0.0</speed>
  <fix>3d</fix>
</trkpt>
<trkpt lat="40.072842" lon="-105.230575">
  <ele>1586.09</ele>
  <time>2026-08-27T18:27:33Z</time>
  <course>299.02</course>
  <speed>0.0</speed>
  <fix>3d</fix>
</trkpt>
<trkpt lat="40.072842" lon="-105.230575">
  <ele>1586.16</ele>
  <time>2026-08-27T18:27:33Z</time>
  <course>11.35</course>
  <speed>0.0</speed>
  <fix>3d</fix>
</trkpt>
<trkpt lat="40.072842" lon="-105.230575">
  <ele>1586.09</ele>
  <time>2026-08-27T18:27:33Z</time>
  <course>274.48</course>
  <speed>0.0</speed>
  <fix>3d</fix>
</trkpt>
<trkpt lat="40.072842" lon="-105.230575">
  <ele>1586.16</ele>
  <time>2026-08-27T18:27:33Z</time>
  <course>11.34</course>
  <speed>0.0</speed>
  <fix>3d</fix>
</trkpt>
<trkpt lat="40.072842" lon="-105.230575">
  <ele>1586.09</ele>
  <time>2026-08-27T18:27:33Z</time>
  <course>247.22</course>
  <speed>0.0</speed>
  <fix>3d</fix>
</trkpt>
<trkpt lat="40.072842" lon="-105.230575">
  <ele>1586.16</ele>
  <time>2026-08-27T18:27:33Z</time>
  <course>11.34</course>
  <speed>0.0</speed>
  <fix>3d</fix>
</trkpt>
<trkpt lat="40.072842" lon="-105.230575">
  <ele>1586.09</ele>
  <time>2026-08-27T18:27:33Z</time>
  <course>219.99</course>
  <speed>0.0</speed>
  <fix>3d</fix>
</trkpt>
<trkpt lat="40.072842" lon="-105.230575">
  <ele>1586.16</ele>
  <time>2026-08-27T18:27:33Z</time>
  <course>11.34</course>
  <speed>0.0</speed>
  <fix>3d</fix>
</trkpt>
<trkpt lat="40.072842" lon="-105.230575">
  <ele>1586.09</ele>
  <time>2026-08-27T18:27:33Z</time>
  <course>325.21</course>
  <speed>0.0</speed>
  <fix>3d</fix>
</trkpt>
<trkpt lat="40.072842" lon="-105.230575">
  <ele>1586.16</ele>
  <time>2026-08-27T18:27:33Z</time>
  <course>11.34</course>
  <speed>0.0</speed>
  <fix>3d</fix>
</trkpt>
<trkpt lat="40.072842" lon="-105.230575">
  <ele>1586.09</ele>
  <time>2026-08-27T18:27:33Z</time>
  <course>271.9</course>
  <speed>0.0</speed>
  <fix>3d</fix>
</trkpt>
<trkpt lat="40.072842" lon="-105.230575">
  <ele>1586.16</ele>
  <time>2026-08-27T18:27:33Z</time>
  <course>11.34</course>
  <speed>0.0</speed>
  <fix>3d</fix>
</trkpt>
<trkpt lat="40.072842" lon="-105.230575">
  <ele>1586.09</ele>
  <time>2026-08-27T18:27:33Z</time>
  <course>271.95</course>
  <speed>0.0</speed>
  <fix>3d</fix>
</trkpt>
<trkpt lat="40.072842" lon="-105.230575">
  <ele>1586.16</ele>
  <time>2026-08-27T18:27:33Z</time>
  <course>11.33</course>
  <speed>0.0</speed>
  <fix>3d</fix>
</trkpt>
<trkpt lat="40.072842" lon="-105.230575">
  <ele>1586.09</ele>
  <time>2026-08-27T18:27:33Z</time>
  <course>265.95</course>
  <speed>0.0</speed>
  <fix>3d</fix>
</trkpt>
<trkpt lat="40.072842" lon="-105.230575">
  <ele>1586.16</ele>
  <time>2026-08-27T18:27:33Z</time>
  <course>11.33</course>
  <speed>0.0</speed>
  <fix>3d</fix>
</trkpt>
<trkpt lat="40.072842" lon="-105.230575">
  <ele>1586.09</ele>
  <time>2026-08-27T18:27:33Z</time>
  <course>265.89</course>
  <speed>0.0</speed>
  <fix>3d</fix>
</trkpt>
<trkpt lat="40.072842" lon="-105.230575">
  <ele>1586.16</ele>
  <time>2026-08-27T18:27:33Z</time>
  <course>11.33</course>
  <speed>0.0</speed>
  <fix>3d</fix>
</trkpt>
<trkpt lat="40.072842" lon="-105.230575">
  <ele>1586.09</ele>
  <time>2026-08-27T18:27:33Z</time>
  <course>278.03</course>
  <speed>0.0</speed>
  <fix>3d</fix>
</trkpt>
<trkpt lat="40.072842" lon="-105.230575">
  <ele>1586.16</ele>
  <time>2026-08-27T18:27:33Z</time>
  <course>11.33</course>
  <speed>0.0</speed>
  <fix>3d</fix>
</trkpt>
<trkpt lat="40.072842" lon="-105.230575">
  <ele>1586.09</ele>
  <time>2026-08-27T18:27:33Z</time>
  <course>313.44</course>
  <speed>0.0</speed>
  <fix>3d</fix>
</trkpt>
<trkpt lat="40.072842" lon="-105.230575">
  <ele>1586.16</ele>
  <time>2026-08-27T18:27:33Z</time>
  <course>11.33</course>
  <speed>0.0</speed>
  <fix>3d</fix>
</trkpt>
<trkpt lat="40.072842" lon="-105.230575">
  <ele>1586.09</ele>
  <time>2026-08-27T18:27:33Z</time>
  <course>263.98</course>
  <speed>0.0</speed>
  <fix>3d</fix>
</trkpt>
<trkpt lat="40.072842" lon="-105.230575">
  <ele>1586.17</ele>
  <time>2026-08-27T18:27:33Z</time>
  <course>11.33</course>
  <speed>0.0</speed>
  <fix>3d</fix>
</trkpt>
<trkpt lat="40.072842" lon="-105.230575">
  <ele>1586.09</ele>
  <time>2026-08-27T18:27:33Z</time>
  <course>269.63</course>
  <speed>0.0</speed>
  <fix>3d</fix>
</trkpt>
<trkpt lat="40.072842" lon="-105.230575">
  <ele>1586.17</ele>
  <time>2026-08-27T18:27:33Z</time>
  <course>11.33</course>
  <speed>0.0</speed>
  <fix>3d</fix>
</trkpt>
<trkpt lat="40.072842" lon="-105.230575">
  <ele>1586.09</ele>
  <time>2026-08-27T18:27:33Z</time>
  <course>247.46</course>
  <speed>0.0</speed>
  <fix>3d</fix>
</trkpt>
<trkpt lat="40.072842" lon="-105.230575">
  <ele>1586.17</ele>
  <time>2026-08-27T18:27:33Z</time>
  <course>11.33</course>
  <speed>0.01</speed>
  <fix>3d</fix>
</trkpt>
<trkpt lat="40.072842" lon="-105.230575">
  <ele>1586.09</ele>
  <time>2026-08-27T18:27:33Z</time>
  <course>265.3</course>
  <speed>0.0</speed>
  <fix>3d</fix>
</trkpt>
<trkpt lat="40.072842" lon="-105.230575">
  <ele>1586.17</ele>
  <time>2026-08-27T18:27:33Z</time>
  <course>11.33</course>
  <speed>0.01</speed>
  <fix>3d</fix>
</trkpt>
<trkpt lat="40.072842" lon="-105.230575">
  <ele>1586.09</ele>
  <time>2026-08-27T18:27:33Z</time>
  <course>282.34</course>
  <speed>0.0</speed>
  <fix>3d</fix>
</trkpt>
<trkpt lat="40.072842" lon="-105.230575">
  <ele>1586.18</ele>
  <time>2026-08-27T18:27:33Z</time>
  <course>11.33</course>
  <speed>0.01</speed>
  <fix>3d</fix>
</trkpt>
<trkpt lat="40.072842" lon="-105.230575">
  <ele>1586.09</ele>
  <time>2026-08-27T18:27:33Z</time>
  <course>296.26</course>
  <speed>0.0</speed>
  <fix>3d</fix>
</trkpt>
<trkpt lat="40.072842" lon="-105.230575">
  <ele>1586.18</ele>
  <time>2026-08-27T18:27:33Z</time>
  <course>11.33</course>
  <speed>0.01</speed>
  <fix>3d</fix>
</trkpt>
<trkpt lat="40.072842" lon="-105.230575">
  <ele>1586.09</ele>
  <time>2026-08-27T18:27:33Z</time>
  <course>251.64</course>
  <speed>0.0</speed>
  <fix>3d</fix>
</trkpt>
<trkpt lat="40.072842" lon="-105.230575">
  <ele>1586.18</ele>
  <time>2026-08-27T18:27:33Z</time>
  <course>11.33</course>
  <speed>0.01</speed>
  <fix>3d</fix>
</trkpt>
<trkpt lat="40.072842" lon="-105.230575">
  <ele>1586.09</ele>
  <time>2026-08-27T18:27:33Z</time>
  <course>292.37</course>
  <speed>0.0</speed>
  <fix>3d</fix>
</trkpt>
<trkpt lat="40.072842" lon="-105.230575">
  <ele>1586.18</ele>
  <time>2026-08-27T18:27:33Z</time>
  <course>11.33</course>
  <speed>0.01414213562373095</speed>
  <fix>3d</fix>
</trkpt>
<trkpt lat="40.072842" lon="-105.230575">
  <ele>1586.09</ele>
  <time>2026-08-27T18:27:33Z</time>
  <course>274.39</course>
  <speed>0.0</speed>
  <fix>3d</fix>
</trkpt>
<trkpt lat="40.072842" lon="-105.230575">
  <ele>1586.18</ele>
  <time>2026-08-27T18:27:33Z</time>
  <course>11.33</course>
  <speed>0.01414213562373095</speed>
  <fix>3d</fix>
</trkpt>
<trkpt lat="40.072842" lon="-105.230575">
  <ele>1586.09</ele>
  <time>2026-08-27T18:27:33Z</time>
  <course>259.4</course>
  <speed>0.0</speed>
  <fix>3d</fix>
</trkpt>
<trkpt lat="40.072842" lon="-105.230575">
  <ele>1586.18</ele>
  <time>2026-08-27T18:27:33Z</time>
  <course>11.33</course>
  <speed>0.01414213562373095</speed>
  <fix>3d</fix>
</trkpt>
<trkpt lat="40.072842" lon="-105.230575">
  <ele>1586.09</ele>
  <time>2026-08-27T18:27:33Z</time>
  <course>267.84</course>
  <speed>0.0</speed>
  <fix>3d</fix>
</trkpt>
<trkpt lat="40.072842" lon="-105.230575">
  <ele>1586.18</ele>
  <time>2026-08-27T18:27:33Z</time>
  <course>11.33</course>
  <speed>0.01414213562373095</speed>
  <fix>3d</fix>
</trkpt>
<trkpt lat="40.072842" lon="-105.230575">
  <ele>1586.09</ele>
  <time>2026-08-27T18:27:33Z</time>
  <course>300.8</course>
  <speed>0.0</speed>
  <fix>3d</fix>
</trkpt>
<trkpt lat="40.072842" lon="-105.230575">
  <ele>1586.18</ele>
  <time>2026-08-27T18:27:33Z</time>
  <course>11.33</course>
  <speed>0.01414213562373095</speed>
  <fix>3d</fix>
</trkpt>
<trkpt lat="40.072842" lon="-105.230575">
  <ele>1586.09</ele>
  <time>2026-08-27T18:27:33Z</time>
  <course>268.24</course>
  <speed>0.0</speed>
  <fix>3d</fix>
</trkpt>
<trkpt lat="40.072842" lon="-105.230575">
  <ele>1586.18</ele>
  <time>2026-08-27T18:27:33Z</time>
  <course>11.33</course>
  <speed>0.01414213562373095</speed>
  <fix>3d</fix>
</trkpt>
<trkpt lat="40.072842" lon="-105.230575">
  <ele>1586.09</ele>
  <time>2026-08-27T18:27:33Z</time>
  <course>266.36</course>
  <speed>0.0</speed>
  <fix>3d</fix>
</trkpt>
<trkpt lat="40.0728419" lon="-105.230575">
  <ele>1586.17</ele>
  <time>2026-08-27T18:27:33Z</time>
  <course>11.33</course>
  <speed>0.01414213562373095</speed>
  <fix>3d</fix>
</trkpt>
<trkpt lat="40.072842" lon="-105.230575">
  <ele>1586.09</ele>
  <time>2026-08-27T18:27:33Z</time>
  <course>251.19</course>
  <speed>0.0</speed>
  <fix>3d</fix>
</trkpt>
<trkpt lat="40.0728419" lon="-105.2305749">
  <ele>1586.17</ele>
  <time>2026-08-27T18:27:33Z</time>
  <course>11.33</course>
  <speed>0.022360679774997897</speed>
  <fix>3d</fix>
</trkpt>
<trkpt lat="40.072842" lon="-105.230575">
  <ele>1586.09</ele>
  <time>2026-08-27T18:27:33Z</time>
  <course>262.15</course>
  <speed>0.0</speed>
  <fix>3d</fix>
</trkpt>
<trkpt lat="40.0728419" lon="-105.2305749">
  <ele>1586.17</ele>
  <time>2026-08-27T18:27:33Z</time>
  <course>11.33</course>
  <speed>0.022360679774997897</speed>
  <fix>3d</fix>
</trkpt>
<trkpt lat="40.072842" lon="-105.230575">
  <ele>1586.09</ele>
  <time>2026-08-27T18:27:33Z</time>
  <course>282.03</course>
  <speed>0.0</speed>
  <fix>3d</fix>
</trkpt>
<trkpt lat="40.0728419" lon="-105.2305749">
  <ele>1586.17</ele>
  <time>2026-08-27T18:27:33Z</time>
  <course>11.33</course>
  <speed>0.022360679774997897</speed>
  <fix>3d</fix>
</trkpt>
<trkpt lat="40.072842" lon="-105.230575">
  <ele>1586.09</ele>
  <time>2026-08-27T18:27:33Z</time>
  <course>293.1</course>
  <speed>0.0</speed>
  <fix>3d</fix>
</trkpt>
<trkpt lat="40.0728419" lon="-105.2305749">
  <ele>1586.17</ele>
  <time>2026-08-27T18:27:33Z</time>
  <course>11.33</course>
  <speed>0.022360679774997897</speed>
  <fix>3d</fix>
</trkpt>
<trkpt lat="40.072842" lon="-105.230575">
  <ele>1586.09</ele>
  <time>2026-08-27T18:27:33Z</time>
  <course>268.04</course>
  <speed>0.0</speed>
  <fix>3d</fix>
</trkpt>
<trkpt lat="40.0728419" lon="-105.2305749">
  <ele>1586.17</ele>
  <time>2026-08-27T18:27:33Z</time>
  <course>11.33</course>
  <speed>0.022360679774997897</speed>
  <fix>3d</fix>
</trkpt>
<trkpt lat="40.072842" lon="-105.230575">
  <ele>1586.09</ele>
  <time>2026-08-27T18:27:33Z</time>
  <course>290.26</course>
  <speed>0.0</speed>
  <fix>3d</fix>
</trkpt>
<trkpt lat="40.0728419" lon="-105.2305749">
  <ele>1586.17</ele>
  <time>2026-08-27T18:27:33Z</time>
  <course>11.33</course>
  <speed>0.022360679774997897</speed>
  <fix>3d</fix>
</trkpt>
<trkpt lat="40.072842" lon="-105.230575">
  <ele>1586.09</ele>
  <time>2026-08-27T18:27:33Z</time>
  <course>279.56</course>
  <speed>0.0</speed>
  <fix>3d</fix>
</trkpt>
<trkpt lat="40.0728419" lon="-105.2305749">
  <ele>1586.18</ele>
  <time>2026-08-27T18:27:33Z</time>
  <course>11.33</course>
  <speed>0.022360679774997897</speed>
  <fix>3d</fix>
</trkpt>
<trkpt lat="40.072842" lon="-105.230575">
  <ele>1586.09</ele>
  <time>2026-08-27T18:27:33Z</time>
  <course>243.31</course>
  <speed>0.0</speed>
  <fix>3d</fix>
</trkpt>
<trkpt lat="40.0728419" lon="-105.2305749">
  <ele>1586.18</ele>
  <time>2026-08-27T18:27:33Z</time>
  <course>11.33</course>
  <speed>0.022360679774997897</speed>
  <fix>3d</fix>
</trkpt>
<trkpt lat="40.072842" lon="-105.230575">
  <ele>1586.09</ele>
  <time>2026-08-27T18:27:33Z</time>
  <course>257.01</course>
  <speed>0.0</speed>
  <fix>3d</fix>
</trkpt>
<trkpt lat="40.0728419" lon="-105.2305749">
  <ele>1586.18</ele>
  <time>2026-08-27T18:27:33Z</time>
  <course>11.33</course>
  <speed>0.022360679774997897</speed>
  <fix>3d</fix>
</trkpt>
<trkpt lat="40.072842" lon="-105.230575">
  <ele>1586.09</ele>
  <time>2026-08-27T18:27:33Z</time>
  <course>290.95</course>
  <speed>0.0</speed>
  <fix>3d</fix>
</trkpt>
<trkpt lat="40.0728419" lon="-105.2305749">
  <ele>1586.18</ele>
  <time>2026-08-27T18:27:33Z</time>
  <course>11.33</course>
  <speed>0.022360679774997897</speed>
  <fix>3d</fix>
</trkpt>
<trkpt lat="40.072842" lon="-105.230575">
  <ele>1586.09</ele>
  <time>2026-08-27T18:27:33Z</time>
  <course>292.38</course>
  <speed>0.0</speed>
  <fix>3d</fix>
</trkpt>
<trkpt lat="40.0728419" lon="-105.2305749">
  <ele>1586.18</ele>
  <time>2026-08-27T18:27:33Z</time>
  <course>11.33</course>
  <speed>0.022360679774997897</speed>
  <fix>3d</fix>
</trkpt>
<trkpt lat="40.072842" lon="-105.230575">
  <ele>1586.09</ele>
  <time>2026-08-27T18:27:33Z</time>
  <course>259.0</course>
  <speed>0.0</speed>
  <fix>3d</fix>
</trkpt>
<trkpt lat="40.0728419" lon="-105.2305749">
  <ele>1586.18</ele>
  <time>2026-08-27T18:27:33Z</time>
  <course>11.33</course>
  <speed>0.022360679774997897</speed>
  <fix>3d</fix>
</trkpt>
<trkpt lat="40.072842" lon="-105.230575">
  <ele>1586.09</ele>
  <time>2026-08-27T18:27:33Z</time>
  <course>266.08</course>
  <speed>0.0</speed>
  <fix>3d</fix>
</trkpt>
<trkpt lat="40.0728419" lon="-105.2305749">
  <ele>1586.18</ele>
  <time>2026-08-27T18:27:33Z</time>
  <course>11.33</course>
  <speed>0.022360679774997897</speed>
  <fix>3d</fix>
</trkpt>
<trkpt lat="40.072842" lon="-105.230575">
  <ele>1586.09</ele>
  <time>2026-08-27T18:27:33Z</time>
  <course>269.62</course>
  <speed>0.0</speed>
  <fix>3d</fix>
</trkpt>
<trkpt lat="40.0728419" lon="-105.2305749">
  <ele>1586.18</ele>
  <time>2026-08-27T18:27:33Z</time>
  <course>11.33</course>
  <speed>0.022360679774997897</speed>
  <fix>3d</fix>
</trkpt>
<trkpt lat="40.072842" lon="-105.230575">
  <ele>1586.09</ele>
  <time>2026-08-27T18:27:33Z</time>
  <course>270.5</course>
  <speed>0.0</speed>
  <fix>3d</fix>
</trkpt>
<trkpt lat="40.0728419" lon="-105.2305749">
  <ele>1586.18</ele>
  <time>2026-08-27T18:27:33Z</time>
  <course>11.32</course>
  <speed>0.022360679774997897</speed>
  <fix>3d</fix>
</trkpt>
<trkpt lat="40.072842" lon="-105.230575">
  <ele>1586.09</ele>
  <time>2026-08-27T18:27:33Z</time>
  <course>250.56</course>
  <speed>0.0</speed>
  <fix>3d</fix>
</trkpt>
<trkpt lat="40.0728419" lon="-105.2305749">
  <ele>1586.18</ele>
  <time>2026-08-27T18:27:33Z</time>
  <course>11.32</course>
  <speed>0.022360679774997897</speed>
  <fix>3d</fix>
</trkpt>
<trkpt lat="40.072842" lon="-105.230575">
  <ele>1586.09</ele>
  <time>2026-08-27T18:27:33Z</time>
  <course>263.58</course>
  <speed>0.0</speed>
  <fix>3d</fix>
</trkpt>
<trkpt lat="40.0728419" lon="-105.2305749">
  <ele>1586.18</ele>
  <time>2026-08-27T18:27:33Z</time>
  <course>11.32</course>
  <speed>0.022360679774997897</speed>
  <fix>3d</fix>
</trkpt>
<trkpt lat="40.072842" lon="-105.230575">
  <ele>1586.09</ele>
  <time>2026-08-27T18:27:33Z</time>
  <course>294.2</course>
  <speed>0.0</speed>
  <fix>3d</fix>
</trkpt>
<trkpt lat="40.0728419" lon="-105.2305749">
  <ele>1586.18</ele>
  <time>2026-08-27T18:27:33Z</time>
  <course>11.32</course>
  <speed>0.022360679774997897</speed>
  <fix>3d</fix>
</trkpt>
<trkpt lat="40.072842" lon="-105.230575">
  <ele>1586.09</ele>
  <time>2026-08-27T18:27:33Z</time>
  <course>296.14</course>
  <speed>0.0</speed>
  <fix>3d</fix>
</trkpt>
<trkpt lat="40.0728419" lon="-105.2305749">
  <ele>1586.18</ele>
  <time>2026-08-27T18:27:33Z</time>
  <course>11.32</course>
  <speed>0.022360679774997897</speed>
  <fix>3d</fix>
</trkpt>
<trkpt lat="40.072842" lon="-105.230575">
  <ele>1586.09</ele>
  <time>2026-08-27T18:27:33Z</time>
  <course>273.06</course>
  <speed>0.0</speed>
  <fix>3d</fix>
</trkpt>
<trkpt lat="40.0728419" lon="-105.2305749">
  <ele>1586.18</ele>
  <time>2026-08-27T18:27:33Z</time>
  <course>11.32</course>
  <speed>0.022360679774997897</speed>
  <fix>3d</fix>
</trkpt>
<trkpt lat="40.072842" lon="-105.230575">
  <ele>1586.09</ele>
  <time>2026-08-27T18:27:33Z</time>
  <course>246.03</course>
  <speed>0.0</speed>
  <fix>3d</fix>
</trkpt>
<trkpt lat="40.0728419" lon="-105.2305749">
  <ele>1586.18</ele>
  <time>2026-08-27T18:27:33Z</time>
  <course>11.32</course>
  <speed>0.022360679774997897</speed>
  <fix>3d</fix>
</trkpt>
<trkpt lat="40.072842" lon="-105.230575">
  <ele>1586.09</ele>
  <time>2026-08-27T18:27:33Z</time>
  <course>251.29</course>
  <speed>0.0</speed>
  <fix>3d</fix>
</trkpt>
<trkpt lat="40.0728419" lon="-105.2305749">
  <ele>1586.18</ele>
  <time>2026-08-27T18:27:33Z</time>
  <course>11.32</course>
  <speed>0.022360679774997897</speed>
  <fix>3d</fix>
</trkpt>
<trkpt lat="40.072842" lon="-105.230575">
  <ele>1586.09</ele>
  <time>2026-08-27T18:27:33Z</time>
  <course>270.08</course>
  <speed>0.0</speed>
  <fix>3d</fix>
</trkpt>
<trkpt lat="40.0728419" lon="-105.2305749">
  <ele>1586.18</ele>
  <time>2026-08-27T18:27:33Z</time>
  <course>11.32</course>
  <speed>0.022360679774997897</speed>
  <fix>3d</fix>
</trkpt>
<trkpt lat="40.072842" lon="-105.230575">
  <ele>1586.09</ele>
  <time>2026-08-27T18:27:33Z</time>
  <course>265.23</course>
  <speed>0.0</speed>
  <fix>3d</fix>
</trkpt>
<trkpt lat="40.0728419" lon="-105.2305749">
  <ele>1586.18</ele>
  <time>2026-08-27T18:27:33Z</time>
  <course>11.32</course>
  <speed>0.022360679774997897</speed>
  <fix>3d</fix>
</trkpt>
<trkpt lat="40.072842" lon="-105.230575">
  <ele>1586.09</ele>
  <time>2026-08-27T18:27:33Z</time>
  <course>250.62</course>
  <speed>0.0</speed>
  <fix>3d</fix>
</trkpt>
<trkpt lat="40.0728419" lon="-105.2305749">
  <ele>1586.18</ele>
  <time>2026-08-27T18:27:33Z</time>
  <course>11.31</course>
  <speed>0.022360679774997897</speed>
  <fix>3d</fix>
</trkpt>
<trkpt lat="40.072842" lon="-105.230575">
  <ele>1586.09</ele>
  <time>2026-08-27T18:27:33Z</time>
  <course>252.83</course>
  <speed>0.0</speed>
  <fix>3d</fix>
</trkpt>
<trkpt lat="40.0728419" lon="-105.2305749">
  <ele>1586.18</ele>
  <time>2026-08-27T18:27:33Z</time>
  <course>11.31</course>
  <speed>0.022360679774997897</speed>
  <fix>3d</fix>
</trkpt>
<trkpt lat="40.072842" lon="-105.230575">
  <ele>1586.09</ele>
  <time>2026-08-27T18:27:33Z</time>
  <course>273.42</course>
  <speed>0.0</speed>
  <fix>3d</fix>
</trkpt>
<trkpt lat="40.0728419" lon="-105.2305749">
  <ele>1586.18</ele>
  <time>2026-08-27T18:27:33Z</time>
  <course>11.31</course>
  <speed>0.022360679774997897</speed>
  <fix>3d</fix>
</trkpt>
<trkpt lat="40.072842" lon="-105.230575">
  <ele>1586.09</ele>
  <time>2026-08-27T18:27:33Z</time>
  <course>289.58</course>
  <speed>0.0</speed>
  <fix>3d</fix>
</trkpt>
<trkpt lat="40.0728419" lon="-105.2305749">
  <ele>1586.18</ele>
  <time>2026-08-27T18:27:33Z</time>
  <course>11.31</course>
  <speed>0.022360679774997897</speed>
  <fix>3d</fix>
</trkpt>
<trkpt lat="40.072842" lon="-105.230575">
  <ele>1586.09</ele>
  <time>2026-08-27T18:27:33Z</time>
  <course>287.96</course>
  <speed>0.0</speed>
  <fix>3d</fix>
</trkpt>
<trkpt lat="40.0728419" lon="-105.2305749">
  <ele>1586.17</ele>
  <time>2026-08-27T18:27:33Z</time>
  <course>11.31</course>
  <speed>0.022360679774997897</speed>
  <fix>3d</fix>
</trkpt>
<trkpt lat="40.072842" lon="-105.230575">
  <ele>1586.09</ele>
  <time>2026-08-27T18:27:33Z</time>
  <course>270.59</course>
  <speed>0.0</speed>
  <fix>3d</fix>
</trkpt>
<trkpt lat="40.0728419" lon="-105.2305749">
  <ele>1586.17</ele>
  <time>2026-08-27T18:27:33Z</time>
  <course>11.31</course>
  <speed>0.022360679774997897</speed>
  <fix>3d</fix>
</trkpt>
<trkpt lat="40.072842" lon="-105.230575">
  <ele>1586.09</ele>
  <time>2026-08-27T18:27:33Z</time>
  <course>286.0</course>
  <speed>0.0</speed>
  <fix>3d</fix>
</trkpt>
<trkpt lat="40.0728419" lon="-105.2305749">
  <ele>1586.17</ele>
  <time>2026-08-27T18:27:33Z</time>
  <course>11.31</course>
  <speed>0.022360679774997897</speed>
  <fix>3d</fix>
</trkpt>
<trkpt lat="40.072842" lon="-105.230575">
  <ele>1586.09</ele>
  <time>2026-08-27T18:27:33Z</time>
  <course>289.93</course>
  <speed>0.0</speed>
  <fix>3d</fix>
</trkpt>
<trkpt lat="40.0728419" lon="-105.2305749">
  <ele>1586.17</ele>
  <time>2026-08-27T18:27:33Z</time>
  <course>11.3</course>
  <speed>0.022360679774997897</speed>
  <fix>3d</fix>
</trkpt>
<trkpt lat="40.072842" lon="-105.230575">
  <ele>1586.09</ele>
  <time>2026-08-27T18:27:33Z</time>
  <course>277.36</course>
  <speed>0.0</speed>
  <fix>3d</fix>
</trkpt>
<trkpt lat="40.0728419" lon="-105.2305749">
  <ele>1586.17</ele>
  <time>2026-08-27T18:27:33Z</time>
  <course>11.3</course>
  <speed>0.022360679774997897</speed>
  <fix>3d</fix>
</trkpt>
<trkpt lat="40.072842" lon="-105.230575">
  <ele>1586.09</ele>
  <time>2026-08-27T18:27:33Z</time>
  <course>249.3</course>
  <speed>0.0</speed>
  <fix>3d</fix>
</trkpt>
<trkpt lat="40.0728419" lon="-105.2305749">
  <ele>1586.18</ele>
  <time>2026-08-27T18:27:33Z</time>
  <course>11.3</course>
  <speed>0.022360679774997897</speed>
  <fix>3d</fix>
</trkpt>
<trkpt lat="40.072842" lon="-105.230575">
  <ele>1586.09</ele>
  <time>2026-08-27T18:27:33Z</time>
  <course>250.72</course>
  <speed>0.0</speed>
  <fix>3d</fix>
</trkpt>
<trkpt lat="40.0728419" lon="-105.2305749">
  <ele>1586.18</ele>
  <time>2026-08-27T18:27:33Z</time>
  <course>11.3</course>
  <speed>0.022360679774997897</speed>
  <fix>3d</fix>
</trkpt>
<trkpt lat="40.072842" lon="-105.230575">
  <ele>1586.09</ele>
  <time>2026-08-27T18:27:33Z</time>
  <course>264.38</course>
  <speed>0.0</speed>
  <fix>3d</fix>
</trkpt>
<trkpt lat="40.0728419" lon="-105.2305749">
  <ele>1586.18</ele>
  <time>2026-08-27T18:27:33Z</time>
  <course>11.3</course>
  <speed>0.022360679774997897</speed>
  <fix>3d</fix>
</trkpt>
<trkpt lat="40.072842" lon="-105.230575">
  <ele>1586.09</ele>
  <time>2026-08-27T18:27:33Z</time>
  <course>276.68</course>
  <speed>0.0</speed>
  <fix>3d</fix>
</trkpt>
<trkpt lat="40.0728419" lon="-105.2305749">
  <ele>1586.18</ele>
  <time>2026-08-27T18:27:33Z</time>
  <course>11.29</course>
  <speed>0.022360679774997897</speed>
  <fix>3d</fix>
</trkpt>
<trkpt lat="40.072842" lon="-105.230575">
  <ele>1586.09</ele>
  <time>2026-08-27T18:27:33Z</time>
  <course>270.19</course>
  <speed>0.0</speed>
  <fix>3d</fix>
</trkpt>
<trkpt lat="40.0728419" lon="-105.2305749">
  <ele>1586.18</ele>
  <time>2026-08-27T18:27:33Z</time>
  <course>11.29</course>
  <speed>0.022360679774997897</speed>
  <fix>3d</fix>
</trkpt>
<trkpt lat="40.072842" lon="-105.230575">
  <ele>1586.09</ele>
  <time>2026-08-27T18:27:33Z</time>
  <course>269.23</course>
  <speed>0.0</speed>
  <fix>3d</fix>
</trkpt>
<trkpt lat="40.0728419" lon="-105.2305749">
  <ele>1586.18</ele>
  <time>2026-08-27T18:27:33Z</time>
  <course>11.29</course>
  <speed>0.022360679774997897</speed>
  <fix>3d</fix>
</trkpt>
<trkpt lat="40.072842" lon="-105.230575">
  <ele>1586.09</ele>
  <time>2026-08-27T18:27:33Z</time>
  <course>261.35</course>
  <speed>0.0</speed>
  <fix>3d</fix>
</trkpt>
<trkpt lat="40.0728419" lon="-105.2305749">
  <ele>1586.18</ele>
  <time>2026-08-27T18:27:33Z</time>
  <course>11.29</course>
  <speed>0.022360679774997897</speed>
  <fix>3d</fix>
</trkpt>
<trkpt lat="40.072842" lon="-105.230575">
  <ele>1586.09</ele>
  <time>2026-08-27T18:27:33Z</time>
  <course>258.08</course>
  <speed>0.0</speed>
  <fix>3d</fix>
</trkpt>
<trkpt lat="40.0728419" lon="-105.2305749">
  <ele>1586.19</ele>
  <time>2026-08-27T18:27:33Z</time>
  <course>11.29</course>
  <speed>0.022360679774997897</speed>
  <fix>3d</fix>
</trkpt>
<trkpt lat="40.072842" lon="-105.230575">
  <ele>1586.09</ele>
  <time>2026-08-27T18:27:33Z</time>
  <course>273.98</course>
  <speed>0.0</speed>
  <fix>3d</fix>
</trkpt>
<trkpt lat="40.0728419" lon="-105.2305749">
  <ele>1586.19</ele>
  <time>2026-08-27T18:27:33Z</time>
  <course>11.28</course>
  <speed>0.022360679774997897</speed>
  <fix>3d</fix>
</trkpt>
<trkpt lat="40.072842" lon="-105.230575">
  <ele>1586.09</ele>
  <time>2026-08-27T18:27:33Z</time>
  <course>287.74</course>
  <speed>0.0</speed>
  <fix>3d</fix>
</trkpt>
<trkpt lat="40.0728419" lon="-105.2305749">
  <ele>1586.19</ele>
  <time>2026-08-27T18:27:33Z</time>
  <course>11.28</course>
  <speed>0.022360679774997897</speed>
  <fix>3d</fix>
</trkpt>
<trkpt lat="40.072842" lon="-105.230575">
  <ele>1586.09</ele>
  <time>2026-08-27T18:27:33Z</time>
  <course>265.43</course>
  <speed>0.0</speed>
  <fix>3d</fix>
</trkpt>
<trkpt lat="40.0728419" lon="-105.2305749">
  <ele>1586.19</ele>
  <time>2026-08-27T18:27:33Z</time>
  <course>11.28</course>
  <speed>0.022360679774997897</speed>
  <fix>3d</fix>
</trkpt>
<trkpt lat="40.072842" lon="-105.230575">
  <ele>1586.09</ele>
  <time>2026-08-27T18:27:33Z</time>
  <course>269.75</course>
  <speed>0.0</speed>
  <fix>3d</fix>
</trkpt>
<trkpt lat="40.0728419" lon="-105.2305749">
  <ele>1586.19</ele>
  <time>2026-08-27T18:27:33Z</time>
  <course>11.28</course>
  <speed>0.022360679774997897</speed>
  <fix>3d</fix>
</trkpt>
<trkpt lat="40.072842" lon="-105.230575">
  <ele>1586.09</ele>
  <time>2026-08-27T18:27:33Z</time>
  <course>278.55</course>
  <speed>0.0</speed>
  <fix>3d</fix>
</trkpt>
<trkpt lat="40.0728419" lon="-105.2305749">
  <ele>1586.19</ele>
  <time>2026-08-27T18:27:33Z</time>
  <course>11.27</course>
  <speed>0.022360679774997897</speed>
  <fix>3d</fix>
</trkpt>
<trkpt lat="40.072842" lon="-105.230575">
  <ele>1586.09</ele>
  <time>2026-08-27T18:27:33Z</time>
  <course>269.76</course>
  <speed>0.0</speed>
  <fix>3d</fix>
</trkpt>
<trkpt lat="40.0728419" lon="-105.2305749">
  <ele>1586.18</ele>
  <time>2026-08-27T18:27:34Z</time>
  <course>11.27</course>
  <speed>0.022360679774997897</speed>
  <fix>3d</fix>
</trkpt>
<trkpt lat="40.072842" lon="-105.230575">
  <ele>1586.09</ele>
  <time>2026-08-27T18:27:34Z</time>
  <course>268.3</course>
  <speed>0.0</speed>
  <fix>3d</fix>
</trkpt>
<trkpt lat="40.0728419" lon="-105.2305749">
  <ele>1586.18</ele>
  <time>2026-08-27T18:27:34Z</time>
  <course>11.27</course>
  <speed>0.022360679774997897</speed>
  <fix>3d</fix>
</trkpt>
<trkpt lat="40.072842" lon="-105.230575">
  <ele>1586.09</ele>
  <time>2026-08-27T18:27:34Z</time>
  <course>270.21</course>
  <speed>0.0</speed>
  <fix>3d</fix>
</trkpt>
<trkpt lat="40.0728419" lon="-105.2305749">
  <ele>1586.18</ele>
  <time>2026-08-27T18:27:34Z</time>
  <course>11.27</course>
  <speed>0.022360679774997897</speed>
  <fix>3d</fix>
</trkpt>
<trkpt lat="40.072842" lon="-105.230575">
  <ele>1586.09</ele>
  <time>2026-08-27T18:27:34Z</time>
  <course>270.19</course>
  <speed>0.0</speed>
  <fix>3d</fix>
</trkpt>
<trkpt lat="40.0728419" lon="-105.2305749">
  <ele>1586.18</ele>
  <time>2026-08-27T18:27:34Z</time>
  <course>11.27</course>
  <speed>0.022360679774997897</speed>
  <fix>3d</fix>
</trkpt>
<trkpt lat="40.072842" lon="-105.230575">
  <ele>1586.09</ele>
  <time>2026-08-27T18:27:34Z</time>
  <course>269.94</course>
  <speed>0.0</speed>
  <fix>3d</fix>
</trkpt>
<trkpt lat="40.0728419" lon="-105.2305749">
  <ele>1586.18</ele>
  <time>2026-08-27T18:27:34Z</time>
  <course>11.26</course>
  <speed>0.01414213562373095</speed>
  <fix>3d</fix>
</trkpt>
<trkpt lat="40.072842" lon="-105.230575">
  <ele>1586.09</ele>
  <time>2026-08-27T18:27:34Z</time>
  <course>269.97</course>
  <speed>0.0</speed>
  <fix>3d</fix>
</trkpt>
<trkpt lat="40.0728419" lon="-105.2305749">
  <ele>1586.18</ele>
  <time>2026-08-27T18:27:34Z</time>
  <course>11.26</course>
  <speed>0.01414213562373095</speed>
  <fix>3d</fix>
</trkpt>
<trkpt lat="40.072842" lon="-105.230575">
  <ele>1586.09</ele>
  <time>2026-08-27T18:27:34Z</time>
  <course>270.0</course>
  <speed>0.0</speed>
  <fix>3d</fix>
</trkpt>
<trkpt lat="40.0728419" lon="-105.2305749">
  <ele>1586.18</ele>
  <time>2026-08-27T18:27:34Z</time>
  <course>11.26</course>
  <speed>0.01414213562373095</speed>
  <fix>3d</fix>
</trkpt>
<trkpt lat="40.072842" lon="-105.230575">
  <ele>1586.09</ele>
  <time>2026-08-27T18:27:34Z</time>
  <course>254.27</course>
  <speed>0.0</speed>
  <fix>3d</fix>
</trkpt>
<trkpt lat="40.0728419" lon="-105.2305749">
  <ele>1586.18</ele>
  <time>2026-08-27T18:27:34Z</time>
  <course>11.26</course>
  <speed>0.01414213562373095</speed>
  <fix>3d</fix>
</trkpt>
<trkpt lat="40.072842" lon="-105.230575">
  <ele>1586.09</ele>
  <time>2026-08-27T18:27:34Z</time>
  <course>251.85</course>
  <speed>0.0</speed>
  <fix>3d</fix>
</trkpt>
<trkpt lat="40.0728419" lon="-105.2305749">
  <ele>1586.18</ele>
  <time>2026-08-27T18:27:34Z</time>
  <course>11.25</course>
  <speed>0.01414213562373095</speed>
  <fix>3d</fix>
</trkpt>
<trkpt lat="40.072842" lon="-105.230575">
  <ele>1586.09</ele>
  <time>2026-08-27T18:27:34Z</time>
  <course>264.78</course>
  <speed>0.0</speed>
  <fix>3d</fix>
</trkpt>
<trkpt lat="40.0728419" lon="-105.2305749">
  <ele>1586.19</ele>
  <time>2026-08-27T18:27:34Z</time>
  <course>11.25</course>
  <speed>0.01414213562373095</speed>
  <fix>3d</fix>
</trkpt>
<trkpt lat="40.072842" lon="-105.230575">
  <ele>1586.09</ele>
  <time>2026-08-27T18:27:34Z</time>
  <course>275.81</course>
  <speed>0.0</speed>
  <fix>3d</fix>
</trkpt>
<trkpt lat="40.0728419" lon="-105.2305749">
  <ele>1586.19</ele>
  <time>2026-08-27T18:27:34Z</time>
  <course>11.25</course>
  <speed>0.01414213562373095</speed>
  <fix>3d</fix>
</trkpt>
<trkpt lat="40.072842" lon="-105.230575">
  <ele>1586.09</ele>
  <time>2026-08-27T18:27:34Z</time>
  <course>285.29</course>
  <speed>0.0</speed>
  <fix>3d</fix>
</trkpt>
<trkpt lat="40.0728419" lon="-105.2305749">
  <ele>1586.19</ele>
  <time>2026-08-27T18:27:34Z</time>
  <course>11.25</course>
  <speed>0.01414213562373095</speed>
  <fix>3d</fix>
</trkpt>
<trkpt lat="40.072842" lon="-105.230575">
  <ele>1586.09</ele>
  <time>2026-08-27T18:27:34Z</time>
  <course>285.18</course>
  <speed>0.0</speed>
  <fix>3d</fix>
</trkpt>
<trkpt lat="40.0728419" lon="-105.2305749">
  <ele>1586.19</ele>
  <time>2026-08-27T18:27:34Z</time>
  <course>11.24</course>
  <speed>0.01414213562373095</speed>
  <fix>3d</fix>
</trkpt>
<trkpt lat="40.072842" lon="-105.230575">
  <ele>1586.09</ele>
  <time>2026-08-27T18:27:34Z</time>
  <course>285.02</course>
  <speed>0.0</speed>
  <fix>3d</fix>
</trkpt>
<trkpt lat="40.0728419" lon="-105.2305749">
  <ele>1586.19</ele>
  <time>2026-08-27T18:27:34Z</time>
  <course>11.24</course>
  <speed>0.01414213562373095</speed>
  <fix>3d</fix>
</trkpt>
<trkpt lat="40.072842" lon="-105.230575">
  <ele>1586.09</ele>
  <time>2026-08-27T18:27:34Z</time>
  <course>285.62</course>
  <speed>0.0</speed>
  <fix>3d</fix>
</trkpt>
<trkpt lat="40.0728419" lon="-105.2305749">
  <ele>1586.19</ele>
  <time>2026-08-27T18:27:34Z</time>
  <course>11.24</course>
  <speed>0.01414213562373095</speed>
  <fix>3d</fix>
</trkpt>
<trkpt lat="40.072842" lon="-105.230575">
  <ele>1586.09</ele>
  <time>2026-08-27T18:27:34Z</time>
  <course>271.52</course>
  <speed>0.0</speed>
  <fix>3d</fix>
</trkpt>
<trkpt lat="40.0728419" lon="-105.2305749">
  <ele>1586.19</ele>
  <time>2026-08-27T18:27:34Z</time>
  <course>11.24</course>
  <speed>0.01414213562373095</speed>
  <fix>3d</fix>
</trkpt>
<trkpt lat="40.072842" lon="-105.230575">
  <ele>1586.09</ele>
  <time>2026-08-27T18:27:34Z</time>
  <course>267.47</course>
  <speed>0.0</speed>
  <fix>3d</fix>
</trkpt>
<trkpt lat="40.0728419" lon="-105.2305749">
  <ele>1586.19</ele>
  <time>2026-08-27T18:27:34Z</time>
  <course>11.23</course>
  <speed>0.01414213562373095</speed>
  <fix>3d</fix>
</trkpt>
<trkpt lat="40.072842" lon="-105.230575">
  <ele>1586.09</ele>
  <time>2026-08-27T18:27:34Z</time>
  <course>256.56</course>
  <speed>0.0</speed>
  <fix>3d</fix>
</trkpt>
<trkpt lat="40.0728419" lon="-105.2305749">
  <ele>1586.19</ele>
  <time>2026-08-27T18:27:34Z</time>
  <course>11.23</course>
  <speed>0.01414213562373095</speed>
  <fix>3d</fix>
</trkpt>
<trkpt lat="40.072842" lon="-105.230575">
  <ele>1586.09</ele>
  <time>2026-08-27T18:27:34Z</time>
  <course>252.98</course>
  <speed>0.0</speed>
  <fix>3d</fix>
</trkpt>
<trkpt lat="40.0728419" lon="-105.2305749">
  <ele>1586.19</ele>
  <time>2026-08-27T18:27:34Z</time>
  <course>11.23</course>
  <speed>0.01414213562373095</speed>
  <fix>3d</fix>
</trkpt>
<trkpt lat="40.072842" lon="-105.230575">
  <ele>1586.09</ele>
  <time>2026-08-27T18:27:34Z</time>
  <course>263.23</course>
  <speed>0.0</speed>
  <fix>3d</fix>
</trkpt>
<trkpt lat="40.0728419" lon="-105.2305749">
  <ele>1586.19</ele>
  <time>2026-08-27T18:27:34Z</time>
  <course>11.23</course>
  <speed>0.01414213562373095</speed>
  <fix>3d</fix>
</trkpt>
<trkpt lat="40.072842" lon="-105.230575">
  <ele>1586.09</ele>
  <time>2026-08-27T18:27:34Z</time>
  <course>275.26</course>
  <speed>0.0</speed>
  <fix>3d</fix>
</trkpt>
<trkpt lat="40.0728419" lon="-105.2305749">
  <ele>1586.18</ele>
  <time>2026-08-27T18:27:34Z</time>
  <course>11.23</course>
  <speed>0.01414213562373095</speed>
  <fix>3d</fix>
</trkpt>
<trkpt lat="40.072842" lon="-105.230575">
  <ele>1586.09</ele>
  <time>2026-08-27T18:27:34Z</time>
  <course>270.52</course>
  <speed>0.0</speed>
  <fix>3d</fix>
</trkpt>
<trkpt lat="40.0728419" lon="-105.2305749">
  <ele>1586.18</ele>
  <time>2026-08-27T18:27:34Z</time>
  <course>11.22</course>
  <speed>0.01414213562373095</speed>
  <fix>3d</fix>
</trkpt>
<trkpt lat="40.072842" lon="-105.230575">
  <ele>1586.09</ele>
  <time>2026-08-27T18:27:34Z</time>
  <course>269.33</course>
  <speed>0.0</speed>
  <fix>3d</fix>
</trkpt>
<trkpt lat="40.0728419" lon="-105.2305749">
  <ele>1586.18</ele>
  <time>2026-08-27T18:27:34Z</time>
  <course>11.22</course>
  <speed>0.01414213562373095</speed>
  <fix>3d</fix>
</trkpt>
<trkpt lat="40.072842" lon="-105.230575">
  <ele>1586.09</ele>
  <time>2026-08-27T18:27:34Z</time>
  <course>270.01</course>
  <speed>0.0</speed>
  <fix>3d</fix>
</trkpt>
<trkpt lat="40.0728419" lon="-105.2305749">
  <ele>1586.18</ele>
  <time>2026-08-27T18:27:34Z</time>
  <course>11.22</course>
  <speed>0.01414213562373095</speed>
  <fix>3d</fix>
</trkpt>
<trkpt lat="40.072842" lon="-105.230575">
  <ele>1586.09</ele>
  <time>2026-08-27T18:27:34Z</time>
  <course>283.38</course>
  <speed>0.0</speed>
  <fix>3d</fix>
</trkpt>
<trkpt lat="40.0728419" lon="-105.2305749">
  <ele>1586.18</ele>
  <time>2026-08-27T18:27:34Z</time>
  <course>11.22</course>
  <speed>0.01414213562373095</speed>
  <fix>3d</fix>
</trkpt>
<trkpt lat="40.072842" lon="-105.230575">
  <ele>1586.09</ele>
  <time>2026-08-27T18:27:34Z</time>
  <course>287.5</course>
  <speed>0.0</speed>
  <fix>3d</fix>
</trkpt>
<trkpt lat="40.0728419" lon="-105.2305749">
  <ele>1586.18</ele>
  <time>2026-08-27T18:27:34Z</time>
  <course>11.21</course>
  <speed>0.01414213562373095</speed>
  <fix>3d</fix>
</trkpt>
<trkpt lat="40.072842" lon="-105.230575">
  <ele>1586.09</ele>
  <time>2026-08-27T18:27:34Z</time>
  <course>278.63</course>
  <speed>0.0</speed>
  <fix>3d</fix>
</trkpt>
<trkpt lat="40.0728419" lon="-105.2305749">
  <ele>1586.18</ele>
  <time>2026-08-27T18:27:34Z</time>
  <course>11.21</course>
  <speed>0.01414213562373095</speed>
  <fix>3d</fix>
</trkpt>
<trkpt lat="40.072842" lon="-105.230575">
  <ele>1586.09</ele>
  <time>2026-08-27T18:27:34Z</time>
  <course>260.1</course>
  <speed>0.0</speed>
  <fix>3d</fix>
</trkpt>
<trkpt lat="40.0728419" lon="-105.2305749">
  <ele>1586.18</ele>
  <time>2026-08-27T18:27:34Z</time>
  <course>11.21</course>
  <speed>0.01414213562373095</speed>
  <fix>3d</fix>
</trkpt>
<trkpt lat="40.072842" lon="-105.230575">
  <ele>1586.09</ele>
  <time>2026-08-27T18:27:34Z</time>
  <course>254.05</course>
  <speed>0.0</speed>
  <fix>3d</fix>
</trkpt>
<trkpt lat="40.0728419" lon="-105.2305749">
  <ele>1586.17</ele>
  <time>2026-08-27T18:27:34Z</time>
  <course>11.21</course>
  <speed>0.01414213562373095</speed>
  <fix>3d</fix>
</trkpt>
<trkpt lat="40.072842" lon="-105.230575">
  <ele>1586.09</ele>
  <time>2026-08-27T18:27:34Z</time>
  <course>257.43</course>
  <speed>0.0</speed>
  <fix>3d</fix>
</trkpt>
<trkpt lat="40.0728419" lon="-105.2305749">
  <ele>1586.17</ele>
  <time>2026-08-27T18:27:34Z</time>
  <course>11.2</course>
  <speed>0.01414213562373095</speed>
  <fix>3d</fix>
</trkpt>
<trkpt lat="40.072842" lon="-105.230575">
  <ele>1586.09</ele>
  <time>2026-08-27T18:27:34Z</time>
  <course>273.11</course>
  <speed>0.0</speed>
  <fix>3d</fix>
</trkpt>
<trkpt lat="40.0728419" lon="-105.2305749">
  <ele>1586.21</ele>
  <time>2026-08-27T18:27:34Z</time>
  <course>11.2</course>
  <speed>0.022360679774997897</speed>
  <fix>3d</fix>
</trkpt>
<trkpt lat="40.072842" lon="-105.230575">
  <ele>1586.09</ele>
  <time>2026-08-27T18:27:34Z</time>
  <course>259.14</course>
  <speed>0.0</speed>
  <fix>3d</fix>
</trkpt>
<trkpt lat="40.0728419" lon="-105.2305749">
  <ele>1586.3</ele>
  <time>2026-08-27T18:27:34Z</time>
  <course>11.2</course>
  <speed>0.01414213562373095</speed>
  <fix>3d</fix>
</trkpt>
<trkpt lat="40.072842" lon="-105.230575">
  <ele>1586.14</ele>
  <time>2026-08-27T18:27:34Z</time>
  <course>229.22</course>
  <speed>0.0</speed>
  <fix>3d</fix>
</trkpt>
<trkpt lat="40.0728419" lon="-105.2305749">
  <ele>1586.45</ele>
  <time>2026-08-27T18:27:34Z</time>
  <course>11.22</course>
  <speed>0.01</speed>
  <fix>3d</fix>
</trkpt>
<trkpt lat="40.072842" lon="-105.230575">
  <ele>1586.24</ele>
  <time>2026-08-27T18:27:34Z</time>
  <course>267.31</course>
  <speed>0.0</speed>
  <fix>3d</fix>
</trkpt>
<trkpt lat="40.0728419" lon="-105.2305749">
  <ele>1586.81</ele>
  <time>2026-08-27T18:27:34Z</time>
  <course>11.28</course>
  <speed>0.04</speed>
  <fix>3d</fix>
</trkpt>
<trkpt lat="40.072842" lon="-105.230575">
  <ele>1586.43</ele>
  <time>2026-08-27T18:27:34Z</time>
  <course>278.78</course>
  <speed>0.02</speed>
  <fix>3d</fix>
</trkpt>
<trkpt lat="40.0728419" lon="-105.230575">
  <ele>1586.88</ele>
  <time>2026-08-27T18:27:34Z</time>
  <course>11.29</course>
  <speed>0.04</speed>
  <fix>3d</fix>
</trkpt>
<trkpt lat="40.0728419" lon="-105.2305751">
  <ele>1587.24</ele>
  <time>2026-08-27T18:27:34Z</time>
  <course>11.37</course>
  <speed>0.07280109889280519</speed>
  <fix>3d</fix>
</trkpt>
<trkpt lat="40.072842" lon="-105.2305751">
  <ele>1586.78</ele>
  <time>2026-08-27T18:27:34Z</time>
  <course>284.03</course>
  <speed>0.07</speed>
  <fix>3d</fix>
</trkpt>
<trkpt lat="40.0728419" lon="-105.2305751">
  <ele>1587.3</ele>
  <time>2026-08-27T18:27:34Z</time>
  <course>11.39</course>
  <speed>0.0854400374531753</speed>
  <fix>3d</fix>
</trkpt>
<trkpt lat="40.072842" lon="-105.2305754">
  <ele>1587.66</ele>
  <time>2026-08-27T18:27:34Z</time>
  <course>11.46</course>
  <speed>0.10770329614269007</speed>
  <fix>3d</fix>
</trkpt>
<trkpt lat="40.072842" lon="-105.2305753">
  <ele>1587.2</ele>
  <time>2026-08-27T18:27:34Z</time>
  <course>287.86</course>
  <speed>0.11</speed>
  <fix>3d</fix>
</trkpt>
<trkpt lat="40.072842" lon="-105.2305754">
  <ele>1587.72</ele>
  <time>2026-08-27T18:27:34Z</time>
  <course>11.48</course>
  <speed>0.12083045973594572</speed>
  <fix>3d</fix>
</trkpt>
<trkpt lat="40.0728421" lon="-105.2305757">
  <ele>1588.11</ele>
  <time>2026-08-27T18:27:34Z</time>
  <course>11.55</course>
  <speed>0.14317821063276354</speed>
  <fix>3d</fix>
</trkpt>
<trkpt lat="40.072842" lon="-105.2305756">
  <ele>1587.62</ele>
  <time>2026-08-27T18:27:34Z</time>
  <course>290.39</course>
  <speed>0.14</speed>
  <fix>3d</fix>
</trkpt>
<trkpt lat="40.0728421" lon="-105.2305757">
  <ele>1588.12</ele>
  <time>2026-08-27T18:27:34Z</time>
  <course>11.55</course>
  <speed>0.14317821063276354</speed>
  <fix>3d</fix>
</trkpt>
<trkpt lat="40.0728422" lon="-105.2305761">
  <ele>1588.58</ele>
  <time>2026-08-27T18:27:34Z</time>
  <course>11.61</course>
  <speed>0.17</speed>
  <fix>3d</fix>
</trkpt>
<trkpt lat="40.0728421" lon="-105.230576">
  <ele>1588.06</ele>
  <time>2026-08-27T18:27:34Z</time>
  <course>292.2</course>
  <speed>0.17</speed>
  <fix>3d</fix>
</trkpt>
<trkpt lat="40.0728423" lon="-105.2305761">
  <ele>1588.65</ele>
  <time>2026-08-27T18:27:34Z</time>
  <course>11.62</course>
  <speed>0.17</speed>
  <fix>3d</fix>
</trkpt>
<trkpt lat="40.0728424" lon="-105.2305765">
  <ele>1589.05</ele>
  <time>2026-08-27T18:27:34Z</time>
  <course>10.3</course>
  <speed>0.1972308292331602</speed>
  <fix>3d</fix>
</trkpt>
<trkpt lat="40.0728423" lon="-105.2305763">
  <ele>1588.51</ele>
  <time>2026-08-27T18:27:34Z</time>
  <course>293.67</course>
  <speed>0.2</speed>
  <fix>3d</fix>
</trkpt>
<trkpt lat="40.0728424" lon="-105.2305766">
  <ele>1589.12</ele>
  <time>2026-08-27T18:27:34Z</time>
  <course>10.3</course>
  <speed>0.1972308292331602</speed>
  <fix>3d</fix>
</trkpt>
<trkpt lat="40.0728426" lon="-105.230577">
  <ele>1589.52</ele>
  <time>2026-08-27T18:27:34Z</time>
  <course>10.32</course>
  <speed>0.2195449840010015</speed>
  <fix>3d</fix>
</trkpt>
<trkpt lat="40.0728425" lon="-105.2305768">
  <ele>1588.97</ele>
  <time>2026-08-27T18:27:34Z</time>
  <course>294.99</course>
  <speed>0.23</speed>
  <fix>3d</fix>
</trkpt>
<trkpt lat="40.0728426" lon="-105.230577">
  <ele>1589.53</ele>
  <time>2026-08-27T18:27:34Z</time>
  <course>10.32</course>
  <speed>0.2195449840010015</speed>
  <fix>3d</fix>
</trkpt>
<trkpt lat="40.0728428" lon="-105.2305775">
  <ele>1589.99</ele>
  <time>2026-08-27T18:27:34Z</time>
  <course>10.3</course>
  <speed>0.23323807579381203</speed>
  <fix>3d</fix>
</trkpt>
<trkpt lat="40.0728426" lon="-105.2305773">
  <ele>1589.44</ele>
  <time>2026-08-27T18:27:34Z</time>
  <course>296.29</course>
  <speed>0.25</speed>
  <fix>3d</fix>
</trkpt>
<trkpt lat="40.0728428" lon="-105.2305776">
  <ele>1590.06</ele>
  <time>2026-08-27T18:27:34Z</time>
  <course>10.29</course>
  <speed>0.23323807579381203</speed>
  <fix>3d</fix>
</trkpt>
<trkpt lat="40.072843" lon="-105.230578">
  <ele>1590.46</ele>
  <time>2026-08-27T18:27:34Z</time>
  <course>10.25</course>
  <speed>0.24698178070456936</speed>
  <fix>3d</fix>
</trkpt>
<trkpt lat="40.0728429" lon="-105.2305778">
  <ele>1589.9</ele>
  <time>2026-08-27T18:27:34Z</time>
  <course>297.61</course>
  <speed>0.26</speed>
  <fix>3d</fix>
</trkpt>
<trkpt lat="40.072843" lon="-105.2305781">
  <ele>1590.47</ele>
  <time>2026-08-27T18:27:34Z</time>
  <course>10.25</course>
  <speed>0.24698178070456936</speed>
  <fix>3d</fix>
</trkpt>
<trkpt lat="40.0728433" lon="-105.2305786">
  <ele>1590.93</ele>
  <time>2026-08-27T18:27:34Z</time>
  <course>10.2</course>
  <speed>0.260768096208106</speed>
  <fix>3d</fix>
</trkpt>
<trkpt lat="40.0728431" lon="-105.2305784">
  <ele>1590.37</ele>
  <time>2026-08-27T18:27:34Z</time>
  <course>298.96</course>
  <speed>0.28</speed>
  <fix>3d</fix>
</trkpt>
<trkpt lat="40.0728433" lon="-105.2305787">
  <ele>1591.0</ele>
  <time>2026-08-27T18:27:34Z</time>
  <course>10.2</course>
  <speed>0.260768096208106</speed>
  <fix>3d</fix>
</trkpt>
<trkpt lat="40.0728435" lon="-105.2305792">
  <ele>1591.4</ele>
  <time>2026-08-27T18:27:34Z</time>
  <course>10.16</course>
  <speed>0.266270539113887</speed>
  <fix>3d</fix>
</trkpt>
<trkpt lat="40.0728433" lon="-105.2305791">
  <ele>1590.84</ele>
  <time>2026-08-27T18:27:34Z</time>
  <course>300.32</course>
  <speed>0.29</speed>
  <fix>3d</fix>
</trkpt>
<trkpt lat="40.0728436" lon="-105.2305793">
  <ele>1591.47</ele>
  <time>2026-08-27T18:27:34Z</time>
  <course>10.15</course>
  <speed>0.266270539113887</speed>
  <fix>3d</fix>
</trkpt>
<trkpt lat="40.0728438" lon="-105.2305798">
  <ele>1591.88</ele>
  <time>2026-08-27T18:27:34Z</time>
  <course>10.11</course>
  <speed>0.280178514522438</speed>
  <fix>3d</fix>
</trkpt>
<trkpt lat="40.0728436" lon="-105.2305796">
  <ele>1591.31</ele>
  <time>2026-08-27T18:27:34Z</time>
  <course>301.7</course>
  <speed>0.3</speed>
  <fix>3d</fix>
</trkpt>
<trkpt lat="40.0728438" lon="-105.2305799">
  <ele>1591.95</ele>
  <time>2026-08-27T18:27:34Z</time>
  <course>10.11</course>
  <speed>0.280178514522438</speed>
  <fix>3d</fix>
</trkpt>
<trkpt lat="40.0728441" lon="-105.2305804">
  <ele>1592.35</ele>
  <time>2026-08-27T18:27:34Z</time>
  <course>10.07</course>
  <speed>0.280178514522438</speed>
  <fix>3d</fix>
</trkpt>
<trkpt lat="40.0728439" lon="-105.2305802">
  <ele>1591.78</ele>
  <time>2026-08-27T18:27:34Z</time>
  <course>303.14</course>
  <speed>0.31</speed>
  <fix>3d</fix>
</trkpt>
<trkpt lat="40.0728441" lon="-105.2305805">
  <ele>1592.43</ele>
  <time>2026-08-27T18:27:34Z</time>
  <course>10.06</course>
  <speed>0.280178514522438</speed>
  <fix>3d</fix>
</trkpt>
<trkpt lat="40.0728444" lon="-105.230581">
  <ele>1592.82</ele>
  <time>2026-08-27T18:27:34Z</time>
  <course>10.03</course>
  <speed>0.29410882339705485</speed>
  <fix>3d</fix>
</trkpt>
<trkpt lat="40.0728443" lon="-105.2305808">
  <ele>1592.25</ele>
  <time>2026-08-27T18:27:34Z</time>
  <course>304.64</course>
  <speed>0.32</speed>
  <fix>3d</fix>
</trkpt>
<trkpt lat="40.0728444" lon="-105.2305811">
  <ele>1592.82</ele>
  <time>2026-08-27T18:27:34Z</time>
  <course>10.03</course>
  <speed>0.29410882339705485</speed>
  <fix>3d</fix>
</trkpt>
<trkpt lat="40.0728447" lon="-105.2305817">
  <ele>1593.29</ele>
  <time>2026-08-27T18:27:34Z</time>
  <course>10.0</course>
  <speed>0.3</speed>
  <fix>3d</fix>
</trkpt>
<trkpt lat="40.0728446" lon="-105.2305815">
  <ele>1592.72</ele>
  <time>2026-08-27T18:27:34Z</time>
  <course>306.19</course>
  <speed>0.32</speed>
  <fix>3d</fix>
</trkpt>
<trkpt lat="40.0728448" lon="-105.2305818">
  <ele>1593.35</ele>
  <time>2026-08-27T18:27:34Z</time>
  <course>10.0</course>
  <speed>0.3</speed>
  <fix>3d</fix>
</trkpt>
<trkpt lat="40.0728451" lon="-105.2305823">
  <ele>1593.76</ele>
  <time>2026-08-27T18:27:34Z</time>
  <course>9.99</course>
  <speed>0.30610455730027936</speed>
  <fix>3d</fix>
</trkpt>
<trkpt lat="40.072845" lon="-105.2305821">
  <ele>1593.19</ele>
  <time>2026-08-27T18:27:34Z</time>
  <course>307.78</course>
  <speed>0.33</speed>
  <fix>3d</fix>
</trkpt>
<trkpt lat="40.0728452" lon="-105.2305824">
  <ele>1593.83</ele>
  <time>2026-08-27T18:27:34Z</time>
  <course>9.99</course>
  <speed>0.30610455730027936</speed>
  <fix>3d</fix>
</trkpt>
<trkpt lat="40.0728455" lon="-105.2305829">
  <ele>1594.24</ele>
  <time>2026-08-27T18:27:34Z</time>
  <course>10.0</course>
  <speed>0.31240998703626616</speed>
  <fix>3d</fix>
</trkpt>
<trkpt lat="40.0728453" lon="-105.2305827">
  <ele>1593.66</ele>
  <time>2026-08-27T18:27:34Z</time>
  <course>309.38</course>
  <speed>0.33</speed>
  <fix>3d</fix>
</trkpt>
<trkpt lat="40.0728455" lon="-105.230583">
  <ele>1594.31</ele>
  <time>2026-08-27T18:27:34Z</time>
  <course>10.0</course>
  <speed>0.31240998703626616</speed>
  <fix>3d</fix>
</trkpt>
<trkpt lat="40.0728459" lon="-105.2305836">
  <ele>1594.71</ele>
  <time>2026-08-27T18:27:34Z</time>
  <course>10.01</course>
  <speed>0.31240998703626616</speed>
  <fix>3d</fix>
</trkpt>
<trkpt lat="40.0728457" lon="-105.2305834">
  <ele>1594.13</ele>
  <time>2026-08-27T18:27:34Z</time>
  <course>310.98</course>
  <speed>0.33</speed>
  <fix>3d</fix>
</trkpt>
<trkpt lat="40.0728459" lon="-105.2305836">
  <ele>1594.78</ele>
  <time>2026-08-27T18:27:34Z</time>
  <course>10.01</course>
  <speed>0.31240998703626616</speed>
  <fix>3d</fix>
</trkpt>
<trkpt lat="40.0728463" lon="-105.2305842">
  <ele>1595.18</ele>
  <time>2026-08-27T18:27:34Z</time>
  <course>10.03</course>
  <speed>0.3189043743820395</speed>
  <fix>3d</fix>
</trkpt>
<trkpt lat="40.0728461" lon="-105.2305839">
  <ele>1594.6</ele>
  <time>2026-08-27T18:27:34Z</time>
  <course>312.55</course>
  <speed>0.33</speed>
  <fix>3d</fix>
</trkpt>
<trkpt lat="40.0728464" lon="-105.2305843">
  <ele>1595.25</ele>
  <time>2026-08-27T18:27:34Z</time>
  <course>10.03</course>
  <speed>0.3189043743820395</speed>
  <fix>3d</fix>
</trkpt>
<trkpt lat="40.0728467" lon="-105.2305848">
  <ele>1595.62</ele>
  <time>2026-08-27T18:27:34Z</time>
  <course>10.05</course>
  <speed>0.31144823004794875</speed>
  <fix>3d</fix>
</trkpt>
<trkpt lat="40.0728466" lon="-105.2305845">
  <ele>1595.07</ele>
  <time>2026-08-27T18:27:34Z</time>
  <course>314.12</course>
  <speed>0.33</speed>
  <fix>3d</fix>
</trkpt>
<trkpt lat="40.0728471" lon="-105.2305853">
  <ele>1595.91</ele>
  <time>2026-08-27T18:27:34Z</time>
  <course>10.06</course>
  <speed>0.3111269837220809</speed>
  <fix>3d</fix>
</trkpt>
<trkpt lat="40.0728469" lon="-105.230585">
  <ele>1595.48</ele>
  <time>2026-08-27T18:27:34Z</time>
  <course>315.67</course>
  <speed>0.33</speed>
  <fix>3d</fix>
</trkpt>
<trkpt lat="40.0728476" lon="-105.2305859">
  <ele>1596.09</ele>
  <time>2026-08-27T18:27:34Z</time>
  <course>10.07</course>
  <speed>0.3111269837220809</speed>
  <fix>3d</fix>
</trkpt>
<trkpt lat="40.0728474" lon="-105.2305856">
  <ele>1595.77</ele>
  <time>2026-08-27T18:27:34Z</time>
  <course>317.23</course>
  <speed>0.33</speed>
  <fix>3d</fix>
</trkpt>
<trkpt lat="40.072848" lon="-105.2305864">
  <ele>1596.21</ele>
  <time>2026-08-27T18:27:34Z</time>
  <course>10.07</course>
  <speed>0.304138126514911</speed>
  <fix>3d</fix>
</trkpt>
<trkpt lat="40.0728479" lon="-105.2305861">
  <ele>1595.94</ele>
  <time>2026-08-27T18:27:34Z</time>
  <course>318.84</course>
  <speed>0.32</speed>
  <fix>3d</fix>
</trkpt>
<trkpt lat="40.0728485" lon="-105.2305869">
  <ele>1596.3</ele>
  <time>2026-08-27T18:27:34Z</time>
  <course>10.07</course>
  <speed>0.3047950130825634</speed>
  <fix>3d</fix>
</trkpt>
<trkpt lat="40.0728483" lon="-105.2305866">
  <ele>1596.05</ele>
  <time>2026-08-27T18:27:34Z</time>
  <course>320.67</course>
  <speed>0.32</speed>
  <fix>3d</fix>
</trkpt>
<trkpt lat="40.0728489" lon="-105.2305873">
  <ele>1596.39</ele>
  <time>2026-08-27T18:27:34Z</time>
  <course>10.07</course>
  <speed>0.2842534080710379</speed>
  <fix>3d</fix>
</trkpt>
<trkpt lat="40.0728488" lon="-105.2305871">
  <ele>1596.14</ele>
  <time>2026-08-27T18:27:34Z</time>
  <course>322.97</course>
  <speed>0.31</speed>
  <fix>3d</fix>
</trkpt>
<trkpt lat="40.0728494" lon="-105.2305877">
  <ele>1596.45</ele>
  <time>2026-08-27T18:27:34Z</time>
  <course>10.05</course>
  <speed>0.25</speed>
  <fix>3d</fix>
</trkpt>
<trkpt lat="40.0728492" lon="-105.2305875">
  <ele>1596.22</ele>
  <time>2026-08-27T18:27:34Z</time>
  <course>325.64</course>
  <speed>0.3</speed>
  <fix>3d</fix>
</trkpt>
<trkpt lat="40.0728498" lon="-105.2305881">
  <ele>1596.5</ele>
  <time>2026-08-27T18:27:34Z</time>
  <course>10.01</course>
  <speed>0.21400934559032694</speed>
  <fix>3d</fix>
</trkpt>
<trkpt lat="40.0728497" lon="-105.2305879">
  <ele>1596.28</ele>
  <time>2026-08-27T18:27:34Z</time>
  <course>328.49</course>
  <speed>0.26</speed>
  <fix>3d</fix>
</trkpt>
<trkpt lat="40.0728501" lon="-105.2305883">
  <ele>1596.51</ele>
  <time>2026-08-27T18:27:34Z</time>
  <course>9.94</course>
  <speed>0.16401219466856726</speed>
  <fix>3d</fix>
</trkpt>
<trkpt lat="40.07285" lon="-105.2305882">
  <ele>1596.32</ele>
  <time>2026-08-27T18:27:34Z</time>
  <course>331.71</course>
  <speed>0.22</speed>
  <fix>3d</fix>
</trkpt>
<trkpt lat="40.0728504" lon="-105.2305885">
  <ele>1596.5</ele>
  <time>2026-08-27T18:27:34Z</time>
  <course>9.84</course>
  <speed>0.12206555615733702</speed>
  <fix>3d</fix>
</trkpt>
<trkpt lat="40.0728503" lon="-105.2305884">
  <ele>1596.33</ele>
  <time>2026-08-27T18:27:34Z</time>
  <course>335.69</course>
  <speed>0.18</speed>
  <fix>3d</fix>
</trkpt>
<trkpt lat="40.0728506" lon="-105.2305886">
  <ele>1596.47</ele>
  <time>2026-08-27T18:27:34Z</time>
  <course>9.72</course>
  <speed>0.07810249675906654</speed>
  <fix>3d</fix>
</trkpt>
<trkpt lat="40.0728506" lon="-105.2305885">
  <ele>1596.32</ele>
  <time>2026-08-27T18:27:34Z</time>
  <course>341.19</course>
  <speed>0.14</speed>
  <fix>3d</fix>
</trkpt>
<trkpt lat="40.0728507" lon="-105.2305887">
  <ele>1596.42</ele>
  <time>2026-08-27T18:27:34Z</time>
  <course>9.58</course>
  <speed>0.03605551275463989</speed>
  <fix>3d</fix>
</trkpt>
<trkpt lat="40.0728509" lon="-105.2305886">
  <ele>1596.28</ele>
  <time>2026-08-27T18:27:34Z</time>
  <course>349.96</course>
  <speed>0.09</speed>
  <fix>3d</fix>
</trkpt>
<trkpt lat="40.0728508" lon="-105.2305887">
  <ele>1596.36</ele>
  <time>2026-08-27T18:27:34Z</time>
  <course>9.45</course>
  <speed>0.01</speed>
  <fix>3d</fix>
</trkpt>
<trkpt lat="40.072851" lon="-105.2305887">
  <ele>1596.23</ele>
  <time>2026-08-27T18:27:34Z</time>
  <course>7.13</course>
  <speed>0.06</speed>
  <fix>3d</fix>
</trkpt>
<trkpt lat="40.0728508" lon="-105.2305886">
  <ele>1596.3</ele>
  <time>2026-08-27T18:27:34Z</time>
  <course>9.35</course>
  <speed>0.03</speed>
  <fix>3d</fix>
</trkpt>
<trkpt lat="40.0728511" lon="-105.2305886">
  <ele>1596.17</ele>
  <time>2026-08-27T18:27:34Z</time>
  <course>47.48</course>
  <speed>0.03</speed>
  <fix>3d</fix>
</trkpt>
<trkpt lat="40.0728508" lon="-105.2305885">
  <ele>1596.24</ele>
  <time>2026-08-27T18:27:34Z</time>
  <course>9.29</course>
  <speed>0.06082762530298219</speed>
  <fix>3d</fix>
</trkpt>
<trkpt lat="40.0728511" lon="-105.2305885">
  <ele>1596.11</ele>
  <time>2026-08-27T18:27:34Z</time>
  <course>100.44</course>
  <speed>0.04</speed>
  <fix>3d</fix>
</trkpt>
<trkpt lat="40.0728507" lon="-105.2305885">
  <ele>1596.17</ele>
  <time>2026-08-27T18:27:34Z</time>
  <course>9.29</course>
  <speed>0.09219544457292887</speed>
  <fix>3d</fix>
</trkpt>
<trkpt lat="40.0728511" lon="-105.2305885">
  <ele>1596.05</ele>
  <time>2026-08-27T18:27:34Z</time>
  <course>125.2</course>
  <speed>0.06</speed>
  <fix>3d</fix>
</trkpt>
<trkpt lat="40.0728507" lon="-105.2305884">
  <ele>1596.11</ele>
  <time>2026-08-27T18:27:34Z</time>
  <course>9.34</course>
  <speed>0.11704699910719625</speed>
  <fix>3d</fix>
</trkpt>
<trkpt lat="40.072851" lon="-105.2305883">
  <ele>1595.99</ele>
  <time>2026-08-27T18:27:34Z</time>
  <course>134.34</course>
  <speed>0.09</speed>
  <fix>3d</fix>
</trkpt>
<trkpt lat="40.0728505" lon="-105.2305881">
  <ele>1596.07</ele>
  <time>2026-08-27T18:27:34Z</time>
  <course>9.45</course>
  <speed>0.17492855684535902</speed>
  <fix>3d</fix>
</trkpt>
<trkpt lat="40.0728509" lon="-105.2305882">
  <ele>1595.93</ele>
  <time>2026-08-27T18:27:34Z</time>
  <course>135.95</course>
  <speed>0.13</speed>
  <fix>3d</fix>
</trkpt>
<trkpt lat="40.0728503" lon="-105.2305878">
  <ele>1596.03</ele>
  <time>2026-08-27T18:27:34Z</time>
  <course>9.59</course>
  <speed>0.2640075756488817</speed>
  <fix>3d</fix>
</trkpt>
<trkpt lat="40.0728506" lon="-105.2305879">
  <ele>1595.89</ele>
  <time>2026-08-27T18:27:34Z</time>
  <course>134.05</course>
  <speed>0.19</speed>
  <fix>3d</fix>
</trkpt>
<trkpt lat="40.0728499" lon="-105.2305872">
  <ele>1596.02</ele>
  <time>2026-08-27T18:27:34Z</time>
  <course>9.68</course>
  <speed>0.3828837943815329</speed>
  <fix>3d</fix>
</trkpt>
<trkpt lat="40.0728504" lon="-105.2305875">
  <ele>1595.87</ele>
  <time>2026-08-27T18:27:34Z</time>
  <course>131.63</course>
  <speed>0.28</speed>
  <fix>3d</fix>
</trkpt>
<trkpt lat="40.0728494" lon="-105.2305865">
  <ele>1596.01</ele>
  <time>2026-08-27T18:27:34Z</time>
  <course>9.63</course>
  <speed>0.5093132631298737</speed>
  <fix>3d</fix>
</trkpt>
<trkpt lat="40.07285" lon="-105.2305869">
  <ele>1595.85</ele>
  <time>2026-08-27T18:27:34Z</time>
  <course>130.03</course>
  <speed>0.4</speed>
  <fix>3d</fix>
</trkpt>
<trkpt lat="40.0728487" lon="-105.2305854">
  <ele>1596.02</ele>
  <time>2026-08-27T18:27:34Z</time>
  <course>9.44</course>
  <speed>0.6435060217278468</speed>
  <fix>3d</fix>
</trkpt>
<trkpt lat="40.0728495" lon="-105.2305861">
  <ele>1595.85</ele>
  <time>2026-08-27T18:27:34Z</time>
  <course>129.32</course>
  <speed>0.53</speed>
  <fix>3d</fix>
</trkpt>
<trkpt lat="40.0728479" lon="-105.2305842">
  <ele>1596.03</ele>
  <time>2026-08-27T18:27:34Z</time>
  <course>9.13</course>
  <speed>0.7424957912338628</speed>
  <fix>3d</fix>
</trkpt>
<trkpt lat="40.0728488" lon="-105.2305849">
  <ele>1595.87</ele>
  <time>2026-08-27T18:27:34Z</time>
  <course>129.27</course>
  <speed>0.65</speed>
  <fix>3d</fix>
</trkpt>
<trkpt lat="40.072847" lon="-105.2305828">
  <ele>1596.05</ele>
  <time>2026-08-27T18:27:34Z</time>
  <course>8.83</course>
  <speed>0.8061017305526641</speed>
  <fix>3d</fix>
</trkpt>
<trkpt lat="40.072848" lon="-105.2305837">
  <ele>1595.88</ele>
  <time>2026-08-27T18:27:34Z</time>
  <course>129.73</course>
  <speed>0.74</speed>
  <fix>3d</fix>
</trkpt>
<trkpt lat="40.0728461" lon="-105.2305814">
  <ele>1596.06</ele>
  <time>2026-08-27T18:27:34Z</time>
  <course>8.62</course>
  <speed>0.8273451516749222</speed>
  <fix>3d</fix>
</trkpt>
<trkpt lat="40.0728471" lon="-105.2305823">
  <ele>1595.9</ele>
  <time>2026-08-27T18:27:34Z</time>
  <course>130.57</course>
  <speed>0.8</speed>
  <fix>3d</fix>
</trkpt>
<trkpt lat="40.0728451" lon="-105.23058">
  <ele>1596.07</ele>
  <time>2026-08-27T18:27:34Z</time>
  <course>8.56</course>
  <speed>0.7990619500389191</speed>
  <fix>3d</fix>
</trkpt>
<trkpt lat="40.0728461" lon="-105.2305808">
  <ele>1595.91</ele>
  <time>2026-08-27T18:27:34Z</time>
  <course>131.7</course>
  <speed>0.82</speed>
  <fix>3d</fix>
</trkpt>
<trkpt lat="40.0728442" lon="-105.2305786">
  <ele>1596.08</ele>
  <time>2026-08-27T18:27:34Z</time>
  <course>8.67</course>
  <speed>0.7566372975210779</speed>
  <fix>3d</fix>
</trkpt>
<trkpt lat="40.0728451" lon="-105.2305794">
  <ele>1595.92</ele>
  <time>2026-08-27T18:27:34Z</time>
  <course>132.94</course>
  <speed>0.79</speed>
  <fix>3d</fix>
</trkpt>
<trkpt lat="40.0728433" lon="-105.2305773">
  <ele>1596.08</ele>
  <time>2026-08-27T18:27:34Z</time>
  <course>8.92</course>
  <speed>0.6931089380465383</speed>
  <fix>3d</fix>
</trkpt>
<trkpt lat="40.0728442" lon="-105.2305781">
  <ele>1595.94</ele>
  <time>2026-08-27T18:27:34Z</time>
  <course>134.11</course>
  <speed>0.74</speed>
  <fix>3d</fix>
</trkpt>
<trkpt lat="40.0728425" lon="-105.2305762">
  <ele>1596.09</ele>
  <time>2026-08-27T18:27:34Z</time>
  <course>9.24</course>
  <speed>0.6224146527838174</speed>
  <fix>3d</fix>
</trkpt>
<trkpt lat="40.0728433" lon="-105.2305769">
  <ele>1595.95</ele>
  <time>2026-08-27T18:27:34Z</time>
  <course>135.32</course>
  <speed>0.68</speed>
  <fix>3d</fix>
</trkpt>
<trkpt lat="40.0728418" lon="-105.2305753">
  <ele>1596.09</ele>
  <time>2026-08-27T18:27:34Z</time>
  <course>9.59</course>
  <speed>0.530754180388624</speed>
  <fix>3d</fix>
</trkpt>
<trkpt lat="40.0728424" lon="-105.2305758">
  <ele>1595.96</ele>
  <time>2026-08-27T18:27:34Z</time>
  <course>136.96</course>
  <speed>0.6</speed>
  <fix>3d</fix>
</trkpt>
<trkpt lat="40.0728412" lon="-105.2305745">
  <ele>1596.09</ele>
  <time>2026-08-27T18:27:34Z</time>
  <course>9.91</course>
  <speed>0.39698866482558415</speed>
  <fix>3d</fix>
</trkpt>
<trkpt lat="40.0728417" lon="-105.230575">
  <ele>1595.96</ele>
  <time>2026-08-27T18:27:34Z</time>
  <course>139.65</course>
  <speed>0.5</speed>
  <fix>3d</fix>
</trkpt>
<trkpt lat="40.0728407" lon="-105.230574">
  <ele>1596.1</ele>
  <time>2026-08-27T18:27:34Z</time>
  <course>10.11</course>
  <speed>0.25</speed>
  <fix>3d</fix>
</trkpt>
<trkpt lat="40.0728411" lon="-105.2305744">
  <ele>1595.97</ele>
  <time>2026-08-27T18:27:34Z</time>
  <course>144.57</course>
  <speed>0.37</speed>
  <fix>3d</fix>
</trkpt>
<trkpt lat="40.0728405" lon="-105.2305738">
  <ele>1596.1</ele>
  <time>2026-08-27T18:27:34Z</time>
  <course>10.15</course>
  <speed>0.0854400374531753</speed>
  <fix>3d</fix>
</trkpt>
<trkpt lat="40.0728406" lon="-105.2305739">
  <ele>1595.97</ele>
  <time>2026-08-27T18:27:34Z</time>
  <course>155.78</course>
  <speed>0.23</speed>
  <fix>3d</fix>
</trkpt>
<trkpt lat="40.0728404" lon="-105.2305739">
  <ele>1596.1</ele>
  <time>2026-08-27T18:27:34Z</time>
  <course>10.0</course>
  <speed>0.0632455532033676</speed>
  <fix>3d</fix>
</trkpt>
<trkpt lat="40.0728403" lon="-105.2305739">
  <ele>1595.98</ele>
  <time>2026-08-27T18:27:34Z</time>
  <course>197.07</course>
  <speed>0.1</speed>
  <fix>3d</fix>
</trkpt>
<trkpt lat="40.0728405" lon="-105.2305742">
  <ele>1596.1</ele>
  <time>2026-08-27T18:27:34Z</time>
  <course>9.69</course>
  <speed>0.18439088914585774</speed>
  <fix>3d</fix>
</trkpt>
<trkpt lat="40.0728402" lon="-105.230574">
  <ele>1595.98</ele>
  <time>2026-08-27T18:27:34Z</time>
  <course>272.71</course>
  <speed>0.14</speed>
  <fix>3d</fix>
</trkpt>
<trkpt lat="40.0728407" lon="-105.2305746">
  <ele>1596.09</ele>
  <time>2026-08-27T18:27:34Z</time>
  <course>9.32</course>
  <speed>0.2545584412271571</speed>
  <fix>3d</fix>
</trkpt>
<trkpt lat="40.0728403" lon="-105.2305744">
  <ele>1595.98</ele>
  <time>2026-08-27T18:27:34Z</time>
  <course>294.77</course>
  <speed>0.23</speed>
  <fix>3d</fix>
</trkpt>
<trkpt lat="40.0728409" lon="-105.2305751">
  <ele>1596.09</ele>
  <time>2026-08-27T18:27:34Z</time>
  <course>8.99</course>
  <speed>0.27018512172212594</speed>
  <fix>3d</fix>
</trkpt>
<trkpt lat="40.0728405" lon="-105.2305749">
  <ele>1595.98</ele>
  <time>2026-08-27T18:27:34Z</time>
  <course>303.69</course>
  <speed>0.29</speed>
  <fix>3d</fix>
</trkpt>
<trkpt lat="40.0728412" lon="-105.2305756">
  <ele>1596.09</ele>
  <time>2026-08-27T18:27:34Z</time>
  <course>8.83</course>
  <speed>0.24413111231467405</speed>
  <fix>3d</fix>
</trkpt>
<trkpt lat="40.0728408" lon="-105.2305756">
  <ele>1595.98</ele>
  <time>2026-08-27T18:27:34Z</time>
  <course>309.8</course>
  <speed>0.3</speed>
  <fix>3d</fix>
</trkpt>
<trkpt lat="40.0728415" lon="-105.230576">
  <ele>1596.09</ele>
  <time>2026-08-27T18:27:34Z</time>
  <course>8.98</course>
  <speed>0.20591260281974003</speed>
  <fix>3d</fix>
</trkpt>
<trkpt lat="40.0728412" lon="-105.2305761">
  <ele>1595.98</ele>
  <time>2026-08-27T18:27:34Z</time>
  <course>315.5</course>
  <speed>0.28</speed>
  <fix>3d</fix>
</trkpt>
<trkpt lat="40.0728418" lon="-105.2305763">
  <ele>1596.09</ele>
  <time>2026-08-27T18:27:34Z</time>
  <course>9.41</course>
  <speed>0.1676305461424021</speed>
  <fix>3d</fix>
</trkpt>
<trkpt lat="40.0728415" lon="-105.2305765">
  <ele>1595.98</ele>
  <time>2026-08-27T18:27:34Z</time>
  <course>321.94</course>
  <speed>0.24</speed>
  <fix>3d</fix>
</trkpt>
<trkpt lat="40.072842" lon="-105.2305765">
  <ele>1596.1</ele>
  <time>2026-08-27T18:27:34Z</time>
  <course>10.01</course>
  <speed>0.130384048104053</speed>
  <fix>3d</fix>
</trkpt>
<trkpt lat="40.0728418" lon="-105.2305768">
  <ele>1595.99</ele>
  <time>2026-08-27T18:27:34Z</time>
  <course>330.21</course>
  <speed>0.2</speed>
  <fix>3d</fix>
</trkpt>
<trkpt lat="40.0728423" lon="-105.2305767">
  <ele>1596.1</ele>
  <time>2026-08-27T18:27:34Z</time>
  <course>10.7</course>
  <speed>0.1019803902718557</speed>
  <fix>3d</fix>
</trkpt>
<trkpt lat="40.0728421" lon="-105.2305769">
  <ele>1595.99</ele>
  <time>2026-08-27T18:27:34Z</time>
  <course>341.35</course>
  <speed>0.16</speed>
  <fix>3d</fix>
</trkpt>
<trkpt lat="40.0728424" lon="-105.2305767">
  <ele>1596.1</ele>
  <time>2026-08-27T18:27:34Z</time>
  <course>11.39</course>
  <speed>0.09433981132056603</speed>
  <fix>3d</fix>
</trkpt>
<trkpt lat="40.0728424" lon="-105.230577">
  <ele>1596.0</ele>
  <time>2026-08-27T18:27:34Z</time>
  <course>356.03</course>
  <speed>0.13</speed>
  <fix>3d</fix>
</trkpt>
<trkpt lat="40.0728426" lon="-105.2305767">
  <ele>1596.11</ele>
  <time>2026-08-27T18:27:34Z</time>
  <course>12.0</course>
  <speed>0.09433981132056603</speed>
  <fix>3d</fix>
</trkpt>
<trkpt lat="40.0728426" lon="-105.230577">
  <ele>1596.0</ele>
  <time>2026-08-27T18:27:34Z</time>
  <course>14.01</course>
  <speed>0.11</speed>
  <fix>3d</fix>
</trkpt>
<trkpt lat="40.0728427" lon="-105.2305765">
  <ele>1596.1</ele>
  <time>2026-08-27T18:27:34Z</time>
  <course>12.49</course>
  <speed>0.1044030650891055</speed>
  <fix>3d</fix>
</trkpt>
<trkpt lat="40.0728427" lon="-105.230577">
  <ele>1596.0</ele>
  <time>2026-08-27T18:27:34Z</time>
  <course>33.46</course>
  <speed>0.1</speed>
  <fix>3d</fix>
</trkpt>
<trkpt lat="40.0728428" lon="-105.2305764">
  <ele>1596.1</ele>
  <time>2026-08-27T18:27:34Z</time>
  <course>12.82</course>
  <speed>0.11045361017187261</speed>
  <fix>3d</fix>
</trkpt>
<trkpt lat="40.0728429" lon="-105.2305768">
  <ele>1596.0</ele>
  <time>2026-08-27T18:27:34Z</time>
  <course>51.74</course>
  <speed>0.1</speed>
  <fix>3d</fix>
</trkpt>
<trkpt lat="40.0728428" lon="-105.2305762">
  <ele>1596.1</ele>
  <time>2026-08-27T18:27:34Z</time>
  <course>12.97</course>
  <speed>0.12041594578792296</speed>
  <fix>3d</fix>
</trkpt>
<trkpt lat="40.072843" lon="-105.2305767">
  <ele>1596.0</ele>
  <time>2026-08-27T18:27:34Z</time>
  <course>67.52</course>
  <speed>0.1</speed>
  <fix>3d</fix>
</trkpt>
<trkpt lat="40.0728428" lon="-105.230576">
  <ele>1596.1</ele>
  <time>2026-08-27T18:27:34Z</time>
  <course>12.96</course>
  <speed>0.12369316876852982</speed>
  <fix>3d</fix>
</trkpt>
<trkpt lat="40.0728431" lon="-105.2305764">
  <ele>1596.0</ele>
  <time>2026-08-27T18:27:34Z</time>
  <course>80.6</course>
  <speed>0.1</speed>
  <fix>3d</fix>
</trkpt>
<trkpt lat="40.0728428" lon="-105.2305757">
  <ele>1596.1</ele>
  <time>2026-08-27T18:27:34Z</time>
  <course>12.81</course>
  <speed>0.1264911064067352</speed>
  <fix>3d</fix>
</trkpt>
<trkpt lat="40.0728431" lon="-105.2305762">
  <ele>1596.01</ele>
  <time>2026-08-27T18:27:34Z</time>
  <course>91.36</course>
  <speed>0.11</speed>
  <fix>3d</fix>
</trkpt>
<trkpt lat="40.0728428" lon="-105.2305755">
  <ele>1596.1</ele>
  <time>2026-08-27T18:27:34Z</time>
  <course>12.55</course>
  <speed>0.1341640786499874</speed>
  <fix>3d</fix>
</trkpt>
<trkpt lat="40.0728431" lon="-105.2305759">
  <ele>1596.01</ele>
  <time>2026-08-27T18:27:34Z</time>
  <course>100.46</course>
  <speed>0.11</speed>
  <fix>3d</fix>
</trkpt>
<trkpt lat="40.0728428" lon="-105.2305753">
  <ele>1596.1</ele>
  <time>2026-08-27T18:27:34Z</time>
  <course>12.22</course>
  <speed>0.130384048104053</speed>
  <fix>3d</fix>
</trkpt>
<trkpt lat="40.0728431" lon="-105.2305756">
  <ele>1596.01</ele>
  <time>2026-08-27T18:27:34Z</time>
  <course>108.52</course>
  <speed>0.11</speed>
  <fix>3d</fix>
</trkpt>
<trkpt lat="40.0728427" lon="-105.2305751">
  <ele>1596.1</ele>
  <time>2026-08-27T18:27:34Z</time>
  <course>11.87</course>
  <speed>0.12806248474865697</speed>
  <fix>3d</fix>
</trkpt>
<trkpt lat="40.072843" lon="-105.2305753">
  <ele>1596.01</ele>
  <time>2026-08-27T18:27:34Z</time>
  <course>115.91</course>
  <speed>0.11</speed>
  <fix>3d</fix>
</trkpt>
<trkpt lat="40.0728426" lon="-105.2305749">
  <ele>1596.1</ele>
  <time>2026-08-27T18:27:34Z</time>
  <course>11.52</course>
  <speed>0.12727922061357855</speed>
  <fix>3d</fix>
</trkpt>
<trkpt lat="40.0728429" lon="-105.2305752">
  <ele>1596.01</ele>
  <time>2026-08-27T18:27:34Z</time>
  <course>122.88</course>
  <speed>0.1</speed>
  <fix>3d</fix>
</trkpt>
<trkpt lat="40.0728425" lon="-105.2305747">
  <ele>1596.11</ele>
  <time>2026-08-27T18:27:34Z</time>
  <course>11.22</course>
  <speed>0.11401754250991379</speed>
  <fix>3d</fix>
</trkpt>
<trkpt lat="40.0728428" lon="-105.2305749">
  <ele>1596.02</ele>
  <time>2026-08-27T18:27:34Z</time>
  <course>129.78</course>
  <speed>0.1</speed>
  <fix>3d</fix>
</trkpt>
<trkpt lat="40.0728424" lon="-105.2305746">
  <ele>1596.11</ele>
  <time>2026-08-27T18:27:34Z</time>
  <course>10.99</course>
  <speed>0.10816653826391968</speed>
  <fix>3d</fix>
</trkpt>
<trkpt lat="40.0728427" lon="-105.2305748">
  <ele>1596.02</ele>
  <time>2026-08-27T18:27:34Z</time>
  <course>136.85</course>
  <speed>0.09</speed>
  <fix>3d</fix>
</trkpt>
<trkpt lat="40.0728423" lon="-105.2305744">
  <ele>1596.11</ele>
  <time>2026-08-27T18:27:34Z</time>
  <course>10.84</course>
  <speed>0.10295630140987001</speed>
  <fix>3d</fix>
</trkpt>
<trkpt lat="40.0728426" lon="-105.2305746">
  <ele>1596.02</ele>
  <time>2026-08-27T18:27:34Z</time>
  <course>144.25</course>
  <speed>0.09</speed>
  <fix>3d</fix>
</trkpt>
<trkpt lat="40.0728422" lon="-105.2305744">
  <ele>1596.11</ele>
  <time>2026-08-27T18:27:34Z</time>
  <course>10.78</course>
  <speed>0.0854400374531753</speed>
  <fix>3d</fix>
</trkpt>
<trkpt lat="40.0728424" lon="-105.2305745">
  <ele>1596.02</ele>
  <time>2026-08-27T18:27:34Z</time>
  <course>152.18</course>
  <speed>0.08</speed>
  <fix>3d</fix>
</trkpt>
<trkpt lat="40.0728421" lon="-105.2305743">
  <ele>1596.12</ele>
  <time>2026-08-27T18:27:34Z</time>
  <course>10.79</course>
  <speed>0.0824621125123532</speed>
  <fix>3d</fix>
</trkpt>
<trkpt lat="40.0728423" lon="-105.2305744">
  <ele>1596.02</ele>
  <time>2026-08-27T18:27:34Z</time>
  <course>160.99</course>
  <speed>0.07</speed>
  <fix>3d</fix>
</trkpt>
<trkpt lat="40.072842" lon="-105.2305743">
  <ele>1596.12</ele>
  <time>2026-08-27T18:27:34Z</time>
  <course>10.88</course>
  <speed>0.07071067811865475</speed>
  <fix>3d</fix>
</trkpt>
<trkpt lat="40.0728422" lon="-105.2305744">
  <ele>1596.02</ele>
  <time>2026-08-27T18:27:34Z</time>
  <course>171.04</course>
  <speed>0.06</speed>
  <fix>3d</fix>
</trkpt>
<trkpt lat="40.0728419" lon="-105.2305743">
  <ele>1596.12</ele>
  <time>2026-08-27T18:27:34Z</time>
  <course>11.01</course>
  <speed>0.06</speed>
  <fix>3d</fix>
</trkpt>
<trkpt lat="40.0728421" lon="-105.2305744">
  <ele>1596.02</ele>
  <time>2026-08-27T18:27:34Z</time>
  <course>182.47</course>
  <speed>0.05</speed>
  <fix>3d</fix>
</trkpt>
<trkpt lat="40.0728418" lon="-105.2305743">
  <ele>1596.12</ele>
  <time>2026-08-27T18:27:34Z</time>
  <course>11.17</course>
  <speed>0.05</speed>
  <fix>3d</fix>
</trkpt>
<trkpt lat="40.072842" lon="-105.2305744">
  <ele>1596.02</ele>
  <time>2026-08-27T18:27:34Z</time>
  <course>195.44</course>
  <speed>0.05</speed>
  <fix>3d</fix>
</trkpt>
<trkpt lat="40.0728418" lon="-105.2305743">
  <ele>1596.12</ele>
  <time>2026-08-27T18:27:34Z</time>
  <course>11.34</course>
  <speed>0.0412310562561766</speed>
  <fix>3d</fix>
</trkpt>
<trkpt lat="40.0728419" lon="-105.2305744">
  <ele>1596.02</ele>
  <time>2026-08-27T18:27:34Z</time>
  <course>210.69</course>
  <speed>0.04</speed>
  <fix>3d</fix>
</trkpt>
<trkpt lat="40.0728417" lon="-105.2305744">
  <ele>1596.11</ele>
  <time>2026-08-27T18:27:34Z</time>
  <course>11.5</course>
  <speed>0.0316227766016838</speed>
  <fix>3d</fix>
</trkpt>
<trkpt lat="40.0728418" lon="-105.2305744">
  <ele>1596.01</ele>
  <time>2026-08-27T18:27:34Z</time>
  <course>228.59</course>
  <speed>0.04</speed>
  <fix>3d</fix>
</trkpt>
<trkpt lat="40.0728417" lon="-105.2305744">
  <ele>1596.08</ele>
  <time>2026-08-27T18:27:34Z</time>
  <course>11.64</course>
  <speed>0.0282842712474619</speed>
  <fix>3d</fix>
</trkpt>
<trkpt lat="40.0728418" lon="-105.2305745">
  <ele>1596.0</ele>
  <time>2026-08-27T18:27:34Z</time>
  <course>247.03</course>
  <speed>0.03</speed>
  <fix>3d</fix>
</trkpt>
<trkpt lat="40.0728417" lon="-105.2305745">
  <ele>1596.02</ele>
  <time>2026-08-27T18:27:34Z</time>
  <course>11.74</course>
  <speed>0.022360679774997897</speed>
  <fix>3d</fix>
</trkpt>
<trkpt lat="40.0728418" lon="-105.2305746">
  <ele>1595.97</ele>
  <time>2026-08-27T18:27:34Z</time>
  <course>263.03</course>
  <speed>0.04</speed>
  <fix>3d</fix>
</trkpt>
<trkpt lat="40.0728417" lon="-105.2305746">
  <ele>1595.94</ele>
  <time>2026-08-27T18:27:34Z</time>
  <course>11.81</course>
  <speed>0.02</speed>
  <fix>3d</fix>
</trkpt>
<trkpt lat="40.0728418" lon="-105.2305747">
  <ele>1595.9</ele>
  <time>2026-08-27T18:27:34Z</time>
  <course>275.98</course>
  <speed>0.04</speed>
  <fix>3d</fix>
</trkpt>
<trkpt lat="40.0728417" lon="-105.2305747">
  <ele>1595.84</ele>
  <time>2026-08-27T18:27:34Z</time>
  <course>11.84</course>
  <speed>0.02</speed>
  <fix>3d</fix>
</trkpt>
<trkpt lat="40.0728418" lon="-105.2305748">
  <ele>1595.82</ele>
  <time>2026-08-27T18:27:34Z</time>
  <course>286.49</course>
  <speed>0.04</speed>
  <fix>3d</fix>
</trkpt>
<trkpt lat="40.0728417" lon="-105.2305748">
  <ele>1595.73</ele>
  <time>2026-08-27T18:27:34Z</time>
  <course>11.83</course>
  <speed>0.02</speed>
  <fix>3d</fix>
</trkpt>
<trkpt lat="40.0728418" lon="-105.2305749">
  <ele>1595.72</ele>
  <time>2026-08-27T18:27:34Z</time>
  <course>294.99</course>
  <speed>0.04</speed>
  <fix>3d</fix>
</trkpt>
<trkpt lat="40.0728417" lon="-105.2305749">
  <ele>1595.62</ele>
  <time>2026-08-27T18:27:34Z</time>
  <course>11.79</course>
  <speed>0.022360679774997897</speed>
  <fix>3d</fix>
</trkpt>
<trkpt lat="40.0728418" lon="-105.230575">
  <ele>1595.61</ele>
  <time>2026-08-27T18:27:34Z</time>
  <course>302.29</course>
  <speed>0.05</speed>
  <fix>3d</fix>
</trkpt>
<trkpt lat="40.0728418" lon="-105.230575">
  <ele>1595.51</ele>
  <time>2026-08-27T18:27:34Z</time>
  <course>11.72</course>
  <speed>0.01414213562373095</speed>
  <fix>3d</fix>
</trkpt>
<trkpt lat="40.0728418" lon="-105.2305751">
  <ele>1595.5</ele>
  <time>2026-08-27T18:27:34Z</time>
  <course>308.81</course>
  <speed>0.05</speed>
  <fix>3d</fix>
</trkpt>
<trkpt lat="40.0728418" lon="-105.230575">
  <ele>1595.39</ele>
  <time>2026-08-27T18:27:35Z</time>
  <course>11.64</course>
  <speed>0.01414213562373095</speed>
  <fix>3d</fix>
</trkpt>
<trkpt lat="40.0728419" lon="-105.2305752">
  <ele>1595.38</ele>
  <time>2026-08-27T18:27:35Z</time>
  <course>314.47</course>
  <speed>0.05</speed>
  <fix>3d</fix>
</trkpt>
<trkpt lat="40.0728419" lon="-105.2305751">
  <ele>1595.28</ele>
  <time>2026-08-27T18:27:35Z</time>
  <course>11.55</course>
  <speed>0.01414213562373095</speed>
  <fix>3d</fix>
</trkpt>
<trkpt lat="40.0728419" lon="-105.2305753">
  <ele>1595.27</ele>
  <time>2026-08-27T18:27:35Z</time>
  <course>319.32</course>
  <speed>0.05</speed>
  <fix>3d</fix>
</trkpt>
<trkpt lat="40.072842" lon="-105.2305752">
  <ele>1595.18</ele>
  <time>2026-08-27T18:27:35Z</time>
  <course>11.45</course>
  <speed>0.01</speed>
  <fix>3d</fix>
</trkpt>
<trkpt lat="40.072842" lon="-105.2305753">
  <ele>1595.16</ele>
  <time>2026-08-27T18:27:35Z</time>
  <course>323.67</course>
  <speed>0.05</speed>
  <fix>3d</fix>
</trkpt>
<trkpt lat="40.072842" lon="-105.2305752">
  <ele>1595.07</ele>
  <time>2026-08-27T18:27:35Z</time>
  <course>11.37</course>
  <speed>0.01</speed>
  <fix>3d</fix>
</trkpt>
<trkpt lat="40.0728421" lon="-105.2305754">
  <ele>1595.06</ele>
  <time>2026-08-27T18:27:35Z</time>
  <course>327.98</course>
  <speed>0.04</speed>
  <fix>3d</fix>
</trkpt>
<trkpt lat="40.0728421" lon="-105.2305753">
  <ele>1594.97</ele>
  <time>2026-08-27T18:27:35Z</time>
  <course>11.31</course>
  <speed>0.01</speed>
  <fix>3d</fix>
</trkpt>
<trkpt lat="40.0728421" lon="-105.2305755">
  <ele>1594.96</ele>
  <time>2026-08-27T18:27:35Z</time>
  <course>332.67</course>
  <speed>0.04</speed>
  <fix>3d</fix>
</trkpt>
<trkpt lat="40.0728421" lon="-105.2305753">
  <ele>1594.87</ele>
  <time>2026-08-27T18:27:35Z</time>
  <course>11.27</course>
  <speed>0.01</speed>
  <fix>3d</fix>
</trkpt>
<trkpt lat="40.0728422" lon="-105.2305755">
  <ele>1594.86</ele>
  <time>2026-08-27T18:27:35Z</time>
  <course>337.9</course>
  <speed>0.04</speed>
  <fix>3d</fix>
</trkpt>
<trkpt lat="40.0728422" lon="-105.2305753">
  <ele>1594.76</ele>
  <time>2026-08-27T18:27:35Z</time>
  <course>11.24</course>
  <speed>0.01</speed>
  <fix>3d</fix>
</trkpt>
<trkpt lat="40.0728423" lon="-105.2305756">
  <ele>1594.76</ele>
  <time>2026-08-27T18:27:35Z</time>
  <course>343.67</course>
  <speed>0.03</speed>
  <fix>3d</fix>
</trkpt>
<trkpt lat="40.0728422" lon="-105.2305753">
  <ele>1594.67</ele>
  <time>2026-08-27T18:27:35Z</time>
  <course>11.24</course>
  <speed>0.01</speed>
  <fix>3d</fix>
</trkpt>
<trkpt lat="40.0728424" lon="-105.2305756">
  <ele>1594.65</ele>
  <time>2026-08-27T18:27:35Z</time>
  <course>349.66</course>
  <speed>0.03</speed>
  <fix>3d</fix>
</trkpt>
<trkpt lat="40.0728423" lon="-105.2305753">
  <ele>1594.57</ele>
  <time>2026-08-27T18:27:35Z</time>
  <course>11.26</course>
  <speed>0.01</speed>
  <fix>3d</fix>
</trkpt>
<trkpt lat="40.0728424" lon="-105.2305756">
  <ele>1594.56</ele>
  <time>2026-08-27T18:27:35Z</time>
  <course>356.01</course>
  <speed>0.02</speed>
  <fix>3d</fix>
</trkpt>
<trkpt lat="40.0728423" lon="-105.2305753">
  <ele>1594.47</ele>
  <time>2026-08-27T18:27:35Z</time>
  <course>11.29</course>
  <speed>0.02</speed>
  <fix>3d</fix>
</trkpt>
<trkpt lat="40.0728425" lon="-105.2305756">
  <ele>1594.46</ele>
  <time>2026-08-27T18:27:35Z</time>
  <course>3.41</course>
  <speed>0.02</speed>
  <fix>3d</fix>
</trkpt>
<trkpt lat="40.0728423" lon="-105.2305753">
  <ele>1594.37</ele>
  <time>2026-08-27T18:27:35Z</time>
  <course>11.32</course>
  <speed>0.02</speed>
  <fix>3d</fix>
</trkpt>
<trkpt lat="40.0728425" lon="-105.2305756">
  <ele>1594.36</ele>
  <time>2026-08-27T18:27:35Z</time>
  <course>12.26</course>
  <speed>0.02</speed>
  <fix>3d</fix>
</trkpt>
<trkpt lat="40.0728424" lon="-105.2305753">
  <ele>1594.27</ele>
  <time>2026-08-27T18:27:35Z</time>
  <course>11.36</course>
  <speed>0.022360679774997897</speed>
  <fix>3d</fix>
</trkpt>
<trkpt lat="40.0728426" lon="-105.2305756">
  <ele>1594.27</ele>
  <time>2026-08-27T18:27:35Z</time>
  <course>22.95</course>
  <speed>0.01</speed>
  <fix>3d</fix>
</trkpt>
<trkpt lat="40.0728424" lon="-105.2305753">
  <ele>1594.17</ele>
  <time>2026-08-27T18:27:35Z</time>
  <course>11.4</course>
  <speed>0.022360679774997897</speed>
  <fix>3d</fix>
</trkpt>
<trkpt lat="40.0728426" lon="-105.2305756">
  <ele>1594.16</ele>
  <time>2026-08-27T18:27:35Z</time>
  <course>37.89</course>
  <speed>0.01</speed>
  <fix>3d</fix>
</trkpt>
<trkpt lat="40.0728424" lon="-105.2305753">
  <ele>1594.07</ele>
  <time>2026-08-27T18:27:35Z</time>
  <course>11.43</course>
  <speed>0.0282842712474619</speed>
  <fix>3d</fix>
</trkpt>
<trkpt lat="40.0728426" lon="-105.2305756">
  <ele>1594.07</ele>
  <time>2026-08-27T18:27:35Z</time>
  <course>64.26</course>
  <speed>0.0</speed>
  <fix>3d</fix>
</trkpt>
<trkpt lat="40.0728424" lon="-105.2305753">
  <ele>1593.97</ele>
  <time>2026-08-27T18:27:35Z</time>
  <course>11.46</course>
  <speed>0.03605551275463989</speed>
  <fix>3d</fix>
</trkpt>
<trkpt lat="40.0728426" lon="-105.2305756">
  <ele>1593.97</ele>
  <time>2026-08-27T18:27:35Z</time>
  <course>99.85</course>
  <speed>0.01</speed>
  <fix>3d</fix>
</trkpt>
<trkpt lat="40.0728424" lon="-105.2305753">
  <ele>1593.87</ele>
  <time>2026-08-27T18:27:35Z</time>
  <course>11.47</course>
  <speed>0.03605551275463989</speed>
  <fix>3d</fix>
</trkpt>
<trkpt lat="40.0728426" lon="-105.2305756">
  <ele>1593.87</ele>
  <time>2026-08-27T18:27:35Z</time>
  <course>123.62</course>
  <speed>0.01</speed>
  <fix>3d</fix>
</trkpt>
<trkpt lat="40.0728424" lon="-105.2305753">
  <ele>1593.77</ele>
  <time>2026-08-27T18:27:35Z</time>
  <course>11.48</course>
  <speed>0.03605551275463989</speed>
  <fix>3d</fix>
</trkpt>
<trkpt lat="40.0728426" lon="-105.2305756">
  <ele>1593.77</ele>
  <time>2026-08-27T18:27:35Z</time>
  <course>135.24</course>
  <speed>0.01</speed>
  <fix>3d</fix>
</trkpt>
<trkpt lat="40.0728424" lon="-105.2305753">
  <ele>1593.67</ele>
  <time>2026-08-27T18:27:35Z</time>
  <course>11.48</course>
  <speed>0.044721359549995794</speed>
  <fix>3d</fix>
</trkpt>
<trkpt lat="40.0728426" lon="-105.2305756">
  <ele>1593.66</ele>
  <time>2026-08-27T18:27:35Z</time>
  <course>141.5</course>
  <speed>0.02</speed>
  <fix>3d</fix>
</trkpt>
<trkpt lat="40.0728424" lon="-105.2305753">
  <ele>1593.57</ele>
  <time>2026-08-27T18:27:35Z</time>
  <course>11.47</course>
  <speed>0.044721359549995794</speed>
  <fix>3d</fix>
</trkpt>
<trkpt lat="40.0728426" lon="-105.2305755">
  <ele>1593.57</ele>
  <time>2026-08-27T18:27:35Z</time>
  <course>144.9</course>
  <speed>0.02</speed>
  <fix>3d</fix>
</trkpt>
<trkpt lat="40.0728424" lon="-105.2305753">
  <ele>1593.47</ele>
  <time>2026-08-27T18:27:35Z</time>
  <course>11.45</course>
  <speed>0.044721359549995794</speed>
  <fix>3d</fix>
</trkpt>
<trkpt lat="40.0728426" lon="-105.2305755">
  <ele>1593.47</ele>
  <time>2026-08-27T18:27:35Z</time>
  <course>147.02</course>
  <speed>0.02</speed>
  <fix>3d</fix>
</trkpt>
<trkpt lat="40.0728423" lon="-105.2305753">
  <ele>1593.37</ele>
  <time>2026-08-27T18:27:35Z</time>
  <course>11.44</course>
  <speed>0.044721359549995794</speed>
  <fix>3d</fix>
</trkpt>
<trkpt lat="40.0728425" lon="-105.2305755">
  <ele>1593.37</ele>
  <time>2026-08-27T18:27:35Z</time>
  <course>148.93</course>
  <speed>0.02</speed>
  <fix>3d</fix>
</trkpt>
<trkpt lat="40.0728423" lon="-105.2305753">
  <ele>1593.27</ele>
  <time>2026-08-27T18:27:35Z</time>
  <course>11.42</course>
  <speed>0.044721359549995794</speed>
  <fix>3d</fix>
</trkpt>
<trkpt lat="40.0728425" lon="-105.2305754">
  <ele>1593.28</ele>
  <time>2026-08-27T18:27:35Z</time>
  <course>151.51</course>
  <speed>0.02</speed>
  <fix>3d</fix>
</trkpt>
<trkpt lat="40.0728423" lon="-105.2305753">
  <ele>1593.17</ele>
  <time>2026-08-27T18:27:35Z</time>
  <course>11.41</course>
  <speed>0.044721359549995794</speed>
  <fix>3d</fix>
</trkpt>
<trkpt lat="40.0728425" lon="-105.2305753">
  <ele>1593.17</ele>
  <time>2026-08-27T18:27:35Z</time>
  <course>154.16</course>
  <speed>0.02</speed>
  <fix>3d</fix>
</trkpt>
<trkpt lat="40.0728423" lon="-105.2305752">
  <ele>1593.07</ele>
  <time>2026-08-27T18:27:35Z</time>
  <course>11.4</course>
  <speed>0.044721359549995794</speed>
  <fix>3d</fix>
</trkpt>
<trkpt lat="40.0728424" lon="-105.2305753">
  <ele>1593.08</ele>
  <time>2026-08-27T18:27:35Z</time>
  <course>156.07</course>
  <speed>0.02</speed>
  <fix>3d</fix>
</trkpt>
<trkpt lat="40.0728422" lon="-105.2305752">
  <ele>1592.97</ele>
  <time>2026-08-27T18:27:35Z</time>
  <course>11.4</course>
  <speed>0.03605551275463989</speed>
  <fix>3d</fix>
</trkpt>
<trkpt lat="40.0728424" lon="-105.2305753">
  <ele>1592.98</ele>
  <time>2026-08-27T18:27:35Z</time>
  <course>157.81</course>
  <speed>0.02</speed>
  <fix>3d</fix>
</trkpt>
<trkpt lat="40.0728422" lon="-105.2305752">
  <ele>1592.88</ele>
  <time>2026-08-27T18:27:35Z</time>
  <course>11.4</course>
  <speed>0.03605551275463989</speed>
  <fix>3d</fix>
</trkpt>
<trkpt lat="40.0728424" lon="-105.2305753">
  <ele>1592.88</ele>
  <time>2026-08-27T18:27:35Z</time>
  <course>160.27</course>
  <speed>0.02</speed>
  <fix>3d</fix>
</trkpt>
<trkpt lat="40.0728422" lon="-105.2305752">
  <ele>1592.78</ele>
  <time>2026-08-27T18:27:35Z</time>
  <course>11.41</course>
  <speed>0.0316227766016838</speed>
  <fix>3d</fix>
</trkpt>
<trkpt lat="40.0728423" lon="-105.2305753">
  <ele>1592.78</ele>
  <time>2026-08-27T18:27:35Z</time>
  <course>163.75</course>
  <speed>0.01</speed>
  <fix>3d</fix>
</trkpt>
<trkpt lat="40.0728422" lon="-105.2305752">
  <ele>1592.68</ele>
  <time>2026-08-27T18:27:35Z</time>
  <course>11.41</course>
  <speed>0.0316227766016838</speed>
  <fix>3d</fix>
</trkpt>
<trkpt lat="40.0728423" lon="-105.2305753">
  <ele>1592.67</ele>
  <time>2026-08-27T18:27:35Z</time>
  <course>167.98</course>
  <speed>0.01</speed>
  <fix>3d</fix>
</trkpt>
<trkpt lat="40.0728421" lon="-105.2305752">
  <ele>1592.57</ele>
  <time>2026-08-27T18:27:35Z</time>
  <course>11.42</course>
  <speed>0.0316227766016838</speed>
  <fix>3d</fix>
</trkpt>
<trkpt lat="40.0728423" lon="-105.2305753">
  <ele>1592.58</ele>
  <time>2026-08-27T18:27:35Z</time>
  <course>172.71</course>
  <speed>0.01</speed>
  <fix>3d</fix>
</trkpt>
<trkpt lat="40.0728421" lon="-105.2305752">
  <ele>1592.47</ele>
  <time>2026-08-27T18:27:35Z</time>
  <course>11.43</course>
  <speed>0.022360679774997897</speed>
  <fix>3d</fix>
</trkpt>
<trkpt lat="40.0728422" lon="-105.2305753">
  <ele>1592.48</ele>
  <time>2026-08-27T18:27:35Z</time>
  <course>177.59</course>
  <speed>0.01</speed>
  <fix>3d</fix>
</trkpt>
<trkpt lat="40.0728421" lon="-105.2305752">
  <ele>1592.37</ele>
  <time>2026-08-27T18:27:35Z</time>
  <course>11.43</course>
  <speed>0.022360679774997897</speed>
  <fix>3d</fix>
</trkpt>
<trkpt lat="40.0728421" lon="-105.2305753">
  <ele>1592.38</ele>
  <time>2026-08-27T18:27:35Z</time>
  <course>182.94</course>
  <speed>0.01</speed>
  <fix>3d</fix>
</trkpt>
<trkpt lat="40.0728421" lon="-105.2305752">
  <ele>1592.27</ele>
  <time>2026-08-27T18:27:35Z</time>
  <course>11.43</course>
  <speed>0.022360679774997897</speed>
  <fix>3d</fix>
</trkpt>
<trkpt lat="40.0728421" lon="-105.2305753">
  <ele>1592.28</ele>
  <time>2026-08-27T18:27:35Z</time>
  <course>190.65</course>
  <speed>0.0</speed>
  <fix>3d</fix>
</trkpt>
<trkpt lat="40.0728421" lon="-105.2305752">
  <ele>1592.17</ele>
  <time>2026-08-27T18:27:35Z</time>
  <course>11.43</course>
  <speed>0.01414213562373095</speed>
  <fix>3d</fix>
</trkpt>
<trkpt lat="40.0728421" lon="-105.2305753">
  <ele>1592.17</ele>
  <time>2026-08-27T18:27:35Z</time>
  <course>206.22</course>
  <speed>0.0</speed>
  <fix>3d</fix>
</trkpt>
<trkpt lat="40.0728421" lon="-105.2305752">
  <ele>1592.07</ele>
  <time>2026-08-27T18:27:35Z</time>
  <course>11.42</course>
  <speed>0.01414213562373095</speed>
  <fix>3d</fix>
</trkpt>
<trkpt lat="40.0728421" lon="-105.2305753">
  <ele>1592.08</ele>
  <time>2026-08-27T18:27:35Z</time>
  <course>244.48</course>
  <speed>0.0</speed>
  <fix>3d</fix>
</trkpt>
<trkpt lat="40.0728421" lon="-105.2305752">
  <ele>1591.96</ele>
  <time>2026-08-27T18:27:35Z</time>
  <course>11.41</course>
  <speed>0.01414213562373095</speed>
  <fix>3d</fix>
</trkpt>
<trkpt lat="40.0728421" lon="-105.2305753">
  <ele>1591.98</ele>
  <time>2026-08-27T18:27:35Z</time>
  <course>294.32</course>
  <speed>0.0</speed>
  <fix>3d</fix>
</trkpt>
<trkpt lat="40.0728421" lon="-105.2305752">
  <ele>1591.86</ele>
  <time>2026-08-27T18:27:35Z</time>
  <course>11.4</course>
  <speed>0.01414213562373095</speed>
  <fix>3d</fix>
</trkpt>
<trkpt lat="40.0728421" lon="-105.2305753">
  <ele>1591.88</ele>
  <time>2026-08-27T18:27:35Z</time>
  <course>318.94</course>
  <speed>0.0</speed>
  <fix>3d</fix>
</trkpt>
<trkpt lat="40.0728421" lon="-105.2305752">
  <ele>1591.76</ele>
  <time>2026-08-27T18:27:35Z</time>
  <course>11.4</course>
  <speed>0.01</speed>
  <fix>3d</fix>
</trkpt>
<trkpt lat="40.0728421" lon="-105.2305753">
  <ele>1591.78</ele>
  <time>2026-08-27T18:27:35Z</time>
  <course>329.84</course>
  <speed>0.0</speed>
  <fix>3d</fix>
</trkpt>
<trkpt lat="40.0728421" lon="-105.2305752">
  <ele>1591.67</ele>
  <time>2026-08-27T18:27:35Z</time>
  <course>11.39</course>
  <speed>0.01</speed>
  <fix>3d</fix>
</trkpt>
<trkpt lat="40.0728421" lon="-105.2305753">
  <ele>1591.69</ele>
  <time>2026-08-27T18:27:35Z</time>
  <course>335.59</course>
  <speed>0.01</speed>
  <fix>3d</fix>
</trkpt>
<trkpt lat="40.0728421" lon="-105.2305752">
  <ele>1591.57</ele>
  <time>2026-08-27T18:27:35Z</time>
  <course>11.39</course>
  <speed>0.01</speed>
  <fix>3d</fix>
</trkpt>
<trkpt lat="40.0728421" lon="-105.2305753">
  <ele>1591.59</ele>
  <time>2026-08-27T18:27:35Z</time>
  <course>339.2</course>
  <speed>0.01</speed>
  <fix>3d</fix>
</trkpt>
<trkpt lat="40.0728421" lon="-105.2305752">
  <ele>1591.47</ele>
  <time>2026-08-27T18:27:35Z</time>
  <course>11.39</course>
  <speed>0.01</speed>
  <fix>3d</fix>
</trkpt>
<trkpt lat="40.0728421" lon="-105.2305753">
  <ele>1591.49</ele>
  <time>2026-08-27T18:27:35Z</time>
  <course>341.31</course>
  <speed>0.01</speed>
  <fix>3d</fix>
</trkpt>
<trkpt lat="40.0728421" lon="-105.2305752">
  <ele>1591.37</ele>
  <time>2026-08-27T18:27:35Z</time>
  <course>11.4</course>
  <speed>0.01</speed>
  <fix>3d</fix>
</trkpt>
<trkpt lat="40.0728421" lon="-105.2305753">
  <ele>1591.38</ele>
  <time>2026-08-27T18:27:35Z</time>
  <course>342.19</course>
  <speed>0.01</speed>
  <fix>3d</fix>
</trkpt>
<trkpt lat="40.0728421" lon="-105.2305752">
  <ele>1591.28</ele>
  <time>2026-08-27T18:27:35Z</time>
  <course>11.4</course>
  <speed>0.01</speed>
  <fix>3d</fix>
</trkpt>
<trkpt lat="40.0728421" lon="-105.2305753">
  <ele>1591.29</ele>
  <time>2026-08-27T18:27:35Z</time>
  <course>342.44</course>
  <speed>0.01</speed>
  <fix>3d</fix>
</trkpt>
<trkpt lat="40.0728421" lon="-105.2305752">
  <ele>1591.18</ele>
  <time>2026-08-27T18:27:35Z</time>
  <course>11.41</course>
  <speed>0.01</speed>
  <fix>3d</fix>
</trkpt>
<trkpt lat="40.0728422" lon="-105.2305753">
  <ele>1591.19</ele>
  <time>2026-08-27T18:27:35Z</time>
  <course>342.48</course>
  <speed>0.01</speed>
  <fix>3d</fix>
</trkpt>
<trkpt lat="40.0728421" lon="-105.2305752">
  <ele>1591.08</ele>
  <time>2026-08-27T18:27:35Z</time>
  <course>11.41</course>
  <speed>0.01</speed>
  <fix>3d</fix>
</trkpt>
<trkpt lat="40.0728423" lon="-105.2305753">
  <ele>1591.09</ele>
  <time>2026-08-27T18:27:35Z</time>
  <course>342.24</course>
  <speed>0.01</speed>
  <fix>3d</fix>
</trkpt>
<trkpt lat="40.0728421" lon="-105.2305752">
  <ele>1590.98</ele>
  <time>2026-08-27T18:27:35Z</time>
  <course>11.42</course>
  <speed>0.01</speed>
  <fix>3d</fix>
</trkpt>
<trkpt lat="40.0728423" lon="-105.2305753">
  <ele>1590.99</ele>
  <time>2026-08-27T18:27:35Z</time>
  <course>341.61</course>
  <speed>0.01</speed>
  <fix>3d</fix>
</trkpt>
<trkpt lat="40.0728421" lon="-105.2305752">
  <ele>1590.88</ele>
  <time>2026-08-27T18:27:35Z</time>
  <course>11.42</course>
  <speed>0.01414213562373095</speed>
  <fix>3d</fix>
</trkpt>
<trkpt lat="40.0728423" lon="-105.2305753">
  <ele>1590.88</ele>
  <time>2026-08-27T18:27:35Z</time>
  <course>340.49</course>
  <speed>0.01</speed>
  <fix>3d</fix>
</trkpt>
<trkpt lat="40.0728421" lon="-105.2305752">
  <ele>1590.78</ele>
  <time>2026-08-27T18:27:35Z</time>
  <course>11.42</course>
  <speed>0.01414213562373095</speed>
  <fix>3d</fix>
</trkpt>
<trkpt lat="40.0728423" lon="-105.2305753">
  <ele>1590.79</ele>
  <time>2026-08-27T18:27:35Z</time>
  <course>338.87</course>
  <speed>0.01</speed>
  <fix>3d</fix>
</trkpt>
<trkpt lat="40.0728422" lon="-105.2305752">
  <ele>1590.67</ele>
  <time>2026-08-27T18:27:35Z</time>
  <course>11.42</course>
  <speed>0.01414213562373095</speed>
  <fix>3d</fix>
</trkpt>
<trkpt lat="40.0728424" lon="-105.2305753">
  <ele>1590.68</ele>
  <time>2026-08-27T18:27:35Z</time>
  <course>336.87</course>
  <speed>0.01</speed>
  <fix>3d</fix>
</trkpt>
<trkpt lat="40.0728422" lon="-105.2305752">
  <ele>1590.57</ele>
  <time>2026-08-27T18:27:35Z</time>
  <course>11.41</course>
  <speed>0.01414213562373095</speed>
  <fix>3d</fix>
</trkpt>
<trkpt lat="40.0728424" lon="-105.2305753">
  <ele>1590.58</ele>
  <time>2026-08-27T18:27:35Z</time>
  <course>334.68</course>
  <speed>0.0</speed>
  <fix>3d</fix>
</trkpt>
<trkpt lat="40.0728422" lon="-105.2305752">
  <ele>1590.47</ele>
  <time>2026-08-27T18:27:35Z</time>
  <course>11.41</course>
  <speed>0.01414213562373095</speed>
  <fix>3d</fix>
</trkpt>
<trkpt lat="40.0728424" lon="-105.2305753">
  <ele>1590.48</ele>
  <time>2026-08-27T18:27:35Z</time>
  <course>331.88</course>
  <speed>0.0</speed>
  <fix>3d</fix>
</trkpt>
<trkpt lat="40.0728422" lon="-105.2305752">
  <ele>1590.37</ele>
  <time>2026-08-27T18:27:35Z</time>
  <course>11.41</course>
  <speed>0.01414213562373095</speed>
  <fix>3d</fix>
</trkpt>
<trkpt lat="40.0728424" lon="-105.2305753">
  <ele>1590.38</ele>
  <time>2026-08-27T18:27:35Z</time>
  <course>326.29</course>
  <speed>0.0</speed>
  <fix>3d</fix>
</trkpt>
<trkpt lat="40.0728422" lon="-105.2305752">
  <ele>1590.27</ele>
  <time>2026-08-27T18:27:35Z</time>
  <course>11.4</course>
  <speed>0.01414213562373095</speed>
  <fix>3d</fix>
</trkpt>
<trkpt lat="40.0728424" lon="-105.2305753">
  <ele>1590.28</ele>
  <time>2026-08-27T18:27:35Z</time>
  <course>314.02</course>
  <speed>0.0</speed>
  <fix>3d</fix>
</trkpt>
<trkpt lat="40.0728422" lon="-105.2305752">
  <ele>1590.17</ele>
  <time>2026-08-27T18:27:35Z</time>
  <course>11.4</course>
  <speed>0.022360679774997897</speed>
  <fix>3d</fix>
</trkpt>
<trkpt lat="40.0728424" lon="-105.2305753">
  <ele>1590.18</ele>
  <time>2026-08-27T18:27:35Z</time>
  <course>292.97</course>
  <speed>0.0</speed>
  <fix>3d</fix>
</trkpt>
<trkpt lat="40.0728422" lon="-105.2305752">
  <ele>1590.07</ele>
  <time>2026-08-27T18:27:35Z</time>
  <course>11.4</course>
  <speed>0.022360679774997897</speed>
  <fix>3d</fix>
</trkpt>
<trkpt lat="40.0728424" lon="-105.2305753">
  <ele>1590.09</ele>
  <time>2026-08-27T18:27:35Z</time>
  <course>271.27</course>
  <speed>0.0</speed>
  <fix>3d</fix>
</trkpt>
<trkpt lat="40.0728422" lon="-105.2305752">
  <ele>1589.97</ele>
  <time>2026-08-27T18:27:35Z</time>
  <course>11.4</course>
  <speed>0.022360679774997897</speed>
  <fix>3d</fix>
</trkpt>
<trkpt lat="40.0728424" lon="-105.2305753">
  <ele>1589.99</ele>
  <time>2026-08-27T18:27:35Z</time>
  <course>255.99</course>
  <speed>0.0</speed>
  <fix>3d</fix>
</trkpt>
<trkpt lat="40.0728422" lon="-105.2305752">
  <ele>1589.87</ele>
  <time>2026-08-27T18:27:35Z</time>
  <course>11.4</course>
  <speed>0.022360679774997897</speed>
  <fix>3d</fix>
</trkpt>
<trkpt lat="40.0728424" lon="-105.2305754">
  <ele>1589.88</ele>
  <time>2026-08-27T18:27:35Z</time>
  <course>244.44</course>
  <speed>0.0</speed>
  <fix>3d</fix>
</trkpt>
<trkpt lat="40.0728422" lon="-105.2305752">
  <ele>1589.77</ele>
  <time>2026-08-27T18:27:35Z</time>
  <course>11.4</course>
  <speed>0.022360679774997897</speed>
  <fix>3d</fix>
</trkpt>
<trkpt lat="40.0728424" lon="-105.2305755">
  <ele>1589.79</ele>
  <time>2026-08-27T18:27:35Z</time>
  <course>234.19</course>
  <speed>0.0</speed>
  <fix>3d</fix>
</trkpt>
<trkpt lat="40.0728422" lon="-105.2305752">
  <ele>1589.67</ele>
  <time>2026-08-27T18:27:35Z</time>
  <course>11.4</course>
  <speed>0.022360679774997897</speed>
  <fix>3d</fix>
</trkpt>
<trkpt lat="40.0728424" lon="-105.2305755">
  <ele>1589.69</ele>
  <time>2026-08-27T18:27:35Z</time>
  <course>224.11</course>
  <speed>0.0</speed>
  <fix>3d</fix>
</trkpt>
<trkpt lat="40.0728422" lon="-105.2305752">
  <ele>1589.57</ele>
  <time>2026-08-27T18:27:35Z</time>
  <course>11.4</course>
  <speed>0.022360679774997897</speed>
  <fix>3d</fix>
</trkpt>
<trkpt lat="40.0728424" lon="-105.2305755">
  <ele>1589.59</ele>
  <time>2026-08-27T18:27:35Z</time>
  <course>215.04</course>
  <speed>0.0</speed>
  <fix>3d</fix>
</trkpt>
<trkpt lat="40.0728422" lon="-105.2305752">
  <ele>1589.47</ele>
  <time>2026-08-27T18:27:35Z</time>
  <course>11.4</course>
  <speed>0.022360679774997897</speed>
  <fix>3d</fix>
</trkpt>
<trkpt lat="40.0728424" lon="-105.2305755">
  <ele>1589.49</ele>
  <time>2026-08-27T18:27:35Z</time>
  <course>207.1</course>
  <speed>0.0</speed>
  <fix>3d</fix>
</trkpt>
<trkpt lat="40.0728422" lon="-105.2305752">
  <ele>1589.37</ele>
  <time>2026-08-27T18:27:35Z</time>
  <course>11.4</course>
  <speed>0.022360679774997897</speed>
  <fix>3d</fix>
</trkpt>
<trkpt lat="40.0728424" lon="-105.2305755">
  <ele>1589.38</ele>
  <time>2026-08-27T18:27:35Z</time>
  <course>198.37</course>
  <speed>0.0</speed>
  <fix>3d</fix>
</trkpt>
<trkpt lat="40.0728422" lon="-105.2305753">
  <ele>1589.27</ele>
  <time>2026-08-27T18:27:35Z</time>
  <course>11.4</course>
  <speed>0.022360679774997897</speed>
  <fix>3d</fix>
</trkpt>
<trkpt lat="40.0728424" lon="-105.2305755">
  <ele>1589.29</ele>
  <time>2026-08-27T18:27:35Z</time>
  <course>188.24</course>
  <speed>0.0</speed>
  <fix>3d</fix>
</trkpt>
<trkpt lat="40.0728422" lon="-105.2305753">
  <ele>1589.18</ele>
  <time>2026-08-27T18:27:35Z</time>
  <course>11.4</course>
  <speed>0.022360679774997897</speed>
  <fix>3d</fix>
</trkpt>
<trkpt lat="40.0728424" lon="-105.2305755">
  <ele>1589.19</ele>
  <time>2026-08-27T18:27:35Z</time>
  <course>177.77</course>
  <speed>0.0</speed>
  <fix>3d</fix>
</trkpt>
<trkpt lat="40.0728422" lon="-105.2305753">
  <ele>1589.08</ele>
  <time>2026-08-27T18:27:35Z</time>
  <course>11.4</course>
  <speed>0.022360679774997897</speed>
  <fix>3d</fix>
</trkpt>
<trkpt lat="40.0728424" lon="-105.2305755">
  <ele>1589.09</ele>
  <time>2026-08-27T18:27:35Z</time>
  <course>168.52</course>
  <speed>0.0</speed>
  <fix>3d</fix>
</trkpt>
<trkpt lat="40.0728422" lon="-105.2305753">
  <ele>1588.98</ele>
  <time>2026-08-27T18:27:35Z</time>
  <course>11.4</course>
  <speed>0.022360679774997897</speed>
  <fix>3d</fix>
</trkpt>
<trkpt lat="40.0728424" lon="-105.2305755">
  <ele>1588.99</ele>
  <time>2026-08-27T18:27:35Z</time>
  <course>162.54</course>
  <speed>0.0</speed>
  <fix>3d</fix>
</trkpt>
<trkpt lat="40.0728422" lon="-105.2305753">
  <ele>1588.88</ele>
  <time>2026-08-27T18:27:35Z</time>
  <course>11.4</course>
  <speed>0.0282842712474619</speed>
  <fix>3d</fix>
</trkpt>
<trkpt lat="40.0728424" lon="-105.2305755">
  <ele>1588.88</ele>
  <time>2026-08-27T18:27:35Z</time>
  <course>159.58</course>
  <speed>0.0</speed>
  <fix>3d</fix>
</trkpt>
<trkpt lat="40.0728422" lon="-105.2305753">
  <ele>1588.77</ele>
  <time>2026-08-27T18:27:35Z</time>
  <course>11.39</course>
  <speed>0.0282842712474619</speed>
  <fix>3d</fix>
</trkpt>
<trkpt lat="40.0728424" lon="-105.2305755">
  <ele>1588.79</ele>
  <time>2026-08-27T18:27:35Z</time>
  <course>156.96</course>
  <speed>0.0</speed>
  <fix>3d</fix>
</trkpt>
<trkpt lat="40.0728422" lon="-105.2305753">
  <ele>1588.67</ele>
  <time>2026-08-27T18:27:35Z</time>
  <course>11.39</course>
  <speed>0.0282842712474619</speed>
  <fix>3d</fix>
</trkpt>
<trkpt lat="40.0728424" lon="-105.2305755">
  <ele>1588.68</ele>
  <time>2026-08-27T18:27:35Z</time>
  <course>152.49</course>
  <speed>0.0</speed>
  <fix>3d</fix>
</trkpt>
<trkpt lat="40.0728422" lon="-105.2305753">
  <ele>1588.57</ele>
  <time>2026-08-27T18:27:35Z</time>
  <course>11.39</course>
  <speed>0.0282842712474619</speed>
  <fix>3d</fix>
</trkpt>
<trkpt lat="40.0728424" lon="-105.2305755">
  <ele>1588.58</ele>
  <time>2026-08-27T18:27:35Z</time>
  <course>145.94</course>
  <speed>0.0</speed>
  <fix>3d</fix>
</trkpt>
<trkpt lat="40.0728422" lon="-105.2305753">
  <ele>1588.47</ele>
  <time>2026-08-27T18:27:35Z</time>
  <course>11.39</course>
  <speed>0.0282842712474619</speed>
  <fix>3d</fix>
</trkpt>
<trkpt lat="40.0728424" lon="-105.2305755">
  <ele>1588.48</ele>
  <time>2026-08-27T18:27:35Z</time>
  <course>139.7</course>
  <speed>0.0</speed>
  <fix>3d</fix>
</trkpt>
<trkpt lat="40.0728422" lon="-105.2305753">
  <ele>1588.37</ele>
  <time>2026-08-27T18:27:35Z</time>
  <course>11.39</course>
  <speed>0.0282842712474619</speed>
  <fix>3d</fix>
</trkpt>
<trkpt lat="40.0728424" lon="-105.2305755">
  <ele>1588.38</ele>
  <time>2026-08-27T18:27:35Z</time>
  <course>136.45</course>
  <speed>0.0</speed>
  <fix>3d</fix>
</trkpt>
<trkpt lat="40.0728422" lon="-105.2305753">
  <ele>1588.27</ele>
  <time>2026-08-27T18:27:35Z</time>
  <course>11.4</course>
  <speed>0.0282842712474619</speed>
  <fix>3d</fix>
</trkpt>
<trkpt lat="40.0728423" lon="-105.2305755">
  <ele>1588.29</ele>
  <time>2026-08-27T18:27:35Z</time>
  <course>134.42</course>
  <speed>0.0</speed>
  <fix>3d</fix>
</trkpt>
<trkpt lat="40.0728422" lon="-105.2305753">
  <ele>1588.17</ele>
  <time>2026-08-27T18:27:35Z</time>
  <course>11.4</course>
  <speed>0.0282842712474619</speed>
  <fix>3d</fix>
</trkpt>
<trkpt lat="40.0728423" lon="-105.2305755">
  <ele>1588.19</ele>
  <time>2026-08-27T18:27:35Z</time>
  <course>132.07</course>
  <speed>0.0</speed>
  <fix>3d</fix>
</trkpt>
<trkpt lat="40.0728422" lon="-105.2305753">
  <ele>1588.07</ele>
  <time>2026-08-27T18:27:35Z</time>
  <course>11.4</course>
  <speed>0.0282842712474619</speed>
  <fix>3d</fix>
</trkpt>
<trkpt lat="40.0728423" lon="-105.2305755">
  <ele>1588.09</ele>
  <time>2026-08-27T18:27:35Z</time>
  <course>130.22</course>
  <speed>0.0</speed>
  <fix>3d</fix>
</trkpt>
<trkpt lat="40.0728422" lon="-105.2305753">
  <ele>1587.97</ele>
  <time>2026-08-27T18:27:35Z</time>
  <course>11.4</course>
  <speed>0.0282842712474619</speed>
  <fix>3d</fix>
</trkpt>
<trkpt lat="40.0728423" lon="-105.2305755">
  <ele>1587.99</ele>
  <time>2026-08-27T18:27:35Z</time>
  <course>129.02</course>
  <speed>0.0</speed>
  <fix>3d</fix>
</trkpt>
<trkpt lat="40.0728422" lon="-105.2305753">
  <ele>1587.87</ele>
  <time>2026-08-27T18:27:35Z</time>
  <course>11.4</course>
  <speed>0.0282842712474619</speed>
  <fix>3d</fix>
</trkpt>
<trkpt lat="40.0728423" lon="-105.2305755">
  <ele>1587.88</ele>
  <time>2026-08-27T18:27:35Z</time>
  <course>128.01</course>
  <speed>0.0</speed>
  <fix>3d</fix>
</trkpt>
<trkpt lat="40.0728422" lon="-105.2305753">
  <ele>1587.77</ele>
  <time>2026-08-27T18:27:35Z</time>
  <course>11.4</course>
  <speed>0.0282842712474619</speed>
  <fix>3d</fix>
</trkpt>
<trkpt lat="40.0728423" lon="-105.2305755">
  <ele>1587.79</ele>
  <time>2026-08-27T18:27:35Z</time>
  <course>126.34</course>
  <speed>0.0</speed>
  <fix>3d</fix>
</trkpt>
<trkpt lat="40.0728422" lon="-105.2305753">
  <ele>1587.67</ele>
  <time>2026-08-27T18:27:35Z</time>
  <course>11.39</course>
  <speed>0.0282842712474619</speed>
  <fix>3d</fix>
</trkpt>
<trkpt lat="40.0728423" lon="-105.2305754">
  <ele>1587.69</ele>
  <time>2026-08-27T18:27:35Z</time>
  <course>123.49</course>
  <speed>0.0</speed>
  <fix>3d</fix>
</trkpt>
<trkpt lat="40.0728422" lon="-105.2305753">
  <ele>1587.57</ele>
  <time>2026-08-27T18:27:35Z</time>
  <course>11.39</course>
  <speed>0.022360679774997897</speed>
  <fix>3d</fix>
</trkpt>
<trkpt lat="40.0728423" lon="-105.2305753">
  <ele>1587.59</ele>
  <time>2026-08-27T18:27:35Z</time>
  <course>118.66</course>
  <speed>0.0</speed>
  <fix>3d</fix>
</trkpt>
<trkpt lat="40.0728422" lon="-105.2305753">
  <ele>1587.47</ele>
  <time>2026-08-27T18:27:35Z</time>
  <course>11.39</course>
  <speed>0.022360679774997897</speed>
  <fix>3d</fix>
</trkpt>
<trkpt lat="40.0728423" lon="-105.2305753">
  <ele>1587.49</ele>
  <time>2026-08-27T18:27:35Z</time>
  <course>112.26</course>
  <speed>0.0</speed>
  <fix>3d</fix>
</trkpt>
<trkpt lat="40.0728422" lon="-105.2305752">
  <ele>1587.37</ele>
  <time>2026-08-27T18:27:35Z</time>
  <course>11.39</course>
  <speed>0.022360679774997897</speed>
  <fix>3d</fix>
</trkpt>
<trkpt lat="40.0728423" lon="-105.2305753">
  <ele>1587.38</ele>
  <time>2026-08-27T18:27:35Z</time>
  <course>105.83</course>
  <speed>0.0</speed>
  <fix>3d</fix>
</trkpt>
<trkpt lat="40.0728422" lon="-105.2305752">
  <ele>1587.27</ele>
  <time>2026-08-27T18:27:35Z</time>
  <course>11.39</course>
  <speed>0.022360679774997897</speed>
  <fix>3d</fix>
</trkpt>
<trkpt lat="40.0728423" lon="-105.2305753">
  <ele>1587.29</ele>
  <time>2026-08-27T18:27:35Z</time>
  <course>100.34</course>
  <speed>0.0</speed>
  <fix>3d</fix>
</trkpt>
<trkpt lat="40.0728422" lon="-105.2305752">
  <ele>1587.17</ele>
  <time>2026-08-27T18:27:35Z</time>
  <course>11.39</course>
  <speed>0.01414213562373095</speed>
  <fix>3d</fix>
</trkpt>
<trkpt lat="40.0728423" lon="-105.2305753">
  <ele>1587.19</ele>
  <time>2026-08-27T18:27:35Z</time>
  <course>95.97</course>
  <speed>0.0</speed>
  <fix>3d</fix>
</trkpt>
<trkpt lat="40.0728422" lon="-105.2305752">
  <ele>1587.08</ele>
  <time>2026-08-27T18:27:35Z</time>
  <course>11.39</course>
  <speed>0.01414213562373095</speed>
  <fix>3d</fix>
</trkpt>
<trkpt lat="40.0728423" lon="-105.2305753">
  <ele>1587.09</ele>
  <time>2026-08-27T18:27:35Z</time>
  <course>92.75</course>
  <speed>0.0</speed>
  <fix>3d</fix>
</trkpt>
<trkpt lat="40.0728422" lon="-105.2305752">
  <ele>1586.97</ele>
  <time>2026-08-27T18:27:35Z</time>
  <course>11.39</course>
  <speed>0.01414213562373095</speed>
  <fix>3d</fix>
</trkpt>
<trkpt lat="40.0728423" lon="-105.2305753">
  <ele>1586.99</ele>
  <time>2026-08-27T18:27:35Z</time>
  <course>93.72</course>
  <speed>0.0</speed>
  <fix>3d</fix>
</trkpt>
<trkpt lat="40.0728422" lon="-105.2305752">
  <ele>1586.87</ele>
  <time>2026-08-27T18:27:35Z</time>
  <course>11.39</course>
  <speed>0.01414213562373095</speed>
  <fix>3d</fix>
</trkpt>
<trkpt lat="40.0728423" lon="-105.2305753">
  <ele>1586.88</ele>
  <time>2026-08-27T18:27:35Z</time>
  <course>123.94</course>
  <speed>0.0</speed>
  <fix>3d</fix>
</trkpt>
<trkpt lat="40.0728422" lon="-105.2305752">
  <ele>1586.77</ele>
  <time>2026-08-27T18:27:35Z</time>
  <course>11.39</course>
  <speed>0.01414213562373095</speed>
  <fix>3d</fix>
</trkpt>
<trkpt lat="40.0728423" lon="-105.2305753">
  <ele>1586.79</ele>
  <time>2026-08-27T18:27:35Z</time>
  <course>240.11</course>
  <speed>0.0</speed>
  <fix>3d</fix>
</trkpt>
<trkpt lat="40.0728422" lon="-105.2305752">
  <ele>1586.67</ele>
  <time>2026-08-27T18:27:35Z</time>
  <course>11.39</course>
  <speed>0.01414213562373095</speed>
  <fix>3d</fix>
</trkpt>
<trkpt lat="40.0728423" lon="-105.2305753">
  <ele>1586.69</ele>
  <time>2026-08-27T18:27:35Z</time>
  <course>270.64</course>
  <speed>0.0</speed>
  <fix>3d</fix>
</trkpt>
<trkpt lat="40.0728422" lon="-105.2305752">
  <ele>1586.57</ele>
  <time>2026-08-27T18:27:35Z</time>
  <course>11.39</course>
  <speed>0.01414213562373095</speed>
  <fix>3d</fix>
</trkpt>
<trkpt lat="40.0728423" lon="-105.2305753">
  <ele>1586.59</ele>
  <time>2026-08-27T18:27:35Z</time>
  <course>284.55</course>
  <speed>0.0</speed>
  <fix>3d</fix>
</trkpt>
<trkpt lat="40.0728422" lon="-105.2305752">
  <ele>1586.48</ele>
  <time>2026-08-27T18:27:35Z</time>
  <course>11.39</course>
  <speed>0.01414213562373095</speed>
  <fix>3d</fix>
</trkpt>
<trkpt lat="40.0728423" lon="-105.2305753">
  <ele>1586.49</ele>
  <time>2026-08-27T18:27:35Z</time>
  <course>287.21</course>
  <speed>0.0</speed>
  <fix>3d</fix>
</trkpt>
<trkpt lat="40.0728422" lon="-105.2305752">
  <ele>1586.37</ele>
  <time>2026-08-27T18:27:35Z</time>
  <course>11.39</course>
  <speed>0.01414213562373095</speed>
  <fix>3d</fix>
</trkpt>
<trkpt lat="40.0728423" lon="-105.2305753">
  <ele>1586.38</ele>
  <time>2026-08-27T18:27:35Z</time>
  <course>281.53</course>
  <speed>0.0</speed>
  <fix>3d</fix>
</trkpt>
<trkpt lat="40.0728422" lon="-105.2305752">
  <ele>1586.27</ele>
  <time>2026-08-27T18:27:35Z</time>
  <course>11.39</course>
  <speed>0.01414213562373095</speed>
  <fix>3d</fix>
</trkpt>
<trkpt lat="40.0728423" lon="-105.2305753">
  <ele>1586.28</ele>
  <time>2026-08-27T18:27:35Z</time>
  <course>274.08</course>
  <speed>0.0</speed>
  <fix>3d</fix>
</trkpt>
<trkpt lat="40.0728422" lon="-105.2305752">
  <ele>1586.17</ele>
  <time>2026-08-27T18:27:35Z</time>
  <course>11.39</course>
  <speed>0.01414213562373095</speed>
  <fix>3d</fix>
</trkpt>
<trkpt lat="40.0728423" lon="-105.2305753">
  <ele>1586.17</ele>
  <time>2026-08-27T18:27:35Z</time>
  <course>272.12</course>
  <speed>0.0</speed>
  <fix>3d</fix>
</trkpt>
<trkpt lat="40.0728422" lon="-105.2305752">
  <ele>1586.15</ele>
  <time>2026-08-27T18:27:35Z</time>
  <course>11.39</course>
  <speed>0.0282842712474619</speed>
  <fix>3d</fix>
</trkpt>
<trkpt lat="40.0728423" lon="-105.2305753">
  <ele>1586.1</ele>
  <time>2026-08-27T18:27:35Z</time>
  <course>273.27</course>
  <speed>0.0</speed>
  <fix>3d</fix>
</trkpt>
<trkpt lat="40.0728422" lon="-105.2305752">
  <ele>1586.18</ele>
  <time>2026-08-27T18:27:35Z</time>
  <course>11.39</course>
  <speed>0.01414213562373095</speed>
  <fix>3d</fix>
</trkpt>
<trkpt lat="40.0728423" lon="-105.2305753">
  <ele>1586.08</ele>
  <time>2026-08-27T18:27:35Z</time>
  <course>91.74</course>
  <speed>0.0</speed>
  <fix>3d</fix>
</trkpt>
<trkpt lat="40.0728422" lon="-105.2305752">
  <ele>1586.18</ele>
  <time>2026-08-27T18:27:35Z</time>
  <course>11.38</course>
  <speed>0.01414213562373095</speed>
  <fix>3d</fix>
</trkpt>
<trkpt lat="40.0728423" lon="-105.2305753">
  <ele>1586.09</ele>
  <time>2026-08-27T18:27:35Z</time>
  <course>95.64</course>
  <speed>0.0</speed>
  <fix>3d</fix>
</trkpt>
<trkpt lat="40.0728422" lon="-105.2305752">
  <ele>1586.17</ele>
  <time>2026-08-27T18:27:35Z</time>
  <course>11.38</course>
  <speed>0.01414213562373095</speed>
  <fix>3d</fix>
</trkpt>
<trkpt lat="40.0728423" lon="-105.2305753">
  <ele>1586.09</ele>
  <time>2026-08-27T18:27:35Z</time>
  <course>275.86</course>
  <speed>0.0</speed>
  <fix>3d</fix>
</trkpt>
<trkpt lat="40.0728422" lon="-105.2305752">
  <ele>1586.17</ele>
  <time>2026-08-27T18:27:35Z</time>
  <course>11.38</course>
  <speed>0.01414213562373095</speed>
  <fix>3d</fix>
</trkpt>
<trkpt lat="40.0728423" lon="-105.2305753">
  <ele>1586.09</ele>
  <time>2026-08-27T18:27:35Z</time>
  <course>157.85</course>
  <speed>0.0</speed>
  <fix>3d</fix>
</trkpt>
<trkpt lat="40.0728422" lon="-105.2305752">
  <ele>1586.17</ele>
  <time>2026-08-27T18:27:35Z</time>
  <course>11.38</course>
  <speed>0.01414213562373095</speed>
  <fix>3d</fix>
</trkpt>
<trkpt lat="40.0728423" lon="-105.2305753">
  <ele>1586.09</ele>
  <time>2026-08-27T18:27:35Z</time>
  <course>100.89</course>
  <speed>0.0</speed>
  <fix>3d</fix>
</trkpt>
<trkpt lat="40.0728422" lon="-105.2305752">
  <ele>1586.17</ele>
  <time>2026-08-27T18:27:35Z</time>
  <course>11.37</course>
  <speed>0.01414213562373095</speed>
  <fix>3d</fix>
</trkpt>
<trkpt lat="40.0728423" lon="-105.2305753">
  <ele>1586.09</ele>
  <time>2026-08-27T18:27:35Z</time>
  <course>296.39</course>
  <speed>0.0</speed>
  <fix>3d</fix>
</trkpt>
<trkpt lat="40.0728422" lon="-105.2305752">
  <ele>1586.17</ele>
  <time>2026-08-27T18:27:35Z</time>
  <course>11.37</course>
  <speed>0.01414213562373095</speed>
  <fix>3d</fix>
</trkpt>
<trkpt lat="40.0728423" lon="-105.2305753">
  <ele>1586.09</ele>
  <time>2026-08-27T18:27:35Z</time>
  <course>279.85</course>
  <speed>0.0</speed>
  <fix>3d</fix>
</trkpt>
<trkpt lat="40.0728422" lon="-105.2305752">
  <ele>1586.17</ele>
  <time>2026-08-27T18:27:35Z</time>
  <course>11.37</course>
  <speed>0.01414213562373095</speed>
  <fix>3d</fix>
</trkpt>
<trkpt lat="40.0728423" lon="-105.2305753">
  <ele>1586.09</ele>
  <time>2026-08-27T18:27:35Z</time>
  <course>273.05</course>
  <speed>0.0</speed>
  <fix>3d</fix>
</trkpt>
<trkpt lat="40.0728422" lon="-105.2305752">
  <ele>1586.17</ele>
  <time>2026-08-27T18:27:35Z</time>
  <course>11.36</course>
  <speed>0.01414213562373095</speed>
  <fix>3d</fix>
</trkpt>
<trkpt lat="40.0728423" lon="-105.2305753">
  <ele>1586.09</ele>
  <time>2026-08-27T18:27:35Z</time>
  <course>236.09</course>
  <speed>0.0</speed>
  <fix>3d</fix>
</trkpt>
<trkpt lat="40.0728422" lon="-105.2305752">
  <ele>1586.17</ele>
  <time>2026-08-27T18:27:35Z</time>
  <course>11.36</course>
  <speed>0.01414213562373095</speed>
  <fix>3d</fix>
</trkpt>
<trkpt lat="40.0728423" lon="-105.2305753">
  <ele>1586.09</ele>
  <time>2026-08-27T18:27:35Z</time>
  <course>138.63</course>
  <speed>0.0</speed>
  <fix>3d</fix>
</trkpt>
<trkpt lat="40.0728422" lon="-105.2305752">
  <ele>1586.17</ele>
  <time>2026-08-27T18:27:35Z</time>
  <course>11.36</course>
  <speed>0.01414213562373095</speed>
  <fix>3d</fix>
</trkpt>
<trkpt lat="40.0728423" lon="-105.2305753">
  <ele>1586.09</ele>
  <time>2026-08-27T18:27:35Z</time>
  <course>82.58</course>
  <speed>0.0</speed>
  <fix>3d</fix>
</trkpt>
<trkpt lat="40.0728422" lon="-105.2305752">
  <ele>1586.17</ele>
  <time>2026-08-27T18:27:35Z</time>
  <course>11.35</course>
  <speed>0.01414213562373095</speed>
  <fix>3d</fix>
</trkpt>
<trkpt lat="40.0728423" lon="-105.2305753">
  <ele>1586.09</ele>
  <time>2026-08-27T18:27:35Z</time>
  <course>93.13</course>
  <speed>0.0</speed>
  <fix>3d</fix>
</trkpt>
<trkpt lat="40.0728422" lon="-105.2305752">
  <ele>1586.17</ele>
  <time>2026-08-27T18:27:35Z</time>
  <course>11.35</course>
  <speed>0.01414213562373095</speed>
  <fix>3d</fix>
</trkpt>
<trkpt lat="40.0728423" lon="-105.2305753">
  <ele>1586.09</ele>
  <time>2026-08-27T18:27:35Z</time>
  <course>148.93</course>
  <speed>0.0</speed>
  <fix>3d</fix>
</trkpt>
<trkpt lat="40.0728422" lon="-105.2305752">
  <ele>1586.17</ele>
  <time>2026-08-27T18:27:35Z</time>
  <course>11.35</course>
  <speed>0.01414213562373095</speed>
  <fix>3d</fix>
</trkpt>
<trkpt lat="40.0728423" lon="-105.2305753">
  <ele>1586.09</ele>
  <time>2026-08-27T18:27:35Z</time>
  <course>227.3</course>
  <speed>0.0</speed>
  <fix>3d</fix>
</trkpt>
<trkpt lat="40.0728422" lon="-105.2305752">
  <ele>1586.17</ele>
  <time>2026-08-27T18:27:35Z</time>
  <course>11.34</course>
  <speed>0.01414213562373095</speed>
  <fix>3d</fix>
</trkpt>
<trkpt lat="40.0728423" lon="-105.2305753">
  <ele>1586.09</ele>
  <time>2026-08-27T18:27:35Z</time>
  <course>132.36</course>
  <speed>0.0</speed>
  <fix>3d</fix>
</trkpt>
<trkpt lat="40.0728422" lon="-105.2305752">
  <ele>1586.17</ele>
  <time>2026-08-27T18:27:35Z</time>
  <course>11.34</course>
  <speed>0.01414213562373095</speed>
  <fix>3d</fix>
</trkpt>
<trkpt lat="40.0728423" lon="-105.2305753">
  <ele>1586.09</ele>
  <time>2026-08-27T18:27:35Z</time>
  <course>134.4</course>
  <speed>0.0</speed>
  <fix>3d</fix>
</trkpt>
<trkpt lat="40.0728422" lon="-105.2305752">
  <ele>1586.17</ele>
  <time>2026-08-27T18:27:35Z</time>
  <course>11.34</course>
  <speed>0.01414213562373095</speed>
  <fix>3d</fix>
</trkpt>
<trkpt lat="40.0728423" lon="-105.2305753">
  <ele>1586.09</ele>
  <time>2026-08-27T18:27:35Z</time>
  <course>298.89</course>
  <speed>0.0</speed>
  <fix>3d</fix>
</trkpt>
<trkpt lat="40.0728422" lon="-105.2305752">
  <ele>1586.17</ele>
  <time>2026-08-27T18:27:35Z</time>
  <course>11.33</course>
  <speed>0.01414213562373095</speed>
  <fix>3d</fix>
</trkpt>
<trkpt lat="40.0728423" lon="-105.2305753">
  <ele>1586.09</ele>
  <time>2026-08-27T18:27:35Z</time>
  <course>308.48</course>
  <speed>0.0</speed>
  <fix>3d</fix>
</trkpt>
<trkpt lat="40.0728422" lon="-105.2305752">
  <ele>1586.17</ele>
  <time>2026-08-27T18:27:35Z</time>
  <course>11.33</course>
  <speed>0.01414213562373095</speed>
  <fix>3d</fix>
</trkpt>
<trkpt lat="40.0728423" lon="-105.2305753">
  <ele>1586.09</ele>
  <time>2026-08-27T18:27:35Z</time>
  <course>308.12</course>
  <speed>0.0</speed>
  <fix>3d</fix>
</trkpt>
<trkpt lat="40.0728422" lon="-105.2305752">
  <ele>1586.18</ele>
  <time>2026-08-27T18:27:35Z</time>
  <course>11.32</course>
  <speed>0.01414213562373095</speed>
  <fix>3d</fix>
</trkpt>
<trkpt lat="40.0728423" lon="-105.2305753">
  <ele>1586.09</ele>
  <time>2026-08-27T18:27:35Z</time>
  <course>266.24</course>
  <speed>0.0</speed>
  <fix>3d</fix>
</trkpt>
<trkpt lat="40.0728422" lon="-105.2305752">
  <ele>1586.18</ele>
  <time>2026-08-27T18:27:35Z</time>
  <course>11.32</course>
  <speed>0.01414213562373095</speed>
  <fix>3d</fix>
</trkpt>
<trkpt lat="40.0728423" lon="-105.2305753">
  <ele>1586.09</ele>
  <time>2026-08-27T18:27:35Z</time>
  <course>214.11</course>
  <speed>0.0</speed>
  <fix>3d</fix>
</trkpt>
<trkpt lat="40.0728422" lon="-105.2305752">
  <ele>1586.18</ele>
  <time>2026-08-27T18:27:35Z</time>
  <course>11.32</course>
  <speed>0.01414213562373095</speed>
  <fix>3d</fix>
</trkpt>
<trkpt lat="40.0728423" lon="-105.2305753">
  <ele>1586.09</ele>
  <time>2026-08-27T18:27:35Z</time>
  <course>283.32</course>
  <speed>0.0</speed>
  <fix>3d</fix>
</trkpt>
<trkpt lat="40.0728422" lon="-105.2305752">
  <ele>1586.18</ele>
  <time>2026-08-27T18:27:35Z</time>
  <course>11.31</course>
  <speed>0.01414213562373095</speed>
  <fix>3d</fix>
</trkpt>
<trkpt lat="40.0728423" lon="-105.2305753">
  <ele>1586.09</ele>
  <time>2026-08-27T18:27:35Z</time>
  <course>282.04</course>
  <speed>0.0</speed>
  <fix>3d</fix>
</trkpt>
<trkpt lat="40.0728422" lon="-105.2305752">
  <ele>1586.18</ele>
  <time>2026-08-27T18:27:35Z</time>
  <course>11.31</course>
  <speed>0.01414213562373095</speed>
  <fix>3d</fix>
</trkpt>
<trkpt lat="40.0728423" lon="-105.2305753">
  <ele>1586.09</ele>
  <time>2026-08-27T18:27:35Z</time>
  <course>278.02</course>
  <speed>0.0</speed>
  <fix>3d</fix>
</trkpt>
<trkpt lat="40.0728422" lon="-105.2305752">
  <ele>1586.18</ele>
  <time>2026-08-27T18:27:35Z</time>
  <course>11.3</course>
  <speed>0.01414213562373095</speed>
  <fix>3d</fix>
</trkpt>
<trkpt lat="40.0728423" lon="-105.2305753">
  <ele>1586.09</ele>
  <time>2026-08-27T18:27:35Z</time>
  <course>278.76</course>
  <speed>0.0</speed>
  <fix>3d</fix>
</trkpt>
<trkpt lat="40.0728422" lon="-105.2305752">
  <ele>1586.19</ele>
  <time>2026-08-27T18:27:35Z</time>
  <course>11.3</course>
  <speed>0.01414213562373095</speed>
  <fix>3d</fix>
</trkpt>
<trkpt lat="40.0728423" lon="-105.2305753">
  <ele>1586.09</ele>
  <time>2026-08-27T18:27:35Z</time>
  <course>279.25</course>
  <speed>0.0</speed>
  <fix>3d</fix>
</trkpt>
<trkpt lat="40.0728422" lon="-105.2305752">
  <ele>1586.19</ele>
  <time>2026-08-27T18:27:35Z</time>
  <course>11.3</course>
  <speed>0.01414213562373095</speed>
  <fix>3d</fix>
</trkpt>
<trkpt lat="40.0728423" lon="-105.2305753">
  <ele>1586.09</ele>
  <time>2026-08-27T18:27:35Z</time>
  <course>279.09</course>
  <speed>0.0</speed>
  <fix>3d</fix>
</trkpt>
<trkpt lat="40.0728422" lon="-105.2305752">
  <ele>1586.19</ele>
  <time>2026-08-27T18:27:35Z</time>
  <course>11.29</course>
  <speed>0.01414213562373095</speed>
  <fix>3d</fix>
</trkpt>
<trkpt lat="40.0728423" lon="-105.2305753">
  <ele>1586.09</ele>
  <time>2026-08-27T18:27:35Z</time>
  <course>279.05</course>
  <speed>0.0</speed>
  <fix>3d</fix>
</trkpt>
<trkpt lat="40.0728422" lon="-105.2305752">
  <ele>1586.19</ele>
  <time>2026-08-27T18:27:35Z</time>
  <course>11.29</course>
  <speed>0.01414213562373095</speed>
  <fix>3d</fix>
</trkpt>
<trkpt lat="40.0728423" lon="-105.2305753">
  <ele>1586.09</ele>
  <time>2026-08-27T18:27:35Z</time>
  <course>279.07</course>
  <speed>0.0</speed>
  <fix>3d</fix>
</trkpt>
<trkpt lat="40.0728422" lon="-105.2305752">
  <ele>1586.19</ele>
  <time>2026-08-27T18:27:36Z</time>
  <course>11.28</course>
  <speed>0.01414213562373095</speed>
  <fix>3d</fix>
</trkpt>
<trkpt lat="40.0728423" lon="-105.2305753">
  <ele>1586.09</ele>
  <time>2026-08-27T18:27:36Z</time>
  <course>279.08</course>
  <speed>0.0</speed>
  <fix>3d</fix>
</trkpt>
<trkpt lat="40.0728422" lon="-105.2305752">
  <ele>1586.19</ele>
  <time>2026-08-27T18:27:36Z</time>
  <course>11.28</course>
  <speed>0.01414213562373095</speed>
  <fix>3d</fix>
</trkpt>
<trkpt lat="40.0728423" lon="-105.2305753">
  <ele>1586.09</ele>
  <time>2026-08-27T18:27:36Z</time>
  <course>279.07</course>
  <speed>0.0</speed>
  <fix>3d</fix>
</trkpt>
<trkpt lat="40.0728422" lon="-105.2305752">
  <ele>1586.19</ele>
  <time>2026-08-27T18:27:36Z</time>
  <course>11.27</course>
  <speed>0.01414213562373095</speed>
  <fix>3d</fix>
</trkpt>
<trkpt lat="40.0728423" lon="-105.2305753">
  <ele>1586.09</ele>
  <time>2026-08-27T18:27:36Z</time>
  <course>279.07</course>
  <speed>0.0</speed>
  <fix>3d</fix>
</trkpt>
<trkpt lat="40.0728422" lon="-105.2305752">
  <ele>1586.19</ele>
  <time>2026-08-27T18:27:36Z</time>
  <course>11.27</course>
  <speed>0.01414213562373095</speed>
  <fix>3d</fix>
</trkpt>
<trkpt lat="40.0728423" lon="-105.2305753">
  <ele>1586.09</ele>
  <time>2026-08-27T18:27:36Z</time>
  <course>279.07</course>
  <speed>0.0</speed>
  <fix>3d</fix>
</trkpt>
<trkpt lat="40.0728422" lon="-105.2305752">
  <ele>1586.19</ele>
  <time>2026-08-27T18:27:36Z</time>
  <course>11.27</course>
  <speed>0.01414213562373095</speed>
  <fix>3d</fix>
</trkpt>
<trkpt lat="40.0728423" lon="-105.2305753">
  <ele>1586.09</ele>
  <time>2026-08-27T18:27:36Z</time>
  <course>279.07</course>
  <speed>0.0</speed>
  <fix>3d</fix>
</trkpt>
<trkpt lat="40.0728422" lon="-105.2305752">
  <ele>1586.19</ele>
  <time>2026-08-27T18:27:36Z</time>
  <course>11.26</course>
  <speed>0.01414213562373095</speed>
  <fix>3d</fix>
</trkpt>
<trkpt lat="40.0728423" lon="-105.2305753">
  <ele>1586.09</ele>
  <time>2026-08-27T18:27:36Z</time>
  <course>279.07</course>
  <speed>0.0</speed>
  <fix>3d</fix>
</trkpt>
<trkpt lat="40.0728422" lon="-105.2305752">
  <ele>1586.19</ele>
  <time>2026-08-27T18:27:36Z</time>
  <course>11.26</course>
  <speed>0.01414213562373095</speed>
  <fix>3d</fix>
</trkpt>
<trkpt lat="40.0728423" lon="-105.2305753">
  <ele>1586.09</ele>
  <time>2026-08-27T18:27:36Z</time>
  <course>279.07</course>
  <speed>0.0</speed>
  <fix>3d</fix>
</trkpt>
<trkpt lat="40.0728422" lon="-105.2305752">
  <ele>1586.19</ele>
  <time>2026-08-27T18:27:36Z</time>
  <course>11.25</course>
  <speed>0.01414213562373095</speed>
  <fix>3d</fix>
</trkpt>
<trkpt lat="40.0728423" lon="-105.2305753">
  <ele>1586.09</ele>
  <time>2026-08-27T18:27:36Z</time>
  <course>279.07</course>
  <speed>0.0</speed>
  <fix>3d</fix>
</trkpt>
<trkpt lat="40.0728422" lon="-105.2305752">
  <ele>1586.19</ele>
  <time>2026-08-27T18:27:36Z</time>
  <course>11.25</course>
  <speed>0.01414213562373095</speed>
  <fix>3d</fix>
</trkpt>
<trkpt lat="40.0728423" lon="-105.2305753">
  <ele>1586.09</ele>
  <time>2026-08-27T18:27:36Z</time>
  <course>279.07</course>
  <speed>0.0</speed>
  <fix>3d</fix>
</trkpt>
<trkpt lat="40.0728422" lon="-105.2305752">
  <ele>1586.19</ele>
  <time>2026-08-27T18:27:36Z</time>
  <course>11.24</course>
  <speed>0.01414213562373095</speed>
  <fix>3d</fix>
</trkpt>
<trkpt lat="40.0728423" lon="-105.2305753">
  <ele>1586.09</ele>
  <time>2026-08-27T18:27:36Z</time>
  <course>279.07</course>
  <speed>0.0</speed>
  <fix>3d</fix>
</trkpt>
<trkpt lat="40.0728422" lon="-105.2305752">
  <ele>1586.19</ele>
  <time>2026-08-27T18:27:36Z</time>
  <course>11.24</course>
  <speed>0.01414213562373095</speed>
  <fix>3d</fix>
</trkpt>
<trkpt lat="40.0728423" lon="-105.2305753">
  <ele>1586.09</ele>
  <time>2026-08-27T18:27:36Z</time>
  <course>279.07</course>
  <speed>0.0</speed>
  <fix>3d</fix>
</trkpt>
<trkpt lat="40.0728422" lon="-105.2305752">
  <ele>1586.19</ele>
  <time>2026-08-27T18:27:36Z</time>
  <course>11.23</course>
  <speed>0.01414213562373095</speed>
  <fix>3d</fix>
</trkpt>
<trkpt lat="40.0728423" lon="-105.2305753">
  <ele>1586.09</ele>
  <time>2026-08-27T18:27:36Z</time>
  <course>279.07</course>
  <speed>0.0</speed>
  <fix>3d</fix>
</trkpt>
<trkpt lat="40.0728422" lon="-105.2305752">
  <ele>1586.19</ele>
  <time>2026-08-27T18:27:36Z</time>
  <course>11.23</course>
  <speed>0.01414213562373095</speed>
  <fix>3d</fix>
</trkpt>
<trkpt lat="40.0728423" lon="-105.2305753">
  <ele>1586.09</ele>
  <time>2026-08-27T18:27:36Z</time>
  <course>303.3</course>
  <speed>0.0</speed>
  <fix>3d</fix>
</trkpt>
<trkpt lat="40.0728422" lon="-105.2305752">
  <ele>1586.19</ele>
  <time>2026-08-27T18:27:36Z</time>
  <course>11.22</course>
  <speed>0.01414213562373095</speed>
  <fix>3d</fix>
</trkpt>
<trkpt lat="40.0728423" lon="-105.2305753">
  <ele>1586.09</ele>
  <time>2026-08-27T18:27:36Z</time>
  <course>62.23</course>
  <speed>0.0</speed>
  <fix>3d</fix>
</trkpt>
<trkpt lat="40.0728422" lon="-105.2305752">
  <ele>1586.19</ele>
  <time>2026-08-27T18:27:36Z</time>
  <course>11.22</course>
  <speed>0.01414213562373095</speed>
  <fix>3d</fix>
</trkpt>
<trkpt lat="40.0728423" lon="-105.2305753">
  <ele>1586.09</ele>
  <time>2026-08-27T18:27:36Z</time>
  <course>63.18</course>
  <speed>0.0</speed>
  <fix>3d</fix>
</trkpt>
<trkpt lat="40.0728422" lon="-105.2305752">
  <ele>1586.19</ele>
  <time>2026-08-27T18:27:36Z</time>
  <course>11.21</course>
  <speed>0.01414213562373095</speed>
  <fix>3d</fix>
</trkpt>
<trkpt lat="40.0728423" lon="-105.2305753">
  <ele>1586.09</ele>
  <time>2026-08-27T18:27:36Z</time>
  <course>30.65</course>
  <speed>0.0</speed>
  <fix>3d</fix>
</trkpt>
<trkpt lat="40.0728422" lon="-105.2305752">
  <ele>1586.19</ele>
  <time>2026-08-27T18:27:36Z</time>
  <course>11.21</course>
  <speed>0.01414213562373095</speed>
  <fix>3d</fix>
</trkpt>
<trkpt lat="40.0728423" lon="-105.2305753">
  <ele>1586.09</ele>
  <time>2026-08-27T18:27:36Z</time>
  <course>251.03</course>
  <speed>0.0</speed>
  <fix>3d</fix>
</trkpt>
<trkpt lat="40.0728422" lon="-105.2305752">
  <ele>1586.19</ele>
  <time>2026-08-27T18:27:36Z</time>
  <course>11.2</course>
  <speed>0.01414213562373095</speed>
  <fix>3d</fix>
</trkpt>
<trkpt lat="40.0728423" lon="-105.2305753">
  <ele>1586.09</ele>
  <time>2026-08-27T18:27:36Z</time>
  <course>249.36</course>
  <speed>0.0</speed>
  <fix>3d</fix>
</trkpt>
<trkpt lat="40.0728422" lon="-105.2305752">
  <ele>1586.19</ele>
  <time>2026-08-27T18:27:36Z</time>
  <course>11.2</course>
  <speed>0.01414213562373095</speed>
  <fix>3d</fix>
</trkpt>
<trkpt lat="40.0728423" lon="-105.2305753">
  <ele>1586.09</ele>
  <time>2026-08-27T18:27:36Z</time>
  <course>252.48</course>
  <speed>0.0</speed>
  <fix>3d</fix>
</trkpt>
<trkpt lat="40.0728422" lon="-105.2305752">
  <ele>1586.19</ele>
  <time>2026-08-27T18:27:36Z</time>
  <course>11.19</course>
  <speed>0.01414213562373095</speed>
  <fix>3d</fix>
</trkpt>
<trkpt lat="40.0728423" lon="-105.2305753">
  <ele>1586.09</ele>
  <time>2026-08-27T18:27:36Z</time>
  <course>15.56</course>
  <speed>0.0</speed>
  <fix>3d</fix>
</trkpt>
<trkpt lat="40.0728422" lon="-105.2305752">
  <ele>1586.18</ele>
  <time>2026-08-27T18:27:36Z</time>
  <course>11.19</course>
  <speed>0.01414213562373095</speed>
  <fix>3d</fix>
</trkpt>
<trkpt lat="40.0728423" lon="-105.2305753">
  <ele>1586.09</ele>
  <time>2026-08-27T18:27:36Z</time>
  <course>297.03</course>
  <speed>0.0</speed>
  <fix>3d</fix>
</trkpt>
<trkpt lat="40.0728422" lon="-105.2305752">
  <ele>1586.18</ele>
  <time>2026-08-27T18:27:36Z</time>
  <course>11.18</course>
  <speed>0.01414213562373095</speed>
  <fix>3d</fix>
</trkpt>
<trkpt lat="40.0728423" lon="-105.2305753">
  <ele>1586.09</ele>
  <time>2026-08-27T18:27:36Z</time>
  <course>273.36</course>
  <speed>0.0</speed>
  <fix>3d</fix>
</trkpt>
<trkpt lat="40.0728422" lon="-105.2305752">
  <ele>1586.18</ele>
  <time>2026-08-27T18:27:36Z</time>
  <course>11.18</course>
  <speed>0.01414213562373095</speed>
  <fix>3d</fix>
</trkpt>
<trkpt lat="40.0728423" lon="-105.2305753">
  <ele>1586.09</ele>
  <time>2026-08-27T18:27:36Z</time>
  <course>278.25</course>
  <speed>0.0</speed>
  <fix>3d</fix>
</trkpt>
<trkpt lat="40.0728422" lon="-105.2305752">
  <ele>1586.18</ele>
  <time>2026-08-27T18:27:36Z</time>
  <course>11.17</course>
  <speed>0.01414213562373095</speed>
  <fix>3d</fix>
</trkpt>
<trkpt lat="40.0728423" lon="-105.2305753">
  <ele>1586.09</ele>
  <time>2026-08-27T18:27:36Z</time>
  <course>280.12</course>
  <speed>0.0</speed>
  <fix>3d</fix>
</trkpt>
<trkpt lat="40.0728422" lon="-105.2305752">
  <ele>1586.18</ele>
  <time>2026-08-27T18:27:36Z</time>
  <course>11.17</course>
  <speed>0.01414213562373095</speed>
  <fix>3d</fix>
</trkpt>
<trkpt lat="40.0728423" lon="-105.2305753">
  <ele>1586.09</ele>
  <time>2026-08-27T18:27:36Z</time>
  <course>279.07</course>
  <speed>0.0</speed>
  <fix>3d</fix>
</trkpt>
<trkpt lat="40.0728422" lon="-105.2305752">
  <ele>1586.19</ele>
  <time>2026-08-27T18:27:36Z</time>
  <course>11.16</course>
  <speed>0.01414213562373095</speed>
  <fix>3d</fix>
</trkpt>
<trkpt lat="40.0728423" lon="-105.2305753">
  <ele>1586.09</ele>
  <time>2026-08-27T18:27:36Z</time>
  <course>278.94</course>
  <speed>0.0</speed>
  <fix>3d</fix>
</trkpt>
<trkpt lat="40.0728422" lon="-105.2305752">
  <ele>1586.18</ele>
  <time>2026-08-27T18:27:36Z</time>
  <course>11.16</course>
  <speed>0.01414213562373095</speed>
  <fix>3d</fix>
</trkpt>
<trkpt lat="40.0728423" lon="-105.2305753">
  <ele>1586.09</ele>
  <time>2026-08-27T18:27:36Z</time>
  <course>279.09</course>
  <speed>0.0</speed>
  <fix>3d</fix>
</trkpt>
<trkpt lat="40.0728422" lon="-105.2305752">
  <ele>1586.19</ele>
  <time>2026-08-27T18:27:36Z</time>
  <course>11.15</course>
  <speed>0.01414213562373095</speed>
  <fix>3d</fix>
</trkpt>
<trkpt lat="40.0728423" lon="-105.2305753">
  <ele>1586.09</ele>
  <time>2026-08-27T18:27:36Z</time>
  <course>279.09</course>
  <speed>0.0</speed>
  <fix>3d</fix>
</trkpt>
<trkpt lat="40.0728422" lon="-105.2305752">
  <ele>1586.19</ele>
  <time>2026-08-27T18:27:36Z</time>
  <course>11.15</course>
  <speed>0.01414213562373095</speed>
  <fix>3d</fix>
</trkpt>
<trkpt lat="40.0728423" lon="-105.2305753">
  <ele>1586.09</ele>
  <time>2026-08-27T18:27:36Z</time>
  <course>279.07</course>
  <speed>0.0</speed>
  <fix>3d</fix>
</trkpt>
<trkpt lat="40.0728422" lon="-105.2305752">
  <ele>1586.19</ele>
  <time>2026-08-27T18:27:36Z</time>
  <course>11.21</course>
  <speed>0.01414213562373095</speed>
  <fix>3d</fix>
</trkpt>
<trkpt lat="40.0728423" lon="-105.2305753">
  <ele>1586.09</ele>
  <time>2026-08-27T18:27:36Z</time>
  <course>279.07</course>
  <speed>0.0</speed>
  <fix>3d</fix>
</trkpt>
<trkpt lat="40.0728422" lon="-105.2305752">
  <ele>1586.2</ele>
  <time>2026-08-27T18:27:36Z</time>
  <course>11.58</course>
  <speed>0.01414213562373095</speed>
  <fix>3d</fix>
</trkpt>
<trkpt lat="40.0728423" lon="-105.2305753">
  <ele>1586.09</ele>
  <time>2026-08-27T18:27:36Z</time>
  <course>282.66</course>
  <speed>0.0</speed>
  <fix>3d</fix>
</trkpt>
<trkpt lat="40.0728422" lon="-105.2305752">
  <ele>1586.2</ele>
  <time>2026-08-27T18:27:36Z</time>
  <course>11.99</course>
  <speed>0.01414213562373095</speed>
  <fix>3d</fix>
</trkpt>
<trkpt lat="40.0728423" lon="-105.2305753">
  <ele>1586.09</ele>
  <time>2026-08-27T18:27:36Z</time>
  <course>276.59</course>
  <speed>0.0</speed>
  <fix>3d</fix>
</trkpt>
<trkpt lat="40.0728422" lon="-105.2305752">
  <ele>1586.2</ele>
  <time>2026-08-27T18:27:36Z</time>
  <course>12.34</course>
  <speed>0.01414213562373095</speed>
  <fix>3d</fix>
</trkpt>
<trkpt lat="39.6562421" lon="-104.1365912">
  <ele>1569.6</ele>
  <time>2026-08-27T18:27:36Z</time>
  <course>14.17</course>
  <speed>0.0</speed>
  <fix>3d</fix>
</trkpt>
<trkpt lat="40.072842" lon="-105.230575">
  <ele>1586.09</ele>
  <time>2026-08-27T18:27:36Z</time>
  <course>2.03</course>
  <speed>0.0</speed>
  <fix>3d</fix>
</trkpt>
<trkpt lat="40.072842" lon="-105.230575">
  <ele>1586.09</ele>
  <time>2026-08-27T18:27:36Z</time>
  <course>344.04</course>
  <speed>0.0</speed>
  <fix>3d</fix>
</trkpt>
<trkpt lat="40.072842" lon="-105.230575">
  <ele>1586.09</ele>
  <time>2026-08-27T18:27:36Z</time>
  <course>2.37</course>
  <speed>0.0</speed>
  <fix>3d</fix>
</trkpt>
<trkpt lat="40.072842" lon="-105.230575">
  <ele>1586.09</ele>
  <time>2026-08-27T18:27:36Z</time>
  <course>236.53</course>
  <speed>0.0</speed>
  <fix>3d</fix>
</trkpt>
<trkpt lat="40.072842" lon="-105.230575">
  <ele>1586.09</ele>
  <time>2026-08-27T18:27:36Z</time>
  <course>3.11</course>
  <speed>0.0</speed>
  <fix>3d</fix>
</trkpt>
<trkpt lat="40.072842" lon="-105.230575">
  <ele>1586.09</ele>
  <time>2026-08-27T18:27:36Z</time>
  <course>181.85</course>
  <speed>0.0</speed>
  <fix>3d</fix>
</trkpt>
<trkpt lat="40.072842" lon="-105.230575">
  <ele>1586.09</ele>
  <time>2026-08-27T18:27:36Z</time>
  <course>3.8</course>
  <speed>0.0</speed>
  <fix>3d</fix>
</trkpt>
<trkpt lat="40.072842" lon="-105.230575">
  <ele>1586.09</ele>
  <time>2026-08-27T18:27:36Z</time>
  <course>38.5</course>
  <speed>0.0</speed>
  <fix>3d</fix>
</trkpt>
<trkpt lat="40.072842" lon="-105.230575">
  <ele>1586.09</ele>
  <time>2026-08-27T18:27:36Z</time>
  <course>4.43</course>
  <speed>0.0</speed>
  <fix>3d</fix>
</trkpt>
<trkpt lat="40.072842" lon="-105.230575">
  <ele>1586.09</ele>
  <time>2026-08-27T18:27:36Z</time>
  <course>341.08</course>
  <speed>0.0</speed>
  <fix>3d</fix>
</trkpt>
<trkpt lat="40.072842" lon="-105.230575">
  <ele>1586.09</ele>
  <time>2026-08-27T18:27:36Z</time>
  <course>5.02</course>
  <speed>0.0</speed>
  <fix>3d</fix>
</trkpt>
<trkpt lat="40.072842" lon="-105.230575">
  <ele>1586.09</ele>
  <time>2026-08-27T18:27:36Z</time>
  <course>79.87</course>
  <speed>0.0</speed>
  <fix>3d</fix>
</trkpt>
<trkpt lat="40.072842" lon="-105.230575">
  <ele>1586.09</ele>
  <time>2026-08-27T18:27:36Z</time>
  <course>5.59</course>
  <speed>0.0</speed>
  <fix>3d</fix>
</trkpt>
<trkpt lat="40.072842" lon="-105.230575">
  <ele>1586.09</ele>
  <time>2026-08-27T18:27:36Z</time>
  <course>78.75</course>
  <speed>0.0</speed>
  <fix>3d</fix>
</trkpt>
<trkpt lat="40.072842" lon="-105.230575">
  <ele>1586.09</ele>
  <time>2026-08-27T18:27:36Z</time>
  <course>6.11</course>
  <speed>0.0</speed>
  <fix>3d</fix>
</trkpt>
<trkpt lat="40.072842" lon="-105.230575">
  <ele>1586.09</ele>
  <time>2026-08-27T18:27:36Z</time>
  <course>198.3</course>
  <speed>0.0</speed>
  <fix>3d</fix>
</trkpt>
<trkpt lat="40.072842" lon="-105.230575">
  <ele>1586.09</ele>
  <time>2026-08-27T18:27:36Z</time>
  <course>6.61</course>
  <speed>0.0</speed>
  <fix>3d</fix>
</trkpt>
<trkpt lat="40.072842" lon="-105.230575">
  <ele>1586.09</ele>
  <time>2026-08-27T18:27:36Z</time>
  <course>208.9</course>
  <speed>0.0</speed>
  <fix>3d</fix>
</trkpt>
<trkpt lat="40.072842" lon="-105.230575">
  <ele>1586.09</ele>
  <time>2026-08-27T18:27:36Z</time>
  <course>7.06</course>
  <speed>0.0</speed>
  <fix>3d</fix>
</trkpt>
<trkpt lat="40.072842" lon="-105.230575">
  <ele>1586.09</ele>
  <time>2026-08-27T18:27:36Z</time>
  <course>59.22</course>
  <speed>0.0</speed>
  <fix>3d</fix>
</trkpt>
<trkpt lat="40.072842" lon="-105.230575">
  <ele>1586.09</ele>
  <time>2026-08-27T18:27:36Z</time>
  <course>7.49</course>
  <speed>0.0</speed>
  <fix>3d</fix>
</trkpt>
<trkpt lat="40.072842" lon="-105.230575">
  <ele>1586.09</ele>
  <time>2026-08-27T18:27:36Z</time>
  <course>78.2</course>
  <speed>0.0</speed>
  <fix>3d</fix>
</trkpt>
<trkpt lat="40.072842" lon="-105.230575">
  <ele>1586.09</ele>
  <time>2026-08-27T18:27:36Z</time>
  <course>7.89</course>
  <speed>0.0</speed>
  <fix>3d</fix>
</trkpt>
<trkpt lat="40.072842" lon="-105.230575">
  <ele>1586.09</ele>
  <time>2026-08-27T18:27:36Z</time>
  <course>275.97</course>
  <speed>0.0</speed>
  <fix>3d</fix>
</trkpt>
<trkpt lat="40.072842" lon="-105.230575">
  <ele>1586.09</ele>
  <time>2026-08-27T18:27:36Z</time>
  <course>8.25</course>
  <speed>0.0</speed>
  <fix>3d</fix>
</trkpt>
<trkpt lat="40.072842" lon="-105.230575">
  <ele>1586.09</ele>
  <time>2026-08-27T18:27:36Z</time>
  <course>272.6</course>
  <speed>0.0</speed>
  <fix>3d</fix>
</trkpt>
<trkpt lat="40.072842" lon="-105.230575">
  <ele>1586.09</ele>
  <time>2026-08-27T18:27:36Z</time>
  <course>8.59</course>
  <speed>0.0</speed>
  <fix>3d</fix>
</trkpt>
<trkpt lat="40.072842" lon="-105.230575">
  <ele>1586.09</ele>
  <time>2026-08-27T18:27:36Z</time>
  <course>135.8</course>
  <speed>0.0</speed>
  <fix>3d</fix>
</trkpt>
<trkpt lat="40.072842" lon="-105.230575">
  <ele>1586.09</ele>
  <time>2026-08-27T18:27:36Z</time>
  <course>8.91</course>
  <speed>0.0</speed>
  <fix>3d</fix>
</trkpt>
<trkpt lat="40.072842" lon="-105.230575">
  <ele>1586.09</ele>
  <time>2026-08-27T18:27:36Z</time>
  <course>4.81</course>
  <speed>0.0</speed>
  <fix>3d</fix>
</trkpt>
<trkpt lat="40.072842" lon="-105.230575">
  <ele>1586.09</ele>
  <time>2026-08-27T18:27:36Z</time>
  <course>9.2</course>
  <speed>0.0</speed>
  <fix>3d</fix>
</trkpt>
<trkpt lat="40.072842" lon="-105.230575">
  <ele>1586.09</ele>
  <time>2026-08-27T18:27:36Z</time>
  <course>333.21</course>
  <speed>0.0</speed>
  <fix>3d</fix>
</trkpt>
<trkpt lat="40.072842" lon="-105.230575">
  <ele>1586.09</ele>
  <time>2026-08-27T18:27:36Z</time>
  <course>9.46</course>
  <speed>0.0</speed>
  <fix>3d</fix>
</trkpt>
<trkpt lat="40.072842" lon="-105.230575">
  <ele>1586.09</ele>
  <time>2026-08-27T18:27:36Z</time>
  <course>207.41</course>
  <speed>0.0</speed>
  <fix>3d</fix>
</trkpt>
<trkpt lat="40.072842" lon="-105.230575">
  <ele>1586.09</ele>
  <time>2026-08-27T18:27:36Z</time>
  <course>9.71</course>
  <speed>0.0</speed>
  <fix>3d</fix>
</trkpt>
<trkpt lat="40.072842" lon="-105.230575">
  <ele>1586.09</ele>
  <time>2026-08-27T18:27:36Z</time>
  <course>250.02</course>
  <speed>0.0</speed>
  <fix>3d</fix>
</trkpt>
<trkpt lat="40.072842" lon="-105.230575">
  <ele>1586.09</ele>
  <time>2026-08-27T18:27:36Z</time>
  <course>9.93</course>
  <speed>0.0</speed>
  <fix>3d</fix>
</trkpt>
<trkpt lat="40.072842" lon="-105.230575">
  <ele>1586.09</ele>
  <time>2026-08-27T18:27:36Z</time>
  <course>260.86</course>
  <speed>0.0</speed>
  <fix>3d</fix>
</trkpt>
<trkpt lat="40.072842" lon="-105.230575">
  <ele>1586.09</ele>
  <time>2026-08-27T18:27:36Z</time>
  <course>10.14</course>
  <speed>0.0</speed>
  <fix>3d</fix>
</trkpt>
<trkpt lat="40.072842" lon="-105.230575">
  <ele>1586.09</ele>
  <time>2026-08-27T18:27:36Z</time>
  <course>291.3</course>
  <speed>0.0</speed>
  <fix>3d</fix>
</trkpt>
<trkpt lat="40.072842" lon="-105.230575">
  <ele>1586.09</ele>
  <time>2026-08-27T18:27:36Z</time>
  <course>10.32</course>
  <speed>0.0</speed>
  <fix>3d</fix>
</trkpt>
<trkpt lat="40.072842" lon="-105.230575">
  <ele>1586.09</ele>
  <time>2026-08-27T18:27:36Z</time>
  <course>266.59</course>
  <speed>0.0</speed>
  <fix>3d</fix>
</trkpt>
<trkpt lat="40.072842" lon="-105.230575">
  <ele>1586.09</ele>
  <time>2026-08-27T18:27:36Z</time>
  <course>10.5</course>
  <speed>0.0</speed>
  <fix>3d</fix>
</trkpt>
<trkpt lat="40.072842" lon="-105.230575">
  <ele>1586.09</ele>
  <time>2026-08-27T18:27:36Z</time>
  <course>264.88</course>
  <speed>0.0</speed>
  <fix>3d</fix>
</trkpt>
<trkpt lat="40.072842" lon="-105.230575">
  <ele>1586.09</ele>
  <time>2026-08-27T18:27:36Z</time>
  <course>10.66</course>
  <speed>0.0</speed>
  <fix>3d</fix>
</trkpt>
<trkpt lat="40.072842" lon="-105.230575">
  <ele>1586.09</ele>
  <time>2026-08-27T18:27:36Z</time>
  <course>266.12</course>
  <speed>0.0</speed>
  <fix>3d</fix>
</trkpt>
<trkpt lat="40.072842" lon="-105.230575">
  <ele>1586.09</ele>
  <time>2026-08-27T18:27:36Z</time>
  <course>10.8</course>
  <speed>0.0</speed>
  <fix>3d</fix>
</trkpt>
<trkpt lat="40.072842" lon="-105.230575">
  <ele>1586.09</ele>
  <time>2026-08-27T18:27:36Z</time>
  <course>266.2</course>
  <speed>0.0</speed>
  <fix>3d</fix>
</trkpt>
<trkpt lat="40.072842" lon="-105.230575">
  <ele>1586.09</ele>
  <time>2026-08-27T18:27:36Z</time>
  <course>10.93</course>
  <speed>0.0</speed>
  <fix>3d</fix>
</trkpt>
<trkpt lat="40.072842" lon="-105.230575">
  <ele>1586.09</ele>
  <time>2026-08-27T18:27:36Z</time>
  <course>266.0</course>
  <speed>0.0</speed>
  <fix>3d</fix>
</trkpt>
<trkpt lat="40.072842" lon="-105.230575">
  <ele>1586.09</ele>
  <time>2026-08-27T18:27:36Z</time>
  <course>11.05</course>
  <speed>0.0</speed>
  <fix>3d</fix>
</trkpt>
<trkpt lat="40.072842" lon="-105.230575">
  <ele>1586.09</ele>
  <time>2026-08-27T18:27:36Z</time>
  <course>266.02</course>
  <speed>0.0</speed>
  <fix>3d</fix>
</trkpt>
<trkpt lat="40.072842" lon="-105.230575">
  <ele>1586.09</ele>
  <time>2026-08-27T18:27:36Z</time>
  <course>11.16</course>
  <speed>0.0</speed>
  <fix>3d</fix>
</trkpt>
<trkpt lat="40.072842" lon="-105.230575">
  <ele>1586.09</ele>
  <time>2026-08-27T18:27:36Z</time>
  <course>266.04</course>
  <speed>0.0</speed>
  <fix>3d</fix>
</trkpt>
<trkpt lat="40.072842" lon="-105.230575">
  <ele>1586.09</ele>
  <time>2026-08-27T18:27:36Z</time>
  <course>11.27</course>
  <speed>0.0</speed>
  <fix>3d</fix>
</trkpt>
<trkpt lat="40.072842" lon="-105.230575">
  <ele>1586.09</ele>
  <time>2026-08-27T18:27:36Z</time>
  <course>266.04</course>
  <speed>0.0</speed>
  <fix>3d</fix>
</trkpt>
<trkpt lat="40.072842" lon="-105.230575">
  <ele>1586.09</ele>
  <time>2026-08-27T18:27:36Z</time>
  <course>11.36</course>
  <speed>0.0</speed>
  <fix>3d</fix>
</trkpt>
<trkpt lat="40.072842" lon="-105.230575">
  <ele>1586.09</ele>
  <time>2026-08-27T18:27:36Z</time>
  <course>266.03</course>
  <speed>0.0</speed>
  <fix>3d</fix>
</trkpt>
<trkpt lat="40.072842" lon="-105.230575">
  <ele>1586.09</ele>
  <time>2026-08-27T18:27:37Z</time>
  <course>11.44</course>
  <speed>0.0</speed>
  <fix>3d</fix>
</trkpt>
<trkpt lat="40.072842" lon="-105.230575">
  <ele>1586.09</ele>
  <time>2026-08-27T18:27:37Z</time>
  <course>266.03</course>
  <speed>0.0</speed>
  <fix>3d</fix>
</trkpt>
<trkpt lat="40.072842" lon="-105.230575">
  <ele>1586.09</ele>
  <time>2026-08-27T18:27:37Z</time>
  <course>11.52</course>
  <speed>0.0</speed>
  <fix>3d</fix>
</trkpt>
<trkpt lat="40.072842" lon="-105.230575">
  <ele>1586.09</ele>
  <time>2026-08-27T18:27:37Z</time>
  <course>266.03</course>
  <speed>0.0</speed>
  <fix>3d</fix>
</trkpt>
<trkpt lat="40.072842" lon="-105.230575">
  <ele>1586.09</ele>
  <time>2026-08-27T18:27:37Z</time>
  <course>11.58</course>
  <speed>0.0</speed>
  <fix>3d</fix>
</trkpt>
<trkpt lat="40.072842" lon="-105.230575">
  <ele>1586.09</ele>
  <time>2026-08-27T18:27:37Z</time>
  <course>266.03</course>
  <speed>0.0</speed>
  <fix>3d</fix>
</trkpt>
<trkpt lat="40.072842" lon="-105.230575">
  <ele>1586.09</ele>
  <time>2026-08-27T18:27:37Z</time>
  <course>11.65</course>
  <speed>0.0</speed>
  <fix>3d</fix>
</trkpt>
<trkpt lat="40.072842" lon="-105.230575">
  <ele>1586.09</ele>
  <time>2026-08-27T18:27:37Z</time>
  <course>266.03</course>
  <speed>0.0</speed>
  <fix>3d</fix>
</trkpt>
<trkpt lat="40.072842" lon="-105.230575">
  <ele>1586.09</ele>
  <time>2026-08-27T18:27:37Z</time>
  <course>11.71</course>
  <speed>0.0</speed>
  <fix>3d</fix>
</trkpt>
<trkpt lat="40.072842" lon="-105.230575">
  <ele>1586.09</ele>
  <time>2026-08-27T18:27:37Z</time>
  <course>266.03</course>
  <speed>0.0</speed>
  <fix>3d</fix>
</trkpt>
<trkpt lat="40.072842" lon="-105.230575">
  <ele>1586.09</ele>
  <time>2026-08-27T18:27:37Z</time>
  <course>11.76</course>
  <speed>0.0</speed>
  <fix>3d</fix>
</trkpt>
<trkpt lat="40.072842" lon="-105.230575">
  <ele>1586.09</ele>
  <time>2026-08-27T18:27:37Z</time>
  <course>266.03</course>
  <speed>0.0</speed>
  <fix>3d</fix>
</trkpt>
<trkpt lat="40.072842" lon="-105.230575">
  <ele>1586.09</ele>
  <time>2026-08-27T18:27:37Z</time>
  <course>11.81</course>
  <speed>0.0</speed>
  <fix>3d</fix>
</trkpt>
<trkpt lat="40.072842" lon="-105.230575">
  <ele>1586.09</ele>
  <time>2026-08-27T18:27:37Z</time>
  <course>266.03</course>
  <speed>0.0</speed>
  <fix>3d</fix>
</trkpt>
<trkpt lat="40.072842" lon="-105.230575">
  <ele>1586.09</ele>
  <time>2026-08-27T18:27:37Z</time>
  <course>11.85</course>
  <speed>0.0</speed>
  <fix>3d</fix>
</trkpt>
<trkpt lat="40.072842" lon="-105.230575">
  <ele>1586.09</ele>
  <time>2026-08-27T18:27:37Z</time>
  <course>266.03</course>
  <speed>0.0</speed>
  <fix>3d</fix>
</trkpt>
<trkpt lat="40.072842" lon="-105.230575">
  <ele>1586.09</ele>
  <time>2026-08-27T18:27:37Z</time>
  <course>11.89</course>
  <speed>0.0</speed>
  <fix>3d</fix>
</trkpt>
<trkpt lat="40.072842" lon="-105.230575">
  <ele>1586.09</ele>
  <time>2026-08-27T18:27:37Z</time>
  <course>266.03</course>
  <speed>0.0</speed>
  <fix>3d</fix>
</trkpt>
<trkpt lat="40.072842" lon="-105.230575">
  <ele>1586.09</ele>
  <time>2026-08-27T18:27:37Z</time>
  <course>11.92</course>
  <speed>0.0</speed>
  <fix>3d</fix>
</trkpt>
<trkpt lat="40.072842" lon="-105.230575">
  <ele>1586.09</ele>
  <time>2026-08-27T18:27:37Z</time>
  <course>266.03</course>
  <speed>0.0</speed>
  <fix>3d</fix>
</trkpt>
<trkpt lat="40.072842" lon="-105.230575">
  <ele>1586.09</ele>
  <time>2026-08-27T18:27:37Z</time>
  <course>11.95</course>
  <speed>0.0</speed>
  <fix>3d</fix>
</trkpt>
<trkpt lat="40.072842" lon="-105.230575">
  <ele>1586.09</ele>
  <time>2026-08-27T18:27:37Z</time>
  <course>266.03</course>
  <speed>0.0</speed>
  <fix>3d</fix>
</trkpt>
<trkpt lat="40.072842" lon="-105.230575">
  <ele>1586.09</ele>
  <time>2026-08-27T18:27:37Z</time>
  <course>11.97</course>
  <speed>0.0</speed>
  <fix>3d</fix>
</trkpt>
<trkpt lat="40.072842" lon="-105.230575">
  <ele>1586.09</ele>
  <time>2026-08-27T18:27:37Z</time>
  <course>266.03</course>
  <speed>0.0</speed>
  <fix>3d</fix>
</trkpt>
<trkpt lat="40.072842" lon="-105.230575">
  <ele>1586.09</ele>
  <time>2026-08-27T18:27:37Z</time>
  <course>12.0</course>
  <speed>0.0</speed>
  <fix>3d</fix>
</trkpt>
<trkpt lat="40.072842" lon="-105.230575">
  <ele>1586.09</ele>
  <time>2026-08-27T18:27:37Z</time>
  <course>266.03</course>
  <speed>0.0</speed>
  <fix>3d</fix>
</trkpt>
<trkpt lat="40.072842" lon="-105.230575">
  <ele>1586.09</ele>
  <time>2026-08-27T18:27:37Z</time>
  <course>12.02</course>
  <speed>0.0</speed>
  <fix>3d</fix>
</trkpt>
<trkpt lat="40.072842" lon="-105.230575">
  <ele>1586.09</ele>
  <time>2026-08-27T18:27:37Z</time>
  <course>266.03</course>
  <speed>0.0</speed>
  <fix>3d</fix>
</trkpt>
<trkpt lat="40.072842" lon="-105.230575">
  <ele>1586.09</ele>
  <time>2026-08-27T18:27:37Z</time>
  <course>12.03</course>
  <speed>0.0</speed>
  <fix>3d</fix>
</trkpt>
<trkpt lat="40.072842" lon="-105.230575">
  <ele>1586.09</ele>
  <time>2026-08-27T18:27:37Z</time>
  <course>266.03</course>
  <speed>0.0</speed>
  <fix>3d</fix>
</trkpt>
<trkpt lat="40.072842" lon="-105.230575">
  <ele>1586.09</ele>
  <time>2026-08-27T18:27:37Z</time>
  <course>12.05</course>
  <speed>0.0</speed>
  <fix>3d</fix>
</trkpt>
<trkpt lat="40.072842" lon="-105.230575">
  <ele>1586.09</ele>
  <time>2026-08-27T18:27:37Z</time>
  <course>266.03</course>
  <speed>0.0</speed>
  <fix>3d</fix>
</trkpt>
<trkpt lat="40.072842" lon="-105.230575">
  <ele>1586.09</ele>
  <time>2026-08-27T18:27:37Z</time>
  <course>12.06</course>
  <speed>0.0</speed>
  <fix>3d</fix>
</trkpt>
<trkpt lat="40.072842" lon="-105.230575">
  <ele>1586.09</ele>
  <time>2026-08-27T18:27:37Z</time>
  <course>266.03</course>
  <speed>0.0</speed>
  <fix>3d</fix>
</trkpt>
<trkpt lat="40.072842" lon="-105.230575">
  <ele>1586.09</ele>
  <time>2026-08-27T18:27:37Z</time>
  <course>12.08</course>
  <speed>0.0</speed>
  <fix>3d</fix>
</trkpt>
<trkpt lat="40.072842" lon="-105.230575">
  <ele>1586.09</ele>
  <time>2026-08-27T18:27:37Z</time>
  <course>266.03</course>
  <speed>0.0</speed>
  <fix>3d</fix>
</trkpt>
<trkpt lat="40.072842" lon="-105.230575">
  <ele>1586.09</ele>
  <time>2026-08-27T18:27:37Z</time>
  <course>12.09</course>
  <speed>0.0</speed>
  <fix>3d</fix>
</trkpt>
<trkpt lat="40.072842" lon="-105.230575">
  <ele>1586.09</ele>
  <time>2026-08-27T18:27:37Z</time>
  <course>266.03</course>
  <speed>0.0</speed>
  <fix>3d</fix>
</trkpt>
<trkpt lat="40.072842" lon="-105.230575">
  <ele>1586.09</ele>
  <time>2026-08-27T18:27:37Z</time>
  <course>12.1</course>
  <speed>0.0</speed>
  <fix>3d</fix>
</trkpt>
<trkpt lat="40.072842" lon="-105.230575">
  <ele>1586.09</ele>
  <time>2026-08-27T18:27:37Z</time>
  <course>266.03</course>
  <speed>0.0</speed>
  <fix>3d</fix>
</trkpt>
<trkpt lat="40.072842" lon="-105.230575">
  <ele>1586.09</ele>
  <time>2026-08-27T18:27:37Z</time>
  <course>12.1</course>
  <speed>0.0</speed>
  <fix>3d</fix>
</trkpt>
<trkpt lat="40.072842" lon="-105.230575">
  <ele>1586.09</ele>
  <time>2026-08-27T18:27:37Z</time>
  <course>266.03</course>
  <speed>0.0</speed>
  <fix>3d</fix>
</trkpt>
<trkpt lat="40.072842" lon="-105.230575">
  <ele>1586.09</ele>
  <time>2026-08-27T18:27:37Z</time>
  <course>12.11</course>
  <speed>0.0</speed>
  <fix>3d</fix>
</trkpt>
<trkpt lat="40.072842" lon="-105.230575">
  <ele>1586.09</ele>
  <time>2026-08-27T18:27:37Z</time>
  <course>266.03</course>
  <speed>0.0</speed>
  <fix>3d</fix>
</trkpt>
<trkpt lat="40.072842" lon="-105.230575">
  <ele>1586.09</ele>
  <time>2026-08-27T18:27:37Z</time>
  <course>12.11</course>
  <speed>0.0</speed>
  <fix>3d</fix>
</trkpt>
<trkpt lat="40.072842" lon="-105.230575">
  <ele>1586.09</ele>
  <time>2026-08-27T18:27:37Z</time>
  <course>266.03</course>
  <speed>0.0</speed>
  <fix>3d</fix>
</trkpt>
<trkpt lat="40.072842" lon="-105.230575">
  <ele>1586.09</ele>
  <time>2026-08-27T18:27:37Z</time>
  <course>12.12</course>
  <speed>0.0</speed>
  <fix>3d</fix>
</trkpt>
<trkpt lat="40.072842" lon="-105.230575">
  <ele>1586.09</ele>
  <time>2026-08-27T18:27:37Z</time>
  <course>266.03</course>
  <speed>0.0</speed>
  <fix>3d</fix>
</trkpt>
<trkpt lat="40.072842" lon="-105.230575">
  <ele>1586.09</ele>
  <time>2026-08-27T18:27:37Z</time>
  <course>12.12</course>
  <speed>0.0</speed>
  <fix>3d</fix>
</trkpt>
<trkpt lat="40.072842" lon="-105.230575">
  <ele>1586.09</ele>
  <time>2026-08-27T18:27:37Z</time>
  <course>266.03</course>
  <speed>0.0</speed>
  <fix>3d</fix>
</trkpt>
<trkpt lat="40.072842" lon="-105.230575">
  <ele>1586.09</ele>
  <time>2026-08-27T18:27:37Z</time>
  <course>12.12</course>
  <speed>0.0</speed>
  <fix>3d</fix>
</trkpt>
<trkpt lat="40.072842" lon="-105.230575">
  <ele>1586.09</ele>
  <time>2026-08-27T18:27:37Z</time>
  <course>266.03</course>
  <speed>0.0</speed>
  <fix>3d</fix>
</trkpt>
<trkpt lat="40.072842" lon="-105.230575">
  <ele>1586.09</ele>
  <time>2026-08-27T18:27:37Z</time>
  <course>12.12</course>
  <speed>0.0</speed>
  <fix>3d</fix>
</trkpt>
<trkpt lat="40.072842" lon="-105.230575">
  <ele>1586.09</ele>
  <time>2026-08-27T18:27:37Z</time>
  <course>266.03</course>
  <speed>0.0</speed>
  <fix>3d</fix>
</trkpt>
<trkpt lat="40.072842" lon="-105.230575">
  <ele>1586.09</ele>
  <time>2026-08-27T18:27:37Z</time>
  <course>12.12</course>
  <speed>0.0</speed>
  <fix>3d</fix>
</trkpt>
<trkpt lat="40.072842" lon="-105.230575">
  <ele>1586.09</ele>
  <time>2026-08-27T18:27:37Z</time>
  <course>266.03</course>
  <speed>0.0</speed>
  <fix>3d</fix>
</trkpt>
<trkpt lat="40.072842" lon="-105.230575">
  <ele>1586.09</ele>
  <time>2026-08-27T18:27:37Z</time>
  <course>12.12</course>
  <speed>0.01</speed>
  <fix>3d</fix>
</trkpt>
<trkpt lat="40.072842" lon="-105.230575">
  <ele>1586.09</ele>
  <time>2026-08-27T18:27:37Z</time>
  <course>266.03</course>
  <speed>0.0</speed>
  <fix>3d</fix>
</trkpt>
<trkpt lat="40.072842" lon="-105.230575">
  <ele>1586.09</ele>
  <time>2026-08-27T18:27:37Z</time>
  <course>12.12</course>
  <speed>0.01</speed>
  <fix>3d</fix>
</trkpt>
<trkpt lat="40.072842" lon="-105.230575">
  <ele>1586.09</ele>
  <time>2026-08-27T18:27:37Z</time>
  <course>266.03</course>
  <speed>0.0</speed>
  <fix>3d</fix>
</trkpt>
<trkpt lat="40.072842" lon="-105.230575">
  <ele>1586.09</ele>
  <time>2026-08-27T18:27:37Z</time>
  <course>12.12</course>
  <speed>0.01</speed>
  <fix>3d</fix>
</trkpt>
<trkpt lat="40.072842" lon="-105.230575">
  <ele>1586.09</ele>
  <time>2026-08-27T18:27:37Z</time>
  <course>266.03</course>
  <speed>0.0</speed>
  <fix>3d</fix>
</trkpt>
<trkpt lat="40.072842" lon="-105.230575">
  <ele>1586.09</ele>
  <time>2026-08-27T18:27:37Z</time>
  <course>12.11</course>
  <speed>0.01</speed>
  <fix>3d</fix>
</trkpt>
<trkpt lat="40.072842" lon="-105.230575">
  <ele>1586.09</ele>
  <time>2026-08-27T18:27:37Z</time>
  <course>266.03</course>
  <speed>0.0</speed>
  <fix>3d</fix>
</trkpt>
<trkpt lat="40.072842" lon="-105.230575">
  <ele>1586.09</ele>
  <time>2026-08-27T18:27:37Z</time>
  <course>12.11</course>
  <speed>0.01</speed>
  <fix>3d</fix>
</trkpt>
<trkpt lat="40.072842" lon="-105.230575">
  <ele>1586.09</ele>
  <time>2026-08-27T18:27:37Z</time>
  <course>266.03</course>
  <speed>0.0</speed>
  <fix>3d</fix>
</trkpt>
<trkpt lat="40.072842" lon="-105.230575">
  <ele>1586.09</ele>
  <time>2026-08-27T18:27:37Z</time>
  <course>12.11</course>
  <speed>0.01</speed>
  <fix>3d</fix>
</trkpt>
<trkpt lat="40.072842" lon="-105.230575">
  <ele>1586.09</ele>
  <time>2026-08-27T18:27:37Z</time>
  <course>266.03</course>
  <speed>0.0</speed>
  <fix>3d</fix>
</trkpt>
<trkpt lat="40.072842" lon="-105.230575">
  <ele>1586.09</ele>
  <time>2026-08-27T18:27:37Z</time>
  <course>12.1</course>
  <speed>0.01</speed>
  <fix>3d</fix>
</trkpt>
<trkpt lat="40.072842" lon="-105.230575">
  <ele>1586.09</ele>
  <time>2026-08-27T18:27:37Z</time>
  <course>266.03</course>
  <speed>0.0</speed>
  <fix>3d</fix>
</trkpt>
<trkpt lat="40.072842" lon="-105.230575">
  <ele>1586.09</ele>
  <time>2026-08-27T18:27:37Z</time>
  <course>12.1</course>
  <speed>0.01</speed>
  <fix>3d</fix>
</trkpt>
<trkpt lat="40.072842" lon="-105.230575">
  <ele>1586.09</ele>
  <time>2026-08-27T18:27:37Z</time>
  <course>266.03</course>
  <speed>0.0</speed>
  <fix>3d</fix>
</trkpt>
<trkpt lat="40.072842" lon="-105.230575">
  <ele>1586.09</ele>
  <time>2026-08-27T18:27:37Z</time>
  <course>12.09</course>
  <speed>0.01</speed>
  <fix>3d</fix>
</trkpt>
<trkpt lat="40.072842" lon="-105.230575">
  <ele>1586.09</ele>
  <time>2026-08-27T18:27:37Z</time>
  <course>266.03</course>
  <speed>0.0</speed>
  <fix>3d</fix>
</trkpt>
<trkpt lat="40.072842" lon="-105.230575">
  <ele>1586.09</ele>
  <time>2026-08-27T18:27:37Z</time>
  <course>12.09</course>
  <speed>0.01</speed>
  <fix>3d</fix>
</trkpt>
<trkpt lat="40.072842" lon="-105.230575">
  <ele>1586.09</ele>
  <time>2026-08-27T18:27:37Z</time>
  <course>266.03</course>
  <speed>0.0</speed>
  <fix>3d</fix>
</trkpt>
<trkpt lat="40.072842" lon="-105.230575">
  <ele>1586.09</ele>
  <time>2026-08-27T18:27:37Z</time>
  <course>12.08</course>
  <speed>0.01414213562373095</speed>
  <fix>3d</fix>
</trkpt>
<trkpt lat="40.072842" lon="-105.230575">
  <ele>1586.09</ele>
  <time>2026-08-27T18:27:37Z</time>
  <course>266.03</course>
  <speed>0.0</speed>
  <fix>3d</fix>
</trkpt>
<trkpt lat="40.072842" lon="-105.230575">
  <ele>1586.09</ele>
  <time>2026-08-27T18:27:37Z</time>
  <course>12.07</course>
  <speed>0.01414213562373095</speed>
  <fix>3d</fix>
</trkpt>
<trkpt lat="40.072842" lon="-105.230575">
  <ele>1586.09</ele>
  <time>2026-08-27T18:27:37Z</time>
  <course>266.03</course>
  <speed>0.0</speed>
  <fix>3d</fix>
</trkpt>
<trkpt lat="40.072842" lon="-105.230575">
  <ele>1586.09</ele>
  <time>2026-08-27T18:27:37Z</time>
  <course>12.07</course>
  <speed>0.01414213562373095</speed>
  <fix>3d</fix>
</trkpt>
<trkpt lat="40.072842" lon="-105.230575">
  <ele>1586.09</ele>
  <time>2026-08-27T18:27:37Z</time>
  <course>266.03</course>
  <speed>0.0</speed>
  <fix>3d</fix>
</trkpt>
<trkpt lat="40.072842" lon="-105.230575">
  <ele>1586.09</ele>
  <time>2026-08-27T18:27:37Z</time>
  <course>12.06</course>
  <speed>0.01414213562373095</speed>
  <fix>3d</fix>
</trkpt>
<trkpt lat="40.072842" lon="-105.230575">
  <ele>1586.09</ele>
  <time>2026-08-27T18:27:37Z</time>
  <course>266.03</course>
  <speed>0.0</speed>
  <fix>3d</fix>
</trkpt>
<trkpt lat="40.072842" lon="-105.230575">
  <ele>1586.09</ele>
  <time>2026-08-27T18:27:37Z</time>
  <course>12.05</course>
  <speed>0.01414213562373095</speed>
  <fix>3d</fix>
</trkpt>
<trkpt lat="40.072842" lon="-105.230575">
  <ele>1586.09</ele>
  <time>2026-08-27T18:27:37Z</time>
  <course>266.03</course>
  <speed>0.0</speed>
  <fix>3d</fix>
</trkpt>
<trkpt lat="40.072842" lon="-105.230575">
  <ele>1586.09</ele>
  <time>2026-08-27T18:27:37Z</time>
  <course>12.05</course>
  <speed>0.01414213562373095</speed>
  <fix>3d</fix>
</trkpt>
<trkpt lat="40.072842" lon="-105.230575">
  <ele>1586.09</ele>
  <time>2026-08-27T18:27:37Z</time>
  <course>266.03</course>
  <speed>0.0</speed>
  <fix>3d</fix>
</trkpt>
<trkpt lat="40.072842" lon="-105.230575">
  <ele>1586.09</ele>
  <time>2026-08-27T18:27:37Z</time>
  <course>12.04</course>
  <speed>0.01414213562373095</speed>
  <fix>3d</fix>
</trkpt>
<trkpt lat="40.072842" lon="-105.230575">
  <ele>1586.09</ele>
  <time>2026-08-27T18:27:37Z</time>
  <course>266.03</course>
  <speed>0.0</speed>
  <fix>3d</fix>
</trkpt>
<trkpt lat="40.072842" lon="-105.230575">
  <ele>1586.09</ele>
  <time>2026-08-27T18:27:37Z</time>
  <course>12.03</course>
  <speed>0.01414213562373095</speed>
  <fix>3d</fix>
</trkpt>
<trkpt lat="40.072842" lon="-105.230575">
  <ele>1586.09</ele>
  <time>2026-08-27T18:27:37Z</time>
  <course>266.03</course>
  <speed>0.0</speed>
  <fix>3d</fix>
</trkpt>
<trkpt lat="40.072842" lon="-105.230575">
  <ele>1586.09</ele>
  <time>2026-08-27T18:27:37Z</time>
  <course>12.02</course>
  <speed>0.01414213562373095</speed>
  <fix>3d</fix>
</trkpt>
<trkpt lat="40.072842" lon="-105.230575">
  <ele>1586.09</ele>
  <time>2026-08-27T18:27:37Z</time>
  <course>266.03</course>
  <speed>0.0</speed>
  <fix>3d</fix>
</trkpt>
<trkpt lat="40.072842" lon="-105.230575">
  <ele>1586.09</ele>
  <time>2026-08-27T18:27:37Z</time>
  <course>12.02</course>
  <speed>0.01414213562373095</speed>
  <fix>3d</fix>
</trkpt>
<trkpt lat="40.072842" lon="-105.230575">
  <ele>1586.09</ele>
  <time>2026-08-27T18:27:37Z</time>
  <course>266.03</course>
  <speed>0.0</speed>
  <fix>3d</fix>
</trkpt>
<trkpt lat="40.072842" lon="-105.230575">
  <ele>1586.09</ele>
  <time>2026-08-27T18:27:37Z</time>
  <course>12.01</course>
  <speed>0.01414213562373095</speed>
  <fix>3d</fix>
</trkpt>
<trkpt lat="40.072842" lon="-105.230575">
  <ele>1586.09</ele>
  <time>2026-08-27T18:27:37Z</time>
  <course>266.03</course>
  <speed>0.0</speed>
  <fix>3d</fix>
</trkpt>
<trkpt lat="40.072842" lon="-105.230575">
  <ele>1586.09</ele>
  <time>2026-08-27T18:27:37Z</time>
  <course>12.0</course>
  <speed>0.01414213562373095</speed>
  <fix>3d</fix>
</trkpt>
<trkpt lat="40.072842" lon="-105.230575">
  <ele>1586.09</ele>
  <time>2026-08-27T18:27:37Z</time>
  <course>266.03</course>
  <speed>0.0</speed>
  <fix>3d</fix>
</trkpt>
<trkpt lat="40.072842" lon="-105.230575">
  <ele>1586.09</ele>
  <time>2026-08-27T18:27:37Z</time>
  <course>11.99</course>
  <speed>0.01414213562373095</speed>
  <fix>3d</fix>
</trkpt>
<trkpt lat="40.072842" lon="-105.230575">
  <ele>1586.09</ele>
  <time>2026-08-27T18:27:37Z</time>
  <course>266.03</course>
  <speed>0.0</speed>
  <fix>3d</fix>
</trkpt>
<trkpt lat="40.072842" lon="-105.230575">
  <ele>1586.09</ele>
  <time>2026-08-27T18:27:37Z</time>
  <course>11.99</course>
  <speed>0.01414213562373095</speed>
  <fix>3d</fix>
</trkpt>
<trkpt lat="40.072842" lon="-105.230575">
  <ele>1586.09</ele>
  <time>2026-08-27T18:27:37Z</time>
  <course>266.03</course>
  <speed>0.0</speed>
  <fix>3d</fix>
</trkpt>
<trkpt lat="40.072842" lon="-105.230575">
  <ele>1586.09</ele>
  <time>2026-08-27T18:27:37Z</time>
  <course>11.98</course>
  <speed>0.01414213562373095</speed>
  <fix>3d</fix>
</trkpt>
<trkpt lat="40.072842" lon="-105.230575">
  <ele>1586.09</ele>
  <time>2026-08-27T18:27:37Z</time>
  <course>266.03</course>
  <speed>0.0</speed>
  <fix>3d</fix>
</trkpt>
<trkpt lat="40.072842" lon="-105.230575">
  <ele>1586.09</ele>
  <time>2026-08-27T18:27:37Z</time>
  <course>11.97</course>
  <speed>0.01414213562373095</speed>
  <fix>3d</fix>
</trkpt>
<trkpt lat="40.072842" lon="-105.230575">
  <ele>1586.09</ele>
  <time>2026-08-27T18:27:37Z</time>
  <course>266.03</course>
  <speed>0.0</speed>
  <fix>3d</fix>
</trkpt>
<trkpt lat="40.072842" lon="-105.230575">
  <ele>1586.09</ele>
  <time>2026-08-27T18:27:37Z</time>
  <course>11.96</course>
  <speed>0.01414213562373095</speed>
  <fix>3d</fix>
</trkpt>
<trkpt lat="40.072842" lon="-105.230575">
  <ele>1586.09</ele>
  <time>2026-08-27T18:27:37Z</time>
  <course>266.03</course>
  <speed>0.0</speed>
  <fix>3d</fix>
</trkpt>
<trkpt lat="40.072842" lon="-105.230575">
  <ele>1586.09</ele>
  <time>2026-08-27T18:27:37Z</time>
  <course>11.95</course>
  <speed>0.022360679774997897</speed>
  <fix>3d</fix>
</trkpt>
<trkpt lat="40.072842" lon="-105.230575">
  <ele>1586.09</ele>
  <time>2026-08-27T18:27:37Z</time>
  <course>266.03</course>
  <speed>0.0</speed>
  <fix>3d</fix>
</trkpt>
<trkpt lat="40.072842" lon="-105.230575">
  <ele>1586.09</ele>
  <time>2026-08-27T18:27:37Z</time>
  <course>11.95</course>
  <speed>0.022360679774997897</speed>
  <fix>3d</fix>
</trkpt>
<trkpt lat="40.072842" lon="-105.230575">
  <ele>1586.09</ele>
  <time>2026-08-27T18:27:37Z</time>
  <course>266.03</course>
  <speed>0.0</speed>
  <fix>3d</fix>
</trkpt>
<trkpt lat="40.072842" lon="-105.230575">
  <ele>1586.09</ele>
  <time>2026-08-27T18:27:37Z</time>
  <course>11.94</course>
  <speed>0.022360679774997897</speed>
  <fix>3d</fix>
</trkpt>
<trkpt lat="40.072842" lon="-105.230575">
  <ele>1586.09</ele>
  <time>2026-08-27T18:27:37Z</time>
  <course>266.03</course>
  <speed>0.0</speed>
  <fix>3d</fix>
</trkpt>
<trkpt lat="40.072842" lon="-105.230575">
  <ele>1586.09</ele>
  <time>2026-08-27T18:27:37Z</time>
  <course>11.93</course>
  <speed>0.022360679774997897</speed>
  <fix>3d</fix>
</trkpt>
<trkpt lat="40.072842" lon="-105.230575">
  <ele>1586.09</ele>
  <time>2026-08-27T18:27:37Z</time>
  <course>266.03</course>
  <speed>0.0</speed>
  <fix>3d</fix>
</trkpt>
<trkpt lat="40.072842" lon="-105.230575">
  <ele>1586.09</ele>
  <time>2026-08-27T18:27:37Z</time>
  <course>11.92</course>
  <speed>0.022360679774997897</speed>
  <fix>3d</fix>
</trkpt>
<trkpt lat="40.072842" lon="-105.230575">
  <ele>1586.09</ele>
  <time>2026-08-27T18:27:37Z</time>
  <course>266.03</course>
  <speed>0.0</speed>
  <fix>3d</fix>
</trkpt>
<trkpt lat="40.072842" lon="-105.230575">
  <ele>1586.09</ele>
  <time>2026-08-27T18:27:37Z</time>
  <course>11.91</course>
  <speed>0.022360679774997897</speed>
  <fix>3d</fix>
</trkpt>
<trkpt lat="40.072842" lon="-105.230575">
  <ele>1586.09</ele>
  <time>2026-08-27T18:27:37Z</time>
  <course>266.03</course>
  <speed>0.0</speed>
  <fix>3d</fix>
</trkpt>
<trkpt lat="40.072842" lon="-105.230575">
  <ele>1586.09</ele>
  <time>2026-08-27T18:27:37Z</time>
  <course>11.91</course>
  <speed>0.022360679774997897</speed>
  <fix>3d</fix>
</trkpt>
<trkpt lat="40.072842" lon="-105.230575">
  <ele>1586.09</ele>
  <time>2026-08-27T18:27:37Z</time>
  <course>266.03</course>
  <speed>0.0</speed>
  <fix>3d</fix>
</trkpt>
<trkpt lat="40.072842" lon="-105.230575">
  <ele>1586.09</ele>
  <time>2026-08-27T18:27:37Z</time>
  <course>11.9</course>
  <speed>0.022360679774997897</speed>
  <fix>3d</fix>
</trkpt>
<trkpt lat="40.072842" lon="-105.230575">
  <ele>1586.09</ele>
  <time>2026-08-27T18:27:37Z</time>
  <course>266.03</course>
  <speed>0.0</speed>
  <fix>3d</fix>
</trkpt>
<trkpt lat="40.072842" lon="-105.230575">
  <ele>1586.09</ele>
  <time>2026-08-27T18:27:37Z</time>
  <course>11.89</course>
  <speed>0.022360679774997897</speed>
  <fix>3d</fix>
</trkpt>
<trkpt lat="40.072842" lon="-105.230575">
  <ele>1586.09</ele>
  <time>2026-08-27T18:27:37Z</time>
  <course>266.03</course>
  <speed>0.0</speed>
  <fix>3d</fix>
</trkpt>
<trkpt lat="40.072842" lon="-105.230575">
  <ele>1586.09</ele>
  <time>2026-08-27T18:27:37Z</time>
  <course>11.88</course>
  <speed>0.022360679774997897</speed>
  <fix>3d</fix>
</trkpt>
<trkpt lat="40.072842" lon="-105.230575">
  <ele>1586.09</ele>
  <time>2026-08-27T18:27:37Z</time>
  <course>266.03</course>
  <speed>0.0</speed>
  <fix>3d</fix>
</trkpt>
<trkpt lat="40.072842" lon="-105.230575">
  <ele>1586.09</ele>
  <time>2026-08-27T18:27:37Z</time>
  <course>11.87</course>
  <speed>0.022360679774997897</speed>
  <fix>3d</fix>
</trkpt>
<trkpt lat="40.072842" lon="-105.230575">
  <ele>1586.09</ele>
  <time>2026-08-27T18:27:37Z</time>
  <course>266.03</course>
  <speed>0.0</speed>
  <fix>3d</fix>
</trkpt>
<trkpt lat="40.072842" lon="-105.230575">
  <ele>1586.09</ele>
  <time>2026-08-27T18:27:37Z</time>
  <course>11.86</course>
  <speed>0.022360679774997897</speed>
  <fix>3d</fix>
</trkpt>
<trkpt lat="40.072842" lon="-105.230575">
  <ele>1586.09</ele>
  <time>2026-08-27T18:27:37Z</time>
  <course>266.03</course>
  <speed>0.0</speed>
  <fix>3d</fix>
</trkpt>
<trkpt lat="40.072842" lon="-105.230575">
  <ele>1586.09</ele>
  <time>2026-08-27T18:27:37Z</time>
  <course>11.86</course>
  <speed>0.022360679774997897</speed>
  <fix>3d</fix>
</trkpt>
<trkpt lat="40.072842" lon="-105.230575">
  <ele>1586.09</ele>
  <time>2026-08-27T18:27:37Z</time>
  <course>266.03</course>
  <speed>0.0</speed>
  <fix>3d</fix>
</trkpt>
<trkpt lat="40.072842" lon="-105.230575">
  <ele>1586.09</ele>
  <time>2026-08-27T18:27:37Z</time>
  <course>11.85</course>
  <speed>0.022360679774997897</speed>
  <fix>3d</fix>
</trkpt>
<trkpt lat="40.072842" lon="-105.230575">
  <ele>1586.09</ele>
  <time>2026-08-27T18:27:37Z</time>
  <course>266.03</course>
  <speed>0.0</speed>
  <fix>3d</fix>
</trkpt>
<trkpt lat="40.072842" lon="-105.230575">
  <ele>1586.09</ele>
  <time>2026-08-27T18:27:37Z</time>
  <course>11.84</course>
  <speed>0.022360679774997897</speed>
  <fix>3d</fix>
</trkpt>
<trkpt lat="40.072842" lon="-105.230575">
  <ele>1586.09</ele>
  <time>2026-08-27T18:27:37Z</time>
  <course>266.03</course>
  <speed>0.0</speed>
  <fix>3d</fix>
</trkpt>
<trkpt lat="40.072842" lon="-105.230575">
  <ele>1586.09</ele>
  <time>2026-08-27T18:27:37Z</time>
  <course>11.83</course>
  <speed>0.022360679774997897</speed>
  <fix>3d</fix>
</trkpt>
<trkpt lat="40.072842" lon="-105.230575">
  <ele>1586.09</ele>
  <time>2026-08-27T18:27:37Z</time>
  <course>266.03</course>
  <speed>0.0</speed>
  <fix>3d</fix>
</trkpt>
<trkpt lat="40.072842" lon="-105.230575">
  <ele>1586.09</ele>
  <time>2026-08-27T18:27:37Z</time>
  <course>11.82</course>
  <speed>0.022360679774997897</speed>
  <fix>3d</fix>
</trkpt>
<trkpt lat="40.072842" lon="-105.230575">
  <ele>1586.09</ele>
  <time>2026-08-27T18:27:37Z</time>
  <course>266.03</course>
  <speed>0.0</speed>
  <fix>3d</fix>
</trkpt>
<trkpt lat="40.072842" lon="-105.230575">
  <ele>1586.09</ele>
  <time>2026-08-27T18:27:37Z</time>
  <course>11.82</course>
  <speed>0.0282842712474619</speed>
  <fix>3d</fix>
</trkpt>
<trkpt lat="40.072842" lon="-105.230575">
  <ele>1586.09</ele>
  <time>2026-08-27T18:27:37Z</time>
  <course>266.03</course>
  <speed>0.0</speed>
  <fix>3d</fix>
</trkpt>
<trkpt lat="40.072842" lon="-105.230575">
  <ele>1586.09</ele>
  <time>2026-08-27T18:27:37Z</time>
  <course>11.81</course>
  <speed>0.0282842712474619</speed>
  <fix>3d</fix>
</trkpt>
<trkpt lat="40.072842" lon="-105.230575">
  <ele>1586.09</ele>
  <time>2026-08-27T18:27:37Z</time>
  <course>266.03</course>
  <speed>0.0</speed>
  <fix>3d</fix>
</trkpt>
<trkpt lat="40.072842" lon="-105.230575">
  <ele>1586.09</ele>
  <time>2026-08-27T18:27:37Z</time>
  <course>11.8</course>
  <speed>0.0282842712474619</speed>
  <fix>3d</fix>
</trkpt>
<trkpt lat="40.072842" lon="-105.230575">
  <ele>1586.09</ele>
  <time>2026-08-27T18:27:37Z</time>
  <course>266.03</course>
  <speed>0.0</speed>
  <fix>3d</fix>
</trkpt>
<trkpt lat="40.072842" lon="-105.230575">
  <ele>1586.09</ele>
  <time>2026-08-27T18:27:37Z</time>
  <course>11.79</course>
  <speed>0.0282842712474619</speed>
  <fix>3d</fix>
</trkpt>
<trkpt lat="40.072842" lon="-105.230575">
  <ele>1586.09</ele>
  <time>2026-08-27T18:27:37Z</time>
  <course>266.03</course>
  <speed>0.0</speed>
  <fix>3d</fix>
</trkpt>
<trkpt lat="40.072842" lon="-105.230575">
  <ele>1586.09</ele>
  <time>2026-08-27T18:27:37Z</time>
  <course>11.78</course>
  <speed>0.0282842712474619</speed>
  <fix>3d</fix>
</trkpt>
<trkpt lat="40.072842" lon="-105.230575">
  <ele>1586.09</ele>
  <time>2026-08-27T18:27:37Z</time>
  <course>266.03</course>
  <speed>0.0</speed>
  <fix>3d</fix>
</trkpt>
<trkpt lat="40.072842" lon="-105.230575">
  <ele>1586.09</ele>
  <time>2026-08-27T18:27:37Z</time>
  <course>11.78</course>
  <speed>0.0282842712474619</speed>
  <fix>3d</fix>
</trkpt>
<trkpt lat="40.072842" lon="-105.230575">
  <ele>1586.09</ele>
  <time>2026-08-27T18:27:37Z</time>
  <course>266.03</course>
  <speed>0.0</speed>
  <fix>3d</fix>
</trkpt>
<trkpt lat="40.072842" lon="-105.230575">
  <ele>1586.09</ele>
  <time>2026-08-27T18:27:37Z</time>
  <course>11.77</course>
  <speed>0.0282842712474619</speed>
  <fix>3d</fix>
</trkpt>
<trkpt lat="40.072842" lon="-105.230575">
  <ele>1586.09</ele>
  <time>2026-08-27T18:27:37Z</time>
  <course>266.03</course>
  <speed>0.0</speed>
  <fix>3d</fix>
</trkpt>
<trkpt lat="40.072842" lon="-105.230575">
  <ele>1586.09</ele>
  <time>2026-08-27T18:27:37Z</time>
  <course>11.76</course>
  <speed>0.0282842712474619</speed>
  <fix>3d</fix>
</trkpt>
<trkpt lat="40.072842" lon="-105.230575">
  <ele>1586.09</ele>
  <time>2026-08-27T18:27:37Z</time>
  <course>266.03</course>
  <speed>0.0</speed>
  <fix>3d</fix>
</trkpt>
<trkpt lat="40.072842" lon="-105.230575">
  <ele>1586.09</ele>
  <time>2026-08-27T18:27:37Z</time>
  <course>11.76</course>
  <speed>0.0282842712474619</speed>
  <fix>3d</fix>
</trkpt>
<trkpt lat="40.072842" lon="-105.230575">
  <ele>1586.09</ele>
  <time>2026-08-27T18:27:37Z</time>
  <course>266.03</course>
  <speed>0.0</speed>
  <fix>3d</fix>
</trkpt>
<trkpt lat="40.072842" lon="-105.230575">
  <ele>1586.09</ele>
  <time>2026-08-27T18:27:37Z</time>
  <course>11.75</course>
  <speed>0.0282842712474619</speed>
  <fix>3d</fix>
</trkpt>
<trkpt lat="40.072842" lon="-105.230575">
  <ele>1586.09</ele>
  <time>2026-08-27T18:27:37Z</time>
  <course>266.03</course>
  <speed>0.0</speed>
  <fix>3d</fix>
</trkpt>
<trkpt lat="40.072842" lon="-105.230575">
  <ele>1586.09</ele>
  <time>2026-08-27T18:27:37Z</time>
  <course>11.74</course>
  <speed>0.0282842712474619</speed>
  <fix>3d</fix>
</trkpt>
<trkpt lat="40.072842" lon="-105.230575">
  <ele>1586.09</ele>
  <time>2026-08-27T18:27:37Z</time>
  <course>266.03</course>
  <speed>0.0</speed>
  <fix>3d</fix>
</trkpt>
<trkpt lat="40.072842" lon="-105.230575">
  <ele>1586.09</ele>
  <time>2026-08-27T18:27:37Z</time>
  <course>11.73</course>
  <speed>0.03605551275463989</speed>
  <fix>3d</fix>
</trkpt>
<trkpt lat="40.072842" lon="-105.230575">
  <ele>1586.09</ele>
  <time>2026-08-27T18:27:37Z</time>
  <course>266.03</course>
  <speed>0.0</speed>
  <fix>3d</fix>
</trkpt>
<trkpt lat="40.072842" lon="-105.230575">
  <ele>1586.09</ele>
  <time>2026-08-27T18:27:37Z</time>
  <course>11.73</course>
  <speed>0.03605551275463989</speed>
  <fix>3d</fix>
</trkpt>
<trkpt lat="40.072842" lon="-105.230575">
  <ele>1586.09</ele>
  <time>2026-08-27T18:27:37Z</time>
  <course>266.03</course>
  <speed>0.0</speed>
  <fix>3d</fix>
</trkpt>
<trkpt lat="40.072842" lon="-105.230575">
  <ele>1586.09</ele>
  <time>2026-08-27T18:27:37Z</time>
  <course>11.72</course>
  <speed>0.03605551275463989</speed>
  <fix>3d</fix>
</trkpt>
<trkpt lat="40.072842" lon="-105.230575">
  <ele>1586.09</ele>
  <time>2026-08-27T18:27:37Z</time>
  <course>266.03</course>
  <speed>0.0</speed>
  <fix>3d</fix>
</trkpt>
<trkpt lat="40.072842" lon="-105.230575">
  <ele>1586.09</ele>
  <time>2026-08-27T18:27:37Z</time>
  <course>11.71</course>
  <speed>0.03605551275463989</speed>
  <fix>3d</fix>
</trkpt>
<trkpt lat="40.072842" lon="-105.230575">
  <ele>1586.09</ele>
  <time>2026-08-27T18:27:37Z</time>
  <course>266.03</course>
  <speed>0.0</speed>
  <fix>3d</fix>
</trkpt>
<trkpt lat="40.072842" lon="-105.230575">
  <ele>1586.09</ele>
  <time>2026-08-27T18:27:37Z</time>
  <course>11.7</course>
  <speed>0.03605551275463989</speed>
  <fix>3d</fix>
</trkpt>
<trkpt lat="40.072842" lon="-105.230575">
  <ele>1586.09</ele>
  <time>2026-08-27T18:27:37Z</time>
  <course>266.03</course>
  <speed>0.0</speed>
  <fix>3d</fix>
</trkpt>
<trkpt lat="40.072842" lon="-105.230575">
  <ele>1586.09</ele>
  <time>2026-08-27T18:27:37Z</time>
  <course>11.7</course>
  <speed>0.03605551275463989</speed>
  <fix>3d</fix>
</trkpt>
<trkpt lat="40.072842" lon="-105.230575">
  <ele>1586.09</ele>
  <time>2026-08-27T18:27:37Z</time>
  <course>266.03</course>
  <speed>0.0</speed>
  <fix>3d</fix>
</trkpt>
<trkpt lat="40.072842" lon="-105.230575">
  <ele>1586.09</ele>
  <time>2026-08-27T18:27:37Z</time>
  <course>11.69</course>
  <speed>0.03605551275463989</speed>
  <fix>3d</fix>
</trkpt>
<trkpt lat="40.072842" lon="-105.230575">
  <ele>1586.09</ele>
  <time>2026-08-27T18:27:37Z</time>
  <course>266.03</course>
  <speed>0.0</speed>
  <fix>3d</fix>
</trkpt>
<trkpt lat="40.072842" lon="-105.230575">
  <ele>1586.09</ele>
  <time>2026-08-27T18:27:37Z</time>
  <course>11.68</course>
  <speed>0.03605551275463989</speed>
  <fix>3d</fix>
</trkpt>
<trkpt lat="40.072842" lon="-105.230575">
  <ele>1586.09</ele>
  <time>2026-08-27T18:27:37Z</time>
  <course>266.03</course>
  <speed>0.0</speed>
  <fix>3d</fix>
</trkpt>
<trkpt lat="40.072842" lon="-105.230575">
  <ele>1586.09</ele>
  <time>2026-08-27T18:27:37Z</time>
  <course>11.67</course>
  <speed>0.03605551275463989</speed>
  <fix>3d</fix>
</trkpt>
<trkpt lat="40.072842" lon="-105.230575">
  <ele>1586.09</ele>
  <time>2026-08-27T18:27:37Z</time>
  <course>266.03</course>
  <speed>0.0</speed>
  <fix>3d</fix>
</trkpt>
<trkpt lat="40.072842" lon="-105.230575">
  <ele>1586.09</ele>
  <time>2026-08-27T18:27:37Z</time>
  <course>11.67</course>
  <speed>0.03605551275463989</speed>
  <fix>3d</fix>
</trkpt>
<trkpt lat="40.072842" lon="-105.230575">
  <ele>1586.09</ele>
  <time>2026-08-27T18:27:37Z</time>
  <course>266.03</course>
  <speed>0.0</speed>
  <fix>3d</fix>
</trkpt>
<trkpt lat="40.072842" lon="-105.230575">
  <ele>1586.09</ele>
  <time>2026-08-27T18:27:37Z</time>
  <course>11.66</course>
  <speed>0.03605551275463989</speed>
  <fix>3d</fix>
</trkpt>
<trkpt lat="40.072842" lon="-105.230575">
  <ele>1586.09</ele>
  <time>2026-08-27T18:27:37Z</time>
  <course>266.03</course>
  <speed>0.0</speed>
  <fix>3d</fix>
</trkpt>
<trkpt lat="40.072842" lon="-105.230575">
  <ele>1586.09</ele>
  <time>2026-08-27T18:27:37Z</time>
  <course>11.65</course>
  <speed>0.03605551275463989</speed>
  <fix>3d</fix>
</trkpt>
<trkpt lat="40.072842" lon="-105.230575">
  <ele>1586.09</ele>
  <time>2026-08-27T18:27:37Z</time>
  <course>266.03</course>
  <speed>0.0</speed>
  <fix>3d</fix>
</trkpt>
<trkpt lat="40.072842" lon="-105.230575">
  <ele>1586.09</ele>
  <time>2026-08-27T18:27:37Z</time>
  <course>11.65</course>
  <speed>0.03605551275463989</speed>
  <fix>3d</fix>
</trkpt>
<trkpt lat="40.072842" lon="-105.230575">
  <ele>1586.09</ele>
  <time>2026-08-27T18:27:37Z</time>
  <course>266.03</course>
  <speed>0.0</speed>
  <fix>3d</fix>
</trkpt>
<trkpt lat="40.072842" lon="-105.230575">
  <ele>1586.09</ele>
  <time>2026-08-27T18:27:37Z</time>
  <course>11.64</course>
  <speed>0.03605551275463989</speed>
  <fix>3d</fix>
</trkpt>
<trkpt lat="40.072842" lon="-105.230575">
  <ele>1586.09</ele>
  <time>2026-08-27T18:27:37Z</time>
  <course>266.03</course>
  <speed>0.0</speed>
  <fix>3d</fix>
</trkpt>
<trkpt lat="40.072842" lon="-105.230575">
  <ele>1586.09</ele>
  <time>2026-08-27T18:27:37Z</time>
  <course>11.63</course>
  <speed>0.03605551275463989</speed>
  <fix>3d</fix>
</trkpt>
<trkpt lat="40.072842" lon="-105.230575">
  <ele>1586.09</ele>
  <time>2026-08-27T18:27:37Z</time>
  <course>266.03</course>
  <speed>0.0</speed>
  <fix>3d</fix>
</trkpt>
<trkpt lat="40.072842" lon="-105.230575">
  <ele>1586.09</ele>
  <time>2026-08-27T18:27:37Z</time>
  <course>11.63</course>
  <speed>0.03605551275463989</speed>
  <fix>3d</fix>
</trkpt>
<trkpt lat="40.072842" lon="-105.230575">
  <ele>1586.09</ele>
  <time>2026-08-27T18:27:37Z</time>
  <course>266.03</course>
  <speed>0.0</speed>
  <fix>3d</fix>
</trkpt>
<trkpt lat="40.072842" lon="-105.230575">
  <ele>1586.09</ele>
  <time>2026-08-27T18:27:37Z</time>
  <course>11.62</course>
  <speed>0.03605551275463989</speed>
  <fix>3d</fix>
</trkpt>
<trkpt lat="40.072842" lon="-105.230575">
  <ele>1586.09</ele>
  <time>2026-08-27T18:27:37Z</time>
  <course>266.03</course>
  <speed>0.0</speed>
  <fix>3d</fix>
</trkpt>
<trkpt lat="40.072842" lon="-105.230575">
  <ele>1586.09</ele>
  <time>2026-08-27T18:27:37Z</time>
  <course>11.61</course>
  <speed>0.03605551275463989</speed>
  <fix>3d</fix>
</trkpt>
<trkpt lat="40.072842" lon="-105.230575">
  <ele>1586.09</ele>
  <time>2026-08-27T18:27:37Z</time>
  <course>266.03</course>
  <speed>0.0</speed>
  <fix>3d</fix>
</trkpt>
<trkpt lat="40.072842" lon="-105.230575">
  <ele>1586.09</ele>
  <time>2026-08-27T18:27:37Z</time>
  <course>11.61</course>
  <speed>0.03605551275463989</speed>
  <fix>3d</fix>
</trkpt>
<trkpt lat="40.072842" lon="-105.230575">
  <ele>1586.09</ele>
  <time>2026-08-27T18:27:37Z</time>
  <course>266.03</course>
  <speed>0.0</speed>
  <fix>3d</fix>
</trkpt>
<trkpt lat="40.072842" lon="-105.230575">
  <ele>1586.09</ele>
  <time>2026-08-27T18:27:37Z</time>
  <course>11.6</course>
  <speed>0.03605551275463989</speed>
  <fix>3d</fix>
</trkpt>
<trkpt lat="40.072842" lon="-105.230575">
  <ele>1586.09</ele>
  <time>2026-08-27T18:27:37Z</time>
  <course>266.03</course>
  <speed>0.0</speed>
  <fix>3d</fix>
</trkpt>
<trkpt lat="40.072842" lon="-105.230575">
  <ele>1586.09</ele>
  <time>2026-08-27T18:27:37Z</time>
  <course>11.59</course>
  <speed>0.03605551275463989</speed>
  <fix>3d</fix>
</trkpt>
<trkpt lat="40.072842" lon="-105.230575">
  <ele>1586.09</ele>
  <time>2026-08-27T18:27:37Z</time>
  <course>266.03</course>
  <speed>0.0</speed>
  <fix>3d</fix>
</trkpt>
<trkpt lat="40.072842" lon="-105.230575">
  <ele>1586.09</ele>
  <time>2026-08-27T18:27:37Z</time>
  <course>11.59</course>
  <speed>0.03605551275463989</speed>
  <fix>3d</fix>
</trkpt>
<trkpt lat="40.072842" lon="-105.230575">
  <ele>1586.09</ele>
  <time>2026-08-27T18:27:37Z</time>
  <course>266.03</course>
  <speed>0.0</speed>
  <fix>3d</fix>
</trkpt>
<trkpt lat="40.072842" lon="-105.230575">
  <ele>1586.09</ele>
  <time>2026-08-27T18:27:37Z</time>
  <course>11.58</course>
  <speed>0.03605551275463989</speed>
  <fix>3d</fix>
</trkpt>
<trkpt lat="40.072842" lon="-105.230575">
  <ele>1586.09</ele>
  <time>2026-08-27T18:27:37Z</time>
  <course>266.03</course>
  <speed>0.0</speed>
  <fix>3d</fix>
</trkpt>
<trkpt lat="40.072842" lon="-105.230575">
  <ele>1586.09</ele>
  <time>2026-08-27T18:27:37Z</time>
  <course>11.57</course>
  <speed>0.03605551275463989</speed>
  <fix>3d</fix>
</trkpt>
<trkpt lat="40.072842" lon="-105.230575">
  <ele>1586.09</ele>
  <time>2026-08-27T18:27:37Z</time>
  <course>266.03</course>
  <speed>0.0</speed>
  <fix>3d</fix>
</trkpt>
<trkpt lat="40.072842" lon="-105.230575">
  <ele>1586.09</ele>
  <time>2026-08-27T18:27:37Z</time>
  <course>11.57</course>
  <speed>0.03605551275463989</speed>
  <fix>3d</fix>
</trkpt>
<trkpt lat="40.072842" lon="-105.230575">
  <ele>1586.09</ele>
  <time>2026-08-27T18:27:37Z</time>
  <course>266.03</course>
  <speed>0.0</speed>
  <fix>3d</fix>
</trkpt>
<trkpt lat="40.072842" lon="-105.230575">
  <ele>1586.09</ele>
  <time>2026-08-27T18:27:37Z</time>
  <course>11.56</course>
  <speed>0.03605551275463989</speed>
  <fix>3d</fix>
</trkpt>
<trkpt lat="40.072842" lon="-105.230575">
  <ele>1586.09</ele>
  <time>2026-08-27T18:27:37Z</time>
  <course>266.03</course>
  <speed>0.0</speed>
  <fix>3d</fix>
</trkpt>
<trkpt lat="40.072842" lon="-105.230575">
  <ele>1586.09</ele>
  <time>2026-08-27T18:27:37Z</time>
  <course>11.56</course>
  <speed>0.03605551275463989</speed>
  <fix>3d</fix>
</trkpt>
<trkpt lat="40.072842" lon="-105.230575">
  <ele>1586.09</ele>
  <time>2026-08-27T18:27:37Z</time>
  <course>266.03</course>
  <speed>0.0</speed>
  <fix>3d</fix>
</trkpt>
<trkpt lat="40.072842" lon="-105.230575">
  <ele>1586.09</ele>
  <time>2026-08-27T18:27:37Z</time>
  <course>11.55</course>
  <speed>0.03605551275463989</speed>
  <fix>3d</fix>
</trkpt>
<trkpt lat="40.072842" lon="-105.230575">
  <ele>1586.09</ele>
  <time>2026-08-27T18:27:37Z</time>
  <course>266.03</course>
  <speed>0.0</speed>
  <fix>3d</fix>
</trkpt>
<trkpt lat="40.072842" lon="-105.230575">
  <ele>1586.09</ele>
  <time>2026-08-27T18:27:37Z</time>
  <course>11.54</course>
  <speed>0.03605551275463989</speed>
  <fix>3d</fix>
</trkpt>
<trkpt lat="40.072842" lon="-105.230575">
  <ele>1586.09</ele>
  <time>2026-08-27T18:27:37Z</time>
  <course>266.03</course>
  <speed>0.0</speed>
  <fix>3d</fix>
</trkpt>
<trkpt lat="40.072842" lon="-105.230575">
  <ele>1586.09</ele>
  <time>2026-08-27T18:27:37Z</time>
  <course>11.54</course>
  <speed>0.03605551275463989</speed>
  <fix>3d</fix>
</trkpt>
<trkpt lat="40.072842" lon="-105.230575">
  <ele>1586.09</ele>
  <time>2026-08-27T18:27:37Z</time>
  <course>266.03</course>
  <speed>0.0</speed>
  <fix>3d</fix>
</trkpt>
<trkpt lat="40.072842" lon="-105.230575">
  <ele>1586.09</ele>
  <time>2026-08-27T18:27:37Z</time>
  <course>11.53</course>
  <speed>0.03605551275463989</speed>
  <fix>3d</fix>
</trkpt>
<trkpt lat="40.072842" lon="-105.230575">
  <ele>1586.09</ele>
  <time>2026-08-27T18:27:37Z</time>
  <course>266.03</course>
  <speed>0.0</speed>
  <fix>3d</fix>
</trkpt>
<trkpt lat="40.072842" lon="-105.230575">
  <ele>1586.09</ele>
  <time>2026-08-27T18:27:37Z</time>
  <course>11.53</course>
  <speed>0.03605551275463989</speed>
  <fix>3d</fix>
</trkpt>
<trkpt lat="40.072842" lon="-105.230575">
  <ele>1586.09</ele>
  <time>2026-08-27T18:27:37Z</time>
  <course>266.03</course>
  <speed>0.0</speed>
  <fix>3d</fix>
</trkpt>
<trkpt lat="40.072842" lon="-105.230575">
  <ele>1586.09</ele>
  <time>2026-08-27T18:27:37Z</time>
  <course>11.52</course>
  <speed>0.03605551275463989</speed>
  <fix>3d</fix>
</trkpt>
<trkpt lat="40.072842" lon="-105.230575">
  <ele>1586.09</ele>
  <time>2026-08-27T18:27:37Z</time>
  <course>266.03</course>
  <speed>0.0</speed>
  <fix>3d</fix>
</trkpt>
<trkpt lat="40.072842" lon="-105.230575">
  <ele>1586.09</ele>
  <time>2026-08-27T18:27:37Z</time>
  <course>11.52</course>
  <speed>0.03605551275463989</speed>
  <fix>3d</fix>
</trkpt>
<trkpt lat="40.072842" lon="-105.230575">
  <ele>1586.09</ele>
  <time>2026-08-27T18:27:37Z</time>
  <course>266.03</course>
  <speed>0.0</speed>
  <fix>3d</fix>
</trkpt>
<trkpt lat="40.072842" lon="-105.230575">
  <ele>1586.09</ele>
  <time>2026-08-27T18:27:37Z</time>
  <course>11.51</course>
  <speed>0.03605551275463989</speed>
  <fix>3d</fix>
</trkpt>
<trkpt lat="40.072842" lon="-105.230575">
  <ele>1586.09</ele>
  <time>2026-08-27T18:27:37Z</time>
  <course>266.03</course>
  <speed>0.0</speed>
  <fix>3d</fix>
</trkpt>
<trkpt lat="40.072842" lon="-105.230575">
  <ele>1586.09</ele>
  <time>2026-08-27T18:27:37Z</time>
  <course>11.5</course>
  <speed>0.03605551275463989</speed>
  <fix>3d</fix>
</trkpt>
<trkpt lat="40.072842" lon="-105.230575">
  <ele>1586.09</ele>
  <time>2026-08-27T18:27:37Z</time>
  <course>266.03</course>
  <speed>0.0</speed>
  <fix>3d</fix>
</trkpt>
<trkpt lat="40.072842" lon="-105.230575">
  <ele>1586.09</ele>
  <time>2026-08-27T18:27:37Z</time>
  <course>11.5</course>
  <speed>0.03605551275463989</speed>
  <fix>3d</fix>
</trkpt>
<trkpt lat="40.072842" lon="-105.230575">
  <ele>1586.09</ele>
  <time>2026-08-27T18:27:37Z</time>
  <course>266.03</course>
  <speed>0.0</speed>
  <fix>3d</fix>
</trkpt>
<trkpt lat="40.072842" lon="-105.230575">
  <ele>1586.09</ele>
  <time>2026-08-27T18:27:37Z</time>
  <course>11.49</course>
  <speed>0.044721359549995794</speed>
  <fix>3d</fix>
</trkpt>
<trkpt lat="40.072842" lon="-105.230575">
  <ele>1586.09</ele>
  <time>2026-08-27T18:27:37Z</time>
  <course>266.03</course>
  <speed>0.0</speed>
  <fix>3d</fix>
</trkpt>
<trkpt lat="40.072842" lon="-105.230575">
  <ele>1586.09</ele>
  <time>2026-08-27T18:27:37Z</time>
  <course>11.49</course>
  <speed>0.044721359549995794</speed>
  <fix>3d</fix>
</trkpt>
<trkpt lat="40.072842" lon="-105.230575">
  <ele>1586.09</ele>
  <time>2026-08-27T18:27:37Z</time>
  <course>266.03</course>
  <speed>0.0</speed>
  <fix>3d</fix>
</trkpt>
<trkpt lat="40.072842" lon="-105.230575">
  <ele>1586.09</ele>
  <time>2026-08-27T18:27:37Z</time>
  <course>11.48</course>
  <speed>0.044721359549995794</speed>
  <fix>3d</fix>
</trkpt>
<trkpt lat="40.072842" lon="-105.230575">
  <ele>1586.09</ele>
  <time>2026-08-27T18:27:37Z</time>
  <course>266.03</course>
  <speed>0.0</speed>
  <fix>3d</fix>
</trkpt>
<trkpt lat="40.072842" lon="-105.230575">
  <ele>1586.09</ele>
  <time>2026-08-27T18:27:37Z</time>
  <course>11.48</course>
  <speed>0.044721359549995794</speed>
  <fix>3d</fix>
</trkpt>
<trkpt lat="40.072842" lon="-105.230575">
  <ele>1586.09</ele>
  <time>2026-08-27T18:27:37Z</time>
  <course>266.03</course>
  <speed>0.0</speed>
  <fix>3d</fix>
</trkpt>
<trkpt lat="40.072842" lon="-105.230575">
  <ele>1586.09</ele>
  <time>2026-08-27T18:27:37Z</time>
  <course>11.47</course>
  <speed>0.044721359549995794</speed>
  <fix>3d</fix>
</trkpt>
<trkpt lat="40.072842" lon="-105.230575">
  <ele>1586.09</ele>
  <time>2026-08-27T18:27:37Z</time>
  <course>266.03</course>
  <speed>0.0</speed>
  <fix>3d</fix>
</trkpt>
<trkpt lat="40.072842" lon="-105.230575">
  <ele>1586.09</ele>
  <time>2026-08-27T18:27:37Z</time>
  <course>11.47</course>
  <speed>0.044721359549995794</speed>
  <fix>3d</fix>
</trkpt>
<trkpt lat="40.072842" lon="-105.230575">
  <ele>1586.09</ele>
  <time>2026-08-27T18:27:37Z</time>
  <course>266.03</course>
  <speed>0.0</speed>
  <fix>3d</fix>
</trkpt>
<trkpt lat="40.072842" lon="-105.230575">
  <ele>1586.09</ele>
  <time>2026-08-27T18:27:37Z</time>
  <course>11.46</course>
  <speed>0.044721359549995794</speed>
  <fix>3d</fix>
</trkpt>
<trkpt lat="40.072842" lon="-105.230575">
  <ele>1586.09</ele>
  <time>2026-08-27T18:27:37Z</time>
  <course>266.03</course>
  <speed>0.0</speed>
  <fix>3d</fix>
</trkpt>
<trkpt lat="40.072842" lon="-105.230575">
  <ele>1586.09</ele>
  <time>2026-08-27T18:27:37Z</time>
  <course>11.46</course>
  <speed>0.044721359549995794</speed>
  <fix>3d</fix>
</trkpt>
<trkpt lat="40.072842" lon="-105.230575">
  <ele>1586.09</ele>
  <time>2026-08-27T18:27:37Z</time>
  <course>266.03</course>
  <speed>0.0</speed>
  <fix>3d</fix>
</trkpt>
<trkpt lat="40.072842" lon="-105.230575">
  <ele>1586.15</ele>
  <time>2026-08-27T18:27:37Z</time>
  <course>11.45</course>
  <speed>0.0</speed>
  <fix>3d</fix>
</trkpt>
<trkpt lat="40.072842" lon="-105.230575">
  <ele>1586.09</ele>
  <time>2026-08-27T18:27:37Z</time>
  <course>266.03</course>
  <speed>0.0</speed>
  <fix>3d</fix>
</trkpt>
<trkpt lat="40.072842" lon="-105.230575">
  <ele>1586.15</ele>
  <time>2026-08-27T18:27:37Z</time>
  <course>11.45</course>
  <speed>0.0</speed>
  <fix>3d</fix>
</trkpt>
<trkpt lat="40.072842" lon="-105.230575">
  <ele>1586.09</ele>
  <time>2026-08-27T18:27:37Z</time>
  <course>266.03</course>
  <speed>0.0</speed>
  <fix>3d</fix>
</trkpt>
<trkpt lat="40.072842" lon="-105.230575">
  <ele>1586.14</ele>
  <time>2026-08-27T18:27:37Z</time>
  <course>11.44</course>
  <speed>0.0</speed>
  <fix>3d</fix>
</trkpt>
<trkpt lat="40.072842" lon="-105.230575">
  <ele>1586.09</ele>
  <time>2026-08-27T18:27:37Z</time>
  <course>281.49</course>
  <speed>0.0</speed>
  <fix>3d</fix>
</trkpt>
<trkpt lat="40.072842" lon="-105.230575">
  <ele>1586.14</ele>
  <time>2026-08-27T18:27:38Z</time>
  <course>11.44</course>
  <speed>0.0</speed>
  <fix>3d</fix>
</trkpt>
<trkpt lat="40.072842" lon="-105.230575">
  <ele>1586.09</ele>
  <time>2026-08-27T18:27:38Z</time>
  <course>269.42</course>
  <speed>0.0</speed>
  <fix>3d</fix>
</trkpt>
<trkpt lat="40.072842" lon="-105.230575">
  <ele>1586.14</ele>
  <time>2026-08-27T18:27:38Z</time>
  <course>11.43</course>
  <speed>0.0</speed>
  <fix>3d</fix>
</trkpt>
<trkpt lat="40.072842" lon="-105.230575">
  <ele>1586.09</ele>
  <time>2026-08-27T18:27:38Z</time>
  <course>211.84</course>
  <speed>0.0</speed>
  <fix>3d</fix>
</trkpt>
<trkpt lat="40.072842" lon="-105.230575">
  <ele>1586.14</ele>
  <time>2026-08-27T18:27:38Z</time>
  <course>11.43</course>
  <speed>0.01</speed>
  <fix>3d</fix>
</trkpt>
<trkpt lat="40.072842" lon="-105.230575">
  <ele>1586.09</ele>
  <time>2026-08-27T18:27:38Z</time>
  <course>76.8</course>
  <speed>0.0</speed>
  <fix>3d</fix>
</trkpt>
<trkpt lat="40.072842" lon="-105.230575">
  <ele>1586.14</ele>
  <time>2026-08-27T18:27:38Z</time>
  <course>11.42</course>
  <speed>0.01</speed>
  <fix>3d</fix>
</trkpt>
<trkpt lat="40.072842" lon="-105.230575">
  <ele>1586.09</ele>
  <time>2026-08-27T18:27:38Z</time>
  <course>283.66</course>
  <speed>0.0</speed>
  <fix>3d</fix>
</trkpt>
<trkpt lat="40.072842" lon="-105.230575">
  <ele>1586.14</ele>
  <time>2026-08-27T18:27:38Z</time>
  <course>11.42</course>
  <speed>0.01</speed>
  <fix>3d</fix>
</trkpt>
<trkpt lat="40.072842" lon="-105.230575">
  <ele>1586.09</ele>
  <time>2026-08-27T18:27:38Z</time>
  <course>262.24</course>
  <speed>0.0</speed>
  <fix>3d</fix>
</trkpt>
<trkpt lat="40.072842" lon="-105.230575">
  <ele>1586.14</ele>
  <time>2026-08-27T18:27:38Z</time>
  <course>11.42</course>
  <speed>0.01414213562373095</speed>
  <fix>3d</fix>
</trkpt>
<trkpt lat="40.072842" lon="-105.230575">
  <ele>1586.09</ele>
  <time>2026-08-27T18:27:38Z</time>
  <course>263.53</course>
  <speed>0.0</speed>
  <fix>3d</fix>
</trkpt>
<trkpt lat="40.072842" lon="-105.230575">
  <ele>1586.14</ele>
  <time>2026-08-27T18:27:38Z</time>
  <course>11.41</course>
  <speed>0.01414213562373095</speed>
  <fix>3d</fix>
</trkpt>
<trkpt lat="40.072842" lon="-105.230575">
  <ele>1586.09</ele>
  <time>2026-08-27T18:27:38Z</time>
  <course>267.07</course>
  <speed>0.0</speed>
  <fix>3d</fix>
</trkpt>
<trkpt lat="40.072842" lon="-105.230575">
  <ele>1586.15</ele>
  <time>2026-08-27T18:27:38Z</time>
  <course>11.41</course>
  <speed>0.01414213562373095</speed>
  <fix>3d</fix>
</trkpt>
<trkpt lat="40.072842" lon="-105.230575">
  <ele>1586.09</ele>
  <time>2026-08-27T18:27:38Z</time>
  <course>266.23</course>
  <speed>0.0</speed>
  <fix>3d</fix>
</trkpt>
<trkpt lat="40.072842" lon="-105.230575">
  <ele>1586.15</ele>
  <time>2026-08-27T18:27:38Z</time>
  <course>11.4</course>
  <speed>0.022360679774997897</speed>
  <fix>3d</fix>
</trkpt>
<trkpt lat="40.072842" lon="-105.230575">
  <ele>1586.09</ele>
  <time>2026-08-27T18:27:38Z</time>
  <course>265.88</course>
  <speed>0.0</speed>
  <fix>3d</fix>
</trkpt>
<trkpt lat="40.072842" lon="-105.230575">
  <ele>1586.15</ele>
  <time>2026-08-27T18:27:38Z</time>
  <course>11.39</course>
  <speed>0.022360679774997897</speed>
  <fix>3d</fix>
</trkpt>
<trkpt lat="40.072842" lon="-105.230575">
  <ele>1586.09</ele>
  <time>2026-08-27T18:27:38Z</time>
  <course>256.24</course>
  <speed>0.0</speed>
  <fix>3d</fix>
</trkpt>
<trkpt lat="40.072842" lon="-105.230575">
  <ele>1586.15</ele>
  <time>2026-08-27T18:27:38Z</time>
  <course>11.36</course>
  <speed>0.022360679774997897</speed>
  <fix>3d</fix>
</trkpt>
<trkpt lat="40.072842" lon="-105.230575">
  <ele>1586.09</ele>
  <time>2026-08-27T18:27:38Z</time>
  <course>259.13</course>
  <speed>0.0</speed>
  <fix>3d</fix>
</trkpt>
<trkpt lat="40.072842" lon="-105.230575">
  <ele>1586.16</ele>
  <time>2026-08-27T18:27:38Z</time>
  <course>11.32</course>
  <speed>0.022360679774997897</speed>
  <fix>3d</fix>
</trkpt>
<trkpt lat="40.072842" lon="-105.230575">
  <ele>1586.09</ele>
  <time>2026-08-27T18:27:38Z</time>
  <course>264.56</course>
  <speed>0.0</speed>
  <fix>3d</fix>
</trkpt>
<trkpt lat="40.072842" lon="-105.230575">
  <ele>1586.16</ele>
  <time>2026-08-27T18:27:38Z</time>
  <course>11.28</course>
  <speed>0.01414213562373095</speed>
  <fix>3d</fix>
</trkpt>
<trkpt lat="40.072842" lon="-105.230575">
  <ele>1586.09</ele>
  <time>2026-08-27T18:27:38Z</time>
  <course>262.49</course>
  <speed>0.0</speed>
  <fix>3d</fix>
</trkpt>
<trkpt lat="40.072842" lon="-105.230575">
  <ele>1586.16</ele>
  <time>2026-08-27T18:27:38Z</time>
  <course>11.25</course>
  <speed>0.01414213562373095</speed>
  <fix>3d</fix>
</trkpt>
<trkpt lat="40.072842" lon="-105.230575">
  <ele>1586.09</ele>
  <time>2026-08-27T18:27:38Z</time>
  <course>264.22</course>
  <speed>0.0</speed>
  <fix>3d</fix>
</trkpt>
<trkpt lat="40.072842" lon="-105.230575">
  <ele>1586.16</ele>
  <time>2026-08-27T18:27:38Z</time>
  <course>11.21</course>
  <speed>0.01</speed>
  <fix>3d</fix>
</trkpt>
<trkpt lat="40.072842" lon="-105.230575">
  <ele>1586.09</ele>
  <time>2026-08-27T18:27:38Z</time>
  <course>264.15</course>
  <speed>0.0</speed>
  <fix>3d</fix>
</trkpt>
<trkpt lat="40.072842" lon="-105.230575">
  <ele>1586.16</ele>
  <time>2026-08-27T18:27:38Z</time>
  <course>11.18</course>
  <speed>0.0</speed>
  <fix>3d</fix>
</trkpt>
<trkpt lat="40.072842" lon="-105.230575">
  <ele>1586.09</ele>
  <time>2026-08-27T18:27:38Z</time>
  <course>263.89</course>
  <speed>0.0</speed>
  <fix>3d</fix>
</trkpt>
<trkpt lat="40.072842" lon="-105.230575">
  <ele>1586.16</ele>
  <time>2026-08-27T18:27:38Z</time>
  <course>11.14</course>
  <speed>0.0</speed>
  <fix>3d</fix>
</trkpt>
<trkpt lat="40.072842" lon="-105.230575">
  <ele>1586.09</ele>
  <time>2026-08-27T18:27:38Z</time>
  <course>263.89</course>
  <speed>0.0</speed>
  <fix>3d</fix>
</trkpt>
<trkpt lat="40.072842" lon="-105.230575">
  <ele>1586.16</ele>
  <time>2026-08-27T18:27:38Z</time>
  <course>11.1</course>
  <speed>0.0</speed>
  <fix>3d</fix>
</trkpt>
<trkpt lat="40.072842" lon="-105.230575">
  <ele>1586.09</ele>
  <time>2026-08-27T18:27:38Z</time>
  <course>263.89</course>
  <speed>0.0</speed>
  <fix>3d</fix>
</trkpt>
<trkpt lat="40.072842" lon="-105.230575">
  <ele>1586.16</ele>
  <time>2026-08-27T18:27:38Z</time>
  <course>11.07</course>
  <speed>0.0</speed>
  <fix>3d</fix>
</trkpt>
<trkpt lat="40.072842" lon="-105.230575">
  <ele>1586.09</ele>
  <time>2026-08-27T18:27:38Z</time>
  <course>339.28</course>
  <speed>0.0</speed>
  <fix>3d</fix>
</trkpt>
<trkpt lat="40.072842" lon="-105.230575">
  <ele>1586.16</ele>
  <time>2026-08-27T18:27:38Z</time>
  <course>11.03</course>
  <speed>0.0</speed>
  <fix>3d</fix>
</trkpt>
<trkpt lat="40.072842" lon="-105.230575">
  <ele>1586.09</ele>
  <time>2026-08-27T18:27:38Z</time>
  <course>326.94</course>
  <speed>0.0</speed>
  <fix>3d</fix>
</trkpt>
<trkpt lat="40.072842" lon="-105.230575">
  <ele>1586.16</ele>
  <time>2026-08-27T18:27:38Z</time>
  <course>11.0</course>
  <speed>0.0</speed>
  <fix>3d</fix>
</trkpt>
<trkpt lat="40.072842" lon="-105.230575">
  <ele>1586.09</ele>
  <time>2026-08-27T18:27:38Z</time>
  <course>269.9</course>
  <speed>0.0</speed>
  <fix>3d</fix>
</trkpt>
<trkpt lat="40.072842" lon="-105.230575">
  <ele>1586.16</ele>
  <time>2026-08-27T18:27:38Z</time>
  <course>10.96</course>
  <speed>0.0</speed>
  <fix>3d</fix>
</trkpt>
<trkpt lat="40.072842" lon="-105.230575">
  <ele>1586.09</ele>
  <time>2026-08-27T18:27:38Z</time>
  <course>158.21</course>
  <speed>0.0</speed>
  <fix>3d</fix>
</trkpt>
<trkpt lat="40.072842" lon="-105.230575">
  <ele>1586.16</ele>
  <time>2026-08-27T18:27:38Z</time>
  <course>10.92</course>
  <speed>0.0</speed>
  <fix>3d</fix>
</trkpt>
<trkpt lat="40.072842" lon="-105.230575">
  <ele>1586.09</ele>
  <time>2026-08-27T18:27:38Z</time>
  <course>303.68</course>
  <speed>0.0</speed>
  <fix>3d</fix>
</trkpt>
<trkpt lat="40.072842" lon="-105.230575">
  <ele>1586.16</ele>
  <time>2026-08-27T18:27:38Z</time>
  <course>10.89</course>
  <speed>0.0</speed>
  <fix>3d</fix>
</trkpt>
<trkpt lat="40.072842" lon="-105.230575">
  <ele>1586.09</ele>
  <time>2026-08-27T18:27:38Z</time>
  <course>301.03</course>
  <speed>0.0</speed>
  <fix>3d</fix>
</trkpt>
<trkpt lat="40.072842" lon="-105.230575">
  <ele>1586.16</ele>
  <time>2026-08-27T18:27:38Z</time>
  <course>10.85</course>
  <speed>0.0</speed>
  <fix>3d</fix>
</trkpt>
<trkpt lat="40.072842" lon="-105.230575">
  <ele>1586.09</ele>
  <time>2026-08-27T18:27:38Z</time>
  <course>267.06</course>
  <speed>0.0</speed>
  <fix>3d</fix>
</trkpt>
<trkpt lat="40.072842" lon="-105.230575">
  <ele>1586.16</ele>
  <time>2026-08-27T18:27:38Z</time>
  <course>10.81</course>
  <speed>0.0</speed>
  <fix>3d</fix>
</trkpt>
<trkpt lat="40.072842" lon="-105.230575">
  <ele>1586.09</ele>
  <time>2026-08-27T18:27:38Z</time>
  <course>250.63</course>
  <speed>0.0</speed>
  <fix>3d</fix>
</trkpt>
<trkpt lat="40.072842" lon="-105.230575">
  <ele>1586.16</ele>
  <time>2026-08-27T18:27:38Z</time>
  <course>10.77</course>
  <speed>0.0</speed>
  <fix>3d</fix>
</trkpt>
<trkpt lat="40.072842" lon="-105.230575">
  <ele>1586.09</ele>
  <time>2026-08-27T18:27:38Z</time>
  <course>221.96</course>
  <speed>0.0</speed>
  <fix>3d</fix>
</trkpt>
<trkpt lat="40.072842" lon="-105.230575">
  <ele>1586.16</ele>
  <time>2026-08-27T18:27:38Z</time>
  <course>10.73</course>
  <speed>0.0</speed>
  <fix>3d</fix>
</trkpt>
<trkpt lat="40.072842" lon="-105.230575">
  <ele>1586.09</ele>
  <time>2026-08-27T18:27:38Z</time>
  <course>312.25</course>
  <speed>0.0</speed>
  <fix>3d</fix>
</trkpt>
<trkpt lat="40.072842" lon="-105.230575">
  <ele>1586.16</ele>
  <time>2026-08-27T18:27:38Z</time>
  <course>10.69</course>
  <speed>0.0</speed>
  <fix>3d</fix>
</trkpt>
<trkpt lat="40.072842" lon="-105.230575">
  <ele>1586.09</ele>
  <time>2026-08-27T18:27:38Z</time>
  <course>300.11</course>
  <speed>0.0</speed>
  <fix>3d</fix>
</trkpt>
<trkpt lat="40.072842" lon="-105.230575">
  <ele>1586.16</ele>
  <time>2026-08-27T18:27:38Z</time>
  <course>10.65</course>
  <speed>0.0</speed>
  <fix>3d</fix>
</trkpt>
<trkpt lat="40.072842" lon="-105.230575">
  <ele>1586.09</ele>
  <time>2026-08-27T18:27:38Z</time>
  <course>273.46</course>
  <speed>0.0</speed>
  <fix>3d</fix>
</trkpt>
<trkpt lat="40.072842" lon="-105.230575">
  <ele>1586.16</ele>
  <time>2026-08-27T18:27:38Z</time>
  <course>10.61</course>
  <speed>0.0</speed>
  <fix>3d</fix>
</trkpt>
<trkpt lat="40.072842" lon="-105.230575">
  <ele>1586.09</ele>
  <time>2026-08-27T18:27:38Z</time>
  <course>269.56</course>
  <speed>0.0</speed>
  <fix>3d</fix>
</trkpt>
<trkpt lat="40.072842" lon="-105.230575">
  <ele>1586.16</ele>
  <time>2026-08-27T18:27:38Z</time>
  <course>10.57</course>
  <speed>0.0</speed>
  <fix>3d</fix>
</trkpt>
<trkpt lat="40.072842" lon="-105.230575">
  <ele>1586.09</ele>
  <time>2026-08-27T18:27:38Z</time>
  <course>261.29</course>
  <speed>0.0</speed>
  <fix>3d</fix>
</trkpt>
<trkpt lat="40.072842" lon="-105.230575">
  <ele>1586.16</ele>
  <time>2026-08-27T18:27:38Z</time>
  <course>10.53</course>
  <speed>0.0</speed>
  <fix>3d</fix>
</trkpt>
<trkpt lat="40.072842" lon="-105.230575">
  <ele>1586.09</ele>
  <time>2026-08-27T18:27:38Z</time>
  <course>271.94</course>
  <speed>0.0</speed>
  <fix>3d</fix>
</trkpt>
<trkpt lat="40.072842" lon="-105.230575">
  <ele>1586.16</ele>
  <time>2026-08-27T18:27:38Z</time>
  <course>10.49</course>
  <speed>0.0</speed>
  <fix>3d</fix>
</trkpt>
<trkpt lat="40.072842" lon="-105.230575">
  <ele>1586.09</ele>
  <time>2026-08-27T18:27:38Z</time>
  <course>296.0</course>
  <speed>0.0</speed>
  <fix>3d</fix>
</trkpt>
<trkpt lat="40.072842" lon="-105.230575">
  <ele>1586.16</ele>
  <time>2026-08-27T18:27:38Z</time>
  <course>10.45</course>
  <speed>0.0</speed>
  <fix>3d</fix>
</trkpt>
<trkpt lat="40.072842" lon="-105.230575">
  <ele>1586.09</ele>
  <time>2026-08-27T18:27:38Z</time>
  <course>298.29</course>
  <speed>0.0</speed>
  <fix>3d</fix>
</trkpt>
<trkpt lat="40.072842" lon="-105.230575">
  <ele>1586.16</ele>
  <time>2026-08-27T18:27:38Z</time>
  <course>10.41</course>
  <speed>0.0</speed>
  <fix>3d</fix>
</trkpt>
<trkpt lat="40.072842" lon="-105.230575">
  <ele>1586.09</ele>
  <time>2026-08-27T18:27:38Z</time>
  <course>270.65</course>
  <speed>0.0</speed>
  <fix>3d</fix>
</trkpt>
<trkpt lat="40.072842" lon="-105.230575">
  <ele>1586.16</ele>
  <time>2026-08-27T18:27:38Z</time>
  <course>10.37</course>
  <speed>0.0</speed>
  <fix>3d</fix>
</trkpt>
<trkpt lat="40.072842" lon="-105.230575">
  <ele>1586.09</ele>
  <time>2026-08-27T18:27:38Z</time>
  <course>259.01</course>
  <speed>0.0</speed>
  <fix>3d</fix>
</trkpt>
<trkpt lat="40.072842" lon="-105.230575">
  <ele>1586.17</ele>
  <time>2026-08-27T18:27:38Z</time>
  <course>10.33</course>
  <speed>0.0</speed>
  <fix>3d</fix>
</trkpt>
<trkpt lat="40.072842" lon="-105.230575">
  <ele>1586.09</ele>
  <time>2026-08-27T18:27:38Z</time>
  <course>270.35</course>
  <speed>0.0</speed>
  <fix>3d</fix>
</trkpt>
<trkpt lat="40.072842" lon="-105.230575">
  <ele>1586.17</ele>
  <time>2026-08-27T18:27:38Z</time>
  <course>10.29</course>
  <speed>0.01</speed>
  <fix>3d</fix>
</trkpt>
<trkpt lat="40.072842" lon="-105.230575">
  <ele>1586.09</ele>
  <time>2026-08-27T18:27:38Z</time>
  <course>271.65</course>
  <speed>0.0</speed>
  <fix>3d</fix>
</trkpt>
<trkpt lat="40.072842" lon="-105.230575">
  <ele>1586.17</ele>
  <time>2026-08-27T18:27:38Z</time>
  <course>10.25</course>
  <speed>0.01</speed>
  <fix>3d</fix>
</trkpt>
<trkpt lat="40.072842" lon="-105.230575">
  <ele>1586.09</ele>
  <time>2026-08-27T18:27:38Z</time>
  <course>289.08</course>
  <speed>0.0</speed>
  <fix>3d</fix>
</trkpt>
<trkpt lat="40.072842" lon="-105.230575">
  <ele>1586.18</ele>
  <time>2026-08-27T18:27:38Z</time>
  <course>10.21</course>
  <speed>0.01</speed>
  <fix>3d</fix>
</trkpt>
<trkpt lat="40.072842" lon="-105.230575">
  <ele>1586.09</ele>
  <time>2026-08-27T18:27:38Z</time>
  <course>284.13</course>
  <speed>0.0</speed>
  <fix>3d</fix>
</trkpt>
<trkpt lat="40.072842" lon="-105.230575">
  <ele>1586.18</ele>
  <time>2026-08-27T18:27:38Z</time>
  <course>10.17</course>
  <speed>0.01</speed>
  <fix>3d</fix>
</trkpt>
<trkpt lat="40.072842" lon="-105.230575">
  <ele>1586.09</ele>
  <time>2026-08-27T18:27:38Z</time>
  <course>237.11</course>
  <speed>0.0</speed>
  <fix>3d</fix>
</trkpt>
<trkpt lat="40.072842" lon="-105.230575">
  <ele>1586.18</ele>
  <time>2026-08-27T18:27:38Z</time>
  <course>10.12</course>
  <speed>0.01</speed>
  <fix>3d</fix>
</trkpt>
<trkpt lat="40.072842" lon="-105.230575">
  <ele>1586.09</ele>
  <time>2026-08-27T18:27:38Z</time>
  <course>240.05</course>
  <speed>0.0</speed>
  <fix>3d</fix>
</trkpt>
<trkpt lat="40.072842" lon="-105.230575">
  <ele>1586.18</ele>
  <time>2026-08-27T18:27:38Z</time>
  <course>10.08</course>
  <speed>0.01414213562373095</speed>
  <fix>3d</fix>
</trkpt>
<trkpt lat="40.072842" lon="-105.230575">
  <ele>1586.09</ele>
  <time>2026-08-27T18:27:38Z</time>
  <course>275.92</course>
  <speed>0.0</speed>
  <fix>3d</fix>
</trkpt>
<trkpt lat="40.072842" lon="-105.230575">
  <ele>1586.18</ele>
  <time>2026-08-27T18:27:38Z</time>
  <course>10.04</course>
  <speed>0.01414213562373095</speed>
  <fix>3d</fix>
</trkpt>
<trkpt lat="40.072842" lon="-105.230575">
  <ele>1586.09</ele>
  <time>2026-08-27T18:27:38Z</time>
  <course>275.39</course>
  <speed>0.0</speed>
  <fix>3d</fix>
</trkpt>
<trkpt lat="40.072842" lon="-105.230575">
  <ele>1586.18</ele>
  <time>2026-08-27T18:27:38Z</time>
  <course>10.0</course>
  <speed>0.01414213562373095</speed>
  <fix>3d</fix>
</trkpt>
<trkpt lat="40.072842" lon="-105.230575">
  <ele>1586.09</ele>
  <time>2026-08-27T18:27:38Z</time>
  <course>277.97</course>
  <speed>0.0</speed>
  <fix>3d</fix>
</trkpt>
<trkpt lat="40.072842" lon="-105.230575">
  <ele>1586.18</ele>
  <time>2026-08-27T18:27:38Z</time>
  <course>9.96</course>
  <speed>0.01414213562373095</speed>
  <fix>3d</fix>
</trkpt>
<trkpt lat="40.072842" lon="-105.230575">
  <ele>1586.09</ele>
  <time>2026-08-27T18:27:38Z</time>
  <course>276.14</course>
  <speed>0.0</speed>
  <fix>3d</fix>
</trkpt>
<trkpt lat="40.072842" lon="-105.230575">
  <ele>1586.18</ele>
  <time>2026-08-27T18:27:38Z</time>
  <course>9.91</course>
  <speed>0.01414213562373095</speed>
  <fix>3d</fix>
</trkpt>
<trkpt lat="40.072842" lon="-105.230575">
  <ele>1586.09</ele>
  <time>2026-08-27T18:27:38Z</time>
  <course>265.98</course>
  <speed>0.0</speed>
  <fix>3d</fix>
</trkpt>
<trkpt lat="40.0728419" lon="-105.230575">
  <ele>1586.18</ele>
  <time>2026-08-27T18:27:38Z</time>
  <course>9.87</course>
  <speed>0.01414213562373095</speed>
  <fix>3d</fix>
</trkpt>
<trkpt lat="40.072842" lon="-105.230575">
  <ele>1586.09</ele>
  <time>2026-08-27T18:27:38Z</time>
  <course>269.74</course>
  <speed>0.0</speed>
  <fix>3d</fix>
</trkpt>
<trkpt lat="40.0728419" lon="-105.230575">
  <ele>1586.18</ele>
  <time>2026-08-27T18:27:38Z</time>
  <course>9.83</course>
  <speed>0.01414213562373095</speed>
  <fix>3d</fix>
</trkpt>
<trkpt lat="40.072842" lon="-105.230575">
  <ele>1586.09</ele>
  <time>2026-08-27T18:27:38Z</time>
  <course>267.76</course>
  <speed>0.0</speed>
  <fix>3d</fix>
</trkpt>
<trkpt lat="40.0728419" lon="-105.2305749">
  <ele>1586.17</ele>
  <time>2026-08-27T18:27:38Z</time>
  <course>9.79</course>
  <speed>0.022360679774997897</speed>
  <fix>3d</fix>
</trkpt>
<trkpt lat="40.072842" lon="-105.230575">
  <ele>1586.09</ele>
  <time>2026-08-27T18:27:38Z</time>
  <course>280.73</course>
  <speed>0.0</speed>
  <fix>3d</fix>
</trkpt>
<trkpt lat="40.0728419" lon="-105.2305749">
  <ele>1586.17</ele>
  <time>2026-08-27T18:27:38Z</time>
  <course>9.74</course>
  <speed>0.022360679774997897</speed>
  <fix>3d</fix>
</trkpt>
<trkpt lat="40.072842" lon="-105.230575">
  <ele>1586.09</ele>
  <time>2026-08-27T18:27:38Z</time>
  <course>285.69</course>
  <speed>0.0</speed>
  <fix>3d</fix>
</trkpt>
<trkpt lat="40.0728419" lon="-105.2305749">
  <ele>1586.17</ele>
  <time>2026-08-27T18:27:38Z</time>
  <course>9.7</course>
  <speed>0.022360679774997897</speed>
  <fix>3d</fix>
</trkpt>
<trkpt lat="40.072842" lon="-105.230575">
  <ele>1586.09</ele>
  <time>2026-08-27T18:27:38Z</time>
  <course>269.33</course>
  <speed>0.0</speed>
  <fix>3d</fix>
</trkpt>
<trkpt lat="40.0728419" lon="-105.2305749">
  <ele>1586.17</ele>
  <time>2026-08-27T18:27:38Z</time>
  <course>9.66</course>
  <speed>0.022360679774997897</speed>
  <fix>3d</fix>
</trkpt>
<trkpt lat="40.072842" lon="-105.230575">
  <ele>1586.09</ele>
  <time>2026-08-27T18:27:38Z</time>
  <course>267.87</course>
  <speed>0.0</speed>
  <fix>3d</fix>
</trkpt>
<trkpt lat="40.0728419" lon="-105.2305749">
  <ele>1586.17</ele>
  <time>2026-08-27T18:27:38Z</time>
  <course>9.61</course>
  <speed>0.022360679774997897</speed>
  <fix>3d</fix>
</trkpt>
<trkpt lat="40.072842" lon="-105.230575">
  <ele>1586.09</ele>
  <time>2026-08-27T18:27:38Z</time>
  <course>267.91</course>
  <speed>0.0</speed>
  <fix>3d</fix>
</trkpt>
<trkpt lat="40.0728419" lon="-105.2305749">
  <ele>1586.17</ele>
  <time>2026-08-27T18:27:38Z</time>
  <course>9.57</course>
  <speed>0.022360679774997897</speed>
  <fix>3d</fix>
</trkpt>
<trkpt lat="40.072842" lon="-105.230575">
  <ele>1586.09</ele>
  <time>2026-08-27T18:27:38Z</time>
  <course>265.59</course>
  <speed>0.0</speed>
  <fix>3d</fix>
</trkpt>
<trkpt lat="40.0728419" lon="-105.2305749">
  <ele>1586.18</ele>
  <time>2026-08-27T18:27:38Z</time>
  <course>9.53</course>
  <speed>0.022360679774997897</speed>
  <fix>3d</fix>
</trkpt>
<trkpt lat="40.072842" lon="-105.230575">
  <ele>1586.09</ele>
  <time>2026-08-27T18:27:38Z</time>
  <course>283.62</course>
  <speed>0.0</speed>
  <fix>3d</fix>
</trkpt>
<trkpt lat="40.0728419" lon="-105.2305749">
  <ele>1586.18</ele>
  <time>2026-08-27T18:27:38Z</time>
  <course>9.49</course>
  <speed>0.022360679774997897</speed>
  <fix>3d</fix>
</trkpt>
<trkpt lat="40.072842" lon="-105.230575">
  <ele>1586.09</ele>
  <time>2026-08-27T18:27:38Z</time>
  <course>284.18</course>
  <speed>0.0</speed>
  <fix>3d</fix>
</trkpt>
<trkpt lat="40.0728419" lon="-105.2305749">
  <ele>1586.18</ele>
  <time>2026-08-27T18:27:38Z</time>
  <course>9.44</course>
  <speed>0.022360679774997897</speed>
  <fix>3d</fix>
</trkpt>
<trkpt lat="40.072842" lon="-105.230575">
  <ele>1586.09</ele>
  <time>2026-08-27T18:27:38Z</time>
  <course>267.25</course>
  <speed>0.0</speed>
  <fix>3d</fix>
</trkpt>
<trkpt lat="40.0728419" lon="-105.2305749">
  <ele>1586.18</ele>
  <time>2026-08-27T18:27:38Z</time>
  <course>9.4</course>
  <speed>0.022360679774997897</speed>
  <fix>3d</fix>
</trkpt>
<trkpt lat="40.072842" lon="-105.230575">
  <ele>1586.09</ele>
  <time>2026-08-27T18:27:38Z</time>
  <course>268.07</course>
  <speed>0.0</speed>
  <fix>3d</fix>
</trkpt>
<trkpt lat="40.0728419" lon="-105.2305749">
  <ele>1586.18</ele>
  <time>2026-08-27T18:27:38Z</time>
  <course>9.35</course>
  <speed>0.022360679774997897</speed>
  <fix>3d</fix>
</trkpt>
<trkpt lat="40.072842" lon="-105.230575">
  <ele>1586.09</ele>
  <time>2026-08-27T18:27:38Z</time>
  <course>267.91</course>
  <speed>0.0</speed>
  <fix>3d</fix>
</trkpt>
<trkpt lat="40.0728419" lon="-105.2305749">
  <ele>1586.18</ele>
  <time>2026-08-27T18:27:38Z</time>
  <course>9.31</course>
  <speed>0.022360679774997897</speed>
  <fix>3d</fix>
</trkpt>
<trkpt lat="40.072842" lon="-105.230575">
  <ele>1586.09</ele>
  <time>2026-08-27T18:27:38Z</time>
  <course>267.42</course>
  <speed>0.0</speed>
  <fix>3d</fix>
</trkpt>
<trkpt lat="40.0728419" lon="-105.2305749">
  <ele>1586.18</ele>
  <time>2026-08-27T18:27:38Z</time>
  <course>9.27</course>
  <speed>0.022360679774997897</speed>
  <fix>3d</fix>
</trkpt>
<trkpt lat="40.072842" lon="-105.230575">
  <ele>1586.09</ele>
  <time>2026-08-27T18:27:38Z</time>
  <course>276.09</course>
  <speed>0.0</speed>
  <fix>3d</fix>
</trkpt>
<trkpt lat="40.0728419" lon="-105.2305749">
  <ele>1586.18</ele>
  <time>2026-08-27T18:27:38Z</time>
  <course>9.22</course>
  <speed>0.022360679774997897</speed>
  <fix>3d</fix>
</trkpt>
<trkpt lat="40.072842" lon="-105.230575">
  <ele>1586.09</ele>
  <time>2026-08-27T18:27:38Z</time>
  <course>278.87</course>
  <speed>0.0</speed>
  <fix>3d</fix>
</trkpt>
<trkpt lat="40.0728419" lon="-105.2305749">
  <ele>1586.18</ele>
  <time>2026-08-27T18:27:38Z</time>
  <course>9.18</course>
  <speed>0.022360679774997897</speed>
  <fix>3d</fix>
</trkpt>
<trkpt lat="40.072842" lon="-105.230575">
  <ele>1586.09</ele>
  <time>2026-08-27T18:27:38Z</time>
  <course>272.85</course>
  <speed>0.0</speed>
  <fix>3d</fix>
</trkpt>
<trkpt lat="40.0728419" lon="-105.2305749">
  <ele>1586.18</ele>
  <time>2026-08-27T18:27:38Z</time>
  <course>9.14</course>
  <speed>0.022360679774997897</speed>
  <fix>3d</fix>
</trkpt>
<trkpt lat="40.072842" lon="-105.230575">
  <ele>1586.09</ele>
  <time>2026-08-27T18:27:38Z</time>
  <course>265.78</course>
  <speed>0.0</speed>
  <fix>3d</fix>
</trkpt>
<trkpt lat="40.0728419" lon="-105.2305749">
  <ele>1586.18</ele>
  <time>2026-08-27T18:27:38Z</time>
  <course>9.09</course>
  <speed>0.022360679774997897</speed>
  <fix>3d</fix>
</trkpt>
<trkpt lat="40.072842" lon="-105.230575">
  <ele>1586.09</ele>
  <time>2026-08-27T18:27:38Z</time>
  <course>266.62</course>
  <speed>0.0</speed>
  <fix>3d</fix>
</trkpt>
<trkpt lat="40.0728419" lon="-105.2305749">
  <ele>1586.18</ele>
  <time>2026-08-27T18:27:38Z</time>
  <course>9.05</course>
  <speed>0.022360679774997897</speed>
  <fix>3d</fix>
</trkpt>
<trkpt lat="40.072842" lon="-105.230575">
  <ele>1586.09</ele>
  <time>2026-08-27T18:27:38Z</time>
  <course>267.95</course>
  <speed>0.0</speed>
  <fix>3d</fix>
</trkpt>
<trkpt lat="40.0728419" lon="-105.2305749">
  <ele>1586.18</ele>
  <time>2026-08-27T18:27:38Z</time>
  <course>9.01</course>
  <speed>0.022360679774997897</speed>
  <fix>3d</fix>
</trkpt>
<trkpt lat="40.072842" lon="-105.230575">
  <ele>1586.09</ele>
  <time>2026-08-27T18:27:38Z</time>
  <course>269.06</course>
  <speed>0.0</speed>
  <fix>3d</fix>
</trkpt>
<trkpt lat="40.0728419" lon="-105.2305749">
  <ele>1586.18</ele>
  <time>2026-08-27T18:27:38Z</time>
  <course>8.96</course>
  <speed>0.022360679774997897</speed>
  <fix>3d</fix>
</trkpt>
<trkpt lat="40.072842" lon="-105.230575">
  <ele>1586.09</ele>
  <time>2026-08-27T18:27:38Z</time>
  <course>269.02</course>
  <speed>0.0</speed>
  <fix>3d</fix>
</trkpt>
<trkpt lat="40.0728419" lon="-105.2305749">
  <ele>1586.18</ele>
  <time>2026-08-27T18:27:38Z</time>
  <course>8.92</course>
  <speed>0.022360679774997897</speed>
  <fix>3d</fix>
</trkpt>
<trkpt lat="40.072842" lon="-105.230575">
  <ele>1586.09</ele>
  <time>2026-08-27T18:27:38Z</time>
  <course>276.85</course>
  <speed>0.0</speed>
  <fix>3d</fix>
</trkpt>
<trkpt lat="40.0728419" lon="-105.2305749">
  <ele>1586.18</ele>
  <time>2026-08-27T18:27:38Z</time>
  <course>8.88</course>
  <speed>0.022360679774997897</speed>
  <fix>3d</fix>
</trkpt>
<trkpt lat="40.072842" lon="-105.230575">
  <ele>1586.09</ele>
  <time>2026-08-27T18:27:38Z</time>
  <course>281.75</course>
  <speed>0.0</speed>
  <fix>3d</fix>
</trkpt>
<trkpt lat="40.0728419" lon="-105.2305749">
  <ele>1586.18</ele>
  <time>2026-08-27T18:27:38Z</time>
  <course>8.84</course>
  <speed>0.022360679774997897</speed>
  <fix>3d</fix>
</trkpt>
<trkpt lat="40.072842" lon="-105.230575">
  <ele>1586.09</ele>
  <time>2026-08-27T18:27:38Z</time>
  <course>266.43</course>
  <speed>0.0</speed>
  <fix>3d</fix>
</trkpt>
<trkpt lat="40.0728419" lon="-105.2305749">
  <ele>1586.18</ele>
  <time>2026-08-27T18:27:38Z</time>
  <course>8.8</course>
  <speed>0.022360679774997897</speed>
  <fix>3d</fix>
</trkpt>
<trkpt lat="40.072842" lon="-105.230575">
  <ele>1586.09</ele>
  <time>2026-08-27T18:27:38Z</time>
  <course>264.43</course>
  <speed>0.0</speed>
  <fix>3d</fix>
</trkpt>
<trkpt lat="40.0728419" lon="-105.2305749">
  <ele>1586.18</ele>
  <time>2026-08-27T18:27:38Z</time>
  <course>8.75</course>
  <speed>0.022360679774997897</speed>
  <fix>3d</fix>
</trkpt>
<trkpt lat="40.072842" lon="-105.230575">
  <ele>1586.09</ele>
  <time>2026-08-27T18:27:38Z</time>
  <course>269.67</course>
  <speed>0.0</speed>
  <fix>3d</fix>
</trkpt>
<trkpt lat="40.0728419" lon="-105.2305749">
  <ele>1586.18</ele>
  <time>2026-08-27T18:27:38Z</time>
  <course>8.71</course>
  <speed>0.022360679774997897</speed>
  <fix>3d</fix>
</trkpt>
<trkpt lat="40.072842" lon="-105.230575">
  <ele>1586.09</ele>
  <time>2026-08-27T18:27:38Z</time>
  <course>269.18</course>
  <speed>0.0</speed>
  <fix>3d</fix>
</trkpt>
<trkpt lat="40.0728419" lon="-105.2305749">
  <ele>1586.18</ele>
  <time>2026-08-27T18:27:38Z</time>
  <course>8.67</course>
  <speed>0.022360679774997897</speed>
  <fix>3d</fix>
</trkpt>
<trkpt lat="40.072842" lon="-105.230575">
  <ele>1586.09</ele>
  <time>2026-08-27T18:27:38Z</time>
  <course>268.66</course>
  <speed>0.0</speed>
  <fix>3d</fix>
</trkpt>
<trkpt lat="40.0728419" lon="-105.2305749">
  <ele>1586.18</ele>
  <time>2026-08-27T18:27:38Z</time>
  <course>8.63</course>
  <speed>0.022360679774997897</speed>
  <fix>3d</fix>
</trkpt>
<trkpt lat="40.072842" lon="-105.230575">
  <ele>1586.09</ele>
  <time>2026-08-27T18:27:38Z</time>
  <course>268.53</course>
  <speed>0.0</speed>
  <fix>3d</fix>
</trkpt>
<trkpt lat="40.0728419" lon="-105.2305749">
  <ele>1586.17</ele>
  <time>2026-08-27T18:27:38Z</time>
  <course>8.59</course>
  <speed>0.022360679774997897</speed>
  <fix>3d</fix>
</trkpt>
<trkpt lat="40.072842" lon="-105.230575">
  <ele>1586.09</ele>
  <time>2026-08-27T18:27:38Z</time>
  <course>283.41</course>
  <speed>0.0</speed>
  <fix>3d</fix>
</trkpt>
<trkpt lat="40.0728419" lon="-105.2305749">
  <ele>1586.17</ele>
  <time>2026-08-27T18:27:38Z</time>
  <course>8.55</course>
  <speed>0.022360679774997897</speed>
  <fix>3d</fix>
</trkpt>
<trkpt lat="40.072842" lon="-105.230575">
  <ele>1586.09</ele>
  <time>2026-08-27T18:27:38Z</time>
  <course>274.64</course>
  <speed>0.0</speed>
  <fix>3d</fix>
</trkpt>
<trkpt lat="40.0728419" lon="-105.2305749">
  <ele>1586.17</ele>
  <time>2026-08-27T18:27:38Z</time>
  <course>8.51</course>
  <speed>0.022360679774997897</speed>
  <fix>3d</fix>
</trkpt>
<trkpt lat="40.072842" lon="-105.230575">
  <ele>1586.09</ele>
  <time>2026-08-27T18:27:38Z</time>
  <course>263.66</course>
  <speed>0.0</speed>
  <fix>3d</fix>
</trkpt>
<trkpt lat="40.0728419" lon="-105.2305749">
  <ele>1586.17</ele>
  <time>2026-08-27T18:27:38Z</time>
  <course>8.48</course>
  <speed>0.022360679774997897</speed>
  <fix>3d</fix>
</trkpt>
<trkpt lat="40.072842" lon="-105.230575">
  <ele>1586.09</ele>
  <time>2026-08-27T18:27:38Z</time>
  <course>267.29</course>
  <speed>0.0</speed>
  <fix>3d</fix>
</trkpt>
<trkpt lat="40.0728419" lon="-105.2305749">
  <ele>1586.17</ele>
  <time>2026-08-27T18:27:38Z</time>
  <course>8.44</course>
  <speed>0.022360679774997897</speed>
  <fix>3d</fix>
</trkpt>
<trkpt lat="40.072842" lon="-105.230575">
  <ele>1586.09</ele>
  <time>2026-08-27T18:27:38Z</time>
  <course>269.67</course>
  <speed>0.0</speed>
  <fix>3d</fix>
</trkpt>
<trkpt lat="40.0728419" lon="-105.2305749">
  <ele>1586.17</ele>
  <time>2026-08-27T18:27:38Z</time>
  <course>8.4</course>
  <speed>0.022360679774997897</speed>
  <fix>3d</fix>
</trkpt>
<trkpt lat="40.072842" lon="-105.230575">
  <ele>1586.09</ele>
  <time>2026-08-27T18:27:38Z</time>
  <course>269.28</course>
  <speed>0.0</speed>
  <fix>3d</fix>
</trkpt>
<trkpt lat="40.0728419" lon="-105.2305749">
  <ele>1586.18</ele>
  <time>2026-08-27T18:27:38Z</time>
  <course>8.36</course>
  <speed>0.022360679774997897</speed>
  <fix>3d</fix>
</trkpt>
<trkpt lat="40.072842" lon="-105.230575">
  <ele>1586.09</ele>
  <time>2026-08-27T18:27:38Z</time>
  <course>268.56</course>
  <speed>0.0</speed>
  <fix>3d</fix>
</trkpt>
<trkpt lat="40.0728419" lon="-105.2305749">
  <ele>1586.18</ele>
  <time>2026-08-27T18:27:38Z</time>
  <course>8.32</course>
  <speed>0.022360679774997897</speed>
  <fix>3d</fix>
</trkpt>
<trkpt lat="40.072842" lon="-105.230575">
  <ele>1586.09</ele>
  <time>2026-08-27T18:27:38Z</time>
  <course>265.01</course>
  <speed>0.0</speed>
  <fix>3d</fix>
</trkpt>
<trkpt lat="40.0728419" lon="-105.2305749">
  <ele>1586.18</ele>
  <time>2026-08-27T18:27:38Z</time>
  <course>8.29</course>
  <speed>0.022360679774997897</speed>
  <fix>3d</fix>
</trkpt>
<trkpt lat="40.072842" lon="-105.230575">
  <ele>1586.09</ele>
  <time>2026-08-27T18:27:38Z</time>
  <course>254.96</course>
  <speed>0.0</speed>
  <fix>3d</fix>
</trkpt>
<trkpt lat="40.0728419" lon="-105.2305749">
  <ele>1586.18</ele>
  <time>2026-08-27T18:27:38Z</time>
  <course>8.25</course>
  <speed>0.022360679774997897</speed>
  <fix>3d</fix>
</trkpt>
<trkpt lat="40.072842" lon="-105.230575">
  <ele>1586.09</ele>
  <time>2026-08-27T18:27:38Z</time>
  <course>270.36</course>
  <speed>0.0</speed>
  <fix>3d</fix>
</trkpt>
<trkpt lat="40.0728419" lon="-105.2305749">
  <ele>1586.18</ele>
  <time>2026-08-27T18:27:38Z</time>
  <course>8.21</course>
  <speed>0.022360679774997897</speed>
  <fix>3d</fix>
</trkpt>
<trkpt lat="40.072842" lon="-105.230575">
  <ele>1586.09</ele>
  <time>2026-08-27T18:27:38Z</time>
  <course>276.08</course>
  <speed>0.0</speed>
  <fix>3d</fix>
</trkpt>
<trkpt lat="40.0728419" lon="-105.2305749">
  <ele>1586.18</ele>
  <time>2026-08-27T18:27:38Z</time>
  <course>8.18</course>
  <speed>0.022360679774997897</speed>
  <fix>3d</fix>
</trkpt>
<trkpt lat="40.072842" lon="-105.230575">
  <ele>1586.09</ele>
  <time>2026-08-27T18:27:38Z</time>
  <course>265.2</course>
  <speed>0.0</speed>
  <fix>3d</fix>
</trkpt>
<trkpt lat="40.0728419" lon="-105.2305749">
  <ele>1586.19</ele>
  <time>2026-08-27T18:27:38Z</time>
  <course>8.14</course>
  <speed>0.022360679774997897</speed>
  <fix>3d</fix>
</trkpt>
<trkpt lat="40.072842" lon="-105.230575">
  <ele>1586.09</ele>
  <time>2026-08-27T18:27:38Z</time>
  <course>267.51</course>
  <speed>0.0</speed>
  <fix>3d</fix>
</trkpt>
<trkpt lat="40.0728419" lon="-105.2305749">
  <ele>1586.19</ele>
  <time>2026-08-27T18:27:38Z</time>
  <course>8.1</course>
  <speed>0.022360679774997897</speed>
  <fix>3d</fix>
</trkpt>
<trkpt lat="40.072842" lon="-105.230575">
  <ele>1586.09</ele>
  <time>2026-08-27T18:27:38Z</time>
  <course>269.18</course>
  <speed>0.0</speed>
  <fix>3d</fix>
</trkpt>
<trkpt lat="40.0728419" lon="-105.2305749">
  <ele>1586.19</ele>
  <time>2026-08-27T18:27:38Z</time>
  <course>8.07</course>
  <speed>0.022360679774997897</speed>
  <fix>3d</fix>
</trkpt>
<trkpt lat="40.072842" lon="-105.230575">
  <ele>1586.09</ele>
  <time>2026-08-27T18:27:38Z</time>
  <course>268.33</course>
  <speed>0.0</speed>
  <fix>3d</fix>
</trkpt>
<trkpt lat="40.0728419" lon="-105.2305749">
  <ele>1586.19</ele>
  <time>2026-08-27T18:27:38Z</time>
  <course>8.03</course>
  <speed>0.022360679774997897</speed>
  <fix>3d</fix>
</trkpt>
<trkpt lat="40.072842" lon="-105.230575">
  <ele>1586.09</ele>
  <time>2026-08-27T18:27:38Z</time>
  <course>267.98</course>
  <speed>0.0</speed>
  <fix>3d</fix>
</trkpt>
<trkpt lat="40.0728419" lon="-105.2305749">
  <ele>1586.19</ele>
  <time>2026-08-27T18:27:38Z</time>
  <course>8.0</course>
  <speed>0.022360679774997897</speed>
  <fix>3d</fix>
</trkpt>
<trkpt lat="40.072842" lon="-105.230575">
  <ele>1586.09</ele>
  <time>2026-08-27T18:27:38Z</time>
  <course>268.67</course>
  <speed>0.0</speed>
  <fix>3d</fix>
</trkpt>
<trkpt lat="40.0728419" lon="-105.2305749">
  <ele>1586.19</ele>
  <time>2026-08-27T18:27:38Z</time>
  <course>7.97</course>
  <speed>0.01414213562373095</speed>
  <fix>3d</fix>
</trkpt>
<trkpt lat="40.072842" lon="-105.230575">
  <ele>1586.09</ele>
  <time>2026-08-27T18:27:38Z</time>
  <course>270.84</course>
  <speed>0.0</speed>
  <fix>3d</fix>
</trkpt>
<trkpt lat="40.0728419" lon="-105.2305749">
  <ele>1586.18</ele>
  <time>2026-08-27T18:27:38Z</time>
  <course>7.93</course>
  <speed>0.01414213562373095</speed>
  <fix>3d</fix>
</trkpt>
<trkpt lat="40.072842" lon="-105.230575">
  <ele>1586.09</ele>
  <time>2026-08-27T18:27:38Z</time>
  <course>267.83</course>
  <speed>0.0</speed>
  <fix>3d</fix>
</trkpt>
<trkpt lat="40.0728419" lon="-105.2305749">
  <ele>1586.18</ele>
  <time>2026-08-27T18:27:38Z</time>
  <course>7.9</course>
  <speed>0.01414213562373095</speed>
  <fix>3d</fix>
</trkpt>
<trkpt lat="40.072842" lon="-105.230575">
  <ele>1586.09</ele>
  <time>2026-08-27T18:27:38Z</time>
  <course>273.43</course>
  <speed>0.0</speed>
  <fix>3d</fix>
</trkpt>
<trkpt lat="40.0728419" lon="-105.2305749">
  <ele>1586.18</ele>
  <time>2026-08-27T18:27:38Z</time>
  <course>7.87</course>
  <speed>0.01414213562373095</speed>
  <fix>3d</fix>
</trkpt>
<trkpt lat="40.072842" lon="-105.230575">
  <ele>1586.09</ele>
  <time>2026-08-27T18:27:38Z</time>
  <course>275.19</course>
  <speed>0.0</speed>
  <fix>3d</fix>
</trkpt>
<trkpt lat="40.0728419" lon="-105.2305749">
  <ele>1586.18</ele>
  <time>2026-08-27T18:27:38Z</time>
  <course>7.84</course>
  <speed>0.01414213562373095</speed>
  <fix>3d</fix>
</trkpt>
<trkpt lat="40.072842" lon="-105.230575">
  <ele>1586.09</ele>
  <time>2026-08-27T18:27:38Z</time>
  <course>266.54</course>
  <speed>0.0</speed>
  <fix>3d</fix>
</trkpt>
<trkpt lat="40.0728419" lon="-105.2305749">
  <ele>1586.18</ele>
  <time>2026-08-27T18:27:38Z</time>
  <course>7.81</course>
  <speed>0.01414213562373095</speed>
  <fix>3d</fix>
</trkpt>
<trkpt lat="40.072842" lon="-105.230575">
  <ele>1586.09</ele>
  <time>2026-08-27T18:27:38Z</time>
  <course>266.97</course>
  <speed>0.0</speed>
  <fix>3d</fix>
</trkpt>
<trkpt lat="40.0728419" lon="-105.2305749">
  <ele>1586.18</ele>
  <time>2026-08-27T18:27:38Z</time>
  <course>7.78</course>
  <speed>0.01414213562373095</speed>
  <fix>3d</fix>
</trkpt>
<trkpt lat="40.072842" lon="-105.230575">
  <ele>1586.09</ele>
  <time>2026-08-27T18:27:38Z</time>
  <course>267.95</course>
  <speed>0.0</speed>
  <fix>3d</fix>
</trkpt>
<trkpt lat="40.0728419" lon="-105.2305749">
  <ele>1586.18</ele>
  <time>2026-08-27T18:27:38Z</time>
  <course>7.75</course>
  <speed>0.01414213562373095</speed>
  <fix>3d</fix>
</trkpt>
<trkpt lat="40.072842" lon="-105.230575">
  <ele>1586.09</ele>
  <time>2026-08-27T18:27:38Z</time>
  <course>267.69</course>
  <speed>0.0</speed>
  <fix>3d</fix>
</trkpt>
<trkpt lat="40.0728419" lon="-105.2305749">
  <ele>1586.18</ele>
  <time>2026-08-27T18:27:38Z</time>
  <course>7.73</course>
  <speed>0.01414213562373095</speed>
  <fix>3d</fix>
</trkpt>
<trkpt lat="40.072842" lon="-105.230575">
  <ele>1586.09</ele>
  <time>2026-08-27T18:27:38Z</time>
  <course>267.53</course>
  <speed>0.0</speed>
  <fix>3d</fix>
</trkpt>
<trkpt lat="40.0728419" lon="-105.2305749">
  <ele>1586.18</ele>
  <time>2026-08-27T18:27:38Z</time>
  <course>7.7</course>
  <speed>0.01414213562373095</speed>
  <fix>3d</fix>
</trkpt>
<trkpt lat="40.072842" lon="-105.230575">
  <ele>1586.09</ele>
  <time>2026-08-27T18:27:38Z</time>
  <course>267.53</course>
  <speed>0.0</speed>
  <fix>3d</fix>
</trkpt>
<trkpt lat="40.0728419" lon="-105.2305749">
  <ele>1586.19</ele>
  <time>2026-08-27T18:27:38Z</time>
  <course>7.68</course>
  <speed>0.01414213562373095</speed>
  <fix>3d</fix>
</trkpt>
<trkpt lat="40.072842" lon="-105.230575">
  <ele>1586.09</ele>
  <time>2026-08-27T18:27:38Z</time>
  <course>267.55</course>
  <speed>0.0</speed>
  <fix>3d</fix>
</trkpt>
<trkpt lat="40.0728419" lon="-105.2305749">
  <ele>1586.19</ele>
  <time>2026-08-27T18:27:38Z</time>
  <course>7.65</course>
  <speed>0.01414213562373095</speed>
  <fix>3d</fix>
</trkpt>
<trkpt lat="40.072842" lon="-105.230575">
  <ele>1586.09</ele>
  <time>2026-08-27T18:27:38Z</time>
  <course>266.52</course>
  <speed>0.0</speed>
  <fix>3d</fix>
</trkpt>
<trkpt lat="40.0728419" lon="-105.2305749">
  <ele>1586.19</ele>
  <time>2026-08-27T18:27:38Z</time>
  <course>7.63</course>
  <speed>0.01414213562373095</speed>
  <fix>3d</fix>
</trkpt>
<trkpt lat="40.072842" lon="-105.230575">
  <ele>1586.09</ele>
  <time>2026-08-27T18:27:38Z</time>
  <course>266.6</course>
  <speed>0.0</speed>
  <fix>3d</fix>
</trkpt>
<trkpt lat="40.0728419" lon="-105.2305749">
  <ele>1586.19</ele>
  <time>2026-08-27T18:27:38Z</time>
  <course>7.61</course>
  <speed>0.01414213562373095</speed>
  <fix>3d</fix>
</trkpt>
<trkpt lat="40.072842" lon="-105.230575">
  <ele>1586.09</ele>
  <time>2026-08-27T18:27:38Z</time>
  <course>275.62</course>
  <speed>0.0</speed>
  <fix>3d</fix>
</trkpt>
<trkpt lat="40.0728419" lon="-105.2305749">
  <ele>1586.19</ele>
  <time>2026-08-27T18:27:38Z</time>
  <course>7.58</course>
  <speed>0.01414213562373095</speed>
  <fix>3d</fix>
</trkpt>
<trkpt lat="40.072842" lon="-105.230575">
  <ele>1586.09</ele>
  <time>2026-08-27T18:27:38Z</time>
  <course>275.47</course>
  <speed>0.0</speed>
  <fix>3d</fix>
</trkpt>
<trkpt lat="40.0728419" lon="-105.2305749">
  <ele>1586.19</ele>
  <time>2026-08-27T18:27:38Z</time>
  <course>7.56</course>
  <speed>0.01414213562373095</speed>
  <fix>3d</fix>
</trkpt>
<trkpt lat="40.072842" lon="-105.230575">
  <ele>1586.09</ele>
  <time>2026-08-27T18:27:38Z</time>
  <course>266.49</course>
  <speed>0.0</speed>
  <fix>3d</fix>
</trkpt>
<trkpt lat="40.0728419" lon="-105.2305749">
  <ele>1586.19</ele>
  <time>2026-08-27T18:27:38Z</time>
  <course>7.54</course>
  <speed>0.01414213562373095</speed>
  <fix>3d</fix>
</trkpt>
<trkpt lat="40.072842" lon="-105.230575">
  <ele>1586.09</ele>
  <time>2026-08-27T18:27:38Z</time>
  <course>266.95</course>
  <speed>0.0</speed>
  <fix>3d</fix>
</trkpt>
<trkpt lat="40.0728419" lon="-105.2305749">
  <ele>1586.19</ele>
  <time>2026-08-27T18:27:38Z</time>
  <course>7.53</course>
  <speed>0.01414213562373095</speed>
  <fix>3d</fix>
</trkpt>
<trkpt lat="40.072842" lon="-105.230575">
  <ele>1586.09</ele>
  <time>2026-08-27T18:27:38Z</time>
  <course>267.92</course>
  <speed>0.0</speed>
  <fix>3d</fix>
</trkpt>
<trkpt lat="40.0728419" lon="-105.2305749">
  <ele>1586.19</ele>
  <time>2026-08-27T18:27:38Z</time>
  <course>7.51</course>
  <speed>0.01414213562373095</speed>
  <fix>3d</fix>
</trkpt>
<trkpt lat="40.072842" lon="-105.230575">
  <ele>1586.09</ele>
  <time>2026-08-27T18:27:38Z</time>
  <course>267.69</course>
  <speed>0.0</speed>
  <fix>3d</fix>
</trkpt>
<trkpt lat="40.0728419" lon="-105.2305749">
  <ele>1586.19</ele>
  <time>2026-08-27T18:27:38Z</time>
  <course>7.49</course>
  <speed>0.01414213562373095</speed>
  <fix>3d</fix>
</trkpt>
<trkpt lat="40.072842" lon="-105.230575">
  <ele>1586.09</ele>
  <time>2026-08-27T18:27:38Z</time>
  <course>267.59</course>
  <speed>0.0</speed>
  <fix>3d</fix>
</trkpt>
<trkpt lat="40.0728419" lon="-105.2305749">
  <ele>1586.19</ele>
  <time>2026-08-27T18:27:38Z</time>
  <course>7.48</course>
  <speed>0.01414213562373095</speed>
  <fix>3d</fix>
</trkpt>
<trkpt lat="40.072842" lon="-105.230575">
  <ele>1586.09</ele>
  <time>2026-08-27T18:27:38Z</time>
  <course>268.56</course>
  <speed>0.0</speed>
  <fix>3d</fix>
</trkpt>
<trkpt lat="40.0728419" lon="-105.2305749">
  <ele>1586.18</ele>
  <time>2026-08-27T18:27:38Z</time>
  <course>7.46</course>
  <speed>0.01414213562373095</speed>
  <fix>3d</fix>
</trkpt>
<trkpt lat="40.072842" lon="-105.230575">
  <ele>1586.09</ele>
  <time>2026-08-27T18:27:38Z</time>
  <course>267.37</course>
  <speed>0.0</speed>
  <fix>3d</fix>
</trkpt>
<trkpt lat="40.0728419" lon="-105.2305749">
  <ele>1586.18</ele>
  <time>2026-08-27T18:27:38Z</time>
  <course>7.45</course>
  <speed>0.01414213562373095</speed>
  <fix>3d</fix>
</trkpt>
<trkpt lat="40.072842" lon="-105.230575">
  <ele>1586.09</ele>
  <time>2026-08-27T18:27:38Z</time>
  <course>266.39</course>
  <speed>0.0</speed>
  <fix>3d</fix>
</trkpt>
<trkpt lat="40.0728419" lon="-105.2305749">
  <ele>1586.18</ele>
  <time>2026-08-27T18:27:38Z</time>
  <course>7.43</course>
  <speed>0.01414213562373095</speed>
  <fix>3d</fix>
</trkpt>
<trkpt lat="40.072842" lon="-105.230575">
  <ele>1586.09</ele>
  <time>2026-08-27T18:27:38Z</time>
  <course>268.21</course>
  <speed>0.0</speed>
  <fix>3d</fix>
</trkpt>
<trkpt lat="40.0728419" lon="-105.2305749">
  <ele>1586.18</ele>
  <time>2026-08-27T18:27:38Z</time>
  <course>7.42</course>
  <speed>0.01414213562373095</speed>
  <fix>3d</fix>
</trkpt>
<trkpt lat="40.072842" lon="-105.230575">
  <ele>1586.09</ele>
  <time>2026-08-27T18:27:38Z</time>
  <course>267.85</course>
  <speed>0.0</speed>
  <fix>3d</fix>
</trkpt>
<trkpt lat="40.0728419" lon="-105.2305749">
  <ele>1586.18</ele>
  <time>2026-08-27T18:27:38Z</time>
  <course>7.41</course>
  <speed>0.01414213562373095</speed>
  <fix>3d</fix>
</trkpt>
<trkpt lat="40.072842" lon="-105.230575">
  <ele>1586.09</ele>
  <time>2026-08-27T18:27:38Z</time>
  <course>273.8</course>
  <speed>0.0</speed>
  <fix>3d</fix>
</trkpt>
<trkpt lat="40.0728419" lon="-105.2305749">
  <ele>1586.18</ele>
  <time>2026-08-27T18:27:38Z</time>
  <course>7.4</course>
  <speed>0.01414213562373095</speed>
  <fix>3d</fix>
</trkpt>
<trkpt lat="40.072842" lon="-105.230575">
  <ele>1586.09</ele>
  <time>2026-08-27T18:27:38Z</time>
  <course>273.77</course>
  <speed>0.0</speed>
  <fix>3d</fix>
</trkpt>
<trkpt lat="40.0728419" lon="-105.2305749">
  <ele>1586.18</ele>
  <time>2026-08-27T18:27:38Z</time>
  <course>7.39</course>
  <speed>0.01414213562373095</speed>
  <fix>3d</fix>
</trkpt>
<trkpt lat="40.072842" lon="-105.230575">
  <ele>1586.09</ele>
  <time>2026-08-27T18:27:38Z</time>
  <course>267.05</course>
  <speed>0.0</speed>
  <fix>3d</fix>
</trkpt>
<trkpt lat="40.0728419" lon="-105.2305749">
  <ele>1586.18</ele>
  <time>2026-08-27T18:27:38Z</time>
  <course>7.38</course>
  <speed>0.01414213562373095</speed>
  <fix>3d</fix>
</trkpt>
<trkpt lat="40.072842" lon="-105.230575">
  <ele>1586.09</ele>
  <time>2026-08-27T18:27:38Z</time>
  <course>267.14</course>
  <speed>0.0</speed>
  <fix>3d</fix>
</trkpt>
<trkpt lat="40.0728419" lon="-105.2305749">
  <ele>1586.17</ele>
  <time>2026-08-27T18:27:38Z</time>
  <course>7.37</course>
  <speed>0.01414213562373095</speed>
  <fix>3d</fix>
</trkpt>
<trkpt lat="40.072842" lon="-105.230575">
  <ele>1586.09</ele>
  <time>2026-08-27T18:27:38Z</time>
  <course>268.32</course>
  <speed>0.0</speed>
  <fix>3d</fix>
</trkpt>
<trkpt lat="40.0728419" lon="-105.2305749">
  <ele>1586.17</ele>
  <time>2026-08-27T18:27:38Z</time>
  <course>7.36</course>
  <speed>0.01414213562373095</speed>
  <fix>3d</fix>
</trkpt>
<trkpt lat="40.072842" lon="-105.230575">
  <ele>1586.09</ele>
  <time>2026-08-27T18:27:38Z</time>
  <course>267.95</course>
  <speed>0.0</speed>
  <fix>3d</fix>
</trkpt>
<trkpt lat="40.0728419" lon="-105.2305749">
  <ele>1586.17</ele>
  <time>2026-08-27T18:27:38Z</time>
  <course>7.35</course>
  <speed>0.01414213562373095</speed>
  <fix>3d</fix>
</trkpt>
<trkpt lat="40.072842" lon="-105.230575">
  <ele>1586.09</ele>
  <time>2026-08-27T18:27:38Z</time>
  <course>268.62</course>
  <speed>0.0</speed>
  <fix>3d</fix>
</trkpt>
<trkpt lat="40.0728419" lon="-105.2305749">
  <ele>1586.17</ele>
  <time>2026-08-27T18:27:38Z</time>
  <course>7.35</course>
  <speed>0.01414213562373095</speed>
  <fix>3d</fix>
</trkpt>
<trkpt lat="40.072842" lon="-105.230575">
  <ele>1586.09</ele>
  <time>2026-08-27T18:27:38Z</time>
  <course>267.56</course>
  <speed>0.0</speed>
  <fix>3d</fix>
</trkpt>
<trkpt lat="40.0728419" lon="-105.2305749">
  <ele>1586.17</ele>
  <time>2026-08-27T18:27:38Z</time>
  <course>7.34</course>
  <speed>0.01414213562373095</speed>
  <fix>3d</fix>
</trkpt>
<trkpt lat="40.072842" lon="-105.230575">
  <ele>1586.09</ele>
  <time>2026-08-27T18:27:38Z</time>
  <course>266.73</course>
  <speed>0.0</speed>
  <fix>3d</fix>
</trkpt>
<trkpt lat="40.0728419" lon="-105.2305749">
  <ele>1586.17</ele>
  <time>2026-08-27T18:27:38Z</time>
  <course>7.34</course>
  <speed>0.01414213562373095</speed>
  <fix>3d</fix>
</trkpt>
<trkpt lat="40.072842" lon="-105.230575">
  <ele>1586.09</ele>
  <time>2026-08-27T18:27:38Z</time>
  <course>268.42</course>
  <speed>0.0</speed>
  <fix>3d</fix>
</trkpt>
<trkpt lat="40.0728419" lon="-105.2305749">
  <ele>1586.17</ele>
  <time>2026-08-27T18:27:38Z</time>
  <course>7.33</course>
  <speed>0.01414213562373095</speed>
  <fix>3d</fix>
</trkpt>
<trkpt lat="40.072842" lon="-105.230575">
  <ele>1586.09</ele>
  <time>2026-08-27T18:27:38Z</time>
  <course>268.0</course>
  <speed>0.0</speed>
  <fix>3d</fix>
</trkpt>
<trkpt lat="40.0728419" lon="-105.2305749">
  <ele>1586.17</ele>
  <time>2026-08-27T18:27:38Z</time>
  <course>7.33</course>
  <speed>0.01414213562373095</speed>
  <fix>3d</fix>
</trkpt>
<trkpt lat="40.072842" lon="-105.230575">
  <ele>1586.09</ele>
  <time>2026-08-27T18:27:38Z</time>
  <course>267.83</course>
  <speed>0.0</speed>
  <fix>3d</fix>
</trkpt>
<trkpt lat="40.0728419" lon="-105.2305749">
  <ele>1586.17</ele>
  <time>2026-08-27T18:27:38Z</time>
  <course>7.33</course>
  <speed>0.01414213562373095</speed>
  <fix>3d</fix>
</trkpt>
<trkpt lat="40.072842" lon="-105.230575">
  <ele>1586.09</ele>
  <time>2026-08-27T18:27:38Z</time>
  <course>268.19</course>
  <speed>0.0</speed>
  <fix>3d</fix>
</trkpt>
<trkpt lat="40.0728419" lon="-105.2305749">
  <ele>1586.17</ele>
  <time>2026-08-27T18:27:39Z</time>
  <course>7.32</course>
  <speed>0.01414213562373095</speed>
  <fix>3d</fix>
</trkpt>
<trkpt lat="40.072842" lon="-105.230575">
  <ele>1586.09</ele>
  <time>2026-08-27T18:27:39Z</time>
  <course>274.76</course>
  <speed>0.0</speed>
  <fix>3d</fix>
</trkpt>
<trkpt lat="40.0728419" lon="-105.2305749">
  <ele>1586.17</ele>
  <time>2026-08-27T18:27:39Z</time>
  <course>7.32</course>
  <speed>0.01414213562373095</speed>
  <fix>3d</fix>
</trkpt>
<trkpt lat="40.072842" lon="-105.230575">
  <ele>1586.09</ele>
  <time>2026-08-27T18:27:39Z</time>
  <course>274.54</course>
  <speed>0.0</speed>
  <fix>3d</fix>
</trkpt>
<trkpt lat="40.0728419" lon="-105.2305749">
  <ele>1586.17</ele>
  <time>2026-08-27T18:27:39Z</time>
  <course>7.32</course>
  <speed>0.01414213562373095</speed>
  <fix>3d</fix>
</trkpt>
<trkpt lat="40.072842" lon="-105.230575">
  <ele>1586.09</ele>
  <time>2026-08-27T18:27:39Z</time>
  <course>268.32</course>
  <speed>0.0</speed>
  <fix>3d</fix>
</trkpt>
<trkpt lat="40.0728419" lon="-105.2305749">
  <ele>1586.17</ele>
  <time>2026-08-27T18:27:39Z</time>
  <course>7.32</course>
  <speed>0.01414213562373095</speed>
  <fix>3d</fix>
</trkpt>
<trkpt lat="40.072842" lon="-105.230575">
  <ele>1586.09</ele>
  <time>2026-08-27T18:27:39Z</time>
  <course>267.25</course>
  <speed>0.0</speed>
  <fix>3d</fix>
</trkpt>
<trkpt lat="40.0728419" lon="-105.2305749">
  <ele>1586.17</ele>
  <time>2026-08-27T18:27:39Z</time>
  <course>7.33</course>
  <speed>0.01414213562373095</speed>
  <fix>3d</fix>
</trkpt>
<trkpt lat="40.072842" lon="-105.230575">
  <ele>1586.09</ele>
  <time>2026-08-27T18:27:39Z</time>
  <course>268.64</course>
  <speed>0.0</speed>
  <fix>3d</fix>
</trkpt>
<trkpt lat="40.0728419" lon="-105.2305749">
  <ele>1586.17</ele>
  <time>2026-08-27T18:27:39Z</time>
  <course>7.33</course>
  <speed>0.01414213562373095</speed>
  <fix>3d</fix>
</trkpt>
<trkpt lat="40.072842" lon="-105.230575">
  <ele>1586.09</ele>
  <time>2026-08-27T18:27:39Z</time>
  <course>268.72</course>
  <speed>0.0</speed>
  <fix>3d</fix>
</trkpt>
<trkpt lat="40.0728419" lon="-105.2305749">
  <ele>1586.17</ele>
  <time>2026-08-27T18:27:39Z</time>
  <course>7.33</course>
  <speed>0.01414213562373095</speed>
  <fix>3d</fix>
</trkpt>
<trkpt lat="40.072842" lon="-105.230575">
  <ele>1586.09</ele>
  <time>2026-08-27T18:27:39Z</time>
  <course>267.72</course>
  <speed>0.0</speed>
  <fix>3d</fix>
</trkpt>
<trkpt lat="40.0728419" lon="-105.2305749">
  <ele>1586.17</ele>
  <time>2026-08-27T18:27:39Z</time>
  <course>7.33</course>
  <speed>0.01414213562373095</speed>
  <fix>3d</fix>
</trkpt>
<trkpt lat="40.072842" lon="-105.230575">
  <ele>1586.09</ele>
  <time>2026-08-27T18:27:39Z</time>
  <course>267.51</course>
  <speed>0.0</speed>
  <fix>3d</fix>
</trkpt>
<trkpt lat="40.0728419" lon="-105.2305749">
  <ele>1586.17</ele>
  <time>2026-08-27T18:27:39Z</time>
  <course>7.34</course>
  <speed>0.01414213562373095</speed>
  <fix>3d</fix>
</trkpt>
<trkpt lat="40.072842" lon="-105.230575">
  <ele>1586.09</ele>
  <time>2026-08-27T18:27:39Z</time>
  <course>268.66</course>
  <speed>0.0</speed>
  <fix>3d</fix>
</trkpt>
<trkpt lat="40.0728419" lon="-105.2305749">
  <ele>1586.17</ele>
  <time>2026-08-27T18:27:39Z</time>
  <course>7.34</course>
  <speed>0.01414213562373095</speed>
  <fix>3d</fix>
</trkpt>
<trkpt lat="40.072842" lon="-105.230575">
  <ele>1586.09</ele>
  <time>2026-08-27T18:27:39Z</time>
  <course>268.43</course>
  <speed>0.0</speed>
  <fix>3d</fix>
</trkpt>
<trkpt lat="40.0728419" lon="-105.2305749">
  <ele>1586.17</ele>
  <time>2026-08-27T18:27:39Z</time>
  <course>7.35</course>
  <speed>0.01414213562373095</speed>
  <fix>3d</fix>
</trkpt>
<trkpt lat="40.072842" lon="-105.230575">
  <ele>1586.09</ele>
  <time>2026-08-27T18:27:39Z</time>
  <course>268.59</course>
  <speed>0.0</speed>
  <fix>3d</fix>
</trkpt>
<trkpt lat="40.0728419" lon="-105.2305749">
  <ele>1586.17</ele>
  <time>2026-08-27T18:27:39Z</time>
  <course>7.36</course>
  <speed>0.01414213562373095</speed>
  <fix>3d</fix>
</trkpt>
<trkpt lat="40.072842" lon="-105.230575">
  <ele>1586.09</ele>
  <time>2026-08-27T18:27:39Z</time>
  <course>268.55</course>
  <speed>0.0</speed>
  <fix>3d</fix>
</trkpt>
<trkpt lat="40.0728419" lon="-105.2305749">
  <ele>1586.17</ele>
  <time>2026-08-27T18:27:39Z</time>
  <course>7.36</course>
  <speed>0.01414213562373095</speed>
  <fix>3d</fix>
</trkpt>
<trkpt lat="40.072842" lon="-105.2305751">
  <ele>1586.09</ele>
  <time>2026-08-27T18:27:39Z</time>
  <course>268.57</course>
  <speed>0.0</speed>
  <fix>3d</fix>
</trkpt>
<trkpt lat="40.0728419" lon="-105.2305749">
  <ele>1586.17</ele>
  <time>2026-08-27T18:27:39Z</time>
  <course>7.37</course>
  <speed>0.01414213562373095</speed>
  <fix>3d</fix>
</trkpt>
<trkpt lat="40.072842" lon="-105.2305751">
  <ele>1586.09</ele>
  <time>2026-08-27T18:27:39Z</time>
  <course>268.8</course>
  <speed>0.0</speed>
  <fix>3d</fix>
</trkpt>
<trkpt lat="40.0728419" lon="-105.2305749">
  <ele>1586.17</ele>
  <time>2026-08-27T18:27:39Z</time>
  <course>7.38</course>
  <speed>0.01414213562373095</speed>
  <fix>3d</fix>
</trkpt>
<trkpt lat="40.072842" lon="-105.2305751">
  <ele>1586.09</ele>
  <time>2026-08-27T18:27:39Z</time>
  <course>268.56</course>
  <speed>0.0</speed>
  <fix>3d</fix>
</trkpt>
<trkpt lat="40.0728419" lon="-105.2305749">
  <ele>1586.17</ele>
  <time>2026-08-27T18:27:39Z</time>
  <course>7.39</course>
  <speed>0.01414213562373095</speed>
  <fix>3d</fix>
</trkpt>
<trkpt lat="40.072842" lon="-105.2305751">
  <ele>1586.09</ele>
  <time>2026-08-27T18:27:39Z</time>
  <course>274.4</course>
  <speed>0.0</speed>
  <fix>3d</fix>
</trkpt>
<trkpt lat="40.0728419" lon="-105.2305749">
  <ele>1586.17</ele>
  <time>2026-08-27T18:27:39Z</time>
  <course>7.4</course>
  <speed>0.01414213562373095</speed>
  <fix>3d</fix>
</trkpt>
<trkpt lat="40.072842" lon="-105.2305751">
  <ele>1586.09</ele>
  <time>2026-08-27T18:27:39Z</time>
  <course>274.68</course>
  <speed>0.0</speed>
  <fix>3d</fix>
</trkpt>
<trkpt lat="40.0728419" lon="-105.2305749">
  <ele>1586.17</ele>
  <time>2026-08-27T18:27:39Z</time>
  <course>7.41</course>
  <speed>0.01414213562373095</speed>
  <fix>3d</fix>
</trkpt>
<trkpt lat="40.072842" lon="-105.2305751">
  <ele>1586.09</ele>
  <time>2026-08-27T18:27:39Z</time>
  <course>267.7</course>
  <speed>0.0</speed>
  <fix>3d</fix>
</trkpt>
<trkpt lat="40.0728419" lon="-105.2305749">
  <ele>1586.17</ele>
  <time>2026-08-27T18:27:39Z</time>
  <course>7.42</course>
  <speed>0.01414213562373095</speed>
  <fix>3d</fix>
</trkpt>
<trkpt lat="40.072842" lon="-105.2305751">
  <ele>1586.09</ele>
  <time>2026-08-27T18:27:39Z</time>
  <course>268.58</course>
  <speed>0.0</speed>
  <fix>3d</fix>
</trkpt>
<trkpt lat="40.0728419" lon="-105.2305749">
  <ele>1586.17</ele>
  <time>2026-08-27T18:27:39Z</time>
  <course>7.43</course>
  <speed>0.01414213562373095</speed>
  <fix>3d</fix>
</trkpt>
<trkpt lat="40.072842" lon="-105.2305751">
  <ele>1586.09</ele>
  <time>2026-08-27T18:27:39Z</time>
  <course>268.39</course>
  <speed>0.0</speed>
  <fix>3d</fix>
</trkpt>
<trkpt lat="40.0728419" lon="-105.2305749">
  <ele>1586.17</ele>
  <time>2026-08-27T18:27:39Z</time>
  <course>7.44</course>
  <speed>0.01414213562373095</speed>
  <fix>3d</fix>
</trkpt>
<trkpt lat="40.072842" lon="-105.2305751">
  <ele>1586.09</ele>
  <time>2026-08-27T18:27:39Z</time>
  <course>268.06</course>
  <speed>0.0</speed>
  <fix>3d</fix>
</trkpt>
<trkpt lat="40.0728419" lon="-105.2305749">
  <ele>1586.17</ele>
  <time>2026-08-27T18:27:39Z</time>
  <course>7.45</course>
  <speed>0.01414213562373095</speed>
  <fix>3d</fix>
</trkpt>
<trkpt lat="40.072842" lon="-105.2305751">
  <ele>1586.09</ele>
  <time>2026-08-27T18:27:39Z</time>
  <course>269.44</course>
  <speed>0.0</speed>
  <fix>3d</fix>
</trkpt>
<trkpt lat="40.0728419" lon="-105.2305749">
  <ele>1586.17</ele>
  <time>2026-08-27T18:27:39Z</time>
  <course>7.47</course>
  <speed>0.01414213562373095</speed>
  <fix>3d</fix>
</trkpt>
<trkpt lat="40.072842" lon="-105.2305751">
  <ele>1586.09</ele>
  <time>2026-08-27T18:27:39Z</time>
  <course>269.06</course>
  <speed>0.0</speed>
  <fix>3d</fix>
</trkpt>
<trkpt lat="40.0728419" lon="-105.2305749">
  <ele>1586.17</ele>
  <time>2026-08-27T18:27:39Z</time>
  <course>7.48</course>
  <speed>0.01414213562373095</speed>
  <fix>3d</fix>
</trkpt>
<trkpt lat="40.072842" lon="-105.2305751">
  <ele>1586.09</ele>
  <time>2026-08-27T18:27:39Z</time>
  <course>269.16</course>
  <speed>0.0</speed>
  <fix>3d</fix>
</trkpt>
<trkpt lat="40.0728419" lon="-105.2305749">
  <ele>1586.17</ele>
  <time>2026-08-27T18:27:39Z</time>
  <course>7.5</course>
  <speed>0.01414213562373095</speed>
  <fix>3d</fix>
</trkpt>
<trkpt lat="40.072842" lon="-105.2305751">
  <ele>1586.09</ele>
  <time>2026-08-27T18:27:39Z</time>
  <course>269.3</course>
  <speed>0.0</speed>
  <fix>3d</fix>
</trkpt>
<trkpt lat="40.0728419" lon="-105.2305749">
  <ele>1586.17</ele>
  <time>2026-08-27T18:27:39Z</time>
  <course>7.51</course>
  <speed>0.01414213562373095</speed>
  <fix>3d</fix>
</trkpt>
<trkpt lat="40.072842" lon="-105.2305751">
  <ele>1586.09</ele>
  <time>2026-08-27T18:27:39Z</time>
  <course>269.49</course>
  <speed>0.0</speed>
  <fix>3d</fix>
</trkpt>
<trkpt lat="40.0728419" lon="-105.2305749">
  <ele>1586.17</ele>
  <time>2026-08-27T18:27:39Z</time>
  <course>7.53</course>
  <speed>0.01414213562373095</speed>
  <fix>3d</fix>
</trkpt>
<trkpt lat="40.072842" lon="-105.2305751">
  <ele>1586.09</ele>
  <time>2026-08-27T18:27:39Z</time>
  <course>269.54</course>
  <speed>0.0</speed>
  <fix>3d</fix>
</trkpt>
<trkpt lat="40.0728419" lon="-105.2305749">
  <ele>1586.17</ele>
  <time>2026-08-27T18:27:39Z</time>
  <course>7.54</course>
  <speed>0.01414213562373095</speed>
  <fix>3d</fix>
</trkpt>
<trkpt lat="40.072842" lon="-105.2305751">
  <ele>1586.09</ele>
  <time>2026-08-27T18:27:39Z</time>
  <course>269.34</course>
  <speed>0.0</speed>
  <fix>3d</fix>
</trkpt>
<trkpt lat="40.0728419" lon="-105.2305749">
  <ele>1586.17</ele>
  <time>2026-08-27T18:27:39Z</time>
  <course>7.56</course>
  <speed>0.01414213562373095</speed>
  <fix>3d</fix>
</trkpt>
<trkpt lat="40.072842" lon="-105.2305751">
  <ele>1586.09</ele>
  <time>2026-08-27T18:27:39Z</time>
  <course>269.51</course>
  <speed>0.0</speed>
  <fix>3d</fix>
</trkpt>
<trkpt lat="40.0728419" lon="-105.2305749">
  <ele>1586.17</ele>
  <time>2026-08-27T18:27:39Z</time>
  <course>7.58</course>
  <speed>0.01414213562373095</speed>
  <fix>3d</fix>
</trkpt>
<trkpt lat="40.072842" lon="-105.2305751">
  <ele>1586.09</ele>
  <time>2026-08-27T18:27:39Z</time>
  <course>269.36</course>
  <speed>0.0</speed>
  <fix>3d</fix>
</trkpt>
<trkpt lat="40.0728419" lon="-105.2305749">
  <ele>1586.17</ele>
  <time>2026-08-27T18:27:39Z</time>
  <course>7.59</course>
  <speed>0.01414213562373095</speed>
  <fix>3d</fix>
</trkpt>
<trkpt lat="40.072842" lon="-105.2305751">
  <ele>1586.09</ele>
  <time>2026-08-27T18:27:39Z</time>
  <course>269.47</course>
  <speed>0.0</speed>
  <fix>3d</fix>
</trkpt>
<trkpt lat="40.0728419" lon="-105.2305749">
  <ele>1586.17</ele>
  <time>2026-08-27T18:27:39Z</time>
  <course>7.61</course>
  <speed>0.01414213562373095</speed>
  <fix>3d</fix>
</trkpt>
<trkpt lat="40.072842" lon="-105.2305751">
  <ele>1586.09</ele>
  <time>2026-08-27T18:27:39Z</time>
  <course>275.22</course>
  <speed>0.0</speed>
  <fix>3d</fix>
</trkpt>
<trkpt lat="40.0728419" lon="-105.2305749">
  <ele>1586.17</ele>
  <time>2026-08-27T18:27:39Z</time>
  <course>7.63</course>
  <speed>0.01414213562373095</speed>
  <fix>3d</fix>
</trkpt>
<trkpt lat="40.072842" lon="-105.2305751">
  <ele>1586.09</ele>
  <time>2026-08-27T18:27:39Z</time>
  <course>274.2</course>
  <speed>0.0</speed>
  <fix>3d</fix>
</trkpt>
<trkpt lat="40.0728419" lon="-105.2305749">
  <ele>1586.17</ele>
  <time>2026-08-27T18:27:39Z</time>
  <course>7.65</course>
  <speed>0.01414213562373095</speed>
  <fix>3d</fix>
</trkpt>
<trkpt lat="40.072842" lon="-105.2305751">
  <ele>1586.09</ele>
  <time>2026-08-27T18:27:39Z</time>
  <course>267.68</course>
  <speed>0.0</speed>
  <fix>3d</fix>
</trkpt>
<trkpt lat="40.0728419" lon="-105.2305749">
  <ele>1586.19</ele>
  <time>2026-08-27T18:27:39Z</time>
  <course>7.63</course>
  <speed>0.01414213562373095</speed>
  <fix>3d</fix>
</trkpt>
<trkpt lat="40.072842" lon="-105.2305751">
  <ele>1586.09</ele>
  <time>2026-08-27T18:27:39Z</time>
  <course>266.93</course>
  <speed>0.0</speed>
  <fix>3d</fix>
</trkpt>
<trkpt lat="40.0728419" lon="-105.2305749">
  <ele>1586.28</ele>
  <time>2026-08-27T18:27:39Z</time>
  <course>7.58</course>
  <speed>0.01414213562373095</speed>
  <fix>3d</fix>
</trkpt>
<trkpt lat="40.072842" lon="-105.2305751">
  <ele>1586.14</ele>
  <time>2026-08-27T18:27:39Z</time>
  <course>266.94</course>
  <speed>0.0</speed>
  <fix>3d</fix>
</trkpt>
<trkpt lat="40.0728419" lon="-105.230575">
  <ele>1586.37</ele>
  <time>2026-08-27T18:27:39Z</time>
  <course>5.58</course>
  <speed>0.05</speed>
  <fix>3d</fix>
</trkpt>
<trkpt lat="40.072842" lon="-105.2305751">
  <ele>1586.21</ele>
  <time>2026-08-27T18:27:39Z</time>
  <course>274.24</course>
  <speed>0.01</speed>
  <fix>3d</fix>
</trkpt>
<trkpt lat="40.0728419" lon="-105.2305754">
  <ele>1586.67</ele>
  <time>2026-08-27T18:27:39Z</time>
  <course>3.59</course>
  <speed>0.24738633753705963</speed>
  <fix>3d</fix>
</trkpt>
<trkpt lat="40.072842" lon="-105.2305752">
  <ele>1586.37</ele>
  <time>2026-08-27T18:27:39Z</time>
  <course>277.29</course>
  <speed>0.12</speed>
  <fix>3d</fix>
</trkpt>
<trkpt lat="40.0728419" lon="-105.2305755">
  <ele>1586.74</ele>
  <time>2026-08-27T18:27:39Z</time>
  <course>3.46</course>
  <speed>0.27892651361962706</speed>
  <fix>3d</fix>
</trkpt>
<trkpt lat="40.0728421" lon="-105.2305761">
  <ele>1587.09</ele>
  <time>2026-08-27T18:27:39Z</time>
  <course>3.07</course>
  <speed>0.3984971769034255</speed>
  <fix>3d</fix>
</trkpt>
<trkpt lat="40.072842" lon="-105.2305757">
  <ele>1586.69</ele>
  <time>2026-08-27T18:27:39Z</time>
  <course>278.27</course>
  <speed>0.31</speed>
  <fix>3d</fix>
</trkpt>
<trkpt lat="40.0728421" lon="-105.2305763">
  <ele>1587.15</ele>
  <time>2026-08-27T18:27:39Z</time>
  <course>3.05</course>
  <speed>0.417612260356422</speed>
  <fix>3d</fix>
</trkpt>
<trkpt lat="40.0728423" lon="-105.2305772">
  <ele>1587.52</ele>
  <time>2026-08-27T18:27:39Z</time>
  <course>3.06</course>
  <speed>0.5028916384272063</speed>
  <fix>3d</fix>
</trkpt>
<trkpt lat="40.0728421" lon="-105.2305766">
  <ele>1587.1</ele>
  <time>2026-08-27T18:27:39Z</time>
  <course>279.02</course>
  <speed>0.45</speed>
  <fix>3d</fix>
</trkpt>
<trkpt lat="40.0728423" lon="-105.2305772">
  <ele>1587.53</ele>
  <time>2026-08-27T18:27:39Z</time>
  <course>3.06</course>
  <speed>0.5028916384272063</speed>
  <fix>3d</fix>
</trkpt>
<trkpt lat="40.0728426" lon="-105.2305785">
  <ele>1587.98</ele>
  <time>2026-08-27T18:27:39Z</time>
  <course>3.25</course>
  <speed>0.5852349955359812</speed>
  <fix>3d</fix>
</trkpt>
<trkpt lat="40.0728423" lon="-105.2305778">
  <ele>1587.54</ele>
  <time>2026-08-27T18:27:39Z</time>
  <course>279.42</course>
  <speed>0.55</speed>
  <fix>3d</fix>
</trkpt>
<trkpt lat="40.0728426" lon="-105.2305787">
  <ele>1588.06</ele>
  <time>2026-08-27T18:27:39Z</time>
  <course>3.28</course>
  <speed>0.5977457653551382</speed>
  <fix>3d</fix>
</trkpt>
<trkpt lat="40.0728428" lon="-105.2305799">
  <ele>1588.47</ele>
  <time>2026-08-27T18:27:39Z</time>
  <course>3.52</course>
  <speed>0.648459713474939</speed>
  <fix>3d</fix>
</trkpt>
<trkpt lat="40.0728424" lon="-105.2305792">
  <ele>1588.01</ele>
  <time>2026-08-27T18:27:39Z</time>
  <course>279.67</course>
  <speed>0.63</speed>
  <fix>3d</fix>
</trkpt>
<trkpt lat="40.0728428" lon="-105.2305801">
  <ele>1588.54</ele>
  <time>2026-08-27T18:27:39Z</time>
  <course>3.55</course>
  <speed>0.648459713474939</speed>
  <fix>3d</fix>
</trkpt>
<trkpt lat="40.0728431" lon="-105.2305815">
  <ele>1588.97</ele>
  <time>2026-08-27T18:27:39Z</time>
  <course>2.48</course>
  <speed>0.6896375859826667</speed>
  <fix>3d</fix>
</trkpt>
<trkpt lat="40.0728426" lon="-105.2305807">
  <ele>1588.49</ele>
  <time>2026-08-27T18:27:39Z</time>
  <course>280.04</course>
  <speed>0.69</speed>
  <fix>3d</fix>
</trkpt>
<trkpt lat="40.0728431" lon="-105.2305818">
  <ele>1589.06</ele>
  <time>2026-08-27T18:27:39Z</time>
  <course>2.53</course>
  <speed>0.6992138442565335</speed>
  <fix>3d</fix>
</trkpt>
<trkpt lat="40.0728433" lon="-105.2305832">
  <ele>1589.49</ele>
  <time>2026-08-27T18:27:39Z</time>
  <course>2.69</course>
  <speed>0.7280109889280518</speed>
  <fix>3d</fix>
</trkpt>
<trkpt lat="40.0728429" lon="-105.2305824">
  <ele>1588.99</ele>
  <time>2026-08-27T18:27:39Z</time>
  <course>280.54</course>
  <speed>0.73</speed>
  <fix>3d</fix>
</trkpt>
<trkpt lat="40.0728433" lon="-105.2305834">
  <ele>1589.57</ele>
  <time>2026-08-27T18:27:39Z</time>
  <course>2.7</course>
  <speed>0.7280109889280518</speed>
  <fix>3d</fix>
</trkpt>
<trkpt lat="40.0728436" lon="-105.2305849">
  <ele>1590.01</ele>
  <time>2026-08-27T18:27:39Z</time>
  <course>2.87</course>
  <speed>0.7596051605933176</speed>
  <fix>3d</fix>
</trkpt>
<trkpt lat="40.0728431" lon="-105.2305842">
  <ele>1589.49</ele>
  <time>2026-08-27T18:27:39Z</time>
  <course>281.04</course>
  <speed>0.77</speed>
  <fix>3d</fix>
</trkpt>
<trkpt lat="40.0728436" lon="-105.2305852">
  <ele>1590.09</ele>
  <time>2026-08-27T18:27:39Z</time>
  <course>2.88</course>
  <speed>0.7596051605933176</speed>
  <fix>3d</fix>
</trkpt>
<trkpt lat="40.0728439" lon="-105.2305868">
  <ele>1590.54</ele>
  <time>2026-08-27T18:27:39Z</time>
  <course>3.01</course>
  <speed>0.7884795495128583</speed>
  <fix>3d</fix>
</trkpt>
<trkpt lat="40.0728434" lon="-105.2305859">
  <ele>1590.0</ele>
  <time>2026-08-27T18:27:39Z</time>
  <course>281.51</course>
  <speed>0.8</speed>
  <fix>3d</fix>
</trkpt>
<trkpt lat="40.0728439" lon="-105.2305868">
  <ele>1590.55</ele>
  <time>2026-08-27T18:27:39Z</time>
  <course>3.01</course>
  <speed>0.7884795495128583</speed>
  <fix>3d</fix>
</trkpt>
<trkpt lat="40.0728441" lon="-105.2305887">
  <ele>1591.07</ele>
  <time>2026-08-27T18:27:39Z</time>
  <course>3.21</course>
  <speed>0.8052328855678959</speed>
  <fix>3d</fix>
</trkpt>
<trkpt lat="40.0728437" lon="-105.2305878">
  <ele>1590.52</ele>
  <time>2026-08-27T18:27:39Z</time>
  <course>282.03</course>
  <speed>0.83</speed>
  <fix>3d</fix>
</trkpt>
<trkpt lat="40.0728442" lon="-105.230589">
  <ele>1591.15</ele>
  <time>2026-08-27T18:27:39Z</time>
  <course>3.25</course>
  <speed>0.8052328855678959</speed>
  <fix>3d</fix>
</trkpt>
<trkpt lat="40.0728444" lon="-105.2305906">
  <ele>1591.61</ele>
  <time>2026-08-27T18:27:39Z</time>
  <course>3.48</course>
  <speed>0.8246211251235321</speed>
  <fix>3d</fix>
</trkpt>
<trkpt lat="40.072844" lon="-105.2305897">
  <ele>1591.04</ele>
  <time>2026-08-27T18:27:39Z</time>
  <course>282.58</course>
  <speed>0.85</speed>
  <fix>3d</fix>
</trkpt>
<trkpt lat="40.0728445" lon="-105.2305909">
  <ele>1591.69</ele>
  <time>2026-08-27T18:27:39Z</time>
  <course>3.53</course>
  <speed>0.8246211251235321</speed>
  <fix>3d</fix>
</trkpt>
<trkpt lat="40.0728447" lon="-105.2305926">
  <ele>1592.14</ele>
  <time>2026-08-27T18:27:39Z</time>
  <course>3.79</course>
  <speed>0.8417244204607586</speed>
  <fix>3d</fix>
</trkpt>
<trkpt lat="40.0728443" lon="-105.2305918">
  <ele>1591.57</ele>
  <time>2026-08-27T18:27:39Z</time>
  <course>283.18</course>
  <speed>0.87</speed>
  <fix>3d</fix>
</trkpt>
<trkpt lat="40.0728447" lon="-105.2305929">
  <ele>1592.21</ele>
  <time>2026-08-27T18:27:39Z</time>
  <course>3.83</course>
  <speed>0.8417244204607586</speed>
  <fix>3d</fix>
</trkpt>
<trkpt lat="40.072845" lon="-105.2305947">
  <ele>1592.67</ele>
  <time>2026-08-27T18:27:39Z</time>
  <course>4.07</course>
  <speed>0.8514693182963201</speed>
  <fix>3d</fix>
</trkpt>
<trkpt lat="40.0728447" lon="-105.2305938">
  <ele>1592.09</ele>
  <time>2026-08-27T18:27:39Z</time>
  <course>283.78</course>
  <speed>0.88</speed>
  <fix>3d</fix>
</trkpt>
<trkpt lat="40.072845" lon="-105.2305947">
  <ele>1592.67</ele>
  <time>2026-08-27T18:27:39Z</time>
  <course>4.08</course>
  <speed>0.8514693182963201</speed>
  <fix>3d</fix>
</trkpt>
<trkpt lat="40.0728454" lon="-105.2305967">
  <ele>1593.2</ele>
  <time>2026-08-27T18:27:39Z</time>
  <course>4.33</course>
  <speed>0.870976463516667</speed>
  <fix>3d</fix>
</trkpt>
<trkpt lat="40.072845" lon="-105.2305958">
  <ele>1592.62</ele>
  <time>2026-08-27T18:27:39Z</time>
  <course>284.38</course>
  <speed>0.9</speed>
  <fix>3d</fix>
</trkpt>
<trkpt lat="40.0728454" lon="-105.230597">
  <ele>1593.27</ele>
  <time>2026-08-27T18:27:39Z</time>
  <course>4.36</course>
  <speed>0.873212459828649</speed>
  <fix>3d</fix>
</trkpt>
<trkpt lat="40.0728457" lon="-105.2305988">
  <ele>1593.73</ele>
  <time>2026-08-27T18:27:39Z</time>
  <course>4.51</course>
  <speed>0.8829496021857647</speed>
  <fix>3d</fix>
</trkpt>
<trkpt lat="40.0728455" lon="-105.2305978">
  <ele>1593.14</ele>
  <time>2026-08-27T18:27:39Z</time>
  <course>284.95</course>
  <speed>0.91</speed>
  <fix>3d</fix>
</trkpt>
<trkpt lat="40.0728457" lon="-105.2305988">
  <ele>1593.74</ele>
  <time>2026-08-27T18:27:39Z</time>
  <course>4.52</course>
  <speed>0.8829496021857647</speed>
  <fix>3d</fix>
</trkpt>
<trkpt lat="40.0728461" lon="-105.2306009">
  <ele>1594.26</ele>
  <time>2026-08-27T18:27:39Z</time>
  <course>4.68</course>
  <speed>0.8926925562588724</speed>
  <fix>3d</fix>
</trkpt>
<trkpt lat="40.072846" lon="-105.2305999">
  <ele>1593.67</ele>
  <time>2026-08-27T18:27:39Z</time>
  <course>285.48</course>
  <speed>0.91</speed>
  <fix>3d</fix>
</trkpt>
<trkpt lat="40.0728462" lon="-105.2306012">
  <ele>1594.32</ele>
  <time>2026-08-27T18:27:39Z</time>
  <course>4.7</course>
  <speed>0.8926925562588724</speed>
  <fix>3d</fix>
</trkpt>
<trkpt lat="40.0728465" lon="-105.230603">
  <ele>1594.79</ele>
  <time>2026-08-27T18:27:39Z</time>
  <course>4.82</course>
  <speed>0.8949860334105779</speed>
  <fix>3d</fix>
</trkpt>
<trkpt lat="40.0728464" lon="-105.230602">
  <ele>1594.2</ele>
  <time>2026-08-27T18:27:39Z</time>
  <course>285.95</course>
  <speed>0.92</speed>
  <fix>3d</fix>
</trkpt>
<trkpt lat="40.0728466" lon="-105.2306033">
  <ele>1594.87</ele>
  <time>2026-08-27T18:27:39Z</time>
  <course>4.84</course>
  <speed>0.9047098982546836</speed>
  <fix>3d</fix>
</trkpt>
<trkpt lat="40.072847" lon="-105.2306051">
  <ele>1595.33</ele>
  <time>2026-08-27T18:27:39Z</time>
  <course>4.95</course>
  <speed>0.9047098982546836</speed>
  <fix>3d</fix>
</trkpt>
<trkpt lat="40.0728469" lon="-105.2306041">
  <ele>1594.73</ele>
  <time>2026-08-27T18:27:39Z</time>
  <course>286.33</course>
  <speed>0.92</speed>
  <fix>3d</fix>
</trkpt>
<trkpt lat="40.072847" lon="-105.2306052">
  <ele>1595.33</ele>
  <time>2026-08-27T18:27:39Z</time>
  <course>4.95</course>
  <speed>0.9047098982546836</speed>
  <fix>3d</fix>
</trkpt>
<trkpt lat="40.0728475" lon="-105.2306073">
  <ele>1595.82</ele>
  <time>2026-08-27T18:27:39Z</time>
  <course>7.52</course>
  <speed>0.9047098982546836</speed>
  <fix>3d</fix>
</trkpt>
<trkpt lat="40.0728473" lon="-105.2306062">
  <ele>1595.25</ele>
  <time>2026-08-27T18:27:39Z</time>
  <course>286.58</course>
  <speed>0.93</speed>
  <fix>3d</fix>
</trkpt>
<trkpt lat="40.0728479" lon="-105.2306093">
  <ele>1596.16</ele>
  <time>2026-08-27T18:27:39Z</time>
  <course>8.78</course>
  <speed>0.8780091115700337</speed>
  <fix>3d</fix>
</trkpt>
<trkpt lat="40.0728478" lon="-105.2306083">
  <ele>1595.69</ele>
  <time>2026-08-27T18:27:39Z</time>
  <course>287.09</course>
  <speed>0.91</speed>
  <fix>3d</fix>
</trkpt>
<trkpt lat="40.0728484" lon="-105.2306113">
  <ele>1596.37</ele>
  <time>2026-08-27T18:27:39Z</time>
  <course>8.98</course>
  <speed>0.8489994110716449</speed>
  <fix>3d</fix>
</trkpt>
<trkpt lat="40.0728483" lon="-105.2306103">
  <ele>1596.0</ele>
  <time>2026-08-27T18:27:39Z</time>
  <course>288.05</course>
  <speed>0.88</speed>
  <fix>3d</fix>
</trkpt>
<trkpt lat="40.0728489" lon="-105.2306133">
  <ele>1596.52</ele>
  <time>2026-08-27T18:27:39Z</time>
  <course>8.68</course>
  <speed>0.8200609733428362</speed>
  <fix>3d</fix>
</trkpt>
<trkpt lat="40.0728488" lon="-105.2306122">
  <ele>1596.2</ele>
  <time>2026-08-27T18:27:39Z</time>
  <course>289.21</course>
  <speed>0.85</speed>
  <fix>3d</fix>
</trkpt>
<trkpt lat="40.0728494" lon="-105.2306151">
  <ele>1596.65</ele>
  <time>2026-08-27T18:27:39Z</time>
  <course>8.4</course>
  <speed>0.7720103626247513</speed>
  <fix>3d</fix>
</trkpt>
<trkpt lat="40.0728493" lon="-105.2306141">
  <ele>1596.34</ele>
  <time>2026-08-27T18:27:39Z</time>
  <course>290.55</course>
  <speed>0.82</speed>
  <fix>3d</fix>
</trkpt>
<trkpt lat="40.0728499" lon="-105.2306167">
  <ele>1596.75</ele>
  <time>2026-08-27T18:27:39Z</time>
  <course>8.38</course>
  <speed>0.6992138442565335</speed>
  <fix>3d</fix>
</trkpt>
<trkpt lat="40.0728498" lon="-105.2306158">
  <ele>1596.45</ele>
  <time>2026-08-27T18:27:39Z</time>
  <course>291.9</course>
  <speed>0.76</speed>
  <fix>3d</fix>
</trkpt>
<trkpt lat="40.0728503" lon="-105.2306182">
  <ele>1596.86</ele>
  <time>2026-08-27T18:27:39Z</time>
  <course>8.26</course>
  <speed>0.5920304046246274</speed>
  <fix>3d</fix>
</trkpt>
<trkpt lat="40.0728503" lon="-105.2306174">
  <ele>1596.56</ele>
  <time>2026-08-27T18:27:39Z</time>
  <course>293.38</course>
  <speed>0.68</speed>
  <fix>3d</fix>
</trkpt>
<trkpt lat="40.0728507" lon="-105.2306194">
  <ele>1596.97</ele>
  <time>2026-08-27T18:27:39Z</time>
  <course>8.08</course>
  <speed>0.4876474136094644</speed>
  <fix>3d</fix>
</trkpt>
<trkpt lat="40.0728508" lon="-105.2306188">
  <ele>1596.67</ele>
  <time>2026-08-27T18:27:39Z</time>
  <course>295.42</course>
  <speed>0.58</speed>
  <fix>3d</fix>
</trkpt>
<trkpt lat="40.0728511" lon="-105.2306204">
  <ele>1597.08</ele>
  <time>2026-08-27T18:27:39Z</time>
  <course>7.86</course>
  <speed>0.383275357934736</speed>
  <fix>3d</fix>
</trkpt>
<trkpt lat="40.0728512" lon="-105.2306198">
  <ele>1596.79</ele>
  <time>2026-08-27T18:27:39Z</time>
  <course>298.5</course>
  <speed>0.47</speed>
  <fix>3d</fix>
</trkpt>
<trkpt lat="40.0728514" lon="-105.2306211">
  <ele>1597.21</ele>
  <time>2026-08-27T18:27:39Z</time>
  <course>7.7</course>
  <speed>0.2816025568065745</speed>
  <fix>3d</fix>
</trkpt>
<trkpt lat="40.0728516" lon="-105.2306207">
  <ele>1596.91</ele>
  <time>2026-08-27T18:27:39Z</time>
  <course>302.75</course>
  <speed>0.37</speed>
  <fix>3d</fix>
</trkpt>
<trkpt lat="40.0728517" lon="-105.2306216">
  <ele>1597.34</ele>
  <time>2026-08-27T18:27:39Z</time>
  <course>7.63</course>
  <speed>0.196468827043885</speed>
  <fix>3d</fix>
</trkpt>
<trkpt lat="40.072852" lon="-105.2306213">
  <ele>1597.04</ele>
  <time>2026-08-27T18:27:39Z</time>
  <course>308.15</course>
  <speed>0.28</speed>
  <fix>3d</fix>
</trkpt>
<trkpt lat="40.0728519" lon="-105.230622">
  <ele>1597.47</ele>
  <time>2026-08-27T18:27:39Z</time>
  <course>7.67</course>
  <speed>0.12165525060596438</speed>
  <fix>3d</fix>
</trkpt>
<trkpt lat="40.0728522" lon="-105.2306218">
  <ele>1597.17</ele>
  <time>2026-08-27T18:27:39Z</time>
  <course>315.02</course>
  <speed>0.19</speed>
  <fix>3d</fix>
</trkpt>
<trkpt lat="40.0728521" lon="-105.2306221">
  <ele>1597.61</ele>
  <time>2026-08-27T18:27:39Z</time>
  <course>7.82</course>
  <speed>0.06082762530298219</speed>
  <fix>3d</fix>
</trkpt>
<trkpt lat="40.0728524" lon="-105.2306221">
  <ele>1597.32</ele>
  <time>2026-08-27T18:27:39Z</time>
  <course>325.24</course>
  <speed>0.12</speed>
  <fix>3d</fix>
</trkpt>
<trkpt lat="40.0728522" lon="-105.2306222">
  <ele>1597.75</ele>
  <time>2026-08-27T18:27:39Z</time>
  <course>7.97</course>
  <speed>0.0412310562561766</speed>
  <fix>3d</fix>
</trkpt>
<trkpt lat="40.0728526" lon="-105.2306222">
  <ele>1597.46</ele>
  <time>2026-08-27T18:27:39Z</time>
  <course>347.94</course>
  <speed>0.06</speed>
  <fix>3d</fix>
</trkpt>
<trkpt lat="40.0728523" lon="-105.2306221">
  <ele>1597.88</ele>
  <time>2026-08-27T18:27:39Z</time>
  <course>8.13</course>
  <speed>0.07280109889280519</speed>
  <fix>3d</fix>
</trkpt>
<trkpt lat="40.0728527" lon="-105.2306222">
  <ele>1597.6</ele>
  <time>2026-08-27T18:27:39Z</time>
  <course>59.27</course>
  <speed>0.03</speed>
  <fix>3d</fix>
</trkpt>
<trkpt lat="40.0728522" lon="-105.2306219">
  <ele>1598.01</ele>
  <time>2026-08-27T18:27:39Z</time>
  <course>8.33</course>
  <speed>0.11661903789690602</speed>
  <fix>3d</fix>
</trkpt>
<trkpt lat="40.0728527" lon="-105.2306221">
  <ele>1597.73</ele>
  <time>2026-08-27T18:27:39Z</time>
  <course>105.76</course>
  <speed>0.07</speed>
  <fix>3d</fix>
</trkpt>
<trkpt lat="40.0728523" lon="-105.2306218">
  <ele>1598.12</ele>
  <time>2026-08-27T18:27:39Z</time>
  <course>8.56</course>
  <speed>0.17804493814764857</speed>
  <fix>3d</fix>
</trkpt>
<trkpt lat="40.0728527" lon="-105.2306218">
  <ele>1597.86</ele>
  <time>2026-08-27T18:27:39Z</time>
  <course>118.59</course>
  <speed>0.12</speed>
  <fix>3d</fix>
</trkpt>
<trkpt lat="40.0728521" lon="-105.2306214">
  <ele>1598.22</ele>
  <time>2026-08-27T18:27:39Z</time>
  <course>8.86</course>
  <speed>0.261725046566048</speed>
  <fix>3d</fix>
</trkpt>
<trkpt lat="40.0728526" lon="-105.2306215">
  <ele>1597.97</ele>
  <time>2026-08-27T18:27:39Z</time>
  <course>122.01</course>
  <speed>0.19</speed>
  <fix>3d</fix>
</trkpt>
<trkpt lat="40.0728518" lon="-105.2306207">
  <ele>1598.3</ele>
  <time>2026-08-27T18:27:39Z</time>
  <course>8.73</course>
  <speed>0.38600518131237566</speed>
  <fix>3d</fix>
</trkpt>
<trkpt lat="40.0728523" lon="-105.230621">
  <ele>1598.06</ele>
  <time>2026-08-27T18:27:39Z</time>
  <course>121.02</course>
  <speed>0.29</speed>
  <fix>3d</fix>
</trkpt>
<trkpt lat="40.0728515" lon="-105.2306198">
  <ele>1598.34</ele>
  <time>2026-08-27T18:27:39Z</time>
  <course>8.43</course>
  <speed>0.53</speed>
  <fix>3d</fix>
</trkpt>
<trkpt lat="40.072852" lon="-105.2306203">
  <ele>1598.12</ele>
  <time>2026-08-27T18:27:39Z</time>
  <course>118.54</course>
  <speed>0.42</speed>
  <fix>3d</fix>
</trkpt>
<trkpt lat="40.072851" lon="-105.2306185">
  <ele>1598.36</ele>
  <time>2026-08-27T18:27:39Z</time>
  <course>8.58</course>
  <speed>0.7200694410957876</speed>
  <fix>3d</fix>
</trkpt>
<trkpt lat="40.0728516" lon="-105.2306193">
  <ele>1598.16</ele>
  <time>2026-08-27T18:27:39Z</time>
  <course>115.67</course>
  <speed>0.58</speed>
  <fix>3d</fix>
</trkpt>
<trkpt lat="40.0728505" lon="-105.2306167">
  <ele>1598.36</ele>
  <time>2026-08-27T18:27:39Z</time>
  <course>8.49</course>
  <speed>0.931074647920348</speed>
  <fix>3d</fix>
</trkpt>
<trkpt lat="40.0728511" lon="-105.2306178">
  <ele>1598.17</ele>
  <time>2026-08-27T18:27:39Z</time>
  <course>112.93</course>
  <speed>0.77</speed>
  <fix>3d</fix>
</trkpt>
<trkpt lat="40.0728498" lon="-105.2306144">
  <ele>1598.34</ele>
  <time>2026-08-27T18:27:39Z</time>
  <course>8.97</course>
  <speed>1.1216059914247962</speed>
  <fix>3d</fix>
</trkpt>
<trkpt lat="40.0728505" lon="-105.2306159">
  <ele>1598.17</ele>
  <time>2026-08-27T18:27:39Z</time>
  <course>110.65</course>
  <speed>0.99</speed>
  <fix>3d</fix>
</trkpt>
<trkpt lat="40.0728492" lon="-105.2306118">
  <ele>1598.32</ele>
  <time>2026-08-27T18:27:39Z</time>
  <course>21.47</course>
  <speed>1.2713772060250255</speed>
  <fix>3d</fix>
</trkpt>
<trkpt lat="40.0728498" lon="-105.2306135">
  <ele>1598.16</ele>
  <time>2026-08-27T18:27:39Z</time>
  <course>108.81</course>
  <speed>1.16</speed>
  <fix>3d</fix>
</trkpt>
<trkpt lat="40.0728486" lon="-105.2306087">
  <ele>1598.3</ele>
  <time>2026-08-27T18:27:39Z</time>
  <course>33.66</course>
  <speed>1.438401890988746</speed>
  <fix>3d</fix>
</trkpt>
<trkpt lat="40.0728492" lon="-105.2306107">
  <ele>1598.14</ele>
  <time>2026-08-27T18:27:39Z</time>
  <course>106.19</course>
  <speed>1.32</speed>
  <fix>3d</fix>
</trkpt>
<trkpt lat="40.072848" lon="-105.2306053">
  <ele>1598.28</ele>
  <time>2026-08-27T18:27:39Z</time>
  <course>45.89</course>
  <speed>1.5768956845650888</speed>
  <fix>3d</fix>
</trkpt>
<trkpt lat="40.0728486" lon="-105.2306076">
  <ele>1598.13</ele>
  <time>2026-08-27T18:27:39Z</time>
  <course>102.57</course>
  <speed>1.48</speed>
  <fix>3d</fix>
</trkpt>
<trkpt lat="40.0728477" lon="-105.2306015">
  <ele>1598.26</ele>
  <time>2026-08-27T18:27:39Z</time>
  <course>58.2</course>
  <speed>1.6620770138594663</speed>
  <fix>3d</fix>
</trkpt>
<trkpt lat="40.0728481" lon="-105.230604">
  <ele>1598.12</ele>
  <time>2026-08-27T18:27:39Z</time>
  <course>98.86</course>
  <speed>1.59</speed>
  <fix>3d</fix>
</trkpt>
<trkpt lat="40.0728474" lon="-105.2305976">
  <ele>1598.26</ele>
  <time>2026-08-27T18:27:39Z</time>
  <course>70.55</course>
  <speed>1.7249057945290809</speed>
  <fix>3d</fix>
</trkpt>
<trkpt lat="40.0728477" lon="-105.2306002">
  <ele>1598.12</ele>
  <time>2026-08-27T18:27:39Z</time>
  <course>95.68</course>
  <speed>1.67</speed>
  <fix>3d</fix>
</trkpt>
<trkpt lat="40.0728473" lon="-105.2305935">
  <ele>1598.27</ele>
  <time>2026-08-27T18:27:39Z</time>
  <course>82.85</course>
  <speed>1.7518276170902203</speed>
  <fix>3d</fix>
</trkpt>
<trkpt lat="40.0728474" lon="-105.2305961">
  <ele>1598.12</ele>
  <time>2026-08-27T18:27:39Z</time>
  <course>93.47</course>
  <speed>1.72</speed>
  <fix>3d</fix>
</trkpt>
<trkpt lat="40.0728472" lon="-105.2305894">
  <ele>1598.29</ele>
  <time>2026-08-27T18:27:39Z</time>
  <course>94.01</course>
  <speed>1.7634341496069539</speed>
  <fix>3d</fix>
</trkpt>
<trkpt lat="40.0728473" lon="-105.2305921">
  <ele>1598.14</ele>
  <time>2026-08-27T18:27:39Z</time>
  <course>92.64</course>
  <speed>1.74</speed>
  <fix>3d</fix>
</trkpt>
<trkpt lat="40.0728469" lon="-105.2305853">
  <ele>1598.29</ele>
  <time>2026-08-27T18:27:39Z</time>
  <course>95.44</course>
  <speed>1.7473408368146153</speed>
  <fix>3d</fix>
</trkpt>
<trkpt lat="40.0728471" lon="-105.230588">
  <ele>1598.15</ele>
  <time>2026-08-27T18:27:39Z</time>
  <course>93.69</course>
  <speed>1.74</speed>
  <fix>3d</fix>
</trkpt>
<trkpt lat="40.0728466" lon="-105.2305813">
  <ele>1598.3</ele>
  <time>2026-08-27T18:27:39Z</time>
  <course>96.01</course>
  <speed>1.6796725871431015</speed>
  <fix>3d</fix>
</trkpt>
<trkpt lat="40.0728468" lon="-105.2305839">
  <ele>1598.16</ele>
  <time>2026-08-27T18:27:39Z</time>
  <course>95.37</course>
  <speed>1.71</speed>
  <fix>3d</fix>
</trkpt>
<trkpt lat="40.0728463" lon="-105.2305776">
  <ele>1598.3</ele>
  <time>2026-08-27T18:27:39Z</time>
  <course>96.96</course>
  <speed>1.572768260107</speed>
  <fix>3d</fix>
</trkpt>
<trkpt lat="40.0728465" lon="-105.23058">
  <ele>1598.17</ele>
  <time>2026-08-27T18:27:39Z</time>
  <course>96.51</course>
  <speed>1.63</speed>
  <fix>3d</fix>
</trkpt>
<trkpt lat="40.072846" lon="-105.2305741">
  <ele>1598.31</ele>
  <time>2026-08-27T18:27:39Z</time>
  <course>98.15</course>
  <speed>1.3944174410842687</speed>
  <fix>3d</fix>
</trkpt>
<trkpt lat="40.0728462" lon="-105.2305763">
  <ele>1598.18</ele>
  <time>2026-08-27T18:27:39Z</time>
  <course>97.67</course>
  <speed>1.5</speed>
  <fix>3d</fix>
</trkpt>
<trkpt lat="40.0728456" lon="-105.2305712">
  <ele>1598.31</ele>
  <time>2026-08-27T18:27:39Z</time>
  <course>99.62</course>
  <speed>1.157410903698423</speed>
  <fix>3d</fix>
</trkpt>
<trkpt lat="40.0728458" lon="-105.230573">
  <ele>1598.19</ele>
  <time>2026-08-27T18:27:39Z</time>
  <course>99.05</course>
  <speed>1.31</speed>
  <fix>3d</fix>
</trkpt>
<trkpt lat="40.0728453" lon="-105.2305688">
  <ele>1598.31</ele>
  <time>2026-08-27T18:27:39Z</time>
  <course>101.68</course>
  <speed>0.8807383266328315</speed>
  <fix>3d</fix>
</trkpt>
<trkpt lat="40.0728455" lon="-105.2305703">
  <ele>1598.19</ele>
  <time>2026-08-27T18:27:39Z</time>
  <course>100.94</course>
  <speed>1.06</speed>
  <fix>3d</fix>
</trkpt>
<trkpt lat="40.0728449" lon="-105.2305672">
  <ele>1598.31</ele>
  <time>2026-08-27T18:27:39Z</time>
  <course>102.05</course>
  <speed>0.5787054518492115</speed>
  <fix>3d</fix>
</trkpt>
<trkpt lat="40.072845" lon="-105.2305681">
  <ele>1598.2</ele>
  <time>2026-08-27T18:27:39Z</time>
  <course>104.69</course>
  <speed>0.77</speed>
  <fix>3d</fix>
</trkpt>
<trkpt lat="40.0728446" lon="-105.2305662">
  <ele>1598.31</ele>
  <time>2026-08-27T18:27:39Z</time>
  <course>101.97</course>
  <speed>0.29410882339705485</speed>
  <fix>3d</fix>
</trkpt>
<trkpt lat="40.0728447" lon="-105.2305667">
  <ele>1598.2</ele>
  <time>2026-08-27T18:27:39Z</time>
  <course>113.08</course>
  <speed>0.48</speed>
  <fix>3d</fix>
</trkpt>
<trkpt lat="40.0728443" lon="-105.230566">
  <ele>1598.3</ele>
  <time>2026-08-27T18:27:39Z</time>
  <course>101.87</course>
  <speed>0.16278820596099705</speed>
  <fix>3d</fix>
</trkpt>
<trkpt lat="40.0728444" lon="-105.2305661">
  <ele>1598.2</ele>
  <time>2026-08-27T18:27:39Z</time>
  <course>141.2</course>
  <speed>0.22</speed>
  <fix>3d</fix>
</trkpt>
<trkpt lat="40.072844" lon="-105.2305664">
  <ele>1598.29</ele>
  <time>2026-08-27T18:27:39Z</time>
  <course>101.71</course>
  <speed>0.2968164415931166</speed>
  <fix>3d</fix>
</trkpt>
<trkpt lat="40.0728441" lon="-105.2305661">
  <ele>1598.19</ele>
  <time>2026-08-27T18:27:39Z</time>
  <course>218.41</course>
  <speed>0.2</speed>
  <fix>3d</fix>
</trkpt>
<trkpt lat="40.0728437" lon="-105.2305672">
  <ele>1598.29</ele>
  <time>2026-08-27T18:27:39Z</time>
  <course>101.58</course>
  <speed>0.44011362169330775</speed>
  <fix>3d</fix>
</trkpt>
<trkpt lat="40.0728438" lon="-105.2305666">
  <ele>1598.19</ele>
  <time>2026-08-27T18:27:39Z</time>
  <course>244.45</course>
  <speed>0.37</speed>
  <fix>3d</fix>
</trkpt>
<trkpt lat="40.0728434" lon="-105.2305682">
  <ele>1598.28</ele>
  <time>2026-08-27T18:27:39Z</time>
  <course>101.48</course>
  <speed>0.5281098370604357</speed>
  <fix>3d</fix>
</trkpt>
<trkpt lat="40.0728435" lon="-105.2305676">
  <ele>1598.19</ele>
  <time>2026-08-27T18:27:39Z</time>
  <course>250.8</course>
  <speed>0.51</speed>
  <fix>3d</fix>
</trkpt>
<trkpt lat="40.072843" lon="-105.2305695">
  <ele>1598.29</ele>
  <time>2026-08-27T18:27:39Z</time>
  <course>101.38</course>
  <speed>0.5502726596879042</speed>
  <fix>3d</fix>
</trkpt>
<trkpt lat="40.0728432" lon="-105.2305688">
  <ele>1598.19</ele>
  <time>2026-08-27T18:27:39Z</time>
  <course>252.45</course>
  <speed>0.58</speed>
  <fix>3d</fix>
</trkpt>
<trkpt lat="40.0728426" lon="-105.2305708">
  <ele>1598.29</ele>
  <time>2026-08-27T18:27:39Z</time>
  <course>93.71</course>
  <speed>0.5590169943749475</speed>
  <fix>3d</fix>
</trkpt>
<trkpt lat="40.0728429" lon="-105.2305701">
  <ele>1598.19</ele>
  <time>2026-08-27T18:27:39Z</time>
  <course>249.8</course>
  <speed>0.6</speed>
  <fix>3d</fix>
</trkpt>
<trkpt lat="40.0728422" lon="-105.230572">
  <ele>1598.3</ele>
  <time>2026-08-27T18:27:39Z</time>
  <course>80.35</course>
  <speed>0.5239274758971895</speed>
  <fix>3d</fix>
</trkpt>
<trkpt lat="40.0728424" lon="-105.2305714">
  <ele>1598.19</ele>
  <time>2026-08-27T18:27:39Z</time>
  <course>247.54</course>
  <speed>0.59</speed>
  <fix>3d</fix>
</trkpt>
<trkpt lat="40.0728419" lon="-105.2305732">
  <ele>1598.3</ele>
  <time>2026-08-27T18:27:39Z</time>
  <course>68.14</course>
  <speed>0.49040799340956914</speed>
  <fix>3d</fix>
</trkpt>
<trkpt lat="40.0728421" lon="-105.2305726">
  <ele>1598.19</ele>
  <time>2026-08-27T18:27:39Z</time>
  <course>249.28</course>
  <speed>0.55</speed>
  <fix>3d</fix>
</trkpt>
<trkpt lat="40.0728416" lon="-105.2305743">
  <ele>1598.3</ele>
  <time>2026-08-27T18:27:39Z</time>
  <course>56.06</course>
  <speed>0.4743416490252569</speed>
  <fix>3d</fix>
</trkpt>
<trkpt lat="40.0728418" lon="-105.2305739">
  <ele>1598.2</ele>
  <time>2026-08-27T18:27:39Z</time>
  <course>251.67</course>
  <speed>0.52</speed>
  <fix>3d</fix>
</trkpt>
<trkpt lat="40.0728413" lon="-105.2305755">
  <ele>1598.3</ele>
  <time>2026-08-27T18:27:39Z</time>
  <course>44.03</course>
  <speed>0.46486557196677836</speed>
  <fix>3d</fix>
</trkpt>
<trkpt lat="40.0728415" lon="-105.230575">
  <ele>1598.2</ele>
  <time>2026-08-27T18:27:39Z</time>
  <course>253.2</course>
  <speed>0.49</speed>
  <fix>3d</fix>
</trkpt>
<trkpt lat="40.0728411" lon="-105.2305765">
  <ele>1598.3</ele>
  <time>2026-08-27T18:27:39Z</time>
  <course>31.94</course>
  <speed>0.43657759905886145</speed>
  <fix>3d</fix>
</trkpt>
<trkpt lat="40.0728413" lon="-105.230576">
  <ele>1598.2</ele>
  <time>2026-08-27T18:27:39Z</time>
  <course>252.87</course>
  <speed>0.47</speed>
  <fix>3d</fix>
</trkpt>
<trkpt lat="40.0728408" lon="-105.2305775">
  <ele>1598.3</ele>
  <time>2026-08-27T18:27:39Z</time>
  <course>19.91</course>
  <speed>0.40718546143004664</speed>
  <fix>3d</fix>
</trkpt>
<trkpt lat="40.072841" lon="-105.230577">
  <ele>1598.21</ele>
  <time>2026-08-27T18:27:39Z</time>
  <course>250.72</course>
  <speed>0.44</speed>
  <fix>3d</fix>
</trkpt>
<trkpt lat="40.0728405" lon="-105.2305784">
  <ele>1598.3</ele>
  <time>2026-08-27T18:27:39Z</time>
  <course>9.33</course>
  <speed>0.40249223594996214</speed>
  <fix>3d</fix>
</trkpt>
<trkpt lat="40.0728407" lon="-105.230578">
  <ele>1598.21</ele>
  <time>2026-08-27T18:27:39Z</time>
  <course>247.34</course>
  <speed>0.41</speed>
  <fix>3d</fix>
</trkpt>
<trkpt lat="40.0728402" lon="-105.2305793">
  <ele>1598.3</ele>
  <time>2026-08-27T18:27:39Z</time>
  <course>10.86</course>
  <speed>0.3671511950137164</speed>
  <fix>3d</fix>
</trkpt>
<trkpt lat="40.0728404" lon="-105.2305789">
  <ele>1598.21</ele>
  <time>2026-08-27T18:27:39Z</time>
  <course>244.99</course>
  <speed>0.38</speed>
  <fix>3d</fix>
</trkpt>
<trkpt lat="40.0728399" lon="-105.2305799">
  <ele>1598.3</ele>
  <time>2026-08-27T18:27:39Z</time>
  <course>11.08</course>
  <speed>0.2920616373302047</speed>
  <fix>3d</fix>
</trkpt>
<trkpt lat="40.0728401" lon="-105.2305797">
  <ele>1598.21</ele>
  <time>2026-08-27T18:27:39Z</time>
  <course>241.5</course>
  <speed>0.34</speed>
  <fix>3d</fix>
</trkpt>
<trkpt lat="40.0728396" lon="-105.2305804">
  <ele>1598.3</ele>
  <time>2026-08-27T18:27:39Z</time>
  <course>11.13</course>
  <speed>0.212602916254693</speed>
  <fix>3d</fix>
</trkpt>
<trkpt lat="40.0728399" lon="-105.2305803">
  <ele>1598.21</ele>
  <time>2026-08-27T18:27:39Z</time>
  <course>234.16</course>
  <speed>0.25</speed>
  <fix>3d</fix>
</trkpt>
<trkpt lat="40.0728394" lon="-105.2305807">
  <ele>1598.31</ele>
  <time>2026-08-27T18:27:39Z</time>
  <course>11.13</course>
  <speed>0.13892443989449804</speed>
  <fix>3d</fix>
</trkpt>
<trkpt lat="40.0728396" lon="-105.2305806">
  <ele>1598.22</ele>
  <time>2026-08-27T18:27:39Z</time>
  <course>224.81</course>
  <speed>0.17</speed>
  <fix>3d</fix>
</trkpt>
<trkpt lat="40.0728392" lon="-105.2305808">
  <ele>1598.31</ele>
  <time>2026-08-27T18:27:39Z</time>
  <course>11.13</course>
  <speed>0.08</speed>
  <fix>3d</fix>
</trkpt>
<trkpt lat="40.0728394" lon="-105.2305808">
  <ele>1598.22</ele>
  <time>2026-08-27T18:27:39Z</time>
  <course>207.85</course>
  <speed>0.09</speed>
  <fix>3d</fix>
</trkpt>
<trkpt lat="40.0728392" lon="-105.2305807">
  <ele>1598.32</ele>
  <time>2026-08-27T18:27:39Z</time>
  <course>11.13</course>
  <speed>0.06403124237432849</speed>
  <fix>3d</fix>
</trkpt>
<trkpt lat="40.0728393" lon="-105.2305808">
  <ele>1598.22</ele>
  <time>2026-08-27T18:27:39Z</time>
  <course>151.8</course>
  <speed>0.04</speed>
  <fix>3d</fix>
</trkpt>
<trkpt lat="40.0728392" lon="-105.2305806">
  <ele>1598.32</ele>
  <time>2026-08-27T18:27:39Z</time>
  <course>11.14</course>
  <speed>0.09</speed>
  <fix>3d</fix>
</trkpt>
<trkpt lat="40.0728393" lon="-105.2305807">
  <ele>1598.22</ele>
  <time>2026-08-27T18:27:39Z</time>
  <course>88.79</course>
  <speed>0.07</speed>
  <fix>3d</fix>
</trkpt>
<trkpt lat="40.0728392" lon="-105.2305803">
  <ele>1598.31</ele>
  <time>2026-08-27T18:27:39Z</time>
  <course>11.14</course>
  <speed>0.13341664064126335</speed>
  <fix>3d</fix>
</trkpt>
<trkpt lat="40.0728393" lon="-105.2305806">
  <ele>1598.21</ele>
  <time>2026-08-27T18:27:39Z</time>
  <course>71.82</course>
  <speed>0.13</speed>
  <fix>3d</fix>
</trkpt>
<trkpt lat="40.0728393" lon="-105.23058">
  <ele>1598.3</ele>
  <time>2026-08-27T18:27:39Z</time>
  <course>11.15</course>
  <speed>0.18027756377319945</speed>
  <fix>3d</fix>
</trkpt>
<trkpt lat="40.0728394" lon="-105.2305803">
  <ele>1598.21</ele>
  <time>2026-08-27T18:27:39Z</time>
  <course>64.96</course>
  <speed>0.18</speed>
  <fix>3d</fix>
</trkpt>
<trkpt lat="40.0728395" lon="-105.2305795">
  <ele>1598.3</ele>
  <time>2026-08-27T18:27:39Z</time>
  <course>11.12</course>
  <speed>0.2102379604162864</speed>
  <fix>3d</fix>
</trkpt>
<trkpt lat="40.0728395" lon="-105.2305798">
  <ele>1598.21</ele>
  <time>2026-08-27T18:27:39Z</time>
  <course>61.1</course>
  <speed>0.22</speed>
  <fix>3d</fix>
</trkpt>
<trkpt lat="40.0728397" lon="-105.230579">
  <ele>1598.3</ele>
  <time>2026-08-27T18:27:39Z</time>
  <course>11.11</course>
  <speed>0.23706539182259395</speed>
  <fix>3d</fix>
</trkpt>
<trkpt lat="40.0728397" lon="-105.2305793">
  <ele>1598.21</ele>
  <time>2026-08-27T18:27:39Z</time>
  <course>58.52</course>
  <speed>0.26</speed>
  <fix>3d</fix>
</trkpt>
<trkpt lat="40.07284" lon="-105.2305785">
  <ele>1598.29</ele>
  <time>2026-08-27T18:27:39Z</time>
  <course>11.16</course>
  <speed>0.25553864678361277</speed>
  <fix>3d</fix>
</trkpt>
<trkpt lat="40.07284" lon="-105.2305787">
  <ele>1598.21</ele>
  <time>2026-08-27T18:27:39Z</time>
  <course>56.55</course>
  <speed>0.29</speed>
  <fix>3d</fix>
</trkpt>
<trkpt lat="40.0728403" lon="-105.2305779">
  <ele>1598.29</ele>
  <time>2026-08-27T18:27:39Z</time>
  <course>11.18</course>
  <speed>0.2692582403567252</speed>
  <fix>3d</fix>
</trkpt>
<trkpt lat="40.0728403" lon="-105.2305782">
  <ele>1598.21</ele>
  <time>2026-08-27T18:27:39Z</time>
  <course>55.02</course>
  <speed>0.3</speed>
  <fix>3d</fix>
</trkpt>
<trkpt lat="40.0728406" lon="-105.2305773">
  <ele>1598.29</ele>
  <time>2026-08-27T18:27:40Z</time>
  <course>11.18</course>
  <speed>0.260768096208106</speed>
  <fix>3d</fix>
</trkpt>
<trkpt lat="40.0728406" lon="-105.2305776">
  <ele>1598.21</ele>
  <time>2026-08-27T18:27:40Z</time>
  <course>53.84</course>
  <speed>0.31</speed>
  <fix>3d</fix>
</trkpt>
<trkpt lat="40.0728409" lon="-105.2305768">
  <ele>1598.29</ele>
  <time>2026-08-27T18:27:40Z</time>
  <course>11.16</course>
  <speed>0.25238858928247926</speed>
  <fix>3d</fix>
</trkpt>
<trkpt lat="40.0728409" lon="-105.230577">
  <ele>1598.21</ele>
  <time>2026-08-27T18:27:40Z</time>
  <course>52.9</course>
  <speed>0.3</speed>
  <fix>3d</fix>
</trkpt>
<trkpt lat="40.0728412" lon="-105.2305762">
  <ele>1598.29</ele>
  <time>2026-08-27T18:27:40Z</time>
  <course>11.19</course>
  <speed>0.23853720883753127</speed>
  <fix>3d</fix>
</trkpt>
<trkpt lat="40.0728413" lon="-105.2305765">
  <ele>1598.22</ele>
  <time>2026-08-27T18:27:40Z</time>
  <course>52.2</course>
  <speed>0.29</speed>
  <fix>3d</fix>
</trkpt>
<trkpt lat="40.0728415" lon="-105.2305757">
  <ele>1598.3</ele>
  <time>2026-08-27T18:27:40Z</time>
  <course>11.19</course>
  <speed>0.21633307652783937</speed>
  <fix>3d</fix>
</trkpt>
<trkpt lat="40.0728416" lon="-105.2305759">
  <ele>1598.22</ele>
  <time>2026-08-27T18:27:40Z</time>
  <course>51.66</course>
  <speed>0.27</speed>
  <fix>3d</fix>
</trkpt>
<trkpt lat="40.0728418" lon="-105.2305753">
  <ele>1598.3</ele>
  <time>2026-08-27T18:27:40Z</time>
  <course>11.36</course>
  <speed>0.194164878389476</speed>
  <fix>3d</fix>
</trkpt>
<trkpt lat="40.0728419" lon="-105.2305754">
  <ele>1598.22</ele>
  <time>2026-08-27T18:27:40Z</time>
  <course>51.15</course>
  <speed>0.25</speed>
  <fix>3d</fix>
</trkpt>
<trkpt lat="40.072842" lon="-105.2305749">
  <ele>1598.28</ele>
  <time>2026-08-27T18:27:40Z</time>
  <course>11.76</course>
  <speed>0.15811388300841897</speed>
  <fix>3d</fix>
</trkpt>
<trkpt lat="40.0728421" lon="-105.2305749">
  <ele>1598.22</ele>
  <time>2026-08-27T18:27:40Z</time>
  <course>50.66</course>
  <speed>0.22</speed>
  <fix>3d</fix>
</trkpt>
<trkpt lat="40.0728423" lon="-105.2305746">
  <ele>1598.23</ele>
  <time>2026-08-27T18:27:40Z</time>
  <course>12.09</course>
  <speed>0.130384048104053</speed>
  <fix>3d</fix>
</trkpt>
<trkpt lat="40.0728424" lon="-105.2305746">
  <ele>1598.18</ele>
  <time>2026-08-27T18:27:40Z</time>
  <course>50.4</course>
  <speed>0.19</speed>
  <fix>3d</fix>
</trkpt>
<trkpt lat="40.0728424" lon="-105.2305743">
  <ele>1598.13</ele>
  <time>2026-08-27T18:27:40Z</time>
  <course>12.41</course>
  <speed>0.10295630140987001</speed>
  <fix>3d</fix>
</trkpt>
<trkpt lat="40.0728426" lon="-105.2305743">
  <ele>1598.11</ele>
  <time>2026-08-27T18:27:40Z</time>
  <course>50.57</course>
  <speed>0.16</speed>
  <fix>3d</fix>
</trkpt>
<trkpt lat="40.0728426" lon="-105.230574">
  <ele>1597.99</ele>
  <time>2026-08-27T18:27:40Z</time>
  <course>12.73</course>
  <speed>0.07615773105863909</speed>
  <fix>3d</fix>
</trkpt>
<trkpt lat="40.0728427" lon="-105.230574">
  <ele>1598.0</ele>
  <time>2026-08-27T18:27:40Z</time>
  <course>51.4</course>
  <speed>0.12</speed>
  <fix>3d</fix>
</trkpt>
<trkpt lat="40.0728427" lon="-105.2305738">
  <ele>1597.8</ele>
  <time>2026-08-27T18:27:40Z</time>
  <course>13.03</course>
  <speed>0.05099019513592785</speed>
  <fix>3d</fix>
</trkpt>
<trkpt lat="40.0728429" lon="-105.2305739">
  <ele>1597.85</ele>
  <time>2026-08-27T18:27:40Z</time>
  <course>53.45</course>
  <speed>0.09</speed>
  <fix>3d</fix>
</trkpt>
<trkpt lat="40.0728427" lon="-105.2305737">
  <ele>1597.56</ele>
  <time>2026-08-27T18:27:40Z</time>
  <course>13.32</course>
  <speed>0.03</speed>
  <fix>3d</fix>
</trkpt>
<trkpt lat="40.072843" lon="-105.2305737">
  <ele>1597.64</ele>
  <time>2026-08-27T18:27:40Z</time>
  <course>57.89</course>
  <speed>0.06</speed>
  <fix>3d</fix>
</trkpt>
<trkpt lat="40.0728428" lon="-105.2305736">
  <ele>1597.28</ele>
  <time>2026-08-27T18:27:40Z</time>
  <course>13.49</course>
  <speed>0.0282842712474619</speed>
  <fix>3d</fix>
</trkpt>
<trkpt lat="40.0728431" lon="-105.2305735">
  <ele>1597.39</ele>
  <time>2026-08-27T18:27:40Z</time>
  <course>69.06</course>
  <speed>0.04</speed>
  <fix>3d</fix>
</trkpt>
<trkpt lat="40.0728428" lon="-105.2305735">
  <ele>1596.99</ele>
  <time>2026-08-27T18:27:40Z</time>
  <course>13.44</course>
  <speed>0.0412310562561766</speed>
  <fix>3d</fix>
</trkpt>
<trkpt lat="40.0728431" lon="-105.2305734">
  <ele>1597.11</ele>
  <time>2026-08-27T18:27:40Z</time>
  <course>104.73</course>
  <speed>0.02</speed>
  <fix>3d</fix>
</trkpt>
<trkpt lat="40.0728428" lon="-105.2305735">
  <ele>1596.72</ele>
  <time>2026-08-27T18:27:40Z</time>
  <course>13.29</course>
  <speed>0.06</speed>
  <fix>3d</fix>
</trkpt>
<trkpt lat="40.072843" lon="-105.2305734">
  <ele>1596.83</ele>
  <time>2026-08-27T18:27:40Z</time>
  <course>155.68</course>
  <speed>0.03</speed>
  <fix>3d</fix>
</trkpt>
<trkpt lat="40.0728427" lon="-105.2305735">
  <ele>1596.49</ele>
  <time>2026-08-27T18:27:40Z</time>
  <course>13.07</course>
  <speed>0.08</speed>
  <fix>3d</fix>
</trkpt>
<trkpt lat="40.072843" lon="-105.2305734">
  <ele>1596.58</ele>
  <time>2026-08-27T18:27:40Z</time>
  <course>178.51</course>
  <speed>0.04</speed>
  <fix>3d</fix>
</trkpt>
<trkpt lat="40.0728426" lon="-105.2305735">
  <ele>1596.31</ele>
  <time>2026-08-27T18:27:40Z</time>
  <course>12.8</course>
  <speed>0.09055385138137417</speed>
  <fix>3d</fix>
</trkpt>
<trkpt lat="40.0728429" lon="-105.2305734">
  <ele>1596.37</ele>
  <time>2026-08-27T18:27:40Z</time>
  <course>190.96</course>
  <speed>0.06</speed>
  <fix>3d</fix>
</trkpt>
<trkpt lat="40.0728425" lon="-105.2305736">
  <ele>1596.17</ele>
  <time>2026-08-27T18:27:40Z</time>
  <course>12.61</course>
  <speed>0.09486832980505139</speed>
  <fix>3d</fix>
</trkpt>
<trkpt lat="40.0728428" lon="-105.2305734">
  <ele>1596.2</ele>
  <time>2026-08-27T18:27:40Z</time>
  <course>201.12</course>
  <speed>0.07</speed>
  <fix>3d</fix>
</trkpt>
<trkpt lat="40.0728424" lon="-105.2305736">
  <ele>1596.06</ele>
  <time>2026-08-27T18:27:40Z</time>
  <course>12.48</course>
  <speed>0.09848857801796104</speed>
  <fix>3d</fix>
</trkpt>
<trkpt lat="40.0728427" lon="-105.2305734">
  <ele>1596.07</ele>
  <time>2026-08-27T18:27:40Z</time>
  <course>210.35</course>
  <speed>0.08</speed>
  <fix>3d</fix>
</trkpt>
<trkpt lat="40.0728423" lon="-105.2305737">
  <ele>1595.96</ele>
  <time>2026-08-27T18:27:40Z</time>
  <course>12.36</course>
  <speed>0.10816653826391968</speed>
  <fix>3d</fix>
</trkpt>
<trkpt lat="40.0728426" lon="-105.2305735">
  <ele>1595.97</ele>
  <time>2026-08-27T18:27:40Z</time>
  <course>218.19</course>
  <speed>0.09</speed>
  <fix>3d</fix>
</trkpt>
<trkpt lat="40.0728422" lon="-105.2305738">
  <ele>1595.88</ele>
  <time>2026-08-27T18:27:40Z</time>
  <course>12.28</course>
  <speed>0.11401754250991379</speed>
  <fix>3d</fix>
</trkpt>
<trkpt lat="40.0728424" lon="-105.2305738">
  <ele>1595.88</ele>
  <time>2026-08-27T18:27:40Z</time>
  <course>224.78</course>
  <speed>0.1</speed>
  <fix>3d</fix>
</trkpt>
<trkpt lat="40.072842" lon="-105.230574">
  <ele>1595.79</ele>
  <time>2026-08-27T18:27:40Z</time>
  <course>12.2</course>
  <speed>0.1063014581273465</speed>
  <fix>3d</fix>
</trkpt>
<trkpt lat="40.0728423" lon="-105.2305739">
  <ele>1595.79</ele>
  <time>2026-08-27T18:27:40Z</time>
  <course>230.47</course>
  <speed>0.11</speed>
  <fix>3d</fix>
</trkpt>
<trkpt lat="40.0728419" lon="-105.2305742">
  <ele>1595.7</ele>
  <time>2026-08-27T18:27:40Z</time>
  <course>12.13</course>
  <speed>0.1063014581273465</speed>
  <fix>3d</fix>
</trkpt>
<trkpt lat="40.0728421" lon="-105.2305742">
  <ele>1595.71</ele>
  <time>2026-08-27T18:27:40Z</time>
  <course>235.58</course>
  <speed>0.11</speed>
  <fix>3d</fix>
</trkpt>
<trkpt lat="40.0728419" lon="-105.2305744">
  <ele>1595.62</ele>
  <time>2026-08-27T18:27:40Z</time>
  <course>12.06</course>
  <speed>0.1</speed>
  <fix>3d</fix>
</trkpt>
<trkpt lat="40.072842" lon="-105.2305744">
  <ele>1595.62</ele>
  <time>2026-08-27T18:27:40Z</time>
  <course>240.35</course>
  <speed>0.11</speed>
  <fix>3d</fix>
</trkpt>
<trkpt lat="40.0728418" lon="-105.2305746">
  <ele>1595.53</ele>
  <time>2026-08-27T18:27:40Z</time>
  <course>12.01</course>
  <speed>0.08602325267042626</speed>
  <fix>3d</fix>
</trkpt>
<trkpt lat="40.0728419" lon="-105.2305746">
  <ele>1595.53</ele>
  <time>2026-08-27T18:27:40Z</time>
  <course>244.97</course>
  <speed>0.1</speed>
  <fix>3d</fix>
</trkpt>
<trkpt lat="40.0728417" lon="-105.2305748">
  <ele>1595.43</ele>
  <time>2026-08-27T18:27:40Z</time>
  <course>12.01</course>
  <speed>0.08062257748298549</speed>
  <fix>3d</fix>
</trkpt>
<trkpt lat="40.0728419" lon="-105.2305748">
  <ele>1595.44</ele>
  <time>2026-08-27T18:27:40Z</time>
  <course>249.69</course>
  <speed>0.1</speed>
  <fix>3d</fix>
</trkpt>
<trkpt lat="40.0728417" lon="-105.230575">
  <ele>1595.34</ele>
  <time>2026-08-27T18:27:40Z</time>
  <course>11.98</course>
  <speed>0.0670820393249937</speed>
  <fix>3d</fix>
</trkpt>
<trkpt lat="40.0728418" lon="-105.2305751">
  <ele>1595.35</ele>
  <time>2026-08-27T18:27:40Z</time>
  <course>254.69</course>
  <speed>0.09</speed>
  <fix>3d</fix>
</trkpt>
<trkpt lat="40.0728417" lon="-105.2305752">
  <ele>1595.24</ele>
  <time>2026-08-27T18:27:40Z</time>
  <course>11.95</course>
  <speed>0.053851648071345036</speed>
  <fix>3d</fix>
</trkpt>
<trkpt lat="40.0728418" lon="-105.2305753">
  <ele>1595.26</ele>
  <time>2026-08-27T18:27:40Z</time>
  <course>260.42</course>
  <speed>0.08</speed>
  <fix>3d</fix>
</trkpt>
<trkpt lat="40.0728417" lon="-105.2305754">
  <ele>1595.15</ele>
  <time>2026-08-27T18:27:40Z</time>
  <course>11.94</course>
  <speed>0.0412310562561766</speed>
  <fix>3d</fix>
</trkpt>
<trkpt lat="40.0728418" lon="-105.2305754">
  <ele>1595.15</ele>
  <time>2026-08-27T18:27:40Z</time>
  <course>267.7</course>
  <speed>0.07</speed>
  <fix>3d</fix>
</trkpt>
<trkpt lat="40.0728417" lon="-105.2305755">
  <ele>1595.05</ele>
  <time>2026-08-27T18:27:40Z</time>
  <course>11.92</course>
  <speed>0.03</speed>
  <fix>3d</fix>
</trkpt>
<trkpt lat="40.0728418" lon="-105.2305756">
  <ele>1595.06</ele>
  <time>2026-08-27T18:27:40Z</time>
  <course>276.98</course>
  <speed>0.06</speed>
  <fix>3d</fix>
</trkpt>
<trkpt lat="40.0728417" lon="-105.2305756">
  <ele>1594.95</ele>
  <time>2026-08-27T18:27:40Z</time>
  <course>11.91</course>
  <speed>0.02</speed>
  <fix>3d</fix>
</trkpt>
<trkpt lat="40.0728418" lon="-105.2305757">
  <ele>1594.96</ele>
  <time>2026-08-27T18:27:40Z</time>
  <course>288.37</course>
  <speed>0.05</speed>
  <fix>3d</fix>
</trkpt>
<trkpt lat="40.0728417" lon="-105.2305757">
  <ele>1594.85</ele>
  <time>2026-08-27T18:27:40Z</time>
  <course>11.9</course>
  <speed>0.0</speed>
  <fix>3d</fix>
</trkpt>
<trkpt lat="40.0728419" lon="-105.2305758">
  <ele>1594.86</ele>
  <time>2026-08-27T18:27:40Z</time>
  <course>301.97</course>
  <speed>0.04</speed>
  <fix>3d</fix>
</trkpt>
<trkpt lat="40.0728417" lon="-105.2305757">
  <ele>1594.75</ele>
  <time>2026-08-27T18:27:40Z</time>
  <course>11.89</course>
  <speed>0.01</speed>
  <fix>3d</fix>
</trkpt>
<trkpt lat="40.0728419" lon="-105.2305759">
  <ele>1594.76</ele>
  <time>2026-08-27T18:27:40Z</time>
  <course>317.15</course>
  <speed>0.04</speed>
  <fix>3d</fix>
</trkpt>
<trkpt lat="40.0728418" lon="-105.2305758">
  <ele>1594.65</ele>
  <time>2026-08-27T18:27:40Z</time>
  <course>11.89</course>
  <speed>0.01414213562373095</speed>
  <fix>3d</fix>
</trkpt>
<trkpt lat="40.0728419" lon="-105.230576">
  <ele>1594.65</ele>
  <time>2026-08-27T18:27:40Z</time>
  <course>332.63</course>
  <speed>0.04</speed>
  <fix>3d</fix>
</trkpt>
<trkpt lat="40.0728419" lon="-105.2305758">
  <ele>1594.55</ele>
  <time>2026-08-27T18:27:40Z</time>
  <course>11.88</course>
  <speed>0.01414213562373095</speed>
  <fix>3d</fix>
</trkpt>
<trkpt lat="40.0728419" lon="-105.230576">
  <ele>1594.56</ele>
  <time>2026-08-27T18:27:40Z</time>
  <course>346.92</course>
  <speed>0.04</speed>
  <fix>3d</fix>
</trkpt>
<trkpt lat="40.0728419" lon="-105.2305758">
  <ele>1594.45</ele>
  <time>2026-08-27T18:27:40Z</time>
  <course>11.87</course>
  <speed>0.022360679774997897</speed>
  <fix>3d</fix>
</trkpt>
<trkpt lat="40.072842" lon="-105.230576">
  <ele>1594.46</ele>
  <time>2026-08-27T18:27:40Z</time>
  <course>359.22</course>
  <speed>0.04</speed>
  <fix>3d</fix>
</trkpt>
<trkpt lat="40.072842" lon="-105.2305758">
  <ele>1594.34</ele>
  <time>2026-08-27T18:27:40Z</time>
  <course>11.86</course>
  <speed>0.0316227766016838</speed>
  <fix>3d</fix>
</trkpt>
<trkpt lat="40.072842" lon="-105.230576">
  <ele>1594.36</ele>
  <time>2026-08-27T18:27:40Z</time>
  <course>9.58</course>
  <speed>0.04</speed>
  <fix>3d</fix>
</trkpt>
<trkpt lat="40.072842" lon="-105.2305758">
  <ele>1594.24</ele>
  <time>2026-08-27T18:27:40Z</time>
  <course>11.85</course>
  <speed>0.0316227766016838</speed>
  <fix>3d</fix>
</trkpt>
<trkpt lat="40.0728421" lon="-105.230576">
  <ele>1594.26</ele>
  <time>2026-08-27T18:27:40Z</time>
  <course>18.02</course>
  <speed>0.04</speed>
  <fix>3d</fix>
</trkpt>
<trkpt lat="40.0728421" lon="-105.2305758">
  <ele>1594.14</ele>
  <time>2026-08-27T18:27:40Z</time>
  <course>11.84</course>
  <speed>0.0412310562561766</speed>
  <fix>3d</fix>
</trkpt>
<trkpt lat="40.0728422" lon="-105.230576">
  <ele>1594.15</ele>
  <time>2026-08-27T18:27:40Z</time>
  <course>25.1</course>
  <speed>0.04</speed>
  <fix>3d</fix>
</trkpt>
<trkpt lat="40.0728422" lon="-105.2305757">
  <ele>1594.05</ele>
  <time>2026-08-27T18:27:40Z</time>
  <course>11.83</course>
  <speed>0.0412310562561766</speed>
  <fix>3d</fix>
</trkpt>
<trkpt lat="40.0728423" lon="-105.230576">
  <ele>1594.06</ele>
  <time>2026-08-27T18:27:40Z</time>
  <course>31.25</course>
  <speed>0.04</speed>
  <fix>3d</fix>
</trkpt>
<trkpt lat="40.0728422" lon="-105.2305757">
  <ele>1593.95</ele>
  <time>2026-08-27T18:27:40Z</time>
  <course>11.83</course>
  <speed>0.04</speed>
  <fix>3d</fix>
</trkpt>
<trkpt lat="40.0728423" lon="-105.230576">
  <ele>1593.96</ele>
  <time>2026-08-27T18:27:40Z</time>
  <course>36.82</course>
  <speed>0.04</speed>
  <fix>3d</fix>
</trkpt>
<trkpt lat="40.0728422" lon="-105.2305756">
  <ele>1593.85</ele>
  <time>2026-08-27T18:27:40Z</time>
  <course>11.83</course>
  <speed>0.04</speed>
  <fix>3d</fix>
</trkpt>
<trkpt lat="40.0728424" lon="-105.2305759">
  <ele>1593.86</ele>
  <time>2026-08-27T18:27:40Z</time>
  <course>42.47</course>
  <speed>0.04</speed>
  <fix>3d</fix>
</trkpt>
<trkpt lat="40.0728423" lon="-105.2305756">
  <ele>1593.75</ele>
  <time>2026-08-27T18:27:40Z</time>
  <course>11.81</course>
  <speed>0.04</speed>
  <fix>3d</fix>
</trkpt>
<trkpt lat="40.0728425" lon="-105.2305758">
  <ele>1593.77</ele>
  <time>2026-08-27T18:27:40Z</time>
  <course>48.4</course>
  <speed>0.03</speed>
  <fix>3d</fix>
</trkpt>
<trkpt lat="40.0728423" lon="-105.2305755">
  <ele>1593.65</ele>
  <time>2026-08-27T18:27:40Z</time>
  <course>11.81</course>
  <speed>0.04</speed>
  <fix>3d</fix>
</trkpt>
<trkpt lat="40.0728425" lon="-105.2305758">
  <ele>1593.66</ele>
  <time>2026-08-27T18:27:40Z</time>
  <course>54.97</course>
  <speed>0.03</speed>
  <fix>3d</fix>
</trkpt>
<trkpt lat="40.0728423" lon="-105.2305755">
  <ele>1593.55</ele>
  <time>2026-08-27T18:27:40Z</time>
  <course>11.8</course>
  <speed>0.0412310562561766</speed>
  <fix>3d</fix>
</trkpt>
<trkpt lat="40.0728425" lon="-105.2305757">
  <ele>1593.56</ele>
  <time>2026-08-27T18:27:40Z</time>
  <course>62.41</course>
  <speed>0.03</speed>
  <fix>3d</fix>
</trkpt>
<trkpt lat="40.0728424" lon="-105.2305754">
  <ele>1593.45</ele>
  <time>2026-08-27T18:27:40Z</time>
  <course>11.79</course>
  <speed>0.0412310562561766</speed>
  <fix>3d</fix>
</trkpt>
<trkpt lat="40.0728426" lon="-105.2305756">
  <ele>1593.46</ele>
  <time>2026-08-27T18:27:40Z</time>
  <course>70.67</course>
  <speed>0.02</speed>
  <fix>3d</fix>
</trkpt>
<trkpt lat="40.0728424" lon="-105.2305754">
  <ele>1593.35</ele>
  <time>2026-08-27T18:27:40Z</time>
  <course>11.78</course>
  <speed>0.044721359549995794</speed>
  <fix>3d</fix>
</trkpt>
<trkpt lat="40.0728426" lon="-105.2305756">
  <ele>1593.36</ele>
  <time>2026-08-27T18:27:40Z</time>
  <course>79.86</course>
  <speed>0.02</speed>
  <fix>3d</fix>
</trkpt>
<trkpt lat="40.0728424" lon="-105.2305753">
  <ele>1593.25</ele>
  <time>2026-08-27T18:27:40Z</time>
  <course>11.78</course>
  <speed>0.044721359549995794</speed>
  <fix>3d</fix>
</trkpt>
<trkpt lat="40.0728426" lon="-105.2305755">
  <ele>1593.26</ele>
  <time>2026-08-27T18:27:40Z</time>
  <course>89.98</course>
  <speed>0.02</speed>
  <fix>3d</fix>
</trkpt>
<trkpt lat="40.0728424" lon="-105.2305753">
  <ele>1593.15</ele>
  <time>2026-08-27T18:27:40Z</time>
  <course>11.77</course>
  <speed>0.04242640687119285</speed>
  <fix>3d</fix>
</trkpt>
<trkpt lat="40.0728426" lon="-105.2305755">
  <ele>1593.15</ele>
  <time>2026-08-27T18:27:40Z</time>
  <course>101.29</course>
  <speed>0.02</speed>
  <fix>3d</fix>
</trkpt>
<trkpt lat="40.0728424" lon="-105.2305752">
  <ele>1593.05</ele>
  <time>2026-08-27T18:27:40Z</time>
  <course>11.77</course>
  <speed>0.04242640687119285</speed>
  <fix>3d</fix>
</trkpt>
<trkpt lat="40.0728426" lon="-105.2305754">
  <ele>1593.06</ele>
  <time>2026-08-27T18:27:40Z</time>
  <course>113.2</course>
  <speed>0.02</speed>
  <fix>3d</fix>
</trkpt>
<trkpt lat="40.0728424" lon="-105.2305752">
  <ele>1592.95</ele>
  <time>2026-08-27T18:27:40Z</time>
  <course>11.76</course>
  <speed>0.04242640687119285</speed>
  <fix>3d</fix>
</trkpt>
<trkpt lat="40.0728426" lon="-105.2305753">
  <ele>1592.96</ele>
  <time>2026-08-27T18:27:40Z</time>
  <course>125.07</course>
  <speed>0.02</speed>
  <fix>3d</fix>
</trkpt>
<trkpt lat="40.0728424" lon="-105.2305752">
  <ele>1592.85</ele>
  <time>2026-08-27T18:27:40Z</time>
  <course>11.75</course>
  <speed>0.03605551275463989</speed>
  <fix>3d</fix>
</trkpt>
<trkpt lat="40.0728426" lon="-105.2305753">
  <ele>1592.86</ele>
  <time>2026-08-27T18:27:40Z</time>
  <course>136.48</course>
  <speed>0.02</speed>
  <fix>3d</fix>
</trkpt>
<trkpt lat="40.0728424" lon="-105.2305751">
  <ele>1592.75</ele>
  <time>2026-08-27T18:27:40Z</time>
  <course>11.74</course>
  <speed>0.03605551275463989</speed>
  <fix>3d</fix>
</trkpt>
<trkpt lat="40.0728426" lon="-105.2305753">
  <ele>1592.76</ele>
  <time>2026-08-27T18:27:40Z</time>
  <course>147.5</course>
  <speed>0.02</speed>
  <fix>3d</fix>
</trkpt>
<trkpt lat="40.0728424" lon="-105.2305751">
  <ele>1592.65</ele>
  <time>2026-08-27T18:27:40Z</time>
  <course>11.73</course>
  <speed>0.03605551275463989</speed>
  <fix>3d</fix>
</trkpt>
<trkpt lat="40.0728426" lon="-105.2305753">
  <ele>1592.65</ele>
  <time>2026-08-27T18:27:40Z</time>
  <course>156.95</course>
  <speed>0.02</speed>
  <fix>3d</fix>
</trkpt>
<trkpt lat="40.0728423" lon="-105.2305751">
  <ele>1592.55</ele>
  <time>2026-08-27T18:27:40Z</time>
  <course>11.72</course>
  <speed>0.03605551275463989</speed>
  <fix>3d</fix>
</trkpt>
<trkpt lat="40.0728425" lon="-105.2305753">
  <ele>1592.56</ele>
  <time>2026-08-27T18:27:40Z</time>
  <course>164.75</course>
  <speed>0.02</speed>
  <fix>3d</fix>
</trkpt>
<trkpt lat="40.0728423" lon="-105.2305751">
  <ele>1592.45</ele>
  <time>2026-08-27T18:27:40Z</time>
  <course>11.71</course>
  <speed>0.0316227766016838</speed>
  <fix>3d</fix>
</trkpt>
<trkpt lat="40.0728425" lon="-105.2305753">
  <ele>1592.46</ele>
  <time>2026-08-27T18:27:40Z</time>
  <course>171.97</course>
  <speed>0.02</speed>
  <fix>3d</fix>
</trkpt>
<trkpt lat="40.0728423" lon="-105.2305751">
  <ele>1592.35</ele>
  <time>2026-08-27T18:27:40Z</time>
  <course>11.7</course>
  <speed>0.0316227766016838</speed>
  <fix>3d</fix>
</trkpt>
<trkpt lat="40.0728424" lon="-105.2305753">
  <ele>1592.36</ele>
  <time>2026-08-27T18:27:40Z</time>
  <course>178.04</course>
  <speed>0.02</speed>
  <fix>3d</fix>
</trkpt>
<trkpt lat="40.0728423" lon="-105.2305751">
  <ele>1592.25</ele>
  <time>2026-08-27T18:27:40Z</time>
  <course>11.7</course>
  <speed>0.0316227766016838</speed>
  <fix>3d</fix>
</trkpt>
<trkpt lat="40.0728424" lon="-105.2305753">
  <ele>1592.26</ele>
  <time>2026-08-27T18:27:40Z</time>
  <course>183.37</course>
  <speed>0.02</speed>
  <fix>3d</fix>
</trkpt>
<trkpt lat="40.0728422" lon="-105.2305751">
  <ele>1592.15</ele>
  <time>2026-08-27T18:27:40Z</time>
  <course>11.69</course>
  <speed>0.0316227766016838</speed>
  <fix>3d</fix>
</trkpt>
<trkpt lat="40.0728424" lon="-105.2305753">
  <ele>1592.15</ele>
  <time>2026-08-27T18:27:40Z</time>
  <course>187.86</course>
  <speed>0.02</speed>
  <fix>3d</fix>
</trkpt>
<trkpt lat="40.0728422" lon="-105.2305752">
  <ele>1592.05</ele>
  <time>2026-08-27T18:27:40Z</time>
  <course>11.69</course>
  <speed>0.0316227766016838</speed>
  <fix>3d</fix>
</trkpt>
<trkpt lat="40.0728423" lon="-105.2305753">
  <ele>1592.06</ele>
  <time>2026-08-27T18:27:40Z</time>
  <course>191.66</course>
  <speed>0.01</speed>
  <fix>3d</fix>
</trkpt>
<trkpt lat="40.0728422" lon="-105.2305752">
  <ele>1591.95</ele>
  <time>2026-08-27T18:27:40Z</time>
  <course>11.69</course>
  <speed>0.0316227766016838</speed>
  <fix>3d</fix>
</trkpt>
<trkpt lat="40.0728423" lon="-105.2305753">
  <ele>1591.96</ele>
  <time>2026-08-27T18:27:40Z</time>
  <course>195.84</course>
  <speed>0.01</speed>
  <fix>3d</fix>
</trkpt>
<trkpt lat="40.0728422" lon="-105.2305752">
  <ele>1591.85</ele>
  <time>2026-08-27T18:27:40Z</time>
  <course>11.68</course>
  <speed>0.0316227766016838</speed>
  <fix>3d</fix>
</trkpt>
<trkpt lat="40.0728423" lon="-105.2305753">
  <ele>1591.86</ele>
  <time>2026-08-27T18:27:40Z</time>
  <course>201.32</course>
  <speed>0.01</speed>
  <fix>3d</fix>
</trkpt>
<trkpt lat="40.0728421" lon="-105.2305752">
  <ele>1591.75</ele>
  <time>2026-08-27T18:27:40Z</time>
  <course>11.68</course>
  <speed>0.022360679774997897</speed>
  <fix>3d</fix>
</trkpt>
<trkpt lat="40.0728423" lon="-105.2305753">
  <ele>1591.75</ele>
  <time>2026-08-27T18:27:40Z</time>
  <course>207.92</course>
  <speed>0.01</speed>
  <fix>3d</fix>
</trkpt>
<trkpt lat="40.0728421" lon="-105.2305752">
  <ele>1591.65</ele>
  <time>2026-08-27T18:27:40Z</time>
  <course>11.68</course>
  <speed>0.022360679774997897</speed>
  <fix>3d</fix>
</trkpt>
<trkpt lat="40.0728422" lon="-105.2305753">
  <ele>1591.64</ele>
  <time>2026-08-27T18:27:40Z</time>
  <course>214.81</course>
  <speed>0.01</speed>
  <fix>3d</fix>
</trkpt>
<trkpt lat="40.0728421" lon="-105.2305752">
  <ele>1591.55</ele>
  <time>2026-08-27T18:27:40Z</time>
  <course>11.67</course>
  <speed>0.022360679774997897</speed>
  <fix>3d</fix>
</trkpt>
<trkpt lat="40.0728421" lon="-105.2305753">
  <ele>1591.55</ele>
  <time>2026-08-27T18:27:40Z</time>
  <course>222.06</course>
  <speed>0.01</speed>
  <fix>3d</fix>
</trkpt>
<trkpt lat="40.0728421" lon="-105.2305752">
  <ele>1591.45</ele>
  <time>2026-08-27T18:27:40Z</time>
  <course>11.67</course>
  <speed>0.022360679774997897</speed>
  <fix>3d</fix>
</trkpt>
<trkpt lat="40.0728421" lon="-105.2305753">
  <ele>1591.45</ele>
  <time>2026-08-27T18:27:40Z</time>
  <course>232.26</course>
  <speed>0.0</speed>
  <fix>3d</fix>
</trkpt>
<trkpt lat="40.0728421" lon="-105.2305752">
  <ele>1591.35</ele>
  <time>2026-08-27T18:27:40Z</time>
  <course>11.66</course>
  <speed>0.01414213562373095</speed>
  <fix>3d</fix>
</trkpt>
<trkpt lat="40.0728421" lon="-105.2305753">
  <ele>1591.35</ele>
  <time>2026-08-27T18:27:40Z</time>
  <course>248.67</course>
  <speed>0.0</speed>
  <fix>3d</fix>
</trkpt>
<trkpt lat="40.0728421" lon="-105.2305752">
  <ele>1591.24</ele>
  <time>2026-08-27T18:27:40Z</time>
  <course>11.65</course>
  <speed>0.01414213562373095</speed>
  <fix>3d</fix>
</trkpt>
<trkpt lat="40.0728421" lon="-105.2305753">
  <ele>1591.25</ele>
  <time>2026-08-27T18:27:40Z</time>
  <course>271.18</course>
  <speed>0.0</speed>
  <fix>3d</fix>
</trkpt>
<trkpt lat="40.0728421" lon="-105.2305752">
  <ele>1591.14</ele>
  <time>2026-08-27T18:27:40Z</time>
  <course>11.64</course>
  <speed>0.01414213562373095</speed>
  <fix>3d</fix>
</trkpt>
<trkpt lat="40.0728421" lon="-105.2305753">
  <ele>1591.14</ele>
  <time>2026-08-27T18:27:40Z</time>
  <course>294.04</course>
  <speed>0.0</speed>
  <fix>3d</fix>
</trkpt>
<trkpt lat="40.0728421" lon="-105.2305752">
  <ele>1591.04</ele>
  <time>2026-08-27T18:27:40Z</time>
  <course>11.63</course>
  <speed>0.01414213562373095</speed>
  <fix>3d</fix>
</trkpt>
<trkpt lat="40.0728421" lon="-105.2305753">
  <ele>1591.05</ele>
  <time>2026-08-27T18:27:40Z</time>
  <course>310.6</course>
  <speed>0.0</speed>
  <fix>3d</fix>
</trkpt>
<trkpt lat="40.0728421" lon="-105.2305752">
  <ele>1590.94</ele>
  <time>2026-08-27T18:27:40Z</time>
  <course>11.62</course>
  <speed>0.01414213562373095</speed>
  <fix>3d</fix>
</trkpt>
<trkpt lat="40.0728421" lon="-105.2305753">
  <ele>1590.95</ele>
  <time>2026-08-27T18:27:40Z</time>
  <course>321.61</course>
  <speed>0.0</speed>
  <fix>3d</fix>
</trkpt>
<trkpt lat="40.0728421" lon="-105.2305752">
  <ele>1590.84</ele>
  <time>2026-08-27T18:27:40Z</time>
  <course>11.61</course>
  <speed>0.01</speed>
  <fix>3d</fix>
</trkpt>
<trkpt lat="40.0728421" lon="-105.2305753">
  <ele>1590.85</ele>
  <time>2026-08-27T18:27:40Z</time>
  <course>328.93</course>
  <speed>0.01</speed>
  <fix>3d</fix>
</trkpt>
<trkpt lat="40.0728421" lon="-105.2305752">
  <ele>1590.74</ele>
  <time>2026-08-27T18:27:40Z</time>
  <course>11.61</course>
  <speed>0.01</speed>
  <fix>3d</fix>
</trkpt>
<trkpt lat="40.0728421" lon="-105.2305753">
  <ele>1590.75</ele>
  <time>2026-08-27T18:27:40Z</time>
  <course>333.29</course>
  <speed>0.01</speed>
  <fix>3d</fix>
</trkpt>
<trkpt lat="40.0728421" lon="-105.2305752">
  <ele>1590.64</ele>
  <time>2026-08-27T18:27:40Z</time>
  <course>11.61</course>
  <speed>0.01</speed>
  <fix>3d</fix>
</trkpt>
<trkpt lat="40.0728421" lon="-105.2305753">
  <ele>1590.64</ele>
  <time>2026-08-27T18:27:40Z</time>
  <course>335.62</course>
  <speed>0.01</speed>
  <fix>3d</fix>
</trkpt>
<trkpt lat="40.0728421" lon="-105.2305752">
  <ele>1590.54</ele>
  <time>2026-08-27T18:27:40Z</time>
  <course>11.61</course>
  <speed>0.01</speed>
  <fix>3d</fix>
</trkpt>
<trkpt lat="40.0728421" lon="-105.2305753">
  <ele>1590.55</ele>
  <time>2026-08-27T18:27:40Z</time>
  <course>337.35</course>
  <speed>0.01</speed>
  <fix>3d</fix>
</trkpt>
<trkpt lat="40.0728421" lon="-105.2305752">
  <ele>1590.44</ele>
  <time>2026-08-27T18:27:40Z</time>
  <course>11.6</course>
  <speed>0.01</speed>
  <fix>3d</fix>
</trkpt>
<trkpt lat="40.0728422" lon="-105.2305753">
  <ele>1590.45</ele>
  <time>2026-08-27T18:27:40Z</time>
  <course>339.0</course>
  <speed>0.01</speed>
  <fix>3d</fix>
</trkpt>
<trkpt lat="40.0728421" lon="-105.2305752">
  <ele>1590.35</ele>
  <time>2026-08-27T18:27:40Z</time>
  <course>11.59</course>
  <speed>0.01</speed>
  <fix>3d</fix>
</trkpt>
<trkpt lat="40.0728423" lon="-105.2305753">
  <ele>1590.35</ele>
  <time>2026-08-27T18:27:40Z</time>
  <course>339.5</course>
  <speed>0.01</speed>
  <fix>3d</fix>
</trkpt>
<trkpt lat="40.0728421" lon="-105.2305752">
  <ele>1590.25</ele>
  <time>2026-08-27T18:27:40Z</time>
  <course>11.59</course>
  <speed>0.01</speed>
  <fix>3d</fix>
</trkpt>
<trkpt lat="40.0728423" lon="-105.2305754">
  <ele>1590.25</ele>
  <time>2026-08-27T18:27:40Z</time>
  <course>339.51</course>
  <speed>0.01</speed>
  <fix>3d</fix>
</trkpt>
<trkpt lat="40.0728421" lon="-105.2305752">
  <ele>1590.15</ele>
  <time>2026-08-27T18:27:40Z</time>
  <course>11.59</course>
  <speed>0.01</speed>
  <fix>3d</fix>
</trkpt>
<trkpt lat="40.0728423" lon="-105.2305755">
  <ele>1590.15</ele>
  <time>2026-08-27T18:27:40Z</time>
  <course>338.62</course>
  <speed>0.01</speed>
  <fix>3d</fix>
</trkpt>
<trkpt lat="40.0728421" lon="-105.2305752">
  <ele>1590.05</ele>
  <time>2026-08-27T18:27:40Z</time>
  <course>11.59</course>
  <speed>0.01</speed>
  <fix>3d</fix>
</trkpt>
<trkpt lat="40.0728423" lon="-105.2305755">
  <ele>1590.06</ele>
  <time>2026-08-27T18:27:40Z</time>
  <course>336.46</course>
  <speed>0.01</speed>
  <fix>3d</fix>
</trkpt>
<trkpt lat="40.0728422" lon="-105.2305752">
  <ele>1589.95</ele>
  <time>2026-08-27T18:27:40Z</time>
  <course>11.59</course>
  <speed>0.01414213562373095</speed>
  <fix>3d</fix>
</trkpt>
<trkpt lat="40.0728424" lon="-105.2305755">
  <ele>1589.96</ele>
  <time>2026-08-27T18:27:40Z</time>
  <course>334.44</course>
  <speed>0.01</speed>
  <fix>3d</fix>
</trkpt>
<trkpt lat="40.0728422" lon="-105.2305752">
  <ele>1589.85</ele>
  <time>2026-08-27T18:27:40Z</time>
  <course>11.59</course>
  <speed>0.01414213562373095</speed>
  <fix>3d</fix>
</trkpt>
<trkpt lat="40.0728424" lon="-105.2305755">
  <ele>1589.85</ele>
  <time>2026-08-27T18:27:40Z</time>
  <course>332.82</course>
  <speed>0.01</speed>
  <fix>3d</fix>
</trkpt>
<trkpt lat="40.0728422" lon="-105.2305752">
  <ele>1589.75</ele>
  <time>2026-08-27T18:27:40Z</time>
  <course>11.58</course>
  <speed>0.01414213562373095</speed>
  <fix>3d</fix>
</trkpt>
<trkpt lat="40.0728424" lon="-105.2305755">
  <ele>1589.75</ele>
  <time>2026-08-27T18:27:40Z</time>
  <course>332.64</course>
  <speed>0.0</speed>
  <fix>3d</fix>
</trkpt>
<trkpt lat="40.0728422" lon="-105.2305752">
  <ele>1589.65</ele>
  <time>2026-08-27T18:27:40Z</time>
  <course>11.57</course>
  <speed>0.01414213562373095</speed>
  <fix>3d</fix>
</trkpt>
<trkpt lat="40.0728424" lon="-105.2305755">
  <ele>1589.64</ele>
  <time>2026-08-27T18:27:40Z</time>
  <course>334.35</course>
  <speed>0.0</speed>
  <fix>3d</fix>
</trkpt>
<trkpt lat="40.0728422" lon="-105.2305753">
  <ele>1589.55</ele>
  <time>2026-08-27T18:27:40Z</time>
  <course>11.57</course>
  <speed>0.01414213562373095</speed>
  <fix>3d</fix>
</trkpt>
<trkpt lat="40.0728424" lon="-105.2305755">
  <ele>1589.55</ele>
  <time>2026-08-27T18:27:40Z</time>
  <course>337.36</course>
  <speed>0.0</speed>
  <fix>3d</fix>
</trkpt>
<trkpt lat="40.0728422" lon="-105.2305753">
  <ele>1589.45</ele>
  <time>2026-08-27T18:27:40Z</time>
  <course>11.57</course>
  <speed>0.0282842712474619</speed>
  <fix>3d</fix>
</trkpt>
<trkpt lat="40.0728424" lon="-105.2305755">
  <ele>1589.45</ele>
  <time>2026-08-27T18:27:40Z</time>
  <course>348.29</course>
  <speed>0.0</speed>
  <fix>3d</fix>
</trkpt>
<trkpt lat="40.0728422" lon="-105.2305753">
  <ele>1589.35</ele>
  <time>2026-08-27T18:27:40Z</time>
  <course>11.57</course>
  <speed>0.0282842712474619</speed>
  <fix>3d</fix>
</trkpt>
<trkpt lat="40.0728424" lon="-105.2305755">
  <ele>1589.35</ele>
  <time>2026-08-27T18:27:40Z</time>
  <course>127.56</course>
  <speed>0.0</speed>
  <fix>3d</fix>
</trkpt>
<trkpt lat="40.0728422" lon="-105.2305753">
  <ele>1589.25</ele>
  <time>2026-08-27T18:27:40Z</time>
  <course>11.56</course>
  <speed>0.0282842712474619</speed>
  <fix>3d</fix>
</trkpt>
<trkpt lat="40.0728424" lon="-105.2305755">
  <ele>1589.25</ele>
  <time>2026-08-27T18:27:40Z</time>
  <course>146.24</course>
  <speed>0.0</speed>
  <fix>3d</fix>
</trkpt>
<trkpt lat="40.0728422" lon="-105.2305753">
  <ele>1589.15</ele>
  <time>2026-08-27T18:27:40Z</time>
  <course>11.56</course>
  <speed>0.0282842712474619</speed>
  <fix>3d</fix>
</trkpt>
<trkpt lat="40.0728424" lon="-105.2305755">
  <ele>1589.14</ele>
  <time>2026-08-27T18:27:40Z</time>
  <course>149.58</course>
  <speed>0.0</speed>
  <fix>3d</fix>
</trkpt>
<trkpt lat="40.0728422" lon="-105.2305753">
  <ele>1589.05</ele>
  <time>2026-08-27T18:27:40Z</time>
  <course>11.56</course>
  <speed>0.0282842712474619</speed>
  <fix>3d</fix>
</trkpt>
<trkpt lat="40.0728424" lon="-105.2305755">
  <ele>1589.05</ele>
  <time>2026-08-27T18:27:40Z</time>
  <course>149.38</course>
  <speed>0.0</speed>
  <fix>3d</fix>
</trkpt>
<trkpt lat="40.0728422" lon="-105.2305753">
  <ele>1588.95</ele>
  <time>2026-08-27T18:27:40Z</time>
  <course>11.56</course>
  <speed>0.0282842712474619</speed>
  <fix>3d</fix>
</trkpt>
<trkpt lat="40.0728424" lon="-105.2305755">
  <ele>1588.95</ele>
  <time>2026-08-27T18:27:40Z</time>
  <course>148.43</course>
  <speed>0.0</speed>
  <fix>3d</fix>
</trkpt>
<trkpt lat="40.0728422" lon="-105.2305753">
  <ele>1588.85</ele>
  <time>2026-08-27T18:27:40Z</time>
  <course>11.56</course>
  <speed>0.0282842712474619</speed>
  <fix>3d</fix>
</trkpt>
<trkpt lat="40.0728424" lon="-105.2305755">
  <ele>1588.85</ele>
  <time>2026-08-27T18:27:40Z</time>
  <course>148.46</course>
  <speed>0.0</speed>
  <fix>3d</fix>
</trkpt>
<trkpt lat="40.0728422" lon="-105.2305753">
  <ele>1588.75</ele>
  <time>2026-08-27T18:27:40Z</time>
  <course>11.55</course>
  <speed>0.0282842712474619</speed>
  <fix>3d</fix>
</trkpt>
<trkpt lat="40.0728424" lon="-105.2305755">
  <ele>1588.75</ele>
  <time>2026-08-27T18:27:40Z</time>
  <course>148.98</course>
  <speed>0.0</speed>
  <fix>3d</fix>
</trkpt>
<trkpt lat="40.0728422" lon="-105.2305753">
  <ele>1588.65</ele>
  <time>2026-08-27T18:27:40Z</time>
  <course>11.55</course>
  <speed>0.0282842712474619</speed>
  <fix>3d</fix>
</trkpt>
<trkpt lat="40.0728424" lon="-105.2305755">
  <ele>1588.64</ele>
  <time>2026-08-27T18:27:40Z</time>
  <course>149.32</course>
  <speed>0.0</speed>
  <fix>3d</fix>
</trkpt>
<trkpt lat="40.0728422" lon="-105.2305753">
  <ele>1588.55</ele>
  <time>2026-08-27T18:27:40Z</time>
  <course>11.55</course>
  <speed>0.0282842712474619</speed>
  <fix>3d</fix>
</trkpt>
<trkpt lat="40.0728424" lon="-105.2305755">
  <ele>1588.54</ele>
  <time>2026-08-27T18:27:40Z</time>
  <course>148.31</course>
  <speed>0.0</speed>
  <fix>3d</fix>
</trkpt>
<trkpt lat="40.0728422" lon="-105.2305753">
  <ele>1588.45</ele>
  <time>2026-08-27T18:27:40Z</time>
  <course>11.55</course>
  <speed>0.0282842712474619</speed>
  <fix>3d</fix>
</trkpt>
<trkpt lat="40.0728424" lon="-105.2305755">
  <ele>1588.44</ele>
  <time>2026-08-27T18:27:40Z</time>
  <course>147.69</course>
  <speed>0.0</speed>
  <fix>3d</fix>
</trkpt>
<trkpt lat="40.0728422" lon="-105.2305753">
  <ele>1588.35</ele>
  <time>2026-08-27T18:27:40Z</time>
  <course>11.54</course>
  <speed>0.0282842712474619</speed>
  <fix>3d</fix>
</trkpt>
<trkpt lat="40.0728424" lon="-105.2305755">
  <ele>1588.34</ele>
  <time>2026-08-27T18:27:40Z</time>
  <course>148.26</course>
  <speed>0.0</speed>
  <fix>3d</fix>
</trkpt>
<trkpt lat="40.0728422" lon="-105.2305753">
  <ele>1588.25</ele>
  <time>2026-08-27T18:27:40Z</time>
  <course>11.53</course>
  <speed>0.0282842712474619</speed>
  <fix>3d</fix>
</trkpt>
<trkpt lat="40.0728424" lon="-105.2305755">
  <ele>1588.24</ele>
  <time>2026-08-27T18:27:40Z</time>
  <course>148.53</course>
  <speed>0.0</speed>
  <fix>3d</fix>
</trkpt>
<trkpt lat="40.0728422" lon="-105.2305753">
  <ele>1588.15</ele>
  <time>2026-08-27T18:27:40Z</time>
  <course>11.53</course>
  <speed>0.0282842712474619</speed>
  <fix>3d</fix>
</trkpt>
<trkpt lat="40.0728424" lon="-105.2305755">
  <ele>1588.13</ele>
  <time>2026-08-27T18:27:40Z</time>
  <course>148.98</course>
  <speed>0.0</speed>
  <fix>3d</fix>
</trkpt>
<trkpt lat="40.0728422" lon="-105.2305753">
  <ele>1588.05</ele>
  <time>2026-08-27T18:27:40Z</time>
  <course>11.52</course>
  <speed>0.0282842712474619</speed>
  <fix>3d</fix>
</trkpt>
<trkpt lat="40.0728424" lon="-105.2305755">
  <ele>1588.04</ele>
  <time>2026-08-27T18:27:40Z</time>
  <course>149.02</course>
  <speed>0.0</speed>
  <fix>3d</fix>
</trkpt>
<trkpt lat="40.0728422" lon="-105.2305753">
  <ele>1587.95</ele>
  <time>2026-08-27T18:27:40Z</time>
  <course>11.52</course>
  <speed>0.0282842712474619</speed>
  <fix>3d</fix>
</trkpt>
<trkpt lat="40.0728424" lon="-105.2305755">
  <ele>1587.94</ele>
  <time>2026-08-27T18:27:40Z</time>
  <course>149.19</course>
  <speed>0.0</speed>
  <fix>3d</fix>
</trkpt>
<trkpt lat="40.0728422" lon="-105.2305753">
  <ele>1587.85</ele>
  <time>2026-08-27T18:27:40Z</time>
  <course>11.51</course>
  <speed>0.0282842712474619</speed>
  <fix>3d</fix>
</trkpt>
<trkpt lat="40.0728424" lon="-105.2305755">
  <ele>1587.84</ele>
  <time>2026-08-27T18:27:40Z</time>
  <course>148.34</course>
  <speed>0.0</speed>
  <fix>3d</fix>
</trkpt>
<trkpt lat="40.0728422" lon="-105.2305753">
  <ele>1587.75</ele>
  <time>2026-08-27T18:27:40Z</time>
  <course>11.52</course>
  <speed>0.0282842712474619</speed>
  <fix>3d</fix>
</trkpt>
<trkpt lat="40.0728424" lon="-105.2305755">
  <ele>1587.74</ele>
  <time>2026-08-27T18:27:40Z</time>
  <course>146.32</course>
  <speed>0.0</speed>
  <fix>3d</fix>
</trkpt>
<trkpt lat="40.0728422" lon="-105.2305753">
  <ele>1587.64</ele>
  <time>2026-08-27T18:27:40Z</time>
  <course>11.52</course>
  <speed>0.0282842712474619</speed>
  <fix>3d</fix>
</trkpt>
<trkpt lat="40.0728423" lon="-105.2305755">
  <ele>1587.63</ele>
  <time>2026-08-27T18:27:40Z</time>
  <course>146.15</course>
  <speed>0.0</speed>
  <fix>3d</fix>
</trkpt>
<trkpt lat="40.0728422" lon="-105.2305753">
  <ele>1587.55</ele>
  <time>2026-08-27T18:27:40Z</time>
  <course>11.51</course>
  <speed>0.0282842712474619</speed>
  <fix>3d</fix>
</trkpt>
<trkpt lat="40.0728423" lon="-105.2305755">
  <ele>1587.54</ele>
  <time>2026-08-27T18:27:40Z</time>
  <course>146.88</course>
  <speed>0.0</speed>
  <fix>3d</fix>
</trkpt>
<trkpt lat="40.0728422" lon="-105.2305753">
  <ele>1587.45</ele>
  <time>2026-08-27T18:27:40Z</time>
  <course>11.51</course>
  <speed>0.0282842712474619</speed>
  <fix>3d</fix>
</trkpt>
<trkpt lat="40.0728423" lon="-105.2305754">
  <ele>1587.44</ele>
  <time>2026-08-27T18:27:40Z</time>
  <course>146.74</course>
  <speed>0.0</speed>
  <fix>3d</fix>
</trkpt>
<trkpt lat="40.0728422" lon="-105.2305753">
  <ele>1587.35</ele>
  <time>2026-08-27T18:27:40Z</time>
  <course>11.51</course>
  <speed>0.0282842712474619</speed>
  <fix>3d</fix>
</trkpt>
<trkpt lat="40.0728423" lon="-105.2305753">
  <ele>1587.34</ele>
  <time>2026-08-27T18:27:40Z</time>
  <course>144.65</course>
  <speed>0.0</speed>
  <fix>3d</fix>
</trkpt>
<trkpt lat="40.0728422" lon="-105.2305753">
  <ele>1587.24</ele>
  <time>2026-08-27T18:27:40Z</time>
  <course>11.5</course>
  <speed>0.0282842712474619</speed>
  <fix>3d</fix>
</trkpt>
<trkpt lat="40.0728423" lon="-105.2305753">
  <ele>1587.24</ele>
  <time>2026-08-27T18:27:40Z</time>
  <course>140.1</course>
  <speed>0.0</speed>
  <fix>3d</fix>
</trkpt>
<trkpt lat="40.0728422" lon="-105.2305752">
  <ele>1587.14</ele>
  <time>2026-08-27T18:27:40Z</time>
  <course>11.5</course>
  <speed>0.0282842712474619</speed>
  <fix>3d</fix>
</trkpt>
<trkpt lat="40.0728423" lon="-105.2305753">
  <ele>1587.13</ele>
  <time>2026-08-27T18:27:40Z</time>
  <course>135.64</course>
  <speed>0.0</speed>
  <fix>3d</fix>
</trkpt>
<trkpt lat="40.0728422" lon="-105.2305752">
  <ele>1587.04</ele>
  <time>2026-08-27T18:27:40Z</time>
  <course>11.49</course>
  <speed>0.022360679774997897</speed>
  <fix>3d</fix>
</trkpt>
<trkpt lat="40.0728423" lon="-105.2305753">
  <ele>1587.04</ele>
  <time>2026-08-27T18:27:40Z</time>
  <course>134.37</course>
  <speed>0.0</speed>
  <fix>3d</fix>
</trkpt>
<trkpt lat="40.0728422" lon="-105.2305752">
  <ele>1586.94</ele>
  <time>2026-08-27T18:27:40Z</time>
  <course>11.49</course>
  <speed>0.01414213562373095</speed>
  <fix>3d</fix>
</trkpt>
<trkpt lat="40.0728423" lon="-105.2305753">
  <ele>1586.94</ele>
  <time>2026-08-27T18:27:40Z</time>
  <course>136.84</course>
  <speed>0.0</speed>
  <fix>3d</fix>
</trkpt>
<trkpt lat="40.0728422" lon="-105.2305752">
  <ele>1586.84</ele>
  <time>2026-08-27T18:27:40Z</time>
  <course>11.49</course>
  <speed>0.01414213562373095</speed>
  <fix>3d</fix>
</trkpt>
<trkpt lat="40.0728423" lon="-105.2305753">
  <ele>1586.84</ele>
  <time>2026-08-27T18:27:40Z</time>
  <course>145.72</course>
  <speed>0.0</speed>
  <fix>3d</fix>
</trkpt>
<trkpt lat="40.0728422" lon="-105.2305752">
  <ele>1586.74</ele>
  <time>2026-08-27T18:27:40Z</time>
  <course>11.49</course>
  <speed>0.01414213562373095</speed>
  <fix>3d</fix>
</trkpt>
<trkpt lat="40.0728423" lon="-105.2305753">
  <ele>1586.74</ele>
  <time>2026-08-27T18:27:40Z</time>
  <course>163.44</course>
  <speed>0.0</speed>
  <fix>3d</fix>
</trkpt>
<trkpt lat="40.0728422" lon="-105.2305752">
  <ele>1586.64</ele>
  <time>2026-08-27T18:27:40Z</time>
  <course>11.48</course>
  <speed>0.01414213562373095</speed>
  <fix>3d</fix>
</trkpt>
<trkpt lat="40.0728423" lon="-105.2305753">
  <ele>1586.63</ele>
  <time>2026-08-27T18:27:40Z</time>
  <course>191.48</course>
  <speed>0.0</speed>
  <fix>3d</fix>
</trkpt>
<trkpt lat="40.0728422" lon="-105.2305752">
  <ele>1586.54</ele>
  <time>2026-08-27T18:27:40Z</time>
  <course>11.48</course>
  <speed>0.01414213562373095</speed>
  <fix>3d</fix>
</trkpt>
<trkpt lat="40.0728423" lon="-105.2305753">
  <ele>1586.54</ele>
  <time>2026-08-27T18:27:40Z</time>
  <course>210.49</course>
  <speed>0.0</speed>
  <fix>3d</fix>
</trkpt>
<trkpt lat="40.0728422" lon="-105.2305752">
  <ele>1586.45</ele>
  <time>2026-08-27T18:27:40Z</time>
  <course>11.48</course>
  <speed>0.01414213562373095</speed>
  <fix>3d</fix>
</trkpt>
<trkpt lat="40.0728423" lon="-105.2305753">
  <ele>1586.44</ele>
  <time>2026-08-27T18:27:40Z</time>
  <course>233.39</course>
  <speed>0.0</speed>
  <fix>3d</fix>
</trkpt>
<trkpt lat="40.0728422" lon="-105.2305752">
  <ele>1586.35</ele>
  <time>2026-08-27T18:27:40Z</time>
  <course>11.49</course>
  <speed>0.01414213562373095</speed>
  <fix>3d</fix>
</trkpt>
<trkpt lat="40.0728423" lon="-105.2305753">
  <ele>1586.35</ele>
  <time>2026-08-27T18:27:40Z</time>
  <course>250.52</course>
  <speed>0.0</speed>
  <fix>3d</fix>
</trkpt>
<trkpt lat="40.0728422" lon="-105.2305752">
  <ele>1586.25</ele>
  <time>2026-08-27T18:27:40Z</time>
  <course>11.49</course>
  <speed>0.01414213562373095</speed>
  <fix>3d</fix>
</trkpt>
<trkpt lat="40.0728423" lon="-105.2305753">
  <ele>1586.25</ele>
  <time>2026-08-27T18:27:40Z</time>
  <course>257.22</course>
  <speed>0.0</speed>
  <fix>3d</fix>
</trkpt>
<trkpt lat="40.0728422" lon="-105.2305752">
  <ele>1586.15</ele>
  <time>2026-08-27T18:27:40Z</time>
  <course>11.47</course>
  <speed>0.01</speed>
  <fix>3d</fix>
</trkpt>
<trkpt lat="40.0728423" lon="-105.2305753">
  <ele>1586.14</ele>
  <time>2026-08-27T18:27:40Z</time>
  <course>260.22</course>
  <speed>0.0</speed>
  <fix>3d</fix>
</trkpt>
<trkpt lat="40.0728422" lon="-105.2305752">
  <ele>1586.16</ele>
  <time>2026-08-27T18:27:40Z</time>
  <course>11.5</course>
  <speed>0.01414213562373095</speed>
  <fix>3d</fix>
</trkpt>
<trkpt lat="40.0728423" lon="-105.2305753">
  <ele>1586.08</ele>
  <time>2026-08-27T18:27:40Z</time>
  <course>281.21</course>
  <speed>0.01</speed>
  <fix>3d</fix>
</trkpt>
<trkpt lat="40.0728422" lon="-105.2305752">
  <ele>1586.17</ele>
  <time>2026-08-27T18:27:40Z</time>
  <course>11.55</course>
  <speed>0.022360679774997897</speed>
  <fix>3d</fix>
</trkpt>
<trkpt lat="40.0728423" lon="-105.2305753">
  <ele>1586.08</ele>
  <time>2026-08-27T18:27:40Z</time>
  <course>298.7</course>
  <speed>0.0</speed>
  <fix>3d</fix>
</trkpt>
<trkpt lat="40.0728422" lon="-105.2305752">
  <ele>1586.16</ele>
  <time>2026-08-27T18:27:40Z</time>
  <course>11.57</course>
  <speed>0.022360679774997897</speed>
  <fix>3d</fix>
</trkpt>
<trkpt lat="40.0728423" lon="-105.2305753">
  <ele>1586.1</ele>
  <time>2026-08-27T18:27:40Z</time>
  <course>85.24</course>
  <speed>0.0</speed>
  <fix>3d</fix>
</trkpt>
<trkpt lat="40.0728422" lon="-105.2305752">
  <ele>1586.16</ele>
  <time>2026-08-27T18:27:40Z</time>
  <course>11.59</course>
  <speed>0.022360679774997897</speed>
  <fix>3d</fix>
</trkpt>
<trkpt lat="40.0728423" lon="-105.2305753">
  <ele>1586.09</ele>
  <time>2026-08-27T18:27:40Z</time>
  <course>102.92</course>
  <speed>0.0</speed>
  <fix>3d</fix>
</trkpt>
<trkpt lat="40.0728422" lon="-105.2305752">
  <ele>1586.16</ele>
  <time>2026-08-27T18:27:40Z</time>
  <course>11.59</course>
  <speed>0.022360679774997897</speed>
  <fix>3d</fix>
</trkpt>
<trkpt lat="40.0728423" lon="-105.2305753">
  <ele>1586.09</ele>
  <time>2026-08-27T18:27:40Z</time>
  <course>94.01</course>
  <speed>0.0</speed>
  <fix>3d</fix>
</trkpt>
<trkpt lat="40.0728422" lon="-105.2305752">
  <ele>1586.16</ele>
  <time>2026-08-27T18:27:40Z</time>
  <course>11.6</course>
  <speed>0.022360679774997897</speed>
  <fix>3d</fix>
</trkpt>
<trkpt lat="40.0728423" lon="-105.2305753">
  <ele>1586.09</ele>
  <time>2026-08-27T18:27:40Z</time>
  <course>81.82</course>
  <speed>0.0</speed>
  <fix>3d</fix>
</trkpt>
<trkpt lat="40.0728422" lon="-105.2305752">
  <ele>1586.16</ele>
  <time>2026-08-27T18:27:40Z</time>
  <course>11.61</course>
  <speed>0.022360679774997897</speed>
  <fix>3d</fix>
</trkpt>
<trkpt lat="40.0728423" lon="-105.2305753">
  <ele>1586.09</ele>
  <time>2026-08-27T18:27:40Z</time>
  <course>331.13</course>
  <speed>0.0</speed>
  <fix>3d</fix>
</trkpt>
<trkpt lat="40.0728422" lon="-105.2305752">
  <ele>1586.16</ele>
  <time>2026-08-27T18:27:41Z</time>
  <course>11.61</course>
  <speed>0.022360679774997897</speed>
  <fix>3d</fix>
</trkpt>
<trkpt lat="40.0728423" lon="-105.2305753">
  <ele>1586.09</ele>
  <time>2026-08-27T18:27:41Z</time>
  <course>332.76</course>
  <speed>0.0</speed>
  <fix>3d</fix>
</trkpt>
<trkpt lat="40.0728422" lon="-105.2305752">
  <ele>1586.16</ele>
  <time>2026-08-27T18:27:41Z</time>
  <course>11.62</course>
  <speed>0.022360679774997897</speed>
  <fix>3d</fix>
</trkpt>
<trkpt lat="40.0728423" lon="-105.2305753">
  <ele>1586.09</ele>
  <time>2026-08-27T18:27:41Z</time>
  <course>3.48</course>
  <speed>0.0</speed>
  <fix>3d</fix>
</trkpt>
<trkpt lat="40.0728422" lon="-105.2305752">
  <ele>1586.16</ele>
  <time>2026-08-27T18:27:41Z</time>
  <course>11.63</course>
  <speed>0.0282842712474619</speed>
  <fix>3d</fix>
</trkpt>
<trkpt lat="40.0728423" lon="-105.2305753">
  <ele>1586.09</ele>
  <time>2026-08-27T18:27:41Z</time>
  <course>81.53</course>
  <speed>0.0</speed>
  <fix>3d</fix>
</trkpt>
<trkpt lat="40.0728422" lon="-105.2305751">
  <ele>1586.16</ele>
  <time>2026-08-27T18:27:41Z</time>
  <course>11.63</course>
  <speed>0.03605551275463989</speed>
  <fix>3d</fix>
</trkpt>
<trkpt lat="40.0728423" lon="-105.2305753">
  <ele>1586.09</ele>
  <time>2026-08-27T18:27:41Z</time>
  <course>103.09</course>
  <speed>0.0</speed>
  <fix>3d</fix>
</trkpt>
<trkpt lat="40.0728422" lon="-105.2305751">
  <ele>1586.16</ele>
  <time>2026-08-27T18:27:41Z</time>
  <course>11.61</course>
  <speed>0.0282842712474619</speed>
  <fix>3d</fix>
</trkpt>
<trkpt lat="40.0728423" lon="-105.2305753">
  <ele>1586.09</ele>
  <time>2026-08-27T18:27:41Z</time>
  <course>108.51</course>
  <speed>0.0</speed>
  <fix>3d</fix>
</trkpt>
<trkpt lat="40.0728422" lon="-105.2305751">
  <ele>1586.16</ele>
  <time>2026-08-27T18:27:41Z</time>
  <course>11.58</course>
  <speed>0.022360679774997897</speed>
  <fix>3d</fix>
</trkpt>
<trkpt lat="40.0728423" lon="-105.2305753">
  <ele>1586.09</ele>
  <time>2026-08-27T18:27:41Z</time>
  <course>156.18</course>
  <speed>0.0</speed>
  <fix>3d</fix>
</trkpt>
<trkpt lat="40.0728422" lon="-105.2305751">
  <ele>1586.16</ele>
  <time>2026-08-27T18:27:41Z</time>
  <course>11.55</course>
  <speed>0.0282842712474619</speed>
  <fix>3d</fix>
</trkpt>
<trkpt lat="40.0728423" lon="-105.2305753">
  <ele>1586.09</ele>
  <time>2026-08-27T18:27:41Z</time>
  <course>257.68</course>
  <speed>0.0</speed>
  <fix>3d</fix>
</trkpt>
<trkpt lat="40.0728422" lon="-105.2305751">
  <ele>1586.16</ele>
  <time>2026-08-27T18:27:41Z</time>
  <course>11.52</course>
  <speed>0.0282842712474619</speed>
  <fix>3d</fix>
</trkpt>
<trkpt lat="40.0728423" lon="-105.2305753">
  <ele>1586.09</ele>
  <time>2026-08-27T18:27:41Z</time>
  <course>244.26</course>
  <speed>0.0</speed>
  <fix>3d</fix>
</trkpt>
<trkpt lat="40.0728422" lon="-105.2305751">
  <ele>1586.16</ele>
  <time>2026-08-27T18:27:41Z</time>
  <course>11.49</course>
  <speed>0.0282842712474619</speed>
  <fix>3d</fix>
</trkpt>
<trkpt lat="40.0728423" lon="-105.2305753">
  <ele>1586.09</ele>
  <time>2026-08-27T18:27:41Z</time>
  <course>238.4</course>
  <speed>0.0</speed>
  <fix>3d</fix>
</trkpt>
<trkpt lat="40.0728422" lon="-105.2305751">
  <ele>1586.16</ele>
  <time>2026-08-27T18:27:41Z</time>
  <course>11.45</course>
  <speed>0.0282842712474619</speed>
  <fix>3d</fix>
</trkpt>
<trkpt lat="40.0728423" lon="-105.2305753">
  <ele>1586.09</ele>
  <time>2026-08-27T18:27:41Z</time>
  <course>243.82</course>
  <speed>0.0</speed>
  <fix>3d</fix>
</trkpt>
<trkpt lat="40.0728422" lon="-105.2305751">
  <ele>1586.16</ele>
  <time>2026-08-27T18:27:41Z</time>
  <course>11.42</course>
  <speed>0.0282842712474619</speed>
  <fix>3d</fix>
</trkpt>
<trkpt lat="40.0728423" lon="-105.2305753">
  <ele>1586.09</ele>
  <time>2026-08-27T18:27:41Z</time>
  <course>228.55</course>
  <speed>0.0</speed>
  <fix>3d</fix>
</trkpt>
<trkpt lat="40.0728422" lon="-105.2305751">
  <ele>1586.16</ele>
  <time>2026-08-27T18:27:41Z</time>
  <course>11.39</course>
  <speed>0.0282842712474619</speed>
  <fix>3d</fix>
</trkpt>
<trkpt lat="40.0728423" lon="-105.2305753">
  <ele>1586.09</ele>
  <time>2026-08-27T18:27:41Z</time>
  <course>95.09</course>
  <speed>0.0</speed>
  <fix>3d</fix>
</trkpt>
<trkpt lat="40.0728422" lon="-105.2305751">
  <ele>1586.16</ele>
  <time>2026-08-27T18:27:41Z</time>
  <course>11.36</course>
  <speed>0.0282842712474619</speed>
  <fix>3d</fix>
</trkpt>
<trkpt lat="40.0728423" lon="-105.2305753">
  <ele>1586.09</ele>
  <time>2026-08-27T18:27:41Z</time>
  <course>3.9</course>
  <speed>0.0</speed>
  <fix>3d</fix>
</trkpt>
<trkpt lat="40.0728422" lon="-105.2305751">
  <ele>1586.16</ele>
  <time>2026-08-27T18:27:41Z</time>
  <course>11.32</course>
  <speed>0.022360679774997897</speed>
  <fix>3d</fix>
</trkpt>
<trkpt lat="40.0728423" lon="-105.2305753">
  <ele>1586.09</ele>
  <time>2026-08-27T18:27:41Z</time>
  <course>278.26</course>
  <speed>0.0</speed>
  <fix>3d</fix>
</trkpt>
<trkpt lat="40.0728422" lon="-105.2305751">
  <ele>1586.17</ele>
  <time>2026-08-27T18:27:41Z</time>
  <course>11.29</course>
  <speed>0.022360679774997897</speed>
  <fix>3d</fix>
</trkpt>
<trkpt lat="40.0728423" lon="-105.2305753">
  <ele>1586.09</ele>
  <time>2026-08-27T18:27:41Z</time>
  <course>281.53</course>
  <speed>0.0</speed>
  <fix>3d</fix>
</trkpt>
<trkpt lat="40.0728422" lon="-105.2305751">
  <ele>1586.17</ele>
  <time>2026-08-27T18:27:41Z</time>
  <course>11.26</course>
  <speed>0.022360679774997897</speed>
  <fix>3d</fix>
</trkpt>
<trkpt lat="40.0728423" lon="-105.2305753">
  <ele>1586.09</ele>
  <time>2026-08-27T18:27:41Z</time>
  <course>282.92</course>
  <speed>0.0</speed>
  <fix>3d</fix>
</trkpt>
<trkpt lat="40.0728422" lon="-105.2305751">
  <ele>1586.17</ele>
  <time>2026-08-27T18:27:41Z</time>
  <course>11.23</course>
  <speed>0.022360679774997897</speed>
  <fix>3d</fix>
</trkpt>
<trkpt lat="40.0728423" lon="-105.2305753">
  <ele>1586.09</ele>
  <time>2026-08-27T18:27:41Z</time>
  <course>282.81</course>
  <speed>0.0</speed>
  <fix>3d</fix>
</trkpt>
<trkpt lat="40.0728422" lon="-105.2305751">
  <ele>1586.17</ele>
  <time>2026-08-27T18:27:41Z</time>
  <course>11.19</course>
  <speed>0.022360679774997897</speed>
  <fix>3d</fix>
</trkpt>
<trkpt lat="40.0728423" lon="-105.2305753">
  <ele>1586.09</ele>
  <time>2026-08-27T18:27:41Z</time>
  <course>85.63</course>
  <speed>0.0</speed>
  <fix>3d</fix>
</trkpt>
<trkpt lat="40.0728422" lon="-105.2305751">
  <ele>1586.18</ele>
  <time>2026-08-27T18:27:41Z</time>
  <course>11.16</course>
  <speed>0.022360679774997897</speed>
  <fix>3d</fix>
</trkpt>
<trkpt lat="40.0728423" lon="-105.2305753">
  <ele>1586.09</ele>
  <time>2026-08-27T18:27:41Z</time>
  <course>283.28</course>
  <speed>0.0</speed>
  <fix>3d</fix>
</trkpt>
<trkpt lat="40.0728422" lon="-105.2305751">
  <ele>1586.18</ele>
  <time>2026-08-27T18:27:41Z</time>
  <course>11.13</course>
  <speed>0.022360679774997897</speed>
  <fix>3d</fix>
</trkpt>
<trkpt lat="40.0728423" lon="-105.2305753">
  <ele>1586.09</ele>
  <time>2026-08-27T18:27:41Z</time>
  <course>283.36</course>
  <speed>0.0</speed>
  <fix>3d</fix>
</trkpt>
<trkpt lat="40.0728422" lon="-105.2305751">
  <ele>1586.18</ele>
  <time>2026-08-27T18:27:41Z</time>
  <course>11.1</course>
  <speed>0.022360679774997897</speed>
  <fix>3d</fix>
</trkpt>
<trkpt lat="40.0728423" lon="-105.2305753">
  <ele>1586.09</ele>
  <time>2026-08-27T18:27:41Z</time>
  <course>74.56</course>
  <speed>0.0</speed>
  <fix>3d</fix>
</trkpt>
<trkpt lat="40.0728422" lon="-105.2305752">
  <ele>1586.19</ele>
  <time>2026-08-27T18:27:41Z</time>
  <course>11.07</course>
  <speed>0.022360679774997897</speed>
  <fix>3d</fix>
</trkpt>
<trkpt lat="40.0728423" lon="-105.2305753">
  <ele>1586.09</ele>
  <time>2026-08-27T18:27:41Z</time>
  <course>283.71</course>
  <speed>0.0</speed>
  <fix>3d</fix>
</trkpt>
<trkpt lat="40.0728422" lon="-105.2305752">
  <ele>1586.19</ele>
  <time>2026-08-27T18:27:41Z</time>
  <course>11.03</course>
  <speed>0.022360679774997897</speed>
  <fix>3d</fix>
</trkpt>
<trkpt lat="40.0728423" lon="-105.2305753">
  <ele>1586.09</ele>
  <time>2026-08-27T18:27:41Z</time>
  <course>284.31</course>
  <speed>0.0</speed>
  <fix>3d</fix>
</trkpt>
<trkpt lat="40.0728422" lon="-105.2305752">
  <ele>1586.19</ele>
  <time>2026-08-27T18:27:41Z</time>
  <course>11.0</course>
  <speed>0.022360679774997897</speed>
  <fix>3d</fix>
</trkpt>
<trkpt lat="40.0728423" lon="-105.2305753">
  <ele>1586.09</ele>
  <time>2026-08-27T18:27:41Z</time>
  <course>74.28</course>
  <speed>0.0</speed>
  <fix>3d</fix>
</trkpt>
<trkpt lat="40.0728422" lon="-105.2305752">
  <ele>1586.19</ele>
  <time>2026-08-27T18:27:41Z</time>
  <course>10.97</course>
  <speed>0.022360679774997897</speed>
  <fix>3d</fix>
</trkpt>
<trkpt lat="40.0728423" lon="-105.2305753">
  <ele>1586.09</ele>
  <time>2026-08-27T18:27:41Z</time>
  <course>284.39</course>
  <speed>0.0</speed>
  <fix>3d</fix>
</trkpt>
<trkpt lat="40.0728422" lon="-105.2305752">
  <ele>1586.19</ele>
  <time>2026-08-27T18:27:41Z</time>
  <course>10.94</course>
  <speed>0.022360679774997897</speed>
  <fix>3d</fix>
</trkpt>
<trkpt lat="40.0728423" lon="-105.2305753">
  <ele>1586.09</ele>
  <time>2026-08-27T18:27:41Z</time>
  <course>285.1</course>
  <speed>0.0</speed>
  <fix>3d</fix>
</trkpt>
<trkpt lat="40.0728422" lon="-105.2305752">
  <ele>1586.19</ele>
  <time>2026-08-27T18:27:41Z</time>
  <course>10.9</course>
  <speed>0.022360679774997897</speed>
  <fix>3d</fix>
</trkpt>
<trkpt lat="40.0728423" lon="-105.2305753">
  <ele>1586.09</ele>
  <time>2026-08-27T18:27:41Z</time>
  <course>82.06</course>
  <speed>0.0</speed>
  <fix>3d</fix>
</trkpt>
<trkpt lat="40.0728422" lon="-105.2305752">
  <ele>1586.19</ele>
  <time>2026-08-27T18:27:41Z</time>
  <course>10.87</course>
  <speed>0.022360679774997897</speed>
  <fix>3d</fix>
</trkpt>
<trkpt lat="40.0728423" lon="-105.2305753">
  <ele>1586.09</ele>
  <time>2026-08-27T18:27:41Z</time>
  <course>284.3</course>
  <speed>0.0</speed>
  <fix>3d</fix>
</trkpt>
<trkpt lat="40.0728422" lon="-105.2305752">
  <ele>1586.19</ele>
  <time>2026-08-27T18:27:41Z</time>
  <course>10.84</course>
  <speed>0.022360679774997897</speed>
  <fix>3d</fix>
</trkpt>
<trkpt lat="40.0728423" lon="-105.2305753">
  <ele>1586.09</ele>
  <time>2026-08-27T18:27:41Z</time>
  <course>283.57</course>
  <speed>0.0</speed>
  <fix>3d</fix>
</trkpt>
<trkpt lat="40.0728422" lon="-105.2305752">
  <ele>1586.19</ele>
  <time>2026-08-27T18:27:41Z</time>
  <course>10.81</course>
  <speed>0.022360679774997897</speed>
  <fix>3d</fix>
</trkpt>
<trkpt lat="40.0728423" lon="-105.2305753">
  <ele>1586.09</ele>
  <time>2026-08-27T18:27:41Z</time>
  <course>53.83</course>
  <speed>0.0</speed>
  <fix>3d</fix>
</trkpt>
<trkpt lat="40.0728422" lon="-105.2305752">
  <ele>1586.19</ele>
  <time>2026-08-27T18:27:41Z</time>
  <course>10.78</course>
  <speed>0.022360679774997897</speed>
  <fix>3d</fix>
</trkpt>
<trkpt lat="40.0728423" lon="-105.2305753">
  <ele>1586.09</ele>
  <time>2026-08-27T18:27:41Z</time>
  <course>285.38</course>
  <speed>0.0</speed>
  <fix>3d</fix>
</trkpt>
<trkpt lat="40.0728422" lon="-105.2305752">
  <ele>1586.19</ele>
  <time>2026-08-27T18:27:41Z</time>
  <course>10.74</course>
  <speed>0.022360679774997897</speed>
  <fix>3d</fix>
</trkpt>
<trkpt lat="40.0728423" lon="-105.2305753">
  <ele>1586.09</ele>
  <time>2026-08-27T18:27:41Z</time>
  <course>284.18</course>
  <speed>0.0</speed>
  <fix>3d</fix>
</trkpt>
<trkpt lat="40.0728422" lon="-105.2305752">
  <ele>1586.19</ele>
  <time>2026-08-27T18:27:41Z</time>
  <course>10.71</course>
  <speed>0.022360679774997897</speed>
  <fix>3d</fix>
</trkpt>
<trkpt lat="40.0728423" lon="-105.2305753">
  <ele>1586.09</ele>
  <time>2026-08-27T18:27:41Z</time>
  <course>38.39</course>
  <speed>0.0</speed>
  <fix>3d</fix>
</trkpt>
<trkpt lat="40.0728422" lon="-105.2305752">
  <ele>1586.2</ele>
  <time>2026-08-27T18:27:41Z</time>
  <course>10.68</course>
  <speed>0.022360679774997897</speed>
  <fix>3d</fix>
</trkpt>
<trkpt lat="40.0728423" lon="-105.2305753">
  <ele>1586.09</ele>
  <time>2026-08-27T18:27:41Z</time>
  <course>286.07</course>
  <speed>0.0</speed>
  <fix>3d</fix>
</trkpt>
<trkpt lat="40.0728422" lon="-105.2305752">
  <ele>1586.2</ele>
  <time>2026-08-27T18:27:41Z</time>
  <course>10.65</course>
  <speed>0.022360679774997897</speed>
  <fix>3d</fix>
</trkpt>
<trkpt lat="40.0728423" lon="-105.2305753">
  <ele>1586.09</ele>
  <time>2026-08-27T18:27:41Z</time>
  <course>284.9</course>
  <speed>0.0</speed>
  <fix>3d</fix>
</trkpt>
<trkpt lat="40.0728422" lon="-105.2305752">
  <ele>1586.2</ele>
  <time>2026-08-27T18:27:41Z</time>
  <course>10.61</course>
  <speed>0.022360679774997897</speed>
  <fix>3d</fix>
</trkpt>
<trkpt lat="40.0728423" lon="-105.2305753">
  <ele>1586.09</ele>
  <time>2026-08-27T18:27:41Z</time>
  <course>26.72</course>
  <speed>0.0</speed>
  <fix>3d</fix>
</trkpt>
<trkpt lat="40.0728422" lon="-105.2305752">
  <ele>1586.19</ele>
  <time>2026-08-27T18:27:41Z</time>
  <course>10.58</course>
  <speed>0.022360679774997897</speed>
  <fix>3d</fix>
</trkpt>
<trkpt lat="40.0728423" lon="-105.2305753">
  <ele>1586.09</ele>
  <time>2026-08-27T18:27:41Z</time>
  <course>286.37</course>
  <speed>0.0</speed>
  <fix>3d</fix>
</trkpt>
<trkpt lat="40.0728422" lon="-105.2305752">
  <ele>1586.19</ele>
  <time>2026-08-27T18:27:41Z</time>
  <course>10.55</course>
  <speed>0.022360679774997897</speed>
  <fix>3d</fix>
</trkpt>
<trkpt lat="40.0728423" lon="-105.2305753">
  <ele>1586.09</ele>
  <time>2026-08-27T18:27:41Z</time>
  <course>285.22</course>
  <speed>0.0</speed>
  <fix>3d</fix>
</trkpt>
<trkpt lat="40.0728422" lon="-105.2305752">
  <ele>1586.19</ele>
  <time>2026-08-27T18:27:41Z</time>
  <course>10.52</course>
  <speed>0.022360679774997897</speed>
  <fix>3d</fix>
</trkpt>
<trkpt lat="40.0728423" lon="-105.2305753">
  <ele>1586.09</ele>
  <time>2026-08-27T18:27:41Z</time>
  <course>358.45</course>
  <speed>0.0</speed>
  <fix>3d</fix>
</trkpt>
<trkpt lat="40.0728422" lon="-105.2305752">
  <ele>1586.19</ele>
  <time>2026-08-27T18:27:41Z</time>
  <course>10.49</course>
  <speed>0.022360679774997897</speed>
  <fix>3d</fix>
</trkpt>
<trkpt lat="40.0728423" lon="-105.2305753">
  <ele>1586.09</ele>
  <time>2026-08-27T18:27:41Z</time>
  <course>286.35</course>
  <speed>0.0</speed>
  <fix>3d</fix>
</trkpt>
<trkpt lat="40.0728422" lon="-105.2305752">
  <ele>1586.19</ele>
  <time>2026-08-27T18:27:41Z</time>
  <course>10.45</course>
  <speed>0.022360679774997897</speed>
  <fix>3d</fix>
</trkpt>
<trkpt lat="40.0728423" lon="-105.2305753">
  <ele>1586.09</ele>
  <time>2026-08-27T18:27:41Z</time>
  <course>284.63</course>
  <speed>0.0</speed>
  <fix>3d</fix>
</trkpt>
<trkpt lat="40.0728422" lon="-105.2305752">
  <ele>1586.19</ele>
  <time>2026-08-27T18:27:41Z</time>
  <course>10.42</course>
  <speed>0.022360679774997897</speed>
  <fix>3d</fix>
</trkpt>
<trkpt lat="40.0728423" lon="-105.2305753">
  <ele>1586.09</ele>
  <time>2026-08-27T18:27:41Z</time>
  <course>311.57</course>
  <speed>0.0</speed>
  <fix>3d</fix>
</trkpt>
<trkpt lat="40.0728422" lon="-105.2305752">
  <ele>1586.19</ele>
  <time>2026-08-27T18:27:41Z</time>
  <course>10.39</course>
  <speed>0.022360679774997897</speed>
  <fix>3d</fix>
</trkpt>
<trkpt lat="40.0728423" lon="-105.2305753">
  <ele>1586.09</ele>
  <time>2026-08-27T18:27:41Z</time>
  <course>289.06</course>
  <speed>0.0</speed>
  <fix>3d</fix>
</trkpt>
<trkpt lat="40.0728422" lon="-105.2305752">
  <ele>1586.19</ele>
  <time>2026-08-27T18:27:41Z</time>
  <course>10.36</course>
  <speed>0.022360679774997897</speed>
  <fix>3d</fix>
</trkpt>
<trkpt lat="40.0728423" lon="-105.2305753">
  <ele>1586.09</ele>
  <time>2026-08-27T18:27:41Z</time>
  <course>284.75</course>
  <speed>0.0</speed>
  <fix>3d</fix>
</trkpt>
<trkpt lat="40.0728422" lon="-105.2305752">
  <ele>1586.19</ele>
  <time>2026-08-27T18:27:41Z</time>
  <course>10.32</course>
  <speed>0.022360679774997897</speed>
  <fix>3d</fix>
</trkpt>
<trkpt lat="40.0728423" lon="-105.2305753">
  <ele>1586.09</ele>
  <time>2026-08-27T18:27:41Z</time>
  <course>293.83</course>
  <speed>0.0</speed>
  <fix>3d</fix>
</trkpt>
<trkpt lat="40.0728422" lon="-105.2305752">
  <ele>1586.19</ele>
  <time>2026-08-27T18:27:41Z</time>
  <course>10.29</course>
  <speed>0.022360679774997897</speed>
  <fix>3d</fix>
</trkpt>
<trkpt lat="40.0728423" lon="-105.2305753">
  <ele>1586.09</ele>
  <time>2026-08-27T18:27:41Z</time>
  <course>289.99</course>
  <speed>0.0</speed>
  <fix>3d</fix>
</trkpt>
<trkpt lat="40.0728422" lon="-105.2305752">
  <ele>1586.19</ele>
  <time>2026-08-27T18:27:41Z</time>
  <course>10.26</course>
  <speed>0.022360679774997897</speed>
  <fix>3d</fix>
</trkpt>
<trkpt lat="40.0728423" lon="-105.2305753">
  <ele>1586.09</ele>
  <time>2026-08-27T18:27:41Z</time>
  <course>285.87</course>
  <speed>0.0</speed>
  <fix>3d</fix>
</trkpt>
<trkpt lat="40.0728422" lon="-105.2305752">
  <ele>1586.19</ele>
  <time>2026-08-27T18:27:41Z</time>
  <course>10.23</course>
  <speed>0.022360679774997897</speed>
  <fix>3d</fix>
</trkpt>
<trkpt lat="40.0728423" lon="-105.2305753">
  <ele>1586.09</ele>
  <time>2026-08-27T18:27:41Z</time>
  <course>308.42</course>
  <speed>0.0</speed>
  <fix>3d</fix>
</trkpt>
<trkpt lat="40.0728422" lon="-105.2305752">
  <ele>1586.19</ele>
  <time>2026-08-27T18:27:41Z</time>
  <course>10.19</course>
  <speed>0.022360679774997897</speed>
  <fix>3d</fix>
</trkpt>
<trkpt lat="40.0728423" lon="-105.2305753">
  <ele>1586.09</ele>
  <time>2026-08-27T18:27:41Z</time>
  <course>298.17</course>
  <speed>0.0</speed>
  <fix>3d</fix>
</trkpt>
<trkpt lat="40.0728422" lon="-105.2305752">
  <ele>1586.19</ele>
  <time>2026-08-27T18:27:41Z</time>
  <course>10.16</course>
  <speed>0.022360679774997897</speed>
  <fix>3d</fix>
</trkpt>
<trkpt lat="40.0728423" lon="-105.2305753">
  <ele>1586.09</ele>
  <time>2026-08-27T18:27:41Z</time>
  <course>288.35</course>
  <speed>0.0</speed>
  <fix>3d</fix>
</trkpt>
<trkpt lat="40.0728422" lon="-105.2305752">
  <ele>1586.19</ele>
  <time>2026-08-27T18:27:41Z</time>
  <course>10.13</course>
  <speed>0.022360679774997897</speed>
  <fix>3d</fix>
</trkpt>
<trkpt lat="40.0728423" lon="-105.2305753">
  <ele>1586.09</ele>
  <time>2026-08-27T18:27:41Z</time>
  <course>325.42</course>
  <speed>0.0</speed>
  <fix>3d</fix>
</trkpt>
<trkpt lat="40.0728422" lon="-105.2305752">
  <ele>1586.19</ele>
  <time>2026-08-27T18:27:41Z</time>
  <course>10.09</course>
  <speed>0.022360679774997897</speed>
  <fix>3d</fix>
</trkpt>
<trkpt lat="40.0728423" lon="-105.2305753">
  <ele>1586.09</ele>
  <time>2026-08-27T18:27:41Z</time>
  <course>5.24</course>
  <speed>0.0</speed>
  <fix>3d</fix>
</trkpt>
<trkpt lat="40.0728422" lon="-105.2305752">
  <ele>1586.19</ele>
  <time>2026-08-27T18:27:41Z</time>
  <course>10.06</course>
  <speed>0.022360679774997897</speed>
  <fix>3d</fix>
</trkpt>
<trkpt lat="40.0728423" lon="-105.2305753">
  <ele>1586.09</ele>
  <time>2026-08-27T18:27:41Z</time>
  <course>293.75</course>
  <speed>0.0</speed>
  <fix>3d</fix>
</trkpt>
<trkpt lat="40.0728422" lon="-105.2305752">
  <ele>1586.19</ele>
  <time>2026-08-27T18:27:41Z</time>
  <course>10.03</course>
  <speed>0.022360679774997897</speed>
  <fix>3d</fix>
</trkpt>
<trkpt lat="40.0728423" lon="-105.2305753">
  <ele>1586.09</ele>
  <time>2026-08-27T18:27:41Z</time>
  <course>306.41</course>
  <speed>0.0</speed>
  <fix>3d</fix>
</trkpt>
<trkpt lat="40.0728422" lon="-105.2305752">
  <ele>1586.19</ele>
  <time>2026-08-27T18:27:41Z</time>
  <course>10.0</course>
  <speed>0.022360679774997897</speed>
  <fix>3d</fix>
</trkpt>
<trkpt lat="40.0728423" lon="-105.2305753">
  <ele>1586.09</ele>
  <time>2026-08-27T18:27:41Z</time>
  <course>5.68</course>
  <speed>0.0</speed>
  <fix>3d</fix>
</trkpt>
<trkpt lat="40.0728422" lon="-105.2305752">
  <ele>1586.19</ele>
  <time>2026-08-27T18:27:41Z</time>
  <course>9.96</course>
  <speed>0.022360679774997897</speed>
  <fix>3d</fix>
</trkpt>
<trkpt lat="40.0728423" lon="-105.2305753">
  <ele>1586.09</ele>
  <time>2026-08-27T18:27:41Z</time>
  <course>297.79</course>
  <speed>0.0</speed>
  <fix>3d</fix>
</trkpt>
<trkpt lat="40.0728422" lon="-105.2305752">
  <ele>1586.19</ele>
  <time>2026-08-27T18:27:41Z</time>
  <course>9.93</course>
  <speed>0.022360679774997897</speed>
  <fix>3d</fix>
</trkpt>
<trkpt lat="40.0728423" lon="-105.2305753">
  <ele>1586.09</ele>
  <time>2026-08-27T18:27:41Z</time>
  <course>313.84</course>
  <speed>0.0</speed>
  <fix>3d</fix>
</trkpt>
<trkpt lat="40.0728422" lon="-105.2305752">
  <ele>1586.19</ele>
  <time>2026-08-27T18:27:41Z</time>
  <course>9.9</course>
  <speed>0.022360679774997897</speed>
  <fix>3d</fix>
</trkpt>
<trkpt lat="40.0728423" lon="-105.2305753">
  <ele>1586.09</ele>
  <time>2026-08-27T18:27:41Z</time>
  <course>5.03</course>
  <speed>0.0</speed>
  <fix>3d</fix>
</trkpt>
<trkpt lat="40.0728422" lon="-105.2305752">
  <ele>1586.19</ele>
  <time>2026-08-27T18:27:41Z</time>
  <course>9.87</course>
  <speed>0.022360679774997897</speed>
  <fix>3d</fix>
</trkpt>
<trkpt lat="40.0728423" lon="-105.2305753">
  <ele>1586.09</ele>
  <time>2026-08-27T18:27:41Z</time>
  <course>302.05</course>
  <speed>0.0</speed>
  <fix>3d</fix>
</trkpt>
<trkpt lat="40.0728422" lon="-105.2305752">
  <ele>1586.18</ele>
  <time>2026-08-27T18:27:41Z</time>
  <course>9.83</course>
  <speed>0.022360679774997897</speed>
  <fix>3d</fix>
</trkpt>
<trkpt lat="40.0728423" lon="-105.2305753">
  <ele>1586.09</ele>
  <time>2026-08-27T18:27:41Z</time>
  <course>322.14</course>
  <speed>0.0</speed>
  <fix>3d</fix>
</trkpt>
<trkpt lat="40.0728422" lon="-105.2305752">
  <ele>1586.18</ele>
  <time>2026-08-27T18:27:41Z</time>
  <course>9.8</course>
  <speed>0.022360679774997897</speed>
  <fix>3d</fix>
</trkpt>
<trkpt lat="40.0728423" lon="-105.2305753">
  <ele>1586.09</ele>
  <time>2026-08-27T18:27:41Z</time>
  <course>348.45</course>
  <speed>0.0</speed>
  <fix>3d</fix>
</trkpt>
<trkpt lat="40.0728422" lon="-105.2305752">
  <ele>1586.18</ele>
  <time>2026-08-27T18:27:41Z</time>
  <course>9.77</course>
  <speed>0.01414213562373095</speed>
  <fix>3d</fix>
</trkpt>
<trkpt lat="40.0728423" lon="-105.2305753">
  <ele>1586.09</ele>
  <time>2026-08-27T18:27:41Z</time>
  <course>304.98</course>
  <speed>0.0</speed>
  <fix>3d</fix>
</trkpt>
<trkpt lat="40.0728422" lon="-105.2305752">
  <ele>1586.18</ele>
  <time>2026-08-27T18:27:41Z</time>
  <course>9.74</course>
  <speed>0.01414213562373095</speed>
  <fix>3d</fix>
</trkpt>
<trkpt lat="40.0728423" lon="-105.2305753">
  <ele>1586.09</ele>
  <time>2026-08-27T18:27:41Z</time>
  <course>333.43</course>
  <speed>0.0</speed>
  <fix>3d</fix>
</trkpt>
<trkpt lat="40.0728422" lon="-105.2305752">
  <ele>1586.18</ele>
  <time>2026-08-27T18:27:41Z</time>
  <course>9.7</course>
  <speed>0.01414213562373095</speed>
  <fix>3d</fix>
</trkpt>
<trkpt lat="40.0728423" lon="-105.2305753">
  <ele>1586.09</ele>
  <time>2026-08-27T18:27:41Z</time>
  <course>37.57</course>
  <speed>0.0</speed>
  <fix>3d</fix>
</trkpt>
<trkpt lat="40.0728422" lon="-105.2305752">
  <ele>1586.18</ele>
  <time>2026-08-27T18:27:41Z</time>
  <course>9.67</course>
  <speed>0.01414213562373095</speed>
  <fix>3d</fix>
</trkpt>
<trkpt lat="40.0728423" lon="-105.2305753">
  <ele>1586.09</ele>
  <time>2026-08-27T18:27:41Z</time>
  <course>320.39</course>
  <speed>0.0</speed>
  <fix>3d</fix>
</trkpt>
<trkpt lat="40.0728422" lon="-105.2305752">
  <ele>1586.18</ele>
  <time>2026-08-27T18:27:41Z</time>
  <course>9.64</course>
  <speed>0.01414213562373095</speed>
  <fix>3d</fix>
</trkpt>
<trkpt lat="40.0728423" lon="-105.2305753">
  <ele>1586.09</ele>
  <time>2026-08-27T18:27:41Z</time>
  <course>319.3</course>
  <speed>0.0</speed>
  <fix>3d</fix>
</trkpt>
<trkpt lat="40.0728422" lon="-105.2305752">
  <ele>1586.18</ele>
  <time>2026-08-27T18:27:41Z</time>
  <course>9.6</course>
  <speed>0.01414213562373095</speed>
  <fix>3d</fix>
</trkpt>
<trkpt lat="40.0728423" lon="-105.2305753">
  <ele>1586.09</ele>
  <time>2026-08-27T18:27:41Z</time>
  <course>9.65</course>
  <speed>0.0</speed>
  <fix>3d</fix>
</trkpt>
<trkpt lat="40.0728422" lon="-105.2305752">
  <ele>1586.18</ele>
  <time>2026-08-27T18:27:41Z</time>
  <course>9.57</course>
  <speed>0.01414213562373095</speed>
  <fix>3d</fix>
</trkpt>
<trkpt lat="40.0728423" lon="-105.2305753">
  <ele>1586.09</ele>
  <time>2026-08-27T18:27:41Z</time>
  <course>321.18</course>
  <speed>0.0</speed>
  <fix>3d</fix>
</trkpt>
<trkpt lat="40.0728422" lon="-105.2305752">
  <ele>1586.18</ele>
  <time>2026-08-27T18:27:41Z</time>
  <course>9.54</course>
  <speed>0.01414213562373095</speed>
  <fix>3d</fix>
</trkpt>
<trkpt lat="40.0728423" lon="-105.2305753">
  <ele>1586.09</ele>
  <time>2026-08-27T18:27:41Z</time>
  <course>320.74</course>
  <speed>0.0</speed>
  <fix>3d</fix>
</trkpt>
<trkpt lat="40.0728422" lon="-105.2305752">
  <ele>1586.17</ele>
  <time>2026-08-27T18:27:41Z</time>
  <course>9.5</course>
  <speed>0.01414213562373095</speed>
  <fix>3d</fix>
</trkpt>
<trkpt lat="40.0728423" lon="-105.2305753">
  <ele>1586.09</ele>
  <time>2026-08-27T18:27:41Z</time>
  <course>336.23</course>
  <speed>0.0</speed>
  <fix>3d</fix>
</trkpt>
<trkpt lat="40.0728422" lon="-105.2305752">
  <ele>1586.17</ele>
  <time>2026-08-27T18:27:41Z</time>
  <course>9.47</course>
  <speed>0.01414213562373095</speed>
  <fix>3d</fix>
</trkpt>
<trkpt lat="40.0728423" lon="-105.2305753">
  <ele>1586.09</ele>
  <time>2026-08-27T18:27:41Z</time>
  <course>314.34</course>
  <speed>0.0</speed>
  <fix>3d</fix>
</trkpt>
<trkpt lat="40.0728422" lon="-105.2305752">
  <ele>1586.17</ele>
  <time>2026-08-27T18:27:41Z</time>
  <course>9.44</course>
  <speed>0.01414213562373095</speed>
  <fix>3d</fix>
</trkpt>
<trkpt lat="40.0728423" lon="-105.2305753">
  <ele>1586.09</ele>
  <time>2026-08-27T18:27:41Z</time>
  <course>318.25</course>
  <speed>0.0</speed>
  <fix>3d</fix>
</trkpt>
<trkpt lat="40.0728422" lon="-105.2305752">
  <ele>1586.16</ele>
  <time>2026-08-27T18:27:41Z</time>
  <course>9.4</course>
  <speed>0.01414213562373095</speed>
  <fix>3d</fix>
</trkpt>
<trkpt lat="40.0728423" lon="-105.2305753">
  <ele>1586.09</ele>
  <time>2026-08-27T18:27:41Z</time>
  <course>320.51</course>
  <speed>0.0</speed>
  <fix>3d</fix>
</trkpt>
<trkpt lat="40.0728422" lon="-105.2305752">
  <ele>1586.17</ele>
  <time>2026-08-27T18:27:41Z</time>
  <course>9.37</course>
  <speed>0.01414213562373095</speed>
  <fix>3d</fix>
</trkpt>
<trkpt lat="40.0728423" lon="-105.2305753">
  <ele>1586.09</ele>
  <time>2026-08-27T18:27:41Z</time>
  <course>309.37</course>
  <speed>0.0</speed>
  <fix>3d</fix>
</trkpt>
<trkpt lat="40.0728422" lon="-105.2305752">
  <ele>1586.17</ele>
  <time>2026-08-27T18:27:41Z</time>
  <course>9.34</course>
  <speed>0.01414213562373095</speed>
  <fix>3d</fix>
</trkpt>
<trkpt lat="40.0728423" lon="-105.2305753">
  <ele>1586.09</ele>
  <time>2026-08-27T18:27:41Z</time>
  <course>310.78</course>
  <speed>0.0</speed>
  <fix>3d</fix>
</trkpt>
<trkpt lat="40.0728422" lon="-105.2305752">
  <ele>1586.17</ele>
  <time>2026-08-27T18:27:41Z</time>
  <course>9.3</course>
  <speed>0.01414213562373095</speed>
  <fix>3d</fix>
</trkpt>
<trkpt lat="40.0728423" lon="-105.2305753">
  <ele>1586.09</ele>
  <time>2026-08-27T18:27:41Z</time>
  <course>311.83</course>
  <speed>0.0</speed>
  <fix>3d</fix>
</trkpt>
<trkpt lat="40.0728422" lon="-105.2305752">
  <ele>1586.17</ele>
  <time>2026-08-27T18:27:41Z</time>
  <course>9.27</course>
  <speed>0.01414213562373095</speed>
  <fix>3d</fix>
</trkpt>
<trkpt lat="40.0728423" lon="-105.2305753">
  <ele>1586.09</ele>
  <time>2026-08-27T18:27:41Z</time>
  <course>304.98</course>
  <speed>0.0</speed>
  <fix>3d</fix>
</trkpt>
<trkpt lat="40.0728422" lon="-105.2305752">
  <ele>1586.17</ele>
  <time>2026-08-27T18:27:41Z</time>
  <course>9.26</course>
  <speed>0.01414213562373095</speed>
  <fix>3d</fix>
</trkpt>
<trkpt lat="40.0728423" lon="-105.2305753">
  <ele>1586.09</ele>
  <time>2026-08-27T18:27:41Z</time>
  <course>325.43</course>
  <speed>0.0</speed>
  <fix>3d</fix>
</trkpt>
<trkpt lat="40.0728422" lon="-105.2305752">
  <ele>1586.17</ele>
  <time>2026-08-27T18:27:41Z</time>
  <course>9.34</course>
  <speed>0.022360679774997897</speed>
  <fix>3d</fix>
</trkpt>
<trkpt lat="40.0728423" lon="-105.2305753">
  <ele>1586.09</ele>
  <time>2026-08-27T18:27:41Z</time>
  <course>5.49</course>
  <speed>0.0</speed>
  <fix>3d</fix>
</trkpt>
<trkpt lat="40.0728422" lon="-105.2305752">
  <ele>1586.16</ele>
  <time>2026-08-27T18:27:41Z</time>
  <course>9.45</course>
  <speed>0.022360679774997897</speed>
  <fix>3d</fix>
</trkpt>
<trkpt lat="40.0728423" lon="-105.2305753">
  <ele>1586.09</ele>
  <time>2026-08-27T18:27:41Z</time>
  <course>301.07</course>
  <speed>0.0</speed>
  <fix>3d</fix>
</trkpt>
<trkpt lat="40.0728422" lon="-105.2305752">
  <ele>1586.17</ele>
  <time>2026-08-27T18:27:41Z</time>
  <course>9.55</course>
  <speed>0.022360679774997897</speed>
  <fix>3d</fix>
</trkpt>
<trkpt lat="40.0728423" lon="-105.2305753">
  <ele>1586.09</ele>
  <time>2026-08-27T18:27:41Z</time>
  <course>292.04</course>
  <speed>0.0</speed>
  <fix>3d</fix>
</trkpt>
<trkpt lat="40.0728422" lon="-105.2305752">
  <ele>1586.17</ele>
  <time>2026-08-27T18:27:41Z</time>
  <course>9.65</course>
  <speed>0.022360679774997897</speed>
  <fix>3d</fix>
</trkpt>
<trkpt lat="40.0728423" lon="-105.2305753">
  <ele>1586.09</ele>
  <time>2026-08-27T18:27:41Z</time>
  <course>293.88</course>
  <speed>0.0</speed>
  <fix>3d</fix>
</trkpt>
<trkpt lat="40.0728422" lon="-105.2305752">
  <ele>1586.17</ele>
  <time>2026-08-27T18:27:41Z</time>
  <course>9.75</course>
  <speed>0.022360679774997897</speed>
  <fix>3d</fix>
</trkpt>
<trkpt lat="39.6562421" lon="-104.1365912">
  <ele>1569.6</ele>
  <time>2026-08-27T18:27:42Z</time>
  <course>0.0</course>
  <speed>0.0</speed>
  <fix>3d</fix>
</trkpt>
<trkpt lat="40.072842" lon="-105.230575">
  <ele>1586.09</ele>
  <time>2026-08-27T18:27:42Z</time>
  <course>2.03</course>
  <speed>0.0</speed>
  <fix>3d</fix>
</trkpt>
<trkpt lat="40.072842" lon="-105.230575">
  <ele>1586.09</ele>
  <time>2026-08-27T18:27:42Z</time>
  <course>0.0</course>
  <speed>0.0</speed>
  <fix>3d</fix>
</trkpt>
<trkpt lat="40.072842" lon="-105.230575">
  <ele>1586.09</ele>
  <time>2026-08-27T18:27:42Z</time>
  <course>2.51</course>
  <speed>0.0</speed>
  <fix>3d</fix>
</trkpt>
<trkpt lat="40.072842" lon="-105.230575">
  <ele>1586.09</ele>
  <time>2026-08-27T18:27:42Z</time>
  <course>0.0</course>
  <speed>0.0</speed>
  <fix>3d</fix>
</trkpt>
<trkpt lat="40.072842" lon="-105.230575">
  <ele>1586.09</ele>
  <time>2026-08-27T18:27:42Z</time>
  <course>3.26</course>
  <speed>0.0</speed>
  <fix>3d</fix>
</trkpt>
<trkpt lat="40.072842" lon="-105.230575">
  <ele>1586.09</ele>
  <time>2026-08-27T18:27:42Z</time>
  <course>0.0</course>
  <speed>0.0</speed>
  <fix>3d</fix>
</trkpt>
<trkpt lat="40.072842" lon="-105.230575">
  <ele>1586.09</ele>
  <time>2026-08-27T18:27:42Z</time>
  <course>3.93</course>
  <speed>0.0</speed>
  <fix>3d</fix>
</trkpt>
<trkpt lat="40.072842" lon="-105.230575">
  <ele>1586.09</ele>
  <time>2026-08-27T18:27:42Z</time>
  <course>0.0</course>
  <speed>0.0</speed>
  <fix>3d</fix>
</trkpt>
<trkpt lat="40.072842" lon="-105.230575">
  <ele>1586.09</ele>
  <time>2026-08-27T18:27:42Z</time>
  <course>4.55</course>
  <speed>0.0</speed>
  <fix>3d</fix>
</trkpt>
<trkpt lat="40.072842" lon="-105.230575">
  <ele>1586.09</ele>
  <time>2026-08-27T18:27:42Z</time>
  <course>0.0</course>
  <speed>0.0</speed>
  <fix>3d</fix>
</trkpt>
<trkpt lat="40.072842" lon="-105.230575">
  <ele>1586.09</ele>
  <time>2026-08-27T18:27:42Z</time>
  <course>5.14</course>
  <speed>0.0</speed>
  <fix>3d</fix>
</trkpt>
<trkpt lat="40.072842" lon="-105.230575">
  <ele>1586.09</ele>
  <time>2026-08-27T18:27:42Z</time>
  <course>0.0</course>
  <speed>0.0</speed>
  <fix>3d</fix>
</trkpt>
<trkpt lat="40.072842" lon="-105.230575">
  <ele>1586.09</ele>
  <time>2026-08-27T18:27:42Z</time>
  <course>5.7</course>
  <speed>0.0</speed>
  <fix>3d</fix>
</trkpt>
<trkpt lat="40.072842" lon="-105.230575">
  <ele>1586.09</ele>
  <time>2026-08-27T18:27:42Z</time>
  <course>0.0</course>
  <speed>0.0</speed>
  <fix>3d</fix>
</trkpt>
<trkpt lat="40.072842" lon="-105.230575">
  <ele>1586.09</ele>
  <time>2026-08-27T18:27:42Z</time>
  <course>6.22</course>
  <speed>0.0</speed>
  <fix>3d</fix>
</trkpt>
<trkpt lat="40.072842" lon="-105.230575">
  <ele>1586.09</ele>
  <time>2026-08-27T18:27:42Z</time>
  <course>0.0</course>
  <speed>0.0</speed>
  <fix>3d</fix>
</trkpt>
<trkpt lat="40.072842" lon="-105.230575">
  <ele>1586.09</ele>
  <time>2026-08-27T18:27:42Z</time>
  <course>6.7</course>
  <speed>0.0</speed>
  <fix>3d</fix>
</trkpt>
<trkpt lat="40.072842" lon="-105.230575">
  <ele>1586.09</ele>
  <time>2026-08-27T18:27:42Z</time>
  <course>0.0</course>
  <speed>0.0</speed>
  <fix>3d</fix>
</trkpt>
<trkpt lat="40.072842" lon="-105.230575">
  <ele>1586.09</ele>
  <time>2026-08-27T18:27:42Z</time>
  <course>7.16</course>
  <speed>0.0</speed>
  <fix>3d</fix>
</trkpt>
<trkpt lat="40.072842" lon="-105.230575">
  <ele>1586.09</ele>
  <time>2026-08-27T18:27:42Z</time>
  <course>0.0</course>
  <speed>0.0</speed>
  <fix>3d</fix>
</trkpt>
<trkpt lat="40.072842" lon="-105.230575">
  <ele>1586.09</ele>
  <time>2026-08-27T18:27:42Z</time>
  <course>7.58</course>
  <speed>0.0</speed>
  <fix>3d</fix>
</trkpt>
<trkpt lat="40.072842" lon="-105.230575">
  <ele>1586.09</ele>
  <time>2026-08-27T18:27:42Z</time>
  <course>0.0</course>
  <speed>0.0</speed>
  <fix>3d</fix>
</trkpt>
<trkpt lat="40.072842" lon="-105.230575">
  <ele>1586.09</ele>
  <time>2026-08-27T18:27:42Z</time>
  <course>7.97</course>
  <speed>0.0</speed>
  <fix>3d</fix>
</trkpt>
<trkpt lat="40.072842" lon="-105.230575">
  <ele>1586.09</ele>
  <time>2026-08-27T18:27:42Z</time>
  <course>0.0</course>
  <speed>0.0</speed>
  <fix>3d</fix>
</trkpt>
<trkpt lat="40.072842" lon="-105.230575">
  <ele>1586.09</ele>
  <time>2026-08-27T18:27:42Z</time>
  <course>8.33</course>
  <speed>0.0</speed>
  <fix>3d</fix>
</trkpt>
<trkpt lat="40.072842" lon="-105.230575">
  <ele>1586.09</ele>
  <time>2026-08-27T18:27:42Z</time>
  <course>0.0</course>
  <speed>0.0</speed>
  <fix>3d</fix>
</trkpt>
<trkpt lat="40.072842" lon="-105.230575">
  <ele>1586.09</ele>
  <time>2026-08-27T18:27:42Z</time>
  <course>8.67</course>
  <speed>0.0</speed>
  <fix>3d</fix>
</trkpt>
<trkpt lat="40.072842" lon="-105.230575">
  <ele>1586.09</ele>
  <time>2026-08-27T18:27:42Z</time>
  <course>0.0</course>
  <speed>0.0</speed>
  <fix>3d</fix>
</trkpt>
<trkpt lat="40.072842" lon="-105.230575">
  <ele>1586.09</ele>
  <time>2026-08-27T18:27:42Z</time>
  <course>8.97</course>
  <speed>0.0</speed>
  <fix>3d</fix>
</trkpt>
<trkpt lat="40.072842" lon="-105.230575">
  <ele>1586.09</ele>
  <time>2026-08-27T18:27:42Z</time>
  <course>0.0</course>
  <speed>0.0</speed>
  <fix>3d</fix>
</trkpt>
<trkpt lat="40.072842" lon="-105.230575">
  <ele>1586.09</ele>
  <time>2026-08-27T18:27:42Z</time>
  <course>9.25</course>
  <speed>0.0</speed>
  <fix>3d</fix>
</trkpt>
<trkpt lat="40.072842" lon="-105.230575">
  <ele>1586.09</ele>
  <time>2026-08-27T18:27:42Z</time>
  <course>0.0</course>
  <speed>0.0</speed>
  <fix>3d</fix>
</trkpt>
<trkpt lat="40.072842" lon="-105.230575">
  <ele>1586.09</ele>
  <time>2026-08-27T18:27:42Z</time>
  <course>9.52</course>
  <speed>0.0</speed>
  <fix>3d</fix>
</trkpt>
<trkpt lat="40.072842" lon="-105.230575">
  <ele>1586.09</ele>
  <time>2026-08-27T18:27:42Z</time>
  <course>0.0</course>
  <speed>0.0</speed>
  <fix>3d</fix>
</trkpt>
<trkpt lat="40.072842" lon="-105.230575">
  <ele>1586.09</ele>
  <time>2026-08-27T18:27:42Z</time>
  <course>9.76</course>
  <speed>0.0</speed>
  <fix>3d</fix>
</trkpt>
<trkpt lat="40.072842" lon="-105.230575">
  <ele>1586.09</ele>
  <time>2026-08-27T18:27:42Z</time>
  <course>0.0</course>
  <speed>0.0</speed>
  <fix>3d</fix>
</trkpt>
<trkpt lat="40.072842" lon="-105.230575">
  <ele>1586.09</ele>
  <time>2026-08-27T18:27:42Z</time>
  <course>9.98</course>
  <speed>0.0</speed>
  <fix>3d</fix>
</trkpt>
<trkpt lat="40.072842" lon="-105.230575">
  <ele>1586.09</ele>
  <time>2026-08-27T18:27:42Z</time>
  <course>0.0</course>
  <speed>0.0</speed>
  <fix>3d</fix>
</trkpt>
<trkpt lat="40.072842" lon="-105.230575">
  <ele>1586.09</ele>
  <time>2026-08-27T18:27:42Z</time>
  <course>10.18</course>
  <speed>0.0</speed>
  <fix>3d</fix>
</trkpt>
<trkpt lat="40.072842" lon="-105.230575">
  <ele>1586.09</ele>
  <time>2026-08-27T18:27:42Z</time>
  <course>0.0</course>
  <speed>0.0</speed>
  <fix>3d</fix>
</trkpt>
<trkpt lat="40.072842" lon="-105.230575">
  <ele>1586.09</ele>
  <time>2026-08-27T18:27:42Z</time>
  <course>10.37</course>
  <speed>0.0</speed>
  <fix>3d</fix>
</trkpt>
<trkpt lat="40.072842" lon="-105.230575">
  <ele>1586.09</ele>
  <time>2026-08-27T18:27:42Z</time>
  <course>0.0</course>
  <speed>0.0</speed>
  <fix>3d</fix>
</trkpt>
<trkpt lat="40.072842" lon="-105.230575">
  <ele>1586.09</ele>
  <time>2026-08-27T18:27:42Z</time>
  <course>10.54</course>
  <speed>0.0</speed>
  <fix>3d</fix>
</trkpt>
<trkpt lat="40.072842" lon="-105.230575">
  <ele>1586.09</ele>
  <time>2026-08-27T18:27:42Z</time>
  <course>0.0</course>
  <speed>0.0</speed>
  <fix>3d</fix>
</trkpt>
<trkpt lat="40.072842" lon="-105.230575">
  <ele>1586.09</ele>
  <time>2026-08-27T18:27:42Z</time>
  <course>10.69</course>
  <speed>0.0</speed>
  <fix>3d</fix>
</trkpt>
<trkpt lat="40.072842" lon="-105.230575">
  <ele>1586.09</ele>
  <time>2026-08-27T18:27:42Z</time>
  <course>0.0</course>
  <speed>0.0</speed>
  <fix>3d</fix>
</trkpt>
<trkpt lat="40.072842" lon="-105.230575">
  <ele>1586.09</ele>
  <time>2026-08-27T18:27:42Z</time>
  <course>10.83</course>
  <speed>0.0</speed>
  <fix>3d</fix>
</trkpt>
<trkpt lat="40.072842" lon="-105.230575">
  <ele>1586.09</ele>
  <time>2026-08-27T18:27:42Z</time>
  <course>0.0</course>
  <speed>0.0</speed>
  <fix>3d</fix>
</trkpt>
<trkpt lat="40.072842" lon="-105.230575">
  <ele>1586.09</ele>
  <time>2026-08-27T18:27:42Z</time>
  <course>10.96</course>
  <speed>0.0</speed>
  <fix>3d</fix>
</trkpt>
<trkpt lat="40.072842" lon="-105.230575">
  <ele>1586.09</ele>
  <time>2026-08-27T18:27:42Z</time>
  <course>0.0</course>
  <speed>0.0</speed>
  <fix>3d</fix>
</trkpt>
<trkpt lat="40.072842" lon="-105.230575">
  <ele>1586.09</ele>
  <time>2026-08-27T18:27:42Z</time>
  <course>11.08</course>
  <speed>0.0</speed>
  <fix>3d</fix>
</trkpt>
<trkpt lat="40.072842" lon="-105.230575">
  <ele>1586.09</ele>
  <time>2026-08-27T18:27:42Z</time>
  <course>0.0</course>
  <speed>0.0</speed>
  <fix>3d</fix>
</trkpt>
<trkpt lat="40.072842" lon="-105.230575">
  <ele>1586.09</ele>
  <time>2026-08-27T18:27:42Z</time>
  <course>11.19</course>
  <speed>0.0</speed>
  <fix>3d</fix>
</trkpt>
<trkpt lat="40.072842" lon="-105.230575">
  <ele>1586.09</ele>
  <time>2026-08-27T18:27:42Z</time>
  <course>0.0</course>
  <speed>0.0</speed>
  <fix>3d</fix>
</trkpt>
<trkpt lat="40.072842" lon="-105.230575">
  <ele>1586.09</ele>
  <time>2026-08-27T18:27:42Z</time>
  <course>11.29</course>
  <speed>0.0</speed>
  <fix>3d</fix>
</trkpt>
<trkpt lat="40.072842" lon="-105.230575">
  <ele>1586.09</ele>
  <time>2026-08-27T18:27:42Z</time>
  <course>0.0</course>
  <speed>0.0</speed>
  <fix>3d</fix>
</trkpt>
<trkpt lat="40.072842" lon="-105.230575">
  <ele>1586.09</ele>
  <time>2026-08-27T18:27:42Z</time>
  <course>11.38</course>
  <speed>0.0</speed>
  <fix>3d</fix>
</trkpt>
<trkpt lat="40.072842" lon="-105.230575">
  <ele>1586.09</ele>
  <time>2026-08-27T18:27:42Z</time>
  <course>0.0</course>
  <speed>0.0</speed>
  <fix>3d</fix>
</trkpt>
<trkpt lat="40.072842" lon="-105.230575">
  <ele>1586.09</ele>
  <time>2026-08-27T18:27:42Z</time>
  <course>11.46</course>
  <speed>0.0</speed>
  <fix>3d</fix>
</trkpt>
<trkpt lat="40.072842" lon="-105.230575">
  <ele>1586.09</ele>
  <time>2026-08-27T18:27:42Z</time>
  <course>0.0</course>
  <speed>0.0</speed>
  <fix>3d</fix>
</trkpt>
<trkpt lat="40.072842" lon="-105.230575">
  <ele>1586.09</ele>
  <time>2026-08-27T18:27:42Z</time>
  <course>11.54</course>
  <speed>0.0</speed>
  <fix>3d</fix>
</trkpt>
<trkpt lat="40.072842" lon="-105.230575">
  <ele>1586.09</ele>
  <time>2026-08-27T18:27:42Z</time>
  <course>0.0</course>
  <speed>0.0</speed>
  <fix>3d</fix>
</trkpt>
<trkpt lat="40.072842" lon="-105.230575">
  <ele>1586.09</ele>
  <time>2026-08-27T18:27:42Z</time>
  <course>11.6</course>
  <speed>0.0</speed>
  <fix>3d</fix>
</trkpt>
<trkpt lat="40.072842" lon="-105.230575">
  <ele>1586.09</ele>
  <time>2026-08-27T18:27:42Z</time>
  <course>0.0</course>
  <speed>0.0</speed>
  <fix>3d</fix>
</trkpt>
<trkpt lat="40.072842" lon="-105.230575">
  <ele>1586.09</ele>
  <time>2026-08-27T18:27:42Z</time>
  <course>11.66</course>
  <speed>0.0</speed>
  <fix>3d</fix>
</trkpt>
<trkpt lat="40.072842" lon="-105.230575">
  <ele>1586.09</ele>
  <time>2026-08-27T18:27:42Z</time>
  <course>0.0</course>
  <speed>0.0</speed>
  <fix>3d</fix>
</trkpt>
<trkpt lat="40.072842" lon="-105.230575">
  <ele>1586.09</ele>
  <time>2026-08-27T18:27:42Z</time>
  <course>11.72</course>
  <speed>0.0</speed>
  <fix>3d</fix>
</trkpt>
<trkpt lat="40.072842" lon="-105.230575">
  <ele>1586.09</ele>
  <time>2026-08-27T18:27:42Z</time>
  <course>0.0</course>
  <speed>0.0</speed>
  <fix>3d</fix>
</trkpt>
<trkpt lat="40.072842" lon="-105.230575">
  <ele>1586.09</ele>
  <time>2026-08-27T18:27:42Z</time>
  <course>11.77</course>
  <speed>0.0</speed>
  <fix>3d</fix>
</trkpt>
<trkpt lat="40.072842" lon="-105.230575">
  <ele>1586.09</ele>
  <time>2026-08-27T18:27:42Z</time>
  <course>0.0</course>
  <speed>0.0</speed>
  <fix>3d</fix>
</trkpt>
<trkpt lat="40.072842" lon="-105.230575">
  <ele>1586.09</ele>
  <time>2026-08-27T18:27:42Z</time>
  <course>11.82</course>
  <speed>0.0</speed>
  <fix>3d</fix>
</trkpt>
<trkpt lat="40.072842" lon="-105.230575">
  <ele>1586.09</ele>
  <time>2026-08-27T18:27:42Z</time>
  <course>0.0</course>
  <speed>0.0</speed>
  <fix>3d</fix>
</trkpt>
<trkpt lat="40.072842" lon="-105.230575">
  <ele>1586.09</ele>
  <time>2026-08-27T18:27:42Z</time>
  <course>11.86</course>
  <speed>0.0</speed>
  <fix>3d</fix>
</trkpt>
<trkpt lat="40.072842" lon="-105.230575">
  <ele>1586.09</ele>
  <time>2026-08-27T18:27:42Z</time>
  <course>0.0</course>
  <speed>0.0</speed>
  <fix>3d</fix>
</trkpt>
<trkpt lat="40.072842" lon="-105.230575">
  <ele>1586.09</ele>
  <time>2026-08-27T18:27:42Z</time>
  <course>11.89</course>
  <speed>0.0</speed>
  <fix>3d</fix>
</trkpt>
<trkpt lat="40.072842" lon="-105.230575">
  <ele>1586.09</ele>
  <time>2026-08-27T18:27:42Z</time>
  <course>0.0</course>
  <speed>0.0</speed>
  <fix>3d</fix>
</trkpt>
<trkpt lat="40.072842" lon="-105.230575">
  <ele>1586.09</ele>
  <time>2026-08-27T18:27:42Z</time>
  <course>11.93</course>
  <speed>0.0</speed>
  <fix>3d</fix>
</trkpt>
<trkpt lat="40.072842" lon="-105.230575">
  <ele>1586.09</ele>
  <time>2026-08-27T18:27:42Z</time>
  <course>0.0</course>
  <speed>0.0</speed>
  <fix>3d</fix>
</trkpt>
<trkpt lat="40.072842" lon="-105.230575">
  <ele>1586.09</ele>
  <time>2026-08-27T18:27:42Z</time>
  <course>11.96</course>
  <speed>0.0</speed>
  <fix>3d</fix>
</trkpt>
<trkpt lat="40.072842" lon="-105.230575">
  <ele>1586.09</ele>
  <time>2026-08-27T18:27:42Z</time>
  <course>0.0</course>
  <speed>0.0</speed>
  <fix>3d</fix>
</trkpt>
<trkpt lat="40.072842" lon="-105.230575">
  <ele>1586.09</ele>
  <time>2026-08-27T18:27:42Z</time>
  <course>11.98</course>
  <speed>0.0</speed>
  <fix>3d</fix>
</trkpt>
<trkpt lat="40.072842" lon="-105.230575">
  <ele>1586.09</ele>
  <time>2026-08-27T18:27:42Z</time>
  <course>0.0</course>
  <speed>0.0</speed>
  <fix>3d</fix>
</trkpt>
<trkpt lat="40.072842" lon="-105.230575">
  <ele>1586.09</ele>
  <time>2026-08-27T18:27:42Z</time>
  <course>12.0</course>
  <speed>0.0</speed>
  <fix>3d</fix>
</trkpt>
<trkpt lat="40.072842" lon="-105.230575">
  <ele>1586.09</ele>
  <time>2026-08-27T18:27:42Z</time>
  <course>0.0</course>
  <speed>0.0</speed>
  <fix>3d</fix>
</trkpt>
<trkpt lat="40.072842" lon="-105.230575">
  <ele>1586.09</ele>
  <time>2026-08-27T18:27:42Z</time>
  <course>12.02</course>
  <speed>0.0</speed>
  <fix>3d</fix>
</trkpt>
<trkpt lat="40.072842" lon="-105.230575">
  <ele>1586.09</ele>
  <time>2026-08-27T18:27:42Z</time>
  <course>0.0</course>
  <speed>0.0</speed>
  <fix>3d</fix>
</trkpt>
<trkpt lat="40.072842" lon="-105.230575">
  <ele>1586.09</ele>
  <time>2026-08-27T18:27:42Z</time>
  <course>12.04</course>
  <speed>0.0</speed>
  <fix>3d</fix>
</trkpt>
<trkpt lat="40.072842" lon="-105.230575">
  <ele>1586.09</ele>
  <time>2026-08-27T18:27:42Z</time>
  <course>0.0</course>
  <speed>0.0</speed>
  <fix>3d</fix>
</trkpt>
<trkpt lat="40.072842" lon="-105.230575">
  <ele>1586.09</ele>
  <time>2026-08-27T18:27:42Z</time>
  <course>12.06</course>
  <speed>0.0</speed>
  <fix>3d</fix>
</trkpt>
<trkpt lat="40.072842" lon="-105.230575">
  <ele>1586.09</ele>
  <time>2026-08-27T18:27:42Z</time>
  <course>0.0</course>
  <speed>0.0</speed>
  <fix>3d</fix>
</trkpt>
<trkpt lat="40.072842" lon="-105.230575">
  <ele>1586.09</ele>
  <time>2026-08-27T18:27:42Z</time>
  <course>12.07</course>
  <speed>0.0</speed>
  <fix>3d</fix>
</trkpt>
<trkpt lat="40.072842" lon="-105.230575">
  <ele>1586.09</ele>
  <time>2026-08-27T18:27:42Z</time>
  <course>0.0</course>
  <speed>0.0</speed>
  <fix>3d</fix>
</trkpt>
<trkpt lat="40.072842" lon="-105.230575">
  <ele>1586.09</ele>
  <time>2026-08-27T18:27:42Z</time>
  <course>12.08</course>
  <speed>0.0</speed>
  <fix>3d</fix>
</trkpt>
<trkpt lat="40.072842" lon="-105.230575">
  <ele>1586.09</ele>
  <time>2026-08-27T18:27:42Z</time>
  <course>0.0</course>
  <speed>0.0</speed>
  <fix>3d</fix>
</trkpt>
<trkpt lat="40.072842" lon="-105.230575">
  <ele>1586.09</ele>
  <time>2026-08-27T18:27:42Z</time>
  <course>12.09</course>
  <speed>0.0</speed>
  <fix>3d</fix>
</trkpt>
<trkpt lat="40.072842" lon="-105.230575">
  <ele>1586.09</ele>
  <time>2026-08-27T18:27:42Z</time>
  <course>0.0</course>
  <speed>0.0</speed>
  <fix>3d</fix>
</trkpt>
<trkpt lat="40.072842" lon="-105.230575">
  <ele>1586.09</ele>
  <time>2026-08-27T18:27:42Z</time>
  <course>12.1</course>
  <speed>0.0</speed>
  <fix>3d</fix>
</trkpt>
<trkpt lat="40.072842" lon="-105.230575">
  <ele>1586.09</ele>
  <time>2026-08-27T18:27:42Z</time>
  <course>0.0</course>
  <speed>0.0</speed>
  <fix>3d</fix>
</trkpt>
<trkpt lat="40.072842" lon="-105.230575">
  <ele>1586.09</ele>
  <time>2026-08-27T18:27:42Z</time>
  <course>12.11</course>
  <speed>0.0</speed>
  <fix>3d</fix>
</trkpt>
<trkpt lat="40.072842" lon="-105.230575">
  <ele>1586.09</ele>
  <time>2026-08-27T18:27:42Z</time>
  <course>0.0</course>
  <speed>0.0</speed>
  <fix>3d</fix>
</trkpt>
<trkpt lat="40.072842" lon="-105.230575">
  <ele>1586.09</ele>
  <time>2026-08-27T18:27:42Z</time>
  <course>12.11</course>
  <speed>0.0</speed>
  <fix>3d</fix>
</trkpt>
<trkpt lat="40.072842" lon="-105.230575">
  <ele>1586.09</ele>
  <time>2026-08-27T18:27:42Z</time>
  <course>0.0</course>
  <speed>0.0</speed>
  <fix>3d</fix>
</trkpt>
<trkpt lat="40.072842" lon="-105.230575">
  <ele>1586.09</ele>
  <time>2026-08-27T18:27:42Z</time>
  <course>12.12</course>
  <speed>0.0</speed>
  <fix>3d</fix>
</trkpt>
<trkpt lat="40.072842" lon="-105.230575">
  <ele>1586.09</ele>
  <time>2026-08-27T18:27:42Z</time>
  <course>0.0</course>
  <speed>0.0</speed>
  <fix>3d</fix>
</trkpt>
<trkpt lat="40.072842" lon="-105.230575">
  <ele>1586.09</ele>
  <time>2026-08-27T18:27:42Z</time>
  <course>12.12</course>
  <speed>0.0</speed>
  <fix>3d</fix>
</trkpt>
<trkpt lat="40.072842" lon="-105.230575">
  <ele>1586.09</ele>
  <time>2026-08-27T18:27:42Z</time>
  <course>0.0</course>
  <speed>0.0</speed>
  <fix>3d</fix>
</trkpt>
<trkpt lat="40.072842" lon="-105.230575">
  <ele>1586.09</ele>
  <time>2026-08-27T18:27:42Z</time>
  <course>12.12</course>
  <speed>0.0</speed>
  <fix>3d</fix>
</trkpt>
<trkpt lat="40.072842" lon="-105.230575">
  <ele>1586.09</ele>
  <time>2026-08-27T18:27:42Z</time>
  <course>0.0</course>
  <speed>0.0</speed>
  <fix>3d</fix>
</trkpt>
<trkpt lat="40.072842" lon="-105.230575">
  <ele>1586.09</ele>
  <time>2026-08-27T18:27:42Z</time>
  <course>12.12</course>
  <speed>0.0</speed>
  <fix>3d</fix>
</trkpt>
<trkpt lat="40.072842" lon="-105.230575">
  <ele>1586.09</ele>
  <time>2026-08-27T18:27:42Z</time>
  <course>0.0</course>
  <speed>0.0</speed>
  <fix>3d</fix>
</trkpt>
<trkpt lat="40.072842" lon="-105.230575">
  <ele>1586.09</ele>
  <time>2026-08-27T18:27:42Z</time>
  <course>12.12</course>
  <speed>0.0</speed>
  <fix>3d</fix>
</trkpt>
<trkpt lat="40.072842" lon="-105.230575">
  <ele>1586.09</ele>
  <time>2026-08-27T18:27:42Z</time>
  <course>0.0</course>
  <speed>0.0</speed>
  <fix>3d</fix>
</trkpt>
<trkpt lat="40.072842" lon="-105.230575">
  <ele>1586.09</ele>
  <time>2026-08-27T18:27:42Z</time>
  <course>12.12</course>
  <speed>0.01</speed>
  <fix>3d</fix>
</trkpt>
<trkpt lat="40.072842" lon="-105.230575">
  <ele>1586.09</ele>
  <time>2026-08-27T18:27:42Z</time>
  <course>0.0</course>
  <speed>0.0</speed>
  <fix>3d</fix>
</trkpt>
<trkpt lat="40.072842" lon="-105.230575">
  <ele>1586.09</ele>
  <time>2026-08-27T18:27:42Z</time>
  <course>12.12</course>
  <speed>0.01</speed>
  <fix>3d</fix>
</trkpt>
<trkpt lat="40.072842" lon="-105.230575">
  <ele>1586.09</ele>
  <time>2026-08-27T18:27:42Z</time>
  <course>0.0</course>
  <speed>0.0</speed>
  <fix>3d</fix>
</trkpt>
<trkpt lat="40.072842" lon="-105.230575">
  <ele>1586.09</ele>
  <time>2026-08-27T18:27:42Z</time>
  <course>12.12</course>
  <speed>0.01</speed>
  <fix>3d</fix>
</trkpt>
<trkpt lat="40.072842" lon="-105.230575">
  <ele>1586.09</ele>
  <time>2026-08-27T18:27:42Z</time>
  <course>0.0</course>
  <speed>0.0</speed>
  <fix>3d</fix>
</trkpt>
<trkpt lat="40.072842" lon="-105.230575">
  <ele>1586.09</ele>
  <time>2026-08-27T18:27:42Z</time>
  <course>12.12</course>
  <speed>0.01</speed>
  <fix>3d</fix>
</trkpt>
<trkpt lat="40.072842" lon="-105.230575">
  <ele>1586.09</ele>
  <time>2026-08-27T18:27:42Z</time>
  <course>0.0</course>
  <speed>0.0</speed>
  <fix>3d</fix>
</trkpt>
<trkpt lat="40.072842" lon="-105.230575">
  <ele>1586.09</ele>
  <time>2026-08-27T18:27:42Z</time>
  <course>12.11</course>
  <speed>0.01</speed>
  <fix>3d</fix>
</trkpt>
<trkpt lat="40.072842" lon="-105.230575">
  <ele>1586.09</ele>
  <time>2026-08-27T18:27:42Z</time>
  <course>0.0</course>
  <speed>0.0</speed>
  <fix>3d</fix>
</trkpt>
<trkpt lat="40.072842" lon="-105.230575">
  <ele>1586.09</ele>
  <time>2026-08-27T18:27:42Z</time>
  <course>12.11</course>
  <speed>0.01</speed>
  <fix>3d</fix>
</trkpt>
<trkpt lat="40.072842" lon="-105.230575">
  <ele>1586.09</ele>
  <time>2026-08-27T18:27:42Z</time>
  <course>0.0</course>
  <speed>0.0</speed>
  <fix>3d</fix>
</trkpt>
<trkpt lat="40.072842" lon="-105.230575">
  <ele>1586.09</ele>
  <time>2026-08-27T18:27:42Z</time>
  <course>12.11</course>
  <speed>0.01</speed>
  <fix>3d</fix>
</trkpt>
<trkpt lat="40.072842" lon="-105.230575">
  <ele>1586.09</ele>
  <time>2026-08-27T18:27:42Z</time>
  <course>0.0</course>
  <speed>0.0</speed>
  <fix>3d</fix>
</trkpt>
<trkpt lat="40.072842" lon="-105.230575">
  <ele>1586.09</ele>
  <time>2026-08-27T18:27:42Z</time>
  <course>12.1</course>
  <speed>0.01</speed>
  <fix>3d</fix>
</trkpt>
<trkpt lat="40.072842" lon="-105.230575">
  <ele>1586.09</ele>
  <time>2026-08-27T18:27:42Z</time>
  <course>0.0</course>
  <speed>0.0</speed>
  <fix>3d</fix>
</trkpt>
<trkpt lat="40.072842" lon="-105.230575">
  <ele>1586.09</ele>
  <time>2026-08-27T18:27:42Z</time>
  <course>12.1</course>
  <speed>0.01</speed>
  <fix>3d</fix>
</trkpt>
<trkpt lat="40.072842" lon="-105.230575">
  <ele>1586.09</ele>
  <time>2026-08-27T18:27:42Z</time>
  <course>0.0</course>
  <speed>0.0</speed>
  <fix>3d</fix>
</trkpt>
<trkpt lat="40.072842" lon="-105.230575">
  <ele>1586.09</ele>
  <time>2026-08-27T18:27:42Z</time>
  <course>12.09</course>
  <speed>0.01</speed>
  <fix>3d</fix>
</trkpt>
<trkpt lat="40.072842" lon="-105.230575">
  <ele>1586.09</ele>
  <time>2026-08-27T18:27:42Z</time>
  <course>0.0</course>
  <speed>0.0</speed>
  <fix>3d</fix>
</trkpt>
<trkpt lat="40.072842" lon="-105.230575">
  <ele>1586.09</ele>
  <time>2026-08-27T18:27:42Z</time>
  <course>12.09</course>
  <speed>0.01</speed>
  <fix>3d</fix>
</trkpt>
<trkpt lat="40.072842" lon="-105.230575">
  <ele>1586.09</ele>
  <time>2026-08-27T18:27:42Z</time>
  <course>0.0</course>
  <speed>0.0</speed>
  <fix>3d</fix>
</trkpt>
<trkpt lat="40.072842" lon="-105.230575">
  <ele>1586.09</ele>
  <time>2026-08-27T18:27:42Z</time>
  <course>12.08</course>
  <speed>0.01414213562373095</speed>
  <fix>3d</fix>
</trkpt>
<trkpt lat="40.072842" lon="-105.230575">
  <ele>1586.09</ele>
  <time>2026-08-27T18:27:42Z</time>
  <course>0.0</course>
  <speed>0.0</speed>
  <fix>3d</fix>
</trkpt>
<trkpt lat="40.072842" lon="-105.230575">
  <ele>1586.09</ele>
  <time>2026-08-27T18:27:42Z</time>
  <course>12.07</course>
  <speed>0.01414213562373095</speed>
  <fix>3d</fix>
</trkpt>
<trkpt lat="40.072842" lon="-105.230575">
  <ele>1586.09</ele>
  <time>2026-08-27T18:27:42Z</time>
  <course>0.0</course>
  <speed>0.0</speed>
  <fix>3d</fix>
</trkpt>
<trkpt lat="40.072842" lon="-105.230575">
  <ele>1586.09</ele>
  <time>2026-08-27T18:27:42Z</time>
  <course>12.07</course>
  <speed>0.01414213562373095</speed>
  <fix>3d</fix>
</trkpt>
<trkpt lat="40.072842" lon="-105.230575">
  <ele>1586.09</ele>
  <time>2026-08-27T18:27:42Z</time>
  <course>0.0</course>
  <speed>0.0</speed>
  <fix>3d</fix>
</trkpt>
<trkpt lat="40.072842" lon="-105.230575">
  <ele>1586.09</ele>
  <time>2026-08-27T18:27:42Z</time>
  <course>12.06</course>
  <speed>0.01414213562373095</speed>
  <fix>3d</fix>
</trkpt>
<trkpt lat="40.072842" lon="-105.230575">
  <ele>1586.09</ele>
  <time>2026-08-27T18:27:42Z</time>
  <course>0.0</course>
  <speed>0.0</speed>
  <fix>3d</fix>
</trkpt>
<trkpt lat="40.072842" lon="-105.230575">
  <ele>1586.09</ele>
  <time>2026-08-27T18:27:42Z</time>
  <course>12.05</course>
  <speed>0.01414213562373095</speed>
  <fix>3d</fix>
</trkpt>
<trkpt lat="40.072842" lon="-105.230575">
  <ele>1586.09</ele>
  <time>2026-08-27T18:27:42Z</time>
  <course>0.0</course>
  <speed>0.0</speed>
  <fix>3d</fix>
</trkpt>
<trkpt lat="40.072842" lon="-105.230575">
  <ele>1586.09</ele>
  <time>2026-08-27T18:27:42Z</time>
  <course>12.05</course>
  <speed>0.01414213562373095</speed>
  <fix>3d</fix>
</trkpt>
<trkpt lat="40.072842" lon="-105.230575">
  <ele>1586.09</ele>
  <time>2026-08-27T18:27:42Z</time>
  <course>0.0</course>
  <speed>0.0</speed>
  <fix>3d</fix>
</trkpt>
<trkpt lat="40.072842" lon="-105.230575">
  <ele>1586.09</ele>
  <time>2026-08-27T18:27:42Z</time>
  <course>12.04</course>
  <speed>0.01414213562373095</speed>
  <fix>3d</fix>
</trkpt>
<trkpt lat="40.072842" lon="-105.230575">
  <ele>1586.09</ele>
  <time>2026-08-27T18:27:42Z</time>
  <course>0.0</course>
  <speed>0.0</speed>
  <fix>3d</fix>
</trkpt>
<trkpt lat="40.072842" lon="-105.230575">
  <ele>1586.09</ele>
  <time>2026-08-27T18:27:42Z</time>
  <course>12.03</course>
  <speed>0.01414213562373095</speed>
  <fix>3d</fix>
</trkpt>
<trkpt lat="40.072842" lon="-105.230575">
  <ele>1586.09</ele>
  <time>2026-08-27T18:27:42Z</time>
  <course>0.0</course>
  <speed>0.0</speed>
  <fix>3d</fix>
</trkpt>
<trkpt lat="40.072842" lon="-105.230575">
  <ele>1586.09</ele>
  <time>2026-08-27T18:27:42Z</time>
  <course>12.03</course>
  <speed>0.01414213562373095</speed>
  <fix>3d</fix>
</trkpt>
<trkpt lat="40.072842" lon="-105.230575">
  <ele>1586.09</ele>
  <time>2026-08-27T18:27:42Z</time>
  <course>0.0</course>
  <speed>0.0</speed>
  <fix>3d</fix>
</trkpt>
<trkpt lat="40.072842" lon="-105.230575">
  <ele>1586.09</ele>
  <time>2026-08-27T18:27:42Z</time>
  <course>12.02</course>
  <speed>0.01414213562373095</speed>
  <fix>3d</fix>
</trkpt>
<trkpt lat="40.072842" lon="-105.230575">
  <ele>1586.09</ele>
  <time>2026-08-27T18:27:42Z</time>
  <course>0.0</course>
  <speed>0.0</speed>
  <fix>3d</fix>
</trkpt>
<trkpt lat="40.072842" lon="-105.230575">
  <ele>1586.09</ele>
  <time>2026-08-27T18:27:42Z</time>
  <course>12.01</course>
  <speed>0.01414213562373095</speed>
  <fix>3d</fix>
</trkpt>
<trkpt lat="40.072842" lon="-105.230575">
  <ele>1586.09</ele>
  <time>2026-08-27T18:27:42Z</time>
  <course>0.0</course>
  <speed>0.0</speed>
  <fix>3d</fix>
</trkpt>
<trkpt lat="40.072842" lon="-105.230575">
  <ele>1586.09</ele>
  <time>2026-08-27T18:27:42Z</time>
  <course>12.0</course>
  <speed>0.01414213562373095</speed>
  <fix>3d</fix>
</trkpt>
<trkpt lat="40.072842" lon="-105.230575">
  <ele>1586.09</ele>
  <time>2026-08-27T18:27:42Z</time>
  <course>0.0</course>
  <speed>0.0</speed>
  <fix>3d</fix>
</trkpt>
<trkpt lat="40.072842" lon="-105.230575">
  <ele>1586.09</ele>
  <time>2026-08-27T18:27:42Z</time>
  <course>11.99</course>
  <speed>0.01414213562373095</speed>
  <fix>3d</fix>
</trkpt>
<trkpt lat="40.072842" lon="-105.230575">
  <ele>1586.09</ele>
  <time>2026-08-27T18:27:42Z</time>
  <course>0.0</course>
  <speed>0.0</speed>
  <fix>3d</fix>
</trkpt>
<trkpt lat="40.072842" lon="-105.230575">
  <ele>1586.09</ele>
  <time>2026-08-27T18:27:42Z</time>
  <course>11.99</course>
  <speed>0.01414213562373095</speed>
  <fix>3d</fix>
</trkpt>
<trkpt lat="40.072842" lon="-105.230575">
  <ele>1586.09</ele>
  <time>2026-08-27T18:27:42Z</time>
  <course>0.0</course>
  <speed>0.0</speed>
  <fix>3d</fix>
</trkpt>
<trkpt lat="40.072842" lon="-105.230575">
  <ele>1586.09</ele>
  <time>2026-08-27T18:27:42Z</time>
  <course>11.98</course>
  <speed>0.01414213562373095</speed>
  <fix>3d</fix>
</trkpt>
<trkpt lat="40.072842" lon="-105.230575">
  <ele>1586.09</ele>
  <time>2026-08-27T18:27:42Z</time>
  <course>0.0</course>
  <speed>0.0</speed>
  <fix>3d</fix>
</trkpt>
<trkpt lat="40.072842" lon="-105.230575">
  <ele>1586.09</ele>
  <time>2026-08-27T18:27:42Z</time>
  <course>11.97</course>
  <speed>0.01414213562373095</speed>
  <fix>3d</fix>
</trkpt>
<trkpt lat="40.072842" lon="-105.230575">
  <ele>1586.09</ele>
  <time>2026-08-27T18:27:42Z</time>
  <course>0.0</course>
  <speed>0.0</speed>
  <fix>3d</fix>
</trkpt>
<trkpt lat="40.072842" lon="-105.230575">
  <ele>1586.09</ele>
  <time>2026-08-27T18:27:42Z</time>
  <course>11.96</course>
  <speed>0.022360679774997897</speed>
  <fix>3d</fix>
</trkpt>
<trkpt lat="40.072842" lon="-105.230575">
  <ele>1586.09</ele>
  <time>2026-08-27T18:27:42Z</time>
  <course>0.0</course>
  <speed>0.0</speed>
  <fix>3d</fix>
</trkpt>
<trkpt lat="40.072842" lon="-105.230575">
  <ele>1586.09</ele>
  <time>2026-08-27T18:27:42Z</time>
  <course>11.95</course>
  <speed>0.022360679774997897</speed>
  <fix>3d</fix>
</trkpt>
<trkpt lat="40.072842" lon="-105.230575">
  <ele>1586.09</ele>
  <time>2026-08-27T18:27:42Z</time>
  <course>0.0</course>
  <speed>0.0</speed>
  <fix>3d</fix>
</trkpt>
<trkpt lat="40.072842" lon="-105.230575">
  <ele>1586.09</ele>
  <time>2026-08-27T18:27:42Z</time>
  <course>11.95</course>
  <speed>0.022360679774997897</speed>
  <fix>3d</fix>
</trkpt>
<trkpt lat="40.072842" lon="-105.230575">
  <ele>1586.09</ele>
  <time>2026-08-27T18:27:42Z</time>
  <course>0.0</course>
  <speed>0.0</speed>
  <fix>3d</fix>
</trkpt>
<trkpt lat="40.072842" lon="-105.230575">
  <ele>1586.09</ele>
  <time>2026-08-27T18:27:42Z</time>
  <course>11.94</course>
  <speed>0.022360679774997897</speed>
  <fix>3d</fix>
</trkpt>
<trkpt lat="40.072842" lon="-105.230575">
  <ele>1586.09</ele>
  <time>2026-08-27T18:27:42Z</time>
  <course>0.0</course>
  <speed>0.0</speed>
  <fix>3d</fix>
</trkpt>
<trkpt lat="40.072842" lon="-105.230575">
  <ele>1586.09</ele>
  <time>2026-08-27T18:27:42Z</time>
  <course>11.93</course>
  <speed>0.022360679774997897</speed>
  <fix>3d</fix>
</trkpt>
<trkpt lat="40.072842" lon="-105.230575">
  <ele>1586.09</ele>
  <time>2026-08-27T18:27:42Z</time>
  <course>0.0</course>
  <speed>0.0</speed>
  <fix>3d</fix>
</trkpt>
<trkpt lat="40.072842" lon="-105.230575">
  <ele>1586.09</ele>
  <time>2026-08-27T18:27:42Z</time>
  <course>11.92</course>
  <speed>0.022360679774997897</speed>
  <fix>3d</fix>
</trkpt>
<trkpt lat="40.072842" lon="-105.230575">
  <ele>1586.09</ele>
  <time>2026-08-27T18:27:42Z</time>
  <course>0.0</course>
  <speed>0.0</speed>
  <fix>3d</fix>
</trkpt>
<trkpt lat="40.072842" lon="-105.230575">
  <ele>1586.09</ele>
  <time>2026-08-27T18:27:42Z</time>
  <course>11.91</course>
  <speed>0.022360679774997897</speed>
  <fix>3d</fix>
</trkpt>
<trkpt lat="40.072842" lon="-105.230575">
  <ele>1586.09</ele>
  <time>2026-08-27T18:27:42Z</time>
  <course>0.0</course>
  <speed>0.0</speed>
  <fix>3d</fix>
</trkpt>
<trkpt lat="40.072842" lon="-105.230575">
  <ele>1586.09</ele>
  <time>2026-08-27T18:27:42Z</time>
  <course>11.91</course>
  <speed>0.022360679774997897</speed>
  <fix>3d</fix>
</trkpt>
<trkpt lat="40.072842" lon="-105.230575">
  <ele>1586.09</ele>
  <time>2026-08-27T18:27:42Z</time>
  <course>0.0</course>
  <speed>0.0</speed>
  <fix>3d</fix>
</trkpt>
<trkpt lat="40.072842" lon="-105.230575">
  <ele>1586.09</ele>
  <time>2026-08-27T18:27:42Z</time>
  <course>11.9</course>
  <speed>0.022360679774997897</speed>
  <fix>3d</fix>
</trkpt>
<trkpt lat="40.072842" lon="-105.230575">
  <ele>1586.09</ele>
  <time>2026-08-27T18:27:42Z</time>
  <course>0.0</course>
  <speed>0.0</speed>
  <fix>3d</fix>
</trkpt>
<trkpt lat="40.072842" lon="-105.230575">
  <ele>1586.09</ele>
  <time>2026-08-27T18:27:42Z</time>
  <course>11.89</course>
  <speed>0.022360679774997897</speed>
  <fix>3d</fix>
</trkpt>
<trkpt lat="40.072842" lon="-105.230575">
  <ele>1586.09</ele>
  <time>2026-08-27T18:27:42Z</time>
  <course>0.0</course>
  <speed>0.0</speed>
  <fix>3d</fix>
</trkpt>
<trkpt lat="40.072842" lon="-105.230575">
  <ele>1586.09</ele>
  <time>2026-08-27T18:27:42Z</time>
  <course>11.88</course>
  <speed>0.022360679774997897</speed>
  <fix>3d</fix>
</trkpt>
<trkpt lat="40.072842" lon="-105.230575">
  <ele>1586.09</ele>
  <time>2026-08-27T18:27:42Z</time>
  <course>0.0</course>
  <speed>0.0</speed>
  <fix>3d</fix>
</trkpt>
<trkpt lat="40.072842" lon="-105.230575">
  <ele>1586.09</ele>
  <time>2026-08-27T18:27:42Z</time>
  <course>11.87</course>
  <speed>0.022360679774997897</speed>
  <fix>3d</fix>
</trkpt>
<trkpt lat="40.072842" lon="-105.230575">
  <ele>1586.09</ele>
  <time>2026-08-27T18:27:42Z</time>
  <course>0.0</course>
  <speed>0.0</speed>
  <fix>3d</fix>
</trkpt>
<trkpt lat="40.072842" lon="-105.230575">
  <ele>1586.09</ele>
  <time>2026-08-27T18:27:42Z</time>
  <course>11.86</course>
  <speed>0.022360679774997897</speed>
  <fix>3d</fix>
</trkpt>
<trkpt lat="40.072842" lon="-105.230575">
  <ele>1586.09</ele>
  <time>2026-08-27T18:27:42Z</time>
  <course>0.0</course>
  <speed>0.0</speed>
  <fix>3d</fix>
</trkpt>
<trkpt lat="40.072842" lon="-105.230575">
  <ele>1586.09</ele>
  <time>2026-08-27T18:27:42Z</time>
  <course>11.86</course>
  <speed>0.022360679774997897</speed>
  <fix>3d</fix>
</trkpt>
<trkpt lat="40.072842" lon="-105.230575">
  <ele>1586.09</ele>
  <time>2026-08-27T18:27:42Z</time>
  <course>0.0</course>
  <speed>0.0</speed>
  <fix>3d</fix>
</trkpt>
<trkpt lat="40.072842" lon="-105.230575">
  <ele>1586.09</ele>
  <time>2026-08-27T18:27:42Z</time>
  <course>11.85</course>
  <speed>0.022360679774997897</speed>
  <fix>3d</fix>
</trkpt>
<trkpt lat="40.072842" lon="-105.230575">
  <ele>1586.09</ele>
  <time>2026-08-27T18:27:42Z</time>
  <course>0.0</course>
  <speed>0.0</speed>
  <fix>3d</fix>
</trkpt>
<trkpt lat="40.072842" lon="-105.230575">
  <ele>1586.09</ele>
  <time>2026-08-27T18:27:42Z</time>
  <course>11.84</course>
  <speed>0.022360679774997897</speed>
  <fix>3d</fix>
</trkpt>
<trkpt lat="40.072842" lon="-105.230575">
  <ele>1586.09</ele>
  <time>2026-08-27T18:27:42Z</time>
  <course>0.0</course>
  <speed>0.0</speed>
  <fix>3d</fix>
</trkpt>
<trkpt lat="40.072842" lon="-105.230575">
  <ele>1586.09</ele>
  <time>2026-08-27T18:27:42Z</time>
  <course>11.83</course>
  <speed>0.022360679774997897</speed>
  <fix>3d</fix>
</trkpt>
<trkpt lat="40.072842" lon="-105.230575">
  <ele>1586.09</ele>
  <time>2026-08-27T18:27:42Z</time>
  <course>0.0</course>
  <speed>0.0</speed>
  <fix>3d</fix>
</trkpt>
<trkpt lat="40.072842" lon="-105.230575">
  <ele>1586.09</ele>
  <time>2026-08-27T18:27:43Z</time>
  <course>11.82</course>
  <speed>0.0282842712474619</speed>
  <fix>3d</fix>
</trkpt>
<trkpt lat="40.072842" lon="-105.230575">
  <ele>1586.09</ele>
  <time>2026-08-27T18:27:43Z</time>
  <course>0.0</course>
  <speed>0.0</speed>
  <fix>3d</fix>
</trkpt>
<trkpt lat="40.072842" lon="-105.230575">
  <ele>1586.09</ele>
  <time>2026-08-27T18:27:43Z</time>
  <course>11.82</course>
  <speed>0.0282842712474619</speed>
  <fix>3d</fix>
</trkpt>
<trkpt lat="40.072842" lon="-105.230575">
  <ele>1586.09</ele>
  <time>2026-08-27T18:27:43Z</time>
  <course>0.0</course>
  <speed>0.0</speed>
  <fix>3d</fix>
</trkpt>
<trkpt lat="40.072842" lon="-105.230575">
  <ele>1586.09</ele>
  <time>2026-08-27T18:27:43Z</time>
  <course>11.81</course>
  <speed>0.0282842712474619</speed>
  <fix>3d</fix>
</trkpt>
<trkpt lat="40.072842" lon="-105.230575">
  <ele>1586.09</ele>
  <time>2026-08-27T18:27:43Z</time>
  <course>0.0</course>
  <speed>0.0</speed>
  <fix>3d</fix>
</trkpt>
<trkpt lat="40.072842" lon="-105.230575">
  <ele>1586.09</ele>
  <time>2026-08-27T18:27:43Z</time>
  <course>11.8</course>
  <speed>0.0282842712474619</speed>
  <fix>3d</fix>
</trkpt>
<trkpt lat="40.072842" lon="-105.230575">
  <ele>1586.09</ele>
  <time>2026-08-27T18:27:43Z</time>
  <course>0.0</course>
  <speed>0.0</speed>
  <fix>3d</fix>
</trkpt>
<trkpt lat="40.072842" lon="-105.230575">
  <ele>1586.09</ele>
  <time>2026-08-27T18:27:43Z</time>
  <course>11.79</course>
  <speed>0.0282842712474619</speed>
  <fix>3d</fix>
</trkpt>
<trkpt lat="40.072842" lon="-105.230575">
  <ele>1586.09</ele>
  <time>2026-08-27T18:27:43Z</time>
  <course>0.0</course>
  <speed>0.0</speed>
  <fix>3d</fix>
</trkpt>
<trkpt lat="40.072842" lon="-105.230575">
  <ele>1586.09</ele>
  <time>2026-08-27T18:27:43Z</time>
  <course>11.78</course>
  <speed>0.0282842712474619</speed>
  <fix>3d</fix>
</trkpt>
<trkpt lat="40.072842" lon="-105.230575">
  <ele>1586.09</ele>
  <time>2026-08-27T18:27:43Z</time>
  <course>0.0</course>
  <speed>0.0</speed>
  <fix>3d</fix>
</trkpt>
<trkpt lat="40.072842" lon="-105.230575">
  <ele>1586.09</ele>
  <time>2026-08-27T18:27:43Z</time>
  <course>11.78</course>
  <speed>0.0282842712474619</speed>
  <fix>3d</fix>
</trkpt>
<trkpt lat="40.072842" lon="-105.230575">
  <ele>1586.09</ele>
  <time>2026-08-27T18:27:43Z</time>
  <course>0.0</course>
  <speed>0.0</speed>
  <fix>3d</fix>
</trkpt>
<trkpt lat="40.072842" lon="-105.230575">
  <ele>1586.09</ele>
  <time>2026-08-27T18:27:43Z</time>
  <course>11.77</course>
  <speed>0.0282842712474619</speed>
  <fix>3d</fix>
</trkpt>
<trkpt lat="40.072842" lon="-105.230575">
  <ele>1586.09</ele>
  <time>2026-08-27T18:27:43Z</time>
  <course>0.0</course>
  <speed>0.0</speed>
  <fix>3d</fix>
</trkpt>
<trkpt lat="40.072842" lon="-105.230575">
  <ele>1586.09</ele>
  <time>2026-08-27T18:27:43Z</time>
  <course>11.76</course>
  <speed>0.0282842712474619</speed>
  <fix>3d</fix>
</trkpt>
<trkpt lat="40.072842" lon="-105.230575">
  <ele>1586.09</ele>
  <time>2026-08-27T18:27:43Z</time>
  <course>0.0</course>
  <speed>0.0</speed>
  <fix>3d</fix>
</trkpt>
<trkpt lat="40.072842" lon="-105.230575">
  <ele>1586.09</ele>
  <time>2026-08-27T18:27:43Z</time>
  <course>11.76</course>
  <speed>0.0282842712474619</speed>
  <fix>3d</fix>
</trkpt>
<trkpt lat="40.072842" lon="-105.230575">
  <ele>1586.09</ele>
  <time>2026-08-27T18:27:43Z</time>
  <course>0.0</course>
  <speed>0.0</speed>
  <fix>3d</fix>
</trkpt>
<trkpt lat="40.072842" lon="-105.230575">
  <ele>1586.09</ele>
  <time>2026-08-27T18:27:43Z</time>
  <course>11.75</course>
  <speed>0.0282842712474619</speed>
  <fix>3d</fix>
</trkpt>
<trkpt lat="40.072842" lon="-105.230575">
  <ele>1586.09</ele>
  <time>2026-08-27T18:27:43Z</time>
  <course>0.0</course>
  <speed>0.0</speed>
  <fix>3d</fix>
</trkpt>
<trkpt lat="40.072842" lon="-105.230575">
  <ele>1586.09</ele>
  <time>2026-08-27T18:27:43Z</time>
  <course>11.74</course>
  <speed>0.03605551275463989</speed>
  <fix>3d</fix>
</trkpt>
<trkpt lat="40.072842" lon="-105.230575">
  <ele>1586.09</ele>
  <time>2026-08-27T18:27:43Z</time>
  <course>0.0</course>
  <speed>0.0</speed>
  <fix>3d</fix>
</trkpt>
<trkpt lat="40.072842" lon="-105.230575">
  <ele>1586.09</ele>
  <time>2026-08-27T18:27:43Z</time>
  <course>11.73</course>
  <speed>0.03605551275463989</speed>
  <fix>3d</fix>
</trkpt>
<trkpt lat="40.072842" lon="-105.230575">
  <ele>1586.09</ele>
  <time>2026-08-27T18:27:43Z</time>
  <course>0.0</course>
  <speed>0.0</speed>
  <fix>3d</fix>
</trkpt>
<trkpt lat="40.072842" lon="-105.230575">
  <ele>1586.09</ele>
  <time>2026-08-27T18:27:43Z</time>
  <course>11.73</course>
  <speed>0.03605551275463989</speed>
  <fix>3d</fix>
</trkpt>
<trkpt lat="40.072842" lon="-105.230575">
  <ele>1586.09</ele>
  <time>2026-08-27T18:27:43Z</time>
  <course>0.0</course>
  <speed>0.0</speed>
  <fix>3d</fix>
</trkpt>
<trkpt lat="40.072842" lon="-105.230575">
  <ele>1586.09</ele>
  <time>2026-08-27T18:27:43Z</time>
  <course>11.72</course>
  <speed>0.03605551275463989</speed>
  <fix>3d</fix>
</trkpt>
<trkpt lat="40.072842" lon="-105.230575">
  <ele>1586.09</ele>
  <time>2026-08-27T18:27:43Z</time>
  <course>0.0</course>
  <speed>0.0</speed>
  <fix>3d</fix>
</trkpt>
<trkpt lat="40.072842" lon="-105.230575">
  <ele>1586.09</ele>
  <time>2026-08-27T18:27:43Z</time>
  <course>11.71</course>
  <speed>0.03605551275463989</speed>
  <fix>3d</fix>
</trkpt>
<trkpt lat="40.072842" lon="-105.230575">
  <ele>1586.09</ele>
  <time>2026-08-27T18:27:43Z</time>
  <course>0.0</course>
  <speed>0.0</speed>
  <fix>3d</fix>
</trkpt>
<trkpt lat="40.072842" lon="-105.230575">
  <ele>1586.09</ele>
  <time>2026-08-27T18:27:43Z</time>
  <course>11.7</course>
  <speed>0.03605551275463989</speed>
  <fix>3d</fix>
</trkpt>
<trkpt lat="40.072842" lon="-105.230575">
  <ele>1586.09</ele>
  <time>2026-08-27T18:27:43Z</time>
  <course>0.0</course>
  <speed>0.0</speed>
  <fix>3d</fix>
</trkpt>
<trkpt lat="40.072842" lon="-105.230575">
  <ele>1586.09</ele>
  <time>2026-08-27T18:27:43Z</time>
  <course>11.69</course>
  <speed>0.03605551275463989</speed>
  <fix>3d</fix>
</trkpt>
<trkpt lat="40.072842" lon="-105.230575">
  <ele>1586.09</ele>
  <time>2026-08-27T18:27:43Z</time>
  <course>0.0</course>
  <speed>0.0</speed>
  <fix>3d</fix>
</trkpt>
<trkpt lat="40.072842" lon="-105.230575">
  <ele>1586.09</ele>
  <time>2026-08-27T18:27:43Z</time>
  <course>11.69</course>
  <speed>0.03605551275463989</speed>
  <fix>3d</fix>
</trkpt>
<trkpt lat="40.072842" lon="-105.230575">
  <ele>1586.09</ele>
  <time>2026-08-27T18:27:43Z</time>
  <course>0.0</course>
  <speed>0.0</speed>
  <fix>3d</fix>
</trkpt>
<trkpt lat="40.072842" lon="-105.230575">
  <ele>1586.09</ele>
  <time>2026-08-27T18:27:43Z</time>
  <course>11.68</course>
  <speed>0.03605551275463989</speed>
  <fix>3d</fix>
</trkpt>
<trkpt lat="40.072842" lon="-105.230575">
  <ele>1586.09</ele>
  <time>2026-08-27T18:27:43Z</time>
  <course>0.0</course>
  <speed>0.0</speed>
  <fix>3d</fix>
</trkpt>
<trkpt lat="40.072842" lon="-105.230575">
  <ele>1586.09</ele>
  <time>2026-08-27T18:27:43Z</time>
  <course>11.67</course>
  <speed>0.03605551275463989</speed>
  <fix>3d</fix>
</trkpt>
<trkpt lat="40.072842" lon="-105.230575">
  <ele>1586.09</ele>
  <time>2026-08-27T18:27:43Z</time>
  <course>0.0</course>
  <speed>0.0</speed>
  <fix>3d</fix>
</trkpt>
<trkpt lat="40.072842" lon="-105.230575">
  <ele>1586.09</ele>
  <time>2026-08-27T18:27:43Z</time>
  <course>11.67</course>
  <speed>0.03605551275463989</speed>
  <fix>3d</fix>
</trkpt>
<trkpt lat="40.072842" lon="-105.230575">
  <ele>1586.09</ele>
  <time>2026-08-27T18:27:43Z</time>
  <course>0.0</course>
  <speed>0.0</speed>
  <fix>3d</fix>
</trkpt>
<trkpt lat="40.072842" lon="-105.230575">
  <ele>1586.09</ele>
  <time>2026-08-27T18:27:43Z</time>
  <course>11.66</course>
  <speed>0.03605551275463989</speed>
  <fix>3d</fix>
</trkpt>
<trkpt lat="40.072842" lon="-105.230575">
  <ele>1586.09</ele>
  <time>2026-08-27T18:27:43Z</time>
  <course>0.0</course>
  <speed>0.0</speed>
  <fix>3d</fix>
</trkpt>
<trkpt lat="40.072842" lon="-105.230575">
  <ele>1586.09</ele>
  <time>2026-08-27T18:27:43Z</time>
  <course>11.65</course>
  <speed>0.03605551275463989</speed>
  <fix>3d</fix>
</trkpt>
<trkpt lat="40.072842" lon="-105.230575">
  <ele>1586.09</ele>
  <time>2026-08-27T18:27:43Z</time>
  <course>0.0</course>
  <speed>0.0</speed>
  <fix>3d</fix>
</trkpt>
<trkpt lat="40.072842" lon="-105.230575">
  <ele>1586.09</ele>
  <time>2026-08-27T18:27:43Z</time>
  <course>11.65</course>
  <speed>0.03605551275463989</speed>
  <fix>3d</fix>
</trkpt>
<trkpt lat="40.072842" lon="-105.230575">
  <ele>1586.09</ele>
  <time>2026-08-27T18:27:43Z</time>
  <course>0.0</course>
  <speed>0.0</speed>
  <fix>3d</fix>
</trkpt>
<trkpt lat="40.072842" lon="-105.230575">
  <ele>1586.09</ele>
  <time>2026-08-27T18:27:43Z</time>
  <course>11.64</course>
  <speed>0.03605551275463989</speed>
  <fix>3d</fix>
</trkpt>
<trkpt lat="40.072842" lon="-105.230575">
  <ele>1586.09</ele>
  <time>2026-08-27T18:27:43Z</time>
  <course>0.0</course>
  <speed>0.0</speed>
  <fix>3d</fix>
</trkpt>
<trkpt lat="40.072842" lon="-105.230575">
  <ele>1586.09</ele>
  <time>2026-08-27T18:27:43Z</time>
  <course>11.63</course>
  <speed>0.03605551275463989</speed>
  <fix>3d</fix>
</trkpt>
<trkpt lat="40.072842" lon="-105.230575">
  <ele>1586.09</ele>
  <time>2026-08-27T18:27:43Z</time>
  <course>0.0</course>
  <speed>0.0</speed>
  <fix>3d</fix>
</trkpt>
<trkpt lat="40.072842" lon="-105.230575">
  <ele>1586.09</ele>
  <time>2026-08-27T18:27:43Z</time>
  <course>11.62</course>
  <speed>0.03605551275463989</speed>
  <fix>3d</fix>
</trkpt>
<trkpt lat="40.072842" lon="-105.230575">
  <ele>1586.09</ele>
  <time>2026-08-27T18:27:43Z</time>
  <course>0.0</course>
  <speed>0.0</speed>
  <fix>3d</fix>
</trkpt>
<trkpt lat="40.072842" lon="-105.230575">
  <ele>1586.09</ele>
  <time>2026-08-27T18:27:43Z</time>
  <course>11.62</course>
  <speed>0.03605551275463989</speed>
  <fix>3d</fix>
</trkpt>
<trkpt lat="40.072842" lon="-105.230575">
  <ele>1586.09</ele>
  <time>2026-08-27T18:27:43Z</time>
  <course>0.0</course>
  <speed>0.0</speed>
  <fix>3d</fix>
</trkpt>
<trkpt lat="40.072842" lon="-105.230575">
  <ele>1586.09</ele>
  <time>2026-08-27T18:27:43Z</time>
  <course>11.61</course>
  <speed>0.03605551275463989</speed>
  <fix>3d</fix>
</trkpt>
<trkpt lat="40.072842" lon="-105.230575">
  <ele>1586.09</ele>
  <time>2026-08-27T18:27:43Z</time>
  <course>0.0</course>
  <speed>0.0</speed>
  <fix>3d</fix>
</trkpt>
<trkpt lat="40.072842" lon="-105.230575">
  <ele>1586.09</ele>
  <time>2026-08-27T18:27:43Z</time>
  <course>11.61</course>
  <speed>0.03605551275463989</speed>
  <fix>3d</fix>
</trkpt>
<trkpt lat="40.072842" lon="-105.230575">
  <ele>1586.09</ele>
  <time>2026-08-27T18:27:43Z</time>
  <course>0.0</course>
  <speed>0.0</speed>
  <fix>3d</fix>
</trkpt>
<trkpt lat="40.072842" lon="-105.230575">
  <ele>1586.09</ele>
  <time>2026-08-27T18:27:43Z</time>
  <course>11.6</course>
  <speed>0.03605551275463989</speed>
  <fix>3d</fix>
</trkpt>
<trkpt lat="40.072842" lon="-105.230575">
  <ele>1586.09</ele>
  <time>2026-08-27T18:27:43Z</time>
  <course>0.0</course>
  <speed>0.0</speed>
  <fix>3d</fix>
</trkpt>
<trkpt lat="40.072842" lon="-105.230575">
  <ele>1586.09</ele>
  <time>2026-08-27T18:27:43Z</time>
  <course>11.59</course>
  <speed>0.03605551275463989</speed>
  <fix>3d</fix>
</trkpt>
<trkpt lat="40.072842" lon="-105.230575">
  <ele>1586.09</ele>
  <time>2026-08-27T18:27:43Z</time>
  <course>0.0</course>
  <speed>0.0</speed>
  <fix>3d</fix>
</trkpt>
<trkpt lat="40.072842" lon="-105.230575">
  <ele>1586.09</ele>
  <time>2026-08-27T18:27:43Z</time>
  <course>11.59</course>
  <speed>0.03605551275463989</speed>
  <fix>3d</fix>
</trkpt>
<trkpt lat="40.072842" lon="-105.230575">
  <ele>1586.09</ele>
  <time>2026-08-27T18:27:43Z</time>
  <course>0.0</course>
  <speed>0.0</speed>
  <fix>3d</fix>
</trkpt>
<trkpt lat="40.072842" lon="-105.230575">
  <ele>1586.09</ele>
  <time>2026-08-27T18:27:43Z</time>
  <course>11.58</course>
  <speed>0.03605551275463989</speed>
  <fix>3d</fix>
</trkpt>
<trkpt lat="40.072842" lon="-105.230575">
  <ele>1586.09</ele>
  <time>2026-08-27T18:27:43Z</time>
  <course>0.0</course>
  <speed>0.0</speed>
  <fix>3d</fix>
</trkpt>
<trkpt lat="40.072842" lon="-105.230575">
  <ele>1586.09</ele>
  <time>2026-08-27T18:27:43Z</time>
  <course>11.57</course>
  <speed>0.03605551275463989</speed>
  <fix>3d</fix>
</trkpt>
<trkpt lat="40.072842" lon="-105.230575">
  <ele>1586.09</ele>
  <time>2026-08-27T18:27:43Z</time>
  <course>0.0</course>
  <speed>0.0</speed>
  <fix>3d</fix>
</trkpt>
<trkpt lat="40.072842" lon="-105.230575">
  <ele>1586.09</ele>
  <time>2026-08-27T18:27:43Z</time>
  <course>11.57</course>
  <speed>0.03605551275463989</speed>
  <fix>3d</fix>
</trkpt>
<trkpt lat="40.072842" lon="-105.230575">
  <ele>1586.09</ele>
  <time>2026-08-27T18:27:43Z</time>
  <course>0.0</course>
  <speed>0.0</speed>
  <fix>3d</fix>
</trkpt>
<trkpt lat="40.072842" lon="-105.230575">
  <ele>1586.09</ele>
  <time>2026-08-27T18:27:43Z</time>
  <course>11.56</course>
  <speed>0.03605551275463989</speed>
  <fix>3d</fix>
</trkpt>
<trkpt lat="40.072842" lon="-105.230575">
  <ele>1586.09</ele>
  <time>2026-08-27T18:27:43Z</time>
  <course>0.0</course>
  <speed>0.0</speed>
  <fix>3d</fix>
</trkpt>
<trkpt lat="40.072842" lon="-105.230575">
  <ele>1586.09</ele>
  <time>2026-08-27T18:27:43Z</time>
  <course>11.56</course>
  <speed>0.03605551275463989</speed>
  <fix>3d</fix>
</trkpt>
<trkpt lat="40.072842" lon="-105.230575">
  <ele>1586.09</ele>
  <time>2026-08-27T18:27:43Z</time>
  <course>0.0</course>
  <speed>0.0</speed>
  <fix>3d</fix>
</trkpt>
<trkpt lat="40.072842" lon="-105.230575">
  <ele>1586.09</ele>
  <time>2026-08-27T18:27:43Z</time>
  <course>11.55</course>
  <speed>0.03605551275463989</speed>
  <fix>3d</fix>
</trkpt>
<trkpt lat="40.072842" lon="-105.230575">
  <ele>1586.09</ele>
  <time>2026-08-27T18:27:43Z</time>
  <course>0.0</course>
  <speed>0.0</speed>
  <fix>3d</fix>
</trkpt>
<trkpt lat="40.072842" lon="-105.230575">
  <ele>1586.09</ele>
  <time>2026-08-27T18:27:43Z</time>
  <course>11.54</course>
  <speed>0.03605551275463989</speed>
  <fix>3d</fix>
</trkpt>
<trkpt lat="40.072842" lon="-105.230575">
  <ele>1586.09</ele>
  <time>2026-08-27T18:27:43Z</time>
  <course>0.0</course>
  <speed>0.0</speed>
  <fix>3d</fix>
</trkpt>
<trkpt lat="40.072842" lon="-105.230575">
  <ele>1586.09</ele>
  <time>2026-08-27T18:27:43Z</time>
  <course>11.54</course>
  <speed>0.03605551275463989</speed>
  <fix>3d</fix>
</trkpt>
<trkpt lat="40.072842" lon="-105.230575">
  <ele>1586.09</ele>
  <time>2026-08-27T18:27:43Z</time>
  <course>0.0</course>
  <speed>0.0</speed>
  <fix>3d</fix>
</trkpt>
<trkpt lat="40.072842" lon="-105.230575">
  <ele>1586.09</ele>
  <time>2026-08-27T18:27:43Z</time>
  <course>11.53</course>
  <speed>0.03605551275463989</speed>
  <fix>3d</fix>
</trkpt>
<trkpt lat="40.072842" lon="-105.230575">
  <ele>1586.09</ele>
  <time>2026-08-27T18:27:43Z</time>
  <course>0.0</course>
  <speed>0.0</speed>
  <fix>3d</fix>
</trkpt>
<trkpt lat="40.072842" lon="-105.230575">
  <ele>1586.09</ele>
  <time>2026-08-27T18:27:43Z</time>
  <course>11.53</course>
  <speed>0.03605551275463989</speed>
  <fix>3d</fix>
</trkpt>
<trkpt lat="40.072842" lon="-105.230575">
  <ele>1586.09</ele>
  <time>2026-08-27T18:27:43Z</time>
  <course>0.0</course>
  <speed>0.0</speed>
  <fix>3d</fix>
</trkpt>
<trkpt lat="40.072842" lon="-105.230575">
  <ele>1586.09</ele>
  <time>2026-08-27T18:27:43Z</time>
  <course>11.52</course>
  <speed>0.03605551275463989</speed>
  <fix>3d</fix>
</trkpt>
<trkpt lat="40.072842" lon="-105.230575">
  <ele>1586.09</ele>
  <time>2026-08-27T18:27:43Z</time>
  <course>0.0</course>
  <speed>0.0</speed>
  <fix>3d</fix>
</trkpt>
<trkpt lat="40.072842" lon="-105.230575">
  <ele>1586.09</ele>
  <time>2026-08-27T18:27:43Z</time>
  <course>11.51</course>
  <speed>0.03605551275463989</speed>
  <fix>3d</fix>
</trkpt>
<trkpt lat="40.072842" lon="-105.230575">
  <ele>1586.09</ele>
  <time>2026-08-27T18:27:43Z</time>
  <course>0.0</course>
  <speed>0.0</speed>
  <fix>3d</fix>
</trkpt>
<trkpt lat="40.072842" lon="-105.230575">
  <ele>1586.09</ele>
  <time>2026-08-27T18:27:43Z</time>
  <course>11.51</course>
  <speed>0.03605551275463989</speed>
  <fix>3d</fix>
</trkpt>
<trkpt lat="40.072842" lon="-105.230575">
  <ele>1586.09</ele>
  <time>2026-08-27T18:27:43Z</time>
  <course>0.0</course>
  <speed>0.0</speed>
  <fix>3d</fix>
</trkpt>
<trkpt lat="40.072842" lon="-105.230575">
  <ele>1586.09</ele>
  <time>2026-08-27T18:27:43Z</time>
  <course>11.5</course>
  <speed>0.03605551275463989</speed>
  <fix>3d</fix>
</trkpt>
<trkpt lat="40.072842" lon="-105.230575">
  <ele>1586.09</ele>
  <time>2026-08-27T18:27:43Z</time>
  <course>0.0</course>
  <speed>0.0</speed>
  <fix>3d</fix>
</trkpt>
<trkpt lat="40.072842" lon="-105.230575">
  <ele>1586.09</ele>
  <time>2026-08-27T18:27:43Z</time>
  <course>11.5</course>
  <speed>0.03605551275463989</speed>
  <fix>3d</fix>
</trkpt>
<trkpt lat="40.072842" lon="-105.230575">
  <ele>1586.09</ele>
  <time>2026-08-27T18:27:43Z</time>
  <course>0.0</course>
  <speed>0.0</speed>
  <fix>3d</fix>
</trkpt>
<trkpt lat="40.072842" lon="-105.230575">
  <ele>1586.09</ele>
  <time>2026-08-27T18:27:43Z</time>
  <course>11.49</course>
  <speed>0.044721359549995794</speed>
  <fix>3d</fix>
</trkpt>
<trkpt lat="40.072842" lon="-105.230575">
  <ele>1586.09</ele>
  <time>2026-08-27T18:27:43Z</time>
  <course>0.0</course>
  <speed>0.0</speed>
  <fix>3d</fix>
</trkpt>
<trkpt lat="40.072842" lon="-105.230575">
  <ele>1586.09</ele>
  <time>2026-08-27T18:27:43Z</time>
  <course>11.49</course>
  <speed>0.044721359549995794</speed>
  <fix>3d</fix>
</trkpt>
<trkpt lat="40.072842" lon="-105.230575">
  <ele>1586.09</ele>
  <time>2026-08-27T18:27:43Z</time>
  <course>0.0</course>
  <speed>0.0</speed>
  <fix>3d</fix>
</trkpt>
<trkpt lat="40.072842" lon="-105.230575">
  <ele>1586.09</ele>
  <time>2026-08-27T18:27:43Z</time>
  <course>11.48</course>
  <speed>0.044721359549995794</speed>
  <fix>3d</fix>
</trkpt>
<trkpt lat="40.072842" lon="-105.230575">
  <ele>1586.09</ele>
  <time>2026-08-27T18:27:43Z</time>
  <course>0.0</course>
  <speed>0.0</speed>
  <fix>3d</fix>
</trkpt>
<trkpt lat="40.072842" lon="-105.230575">
  <ele>1586.09</ele>
  <time>2026-08-27T18:27:43Z</time>
  <course>11.48</course>
  <speed>0.044721359549995794</speed>
  <fix>3d</fix>
</trkpt>
<trkpt lat="40.072842" lon="-105.230575">
  <ele>1586.09</ele>
  <time>2026-08-27T18:27:43Z</time>
  <course>0.0</course>
  <speed>0.0</speed>
  <fix>3d</fix>
</trkpt>
<trkpt lat="40.072842" lon="-105.230575">
  <ele>1586.09</ele>
  <time>2026-08-27T18:27:43Z</time>
  <course>11.47</course>
  <speed>0.044721359549995794</speed>
  <fix>3d</fix>
</trkpt>
<trkpt lat="40.072842" lon="-105.230575">
  <ele>1586.09</ele>
  <time>2026-08-27T18:27:43Z</time>
  <course>0.0</course>
  <speed>0.0</speed>
  <fix>3d</fix>
</trkpt>
<trkpt lat="40.072842" lon="-105.230575">
  <ele>1586.09</ele>
  <time>2026-08-27T18:27:43Z</time>
  <course>11.47</course>
  <speed>0.044721359549995794</speed>
  <fix>3d</fix>
</trkpt>
<trkpt lat="40.072842" lon="-105.230575">
  <ele>1586.09</ele>
  <time>2026-08-27T18:27:43Z</time>
  <course>0.0</course>
  <speed>0.0</speed>
  <fix>3d</fix>
</trkpt>
<trkpt lat="40.072842" lon="-105.230575">
  <ele>1586.09</ele>
  <time>2026-08-27T18:27:43Z</time>
  <course>11.46</course>
  <speed>0.044721359549995794</speed>
  <fix>3d</fix>
</trkpt>
<trkpt lat="40.072842" lon="-105.230575">
  <ele>1586.09</ele>
  <time>2026-08-27T18:27:43Z</time>
  <course>0.0</course>
  <speed>0.0</speed>
  <fix>3d</fix>
</trkpt>
<trkpt lat="40.072842" lon="-105.230575">
  <ele>1586.09</ele>
  <time>2026-08-27T18:27:43Z</time>
  <course>11.46</course>
  <speed>0.044721359549995794</speed>
  <fix>3d</fix>
</trkpt>
<trkpt lat="40.072842" lon="-105.230575">
  <ele>1586.09</ele>
  <time>2026-08-27T18:27:43Z</time>
  <course>0.0</course>
  <speed>0.0</speed>
  <fix>3d</fix>
</trkpt>
<trkpt lat="40.072842" lon="-105.230575">
  <ele>1586.15</ele>
  <time>2026-08-27T18:27:43Z</time>
  <course>11.45</course>
  <speed>0.0</speed>
  <fix>3d</fix>
</trkpt>
<trkpt lat="40.072842" lon="-105.230575">
  <ele>1586.09</ele>
  <time>2026-08-27T18:27:43Z</time>
  <course>0.0</course>
  <speed>0.0</speed>
  <fix>3d</fix>
</trkpt>
<trkpt lat="40.072842" lon="-105.230575">
  <ele>1586.15</ele>
  <time>2026-08-27T18:27:43Z</time>
  <course>11.45</course>
  <speed>0.0</speed>
  <fix>3d</fix>
</trkpt>
<trkpt lat="40.072842" lon="-105.230575">
  <ele>1586.09</ele>
  <time>2026-08-27T18:27:43Z</time>
  <course>0.0</course>
  <speed>0.0</speed>
  <fix>3d</fix>
</trkpt>
<trkpt lat="40.072842" lon="-105.230575">
  <ele>1586.14</ele>
  <time>2026-08-27T18:27:43Z</time>
  <course>11.44</course>
  <speed>0.0</speed>
  <fix>3d</fix>
</trkpt>
<trkpt lat="40.072842" lon="-105.230575">
  <ele>1586.09</ele>
  <time>2026-08-27T18:27:43Z</time>
  <course>0.0</course>
  <speed>0.0</speed>
  <fix>3d</fix>
</trkpt>
<trkpt lat="40.072842" lon="-105.230575">
  <ele>1586.14</ele>
  <time>2026-08-27T18:27:43Z</time>
  <course>11.44</course>
  <speed>0.0</speed>
  <fix>3d</fix>
</trkpt>
<trkpt lat="40.072842" lon="-105.230575">
  <ele>1586.09</ele>
  <time>2026-08-27T18:27:43Z</time>
  <course>0.0</course>
  <speed>0.0</speed>
  <fix>3d</fix>
</trkpt>
<trkpt lat="40.072842" lon="-105.230575">
  <ele>1586.14</ele>
  <time>2026-08-27T18:27:43Z</time>
  <course>11.43</course>
  <speed>0.0</speed>
  <fix>3d</fix>
</trkpt>
<trkpt lat="40.072842" lon="-105.230575">
  <ele>1586.09</ele>
  <time>2026-08-27T18:27:43Z</time>
  <course>0.0</course>
  <speed>0.0</speed>
  <fix>3d</fix>
</trkpt>
<trkpt lat="40.072842" lon="-105.230575">
  <ele>1586.14</ele>
  <time>2026-08-27T18:27:43Z</time>
  <course>11.43</course>
  <speed>0.01</speed>
  <fix>3d</fix>
</trkpt>
<trkpt lat="40.072842" lon="-105.230575">
  <ele>1586.09</ele>
  <time>2026-08-27T18:27:43Z</time>
  <course>0.0</course>
  <speed>0.0</speed>
  <fix>3d</fix>
</trkpt>
<trkpt lat="40.072842" lon="-105.230575">
  <ele>1586.14</ele>
  <time>2026-08-27T18:27:43Z</time>
  <course>11.42</course>
  <speed>0.01</speed>
  <fix>3d</fix>
</trkpt>
<trkpt lat="40.072842" lon="-105.230575">
  <ele>1586.09</ele>
  <time>2026-08-27T18:27:43Z</time>
  <course>0.0</course>
  <speed>0.0</speed>
  <fix>3d</fix>
</trkpt>
<trkpt lat="40.072842" lon="-105.230575">
  <ele>1586.14</ele>
  <time>2026-08-27T18:27:43Z</time>
  <course>11.42</course>
  <speed>0.01</speed>
  <fix>3d</fix>
</trkpt>
<trkpt lat="40.072842" lon="-105.230575">
  <ele>1586.09</ele>
  <time>2026-08-27T18:27:43Z</time>
  <course>0.0</course>
  <speed>0.0</speed>
  <fix>3d</fix>
</trkpt>
<trkpt lat="40.072842" lon="-105.230575">
  <ele>1586.14</ele>
  <time>2026-08-27T18:27:43Z</time>
  <course>11.42</course>
  <speed>0.01414213562373095</speed>
  <fix>3d</fix>
</trkpt>
<trkpt lat="40.072842" lon="-105.230575">
  <ele>1586.09</ele>
  <time>2026-08-27T18:27:43Z</time>
  <course>0.0</course>
  <speed>0.0</speed>
  <fix>3d</fix>
</trkpt>
<trkpt lat="40.072842" lon="-105.230575">
  <ele>1586.15</ele>
  <time>2026-08-27T18:27:43Z</time>
  <course>11.41</course>
  <speed>0.01414213562373095</speed>
  <fix>3d</fix>
</trkpt>
<trkpt lat="40.072842" lon="-105.230575">
  <ele>1586.09</ele>
  <time>2026-08-27T18:27:43Z</time>
  <course>0.0</course>
  <speed>0.0</speed>
  <fix>3d</fix>
</trkpt>
<trkpt lat="40.072842" lon="-105.230575">
  <ele>1586.15</ele>
  <time>2026-08-27T18:27:43Z</time>
  <course>11.41</course>
  <speed>0.01414213562373095</speed>
  <fix>3d</fix>
</trkpt>
<trkpt lat="40.072842" lon="-105.230575">
  <ele>1586.09</ele>
  <time>2026-08-27T18:27:43Z</time>
  <course>0.0</course>
  <speed>0.0</speed>
  <fix>3d</fix>
</trkpt>
<trkpt lat="40.072842" lon="-105.230575">
  <ele>1586.15</ele>
  <time>2026-08-27T18:27:43Z</time>
  <course>11.4</course>
  <speed>0.022360679774997897</speed>
  <fix>3d</fix>
</trkpt>
<trkpt lat="40.072842" lon="-105.230575">
  <ele>1586.09</ele>
  <time>2026-08-27T18:27:43Z</time>
  <course>0.0</course>
  <speed>0.0</speed>
  <fix>3d</fix>
</trkpt>
<trkpt lat="40.072842" lon="-105.230575">
  <ele>1586.15</ele>
  <time>2026-08-27T18:27:43Z</time>
  <course>11.4</course>
  <speed>0.022360679774997897</speed>
  <fix>3d</fix>
</trkpt>
<trkpt lat="40.072842" lon="-105.230575">
  <ele>1586.09</ele>
  <time>2026-08-27T18:27:43Z</time>
  <course>0.0</course>
  <speed>0.0</speed>
  <fix>3d</fix>
</trkpt>
<trkpt lat="40.072842" lon="-105.230575">
  <ele>1586.16</ele>
  <time>2026-08-27T18:27:43Z</time>
  <course>11.4</course>
  <speed>0.022360679774997897</speed>
  <fix>3d</fix>
</trkpt>
<trkpt lat="40.072842" lon="-105.230575">
  <ele>1586.09</ele>
  <time>2026-08-27T18:27:43Z</time>
  <course>0.0</course>
  <speed>0.0</speed>
  <fix>3d</fix>
</trkpt>
<trkpt lat="40.072842" lon="-105.230575">
  <ele>1586.16</ele>
  <time>2026-08-27T18:27:43Z</time>
  <course>11.39</course>
  <speed>0.022360679774997897</speed>
  <fix>3d</fix>
</trkpt>
<trkpt lat="40.072842" lon="-105.230575">
  <ele>1586.09</ele>
  <time>2026-08-27T18:27:43Z</time>
  <course>0.0</course>
  <speed>0.0</speed>
  <fix>3d</fix>
</trkpt>
<trkpt lat="40.072842" lon="-105.230575">
  <ele>1586.16</ele>
  <time>2026-08-27T18:27:43Z</time>
  <course>11.39</course>
  <speed>0.01414213562373095</speed>
  <fix>3d</fix>
</trkpt>
<trkpt lat="40.072842" lon="-105.230575">
  <ele>1586.09</ele>
  <time>2026-08-27T18:27:43Z</time>
  <course>0.0</course>
  <speed>0.0</speed>
  <fix>3d</fix>
</trkpt>
<trkpt lat="40.072842" lon="-105.230575">
  <ele>1586.16</ele>
  <time>2026-08-27T18:27:43Z</time>
  <course>11.39</course>
  <speed>0.01414213562373095</speed>
  <fix>3d</fix>
</trkpt>
<trkpt lat="40.072842" lon="-105.230575">
  <ele>1586.09</ele>
  <time>2026-08-27T18:27:43Z</time>
  <course>0.0</course>
  <speed>0.0</speed>
  <fix>3d</fix>
</trkpt>
<trkpt lat="40.072842" lon="-105.230575">
  <ele>1586.16</ele>
  <time>2026-08-27T18:27:43Z</time>
  <course>11.38</course>
  <speed>0.01</speed>
  <fix>3d</fix>
</trkpt>
<trkpt lat="40.072842" lon="-105.230575">
  <ele>1586.09</ele>
  <time>2026-08-27T18:27:43Z</time>
  <course>0.0</course>
  <speed>0.0</speed>
  <fix>3d</fix>
</trkpt>
<trkpt lat="40.072842" lon="-105.230575">
  <ele>1586.16</ele>
  <time>2026-08-27T18:27:43Z</time>
  <course>11.38</course>
  <speed>0.0</speed>
  <fix>3d</fix>
</trkpt>
<trkpt lat="40.072842" lon="-105.230575">
  <ele>1586.09</ele>
  <time>2026-08-27T18:27:43Z</time>
  <course>0.0</course>
  <speed>0.0</speed>
  <fix>3d</fix>
</trkpt>
<trkpt lat="40.072842" lon="-105.230575">
  <ele>1586.16</ele>
  <time>2026-08-27T18:27:43Z</time>
  <course>11.37</course>
  <speed>0.0</speed>
  <fix>3d</fix>
</trkpt>
<trkpt lat="40.072842" lon="-105.230575">
  <ele>1586.09</ele>
  <time>2026-08-27T18:27:43Z</time>
  <course>0.0</course>
  <speed>0.0</speed>
  <fix>3d</fix>
</trkpt>
<trkpt lat="40.072842" lon="-105.230575">
  <ele>1586.16</ele>
  <time>2026-08-27T18:27:43Z</time>
  <course>11.37</course>
  <speed>0.0</speed>
  <fix>3d</fix>
</trkpt>
<trkpt lat="40.072842" lon="-105.230575">
  <ele>1586.09</ele>
  <time>2026-08-27T18:27:43Z</time>
  <course>0.0</course>
  <speed>0.0</speed>
  <fix>3d</fix>
</trkpt>
<trkpt lat="40.072842" lon="-105.230575">
  <ele>1586.16</ele>
  <time>2026-08-27T18:27:43Z</time>
  <course>11.37</course>
  <speed>0.0</speed>
  <fix>3d</fix>
</trkpt>
<trkpt lat="40.072842" lon="-105.230575">
  <ele>1586.09</ele>
  <time>2026-08-27T18:27:43Z</time>
  <course>0.0</course>
  <speed>0.0</speed>
  <fix>3d</fix>
</trkpt>
<trkpt lat="40.072842" lon="-105.230575">
  <ele>1586.16</ele>
  <time>2026-08-27T18:27:43Z</time>
  <course>11.36</course>
  <speed>0.0</speed>
  <fix>3d</fix>
</trkpt>
<trkpt lat="40.072842" lon="-105.230575">
  <ele>1586.09</ele>
  <time>2026-08-27T18:27:43Z</time>
  <course>135.0</course>
  <speed>0.0</speed>
  <fix>3d</fix>
</trkpt>
<trkpt lat="40.072842" lon="-105.230575">
  <ele>1586.16</ele>
  <time>2026-08-27T18:27:43Z</time>
  <course>11.36</course>
  <speed>0.0</speed>
  <fix>3d</fix>
</trkpt>
<trkpt lat="40.072842" lon="-105.230575">
  <ele>1586.09</ele>
  <time>2026-08-27T18:27:43Z</time>
  <course>135.0</course>
  <speed>0.0</speed>
  <fix>3d</fix>
</trkpt>
<trkpt lat="40.072842" lon="-105.230575">
  <ele>1586.16</ele>
  <time>2026-08-27T18:27:43Z</time>
  <course>11.36</course>
  <speed>0.0</speed>
  <fix>3d</fix>
</trkpt>
<trkpt lat="40.072842" lon="-105.230575">
  <ele>1586.09</ele>
  <time>2026-08-27T18:27:43Z</time>
  <course>135.0</course>
  <speed>0.0</speed>
  <fix>3d</fix>
</trkpt>
<trkpt lat="40.072842" lon="-105.230575">
  <ele>1586.16</ele>
  <time>2026-08-27T18:27:43Z</time>
  <course>11.35</course>
  <speed>0.0</speed>
  <fix>3d</fix>
</trkpt>
<trkpt lat="40.072842" lon="-105.230575">
  <ele>1586.09</ele>
  <time>2026-08-27T18:27:43Z</time>
  <course>134.99</course>
  <speed>0.0</speed>
  <fix>3d</fix>
</trkpt>
<trkpt lat="40.072842" lon="-105.230575">
  <ele>1586.16</ele>
  <time>2026-08-27T18:27:43Z</time>
  <course>11.35</course>
  <speed>0.0</speed>
  <fix>3d</fix>
</trkpt>
<trkpt lat="40.072842" lon="-105.230575">
  <ele>1586.09</ele>
  <time>2026-08-27T18:27:43Z</time>
  <course>160.75</course>
  <speed>0.0</speed>
  <fix>3d</fix>
</trkpt>
<trkpt lat="40.072842" lon="-105.230575">
  <ele>1586.16</ele>
  <time>2026-08-27T18:27:43Z</time>
  <course>11.35</course>
  <speed>0.0</speed>
  <fix>3d</fix>
</trkpt>
<trkpt lat="40.072842" lon="-105.230575">
  <ele>1586.09</ele>
  <time>2026-08-27T18:27:43Z</time>
  <course>182.76</course>
  <speed>0.0</speed>
  <fix>3d</fix>
</trkpt>
<trkpt lat="40.072842" lon="-105.230575">
  <ele>1586.16</ele>
  <time>2026-08-27T18:27:43Z</time>
  <course>11.35</course>
  <speed>0.0</speed>
  <fix>3d</fix>
</trkpt>
<trkpt lat="40.072842" lon="-105.230575">
  <ele>1586.09</ele>
  <time>2026-08-27T18:27:43Z</time>
  <course>275.84</course>
  <speed>0.0</speed>
  <fix>3d</fix>
</trkpt>
<trkpt lat="40.072842" lon="-105.230575">
  <ele>1586.16</ele>
  <time>2026-08-27T18:27:43Z</time>
  <course>11.35</course>
  <speed>0.0</speed>
  <fix>3d</fix>
</trkpt>
<trkpt lat="40.072842" lon="-105.230575">
  <ele>1586.09</ele>
  <time>2026-08-27T18:27:43Z</time>
  <course>21.73</course>
  <speed>0.0</speed>
  <fix>3d</fix>
</trkpt>
<trkpt lat="40.072842" lon="-105.230575">
  <ele>1586.16</ele>
  <time>2026-08-27T18:27:43Z</time>
  <course>11.34</course>
  <speed>0.0</speed>
  <fix>3d</fix>
</trkpt>
<trkpt lat="40.072842" lon="-105.230575">
  <ele>1586.09</ele>
  <time>2026-08-27T18:27:43Z</time>
  <course>152.07</course>
  <speed>0.0</speed>
  <fix>3d</fix>
</trkpt>
<trkpt lat="40.072842" lon="-105.230575">
  <ele>1586.16</ele>
  <time>2026-08-27T18:27:43Z</time>
  <course>11.34</course>
  <speed>0.0</speed>
  <fix>3d</fix>
</trkpt>
<trkpt lat="40.072842" lon="-105.230575">
  <ele>1586.09</ele>
  <time>2026-08-27T18:27:43Z</time>
  <course>173.76</course>
  <speed>0.0</speed>
  <fix>3d</fix>
</trkpt>
<trkpt lat="40.072842" lon="-105.230575">
  <ele>1586.16</ele>
  <time>2026-08-27T18:27:43Z</time>
  <course>11.34</course>
  <speed>0.0</speed>
  <fix>3d</fix>
</trkpt>
<trkpt lat="40.072842" lon="-105.230575">
  <ele>1586.09</ele>
  <time>2026-08-27T18:27:43Z</time>
  <course>136.14</course>
  <speed>0.0</speed>
  <fix>3d</fix>
</trkpt>
<trkpt lat="40.072842" lon="-105.230575">
  <ele>1586.16</ele>
  <time>2026-08-27T18:27:43Z</time>
  <course>11.34</course>
  <speed>0.0</speed>
  <fix>3d</fix>
</trkpt>
<trkpt lat="40.072842" lon="-105.230575">
  <ele>1586.09</ele>
  <time>2026-08-27T18:27:43Z</time>
  <course>136.12</course>
  <speed>0.0</speed>
  <fix>3d</fix>
</trkpt>
<trkpt lat="40.072842" lon="-105.230575">
  <ele>1586.16</ele>
  <time>2026-08-27T18:27:43Z</time>
  <course>11.34</course>
  <speed>0.0</speed>
  <fix>3d</fix>
</trkpt>
<trkpt lat="40.072842" lon="-105.230575">
  <ele>1586.09</ele>
  <time>2026-08-27T18:27:43Z</time>
  <course>279.64</course>
  <speed>0.0</speed>
  <fix>3d</fix>
</trkpt>
<trkpt lat="40.072842" lon="-105.230575">
  <ele>1586.16</ele>
  <time>2026-08-27T18:27:43Z</time>
  <course>11.34</course>
  <speed>0.0</speed>
  <fix>3d</fix>
</trkpt>
<trkpt lat="40.072842" lon="-105.230575">
  <ele>1586.09</ele>
  <time>2026-08-27T18:27:43Z</time>
  <course>288.42</course>
  <speed>0.0</speed>
  <fix>3d</fix>
</trkpt>
<trkpt lat="40.072842" lon="-105.230575">
  <ele>1586.16</ele>
  <time>2026-08-27T18:27:43Z</time>
  <course>11.34</course>
  <speed>0.0</speed>
  <fix>3d</fix>
</trkpt>
<trkpt lat="40.072842" lon="-105.230575">
  <ele>1586.09</ele>
  <time>2026-08-27T18:27:43Z</time>
  <course>148.39</course>
  <speed>0.0</speed>
  <fix>3d</fix>
</trkpt>
<trkpt lat="40.072842" lon="-105.230575">
  <ele>1586.16</ele>
  <time>2026-08-27T18:27:43Z</time>
  <course>11.34</course>
  <speed>0.0</speed>
  <fix>3d</fix>
</trkpt>
<trkpt lat="40.072842" lon="-105.230575">
  <ele>1586.09</ele>
  <time>2026-08-27T18:27:43Z</time>
  <course>150.88</course>
  <speed>0.0</speed>
  <fix>3d</fix>
</trkpt>
<trkpt lat="40.072842" lon="-105.230575">
  <ele>1586.16</ele>
  <time>2026-08-27T18:27:43Z</time>
  <course>11.34</course>
  <speed>0.0</speed>
  <fix>3d</fix>
</trkpt>
<trkpt lat="40.072842" lon="-105.230575">
  <ele>1586.09</ele>
  <time>2026-08-27T18:27:43Z</time>
  <course>154.92</course>
  <speed>0.0</speed>
  <fix>3d</fix>
</trkpt>
<trkpt lat="40.072842" lon="-105.230575">
  <ele>1586.17</ele>
  <time>2026-08-27T18:27:43Z</time>
  <course>11.34</course>
  <speed>0.0</speed>
  <fix>3d</fix>
</trkpt>
<trkpt lat="40.072842" lon="-105.230575">
  <ele>1586.09</ele>
  <time>2026-08-27T18:27:43Z</time>
  <course>136.31</course>
  <speed>0.0</speed>
  <fix>3d</fix>
</trkpt>
<trkpt lat="40.072842" lon="-105.230575">
  <ele>1586.17</ele>
  <time>2026-08-27T18:27:43Z</time>
  <course>11.34</course>
  <speed>0.0</speed>
  <fix>3d</fix>
</trkpt>
<trkpt lat="40.072842" lon="-105.230575">
  <ele>1586.09</ele>
  <time>2026-08-27T18:27:43Z</time>
  <course>135.99</course>
  <speed>0.0</speed>
  <fix>3d</fix>
</trkpt>
<trkpt lat="40.072842" lon="-105.230575">
  <ele>1586.17</ele>
  <time>2026-08-27T18:27:43Z</time>
  <course>11.34</course>
  <speed>0.01</speed>
  <fix>3d</fix>
</trkpt>
<trkpt lat="40.072842" lon="-105.230575">
  <ele>1586.09</ele>
  <time>2026-08-27T18:27:43Z</time>
  <course>140.47</course>
  <speed>0.0</speed>
  <fix>3d</fix>
</trkpt>
<trkpt lat="40.072842" lon="-105.230575">
  <ele>1586.17</ele>
  <time>2026-08-27T18:27:43Z</time>
  <course>11.34</course>
  <speed>0.01</speed>
  <fix>3d</fix>
</trkpt>
<trkpt lat="40.072842" lon="-105.230575">
  <ele>1586.09</ele>
  <time>2026-08-27T18:27:43Z</time>
  <course>300.59</course>
  <speed>0.0</speed>
  <fix>3d</fix>
</trkpt>
<trkpt lat="40.072842" lon="-105.230575">
  <ele>1586.18</ele>
  <time>2026-08-27T18:27:43Z</time>
  <course>11.34</course>
  <speed>0.01</speed>
  <fix>3d</fix>
</trkpt>
<trkpt lat="40.072842" lon="-105.230575">
  <ele>1586.09</ele>
  <time>2026-08-27T18:27:43Z</time>
  <course>148.92</course>
  <speed>0.0</speed>
  <fix>3d</fix>
</trkpt>
<trkpt lat="40.072842" lon="-105.230575">
  <ele>1586.18</ele>
  <time>2026-08-27T18:27:43Z</time>
  <course>11.34</course>
  <speed>0.01</speed>
  <fix>3d</fix>
</trkpt>
<trkpt lat="40.072842" lon="-105.230575">
  <ele>1586.09</ele>
  <time>2026-08-27T18:27:43Z</time>
  <course>146.28</course>
  <speed>0.0</speed>
  <fix>3d</fix>
</trkpt>
<trkpt lat="40.072842" lon="-105.230575">
  <ele>1586.18</ele>
  <time>2026-08-27T18:27:43Z</time>
  <course>11.34</course>
  <speed>0.01</speed>
  <fix>3d</fix>
</trkpt>
<trkpt lat="40.072842" lon="-105.230575">
  <ele>1586.09</ele>
  <time>2026-08-27T18:27:43Z</time>
  <course>149.63</course>
  <speed>0.0</speed>
  <fix>3d</fix>
</trkpt>
<trkpt lat="40.072842" lon="-105.230575">
  <ele>1586.18</ele>
  <time>2026-08-27T18:27:43Z</time>
  <course>11.34</course>
  <speed>0.01414213562373095</speed>
  <fix>3d</fix>
</trkpt>
<trkpt lat="40.072842" lon="-105.230575">
  <ele>1586.09</ele>
  <time>2026-08-27T18:27:43Z</time>
  <course>149.6</course>
  <speed>0.0</speed>
  <fix>3d</fix>
</trkpt>
<trkpt lat="40.072842" lon="-105.230575">
  <ele>1586.18</ele>
  <time>2026-08-27T18:27:43Z</time>
  <course>11.34</course>
  <speed>0.01414213562373095</speed>
  <fix>3d</fix>
</trkpt>
<trkpt lat="40.072842" lon="-105.230575">
  <ele>1586.09</ele>
  <time>2026-08-27T18:27:43Z</time>
  <course>136.29</course>
  <speed>0.0</speed>
  <fix>3d</fix>
</trkpt>
<trkpt lat="40.072842" lon="-105.230575">
  <ele>1586.18</ele>
  <time>2026-08-27T18:27:43Z</time>
  <course>11.35</course>
  <speed>0.01414213562373095</speed>
  <fix>3d</fix>
</trkpt>
<trkpt lat="40.072842" lon="-105.230575">
  <ele>1586.09</ele>
  <time>2026-08-27T18:27:43Z</time>
  <course>136.27</course>
  <speed>0.0</speed>
  <fix>3d</fix>
</trkpt>
<trkpt lat="40.072842" lon="-105.230575">
  <ele>1586.18</ele>
  <time>2026-08-27T18:27:43Z</time>
  <course>11.35</course>
  <speed>0.01414213562373095</speed>
  <fix>3d</fix>
</trkpt>
<trkpt lat="40.072842" lon="-105.230575">
  <ele>1586.09</ele>
  <time>2026-08-27T18:27:43Z</time>
  <course>231.61</course>
  <speed>0.0</speed>
  <fix>3d</fix>
</trkpt>
<trkpt lat="40.072842" lon="-105.230575">
  <ele>1586.18</ele>
  <time>2026-08-27T18:27:43Z</time>
  <course>11.35</course>
  <speed>0.01414213562373095</speed>
  <fix>3d</fix>
</trkpt>
<trkpt lat="40.072842" lon="-105.230575">
  <ele>1586.09</ele>
  <time>2026-08-27T18:27:43Z</time>
  <course>213.52</course>
  <speed>0.0</speed>
  <fix>3d</fix>
</trkpt>
<trkpt lat="40.072842" lon="-105.230575">
  <ele>1586.18</ele>
  <time>2026-08-27T18:27:43Z</time>
  <course>11.35</course>
  <speed>0.01414213562373095</speed>
  <fix>3d</fix>
</trkpt>
<trkpt lat="40.072842" lon="-105.230575">
  <ele>1586.09</ele>
  <time>2026-08-27T18:27:43Z</time>
  <course>144.21</course>
  <speed>0.0</speed>
  <fix>3d</fix>
</trkpt>
<trkpt lat="40.0728419" lon="-105.230575">
  <ele>1586.17</ele>
  <time>2026-08-27T18:27:43Z</time>
  <course>11.35</course>
  <speed>0.01414213562373095</speed>
  <fix>3d</fix>
</trkpt>
<trkpt lat="40.072842" lon="-105.230575">
  <ele>1586.09</ele>
  <time>2026-08-27T18:27:43Z</time>
  <course>145.46</course>
  <speed>0.0</speed>
  <fix>3d</fix>
</trkpt>
<trkpt lat="40.0728419" lon="-105.2305749">
  <ele>1586.17</ele>
  <time>2026-08-27T18:27:43Z</time>
  <course>11.35</course>
  <speed>0.022360679774997897</speed>
  <fix>3d</fix>
</trkpt>
<trkpt lat="40.072842" lon="-105.230575">
  <ele>1586.09</ele>
  <time>2026-08-27T18:27:43Z</time>
  <course>147.01</course>
  <speed>0.0</speed>
  <fix>3d</fix>
</trkpt>
<trkpt lat="40.0728419" lon="-105.2305749">
  <ele>1586.17</ele>
  <time>2026-08-27T18:27:44Z</time>
  <course>11.36</course>
  <speed>0.022360679774997897</speed>
  <fix>3d</fix>
</trkpt>
<trkpt lat="40.072842" lon="-105.230575">
  <ele>1586.09</ele>
  <time>2026-08-27T18:27:44Z</time>
  <course>136.21</course>
  <speed>0.0</speed>
  <fix>3d</fix>
</trkpt>
<trkpt lat="40.0728419" lon="-105.2305749">
  <ele>1586.17</ele>
  <time>2026-08-27T18:27:44Z</time>
  <course>11.36</course>
  <speed>0.022360679774997897</speed>
  <fix>3d</fix>
</trkpt>
<trkpt lat="40.072842" lon="-105.230575">
  <ele>1586.09</ele>
  <time>2026-08-27T18:27:44Z</time>
  <course>136.03</course>
  <speed>0.0</speed>
  <fix>3d</fix>
</trkpt>
<trkpt lat="40.0728419" lon="-105.2305749">
  <ele>1586.17</ele>
  <time>2026-08-27T18:27:44Z</time>
  <course>11.36</course>
  <speed>0.022360679774997897</speed>
  <fix>3d</fix>
</trkpt>
<trkpt lat="40.072842" lon="-105.230575">
  <ele>1586.09</ele>
  <time>2026-08-27T18:27:44Z</time>
  <course>142.94</course>
  <speed>0.0</speed>
  <fix>3d</fix>
</trkpt>
<trkpt lat="40.0728419" lon="-105.2305749">
  <ele>1586.17</ele>
  <time>2026-08-27T18:27:44Z</time>
  <course>11.36</course>
  <speed>0.022360679774997897</speed>
  <fix>3d</fix>
</trkpt>
<trkpt lat="40.072842" lon="-105.230575">
  <ele>1586.09</ele>
  <time>2026-08-27T18:27:44Z</time>
  <course>266.21</course>
  <speed>0.0</speed>
  <fix>3d</fix>
</trkpt>
<trkpt lat="40.0728419" lon="-105.2305749">
  <ele>1586.17</ele>
  <time>2026-08-27T18:27:44Z</time>
  <course>11.36</course>
  <speed>0.022360679774997897</speed>
  <fix>3d</fix>
</trkpt>
<trkpt lat="40.072842" lon="-105.230575">
  <ele>1586.09</ele>
  <time>2026-08-27T18:27:44Z</time>
  <course>143.72</course>
  <speed>0.0</speed>
  <fix>3d</fix>
</trkpt>
<trkpt lat="40.0728419" lon="-105.2305749">
  <ele>1586.18</ele>
  <time>2026-08-27T18:27:44Z</time>
  <course>11.36</course>
  <speed>0.022360679774997897</speed>
  <fix>3d</fix>
</trkpt>
<trkpt lat="40.072842" lon="-105.230575">
  <ele>1586.09</ele>
  <time>2026-08-27T18:27:44Z</time>
  <course>143.49</course>
  <speed>0.0</speed>
  <fix>3d</fix>
</trkpt>
<trkpt lat="40.0728419" lon="-105.2305749">
  <ele>1586.18</ele>
  <time>2026-08-27T18:27:44Z</time>
  <course>11.37</course>
  <speed>0.022360679774997897</speed>
  <fix>3d</fix>
</trkpt>
<trkpt lat="40.072842" lon="-105.230575">
  <ele>1586.09</ele>
  <time>2026-08-27T18:27:44Z</time>
  <course>144.98</course>
  <speed>0.0</speed>
  <fix>3d</fix>
</trkpt>
<trkpt lat="40.0728419" lon="-105.2305749">
  <ele>1586.18</ele>
  <time>2026-08-27T18:27:44Z</time>
  <course>11.37</course>
  <speed>0.022360679774997897</speed>
  <fix>3d</fix>
</trkpt>
<trkpt lat="40.072842" lon="-105.230575">
  <ele>1586.09</ele>
  <time>2026-08-27T18:27:44Z</time>
  <course>144.82</course>
  <speed>0.0</speed>
  <fix>3d</fix>
</trkpt>
<trkpt lat="40.0728419" lon="-105.2305749">
  <ele>1586.18</ele>
  <time>2026-08-27T18:27:44Z</time>
  <course>11.37</course>
  <speed>0.022360679774997897</speed>
  <fix>3d</fix>
</trkpt>
<trkpt lat="40.072842" lon="-105.230575">
  <ele>1586.09</ele>
  <time>2026-08-27T18:27:44Z</time>
  <course>136.35</course>
  <speed>0.0</speed>
  <fix>3d</fix>
</trkpt>
<trkpt lat="40.0728419" lon="-105.2305749">
  <ele>1586.18</ele>
  <time>2026-08-27T18:27:44Z</time>
  <course>11.37</course>
  <speed>0.022360679774997897</speed>
  <fix>3d</fix>
</trkpt>
<trkpt lat="40.072842" lon="-105.230575">
  <ele>1586.09</ele>
  <time>2026-08-27T18:27:44Z</time>
  <course>135.99</course>
  <speed>0.0</speed>
  <fix>3d</fix>
</trkpt>
<trkpt lat="40.0728419" lon="-105.2305749">
  <ele>1586.18</ele>
  <time>2026-08-27T18:27:44Z</time>
  <course>11.37</course>
  <speed>0.022360679774997897</speed>
  <fix>3d</fix>
</trkpt>
<trkpt lat="40.072842" lon="-105.230575">
  <ele>1586.09</ele>
  <time>2026-08-27T18:27:44Z</time>
  <course>138.64</course>
  <speed>0.0</speed>
  <fix>3d</fix>
</trkpt>
<trkpt lat="40.0728419" lon="-105.2305749">
  <ele>1586.18</ele>
  <time>2026-08-27T18:27:44Z</time>
  <course>11.38</course>
  <speed>0.022360679774997897</speed>
  <fix>3d</fix>
</trkpt>
<trkpt lat="40.072842" lon="-105.230575">
  <ele>1586.09</ele>
  <time>2026-08-27T18:27:44Z</time>
  <course>275.58</course>
  <speed>0.0</speed>
  <fix>3d</fix>
</trkpt>
<trkpt lat="40.0728419" lon="-105.2305749">
  <ele>1586.18</ele>
  <time>2026-08-27T18:27:44Z</time>
  <course>11.38</course>
  <speed>0.022360679774997897</speed>
  <fix>3d</fix>
</trkpt>
<trkpt lat="40.072842" lon="-105.230575">
  <ele>1586.09</ele>
  <time>2026-08-27T18:27:44Z</time>
  <course>143.7</course>
  <speed>0.0</speed>
  <fix>3d</fix>
</trkpt>
<trkpt lat="40.0728419" lon="-105.2305749">
  <ele>1586.18</ele>
  <time>2026-08-27T18:27:44Z</time>
  <course>11.38</course>
  <speed>0.022360679774997897</speed>
  <fix>3d</fix>
</trkpt>
<trkpt lat="40.072842" lon="-105.230575">
  <ele>1586.09</ele>
  <time>2026-08-27T18:27:44Z</time>
  <course>142.23</course>
  <speed>0.0</speed>
  <fix>3d</fix>
</trkpt>
<trkpt lat="40.0728419" lon="-105.2305749">
  <ele>1586.18</ele>
  <time>2026-08-27T18:27:44Z</time>
  <course>11.38</course>
  <speed>0.022360679774997897</speed>
  <fix>3d</fix>
</trkpt>
<trkpt lat="40.072842" lon="-105.230575">
  <ele>1586.09</ele>
  <time>2026-08-27T18:27:44Z</time>
  <course>143.51</course>
  <speed>0.0</speed>
  <fix>3d</fix>
</trkpt>
<trkpt lat="40.0728419" lon="-105.2305749">
  <ele>1586.18</ele>
  <time>2026-08-27T18:27:44Z</time>
  <course>11.38</course>
  <speed>0.022360679774997897</speed>
  <fix>3d</fix>
</trkpt>
<trkpt lat="40.072842" lon="-105.230575">
  <ele>1586.09</ele>
  <time>2026-08-27T18:27:44Z</time>
  <course>143.55</course>
  <speed>0.0</speed>
  <fix>3d</fix>
</trkpt>
<trkpt lat="40.0728419" lon="-105.2305749">
  <ele>1586.18</ele>
  <time>2026-08-27T18:27:44Z</time>
  <course>11.38</course>
  <speed>0.022360679774997897</speed>
  <fix>3d</fix>
</trkpt>
<trkpt lat="40.072842" lon="-105.230575">
  <ele>1586.09</ele>
  <time>2026-08-27T18:27:44Z</time>
  <course>143.35</course>
  <speed>0.0</speed>
  <fix>3d</fix>
</trkpt>
<trkpt lat="40.0728419" lon="-105.2305749">
  <ele>1586.18</ele>
  <time>2026-08-27T18:27:44Z</time>
  <course>11.39</course>
  <speed>0.022360679774997897</speed>
  <fix>3d</fix>
</trkpt>
<trkpt lat="40.072842" lon="-105.230575">
  <ele>1586.09</ele>
  <time>2026-08-27T18:27:44Z</time>
  <course>143.37</course>
  <speed>0.0</speed>
  <fix>3d</fix>
</trkpt>
<trkpt lat="40.0728419" lon="-105.2305749">
  <ele>1586.18</ele>
  <time>2026-08-27T18:27:44Z</time>
  <course>11.39</course>
  <speed>0.022360679774997897</speed>
  <fix>3d</fix>
</trkpt>
<trkpt lat="40.072842" lon="-105.230575">
  <ele>1586.09</ele>
  <time>2026-08-27T18:27:44Z</time>
  <course>136.31</course>
  <speed>0.0</speed>
  <fix>3d</fix>
</trkpt>
<trkpt lat="40.0728419" lon="-105.2305749">
  <ele>1586.18</ele>
  <time>2026-08-27T18:27:44Z</time>
  <course>11.39</course>
  <speed>0.022360679774997897</speed>
  <fix>3d</fix>
</trkpt>
<trkpt lat="40.072842" lon="-105.230575">
  <ele>1586.09</ele>
  <time>2026-08-27T18:27:44Z</time>
  <course>136.32</course>
  <speed>0.0</speed>
  <fix>3d</fix>
</trkpt>
<trkpt lat="40.0728419" lon="-105.2305749">
  <ele>1586.18</ele>
  <time>2026-08-27T18:27:44Z</time>
  <course>11.39</course>
  <speed>0.022360679774997897</speed>
  <fix>3d</fix>
</trkpt>
<trkpt lat="40.072842" lon="-105.230575">
  <ele>1586.09</ele>
  <time>2026-08-27T18:27:44Z</time>
  <course>160.1</course>
  <speed>0.0</speed>
  <fix>3d</fix>
</trkpt>
<trkpt lat="40.0728419" lon="-105.2305749">
  <ele>1586.18</ele>
  <time>2026-08-27T18:27:44Z</time>
  <course>11.39</course>
  <speed>0.022360679774997897</speed>
  <fix>3d</fix>
</trkpt>
<trkpt lat="40.072842" lon="-105.230575">
  <ele>1586.09</ele>
  <time>2026-08-27T18:27:44Z</time>
  <course>151.23</course>
  <speed>0.0</speed>
  <fix>3d</fix>
</trkpt>
<trkpt lat="40.0728419" lon="-105.2305749">
  <ele>1586.18</ele>
  <time>2026-08-27T18:27:44Z</time>
  <course>11.39</course>
  <speed>0.022360679774997897</speed>
  <fix>3d</fix>
</trkpt>
<trkpt lat="40.072842" lon="-105.230575">
  <ele>1586.09</ele>
  <time>2026-08-27T18:27:44Z</time>
  <course>141.4</course>
  <speed>0.0</speed>
  <fix>3d</fix>
</trkpt>
<trkpt lat="40.0728419" lon="-105.2305749">
  <ele>1586.18</ele>
  <time>2026-08-27T18:27:44Z</time>
  <course>11.4</course>
  <speed>0.022360679774997897</speed>
  <fix>3d</fix>
</trkpt>
<trkpt lat="40.072842" lon="-105.230575">
  <ele>1586.09</ele>
  <time>2026-08-27T18:27:44Z</time>
  <course>142.05</course>
  <speed>0.0</speed>
  <fix>3d</fix>
</trkpt>
<trkpt lat="40.0728419" lon="-105.2305749">
  <ele>1586.18</ele>
  <time>2026-08-27T18:27:44Z</time>
  <course>11.4</course>
  <speed>0.022360679774997897</speed>
  <fix>3d</fix>
</trkpt>
<trkpt lat="40.072842" lon="-105.230575">
  <ele>1586.09</ele>
  <time>2026-08-27T18:27:44Z</time>
  <course>154.47</course>
  <speed>0.0</speed>
  <fix>3d</fix>
</trkpt>
<trkpt lat="40.0728419" lon="-105.2305749">
  <ele>1586.18</ele>
  <time>2026-08-27T18:27:44Z</time>
  <course>11.4</course>
  <speed>0.022360679774997897</speed>
  <fix>3d</fix>
</trkpt>
<trkpt lat="40.072842" lon="-105.230575">
  <ele>1586.09</ele>
  <time>2026-08-27T18:27:44Z</time>
  <course>214.03</course>
  <speed>0.0</speed>
  <fix>3d</fix>
</trkpt>
<trkpt lat="40.0728419" lon="-105.2305749">
  <ele>1586.18</ele>
  <time>2026-08-27T18:27:44Z</time>
  <course>11.4</course>
  <speed>0.022360679774997897</speed>
  <fix>3d</fix>
</trkpt>
<trkpt lat="40.072842" lon="-105.230575">
  <ele>1586.09</ele>
  <time>2026-08-27T18:27:44Z</time>
  <course>214.39</course>
  <speed>0.0</speed>
  <fix>3d</fix>
</trkpt>
<trkpt lat="40.0728419" lon="-105.2305749">
  <ele>1586.17</ele>
  <time>2026-08-27T18:27:44Z</time>
  <course>11.4</course>
  <speed>0.022360679774997897</speed>
  <fix>3d</fix>
</trkpt>
<trkpt lat="40.072842" lon="-105.230575">
  <ele>1586.09</ele>
  <time>2026-08-27T18:27:44Z</time>
  <course>132.58</course>
  <speed>0.0</speed>
  <fix>3d</fix>
</trkpt>
<trkpt lat="40.0728419" lon="-105.2305749">
  <ele>1586.17</ele>
  <time>2026-08-27T18:27:44Z</time>
  <course>11.4</course>
  <speed>0.022360679774997897</speed>
  <fix>3d</fix>
</trkpt>
<trkpt lat="40.072842" lon="-105.230575">
  <ele>1586.09</ele>
  <time>2026-08-27T18:27:44Z</time>
  <course>114.44</course>
  <speed>0.0</speed>
  <fix>3d</fix>
</trkpt>
<trkpt lat="40.0728419" lon="-105.2305749">
  <ele>1586.17</ele>
  <time>2026-08-27T18:27:44Z</time>
  <course>11.4</course>
  <speed>0.022360679774997897</speed>
  <fix>3d</fix>
</trkpt>
<trkpt lat="40.072842" lon="-105.230575">
  <ele>1586.09</ele>
  <time>2026-08-27T18:27:44Z</time>
  <course>155.36</course>
  <speed>0.0</speed>
  <fix>3d</fix>
</trkpt>
<trkpt lat="40.0728419" lon="-105.2305749">
  <ele>1586.17</ele>
  <time>2026-08-27T18:27:44Z</time>
  <course>11.4</course>
  <speed>0.022360679774997897</speed>
  <fix>3d</fix>
</trkpt>
<trkpt lat="40.072842" lon="-105.230575">
  <ele>1586.09</ele>
  <time>2026-08-27T18:27:44Z</time>
  <course>153.11</course>
  <speed>0.0</speed>
  <fix>3d</fix>
</trkpt>
<trkpt lat="40.0728419" lon="-105.2305749">
  <ele>1586.17</ele>
  <time>2026-08-27T18:27:44Z</time>
  <course>11.4</course>
  <speed>0.022360679774997897</speed>
  <fix>3d</fix>
</trkpt>
<trkpt lat="40.072842" lon="-105.230575">
  <ele>1586.09</ele>
  <time>2026-08-27T18:27:44Z</time>
  <course>137.32</course>
  <speed>0.0</speed>
  <fix>3d</fix>
</trkpt>
<trkpt lat="40.0728419" lon="-105.2305749">
  <ele>1586.18</ele>
  <time>2026-08-27T18:27:44Z</time>
  <course>11.4</course>
  <speed>0.022360679774997897</speed>
  <fix>3d</fix>
</trkpt>
<trkpt lat="40.072842" lon="-105.230575">
  <ele>1586.09</ele>
  <time>2026-08-27T18:27:44Z</time>
  <course>137.54</course>
  <speed>0.0</speed>
  <fix>3d</fix>
</trkpt>
<trkpt lat="40.0728419" lon="-105.2305749">
  <ele>1586.18</ele>
  <time>2026-08-27T18:27:44Z</time>
  <course>11.4</course>
  <speed>0.022360679774997897</speed>
  <fix>3d</fix>
</trkpt>
<trkpt lat="40.072842" lon="-105.230575">
  <ele>1586.09</ele>
  <time>2026-08-27T18:27:44Z</time>
  <course>171.59</course>
  <speed>0.0</speed>
  <fix>3d</fix>
</trkpt>
<trkpt lat="40.0728419" lon="-105.2305749">
  <ele>1586.18</ele>
  <time>2026-08-27T18:27:44Z</time>
  <course>11.4</course>
  <speed>0.022360679774997897</speed>
  <fix>3d</fix>
</trkpt>
<trkpt lat="40.072842" lon="-105.230575">
  <ele>1586.09</ele>
  <time>2026-08-27T18:27:44Z</time>
  <course>158.14</course>
  <speed>0.0</speed>
  <fix>3d</fix>
</trkpt>
<trkpt lat="40.0728419" lon="-105.2305749">
  <ele>1586.18</ele>
  <time>2026-08-27T18:27:44Z</time>
  <course>11.4</course>
  <speed>0.022360679774997897</speed>
  <fix>3d</fix>
</trkpt>
<trkpt lat="40.072842" lon="-105.230575">
  <ele>1586.09</ele>
  <time>2026-08-27T18:27:44Z</time>
  <course>146.24</course>
  <speed>0.0</speed>
  <fix>3d</fix>
</trkpt>
<trkpt lat="40.0728419" lon="-105.2305749">
  <ele>1586.18</ele>
  <time>2026-08-27T18:27:44Z</time>
  <course>11.4</course>
  <speed>0.022360679774997897</speed>
  <fix>3d</fix>
</trkpt>
<trkpt lat="40.072842" lon="-105.230575">
  <ele>1586.09</ele>
  <time>2026-08-27T18:27:44Z</time>
  <course>147.36</course>
  <speed>0.0</speed>
  <fix>3d</fix>
</trkpt>
<trkpt lat="40.0728419" lon="-105.2305749">
  <ele>1586.18</ele>
  <time>2026-08-27T18:27:44Z</time>
  <course>11.41</course>
  <speed>0.022360679774997897</speed>
  <fix>3d</fix>
</trkpt>
<trkpt lat="40.072842" lon="-105.230575">
  <ele>1586.09</ele>
  <time>2026-08-27T18:27:44Z</time>
  <course>148.21</course>
  <speed>0.0</speed>
  <fix>3d</fix>
</trkpt>
<trkpt lat="40.0728419" lon="-105.2305749">
  <ele>1586.18</ele>
  <time>2026-08-27T18:27:44Z</time>
  <course>11.41</course>
  <speed>0.022360679774997897</speed>
  <fix>3d</fix>
</trkpt>
<trkpt lat="40.072842" lon="-105.230575">
  <ele>1586.09</ele>
  <time>2026-08-27T18:27:44Z</time>
  <course>147.93</course>
  <speed>0.0</speed>
  <fix>3d</fix>
</trkpt>
<trkpt lat="40.0728419" lon="-105.2305749">
  <ele>1586.19</ele>
  <time>2026-08-27T18:27:44Z</time>
  <course>11.41</course>
  <speed>0.022360679774997897</speed>
  <fix>3d</fix>
</trkpt>
<trkpt lat="40.072842" lon="-105.230575">
  <ele>1586.09</ele>
  <time>2026-08-27T18:27:44Z</time>
  <course>147.84</course>
  <speed>0.0</speed>
  <fix>3d</fix>
</trkpt>
<trkpt lat="40.0728419" lon="-105.2305749">
  <ele>1586.19</ele>
  <time>2026-08-27T18:27:44Z</time>
  <course>11.41</course>
  <speed>0.022360679774997897</speed>
  <fix>3d</fix>
</trkpt>
<trkpt lat="40.072842" lon="-105.230575">
  <ele>1586.09</ele>
  <time>2026-08-27T18:27:44Z</time>
  <course>147.89</course>
  <speed>0.0</speed>
  <fix>3d</fix>
</trkpt>
<trkpt lat="40.0728419" lon="-105.2305749">
  <ele>1586.19</ele>
  <time>2026-08-27T18:27:44Z</time>
  <course>11.41</course>
  <speed>0.022360679774997897</speed>
  <fix>3d</fix>
</trkpt>
<trkpt lat="40.072842" lon="-105.230575">
  <ele>1586.09</ele>
  <time>2026-08-27T18:27:44Z</time>
  <course>147.9</course>
  <speed>0.0</speed>
  <fix>3d</fix>
</trkpt>
<trkpt lat="40.0728419" lon="-105.2305749">
  <ele>1586.19</ele>
  <time>2026-08-27T18:27:44Z</time>
  <course>11.41</course>
  <speed>0.022360679774997897</speed>
  <fix>3d</fix>
</trkpt>
<trkpt lat="40.072842" lon="-105.230575">
  <ele>1586.09</ele>
  <time>2026-08-27T18:27:44Z</time>
  <course>147.9</course>
  <speed>0.0</speed>
  <fix>3d</fix>
</trkpt>
<trkpt lat="40.0728419" lon="-105.2305749">
  <ele>1586.19</ele>
  <time>2026-08-27T18:27:44Z</time>
  <course>11.41</course>
  <speed>0.022360679774997897</speed>
  <fix>3d</fix>
</trkpt>
<trkpt lat="40.072842" lon="-105.230575">
  <ele>1586.09</ele>
  <time>2026-08-27T18:27:44Z</time>
  <course>147.9</course>
  <speed>0.0</speed>
  <fix>3d</fix>
</trkpt>
<trkpt lat="40.0728419" lon="-105.2305749">
  <ele>1586.19</ele>
  <time>2026-08-27T18:27:44Z</time>
  <course>11.41</course>
  <speed>0.022360679774997897</speed>
  <fix>3d</fix>
</trkpt>
<trkpt lat="40.072842" lon="-105.230575">
  <ele>1586.09</ele>
  <time>2026-08-27T18:27:44Z</time>
  <course>139.71</course>
  <speed>0.0</speed>
  <fix>3d</fix>
</trkpt>
<trkpt lat="40.0728419" lon="-105.2305749">
  <ele>1586.18</ele>
  <time>2026-08-27T18:27:44Z</time>
  <course>11.41</course>
  <speed>0.022360679774997897</speed>
  <fix>3d</fix>
</trkpt>
<trkpt lat="40.072842" lon="-105.230575">
  <ele>1586.09</ele>
  <time>2026-08-27T18:27:44Z</time>
  <course>137.28</course>
  <speed>0.0</speed>
  <fix>3d</fix>
</trkpt>
<trkpt lat="40.0728419" lon="-105.2305749">
  <ele>1586.18</ele>
  <time>2026-08-27T18:27:44Z</time>
  <course>11.41</course>
  <speed>0.022360679774997897</speed>
  <fix>3d</fix>
</trkpt>
<trkpt lat="40.072842" lon="-105.230575">
  <ele>1586.09</ele>
  <time>2026-08-27T18:27:44Z</time>
  <course>138.73</course>
  <speed>0.0</speed>
  <fix>3d</fix>
</trkpt>
<trkpt lat="40.0728419" lon="-105.2305749">
  <ele>1586.18</ele>
  <time>2026-08-27T18:27:44Z</time>
  <course>11.41</course>
  <speed>0.022360679774997897</speed>
  <fix>3d</fix>
</trkpt>
<trkpt lat="40.072842" lon="-105.230575">
  <ele>1586.09</ele>
  <time>2026-08-27T18:27:44Z</time>
  <course>188.74</course>
  <speed>0.0</speed>
  <fix>3d</fix>
</trkpt>
<trkpt lat="40.0728419" lon="-105.2305749">
  <ele>1586.18</ele>
  <time>2026-08-27T18:27:44Z</time>
  <course>11.41</course>
  <speed>0.022360679774997897</speed>
  <fix>3d</fix>
</trkpt>
<trkpt lat="40.072842" lon="-105.230575">
  <ele>1586.09</ele>
  <time>2026-08-27T18:27:44Z</time>
  <course>149.5</course>
  <speed>0.0</speed>
  <fix>3d</fix>
</trkpt>
<trkpt lat="40.0728419" lon="-105.2305749">
  <ele>1586.18</ele>
  <time>2026-08-27T18:27:44Z</time>
  <course>11.41</course>
  <speed>0.01414213562373095</speed>
  <fix>3d</fix>
</trkpt>
<trkpt lat="40.072842" lon="-105.230575">
  <ele>1586.09</ele>
  <time>2026-08-27T18:27:44Z</time>
  <course>145.35</course>
  <speed>0.0</speed>
  <fix>3d</fix>
</trkpt>
<trkpt lat="40.0728419" lon="-105.2305749">
  <ele>1586.18</ele>
  <time>2026-08-27T18:27:44Z</time>
  <course>11.41</course>
  <speed>0.01414213562373095</speed>
  <fix>3d</fix>
</trkpt>
<trkpt lat="40.072842" lon="-105.230575">
  <ele>1586.09</ele>
  <time>2026-08-27T18:27:44Z</time>
  <course>146.62</course>
  <speed>0.0</speed>
  <fix>3d</fix>
</trkpt>
<trkpt lat="40.0728419" lon="-105.2305749">
  <ele>1586.18</ele>
  <time>2026-08-27T18:27:44Z</time>
  <course>11.41</course>
  <speed>0.01414213562373095</speed>
  <fix>3d</fix>
</trkpt>
<trkpt lat="40.072842" lon="-105.230575">
  <ele>1586.09</ele>
  <time>2026-08-27T18:27:44Z</time>
  <course>146.97</course>
  <speed>0.0</speed>
  <fix>3d</fix>
</trkpt>
<trkpt lat="40.0728419" lon="-105.2305749">
  <ele>1586.18</ele>
  <time>2026-08-27T18:27:44Z</time>
  <course>11.41</course>
  <speed>0.01414213562373095</speed>
  <fix>3d</fix>
</trkpt>
<trkpt lat="40.072842" lon="-105.230575">
  <ele>1586.09</ele>
  <time>2026-08-27T18:27:44Z</time>
  <course>146.73</course>
  <speed>0.0</speed>
  <fix>3d</fix>
</trkpt>
<trkpt lat="40.0728419" lon="-105.2305749">
  <ele>1586.19</ele>
  <time>2026-08-27T18:27:44Z</time>
  <course>11.41</course>
  <speed>0.01414213562373095</speed>
  <fix>3d</fix>
</trkpt>
<trkpt lat="40.072842" lon="-105.230575">
  <ele>1586.09</ele>
  <time>2026-08-27T18:27:44Z</time>
  <course>146.71</course>
  <speed>0.0</speed>
  <fix>3d</fix>
</trkpt>
<trkpt lat="40.0728419" lon="-105.2305749">
  <ele>1586.19</ele>
  <time>2026-08-27T18:27:44Z</time>
  <course>11.42</course>
  <speed>0.01414213562373095</speed>
  <fix>3d</fix>
</trkpt>
<trkpt lat="40.072842" lon="-105.230575">
  <ele>1586.09</ele>
  <time>2026-08-27T18:27:44Z</time>
  <course>146.75</course>
  <speed>0.0</speed>
  <fix>3d</fix>
</trkpt>
<trkpt lat="40.0728419" lon="-105.2305749">
  <ele>1586.19</ele>
  <time>2026-08-27T18:27:44Z</time>
  <course>11.42</course>
  <speed>0.01414213562373095</speed>
  <fix>3d</fix>
</trkpt>
<trkpt lat="40.072842" lon="-105.230575">
  <ele>1586.09</ele>
  <time>2026-08-27T18:27:44Z</time>
  <course>146.75</course>
  <speed>0.0</speed>
  <fix>3d</fix>
</trkpt>
<trkpt lat="40.0728419" lon="-105.2305749">
  <ele>1586.19</ele>
  <time>2026-08-27T18:27:44Z</time>
  <course>11.42</course>
  <speed>0.01414213562373095</speed>
  <fix>3d</fix>
</trkpt>
<trkpt lat="40.072842" lon="-105.230575">
  <ele>1586.09</ele>
  <time>2026-08-27T18:27:44Z</time>
  <course>146.75</course>
  <speed>0.0</speed>
  <fix>3d</fix>
</trkpt>
<trkpt lat="40.0728419" lon="-105.2305749">
  <ele>1586.19</ele>
  <time>2026-08-27T18:27:44Z</time>
  <course>11.42</course>
  <speed>0.01414213562373095</speed>
  <fix>3d</fix>
</trkpt>
<trkpt lat="40.072842" lon="-105.230575">
  <ele>1586.09</ele>
  <time>2026-08-27T18:27:44Z</time>
  <course>146.76</course>
  <speed>0.0</speed>
  <fix>3d</fix>
</trkpt>
<trkpt lat="40.0728419" lon="-105.2305749">
  <ele>1586.19</ele>
  <time>2026-08-27T18:27:44Z</time>
  <course>11.42</course>
  <speed>0.01414213562373095</speed>
  <fix>3d</fix>
</trkpt>
<trkpt lat="40.072842" lon="-105.230575">
  <ele>1586.09</ele>
  <time>2026-08-27T18:27:44Z</time>
  <course>146.76</course>
  <speed>0.0</speed>
  <fix>3d</fix>
</trkpt>
<trkpt lat="40.0728419" lon="-105.2305749">
  <ele>1586.19</ele>
  <time>2026-08-27T18:27:44Z</time>
  <course>11.42</course>
  <speed>0.01414213562373095</speed>
  <fix>3d</fix>
</trkpt>
<trkpt lat="40.072842" lon="-105.230575">
  <ele>1586.09</ele>
  <time>2026-08-27T18:27:44Z</time>
  <course>146.76</course>
  <speed>0.0</speed>
  <fix>3d</fix>
</trkpt>
<trkpt lat="40.0728419" lon="-105.2305749">
  <ele>1586.19</ele>
  <time>2026-08-27T18:27:44Z</time>
  <course>11.42</course>
  <speed>0.01414213562373095</speed>
  <fix>3d</fix>
</trkpt>
<trkpt lat="40.072842" lon="-105.230575">
  <ele>1586.09</ele>
  <time>2026-08-27T18:27:44Z</time>
  <course>146.76</course>
  <speed>0.0</speed>
  <fix>3d</fix>
</trkpt>
<trkpt lat="40.0728419" lon="-105.2305749">
  <ele>1586.19</ele>
  <time>2026-08-27T18:27:44Z</time>
  <course>11.42</course>
  <speed>0.01414213562373095</speed>
  <fix>3d</fix>
</trkpt>
<trkpt lat="40.072842" lon="-105.230575">
  <ele>1586.09</ele>
  <time>2026-08-27T18:27:44Z</time>
  <course>137.36</course>
  <speed>0.0</speed>
  <fix>3d</fix>
</trkpt>
<trkpt lat="40.0728419" lon="-105.2305749">
  <ele>1586.19</ele>
  <time>2026-08-27T18:27:44Z</time>
  <course>11.42</course>
  <speed>0.01414213562373095</speed>
  <fix>3d</fix>
</trkpt>
<trkpt lat="40.072842" lon="-105.230575">
  <ele>1586.09</ele>
  <time>2026-08-27T18:27:44Z</time>
  <course>137.07</course>
  <speed>0.0</speed>
  <fix>3d</fix>
</trkpt>
<trkpt lat="40.0728419" lon="-105.2305749">
  <ele>1586.19</ele>
  <time>2026-08-27T18:27:44Z</time>
  <course>11.42</course>
  <speed>0.01414213562373095</speed>
  <fix>3d</fix>
</trkpt>
<trkpt lat="40.072842" lon="-105.230575">
  <ele>1586.09</ele>
  <time>2026-08-27T18:27:44Z</time>
  <course>144.99</course>
  <speed>0.0</speed>
  <fix>3d</fix>
</trkpt>
<trkpt lat="40.0728419" lon="-105.2305749">
  <ele>1586.19</ele>
  <time>2026-08-27T18:27:44Z</time>
  <course>11.42</course>
  <speed>0.01414213562373095</speed>
  <fix>3d</fix>
</trkpt>
<trkpt lat="40.072842" lon="-105.230575">
  <ele>1586.09</ele>
  <time>2026-08-27T18:27:44Z</time>
  <course>161.31</course>
  <speed>0.0</speed>
  <fix>3d</fix>
</trkpt>
<trkpt lat="40.0728419" lon="-105.2305749">
  <ele>1586.18</ele>
  <time>2026-08-27T18:27:44Z</time>
  <course>11.42</course>
  <speed>0.01414213562373095</speed>
  <fix>3d</fix>
</trkpt>
<trkpt lat="40.072842" lon="-105.230575">
  <ele>1586.09</ele>
  <time>2026-08-27T18:27:44Z</time>
  <course>145.2</course>
  <speed>0.0</speed>
  <fix>3d</fix>
</trkpt>
<trkpt lat="40.0728419" lon="-105.2305749">
  <ele>1586.18</ele>
  <time>2026-08-27T18:27:44Z</time>
  <course>11.42</course>
  <speed>0.01414213562373095</speed>
  <fix>3d</fix>
</trkpt>
<trkpt lat="40.072842" lon="-105.230575">
  <ele>1586.09</ele>
  <time>2026-08-27T18:27:44Z</time>
  <course>145.08</course>
  <speed>0.0</speed>
  <fix>3d</fix>
</trkpt>
<trkpt lat="40.0728419" lon="-105.2305749">
  <ele>1586.18</ele>
  <time>2026-08-27T18:27:44Z</time>
  <course>11.43</course>
  <speed>0.01414213562373095</speed>
  <fix>3d</fix>
</trkpt>
<trkpt lat="40.072842" lon="-105.230575">
  <ele>1586.09</ele>
  <time>2026-08-27T18:27:44Z</time>
  <course>146.0</course>
  <speed>0.0</speed>
  <fix>3d</fix>
</trkpt>
<trkpt lat="40.0728419" lon="-105.2305749">
  <ele>1586.18</ele>
  <time>2026-08-27T18:27:44Z</time>
  <course>11.43</course>
  <speed>0.01414213562373095</speed>
  <fix>3d</fix>
</trkpt>
<trkpt lat="40.072842" lon="-105.230575">
  <ele>1586.09</ele>
  <time>2026-08-27T18:27:44Z</time>
  <course>145.9</course>
  <speed>0.0</speed>
  <fix>3d</fix>
</trkpt>
<trkpt lat="40.0728419" lon="-105.2305749">
  <ele>1586.18</ele>
  <time>2026-08-27T18:27:44Z</time>
  <course>11.43</course>
  <speed>0.01414213562373095</speed>
  <fix>3d</fix>
</trkpt>
<trkpt lat="40.072842" lon="-105.230575">
  <ele>1586.09</ele>
  <time>2026-08-27T18:27:44Z</time>
  <course>145.78</course>
  <speed>0.0</speed>
  <fix>3d</fix>
</trkpt>
<trkpt lat="40.0728419" lon="-105.2305749">
  <ele>1586.18</ele>
  <time>2026-08-27T18:27:44Z</time>
  <course>11.43</course>
  <speed>0.01414213562373095</speed>
  <fix>3d</fix>
</trkpt>
<trkpt lat="40.072842" lon="-105.230575">
  <ele>1586.09</ele>
  <time>2026-08-27T18:27:44Z</time>
  <course>145.82</course>
  <speed>0.0</speed>
  <fix>3d</fix>
</trkpt>
<trkpt lat="40.0728419" lon="-105.2305749">
  <ele>1586.18</ele>
  <time>2026-08-27T18:27:44Z</time>
  <course>11.43</course>
  <speed>0.01414213562373095</speed>
  <fix>3d</fix>
</trkpt>
<trkpt lat="40.072842" lon="-105.230575">
  <ele>1586.09</ele>
  <time>2026-08-27T18:27:44Z</time>
  <course>145.83</course>
  <speed>0.0</speed>
  <fix>3d</fix>
</trkpt>
<trkpt lat="40.0728419" lon="-105.2305749">
  <ele>1586.18</ele>
  <time>2026-08-27T18:27:44Z</time>
  <course>11.43</course>
  <speed>0.01414213562373095</speed>
  <fix>3d</fix>
</trkpt>
<trkpt lat="40.072842" lon="-105.230575">
  <ele>1586.09</ele>
  <time>2026-08-27T18:27:44Z</time>
  <course>145.83</course>
  <speed>0.0</speed>
  <fix>3d</fix>
</trkpt>
<trkpt lat="40.0728419" lon="-105.2305749">
  <ele>1586.17</ele>
  <time>2026-08-27T18:27:44Z</time>
  <course>11.43</course>
  <speed>0.01414213562373095</speed>
  <fix>3d</fix>
</trkpt>
<trkpt lat="40.072842" lon="-105.230575">
  <ele>1586.09</ele>
  <time>2026-08-27T18:27:44Z</time>
  <course>145.83</course>
  <speed>0.0</speed>
  <fix>3d</fix>
</trkpt>
<trkpt lat="40.0728419" lon="-105.2305749">
  <ele>1586.17</ele>
  <time>2026-08-27T18:27:44Z</time>
  <course>11.43</course>
  <speed>0.01414213562373095</speed>
  <fix>3d</fix>
</trkpt>
<trkpt lat="40.072842" lon="-105.230575">
  <ele>1586.09</ele>
  <time>2026-08-27T18:27:44Z</time>
  <course>145.84</course>
  <speed>0.0</speed>
  <fix>3d</fix>
</trkpt>
<trkpt lat="40.0728419" lon="-105.2305749">
  <ele>1586.18</ele>
  <time>2026-08-27T18:27:44Z</time>
  <course>11.43</course>
  <speed>0.01414213562373095</speed>
  <fix>3d</fix>
</trkpt>
<trkpt lat="40.072842" lon="-105.230575">
  <ele>1586.09</ele>
  <time>2026-08-27T18:27:44Z</time>
  <course>325.56</course>
  <speed>0.0</speed>
  <fix>3d</fix>
</trkpt>
<trkpt lat="40.0728419" lon="-105.2305749">
  <ele>1586.2</ele>
  <time>2026-08-27T18:27:44Z</time>
  <course>11.43</course>
  <speed>0.01414213562373095</speed>
  <fix>3d</fix>
</trkpt>
<trkpt lat="40.072842" lon="-105.230575">
  <ele>1586.11</ele>
  <time>2026-08-27T18:27:44Z</time>
  <course>325.53</course>
  <speed>0.0</speed>
  <fix>3d</fix>
</trkpt>
<trkpt lat="40.0728419" lon="-105.2305749">
  <ele>1586.22</ele>
  <time>2026-08-27T18:27:44Z</time>
  <course>11.43</course>
  <speed>0.01414213562373095</speed>
  <fix>3d</fix>
</trkpt>
<trkpt lat="40.072842" lon="-105.230575">
  <ele>1586.13</ele>
  <time>2026-08-27T18:27:44Z</time>
  <course>325.17</course>
  <speed>0.0</speed>
  <fix>3d</fix>
</trkpt>
<trkpt lat="40.0728419" lon="-105.2305749">
  <ele>1586.24</ele>
  <time>2026-08-27T18:27:44Z</time>
  <course>11.42</course>
  <speed>0.01414213562373095</speed>
  <fix>3d</fix>
</trkpt>
<trkpt lat="40.072842" lon="-105.230575">
  <ele>1586.14</ele>
  <time>2026-08-27T18:27:44Z</time>
  <course>146.08</course>
  <speed>0.0</speed>
  <fix>3d</fix>
</trkpt>
<trkpt lat="40.0728419" lon="-105.2305749">
  <ele>1586.24</ele>
  <time>2026-08-27T18:27:44Z</time>
  <course>11.42</course>
  <speed>0.01414213562373095</speed>
  <fix>3d</fix>
</trkpt>
<trkpt lat="40.0728419" lon="-105.2305749">
  <ele>1586.25</ele>
  <time>2026-08-27T18:27:44Z</time>
  <course>11.42</course>
  <speed>0.01414213562373095</speed>
  <fix>3d</fix>
</trkpt>
<trkpt lat="40.072842" lon="-105.230575">
  <ele>1586.16</ele>
  <time>2026-08-27T18:27:44Z</time>
  <course>307.38</course>
  <speed>0.0</speed>
  <fix>3d</fix>
</trkpt>
<trkpt lat="40.0728419" lon="-105.2305749">
  <ele>1586.26</ele>
  <time>2026-08-27T18:27:44Z</time>
  <course>11.42</course>
  <speed>0.01414213562373095</speed>
  <fix>3d</fix>
</trkpt>
<trkpt lat="40.0728419" lon="-105.2305749">
  <ele>1586.27</ele>
  <time>2026-08-27T18:27:44Z</time>
  <course>11.42</course>
  <speed>0.01414213562373095</speed>
  <fix>3d</fix>
</trkpt>
<trkpt lat="40.072842" lon="-105.230575">
  <ele>1586.17</ele>
  <time>2026-08-27T18:27:44Z</time>
  <course>323.76</course>
  <speed>0.0</speed>
  <fix>3d</fix>
</trkpt>
<trkpt lat="40.0728419" lon="-105.2305749">
  <ele>1586.27</ele>
  <time>2026-08-27T18:27:44Z</time>
  <course>11.42</course>
  <speed>0.01414213562373095</speed>
  <fix>3d</fix>
</trkpt>
<trkpt lat="40.0728419" lon="-105.2305749">
  <ele>1586.28</ele>
  <time>2026-08-27T18:27:44Z</time>
  <course>11.42</course>
  <speed>0.01414213562373095</speed>
  <fix>3d</fix>
</trkpt>
<trkpt lat="40.072842" lon="-105.230575">
  <ele>1586.19</ele>
  <time>2026-08-27T18:27:44Z</time>
  <course>319.0</course>
  <speed>0.0</speed>
  <fix>3d</fix>
</trkpt>
<trkpt lat="40.0728419" lon="-105.2305749">
  <ele>1586.28</ele>
  <time>2026-08-27T18:27:44Z</time>
  <course>11.42</course>
  <speed>0.01414213562373095</speed>
  <fix>3d</fix>
</trkpt>
<trkpt lat="40.0728419" lon="-105.2305749">
  <ele>1586.29</ele>
  <time>2026-08-27T18:27:44Z</time>
  <course>11.41</course>
  <speed>0.01414213562373095</speed>
  <fix>3d</fix>
</trkpt>
<trkpt lat="40.072842" lon="-105.230575">
  <ele>1586.2</ele>
  <time>2026-08-27T18:27:44Z</time>
  <course>318.03</course>
  <speed>0.0</speed>
  <fix>3d</fix>
</trkpt>
<trkpt lat="40.0728419" lon="-105.2305749">
  <ele>1586.3</ele>
  <time>2026-08-27T18:27:44Z</time>
  <course>11.41</course>
  <speed>0.01414213562373095</speed>
  <fix>3d</fix>
</trkpt>
<trkpt lat="40.0728419" lon="-105.2305749">
  <ele>1586.34</ele>
  <time>2026-08-27T18:27:44Z</time>
  <course>11.42</course>
  <speed>0.01</speed>
  <fix>3d</fix>
</trkpt>
<trkpt lat="40.072842" lon="-105.230575">
  <ele>1586.21</ele>
  <time>2026-08-27T18:27:44Z</time>
  <course>316.17</course>
  <speed>0.0</speed>
  <fix>3d</fix>
</trkpt>
<trkpt lat="40.0728419" lon="-105.2305749">
  <ele>1586.37</ele>
  <time>2026-08-27T18:27:44Z</time>
  <course>11.41</course>
  <speed>0.02</speed>
  <fix>3d</fix>
</trkpt>
<trkpt lat="40.0728419" lon="-105.2305749">
  <ele>1586.6</ele>
  <time>2026-08-27T18:27:44Z</time>
  <course>11.35</course>
  <speed>0.0670820393249937</speed>
  <fix>3d</fix>
</trkpt>
<trkpt lat="40.072842" lon="-105.230575">
  <ele>1586.3</ele>
  <time>2026-08-27T18:27:44Z</time>
  <course>320.76</course>
  <speed>0.03</speed>
  <fix>3d</fix>
</trkpt>
<trkpt lat="40.072842" lon="-105.2305749">
  <ele>1586.64</ele>
  <time>2026-08-27T18:27:44Z</time>
  <course>11.34</course>
  <speed>0.08062257748298549</speed>
  <fix>3d</fix>
</trkpt>
<trkpt lat="40.0728421" lon="-105.2305751">
  <ele>1586.9</ele>
  <time>2026-08-27T18:27:44Z</time>
  <course>11.3</course>
  <speed>0.11661903789690602</speed>
  <fix>3d</fix>
</trkpt>
<trkpt lat="40.072842" lon="-105.2305751">
  <ele>1586.53</ele>
  <time>2026-08-27T18:27:44Z</time>
  <course>318.23</course>
  <speed>0.1</speed>
  <fix>3d</fix>
</trkpt>
<trkpt lat="40.0728421" lon="-105.2305751">
  <ele>1586.95</ele>
  <time>2026-08-27T18:27:44Z</time>
  <course>11.29</course>
  <speed>0.130384048104053</speed>
  <fix>3d</fix>
</trkpt>
<trkpt lat="40.0728423" lon="-105.2305753">
  <ele>1587.2</ele>
  <time>2026-08-27T18:27:44Z</time>
  <course>11.26</course>
  <speed>0.1664331697709324</speed>
  <fix>3d</fix>
</trkpt>
<trkpt lat="40.0728421" lon="-105.2305753">
  <ele>1586.83</ele>
  <time>2026-08-27T18:27:44Z</time>
  <course>316.44</course>
  <speed>0.15</speed>
  <fix>3d</fix>
</trkpt>
<trkpt lat="40.0728423" lon="-105.2305753">
  <ele>1587.21</ele>
  <time>2026-08-27T18:27:44Z</time>
  <course>11.26</course>
  <speed>0.1664331697709324</speed>
  <fix>3d</fix>
</trkpt>
<trkpt lat="40.0728426" lon="-105.2305756">
  <ele>1587.52</ele>
  <time>2026-08-27T18:27:44Z</time>
  <course>11.25</course>
  <speed>0.20808652046684814</speed>
  <fix>3d</fix>
</trkpt>
<trkpt lat="40.0728424" lon="-105.2305755">
  <ele>1587.14</ele>
  <time>2026-08-27T18:27:44Z</time>
  <course>316.01</course>
  <speed>0.2</speed>
  <fix>3d</fix>
</trkpt>
<trkpt lat="40.0728427" lon="-105.2305757">
  <ele>1587.57</ele>
  <time>2026-08-27T18:27:44Z</time>
  <course>11.25</course>
  <speed>0.21633307652783937</speed>
  <fix>3d</fix>
</trkpt>
<trkpt lat="40.072843" lon="-105.230576">
  <ele>1587.86</ele>
  <time>2026-08-27T18:27:44Z</time>
  <course>11.25</course>
  <speed>0.24413111231467405</speed>
  <fix>3d</fix>
</trkpt>
<trkpt lat="40.0728427" lon="-105.2305758">
  <ele>1587.46</ele>
  <time>2026-08-27T18:27:44Z</time>
  <course>315.66</course>
  <speed>0.24</speed>
  <fix>3d</fix>
</trkpt>
<trkpt lat="40.072843" lon="-105.2305761">
  <ele>1587.91</ele>
  <time>2026-08-27T18:27:44Z</time>
  <course>11.25</course>
  <speed>0.24413111231467405</speed>
  <fix>3d</fix>
</trkpt>
<trkpt lat="40.0728433" lon="-105.2305765">
  <ele>1588.21</ele>
  <time>2026-08-27T18:27:44Z</time>
  <course>11.25</course>
  <speed>0.2720294101747089</speed>
  <fix>3d</fix>
</trkpt>
<trkpt lat="40.0728431" lon="-105.2305763">
  <ele>1587.79</ele>
  <time>2026-08-27T18:27:44Z</time>
  <course>315.46</course>
  <speed>0.27</speed>
  <fix>3d</fix>
</trkpt>
<trkpt lat="40.0728434" lon="-105.2305765">
  <ele>1588.26</ele>
  <time>2026-08-27T18:27:44Z</time>
  <course>11.25</course>
  <speed>0.2780287754891569</speed>
  <fix>3d</fix>
</trkpt>
<trkpt lat="40.0728438" lon="-105.230577">
  <ele>1588.57</ele>
  <time>2026-08-27T18:27:44Z</time>
  <course>11.25</course>
  <speed>0.3</speed>
  <fix>3d</fix>
</trkpt>
<trkpt lat="40.0728435" lon="-105.2305768">
  <ele>1588.13</ele>
  <time>2026-08-27T18:27:44Z</time>
  <course>315.32</course>
  <speed>0.31</speed>
  <fix>3d</fix>
</trkpt>
<trkpt lat="40.0728438" lon="-105.2305771">
  <ele>1588.63</ele>
  <time>2026-08-27T18:27:44Z</time>
  <course>11.25</course>
  <speed>0.30610455730027936</speed>
  <fix>3d</fix>
</trkpt>
<trkpt lat="40.0728442" lon="-105.2305775">
  <ele>1588.94</ele>
  <time>2026-08-27T18:27:44Z</time>
  <course>11.25</course>
  <speed>0.32015621187164245</speed>
  <fix>3d</fix>
</trkpt>
<trkpt lat="40.0728438" lon="-105.2305773">
  <ele>1588.48</ele>
  <time>2026-08-27T18:27:44Z</time>
  <course>315.23</course>
  <speed>0.33</speed>
  <fix>3d</fix>
</trkpt>
<trkpt lat="40.0728442" lon="-105.2305775">
  <ele>1588.94</ele>
  <time>2026-08-27T18:27:44Z</time>
  <course>11.25</course>
  <speed>0.32015621187164245</speed>
  <fix>3d</fix>
</trkpt>
<trkpt lat="40.0728447" lon="-105.2305781">
  <ele>1589.31</ele>
  <time>2026-08-27T18:27:44Z</time>
  <course>9.91</course>
  <speed>0.33421549934136807</speed>
  <fix>3d</fix>
</trkpt>
<trkpt lat="40.0728443" lon="-105.230578">
  <ele>1588.84</ele>
  <time>2026-08-27T18:27:44Z</time>
  <course>315.19</course>
  <speed>0.35</speed>
  <fix>3d</fix>
</trkpt>
<trkpt lat="40.0728447" lon="-105.2305781">
  <ele>1589.31</ele>
  <time>2026-08-27T18:27:44Z</time>
  <course>9.91</course>
  <speed>0.3420526275297414</speed>
  <fix>3d</fix>
</trkpt>
<trkpt lat="40.0728452" lon="-105.2305787">
  <ele>1589.69</ele>
  <time>2026-08-27T18:27:44Z</time>
  <course>9.94</course>
  <speed>0.354682957019364</speed>
  <fix>3d</fix>
</trkpt>
<trkpt lat="40.0728448" lon="-105.2305786">
  <ele>1589.2</ele>
  <time>2026-08-27T18:27:44Z</time>
  <course>315.28</course>
  <speed>0.37</speed>
  <fix>3d</fix>
</trkpt>
<trkpt lat="40.0728452" lon="-105.2305788">
  <ele>1589.75</ele>
  <time>2026-08-27T18:27:44Z</time>
  <course>9.95</course>
  <speed>0.354682957019364</speed>
  <fix>3d</fix>
</trkpt>
<trkpt lat="40.0728457" lon="-105.2305794">
  <ele>1590.08</ele>
  <time>2026-08-27T18:27:44Z</time>
  <course>9.97</course>
  <speed>0.3687817782917155</speed>
  <fix>3d</fix>
</trkpt>
<trkpt lat="40.0728452" lon="-105.2305792">
  <ele>1589.58</ele>
  <time>2026-08-27T18:27:44Z</time>
  <course>315.46</course>
  <speed>0.39</speed>
  <fix>3d</fix>
</trkpt>
<trkpt lat="40.0728457" lon="-105.2305795">
  <ele>1590.14</ele>
  <time>2026-08-27T18:27:44Z</time>
  <course>9.97</course>
  <speed>0.3687817782917155</speed>
  <fix>3d</fix>
</trkpt>
<trkpt lat="40.0728462" lon="-105.2305801">
  <ele>1590.47</ele>
  <time>2026-08-27T18:27:44Z</time>
  <course>9.98</course>
  <speed>0.3753664875824692</speed>
  <fix>3d</fix>
</trkpt>
<trkpt lat="40.0728457" lon="-105.2305799">
  <ele>1589.96</ele>
  <time>2026-08-27T18:27:44Z</time>
  <course>315.65</course>
  <speed>0.4</speed>
  <fix>3d</fix>
</trkpt>
<trkpt lat="40.0728462" lon="-105.2305802">
  <ele>1590.53</ele>
  <time>2026-08-27T18:27:44Z</time>
  <course>9.98</course>
  <speed>0.3828837943815329</speed>
  <fix>3d</fix>
</trkpt>
<trkpt lat="40.0728467" lon="-105.2305807">
  <ele>1590.87</ele>
  <time>2026-08-27T18:27:44Z</time>
  <course>9.98</course>
  <speed>0.38948684188300897</speed>
  <fix>3d</fix>
</trkpt>
<trkpt lat="40.0728463" lon="-105.2305805">
  <ele>1590.35</ele>
  <time>2026-08-27T18:27:44Z</time>
  <course>315.85</course>
  <speed>0.41</speed>
  <fix>3d</fix>
</trkpt>
<trkpt lat="40.0728467" lon="-105.2305807">
  <ele>1590.87</ele>
  <time>2026-08-27T18:27:44Z</time>
  <course>9.98</course>
  <speed>0.38948684188300897</speed>
  <fix>3d</fix>
</trkpt>
<trkpt lat="40.0728472" lon="-105.2305814">
  <ele>1591.27</ele>
  <time>2026-08-27T18:27:44Z</time>
  <course>9.98</course>
  <speed>0.38948684188300897</speed>
  <fix>3d</fix>
</trkpt>
<trkpt lat="40.0728469" lon="-105.2305812">
  <ele>1590.74</ele>
  <time>2026-08-27T18:27:44Z</time>
  <course>316.04</course>
  <speed>0.42</speed>
  <fix>3d</fix>
</trkpt>
<trkpt lat="40.0728473" lon="-105.2305815">
  <ele>1591.33</ele>
  <time>2026-08-27T18:27:44Z</time>
  <course>9.98</course>
  <speed>0.396232255123179</speed>
  <fix>3d</fix>
</trkpt>
<trkpt lat="40.0728478" lon="-105.2305822">
  <ele>1591.67</ele>
  <time>2026-08-27T18:27:44Z</time>
  <course>9.97</course>
  <speed>0.396232255123179</speed>
  <fix>3d</fix>
</trkpt>
<trkpt lat="40.0728474" lon="-105.2305819">
  <ele>1591.13</ele>
  <time>2026-08-27T18:27:44Z</time>
  <course>316.22</course>
  <speed>0.42</speed>
  <fix>3d</fix>
</trkpt>
<trkpt lat="40.0728478" lon="-105.2305823">
  <ele>1591.73</ele>
  <time>2026-08-27T18:27:44Z</time>
  <course>9.97</course>
  <speed>0.396232255123179</speed>
  <fix>3d</fix>
</trkpt>
<trkpt lat="40.0728483" lon="-105.2305829">
  <ele>1592.08</ele>
  <time>2026-08-27T18:27:44Z</time>
  <course>9.97</course>
  <speed>0.40311288741492746</speed>
  <fix>3d</fix>
</trkpt>
<trkpt lat="40.0728479" lon="-105.2305826">
  <ele>1591.54</ele>
  <time>2026-08-27T18:27:44Z</time>
  <course>316.39</course>
  <speed>0.42</speed>
  <fix>3d</fix>
</trkpt>
<trkpt lat="40.0728484" lon="-105.230583">
  <ele>1592.14</ele>
  <time>2026-08-27T18:27:44Z</time>
  <course>9.97</course>
  <speed>0.40311288741492746</speed>
  <fix>3d</fix>
</trkpt>
<trkpt lat="40.0728489" lon="-105.2305836">
  <ele>1592.49</ele>
  <time>2026-08-27T18:27:44Z</time>
  <course>9.96</course>
  <speed>0.40311288741492746</speed>
  <fix>3d</fix>
</trkpt>
<trkpt lat="40.0728485" lon="-105.2305833">
  <ele>1591.95</ele>
  <time>2026-08-27T18:27:44Z</time>
  <course>316.56</course>
  <speed>0.43</speed>
  <fix>3d</fix>
</trkpt>
<trkpt lat="40.0728489" lon="-105.2305837">
  <ele>1592.55</ele>
  <time>2026-08-27T18:27:44Z</time>
  <course>9.96</course>
  <speed>0.40311288741492746</speed>
  <fix>3d</fix>
</trkpt>
<trkpt lat="40.0728494" lon="-105.2305844">
  <ele>1592.91</ele>
  <time>2026-08-27T18:27:44Z</time>
  <course>9.95</course>
  <speed>0.41012193308819755</speed>
  <fix>3d</fix>
</trkpt>
<trkpt lat="40.0728491" lon="-105.230584">
  <ele>1592.35</ele>
  <time>2026-08-27T18:27:44Z</time>
  <course>316.73</course>
  <speed>0.42</speed>
  <fix>3d</fix>
</trkpt>
<trkpt lat="40.0728495" lon="-105.2305844">
  <ele>1592.97</ele>
  <time>2026-08-27T18:27:44Z</time>
  <course>9.95</course>
  <speed>0.41012193308819755</speed>
  <fix>3d</fix>
</trkpt>
<trkpt lat="40.07285" lon="-105.2305851">
  <ele>1593.33</ele>
  <time>2026-08-27T18:27:44Z</time>
  <course>9.93</course>
  <speed>0.41012193308819755</speed>
  <fix>3d</fix>
</trkpt>
<trkpt lat="40.0728496" lon="-105.2305847">
  <ele>1592.76</ele>
  <time>2026-08-27T18:27:44Z</time>
  <course>316.89</course>
  <speed>0.42</speed>
  <fix>3d</fix>
</trkpt>
<trkpt lat="40.07285" lon="-105.2305851">
  <ele>1593.34</ele>
  <time>2026-08-27T18:27:44Z</time>
  <course>9.93</course>
  <speed>0.41012193308819755</speed>
  <fix>3d</fix>
</trkpt>
<trkpt lat="40.0728505" lon="-105.2305858">
  <ele>1593.76</ele>
  <time>2026-08-27T18:27:44Z</time>
  <course>9.91</course>
  <speed>0.40311288741492746</speed>
  <fix>3d</fix>
</trkpt>
<trkpt lat="40.0728502" lon="-105.2305853">
  <ele>1593.17</ele>
  <time>2026-08-27T18:27:44Z</time>
  <course>317.06</course>
  <speed>0.42</speed>
  <fix>3d</fix>
</trkpt>
<trkpt lat="40.0728506" lon="-105.2305859">
  <ele>1593.82</ele>
  <time>2026-08-27T18:27:44Z</time>
  <course>9.9</course>
  <speed>0.40311288741492746</speed>
  <fix>3d</fix>
</trkpt>
<trkpt lat="40.0728511" lon="-105.2305865">
  <ele>1594.18</ele>
  <time>2026-08-27T18:27:44Z</time>
  <course>9.88</course>
  <speed>0.40311288741492746</speed>
  <fix>3d</fix>
</trkpt>
<trkpt lat="40.0728508" lon="-105.230586">
  <ele>1593.59</ele>
  <time>2026-08-27T18:27:44Z</time>
  <course>317.22</course>
  <speed>0.42</speed>
  <fix>3d</fix>
</trkpt>
<trkpt lat="40.0728512" lon="-105.2305866">
  <ele>1594.24</ele>
  <time>2026-08-27T18:27:44Z</time>
  <course>9.88</course>
  <speed>0.40311288741492746</speed>
  <fix>3d</fix>
</trkpt>
<trkpt lat="40.0728516" lon="-105.2305872">
  <ele>1594.6</ele>
  <time>2026-08-27T18:27:44Z</time>
  <course>9.86</course>
  <speed>0.40311288741492746</speed>
  <fix>3d</fix>
</trkpt>
<trkpt lat="40.0728513" lon="-105.2305867">
  <ele>1594.01</ele>
  <time>2026-08-27T18:27:44Z</time>
  <course>317.39</course>
  <speed>0.41</speed>
  <fix>3d</fix>
</trkpt>
<trkpt lat="40.0728517" lon="-105.2305873">
  <ele>1594.66</ele>
  <time>2026-08-27T18:27:44Z</time>
  <course>9.86</course>
  <speed>0.40311288741492746</speed>
  <fix>3d</fix>
</trkpt>
<trkpt lat="40.0728522" lon="-105.2305878">
  <ele>1595.02</ele>
  <time>2026-08-27T18:27:44Z</time>
  <course>9.86</course>
  <speed>0.3889730067755345</speed>
  <fix>3d</fix>
</trkpt>
<trkpt lat="40.0728519" lon="-105.2305873">
  <ele>1594.42</ele>
  <time>2026-08-27T18:27:44Z</time>
  <course>317.56</course>
  <speed>0.41</speed>
  <fix>3d</fix>
</trkpt>
<trkpt lat="40.0728522" lon="-105.2305878">
  <ele>1595.02</ele>
  <time>2026-08-27T18:27:44Z</time>
  <course>9.86</course>
  <speed>0.3889730067755345</speed>
  <fix>3d</fix>
</trkpt>
<trkpt lat="40.0728527" lon="-105.2305885">
  <ele>1595.44</ele>
  <time>2026-08-27T18:27:44Z</time>
  <course>9.87</course>
  <speed>0.3889730067755345</speed>
  <fix>3d</fix>
</trkpt>
<trkpt lat="40.0728524" lon="-105.230588">
  <ele>1594.85</ele>
  <time>2026-08-27T18:27:44Z</time>
  <course>317.71</course>
  <speed>0.4</speed>
  <fix>3d</fix>
</trkpt>
<trkpt lat="40.0728528" lon="-105.2305886">
  <ele>1595.51</ele>
  <time>2026-08-27T18:27:44Z</time>
  <course>9.87</course>
  <speed>0.3889730067755345</speed>
  <fix>3d</fix>
</trkpt>
<trkpt lat="40.0728532" lon="-105.2305891">
  <ele>1595.76</ele>
  <time>2026-08-27T18:27:44Z</time>
  <course>9.87</course>
  <speed>0.3889730067755345</speed>
  <fix>3d</fix>
</trkpt>
<trkpt lat="40.0728529" lon="-105.2305886">
  <ele>1595.27</ele>
  <time>2026-08-27T18:27:44Z</time>
  <course>317.83</course>
  <speed>0.4</speed>
  <fix>3d</fix>
</trkpt>
<trkpt lat="40.0728538" lon="-105.2305898">
  <ele>1595.7</ele>
  <time>2026-08-27T18:27:44Z</time>
  <course>9.88</course>
  <speed>0.3889730067755345</speed>
  <fix>3d</fix>
</trkpt>
<trkpt lat="40.0728534" lon="-105.2305892">
  <ele>1595.54</ele>
  <time>2026-08-27T18:27:44Z</time>
  <course>317.87</course>
  <speed>0.39</speed>
  <fix>3d</fix>
</trkpt>
<trkpt lat="40.0728543" lon="-105.2305904">
  <ele>1595.25</ele>
  <time>2026-08-27T18:27:44Z</time>
  <course>9.89</course>
  <speed>0.3889730067755345</speed>
  <fix>3d</fix>
</trkpt>
<trkpt lat="40.072854" lon="-105.2305899">
  <ele>1595.46</ele>
  <time>2026-08-27T18:27:44Z</time>
  <course>317.87</course>
  <speed>0.39</speed>
  <fix>3d</fix>
</trkpt>
<trkpt lat="40.0728548" lon="-105.230591">
  <ele>1594.55</ele>
  <time>2026-08-27T18:27:44Z</time>
  <course>9.91</course>
  <speed>0.3818376618407357</speed>
  <fix>3d</fix>
</trkpt>
<trkpt lat="40.0728545" lon="-105.2305905">
  <ele>1594.99</ele>
  <time>2026-08-27T18:27:44Z</time>
  <course>317.88</course>
  <speed>0.38</speed>
  <fix>3d</fix>
</trkpt>
<trkpt lat="40.0728553" lon="-105.2305916">
  <ele>1594.05</ele>
  <time>2026-08-27T18:27:44Z</time>
  <course>9.92</course>
  <speed>0.3394112549695428</speed>
  <fix>3d</fix>
</trkpt>
<trkpt lat="40.072855" lon="-105.2305911">
  <ele>1594.36</ele>
  <time>2026-08-27T18:27:44Z</time>
  <course>318.27</course>
  <speed>0.37</speed>
  <fix>3d</fix>
</trkpt>
<trkpt lat="40.0728557" lon="-105.2305921">
  <ele>1593.71</ele>
  <time>2026-08-27T18:27:44Z</time>
  <course>9.91</course>
  <speed>0.29</speed>
  <fix>3d</fix>
</trkpt>
<trkpt lat="40.0728555" lon="-105.2305916">
  <ele>1593.85</ele>
  <time>2026-08-27T18:27:44Z</time>
  <course>319.54</course>
  <speed>0.34</speed>
  <fix>3d</fix>
</trkpt>
<trkpt lat="40.0728561" lon="-105.2305925">
  <ele>1593.51</ele>
  <time>2026-08-27T18:27:44Z</time>
  <course>9.85</course>
  <speed>0.24758836806279894</speed>
  <fix>3d</fix>
</trkpt>
<trkpt lat="40.072856" lon="-105.2305921">
  <ele>1593.53</ele>
  <time>2026-08-27T18:27:44Z</time>
  <course>321.5</course>
  <speed>0.3</speed>
  <fix>3d</fix>
</trkpt>
<trkpt lat="40.0728565" lon="-105.2305929">
  <ele>1593.42</ele>
  <time>2026-08-27T18:27:44Z</time>
  <course>9.79</course>
  <speed>0.20518284528683192</speed>
  <fix>3d</fix>
</trkpt>
<trkpt lat="40.0728564" lon="-105.2305925">
  <ele>1593.35</ele>
  <time>2026-08-27T18:27:44Z</time>
  <course>323.67</course>
  <speed>0.26</speed>
  <fix>3d</fix>
</trkpt>
<trkpt lat="40.0728567" lon="-105.2305931">
  <ele>1593.41</ele>
  <time>2026-08-27T18:27:44Z</time>
  <course>9.72</course>
  <speed>0.16278820596099705</speed>
  <fix>3d</fix>
</trkpt>
<trkpt lat="40.0728567" lon="-105.2305928">
  <ele>1593.27</ele>
  <time>2026-08-27T18:27:44Z</time>
  <course>326.07</course>
  <speed>0.22</speed>
  <fix>3d</fix>
</trkpt>
<trkpt lat="40.072857" lon="-105.2305933">
  <ele>1593.44</ele>
  <time>2026-08-27T18:27:44Z</time>
  <course>9.67</course>
  <speed>0.1345362404707371</speed>
  <fix>3d</fix>
</trkpt>
<trkpt lat="40.072857" lon="-105.2305931">
  <ele>1593.27</ele>
  <time>2026-08-27T18:27:44Z</time>
  <course>328.85</course>
  <speed>0.18</speed>
  <fix>3d</fix>
</trkpt>
<trkpt lat="40.0728572" lon="-105.2305935">
  <ele>1593.51</ele>
  <time>2026-08-27T18:27:44Z</time>
  <course>9.64</course>
  <speed>0.09219544457292887</speed>
  <fix>3d</fix>
</trkpt>
<trkpt lat="40.0728572" lon="-105.2305933">
  <ele>1593.32</ele>
  <time>2026-08-27T18:27:44Z</time>
  <course>332.14</course>
  <speed>0.14</speed>
  <fix>3d</fix>
</trkpt>
<trkpt lat="40.0728574" lon="-105.2305936">
  <ele>1593.61</ele>
  <time>2026-08-27T18:27:44Z</time>
  <course>9.62</course>
  <speed>0.05830951894845301</speed>
  <fix>3d</fix>
</trkpt>
<trkpt lat="40.0728575" lon="-105.2305934">
  <ele>1593.39</ele>
  <time>2026-08-27T18:27:44Z</time>
  <course>336.15</course>
  <speed>0.11</speed>
  <fix>3d</fix>
</trkpt>
<trkpt lat="40.0728575" lon="-105.2305936">
  <ele>1593.72</ele>
  <time>2026-08-27T18:27:44Z</time>
  <course>9.63</course>
  <speed>0.0412310562561766</speed>
  <fix>3d</fix>
</trkpt>
<trkpt lat="40.0728576" lon="-105.2305935">
  <ele>1593.49</ele>
  <time>2026-08-27T18:27:44Z</time>
  <course>341.57</course>
  <speed>0.08</speed>
  <fix>3d</fix>
</trkpt>
<trkpt lat="40.0728576" lon="-105.2305937">
  <ele>1593.85</ele>
  <time>2026-08-27T18:27:44Z</time>
  <course>9.65</course>
  <speed>0.02</speed>
  <fix>3d</fix>
</trkpt>
<trkpt lat="40.0728577" lon="-105.2305935">
  <ele>1593.61</ele>
  <time>2026-08-27T18:27:44Z</time>
  <course>350.12</course>
  <speed>0.05</speed>
  <fix>3d</fix>
</trkpt>
<trkpt lat="40.0728576" lon="-105.2305936">
  <ele>1593.99</ele>
  <time>2026-08-27T18:27:44Z</time>
  <course>9.69</course>
  <speed>0.022360679774997897</speed>
  <fix>3d</fix>
</trkpt>
<trkpt lat="40.0728578" lon="-105.2305935">
  <ele>1593.74</ele>
  <time>2026-08-27T18:27:44Z</time>
  <course>7.94</course>
  <speed>0.03</speed>
  <fix>3d</fix>
</trkpt>
<trkpt lat="40.0728576" lon="-105.2305936">
  <ele>1594.13</ele>
  <time>2026-08-27T18:27:44Z</time>
  <course>9.73</course>
  <speed>0.04</speed>
  <fix>3d</fix>
</trkpt>
<trkpt lat="40.0728578" lon="-105.2305935">
  <ele>1593.88</ele>
  <time>2026-08-27T18:27:44Z</time>
  <course>54.36</course>
  <speed>0.01</speed>
  <fix>3d</fix>
</trkpt>
<trkpt lat="40.0728576" lon="-105.2305936">
  <ele>1594.27</ele>
  <time>2026-08-27T18:27:44Z</time>
  <course>9.77</course>
  <speed>0.05</speed>
  <fix>3d</fix>
</trkpt>
<trkpt lat="40.0728578" lon="-105.2305935">
  <ele>1594.02</ele>
  <time>2026-08-27T18:27:44Z</time>
  <course>110.86</course>
  <speed>0.02</speed>
  <fix>3d</fix>
</trkpt>
<trkpt lat="40.0728576" lon="-105.2305936">
  <ele>1594.42</ele>
  <time>2026-08-27T18:27:45Z</time>
  <course>9.82</course>
  <speed>0.06</speed>
  <fix>3d</fix>
</trkpt>
<trkpt lat="40.0728578" lon="-105.2305935">
  <ele>1594.15</ele>
  <time>2026-08-27T18:27:45Z</time>
  <course>134.07</course>
  <speed>0.03</speed>
  <fix>3d</fix>
</trkpt>
<trkpt lat="40.0728576" lon="-105.2305935">
  <ele>1594.56</ele>
  <time>2026-08-27T18:27:45Z</time>
  <course>9.86</course>
  <speed>0.07071067811865475</speed>
  <fix>3d</fix>
</trkpt>
<trkpt lat="40.0728578" lon="-105.2305935">
  <ele>1594.3</ele>
  <time>2026-08-27T18:27:45Z</time>
  <course>144.57</course>
  <speed>0.04</speed>
  <fix>3d</fix>
</trkpt>
<trkpt lat="40.0728575" lon="-105.2305934">
  <ele>1594.7</ele>
  <time>2026-08-27T18:27:45Z</time>
  <course>9.9</course>
  <speed>0.09219544457292887</speed>
  <fix>3d</fix>
</trkpt>
<trkpt lat="40.0728578" lon="-105.2305934">
  <ele>1594.45</ele>
  <time>2026-08-27T18:27:45Z</time>
  <course>149.78</course>
  <speed>0.05</speed>
  <fix>3d</fix>
</trkpt>
<trkpt lat="40.0728573" lon="-105.2305933">
  <ele>1594.83</ele>
  <time>2026-08-27T18:27:45Z</time>
  <course>9.93</course>
  <speed>0.1341640786499874</speed>
  <fix>3d</fix>
</trkpt>
<trkpt lat="40.0728577" lon="-105.2305933">
  <ele>1594.58</ele>
  <time>2026-08-27T18:27:45Z</time>
  <course>148.62</course>
  <speed>0.08</speed>
  <fix>3d</fix>
</trkpt>
<trkpt lat="40.0728571" lon="-105.2305931">
  <ele>1594.95</ele>
  <time>2026-08-27T18:27:45Z</time>
  <course>9.95</course>
  <speed>0.2109502310972899</speed>
  <fix>3d</fix>
</trkpt>
<trkpt lat="40.0728576" lon="-105.2305931">
  <ele>1594.71</ele>
  <time>2026-08-27T18:27:45Z</time>
  <course>143.48</course>
  <speed>0.13</speed>
  <fix>3d</fix>
</trkpt>
<trkpt lat="40.0728568" lon="-105.2305927">
  <ele>1595.05</ele>
  <time>2026-08-27T18:27:45Z</time>
  <course>9.96</course>
  <speed>0.31400636936215165</speed>
  <fix>3d</fix>
</trkpt>
<trkpt lat="40.0728573" lon="-105.2305929">
  <ele>1594.83</ele>
  <time>2026-08-27T18:27:45Z</time>
  <course>138.95</course>
  <speed>0.2</speed>
  <fix>3d</fix>
</trkpt>
<trkpt lat="40.0728563" lon="-105.2305921">
  <ele>1595.11</ele>
  <time>2026-08-27T18:27:45Z</time>
  <course>9.91</course>
  <speed>0.4482186966202994</speed>
  <fix>3d</fix>
</trkpt>
<trkpt lat="40.072857" lon="-105.2305925">
  <ele>1594.92</ele>
  <time>2026-08-27T18:27:45Z</time>
  <course>136.01</course>
  <speed>0.31</speed>
  <fix>3d</fix>
</trkpt>
<trkpt lat="40.0728557" lon="-105.2305913">
  <ele>1595.16</ele>
  <time>2026-08-27T18:27:45Z</time>
  <course>9.77</course>
  <speed>0.5889821729050889</speed>
  <fix>3d</fix>
</trkpt>
<trkpt lat="40.0728565" lon="-105.2305919">
  <ele>1594.99</ele>
  <time>2026-08-27T18:27:45Z</time>
  <course>134.4</course>
  <speed>0.44</speed>
  <fix>3d</fix>
</trkpt>
<trkpt lat="40.0728548" lon="-105.2305902">
  <ele>1595.18</ele>
  <time>2026-08-27T18:27:45Z</time>
  <course>9.58</course>
  <speed>0.73</speed>
  <fix>3d</fix>
</trkpt>
<trkpt lat="40.0728558" lon="-105.2305911">
  <ele>1595.03</ele>
  <time>2026-08-27T18:27:45Z</time>
  <course>133.65</course>
  <speed>0.58</speed>
  <fix>3d</fix>
</trkpt>
<trkpt lat="40.0728539" lon="-105.2305889">
  <ele>1595.17</ele>
  <time>2026-08-27T18:27:45Z</time>
  <course>9.36</course>
  <speed>0.8429116205154606</speed>
  <fix>3d</fix>
</trkpt>
<trkpt lat="40.072855" lon="-105.2305899">
  <ele>1595.05</ele>
  <time>2026-08-27T18:27:45Z</time>
  <course>133.47</course>
  <speed>0.72</speed>
  <fix>3d</fix>
</trkpt>
<trkpt lat="40.0728528" lon="-105.2305875">
  <ele>1595.16</ele>
  <time>2026-08-27T18:27:45Z</time>
  <course>9.21</course>
  <speed>0.9209777413162601</speed>
  <fix>3d</fix>
</trkpt>
<trkpt lat="40.0728541" lon="-105.2305885">
  <ele>1595.06</ele>
  <time>2026-08-27T18:27:45Z</time>
  <course>133.73</course>
  <speed>0.83</speed>
  <fix>3d</fix>
</trkpt>
<trkpt lat="40.0728516" lon="-105.2305859">
  <ele>1595.16</ele>
  <time>2026-08-27T18:27:45Z</time>
  <course>9.2</course>
  <speed>0.9633275663033837</speed>
  <fix>3d</fix>
</trkpt>
<trkpt lat="40.0728529" lon="-105.2305871">
  <ele>1595.05</ele>
  <time>2026-08-27T18:27:45Z</time>
  <course>134.33</course>
  <speed>0.91</speed>
  <fix>3d</fix>
</trkpt>
<trkpt lat="40.0728504" lon="-105.2305843">
  <ele>1595.15</ele>
  <time>2026-08-27T18:27:45Z</time>
  <course>9.32</course>
  <speed>0.97082439194738</speed>
  <fix>3d</fix>
</trkpt>
<trkpt lat="40.0728517" lon="-105.2305855">
  <ele>1595.04</ele>
  <time>2026-08-27T18:27:45Z</time>
  <course>135.18</course>
  <speed>0.95</speed>
  <fix>3d</fix>
</trkpt>
<trkpt lat="40.0728492" lon="-105.2305828">
  <ele>1595.14</ele>
  <time>2026-08-27T18:27:45Z</time>
  <course>9.5</course>
  <speed>0.9501578816175763</speed>
  <fix>3d</fix>
</trkpt>
<trkpt lat="40.0728505" lon="-105.2305839">
  <ele>1595.03</ele>
  <time>2026-08-27T18:27:45Z</time>
  <course>136.2</course>
  <speed>0.96</speed>
  <fix>3d</fix>
</trkpt>
<trkpt lat="40.072848" lon="-105.2305813">
  <ele>1595.14</ele>
  <time>2026-08-27T18:27:45Z</time>
  <course>9.69</course>
  <speed>0.9360555539069249</speed>
  <fix>3d</fix>
</trkpt>
<trkpt lat="40.0728493" lon="-105.2305824">
  <ele>1595.03</ele>
  <time>2026-08-27T18:27:45Z</time>
  <course>137.28</course>
  <speed>0.94</speed>
  <fix>3d</fix>
</trkpt>
<trkpt lat="40.0728468" lon="-105.2305798">
  <ele>1595.15</ele>
  <time>2026-08-27T18:27:45Z</time>
  <course>9.85</course>
  <speed>0.9013878188659973</speed>
  <fix>3d</fix>
</trkpt>
<trkpt lat="40.0728481" lon="-105.230581">
  <ele>1595.03</ele>
  <time>2026-08-27T18:27:45Z</time>
  <course>138.31</course>
  <speed>0.92</speed>
  <fix>3d</fix>
</trkpt>
<trkpt lat="40.0728456" lon="-105.2305785">
  <ele>1595.15</ele>
  <time>2026-08-27T18:27:45Z</time>
  <course>9.97</course>
  <speed>0.8450443775329198</speed>
  <fix>3d</fix>
</trkpt>
<trkpt lat="40.0728468" lon="-105.2305796">
  <ele>1595.03</ele>
  <time>2026-08-27T18:27:45Z</time>
  <course>139.35</course>
  <speed>0.89</speed>
  <fix>3d</fix>
</trkpt>
<trkpt lat="40.0728445" lon="-105.2305772">
  <ele>1595.15</ele>
  <time>2026-08-27T18:27:45Z</time>
  <course>10.04</course>
  <speed>0.7465252842335616</speed>
  <fix>3d</fix>
</trkpt>
<trkpt lat="40.0728456" lon="-105.2305782">
  <ele>1595.04</ele>
  <time>2026-08-27T18:27:45Z</time>
  <course>140.67</course>
  <speed>0.83</speed>
  <fix>3d</fix>
</trkpt>
<trkpt lat="40.0728436" lon="-105.2305762">
  <ele>1595.15</ele>
  <time>2026-08-27T18:27:45Z</time>
  <course>10.06</course>
  <speed>0.6140032573203501</speed>
  <fix>3d</fix>
</trkpt>
<trkpt lat="40.0728445" lon="-105.2305771">
  <ele>1595.04</ele>
  <time>2026-08-27T18:27:45Z</time>
  <course>142.61</course>
  <speed>0.73</speed>
  <fix>3d</fix>
</trkpt>
<trkpt lat="40.0728428" lon="-105.2305755">
  <ele>1595.15</ele>
  <time>2026-08-27T18:27:45Z</time>
  <course>10.02</course>
  <speed>0.4661544808322666</speed>
  <fix>3d</fix>
</trkpt>
<trkpt lat="40.0728435" lon="-105.2305762">
  <ele>1595.05</ele>
  <time>2026-08-27T18:27:45Z</time>
  <course>145.62</course>
  <speed>0.6</speed>
  <fix>3d</fix>
</trkpt>
<trkpt lat="40.0728422" lon="-105.230575">
  <ele>1595.16</ele>
  <time>2026-08-27T18:27:45Z</time>
  <course>9.89</course>
  <speed>0.30528675044947495</speed>
  <fix>3d</fix>
</trkpt>
<trkpt lat="40.0728427" lon="-105.2305755">
  <ele>1595.05</ele>
  <time>2026-08-27T18:27:45Z</time>
  <course>150.68</course>
  <speed>0.45</speed>
  <fix>3d</fix>
</trkpt>
<trkpt lat="40.0728418" lon="-105.2305748">
  <ele>1595.16</ele>
  <time>2026-08-27T18:27:45Z</time>
  <course>9.7</course>
  <speed>0.1615549442140351</speed>
  <fix>3d</fix>
</trkpt>
<trkpt lat="40.0728421" lon="-105.2305751">
  <ele>1595.06</ele>
  <time>2026-08-27T18:27:45Z</time>
  <course>160.1</course>
  <speed>0.31</speed>
  <fix>3d</fix>
</trkpt>
<trkpt lat="40.0728416" lon="-105.2305749">
  <ele>1595.16</ele>
  <time>2026-08-27T18:27:45Z</time>
  <course>9.5</course>
  <speed>0.07</speed>
  <fix>3d</fix>
</trkpt>
<trkpt lat="40.0728417" lon="-105.230575">
  <ele>1595.06</ele>
  <time>2026-08-27T18:27:45Z</time>
  <course>179.53</course>
  <speed>0.18</speed>
  <fix>3d</fix>
</trkpt>
<trkpt lat="40.0728415" lon="-105.230575">
  <ele>1595.16</ele>
  <time>2026-08-27T18:27:45Z</time>
  <course>9.39</course>
  <speed>0.05099019513592785</speed>
  <fix>3d</fix>
</trkpt>
<trkpt lat="40.0728414" lon="-105.2305751">
  <ele>1595.06</ele>
  <time>2026-08-27T18:27:45Z</time>
  <course>215.28</course>
  <speed>0.12</speed>
  <fix>3d</fix>
</trkpt>
<trkpt lat="40.0728414" lon="-105.2305752">
  <ele>1595.16</ele>
  <time>2026-08-27T18:27:45Z</time>
  <course>9.39</course>
  <speed>0.06082762530298219</speed>
  <fix>3d</fix>
</trkpt>
<trkpt lat="40.0728413" lon="-105.2305753">
  <ele>1595.06</ele>
  <time>2026-08-27T18:27:45Z</time>
  <course>249.23</course>
  <speed>0.12</speed>
  <fix>3d</fix>
</trkpt>
<trkpt lat="40.0728414" lon="-105.2305754">
  <ele>1595.16</ele>
  <time>2026-08-27T18:27:45Z</time>
  <course>9.47</course>
  <speed>0.0412310562561766</speed>
  <fix>3d</fix>
</trkpt>
<trkpt lat="40.0728413" lon="-105.2305755">
  <ele>1595.07</ele>
  <time>2026-08-27T18:27:45Z</time>
  <course>266.57</course>
  <speed>0.12</speed>
  <fix>3d</fix>
</trkpt>
<trkpt lat="40.0728414" lon="-105.2305756">
  <ele>1595.16</ele>
  <time>2026-08-27T18:27:45Z</time>
  <course>10.17</course>
  <speed>0.022360679774997897</speed>
  <fix>3d</fix>
</trkpt>
<trkpt lat="40.0728413" lon="-105.2305758">
  <ele>1595.07</ele>
  <time>2026-08-27T18:27:45Z</time>
  <course>274.65</course>
  <speed>0.1</speed>
  <fix>3d</fix>
</trkpt>
<trkpt lat="40.0728414" lon="-105.2305758">
  <ele>1595.16</ele>
  <time>2026-08-27T18:27:45Z</time>
  <course>10.91</course>
  <speed>0.01</speed>
  <fix>3d</fix>
</trkpt>
<trkpt lat="40.0728413" lon="-105.2305759">
  <ele>1595.07</ele>
  <time>2026-08-27T18:27:45Z</time>
  <course>280.85</course>
  <speed>0.08</speed>
  <fix>3d</fix>
</trkpt>
<trkpt lat="40.0728413" lon="-105.2305759">
  <ele>1595.16</ele>
  <time>2026-08-27T18:27:45Z</time>
  <course>11.36</course>
  <speed>0.01414213562373095</speed>
  <fix>3d</fix>
</trkpt>
<trkpt lat="40.0728413" lon="-105.2305762">
  <ele>1595.07</ele>
  <time>2026-08-27T18:27:45Z</time>
  <course>289.77</course>
  <speed>0.06</speed>
  <fix>3d</fix>
</trkpt>
<trkpt lat="40.0728413" lon="-105.230576">
  <ele>1595.17</ele>
  <time>2026-08-27T18:27:45Z</time>
  <course>11.53</course>
  <speed>0.022360679774997897</speed>
  <fix>3d</fix>
</trkpt>
<trkpt lat="40.0728413" lon="-105.2305763">
  <ele>1595.07</ele>
  <time>2026-08-27T18:27:45Z</time>
  <course>306.55</course>
  <speed>0.04</speed>
  <fix>3d</fix>
</trkpt>
<trkpt lat="40.0728413" lon="-105.230576">
  <ele>1595.17</ele>
  <time>2026-08-27T18:27:45Z</time>
  <course>11.54</course>
  <speed>0.0412310562561766</speed>
  <fix>3d</fix>
</trkpt>
<trkpt lat="40.0728413" lon="-105.2305763">
  <ele>1595.07</ele>
  <time>2026-08-27T18:27:45Z</time>
  <course>336.38</course>
  <speed>0.03</speed>
  <fix>3d</fix>
</trkpt>
<trkpt lat="40.0728414" lon="-105.230576">
  <ele>1595.18</ele>
  <time>2026-08-27T18:27:45Z</time>
  <course>11.48</course>
  <speed>0.05099019513592785</speed>
  <fix>3d</fix>
</trkpt>
<trkpt lat="40.0728414" lon="-105.2305763">
  <ele>1595.07</ele>
  <time>2026-08-27T18:27:45Z</time>
  <course>10.31</course>
  <speed>0.03</speed>
  <fix>3d</fix>
</trkpt>
<trkpt lat="40.0728414" lon="-105.2305759">
  <ele>1595.17</ele>
  <time>2026-08-27T18:27:45Z</time>
  <course>11.42</course>
  <speed>0.06082762530298219</speed>
  <fix>3d</fix>
</trkpt>
<trkpt lat="40.0728414" lon="-105.2305763">
  <ele>1595.07</ele>
  <time>2026-08-27T18:27:45Z</time>
  <course>31.22</course>
  <speed>0.04</speed>
  <fix>3d</fix>
</trkpt>
<trkpt lat="40.0728415" lon="-105.2305759">
  <ele>1595.17</ele>
  <time>2026-08-27T18:27:45Z</time>
  <course>11.38</course>
  <speed>0.07071067811865475</speed>
  <fix>3d</fix>
</trkpt>
<trkpt lat="40.0728415" lon="-105.2305763">
  <ele>1595.06</ele>
  <time>2026-08-27T18:27:45Z</time>
  <course>41.56</course>
  <speed>0.05</speed>
  <fix>3d</fix>
</trkpt>
<trkpt lat="40.0728415" lon="-105.2305758">
  <ele>1595.16</ele>
  <time>2026-08-27T18:27:45Z</time>
  <course>11.37</course>
  <speed>0.08062257748298549</speed>
  <fix>3d</fix>
</trkpt>
<trkpt lat="40.0728415" lon="-105.2305762">
  <ele>1595.06</ele>
  <time>2026-08-27T18:27:45Z</time>
  <course>47.2</course>
  <speed>0.06</speed>
  <fix>3d</fix>
</trkpt>
<trkpt lat="40.0728416" lon="-105.2305757">
  <ele>1595.16</ele>
  <time>2026-08-27T18:27:45Z</time>
  <course>11.35</course>
  <speed>0.08062257748298549</speed>
  <fix>3d</fix>
</trkpt>
<trkpt lat="40.0728416" lon="-105.2305761">
  <ele>1595.06</ele>
  <time>2026-08-27T18:27:45Z</time>
  <course>50.49</course>
  <speed>0.06</speed>
  <fix>3d</fix>
</trkpt>
<trkpt lat="40.0728416" lon="-105.2305756">
  <ele>1595.15</ele>
  <time>2026-08-27T18:27:45Z</time>
  <course>11.35</course>
  <speed>0.08062257748298549</speed>
  <fix>3d</fix>
</trkpt>
<trkpt lat="40.0728417" lon="-105.230576">
  <ele>1595.06</ele>
  <time>2026-08-27T18:27:45Z</time>
  <course>52.41</course>
  <speed>0.07</speed>
  <fix>3d</fix>
</trkpt>
<trkpt lat="40.0728417" lon="-105.2305755">
  <ele>1595.15</ele>
  <time>2026-08-27T18:27:45Z</time>
  <course>11.35</course>
  <speed>0.08062257748298549</speed>
  <fix>3d</fix>
</trkpt>
<trkpt lat="40.0728418" lon="-105.2305758">
  <ele>1595.06</ele>
  <time>2026-08-27T18:27:45Z</time>
  <course>53.64</course>
  <speed>0.07</speed>
  <fix>3d</fix>
</trkpt>
<trkpt lat="40.0728418" lon="-105.2305753">
  <ele>1595.14</ele>
  <time>2026-08-27T18:27:45Z</time>
  <course>11.36</course>
  <speed>0.08062257748298549</speed>
  <fix>3d</fix>
</trkpt>
<trkpt lat="40.0728419" lon="-105.2305757">
  <ele>1595.06</ele>
  <time>2026-08-27T18:27:45Z</time>
  <course>54.41</course>
  <speed>0.07</speed>
  <fix>3d</fix>
</trkpt>
<trkpt lat="40.0728418" lon="-105.2305752">
  <ele>1595.15</ele>
  <time>2026-08-27T18:27:45Z</time>
  <course>11.37</course>
  <speed>0.07071067811865475</speed>
  <fix>3d</fix>
</trkpt>
<trkpt lat="40.072842" lon="-105.2305756">
  <ele>1595.06</ele>
  <time>2026-08-27T18:27:45Z</time>
  <course>54.72</course>
  <speed>0.07</speed>
  <fix>3d</fix>
</trkpt>
<trkpt lat="40.0728419" lon="-105.2305751">
  <ele>1595.15</ele>
  <time>2026-08-27T18:27:45Z</time>
  <course>11.39</course>
  <speed>0.07</speed>
  <fix>3d</fix>
</trkpt>
<trkpt lat="40.072842" lon="-105.2305754">
  <ele>1595.06</ele>
  <time>2026-08-27T18:27:45Z</time>
  <course>54.95</course>
  <speed>0.07</speed>
  <fix>3d</fix>
</trkpt>
<trkpt lat="40.072842" lon="-105.230575">
  <ele>1595.16</ele>
  <time>2026-08-27T18:27:45Z</time>
  <course>11.42</course>
  <speed>0.06</speed>
  <fix>3d</fix>
</trkpt>
<trkpt lat="40.0728421" lon="-105.2305753">
  <ele>1595.06</ele>
  <time>2026-08-27T18:27:45Z</time>
  <course>55.3</course>
  <speed>0.06</speed>
  <fix>3d</fix>
</trkpt>
<trkpt lat="40.072842" lon="-105.2305749">
  <ele>1595.15</ele>
  <time>2026-08-27T18:27:45Z</time>
  <course>11.44</course>
  <speed>0.05</speed>
  <fix>3d</fix>
</trkpt>
<trkpt lat="40.0728421" lon="-105.2305752">
  <ele>1595.07</ele>
  <time>2026-08-27T18:27:45Z</time>
  <course>55.49</course>
  <speed>0.06</speed>
  <fix>3d</fix>
</trkpt>
<trkpt lat="40.0728421" lon="-105.2305748">
  <ele>1595.15</ele>
  <time>2026-08-27T18:27:45Z</time>
  <course>11.45</course>
  <speed>0.05</speed>
  <fix>3d</fix>
</trkpt>
<trkpt lat="40.0728422" lon="-105.230575">
  <ele>1595.07</ele>
  <time>2026-08-27T18:27:45Z</time>
  <course>55.39</course>
  <speed>0.05</speed>
  <fix>3d</fix>
</trkpt>
<trkpt lat="40.0728421" lon="-105.2305748">
  <ele>1595.15</ele>
  <time>2026-08-27T18:27:45Z</time>
  <course>11.45</course>
  <speed>0.04</speed>
  <fix>3d</fix>
</trkpt>
<trkpt lat="40.0728423" lon="-105.2305749">
  <ele>1595.07</ele>
  <time>2026-08-27T18:27:45Z</time>
  <course>55.1</course>
  <speed>0.04</speed>
  <fix>3d</fix>
</trkpt>
<trkpt lat="40.0728421" lon="-105.2305747">
  <ele>1595.15</ele>
  <time>2026-08-27T18:27:45Z</time>
  <course>11.45</course>
  <speed>0.03</speed>
  <fix>3d</fix>
</trkpt>
<trkpt lat="40.0728423" lon="-105.2305748">
  <ele>1595.07</ele>
  <time>2026-08-27T18:27:45Z</time>
  <course>54.54</course>
  <speed>0.03</speed>
  <fix>3d</fix>
</trkpt>
<trkpt lat="40.0728422" lon="-105.2305746">
  <ele>1595.15</ele>
  <time>2026-08-27T18:27:45Z</time>
  <course>11.45</course>
  <speed>0.022360679774997897</speed>
  <fix>3d</fix>
</trkpt>
<trkpt lat="40.0728424" lon="-105.2305748">
  <ele>1595.07</ele>
  <time>2026-08-27T18:27:45Z</time>
  <course>53.09</course>
  <speed>0.02</speed>
  <fix>3d</fix>
</trkpt>
<trkpt lat="40.0728422" lon="-105.2305746">
  <ele>1595.15</ele>
  <time>2026-08-27T18:27:45Z</time>
  <course>11.44</course>
  <speed>0.022360679774997897</speed>
  <fix>3d</fix>
</trkpt>
<trkpt lat="40.0728424" lon="-105.2305748">
  <ele>1595.07</ele>
  <time>2026-08-27T18:27:45Z</time>
  <course>49.71</course>
  <speed>0.02</speed>
  <fix>3d</fix>
</trkpt>
<trkpt lat="40.0728422" lon="-105.2305746">
  <ele>1595.15</ele>
  <time>2026-08-27T18:27:45Z</time>
  <course>11.44</course>
  <speed>0.01414213562373095</speed>
  <fix>3d</fix>
</trkpt>
<trkpt lat="40.0728424" lon="-105.2305748">
  <ele>1595.07</ele>
  <time>2026-08-27T18:27:45Z</time>
  <course>42.28</course>
  <speed>0.01</speed>
  <fix>3d</fix>
</trkpt>
<trkpt lat="40.0728422" lon="-105.2305746">
  <ele>1595.15</ele>
  <time>2026-08-27T18:27:45Z</time>
  <course>11.44</course>
  <speed>0.02</speed>
  <fix>3d</fix>
</trkpt>
<trkpt lat="40.0728425" lon="-105.2305748">
  <ele>1595.07</ele>
  <time>2026-08-27T18:27:45Z</time>
  <course>21.6</course>
  <speed>0.0</speed>
  <fix>3d</fix>
</trkpt>
<trkpt lat="40.0728422" lon="-105.2305746">
  <ele>1595.15</ele>
  <time>2026-08-27T18:27:45Z</time>
  <course>11.45</course>
  <speed>0.02</speed>
  <fix>3d</fix>
</trkpt>
<trkpt lat="40.0728425" lon="-105.2305748">
  <ele>1595.08</ele>
  <time>2026-08-27T18:27:45Z</time>
  <course>305.66</course>
  <speed>0.0</speed>
  <fix>3d</fix>
</trkpt>
<trkpt lat="40.0728422" lon="-105.2305746">
  <ele>1595.15</ele>
  <time>2026-08-27T18:27:45Z</time>
  <course>11.45</course>
  <speed>0.02</speed>
  <fix>3d</fix>
</trkpt>
<trkpt lat="40.0728425" lon="-105.2305748">
  <ele>1595.08</ele>
  <time>2026-08-27T18:27:45Z</time>
  <course>265.26</course>
  <speed>0.0</speed>
  <fix>3d</fix>
</trkpt>
<trkpt lat="40.0728422" lon="-105.2305746">
  <ele>1595.11</ele>
  <time>2026-08-27T18:27:45Z</time>
  <course>11.45</course>
  <speed>0.02</speed>
  <fix>3d</fix>
</trkpt>
<trkpt lat="40.0728425" lon="-105.2305748">
  <ele>1595.07</ele>
  <time>2026-08-27T18:27:45Z</time>
  <course>254.6</course>
  <speed>0.01</speed>
  <fix>3d</fix>
</trkpt>
<trkpt lat="40.0728422" lon="-105.2305747">
  <ele>1595.04</ele>
  <time>2026-08-27T18:27:45Z</time>
  <course>11.45</course>
  <speed>0.02</speed>
  <fix>3d</fix>
</trkpt>
<trkpt lat="40.0728425" lon="-105.2305748">
  <ele>1595.03</ele>
  <time>2026-08-27T18:27:45Z</time>
  <course>249.45</course>
  <speed>0.01</speed>
  <fix>3d</fix>
</trkpt>
<trkpt lat="40.0728422" lon="-105.2305747">
  <ele>1594.95</ele>
  <time>2026-08-27T18:27:45Z</time>
  <course>11.45</course>
  <speed>0.03</speed>
  <fix>3d</fix>
</trkpt>
<trkpt lat="40.0728425" lon="-105.2305748">
  <ele>1594.96</ele>
  <time>2026-08-27T18:27:45Z</time>
  <course>245.79</course>
  <speed>0.01</speed>
  <fix>3d</fix>
</trkpt>
<trkpt lat="40.0728422" lon="-105.2305748">
  <ele>1594.84</ele>
  <time>2026-08-27T18:27:45Z</time>
  <course>11.45</course>
  <speed>0.0316227766016838</speed>
  <fix>3d</fix>
</trkpt>
<trkpt lat="40.0728425" lon="-105.2305748">
  <ele>1594.86</ele>
  <time>2026-08-27T18:27:45Z</time>
  <course>243.19</course>
  <speed>0.02</speed>
  <fix>3d</fix>
</trkpt>
<trkpt lat="40.0728422" lon="-105.2305748">
  <ele>1594.73</ele>
  <time>2026-08-27T18:27:45Z</time>
  <course>11.45</course>
  <speed>0.0316227766016838</speed>
  <fix>3d</fix>
</trkpt>
<trkpt lat="40.0728425" lon="-105.2305748">
  <ele>1594.75</ele>
  <time>2026-08-27T18:27:45Z</time>
  <course>241.73</course>
  <speed>0.02</speed>
  <fix>3d</fix>
</trkpt>
<trkpt lat="40.0728422" lon="-105.2305748">
  <ele>1594.63</ele>
  <time>2026-08-27T18:27:45Z</time>
  <course>11.44</course>
  <speed>0.0316227766016838</speed>
  <fix>3d</fix>
</trkpt>
<trkpt lat="40.0728425" lon="-105.2305748">
  <ele>1594.64</ele>
  <time>2026-08-27T18:27:45Z</time>
  <course>240.98</course>
  <speed>0.02</speed>
  <fix>3d</fix>
</trkpt>
<trkpt lat="40.0728422" lon="-105.2305749">
  <ele>1594.52</ele>
  <time>2026-08-27T18:27:45Z</time>
  <course>11.44</course>
  <speed>0.0316227766016838</speed>
  <fix>3d</fix>
</trkpt>
<trkpt lat="40.0728425" lon="-105.2305749">
  <ele>1594.54</ele>
  <time>2026-08-27T18:27:45Z</time>
  <course>240.45</course>
  <speed>0.02</speed>
  <fix>3d</fix>
</trkpt>
<trkpt lat="40.0728422" lon="-105.2305749">
  <ele>1594.42</ele>
  <time>2026-08-27T18:27:45Z</time>
  <course>11.44</course>
  <speed>0.0316227766016838</speed>
  <fix>3d</fix>
</trkpt>
<trkpt lat="40.0728424" lon="-105.230575">
  <ele>1594.44</ele>
  <time>2026-08-27T18:27:45Z</time>
  <course>240.23</course>
  <speed>0.02</speed>
  <fix>3d</fix>
</trkpt>
<trkpt lat="40.0728422" lon="-105.230575">
  <ele>1594.32</ele>
  <time>2026-08-27T18:27:45Z</time>
  <course>11.44</course>
  <speed>0.03</speed>
  <fix>3d</fix>
</trkpt>
<trkpt lat="40.0728424" lon="-105.230575">
  <ele>1594.34</ele>
  <time>2026-08-27T18:27:45Z</time>
  <course>240.22</course>
  <speed>0.02</speed>
  <fix>3d</fix>
</trkpt>
<trkpt lat="40.0728422" lon="-105.230575">
  <ele>1594.22</ele>
  <time>2026-08-27T18:27:45Z</time>
  <course>11.44</course>
  <speed>0.03</speed>
  <fix>3d</fix>
</trkpt>
<trkpt lat="40.0728424" lon="-105.2305751">
  <ele>1594.24</ele>
  <time>2026-08-27T18:27:45Z</time>
  <course>240.29</course>
  <speed>0.02</speed>
  <fix>3d</fix>
</trkpt>
<trkpt lat="40.0728422" lon="-105.230575">
  <ele>1594.12</ele>
  <time>2026-08-27T18:27:45Z</time>
  <course>11.45</course>
  <speed>0.03</speed>
  <fix>3d</fix>
</trkpt>
<trkpt lat="40.0728424" lon="-105.2305751">
  <ele>1594.13</ele>
  <time>2026-08-27T18:27:45Z</time>
  <course>240.58</course>
  <speed>0.02</speed>
  <fix>3d</fix>
</trkpt>
<trkpt lat="40.0728422" lon="-105.2305751">
  <ele>1594.02</ele>
  <time>2026-08-27T18:27:45Z</time>
  <course>11.45</course>
  <speed>0.03</speed>
  <fix>3d</fix>
</trkpt>
<trkpt lat="40.0728423" lon="-105.2305752">
  <ele>1594.04</ele>
  <time>2026-08-27T18:27:45Z</time>
  <course>240.98</course>
  <speed>0.02</speed>
  <fix>3d</fix>
</trkpt>
<trkpt lat="40.0728422" lon="-105.2305751">
  <ele>1593.92</ele>
  <time>2026-08-27T18:27:45Z</time>
  <course>11.45</course>
  <speed>0.02</speed>
  <fix>3d</fix>
</trkpt>
<trkpt lat="40.0728423" lon="-105.2305753">
  <ele>1593.94</ele>
  <time>2026-08-27T18:27:45Z</time>
  <course>241.37</course>
  <speed>0.02</speed>
  <fix>3d</fix>
</trkpt>
<trkpt lat="40.0728422" lon="-105.2305751">
  <ele>1593.82</ele>
  <time>2026-08-27T18:27:45Z</time>
  <course>11.45</course>
  <speed>0.02</speed>
  <fix>3d</fix>
</trkpt>
<trkpt lat="40.0728423" lon="-105.2305753">
  <ele>1593.84</ele>
  <time>2026-08-27T18:27:45Z</time>
  <course>242.25</course>
  <speed>0.02</speed>
  <fix>3d</fix>
</trkpt>
<trkpt lat="40.0728422" lon="-105.2305752">
  <ele>1593.72</ele>
  <time>2026-08-27T18:27:45Z</time>
  <course>11.45</course>
  <speed>0.02</speed>
  <fix>3d</fix>
</trkpt>
<trkpt lat="40.0728423" lon="-105.2305753">
  <ele>1593.74</ele>
  <time>2026-08-27T18:27:45Z</time>
  <course>243.48</course>
  <speed>0.01</speed>
  <fix>3d</fix>
</trkpt>
<trkpt lat="40.0728422" lon="-105.2305752">
  <ele>1593.62</ele>
  <time>2026-08-27T18:27:45Z</time>
  <course>11.45</course>
  <speed>0.02</speed>
  <fix>3d</fix>
</trkpt>
<trkpt lat="40.0728423" lon="-105.2305753">
  <ele>1593.63</ele>
  <time>2026-08-27T18:27:45Z</time>
  <course>247.01</course>
  <speed>0.01</speed>
  <fix>3d</fix>
</trkpt>
<trkpt lat="40.0728422" lon="-105.2305752">
  <ele>1593.53</ele>
  <time>2026-08-27T18:27:45Z</time>
  <course>11.44</course>
  <speed>0.02</speed>
  <fix>3d</fix>
</trkpt>
<trkpt lat="40.0728423" lon="-105.2305754">
  <ele>1593.54</ele>
  <time>2026-08-27T18:27:45Z</time>
  <course>251.71</course>
  <speed>0.01</speed>
  <fix>3d</fix>
</trkpt>
<trkpt lat="40.0728422" lon="-105.2305752">
  <ele>1593.42</ele>
  <time>2026-08-27T18:27:45Z</time>
  <course>11.43</course>
  <speed>0.02</speed>
  <fix>3d</fix>
</trkpt>
<trkpt lat="40.0728423" lon="-105.2305755">
  <ele>1593.44</ele>
  <time>2026-08-27T18:27:45Z</time>
  <course>253.73</course>
  <speed>0.01</speed>
  <fix>3d</fix>
</trkpt>
<trkpt lat="40.0728422" lon="-105.2305753">
  <ele>1593.32</ele>
  <time>2026-08-27T18:27:45Z</time>
  <course>11.43</course>
  <speed>0.022360679774997897</speed>
  <fix>3d</fix>
</trkpt>
<trkpt lat="40.0728423" lon="-105.2305755">
  <ele>1593.34</ele>
  <time>2026-08-27T18:27:45Z</time>
  <course>255.46</course>
  <speed>0.0</speed>
  <fix>3d</fix>
</trkpt>
<trkpt lat="40.0728422" lon="-105.2305753">
  <ele>1593.22</ele>
  <time>2026-08-27T18:27:45Z</time>
  <course>11.42</course>
  <speed>0.01414213562373095</speed>
  <fix>3d</fix>
</trkpt>
<trkpt lat="40.0728422" lon="-105.2305755">
  <ele>1593.24</ele>
  <time>2026-08-27T18:27:45Z</time>
  <course>254.16</course>
  <speed>0.0</speed>
  <fix>3d</fix>
</trkpt>
<trkpt lat="40.0728422" lon="-105.2305753">
  <ele>1593.12</ele>
  <time>2026-08-27T18:27:45Z</time>
  <course>11.43</course>
  <speed>0.01414213562373095</speed>
  <fix>3d</fix>
</trkpt>
<trkpt lat="40.0728421" lon="-105.2305755">
  <ele>1593.13</ele>
  <time>2026-08-27T18:27:45Z</time>
  <course>255.93</course>
  <speed>0.0</speed>
  <fix>3d</fix>
</trkpt>
<trkpt lat="40.0728421" lon="-105.2305753">
  <ele>1593.02</ele>
  <time>2026-08-27T18:27:45Z</time>
  <course>11.43</course>
  <speed>0.01414213562373095</speed>
  <fix>3d</fix>
</trkpt>
<trkpt lat="40.0728421" lon="-105.2305755">
  <ele>1593.04</ele>
  <time>2026-08-27T18:27:45Z</time>
  <course>331.73</course>
  <speed>0.0</speed>
  <fix>3d</fix>
</trkpt>
<trkpt lat="40.0728421" lon="-105.2305753">
  <ele>1592.91</ele>
  <time>2026-08-27T18:27:45Z</time>
  <course>11.43</course>
  <speed>0.022360679774997897</speed>
  <fix>3d</fix>
</trkpt>
<trkpt lat="40.0728422" lon="-105.2305755">
  <ele>1592.94</ele>
  <time>2026-08-27T18:27:45Z</time>
  <course>34.66</course>
  <speed>0.0</speed>
  <fix>3d</fix>
</trkpt>
<trkpt lat="40.0728421" lon="-105.2305753">
  <ele>1592.81</ele>
  <time>2026-08-27T18:27:45Z</time>
  <course>11.43</course>
  <speed>0.022360679774997897</speed>
  <fix>3d</fix>
</trkpt>
<trkpt lat="40.0728423" lon="-105.2305755">
  <ele>1592.84</ele>
  <time>2026-08-27T18:27:45Z</time>
  <course>38.6</course>
  <speed>0.0</speed>
  <fix>3d</fix>
</trkpt>
<trkpt lat="40.0728421" lon="-105.2305753">
  <ele>1592.71</ele>
  <time>2026-08-27T18:27:45Z</time>
  <course>11.43</course>
  <speed>0.022360679774997897</speed>
  <fix>3d</fix>
</trkpt>
<trkpt lat="40.0728423" lon="-105.2305755">
  <ele>1592.74</ele>
  <time>2026-08-27T18:27:45Z</time>
  <course>37.5</course>
  <speed>0.0</speed>
  <fix>3d</fix>
</trkpt>
<trkpt lat="40.0728421" lon="-105.2305753">
  <ele>1592.61</ele>
  <time>2026-08-27T18:27:45Z</time>
  <course>11.43</course>
  <speed>0.022360679774997897</speed>
  <fix>3d</fix>
</trkpt>
<trkpt lat="40.0728423" lon="-105.2305755">
  <ele>1592.63</ele>
  <time>2026-08-27T18:27:45Z</time>
  <course>37.87</course>
  <speed>0.0</speed>
  <fix>3d</fix>
</trkpt>
<trkpt lat="40.0728421" lon="-105.2305753">
  <ele>1592.51</ele>
  <time>2026-08-27T18:27:45Z</time>
  <course>11.43</course>
  <speed>0.022360679774997897</speed>
  <fix>3d</fix>
</trkpt>
<trkpt lat="40.0728423" lon="-105.2305755">
  <ele>1592.54</ele>
  <time>2026-08-27T18:27:45Z</time>
  <course>40.95</course>
  <speed>0.0</speed>
  <fix>3d</fix>
</trkpt>
<trkpt lat="40.0728421" lon="-105.2305753">
  <ele>1592.42</ele>
  <time>2026-08-27T18:27:45Z</time>
  <course>11.42</course>
  <speed>0.022360679774997897</speed>
  <fix>3d</fix>
</trkpt>
<trkpt lat="40.0728423" lon="-105.2305755">
  <ele>1592.44</ele>
  <time>2026-08-27T18:27:45Z</time>
  <course>46.09</course>
  <speed>0.0</speed>
  <fix>3d</fix>
</trkpt>
<trkpt lat="40.0728421" lon="-105.2305753">
  <ele>1592.32</ele>
  <time>2026-08-27T18:27:45Z</time>
  <course>11.42</course>
  <speed>0.022360679774997897</speed>
  <fix>3d</fix>
</trkpt>
<trkpt lat="40.0728423" lon="-105.2305755">
  <ele>1592.35</ele>
  <time>2026-08-27T18:27:45Z</time>
  <course>50.25</course>
  <speed>0.0</speed>
  <fix>3d</fix>
</trkpt>
<trkpt lat="40.0728421" lon="-105.2305753">
  <ele>1592.22</ele>
  <time>2026-08-27T18:27:45Z</time>
  <course>11.42</course>
  <speed>0.022360679774997897</speed>
  <fix>3d</fix>
</trkpt>
<trkpt lat="40.0728423" lon="-105.2305755">
  <ele>1592.25</ele>
  <time>2026-08-27T18:27:45Z</time>
  <course>52.33</course>
  <speed>0.0</speed>
  <fix>3d</fix>
</trkpt>
<trkpt lat="40.0728421" lon="-105.2305753">
  <ele>1592.12</ele>
  <time>2026-08-27T18:27:45Z</time>
  <course>11.42</course>
  <speed>0.022360679774997897</speed>
  <fix>3d</fix>
</trkpt>
<trkpt lat="40.0728423" lon="-105.2305755">
  <ele>1592.14</ele>
  <time>2026-08-27T18:27:45Z</time>
  <course>55.92</course>
  <speed>0.0</speed>
  <fix>3d</fix>
</trkpt>
<trkpt lat="40.0728422" lon="-105.2305753">
  <ele>1592.02</ele>
  <time>2026-08-27T18:27:45Z</time>
  <course>11.42</course>
  <speed>0.022360679774997897</speed>
  <fix>3d</fix>
</trkpt>
<trkpt lat="40.0728423" lon="-105.2305755">
  <ele>1592.05</ele>
  <time>2026-08-27T18:27:45Z</time>
  <course>59.55</course>
  <speed>0.0</speed>
  <fix>3d</fix>
</trkpt>
<trkpt lat="40.0728422" lon="-105.2305753">
  <ele>1591.93</ele>
  <time>2026-08-27T18:27:45Z</time>
  <course>11.42</course>
  <speed>0.022360679774997897</speed>
  <fix>3d</fix>
</trkpt>
<trkpt lat="40.0728423" lon="-105.2305755">
  <ele>1591.95</ele>
  <time>2026-08-27T18:27:45Z</time>
  <course>63.35</course>
  <speed>0.0</speed>
  <fix>3d</fix>
</trkpt>
<trkpt lat="40.0728422" lon="-105.2305753">
  <ele>1591.83</ele>
  <time>2026-08-27T18:27:45Z</time>
  <course>11.42</course>
  <speed>0.022360679774997897</speed>
  <fix>3d</fix>
</trkpt>
<trkpt lat="40.0728423" lon="-105.2305755">
  <ele>1591.85</ele>
  <time>2026-08-27T18:27:45Z</time>
  <course>67.0</course>
  <speed>0.0</speed>
  <fix>3d</fix>
</trkpt>
<trkpt lat="40.0728422" lon="-105.2305753">
  <ele>1591.73</ele>
  <time>2026-08-27T18:27:45Z</time>
  <course>11.42</course>
  <speed>0.022360679774997897</speed>
  <fix>3d</fix>
</trkpt>
<trkpt lat="40.0728423" lon="-105.2305754">
  <ele>1591.75</ele>
  <time>2026-08-27T18:27:45Z</time>
  <course>70.19</course>
  <speed>0.0</speed>
  <fix>3d</fix>
</trkpt>
<trkpt lat="40.0728422" lon="-105.2305753">
  <ele>1591.63</ele>
  <time>2026-08-27T18:27:45Z</time>
  <course>11.42</course>
  <speed>0.022360679774997897</speed>
  <fix>3d</fix>
</trkpt>
<trkpt lat="40.0728423" lon="-105.2305753">
  <ele>1591.64</ele>
  <time>2026-08-27T18:27:45Z</time>
  <course>73.94</course>
  <speed>0.0</speed>
  <fix>3d</fix>
</trkpt>
<trkpt lat="40.0728422" lon="-105.2305752">
  <ele>1591.52</ele>
  <time>2026-08-27T18:27:45Z</time>
  <course>11.42</course>
  <speed>0.022360679774997897</speed>
  <fix>3d</fix>
</trkpt>
<trkpt lat="40.0728423" lon="-105.2305753">
  <ele>1591.54</ele>
  <time>2026-08-27T18:27:45Z</time>
  <course>75.95</course>
  <speed>0.0</speed>
  <fix>3d</fix>
</trkpt>
<trkpt lat="40.0728422" lon="-105.2305752">
  <ele>1591.42</ele>
  <time>2026-08-27T18:27:45Z</time>
  <course>11.42</course>
  <speed>0.022360679774997897</speed>
  <fix>3d</fix>
</trkpt>
<trkpt lat="40.0728423" lon="-105.2305753">
  <ele>1591.44</ele>
  <time>2026-08-27T18:27:45Z</time>
  <course>73.62</course>
  <speed>0.0</speed>
  <fix>3d</fix>
</trkpt>
<trkpt lat="40.0728422" lon="-105.2305752">
  <ele>1591.32</ele>
  <time>2026-08-27T18:27:45Z</time>
  <course>11.42</course>
  <speed>0.01414213562373095</speed>
  <fix>3d</fix>
</trkpt>
<trkpt lat="40.0728423" lon="-105.2305753">
  <ele>1591.34</ele>
  <time>2026-08-27T18:27:45Z</time>
  <course>71.35</course>
  <speed>0.0</speed>
  <fix>3d</fix>
</trkpt>
<trkpt lat="40.0728422" lon="-105.2305752">
  <ele>1591.21</ele>
  <time>2026-08-27T18:27:45Z</time>
  <course>11.42</course>
  <speed>0.01414213562373095</speed>
  <fix>3d</fix>
</trkpt>
<trkpt lat="40.0728423" lon="-105.2305753">
  <ele>1591.24</ele>
  <time>2026-08-27T18:27:45Z</time>
  <course>71.0</course>
  <speed>0.0</speed>
  <fix>3d</fix>
</trkpt>
<trkpt lat="40.0728422" lon="-105.2305752">
  <ele>1591.11</ele>
  <time>2026-08-27T18:27:45Z</time>
  <course>11.42</course>
  <speed>0.022360679774997897</speed>
  <fix>3d</fix>
</trkpt>
<trkpt lat="40.0728423" lon="-105.2305753">
  <ele>1591.13</ele>
  <time>2026-08-27T18:27:45Z</time>
  <course>66.39</course>
  <speed>0.0</speed>
  <fix>3d</fix>
</trkpt>
<trkpt lat="40.0728422" lon="-105.2305752">
  <ele>1591.02</ele>
  <time>2026-08-27T18:27:45Z</time>
  <course>11.42</course>
  <speed>0.022360679774997897</speed>
  <fix>3d</fix>
</trkpt>
<trkpt lat="40.0728423" lon="-105.2305753">
  <ele>1591.04</ele>
  <time>2026-08-27T18:27:45Z</time>
  <course>57.94</course>
  <speed>0.0</speed>
  <fix>3d</fix>
</trkpt>
<trkpt lat="40.0728422" lon="-105.2305752">
  <ele>1590.92</ele>
  <time>2026-08-27T18:27:45Z</time>
  <course>11.43</course>
  <speed>0.022360679774997897</speed>
  <fix>3d</fix>
</trkpt>
<trkpt lat="40.0728423" lon="-105.2305753">
  <ele>1590.94</ele>
  <time>2026-08-27T18:27:45Z</time>
  <course>53.31</course>
  <speed>0.0</speed>
  <fix>3d</fix>
</trkpt>
<trkpt lat="40.0728422" lon="-105.2305752">
  <ele>1590.82</ele>
  <time>2026-08-27T18:27:45Z</time>
  <course>11.43</course>
  <speed>0.01414213562373095</speed>
  <fix>3d</fix>
</trkpt>
<trkpt lat="40.0728423" lon="-105.2305753">
  <ele>1590.84</ele>
  <time>2026-08-27T18:27:45Z</time>
  <course>54.33</course>
  <speed>0.0</speed>
  <fix>3d</fix>
</trkpt>
<trkpt lat="40.0728422" lon="-105.2305752">
  <ele>1590.72</ele>
  <time>2026-08-27T18:27:45Z</time>
  <course>11.43</course>
  <speed>0.01414213562373095</speed>
  <fix>3d</fix>
</trkpt>
<trkpt lat="40.0728423" lon="-105.2305753">
  <ele>1590.74</ele>
  <time>2026-08-27T18:27:45Z</time>
  <course>32.25</course>
  <speed>0.0</speed>
  <fix>3d</fix>
</trkpt>
<trkpt lat="40.0728422" lon="-105.2305752">
  <ele>1590.62</ele>
  <time>2026-08-27T18:27:45Z</time>
  <course>11.43</course>
  <speed>0.022360679774997897</speed>
  <fix>3d</fix>
</trkpt>
<trkpt lat="40.0728423" lon="-105.2305753">
  <ele>1590.63</ele>
  <time>2026-08-27T18:27:45Z</time>
  <course>355.34</course>
  <speed>0.0</speed>
  <fix>3d</fix>
</trkpt>
<trkpt lat="40.0728422" lon="-105.2305752">
  <ele>1590.52</ele>
  <time>2026-08-27T18:27:45Z</time>
  <course>11.42</course>
  <speed>0.022360679774997897</speed>
  <fix>3d</fix>
</trkpt>
<trkpt lat="40.0728423" lon="-105.2305753">
  <ele>1590.54</ele>
  <time>2026-08-27T18:27:45Z</time>
  <course>324.08</course>
  <speed>0.0</speed>
  <fix>3d</fix>
</trkpt>
<trkpt lat="40.0728422" lon="-105.2305752">
  <ele>1590.42</ele>
  <time>2026-08-27T18:27:45Z</time>
  <course>11.42</course>
  <speed>0.022360679774997897</speed>
  <fix>3d</fix>
</trkpt>
<trkpt lat="40.0728423" lon="-105.2305753">
  <ele>1590.44</ele>
  <time>2026-08-27T18:27:45Z</time>
  <course>307.68</course>
  <speed>0.0</speed>
  <fix>3d</fix>
</trkpt>
<trkpt lat="40.0728422" lon="-105.2305752">
  <ele>1590.32</ele>
  <time>2026-08-27T18:27:45Z</time>
  <course>11.41</course>
  <speed>0.022360679774997897</speed>
  <fix>3d</fix>
</trkpt>
<trkpt lat="40.0728423" lon="-105.2305753">
  <ele>1590.34</ele>
  <time>2026-08-27T18:27:45Z</time>
  <course>296.84</course>
  <speed>0.0</speed>
  <fix>3d</fix>
</trkpt>
<trkpt lat="40.0728422" lon="-105.2305752">
  <ele>1590.22</ele>
  <time>2026-08-27T18:27:45Z</time>
  <course>11.41</course>
  <speed>0.022360679774997897</speed>
  <fix>3d</fix>
</trkpt>
<trkpt lat="40.0728423" lon="-105.2305753">
  <ele>1590.24</ele>
  <time>2026-08-27T18:27:45Z</time>
  <course>292.91</course>
  <speed>0.0</speed>
  <fix>3d</fix>
</trkpt>
<trkpt lat="40.0728422" lon="-105.2305752">
  <ele>1590.12</ele>
  <time>2026-08-27T18:27:45Z</time>
  <course>11.41</course>
  <speed>0.022360679774997897</speed>
  <fix>3d</fix>
</trkpt>
<trkpt lat="40.0728423" lon="-105.2305753">
  <ele>1590.13</ele>
  <time>2026-08-27T18:27:45Z</time>
  <course>289.44</course>
  <speed>0.0</speed>
  <fix>3d</fix>
</trkpt>
<trkpt lat="40.0728422" lon="-105.2305752">
  <ele>1590.02</ele>
  <time>2026-08-27T18:27:45Z</time>
  <course>11.41</course>
  <speed>0.01414213562373095</speed>
  <fix>3d</fix>
</trkpt>
<trkpt lat="40.0728423" lon="-105.2305753">
  <ele>1590.04</ele>
  <time>2026-08-27T18:27:45Z</time>
  <course>294.85</course>
  <speed>0.0</speed>
  <fix>3d</fix>
</trkpt>
<trkpt lat="40.0728422" lon="-105.2305752">
  <ele>1589.92</ele>
  <time>2026-08-27T18:27:45Z</time>
  <course>11.41</course>
  <speed>0.01414213562373095</speed>
  <fix>3d</fix>
</trkpt>
<trkpt lat="40.0728423" lon="-105.2305753">
  <ele>1589.94</ele>
  <time>2026-08-27T18:27:45Z</time>
  <course>322.2</course>
  <speed>0.0</speed>
  <fix>3d</fix>
</trkpt>
<trkpt lat="40.0728422" lon="-105.2305752">
  <ele>1589.82</ele>
  <time>2026-08-27T18:27:45Z</time>
  <course>11.42</course>
  <speed>0.01414213562373095</speed>
  <fix>3d</fix>
</trkpt>
<trkpt lat="40.0728423" lon="-105.2305753">
  <ele>1589.84</ele>
  <time>2026-08-27T18:27:45Z</time>
  <course>323.58</course>
  <speed>0.0</speed>
  <fix>3d</fix>
</trkpt>
<trkpt lat="40.0728422" lon="-105.2305752">
  <ele>1589.72</ele>
  <time>2026-08-27T18:27:45Z</time>
  <course>11.41</course>
  <speed>0.01414213562373095</speed>
  <fix>3d</fix>
</trkpt>
<trkpt lat="40.0728423" lon="-105.2305753">
  <ele>1589.74</ele>
  <time>2026-08-27T18:27:45Z</time>
  <course>308.99</course>
  <speed>0.0</speed>
  <fix>3d</fix>
</trkpt>
<trkpt lat="40.0728422" lon="-105.2305752">
  <ele>1589.62</ele>
  <time>2026-08-27T18:27:45Z</time>
  <course>11.41</course>
  <speed>0.022360679774997897</speed>
  <fix>3d</fix>
</trkpt>
<trkpt lat="40.0728423" lon="-105.2305753">
  <ele>1589.63</ele>
  <time>2026-08-27T18:27:45Z</time>
  <course>295.39</course>
  <speed>0.0</speed>
  <fix>3d</fix>
</trkpt>
<trkpt lat="40.0728422" lon="-105.2305752">
  <ele>1589.52</ele>
  <time>2026-08-27T18:27:45Z</time>
  <course>11.41</course>
  <speed>0.022360679774997897</speed>
  <fix>3d</fix>
</trkpt>
<trkpt lat="40.0728423" lon="-105.2305753">
  <ele>1589.54</ele>
  <time>2026-08-27T18:27:45Z</time>
  <course>281.72</course>
  <speed>0.0</speed>
  <fix>3d</fix>
</trkpt>
<trkpt lat="40.0728422" lon="-105.2305752">
  <ele>1589.41</ele>
  <time>2026-08-27T18:27:45Z</time>
  <course>11.41</course>
  <speed>0.022360679774997897</speed>
  <fix>3d</fix>
</trkpt>
<trkpt lat="40.0728423" lon="-105.2305753">
  <ele>1589.44</ele>
  <time>2026-08-27T18:27:45Z</time>
  <course>269.01</course>
  <speed>0.0</speed>
  <fix>3d</fix>
</trkpt>
<trkpt lat="40.0728422" lon="-105.2305752">
  <ele>1589.31</ele>
  <time>2026-08-27T18:27:45Z</time>
  <course>11.41</course>
  <speed>0.022360679774997897</speed>
  <fix>3d</fix>
</trkpt>
<trkpt lat="40.0728423" lon="-105.2305753">
  <ele>1589.34</ele>
  <time>2026-08-27T18:27:45Z</time>
  <course>269.48</course>
  <speed>0.0</speed>
  <fix>3d</fix>
</trkpt>
<trkpt lat="40.0728422" lon="-105.2305752">
  <ele>1589.21</ele>
  <time>2026-08-27T18:27:45Z</time>
  <course>11.41</course>
  <speed>0.022360679774997897</speed>
  <fix>3d</fix>
</trkpt>
<trkpt lat="40.0728423" lon="-105.2305753">
  <ele>1589.24</ele>
  <time>2026-08-27T18:27:45Z</time>
  <course>272.82</course>
  <speed>0.0</speed>
  <fix>3d</fix>
</trkpt>
<trkpt lat="40.0728422" lon="-105.2305752">
  <ele>1589.11</ele>
  <time>2026-08-27T18:27:45Z</time>
  <course>11.41</course>
  <speed>0.022360679774997897</speed>
  <fix>3d</fix>
</trkpt>
<trkpt lat="40.0728423" lon="-105.2305753">
  <ele>1589.13</ele>
  <time>2026-08-27T18:27:45Z</time>
  <course>274.07</course>
  <speed>0.0</speed>
  <fix>3d</fix>
</trkpt>
<trkpt lat="40.0728422" lon="-105.2305752">
  <ele>1589.01</ele>
  <time>2026-08-27T18:27:46Z</time>
  <course>11.41</course>
  <speed>0.022360679774997897</speed>
  <fix>3d</fix>
</trkpt>
<trkpt lat="40.0728423" lon="-105.2305753">
  <ele>1589.04</ele>
  <time>2026-08-27T18:27:46Z</time>
  <course>273.47</course>
  <speed>0.0</speed>
  <fix>3d</fix>
</trkpt>
<trkpt lat="40.0728422" lon="-105.2305752">
  <ele>1588.91</ele>
  <time>2026-08-27T18:27:46Z</time>
  <course>11.41</course>
  <speed>0.01414213562373095</speed>
  <fix>3d</fix>
</trkpt>
<trkpt lat="40.0728423" lon="-105.2305753">
  <ele>1588.94</ele>
  <time>2026-08-27T18:27:46Z</time>
  <course>276.11</course>
  <speed>0.0</speed>
  <fix>3d</fix>
</trkpt>
<trkpt lat="40.0728422" lon="-105.2305752">
  <ele>1588.82</ele>
  <time>2026-08-27T18:27:46Z</time>
  <course>11.41</course>
  <speed>0.01414213562373095</speed>
  <fix>3d</fix>
</trkpt>
<trkpt lat="40.0728423" lon="-105.2305753">
  <ele>1588.84</ele>
  <time>2026-08-27T18:27:46Z</time>
  <course>281.19</course>
  <speed>0.0</speed>
  <fix>3d</fix>
</trkpt>
<trkpt lat="40.0728422" lon="-105.2305752">
  <ele>1588.72</ele>
  <time>2026-08-27T18:27:46Z</time>
  <course>11.41</course>
  <speed>0.01414213562373095</speed>
  <fix>3d</fix>
</trkpt>
<trkpt lat="40.0728423" lon="-105.2305753">
  <ele>1588.74</ele>
  <time>2026-08-27T18:27:46Z</time>
  <course>281.55</course>
  <speed>0.0</speed>
  <fix>3d</fix>
</trkpt>
<trkpt lat="40.0728422" lon="-105.2305752">
  <ele>1588.62</ele>
  <time>2026-08-27T18:27:46Z</time>
  <course>11.41</course>
  <speed>0.01414213562373095</speed>
  <fix>3d</fix>
</trkpt>
<trkpt lat="40.0728423" lon="-105.2305753">
  <ele>1588.64</ele>
  <time>2026-08-27T18:27:46Z</time>
  <course>280.77</course>
  <speed>0.0</speed>
  <fix>3d</fix>
</trkpt>
<trkpt lat="40.0728422" lon="-105.2305752">
  <ele>1588.52</ele>
  <time>2026-08-27T18:27:46Z</time>
  <course>11.41</course>
  <speed>0.01414213562373095</speed>
  <fix>3d</fix>
</trkpt>
<trkpt lat="40.0728423" lon="-105.2305753">
  <ele>1588.55</ele>
  <time>2026-08-27T18:27:46Z</time>
  <course>280.52</course>
  <speed>0.0</speed>
  <fix>3d</fix>
</trkpt>
<trkpt lat="40.0728422" lon="-105.2305752">
  <ele>1588.42</ele>
  <time>2026-08-27T18:27:46Z</time>
  <course>11.41</course>
  <speed>0.01414213562373095</speed>
  <fix>3d</fix>
</trkpt>
<trkpt lat="40.0728423" lon="-105.2305753">
  <ele>1588.45</ele>
  <time>2026-08-27T18:27:46Z</time>
  <course>278.34</course>
  <speed>0.0</speed>
  <fix>3d</fix>
</trkpt>
<trkpt lat="40.0728422" lon="-105.2305752">
  <ele>1588.32</ele>
  <time>2026-08-27T18:27:46Z</time>
  <course>11.41</course>
  <speed>0.01414213562373095</speed>
  <fix>3d</fix>
</trkpt>
<trkpt lat="40.0728423" lon="-105.2305754">
  <ele>1588.35</ele>
  <time>2026-08-27T18:27:46Z</time>
  <course>278.06</course>
  <speed>0.0</speed>
  <fix>3d</fix>
</trkpt>
<trkpt lat="40.0728422" lon="-105.2305752">
  <ele>1588.22</ele>
  <time>2026-08-27T18:27:46Z</time>
  <course>11.41</course>
  <speed>0.01414213562373095</speed>
  <fix>3d</fix>
</trkpt>
<trkpt lat="40.0728423" lon="-105.2305755">
  <ele>1588.25</ele>
  <time>2026-08-27T18:27:46Z</time>
  <course>279.3</course>
  <speed>0.0</speed>
  <fix>3d</fix>
</trkpt>
<trkpt lat="40.0728422" lon="-105.2305752">
  <ele>1588.12</ele>
  <time>2026-08-27T18:27:46Z</time>
  <course>11.41</course>
  <speed>0.01414213562373095</speed>
  <fix>3d</fix>
</trkpt>
<trkpt lat="40.0728423" lon="-105.2305755">
  <ele>1588.14</ele>
  <time>2026-08-27T18:27:46Z</time>
  <course>280.91</course>
  <speed>0.0</speed>
  <fix>3d</fix>
</trkpt>
<trkpt lat="40.0728422" lon="-105.2305752">
  <ele>1588.02</ele>
  <time>2026-08-27T18:27:46Z</time>
  <course>11.41</course>
  <speed>0.01414213562373095</speed>
  <fix>3d</fix>
</trkpt>
<trkpt lat="40.0728423" lon="-105.2305755">
  <ele>1588.05</ele>
  <time>2026-08-27T18:27:46Z</time>
  <course>289.35</course>
  <speed>0.0</speed>
  <fix>3d</fix>
</trkpt>
<trkpt lat="40.0728422" lon="-105.2305752">
  <ele>1587.92</ele>
  <time>2026-08-27T18:27:46Z</time>
  <course>11.41</course>
  <speed>0.01414213562373095</speed>
  <fix>3d</fix>
</trkpt>
<trkpt lat="40.0728423" lon="-105.2305755">
  <ele>1587.95</ele>
  <time>2026-08-27T18:27:46Z</time>
  <course>311.34</course>
  <speed>0.0</speed>
  <fix>3d</fix>
</trkpt>
<trkpt lat="40.0728422" lon="-105.2305752">
  <ele>1587.82</ele>
  <time>2026-08-27T18:27:46Z</time>
  <course>11.41</course>
  <speed>0.01414213562373095</speed>
  <fix>3d</fix>
</trkpt>
<trkpt lat="40.0728423" lon="-105.2305755">
  <ele>1587.85</ele>
  <time>2026-08-27T18:27:46Z</time>
  <course>338.9</course>
  <speed>0.0</speed>
  <fix>3d</fix>
</trkpt>
<trkpt lat="40.0728422" lon="-105.2305752">
  <ele>1587.72</ele>
  <time>2026-08-27T18:27:46Z</time>
  <course>11.4</course>
  <speed>0.01414213562373095</speed>
  <fix>3d</fix>
</trkpt>
<trkpt lat="40.0728424" lon="-105.2305755">
  <ele>1587.75</ele>
  <time>2026-08-27T18:27:46Z</time>
  <course>355.9</course>
  <speed>0.0</speed>
  <fix>3d</fix>
</trkpt>
<trkpt lat="40.0728422" lon="-105.2305752">
  <ele>1587.62</ele>
  <time>2026-08-27T18:27:46Z</time>
  <course>11.4</course>
  <speed>0.01414213562373095</speed>
  <fix>3d</fix>
</trkpt>
<trkpt lat="40.0728424" lon="-105.2305755">
  <ele>1587.64</ele>
  <time>2026-08-27T18:27:46Z</time>
  <course>19.98</course>
  <speed>0.0</speed>
  <fix>3d</fix>
</trkpt>
<trkpt lat="40.0728422" lon="-105.2305753">
  <ele>1587.52</ele>
  <time>2026-08-27T18:27:46Z</time>
  <course>11.4</course>
  <speed>0.01414213562373095</speed>
  <fix>3d</fix>
</trkpt>
<trkpt lat="40.0728424" lon="-105.2305755">
  <ele>1587.55</ele>
  <time>2026-08-27T18:27:46Z</time>
  <course>46.16</course>
  <speed>0.0</speed>
  <fix>3d</fix>
</trkpt>
<trkpt lat="40.0728422" lon="-105.2305753">
  <ele>1587.42</ele>
  <time>2026-08-27T18:27:46Z</time>
  <course>11.39</course>
  <speed>0.01414213562373095</speed>
  <fix>3d</fix>
</trkpt>
<trkpt lat="40.0728424" lon="-105.2305755">
  <ele>1587.45</ele>
  <time>2026-08-27T18:27:46Z</time>
  <course>62.3</course>
  <speed>0.0</speed>
  <fix>3d</fix>
</trkpt>
<trkpt lat="40.0728422" lon="-105.2305753">
  <ele>1587.32</ele>
  <time>2026-08-27T18:27:46Z</time>
  <course>11.39</course>
  <speed>0.022360679774997897</speed>
  <fix>3d</fix>
</trkpt>
<trkpt lat="40.0728424" lon="-105.2305755">
  <ele>1587.35</ele>
  <time>2026-08-27T18:27:46Z</time>
  <course>101.05</course>
  <speed>0.0</speed>
  <fix>3d</fix>
</trkpt>
<trkpt lat="40.0728422" lon="-105.2305753">
  <ele>1587.22</ele>
  <time>2026-08-27T18:27:46Z</time>
  <course>11.39</course>
  <speed>0.0282842712474619</speed>
  <fix>3d</fix>
</trkpt>
<trkpt lat="40.0728424" lon="-105.2305755">
  <ele>1587.25</ele>
  <time>2026-08-27T18:27:46Z</time>
  <course>125.27</course>
  <speed>0.0</speed>
  <fix>3d</fix>
</trkpt>
<trkpt lat="40.0728422" lon="-105.2305753">
  <ele>1587.12</ele>
  <time>2026-08-27T18:27:46Z</time>
  <course>11.4</course>
  <speed>0.0282842712474619</speed>
  <fix>3d</fix>
</trkpt>
<trkpt lat="40.0728424" lon="-105.2305755">
  <ele>1587.14</ele>
  <time>2026-08-27T18:27:46Z</time>
  <course>121.93</course>
  <speed>0.0</speed>
  <fix>3d</fix>
</trkpt>
<trkpt lat="40.0728422" lon="-105.2305753">
  <ele>1587.02</ele>
  <time>2026-08-27T18:27:46Z</time>
  <course>11.4</course>
  <speed>0.0282842712474619</speed>
  <fix>3d</fix>
</trkpt>
<trkpt lat="40.0728424" lon="-105.2305755">
  <ele>1587.05</ele>
  <time>2026-08-27T18:27:46Z</time>
  <course>120.87</course>
  <speed>0.0</speed>
  <fix>3d</fix>
</trkpt>
<trkpt lat="40.0728422" lon="-105.2305753">
  <ele>1586.92</ele>
  <time>2026-08-27T18:27:46Z</time>
  <course>11.4</course>
  <speed>0.0282842712474619</speed>
  <fix>3d</fix>
</trkpt>
<trkpt lat="40.0728424" lon="-105.2305755">
  <ele>1586.94</ele>
  <time>2026-08-27T18:27:46Z</time>
  <course>121.98</course>
  <speed>0.0</speed>
  <fix>3d</fix>
</trkpt>
<trkpt lat="40.0728422" lon="-105.2305753">
  <ele>1586.82</ele>
  <time>2026-08-27T18:27:46Z</time>
  <course>11.4</course>
  <speed>0.0282842712474619</speed>
  <fix>3d</fix>
</trkpt>
<trkpt lat="40.0728424" lon="-105.2305755">
  <ele>1586.84</ele>
  <time>2026-08-27T18:27:46Z</time>
  <course>124.02</course>
  <speed>0.0</speed>
  <fix>3d</fix>
</trkpt>
<trkpt lat="40.0728422" lon="-105.2305753">
  <ele>1586.72</ele>
  <time>2026-08-27T18:27:46Z</time>
  <course>11.4</course>
  <speed>0.0282842712474619</speed>
  <fix>3d</fix>
</trkpt>
<trkpt lat="40.0728424" lon="-105.2305755">
  <ele>1586.74</ele>
  <time>2026-08-27T18:27:46Z</time>
  <course>125.51</course>
  <speed>0.0</speed>
  <fix>3d</fix>
</trkpt>
<trkpt lat="40.0728422" lon="-105.2305753">
  <ele>1586.63</ele>
  <time>2026-08-27T18:27:46Z</time>
  <course>11.4</course>
  <speed>0.0282842712474619</speed>
  <fix>3d</fix>
</trkpt>
<trkpt lat="40.0728424" lon="-105.2305755">
  <ele>1586.63</ele>
  <time>2026-08-27T18:27:46Z</time>
  <course>126.69</course>
  <speed>0.0</speed>
  <fix>3d</fix>
</trkpt>
<trkpt lat="40.0728422" lon="-105.2305753">
  <ele>1586.52</ele>
  <time>2026-08-27T18:27:46Z</time>
  <course>11.4</course>
  <speed>0.0282842712474619</speed>
  <fix>3d</fix>
</trkpt>
<trkpt lat="40.0728424" lon="-105.2305755">
  <ele>1586.54</ele>
  <time>2026-08-27T18:27:46Z</time>
  <course>128.39</course>
  <speed>0.0</speed>
  <fix>3d</fix>
</trkpt>
<trkpt lat="40.0728422" lon="-105.2305753">
  <ele>1586.42</ele>
  <time>2026-08-27T18:27:46Z</time>
  <course>11.4</course>
  <speed>0.0282842712474619</speed>
  <fix>3d</fix>
</trkpt>
<trkpt lat="40.0728424" lon="-105.2305755">
  <ele>1586.44</ele>
  <time>2026-08-27T18:27:46Z</time>
  <course>129.97</course>
  <speed>0.0</speed>
  <fix>3d</fix>
</trkpt>
<trkpt lat="40.0728422" lon="-105.2305753">
  <ele>1586.32</ele>
  <time>2026-08-27T18:27:46Z</time>
  <course>11.4</course>
  <speed>0.022360679774997897</speed>
  <fix>3d</fix>
</trkpt>
<trkpt lat="40.0728424" lon="-105.2305754">
  <ele>1586.34</ele>
  <time>2026-08-27T18:27:46Z</time>
  <course>133.47</course>
  <speed>0.0</speed>
  <fix>3d</fix>
</trkpt>
<trkpt lat="40.0728422" lon="-105.2305753">
  <ele>1586.22</ele>
  <time>2026-08-27T18:27:46Z</time>
  <course>11.4</course>
  <speed>0.0282842712474619</speed>
  <fix>3d</fix>
</trkpt>
<trkpt lat="40.0728424" lon="-105.2305753">
  <ele>1586.24</ele>
  <time>2026-08-27T18:27:46Z</time>
  <course>135.81</course>
  <speed>0.0</speed>
  <fix>3d</fix>
</trkpt>
<trkpt lat="40.0728422" lon="-105.2305753">
  <ele>1586.14</ele>
  <time>2026-08-27T18:27:46Z</time>
  <course>11.4</course>
  <speed>0.01414213562373095</speed>
  <fix>3d</fix>
</trkpt>
<trkpt lat="40.0728424" lon="-105.2305753">
  <ele>1586.13</ele>
  <time>2026-08-27T18:27:46Z</time>
  <course>133.34</course>
  <speed>0.0</speed>
  <fix>3d</fix>
</trkpt>
<trkpt lat="40.0728422" lon="-105.2305752">
  <ele>1586.16</ele>
  <time>2026-08-27T18:27:46Z</time>
  <course>11.4</course>
  <speed>0.01414213562373095</speed>
  <fix>3d</fix>
</trkpt>
<trkpt lat="40.0728424" lon="-105.2305753">
  <ele>1586.08</ele>
  <time>2026-08-27T18:27:46Z</time>
  <course>131.75</course>
  <speed>0.0</speed>
  <fix>3d</fix>
</trkpt>
<trkpt lat="40.0728422" lon="-105.2305752">
  <ele>1586.16</ele>
  <time>2026-08-27T18:27:46Z</time>
  <course>11.39</course>
  <speed>0.01414213562373095</speed>
  <fix>3d</fix>
</trkpt>
<trkpt lat="40.0728424" lon="-105.2305753">
  <ele>1586.08</ele>
  <time>2026-08-27T18:27:46Z</time>
  <course>311.73</course>
  <speed>0.0</speed>
  <fix>3d</fix>
</trkpt>
<trkpt lat="40.0728422" lon="-105.2305752">
  <ele>1586.15</ele>
  <time>2026-08-27T18:27:46Z</time>
  <course>11.39</course>
  <speed>0.01414213562373095</speed>
  <fix>3d</fix>
</trkpt>
<trkpt lat="40.0728424" lon="-105.2305753">
  <ele>1586.1</ele>
  <time>2026-08-27T18:27:46Z</time>
  <course>311.87</course>
  <speed>0.0</speed>
  <fix>3d</fix>
</trkpt>
<trkpt lat="40.0728422" lon="-105.2305752">
  <ele>1586.15</ele>
  <time>2026-08-27T18:27:46Z</time>
  <course>11.39</course>
  <speed>0.01414213562373095</speed>
  <fix>3d</fix>
</trkpt>
<trkpt lat="40.0728424" lon="-105.2305753">
  <ele>1586.09</ele>
  <time>2026-08-27T18:27:46Z</time>
  <course>131.68</course>
  <speed>0.0</speed>
  <fix>3d</fix>
</trkpt>
<trkpt lat="40.0728422" lon="-105.2305752">
  <ele>1586.15</ele>
  <time>2026-08-27T18:27:46Z</time>
  <course>11.39</course>
  <speed>0.01414213562373095</speed>
  <fix>3d</fix>
</trkpt>
<trkpt lat="40.0728424" lon="-105.2305753">
  <ele>1586.09</ele>
  <time>2026-08-27T18:27:46Z</time>
  <course>311.08</course>
  <speed>0.0</speed>
  <fix>3d</fix>
</trkpt>
<trkpt lat="40.0728422" lon="-105.2305752">
  <ele>1586.15</ele>
  <time>2026-08-27T18:27:46Z</time>
  <course>11.39</course>
  <speed>0.01414213562373095</speed>
  <fix>3d</fix>
</trkpt>
<trkpt lat="40.0728424" lon="-105.2305753">
  <ele>1586.09</ele>
  <time>2026-08-27T18:27:46Z</time>
  <course>311.4</course>
  <speed>0.0</speed>
  <fix>3d</fix>
</trkpt>
<trkpt lat="40.0728422" lon="-105.2305752">
  <ele>1586.15</ele>
  <time>2026-08-27T18:27:46Z</time>
  <course>11.39</course>
  <speed>0.01414213562373095</speed>
  <fix>3d</fix>
</trkpt>
<trkpt lat="40.0728424" lon="-105.2305753">
  <ele>1586.09</ele>
  <time>2026-08-27T18:27:46Z</time>
  <course>131.79</course>
  <speed>0.0</speed>
  <fix>3d</fix>
</trkpt>
<trkpt lat="40.0728422" lon="-105.2305752">
  <ele>1586.15</ele>
  <time>2026-08-27T18:27:46Z</time>
  <course>11.38</course>
  <speed>0.01414213562373095</speed>
  <fix>3d</fix>
</trkpt>
<trkpt lat="40.0728424" lon="-105.2305753">
  <ele>1586.09</ele>
  <time>2026-08-27T18:27:46Z</time>
  <course>132.99</course>
  <speed>0.0</speed>
  <fix>3d</fix>
</trkpt>
<trkpt lat="40.0728422" lon="-105.2305752">
  <ele>1586.15</ele>
  <time>2026-08-27T18:27:46Z</time>
  <course>11.38</course>
  <speed>0.01414213562373095</speed>
  <fix>3d</fix>
</trkpt>
<trkpt lat="40.0728424" lon="-105.2305753">
  <ele>1586.09</ele>
  <time>2026-08-27T18:27:46Z</time>
  <course>302.66</course>
  <speed>0.0</speed>
  <fix>3d</fix>
</trkpt>
<trkpt lat="40.0728422" lon="-105.2305752">
  <ele>1586.15</ele>
  <time>2026-08-27T18:27:46Z</time>
  <course>11.38</course>
  <speed>0.01414213562373095</speed>
  <fix>3d</fix>
</trkpt>
<trkpt lat="40.0728424" lon="-105.2305753">
  <ele>1586.09</ele>
  <time>2026-08-27T18:27:46Z</time>
  <course>300.0</course>
  <speed>0.0</speed>
  <fix>3d</fix>
</trkpt>
<trkpt lat="40.0728422" lon="-105.2305752">
  <ele>1586.16</ele>
  <time>2026-08-27T18:27:46Z</time>
  <course>11.38</course>
  <speed>0.01414213562373095</speed>
  <fix>3d</fix>
</trkpt>
<trkpt lat="40.0728424" lon="-105.2305753">
  <ele>1586.09</ele>
  <time>2026-08-27T18:27:46Z</time>
  <course>122.03</course>
  <speed>0.0</speed>
  <fix>3d</fix>
</trkpt>
<trkpt lat="40.0728422" lon="-105.2305752">
  <ele>1586.16</ele>
  <time>2026-08-27T18:27:46Z</time>
  <course>11.38</course>
  <speed>0.01414213562373095</speed>
  <fix>3d</fix>
</trkpt>
<trkpt lat="40.0728424" lon="-105.2305753">
  <ele>1586.09</ele>
  <time>2026-08-27T18:27:46Z</time>
  <course>118.37</course>
  <speed>0.0</speed>
  <fix>3d</fix>
</trkpt>
<trkpt lat="40.0728422" lon="-105.2305752">
  <ele>1586.16</ele>
  <time>2026-08-27T18:27:46Z</time>
  <course>11.37</course>
  <speed>0.01414213562373095</speed>
  <fix>3d</fix>
</trkpt>
<trkpt lat="40.0728424" lon="-105.2305753">
  <ele>1586.09</ele>
  <time>2026-08-27T18:27:46Z</time>
  <course>301.61</course>
  <speed>0.0</speed>
  <fix>3d</fix>
</trkpt>
<trkpt lat="40.0728422" lon="-105.2305752">
  <ele>1586.16</ele>
  <time>2026-08-27T18:27:46Z</time>
  <course>11.37</course>
  <speed>0.01414213562373095</speed>
  <fix>3d</fix>
</trkpt>
<trkpt lat="40.0728424" lon="-105.2305753">
  <ele>1586.09</ele>
  <time>2026-08-27T18:27:46Z</time>
  <course>268.49</course>
  <speed>0.0</speed>
  <fix>3d</fix>
</trkpt>
<trkpt lat="40.0728422" lon="-105.2305752">
  <ele>1586.16</ele>
  <time>2026-08-27T18:27:46Z</time>
  <course>11.37</course>
  <speed>0.01414213562373095</speed>
  <fix>3d</fix>
</trkpt>
<trkpt lat="40.0728424" lon="-105.2305753">
  <ele>1586.09</ele>
  <time>2026-08-27T18:27:46Z</time>
  <course>121.24</course>
  <speed>0.0</speed>
  <fix>3d</fix>
</trkpt>
<trkpt lat="40.0728422" lon="-105.2305752">
  <ele>1586.16</ele>
  <time>2026-08-27T18:27:46Z</time>
  <course>11.37</course>
  <speed>0.01414213562373095</speed>
  <fix>3d</fix>
</trkpt>
<trkpt lat="40.0728424" lon="-105.2305753">
  <ele>1586.09</ele>
  <time>2026-08-27T18:27:46Z</time>
  <course>305.08</course>
  <speed>0.0</speed>
  <fix>3d</fix>
</trkpt>
<trkpt lat="40.0728422" lon="-105.2305752">
  <ele>1586.17</ele>
  <time>2026-08-27T18:27:46Z</time>
  <course>11.36</course>
  <speed>0.01414213562373095</speed>
  <fix>3d</fix>
</trkpt>
<trkpt lat="40.0728424" lon="-105.2305753">
  <ele>1586.09</ele>
  <time>2026-08-27T18:27:46Z</time>
  <course>300.84</course>
  <speed>0.0</speed>
  <fix>3d</fix>
</trkpt>
<trkpt lat="40.0728422" lon="-105.2305752">
  <ele>1586.17</ele>
  <time>2026-08-27T18:27:46Z</time>
  <course>11.36</course>
  <speed>0.01414213562373095</speed>
  <fix>3d</fix>
</trkpt>
<trkpt lat="40.0728424" lon="-105.2305753">
  <ele>1586.09</ele>
  <time>2026-08-27T18:27:46Z</time>
  <course>122.94</course>
  <speed>0.0</speed>
  <fix>3d</fix>
</trkpt>
<trkpt lat="40.0728422" lon="-105.2305752">
  <ele>1586.17</ele>
  <time>2026-08-27T18:27:46Z</time>
  <course>11.36</course>
  <speed>0.01414213562373095</speed>
  <fix>3d</fix>
</trkpt>
<trkpt lat="40.0728424" lon="-105.2305753">
  <ele>1586.09</ele>
  <time>2026-08-27T18:27:46Z</time>
  <course>120.25</course>
  <speed>0.0</speed>
  <fix>3d</fix>
</trkpt>
<trkpt lat="40.0728422" lon="-105.2305752">
  <ele>1586.17</ele>
  <time>2026-08-27T18:27:46Z</time>
  <course>11.36</course>
  <speed>0.01414213562373095</speed>
  <fix>3d</fix>
</trkpt>
<trkpt lat="40.0728424" lon="-105.2305753">
  <ele>1586.09</ele>
  <time>2026-08-27T18:27:46Z</time>
  <course>302.19</course>
  <speed>0.0</speed>
  <fix>3d</fix>
</trkpt>
<trkpt lat="40.0728422" lon="-105.2305752">
  <ele>1586.17</ele>
  <time>2026-08-27T18:27:46Z</time>
  <course>11.35</course>
  <speed>0.01414213562373095</speed>
  <fix>3d</fix>
</trkpt>
<trkpt lat="40.0728424" lon="-105.2305753">
  <ele>1586.09</ele>
  <time>2026-08-27T18:27:46Z</time>
  <course>299.08</course>
  <speed>0.0</speed>
  <fix>3d</fix>
</trkpt>
<trkpt lat="40.0728422" lon="-105.2305752">
  <ele>1586.17</ele>
  <time>2026-08-27T18:27:46Z</time>
  <course>11.35</course>
  <speed>0.01414213562373095</speed>
  <fix>3d</fix>
</trkpt>
<trkpt lat="40.0728424" lon="-105.2305753">
  <ele>1586.09</ele>
  <time>2026-08-27T18:27:46Z</time>
  <course>121.73</course>
  <speed>0.0</speed>
  <fix>3d</fix>
</trkpt>
<trkpt lat="40.0728422" lon="-105.2305752">
  <ele>1586.17</ele>
  <time>2026-08-27T18:27:46Z</time>
  <course>11.35</course>
  <speed>0.01414213562373095</speed>
  <fix>3d</fix>
</trkpt>
<trkpt lat="40.0728424" lon="-105.2305753">
  <ele>1586.09</ele>
  <time>2026-08-27T18:27:46Z</time>
  <course>112.64</course>
  <speed>0.0</speed>
  <fix>3d</fix>
</trkpt>
<trkpt lat="40.0728422" lon="-105.2305752">
  <ele>1586.18</ele>
  <time>2026-08-27T18:27:46Z</time>
  <course>11.35</course>
  <speed>0.01414213562373095</speed>
  <fix>3d</fix>
</trkpt>
<trkpt lat="40.0728424" lon="-105.2305753">
  <ele>1586.09</ele>
  <time>2026-08-27T18:27:46Z</time>
  <course>301.35</course>
  <speed>0.0</speed>
  <fix>3d</fix>
</trkpt>
<trkpt lat="40.0728422" lon="-105.2305752">
  <ele>1586.18</ele>
  <time>2026-08-27T18:27:46Z</time>
  <course>11.34</course>
  <speed>0.01414213562373095</speed>
  <fix>3d</fix>
</trkpt>
<trkpt lat="40.0728424" lon="-105.2305753">
  <ele>1586.09</ele>
  <time>2026-08-27T18:27:46Z</time>
  <course>126.88</course>
  <speed>0.0</speed>
  <fix>3d</fix>
</trkpt>
<trkpt lat="40.0728422" lon="-105.2305752">
  <ele>1586.18</ele>
  <time>2026-08-27T18:27:46Z</time>
  <course>11.34</course>
  <speed>0.01414213562373095</speed>
  <fix>3d</fix>
</trkpt>
<trkpt lat="40.0728424" lon="-105.2305753">
  <ele>1586.09</ele>
  <time>2026-08-27T18:27:46Z</time>
  <course>120.92</course>
  <speed>0.0</speed>
  <fix>3d</fix>
</trkpt>
<trkpt lat="40.0728422" lon="-105.2305752">
  <ele>1586.18</ele>
  <time>2026-08-27T18:27:46Z</time>
  <course>11.34</course>
  <speed>0.01414213562373095</speed>
  <fix>3d</fix>
</trkpt>
<trkpt lat="40.0728424" lon="-105.2305753">
  <ele>1586.09</ele>
  <time>2026-08-27T18:27:46Z</time>
  <course>303.24</course>
  <speed>0.0</speed>
  <fix>3d</fix>
</trkpt>
<trkpt lat="40.0728422" lon="-105.2305752">
  <ele>1586.18</ele>
  <time>2026-08-27T18:27:46Z</time>
  <course>11.33</course>
  <speed>0.01414213562373095</speed>
  <fix>3d</fix>
</trkpt>
<trkpt lat="40.0728424" lon="-105.2305753">
  <ele>1586.09</ele>
  <time>2026-08-27T18:27:46Z</time>
  <course>300.09</course>
  <speed>0.0</speed>
  <fix>3d</fix>
</trkpt>
<trkpt lat="40.0728422" lon="-105.2305752">
  <ele>1586.18</ele>
  <time>2026-08-27T18:27:46Z</time>
  <course>11.33</course>
  <speed>0.01414213562373095</speed>
  <fix>3d</fix>
</trkpt>
<trkpt lat="40.0728424" lon="-105.2305753">
  <ele>1586.09</ele>
  <time>2026-08-27T18:27:46Z</time>
  <course>121.11</course>
  <speed>0.0</speed>
  <fix>3d</fix>
</trkpt>
<trkpt lat="40.0728422" lon="-105.2305752">
  <ele>1586.18</ele>
  <time>2026-08-27T18:27:46Z</time>
  <course>11.33</course>
  <speed>0.01414213562373095</speed>
  <fix>3d</fix>
</trkpt>
<trkpt lat="40.0728424" lon="-105.2305753">
  <ele>1586.09</ele>
  <time>2026-08-27T18:27:46Z</time>
  <course>116.26</course>
  <speed>0.0</speed>
  <fix>3d</fix>
</trkpt>
<trkpt lat="40.0728422" lon="-105.2305752">
  <ele>1586.18</ele>
  <time>2026-08-27T18:27:46Z</time>
  <course>11.32</course>
  <speed>0.01414213562373095</speed>
  <fix>3d</fix>
</trkpt>
<trkpt lat="40.0728424" lon="-105.2305753">
  <ele>1586.09</ele>
  <time>2026-08-27T18:27:46Z</time>
  <course>316.0</course>
  <speed>0.0</speed>
  <fix>3d</fix>
</trkpt>
<trkpt lat="40.0728422" lon="-105.2305752">
  <ele>1586.18</ele>
  <time>2026-08-27T18:27:46Z</time>
  <course>11.32</course>
  <speed>0.01414213562373095</speed>
  <fix>3d</fix>
</trkpt>
<trkpt lat="40.0728424" lon="-105.2305753">
  <ele>1586.09</ele>
  <time>2026-08-27T18:27:46Z</time>
  <course>357.0</course>
  <speed>0.0</speed>
  <fix>3d</fix>
</trkpt>
<trkpt lat="40.0728422" lon="-105.2305752">
  <ele>1586.18</ele>
  <time>2026-08-27T18:27:46Z</time>
  <course>11.32</course>
  <speed>0.01414213562373095</speed>
  <fix>3d</fix>
</trkpt>
<trkpt lat="40.0728424" lon="-105.2305753">
  <ele>1586.09</ele>
  <time>2026-08-27T18:27:46Z</time>
  <course>12.79</course>
  <speed>0.0</speed>
  <fix>3d</fix>
</trkpt>
<trkpt lat="40.0728422" lon="-105.2305752">
  <ele>1586.18</ele>
  <time>2026-08-27T18:27:46Z</time>
  <course>11.31</course>
  <speed>0.01414213562373095</speed>
  <fix>3d</fix>
</trkpt>
<trkpt lat="40.0728424" lon="-105.2305753">
  <ele>1586.09</ele>
  <time>2026-08-27T18:27:46Z</time>
  <course>14.76</course>
  <speed>0.0</speed>
  <fix>3d</fix>
</trkpt>
<trkpt lat="40.0728422" lon="-105.2305752">
  <ele>1586.18</ele>
  <time>2026-08-27T18:27:46Z</time>
  <course>11.31</course>
  <speed>0.01414213562373095</speed>
  <fix>3d</fix>
</trkpt>
<trkpt lat="40.0728424" lon="-105.2305753">
  <ele>1586.09</ele>
  <time>2026-08-27T18:27:46Z</time>
  <course>15.02</course>
  <speed>0.0</speed>
  <fix>3d</fix>
</trkpt>
<trkpt lat="40.0728422" lon="-105.2305752">
  <ele>1586.18</ele>
  <time>2026-08-27T18:27:46Z</time>
  <course>11.31</course>
  <speed>0.01414213562373095</speed>
  <fix>3d</fix>
</trkpt>
<trkpt lat="40.0728424" lon="-105.2305753">
  <ele>1586.09</ele>
  <time>2026-08-27T18:27:46Z</time>
  <course>15.06</course>
  <speed>0.0</speed>
  <fix>3d</fix>
</trkpt>
<trkpt lat="40.0728422" lon="-105.2305752">
  <ele>1586.18</ele>
  <time>2026-08-27T18:27:46Z</time>
  <course>11.3</course>
  <speed>0.01414213562373095</speed>
  <fix>3d</fix>
</trkpt>
<trkpt lat="40.0728424" lon="-105.2305753">
  <ele>1586.09</ele>
  <time>2026-08-27T18:27:46Z</time>
  <course>15.06</course>
  <speed>0.0</speed>
  <fix>3d</fix>
</trkpt>
<trkpt lat="40.0728422" lon="-105.2305752">
  <ele>1586.18</ele>
  <time>2026-08-27T18:27:46Z</time>
  <course>11.3</course>
  <speed>0.01414213562373095</speed>
  <fix>3d</fix>
</trkpt>
<trkpt lat="40.0728424" lon="-105.2305753">
  <ele>1586.09</ele>
  <time>2026-08-27T18:27:46Z</time>
  <course>15.06</course>
  <speed>0.0</speed>
  <fix>3d</fix>
</trkpt>
<trkpt lat="40.0728422" lon="-105.2305752">
  <ele>1586.18</ele>
  <time>2026-08-27T18:27:46Z</time>
  <course>11.29</course>
  <speed>0.01414213562373095</speed>
  <fix>3d</fix>
</trkpt>
<trkpt lat="40.0728424" lon="-105.2305753">
  <ele>1586.09</ele>
  <time>2026-08-27T18:27:46Z</time>
  <course>15.06</course>
  <speed>0.0</speed>
  <fix>3d</fix>
</trkpt>
<trkpt lat="40.0728422" lon="-105.2305752">
  <ele>1586.18</ele>
  <time>2026-08-27T18:27:46Z</time>
  <course>11.29</course>
  <speed>0.01414213562373095</speed>
  <fix>3d</fix>
</trkpt>
<trkpt lat="40.0728424" lon="-105.2305753">
  <ele>1586.09</ele>
  <time>2026-08-27T18:27:46Z</time>
  <course>15.06</course>
  <speed>0.0</speed>
  <fix>3d</fix>
</trkpt>
<trkpt lat="40.0728422" lon="-105.2305752">
  <ele>1586.18</ele>
  <time>2026-08-27T18:27:46Z</time>
  <course>11.29</course>
  <speed>0.01414213562373095</speed>
  <fix>3d</fix>
</trkpt>
<trkpt lat="40.0728424" lon="-105.2305753">
  <ele>1586.09</ele>
  <time>2026-08-27T18:27:46Z</time>
  <course>15.06</course>
  <speed>0.0</speed>
  <fix>3d</fix>
</trkpt>
<trkpt lat="40.0728422" lon="-105.2305752">
  <ele>1586.18</ele>
  <time>2026-08-27T18:27:46Z</time>
  <course>11.28</course>
  <speed>0.01414213562373095</speed>
  <fix>3d</fix>
</trkpt>
<trkpt lat="40.0728424" lon="-105.2305753">
  <ele>1586.09</ele>
  <time>2026-08-27T18:27:46Z</time>
  <course>15.06</course>
  <speed>0.0</speed>
  <fix>3d</fix>
</trkpt>
<trkpt lat="40.0728422" lon="-105.2305752">
  <ele>1586.18</ele>
  <time>2026-08-27T18:27:46Z</time>
  <course>11.28</course>
  <speed>0.01414213562373095</speed>
  <fix>3d</fix>
</trkpt>
<trkpt lat="40.0728424" lon="-105.2305753">
  <ele>1586.09</ele>
  <time>2026-08-27T18:27:46Z</time>
  <course>15.06</course>
  <speed>0.0</speed>
  <fix>3d</fix>
</trkpt>
<trkpt lat="40.0728422" lon="-105.2305752">
  <ele>1586.18</ele>
  <time>2026-08-27T18:27:46Z</time>
  <course>11.27</course>
  <speed>0.01414213562373095</speed>
  <fix>3d</fix>
</trkpt>
<trkpt lat="40.0728424" lon="-105.2305753">
  <ele>1586.09</ele>
  <time>2026-08-27T18:27:46Z</time>
  <course>15.06</course>
  <speed>0.0</speed>
  <fix>3d</fix>
</trkpt>
<trkpt lat="40.0728422" lon="-105.2305752">
  <ele>1586.17</ele>
  <time>2026-08-27T18:27:46Z</time>
  <course>11.27</course>
  <speed>0.01414213562373095</speed>
  <fix>3d</fix>
</trkpt>
<trkpt lat="40.0728424" lon="-105.2305753">
  <ele>1586.09</ele>
  <time>2026-08-27T18:27:46Z</time>
  <course>15.06</course>
  <speed>0.0</speed>
  <fix>3d</fix>
</trkpt>
<trkpt lat="40.0728422" lon="-105.2305752">
  <ele>1586.18</ele>
  <time>2026-08-27T18:27:46Z</time>
  <course>11.27</course>
  <speed>0.01414213562373095</speed>
  <fix>3d</fix>
</trkpt>
<trkpt lat="40.0728424" lon="-105.2305753">
  <ele>1586.09</ele>
  <time>2026-08-27T18:27:46Z</time>
  <course>15.06</course>
  <speed>0.0</speed>
  <fix>3d</fix>
</trkpt>
<trkpt lat="40.0728422" lon="-105.2305752">
  <ele>1586.18</ele>
  <time>2026-08-27T18:27:46Z</time>
  <course>11.26</course>
  <speed>0.01414213562373095</speed>
  <fix>3d</fix>
</trkpt>
<trkpt lat="40.0728424" lon="-105.2305753">
  <ele>1586.09</ele>
  <time>2026-08-27T18:27:46Z</time>
  <course>15.06</course>
  <speed>0.0</speed>
  <fix>3d</fix>
</trkpt>
<trkpt lat="40.0728422" lon="-105.2305752">
  <ele>1586.18</ele>
  <time>2026-08-27T18:27:46Z</time>
  <course>11.26</course>
  <speed>0.01414213562373095</speed>
  <fix>3d</fix>
</trkpt>
<trkpt lat="40.0728424" lon="-105.2305753">
  <ele>1586.09</ele>
  <time>2026-08-27T18:27:46Z</time>
  <course>15.06</course>
  <speed>0.0</speed>
  <fix>3d</fix>
</trkpt>
<trkpt lat="40.0728422" lon="-105.2305752">
  <ele>1586.18</ele>
  <time>2026-08-27T18:27:46Z</time>
  <course>11.25</course>
  <speed>0.01414213562373095</speed>
  <fix>3d</fix>
</trkpt>
<trkpt lat="40.0728424" lon="-105.2305753">
  <ele>1586.09</ele>
  <time>2026-08-27T18:27:46Z</time>
  <course>15.06</course>
  <speed>0.0</speed>
  <fix>3d</fix>
</trkpt>
<trkpt lat="40.0728422" lon="-105.2305752">
  <ele>1586.18</ele>
  <time>2026-08-27T18:27:46Z</time>
  <course>11.25</course>
  <speed>0.01414213562373095</speed>
  <fix>3d</fix>
</trkpt>
<trkpt lat="40.0728424" lon="-105.2305753">
  <ele>1586.09</ele>
  <time>2026-08-27T18:27:46Z</time>
  <course>15.06</course>
  <speed>0.0</speed>
  <fix>3d</fix>
</trkpt>
<trkpt lat="40.0728422" lon="-105.2305752">
  <ele>1586.18</ele>
  <time>2026-08-27T18:27:46Z</time>
  <course>11.25</course>
  <speed>0.01414213562373095</speed>
  <fix>3d</fix>
</trkpt>
<trkpt lat="40.0728424" lon="-105.2305753">
  <ele>1586.09</ele>
  <time>2026-08-27T18:27:46Z</time>
  <course>15.06</course>
  <speed>0.0</speed>
  <fix>3d</fix>
</trkpt>
<trkpt lat="40.0728422" lon="-105.2305752">
  <ele>1586.19</ele>
  <time>2026-08-27T18:27:46Z</time>
  <course>11.24</course>
  <speed>0.01414213562373095</speed>
  <fix>3d</fix>
</trkpt>
<trkpt lat="40.0728424" lon="-105.2305753">
  <ele>1586.09</ele>
  <time>2026-08-27T18:27:46Z</time>
  <course>15.06</course>
  <speed>0.0</speed>
  <fix>3d</fix>
</trkpt>
<trkpt lat="40.0728422" lon="-105.2305752">
  <ele>1586.19</ele>
  <time>2026-08-27T18:27:46Z</time>
  <course>11.24</course>
  <speed>0.01414213562373095</speed>
  <fix>3d</fix>
</trkpt>
<trkpt lat="40.0728424" lon="-105.2305753">
  <ele>1586.09</ele>
  <time>2026-08-27T18:27:46Z</time>
  <course>15.06</course>
  <speed>0.0</speed>
  <fix>3d</fix>
</trkpt>
<trkpt lat="40.0728422" lon="-105.2305752">
  <ele>1586.19</ele>
  <time>2026-08-27T18:27:46Z</time>
  <course>11.23</course>
  <speed>0.01414213562373095</speed>
  <fix>3d</fix>
</trkpt>
<trkpt lat="40.0728424" lon="-105.2305753">
  <ele>1586.09</ele>
  <time>2026-08-27T18:27:46Z</time>
  <course>15.06</course>
  <speed>0.0</speed>
  <fix>3d</fix>
</trkpt>
<trkpt lat="40.0728422" lon="-105.2305752">
  <ele>1586.19</ele>
  <time>2026-08-27T18:27:46Z</time>
  <course>11.23</course>
  <speed>0.01414213562373095</speed>
  <fix>3d</fix>
</trkpt>
<trkpt lat="40.0728424" lon="-105.2305753">
  <ele>1586.09</ele>
  <time>2026-08-27T18:27:46Z</time>
  <course>15.06</course>
  <speed>0.0</speed>
  <fix>3d</fix>
</trkpt>
<trkpt lat="40.0728422" lon="-105.2305752">
  <ele>1586.19</ele>
  <time>2026-08-27T18:27:46Z</time>
  <course>11.22</course>
  <speed>0.01414213562373095</speed>
  <fix>3d</fix>
</trkpt>
<trkpt lat="40.0728424" lon="-105.2305753">
  <ele>1586.09</ele>
  <time>2026-08-27T18:27:46Z</time>
  <course>15.06</course>
  <speed>0.0</speed>
  <fix>3d</fix>
</trkpt>
<trkpt lat="40.0728422" lon="-105.2305752">
  <ele>1586.19</ele>
  <time>2026-08-27T18:27:46Z</time>
  <course>11.22</course>
  <speed>0.01414213562373095</speed>
  <fix>3d</fix>
</trkpt>
<trkpt lat="40.0728424" lon="-105.2305753">
  <ele>1586.09</ele>
  <time>2026-08-27T18:27:46Z</time>
  <course>15.06</course>
  <speed>0.0</speed>
  <fix>3d</fix>
</trkpt>
<trkpt lat="40.0728422" lon="-105.2305752">
  <ele>1586.19</ele>
  <time>2026-08-27T18:27:46Z</time>
  <course>11.3</course>
  <speed>0.01414213562373095</speed>
  <fix>3d</fix>
</trkpt>
<trkpt lat="40.0728424" lon="-105.2305753">
  <ele>1586.09</ele>
  <time>2026-08-27T18:27:46Z</time>
  <course>15.06</course>
  <speed>0.0</speed>
  <fix>3d</fix>
</trkpt>
<trkpt lat="40.0728422" lon="-105.2305752">
  <ele>1586.2</ele>
  <time>2026-08-27T18:27:46Z</time>
  <course>11.65</course>
  <speed>0.01414213562373095</speed>
  <fix>3d</fix>
</trkpt>
<trkpt lat="40.0728424" lon="-105.2305753">
  <ele>1586.09</ele>
  <time>2026-08-27T18:27:46Z</time>
  <course>15.06</course>
  <speed>0.0</speed>
  <fix>3d</fix>
</trkpt>
<trkpt lat="40.0728422" lon="-105.2305752">
  <ele>1586.2</ele>
  <time>2026-08-27T18:27:46Z</time>
  <course>12.02</course>
  <speed>0.01414213562373095</speed>
  <fix>3d</fix>
</trkpt>
<trkpt lat="40.0728424" lon="-105.2305753">
  <ele>1586.09</ele>
  <time>2026-08-27T18:27:46Z</time>
  <course>15.06</course>
  <speed>0.0</speed>
  <fix>3d</fix>
</trkpt>
<trkpt lat="40.0728422" lon="-105.2305752">
  <ele>1586.19</ele>
  <time>2026-08-27T18:27:46Z</time>
  <course>12.33</course>
  <speed>0.01414213562373095</speed>
  <fix>3d</fix>
</trkpt>
<trkpt lat="40.0728424" lon="-105.2305753">
  <ele>1586.09</ele>
  <time>2026-08-27T18:27:46Z</time>
  <course>15.06</course>
  <speed>0.0</speed>
  <fix>3d</fix>
</trkpt>
<trkpt lat="40.0728422" lon="-105.2305752">
  <ele>1586.19</ele>
  <time>2026-08-27T18:27:46Z</time>
  <course>12.62</course>
  <speed>0.01414213562373095</speed>
  <fix>3d</fix>
</trkpt>
<trkpt lat="40.0728424" lon="-105.2305753">
  <ele>1586.09</ele>
  <time>2026-08-27T18:27:46Z</time>
  <course>15.06</course>
  <speed>0.0</speed>
  <fix>3d</fix>
</trkpt>
<trkpt lat="40.0728422" lon="-105.2305752">
  <ele>1586.18</ele>
  <time>2026-08-27T18:27:46Z</time>
  <course>12.89</course>
  <speed>0.01414213562373095</speed>
  <fix>3d</fix>
</trkpt>
<trkpt lat="40.0728424" lon="-105.2305753">
  <ele>1586.09</ele>
  <time>2026-08-27T18:27:46Z</time>
  <course>15.06</course>
  <speed>0.0</speed>
  <fix>3d</fix>
</trkpt>
<trkpt lat="40.0728422" lon="-105.2305752">
  <ele>1586.18</ele>
  <time>2026-08-27T18:27:46Z</time>
  <course>13.14</course>
  <speed>0.01414213562373095</speed>
  <fix>3d</fix>
</trkpt>
<trkpt lat="40.0728424" lon="-105.2305753">
  <ele>1586.09</ele>
  <time>2026-08-27T18:27:46Z</time>
  <course>15.06</course>
  <speed>0.0</speed>
  <fix>3d</fix>
</trkpt>
<trkpt lat="40.0728422" lon="-105.2305752">
  <ele>1586.18</ele>
  <time>2026-08-27T18:27:46Z</time>
  <course>13.37</course>
  <speed>0.01414213562373095</speed>
  <fix>3d</fix>
</trkpt>
<trkpt lat="40.0728424" lon="-105.2305753">
  <ele>1586.09</ele>
  <time>2026-08-27T18:27:46Z</time>
  <course>15.06</course>
  <speed>0.0</speed>
  <fix>3d</fix>
</trkpt>
<trkpt lat="40.0728422" lon="-105.2305752">
  <ele>1586.18</ele>
  <time>2026-08-27T18:27:46Z</time>
  <course>13.58</course>
  <speed>0.01414213562373095</speed>
  <fix>3d</fix>
</trkpt>
<trkpt lat="40.0728424" lon="-105.2305753">
  <ele>1586.09</ele>
  <time>2026-08-27T18:27:46Z</time>
  <course>15.06</course>
  <speed>0.0</speed>
  <fix>3d</fix>
</trkpt>
<trkpt lat="40.0728422" lon="-105.2305752">
  <ele>1586.18</ele>
  <time>2026-08-27T18:27:46Z</time>
  <course>13.78</course>
  <speed>0.01414213562373095</speed>
  <fix>3d</fix>
</trkpt>
<trkpt lat="40.0728424" lon="-105.2305753">
  <ele>1586.09</ele>
  <time>2026-08-27T18:27:46Z</time>
  <course>15.06</course>
  <speed>0.0</speed>
  <fix>3d</fix>
</trkpt>
<trkpt lat="-34.9942872" lon="147.6104455">
  <ele>576.02</ele>
  <time>2026-08-27T18:27:48Z</time>
  <course>161.19</course>
  <speed>0.0</speed>
  <fix>3d</fix>
</trkpt>
<trkpt lat="-35.362881" lon="149.165222">
  <ele>582.09</ele>
  <time>2026-08-27T18:27:48Z</time>
  <course>79.27</course>
  <speed>0.0</speed>
  <fix>3d</fix>
</trkpt>
<trkpt lat="-35.362881" lon="149.165222">
  <ele>582.09</ele>
  <time>2026-08-27T18:27:48Z</time>
  <course>120.83</course>
  <speed>0.0</speed>
  <fix>3d</fix>
</trkpt>
<trkpt lat="-35.362881" lon="149.165222">
  <ele>582.09</ele>
  <time>2026-08-27T18:27:48Z</time>
  <course>79.83</course>
  <speed>0.0</speed>
  <fix>3d</fix>
</trkpt>
<trkpt lat="-35.362881" lon="149.165222">
  <ele>582.09</ele>
  <time>2026-08-27T18:27:48Z</time>
  <course>47.47</course>
  <speed>0.0</speed>
  <fix>3d</fix>
</trkpt>
<trkpt lat="-35.362881" lon="149.165222">
  <ele>582.09</ele>
  <time>2026-08-27T18:27:48Z</time>
  <course>81.05</course>
  <speed>0.0</speed>
  <fix>3d</fix>
</trkpt>
<trkpt lat="-35.362881" lon="149.165222">
  <ele>582.09</ele>
  <time>2026-08-27T18:27:48Z</time>
  <course>225.39</course>
  <speed>0.0</speed>
  <fix>3d</fix>
</trkpt>
<trkpt lat="-35.362881" lon="149.165222">
  <ele>582.09</ele>
  <time>2026-08-27T18:27:48Z</time>
  <course>82.21</course>
  <speed>0.0</speed>
  <fix>3d</fix>
</trkpt>
<trkpt lat="-35.362881" lon="149.165222">
  <ele>582.09</ele>
  <time>2026-08-27T18:27:48Z</time>
  <course>150.48</course>
  <speed>0.0</speed>
  <fix>3d</fix>
</trkpt>
<trkpt lat="-35.362881" lon="149.165222">
  <ele>582.09</ele>
  <time>2026-08-27T18:27:48Z</time>
  <course>83.26</course>
  <speed>0.0</speed>
  <fix>3d</fix>
</trkpt>
<trkpt lat="-35.362881" lon="149.165222">
  <ele>582.09</ele>
  <time>2026-08-27T18:27:48Z</time>
  <course>83.22</course>
  <speed>0.0</speed>
  <fix>3d</fix>
</trkpt>
<trkpt lat="-35.362881" lon="149.165222">
  <ele>582.09</ele>
  <time>2026-08-27T18:27:48Z</time>
  <course>84.24</course>
  <speed>0.0</speed>
  <fix>3d</fix>
</trkpt>
<trkpt lat="-35.362881" lon="149.165222">
  <ele>582.09</ele>
  <time>2026-08-27T18:27:48Z</time>
  <course>59.27</course>
  <speed>0.0</speed>
  <fix>3d</fix>
</trkpt>
<trkpt lat="-35.362881" lon="149.165222">
  <ele>582.09</ele>
  <time>2026-08-27T18:27:48Z</time>
  <course>85.18</course>
  <speed>0.0</speed>
  <fix>3d</fix>
</trkpt>
<trkpt lat="-35.362881" lon="149.165222">
  <ele>582.09</ele>
  <time>2026-08-27T18:27:48Z</time>
  <course>133.53</course>
  <speed>0.0</speed>
  <fix>3d</fix>
</trkpt>
<trkpt lat="-35.362881" lon="149.165222">
  <ele>582.09</ele>
  <time>2026-08-27T18:27:48Z</time>
  <course>86.07</course>
  <speed>0.0</speed>
  <fix>3d</fix>
</trkpt>
<trkpt lat="-35.362881" lon="149.165222">
  <ele>582.09</ele>
  <time>2026-08-27T18:27:48Z</time>
  <course>179.41</course>
  <speed>0.0</speed>
  <fix>3d</fix>
</trkpt>
<trkpt lat="-35.362881" lon="149.165222">
  <ele>582.09</ele>
  <time>2026-08-27T18:27:48Z</time>
  <course>86.91</course>
  <speed>0.0</speed>
  <fix>3d</fix>
</trkpt>
<trkpt lat="-35.362881" lon="149.165222">
  <ele>582.09</ele>
  <time>2026-08-27T18:27:48Z</time>
  <course>316.64</course>
  <speed>0.0</speed>
  <fix>3d</fix>
</trkpt>
<trkpt lat="-35.362881" lon="149.165222">
  <ele>582.09</ele>
  <time>2026-08-27T18:27:48Z</time>
  <course>87.68</course>
  <speed>0.0</speed>
  <fix>3d</fix>
</trkpt>
<trkpt lat="-35.362881" lon="149.165222">
  <ele>582.09</ele>
  <time>2026-08-27T18:27:48Z</time>
  <course>34.84</course>
  <speed>0.0</speed>
  <fix>3d</fix>
</trkpt>
<trkpt lat="-35.362881" lon="149.165222">
  <ele>582.09</ele>
  <time>2026-08-27T18:27:48Z</time>
  <course>88.4</course>
  <speed>0.0</speed>
  <fix>3d</fix>
</trkpt>
<trkpt lat="-35.362881" lon="149.165222">
  <ele>582.09</ele>
  <time>2026-08-27T18:27:48Z</time>
  <course>266.45</course>
  <speed>0.0</speed>
  <fix>3d</fix>
</trkpt>
<trkpt lat="-35.362881" lon="149.165222">
  <ele>582.09</ele>
  <time>2026-08-27T18:27:48Z</time>
  <course>89.06</course>
  <speed>0.0</speed>
  <fix>3d</fix>
</trkpt>
<trkpt lat="-35.362881" lon="149.165222">
  <ele>582.09</ele>
  <time>2026-08-27T18:27:48Z</time>
  <course>22.75</course>
  <speed>0.0</speed>
  <fix>3d</fix>
</trkpt>
<trkpt lat="-35.362881" lon="149.165222">
  <ele>582.09</ele>
  <time>2026-08-27T18:27:48Z</time>
  <course>89.67</course>
  <speed>0.0</speed>
  <fix>3d</fix>
</trkpt>
<trkpt lat="-35.362881" lon="149.165222">
  <ele>582.09</ele>
  <time>2026-08-27T18:27:48Z</time>
  <course>95.75</course>
  <speed>0.0</speed>
  <fix>3d</fix>
</trkpt>
<trkpt lat="-35.362881" lon="149.165222">
  <ele>582.09</ele>
  <time>2026-08-27T18:27:48Z</time>
  <course>90.24</course>
  <speed>0.0</speed>
  <fix>3d</fix>
</trkpt>
<trkpt lat="-35.362881" lon="149.165222">
  <ele>582.09</ele>
  <time>2026-08-27T18:27:48Z</time>
  <course>130.83</course>
  <speed>0.0</speed>
  <fix>3d</fix>
</trkpt>
<trkpt lat="-35.362881" lon="149.165222">
  <ele>582.09</ele>
  <time>2026-08-27T18:27:48Z</time>
  <course>90.77</course>
  <speed>0.0</speed>
  <fix>3d</fix>
</trkpt>
<trkpt lat="-35.362881" lon="149.165222">
  <ele>582.09</ele>
  <time>2026-08-27T18:27:48Z</time>
  <course>258.85</course>
  <speed>0.0</speed>
  <fix>3d</fix>
</trkpt>
<trkpt lat="-35.362881" lon="149.165222">
  <ele>582.09</ele>
  <time>2026-08-27T18:27:48Z</time>
  <course>91.26</course>
  <speed>0.0</speed>
  <fix>3d</fix>
</trkpt>
<trkpt lat="-35.362881" lon="149.165222">
  <ele>582.09</ele>
  <time>2026-08-27T18:27:48Z</time>
  <course>52.17</course>
  <speed>0.0</speed>
  <fix>3d</fix>
</trkpt>
<trkpt lat="-35.362881" lon="149.165222">
  <ele>582.09</ele>
  <time>2026-08-27T18:27:48Z</time>
  <course>91.7</course>
  <speed>0.0</speed>
  <fix>3d</fix>
</trkpt>
<trkpt lat="-35.362881" lon="149.165222">
  <ele>582.09</ele>
  <time>2026-08-27T18:27:48Z</time>
  <course>110.58</course>
  <speed>0.0</speed>
  <fix>3d</fix>
</trkpt>
<trkpt lat="-35.362881" lon="149.165222">
  <ele>582.09</ele>
  <time>2026-08-27T18:27:48Z</time>
  <course>92.11</course>
  <speed>0.0</speed>
  <fix>3d</fix>
</trkpt>
<trkpt lat="-35.362881" lon="149.165222">
  <ele>582.09</ele>
  <time>2026-08-27T18:27:48Z</time>
  <course>3.18</course>
  <speed>0.0</speed>
  <fix>3d</fix>
</trkpt>
<trkpt lat="-35.362881" lon="149.165222">
  <ele>582.09</ele>
  <time>2026-08-27T18:27:48Z</time>
  <course>92.49</course>
  <speed>0.0</speed>
  <fix>3d</fix>
</trkpt>
<trkpt lat="-35.362881" lon="149.165222">
  <ele>582.09</ele>
  <time>2026-08-27T18:27:48Z</time>
  <course>354.61</course>
  <speed>0.0</speed>
  <fix>3d</fix>
</trkpt>
<trkpt lat="-35.362881" lon="149.165222">
  <ele>582.09</ele>
  <time>2026-08-27T18:27:48Z</time>
  <course>92.83</course>
  <speed>0.0</speed>
  <fix>3d</fix>
</trkpt>
<trkpt lat="-35.362881" lon="149.165222">
  <ele>582.09</ele>
  <time>2026-08-27T18:27:48Z</time>
  <course>16.34</course>
  <speed>0.0</speed>
  <fix>3d</fix>
</trkpt>
<trkpt lat="-35.362881" lon="149.165222">
  <ele>582.09</ele>
  <time>2026-08-27T18:27:48Z</time>
  <course>93.14</course>
  <speed>0.0</speed>
  <fix>3d</fix>
</trkpt>
<trkpt lat="-35.362881" lon="149.165222">
  <ele>582.09</ele>
  <time>2026-08-27T18:27:48Z</time>
  <course>172.89</course>
  <speed>0.0</speed>
  <fix>3d</fix>
</trkpt>
<trkpt lat="-35.362881" lon="149.165222">
  <ele>582.09</ele>
  <time>2026-08-27T18:27:48Z</time>
  <course>93.43</course>
  <speed>0.0</speed>
  <fix>3d</fix>
</trkpt>
<trkpt lat="-35.362881" lon="149.165222">
  <ele>582.09</ele>
  <time>2026-08-27T18:27:48Z</time>
  <course>299.66</course>
  <speed>0.0</speed>
  <fix>3d</fix>
</trkpt>
<trkpt lat="-35.362881" lon="149.165222">
  <ele>582.09</ele>
  <time>2026-08-27T18:27:48Z</time>
  <course>93.7</course>
  <speed>0.0</speed>
  <fix>3d</fix>
</trkpt>
<trkpt lat="-35.362881" lon="149.165222">
  <ele>582.09</ele>
  <time>2026-08-27T18:27:48Z</time>
  <course>356.71</course>
  <speed>0.0</speed>
  <fix>3d</fix>
</trkpt>
<trkpt lat="-35.362881" lon="149.165222">
  <ele>582.09</ele>
  <time>2026-08-27T18:27:48Z</time>
  <course>93.94</course>
  <speed>0.0</speed>
  <fix>3d</fix>
</trkpt>
<trkpt lat="-35.362881" lon="149.165222">
  <ele>582.09</ele>
  <time>2026-08-27T18:27:48Z</time>
  <course>0.72</course>
  <speed>0.0</speed>
  <fix>3d</fix>
</trkpt>
<trkpt lat="-35.362881" lon="149.165222">
  <ele>582.09</ele>
  <time>2026-08-27T18:27:48Z</time>
  <course>94.16</course>
  <speed>0.0</speed>
  <fix>3d</fix>
</trkpt>
<trkpt lat="-35.362881" lon="149.165222">
  <ele>582.09</ele>
  <time>2026-08-27T18:27:48Z</time>
  <course>355.2</course>
  <speed>0.0</speed>
  <fix>3d</fix>
</trkpt>
<trkpt lat="-35.362881" lon="149.165222">
  <ele>582.09</ele>
  <time>2026-08-27T18:27:48Z</time>
  <course>94.36</course>
  <speed>0.0</speed>
  <fix>3d</fix>
</trkpt>
<trkpt lat="-35.362881" lon="149.165222">
  <ele>582.09</ele>
  <time>2026-08-27T18:27:48Z</time>
  <course>355.53</course>
  <speed>0.0</speed>
  <fix>3d</fix>
</trkpt>
<trkpt lat="-35.362881" lon="149.165222">
  <ele>582.09</ele>
  <time>2026-08-27T18:27:48Z</time>
  <course>94.55</course>
  <speed>0.0</speed>
  <fix>3d</fix>
</trkpt>
<trkpt lat="-35.362881" lon="149.165222">
  <ele>582.09</ele>
  <time>2026-08-27T18:27:48Z</time>
  <course>356.19</course>
  <speed>0.0</speed>
  <fix>3d</fix>
</trkpt>
<trkpt lat="-35.362881" lon="149.165222">
  <ele>582.09</ele>
  <time>2026-08-27T18:27:48Z</time>
  <course>94.72</course>
  <speed>0.0</speed>
  <fix>3d</fix>
</trkpt>
<trkpt lat="-35.362881" lon="149.165222">
  <ele>582.09</ele>
  <time>2026-08-27T18:27:48Z</time>
  <course>356.08</course>
  <speed>0.0</speed>
  <fix>3d</fix>
</trkpt>
<trkpt lat="-35.362881" lon="149.165222">
  <ele>582.09</ele>
  <time>2026-08-27T18:27:48Z</time>
  <course>94.87</course>
  <speed>0.0</speed>
  <fix>3d</fix>
</trkpt>
<trkpt lat="-35.362881" lon="149.165222">
  <ele>582.09</ele>
  <time>2026-08-27T18:27:48Z</time>
  <course>356.01</course>
  <speed>0.0</speed>
  <fix>3d</fix>
</trkpt>
<trkpt lat="-35.362881" lon="149.165222">
  <ele>582.09</ele>
  <time>2026-08-27T18:27:48Z</time>
  <course>95.01</course>
  <speed>0.0</speed>
  <fix>3d</fix>
</trkpt>
<trkpt lat="-35.362881" lon="149.165222">
  <ele>582.09</ele>
  <time>2026-08-27T18:27:48Z</time>
  <course>356.03</course>
  <speed>0.0</speed>
  <fix>3d</fix>
</trkpt>
<trkpt lat="-35.362881" lon="149.165222">
  <ele>582.09</ele>
  <time>2026-08-27T18:27:48Z</time>
  <course>95.13</course>
  <speed>0.0</speed>
  <fix>3d</fix>
</trkpt>
<trkpt lat="-35.362881" lon="149.165222">
  <ele>582.09</ele>
  <time>2026-08-27T18:27:48Z</time>
  <course>356.04</course>
  <speed>0.0</speed>
  <fix>3d</fix>
</trkpt>
<trkpt lat="-35.362881" lon="149.165222">
  <ele>582.09</ele>
  <time>2026-08-27T18:27:48Z</time>
  <course>95.25</course>
  <speed>0.0</speed>
  <fix>3d</fix>
</trkpt>
<trkpt lat="-35.362881" lon="149.165222">
  <ele>582.09</ele>
  <time>2026-08-27T18:27:48Z</time>
  <course>356.03</course>
  <speed>0.0</speed>
  <fix>3d</fix>
</trkpt>
<trkpt lat="-35.362881" lon="149.165222">
  <ele>582.09</ele>
  <time>2026-08-27T18:27:48Z</time>
  <course>95.35</course>
  <speed>0.0</speed>
  <fix>3d</fix>
</trkpt>
<trkpt lat="-35.362881" lon="149.165222">
  <ele>582.09</ele>
  <time>2026-08-27T18:27:48Z</time>
  <course>356.03</course>
  <speed>0.0</speed>
  <fix>3d</fix>
</trkpt>
<trkpt lat="-35.362881" lon="149.165222">
  <ele>582.09</ele>
  <time>2026-08-27T18:27:48Z</time>
  <course>95.44</course>
  <speed>0.0</speed>
  <fix>3d</fix>
</trkpt>
<trkpt lat="-35.362881" lon="149.165222">
  <ele>582.09</ele>
  <time>2026-08-27T18:27:48Z</time>
  <course>356.03</course>
  <speed>0.0</speed>
  <fix>3d</fix>
</trkpt>
<trkpt lat="-35.362881" lon="149.165222">
  <ele>582.09</ele>
  <time>2026-08-27T18:27:48Z</time>
  <course>95.53</course>
  <speed>0.0</speed>
  <fix>3d</fix>
</trkpt>
<trkpt lat="-35.362881" lon="149.165222">
  <ele>582.09</ele>
  <time>2026-08-27T18:27:48Z</time>
  <course>356.03</course>
  <speed>0.0</speed>
  <fix>3d</fix>
</trkpt>
<trkpt lat="-35.362881" lon="149.165222">
  <ele>582.09</ele>
  <time>2026-08-27T18:27:48Z</time>
  <course>95.6</course>
  <speed>0.0</speed>
  <fix>3d</fix>
</trkpt>
<trkpt lat="-35.362881" lon="149.165222">
  <ele>582.09</ele>
  <time>2026-08-27T18:27:48Z</time>
  <course>356.03</course>
  <speed>0.0</speed>
  <fix>3d</fix>
</trkpt>
<trkpt lat="-35.362881" lon="149.165222">
  <ele>582.09</ele>
  <time>2026-08-27T18:27:48Z</time>
  <course>95.67</course>
  <speed>0.0</speed>
  <fix>3d</fix>
</trkpt>
<trkpt lat="-35.362881" lon="149.165222">
  <ele>582.09</ele>
  <time>2026-08-27T18:27:48Z</time>
  <course>356.03</course>
  <speed>0.0</speed>
  <fix>3d</fix>
</trkpt>
<trkpt lat="-35.362881" lon="149.165222">
  <ele>582.09</ele>
  <time>2026-08-27T18:27:48Z</time>
  <course>95.73</course>
  <speed>0.0</speed>
  <fix>3d</fix>
</trkpt>
<trkpt lat="-35.362881" lon="149.165222">
  <ele>582.09</ele>
  <time>2026-08-27T18:27:48Z</time>
  <course>356.03</course>
  <speed>0.0</speed>
  <fix>3d</fix>
</trkpt>
<trkpt lat="-35.362881" lon="149.165222">
  <ele>582.09</ele>
  <time>2026-08-27T18:27:48Z</time>
  <course>95.79</course>
  <speed>0.0</speed>
  <fix>3d</fix>
</trkpt>
<trkpt lat="-35.362881" lon="149.165222">
  <ele>582.09</ele>
  <time>2026-08-27T18:27:48Z</time>
  <course>356.03</course>
  <speed>0.0</speed>
  <fix>3d</fix>
</trkpt>
<trkpt lat="-35.362881" lon="149.165222">
  <ele>582.09</ele>
  <time>2026-08-27T18:27:48Z</time>
  <course>95.83</course>
  <speed>0.0</speed>
  <fix>3d</fix>
</trkpt>
<trkpt lat="-35.362881" lon="149.165222">
  <ele>582.09</ele>
  <time>2026-08-27T18:27:48Z</time>
  <course>356.03</course>
  <speed>0.0</speed>
  <fix>3d</fix>
</trkpt>
<trkpt lat="-35.362881" lon="149.165222">
  <ele>582.09</ele>
  <time>2026-08-27T18:27:48Z</time>
  <course>95.88</course>
  <speed>0.0</speed>
  <fix>3d</fix>
</trkpt>
<trkpt lat="-35.362881" lon="149.165222">
  <ele>582.09</ele>
  <time>2026-08-27T18:27:48Z</time>
  <course>356.03</course>
  <speed>0.0</speed>
  <fix>3d</fix>
</trkpt>
<trkpt lat="-35.362881" lon="149.165222">
  <ele>582.09</ele>
  <time>2026-08-27T18:27:48Z</time>
  <course>95.91</course>
  <speed>0.0</speed>
  <fix>3d</fix>
</trkpt>
<trkpt lat="-35.362881" lon="149.165222">
  <ele>582.09</ele>
  <time>2026-08-27T18:27:48Z</time>
  <course>356.03</course>
  <speed>0.0</speed>
  <fix>3d</fix>
</trkpt>
<trkpt lat="-35.362881" lon="149.165222">
  <ele>582.09</ele>
  <time>2026-08-27T18:27:48Z</time>
  <course>95.95</course>
  <speed>0.0</speed>
  <fix>3d</fix>
</trkpt>
<trkpt lat="-35.362881" lon="149.165222">
  <ele>582.09</ele>
  <time>2026-08-27T18:27:48Z</time>
  <course>356.03</course>
  <speed>0.0</speed>
  <fix>3d</fix>
</trkpt>
<trkpt lat="-35.362881" lon="149.165222">
  <ele>582.09</ele>
  <time>2026-08-27T18:27:48Z</time>
  <course>95.98</course>
  <speed>0.0</speed>
  <fix>3d</fix>
</trkpt>
<trkpt lat="-35.362881" lon="149.165222">
  <ele>582.09</ele>
  <time>2026-08-27T18:27:48Z</time>
  <course>356.03</course>
  <speed>0.0</speed>
  <fix>3d</fix>
</trkpt>
<trkpt lat="-35.362881" lon="149.165222">
  <ele>582.09</ele>
  <time>2026-08-27T18:27:48Z</time>
  <course>96.0</course>
  <speed>0.0</speed>
  <fix>3d</fix>
</trkpt>
<trkpt lat="-35.362881" lon="149.165222">
  <ele>582.09</ele>
  <time>2026-08-27T18:27:48Z</time>
  <course>356.03</course>
  <speed>0.0</speed>
  <fix>3d</fix>
</trkpt>
<trkpt lat="-35.362881" lon="149.165222">
  <ele>582.09</ele>
  <time>2026-08-27T18:27:48Z</time>
  <course>96.03</course>
  <speed>0.0</speed>
  <fix>3d</fix>
</trkpt>
<trkpt lat="-35.362881" lon="149.165222">
  <ele>582.09</ele>
  <time>2026-08-27T18:27:48Z</time>
  <course>356.03</course>
  <speed>0.0</speed>
  <fix>3d</fix>
</trkpt>
<trkpt lat="-35.362881" lon="149.165222">
  <ele>582.09</ele>
  <time>2026-08-27T18:27:48Z</time>
  <course>96.04</course>
  <speed>0.0</speed>
  <fix>3d</fix>
</trkpt>
<trkpt lat="-35.362881" lon="149.165222">
  <ele>582.09</ele>
  <time>2026-08-27T18:27:48Z</time>
  <course>356.03</course>
  <speed>0.0</speed>
  <fix>3d</fix>
</trkpt>
<trkpt lat="-35.362881" lon="149.165222">
  <ele>582.09</ele>
  <time>2026-08-27T18:27:48Z</time>
  <course>96.06</course>
  <speed>0.0</speed>
  <fix>3d</fix>
</trkpt>
<trkpt lat="-35.362881" lon="149.165222">
  <ele>582.09</ele>
  <time>2026-08-27T18:27:48Z</time>
  <course>356.03</course>
  <speed>0.0</speed>
  <fix>3d</fix>
</trkpt>
<trkpt lat="-35.362881" lon="149.165222">
  <ele>582.09</ele>
  <time>2026-08-27T18:27:48Z</time>
  <course>96.07</course>
  <speed>0.0</speed>
  <fix>3d</fix>
</trkpt>
<trkpt lat="-35.362881" lon="149.165222">
  <ele>582.09</ele>
  <time>2026-08-27T18:27:48Z</time>
  <course>356.03</course>
  <speed>0.0</speed>
  <fix>3d</fix>
</trkpt>
<trkpt lat="-35.362881" lon="149.165222">
  <ele>582.09</ele>
  <time>2026-08-27T18:27:48Z</time>
  <course>96.08</course>
  <speed>0.0</speed>
  <fix>3d</fix>
</trkpt>
<trkpt lat="-35.362881" lon="149.165222">
  <ele>582.09</ele>
  <time>2026-08-27T18:27:48Z</time>
  <course>356.03</course>
  <speed>0.0</speed>
  <fix>3d</fix>
</trkpt>
<trkpt lat="-35.362881" lon="149.165222">
  <ele>582.09</ele>
  <time>2026-08-27T18:27:48Z</time>
  <course>96.1</course>
  <speed>0.0</speed>
  <fix>3d</fix>
</trkpt>
<trkpt lat="-35.362881" lon="149.165222">
  <ele>582.09</ele>
  <time>2026-08-27T18:27:48Z</time>
  <course>356.03</course>
  <speed>0.0</speed>
  <fix>3d</fix>
</trkpt>
<trkpt lat="-35.362881" lon="149.165222">
  <ele>582.09</ele>
  <time>2026-08-27T18:27:48Z</time>
  <course>96.11</course>
  <speed>0.0</speed>
  <fix>3d</fix>
</trkpt>
<trkpt lat="-35.362881" lon="149.165222">
  <ele>582.09</ele>
  <time>2026-08-27T18:27:48Z</time>
  <course>356.03</course>
  <speed>0.0</speed>
  <fix>3d</fix>
</trkpt>
<trkpt lat="-35.362881" lon="149.165222">
  <ele>582.09</ele>
  <time>2026-08-27T18:27:48Z</time>
  <course>96.11</course>
  <speed>0.0</speed>
  <fix>3d</fix>
</trkpt>
<trkpt lat="-35.362881" lon="149.165222">
  <ele>582.09</ele>
  <time>2026-08-27T18:27:48Z</time>
  <course>356.03</course>
  <speed>0.0</speed>
  <fix>3d</fix>
</trkpt>
<trkpt lat="-35.362881" lon="149.165222">
  <ele>582.09</ele>
  <time>2026-08-27T18:27:48Z</time>
  <course>96.12</course>
  <speed>0.0</speed>
  <fix>3d</fix>
</trkpt>
<trkpt lat="-35.362881" lon="149.165222">
  <ele>582.09</ele>
  <time>2026-08-27T18:27:48Z</time>
  <course>356.03</course>
  <speed>0.0</speed>
  <fix>3d</fix>
</trkpt>
<trkpt lat="-35.362881" lon="149.165222">
  <ele>582.09</ele>
  <time>2026-08-27T18:27:48Z</time>
  <course>96.11</course>
  <speed>0.0</speed>
  <fix>3d</fix>
</trkpt>
<trkpt lat="-35.362881" lon="149.165222">
  <ele>582.09</ele>
  <time>2026-08-27T18:27:48Z</time>
  <course>356.03</course>
  <speed>0.0</speed>
  <fix>3d</fix>
</trkpt>
<trkpt lat="-35.362881" lon="149.165222">
  <ele>582.09</ele>
  <time>2026-08-27T18:27:48Z</time>
  <course>96.11</course>
  <speed>0.0</speed>
  <fix>3d</fix>
</trkpt>
<trkpt lat="-35.362881" lon="149.165222">
  <ele>582.09</ele>
  <time>2026-08-27T18:27:48Z</time>
  <course>356.03</course>
  <speed>0.0</speed>
  <fix>3d</fix>
</trkpt>
<trkpt lat="-35.362881" lon="149.165222">
  <ele>582.09</ele>
  <time>2026-08-27T18:27:48Z</time>
  <course>96.11</course>
  <speed>0.0</speed>
  <fix>3d</fix>
</trkpt>
<trkpt lat="-35.362881" lon="149.165222">
  <ele>582.09</ele>
  <time>2026-08-27T18:27:48Z</time>
  <course>356.03</course>
  <speed>0.0</speed>
  <fix>3d</fix>
</trkpt>
<trkpt lat="-35.362881" lon="149.165222">
  <ele>582.09</ele>
  <time>2026-08-27T18:27:48Z</time>
  <course>96.1</course>
  <speed>0.0</speed>
  <fix>3d</fix>
</trkpt>
<trkpt lat="-35.362881" lon="149.165222">
  <ele>582.09</ele>
  <time>2026-08-27T18:27:48Z</time>
  <course>356.03</course>
  <speed>0.0</speed>
  <fix>3d</fix>
</trkpt>
<trkpt lat="-35.362881" lon="149.165222">
  <ele>582.09</ele>
  <time>2026-08-27T18:27:48Z</time>
  <course>96.1</course>
  <speed>0.0</speed>
  <fix>3d</fix>
</trkpt>
<trkpt lat="-35.362881" lon="149.165222">
  <ele>582.09</ele>
  <time>2026-08-27T18:27:48Z</time>
  <course>356.03</course>
  <speed>0.0</speed>
  <fix>3d</fix>
</trkpt>
<trkpt lat="-35.362881" lon="149.165222">
  <ele>582.09</ele>
  <time>2026-08-27T18:27:48Z</time>
  <course>96.09</course>
  <speed>0.01</speed>
  <fix>3d</fix>
</trkpt>
<trkpt lat="-35.362881" lon="149.165222">
  <ele>582.09</ele>
  <time>2026-08-27T18:27:48Z</time>
  <course>356.03</course>
  <speed>0.0</speed>
  <fix>3d</fix>
</trkpt>
<trkpt lat="-35.362881" lon="149.165222">
  <ele>582.09</ele>
  <time>2026-08-27T18:27:48Z</time>
  <course>96.08</course>
  <speed>0.01</speed>
  <fix>3d</fix>
</trkpt>
<trkpt lat="-35.362881" lon="149.165222">
  <ele>582.09</ele>
  <time>2026-08-27T18:27:48Z</time>
  <course>356.03</course>
  <speed>0.0</speed>
  <fix>3d</fix>
</trkpt>
<trkpt lat="-35.362881" lon="149.165222">
  <ele>582.09</ele>
  <time>2026-08-27T18:27:48Z</time>
  <course>96.08</course>
  <speed>0.01</speed>
  <fix>3d</fix>
</trkpt>
<trkpt lat="-35.362881" lon="149.165222">
  <ele>582.09</ele>
  <time>2026-08-27T18:27:48Z</time>
  <course>356.03</course>
  <speed>0.0</speed>
  <fix>3d</fix>
</trkpt>
<trkpt lat="-35.362881" lon="149.165222">
  <ele>582.09</ele>
  <time>2026-08-27T18:27:48Z</time>
  <course>96.07</course>
  <speed>0.01</speed>
  <fix>3d</fix>
</trkpt>
<trkpt lat="-35.362881" lon="149.165222">
  <ele>582.09</ele>
  <time>2026-08-27T18:27:48Z</time>
  <course>356.03</course>
  <speed>0.0</speed>
  <fix>3d</fix>
</trkpt>
<trkpt lat="-35.362881" lon="149.165222">
  <ele>582.09</ele>
  <time>2026-08-27T18:27:48Z</time>
  <course>96.06</course>
  <speed>0.01414213562373095</speed>
  <fix>3d</fix>
</trkpt>
<trkpt lat="-35.362881" lon="149.165222">
  <ele>582.09</ele>
  <time>2026-08-27T18:27:48Z</time>
  <course>356.03</course>
  <speed>0.0</speed>
  <fix>3d</fix>
</trkpt>
<trkpt lat="-35.362881" lon="149.165222">
  <ele>582.09</ele>
  <time>2026-08-27T18:27:48Z</time>
  <course>96.04</course>
  <speed>0.01414213562373095</speed>
  <fix>3d</fix>
</trkpt>
<trkpt lat="-35.362881" lon="149.165222">
  <ele>582.09</ele>
  <time>2026-08-27T18:27:48Z</time>
  <course>356.03</course>
  <speed>0.0</speed>
  <fix>3d</fix>
</trkpt>
<trkpt lat="-35.362881" lon="149.165222">
  <ele>582.09</ele>
  <time>2026-08-27T18:27:48Z</time>
  <course>96.03</course>
  <speed>0.01414213562373095</speed>
  <fix>3d</fix>
</trkpt>
<trkpt lat="-35.362881" lon="149.165222">
  <ele>582.09</ele>
  <time>2026-08-27T18:27:48Z</time>
  <course>356.03</course>
  <speed>0.0</speed>
  <fix>3d</fix>
</trkpt>
<trkpt lat="-35.362881" lon="149.165222">
  <ele>582.09</ele>
  <time>2026-08-27T18:27:48Z</time>
  <course>96.02</course>
  <speed>0.01414213562373095</speed>
  <fix>3d</fix>
</trkpt>
<trkpt lat="-35.362881" lon="149.165222">
  <ele>582.09</ele>
  <time>2026-08-27T18:27:48Z</time>
  <course>356.03</course>
  <speed>0.0</speed>
  <fix>3d</fix>
</trkpt>
<trkpt lat="-35.362881" lon="149.165222">
  <ele>582.09</ele>
  <time>2026-08-27T18:27:48Z</time>
  <course>96.01</course>
  <speed>0.01414213562373095</speed>
  <fix>3d</fix>
</trkpt>
<trkpt lat="-35.362881" lon="149.165222">
  <ele>582.09</ele>
  <time>2026-08-27T18:27:48Z</time>
  <course>356.03</course>
  <speed>0.0</speed>
  <fix>3d</fix>
</trkpt>
<trkpt lat="-35.362881" lon="149.165222">
  <ele>582.09</ele>
  <time>2026-08-27T18:27:48Z</time>
  <course>95.99</course>
  <speed>0.01414213562373095</speed>
  <fix>3d</fix>
</trkpt>
<trkpt lat="-35.362881" lon="149.165222">
  <ele>582.09</ele>
  <time>2026-08-27T18:27:48Z</time>
  <course>356.03</course>
  <speed>0.0</speed>
  <fix>3d</fix>
</trkpt>
<trkpt lat="-35.362881" lon="149.165222">
  <ele>582.09</ele>
  <time>2026-08-27T18:27:48Z</time>
  <course>95.98</course>
  <speed>0.01414213562373095</speed>
  <fix>3d</fix>
</trkpt>
<trkpt lat="-35.362881" lon="149.165222">
  <ele>582.09</ele>
  <time>2026-08-27T18:27:48Z</time>
  <course>356.03</course>
  <speed>0.0</speed>
  <fix>3d</fix>
</trkpt>
<trkpt lat="-35.362881" lon="149.165222">
  <ele>582.09</ele>
  <time>2026-08-27T18:27:48Z</time>
  <course>95.97</course>
  <speed>0.01414213562373095</speed>
  <fix>3d</fix>
</trkpt>
<trkpt lat="-35.362881" lon="149.165222">
  <ele>582.09</ele>
  <time>2026-08-27T18:27:48Z</time>
  <course>356.03</course>
  <speed>0.0</speed>
  <fix>3d</fix>
</trkpt>
<trkpt lat="-35.362881" lon="149.165222">
  <ele>582.09</ele>
  <time>2026-08-27T18:27:48Z</time>
  <course>95.95</course>
  <speed>0.01414213562373095</speed>
  <fix>3d</fix>
</trkpt>
<trkpt lat="-35.362881" lon="149.165222">
  <ele>582.09</ele>
  <time>2026-08-27T18:27:48Z</time>
  <course>356.03</course>
  <speed>0.0</speed>
  <fix>3d</fix>
</trkpt>
<trkpt lat="-35.362881" lon="149.165222">
  <ele>582.09</ele>
  <time>2026-08-27T18:27:48Z</time>
  <course>95.94</course>
  <speed>0.01414213562373095</speed>
  <fix>3d</fix>
</trkpt>
<trkpt lat="-35.362881" lon="149.165222">
  <ele>582.09</ele>
  <time>2026-08-27T18:27:48Z</time>
  <course>356.03</course>
  <speed>0.0</speed>
  <fix>3d</fix>
</trkpt>
<trkpt lat="-35.362881" lon="149.165222">
  <ele>582.09</ele>
  <time>2026-08-27T18:27:48Z</time>
  <course>95.92</course>
  <speed>0.01414213562373095</speed>
  <fix>3d</fix>
</trkpt>
<trkpt lat="-35.362881" lon="149.165222">
  <ele>582.09</ele>
  <time>2026-08-27T18:27:48Z</time>
  <course>356.03</course>
  <speed>0.0</speed>
  <fix>3d</fix>
</trkpt>
<trkpt lat="-35.362881" lon="149.165222">
  <ele>582.09</ele>
  <time>2026-08-27T18:27:48Z</time>
  <course>95.91</course>
  <speed>0.01414213562373095</speed>
  <fix>3d</fix>
</trkpt>
<trkpt lat="-35.362881" lon="149.165222">
  <ele>582.09</ele>
  <time>2026-08-27T18:27:48Z</time>
  <course>356.03</course>
  <speed>0.0</speed>
  <fix>3d</fix>
</trkpt>
<trkpt lat="-35.362881" lon="149.165222">
  <ele>582.09</ele>
  <time>2026-08-27T18:27:48Z</time>
  <course>95.89</course>
  <speed>0.01414213562373095</speed>
  <fix>3d</fix>
</trkpt>
<trkpt lat="-35.362881" lon="149.165222">
  <ele>582.09</ele>
  <time>2026-08-27T18:27:48Z</time>
  <course>356.03</course>
  <speed>0.0</speed>
  <fix>3d</fix>
</trkpt>
<trkpt lat="-35.362881" lon="149.165222">
  <ele>582.09</ele>
  <time>2026-08-27T18:27:48Z</time>
  <course>95.88</course>
  <speed>0.01414213562373095</speed>
  <fix>3d</fix>
</trkpt>
<trkpt lat="-35.362881" lon="149.165222">
  <ele>582.09</ele>
  <time>2026-08-27T18:27:48Z</time>
  <course>356.03</course>
  <speed>0.0</speed>
  <fix>3d</fix>
</trkpt>
<trkpt lat="-35.362881" lon="149.165222">
  <ele>582.09</ele>
  <time>2026-08-27T18:27:48Z</time>
  <course>95.87</course>
  <speed>0.01414213562373095</speed>
  <fix>3d</fix>
</trkpt>
<trkpt lat="-35.362881" lon="149.165222">
  <ele>582.09</ele>
  <time>2026-08-27T18:27:48Z</time>
  <course>356.03</course>
  <speed>0.0</speed>
  <fix>3d</fix>
</trkpt>
<trkpt lat="-35.362881" lon="149.165222">
  <ele>582.09</ele>
  <time>2026-08-27T18:27:48Z</time>
  <course>95.86</course>
  <speed>0.01414213562373095</speed>
  <fix>3d</fix>
</trkpt>
<trkpt lat="-35.362881" lon="149.165222">
  <ele>582.09</ele>
  <time>2026-08-27T18:27:48Z</time>
  <course>356.03</course>
  <speed>0.0</speed>
  <fix>3d</fix>
</trkpt>
<trkpt lat="-35.362881" lon="149.165222">
  <ele>582.09</ele>
  <time>2026-08-27T18:27:48Z</time>
  <course>95.84</course>
  <speed>0.01414213562373095</speed>
  <fix>3d</fix>
</trkpt>
<trkpt lat="-35.362881" lon="149.165222">
  <ele>582.09</ele>
  <time>2026-08-27T18:27:48Z</time>
  <course>356.03</course>
  <speed>0.0</speed>
  <fix>3d</fix>
</trkpt>
<trkpt lat="-35.362881" lon="149.165222">
  <ele>582.09</ele>
  <time>2026-08-27T18:27:48Z</time>
  <course>95.82</course>
  <speed>0.01414213562373095</speed>
  <fix>3d</fix>
</trkpt>
<trkpt lat="-35.362881" lon="149.165222">
  <ele>582.09</ele>
  <time>2026-08-27T18:27:48Z</time>
  <course>356.03</course>
  <speed>0.0</speed>
  <fix>3d</fix>
</trkpt>
<trkpt lat="-35.362881" lon="149.165222">
  <ele>582.09</ele>
  <time>2026-08-27T18:27:48Z</time>
  <course>95.81</course>
  <speed>0.01414213562373095</speed>
  <fix>3d</fix>
</trkpt>
<trkpt lat="-35.362881" lon="149.165222">
  <ele>582.09</ele>
  <time>2026-08-27T18:27:48Z</time>
  <course>356.03</course>
  <speed>0.0</speed>
  <fix>3d</fix>
</trkpt>
<trkpt lat="-35.362881" lon="149.165222">
  <ele>582.09</ele>
  <time>2026-08-27T18:27:48Z</time>
  <course>95.79</course>
  <speed>0.01414213562373095</speed>
  <fix>3d</fix>
</trkpt>
<trkpt lat="-35.362881" lon="149.165222">
  <ele>582.09</ele>
  <time>2026-08-27T18:27:48Z</time>
  <course>356.03</course>
  <speed>0.0</speed>
  <fix>3d</fix>
</trkpt>
<trkpt lat="-35.362881" lon="149.165222">
  <ele>582.09</ele>
  <time>2026-08-27T18:27:48Z</time>
  <course>95.77</course>
  <speed>0.01414213562373095</speed>
  <fix>3d</fix>
</trkpt>
<trkpt lat="-35.362881" lon="149.165222">
  <ele>582.09</ele>
  <time>2026-08-27T18:27:48Z</time>
  <course>356.03</course>
  <speed>0.0</speed>
  <fix>3d</fix>
</trkpt>
<trkpt lat="-35.362881" lon="149.165222">
  <ele>582.09</ele>
  <time>2026-08-27T18:27:48Z</time>
  <course>95.76</course>
  <speed>0.01414213562373095</speed>
  <fix>3d</fix>
</trkpt>
<trkpt lat="-35.362881" lon="149.165222">
  <ele>582.09</ele>
  <time>2026-08-27T18:27:48Z</time>
  <course>356.03</course>
  <speed>0.0</speed>
  <fix>3d</fix>
</trkpt>
<trkpt lat="-35.362881" lon="149.165222">
  <ele>582.09</ele>
  <time>2026-08-27T18:27:48Z</time>
  <course>95.74</course>
  <speed>0.01414213562373095</speed>
  <fix>3d</fix>
</trkpt>
<trkpt lat="-35.362881" lon="149.165222">
  <ele>582.09</ele>
  <time>2026-08-27T18:27:48Z</time>
  <course>356.03</course>
  <speed>0.0</speed>
  <fix>3d</fix>
</trkpt>
<trkpt lat="-35.362881" lon="149.165222">
  <ele>582.09</ele>
  <time>2026-08-27T18:27:48Z</time>
  <course>95.72</course>
  <speed>0.01414213562373095</speed>
  <fix>3d</fix>
</trkpt>
<trkpt lat="-35.362881" lon="149.165222">
  <ele>582.09</ele>
  <time>2026-08-27T18:27:48Z</time>
  <course>356.03</course>
  <speed>0.0</speed>
  <fix>3d</fix>
</trkpt>
<trkpt lat="-35.362881" lon="149.165222">
  <ele>582.09</ele>
  <time>2026-08-27T18:27:48Z</time>
  <course>95.71</course>
  <speed>0.01414213562373095</speed>
  <fix>3d</fix>
</trkpt>
<trkpt lat="-35.362881" lon="149.165222">
  <ele>582.09</ele>
  <time>2026-08-27T18:27:48Z</time>
  <course>356.03</course>
  <speed>0.0</speed>
  <fix>3d</fix>
</trkpt>
<trkpt lat="-35.362881" lon="149.165222">
  <ele>582.09</ele>
  <time>2026-08-27T18:27:48Z</time>
  <course>95.69</course>
  <speed>0.01414213562373095</speed>
  <fix>3d</fix>
</trkpt>
<trkpt lat="-35.362881" lon="149.165222">
  <ele>582.09</ele>
  <time>2026-08-27T18:27:48Z</time>
  <course>356.03</course>
  <speed>0.0</speed>
  <fix>3d</fix>
</trkpt>
<trkpt lat="-35.362881" lon="149.165222">
  <ele>582.09</ele>
  <time>2026-08-27T18:27:48Z</time>
  <course>95.67</course>
  <speed>0.01414213562373095</speed>
  <fix>3d</fix>
</trkpt>
<trkpt lat="-35.362881" lon="149.165222">
  <ele>582.09</ele>
  <time>2026-08-27T18:27:48Z</time>
  <course>356.03</course>
  <speed>0.0</speed>
  <fix>3d</fix>
</trkpt>
<trkpt lat="-35.362881" lon="149.165222">
  <ele>582.09</ele>
  <time>2026-08-27T18:27:48Z</time>
  <course>95.66</course>
  <speed>0.01414213562373095</speed>
  <fix>3d</fix>
</trkpt>
<trkpt lat="-35.362881" lon="149.165222">
  <ele>582.09</ele>
  <time>2026-08-27T18:27:48Z</time>
  <course>356.03</course>
  <speed>0.0</speed>
  <fix>3d</fix>
</trkpt>
<trkpt lat="-35.362881" lon="149.165222">
  <ele>582.09</ele>
  <time>2026-08-27T18:27:48Z</time>
  <course>95.64</course>
  <speed>0.01414213562373095</speed>
  <fix>3d</fix>
</trkpt>
<trkpt lat="-35.362881" lon="149.165222">
  <ele>582.09</ele>
  <time>2026-08-27T18:27:48Z</time>
  <course>356.03</course>
  <speed>0.0</speed>
  <fix>3d</fix>
</trkpt>
<trkpt lat="-35.362881" lon="149.165222">
  <ele>582.09</ele>
  <time>2026-08-27T18:27:48Z</time>
  <course>95.63</course>
  <speed>0.01414213562373095</speed>
  <fix>3d</fix>
</trkpt>
<trkpt lat="-35.362881" lon="149.165222">
  <ele>582.09</ele>
  <time>2026-08-27T18:27:48Z</time>
  <course>356.03</course>
  <speed>0.0</speed>
  <fix>3d</fix>
</trkpt>
<trkpt lat="-35.362881" lon="149.165222">
  <ele>582.09</ele>
  <time>2026-08-27T18:27:48Z</time>
  <course>95.61</course>
  <speed>0.01414213562373095</speed>
  <fix>3d</fix>
</trkpt>
<trkpt lat="-35.362881" lon="149.165222">
  <ele>582.09</ele>
  <time>2026-08-27T18:27:48Z</time>
  <course>356.03</course>
  <speed>0.0</speed>
  <fix>3d</fix>
</trkpt>
<trkpt lat="-35.362881" lon="149.165222">
  <ele>582.09</ele>
  <time>2026-08-27T18:27:48Z</time>
  <course>95.59</course>
  <speed>0.022360679774997897</speed>
  <fix>3d</fix>
</trkpt>
<trkpt lat="-35.362881" lon="149.165222">
  <ele>582.09</ele>
  <time>2026-08-27T18:27:48Z</time>
  <course>356.03</course>
  <speed>0.0</speed>
  <fix>3d</fix>
</trkpt>
<trkpt lat="-35.362881" lon="149.165222">
  <ele>582.09</ele>
  <time>2026-08-27T18:27:48Z</time>
  <course>95.58</course>
  <speed>0.0282842712474619</speed>
  <fix>3d</fix>
</trkpt>
<trkpt lat="-35.362881" lon="149.165222">
  <ele>582.09</ele>
  <time>2026-08-27T18:27:48Z</time>
  <course>356.03</course>
  <speed>0.0</speed>
  <fix>3d</fix>
</trkpt>
<trkpt lat="-35.362881" lon="149.165222">
  <ele>582.09</ele>
  <time>2026-08-27T18:27:48Z</time>
  <course>95.56</course>
  <speed>0.0282842712474619</speed>
  <fix>3d</fix>
</trkpt>
<trkpt lat="-35.362881" lon="149.165222">
  <ele>582.09</ele>
  <time>2026-08-27T18:27:48Z</time>
  <course>356.03</course>
  <speed>0.0</speed>
  <fix>3d</fix>
</trkpt>
<trkpt lat="-35.362881" lon="149.165222">
  <ele>582.09</ele>
  <time>2026-08-27T18:27:48Z</time>
  <course>95.55</course>
  <speed>0.0282842712474619</speed>
  <fix>3d</fix>
</trkpt>
<trkpt lat="-35.362881" lon="149.165222">
  <ele>582.09</ele>
  <time>2026-08-27T18:27:48Z</time>
  <course>356.03</course>
  <speed>0.0</speed>
  <fix>3d</fix>
</trkpt>
<trkpt lat="-35.362881" lon="149.165222">
  <ele>582.09</ele>
  <time>2026-08-27T18:27:48Z</time>
  <course>95.53</course>
  <speed>0.0282842712474619</speed>
  <fix>3d</fix>
</trkpt>
<trkpt lat="-35.362881" lon="149.165222">
  <ele>582.09</ele>
  <time>2026-08-27T18:27:48Z</time>
  <course>356.03</course>
  <speed>0.0</speed>
  <fix>3d</fix>
</trkpt>
<trkpt lat="-35.362881" lon="149.165222">
  <ele>582.09</ele>
  <time>2026-08-27T18:27:48Z</time>
  <course>95.51</course>
  <speed>0.0282842712474619</speed>
  <fix>3d</fix>
</trkpt>
<trkpt lat="-35.362881" lon="149.165222">
  <ele>582.09</ele>
  <time>2026-08-27T18:27:48Z</time>
  <course>356.03</course>
  <speed>0.0</speed>
  <fix>3d</fix>
</trkpt>
<trkpt lat="-35.362881" lon="149.165222">
  <ele>582.09</ele>
  <time>2026-08-27T18:27:48Z</time>
  <course>95.5</course>
  <speed>0.0282842712474619</speed>
  <fix>3d</fix>
</trkpt>
<trkpt lat="-35.362881" lon="149.165222">
  <ele>582.09</ele>
  <time>2026-08-27T18:27:48Z</time>
  <course>356.03</course>
  <speed>0.0</speed>
  <fix>3d</fix>
</trkpt>
<trkpt lat="-35.362881" lon="149.165222">
  <ele>582.09</ele>
  <time>2026-08-27T18:27:48Z</time>
  <course>95.48</course>
  <speed>0.0282842712474619</speed>
  <fix>3d</fix>
</trkpt>
<trkpt lat="-35.362881" lon="149.165222">
  <ele>582.09</ele>
  <time>2026-08-27T18:27:48Z</time>
  <course>356.03</course>
  <speed>0.0</speed>
  <fix>3d</fix>
</trkpt>
<trkpt lat="-35.362881" lon="149.165222">
  <ele>582.09</ele>
  <time>2026-08-27T18:27:48Z</time>
  <course>95.47</course>
  <speed>0.0282842712474619</speed>
  <fix>3d</fix>
</trkpt>
<trkpt lat="-35.362881" lon="149.165222">
  <ele>582.09</ele>
  <time>2026-08-27T18:27:48Z</time>
  <course>356.03</course>
  <speed>0.0</speed>
  <fix>3d</fix>
</trkpt>
<trkpt lat="-35.362881" lon="149.165222">
  <ele>582.09</ele>
  <time>2026-08-27T18:27:48Z</time>
  <course>95.45</course>
  <speed>0.0282842712474619</speed>
  <fix>3d</fix>
</trkpt>
<trkpt lat="-35.362881" lon="149.165222">
  <ele>582.09</ele>
  <time>2026-08-27T18:27:48Z</time>
  <course>356.03</course>
  <speed>0.0</speed>
  <fix>3d</fix>
</trkpt>
<trkpt lat="-35.362881" lon="149.165222">
  <ele>582.09</ele>
  <time>2026-08-27T18:27:48Z</time>
  <course>95.44</course>
  <speed>0.0282842712474619</speed>
  <fix>3d</fix>
</trkpt>
<trkpt lat="-35.362881" lon="149.165222">
  <ele>582.09</ele>
  <time>2026-08-27T18:27:48Z</time>
  <course>356.03</course>
  <speed>0.0</speed>
  <fix>3d</fix>
</trkpt>
<trkpt lat="-35.362881" lon="149.165222">
  <ele>582.09</ele>
  <time>2026-08-27T18:27:48Z</time>
  <course>95.42</course>
  <speed>0.0282842712474619</speed>
  <fix>3d</fix>
</trkpt>
<trkpt lat="-35.362881" lon="149.165222">
  <ele>582.09</ele>
  <time>2026-08-27T18:27:48Z</time>
  <course>356.03</course>
  <speed>0.0</speed>
  <fix>3d</fix>
</trkpt>
<trkpt lat="-35.362881" lon="149.165222">
  <ele>582.09</ele>
  <time>2026-08-27T18:27:48Z</time>
  <course>95.41</course>
  <speed>0.0282842712474619</speed>
  <fix>3d</fix>
</trkpt>
<trkpt lat="-35.362881" lon="149.165222">
  <ele>582.09</ele>
  <time>2026-08-27T18:27:48Z</time>
  <course>356.03</course>
  <speed>0.0</speed>
  <fix>3d</fix>
</trkpt>
<trkpt lat="-35.362881" lon="149.165222">
  <ele>582.09</ele>
  <time>2026-08-27T18:27:48Z</time>
  <course>95.39</course>
  <speed>0.0282842712474619</speed>
  <fix>3d</fix>
</trkpt>
<trkpt lat="-35.362881" lon="149.165222">
  <ele>582.09</ele>
  <time>2026-08-27T18:27:48Z</time>
  <course>356.03</course>
  <speed>0.0</speed>
  <fix>3d</fix>
</trkpt>
<trkpt lat="-35.362881" lon="149.165222">
  <ele>582.09</ele>
  <time>2026-08-27T18:27:48Z</time>
  <course>95.38</course>
  <speed>0.0282842712474619</speed>
  <fix>3d</fix>
</trkpt>
<trkpt lat="-35.362881" lon="149.165222">
  <ele>582.09</ele>
  <time>2026-08-27T18:27:48Z</time>
  <course>356.03</course>
  <speed>0.0</speed>
  <fix>3d</fix>
</trkpt>
<trkpt lat="-35.362881" lon="149.165222">
  <ele>582.09</ele>
  <time>2026-08-27T18:27:48Z</time>
  <course>95.37</course>
  <speed>0.0282842712474619</speed>
  <fix>3d</fix>
</trkpt>
<trkpt lat="-35.362881" lon="149.165222">
  <ele>582.09</ele>
  <time>2026-08-27T18:27:48Z</time>
  <course>356.03</course>
  <speed>0.0</speed>
  <fix>3d</fix>
</trkpt>
<trkpt lat="-35.362881" lon="149.165222">
  <ele>582.09</ele>
  <time>2026-08-27T18:27:49Z</time>
  <course>95.35</course>
  <speed>0.0282842712474619</speed>
  <fix>3d</fix>
</trkpt>
<trkpt lat="-35.362881" lon="149.165222">
  <ele>582.09</ele>
  <time>2026-08-27T18:27:49Z</time>
  <course>356.03</course>
  <speed>0.0</speed>
  <fix>3d</fix>
</trkpt>
<trkpt lat="-35.362881" lon="149.165222">
  <ele>582.09</ele>
  <time>2026-08-27T18:27:49Z</time>
  <course>95.34</course>
  <speed>0.0282842712474619</speed>
  <fix>3d</fix>
</trkpt>
<trkpt lat="-35.362881" lon="149.165222">
  <ele>582.09</ele>
  <time>2026-08-27T18:27:49Z</time>
  <course>356.03</course>
  <speed>0.0</speed>
  <fix>3d</fix>
</trkpt>
<trkpt lat="-35.362881" lon="149.165222">
  <ele>582.09</ele>
  <time>2026-08-27T18:27:49Z</time>
  <course>95.32</course>
  <speed>0.0282842712474619</speed>
  <fix>3d</fix>
</trkpt>
<trkpt lat="-35.362881" lon="149.165222">
  <ele>582.09</ele>
  <time>2026-08-27T18:27:49Z</time>
  <course>356.03</course>
  <speed>0.0</speed>
  <fix>3d</fix>
</trkpt>
<trkpt lat="-35.362881" lon="149.165222">
  <ele>582.09</ele>
  <time>2026-08-27T18:27:49Z</time>
  <course>95.31</course>
  <speed>0.0282842712474619</speed>
  <fix>3d</fix>
</trkpt>
<trkpt lat="-35.362881" lon="149.165222">
  <ele>582.09</ele>
  <time>2026-08-27T18:27:49Z</time>
  <course>356.03</course>
  <speed>0.0</speed>
  <fix>3d</fix>
</trkpt>
<trkpt lat="-35.362881" lon="149.165222">
  <ele>582.09</ele>
  <time>2026-08-27T18:27:49Z</time>
  <course>95.29</course>
  <speed>0.0282842712474619</speed>
  <fix>3d</fix>
</trkpt>
<trkpt lat="-35.362881" lon="149.165222">
  <ele>582.09</ele>
  <time>2026-08-27T18:27:49Z</time>
  <course>356.03</course>
  <speed>0.0</speed>
  <fix>3d</fix>
</trkpt>
<trkpt lat="-35.362881" lon="149.165222">
  <ele>582.09</ele>
  <time>2026-08-27T18:27:49Z</time>
  <course>95.28</course>
  <speed>0.0282842712474619</speed>
  <fix>3d</fix>
</trkpt>
<trkpt lat="-35.362881" lon="149.165222">
  <ele>582.09</ele>
  <time>2026-08-27T18:27:49Z</time>
  <course>356.03</course>
  <speed>0.0</speed>
  <fix>3d</fix>
</trkpt>
<trkpt lat="-35.362881" lon="149.165222">
  <ele>582.09</ele>
  <time>2026-08-27T18:27:49Z</time>
  <course>95.27</course>
  <speed>0.0282842712474619</speed>
  <fix>3d</fix>
</trkpt>
<trkpt lat="-35.362881" lon="149.165222">
  <ele>582.09</ele>
  <time>2026-08-27T18:27:49Z</time>
  <course>356.03</course>
  <speed>0.0</speed>
  <fix>3d</fix>
</trkpt>
<trkpt lat="-35.362881" lon="149.165222">
  <ele>582.09</ele>
  <time>2026-08-27T18:27:49Z</time>
  <course>95.25</course>
  <speed>0.0282842712474619</speed>
  <fix>3d</fix>
</trkpt>
<trkpt lat="-35.362881" lon="149.165222">
  <ele>582.09</ele>
  <time>2026-08-27T18:27:49Z</time>
  <course>356.03</course>
  <speed>0.0</speed>
  <fix>3d</fix>
</trkpt>
<trkpt lat="-35.362881" lon="149.165222">
  <ele>582.09</ele>
  <time>2026-08-27T18:27:49Z</time>
  <course>95.24</course>
  <speed>0.0282842712474619</speed>
  <fix>3d</fix>
</trkpt>
<trkpt lat="-35.362881" lon="149.165222">
  <ele>582.09</ele>
  <time>2026-08-27T18:27:49Z</time>
  <course>356.03</course>
  <speed>0.0</speed>
  <fix>3d</fix>
</trkpt>
<trkpt lat="-35.362881" lon="149.165222">
  <ele>582.09</ele>
  <time>2026-08-27T18:27:49Z</time>
  <course>95.22</course>
  <speed>0.0282842712474619</speed>
  <fix>3d</fix>
</trkpt>
<trkpt lat="-35.362881" lon="149.165222">
  <ele>582.09</ele>
  <time>2026-08-27T18:27:49Z</time>
  <course>356.03</course>
  <speed>0.0</speed>
  <fix>3d</fix>
</trkpt>
<trkpt lat="-35.362881" lon="149.165222">
  <ele>582.09</ele>
  <time>2026-08-27T18:27:49Z</time>
  <course>95.21</course>
  <speed>0.0282842712474619</speed>
  <fix>3d</fix>
</trkpt>
<trkpt lat="-35.362881" lon="149.165222">
  <ele>582.09</ele>
  <time>2026-08-27T18:27:49Z</time>
  <course>356.03</course>
  <speed>0.0</speed>
  <fix>3d</fix>
</trkpt>
<trkpt lat="-35.362881" lon="149.165222">
  <ele>582.09</ele>
  <time>2026-08-27T18:27:49Z</time>
  <course>95.2</course>
  <speed>0.0282842712474619</speed>
  <fix>3d</fix>
</trkpt>
<trkpt lat="-35.362881" lon="149.165222">
  <ele>582.09</ele>
  <time>2026-08-27T18:27:49Z</time>
  <course>356.03</course>
  <speed>0.0</speed>
  <fix>3d</fix>
</trkpt>
<trkpt lat="-35.362881" lon="149.165222">
  <ele>582.09</ele>
  <time>2026-08-27T18:27:49Z</time>
  <course>95.18</course>
  <speed>0.0282842712474619</speed>
  <fix>3d</fix>
</trkpt>
<trkpt lat="-35.362881" lon="149.165222">
  <ele>582.09</ele>
  <time>2026-08-27T18:27:49Z</time>
  <course>356.03</course>
  <speed>0.0</speed>
  <fix>3d</fix>
</trkpt>
<trkpt lat="-35.362881" lon="149.165222">
  <ele>582.09</ele>
  <time>2026-08-27T18:27:49Z</time>
  <course>95.17</course>
  <speed>0.0282842712474619</speed>
  <fix>3d</fix>
</trkpt>
<trkpt lat="-35.362881" lon="149.165222">
  <ele>582.09</ele>
  <time>2026-08-27T18:27:49Z</time>
  <course>356.03</course>
  <speed>0.0</speed>
  <fix>3d</fix>
</trkpt>
<trkpt lat="-35.362881" lon="149.165222">
  <ele>582.09</ele>
  <time>2026-08-27T18:27:49Z</time>
  <course>95.16</course>
  <speed>0.0282842712474619</speed>
  <fix>3d</fix>
</trkpt>
<trkpt lat="-35.362881" lon="149.165222">
  <ele>582.09</ele>
  <time>2026-08-27T18:27:49Z</time>
  <course>356.03</course>
  <speed>0.0</speed>
  <fix>3d</fix>
</trkpt>
<trkpt lat="-35.362881" lon="149.165222">
  <ele>582.09</ele>
  <time>2026-08-27T18:27:49Z</time>
  <course>95.14</course>
  <speed>0.0282842712474619</speed>
  <fix>3d</fix>
</trkpt>
<trkpt lat="-35.362881" lon="149.165222">
  <ele>582.09</ele>
  <time>2026-08-27T18:27:49Z</time>
  <course>356.03</course>
  <speed>0.0</speed>
  <fix>3d</fix>
</trkpt>
<trkpt lat="-35.362881" lon="149.165222">
  <ele>582.09</ele>
  <time>2026-08-27T18:27:49Z</time>
  <course>95.13</course>
  <speed>0.03605551275463989</speed>
  <fix>3d</fix>
</trkpt>
<trkpt lat="-35.362881" lon="149.165222">
  <ele>582.09</ele>
  <time>2026-08-27T18:27:49Z</time>
  <course>356.03</course>
  <speed>0.0</speed>
  <fix>3d</fix>
</trkpt>
<trkpt lat="-35.362881" lon="149.165222">
  <ele>582.09</ele>
  <time>2026-08-27T18:27:49Z</time>
  <course>95.12</course>
  <speed>0.03605551275463989</speed>
  <fix>3d</fix>
</trkpt>
<trkpt lat="-35.362881" lon="149.165222">
  <ele>582.09</ele>
  <time>2026-08-27T18:27:49Z</time>
  <course>356.03</course>
  <speed>0.0</speed>
  <fix>3d</fix>
</trkpt>
<trkpt lat="-35.362881" lon="149.165222">
  <ele>582.09</ele>
  <time>2026-08-27T18:27:49Z</time>
  <course>95.11</course>
  <speed>0.03605551275463989</speed>
  <fix>3d</fix>
</trkpt>
<trkpt lat="-35.362881" lon="149.165222">
  <ele>582.09</ele>
  <time>2026-08-27T18:27:49Z</time>
  <course>356.03</course>
  <speed>0.0</speed>
  <fix>3d</fix>
</trkpt>
<trkpt lat="-35.362881" lon="149.165222">
  <ele>582.09</ele>
  <time>2026-08-27T18:27:49Z</time>
  <course>95.09</course>
  <speed>0.03605551275463989</speed>
  <fix>3d</fix>
</trkpt>
<trkpt lat="-35.362881" lon="149.165222">
  <ele>582.09</ele>
  <time>2026-08-27T18:27:49Z</time>
  <course>356.03</course>
  <speed>0.0</speed>
  <fix>3d</fix>
</trkpt>
<trkpt lat="-35.362881" lon="149.165222">
  <ele>582.09</ele>
  <time>2026-08-27T18:27:49Z</time>
  <course>95.08</course>
  <speed>0.03605551275463989</speed>
  <fix>3d</fix>
</trkpt>
<trkpt lat="-35.362881" lon="149.165222">
  <ele>582.09</ele>
  <time>2026-08-27T18:27:49Z</time>
  <course>356.03</course>
  <speed>0.0</speed>
  <fix>3d</fix>
</trkpt>
<trkpt lat="-35.362881" lon="149.165222">
  <ele>582.09</ele>
  <time>2026-08-27T18:27:49Z</time>
  <course>95.07</course>
  <speed>0.03605551275463989</speed>
  <fix>3d</fix>
</trkpt>
<trkpt lat="-35.362881" lon="149.165222">
  <ele>582.09</ele>
  <time>2026-08-27T18:27:49Z</time>
  <course>356.03</course>
  <speed>0.0</speed>
  <fix>3d</fix>
</trkpt>
<trkpt lat="-35.362881" lon="149.165222">
  <ele>582.09</ele>
  <time>2026-08-27T18:27:49Z</time>
  <course>95.06</course>
  <speed>0.03605551275463989</speed>
  <fix>3d</fix>
</trkpt>
<trkpt lat="-35.362881" lon="149.165222">
  <ele>582.09</ele>
  <time>2026-08-27T18:27:49Z</time>
  <course>356.03</course>
  <speed>0.0</speed>
  <fix>3d</fix>
</trkpt>
<trkpt lat="-35.362881" lon="149.165222">
  <ele>582.09</ele>
  <time>2026-08-27T18:27:49Z</time>
  <course>95.05</course>
  <speed>0.03605551275463989</speed>
  <fix>3d</fix>
</trkpt>
<trkpt lat="-35.362881" lon="149.165222">
  <ele>582.09</ele>
  <time>2026-08-27T18:27:49Z</time>
  <course>356.03</course>
  <speed>0.0</speed>
  <fix>3d</fix>
</trkpt>
<trkpt lat="-35.362881" lon="149.165222">
  <ele>582.09</ele>
  <time>2026-08-27T18:27:49Z</time>
  <course>95.04</course>
  <speed>0.03605551275463989</speed>
  <fix>3d</fix>
</trkpt>
<trkpt lat="-35.362881" lon="149.165222">
  <ele>582.09</ele>
  <time>2026-08-27T18:27:49Z</time>
  <course>356.03</course>
  <speed>0.0</speed>
  <fix>3d</fix>
</trkpt>
<trkpt lat="-35.362881" lon="149.165222">
  <ele>582.09</ele>
  <time>2026-08-27T18:27:49Z</time>
  <course>95.02</course>
  <speed>0.03605551275463989</speed>
  <fix>3d</fix>
</trkpt>
<trkpt lat="-35.362881" lon="149.165222">
  <ele>582.09</ele>
  <time>2026-08-27T18:27:49Z</time>
  <course>356.03</course>
  <speed>0.0</speed>
  <fix>3d</fix>
</trkpt>
<trkpt lat="-35.362881" lon="149.165222">
  <ele>582.09</ele>
  <time>2026-08-27T18:27:49Z</time>
  <course>95.01</course>
  <speed>0.03605551275463989</speed>
  <fix>3d</fix>
</trkpt>
<trkpt lat="-35.362881" lon="149.165222">
  <ele>582.09</ele>
  <time>2026-08-27T18:27:49Z</time>
  <course>356.03</course>
  <speed>0.0</speed>
  <fix>3d</fix>
</trkpt>
<trkpt lat="-35.362881" lon="149.165222">
  <ele>582.09</ele>
  <time>2026-08-27T18:27:49Z</time>
  <course>95.0</course>
  <speed>0.03605551275463989</speed>
  <fix>3d</fix>
</trkpt>
<trkpt lat="-35.362881" lon="149.165222">
  <ele>582.09</ele>
  <time>2026-08-27T18:27:49Z</time>
  <course>356.03</course>
  <speed>0.0</speed>
  <fix>3d</fix>
</trkpt>
<trkpt lat="-35.362881" lon="149.165222">
  <ele>582.09</ele>
  <time>2026-08-27T18:27:49Z</time>
  <course>94.99</course>
  <speed>0.03605551275463989</speed>
  <fix>3d</fix>
</trkpt>
<trkpt lat="-35.362881" lon="149.165222">
  <ele>582.09</ele>
  <time>2026-08-27T18:27:49Z</time>
  <course>356.03</course>
  <speed>0.0</speed>
  <fix>3d</fix>
</trkpt>
<trkpt lat="-35.362881" lon="149.165222">
  <ele>582.09</ele>
  <time>2026-08-27T18:27:49Z</time>
  <course>94.98</course>
  <speed>0.03605551275463989</speed>
  <fix>3d</fix>
</trkpt>
<trkpt lat="-35.362881" lon="149.165222">
  <ele>582.09</ele>
  <time>2026-08-27T18:27:49Z</time>
  <course>356.03</course>
  <speed>0.0</speed>
  <fix>3d</fix>
</trkpt>
<trkpt lat="-35.362881" lon="149.165222">
  <ele>582.09</ele>
  <time>2026-08-27T18:27:49Z</time>
  <course>94.96</course>
  <speed>0.03605551275463989</speed>
  <fix>3d</fix>
</trkpt>
<trkpt lat="-35.362881" lon="149.165222">
  <ele>582.09</ele>
  <time>2026-08-27T18:27:49Z</time>
  <course>356.03</course>
  <speed>0.0</speed>
  <fix>3d</fix>
</trkpt>
<trkpt lat="-35.362881" lon="149.165222">
  <ele>582.09</ele>
  <time>2026-08-27T18:27:49Z</time>
  <course>94.95</course>
  <speed>0.04242640687119285</speed>
  <fix>3d</fix>
</trkpt>
<trkpt lat="-35.362881" lon="149.165222">
  <ele>582.09</ele>
  <time>2026-08-27T18:27:49Z</time>
  <course>356.03</course>
  <speed>0.0</speed>
  <fix>3d</fix>
</trkpt>
<trkpt lat="-35.362881" lon="149.165222">
  <ele>582.09</ele>
  <time>2026-08-27T18:27:49Z</time>
  <course>94.94</course>
  <speed>0.04242640687119285</speed>
  <fix>3d</fix>
</trkpt>
<trkpt lat="-35.362881" lon="149.165222">
  <ele>582.09</ele>
  <time>2026-08-27T18:27:49Z</time>
  <course>356.03</course>
  <speed>0.0</speed>
  <fix>3d</fix>
</trkpt>
<trkpt lat="-35.362881" lon="149.165222">
  <ele>582.09</ele>
  <time>2026-08-27T18:27:49Z</time>
  <course>94.93</course>
  <speed>0.04242640687119285</speed>
  <fix>3d</fix>
</trkpt>
<trkpt lat="-35.362881" lon="149.165222">
  <ele>582.09</ele>
  <time>2026-08-27T18:27:49Z</time>
  <course>356.03</course>
  <speed>0.0</speed>
  <fix>3d</fix>
</trkpt>
<trkpt lat="-35.362881" lon="149.165222">
  <ele>582.09</ele>
  <time>2026-08-27T18:27:49Z</time>
  <course>94.92</course>
  <speed>0.04242640687119285</speed>
  <fix>3d</fix>
</trkpt>
<trkpt lat="-35.362881" lon="149.165222">
  <ele>582.09</ele>
  <time>2026-08-27T18:27:49Z</time>
  <course>356.03</course>
  <speed>0.0</speed>
  <fix>3d</fix>
</trkpt>
<trkpt lat="-35.362881" lon="149.165222">
  <ele>582.09</ele>
  <time>2026-08-27T18:27:49Z</time>
  <course>94.91</course>
  <speed>0.04242640687119285</speed>
  <fix>3d</fix>
</trkpt>
<trkpt lat="-35.362881" lon="149.165222">
  <ele>582.09</ele>
  <time>2026-08-27T18:27:49Z</time>
  <course>356.03</course>
  <speed>0.0</speed>
  <fix>3d</fix>
</trkpt>
<trkpt lat="-35.362881" lon="149.165222">
  <ele>582.09</ele>
  <time>2026-08-27T18:27:49Z</time>
  <course>94.9</course>
  <speed>0.04242640687119285</speed>
  <fix>3d</fix>
</trkpt>
<trkpt lat="-35.362881" lon="149.165222">
  <ele>582.09</ele>
  <time>2026-08-27T18:27:49Z</time>
  <course>356.03</course>
  <speed>0.0</speed>
  <fix>3d</fix>
</trkpt>
<trkpt lat="-35.362881" lon="149.165222">
  <ele>582.09</ele>
  <time>2026-08-27T18:27:49Z</time>
  <course>94.89</course>
  <speed>0.04242640687119285</speed>
  <fix>3d</fix>
</trkpt>
<trkpt lat="-35.362881" lon="149.165222">
  <ele>582.09</ele>
  <time>2026-08-27T18:27:49Z</time>
  <course>356.03</course>
  <speed>0.0</speed>
  <fix>3d</fix>
</trkpt>
<trkpt lat="-35.362881" lon="149.165222">
  <ele>582.09</ele>
  <time>2026-08-27T18:27:49Z</time>
  <course>94.88</course>
  <speed>0.04242640687119285</speed>
  <fix>3d</fix>
</trkpt>
<trkpt lat="-35.362881" lon="149.165222">
  <ele>582.09</ele>
  <time>2026-08-27T18:27:49Z</time>
  <course>356.03</course>
  <speed>0.0</speed>
  <fix>3d</fix>
</trkpt>
<trkpt lat="-35.362881" lon="149.165222">
  <ele>582.09</ele>
  <time>2026-08-27T18:27:49Z</time>
  <course>94.87</course>
  <speed>0.04242640687119285</speed>
  <fix>3d</fix>
</trkpt>
<trkpt lat="-35.362881" lon="149.165222">
  <ele>582.09</ele>
  <time>2026-08-27T18:27:49Z</time>
  <course>356.03</course>
  <speed>0.0</speed>
  <fix>3d</fix>
</trkpt>
<trkpt lat="-35.362881" lon="149.165222">
  <ele>582.09</ele>
  <time>2026-08-27T18:27:49Z</time>
  <course>94.86</course>
  <speed>0.04242640687119285</speed>
  <fix>3d</fix>
</trkpt>
<trkpt lat="-35.362881" lon="149.165222">
  <ele>582.09</ele>
  <time>2026-08-27T18:27:49Z</time>
  <course>356.03</course>
  <speed>0.0</speed>
  <fix>3d</fix>
</trkpt>
<trkpt lat="-35.362881" lon="149.165222">
  <ele>582.09</ele>
  <time>2026-08-27T18:27:49Z</time>
  <course>94.84</course>
  <speed>0.04242640687119285</speed>
  <fix>3d</fix>
</trkpt>
<trkpt lat="-35.362881" lon="149.165222">
  <ele>582.09</ele>
  <time>2026-08-27T18:27:49Z</time>
  <course>356.03</course>
  <speed>0.0</speed>
  <fix>3d</fix>
</trkpt>
<trkpt lat="-35.362881" lon="149.165222">
  <ele>582.09</ele>
  <time>2026-08-27T18:27:49Z</time>
  <course>94.84</course>
  <speed>0.04242640687119285</speed>
  <fix>3d</fix>
</trkpt>
<trkpt lat="-35.362881" lon="149.165222">
  <ele>582.09</ele>
  <time>2026-08-27T18:27:49Z</time>
  <course>356.03</course>
  <speed>0.0</speed>
  <fix>3d</fix>
</trkpt>
<trkpt lat="-35.362881" lon="149.165222">
  <ele>582.09</ele>
  <time>2026-08-27T18:27:49Z</time>
  <course>94.83</course>
  <speed>0.04242640687119285</speed>
  <fix>3d</fix>
</trkpt>
<trkpt lat="-35.362881" lon="149.165222">
  <ele>582.09</ele>
  <time>2026-08-27T18:27:49Z</time>
  <course>356.03</course>
  <speed>0.0</speed>
  <fix>3d</fix>
</trkpt>
<trkpt lat="-35.362881" lon="149.165222">
  <ele>582.09</ele>
  <time>2026-08-27T18:27:49Z</time>
  <course>94.82</course>
  <speed>0.04242640687119285</speed>
  <fix>3d</fix>
</trkpt>
<trkpt lat="-35.362881" lon="149.165222">
  <ele>582.09</ele>
  <time>2026-08-27T18:27:49Z</time>
  <course>356.03</course>
  <speed>0.0</speed>
  <fix>3d</fix>
</trkpt>
<trkpt lat="-35.362881" lon="149.165222">
  <ele>582.09</ele>
  <time>2026-08-27T18:27:49Z</time>
  <course>94.81</course>
  <speed>0.04242640687119285</speed>
  <fix>3d</fix>
</trkpt>
<trkpt lat="-35.362881" lon="149.165222">
  <ele>582.09</ele>
  <time>2026-08-27T18:27:49Z</time>
  <course>356.03</course>
  <speed>0.0</speed>
  <fix>3d</fix>
</trkpt>
<trkpt lat="-35.362881" lon="149.165222">
  <ele>582.09</ele>
  <time>2026-08-27T18:27:49Z</time>
  <course>94.8</course>
  <speed>0.04242640687119285</speed>
  <fix>3d</fix>
</trkpt>
<trkpt lat="-35.362881" lon="149.165222">
  <ele>582.09</ele>
  <time>2026-08-27T18:27:49Z</time>
  <course>356.03</course>
  <speed>0.0</speed>
  <fix>3d</fix>
</trkpt>
<trkpt lat="-35.362881" lon="149.165222">
  <ele>582.09</ele>
  <time>2026-08-27T18:27:49Z</time>
  <course>94.79</course>
  <speed>0.04242640687119285</speed>
  <fix>3d</fix>
</trkpt>
<trkpt lat="-35.362881" lon="149.165222">
  <ele>582.09</ele>
  <time>2026-08-27T18:27:49Z</time>
  <course>356.03</course>
  <speed>0.0</speed>
  <fix>3d</fix>
</trkpt>
<trkpt lat="-35.362881" lon="149.165222">
  <ele>582.28</ele>
  <time>2026-08-27T18:27:49Z</time>
  <course>94.78</course>
  <speed>0.0</speed>
  <fix>3d</fix>
</trkpt>
<trkpt lat="-35.362881" lon="149.165222">
  <ele>582.09</ele>
  <time>2026-08-27T18:27:49Z</time>
  <course>356.03</course>
  <speed>0.0</speed>
  <fix>3d</fix>
</trkpt>
<trkpt lat="-35.362881" lon="149.165222">
  <ele>582.29</ele>
  <time>2026-08-27T18:27:49Z</time>
  <course>94.77</course>
  <speed>0.0</speed>
  <fix>3d</fix>
</trkpt>
<trkpt lat="-35.362881" lon="149.165222">
  <ele>582.09</ele>
  <time>2026-08-27T18:27:49Z</time>
  <course>356.03</course>
  <speed>0.0</speed>
  <fix>3d</fix>
</trkpt>
<trkpt lat="-35.362881" lon="149.165222">
  <ele>582.29</ele>
  <time>2026-08-27T18:27:49Z</time>
  <course>94.76</course>
  <speed>0.0</speed>
  <fix>3d</fix>
</trkpt>
<trkpt lat="-35.362881" lon="149.165222">
  <ele>582.09</ele>
  <time>2026-08-27T18:27:49Z</time>
  <course>356.03</course>
  <speed>0.0</speed>
  <fix>3d</fix>
</trkpt>
<trkpt lat="-35.362881" lon="149.165222">
  <ele>582.29</ele>
  <time>2026-08-27T18:27:49Z</time>
  <course>94.75</course>
  <speed>0.0</speed>
  <fix>3d</fix>
</trkpt>
<trkpt lat="-35.362881" lon="149.165222">
  <ele>582.09</ele>
  <time>2026-08-27T18:27:49Z</time>
  <course>1.34</course>
  <speed>0.0</speed>
  <fix>3d</fix>
</trkpt>
<trkpt lat="-35.362881" lon="149.165222">
  <ele>582.29</ele>
  <time>2026-08-27T18:27:49Z</time>
  <course>94.74</course>
  <speed>0.0</speed>
  <fix>3d</fix>
</trkpt>
<trkpt lat="-35.362881" lon="149.165222">
  <ele>582.09</ele>
  <time>2026-08-27T18:27:49Z</time>
  <course>353.29</course>
  <speed>0.0</speed>
  <fix>3d</fix>
</trkpt>
<trkpt lat="-35.362881" lon="149.165222">
  <ele>582.28</ele>
  <time>2026-08-27T18:27:49Z</time>
  <course>94.73</course>
  <speed>0.0</speed>
  <fix>3d</fix>
</trkpt>
<trkpt lat="-35.362881" lon="149.165222">
  <ele>582.09</ele>
  <time>2026-08-27T18:27:49Z</time>
  <course>252.64</course>
  <speed>0.0</speed>
  <fix>3d</fix>
</trkpt>
<trkpt lat="-35.362881" lon="149.165222">
  <ele>582.28</ele>
  <time>2026-08-27T18:27:49Z</time>
  <course>94.72</course>
  <speed>0.01</speed>
  <fix>3d</fix>
</trkpt>
<trkpt lat="-35.362881" lon="149.165222">
  <ele>582.09</ele>
  <time>2026-08-27T18:27:49Z</time>
  <course>152.47</course>
  <speed>0.0</speed>
  <fix>3d</fix>
</trkpt>
<trkpt lat="-35.362881" lon="149.165222">
  <ele>582.29</ele>
  <time>2026-08-27T18:27:49Z</time>
  <course>94.71</course>
  <speed>0.01414213562373095</speed>
  <fix>3d</fix>
</trkpt>
<trkpt lat="-35.362881" lon="149.165222">
  <ele>582.09</ele>
  <time>2026-08-27T18:27:49Z</time>
  <course>4.94</course>
  <speed>0.0</speed>
  <fix>3d</fix>
</trkpt>
<trkpt lat="-35.362881" lon="149.165222">
  <ele>582.28</ele>
  <time>2026-08-27T18:27:49Z</time>
  <course>94.71</course>
  <speed>0.01414213562373095</speed>
  <fix>3d</fix>
</trkpt>
<trkpt lat="-35.362881" lon="149.165222">
  <ele>582.09</ele>
  <time>2026-08-27T18:27:49Z</time>
  <course>351.18</course>
  <speed>0.0</speed>
  <fix>3d</fix>
</trkpt>
<trkpt lat="-35.362881" lon="149.165222">
  <ele>582.28</ele>
  <time>2026-08-27T18:27:49Z</time>
  <course>94.7</course>
  <speed>0.01414213562373095</speed>
  <fix>3d</fix>
</trkpt>
<trkpt lat="-35.362881" lon="149.165222">
  <ele>582.09</ele>
  <time>2026-08-27T18:27:49Z</time>
  <course>354.86</course>
  <speed>0.0</speed>
  <fix>3d</fix>
</trkpt>
<trkpt lat="-35.362881" lon="149.165222">
  <ele>582.28</ele>
  <time>2026-08-27T18:27:49Z</time>
  <course>94.69</course>
  <speed>0.01414213562373095</speed>
  <fix>3d</fix>
</trkpt>
<trkpt lat="-35.362881" lon="149.165222">
  <ele>582.09</ele>
  <time>2026-08-27T18:27:49Z</time>
  <course>285.91</course>
  <speed>0.0</speed>
  <fix>3d</fix>
</trkpt>
<trkpt lat="-35.362881" lon="149.165222">
  <ele>582.28</ele>
  <time>2026-08-27T18:27:49Z</time>
  <course>94.68</course>
  <speed>0.01414213562373095</speed>
  <fix>3d</fix>
</trkpt>
<trkpt lat="-35.362881" lon="149.165222">
  <ele>582.09</ele>
  <time>2026-08-27T18:27:49Z</time>
  <course>338.3</course>
  <speed>0.0</speed>
  <fix>3d</fix>
</trkpt>
<trkpt lat="-35.362881" lon="149.165222">
  <ele>582.27</ele>
  <time>2026-08-27T18:27:49Z</time>
  <course>94.67</course>
  <speed>0.01414213562373095</speed>
  <fix>3d</fix>
</trkpt>
<trkpt lat="-35.362881" lon="149.165222">
  <ele>582.09</ele>
  <time>2026-08-27T18:27:49Z</time>
  <course>356.1</course>
  <speed>0.0</speed>
  <fix>3d</fix>
</trkpt>
<trkpt lat="-35.362881" lon="149.165222">
  <ele>582.27</ele>
  <time>2026-08-27T18:27:49Z</time>
  <course>94.66</course>
  <speed>0.01414213562373095</speed>
  <fix>3d</fix>
</trkpt>
<trkpt lat="-35.362881" lon="149.165222">
  <ele>582.09</ele>
  <time>2026-08-27T18:27:49Z</time>
  <course>351.67</course>
  <speed>0.0</speed>
  <fix>3d</fix>
</trkpt>
<trkpt lat="-35.362881" lon="149.165222">
  <ele>582.27</ele>
  <time>2026-08-27T18:27:49Z</time>
  <course>94.65</course>
  <speed>0.01414213562373095</speed>
  <fix>3d</fix>
</trkpt>
<trkpt lat="-35.362881" lon="149.165222">
  <ele>582.09</ele>
  <time>2026-08-27T18:27:49Z</time>
  <course>356.87</course>
  <speed>0.0</speed>
  <fix>3d</fix>
</trkpt>
<trkpt lat="-35.362881" lon="149.165222">
  <ele>582.27</ele>
  <time>2026-08-27T18:27:49Z</time>
  <course>94.65</course>
  <speed>0.01</speed>
  <fix>3d</fix>
</trkpt>
<trkpt lat="-35.362881" lon="149.165222">
  <ele>582.09</ele>
  <time>2026-08-27T18:27:49Z</time>
  <course>356.51</course>
  <speed>0.0</speed>
  <fix>3d</fix>
</trkpt>
<trkpt lat="-35.362881" lon="149.165222">
  <ele>582.27</ele>
  <time>2026-08-27T18:27:49Z</time>
  <course>94.64</course>
  <speed>0.0</speed>
  <fix>3d</fix>
</trkpt>
<trkpt lat="-35.362881" lon="149.165222">
  <ele>582.09</ele>
  <time>2026-08-27T18:27:49Z</time>
  <course>355.87</course>
  <speed>0.0</speed>
  <fix>3d</fix>
</trkpt>
<trkpt lat="-35.362881" lon="149.165222">
  <ele>582.27</ele>
  <time>2026-08-27T18:27:49Z</time>
  <course>94.63</course>
  <speed>0.0</speed>
  <fix>3d</fix>
</trkpt>
<trkpt lat="-35.362881" lon="149.165222">
  <ele>582.09</ele>
  <time>2026-08-27T18:27:49Z</time>
  <course>355.99</course>
  <speed>0.0</speed>
  <fix>3d</fix>
</trkpt>
<trkpt lat="-35.362881" lon="149.165222">
  <ele>582.27</ele>
  <time>2026-08-27T18:27:49Z</time>
  <course>94.62</course>
  <speed>0.0</speed>
  <fix>3d</fix>
</trkpt>
<trkpt lat="-35.362881" lon="149.165222">
  <ele>582.09</ele>
  <time>2026-08-27T18:27:49Z</time>
  <course>74.91</course>
  <speed>0.0</speed>
  <fix>3d</fix>
</trkpt>
<trkpt lat="-35.362881" lon="149.165222">
  <ele>582.27</ele>
  <time>2026-08-27T18:27:49Z</time>
  <course>94.61</course>
  <speed>0.0</speed>
  <fix>3d</fix>
</trkpt>
<trkpt lat="-35.362881" lon="149.165222">
  <ele>582.09</ele>
  <time>2026-08-27T18:27:49Z</time>
  <course>58.17</course>
  <speed>0.0</speed>
  <fix>3d</fix>
</trkpt>
<trkpt lat="-35.362881" lon="149.165222">
  <ele>582.27</ele>
  <time>2026-08-27T18:27:49Z</time>
  <course>94.61</course>
  <speed>0.0</speed>
  <fix>3d</fix>
</trkpt>
<trkpt lat="-35.362881" lon="149.165222">
  <ele>582.09</ele>
  <time>2026-08-27T18:27:49Z</time>
  <course>17.28</course>
  <speed>0.0</speed>
  <fix>3d</fix>
</trkpt>
<trkpt lat="-35.362881" lon="149.165222">
  <ele>582.27</ele>
  <time>2026-08-27T18:27:49Z</time>
  <course>94.6</course>
  <speed>0.0</speed>
  <fix>3d</fix>
</trkpt>
<trkpt lat="-35.362881" lon="149.165222">
  <ele>582.09</ele>
  <time>2026-08-27T18:27:49Z</time>
  <course>252.71</course>
  <speed>0.0</speed>
  <fix>3d</fix>
</trkpt>
<trkpt lat="-35.362881" lon="149.165222">
  <ele>582.26</ele>
  <time>2026-08-27T18:27:49Z</time>
  <course>94.59</course>
  <speed>0.0</speed>
  <fix>3d</fix>
</trkpt>
<trkpt lat="-35.362881" lon="149.165222">
  <ele>582.09</ele>
  <time>2026-08-27T18:27:49Z</time>
  <course>34.36</course>
  <speed>0.0</speed>
  <fix>3d</fix>
</trkpt>
<trkpt lat="-35.362881" lon="149.165222">
  <ele>582.26</ele>
  <time>2026-08-27T18:27:49Z</time>
  <course>94.59</course>
  <speed>0.0</speed>
  <fix>3d</fix>
</trkpt>
<trkpt lat="-35.362881" lon="149.165222">
  <ele>582.09</ele>
  <time>2026-08-27T18:27:49Z</time>
  <course>25.5</course>
  <speed>0.0</speed>
  <fix>3d</fix>
</trkpt>
<trkpt lat="-35.362881" lon="149.165222">
  <ele>582.26</ele>
  <time>2026-08-27T18:27:49Z</time>
  <course>94.58</course>
  <speed>0.0</speed>
  <fix>3d</fix>
</trkpt>
<trkpt lat="-35.362881" lon="149.165222">
  <ele>582.09</ele>
  <time>2026-08-27T18:27:49Z</time>
  <course>13.12</course>
  <speed>0.0</speed>
  <fix>3d</fix>
</trkpt>
<trkpt lat="-35.362881" lon="149.165222">
  <ele>582.26</ele>
  <time>2026-08-27T18:27:49Z</time>
  <course>94.57</course>
  <speed>0.0</speed>
  <fix>3d</fix>
</trkpt>
<trkpt lat="-35.362881" lon="149.165222">
  <ele>582.09</ele>
  <time>2026-08-27T18:27:49Z</time>
  <course>14.81</course>
  <speed>0.0</speed>
  <fix>3d</fix>
</trkpt>
<trkpt lat="-35.362881" lon="149.165222">
  <ele>582.27</ele>
  <time>2026-08-27T18:27:49Z</time>
  <course>94.57</course>
  <speed>0.0</speed>
  <fix>3d</fix>
</trkpt>
<trkpt lat="-35.362881" lon="149.165222">
  <ele>582.09</ele>
  <time>2026-08-27T18:27:49Z</time>
  <course>16.76</course>
  <speed>0.0</speed>
  <fix>3d</fix>
</trkpt>
<trkpt lat="-35.362881" lon="149.165222">
  <ele>582.27</ele>
  <time>2026-08-27T18:27:49Z</time>
  <course>94.56</course>
  <speed>0.0</speed>
  <fix>3d</fix>
</trkpt>
<trkpt lat="-35.362881" lon="149.165222">
  <ele>582.09</ele>
  <time>2026-08-27T18:27:49Z</time>
  <course>16.3</course>
  <speed>0.0</speed>
  <fix>3d</fix>
</trkpt>
<trkpt lat="-35.362881" lon="149.165222">
  <ele>582.27</ele>
  <time>2026-08-27T18:27:49Z</time>
  <course>94.56</course>
  <speed>0.0</speed>
  <fix>3d</fix>
</trkpt>
<trkpt lat="-35.362881" lon="149.165222">
  <ele>582.09</ele>
  <time>2026-08-27T18:27:49Z</time>
  <course>16.1</course>
  <speed>0.0</speed>
  <fix>3d</fix>
</trkpt>
<trkpt lat="-35.362881" lon="149.165222">
  <ele>582.27</ele>
  <time>2026-08-27T18:27:49Z</time>
  <course>94.55</course>
  <speed>0.0</speed>
  <fix>3d</fix>
</trkpt>
<trkpt lat="-35.362881" lon="149.165222">
  <ele>582.09</ele>
  <time>2026-08-27T18:27:49Z</time>
  <course>16.19</course>
  <speed>0.0</speed>
  <fix>3d</fix>
</trkpt>
<trkpt lat="-35.362881" lon="149.165222">
  <ele>582.27</ele>
  <time>2026-08-27T18:27:49Z</time>
  <course>94.54</course>
  <speed>0.0</speed>
  <fix>3d</fix>
</trkpt>
<trkpt lat="-35.362881" lon="149.165222">
  <ele>582.09</ele>
  <time>2026-08-27T18:27:49Z</time>
  <course>16.2</course>
  <speed>0.0</speed>
  <fix>3d</fix>
</trkpt>
<trkpt lat="-35.362881" lon="149.165222">
  <ele>582.27</ele>
  <time>2026-08-27T18:27:49Z</time>
  <course>94.54</course>
  <speed>0.0</speed>
  <fix>3d</fix>
</trkpt>
<trkpt lat="-35.362881" lon="149.165222">
  <ele>582.09</ele>
  <time>2026-08-27T18:27:49Z</time>
  <course>16.19</course>
  <speed>0.0</speed>
  <fix>3d</fix>
</trkpt>
<trkpt lat="-35.362881" lon="149.165222">
  <ele>582.27</ele>
  <time>2026-08-27T18:27:49Z</time>
  <course>94.53</course>
  <speed>0.0</speed>
  <fix>3d</fix>
</trkpt>
<trkpt lat="-35.362881" lon="149.165222">
  <ele>582.09</ele>
  <time>2026-08-27T18:27:49Z</time>
  <course>16.19</course>
  <speed>0.0</speed>
  <fix>3d</fix>
</trkpt>
<trkpt lat="-35.362881" lon="149.165222">
  <ele>582.27</ele>
  <time>2026-08-27T18:27:49Z</time>
  <course>94.52</course>
  <speed>0.0</speed>
  <fix>3d</fix>
</trkpt>
<trkpt lat="-35.362881" lon="149.165222">
  <ele>582.09</ele>
  <time>2026-08-27T18:27:49Z</time>
  <course>16.19</course>
  <speed>0.0</speed>
  <fix>3d</fix>
</trkpt>
<trkpt lat="-35.362881" lon="149.165222">
  <ele>582.27</ele>
  <time>2026-08-27T18:27:49Z</time>
  <course>94.52</course>
  <speed>0.0</speed>
  <fix>3d</fix>
</trkpt>
<trkpt lat="-35.362881" lon="149.165222">
  <ele>582.09</ele>
  <time>2026-08-27T18:27:49Z</time>
  <course>26.29</course>
  <speed>0.0</speed>
  <fix>3d</fix>
</trkpt>
<trkpt lat="-35.362881" lon="149.165222">
  <ele>582.27</ele>
  <time>2026-08-27T18:27:49Z</time>
  <course>94.51</course>
  <speed>0.0</speed>
  <fix>3d</fix>
</trkpt>
<trkpt lat="-35.362881" lon="149.165222">
  <ele>582.09</ele>
  <time>2026-08-27T18:27:49Z</time>
  <course>353.95</course>
  <speed>0.0</speed>
  <fix>3d</fix>
</trkpt>
<trkpt lat="-35.362881" lon="149.165222">
  <ele>582.27</ele>
  <time>2026-08-27T18:27:49Z</time>
  <course>94.51</course>
  <speed>0.0</speed>
  <fix>3d</fix>
</trkpt>
<trkpt lat="-35.362881" lon="149.165222">
  <ele>582.09</ele>
  <time>2026-08-27T18:27:49Z</time>
  <course>345.3</course>
  <speed>0.0</speed>
  <fix>3d</fix>
</trkpt>
<trkpt lat="-35.362881" lon="149.165222">
  <ele>582.27</ele>
  <time>2026-08-27T18:27:49Z</time>
  <course>94.5</course>
  <speed>0.0</speed>
  <fix>3d</fix>
</trkpt>
<trkpt lat="-35.362881" lon="149.165222">
  <ele>582.09</ele>
  <time>2026-08-27T18:27:49Z</time>
  <course>199.39</course>
  <speed>0.0</speed>
  <fix>3d</fix>
</trkpt>
<trkpt lat="-35.362881" lon="149.165222">
  <ele>582.27</ele>
  <time>2026-08-27T18:27:49Z</time>
  <course>94.5</course>
  <speed>0.0</speed>
  <fix>3d</fix>
</trkpt>
<trkpt lat="-35.362881" lon="149.165222">
  <ele>582.09</ele>
  <time>2026-08-27T18:27:49Z</time>
  <course>63.89</course>
  <speed>0.0</speed>
  <fix>3d</fix>
</trkpt>
<trkpt lat="-35.362881" lon="149.165222">
  <ele>582.27</ele>
  <time>2026-08-27T18:27:49Z</time>
  <course>94.49</course>
  <speed>0.01</speed>
  <fix>3d</fix>
</trkpt>
<trkpt lat="-35.362881" lon="149.165222">
  <ele>582.09</ele>
  <time>2026-08-27T18:27:49Z</time>
  <course>8.92</course>
  <speed>0.0</speed>
  <fix>3d</fix>
</trkpt>
<trkpt lat="-35.362881" lon="149.165222">
  <ele>582.27</ele>
  <time>2026-08-27T18:27:49Z</time>
  <course>94.49</course>
  <speed>0.01</speed>
  <fix>3d</fix>
</trkpt>
<trkpt lat="-35.362881" lon="149.165222">
  <ele>582.09</ele>
  <time>2026-08-27T18:27:49Z</time>
  <course>7.2</course>
  <speed>0.0</speed>
  <fix>3d</fix>
</trkpt>
<trkpt lat="-35.362881" lon="149.165222">
  <ele>582.27</ele>
  <time>2026-08-27T18:27:49Z</time>
  <course>94.48</course>
  <speed>0.01414213562373095</speed>
  <fix>3d</fix>
</trkpt>
<trkpt lat="-35.362881" lon="149.165222">
  <ele>582.09</ele>
  <time>2026-08-27T18:27:49Z</time>
  <course>11.64</course>
  <speed>0.0</speed>
  <fix>3d</fix>
</trkpt>
<trkpt lat="-35.362881" lon="149.165222">
  <ele>582.27</ele>
  <time>2026-08-27T18:27:49Z</time>
  <course>94.48</course>
  <speed>0.01414213562373095</speed>
  <fix>3d</fix>
</trkpt>
<trkpt lat="-35.362881" lon="149.165222">
  <ele>582.09</ele>
  <time>2026-08-27T18:27:49Z</time>
  <course>11.23</course>
  <speed>0.0</speed>
  <fix>3d</fix>
</trkpt>
<trkpt lat="-35.362881" lon="149.165222">
  <ele>582.27</ele>
  <time>2026-08-27T18:27:49Z</time>
  <course>94.47</course>
  <speed>0.01414213562373095</speed>
  <fix>3d</fix>
</trkpt>
<trkpt lat="-35.362881" lon="149.165222">
  <ele>582.09</ele>
  <time>2026-08-27T18:27:49Z</time>
  <course>10.66</course>
  <speed>0.0</speed>
  <fix>3d</fix>
</trkpt>
<trkpt lat="-35.362881" lon="149.165222">
  <ele>582.27</ele>
  <time>2026-08-27T18:27:49Z</time>
  <course>94.47</course>
  <speed>0.01414213562373095</speed>
  <fix>3d</fix>
</trkpt>
<trkpt lat="-35.362881" lon="149.165222">
  <ele>582.09</ele>
  <time>2026-08-27T18:27:49Z</time>
  <course>10.78</course>
  <speed>0.0</speed>
  <fix>3d</fix>
</trkpt>
<trkpt lat="-35.362881" lon="149.165222">
  <ele>582.26</ele>
  <time>2026-08-27T18:27:49Z</time>
  <course>94.46</course>
  <speed>0.01414213562373095</speed>
  <fix>3d</fix>
</trkpt>
<trkpt lat="-35.362881" lon="149.165222">
  <ele>582.09</ele>
  <time>2026-08-27T18:27:49Z</time>
  <course>10.84</course>
  <speed>0.0</speed>
  <fix>3d</fix>
</trkpt>
<trkpt lat="-35.362881" lon="149.165222">
  <ele>582.26</ele>
  <time>2026-08-27T18:27:49Z</time>
  <course>94.46</course>
  <speed>0.01414213562373095</speed>
  <fix>3d</fix>
</trkpt>
<trkpt lat="-35.362881" lon="149.165222">
  <ele>582.09</ele>
  <time>2026-08-27T18:27:49Z</time>
  <course>10.82</course>
  <speed>0.0</speed>
  <fix>3d</fix>
</trkpt>
<trkpt lat="-35.362881" lon="149.1652219">
  <ele>582.26</ele>
  <time>2026-08-27T18:27:49Z</time>
  <course>94.46</course>
  <speed>0.01414213562373095</speed>
  <fix>3d</fix>
</trkpt>
<trkpt lat="-35.362881" lon="149.165222">
  <ele>582.09</ele>
  <time>2026-08-27T18:27:49Z</time>
  <course>10.81</course>
  <speed>0.0</speed>
  <fix>3d</fix>
</trkpt>
<trkpt lat="-35.362881" lon="149.1652219">
  <ele>582.26</ele>
  <time>2026-08-27T18:27:49Z</time>
  <course>94.45</course>
  <speed>0.01414213562373095</speed>
  <fix>3d</fix>
</trkpt>
<trkpt lat="-35.362881" lon="149.165222">
  <ele>582.09</ele>
  <time>2026-08-27T18:27:49Z</time>
  <course>10.81</course>
  <speed>0.0</speed>
  <fix>3d</fix>
</trkpt>
<trkpt lat="-35.362881" lon="149.1652219">
  <ele>582.27</ele>
  <time>2026-08-27T18:27:49Z</time>
  <course>94.45</course>
  <speed>0.01414213562373095</speed>
  <fix>3d</fix>
</trkpt>
<trkpt lat="-35.362881" lon="149.165222">
  <ele>582.09</ele>
  <time>2026-08-27T18:27:49Z</time>
  <course>10.81</course>
  <speed>0.0</speed>
  <fix>3d</fix>
</trkpt>
<trkpt lat="-35.362881" lon="149.1652219">
  <ele>582.27</ele>
  <time>2026-08-27T18:27:49Z</time>
  <course>94.44</course>
  <speed>0.01414213562373095</speed>
  <fix>3d</fix>
</trkpt>
<trkpt lat="-35.362881" lon="149.165222">
  <ele>582.09</ele>
  <time>2026-08-27T18:27:49Z</time>
  <course>10.81</course>
  <speed>0.0</speed>
  <fix>3d</fix>
</trkpt>
<trkpt lat="-35.362881" lon="149.1652219">
  <ele>582.27</ele>
  <time>2026-08-27T18:27:49Z</time>
  <course>94.44</course>
  <speed>0.01414213562373095</speed>
  <fix>3d</fix>
</trkpt>
<trkpt lat="-35.362881" lon="149.165222">
  <ele>582.09</ele>
  <time>2026-08-27T18:27:49Z</time>
  <course>10.81</course>
  <speed>0.0</speed>
  <fix>3d</fix>
</trkpt>
<trkpt lat="-35.362881" lon="149.1652219">
  <ele>582.27</ele>
  <time>2026-08-27T18:27:49Z</time>
  <course>94.43</course>
  <speed>0.01414213562373095</speed>
  <fix>3d</fix>
</trkpt>
<trkpt lat="-35.362881" lon="149.165222">
  <ele>582.09</ele>
  <time>2026-08-27T18:27:49Z</time>
  <course>10.81</course>
  <speed>0.0</speed>
  <fix>3d</fix>
</trkpt>
<trkpt lat="-35.3628811" lon="149.1652219">
  <ele>582.27</ele>
  <time>2026-08-27T18:27:49Z</time>
  <course>94.43</course>
  <speed>0.01414213562373095</speed>
  <fix>3d</fix>
</trkpt>
<trkpt lat="-35.362881" lon="149.165222">
  <ele>582.09</ele>
  <time>2026-08-27T18:27:49Z</time>
  <course>10.81</course>
  <speed>0.0</speed>
  <fix>3d</fix>
</trkpt>
<trkpt lat="-35.3628811" lon="149.1652219">
  <ele>582.27</ele>
  <time>2026-08-27T18:27:49Z</time>
  <course>94.43</course>
  <speed>0.01414213562373095</speed>
  <fix>3d</fix>
</trkpt>
<trkpt lat="-35.362881" lon="149.165222">
  <ele>582.09</ele>
  <time>2026-08-27T18:27:49Z</time>
  <course>10.81</course>
  <speed>0.0</speed>
  <fix>3d</fix>
</trkpt>
<trkpt lat="-35.3628811" lon="149.1652219">
  <ele>582.27</ele>
  <time>2026-08-27T18:27:49Z</time>
  <course>94.42</course>
  <speed>0.01414213562373095</speed>
  <fix>3d</fix>
</trkpt>
<trkpt lat="-35.362881" lon="149.165222">
  <ele>582.09</ele>
  <time>2026-08-27T18:27:49Z</time>
  <course>10.81</course>
  <speed>0.0</speed>
  <fix>3d</fix>
</trkpt>
<trkpt lat="-35.3628811" lon="149.1652219">
  <ele>582.27</ele>
  <time>2026-08-27T18:27:49Z</time>
  <course>94.42</course>
  <speed>0.022360679774997897</speed>
  <fix>3d</fix>
</trkpt>
<trkpt lat="-35.362881" lon="149.165222">
  <ele>582.09</ele>
  <time>2026-08-27T18:27:49Z</time>
  <course>10.81</course>
  <speed>0.0</speed>
  <fix>3d</fix>
</trkpt>
<trkpt lat="-35.3628811" lon="149.1652219">
  <ele>582.27</ele>
  <time>2026-08-27T18:27:49Z</time>
  <course>94.42</course>
  <speed>0.022360679774997897</speed>
  <fix>3d</fix>
</trkpt>
<trkpt lat="-35.362881" lon="149.165222">
  <ele>582.09</ele>
  <time>2026-08-27T18:27:49Z</time>
  <course>10.81</course>
  <speed>0.0</speed>
  <fix>3d</fix>
</trkpt>
<trkpt lat="-35.3628811" lon="149.1652219">
  <ele>582.27</ele>
  <time>2026-08-27T18:27:49Z</time>
  <course>94.41</course>
  <speed>0.022360679774997897</speed>
  <fix>3d</fix>
</trkpt>
<trkpt lat="-35.362881" lon="149.165222">
  <ele>582.09</ele>
  <time>2026-08-27T18:27:49Z</time>
  <course>10.81</course>
  <speed>0.0</speed>
  <fix>3d</fix>
</trkpt>
<trkpt lat="-35.3628811" lon="149.1652219">
  <ele>582.27</ele>
  <time>2026-08-27T18:27:49Z</time>
  <course>94.41</course>
  <speed>0.022360679774997897</speed>
  <fix>3d</fix>
</trkpt>
<trkpt lat="-35.362881" lon="149.165222">
  <ele>582.09</ele>
  <time>2026-08-27T18:27:49Z</time>
  <course>10.81</course>
  <speed>0.0</speed>
  <fix>3d</fix>
</trkpt>
<trkpt lat="-35.3628811" lon="149.1652219">
  <ele>582.27</ele>
  <time>2026-08-27T18:27:49Z</time>
  <course>94.4</course>
  <speed>0.022360679774997897</speed>
  <fix>3d</fix>
</trkpt>
<trkpt lat="-35.362881" lon="149.165222">
  <ele>582.09</ele>
  <time>2026-08-27T18:27:49Z</time>
  <course>10.81</course>
  <speed>0.0</speed>
  <fix>3d</fix>
</trkpt>
<trkpt lat="-35.3628811" lon="149.1652219">
  <ele>582.26</ele>
  <time>2026-08-27T18:27:49Z</time>
  <course>94.4</course>
  <speed>0.022360679774997897</speed>
  <fix>3d</fix>
</trkpt>
<trkpt lat="-35.362881" lon="149.165222">
  <ele>582.09</ele>
  <time>2026-08-27T18:27:49Z</time>
  <course>10.81</course>
  <speed>0.0</speed>
  <fix>3d</fix>
</trkpt>
<trkpt lat="-35.3628811" lon="149.1652219">
  <ele>582.26</ele>
  <time>2026-08-27T18:27:49Z</time>
  <course>94.39</course>
  <speed>0.022360679774997897</speed>
  <fix>3d</fix>
</trkpt>
<trkpt lat="-35.362881" lon="149.165222">
  <ele>582.09</ele>
  <time>2026-08-27T18:27:49Z</time>
  <course>10.81</course>
  <speed>0.0</speed>
  <fix>3d</fix>
</trkpt>
<trkpt lat="-35.3628811" lon="149.1652219">
  <ele>582.26</ele>
  <time>2026-08-27T18:27:49Z</time>
  <course>94.39</course>
  <speed>0.01414213562373095</speed>
  <fix>3d</fix>
</trkpt>
<trkpt lat="-35.362881" lon="149.165222">
  <ele>582.09</ele>
  <time>2026-08-27T18:27:49Z</time>
  <course>10.81</course>
  <speed>0.0</speed>
  <fix>3d</fix>
</trkpt>
<trkpt lat="-35.3628811" lon="149.1652219">
  <ele>582.25</ele>
  <time>2026-08-27T18:27:49Z</time>
  <course>94.39</course>
  <speed>0.01414213562373095</speed>
  <fix>3d</fix>
</trkpt>
<trkpt lat="-35.362881" lon="149.165222">
  <ele>582.09</ele>
  <time>2026-08-27T18:27:49Z</time>
  <course>10.81</course>
  <speed>0.0</speed>
  <fix>3d</fix>
</trkpt>
<trkpt lat="-35.3628811" lon="149.1652219">
  <ele>582.25</ele>
  <time>2026-08-27T18:27:49Z</time>
  <course>94.38</course>
  <speed>0.01414213562373095</speed>
  <fix>3d</fix>
</trkpt>
<trkpt lat="-35.362881" lon="149.165222">
  <ele>582.09</ele>
  <time>2026-08-27T18:27:49Z</time>
  <course>10.81</course>
  <speed>0.0</speed>
  <fix>3d</fix>
</trkpt>
<trkpt lat="-35.3628811" lon="149.1652219">
  <ele>582.25</ele>
  <time>2026-08-27T18:27:49Z</time>
  <course>94.38</course>
  <speed>0.01414213562373095</speed>
  <fix>3d</fix>
</trkpt>
<trkpt lat="-35.362881" lon="149.165222">
  <ele>582.09</ele>
  <time>2026-08-27T18:27:49Z</time>
  <course>202.51</course>
  <speed>0.0</speed>
  <fix>3d</fix>
</trkpt>
<trkpt lat="-35.3628811" lon="149.1652219">
  <ele>582.25</ele>
  <time>2026-08-27T18:27:49Z</time>
  <course>94.37</course>
  <speed>0.01414213562373095</speed>
  <fix>3d</fix>
</trkpt>
<trkpt lat="-35.362881" lon="149.165222">
  <ele>582.09</ele>
  <time>2026-08-27T18:27:49Z</time>
  <course>180.63</course>
  <speed>0.0</speed>
  <fix>3d</fix>
</trkpt>
<trkpt lat="-35.362881" lon="149.1652219">
  <ele>582.24</ele>
  <time>2026-08-27T18:27:49Z</time>
  <course>94.37</course>
  <speed>0.01414213562373095</speed>
  <fix>3d</fix>
</trkpt>
<trkpt lat="-35.362881" lon="149.165222">
  <ele>582.09</ele>
  <time>2026-08-27T18:27:49Z</time>
  <course>122.85</course>
  <speed>0.0</speed>
  <fix>3d</fix>
</trkpt>
<trkpt lat="-35.362881" lon="149.1652219">
  <ele>582.24</ele>
  <time>2026-08-27T18:27:49Z</time>
  <course>94.36</course>
  <speed>0.01</speed>
  <fix>3d</fix>
</trkpt>
<trkpt lat="-35.362881" lon="149.165222">
  <ele>582.09</ele>
  <time>2026-08-27T18:27:49Z</time>
  <course>1.16</course>
  <speed>0.0</speed>
  <fix>3d</fix>
</trkpt>
<trkpt lat="-35.362881" lon="149.1652219">
  <ele>582.24</ele>
  <time>2026-08-27T18:27:49Z</time>
  <course>94.36</course>
  <speed>0.0</speed>
  <fix>3d</fix>
</trkpt>
<trkpt lat="-35.362881" lon="149.165222">
  <ele>582.09</ele>
  <time>2026-08-27T18:27:49Z</time>
  <course>354.86</course>
  <speed>0.0</speed>
  <fix>3d</fix>
</trkpt>
<trkpt lat="-35.362881" lon="149.1652219">
  <ele>582.24</ele>
  <time>2026-08-27T18:27:49Z</time>
  <course>94.35</course>
  <speed>0.0</speed>
  <fix>3d</fix>
</trkpt>
<trkpt lat="-35.362881" lon="149.165222">
  <ele>582.09</ele>
  <time>2026-08-27T18:27:49Z</time>
  <course>30.34</course>
  <speed>0.0</speed>
  <fix>3d</fix>
</trkpt>
<trkpt lat="-35.362881" lon="149.1652219">
  <ele>582.24</ele>
  <time>2026-08-27T18:27:49Z</time>
  <course>94.35</course>
  <speed>0.0</speed>
  <fix>3d</fix>
</trkpt>
<trkpt lat="-35.362881" lon="149.165222">
  <ele>582.09</ele>
  <time>2026-08-27T18:27:49Z</time>
  <course>17.91</course>
  <speed>0.0</speed>
  <fix>3d</fix>
</trkpt>
<trkpt lat="-35.362881" lon="149.1652219">
  <ele>582.24</ele>
  <time>2026-08-27T18:27:49Z</time>
  <course>94.34</course>
  <speed>0.0</speed>
  <fix>3d</fix>
</trkpt>
<trkpt lat="-35.362881" lon="149.165222">
  <ele>582.09</ele>
  <time>2026-08-27T18:27:49Z</time>
  <course>14.73</course>
  <speed>0.0</speed>
  <fix>3d</fix>
</trkpt>
<trkpt lat="-35.362881" lon="149.1652219">
  <ele>582.24</ele>
  <time>2026-08-27T18:27:49Z</time>
  <course>94.34</course>
  <speed>0.0</speed>
  <fix>3d</fix>
</trkpt>
<trkpt lat="-35.362881" lon="149.165222">
  <ele>582.09</ele>
  <time>2026-08-27T18:27:49Z</time>
  <course>16.13</course>
  <speed>0.0</speed>
  <fix>3d</fix>
</trkpt>
<trkpt lat="-35.362881" lon="149.1652219">
  <ele>582.24</ele>
  <time>2026-08-27T18:27:49Z</time>
  <course>94.33</course>
  <speed>0.0</speed>
  <fix>3d</fix>
</trkpt>
<trkpt lat="-35.362881" lon="149.165222">
  <ele>582.09</ele>
  <time>2026-08-27T18:27:49Z</time>
  <course>329.09</course>
  <speed>0.0</speed>
  <fix>3d</fix>
</trkpt>
<trkpt lat="-35.362881" lon="149.1652219">
  <ele>582.24</ele>
  <time>2026-08-27T18:27:49Z</time>
  <course>94.33</course>
  <speed>0.0</speed>
  <fix>3d</fix>
</trkpt>
<trkpt lat="-35.362881" lon="149.165222">
  <ele>582.09</ele>
  <time>2026-08-27T18:27:49Z</time>
  <course>7.11</course>
  <speed>0.0</speed>
  <fix>3d</fix>
</trkpt>
<trkpt lat="-35.362881" lon="149.1652219">
  <ele>582.24</ele>
  <time>2026-08-27T18:27:49Z</time>
  <course>94.33</course>
  <speed>0.0</speed>
  <fix>3d</fix>
</trkpt>
<trkpt lat="-35.362881" lon="149.165222">
  <ele>582.09</ele>
  <time>2026-08-27T18:27:49Z</time>
  <course>14.98</course>
  <speed>0.0</speed>
  <fix>3d</fix>
</trkpt>
<trkpt lat="-35.362881" lon="149.1652219">
  <ele>582.24</ele>
  <time>2026-08-27T18:27:49Z</time>
  <course>94.32</course>
  <speed>0.0</speed>
  <fix>3d</fix>
</trkpt>
<trkpt lat="-35.362881" lon="149.165222">
  <ele>582.09</ele>
  <time>2026-08-27T18:27:49Z</time>
  <course>12.32</course>
  <speed>0.0</speed>
  <fix>3d</fix>
</trkpt>
<trkpt lat="-35.362881" lon="149.1652219">
  <ele>582.24</ele>
  <time>2026-08-27T18:27:49Z</time>
  <course>94.32</course>
  <speed>0.0</speed>
  <fix>3d</fix>
</trkpt>
<trkpt lat="-35.362881" lon="149.165222">
  <ele>582.09</ele>
  <time>2026-08-27T18:27:49Z</time>
  <course>17.13</course>
  <speed>0.0</speed>
  <fix>3d</fix>
</trkpt>
<trkpt lat="-35.362881" lon="149.1652219">
  <ele>582.24</ele>
  <time>2026-08-27T18:27:50Z</time>
  <course>94.31</course>
  <speed>0.0</speed>
  <fix>3d</fix>
</trkpt>
<trkpt lat="-35.362881" lon="149.165222">
  <ele>582.09</ele>
  <time>2026-08-27T18:27:50Z</time>
  <course>8.17</course>
  <speed>0.0</speed>
  <fix>3d</fix>
</trkpt>
<trkpt lat="-35.362881" lon="149.1652219">
  <ele>582.24</ele>
  <time>2026-08-27T18:27:50Z</time>
  <course>94.31</course>
  <speed>0.0</speed>
  <fix>3d</fix>
</trkpt>
<trkpt lat="-35.362881" lon="149.165222">
  <ele>582.09</ele>
  <time>2026-08-27T18:27:50Z</time>
  <course>358.42</course>
  <speed>0.0</speed>
  <fix>3d</fix>
</trkpt>
<trkpt lat="-35.362881" lon="149.1652219">
  <ele>582.24</ele>
  <time>2026-08-27T18:27:50Z</time>
  <course>94.3</course>
  <speed>0.0</speed>
  <fix>3d</fix>
</trkpt>
<trkpt lat="-35.362881" lon="149.165222">
  <ele>582.09</ele>
  <time>2026-08-27T18:27:50Z</time>
  <course>302.25</course>
  <speed>0.0</speed>
  <fix>3d</fix>
</trkpt>
<trkpt lat="-35.362881" lon="149.1652219">
  <ele>582.24</ele>
  <time>2026-08-27T18:27:50Z</time>
  <course>94.3</course>
  <speed>0.0</speed>
  <fix>3d</fix>
</trkpt>
<trkpt lat="-35.362881" lon="149.165222">
  <ele>582.09</ele>
  <time>2026-08-27T18:27:50Z</time>
  <course>134.93</course>
  <speed>0.0</speed>
  <fix>3d</fix>
</trkpt>
<trkpt lat="-35.362881" lon="149.1652219">
  <ele>582.24</ele>
  <time>2026-08-27T18:27:50Z</time>
  <course>94.3</course>
  <speed>0.0</speed>
  <fix>3d</fix>
</trkpt>
<trkpt lat="-35.362881" lon="149.165222">
  <ele>582.09</ele>
  <time>2026-08-27T18:27:50Z</time>
  <course>16.57</course>
  <speed>0.0</speed>
  <fix>3d</fix>
</trkpt>
<trkpt lat="-35.362881" lon="149.1652219">
  <ele>582.24</ele>
  <time>2026-08-27T18:27:50Z</time>
  <course>94.29</course>
  <speed>0.0</speed>
  <fix>3d</fix>
</trkpt>
<trkpt lat="-35.362881" lon="149.165222">
  <ele>582.09</ele>
  <time>2026-08-27T18:27:50Z</time>
  <course>5.87</course>
  <speed>0.0</speed>
  <fix>3d</fix>
</trkpt>
<trkpt lat="-35.362881" lon="149.1652219">
  <ele>582.24</ele>
  <time>2026-08-27T18:27:50Z</time>
  <course>94.29</course>
  <speed>0.0</speed>
  <fix>3d</fix>
</trkpt>
<trkpt lat="-35.362881" lon="149.165222">
  <ele>582.09</ele>
  <time>2026-08-27T18:27:50Z</time>
  <course>10.54</course>
  <speed>0.0</speed>
  <fix>3d</fix>
</trkpt>
<trkpt lat="-35.362881" lon="149.1652219">
  <ele>582.24</ele>
  <time>2026-08-27T18:27:50Z</time>
  <course>94.28</course>
  <speed>0.0</speed>
  <fix>3d</fix>
</trkpt>
<trkpt lat="-35.362881" lon="149.165222">
  <ele>582.09</ele>
  <time>2026-08-27T18:27:50Z</time>
  <course>11.63</course>
  <speed>0.0</speed>
  <fix>3d</fix>
</trkpt>
<trkpt lat="-35.362881" lon="149.1652219">
  <ele>582.24</ele>
  <time>2026-08-27T18:27:50Z</time>
  <course>94.28</course>
  <speed>0.0</speed>
  <fix>3d</fix>
</trkpt>
<trkpt lat="-35.362881" lon="149.165222">
  <ele>582.09</ele>
  <time>2026-08-27T18:27:50Z</time>
  <course>10.7</course>
  <speed>0.0</speed>
  <fix>3d</fix>
</trkpt>
<trkpt lat="-35.362881" lon="149.1652219">
  <ele>582.24</ele>
  <time>2026-08-27T18:27:50Z</time>
  <course>94.27</course>
  <speed>0.0</speed>
  <fix>3d</fix>
</trkpt>
<trkpt lat="-35.362881" lon="149.165222">
  <ele>582.09</ele>
  <time>2026-08-27T18:27:50Z</time>
  <course>10.56</course>
  <speed>0.0</speed>
  <fix>3d</fix>
</trkpt>
<trkpt lat="-35.362881" lon="149.1652219">
  <ele>582.24</ele>
  <time>2026-08-27T18:27:50Z</time>
  <course>94.26</course>
  <speed>0.0</speed>
  <fix>3d</fix>
</trkpt>
<trkpt lat="-35.362881" lon="149.165222">
  <ele>582.09</ele>
  <time>2026-08-27T18:27:50Z</time>
  <course>10.58</course>
  <speed>0.0</speed>
  <fix>3d</fix>
</trkpt>
<trkpt lat="-35.362881" lon="149.1652219">
  <ele>582.24</ele>
  <time>2026-08-27T18:27:50Z</time>
  <course>94.25</course>
  <speed>0.0</speed>
  <fix>3d</fix>
</trkpt>
<trkpt lat="-35.362881" lon="149.165222">
  <ele>582.09</ele>
  <time>2026-08-27T18:27:50Z</time>
  <course>10.47</course>
  <speed>0.0</speed>
  <fix>3d</fix>
</trkpt>
<trkpt lat="-35.362881" lon="149.1652219">
  <ele>582.24</ele>
  <time>2026-08-27T18:27:50Z</time>
  <course>94.24</course>
  <speed>0.0</speed>
  <fix>3d</fix>
</trkpt>
<trkpt lat="-35.362881" lon="149.165222">
  <ele>582.09</ele>
  <time>2026-08-27T18:27:50Z</time>
  <course>10.36</course>
  <speed>0.0</speed>
  <fix>3d</fix>
</trkpt>
<trkpt lat="-35.362881" lon="149.1652219">
  <ele>582.25</ele>
  <time>2026-08-27T18:27:50Z</time>
  <course>94.23</course>
  <speed>0.0</speed>
  <fix>3d</fix>
</trkpt>
<trkpt lat="-35.362881" lon="149.165222">
  <ele>582.09</ele>
  <time>2026-08-27T18:27:50Z</time>
  <course>10.26</course>
  <speed>0.0</speed>
  <fix>3d</fix>
</trkpt>
<trkpt lat="-35.362881" lon="149.1652219">
  <ele>582.25</ele>
  <time>2026-08-27T18:27:50Z</time>
  <course>94.22</course>
  <speed>0.01</speed>
  <fix>3d</fix>
</trkpt>
<trkpt lat="-35.362881" lon="149.165222">
  <ele>582.09</ele>
  <time>2026-08-27T18:27:50Z</time>
  <course>10.16</course>
  <speed>0.0</speed>
  <fix>3d</fix>
</trkpt>
<trkpt lat="-35.362881" lon="149.1652219">
  <ele>582.25</ele>
  <time>2026-08-27T18:27:50Z</time>
  <course>94.2</course>
  <speed>0.01</speed>
  <fix>3d</fix>
</trkpt>
<trkpt lat="-35.362881" lon="149.165222">
  <ele>582.09</ele>
  <time>2026-08-27T18:27:50Z</time>
  <course>57.8</course>
  <speed>0.0</speed>
  <fix>3d</fix>
</trkpt>
<trkpt lat="-35.362881" lon="149.1652219">
  <ele>582.25</ele>
  <time>2026-08-27T18:27:50Z</time>
  <course>94.18</course>
  <speed>0.01414213562373095</speed>
  <fix>3d</fix>
</trkpt>
<trkpt lat="-35.362881" lon="149.165222">
  <ele>582.09</ele>
  <time>2026-08-27T18:27:50Z</time>
  <course>50.18</course>
  <speed>0.0</speed>
  <fix>3d</fix>
</trkpt>
<trkpt lat="-35.362881" lon="149.1652219">
  <ele>582.25</ele>
  <time>2026-08-27T18:27:50Z</time>
  <course>94.16</course>
  <speed>0.01414213562373095</speed>
  <fix>3d</fix>
</trkpt>
<trkpt lat="-35.362881" lon="149.165222">
  <ele>582.09</ele>
  <time>2026-08-27T18:27:50Z</time>
  <course>344.21</course>
  <speed>0.0</speed>
  <fix>3d</fix>
</trkpt>
<trkpt lat="-35.362881" lon="149.1652219">
  <ele>582.25</ele>
  <time>2026-08-27T18:27:50Z</time>
  <course>94.14</course>
  <speed>0.01414213562373095</speed>
  <fix>3d</fix>
</trkpt>
<trkpt lat="-35.362881" lon="149.165222">
  <ele>582.09</ele>
  <time>2026-08-27T18:27:50Z</time>
  <course>348.76</course>
  <speed>0.0</speed>
  <fix>3d</fix>
</trkpt>
<trkpt lat="-35.362881" lon="149.1652219">
  <ele>582.25</ele>
  <time>2026-08-27T18:27:50Z</time>
  <course>94.12</course>
  <speed>0.01414213562373095</speed>
  <fix>3d</fix>
</trkpt>
<trkpt lat="-35.362881" lon="149.165222">
  <ele>582.09</ele>
  <time>2026-08-27T18:27:50Z</time>
  <course>13.31</course>
  <speed>0.0</speed>
  <fix>3d</fix>
</trkpt>
<trkpt lat="-35.362881" lon="149.1652219">
  <ele>582.25</ele>
  <time>2026-08-27T18:27:50Z</time>
  <course>94.1</course>
  <speed>0.01414213562373095</speed>
  <fix>3d</fix>
</trkpt>
<trkpt lat="-35.362881" lon="149.165222">
  <ele>582.09</ele>
  <time>2026-08-27T18:27:50Z</time>
  <course>11.15</course>
  <speed>0.0</speed>
  <fix>3d</fix>
</trkpt>
<trkpt lat="-35.362881" lon="149.1652219">
  <ele>582.25</ele>
  <time>2026-08-27T18:27:50Z</time>
  <course>94.08</course>
  <speed>0.01414213562373095</speed>
  <fix>3d</fix>
</trkpt>
<trkpt lat="-35.362881" lon="149.165222">
  <ele>582.09</ele>
  <time>2026-08-27T18:27:50Z</time>
  <course>4.69</course>
  <speed>0.0</speed>
  <fix>3d</fix>
</trkpt>
<trkpt lat="-35.362881" lon="149.1652219">
  <ele>582.25</ele>
  <time>2026-08-27T18:27:50Z</time>
  <course>94.05</course>
  <speed>0.01414213562373095</speed>
  <fix>3d</fix>
</trkpt>
<trkpt lat="-35.362881" lon="149.165222">
  <ele>582.09</ele>
  <time>2026-08-27T18:27:50Z</time>
  <course>2.45</course>
  <speed>0.0</speed>
  <fix>3d</fix>
</trkpt>
<trkpt lat="-35.362881" lon="149.1652219">
  <ele>582.25</ele>
  <time>2026-08-27T18:27:50Z</time>
  <course>94.02</course>
  <speed>0.01414213562373095</speed>
  <fix>3d</fix>
</trkpt>
<trkpt lat="-35.362881" lon="149.165222">
  <ele>582.09</ele>
  <time>2026-08-27T18:27:50Z</time>
  <course>2.79</course>
  <speed>0.0</speed>
  <fix>3d</fix>
</trkpt>
<trkpt lat="-35.362881" lon="149.1652219">
  <ele>582.25</ele>
  <time>2026-08-27T18:27:50Z</time>
  <course>94.0</course>
  <speed>0.01414213562373095</speed>
  <fix>3d</fix>
</trkpt>
<trkpt lat="-35.362881" lon="149.165222">
  <ele>582.09</ele>
  <time>2026-08-27T18:27:50Z</time>
  <course>5.28</course>
  <speed>0.0</speed>
  <fix>3d</fix>
</trkpt>
<trkpt lat="-35.362881" lon="149.1652219">
  <ele>582.25</ele>
  <time>2026-08-27T18:27:50Z</time>
  <course>93.97</course>
  <speed>0.01414213562373095</speed>
  <fix>3d</fix>
</trkpt>
<trkpt lat="-35.362881" lon="149.165222">
  <ele>582.09</ele>
  <time>2026-08-27T18:27:50Z</time>
  <course>1.4</course>
  <speed>0.0</speed>
  <fix>3d</fix>
</trkpt>
<trkpt lat="-35.362881" lon="149.1652219">
  <ele>582.25</ele>
  <time>2026-08-27T18:27:50Z</time>
  <course>93.93</course>
  <speed>0.01414213562373095</speed>
  <fix>3d</fix>
</trkpt>
<trkpt lat="-35.362881" lon="149.165222">
  <ele>582.09</ele>
  <time>2026-08-27T18:27:50Z</time>
  <course>2.66</course>
  <speed>0.0</speed>
  <fix>3d</fix>
</trkpt>
<trkpt lat="-35.362881" lon="149.1652219">
  <ele>582.24</ele>
  <time>2026-08-27T18:27:50Z</time>
  <course>93.9</course>
  <speed>0.01414213562373095</speed>
  <fix>3d</fix>
</trkpt>
<trkpt lat="-35.362881" lon="149.165222">
  <ele>582.09</ele>
  <time>2026-08-27T18:27:50Z</time>
  <course>358.52</course>
  <speed>0.0</speed>
  <fix>3d</fix>
</trkpt>
<trkpt lat="-35.362881" lon="149.1652219">
  <ele>582.25</ele>
  <time>2026-08-27T18:27:50Z</time>
  <course>93.87</course>
  <speed>0.01414213562373095</speed>
  <fix>3d</fix>
</trkpt>
<trkpt lat="-35.362881" lon="149.165222">
  <ele>582.09</ele>
  <time>2026-08-27T18:27:50Z</time>
  <course>355.66</course>
  <speed>0.0</speed>
  <fix>3d</fix>
</trkpt>
<trkpt lat="-35.362881" lon="149.1652219">
  <ele>582.25</ele>
  <time>2026-08-27T18:27:50Z</time>
  <course>93.84</course>
  <speed>0.022360679774997897</speed>
  <fix>3d</fix>
</trkpt>
<trkpt lat="-35.362881" lon="149.165222">
  <ele>582.09</ele>
  <time>2026-08-27T18:27:50Z</time>
  <course>1.69</course>
  <speed>0.0</speed>
  <fix>3d</fix>
</trkpt>
<trkpt lat="-35.3628811" lon="149.1652219">
  <ele>582.25</ele>
  <time>2026-08-27T18:27:50Z</time>
  <course>93.8</course>
  <speed>0.022360679774997897</speed>
  <fix>3d</fix>
</trkpt>
<trkpt lat="-35.362881" lon="149.165222">
  <ele>582.09</ele>
  <time>2026-08-27T18:27:50Z</time>
  <course>2.35</course>
  <speed>0.0</speed>
  <fix>3d</fix>
</trkpt>
<trkpt lat="-35.3628811" lon="149.1652219">
  <ele>582.25</ele>
  <time>2026-08-27T18:27:50Z</time>
  <course>93.76</course>
  <speed>0.022360679774997897</speed>
  <fix>3d</fix>
</trkpt>
<trkpt lat="-35.362881" lon="149.165222">
  <ele>582.09</ele>
  <time>2026-08-27T18:27:50Z</time>
  <course>0.19</course>
  <speed>0.0</speed>
  <fix>3d</fix>
</trkpt>
<trkpt lat="-35.3628811" lon="149.1652219">
  <ele>582.25</ele>
  <time>2026-08-27T18:27:50Z</time>
  <course>93.72</course>
  <speed>0.022360679774997897</speed>
  <fix>3d</fix>
</trkpt>
<trkpt lat="-35.362881" lon="149.165222">
  <ele>582.09</ele>
  <time>2026-08-27T18:27:50Z</time>
  <course>0.15</course>
  <speed>0.0</speed>
  <fix>3d</fix>
</trkpt>
<trkpt lat="-35.3628811" lon="149.1652219">
  <ele>582.24</ele>
  <time>2026-08-27T18:27:50Z</time>
  <course>93.69</course>
  <speed>0.022360679774997897</speed>
  <fix>3d</fix>
</trkpt>
<trkpt lat="-35.362881" lon="149.165222">
  <ele>582.09</ele>
  <time>2026-08-27T18:27:50Z</time>
  <course>0.6</course>
  <speed>0.0</speed>
  <fix>3d</fix>
</trkpt>
<trkpt lat="-35.3628811" lon="149.1652219">
  <ele>582.24</ele>
  <time>2026-08-27T18:27:50Z</time>
  <course>93.65</course>
  <speed>0.022360679774997897</speed>
  <fix>3d</fix>
</trkpt>
<trkpt lat="-35.362881" lon="149.165222">
  <ele>582.09</ele>
  <time>2026-08-27T18:27:50Z</time>
  <course>0.07</course>
  <speed>0.0</speed>
  <fix>3d</fix>
</trkpt>
<trkpt lat="-35.3628811" lon="149.1652219">
  <ele>582.24</ele>
  <time>2026-08-27T18:27:50Z</time>
  <course>93.61</course>
  <speed>0.022360679774997897</speed>
  <fix>3d</fix>
</trkpt>
<trkpt lat="-35.362881" lon="149.165222">
  <ele>582.09</ele>
  <time>2026-08-27T18:27:50Z</time>
  <course>0.06</course>
  <speed>0.0</speed>
  <fix>3d</fix>
</trkpt>
<trkpt lat="-35.3628811" lon="149.1652219">
  <ele>582.24</ele>
  <time>2026-08-27T18:27:50Z</time>
  <course>93.56</course>
  <speed>0.022360679774997897</speed>
  <fix>3d</fix>
</trkpt>
<trkpt lat="-35.362881" lon="149.165222">
  <ele>582.09</ele>
  <time>2026-08-27T18:27:50Z</time>
  <course>359.82</course>
  <speed>0.0</speed>
  <fix>3d</fix>
</trkpt>
<trkpt lat="-35.3628811" lon="149.1652219">
  <ele>582.25</ele>
  <time>2026-08-27T18:27:50Z</time>
  <course>93.52</course>
  <speed>0.022360679774997897</speed>
  <fix>3d</fix>
</trkpt>
<trkpt lat="-35.362881" lon="149.165222">
  <ele>582.09</ele>
  <time>2026-08-27T18:27:50Z</time>
  <course>359.7</course>
  <speed>0.0</speed>
  <fix>3d</fix>
</trkpt>
<trkpt lat="-35.3628811" lon="149.1652219">
  <ele>582.25</ele>
  <time>2026-08-27T18:27:50Z</time>
  <course>93.48</course>
  <speed>0.0282842712474619</speed>
  <fix>3d</fix>
</trkpt>
<trkpt lat="-35.362881" lon="149.165222">
  <ele>582.09</ele>
  <time>2026-08-27T18:27:50Z</time>
  <course>359.59</course>
  <speed>0.0</speed>
  <fix>3d</fix>
</trkpt>
<trkpt lat="-35.3628811" lon="149.1652219">
  <ele>582.25</ele>
  <time>2026-08-27T18:27:50Z</time>
  <course>93.43</course>
  <speed>0.0282842712474619</speed>
  <fix>3d</fix>
</trkpt>
<trkpt lat="-35.362881" lon="149.165222">
  <ele>582.09</ele>
  <time>2026-08-27T18:27:50Z</time>
  <course>359.48</course>
  <speed>0.0</speed>
  <fix>3d</fix>
</trkpt>
<trkpt lat="-35.3628811" lon="149.1652219">
  <ele>582.25</ele>
  <time>2026-08-27T18:27:50Z</time>
  <course>93.39</course>
  <speed>0.0282842712474619</speed>
  <fix>3d</fix>
</trkpt>
<trkpt lat="-35.362881" lon="149.165222">
  <ele>582.09</ele>
  <time>2026-08-27T18:27:50Z</time>
  <course>359.47</course>
  <speed>0.0</speed>
  <fix>3d</fix>
</trkpt>
<trkpt lat="-35.3628811" lon="149.1652219">
  <ele>582.26</ele>
  <time>2026-08-27T18:27:50Z</time>
  <course>93.34</course>
  <speed>0.0282842712474619</speed>
  <fix>3d</fix>
</trkpt>
<trkpt lat="-35.362881" lon="149.165222">
  <ele>582.09</ele>
  <time>2026-08-27T18:27:50Z</time>
  <course>359.31</course>
  <speed>0.0</speed>
  <fix>3d</fix>
</trkpt>
<trkpt lat="-35.3628811" lon="149.1652219">
  <ele>582.26</ele>
  <time>2026-08-27T18:27:50Z</time>
  <course>93.29</course>
  <speed>0.0282842712474619</speed>
  <fix>3d</fix>
</trkpt>
<trkpt lat="-35.362881" lon="149.165222">
  <ele>582.09</ele>
  <time>2026-08-27T18:27:50Z</time>
  <course>359.23</course>
  <speed>0.0</speed>
  <fix>3d</fix>
</trkpt>
<trkpt lat="-35.3628811" lon="149.1652218">
  <ele>582.26</ele>
  <time>2026-08-27T18:27:50Z</time>
  <course>93.24</course>
  <speed>0.0282842712474619</speed>
  <fix>3d</fix>
</trkpt>
<trkpt lat="-35.362881" lon="149.165222">
  <ele>582.09</ele>
  <time>2026-08-27T18:27:50Z</time>
  <course>359.11</course>
  <speed>0.0</speed>
  <fix>3d</fix>
</trkpt>
<trkpt lat="-35.3628811" lon="149.1652218">
  <ele>582.26</ele>
  <time>2026-08-27T18:27:50Z</time>
  <course>93.2</course>
  <speed>0.0282842712474619</speed>
  <fix>3d</fix>
</trkpt>
<trkpt lat="-35.362881" lon="149.165222">
  <ele>582.09</ele>
  <time>2026-08-27T18:27:50Z</time>
  <course>359.02</course>
  <speed>0.0</speed>
  <fix>3d</fix>
</trkpt>
<trkpt lat="-35.3628811" lon="149.1652218">
  <ele>582.26</ele>
  <time>2026-08-27T18:27:50Z</time>
  <course>93.15</course>
  <speed>0.0282842712474619</speed>
  <fix>3d</fix>
</trkpt>
<trkpt lat="-35.362881" lon="149.165222">
  <ele>582.09</ele>
  <time>2026-08-27T18:27:50Z</time>
  <course>358.91</course>
  <speed>0.0</speed>
  <fix>3d</fix>
</trkpt>
<trkpt lat="-35.3628811" lon="149.1652218">
  <ele>582.26</ele>
  <time>2026-08-27T18:27:50Z</time>
  <course>93.1</course>
  <speed>0.0282842712474619</speed>
  <fix>3d</fix>
</trkpt>
<trkpt lat="-35.362881" lon="149.165222">
  <ele>582.09</ele>
  <time>2026-08-27T18:27:50Z</time>
  <course>358.83</course>
  <speed>0.0</speed>
  <fix>3d</fix>
</trkpt>
<trkpt lat="-35.3628811" lon="149.1652218">
  <ele>582.26</ele>
  <time>2026-08-27T18:27:50Z</time>
  <course>93.05</course>
  <speed>0.0282842712474619</speed>
  <fix>3d</fix>
</trkpt>
<trkpt lat="-35.362881" lon="149.165222">
  <ele>582.09</ele>
  <time>2026-08-27T18:27:50Z</time>
  <course>358.73</course>
  <speed>0.0</speed>
  <fix>3d</fix>
</trkpt>
<trkpt lat="-35.3628811" lon="149.1652218">
  <ele>582.26</ele>
  <time>2026-08-27T18:27:50Z</time>
  <course>93.0</course>
  <speed>0.0282842712474619</speed>
  <fix>3d</fix>
</trkpt>
<trkpt lat="-35.362881" lon="149.165222">
  <ele>582.09</ele>
  <time>2026-08-27T18:27:50Z</time>
  <course>358.61</course>
  <speed>0.0</speed>
  <fix>3d</fix>
</trkpt>
<trkpt lat="-35.3628811" lon="149.1652218">
  <ele>582.25</ele>
  <time>2026-08-27T18:27:50Z</time>
  <course>92.95</course>
  <speed>0.0282842712474619</speed>
  <fix>3d</fix>
</trkpt>
<trkpt lat="-35.362881" lon="149.165222">
  <ele>582.09</ele>
  <time>2026-08-27T18:27:50Z</time>
  <course>358.49</course>
  <speed>0.0</speed>
  <fix>3d</fix>
</trkpt>
<trkpt lat="-35.3628811" lon="149.1652218">
  <ele>582.25</ele>
  <time>2026-08-27T18:27:50Z</time>
  <course>92.9</course>
  <speed>0.0282842712474619</speed>
  <fix>3d</fix>
</trkpt>
<trkpt lat="-35.362881" lon="149.165222">
  <ele>582.09</ele>
  <time>2026-08-27T18:27:50Z</time>
  <course>358.43</course>
  <speed>0.0</speed>
  <fix>3d</fix>
</trkpt>
<trkpt lat="-35.3628811" lon="149.1652218">
  <ele>582.25</ele>
  <time>2026-08-27T18:27:50Z</time>
  <course>92.85</course>
  <speed>0.0282842712474619</speed>
  <fix>3d</fix>
</trkpt>
<trkpt lat="-35.362881" lon="149.165222">
  <ele>582.09</ele>
  <time>2026-08-27T18:27:50Z</time>
  <course>358.33</course>
  <speed>0.0</speed>
  <fix>3d</fix>
</trkpt>
<trkpt lat="-35.3628811" lon="149.1652218">
  <ele>582.25</ele>
  <time>2026-08-27T18:27:50Z</time>
  <course>92.8</course>
  <speed>0.0282842712474619</speed>
  <fix>3d</fix>
</trkpt>
<trkpt lat="-35.362881" lon="149.165222">
  <ele>582.09</ele>
  <time>2026-08-27T18:27:50Z</time>
  <course>358.26</course>
  <speed>0.0</speed>
  <fix>3d</fix>
</trkpt>
<trkpt lat="-35.3628811" lon="149.1652218">
  <ele>582.25</ele>
  <time>2026-08-27T18:27:50Z</time>
  <course>92.75</course>
  <speed>0.0282842712474619</speed>
  <fix>3d</fix>
</trkpt>
<trkpt lat="-35.362881" lon="149.165222">
  <ele>582.09</ele>
  <time>2026-08-27T18:27:50Z</time>
  <course>358.19</course>
  <speed>0.0</speed>
  <fix>3d</fix>
</trkpt>
<trkpt lat="-35.3628811" lon="149.1652218">
  <ele>582.25</ele>
  <time>2026-08-27T18:27:50Z</time>
  <course>92.71</course>
  <speed>0.0282842712474619</speed>
  <fix>3d</fix>
</trkpt>
<trkpt lat="-35.362881" lon="149.165222">
  <ele>582.09</ele>
  <time>2026-08-27T18:27:50Z</time>
  <course>358.12</course>
  <speed>0.0</speed>
  <fix>3d</fix>
</trkpt>
<trkpt lat="-35.3628811" lon="149.1652218">
  <ele>582.25</ele>
  <time>2026-08-27T18:27:50Z</time>
  <course>92.66</course>
  <speed>0.0282842712474619</speed>
  <fix>3d</fix>
</trkpt>
<trkpt lat="-35.362881" lon="149.165222">
  <ele>582.09</ele>
  <time>2026-08-27T18:27:50Z</time>
  <course>358.06</course>
  <speed>0.0</speed>
  <fix>3d</fix>
</trkpt>
<trkpt lat="-35.3628811" lon="149.1652218">
  <ele>582.24</ele>
  <time>2026-08-27T18:27:50Z</time>
  <course>92.62</course>
  <speed>0.0282842712474619</speed>
  <fix>3d</fix>
</trkpt>
<trkpt lat="-35.362881" lon="149.165222">
  <ele>582.09</ele>
  <time>2026-08-27T18:27:50Z</time>
  <course>358.05</course>
  <speed>0.0</speed>
  <fix>3d</fix>
</trkpt>
<trkpt lat="-35.3628811" lon="149.1652218">
  <ele>582.24</ele>
  <time>2026-08-27T18:27:50Z</time>
  <course>92.57</course>
  <speed>0.022360679774997897</speed>
  <fix>3d</fix>
</trkpt>
<trkpt lat="-35.362881" lon="149.165222">
  <ele>582.09</ele>
  <time>2026-08-27T18:27:50Z</time>
  <course>357.98</course>
  <speed>0.0</speed>
  <fix>3d</fix>
</trkpt>
<trkpt lat="-35.3628811" lon="149.1652218">
  <ele>582.24</ele>
  <time>2026-08-27T18:27:50Z</time>
  <course>92.53</course>
  <speed>0.022360679774997897</speed>
  <fix>3d</fix>
</trkpt>
<trkpt lat="-35.362881" lon="149.165222">
  <ele>582.09</ele>
  <time>2026-08-27T18:27:50Z</time>
  <course>357.95</course>
  <speed>0.0</speed>
  <fix>3d</fix>
</trkpt>
<trkpt lat="-35.3628811" lon="149.1652218">
  <ele>582.24</ele>
  <time>2026-08-27T18:27:50Z</time>
  <course>92.49</course>
  <speed>0.022360679774997897</speed>
  <fix>3d</fix>
</trkpt>
<trkpt lat="-35.362881" lon="149.165222">
  <ele>582.09</ele>
  <time>2026-08-27T18:27:50Z</time>
  <course>357.88</course>
  <speed>0.0</speed>
  <fix>3d</fix>
</trkpt>
<trkpt lat="-35.3628811" lon="149.1652218">
  <ele>582.24</ele>
  <time>2026-08-27T18:27:50Z</time>
  <course>92.44</course>
  <speed>0.022360679774997897</speed>
  <fix>3d</fix>
</trkpt>
<trkpt lat="-35.362881" lon="149.165222">
  <ele>582.09</ele>
  <time>2026-08-27T18:27:50Z</time>
  <course>356.85</course>
  <speed>0.0</speed>
  <fix>3d</fix>
</trkpt>
<trkpt lat="-35.3628811" lon="149.1652218">
  <ele>582.25</ele>
  <time>2026-08-27T18:27:50Z</time>
  <course>92.4</course>
  <speed>0.022360679774997897</speed>
  <fix>3d</fix>
</trkpt>
<trkpt lat="-35.362881" lon="149.165222">
  <ele>582.09</ele>
  <time>2026-08-27T18:27:50Z</time>
  <course>359.15</course>
  <speed>0.0</speed>
  <fix>3d</fix>
</trkpt>
<trkpt lat="-35.3628811" lon="149.1652218">
  <ele>582.25</ele>
  <time>2026-08-27T18:27:50Z</time>
  <course>92.36</course>
  <speed>0.022360679774997897</speed>
  <fix>3d</fix>
</trkpt>
<trkpt lat="-35.362881" lon="149.165222">
  <ele>582.09</ele>
  <time>2026-08-27T18:27:50Z</time>
  <course>1.12</course>
  <speed>0.0</speed>
  <fix>3d</fix>
</trkpt>
<trkpt lat="-35.3628811" lon="149.1652218">
  <ele>582.25</ele>
  <time>2026-08-27T18:27:50Z</time>
  <course>92.32</course>
  <speed>0.022360679774997897</speed>
  <fix>3d</fix>
</trkpt>
<trkpt lat="-35.362881" lon="149.165222">
  <ele>582.09</ele>
  <time>2026-08-27T18:27:50Z</time>
  <course>358.51</course>
  <speed>0.0</speed>
  <fix>3d</fix>
</trkpt>
<trkpt lat="-35.3628811" lon="149.1652218">
  <ele>582.25</ele>
  <time>2026-08-27T18:27:50Z</time>
  <course>92.28</course>
  <speed>0.022360679774997897</speed>
  <fix>3d</fix>
</trkpt>
<trkpt lat="-35.362881" lon="149.165222">
  <ele>582.09</ele>
  <time>2026-08-27T18:27:50Z</time>
  <course>357.12</course>
  <speed>0.0</speed>
  <fix>3d</fix>
</trkpt>
<trkpt lat="-35.3628811" lon="149.1652218">
  <ele>582.25</ele>
  <time>2026-08-27T18:27:50Z</time>
  <course>92.24</course>
  <speed>0.022360679774997897</speed>
  <fix>3d</fix>
</trkpt>
<trkpt lat="-35.362881" lon="149.165222">
  <ele>582.09</ele>
  <time>2026-08-27T18:27:50Z</time>
  <course>357.56</course>
  <speed>0.0</speed>
  <fix>3d</fix>
</trkpt>
<trkpt lat="-35.3628811" lon="149.1652218">
  <ele>582.25</ele>
  <time>2026-08-27T18:27:50Z</time>
  <course>92.2</course>
  <speed>0.022360679774997897</speed>
  <fix>3d</fix>
</trkpt>
<trkpt lat="-35.362881" lon="149.165222">
  <ele>582.09</ele>
  <time>2026-08-27T18:27:50Z</time>
  <course>357.65</course>
  <speed>0.0</speed>
  <fix>3d</fix>
</trkpt>
<trkpt lat="-35.3628811" lon="149.1652218">
  <ele>582.25</ele>
  <time>2026-08-27T18:27:50Z</time>
  <course>92.17</course>
  <speed>0.022360679774997897</speed>
  <fix>3d</fix>
</trkpt>
<trkpt lat="-35.362881" lon="149.165222">
  <ele>582.09</ele>
  <time>2026-08-27T18:27:50Z</time>
  <course>357.65</course>
  <speed>0.0</speed>
  <fix>3d</fix>
</trkpt>
<trkpt lat="-35.3628811" lon="149.1652218">
  <ele>582.25</ele>
  <time>2026-08-27T18:27:50Z</time>
  <course>92.13</course>
  <speed>0.022360679774997897</speed>
  <fix>3d</fix>
</trkpt>
<trkpt lat="-35.362881" lon="149.165222">
  <ele>582.09</ele>
  <time>2026-08-27T18:27:50Z</time>
  <course>357.24</course>
  <speed>0.0</speed>
  <fix>3d</fix>
</trkpt>
<trkpt lat="-35.3628811" lon="149.1652218">
  <ele>582.25</ele>
  <time>2026-08-27T18:27:50Z</time>
  <course>92.09</course>
  <speed>0.022360679774997897</speed>
  <fix>3d</fix>
</trkpt>
<trkpt lat="-35.362881" lon="149.165222">
  <ele>582.09</ele>
  <time>2026-08-27T18:27:50Z</time>
  <course>357.43</course>
  <speed>0.0</speed>
  <fix>3d</fix>
</trkpt>
<trkpt lat="-35.3628811" lon="149.1652218">
  <ele>582.25</ele>
  <time>2026-08-27T18:27:50Z</time>
  <course>92.05</course>
  <speed>0.022360679774997897</speed>
  <fix>3d</fix>
</trkpt>
<trkpt lat="-35.362881" lon="149.165222">
  <ele>582.09</ele>
  <time>2026-08-27T18:27:50Z</time>
  <course>357.45</course>
  <speed>0.0</speed>
  <fix>3d</fix>
</trkpt>
<trkpt lat="-35.3628811" lon="149.1652218">
  <ele>582.25</ele>
  <time>2026-08-27T18:27:50Z</time>
  <course>92.01</course>
  <speed>0.022360679774997897</speed>
  <fix>3d</fix>
</trkpt>
<trkpt lat="-35.362881" lon="149.165222">
  <ele>582.09</ele>
  <time>2026-08-27T18:27:50Z</time>
  <course>357.29</course>
  <speed>0.0</speed>
  <fix>3d</fix>
</trkpt>
<trkpt lat="-35.3628811" lon="149.1652218">
  <ele>582.25</ele>
  <time>2026-08-27T18:27:50Z</time>
  <course>91.98</course>
  <speed>0.022360679774997897</speed>
  <fix>3d</fix>
</trkpt>
<trkpt lat="-35.362881" lon="149.165222">
  <ele>582.09</ele>
  <time>2026-08-27T18:27:50Z</time>
  <course>357.42</course>
  <speed>0.0</speed>
  <fix>3d</fix>
</trkpt>
<trkpt lat="-35.3628811" lon="149.1652218">
  <ele>582.25</ele>
  <time>2026-08-27T18:27:50Z</time>
  <course>91.94</course>
  <speed>0.022360679774997897</speed>
  <fix>3d</fix>
</trkpt>
<trkpt lat="-35.362881" lon="149.165222">
  <ele>582.09</ele>
  <time>2026-08-27T18:27:50Z</time>
  <course>357.18</course>
  <speed>0.0</speed>
  <fix>3d</fix>
</trkpt>
<trkpt lat="-35.3628811" lon="149.1652218">
  <ele>582.25</ele>
  <time>2026-08-27T18:27:50Z</time>
  <course>91.91</course>
  <speed>0.022360679774997897</speed>
  <fix>3d</fix>
</trkpt>
<trkpt lat="-35.362881" lon="149.165222">
  <ele>582.09</ele>
  <time>2026-08-27T18:27:50Z</time>
  <course>357.27</course>
  <speed>0.0</speed>
  <fix>3d</fix>
</trkpt>
<trkpt lat="-35.3628811" lon="149.1652218">
  <ele>582.26</ele>
  <time>2026-08-27T18:27:50Z</time>
  <course>91.87</course>
  <speed>0.022360679774997897</speed>
  <fix>3d</fix>
</trkpt>
<trkpt lat="-35.362881" lon="149.165222">
  <ele>582.09</ele>
  <time>2026-08-27T18:27:50Z</time>
  <course>357.35</course>
  <speed>0.0</speed>
  <fix>3d</fix>
</trkpt>
<trkpt lat="-35.3628811" lon="149.1652218">
  <ele>582.26</ele>
  <time>2026-08-27T18:27:50Z</time>
  <course>91.84</course>
  <speed>0.022360679774997897</speed>
  <fix>3d</fix>
</trkpt>
<trkpt lat="-35.362881" lon="149.165222">
  <ele>582.09</ele>
  <time>2026-08-27T18:27:50Z</time>
  <course>356.85</course>
  <speed>0.0</speed>
  <fix>3d</fix>
</trkpt>
<trkpt lat="-35.3628811" lon="149.1652218">
  <ele>582.26</ele>
  <time>2026-08-27T18:27:50Z</time>
  <course>91.81</course>
  <speed>0.022360679774997897</speed>
  <fix>3d</fix>
</trkpt>
<trkpt lat="-35.362881" lon="149.165222">
  <ele>582.09</ele>
  <time>2026-08-27T18:27:50Z</time>
  <course>357.18</course>
  <speed>0.0</speed>
  <fix>3d</fix>
</trkpt>
<trkpt lat="-35.3628811" lon="149.1652218">
  <ele>582.26</ele>
  <time>2026-08-27T18:27:50Z</time>
  <course>91.78</course>
  <speed>0.022360679774997897</speed>
  <fix>3d</fix>
</trkpt>
<trkpt lat="-35.362881" lon="149.165222">
  <ele>582.09</ele>
  <time>2026-08-27T18:27:50Z</time>
  <course>357.27</course>
  <speed>0.0</speed>
  <fix>3d</fix>
</trkpt>
<trkpt lat="-35.3628811" lon="149.1652218">
  <ele>582.26</ele>
  <time>2026-08-27T18:27:50Z</time>
  <course>91.74</course>
  <speed>0.022360679774997897</speed>
  <fix>3d</fix>
</trkpt>
<trkpt lat="-35.362881" lon="149.165222">
  <ele>582.09</ele>
  <time>2026-08-27T18:27:50Z</time>
  <course>356.86</course>
  <speed>0.0</speed>
  <fix>3d</fix>
</trkpt>
<trkpt lat="-35.3628811" lon="149.1652218">
  <ele>582.26</ele>
  <time>2026-08-27T18:27:50Z</time>
  <course>91.71</course>
  <speed>0.022360679774997897</speed>
  <fix>3d</fix>
</trkpt>
<trkpt lat="-35.362881" lon="149.165222">
  <ele>582.09</ele>
  <time>2026-08-27T18:27:50Z</time>
  <course>357.08</course>
  <speed>0.0</speed>
  <fix>3d</fix>
</trkpt>
<trkpt lat="-35.3628811" lon="149.1652218">
  <ele>582.26</ele>
  <time>2026-08-27T18:27:50Z</time>
  <course>91.68</course>
  <speed>0.022360679774997897</speed>
  <fix>3d</fix>
</trkpt>
<trkpt lat="-35.362881" lon="149.165222">
  <ele>582.09</ele>
  <time>2026-08-27T18:27:50Z</time>
  <course>357.16</course>
  <speed>0.0</speed>
  <fix>3d</fix>
</trkpt>
<trkpt lat="-35.3628811" lon="149.1652218">
  <ele>582.26</ele>
  <time>2026-08-27T18:27:50Z</time>
  <course>91.65</course>
  <speed>0.022360679774997897</speed>
  <fix>3d</fix>
</trkpt>
<trkpt lat="-35.362881" lon="149.165222">
  <ele>582.09</ele>
  <time>2026-08-27T18:27:50Z</time>
  <course>356.75</course>
  <speed>0.0</speed>
  <fix>3d</fix>
</trkpt>
<trkpt lat="-35.3628811" lon="149.1652218">
  <ele>582.26</ele>
  <time>2026-08-27T18:27:50Z</time>
  <course>91.61</course>
  <speed>0.022360679774997897</speed>
  <fix>3d</fix>
</trkpt>
<trkpt lat="-35.362881" lon="149.165222">
  <ele>582.09</ele>
  <time>2026-08-27T18:27:50Z</time>
  <course>356.97</course>
  <speed>0.0</speed>
  <fix>3d</fix>
</trkpt>
<trkpt lat="-35.3628811" lon="149.1652218">
  <ele>582.26</ele>
  <time>2026-08-27T18:27:50Z</time>
  <course>91.58</course>
  <speed>0.022360679774997897</speed>
  <fix>3d</fix>
</trkpt>
<trkpt lat="-35.362881" lon="149.165222">
  <ele>582.09</ele>
  <time>2026-08-27T18:27:50Z</time>
  <course>357.06</course>
  <speed>0.0</speed>
  <fix>3d</fix>
</trkpt>
<trkpt lat="-35.3628811" lon="149.1652218">
  <ele>582.26</ele>
  <time>2026-08-27T18:27:50Z</time>
  <course>91.55</course>
  <speed>0.022360679774997897</speed>
  <fix>3d</fix>
</trkpt>
<trkpt lat="-35.362881" lon="149.165222">
  <ele>582.09</ele>
  <time>2026-08-27T18:27:50Z</time>
  <course>356.68</course>
  <speed>0.0</speed>
  <fix>3d</fix>
</trkpt>
<trkpt lat="-35.3628811" lon="149.1652218">
  <ele>582.26</ele>
  <time>2026-08-27T18:27:50Z</time>
  <course>91.52</course>
  <speed>0.022360679774997897</speed>
  <fix>3d</fix>
</trkpt>
<trkpt lat="-35.362881" lon="149.165222">
  <ele>582.09</ele>
  <time>2026-08-27T18:27:50Z</time>
  <course>356.83</course>
  <speed>0.0</speed>
  <fix>3d</fix>
</trkpt>
<trkpt lat="-35.3628811" lon="149.1652218">
  <ele>582.26</ele>
  <time>2026-08-27T18:27:50Z</time>
  <course>91.5</course>
  <speed>0.01414213562373095</speed>
  <fix>3d</fix>
</trkpt>
<trkpt lat="-35.362881" lon="149.165222">
  <ele>582.09</ele>
  <time>2026-08-27T18:27:50Z</time>
  <course>356.98</course>
  <speed>0.0</speed>
  <fix>3d</fix>
</trkpt>
<trkpt lat="-35.3628811" lon="149.1652218">
  <ele>582.26</ele>
  <time>2026-08-27T18:27:50Z</time>
  <course>91.47</course>
  <speed>0.01414213562373095</speed>
  <fix>3d</fix>
</trkpt>
<trkpt lat="-35.362881" lon="149.165222">
  <ele>582.09</ele>
  <time>2026-08-27T18:27:50Z</time>
  <course>356.75</course>
  <speed>0.0</speed>
  <fix>3d</fix>
</trkpt>
<trkpt lat="-35.3628811" lon="149.1652218">
  <ele>582.26</ele>
  <time>2026-08-27T18:27:50Z</time>
  <course>91.44</course>
  <speed>0.01414213562373095</speed>
  <fix>3d</fix>
</trkpt>
<trkpt lat="-35.362881" lon="149.165222">
  <ele>582.09</ele>
  <time>2026-08-27T18:27:50Z</time>
  <course>356.29</course>
  <speed>0.0</speed>
  <fix>3d</fix>
</trkpt>
<trkpt lat="-35.3628811" lon="149.1652218">
  <ele>582.26</ele>
  <time>2026-08-27T18:27:50Z</time>
  <course>91.41</course>
  <speed>0.01414213562373095</speed>
  <fix>3d</fix>
</trkpt>
<trkpt lat="-35.362881" lon="149.165222">
  <ele>582.09</ele>
  <time>2026-08-27T18:27:50Z</time>
  <course>356.84</course>
  <speed>0.0</speed>
  <fix>3d</fix>
</trkpt>
<trkpt lat="-35.3628811" lon="149.1652218">
  <ele>582.26</ele>
  <time>2026-08-27T18:27:50Z</time>
  <course>91.38</course>
  <speed>0.01414213562373095</speed>
  <fix>3d</fix>
</trkpt>
<trkpt lat="-35.362881" lon="149.165222">
  <ele>582.09</ele>
  <time>2026-08-27T18:27:50Z</time>
  <course>356.85</course>
  <speed>0.0</speed>
  <fix>3d</fix>
</trkpt>
<trkpt lat="-35.3628811" lon="149.1652218">
  <ele>582.26</ele>
  <time>2026-08-27T18:27:50Z</time>
  <course>91.35</course>
  <speed>0.01414213562373095</speed>
  <fix>3d</fix>
</trkpt>
<trkpt lat="-35.362881" lon="149.165222">
  <ele>582.09</ele>
  <time>2026-08-27T18:27:50Z</time>
  <course>356.35</course>
  <speed>0.0</speed>
  <fix>3d</fix>
</trkpt>
<trkpt lat="-35.3628811" lon="149.1652218">
  <ele>582.26</ele>
  <time>2026-08-27T18:27:50Z</time>
  <course>91.32</course>
  <speed>0.01414213562373095</speed>
  <fix>3d</fix>
</trkpt>
<trkpt lat="-35.362881" lon="149.165222">
  <ele>582.09</ele>
  <time>2026-08-27T18:27:50Z</time>
  <course>356.66</course>
  <speed>0.0</speed>
  <fix>3d</fix>
</trkpt>
<trkpt lat="-35.3628811" lon="149.1652218">
  <ele>582.26</ele>
  <time>2026-08-27T18:27:50Z</time>
  <course>91.3</course>
  <speed>0.01414213562373095</speed>
  <fix>3d</fix>
</trkpt>
<trkpt lat="-35.362881" lon="149.165222">
  <ele>582.09</ele>
  <time>2026-08-27T18:27:50Z</time>
  <course>356.78</course>
  <speed>0.0</speed>
  <fix>3d</fix>
</trkpt>
<trkpt lat="-35.3628811" lon="149.1652218">
  <ele>582.27</ele>
  <time>2026-08-27T18:27:50Z</time>
  <course>91.27</course>
  <speed>0.01414213562373095</speed>
  <fix>3d</fix>
</trkpt>
<trkpt lat="-35.362881" lon="149.165222">
  <ele>582.09</ele>
  <time>2026-08-27T18:27:50Z</time>
  <course>356.54</course>
  <speed>0.0</speed>
  <fix>3d</fix>
</trkpt>
<trkpt lat="-35.3628811" lon="149.1652218">
  <ele>582.27</ele>
  <time>2026-08-27T18:27:50Z</time>
  <course>91.24</course>
  <speed>0.01414213562373095</speed>
  <fix>3d</fix>
</trkpt>
<trkpt lat="-35.362881" lon="149.165222">
  <ele>582.09</ele>
  <time>2026-08-27T18:27:50Z</time>
  <course>356.15</course>
  <speed>0.0</speed>
  <fix>3d</fix>
</trkpt>
<trkpt lat="-35.3628811" lon="149.1652218">
  <ele>582.27</ele>
  <time>2026-08-27T18:27:50Z</time>
  <course>91.22</course>
  <speed>0.01414213562373095</speed>
  <fix>3d</fix>
</trkpt>
<trkpt lat="-35.362881" lon="149.165222">
  <ele>582.09</ele>
  <time>2026-08-27T18:27:50Z</time>
  <course>356.66</course>
  <speed>0.0</speed>
  <fix>3d</fix>
</trkpt>
<trkpt lat="-35.3628811" lon="149.1652218">
  <ele>582.27</ele>
  <time>2026-08-27T18:27:50Z</time>
  <course>91.19</course>
  <speed>0.01414213562373095</speed>
  <fix>3d</fix>
</trkpt>
<trkpt lat="-35.362881" lon="149.165222">
  <ele>582.09</ele>
  <time>2026-08-27T18:27:50Z</time>
  <course>356.68</course>
  <speed>0.0</speed>
  <fix>3d</fix>
</trkpt>
<trkpt lat="-35.3628811" lon="149.1652218">
  <ele>582.28</ele>
  <time>2026-08-27T18:27:50Z</time>
  <course>91.17</course>
  <speed>0.01414213562373095</speed>
  <fix>3d</fix>
</trkpt>
<trkpt lat="-35.362881" lon="149.165222">
  <ele>582.09</ele>
  <time>2026-08-27T18:27:50Z</time>
  <course>356.28</course>
  <speed>0.0</speed>
  <fix>3d</fix>
</trkpt>
<trkpt lat="-35.3628811" lon="149.1652218">
  <ele>582.28</ele>
  <time>2026-08-27T18:27:50Z</time>
  <course>91.14</course>
  <speed>0.01414213562373095</speed>
  <fix>3d</fix>
</trkpt>
<trkpt lat="-35.362881" lon="149.165222">
  <ele>582.09</ele>
  <time>2026-08-27T18:27:50Z</time>
  <course>356.2</course>
  <speed>0.0</speed>
  <fix>3d</fix>
</trkpt>
<trkpt lat="-35.3628811" lon="149.1652218">
  <ele>582.28</ele>
  <time>2026-08-27T18:27:50Z</time>
  <course>91.12</course>
  <speed>0.01414213562373095</speed>
  <fix>3d</fix>
</trkpt>
<trkpt lat="-35.362881" lon="149.165222">
  <ele>582.09</ele>
  <time>2026-08-27T18:27:50Z</time>
  <course>356.58</course>
  <speed>0.0</speed>
  <fix>3d</fix>
</trkpt>
<trkpt lat="-35.3628811" lon="149.1652218">
  <ele>582.27</ele>
  <time>2026-08-27T18:27:50Z</time>
  <course>91.09</course>
  <speed>0.01414213562373095</speed>
  <fix>3d</fix>
</trkpt>
<trkpt lat="-35.362881" lon="149.165222">
  <ele>582.09</ele>
  <time>2026-08-27T18:27:50Z</time>
  <course>350.28</course>
  <speed>0.0</speed>
  <fix>3d</fix>
</trkpt>
<trkpt lat="-35.3628811" lon="149.1652218">
  <ele>582.27</ele>
  <time>2026-08-27T18:27:50Z</time>
  <course>91.08</course>
  <speed>0.01414213562373095</speed>
  <fix>3d</fix>
</trkpt>
<trkpt lat="-35.362881" lon="149.165222">
  <ele>582.09</ele>
  <time>2026-08-27T18:27:50Z</time>
  <course>330.8</course>
  <speed>0.0</speed>
  <fix>3d</fix>
</trkpt>
<trkpt lat="-35.3628811" lon="149.1652218">
  <ele>582.27</ele>
  <time>2026-08-27T18:27:50Z</time>
  <course>91.06</course>
  <speed>0.01414213562373095</speed>
  <fix>3d</fix>
</trkpt>
<trkpt lat="-35.362881" lon="149.165222">
  <ele>582.09</ele>
  <time>2026-08-27T18:27:50Z</time>
  <course>354.75</course>
  <speed>0.0</speed>
  <fix>3d</fix>
</trkpt>
<trkpt lat="-35.3628811" lon="149.1652218">
  <ele>582.26</ele>
  <time>2026-08-27T18:27:50Z</time>
  <course>91.04</course>
  <speed>0.01414213562373095</speed>
  <fix>3d</fix>
</trkpt>
<trkpt lat="-35.362881" lon="149.165222">
  <ele>582.09</ele>
  <time>2026-08-27T18:27:50Z</time>
  <course>358.8</course>
  <speed>0.0</speed>
  <fix>3d</fix>
</trkpt>
<trkpt lat="-35.3628811" lon="149.1652218">
  <ele>582.26</ele>
  <time>2026-08-27T18:27:50Z</time>
  <course>91.01</course>
  <speed>0.01414213562373095</speed>
  <fix>3d</fix>
</trkpt>
<trkpt lat="-35.362881" lon="149.165222">
  <ele>582.09</ele>
  <time>2026-08-27T18:27:50Z</time>
  <course>355.99</course>
  <speed>0.0</speed>
  <fix>3d</fix>
</trkpt>
<trkpt lat="-35.3628811" lon="149.1652218">
  <ele>582.26</ele>
  <time>2026-08-27T18:27:50Z</time>
  <course>90.96</course>
  <speed>0.01414213562373095</speed>
  <fix>3d</fix>
</trkpt>
<trkpt lat="-35.362881" lon="149.165222">
  <ele>582.09</ele>
  <time>2026-08-27T18:27:50Z</time>
  <course>355.53</course>
  <speed>0.0</speed>
  <fix>3d</fix>
</trkpt>
<trkpt lat="-35.3628811" lon="149.1652218">
  <ele>582.28</ele>
  <time>2026-08-27T18:27:50Z</time>
  <course>90.89</course>
  <speed>0.01414213562373095</speed>
  <fix>3d</fix>
</trkpt>
<trkpt lat="-35.362881" lon="149.165222">
  <ele>582.1</ele>
  <time>2026-08-27T18:27:50Z</time>
  <course>0.22</course>
  <speed>0.0</speed>
  <fix>3d</fix>
</trkpt>
<trkpt lat="-35.3628811" lon="149.1652218">
  <ele>582.31</ele>
  <time>2026-08-27T18:27:50Z</time>
  <course>90.82</course>
  <speed>0.01414213562373095</speed>
  <fix>3d</fix>
</trkpt>
<trkpt lat="-35.362881" lon="149.165222">
  <ele>582.12</ele>
  <time>2026-08-27T18:27:50Z</time>
  <course>1.03</course>
  <speed>0.0</speed>
  <fix>3d</fix>
</trkpt>
<trkpt lat="-35.3628811" lon="149.1652218">
  <ele>582.35</ele>
  <time>2026-08-27T18:27:50Z</time>
  <course>90.73</course>
  <speed>0.01414213562373095</speed>
  <fix>3d</fix>
</trkpt>
<trkpt lat="-35.362881" lon="149.165222">
  <ele>582.16</ele>
  <time>2026-08-27T18:27:50Z</time>
  <course>357.79</course>
  <speed>0.0</speed>
  <fix>3d</fix>
</trkpt>
<trkpt lat="-35.3628811" lon="149.1652218">
  <ele>582.44</ele>
  <time>2026-08-27T18:27:50Z</time>
  <course>86.66</course>
  <speed>0.03605551275463989</speed>
  <fix>3d</fix>
</trkpt>
<trkpt lat="-35.362881" lon="149.165222">
  <ele>582.21</ele>
  <time>2026-08-27T18:27:50Z</time>
  <course>358.55</course>
  <speed>0.01</speed>
  <fix>3d</fix>
</trkpt>
<trkpt lat="-35.3628809" lon="149.1652218">
  <ele>582.73</ele>
  <time>2026-08-27T18:27:50Z</time>
  <course>83.45</course>
  <speed>0.2009975124224178</speed>
  <fix>3d</fix>
</trkpt>
<trkpt lat="-35.3628809" lon="149.165222">
  <ele>582.37</ele>
  <time>2026-08-27T18:27:50Z</time>
  <course>355.21</course>
  <speed>0.11</speed>
  <fix>3d</fix>
</trkpt>
<trkpt lat="-35.3628804" lon="149.1652218">
  <ele>582.99</ele>
  <time>2026-08-27T18:27:50Z</time>
  <course>82.86</course>
  <speed>0.27166155414412246</speed>
  <fix>3d</fix>
</trkpt>
<trkpt lat="-35.3628805" lon="149.165222">
  <ele>582.64</ele>
  <time>2026-08-27T18:27:50Z</time>
  <course>354.57</course>
  <speed>0.24</speed>
  <fix>3d</fix>
</trkpt>
<trkpt lat="-35.3628799" lon="149.1652218">
  <ele>583.24</ele>
  <time>2026-08-27T18:27:50Z</time>
  <course>81.39</course>
  <speed>0.3026549190084311</speed>
  <fix>3d</fix>
</trkpt>
<trkpt lat="-35.36288" lon="149.1652219">
  <ele>582.9</ele>
  <time>2026-08-27T18:27:50Z</time>
  <course>353.47</course>
  <speed>0.3</speed>
  <fix>3d</fix>
</trkpt>
<trkpt lat="-35.3628793" lon="149.1652217">
  <ele>583.53</ele>
  <time>2026-08-27T18:27:50Z</time>
  <course>80.27</course>
  <speed>0.304138126514911</speed>
  <fix>3d</fix>
</trkpt>
<trkpt lat="-35.3628795" lon="149.1652218">
  <ele>583.17</ele>
  <time>2026-08-27T18:27:50Z</time>
  <course>351.99</course>
  <speed>0.32</speed>
  <fix>3d</fix>
</trkpt>
<trkpt lat="-35.3628788" lon="149.1652216">
  <ele>583.88</ele>
  <time>2026-08-27T18:27:50Z</time>
  <course>79.48</course>
  <speed>0.28442925306655786</speed>
  <fix>3d</fix>
</trkpt>
<trkpt lat="-35.3628789" lon="149.1652217">
  <ele>583.47</ele>
  <time>2026-08-27T18:27:50Z</time>
  <course>351.07</course>
  <speed>0.32</speed>
  <fix>3d</fix>
</trkpt>
<trkpt lat="-35.3628783" lon="149.1652215">
  <ele>584.25</ele>
  <time>2026-08-27T18:27:50Z</time>
  <course>78.79</course>
  <speed>0.24515301344262524</speed>
  <fix>3d</fix>
</trkpt>
<trkpt lat="-35.3628783" lon="149.1652216">
  <ele>583.82</ele>
  <time>2026-08-27T18:27:50Z</time>
  <course>350.89</course>
  <speed>0.29</speed>
  <fix>3d</fix>
</trkpt>
<trkpt lat="-35.3628778" lon="149.1652214">
  <ele>584.67</ele>
  <time>2026-08-27T18:27:50Z</time>
  <course>78.15</course>
  <speed>0.215870331449229</speed>
  <fix>3d</fix>
</trkpt>
<trkpt lat="-35.3628778" lon="149.1652215">
  <ele>584.2</ele>
  <time>2026-08-27T18:27:50Z</time>
  <course>351.26</course>
  <speed>0.26</speed>
  <fix>3d</fix>
</trkpt>
<trkpt lat="-35.3628774" lon="149.1652213">
  <ele>585.13</ele>
  <time>2026-08-27T18:27:51Z</time>
  <course>77.48</course>
  <speed>0.1649242250247064</speed>
  <fix>3d</fix>
</trkpt>
<trkpt lat="-35.3628774" lon="149.1652214">
  <ele>584.62</ele>
  <time>2026-08-27T18:27:51Z</time>
  <course>351.93</course>
  <speed>0.22</speed>
  <fix>3d</fix>
</trkpt>
<trkpt lat="-35.3628771" lon="149.1652212">
  <ele>585.63</ele>
  <time>2026-08-27T18:27:51Z</time>
  <course>77.06</course>
  <speed>0.1264911064067352</speed>
  <fix>3d</fix>
</trkpt>
<trkpt lat="-35.3628771" lon="149.1652214">
  <ele>585.08</ele>
  <time>2026-08-27T18:27:51Z</time>
  <course>352.74</course>
  <speed>0.17</speed>
  <fix>3d</fix>
</trkpt>
<trkpt lat="-35.3628769" lon="149.1652212">
  <ele>586.14</ele>
  <time>2026-08-27T18:27:51Z</time>
  <course>77.25</course>
  <speed>0.08062257748298549</speed>
  <fix>3d</fix>
</trkpt>
<trkpt lat="-35.3628767" lon="149.1652213">
  <ele>585.57</ele>
  <time>2026-08-27T18:27:51Z</time>
  <course>354.03</course>
  <speed>0.13</speed>
  <fix>3d</fix>
</trkpt>
<trkpt lat="-35.3628767" lon="149.1652212">
  <ele>586.66</ele>
  <time>2026-08-27T18:27:51Z</time>
  <course>77.65</course>
  <speed>0.03605551275463989</speed>
  <fix>3d</fix>
</trkpt>
<trkpt lat="-35.3628766" lon="149.1652212">
  <ele>586.08</ele>
  <time>2026-08-27T18:27:51Z</time>
  <course>357.52</course>
  <speed>0.08</speed>
  <fix>3d</fix>
</trkpt>
<trkpt lat="-35.3628767" lon="149.1652212">
  <ele>587.19</ele>
  <time>2026-08-27T18:27:51Z</time>
  <course>78.11</course>
  <speed>0.0</speed>
  <fix>3d</fix>
</trkpt>
<trkpt lat="-35.3628765" lon="149.1652213">
  <ele>586.61</ele>
  <time>2026-08-27T18:27:51Z</time>
  <course>9.53</course>
  <speed>0.04</speed>
  <fix>3d</fix>
</trkpt>
<trkpt lat="-35.3628767" lon="149.1652212">
  <ele>587.71</ele>
  <time>2026-08-27T18:27:51Z</time>
  <course>78.68</course>
  <speed>0.05</speed>
  <fix>3d</fix>
</trkpt>
<trkpt lat="-35.3628765" lon="149.1652214">
  <ele>587.12</ele>
  <time>2026-08-27T18:27:51Z</time>
  <course>112.96</course>
  <speed>0.01</speed>
  <fix>3d</fix>
</trkpt>
<trkpt lat="-35.3628767" lon="149.1652212">
  <ele>588.23</ele>
  <time>2026-08-27T18:27:51Z</time>
  <course>79.29</course>
  <speed>0.09055385138137417</speed>
  <fix>3d</fix>
</trkpt>
<trkpt lat="-35.3628765" lon="149.1652214">
  <ele>587.63</ele>
  <time>2026-08-27T18:27:51Z</time>
  <course>162.01</course>
  <speed>0.05</speed>
  <fix>3d</fix>
</trkpt>
<trkpt lat="-35.3628768" lon="149.1652213">
  <ele>588.74</ele>
  <time>2026-08-27T18:27:51Z</time>
  <course>79.87</course>
  <speed>0.12041594578792296</speed>
  <fix>3d</fix>
</trkpt>
<trkpt lat="-35.3628765" lon="149.1652214">
  <ele>588.14</ele>
  <time>2026-08-27T18:27:51Z</time>
  <course>171.18</course>
  <speed>0.09</speed>
  <fix>3d</fix>
</trkpt>
<trkpt lat="-35.362877" lon="149.1652214">
  <ele>589.25</ele>
  <time>2026-08-27T18:27:51Z</time>
  <course>80.41</course>
  <speed>0.15033296378372907</speed>
  <fix>3d</fix>
</trkpt>
<trkpt lat="-35.3628767" lon="149.1652214">
  <ele>588.65</ele>
  <time>2026-08-27T18:27:51Z</time>
  <course>175.42</course>
  <speed>0.13</speed>
  <fix>3d</fix>
</trkpt>
<trkpt lat="-35.3628773" lon="149.1652214">
  <ele>589.75</ele>
  <time>2026-08-27T18:27:51Z</time>
  <course>80.95</course>
  <speed>0.18027756377319945</speed>
  <fix>3d</fix>
</trkpt>
<trkpt lat="-35.362877" lon="149.1652214">
  <ele>589.14</ele>
  <time>2026-08-27T18:27:51Z</time>
  <course>177.67</course>
  <speed>0.16</speed>
  <fix>3d</fix>
</trkpt>
<trkpt lat="-35.3628776" lon="149.1652214">
  <ele>590.25</ele>
  <time>2026-08-27T18:27:51Z</time>
  <course>81.44</course>
  <speed>0.2002498439450079</speed>
  <fix>3d</fix>
</trkpt>
<trkpt lat="-35.3628773" lon="149.1652214">
  <ele>589.64</ele>
  <time>2026-08-27T18:27:51Z</time>
  <course>178.82</course>
  <speed>0.19</speed>
  <fix>3d</fix>
</trkpt>
<trkpt lat="-35.362878" lon="149.1652214">
  <ele>590.74</ele>
  <time>2026-08-27T18:27:51Z</time>
  <course>81.9</course>
  <speed>0.22022715545545238</speed>
  <fix>3d</fix>
</trkpt>
<trkpt lat="-35.3628777" lon="149.1652214">
  <ele>590.13</ele>
  <time>2026-08-27T18:27:51Z</time>
  <course>179.45</course>
  <speed>0.21</speed>
  <fix>3d</fix>
</trkpt>
<trkpt lat="-35.3628784" lon="149.1652215">
  <ele>591.23</ele>
  <time>2026-08-27T18:27:51Z</time>
  <course>82.31</course>
  <speed>0.22022715545545238</speed>
  <fix>3d</fix>
</trkpt>
<trkpt lat="-35.3628781" lon="149.1652214">
  <ele>590.62</ele>
  <time>2026-08-27T18:27:51Z</time>
  <course>179.81</course>
  <speed>0.22</speed>
  <fix>3d</fix>
</trkpt>
<trkpt lat="-35.3628788" lon="149.1652215">
  <ele>591.73</ele>
  <time>2026-08-27T18:27:51Z</time>
  <course>82.67</course>
  <speed>0.22090722034374521</speed>
  <fix>3d</fix>
</trkpt>
<trkpt lat="-35.3628785" lon="149.1652214">
  <ele>591.12</ele>
  <time>2026-08-27T18:27:51Z</time>
  <course>179.84</course>
  <speed>0.23</speed>
  <fix>3d</fix>
</trkpt>
<trkpt lat="-35.3628792" lon="149.1652215">
  <ele>592.23</ele>
  <time>2026-08-27T18:27:51Z</time>
  <course>83.04</course>
  <speed>0.22090722034374521</speed>
  <fix>3d</fix>
</trkpt>
<trkpt lat="-35.362879" lon="149.1652214">
  <ele>591.61</ele>
  <time>2026-08-27T18:27:51Z</time>
  <course>179.67</course>
  <speed>0.23</speed>
  <fix>3d</fix>
</trkpt>
<trkpt lat="-35.3628796" lon="149.1652215">
  <ele>592.73</ele>
  <time>2026-08-27T18:27:51Z</time>
  <course>83.41</course>
  <speed>0.2109502310972899</speed>
  <fix>3d</fix>
</trkpt>
<trkpt lat="-35.3628794" lon="149.1652214">
  <ele>592.11</ele>
  <time>2026-08-27T18:27:51Z</time>
  <course>179.53</course>
  <speed>0.22</speed>
  <fix>3d</fix>
</trkpt>
<trkpt lat="-35.36288" lon="149.1652215">
  <ele>593.23</ele>
  <time>2026-08-27T18:27:51Z</time>
  <course>83.76</course>
  <speed>0.191049731745428</speed>
  <fix>3d</fix>
</trkpt>
<trkpt lat="-35.3628798" lon="149.1652214">
  <ele>592.6</ele>
  <time>2026-08-27T18:27:51Z</time>
  <course>179.36</course>
  <speed>0.21</speed>
  <fix>3d</fix>
</trkpt>
<trkpt lat="-35.3628803" lon="149.1652215">
  <ele>593.73</ele>
  <time>2026-08-27T18:27:51Z</time>
  <course>84.12</course>
  <speed>0.1711724276862369</speed>
  <fix>3d</fix>
</trkpt>
<trkpt lat="-35.3628801" lon="149.1652214">
  <ele>593.1</ele>
  <time>2026-08-27T18:27:51Z</time>
  <course>179.03</course>
  <speed>0.19</speed>
  <fix>3d</fix>
</trkpt>
<trkpt lat="-35.3628806" lon="149.1652215">
  <ele>594.23</ele>
  <time>2026-08-27T18:27:51Z</time>
  <course>84.44</course>
  <speed>0.15297058540778355</speed>
  <fix>3d</fix>
</trkpt>
<trkpt lat="-35.3628804" lon="149.1652214">
  <ele>593.59</ele>
  <time>2026-08-27T18:27:51Z</time>
  <course>178.5</course>
  <speed>0.17</speed>
  <fix>3d</fix>
</trkpt>
<trkpt lat="-35.3628809" lon="149.1652215">
  <ele>594.72</ele>
  <time>2026-08-27T18:27:51Z</time>
  <course>84.74</course>
  <speed>0.13341664064126335</speed>
  <fix>3d</fix>
</trkpt>
<trkpt lat="-35.3628807" lon="149.1652214">
  <ele>594.09</ele>
  <time>2026-08-27T18:27:51Z</time>
  <course>177.58</course>
  <speed>0.15</speed>
  <fix>3d</fix>
</trkpt>
<trkpt lat="-35.3628811" lon="149.1652215">
  <ele>595.22</ele>
  <time>2026-08-27T18:27:51Z</time>
  <course>85.03</course>
  <speed>0.11401754250991379</speed>
  <fix>3d</fix>
</trkpt>
<trkpt lat="-35.362881" lon="149.1652215">
  <ele>594.59</ele>
  <time>2026-08-27T18:27:51Z</time>
  <course>176.3</course>
  <speed>0.12</speed>
  <fix>3d</fix>
</trkpt>
<trkpt lat="-35.3628813" lon="149.1652215">
  <ele>595.71</ele>
  <time>2026-08-27T18:27:51Z</time>
  <course>85.31</course>
  <speed>0.0854400374531753</speed>
  <fix>3d</fix>
</trkpt>
<trkpt lat="-35.3628811" lon="149.1652215">
  <ele>595.08</ele>
  <time>2026-08-27T18:27:51Z</time>
  <course>174.56</course>
  <speed>0.1</speed>
  <fix>3d</fix>
</trkpt>
<trkpt lat="-35.3628814" lon="149.1652216">
  <ele>596.21</ele>
  <time>2026-08-27T18:27:51Z</time>
  <course>85.6</course>
  <speed>0.0670820393249937</speed>
  <fix>3d</fix>
</trkpt>
<trkpt lat="-35.3628813" lon="149.1652215">
  <ele>595.58</ele>
  <time>2026-08-27T18:27:51Z</time>
  <course>171.52</course>
  <speed>0.07</speed>
  <fix>3d</fix>
</trkpt>
<trkpt lat="-35.3628815" lon="149.1652216">
  <ele>596.71</ele>
  <time>2026-08-27T18:27:51Z</time>
  <course>85.86</course>
  <speed>0.05</speed>
  <fix>3d</fix>
</trkpt>
<trkpt lat="-35.3628814" lon="149.1652215">
  <ele>596.08</ele>
  <time>2026-08-27T18:27:51Z</time>
  <course>165.99</course>
  <speed>0.05</speed>
  <fix>3d</fix>
</trkpt>
<trkpt lat="-35.3628815" lon="149.1652216">
  <ele>597.21</ele>
  <time>2026-08-27T18:27:51Z</time>
  <course>86.11</course>
  <speed>0.03605551275463989</speed>
  <fix>3d</fix>
</trkpt>
<trkpt lat="-35.3628815" lon="149.1652215">
  <ele>596.58</ele>
  <time>2026-08-27T18:27:51Z</time>
  <course>155.02</course>
  <speed>0.03</speed>
  <fix>3d</fix>
</trkpt>
<trkpt lat="-35.3628816" lon="149.1652217">
  <ele>597.71</ele>
  <time>2026-08-27T18:27:51Z</time>
  <course>86.36</course>
  <speed>0.0316227766016838</speed>
  <fix>3d</fix>
</trkpt>
<trkpt lat="-35.3628816" lon="149.1652216">
  <ele>597.08</ele>
  <time>2026-08-27T18:27:51Z</time>
  <course>129.33</course>
  <speed>0.02</speed>
  <fix>3d</fix>
</trkpt>
<trkpt lat="-35.3628816" lon="149.1652217">
  <ele>598.21</ele>
  <time>2026-08-27T18:27:51Z</time>
  <course>86.61</course>
  <speed>0.03</speed>
  <fix>3d</fix>
</trkpt>
<trkpt lat="-35.3628816" lon="149.1652216">
  <ele>597.58</ele>
  <time>2026-08-27T18:27:51Z</time>
  <course>81.61</course>
  <speed>0.01</speed>
  <fix>3d</fix>
</trkpt>
<trkpt lat="-35.3628815" lon="149.1652217">
  <ele>598.72</ele>
  <time>2026-08-27T18:27:51Z</time>
  <course>86.86</course>
  <speed>0.0316227766016838</speed>
  <fix>3d</fix>
</trkpt>
<trkpt lat="-35.3628816" lon="149.1652217">
  <ele>598.08</ele>
  <time>2026-08-27T18:27:51Z</time>
  <course>48.33</course>
  <speed>0.02</speed>
  <fix>3d</fix>
</trkpt>
<trkpt lat="-35.3628815" lon="149.1652218">
  <ele>599.22</ele>
  <time>2026-08-27T18:27:51Z</time>
  <course>87.09</course>
  <speed>0.0316227766016838</speed>
  <fix>3d</fix>
</trkpt>
<trkpt lat="-35.3628816" lon="149.1652217">
  <ele>598.58</ele>
  <time>2026-08-27T18:27:51Z</time>
  <course>34.57</course>
  <speed>0.03</speed>
  <fix>3d</fix>
</trkpt>
<trkpt lat="-35.3628815" lon="149.1652218">
  <ele>599.72</ele>
  <time>2026-08-27T18:27:51Z</time>
  <course>87.38</course>
  <speed>0.03605551275463989</speed>
  <fix>3d</fix>
</trkpt>
<trkpt lat="-35.3628816" lon="149.1652217">
  <ele>599.08</ele>
  <time>2026-08-27T18:27:51Z</time>
  <course>28.5</course>
  <speed>0.04</speed>
  <fix>3d</fix>
</trkpt>
<trkpt lat="-35.3628815" lon="149.1652218">
  <ele>600.22</ele>
  <time>2026-08-27T18:27:51Z</time>
  <course>87.62</course>
  <speed>0.03605551275463989</speed>
  <fix>3d</fix>
</trkpt>
<trkpt lat="-35.3628815" lon="149.1652217">
  <ele>599.58</ele>
  <time>2026-08-27T18:27:51Z</time>
  <course>25.31</course>
  <speed>0.04</speed>
  <fix>3d</fix>
</trkpt>
<trkpt lat="-35.3628814" lon="149.1652219">
  <ele>600.72</ele>
  <time>2026-08-27T18:27:51Z</time>
  <course>87.84</course>
  <speed>0.03605551275463989</speed>
  <fix>3d</fix>
</trkpt>
<trkpt lat="-35.3628814" lon="149.1652218">
  <ele>600.08</ele>
  <time>2026-08-27T18:27:51Z</time>
  <course>23.31</course>
  <speed>0.05</speed>
  <fix>3d</fix>
</trkpt>
<trkpt lat="-35.3628813" lon="149.1652219">
  <ele>601.22</ele>
  <time>2026-08-27T18:27:51Z</time>
  <course>88.05</course>
  <speed>0.03605551275463989</speed>
  <fix>3d</fix>
</trkpt>
<trkpt lat="-35.3628813" lon="149.1652219">
  <ele>600.57</ele>
  <time>2026-08-27T18:27:51Z</time>
  <course>22.37</course>
  <speed>0.05</speed>
  <fix>3d</fix>
</trkpt>
<trkpt lat="-35.3628813" lon="149.1652219">
  <ele>601.72</ele>
  <time>2026-08-27T18:27:51Z</time>
  <course>88.24</course>
  <speed>0.0282842712474619</speed>
  <fix>3d</fix>
</trkpt>
<trkpt lat="-35.3628812" lon="149.1652219">
  <ele>601.07</ele>
  <time>2026-08-27T18:27:51Z</time>
  <course>22.24</course>
  <speed>0.05</speed>
  <fix>3d</fix>
</trkpt>
<trkpt lat="-35.3628812" lon="149.165222">
  <ele>602.21</ele>
  <time>2026-08-27T18:27:51Z</time>
  <course>88.39</course>
  <speed>0.0282842712474619</speed>
  <fix>3d</fix>
</trkpt>
<trkpt lat="-35.3628811" lon="149.165222">
  <ele>601.57</ele>
  <time>2026-08-27T18:27:51Z</time>
  <course>22.33</course>
  <speed>0.05</speed>
  <fix>3d</fix>
</trkpt>
<trkpt lat="-35.3628811" lon="149.165222">
  <ele>602.72</ele>
  <time>2026-08-27T18:27:51Z</time>
  <course>88.57</course>
  <speed>0.022360679774997897</speed>
  <fix>3d</fix>
</trkpt>
<trkpt lat="-35.362881" lon="149.165222">
  <ele>602.07</ele>
  <time>2026-08-27T18:27:51Z</time>
  <course>22.81</course>
  <speed>0.05</speed>
  <fix>3d</fix>
</trkpt>
<trkpt lat="-35.3628811" lon="149.165222">
  <ele>603.22</ele>
  <time>2026-08-27T18:27:51Z</time>
  <course>88.74</course>
  <speed>0.01414213562373095</speed>
  <fix>3d</fix>
</trkpt>
<trkpt lat="-35.362881" lon="149.1652221">
  <ele>602.57</ele>
  <time>2026-08-27T18:27:51Z</time>
  <course>23.42</course>
  <speed>0.04</speed>
  <fix>3d</fix>
</trkpt>
<trkpt lat="-35.362881" lon="149.1652221">
  <ele>603.71</ele>
  <time>2026-08-27T18:27:51Z</time>
  <course>88.9</course>
  <speed>0.01414213562373095</speed>
  <fix>3d</fix>
</trkpt>
<trkpt lat="-35.3628809" lon="149.1652221">
  <ele>603.07</ele>
  <time>2026-08-27T18:27:51Z</time>
  <course>23.8</course>
  <speed>0.04</speed>
  <fix>3d</fix>
</trkpt>
<trkpt lat="-35.3628809" lon="149.1652221">
  <ele>604.22</ele>
  <time>2026-08-27T18:27:51Z</time>
  <course>89.04</course>
  <speed>0.0</speed>
  <fix>3d</fix>
</trkpt>
<trkpt lat="-35.3628808" lon="149.1652221">
  <ele>603.57</ele>
  <time>2026-08-27T18:27:51Z</time>
  <course>24.67</course>
  <speed>0.03</speed>
  <fix>3d</fix>
</trkpt>
<trkpt lat="-35.3628809" lon="149.1652221">
  <ele>604.72</ele>
  <time>2026-08-27T18:27:51Z</time>
  <course>89.18</course>
  <speed>0.0</speed>
  <fix>3d</fix>
</trkpt>
<trkpt lat="-35.3628808" lon="149.1652222">
  <ele>604.07</ele>
  <time>2026-08-27T18:27:51Z</time>
  <course>26.32</course>
  <speed>0.03</speed>
  <fix>3d</fix>
</trkpt>
<trkpt lat="-35.3628809" lon="149.1652221">
  <ele>605.22</ele>
  <time>2026-08-27T18:27:51Z</time>
  <course>89.33</course>
  <speed>0.0</speed>
  <fix>3d</fix>
</trkpt>
<trkpt lat="-35.3628807" lon="149.1652222">
  <ele>604.56</ele>
  <time>2026-08-27T18:27:51Z</time>
  <course>27.82</course>
  <speed>0.02</speed>
  <fix>3d</fix>
</trkpt>
<trkpt lat="-35.3628808" lon="149.1652221">
  <ele>605.72</ele>
  <time>2026-08-27T18:27:51Z</time>
  <course>89.46</course>
  <speed>0.01</speed>
  <fix>3d</fix>
</trkpt>
<trkpt lat="-35.3628807" lon="149.1652222">
  <ele>605.06</ele>
  <time>2026-08-27T18:27:51Z</time>
  <course>28.84</course>
  <speed>0.02</speed>
  <fix>3d</fix>
</trkpt>
<trkpt lat="-35.3628808" lon="149.1652222">
  <ele>606.22</ele>
  <time>2026-08-27T18:27:51Z</time>
  <course>89.56</course>
  <speed>0.01</speed>
  <fix>3d</fix>
</trkpt>
<trkpt lat="-35.3628807" lon="149.1652222">
  <ele>605.56</ele>
  <time>2026-08-27T18:27:51Z</time>
  <course>31.0</course>
  <speed>0.01</speed>
  <fix>3d</fix>
</trkpt>
<trkpt lat="-35.3628808" lon="149.1652222">
  <ele>606.72</ele>
  <time>2026-08-27T18:27:51Z</time>
  <course>89.68</course>
  <speed>0.02</speed>
  <fix>3d</fix>
</trkpt>
<trkpt lat="-35.3628806" lon="149.1652222">
  <ele>606.06</ele>
  <time>2026-08-27T18:27:51Z</time>
  <course>37.45</course>
  <speed>0.01</speed>
  <fix>3d</fix>
</trkpt>
<trkpt lat="-35.3628808" lon="149.1652222">
  <ele>607.21</ele>
  <time>2026-08-27T18:27:51Z</time>
  <course>89.79</course>
  <speed>0.022360679774997897</speed>
  <fix>3d</fix>
</trkpt>
<trkpt lat="-35.3628805" lon="149.1652222">
  <ele>606.56</ele>
  <time>2026-08-27T18:27:51Z</time>
  <course>57.75</course>
  <speed>0.0</speed>
  <fix>3d</fix>
</trkpt>
<trkpt lat="-35.3628808" lon="149.1652222">
  <ele>607.71</ele>
  <time>2026-08-27T18:27:51Z</time>
  <course>89.9</course>
  <speed>0.0316227766016838</speed>
  <fix>3d</fix>
</trkpt>
<trkpt lat="-35.3628805" lon="149.1652222">
  <ele>607.06</ele>
  <time>2026-08-27T18:27:51Z</time>
  <course>112.63</course>
  <speed>0.0</speed>
  <fix>3d</fix>
</trkpt>
<trkpt lat="-35.3628808" lon="149.1652222">
  <ele>608.21</ele>
  <time>2026-08-27T18:27:51Z</time>
  <course>89.98</course>
  <speed>0.0316227766016838</speed>
  <fix>3d</fix>
</trkpt>
<trkpt lat="-35.3628805" lon="149.1652222">
  <ele>607.55</ele>
  <time>2026-08-27T18:27:51Z</time>
  <course>157.25</course>
  <speed>0.0</speed>
  <fix>3d</fix>
</trkpt>
<trkpt lat="-35.3628808" lon="149.1652222">
  <ele>608.71</ele>
  <time>2026-08-27T18:27:51Z</time>
  <course>90.09</course>
  <speed>0.0316227766016838</speed>
  <fix>3d</fix>
</trkpt>
<trkpt lat="-35.3628805" lon="149.1652222">
  <ele>608.05</ele>
  <time>2026-08-27T18:27:51Z</time>
  <course>171.25</course>
  <speed>0.0</speed>
  <fix>3d</fix>
</trkpt>
<trkpt lat="-35.3628808" lon="149.1652222">
  <ele>609.21</ele>
  <time>2026-08-27T18:27:51Z</time>
  <course>90.15</course>
  <speed>0.0316227766016838</speed>
  <fix>3d</fix>
</trkpt>
<trkpt lat="-35.3628805" lon="149.1652222">
  <ele>608.55</ele>
  <time>2026-08-27T18:27:51Z</time>
  <course>175.85</course>
  <speed>0.01</speed>
  <fix>3d</fix>
</trkpt>
<trkpt lat="-35.3628808" lon="149.1652222">
  <ele>609.72</ele>
  <time>2026-08-27T18:27:51Z</time>
  <course>90.25</course>
  <speed>0.0316227766016838</speed>
  <fix>3d</fix>
</trkpt>
<trkpt lat="-35.3628805" lon="149.1652222">
  <ele>609.05</ele>
  <time>2026-08-27T18:27:51Z</time>
  <course>177.62</course>
  <speed>0.01</speed>
  <fix>3d</fix>
</trkpt>
<trkpt lat="-35.3628808" lon="149.1652222">
  <ele>610.22</ele>
  <time>2026-08-27T18:27:51Z</time>
  <course>90.34</course>
  <speed>0.0316227766016838</speed>
  <fix>3d</fix>
</trkpt>
<trkpt lat="-35.3628805" lon="149.1652222">
  <ele>609.55</ele>
  <time>2026-08-27T18:27:51Z</time>
  <course>178.42</course>
  <speed>0.01</speed>
  <fix>3d</fix>
</trkpt>
<trkpt lat="-35.3628808" lon="149.1652221">
  <ele>610.71</ele>
  <time>2026-08-27T18:27:51Z</time>
  <course>90.43</course>
  <speed>0.03605551275463989</speed>
  <fix>3d</fix>
</trkpt>
<trkpt lat="-35.3628806" lon="149.1652222">
  <ele>610.05</ele>
  <time>2026-08-27T18:27:51Z</time>
  <course>177.95</course>
  <speed>0.01</speed>
  <fix>3d</fix>
</trkpt>
<trkpt lat="-35.3628808" lon="149.1652221">
  <ele>611.21</ele>
  <time>2026-08-27T18:27:51Z</time>
  <course>90.52</course>
  <speed>0.0412310562561766</speed>
  <fix>3d</fix>
</trkpt>
<trkpt lat="-35.3628807" lon="149.1652222">
  <ele>610.55</ele>
  <time>2026-08-27T18:27:51Z</time>
  <course>176.83</course>
  <speed>0.01</speed>
  <fix>3d</fix>
</trkpt>
<trkpt lat="-35.3628808" lon="149.1652221">
  <ele>611.72</ele>
  <time>2026-08-27T18:27:51Z</time>
  <course>90.59</course>
  <speed>0.0412310562561766</speed>
  <fix>3d</fix>
</trkpt>
<trkpt lat="-35.3628807" lon="149.1652222">
  <ele>611.05</ele>
  <time>2026-08-27T18:27:51Z</time>
  <course>175.27</course>
  <speed>0.01</speed>
  <fix>3d</fix>
</trkpt>
<trkpt lat="-35.3628809" lon="149.1652221">
  <ele>612.22</ele>
  <time>2026-08-27T18:27:51Z</time>
  <course>90.66</course>
  <speed>0.0412310562561766</speed>
  <fix>3d</fix>
</trkpt>
<trkpt lat="-35.3628807" lon="149.1652222">
  <ele>611.55</ele>
  <time>2026-08-27T18:27:51Z</time>
  <course>173.4</course>
  <speed>0.01</speed>
  <fix>3d</fix>
</trkpt>
<trkpt lat="-35.3628809" lon="149.1652221">
  <ele>612.72</ele>
  <time>2026-08-27T18:27:51Z</time>
  <course>90.72</course>
  <speed>0.0316227766016838</speed>
  <fix>3d</fix>
</trkpt>
<trkpt lat="-35.3628808" lon="149.1652222">
  <ele>612.05</ele>
  <time>2026-08-27T18:27:51Z</time>
  <course>170.65</course>
  <speed>0.01</speed>
  <fix>3d</fix>
</trkpt>
<trkpt lat="-35.3628809" lon="149.1652221">
  <ele>613.21</ele>
  <time>2026-08-27T18:27:51Z</time>
  <course>90.79</course>
  <speed>0.0316227766016838</speed>
  <fix>3d</fix>
</trkpt>
<trkpt lat="-35.3628808" lon="149.1652222">
  <ele>612.55</ele>
  <time>2026-08-27T18:27:51Z</time>
  <course>168.24</course>
  <speed>0.01</speed>
  <fix>3d</fix>
</trkpt>
<trkpt lat="-35.362881" lon="149.1652221">
  <ele>613.71</ele>
  <time>2026-08-27T18:27:51Z</time>
  <course>90.87</course>
  <speed>0.0316227766016838</speed>
  <fix>3d</fix>
</trkpt>
<trkpt lat="-35.3628808" lon="149.1652223">
  <ele>613.05</ele>
  <time>2026-08-27T18:27:51Z</time>
  <course>166.71</course>
  <speed>0.01</speed>
  <fix>3d</fix>
</trkpt>
<trkpt lat="-35.362881" lon="149.1652221">
  <ele>614.21</ele>
  <time>2026-08-27T18:27:51Z</time>
  <course>90.93</course>
  <speed>0.0316227766016838</speed>
  <fix>3d</fix>
</trkpt>
<trkpt lat="-35.3628809" lon="149.1652224">
  <ele>613.55</ele>
  <time>2026-08-27T18:27:51Z</time>
  <course>164.47</course>
  <speed>0.01</speed>
  <fix>3d</fix>
</trkpt>
<trkpt lat="-35.362881" lon="149.1652221">
  <ele>614.71</ele>
  <time>2026-08-27T18:27:51Z</time>
  <course>90.98</course>
  <speed>0.0316227766016838</speed>
  <fix>3d</fix>
</trkpt>
<trkpt lat="-35.3628809" lon="149.1652224">
  <ele>614.05</ele>
  <time>2026-08-27T18:27:51Z</time>
  <course>161.09</course>
  <speed>0.01</speed>
  <fix>3d</fix>
</trkpt>
<trkpt lat="-35.362881" lon="149.1652222">
  <ele>615.21</ele>
  <time>2026-08-27T18:27:51Z</time>
  <course>91.04</course>
  <speed>0.022360679774997897</speed>
  <fix>3d</fix>
</trkpt>
<trkpt lat="-35.3628809" lon="149.1652224">
  <ele>614.55</ele>
  <time>2026-08-27T18:27:51Z</time>
  <course>157.41</course>
  <speed>0.0</speed>
  <fix>3d</fix>
</trkpt>
<trkpt lat="-35.362881" lon="149.1652222">
  <ele>615.7</ele>
  <time>2026-08-27T18:27:51Z</time>
  <course>91.13</course>
  <speed>0.022360679774997897</speed>
  <fix>3d</fix>
</trkpt>
<trkpt lat="-35.3628809" lon="149.1652224">
  <ele>615.05</ele>
  <time>2026-08-27T18:27:51Z</time>
  <course>156.63</course>
  <speed>0.0</speed>
  <fix>3d</fix>
</trkpt>
<trkpt lat="-35.362881" lon="149.1652222">
  <ele>616.2</ele>
  <time>2026-08-27T18:27:51Z</time>
  <course>91.17</course>
  <speed>0.0282842712474619</speed>
  <fix>3d</fix>
</trkpt>
<trkpt lat="-35.3628809" lon="149.1652224">
  <ele>615.55</ele>
  <time>2026-08-27T18:27:51Z</time>
  <course>169.54</course>
  <speed>0.0</speed>
  <fix>3d</fix>
</trkpt>
<trkpt lat="-35.362881" lon="149.1652222">
  <ele>616.7</ele>
  <time>2026-08-27T18:27:51Z</time>
  <course>91.21</course>
  <speed>0.0282842712474619</speed>
  <fix>3d</fix>
</trkpt>
<trkpt lat="-35.3628809" lon="149.1652224">
  <ele>616.05</ele>
  <time>2026-08-27T18:27:51Z</time>
  <course>221.38</course>
  <speed>0.0</speed>
  <fix>3d</fix>
</trkpt>
<trkpt lat="-35.362881" lon="149.1652222">
  <ele>617.21</ele>
  <time>2026-08-27T18:27:51Z</time>
  <course>91.3</course>
  <speed>0.022360679774997897</speed>
  <fix>3d</fix>
</trkpt>
<trkpt lat="-35.362881" lon="149.1652224">
  <ele>616.55</ele>
  <time>2026-08-27T18:27:51Z</time>
  <course>262.99</course>
  <speed>0.0</speed>
  <fix>3d</fix>
</trkpt>
<trkpt lat="-35.362881" lon="149.1652222">
  <ele>617.71</ele>
  <time>2026-08-27T18:27:51Z</time>
  <course>91.35</course>
  <speed>0.022360679774997897</speed>
  <fix>3d</fix>
</trkpt>
<trkpt lat="-35.362881" lon="149.1652224">
  <ele>617.05</ele>
  <time>2026-08-27T18:27:51Z</time>
  <course>270.74</course>
  <speed>0.0</speed>
  <fix>3d</fix>
</trkpt>
<trkpt lat="-35.362881" lon="149.1652222">
  <ele>618.22</ele>
  <time>2026-08-27T18:27:51Z</time>
  <course>91.41</course>
  <speed>0.022360679774997897</speed>
  <fix>3d</fix>
</trkpt>
<trkpt lat="-35.362881" lon="149.1652224">
  <ele>617.56</ele>
  <time>2026-08-27T18:27:51Z</time>
  <course>274.83</course>
  <speed>0.0</speed>
  <fix>3d</fix>
</trkpt>
<trkpt lat="-35.362881" lon="149.1652222">
  <ele>618.72</ele>
  <time>2026-08-27T18:27:51Z</time>
  <course>91.48</course>
  <speed>0.022360679774997897</speed>
  <fix>3d</fix>
</trkpt>
<trkpt lat="-35.362881" lon="149.1652224">
  <ele>618.06</ele>
  <time>2026-08-27T18:27:51Z</time>
  <course>281.46</course>
  <speed>0.0</speed>
  <fix>3d</fix>
</trkpt>
<trkpt lat="-35.362881" lon="149.1652222">
  <ele>619.23</ele>
  <time>2026-08-27T18:27:51Z</time>
  <course>91.54</course>
  <speed>0.022360679774997897</speed>
  <fix>3d</fix>
</trkpt>
<trkpt lat="-35.362881" lon="149.1652224">
  <ele>618.56</ele>
  <time>2026-08-27T18:27:51Z</time>
  <course>286.53</course>
  <speed>0.0</speed>
  <fix>3d</fix>
</trkpt>
<trkpt lat="-35.362881" lon="149.1652222">
  <ele>619.73</ele>
  <time>2026-08-27T18:27:51Z</time>
  <course>91.61</course>
  <speed>0.022360679774997897</speed>
  <fix>3d</fix>
</trkpt>
<trkpt lat="-35.362881" lon="149.1652224">
  <ele>619.06</ele>
  <time>2026-08-27T18:27:51Z</time>
  <course>290.74</course>
  <speed>0.01</speed>
  <fix>3d</fix>
</trkpt>
<trkpt lat="-35.362881" lon="149.1652221">
  <ele>620.24</ele>
  <time>2026-08-27T18:27:51Z</time>
  <course>91.66</course>
  <speed>0.022360679774997897</speed>
  <fix>3d</fix>
</trkpt>
<trkpt lat="-35.362881" lon="149.1652224">
  <ele>619.56</ele>
  <time>2026-08-27T18:27:51Z</time>
  <course>294.29</course>
  <speed>0.01</speed>
  <fix>3d</fix>
</trkpt>
<trkpt lat="-35.362881" lon="149.1652221">
  <ele>620.73</ele>
  <time>2026-08-27T18:27:51Z</time>
  <course>91.75</course>
  <speed>0.022360679774997897</speed>
  <fix>3d</fix>
</trkpt>
<trkpt lat="-35.362881" lon="149.1652223">
  <ele>620.06</ele>
  <time>2026-08-27T18:27:51Z</time>
  <course>297.35</course>
  <speed>0.01</speed>
  <fix>3d</fix>
</trkpt>
<trkpt lat="-35.362881" lon="149.1652221">
  <ele>621.23</ele>
  <time>2026-08-27T18:27:51Z</time>
  <course>91.79</course>
  <speed>0.022360679774997897</speed>
  <fix>3d</fix>
</trkpt>
<trkpt lat="-35.362881" lon="149.1652222">
  <ele>620.55</ele>
  <time>2026-08-27T18:27:51Z</time>
  <course>299.42</course>
  <speed>0.01</speed>
  <fix>3d</fix>
</trkpt>
<trkpt lat="-35.362881" lon="149.1652221">
  <ele>621.72</ele>
  <time>2026-08-27T18:27:51Z</time>
  <course>91.81</course>
  <speed>0.022360679774997897</speed>
  <fix>3d</fix>
</trkpt>
<trkpt lat="-35.362881" lon="149.1652222">
  <ele>621.05</ele>
  <time>2026-08-27T18:27:51Z</time>
  <course>301.02</course>
  <speed>0.01</speed>
  <fix>3d</fix>
</trkpt>
<trkpt lat="-35.362881" lon="149.1652221">
  <ele>622.22</ele>
  <time>2026-08-27T18:27:51Z</time>
  <course>91.84</course>
  <speed>0.022360679774997897</speed>
  <fix>3d</fix>
</trkpt>
<trkpt lat="-35.362881" lon="149.1652222">
  <ele>621.54</ele>
  <time>2026-08-27T18:27:51Z</time>
  <course>303.9</course>
  <speed>0.0</speed>
  <fix>3d</fix>
</trkpt>
<trkpt lat="-35.362881" lon="149.1652221">
  <ele>622.72</ele>
  <time>2026-08-27T18:27:51Z</time>
  <course>91.88</course>
  <speed>0.022360679774997897</speed>
  <fix>3d</fix>
</trkpt>
<trkpt lat="-35.362881" lon="149.1652222">
  <ele>622.04</ele>
  <time>2026-08-27T18:27:51Z</time>
  <course>308.56</course>
  <speed>0.0</speed>
  <fix>3d</fix>
</trkpt>
<trkpt lat="-35.362881" lon="149.1652221">
  <ele>623.22</ele>
  <time>2026-08-27T18:27:51Z</time>
  <course>91.93</course>
  <speed>0.022360679774997897</speed>
  <fix>3d</fix>
</trkpt>
<trkpt lat="-35.362881" lon="149.1652222">
  <ele>622.54</ele>
  <time>2026-08-27T18:27:51Z</time>
  <course>315.2</course>
  <speed>0.0</speed>
  <fix>3d</fix>
</trkpt>
<trkpt lat="-35.362881" lon="149.165222">
  <ele>623.72</ele>
  <time>2026-08-27T18:27:51Z</time>
  <course>91.97</course>
  <speed>0.022360679774997897</speed>
  <fix>3d</fix>
</trkpt>
<trkpt lat="-35.362881" lon="149.1652222">
  <ele>623.04</ele>
  <time>2026-08-27T18:27:51Z</time>
  <course>324.18</course>
  <speed>0.0</speed>
  <fix>3d</fix>
</trkpt>
<trkpt lat="-35.362881" lon="149.165222">
  <ele>624.22</ele>
  <time>2026-08-27T18:27:51Z</time>
  <course>92.02</course>
  <speed>0.022360679774997897</speed>
  <fix>3d</fix>
</trkpt>
<trkpt lat="-35.3628809" lon="149.1652222">
  <ele>623.54</ele>
  <time>2026-08-27T18:27:51Z</time>
  <course>335.47</course>
  <speed>0.0</speed>
  <fix>3d</fix>
</trkpt>
<trkpt lat="-35.362881" lon="149.165222">
  <ele>624.72</ele>
  <time>2026-08-27T18:27:51Z</time>
  <course>92.07</course>
  <speed>0.022360679774997897</speed>
  <fix>3d</fix>
</trkpt>
<trkpt lat="-35.3628809" lon="149.1652222">
  <ele>624.04</ele>
  <time>2026-08-27T18:27:51Z</time>
  <course>348.18</course>
  <speed>0.0</speed>
  <fix>3d</fix>
</trkpt>
<trkpt lat="-35.362881" lon="149.165222">
  <ele>625.21</ele>
  <time>2026-08-27T18:27:51Z</time>
  <course>92.11</course>
  <speed>0.01414213562373095</speed>
  <fix>3d</fix>
</trkpt>
<trkpt lat="-35.3628809" lon="149.1652222">
  <ele>624.54</ele>
  <time>2026-08-27T18:27:51Z</time>
  <course>0.97</course>
  <speed>0.0</speed>
  <fix>3d</fix>
</trkpt>
<trkpt lat="-35.362881" lon="149.165222">
  <ele>625.71</ele>
  <time>2026-08-27T18:27:51Z</time>
  <course>92.14</course>
  <speed>0.01414213562373095</speed>
  <fix>3d</fix>
</trkpt>
<trkpt lat="-35.3628809" lon="149.1652222">
  <ele>625.03</ele>
  <time>2026-08-27T18:27:51Z</time>
  <course>12.03</course>
  <speed>0.0</speed>
  <fix>3d</fix>
</trkpt>
<trkpt lat="-35.362881" lon="149.165222">
  <ele>626.2</ele>
  <time>2026-08-27T18:27:51Z</time>
  <course>92.17</course>
  <speed>0.01414213562373095</speed>
  <fix>3d</fix>
</trkpt>
<trkpt lat="-35.3628809" lon="149.1652222">
  <ele>625.53</ele>
  <time>2026-08-27T18:27:51Z</time>
  <course>20.42</course>
  <speed>0.0</speed>
  <fix>3d</fix>
</trkpt>
<trkpt lat="-35.362881" lon="149.1652221">
  <ele>626.7</ele>
  <time>2026-08-27T18:27:51Z</time>
  <course>92.21</course>
  <speed>0.01414213562373095</speed>
  <fix>3d</fix>
</trkpt>
<trkpt lat="-35.3628809" lon="149.1652222">
  <ele>626.03</ele>
  <time>2026-08-27T18:27:51Z</time>
  <course>26.55</course>
  <speed>0.0</speed>
  <fix>3d</fix>
</trkpt>
<trkpt lat="-35.362881" lon="149.1652221">
  <ele>627.21</ele>
  <time>2026-08-27T18:27:51Z</time>
  <course>92.24</course>
  <speed>0.01414213562373095</speed>
  <fix>3d</fix>
</trkpt>
<trkpt lat="-35.3628809" lon="149.1652222">
  <ele>626.53</ele>
  <time>2026-08-27T18:27:51Z</time>
  <course>36.61</course>
  <speed>0.0</speed>
  <fix>3d</fix>
</trkpt>
<trkpt lat="-35.362881" lon="149.1652221">
  <ele>627.71</ele>
  <time>2026-08-27T18:27:51Z</time>
  <course>92.3</course>
  <speed>0.01414213562373095</speed>
  <fix>3d</fix>
</trkpt>
<trkpt lat="-35.3628809" lon="149.1652222">
  <ele>627.04</ele>
  <time>2026-08-27T18:27:51Z</time>
  <course>54.12</course>
  <speed>0.0</speed>
  <fix>3d</fix>
</trkpt>
<trkpt lat="-35.362881" lon="149.1652221">
  <ele>628.21</ele>
  <time>2026-08-27T18:27:51Z</time>
  <course>92.32</course>
  <speed>0.01414213562373095</speed>
  <fix>3d</fix>
</trkpt>
<trkpt lat="-35.3628809" lon="149.1652222">
  <ele>627.54</ele>
  <time>2026-08-27T18:27:51Z</time>
  <course>72.64</course>
  <speed>0.0</speed>
  <fix>3d</fix>
</trkpt>
<trkpt lat="-35.362881" lon="149.1652221">
  <ele>628.71</ele>
  <time>2026-08-27T18:27:51Z</time>
  <course>92.37</course>
  <speed>0.022360679774997897</speed>
  <fix>3d</fix>
</trkpt>
<trkpt lat="-35.3628809" lon="149.1652222">
  <ele>628.04</ele>
  <time>2026-08-27T18:27:51Z</time>
  <course>87.63</course>
  <speed>0.0</speed>
  <fix>3d</fix>
</trkpt>
<trkpt lat="-35.362881" lon="149.1652221">
  <ele>629.21</ele>
  <time>2026-08-27T18:27:51Z</time>
  <course>92.42</course>
  <speed>0.01414213562373095</speed>
  <fix>3d</fix>
</trkpt>
<trkpt lat="-35.3628809" lon="149.1652222">
  <ele>628.54</ele>
  <time>2026-08-27T18:27:51Z</time>
  <course>91.07</course>
  <speed>0.0</speed>
  <fix>3d</fix>
</trkpt>
<trkpt lat="-35.362881" lon="149.1652221">
  <ele>629.71</ele>
  <time>2026-08-27T18:27:51Z</time>
  <course>92.45</course>
  <speed>0.01414213562373095</speed>
  <fix>3d</fix>
</trkpt>
<trkpt lat="-35.3628809" lon="149.1652222">
  <ele>629.04</ele>
  <time>2026-08-27T18:27:51Z</time>
  <course>94.83</course>
  <speed>0.0</speed>
  <fix>3d</fix>
</trkpt>
<trkpt lat="-35.362881" lon="149.1652221">
  <ele>630.21</ele>
  <time>2026-08-27T18:27:51Z</time>
  <course>92.48</course>
  <speed>0.022360679774997897</speed>
  <fix>3d</fix>
</trkpt>
<trkpt lat="-35.3628809" lon="149.1652222">
  <ele>629.54</ele>
  <time>2026-08-27T18:27:51Z</time>
  <course>104.82</course>
  <speed>0.0</speed>
  <fix>3d</fix>
</trkpt>
<trkpt lat="-35.362881" lon="149.1652221">
  <ele>630.72</ele>
  <time>2026-08-27T18:27:51Z</time>
  <course>92.53</course>
  <speed>0.0282842712474619</speed>
  <fix>3d</fix>
</trkpt>
<trkpt lat="-35.3628809" lon="149.1652222">
  <ele>630.04</ele>
  <time>2026-08-27T18:27:51Z</time>
  <course>113.87</course>
  <speed>0.0</speed>
  <fix>3d</fix>
</trkpt>
<trkpt lat="-35.362881" lon="149.1652221">
  <ele>631.22</ele>
  <time>2026-08-27T18:27:51Z</time>
  <course>92.56</course>
  <speed>0.0282842712474619</speed>
  <fix>3d</fix>
</trkpt>
<trkpt lat="-35.3628809" lon="149.1652222">
  <ele>630.54</ele>
  <time>2026-08-27T18:27:51Z</time>
  <course>121.22</course>
  <speed>0.0</speed>
  <fix>3d</fix>
</trkpt>
<trkpt lat="-35.362881" lon="149.1652221">
  <ele>631.71</ele>
  <time>2026-08-27T18:27:51Z</time>
  <course>92.59</course>
  <speed>0.0282842712474619</speed>
  <fix>3d</fix>
</trkpt>
<trkpt lat="-35.3628809" lon="149.1652222">
  <ele>631.04</ele>
  <time>2026-08-27T18:27:51Z</time>
  <course>128.73</course>
  <speed>0.0</speed>
  <fix>3d</fix>
</trkpt>
<trkpt lat="-35.362881" lon="149.1652221">
  <ele>632.21</ele>
  <time>2026-08-27T18:27:51Z</time>
  <course>92.62</course>
  <speed>0.0282842712474619</speed>
  <fix>3d</fix>
</trkpt>
<trkpt lat="-35.3628809" lon="149.1652222">
  <ele>631.54</ele>
  <time>2026-08-27T18:27:51Z</time>
  <course>134.92</course>
  <speed>0.0</speed>
  <fix>3d</fix>
</trkpt>
<trkpt lat="-35.362881" lon="149.1652221">
  <ele>632.71</ele>
  <time>2026-08-27T18:27:51Z</time>
  <course>92.63</course>
  <speed>0.0282842712474619</speed>
  <fix>3d</fix>
</trkpt>
<trkpt lat="-35.3628809" lon="149.1652222">
  <ele>632.04</ele>
  <time>2026-08-27T18:27:51Z</time>
  <course>136.71</course>
  <speed>0.0</speed>
  <fix>3d</fix>
</trkpt>
<trkpt lat="-35.362881" lon="149.1652221">
  <ele>633.21</ele>
  <time>2026-08-27T18:27:51Z</time>
  <course>92.65</course>
  <speed>0.022360679774997897</speed>
  <fix>3d</fix>
</trkpt>
<trkpt lat="-35.3628809" lon="149.1652222">
  <ele>632.54</ele>
  <time>2026-08-27T18:27:51Z</time>
  <course>135.04</course>
  <speed>0.0</speed>
  <fix>3d</fix>
</trkpt>
<trkpt lat="-35.362881" lon="149.1652221">
  <ele>633.71</ele>
  <time>2026-08-27T18:27:51Z</time>
  <course>92.71</course>
  <speed>0.022360679774997897</speed>
  <fix>3d</fix>
</trkpt>
<trkpt lat="-35.3628809" lon="149.1652222">
  <ele>633.05</ele>
  <time>2026-08-27T18:27:51Z</time>
  <course>133.83</course>
  <speed>0.0</speed>
  <fix>3d</fix>
</trkpt>
<trkpt lat="-35.362881" lon="149.1652221">
  <ele>634.22</ele>
  <time>2026-08-27T18:27:51Z</time>
  <course>92.74</course>
  <speed>0.022360679774997897</speed>
  <fix>3d</fix>
</trkpt>
<trkpt lat="-35.3628809" lon="149.1652222">
  <ele>633.55</ele>
  <time>2026-08-27T18:27:51Z</time>
  <course>134.71</course>
  <speed>0.0</speed>
  <fix>3d</fix>
</trkpt>
<trkpt lat="-35.362881" lon="149.1652221">
  <ele>634.72</ele>
  <time>2026-08-27T18:27:51Z</time>
  <course>92.78</course>
  <speed>0.022360679774997897</speed>
  <fix>3d</fix>
</trkpt>
<trkpt lat="-35.3628809" lon="149.1652222">
  <ele>634.05</ele>
  <time>2026-08-27T18:27:51Z</time>
  <course>137.91</course>
  <speed>0.0</speed>
  <fix>3d</fix>
</trkpt>
<trkpt lat="-35.362881" lon="149.1652221">
  <ele>635.22</ele>
  <time>2026-08-27T18:27:51Z</time>
  <course>92.81</course>
  <speed>0.022360679774997897</speed>
  <fix>3d</fix>
</trkpt>
<trkpt lat="-35.3628809" lon="149.1652222">
  <ele>634.55</ele>
  <time>2026-08-27T18:27:51Z</time>
  <course>141.78</course>
  <speed>0.0</speed>
  <fix>3d</fix>
</trkpt>
<trkpt lat="-35.362881" lon="149.1652221">
  <ele>635.72</ele>
  <time>2026-08-27T18:27:51Z</time>
  <course>92.83</course>
  <speed>0.022360679774997897</speed>
  <fix>3d</fix>
</trkpt>
<trkpt lat="-35.3628809" lon="149.1652222">
  <ele>635.05</ele>
  <time>2026-08-27T18:27:51Z</time>
  <course>144.83</course>
  <speed>0.0</speed>
  <fix>3d</fix>
</trkpt>
<trkpt lat="-35.362881" lon="149.1652221">
  <ele>636.21</ele>
  <time>2026-08-27T18:27:51Z</time>
  <course>92.86</course>
  <speed>0.022360679774997897</speed>
  <fix>3d</fix>
</trkpt>
<trkpt lat="-35.3628809" lon="149.1652222">
  <ele>635.55</ele>
  <time>2026-08-27T18:27:51Z</time>
  <course>147.12</course>
  <speed>0.0</speed>
  <fix>3d</fix>
</trkpt>
<trkpt lat="-35.362881" lon="149.1652221">
  <ele>636.71</ele>
  <time>2026-08-27T18:27:51Z</time>
  <course>92.86</course>
  <speed>0.022360679774997897</speed>
  <fix>3d</fix>
</trkpt>
<trkpt lat="-35.3628809" lon="149.1652222">
  <ele>636.05</ele>
  <time>2026-08-27T18:27:51Z</time>
  <course>147.43</course>
  <speed>0.0</speed>
  <fix>3d</fix>
</trkpt>
<trkpt lat="-35.362881" lon="149.1652221">
  <ele>637.2</ele>
  <time>2026-08-27T18:27:51Z</time>
  <course>92.9</course>
  <speed>0.022360679774997897</speed>
  <fix>3d</fix>
</trkpt>
<trkpt lat="-35.3628809" lon="149.1652222">
  <ele>636.55</ele>
  <time>2026-08-27T18:27:51Z</time>
  <course>140.92</course>
  <speed>0.0</speed>
  <fix>3d</fix>
</trkpt>
<trkpt lat="-35.362881" lon="149.1652221">
  <ele>637.71</ele>
  <time>2026-08-27T18:27:51Z</time>
  <course>92.9</course>
  <speed>0.022360679774997897</speed>
  <fix>3d</fix>
</trkpt>
<trkpt lat="-35.3628809" lon="149.1652222">
  <ele>637.05</ele>
  <time>2026-08-27T18:27:51Z</time>
  <course>133.74</course>
  <speed>0.0</speed>
  <fix>3d</fix>
</trkpt>
<trkpt lat="-35.362881" lon="149.1652221">
  <ele>638.2</ele>
  <time>2026-08-27T18:27:51Z</time>
  <course>92.93</course>
  <speed>0.022360679774997897</speed>
  <fix>3d</fix>
</trkpt>
<trkpt lat="-35.3628809" lon="149.1652222">
  <ele>637.55</ele>
  <time>2026-08-27T18:27:51Z</time>
  <course>130.69</course>
  <speed>0.0</speed>
  <fix>3d</fix>
</trkpt>
<trkpt lat="-35.362881" lon="149.1652221">
  <ele>638.7</ele>
  <time>2026-08-27T18:27:51Z</time>
  <course>92.93</course>
  <speed>0.022360679774997897</speed>
  <fix>3d</fix>
</trkpt>
<trkpt lat="-35.3628809" lon="149.1652222">
  <ele>638.05</ele>
  <time>2026-08-27T18:27:51Z</time>
  <course>128.97</course>
  <speed>0.0</speed>
  <fix>3d</fix>
</trkpt>
<trkpt lat="-35.362881" lon="149.1652221">
  <ele>639.21</ele>
  <time>2026-08-27T18:27:51Z</time>
  <course>92.95</course>
  <speed>0.022360679774997897</speed>
  <fix>3d</fix>
</trkpt>
<trkpt lat="-35.3628809" lon="149.1652222">
  <ele>638.56</ele>
  <time>2026-08-27T18:27:51Z</time>
  <course>129.73</course>
  <speed>0.0</speed>
  <fix>3d</fix>
</trkpt>
<trkpt lat="-35.362881" lon="149.1652221">
  <ele>639.71</ele>
  <time>2026-08-27T18:27:51Z</time>
  <course>93.0</course>
  <speed>0.022360679774997897</speed>
  <fix>3d</fix>
</trkpt>
<trkpt lat="-35.3628809" lon="149.1652222">
  <ele>639.06</ele>
  <time>2026-08-27T18:27:51Z</time>
  <course>130.45</course>
  <speed>0.0</speed>
  <fix>3d</fix>
</trkpt>
<trkpt lat="-35.362881" lon="149.1652221">
  <ele>640.21</ele>
  <time>2026-08-27T18:27:51Z</time>
  <course>93.07</course>
  <speed>0.022360679774997897</speed>
  <fix>3d</fix>
</trkpt>
<trkpt lat="-35.3628809" lon="149.1652223">
  <ele>639.56</ele>
  <time>2026-08-27T18:27:51Z</time>
  <course>131.41</course>
  <speed>0.0</speed>
  <fix>3d</fix>
</trkpt>
<trkpt lat="-35.362881" lon="149.1652221">
  <ele>640.71</ele>
  <time>2026-08-27T18:27:51Z</time>
  <course>93.09</course>
  <speed>0.022360679774997897</speed>
  <fix>3d</fix>
</trkpt>
<trkpt lat="-35.3628809" lon="149.1652224">
  <ele>640.07</ele>
  <time>2026-08-27T18:27:51Z</time>
  <course>132.59</course>
  <speed>0.0</speed>
  <fix>3d</fix>
</trkpt>
<trkpt lat="-35.362881" lon="149.1652221">
  <ele>641.21</ele>
  <time>2026-08-27T18:27:51Z</time>
  <course>93.07</course>
  <speed>0.022360679774997897</speed>
  <fix>3d</fix>
</trkpt>
<trkpt lat="-35.3628809" lon="149.1652224">
  <ele>640.57</ele>
  <time>2026-08-27T18:27:51Z</time>
  <course>136.62</course>
  <speed>0.0</speed>
  <fix>3d</fix>
</trkpt>
<trkpt lat="-35.362881" lon="149.1652221">
  <ele>641.71</ele>
  <time>2026-08-27T18:27:51Z</time>
  <course>93.12</course>
  <speed>0.022360679774997897</speed>
  <fix>3d</fix>
</trkpt>
<trkpt lat="-35.3628809" lon="149.1652224">
  <ele>641.07</ele>
  <time>2026-08-27T18:27:51Z</time>
  <course>140.1</course>
  <speed>0.0</speed>
  <fix>3d</fix>
</trkpt>
<trkpt lat="-35.362881" lon="149.1652221">
  <ele>642.22</ele>
  <time>2026-08-27T18:27:51Z</time>
  <course>93.15</course>
  <speed>0.022360679774997897</speed>
  <fix>3d</fix>
</trkpt>
<trkpt lat="-35.3628809" lon="149.1652224">
  <ele>641.57</ele>
  <time>2026-08-27T18:27:51Z</time>
  <course>147.16</course>
  <speed>0.0</speed>
  <fix>3d</fix>
</trkpt>
<trkpt lat="-35.362881" lon="149.1652221">
  <ele>642.72</ele>
  <time>2026-08-27T18:27:52Z</time>
  <course>93.18</course>
  <speed>0.022360679774997897</speed>
  <fix>3d</fix>
</trkpt>
<trkpt lat="-35.3628809" lon="149.1652224">
  <ele>642.07</ele>
  <time>2026-08-27T18:27:52Z</time>
  <course>163.03</course>
  <speed>0.0</speed>
  <fix>3d</fix>
</trkpt>
<trkpt lat="-35.362881" lon="149.1652221">
  <ele>643.23</ele>
  <time>2026-08-27T18:27:52Z</time>
  <course>93.21</course>
  <speed>0.022360679774997897</speed>
  <fix>3d</fix>
</trkpt>
<trkpt lat="-35.3628809" lon="149.1652224">
  <ele>642.57</ele>
  <time>2026-08-27T18:27:52Z</time>
  <course>181.64</course>
  <speed>0.0</speed>
  <fix>3d</fix>
</trkpt>
<trkpt lat="-35.362881" lon="149.1652221">
  <ele>643.73</ele>
  <time>2026-08-27T18:27:52Z</time>
  <course>93.23</course>
  <speed>0.022360679774997897</speed>
  <fix>3d</fix>
</trkpt>
<trkpt lat="-35.3628809" lon="149.1652224">
  <ele>643.07</ele>
  <time>2026-08-27T18:27:52Z</time>
  <course>197.5</course>
  <speed>0.0</speed>
  <fix>3d</fix>
</trkpt>
<trkpt lat="-35.362881" lon="149.1652221">
  <ele>644.24</ele>
  <time>2026-08-27T18:27:52Z</time>
  <course>93.24</course>
  <speed>0.022360679774997897</speed>
  <fix>3d</fix>
</trkpt>
<trkpt lat="-35.362881" lon="149.1652224">
  <ele>643.58</ele>
  <time>2026-08-27T18:27:52Z</time>
  <course>208.49</course>
  <speed>0.0</speed>
  <fix>3d</fix>
</trkpt>
<trkpt lat="-35.362881" lon="149.1652221">
  <ele>644.74</ele>
  <time>2026-08-27T18:27:52Z</time>
  <course>93.29</course>
  <speed>0.022360679774997897</speed>
  <fix>3d</fix>
</trkpt>
<trkpt lat="-35.362881" lon="149.1652224">
  <ele>644.07</ele>
  <time>2026-08-27T18:27:52Z</time>
  <course>217.18</course>
  <speed>0.0</speed>
  <fix>3d</fix>
</trkpt>
<trkpt lat="-35.362881" lon="149.1652221">
  <ele>645.24</ele>
  <time>2026-08-27T18:27:52Z</time>
  <course>93.3</course>
  <speed>0.022360679774997897</speed>
  <fix>3d</fix>
</trkpt>
<trkpt lat="-35.362881" lon="149.1652224">
  <ele>644.57</ele>
  <time>2026-08-27T18:27:52Z</time>
  <course>223.85</course>
  <speed>0.0</speed>
  <fix>3d</fix>
</trkpt>
<trkpt lat="-35.362881" lon="149.1652221">
  <ele>645.74</ele>
  <time>2026-08-27T18:27:52Z</time>
  <course>93.35</course>
  <speed>0.022360679774997897</speed>
  <fix>3d</fix>
</trkpt>
<trkpt lat="-35.362881" lon="149.1652224">
  <ele>645.07</ele>
  <time>2026-08-27T18:27:52Z</time>
  <course>229.75</course>
  <speed>0.0</speed>
  <fix>3d</fix>
</trkpt>
<trkpt lat="-35.362881" lon="149.1652221">
  <ele>646.24</ele>
  <time>2026-08-27T18:27:52Z</time>
  <course>93.35</course>
  <speed>0.022360679774997897</speed>
  <fix>3d</fix>
</trkpt>
<trkpt lat="-35.362881" lon="149.1652224">
  <ele>645.56</ele>
  <time>2026-08-27T18:27:52Z</time>
  <course>235.66</course>
  <speed>0.0</speed>
  <fix>3d</fix>
</trkpt>
<trkpt lat="-35.3628811" lon="149.1652221">
  <ele>646.73</ele>
  <time>2026-08-27T18:27:52Z</time>
  <course>93.35</course>
  <speed>0.022360679774997897</speed>
  <fix>3d</fix>
</trkpt>
<trkpt lat="-35.362881" lon="149.1652224">
  <ele>646.06</ele>
  <time>2026-08-27T18:27:52Z</time>
  <course>240.51</course>
  <speed>0.0</speed>
  <fix>3d</fix>
</trkpt>
<trkpt lat="-35.3628811" lon="149.1652221">
  <ele>647.23</ele>
  <time>2026-08-27T18:27:52Z</time>
  <course>93.38</course>
  <speed>0.022360679774997897</speed>
  <fix>3d</fix>
</trkpt>
<trkpt lat="-35.362881" lon="149.1652224">
  <ele>646.55</ele>
  <time>2026-08-27T18:27:52Z</time>
  <course>245.64</course>
  <speed>0.0</speed>
  <fix>3d</fix>
</trkpt>
<trkpt lat="-35.3628811" lon="149.1652221">
  <ele>647.73</ele>
  <time>2026-08-27T18:27:52Z</time>
  <course>93.38</course>
  <speed>0.022360679774997897</speed>
  <fix>3d</fix>
</trkpt>
<trkpt lat="-35.362881" lon="149.1652224">
  <ele>647.05</ele>
  <time>2026-08-27T18:27:52Z</time>
  <course>252.78</course>
  <speed>0.0</speed>
  <fix>3d</fix>
</trkpt>
<trkpt lat="-35.3628811" lon="149.1652221">
  <ele>648.23</ele>
  <time>2026-08-27T18:27:52Z</time>
  <course>93.39</course>
  <speed>0.0316227766016838</speed>
  <fix>3d</fix>
</trkpt>
<trkpt lat="-35.362881" lon="149.1652223">
  <ele>647.55</ele>
  <time>2026-08-27T18:27:52Z</time>
  <course>259.75</course>
  <speed>0.0</speed>
  <fix>3d</fix>
</trkpt>
<trkpt lat="-35.3628811" lon="149.1652221">
  <ele>648.73</ele>
  <time>2026-08-27T18:27:52Z</time>
  <course>93.4</course>
  <speed>0.0316227766016838</speed>
  <fix>3d</fix>
</trkpt>
<trkpt lat="-35.362881" lon="149.1652222">
  <ele>648.04</ele>
  <time>2026-08-27T18:27:52Z</time>
  <course>263.23</course>
  <speed>0.01</speed>
  <fix>3d</fix>
</trkpt>
<trkpt lat="-35.3628811" lon="149.1652221">
  <ele>649.22</ele>
  <time>2026-08-27T18:27:52Z</time>
  <course>93.43</course>
  <speed>0.0316227766016838</speed>
  <fix>3d</fix>
</trkpt>
<trkpt lat="-35.362881" lon="149.1652222">
  <ele>648.54</ele>
  <time>2026-08-27T18:27:52Z</time>
  <course>266.0</course>
  <speed>0.01</speed>
  <fix>3d</fix>
</trkpt>
<trkpt lat="-35.3628811" lon="149.165222">
  <ele>649.72</ele>
  <time>2026-08-27T18:27:52Z</time>
  <course>93.44</course>
  <speed>0.022360679774997897</speed>
  <fix>3d</fix>
</trkpt>
<trkpt lat="-35.362881" lon="149.1652222">
  <ele>649.04</ele>
  <time>2026-08-27T18:27:52Z</time>
  <course>268.45</course>
  <speed>0.0</speed>
  <fix>3d</fix>
</trkpt>
<trkpt lat="-35.3628811" lon="149.165222">
  <ele>650.22</ele>
  <time>2026-08-27T18:27:52Z</time>
  <course>93.45</course>
  <speed>0.022360679774997897</speed>
  <fix>3d</fix>
</trkpt>
<trkpt lat="-35.362881" lon="149.1652222">
  <ele>649.54</ele>
  <time>2026-08-27T18:27:52Z</time>
  <course>270.9</course>
  <speed>0.0</speed>
  <fix>3d</fix>
</trkpt>
<trkpt lat="-35.3628811" lon="149.165222">
  <ele>650.71</ele>
  <time>2026-08-27T18:27:52Z</time>
  <course>93.47</course>
  <speed>0.022360679774997897</speed>
  <fix>3d</fix>
</trkpt>
<trkpt lat="-35.362881" lon="149.1652222">
  <ele>650.04</ele>
  <time>2026-08-27T18:27:52Z</time>
  <course>274.29</course>
  <speed>0.0</speed>
  <fix>3d</fix>
</trkpt>
<trkpt lat="-35.3628811" lon="149.165222">
  <ele>651.2</ele>
  <time>2026-08-27T18:27:52Z</time>
  <course>93.46</course>
  <speed>0.022360679774997897</speed>
  <fix>3d</fix>
</trkpt>
<trkpt lat="-35.362881" lon="149.1652222">
  <ele>650.53</ele>
  <time>2026-08-27T18:27:52Z</time>
  <course>277.75</course>
  <speed>0.0</speed>
  <fix>3d</fix>
</trkpt>
<trkpt lat="-35.3628811" lon="149.165222">
  <ele>651.7</ele>
  <time>2026-08-27T18:27:52Z</time>
  <course>93.46</course>
  <speed>0.022360679774997897</speed>
  <fix>3d</fix>
</trkpt>
<trkpt lat="-35.362881" lon="149.1652222">
  <ele>651.03</ele>
  <time>2026-08-27T18:27:52Z</time>
  <course>284.67</course>
  <speed>0.0</speed>
  <fix>3d</fix>
</trkpt>
<trkpt lat="-35.3628811" lon="149.165222">
  <ele>652.2</ele>
  <time>2026-08-27T18:27:52Z</time>
  <course>93.47</course>
  <speed>0.022360679774997897</speed>
  <fix>3d</fix>
</trkpt>
<trkpt lat="-35.362881" lon="149.1652222">
  <ele>651.54</ele>
  <time>2026-08-27T18:27:52Z</time>
  <course>303.48</course>
  <speed>0.0</speed>
  <fix>3d</fix>
</trkpt>
<trkpt lat="-35.362881" lon="149.165222">
  <ele>652.7</ele>
  <time>2026-08-27T18:27:52Z</time>
  <course>93.48</course>
  <speed>0.022360679774997897</speed>
  <fix>3d</fix>
</trkpt>
<trkpt lat="-35.362881" lon="149.1652222">
  <ele>652.04</ele>
  <time>2026-08-27T18:27:52Z</time>
  <course>328.2</course>
  <speed>0.0</speed>
  <fix>3d</fix>
</trkpt>
<trkpt lat="-35.362881" lon="149.165222">
  <ele>653.2</ele>
  <time>2026-08-27T18:27:52Z</time>
  <course>93.51</course>
  <speed>0.022360679774997897</speed>
  <fix>3d</fix>
</trkpt>
<trkpt lat="-35.362881" lon="149.1652222">
  <ele>652.54</ele>
  <time>2026-08-27T18:27:52Z</time>
  <course>348.81</course>
  <speed>0.0</speed>
  <fix>3d</fix>
</trkpt>
<trkpt lat="-35.362881" lon="149.165222">
  <ele>653.71</ele>
  <time>2026-08-27T18:27:52Z</time>
  <course>93.52</course>
  <speed>0.022360679774997897</speed>
  <fix>3d</fix>
</trkpt>
<trkpt lat="-35.362881" lon="149.1652222">
  <ele>653.04</ele>
  <time>2026-08-27T18:27:52Z</time>
  <course>1.24</course>
  <speed>0.0</speed>
  <fix>3d</fix>
</trkpt>
<trkpt lat="-35.362881" lon="149.165222">
  <ele>654.21</ele>
  <time>2026-08-27T18:27:52Z</time>
  <course>93.56</course>
  <speed>0.022360679774997897</speed>
  <fix>3d</fix>
</trkpt>
<trkpt lat="-35.362881" lon="149.1652222">
  <ele>653.55</ele>
  <time>2026-08-27T18:27:52Z</time>
  <course>8.78</course>
  <speed>0.0</speed>
  <fix>3d</fix>
</trkpt>
<trkpt lat="-35.362881" lon="149.165222">
  <ele>654.72</ele>
  <time>2026-08-27T18:27:52Z</time>
  <course>93.57</course>
  <speed>0.022360679774997897</speed>
  <fix>3d</fix>
</trkpt>
<trkpt lat="-35.362881" lon="149.1652222">
  <ele>654.05</ele>
  <time>2026-08-27T18:27:52Z</time>
  <course>12.02</course>
  <speed>0.0</speed>
  <fix>3d</fix>
</trkpt>
<trkpt lat="-35.362881" lon="149.165222">
  <ele>655.22</ele>
  <time>2026-08-27T18:27:52Z</time>
  <course>93.58</course>
  <speed>0.022360679774997897</speed>
  <fix>3d</fix>
</trkpt>
<trkpt lat="-35.362881" lon="149.1652222">
  <ele>654.55</ele>
  <time>2026-08-27T18:27:52Z</time>
  <course>14.48</course>
  <speed>0.0</speed>
  <fix>3d</fix>
</trkpt>
<trkpt lat="-35.362881" lon="149.165222">
  <ele>655.72</ele>
  <time>2026-08-27T18:27:52Z</time>
  <course>93.59</course>
  <speed>0.022360679774997897</speed>
  <fix>3d</fix>
</trkpt>
<trkpt lat="-35.362881" lon="149.1652222">
  <ele>655.05</ele>
  <time>2026-08-27T18:27:52Z</time>
  <course>23.09</course>
  <speed>0.0</speed>
  <fix>3d</fix>
</trkpt>
<trkpt lat="-35.362881" lon="149.165222">
  <ele>656.23</ele>
  <time>2026-08-27T18:27:52Z</time>
  <course>93.61</course>
  <speed>0.01414213562373095</speed>
  <fix>3d</fix>
</trkpt>
<trkpt lat="-35.362881" lon="149.1652222">
  <ele>655.56</ele>
  <time>2026-08-27T18:27:52Z</time>
  <course>36.78</course>
  <speed>0.0</speed>
  <fix>3d</fix>
</trkpt>
<trkpt lat="-35.362881" lon="149.165222">
  <ele>656.73</ele>
  <time>2026-08-27T18:27:52Z</time>
  <course>93.63</course>
  <speed>0.01414213562373095</speed>
  <fix>3d</fix>
</trkpt>
<trkpt lat="-35.362881" lon="149.1652222">
  <ele>656.05</ele>
  <time>2026-08-27T18:27:52Z</time>
  <course>48.39</course>
  <speed>0.0</speed>
  <fix>3d</fix>
</trkpt>
<trkpt lat="-35.362881" lon="149.165222">
  <ele>657.22</ele>
  <time>2026-08-27T18:27:52Z</time>
  <course>93.65</course>
  <speed>0.01414213562373095</speed>
  <fix>3d</fix>
</trkpt>
<trkpt lat="-35.362881" lon="149.1652222">
  <ele>656.55</ele>
  <time>2026-08-27T18:27:52Z</time>
  <course>51.91</course>
  <speed>0.0</speed>
  <fix>3d</fix>
</trkpt>
<trkpt lat="-35.362881" lon="149.165222">
  <ele>657.71</ele>
  <time>2026-08-27T18:27:52Z</time>
  <course>93.66</course>
  <speed>0.01414213562373095</speed>
  <fix>3d</fix>
</trkpt>
<trkpt lat="-35.362881" lon="149.1652222">
  <ele>657.05</ele>
  <time>2026-08-27T18:27:52Z</time>
  <course>53.47</course>
  <speed>0.0</speed>
  <fix>3d</fix>
</trkpt>
<trkpt lat="-35.362881" lon="149.165222">
  <ele>658.21</ele>
  <time>2026-08-27T18:27:52Z</time>
  <course>93.66</course>
  <speed>0.01414213562373095</speed>
  <fix>3d</fix>
</trkpt>
<trkpt lat="-35.362881" lon="149.1652222">
  <ele>657.55</ele>
  <time>2026-08-27T18:27:52Z</time>
  <course>59.26</course>
  <speed>0.0</speed>
  <fix>3d</fix>
</trkpt>
<trkpt lat="-35.362881" lon="149.165222">
  <ele>658.71</ele>
  <time>2026-08-27T18:27:52Z</time>
  <course>93.64</course>
  <speed>0.022360679774997897</speed>
  <fix>3d</fix>
</trkpt>
<trkpt lat="-35.362881" lon="149.1652222">
  <ele>658.05</ele>
  <time>2026-08-27T18:27:52Z</time>
  <course>62.91</course>
  <speed>0.0</speed>
  <fix>3d</fix>
</trkpt>
<trkpt lat="-35.362881" lon="149.165222">
  <ele>659.21</ele>
  <time>2026-08-27T18:27:52Z</time>
  <course>93.65</course>
  <speed>0.022360679774997897</speed>
  <fix>3d</fix>
</trkpt>
<trkpt lat="-35.362881" lon="149.1652222">
  <ele>658.55</ele>
  <time>2026-08-27T18:27:52Z</time>
  <course>58.66</course>
  <speed>0.0</speed>
  <fix>3d</fix>
</trkpt>
<trkpt lat="-35.362881" lon="149.165222">
  <ele>659.71</ele>
  <time>2026-08-27T18:27:52Z</time>
  <course>93.67</course>
  <speed>0.022360679774997897</speed>
  <fix>3d</fix>
</trkpt>
<trkpt lat="-35.362881" lon="149.1652222">
  <ele>659.05</ele>
  <time>2026-08-27T18:27:52Z</time>
  <course>49.69</course>
  <speed>0.0</speed>
  <fix>3d</fix>
</trkpt>
<trkpt lat="-35.362881" lon="149.165222">
  <ele>660.21</ele>
  <time>2026-08-27T18:27:52Z</time>
  <course>93.67</course>
  <speed>0.022360679774997897</speed>
  <fix>3d</fix>
</trkpt>
<trkpt lat="-35.362881" lon="149.1652222">
  <ele>659.55</ele>
  <time>2026-08-27T18:27:52Z</time>
  <course>46.11</course>
  <speed>0.0</speed>
  <fix>3d</fix>
</trkpt>
<trkpt lat="-35.362881" lon="149.165222">
  <ele>660.71</ele>
  <time>2026-08-27T18:27:52Z</time>
  <course>93.66</course>
  <speed>0.022360679774997897</speed>
  <fix>3d</fix>
</trkpt>
<trkpt lat="-35.362881" lon="149.1652222">
  <ele>660.06</ele>
  <time>2026-08-27T18:27:52Z</time>
  <course>43.45</course>
  <speed>0.0</speed>
  <fix>3d</fix>
</trkpt>
<trkpt lat="-35.362881" lon="149.165222">
  <ele>661.21</ele>
  <time>2026-08-27T18:27:52Z</time>
  <course>93.7</course>
  <speed>0.022360679774997897</speed>
  <fix>3d</fix>
</trkpt>
<trkpt lat="-35.362881" lon="149.1652222">
  <ele>660.56</ele>
  <time>2026-08-27T18:27:52Z</time>
  <course>38.91</course>
  <speed>0.0</speed>
  <fix>3d</fix>
</trkpt>
<trkpt lat="-35.362881" lon="149.165222">
  <ele>661.71</ele>
  <time>2026-08-27T18:27:52Z</time>
  <course>93.7</course>
  <speed>0.022360679774997897</speed>
  <fix>3d</fix>
</trkpt>
<trkpt lat="-35.362881" lon="149.1652222">
  <ele>661.06</ele>
  <time>2026-08-27T18:27:52Z</time>
  <course>37.48</course>
  <speed>0.0</speed>
  <fix>3d</fix>
</trkpt>
<trkpt lat="-35.362881" lon="149.165222">
  <ele>662.21</ele>
  <time>2026-08-27T18:27:52Z</time>
  <course>93.7</course>
  <speed>0.022360679774997897</speed>
  <fix>3d</fix>
</trkpt>
<trkpt lat="-35.362881" lon="149.1652222">
  <ele>661.57</ele>
  <time>2026-08-27T18:27:52Z</time>
  <course>39.74</course>
  <speed>0.0</speed>
  <fix>3d</fix>
</trkpt>
<trkpt lat="-35.362881" lon="149.165222">
  <ele>662.71</ele>
  <time>2026-08-27T18:27:52Z</time>
  <course>93.72</course>
  <speed>0.022360679774997897</speed>
  <fix>3d</fix>
</trkpt>
<trkpt lat="-35.362881" lon="149.1652222">
  <ele>662.07</ele>
  <time>2026-08-27T18:27:52Z</time>
  <course>40.08</course>
  <speed>0.0</speed>
  <fix>3d</fix>
</trkpt>
<trkpt lat="-35.362881" lon="149.165222">
  <ele>663.21</ele>
  <time>2026-08-27T18:27:52Z</time>
  <course>93.74</course>
  <speed>0.022360679774997897</speed>
  <fix>3d</fix>
</trkpt>
<trkpt lat="-35.362881" lon="149.1652222">
  <ele>662.57</ele>
  <time>2026-08-27T18:27:52Z</time>
  <course>40.64</course>
  <speed>0.0</speed>
  <fix>3d</fix>
</trkpt>
<trkpt lat="-35.362881" lon="149.165222">
  <ele>663.71</ele>
  <time>2026-08-27T18:27:52Z</time>
  <course>93.74</course>
  <speed>0.022360679774997897</speed>
  <fix>3d</fix>
</trkpt>
<trkpt lat="-35.362881" lon="149.1652222">
  <ele>663.07</ele>
  <time>2026-08-27T18:27:52Z</time>
  <course>42.44</course>
  <speed>0.0</speed>
  <fix>3d</fix>
</trkpt>
<trkpt lat="-35.362881" lon="149.165222">
  <ele>664.21</ele>
  <time>2026-08-27T18:27:52Z</time>
  <course>93.77</course>
  <speed>0.022360679774997897</speed>
  <fix>3d</fix>
</trkpt>
<trkpt lat="-35.362881" lon="149.1652222">
  <ele>663.57</ele>
  <time>2026-08-27T18:27:52Z</time>
  <course>41.97</course>
  <speed>0.0</speed>
  <fix>3d</fix>
</trkpt>
<trkpt lat="-35.362881" lon="149.165222">
  <ele>664.72</ele>
  <time>2026-08-27T18:27:52Z</time>
  <course>93.77</course>
  <speed>0.022360679774997897</speed>
  <fix>3d</fix>
</trkpt>
<trkpt lat="-35.362881" lon="149.1652222">
  <ele>664.08</ele>
  <time>2026-08-27T18:27:52Z</time>
  <course>42.64</course>
  <speed>0.0</speed>
  <fix>3d</fix>
</trkpt>
<trkpt lat="-35.362881" lon="149.165222">
  <ele>665.22</ele>
  <time>2026-08-27T18:27:52Z</time>
  <course>93.79</course>
  <speed>0.022360679774997897</speed>
  <fix>3d</fix>
</trkpt>
<trkpt lat="-35.362881" lon="149.1652222">
  <ele>664.58</ele>
  <time>2026-08-27T18:27:52Z</time>
  <course>41.88</course>
  <speed>0.0</speed>
  <fix>3d</fix>
</trkpt>
<trkpt lat="-35.362881" lon="149.165222">
  <ele>665.72</ele>
  <time>2026-08-27T18:27:52Z</time>
  <course>93.81</course>
  <speed>0.022360679774997897</speed>
  <fix>3d</fix>
</trkpt>
<trkpt lat="-35.362881" lon="149.1652222">
  <ele>665.08</ele>
  <time>2026-08-27T18:27:52Z</time>
  <course>40.39</course>
  <speed>0.0</speed>
  <fix>3d</fix>
</trkpt>
<trkpt lat="-35.362881" lon="149.165222">
  <ele>666.22</ele>
  <time>2026-08-27T18:27:52Z</time>
  <course>93.82</course>
  <speed>0.022360679774997897</speed>
  <fix>3d</fix>
</trkpt>
<trkpt lat="-35.362881" lon="149.1652222">
  <ele>665.58</ele>
  <time>2026-08-27T18:27:52Z</time>
  <course>40.85</course>
  <speed>0.0</speed>
  <fix>3d</fix>
</trkpt>
<trkpt lat="-35.362881" lon="149.165222">
  <ele>666.71</ele>
  <time>2026-08-27T18:27:52Z</time>
  <course>93.83</course>
  <speed>0.022360679774997897</speed>
  <fix>3d</fix>
</trkpt>
<trkpt lat="-35.362881" lon="149.1652222">
  <ele>666.09</ele>
  <time>2026-08-27T18:27:52Z</time>
  <course>42.02</course>
  <speed>0.0</speed>
  <fix>3d</fix>
</trkpt>
<trkpt lat="-35.362881" lon="149.165222">
  <ele>667.21</ele>
  <time>2026-08-27T18:27:52Z</time>
  <course>93.8</course>
  <speed>0.022360679774997897</speed>
  <fix>3d</fix>
</trkpt>
<trkpt lat="-35.362881" lon="149.1652222">
  <ele>666.59</ele>
  <time>2026-08-27T18:27:52Z</time>
  <course>48.11</course>
  <speed>0.0</speed>
  <fix>3d</fix>
</trkpt>
<trkpt lat="-35.362881" lon="149.165222">
  <ele>667.71</ele>
  <time>2026-08-27T18:27:52Z</time>
  <course>93.8</course>
  <speed>0.022360679774997897</speed>
  <fix>3d</fix>
</trkpt>
<trkpt lat="-35.362881" lon="149.1652222">
  <ele>667.09</ele>
  <time>2026-08-27T18:27:52Z</time>
  <course>54.99</course>
  <speed>0.0</speed>
  <fix>3d</fix>
</trkpt>
<trkpt lat="-35.362881" lon="149.165222">
  <ele>668.21</ele>
  <time>2026-08-27T18:27:52Z</time>
  <course>93.82</course>
  <speed>0.022360679774997897</speed>
  <fix>3d</fix>
</trkpt>
<trkpt lat="-35.3628809" lon="149.1652222">
  <ele>667.59</ele>
  <time>2026-08-27T18:27:52Z</time>
  <course>56.29</course>
  <speed>0.0</speed>
  <fix>3d</fix>
</trkpt>
<trkpt lat="-35.362881" lon="149.165222">
  <ele>668.71</ele>
  <time>2026-08-27T18:27:52Z</time>
  <course>93.84</course>
  <speed>0.022360679774997897</speed>
  <fix>3d</fix>
</trkpt>
<trkpt lat="-35.3628809" lon="149.1652222">
  <ele>668.09</ele>
  <time>2026-08-27T18:27:52Z</time>
  <course>56.86</course>
  <speed>0.0</speed>
  <fix>3d</fix>
</trkpt>
<trkpt lat="-35.362881" lon="149.165222">
  <ele>669.21</ele>
  <time>2026-08-27T18:27:52Z</time>
  <course>93.82</course>
  <speed>0.022360679774997897</speed>
  <fix>3d</fix>
</trkpt>
<trkpt lat="-35.3628809" lon="149.1652222">
  <ele>668.59</ele>
  <time>2026-08-27T18:27:52Z</time>
  <course>57.75</course>
  <speed>0.0</speed>
  <fix>3d</fix>
</trkpt>
<trkpt lat="-35.362881" lon="149.165222">
  <ele>669.71</ele>
  <time>2026-08-27T18:27:52Z</time>
  <course>93.82</course>
  <speed>0.022360679774997897</speed>
  <fix>3d</fix>
</trkpt>
<trkpt lat="-35.3628809" lon="149.1652222">
  <ele>669.09</ele>
  <time>2026-08-27T18:27:52Z</time>
  <course>61.81</course>
  <speed>0.0</speed>
  <fix>3d</fix>
</trkpt>
<trkpt lat="-35.362881" lon="149.165222">
  <ele>670.21</ele>
  <time>2026-08-27T18:27:52Z</time>
  <course>93.85</course>
  <speed>0.022360679774997897</speed>
  <fix>3d</fix>
</trkpt>
<trkpt lat="-35.3628809" lon="149.1652222">
  <ele>669.6</ele>
  <time>2026-08-27T18:27:52Z</time>
  <course>74.31</course>
  <speed>0.0</speed>
  <fix>3d</fix>
</trkpt>
<trkpt lat="-35.362881" lon="149.165222">
  <ele>670.71</ele>
  <time>2026-08-27T18:27:52Z</time>
  <course>93.87</course>
  <speed>0.022360679774997897</speed>
  <fix>3d</fix>
</trkpt>
<trkpt lat="-35.3628809" lon="149.1652222">
  <ele>670.1</ele>
  <time>2026-08-27T18:27:52Z</time>
  <course>91.36</course>
  <speed>0.0</speed>
  <fix>3d</fix>
</trkpt>
<trkpt lat="-35.362881" lon="149.165222">
  <ele>671.21</ele>
  <time>2026-08-27T18:27:52Z</time>
  <course>93.86</course>
  <speed>0.022360679774997897</speed>
  <fix>3d</fix>
</trkpt>
<trkpt lat="-35.3628809" lon="149.1652222">
  <ele>670.6</ele>
  <time>2026-08-27T18:27:52Z</time>
  <course>105.81</course>
  <speed>0.0</speed>
  <fix>3d</fix>
</trkpt>
<trkpt lat="-35.362881" lon="149.165222">
  <ele>671.72</ele>
  <time>2026-08-27T18:27:52Z</time>
  <course>93.89</course>
  <speed>0.022360679774997897</speed>
  <fix>3d</fix>
</trkpt>
<trkpt lat="-35.3628809" lon="149.1652222">
  <ele>671.11</ele>
  <time>2026-08-27T18:27:52Z</time>
  <course>115.23</course>
  <speed>0.0</speed>
  <fix>3d</fix>
</trkpt>
<trkpt lat="-35.362881" lon="149.165222">
  <ele>672.22</ele>
  <time>2026-08-27T18:27:52Z</time>
  <course>93.89</course>
  <speed>0.022360679774997897</speed>
  <fix>3d</fix>
</trkpt>
<trkpt lat="-35.3628809" lon="149.1652222">
  <ele>671.61</ele>
  <time>2026-08-27T18:27:52Z</time>
  <course>126.06</course>
  <speed>0.0</speed>
  <fix>3d</fix>
</trkpt>
<trkpt lat="-35.362881" lon="149.165222">
  <ele>672.72</ele>
  <time>2026-08-27T18:27:52Z</time>
  <course>93.91</course>
  <speed>0.022360679774997897</speed>
  <fix>3d</fix>
</trkpt>
<trkpt lat="-35.3628809" lon="149.1652222">
  <ele>672.11</ele>
  <time>2026-08-27T18:27:52Z</time>
  <course>138.06</course>
  <speed>0.0</speed>
  <fix>3d</fix>
</trkpt>
<trkpt lat="-35.362881" lon="149.165222">
  <ele>673.22</ele>
  <time>2026-08-27T18:27:52Z</time>
  <course>93.91</course>
  <speed>0.022360679774997897</speed>
  <fix>3d</fix>
</trkpt>
<trkpt lat="-35.3628809" lon="149.1652222">
  <ele>672.61</ele>
  <time>2026-08-27T18:27:52Z</time>
  <course>147.11</course>
  <speed>0.0</speed>
  <fix>3d</fix>
</trkpt>
<trkpt lat="-35.362881" lon="149.165222">
  <ele>673.73</ele>
  <time>2026-08-27T18:27:52Z</time>
  <course>93.92</course>
  <speed>0.022360679774997897</speed>
  <fix>3d</fix>
</trkpt>
<trkpt lat="-35.3628809" lon="149.1652222">
  <ele>673.11</ele>
  <time>2026-08-27T18:27:52Z</time>
  <course>152.61</course>
  <speed>0.0</speed>
  <fix>3d</fix>
</trkpt>
<trkpt lat="-35.362881" lon="149.165222">
  <ele>674.24</ele>
  <time>2026-08-27T18:27:52Z</time>
  <course>93.92</course>
  <speed>0.022360679774997897</speed>
  <fix>3d</fix>
</trkpt>
<trkpt lat="-35.3628809" lon="149.1652222">
  <ele>673.61</ele>
  <time>2026-08-27T18:27:52Z</time>
  <course>155.79</course>
  <speed>0.0</speed>
  <fix>3d</fix>
</trkpt>
<trkpt lat="-35.362881" lon="149.165222">
  <ele>674.74</ele>
  <time>2026-08-27T18:27:52Z</time>
  <course>93.95</course>
  <speed>0.022360679774997897</speed>
  <fix>3d</fix>
</trkpt>
<trkpt lat="-35.3628809" lon="149.1652223">
  <ele>674.11</ele>
  <time>2026-08-27T18:27:52Z</time>
  <course>156.15</course>
  <speed>0.0</speed>
  <fix>3d</fix>
</trkpt>
<trkpt lat="-35.362881" lon="149.165222">
  <ele>675.24</ele>
  <time>2026-08-27T18:27:52Z</time>
  <course>93.95</course>
  <speed>0.022360679774997897</speed>
  <fix>3d</fix>
</trkpt>
<trkpt lat="-35.3628809" lon="149.1652224">
  <ele>674.61</ele>
  <time>2026-08-27T18:27:52Z</time>
  <course>156.13</course>
  <speed>0.0</speed>
  <fix>3d</fix>
</trkpt>
<trkpt lat="-35.362881" lon="149.165222">
  <ele>675.73</ele>
  <time>2026-08-27T18:27:52Z</time>
  <course>93.96</course>
  <speed>0.022360679774997897</speed>
  <fix>3d</fix>
</trkpt>
<trkpt lat="-35.3628809" lon="149.1652224">
  <ele>675.11</ele>
  <time>2026-08-27T18:27:52Z</time>
  <course>158.55</course>
  <speed>0.0</speed>
  <fix>3d</fix>
</trkpt>
<trkpt lat="-35.362881" lon="149.165222">
  <ele>676.23</ele>
  <time>2026-08-27T18:27:52Z</time>
  <course>93.96</course>
  <speed>0.022360679774997897</speed>
  <fix>3d</fix>
</trkpt>
<trkpt lat="-35.3628809" lon="149.1652224">
  <ele>675.61</ele>
  <time>2026-08-27T18:27:52Z</time>
  <course>163.54</course>
  <speed>0.0</speed>
  <fix>3d</fix>
</trkpt>
<trkpt lat="-35.362881" lon="149.165222">
  <ele>676.73</ele>
  <time>2026-08-27T18:27:52Z</time>
  <course>93.97</course>
  <speed>0.022360679774997897</speed>
  <fix>3d</fix>
</trkpt>
<trkpt lat="-35.3628809" lon="149.1652224">
  <ele>676.1</ele>
  <time>2026-08-27T18:27:52Z</time>
  <course>170.07</course>
  <speed>0.0</speed>
  <fix>3d</fix>
</trkpt>
<trkpt lat="-35.362881" lon="149.165222">
  <ele>677.23</ele>
  <time>2026-08-27T18:27:52Z</time>
  <course>93.99</course>
  <speed>0.022360679774997897</speed>
  <fix>3d</fix>
</trkpt>
<trkpt lat="-35.3628809" lon="149.1652224">
  <ele>676.6</ele>
  <time>2026-08-27T18:27:52Z</time>
  <course>179.08</course>
  <speed>0.0</speed>
  <fix>3d</fix>
</trkpt>
<trkpt lat="-35.362881" lon="149.165222">
  <ele>677.73</ele>
  <time>2026-08-27T18:27:52Z</time>
  <course>93.98</course>
  <speed>0.022360679774997897</speed>
  <fix>3d</fix>
</trkpt>
<trkpt lat="-35.3628809" lon="149.1652224">
  <ele>677.1</ele>
  <time>2026-08-27T18:27:52Z</time>
  <course>192.33</course>
  <speed>0.0</speed>
  <fix>3d</fix>
</trkpt>
<trkpt lat="-35.362881" lon="149.165222">
  <ele>678.22</ele>
  <time>2026-08-27T18:27:52Z</time>
  <course>93.98</course>
  <speed>0.022360679774997897</speed>
  <fix>3d</fix>
</trkpt>
<trkpt lat="-35.3628809" lon="149.1652224">
  <ele>677.59</ele>
  <time>2026-08-27T18:27:52Z</time>
  <course>203.94</course>
  <speed>0.0</speed>
  <fix>3d</fix>
</trkpt>
<trkpt lat="-35.362881" lon="149.165222">
  <ele>678.71</ele>
  <time>2026-08-27T18:27:52Z</time>
  <course>93.97</course>
  <speed>0.022360679774997897</speed>
  <fix>3d</fix>
</trkpt>
<trkpt lat="-35.362881" lon="149.1652224">
  <ele>678.09</ele>
  <time>2026-08-27T18:27:52Z</time>
  <course>211.31</course>
  <speed>0.0</speed>
  <fix>3d</fix>
</trkpt>
<trkpt lat="-35.362881" lon="149.165222">
  <ele>679.21</ele>
  <time>2026-08-27T18:27:52Z</time>
  <course>94.03</course>
  <speed>0.022360679774997897</speed>
  <fix>3d</fix>
</trkpt>
<trkpt lat="-35.362881" lon="149.1652224">
  <ele>678.59</ele>
  <time>2026-08-27T18:27:52Z</time>
  <course>217.81</course>
  <speed>0.0</speed>
  <fix>3d</fix>
</trkpt>
<trkpt lat="-35.362881" lon="149.165222">
  <ele>679.7</ele>
  <time>2026-08-27T18:27:52Z</time>
  <course>94.39</course>
  <speed>0.022360679774997897</speed>
  <fix>3d</fix>
</trkpt>
<trkpt lat="-35.362881" lon="149.1652224">
  <ele>679.08</ele>
  <time>2026-08-27T18:27:52Z</time>
  <course>229.48</course>
  <speed>0.0</speed>
  <fix>3d</fix>
</trkpt>
<trkpt lat="-35.362881" lon="149.165222">
  <ele>680.16</ele>
  <time>2026-08-27T18:27:52Z</time>
  <course>94.83</course>
  <speed>0.022360679774997897</speed>
  <fix>3d</fix>
</trkpt>
<trkpt lat="-35.362881" lon="149.1652224">
  <ele>679.56</ele>
  <time>2026-08-27T18:27:52Z</time>
  <course>241.29</course>
  <speed>0.0</speed>
  <fix>3d</fix>
</trkpt>
<trkpt lat="-35.362881" lon="149.165222">
  <ele>680.58</ele>
  <time>2026-08-27T18:27:52Z</time>
  <course>95.25</course>
  <speed>0.022360679774997897</speed>
  <fix>3d</fix>
</trkpt>
<trkpt lat="-35.362881" lon="149.1652224">
  <ele>680.0</ele>
  <time>2026-08-27T18:27:52Z</time>
  <course>238.11</course>
  <speed>0.0</speed>
  <fix>3d</fix>
</trkpt>
<trkpt lat="-35.3628811" lon="149.165222">
  <ele>680.96</ele>
  <time>2026-08-27T18:27:52Z</time>
  <course>95.65</course>
  <speed>0.022360679774997897</speed>
  <fix>3d</fix>
</trkpt>
<trkpt lat="-35.362881" lon="149.1652224">
  <ele>680.41</ele>
  <time>2026-08-27T18:27:52Z</time>
  <course>219.2</course>
  <speed>0.0</speed>
  <fix>3d</fix>
</trkpt>
<trkpt lat="-35.3628811" lon="149.165222">
  <ele>681.29</ele>
  <time>2026-08-27T18:27:52Z</time>
  <course>96.01</course>
  <speed>0.0282842712474619</speed>
  <fix>3d</fix>
</trkpt>
<trkpt lat="-35.362881" lon="149.1652224">
  <ele>680.78</ele>
  <time>2026-08-27T18:27:52Z</time>
  <course>199.16</course>
  <speed>0.01</speed>
  <fix>3d</fix>
</trkpt>
<trkpt lat="-35.3628811" lon="149.1652221">
  <ele>681.58</ele>
  <time>2026-08-27T18:27:52Z</time>
  <course>96.33</course>
  <speed>0.0316227766016838</speed>
  <fix>3d</fix>
</trkpt>
<trkpt lat="-35.362881" lon="149.1652224">
  <ele>681.09</ele>
  <time>2026-08-27T18:27:52Z</time>
  <course>187.82</course>
  <speed>0.01</speed>
  <fix>3d</fix>
</trkpt>
<trkpt lat="-35.3628811" lon="149.1652221">
  <ele>681.82</ele>
  <time>2026-08-27T18:27:52Z</time>
  <course>96.62</course>
  <speed>0.0316227766016838</speed>
  <fix>3d</fix>
</trkpt>
<trkpt lat="-35.362881" lon="149.1652224">
  <ele>681.36</ele>
  <time>2026-08-27T18:27:52Z</time>
  <course>182.54</course>
  <speed>0.02</speed>
  <fix>3d</fix>
</trkpt>
<trkpt lat="-35.3628812" lon="149.1652221">
  <ele>682.01</ele>
  <time>2026-08-27T18:27:52Z</time>
  <course>96.88</course>
  <speed>0.0412310562561766</speed>
  <fix>3d</fix>
</trkpt>
<trkpt lat="-35.3628811" lon="149.1652224">
  <ele>681.59</ele>
  <time>2026-08-27T18:27:52Z</time>
  <course>180.32</course>
  <speed>0.03</speed>
  <fix>3d</fix>
</trkpt>
<trkpt lat="-35.3628813" lon="149.1652221">
  <ele>682.16</ele>
  <time>2026-08-27T18:27:52Z</time>
  <course>97.12</course>
  <speed>0.05099019513592785</speed>
  <fix>3d</fix>
</trkpt>
<trkpt lat="-35.3628811" lon="149.1652224">
  <ele>681.78</ele>
  <time>2026-08-27T18:27:52Z</time>
  <course>179.55</course>
  <speed>0.03</speed>
  <fix>3d</fix>
</trkpt>
<trkpt lat="-35.3628813" lon="149.1652221">
  <ele>682.27</ele>
  <time>2026-08-27T18:27:52Z</time>
  <course>97.33</course>
  <speed>0.05099019513592785</speed>
  <fix>3d</fix>
</trkpt>
<trkpt lat="-35.3628812" lon="149.1652224">
  <ele>681.92</ele>
  <time>2026-08-27T18:27:52Z</time>
  <course>179.5</course>
  <speed>0.04</speed>
  <fix>3d</fix>
</trkpt>
<trkpt lat="-35.3628814" lon="149.1652221">
  <ele>682.34</ele>
  <time>2026-08-27T18:27:52Z</time>
  <course>97.54</course>
  <speed>0.06082762530298219</speed>
  <fix>3d</fix>
</trkpt>
<trkpt lat="-35.3628813" lon="149.1652224">
  <ele>682.02</ele>
  <time>2026-08-27T18:27:52Z</time>
  <course>179.83</course>
  <speed>0.05</speed>
  <fix>3d</fix>
</trkpt>
<trkpt lat="-35.3628815" lon="149.1652221">
  <ele>682.37</ele>
  <time>2026-08-27T18:27:52Z</time>
  <course>97.78</course>
  <speed>0.06082762530298219</speed>
  <fix>3d</fix>
</trkpt>
<trkpt lat="-35.3628814" lon="149.1652224">
  <ele>682.07</ele>
  <time>2026-08-27T18:27:52Z</time>
  <course>180.43</course>
  <speed>0.05</speed>
  <fix>3d</fix>
</trkpt>
<trkpt lat="-35.3628816" lon="149.1652221">
  <ele>682.36</ele>
  <time>2026-08-27T18:27:52Z</time>
  <course>102.28</course>
  <speed>0.07071067811865475</speed>
  <fix>3d</fix>
</trkpt>
<trkpt lat="-35.3628815" lon="149.1652224">
  <ele>682.1</ele>
  <time>2026-08-27T18:27:52Z</time>
  <course>180.2</course>
  <speed>0.05</speed>
  <fix>3d</fix>
</trkpt>
<trkpt lat="-35.3628817" lon="149.1652221">
  <ele>682.32</ele>
  <time>2026-08-27T18:27:52Z</time>
  <course>101.17</course>
  <speed>0.06082762530298219</speed>
  <fix>3d</fix>
</trkpt>
<trkpt lat="-35.3628816" lon="149.1652224">
  <ele>682.08</ele>
  <time>2026-08-27T18:27:52Z</time>
  <course>179.99</course>
  <speed>0.05</speed>
  <fix>3d</fix>
</trkpt>
<trkpt lat="-35.3628818" lon="149.1652221">
  <ele>682.29</ele>
  <time>2026-08-27T18:27:52Z</time>
  <course>100.91</course>
  <speed>0.0670820393249937</speed>
  <fix>3d</fix>
</trkpt>
<trkpt lat="-35.3628817" lon="149.1652224">
  <ele>682.06</ele>
  <time>2026-08-27T18:27:52Z</time>
  <course>187.29</course>
  <speed>0.05</speed>
  <fix>3d</fix>
</trkpt>
<trkpt lat="-35.3628819" lon="149.1652221">
  <ele>682.25</ele>
  <time>2026-08-27T18:27:52Z</time>
  <course>100.76</course>
  <speed>0.11401754250991379</speed>
  <fix>3d</fix>
</trkpt>
<trkpt lat="-35.3628818" lon="149.1652223">
  <ele>682.03</ele>
  <time>2026-08-27T18:27:52Z</time>
  <course>214.38</course>
  <speed>0.06</speed>
  <fix>3d</fix>
</trkpt>
<trkpt lat="-35.3628821" lon="149.1652218">
  <ele>682.23</ele>
  <time>2026-08-27T18:27:52Z</time>
  <course>100.71</course>
  <speed>0.2195449840010015</speed>
  <fix>3d</fix>
</trkpt>
<trkpt lat="-35.3628819" lon="149.1652222">
  <ele>682.01</ele>
  <time>2026-08-27T18:27:52Z</time>
  <course>233.82</course>
  <speed>0.13</speed>
  <fix>3d</fix>
</trkpt>
<trkpt lat="-35.3628823" lon="149.1652213">
  <ele>682.22</ele>
  <time>2026-08-27T18:27:52Z</time>
  <course>100.67</course>
  <speed>0.38078865529319544</speed>
  <fix>3d</fix>
</trkpt>
<trkpt lat="-35.3628821" lon="149.1652218">
  <ele>681.99</ele>
  <time>2026-08-27T18:27:52Z</time>
  <course>237.69</course>
  <speed>0.25</speed>
  <fix>3d</fix>
</trkpt>
<trkpt lat="-35.3628827" lon="149.1652205">
  <ele>682.21</ele>
  <time>2026-08-27T18:27:52Z</time>
  <course>100.64</course>
  <speed>0.574543296888929</speed>
  <fix>3d</fix>
</trkpt>
<trkpt lat="-35.3628825" lon="149.1652212">
  <ele>681.98</ele>
  <time>2026-08-27T18:27:52Z</time>
  <course>236.96</course>
  <speed>0.42</speed>
  <fix>3d</fix>
</trkpt>
<trkpt lat="-35.3628834" lon="149.1652192">
  <ele>682.2</ele>
  <time>2026-08-27T18:27:52Z</time>
  <course>100.6</course>
  <speed>0.8099382692526634</speed>
  <fix>3d</fix>
</trkpt>
<trkpt lat="-35.3628829" lon="149.1652202">
  <ele>681.98</ele>
  <time>2026-08-27T18:27:52Z</time>
  <course>235.37</course>
  <speed>0.62</speed>
  <fix>3d</fix>
</trkpt>
<trkpt lat="-35.3628843" lon="149.1652176">
  <ele>682.19</ele>
  <time>2026-08-27T18:27:52Z</time>
  <course>100.53</course>
  <speed>1.0568348972285122</speed>
  <fix>3d</fix>
</trkpt>
<trkpt lat="-35.3628837" lon="149.1652189">
  <ele>681.98</ele>
  <time>2026-08-27T18:27:52Z</time>
  <course>233.91</course>
  <speed>0.86</speed>
  <fix>3d</fix>
</trkpt>
<trkpt lat="-35.3628855" lon="149.1652156">
  <ele>682.18</ele>
  <time>2026-08-27T18:27:52Z</time>
  <course>107.56</course>
  <speed>1.2841339493993607</speed>
  <fix>3d</fix>
</trkpt>
<trkpt lat="-35.3628847" lon="149.1652172">
  <ele>681.98</ele>
  <time>2026-08-27T18:27:52Z</time>
  <course>233.85</course>
  <speed>1.1</speed>
  <fix>3d</fix>
</trkpt>
<trkpt lat="-35.362887" lon="149.1652131">
  <ele>682.18</ele>
  <time>2026-08-27T18:27:52Z</time>
  <course>120.73</course>
  <speed>1.5682155464093577</speed>
  <fix>3d</fix>
</trkpt>
<trkpt lat="-35.3628861" lon="149.165215">
  <ele>681.98</ele>
  <time>2026-08-27T18:27:52Z</time>
  <course>233.18</course>
  <speed>1.35</speed>
  <fix>3d</fix>
</trkpt>
<trkpt lat="-35.3628888" lon="149.1652102">
  <ele>682.18</ele>
  <time>2026-08-27T18:27:52Z</time>
  <course>132.34</course>
  <speed>1.8491078930121951</speed>
  <fix>3d</fix>
</trkpt>
<trkpt lat="-35.3628877" lon="149.1652124">
  <ele>681.98</ele>
  <time>2026-08-27T18:27:52Z</time>
  <course>231.04</course>
  <speed>1.63</speed>
  <fix>3d</fix>
</trkpt>
<trkpt lat="-35.3628912" lon="149.165207">
  <ele>682.18</ele>
  <time>2026-08-27T18:27:52Z</time>
  <course>143.83</course>
  <speed>2.1467417171145673</speed>
  <fix>3d</fix>
</trkpt>
<trkpt lat="-35.3628898" lon="149.1652093">
  <ele>681.99</ele>
  <time>2026-08-27T18:27:52Z</time>
  <course>228.66</course>
  <speed>1.92</speed>
  <fix>3d</fix>
</trkpt>
<trkpt lat="-35.362894" lon="149.1652034">
  <ele>682.17</ele>
  <time>2026-08-27T18:27:52Z</time>
  <course>155.35</course>
  <speed>2.4752373623553763</speed>
  <fix>3d</fix>
</trkpt>
<trkpt lat="-35.3628923" lon="149.165206">
  <ele>681.99</ele>
  <time>2026-08-27T18:27:52Z</time>
  <course>226.25</course>
  <speed>2.22</speed>
  <fix>3d</fix>
</trkpt>
<trkpt lat="-35.3628975" lon="149.1651994">
  <ele>682.17</ele>
  <time>2026-08-27T18:27:52Z</time>
  <course>166.87</course>
  <speed>2.8644894833111185</speed>
  <fix>3d</fix>
</trkpt>
<trkpt lat="-35.3628954" lon="149.1652022">
  <ele>681.99</ele>
  <time>2026-08-27T18:27:52Z</time>
  <course>224.08</course>
  <speed>2.57</speed>
  <fix>3d</fix>
</trkpt>
<trkpt lat="-35.3629015" lon="149.1651949">
  <ele>682.16</ele>
  <time>2026-08-27T18:27:52Z</time>
  <course>178.44</course>
  <speed>3.31291412505667</speed>
  <fix>3d</fix>
</trkpt>
<trkpt lat="-35.362899" lon="149.1651981">
  <ele>681.99</ele>
  <time>2026-08-27T18:27:52Z</time>
  <course>222.39</course>
  <speed>2.97</speed>
  <fix>3d</fix>
</trkpt>
<trkpt lat="-35.3629063" lon="149.1651899">
  <ele>682.16</ele>
  <time>2026-08-27T18:27:52Z</time>
  <course>190.17</course>
  <speed>3.8109578848368297</speed>
  <fix>3d</fix>
</trkpt>
<trkpt lat="-35.3629033" lon="149.1651934">
  <ele>681.98</ele>
  <time>2026-08-27T18:27:52Z</time>
  <course>221.32</course>
  <speed>3.43</speed>
  <fix>3d</fix>
</trkpt>
<trkpt lat="-35.3629117" lon="149.1651841">
  <ele>682.14</ele>
  <time>2026-08-27T18:27:52Z</time>
  <course>202.25</course>
  <speed>4.342453223697407</speed>
  <fix>3d</fix>
</trkpt>
<trkpt lat="-35.3629083" lon="149.1651881">
  <ele>681.97</ele>
  <time>2026-08-27T18:27:52Z</time>
  <course>220.95</course>
  <speed>3.94</speed>
  <fix>3d</fix>
</trkpt>
<trkpt lat="-35.3629179" lon="149.1651774">
  <ele>682.13</ele>
  <time>2026-08-27T18:27:52Z</time>
  <course>214.64</course>
  <speed>4.8990815465758475</speed>
  <fix>3d</fix>
</trkpt>
<trkpt lat="-35.3629139" lon="149.165182">
  <ele>681.96</ele>
  <time>2026-08-27T18:27:52Z</time>
  <course>221.26</course>
  <speed>4.48</speed>
  <fix>3d</fix>
</trkpt>
<trkpt lat="-35.3629247" lon="149.1651698">
  <ele>682.13</ele>
  <time>2026-08-27T18:27:52Z</time>
  <course>223.25</course>
  <speed>5.445622094857483</speed>
  <fix>3d</fix>
</trkpt>
<trkpt lat="-35.3629203" lon="149.165175">
  <ele>681.96</ele>
  <time>2026-08-27T18:27:52Z</time>
  <course>222.39</course>
  <speed>5.04</speed>
  <fix>3d</fix>
</trkpt>
<trkpt lat="-35.3629319" lon="149.1651611">
  <ele>682.13</ele>
  <time>2026-08-27T18:27:52Z</time>
  <course>223.46</course>
  <speed>5.946805865336449</speed>
  <fix>3d</fix>
</trkpt>
<trkpt lat="-35.3629273" lon="149.165167">
  <ele>681.95</ele>
  <time>2026-08-27T18:27:52Z</time>
  <course>223.92</course>
  <speed>5.58</speed>
  <fix>3d</fix>
</trkpt>
<trkpt lat="-35.3629396" lon="149.1651516">
  <ele>682.14</ele>
  <time>2026-08-27T18:27:52Z</time>
  <course>224.01</course>
  <speed>6.407651675926212</speed>
  <fix>3d</fix>
</trkpt>
<trkpt lat="-35.3629348" lon="149.1651579">
  <ele>681.95</ele>
  <time>2026-08-27T18:27:52Z</time>
  <course>225.21</course>
  <speed>6.08</speed>
  <fix>3d</fix>
</trkpt>
<trkpt lat="-35.3629477" lon="149.1651413">
  <ele>682.15</ele>
  <time>2026-08-27T18:27:52Z</time>
  <course>224.93</course>
  <speed>6.813934252691318</speed>
  <fix>3d</fix>
</trkpt>
<trkpt lat="-35.3629427" lon="149.1651479">
  <ele>681.96</ele>
  <time>2026-08-27T18:27:52Z</time>
  <course>226.29</course>
  <speed>6.53</speed>
  <fix>3d</fix>
</trkpt>
<trkpt lat="-35.3629561" lon="149.16513">
  <ele>682.15</ele>
  <time>2026-08-27T18:27:53Z</time>
  <course>225.92</course>
  <speed>7.208467243457516</speed>
  <fix>3d</fix>
</trkpt>
<trkpt lat="-35.362951" lon="149.1651371">
  <ele>681.97</ele>
  <time>2026-08-27T18:27:53Z</time>
  <course>227.33</course>
  <speed>6.95</speed>
  <fix>3d</fix>
</trkpt>
<trkpt lat="-35.3629649" lon="149.165118">
  <ele>682.16</ele>
  <time>2026-08-27T18:27:53Z</time>
  <course>226.81</course>
  <speed>7.576575743698469</speed>
  <fix>3d</fix>
</trkpt>
<trkpt lat="-35.3629597" lon="149.1651254">
  <ele>681.98</ele>
  <time>2026-08-27T18:27:53Z</time>
  <course>228.32</course>
  <speed>7.35</speed>
  <fix>3d</fix>
</trkpt>
<trkpt lat="-35.3629739" lon="149.1651052">
  <ele>682.16</ele>
  <time>2026-08-27T18:27:53Z</time>
  <course>227.71</course>
  <speed>7.918080575493028</speed>
  <fix>3d</fix>
</trkpt>
<trkpt lat="-35.3629686" lon="149.1651129">
  <ele>681.98</ele>
  <time>2026-08-27T18:27:53Z</time>
  <course>229.25</course>
  <speed>7.72</speed>
  <fix>3d</fix>
</trkpt>
<trkpt lat="-35.3629832" lon="149.1650916">
  <ele>682.17</ele>
  <time>2026-08-27T18:27:53Z</time>
  <course>228.63</course>
  <speed>8.22515653346488</speed>
  <fix>3d</fix>
</trkpt>
<trkpt lat="-35.3629777" lon="149.1650996">
  <ele>681.99</ele>
  <time>2026-08-27T18:27:53Z</time>
  <course>230.06</course>
  <speed>8.06</speed>
  <fix>3d</fix>
</trkpt>
<trkpt lat="-35.3629926" lon="149.1650775">
  <ele>682.18</ele>
  <time>2026-08-27T18:27:53Z</time>
  <course>229.56</course>
  <speed>8.467898204395233</speed>
  <fix>3d</fix>
</trkpt>
<trkpt lat="-35.3629872" lon="149.1650857">
  <ele>682.0</ele>
  <time>2026-08-27T18:27:53Z</time>
  <course>230.75</course>
  <speed>8.35</speed>
  <fix>3d</fix>
</trkpt>
<trkpt lat="-35.3630023" lon="149.1650627">
  <ele>682.2</ele>
  <time>2026-08-27T18:27:53Z</time>
  <course>230.44</course>
  <speed>8.675488458870774</speed>
  <fix>3d</fix>
</trkpt>
<trkpt lat="-35.3629968" lon="149.1650712">
  <ele>682.02</ele>
  <time>2026-08-27T18:27:53Z</time>
  <course>231.32</course>
  <speed>8.6</speed>
  <fix>3d</fix>
</trkpt>
<trkpt lat="-35.3630121" lon="149.1650475">
  <ele>682.22</ele>
  <time>2026-08-27T18:27:53Z</time>
  <course>231.26</course>
  <speed>8.838218146210242</speed>
  <fix>3d</fix>
</trkpt>
<trkpt lat="-35.3630065" lon="149.1650561">
  <ele>682.04</ele>
  <time>2026-08-27T18:27:53Z</time>
  <course>231.8</course>
  <speed>8.79</speed>
  <fix>3d</fix>
</trkpt>
<trkpt lat="-35.3630219" lon="149.1650319">
  <ele>682.23</ele>
  <time>2026-08-27T18:27:53Z</time>
  <course>231.99</course>
  <speed>8.959157326445384</speed>
  <fix>3d</fix>
</trkpt>
<trkpt lat="-35.3630163" lon="149.1650407">
  <ele>682.07</ele>
  <time>2026-08-27T18:27:53Z</time>
  <course>232.2</course>
  <speed>8.94</speed>
  <fix>3d</fix>
</trkpt>
<trkpt lat="-35.3630319" lon="149.1650161">
  <ele>682.25</ele>
  <time>2026-08-27T18:27:53Z</time>
  <course>232.57</course>
  <speed>9.062742410551014</speed>
  <fix>3d</fix>
</trkpt>
<trkpt lat="-35.3630262" lon="149.165025">
  <ele>682.08</ele>
  <time>2026-08-27T18:27:53Z</time>
  <course>232.5</course>
  <speed>9.05</speed>
  <fix>3d</fix>
</trkpt>
<trkpt lat="-35.3630419" lon="149.165">
  <ele>682.27</ele>
  <time>2026-08-27T18:27:53Z</time>
  <course>233.03</course>
  <speed>9.130443581776298</speed>
  <fix>3d</fix>
</trkpt>
<trkpt lat="-35.3630361" lon="149.1650091">
  <ele>682.11</ele>
  <time>2026-08-27T18:27:53Z</time>
  <course>232.72</course>
  <speed>9.14</speed>
  <fix>3d</fix>
</trkpt>
<trkpt lat="-35.3630519" lon="149.1649839">
  <ele>682.28</ele>
  <time>2026-08-27T18:27:53Z</time>
  <course>233.36</course>
  <speed>9.166422420988463</speed>
  <fix>3d</fix>
</trkpt>
<trkpt lat="-35.3630461" lon="149.1649929">
  <ele>682.12</ele>
  <time>2026-08-27T18:27:53Z</time>
  <course>232.83</course>
  <speed>9.19</speed>
  <fix>3d</fix>
</trkpt>
<trkpt lat="-35.3630619" lon="149.1649677">
  <ele>682.29</ele>
  <time>2026-08-27T18:27:53Z</time>
  <course>233.56</course>
  <speed>9.186522737140534</speed>
  <fix>3d</fix>
</trkpt>
<trkpt lat="-35.363056" lon="149.1649768">
  <ele>682.13</ele>
  <time>2026-08-27T18:27:53Z</time>
  <course>232.84</course>
  <speed>9.22</speed>
  <fix>3d</fix>
</trkpt>
<trkpt lat="-35.363072" lon="149.1649515">
  <ele>682.3</ele>
  <time>2026-08-27T18:27:53Z</time>
  <course>233.63</course>
  <speed>9.190783426890222</speed>
  <fix>3d</fix>
</trkpt>
<trkpt lat="-35.3630661" lon="149.1649606">
  <ele>682.14</ele>
  <time>2026-08-27T18:27:53Z</time>
  <course>232.75</course>
  <speed>9.23</speed>
  <fix>3d</fix>
</trkpt>
<trkpt lat="-35.3630821" lon="149.1649353">
  <ele>682.29</ele>
  <time>2026-08-27T18:27:53Z</time>
  <course>233.58</course>
  <speed>9.171395749830012</speed>
  <fix>3d</fix>
</trkpt>
<trkpt lat="-35.3630761" lon="149.1649444">
  <ele>682.15</ele>
  <time>2026-08-27T18:27:53Z</time>
  <course>232.57</course>
  <speed>9.21</speed>
  <fix>3d</fix>
</trkpt>
<trkpt lat="-35.3630922" lon="149.1649194">
  <ele>682.29</ele>
  <time>2026-08-27T18:27:53Z</time>
  <course>233.43</course>
  <speed>9.136459927127136</speed>
  <fix>3d</fix>
</trkpt>
<trkpt lat="-35.3630862" lon="149.1649284">
  <ele>682.16</ele>
  <time>2026-08-27T18:27:53Z</time>
  <course>232.31</course>
  <speed>9.18</speed>
  <fix>3d</fix>
</trkpt>
<trkpt lat="-35.3631023" lon="149.1649035">
  <ele>682.29</ele>
  <time>2026-08-27T18:27:53Z</time>
  <course>233.15</course>
  <speed>9.101829486427441</speed>
  <fix>3d</fix>
</trkpt>
<trkpt lat="-35.3630963" lon="149.1649124">
  <ele>682.16</ele>
  <time>2026-08-27T18:27:53Z</time>
  <course>231.98</course>
  <speed>9.14</speed>
  <fix>3d</fix>
</trkpt>
<trkpt lat="-35.3631126" lon="149.1648877">
  <ele>682.28</ele>
  <time>2026-08-27T18:27:53Z</time>
  <course>232.74</course>
  <speed>9.08784903043619</speed>
  <fix>3d</fix>
</trkpt>
<trkpt lat="-35.3631065" lon="149.1648966">
  <ele>682.16</ele>
  <time>2026-08-27T18:27:53Z</time>
  <course>231.6</course>
  <speed>9.11</speed>
  <fix>3d</fix>
</trkpt>
<trkpt lat="-35.3631229" lon="149.1648719">
  <ele>682.27</ele>
  <time>2026-08-27T18:27:53Z</time>
  <course>232.17</course>
  <speed>9.108786966440702</speed>
  <fix>3d</fix>
</trkpt>
<trkpt lat="-35.3631167" lon="149.1648809">
  <ele>682.15</ele>
  <time>2026-08-27T18:27:53Z</time>
  <course>231.18</course>
  <speed>9.1</speed>
  <fix>3d</fix>
</trkpt>
<trkpt lat="-35.3631333" lon="149.1648563">
  <ele>682.26</ele>
  <time>2026-08-27T18:27:53Z</time>
  <course>231.48</course>
  <speed>9.152076267164736</speed>
  <fix>3d</fix>
</trkpt>
<trkpt lat="-35.363127" lon="149.1648654">
  <ele>682.14</ele>
  <time>2026-08-27T18:27:53Z</time>
  <course>230.71</course>
  <speed>9.12</speed>
  <fix>3d</fix>
</trkpt>
<trkpt lat="-35.3631439" lon="149.1648407">
  <ele>682.24</ele>
  <time>2026-08-27T18:27:53Z</time>
  <course>230.7</course>
  <speed>9.222895423889398</speed>
  <fix>3d</fix>
</trkpt>
<trkpt lat="-35.3631374" lon="149.1648498">
  <ele>682.12</ele>
  <time>2026-08-27T18:27:53Z</time>
  <course>230.2</course>
  <speed>9.17</speed>
  <fix>3d</fix>
</trkpt>
<trkpt lat="-35.3631547" lon="149.1648252">
  <ele>682.22</ele>
  <time>2026-08-27T18:27:53Z</time>
  <course>229.87</course>
  <speed>9.308582061732066</speed>
  <fix>3d</fix>
</trkpt>
<trkpt lat="-35.3631481" lon="149.1648342">
  <ele>682.1</ele>
  <time>2026-08-27T18:27:53Z</time>
  <course>229.66</course>
  <speed>9.24</speed>
  <fix>3d</fix>
</trkpt>
<trkpt lat="-35.3631657" lon="149.1648096">
  <ele>682.21</ele>
  <time>2026-08-27T18:27:53Z</time>
  <course>229.11</course>
  <speed>9.402536891711726</speed>
  <fix>3d</fix>
</trkpt>
<trkpt lat="-35.3631589" lon="149.1648187">
  <ele>682.08</ele>
  <time>2026-08-27T18:27:53Z</time>
  <course>229.12</course>
  <speed>9.32</speed>
  <fix>3d</fix>
</trkpt>
<trkpt lat="-35.363177" lon="149.1647939">
  <ele>682.2</ele>
  <time>2026-08-27T18:27:53Z</time>
  <course>228.45</course>
  <speed>9.504577844386356</speed>
  <fix>3d</fix>
</trkpt>
<trkpt lat="-35.3631701" lon="149.1648032">
  <ele>682.06</ele>
  <time>2026-08-27T18:27:53Z</time>
  <course>228.61</course>
  <speed>9.42</speed>
  <fix>3d</fix>
</trkpt>
<trkpt lat="-35.3631884" lon="149.1647782">
  <ele>682.2</ele>
  <time>2026-08-27T18:27:53Z</time>
  <course>227.92</course>
  <speed>9.600416657624812</speed>
  <fix>3d</fix>
</trkpt>
<trkpt lat="-35.3631814" lon="149.1647876">
  <ele>682.06</ele>
  <time>2026-08-27T18:27:53Z</time>
  <course>228.17</course>
  <speed>9.52</speed>
  <fix>3d</fix>
</trkpt>
<trkpt lat="-35.3632" lon="149.1647625">
  <ele>682.2</ele>
  <time>2026-08-27T18:27:53Z</time>
  <course>227.52</course>
  <speed>9.683150313818329</speed>
  <fix>3d</fix>
</trkpt>
<trkpt lat="-35.3631929" lon="149.1647719">
  <ele>682.06</ele>
  <time>2026-08-27T18:27:53Z</time>
  <course>227.81</course>
  <speed>9.61</speed>
  <fix>3d</fix>
</trkpt>
<trkpt lat="-35.3632117" lon="149.1647467">
  <ele>682.2</ele>
  <time>2026-08-27T18:27:53Z</time>
  <course>227.24</course>
  <speed>9.774052383735214</speed>
  <fix>3d</fix>
</trkpt>
<trkpt lat="-35.3632045" lon="149.1647562">
  <ele>682.06</ele>
  <time>2026-08-27T18:27:53Z</time>
  <course>227.56</course>
  <speed>9.7</speed>
  <fix>3d</fix>
</trkpt>
<trkpt lat="-35.3632236" lon="149.1647308">
  <ele>682.2</ele>
  <time>2026-08-27T18:27:53Z</time>
  <course>227.08</course>
  <speed>9.851466895848557</speed>
  <fix>3d</fix>
</trkpt>
<trkpt lat="-35.3632163" lon="149.1647403">
  <ele>682.06</ele>
  <time>2026-08-27T18:27:53Z</time>
  <course>227.4</course>
  <speed>9.78</speed>
  <fix>3d</fix>
</trkpt>
<trkpt lat="-35.3632357" lon="149.1647146">
  <ele>682.21</ele>
  <time>2026-08-27T18:27:53Z</time>
  <course>227.07</course>
  <speed>9.922116709654246</speed>
  <fix>3d</fix>
</trkpt>
<trkpt lat="-35.3632282" lon="149.1647244">
  <ele>682.07</ele>
  <time>2026-08-27T18:27:53Z</time>
  <course>227.33</course>
  <speed>9.86</speed>
  <fix>3d</fix>
</trkpt>
<trkpt lat="-35.3632478" lon="149.1646985">
  <ele>682.22</ele>
  <time>2026-08-27T18:27:53Z</time>
  <course>227.15</course>
  <speed>9.986596016661533</speed>
  <fix>3d</fix>
</trkpt>
<trkpt lat="-35.3632403" lon="149.1647084">
  <ele>682.07</ele>
  <time>2026-08-27T18:27:53Z</time>
  <course>227.35</course>
  <speed>9.93</speed>
  <fix>3d</fix>
</trkpt>
<trkpt lat="-35.36326" lon="149.1646822">
  <ele>682.23</ele>
  <time>2026-08-27T18:27:53Z</time>
  <course>227.33</course>
  <speed>10.030239279299373</speed>
  <fix>3d</fix>
</trkpt>
<trkpt lat="-35.3632525" lon="149.1646922">
  <ele>682.08</ele>
  <time>2026-08-27T18:27:53Z</time>
  <course>227.45</course>
  <speed>9.99</speed>
  <fix>3d</fix>
</trkpt>
<trkpt lat="-35.3632721" lon="149.1646659">
  <ele>682.23</ele>
  <time>2026-08-27T18:27:53Z</time>
  <course>227.58</course>
  <speed>10.067233979599362</speed>
  <fix>3d</fix>
</trkpt>
<trkpt lat="-35.3632647" lon="149.1646759">
  <ele>682.09</ele>
  <time>2026-08-27T18:27:53Z</time>
  <course>227.6</course>
  <speed>10.04</speed>
  <fix>3d</fix>
</trkpt>
<trkpt lat="-35.3632842" lon="149.1646495">
  <ele>682.24</ele>
  <time>2026-08-27T18:27:53Z</time>
  <course>227.87</course>
  <speed>10.097653192697797</speed>
  <fix>3d</fix>
</trkpt>
<trkpt lat="-35.3632768" lon="149.1646595">
  <ele>682.1</ele>
  <time>2026-08-27T18:27:53Z</time>
  <course>227.81</course>
  <speed>10.08</speed>
  <fix>3d</fix>
</trkpt>
<trkpt lat="-35.3632963" lon="149.1646329">
  <ele>682.24</ele>
  <time>2026-08-27T18:27:53Z</time>
  <course>228.2</course>
  <speed>10.121585844125416</speed>
  <fix>3d</fix>
</trkpt>
<trkpt lat="-35.363289" lon="149.164643">
  <ele>682.11</ele>
  <time>2026-08-27T18:27:53Z</time>
  <course>228.06</course>
  <speed>10.11</speed>
  <fix>3d</fix>
</trkpt>
<trkpt lat="-35.3633083" lon="149.1646163">
  <ele>682.25</ele>
  <time>2026-08-27T18:27:53Z</time>
  <course>228.57</course>
  <speed>10.131633629380802</speed>
  <fix>3d</fix>
</trkpt>
<trkpt lat="-35.3633011" lon="149.1646264">
  <ele>682.12</ele>
  <time>2026-08-27T18:27:53Z</time>
  <course>228.34</course>
  <speed>10.13</speed>
  <fix>3d</fix>
</trkpt>
<trkpt lat="-35.3633203" lon="149.1645996">
  <ele>682.25</ele>
  <time>2026-08-27T18:27:53Z</time>
  <course>228.95</course>
  <speed>10.135344098746721</speed>
  <fix>3d</fix>
</trkpt>
<trkpt lat="-35.3633132" lon="149.1646096">
  <ele>682.13</ele>
  <time>2026-08-27T18:27:53Z</time>
  <course>228.63</course>
  <speed>10.14</speed>
  <fix>3d</fix>
</trkpt>
<trkpt lat="-35.3633322" lon="149.1645828">
  <ele>682.26</ele>
  <time>2026-08-27T18:27:53Z</time>
  <course>229.3</course>
  <speed>10.131796484335835</speed>
  <fix>3d</fix>
</trkpt>
<trkpt lat="-35.3633252" lon="149.1645928">
  <ele>682.13</ele>
  <time>2026-08-27T18:27:53Z</time>
  <course>228.93</course>
  <speed>10.15</speed>
  <fix>3d</fix>
</trkpt>
<trkpt lat="-35.3633441" lon="149.1645659">
  <ele>682.27</ele>
  <time>2026-08-27T18:27:53Z</time>
  <course>229.68</course>
  <speed>10.120894229266503</speed>
  <fix>3d</fix>
</trkpt>
<trkpt lat="-35.3633371" lon="149.1645759">
  <ele>682.14</ele>
  <time>2026-08-27T18:27:53Z</time>
  <course>229.21</course>
  <speed>10.15</speed>
  <fix>3d</fix>
</trkpt>
<trkpt lat="-35.3633559" lon="149.1645489">
  <ele>682.27</ele>
  <time>2026-08-27T18:27:53Z</time>
  <course>230.02</course>
  <speed>10.11017803997536</speed>
  <fix>3d</fix>
</trkpt>
<trkpt lat="-35.363349" lon="149.164559">
  <ele>682.14</ele>
  <time>2026-08-27T18:27:53Z</time>
  <course>229.47</course>
  <speed>10.14</speed>
  <fix>3d</fix>
</trkpt>
<trkpt lat="-35.3633677" lon="149.1645318">
  <ele>682.28</ele>
  <time>2026-08-27T18:27:53Z</time>
  <course>230.31</course>
  <speed>10.091996829171123</speed>
  <fix>3d</fix>
</trkpt>
<trkpt lat="-35.3633608" lon="149.1645419">
  <ele>682.14</ele>
  <time>2026-08-27T18:27:53Z</time>
  <course>229.7</course>
  <speed>10.12</speed>
  <fix>3d</fix>
</trkpt>
<trkpt lat="-35.3633794" lon="149.1645147">
  <ele>682.28</ele>
  <time>2026-08-27T18:27:53Z</time>
  <course>230.59</course>
  <speed>10.06628034578811</speed>
  <fix>3d</fix>
</trkpt>
<trkpt lat="-35.3633726" lon="149.1645249">
  <ele>682.15</ele>
  <time>2026-08-27T18:27:53Z</time>
  <course>229.9</course>
  <speed>10.1</speed>
  <fix>3d</fix>
</trkpt>
<trkpt lat="-35.363391" lon="149.1644977">
  <ele>682.28</ele>
  <time>2026-08-27T18:27:53Z</time>
  <course>230.83</course>
  <speed>10.032970646822406</speed>
  <fix>3d</fix>
</trkpt>
<trkpt lat="-35.3633842" lon="149.1645079">
  <ele>682.14</ele>
  <time>2026-08-27T18:27:53Z</time>
  <course>230.07</course>
  <speed>10.07</speed>
  <fix>3d</fix>
</trkpt>
<trkpt lat="-35.3634026" lon="149.1644807">
  <ele>682.28</ele>
  <time>2026-08-27T18:27:53Z</time>
  <course>230.99</course>
  <speed>10.00610313758558</speed>
  <fix>3d</fix>
</trkpt>
<trkpt lat="-35.3633958" lon="149.1644908">
  <ele>682.14</ele>
  <time>2026-08-27T18:27:53Z</time>
  <course>230.19</course>
  <speed>10.04</speed>
  <fix>3d</fix>
</trkpt>
<trkpt lat="-35.3634141" lon="149.1644638">
  <ele>682.28</ele>
  <time>2026-08-27T18:27:53Z</time>
  <course>231.1</course>
  <speed>9.963859693913799</speed>
  <fix>3d</fix>
</trkpt>
<trkpt lat="-35.3634073" lon="149.1644739">
  <ele>682.14</ele>
  <time>2026-08-27T18:27:53Z</time>
  <course>230.27</course>
  <speed>10.01</speed>
  <fix>3d</fix>
</trkpt>
<trkpt lat="-35.3634255" lon="149.1644469">
  <ele>682.27</ele>
  <time>2026-08-27T18:27:53Z</time>
  <course>231.12</course>
  <speed>9.935698264339553</speed>
  <fix>3d</fix>
</trkpt>
<trkpt lat="-35.3634188" lon="149.1644569">
  <ele>682.13</ele>
  <time>2026-08-27T18:27:53Z</time>
  <course>230.32</course>
  <speed>9.97</speed>
  <fix>3d</fix>
</trkpt>
<trkpt lat="-35.3634369" lon="149.16443">
  <ele>682.26</ele>
  <time>2026-08-27T18:27:53Z</time>
  <course>231.07</course>
  <speed>9.899838382519182</speed>
  <fix>3d</fix>
</trkpt>
<trkpt lat="-35.3634303" lon="149.16444">
  <ele>682.12</ele>
  <time>2026-08-27T18:27:53Z</time>
  <course>230.32</course>
  <speed>9.94</speed>
  <fix>3d</fix>
</trkpt>
<trkpt lat="-35.3634483" lon="149.1644133">
  <ele>682.25</ele>
  <time>2026-08-27T18:27:53Z</time>
  <course>231.0</course>
  <speed>9.87676566493303</speed>
  <fix>3d</fix>
</trkpt>
<trkpt lat="-35.3634416" lon="149.1644233">
  <ele>682.12</ele>
  <time>2026-08-27T18:27:53Z</time>
  <course>230.27</course>
  <speed>9.91</speed>
  <fix>3d</fix>
</trkpt>
<trkpt lat="-35.3634596" lon="149.1643966">
  <ele>682.24</ele>
  <time>2026-08-27T18:27:53Z</time>
  <course>230.87</course>
  <speed>9.854998731608239</speed>
  <fix>3d</fix>
</trkpt>
<trkpt lat="-35.3634529" lon="149.1644064">
  <ele>682.11</ele>
  <time>2026-08-27T18:27:53Z</time>
  <course>230.19</course>
  <speed>9.88</speed>
  <fix>3d</fix>
</trkpt>
<trkpt lat="-35.3634711" lon="149.1643798">
  <ele>682.24</ele>
  <time>2026-08-27T18:27:53Z</time>
  <course>230.68</course>
  <speed>9.838394177913385</speed>
  <fix>3d</fix>
</trkpt>
<trkpt lat="-35.3634644" lon="149.1643897">
  <ele>682.1</ele>
  <time>2026-08-27T18:27:53Z</time>
  <course>230.08</course>
  <speed>9.86</speed>
  <fix>3d</fix>
</trkpt>
<trkpt lat="-35.3634825" lon="149.1643632">
  <ele>682.23</ele>
  <time>2026-08-27T18:27:53Z</time>
  <course>230.49</course>
  <speed>9.821863366999157</speed>
  <fix>3d</fix>
</trkpt>
<trkpt lat="-35.3634758" lon="149.1643732">
  <ele>682.1</ele>
  <time>2026-08-27T18:27:53Z</time>
  <course>229.94</course>
  <speed>9.84</speed>
  <fix>3d</fix>
</trkpt>
<trkpt lat="-35.3634939" lon="149.1643466">
  <ele>682.23</ele>
  <time>2026-08-27T18:27:53Z</time>
  <course>230.27</course>
  <speed>9.819501005651967</speed>
  <fix>3d</fix>
</trkpt>
<trkpt lat="-35.3634871" lon="149.1643566">
  <ele>682.09</ele>
  <time>2026-08-27T18:27:53Z</time>
  <course>229.79</course>
  <speed>9.83</speed>
  <fix>3d</fix>
</trkpt>
<trkpt lat="-35.3635053" lon="149.1643302">
  <ele>682.23</ele>
  <time>2026-08-27T18:27:53Z</time>
  <course>230.04</course>
  <speed>9.809612632515108</speed>
  <fix>3d</fix>
</trkpt>
<trkpt lat="-35.3634986" lon="149.16434">
  <ele>682.09</ele>
  <time>2026-08-27T18:27:53Z</time>
  <course>229.62</course>
  <speed>9.82</speed>
  <fix>3d</fix>
</trkpt>
<trkpt lat="-35.3635168" lon="149.1643138">
  <ele>682.23</ele>
  <time>2026-08-27T18:27:53Z</time>
  <course>229.83</course>
  <speed>9.80851160982134</speed>
  <fix>3d</fix>
</trkpt>
<trkpt lat="-35.36351" lon="149.1643235">
  <ele>682.09</ele>
  <time>2026-08-27T18:27:53Z</time>
  <course>229.45</course>
  <speed>9.82</speed>
  <fix>3d</fix>
</trkpt>
<trkpt lat="-35.3635282" lon="149.1642974">
  <ele>682.23</ele>
  <time>2026-08-27T18:27:53Z</time>
  <course>229.6</course>
  <speed>9.812899673389104</speed>
  <fix>3d</fix>
</trkpt>
<trkpt lat="-35.3635215" lon="149.1643071">
  <ele>682.09</ele>
  <time>2026-08-27T18:27:53Z</time>
  <course>229.28</course>
  <speed>9.82</speed>
  <fix>3d</fix>
</trkpt>
<trkpt lat="-35.3635398" lon="149.1642811">
  <ele>682.23</ele>
  <time>2026-08-27T18:27:53Z</time>
  <course>229.4</course>
  <speed>9.82597577851686</speed>
  <fix>3d</fix>
</trkpt>
<trkpt lat="-35.3635331" lon="149.1642906">
  <ele>682.08</ele>
  <time>2026-08-27T18:27:53Z</time>
  <course>229.14</course>
  <speed>9.83</speed>
  <fix>3d</fix>
</trkpt>
<trkpt lat="-35.3635513" lon="149.1642647">
  <ele>682.23</ele>
  <time>2026-08-27T18:27:53Z</time>
  <course>229.18</course>
  <speed>9.845633549955025</speed>
  <fix>3d</fix>
</trkpt>
<trkpt lat="-35.3635447" lon="149.1642743">
  <ele>682.08</ele>
  <time>2026-08-27T18:27:53Z</time>
  <course>229.0</course>
  <speed>9.85</speed>
  <fix>3d</fix>
</trkpt>
<trkpt lat="-35.363563" lon="149.1642484">
  <ele>682.23</ele>
  <time>2026-08-27T18:27:53Z</time>
  <course>229.02</course>
  <speed>9.858767671468884</speed>
  <fix>3d</fix>
</trkpt>
<trkpt lat="-35.3635563" lon="149.164258">
  <ele>682.08</ele>
  <time>2026-08-27T18:27:53Z</time>
  <course>228.87</course>
  <speed>9.86</speed>
  <fix>3d</fix>
</trkpt>
<trkpt lat="-35.3635746" lon="149.1642321">
  <ele>682.23</ele>
  <time>2026-08-27T18:27:53Z</time>
  <course>228.9</course>
  <speed>9.886035605843224</speed>
  <fix>3d</fix>
</trkpt>
<trkpt lat="-35.363568" lon="149.1642416">
  <ele>682.08</ele>
  <time>2026-08-27T18:27:53Z</time>
  <course>228.77</course>
  <speed>9.89</speed>
  <fix>3d</fix>
</trkpt>
<trkpt lat="-35.3635864" lon="149.1642157">
  <ele>682.22</ele>
  <time>2026-08-27T18:27:53Z</time>
  <course>228.78</course>
  <speed>9.906735082760616</speed>
  <fix>3d</fix>
</trkpt>
<trkpt lat="-35.3635797" lon="149.1642251">
  <ele>682.07</ele>
  <time>2026-08-27T18:27:53Z</time>
  <course>228.7</course>
  <speed>9.91</speed>
  <fix>3d</fix>
</trkpt>
<trkpt lat="-35.3635982" lon="149.1641991">
  <ele>682.22</ele>
  <time>2026-08-27T18:27:53Z</time>
  <course>228.69</course>
  <speed>9.92744176512761</speed>
  <fix>3d</fix>
</trkpt>
<trkpt lat="-35.3635915" lon="149.1642087">
  <ele>682.07</ele>
  <time>2026-08-27T18:27:53Z</time>
  <course>228.66</course>
  <speed>9.93</speed>
  <fix>3d</fix>
</trkpt>
<trkpt lat="-35.3636101" lon="149.1641827">
  <ele>682.22</ele>
  <time>2026-08-27T18:27:53Z</time>
  <course>228.65</course>
  <speed>9.949070308325297</speed>
  <fix>3d</fix>
</trkpt>
<trkpt lat="-35.3636032" lon="149.1641923">
  <ele>682.07</ele>
  <time>2026-08-27T18:27:53Z</time>
  <course>228.64</course>
  <speed>9.95</speed>
  <fix>3d</fix>
</trkpt>
<trkpt lat="-35.3636219" lon="149.1641661">
  <ele>682.23</ele>
  <time>2026-08-27T18:27:53Z</time>
  <course>228.65</course>
  <speed>9.970702081598867</speed>
  <fix>3d</fix>
</trkpt>
<trkpt lat="-35.3636151" lon="149.1641758">
  <ele>682.07</ele>
  <time>2026-08-27T18:27:53Z</time>
  <course>228.64</course>
  <speed>9.98</speed>
  <fix>3d</fix>
</trkpt>
<trkpt lat="-35.3636338" lon="149.1641495">
  <ele>682.23</ele>
  <time>2026-08-27T18:27:53Z</time>
  <course>228.71</course>
  <speed>9.99233706397057</speed>
  <fix>3d</fix>
</trkpt>
<trkpt lat="-35.363627" lon="149.1641593">
  <ele>682.07</ele>
  <time>2026-08-27T18:27:53Z</time>
  <course>228.67</course>
  <speed>9.99</speed>
  <fix>3d</fix>
</trkpt>
<trkpt lat="-35.3636457" lon="149.1641329">
  <ele>682.24</ele>
  <time>2026-08-27T18:27:53Z</time>
  <course>228.78</course>
  <speed>9.993287747283173</speed>
  <fix>3d</fix>
</trkpt>
<trkpt lat="-35.3636389" lon="149.1641427">
  <ele>682.08</ele>
  <time>2026-08-27T18:27:53Z</time>
  <course>228.72</course>
  <speed>10.01</speed>
  <fix>3d</fix>
</trkpt>
<trkpt lat="-35.3636575" lon="149.1641163">
  <ele>682.24</ele>
  <time>2026-08-27T18:27:53Z</time>
  <course>228.9</course>
  <speed>10.008366500083817</speed>
  <fix>3d</fix>
</trkpt>
<trkpt lat="-35.3636507" lon="149.164126">
  <ele>682.08</ele>
  <time>2026-08-27T18:27:53Z</time>
  <course>228.79</course>
  <speed>10.02</speed>
  <fix>3d</fix>
</trkpt>
<trkpt lat="-35.3636694" lon="149.1640997">
  <ele>682.24</ele>
  <time>2026-08-27T18:27:53Z</time>
  <course>229.02</course>
  <speed>10.009355623615338</speed>
  <fix>3d</fix>
</trkpt>
<trkpt lat="-35.3636626" lon="149.1641095">
  <ele>682.08</ele>
  <time>2026-08-27T18:27:53Z</time>
  <course>228.88</course>
  <speed>10.02</speed>
  <fix>3d</fix>
</trkpt>
<trkpt lat="-35.3636812" lon="149.164083">
  <ele>682.24</ele>
  <time>2026-08-27T18:27:53Z</time>
  <course>229.14</course>
  <speed>10.017928927677616</speed>
  <fix>3d</fix>
</trkpt>
<trkpt lat="-35.3636743" lon="149.1640928">
  <ele>682.09</ele>
  <time>2026-08-27T18:27:53Z</time>
  <course>228.98</course>
  <speed>10.03</speed>
  <fix>3d</fix>
</trkpt>
<trkpt lat="-35.3636929" lon="149.1640664">
  <ele>682.24</ele>
  <time>2026-08-27T18:27:53Z</time>
  <course>229.26</course>
  <speed>10.01896701262161</speed>
  <fix>3d</fix>
</trkpt>
<trkpt lat="-35.3636862" lon="149.1640761">
  <ele>682.09</ele>
  <time>2026-08-27T18:27:53Z</time>
  <course>229.09</course>
  <speed>10.03</speed>
  <fix>3d</fix>
</trkpt>
<trkpt lat="-35.3637047" lon="149.1640496">
  <ele>682.24</ele>
  <time>2026-08-27T18:27:53Z</time>
  <course>229.37</course>
  <speed>10.021102733731453</speed>
  <fix>3d</fix>
</trkpt>
<trkpt lat="-35.363698" lon="149.1640594">
  <ele>682.09</ele>
  <time>2026-08-27T18:27:53Z</time>
  <course>229.19</course>
  <speed>10.04</speed>
  <fix>3d</fix>
</trkpt>
<trkpt lat="-35.3637165" lon="149.1640328">
  <ele>682.24</ele>
  <time>2026-08-27T18:27:53Z</time>
  <course>229.46</course>
  <speed>10.022200357206994</speed>
  <fix>3d</fix>
</trkpt>
<trkpt lat="-35.3637097" lon="149.1640426">
  <ele>682.08</ele>
  <time>2026-08-27T18:27:53Z</time>
  <course>229.29</course>
  <speed>10.04</speed>
  <fix>3d</fix>
</trkpt>
<trkpt lat="-35.3637283" lon="149.1640159">
  <ele>682.24</ele>
  <time>2026-08-27T18:27:53Z</time>
  <course>229.56</course>
  <speed>10.023317813977565</speed>
  <fix>3d</fix>
</trkpt>
<trkpt lat="-35.3637215" lon="149.1640259">
  <ele>682.08</ele>
  <time>2026-08-27T18:27:53Z</time>
  <course>229.38</course>
  <speed>10.04</speed>
  <fix>3d</fix>
</trkpt>
<trkpt lat="-35.36374" lon="149.1639991">
  <ele>682.25</ele>
  <time>2026-08-27T18:27:53Z</time>
  <course>229.65</course>
  <speed>10.016835827745206</speed>
  <fix>3d</fix>
</trkpt>
<trkpt lat="-35.3637333" lon="149.164009">
  <ele>682.09</ele>
  <time>2026-08-27T18:27:53Z</time>
  <course>229.46</course>
  <speed>10.04</speed>
  <fix>3d</fix>
</trkpt>
<trkpt lat="-35.3637517" lon="149.1639822">
  <ele>682.25</ele>
  <time>2026-08-27T18:27:53Z</time>
  <course>229.73</course>
  <speed>10.017983829094556</speed>
  <fix>3d</fix>
</trkpt>
<trkpt lat="-35.363745" lon="149.1639922">
  <ele>682.09</ele>
  <time>2026-08-27T18:27:53Z</time>
  <course>229.53</course>
  <speed>10.04</speed>
  <fix>3d</fix>
</trkpt>
<trkpt lat="-35.3637634" lon="149.1639654">
  <ele>682.26</ele>
  <time>2026-08-27T18:27:53Z</time>
  <course>229.82</course>
  <speed>10.003889243689176</speed>
  <fix>3d</fix>
</trkpt>
<trkpt lat="-35.3637567" lon="149.1639753">
  <ele>682.09</ele>
  <time>2026-08-27T18:27:53Z</time>
  <course>229.58</course>
  <speed>10.03</speed>
  <fix>3d</fix>
</trkpt>
<trkpt lat="-35.3637751" lon="149.1639485">
  <ele>682.26</ele>
  <time>2026-08-27T18:27:53Z</time>
  <course>229.89</course>
  <speed>9.997424668383353</speed>
  <fix>3d</fix>
</trkpt>
<trkpt lat="-35.3637684" lon="149.1639586">
  <ele>682.08</ele>
  <time>2026-08-27T18:27:53Z</time>
  <course>229.61</course>
  <speed>10.02</speed>
  <fix>3d</fix>
</trkpt>
<trkpt lat="-35.3637868" lon="149.1639317">
  <ele>682.26</ele>
  <time>2026-08-27T18:27:53Z</time>
  <course>229.94</course>
  <speed>9.983331107400977</speed>
  <fix>3d</fix>
</trkpt>
<trkpt lat="-35.3637801" lon="149.1639417">
  <ele>682.08</ele>
  <time>2026-08-27T18:27:53Z</time>
  <course>229.64</course>
  <speed>10.01</speed>
  <fix>3d</fix>
</trkpt>
<trkpt lat="-35.3637984" lon="149.163915">
  <ele>682.26</ele>
  <time>2026-08-27T18:27:53Z</time>
  <course>229.98</course>
  <speed>9.969237683995702</speed>
  <fix>3d</fix>
</trkpt>
<trkpt lat="-35.3637916" lon="149.163925">
  <ele>682.08</ele>
  <time>2026-08-27T18:27:53Z</time>
  <course>229.66</course>
  <speed>10.0</speed>
  <fix>3d</fix>
</trkpt>
<trkpt lat="-35.3638099" lon="149.1638983">
  <ele>682.25</ele>
  <time>2026-08-27T18:27:53Z</time>
  <course>229.94</course>
  <speed>9.961606296175331</speed>
  <fix>3d</fix>
</trkpt>
<trkpt lat="-35.3638033" lon="149.1639081">
  <ele>682.07</ele>
  <time>2026-08-27T18:27:53Z</time>
  <course>229.66</course>
  <speed>9.99</speed>
  <fix>3d</fix>
</trkpt>
<trkpt lat="-35.3638215" lon="149.1638817">
  <ele>682.24</ele>
  <time>2026-08-27T18:27:53Z</time>
  <course>229.9</course>
  <speed>9.961606296175331</speed>
  <fix>3d</fix>
</trkpt>
<trkpt lat="-35.363815" lon="149.1638914">
  <ele>682.07</ele>
  <time>2026-08-27T18:27:53Z</time>
  <course>229.65</course>
  <speed>9.98</speed>
  <fix>3d</fix>
</trkpt>
<trkpt lat="-35.363833" lon="149.163865">
  <ele>682.23</ele>
  <time>2026-08-27T18:27:53Z</time>
  <course>229.79</course>
  <speed>9.953979103855904</speed>
  <fix>3d</fix>
</trkpt>
<trkpt lat="-35.3638265" lon="149.1638746">
  <ele>682.06</ele>
  <time>2026-08-27T18:27:53Z</time>
  <course>229.63</course>
  <speed>9.98</speed>
  <fix>3d</fix>
</trkpt>
<trkpt lat="-35.3638447" lon="149.1638481">
  <ele>682.22</ele>
  <time>2026-08-27T18:27:53Z</time>
  <course>229.68</course>
  <speed>9.960451796981902</speed>
  <fix>3d</fix>
</trkpt>
<trkpt lat="-35.3638382" lon="149.1638578">
  <ele>682.06</ele>
  <time>2026-08-27T18:27:53Z</time>
  <course>229.6</course>
  <speed>9.98</speed>
  <fix>3d</fix>
</trkpt>
<trkpt lat="-35.3638564" lon="149.1638313">
  <ele>682.21</ele>
  <time>2026-08-27T18:27:53Z</time>
  <course>229.59</course>
  <speed>9.966930319812615</speed>
  <fix>3d</fix>
</trkpt>
<trkpt lat="-35.3638497" lon="149.1638411">
  <ele>682.05</ele>
  <time>2026-08-27T18:27:53Z</time>
  <course>229.54</course>
  <speed>9.98</speed>
  <fix>3d</fix>
</trkpt>
<trkpt lat="-35.3638681" lon="149.1638145">
  <ele>682.2</ele>
  <time>2026-08-27T18:27:53Z</time>
  <course>229.5</course>
  <speed>9.965806540365913</speed>
  <fix>3d</fix>
</trkpt>
<trkpt lat="-35.3638614" lon="149.1638244">
  <ele>682.05</ele>
  <time>2026-08-27T18:27:53Z</time>
  <course>229.48</course>
  <speed>9.99</speed>
  <fix>3d</fix>
</trkpt>
<trkpt lat="-35.3638798" lon="149.1637978">
  <ele>682.2</ele>
  <time>2026-08-27T18:27:53Z</time>
  <course>229.43</course>
  <speed>9.964702705048456</speed>
  <fix>3d</fix>
</trkpt>
<trkpt lat="-35.3638731" lon="149.1638076">
  <ele>682.06</ele>
  <time>2026-08-27T18:27:53Z</time>
  <course>229.41</course>
  <speed>9.98</speed>
  <fix>3d</fix>
</trkpt>
<trkpt lat="-35.3638915" lon="149.1637812">
  <ele>682.21</ele>
  <time>2026-08-27T18:27:53Z</time>
  <course>229.39</course>
  <speed>9.957108013876319</speed>
  <fix>3d</fix>
</trkpt>
<trkpt lat="-35.3638848" lon="149.1637909">
  <ele>682.06</ele>
  <time>2026-08-27T18:27:53Z</time>
  <course>229.34</course>
  <speed>9.98</speed>
  <fix>3d</fix>
</trkpt>
<trkpt lat="-35.3639031" lon="149.1637645">
  <ele>682.21</ele>
  <time>2026-08-27T18:27:53Z</time>
  <course>229.36</course>
  <speed>9.956033346669747</speed>
  <fix>3d</fix>
</trkpt>
<trkpt lat="-35.3638965" lon="149.1637743">
  <ele>682.07</ele>
  <time>2026-08-27T18:27:53Z</time>
  <course>229.28</course>
  <speed>9.97</speed>
  <fix>3d</fix>
</trkpt>
<trkpt lat="-35.3639148" lon="149.1637479">
  <ele>682.22</ele>
  <time>2026-08-27T18:27:53Z</time>
  <course>229.3</course>
  <speed>9.948452140911167</speed>
  <fix>3d</fix>
</trkpt>
<trkpt lat="-35.3639082" lon="149.1637576">
  <ele>682.07</ele>
  <time>2026-08-27T18:27:53Z</time>
  <course>229.24</course>
  <speed>9.97</speed>
  <fix>3d</fix>
</trkpt>
<trkpt lat="-35.3639265" lon="149.1637313">
  <ele>682.22</ele>
  <time>2026-08-27T18:27:53Z</time>
  <course>229.27</course>
  <speed>9.948452140911167</speed>
  <fix>3d</fix>
</trkpt>
<trkpt lat="-35.3639199" lon="149.163741">
  <ele>682.08</ele>
  <time>2026-08-27T18:27:53Z</time>
  <course>229.2</course>
  <speed>9.97</speed>
  <fix>3d</fix>
</trkpt>
<trkpt lat="-35.3639382" lon="149.1637148">
  <ele>682.23</ele>
  <time>2026-08-27T18:27:54Z</time>
  <course>229.21</course>
  <speed>9.954978653919857</speed>
  <fix>3d</fix>
</trkpt>
<trkpt lat="-35.3639316" lon="149.1637243">
  <ele>682.09</ele>
  <time>2026-08-27T18:27:54Z</time>
  <course>229.17</course>
  <speed>9.97</speed>
  <fix>3d</fix>
</trkpt>
<trkpt lat="-35.3639499" lon="149.1636982">
  <ele>682.23</ele>
  <time>2026-08-27T18:27:54Z</time>
  <course>229.17</course>
  <speed>9.954978653919857</speed>
  <fix>3d</fix>
</trkpt>
<trkpt lat="-35.3639433" lon="149.1637078">
  <ele>682.09</ele>
  <time>2026-08-27T18:27:54Z</time>
  <course>229.14</course>
  <speed>9.97</speed>
  <fix>3d</fix>
</trkpt>
<trkpt lat="-35.3639616" lon="149.1636815">
  <ele>682.23</ele>
  <time>2026-08-27T18:27:54Z</time>
  <course>229.13</course>
  <speed>9.961510929572883</speed>
  <fix>3d</fix>
</trkpt>
<trkpt lat="-35.363955" lon="149.1636912">
  <ele>682.09</ele>
  <time>2026-08-27T18:27:54Z</time>
  <course>229.12</course>
  <speed>9.97</speed>
  <fix>3d</fix>
</trkpt>
<trkpt lat="-35.3639734" lon="149.1636648">
  <ele>682.23</ele>
  <time>2026-08-27T18:27:54Z</time>
  <course>229.09</course>
  <speed>9.96908220449606</speed>
  <fix>3d</fix>
</trkpt>
<trkpt lat="-35.3639668" lon="149.1636745">
  <ele>682.09</ele>
  <time>2026-08-27T18:27:54Z</time>
  <course>229.11</course>
  <speed>9.98</speed>
  <fix>3d</fix>
</trkpt>
<trkpt lat="-35.3639852" lon="149.1636481">
  <ele>682.23</ele>
  <time>2026-08-27T18:27:54Z</time>
  <course>229.08</course>
  <speed>9.975615269245301</speed>
  <fix>3d</fix>
</trkpt>
<trkpt lat="-35.3639785" lon="149.1636578">
  <ele>682.09</ele>
  <time>2026-08-27T18:27:54Z</time>
  <course>229.11</course>
  <speed>9.99</speed>
  <fix>3d</fix>
</trkpt>
<trkpt lat="-35.363997" lon="149.1636314">
  <ele>682.24</ele>
  <time>2026-08-27T18:27:54Z</time>
  <course>229.08</course>
  <speed>9.983185864241936</speed>
  <fix>3d</fix>
</trkpt>
<trkpt lat="-35.3639903" lon="149.1636411">
  <ele>682.1</ele>
  <time>2026-08-27T18:27:54Z</time>
  <course>229.11</course>
  <speed>9.99</speed>
  <fix>3d</fix>
</trkpt>
<trkpt lat="-35.3640088" lon="149.1636147">
  <ele>682.25</ele>
  <time>2026-08-27T18:27:54Z</time>
  <course>229.12</course>
  <speed>9.983185864241936</speed>
  <fix>3d</fix>
</trkpt>
<trkpt lat="-35.364002" lon="149.1636245">
  <ele>682.1</ele>
  <time>2026-08-27T18:27:54Z</time>
  <course>229.12</course>
  <speed>9.99</speed>
  <fix>3d</fix>
</trkpt>
<trkpt lat="-35.3640205" lon="149.163598">
  <ele>682.25</ele>
  <time>2026-08-27T18:27:54Z</time>
  <course>229.19</course>
  <speed>9.976657756984551</speed>
  <fix>3d</fix>
</trkpt>
<trkpt lat="-35.3640138" lon="149.1636079">
  <ele>682.1</ele>
  <time>2026-08-27T18:27:54Z</time>
  <course>229.13</course>
  <speed>9.99</speed>
  <fix>3d</fix>
</trkpt>
<trkpt lat="-35.3640323" lon="149.1635814">
  <ele>682.25</ele>
  <time>2026-08-27T18:27:54Z</time>
  <course>229.22</course>
  <speed>9.976657756984551</speed>
  <fix>3d</fix>
</trkpt>
<trkpt lat="-35.3640255" lon="149.1635913">
  <ele>682.1</ele>
  <time>2026-08-27T18:27:54Z</time>
  <course>229.16</course>
  <speed>9.99</speed>
  <fix>3d</fix>
</trkpt>
<trkpt lat="-35.364044" lon="149.1635647">
  <ele>682.25</ele>
  <time>2026-08-27T18:27:54Z</time>
  <course>229.27</course>
  <speed>9.977720180482113</speed>
  <fix>3d</fix>
</trkpt>
<trkpt lat="-35.3640373" lon="149.1635746">
  <ele>682.1</ele>
  <time>2026-08-27T18:27:54Z</time>
  <course>229.19</course>
  <speed>9.99</speed>
  <fix>3d</fix>
</trkpt>
<trkpt lat="-35.3640557" lon="149.163548">
  <ele>682.25</ele>
  <time>2026-08-27T18:27:54Z</time>
  <course>229.28</course>
  <speed>9.977720180482113</speed>
  <fix>3d</fix>
</trkpt>
<trkpt lat="-35.364049" lon="149.1635579">
  <ele>682.1</ele>
  <time>2026-08-27T18:27:54Z</time>
  <course>229.22</course>
  <speed>9.98</speed>
  <fix>3d</fix>
</trkpt>
<trkpt lat="-35.3640675" lon="149.1635313">
  <ele>682.25</ele>
  <time>2026-08-27T18:27:54Z</time>
  <course>229.32</course>
  <speed>9.97120855262791</speed>
  <fix>3d</fix>
</trkpt>
<trkpt lat="-35.3640607" lon="149.1635413">
  <ele>682.09</ele>
  <time>2026-08-27T18:27:54Z</time>
  <course>229.26</course>
  <speed>9.98</speed>
  <fix>3d</fix>
</trkpt>
<trkpt lat="-35.3640792" lon="149.1635146">
  <ele>682.24</ele>
  <time>2026-08-27T18:27:54Z</time>
  <course>229.33</course>
  <speed>9.978802533370423</speed>
  <fix>3d</fix>
</trkpt>
<trkpt lat="-35.3640724" lon="149.1635246">
  <ele>682.09</ele>
  <time>2026-08-27T18:27:54Z</time>
  <course>229.29</course>
  <speed>9.98</speed>
  <fix>3d</fix>
</trkpt>
<trkpt lat="-35.364091" lon="149.1634978">
  <ele>682.24</ele>
  <time>2026-08-27T18:27:54Z</time>
  <course>229.33</course>
  <speed>9.978802533370423</speed>
  <fix>3d</fix>
</trkpt>
<trkpt lat="-35.3640841" lon="149.1635079">
  <ele>682.09</ele>
  <time>2026-08-27T18:27:54Z</time>
  <course>229.32</course>
  <speed>9.98</speed>
  <fix>3d</fix>
</trkpt>
<trkpt lat="-35.3641027" lon="149.1634811">
  <ele>682.24</ele>
  <time>2026-08-27T18:27:54Z</time>
  <course>229.36</course>
  <speed>9.972301640042785</speed>
  <fix>3d</fix>
</trkpt>
<trkpt lat="-35.3640958" lon="149.1634912">
  <ele>682.09</ele>
  <time>2026-08-27T18:27:54Z</time>
  <course>229.34</course>
  <speed>9.98</speed>
  <fix>3d</fix>
</trkpt>
<trkpt lat="-35.3641144" lon="149.1634644">
  <ele>682.24</ele>
  <time>2026-08-27T18:27:54Z</time>
  <course>229.4</course>
  <speed>9.972301640042785</speed>
  <fix>3d</fix>
</trkpt>
<trkpt lat="-35.3641075" lon="149.1634745">
  <ele>682.09</ele>
  <time>2026-08-27T18:27:54Z</time>
  <course>229.36</course>
  <speed>9.98</speed>
  <fix>3d</fix>
</trkpt>
<trkpt lat="-35.364126" lon="149.1634478">
  <ele>682.24</ele>
  <time>2026-08-27T18:27:54Z</time>
  <course>229.39</course>
  <speed>9.972301640042785</speed>
  <fix>3d</fix>
</trkpt>
<trkpt lat="-35.3641192" lon="149.1634578">
  <ele>682.08</ele>
  <time>2026-08-27T18:27:54Z</time>
  <course>229.37</course>
  <speed>9.98</speed>
  <fix>3d</fix>
</trkpt>
<trkpt lat="-35.3641376" lon="149.1634312">
  <ele>682.24</ele>
  <time>2026-08-27T18:27:54Z</time>
  <course>229.37</course>
  <speed>9.972301640042785</speed>
  <fix>3d</fix>
</trkpt>
<trkpt lat="-35.3641308" lon="149.1634411">
  <ele>682.08</ele>
  <time>2026-08-27T18:27:54Z</time>
  <course>229.38</course>
  <speed>9.98</speed>
  <fix>3d</fix>
</trkpt>
<trkpt lat="-35.3641493" lon="149.1634145">
  <ele>682.24</ele>
  <time>2026-08-27T18:27:54Z</time>
  <course>229.38</course>
  <speed>9.972301640042785</speed>
  <fix>3d</fix>
</trkpt>
<trkpt lat="-35.3641425" lon="149.1634244">
  <ele>682.08</ele>
  <time>2026-08-27T18:27:54Z</time>
  <course>229.38</course>
  <speed>9.98</speed>
  <fix>3d</fix>
</trkpt>
<trkpt lat="-35.3641609" lon="149.1633979">
  <ele>682.23</ele>
  <time>2026-08-27T18:27:54Z</time>
  <course>229.34</course>
  <speed>9.972301640042785</speed>
  <fix>3d</fix>
</trkpt>
<trkpt lat="-35.3641542" lon="149.1634077">
  <ele>682.08</ele>
  <time>2026-08-27T18:27:54Z</time>
  <course>229.38</course>
  <speed>9.99</speed>
  <fix>3d</fix>
</trkpt>
<trkpt lat="-35.3641725" lon="149.1633812">
  <ele>682.23</ele>
  <time>2026-08-27T18:27:54Z</time>
  <course>229.29</course>
  <speed>9.986400753024085</speed>
  <fix>3d</fix>
</trkpt>
<trkpt lat="-35.3641659" lon="149.163391">
  <ele>682.07</ele>
  <time>2026-08-27T18:27:54Z</time>
  <course>229.38</course>
  <speed>10.0</speed>
  <fix>3d</fix>
</trkpt>
<trkpt lat="-35.3641842" lon="149.1633646">
  <ele>682.23</ele>
  <time>2026-08-27T18:27:54Z</time>
  <course>229.26</course>
  <speed>9.986400753024085</speed>
  <fix>3d</fix>
</trkpt>
<trkpt lat="-35.3641776" lon="149.1633742">
  <ele>682.07</ele>
  <time>2026-08-27T18:27:54Z</time>
  <course>229.36</course>
  <speed>10.01</speed>
  <fix>3d</fix>
</trkpt>
<trkpt lat="-35.3641959" lon="149.1633479">
  <ele>682.24</ele>
  <time>2026-08-27T18:27:54Z</time>
  <course>229.23</course>
  <speed>10.000499987500625</speed>
  <fix>3d</fix>
</trkpt>
<trkpt lat="-35.3641893" lon="149.1633575">
  <ele>682.07</ele>
  <time>2026-08-27T18:27:54Z</time>
  <course>229.35</course>
  <speed>10.02</speed>
  <fix>3d</fix>
</trkpt>
<trkpt lat="-35.3642077" lon="149.1633311">
  <ele>682.25</ele>
  <time>2026-08-27T18:27:54Z</time>
  <course>229.21</course>
  <speed>10.007002548215924</speed>
  <fix>3d</fix>
</trkpt>
<trkpt lat="-35.364201" lon="149.1633408">
  <ele>682.07</ele>
  <time>2026-08-27T18:27:54Z</time>
  <course>229.33</course>
  <speed>10.02</speed>
  <fix>3d</fix>
</trkpt>
<trkpt lat="-35.3642194" lon="149.1633143">
  <ele>682.25</ele>
  <time>2026-08-27T18:27:54Z</time>
  <course>229.24</course>
  <speed>10.007002548215924</speed>
  <fix>3d</fix>
</trkpt>
<trkpt lat="-35.3642128" lon="149.163324">
  <ele>682.07</ele>
  <time>2026-08-27T18:27:54Z</time>
  <course>229.31</course>
  <speed>10.03</speed>
  <fix>3d</fix>
</trkpt>
<trkpt lat="-35.3642312" lon="149.1632975">
  <ele>682.24</ele>
  <time>2026-08-27T18:27:54Z</time>
  <course>229.23</course>
  <speed>10.013510872815788</speed>
  <fix>3d</fix>
</trkpt>
<trkpt lat="-35.3642246" lon="149.1633072">
  <ele>682.07</ele>
  <time>2026-08-27T18:27:54Z</time>
  <course>229.3</course>
  <speed>10.03</speed>
  <fix>3d</fix>
</trkpt>
<trkpt lat="-35.364243" lon="149.1632807">
  <ele>682.24</ele>
  <time>2026-08-27T18:27:54Z</time>
  <course>229.22</course>
  <speed>10.013510872815788</speed>
  <fix>3d</fix>
</trkpt>
<trkpt lat="-35.3642363" lon="149.1632904">
  <ele>682.07</ele>
  <time>2026-08-27T18:27:54Z</time>
  <course>229.29</course>
  <speed>10.04</speed>
  <fix>3d</fix>
</trkpt>
<trkpt lat="-35.3642548" lon="149.1632639">
  <ele>682.24</ele>
  <time>2026-08-27T18:27:54Z</time>
  <course>229.25</course>
  <speed>10.013510872815788</speed>
  <fix>3d</fix>
</trkpt>
<trkpt lat="-35.3642481" lon="149.1632737">
  <ele>682.07</ele>
  <time>2026-08-27T18:27:54Z</time>
  <course>229.28</course>
  <speed>10.03</speed>
  <fix>3d</fix>
</trkpt>
<trkpt lat="-35.3642665" lon="149.1632471">
  <ele>682.24</ele>
  <time>2026-08-27T18:27:54Z</time>
  <course>229.27</course>
  <speed>10.007002548215924</speed>
  <fix>3d</fix>
</trkpt>
<trkpt lat="-35.3642598" lon="149.1632569">
  <ele>682.07</ele>
  <time>2026-08-27T18:27:54Z</time>
  <course>229.28</course>
  <speed>10.03</speed>
  <fix>3d</fix>
</trkpt>
<trkpt lat="-35.3642783" lon="149.1632304">
  <ele>682.23</ele>
  <time>2026-08-27T18:27:54Z</time>
  <course>229.28</course>
  <speed>9.999409982593972</speed>
  <fix>3d</fix>
</trkpt>
<trkpt lat="-35.3642716" lon="149.1632402">
  <ele>682.07</ele>
  <time>2026-08-27T18:27:54Z</time>
  <course>229.28</course>
  <speed>10.02</speed>
  <fix>3d</fix>
</trkpt>
<trkpt lat="-35.36429" lon="149.1632136">
  <ele>682.22</ele>
  <time>2026-08-27T18:27:54Z</time>
  <course>229.29</course>
  <speed>9.992902481261387</speed>
  <fix>3d</fix>
</trkpt>
<trkpt lat="-35.3642834" lon="149.1632234">
  <ele>682.07</ele>
  <time>2026-08-27T18:27:54Z</time>
  <course>229.28</course>
  <speed>10.01</speed>
  <fix>3d</fix>
</trkpt>
<trkpt lat="-35.3643017" lon="149.163197">
  <ele>682.22</ele>
  <time>2026-08-27T18:27:54Z</time>
  <course>229.28</course>
  <speed>9.985309209033039</speed>
  <fix>3d</fix>
</trkpt>
<trkpt lat="-35.3642951" lon="149.1632067">
  <ele>682.07</ele>
  <time>2026-08-27T18:27:54Z</time>
  <course>229.29</course>
  <speed>10.01</speed>
  <fix>3d</fix>
</trkpt>
<trkpt lat="-35.3643135" lon="149.1631802">
  <ele>682.21</ele>
  <time>2026-08-27T18:27:54Z</time>
  <course>229.28</course>
  <speed>9.978802533370423</speed>
  <fix>3d</fix>
</trkpt>
<trkpt lat="-35.3643068" lon="149.16319">
  <ele>682.07</ele>
  <time>2026-08-27T18:27:54Z</time>
  <course>229.3</course>
  <speed>10.0</speed>
  <fix>3d</fix>
</trkpt>
<trkpt lat="-35.3643252" lon="149.1631635">
  <ele>682.21</ele>
  <time>2026-08-27T18:27:54Z</time>
  <course>229.27</course>
  <speed>9.97120855262791</speed>
  <fix>3d</fix>
</trkpt>
<trkpt lat="-35.3643185" lon="149.1631733">
  <ele>682.07</ele>
  <time>2026-08-27T18:27:54Z</time>
  <course>229.3</course>
  <speed>9.99</speed>
  <fix>3d</fix>
</trkpt>
<trkpt lat="-35.364337" lon="149.1631467">
  <ele>682.21</ele>
  <time>2026-08-27T18:27:54Z</time>
  <course>229.27</course>
  <speed>9.97120855262791</speed>
  <fix>3d</fix>
</trkpt>
<trkpt lat="-35.3643302" lon="149.1631566">
  <ele>682.08</ele>
  <time>2026-08-27T18:27:54Z</time>
  <course>229.31</course>
  <speed>9.98</speed>
  <fix>3d</fix>
</trkpt>
<trkpt lat="-35.3643487" lon="149.16313">
  <ele>682.21</ele>
  <time>2026-08-27T18:27:54Z</time>
  <course>229.26</course>
  <speed>9.957108013876319</speed>
  <fix>3d</fix>
</trkpt>
<trkpt lat="-35.3643419" lon="149.1631399">
  <ele>682.08</ele>
  <time>2026-08-27T18:27:54Z</time>
  <course>229.31</course>
  <speed>9.98</speed>
  <fix>3d</fix>
</trkpt>
<trkpt lat="-35.3643604" lon="149.1631133">
  <ele>682.22</ele>
  <time>2026-08-27T18:27:54Z</time>
  <course>229.24</course>
  <speed>9.957108013876319</speed>
  <fix>3d</fix>
</trkpt>
<trkpt lat="-35.3643536" lon="149.1631232">
  <ele>682.09</ele>
  <time>2026-08-27T18:27:54Z</time>
  <course>229.31</course>
  <speed>9.97</speed>
  <fix>3d</fix>
</trkpt>
<trkpt lat="-35.3643721" lon="149.1630966">
  <ele>682.23</ele>
  <time>2026-08-27T18:27:54Z</time>
  <course>229.21</course>
  <speed>9.943007593278807</speed>
  <fix>3d</fix>
</trkpt>
<trkpt lat="-35.3643653" lon="149.1631066">
  <ele>682.09</ele>
  <time>2026-08-27T18:27:54Z</time>
  <course>229.3</course>
  <speed>9.96</speed>
  <fix>3d</fix>
</trkpt>
<trkpt lat="-35.3643838" lon="149.16308">
  <ele>682.24</ele>
  <time>2026-08-27T18:27:54Z</time>
  <course>229.29</course>
  <speed>9.907214542947983</speed>
  <fix>3d</fix>
</trkpt>
<trkpt lat="-35.364377" lon="149.16309">
  <ele>682.1</ele>
  <time>2026-08-27T18:27:54Z</time>
  <course>229.3</course>
  <speed>9.94</speed>
  <fix>3d</fix>
</trkpt>
<trkpt lat="-35.3643954" lon="149.1630635">
  <ele>682.26</ele>
  <time>2026-08-27T18:27:54Z</time>
  <course>229.55</course>
  <speed>9.815019103394553</speed>
  <fix>3d</fix>
</trkpt>
<trkpt lat="-35.3643886" lon="149.1630734">
  <ele>682.11</ele>
  <time>2026-08-27T18:27:54Z</time>
  <course>229.29</course>
  <speed>9.89</speed>
  <fix>3d</fix>
</trkpt>
<trkpt lat="-35.3644068" lon="149.1630471">
  <ele>682.29</ele>
  <time>2026-08-27T18:27:54Z</time>
  <course>229.97</course>
  <speed>9.672931303384718</speed>
  <fix>3d</fix>
</trkpt>
<trkpt lat="-35.3644001" lon="149.1630569">
  <ele>682.13</ele>
  <time>2026-08-27T18:27:54Z</time>
  <course>229.29</course>
  <speed>9.78</speed>
  <fix>3d</fix>
</trkpt>
<trkpt lat="-35.3644181" lon="149.1630311">
  <ele>682.33</ele>
  <time>2026-08-27T18:27:54Z</time>
  <course>230.49</course>
  <speed>9.475526370603378</speed>
  <fix>3d</fix>
</trkpt>
<trkpt lat="-35.3644115" lon="149.1630407">
  <ele>682.16</ele>
  <time>2026-08-27T18:27:54Z</time>
  <course>229.32</course>
  <speed>9.62</speed>
  <fix>3d</fix>
</trkpt>
<trkpt lat="-35.364429" lon="149.1630155">
  <ele>682.36</ele>
  <time>2026-08-27T18:27:54Z</time>
  <course>231.06</course>
  <speed>9.228244686829667</speed>
  <fix>3d</fix>
</trkpt>
<trkpt lat="-35.3644227" lon="149.1630248">
  <ele>682.19</ele>
  <time>2026-08-27T18:27:54Z</time>
  <course>229.4</course>
  <speed>9.41</speed>
  <fix>3d</fix>
</trkpt>
<trkpt lat="-35.3644396" lon="149.1630002">
  <ele>682.39</ele>
  <time>2026-08-27T18:27:54Z</time>
  <course>231.61</course>
  <speed>8.938691179361776</speed>
  <fix>3d</fix>
</trkpt>
<trkpt lat="-35.3644335" lon="149.1630093">
  <ele>682.22</ele>
  <time>2026-08-27T18:27:54Z</time>
  <course>229.53</course>
  <speed>9.15</speed>
  <fix>3d</fix>
</trkpt>
<trkpt lat="-35.36445" lon="149.1629853">
  <ele>682.4</ele>
  <time>2026-08-27T18:27:54Z</time>
  <course>232.12</course>
  <speed>8.592793492223585</speed>
  <fix>3d</fix>
</trkpt>
<trkpt lat="-35.364444" lon="149.1629942">
  <ele>682.25</ele>
  <time>2026-08-27T18:27:54Z</time>
  <course>229.7</course>
  <speed>8.84</speed>
  <fix>3d</fix>
</trkpt>
<trkpt lat="-35.3644597" lon="149.1629711">
  <ele>682.42</ele>
  <time>2026-08-27T18:27:54Z</time>
  <course>232.59</course>
  <speed>8.218771197691295</speed>
  <fix>3d</fix>
</trkpt>
<trkpt lat="-35.364454" lon="149.1629796">
  <ele>682.26</ele>
  <time>2026-08-27T18:27:54Z</time>
  <course>229.89</course>
  <speed>8.49</speed>
  <fix>3d</fix>
</trkpt>
<trkpt lat="-35.364469" lon="149.1629576">
  <ele>682.42</ele>
  <time>2026-08-27T18:27:54Z</time>
  <course>232.99</course>
  <speed>7.787226720726705</speed>
  <fix>3d</fix>
</trkpt>
<trkpt lat="-35.3644636" lon="149.1629656">
  <ele>682.27</ele>
  <time>2026-08-27T18:27:54Z</time>
  <course>230.1</course>
  <speed>8.09</speed>
  <fix>3d</fix>
</trkpt>
<trkpt lat="-35.3644777" lon="149.1629448">
  <ele>682.41</ele>
  <time>2026-08-27T18:27:54Z</time>
  <course>233.32</course>
  <speed>7.327550750421317</speed>
  <fix>3d</fix>
</trkpt>
<trkpt lat="-35.3644726" lon="149.1629522">
  <ele>682.27</ele>
  <time>2026-08-27T18:27:54Z</time>
  <course>230.29</course>
  <speed>7.66</speed>
  <fix>3d</fix>
</trkpt>
<trkpt lat="-35.3644859" lon="149.1629327">
  <ele>682.4</ele>
  <time>2026-08-27T18:27:54Z</time>
  <course>233.57</course>
  <speed>6.810293679423818</speed>
  <fix>3d</fix>
</trkpt>
<trkpt lat="-35.3644812" lon="149.1629395">
  <ele>682.26</ele>
  <time>2026-08-27T18:27:54Z</time>
  <course>230.48</course>
  <speed>7.17</speed>
  <fix>3d</fix>
</trkpt>
<trkpt lat="-35.3644934" lon="149.1629215">
  <ele>682.39</ele>
  <time>2026-08-27T18:27:54Z</time>
  <course>233.78</course>
  <speed>6.264902233874045</speed>
  <fix>3d</fix>
</trkpt>
<trkpt lat="-35.3644891" lon="149.1629278">
  <ele>682.25</ele>
  <time>2026-08-27T18:27:54Z</time>
  <course>230.66</course>
  <speed>6.65</speed>
  <fix>3d</fix>
</trkpt>
<trkpt lat="-35.3645002" lon="149.1629113">
  <ele>682.37</ele>
  <time>2026-08-27T18:27:54Z</time>
  <course>233.99</course>
  <speed>5.696402373428338</speed>
  <fix>3d</fix>
</trkpt>
<trkpt lat="-35.3644963" lon="149.162917">
  <ele>682.24</ele>
  <time>2026-08-27T18:27:54Z</time>
  <course>230.81</course>
  <speed>6.09</speed>
  <fix>3d</fix>
</trkpt>
<trkpt lat="-35.3645064" lon="149.162902">
  <ele>682.35</ele>
  <time>2026-08-27T18:27:54Z</time>
  <course>234.3</course>
  <speed>5.124304830901456</speed>
  <fix>3d</fix>
</trkpt>
<trkpt lat="-35.3645029" lon="149.162907">
  <ele>682.22</ele>
  <time>2026-08-27T18:27:54Z</time>
  <course>231.05</course>
  <speed>5.52</speed>
  <fix>3d</fix>
</trkpt>
<trkpt lat="-35.3645118" lon="149.1628936">
  <ele>682.32</ele>
  <time>2026-08-27T18:27:54Z</time>
  <course>234.88</course>
  <speed>4.5337512062308845</speed>
  <fix>3d</fix>
</trkpt>
<trkpt lat="-35.3645088" lon="149.162898">
  <ele>682.19</ele>
  <time>2026-08-27T18:27:54Z</time>
  <course>231.57</course>
  <speed>4.93</speed>
  <fix>3d</fix>
</trkpt>
<trkpt lat="-35.3645165" lon="149.1628861">
  <ele>682.28</ele>
  <time>2026-08-27T18:27:54Z</time>
  <course>236.08</course>
  <speed>3.95</speed>
  <fix>3d</fix>
</trkpt>
<trkpt lat="-35.3645139" lon="149.16289">
  <ele>682.16</ele>
  <time>2026-08-27T18:27:54Z</time>
  <course>232.64</course>
  <speed>4.35</speed>
  <fix>3d</fix>
</trkpt>
<trkpt lat="-35.3645203" lon="149.1628793">
  <ele>682.24</ele>
  <time>2026-08-27T18:27:54Z</time>
  <course>238.33</course>
  <speed>3.36989614083283</speed>
  <fix>3d</fix>
</trkpt>
<trkpt lat="-35.3645182" lon="149.1628827">
  <ele>682.11</ele>
  <time>2026-08-27T18:27:54Z</time>
  <course>234.62</course>
  <speed>3.76</speed>
  <fix>3d</fix>
</trkpt>
<trkpt lat="-35.3645233" lon="149.1628734">
  <ele>682.18</ele>
  <time>2026-08-27T18:27:54Z</time>
  <course>242.02</course>
  <speed>2.8119210515233175</speed>
  <fix>3d</fix>
</trkpt>
<trkpt lat="-35.3645217" lon="149.1628764">
  <ele>682.06</ele>
  <time>2026-08-27T18:27:54Z</time>
  <course>238.01</course>
  <speed>3.19</speed>
  <fix>3d</fix>
</trkpt>
<trkpt lat="-35.3645253" lon="149.1628683">
  <ele>682.12</ele>
  <time>2026-08-27T18:27:54Z</time>
  <course>247.87</course>
  <speed>2.2896506283710623</speed>
  <fix>3d</fix>
</trkpt>
<trkpt lat="-35.3645243" lon="149.1628708">
  <ele>682.01</ele>
  <time>2026-08-27T18:27:54Z</time>
  <course>243.68</course>
  <speed>2.64</speed>
  <fix>3d</fix>
</trkpt>
<trkpt lat="-35.3645263" lon="149.1628638">
  <ele>682.05</ele>
  <time>2026-08-27T18:27:54Z</time>
  <course>256.82</course>
  <speed>1.8725917868024522</speed>
  <fix>3d</fix>
</trkpt>
<trkpt lat="-35.3645259" lon="149.1628659">
  <ele>681.94</ele>
  <time>2026-08-27T18:27:54Z</time>
  <course>253.03</course>
  <speed>2.15</speed>
  <fix>3d</fix>
</trkpt>
<trkpt lat="-35.3645263" lon="149.1628598">
  <ele>681.97</ele>
  <time>2026-08-27T18:27:54Z</time>
  <course>268.23</course>
  <speed>1.6555965692160635</speed>
  <fix>3d</fix>
</trkpt>
<trkpt lat="-35.3645265" lon="149.1628617">
  <ele>681.88</ele>
  <time>2026-08-27T18:27:54Z</time>
  <course>267.98</course>
  <speed>1.79</speed>
  <fix>3d</fix>
</trkpt>
<trkpt lat="-35.3645252" lon="149.1628563">
  <ele>681.89</ele>
  <time>2026-08-27T18:27:54Z</time>
  <course>278.71</course>
  <speed>1.7407182425654073</speed>
  <fix>3d</fix>
</trkpt>
<trkpt lat="-35.3645262" lon="149.162858">
  <ele>681.8</ele>
  <time>2026-08-27T18:27:54Z</time>
  <course>288.2</course>
  <speed>1.68</speed>
  <fix>3d</fix>
</trkpt>
<trkpt lat="-35.3645231" lon="149.162853">
  <ele>681.79</ele>
  <time>2026-08-27T18:27:54Z</time>
  <course>289.07</course>
  <speed>2.079663434308542</speed>
  <fix>3d</fix>
</trkpt>
<trkpt lat="-35.3645248" lon="149.1628546">
  <ele>681.7</ele>
  <time>2026-08-27T18:27:54Z</time>
  <course>307.35</course>
  <speed>1.86</speed>
  <fix>3d</fix>
</trkpt>
<trkpt lat="-35.3645199" lon="149.1628498">
  <ele>681.67</ele>
  <time>2026-08-27T18:27:54Z</time>
  <course>299.67</course>
  <speed>2.5655019002136794</speed>
  <fix>3d</fix>
</trkpt>
<trkpt lat="-35.3645221" lon="149.1628514">
  <ele>681.6</ele>
  <time>2026-08-27T18:27:54Z</time>
  <course>320.51</course>
  <speed>2.25</speed>
  <fix>3d</fix>
</trkpt>
<trkpt lat="-35.3645156" lon="149.1628465">
  <ele>681.54</ele>
  <time>2026-08-27T18:27:54Z</time>
  <course>310.66</course>
  <speed>3.1541242841714405</speed>
  <fix>3d</fix>
</trkpt>
<trkpt lat="-35.3645185" lon="149.1628483">
  <ele>681.47</ele>
  <time>2026-08-27T18:27:54Z</time>
  <course>328.48</course>
  <speed>2.77</speed>
  <fix>3d</fix>
</trkpt>
<trkpt lat="-35.36451" lon="149.1628431">
  <ele>681.39</ele>
  <time>2026-08-27T18:27:54Z</time>
  <course>322.33</course>
  <speed>3.8036824262811426</speed>
  <fix>3d</fix>
</trkpt>
<trkpt lat="-35.3645137" lon="149.162845">
  <ele>681.33</ele>
  <time>2026-08-27T18:27:54Z</time>
  <course>333.31</course>
  <speed>3.38</speed>
  <fix>3d</fix>
</trkpt>
<trkpt lat="-35.3645032" lon="149.1628395">
  <ele>681.21</ele>
  <time>2026-08-27T18:27:54Z</time>
  <course>334.51</course>
  <speed>4.482688925187649</speed>
  <fix>3d</fix>
</trkpt>
<trkpt lat="-35.3645076" lon="149.1628415">
  <ele>681.17</ele>
  <time>2026-08-27T18:27:54Z</time>
  <course>336.46</course>
  <speed>4.03</speed>
  <fix>3d</fix>
</trkpt>
<trkpt lat="-35.3644951" lon="149.1628357">
  <ele>681.02</ele>
  <time>2026-08-27T18:27:54Z</time>
  <course>338.75</course>
  <speed>5.168152474530912</speed>
  <fix>3d</fix>
</trkpt>
<trkpt lat="-35.3645003" lon="149.1628379">
  <ele>681.0</ele>
  <time>2026-08-27T18:27:54Z</time>
  <course>338.97</course>
  <speed>4.71</speed>
  <fix>3d</fix>
</trkpt>
<trkpt lat="-35.3644858" lon="149.1628318">
  <ele>680.83</ele>
  <time>2026-08-27T18:27:54Z</time>
  <course>339.43</course>
  <speed>5.793323743758845</speed>
  <fix>3d</fix>
</trkpt>
<trkpt lat="-35.3644918" lon="149.1628341">
  <ele>680.81</ele>
  <time>2026-08-27T18:27:54Z</time>
  <course>340.68</course>
  <speed>5.37</speed>
  <fix>3d</fix>
</trkpt>
<trkpt lat="-35.3644755" lon="149.1628275">
  <ele>680.63</ele>
  <time>2026-08-27T18:27:54Z</time>
  <course>340.04</course>
  <speed>6.334137668222882</speed>
  <fix>3d</fix>
</trkpt>
<trkpt lat="-35.3644821" lon="149.1628301">
  <ele>680.62</ele>
  <time>2026-08-27T18:27:54Z</time>
  <course>341.46</course>
  <speed>5.97</speed>
  <fix>3d</fix>
</trkpt>
<trkpt lat="-35.3644644" lon="149.1628231">
  <ele>680.43</ele>
  <time>2026-08-27T18:27:54Z</time>
  <course>340.68</course>
  <speed>6.789675986378143</speed>
  <fix>3d</fix>
</trkpt>
<trkpt lat="-35.3644714" lon="149.1628257">
  <ele>680.42</ele>
  <time>2026-08-27T18:27:54Z</time>
  <course>341.86</course>
  <speed>6.49</speed>
  <fix>3d</fix>
</trkpt>
<trkpt lat="-35.3644526" lon="149.1628184">
  <ele>680.23</ele>
  <time>2026-08-27T18:27:54Z</time>
  <course>341.29</course>
  <speed>7.150419568109274</speed>
  <fix>3d</fix>
</trkpt>
<trkpt lat="-35.3644599" lon="149.1628211">
  <ele>680.22</ele>
  <time>2026-08-27T18:27:54Z</time>
  <course>342.08</course>
  <speed>6.92</speed>
  <fix>3d</fix>
</trkpt>
<trkpt lat="-35.3644402" lon="149.1628135">
  <ele>680.02</ele>
  <time>2026-08-27T18:27:54Z</time>
  <course>341.82</course>
  <speed>7.422432215924911</speed>
  <fix>3d</fix>
</trkpt>
<trkpt lat="-35.3644479" lon="149.1628163">
  <ele>680.02</ele>
  <time>2026-08-27T18:27:54Z</time>
  <course>342.21</course>
  <speed>7.26</speed>
  <fix>3d</fix>
</trkpt>
<trkpt lat="-35.3644274" lon="149.1628084">
  <ele>679.81</ele>
  <time>2026-08-27T18:27:54Z</time>
  <course>342.39</course>
  <speed>7.6251491788685675</speed>
  <fix>3d</fix>
</trkpt>
<trkpt lat="-35.3644352" lon="149.1628114">
  <ele>679.81</ele>
  <time>2026-08-27T18:27:54Z</time>
  <course>342.35</course>
  <speed>7.51</speed>
  <fix>3d</fix>
</trkpt>
<trkpt lat="-35.3644143" lon="149.1628034">
  <ele>679.58</ele>
  <time>2026-08-27T18:27:54Z</time>
  <course>343.06</course>
  <speed>7.768294536125674</speed>
  <fix>3d</fix>
</trkpt>
<trkpt lat="-35.3644222" lon="149.1628063">
  <ele>679.6</ele>
  <time>2026-08-27T18:27:54Z</time>
  <course>342.57</course>
  <speed>7.7</speed>
  <fix>3d</fix>
</trkpt>
<trkpt lat="-35.3644009" lon="149.1627983">
  <ele>679.34</ele>
  <time>2026-08-27T18:27:54Z</time>
  <course>343.81</course>
  <speed>7.877182237323192</speed>
  <fix>3d</fix>
</trkpt>
<trkpt lat="-35.3644088" lon="149.1628012">
  <ele>679.37</ele>
  <time>2026-08-27T18:27:54Z</time>
  <course>342.93</course>
  <speed>7.83</speed>
  <fix>3d</fix>
</trkpt>
<trkpt lat="-35.3643873" lon="149.1627933">
  <ele>679.08</ele>
  <time>2026-08-27T18:27:54Z</time>
  <course>344.59</course>
  <speed>7.952012323934112</speed>
  <fix>3d</fix>
</trkpt>
<trkpt lat="-35.3643953" lon="149.1627962">
  <ele>679.12</ele>
  <time>2026-08-27T18:27:54Z</time>
  <course>343.4</course>
  <speed>7.93</speed>
  <fix>3d</fix>
</trkpt>
<trkpt lat="-35.3643735" lon="149.1627885">
  <ele>678.82</ele>
  <time>2026-08-27T18:27:54Z</time>
  <course>345.37</course>
  <speed>7.993028212135873</speed>
  <fix>3d</fix>
</trkpt>
<trkpt lat="-35.3643816" lon="149.1627913">
  <ele>678.86</ele>
  <time>2026-08-27T18:27:54Z</time>
  <course>343.92</course>
  <speed>7.99</speed>
  <fix>3d</fix>
</trkpt>
<trkpt lat="-35.3643596" lon="149.1627837">
  <ele>678.54</ele>
  <time>2026-08-27T18:27:54Z</time>
  <course>346.13</course>
  <speed>8.015441347798635</speed>
  <fix>3d</fix>
</trkpt>
<trkpt lat="-35.3643677" lon="149.1627864">
  <ele>678.58</ele>
  <time>2026-08-27T18:27:54Z</time>
  <course>344.47</course>
  <speed>8.03</speed>
  <fix>3d</fix>
</trkpt>
<trkpt lat="-35.3643456" lon="149.1627791">
  <ele>678.24</ele>
  <time>2026-08-27T18:27:54Z</time>
  <course>346.83</course>
  <speed>8.00687829306778</speed>
  <fix>3d</fix>
</trkpt>
<trkpt lat="-35.3643538" lon="149.1627818">
  <ele>678.29</ele>
  <time>2026-08-27T18:27:54Z</time>
  <course>345.01</course>
  <speed>8.03</speed>
  <fix>3d</fix>
</trkpt>
<trkpt lat="-35.3643317" lon="149.1627747">
  <ele>677.94</ele>
  <time>2026-08-27T18:27:54Z</time>
  <course>347.46</course>
  <speed>7.969868254870968</speed>
  <fix>3d</fix>
</trkpt>
<trkpt lat="-35.3643397" lon="149.1627773">
  <ele>678.0</ele>
  <time>2026-08-27T18:27:54Z</time>
  <course>345.51</course>
  <speed>8.01</speed>
  <fix>3d</fix>
</trkpt>
<trkpt lat="-35.3643178" lon="149.1627704">
  <ele>677.64</ele>
  <time>2026-08-27T18:27:54Z</time>
  <course>348.04</course>
  <speed>7.896961440959427</speed>
  <fix>3d</fix>
</trkpt>
<trkpt lat="-35.3643258" lon="149.162773">
  <ele>677.7</ele>
  <time>2026-08-27T18:27:54Z</time>
  <course>345.96</course>
  <speed>7.96</speed>
  <fix>3d</fix>
</trkpt>
<trkpt lat="-35.3643041" lon="149.1627663">
  <ele>677.34</ele>
  <time>2026-08-27T18:27:54Z</time>
  <course>348.51</course>
  <speed>7.814582522438419</speed>
  <fix>3d</fix>
</trkpt>
<trkpt lat="-35.364312" lon="149.1627688">
  <ele>677.41</ele>
  <time>2026-08-27T18:27:54Z</time>
  <course>346.34</course>
  <speed>7.88</speed>
  <fix>3d</fix>
</trkpt>
<trkpt lat="-35.3642905" lon="149.1627623">
  <ele>677.03</ele>
  <time>2026-08-27T18:27:54Z</time>
  <course>348.84</course>
  <speed>7.734759207628897</speed>
  <fix>3d</fix>
</trkpt>
<trkpt lat="-35.3642983" lon="149.1627648">
  <ele>677.11</ele>
  <time>2026-08-27T18:27:54Z</time>
  <course>346.64</course>
  <speed>7.8</speed>
  <fix>3d</fix>
</trkpt>
<trkpt lat="-35.364277" lon="149.1627584">
  <ele>676.72</ele>
  <time>2026-08-27T18:27:54Z</time>
  <course>348.97</course>
  <speed>7.679147088056069</speed>
  <fix>3d</fix>
</trkpt>
<trkpt lat="-35.3642848" lon="149.1627609">
  <ele>676.81</ele>
  <time>2026-08-27T18:27:54Z</time>
  <course>346.86</course>
  <speed>7.72</speed>
  <fix>3d</fix>
</trkpt>
<trkpt lat="-35.3642636" lon="149.1627546">
  <ele>676.4</ele>
  <time>2026-08-27T18:27:54Z</time>
  <course>348.92</course>
  <speed>7.647646696860415</speed>
  <fix>3d</fix>
</trkpt>
<trkpt lat="-35.3642713" lon="149.1627571">
  <ele>676.5</ele>
  <time>2026-08-27T18:27:54Z</time>
  <course>346.98</course>
  <speed>7.66</speed>
  <fix>3d</fix>
</trkpt>
<trkpt lat="-35.3642502" lon="149.1627508">
  <ele>676.08</ele>
  <time>2026-08-27T18:27:54Z</time>
  <course>348.69</course>
  <speed>7.649967320191636</speed>
  <fix>3d</fix>
</trkpt>
<trkpt lat="-35.3642579" lon="149.1627533">
  <ele>676.18</ele>
  <time>2026-08-27T18:27:54Z</time>
  <course>346.96</course>
  <speed>7.63</speed>
  <fix>3d</fix>
</trkpt>
<trkpt lat="-35.3642368" lon="149.1627469">
  <ele>675.76</ele>
  <time>2026-08-27T18:27:54Z</time>
  <course>348.31</course>
  <speed>7.669087299020659</speed>
  <fix>3d</fix>
</trkpt>
<trkpt lat="-35.3642446" lon="149.1627494">
  <ele>675.86</ele>
  <time>2026-08-27T18:27:54Z</time>
  <course>346.78</course>
  <speed>7.63</speed>
  <fix>3d</fix>
</trkpt>
<trkpt lat="-35.3642233" lon="149.1627429">
  <ele>675.45</ele>
  <time>2026-08-27T18:27:54Z</time>
  <course>347.79</course>
  <speed>7.702940996788175</speed>
  <fix>3d</fix>
</trkpt>
<trkpt lat="-35.3642312" lon="149.1627455">
  <ele>675.54</ele>
  <time>2026-08-27T18:27:54Z</time>
  <course>346.46</course>
  <speed>7.66</speed>
  <fix>3d</fix>
</trkpt>
<trkpt lat="-35.3642099" lon="149.1627388">
  <ele>675.13</ele>
  <time>2026-08-27T18:27:54Z</time>
  <course>347.18</course>
  <speed>7.749354811853695</speed>
  <fix>3d</fix>
</trkpt>
<trkpt lat="-35.3642178" lon="149.1627415">
  <ele>675.23</ele>
  <time>2026-08-27T18:27:54Z</time>
  <course>346.02</course>
  <speed>7.69</speed>
  <fix>3d</fix>
</trkpt>
<trkpt lat="-35.3641963" lon="149.1627345">
  <ele>674.82</ele>
  <time>2026-08-27T18:27:54Z</time>
  <course>346.53</course>
  <speed>7.811094673603694</speed>
  <fix>3d</fix>
</trkpt>
<trkpt lat="-35.3642043" lon="149.1627373">
  <ele>674.92</ele>
  <time>2026-08-27T18:27:54Z</time>
  <course>345.5</course>
  <speed>7.74</speed>
  <fix>3d</fix>
</trkpt>
<trkpt lat="-35.3641827" lon="149.16273">
  <ele>674.52</ele>
  <time>2026-08-27T18:27:54Z</time>
  <course>345.86</course>
  <speed>7.880513942630899</speed>
  <fix>3d</fix>
</trkpt>
<trkpt lat="-35.3641908" lon="149.1627329">
  <ele>674.62</ele>
  <time>2026-08-27T18:27:54Z</time>
  <course>344.94</course>
  <speed>7.8</speed>
  <fix>3d</fix>
</trkpt>
<trkpt lat="-35.3641691" lon="149.1627253">
  <ele>674.22</ele>
  <time>2026-08-27T18:27:54Z</time>
  <course>345.21</course>
  <speed>7.943613787187794</speed>
  <fix>3d</fix>
</trkpt>
<trkpt lat="-35.3641772" lon="149.1627284">
  <ele>674.31</ele>
  <time>2026-08-27T18:27:54Z</time>
  <course>344.38</course>
  <speed>7.87</speed>
  <fix>3d</fix>
</trkpt>
<trkpt lat="-35.3641554" lon="149.1627204">
  <ele>673.92</ele>
  <time>2026-08-27T18:27:54Z</time>
  <course>344.63</course>
  <speed>8.004561199716072</speed>
  <fix>3d</fix>
</trkpt>
<trkpt lat="-35.3641636" lon="149.1627236">
  <ele>674.02</ele>
  <time>2026-08-27T18:27:54Z</time>
  <course>343.83</course>
  <speed>7.93</speed>
  <fix>3d</fix>
</trkpt>
<trkpt lat="-35.3641416" lon="149.1627154">
  <ele>673.63</ele>
  <time>2026-08-27T18:27:54Z</time>
  <course>344.13</course>
  <speed>8.06310734146582</speed>
  <fix>3d</fix>
</trkpt>
<trkpt lat="-35.3641499" lon="149.1627187">
  <ele>673.73</ele>
  <time>2026-08-27T18:27:54Z</time>
  <course>343.34</course>
  <speed>7.99</speed>
  <fix>3d</fix>
</trkpt>
<trkpt lat="-35.3641278" lon="149.1627102">
  <ele>673.34</ele>
  <time>2026-08-27T18:27:54Z</time>
  <course>343.68</course>
  <speed>8.119045510403302</speed>
  <fix>3d</fix>
</trkpt>
<trkpt lat="-35.364136" lon="149.1627135">
  <ele>673.45</ele>
  <time>2026-08-27T18:27:54Z</time>
  <course>342.91</course>
  <speed>8.06</speed>
  <fix>3d</fix>
</trkpt>
<trkpt lat="-35.364114" lon="149.1627049">
  <ele>673.05</ele>
  <time>2026-08-27T18:27:54Z</time>
  <course>343.34</course>
  <speed>8.175236999622703</speed>
  <fix>3d</fix>
</trkpt>
<trkpt lat="-35.3641222" lon="149.1627082">
  <ele>673.16</ele>
  <time>2026-08-27T18:27:54Z</time>
  <course>342.56</course>
  <speed>8.12</speed>
  <fix>3d</fix>
</trkpt>
<trkpt lat="-35.3641" lon="149.1626995">
  <ele>672.77</ele>
  <time>2026-08-27T18:27:55Z</time>
  <course>343.05</course>
  <speed>8.225527338718168</speed>
  <fix>3d</fix>
</trkpt>
<trkpt lat="-35.3641082" lon="149.1627028">
  <ele>672.88</ele>
  <time>2026-08-27T18:27:55Z</time>
  <course>342.28</course>
  <speed>8.18</speed>
  <fix>3d</fix>
</trkpt>
<trkpt lat="-35.3640859" lon="149.1626939">
  <ele>672.48</ele>
  <time>2026-08-27T18:27:55Z</time>
  <course>342.86</course>
  <speed>8.27281088868832</speed>
  <fix>3d</fix>
</trkpt>
<trkpt lat="-35.3640941" lon="149.1626973">
  <ele>672.59</ele>
  <time>2026-08-27T18:27:55Z</time>
  <course>342.07</course>
  <speed>8.23</speed>
  <fix>3d</fix>
</trkpt>
<trkpt lat="-35.3640717" lon="149.1626883">
  <ele>672.19</ele>
  <time>2026-08-27T18:27:55Z</time>
  <course>342.76</course>
  <speed>8.31703072015488</speed>
  <fix>3d</fix>
</trkpt>
<trkpt lat="-35.36408" lon="149.1626916">
  <ele>672.3</ele>
  <time>2026-08-27T18:27:55Z</time>
  <course>341.94</course>
  <speed>8.28</speed>
  <fix>3d</fix>
</trkpt>
<trkpt lat="-35.3640575" lon="149.1626826">
  <ele>671.9</ele>
  <time>2026-08-27T18:27:55Z</time>
  <course>342.77</course>
  <speed>8.34865258589672</speed>
  <fix>3d</fix>
</trkpt>
<trkpt lat="-35.3640658" lon="149.1626859">
  <ele>672.01</ele>
  <time>2026-08-27T18:27:55Z</time>
  <course>341.88</course>
  <speed>8.32</speed>
  <fix>3d</fix>
</trkpt>
<trkpt lat="-35.3640432" lon="149.1626769">
  <ele>671.61</ele>
  <time>2026-08-27T18:27:55Z</time>
  <course>342.82</course>
  <speed>8.367675901945534</speed>
  <fix>3d</fix>
</trkpt>
<trkpt lat="-35.3640515" lon="149.1626802">
  <ele>671.72</ele>
  <time>2026-08-27T18:27:55Z</time>
  <course>341.9</course>
  <speed>8.36</speed>
  <fix>3d</fix>
</trkpt>
<trkpt lat="-35.3640289" lon="149.1626712">
  <ele>671.32</ele>
  <time>2026-08-27T18:27:55Z</time>
  <course>342.95</course>
  <speed>8.383632864098951</speed>
  <fix>3d</fix>
</trkpt>
<trkpt lat="-35.3640373" lon="149.1626745">
  <ele>671.43</ele>
  <time>2026-08-27T18:27:55Z</time>
  <course>341.97</course>
  <speed>8.38</speed>
  <fix>3d</fix>
</trkpt>
<trkpt lat="-35.3640146" lon="149.1626656">
  <ele>671.03</ele>
  <time>2026-08-27T18:27:55Z</time>
  <course>343.18</course>
  <speed>8.38401455151409</speed>
  <fix>3d</fix>
</trkpt>
<trkpt lat="-35.3640229" lon="149.1626688">
  <ele>671.14</ele>
  <time>2026-08-27T18:27:55Z</time>
  <course>342.11</course>
  <speed>8.39</speed>
  <fix>3d</fix>
</trkpt>
<trkpt lat="-35.3640002" lon="149.16266">
  <ele>670.73</ele>
  <time>2026-08-27T18:27:55Z</time>
  <course>343.42</course>
  <speed>8.374974626827235</speed>
  <fix>3d</fix>
</trkpt>
<trkpt lat="-35.3640086" lon="149.1626632">
  <ele>670.85</ele>
  <time>2026-08-27T18:27:55Z</time>
  <course>342.29</course>
  <speed>8.39</speed>
  <fix>3d</fix>
</trkpt>
<trkpt lat="-35.3639859" lon="149.1626545">
  <ele>670.44</ele>
  <time>2026-08-27T18:27:55Z</time>
  <course>343.67</course>
  <speed>8.363073597667308</speed>
  <fix>3d</fix>
</trkpt>
<trkpt lat="-35.3639942" lon="149.1626576">
  <ele>670.56</ele>
  <time>2026-08-27T18:27:55Z</time>
  <course>342.51</course>
  <speed>8.38</speed>
  <fix>3d</fix>
</trkpt>
<trkpt lat="-35.3639716" lon="149.162649">
  <ele>670.15</ele>
  <time>2026-08-27T18:27:55Z</time>
  <course>343.93</course>
  <speed>8.341780385505244</speed>
  <fix>3d</fix>
</trkpt>
<trkpt lat="-35.3639798" lon="149.1626521">
  <ele>670.26</ele>
  <time>2026-08-27T18:27:55Z</time>
  <course>342.76</course>
  <speed>8.37</speed>
  <fix>3d</fix>
</trkpt>
<trkpt lat="-35.3639573" lon="149.1626437">
  <ele>669.85</ele>
  <time>2026-08-27T18:27:55Z</time>
  <course>344.22</course>
  <speed>8.320636994846007</speed>
  <fix>3d</fix>
</trkpt>
<trkpt lat="-35.3639655" lon="149.1626466">
  <ele>669.97</ele>
  <time>2026-08-27T18:27:55Z</time>
  <course>343.02</course>
  <speed>8.35</speed>
  <fix>3d</fix>
</trkpt>
<trkpt lat="-35.3639429" lon="149.1626384">
  <ele>669.55</ele>
  <time>2026-08-27T18:27:55Z</time>
  <course>344.49</course>
  <speed>8.299644570703013</speed>
  <fix>3d</fix>
</trkpt>
<trkpt lat="-35.3639512" lon="149.1626413">
  <ele>669.67</ele>
  <time>2026-08-27T18:27:55Z</time>
  <course>343.28</course>
  <speed>8.34</speed>
  <fix>3d</fix>
</trkpt>
<trkpt lat="-35.3639285" lon="149.1626332">
  <ele>669.25</ele>
  <time>2026-08-27T18:27:55Z</time>
  <course>344.73</course>
  <speed>8.278804261486075</speed>
  <fix>3d</fix>
</trkpt>
<trkpt lat="-35.3639368" lon="149.162636">
  <ele>669.37</ele>
  <time>2026-08-27T18:27:55Z</time>
  <course>343.53</course>
  <speed>8.31</speed>
  <fix>3d</fix>
</trkpt>
<trkpt lat="-35.3639142" lon="149.1626281">
  <ele>668.95</ele>
  <time>2026-08-27T18:27:55Z</time>
  <course>344.95</course>
  <speed>8.251260509764553</speed>
  <fix>3d</fix>
</trkpt>
<trkpt lat="-35.3639225" lon="149.1626309">
  <ele>669.06</ele>
  <time>2026-08-27T18:27:55Z</time>
  <course>343.76</course>
  <speed>8.29</speed>
  <fix>3d</fix>
</trkpt>
<trkpt lat="-35.3638999" lon="149.162623">
  <ele>668.65</ele>
  <time>2026-08-27T18:27:55Z</time>
  <course>345.16</course>
  <speed>8.223782584674767</speed>
  <fix>3d</fix>
</trkpt>
<trkpt lat="-35.3639081" lon="149.1626259">
  <ele>668.77</ele>
  <time>2026-08-27T18:27:55Z</time>
  <course>343.96</course>
  <speed>8.26</speed>
  <fix>3d</fix>
</trkpt>
<trkpt lat="-35.3638856" lon="149.1626181">
  <ele>668.35</ele>
  <time>2026-08-27T18:27:55Z</time>
  <course>345.33</course>
  <speed>8.196371148258233</speed>
  <fix>3d</fix>
</trkpt>
<trkpt lat="-35.3638938" lon="149.1626208">
  <ele>668.47</ele>
  <time>2026-08-27T18:27:55Z</time>
  <course>344.13</course>
  <speed>8.23</speed>
  <fix>3d</fix>
</trkpt>
<trkpt lat="-35.3638714" lon="149.1626132">
  <ele>668.05</ele>
  <time>2026-08-27T18:27:55Z</time>
  <course>345.46</course>
  <speed>8.159393359803166</speed>
  <fix>3d</fix>
</trkpt>
<trkpt lat="-35.3638797" lon="149.1626159">
  <ele>668.17</ele>
  <time>2026-08-27T18:27:55Z</time>
  <course>344.27</course>
  <speed>8.2</speed>
  <fix>3d</fix>
</trkpt>
<trkpt lat="-35.3638573" lon="149.1626083">
  <ele>667.74</ele>
  <time>2026-08-27T18:27:55Z</time>
  <course>345.53</course>
  <speed>8.137444316245734</speed>
  <fix>3d</fix>
</trkpt>
<trkpt lat="-35.3638655" lon="149.1626111">
  <ele>667.87</ele>
  <time>2026-08-27T18:27:55Z</time>
  <course>344.37</course>
  <speed>8.17</speed>
  <fix>3d</fix>
</trkpt>
<trkpt lat="-35.3638432" lon="149.1626035">
  <ele>667.44</ele>
  <time>2026-08-27T18:27:55Z</time>
  <course>345.56</course>
  <speed>8.103190729583009</speed>
  <fix>3d</fix>
</trkpt>
<trkpt lat="-35.3638514" lon="149.1626063">
  <ele>667.56</ele>
  <time>2026-08-27T18:27:55Z</time>
  <course>344.44</course>
  <speed>8.14</speed>
  <fix>3d</fix>
</trkpt>
<trkpt lat="-35.3638291" lon="149.1625987">
  <ele>667.14</ele>
  <time>2026-08-27T18:27:55Z</time>
  <course>345.52</course>
  <speed>8.083916130193336</speed>
  <fix>3d</fix>
</trkpt>
<trkpt lat="-35.3638373" lon="149.1626015">
  <ele>667.27</ele>
  <time>2026-08-27T18:27:55Z</time>
  <course>344.46</course>
  <speed>8.11</speed>
  <fix>3d</fix>
</trkpt>
<trkpt lat="-35.3638151" lon="149.1625939">
  <ele>666.84</ele>
  <time>2026-08-27T18:27:55Z</time>
  <course>345.48</course>
  <speed>8.064645063485436</speed>
  <fix>3d</fix>
</trkpt>
<trkpt lat="-35.3638234" lon="149.1625967">
  <ele>666.97</ele>
  <time>2026-08-27T18:27:55Z</time>
  <course>344.44</course>
  <speed>8.09</speed>
  <fix>3d</fix>
</trkpt>
<trkpt lat="-35.3638011" lon="149.1625891">
  <ele>666.54</ele>
  <time>2026-08-27T18:27:55Z</time>
  <course>345.39</course>
  <speed>8.048068091163245</speed>
  <fix>3d</fix>
</trkpt>
<trkpt lat="-35.3638093" lon="149.1625919">
  <ele>666.67</ele>
  <time>2026-08-27T18:27:55Z</time>
  <course>344.39</course>
  <speed>8.07</speed>
  <fix>3d</fix>
</trkpt>
<trkpt lat="-35.363787" lon="149.1625843">
  <ele>666.24</ele>
  <time>2026-08-27T18:27:55Z</time>
  <course>345.26</course>
  <speed>8.04114419718985</speed>
  <fix>3d</fix>
</trkpt>
<trkpt lat="-35.3637954" lon="149.1625871">
  <ele>666.37</ele>
  <time>2026-08-27T18:27:55Z</time>
  <course>344.31</course>
  <speed>8.06</speed>
  <fix>3d</fix>
</trkpt>
<trkpt lat="-35.3637731" lon="149.1625794">
  <ele>665.93</ele>
  <time>2026-08-27T18:27:55Z</time>
  <course>345.12</course>
  <speed>8.03423922969686</speed>
  <fix>3d</fix>
</trkpt>
<trkpt lat="-35.3637815" lon="149.1625823">
  <ele>666.06</ele>
  <time>2026-08-27T18:27:55Z</time>
  <course>344.21</course>
  <speed>8.05</speed>
  <fix>3d</fix>
</trkpt>
<trkpt lat="-35.3637592" lon="149.1625746">
  <ele>665.62</ele>
  <time>2026-08-27T18:27:55Z</time>
  <course>344.96</course>
  <speed>8.030099625782983</speed>
  <fix>3d</fix>
</trkpt>
<trkpt lat="-35.3637675" lon="149.1625774">
  <ele>665.76</ele>
  <time>2026-08-27T18:27:55Z</time>
  <course>344.08</course>
  <speed>8.04</speed>
  <fix>3d</fix>
</trkpt>
<trkpt lat="-35.3637453" lon="149.1625697">
  <ele>665.32</ele>
  <time>2026-08-27T18:27:55Z</time>
  <course>344.76</course>
  <speed>8.035626920159995</speed>
  <fix>3d</fix>
</trkpt>
<trkpt lat="-35.3637536" lon="149.1625725">
  <ele>665.45</ele>
  <time>2026-08-27T18:27:55Z</time>
  <course>343.94</course>
  <speed>8.04</speed>
  <fix>3d</fix>
</trkpt>
<trkpt lat="-35.3637315" lon="149.1625647">
  <ele>665.02</ele>
  <time>2026-08-27T18:27:55Z</time>
  <course>344.54</course>
  <speed>8.031600089645899</speed>
  <fix>3d</fix>
</trkpt>
<trkpt lat="-35.3637397" lon="149.1625676">
  <ele>665.16</ele>
  <time>2026-08-27T18:27:55Z</time>
  <course>343.79</course>
  <speed>8.04</speed>
  <fix>3d</fix>
</trkpt>
<trkpt lat="-35.3637177" lon="149.1625598">
  <ele>664.71</ele>
  <time>2026-08-27T18:27:55Z</time>
  <course>344.33</course>
  <speed>8.046819247379675</speed>
  <fix>3d</fix>
</trkpt>
<trkpt lat="-35.3637258" lon="149.1625627">
  <ele>664.86</ele>
  <time>2026-08-27T18:27:55Z</time>
  <course>343.64</course>
  <speed>8.05</speed>
  <fix>3d</fix>
</trkpt>
<trkpt lat="-35.3637038" lon="149.1625547">
  <ele>664.41</ele>
  <time>2026-08-27T18:27:55Z</time>
  <course>344.13</course>
  <speed>8.05248408877658</speed>
  <fix>3d</fix>
</trkpt>
<trkpt lat="-35.3637119" lon="149.1625576">
  <ele>664.56</ele>
  <time>2026-08-27T18:27:55Z</time>
  <course>343.5</course>
  <speed>8.06</speed>
  <fix>3d</fix>
</trkpt>
<trkpt lat="-35.36369" lon="149.1625497">
  <ele>664.11</ele>
  <time>2026-08-27T18:27:55Z</time>
  <course>343.96</course>
  <speed>8.077357241078296</speed>
  <fix>3d</fix>
</trkpt>
<trkpt lat="-35.363698" lon="149.1625525">
  <ele>664.26</ele>
  <time>2026-08-27T18:27:55Z</time>
  <course>343.37</course>
  <speed>8.08</speed>
  <fix>3d</fix>
</trkpt>
<trkpt lat="-35.3636761" lon="149.1625446">
  <ele>663.81</ele>
  <time>2026-08-27T18:27:55Z</time>
  <course>343.82</course>
  <speed>8.092675700903873</speed>
  <fix>3d</fix>
</trkpt>
<trkpt lat="-35.3636841" lon="149.1625474">
  <ele>663.97</ele>
  <time>2026-08-27T18:27:55Z</time>
  <course>343.25</course>
  <speed>8.1</speed>
  <fix>3d</fix>
</trkpt>
<trkpt lat="-35.3636622" lon="149.1625394">
  <ele>663.52</ele>
  <time>2026-08-27T18:27:55Z</time>
  <course>343.67</course>
  <speed>8.117598166945688</speed>
  <fix>3d</fix>
</trkpt>
<trkpt lat="-35.3636702" lon="149.1625422">
  <ele>663.67</ele>
  <time>2026-08-27T18:27:55Z</time>
  <course>343.15</course>
  <speed>8.12</speed>
  <fix>3d</fix>
</trkpt>
<trkpt lat="-35.3636482" lon="149.1625341">
  <ele>663.22</ele>
  <time>2026-08-27T18:27:55Z</time>
  <course>343.55</course>
  <speed>8.130067650395045</speed>
  <fix>3d</fix>
</trkpt>
<trkpt lat="-35.3636561" lon="149.1625371">
  <ele>663.37</ele>
  <time>2026-08-27T18:27:55Z</time>
  <course>343.06</course>
  <speed>8.15</speed>
  <fix>3d</fix>
</trkpt>
<trkpt lat="-35.3636341" lon="149.1625289">
  <ele>662.93</ele>
  <time>2026-08-27T18:27:55Z</time>
  <course>343.5</course>
  <speed>8.152110156272423</speed>
  <fix>3d</fix>
</trkpt>
<trkpt lat="-35.3636422" lon="149.1625318">
  <ele>663.07</ele>
  <time>2026-08-27T18:27:55Z</time>
  <course>343.0</course>
  <speed>8.17</speed>
  <fix>3d</fix>
</trkpt>
<trkpt lat="-35.36362" lon="149.1625236">
  <ele>662.64</ele>
  <time>2026-08-27T18:27:55Z</time>
  <course>343.48</course>
  <speed>8.17415439051649</speed>
  <fix>3d</fix>
</trkpt>
<trkpt lat="-35.3636281" lon="149.1625265">
  <ele>662.78</ele>
  <time>2026-08-27T18:27:55Z</time>
  <course>342.97</course>
  <speed>8.19</speed>
  <fix>3d</fix>
</trkpt>
<trkpt lat="-35.3636059" lon="149.1625183">
  <ele>662.34</ele>
  <time>2026-08-27T18:27:55Z</time>
  <course>343.48</course>
  <speed>8.183721647270268</speed>
  <fix>3d</fix>
</trkpt>
<trkpt lat="-35.363614" lon="149.1625212">
  <ele>662.49</ele>
  <time>2026-08-27T18:27:55Z</time>
  <course>342.96</course>
  <speed>8.21</speed>
  <fix>3d</fix>
</trkpt>
<trkpt lat="-35.3635917" lon="149.162513">
  <ele>662.05</ele>
  <time>2026-08-27T18:27:55Z</time>
  <course>343.5</course>
  <speed>8.202859257600364</speed>
  <fix>3d</fix>
</trkpt>
<trkpt lat="-35.3635998" lon="149.1625159">
  <ele>662.19</ele>
  <time>2026-08-27T18:27:55Z</time>
  <course>342.98</course>
  <speed>8.22</speed>
  <fix>3d</fix>
</trkpt>
<trkpt lat="-35.3635776" lon="149.1625077">
  <ele>661.75</ele>
  <time>2026-08-27T18:27:55Z</time>
  <course>343.56</course>
  <speed>8.212429603960084</speed>
  <fix>3d</fix>
</trkpt>
<trkpt lat="-35.3635857" lon="149.1625106">
  <ele>661.9</ele>
  <time>2026-08-27T18:27:55Z</time>
  <course>343.01</course>
  <speed>8.23</speed>
  <fix>3d</fix>
</trkpt>
<trkpt lat="-35.3635634" lon="149.1625024">
  <ele>661.45</ele>
  <time>2026-08-27T18:27:55Z</time>
  <course>343.63</course>
  <speed>8.209537136769649</speed>
  <fix>3d</fix>
</trkpt>
<trkpt lat="-35.3635716" lon="149.1625053">
  <ele>661.6</ele>
  <time>2026-08-27T18:27:55Z</time>
  <course>343.07</course>
  <speed>8.24</speed>
  <fix>3d</fix>
</trkpt>
<trkpt lat="-35.3635492" lon="149.1624971">
  <ele>661.16</ele>
  <time>2026-08-27T18:27:55Z</time>
  <course>343.72</course>
  <speed>8.216233930457433</speed>
  <fix>3d</fix>
</trkpt>
<trkpt lat="-35.3635574" lon="149.1625001">
  <ele>661.3</ele>
  <time>2026-08-27T18:27:55Z</time>
  <course>343.14</course>
  <speed>8.24</speed>
  <fix>3d</fix>
</trkpt>
<trkpt lat="-35.3635351" lon="149.1624919">
  <ele>660.86</ele>
  <time>2026-08-27T18:27:55Z</time>
  <course>343.8</course>
  <speed>8.213367153610022</speed>
  <fix>3d</fix>
</trkpt>
<trkpt lat="-35.3635433" lon="149.1624948">
  <ele>661.0</ele>
  <time>2026-08-27T18:27:55Z</time>
  <course>343.23</course>
  <speed>8.24</speed>
  <fix>3d</fix>
</trkpt>
<trkpt lat="-35.3635209" lon="149.1624867">
  <ele>660.57</ele>
  <time>2026-08-27T18:27:55Z</time>
  <course>343.91</course>
  <speed>8.20766714724714</speed>
  <fix>3d</fix>
</trkpt>
<trkpt lat="-35.363529" lon="149.1624896">
  <ele>660.69</ele>
  <time>2026-08-27T18:27:55Z</time>
  <course>343.32</course>
  <speed>8.24</speed>
  <fix>3d</fix>
</trkpt>
<trkpt lat="-35.3635067" lon="149.1624815">
  <ele>660.27</ele>
  <time>2026-08-27T18:27:55Z</time>
  <course>343.99</course>
  <speed>8.204833941037442</speed>
  <fix>3d</fix>
</trkpt>
<trkpt lat="-35.3635149" lon="149.1624843">
  <ele>660.4</ele>
  <time>2026-08-27T18:27:55Z</time>
  <course>343.41</course>
  <speed>8.23</speed>
  <fix>3d</fix>
</trkpt>
<trkpt lat="-35.3634924" lon="149.1624763">
  <ele>659.97</ele>
  <time>2026-08-27T18:27:55Z</time>
  <course>344.09</course>
  <speed>8.202011948296589</speed>
  <fix>3d</fix>
</trkpt>
<trkpt lat="-35.3635007" lon="149.1624792">
  <ele>660.1</ele>
  <time>2026-08-27T18:27:55Z</time>
  <course>343.51</course>
  <speed>8.23</speed>
  <fix>3d</fix>
</trkpt>
<trkpt lat="-35.3634782" lon="149.1624712">
  <ele>659.66</ele>
  <time>2026-08-27T18:27:55Z</time>
  <course>344.19</course>
  <speed>8.186800351785793</speed>
  <fix>3d</fix>
</trkpt>
<trkpt lat="-35.3634865" lon="149.1624741">
  <ele>659.79</ele>
  <time>2026-08-27T18:27:55Z</time>
  <course>343.6</course>
  <speed>8.22</speed>
  <fix>3d</fix>
</trkpt>
<trkpt lat="-35.363464" lon="149.1624661">
  <ele>659.36</ele>
  <time>2026-08-27T18:27:55Z</time>
  <course>344.26</course>
  <speed>8.18400879764923</speed>
  <fix>3d</fix>
</trkpt>
<trkpt lat="-35.3634723" lon="149.162469">
  <ele>659.49</ele>
  <time>2026-08-27T18:27:55Z</time>
  <course>343.68</course>
  <speed>8.21</speed>
  <fix>3d</fix>
</trkpt>
<trkpt lat="-35.3634498" lon="149.1624611">
  <ele>659.05</ele>
  <time>2026-08-27T18:27:55Z</time>
  <course>344.33</course>
  <speed>8.171621626091115</speed>
  <fix>3d</fix>
</trkpt>
<trkpt lat="-35.3634581" lon="149.1624639">
  <ele>659.18</ele>
  <time>2026-08-27T18:27:55Z</time>
  <course>343.75</course>
  <speed>8.2</speed>
  <fix>3d</fix>
</trkpt>
<trkpt lat="-35.3634357" lon="149.162456">
  <ele>658.75</ele>
  <time>2026-08-27T18:27:55Z</time>
  <course>344.35</course>
  <speed>8.168849368179096</speed>
  <fix>3d</fix>
</trkpt>
<trkpt lat="-35.363444" lon="149.1624589">
  <ele>658.88</ele>
  <time>2026-08-27T18:27:55Z</time>
  <course>343.81</course>
  <speed>8.19</speed>
  <fix>3d</fix>
</trkpt>
<trkpt lat="-35.3634215" lon="149.162451">
  <ele>658.44</ele>
  <time>2026-08-27T18:27:55Z</time>
  <course>344.39</course>
  <speed>8.156475954724565</speed>
  <fix>3d</fix>
</trkpt>
<trkpt lat="-35.3634299" lon="149.1624539">
  <ele>658.57</ele>
  <time>2026-08-27T18:27:55Z</time>
  <course>343.85</course>
  <speed>8.18</speed>
  <fix>3d</fix>
</trkpt>
<trkpt lat="-35.3634074" lon="149.162446">
  <ele>658.14</ele>
  <time>2026-08-27T18:27:55Z</time>
  <course>344.42</course>
  <speed>8.146864427496018</speed>
  <fix>3d</fix>
</trkpt>
<trkpt lat="-35.3634157" lon="149.1624488">
  <ele>658.28</ele>
  <time>2026-08-27T18:27:55Z</time>
  <course>343.88</course>
  <speed>8.17</speed>
  <fix>3d</fix>
</trkpt>
<trkpt lat="-35.3633933" lon="149.162441">
  <ele>657.84</ele>
  <time>2026-08-27T18:27:55Z</time>
  <course>344.39</course>
  <speed>8.137253836522492</speed>
  <fix>3d</fix>
</trkpt>
<trkpt lat="-35.3634016" lon="149.1624439">
  <ele>657.98</ele>
  <time>2026-08-27T18:27:55Z</time>
  <course>343.89</course>
  <speed>8.16</speed>
  <fix>3d</fix>
</trkpt>
<trkpt lat="-35.3633793" lon="149.162436">
  <ele>657.54</ele>
  <time>2026-08-27T18:27:55Z</time>
  <course>344.39</course>
  <speed>8.127644185125233</speed>
  <fix>3d</fix>
</trkpt>
<trkpt lat="-35.3633875" lon="149.1624388">
  <ele>657.68</ele>
  <time>2026-08-27T18:27:55Z</time>
  <course>343.88</course>
  <speed>8.15</speed>
  <fix>3d</fix>
</trkpt>
<trkpt lat="-35.3633652" lon="149.162431">
  <ele>657.24</ele>
  <time>2026-08-27T18:27:55Z</time>
  <course>344.32</course>
  <speed>8.118035476640884</speed>
  <fix>3d</fix>
</trkpt>
<trkpt lat="-35.3633735" lon="149.1624339">
  <ele>657.38</ele>
  <time>2026-08-27T18:27:55Z</time>
  <course>343.87</course>
  <speed>8.14</speed>
  <fix>3d</fix>
</trkpt>
<trkpt lat="-35.363351" lon="149.162426">
  <ele>656.93</ele>
  <time>2026-08-27T18:27:55Z</time>
  <course>344.26</course>
  <speed>8.118035476640884</speed>
  <fix>3d</fix>
</trkpt>
<trkpt lat="-35.3633595" lon="149.1624289">
  <ele>657.07</ele>
  <time>2026-08-27T18:27:55Z</time>
  <course>343.84</course>
  <speed>8.14</speed>
  <fix>3d</fix>
</trkpt>
<trkpt lat="-35.363337" lon="149.162421">
  <ele>656.64</ele>
  <time>2026-08-27T18:27:55Z</time>
  <course>344.22</course>
  <speed>8.111208294699377</speed>
  <fix>3d</fix>
</trkpt>
<trkpt lat="-35.3633454" lon="149.1624239">
  <ele>656.78</ele>
  <time>2026-08-27T18:27:55Z</time>
  <course>343.8</course>
  <speed>8.13</speed>
  <fix>3d</fix>
</trkpt>
<trkpt lat="-35.363323" lon="149.162416">
  <ele>656.34</ele>
  <time>2026-08-27T18:27:55Z</time>
  <course>344.15</course>
  <speed>8.111208294699377</speed>
  <fix>3d</fix>
</trkpt>
<trkpt lat="-35.3633313" lon="149.1624188">
  <ele>656.48</ele>
  <time>2026-08-27T18:27:55Z</time>
  <course>343.75</course>
  <speed>8.13</speed>
  <fix>3d</fix>
</trkpt>
<trkpt lat="-35.363309" lon="149.1624109">
  <ele>656.05</ele>
  <time>2026-08-27T18:27:55Z</time>
  <course>344.08</course>
  <speed>8.104400039484723</speed>
  <fix>3d</fix>
</trkpt>
<trkpt lat="-35.3633173" lon="149.1624139">
  <ele>656.18</ele>
  <time>2026-08-27T18:27:55Z</time>
  <course>343.69</course>
  <speed>8.13</speed>
  <fix>3d</fix>
</trkpt>
<trkpt lat="-35.363295" lon="149.1624059">
  <ele>655.75</ele>
  <time>2026-08-27T18:27:55Z</time>
  <course>344.01</course>
  <speed>8.107206670611031</speed>
  <fix>3d</fix>
</trkpt>
<trkpt lat="-35.3633033" lon="149.1624088">
  <ele>655.88</ele>
  <time>2026-08-27T18:27:55Z</time>
  <course>343.64</course>
  <speed>8.13</speed>
  <fix>3d</fix>
</trkpt>
<trkpt lat="-35.363281" lon="149.1624009">
  <ele>655.45</ele>
  <time>2026-08-27T18:27:55Z</time>
  <course>343.94</course>
  <speed>8.119618217625753</speed>
  <fix>3d</fix>
</trkpt>
<trkpt lat="-35.3632893" lon="149.1624038">
  <ele>655.57</ele>
  <time>2026-08-27T18:27:55Z</time>
  <course>343.59</course>
  <speed>8.13</speed>
  <fix>3d</fix>
</trkpt>
<trkpt lat="-35.363267" lon="149.1623958">
  <ele>655.15</ele>
  <time>2026-08-27T18:27:55Z</time>
  <course>343.87</course>
  <speed>8.12244421341261</speed>
  <fix>3d</fix>
</trkpt>
<trkpt lat="-35.3632753" lon="149.1623987">
  <ele>655.27</ele>
  <time>2026-08-27T18:27:55Z</time>
  <course>343.53</course>
  <speed>8.14</speed>
  <fix>3d</fix>
</trkpt>
<trkpt lat="-35.363253" lon="149.1623907">
  <ele>654.86</ele>
  <time>2026-08-27T18:27:55Z</time>
  <course>343.8</course>
  <speed>8.12244421341261</speed>
  <fix>3d</fix>
</trkpt>
<trkpt lat="-35.3632612" lon="149.1623936">
  <ele>654.97</ele>
  <time>2026-08-27T18:27:55Z</time>
  <course>343.48</course>
  <speed>8.15</speed>
  <fix>3d</fix>
</trkpt>
<trkpt lat="-35.3632391" lon="149.1623856">
  <ele>654.56</ele>
  <time>2026-08-27T18:27:55Z</time>
  <course>343.75</course>
  <speed>8.134869390469646</speed>
  <fix>3d</fix>
</trkpt>
<trkpt lat="-35.3632472" lon="149.1623885">
  <ele>654.66</ele>
  <time>2026-08-27T18:27:55Z</time>
  <course>343.43</course>
  <speed>8.15</speed>
  <fix>3d</fix>
</trkpt>
<trkpt lat="-35.363225" lon="149.1623805">
  <ele>654.26</ele>
  <time>2026-08-27T18:27:55Z</time>
  <course>343.68</course>
  <speed>8.147300166312766</speed>
  <fix>3d</fix>
</trkpt>
<trkpt lat="-35.3632331" lon="149.1623834">
  <ele>654.36</ele>
  <time>2026-08-27T18:27:55Z</time>
  <course>343.39</course>
  <speed>8.16</speed>
  <fix>3d</fix>
</trkpt>
<trkpt lat="-35.3632109" lon="149.1623753">
  <ele>653.95</ele>
  <time>2026-08-27T18:27:55Z</time>
  <course>343.61</course>
  <speed>8.147300166312766</speed>
  <fix>3d</fix>
</trkpt>
<trkpt lat="-35.363219" lon="149.1623782">
  <ele>654.05</ele>
  <time>2026-08-27T18:27:55Z</time>
  <course>343.36</course>
  <speed>8.17</speed>
  <fix>3d</fix>
</trkpt>
<trkpt lat="-35.3631968" lon="149.1623701">
  <ele>653.64</ele>
  <time>2026-08-27T18:27:55Z</time>
  <course>343.59</course>
  <speed>8.159736515353913</speed>
  <fix>3d</fix>
</trkpt>
<trkpt lat="-35.363205" lon="149.162373">
  <ele>653.75</ele>
  <time>2026-08-27T18:27:55Z</time>
  <course>343.33</course>
  <speed>8.18</speed>
  <fix>3d</fix>
</trkpt>
<trkpt lat="-35.3631826" lon="149.1623649">
  <ele>653.34</ele>
  <time>2026-08-27T18:27:55Z</time>
  <course>343.56</course>
  <speed>8.169320657190536</speed>
  <fix>3d</fix>
</trkpt>
<trkpt lat="-35.3631909" lon="149.1623679">
  <ele>653.44</ele>
  <time>2026-08-27T18:27:55Z</time>
  <course>343.32</course>
  <speed>8.19</speed>
  <fix>3d</fix>
</trkpt>
<trkpt lat="-35.3631685" lon="149.1623597">
  <ele>653.03</ele>
  <time>2026-08-27T18:27:55Z</time>
  <course>343.55</course>
  <speed>8.169320657190536</speed>
  <fix>3d</fix>
</trkpt>
<trkpt lat="-35.3631767" lon="149.1623627">
  <ele>653.14</ele>
  <time>2026-08-27T18:27:55Z</time>
  <course>343.31</course>
  <speed>8.19</speed>
  <fix>3d</fix>
</trkpt>
<trkpt lat="-35.3631544" lon="149.1623546">
  <ele>652.73</ele>
  <time>2026-08-27T18:27:55Z</time>
  <course>343.55</course>
  <speed>8.178905794786978</speed>
  <fix>3d</fix>
</trkpt>
<trkpt lat="-35.3631626" lon="149.1623574">
  <ele>652.83</ele>
  <time>2026-08-27T18:27:55Z</time>
  <course>343.31</course>
  <speed>8.2</speed>
  <fix>3d</fix>
</trkpt>
<trkpt lat="-35.3631402" lon="149.1623494">
  <ele>652.43</ele>
  <time>2026-08-27T18:27:55Z</time>
  <course>343.57</course>
  <speed>8.178905794786978</speed>
  <fix>3d</fix>
</trkpt>
<trkpt lat="-35.3631485" lon="149.1623523">
  <ele>652.54</ele>
  <time>2026-08-27T18:27:55Z</time>
  <course>343.32</course>
  <speed>8.2</speed>
  <fix>3d</fix>
</trkpt>
<trkpt lat="-35.3631261" lon="149.1623442">
  <ele>652.13</ele>
  <time>2026-08-27T18:27:55Z</time>
  <course>343.57</course>
  <speed>8.178905794786978</speed>
  <fix>3d</fix>
</trkpt>
<trkpt lat="-35.3631344" lon="149.1623471">
  <ele>652.24</ele>
  <time>2026-08-27T18:27:55Z</time>
  <course>343.34</course>
  <speed>8.2</speed>
  <fix>3d</fix>
</trkpt>
<trkpt lat="-35.363112" lon="149.162339">
  <ele>651.84</ele>
  <time>2026-08-27T18:27:55Z</time>
  <course>343.63</course>
  <speed>8.176062622069377</speed>
  <fix>3d</fix>
</trkpt>
<trkpt lat="-35.3631203" lon="149.1623419">
  <ele>651.94</ele>
  <time>2026-08-27T18:27:55Z</time>
  <course>343.37</course>
  <speed>8.19</speed>
  <fix>3d</fix>
</trkpt>
<trkpt lat="-35.3630979" lon="149.1623339">
  <ele>651.54</ele>
  <time>2026-08-27T18:27:55Z</time>
  <course>343.65</course>
  <speed>8.16647414739066</speed>
  <fix>3d</fix>
</trkpt>
<trkpt lat="-35.3631062" lon="149.1623368">
  <ele>651.65</ele>
  <time>2026-08-27T18:27:55Z</time>
  <course>343.4</course>
  <speed>8.19</speed>
  <fix>3d</fix>
</trkpt>
<trkpt lat="-35.3630838" lon="149.1623287">
  <ele>651.25</ele>
  <time>2026-08-27T18:27:55Z</time>
  <course>343.71</course>
  <speed>8.163638894512667</speed>
  <fix>3d</fix>
</trkpt>
<trkpt lat="-35.3630921" lon="149.1623316">
  <ele>651.35</ele>
  <time>2026-08-27T18:27:55Z</time>
  <course>343.43</course>
  <speed>8.19</speed>
  <fix>3d</fix>
</trkpt>
<trkpt lat="-35.3630697" lon="149.1623236">
  <ele>650.94</ele>
  <time>2026-08-27T18:27:55Z</time>
  <course>343.72</course>
  <speed>8.163638894512667</speed>
  <fix>3d</fix>
</trkpt>
<trkpt lat="-35.363078" lon="149.1623265">
  <ele>651.05</ele>
  <time>2026-08-27T18:27:55Z</time>
  <course>343.47</course>
  <speed>8.19</speed>
  <fix>3d</fix>
</trkpt>
<trkpt lat="-35.3630555" lon="149.1623184">
  <ele>650.63</ele>
  <time>2026-08-27T18:27:55Z</time>
  <course>343.75</course>
  <speed>8.16081491028929</speed>
  <fix>3d</fix>
</trkpt>
<trkpt lat="-35.3630639" lon="149.1623214">
  <ele>650.75</ele>
  <time>2026-08-27T18:27:55Z</time>
  <course>343.51</course>
  <speed>8.18</speed>
  <fix>3d</fix>
</trkpt>
<trkpt lat="-35.3630414" lon="149.1623133">
  <ele>650.33</ele>
  <time>2026-08-27T18:27:55Z</time>
  <course>343.75</course>
  <speed>8.16081491028929</speed>
  <fix>3d</fix>
</trkpt>
<trkpt lat="-35.3630498" lon="149.1623162">
  <ele>650.44</ele>
  <time>2026-08-27T18:27:55Z</time>
  <course>343.55</course>
  <speed>8.18</speed>
  <fix>3d</fix>
</trkpt>
<trkpt lat="-35.3630273" lon="149.1623082">
  <ele>650.03</ele>
  <time>2026-08-27T18:27:55Z</time>
  <course>343.77</course>
  <speed>8.158002206422845</speed>
  <fix>3d</fix>
</trkpt>
<trkpt lat="-35.3630357" lon="149.1623111">
  <ele>650.15</ele>
  <time>2026-08-27T18:27:55Z</time>
  <course>343.57</course>
  <speed>8.18</speed>
  <fix>3d</fix>
</trkpt>
<trkpt lat="-35.3630132" lon="149.1623031">
  <ele>649.74</ele>
  <time>2026-08-27T18:27:55Z</time>
  <course>343.81</course>
  <speed>8.158002206422845</speed>
  <fix>3d</fix>
</trkpt>
<trkpt lat="-35.3630215" lon="149.162306">
  <ele>649.85</ele>
  <time>2026-08-27T18:27:55Z</time>
  <course>343.59</course>
  <speed>8.18</speed>
  <fix>3d</fix>
</trkpt>
<trkpt lat="-35.3629992" lon="149.1622981">
  <ele>649.44</ele>
  <time>2026-08-27T18:27:55Z</time>
  <course>343.83</course>
  <speed>8.158002206422845</speed>
  <fix>3d</fix>
</trkpt>
<trkpt lat="-35.3630074" lon="149.162301">
  <ele>649.55</ele>
  <time>2026-08-27T18:27:55Z</time>
  <course>343.62</course>
  <speed>8.18</speed>
  <fix>3d</fix>
</trkpt>
<trkpt lat="-35.3629851" lon="149.162293">
  <ele>649.14</ele>
  <time>2026-08-27T18:27:55Z</time>
  <course>343.85</course>
  <speed>8.145600039285013</speed>
  <fix>3d</fix>
</trkpt>
<trkpt lat="-35.3629933" lon="149.1622959">
  <ele>649.25</ele>
  <time>2026-08-27T18:27:55Z</time>
  <course>343.63</course>
  <speed>8.17</speed>
  <fix>3d</fix>
</trkpt>
<trkpt lat="-35.362971" lon="149.162288">
  <ele>648.84</ele>
  <time>2026-08-27T18:27:55Z</time>
  <course>343.83</course>
  <speed>8.145600039285013</speed>
  <fix>3d</fix>
</trkpt>
<trkpt lat="-35.3629792" lon="149.1622908">
  <ele>648.95</ele>
  <time>2026-08-27T18:27:55Z</time>
  <course>343.65</course>
  <speed>8.17</speed>
  <fix>3d</fix>
</trkpt>
<trkpt lat="-35.362957" lon="149.1622829">
  <ele>648.54</ele>
  <time>2026-08-27T18:27:55Z</time>
  <course>343.82</course>
  <speed>8.155200794585012</speed>
  <fix>3d</fix>
</trkpt>
<trkpt lat="-35.3629651" lon="149.1622857">
  <ele>648.66</ele>
  <time>2026-08-27T18:27:55Z</time>
  <course>343.66</course>
  <speed>8.17</speed>
  <fix>3d</fix>
</trkpt>
<trkpt lat="-35.362943" lon="149.1622779">
  <ele>648.24</ele>
  <time>2026-08-27T18:27:55Z</time>
  <course>343.83</course>
  <speed>8.155200794585012</speed>
  <fix>3d</fix>
</trkpt>
<trkpt lat="-35.362951" lon="149.1622807">
  <ele>648.36</ele>
  <time>2026-08-27T18:27:55Z</time>
  <course>343.65</course>
  <speed>8.18</speed>
  <fix>3d</fix>
</trkpt>
<trkpt lat="-35.3629289" lon="149.1622728">
  <ele>647.94</ele>
  <time>2026-08-27T18:27:55Z</time>
  <course>343.8</course>
  <speed>8.158002206422845</speed>
  <fix>3d</fix>
</trkpt>
<trkpt lat="-35.3629369" lon="149.1622756">
  <ele>648.06</ele>
  <time>2026-08-27T18:27:55Z</time>
  <course>343.65</course>
  <speed>8.18</speed>
  <fix>3d</fix>
</trkpt>
<trkpt lat="-35.3629147" lon="149.1622677">
  <ele>647.63</ele>
  <time>2026-08-27T18:27:55Z</time>
  <course>343.78</course>
  <speed>8.158002206422845</speed>
  <fix>3d</fix>
</trkpt>
<trkpt lat="-35.3629228" lon="149.1622705">
  <ele>647.76</ele>
  <time>2026-08-27T18:27:55Z</time>
  <course>343.63</course>
  <speed>8.18</speed>
  <fix>3d</fix>
</trkpt>
<trkpt lat="-35.3629006" lon="149.1622626">
  <ele>647.33</ele>
  <time>2026-08-27T18:27:55Z</time>
  <course>343.74</course>
  <speed>8.158002206422845</speed>
  <fix>3d</fix>
</trkpt>
<trkpt lat="-35.3629087" lon="149.1622654">
  <ele>647.45</ele>
  <time>2026-08-27T18:27:55Z</time>
  <course>343.62</course>
  <speed>8.18</speed>
  <fix>3d</fix>
</trkpt>
<trkpt lat="-35.3628864" lon="149.1622575">
  <ele>647.04</ele>
  <time>2026-08-27T18:27:55Z</time>
  <course>343.72</course>
  <speed>8.16081491028929</speed>
  <fix>3d</fix>
</trkpt>
<trkpt lat="-35.3628946" lon="149.1622603">
  <ele>647.16</ele>
  <time>2026-08-27T18:27:55Z</time>
  <course>343.6</course>
  <speed>8.19</speed>
  <fix>3d</fix>
</trkpt>
<trkpt lat="-35.3628723" lon="149.1622524">
  <ele>646.75</ele>
  <time>2026-08-27T18:27:55Z</time>
  <course>343.73</course>
  <speed>8.16081491028929</speed>
  <fix>3d</fix>
</trkpt>
<trkpt lat="-35.3628804" lon="149.1622552">
  <ele>646.86</ele>
  <time>2026-08-27T18:27:55Z</time>
  <course>343.58</course>
  <speed>8.19</speed>
  <fix>3d</fix>
</trkpt>
<trkpt lat="-35.3628582" lon="149.1622473">
  <ele>646.45</ele>
  <time>2026-08-27T18:27:55Z</time>
  <course>343.72</course>
  <speed>8.16081491028929</speed>
  <fix>3d</fix>
</trkpt>
<trkpt lat="-35.3628663" lon="149.1622501">
  <ele>646.56</ele>
  <time>2026-08-27T18:27:55Z</time>
  <course>343.56</course>
  <speed>8.18</speed>
  <fix>3d</fix>
</trkpt>
<trkpt lat="-35.3628441" lon="149.1622422">
  <ele>646.15</ele>
  <time>2026-08-27T18:27:55Z</time>
  <course>343.71</course>
  <speed>8.16081491028929</speed>
  <fix>3d</fix>
</trkpt>
<trkpt lat="-35.3628522" lon="149.162245">
  <ele>646.26</ele>
  <time>2026-08-27T18:27:55Z</time>
  <course>343.55</course>
  <speed>8.18</speed>
  <fix>3d</fix>
</trkpt>
<trkpt lat="-35.36283" lon="149.1622371">
  <ele>645.85</ele>
  <time>2026-08-27T18:27:55Z</time>
  <course>343.7</course>
  <speed>8.151220767467901</speed>
  <fix>3d</fix>
</trkpt>
<trkpt lat="-35.3628381" lon="149.1622399">
  <ele>645.95</ele>
  <time>2026-08-27T18:27:55Z</time>
  <course>343.54</course>
  <speed>8.18</speed>
  <fix>3d</fix>
</trkpt>
<trkpt lat="-35.3628159" lon="149.1622319">
  <ele>645.55</ele>
  <time>2026-08-27T18:27:55Z</time>
  <course>343.69</course>
  <speed>8.151220767467901</speed>
  <fix>3d</fix>
</trkpt>
<trkpt lat="-35.3628241" lon="149.1622348">
  <ele>645.66</ele>
  <time>2026-08-27T18:27:55Z</time>
  <course>343.53</course>
  <speed>8.17</speed>
  <fix>3d</fix>
</trkpt>
<trkpt lat="-35.3628019" lon="149.1622269">
  <ele>645.25</ele>
  <time>2026-08-27T18:27:55Z</time>
  <course>343.68</course>
  <speed>8.151220767467901</speed>
  <fix>3d</fix>
</trkpt>
<trkpt lat="-35.36281" lon="149.1622297">
  <ele>645.36</ele>
  <time>2026-08-27T18:27:55Z</time>
  <course>343.53</course>
  <speed>8.17</speed>
  <fix>3d</fix>
</trkpt>
<trkpt lat="-35.3627878" lon="149.1622218">
  <ele>644.95</ele>
  <time>2026-08-27T18:27:55Z</time>
  <course>343.67</course>
  <speed>8.151220767467901</speed>
  <fix>3d</fix>
</trkpt>
<trkpt lat="-35.3627959" lon="149.1622246">
  <ele>645.05</ele>
  <time>2026-08-27T18:27:55Z</time>
  <course>343.52</course>
  <speed>8.17</speed>
  <fix>3d</fix>
</trkpt>
<trkpt lat="-35.3627737" lon="149.1622166">
  <ele>644.65</ele>
  <time>2026-08-27T18:27:55Z</time>
  <course>343.65</course>
  <speed>8.151220767467901</speed>
  <fix>3d</fix>
</trkpt>
<trkpt lat="-35.3627818" lon="149.1622195">
  <ele>644.75</ele>
  <time>2026-08-27T18:27:55Z</time>
  <course>343.52</course>
  <speed>8.17</speed>
  <fix>3d</fix>
</trkpt>
<trkpt lat="-35.3627596" lon="149.1622115">
  <ele>644.35</ele>
  <time>2026-08-27T18:27:55Z</time>
  <course>343.62</course>
  <speed>8.151220767467901</speed>
  <fix>3d</fix>
</trkpt>
<trkpt lat="-35.3627678" lon="149.1622144">
  <ele>644.44</ele>
  <time>2026-08-27T18:27:55Z</time>
  <course>343.51</course>
  <speed>8.17</speed>
  <fix>3d</fix>
</trkpt>
<trkpt lat="-35.3627455" lon="149.1622064">
  <ele>644.04</ele>
  <time>2026-08-27T18:27:55Z</time>
  <course>343.62</course>
  <speed>8.151220767467901</speed>
  <fix>3d</fix>
</trkpt>
<trkpt lat="-35.3627537" lon="149.1622093">
  <ele>644.15</ele>
  <time>2026-08-27T18:27:55Z</time>
  <course>343.5</course>
  <speed>8.17</speed>
  <fix>3d</fix>
</trkpt>
<trkpt lat="-35.3627314" lon="149.1622013">
  <ele>643.74</ele>
  <time>2026-08-27T18:27:55Z</time>
  <course>343.6</course>
  <speed>8.151220767467901</speed>
  <fix>3d</fix>
</trkpt>
<trkpt lat="-35.3627396" lon="149.1622042">
  <ele>643.84</ele>
  <time>2026-08-27T18:27:55Z</time>
  <course>343.5</course>
  <speed>8.17</speed>
  <fix>3d</fix>
</trkpt>
<trkpt lat="-35.3627173" lon="149.1621962">
  <ele>643.44</ele>
  <time>2026-08-27T18:27:55Z</time>
  <course>343.58</course>
  <speed>8.151220767467901</speed>
  <fix>3d</fix>
</trkpt>
<trkpt lat="-35.3627255" lon="149.1621991">
  <ele>643.54</ele>
  <time>2026-08-27T18:27:55Z</time>
  <course>343.49</course>
  <speed>8.17</speed>
  <fix>3d</fix>
</trkpt>
<trkpt lat="-35.3627032" lon="149.162191">
  <ele>643.13</ele>
  <time>2026-08-27T18:27:56Z</time>
  <course>343.58</course>
  <speed>8.154048074422912</speed>
  <fix>3d</fix>
</trkpt>
<trkpt lat="-35.3627114" lon="149.162194">
  <ele>643.24</ele>
  <time>2026-08-27T18:27:56Z</time>
  <course>343.49</course>
  <speed>8.17</speed>
  <fix>3d</fix>
</trkpt>
<trkpt lat="-35.3626891" lon="149.1621859">
  <ele>642.83</ele>
  <time>2026-08-27T18:27:56Z</time>
  <course>343.58</course>
  <speed>8.154048074422912</speed>
  <fix>3d</fix>
</trkpt>
<trkpt lat="-35.3626973" lon="149.1621888">
  <ele>642.94</ele>
  <time>2026-08-27T18:27:56Z</time>
  <course>343.48</course>
  <speed>8.17</speed>
  <fix>3d</fix>
</trkpt>
<trkpt lat="-35.3626751" lon="149.1621808">
  <ele>642.53</ele>
  <time>2026-08-27T18:27:56Z</time>
  <course>343.59</course>
  <speed>8.154048074422912</speed>
  <fix>3d</fix>
</trkpt>
<trkpt lat="-35.3626833" lon="149.1621837">
  <ele>642.64</ele>
  <time>2026-08-27T18:27:56Z</time>
  <course>343.48</course>
  <speed>8.17</speed>
  <fix>3d</fix>
</trkpt>
<trkpt lat="-35.3626611" lon="149.1621757">
  <ele>642.23</ele>
  <time>2026-08-27T18:27:56Z</time>
  <course>343.54</course>
  <speed>8.141627601407473</speed>
  <fix>3d</fix>
</trkpt>
<trkpt lat="-35.3626692" lon="149.1621786">
  <ele>642.34</ele>
  <time>2026-08-27T18:27:56Z</time>
  <course>343.47</course>
  <speed>8.17</speed>
  <fix>3d</fix>
</trkpt>
<trkpt lat="-35.3626471" lon="149.1621707">
  <ele>641.93</ele>
  <time>2026-08-27T18:27:56Z</time>
  <course>343.51</course>
  <speed>8.154048074422912</speed>
  <fix>3d</fix>
</trkpt>
<trkpt lat="-35.3626551" lon="149.1621735">
  <ele>642.05</ele>
  <time>2026-08-27T18:27:56Z</time>
  <course>343.47</course>
  <speed>8.17</speed>
  <fix>3d</fix>
</trkpt>
<trkpt lat="-35.3626331" lon="149.1621656">
  <ele>641.63</ele>
  <time>2026-08-27T18:27:56Z</time>
  <course>343.49</course>
  <speed>8.154048074422912</speed>
  <fix>3d</fix>
</trkpt>
<trkpt lat="-35.3626411" lon="149.1621684">
  <ele>641.75</ele>
  <time>2026-08-27T18:27:56Z</time>
  <course>343.47</course>
  <speed>8.17</speed>
  <fix>3d</fix>
</trkpt>
<trkpt lat="-35.3626189" lon="149.1621604">
  <ele>641.33</ele>
  <time>2026-08-27T18:27:56Z</time>
  <course>343.49</course>
  <speed>8.163638894512667</speed>
  <fix>3d</fix>
</trkpt>
<trkpt lat="-35.362627" lon="149.1621632">
  <ele>641.44</ele>
  <time>2026-08-27T18:27:56Z</time>
  <course>343.47</course>
  <speed>8.18</speed>
  <fix>3d</fix>
</trkpt>
<trkpt lat="-35.3626048" lon="149.1621553">
  <ele>641.03</ele>
  <time>2026-08-27T18:27:56Z</time>
  <course>343.49</course>
  <speed>8.163638894512667</speed>
  <fix>3d</fix>
</trkpt>
<trkpt lat="-35.3626129" lon="149.1621581">
  <ele>641.15</ele>
  <time>2026-08-27T18:27:56Z</time>
  <course>343.48</course>
  <speed>8.18</speed>
  <fix>3d</fix>
</trkpt>
<trkpt lat="-35.3625907" lon="149.1621501">
  <ele>640.74</ele>
  <time>2026-08-27T18:27:56Z</time>
  <course>343.48</course>
  <speed>8.173230695386005</speed>
  <fix>3d</fix>
</trkpt>
<trkpt lat="-35.3625988" lon="149.162153">
  <ele>640.85</ele>
  <time>2026-08-27T18:27:56Z</time>
  <course>343.48</course>
  <speed>8.19</speed>
  <fix>3d</fix>
</trkpt>
<trkpt lat="-35.3625766" lon="149.162145">
  <ele>640.44</ele>
  <time>2026-08-27T18:27:56Z</time>
  <course>343.52</course>
  <speed>8.173230695386005</speed>
  <fix>3d</fix>
</trkpt>
<trkpt lat="-35.3625846" lon="149.1621478">
  <ele>640.55</ele>
  <time>2026-08-27T18:27:56Z</time>
  <course>343.49</course>
  <speed>8.19</speed>
  <fix>3d</fix>
</trkpt>
<trkpt lat="-35.3625624" lon="149.1621399">
  <ele>640.15</ele>
  <time>2026-08-27T18:27:56Z</time>
  <course>343.53</course>
  <speed>8.173230695386005</speed>
  <fix>3d</fix>
</trkpt>
<trkpt lat="-35.3625705" lon="149.1621427">
  <ele>640.26</ele>
  <time>2026-08-27T18:27:56Z</time>
  <course>343.49</course>
  <speed>8.19</speed>
  <fix>3d</fix>
</trkpt>
<trkpt lat="-35.3625483" lon="149.1621348">
  <ele>639.85</ele>
  <time>2026-08-27T18:27:56Z</time>
  <course>343.55</course>
  <speed>8.173230695386005</speed>
  <fix>3d</fix>
</trkpt>
<trkpt lat="-35.3625564" lon="149.1621376">
  <ele>639.95</ele>
  <time>2026-08-27T18:27:56Z</time>
  <course>343.5</course>
  <speed>8.19</speed>
  <fix>3d</fix>
</trkpt>
<trkpt lat="-35.3625342" lon="149.1621296">
  <ele>639.56</ele>
  <time>2026-08-27T18:27:56Z</time>
  <course>343.58</course>
  <speed>8.173230695386005</speed>
  <fix>3d</fix>
</trkpt>
<trkpt lat="-35.3625423" lon="149.1621324">
  <ele>639.66</ele>
  <time>2026-08-27T18:27:56Z</time>
  <course>343.51</course>
  <speed>8.19</speed>
  <fix>3d</fix>
</trkpt>
<trkpt lat="-35.3625201" lon="149.1621245">
  <ele>639.26</ele>
  <time>2026-08-27T18:27:56Z</time>
  <course>343.61</course>
  <speed>8.170410026430742</speed>
  <fix>3d</fix>
</trkpt>
<trkpt lat="-35.3625281" lon="149.1621273">
  <ele>639.36</ele>
  <time>2026-08-27T18:27:56Z</time>
  <course>343.52</course>
  <speed>8.19</speed>
  <fix>3d</fix>
</trkpt>
<trkpt lat="-35.3625061" lon="149.1621194">
  <ele>638.95</ele>
  <time>2026-08-27T18:27:56Z</time>
  <course>343.62</course>
  <speed>8.170410026430742</speed>
  <fix>3d</fix>
</trkpt>
<trkpt lat="-35.362514" lon="149.1621222">
  <ele>639.06</ele>
  <time>2026-08-27T18:27:56Z</time>
  <course>343.54</course>
  <speed>8.19</speed>
  <fix>3d</fix>
</trkpt>
<trkpt lat="-35.362492" lon="149.1621143">
  <ele>638.65</ele>
  <time>2026-08-27T18:27:56Z</time>
  <course>343.62</course>
  <speed>8.170410026430742</speed>
  <fix>3d</fix>
</trkpt>
<trkpt lat="-35.3624999" lon="149.1621171">
  <ele>638.76</ele>
  <time>2026-08-27T18:27:56Z</time>
  <course>343.55</course>
  <speed>8.19</speed>
  <fix>3d</fix>
</trkpt>
<trkpt lat="-35.3624778" lon="149.1621092">
  <ele>638.35</ele>
  <time>2026-08-27T18:27:56Z</time>
  <course>343.62</course>
  <speed>8.170410026430742</speed>
  <fix>3d</fix>
</trkpt>
<trkpt lat="-35.3624858" lon="149.162112">
  <ele>638.45</ele>
  <time>2026-08-27T18:27:56Z</time>
  <course>343.57</course>
  <speed>8.19</speed>
  <fix>3d</fix>
</trkpt>
<trkpt lat="-35.3624636" lon="149.1621041">
  <ele>638.04</ele>
  <time>2026-08-27T18:27:56Z</time>
  <course>343.63</course>
  <speed>8.170410026430742</speed>
  <fix>3d</fix>
</trkpt>
<trkpt lat="-35.3624717" lon="149.1621069">
  <ele>638.16</ele>
  <time>2026-08-27T18:27:56Z</time>
  <course>343.58</course>
  <speed>8.19</speed>
  <fix>3d</fix>
</trkpt>
<trkpt lat="-35.3624494" lon="149.162099">
  <ele>637.74</ele>
  <time>2026-08-27T18:27:56Z</time>
  <course>343.62</course>
  <speed>8.170410026430742</speed>
  <fix>3d</fix>
</trkpt>
<trkpt lat="-35.3624576" lon="149.1621018">
  <ele>637.85</ele>
  <time>2026-08-27T18:27:56Z</time>
  <course>343.58</course>
  <speed>8.19</speed>
  <fix>3d</fix>
</trkpt>
<trkpt lat="-35.3624353" lon="149.1620939">
  <ele>637.44</ele>
  <time>2026-08-27T18:27:56Z</time>
  <course>343.61</course>
  <speed>8.170410026430742</speed>
  <fix>3d</fix>
</trkpt>
<trkpt lat="-35.3624434" lon="149.1620967">
  <ele>637.55</ele>
  <time>2026-08-27T18:27:56Z</time>
  <course>343.58</course>
  <speed>8.18</speed>
  <fix>3d</fix>
</trkpt>
<trkpt lat="-35.3624212" lon="149.1620887">
  <ele>637.15</ele>
  <time>2026-08-27T18:27:56Z</time>
  <course>343.63</course>
  <speed>8.16081491028929</speed>
  <fix>3d</fix>
</trkpt>
<trkpt lat="-35.3624293" lon="149.1620916">
  <ele>637.25</ele>
  <time>2026-08-27T18:27:56Z</time>
  <course>343.57</course>
  <speed>8.18</speed>
  <fix>3d</fix>
</trkpt>
<trkpt lat="-35.3624071" lon="149.1620836">
  <ele>636.84</ele>
  <time>2026-08-27T18:27:56Z</time>
  <course>343.64</course>
  <speed>8.158002206422845</speed>
  <fix>3d</fix>
</trkpt>
<trkpt lat="-35.3624152" lon="149.1620865">
  <ele>636.95</ele>
  <time>2026-08-27T18:27:56Z</time>
  <course>343.57</course>
  <speed>8.17</speed>
  <fix>3d</fix>
</trkpt>
<trkpt lat="-35.3623929" lon="149.1620785">
  <ele>636.54</ele>
  <time>2026-08-27T18:27:56Z</time>
  <course>343.64</course>
  <speed>8.14840475185174</speed>
  <fix>3d</fix>
</trkpt>
<trkpt lat="-35.3624011" lon="149.1620814">
  <ele>636.66</ele>
  <time>2026-08-27T18:27:56Z</time>
  <course>343.57</course>
  <speed>8.17</speed>
  <fix>3d</fix>
</trkpt>
<trkpt lat="-35.3623788" lon="149.1620734">
  <ele>636.24</ele>
  <time>2026-08-27T18:27:56Z</time>
  <course>343.62</course>
  <speed>8.14840475185174</speed>
  <fix>3d</fix>
</trkpt>
<trkpt lat="-35.362387" lon="149.1620763">
  <ele>636.36</ele>
  <time>2026-08-27T18:27:56Z</time>
  <course>343.57</course>
  <speed>8.16</speed>
  <fix>3d</fix>
</trkpt>
<trkpt lat="-35.3623647" lon="149.1620683">
  <ele>635.93</ele>
  <time>2026-08-27T18:27:56Z</time>
  <course>343.61</course>
  <speed>8.138808266570727</speed>
  <fix>3d</fix>
</trkpt>
<trkpt lat="-35.362373" lon="149.1620712">
  <ele>636.06</ele>
  <time>2026-08-27T18:27:56Z</time>
  <course>343.57</course>
  <speed>8.15</speed>
  <fix>3d</fix>
</trkpt>
<trkpt lat="-35.3623507" lon="149.1620633">
  <ele>635.63</ele>
  <time>2026-08-27T18:27:56Z</time>
  <course>343.61</course>
  <speed>8.138808266570727</speed>
  <fix>3d</fix>
</trkpt>
<trkpt lat="-35.362359" lon="149.1620662">
  <ele>635.76</ele>
  <time>2026-08-27T18:27:56Z</time>
  <course>343.56</course>
  <speed>8.15</speed>
  <fix>3d</fix>
</trkpt>
<trkpt lat="-35.3623367" lon="149.1620582">
  <ele>635.33</ele>
  <time>2026-08-27T18:27:56Z</time>
  <course>343.59</course>
  <speed>8.138808266570727</speed>
  <fix>3d</fix>
</trkpt>
<trkpt lat="-35.3623449" lon="149.1620611">
  <ele>635.45</ele>
  <time>2026-08-27T18:27:56Z</time>
  <course>343.55</course>
  <speed>8.15</speed>
  <fix>3d</fix>
</trkpt>
<trkpt lat="-35.3623225" lon="149.1620531">
  <ele>635.03</ele>
  <time>2026-08-27T18:27:56Z</time>
  <course>343.56</course>
  <speed>8.129212754012531</speed>
  <fix>3d</fix>
</trkpt>
<trkpt lat="-35.3623309" lon="149.162056">
  <ele>635.16</ele>
  <time>2026-08-27T18:27:56Z</time>
  <course>343.54</course>
  <speed>8.14</speed>
  <fix>3d</fix>
</trkpt>
<trkpt lat="-35.3623085" lon="149.162048">
  <ele>634.74</ele>
  <time>2026-08-27T18:27:56Z</time>
  <course>343.55</course>
  <speed>8.129212754012531</speed>
  <fix>3d</fix>
</trkpt>
<trkpt lat="-35.3623168" lon="149.1620509">
  <ele>634.87</ele>
  <time>2026-08-27T18:27:56Z</time>
  <course>343.54</course>
  <speed>8.14</speed>
  <fix>3d</fix>
</trkpt>
<trkpt lat="-35.3622945" lon="149.1620429">
  <ele>634.44</ele>
  <time>2026-08-27T18:27:56Z</time>
  <course>343.53</course>
  <speed>8.129212754012531</speed>
  <fix>3d</fix>
</trkpt>
<trkpt lat="-35.3623028" lon="149.1620458">
  <ele>634.56</ele>
  <time>2026-08-27T18:27:56Z</time>
  <course>343.53</course>
  <speed>8.14</speed>
  <fix>3d</fix>
</trkpt>
<trkpt lat="-35.3622805" lon="149.1620378">
  <ele>634.14</ele>
  <time>2026-08-27T18:27:56Z</time>
  <course>343.51</course>
  <speed>8.129212754012531</speed>
  <fix>3d</fix>
</trkpt>
<trkpt lat="-35.3622888" lon="149.1620407">
  <ele>634.27</ele>
  <time>2026-08-27T18:27:56Z</time>
  <course>343.52</course>
  <speed>8.14</speed>
  <fix>3d</fix>
</trkpt>
<trkpt lat="-35.3622665" lon="149.1620327">
  <ele>633.84</ele>
  <time>2026-08-27T18:27:56Z</time>
  <course>343.51</course>
  <speed>8.13203541556479</speed>
  <fix>3d</fix>
</trkpt>
<trkpt lat="-35.3622747" lon="149.1620356">
  <ele>633.97</ele>
  <time>2026-08-27T18:27:56Z</time>
  <course>343.51</course>
  <speed>8.14</speed>
  <fix>3d</fix>
</trkpt>
<trkpt lat="-35.3622525" lon="149.1620277">
  <ele>633.54</ele>
  <time>2026-08-27T18:27:56Z</time>
  <course>343.47</course>
  <speed>8.141627601407473</speed>
  <fix>3d</fix>
</trkpt>
<trkpt lat="-35.3622607" lon="149.1620305">
  <ele>633.67</ele>
  <time>2026-08-27T18:27:56Z</time>
  <course>343.5</course>
  <speed>8.15</speed>
  <fix>3d</fix>
</trkpt>
<trkpt lat="-35.3622385" lon="149.1620226">
  <ele>633.24</ele>
  <time>2026-08-27T18:27:56Z</time>
  <course>343.44</course>
  <speed>8.141627601407473</speed>
  <fix>3d</fix>
</trkpt>
<trkpt lat="-35.3622467" lon="149.1620254">
  <ele>633.37</ele>
  <time>2026-08-27T18:27:56Z</time>
  <course>343.49</course>
  <speed>8.15</speed>
  <fix>3d</fix>
</trkpt>
<trkpt lat="-35.3622245" lon="149.1620175">
  <ele>632.94</ele>
  <time>2026-08-27T18:27:56Z</time>
  <course>343.43</course>
  <speed>8.151220767467901</speed>
  <fix>3d</fix>
</trkpt>
<trkpt lat="-35.3622326" lon="149.1620203">
  <ele>633.06</ele>
  <time>2026-08-27T18:27:56Z</time>
  <course>343.48</course>
  <speed>8.16</speed>
  <fix>3d</fix>
</trkpt>
<trkpt lat="-35.3622105" lon="149.1620124">
  <ele>632.64</ele>
  <time>2026-08-27T18:27:56Z</time>
  <course>343.4</course>
  <speed>8.163638894512667</speed>
  <fix>3d</fix>
</trkpt>
<trkpt lat="-35.3622185" lon="149.1620152">
  <ele>632.77</ele>
  <time>2026-08-27T18:27:56Z</time>
  <course>343.48</course>
  <speed>8.17</speed>
  <fix>3d</fix>
</trkpt>
<trkpt lat="-35.3621964" lon="149.1620073">
  <ele>632.35</ele>
  <time>2026-08-27T18:27:56Z</time>
  <course>343.39</course>
  <speed>8.163638894512667</speed>
  <fix>3d</fix>
</trkpt>
<trkpt lat="-35.3622044" lon="149.1620101">
  <ele>632.47</ele>
  <time>2026-08-27T18:27:56Z</time>
  <course>343.47</course>
  <speed>8.18</speed>
  <fix>3d</fix>
</trkpt>
<trkpt lat="-35.3621823" lon="149.1620021">
  <ele>632.05</ele>
  <time>2026-08-27T18:27:56Z</time>
  <course>343.39</course>
  <speed>8.173230695386005</speed>
  <fix>3d</fix>
</trkpt>
<trkpt lat="-35.3621903" lon="149.162005">
  <ele>632.17</ele>
  <time>2026-08-27T18:27:56Z</time>
  <course>343.47</course>
  <speed>8.19</speed>
  <fix>3d</fix>
</trkpt>
<trkpt lat="-35.3621681" lon="149.161997">
  <ele>631.75</ele>
  <time>2026-08-27T18:27:56Z</time>
  <course>343.39</course>
  <speed>8.18565208153877</speed>
  <fix>3d</fix>
</trkpt>
<trkpt lat="-35.3621762" lon="149.1619998">
  <ele>631.87</ele>
  <time>2026-08-27T18:27:56Z</time>
  <course>343.47</course>
  <speed>8.2</speed>
  <fix>3d</fix>
</trkpt>
<trkpt lat="-35.3621539" lon="149.1619918">
  <ele>631.45</ele>
  <time>2026-08-27T18:27:56Z</time>
  <course>343.39</course>
  <speed>8.19524252234185</speed>
  <fix>3d</fix>
</trkpt>
<trkpt lat="-35.3621621" lon="149.1619946">
  <ele>631.56</ele>
  <time>2026-08-27T18:27:56Z</time>
  <course>343.47</course>
  <speed>8.21</speed>
  <fix>3d</fix>
</trkpt>
<trkpt lat="-35.3621398" lon="149.1619867">
  <ele>631.15</ele>
  <time>2026-08-27T18:27:56Z</time>
  <course>343.43</course>
  <speed>8.19524252234185</speed>
  <fix>3d</fix>
</trkpt>
<trkpt lat="-35.3621478" lon="149.1619895">
  <ele>631.27</ele>
  <time>2026-08-27T18:27:56Z</time>
  <course>343.47</course>
  <speed>8.22</speed>
  <fix>3d</fix>
</trkpt>
<trkpt lat="-35.3621256" lon="149.1619815">
  <ele>630.85</ele>
  <time>2026-08-27T18:27:56Z</time>
  <course>343.42</course>
  <speed>8.19524252234185</speed>
  <fix>3d</fix>
</trkpt>
<trkpt lat="-35.3621337" lon="149.1619844">
  <ele>630.97</ele>
  <time>2026-08-27T18:27:56Z</time>
  <course>343.48</course>
  <speed>8.22</speed>
  <fix>3d</fix>
</trkpt>
<trkpt lat="-35.3621114" lon="149.1619764">
  <ele>630.55</ele>
  <time>2026-08-27T18:27:56Z</time>
  <course>343.48</course>
  <speed>8.192417225703291</speed>
  <fix>3d</fix>
</trkpt>
<trkpt lat="-35.3621196" lon="149.1619792">
  <ele>630.67</ele>
  <time>2026-08-27T18:27:56Z</time>
  <course>343.49</course>
  <speed>8.22</speed>
  <fix>3d</fix>
</trkpt>
<trkpt lat="-35.3620973" lon="149.1619712">
  <ele>630.25</ele>
  <time>2026-08-27T18:27:56Z</time>
  <course>343.52</course>
  <speed>8.192417225703291</speed>
  <fix>3d</fix>
</trkpt>
<trkpt lat="-35.3621054" lon="149.1619741">
  <ele>630.37</ele>
  <time>2026-08-27T18:27:56Z</time>
  <course>343.5</course>
  <speed>8.21</speed>
  <fix>3d</fix>
</trkpt>
<trkpt lat="-35.3620831" lon="149.1619661">
  <ele>629.95</ele>
  <time>2026-08-27T18:27:56Z</time>
  <course>343.53</course>
  <speed>8.18282347359394</speed>
  <fix>3d</fix>
</trkpt>
<trkpt lat="-35.3620913" lon="149.161969">
  <ele>630.07</ele>
  <time>2026-08-27T18:27:56Z</time>
  <course>343.52</course>
  <speed>8.21</speed>
  <fix>3d</fix>
</trkpt>
<trkpt lat="-35.362069" lon="149.161961">
  <ele>629.65</ele>
  <time>2026-08-27T18:27:56Z</time>
  <course>343.55</course>
  <speed>8.180006112467154</speed>
  <fix>3d</fix>
</trkpt>
<trkpt lat="-35.3620771" lon="149.1619638">
  <ele>629.78</ele>
  <time>2026-08-27T18:27:56Z</time>
  <course>343.53</course>
  <speed>8.2</speed>
  <fix>3d</fix>
</trkpt>
<trkpt lat="-35.3620549" lon="149.1619559">
  <ele>629.35</ele>
  <time>2026-08-27T18:27:56Z</time>
  <course>343.56</course>
  <speed>8.170410026430742</speed>
  <fix>3d</fix>
</trkpt>
<trkpt lat="-35.362063" lon="149.1619587">
  <ele>629.48</ele>
  <time>2026-08-27T18:27:56Z</time>
  <course>343.55</course>
  <speed>8.19</speed>
  <fix>3d</fix>
</trkpt>
<trkpt lat="-35.3620407" lon="149.1619508">
  <ele>629.05</ele>
  <time>2026-08-27T18:27:56Z</time>
  <course>343.58</course>
  <speed>8.170410026430742</speed>
  <fix>3d</fix>
</trkpt>
<trkpt lat="-35.3620489" lon="149.1619536">
  <ele>629.18</ele>
  <time>2026-08-27T18:27:56Z</time>
  <course>343.56</course>
  <speed>8.19</speed>
  <fix>3d</fix>
</trkpt>
<trkpt lat="-35.3620265" lon="149.1619456">
  <ele>628.74</ele>
  <time>2026-08-27T18:27:56Z</time>
  <course>343.58</course>
  <speed>8.158002206422845</speed>
  <fix>3d</fix>
</trkpt>
<trkpt lat="-35.3620348" lon="149.1619485">
  <ele>628.88</ele>
  <time>2026-08-27T18:27:56Z</time>
  <course>343.57</course>
  <speed>8.18</speed>
  <fix>3d</fix>
</trkpt>
<trkpt lat="-35.3620124" lon="149.1619405">
  <ele>628.44</ele>
  <time>2026-08-27T18:27:56Z</time>
  <course>343.59</course>
  <speed>8.158002206422845</speed>
  <fix>3d</fix>
</trkpt>
<trkpt lat="-35.3620207" lon="149.1619434">
  <ele>628.57</ele>
  <time>2026-08-27T18:27:56Z</time>
  <course>343.58</course>
  <speed>8.17</speed>
  <fix>3d</fix>
</trkpt>
<trkpt lat="-35.3619983" lon="149.1619354">
  <ele>628.14</ele>
  <time>2026-08-27T18:27:56Z</time>
  <course>343.6</course>
  <speed>8.14840475185174</speed>
  <fix>3d</fix>
</trkpt>
<trkpt lat="-35.3620066" lon="149.1619383">
  <ele>628.28</ele>
  <time>2026-08-27T18:27:56Z</time>
  <course>343.59</course>
  <speed>8.17</speed>
  <fix>3d</fix>
</trkpt>
<trkpt lat="-35.3619842" lon="149.1619303">
  <ele>627.84</ele>
  <time>2026-08-27T18:27:56Z</time>
  <course>343.58</course>
  <speed>8.14840475185174</speed>
  <fix>3d</fix>
</trkpt>
<trkpt lat="-35.3619925" lon="149.1619332">
  <ele>627.98</ele>
  <time>2026-08-27T18:27:56Z</time>
  <course>343.59</course>
  <speed>8.16</speed>
  <fix>3d</fix>
</trkpt>
<trkpt lat="-35.3619701" lon="149.1619252">
  <ele>627.54</ele>
  <time>2026-08-27T18:27:56Z</time>
  <course>343.58</course>
  <speed>8.138808266570727</speed>
  <fix>3d</fix>
</trkpt>
<trkpt lat="-35.3619784" lon="149.1619281">
  <ele>627.68</ele>
  <time>2026-08-27T18:27:56Z</time>
  <course>343.59</course>
  <speed>8.15</speed>
  <fix>3d</fix>
</trkpt>
<trkpt lat="-35.361956" lon="149.1619202">
  <ele>627.24</ele>
  <time>2026-08-27T18:27:56Z</time>
  <course>343.58</course>
  <speed>8.138808266570727</speed>
  <fix>3d</fix>
</trkpt>
<trkpt lat="-35.3619644" lon="149.1619231">
  <ele>627.38</ele>
  <time>2026-08-27T18:27:56Z</time>
  <course>343.58</course>
  <speed>8.15</speed>
  <fix>3d</fix>
</trkpt>
<trkpt lat="-35.361942" lon="149.1619151">
  <ele>626.94</ele>
  <time>2026-08-27T18:27:56Z</time>
  <course>343.58</course>
  <speed>8.129212754012531</speed>
  <fix>3d</fix>
</trkpt>
<trkpt lat="-35.3619503" lon="149.161918">
  <ele>627.08</ele>
  <time>2026-08-27T18:27:56Z</time>
  <course>343.58</course>
  <speed>8.14</speed>
  <fix>3d</fix>
</trkpt>
<trkpt lat="-35.3619279" lon="149.16191">
  <ele>626.64</ele>
  <time>2026-08-27T18:27:56Z</time>
  <course>343.57</course>
  <speed>8.129212754012531</speed>
  <fix>3d</fix>
</trkpt>
<trkpt lat="-35.3619362" lon="149.1619129">
  <ele>626.79</ele>
  <time>2026-08-27T18:27:56Z</time>
  <course>343.57</course>
  <speed>8.14</speed>
  <fix>3d</fix>
</trkpt>
<trkpt lat="-35.3619139" lon="149.1619049">
  <ele>626.34</ele>
  <time>2026-08-27T18:27:56Z</time>
  <course>343.53</course>
  <speed>8.129212754012531</speed>
  <fix>3d</fix>
</trkpt>
<trkpt lat="-35.3619223" lon="149.1619079">
  <ele>626.49</ele>
  <time>2026-08-27T18:27:56Z</time>
  <course>343.57</course>
  <speed>8.14</speed>
  <fix>3d</fix>
</trkpt>
<trkpt lat="-35.3618999" lon="149.1618999">
  <ele>626.03</ele>
  <time>2026-08-27T18:27:56Z</time>
  <course>343.47</course>
  <speed>8.119618217625753</speed>
  <fix>3d</fix>
</trkpt>
<trkpt lat="-35.3619082" lon="149.1619028">
  <ele>626.19</ele>
  <time>2026-08-27T18:27:56Z</time>
  <course>343.56</course>
  <speed>8.13</speed>
  <fix>3d</fix>
</trkpt>
<trkpt lat="-35.3618859" lon="149.1618948">
  <ele>625.74</ele>
  <time>2026-08-27T18:27:56Z</time>
  <course>343.46</course>
  <speed>8.088015825899452</speed>
  <fix>3d</fix>
</trkpt>
<trkpt lat="-35.3618943" lon="149.1618977">
  <ele>625.89</ele>
  <time>2026-08-27T18:27:56Z</time>
  <course>343.54</course>
  <speed>8.12</speed>
  <fix>3d</fix>
</trkpt>
<trkpt lat="-35.3618719" lon="149.1618897">
  <ele>625.46</ele>
  <time>2026-08-27T18:27:56Z</time>
  <course>343.53</course>
  <speed>8.00845178545766</speed>
  <fix>3d</fix>
</trkpt>
<trkpt lat="-35.3618802" lon="149.1618927">
  <ele>625.6</ele>
  <time>2026-08-27T18:27:56Z</time>
  <course>343.51</course>
  <speed>8.08</speed>
  <fix>3d</fix>
</trkpt>
<trkpt lat="-35.3618582" lon="149.1618847">
  <ele>625.2</ele>
  <time>2026-08-27T18:27:56Z</time>
  <course>343.74</course>
  <speed>7.884871590584086</speed>
  <fix>3d</fix>
</trkpt>
<trkpt lat="-35.3618663" lon="149.1618877">
  <ele>625.32</ele>
  <time>2026-08-27T18:27:56Z</time>
  <course>343.47</course>
  <speed>7.98</speed>
  <fix>3d</fix>
</trkpt>
<trkpt lat="-35.3618448" lon="149.1618798">
  <ele>624.94</ele>
  <time>2026-08-27T18:27:56Z</time>
  <course>344.0</course>
  <speed>7.6952452852394515</speed>
  <fix>3d</fix>
</trkpt>
<trkpt lat="-35.3618527" lon="149.1618826">
  <ele>625.06</ele>
  <time>2026-08-27T18:27:56Z</time>
  <course>343.45</course>
  <speed>7.84</speed>
  <fix>3d</fix>
</trkpt>
<trkpt lat="-35.3618317" lon="149.1618751">
  <ele>624.7</ele>
  <time>2026-08-27T18:27:56Z</time>
  <course>344.29</course>
  <speed>7.454837355704013</speed>
  <fix>3d</fix>
</trkpt>
<trkpt lat="-35.3618393" lon="149.1618777">
  <ele>624.8</ele>
  <time>2026-08-27T18:27:56Z</time>
  <course>343.46</course>
  <speed>7.64</speed>
  <fix>3d</fix>
</trkpt>
<trkpt lat="-35.3618191" lon="149.1618705">
  <ele>624.45</ele>
  <time>2026-08-27T18:27:56Z</time>
  <course>344.57</course>
  <speed>7.170411424737077</speed>
  <fix>3d</fix>
</trkpt>
<trkpt lat="-35.3618264" lon="149.161873">
  <ele>624.56</ele>
  <time>2026-08-27T18:27:56Z</time>
  <course>343.53</course>
  <speed>7.39</speed>
  <fix>3d</fix>
</trkpt>
<trkpt lat="-35.361807" lon="149.1618661">
  <ele>624.22</ele>
  <time>2026-08-27T18:27:56Z</time>
  <course>344.84</course>
  <speed>6.844800946704002</speed>
  <fix>3d</fix>
</trkpt>
<trkpt lat="-35.3618139" lon="149.1618686">
  <ele>624.32</ele>
  <time>2026-08-27T18:27:56Z</time>
  <course>343.64</course>
  <speed>7.09</speed>
  <fix>3d</fix>
</trkpt>
<trkpt lat="-35.3617954" lon="149.161862">
  <ele>623.98</ele>
  <time>2026-08-27T18:27:56Z</time>
  <course>345.08</course>
  <speed>6.465609020038252</speed>
  <fix>3d</fix>
</trkpt>
<trkpt lat="-35.361802" lon="149.1618643">
  <ele>624.08</ele>
  <time>2026-08-27T18:27:56Z</time>
  <course>343.77</course>
  <speed>6.75</speed>
  <fix>3d</fix>
</trkpt>
<trkpt lat="-35.3617846" lon="149.1618581">
  <ele>623.76</ele>
  <time>2026-08-27T18:27:56Z</time>
  <course>345.27</course>
  <speed>6.057623296310196</speed>
  <fix>3d</fix>
</trkpt>
<trkpt lat="-35.3617907" lon="149.1618603">
  <ele>623.84</ele>
  <time>2026-08-27T18:27:56Z</time>
  <course>343.92</course>
  <speed>6.36</speed>
  <fix>3d</fix>
</trkpt>
<trkpt lat="-35.3617745" lon="149.1618546">
  <ele>623.54</ele>
  <time>2026-08-27T18:27:56Z</time>
  <course>345.42</course>
  <speed>5.586456837746087</speed>
  <fix>3d</fix>
</trkpt>
<trkpt lat="-35.3617801" lon="149.1618566">
  <ele>623.62</ele>
  <time>2026-08-27T18:27:56Z</time>
  <course>344.09</course>
  <speed>5.92</speed>
  <fix>3d</fix>
</trkpt>
<trkpt lat="-35.3617652" lon="149.1618513">
  <ele>623.33</ele>
  <time>2026-08-27T18:27:56Z</time>
  <course>345.48</course>
  <speed>5.061748709685221</speed>
  <fix>3d</fix>
</trkpt>
<trkpt lat="-35.3617703" lon="149.1618531">
  <ele>623.4</ele>
  <time>2026-08-27T18:27:56Z</time>
  <course>344.26</course>
  <speed>5.44</speed>
  <fix>3d</fix>
</trkpt>
<trkpt lat="-35.3617568" lon="149.1618484">
  <ele>623.13</ele>
  <time>2026-08-27T18:27:56Z</time>
  <course>345.51</course>
  <speed>4.4697203491941195</speed>
  <fix>3d</fix>
</trkpt>
<trkpt lat="-35.3617613" lon="149.16185">
  <ele>623.2</ele>
  <time>2026-08-27T18:27:56Z</time>
  <course>344.41</course>
  <speed>4.9</speed>
  <fix>3d</fix>
</trkpt>
<trkpt lat="-35.3617495" lon="149.1618459">
  <ele>622.96</ele>
  <time>2026-08-27T18:27:56Z</time>
  <course>345.45</course>
  <speed>3.804891588468718</speed>
  <fix>3d</fix>
</trkpt>
<trkpt lat="-35.3617533" lon="149.1618473">
  <ele>623.02</ele>
  <time>2026-08-27T18:27:56Z</time>
  <course>344.52</course>
  <speed>4.28</speed>
  <fix>3d</fix>
</trkpt>
<trkpt lat="-35.3617434" lon="149.1618439">
  <ele>622.8</ele>
  <time>2026-08-27T18:27:56Z</time>
  <course>345.23</course>
  <speed>3.079626600742369</speed>
  <fix>3d</fix>
</trkpt>
<trkpt lat="-35.3617464" lon="149.161845">
  <ele>622.85</ele>
  <time>2026-08-27T18:27:56Z</time>
  <course>344.6</course>
  <speed>3.59</speed>
  <fix>3d</fix>
</trkpt>
<trkpt lat="-35.3617386" lon="149.1618422">
  <ele>622.65</ele>
  <time>2026-08-27T18:27:56Z</time>
  <course>344.87</course>
  <speed>2.320021551624036</speed>
  <fix>3d</fix>
</trkpt>
<trkpt lat="-35.3617409" lon="149.1618432">
  <ele>622.69</ele>
  <time>2026-08-27T18:27:56Z</time>
  <course>344.74</course>
  <speed>2.85</speed>
  <fix>3d</fix>
</trkpt>
<trkpt lat="-35.3617352" lon="149.1618411">
  <ele>622.53</ele>
  <time>2026-08-27T18:27:56Z</time>
  <course>344.42</course>
  <speed>1.5288230767489088</speed>
  <fix>3d</fix>
</trkpt>
<trkpt lat="-35.3617367" lon="149.1618418">
  <ele>622.55</ele>
  <time>2026-08-27T18:27:56Z</time>
  <course>345.02</course>
  <speed>2.07</speed>
  <fix>3d</fix>
</trkpt>
<trkpt lat="-35.3617331" lon="149.1618404">
  <ele>622.41</ele>
  <time>2026-08-27T18:27:56Z</time>
  <course>343.79</course>
  <speed>0.7184010022264724</speed>
  <fix>3d</fix>
</trkpt>
<trkpt lat="-35.3617337" lon="149.1618408">
  <ele>622.42</ele>
  <time>2026-08-27T18:27:56Z</time>
  <course>345.69</course>
  <speed>1.27</speed>
  <fix>3d</fix>
</trkpt>
<trkpt lat="-35.3617324" lon="149.1618403">
  <ele>622.3</ele>
  <time>2026-08-27T18:27:56Z</time>
  <course>343.21</course>
  <speed>0.06082762530298219</speed>
  <fix>3d</fix>
</trkpt>
<trkpt lat="-35.3617322" lon="149.1618404">
  <ele>622.3</ele>
  <time>2026-08-27T18:27:56Z</time>
  <course>348.62</course>
  <speed>0.46</speed>
  <fix>3d</fix>
</trkpt>
<trkpt lat="-35.3617331" lon="149.1618406">
  <ele>622.21</ele>
  <time>2026-08-27T18:27:56Z</time>
  <course>342.71</course>
  <speed>0.8393449827097318</speed>
  <fix>3d</fix>
</trkpt>
<trkpt lat="-35.3617321" lon="149.1618404">
  <ele>622.19</ele>
  <time>2026-08-27T18:27:56Z</time>
  <course>157.66</course>
  <speed>0.33</speed>
  <fix>3d</fix>
</trkpt>
<trkpt lat="-35.3617351" lon="149.1618414">
  <ele>622.14</ele>
  <time>2026-08-27T18:27:56Z</time>
  <course>340.86</course>
  <speed>1.5880806024884253</speed>
  <fix>3d</fix>
</trkpt>
<trkpt lat="-35.3617333" lon="149.1618408">
  <ele>622.11</ele>
  <time>2026-08-27T18:27:56Z</time>
  <course>161.9</course>
  <speed>1.11</speed>
  <fix>3d</fix>
</trkpt>
<trkpt lat="-35.3617383" lon="149.1618426">
  <ele>622.07</ele>
  <time>2026-08-27T18:27:56Z</time>
  <course>325.76</course>
  <speed>2.334309319691801</speed>
  <fix>3d</fix>
</trkpt>
<trkpt lat="-35.3617358" lon="149.1618418">
  <ele>622.03</ele>
  <time>2026-08-27T18:27:56Z</time>
  <course>161.84</course>
  <speed>1.86</speed>
  <fix>3d</fix>
</trkpt>
<trkpt lat="-35.3617429" lon="149.1618444">
  <ele>622.03</ele>
  <time>2026-08-27T18:27:56Z</time>
  <course>312.27</course>
  <speed>3.058512710452582</speed>
  <fix>3d</fix>
</trkpt>
<trkpt lat="-35.3617395" lon="149.1618434">
  <ele>621.97</ele>
  <time>2026-08-27T18:27:56Z</time>
  <course>161.85</course>
  <speed>2.6</speed>
  <fix>3d</fix>
</trkpt>
<trkpt lat="-35.3617486" lon="149.1618467">
  <ele>622.0</ele>
  <time>2026-08-27T18:27:56Z</time>
  <course>299.54</course>
  <speed>3.728551997759988</speed>
  <fix>3d</fix>
</trkpt>
<trkpt lat="-35.3617446" lon="149.1618454">
  <ele>621.93</ele>
  <time>2026-08-27T18:27:56Z</time>
  <course>161.92</course>
  <speed>3.32</speed>
  <fix>3d</fix>
</trkpt>
<trkpt lat="-35.3617554" lon="149.1618496">
  <ele>621.97</ele>
  <time>2026-08-27T18:27:56Z</time>
  <course>287.44</course>
  <speed>4.332320394430679</speed>
  <fix>3d</fix>
</trkpt>
<trkpt lat="-35.3617509" lon="149.161848">
  <ele>621.89</ele>
  <time>2026-08-27T18:27:56Z</time>
  <course>161.52</course>
  <speed>3.98</speed>
  <fix>3d</fix>
</trkpt>
<trkpt lat="-35.3617632" lon="149.1618529">
  <ele>621.96</ele>
  <time>2026-08-27T18:27:56Z</time>
  <course>275.87</course>
  <speed>4.851082353454742</speed>
  <fix>3d</fix>
</trkpt>
<trkpt lat="-35.3617582" lon="149.161851">
  <ele>621.87</ele>
  <time>2026-08-27T18:27:56Z</time>
  <course>161.07</course>
  <speed>4.56</speed>
  <fix>3d</fix>
</trkpt>
<trkpt lat="-35.3617717" lon="149.1618565">
  <ele>621.96</ele>
  <time>2026-08-27T18:27:56Z</time>
  <course>264.59</course>
  <speed>5.274864927180601</speed>
  <fix>3d</fix>
</trkpt>
<trkpt lat="-35.3617664" lon="149.1618544">
  <ele>621.86</ele>
  <time>2026-08-27T18:27:56Z</time>
  <course>160.83</course>
  <speed>5.06</speed>
  <fix>3d</fix>
</trkpt>
<trkpt lat="-35.3617809" lon="149.1618604">
  <ele>621.97</ele>
  <time>2026-08-27T18:27:56Z</time>
  <course>253.41</course>
  <speed>5.632024502787608</speed>
  <fix>3d</fix>
</trkpt>
<trkpt lat="-35.3617753" lon="149.1618583">
  <ele>621.86</ele>
  <time>2026-08-27T18:27:56Z</time>
  <course>160.95</course>
  <speed>5.47</speed>
  <fix>3d</fix>
</trkpt>
<trkpt lat="-35.3617908" lon="149.1618645">
  <ele>621.97</ele>
  <time>2026-08-27T18:27:56Z</time>
  <course>242.03</course>
  <speed>5.967520423090313</speed>
  <fix>3d</fix>
</trkpt>
<trkpt lat="-35.361785" lon="149.1618623">
  <ele>621.86</ele>
  <time>2026-08-27T18:27:56Z</time>
  <course>161.48</course>
  <speed>5.82</speed>
  <fix>3d</fix>
</trkpt>
<trkpt lat="-35.3618013" lon="149.1618686">
  <ele>621.97</ele>
  <time>2026-08-27T18:27:56Z</time>
  <course>230.42</course>
  <speed>6.301571232637143</speed>
  <fix>3d</fix>
</trkpt>
<trkpt lat="-35.3617952" lon="149.1618664">
  <ele>621.86</ele>
  <time>2026-08-27T18:27:56Z</time>
  <course>162.29</course>
  <speed>6.15</speed>
  <fix>3d</fix>
</trkpt>
<trkpt lat="-35.3618125" lon="149.1618727">
  <ele>621.96</ele>
  <time>2026-08-27T18:27:56Z</time>
  <course>218.58</course>
  <speed>6.681234915792139</speed>
  <fix>3d</fix>
</trkpt>
<trkpt lat="-35.361806" lon="149.1618705">
  <ele>621.85</ele>
  <time>2026-08-27T18:27:56Z</time>
  <course>163.21</course>
  <speed>6.5</speed>
  <fix>3d</fix>
</trkpt>
<trkpt lat="-35.3618245" lon="149.1618769">
  <ele>621.94</ele>
  <time>2026-08-27T18:27:56Z</time>
  <course>206.29</course>
  <speed>7.140203078344481</speed>
  <fix>3d</fix>
</trkpt>
<trkpt lat="-35.3618176" lon="149.1618747">
  <ele>621.83</ele>
  <time>2026-08-27T18:27:56Z</time>
  <course>164.0</course>
  <speed>6.9</speed>
  <fix>3d</fix>
</trkpt>
<trkpt lat="-35.3618374" lon="149.1618813">
  <ele>621.91</ele>
  <time>2026-08-27T18:27:56Z</time>
  <course>193.5</course>
  <speed>7.6374864975330725</speed>
  <fix>3d</fix>
</trkpt>
<trkpt lat="-35.3618299" lon="149.1618789">
  <ele>621.8</ele>
  <time>2026-08-27T18:27:56Z</time>
  <course>164.43</course>
  <speed>7.36</speed>
  <fix>3d</fix>
</trkpt>
<trkpt lat="-35.3618511" lon="149.1618861">
  <ele>621.88</ele>
  <time>2026-08-27T18:27:56Z</time>
  <course>180.55</course>
  <speed>8.141363522162612</speed>
  <fix>3d</fix>
</trkpt>
<trkpt lat="-35.3618431" lon="149.1618834">
  <ele>621.76</ele>
  <time>2026-08-27T18:27:56Z</time>
  <course>164.39</course>
  <speed>7.86</speed>
  <fix>3d</fix>
</trkpt>
<trkpt lat="-35.3618656" lon="149.1618913">
  <ele>621.85</ele>
  <time>2026-08-27T18:27:56Z</time>
  <course>167.87</course>
  <speed>8.592659658103537</speed>
  <fix>3d</fix>
</trkpt>
<trkpt lat="-35.3618572" lon="149.1618883">
  <ele>621.72</ele>
  <time>2026-08-27T18:27:56Z</time>
  <course>163.9</course>
  <speed>8.34</speed>
  <fix>3d</fix>
</trkpt>
<trkpt lat="-35.3618807" lon="149.161897">
  <ele>621.84</ele>
  <time>2026-08-27T18:27:56Z</time>
  <course>156.3</course>
  <speed>8.937169574311545</speed>
  <fix>3d</fix>
</trkpt>
<trkpt lat="-35.3618719" lon="149.1618937">
  <ele>621.7</ele>
  <time>2026-08-27T18:27:56Z</time>
  <course>163.08</course>
  <speed>8.75</speed>
  <fix>3d</fix>
</trkpt>
<trkpt lat="-35.3618962" lon="149.1619033">
  <ele>621.85</ele>
  <time>2026-08-27T18:27:56Z</time>
  <course>155.29</course>
  <speed>9.177069248948708</speed>
  <fix>3d</fix>
</trkpt>
<trkpt lat="-35.3618872" lon="149.1618995">
  <ele>621.69</ele>
  <time>2026-08-27T18:27:56Z</time>
  <course>162.03</course>
  <speed>9.06</speed>
  <fix>3d</fix>
</trkpt>
<trkpt lat="-35.3619121" lon="149.1619099">
  <ele>621.85</ele>
  <time>2026-08-27T18:27:56Z</time>
  <course>156.01</course>
  <speed>9.376486548809208</speed>
  <fix>3d</fix>
</trkpt>
<trkpt lat="-35.3619028" lon="149.1619059">
  <ele>621.68</ele>
  <time>2026-08-27T18:27:56Z</time>
  <course>161.3</course>
  <speed>9.29</speed>
  <fix>3d</fix>
</trkpt>
<trkpt lat="-35.3619282" lon="149.1619166">
  <ele>621.84</ele>
  <time>2026-08-27T18:27:56Z</time>
  <course>156.71</course>
  <speed>9.540822815669516</speed>
  <fix>3d</fix>
</trkpt>
<trkpt lat="-35.3619188" lon="149.1619126">
  <ele>621.68</ele>
  <time>2026-08-27T18:27:56Z</time>
  <course>161.17</course>
  <speed>9.48</speed>
  <fix>3d</fix>
</trkpt>
<trkpt lat="-35.3619446" lon="149.1619234">
  <ele>621.83</ele>
  <time>2026-08-27T18:27:56Z</time>
  <course>157.32</course>
  <speed>9.682912784901038</speed>
  <fix>3d</fix>
</trkpt>
<trkpt lat="-35.361935" lon="149.1619193">
  <ele>621.67</ele>
  <time>2026-08-27T18:27:56Z</time>
  <course>161.33</course>
  <speed>9.63</speed>
  <fix>3d</fix>
</trkpt>
<trkpt lat="-35.3619612" lon="149.1619301">
  <ele>621.81</ele>
  <time>2026-08-27T18:27:56Z</time>
  <course>157.94</course>
  <speed>9.799984693865598</speed>
  <fix>3d</fix>
</trkpt>
<trkpt lat="-35.3619516" lon="149.1619261">
  <ele>621.66</ele>
  <time>2026-08-27T18:27:56Z</time>
  <course>161.64</course>
  <speed>9.77</speed>
  <fix>3d</fix>
</trkpt>
<trkpt lat="-35.3619781" lon="149.1619368">
  <ele>621.78</ele>
  <time>2026-08-27T18:27:56Z</time>
  <course>158.67</course>
  <speed>9.892259600313771</speed>
  <fix>3d</fix>
</trkpt>
<trkpt lat="-35.3619684" lon="149.1619329">
  <ele>621.63</ele>
  <time>2026-08-27T18:27:56Z</time>
  <course>162.02</course>
  <speed>9.87</speed>
  <fix>3d</fix>
</trkpt>
<trkpt lat="-35.3619951" lon="149.1619433">
  <ele>621.76</ele>
  <time>2026-08-27T18:27:56Z</time>
  <course>159.47</course>
  <speed>9.940910421083172</speed>
  <fix>3d</fix>
</trkpt>
<trkpt lat="-35.3619854" lon="149.1619395">
  <ele>621.61</ele>
  <time>2026-08-27T18:27:56Z</time>
  <course>162.45</course>
  <speed>9.95</speed>
  <fix>3d</fix>
</trkpt>
<trkpt lat="-35.3620124" lon="149.1619498">
  <ele>621.74</ele>
  <time>2026-08-27T18:27:56Z</time>
  <course>160.39</course>
  <speed>9.95566672804991</speed>
  <fix>3d</fix>
</trkpt>
<trkpt lat="-35.3620025" lon="149.1619461">
  <ele>621.58</ele>
  <time>2026-08-27T18:27:56Z</time>
  <course>162.92</course>
  <speed>9.98</speed>
  <fix>3d</fix>
</trkpt>
<trkpt lat="-35.3620297" lon="149.1619561">
  <ele>621.72</ele>
  <time>2026-08-27T18:27:56Z</time>
  <course>161.39</course>
  <speed>9.93000503524545</speed>
  <fix>3d</fix>
</trkpt>
<trkpt lat="-35.3620197" lon="149.1619525">
  <ele>621.57</ele>
  <time>2026-08-27T18:27:56Z</time>
  <course>163.42</course>
  <speed>9.98</speed>
  <fix>3d</fix>
</trkpt>
<trkpt lat="-35.3620469" lon="149.1619622">
  <ele>621.7</ele>
  <time>2026-08-27T18:27:57Z</time>
  <course>162.32</course>
  <speed>9.895473712763831</speed>
  <fix>3d</fix>
</trkpt>
<trkpt lat="-35.3620369" lon="149.1619587">
  <ele>621.54</ele>
  <time>2026-08-27T18:27:57Z</time>
  <course>163.93</course>
  <speed>9.94</speed>
  <fix>3d</fix>
</trkpt>
<trkpt lat="-35.3620641" lon="149.161968">
  <ele>621.66</ele>
  <time>2026-08-27T18:27:57Z</time>
  <course>163.07</course>
  <speed>9.861653005455018</speed>
  <fix>3d</fix>
</trkpt>
<trkpt lat="-35.362054" lon="149.1619646">
  <ele>621.51</ele>
  <time>2026-08-27T18:27:57Z</time>
  <course>164.44</course>
  <speed>9.9</speed>
  <fix>3d</fix>
</trkpt>
<trkpt lat="-35.3620813" lon="149.1619737">
  <ele>621.61</ele>
  <time>2026-08-27T18:27:57Z</time>
  <course>163.51</course>
  <speed>9.872345212764797</speed>
  <fix>3d</fix>
</trkpt>
<trkpt lat="-35.3620712" lon="149.1619704">
  <ele>621.47</ele>
  <time>2026-08-27T18:27:57Z</time>
  <course>164.91</course>
  <speed>9.87</speed>
  <fix>3d</fix>
</trkpt>
<trkpt lat="-35.3620985" lon="149.1619792">
  <ele>621.54</ele>
  <time>2026-08-27T18:27:57Z</time>
  <course>163.57</course>
  <speed>9.93953721256679</speed>
  <fix>3d</fix>
</trkpt>
<trkpt lat="-35.3620883" lon="149.1619759">
  <ele>621.42</ele>
  <time>2026-08-27T18:27:57Z</time>
  <course>165.32</course>
  <speed>9.9</speed>
  <fix>3d</fix>
</trkpt>
<trkpt lat="-35.3621158" lon="149.1619847">
  <ele>621.46</ele>
  <time>2026-08-27T18:27:57Z</time>
  <course>163.29</course>
  <speed>10.075098014411571</speed>
  <fix>3d</fix>
</trkpt>
<trkpt lat="-35.3621056" lon="149.1619815">
  <ele>621.35</ele>
  <time>2026-08-27T18:27:57Z</time>
  <course>165.61</course>
  <speed>9.98</speed>
  <fix>3d</fix>
</trkpt>
<trkpt lat="-35.3621335" lon="149.1619902">
  <ele>621.37</ele>
  <time>2026-08-27T18:27:57Z</time>
  <course>162.68</course>
  <speed>10.281249924012158</speed>
  <fix>3d</fix>
</trkpt>
<trkpt lat="-35.3621231" lon="149.1619869">
  <ele>621.26</ele>
  <time>2026-08-27T18:27:57Z</time>
  <course>165.74</course>
  <speed>10.13</speed>
  <fix>3d</fix>
</trkpt>
<trkpt lat="-35.3621515" lon="149.1619959">
  <ele>621.28</ele>
  <time>2026-08-27T18:27:57Z</time>
  <course>161.78</course>
  <speed>10.548298440980895</speed>
  <fix>3d</fix>
</trkpt>
<trkpt lat="-35.3621409" lon="149.1619925">
  <ele>621.18</ele>
  <time>2026-08-27T18:27:57Z</time>
  <course>165.68</course>
  <speed>10.36</speed>
  <fix>3d</fix>
</trkpt>
<trkpt lat="-35.36217" lon="149.1620018">
  <ele>621.2</ele>
  <time>2026-08-27T18:27:57Z</time>
  <course>160.65</course>
  <speed>10.874014897911444</speed>
  <fix>3d</fix>
</trkpt>
<trkpt lat="-35.3621592" lon="149.1619982">
  <ele>621.1</ele>
  <time>2026-08-27T18:27:57Z</time>
  <course>165.45</course>
  <speed>10.64</speed>
  <fix>3d</fix>
</trkpt>
<trkpt lat="-35.3621892" lon="149.1620081">
  <ele>621.13</ele>
  <time>2026-08-27T18:27:57Z</time>
  <course>159.33</course>
  <speed>11.236867891009489</speed>
  <fix>3d</fix>
</trkpt>
<trkpt lat="-35.362178" lon="149.1620042">
  <ele>621.02</ele>
  <time>2026-08-27T18:27:57Z</time>
  <course>165.09</course>
  <speed>10.98</speed>
  <fix>3d</fix>
</trkpt>
<trkpt lat="-35.362209" lon="149.1620148">
  <ele>621.07</ele>
  <time>2026-08-27T18:27:57Z</time>
  <course>157.87</course>
  <speed>11.627626584991454</speed>
  <fix>3d</fix>
</trkpt>
<trkpt lat="-35.3621973" lon="149.1620107">
  <ele>620.94</ele>
  <time>2026-08-27T18:27:57Z</time>
  <course>164.63</course>
  <speed>11.35</speed>
  <fix>3d</fix>
</trkpt>
<trkpt lat="-35.3622294" lon="149.1620219">
  <ele>621.02</ele>
  <time>2026-08-27T18:27:57Z</time>
  <course>156.46</course>
  <speed>12.031600059842415</speed>
  <fix>3d</fix>
</trkpt>
<trkpt lat="-35.3622174" lon="149.1620176">
  <ele>620.89</ele>
  <time>2026-08-27T18:27:57Z</time>
  <course>164.12</course>
  <speed>11.75</speed>
  <fix>3d</fix>
</trkpt>
<trkpt lat="-35.3622504" lon="149.1620295">
  <ele>620.99</ele>
  <time>2026-08-27T18:27:57Z</time>
  <course>155.35</course>
  <speed>12.392356515207267</speed>
  <fix>3d</fix>
</trkpt>
<trkpt lat="-35.362238" lon="149.1620249">
  <ele>620.85</ele>
  <time>2026-08-27T18:27:57Z</time>
  <course>163.61</course>
  <speed>12.14</speed>
  <fix>3d</fix>
</trkpt>
<trkpt lat="-35.362272" lon="149.1620375">
  <ele>620.98</ele>
  <time>2026-08-27T18:27:57Z</time>
  <course>154.83</course>
  <speed>12.71259611566418</speed>
  <fix>3d</fix>
</trkpt>
<trkpt lat="-35.3622592" lon="149.1620327">
  <ele>620.83</ele>
  <time>2026-08-27T18:27:57Z</time>
  <course>163.15</course>
  <speed>12.5</speed>
  <fix>3d</fix>
</trkpt>
<trkpt lat="-35.3622939" lon="149.1620458">
  <ele>620.98</ele>
  <time>2026-08-27T18:27:57Z</time>
  <course>155.01</course>
  <speed>12.951698730282448</speed>
  <fix>3d</fix>
</trkpt>
<trkpt lat="-35.3622809" lon="149.1620409">
  <ele>620.82</ele>
  <time>2026-08-27T18:27:57Z</time>
  <course>162.78</course>
  <speed>12.8</speed>
  <fix>3d</fix>
</trkpt>
<trkpt lat="-35.3623162" lon="149.1620544">
  <ele>621.0</ele>
  <time>2026-08-27T18:27:57Z</time>
  <course>155.8</course>
  <speed>13.12832434090505</speed>
  <fix>3d</fix>
</trkpt>
<trkpt lat="-35.3623032" lon="149.1620494">
  <ele>620.83</ele>
  <time>2026-08-27T18:27:57Z</time>
  <course>162.53</course>
  <speed>13.03</speed>
  <fix>3d</fix>
</trkpt>
<trkpt lat="-35.3623388" lon="149.1620631">
  <ele>621.02</ele>
  <time>2026-08-27T18:27:57Z</time>
  <course>156.93</course>
  <speed>13.229712770880553</speed>
  <fix>3d</fix>
</trkpt>
<trkpt lat="-35.3623257" lon="149.1620581">
  <ele>620.85</ele>
  <time>2026-08-27T18:27:57Z</time>
  <course>162.44</course>
  <speed>13.19</speed>
  <fix>3d</fix>
</trkpt>
<trkpt lat="-35.3623614" lon="149.1620718">
  <ele>621.03</ele>
  <time>2026-08-27T18:27:57Z</time>
  <course>158.14</course>
  <speed>13.293520978281112</speed>
  <fix>3d</fix>
</trkpt>
<trkpt lat="-35.3623483" lon="149.1620668">
  <ele>620.86</ele>
  <time>2026-08-27T18:27:57Z</time>
  <course>162.48</course>
  <speed>13.28</speed>
  <fix>3d</fix>
</trkpt>
<trkpt lat="-35.3623842" lon="149.1620805">
  <ele>621.04</ele>
  <time>2026-08-27T18:27:57Z</time>
  <course>159.28</course>
  <speed>13.307385167642815</speed>
  <fix>3d</fix>
</trkpt>
<trkpt lat="-35.3623711" lon="149.1620756">
  <ele>620.87</ele>
  <time>2026-08-27T18:27:57Z</time>
  <course>162.65</course>
  <speed>13.33</speed>
  <fix>3d</fix>
</trkpt>
<trkpt lat="-35.3624071" lon="149.1620892">
  <ele>621.04</ele>
  <time>2026-08-27T18:27:57Z</time>
  <course>160.4</course>
  <speed>13.277413151664748</speed>
  <fix>3d</fix>
</trkpt>
<trkpt lat="-35.362394" lon="149.1620843">
  <ele>620.87</ele>
  <time>2026-08-27T18:27:57Z</time>
  <course>162.89</course>
  <speed>13.33</speed>
  <fix>3d</fix>
</trkpt>
<trkpt lat="-35.3624301" lon="149.1620976">
  <ele>621.03</ele>
  <time>2026-08-27T18:27:57Z</time>
  <course>161.48</course>
  <speed>13.216145428981932</speed>
  <fix>3d</fix>
</trkpt>
<trkpt lat="-35.3624169" lon="149.1620929">
  <ele>620.86</ele>
  <time>2026-08-27T18:27:57Z</time>
  <course>163.18</course>
  <speed>13.3</speed>
  <fix>3d</fix>
</trkpt>
<trkpt lat="-35.3624529" lon="149.1621059">
  <ele>621.0</ele>
  <time>2026-08-27T18:27:57Z</time>
  <course>162.35</course>
  <speed>13.140015220691337</speed>
  <fix>3d</fix>
</trkpt>
<trkpt lat="-35.3624398" lon="149.1621013">
  <ele>620.85</ele>
  <time>2026-08-27T18:27:57Z</time>
  <course>163.49</course>
  <speed>13.23</speed>
  <fix>3d</fix>
</trkpt>
<trkpt lat="-35.3624757" lon="149.1621139">
  <ele>620.95</ele>
  <time>2026-08-27T18:27:57Z</time>
  <course>162.99</course>
  <speed>13.069862279305012</speed>
  <fix>3d</fix>
</trkpt>
<trkpt lat="-35.3624625" lon="149.1621094">
  <ele>620.82</ele>
  <time>2026-08-27T18:27:57Z</time>
  <course>163.81</course>
  <speed>13.15</speed>
  <fix>3d</fix>
</trkpt>
<trkpt lat="-35.3624983" lon="149.1621218">
  <ele>620.89</ele>
  <time>2026-08-27T18:27:57Z</time>
  <course>163.39</course>
  <speed>13.00001538460628</speed>
  <fix>3d</fix>
</trkpt>
<trkpt lat="-35.3624851" lon="149.1621174">
  <ele>620.77</ele>
  <time>2026-08-27T18:27:57Z</time>
  <course>164.11</course>
  <speed>13.07</speed>
  <fix>3d</fix>
</trkpt>
<trkpt lat="-35.3625208" lon="149.1621295">
  <ele>620.82</ele>
  <time>2026-08-27T18:27:57Z</time>
  <course>163.59</course>
  <speed>12.945423901904487</speed>
  <fix>3d</fix>
</trkpt>
<trkpt lat="-35.3625077" lon="149.1621252">
  <ele>620.7</ele>
  <time>2026-08-27T18:27:57Z</time>
  <course>164.36</course>
  <speed>13.0</speed>
  <fix>3d</fix>
</trkpt>
<trkpt lat="-35.3625433" lon="149.1621371">
  <ele>620.74</ele>
  <time>2026-08-27T18:27:57Z</time>
  <course>163.65</course>
  <speed>12.905909499140307</speed>
  <fix>3d</fix>
</trkpt>
<trkpt lat="-35.3625301" lon="149.1621329">
  <ele>620.63</ele>
  <time>2026-08-27T18:27:57Z</time>
  <course>164.54</course>
  <speed>12.95</speed>
  <fix>3d</fix>
</trkpt>
<trkpt lat="-35.3625657" lon="149.1621447">
  <ele>620.67</ele>
  <time>2026-08-27T18:27:57Z</time>
  <course>163.63</course>
  <speed>12.87433493427913</speed>
  <fix>3d</fix>
</trkpt>
<trkpt lat="-35.3625526" lon="149.1621405">
  <ele>620.56</ele>
  <time>2026-08-27T18:27:57Z</time>
  <course>164.63</course>
  <speed>12.91</speed>
  <fix>3d</fix>
</trkpt>
<trkpt lat="-35.362588" lon="149.1621522">
  <ele>620.6</ele>
  <time>2026-08-27T18:27:57Z</time>
  <course>163.56</course>
  <speed>12.845396062403058</speed>
  <fix>3d</fix>
</trkpt>
<trkpt lat="-35.3625749" lon="149.162148">
  <ele>620.49</ele>
  <time>2026-08-27T18:27:57Z</time>
  <course>164.64</course>
  <speed>12.87</speed>
  <fix>3d</fix>
</trkpt>
<trkpt lat="-35.3626102" lon="149.1621598">
  <ele>620.54</ele>
  <time>2026-08-27T18:27:57Z</time>
  <course>163.41</course>
  <speed>12.821766648945067</speed>
  <fix>3d</fix>
</trkpt>
<trkpt lat="-35.3625971" lon="149.1621555">
  <ele>620.43</ele>
  <time>2026-08-27T18:27:57Z</time>
  <course>164.58</course>
  <speed>12.84</speed>
  <fix>3d</fix>
</trkpt>
<trkpt lat="-35.3626325" lon="149.1621674">
  <ele>620.48</ele>
  <time>2026-08-27T18:27:57Z</time>
  <course>163.2</course>
  <speed>12.80087887607722</speed>
  <fix>3d</fix>
</trkpt>
<trkpt lat="-35.3626194" lon="149.162163">
  <ele>620.37</ele>
  <time>2026-08-27T18:27:57Z</time>
  <course>164.46</course>
  <speed>12.82</speed>
  <fix>3d</fix>
</trkpt>
<trkpt lat="-35.3626548" lon="149.1621751">
  <ele>620.42</ele>
  <time>2026-08-27T18:27:57Z</time>
  <course>162.95</course>
  <speed>12.789722436393998</speed>
  <fix>3d</fix>
</trkpt>
<trkpt lat="-35.3626416" lon="149.1621706">
  <ele>620.31</ele>
  <time>2026-08-27T18:27:57Z</time>
  <course>164.29</course>
  <speed>12.8</speed>
  <fix>3d</fix>
</trkpt>
<trkpt lat="-35.3626769" lon="149.1621828">
  <ele>620.37</ele>
  <time>2026-08-27T18:27:57Z</time>
  <course>162.67</course>
  <speed>12.784150343296186</speed>
  <fix>3d</fix>
</trkpt>
<trkpt lat="-35.3626637" lon="149.1621783">
  <ele>620.26</ele>
  <time>2026-08-27T18:27:57Z</time>
  <course>164.1</course>
  <speed>12.79</speed>
  <fix>3d</fix>
</trkpt>
<trkpt lat="-35.362699" lon="149.1621906">
  <ele>620.32</ele>
  <time>2026-08-27T18:27:57Z</time>
  <course>162.38</course>
  <speed>12.788404904443713</speed>
  <fix>3d</fix>
</trkpt>
<trkpt lat="-35.3626858" lon="149.1621861">
  <ele>620.22</ele>
  <time>2026-08-27T18:27:57Z</time>
  <course>163.87</course>
  <speed>12.79</speed>
  <fix>3d</fix>
</trkpt>
<trkpt lat="-35.362721" lon="149.1621986">
  <ele>620.28</ele>
  <time>2026-08-27T18:27:57Z</time>
  <course>162.07</course>
  <speed>12.790035183688902</speed>
  <fix>3d</fix>
</trkpt>
<trkpt lat="-35.3627079" lon="149.162194">
  <ele>620.17</ele>
  <time>2026-08-27T18:27:57Z</time>
  <course>163.64</course>
  <speed>12.79</speed>
  <fix>3d</fix>
</trkpt>
<trkpt lat="-35.362743" lon="149.1622066">
  <ele>620.23</ele>
  <time>2026-08-27T18:27:57Z</time>
  <course>161.74</course>
  <speed>12.80423757980146</speed>
  <fix>3d</fix>
</trkpt>
<trkpt lat="-35.36273" lon="149.1622019">
  <ele>620.13</ele>
  <time>2026-08-27T18:27:57Z</time>
  <course>163.41</course>
  <speed>12.8</speed>
  <fix>3d</fix>
</trkpt>
<trkpt lat="-35.362765" lon="149.1622147">
  <ele>620.19</ele>
  <time>2026-08-27T18:27:57Z</time>
  <course>161.42</course>
  <speed>12.8281916106675</speed>
  <fix>3d</fix>
</trkpt>
<trkpt lat="-35.362752" lon="149.16221">
  <ele>620.08</ele>
  <time>2026-08-27T18:27:57Z</time>
  <course>163.2</course>
  <speed>12.82</speed>
  <fix>3d</fix>
</trkpt>
<trkpt lat="-35.362787" lon="149.162223">
  <ele>620.15</ele>
  <time>2026-08-27T18:27:57Z</time>
  <course>161.14</course>
  <speed>12.852303295518668</speed>
  <fix>3d</fix>
</trkpt>
<trkpt lat="-35.362774" lon="149.1622183">
  <ele>620.04</ele>
  <time>2026-08-27T18:27:57Z</time>
  <course>162.99</course>
  <speed>12.84</speed>
  <fix>3d</fix>
</trkpt>
<trkpt lat="-35.362809" lon="149.1622313">
  <ele>620.1</ele>
  <time>2026-08-27T18:27:57Z</time>
  <course>160.9</course>
  <speed>12.883171193460095</speed>
  <fix>3d</fix>
</trkpt>
<trkpt lat="-35.3627961" lon="149.1622266">
  <ele>620.0</ele>
  <time>2026-08-27T18:27:57Z</time>
  <course>162.82</course>
  <speed>12.87</speed>
  <fix>3d</fix>
</trkpt>
<trkpt lat="-35.362831" lon="149.1622397">
  <ele>620.06</ele>
  <time>2026-08-27T18:27:57Z</time>
  <course>160.7</course>
  <speed>12.911150219868096</speed>
  <fix>3d</fix>
</trkpt>
<trkpt lat="-35.3628183" lon="149.162235">
  <ele>619.95</ele>
  <time>2026-08-27T18:27:57Z</time>
  <course>162.67</course>
  <speed>12.91</speed>
  <fix>3d</fix>
</trkpt>
<trkpt lat="-35.3628531" lon="149.1622482">
  <ele>620.02</ele>
  <time>2026-08-27T18:27:57Z</time>
  <course>160.56</course>
  <speed>12.94871422188319</speed>
  <fix>3d</fix>
</trkpt>
<trkpt lat="-35.3628404" lon="149.1622435">
  <ele>619.92</ele>
  <time>2026-08-27T18:27:57Z</time>
  <course>162.56</course>
  <speed>12.94</speed>
  <fix>3d</fix>
</trkpt>
<trkpt lat="-35.3628754" lon="149.1622568">
  <ele>619.98</ele>
  <time>2026-08-27T18:27:57Z</time>
  <course>160.45</course>
  <speed>12.983316217361418</speed>
  <fix>3d</fix>
</trkpt>
<trkpt lat="-35.3628626" lon="149.1622521">
  <ele>619.89</ele>
  <time>2026-08-27T18:27:57Z</time>
  <course>162.49</course>
  <speed>12.98</speed>
  <fix>3d</fix>
</trkpt>
<trkpt lat="-35.3628978" lon="149.1622655">
  <ele>619.95</ele>
  <time>2026-08-27T18:27:57Z</time>
  <course>160.44</course>
  <speed>13.014933730142463</speed>
  <fix>3d</fix>
</trkpt>
<trkpt lat="-35.3628849" lon="149.1622607">
  <ele>619.85</ele>
  <time>2026-08-27T18:27:57Z</time>
  <course>162.45</course>
  <speed>13.02</speed>
  <fix>3d</fix>
</trkpt>
<trkpt lat="-35.3629202" lon="149.1622741">
  <ele>619.91</ele>
  <time>2026-08-27T18:27:57Z</time>
  <course>160.52</course>
  <speed>13.043565463476618</speed>
  <fix>3d</fix>
</trkpt>
<trkpt lat="-35.3629073" lon="149.1622694">
  <ele>619.81</ele>
  <time>2026-08-27T18:27:57Z</time>
  <course>162.45</course>
  <speed>13.05</speed>
  <fix>3d</fix>
</trkpt>
<trkpt lat="-35.3629426" lon="149.1622828">
  <ele>619.88</ele>
  <time>2026-08-27T18:27:57Z</time>
  <course>160.67</course>
  <speed>13.072203333791897</speed>
  <fix>3d</fix>
</trkpt>
<trkpt lat="-35.3629296" lon="149.1622781">
  <ele>619.78</ele>
  <time>2026-08-27T18:27:57Z</time>
  <course>162.49</course>
  <speed>13.08</speed>
  <fix>3d</fix>
</trkpt>
<trkpt lat="-35.3629651" lon="149.1622914">
  <ele>619.85</ele>
  <time>2026-08-27T18:27:57Z</time>
  <course>160.85</course>
  <speed>13.085369692905125</speed>
  <fix>3d</fix>
</trkpt>
<trkpt lat="-35.3629521" lon="149.1622868">
  <ele>619.74</ele>
  <time>2026-08-27T18:27:57Z</time>
  <course>162.57</course>
  <speed>13.09</speed>
  <fix>3d</fix>
</trkpt>
<trkpt lat="-35.3629876" lon="149.1623">
  <ele>619.81</ele>
  <time>2026-08-27T18:27:57Z</time>
  <course>161.08</course>
  <speed>13.089025937784674</speed>
  <fix>3d</fix>
</trkpt>
<trkpt lat="-35.3629746" lon="149.1622954">
  <ele>619.71</ele>
  <time>2026-08-27T18:27:57Z</time>
  <course>162.67</course>
  <speed>13.11</speed>
  <fix>3d</fix>
</trkpt>
<trkpt lat="-35.3630102" lon="149.1623086">
  <ele>619.77</ele>
  <time>2026-08-27T18:27:57Z</time>
  <course>161.32</course>
  <speed>13.089797553820304</speed>
  <fix>3d</fix>
</trkpt>
<trkpt lat="-35.3629971" lon="149.162304">
  <ele>619.68</ele>
  <time>2026-08-27T18:27:57Z</time>
  <course>162.79</course>
  <speed>13.11</speed>
  <fix>3d</fix>
</trkpt>
<trkpt lat="-35.3630327" lon="149.1623171">
  <ele>619.73</ele>
  <time>2026-08-27T18:27:57Z</time>
  <course>161.58</course>
  <speed>13.087753817978086</speed>
  <fix>3d</fix>
</trkpt>
<trkpt lat="-35.3630196" lon="149.1623124">
  <ele>619.64</ele>
  <time>2026-08-27T18:27:57Z</time>
  <course>162.94</course>
  <speed>13.11</speed>
  <fix>3d</fix>
</trkpt>
<trkpt lat="-35.3630553" lon="149.1623254">
  <ele>619.69</ele>
  <time>2026-08-27T18:27:57Z</time>
  <course>161.82</course>
  <speed>13.088701234270724</speed>
  <fix>3d</fix>
</trkpt>
<trkpt lat="-35.3630421" lon="149.1623209">
  <ele>619.6</ele>
  <time>2026-08-27T18:27:57Z</time>
  <course>163.09</course>
  <speed>13.11</speed>
  <fix>3d</fix>
</trkpt>
<trkpt lat="-35.3630778" lon="149.1623337">
  <ele>619.65</ele>
  <time>2026-08-27T18:27:57Z</time>
  <course>162.07</course>
  <speed>13.077297121347362</speed>
  <fix>3d</fix>
</trkpt>
<trkpt lat="-35.3630646" lon="149.1623293">
  <ele>619.56</ele>
  <time>2026-08-27T18:27:57Z</time>
  <course>163.24</course>
  <speed>13.1</speed>
  <fix>3d</fix>
</trkpt>
<trkpt lat="-35.3631003" lon="149.162342">
  <ele>619.61</ele>
  <time>2026-08-27T18:27:57Z</time>
  <course>162.27</course>
  <speed>13.068817850134725</speed>
  <fix>3d</fix>
</trkpt>
<trkpt lat="-35.3630872" lon="149.1623376">
  <ele>619.52</ele>
  <time>2026-08-27T18:27:57Z</time>
  <course>163.39</course>
  <speed>13.09</speed>
  <fix>3d</fix>
</trkpt>
<trkpt lat="-35.3631231" lon="149.1623502">
  <ele>619.58</ele>
  <time>2026-08-27T18:27:57Z</time>
  <course>162.47</course>
  <speed>13.060401984625127</speed>
  <fix>3d</fix>
</trkpt>
<trkpt lat="-35.3631097" lon="149.1623457">
  <ele>619.48</ele>
  <time>2026-08-27T18:27:57Z</time>
  <course>163.52</course>
  <speed>13.08</speed>
  <fix>3d</fix>
</trkpt>
<trkpt lat="-35.3631457" lon="149.1623584">
  <ele>619.54</ele>
  <time>2026-08-27T18:27:57Z</time>
  <course>162.62</course>
  <speed>13.04522134729802</speed>
  <fix>3d</fix>
</trkpt>
<trkpt lat="-35.3631323" lon="149.1623539">
  <ele>619.43</ele>
  <time>2026-08-27T18:27:57Z</time>
  <course>163.64</course>
  <speed>13.07</speed>
  <fix>3d</fix>
</trkpt>
<trkpt lat="-35.3631682" lon="149.1623664">
  <ele>619.49</ele>
  <time>2026-08-27T18:27:57Z</time>
  <course>162.81</course>
  <speed>13.03006139663202</speed>
  <fix>3d</fix>
</trkpt>
<trkpt lat="-35.3631549" lon="149.162362">
  <ele>619.39</ele>
  <time>2026-08-27T18:27:57Z</time>
  <course>163.73</course>
  <speed>13.05</speed>
  <fix>3d</fix>
</trkpt>
<trkpt lat="-35.3631907" lon="149.1623745">
  <ele>619.45</ele>
  <time>2026-08-27T18:27:57Z</time>
  <course>162.96</course>
  <speed>13.005310453810782</speed>
  <fix>3d</fix>
</trkpt>
<trkpt lat="-35.3631774" lon="149.16237">
  <ele>619.34</ele>
  <time>2026-08-27T18:27:57Z</time>
  <course>163.81</course>
  <speed>13.03</speed>
  <fix>3d</fix>
</trkpt>
<trkpt lat="-35.3632132" lon="149.1623824">
  <ele>619.4</ele>
  <time>2026-08-27T18:27:57Z</time>
  <course>163.03</course>
  <speed>12.992940390843021</speed>
  <fix>3d</fix>
</trkpt>
<trkpt lat="-35.3631999" lon="149.162378">
  <ele>619.29</ele>
  <time>2026-08-27T18:27:57Z</time>
  <course>163.86</course>
  <speed>13.02</speed>
  <fix>3d</fix>
</trkpt>
<trkpt lat="-35.3632357" lon="149.1623904">
  <ele>619.35</ele>
  <time>2026-08-27T18:27:57Z</time>
  <course>163.06</course>
  <speed>12.98057394724902</speed>
  <fix>3d</fix>
</trkpt>
<trkpt lat="-35.3632223" lon="149.1623859">
  <ele>619.25</ele>
  <time>2026-08-27T18:27:57Z</time>
  <course>163.89</course>
  <speed>13.0</speed>
  <fix>3d</fix>
</trkpt>
<trkpt lat="-35.3632582" lon="149.1623983">
  <ele>619.3</ele>
  <time>2026-08-27T18:27:57Z</time>
  <course>163.11</course>
  <speed>12.961346380681292</speed>
  <fix>3d</fix>
</trkpt>
<trkpt lat="-35.3632448" lon="149.1623939">
  <ele>619.2</ele>
  <time>2026-08-27T18:27:57Z</time>
  <course>163.9</course>
  <speed>12.98</speed>
  <fix>3d</fix>
</trkpt>
<trkpt lat="-35.3632806" lon="149.1624063">
  <ele>619.25</ele>
  <time>2026-08-27T18:27:57Z</time>
  <course>163.1</course>
  <speed>12.942121155359349</speed>
  <fix>3d</fix>
</trkpt>
<trkpt lat="-35.3632671" lon="149.1624018">
  <ele>619.15</ele>
  <time>2026-08-27T18:27:57Z</time>
  <course>163.88</course>
  <speed>12.96</speed>
  <fix>3d</fix>
</trkpt>
<trkpt lat="-35.3633028" lon="149.1624142">
  <ele>619.21</ele>
  <time>2026-08-27T18:27:57Z</time>
  <course>163.06</course>
  <speed>12.925664392981894</speed>
  <fix>3d</fix>
</trkpt>
<trkpt lat="-35.3632894" lon="149.1624097">
  <ele>619.11</ele>
  <time>2026-08-27T18:27:57Z</time>
  <course>163.84</course>
  <speed>12.95</speed>
  <fix>3d</fix>
</trkpt>
<trkpt lat="-35.3633252" lon="149.1624222">
  <ele>619.16</ele>
  <time>2026-08-27T18:27:57Z</time>
  <course>163.01</course>
  <speed>12.918831216483943</speed>
  <fix>3d</fix>
</trkpt>
<trkpt lat="-35.3633118" lon="149.1624177">
  <ele>619.06</ele>
  <time>2026-08-27T18:27:57Z</time>
  <course>163.79</course>
  <speed>12.93</speed>
  <fix>3d</fix>
</trkpt>
<trkpt lat="-35.3633475" lon="149.1624302">
  <ele>619.12</ele>
  <time>2026-08-27T18:27:57Z</time>
  <course>162.89</course>
  <speed>12.91200991325518</speed>
  <fix>3d</fix>
</trkpt>
<trkpt lat="-35.3633341" lon="149.1624256">
  <ele>619.02</ele>
  <time>2026-08-27T18:27:57Z</time>
  <course>163.72</course>
  <speed>12.92</speed>
  <fix>3d</fix>
</trkpt>
<trkpt lat="-35.3633699" lon="149.1624382">
  <ele>619.07</ele>
  <time>2026-08-27T18:27:57Z</time>
  <course>162.77</course>
  <speed>12.89840300192237</speed>
  <fix>3d</fix>
</trkpt>
<trkpt lat="-35.3633564" lon="149.1624337">
  <ele>618.97</ele>
  <time>2026-08-27T18:27:57Z</time>
  <course>163.64</course>
  <speed>12.92</speed>
  <fix>3d</fix>
</trkpt>
<trkpt lat="-35.3633921" lon="149.1624463">
  <ele>619.02</ele>
  <time>2026-08-27T18:27:57Z</time>
  <course>162.64</course>
  <speed>12.90403037814155</speed>
  <fix>3d</fix>
</trkpt>
<trkpt lat="-35.3633787" lon="149.1624417">
  <ele>618.92</ele>
  <time>2026-08-27T18:27:57Z</time>
  <course>163.56</course>
  <speed>12.91</speed>
  <fix>3d</fix>
</trkpt>
<trkpt lat="-35.3634143" lon="149.1624544">
  <ele>618.97</ele>
  <time>2026-08-27T18:27:57Z</time>
  <course>162.52</course>
  <speed>12.900096898860877</speed>
  <fix>3d</fix>
</trkpt>
<trkpt lat="-35.3634009" lon="149.1624498">
  <ele>618.88</ele>
  <time>2026-08-27T18:27:57Z</time>
  <course>163.47</course>
  <speed>12.91</speed>
  <fix>3d</fix>
</trkpt>
<trkpt lat="-35.3634365" lon="149.1624625">
  <ele>618.93</ele>
  <time>2026-08-27T18:27:57Z</time>
  <course>162.37</course>
  <speed>12.905785524329776</speed>
  <fix>3d</fix>
</trkpt>
<trkpt lat="-35.3634232" lon="149.1624579">
  <ele>618.83</ele>
  <time>2026-08-27T18:27:57Z</time>
  <course>163.38</course>
  <speed>12.92</speed>
  <fix>3d</fix>
</trkpt>
<trkpt lat="-35.3634587" lon="149.1624707">
  <ele>618.89</ele>
  <time>2026-08-27T18:27:57Z</time>
  <course>162.23</course>
  <speed>12.921083545895058</speed>
  <fix>3d</fix>
</trkpt>
<trkpt lat="-35.3634455" lon="149.1624661">
  <ele>618.79</ele>
  <time>2026-08-27T18:27:57Z</time>
  <course>163.3</course>
  <speed>12.93</speed>
  <fix>3d</fix>
</trkpt>
<trkpt lat="-35.3634809" lon="149.1624789">
  <ele>618.85</ele>
  <time>2026-08-27T18:27:57Z</time>
  <course>162.14</course>
  <speed>12.926824822824821</speed>
  <fix>3d</fix>
</trkpt>
<trkpt lat="-35.3634677" lon="149.1624742">
  <ele>618.74</ele>
  <time>2026-08-27T18:27:57Z</time>
  <course>163.22</course>
  <speed>12.94</speed>
  <fix>3d</fix>
</trkpt>
<trkpt lat="-35.3635031" lon="149.1624871">
  <ele>618.81</ele>
  <time>2026-08-27T18:27:57Z</time>
  <course>162.05</course>
  <speed>12.93928127834</speed>
  <fix>3d</fix>
</trkpt>
<trkpt lat="-35.36349" lon="149.1624825">
  <ele>618.69</ele>
  <time>2026-08-27T18:27:57Z</time>
  <course>163.15</course>
  <speed>12.95</speed>
  <fix>3d</fix>
</trkpt>
<trkpt lat="-35.3635253" lon="149.1624954">
  <ele>618.77</ele>
  <time>2026-08-27T18:27:57Z</time>
  <course>161.99</course>
  <speed>12.95174119568485</speed>
  <fix>3d</fix>
</trkpt>
<trkpt lat="-35.3635123" lon="149.1624908">
  <ele>618.66</ele>
  <time>2026-08-27T18:27:57Z</time>
  <course>163.1</course>
  <speed>12.97</speed>
  <fix>3d</fix>
</trkpt>
<trkpt lat="-35.3635476" lon="149.1625037">
  <ele>618.73</ele>
  <time>2026-08-27T18:27:57Z</time>
  <course>161.96</course>
  <speed>12.964204564877862</speed>
  <fix>3d</fix>
</trkpt>
<trkpt lat="-35.3635346" lon="149.1624991">
  <ele>618.62</ele>
  <time>2026-08-27T18:27:57Z</time>
  <course>163.06</course>
  <speed>12.98</speed>
  <fix>3d</fix>
</trkpt>
<trkpt lat="-35.3635699" lon="149.1625121">
  <ele>618.68</ele>
  <time>2026-08-27T18:27:57Z</time>
  <course>161.95</course>
  <speed>12.976671375973117</speed>
  <fix>3d</fix>
</trkpt>
<trkpt lat="-35.3635569" lon="149.1625075">
  <ele>618.57</ele>
  <time>2026-08-27T18:27:57Z</time>
  <course>163.03</course>
  <speed>13.0</speed>
  <fix>3d</fix>
</trkpt>
<trkpt lat="-35.3635925" lon="149.1625205">
  <ele>618.64</ele>
  <time>2026-08-27T18:27:57Z</time>
  <course>161.94</course>
  <speed>12.98624272066405</speed>
  <fix>3d</fix>
</trkpt>
<trkpt lat="-35.3635793" lon="149.1625159">
  <ele>618.53</ele>
  <time>2026-08-27T18:27:57Z</time>
  <course>163.03</course>
  <speed>13.01</speed>
  <fix>3d</fix>
</trkpt>
<trkpt lat="-35.3636149" lon="149.1625289">
  <ele>618.59</ele>
  <time>2026-08-27T18:27:57Z</time>
  <course>161.96</course>
  <speed>13.005387345250428</speed>
  <fix>3d</fix>
</trkpt>
<trkpt lat="-35.3636016" lon="149.1625242">
  <ele>618.49</ele>
  <time>2026-08-27T18:27:57Z</time>
  <course>163.04</course>
  <speed>13.02</speed>
  <fix>3d</fix>
</trkpt>
<trkpt lat="-35.3636374" lon="149.1625373">
  <ele>618.55</ele>
  <time>2026-08-27T18:27:57Z</time>
  <course>162.04</course>
  <speed>13.014960622299247</speed>
  <fix>3d</fix>
</trkpt>
<trkpt lat="-35.363624" lon="149.1625326">
  <ele>618.44</ele>
  <time>2026-08-27T18:27:57Z</time>
  <course>163.06</course>
  <speed>13.03</speed>
  <fix>3d</fix>
</trkpt>
<trkpt lat="-35.3636599" lon="149.1625457">
  <ele>618.51</ele>
  <time>2026-08-27T18:27:57Z</time>
  <course>162.12</course>
  <speed>13.012075161172412</speed>
  <fix>3d</fix>
</trkpt>
<trkpt lat="-35.3636465" lon="149.1625409">
  <ele>618.41</ele>
  <time>2026-08-27T18:27:57Z</time>
  <course>163.09</course>
  <speed>13.03</speed>
  <fix>3d</fix>
</trkpt>
<trkpt lat="-35.3636823" lon="149.162554">
  <ele>618.47</ele>
  <time>2026-08-27T18:27:57Z</time>
  <course>162.26</course>
  <speed>13.00919674691716</speed>
  <fix>3d</fix>
</trkpt>
<trkpt lat="-35.3636688" lon="149.1625493">
  <ele>618.37</ele>
  <time>2026-08-27T18:27:57Z</time>
  <course>163.13</course>
  <speed>13.03</speed>
  <fix>3d</fix>
</trkpt>
<trkpt lat="-35.3637047" lon="149.1625623">
  <ele>618.43</ele>
  <time>2026-08-27T18:27:57Z</time>
  <course>162.39</course>
  <speed>12.99387932836072</speed>
  <fix>3d</fix>
</trkpt>
<trkpt lat="-35.3636913" lon="149.1625576">
  <ele>618.32</ele>
  <time>2026-08-27T18:27:57Z</time>
  <course>163.18</course>
  <speed>13.02</speed>
  <fix>3d</fix>
</trkpt>
<trkpt lat="-35.3637271" lon="149.1625705">
  <ele>618.39</ele>
  <time>2026-08-27T18:27:57Z</time>
  <course>162.49</course>
  <speed>12.991019975352206</speed>
  <fix>3d</fix>
</trkpt>
<trkpt lat="-35.3637137" lon="149.1625659">
  <ele>618.29</ele>
  <time>2026-08-27T18:27:57Z</time>
  <course>163.25</course>
  <speed>13.02</speed>
  <fix>3d</fix>
</trkpt>
<trkpt lat="-35.3637495" lon="149.1625788">
  <ele>618.35</ele>
  <time>2026-08-27T18:27:57Z</time>
  <course>162.56</course>
  <speed>12.98532248348111</speed>
  <fix>3d</fix>
</trkpt>
<trkpt lat="-35.363736" lon="149.1625742">
  <ele>618.25</ele>
  <time>2026-08-27T18:27:57Z</time>
  <course>163.31</course>
  <speed>13.01</speed>
  <fix>3d</fix>
</trkpt>
<trkpt lat="-35.3637717" lon="149.1625869">
  <ele>618.31</ele>
  <time>2026-08-27T18:27:57Z</time>
  <course>162.63</course>
  <speed>12.982484353928564</speed>
  <fix>3d</fix>
</trkpt>
<trkpt lat="-35.3637585" lon="149.1625824">
  <ele>618.2</ele>
  <time>2026-08-27T18:27:57Z</time>
  <course>163.37</course>
  <speed>13.01</speed>
  <fix>3d</fix>
</trkpt>
<trkpt lat="-35.3637941" lon="149.1625951">
  <ele>618.26</ele>
  <time>2026-08-27T18:27:57Z</time>
  <course>162.66</course>
  <speed>12.989245551609224</speed>
  <fix>3d</fix>
</trkpt>
<trkpt lat="-35.3637808" lon="149.1625905">
  <ele>618.16</ele>
  <time>2026-08-27T18:27:57Z</time>
  <course>163.42</course>
  <speed>13.01</speed>
  <fix>3d</fix>
</trkpt>
<trkpt lat="-35.3638167" lon="149.1626033">
  <ele>618.22</ele>
  <time>2026-08-27T18:27:57Z</time>
  <course>162.69</course>
  <speed>12.986423680136113</speed>
  <fix>3d</fix>
</trkpt>
<trkpt lat="-35.3638033" lon="149.1625987">
  <ele>618.12</ele>
  <time>2026-08-27T18:27:57Z</time>
  <course>163.46</course>
  <speed>13.01</speed>
  <fix>3d</fix>
</trkpt>
<trkpt lat="-35.3638391" lon="149.1626115">
  <ele>618.17</ele>
  <time>2026-08-27T18:27:57Z</time>
  <course>162.74</course>
  <speed>12.986423680136113</speed>
  <fix>3d</fix>
</trkpt>
<trkpt lat="-35.3638256" lon="149.1626069">
  <ele>618.07</ele>
  <time>2026-08-27T18:27:57Z</time>
  <course>163.5</course>
  <speed>13.01</speed>
  <fix>3d</fix>
</trkpt>
<trkpt lat="-35.3638616" lon="149.1626196">
  <ele>618.13</ele>
  <time>2026-08-27T18:27:57Z</time>
  <course>162.78</course>
  <speed>12.986423680136113</speed>
  <fix>3d</fix>
</trkpt>
<trkpt lat="-35.3638481" lon="149.162615">
  <ele>618.03</ele>
  <time>2026-08-27T18:27:57Z</time>
  <course>163.52</course>
  <speed>13.01</speed>
  <fix>3d</fix>
</trkpt>
<trkpt lat="-35.3638839" lon="149.1626277">
  <ele>618.09</ele>
  <time>2026-08-27T18:27:57Z</time>
  <course>162.84</course>
  <speed>12.974012486505476</speed>
  <fix>3d</fix>
</trkpt>
<trkpt lat="-35.3638706" lon="149.1626231">
  <ele>617.99</ele>
  <time>2026-08-27T18:27:57Z</time>
  <course>163.53</course>
  <speed>13.0</speed>
  <fix>3d</fix>
</trkpt>
<trkpt lat="-35.3639062" lon="149.1626358">
  <ele>618.05</ele>
  <time>2026-08-27T18:27:57Z</time>
  <course>162.88</course>
  <speed>12.974012486505476</speed>
  <fix>3d</fix>
</trkpt>
<trkpt lat="-35.363893" lon="149.1626312">
  <ele>617.94</ele>
  <time>2026-08-27T18:27:57Z</time>
  <course>163.54</course>
  <speed>13.0</speed>
  <fix>3d</fix>
</trkpt>
<trkpt lat="-35.3639285" lon="149.1626439">
  <ele>618.0</ele>
  <time>2026-08-27T18:27:57Z</time>
  <course>162.86</course>
  <speed>12.96441668568239</speed>
  <fix>3d</fix>
</trkpt>
<trkpt lat="-35.3639153" lon="149.1626394">
  <ele>617.9</ele>
  <time>2026-08-27T18:27:57Z</time>
  <course>163.55</course>
  <speed>13.0</speed>
  <fix>3d</fix>
</trkpt>
<trkpt lat="-35.3639509" lon="149.162652">
  <ele>617.95</ele>
  <time>2026-08-27T18:27:57Z</time>
  <course>162.82</course>
  <speed>12.96441668568239</speed>
  <fix>3d</fix>
</trkpt>
<trkpt lat="-35.3639378" lon="149.1626475">
  <ele>617.85</ele>
  <time>2026-08-27T18:27:57Z</time>
  <course>163.55</course>
  <speed>13.0</speed>
  <fix>3d</fix>
</trkpt>
<trkpt lat="-35.3639732" lon="149.1626601">
  <ele>617.91</ele>
  <time>2026-08-27T18:27:57Z</time>
  <course>162.79</course>
  <speed>12.976829350808309</speed>
  <fix>3d</fix>
</trkpt>
<trkpt lat="-35.3639601" lon="149.1626556">
  <ele>617.81</ele>
  <time>2026-08-27T18:27:57Z</time>
  <course>163.54</course>
  <speed>13.0</speed>
  <fix>3d</fix>
</trkpt>
<trkpt lat="-35.3639955" lon="149.1626681">
  <ele>617.86</ele>
  <time>2026-08-27T18:27:57Z</time>
  <course>162.76</course>
  <speed>12.976829350808309</speed>
  <fix>3d</fix>
</trkpt>
<trkpt lat="-35.3639826" lon="149.1626637">
  <ele>617.76</ele>
  <time>2026-08-27T18:27:57Z</time>
  <course>163.51</course>
  <speed>13.01</speed>
  <fix>3d</fix>
</trkpt>
<trkpt lat="-35.3640178" lon="149.1626763">
  <ele>617.82</ele>
  <time>2026-08-27T18:27:57Z</time>
  <course>162.72</course>
  <speed>12.979653308158891</speed>
  <fix>3d</fix>
</trkpt>
<trkpt lat="-35.364005" lon="149.1626719">
  <ele>617.72</ele>
  <time>2026-08-27T18:27:57Z</time>
  <course>163.49</course>
  <speed>13.01</speed>
  <fix>3d</fix>
</trkpt>
<trkpt lat="-35.3640403" lon="149.1626845">
  <ele>617.77</ele>
  <time>2026-08-27T18:27:57Z</time>
  <course>162.7</course>
  <speed>12.982484353928564</speed>
  <fix>3d</fix>
</trkpt>
<trkpt lat="-35.3640274" lon="149.16268">
  <ele>617.68</ele>
  <time>2026-08-27T18:27:57Z</time>
  <course>163.46</course>
  <speed>13.02</speed>
  <fix>3d</fix>
</trkpt>
<trkpt lat="-35.3640628" lon="149.1626927">
  <ele>617.73</ele>
  <time>2026-08-27T18:27:57Z</time>
  <course>162.68</course>
  <speed>12.98532248348111</speed>
  <fix>3d</fix>
</trkpt>
<trkpt lat="-35.3640499" lon="149.1626882">
  <ele>617.64</ele>
  <time>2026-08-27T18:27:57Z</time>
  <course>163.43</course>
  <speed>13.02</speed>
  <fix>3d</fix>
</trkpt>
<trkpt lat="-35.3640853" lon="149.1627009">
  <ele>617.69</ele>
  <time>2026-08-27T18:27:57Z</time>
  <course>162.68</course>
  <speed>12.994910542208437</speed>
  <fix>3d</fix>
</trkpt>
<trkpt lat="-35.3640723" lon="149.1626964">
  <ele>617.6</ele>
  <time>2026-08-27T18:27:57Z</time>
  <course>163.4</course>
  <speed>13.02</speed>
  <fix>3d</fix>
</trkpt>
<trkpt lat="-35.3641078" lon="149.1627091">
  <ele>617.66</ele>
  <time>2026-08-27T18:27:57Z</time>
  <course>162.71</course>
  <speed>12.988167692172748</speed>
  <fix>3d</fix>
</trkpt>
<trkpt lat="-35.3640948" lon="149.1627045">
  <ele>617.56</ele>
  <time>2026-08-27T18:27:57Z</time>
  <course>163.37</course>
  <speed>13.02</speed>
  <fix>3d</fix>
</trkpt>
<trkpt lat="-35.3641302" lon="149.1627174">
  <ele>617.62</ele>
  <time>2026-08-27T18:27:57Z</time>
  <course>162.75</course>
  <speed>12.988167692172748</speed>
  <fix>3d</fix>
</trkpt>
<trkpt lat="-35.3641171" lon="149.1627128">
  <ele>617.52</ele>
  <time>2026-08-27T18:27:57Z</time>
  <course>163.35</course>
  <speed>13.01</speed>
  <fix>3d</fix>
</trkpt>
<trkpt lat="-35.3641526" lon="149.1627256">
  <ele>617.58</ele>
  <time>2026-08-27T18:27:57Z</time>
  <course>162.78</course>
  <speed>12.978582357098944</speed>
  <fix>3d</fix>
</trkpt>
<trkpt lat="-35.3641396" lon="149.1627211">
  <ele>617.48</ele>
  <time>2026-08-27T18:27:57Z</time>
  <course>163.34</course>
  <speed>13.01</speed>
  <fix>3d</fix>
</trkpt>
<trkpt lat="-35.364175" lon="149.1627338">
  <ele>617.54</ele>
  <time>2026-08-27T18:27:57Z</time>
  <course>162.81</course>
  <speed>12.966148232995025</speed>
  <fix>3d</fix>
</trkpt>
<trkpt lat="-35.3641619" lon="149.1627292">
  <ele>617.43</ele>
  <time>2026-08-27T18:27:57Z</time>
  <course>163.33</course>
  <speed>13.0</speed>
  <fix>3d</fix>
</trkpt>
<trkpt lat="-35.3641973" lon="149.162742">
  <ele>617.5</ele>
  <time>2026-08-27T18:27:57Z</time>
  <course>162.81</course>
  <speed>12.956562043999172</speed>
  <fix>3d</fix>
</trkpt>
<trkpt lat="-35.3641843" lon="149.1627375">
  <ele>617.39</ele>
  <time>2026-08-27T18:27:57Z</time>
  <course>163.33</course>
  <speed>12.99</speed>
  <fix>3d</fix>
</trkpt>
<trkpt lat="-35.3642197" lon="149.1627502">
  <ele>617.45</ele>
  <time>2026-08-27T18:27:57Z</time>
  <course>162.78</course>
  <speed>12.956562043999172</speed>
  <fix>3d</fix>
</trkpt>
<trkpt lat="-35.3642066" lon="149.1627457">
  <ele>617.34</ele>
  <time>2026-08-27T18:27:57Z</time>
  <course>163.33</course>
  <speed>12.98</speed>
  <fix>3d</fix>
</trkpt>
<trkpt lat="-35.3642419" lon="149.1627584">
  <ele>617.41</ele>
  <time>2026-08-27T18:27:57Z</time>
  <course>162.77</course>
  <speed>12.956562043999172</speed>
  <fix>3d</fix>
</trkpt>
<trkpt lat="-35.364229" lon="149.1627538">
  <ele>617.3</ele>
  <time>2026-08-27T18:27:57Z</time>
  <course>163.33</course>
  <speed>12.98</speed>
  <fix>3d</fix>
</trkpt>
<trkpt lat="-35.3642642" lon="149.1627666">
  <ele>617.36</ele>
  <time>2026-08-27T18:27:57Z</time>
  <course>162.76</course>
  <speed>12.956562043999172</speed>
  <fix>3d</fix>
</trkpt>
<trkpt lat="-35.3642514" lon="149.1627621">
  <ele>617.25</ele>
  <time>2026-08-27T18:27:57Z</time>
  <course>163.32</course>
  <speed>12.98</speed>
  <fix>3d</fix>
</trkpt>
<trkpt lat="-35.3642868" lon="149.1627748">
  <ele>617.32</ele>
  <time>2026-08-27T18:27:57Z</time>
  <course>162.74</course>
  <speed>12.956562043999172</speed>
  <fix>3d</fix>
</trkpt>
<trkpt lat="-35.3642737" lon="149.1627702">
  <ele>617.2</ele>
  <time>2026-08-27T18:27:57Z</time>
  <course>163.32</course>
  <speed>12.98</speed>
  <fix>3d</fix>
</trkpt>
<trkpt lat="-35.3643091" lon="149.162783">
  <ele>617.28</ele>
  <time>2026-08-27T18:27:57Z</time>
  <course>162.72</course>
  <speed>12.959413566979023</speed>
  <fix>3d</fix>
</trkpt>
<trkpt lat="-35.364296" lon="149.1627785">
  <ele>617.16</ele>
  <time>2026-08-27T18:27:57Z</time>
  <course>163.32</course>
  <speed>12.98</speed>
  <fix>3d</fix>
</trkpt>
<trkpt lat="-35.3643315" lon="149.1627913">
  <ele>617.24</ele>
  <time>2026-08-27T18:27:58Z</time>
  <course>162.76</course>
  <speed>12.959413566979023</speed>
  <fix>3d</fix>
</trkpt>
<trkpt lat="-35.3643184" lon="149.1627866">
  <ele>617.11</ele>
  <time>2026-08-27T18:27:58Z</time>
  <course>163.32</course>
  <speed>12.98</speed>
  <fix>3d</fix>
</trkpt>
<trkpt lat="-35.3643539" lon="149.1627995">
  <ele>617.19</ele>
  <time>2026-08-27T18:27:58Z</time>
  <course>162.77</course>
  <speed>12.959413566979023</speed>
  <fix>3d</fix>
</trkpt>
<trkpt lat="-35.3643408" lon="149.1627949">
  <ele>617.06</ele>
  <time>2026-08-27T18:27:58Z</time>
  <course>163.31</course>
  <speed>12.98</speed>
  <fix>3d</fix>
</trkpt>
<trkpt lat="-35.3643763" lon="149.1628077">
  <ele>617.15</ele>
  <time>2026-08-27T18:27:58Z</time>
  <course>162.77</course>
  <speed>12.959413566979023</speed>
  <fix>3d</fix>
</trkpt>
<trkpt lat="-35.3643631" lon="149.1628031">
  <ele>617.02</ele>
  <time>2026-08-27T18:27:58Z</time>
  <course>163.31</course>
  <speed>12.98</speed>
  <fix>3d</fix>
</trkpt>
<trkpt lat="-35.3643986" lon="149.1628159">
  <ele>617.11</ele>
  <time>2026-08-27T18:27:58Z</time>
  <course>162.8</course>
  <speed>12.956562043999172</speed>
  <fix>3d</fix>
</trkpt>
<trkpt lat="-35.3643855" lon="149.1628114">
  <ele>616.97</ele>
  <time>2026-08-27T18:27:58Z</time>
  <course>163.32</course>
  <speed>12.97</speed>
  <fix>3d</fix>
</trkpt>
<trkpt lat="-35.3644208" lon="149.1628241">
  <ele>617.07</ele>
  <time>2026-08-27T18:27:58Z</time>
  <course>162.82</course>
  <speed>12.946976481016716</speed>
  <fix>3d</fix>
</trkpt>
<trkpt lat="-35.3644078" lon="149.1628195">
  <ele>616.93</ele>
  <time>2026-08-27T18:27:58Z</time>
  <course>163.32</course>
  <speed>12.97</speed>
  <fix>3d</fix>
</trkpt>
<trkpt lat="-35.3644431" lon="149.1628323">
  <ele>617.02</ele>
  <time>2026-08-27T18:27:58Z</time>
  <course>162.83</course>
  <speed>12.946976481016716</speed>
  <fix>3d</fix>
</trkpt>
<trkpt lat="-35.3644301" lon="149.1628278">
  <ele>616.88</ele>
  <time>2026-08-27T18:27:58Z</time>
  <course>163.33</course>
  <speed>12.97</speed>
  <fix>3d</fix>
</trkpt>
<trkpt lat="-35.3644653" lon="149.1628404">
  <ele>616.97</ele>
  <time>2026-08-27T18:27:58Z</time>
  <course>162.79</course>
  <speed>12.946976481016716</speed>
  <fix>3d</fix>
</trkpt>
<trkpt lat="-35.3644524" lon="149.1628359">
  <ele>616.83</ele>
  <time>2026-08-27T18:27:58Z</time>
  <course>163.33</course>
  <speed>12.97</speed>
  <fix>3d</fix>
</trkpt>
<trkpt lat="-35.3644875" lon="149.1628486">
  <ele>616.92</ele>
  <time>2026-08-27T18:27:58Z</time>
  <course>162.72</course>
  <speed>12.956562043999172</speed>
  <fix>3d</fix>
</trkpt>
<trkpt lat="-35.3644747" lon="149.1628441">
  <ele>616.78</ele>
  <time>2026-08-27T18:27:58Z</time>
  <course>163.34</course>
  <speed>12.98</speed>
  <fix>3d</fix>
</trkpt>
<trkpt lat="-35.3645099" lon="149.1628568">
  <ele>616.88</ele>
  <time>2026-08-27T18:27:58Z</time>
  <course>162.69</course>
  <speed>12.966148232995025</speed>
  <fix>3d</fix>
</trkpt>
<trkpt lat="-35.3644971" lon="149.1628523">
  <ele>616.73</ele>
  <time>2026-08-27T18:27:58Z</time>
  <course>163.35</course>
  <speed>12.99</speed>
  <fix>3d</fix>
</trkpt>
<trkpt lat="-35.3645324" lon="149.162865">
  <ele>616.83</ele>
  <time>2026-08-27T18:27:58Z</time>
  <course>162.64</course>
  <speed>12.978582357098944</speed>
  <fix>3d</fix>
</trkpt>
<trkpt lat="-35.3645195" lon="149.1628605">
  <ele>616.68</ele>
  <time>2026-08-27T18:27:58Z</time>
  <course>163.34</course>
  <speed>13.0</speed>
  <fix>3d</fix>
</trkpt>
<trkpt lat="-35.3645548" lon="149.1628732">
  <ele>616.79</ele>
  <time>2026-08-27T18:27:58Z</time>
  <course>162.62</course>
  <speed>12.997753652073884</speed>
  <fix>3d</fix>
</trkpt>
<trkpt lat="-35.3645419" lon="149.1628688">
  <ele>616.64</ele>
  <time>2026-08-27T18:27:58Z</time>
  <course>163.34</course>
  <speed>13.01</speed>
  <fix>3d</fix>
</trkpt>
<trkpt lat="-35.3645772" lon="149.1628815">
  <ele>616.74</ele>
  <time>2026-08-27T18:27:58Z</time>
  <course>162.68</course>
  <speed>13.00060383213026</speed>
  <fix>3d</fix>
</trkpt>
<trkpt lat="-35.3645643" lon="149.1628769">
  <ele>616.6</ele>
  <time>2026-08-27T18:27:58Z</time>
  <course>163.33</course>
  <speed>13.02</speed>
  <fix>3d</fix>
</trkpt>
<trkpt lat="-35.3645996" lon="149.1628897">
  <ele>616.7</ele>
  <time>2026-08-27T18:27:58Z</time>
  <course>162.71</course>
  <speed>13.00060383213026</speed>
  <fix>3d</fix>
</trkpt>
<trkpt lat="-35.3645868" lon="149.1628852">
  <ele>616.55</ele>
  <time>2026-08-27T18:27:58Z</time>
  <course>163.33</course>
  <speed>13.03</speed>
  <fix>3d</fix>
</trkpt>
<trkpt lat="-35.364622" lon="149.1628979">
  <ele>616.66</ele>
  <time>2026-08-27T18:27:58Z</time>
  <course>162.74</course>
  <speed>12.997753652073884</speed>
  <fix>3d</fix>
</trkpt>
<trkpt lat="-35.3646092" lon="149.1628935">
  <ele>616.51</ele>
  <time>2026-08-27T18:27:58Z</time>
  <course>163.33</course>
  <speed>13.03</speed>
  <fix>3d</fix>
</trkpt>
<trkpt lat="-35.3646445" lon="149.1629061">
  <ele>616.62</ele>
  <time>2026-08-27T18:27:58Z</time>
  <course>162.8</course>
  <speed>12.997753652073884</speed>
  <fix>3d</fix>
</trkpt>
<trkpt lat="-35.3646316" lon="149.1629017">
  <ele>616.48</ele>
  <time>2026-08-27T18:27:58Z</time>
  <course>163.34</course>
  <speed>13.03</speed>
  <fix>3d</fix>
</trkpt>
<trkpt lat="-35.3646669" lon="149.1629143">
  <ele>616.58</ele>
  <time>2026-08-27T18:27:58Z</time>
  <course>162.85</course>
  <speed>12.997753652073884</speed>
  <fix>3d</fix>
</trkpt>
<trkpt lat="-35.364654" lon="149.1629099">
  <ele>616.44</ele>
  <time>2026-08-27T18:27:58Z</time>
  <course>163.36</course>
  <speed>13.02</speed>
  <fix>3d</fix>
</trkpt>
<trkpt lat="-35.3646892" lon="149.1629225">
  <ele>616.54</ele>
  <time>2026-08-27T18:27:58Z</time>
  <course>162.9</course>
  <speed>12.994910542208437</speed>
  <fix>3d</fix>
</trkpt>
<trkpt lat="-35.3646765" lon="149.1629181">
  <ele>616.39</ele>
  <time>2026-08-27T18:27:58Z</time>
  <course>163.37</course>
  <speed>13.02</speed>
  <fix>3d</fix>
</trkpt>
<trkpt lat="-35.3647116" lon="149.1629307">
  <ele>616.5</ele>
  <time>2026-08-27T18:27:58Z</time>
  <course>162.9</course>
  <speed>12.994910542208437</speed>
  <fix>3d</fix>
</trkpt>
<trkpt lat="-35.3646988" lon="149.1629262">
  <ele>616.35</ele>
  <time>2026-08-27T18:27:58Z</time>
  <course>163.39</course>
  <speed>13.02</speed>
  <fix>3d</fix>
</trkpt>
<trkpt lat="-35.364734" lon="149.1629389">
  <ele>616.45</ele>
  <time>2026-08-27T18:27:58Z</time>
  <course>162.91</course>
  <speed>12.994910542208437</speed>
  <fix>3d</fix>
</trkpt>
<trkpt lat="-35.3647213" lon="149.1629345">
  <ele>616.31</ele>
  <time>2026-08-27T18:27:58Z</time>
  <course>163.4</course>
  <speed>13.01</speed>
  <fix>3d</fix>
</trkpt>
<trkpt lat="-35.3647566" lon="149.1629471">
  <ele>616.41</ele>
  <time>2026-08-27T18:27:58Z</time>
  <course>162.91</course>
  <speed>12.992074507175518</speed>
  <fix>3d</fix>
</trkpt>
<trkpt lat="-35.3647437" lon="149.1629426">
  <ele>616.26</ele>
  <time>2026-08-27T18:27:58Z</time>
  <course>163.41</course>
  <speed>13.01</speed>
  <fix>3d</fix>
</trkpt>
<trkpt lat="-35.3647791" lon="149.1629554">
  <ele>616.37</ele>
  <time>2026-08-27T18:27:58Z</time>
  <course>162.94</course>
  <speed>12.992074507175518</speed>
  <fix>3d</fix>
</trkpt>
<trkpt lat="-35.3647661" lon="149.1629509">
  <ele>616.22</ele>
  <time>2026-08-27T18:27:58Z</time>
  <course>163.42</course>
  <speed>13.01</speed>
  <fix>3d</fix>
</trkpt>
<trkpt lat="-35.3648016" lon="149.1629636">
  <ele>616.33</ele>
  <time>2026-08-27T18:27:58Z</time>
  <course>162.97</course>
  <speed>12.992074507175518</speed>
  <fix>3d</fix>
</trkpt>
<trkpt lat="-35.3647885" lon="149.1629591">
  <ele>616.18</ele>
  <time>2026-08-27T18:27:58Z</time>
  <course>163.42</course>
  <speed>13.01</speed>
  <fix>3d</fix>
</trkpt>
<trkpt lat="-35.3648241" lon="149.1629718">
  <ele>616.28</ele>
  <time>2026-08-27T18:27:58Z</time>
  <course>163.05</course>
  <speed>12.982484353928564</speed>
  <fix>3d</fix>
</trkpt>
<trkpt lat="-35.364811" lon="149.1629673">
  <ele>616.14</ele>
  <time>2026-08-27T18:27:58Z</time>
  <course>163.42</course>
  <speed>13.0</speed>
  <fix>3d</fix>
</trkpt>
<trkpt lat="-35.3648465" lon="149.16298">
  <ele>616.24</ele>
  <time>2026-08-27T18:27:58Z</time>
  <course>163.11</course>
  <speed>12.96330590551654</speed>
  <fix>3d</fix>
</trkpt>
<trkpt lat="-35.3648333" lon="149.1629754">
  <ele>616.09</ele>
  <time>2026-08-27T18:27:58Z</time>
  <course>163.42</course>
  <speed>12.98</speed>
  <fix>3d</fix>
</trkpt>
<trkpt lat="-35.3648689" lon="149.1629881">
  <ele>616.2</ele>
  <time>2026-08-27T18:27:58Z</time>
  <course>163.15</course>
  <speed>12.950880278961735</speed>
  <fix>3d</fix>
</trkpt>
<trkpt lat="-35.3648557" lon="149.1629836">
  <ele>616.05</ele>
  <time>2026-08-27T18:27:58Z</time>
  <course>163.43</course>
  <speed>12.97</speed>
  <fix>3d</fix>
</trkpt>
<trkpt lat="-35.3648912" lon="149.1629963">
  <ele>616.15</ele>
  <time>2026-08-27T18:27:58Z</time>
  <course>163.14</course>
  <speed>12.941290507518948</speed>
  <fix>3d</fix>
</trkpt>
<trkpt lat="-35.364878" lon="149.1629917">
  <ele>616.01</ele>
  <time>2026-08-27T18:27:58Z</time>
  <course>163.44</course>
  <speed>12.95</speed>
  <fix>3d</fix>
</trkpt>
<trkpt lat="-35.3649136" lon="149.1630044">
  <ele>616.1</ele>
  <time>2026-08-27T18:27:58Z</time>
  <course>163.14</course>
  <speed>12.928866926378351</speed>
  <fix>3d</fix>
</trkpt>
<trkpt lat="-35.3649003" lon="149.1629998">
  <ele>615.97</ele>
  <time>2026-08-27T18:27:58Z</time>
  <course>163.44</course>
  <speed>12.94</speed>
  <fix>3d</fix>
</trkpt>
<trkpt lat="-35.3649358" lon="149.1630125">
  <ele>616.06</ele>
  <time>2026-08-27T18:27:58Z</time>
  <course>163.11</course>
  <speed>12.928866926378351</speed>
  <fix>3d</fix>
</trkpt>
<trkpt lat="-35.3649226" lon="149.1630079">
  <ele>615.92</ele>
  <time>2026-08-27T18:27:58Z</time>
  <course>163.44</course>
  <speed>12.93</speed>
  <fix>3d</fix>
</trkpt>
<trkpt lat="-35.3649581" lon="149.1630207">
  <ele>616.01</ele>
  <time>2026-08-27T18:27:58Z</time>
  <course>163.06</course>
  <speed>12.928866926378351</speed>
  <fix>3d</fix>
</trkpt>
<trkpt lat="-35.3649449" lon="149.1630161">
  <ele>615.88</ele>
  <time>2026-08-27T18:27:58Z</time>
  <course>163.44</course>
  <speed>12.93</speed>
  <fix>3d</fix>
</trkpt>
<trkpt lat="-35.3649805" lon="149.1630288">
  <ele>615.96</ele>
  <time>2026-08-27T18:27:58Z</time>
  <course>162.97</course>
  <speed>12.93170135751673</speed>
  <fix>3d</fix>
</trkpt>
<trkpt lat="-35.3649671" lon="149.1630242">
  <ele>615.83</ele>
  <time>2026-08-27T18:27:58Z</time>
  <course>163.42</course>
  <speed>12.93</speed>
  <fix>3d</fix>
</trkpt>
<trkpt lat="-35.3650028" lon="149.163037">
  <ele>615.92</ele>
  <time>2026-08-27T18:27:58Z</time>
  <course>162.91</course>
  <speed>12.922112830338545</speed>
  <fix>3d</fix>
</trkpt>
<trkpt lat="-35.3649894" lon="149.1630323">
  <ele>615.79</ele>
  <time>2026-08-27T18:27:58Z</time>
  <course>163.4</course>
  <speed>12.93</speed>
  <fix>3d</fix>
</trkpt>
<trkpt lat="-35.3650251" lon="149.1630451">
  <ele>615.87</ele>
  <time>2026-08-27T18:27:58Z</time>
  <course>162.88</course>
  <speed>12.924956479617254</speed>
  <fix>3d</fix>
</trkpt>
<trkpt lat="-35.3650117" lon="149.1630405">
  <ele>615.75</ele>
  <time>2026-08-27T18:27:58Z</time>
  <course>163.37</course>
  <speed>12.93</speed>
  <fix>3d</fix>
</trkpt>
<trkpt lat="-35.3650473" lon="149.1630533">
  <ele>615.83</ele>
  <time>2026-08-27T18:27:58Z</time>
  <course>162.83</course>
  <speed>12.927807238661938</speed>
  <fix>3d</fix>
</trkpt>
<trkpt lat="-35.365034" lon="149.1630487">
  <ele>615.7</ele>
  <time>2026-08-27T18:27:58Z</time>
  <course>163.35</course>
  <speed>12.94</speed>
  <fix>3d</fix>
</trkpt>
<trkpt lat="-35.3650695" lon="149.1630615">
  <ele>615.79</ele>
  <time>2026-08-27T18:27:58Z</time>
  <course>162.78</course>
  <speed>12.937391545439134</speed>
  <fix>3d</fix>
</trkpt>
<trkpt lat="-35.3650563" lon="149.1630569">
  <ele>615.66</ele>
  <time>2026-08-27T18:27:58Z</time>
  <course>163.33</course>
  <speed>12.95</speed>
  <fix>3d</fix>
</trkpt>
<trkpt lat="-35.3650917" lon="149.1630696">
  <ele>615.74</ele>
  <time>2026-08-27T18:27:58Z</time>
  <course>162.7</course>
  <speed>12.949830114715791</speed>
  <fix>3d</fix>
</trkpt>
<trkpt lat="-35.3650786" lon="149.163065">
  <ele>615.62</ele>
  <time>2026-08-27T18:27:58Z</time>
  <course>163.31</course>
  <speed>12.96</speed>
  <fix>3d</fix>
</trkpt>
<trkpt lat="-35.3651139" lon="149.1630778">
  <ele>615.7</ele>
  <time>2026-08-27T18:27:58Z</time>
  <course>162.64</course>
  <speed>12.962272177361498</speed>
  <fix>3d</fix>
</trkpt>
<trkpt lat="-35.3651009" lon="149.1630733">
  <ele>615.57</ele>
  <time>2026-08-27T18:27:58Z</time>
  <course>163.29</course>
  <speed>12.97</speed>
  <fix>3d</fix>
</trkpt>
<trkpt lat="-35.3651362" lon="149.163086">
  <ele>615.66</ele>
  <time>2026-08-27T18:27:58Z</time>
  <course>162.58</course>
  <speed>12.971854146574422</speed>
  <fix>3d</fix>
</trkpt>
<trkpt lat="-35.3651232" lon="149.1630814">
  <ele>615.53</ele>
  <time>2026-08-27T18:27:58Z</time>
  <course>163.27</course>
  <speed>12.99</speed>
  <fix>3d</fix>
</trkpt>
<trkpt lat="-35.3651584" lon="149.1630942">
  <ele>615.61</ele>
  <time>2026-08-27T18:27:58Z</time>
  <course>162.56</course>
  <speed>12.984298209760896</speed>
  <fix>3d</fix>
</trkpt>
<trkpt lat="-35.3651456" lon="149.1630897">
  <ele>615.49</ele>
  <time>2026-08-27T18:27:58Z</time>
  <course>163.25</course>
  <speed>13.0</speed>
  <fix>3d</fix>
</trkpt>
<trkpt lat="-35.3651807" lon="149.1631025">
  <ele>615.57</ele>
  <time>2026-08-27T18:27:58Z</time>
  <course>162.55</course>
  <speed>13.006325384212097</speed>
  <fix>3d</fix>
</trkpt>
<trkpt lat="-35.365168" lon="149.163098">
  <ele>615.44</ele>
  <time>2026-08-27T18:27:58Z</time>
  <course>163.24</course>
  <speed>13.02</speed>
  <fix>3d</fix>
</trkpt>
<trkpt lat="-35.3652032" lon="149.1631107">
  <ele>615.53</ele>
  <time>2026-08-27T18:27:58Z</time>
  <course>162.52</course>
  <speed>13.015905654237049</speed>
  <fix>3d</fix>
</trkpt>
<trkpt lat="-35.3651904" lon="149.1631062">
  <ele>615.41</ele>
  <time>2026-08-27T18:27:58Z</time>
  <course>163.24</course>
  <speed>13.04</speed>
  <fix>3d</fix>
</trkpt>
<trkpt lat="-35.3652257" lon="149.1631191">
  <ele>615.49</ele>
  <time>2026-08-27T18:27:58Z</time>
  <course>162.53</course>
  <speed>13.025486555211671</speed>
  <fix>3d</fix>
</trkpt>
<trkpt lat="-35.3652128" lon="149.1631145">
  <ele>615.37</ele>
  <time>2026-08-27T18:27:58Z</time>
  <course>163.24</course>
  <speed>13.05</speed>
  <fix>3d</fix>
</trkpt>
<trkpt lat="-35.3652482" lon="149.1631274">
  <ele>615.45</ele>
  <time>2026-08-27T18:27:58Z</time>
  <course>162.59</course>
  <speed>13.0350680857447</speed>
  <fix>3d</fix>
</trkpt>
<trkpt lat="-35.3652353" lon="149.1631228">
  <ele>615.33</ele>
  <time>2026-08-27T18:27:58Z</time>
  <course>163.25</course>
  <speed>13.06</speed>
  <fix>3d</fix>
</trkpt>
<trkpt lat="-35.3652708" lon="149.1631357">
  <ele>615.41</ele>
  <time>2026-08-27T18:27:58Z</time>
  <course>162.69</course>
  <speed>13.0350680857447</speed>
  <fix>3d</fix>
</trkpt>
<trkpt lat="-35.3652578" lon="149.1631311">
  <ele>615.3</ele>
  <time>2026-08-27T18:27:58Z</time>
  <course>163.26</course>
  <speed>13.07</speed>
  <fix>3d</fix>
</trkpt>
<trkpt lat="-35.3652933" lon="149.1631439">
  <ele>615.37</ele>
  <time>2026-08-27T18:27:58Z</time>
  <course>162.79</course>
  <speed>13.03221009652622</speed>
  <fix>3d</fix>
</trkpt>
<trkpt lat="-35.3652803" lon="149.1631394">
  <ele>615.26</ele>
  <time>2026-08-27T18:27:58Z</time>
  <course>163.28</course>
  <speed>13.07</speed>
  <fix>3d</fix>
</trkpt>
<trkpt lat="-35.3653158" lon="149.1631522">
  <ele>615.33</ele>
  <time>2026-08-27T18:27:58Z</time>
  <course>162.87</course>
  <speed>13.029359155384427</speed>
  <fix>3d</fix>
</trkpt>
<trkpt lat="-35.3653028" lon="149.1631477">
  <ele>615.22</ele>
  <time>2026-08-27T18:27:58Z</time>
  <course>163.31</course>
  <speed>13.06</speed>
  <fix>3d</fix>
</trkpt>
<trkpt lat="-35.3653383" lon="149.1631604">
  <ele>615.3</ele>
  <time>2026-08-27T18:27:58Z</time>
  <course>162.96</course>
  <speed>13.026515266946873</speed>
  <fix>3d</fix>
</trkpt>
<trkpt lat="-35.3653253" lon="149.163156">
  <ele>615.19</ele>
  <time>2026-08-27T18:27:58Z</time>
  <course>163.35</course>
  <speed>13.06</speed>
  <fix>3d</fix>
</trkpt>
<trkpt lat="-35.3653608" lon="149.1631687">
  <ele>615.27</ele>
  <time>2026-08-27T18:27:58Z</time>
  <course>163.07</course>
  <speed>13.014088519754274</speed>
  <fix>3d</fix>
</trkpt>
<trkpt lat="-35.3653477" lon="149.1631641">
  <ele>615.15</ele>
  <time>2026-08-27T18:27:58Z</time>
  <course>163.39</course>
  <speed>13.05</speed>
  <fix>3d</fix>
</trkpt>
<trkpt lat="-35.3653832" lon="149.1631769">
  <ele>615.23</ele>
  <time>2026-08-27T18:27:58Z</time>
  <course>163.16</course>
  <speed>13.001665277955745</speed>
  <fix>3d</fix>
</trkpt>
<trkpt lat="-35.3653702" lon="149.1631724">
  <ele>615.11</ele>
  <time>2026-08-27T18:27:58Z</time>
  <course>163.42</course>
  <speed>13.03</speed>
  <fix>3d</fix>
</trkpt>
<trkpt lat="-35.3654056" lon="149.163185">
  <ele>615.18</ele>
  <time>2026-08-27T18:27:58Z</time>
  <course>163.22</course>
  <speed>12.989245551609224</speed>
  <fix>3d</fix>
</trkpt>
<trkpt lat="-35.3653927" lon="149.1631805">
  <ele>615.07</ele>
  <time>2026-08-27T18:27:58Z</time>
  <course>163.46</course>
  <speed>13.02</speed>
  <fix>3d</fix>
</trkpt>
<trkpt lat="-35.365428" lon="149.1631932">
  <ele>615.14</ele>
  <time>2026-08-27T18:27:58Z</time>
  <course>163.24</course>
  <speed>12.989245551609224</speed>
  <fix>3d</fix>
</trkpt>
<trkpt lat="-35.365415" lon="149.1631887">
  <ele>615.02</ele>
  <time>2026-08-27T18:27:58Z</time>
  <course>163.49</course>
  <speed>13.01</speed>
  <fix>3d</fix>
</trkpt>
<trkpt lat="-35.3654507" lon="149.1632014">
  <ele>615.1</ele>
  <time>2026-08-27T18:27:58Z</time>
  <course>163.26</course>
  <speed>12.976829350808309</speed>
  <fix>3d</fix>
</trkpt>
<trkpt lat="-35.3654375" lon="149.1631968">
  <ele>614.97</ele>
  <time>2026-08-27T18:27:58Z</time>
  <course>163.51</course>
  <speed>13.0</speed>
  <fix>3d</fix>
</trkpt>
<trkpt lat="-35.3654731" lon="149.1632095">
  <ele>615.06</ele>
  <time>2026-08-27T18:27:58Z</time>
  <course>163.3</course>
  <speed>12.967235634475067</speed>
  <fix>3d</fix>
</trkpt>
<trkpt lat="-35.3654599" lon="149.1632049">
  <ele>614.93</ele>
  <time>2026-08-27T18:27:58Z</time>
  <course>163.52</course>
  <speed>12.99</speed>
  <fix>3d</fix>
</trkpt>
<trkpt lat="-35.3654955" lon="149.1632176">
  <ele>615.01</ele>
  <time>2026-08-27T18:27:58Z</time>
  <course>163.3</course>
  <speed>12.954821496261536</speed>
  <fix>3d</fix>
</trkpt>
<trkpt lat="-35.3654822" lon="149.1632131">
  <ele>614.88</ele>
  <time>2026-08-27T18:27:58Z</time>
  <course>163.52</course>
  <speed>12.98</speed>
  <fix>3d</fix>
</trkpt>
<trkpt lat="-35.3655179" lon="149.1632258">
  <ele>614.96</ele>
  <time>2026-08-27T18:27:58Z</time>
  <course>163.31</course>
  <speed>12.945226919602453</speed>
  <fix>3d</fix>
</trkpt>
<trkpt lat="-35.3655047" lon="149.1632212">
  <ele>614.83</ele>
  <time>2026-08-27T18:27:58Z</time>
  <course>163.52</course>
  <speed>12.96</speed>
  <fix>3d</fix>
</trkpt>
<trkpt lat="-35.3655402" lon="149.1632339">
  <ele>614.91</ele>
  <time>2026-08-27T18:27:58Z</time>
  <course>163.27</course>
  <speed>12.935632957068627</speed>
  <fix>3d</fix>
</trkpt>
<trkpt lat="-35.365527" lon="149.1632293">
  <ele>614.78</ele>
  <time>2026-08-27T18:27:58Z</time>
  <course>163.51</course>
  <speed>12.96</speed>
  <fix>3d</fix>
</trkpt>
<trkpt lat="-35.3655626" lon="149.163242">
  <ele>614.87</ele>
  <time>2026-08-27T18:27:58Z</time>
  <course>163.24</course>
  <speed>12.938458177078132</speed>
  <fix>3d</fix>
</trkpt>
<trkpt lat="-35.3655493" lon="149.1632374">
  <ele>614.74</ele>
  <time>2026-08-27T18:27:58Z</time>
  <course>163.49</course>
  <speed>12.95</speed>
  <fix>3d</fix>
</trkpt>
<trkpt lat="-35.3655849" lon="149.1632501">
  <ele>614.82</ele>
  <time>2026-08-27T18:27:58Z</time>
  <course>163.22</course>
  <speed>12.928866926378351</speed>
  <fix>3d</fix>
</trkpt>
<trkpt lat="-35.3655716" lon="149.1632455">
  <ele>614.69</ele>
  <time>2026-08-27T18:27:58Z</time>
  <course>163.47</course>
  <speed>12.94</speed>
  <fix>3d</fix>
</trkpt>
<trkpt lat="-35.3656072" lon="149.1632583">
  <ele>614.78</ele>
  <time>2026-08-27T18:27:58Z</time>
  <course>163.19</course>
  <speed>12.91927629552058</speed>
  <fix>3d</fix>
</trkpt>
<trkpt lat="-35.3655938" lon="149.1632536">
  <ele>614.65</ele>
  <time>2026-08-27T18:27:58Z</time>
  <course>163.45</course>
  <speed>12.93</speed>
  <fix>3d</fix>
</trkpt>
<trkpt lat="-35.3656294" lon="149.1632664">
  <ele>614.74</ele>
  <time>2026-08-27T18:27:58Z</time>
  <course>163.14</course>
  <speed>12.922112830338545</speed>
  <fix>3d</fix>
</trkpt>
<trkpt lat="-35.3656161" lon="149.1632617">
  <ele>614.6</ele>
  <time>2026-08-27T18:27:58Z</time>
  <course>163.42</course>
  <speed>12.93</speed>
  <fix>3d</fix>
</trkpt>
<trkpt lat="-35.3656517" lon="149.1632745">
  <ele>614.69</ele>
  <time>2026-08-27T18:27:58Z</time>
  <course>163.07</course>
  <speed>12.912524927371873</speed>
  <fix>3d</fix>
</trkpt>
<trkpt lat="-35.3656383" lon="149.1632699">
  <ele>614.55</ele>
  <time>2026-08-27T18:27:58Z</time>
  <course>163.39</course>
  <speed>12.92</speed>
  <fix>3d</fix>
</trkpt>
<trkpt lat="-35.365674" lon="149.1632827">
  <ele>614.65</ele>
  <time>2026-08-27T18:27:58Z</time>
  <course>163.0</course>
  <speed>12.915370687672887</speed>
  <fix>3d</fix>
</trkpt>
<trkpt lat="-35.3656606" lon="149.163278">
  <ele>614.51</ele>
  <time>2026-08-27T18:27:58Z</time>
  <course>163.37</course>
  <speed>12.92</speed>
  <fix>3d</fix>
</trkpt>
<trkpt lat="-35.3656963" lon="149.1632909">
  <ele>614.6</ele>
  <time>2026-08-27T18:27:58Z</time>
  <course>162.94</course>
  <speed>12.927807238661938</speed>
  <fix>3d</fix>
</trkpt>
<trkpt lat="-35.3656828" lon="149.1632862">
  <ele>614.46</ele>
  <time>2026-08-27T18:27:58Z</time>
  <course>163.34</course>
  <speed>12.93</speed>
  <fix>3d</fix>
</trkpt>
<trkpt lat="-35.3657186" lon="149.1632991">
  <ele>614.56</ele>
  <time>2026-08-27T18:27:58Z</time>
  <course>162.86</course>
  <speed>12.930665102770236</speed>
  <fix>3d</fix>
</trkpt>
<trkpt lat="-35.3657051" lon="149.1632943">
  <ele>614.41</ele>
  <time>2026-08-27T18:27:58Z</time>
  <course>163.31</course>
  <speed>12.93</speed>
  <fix>3d</fix>
</trkpt>
<trkpt lat="-35.3657408" lon="149.1633073">
  <ele>614.51</ele>
  <time>2026-08-27T18:27:58Z</time>
  <course>162.81</course>
  <speed>12.930665102770236</speed>
  <fix>3d</fix>
</trkpt>
<trkpt lat="-35.3657275" lon="149.1633026">
  <ele>614.37</ele>
  <time>2026-08-27T18:27:58Z</time>
  <course>163.28</course>
  <speed>12.94</speed>
  <fix>3d</fix>
</trkpt>
<trkpt lat="-35.365763" lon="149.1633155">
  <ele>614.47</ele>
  <time>2026-08-27T18:27:58Z</time>
  <course>162.76</course>
  <speed>12.943110136284865</speed>
  <fix>3d</fix>
</trkpt>
<trkpt lat="-35.3657498" lon="149.1633107">
  <ele>614.32</ele>
  <time>2026-08-27T18:27:58Z</time>
  <course>163.26</course>
  <speed>12.95</speed>
  <fix>3d</fix>
</trkpt>
<trkpt lat="-35.3657853" lon="149.1633237">
  <ele>614.43</ele>
  <time>2026-08-27T18:27:58Z</time>
  <course>162.71</course>
  <speed>12.955558652562999</speed>
  <fix>3d</fix>
</trkpt>
<trkpt lat="-35.3657721" lon="149.163319">
  <ele>614.28</ele>
  <time>2026-08-27T18:27:58Z</time>
  <course>163.24</course>
  <speed>12.97</speed>
  <fix>3d</fix>
</trkpt>
<trkpt lat="-35.3658076" lon="149.1633319">
  <ele>614.38</ele>
  <time>2026-08-27T18:27:58Z</time>
  <course>162.67</course>
  <speed>12.965137870458609</speed>
  <fix>3d</fix>
</trkpt>
<trkpt lat="-35.3657944" lon="149.1633273">
  <ele>614.23</ele>
  <time>2026-08-27T18:27:58Z</time>
  <course>163.23</course>
  <speed>12.98</speed>
  <fix>3d</fix>
</trkpt>
<trkpt lat="-35.3658299" lon="149.1633401">
  <ele>614.34</ele>
  <time>2026-08-27T18:27:58Z</time>
  <course>162.63</course>
  <speed>12.987166742596322</speed>
  <fix>3d</fix>
</trkpt>
<trkpt lat="-35.3658167" lon="149.1633355">
  <ele>614.19</ele>
  <time>2026-08-27T18:27:58Z</time>
  <course>163.22</course>
  <speed>13.0</speed>
  <fix>3d</fix>
</trkpt>
<trkpt lat="-35.3658522" lon="149.1633484">
  <ele>614.29</ele>
  <time>2026-08-27T18:27:58Z</time>
  <course>162.61</course>
  <speed>12.99674574653209</speed>
  <fix>3d</fix>
</trkpt>
<trkpt lat="-35.3658391" lon="149.1633438">
  <ele>614.14</ele>
  <time>2026-08-27T18:27:58Z</time>
  <course>163.21</course>
  <speed>13.01</speed>
  <fix>3d</fix>
</trkpt>
<trkpt lat="-35.3658745" lon="149.1633567">
  <ele>614.25</ele>
  <time>2026-08-27T18:27:58Z</time>
  <course>162.65</course>
  <speed>13.006325384212097</speed>
  <fix>3d</fix>
</trkpt>
<trkpt lat="-35.3658614" lon="149.1633521">
  <ele>614.1</ele>
  <time>2026-08-27T18:27:58Z</time>
  <course>163.21</course>
  <speed>13.02</speed>
  <fix>3d</fix>
</trkpt>
<trkpt lat="-35.3658969" lon="149.1633649">
  <ele>614.21</ele>
  <time>2026-08-27T18:27:58Z</time>
  <course>162.65</course>
  <speed>13.015905654237049</speed>
  <fix>3d</fix>
</trkpt>
<trkpt lat="-35.3658839" lon="149.1633603">
  <ele>614.06</ele>
  <time>2026-08-27T18:27:58Z</time>
  <course>163.22</course>
  <speed>13.04</speed>
  <fix>3d</fix>
</trkpt>
<trkpt lat="-35.3659196" lon="149.1633733">
  <ele>614.17</ele>
  <time>2026-08-27T18:27:58Z</time>
  <course>162.7</course>
  <speed>13.025486555211671</speed>
  <fix>3d</fix>
</trkpt>
<trkpt lat="-35.3659064" lon="149.1633686">
  <ele>614.02</ele>
  <time>2026-08-27T18:27:58Z</time>
  <course>163.24</course>
  <speed>13.04</speed>
  <fix>3d</fix>
</trkpt>
<trkpt lat="-35.3659421" lon="149.1633816">
  <ele>614.12</ele>
  <time>2026-08-27T18:27:58Z</time>
  <course>162.76</course>
  <speed>13.0350680857447</speed>
  <fix>3d</fix>
</trkpt>
<trkpt lat="-35.3659288" lon="149.1633769">
  <ele>613.98</ele>
  <time>2026-08-27T18:27:58Z</time>
  <course>163.26</course>
  <speed>13.05</speed>
  <fix>3d</fix>
</trkpt>
<trkpt lat="-35.3659647" lon="149.1633899">
  <ele>614.08</ele>
  <time>2026-08-27T18:27:58Z</time>
  <course>162.82</course>
  <speed>13.03221009652622</speed>
  <fix>3d</fix>
</trkpt>
<trkpt lat="-35.3659513" lon="149.1633852">
  <ele>613.94</ele>
  <time>2026-08-27T18:27:58Z</time>
  <course>163.29</course>
  <speed>13.05</speed>
  <fix>3d</fix>
</trkpt>
<trkpt lat="-35.3659872" lon="149.1633982">
  <ele>614.04</ele>
  <time>2026-08-27T18:27:58Z</time>
  <course>162.94</course>
  <speed>13.029359155384427</speed>
  <fix>3d</fix>
</trkpt>
<trkpt lat="-35.3659738" lon="149.1633934">
  <ele>613.9</ele>
  <time>2026-08-27T18:27:58Z</time>
  <course>163.32</course>
  <speed>13.05</speed>
  <fix>3d</fix>
</trkpt>
<trkpt lat="-35.3660097" lon="149.1634064">
  <ele>613.99</ele>
  <time>2026-08-27T18:27:58Z</time>
  <course>163.04</course>
  <speed>13.016927440836412</speed>
  <fix>3d</fix>
</trkpt>
<trkpt lat="-35.3659962" lon="149.1634017">
  <ele>613.86</ele>
  <time>2026-08-27T18:27:58Z</time>
  <course>163.35</course>
  <speed>13.04</speed>
  <fix>3d</fix>
</trkpt>
<trkpt lat="-35.3660321" lon="149.1634146">
  <ele>613.95</ele>
  <time>2026-08-27T18:27:58Z</time>
  <course>163.14</course>
  <speed>13.00449922142333</speed>
  <fix>3d</fix>
</trkpt>
<trkpt lat="-35.3660187" lon="149.16341">
  <ele>613.82</ele>
  <time>2026-08-27T18:27:58Z</time>
  <course>163.39</course>
  <speed>13.03</speed>
  <fix>3d</fix>
</trkpt>
<trkpt lat="-35.3660545" lon="149.1634228">
  <ele>613.91</ele>
  <time>2026-08-27T18:27:58Z</time>
  <course>163.21</course>
  <speed>12.992074507175518</speed>
  <fix>3d</fix>
</trkpt>
<trkpt lat="-35.3660411" lon="149.1634181">
  <ele>613.78</ele>
  <time>2026-08-27T18:27:58Z</time>
  <course>163.42</course>
  <speed>13.01</speed>
  <fix>3d</fix>
</trkpt>
<trkpt lat="-35.3660769" lon="149.1634309">
  <ele>613.87</ele>
  <time>2026-08-27T18:27:58Z</time>
  <course>163.22</course>
  <speed>12.979653308158891</speed>
  <fix>3d</fix>
</trkpt>
<trkpt lat="-35.3660636" lon="149.1634263">
  <ele>613.74</ele>
  <time>2026-08-27T18:27:58Z</time>
  <course>163.46</course>
  <speed>13.0</speed>
  <fix>3d</fix>
</trkpt>
<trkpt lat="-35.3660992" lon="149.163439">
  <ele>613.82</ele>
  <time>2026-08-27T18:27:58Z</time>
  <course>163.21</course>
  <speed>12.967235634475067</speed>
  <fix>3d</fix>
</trkpt>
<trkpt lat="-35.3660859" lon="149.1634344">
  <ele>613.69</ele>
  <time>2026-08-27T18:27:58Z</time>
  <course>163.48</course>
  <speed>12.99</speed>
  <fix>3d</fix>
</trkpt>
<trkpt lat="-35.3661215" lon="149.1634472">
  <ele>613.77</ele>
  <time>2026-08-27T18:27:58Z</time>
  <course>163.19</course>
  <speed>12.967235634475067</speed>
  <fix>3d</fix>
</trkpt>
<trkpt lat="-35.3661082" lon="149.1634426">
  <ele>613.66</ele>
  <time>2026-08-27T18:27:58Z</time>
  <course>163.5</course>
  <speed>12.99</speed>
  <fix>3d</fix>
</trkpt>
<trkpt lat="-35.366144" lon="149.1634553">
  <ele>613.73</ele>
  <time>2026-08-27T18:27:58Z</time>
  <course>163.17</course>
  <speed>12.967235634475067</speed>
  <fix>3d</fix>
</trkpt>
<trkpt lat="-35.3661307" lon="149.1634507">
  <ele>613.62</ele>
  <time>2026-08-27T18:27:58Z</time>
  <course>163.51</course>
  <speed>12.99</speed>
  <fix>3d</fix>
</trkpt>
<trkpt lat="-35.3661665" lon="149.1634635">
  <ele>613.69</ele>
  <time>2026-08-27T18:27:58Z</time>
  <course>163.17</course>
  <speed>12.967235634475067</speed>
  <fix>3d</fix>
</trkpt>
<trkpt lat="-35.366153" lon="149.1634588">
  <ele>613.57</ele>
  <time>2026-08-27T18:27:58Z</time>
  <course>163.5</course>
  <speed>12.98</speed>
  <fix>3d</fix>
</trkpt>
<trkpt lat="-35.3661888" lon="149.1634716">
  <ele>613.65</ele>
  <time>2026-08-27T18:27:58Z</time>
  <course>163.18</course>
  <speed>12.957642532497955</speed>
  <fix>3d</fix>
</trkpt>
<trkpt lat="-35.3661754" lon="149.1634669">
  <ele>613.53</ele>
  <time>2026-08-27T18:27:58Z</time>
  <course>163.49</course>
  <speed>12.98</speed>
  <fix>3d</fix>
</trkpt>
<trkpt lat="-35.3662111" lon="149.1634797">
  <ele>613.6</ele>
  <time>2026-08-27T18:27:58Z</time>
  <course>163.17</course>
  <speed>12.948050046242484</speed>
  <fix>3d</fix>
</trkpt>
<trkpt lat="-35.3661979" lon="149.1634751">
  <ele>613.49</ele>
  <time>2026-08-27T18:27:58Z</time>
  <course>163.48</course>
  <speed>12.98</speed>
  <fix>3d</fix>
</trkpt>
<trkpt lat="-35.3662334" lon="149.1634878">
  <ele>613.56</ele>
  <time>2026-08-27T18:27:58Z</time>
  <course>163.15</course>
  <speed>12.950880278961735</speed>
  <fix>3d</fix>
</trkpt>
<trkpt lat="-35.3662202" lon="149.1634832">
  <ele>613.45</ele>
  <time>2026-08-27T18:27:58Z</time>
  <course>163.46</course>
  <speed>12.97</speed>
  <fix>3d</fix>
</trkpt>
<trkpt lat="-35.3662557" lon="149.1634959">
  <ele>613.52</ele>
  <time>2026-08-27T18:27:58Z</time>
  <course>163.08</course>
  <speed>12.950880278961735</speed>
  <fix>3d</fix>
</trkpt>
<trkpt lat="-35.3662425" lon="149.1634914">
  <ele>613.41</ele>
  <time>2026-08-27T18:27:58Z</time>
  <course>163.44</course>
  <speed>12.97</speed>
  <fix>3d</fix>
</trkpt>
<trkpt lat="-35.3662779" lon="149.1635041">
  <ele>613.47</ele>
  <time>2026-08-27T18:27:58Z</time>
  <course>163.02</course>
  <speed>12.953717613102427</speed>
  <fix>3d</fix>
</trkpt>
<trkpt lat="-35.3662649" lon="149.1634995">
  <ele>613.37</ele>
  <time>2026-08-27T18:27:58Z</time>
  <course>163.42</course>
  <speed>12.97</speed>
  <fix>3d</fix>
</trkpt>
<trkpt lat="-35.3663002" lon="149.1635122">
  <ele>613.43</ele>
  <time>2026-08-27T18:27:58Z</time>
  <course>162.95</course>
  <speed>12.956562043999172</speed>
  <fix>3d</fix>
</trkpt>
<trkpt lat="-35.3662872" lon="149.1635076">
  <ele>613.32</ele>
  <time>2026-08-27T18:27:58Z</time>
  <course>163.4</course>
  <speed>12.98</speed>
  <fix>3d</fix>
</trkpt>
<trkpt lat="-35.3663224" lon="149.1635203">
  <ele>613.39</ele>
  <time>2026-08-27T18:27:58Z</time>
  <course>162.92</course>
  <speed>12.966148232995025</speed>
  <fix>3d</fix>
</trkpt>
<trkpt lat="-35.3663095" lon="149.1635159">
  <ele>613.29</ele>
  <time>2026-08-27T18:27:58Z</time>
  <course>163.37</course>
  <speed>12.99</speed>
  <fix>3d</fix>
</trkpt>
<trkpt lat="-35.3663448" lon="149.1635285">
  <ele>613.35</ele>
  <time>2026-08-27T18:27:58Z</time>
  <course>162.87</course>
  <speed>12.968997648237893</speed>
  <fix>3d</fix>
</trkpt>
<trkpt lat="-35.366332" lon="149.1635241">
  <ele>613.24</ele>
  <time>2026-08-27T18:27:58Z</time>
  <course>163.34</course>
  <speed>13.0</speed>
  <fix>3d</fix>
</trkpt>
<trkpt lat="-35.3663672" lon="149.1635368">
  <ele>613.3</ele>
  <time>2026-08-27T18:27:58Z</time>
  <course>162.81</course>
  <speed>12.981436746369795</speed>
  <fix>3d</fix>
</trkpt>
<trkpt lat="-35.3663543" lon="149.1635322">
  <ele>613.19</ele>
  <time>2026-08-27T18:27:58Z</time>
  <course>163.32</course>
  <speed>13.01</speed>
  <fix>3d</fix>
</trkpt>
<trkpt lat="-35.3663897" lon="149.1635451">
  <ele>613.26</ele>
  <time>2026-08-27T18:27:58Z</time>
  <course>162.8</course>
  <speed>12.991019975352206</speed>
  <fix>3d</fix>
</trkpt>
<trkpt lat="-35.3663767" lon="149.1635405">
  <ele>613.16</ele>
  <time>2026-08-27T18:27:58Z</time>
  <course>163.3</course>
  <speed>13.01</speed>
  <fix>3d</fix>
</trkpt>
<trkpt lat="-35.3664122" lon="149.1635533">
  <ele>613.22</ele>
  <time>2026-08-27T18:27:58Z</time>
  <course>162.81</course>
  <speed>12.99387932836072</speed>
  <fix>3d</fix>
</trkpt>
<trkpt lat="-35.3663991" lon="149.1635487">
  <ele>613.12</ele>
  <time>2026-08-27T18:27:58Z</time>
  <course>163.28</course>
  <speed>13.02</speed>
  <fix>3d</fix>
</trkpt>
<trkpt lat="-35.3664346" lon="149.1635616">
  <ele>613.18</ele>
  <time>2026-08-27T18:27:58Z</time>
  <course>162.86</course>
  <speed>12.99387932836072</speed>
  <fix>3d</fix>
</trkpt>
<trkpt lat="-35.3664215" lon="149.163557">
  <ele>613.07</ele>
  <time>2026-08-27T18:27:58Z</time>
  <course>163.27</course>
  <speed>13.02</speed>
  <fix>3d</fix>
</trkpt>
<trkpt lat="-35.366457" lon="149.1635699">
  <ele>613.15</ele>
  <time>2026-08-27T18:27:58Z</time>
  <course>162.9</course>
  <speed>12.99387932836072</speed>
  <fix>3d</fix>
</trkpt>
<trkpt lat="-35.366444" lon="149.1635653">
  <ele>613.04</ele>
  <time>2026-08-27T18:27:58Z</time>
  <course>163.27</course>
  <speed>13.02</speed>
  <fix>3d</fix>
</trkpt>
<trkpt lat="-35.3664794" lon="149.1635781">
  <ele>613.11</ele>
  <time>2026-08-27T18:27:58Z</time>
  <course>162.93</course>
  <speed>12.991019975352206</speed>
  <fix>3d</fix>
</trkpt>
<trkpt lat="-35.3664663" lon="149.1635735">
  <ele>613.01</ele>
  <time>2026-08-27T18:27:58Z</time>
  <course>163.28</course>
  <speed>13.02</speed>
  <fix>3d</fix>
</trkpt>
<trkpt lat="-35.3665018" lon="149.1635863">
  <ele>613.07</ele>
  <time>2026-08-27T18:27:58Z</time>
  <course>163.0</course>
  <speed>12.981436746369795</speed>
  <fix>3d</fix>
</trkpt>
<trkpt lat="-35.3664888" lon="149.1635817">
  <ele>612.97</ele>
  <time>2026-08-27T18:27:58Z</time>
  <course>163.29</course>
  <speed>13.01</speed>
  <fix>3d</fix>
</trkpt>
<trkpt lat="-35.3665242" lon="149.1635946">
  <ele>613.03</ele>
  <time>2026-08-27T18:27:58Z</time>
  <course>163.05</course>
  <speed>12.978582357098944</speed>
  <fix>3d</fix>
</trkpt>
<trkpt lat="-35.3665112" lon="149.16359">
  <ele>612.92</ele>
  <time>2026-08-27T18:27:58Z</time>
  <course>163.31</course>
  <speed>13.0</speed>
  <fix>3d</fix>
</trkpt>
<trkpt lat="-35.3665466" lon="149.1636028">
  <ele>612.99</ele>
  <time>2026-08-27T18:27:58Z</time>
  <course>163.07</course>
  <speed>12.978582357098944</speed>
  <fix>3d</fix>
</trkpt>
<trkpt lat="-35.3665335" lon="149.1635983">
  <ele>612.88</ele>
  <time>2026-08-27T18:27:58Z</time>
  <course>163.33</course>
  <speed>13.0</speed>
  <fix>3d</fix>
</trkpt>
<trkpt lat="-35.3665688" lon="149.1636109">
  <ele>612.94</ele>
  <time>2026-08-27T18:27:58Z</time>
  <course>163.07</course>
  <speed>12.975735046616819</speed>
  <fix>3d</fix>
</trkpt>
<trkpt lat="-35.366556" lon="149.1636065">
  <ele>612.83</ele>
  <time>2026-08-27T18:27:58Z</time>
  <course>163.35</course>
  <speed>13.0</speed>
  <fix>3d</fix>
</trkpt>
<trkpt lat="-35.3665912" lon="149.1636191">
  <ele>612.89</ele>
  <time>2026-08-27T18:27:58Z</time>
  <course>163.06</course>
  <speed>12.975735046616819</speed>
  <fix>3d</fix>
</trkpt>
<trkpt lat="-35.3665783" lon="149.1636146">
  <ele>612.79</ele>
  <time>2026-08-27T18:27:58Z</time>
  <course>163.37</course>
  <speed>13.0</speed>
  <fix>3d</fix>
</trkpt>
<trkpt lat="-35.3666138" lon="149.1636274">
  <ele>612.85</ele>
  <time>2026-08-27T18:27:58Z</time>
  <course>163.04</course>
  <speed>12.975735046616819</speed>
  <fix>3d</fix>
</trkpt>
<trkpt lat="-35.3666006" lon="149.1636229">
  <ele>612.74</ele>
  <time>2026-08-27T18:27:58Z</time>
  <course>163.38</course>
  <speed>13.0</speed>
  <fix>3d</fix>
</trkpt>
<trkpt lat="-35.3666362" lon="149.1636356">
  <ele>612.81</ele>
  <time>2026-08-27T18:27:58Z</time>
  <course>163.06</course>
  <speed>12.975735046616819</speed>
  <fix>3d</fix>
</trkpt>
<trkpt lat="-35.3666231" lon="149.163631">
  <ele>612.69</ele>
  <time>2026-08-27T18:27:58Z</time>
  <course>163.39</course>
  <speed>13.0</speed>
  <fix>3d</fix>
</trkpt>
<trkpt lat="-35.3666586" lon="149.1636438">
  <ele>612.77</ele>
  <time>2026-08-27T18:27:58Z</time>
  <course>163.09</course>
  <speed>12.975735046616819</speed>
  <fix>3d</fix>
</trkpt>
<trkpt lat="-35.3666455" lon="149.1636391">
  <ele>612.65</ele>
  <time>2026-08-27T18:27:58Z</time>
  <course>163.39</course>
  <speed>13.0</speed>
  <fix>3d</fix>
</trkpt>
<trkpt lat="-35.366681" lon="149.163652">
  <ele>612.73</ele>
  <time>2026-08-27T18:27:59Z</time>
  <course>163.12</course>
  <speed>12.97289481958441</speed>
  <fix>3d</fix>
</trkpt>
<trkpt lat="-35.3666678" lon="149.1636474">
  <ele>612.6</ele>
  <time>2026-08-27T18:27:59Z</time>
  <course>163.4</course>
  <speed>12.99</speed>
  <fix>3d</fix>
</trkpt>
<trkpt lat="-35.3667034" lon="149.1636602">
  <ele>612.68</ele>
  <time>2026-08-27T18:27:59Z</time>
  <course>163.15</course>
  <speed>12.97289481958441</speed>
  <fix>3d</fix>
</trkpt>
<trkpt lat="-35.3666903" lon="149.1636555">
  <ele>612.56</ele>
  <time>2026-08-27T18:27:59Z</time>
  <course>163.4</course>
  <speed>12.99</speed>
  <fix>3d</fix>
</trkpt>
<trkpt lat="-35.3667257" lon="149.1636683">
  <ele>612.64</ele>
  <time>2026-08-27T18:27:59Z</time>
  <course>163.17</course>
  <speed>12.96330590551654</speed>
  <fix>3d</fix>
</trkpt>
<trkpt lat="-35.3667126" lon="149.1636638">
  <ele>612.51</ele>
  <time>2026-08-27T18:27:59Z</time>
  <course>163.41</course>
  <speed>12.98</speed>
  <fix>3d</fix>
</trkpt>
<trkpt lat="-35.366748" lon="149.1636765">
  <ele>612.59</ele>
  <time>2026-08-27T18:27:59Z</time>
  <course>163.18</course>
  <speed>12.953717613102427</speed>
  <fix>3d</fix>
</trkpt>
<trkpt lat="-35.366735" lon="149.1636719">
  <ele>612.47</ele>
  <time>2026-08-27T18:27:59Z</time>
  <course>163.41</course>
  <speed>12.98</speed>
  <fix>3d</fix>
</trkpt>
<trkpt lat="-35.3667703" lon="149.1636846">
  <ele>612.54</ele>
  <time>2026-08-27T18:27:59Z</time>
  <course>163.13</course>
  <speed>12.953717613102427</speed>
  <fix>3d</fix>
</trkpt>
<trkpt lat="-35.3667573" lon="149.1636801">
  <ele>612.42</ele>
  <time>2026-08-27T18:27:59Z</time>
  <course>163.41</course>
  <speed>12.97</speed>
  <fix>3d</fix>
</trkpt>
<trkpt lat="-35.3667925" lon="149.1636927">
  <ele>612.49</ele>
  <time>2026-08-27T18:27:59Z</time>
  <course>163.1</course>
  <speed>12.953717613102427</speed>
  <fix>3d</fix>
</trkpt>
<trkpt lat="-35.3667796" lon="149.1636882">
  <ele>612.38</ele>
  <time>2026-08-27T18:27:59Z</time>
  <course>163.4</course>
  <speed>12.97</speed>
  <fix>3d</fix>
</trkpt>
<trkpt lat="-35.3668147" lon="149.1637008">
  <ele>612.45</ele>
  <time>2026-08-27T18:27:59Z</time>
  <course>163.02</course>
  <speed>12.96330590551654</speed>
  <fix>3d</fix>
</trkpt>
<trkpt lat="-35.3668019" lon="149.1636964">
  <ele>612.33</ele>
  <time>2026-08-27T18:27:59Z</time>
  <course>163.4</course>
  <speed>12.98</speed>
  <fix>3d</fix>
</trkpt>
<trkpt lat="-35.3668371" lon="149.163709">
  <ele>612.4</ele>
  <time>2026-08-27T18:27:59Z</time>
  <course>162.97</course>
  <speed>12.966148232995025</speed>
  <fix>3d</fix>
</trkpt>
<trkpt lat="-35.3668244" lon="149.1637046">
  <ele>612.28</ele>
  <time>2026-08-27T18:27:59Z</time>
  <course>163.39</course>
  <speed>12.99</speed>
  <fix>3d</fix>
</trkpt>
<trkpt lat="-35.3668596" lon="149.1637173">
  <ele>612.36</ele>
  <time>2026-08-27T18:27:59Z</time>
  <course>162.9</course>
  <speed>12.978582357098944</speed>
  <fix>3d</fix>
</trkpt>
<trkpt lat="-35.3668467" lon="149.1637127">
  <ele>612.24</ele>
  <time>2026-08-27T18:27:59Z</time>
  <course>163.37</course>
  <speed>13.0</speed>
  <fix>3d</fix>
</trkpt>
<trkpt lat="-35.366882" lon="149.1637255">
  <ele>612.32</ele>
  <time>2026-08-27T18:27:59Z</time>
  <course>162.89</course>
  <speed>12.988167692172748</speed>
  <fix>3d</fix>
</trkpt>
<trkpt lat="-35.3668691" lon="149.163721">
  <ele>612.19</ele>
  <time>2026-08-27T18:27:59Z</time>
  <course>163.36</course>
  <speed>13.01</speed>
  <fix>3d</fix>
</trkpt>
<trkpt lat="-35.3669044" lon="149.1637337">
  <ele>612.28</ele>
  <time>2026-08-27T18:27:59Z</time>
  <course>162.89</course>
  <speed>12.991019975352206</speed>
  <fix>3d</fix>
</trkpt>
<trkpt lat="-35.3668916" lon="149.1637291">
  <ele>612.15</ele>
  <time>2026-08-27T18:27:59Z</time>
  <course>163.34</course>
  <speed>13.01</speed>
  <fix>3d</fix>
</trkpt>
<trkpt lat="-35.3669268" lon="149.1637419">
  <ele>612.24</ele>
  <time>2026-08-27T18:27:59Z</time>
  <course>162.94</course>
  <speed>12.991019975352206</speed>
  <fix>3d</fix>
</trkpt>
<trkpt lat="-35.3669139" lon="149.1637374">
  <ele>612.11</ele>
  <time>2026-08-27T18:27:59Z</time>
  <course>163.33</course>
  <speed>13.02</speed>
  <fix>3d</fix>
</trkpt>
<trkpt lat="-35.3669492" lon="149.1637501">
  <ele>612.2</ele>
  <time>2026-08-27T18:27:59Z</time>
  <course>162.99</course>
  <speed>12.991019975352206</speed>
  <fix>3d</fix>
</trkpt>
<trkpt lat="-35.3669364" lon="149.1637457">
  <ele>612.07</ele>
  <time>2026-08-27T18:27:59Z</time>
  <course>163.32</course>
  <speed>13.02</speed>
  <fix>3d</fix>
</trkpt>
<trkpt lat="-35.3669716" lon="149.1637584">
  <ele>612.16</ele>
  <time>2026-08-27T18:27:59Z</time>
  <course>163.01</course>
  <speed>12.988167692172748</speed>
  <fix>3d</fix>
</trkpt>
<trkpt lat="-35.3669587" lon="149.1637539">
  <ele>612.03</ele>
  <time>2026-08-27T18:27:59Z</time>
  <course>163.32</course>
  <speed>13.01</speed>
  <fix>3d</fix>
</trkpt>
<trkpt lat="-35.366994" lon="149.1637666">
  <ele>612.11</ele>
  <time>2026-08-27T18:27:59Z</time>
  <course>163.01</course>
  <speed>12.988167692172748</speed>
  <fix>3d</fix>
</trkpt>
<trkpt lat="-35.3669812" lon="149.163762">
  <ele>611.99</ele>
  <time>2026-08-27T18:27:59Z</time>
  <course>163.33</course>
  <speed>13.01</speed>
  <fix>3d</fix>
</trkpt>
<trkpt lat="-35.3670163" lon="149.1637748">
  <ele>612.07</ele>
  <time>2026-08-27T18:27:59Z</time>
  <course>163.03</course>
  <speed>12.988167692172748</speed>
  <fix>3d</fix>
</trkpt>
<trkpt lat="-35.3670036" lon="149.1637703">
  <ele>611.94</ele>
  <time>2026-08-27T18:27:59Z</time>
  <course>163.34</course>
  <speed>13.01</speed>
  <fix>3d</fix>
</trkpt>
<trkpt lat="-35.3670386" lon="149.1637829">
  <ele>612.02</ele>
  <time>2026-08-27T18:27:59Z</time>
  <course>163.03</course>
  <speed>12.988167692172748</speed>
  <fix>3d</fix>
</trkpt>
<trkpt lat="-35.3670259" lon="149.1637786">
  <ele>611.9</ele>
  <time>2026-08-27T18:27:59Z</time>
  <course>163.35</course>
  <speed>13.01</speed>
  <fix>3d</fix>
</trkpt>
<trkpt lat="-35.367061" lon="149.1637912">
  <ele>611.98</ele>
  <time>2026-08-27T18:27:59Z</time>
  <course>163.02</course>
  <speed>12.988167692172748</speed>
  <fix>3d</fix>
</trkpt>
<trkpt lat="-35.3670484" lon="149.1637867">
  <ele>611.86</ele>
  <time>2026-08-27T18:27:59Z</time>
  <course>163.35</course>
  <speed>13.01</speed>
  <fix>3d</fix>
</trkpt>
<trkpt lat="-35.3670836" lon="149.1637994">
  <ele>611.94</ele>
  <time>2026-08-27T18:27:59Z</time>
  <course>163.0</course>
  <speed>12.988167692172748</speed>
  <fix>3d</fix>
</trkpt>
<trkpt lat="-35.3670707" lon="149.163795">
  <ele>611.82</ele>
  <time>2026-08-27T18:27:59Z</time>
  <course>163.35</course>
  <speed>13.01</speed>
  <fix>3d</fix>
</trkpt>
<trkpt lat="-35.3671061" lon="149.1638077">
  <ele>611.89</ele>
  <time>2026-08-27T18:27:59Z</time>
  <course>163.01</course>
  <speed>12.988167692172748</speed>
  <fix>3d</fix>
</trkpt>
<trkpt lat="-35.3670932" lon="149.1638032">
  <ele>611.77</ele>
  <time>2026-08-27T18:27:59Z</time>
  <course>163.35</course>
  <speed>13.01</speed>
  <fix>3d</fix>
</trkpt>
<trkpt lat="-35.3671287" lon="149.163816">
  <ele>611.84</ele>
  <time>2026-08-27T18:27:59Z</time>
  <course>163.05</course>
  <speed>12.988167692172748</speed>
  <fix>3d</fix>
</trkpt>
<trkpt lat="-35.3671156" lon="149.1638113">
  <ele>611.73</ele>
  <time>2026-08-27T18:27:59Z</time>
  <course>163.36</course>
  <speed>13.0</speed>
  <fix>3d</fix>
</trkpt>
<trkpt lat="-35.3671511" lon="149.1638242">
  <ele>611.8</ele>
  <time>2026-08-27T18:27:59Z</time>
  <course>163.1</course>
  <speed>12.975735046616819</speed>
  <fix>3d</fix>
</trkpt>
<trkpt lat="-35.367138" lon="149.1638196">
  <ele>611.69</ele>
  <time>2026-08-27T18:27:59Z</time>
  <course>163.36</course>
  <speed>13.0</speed>
  <fix>3d</fix>
</trkpt>
<trkpt lat="-35.3671735" lon="149.1638324">
  <ele>611.75</ele>
  <time>2026-08-27T18:27:59Z</time>
  <course>163.15</course>
  <speed>12.966148232995025</speed>
  <fix>3d</fix>
</trkpt>
<trkpt lat="-35.3671604" lon="149.1638277">
  <ele>611.65</ele>
  <time>2026-08-27T18:27:59Z</time>
  <course>163.38</course>
  <speed>12.98</speed>
  <fix>3d</fix>
</trkpt>
<trkpt lat="-35.3671959" lon="149.1638406">
  <ele>611.71</ele>
  <time>2026-08-27T18:27:59Z</time>
  <course>163.21</course>
  <speed>12.953717613102427</speed>
  <fix>3d</fix>
</trkpt>
<trkpt lat="-35.3671827" lon="149.163836">
  <ele>611.61</ele>
  <time>2026-08-27T18:27:59Z</time>
  <course>163.39</course>
  <speed>12.97</speed>
  <fix>3d</fix>
</trkpt>
<trkpt lat="-35.3672183" lon="149.1638487">
  <ele>611.67</ele>
  <time>2026-08-27T18:27:59Z</time>
  <course>163.23</course>
  <speed>12.941290507518948</speed>
  <fix>3d</fix>
</trkpt>
<trkpt lat="-35.367205" lon="149.1638441">
  <ele>611.57</ele>
  <time>2026-08-27T18:27:59Z</time>
  <course>163.4</course>
  <speed>12.96</speed>
  <fix>3d</fix>
</trkpt>
<trkpt lat="-35.3672406" lon="149.1638569">
  <ele>611.63</ele>
  <time>2026-08-27T18:27:59Z</time>
  <course>163.22</course>
  <speed>12.941290507518948</speed>
  <fix>3d</fix>
</trkpt>
<trkpt lat="-35.3672273" lon="149.1638522">
  <ele>611.54</ele>
  <time>2026-08-27T18:27:59Z</time>
  <course>163.41</course>
  <speed>12.95</speed>
  <fix>3d</fix>
</trkpt>
<trkpt lat="-35.3672628" lon="149.163865">
  <ele>611.59</ele>
  <time>2026-08-27T18:27:59Z</time>
  <course>163.19</course>
  <speed>12.93170135751673</speed>
  <fix>3d</fix>
</trkpt>
<trkpt lat="-35.3672496" lon="149.1638604">
  <ele>611.5</ele>
  <time>2026-08-27T18:27:59Z</time>
  <course>163.42</course>
  <speed>12.94</speed>
  <fix>3d</fix>
</trkpt>
<trkpt lat="-35.3672851" lon="149.1638731">
  <ele>611.55</ele>
  <time>2026-08-27T18:27:59Z</time>
  <course>163.17</course>
  <speed>12.93170135751673</speed>
  <fix>3d</fix>
</trkpt>
<trkpt lat="-35.3672719" lon="149.1638685">
  <ele>611.45</ele>
  <time>2026-08-27T18:27:59Z</time>
  <course>163.42</course>
  <speed>12.93</speed>
  <fix>3d</fix>
</trkpt>
<trkpt lat="-35.3673075" lon="149.1638813">
  <ele>611.5</ele>
  <time>2026-08-27T18:27:59Z</time>
  <course>163.12</course>
  <speed>12.93170135751673</speed>
  <fix>3d</fix>
</trkpt>
<trkpt lat="-35.3672942" lon="149.1638767">
  <ele>611.41</ele>
  <time>2026-08-27T18:27:59Z</time>
  <course>163.41</course>
  <speed>12.93</speed>
  <fix>3d</fix>
</trkpt>
<trkpt lat="-35.3673298" lon="149.1638895">
  <ele>611.46</ele>
  <time>2026-08-27T18:27:59Z</time>
  <course>163.12</course>
  <speed>12.93170135751673</speed>
  <fix>3d</fix>
</trkpt>
<trkpt lat="-35.3673164" lon="149.1638848">
  <ele>611.37</ele>
  <time>2026-08-27T18:27:59Z</time>
  <course>163.4</course>
  <speed>12.93</speed>
  <fix>3d</fix>
</trkpt>
<trkpt lat="-35.3673521" lon="149.1638976">
  <ele>611.42</ele>
  <time>2026-08-27T18:27:59Z</time>
  <course>163.03</course>
  <speed>12.934542898765306</speed>
  <fix>3d</fix>
</trkpt>
<trkpt lat="-35.3673388" lon="149.1638929">
  <ele>611.32</ele>
  <time>2026-08-27T18:27:59Z</time>
  <course>163.39</course>
  <speed>12.93</speed>
  <fix>3d</fix>
</trkpt>
<trkpt lat="-35.3673743" lon="149.1639058">
  <ele>611.37</ele>
  <time>2026-08-27T18:27:59Z</time>
  <course>162.99</course>
  <speed>12.934542898765306</speed>
  <fix>3d</fix>
</trkpt>
<trkpt lat="-35.367361" lon="149.1639011">
  <ele>611.28</ele>
  <time>2026-08-27T18:27:59Z</time>
  <course>163.37</course>
  <speed>12.94</speed>
  <fix>3d</fix>
</trkpt>
<trkpt lat="-35.3673965" lon="149.1639139">
  <ele>611.33</ele>
  <time>2026-08-27T18:27:59Z</time>
  <course>162.95</course>
  <speed>12.937391545439134</speed>
  <fix>3d</fix>
</trkpt>
<trkpt lat="-35.3673833" lon="149.1639093">
  <ele>611.24</ele>
  <time>2026-08-27T18:27:59Z</time>
  <course>163.35</course>
  <speed>12.95</speed>
  <fix>3d</fix>
</trkpt>
<trkpt lat="-35.3674188" lon="149.1639221">
  <ele>611.29</ele>
  <time>2026-08-27T18:27:59Z</time>
  <course>162.91</course>
  <speed>12.946976481016716</speed>
  <fix>3d</fix>
</trkpt>
<trkpt lat="-35.3674056" lon="149.1639174">
  <ele>611.19</ele>
  <time>2026-08-27T18:27:59Z</time>
  <course>163.34</course>
  <speed>12.96</speed>
  <fix>3d</fix>
</trkpt>
<trkpt lat="-35.367441" lon="149.1639302">
  <ele>611.24</ele>
  <time>2026-08-27T18:27:59Z</time>
  <course>162.82</course>
  <speed>12.959413566979023</speed>
  <fix>3d</fix>
</trkpt>
<trkpt lat="-35.367428" lon="149.1639257">
  <ele>611.15</ele>
  <time>2026-08-27T18:27:59Z</time>
  <course>163.32</course>
  <speed>12.97</speed>
  <fix>3d</fix>
</trkpt>
<trkpt lat="-35.3674633" lon="149.1639384">
  <ele>611.2</ele>
  <time>2026-08-27T18:27:59Z</time>
  <course>162.78</course>
  <speed>12.971854146574422</speed>
  <fix>3d</fix>
</trkpt>
<trkpt lat="-35.3674503" lon="149.1639339">
  <ele>611.11</ele>
  <time>2026-08-27T18:27:59Z</time>
  <course>163.31</course>
  <speed>12.99</speed>
  <fix>3d</fix>
</trkpt>
<trkpt lat="-35.3674855" lon="149.1639466">
  <ele>611.16</ele>
  <time>2026-08-27T18:27:59Z</time>
  <course>162.71</course>
  <speed>12.99387932836072</speed>
  <fix>3d</fix>
</trkpt>
<trkpt lat="-35.3674726" lon="149.163942">
  <ele>611.06</ele>
  <time>2026-08-27T18:27:59Z</time>
  <course>163.29</course>
  <speed>13.01</speed>
  <fix>3d</fix>
</trkpt>
<trkpt lat="-35.3675078" lon="149.1639548">
  <ele>611.12</ele>
  <time>2026-08-27T18:27:59Z</time>
  <course>162.74</course>
  <speed>13.003461077728497</speed>
  <fix>3d</fix>
</trkpt>
<trkpt lat="-35.3674951" lon="149.1639503">
  <ele>611.02</ele>
  <time>2026-08-27T18:27:59Z</time>
  <course>163.27</course>
  <speed>13.02</speed>
  <fix>3d</fix>
</trkpt>
<trkpt lat="-35.3675302" lon="149.1639631">
  <ele>611.08</ele>
  <time>2026-08-27T18:27:59Z</time>
  <course>162.74</course>
  <speed>13.013043456470896</speed>
  <fix>3d</fix>
</trkpt>
<trkpt lat="-35.3675175" lon="149.1639586">
  <ele>610.98</ele>
  <time>2026-08-27T18:27:59Z</time>
  <course>163.27</course>
  <speed>13.04</speed>
  <fix>3d</fix>
</trkpt>
<trkpt lat="-35.3675528" lon="149.1639714">
  <ele>611.03</ele>
  <time>2026-08-27T18:27:59Z</time>
  <course>162.72</course>
  <speed>13.025486555211671</speed>
  <fix>3d</fix>
</trkpt>
<trkpt lat="-35.3675399" lon="149.1639669">
  <ele>610.94</ele>
  <time>2026-08-27T18:27:59Z</time>
  <course>163.27</course>
  <speed>13.05</speed>
  <fix>3d</fix>
</trkpt>
<trkpt lat="-35.3675754" lon="149.1639797">
  <ele>611.0</ele>
  <time>2026-08-27T18:27:59Z</time>
  <course>162.71</course>
  <speed>13.0350680857447</speed>
  <fix>3d</fix>
</trkpt>
<trkpt lat="-35.3675624" lon="149.1639751">
  <ele>610.9</ele>
  <time>2026-08-27T18:27:59Z</time>
  <course>163.28</course>
  <speed>13.06</speed>
  <fix>3d</fix>
</trkpt>
<trkpt lat="-35.3675979" lon="149.163988">
  <ele>610.97</ele>
  <time>2026-08-27T18:27:59Z</time>
  <course>162.85</course>
  <speed>13.022626463198582</speed>
  <fix>3d</fix>
</trkpt>
<trkpt lat="-35.3675849" lon="149.1639834">
  <ele>610.86</ele>
  <time>2026-08-27T18:27:59Z</time>
  <course>163.29</course>
  <speed>13.06</speed>
  <fix>3d</fix>
</trkpt>
<trkpt lat="-35.3676204" lon="149.1639962">
  <ele>610.95</ele>
  <time>2026-08-27T18:27:59Z</time>
  <course>163.25</course>
  <speed>12.949830114715791</speed>
  <fix>3d</fix>
</trkpt>
<trkpt lat="-35.3676074" lon="149.1639917">
  <ele>610.82</ele>
  <time>2026-08-27T18:27:59Z</time>
  <course>163.3</course>
  <speed>13.02</speed>
  <fix>3d</fix>
</trkpt>
<trkpt lat="-35.3676426" lon="149.1640044">
  <ele>610.94</ele>
  <time>2026-08-27T18:27:59Z</time>
  <course>163.92</course>
  <speed>12.810967957184186</speed>
  <fix>3d</fix>
</trkpt>
<trkpt lat="-35.3676297" lon="149.1639999">
  <ele>610.8</ele>
  <time>2026-08-27T18:27:59Z</time>
  <course>163.33</course>
  <speed>12.93</speed>
  <fix>3d</fix>
</trkpt>
<trkpt lat="-35.3676646" lon="149.1640124">
  <ele>610.95</ele>
  <time>2026-08-27T18:27:59Z</time>
  <course>164.73</course>
  <speed>12.615660902227836</speed>
  <fix>3d</fix>
</trkpt>
<trkpt lat="-35.3676519" lon="149.1640081">
  <ele>610.8</ele>
  <time>2026-08-27T18:27:59Z</time>
  <course>163.4</course>
  <speed>12.78</speed>
  <fix>3d</fix>
</trkpt>
<trkpt lat="-35.3676862" lon="149.1640203">
  <ele>610.95</ele>
  <time>2026-08-27T18:27:59Z</time>
  <course>165.57</course>
  <speed>12.366802335284573</speed>
  <fix>3d</fix>
</trkpt>
<trkpt lat="-35.3676737" lon="149.164016">
  <ele>610.8</ele>
  <time>2026-08-27T18:27:59Z</time>
  <course>163.52</course>
  <speed>12.56</speed>
  <fix>3d</fix>
</trkpt>
<trkpt lat="-35.3677074" lon="149.1640279">
  <ele>610.94</ele>
  <time>2026-08-27T18:27:59Z</time>
  <course>166.35</course>
  <speed>12.064435336972883</speed>
  <fix>3d</fix>
</trkpt>
<trkpt lat="-35.3676952" lon="149.1640238">
  <ele>610.8</ele>
  <time>2026-08-27T18:27:59Z</time>
  <course>163.68</course>
  <speed>12.3</speed>
  <fix>3d</fix>
</trkpt>
<trkpt lat="-35.3677279" lon="149.1640352">
  <ele>610.93</ele>
  <time>2026-08-27T18:27:59Z</time>
  <course>167.05</course>
  <speed>11.730592482905543</speed>
  <fix>3d</fix>
</trkpt>
<trkpt lat="-35.3677161" lon="149.1640312">
  <ele>610.79</ele>
  <time>2026-08-27T18:27:59Z</time>
  <course>163.88</course>
  <speed>11.99</speed>
  <fix>3d</fix>
</trkpt>
<trkpt lat="-35.3677479" lon="149.1640422">
  <ele>610.91</ele>
  <time>2026-08-27T18:27:59Z</time>
  <course>167.66</course>
  <speed>11.346047770038693</speed>
  <fix>3d</fix>
</trkpt>
<trkpt lat="-35.3677365" lon="149.1640383">
  <ele>610.78</ele>
  <time>2026-08-27T18:27:59Z</time>
  <course>164.09</course>
  <speed>11.63</speed>
  <fix>3d</fix>
</trkpt>
<trkpt lat="-35.3677674" lon="149.1640489">
  <ele>610.88</ele>
  <time>2026-08-27T18:27:59Z</time>
  <course>168.19</course>
  <speed>10.910774491299874</speed>
  <fix>3d</fix>
</trkpt>
<trkpt lat="-35.3677562" lon="149.1640452">
  <ele>610.75</ele>
  <time>2026-08-27T18:27:59Z</time>
  <course>164.28</course>
  <speed>11.23</speed>
  <fix>3d</fix>
</trkpt>
<trkpt lat="-35.367786" lon="149.1640553">
  <ele>610.85</ele>
  <time>2026-08-27T18:27:59Z</time>
  <course>168.63</course>
  <speed>10.437049391470753</speed>
  <fix>3d</fix>
</trkpt>
<trkpt lat="-35.3677753" lon="149.1640517">
  <ele>610.72</ele>
  <time>2026-08-27T18:27:59Z</time>
  <course>164.45</course>
  <speed>10.78</speed>
  <fix>3d</fix>
</trkpt>
<trkpt lat="-35.3678037" lon="149.1640613">
  <ele>610.8</ele>
  <time>2026-08-27T18:27:59Z</time>
  <course>168.97</course>
  <speed>9.924807302915255</speed>
  <fix>3d</fix>
</trkpt>
<trkpt lat="-35.3677936" lon="149.164058">
  <ele>610.69</ele>
  <time>2026-08-27T18:27:59Z</time>
  <course>164.59</course>
  <speed>10.29</speed>
  <fix>3d</fix>
</trkpt>
<trkpt lat="-35.3678206" lon="149.164067">
  <ele>610.76</ele>
  <time>2026-08-27T18:27:59Z</time>
  <course>169.21</course>
  <speed>9.364363299231828</speed>
  <fix>3d</fix>
</trkpt>
<trkpt lat="-35.367811" lon="149.1640638">
  <ele>610.65</ele>
  <time>2026-08-27T18:27:59Z</time>
  <course>164.69</course>
  <speed>9.76</speed>
  <fix>3d</fix>
</trkpt>
<trkpt lat="-35.3678364" lon="149.1640723">
  <ele>610.71</ele>
  <time>2026-08-27T18:27:59Z</time>
  <course>169.33</course>
  <speed>8.794276547846332</speed>
  <fix>3d</fix>
</trkpt>
<trkpt lat="-35.3678274" lon="149.1640693">
  <ele>610.6</ele>
  <time>2026-08-27T18:27:59Z</time>
  <course>164.75</course>
  <speed>9.19</speed>
  <fix>3d</fix>
</trkpt>
<trkpt lat="-35.3678513" lon="149.1640773">
  <ele>610.65</ele>
  <time>2026-08-27T18:27:59Z</time>
  <course>169.26</course>
  <speed>8.214548070344467</speed>
  <fix>3d</fix>
</trkpt>
<trkpt lat="-35.3678429" lon="149.1640745">
  <ele>610.55</ele>
  <time>2026-08-27T18:27:59Z</time>
  <course>164.75</course>
  <speed>8.61</speed>
  <fix>3d</fix>
</trkpt>
<trkpt lat="-35.3678651" lon="149.1640819">
  <ele>610.59</ele>
  <time>2026-08-27T18:27:59Z</time>
  <course>169.0</course>
  <speed>7.647123642259226</speed>
  <fix>3d</fix>
</trkpt>
<trkpt lat="-35.3678573" lon="149.1640793">
  <ele>610.49</ele>
  <time>2026-08-27T18:27:59Z</time>
  <course>164.71</course>
  <speed>8.03</speed>
  <fix>3d</fix>
</trkpt>
<trkpt lat="-35.367878" lon="149.1640863">
  <ele>610.52</ele>
  <time>2026-08-27T18:27:59Z</time>
  <course>168.59</course>
  <speed>7.094737486334501</speed>
  <fix>3d</fix>
</trkpt>
<trkpt lat="-35.3678707" lon="149.1640838">
  <ele>610.43</ele>
  <time>2026-08-27T18:27:59Z</time>
  <course>164.61</course>
  <speed>7.46</speed>
  <fix>3d</fix>
</trkpt>
<trkpt lat="-35.3678898" lon="149.1640904">
  <ele>610.46</ele>
  <time>2026-08-27T18:27:59Z</time>
  <course>168.05</course>
  <speed>6.561714714920178</speed>
  <fix>3d</fix>
</trkpt>
<trkpt lat="-35.3678831" lon="149.164088">
  <ele>610.36</ele>
  <time>2026-08-27T18:27:59Z</time>
  <course>164.41</course>
  <speed>6.91</speed>
  <fix>3d</fix>
</trkpt>
<trkpt lat="-35.3679008" lon="149.1640942">
  <ele>610.4</ele>
  <time>2026-08-27T18:27:59Z</time>
  <course>167.38</course>
  <speed>6.04400529450463</speed>
  <fix>3d</fix>
</trkpt>
<trkpt lat="-35.3678947" lon="149.164092">
  <ele>610.3</ele>
  <time>2026-08-27T18:27:59Z</time>
  <course>164.09</course>
  <speed>6.37</speed>
  <fix>3d</fix>
</trkpt>
<trkpt lat="-35.3679108" lon="149.1640979">
  <ele>610.35</ele>
  <time>2026-08-27T18:27:59Z</time>
  <course>166.52</course>
  <speed>5.539142532919693</speed>
  <fix>3d</fix>
</trkpt>
<trkpt lat="-35.3679052" lon="149.1640957">
  <ele>610.24</ele>
  <time>2026-08-27T18:27:59Z</time>
  <course>163.64</course>
  <speed>5.85</speed>
  <fix>3d</fix>
</trkpt>
<trkpt lat="-35.36792" lon="149.1641013">
  <ele>610.3</ele>
  <time>2026-08-27T18:27:59Z</time>
  <course>165.43</course>
  <speed>5.040991965873383</speed>
  <fix>3d</fix>
</trkpt>
<trkpt lat="-35.3679148" lon="149.1640993">
  <ele>610.18</ele>
  <time>2026-08-27T18:27:59Z</time>
  <course>162.97</course>
  <speed>5.35</speed>
  <fix>3d</fix>
</trkpt>
<trkpt lat="-35.3679282" lon="149.1641047">
  <ele>610.27</ele>
  <time>2026-08-27T18:27:59Z</time>
  <course>163.9</course>
  <speed>4.544678206430022</speed>
  <fix>3d</fix>
</trkpt>
<trkpt lat="-35.3679236" lon="149.1641027">
  <ele>610.14</ele>
  <time>2026-08-27T18:27:59Z</time>
  <course>161.89</course>
  <speed>4.85</speed>
  <fix>3d</fix>
</trkpt>
<trkpt lat="-35.3679355" lon="149.1641079">
  <ele>610.25</ele>
  <time>2026-08-27T18:27:59Z</time>
  <course>161.55</course>
  <speed>4.048160075886328</speed>
  <fix>3d</fix>
</trkpt>
<trkpt lat="-35.3679314" lon="149.164106">
  <ele>610.11</ele>
  <time>2026-08-27T18:27:59Z</time>
  <course>160.1</course>
  <speed>4.35</speed>
  <fix>3d</fix>
</trkpt>
<trkpt lat="-35.3679418" lon="149.1641112">
  <ele>610.23</ele>
  <time>2026-08-27T18:27:59Z</time>
  <course>158.04</course>
  <speed>3.5602949316032793</speed>
  <fix>3d</fix>
</trkpt>
<trkpt lat="-35.3679383" lon="149.1641092">
  <ele>610.08</ele>
  <time>2026-08-27T18:27:59Z</time>
  <course>157.22</course>
  <speed>3.85</speed>
  <fix>3d</fix>
</trkpt>
<trkpt lat="-35.367947" lon="149.1641146">
  <ele>610.21</ele>
  <time>2026-08-27T18:27:59Z</time>
  <course>152.95</course>
  <speed>3.069918565695188</speed>
  <fix>3d</fix>
</trkpt>
<trkpt lat="-35.3679441" lon="149.1641126">
  <ele>610.07</ele>
  <time>2026-08-27T18:27:59Z</time>
  <course>152.78</course>
  <speed>3.35</speed>
  <fix>3d</fix>
</trkpt>
<trkpt lat="-35.3679512" lon="149.1641182">
  <ele>610.2</ele>
  <time>2026-08-27T18:27:59Z</time>
  <course>145.71</course>
  <speed>2.6119724347703213</speed>
  <fix>3d</fix>
</trkpt>
<trkpt lat="-35.3679489" lon="149.164116">
  <ele>610.05</ele>
  <time>2026-08-27T18:27:59Z</time>
  <course>146.06</course>
  <speed>2.87</speed>
  <fix>3d</fix>
</trkpt>
<trkpt lat="-35.3679542" lon="149.164122">
  <ele>610.18</ele>
  <time>2026-08-27T18:27:59Z</time>
  <course>135.61</course>
  <speed>2.248043593883357</speed>
  <fix>3d</fix>
</trkpt>
<trkpt lat="-35.3679527" lon="149.1641196">
  <ele>610.04</ele>
  <time>2026-08-27T18:27:59Z</time>
  <course>135.99</course>
  <speed>2.44</speed>
  <fix>3d</fix>
</trkpt>
<trkpt lat="-35.3679561" lon="149.164126">
  <ele>610.17</ele>
  <time>2026-08-27T18:27:59Z</time>
  <course>123.39</course>
  <speed>2.0402205763103165</speed>
  <fix>3d</fix>
</trkpt>
<trkpt lat="-35.3679553" lon="149.1641235">
  <ele>610.02</ele>
  <time>2026-08-27T18:27:59Z</time>
  <course>121.33</course>
  <speed>2.12</speed>
  <fix>3d</fix>
</trkpt>
<trkpt lat="-35.3679568" lon="149.1641304">
  <ele>610.15</ele>
  <time>2026-08-27T18:27:59Z</time>
  <course>111.82</course>
  <speed>2.090598000573042</speed>
  <fix>3d</fix>
</trkpt>
<trkpt lat="-35.3679566" lon="149.1641277">
  <ele>610.0</ele>
  <time>2026-08-27T18:27:59Z</time>
  <course>102.71</course>
  <speed>2.01</speed>
  <fix>3d</fix>
</trkpt>
<trkpt lat="-35.3679563" lon="149.1641351">
  <ele>610.14</ele>
  <time>2026-08-27T18:27:59Z</time>
  <course>100.45</course>
  <speed>2.3574774654278245</speed>
  <fix>3d</fix>
</trkpt>
<trkpt lat="-35.3679569" lon="149.1641322">
  <ele>609.98</ele>
  <time>2026-08-27T18:27:59Z</time>
  <course>84.61</course>
  <speed>2.15</speed>
  <fix>3d</fix>
</trkpt>
<trkpt lat="-35.3679549" lon="149.1641404">
  <ele>610.11</ele>
  <time>2026-08-27T18:27:59Z</time>
  <course>88.81</course>
  <speed>2.788207309365643</speed>
  <fix>3d</fix>
</trkpt>
<trkpt lat="-35.367956" lon="149.1641371">
  <ele>609.95</ele>
  <time>2026-08-27T18:27:59Z</time>
  <course>71.0</course>
  <speed>2.49</speed>
  <fix>3d</fix>
</trkpt>
<trkpt lat="-35.3679523" lon="149.1641463">
  <ele>610.09</ele>
  <time>2026-08-27T18:27:59Z</time>
  <course>76.79</course>
  <speed>3.3065087327875</speed>
  <fix>3d</fix>
</trkpt>
<trkpt lat="-35.367954" lon="149.1641426">
  <ele>609.94</ele>
  <time>2026-08-27T18:27:59Z</time>
  <course>62.03</course>
  <speed>2.97</speed>
  <fix>3d</fix>
</trkpt>
<trkpt lat="-35.3679487" lon="149.1641529">
  <ele>610.08</ele>
  <time>2026-08-27T18:27:59Z</time>
  <course>64.13</course>
  <speed>3.876867292028449</speed>
  <fix>3d</fix>
</trkpt>
<trkpt lat="-35.367951" lon="149.1641487">
  <ele>609.92</ele>
  <time>2026-08-27T18:27:59Z</time>
  <course>56.31</course>
  <speed>3.52</speed>
  <fix>3d</fix>
</trkpt>
<trkpt lat="-35.3679442" lon="149.1641601">
  <ele>610.07</ele>
  <time>2026-08-27T18:27:59Z</time>
  <course>51.26</course>
  <speed>4.438468204234429</speed>
  <fix>3d</fix>
</trkpt>
<trkpt lat="-35.367947" lon="149.1641556">
  <ele>609.9</ele>
  <time>2026-08-27T18:27:59Z</time>
  <course>52.57</course>
  <speed>4.09</speed>
  <fix>3d</fix>
</trkpt>
<trkpt lat="-35.3679387" lon="149.164168">
  <ele>610.06</ele>
  <time>2026-08-27T18:27:59Z</time>
  <course>46.18</course>
  <speed>4.967947262199952</speed>
  <fix>3d</fix>
</trkpt>
<trkpt lat="-35.367942" lon="149.1641631">
  <ele>609.89</ele>
  <time>2026-08-27T18:27:59Z</time>
  <course>49.79</course>
  <speed>4.66</speed>
  <fix>3d</fix>
</trkpt>
<trkpt lat="-35.3679324" lon="149.1641766">
  <ele>610.07</ele>
  <time>2026-08-27T18:27:59Z</time>
  <course>44.94</course>
  <speed>5.452063829413592</speed>
  <fix>3d</fix>
</trkpt>
<trkpt lat="-35.3679362" lon="149.1641712">
  <ele>609.89</ele>
  <time>2026-08-27T18:27:59Z</time>
  <course>48.07</course>
  <speed>5.18</speed>
  <fix>3d</fix>
</trkpt>
<trkpt lat="-35.3679256" lon="149.1641858">
  <ele>610.08</ele>
  <time>2026-08-27T18:27:59Z</time>
  <course>44.49</course>
  <speed>5.904743855579174</speed>
  <fix>3d</fix>
</trkpt>
<trkpt lat="-35.3679297" lon="149.1641801">
  <ele>609.89</ele>
  <time>2026-08-27T18:27:59Z</time>
  <course>47.53</course>
  <speed>5.67</speed>
  <fix>3d</fix>
</trkpt>
<trkpt lat="-35.3679182" lon="149.1641958">
  <ele>610.09</ele>
  <time>2026-08-27T18:27:59Z</time>
  <course>44.56</course>
  <speed>6.332219200248835</speed>
  <fix>3d</fix>
</trkpt>
<trkpt lat="-35.3679226" lon="149.1641897">
  <ele>609.9</ele>
  <time>2026-08-27T18:27:59Z</time>
  <course>47.7</course>
  <speed>6.12</speed>
  <fix>3d</fix>
</trkpt>
<trkpt lat="-35.3679104" lon="149.1642066">
  <ele>610.11</ele>
  <time>2026-08-27T18:27:59Z</time>
  <course>45.03</course>
  <speed>6.762913573305517</speed>
  <fix>3d</fix>
</trkpt>
<trkpt lat="-35.3679149" lon="149.1642">
  <ele>609.91</ele>
  <time>2026-08-27T18:27:59Z</time>
  <course>48.3</course>
  <speed>6.55</speed>
  <fix>3d</fix>
</trkpt>
<trkpt lat="-35.3679022" lon="149.1642183">
  <ele>610.12</ele>
  <time>2026-08-27T18:27:59Z</time>
  <course>45.86</course>
  <speed>7.182924195618383</speed>
  <fix>3d</fix>
</trkpt>
<trkpt lat="-35.3679068" lon="149.1642112">
  <ele>609.92</ele>
  <time>2026-08-27T18:27:59Z</time>
  <course>49.15</course>
  <speed>6.98</speed>
  <fix>3d</fix>
</trkpt>
<trkpt lat="-35.3678936" lon="149.164231">
  <ele>610.12</ele>
  <time>2026-08-27T18:27:59Z</time>
  <course>46.67</course>
  <speed>7.619986876629119</speed>
  <fix>3d</fix>
</trkpt>
<trkpt lat="-35.3678985" lon="149.1642234">
  <ele>609.93</ele>
  <time>2026-08-27T18:27:59Z</time>
  <course>50.12</course>
  <speed>7.41</speed>
  <fix>3d</fix>
</trkpt>
<trkpt lat="-35.3678846" lon="149.1642446">
  <ele>610.11</ele>
  <time>2026-08-27T18:27:59Z</time>
  <course>47.3</course>
  <speed>8.080575474556252</speed>
  <fix>3d</fix>
</trkpt>
<trkpt lat="-35.3678898" lon="149.1642364">
  <ele>609.93</ele>
  <time>2026-08-27T18:27:59Z</time>
  <course>51.03</course>
  <speed>7.85</speed>
  <fix>3d</fix>
</trkpt>
<trkpt lat="-35.3678753" lon="149.164259">
  <ele>610.1</ele>
  <time>2026-08-27T18:27:59Z</time>
  <course>47.63</course>
  <speed>8.539051469572016</speed>
  <fix>3d</fix>
</trkpt>
<trkpt lat="-35.3678807" lon="149.1642503">
  <ele>609.92</ele>
  <time>2026-08-27T18:27:59Z</time>
  <course>51.78</course>
  <speed>8.31</speed>
  <fix>3d</fix>
</trkpt>
<trkpt lat="-35.3678657" lon="149.1642744">
  <ele>610.1</ele>
  <time>2026-08-27T18:27:59Z</time>
  <course>47.72</course>
  <speed>9.01642944851231</speed>
  <fix>3d</fix>
</trkpt>
<trkpt lat="-35.3678713" lon="149.1642652">
  <ele>609.91</ele>
  <time>2026-08-27T18:27:59Z</time>
  <course>52.32</course>
  <speed>8.78</speed>
  <fix>3d</fix>
</trkpt>
<trkpt lat="-35.3678555" lon="149.1642906">
  <ele>610.08</ele>
  <time>2026-08-27T18:27:59Z</time>
  <course>47.57</course>
  <speed>9.504272723359742</speed>
  <fix>3d</fix>
</trkpt>
<trkpt lat="-35.3678614" lon="149.164281">
  <ele>609.9</ele>
  <time>2026-08-27T18:27:59Z</time>
  <course>52.63</course>
  <speed>9.26</speed>
  <fix>3d</fix>
</trkpt>
<trkpt lat="-35.3678449" lon="149.1643077">
  <ele>610.08</ele>
  <time>2026-08-27T18:27:59Z</time>
  <course>47.19</course>
  <speed>9.982289316584648</speed>
  <fix>3d</fix>
</trkpt>
<trkpt lat="-35.367851" lon="149.1642976">
  <ele>609.89</ele>
  <time>2026-08-27T18:27:59Z</time>
  <course>52.76</course>
  <speed>9.75</speed>
  <fix>3d</fix>
</trkpt>
<trkpt lat="-35.3678337" lon="149.1643256">
  <ele>610.07</ele>
  <time>2026-08-27T18:27:59Z</time>
  <course>46.66</course>
  <speed>10.458422443179467</speed>
  <fix>3d</fix>
</trkpt>
<trkpt lat="-35.3678402" lon="149.1643151">
  <ele>609.88</ele>
  <time>2026-08-27T18:27:59Z</time>
  <course>52.76</course>
  <speed>10.23</speed>
  <fix>3d</fix>
</trkpt>
<trkpt lat="-35.367822" lon="149.1643443">
  <ele>610.07</ele>
  <time>2026-08-27T18:27:59Z</time>
  <course>46.16</course>
  <speed>10.916872262695026</speed>
  <fix>3d</fix>
</trkpt>
<trkpt lat="-35.3678288" lon="149.1643335">
  <ele>609.88</ele>
  <time>2026-08-27T18:27:59Z</time>
  <course>52.65</course>
  <speed>10.7</speed>
  <fix>3d</fix>
</trkpt>
<trkpt lat="-35.3678098" lon="149.1643637">
  <ele>610.08</ele>
  <time>2026-08-27T18:27:59Z</time>
  <course>45.88</course>
  <speed>11.325462462963708</speed>
  <fix>3d</fix>
</trkpt>
<trkpt lat="-35.3678169" lon="149.1643526">
  <ele>609.88</ele>
  <time>2026-08-27T18:27:59Z</time>
  <course>52.46</course>
  <speed>11.15</speed>
  <fix>3d</fix>
</trkpt>
<trkpt lat="-35.3677971" lon="149.1643838">
  <ele>610.1</ele>
  <time>2026-08-27T18:27:59Z</time>
  <course>45.92</course>
  <speed>11.682465493208188</speed>
  <fix>3d</fix>
</trkpt>
<trkpt lat="-35.3678044" lon="149.1643724">
  <ele>609.9</ele>
  <time>2026-08-27T18:27:59Z</time>
  <course>52.25</course>
  <speed>11.54</speed>
  <fix>3d</fix>
</trkpt>
<trkpt lat="-35.367784" lon="149.1644044">
  <ele>610.13</ele>
  <time>2026-08-27T18:27:59Z</time>
  <course>46.2</course>
  <speed>11.985178346607947</speed>
  <fix>3d</fix>
</trkpt>
<trkpt lat="-35.3677915" lon="149.1643928">
  <ele>609.92</ele>
  <time>2026-08-27T18:27:59Z</time>
  <course>52.04</course>
  <speed>11.88</speed>
  <fix>3d</fix>
</trkpt>
<trkpt lat="-35.3677704" lon="149.1644257">
  <ele>610.16</ele>
  <time>2026-08-27T18:27:59Z</time>
  <course>46.61</course>
  <speed>12.23797777412592</speed>
  <fix>3d</fix>
</trkpt>
<trkpt lat="-35.3677782" lon="149.1644137">
  <ele>609.94</ele>
  <time>2026-08-27T18:27:59Z</time>
  <course>51.88</course>
  <speed>12.16</speed>
  <fix>3d</fix>
</trkpt>
<trkpt lat="-35.3677565" lon="149.1644472">
  <ele>610.19</ele>
  <time>2026-08-27T18:27:59Z</time>
  <course>47.09</course>
  <speed>12.448698727176266</speed>
  <fix>3d</fix>
</trkpt>
<trkpt lat="-35.3677646" lon="149.164435">
  <ele>609.98</ele>
  <time>2026-08-27T18:27:59Z</time>
  <course>51.76</course>
  <speed>12.4</speed>
  <fix>3d</fix>
</trkpt>
<trkpt lat="-35.3677424" lon="149.1644691">
  <ele>610.22</ele>
  <time>2026-08-27T18:27:59Z</time>
  <course>47.59</course>
  <speed>12.618910412551475</speed>
  <fix>3d</fix>
</trkpt>
<trkpt lat="-35.3677506" lon="149.1644567">
  <ele>610.01</ele>
  <time>2026-08-27T18:27:59Z</time>
  <course>51.69</course>
  <speed>12.59</speed>
  <fix>3d</fix>
</trkpt>
<trkpt lat="-35.3677281" lon="149.1644912">
  <ele>610.24</ele>
  <time>2026-08-27T18:27:59Z</time>
  <course>48.13</course>
  <speed>12.746972189504454</speed>
  <fix>3d</fix>
</trkpt>
<trkpt lat="-35.3677365" lon="149.1644786">
  <ele>610.04</ele>
  <time>2026-08-27T18:27:59Z</time>
  <course>51.65</course>
  <speed>12.74</speed>
  <fix>3d</fix>
</trkpt>
<trkpt lat="-35.3677138" lon="149.1645134">
  <ele>610.27</ele>
  <time>2026-08-27T18:27:59Z</time>
  <course>48.68</course>
  <speed>12.83127819042203</speed>
  <fix>3d</fix>
</trkpt>
<trkpt lat="-35.3677222" lon="149.1645007">
  <ele>610.07</ele>
  <time>2026-08-27T18:27:59Z</time>
  <course>51.64</course>
  <speed>12.85</speed>
  <fix>3d</fix>
</trkpt>
<trkpt lat="-35.3676994" lon="149.1645357">
  <ele>610.29</ele>
  <time>2026-08-27T18:27:59Z</time>
  <course>49.25</course>
  <speed>12.875033980537683</speed>
  <fix>3d</fix>
</trkpt>
<trkpt lat="-35.3677079" lon="149.164523">
  <ele>610.09</ele>
  <time>2026-08-27T18:27:59Z</time>
  <course>51.64</course>
  <speed>12.92</speed>
  <fix>3d</fix>
</trkpt>
<trkpt lat="-35.367685" lon="149.1645581">
  <ele>610.32</ele>
  <time>2026-08-27T18:27:59Z</time>
  <course>49.81</course>
  <speed>12.88908452916653</speed>
  <fix>3d</fix>
</trkpt>
<trkpt lat="-35.3676934" lon="149.1645454">
  <ele>610.12</ele>
  <time>2026-08-27T18:27:59Z</time>
  <course>51.65</course>
  <speed>12.95</speed>
  <fix>3d</fix>
</trkpt>
<trkpt lat="-35.3676706" lon="149.1645805">
  <ele>610.33</ele>
  <time>2026-08-27T18:27:59Z</time>
  <course>50.39</course>
  <speed>12.868815019262652</speed>
  <fix>3d</fix>
</trkpt>
<trkpt lat="-35.3676789" lon="149.1645677">
  <ele>610.14</ele>
  <time>2026-08-27T18:27:59Z</time>
  <course>51.67</course>
  <speed>12.95</speed>
  <fix>3d</fix>
</trkpt>
<trkpt lat="-35.3676563" lon="149.1646027">
  <ele>610.34</ele>
  <time>2026-08-27T18:27:59Z</time>
  <course>50.92</course>
  <speed>12.820456310131867</speed>
  <fix>3d</fix>
</trkpt>
<trkpt lat="-35.3676646" lon="149.1645901">
  <ele>610.16</ele>
  <time>2026-08-27T18:27:59Z</time>
  <course>51.7</course>
  <speed>12.91</speed>
  <fix>3d</fix>
</trkpt>
<trkpt lat="-35.367642" lon="149.1646249">
  <ele>610.34</ele>
  <time>2026-08-27T18:27:59Z</time>
  <course>51.26</course>
  <speed>12.770473757852526</speed>
  <fix>3d</fix>
</trkpt>
<trkpt lat="-35.3676502" lon="149.1646124">
  <ele>610.17</ele>
  <time>2026-08-27T18:27:59Z</time>
  <course>51.72</course>
  <speed>12.86</speed>
  <fix>3d</fix>
</trkpt>
<trkpt lat="-35.3676277" lon="149.1646471">
  <ele>610.34</ele>
  <time>2026-08-27T18:27:59Z</time>
  <course>51.33</course>
  <speed>12.742378113994263</speed>
  <fix>3d</fix>
</trkpt>
<trkpt lat="-35.367636" lon="149.1646346">
  <ele>610.17</ele>
  <time>2026-08-27T18:27:59Z</time>
  <course>51.74</course>
  <speed>12.81</speed>
  <fix>3d</fix>
</trkpt>
<trkpt lat="-35.3676134" lon="149.1646693">
  <ele>610.32</ele>
  <time>2026-08-27T18:28:00Z</time>
  <course>51.22</course>
  <speed>12.72049134271157</speed>
  <fix>3d</fix>
</trkpt>
<trkpt lat="-35.3676217" lon="149.1646567">
  <ele>610.16</ele>
  <time>2026-08-27T18:28:00Z</time>
  <course>51.73</course>
  <speed>12.77</speed>
  <fix>3d</fix>
</trkpt>
<trkpt lat="-35.3675991" lon="149.1646914">
  <ele>610.29</ele>
  <time>2026-08-27T18:28:00Z</time>
  <course>50.95</course>
  <speed>12.725093319893572</speed>
  <fix>3d</fix>
</trkpt>
<trkpt lat="-35.3676075" lon="149.1646788">
  <ele>610.14</ele>
  <time>2026-08-27T18:28:00Z</time>
  <course>51.67</course>
  <speed>12.76</speed>
  <fix>3d</fix>
</trkpt>
<trkpt lat="-35.3675848" lon="149.1647135">
  <ele>610.26</ele>
  <time>2026-08-27T18:28:00Z</time>
  <course>50.6</course>
  <speed>12.75002745095084</speed>
  <fix>3d</fix>
</trkpt>
<trkpt lat="-35.3675932" lon="149.1647008">
  <ele>610.11</ele>
  <time>2026-08-27T18:28:00Z</time>
  <course>51.55</course>
  <speed>12.76</speed>
  <fix>3d</fix>
</trkpt>
<trkpt lat="-35.3675705" lon="149.1647356">
  <ele>610.23</ele>
  <time>2026-08-27T18:28:00Z</time>
  <course>50.22</course>
  <speed>12.773511654983526</speed>
  <fix>3d</fix>
</trkpt>
<trkpt lat="-35.3675789" lon="149.1647228">
  <ele>610.08</ele>
  <time>2026-08-27T18:28:00Z</time>
  <course>51.38</course>
  <speed>12.78</speed>
  <fix>3d</fix>
</trkpt>
<trkpt lat="-35.3675561" lon="149.1647575">
  <ele>610.21</ele>
  <time>2026-08-27T18:28:00Z</time>
  <course>49.89</course>
  <speed>12.804924833828585</speed>
  <fix>3d</fix>
</trkpt>
<trkpt lat="-35.3675645" lon="149.1647449">
  <ele>610.07</ele>
  <time>2026-08-27T18:28:00Z</time>
  <course>51.18</course>
  <speed>12.8</speed>
  <fix>3d</fix>
</trkpt>
<trkpt lat="-35.3675416" lon="149.1647795">
  <ele>610.2</ele>
  <time>2026-08-27T18:28:00Z</time>
  <course>49.61</course>
  <speed>12.828706092198074</speed>
  <fix>3d</fix>
</trkpt>
<trkpt lat="-35.3675501" lon="149.1647668">
  <ele>610.05</ele>
  <time>2026-08-27T18:28:00Z</time>
  <course>50.97</course>
  <speed>12.82</speed>
  <fix>3d</fix>
</trkpt>
<trkpt lat="-35.367527" lon="149.1648013">
  <ele>610.19</ele>
  <time>2026-08-27T18:28:00Z</time>
  <course>49.31</course>
  <speed>12.860373244972324</speed>
  <fix>3d</fix>
</trkpt>
<trkpt lat="-35.3675355" lon="149.1647888">
  <ele>610.05</ele>
  <time>2026-08-27T18:28:00Z</time>
  <course>50.76</course>
  <speed>12.85</speed>
  <fix>3d</fix>
</trkpt>
<trkpt lat="-35.3675124" lon="149.1648231">
  <ele>610.19</ele>
  <time>2026-08-27T18:28:00Z</time>
  <course>49.07</course>
  <speed>12.89215653023186</speed>
  <fix>3d</fix>
</trkpt>
<trkpt lat="-35.3675209" lon="149.1648107">
  <ele>610.05</ele>
  <time>2026-08-27T18:28:00Z</time>
  <course>50.59</course>
  <speed>12.88</speed>
  <fix>3d</fix>
</trkpt>
<trkpt lat="-35.3674977" lon="149.164845">
  <ele>610.19</ele>
  <time>2026-08-27T18:28:00Z</time>
  <course>48.85</course>
  <speed>12.925362664157628</speed>
  <fix>3d</fix>
</trkpt>
<trkpt lat="-35.3675061" lon="149.1648326">
  <ele>610.05</ele>
  <time>2026-08-27T18:28:00Z</time>
  <course>50.43</course>
  <speed>12.92</speed>
  <fix>3d</fix>
</trkpt>
<trkpt lat="-35.3674828" lon="149.1648671">
  <ele>610.19</ele>
  <time>2026-08-27T18:28:00Z</time>
  <course>48.68</course>
  <speed>12.96630247988994</speed>
  <fix>3d</fix>
</trkpt>
<trkpt lat="-35.3674913" lon="149.1648545">
  <ele>610.05</ele>
  <time>2026-08-27T18:28:00Z</time>
  <course>50.31</course>
  <speed>12.96</speed>
  <fix>3d</fix>
</trkpt>
<trkpt lat="-35.3674678" lon="149.1648892">
  <ele>610.2</ele>
  <time>2026-08-27T18:28:00Z</time>
  <course>48.54</course>
  <speed>13.00726719953119</speed>
  <fix>3d</fix>
</trkpt>
<trkpt lat="-35.3674764" lon="149.1648765">
  <ele>610.06</ele>
  <time>2026-08-27T18:28:00Z</time>
  <course>50.21</course>
  <speed>13.0</speed>
  <fix>3d</fix>
</trkpt>
<trkpt lat="-35.3674527" lon="149.1649113">
  <ele>610.2</ele>
  <time>2026-08-27T18:28:00Z</time>
  <course>48.5</course>
  <speed>13.04184419474485</speed>
  <fix>3d</fix>
</trkpt>
<trkpt lat="-35.3674614" lon="149.1648986">
  <ele>610.06</ele>
  <time>2026-08-27T18:28:00Z</time>
  <course>50.15</course>
  <speed>13.03</speed>
  <fix>3d</fix>
</trkpt>
<trkpt lat="-35.3674377" lon="149.1649334">
  <ele>610.21</ele>
  <time>2026-08-27T18:28:00Z</time>
  <course>48.54</course>
  <speed>13.077690927682914</speed>
  <fix>3d</fix>
</trkpt>
<trkpt lat="-35.3674464" lon="149.1649207">
  <ele>610.07</ele>
  <time>2026-08-27T18:28:00Z</time>
  <course>50.12</course>
  <speed>13.06</speed>
  <fix>3d</fix>
</trkpt>
<trkpt lat="-35.3674226" lon="149.1649555">
  <ele>610.22</ele>
  <time>2026-08-27T18:28:00Z</time>
  <course>48.68</course>
  <speed>13.093051592352335</speed>
  <fix>3d</fix>
</trkpt>
<trkpt lat="-35.3674313" lon="149.1649428">
  <ele>610.08</ele>
  <time>2026-08-27T18:28:00Z</time>
  <course>50.13</course>
  <speed>13.09</speed>
  <fix>3d</fix>
</trkpt>
<trkpt lat="-35.3674076" lon="149.1649777">
  <ele>610.23</ele>
  <time>2026-08-27T18:28:00Z</time>
  <course>48.83</course>
  <speed>13.102034193208318</speed>
  <fix>3d</fix>
</trkpt>
<trkpt lat="-35.3674162" lon="149.164965">
  <ele>610.09</ele>
  <time>2026-08-27T18:28:00Z</time>
  <course>50.18</course>
  <speed>13.1</speed>
  <fix>3d</fix>
</trkpt>
<trkpt lat="-35.3673925" lon="149.165">
  <ele>610.24</ele>
  <time>2026-08-27T18:28:00Z</time>
  <course>49.04</course>
  <speed>13.111048775746356</speed>
  <fix>3d</fix>
</trkpt>
<trkpt lat="-35.3674012" lon="149.1649871">
  <ele>610.1</ele>
  <time>2026-08-27T18:28:00Z</time>
  <course>50.26</course>
  <speed>13.12</speed>
  <fix>3d</fix>
</trkpt>
<trkpt lat="-35.3673775" lon="149.1650222">
  <ele>610.25</ele>
  <time>2026-08-27T18:28:00Z</time>
  <course>49.25</course>
  <speed>13.113733259449806</speed>
  <fix>3d</fix>
</trkpt>
<trkpt lat="-35.3673861" lon="149.1650094">
  <ele>610.11</ele>
  <time>2026-08-27T18:28:00Z</time>
  <course>50.36</course>
  <speed>13.12</speed>
  <fix>3d</fix>
</trkpt>
<trkpt lat="-35.3673625" lon="149.1650445">
  <ele>610.26</ele>
  <time>2026-08-27T18:28:00Z</time>
  <course>49.45</course>
  <speed>13.116478185854616</speed>
  <fix>3d</fix>
</trkpt>
<trkpt lat="-35.3673711" lon="149.1650317">
  <ele>610.12</ele>
  <time>2026-08-27T18:28:00Z</time>
  <course>50.48</course>
  <speed>13.13</speed>
  <fix>3d</fix>
</trkpt>
<trkpt lat="-35.3673476" lon="149.1650668">
  <ele>610.26</ele>
  <time>2026-08-27T18:28:00Z</time>
  <course>49.66</course>
  <speed>13.112959238859853</speed>
  <fix>3d</fix>
</trkpt>
<trkpt lat="-35.367356" lon="149.1650541">
  <ele>610.12</ele>
  <time>2026-08-27T18:28:00Z</time>
  <course>50.62</course>
  <speed>13.13</speed>
  <fix>3d</fix>
</trkpt>
<trkpt lat="-35.3673327" lon="149.1650892">
  <ele>610.26</ele>
  <time>2026-08-27T18:28:00Z</time>
  <course>49.84</course>
  <speed>13.115841566594192</speed>
  <fix>3d</fix>
</trkpt>
<trkpt lat="-35.3673411" lon="149.1650765">
  <ele>610.12</ele>
  <time>2026-08-27T18:28:00Z</time>
  <course>50.75</course>
  <speed>13.13</speed>
  <fix>3d</fix>
</trkpt>
<trkpt lat="-35.3673177" lon="149.1651118">
  <ele>610.26</ele>
  <time>2026-08-27T18:28:00Z</time>
  <course>50.02</course>
  <speed>13.104720523536548</speed>
  <fix>3d</fix>
</trkpt>
<trkpt lat="-35.3673263" lon="149.1650988">
  <ele>610.12</ele>
  <time>2026-08-27T18:28:00Z</time>
  <course>50.89</course>
  <speed>13.12</speed>
  <fix>3d</fix>
</trkpt>
<trkpt lat="-35.3673029" lon="149.1651343">
  <ele>610.26</ele>
  <time>2026-08-27T18:28:00Z</time>
  <course>50.22</course>
  <speed>13.099938931155366</speed>
  <fix>3d</fix>
</trkpt>
<trkpt lat="-35.3673114" lon="149.1651213">
  <ele>610.12</ele>
  <time>2026-08-27T18:28:00Z</time>
  <course>51.01</course>
  <speed>13.12</speed>
  <fix>3d</fix>
</trkpt>
<trkpt lat="-35.3672881" lon="149.1651569">
  <ele>610.26</ele>
  <time>2026-08-27T18:28:00Z</time>
  <course>50.42</course>
  <speed>13.088934257608601</speed>
  <fix>3d</fix>
</trkpt>
<trkpt lat="-35.3672966" lon="149.1651438">
  <ele>610.12</ele>
  <time>2026-08-27T18:28:00Z</time>
  <course>51.12</course>
  <speed>13.11</speed>
  <fix>3d</fix>
</trkpt>
<trkpt lat="-35.3672733" lon="149.1651795">
  <ele>610.26</ele>
  <time>2026-08-27T18:28:00Z</time>
  <course>50.6</course>
  <speed>13.07018362533595</speed>
  <fix>3d</fix>
</trkpt>
<trkpt lat="-35.3672818" lon="149.1651663">
  <ele>610.12</ele>
  <time>2026-08-27T18:28:00Z</time>
  <course>51.22</course>
  <speed>13.09</speed>
  <fix>3d</fix>
</trkpt>
<trkpt lat="-35.3672586" lon="149.165202">
  <ele>610.27</ele>
  <time>2026-08-27T18:28:00Z</time>
  <course>50.78</course>
  <speed>13.049888888415872</speed>
  <fix>3d</fix>
</trkpt>
<trkpt lat="-35.3672671" lon="149.1651888">
  <ele>610.12</ele>
  <time>2026-08-27T18:28:00Z</time>
  <course>51.31</course>
  <speed>13.07</speed>
  <fix>3d</fix>
</trkpt>
<trkpt lat="-35.367244" lon="149.1652245">
  <ele>610.27</ele>
  <time>2026-08-27T18:28:00Z</time>
  <course>50.95</course>
  <speed>13.023371299321845</speed>
  <fix>3d</fix>
</trkpt>
<trkpt lat="-35.3672525" lon="149.1652113">
  <ele>610.12</ele>
  <time>2026-08-27T18:28:00Z</time>
  <course>51.38</course>
  <speed>13.04</speed>
  <fix>3d</fix>
</trkpt>
<trkpt lat="-35.3672294" lon="149.165247">
  <ele>610.27</ele>
  <time>2026-08-27T18:28:00Z</time>
  <course>51.05</course>
  <speed>13.003095785235146</speed>
  <fix>3d</fix>
</trkpt>
<trkpt lat="-35.3672379" lon="149.1652338">
  <ele>610.12</ele>
  <time>2026-08-27T18:28:00Z</time>
  <course>51.43</course>
  <speed>13.01</speed>
  <fix>3d</fix>
</trkpt>
<trkpt lat="-35.3672148" lon="149.1652694">
  <ele>610.27</ele>
  <time>2026-08-27T18:28:00Z</time>
  <course>51.11</course>
  <speed>12.974995183043422</speed>
  <fix>3d</fix>
</trkpt>
<trkpt lat="-35.3672233" lon="149.1652561">
  <ele>610.12</ele>
  <time>2026-08-27T18:28:00Z</time>
  <course>51.47</course>
  <speed>12.99</speed>
  <fix>3d</fix>
</trkpt>
<trkpt lat="-35.3672003" lon="149.1652917">
  <ele>610.27</ele>
  <time>2026-08-27T18:28:00Z</time>
  <course>51.11</course>
  <speed>12.960945181583016</speed>
  <fix>3d</fix>
</trkpt>
<trkpt lat="-35.3672088" lon="149.1652785">
  <ele>610.11</ele>
  <time>2026-08-27T18:28:00Z</time>
  <course>51.48</course>
  <speed>12.97</speed>
  <fix>3d</fix>
</trkpt>
<trkpt lat="-35.3671858" lon="149.1653141">
  <ele>610.26</ele>
  <time>2026-08-27T18:28:00Z</time>
  <course>51.08</course>
  <speed>12.939064881203741</speed>
  <fix>3d</fix>
</trkpt>
<trkpt lat="-35.3671943" lon="149.1653008">
  <ele>610.1</ele>
  <time>2026-08-27T18:28:00Z</time>
  <course>51.47</course>
  <speed>12.95</speed>
  <fix>3d</fix>
</trkpt>
<trkpt lat="-35.3671712" lon="149.1653365">
  <ele>610.25</ele>
  <time>2026-08-27T18:28:00Z</time>
  <course>51.0</course>
  <speed>12.923412861933954</speed>
  <fix>3d</fix>
</trkpt>
<trkpt lat="-35.3671798" lon="149.1653231">
  <ele>610.09</ele>
  <time>2026-08-27T18:28:00Z</time>
  <course>51.44</course>
  <speed>12.93</speed>
  <fix>3d</fix>
</trkpt>
<trkpt lat="-35.3671567" lon="149.1653588">
  <ele>610.24</ele>
  <time>2026-08-27T18:28:00Z</time>
  <course>50.91</course>
  <speed>12.90777285204539</speed>
  <fix>3d</fix>
</trkpt>
<trkpt lat="-35.3671653" lon="149.1653454">
  <ele>610.09</ele>
  <time>2026-08-27T18:28:00Z</time>
  <course>51.39</course>
  <speed>12.92</speed>
  <fix>3d</fix>
</trkpt>
<trkpt lat="-35.3671422" lon="149.165381">
  <ele>610.24</ele>
  <time>2026-08-27T18:28:00Z</time>
  <course>50.79</course>
  <speed>12.90620006043607</speed>
  <fix>3d</fix>
</trkpt>
<trkpt lat="-35.3671508" lon="149.1653677">
  <ele>610.08</ele>
  <time>2026-08-27T18:28:00Z</time>
  <course>51.33</course>
  <speed>12.91</speed>
  <fix>3d</fix>
</trkpt>
<trkpt lat="-35.3671278" lon="149.1654031">
  <ele>610.23</ele>
  <time>2026-08-27T18:28:00Z</time>
  <course>50.67</course>
  <speed>12.89684069840362</speed>
  <fix>3d</fix>
</trkpt>
<trkpt lat="-35.3671363" lon="149.1653898">
  <ele>610.08</ele>
  <time>2026-08-27T18:28:00Z</time>
  <course>51.25</course>
  <speed>12.9</speed>
  <fix>3d</fix>
</trkpt>
<trkpt lat="-35.3671133" lon="149.1654252">
  <ele>610.23</ele>
  <time>2026-08-27T18:28:00Z</time>
  <course>50.54</course>
  <speed>12.895305347295968</speed>
  <fix>3d</fix>
</trkpt>
<trkpt lat="-35.3671218" lon="149.1654121">
  <ele>610.07</ele>
  <time>2026-08-27T18:28:00Z</time>
  <course>51.18</course>
  <speed>12.9</speed>
  <fix>3d</fix>
</trkpt>
<trkpt lat="-35.3670987" lon="149.1654472">
  <ele>610.22</ele>
  <time>2026-08-27T18:28:00Z</time>
  <course>50.38</course>
  <speed>12.900062015354811</speed>
  <fix>3d</fix>
</trkpt>
<trkpt lat="-35.3671072" lon="149.1654342">
  <ele>610.07</ele>
  <time>2026-08-27T18:28:00Z</time>
  <course>51.09</course>
  <speed>12.91</speed>
  <fix>3d</fix>
</trkpt>
<trkpt lat="-35.3670842" lon="149.1654693">
  <ele>610.22</ele>
  <time>2026-08-27T18:28:00Z</time>
  <course>50.2</course>
  <speed>12.91262947660158</speed>
  <fix>3d</fix>
</trkpt>
<trkpt lat="-35.3670927" lon="149.1654563">
  <ele>610.06</ele>
  <time>2026-08-27T18:28:00Z</time>
  <course>51.01</course>
  <speed>12.92</speed>
  <fix>3d</fix>
</trkpt>
<trkpt lat="-35.3670696" lon="149.1654913">
  <ele>610.22</ele>
  <time>2026-08-27T18:28:00Z</time>
  <course>50.06</course>
  <speed>12.917449438646933</speed>
  <fix>3d</fix>
</trkpt>
<trkpt lat="-35.367078" lon="149.1654784">
  <ele>610.06</ele>
  <time>2026-08-27T18:28:00Z</time>
  <course>50.93</course>
  <speed>12.93</speed>
  <fix>3d</fix>
</trkpt>
<trkpt lat="-35.367055" lon="149.1655133">
  <ele>610.23</ele>
  <time>2026-08-27T18:28:00Z</time>
  <course>50.06</course>
  <speed>12.901926212779237</speed>
  <fix>3d</fix>
</trkpt>
<trkpt lat="-35.3670634" lon="149.1655005">
  <ele>610.06</ele>
  <time>2026-08-27T18:28:00Z</time>
  <course>50.86</course>
  <speed>12.93</speed>
  <fix>3d</fix>
</trkpt>
<trkpt lat="-35.3670405" lon="149.1655352">
  <ele>610.25</ele>
  <time>2026-08-27T18:28:00Z</time>
  <course>50.33</course>
  <speed>12.830140295413765</speed>
  <fix>3d</fix>
</trkpt>
<trkpt lat="-35.3670487" lon="149.1655226">
  <ele>610.07</ele>
  <time>2026-08-27T18:28:00Z</time>
  <course>50.79</course>
  <speed>12.9</speed>
  <fix>3d</fix>
</trkpt>
<trkpt lat="-35.367026" lon="149.165557">
  <ele>610.28</ele>
  <time>2026-08-27T18:28:00Z</time>
  <course>50.87</course>
  <speed>12.7161511472615</speed>
  <fix>3d</fix>
</trkpt>
<trkpt lat="-35.3670341" lon="149.1655445">
  <ele>610.09</ele>
  <time>2026-08-27T18:28:00Z</time>
  <course>50.76</course>
  <speed>12.82</speed>
  <fix>3d</fix>
</trkpt>
<trkpt lat="-35.3670115" lon="149.1655787">
  <ele>610.32</ele>
  <time>2026-08-27T18:28:00Z</time>
  <course>51.59</course>
  <speed>12.525509969657922</speed>
  <fix>3d</fix>
</trkpt>
<trkpt lat="-35.3670196" lon="149.1655663">
  <ele>610.13</ele>
  <time>2026-08-27T18:28:00Z</time>
  <course>50.77</course>
  <speed>12.69</speed>
  <fix>3d</fix>
</trkpt>
<trkpt lat="-35.3669973" lon="149.1656001">
  <ele>610.37</ele>
  <time>2026-08-27T18:28:00Z</time>
  <course>52.38</course>
  <speed>12.300455276126977</speed>
  <fix>3d</fix>
</trkpt>
<trkpt lat="-35.3670053" lon="149.1655879">
  <ele>610.18</ele>
  <time>2026-08-27T18:28:00Z</time>
  <course>50.84</course>
  <speed>12.49</speed>
  <fix>3d</fix>
</trkpt>
<trkpt lat="-35.3669835" lon="149.165621">
  <ele>610.41</ele>
  <time>2026-08-27T18:28:00Z</time>
  <course>53.19</course>
  <speed>12.00514056560772</speed>
  <fix>3d</fix>
</trkpt>
<trkpt lat="-35.3669912" lon="149.165609">
  <ele>610.22</ele>
  <time>2026-08-27T18:28:00Z</time>
  <course>50.97</course>
  <speed>12.24</speed>
  <fix>3d</fix>
</trkpt>
<trkpt lat="-35.3669701" lon="149.1656415">
  <ele>610.44</ele>
  <time>2026-08-27T18:28:00Z</time>
  <course>53.98</course>
  <speed>11.675551378842886</speed>
  <fix>3d</fix>
</trkpt>
<trkpt lat="-35.3669776" lon="149.1656298">
  <ele>610.26</ele>
  <time>2026-08-27T18:28:00Z</time>
  <course>51.15</course>
  <speed>11.93</speed>
  <fix>3d</fix>
</trkpt>
<trkpt lat="-35.3669571" lon="149.1656613">
  <ele>610.47</ele>
  <time>2026-08-27T18:28:00Z</time>
  <course>54.7</course>
  <speed>11.288312539968054</speed>
  <fix>3d</fix>
</trkpt>
<trkpt lat="-35.3669644" lon="149.16565">
  <ele>610.29</ele>
  <time>2026-08-27T18:28:00Z</time>
  <course>51.35</course>
  <speed>11.58</speed>
  <fix>3d</fix>
</trkpt>
<trkpt lat="-35.3669447" lon="149.1656806">
  <ele>610.48</ele>
  <time>2026-08-27T18:28:00Z</time>
  <course>55.35</course>
  <speed>10.851211913883168</speed>
  <fix>3d</fix>
</trkpt>
<trkpt lat="-35.3669516" lon="149.1656696">
  <ele>610.32</ele>
  <time>2026-08-27T18:28:00Z</time>
  <course>51.55</course>
  <speed>11.17</speed>
  <fix>3d</fix>
</trkpt>
<trkpt lat="-35.3669328" lon="149.165699">
  <ele>610.49</ele>
  <time>2026-08-27T18:28:00Z</time>
  <course>55.87</course>
  <speed>10.378289839853192</speed>
  <fix>3d</fix>
</trkpt>
<trkpt lat="-35.3669394" lon="149.1656886">
  <ele>610.33</ele>
  <time>2026-08-27T18:28:00Z</time>
  <course>51.76</course>
  <speed>10.72</speed>
  <fix>3d</fix>
</trkpt>
<trkpt lat="-35.3669215" lon="149.1657167">
  <ele>610.49</ele>
  <time>2026-08-27T18:28:00Z</time>
  <course>56.31</course>
  <speed>9.853755629200473</speed>
  <fix>3d</fix>
</trkpt>
<trkpt lat="-35.3669278" lon="149.1657067">
  <ele>610.34</ele>
  <time>2026-08-27T18:28:00Z</time>
  <course>51.94</course>
  <speed>10.23</speed>
  <fix>3d</fix>
</trkpt>
<trkpt lat="-35.3669109" lon="149.1657334">
  <ele>610.48</ele>
  <time>2026-08-27T18:28:00Z</time>
  <course>56.66</course>
  <speed>9.301209598756497</speed>
  <fix>3d</fix>
</trkpt>
<trkpt lat="-35.3669167" lon="149.165724">
  <ele>610.33</ele>
  <time>2026-08-27T18:28:00Z</time>
  <course>52.1</course>
  <speed>9.69</speed>
  <fix>3d</fix>
</trkpt>
<trkpt lat="-35.3669009" lon="149.1657492">
  <ele>610.46</ele>
  <time>2026-08-27T18:28:00Z</time>
  <course>56.87</course>
  <speed>8.71709240515437</speed>
  <fix>3d</fix>
</trkpt>
<trkpt lat="-35.3669064" lon="149.1657404">
  <ele>610.32</ele>
  <time>2026-08-27T18:28:00Z</time>
  <course>52.22</course>
  <speed>9.12</speed>
  <fix>3d</fix>
</trkpt>
<trkpt lat="-35.3668915" lon="149.1657641">
  <ele>610.43</ele>
  <time>2026-08-27T18:28:00Z</time>
  <course>56.86</course>
  <speed>8.140884472832175</speed>
  <fix>3d</fix>
</trkpt>
<trkpt lat="-35.3668967" lon="149.1657558">
  <ele>610.3</ele>
  <time>2026-08-27T18:28:00Z</time>
  <course>52.3</course>
  <speed>8.54</speed>
  <fix>3d</fix>
</trkpt>
<trkpt lat="-35.3668828" lon="149.1657779">
  <ele>610.39</ele>
  <time>2026-08-27T18:28:00Z</time>
  <course>56.59</course>
  <speed>7.5707991652136695</speed>
  <fix>3d</fix>
</trkpt>
<trkpt lat="-35.3668876" lon="149.1657701">
  <ele>610.27</ele>
  <time>2026-08-27T18:28:00Z</time>
  <course>52.34</course>
  <speed>7.96</speed>
  <fix>3d</fix>
</trkpt>
<trkpt lat="-35.3668747" lon="149.1657907">
  <ele>610.35</ele>
  <time>2026-08-27T18:28:00Z</time>
  <course>56.03</course>
  <speed>7.02524020941633</speed>
  <fix>3d</fix>
</trkpt>
<trkpt lat="-35.3668792" lon="149.1657836">
  <ele>610.23</ele>
  <time>2026-08-27T18:28:00Z</time>
  <course>52.25</course>
  <speed>7.39</speed>
  <fix>3d</fix>
</trkpt>
<trkpt lat="-35.3668671" lon="149.1658025">
  <ele>610.3</ele>
  <time>2026-08-27T18:28:00Z</time>
  <course>55.13</course>
  <speed>6.524944444207936</speed>
  <fix>3d</fix>
</trkpt>
<trkpt lat="-35.3668713" lon="149.165796">
  <ele>610.18</ele>
  <time>2026-08-27T18:28:00Z</time>
  <course>51.9</course>
  <speed>6.85</speed>
  <fix>3d</fix>
</trkpt>
<trkpt lat="-35.3668599" lon="149.1658134">
  <ele>610.25</ele>
  <time>2026-08-27T18:28:00Z</time>
  <course>53.77</course>
  <speed>6.0702306381224105</speed>
  <fix>3d</fix>
</trkpt>
<trkpt lat="-35.3668639" lon="149.1658074">
  <ele>610.13</ele>
  <time>2026-08-27T18:28:00Z</time>
  <course>51.11</course>
  <speed>6.36</speed>
  <fix>3d</fix>
</trkpt>
<trkpt lat="-35.366853" lon="149.1658233">
  <ele>610.21</ele>
  <time>2026-08-27T18:28:00Z</time>
  <course>51.72</course>
  <speed>5.658736608113157</speed>
  <fix>3d</fix>
</trkpt>
<trkpt lat="-35.3668569" lon="149.1658178">
  <ele>610.08</ele>
  <time>2026-08-27T18:28:00Z</time>
  <course>49.67</course>
  <speed>5.91</speed>
  <fix>3d</fix>
</trkpt>
<trkpt lat="-35.3668463" lon="149.1658321">
  <ele>610.18</ele>
  <time>2026-08-27T18:28:00Z</time>
  <course>48.89</course>
  <speed>5.282205978566152</speed>
  <fix>3d</fix>
</trkpt>
<trkpt lat="-35.3668501" lon="149.1658272">
  <ele>610.05</ele>
  <time>2026-08-27T18:28:00Z</time>
  <course>47.45</course>
  <speed>5.5</speed>
  <fix>3d</fix>
</trkpt>
<trkpt lat="-35.3668396" lon="149.16584">
  <ele>610.15</ele>
  <time>2026-08-27T18:28:00Z</time>
  <course>45.32</course>
  <speed>4.971941270771407</speed>
  <fix>3d</fix>
</trkpt>
<trkpt lat="-35.3668435" lon="149.1658356">
  <ele>610.01</ele>
  <time>2026-08-27T18:28:00Z</time>
  <course>44.35</course>
  <speed>5.14</speed>
  <fix>3d</fix>
</trkpt>
<trkpt lat="-35.3668329" lon="149.1658468">
  <ele>610.13</ele>
  <time>2026-08-27T18:28:00Z</time>
  <course>40.99</course>
  <speed>4.7241083814832185</speed>
  <fix>3d</fix>
</trkpt>
<trkpt lat="-35.3668368" lon="149.165843">
  <ele>609.99</ele>
  <time>2026-08-27T18:28:00Z</time>
  <course>40.36</course>
  <speed>4.84</speed>
  <fix>3d</fix>
</trkpt>
<trkpt lat="-35.3668261" lon="149.1658526">
  <ele>610.12</ele>
  <time>2026-08-27T18:28:00Z</time>
  <course>35.91</course>
  <speed>4.536794022214365</speed>
  <fix>3d</fix>
</trkpt>
<trkpt lat="-35.3668302" lon="149.1658494">
  <ele>609.97</ele>
  <time>2026-08-27T18:28:00Z</time>
  <course>35.51</course>
  <speed>4.61</speed>
  <fix>3d</fix>
</trkpt>
<trkpt lat="-35.3668191" lon="149.1658575">
  <ele>610.11</ele>
  <time>2026-08-27T18:28:00Z</time>
  <course>30.17</course>
  <speed>4.427640455140864</speed>
  <fix>3d</fix>
</trkpt>
<trkpt lat="-35.3668234" lon="149.1658548">
  <ele>609.96</ele>
  <time>2026-08-27T18:28:00Z</time>
  <course>29.91</course>
  <speed>4.45</speed>
  <fix>3d</fix>
</trkpt>
<trkpt lat="-35.3668118" lon="149.1658613">
  <ele>610.1</ele>
  <time>2026-08-27T18:28:00Z</time>
  <course>23.95</course>
  <speed>4.3999659089588405</speed>
  <fix>3d</fix>
</trkpt>
<trkpt lat="-35.3668164" lon="149.1658592">
  <ele>609.96</ele>
  <time>2026-08-27T18:28:00Z</time>
  <course>23.77</course>
  <speed>4.37</speed>
  <fix>3d</fix>
</trkpt>
<trkpt lat="-35.3668042" lon="149.1658641">
  <ele>610.09</ele>
  <time>2026-08-27T18:28:00Z</time>
  <course>17.43</course>
  <speed>4.462869032360237</speed>
  <fix>3d</fix>
</trkpt>
<trkpt lat="-35.366809" lon="149.1658626">
  <ele>609.95</ele>
  <time>2026-08-27T18:28:00Z</time>
  <course>17.36</course>
  <speed>4.38</speed>
  <fix>3d</fix>
</trkpt>
<trkpt lat="-35.3667963" lon="149.1658659">
  <ele>610.09</ele>
  <time>2026-08-27T18:28:00Z</time>
  <course>11.02</course>
  <speed>4.631684358848301</speed>
  <fix>3d</fix>
</trkpt>
<trkpt lat="-35.3668013" lon="149.165865">
  <ele>609.95</ele>
  <time>2026-08-27T18:28:00Z</time>
  <course>11.11</course>
  <speed>4.48</speed>
  <fix>3d</fix>
</trkpt>
<trkpt lat="-35.3667879" lon="149.1658668">
  <ele>610.08</ele>
  <time>2026-08-27T18:28:00Z</time>
  <course>5.17</course>
  <speed>4.885898075072791</speed>
  <fix>3d</fix>
</trkpt>
<trkpt lat="-35.3667931" lon="149.1658665">
  <ele>609.94</ele>
  <time>2026-08-27T18:28:00Z</time>
  <course>5.51</course>
  <speed>4.68</speed>
  <fix>3d</fix>
</trkpt>
<trkpt lat="-35.3667789" lon="149.165867">
  <ele>610.07</ele>
  <time>2026-08-27T18:28:00Z</time>
  <course>0.15</course>
  <speed>5.200778787835529</speed>
  <fix>3d</fix>
</trkpt>
<trkpt lat="-35.3667845" lon="149.165867">
  <ele>609.94</ele>
  <time>2026-08-27T18:28:00Z</time>
  <course>0.87</course>
  <speed>4.96</speed>
  <fix>3d</fix>
</trkpt>
<trkpt lat="-35.3667693" lon="149.1658664">
  <ele>610.07</ele>
  <time>2026-08-27T18:28:00Z</time>
  <course>356.13</course>
  <speed>5.563685828657115</speed>
  <fix>3d</fix>
</trkpt>
<trkpt lat="-35.3667753" lon="149.1658668">
  <ele>609.93</ele>
  <time>2026-08-27T18:28:00Z</time>
  <course>357.27</course>
  <speed>5.31</speed>
  <fix>3d</fix>
</trkpt>
<trkpt lat="-35.3667591" lon="149.1658652">
  <ele>610.07</ele>
  <time>2026-08-27T18:28:00Z</time>
  <course>353.1</course>
  <speed>5.943483826847685</speed>
  <fix>3d</fix>
</trkpt>
<trkpt lat="-35.3667654" lon="149.1658661">
  <ele>609.93</ele>
  <time>2026-08-27T18:28:00Z</time>
  <course>354.61</course>
  <speed>5.69</speed>
  <fix>3d</fix>
</trkpt>
<trkpt lat="-35.3667482" lon="149.1658637">
  <ele>610.07</ele>
  <time>2026-08-27T18:28:00Z</time>
  <course>350.96</course>
  <speed>6.324697621230599</speed>
  <fix>3d</fix>
</trkpt>
<trkpt lat="-35.3667549" lon="149.1658646">
  <ele>609.93</ele>
  <time>2026-08-27T18:28:00Z</time>
  <course>352.76</course>
  <speed>6.08</speed>
  <fix>3d</fix>
</trkpt>
<trkpt lat="-35.3667367" lon="149.1658616">
  <ele>610.08</ele>
  <time>2026-08-27T18:28:00Z</time>
  <course>349.51</course>
  <speed>6.711929677819934</speed>
  <fix>3d</fix>
</trkpt>
<trkpt lat="-35.3667437" lon="149.1658627">
  <ele>609.93</ele>
  <time>2026-08-27T18:28:00Z</time>
  <course>351.59</course>
  <speed>6.48</speed>
  <fix>3d</fix>
</trkpt>
<trkpt lat="-35.3667245" lon="149.1658593">
  <ele>610.09</ele>
  <time>2026-08-27T18:28:00Z</time>
  <course>348.52</course>
  <speed>7.112474956019177</speed>
  <fix>3d</fix>
</trkpt>
<trkpt lat="-35.3667319" lon="149.1658605">
  <ele>609.94</ele>
  <time>2026-08-27T18:28:00Z</time>
  <course>350.96</course>
  <speed>6.88</speed>
  <fix>3d</fix>
</trkpt>
<trkpt lat="-35.3667114" lon="149.1658567">
  <ele>610.09</ele>
  <time>2026-08-27T18:28:00Z</time>
  <course>347.87</course>
  <speed>7.5283530735480255</speed>
  <fix>3d</fix>
</trkpt>
<trkpt lat="-35.3667193" lon="149.165858">
  <ele>609.95</ele>
  <time>2026-08-27T18:28:00Z</time>
  <course>350.73</course>
  <speed>7.29</speed>
  <fix>3d</fix>
</trkpt>
<trkpt lat="-35.3666977" lon="149.165854">
  <ele>610.1</ele>
  <time>2026-08-27T18:28:00Z</time>
  <course>347.47</course>
  <speed>7.959459780663509</speed>
  <fix>3d</fix>
</trkpt>
<trkpt lat="-35.366706" lon="149.1658553">
  <ele>609.95</ele>
  <time>2026-08-27T18:28:00Z</time>
  <course>350.81</course>
  <speed>7.71</speed>
  <fix>3d</fix>
</trkpt>
<trkpt lat="-35.3666831" lon="149.1658512">
  <ele>610.1</ele>
  <time>2026-08-27T18:28:00Z</time>
  <course>347.21</course>
  <speed>8.417422408314792</speed>
  <fix>3d</fix>
</trkpt>
<trkpt lat="-35.3666919" lon="149.1658526">
  <ele>609.96</ele>
  <time>2026-08-27T18:28:00Z</time>
  <course>351.11</course>
  <speed>8.16</speed>
  <fix>3d</fix>
</trkpt>
<trkpt lat="-35.3666676" lon="149.1658485">
  <ele>610.1</ele>
  <time>2026-08-27T18:28:00Z</time>
  <course>347.15</course>
  <speed>8.881441324469808</speed>
  <fix>3d</fix>
</trkpt>
<trkpt lat="-35.3666769" lon="149.1658498">
  <ele>609.95</ele>
  <time>2026-08-27T18:28:00Z</time>
  <course>351.56</course>
  <speed>8.61</speed>
  <fix>3d</fix>
</trkpt>
<trkpt lat="-35.3666514" lon="149.1658457">
  <ele>610.08</ele>
  <time>2026-08-27T18:28:00Z</time>
  <course>347.26</course>
  <speed>9.374561323070003</speed>
  <fix>3d</fix>
</trkpt>
<trkpt lat="-35.3666611" lon="149.1658469">
  <ele>609.94</ele>
  <time>2026-08-27T18:28:00Z</time>
  <course>352.1</course>
  <speed>9.09</speed>
  <fix>3d</fix>
</trkpt>
<trkpt lat="-35.3666342" lon="149.165843">
  <ele>610.07</ele>
  <time>2026-08-27T18:28:00Z</time>
  <course>347.33</course>
  <speed>9.869594723188992</speed>
  <fix>3d</fix>
</trkpt>
<trkpt lat="-35.3666446" lon="149.1658442">
  <ele>609.94</ele>
  <time>2026-08-27T18:28:00Z</time>
  <course>352.64</course>
  <speed>9.59</speed>
  <fix>3d</fix>
</trkpt>
<trkpt lat="-35.3666161" lon="149.1658403">
  <ele>610.07</ele>
  <time>2026-08-27T18:28:00Z</time>
  <course>347.23</course>
  <speed>10.377306972427867</speed>
  <fix>3d</fix>
</trkpt>
<trkpt lat="-35.3666271" lon="149.1658416">
  <ele>609.93</ele>
  <time>2026-08-27T18:28:00Z</time>
  <course>353.07</course>
  <speed>10.09</speed>
  <fix>3d</fix>
</trkpt>
<trkpt lat="-35.3665971" lon="149.1658376">
  <ele>610.07</ele>
  <time>2026-08-27T18:28:00Z</time>
  <course>347.04</course>
  <speed>10.857633259601284</speed>
  <fix>3d</fix>
</trkpt>
<trkpt lat="-35.3666086" lon="149.1658389">
  <ele>609.93</ele>
  <time>2026-08-27T18:28:00Z</time>
  <course>353.35</course>
  <speed>10.59</speed>
  <fix>3d</fix>
</trkpt>
<trkpt lat="-35.3665774" lon="149.1658348">
  <ele>610.09</ele>
  <time>2026-08-27T18:28:00Z</time>
  <course>346.99</course>
  <speed>11.300464592219207</speed>
  <fix>3d</fix>
</trkpt>
<trkpt lat="-35.3665893" lon="149.1658362">
  <ele>609.93</ele>
  <time>2026-08-27T18:28:00Z</time>
  <course>353.47</course>
  <speed>11.06</speed>
  <fix>3d</fix>
</trkpt>
<trkpt lat="-35.3665569" lon="149.1658319">
  <ele>610.11</ele>
  <time>2026-08-27T18:28:00Z</time>
  <course>347.21</course>
  <speed>11.684797815965837</speed>
  <fix>3d</fix>
</trkpt>
<trkpt lat="-35.3665691" lon="149.1658333">
  <ele>609.94</ele>
  <time>2026-08-27T18:28:00Z</time>
  <course>353.49</course>
  <speed>11.49</speed>
  <fix>3d</fix>
</trkpt>
<trkpt lat="-35.3665356" lon="149.1658288">
  <ele>610.14</ele>
  <time>2026-08-27T18:28:00Z</time>
  <course>347.7</course>
  <speed>11.998470735889637</speed>
  <fix>3d</fix>
</trkpt>
<trkpt lat="-35.3665483" lon="149.1658304">
  <ele>609.95</ele>
  <time>2026-08-27T18:28:00Z</time>
  <course>353.45</course>
  <speed>11.86</speed>
  <fix>3d</fix>
</trkpt>
<trkpt lat="-35.3665138" lon="149.1658257">
  <ele>610.18</ele>
  <time>2026-08-27T18:28:00Z</time>
  <course>348.35</course>
  <speed>12.261341688412406</speed>
  <fix>3d</fix>
</trkpt>
<trkpt lat="-35.3665268" lon="149.1658273">
  <ele>609.98</ele>
  <time>2026-08-27T18:28:00Z</time>
  <course>353.41</course>
  <speed>12.16</speed>
  <fix>3d</fix>
</trkpt>
<trkpt lat="-35.3664917" lon="149.1658225">
  <ele>610.21</ele>
  <time>2026-08-27T18:28:00Z</time>
  <course>349.04</course>
  <speed>12.473399696955116</speed>
  <fix>3d</fix>
</trkpt>
<trkpt lat="-35.3665048" lon="149.1658243">
  <ele>610.01</ele>
  <time>2026-08-27T18:28:00Z</time>
  <course>353.39</course>
  <speed>12.41</speed>
  <fix>3d</fix>
</trkpt>
<trkpt lat="-35.3664692" lon="149.1658193">
  <ele>610.23</ele>
  <time>2026-08-27T18:28:00Z</time>
  <course>349.69</course>
  <speed>12.633487246204034</speed>
  <fix>3d</fix>
</trkpt>
<trkpt lat="-35.3664824" lon="149.1658211">
  <ele>610.04</ele>
  <time>2026-08-27T18:28:00Z</time>
  <course>353.39</course>
  <speed>12.6</speed>
  <fix>3d</fix>
</trkpt>
<trkpt lat="-35.3664466" lon="149.1658161">
  <ele>610.26</ele>
  <time>2026-08-27T18:28:00Z</time>
  <course>350.25</course>
  <speed>12.754991179926389</speed>
  <fix>3d</fix>
</trkpt>
<trkpt lat="-35.3664598" lon="149.1658178">
  <ele>610.07</ele>
  <time>2026-08-27T18:28:00Z</time>
  <course>353.39</course>
  <speed>12.76</speed>
  <fix>3d</fix>
</trkpt>
<trkpt lat="-35.3664237" lon="149.1658128">
  <ele>610.28</ele>
  <time>2026-08-27T18:28:00Z</time>
  <course>350.74</course>
  <speed>12.845543974468344</speed>
  <fix>3d</fix>
</trkpt>
<trkpt lat="-35.366437" lon="149.1658146">
  <ele>610.1</ele>
  <time>2026-08-27T18:28:00Z</time>
  <course>353.39</course>
  <speed>12.87</speed>
  <fix>3d</fix>
</trkpt>
<trkpt lat="-35.3664006" lon="149.1658095">
  <ele>610.3</ele>
  <time>2026-08-27T18:28:00Z</time>
  <course>351.22</course>
  <speed>12.907455210071426</speed>
  <fix>3d</fix>
</trkpt>
<trkpt lat="-35.3664139" lon="149.1658113">
  <ele>610.12</ele>
  <time>2026-08-27T18:28:00Z</time>
  <course>353.38</course>
  <speed>12.95</speed>
  <fix>3d</fix>
</trkpt>
<trkpt lat="-35.3663775" lon="149.1658062">
  <ele>610.32</ele>
  <time>2026-08-27T18:28:00Z</time>
  <course>351.69</course>
  <speed>12.928484056531918</speed>
  <fix>3d</fix>
</trkpt>
<trkpt lat="-35.3663908" lon="149.165808">
  <ele>610.14</ele>
  <time>2026-08-27T18:28:00Z</time>
  <course>353.36</course>
  <speed>13.0</speed>
  <fix>3d</fix>
</trkpt>
<trkpt lat="-35.3663544" lon="149.1658028">
  <ele>610.34</ele>
  <time>2026-08-27T18:28:00Z</time>
  <course>352.15</course>
  <speed>12.919725229276358</speed>
  <fix>3d</fix>
</trkpt>
<trkpt lat="-35.3663675" lon="149.1658047">
  <ele>610.15</ele>
  <time>2026-08-27T18:28:00Z</time>
  <course>353.32</course>
  <speed>13.01</speed>
  <fix>3d</fix>
</trkpt>
<trkpt lat="-35.3663314" lon="149.1657995">
  <ele>610.35</ele>
  <time>2026-08-27T18:28:00Z</time>
  <course>352.64</course>
  <speed>12.87125867970961</speed>
  <fix>3d</fix>
</trkpt>
<trkpt lat="-35.3663443" lon="149.1658014">
  <ele>610.17</ele>
  <time>2026-08-27T18:28:00Z</time>
  <course>353.26</course>
  <speed>12.98</speed>
  <fix>3d</fix>
</trkpt>
<trkpt lat="-35.3663084" lon="149.1657961">
  <ele>610.36</ele>
  <time>2026-08-27T18:28:00Z</time>
  <course>353.03</course>
  <speed>12.801757691817167</speed>
  <fix>3d</fix>
</trkpt>
<trkpt lat="-35.3663212" lon="149.165798">
  <ele>610.18</ele>
  <time>2026-08-27T18:28:00Z</time>
  <course>353.2</course>
  <speed>12.93</speed>
  <fix>3d</fix>
</trkpt>
<trkpt lat="-35.3662853" lon="149.1657927">
  <ele>610.36</ele>
  <time>2026-08-27T18:28:00Z</time>
  <course>353.2</course>
  <speed>12.743394367279073</speed>
  <fix>3d</fix>
</trkpt>
<trkpt lat="-35.3662982" lon="149.1657947">
  <ele>610.19</ele>
  <time>2026-08-27T18:28:00Z</time>
  <course>353.13</course>
  <speed>12.86</speed>
  <fix>3d</fix>
</trkpt>
<trkpt lat="-35.3662624" lon="149.1657893">
  <ele>610.34</ele>
  <time>2026-08-27T18:28:00Z</time>
  <course>353.12</course>
  <speed>12.706128442605955</speed>
  <fix>3d</fix>
</trkpt>
<trkpt lat="-35.3662753" lon="149.1657912">
  <ele>610.18</ele>
  <time>2026-08-27T18:28:00Z</time>
  <course>353.05</course>
  <speed>12.8</speed>
  <fix>3d</fix>
</trkpt>
<trkpt lat="-35.3662396" lon="149.1657858">
  <ele>610.31</ele>
  <time>2026-08-27T18:28:00Z</time>
  <course>352.83</course>
  <speed>12.690003940109712</speed>
  <fix>3d</fix>
</trkpt>
<trkpt lat="-35.3662525" lon="149.1657878">
  <ele>610.16</ele>
  <time>2026-08-27T18:28:00Z</time>
  <course>352.93</course>
  <speed>12.76</speed>
  <fix>3d</fix>
</trkpt>
<trkpt lat="-35.3662168" lon="149.1657822">
  <ele>610.28</ele>
  <time>2026-08-27T18:28:00Z</time>
  <course>352.4</course>
  <speed>12.696365621704503</speed>
  <fix>3d</fix>
</trkpt>
<trkpt lat="-35.3662297" lon="149.1657843">
  <ele>610.13</ele>
  <time>2026-08-27T18:28:00Z</time>
  <course>352.76</course>
  <speed>12.73</speed>
  <fix>3d</fix>
</trkpt>
<trkpt lat="-35.3661941" lon="149.1657786">
  <ele>610.25</ele>
  <time>2026-08-27T18:28:00Z</time>
  <course>351.92</course>
  <speed>12.702920923945012</speed>
  <fix>3d</fix>
</trkpt>
<trkpt lat="-35.366207" lon="149.1657807">
  <ele>610.1</ele>
  <time>2026-08-27T18:28:00Z</time>
  <course>352.54</course>
  <speed>12.73</speed>
  <fix>3d</fix>
</trkpt>
<trkpt lat="-35.3661714" lon="149.1657748">
  <ele>610.23</ele>
  <time>2026-08-27T18:28:00Z</time>
  <course>351.44</course>
  <speed>12.730852288829682</speed>
  <fix>3d</fix>
</trkpt>
<trkpt lat="-35.3661843" lon="149.165777">
  <ele>610.08</ele>
  <time>2026-08-27T18:28:00Z</time>
  <course>352.28</course>
  <speed>12.74</speed>
  <fix>3d</fix>
</trkpt>
<trkpt lat="-35.3661486" lon="149.1657708">
  <ele>610.22</ele>
  <time>2026-08-27T18:28:00Z</time>
  <course>351.0</course>
  <speed>12.760458455713886</speed>
  <fix>3d</fix>
</trkpt>
<trkpt lat="-35.3661617" lon="149.1657732">
  <ele>610.06</ele>
  <time>2026-08-27T18:28:00Z</time>
  <course>352.0</course>
  <speed>12.76</speed>
  <fix>3d</fix>
</trkpt>
<trkpt lat="-35.3661258" lon="149.1657668">
  <ele>610.21</ele>
  <time>2026-08-27T18:28:01Z</time>
  <course>350.62</course>
  <speed>12.787470430073338</speed>
  <fix>3d</fix>
</trkpt>
<trkpt lat="-35.3661389" lon="149.1657692">
  <ele>610.04</ele>
  <time>2026-08-27T18:28:01Z</time>
  <course>351.74</course>
  <speed>12.78</speed>
  <fix>3d</fix>
</trkpt>
<trkpt lat="-35.3661031" lon="149.1657626">
  <ele>610.2</ele>
  <time>2026-08-27T18:28:01Z</time>
  <course>350.29</course>
  <speed>12.824538978068567</speed>
  <fix>3d</fix>
</trkpt>
<trkpt lat="-35.3661161" lon="149.165765">
  <ele>610.03</ele>
  <time>2026-08-27T18:28:01Z</time>
  <course>351.5</course>
  <speed>12.81</speed>
  <fix>3d</fix>
</trkpt>
<trkpt lat="-35.3660803" lon="149.1657584">
  <ele>610.21</ele>
  <time>2026-08-27T18:28:01Z</time>
  <course>349.99</course>
  <speed>12.860237167330936</speed>
  <fix>3d</fix>
</trkpt>
<trkpt lat="-35.3660933" lon="149.1657609">
  <ele>610.03</ele>
  <time>2026-08-27T18:28:01Z</time>
  <course>351.31</course>
  <speed>12.85</speed>
  <fix>3d</fix>
</trkpt>
<trkpt lat="-35.3660573" lon="149.165754">
  <ele>610.21</ele>
  <time>2026-08-27T18:28:01Z</time>
  <course>349.76</course>
  <speed>12.904363603060787</speed>
  <fix>3d</fix>
</trkpt>
<trkpt lat="-35.3660706" lon="149.1657566">
  <ele>610.03</ele>
  <time>2026-08-27T18:28:01Z</time>
  <course>351.15</course>
  <speed>12.88</speed>
  <fix>3d</fix>
</trkpt>
<trkpt lat="-35.3660342" lon="149.1657495">
  <ele>610.21</ele>
  <time>2026-08-27T18:28:01Z</time>
  <course>349.6</course>
  <speed>12.948532735410604</speed>
  <fix>3d</fix>
</trkpt>
<trkpt lat="-35.3660476" lon="149.1657521">
  <ele>610.03</ele>
  <time>2026-08-27T18:28:01Z</time>
  <course>351.04</course>
  <speed>12.92</speed>
  <fix>3d</fix>
</trkpt>
<trkpt lat="-35.3660112" lon="149.1657451">
  <ele>610.21</ele>
  <time>2026-08-27T18:28:01Z</time>
  <course>349.54</course>
  <speed>12.98960353513532</speed>
  <fix>3d</fix>
</trkpt>
<trkpt lat="-35.3660246" lon="149.1657477">
  <ele>610.03</ele>
  <time>2026-08-27T18:28:01Z</time>
  <course>350.97</course>
  <speed>12.96</speed>
  <fix>3d</fix>
</trkpt>
<trkpt lat="-35.365988" lon="149.1657406">
  <ele>610.21</ele>
  <time>2026-08-27T18:28:01Z</time>
  <course>349.55</course>
  <speed>13.019235768661693</speed>
  <fix>3d</fix>
</trkpt>
<trkpt lat="-35.3660016" lon="149.1657432">
  <ele>610.03</ele>
  <time>2026-08-27T18:28:01Z</time>
  <course>350.95</course>
  <speed>13.0</speed>
  <fix>3d</fix>
</trkpt>
<trkpt lat="-35.3659648" lon="149.1657361">
  <ele>610.21</ele>
  <time>2026-08-27T18:28:01Z</time>
  <course>349.61</course>
  <speed>13.057197249027068</speed>
  <fix>3d</fix>
</trkpt>
<trkpt lat="-35.3659785" lon="149.1657386">
  <ele>610.03</ele>
  <time>2026-08-27T18:28:01Z</time>
  <course>350.97</course>
  <speed>13.03</speed>
  <fix>3d</fix>
</trkpt>
<trkpt lat="-35.3659417" lon="149.1657316">
  <ele>610.21</ele>
  <time>2026-08-27T18:28:01Z</time>
  <course>349.73</course>
  <speed>13.075415863367404</speed>
  <fix>3d</fix>
</trkpt>
<trkpt lat="-35.3659552" lon="149.1657341">
  <ele>610.04</ele>
  <time>2026-08-27T18:28:01Z</time>
  <course>351.04</course>
  <speed>13.06</speed>
  <fix>3d</fix>
</trkpt>
<trkpt lat="-35.3659185" lon="149.1657272">
  <ele>610.22</ele>
  <time>2026-08-27T18:28:01Z</time>
  <course>349.89</course>
  <speed>13.10049235715971</speed>
  <fix>3d</fix>
</trkpt>
<trkpt lat="-35.365932" lon="149.1657297">
  <ele>610.04</ele>
  <time>2026-08-27T18:28:01Z</time>
  <course>351.14</course>
  <speed>13.09</speed>
  <fix>3d</fix>
</trkpt>
<trkpt lat="-35.3658953" lon="149.1657229">
  <ele>610.22</ele>
  <time>2026-08-27T18:28:01Z</time>
  <course>350.08</course>
  <speed>13.115769134900171</speed>
  <fix>3d</fix>
</trkpt>
<trkpt lat="-35.3659088" lon="149.1657253">
  <ele>610.05</ele>
  <time>2026-08-27T18:28:01Z</time>
  <course>351.27</course>
  <speed>13.11</speed>
  <fix>3d</fix>
</trkpt>
<trkpt lat="-35.3658721" lon="149.1657186">
  <ele>610.23</ele>
  <time>2026-08-27T18:28:01Z</time>
  <course>350.28</course>
  <speed>13.1296686934591</speed>
  <fix>3d</fix>
</trkpt>
<trkpt lat="-35.3658855" lon="149.1657209">
  <ele>610.06</ele>
  <time>2026-08-27T18:28:01Z</time>
  <course>351.42</course>
  <speed>13.12</speed>
  <fix>3d</fix>
</trkpt>
<trkpt lat="-35.3658488" lon="149.1657144">
  <ele>610.24</ele>
  <time>2026-08-27T18:28:01Z</time>
  <course>350.49</course>
  <speed>13.145132178871386</speed>
  <fix>3d</fix>
</trkpt>
<trkpt lat="-35.3658622" lon="149.1657167">
  <ele>610.06</ele>
  <time>2026-08-27T18:28:01Z</time>
  <course>351.59</course>
  <speed>13.14</speed>
  <fix>3d</fix>
</trkpt>
<trkpt lat="-35.3658255" lon="149.1657103">
  <ele>610.24</ele>
  <time>2026-08-27T18:28:01Z</time>
  <course>350.69</course>
  <speed>13.149372608607607</speed>
  <fix>3d</fix>
</trkpt>
<trkpt lat="-35.3658389" lon="149.1657124">
  <ele>610.07</ele>
  <time>2026-08-27T18:28:01Z</time>
  <course>351.76</course>
  <speed>13.16</speed>
  <fix>3d</fix>
</trkpt>
<trkpt lat="-35.3658019" lon="149.1657062">
  <ele>610.24</ele>
  <time>2026-08-27T18:28:01Z</time>
  <course>350.92</course>
  <speed>13.163646911095725</speed>
  <fix>3d</fix>
</trkpt>
<trkpt lat="-35.3658154" lon="149.1657084">
  <ele>610.07</ele>
  <time>2026-08-27T18:28:01Z</time>
  <course>351.93</course>
  <speed>13.17</speed>
  <fix>3d</fix>
</trkpt>
<trkpt lat="-35.3657784" lon="149.1657022">
  <ele>610.25</ele>
  <time>2026-08-27T18:28:01Z</time>
  <course>351.16</course>
  <speed>13.169487461552935</speed>
  <fix>3d</fix>
</trkpt>
<trkpt lat="-35.365792" lon="149.1657043">
  <ele>610.07</ele>
  <time>2026-08-27T18:28:01Z</time>
  <course>352.09</course>
  <speed>13.17</speed>
  <fix>3d</fix>
</trkpt>
<trkpt lat="-35.3657548" lon="149.1656983">
  <ele>610.25</ele>
  <time>2026-08-27T18:28:01Z</time>
  <course>351.45</course>
  <speed>13.165488976866754</speed>
  <fix>3d</fix>
</trkpt>
<trkpt lat="-35.3657685" lon="149.1657004">
  <ele>610.07</ele>
  <time>2026-08-27T18:28:01Z</time>
  <course>352.24</course>
  <speed>13.17</speed>
  <fix>3d</fix>
</trkpt>
<trkpt lat="-35.3657314" lon="149.1656944">
  <ele>610.26</ele>
  <time>2026-08-27T18:28:01Z</time>
  <course>351.75</course>
  <speed>13.151642482975273</speed>
  <fix>3d</fix>
</trkpt>
<trkpt lat="-35.365745" lon="149.1656965">
  <ele>610.08</ele>
  <time>2026-08-27T18:28:01Z</time>
  <course>352.38</course>
  <speed>13.16</speed>
  <fix>3d</fix>
</trkpt>
<trkpt lat="-35.365708" lon="149.1656907">
  <ele>610.26</ele>
  <time>2026-08-27T18:28:01Z</time>
  <course>352.03</course>
  <speed>13.127939670793737</speed>
  <fix>3d</fix>
</trkpt>
<trkpt lat="-35.3657216" lon="149.1656927">
  <ele>610.08</ele>
  <time>2026-08-27T18:28:01Z</time>
  <course>352.5</course>
  <speed>13.14</speed>
  <fix>3d</fix>
</trkpt>
<trkpt lat="-35.3656846" lon="149.1656869">
  <ele>610.26</ele>
  <time>2026-08-27T18:28:01Z</time>
  <course>352.23</course>
  <speed>13.094372837215229</speed>
  <fix>3d</fix>
</trkpt>
<trkpt lat="-35.3656982" lon="149.1656889">
  <ele>610.09</ele>
  <time>2026-08-27T18:28:01Z</time>
  <course>352.61</course>
  <speed>13.12</speed>
  <fix>3d</fix>
</trkpt>
<trkpt lat="-35.3656613" lon="149.1656833">
  <ele>610.26</ele>
  <time>2026-08-27T18:28:01Z</time>
  <course>352.38</course>
  <speed>13.07202356179027</speed>
  <fix>3d</fix>
</trkpt>
<trkpt lat="-35.3656748" lon="149.1656853">
  <ele>610.09</ele>
  <time>2026-08-27T18:28:01Z</time>
  <course>352.7</course>
  <speed>13.09</speed>
  <fix>3d</fix>
</trkpt>
<trkpt lat="-35.365638" lon="149.1656797">
  <ele>610.26</ele>
  <time>2026-08-27T18:28:01Z</time>
  <course>352.46</course>
  <speed>13.041012230651422</speed>
  <fix>3d</fix>
</trkpt>
<trkpt lat="-35.3656515" lon="149.1656816">
  <ele>610.08</ele>
  <time>2026-08-27T18:28:01Z</time>
  <course>352.76</course>
  <speed>13.07</speed>
  <fix>3d</fix>
</trkpt>
<trkpt lat="-35.3656149" lon="149.1656761">
  <ele>610.26</ele>
  <time>2026-08-27T18:28:01Z</time>
  <course>352.49</course>
  <speed>13.021167382381659</speed>
  <fix>3d</fix>
</trkpt>
<trkpt lat="-35.3656283" lon="149.165678">
  <ele>610.08</ele>
  <time>2026-08-27T18:28:01Z</time>
  <course>352.8</course>
  <speed>13.05</speed>
  <fix>3d</fix>
</trkpt>
<trkpt lat="-35.3655917" lon="149.1656725">
  <ele>610.26</ele>
  <time>2026-08-27T18:28:01Z</time>
  <course>352.46</course>
  <speed>13.011245136419495</speed>
  <fix>3d</fix>
</trkpt>
<trkpt lat="-35.365605" lon="149.1656744">
  <ele>610.07</ele>
  <time>2026-08-27T18:28:01Z</time>
  <course>352.8</course>
  <speed>13.03</speed>
  <fix>3d</fix>
</trkpt>
<trkpt lat="-35.3655684" lon="149.1656689">
  <ele>610.26</ele>
  <time>2026-08-27T18:28:01Z</time>
  <course>352.38</course>
  <speed>12.992651769365636</speed>
  <fix>3d</fix>
</trkpt>
<trkpt lat="-35.3655818" lon="149.1656707">
  <ele>610.07</ele>
  <time>2026-08-27T18:28:01Z</time>
  <course>352.77</course>
  <speed>13.01</speed>
  <fix>3d</fix>
</trkpt>
<trkpt lat="-35.3655452" lon="149.1656652">
  <ele>610.25</ele>
  <time>2026-08-27T18:28:01Z</time>
  <course>352.35</course>
  <speed>12.974070294244592</speed>
  <fix>3d</fix>
</trkpt>
<trkpt lat="-35.3655586" lon="149.1656671">
  <ele>610.06</ele>
  <time>2026-08-27T18:28:01Z</time>
  <course>352.72</course>
  <speed>12.99</speed>
  <fix>3d</fix>
</trkpt>
<trkpt lat="-35.3655219" lon="149.1656615">
  <ele>610.25</ele>
  <time>2026-08-27T18:28:01Z</time>
  <course>352.29</course>
  <speed>12.966695801166928</speed>
  <fix>3d</fix>
</trkpt>
<trkpt lat="-35.3655355" lon="149.1656635">
  <ele>610.06</ele>
  <time>2026-08-27T18:28:01Z</time>
  <course>352.64</course>
  <speed>12.98</speed>
  <fix>3d</fix>
</trkpt>
<trkpt lat="-35.3654988" lon="149.1656578">
  <ele>610.24</ele>
  <time>2026-08-27T18:28:01Z</time>
  <course>352.22</course>
  <speed>12.948146585515628</speed>
  <fix>3d</fix>
</trkpt>
<trkpt lat="-35.3655123" lon="149.1656598">
  <ele>610.05</ele>
  <time>2026-08-27T18:28:01Z</time>
  <course>352.56</course>
  <speed>12.96</speed>
  <fix>3d</fix>
</trkpt>
<trkpt lat="-35.3654757" lon="149.165654">
  <ele>610.24</ele>
  <time>2026-08-27T18:28:01Z</time>
  <course>352.15</course>
  <speed>12.93091257413799</speed>
  <fix>3d</fix>
</trkpt>
<trkpt lat="-35.3654892" lon="149.1656561">
  <ele>610.05</ele>
  <time>2026-08-27T18:28:01Z</time>
  <course>352.48</course>
  <speed>12.94</speed>
  <fix>3d</fix>
</trkpt>
<trkpt lat="-35.3654526" lon="149.1656503">
  <ele>610.24</ele>
  <time>2026-08-27T18:28:01Z</time>
  <course>352.04</course>
  <speed>12.923629521152328</speed>
  <fix>3d</fix>
</trkpt>
<trkpt lat="-35.3654662" lon="149.1656524">
  <ele>610.05</ele>
  <time>2026-08-27T18:28:01Z</time>
  <course>352.39</course>
  <speed>12.93</speed>
  <fix>3d</fix>
</trkpt>
<trkpt lat="-35.3654296" lon="149.1656464">
  <ele>610.24</ele>
  <time>2026-08-27T18:28:01Z</time>
  <course>351.91</course>
  <speed>12.916381072111491</speed>
  <fix>3d</fix>
</trkpt>
<trkpt lat="-35.3654432" lon="149.1656486">
  <ele>610.05</ele>
  <time>2026-08-27T18:28:01Z</time>
  <course>352.3</course>
  <speed>12.91</speed>
  <fix>3d</fix>
</trkpt>
<trkpt lat="-35.3654066" lon="149.1656426">
  <ele>610.24</ele>
  <time>2026-08-27T18:28:01Z</time>
  <course>351.79</course>
  <speed>12.907815461959471</speed>
  <fix>3d</fix>
</trkpt>
<trkpt lat="-35.3654202" lon="149.1656448">
  <ele>610.04</ele>
  <time>2026-08-27T18:28:01Z</time>
  <course>352.21</course>
  <speed>12.9</speed>
  <fix>3d</fix>
</trkpt>
<trkpt lat="-35.3653837" lon="149.1656387">
  <ele>610.24</ele>
  <time>2026-08-27T18:28:01Z</time>
  <course>351.69</course>
  <speed>12.900620140132798</speed>
  <fix>3d</fix>
</trkpt>
<trkpt lat="-35.3653973" lon="149.1656409">
  <ele>610.04</ele>
  <time>2026-08-27T18:28:01Z</time>
  <course>352.12</course>
  <speed>12.9</speed>
  <fix>3d</fix>
</trkpt>
<trkpt lat="-35.3653607" lon="149.1656348">
  <ele>610.24</ele>
  <time>2026-08-27T18:28:01Z</time>
  <course>351.56</course>
  <speed>12.903363902486824</speed>
  <fix>3d</fix>
</trkpt>
<trkpt lat="-35.3653743" lon="149.165637">
  <ele>610.04</ele>
  <time>2026-08-27T18:28:01Z</time>
  <course>352.04</course>
  <speed>12.89</speed>
  <fix>3d</fix>
</trkpt>
<trkpt lat="-35.3653376" lon="149.1656308">
  <ele>610.24</ele>
  <time>2026-08-27T18:28:01Z</time>
  <course>351.44</course>
  <speed>12.904747188534923</speed>
  <fix>3d</fix>
</trkpt>
<trkpt lat="-35.3653513" lon="149.165633">
  <ele>610.03</ele>
  <time>2026-08-27T18:28:01Z</time>
  <course>351.97</course>
  <speed>12.89</speed>
  <fix>3d</fix>
</trkpt>
<trkpt lat="-35.3653146" lon="149.1656268">
  <ele>610.24</ele>
  <time>2026-08-27T18:28:01Z</time>
  <course>351.33</course>
  <speed>12.906138074575212</speed>
  <fix>3d</fix>
</trkpt>
<trkpt lat="-35.3653284" lon="149.1656291">
  <ele>610.03</ele>
  <time>2026-08-27T18:28:01Z</time>
  <course>351.91</course>
  <speed>12.9</speed>
  <fix>3d</fix>
</trkpt>
<trkpt lat="-35.3652917" lon="149.1656228">
  <ele>610.23</ele>
  <time>2026-08-27T18:28:01Z</time>
  <course>351.25</course>
  <speed>12.907536558150824</speed>
  <fix>3d</fix>
</trkpt>
<trkpt lat="-35.3653054" lon="149.165625">
  <ele>610.03</ele>
  <time>2026-08-27T18:28:01Z</time>
  <course>351.86</course>
  <speed>12.9</speed>
  <fix>3d</fix>
</trkpt>
<trkpt lat="-35.3652687" lon="149.1656187">
  <ele>610.23</ele>
  <time>2026-08-27T18:28:01Z</time>
  <course>351.17</course>
  <speed>12.91884282743621</speed>
  <fix>3d</fix>
</trkpt>
<trkpt lat="-35.3652824" lon="149.1656209">
  <ele>610.02</ele>
  <time>2026-08-27T18:28:01Z</time>
  <course>351.83</course>
  <speed>12.91</speed>
  <fix>3d</fix>
</trkpt>
<trkpt lat="-35.3652458" lon="149.1656147">
  <ele>610.23</ele>
  <time>2026-08-27T18:28:01Z</time>
  <course>351.1</course>
  <speed>12.92874317170853</speed>
  <fix>3d</fix>
</trkpt>
<trkpt lat="-35.3652595" lon="149.1656169">
  <ele>610.02</ele>
  <time>2026-08-27T18:28:01Z</time>
  <course>351.8</course>
  <speed>12.93</speed>
  <fix>3d</fix>
</trkpt>
<trkpt lat="-35.3652229" lon="149.1656106">
  <ele>610.22</ele>
  <time>2026-08-27T18:28:01Z</time>
  <course>351.01</course>
  <speed>12.948544319729535</speed>
  <fix>3d</fix>
</trkpt>
<trkpt lat="-35.3652364" lon="149.1656128">
  <ele>610.01</ele>
  <time>2026-08-27T18:28:01Z</time>
  <course>351.8</course>
  <speed>12.95</speed>
  <fix>3d</fix>
</trkpt>
<trkpt lat="-35.3651999" lon="149.1656066">
  <ele>610.22</ele>
  <time>2026-08-27T18:28:01Z</time>
  <course>350.97</course>
  <speed>12.968346078047116</speed>
  <fix>3d</fix>
</trkpt>
<trkpt lat="-35.3652134" lon="149.1656088">
  <ele>610.01</ele>
  <time>2026-08-27T18:28:01Z</time>
  <course>351.8</course>
  <speed>12.97</speed>
  <fix>3d</fix>
</trkpt>
<trkpt lat="-35.3651769" lon="149.1656025">
  <ele>610.21</ele>
  <time>2026-08-27T18:28:01Z</time>
  <course>350.92</course>
  <speed>12.988148443869896</speed>
  <fix>3d</fix>
</trkpt>
<trkpt lat="-35.3651903" lon="149.1656047">
  <ele>610.01</ele>
  <time>2026-08-27T18:28:01Z</time>
  <course>351.82</course>
  <speed>12.99</speed>
  <fix>3d</fix>
</trkpt>
<trkpt lat="-35.3651538" lon="149.1655985">
  <ele>610.21</ele>
  <time>2026-08-27T18:28:01Z</time>
  <course>350.97</course>
  <speed>13.00795141442341</speed>
  <fix>3d</fix>
</trkpt>
<trkpt lat="-35.3651672" lon="149.1656007">
  <ele>610.01</ele>
  <time>2026-08-27T18:28:01Z</time>
  <course>351.84</course>
  <speed>13.01</speed>
  <fix>3d</fix>
</trkpt>
<trkpt lat="-35.3651308" lon="149.1655945">
  <ele>610.22</ele>
  <time>2026-08-27T18:28:01Z</time>
  <course>351.01</course>
  <speed>13.026361733039659</speed>
  <fix>3d</fix>
</trkpt>
<trkpt lat="-35.365144" lon="149.1655966">
  <ele>610.01</ele>
  <time>2026-08-27T18:28:01Z</time>
  <course>351.88</course>
  <speed>13.03</speed>
  <fix>3d</fix>
</trkpt>
<trkpt lat="-35.3651076" lon="149.1655904">
  <ele>610.22</ele>
  <time>2026-08-27T18:28:01Z</time>
  <course>351.07</course>
  <speed>13.03488012986694</speed>
  <fix>3d</fix>
</trkpt>
<trkpt lat="-35.3651209" lon="149.1655926">
  <ele>610.01</ele>
  <time>2026-08-27T18:28:01Z</time>
  <course>351.93</course>
  <speed>13.05</speed>
  <fix>3d</fix>
</trkpt>
<trkpt lat="-35.3650842" lon="149.1655864">
  <ele>610.22</ele>
  <time>2026-08-27T18:28:01Z</time>
  <course>351.14</course>
  <speed>13.053313755518175</speed>
  <fix>3d</fix>
</trkpt>
<trkpt lat="-35.3650976" lon="149.1655885">
  <ele>610.02</ele>
  <time>2026-08-27T18:28:01Z</time>
  <course>351.98</course>
  <speed>13.07</speed>
  <fix>3d</fix>
</trkpt>
<trkpt lat="-35.365061" lon="149.1655824">
  <ele>610.22</ele>
  <time>2026-08-27T18:28:01Z</time>
  <course>351.25</course>
  <speed>13.061852854782892</speed>
  <fix>3d</fix>
</trkpt>
<trkpt lat="-35.3650744" lon="149.1655846">
  <ele>610.02</ele>
  <time>2026-08-27T18:28:01Z</time>
  <course>352.04</course>
  <speed>13.08</speed>
  <fix>3d</fix>
</trkpt>
<trkpt lat="-35.3650376" lon="149.1655785">
  <ele>610.23</ele>
  <time>2026-08-27T18:28:01Z</time>
  <course>351.36</course>
  <speed>13.07040167707175</speed>
  <fix>3d</fix>
</trkpt>
<trkpt lat="-35.3650511" lon="149.1655806">
  <ele>610.02</ele>
  <time>2026-08-27T18:28:01Z</time>
  <course>352.09</course>
  <speed>13.09</speed>
  <fix>3d</fix>
</trkpt>
<trkpt lat="-35.3650143" lon="149.1655745">
  <ele>610.24</ele>
  <time>2026-08-27T18:28:01Z</time>
  <course>351.51</course>
  <speed>13.077618284687773</speed>
  <fix>3d</fix>
</trkpt>
<trkpt lat="-35.3650277" lon="149.1655766">
  <ele>610.03</ele>
  <time>2026-08-27T18:28:01Z</time>
  <course>352.15</course>
  <speed>13.1</speed>
  <fix>3d</fix>
</trkpt>
<trkpt lat="-35.3649909" lon="149.1655706">
  <ele>610.24</ele>
  <time>2026-08-27T18:28:01Z</time>
  <course>351.65</course>
  <speed>13.066372870846754</speed>
  <fix>3d</fix>
</trkpt>
<trkpt lat="-35.3650043" lon="149.1655727">
  <ele>610.03</ele>
  <time>2026-08-27T18:28:01Z</time>
  <course>352.22</course>
  <speed>13.1</speed>
  <fix>3d</fix>
</trkpt>
<trkpt lat="-35.3649676" lon="149.1655667">
  <ele>610.24</ele>
  <time>2026-08-27T18:28:01Z</time>
  <course>351.83</course>
  <speed>13.063724583747165</speed>
  <fix>3d</fix>
</trkpt>
<trkpt lat="-35.364981" lon="149.1655688">
  <ele>610.04</ele>
  <time>2026-08-27T18:28:01Z</time>
  <course>352.28</course>
  <speed>13.09</speed>
  <fix>3d</fix>
</trkpt>
<trkpt lat="-35.3649443" lon="149.1655629">
  <ele>610.24</ele>
  <time>2026-08-27T18:28:01Z</time>
  <course>351.96</course>
  <speed>13.04258409978636</speed>
  <fix>3d</fix>
</trkpt>
<trkpt lat="-35.3649577" lon="149.1655649">
  <ele>610.05</ele>
  <time>2026-08-27T18:28:01Z</time>
  <course>352.34</course>
  <speed>13.07</speed>
  <fix>3d</fix>
</trkpt>
<trkpt lat="-35.364921" lon="149.1655591">
  <ele>610.24</ele>
  <time>2026-08-27T18:28:01Z</time>
  <course>352.07</course>
  <speed>13.031362169781023</speed>
  <fix>3d</fix>
</trkpt>
<trkpt lat="-35.3649344" lon="149.1655611">
  <ele>610.05</ele>
  <time>2026-08-27T18:28:01Z</time>
  <course>352.4</course>
  <speed>13.06</speed>
  <fix>3d</fix>
</trkpt>
<trkpt lat="-35.3648978" lon="149.1655553">
  <ele>610.24</ele>
  <time>2026-08-27T18:28:01Z</time>
  <course>352.14</course>
  <speed>13.020145928521693</speed>
  <fix>3d</fix>
</trkpt>
<trkpt lat="-35.3649112" lon="149.1655573">
  <ele>610.05</ele>
  <time>2026-08-27T18:28:01Z</time>
  <course>352.44</course>
  <speed>13.04</speed>
  <fix>3d</fix>
</trkpt>
<trkpt lat="-35.3648746" lon="149.1655516">
  <ele>610.24</ele>
  <time>2026-08-27T18:28:01Z</time>
  <course>352.2</course>
  <speed>12.999019193769966</speed>
  <fix>3d</fix>
</trkpt>
<trkpt lat="-35.3648881" lon="149.1655535">
  <ele>610.06</ele>
  <time>2026-08-27T18:28:01Z</time>
  <course>352.48</course>
  <speed>13.03</speed>
  <fix>3d</fix>
</trkpt>
<trkpt lat="-35.3648513" lon="149.1655478">
  <ele>610.24</ele>
  <time>2026-08-27T18:28:01Z</time>
  <course>352.23</course>
  <speed>12.989103125312386</speed>
  <fix>3d</fix>
</trkpt>
<trkpt lat="-35.3648649" lon="149.1655498">
  <ele>610.06</ele>
  <time>2026-08-27T18:28:01Z</time>
  <course>352.5</course>
  <speed>13.01</speed>
  <fix>3d</fix>
</trkpt>
<trkpt lat="-35.364828" lon="149.165544">
  <ele>610.24</ele>
  <time>2026-08-27T18:28:01Z</time>
  <course>352.22</course>
  <speed>12.979187185644562</speed>
  <fix>3d</fix>
</trkpt>
<trkpt lat="-35.3648417" lon="149.1655461">
  <ele>610.06</ele>
  <time>2026-08-27T18:28:01Z</time>
  <course>352.51</course>
  <speed>12.99</speed>
  <fix>3d</fix>
</trkpt>
<trkpt lat="-35.3648048" lon="149.1655403">
  <ele>610.24</ele>
  <time>2026-08-27T18:28:01Z</time>
  <course>352.22</course>
  <speed>12.95935569386071</speed>
  <fix>3d</fix>
</trkpt>
<trkpt lat="-35.3648185" lon="149.1655423">
  <ele>610.05</ele>
  <time>2026-08-27T18:28:01Z</time>
  <course>352.5</course>
  <speed>12.98</speed>
  <fix>3d</fix>
</trkpt>
<trkpt lat="-35.3647817" lon="149.1655365">
  <ele>610.23</ele>
  <time>2026-08-27T18:28:01Z</time>
  <course>352.21</course>
  <speed>12.9494401423382</speed>
  <fix>3d</fix>
</trkpt>
<trkpt lat="-35.3647953" lon="149.1655386">
  <ele>610.05</ele>
  <time>2026-08-27T18:28:01Z</time>
  <course>352.48</course>
  <speed>12.96</speed>
  <fix>3d</fix>
</trkpt>
<trkpt lat="-35.3647586" lon="149.1655328">
  <ele>610.23</ele>
  <time>2026-08-27T18:28:01Z</time>
  <course>352.17</course>
  <speed>12.940826866935513</speed>
  <fix>3d</fix>
</trkpt>
<trkpt lat="-35.3647723" lon="149.1655348">
  <ele>610.05</ele>
  <time>2026-08-27T18:28:01Z</time>
  <course>352.45</course>
  <speed>12.95</speed>
  <fix>3d</fix>
</trkpt>
<trkpt lat="-35.3647355" lon="149.165529">
  <ele>610.23</ele>
  <time>2026-08-27T18:28:01Z</time>
  <course>352.09</course>
  <speed>12.932223320063724</speed>
  <fix>3d</fix>
</trkpt>
<trkpt lat="-35.3647492" lon="149.165531">
  <ele>610.05</ele>
  <time>2026-08-27T18:28:01Z</time>
  <course>352.41</course>
  <speed>12.94</speed>
  <fix>3d</fix>
</trkpt>
<trkpt lat="-35.3647124" lon="149.1655252">
  <ele>610.23</ele>
  <time>2026-08-27T18:28:01Z</time>
  <course>352.05</course>
  <speed>12.923629521152328</speed>
  <fix>3d</fix>
</trkpt>
<trkpt lat="-35.3647262" lon="149.1655273">
  <ele>610.05</ele>
  <time>2026-08-27T18:28:01Z</time>
  <course>352.36</course>
  <speed>12.93</speed>
  <fix>3d</fix>
</trkpt>
<trkpt lat="-35.3646894" lon="149.1655214">
  <ele>610.24</ele>
  <time>2026-08-27T18:28:01Z</time>
  <course>352.0</course>
  <speed>12.9150454896605</speed>
  <fix>3d</fix>
</trkpt>
<trkpt lat="-35.3647032" lon="149.1655236">
  <ele>610.06</ele>
  <time>2026-08-27T18:28:01Z</time>
  <course>352.31</course>
  <speed>12.92</speed>
  <fix>3d</fix>
</trkpt>
<trkpt lat="-35.3646663" lon="149.1655175">
  <ele>610.24</ele>
  <time>2026-08-27T18:28:01Z</time>
  <course>351.96</course>
  <speed>12.906471245077022</speed>
  <fix>3d</fix>
</trkpt>
<trkpt lat="-35.3646801" lon="149.1655197">
  <ele>610.06</ele>
  <time>2026-08-27T18:28:01Z</time>
  <course>352.26</course>
  <speed>12.91</speed>
  <fix>3d</fix>
</trkpt>
<trkpt lat="-35.3646434" lon="149.1655137">
  <ele>610.24</ele>
  <time>2026-08-27T18:28:01Z</time>
  <course>351.88</course>
  <speed>12.907815461959471</speed>
  <fix>3d</fix>
</trkpt>
<trkpt lat="-35.3646571" lon="149.1655159">
  <ele>610.06</ele>
  <time>2026-08-27T18:28:01Z</time>
  <course>352.22</course>
  <speed>12.91</speed>
  <fix>3d</fix>
</trkpt>
<trkpt lat="-35.3646204" lon="149.1655098">
  <ele>610.23</ele>
  <time>2026-08-27T18:28:01Z</time>
  <course>351.78</course>
  <speed>12.909167285305433</speed>
  <fix>3d</fix>
</trkpt>
<trkpt lat="-35.3646342" lon="149.165512">
  <ele>610.05</ele>
  <time>2026-08-27T18:28:01Z</time>
  <course>352.17</course>
  <speed>12.91</speed>
  <fix>3d</fix>
</trkpt>
<trkpt lat="-35.3645972" lon="149.1655059">
  <ele>610.23</ele>
  <time>2026-08-27T18:28:01Z</time>
  <course>351.65</course>
  <speed>12.920433429262348</speed>
  <fix>3d</fix>
</trkpt>
<trkpt lat="-35.3646112" lon="149.1655081">
  <ele>610.05</ele>
  <time>2026-08-27T18:28:01Z</time>
  <course>352.13</course>
  <speed>12.91</speed>
  <fix>3d</fix>
</trkpt>
<trkpt lat="-35.3645742" lon="149.165502">
  <ele>610.22</ele>
  <time>2026-08-27T18:28:01Z</time>
  <course>351.57</course>
  <speed>12.921799410298862</speed>
  <fix>3d</fix>
</trkpt>
<trkpt lat="-35.3645883" lon="149.1655042">
  <ele>610.05</ele>
  <time>2026-08-27T18:28:01Z</time>
  <course>352.08</course>
  <speed>12.92</speed>
  <fix>3d</fix>
</trkpt>
<trkpt lat="-35.3645511" lon="149.165498">
  <ele>610.22</ele>
  <time>2026-08-27T18:28:01Z</time>
  <course>351.49</course>
  <speed>12.933077746615458</speed>
  <fix>3d</fix>
</trkpt>
<trkpt lat="-35.3645652" lon="149.1655003">
  <ele>610.05</ele>
  <time>2026-08-27T18:28:01Z</time>
  <course>352.04</course>
  <speed>12.93</speed>
  <fix>3d</fix>
</trkpt>
<trkpt lat="-35.3645282" lon="149.1654941">
  <ele>610.22</ele>
  <time>2026-08-27T18:28:01Z</time>
  <course>351.45</course>
  <speed>12.933077746615458</speed>
  <fix>3d</fix>
</trkpt>
<trkpt lat="-35.3645422" lon="149.1654963">
  <ele>610.05</ele>
  <time>2026-08-27T18:28:01Z</time>
  <course>352.01</course>
  <speed>12.93</speed>
  <fix>3d</fix>
</trkpt>
<trkpt lat="-35.3645052" lon="149.1654901">
  <ele>610.22</ele>
  <time>2026-08-27T18:28:01Z</time>
  <course>351.41</course>
  <speed>12.944361706936345</speed>
  <fix>3d</fix>
</trkpt>
<trkpt lat="-35.3645191" lon="149.1654924">
  <ele>610.05</ele>
  <time>2026-08-27T18:28:01Z</time>
  <course>351.99</course>
  <speed>12.94</speed>
  <fix>3d</fix>
</trkpt>
<trkpt lat="-35.3644822" lon="149.1654861">
  <ele>610.22</ele>
  <time>2026-08-27T18:28:01Z</time>
  <course>351.4</course>
  <speed>12.944361706936345</speed>
  <fix>3d</fix>
</trkpt>
<trkpt lat="-35.364496" lon="149.1654883">
  <ele>610.05</ele>
  <time>2026-08-27T18:28:01Z</time>
  <course>351.98</course>
  <speed>12.95</speed>
  <fix>3d</fix>
</trkpt>
<trkpt lat="-35.3644592" lon="149.1654822">
  <ele>610.22</ele>
  <time>2026-08-27T18:28:01Z</time>
  <course>351.35</course>
  <speed>12.964169853870322</speed>
  <fix>3d</fix>
</trkpt>
<trkpt lat="-35.364473" lon="149.1654844">
  <ele>610.05</ele>
  <time>2026-08-27T18:28:01Z</time>
  <course>351.98</course>
  <speed>12.97</speed>
  <fix>3d</fix>
</trkpt>
<trkpt lat="-35.3644362" lon="149.1654782">
  <ele>610.22</ele>
  <time>2026-08-27T18:28:01Z</time>
  <course>351.29</course>
  <speed>12.97407414808471</speed>
  <fix>3d</fix>
</trkpt>
<trkpt lat="-35.3644499" lon="149.1654804">
  <ele>610.05</ele>
  <time>2026-08-27T18:28:01Z</time>
  <course>351.98</course>
  <speed>12.98</speed>
  <fix>3d</fix>
</trkpt>
<trkpt lat="-35.3644132" lon="149.1654742">
  <ele>610.22</ele>
  <time>2026-08-27T18:28:01Z</time>
  <course>351.29</course>
  <speed>12.9938831763257</speed>
  <fix>3d</fix>
</trkpt>
<trkpt lat="-35.3644268" lon="149.1654765">
  <ele>610.05</ele>
  <time>2026-08-27T18:28:01Z</time>
  <course>351.99</course>
  <speed>13.0</speed>
  <fix>3d</fix>
</trkpt>
<trkpt lat="-35.3643901" lon="149.1654702">
  <ele>610.22</ele>
  <time>2026-08-27T18:28:01Z</time>
  <course>351.32</course>
  <speed>13.003787909682316</speed>
  <fix>3d</fix>
</trkpt>
<trkpt lat="-35.3644036" lon="149.1654725">
  <ele>610.05</ele>
  <time>2026-08-27T18:28:01Z</time>
  <course>352.0</course>
  <speed>13.02</speed>
  <fix>3d</fix>
</trkpt>
<trkpt lat="-35.3643668" lon="149.1654663">
  <ele>610.22</ele>
  <time>2026-08-27T18:28:01Z</time>
  <course>351.33</course>
  <speed>13.02222715206581</speed>
  <fix>3d</fix>
</trkpt>
<trkpt lat="-35.3643805" lon="149.1654684">
  <ele>610.05</ele>
  <time>2026-08-27T18:28:01Z</time>
  <course>352.02</course>
  <speed>13.03</speed>
  <fix>3d</fix>
</trkpt>
<trkpt lat="-35.3643435" lon="149.1654623">
  <ele>610.22</ele>
  <time>2026-08-27T18:28:01Z</time>
  <course>351.38</course>
  <speed>13.032133363344622</speed>
  <fix>3d</fix>
</trkpt>
<trkpt lat="-35.3643573" lon="149.1654644">
  <ele>610.06</ele>
  <time>2026-08-27T18:28:01Z</time>
  <course>352.05</course>
  <speed>13.04</speed>
  <fix>3d</fix>
</trkpt>
<trkpt lat="-35.3643202" lon="149.1654583">
  <ele>610.23</ele>
  <time>2026-08-27T18:28:01Z</time>
  <course>351.43</course>
  <speed>13.040678663321168</speed>
  <fix>3d</fix>
</trkpt>
<trkpt lat="-35.364334" lon="149.1654605">
  <ele>610.06</ele>
  <time>2026-08-27T18:28:01Z</time>
  <course>352.07</course>
  <speed>13.05</speed>
  <fix>3d</fix>
</trkpt>
<trkpt lat="-35.3642969" lon="149.1654543">
  <ele>610.23</ele>
  <time>2026-08-27T18:28:01Z</time>
  <course>351.53</course>
  <speed>13.040678663321168</speed>
  <fix>3d</fix>
</trkpt>
<trkpt lat="-35.3643108" lon="149.1654566">
  <ele>610.06</ele>
  <time>2026-08-27T18:28:01Z</time>
  <course>352.11</course>
  <speed>13.06</speed>
  <fix>3d</fix>
</trkpt>
<trkpt lat="-35.3642737" lon="149.1654504">
  <ele>610.24</ele>
  <time>2026-08-27T18:28:01Z</time>
  <course>351.67</course>
  <speed>13.039325135910984</speed>
  <fix>3d</fix>
</trkpt>
<trkpt lat="-35.3642875" lon="149.1654526">
  <ele>610.07</ele>
  <time>2026-08-27T18:28:01Z</time>
  <course>352.15</course>
  <speed>13.06</speed>
  <fix>3d</fix>
</trkpt>
<trkpt lat="-35.3642505" lon="149.1654465">
  <ele>610.24</ele>
  <time>2026-08-27T18:28:01Z</time>
  <course>351.78</course>
  <speed>13.028069695852873</speed>
  <fix>3d</fix>
</trkpt>
<trkpt lat="-35.3642643" lon="149.1654487">
  <ele>610.08</ele>
  <time>2026-08-27T18:28:01Z</time>
  <course>352.19</course>
  <speed>13.05</speed>
  <fix>3d</fix>
</trkpt>
<trkpt lat="-35.3642272" lon="149.1654426">
  <ele>610.25</ele>
  <time>2026-08-27T18:28:01Z</time>
  <course>351.87</course>
  <speed>13.026730211376915</speed>
  <fix>3d</fix>
</trkpt>
<trkpt lat="-35.3642411" lon="149.1654448">
  <ele>610.08</ele>
  <time>2026-08-27T18:28:01Z</time>
  <course>352.23</course>
  <speed>13.05</speed>
  <fix>3d</fix>
</trkpt>
<trkpt lat="-35.364204" lon="149.1654388">
  <ele>610.25</ele>
  <time>2026-08-27T18:28:01Z</time>
  <course>351.94</course>
  <speed>13.015486929039573</speed>
  <fix>3d</fix>
</trkpt>
<trkpt lat="-35.3642179" lon="149.1654409">
  <ele>610.09</ele>
  <time>2026-08-27T18:28:01Z</time>
  <course>352.28</course>
  <speed>13.04</speed>
  <fix>3d</fix>
</trkpt>
<trkpt lat="-35.3641809" lon="149.165435">
  <ele>610.25</ele>
  <time>2026-08-27T18:28:01Z</time>
  <course>351.99</course>
  <speed>13.004249305515486</speed>
  <fix>3d</fix>
</trkpt>
<trkpt lat="-35.3641947" lon="149.1654371">
  <ele>610.09</ele>
  <time>2026-08-27T18:28:01Z</time>
  <course>352.31</course>
  <speed>13.03</speed>
  <fix>3d</fix>
</trkpt>
<trkpt lat="-35.3641578" lon="149.1654311">
  <ele>610.24</ele>
  <time>2026-08-27T18:28:01Z</time>
  <course>352.01</course>
  <speed>13.00293043894337</speed>
  <fix>3d</fix>
</trkpt>
<trkpt lat="-35.3641715" lon="149.1654333">
  <ele>610.09</ele>
  <time>2026-08-27T18:28:01Z</time>
  <course>352.34</course>
  <speed>13.02</speed>
  <fix>3d</fix>
</trkpt>
<trkpt lat="-35.3641345" lon="149.1654273">
  <ele>610.24</ele>
  <time>2026-08-27T18:28:01Z</time>
  <course>351.99</course>
  <speed>12.993017355487522</speed>
  <fix>3d</fix>
</trkpt>
<trkpt lat="-35.3641482" lon="149.1654294">
  <ele>610.08</ele>
  <time>2026-08-27T18:28:01Z</time>
  <course>352.35</course>
  <speed>13.02</speed>
  <fix>3d</fix>
</trkpt>
<trkpt lat="-35.3641112" lon="149.1654235">
  <ele>610.24</ele>
  <time>2026-08-27T18:28:01Z</time>
  <course>352.0</course>
  <speed>12.993017355487522</speed>
  <fix>3d</fix>
</trkpt>
<trkpt lat="-35.364125" lon="149.1654256">
  <ele>610.08</ele>
  <time>2026-08-27T18:28:01Z</time>
  <course>352.37</course>
  <speed>13.01</speed>
  <fix>3d</fix>
</trkpt>
<trkpt lat="-35.364088" lon="149.1654197">
  <ele>610.25</ele>
  <time>2026-08-27T18:28:01Z</time>
  <course>352.02</course>
  <speed>12.983104405341583</speed>
  <fix>3d</fix>
</trkpt>
<trkpt lat="-35.3641018" lon="149.1654218">
  <ele>610.08</ele>
  <time>2026-08-27T18:28:01Z</time>
  <course>352.37</course>
  <speed>13.01</speed>
  <fix>3d</fix>
</trkpt>
<trkpt lat="-35.3640649" lon="149.1654159">
  <ele>610.25</ele>
  <time>2026-08-27T18:28:01Z</time>
  <course>352.07</course>
  <speed>12.973191588811135</speed>
  <fix>3d</fix>
</trkpt>
<trkpt lat="-35.3640787" lon="149.165418">
  <ele>610.08</ele>
  <time>2026-08-27T18:28:01Z</time>
  <course>352.36</course>
  <speed>13.0</speed>
  <fix>3d</fix>
</trkpt>
<trkpt lat="-35.3640419" lon="149.1654121">
  <ele>610.26</ele>
  <time>2026-08-27T18:28:01Z</time>
  <course>352.08</course>
  <speed>12.963278906202705</speed>
  <fix>3d</fix>
</trkpt>
<trkpt lat="-35.3640555" lon="149.1654141">
  <ele>610.08</ele>
  <time>2026-08-27T18:28:01Z</time>
  <course>352.35</course>
  <speed>12.99</speed>
  <fix>3d</fix>
</trkpt>
<trkpt lat="-35.3640188" lon="149.1654083">
  <ele>610.25</ele>
  <time>2026-08-27T18:28:01Z</time>
  <course>352.04</course>
  <speed>12.963278906202705</speed>
  <fix>3d</fix>
</trkpt>
<trkpt lat="-35.3640324" lon="149.1654103">
  <ele>610.08</ele>
  <time>2026-08-27T18:28:01Z</time>
  <course>352.34</course>
  <speed>12.99</speed>
  <fix>3d</fix>
</trkpt>
<trkpt lat="-35.3639958" lon="149.1654045">
  <ele>610.25</ele>
  <time>2026-08-27T18:28:01Z</time>
  <course>352.0</course>
  <speed>12.954690270322947</speed>
  <fix>3d</fix>
</trkpt>
<trkpt lat="-35.3640093" lon="149.1654065">
  <ele>610.07</ele>
  <time>2026-08-27T18:28:01Z</time>
  <course>352.33</course>
  <speed>12.98</speed>
  <fix>3d</fix>
</trkpt>
<trkpt lat="-35.3639727" lon="149.1654006">
  <ele>610.24</ele>
  <time>2026-08-27T18:28:01Z</time>
  <course>351.91</course>
  <speed>12.964601806457459</speed>
  <fix>3d</fix>
</trkpt>
<trkpt lat="-35.3639861" lon="149.1654027">
  <ele>610.07</ele>
  <time>2026-08-27T18:28:01Z</time>
  <course>352.31</course>
  <speed>12.98</speed>
  <fix>3d</fix>
</trkpt>
<trkpt lat="-35.3639496" lon="149.1653968">
  <ele>610.23</ele>
  <time>2026-08-27T18:28:01Z</time>
  <course>351.84</course>
  <speed>12.965932284259393</speed>
  <fix>3d</fix>
</trkpt>
<trkpt lat="-35.363963" lon="149.1653989">
  <ele>610.06</ele>
  <time>2026-08-27T18:28:01Z</time>
  <course>352.28</course>
  <speed>12.99</speed>
  <fix>3d</fix>
</trkpt>
<trkpt lat="-35.3639266" lon="149.1653929">
  <ele>610.23</ele>
  <time>2026-08-27T18:28:01Z</time>
  <course>351.8</course>
  <speed>12.967270337276076</speed>
  <fix>3d</fix>
</trkpt>
<trkpt lat="-35.3639399" lon="149.165395">
  <ele>610.06</ele>
  <time>2026-08-27T18:28:01Z</time>
  <course>352.25</course>
  <speed>12.99</speed>
  <fix>3d</fix>
</trkpt>
<trkpt lat="-35.3639035" lon="149.1653891">
  <ele>610.23</ele>
  <time>2026-08-27T18:28:01Z</time>
  <course>351.75</course>
  <speed>12.978524569457038</speed>
  <fix>3d</fix>
</trkpt>
<trkpt lat="-35.3639168" lon="149.1653912">
  <ele>610.06</ele>
  <time>2026-08-27T18:28:01Z</time>
  <course>352.22</course>
  <speed>13.0</speed>
  <fix>3d</fix>
</trkpt>
<trkpt lat="-35.3638802" lon="149.1653851">
  <ele>610.23</ele>
  <time>2026-08-27T18:28:01Z</time>
  <course>351.72</course>
  <speed>12.97987673285074</speed>
  <fix>3d</fix>
</trkpt>
<trkpt lat="-35.3638936" lon="149.1653873">
  <ele>610.06</ele>
  <time>2026-08-27T18:28:01Z</time>
  <course>352.19</course>
  <speed>13.0</speed>
  <fix>3d</fix>
</trkpt>
<trkpt lat="-35.363857" lon="149.1653812">
  <ele>610.24</ele>
  <time>2026-08-27T18:28:02Z</time>
  <course>351.71</course>
  <speed>12.97987673285074</speed>
  <fix>3d</fix>
</trkpt>
<trkpt lat="-35.3638705" lon="149.1653834">
  <ele>610.06</ele>
  <time>2026-08-27T18:28:02Z</time>
  <course>352.16</course>
  <speed>13.01</speed>
  <fix>3d</fix>
</trkpt>
<trkpt lat="-35.3638338" lon="149.1653773">
  <ele>610.23</ele>
  <time>2026-08-27T18:28:02Z</time>
  <course>351.72</course>
  <speed>12.991143136768219</speed>
  <fix>3d</fix>
</trkpt>
<trkpt lat="-35.3638472" lon="149.1653795">
  <ele>610.06</ele>
  <time>2026-08-27T18:28:02Z</time>
  <course>352.14</course>
  <speed>13.01</speed>
  <fix>3d</fix>
</trkpt>
<trkpt lat="-35.3638106" lon="149.1653734">
  <ele>610.24</ele>
  <time>2026-08-27T18:28:02Z</time>
  <course>351.72</course>
  <speed>12.981236458827796</speed>
  <fix>3d</fix>
</trkpt>
<trkpt lat="-35.3638241" lon="149.1653756">
  <ele>610.06</ele>
  <time>2026-08-27T18:28:02Z</time>
  <course>352.12</course>
  <speed>13.0</speed>
  <fix>3d</fix>
</trkpt>
<trkpt lat="-35.3637875" lon="149.1653694">
  <ele>610.23</ele>
  <time>2026-08-27T18:28:02Z</time>
  <course>351.74</course>
  <speed>12.981236458827796</speed>
  <fix>3d</fix>
</trkpt>
<trkpt lat="-35.3638009" lon="149.1653716">
  <ele>610.07</ele>
  <time>2026-08-27T18:28:02Z</time>
  <course>352.11</course>
  <speed>13.0</speed>
  <fix>3d</fix>
</trkpt>
<trkpt lat="-35.3637643" lon="149.1653655">
  <ele>610.23</ele>
  <time>2026-08-27T18:28:02Z</time>
  <course>351.77</course>
  <speed>12.981236458827796</speed>
  <fix>3d</fix>
</trkpt>
<trkpt lat="-35.3637778" lon="149.1653677">
  <ele>610.07</ele>
  <time>2026-08-27T18:28:02Z</time>
  <course>352.11</course>
  <speed>12.99</speed>
  <fix>3d</fix>
</trkpt>
<trkpt lat="-35.3637412" lon="149.1653616">
  <ele>610.23</ele>
  <time>2026-08-27T18:28:02Z</time>
  <course>351.77</course>
  <speed>12.971329924105701</speed>
  <fix>3d</fix>
</trkpt>
<trkpt lat="-35.3637547" lon="149.1653638">
  <ele>610.07</ele>
  <time>2026-08-27T18:28:02Z</time>
  <course>352.11</course>
  <speed>12.99</speed>
  <fix>3d</fix>
</trkpt>
<trkpt lat="-35.3637181" lon="149.1653577">
  <ele>610.23</ele>
  <time>2026-08-27T18:28:02Z</time>
  <course>351.77</course>
  <speed>12.969969159562408</speed>
  <fix>3d</fix>
</trkpt>
<trkpt lat="-35.3637316" lon="149.1653599">
  <ele>610.07</ele>
  <time>2026-08-27T18:28:02Z</time>
  <course>352.11</course>
  <speed>12.98</speed>
  <fix>3d</fix>
</trkpt>
<trkpt lat="-35.3636951" lon="149.1653538">
  <ele>610.24</ele>
  <time>2026-08-27T18:28:02Z</time>
  <course>351.78</course>
  <speed>12.960061728248057</speed>
  <fix>3d</fix>
</trkpt>
<trkpt lat="-35.3637085" lon="149.1653559">
  <ele>610.07</ele>
  <time>2026-08-27T18:28:02Z</time>
  <course>352.12</course>
  <speed>12.98</speed>
  <fix>3d</fix>
</trkpt>
<trkpt lat="-35.363672" lon="149.1653499">
  <ele>610.24</ele>
  <time>2026-08-27T18:28:02Z</time>
  <course>351.77</course>
  <speed>12.960061728248057</speed>
  <fix>3d</fix>
</trkpt>
<trkpt lat="-35.3636854" lon="149.165352">
  <ele>610.08</ele>
  <time>2026-08-27T18:28:02Z</time>
  <course>352.13</course>
  <speed>12.97</speed>
  <fix>3d</fix>
</trkpt>
<trkpt lat="-35.3636488" lon="149.1653459">
  <ele>610.24</ele>
  <time>2026-08-27T18:28:02Z</time>
  <course>351.76</course>
  <speed>12.960061728248057</speed>
  <fix>3d</fix>
</trkpt>
<trkpt lat="-35.3636623" lon="149.1653481">
  <ele>610.07</ele>
  <time>2026-08-27T18:28:02Z</time>
  <course>352.14</course>
  <speed>12.97</speed>
  <fix>3d</fix>
</trkpt>
<trkpt lat="-35.3636256" lon="149.165342">
  <ele>610.24</ele>
  <time>2026-08-27T18:28:02Z</time>
  <course>351.74</course>
  <speed>12.969969159562408</speed>
  <fix>3d</fix>
</trkpt>
<trkpt lat="-35.3636392" lon="149.1653442">
  <ele>610.07</ele>
  <time>2026-08-27T18:28:02Z</time>
  <course>352.15</course>
  <speed>12.97</speed>
  <fix>3d</fix>
</trkpt>
<trkpt lat="-35.3636025" lon="149.1653381">
  <ele>610.24</ele>
  <time>2026-08-27T18:28:02Z</time>
  <course>351.75</course>
  <speed>12.969969159562408</speed>
  <fix>3d</fix>
</trkpt>
<trkpt lat="-35.3636161" lon="149.1653403">
  <ele>610.07</ele>
  <time>2026-08-27T18:28:02Z</time>
  <course>352.16</course>
  <speed>12.98</speed>
  <fix>3d</fix>
</trkpt>
<trkpt lat="-35.3635794" lon="149.1653342">
  <ele>610.24</ele>
  <time>2026-08-27T18:28:02Z</time>
  <course>351.78</course>
  <speed>12.969969159562408</speed>
  <fix>3d</fix>
</trkpt>
<trkpt lat="-35.3635929" lon="149.1653364">
  <ele>610.07</ele>
  <time>2026-08-27T18:28:02Z</time>
  <course>352.17</course>
  <speed>12.98</speed>
  <fix>3d</fix>
</trkpt>
<trkpt lat="-35.3635562" lon="149.1653303">
  <ele>610.24</ele>
  <time>2026-08-27T18:28:02Z</time>
  <course>351.78</course>
  <speed>12.978524569457038</speed>
  <fix>3d</fix>
</trkpt>
<trkpt lat="-35.3635698" lon="149.1653325">
  <ele>610.07</ele>
  <time>2026-08-27T18:28:02Z</time>
  <course>352.17</course>
  <speed>12.98</speed>
  <fix>3d</fix>
</trkpt>
<trkpt lat="-35.3635331" lon="149.1653264">
  <ele>610.24</ele>
  <time>2026-08-27T18:28:02Z</time>
  <course>351.79</course>
  <speed>12.978524569457038</speed>
  <fix>3d</fix>
</trkpt>
<trkpt lat="-35.3635467" lon="149.1653286">
  <ele>610.07</ele>
  <time>2026-08-27T18:28:02Z</time>
  <course>352.19</course>
  <speed>12.98</speed>
  <fix>3d</fix>
</trkpt>
<trkpt lat="-35.36351" lon="149.1653225">
  <ele>610.24</ele>
  <time>2026-08-27T18:28:02Z</time>
  <course>351.82</course>
  <speed>12.96861596316276</speed>
  <fix>3d</fix>
</trkpt>
<trkpt lat="-35.3635236" lon="149.1653247">
  <ele>610.07</ele>
  <time>2026-08-27T18:28:02Z</time>
  <course>352.2</course>
  <speed>12.98</speed>
  <fix>3d</fix>
</trkpt>
<trkpt lat="-35.3634869" lon="149.1653187">
  <ele>610.24</ele>
  <time>2026-08-27T18:28:02Z</time>
  <course>351.85</course>
  <speed>12.96861596316276</speed>
  <fix>3d</fix>
</trkpt>
<trkpt lat="-35.3635005" lon="149.1653208">
  <ele>610.07</ele>
  <time>2026-08-27T18:28:02Z</time>
  <course>352.2</course>
  <speed>12.97</speed>
  <fix>3d</fix>
</trkpt>
<trkpt lat="-35.3634639" lon="149.1653148">
  <ele>610.24</ele>
  <time>2026-08-27T18:28:02Z</time>
  <course>351.87</course>
  <speed>12.967270337276076</speed>
  <fix>3d</fix>
</trkpt>
<trkpt lat="-35.3634775" lon="149.165317">
  <ele>610.07</ele>
  <time>2026-08-27T18:28:02Z</time>
  <course>352.21</course>
  <speed>12.97</speed>
  <fix>3d</fix>
</trkpt>
<trkpt lat="-35.363441" lon="149.165311">
  <ele>610.24</ele>
  <time>2026-08-27T18:28:02Z</time>
  <course>351.83</course>
  <speed>12.967270337276076</speed>
  <fix>3d</fix>
</trkpt>
<trkpt lat="-35.3634544" lon="149.1653131">
  <ele>610.07</ele>
  <time>2026-08-27T18:28:02Z</time>
  <course>352.22</course>
  <speed>12.97</speed>
  <fix>3d</fix>
</trkpt>
<trkpt lat="-35.363418" lon="149.1653071">
  <ele>610.23</ele>
  <time>2026-08-27T18:28:02Z</time>
  <course>351.76</course>
  <speed>12.977179971010651</speed>
  <fix>3d</fix>
</trkpt>
<trkpt lat="-35.3634313" lon="149.1653093">
  <ele>610.06</ele>
  <time>2026-08-27T18:28:02Z</time>
  <course>352.23</course>
  <speed>12.98</speed>
  <fix>3d</fix>
</trkpt>
<trkpt lat="-35.3633947" lon="149.1653032">
  <ele>610.22</ele>
  <time>2026-08-27T18:28:02Z</time>
  <course>351.7</course>
  <speed>12.988433315839137</speed>
  <fix>3d</fix>
</trkpt>
<trkpt lat="-35.3634081" lon="149.1653054">
  <ele>610.06</ele>
  <time>2026-08-27T18:28:02Z</time>
  <course>352.23</course>
  <speed>12.99</speed>
  <fix>3d</fix>
</trkpt>
<trkpt lat="-35.3633715" lon="149.1652993">
  <ele>610.22</ele>
  <time>2026-08-27T18:28:02Z</time>
  <course>351.68</course>
  <speed>12.998342201988683</speed>
  <fix>3d</fix>
</trkpt>
<trkpt lat="-35.363385" lon="149.1653015">
  <ele>610.06</ele>
  <time>2026-08-27T18:28:02Z</time>
  <course>352.23</course>
  <speed>13.0</speed>
  <fix>3d</fix>
</trkpt>
<trkpt lat="-35.3633482" lon="149.1652954">
  <ele>610.22</ele>
  <time>2026-08-27T18:28:02Z</time>
  <course>351.63</course>
  <speed>13.009600301315947</speed>
  <fix>3d</fix>
</trkpt>
<trkpt lat="-35.3633618" lon="149.1652976">
  <ele>610.06</ele>
  <time>2026-08-27T18:28:02Z</time>
  <course>352.22</course>
  <speed>13.01</speed>
  <fix>3d</fix>
</trkpt>
<trkpt lat="-35.363325" lon="149.1652915">
  <ele>610.23</ele>
  <time>2026-08-27T18:28:02Z</time>
  <course>351.64</course>
  <speed>13.009600301315947</speed>
  <fix>3d</fix>
</trkpt>
<trkpt lat="-35.3633386" lon="149.1652937">
  <ele>610.06</ele>
  <time>2026-08-27T18:28:02Z</time>
  <course>352.21</course>
  <speed>13.02</speed>
  <fix>3d</fix>
</trkpt>
<trkpt lat="-35.3633019" lon="149.1652877">
  <ele>610.24</ele>
  <time>2026-08-27T18:28:02Z</time>
  <course>351.74</course>
  <speed>12.989784447788193</speed>
  <fix>3d</fix>
</trkpt>
<trkpt lat="-35.3633155" lon="149.1652899">
  <ele>610.06</ele>
  <time>2026-08-27T18:28:02Z</time>
  <course>352.2</course>
  <speed>13.01</speed>
  <fix>3d</fix>
</trkpt>
<trkpt lat="-35.3632788" lon="149.1652838">
  <ele>610.26</ele>
  <time>2026-08-27T18:28:02Z</time>
  <course>352.03</course>
  <speed>12.928982945305481</speed>
  <fix>3d</fix>
</trkpt>
<trkpt lat="-35.3632923" lon="149.165286">
  <ele>610.08</ele>
  <time>2026-08-27T18:28:02Z</time>
  <course>352.19</course>
  <speed>12.98</speed>
  <fix>3d</fix>
</trkpt>
<trkpt lat="-35.3632559" lon="149.1652799">
  <ele>610.3</ele>
  <time>2026-08-27T18:28:02Z</time>
  <course>352.56</course>
  <speed>12.817289104955073</speed>
  <fix>3d</fix>
</trkpt>
<trkpt lat="-35.3632693" lon="149.1652821">
  <ele>610.1</ele>
  <time>2026-08-27T18:28:02Z</time>
  <course>352.21</course>
  <speed>12.9</speed>
  <fix>3d</fix>
</trkpt>
<trkpt lat="-35.3632333" lon="149.1652762">
  <ele>610.34</ele>
  <time>2026-08-27T18:28:02Z</time>
  <course>353.25</course>
  <speed>12.643456805794845</speed>
  <fix>3d</fix>
</trkpt>
<trkpt lat="-35.3632464" lon="149.1652782">
  <ele>610.13</ele>
  <time>2026-08-27T18:28:02Z</time>
  <course>352.25</course>
  <speed>12.78</speed>
  <fix>3d</fix>
</trkpt>
<trkpt lat="-35.363211" lon="149.1652725">
  <ele>610.38</ele>
  <time>2026-08-27T18:28:02Z</time>
  <course>354.01</course>
  <speed>12.428676518439122</speed>
  <fix>3d</fix>
</trkpt>
<trkpt lat="-35.3632238" lon="149.1652745">
  <ele>610.17</ele>
  <time>2026-08-27T18:28:02Z</time>
  <course>352.33</course>
  <speed>12.59</speed>
  <fix>3d</fix>
</trkpt>
<trkpt lat="-35.3631891" lon="149.1652689">
  <ele>610.42</ele>
  <time>2026-08-27T18:28:02Z</time>
  <course>354.77</course>
  <speed>12.151847596147675</speed>
  <fix>3d</fix>
</trkpt>
<trkpt lat="-35.3632015" lon="149.1652709">
  <ele>610.2</ele>
  <time>2026-08-27T18:28:02Z</time>
  <course>352.45</course>
  <speed>12.35</speed>
  <fix>3d</fix>
</trkpt>
<trkpt lat="-35.3631676" lon="149.1652655">
  <ele>610.45</ele>
  <time>2026-08-27T18:28:02Z</time>
  <course>355.49</course>
  <speed>11.835438310430247</speed>
  <fix>3d</fix>
</trkpt>
<trkpt lat="-35.3631798" lon="149.1652674">
  <ele>610.24</ele>
  <time>2026-08-27T18:28:02Z</time>
  <course>352.61</course>
  <speed>12.07</speed>
  <fix>3d</fix>
</trkpt>
<trkpt lat="-35.3631467" lon="149.1652623">
  <ele>610.48</ele>
  <time>2026-08-27T18:28:02Z</time>
  <course>356.16</course>
  <speed>11.468251828417442</speed>
  <fix>3d</fix>
</trkpt>
<trkpt lat="-35.3631586" lon="149.1652641">
  <ele>610.27</ele>
  <time>2026-08-27T18:28:02Z</time>
  <course>352.78</course>
  <speed>11.74</speed>
  <fix>3d</fix>
</trkpt>
<trkpt lat="-35.3631265" lon="149.1652592">
  <ele>610.49</ele>
  <time>2026-08-27T18:28:02Z</time>
  <course>356.74</course>
  <speed>11.061464640814977</speed>
  <fix>3d</fix>
</trkpt>
<trkpt lat="-35.363138" lon="149.1652609">
  <ele>610.28</ele>
  <time>2026-08-27T18:28:02Z</time>
  <course>352.96</course>
  <speed>11.36</speed>
  <fix>3d</fix>
</trkpt>
<trkpt lat="-35.363107" lon="149.1652563">
  <ele>610.5</ele>
  <time>2026-08-27T18:28:02Z</time>
  <course>357.24</course>
  <speed>10.615045925477666</speed>
  <fix>3d</fix>
</trkpt>
<trkpt lat="-35.3631181" lon="149.1652579">
  <ele>610.29</ele>
  <time>2026-08-27T18:28:02Z</time>
  <course>353.12</course>
  <speed>10.93</speed>
  <fix>3d</fix>
</trkpt>
<trkpt lat="-35.3630884" lon="149.1652536">
  <ele>610.49</ele>
  <time>2026-08-27T18:28:02Z</time>
  <course>357.65</course>
  <speed>10.110276949718044</speed>
  <fix>3d</fix>
</trkpt>
<trkpt lat="-35.363099" lon="149.1652551">
  <ele>610.3</ele>
  <time>2026-08-27T18:28:02Z</time>
  <course>353.25</course>
  <speed>10.46</speed>
  <fix>3d</fix>
</trkpt>
<trkpt lat="-35.3630708" lon="149.165251">
  <ele>610.48</ele>
  <time>2026-08-27T18:28:02Z</time>
  <course>357.97</course>
  <speed>9.574560042111596</speed>
  <fix>3d</fix>
</trkpt>
<trkpt lat="-35.3630808" lon="149.1652525">
  <ele>610.29</ele>
  <time>2026-08-27T18:28:02Z</time>
  <course>353.36</course>
  <speed>9.94</speed>
  <fix>3d</fix>
</trkpt>
<trkpt lat="-35.3630541" lon="149.1652487">
  <ele>610.46</ele>
  <time>2026-08-27T18:28:02Z</time>
  <course>358.16</course>
  <speed>9.00144988321326</speed>
  <fix>3d</fix>
</trkpt>
<trkpt lat="-35.3630635" lon="149.16525">
  <ele>610.28</ele>
  <time>2026-08-27T18:28:02Z</time>
  <course>353.43</course>
  <speed>9.38</speed>
  <fix>3d</fix>
</trkpt>
<trkpt lat="-35.3630385" lon="149.1652464">
  <ele>610.44</ele>
  <time>2026-08-27T18:28:02Z</time>
  <course>358.17</course>
  <speed>8.417244204607586</speed>
  <fix>3d</fix>
</trkpt>
<trkpt lat="-35.3630473" lon="149.1652477">
  <ele>610.26</ele>
  <time>2026-08-27T18:28:02Z</time>
  <course>353.46</course>
  <speed>8.8</speed>
  <fix>3d</fix>
</trkpt>
<trkpt lat="-35.3630239" lon="149.1652444">
  <ele>610.4</ele>
  <time>2026-08-27T18:28:02Z</time>
  <course>358.0</course>
  <speed>7.844137938613777</speed>
  <fix>3d</fix>
</trkpt>
<trkpt lat="-35.3630321" lon="149.1652456">
  <ele>610.23</ele>
  <time>2026-08-27T18:28:02Z</time>
  <course>353.45</course>
  <speed>8.22</speed>
  <fix>3d</fix>
</trkpt>
<trkpt lat="-35.3630103" lon="149.1652424">
  <ele>610.35</ele>
  <time>2026-08-27T18:28:02Z</time>
  <course>357.68</course>
  <speed>7.2920847499189145</speed>
  <fix>3d</fix>
</trkpt>
<trkpt lat="-35.3630179" lon="149.1652436">
  <ele>610.19</ele>
  <time>2026-08-27T18:28:02Z</time>
  <course>353.38</course>
  <speed>7.64</speed>
  <fix>3d</fix>
</trkpt>
<trkpt lat="-35.3629977" lon="149.1652406">
  <ele>610.3</ele>
  <time>2026-08-27T18:28:02Z</time>
  <course>357.17</course>
  <speed>6.742529199046897</speed>
  <fix>3d</fix>
</trkpt>
<trkpt lat="-35.3630048" lon="149.1652418">
  <ele>610.15</ele>
  <time>2026-08-27T18:28:02Z</time>
  <course>353.23</course>
  <speed>7.08</speed>
  <fix>3d</fix>
</trkpt>
<trkpt lat="-35.362986" lon="149.1652388">
  <ele>610.26</ele>
  <time>2026-08-27T18:28:02Z</time>
  <course>356.54</course>
  <speed>6.213026637638052</speed>
  <fix>3d</fix>
</trkpt>
<trkpt lat="-35.3629926" lon="149.1652399">
  <ele>610.1</ele>
  <time>2026-08-27T18:28:02Z</time>
  <course>352.97</course>
  <speed>6.54</speed>
  <fix>3d</fix>
</trkpt>
<trkpt lat="-35.3629753" lon="149.1652371">
  <ele>610.23</ele>
  <time>2026-08-27T18:28:02Z</time>
  <course>355.81</course>
  <speed>5.704962751850357</speed>
  <fix>3d</fix>
</trkpt>
<trkpt lat="-35.3629814" lon="149.1652382">
  <ele>610.06</ele>
  <time>2026-08-27T18:28:02Z</time>
  <course>352.58</course>
  <speed>6.01</speed>
  <fix>3d</fix>
</trkpt>
<trkpt lat="-35.3629656" lon="149.1652354">
  <ele>610.2</ele>
  <time>2026-08-27T18:28:02Z</time>
  <course>355.0</course>
  <speed>5.197355096585185</speed>
  <fix>3d</fix>
</trkpt>
<trkpt lat="-35.3629711" lon="149.1652365">
  <ele>610.03</ele>
  <time>2026-08-27T18:28:02Z</time>
  <course>352.05</course>
  <speed>5.49</speed>
  <fix>3d</fix>
</trkpt>
<trkpt lat="-35.3629568" lon="149.1652338">
  <ele>610.18</ele>
  <time>2026-08-27T18:28:02Z</time>
  <course>354.14</course>
  <speed>4.721567536316726</speed>
  <fix>3d</fix>
</trkpt>
<trkpt lat="-35.3629619" lon="149.1652348">
  <ele>610.01</ele>
  <time>2026-08-27T18:28:02Z</time>
  <course>351.42</course>
  <speed>4.99</speed>
  <fix>3d</fix>
</trkpt>
<trkpt lat="-35.3629489" lon="149.1652322">
  <ele>610.17</ele>
  <time>2026-08-27T18:28:02Z</time>
  <course>353.22</course>
  <speed>4.244997055358225</speed>
  <fix>3d</fix>
</trkpt>
<trkpt lat="-35.3629535" lon="149.1652333">
  <ele>609.99</ele>
  <time>2026-08-27T18:28:02Z</time>
  <course>350.68</course>
  <speed>4.51</speed>
  <fix>3d</fix>
</trkpt>
<trkpt lat="-35.3629418" lon="149.1652306">
  <ele>610.17</ele>
  <time>2026-08-27T18:28:02Z</time>
  <course>352.24</course>
  <speed>3.7871493236998197</speed>
  <fix>3d</fix>
</trkpt>
<trkpt lat="-35.3629459" lon="149.1652317">
  <ele>609.97</ele>
  <time>2026-08-27T18:28:02Z</time>
  <course>349.85</course>
  <speed>4.04</speed>
  <fix>3d</fix>
</trkpt>
<trkpt lat="-35.3629355" lon="149.1652291">
  <ele>610.16</ele>
  <time>2026-08-27T18:28:02Z</time>
  <course>351.18</course>
  <speed>3.330165161069343</speed>
  <fix>3d</fix>
</trkpt>
<trkpt lat="-35.3629391" lon="149.1652301">
  <ele>609.97</ele>
  <time>2026-08-27T18:28:02Z</time>
  <course>348.92</course>
  <speed>3.58</speed>
  <fix>3d</fix>
</trkpt>
<trkpt lat="-35.3629301" lon="149.1652277">
  <ele>610.16</ele>
  <time>2026-08-27T18:28:02Z</time>
  <course>350.06</course>
  <speed>2.8819611378365253</speed>
  <fix>3d</fix>
</trkpt>
<trkpt lat="-35.3629332" lon="149.1652286">
  <ele>609.97</ele>
  <time>2026-08-27T18:28:02Z</time>
  <course>347.87</course>
  <speed>3.12</speed>
  <fix>3d</fix>
</trkpt>
<trkpt lat="-35.3629255" lon="149.1652264">
  <ele>610.16</ele>
  <time>2026-08-27T18:28:02Z</time>
  <course>348.77</course>
  <speed>2.435077000835908</speed>
  <fix>3d</fix>
</trkpt>
<trkpt lat="-35.3629281" lon="149.1652272">
  <ele>609.97</ele>
  <time>2026-08-27T18:28:02Z</time>
  <course>346.67</course>
  <speed>2.67</speed>
  <fix>3d</fix>
</trkpt>
<trkpt lat="-35.3629217" lon="149.1652251">
  <ele>610.17</ele>
  <time>2026-08-27T18:28:02Z</time>
  <course>347.28</course>
  <speed>2.004120754844877</speed>
  <fix>3d</fix>
</trkpt>
<trkpt lat="-35.3629238" lon="149.1652259">
  <ele>609.97</ele>
  <time>2026-08-27T18:28:02Z</time>
  <course>345.26</course>
  <speed>2.23</speed>
  <fix>3d</fix>
</trkpt>
<trkpt lat="-35.3629186" lon="149.165224">
  <ele>610.17</ele>
  <time>2026-08-27T18:28:02Z</time>
  <course>345.6</course>
  <speed>1.613071604114337</speed>
  <fix>3d</fix>
</trkpt>
<trkpt lat="-35.3629203" lon="149.1652247">
  <ele>609.97</ele>
  <time>2026-08-27T18:28:02Z</time>
  <course>343.64</course>
  <speed>1.81</speed>
  <fix>3d</fix>
</trkpt>
<trkpt lat="-35.3629161" lon="149.1652231">
  <ele>610.17</ele>
  <time>2026-08-27T18:28:02Z</time>
  <course>343.83</course>
  <speed>1.2586500705120545</speed>
  <fix>3d</fix>
</trkpt>
<trkpt lat="-35.3629175" lon="149.1652236">
  <ele>609.97</ele>
  <time>2026-08-27T18:28:02Z</time>
  <course>341.84</course>
  <speed>1.43</speed>
  <fix>3d</fix>
</trkpt>
<trkpt lat="-35.3629143" lon="149.1652223">
  <ele>610.17</ele>
  <time>2026-08-27T18:28:02Z</time>
  <course>341.99</course>
  <speed>0.9585927185202274</speed>
  <fix>3d</fix>
</trkpt>
<trkpt lat="-35.3629154" lon="149.1652227">
  <ele>609.97</ele>
  <time>2026-08-27T18:28:02Z</time>
  <course>339.87</course>
  <speed>1.09</speed>
  <fix>3d</fix>
</trkpt>
<trkpt lat="-35.362913" lon="149.1652216">
  <ele>610.16</ele>
  <time>2026-08-27T18:28:02Z</time>
  <course>341.03</course>
  <speed>0.7077428911688198</speed>
  <fix>3d</fix>
</trkpt>
<trkpt lat="-35.3629138" lon="149.165222">
  <ele>609.96</ele>
  <time>2026-08-27T18:28:02Z</time>
  <course>337.25</course>
  <speed>0.81</speed>
  <fix>3d</fix>
</trkpt>
<trkpt lat="-35.362912" lon="149.1652211">
  <ele>610.16</ele>
  <time>2026-08-27T18:28:02Z</time>
  <course>341.16</course>
  <speed>0.4875448697299562</speed>
  <fix>3d</fix>
</trkpt>
<trkpt lat="-35.3629127" lon="149.1652214">
  <ele>609.96</ele>
  <time>2026-08-27T18:28:02Z</time>
  <course>333.85</course>
  <speed>0.57</speed>
  <fix>3d</fix>
</trkpt>
<trkpt lat="-35.3629115" lon="149.1652207">
  <ele>610.16</ele>
  <time>2026-08-27T18:28:02Z</time>
  <course>341.09</course>
  <speed>0.32649655434629016</speed>
  <fix>3d</fix>
</trkpt>
<trkpt lat="-35.3629119" lon="149.1652209">
  <ele>609.97</ele>
  <time>2026-08-27T18:28:02Z</time>
  <course>329.73</course>
  <speed>0.37</speed>
  <fix>3d</fix>
</trkpt>
<trkpt lat="-35.3629111" lon="149.1652204">
  <ele>610.16</ele>
  <time>2026-08-27T18:28:02Z</time>
  <course>341.01</course>
  <speed>0.1972308292331602</speed>
  <fix>3d</fix>
</trkpt>
<trkpt lat="-35.3629115" lon="149.1652205">
  <ele>609.97</ele>
  <time>2026-08-27T18:28:02Z</time>
  <course>323.68</course>
  <speed>0.22</speed>
  <fix>3d</fix>
</trkpt>
<trkpt lat="-35.362911" lon="149.1652202">
  <ele>610.16</ele>
  <time>2026-08-27T18:28:02Z</time>
  <course>340.95</course>
  <speed>0.10295630140987001</speed>
  <fix>3d</fix>
</trkpt>
<trkpt lat="-35.3629113" lon="149.1652202">
  <ele>609.98</ele>
  <time>2026-08-27T18:28:02Z</time>
  <course>312.51</course>
  <speed>0.11</speed>
  <fix>3d</fix>
</trkpt>
<trkpt lat="-35.3629109" lon="149.1652201">
  <ele>610.18</ele>
  <time>2026-08-27T18:28:02Z</time>
  <course>340.89</course>
  <speed>0.053851648071345036</speed>
  <fix>3d</fix>
</trkpt>
<trkpt lat="-35.3629112" lon="149.1652202">
  <ele>609.99</ele>
  <time>2026-08-27T18:28:02Z</time>
  <course>284.45</course>
  <speed>0.04</speed>
  <fix>3d</fix>
</trkpt>
<trkpt lat="-35.362911" lon="149.1652201">
  <ele>610.19</ele>
  <time>2026-08-27T18:28:02Z</time>
  <course>340.84</course>
  <speed>0.04</speed>
  <fix>3d</fix>
</trkpt>
<trkpt lat="-35.3629112" lon="149.1652201">
  <ele>610.0</ele>
  <time>2026-08-27T18:28:02Z</time>
  <course>216.28</course>
  <speed>0.02</speed>
  <fix>3d</fix>
</trkpt>
<trkpt lat="-35.3629109" lon="149.1652201">
  <ele>610.2</ele>
  <time>2026-08-27T18:28:02Z</time>
  <course>340.81</course>
  <speed>0.06082762530298219</speed>
  <fix>3d</fix>
</trkpt>
<trkpt lat="-35.3629113" lon="149.1652201">
  <ele>610.01</ele>
  <time>2026-08-27T18:28:02Z</time>
  <course>131.38</course>
  <speed>0.01</speed>
  <fix>3d</fix>
</trkpt>
<trkpt lat="-35.3629109" lon="149.1652201">
  <ele>610.21</ele>
  <time>2026-08-27T18:28:02Z</time>
  <course>340.74</course>
  <speed>0.12165525060596438</speed>
  <fix>3d</fix>
</trkpt>
<trkpt lat="-35.3629113" lon="149.1652202">
  <ele>610.02</ele>
  <time>2026-08-27T18:28:02Z</time>
  <course>40.2</course>
  <speed>0.03</speed>
  <fix>3d</fix>
</trkpt>
<trkpt lat="-35.3629107" lon="149.1652202">
  <ele>610.2</ele>
  <time>2026-08-27T18:28:02Z</time>
  <course>341.02</course>
  <speed>0.1711724276862369</speed>
  <fix>3d</fix>
</trkpt>
<trkpt lat="-35.3629112" lon="149.1652202">
  <ele>610.03</ele>
  <time>2026-08-27T18:28:02Z</time>
  <course>18.98</course>
  <speed>0.09</speed>
  <fix>3d</fix>
</trkpt>
<trkpt lat="-35.3629104" lon="149.1652202">
  <ele>610.16</ele>
  <time>2026-08-27T18:28:02Z</time>
  <course>341.42</course>
  <speed>0.22090722034374521</speed>
  <fix>3d</fix>
</trkpt>
<trkpt lat="-35.3629109" lon="149.1652202">
  <ele>610.01</ele>
  <time>2026-08-27T18:28:02Z</time>
  <course>10.66</course>
  <speed>0.14</speed>
  <fix>3d</fix>
</trkpt>
<trkpt lat="-35.3629101" lon="149.1652203">
  <ele>610.08</ele>
  <time>2026-08-27T18:28:02Z</time>
  <course>341.77</course>
  <speed>0.24020824298928628</speed>
  <fix>3d</fix>
</trkpt>
<trkpt lat="-35.3629106" lon="149.1652202">
  <ele>609.96</ele>
  <time>2026-08-27T18:28:02Z</time>
  <course>6.64</course>
  <speed>0.19</speed>
  <fix>3d</fix>
</trkpt>
<trkpt lat="-35.3629097" lon="149.1652203">
  <ele>609.96</ele>
  <time>2026-08-27T18:28:02Z</time>
  <course>342.09</course>
  <speed>0.2501999200639361</speed>
  <fix>3d</fix>
</trkpt>
<trkpt lat="-35.3629102" lon="149.1652202">
  <ele>609.87</ele>
  <time>2026-08-27T18:28:02Z</time>
  <course>4.83</course>
  <speed>0.22</speed>
  <fix>3d</fix>
</trkpt>
<trkpt lat="-35.3629094" lon="149.1652203">
  <ele>609.79</ele>
  <time>2026-08-27T18:28:02Z</time>
  <course>342.36</course>
  <speed>0.25079872407968906</speed>
  <fix>3d</fix>
</trkpt>
<trkpt lat="-35.3629099" lon="149.1652203">
  <ele>609.74</ele>
  <time>2026-08-27T18:28:02Z</time>
  <course>4.75</course>
  <speed>0.23</speed>
  <fix>3d</fix>
</trkpt>
<trkpt lat="-35.362909" lon="149.1652204">
  <ele>609.58</ele>
  <time>2026-08-27T18:28:02Z</time>
  <course>342.59</course>
  <speed>0.24186773244895649</speed>
  <fix>3d</fix>
</trkpt>
<trkpt lat="-35.3629094" lon="149.1652203">
  <ele>609.55</ele>
  <time>2026-08-27T18:28:02Z</time>
  <course>6.16</course>
  <speed>0.23</speed>
  <fix>3d</fix>
</trkpt>
<trkpt lat="-35.3629086" lon="149.1652205">
  <ele>609.31</ele>
  <time>2026-08-27T18:28:02Z</time>
  <course>342.79</course>
  <speed>0.21377558326431947</speed>
  <fix>3d</fix>
</trkpt>
<trkpt lat="-35.362909" lon="149.1652204">
  <ele>609.32</ele>
  <time>2026-08-27T18:28:02Z</time>
  <course>8.93</course>
  <speed>0.22</speed>
  <fix>3d</fix>
</trkpt>
<trkpt lat="-35.3629083" lon="149.1652206">
  <ele>609.01</ele>
  <time>2026-08-27T18:28:02Z</time>
  <course>342.8</course>
  <speed>0.196468827043885</speed>
  <fix>3d</fix>
</trkpt>
<trkpt lat="-35.3629087" lon="149.1652205">
  <ele>609.05</ele>
  <time>2026-08-27T18:28:02Z</time>
  <course>13.39</course>
  <speed>0.2</speed>
  <fix>3d</fix>
</trkpt>
<trkpt lat="-35.362908" lon="149.1652207">
  <ele>608.68</ele>
  <time>2026-08-27T18:28:02Z</time>
  <course>342.7</course>
  <speed>0.16552945357246848</speed>
  <fix>3d</fix>
</trkpt>
<trkpt lat="-35.3629083" lon="149.1652206">
  <ele>608.74</ele>
  <time>2026-08-27T18:28:02Z</time>
  <course>19.97</course>
  <speed>0.18</speed>
  <fix>3d</fix>
</trkpt>
<trkpt lat="-35.3629078" lon="149.1652209">
  <ele>608.35</ele>
  <time>2026-08-27T18:28:02Z</time>
  <course>342.57</course>
  <speed>0.13601470508735444</speed>
  <fix>3d</fix>
</trkpt>
<trkpt lat="-35.362908" lon="149.1652207">
  <ele>608.42</ele>
  <time>2026-08-27T18:28:02Z</time>
  <course>29.19</course>
  <speed>0.15</speed>
  <fix>3d</fix>
</trkpt>
<trkpt lat="-35.3629077" lon="149.165221">
  <ele>608.02</ele>
  <time>2026-08-27T18:28:02Z</time>
  <course>342.44</course>
  <speed>0.10816653826391968</speed>
  <fix>3d</fix>
</trkpt>
<trkpt lat="-35.3629078" lon="149.1652209">
  <ele>608.1</ele>
  <time>2026-08-27T18:28:02Z</time>
  <course>42.11</course>
  <speed>0.13</speed>
  <fix>3d</fix>
</trkpt>
<trkpt lat="-35.3629076" lon="149.1652213">
  <ele>607.69</ele>
  <time>2026-08-27T18:28:02Z</time>
  <course>342.33</course>
  <speed>0.1019803902718557</speed>
  <fix>3d</fix>
</trkpt>
<trkpt lat="-35.3629076" lon="149.1652212">
  <ele>607.78</ele>
  <time>2026-08-27T18:28:02Z</time>
  <course>60.01</course>
  <speed>0.11</speed>
  <fix>3d</fix>
</trkpt>
<trkpt lat="-35.3629076" lon="149.1652215">
  <ele>607.37</ele>
  <time>2026-08-27T18:28:02Z</time>
  <course>342.23</course>
  <speed>0.1019803902718557</speed>
  <fix>3d</fix>
</trkpt>
<trkpt lat="-35.3629076" lon="149.1652214">
  <ele>607.45</ele>
  <time>2026-08-27T18:28:02Z</time>
  <course>82.51</course>
  <speed>0.1</speed>
  <fix>3d</fix>
</trkpt>
<trkpt lat="-35.3629077" lon="149.1652217">
  <ele>607.07</ele>
  <time>2026-08-27T18:28:02Z</time>
  <course>342.17</course>
  <speed>0.11661903789690602</speed>
  <fix>3d</fix>
</trkpt>
<trkpt lat="-35.3629076" lon="149.1652217">
  <ele>607.14</ele>
  <time>2026-08-27T18:28:02Z</time>
  <course>105.01</course>
  <speed>0.1</speed>
  <fix>3d</fix>
</trkpt>
<trkpt lat="-35.3629077" lon="149.1652219">
  <ele>606.76</ele>
  <time>2026-08-27T18:28:02Z</time>
  <course>342.06</course>
  <speed>0.12727922061357855</speed>
  <fix>3d</fix>
</trkpt>
<trkpt lat="-35.3629077" lon="149.1652219">
  <ele>606.83</ele>
  <time>2026-08-27T18:28:02Z</time>
  <course>122.85</course>
  <speed>0.12</speed>
  <fix>3d</fix>
</trkpt>
<trkpt lat="-35.3629079" lon="149.1652221">
  <ele>606.46</ele>
  <time>2026-08-27T18:28:02Z</time>
  <course>342.03</course>
  <speed>0.15</speed>
  <fix>3d</fix>
</trkpt>
<trkpt lat="-35.3629078" lon="149.1652221">
  <ele>606.54</ele>
  <time>2026-08-27T18:28:02Z</time>
  <course>135.62</course>
  <speed>0.14</speed>
  <fix>3d</fix>
</trkpt>
<trkpt lat="-35.3629081" lon="149.1652223">
  <ele>606.15</ele>
  <time>2026-08-27T18:28:02Z</time>
  <course>341.98</course>
  <speed>0.17</speed>
  <fix>3d</fix>
</trkpt>
<trkpt lat="-35.362908" lon="149.1652222">
  <ele>606.24</ele>
  <time>2026-08-27T18:28:02Z</time>
  <course>144.7</course>
  <speed>0.15</speed>
  <fix>3d</fix>
</trkpt>
<trkpt lat="-35.3629084" lon="149.1652225">
  <ele>605.86</ele>
  <time>2026-08-27T18:28:02Z</time>
  <course>341.9</course>
  <speed>0.18384776310850234</speed>
  <fix>3d</fix>
</trkpt>
<trkpt lat="-35.3629082" lon="149.1652225">
  <ele>605.94</ele>
  <time>2026-08-27T18:28:02Z</time>
  <course>151.49</course>
  <speed>0.17</speed>
  <fix>3d</fix>
</trkpt>
<trkpt lat="-35.3629087" lon="149.1652227">
  <ele>605.56</ele>
  <time>2026-08-27T18:28:02Z</time>
  <course>341.85</course>
  <speed>0.18681541692269404</speed>
  <fix>3d</fix>
</trkpt>
<trkpt lat="-35.3629085" lon="149.1652226">
  <ele>605.65</ele>
  <time>2026-08-27T18:28:02Z</time>
  <course>157.09</course>
  <speed>0.18</speed>
  <fix>3d</fix>
</trkpt>
<trkpt lat="-35.362909" lon="149.1652228">
  <ele>605.26</ele>
  <time>2026-08-27T18:28:02Z</time>
  <course>341.84</course>
  <speed>0.18439088914585774</speed>
  <fix>3d</fix>
</trkpt>
<trkpt lat="-35.3629088" lon="149.1652228">
  <ele>605.36</ele>
  <time>2026-08-27T18:28:02Z</time>
  <course>161.89</course>
  <speed>0.18</speed>
  <fix>3d</fix>
</trkpt>
<trkpt lat="-35.3629093" lon="149.1652229">
  <ele>604.96</ele>
  <time>2026-08-27T18:28:02Z</time>
  <course>341.79</course>
  <speed>0.1824828759089466</speed>
  <fix>3d</fix>
</trkpt>
<trkpt lat="-35.3629091" lon="149.1652229">
  <ele>605.06</ele>
  <time>2026-08-27T18:28:02Z</time>
  <course>166.17</course>
  <speed>0.18</speed>
  <fix>3d</fix>
</trkpt>
<trkpt lat="-35.3629097" lon="149.1652229">
  <ele>604.67</ele>
  <time>2026-08-27T18:28:02Z</time>
  <course>341.76</course>
  <speed>0.18027756377319945</speed>
  <fix>3d</fix>
</trkpt>
<trkpt lat="-35.3629094" lon="149.165223">
  <ele>604.77</ele>
  <time>2026-08-27T18:28:02Z</time>
  <course>170.33</course>
  <speed>0.18</speed>
  <fix>3d</fix>
</trkpt>
<trkpt lat="-35.36291" lon="149.165223">
  <ele>604.37</ele>
  <time>2026-08-27T18:28:02Z</time>
  <course>341.73</course>
  <speed>0.17</speed>
  <fix>3d</fix>
</trkpt>
<trkpt lat="-35.3629098" lon="149.1652231">
  <ele>604.47</ele>
  <time>2026-08-27T18:28:02Z</time>
  <course>174.56</course>
  <speed>0.17</speed>
  <fix>3d</fix>
</trkpt>
<trkpt lat="-35.3629103" lon="149.165223">
  <ele>604.08</ele>
  <time>2026-08-27T18:28:02Z</time>
  <course>341.68</course>
  <speed>0.16</speed>
  <fix>3d</fix>
</trkpt>
<trkpt lat="-35.3629101" lon="149.1652231">
  <ele>604.18</ele>
  <time>2026-08-27T18:28:02Z</time>
  <course>178.84</course>
  <speed>0.16</speed>
  <fix>3d</fix>
</trkpt>
<trkpt lat="-35.3629105" lon="149.165223">
  <ele>603.78</ele>
  <time>2026-08-27T18:28:02Z</time>
  <course>341.65</course>
  <speed>0.140356688476182</speed>
  <fix>3d</fix>
</trkpt>
<trkpt lat="-35.3629103" lon="149.1652231">
  <ele>603.88</ele>
  <time>2026-08-27T18:28:02Z</time>
  <course>183.41</course>
  <speed>0.15</speed>
  <fix>3d</fix>
</trkpt>
<trkpt lat="-35.3629107" lon="149.165223">
  <ele>603.48</ele>
  <time>2026-08-27T18:28:02Z</time>
  <course>341.6</course>
  <speed>0.12165525060596438</speed>
  <fix>3d</fix>
</trkpt>
<trkpt lat="-35.3629106" lon="149.165223">
  <ele>603.57</ele>
  <time>2026-08-27T18:28:02Z</time>
  <course>188.6</course>
  <speed>0.13</speed>
  <fix>3d</fix>
</trkpt>
<trkpt lat="-35.3629109" lon="149.1652229">
  <ele>603.18</ele>
  <time>2026-08-27T18:28:02Z</time>
  <course>341.56</course>
  <speed>0.1044030650891055</speed>
  <fix>3d</fix>
</trkpt>
<trkpt lat="-35.3629109" lon="149.165223">
  <ele>603.28</ele>
  <time>2026-08-27T18:28:02Z</time>
  <course>194.73</course>
  <speed>0.11</speed>
  <fix>3d</fix>
</trkpt>
<trkpt lat="-35.3629111" lon="149.1652229">
  <ele>602.88</ele>
  <time>2026-08-27T18:28:02Z</time>
  <course>341.52</course>
  <speed>0.08944271909999159</speed>
  <fix>3d</fix>
</trkpt>
<trkpt lat="-35.362911" lon="149.165223">
  <ele>602.99</ele>
  <time>2026-08-27T18:28:02Z</time>
  <course>202.23</course>
  <speed>0.1</speed>
  <fix>3d</fix>
</trkpt>
<trkpt lat="-35.3629112" lon="149.1652228">
  <ele>602.58</ele>
  <time>2026-08-27T18:28:02Z</time>
  <course>341.49</course>
  <speed>0.07211102550927978</speed>
  <fix>3d</fix>
</trkpt>
<trkpt lat="-35.3629112" lon="149.1652229">
  <ele>602.69</ele>
  <time>2026-08-27T18:28:02Z</time>
  <course>211.61</course>
  <speed>0.08</speed>
  <fix>3d</fix>
</trkpt>
<trkpt lat="-35.3629113" lon="149.1652227">
  <ele>602.28</ele>
  <time>2026-08-27T18:28:02Z</time>
  <course>341.47</course>
  <speed>0.06403124237432849</speed>
  <fix>3d</fix>
</trkpt>
<trkpt lat="-35.3629113" lon="149.1652228">
  <ele>602.39</ele>
  <time>2026-08-27T18:28:02Z</time>
  <course>223.6</course>
  <speed>0.07</speed>
  <fix>3d</fix>
</trkpt>
<trkpt lat="-35.3629114" lon="149.1652226">
  <ele>601.98</ele>
  <time>2026-08-27T18:28:02Z</time>
  <course>341.43</course>
  <speed>0.053851648071345036</speed>
  <fix>3d</fix>
</trkpt>
<trkpt lat="-35.3629114" lon="149.1652227">
  <ele>602.08</ele>
  <time>2026-08-27T18:28:02Z</time>
  <course>238.69</course>
  <speed>0.06</speed>
  <fix>3d</fix>
</trkpt>
<trkpt lat="-35.3629114" lon="149.1652225">
  <ele>601.68</ele>
  <time>2026-08-27T18:28:02Z</time>
  <course>341.39</course>
  <speed>0.05</speed>
  <fix>3d</fix>
</trkpt>
<trkpt lat="-35.3629114" lon="149.1652226">
  <ele>601.79</ele>
  <time>2026-08-27T18:28:02Z</time>
  <course>256.14</course>
  <speed>0.05</speed>
  <fix>3d</fix>
</trkpt>
<trkpt lat="-35.3629114" lon="149.1652224">
  <ele>601.37</ele>
  <time>2026-08-27T18:28:02Z</time>
  <course>341.35</course>
  <speed>0.05</speed>
  <fix>3d</fix>
</trkpt>
<trkpt lat="-35.3629114" lon="149.1652225">
  <ele>601.49</ele>
  <time>2026-08-27T18:28:02Z</time>
  <course>273.39</course>
  <speed>0.05</speed>
  <fix>3d</fix>
</trkpt>
<trkpt lat="-35.3629114" lon="149.1652222">
  <ele>601.08</ele>
  <time>2026-08-27T18:28:02Z</time>
  <course>341.33</course>
  <speed>0.053851648071345036</speed>
  <fix>3d</fix>
</trkpt>
<trkpt lat="-35.3629114" lon="149.1652223">
  <ele>601.19</ele>
  <time>2026-08-27T18:28:02Z</time>
  <course>287.96</course>
  <speed>0.05</speed>
  <fix>3d</fix>
</trkpt>
<trkpt lat="-35.3629113" lon="149.1652221">
  <ele>600.78</ele>
  <time>2026-08-27T18:28:02Z</time>
  <course>341.3</course>
  <speed>0.05</speed>
  <fix>3d</fix>
</trkpt>
<trkpt lat="-35.3629114" lon="149.1652222">
  <ele>600.89</ele>
  <time>2026-08-27T18:28:02Z</time>
  <course>299.53</course>
  <speed>0.05</speed>
  <fix>3d</fix>
</trkpt>
<trkpt lat="-35.3629113" lon="149.165222">
  <ele>600.47</ele>
  <time>2026-08-27T18:28:02Z</time>
  <course>341.27</course>
  <speed>0.05</speed>
  <fix>3d</fix>
</trkpt>
<trkpt lat="-35.3629114" lon="149.1652221">
  <ele>600.58</ele>
  <time>2026-08-27T18:28:02Z</time>
  <course>308.85</course>
  <speed>0.05</speed>
  <fix>3d</fix>
</trkpt>
<trkpt lat="-35.3629113" lon="149.165222">
  <ele>600.17</ele>
  <time>2026-08-27T18:28:02Z</time>
  <course>341.23</course>
  <speed>0.0565685424949238</speed>
  <fix>3d</fix>
</trkpt>
<trkpt lat="-35.3629113" lon="149.165222">
  <ele>600.29</ele>
  <time>2026-08-27T18:28:02Z</time>
  <course>316.7</course>
  <speed>0.05</speed>
  <fix>3d</fix>
</trkpt>
<trkpt lat="-35.3629112" lon="149.1652219">
  <ele>599.87</ele>
  <time>2026-08-27T18:28:02Z</time>
  <course>341.21</course>
  <speed>0.05</speed>
  <fix>3d</fix>
</trkpt>
<trkpt lat="-35.3629112" lon="149.1652219">
  <ele>599.99</ele>
  <time>2026-08-27T18:28:02Z</time>
  <course>323.54</course>
  <speed>0.05</speed>
  <fix>3d</fix>
</trkpt>
<trkpt lat="-35.3629111" lon="149.1652218">
  <ele>599.58</ele>
  <time>2026-08-27T18:28:02Z</time>
  <course>341.19</course>
  <speed>0.044721359549995794</speed>
  <fix>3d</fix>
</trkpt>
<trkpt lat="-35.3629111" lon="149.1652219">
  <ele>599.69</ele>
  <time>2026-08-27T18:28:02Z</time>
  <course>329.96</course>
  <speed>0.05</speed>
  <fix>3d</fix>
</trkpt>
<trkpt lat="-35.362911" lon="149.1652218">
  <ele>599.28</ele>
  <time>2026-08-27T18:28:02Z</time>
  <course>341.16</course>
  <speed>0.044721359549995794</speed>
  <fix>3d</fix>
</trkpt>
<trkpt lat="-35.3629111" lon="149.1652218">
  <ele>599.39</ele>
  <time>2026-08-27T18:28:02Z</time>
  <course>336.37</course>
  <speed>0.05</speed>
  <fix>3d</fix>
</trkpt>
<trkpt lat="-35.3629109" lon="149.1652217">
  <ele>598.98</ele>
  <time>2026-08-27T18:28:02Z</time>
  <course>341.14</course>
  <speed>0.0412310562561766</speed>
  <fix>3d</fix>
</trkpt>
<trkpt lat="-35.362911" lon="149.1652217">
  <ele>599.1</ele>
  <time>2026-08-27T18:28:02Z</time>
  <course>342.77</course>
  <speed>0.05</speed>
  <fix>3d</fix>
</trkpt>
<trkpt lat="-35.3629109" lon="149.1652217">
  <ele>598.68</ele>
  <time>2026-08-27T18:28:02Z</time>
  <course>341.12</course>
  <speed>0.03</speed>
  <fix>3d</fix>
</trkpt>
<trkpt lat="-35.3629109" lon="149.1652217">
  <ele>598.8</ele>
  <time>2026-08-27T18:28:03Z</time>
  <course>350.04</course>
  <speed>0.04</speed>
  <fix>3d</fix>
</trkpt>
<trkpt lat="-35.3629108" lon="149.1652217">
  <ele>598.38</ele>
  <time>2026-08-27T18:28:03Z</time>
  <course>341.09</course>
  <speed>0.03</speed>
  <fix>3d</fix>
</trkpt>
<trkpt lat="-35.3629108" lon="149.1652217">
  <ele>598.5</ele>
  <time>2026-08-27T18:28:03Z</time>
  <course>359.18</course>
  <speed>0.03</speed>
  <fix>3d</fix>
</trkpt>
<trkpt lat="-35.3629108" lon="149.1652217">
  <ele>598.08</ele>
  <time>2026-08-27T18:28:03Z</time>
  <course>341.05</course>
  <speed>0.02</speed>
  <fix>3d</fix>
</trkpt>
<trkpt lat="-35.3629108" lon="149.1652217">
  <ele>598.19</ele>
  <time>2026-08-27T18:28:03Z</time>
  <course>10.66</course>
  <speed>0.03</speed>
  <fix>3d</fix>
</trkpt>
<trkpt lat="-35.3629107" lon="149.1652218">
  <ele>597.78</ele>
  <time>2026-08-27T18:28:03Z</time>
  <course>341.04</course>
  <speed>0.02</speed>
  <fix>3d</fix>
</trkpt>
<trkpt lat="-35.3629107" lon="149.1652217">
  <ele>597.9</ele>
  <time>2026-08-27T18:28:03Z</time>
  <course>24.2</course>
  <speed>0.02</speed>
  <fix>3d</fix>
</trkpt>
<trkpt lat="-35.3629107" lon="149.1652218">
  <ele>597.48</ele>
  <time>2026-08-27T18:28:03Z</time>
  <course>341.02</course>
  <speed>0.01414213562373095</speed>
  <fix>3d</fix>
</trkpt>
<trkpt lat="-35.3629107" lon="149.1652217">
  <ele>597.6</ele>
  <time>2026-08-27T18:28:03Z</time>
  <course>40.02</course>
  <speed>0.02</speed>
  <fix>3d</fix>
</trkpt>
<trkpt lat="-35.3629107" lon="149.1652218">
  <ele>597.18</ele>
  <time>2026-08-27T18:28:03Z</time>
  <course>340.99</course>
  <speed>0.01</speed>
  <fix>3d</fix>
</trkpt>
<trkpt lat="-35.3629106" lon="149.1652217">
  <ele>597.3</ele>
  <time>2026-08-27T18:28:03Z</time>
  <course>57.51</course>
  <speed>0.02</speed>
  <fix>3d</fix>
</trkpt>
<trkpt lat="-35.3629107" lon="149.1652218">
  <ele>596.88</ele>
  <time>2026-08-27T18:28:03Z</time>
  <course>340.97</course>
  <speed>0.01</speed>
  <fix>3d</fix>
</trkpt>
<trkpt lat="-35.3629106" lon="149.1652218">
  <ele>596.99</ele>
  <time>2026-08-27T18:28:03Z</time>
  <course>74.63</course>
  <speed>0.02</speed>
  <fix>3d</fix>
</trkpt>
<trkpt lat="-35.3629107" lon="149.1652218">
  <ele>596.58</ele>
  <time>2026-08-27T18:28:03Z</time>
  <course>340.93</course>
  <speed>0.01</speed>
  <fix>3d</fix>
</trkpt>
<trkpt lat="-35.3629106" lon="149.1652219">
  <ele>596.69</ele>
  <time>2026-08-27T18:28:03Z</time>
  <course>89.08</course>
  <speed>0.02</speed>
  <fix>3d</fix>
</trkpt>
<trkpt lat="-35.3629107" lon="149.1652219">
  <ele>596.28</ele>
  <time>2026-08-27T18:28:03Z</time>
  <course>340.92</course>
  <speed>0.01</speed>
  <fix>3d</fix>
</trkpt>
<trkpt lat="-35.3629106" lon="149.1652219">
  <ele>596.39</ele>
  <time>2026-08-27T18:28:03Z</time>
  <course>100.49</course>
  <speed>0.02</speed>
  <fix>3d</fix>
</trkpt>
<trkpt lat="-35.3629107" lon="149.1652219">
  <ele>595.98</ele>
  <time>2026-08-27T18:28:03Z</time>
  <course>340.89</course>
  <speed>0.01414213562373095</speed>
  <fix>3d</fix>
</trkpt>
<trkpt lat="-35.3629106" lon="149.165222">
  <ele>596.08</ele>
  <time>2026-08-27T18:28:03Z</time>
  <course>109.82</course>
  <speed>0.03</speed>
  <fix>3d</fix>
</trkpt>
<trkpt lat="-35.3629107" lon="149.165222">
  <ele>595.68</ele>
  <time>2026-08-27T18:28:03Z</time>
  <course>340.86</course>
  <speed>0.01414213562373095</speed>
  <fix>3d</fix>
</trkpt>
<trkpt lat="-35.3629107" lon="149.165222">
  <ele>595.79</ele>
  <time>2026-08-27T18:28:03Z</time>
  <course>117.1</course>
  <speed>0.03</speed>
  <fix>3d</fix>
</trkpt>
<trkpt lat="-35.3629107" lon="149.165222">
  <ele>595.38</ele>
  <time>2026-08-27T18:28:03Z</time>
  <course>340.83</course>
  <speed>0.01414213562373095</speed>
  <fix>3d</fix>
</trkpt>
<trkpt lat="-35.3629107" lon="149.1652221">
  <ele>595.49</ele>
  <time>2026-08-27T18:28:03Z</time>
  <course>122.9</course>
  <speed>0.03</speed>
  <fix>3d</fix>
</trkpt>
<trkpt lat="-35.3629107" lon="149.1652221">
  <ele>595.08</ele>
  <time>2026-08-27T18:28:03Z</time>
  <course>340.82</course>
  <speed>0.01414213562373095</speed>
  <fix>3d</fix>
</trkpt>
<trkpt lat="-35.3629107" lon="149.1652222">
  <ele>595.19</ele>
  <time>2026-08-27T18:28:03Z</time>
  <course>128.32</course>
  <speed>0.03</speed>
  <fix>3d</fix>
</trkpt>
<trkpt lat="-35.3629107" lon="149.1652221">
  <ele>594.78</ele>
  <time>2026-08-27T18:28:03Z</time>
  <course>340.79</course>
  <speed>0.02</speed>
  <fix>3d</fix>
</trkpt>
<trkpt lat="-35.3629107" lon="149.1652222">
  <ele>594.89</ele>
  <time>2026-08-27T18:28:03Z</time>
  <course>133.12</course>
  <speed>0.03</speed>
  <fix>3d</fix>
</trkpt>
<trkpt lat="-35.3629108" lon="149.1652222">
  <ele>594.47</ele>
  <time>2026-08-27T18:28:03Z</time>
  <course>340.76</course>
  <speed>0.02</speed>
  <fix>3d</fix>
</trkpt>
<trkpt lat="-35.3629107" lon="149.1652222">
  <ele>594.58</ele>
  <time>2026-08-27T18:28:03Z</time>
  <course>136.9</course>
  <speed>0.03</speed>
  <fix>3d</fix>
</trkpt>
<trkpt lat="-35.3629108" lon="149.1652222">
  <ele>594.17</ele>
  <time>2026-08-27T18:28:03Z</time>
  <course>340.73</course>
  <speed>0.01</speed>
  <fix>3d</fix>
</trkpt>
<trkpt lat="-35.3629108" lon="149.1652223">
  <ele>594.28</ele>
  <time>2026-08-27T18:28:03Z</time>
  <course>140.39</course>
  <speed>0.03</speed>
  <fix>3d</fix>
</trkpt>
<trkpt lat="-35.3629108" lon="149.1652222">
  <ele>593.86</ele>
  <time>2026-08-27T18:28:03Z</time>
  <course>340.72</course>
  <speed>0.01</speed>
  <fix>3d</fix>
</trkpt>
<trkpt lat="-35.3629108" lon="149.1652224">
  <ele>593.98</ele>
  <time>2026-08-27T18:28:03Z</time>
  <course>144.59</course>
  <speed>0.03</speed>
  <fix>3d</fix>
</trkpt>
<trkpt lat="-35.3629109" lon="149.1652223">
  <ele>593.56</ele>
  <time>2026-08-27T18:28:03Z</time>
  <course>340.68</course>
  <speed>0.01</speed>
  <fix>3d</fix>
</trkpt>
<trkpt lat="-35.3629108" lon="149.1652224">
  <ele>593.68</ele>
  <time>2026-08-27T18:28:03Z</time>
  <course>149.12</course>
  <speed>0.02</speed>
  <fix>3d</fix>
</trkpt>
<trkpt lat="-35.3629109" lon="149.1652223">
  <ele>593.27</ele>
  <time>2026-08-27T18:28:03Z</time>
  <course>340.42</course>
  <speed>0.01</speed>
  <fix>3d</fix>
</trkpt>
<trkpt lat="-35.3629108" lon="149.1652225">
  <ele>593.39</ele>
  <time>2026-08-27T18:28:03Z</time>
  <course>151.34</course>
  <speed>0.02</speed>
  <fix>3d</fix>
</trkpt>
<trkpt lat="-35.3629109" lon="149.1652223">
  <ele>593.01</ele>
  <time>2026-08-27T18:28:03Z</time>
  <course>340.05</course>
  <speed>0.01</speed>
  <fix>3d</fix>
</trkpt>
<trkpt lat="-35.3629109" lon="149.1652225">
  <ele>593.11</ele>
  <time>2026-08-27T18:28:03Z</time>
  <course>154.22</course>
  <speed>0.02</speed>
  <fix>3d</fix>
</trkpt>
<trkpt lat="-35.3629109" lon="149.1652223">
  <ele>592.79</ele>
  <time>2026-08-27T18:28:03Z</time>
  <course>339.69</course>
  <speed>0.01414213562373095</speed>
  <fix>3d</fix>
</trkpt>
<trkpt lat="-35.3629109" lon="149.1652225">
  <ele>592.87</ele>
  <time>2026-08-27T18:28:03Z</time>
  <course>164.18</course>
  <speed>0.02</speed>
  <fix>3d</fix>
</trkpt>
<trkpt lat="-35.362911" lon="149.1652223">
  <ele>592.61</ele>
  <time>2026-08-27T18:28:03Z</time>
  <course>339.35</course>
  <speed>0.022360679774997897</speed>
  <fix>3d</fix>
</trkpt>
<trkpt lat="-35.362911" lon="149.1652225">
  <ele>592.67</ele>
  <time>2026-08-27T18:28:03Z</time>
  <course>181.89</course>
  <speed>0.02</speed>
  <fix>3d</fix>
</trkpt>
<trkpt lat="-35.362911" lon="149.1652223">
  <ele>592.48</ele>
  <time>2026-08-27T18:28:03Z</time>
  <course>339.1</course>
  <speed>0.0316227766016838</speed>
  <fix>3d</fix>
</trkpt>
<trkpt lat="-35.3629111" lon="149.1652225">
  <ele>592.51</ele>
  <time>2026-08-27T18:28:03Z</time>
  <course>201.62</course>
  <speed>0.02</speed>
  <fix>3d</fix>
</trkpt>
<trkpt lat="-35.362911" lon="149.1652223">
  <ele>592.39</ele>
  <time>2026-08-27T18:28:03Z</time>
  <course>339.1</course>
  <speed>0.0412310562561766</speed>
  <fix>3d</fix>
</trkpt>
<trkpt lat="-35.3629111" lon="149.1652225">
  <ele>592.39</ele>
  <time>2026-08-27T18:28:03Z</time>
  <course>216.26</course>
  <speed>0.03</speed>
  <fix>3d</fix>
</trkpt>
<trkpt lat="-35.3629111" lon="149.1652223">
  <ele>592.31</ele>
  <time>2026-08-27T18:28:03Z</time>
  <course>339.18</course>
  <speed>0.0412310562561766</speed>
  <fix>3d</fix>
</trkpt>
<trkpt lat="-35.3629111" lon="149.1652225">
  <ele>592.3</ele>
  <time>2026-08-27T18:28:03Z</time>
  <course>225.13</course>
  <speed>0.03</speed>
  <fix>3d</fix>
</trkpt>
<trkpt lat="-35.3629111" lon="149.1652222">
  <ele>592.23</ele>
  <time>2026-08-27T18:28:03Z</time>
  <course>339.26</course>
  <speed>0.0412310562561766</speed>
  <fix>3d</fix>
</trkpt>
<trkpt lat="-35.3629112" lon="149.1652224">
  <ele>592.22</ele>
  <time>2026-08-27T18:28:03Z</time>
  <course>231.0</course>
  <speed>0.04</speed>
  <fix>3d</fix>
</trkpt>
<trkpt lat="-35.3629112" lon="149.1652222">
  <ele>592.16</ele>
  <time>2026-08-27T18:28:03Z</time>
  <course>339.34</course>
  <speed>0.05099019513592785</speed>
  <fix>3d</fix>
</trkpt>
<trkpt lat="-35.3629112" lon="149.1652224">
  <ele>592.14</ele>
  <time>2026-08-27T18:28:03Z</time>
  <course>236.01</course>
  <speed>0.04</speed>
  <fix>3d</fix>
</trkpt>
<trkpt lat="-35.3629112" lon="149.1652221">
  <ele>592.08</ele>
  <time>2026-08-27T18:28:03Z</time>
  <course>339.41</course>
  <speed>0.04</speed>
  <fix>3d</fix>
</trkpt>
<trkpt lat="-35.3629113" lon="149.1652223">
  <ele>592.07</ele>
  <time>2026-08-27T18:28:03Z</time>
  <course>241.09</course>
  <speed>0.04</speed>
  <fix>3d</fix>
</trkpt>
<trkpt lat="-35.3629112" lon="149.165222">
  <ele>592.0</ele>
  <time>2026-08-27T18:28:03Z</time>
  <course>339.46</course>
  <speed>0.04</speed>
  <fix>3d</fix>
</trkpt>
<trkpt lat="-35.3629113" lon="149.1652222">
  <ele>591.99</ele>
  <time>2026-08-27T18:28:03Z</time>
  <course>246.69</course>
  <speed>0.03</speed>
  <fix>3d</fix>
</trkpt>
<trkpt lat="-35.3629112" lon="149.165222">
  <ele>591.91</ele>
  <time>2026-08-27T18:28:03Z</time>
  <course>339.51</course>
  <speed>0.04</speed>
  <fix>3d</fix>
</trkpt>
<trkpt lat="-35.3629114" lon="149.1652221">
  <ele>591.9</ele>
  <time>2026-08-27T18:28:03Z</time>
  <course>253.19</course>
  <speed>0.03</speed>
  <fix>3d</fix>
</trkpt>
<trkpt lat="-35.3629112" lon="149.1652219">
  <ele>591.82</ele>
  <time>2026-08-27T18:28:03Z</time>
  <course>339.52</course>
  <speed>0.04</speed>
  <fix>3d</fix>
</trkpt>
<trkpt lat="-35.3629114" lon="149.1652221">
  <ele>591.81</ele>
  <time>2026-08-27T18:28:03Z</time>
  <course>260.74</course>
  <speed>0.03</speed>
  <fix>3d</fix>
</trkpt>
<trkpt lat="-35.3629112" lon="149.1652219">
  <ele>591.72</ele>
  <time>2026-08-27T18:28:03Z</time>
  <course>339.54</course>
  <speed>0.0316227766016838</speed>
  <fix>3d</fix>
</trkpt>
<trkpt lat="-35.3629114" lon="149.165222">
  <ele>591.72</ele>
  <time>2026-08-27T18:28:03Z</time>
  <course>269.95</course>
  <speed>0.02</speed>
  <fix>3d</fix>
</trkpt>
<trkpt lat="-35.3629112" lon="149.1652218">
  <ele>591.63</ele>
  <time>2026-08-27T18:28:03Z</time>
  <course>339.55</course>
  <speed>0.0316227766016838</speed>
  <fix>3d</fix>
</trkpt>
<trkpt lat="-35.3629114" lon="149.1652219">
  <ele>591.62</ele>
  <time>2026-08-27T18:28:03Z</time>
  <course>282.1</course>
  <speed>0.02</speed>
  <fix>3d</fix>
</trkpt>
<trkpt lat="-35.3629112" lon="149.1652218">
  <ele>591.53</ele>
  <time>2026-08-27T18:28:03Z</time>
  <course>339.56</course>
  <speed>0.0282842712474619</speed>
  <fix>3d</fix>
</trkpt>
<trkpt lat="-35.3629114" lon="149.1652219">
  <ele>591.52</ele>
  <time>2026-08-27T18:28:03Z</time>
  <course>299.09</course>
  <speed>0.01</speed>
  <fix>3d</fix>
</trkpt>
<trkpt lat="-35.3629113" lon="149.1652218">
  <ele>591.43</ele>
  <time>2026-08-27T18:28:03Z</time>
  <course>339.56</course>
  <speed>0.0282842712474619</speed>
  <fix>3d</fix>
</trkpt>
<trkpt lat="-35.3629114" lon="149.1652219">
  <ele>591.42</ele>
  <time>2026-08-27T18:28:03Z</time>
  <course>319.06</course>
  <speed>0.01</speed>
  <fix>3d</fix>
</trkpt>
<trkpt lat="-35.3629113" lon="149.1652218">
  <ele>591.33</ele>
  <time>2026-08-27T18:28:03Z</time>
  <course>339.57</course>
  <speed>0.022360679774997897</speed>
  <fix>3d</fix>
</trkpt>
<trkpt lat="-35.3629114" lon="149.1652219">
  <ele>591.32</ele>
  <time>2026-08-27T18:28:03Z</time>
  <course>337.91</course>
  <speed>0.01</speed>
  <fix>3d</fix>
</trkpt>
<trkpt lat="-35.3629113" lon="149.1652218">
  <ele>591.23</ele>
  <time>2026-08-27T18:28:03Z</time>
  <course>339.57</course>
  <speed>0.0316227766016838</speed>
  <fix>3d</fix>
</trkpt>
<trkpt lat="-35.3629114" lon="149.1652219">
  <ele>591.22</ele>
  <time>2026-08-27T18:28:03Z</time>
  <course>353.46</course>
  <speed>0.02</speed>
  <fix>3d</fix>
</trkpt>
<trkpt lat="-35.3629112" lon="149.1652218">
  <ele>591.13</ele>
  <time>2026-08-27T18:28:03Z</time>
  <course>339.57</course>
  <speed>0.03</speed>
  <fix>3d</fix>
</trkpt>
<trkpt lat="-35.3629113" lon="149.1652219">
  <ele>591.12</ele>
  <time>2026-08-27T18:28:03Z</time>
  <course>4.4</course>
  <speed>0.02</speed>
  <fix>3d</fix>
</trkpt>
<trkpt lat="-35.3629112" lon="149.1652218">
  <ele>591.03</ele>
  <time>2026-08-27T18:28:03Z</time>
  <course>339.57</course>
  <speed>0.03</speed>
  <fix>3d</fix>
</trkpt>
<trkpt lat="-35.3629113" lon="149.1652219">
  <ele>591.01</ele>
  <time>2026-08-27T18:28:03Z</time>
  <course>12.36</course>
  <speed>0.02</speed>
  <fix>3d</fix>
</trkpt>
<trkpt lat="-35.3629112" lon="149.1652218">
  <ele>590.93</ele>
  <time>2026-08-27T18:28:03Z</time>
  <course>339.57</course>
  <speed>0.03</speed>
  <fix>3d</fix>
</trkpt>
<trkpt lat="-35.3629112" lon="149.1652219">
  <ele>590.91</ele>
  <time>2026-08-27T18:28:03Z</time>
  <course>18.67</course>
  <speed>0.02</speed>
  <fix>3d</fix>
</trkpt>
<trkpt lat="-35.3629111" lon="149.1652218">
  <ele>590.83</ele>
  <time>2026-08-27T18:28:03Z</time>
  <course>339.58</course>
  <speed>0.03</speed>
  <fix>3d</fix>
</trkpt>
<trkpt lat="-35.3629112" lon="149.1652219">
  <ele>590.81</ele>
  <time>2026-08-27T18:28:03Z</time>
  <course>24.08</course>
  <speed>0.02</speed>
  <fix>3d</fix>
</trkpt>
<trkpt lat="-35.3629111" lon="149.1652218">
  <ele>590.73</ele>
  <time>2026-08-27T18:28:03Z</time>
  <course>339.57</course>
  <speed>0.02</speed>
  <fix>3d</fix>
</trkpt>
<trkpt lat="-35.3629111" lon="149.1652219">
  <ele>590.7</ele>
  <time>2026-08-27T18:28:03Z</time>
  <course>29.56</course>
  <speed>0.02</speed>
  <fix>3d</fix>
</trkpt>
<trkpt lat="-35.362911" lon="149.1652218">
  <ele>590.62</ele>
  <time>2026-08-27T18:28:03Z</time>
  <course>339.58</course>
  <speed>0.02</speed>
  <fix>3d</fix>
</trkpt>
<trkpt lat="-35.3629111" lon="149.1652219">
  <ele>590.6</ele>
  <time>2026-08-27T18:28:03Z</time>
  <course>35.23</course>
  <speed>0.02</speed>
  <fix>3d</fix>
</trkpt>
<trkpt lat="-35.362911" lon="149.1652218">
  <ele>590.52</ele>
  <time>2026-08-27T18:28:03Z</time>
  <course>339.59</course>
  <speed>0.02</speed>
  <fix>3d</fix>
</trkpt>
<trkpt lat="-35.3629111" lon="149.1652219">
  <ele>590.5</ele>
  <time>2026-08-27T18:28:03Z</time>
  <course>41.43</course>
  <speed>0.02</speed>
  <fix>3d</fix>
</trkpt>
<trkpt lat="-35.362911" lon="149.1652219">
  <ele>590.42</ele>
  <time>2026-08-27T18:28:03Z</time>
  <course>339.57</course>
  <speed>0.01</speed>
  <fix>3d</fix>
</trkpt>
<trkpt lat="-35.362911" lon="149.1652219">
  <ele>590.39</ele>
  <time>2026-08-27T18:28:03Z</time>
  <course>48.66</course>
  <speed>0.02</speed>
  <fix>3d</fix>
</trkpt>
<trkpt lat="-35.362911" lon="149.1652219">
  <ele>590.32</ele>
  <time>2026-08-27T18:28:03Z</time>
  <course>339.58</course>
  <speed>0.01</speed>
  <fix>3d</fix>
</trkpt>
<trkpt lat="-35.3629109" lon="149.165222">
  <ele>590.29</ele>
  <time>2026-08-27T18:28:03Z</time>
  <course>56.1</course>
  <speed>0.02</speed>
  <fix>3d</fix>
</trkpt>
<trkpt lat="-35.362911" lon="149.1652219">
  <ele>590.22</ele>
  <time>2026-08-27T18:28:03Z</time>
  <course>339.58</course>
  <speed>0.01</speed>
  <fix>3d</fix>
</trkpt>
<trkpt lat="-35.3629109" lon="149.165222">
  <ele>590.19</ele>
  <time>2026-08-27T18:28:03Z</time>
  <course>63.26</course>
  <speed>0.02</speed>
  <fix>3d</fix>
</trkpt>
<trkpt lat="-35.3629109" lon="149.165222">
  <ele>590.12</ele>
  <time>2026-08-27T18:28:03Z</time>
  <course>339.58</course>
  <speed>0.01</speed>
  <fix>3d</fix>
</trkpt>
<trkpt lat="-35.3629109" lon="149.1652221">
  <ele>590.08</ele>
  <time>2026-08-27T18:28:03Z</time>
  <course>70.44</course>
  <speed>0.02</speed>
  <fix>3d</fix>
</trkpt>
<trkpt lat="-35.3629109" lon="149.165222">
  <ele>590.02</ele>
  <time>2026-08-27T18:28:03Z</time>
  <course>339.59</course>
  <speed>0.0</speed>
  <fix>3d</fix>
</trkpt>
<trkpt lat="-35.3629109" lon="149.1652221">
  <ele>589.99</ele>
  <time>2026-08-27T18:28:03Z</time>
  <course>78.04</course>
  <speed>0.02</speed>
  <fix>3d</fix>
</trkpt>
<trkpt lat="-35.3629109" lon="149.165222">
  <ele>589.92</ele>
  <time>2026-08-27T18:28:03Z</time>
  <course>339.6</course>
  <speed>0.0</speed>
  <fix>3d</fix>
</trkpt>
<trkpt lat="-35.3629109" lon="149.1652221">
  <ele>589.89</ele>
  <time>2026-08-27T18:28:03Z</time>
  <course>86.51</course>
  <speed>0.02</speed>
  <fix>3d</fix>
</trkpt>
<trkpt lat="-35.3629109" lon="149.1652221">
  <ele>589.82</ele>
  <time>2026-08-27T18:28:03Z</time>
  <course>339.59</course>
  <speed>0.0</speed>
  <fix>3d</fix>
</trkpt>
<trkpt lat="-35.3629109" lon="149.1652222">
  <ele>589.79</ele>
  <time>2026-08-27T18:28:03Z</time>
  <course>94.54</course>
  <speed>0.01</speed>
  <fix>3d</fix>
</trkpt>
<trkpt lat="-35.3629109" lon="149.1652221">
  <ele>589.72</ele>
  <time>2026-08-27T18:28:03Z</time>
  <course>339.6</course>
  <speed>0.0</speed>
  <fix>3d</fix>
</trkpt>
<trkpt lat="-35.3629109" lon="149.1652222">
  <ele>589.69</ele>
  <time>2026-08-27T18:28:03Z</time>
  <course>102.2</course>
  <speed>0.01</speed>
  <fix>3d</fix>
</trkpt>
<trkpt lat="-35.3629109" lon="149.1652221">
  <ele>589.62</ele>
  <time>2026-08-27T18:28:03Z</time>
  <course>339.6</course>
  <speed>0.0</speed>
  <fix>3d</fix>
</trkpt>
<trkpt lat="-35.3629109" lon="149.1652222">
  <ele>589.58</ele>
  <time>2026-08-27T18:28:03Z</time>
  <course>110.06</course>
  <speed>0.01</speed>
  <fix>3d</fix>
</trkpt>
<trkpt lat="-35.3629109" lon="149.1652221">
  <ele>589.52</ele>
  <time>2026-08-27T18:28:03Z</time>
  <course>339.59</course>
  <speed>0.0</speed>
  <fix>3d</fix>
</trkpt>
<trkpt lat="-35.3629109" lon="149.1652222">
  <ele>589.48</ele>
  <time>2026-08-27T18:28:03Z</time>
  <course>117.11</course>
  <speed>0.01</speed>
  <fix>3d</fix>
</trkpt>
<trkpt lat="-35.3629109" lon="149.1652222">
  <ele>589.42</ele>
  <time>2026-08-27T18:28:03Z</time>
  <course>339.6</course>
  <speed>0.0</speed>
  <fix>3d</fix>
</trkpt>
<trkpt lat="-35.3629109" lon="149.1652223">
  <ele>589.38</ele>
  <time>2026-08-27T18:28:03Z</time>
  <course>123.24</course>
  <speed>0.01</speed>
  <fix>3d</fix>
</trkpt>
<trkpt lat="-35.3629109" lon="149.1652222">
  <ele>589.32</ele>
  <time>2026-08-27T18:28:03Z</time>
  <course>339.61</course>
  <speed>0.0</speed>
  <fix>3d</fix>
</trkpt>
<trkpt lat="-35.3629109" lon="149.1652224">
  <ele>589.28</ele>
  <time>2026-08-27T18:28:03Z</time>
  <course>129.04</course>
  <speed>0.01</speed>
  <fix>3d</fix>
</trkpt>
<trkpt lat="-35.3629109" lon="149.1652222">
  <ele>589.22</ele>
  <time>2026-08-27T18:28:03Z</time>
  <course>339.62</course>
  <speed>0.01</speed>
  <fix>3d</fix>
</trkpt>
<trkpt lat="-35.3629109" lon="149.1652224">
  <ele>589.18</ele>
  <time>2026-08-27T18:28:03Z</time>
  <course>136.18</course>
  <speed>0.01</speed>
  <fix>3d</fix>
</trkpt>
<trkpt lat="-35.3629109" lon="149.1652222">
  <ele>589.12</ele>
  <time>2026-08-27T18:28:03Z</time>
  <course>339.61</course>
  <speed>0.01</speed>
  <fix>3d</fix>
</trkpt>
<trkpt lat="-35.3629109" lon="149.1652224">
  <ele>589.08</ele>
  <time>2026-08-27T18:28:03Z</time>
  <course>143.23</course>
  <speed>0.01</speed>
  <fix>3d</fix>
</trkpt>
<trkpt lat="-35.3629109" lon="149.1652222">
  <ele>589.02</ele>
  <time>2026-08-27T18:28:03Z</time>
  <course>339.61</course>
  <speed>0.01</speed>
  <fix>3d</fix>
</trkpt>
<trkpt lat="-35.3629109" lon="149.1652224">
  <ele>588.98</ele>
  <time>2026-08-27T18:28:03Z</time>
  <course>149.07</course>
  <speed>0.01</speed>
  <fix>3d</fix>
</trkpt>
<trkpt lat="-35.3629109" lon="149.1652222">
  <ele>588.92</ele>
  <time>2026-08-27T18:28:03Z</time>
  <course>339.61</course>
  <speed>0.01</speed>
  <fix>3d</fix>
</trkpt>
<trkpt lat="-35.3629109" lon="149.1652225">
  <ele>588.87</ele>
  <time>2026-08-27T18:28:03Z</time>
  <course>156.3</course>
  <speed>0.01</speed>
  <fix>3d</fix>
</trkpt>
<trkpt lat="-35.3629109" lon="149.1652222">
  <ele>588.82</ele>
  <time>2026-08-27T18:28:03Z</time>
  <course>339.62</course>
  <speed>0.01</speed>
  <fix>3d</fix>
</trkpt>
<trkpt lat="-35.3629109" lon="149.1652225">
  <ele>588.77</ele>
  <time>2026-08-27T18:28:03Z</time>
  <course>165.47</course>
  <speed>0.01</speed>
  <fix>3d</fix>
</trkpt>
<trkpt lat="-35.3629109" lon="149.1652222">
  <ele>588.72</ele>
  <time>2026-08-27T18:28:03Z</time>
  <course>339.61</course>
  <speed>0.01</speed>
  <fix>3d</fix>
</trkpt>
<trkpt lat="-35.3629109" lon="149.1652225">
  <ele>588.67</ele>
  <time>2026-08-27T18:28:03Z</time>
  <course>173.95</course>
  <speed>0.0</speed>
  <fix>3d</fix>
</trkpt>
<trkpt lat="-35.3629109" lon="149.1652222">
  <ele>588.61</ele>
  <time>2026-08-27T18:28:03Z</time>
  <course>339.62</course>
  <speed>0.01</speed>
  <fix>3d</fix>
</trkpt>
<trkpt lat="-35.362911" lon="149.1652225">
  <ele>588.57</ele>
  <time>2026-08-27T18:28:03Z</time>
  <course>182.31</course>
  <speed>0.0</speed>
  <fix>3d</fix>
</trkpt>
<trkpt lat="-35.3629109" lon="149.1652222">
  <ele>588.51</ele>
  <time>2026-08-27T18:28:03Z</time>
  <course>339.61</course>
  <speed>0.02</speed>
  <fix>3d</fix>
</trkpt>
<trkpt lat="-35.3629111" lon="149.1652225">
  <ele>588.47</ele>
  <time>2026-08-27T18:28:03Z</time>
  <course>192.89</course>
  <speed>0.0</speed>
  <fix>3d</fix>
</trkpt>
<trkpt lat="-35.3629109" lon="149.1652223">
  <ele>588.41</ele>
  <time>2026-08-27T18:28:03Z</time>
  <course>339.6</course>
  <speed>0.02</speed>
  <fix>3d</fix>
</trkpt>
<trkpt lat="-35.3629111" lon="149.1652225">
  <ele>588.37</ele>
  <time>2026-08-27T18:28:03Z</time>
  <course>203.36</course>
  <speed>0.0</speed>
  <fix>3d</fix>
</trkpt>
<trkpt lat="-35.3629109" lon="149.1652223">
  <ele>588.31</ele>
  <time>2026-08-27T18:28:03Z</time>
  <course>339.62</course>
  <speed>0.02</speed>
  <fix>3d</fix>
</trkpt>
<trkpt lat="-35.3629111" lon="149.1652225">
  <ele>588.27</ele>
  <time>2026-08-27T18:28:03Z</time>
  <course>212.84</course>
  <speed>0.0</speed>
  <fix>3d</fix>
</trkpt>
<trkpt lat="-35.362911" lon="149.1652223">
  <ele>588.21</ele>
  <time>2026-08-27T18:28:03Z</time>
  <course>339.61</course>
  <speed>0.02</speed>
  <fix>3d</fix>
</trkpt>
<trkpt lat="-35.3629111" lon="149.1652225">
  <ele>588.17</ele>
  <time>2026-08-27T18:28:03Z</time>
  <course>222.89</course>
  <speed>0.0</speed>
  <fix>3d</fix>
</trkpt>
<trkpt lat="-35.362911" lon="149.1652223">
  <ele>588.11</ele>
  <time>2026-08-27T18:28:03Z</time>
  <course>339.63</course>
  <speed>0.02</speed>
  <fix>3d</fix>
</trkpt>
<trkpt lat="-35.3629111" lon="149.1652225">
  <ele>588.07</ele>
  <time>2026-08-27T18:28:03Z</time>
  <course>234.86</course>
  <speed>0.0</speed>
  <fix>3d</fix>
</trkpt>
<trkpt lat="-35.362911" lon="149.1652223">
  <ele>588.01</ele>
  <time>2026-08-27T18:28:03Z</time>
  <course>339.62</course>
  <speed>0.02</speed>
  <fix>3d</fix>
</trkpt>
<trkpt lat="-35.3629111" lon="149.1652225">
  <ele>587.97</ele>
  <time>2026-08-27T18:28:03Z</time>
  <course>246.98</course>
  <speed>0.0</speed>
  <fix>3d</fix>
</trkpt>
<trkpt lat="-35.362911" lon="149.1652223">
  <ele>587.91</ele>
  <time>2026-08-27T18:28:03Z</time>
  <course>339.62</course>
  <speed>0.02</speed>
  <fix>3d</fix>
</trkpt>
<trkpt lat="-35.3629111" lon="149.1652225">
  <ele>587.87</ele>
  <time>2026-08-27T18:28:03Z</time>
  <course>258.52</course>
  <speed>0.0</speed>
  <fix>3d</fix>
</trkpt>
<trkpt lat="-35.362911" lon="149.1652223">
  <ele>587.81</ele>
  <time>2026-08-27T18:28:03Z</time>
  <course>339.62</course>
  <speed>0.022360679774997897</speed>
  <fix>3d</fix>
</trkpt>
<trkpt lat="-35.3629111" lon="149.1652225">
  <ele>587.77</ele>
  <time>2026-08-27T18:28:03Z</time>
  <course>268.93</course>
  <speed>0.0</speed>
  <fix>3d</fix>
</trkpt>
<trkpt lat="-35.362911" lon="149.1652223">
  <ele>587.71</ele>
  <time>2026-08-27T18:28:03Z</time>
  <course>339.62</course>
  <speed>0.022360679774997897</speed>
  <fix>3d</fix>
</trkpt>
<trkpt lat="-35.3629111" lon="149.1652224">
  <ele>587.67</ele>
  <time>2026-08-27T18:28:03Z</time>
  <course>277.23</course>
  <speed>0.0</speed>
  <fix>3d</fix>
</trkpt>
<trkpt lat="-35.362911" lon="149.1652223">
  <ele>587.61</ele>
  <time>2026-08-27T18:28:03Z</time>
  <course>339.62</course>
  <speed>0.022360679774997897</speed>
  <fix>3d</fix>
</trkpt>
<trkpt lat="-35.3629111" lon="149.1652224">
  <ele>587.57</ele>
  <time>2026-08-27T18:28:03Z</time>
  <course>282.58</course>
  <speed>0.0</speed>
  <fix>3d</fix>
</trkpt>
<trkpt lat="-35.362911" lon="149.1652223">
  <ele>587.51</ele>
  <time>2026-08-27T18:28:03Z</time>
  <course>339.61</course>
  <speed>0.022360679774997897</speed>
  <fix>3d</fix>
</trkpt>
<trkpt lat="-35.3629111" lon="149.1652224">
  <ele>587.47</ele>
  <time>2026-08-27T18:28:03Z</time>
  <course>286.24</course>
  <speed>0.01</speed>
  <fix>3d</fix>
</trkpt>
<trkpt lat="-35.362911" lon="149.1652223">
  <ele>587.41</ele>
  <time>2026-08-27T18:28:03Z</time>
  <course>339.63</course>
  <speed>0.022360679774997897</speed>
  <fix>3d</fix>
</trkpt>
<trkpt lat="-35.3629111" lon="149.1652224">
  <ele>587.37</ele>
  <time>2026-08-27T18:28:03Z</time>
  <course>289.52</course>
  <speed>0.01</speed>
  <fix>3d</fix>
</trkpt>
<trkpt lat="-35.362911" lon="149.1652222">
  <ele>587.32</ele>
  <time>2026-08-27T18:28:03Z</time>
  <course>339.63</course>
  <speed>0.022360679774997897</speed>
  <fix>3d</fix>
</trkpt>
<trkpt lat="-35.3629111" lon="149.1652224">
  <ele>587.27</ele>
  <time>2026-08-27T18:28:03Z</time>
  <course>293.77</course>
  <speed>0.0</speed>
  <fix>3d</fix>
</trkpt>
<trkpt lat="-35.362911" lon="149.1652222">
  <ele>587.22</ele>
  <time>2026-08-27T18:28:03Z</time>
  <course>339.65</course>
  <speed>0.022360679774997897</speed>
  <fix>3d</fix>
</trkpt>
<trkpt lat="-35.3629111" lon="149.1652223">
  <ele>587.17</ele>
  <time>2026-08-27T18:28:03Z</time>
  <course>298.09</course>
  <speed>0.0</speed>
  <fix>3d</fix>
</trkpt>
<trkpt lat="-35.362911" lon="149.1652222">
  <ele>587.12</ele>
  <time>2026-08-27T18:28:03Z</time>
  <course>339.63</course>
  <speed>0.022360679774997897</speed>
  <fix>3d</fix>
</trkpt>
<trkpt lat="-35.3629111" lon="149.1652222">
  <ele>587.07</ele>
  <time>2026-08-27T18:28:03Z</time>
  <course>301.43</course>
  <speed>0.0</speed>
  <fix>3d</fix>
</trkpt>
<trkpt lat="-35.362911" lon="149.1652222">
  <ele>587.02</ele>
  <time>2026-08-27T18:28:03Z</time>
  <course>339.63</course>
  <speed>0.022360679774997897</speed>
  <fix>3d</fix>
</trkpt>
<trkpt lat="-35.3629111" lon="149.1652222">
  <ele>586.97</ele>
  <time>2026-08-27T18:28:03Z</time>
  <course>306.45</course>
  <speed>0.0</speed>
  <fix>3d</fix>
</trkpt>
<trkpt lat="-35.362911" lon="149.1652222">
  <ele>586.92</ele>
  <time>2026-08-27T18:28:03Z</time>
  <course>339.64</course>
  <speed>0.01414213562373095</speed>
  <fix>3d</fix>
</trkpt>
<trkpt lat="-35.3629111" lon="149.1652222">
  <ele>586.87</ele>
  <time>2026-08-27T18:28:03Z</time>
  <course>312.35</course>
  <speed>0.0</speed>
  <fix>3d</fix>
</trkpt>
<trkpt lat="-35.362911" lon="149.1652222">
  <ele>586.82</ele>
  <time>2026-08-27T18:28:03Z</time>
  <course>339.64</course>
  <speed>0.01414213562373095</speed>
  <fix>3d</fix>
</trkpt>
<trkpt lat="-35.3629111" lon="149.1652222">
  <ele>586.77</ele>
  <time>2026-08-27T18:28:03Z</time>
  <course>318.78</course>
  <speed>0.0</speed>
  <fix>3d</fix>
</trkpt>
<trkpt lat="-35.362911" lon="149.1652221">
  <ele>586.72</ele>
  <time>2026-08-27T18:28:03Z</time>
  <course>339.64</course>
  <speed>0.01414213562373095</speed>
  <fix>3d</fix>
</trkpt>
<trkpt lat="-35.3629111" lon="149.1652222">
  <ele>586.67</ele>
  <time>2026-08-27T18:28:03Z</time>
  <course>328.46</course>
  <speed>0.0</speed>
  <fix>3d</fix>
</trkpt>
<trkpt lat="-35.362911" lon="149.1652221">
  <ele>586.62</ele>
  <time>2026-08-27T18:28:03Z</time>
  <course>339.66</course>
  <speed>0.01414213562373095</speed>
  <fix>3d</fix>
</trkpt>
<trkpt lat="-35.3629111" lon="149.1652222">
  <ele>586.57</ele>
  <time>2026-08-27T18:28:03Z</time>
  <course>344.21</course>
  <speed>0.0</speed>
  <fix>3d</fix>
</trkpt>
<trkpt lat="-35.362911" lon="149.1652221">
  <ele>586.52</ele>
  <time>2026-08-27T18:28:03Z</time>
  <course>339.67</course>
  <speed>0.01414213562373095</speed>
  <fix>3d</fix>
</trkpt>
<trkpt lat="-35.3629111" lon="149.1652222">
  <ele>586.47</ele>
  <time>2026-08-27T18:28:03Z</time>
  <course>4.42</course>
  <speed>0.0</speed>
  <fix>3d</fix>
</trkpt>
<trkpt lat="-35.362911" lon="149.1652221">
  <ele>586.42</ele>
  <time>2026-08-27T18:28:03Z</time>
  <course>339.66</course>
  <speed>0.01414213562373095</speed>
  <fix>3d</fix>
</trkpt>
<trkpt lat="-35.3629111" lon="149.1652222">
  <ele>586.37</ele>
  <time>2026-08-27T18:28:03Z</time>
  <course>21.46</course>
  <speed>0.0</speed>
  <fix>3d</fix>
</trkpt>
<trkpt lat="-35.362911" lon="149.1652221">
  <ele>586.32</ele>
  <time>2026-08-27T18:28:03Z</time>
  <course>339.66</course>
  <speed>0.01414213562373095</speed>
  <fix>3d</fix>
</trkpt>
<trkpt lat="-35.3629111" lon="149.1652222">
  <ele>586.26</ele>
  <time>2026-08-27T18:28:03Z</time>
  <course>30.81</course>
  <speed>0.0</speed>
  <fix>3d</fix>
</trkpt>
<trkpt lat="-35.362911" lon="149.1652221">
  <ele>586.22</ele>
  <time>2026-08-27T18:28:03Z</time>
  <course>339.65</course>
  <speed>0.01414213562373095</speed>
  <fix>3d</fix>
</trkpt>
<trkpt lat="-35.3629111" lon="149.1652222">
  <ele>586.16</ele>
  <time>2026-08-27T18:28:03Z</time>
  <course>38.23</course>
  <speed>0.0</speed>
  <fix>3d</fix>
</trkpt>
<trkpt lat="-35.362911" lon="149.1652221">
  <ele>586.11</ele>
  <time>2026-08-27T18:28:03Z</time>
  <course>339.65</course>
  <speed>0.01414213562373095</speed>
  <fix>3d</fix>
</trkpt>
<trkpt lat="-35.3629111" lon="149.1652222">
  <ele>586.06</ele>
  <time>2026-08-27T18:28:03Z</time>
  <course>45.08</course>
  <speed>0.0</speed>
  <fix>3d</fix>
</trkpt>
<trkpt lat="-35.362911" lon="149.1652221">
  <ele>586.01</ele>
  <time>2026-08-27T18:28:03Z</time>
  <course>339.65</course>
  <speed>0.01414213562373095</speed>
  <fix>3d</fix>
</trkpt>
<trkpt lat="-35.3629111" lon="149.1652222">
  <ele>585.95</ele>
  <time>2026-08-27T18:28:03Z</time>
  <course>49.91</course>
  <speed>0.0</speed>
  <fix>3d</fix>
</trkpt>
<trkpt lat="-35.362911" lon="149.1652221">
  <ele>585.91</ele>
  <time>2026-08-27T18:28:03Z</time>
  <course>339.64</course>
  <speed>0.01414213562373095</speed>
  <fix>3d</fix>
</trkpt>
<trkpt lat="-35.3629111" lon="149.1652222">
  <ele>585.86</ele>
  <time>2026-08-27T18:28:03Z</time>
  <course>53.48</course>
  <speed>0.0</speed>
  <fix>3d</fix>
</trkpt>
<trkpt lat="-35.362911" lon="149.1652221">
  <ele>585.81</ele>
  <time>2026-08-27T18:28:03Z</time>
  <course>339.64</course>
  <speed>0.01</speed>
  <fix>3d</fix>
</trkpt>
<trkpt lat="-35.3629111" lon="149.1652222">
  <ele>585.76</ele>
  <time>2026-08-27T18:28:03Z</time>
  <course>56.01</course>
  <speed>0.0</speed>
  <fix>3d</fix>
</trkpt>
<trkpt lat="-35.362911" lon="149.1652221">
  <ele>585.72</ele>
  <time>2026-08-27T18:28:03Z</time>
  <course>339.67</course>
  <speed>0.01</speed>
  <fix>3d</fix>
</trkpt>
<trkpt lat="-35.3629111" lon="149.1652222">
  <ele>585.66</ele>
  <time>2026-08-27T18:28:03Z</time>
  <course>57.11</course>
  <speed>0.0</speed>
  <fix>3d</fix>
</trkpt>
<trkpt lat="-35.362911" lon="149.1652221">
  <ele>585.62</ele>
  <time>2026-08-27T18:28:03Z</time>
  <course>339.66</course>
  <speed>0.01</speed>
  <fix>3d</fix>
</trkpt>
<trkpt lat="-35.3629111" lon="149.1652222">
  <ele>585.56</ele>
  <time>2026-08-27T18:28:03Z</time>
  <course>57.35</course>
  <speed>0.0</speed>
  <fix>3d</fix>
</trkpt>
<trkpt lat="-35.362911" lon="149.1652221">
  <ele>585.52</ele>
  <time>2026-08-27T18:28:03Z</time>
  <course>339.66</course>
  <speed>0.01</speed>
  <fix>3d</fix>
</trkpt>
<trkpt lat="-35.3629111" lon="149.1652222">
  <ele>585.45</ele>
  <time>2026-08-27T18:28:03Z</time>
  <course>56.72</course>
  <speed>0.0</speed>
  <fix>3d</fix>
</trkpt>
<trkpt lat="-35.362911" lon="149.1652221">
  <ele>585.42</ele>
  <time>2026-08-27T18:28:03Z</time>
  <course>339.67</course>
  <speed>0.01</speed>
  <fix>3d</fix>
</trkpt>
<trkpt lat="-35.362911" lon="149.1652222">
  <ele>585.36</ele>
  <time>2026-08-27T18:28:03Z</time>
  <course>55.58</course>
  <speed>0.0</speed>
  <fix>3d</fix>
</trkpt>
<trkpt lat="-35.362911" lon="149.1652221">
  <ele>585.32</ele>
  <time>2026-08-27T18:28:03Z</time>
  <course>339.68</course>
  <speed>0.01414213562373095</speed>
  <fix>3d</fix>
</trkpt>
<trkpt lat="-35.3629109" lon="149.1652222">
  <ele>585.26</ele>
  <time>2026-08-27T18:28:03Z</time>
  <course>54.1</course>
  <speed>0.0</speed>
  <fix>3d</fix>
</trkpt>
<trkpt lat="-35.362911" lon="149.1652221">
  <ele>585.22</ele>
  <time>2026-08-27T18:28:03Z</time>
  <course>339.68</course>
  <speed>0.01414213562373095</speed>
  <fix>3d</fix>
</trkpt>
<trkpt lat="-35.3629109" lon="149.1652222">
  <ele>585.16</ele>
  <time>2026-08-27T18:28:03Z</time>
  <course>54.58</course>
  <speed>0.0</speed>
  <fix>3d</fix>
</trkpt>
<trkpt lat="-35.362911" lon="149.1652221">
  <ele>585.12</ele>
  <time>2026-08-27T18:28:03Z</time>
  <course>339.66</course>
  <speed>0.01414213562373095</speed>
  <fix>3d</fix>
</trkpt>
<trkpt lat="-35.3629109" lon="149.1652222">
  <ele>585.06</ele>
  <time>2026-08-27T18:28:03Z</time>
  <course>58.78</course>
  <speed>0.0</speed>
  <fix>3d</fix>
</trkpt>
<trkpt lat="-35.362911" lon="149.1652221">
  <ele>585.02</ele>
  <time>2026-08-27T18:28:03Z</time>
  <course>339.66</course>
  <speed>0.01</speed>
  <fix>3d</fix>
</trkpt>
<trkpt lat="-35.3629109" lon="149.1652223">
  <ele>584.95</ele>
  <time>2026-08-27T18:28:03Z</time>
  <course>65.23</course>
  <speed>0.0</speed>
  <fix>3d</fix>
</trkpt>
<trkpt lat="-35.362911" lon="149.1652221">
  <ele>584.92</ele>
  <time>2026-08-27T18:28:03Z</time>
  <course>339.67</course>
  <speed>0.01</speed>
  <fix>3d</fix>
</trkpt>
<trkpt lat="-35.3629109" lon="149.1652224">
  <ele>584.86</ele>
  <time>2026-08-27T18:28:03Z</time>
  <course>74.89</course>
  <speed>0.0</speed>
  <fix>3d</fix>
</trkpt>
<trkpt lat="-35.362911" lon="149.1652221">
  <ele>584.82</ele>
  <time>2026-08-27T18:28:03Z</time>
  <course>339.67</course>
  <speed>0.01</speed>
  <fix>3d</fix>
</trkpt>
<trkpt lat="-35.3629109" lon="149.1652224">
  <ele>584.75</ele>
  <time>2026-08-27T18:28:03Z</time>
  <course>87.01</course>
  <speed>0.0</speed>
  <fix>3d</fix>
</trkpt>
<trkpt lat="-35.362911" lon="149.1652222">
  <ele>584.72</ele>
  <time>2026-08-27T18:28:03Z</time>
  <course>339.68</course>
  <speed>0.01</speed>
  <fix>3d</fix>
</trkpt>
<trkpt lat="-35.3629109" lon="149.1652224">
  <ele>584.65</ele>
  <time>2026-08-27T18:28:03Z</time>
  <course>99.73</course>
  <speed>0.0</speed>
  <fix>3d</fix>
</trkpt>
<trkpt lat="-35.3629109" lon="149.1652222">
  <ele>584.62</ele>
  <time>2026-08-27T18:28:03Z</time>
  <course>339.66</course>
  <speed>0.01</speed>
  <fix>3d</fix>
</trkpt>
<trkpt lat="-35.3629109" lon="149.1652224">
  <ele>584.55</ele>
  <time>2026-08-27T18:28:03Z</time>
  <course>113.63</course>
  <speed>0.0</speed>
  <fix>3d</fix>
</trkpt>
<trkpt lat="-35.3629109" lon="149.1652222">
  <ele>584.52</ele>
  <time>2026-08-27T18:28:03Z</time>
  <course>339.67</course>
  <speed>0.01</speed>
  <fix>3d</fix>
</trkpt>
<trkpt lat="-35.3629109" lon="149.1652224">
  <ele>584.45</ele>
  <time>2026-08-27T18:28:03Z</time>
  <course>127.1</course>
  <speed>0.0</speed>
  <fix>3d</fix>
</trkpt>
<trkpt lat="-35.3629109" lon="149.1652222">
  <ele>584.42</ele>
  <time>2026-08-27T18:28:04Z</time>
  <course>339.68</course>
  <speed>0.01</speed>
  <fix>3d</fix>
</trkpt>
<trkpt lat="-35.3629109" lon="149.1652224">
  <ele>584.35</ele>
  <time>2026-08-27T18:28:04Z</time>
  <course>142.01</course>
  <speed>0.0</speed>
  <fix>3d</fix>
</trkpt>
<trkpt lat="-35.362911" lon="149.1652222">
  <ele>584.32</ele>
  <time>2026-08-27T18:28:04Z</time>
  <course>339.7</course>
  <speed>0.01</speed>
  <fix>3d</fix>
</trkpt>
<trkpt lat="-35.3629109" lon="149.1652224">
  <ele>584.25</ele>
  <time>2026-08-27T18:28:04Z</time>
  <course>159.66</course>
  <speed>0.0</speed>
  <fix>3d</fix>
</trkpt>
<trkpt lat="-35.362911" lon="149.1652222">
  <ele>584.22</ele>
  <time>2026-08-27T18:28:04Z</time>
  <course>339.68</course>
  <speed>0.01</speed>
  <fix>3d</fix>
</trkpt>
<trkpt lat="-35.3629109" lon="149.1652224">
  <ele>584.15</ele>
  <time>2026-08-27T18:28:04Z</time>
  <course>171.89</course>
  <speed>0.0</speed>
  <fix>3d</fix>
</trkpt>
<trkpt lat="-35.362911" lon="149.1652222">
  <ele>584.12</ele>
  <time>2026-08-27T18:28:04Z</time>
  <course>339.66</course>
  <speed>0.01</speed>
  <fix>3d</fix>
</trkpt>
<trkpt lat="-35.3629109" lon="149.1652225">
  <ele>584.05</ele>
  <time>2026-08-27T18:28:04Z</time>
  <course>177.62</course>
  <speed>0.0</speed>
  <fix>3d</fix>
</trkpt>
<trkpt lat="-35.362911" lon="149.1652222">
  <ele>584.02</ele>
  <time>2026-08-27T18:28:04Z</time>
  <course>339.67</course>
  <speed>0.01</speed>
  <fix>3d</fix>
</trkpt>
<trkpt lat="-35.3629109" lon="149.1652225">
  <ele>583.94</ele>
  <time>2026-08-27T18:28:04Z</time>
  <course>181.3</course>
  <speed>0.0</speed>
  <fix>3d</fix>
</trkpt>
<trkpt lat="-35.362911" lon="149.1652223">
  <ele>583.92</ele>
  <time>2026-08-27T18:28:04Z</time>
  <course>339.68</course>
  <speed>0.01</speed>
  <fix>3d</fix>
</trkpt>
<trkpt lat="-35.3629109" lon="149.1652224">
  <ele>583.83</ele>
  <time>2026-08-27T18:28:04Z</time>
  <course>186.18</course>
  <speed>0.0</speed>
  <fix>3d</fix>
</trkpt>
<trkpt lat="-35.362911" lon="149.1652223">
  <ele>583.82</ele>
  <time>2026-08-27T18:28:04Z</time>
  <course>339.67</course>
  <speed>0.02</speed>
  <fix>3d</fix>
</trkpt>
<trkpt lat="-35.3629109" lon="149.1652224">
  <ele>583.74</ele>
  <time>2026-08-27T18:28:04Z</time>
  <course>192.6</course>
  <speed>0.0</speed>
  <fix>3d</fix>
</trkpt>
<trkpt lat="-35.362911" lon="149.1652223">
  <ele>583.72</ele>
  <time>2026-08-27T18:28:04Z</time>
  <course>339.68</course>
  <speed>0.02</speed>
  <fix>3d</fix>
</trkpt>
<trkpt lat="-35.3629109" lon="149.1652224">
  <ele>583.64</ele>
  <time>2026-08-27T18:28:04Z</time>
  <course>198.35</course>
  <speed>0.0</speed>
  <fix>3d</fix>
</trkpt>
<trkpt lat="-35.362911" lon="149.1652223">
  <ele>583.62</ele>
  <time>2026-08-27T18:28:04Z</time>
  <course>339.67</course>
  <speed>0.02</speed>
  <fix>3d</fix>
</trkpt>
<trkpt lat="-35.3629109" lon="149.1652224">
  <ele>583.54</ele>
  <time>2026-08-27T18:28:04Z</time>
  <course>202.07</course>
  <speed>0.0</speed>
  <fix>3d</fix>
</trkpt>
<trkpt lat="-35.362911" lon="149.1652223">
  <ele>583.51</ele>
  <time>2026-08-27T18:28:04Z</time>
  <course>339.67</course>
  <speed>0.02</speed>
  <fix>3d</fix>
</trkpt>
<trkpt lat="-35.362911" lon="149.1652224">
  <ele>583.44</ele>
  <time>2026-08-27T18:28:04Z</time>
  <course>204.06</course>
  <speed>0.01</speed>
  <fix>3d</fix>
</trkpt>
<trkpt lat="-35.362911" lon="149.1652223">
  <ele>583.41</ele>
  <time>2026-08-27T18:28:04Z</time>
  <course>339.67</course>
  <speed>0.02</speed>
  <fix>3d</fix>
</trkpt>
<trkpt lat="-35.3629111" lon="149.1652224">
  <ele>583.33</ele>
  <time>2026-08-27T18:28:04Z</time>
  <course>205.72</course>
  <speed>0.01</speed>
  <fix>3d</fix>
</trkpt>
<trkpt lat="-35.362911" lon="149.1652223">
  <ele>583.31</ele>
  <time>2026-08-27T18:28:04Z</time>
  <course>339.69</course>
  <speed>0.02</speed>
  <fix>3d</fix>
</trkpt>
<trkpt lat="-35.3629111" lon="149.1652224">
  <ele>583.24</ele>
  <time>2026-08-27T18:28:04Z</time>
  <course>206.97</course>
  <speed>0.01</speed>
  <fix>3d</fix>
</trkpt>
<trkpt lat="-35.362911" lon="149.1652223">
  <ele>583.21</ele>
  <time>2026-08-27T18:28:04Z</time>
  <course>339.65</course>
  <speed>0.02</speed>
  <fix>3d</fix>
</trkpt>
<trkpt lat="-35.3629111" lon="149.1652224">
  <ele>583.14</ele>
  <time>2026-08-27T18:28:04Z</time>
  <course>207.82</course>
  <speed>0.0</speed>
  <fix>3d</fix>
</trkpt>
<trkpt lat="-35.362911" lon="149.1652223">
  <ele>583.11</ele>
  <time>2026-08-27T18:28:04Z</time>
  <course>339.64</course>
  <speed>0.02</speed>
  <fix>3d</fix>
</trkpt>
<trkpt lat="-35.3629111" lon="149.1652224">
  <ele>583.04</ele>
  <time>2026-08-27T18:28:04Z</time>
  <course>211.45</course>
  <speed>0.0</speed>
  <fix>3d</fix>
</trkpt>
<trkpt lat="-35.362911" lon="149.1652223">
  <ele>583.01</ele>
  <time>2026-08-27T18:28:04Z</time>
  <course>339.64</course>
  <speed>0.02</speed>
  <fix>3d</fix>
</trkpt>
<trkpt lat="-35.3629111" lon="149.1652224">
  <ele>582.94</ele>
  <time>2026-08-27T18:28:04Z</time>
  <course>216.45</course>
  <speed>0.0</speed>
  <fix>3d</fix>
</trkpt>
<trkpt lat="-35.362911" lon="149.1652223">
  <ele>582.91</ele>
  <time>2026-08-27T18:28:04Z</time>
  <course>339.67</course>
  <speed>0.02</speed>
  <fix>3d</fix>
</trkpt>
<trkpt lat="-35.3629111" lon="149.1652224">
  <ele>582.85</ele>
  <time>2026-08-27T18:28:04Z</time>
  <course>224.09</course>
  <speed>0.0</speed>
  <fix>3d</fix>
</trkpt>
<trkpt lat="-35.362911" lon="149.1652223">
  <ele>582.81</ele>
  <time>2026-08-27T18:28:04Z</time>
  <course>339.67</course>
  <speed>0.02</speed>
  <fix>3d</fix>
</trkpt>
<trkpt lat="-35.3629111" lon="149.1652224">
  <ele>582.75</ele>
  <time>2026-08-27T18:28:04Z</time>
  <course>238.27</course>
  <speed>0.0</speed>
  <fix>3d</fix>
</trkpt>
<trkpt lat="-35.362911" lon="149.1652222">
  <ele>582.71</ele>
  <time>2026-08-27T18:28:04Z</time>
  <course>339.69</course>
  <speed>0.02</speed>
  <fix>3d</fix>
</trkpt>
<trkpt lat="-35.3629112" lon="149.1652224">
  <ele>582.65</ele>
  <time>2026-08-27T18:28:04Z</time>
  <course>256.51</course>
  <speed>0.0</speed>
  <fix>3d</fix>
</trkpt>
<trkpt lat="-35.362911" lon="149.1652222">
  <ele>582.61</ele>
  <time>2026-08-27T18:28:04Z</time>
  <course>339.68</course>
  <speed>0.01414213562373095</speed>
  <fix>3d</fix>
</trkpt>
<trkpt lat="-35.3629112" lon="149.1652224">
  <ele>582.55</ele>
  <time>2026-08-27T18:28:04Z</time>
  <course>272.94</course>
  <speed>0.0</speed>
  <fix>3d</fix>
</trkpt>
<trkpt lat="-35.362911" lon="149.1652222">
  <ele>582.51</ele>
  <time>2026-08-27T18:28:04Z</time>
  <course>339.68</course>
  <speed>0.01414213562373095</speed>
  <fix>3d</fix>
</trkpt>
<trkpt lat="-35.3629111" lon="149.1652224">
  <ele>582.45</ele>
  <time>2026-08-27T18:28:04Z</time>
  <course>289.32</course>
  <speed>0.0</speed>
  <fix>3d</fix>
</trkpt>
<trkpt lat="-35.362911" lon="149.1652222">
  <ele>582.41</ele>
  <time>2026-08-27T18:28:04Z</time>
  <course>339.68</course>
  <speed>0.01414213562373095</speed>
  <fix>3d</fix>
</trkpt>
<trkpt lat="-35.3629111" lon="149.1652224">
  <ele>582.35</ele>
  <time>2026-08-27T18:28:04Z</time>
  <course>305.95</course>
  <speed>0.0</speed>
  <fix>3d</fix>
</trkpt>
<trkpt lat="-35.362911" lon="149.1652222">
  <ele>582.31</ele>
  <time>2026-08-27T18:28:04Z</time>
  <course>339.68</course>
  <speed>0.022360679774997897</speed>
  <fix>3d</fix>
</trkpt>
<trkpt lat="-35.3629111" lon="149.1652224">
  <ele>582.25</ele>
  <time>2026-08-27T18:28:04Z</time>
  <course>319.02</course>
  <speed>0.0</speed>
  <fix>3d</fix>
</trkpt>
<trkpt lat="-35.362911" lon="149.1652222">
  <ele>582.28</ele>
  <time>2026-08-27T18:28:04Z</time>
  <course>339.68</course>
  <speed>0.03</speed>
  <fix>3d</fix>
</trkpt>
<trkpt lat="-35.3629111" lon="149.1652224">
  <ele>582.18</ele>
  <time>2026-08-27T18:28:04Z</time>
  <course>262.3</course>
  <speed>0.01</speed>
  <fix>3d</fix>
</trkpt>
<trkpt lat="-35.362911" lon="149.1652222">
  <ele>582.3</ele>
  <time>2026-08-27T18:28:04Z</time>
  <course>339.67</course>
  <speed>0.01414213562373095</speed>
  <fix>3d</fix>
</trkpt>
<trkpt lat="-35.3629111" lon="149.1652224">
  <ele>582.17</ele>
  <time>2026-08-27T18:28:04Z</time>
  <course>253.85</course>
  <speed>0.01</speed>
  <fix>3d</fix>
</trkpt>
<trkpt lat="-35.362911" lon="149.1652222">
  <ele>582.29</ele>
  <time>2026-08-27T18:28:04Z</time>
  <course>339.7</course>
  <speed>0.01</speed>
  <fix>3d</fix>
</trkpt>
<trkpt lat="-35.3629111" lon="149.1652224">
  <ele>582.18</ele>
  <time>2026-08-27T18:28:04Z</time>
  <course>44.81</course>
  <speed>0.0</speed>
  <fix>3d</fix>
</trkpt>
<trkpt lat="-35.362911" lon="149.1652222">
  <ele>582.29</ele>
  <time>2026-08-27T18:28:04Z</time>
  <course>339.74</course>
  <speed>0.01</speed>
  <fix>3d</fix>
</trkpt>
<trkpt lat="-35.3629111" lon="149.1652224">
  <ele>582.18</ele>
  <time>2026-08-27T18:28:04Z</time>
  <course>63.55</course>
  <speed>0.0</speed>
  <fix>3d</fix>
</trkpt>
<trkpt lat="-35.362911" lon="149.1652222">
  <ele>582.29</ele>
  <time>2026-08-27T18:28:04Z</time>
  <course>339.77</course>
  <speed>0.01</speed>
  <fix>3d</fix>
</trkpt>
<trkpt lat="-35.3629111" lon="149.1652224">
  <ele>582.18</ele>
  <time>2026-08-27T18:28:04Z</time>
  <course>287.15</course>
  <speed>0.0</speed>
  <fix>3d</fix>
</trkpt>
<trkpt lat="-35.362911" lon="149.1652223">
  <ele>582.29</ele>
  <time>2026-08-27T18:28:04Z</time>
  <course>339.8</course>
  <speed>0.01</speed>
  <fix>3d</fix>
</trkpt>
<trkpt lat="-35.3629111" lon="149.1652224">
  <ele>582.18</ele>
  <time>2026-08-27T18:28:04Z</time>
  <course>333.99</course>
  <speed>0.0</speed>
  <fix>3d</fix>
</trkpt>
<trkpt lat="-35.362911" lon="149.1652223">
  <ele>582.29</ele>
  <time>2026-08-27T18:28:04Z</time>
  <course>339.82</course>
  <speed>0.01</speed>
  <fix>3d</fix>
</trkpt>
<trkpt lat="-35.3629111" lon="149.1652224">
  <ele>582.18</ele>
  <time>2026-08-27T18:28:04Z</time>
  <course>16.34</course>
  <speed>0.0</speed>
  <fix>3d</fix>
</trkpt>
<trkpt lat="-35.362911" lon="149.1652223">
  <ele>582.29</ele>
  <time>2026-08-27T18:28:04Z</time>
  <course>339.85</course>
  <speed>0.01</speed>
  <fix>3d</fix>
</trkpt>
<trkpt lat="-35.3629111" lon="149.1652224">
  <ele>582.18</ele>
  <time>2026-08-27T18:28:04Z</time>
  <course>13.9</course>
  <speed>0.0</speed>
  <fix>3d</fix>
</trkpt>
<trkpt lat="-35.362911" lon="149.1652223">
  <ele>582.3</ele>
  <time>2026-08-27T18:28:04Z</time>
  <course>339.87</course>
  <speed>0.01</speed>
  <fix>3d</fix>
</trkpt>
<trkpt lat="-35.3629111" lon="149.1652224">
  <ele>582.18</ele>
  <time>2026-08-27T18:28:04Z</time>
  <course>357.86</course>
  <speed>0.0</speed>
  <fix>3d</fix>
</trkpt>
<trkpt lat="-35.362911" lon="149.1652223">
  <ele>582.3</ele>
  <time>2026-08-27T18:28:04Z</time>
  <course>339.9</course>
  <speed>0.01</speed>
  <fix>3d</fix>
</trkpt>
<trkpt lat="-35.3629111" lon="149.1652224">
  <ele>582.18</ele>
  <time>2026-08-27T18:28:04Z</time>
  <course>10.7</course>
  <speed>0.0</speed>
  <fix>3d</fix>
</trkpt>
<trkpt lat="-35.362911" lon="149.1652223">
  <ele>582.3</ele>
  <time>2026-08-27T18:28:04Z</time>
  <course>339.91</course>
  <speed>0.01</speed>
  <fix>3d</fix>
</trkpt>
<trkpt lat="-35.3629111" lon="149.1652224">
  <ele>582.18</ele>
  <time>2026-08-27T18:28:04Z</time>
  <course>69.28</course>
  <speed>0.0</speed>
  <fix>3d</fix>
</trkpt>
<trkpt lat="-35.362911" lon="149.1652223">
  <ele>582.3</ele>
  <time>2026-08-27T18:28:04Z</time>
  <course>339.89</course>
  <speed>0.0</speed>
  <fix>3d</fix>
</trkpt>
<trkpt lat="-35.3629111" lon="149.1652224">
  <ele>582.18</ele>
  <time>2026-08-27T18:28:04Z</time>
  <course>74.35</course>
  <speed>0.01</speed>
  <fix>3d</fix>
</trkpt>
<trkpt lat="-35.362911" lon="149.1652223">
  <ele>582.3</ele>
  <time>2026-08-27T18:28:04Z</time>
  <course>339.87</course>
  <speed>0.01</speed>
  <fix>3d</fix>
</trkpt>
<trkpt lat="-35.3629111" lon="149.1652224">
  <ele>582.18</ele>
  <time>2026-08-27T18:28:04Z</time>
  <course>82.53</course>
  <speed>0.0</speed>
  <fix>3d</fix>
</trkpt>
<trkpt lat="-35.362911" lon="149.1652223">
  <ele>582.3</ele>
  <time>2026-08-27T18:28:04Z</time>
  <course>339.86</course>
  <speed>0.01</speed>
  <fix>3d</fix>
</trkpt>
<trkpt lat="-35.3629111" lon="149.1652224">
  <ele>582.18</ele>
  <time>2026-08-27T18:28:04Z</time>
  <course>210.2</course>
  <speed>0.0</speed>
  <fix>3d</fix>
</trkpt>
<trkpt lat="-35.362911" lon="149.1652223">
  <ele>582.3</ele>
  <time>2026-08-27T18:28:04Z</time>
  <course>339.85</course>
  <speed>0.01</speed>
  <fix>3d</fix>
</trkpt>
<trkpt lat="-35.3629111" lon="149.1652224">
  <ele>582.18</ele>
  <time>2026-08-27T18:28:04Z</time>
  <course>225.35</course>
  <speed>0.0</speed>
  <fix>3d</fix>
</trkpt>
<trkpt lat="-35.362911" lon="149.1652223">
  <ele>582.3</ele>
  <time>2026-08-27T18:28:04Z</time>
  <course>339.85</course>
  <speed>0.01</speed>
  <fix>3d</fix>
</trkpt>
<trkpt lat="-35.3629111" lon="149.1652224">
  <ele>582.18</ele>
  <time>2026-08-27T18:28:04Z</time>
  <course>203.87</course>
  <speed>0.0</speed>
  <fix>3d</fix>
</trkpt>
<trkpt lat="-35.362911" lon="149.1652223">
  <ele>582.3</ele>
  <time>2026-08-27T18:28:04Z</time>
  <course>339.85</course>
  <speed>0.01</speed>
  <fix>3d</fix>
</trkpt>
<trkpt lat="-35.3629111" lon="149.1652224">
  <ele>582.18</ele>
  <time>2026-08-27T18:28:04Z</time>
  <course>200.52</course>
  <speed>0.0</speed>
  <fix>3d</fix>
</trkpt>
<trkpt lat="-35.362911" lon="149.1652223">
  <ele>582.3</ele>
  <time>2026-08-27T18:28:04Z</time>
  <course>339.85</course>
  <speed>0.01</speed>
  <fix>3d</fix>
</trkpt>
<trkpt lat="-35.3629111" lon="149.1652224">
  <ele>582.18</ele>
  <time>2026-08-27T18:28:04Z</time>
  <course>203.75</course>
  <speed>0.0</speed>
  <fix>3d</fix>
</trkpt>
<trkpt lat="-35.362911" lon="149.1652223">
  <ele>582.3</ele>
  <time>2026-08-27T18:28:04Z</time>
  <course>339.84</course>
  <speed>0.01</speed>
  <fix>3d</fix>
</trkpt>
<trkpt lat="-35.3629111" lon="149.1652224">
  <ele>582.18</ele>
  <time>2026-08-27T18:28:04Z</time>
  <course>36.78</course>
  <speed>0.0</speed>
  <fix>3d</fix>
</trkpt>
<trkpt lat="-35.362911" lon="149.1652223">
  <ele>582.3</ele>
  <time>2026-08-27T18:28:04Z</time>
  <course>339.84</course>
  <speed>0.01</speed>
  <fix>3d</fix>
</trkpt>
<trkpt lat="-35.3629111" lon="149.1652224">
  <ele>582.18</ele>
  <time>2026-08-27T18:28:04Z</time>
  <course>3.63</course>
  <speed>0.0</speed>
  <fix>3d</fix>
</trkpt>
<trkpt lat="-35.362911" lon="149.1652223">
  <ele>582.3</ele>
  <time>2026-08-27T18:28:04Z</time>
  <course>339.84</course>
  <speed>0.01</speed>
  <fix>3d</fix>
</trkpt>
<trkpt lat="-35.3629111" lon="149.1652224">
  <ele>582.18</ele>
  <time>2026-08-27T18:28:04Z</time>
  <course>237.56</course>
  <speed>0.0</speed>
  <fix>3d</fix>
</trkpt>
<trkpt lat="-35.362911" lon="149.1652223">
  <ele>582.3</ele>
  <time>2026-08-27T18:28:04Z</time>
  <course>339.84</course>
  <speed>0.01</speed>
  <fix>3d</fix>
</trkpt>
<trkpt lat="-35.3629111" lon="149.1652224">
  <ele>582.18</ele>
  <time>2026-08-27T18:28:04Z</time>
  <course>237.92</course>
  <speed>0.0</speed>
  <fix>3d</fix>
</trkpt>
<trkpt lat="-35.362911" lon="149.1652223">
  <ele>582.3</ele>
  <time>2026-08-27T18:28:04Z</time>
  <course>339.84</course>
  <speed>0.01</speed>
  <fix>3d</fix>
</trkpt>
<trkpt lat="-35.3629111" lon="149.1652224">
  <ele>582.18</ele>
  <time>2026-08-27T18:28:04Z</time>
  <course>260.04</course>
  <speed>0.0</speed>
  <fix>3d</fix>
</trkpt>
<trkpt lat="-35.362911" lon="149.1652223">
  <ele>582.3</ele>
  <time>2026-08-27T18:28:04Z</time>
  <course>339.83</course>
  <speed>0.01</speed>
  <fix>3d</fix>
</trkpt>
<trkpt lat="-35.3629111" lon="149.1652224">
  <ele>582.18</ele>
  <time>2026-08-27T18:28:04Z</time>
  <course>254.2</course>
  <speed>0.0</speed>
  <fix>3d</fix>
</trkpt>
<trkpt lat="-35.362911" lon="149.1652223">
  <ele>582.31</ele>
  <time>2026-08-27T18:28:04Z</time>
  <course>339.83</course>
  <speed>0.01</speed>
  <fix>3d</fix>
</trkpt>
<trkpt lat="-35.3629111" lon="149.1652224">
  <ele>582.18</ele>
  <time>2026-08-27T18:28:04Z</time>
  <course>250.39</course>
  <speed>0.0</speed>
  <fix>3d</fix>
</trkpt>
<trkpt lat="-35.362911" lon="149.1652223">
  <ele>582.31</ele>
  <time>2026-08-27T18:28:04Z</time>
  <course>339.83</course>
  <speed>0.01</speed>
  <fix>3d</fix>
</trkpt>
<trkpt lat="-35.3629111" lon="149.1652224">
  <ele>582.18</ele>
  <time>2026-08-27T18:28:04Z</time>
  <course>252.45</course>
  <speed>0.0</speed>
  <fix>3d</fix>
</trkpt>
<trkpt lat="-35.362911" lon="149.1652223">
  <ele>582.31</ele>
  <time>2026-08-27T18:28:04Z</time>
  <course>339.83</course>
  <speed>0.01</speed>
  <fix>3d</fix>
</trkpt>
<trkpt lat="-35.3629111" lon="149.1652224">
  <ele>582.18</ele>
  <time>2026-08-27T18:28:04Z</time>
  <course>253.77</course>
  <speed>0.0</speed>
  <fix>3d</fix>
</trkpt>
<trkpt lat="-35.362911" lon="149.1652223">
  <ele>582.31</ele>
  <time>2026-08-27T18:28:04Z</time>
  <course>339.83</course>
  <speed>0.01</speed>
  <fix>3d</fix>
</trkpt>
<trkpt lat="-35.3629111" lon="149.1652224">
  <ele>582.18</ele>
  <time>2026-08-27T18:28:04Z</time>
  <course>254.24</course>
  <speed>0.0</speed>
  <fix>3d</fix>
</trkpt>
<trkpt lat="-35.362911" lon="149.1652223">
  <ele>582.31</ele>
  <time>2026-08-27T18:28:04Z</time>
  <course>339.83</course>
  <speed>0.01</speed>
  <fix>3d</fix>
</trkpt>
<trkpt lat="-35.3629111" lon="149.1652224">
  <ele>582.18</ele>
  <time>2026-08-27T18:28:04Z</time>
  <course>252.82</course>
  <speed>0.0</speed>
  <fix>3d</fix>
</trkpt>
<trkpt lat="-35.362911" lon="149.1652223">
  <ele>582.32</ele>
  <time>2026-08-27T18:28:04Z</time>
  <course>339.82</course>
  <speed>0.01</speed>
  <fix>3d</fix>
</trkpt>
<trkpt lat="-35.3629111" lon="149.1652224">
  <ele>582.18</ele>
  <time>2026-08-27T18:28:04Z</time>
  <course>250.42</course>
  <speed>0.0</speed>
  <fix>3d</fix>
</trkpt>
<trkpt lat="-35.362911" lon="149.1652223">
  <ele>582.32</ele>
  <time>2026-08-27T18:28:04Z</time>
  <course>339.82</course>
  <speed>0.01</speed>
  <fix>3d</fix>
</trkpt>
<trkpt lat="-35.3629111" lon="149.1652224">
  <ele>582.18</ele>
  <time>2026-08-27T18:28:04Z</time>
  <course>250.34</course>
  <speed>0.0</speed>
  <fix>3d</fix>
</trkpt>
<trkpt lat="-35.362911" lon="149.1652223">
  <ele>582.32</ele>
  <time>2026-08-27T18:28:04Z</time>
  <course>339.82</course>
  <speed>0.01</speed>
  <fix>3d</fix>
</trkpt>
<trkpt lat="-35.3629111" lon="149.1652224">
  <ele>582.18</ele>
  <time>2026-08-27T18:28:04Z</time>
  <course>251.82</course>
  <speed>0.0</speed>
  <fix>3d</fix>
</trkpt>
<trkpt lat="-35.362911" lon="149.1652223">
  <ele>582.32</ele>
  <time>2026-08-27T18:28:04Z</time>
  <course>339.82</course>
  <speed>0.01</speed>
  <fix>3d</fix>
</trkpt>
<trkpt lat="-35.3629111" lon="149.1652224">
  <ele>582.18</ele>
  <time>2026-08-27T18:28:04Z</time>
  <course>68.87</course>
  <speed>0.0</speed>
  <fix>3d</fix>
</trkpt>
<trkpt lat="-35.362911" lon="149.1652223">
  <ele>582.32</ele>
  <time>2026-08-27T18:28:04Z</time>
  <course>339.82</course>
  <speed>0.01</speed>
  <fix>3d</fix>
</trkpt>
<trkpt lat="-35.3629111" lon="149.1652224">
  <ele>582.18</ele>
  <time>2026-08-27T18:28:04Z</time>
  <course>66.65</course>
  <speed>0.0</speed>
  <fix>3d</fix>
</trkpt>
<trkpt lat="-35.362911" lon="149.1652223">
  <ele>582.33</ele>
  <time>2026-08-27T18:28:04Z</time>
  <course>339.81</course>
  <speed>0.01</speed>
  <fix>3d</fix>
</trkpt>
<trkpt lat="-35.3629111" lon="149.1652224">
  <ele>582.18</ele>
  <time>2026-08-27T18:28:04Z</time>
  <course>64.19</course>
  <speed>0.0</speed>
  <fix>3d</fix>
</trkpt>
<trkpt lat="-35.362911" lon="149.1652223">
  <ele>582.32</ele>
  <time>2026-08-27T18:28:04Z</time>
  <course>339.81</course>
  <speed>0.01</speed>
  <fix>3d</fix>
</trkpt>
<trkpt lat="-35.3629111" lon="149.1652224">
  <ele>582.18</ele>
  <time>2026-08-27T18:28:04Z</time>
  <course>66.18</course>
  <speed>0.0</speed>
  <fix>3d</fix>
</trkpt>
<trkpt lat="-35.362911" lon="149.1652223">
  <ele>582.32</ele>
  <time>2026-08-27T18:28:04Z</time>
  <course>339.81</course>
  <speed>0.01</speed>
  <fix>3d</fix>
</trkpt>
<trkpt lat="-35.3629111" lon="149.1652224">
  <ele>582.18</ele>
  <time>2026-08-27T18:28:04Z</time>
  <course>66.27</course>
  <speed>0.0</speed>
  <fix>3d</fix>
</trkpt>
<trkpt lat="-35.362911" lon="149.1652223">
  <ele>582.32</ele>
  <time>2026-08-27T18:28:04Z</time>
  <course>339.81</course>
  <speed>0.01</speed>
  <fix>3d</fix>
</trkpt>
<trkpt lat="-35.3629111" lon="149.1652224">
  <ele>582.18</ele>
  <time>2026-08-27T18:28:04Z</time>
  <course>66.08</course>
  <speed>0.0</speed>
  <fix>3d</fix>
</trkpt>
<trkpt lat="-35.362911" lon="149.1652223">
  <ele>582.32</ele>
  <time>2026-08-27T18:28:04Z</time>
  <course>339.81</course>
  <speed>0.01</speed>
  <fix>3d</fix>
</trkpt>
<trkpt lat="-35.3629111" lon="149.1652224">
  <ele>582.18</ele>
  <time>2026-08-27T18:28:04Z</time>
  <course>66.09</course>
  <speed>0.0</speed>
  <fix>3d</fix>
</trkpt>
<trkpt lat="-35.362911" lon="149.1652223">
  <ele>582.33</ele>
  <time>2026-08-27T18:28:04Z</time>
  <course>339.81</course>
  <speed>0.01</speed>
  <fix>3d</fix>
</trkpt>
<trkpt lat="-35.3629111" lon="149.1652224">
  <ele>582.18</ele>
  <time>2026-08-27T18:28:04Z</time>
  <course>66.12</course>
  <speed>0.0</speed>
  <fix>3d</fix>
</trkpt>
<trkpt lat="-35.362911" lon="149.1652223">
  <ele>582.33</ele>
  <time>2026-08-27T18:28:04Z</time>
  <course>339.8</course>
  <speed>0.01</speed>
  <fix>3d</fix>
</trkpt>
<trkpt lat="-35.3629111" lon="149.1652224">
  <ele>582.18</ele>
  <time>2026-08-27T18:28:04Z</time>
  <course>66.12</course>
  <speed>0.0</speed>
  <fix>3d</fix>
</trkpt>
<trkpt lat="-35.362911" lon="149.1652223">
  <ele>582.33</ele>
  <time>2026-08-27T18:28:04Z</time>
  <course>339.8</course>
  <speed>0.01</speed>
  <fix>3d</fix>
</trkpt>
<trkpt lat="-35.3629111" lon="149.1652224">
  <ele>582.18</ele>
  <time>2026-08-27T18:28:04Z</time>
  <course>66.11</course>
  <speed>0.0</speed>
  <fix>3d</fix>
</trkpt>
<trkpt lat="-35.362911" lon="149.1652223">
  <ele>582.33</ele>
  <time>2026-08-27T18:28:04Z</time>
  <course>339.8</course>
  <speed>0.01</speed>
  <fix>3d</fix>
</trkpt>
<trkpt lat="-35.3629111" lon="149.1652224">
  <ele>582.18</ele>
  <time>2026-08-27T18:28:04Z</time>
  <course>66.11</course>
  <speed>0.0</speed>
  <fix>3d</fix>
</trkpt>
<trkpt lat="-35.362911" lon="149.1652223">
  <ele>582.33</ele>
  <time>2026-08-27T18:28:04Z</time>
  <course>339.8</course>
  <speed>0.01</speed>
  <fix>3d</fix>
</trkpt>
<trkpt lat="-35.3629111" lon="149.1652224">
  <ele>582.18</ele>
  <time>2026-08-27T18:28:04Z</time>
  <course>66.11</course>
  <speed>0.0</speed>
  <fix>3d</fix>
</trkpt>
<trkpt lat="-35.362911" lon="149.1652223">
  <ele>582.33</ele>
  <time>2026-08-27T18:28:04Z</time>
  <course>339.8</course>
  <speed>0.01</speed>
  <fix>3d</fix>
</trkpt>
<trkpt lat="-35.3629111" lon="149.1652224">
  <ele>582.18</ele>
  <time>2026-08-27T18:28:04Z</time>
  <course>66.11</course>
  <speed>0.0</speed>
  <fix>3d</fix>
</trkpt>
<trkpt lat="-35.362911" lon="149.1652223">
  <ele>582.33</ele>
  <time>2026-08-27T18:28:04Z</time>
  <course>339.8</course>
  <speed>0.01</speed>
  <fix>3d</fix>
</trkpt>
<trkpt lat="-35.3629111" lon="149.1652224">
  <ele>582.18</ele>
  <time>2026-08-27T18:28:04Z</time>
  <course>66.11</course>
  <speed>0.0</speed>
  <fix>3d</fix>
</trkpt>
<trkpt lat="-35.362911" lon="149.1652223">
  <ele>582.34</ele>
  <time>2026-08-27T18:28:04Z</time>
  <course>339.79</course>
  <speed>0.01</speed>
  <fix>3d</fix>
</trkpt>
<trkpt lat="-35.3629111" lon="149.1652224">
  <ele>582.18</ele>
  <time>2026-08-27T18:28:04Z</time>
  <course>66.11</course>
  <speed>0.0</speed>
  <fix>3d</fix>
</trkpt>
<trkpt lat="-35.362911" lon="149.1652223">
  <ele>582.34</ele>
  <time>2026-08-27T18:28:04Z</time>
  <course>339.79</course>
  <speed>0.01</speed>
  <fix>3d</fix>
</trkpt>
<trkpt lat="-35.3629111" lon="149.1652224">
  <ele>582.18</ele>
  <time>2026-08-27T18:28:04Z</time>
  <course>66.11</course>
  <speed>0.0</speed>
  <fix>3d</fix>
</trkpt>
<trkpt lat="-35.362911" lon="149.1652223">
  <ele>582.34</ele>
  <time>2026-08-27T18:28:04Z</time>
  <course>339.79</course>
  <speed>0.01</speed>
  <fix>3d</fix>
</trkpt>
<trkpt lat="-35.3629111" lon="149.1652224">
  <ele>582.18</ele>
  <time>2026-08-27T18:28:04Z</time>
  <course>66.11</course>
  <speed>0.0</speed>
  <fix>3d</fix>
</trkpt>
<trkpt lat="-35.362911" lon="149.1652223">
  <ele>582.34</ele>
  <time>2026-08-27T18:28:04Z</time>
  <course>339.79</course>
  <speed>0.01</speed>
  <fix>3d</fix>
</trkpt>
<trkpt lat="-35.3629111" lon="149.1652224">
  <ele>582.18</ele>
  <time>2026-08-27T18:28:04Z</time>
  <course>66.11</course>
  <speed>0.0</speed>
  <fix>3d</fix>
</trkpt>
<trkpt lat="-35.362911" lon="149.1652223">
  <ele>582.34</ele>
  <time>2026-08-27T18:28:04Z</time>
  <course>339.79</course>
  <speed>0.01</speed>
  <fix>3d</fix>
</trkpt>
<trkpt lat="-35.3629111" lon="149.1652224">
  <ele>582.18</ele>
  <time>2026-08-27T18:28:04Z</time>
  <course>66.11</course>
  <speed>0.0</speed>
  <fix>3d</fix>
</trkpt>
<trkpt lat="-35.362911" lon="149.1652223">
  <ele>582.34</ele>
  <time>2026-08-27T18:28:04Z</time>
  <course>339.79</course>
  <speed>0.01</speed>
  <fix>3d</fix>
</trkpt>
<trkpt lat="-35.3629111" lon="149.1652224">
  <ele>582.18</ele>
  <time>2026-08-27T18:28:04Z</time>
  <course>66.11</course>
  <speed>0.0</speed>
  <fix>3d</fix>
</trkpt>
<trkpt lat="-35.362911" lon="149.1652223">
  <ele>582.34</ele>
  <time>2026-08-27T18:28:04Z</time>
  <course>339.78</course>
  <speed>0.01</speed>
  <fix>3d</fix>
</trkpt>
<trkpt lat="-35.3629111" lon="149.1652224">
  <ele>582.18</ele>
  <time>2026-08-27T18:28:04Z</time>
  <course>66.11</course>
  <speed>0.0</speed>
  <fix>3d</fix>
</trkpt>
<trkpt lat="-35.362911" lon="149.1652223">
  <ele>582.34</ele>
  <time>2026-08-27T18:28:04Z</time>
  <course>339.78</course>
  <speed>0.01</speed>
  <fix>3d</fix>
</trkpt>
<trkpt lat="-35.3629111" lon="149.1652224">
  <ele>582.18</ele>
  <time>2026-08-27T18:28:04Z</time>
  <course>66.11</course>
  <speed>0.0</speed>
  <fix>3d</fix>
</trkpt>
<trkpt lat="-35.362911" lon="149.1652223">
  <ele>582.34</ele>
  <time>2026-08-27T18:28:04Z</time>
  <course>339.78</course>
  <speed>0.01</speed>
  <fix>3d</fix>
</trkpt>
<trkpt lat="-35.3629111" lon="149.1652224">
  <ele>582.18</ele>
  <time>2026-08-27T18:28:04Z</time>
  <course>66.11</course>
  <speed>0.0</speed>
  <fix>3d</fix>
</trkpt>
<trkpt lat="-35.362911" lon="149.1652223">
  <ele>582.33</ele>
  <time>2026-08-27T18:28:04Z</time>
  <course>339.78</course>
  <speed>0.01</speed>
  <fix>3d</fix>
</trkpt>
<trkpt lat="-35.3629111" lon="149.1652224">
  <ele>582.18</ele>
  <time>2026-08-27T18:28:04Z</time>
  <course>66.11</course>
  <speed>0.0</speed>
  <fix>3d</fix>
</trkpt>
<trkpt lat="-35.362911" lon="149.1652223">
  <ele>582.33</ele>
  <time>2026-08-27T18:28:04Z</time>
  <course>339.78</course>
  <speed>0.01</speed>
  <fix>3d</fix>
</trkpt>
<trkpt lat="-35.3629111" lon="149.1652224">
  <ele>582.18</ele>
  <time>2026-08-27T18:28:04Z</time>
  <course>66.11</course>
  <speed>0.0</speed>
  <fix>3d</fix>
</trkpt>
<trkpt lat="-35.362911" lon="149.1652223">
  <ele>582.33</ele>
  <time>2026-08-27T18:28:04Z</time>
  <course>339.78</course>
  <speed>0.01</speed>
  <fix>3d</fix>
</trkpt>
<trkpt lat="-35.3629111" lon="149.1652224">
  <ele>582.18</ele>
  <time>2026-08-27T18:28:04Z</time>
  <course>66.11</course>
  <speed>0.0</speed>
  <fix>3d</fix>
</trkpt>
<trkpt lat="-35.362911" lon="149.1652223">
  <ele>582.33</ele>
  <time>2026-08-27T18:28:04Z</time>
  <course>339.77</course>
  <speed>0.01</speed>
  <fix>3d</fix>
</trkpt>
<trkpt lat="-35.3629111" lon="149.1652224">
  <ele>582.18</ele>
  <time>2026-08-27T18:28:04Z</time>
  <course>66.11</course>
  <speed>0.0</speed>
  <fix>3d</fix>
</trkpt>
<trkpt lat="-35.362911" lon="149.1652223">
  <ele>582.33</ele>
  <time>2026-08-27T18:28:04Z</time>
  <course>339.77</course>
  <speed>0.01</speed>
  <fix>3d</fix>
</trkpt>
<trkpt lat="-35.3629111" lon="149.1652224">
  <ele>582.18</ele>
  <time>2026-08-27T18:28:04Z</time>
  <course>66.11</course>
  <speed>0.0</speed>
  <fix>3d</fix>
</trkpt>
<trkpt lat="-35.362911" lon="149.1652223">
  <ele>582.33</ele>
  <time>2026-08-27T18:28:04Z</time>
  <course>339.78</course>
  <speed>0.01</speed>
  <fix>3d</fix>
</trkpt>
<trkpt lat="-35.3629111" lon="149.1652224">
  <ele>582.18</ele>
  <time>2026-08-27T18:28:04Z</time>
  <course>66.11</course>
  <speed>0.0</speed>
  <fix>3d</fix>
</trkpt>
<trkpt lat="-35.362911" lon="149.1652223">
  <ele>582.33</ele>
  <time>2026-08-27T18:28:04Z</time>
  <course>339.8</course>
  <speed>0.01</speed>
  <fix>3d</fix>
</trkpt>
<trkpt lat="-35.3629111" lon="149.1652224">
  <ele>582.18</ele>
  <time>2026-08-27T18:28:04Z</time>
  <course>66.11</course>
  <speed>0.0</speed>
  <fix>3d</fix>
</trkpt>
<trkpt lat="-35.362911" lon="149.1652223">
  <ele>582.33</ele>
  <time>2026-08-27T18:28:04Z</time>
  <course>339.81</course>
  <speed>0.01</speed>
  <fix>3d</fix>
</trkpt>
<trkpt lat="-35.3629111" lon="149.1652224">
  <ele>582.18</ele>
  <time>2026-08-27T18:28:04Z</time>
  <course>66.11</course>
  <speed>0.0</speed>
  <fix>3d</fix>
</trkpt>
<trkpt lat="-35.362911" lon="149.1652223">
  <ele>582.33</ele>
  <time>2026-08-27T18:28:04Z</time>
  <course>339.83</course>
  <speed>0.01</speed>
  <fix>3d</fix>
</trkpt>
<trkpt lat="-35.3629111" lon="149.1652224">
  <ele>582.18</ele>
  <time>2026-08-27T18:28:04Z</time>
  <course>66.11</course>
  <speed>0.0</speed>
  <fix>3d</fix>
</trkpt>
<trkpt lat="-35.362911" lon="149.1652223">
  <ele>582.33</ele>
  <time>2026-08-27T18:28:04Z</time>
  <course>339.85</course>
  <speed>0.01</speed>
  <fix>3d</fix>
</trkpt>
<trkpt lat="-35.3629111" lon="149.1652224">
  <ele>582.18</ele>
  <time>2026-08-27T18:28:04Z</time>
  <course>66.11</course>
  <speed>0.0</speed>
  <fix>3d</fix>
</trkpt>
<trkpt lat="-35.362911" lon="149.1652223">
  <ele>582.34</ele>
  <time>2026-08-27T18:28:04Z</time>
  <course>339.86</course>
  <speed>0.01</speed>
  <fix>3d</fix>
</trkpt>
<trkpt lat="-35.3629111" lon="149.1652224">
  <ele>582.18</ele>
  <time>2026-08-27T18:28:04Z</time>
  <course>66.11</course>
  <speed>0.0</speed>
  <fix>3d</fix>
</trkpt>
<trkpt lat="-35.362911" lon="149.1652223">
  <ele>582.34</ele>
  <time>2026-08-27T18:28:04Z</time>
  <course>339.88</course>
  <speed>0.02</speed>
  <fix>3d</fix>
</trkpt>
<trkpt lat="-35.3629111" lon="149.1652224">
  <ele>582.18</ele>
  <time>2026-08-27T18:28:04Z</time>
  <course>66.11</course>
  <speed>0.0</speed>
  <fix>3d</fix>
</trkpt>
<trkpt lat="-35.362911" lon="149.1652223">
  <ele>582.35</ele>
  <time>2026-08-27T18:28:04Z</time>
  <course>339.9</course>
  <speed>0.02</speed>
  <fix>3d</fix>
</trkpt>
<trkpt lat="-35.3629111" lon="149.1652224">
  <ele>582.18</ele>
  <time>2026-08-27T18:28:04Z</time>
  <course>66.11</course>
  <speed>0.0</speed>
  <fix>3d</fix>
</trkpt>
<trkpt lat="-35.362911" lon="149.1652223">
  <ele>582.35</ele>
  <time>2026-08-27T18:28:04Z</time>
  <course>339.91</course>
  <speed>0.02</speed>
  <fix>3d</fix>
</trkpt>
<trkpt lat="-35.3629111" lon="149.1652224">
  <ele>582.18</ele>
  <time>2026-08-27T18:28:04Z</time>
  <course>66.11</course>
  <speed>0.0</speed>
  <fix>3d</fix>
</trkpt>
<trkpt lat="-35.362911" lon="149.1652223">
  <ele>582.35</ele>
  <time>2026-08-27T18:28:04Z</time>
  <course>339.93</course>
  <speed>0.02</speed>
  <fix>3d</fix>
</trkpt>
<trkpt lat="-35.3629111" lon="149.1652224">
  <ele>582.18</ele>
  <time>2026-08-27T18:28:04Z</time>
  <course>66.11</course>
  <speed>0.0</speed>
  <fix>3d</fix>
</trkpt>
<trkpt lat="-35.362911" lon="149.1652223">
  <ele>582.35</ele>
  <time>2026-08-27T18:28:04Z</time>
  <course>339.95</course>
  <speed>0.02</speed>
  <fix>3d</fix>
</trkpt>
<trkpt lat="-35.3629111" lon="149.1652224">
  <ele>582.18</ele>
  <time>2026-08-27T18:28:04Z</time>
  <course>66.11</course>
  <speed>0.0</speed>
  <fix>3d</fix>
</trkpt>
<trkpt lat="-35.362911" lon="149.1652223">
  <ele>582.34</ele>
  <time>2026-08-27T18:28:04Z</time>
  <course>339.96</course>
  <speed>0.02</speed>
  <fix>3d</fix>
</trkpt>
<trkpt lat="-35.3629111" lon="149.1652224">
  <ele>582.18</ele>
  <time>2026-08-27T18:28:04Z</time>
  <course>66.11</course>
  <speed>0.0</speed>
  <fix>3d</fix>
</trkpt>
<trkpt lat="-35.362911" lon="149.1652223">
  <ele>582.34</ele>
  <time>2026-08-27T18:28:04Z</time>
  <course>339.98</course>
  <speed>0.02</speed>
  <fix>3d</fix>
</trkpt>
<trkpt lat="-35.3629111" lon="149.1652224">
  <ele>582.18</ele>
  <time>2026-08-27T18:28:04Z</time>
  <course>66.11</course>
  <speed>0.0</speed>
  <fix>3d</fix>
</trkpt>
<trkpt lat="-35.362911" lon="149.1652223">
  <ele>582.34</ele>
  <time>2026-08-27T18:28:04Z</time>
  <course>340.0</course>
  <speed>0.02</speed>
  <fix>3d</fix>
</trkpt>
<trkpt lat="-35.3629111" lon="149.1652224">
  <ele>582.18</ele>
  <time>2026-08-27T18:28:04Z</time>
  <course>66.11</course>
  <speed>0.0</speed>
  <fix>3d</fix>
</trkpt>
<trkpt lat="-35.362911" lon="149.1652223">
  <ele>582.34</ele>
  <time>2026-08-27T18:28:04Z</time>
  <course>340.02</course>
  <speed>0.02</speed>
  <fix>3d</fix>
</trkpt>
<trkpt lat="-35.3629111" lon="149.1652224">
  <ele>582.18</ele>
  <time>2026-08-27T18:28:04Z</time>
  <course>66.11</course>
  <speed>0.0</speed>
  <fix>3d</fix>
</trkpt>
<trkpt lat="-35.362911" lon="149.1652223">
  <ele>582.34</ele>
  <time>2026-08-27T18:28:04Z</time>
  <course>340.03</course>
  <speed>0.02</speed>
  <fix>3d</fix>
</trkpt>
<trkpt lat="-35.3629111" lon="149.1652224">
  <ele>582.18</ele>
  <time>2026-08-27T18:28:04Z</time>
  <course>66.11</course>
  <speed>0.0</speed>
  <fix>3d</fix>
</trkpt>
<trkpt lat="-35.362911" lon="149.1652223">
  <ele>582.35</ele>
  <time>2026-08-27T18:28:04Z</time>
  <course>340.05</course>
  <speed>0.02</speed>
  <fix>3d</fix>
</trkpt>
<trkpt lat="-35.3629111" lon="149.1652224">
  <ele>582.18</ele>
  <time>2026-08-27T18:28:04Z</time>
  <course>66.11</course>
  <speed>0.0</speed>
  <fix>3d</fix>
</trkpt>
<trkpt lat="-35.362911" lon="149.1652223">
  <ele>582.35</ele>
  <time>2026-08-27T18:28:04Z</time>
  <course>340.07</course>
  <speed>0.02</speed>
  <fix>3d</fix>
</trkpt>
<trkpt lat="-35.3629111" lon="149.1652224">
  <ele>582.18</ele>
  <time>2026-08-27T18:28:04Z</time>
  <course>66.11</course>
  <speed>0.0</speed>
  <fix>3d</fix>
</trkpt>
<trkpt lat="-35.362911" lon="149.1652223">
  <ele>582.36</ele>
  <time>2026-08-27T18:28:04Z</time>
  <course>340.09</course>
  <speed>0.02</speed>
  <fix>3d</fix>
</trkpt>
<trkpt lat="-35.3629111" lon="149.1652224">
  <ele>582.18</ele>
  <time>2026-08-27T18:28:04Z</time>
  <course>66.11</course>
  <speed>0.0</speed>
  <fix>3d</fix>
</trkpt>
<trkpt lat="-35.362911" lon="149.1652223">
  <ele>582.36</ele>
  <time>2026-08-27T18:28:04Z</time>
  <course>340.11</course>
  <speed>0.02</speed>
  <fix>3d</fix>
</trkpt>
<trkpt lat="-35.3629111" lon="149.1652224">
  <ele>582.18</ele>
  <time>2026-08-27T18:28:04Z</time>
  <course>66.11</course>
  <speed>0.0</speed>
  <fix>3d</fix>
</trkpt>
<trkpt lat="-35.362911" lon="149.1652223">
  <ele>582.36</ele>
  <time>2026-08-27T18:28:05Z</time>
  <course>340.13</course>
  <speed>0.02</speed>
  <fix>3d</fix>
</trkpt>
<trkpt lat="-35.3629111" lon="149.1652224">
  <ele>582.18</ele>
  <time>2026-08-27T18:28:05Z</time>
  <course>66.11</course>
  <speed>0.0</speed>
  <fix>3d</fix>
</trkpt>
<trkpt lat="-35.362911" lon="149.1652223">
  <ele>582.36</ele>
  <time>2026-08-27T18:28:05Z</time>
  <course>340.15</course>
  <speed>0.02</speed>
  <fix>3d</fix>
</trkpt>
<trkpt lat="-35.3629111" lon="149.1652224">
  <ele>582.18</ele>
  <time>2026-08-27T18:28:05Z</time>
  <course>66.11</course>
  <speed>0.0</speed>
  <fix>3d</fix>
</trkpt>
<trkpt lat="-35.362911" lon="149.1652223">
  <ele>582.36</ele>
  <time>2026-08-27T18:28:05Z</time>
  <course>340.17</course>
  <speed>0.02</speed>
  <fix>3d</fix>
</trkpt>
<trkpt lat="-35.3629111" lon="149.1652224">
  <ele>582.18</ele>
  <time>2026-08-27T18:28:05Z</time>
  <course>66.11</course>
  <speed>0.0</speed>
  <fix>3d</fix>
</trkpt>
<trkpt lat="-35.362911" lon="149.1652223">
  <ele>582.36</ele>
  <time>2026-08-27T18:28:05Z</time>
  <course>340.19</course>
  <speed>0.02</speed>
  <fix>3d</fix>
</trkpt>
<trkpt lat="-35.3629111" lon="149.1652224">
  <ele>582.18</ele>
  <time>2026-08-27T18:28:05Z</time>
  <course>66.11</course>
  <speed>0.0</speed>
  <fix>3d</fix>
</trkpt>
<trkpt lat="-35.362911" lon="149.1652223">
  <ele>582.36</ele>
  <time>2026-08-27T18:28:05Z</time>
  <course>340.21</course>
  <speed>0.02</speed>
  <fix>3d</fix>
</trkpt>
<trkpt lat="-35.3629111" lon="149.1652224">
  <ele>582.18</ele>
  <time>2026-08-27T18:28:05Z</time>
  <course>66.11</course>
  <speed>0.0</speed>
  <fix>3d</fix>
</trkpt>
<trkpt lat="-34.9940953" lon="147.6096364">
  <ele>576.01</ele>
  <time>2026-08-27T18:28:05Z</time>
  <course>248.86</course>
  <speed>0.0</speed>
  <fix>3d</fix>
</trkpt>
<trkpt lat="-35.362881" lon="149.165222">
  <ele>582.09</ele>
  <time>2026-08-27T18:28:05Z</time>
  <course>79.27</course>
  <speed>0.0</speed>
  <fix>3d</fix>
</trkpt>
<trkpt lat="-35.362881" lon="149.165222">
  <ele>582.09</ele>
  <time>2026-08-27T18:28:05Z</time>
  <course>132.41</course>
  <speed>0.0</speed>
  <fix>3d</fix>
</trkpt>
<trkpt lat="-35.362881" lon="149.165222">
  <ele>582.09</ele>
  <time>2026-08-27T18:28:05Z</time>
  <course>79.86</course>
  <speed>0.0</speed>
  <fix>3d</fix>
</trkpt>
<trkpt lat="-35.362881" lon="149.165222">
  <ele>582.09</ele>
  <time>2026-08-27T18:28:05Z</time>
  <course>358.5</course>
  <speed>0.0</speed>
  <fix>3d</fix>
</trkpt>
<trkpt lat="-35.362881" lon="149.165222">
  <ele>582.09</ele>
  <time>2026-08-27T18:28:05Z</time>
  <course>81.08</course>
  <speed>0.0</speed>
  <fix>3d</fix>
</trkpt>
<trkpt lat="-35.362881" lon="149.165222">
  <ele>582.09</ele>
  <time>2026-08-27T18:28:05Z</time>
  <course>289.3</course>
  <speed>0.0</speed>
  <fix>3d</fix>
</trkpt>
<trkpt lat="-35.362881" lon="149.165222">
  <ele>582.09</ele>
  <time>2026-08-27T18:28:05Z</time>
  <course>82.24</course>
  <speed>0.0</speed>
  <fix>3d</fix>
</trkpt>
<trkpt lat="-35.362881" lon="149.165222">
  <ele>582.09</ele>
  <time>2026-08-27T18:28:05Z</time>
  <course>312.9</course>
  <speed>0.0</speed>
  <fix>3d</fix>
</trkpt>
<trkpt lat="-35.362881" lon="149.165222">
  <ele>582.09</ele>
  <time>2026-08-27T18:28:05Z</time>
  <course>83.29</course>
  <speed>0.0</speed>
  <fix>3d</fix>
</trkpt>
<trkpt lat="-35.362881" lon="149.165222">
  <ele>582.09</ele>
  <time>2026-08-27T18:28:05Z</time>
  <course>209.59</course>
  <speed>0.0</speed>
  <fix>3d</fix>
</trkpt>
<trkpt lat="-35.362881" lon="149.165222">
  <ele>582.09</ele>
  <time>2026-08-27T18:28:05Z</time>
  <course>84.26</course>
  <speed>0.0</speed>
  <fix>3d</fix>
</trkpt>
<trkpt lat="-35.362881" lon="149.165222">
  <ele>582.09</ele>
  <time>2026-08-27T18:28:05Z</time>
  <course>26.59</course>
  <speed>0.0</speed>
  <fix>3d</fix>
</trkpt>
<trkpt lat="-35.362881" lon="149.165222">
  <ele>582.09</ele>
  <time>2026-08-27T18:28:05Z</time>
  <course>85.21</course>
  <speed>0.0</speed>
  <fix>3d</fix>
</trkpt>
<trkpt lat="-35.362881" lon="149.165222">
  <ele>582.09</ele>
  <time>2026-08-27T18:28:05Z</time>
  <course>35.65</course>
  <speed>0.0</speed>
  <fix>3d</fix>
</trkpt>
<trkpt lat="-35.362881" lon="149.165222">
  <ele>582.09</ele>
  <time>2026-08-27T18:28:05Z</time>
  <course>86.09</course>
  <speed>0.0</speed>
  <fix>3d</fix>
</trkpt>
<trkpt lat="-35.362881" lon="149.165222">
  <ele>582.09</ele>
  <time>2026-08-27T18:28:05Z</time>
  <course>251.27</course>
  <speed>0.0</speed>
  <fix>3d</fix>
</trkpt>
<trkpt lat="-35.362881" lon="149.165222">
  <ele>582.09</ele>
  <time>2026-08-27T18:28:05Z</time>
  <course>86.93</course>
  <speed>0.0</speed>
  <fix>3d</fix>
</trkpt>
<trkpt lat="-35.362881" lon="149.165222">
  <ele>582.09</ele>
  <time>2026-08-27T18:28:05Z</time>
  <course>276.92</course>
  <speed>0.0</speed>
  <fix>3d</fix>
</trkpt>
<trkpt lat="-35.362881" lon="149.165222">
  <ele>582.09</ele>
  <time>2026-08-27T18:28:05Z</time>
  <course>87.7</course>
  <speed>0.0</speed>
  <fix>3d</fix>
</trkpt>
<trkpt lat="-35.362881" lon="149.165222">
  <ele>582.09</ele>
  <time>2026-08-27T18:28:05Z</time>
  <course>33.64</course>
  <speed>0.0</speed>
  <fix>3d</fix>
</trkpt>
<trkpt lat="-35.362881" lon="149.165222">
  <ele>582.09</ele>
  <time>2026-08-27T18:28:05Z</time>
  <course>88.41</course>
  <speed>0.0</speed>
  <fix>3d</fix>
</trkpt>
<trkpt lat="-35.362881" lon="149.165222">
  <ele>582.09</ele>
  <time>2026-08-27T18:28:05Z</time>
  <course>266.48</course>
  <speed>0.0</speed>
  <fix>3d</fix>
</trkpt>
<trkpt lat="-35.362881" lon="149.165222">
  <ele>582.09</ele>
  <time>2026-08-27T18:28:05Z</time>
  <course>89.08</course>
  <speed>0.0</speed>
  <fix>3d</fix>
</trkpt>
<trkpt lat="-35.362881" lon="149.165222">
  <ele>582.09</ele>
  <time>2026-08-27T18:28:05Z</time>
  <course>240.3</course>
  <speed>0.0</speed>
  <fix>3d</fix>
</trkpt>
<trkpt lat="-35.362881" lon="149.165222">
  <ele>582.09</ele>
  <time>2026-08-27T18:28:05Z</time>
  <course>89.69</course>
  <speed>0.0</speed>
  <fix>3d</fix>
</trkpt>
<trkpt lat="-35.362881" lon="149.165222">
  <ele>582.09</ele>
  <time>2026-08-27T18:28:05Z</time>
  <course>213.36</course>
  <speed>0.0</speed>
  <fix>3d</fix>
</trkpt>
<trkpt lat="-35.362881" lon="149.165222">
  <ele>582.09</ele>
  <time>2026-08-27T18:28:05Z</time>
  <course>90.26</course>
  <speed>0.0</speed>
  <fix>3d</fix>
</trkpt>
<trkpt lat="-35.362881" lon="149.165222">
  <ele>582.09</ele>
  <time>2026-08-27T18:28:05Z</time>
  <course>51.38</course>
  <speed>0.0</speed>
  <fix>3d</fix>
</trkpt>
<trkpt lat="-35.362881" lon="149.165222">
  <ele>582.09</ele>
  <time>2026-08-27T18:28:05Z</time>
  <course>90.78</course>
  <speed>0.0</speed>
  <fix>3d</fix>
</trkpt>
<trkpt lat="-35.362881" lon="149.165222">
  <ele>582.09</ele>
  <time>2026-08-27T18:28:05Z</time>
  <course>332.49</course>
  <speed>0.0</speed>
  <fix>3d</fix>
</trkpt>
<trkpt lat="-35.362881" lon="149.165222">
  <ele>582.09</ele>
  <time>2026-08-27T18:28:05Z</time>
  <course>91.27</course>
  <speed>0.0</speed>
  <fix>3d</fix>
</trkpt>
<trkpt lat="-35.362881" lon="149.165222">
  <ele>582.09</ele>
  <time>2026-08-27T18:28:05Z</time>
  <course>265.95</course>
  <speed>0.0</speed>
  <fix>3d</fix>
</trkpt>
<trkpt lat="-35.362881" lon="149.165222">
  <ele>582.09</ele>
  <time>2026-08-27T18:28:05Z</time>
  <course>91.71</course>
  <speed>0.0</speed>
  <fix>3d</fix>
</trkpt>
<trkpt lat="-35.362881" lon="149.165222">
  <ele>582.09</ele>
  <time>2026-08-27T18:28:05Z</time>
  <course>287.32</course>
  <speed>0.0</speed>
  <fix>3d</fix>
</trkpt>
<trkpt lat="-35.362881" lon="149.165222">
  <ele>582.09</ele>
  <time>2026-08-27T18:28:05Z</time>
  <course>92.12</course>
  <speed>0.0</speed>
  <fix>3d</fix>
</trkpt>
<trkpt lat="-35.362881" lon="149.165222">
  <ele>582.09</ele>
  <time>2026-08-27T18:28:05Z</time>
  <course>66.25</course>
  <speed>0.0</speed>
  <fix>3d</fix>
</trkpt>
<trkpt lat="-35.362881" lon="149.165222">
  <ele>582.09</ele>
  <time>2026-08-27T18:28:05Z</time>
  <course>92.49</course>
  <speed>0.0</speed>
  <fix>3d</fix>
</trkpt>
<trkpt lat="-35.362881" lon="149.165222">
  <ele>582.09</ele>
  <time>2026-08-27T18:28:05Z</time>
  <course>68.87</course>
  <speed>0.0</speed>
  <fix>3d</fix>
</trkpt>
<trkpt lat="-35.362881" lon="149.165222">
  <ele>582.09</ele>
  <time>2026-08-27T18:28:05Z</time>
  <course>92.84</course>
  <speed>0.0</speed>
  <fix>3d</fix>
</trkpt>
<trkpt lat="-35.362881" lon="149.165222">
  <ele>582.09</ele>
  <time>2026-08-27T18:28:05Z</time>
  <course>55.03</course>
  <speed>0.0</speed>
  <fix>3d</fix>
</trkpt>
<trkpt lat="-35.362881" lon="149.165222">
  <ele>582.09</ele>
  <time>2026-08-27T18:28:05Z</time>
  <course>93.15</course>
  <speed>0.0</speed>
  <fix>3d</fix>
</trkpt>
<trkpt lat="-35.362881" lon="149.165222">
  <ele>582.09</ele>
  <time>2026-08-27T18:28:05Z</time>
  <course>5.23</course>
  <speed>0.0</speed>
  <fix>3d</fix>
</trkpt>
<trkpt lat="-35.362881" lon="149.165222">
  <ele>582.09</ele>
  <time>2026-08-27T18:28:05Z</time>
  <course>93.44</course>
  <speed>0.0</speed>
  <fix>3d</fix>
</trkpt>
<trkpt lat="-35.362881" lon="149.165222">
  <ele>582.09</ele>
  <time>2026-08-27T18:28:05Z</time>
  <course>240.86</course>
  <speed>0.0</speed>
  <fix>3d</fix>
</trkpt>
<trkpt lat="-35.362881" lon="149.165222">
  <ele>582.09</ele>
  <time>2026-08-27T18:28:05Z</time>
  <course>93.7</course>
  <speed>0.0</speed>
  <fix>3d</fix>
</trkpt>
<trkpt lat="-35.362881" lon="149.165222">
  <ele>582.09</ele>
  <time>2026-08-27T18:28:05Z</time>
  <course>48.2</course>
  <speed>0.0</speed>
  <fix>3d</fix>
</trkpt>
<trkpt lat="-35.362881" lon="149.165222">
  <ele>582.09</ele>
  <time>2026-08-27T18:28:05Z</time>
  <course>93.94</course>
  <speed>0.0</speed>
  <fix>3d</fix>
</trkpt>
<trkpt lat="-35.362881" lon="149.165222">
  <ele>582.09</ele>
  <time>2026-08-27T18:28:05Z</time>
  <course>18.62</course>
  <speed>0.0</speed>
  <fix>3d</fix>
</trkpt>
<trkpt lat="-35.362881" lon="149.165222">
  <ele>582.09</ele>
  <time>2026-08-27T18:28:05Z</time>
  <course>94.16</course>
  <speed>0.0</speed>
  <fix>3d</fix>
</trkpt>
<trkpt lat="-35.362881" lon="149.165222">
  <ele>582.09</ele>
  <time>2026-08-27T18:28:05Z</time>
  <course>348.52</course>
  <speed>0.0</speed>
  <fix>3d</fix>
</trkpt>
<trkpt lat="-35.362881" lon="149.165222">
  <ele>582.09</ele>
  <time>2026-08-27T18:28:05Z</time>
  <course>94.37</course>
  <speed>0.0</speed>
  <fix>3d</fix>
</trkpt>
<trkpt lat="-35.362881" lon="149.165222">
  <ele>582.09</ele>
  <time>2026-08-27T18:28:05Z</time>
  <course>351.72</course>
  <speed>0.0</speed>
  <fix>3d</fix>
</trkpt>
<trkpt lat="-35.362881" lon="149.165222">
  <ele>582.09</ele>
  <time>2026-08-27T18:28:05Z</time>
  <course>94.56</course>
  <speed>0.0</speed>
  <fix>3d</fix>
</trkpt>
<trkpt lat="-35.362881" lon="149.165222">
  <ele>582.09</ele>
  <time>2026-08-27T18:28:05Z</time>
  <course>357.54</course>
  <speed>0.0</speed>
  <fix>3d</fix>
</trkpt>
<trkpt lat="-35.362881" lon="149.165222">
  <ele>582.09</ele>
  <time>2026-08-27T18:28:05Z</time>
  <course>94.72</course>
  <speed>0.0</speed>
  <fix>3d</fix>
</trkpt>
<trkpt lat="-35.362881" lon="149.165222">
  <ele>582.09</ele>
  <time>2026-08-27T18:28:05Z</time>
  <course>356.39</course>
  <speed>0.0</speed>
  <fix>3d</fix>
</trkpt>
<trkpt lat="-35.362881" lon="149.165222">
  <ele>582.09</ele>
  <time>2026-08-27T18:28:05Z</time>
  <course>94.87</course>
  <speed>0.0</speed>
  <fix>3d</fix>
</trkpt>
<trkpt lat="-35.362881" lon="149.165222">
  <ele>582.09</ele>
  <time>2026-08-27T18:28:05Z</time>
  <course>355.79</course>
  <speed>0.0</speed>
  <fix>3d</fix>
</trkpt>
<trkpt lat="-35.362881" lon="149.165222">
  <ele>582.09</ele>
  <time>2026-08-27T18:28:05Z</time>
  <course>95.01</course>
  <speed>0.0</speed>
  <fix>3d</fix>
</trkpt>
<trkpt lat="-35.362881" lon="149.165222">
  <ele>582.09</ele>
  <time>2026-08-27T18:28:05Z</time>
  <course>356.02</course>
  <speed>0.0</speed>
  <fix>3d</fix>
</trkpt>
<trkpt lat="-35.362881" lon="149.165222">
  <ele>582.09</ele>
  <time>2026-08-27T18:28:05Z</time>
  <course>95.14</course>
  <speed>0.0</speed>
  <fix>3d</fix>
</trkpt>
<trkpt lat="-35.362881" lon="149.165222">
  <ele>582.09</ele>
  <time>2026-08-27T18:28:05Z</time>
  <course>356.07</course>
  <speed>0.0</speed>
  <fix>3d</fix>
</trkpt>
<trkpt lat="-35.362881" lon="149.165222">
  <ele>582.09</ele>
  <time>2026-08-27T18:28:06Z</time>
  <course>95.25</course>
  <speed>0.0</speed>
  <fix>3d</fix>
</trkpt>
<trkpt lat="-35.362881" lon="149.165222">
  <ele>582.09</ele>
  <time>2026-08-27T18:28:06Z</time>
  <course>356.03</course>
  <speed>0.0</speed>
  <fix>3d</fix>
</trkpt>
<trkpt lat="-35.362881" lon="149.165222">
  <ele>582.09</ele>
  <time>2026-08-27T18:28:06Z</time>
  <course>95.35</course>
  <speed>0.0</speed>
  <fix>3d</fix>
</trkpt>
<trkpt lat="-35.362881" lon="149.165222">
  <ele>582.09</ele>
  <time>2026-08-27T18:28:06Z</time>
  <course>356.03</course>
  <speed>0.0</speed>
  <fix>3d</fix>
</trkpt>
<trkpt lat="-35.362881" lon="149.165222">
  <ele>582.09</ele>
  <time>2026-08-27T18:28:06Z</time>
  <course>95.44</course>
  <speed>0.0</speed>
  <fix>3d</fix>
</trkpt>
<trkpt lat="-35.362881" lon="149.165222">
  <ele>582.09</ele>
  <time>2026-08-27T18:28:06Z</time>
  <course>356.03</course>
  <speed>0.0</speed>
  <fix>3d</fix>
</trkpt>
<trkpt lat="-35.362881" lon="149.165222">
  <ele>582.09</ele>
  <time>2026-08-27T18:28:06Z</time>
  <course>95.53</course>
  <speed>0.0</speed>
  <fix>3d</fix>
</trkpt>
<trkpt lat="-35.362881" lon="149.165222">
  <ele>582.09</ele>
  <time>2026-08-27T18:28:06Z</time>
  <course>356.03</course>
  <speed>0.0</speed>
  <fix>3d</fix>
</trkpt>
<trkpt lat="-35.362881" lon="149.165222">
  <ele>582.09</ele>
  <time>2026-08-27T18:28:06Z</time>
  <course>95.6</course>
  <speed>0.0</speed>
  <fix>3d</fix>
</trkpt>
<trkpt lat="-35.362881" lon="149.165222">
  <ele>582.09</ele>
  <time>2026-08-27T18:28:06Z</time>
  <course>356.03</course>
  <speed>0.0</speed>
  <fix>3d</fix>
</trkpt>
<trkpt lat="-35.362881" lon="149.165222">
  <ele>582.09</ele>
  <time>2026-08-27T18:28:06Z</time>
  <course>95.67</course>
  <speed>0.0</speed>
  <fix>3d</fix>
</trkpt>
<trkpt lat="-35.362881" lon="149.165222">
  <ele>582.09</ele>
  <time>2026-08-27T18:28:06Z</time>
  <course>356.03</course>
  <speed>0.0</speed>
  <fix>3d</fix>
</trkpt>
<trkpt lat="-35.362881" lon="149.165222">
  <ele>582.09</ele>
  <time>2026-08-27T18:28:06Z</time>
  <course>95.73</course>
  <speed>0.0</speed>
  <fix>3d</fix>
</trkpt>
<trkpt lat="-35.362881" lon="149.165222">
  <ele>582.09</ele>
  <time>2026-08-27T18:28:06Z</time>
  <course>356.03</course>
  <speed>0.0</speed>
  <fix>3d</fix>
</trkpt>
<trkpt lat="-35.362881" lon="149.165222">
  <ele>582.09</ele>
  <time>2026-08-27T18:28:06Z</time>
  <course>95.79</course>
  <speed>0.0</speed>
  <fix>3d</fix>
</trkpt>
<trkpt lat="-35.362881" lon="149.165222">
  <ele>582.09</ele>
  <time>2026-08-27T18:28:06Z</time>
  <course>356.03</course>
  <speed>0.0</speed>
  <fix>3d</fix>
</trkpt>
<trkpt lat="-35.362881" lon="149.165222">
  <ele>582.09</ele>
  <time>2026-08-27T18:28:06Z</time>
  <course>95.83</course>
  <speed>0.0</speed>
  <fix>3d</fix>
</trkpt>
<trkpt lat="-35.362881" lon="149.165222">
  <ele>582.09</ele>
  <time>2026-08-27T18:28:06Z</time>
  <course>356.03</course>
  <speed>0.0</speed>
  <fix>3d</fix>
</trkpt>
<trkpt lat="-35.362881" lon="149.165222">
  <ele>582.09</ele>
  <time>2026-08-27T18:28:06Z</time>
  <course>95.88</course>
  <speed>0.0</speed>
  <fix>3d</fix>
</trkpt>
<trkpt lat="-35.362881" lon="149.165222">
  <ele>582.09</ele>
  <time>2026-08-27T18:28:06Z</time>
  <course>356.03</course>
  <speed>0.0</speed>
  <fix>3d</fix>
</trkpt>
<trkpt lat="-35.362881" lon="149.165222">
  <ele>582.09</ele>
  <time>2026-08-27T18:28:06Z</time>
  <course>95.91</course>
  <speed>0.0</speed>
  <fix>3d</fix>
</trkpt>
<trkpt lat="-35.362881" lon="149.165222">
  <ele>582.09</ele>
  <time>2026-08-27T18:28:06Z</time>
  <course>356.03</course>
  <speed>0.0</speed>
  <fix>3d</fix>
</trkpt>
<trkpt lat="-35.362881" lon="149.165222">
  <ele>582.09</ele>
  <time>2026-08-27T18:28:06Z</time>
  <course>95.95</course>
  <speed>0.0</speed>
  <fix>3d</fix>
</trkpt>
<trkpt lat="-35.362881" lon="149.165222">
  <ele>582.09</ele>
  <time>2026-08-27T18:28:06Z</time>
  <course>356.03</course>
  <speed>0.0</speed>
  <fix>3d</fix>
</trkpt>
<trkpt lat="-35.362881" lon="149.165222">
  <ele>582.09</ele>
  <time>2026-08-27T18:28:06Z</time>
  <course>95.98</course>
  <speed>0.0</speed>
  <fix>3d</fix>
</trkpt>
<trkpt lat="-35.362881" lon="149.165222">
  <ele>582.09</ele>
  <time>2026-08-27T18:28:06Z</time>
  <course>356.03</course>
  <speed>0.0</speed>
  <fix>3d</fix>
</trkpt>
<trkpt lat="-35.362881" lon="149.165222">
  <ele>582.09</ele>
  <time>2026-08-27T18:28:06Z</time>
  <course>96.0</course>
  <speed>0.0</speed>
  <fix>3d</fix>
</trkpt>
<trkpt lat="-35.362881" lon="149.165222">
  <ele>582.09</ele>
  <time>2026-08-27T18:28:06Z</time>
  <course>356.03</course>
  <speed>0.0</speed>
  <fix>3d</fix>
</trkpt>
<trkpt lat="-35.362881" lon="149.165222">
  <ele>582.09</ele>
  <time>2026-08-27T18:28:06Z</time>
  <course>96.03</course>
  <speed>0.0</speed>
  <fix>3d</fix>
</trkpt>
<trkpt lat="-35.362881" lon="149.165222">
  <ele>582.09</ele>
  <time>2026-08-27T18:28:06Z</time>
  <course>356.03</course>
  <speed>0.0</speed>
  <fix>3d</fix>
</trkpt>
<trkpt lat="-35.362881" lon="149.165222">
  <ele>582.09</ele>
  <time>2026-08-27T18:28:06Z</time>
  <course>96.04</course>
  <speed>0.0</speed>
  <fix>3d</fix>
</trkpt>
<trkpt lat="-35.362881" lon="149.165222">
  <ele>582.09</ele>
  <time>2026-08-27T18:28:06Z</time>
  <course>356.03</course>
  <speed>0.0</speed>
  <fix>3d</fix>
</trkpt>
<trkpt lat="-35.362881" lon="149.165222">
  <ele>582.09</ele>
  <time>2026-08-27T18:28:06Z</time>
  <course>96.06</course>
  <speed>0.0</speed>
  <fix>3d</fix>
</trkpt>
<trkpt lat="-35.362881" lon="149.165222">
  <ele>582.09</ele>
  <time>2026-08-27T18:28:06Z</time>
  <course>356.03</course>
  <speed>0.0</speed>
  <fix>3d</fix>
</trkpt>
<trkpt lat="-35.362881" lon="149.165222">
  <ele>582.09</ele>
  <time>2026-08-27T18:28:06Z</time>
  <course>96.07</course>
  <speed>0.0</speed>
  <fix>3d</fix>
</trkpt>
<trkpt lat="-35.362881" lon="149.165222">
  <ele>582.09</ele>
  <time>2026-08-27T18:28:06Z</time>
  <course>356.03</course>
  <speed>0.0</speed>
  <fix>3d</fix>
</trkpt>
<trkpt lat="-35.362881" lon="149.165222">
  <ele>582.09</ele>
  <time>2026-08-27T18:28:06Z</time>
  <course>96.08</course>
  <speed>0.0</speed>
  <fix>3d</fix>
</trkpt>
<trkpt lat="-35.362881" lon="149.165222">
  <ele>582.09</ele>
  <time>2026-08-27T18:28:06Z</time>
  <course>356.03</course>
  <speed>0.0</speed>
  <fix>3d</fix>
</trkpt>
<trkpt lat="-35.362881" lon="149.165222">
  <ele>582.09</ele>
  <time>2026-08-27T18:28:06Z</time>
  <course>96.1</course>
  <speed>0.0</speed>
  <fix>3d</fix>
</trkpt>
<trkpt lat="-35.362881" lon="149.165222">
  <ele>582.09</ele>
  <time>2026-08-27T18:28:06Z</time>
  <course>356.03</course>
  <speed>0.0</speed>
  <fix>3d</fix>
</trkpt>
<trkpt lat="-35.362881" lon="149.165222">
  <ele>582.09</ele>
  <time>2026-08-27T18:28:06Z</time>
  <course>96.11</course>
  <speed>0.0</speed>
  <fix>3d</fix>
</trkpt>
<trkpt lat="-35.362881" lon="149.165222">
  <ele>582.09</ele>
  <time>2026-08-27T18:28:06Z</time>
  <course>356.03</course>
  <speed>0.0</speed>
  <fix>3d</fix>
</trkpt>
<trkpt lat="-35.362881" lon="149.165222">
  <ele>582.09</ele>
  <time>2026-08-27T18:28:06Z</time>
  <course>96.11</course>
  <speed>0.0</speed>
  <fix>3d</fix>
</trkpt>
<trkpt lat="-35.362881" lon="149.165222">
  <ele>582.09</ele>
  <time>2026-08-27T18:28:06Z</time>
  <course>356.03</course>
  <speed>0.0</speed>
  <fix>3d</fix>
</trkpt>
<trkpt lat="-35.362881" lon="149.165222">
  <ele>582.09</ele>
  <time>2026-08-27T18:28:06Z</time>
  <course>96.11</course>
  <speed>0.0</speed>
  <fix>3d</fix>
</trkpt>
<trkpt lat="-35.362881" lon="149.165222">
  <ele>582.09</ele>
  <time>2026-08-27T18:28:06Z</time>
  <course>356.03</course>
  <speed>0.0</speed>
  <fix>3d</fix>
</trkpt>
<trkpt lat="-35.362881" lon="149.165222">
  <ele>582.09</ele>
  <time>2026-08-27T18:28:06Z</time>
  <course>96.11</course>
  <speed>0.0</speed>
  <fix>3d</fix>
</trkpt>
<trkpt lat="-35.362881" lon="149.165222">
  <ele>582.09</ele>
  <time>2026-08-27T18:28:06Z</time>
  <course>356.03</course>
  <speed>0.0</speed>
  <fix>3d</fix>
</trkpt>
<trkpt lat="-35.362881" lon="149.165222">
  <ele>582.09</ele>
  <time>2026-08-27T18:28:06Z</time>
  <course>96.11</course>
  <speed>0.0</speed>
  <fix>3d</fix>
</trkpt>
<trkpt lat="-35.362881" lon="149.165222">
  <ele>582.09</ele>
  <time>2026-08-27T18:28:06Z</time>
  <course>356.03</course>
  <speed>0.0</speed>
  <fix>3d</fix>
</trkpt>
<trkpt lat="-35.362881" lon="149.165222">
  <ele>582.09</ele>
  <time>2026-08-27T18:28:06Z</time>
  <course>96.11</course>
  <speed>0.0</speed>
  <fix>3d</fix>
</trkpt>
<trkpt lat="-35.362881" lon="149.165222">
  <ele>582.09</ele>
  <time>2026-08-27T18:28:06Z</time>
  <course>356.03</course>
  <speed>0.0</speed>
  <fix>3d</fix>
</trkpt>
<trkpt lat="-35.362881" lon="149.165222">
  <ele>582.09</ele>
  <time>2026-08-27T18:28:06Z</time>
  <course>96.1</course>
  <speed>0.0</speed>
  <fix>3d</fix>
</trkpt>
<trkpt lat="-35.362881" lon="149.165222">
  <ele>582.09</ele>
  <time>2026-08-27T18:28:06Z</time>
  <course>356.03</course>
  <speed>0.0</speed>
  <fix>3d</fix>
</trkpt>
<trkpt lat="-35.362881" lon="149.165222">
  <ele>582.09</ele>
  <time>2026-08-27T18:28:06Z</time>
  <course>96.1</course>
  <speed>0.0</speed>
  <fix>3d</fix>
</trkpt>
<trkpt lat="-35.362881" lon="149.165222">
  <ele>582.09</ele>
  <time>2026-08-27T18:28:06Z</time>
  <course>356.03</course>
  <speed>0.0</speed>
  <fix>3d</fix>
</trkpt>
<trkpt lat="-35.362881" lon="149.165222">
  <ele>582.09</ele>
  <time>2026-08-27T18:28:06Z</time>
  <course>96.09</course>
  <speed>0.0</speed>
  <fix>3d</fix>
</trkpt>
<trkpt lat="-35.362881" lon="149.165222">
  <ele>582.09</ele>
  <time>2026-08-27T18:28:06Z</time>
  <course>356.03</course>
  <speed>0.0</speed>
  <fix>3d</fix>
</trkpt>
<trkpt lat="-35.362881" lon="149.165222">
  <ele>582.09</ele>
  <time>2026-08-27T18:28:06Z</time>
  <course>96.08</course>
  <speed>0.0</speed>
  <fix>3d</fix>
</trkpt>
<trkpt lat="-35.362881" lon="149.165222">
  <ele>582.09</ele>
  <time>2026-08-27T18:28:06Z</time>
  <course>356.03</course>
  <speed>0.0</speed>
  <fix>3d</fix>
</trkpt>
<trkpt lat="-35.362881" lon="149.165222">
  <ele>582.09</ele>
  <time>2026-08-27T18:28:06Z</time>
  <course>96.08</course>
  <speed>0.01</speed>
  <fix>3d</fix>
</trkpt>
<trkpt lat="-35.362881" lon="149.165222">
  <ele>582.09</ele>
  <time>2026-08-27T18:28:06Z</time>
  <course>356.03</course>
  <speed>0.0</speed>
  <fix>3d</fix>
</trkpt>
<trkpt lat="-35.362881" lon="149.165222">
  <ele>582.09</ele>
  <time>2026-08-27T18:28:06Z</time>
  <course>96.07</course>
  <speed>0.01</speed>
  <fix>3d</fix>
</trkpt>
<trkpt lat="-35.362881" lon="149.165222">
  <ele>582.09</ele>
  <time>2026-08-27T18:28:06Z</time>
  <course>356.03</course>
  <speed>0.0</speed>
  <fix>3d</fix>
</trkpt>
<trkpt lat="-35.362881" lon="149.165222">
  <ele>582.09</ele>
  <time>2026-08-27T18:28:06Z</time>
  <course>96.06</course>
  <speed>0.01414213562373095</speed>
  <fix>3d</fix>
</trkpt>
<trkpt lat="-35.362881" lon="149.165222">
  <ele>582.09</ele>
  <time>2026-08-27T18:28:06Z</time>
  <course>356.03</course>
  <speed>0.0</speed>
  <fix>3d</fix>
</trkpt>
<trkpt lat="-35.362881" lon="149.165222">
  <ele>582.09</ele>
  <time>2026-08-27T18:28:06Z</time>
  <course>96.04</course>
  <speed>0.01414213562373095</speed>
  <fix>3d</fix>
</trkpt>
<trkpt lat="-35.362881" lon="149.165222">
  <ele>582.09</ele>
  <time>2026-08-27T18:28:06Z</time>
  <course>356.03</course>
  <speed>0.0</speed>
  <fix>3d</fix>
</trkpt>
<trkpt lat="-35.362881" lon="149.165222">
  <ele>582.09</ele>
  <time>2026-08-27T18:28:06Z</time>
  <course>96.03</course>
  <speed>0.01414213562373095</speed>
  <fix>3d</fix>
</trkpt>
<trkpt lat="-35.362881" lon="149.165222">
  <ele>582.09</ele>
  <time>2026-08-27T18:28:06Z</time>
  <course>356.03</course>
  <speed>0.0</speed>
  <fix>3d</fix>
</trkpt>
<trkpt lat="-35.362881" lon="149.165222">
  <ele>582.09</ele>
  <time>2026-08-27T18:28:06Z</time>
  <course>96.02</course>
  <speed>0.01414213562373095</speed>
  <fix>3d</fix>
</trkpt>
<trkpt lat="-35.362881" lon="149.165222">
  <ele>582.09</ele>
  <time>2026-08-27T18:28:06Z</time>
  <course>356.03</course>
  <speed>0.0</speed>
  <fix>3d</fix>
</trkpt>
<trkpt lat="-35.362881" lon="149.165222">
  <ele>582.09</ele>
  <time>2026-08-27T18:28:06Z</time>
  <course>96.01</course>
  <speed>0.01414213562373095</speed>
  <fix>3d</fix>
</trkpt>
<trkpt lat="-35.362881" lon="149.165222">
  <ele>582.09</ele>
  <time>2026-08-27T18:28:06Z</time>
  <course>356.03</course>
  <speed>0.0</speed>
  <fix>3d</fix>
</trkpt>
<trkpt lat="-35.362881" lon="149.165222">
  <ele>582.09</ele>
  <time>2026-08-27T18:28:06Z</time>
  <course>95.99</course>
  <speed>0.01414213562373095</speed>
  <fix>3d</fix>
</trkpt>
<trkpt lat="-35.362881" lon="149.165222">
  <ele>582.09</ele>
  <time>2026-08-27T18:28:06Z</time>
  <course>356.03</course>
  <speed>0.0</speed>
  <fix>3d</fix>
</trkpt>
<trkpt lat="-35.362881" lon="149.165222">
  <ele>582.09</ele>
  <time>2026-08-27T18:28:06Z</time>
  <course>95.98</course>
  <speed>0.01414213562373095</speed>
  <fix>3d</fix>
</trkpt>
<trkpt lat="-35.362881" lon="149.165222">
  <ele>582.09</ele>
  <time>2026-08-27T18:28:06Z</time>
  <course>356.03</course>
  <speed>0.0</speed>
  <fix>3d</fix>
</trkpt>
<trkpt lat="-35.362881" lon="149.165222">
  <ele>582.09</ele>
  <time>2026-08-27T18:28:06Z</time>
  <course>95.97</course>
  <speed>0.01414213562373095</speed>
  <fix>3d</fix>
</trkpt>
<trkpt lat="-35.362881" lon="149.165222">
  <ele>582.09</ele>
  <time>2026-08-27T18:28:06Z</time>
  <course>356.03</course>
  <speed>0.0</speed>
  <fix>3d</fix>
</trkpt>
<trkpt lat="-35.362881" lon="149.165222">
  <ele>582.09</ele>
  <time>2026-08-27T18:28:06Z</time>
  <course>95.95</course>
  <speed>0.01414213562373095</speed>
  <fix>3d</fix>
</trkpt>
<trkpt lat="-35.362881" lon="149.165222">
  <ele>582.09</ele>
  <time>2026-08-27T18:28:06Z</time>
  <course>356.03</course>
  <speed>0.0</speed>
  <fix>3d</fix>
</trkpt>
<trkpt lat="-35.362881" lon="149.165222">
  <ele>582.09</ele>
  <time>2026-08-27T18:28:06Z</time>
  <course>95.94</course>
  <speed>0.01414213562373095</speed>
  <fix>3d</fix>
</trkpt>
<trkpt lat="-35.362881" lon="149.165222">
  <ele>582.09</ele>
  <time>2026-08-27T18:28:06Z</time>
  <course>356.03</course>
  <speed>0.0</speed>
  <fix>3d</fix>
</trkpt>
<trkpt lat="-35.362881" lon="149.165222">
  <ele>582.09</ele>
  <time>2026-08-27T18:28:06Z</time>
  <course>95.92</course>
  <speed>0.01414213562373095</speed>
  <fix>3d</fix>
</trkpt>
<trkpt lat="-35.362881" lon="149.165222">
  <ele>582.09</ele>
  <time>2026-08-27T18:28:06Z</time>
  <course>356.03</course>
  <speed>0.0</speed>
  <fix>3d</fix>
</trkpt>
<trkpt lat="-35.362881" lon="149.165222">
  <ele>582.09</ele>
  <time>2026-08-27T18:28:06Z</time>
  <course>95.91</course>
  <speed>0.01414213562373095</speed>
  <fix>3d</fix>
</trkpt>
<trkpt lat="-35.362881" lon="149.165222">
  <ele>582.09</ele>
  <time>2026-08-27T18:28:06Z</time>
  <course>356.03</course>
  <speed>0.0</speed>
  <fix>3d</fix>
</trkpt>
<trkpt lat="-35.362881" lon="149.165222">
  <ele>582.09</ele>
  <time>2026-08-27T18:28:06Z</time>
  <course>95.9</course>
  <speed>0.01414213562373095</speed>
  <fix>3d</fix>
</trkpt>
<trkpt lat="-35.362881" lon="149.165222">
  <ele>582.09</ele>
  <time>2026-08-27T18:28:06Z</time>
  <course>356.03</course>
  <speed>0.0</speed>
  <fix>3d</fix>
</trkpt>
<trkpt lat="-35.362881" lon="149.165222">
  <ele>582.09</ele>
  <time>2026-08-27T18:28:06Z</time>
  <course>95.88</course>
  <speed>0.01414213562373095</speed>
  <fix>3d</fix>
</trkpt>
<trkpt lat="-35.362881" lon="149.165222">
  <ele>582.09</ele>
  <time>2026-08-27T18:28:06Z</time>
  <course>356.03</course>
  <speed>0.0</speed>
  <fix>3d</fix>
</trkpt>
<trkpt lat="-35.362881" lon="149.165222">
  <ele>582.09</ele>
  <time>2026-08-27T18:28:06Z</time>
  <course>95.86</course>
  <speed>0.01414213562373095</speed>
  <fix>3d</fix>
</trkpt>
<trkpt lat="-35.362881" lon="149.165222">
  <ele>582.09</ele>
  <time>2026-08-27T18:28:06Z</time>
  <course>356.03</course>
  <speed>0.0</speed>
  <fix>3d</fix>
</trkpt>
<trkpt lat="-35.362881" lon="149.165222">
  <ele>582.09</ele>
  <time>2026-08-27T18:28:06Z</time>
  <course>95.86</course>
  <speed>0.01414213562373095</speed>
  <fix>3d</fix>
</trkpt>
<trkpt lat="-35.362881" lon="149.165222">
  <ele>582.09</ele>
  <time>2026-08-27T18:28:06Z</time>
  <course>356.03</course>
  <speed>0.0</speed>
  <fix>3d</fix>
</trkpt>
<trkpt lat="-35.362881" lon="149.165222">
  <ele>582.09</ele>
  <time>2026-08-27T18:28:06Z</time>
  <course>95.84</course>
  <speed>0.01414213562373095</speed>
  <fix>3d</fix>
</trkpt>
<trkpt lat="-35.362881" lon="149.165222">
  <ele>582.09</ele>
  <time>2026-08-27T18:28:06Z</time>
  <course>356.03</course>
  <speed>0.0</speed>
  <fix>3d</fix>
</trkpt>
<trkpt lat="-35.362881" lon="149.165222">
  <ele>582.09</ele>
  <time>2026-08-27T18:28:06Z</time>
  <course>95.83</course>
  <speed>0.01414213562373095</speed>
  <fix>3d</fix>
</trkpt>
<trkpt lat="-35.362881" lon="149.165222">
  <ele>582.09</ele>
  <time>2026-08-27T18:28:06Z</time>
  <course>356.03</course>
  <speed>0.0</speed>
  <fix>3d</fix>
</trkpt>
<trkpt lat="-35.362881" lon="149.165222">
  <ele>582.09</ele>
  <time>2026-08-27T18:28:06Z</time>
  <course>95.81</course>
  <speed>0.01414213562373095</speed>
  <fix>3d</fix>
</trkpt>
<trkpt lat="-35.362881" lon="149.165222">
  <ele>582.09</ele>
  <time>2026-08-27T18:28:06Z</time>
  <course>356.03</course>
  <speed>0.0</speed>
  <fix>3d</fix>
</trkpt>
<trkpt lat="-35.362881" lon="149.165222">
  <ele>582.09</ele>
  <time>2026-08-27T18:28:06Z</time>
  <course>95.79</course>
  <speed>0.01414213562373095</speed>
  <fix>3d</fix>
</trkpt>
<trkpt lat="-35.362881" lon="149.165222">
  <ele>582.09</ele>
  <time>2026-08-27T18:28:06Z</time>
  <course>356.03</course>
  <speed>0.0</speed>
  <fix>3d</fix>
</trkpt>
<trkpt lat="-35.362881" lon="149.165222">
  <ele>582.09</ele>
  <time>2026-08-27T18:28:06Z</time>
  <course>95.78</course>
  <speed>0.01414213562373095</speed>
  <fix>3d</fix>
</trkpt>
<trkpt lat="-35.362881" lon="149.165222">
  <ele>582.09</ele>
  <time>2026-08-27T18:28:06Z</time>
  <course>356.03</course>
  <speed>0.0</speed>
  <fix>3d</fix>
</trkpt>
<trkpt lat="-35.362881" lon="149.165222">
  <ele>582.09</ele>
  <time>2026-08-27T18:28:06Z</time>
  <course>95.76</course>
  <speed>0.01414213562373095</speed>
  <fix>3d</fix>
</trkpt>
<trkpt lat="-35.362881" lon="149.165222">
  <ele>582.09</ele>
  <time>2026-08-27T18:28:06Z</time>
  <course>356.03</course>
  <speed>0.0</speed>
  <fix>3d</fix>
</trkpt>
<trkpt lat="-35.362881" lon="149.165222">
  <ele>582.09</ele>
  <time>2026-08-27T18:28:06Z</time>
  <course>95.74</course>
  <speed>0.01414213562373095</speed>
  <fix>3d</fix>
</trkpt>
<trkpt lat="-35.362881" lon="149.165222">
  <ele>582.09</ele>
  <time>2026-08-27T18:28:06Z</time>
  <course>356.03</course>
  <speed>0.0</speed>
  <fix>3d</fix>
</trkpt>
<trkpt lat="-35.362881" lon="149.165222">
  <ele>582.09</ele>
  <time>2026-08-27T18:28:06Z</time>
  <course>95.73</course>
  <speed>0.01414213562373095</speed>
  <fix>3d</fix>
</trkpt>
<trkpt lat="-35.362881" lon="149.165222">
  <ele>582.09</ele>
  <time>2026-08-27T18:28:06Z</time>
  <course>356.03</course>
  <speed>0.0</speed>
  <fix>3d</fix>
</trkpt>
<trkpt lat="-35.362881" lon="149.165222">
  <ele>582.09</ele>
  <time>2026-08-27T18:28:06Z</time>
  <course>95.71</course>
  <speed>0.01414213562373095</speed>
  <fix>3d</fix>
</trkpt>
<trkpt lat="-35.362881" lon="149.165222">
  <ele>582.09</ele>
  <time>2026-08-27T18:28:06Z</time>
  <course>356.03</course>
  <speed>0.0</speed>
  <fix>3d</fix>
</trkpt>
<trkpt lat="-35.362881" lon="149.165222">
  <ele>582.09</ele>
  <time>2026-08-27T18:28:06Z</time>
  <course>95.69</course>
  <speed>0.01414213562373095</speed>
  <fix>3d</fix>
</trkpt>
<trkpt lat="-35.362881" lon="149.165222">
  <ele>582.09</ele>
  <time>2026-08-27T18:28:06Z</time>
  <course>356.03</course>
  <speed>0.0</speed>
  <fix>3d</fix>
</trkpt>
<trkpt lat="-35.362881" lon="149.165222">
  <ele>582.09</ele>
  <time>2026-08-27T18:28:06Z</time>
  <course>95.68</course>
  <speed>0.01414213562373095</speed>
  <fix>3d</fix>
</trkpt>
<trkpt lat="-35.362881" lon="149.165222">
  <ele>582.09</ele>
  <time>2026-08-27T18:28:06Z</time>
  <course>356.03</course>
  <speed>0.0</speed>
  <fix>3d</fix>
</trkpt>
<trkpt lat="-35.362881" lon="149.165222">
  <ele>582.09</ele>
  <time>2026-08-27T18:28:06Z</time>
  <course>95.66</course>
  <speed>0.01414213562373095</speed>
  <fix>3d</fix>
</trkpt>
<trkpt lat="-35.362881" lon="149.165222">
  <ele>582.09</ele>
  <time>2026-08-27T18:28:06Z</time>
  <course>356.03</course>
  <speed>0.0</speed>
  <fix>3d</fix>
</trkpt>
<trkpt lat="-35.362881" lon="149.165222">
  <ele>582.09</ele>
  <time>2026-08-27T18:28:06Z</time>
  <course>95.64</course>
  <speed>0.01414213562373095</speed>
  <fix>3d</fix>
</trkpt>
<trkpt lat="-35.362881" lon="149.165222">
  <ele>582.09</ele>
  <time>2026-08-27T18:28:06Z</time>
  <course>356.03</course>
  <speed>0.0</speed>
  <fix>3d</fix>
</trkpt>
<trkpt lat="-35.362881" lon="149.165222">
  <ele>582.09</ele>
  <time>2026-08-27T18:28:06Z</time>
  <course>95.63</course>
  <speed>0.022360679774997897</speed>
  <fix>3d</fix>
</trkpt>
<trkpt lat="-35.362881" lon="149.165222">
  <ele>582.09</ele>
  <time>2026-08-27T18:28:06Z</time>
  <course>356.03</course>
  <speed>0.0</speed>
  <fix>3d</fix>
</trkpt>
<trkpt lat="-35.362881" lon="149.165222">
  <ele>582.09</ele>
  <time>2026-08-27T18:28:06Z</time>
  <course>95.61</course>
  <speed>0.022360679774997897</speed>
  <fix>3d</fix>
</trkpt>
<trkpt lat="-35.362881" lon="149.165222">
  <ele>582.09</ele>
  <time>2026-08-27T18:28:06Z</time>
  <course>356.03</course>
  <speed>0.0</speed>
  <fix>3d</fix>
</trkpt>
<trkpt lat="-35.362881" lon="149.165222">
  <ele>582.09</ele>
  <time>2026-08-27T18:28:06Z</time>
  <course>95.59</course>
  <speed>0.0282842712474619</speed>
  <fix>3d</fix>
</trkpt>
<trkpt lat="-35.362881" lon="149.165222">
  <ele>582.09</ele>
  <time>2026-08-27T18:28:06Z</time>
  <course>356.03</course>
  <speed>0.0</speed>
  <fix>3d</fix>
</trkpt>
<trkpt lat="-35.362881" lon="149.165222">
  <ele>582.09</ele>
  <time>2026-08-27T18:28:06Z</time>
  <course>95.58</course>
  <speed>0.0282842712474619</speed>
  <fix>3d</fix>
</trkpt>
<trkpt lat="-35.362881" lon="149.165222">
  <ele>582.09</ele>
  <time>2026-08-27T18:28:06Z</time>
  <course>356.03</course>
  <speed>0.0</speed>
  <fix>3d</fix>
</trkpt>
<trkpt lat="-35.362881" lon="149.165222">
  <ele>582.09</ele>
  <time>2026-08-27T18:28:06Z</time>
  <course>95.56</course>
  <speed>0.0282842712474619</speed>
  <fix>3d</fix>
</trkpt>
<trkpt lat="-35.362881" lon="149.165222">
  <ele>582.09</ele>
  <time>2026-08-27T18:28:06Z</time>
  <course>356.03</course>
  <speed>0.0</speed>
  <fix>3d</fix>
</trkpt>
<trkpt lat="-35.362881" lon="149.165222">
  <ele>582.09</ele>
  <time>2026-08-27T18:28:06Z</time>
  <course>95.55</course>
  <speed>0.0282842712474619</speed>
  <fix>3d</fix>
</trkpt>
<trkpt lat="-35.362881" lon="149.165222">
  <ele>582.09</ele>
  <time>2026-08-27T18:28:06Z</time>
  <course>356.03</course>
  <speed>0.0</speed>
  <fix>3d</fix>
</trkpt>
<trkpt lat="-35.362881" lon="149.165222">
  <ele>582.09</ele>
  <time>2026-08-27T18:28:06Z</time>
  <course>95.53</course>
  <speed>0.0282842712474619</speed>
  <fix>3d</fix>
</trkpt>
<trkpt lat="-35.362881" lon="149.165222">
  <ele>582.09</ele>
  <time>2026-08-27T18:28:06Z</time>
  <course>356.03</course>
  <speed>0.0</speed>
  <fix>3d</fix>
</trkpt>
<trkpt lat="-35.362881" lon="149.165222">
  <ele>582.09</ele>
  <time>2026-08-27T18:28:06Z</time>
  <course>95.51</course>
  <speed>0.0282842712474619</speed>
  <fix>3d</fix>
</trkpt>
<trkpt lat="-35.362881" lon="149.165222">
  <ele>582.09</ele>
  <time>2026-08-27T18:28:06Z</time>
  <course>356.03</course>
  <speed>0.0</speed>
  <fix>3d</fix>
</trkpt>
<trkpt lat="-35.362881" lon="149.165222">
  <ele>582.09</ele>
  <time>2026-08-27T18:28:06Z</time>
  <course>95.5</course>
  <speed>0.0282842712474619</speed>
  <fix>3d</fix>
</trkpt>
<trkpt lat="-35.362881" lon="149.165222">
  <ele>582.09</ele>
  <time>2026-08-27T18:28:06Z</time>
  <course>356.03</course>
  <speed>0.0</speed>
  <fix>3d</fix>
</trkpt>
<trkpt lat="-35.362881" lon="149.165222">
  <ele>582.09</ele>
  <time>2026-08-27T18:28:06Z</time>
  <course>95.48</course>
  <speed>0.0282842712474619</speed>
  <fix>3d</fix>
</trkpt>
<trkpt lat="-35.362881" lon="149.165222">
  <ele>582.09</ele>
  <time>2026-08-27T18:28:06Z</time>
  <course>356.03</course>
  <speed>0.0</speed>
  <fix>3d</fix>
</trkpt>
<trkpt lat="-35.362881" lon="149.165222">
  <ele>582.09</ele>
  <time>2026-08-27T18:28:06Z</time>
  <course>95.47</course>
  <speed>0.0282842712474619</speed>
  <fix>3d</fix>
</trkpt>
<trkpt lat="-35.362881" lon="149.165222">
  <ele>582.09</ele>
  <time>2026-08-27T18:28:06Z</time>
  <course>356.03</course>
  <speed>0.0</speed>
  <fix>3d</fix>
</trkpt>
<trkpt lat="-35.362881" lon="149.165222">
  <ele>582.09</ele>
  <time>2026-08-27T18:28:06Z</time>
  <course>95.45</course>
  <speed>0.0282842712474619</speed>
  <fix>3d</fix>
</trkpt>
<trkpt lat="-35.362881" lon="149.165222">
  <ele>582.09</ele>
  <time>2026-08-27T18:28:06Z</time>
  <course>356.03</course>
  <speed>0.0</speed>
  <fix>3d</fix>
</trkpt>
<trkpt lat="-35.362881" lon="149.165222">
  <ele>582.09</ele>
  <time>2026-08-27T18:28:06Z</time>
  <course>95.44</course>
  <speed>0.0282842712474619</speed>
  <fix>3d</fix>
</trkpt>
<trkpt lat="-35.362881" lon="149.165222">
  <ele>582.09</ele>
  <time>2026-08-27T18:28:06Z</time>
  <course>356.03</course>
  <speed>0.0</speed>
  <fix>3d</fix>
</trkpt>
<trkpt lat="-35.362881" lon="149.165222">
  <ele>582.09</ele>
  <time>2026-08-27T18:28:06Z</time>
  <course>95.42</course>
  <speed>0.0282842712474619</speed>
  <fix>3d</fix>
</trkpt>
<trkpt lat="-35.362881" lon="149.165222">
  <ele>582.09</ele>
  <time>2026-08-27T18:28:06Z</time>
  <course>356.03</course>
  <speed>0.0</speed>
  <fix>3d</fix>
</trkpt>
<trkpt lat="-35.362881" lon="149.165222">
  <ele>582.09</ele>
  <time>2026-08-27T18:28:06Z</time>
  <course>95.41</course>
  <speed>0.0282842712474619</speed>
  <fix>3d</fix>
</trkpt>
<trkpt lat="-35.362881" lon="149.165222">
  <ele>582.09</ele>
  <time>2026-08-27T18:28:06Z</time>
  <course>356.03</course>
  <speed>0.0</speed>
  <fix>3d</fix>
</trkpt>
<trkpt lat="-35.362881" lon="149.165222">
  <ele>582.09</ele>
  <time>2026-08-27T18:28:06Z</time>
  <course>95.39</course>
  <speed>0.0282842712474619</speed>
  <fix>3d</fix>
</trkpt>
<trkpt lat="-35.362881" lon="149.165222">
  <ele>582.09</ele>
  <time>2026-08-27T18:28:06Z</time>
  <course>356.03</course>
  <speed>0.0</speed>
  <fix>3d</fix>
</trkpt>
<trkpt lat="-35.362881" lon="149.165222">
  <ele>582.09</ele>
  <time>2026-08-27T18:28:06Z</time>
  <course>95.38</course>
  <speed>0.0282842712474619</speed>
  <fix>3d</fix>
</trkpt>
<trkpt lat="-35.362881" lon="149.165222">
  <ele>582.09</ele>
  <time>2026-08-27T18:28:06Z</time>
  <course>356.03</course>
  <speed>0.0</speed>
  <fix>3d</fix>
</trkpt>
<trkpt lat="-35.362881" lon="149.165222">
  <ele>582.09</ele>
  <time>2026-08-27T18:28:06Z</time>
  <course>95.37</course>
  <speed>0.0282842712474619</speed>
  <fix>3d</fix>
</trkpt>
<trkpt lat="-35.362881" lon="149.165222">
  <ele>582.09</ele>
  <time>2026-08-27T18:28:06Z</time>
  <course>356.03</course>
  <speed>0.0</speed>
  <fix>3d</fix>
</trkpt>
<trkpt lat="-35.362881" lon="149.165222">
  <ele>582.09</ele>
  <time>2026-08-27T18:28:06Z</time>
  <course>95.35</course>
  <speed>0.0282842712474619</speed>
  <fix>3d</fix>
</trkpt>
<trkpt lat="-35.362881" lon="149.165222">
  <ele>582.09</ele>
  <time>2026-08-27T18:28:06Z</time>
  <course>356.03</course>
  <speed>0.0</speed>
  <fix>3d</fix>
</trkpt>
<trkpt lat="-35.362881" lon="149.165222">
  <ele>582.09</ele>
  <time>2026-08-27T18:28:06Z</time>
  <course>95.34</course>
  <speed>0.0282842712474619</speed>
  <fix>3d</fix>
</trkpt>
<trkpt lat="-35.362881" lon="149.165222">
  <ele>582.09</ele>
  <time>2026-08-27T18:28:06Z</time>
  <course>356.03</course>
  <speed>0.0</speed>
  <fix>3d</fix>
</trkpt>
<trkpt lat="-35.362881" lon="149.165222">
  <ele>582.09</ele>
  <time>2026-08-27T18:28:06Z</time>
  <course>95.32</course>
  <speed>0.0282842712474619</speed>
  <fix>3d</fix>
</trkpt>
<trkpt lat="-35.362881" lon="149.165222">
  <ele>582.09</ele>
  <time>2026-08-27T18:28:06Z</time>
  <course>356.03</course>
  <speed>0.0</speed>
  <fix>3d</fix>
</trkpt>
<trkpt lat="-35.362881" lon="149.165222">
  <ele>582.09</ele>
  <time>2026-08-27T18:28:06Z</time>
  <course>95.31</course>
  <speed>0.0282842712474619</speed>
  <fix>3d</fix>
</trkpt>
<trkpt lat="-35.362881" lon="149.165222">
  <ele>582.09</ele>
  <time>2026-08-27T18:28:06Z</time>
  <course>356.03</course>
  <speed>0.0</speed>
  <fix>3d</fix>
</trkpt>
<trkpt lat="-35.362881" lon="149.165222">
  <ele>582.09</ele>
  <time>2026-08-27T18:28:06Z</time>
  <course>95.29</course>
  <speed>0.0282842712474619</speed>
  <fix>3d</fix>
</trkpt>
<trkpt lat="-35.362881" lon="149.165222">
  <ele>582.09</ele>
  <time>2026-08-27T18:28:06Z</time>
  <course>356.03</course>
  <speed>0.0</speed>
  <fix>3d</fix>
</trkpt>
<trkpt lat="-35.362881" lon="149.165222">
  <ele>582.09</ele>
  <time>2026-08-27T18:28:06Z</time>
  <course>95.28</course>
  <speed>0.0282842712474619</speed>
  <fix>3d</fix>
</trkpt>
<trkpt lat="-35.362881" lon="149.165222">
  <ele>582.09</ele>
  <time>2026-08-27T18:28:06Z</time>
  <course>356.03</course>
  <speed>0.0</speed>
  <fix>3d</fix>
</trkpt>
<trkpt lat="-35.362881" lon="149.165222">
  <ele>582.09</ele>
  <time>2026-08-27T18:28:06Z</time>
  <course>95.27</course>
  <speed>0.0282842712474619</speed>
  <fix>3d</fix>
</trkpt>
<trkpt lat="-35.362881" lon="149.165222">
  <ele>582.09</ele>
  <time>2026-08-27T18:28:06Z</time>
  <course>356.03</course>
  <speed>0.0</speed>
  <fix>3d</fix>
</trkpt>
<trkpt lat="-35.362881" lon="149.165222">
  <ele>582.09</ele>
  <time>2026-08-27T18:28:06Z</time>
  <course>95.25</course>
  <speed>0.0282842712474619</speed>
  <fix>3d</fix>
</trkpt>
<trkpt lat="-35.362881" lon="149.165222">
  <ele>582.09</ele>
  <time>2026-08-27T18:28:06Z</time>
  <course>356.03</course>
  <speed>0.0</speed>
  <fix>3d</fix>
</trkpt>
<trkpt lat="-35.362881" lon="149.165222">
  <ele>582.09</ele>
  <time>2026-08-27T18:28:06Z</time>
  <course>95.24</course>
  <speed>0.0282842712474619</speed>
  <fix>3d</fix>
</trkpt>
<trkpt lat="-35.362881" lon="149.165222">
  <ele>582.09</ele>
  <time>2026-08-27T18:28:06Z</time>
  <course>356.03</course>
  <speed>0.0</speed>
  <fix>3d</fix>
</trkpt>
<trkpt lat="-35.362881" lon="149.165222">
  <ele>582.09</ele>
  <time>2026-08-27T18:28:06Z</time>
  <course>95.22</course>
  <speed>0.0282842712474619</speed>
  <fix>3d</fix>
</trkpt>
<trkpt lat="-35.362881" lon="149.165222">
  <ele>582.09</ele>
  <time>2026-08-27T18:28:06Z</time>
  <course>356.03</course>
  <speed>0.0</speed>
  <fix>3d</fix>
</trkpt>
<trkpt lat="-35.362881" lon="149.165222">
  <ele>582.09</ele>
  <time>2026-08-27T18:28:06Z</time>
  <course>95.21</course>
  <speed>0.0282842712474619</speed>
  <fix>3d</fix>
</trkpt>
<trkpt lat="-35.362881" lon="149.165222">
  <ele>582.09</ele>
  <time>2026-08-27T18:28:06Z</time>
  <course>356.03</course>
  <speed>0.0</speed>
  <fix>3d</fix>
</trkpt>
<trkpt lat="-35.362881" lon="149.165222">
  <ele>582.09</ele>
  <time>2026-08-27T18:28:06Z</time>
  <course>95.2</course>
  <speed>0.0282842712474619</speed>
  <fix>3d</fix>
</trkpt>
<trkpt lat="-35.362881" lon="149.165222">
  <ele>582.09</ele>
  <time>2026-08-27T18:28:06Z</time>
  <course>356.03</course>
  <speed>0.0</speed>
  <fix>3d</fix>
</trkpt>
<trkpt lat="-35.362881" lon="149.165222">
  <ele>582.09</ele>
  <time>2026-08-27T18:28:06Z</time>
  <course>95.18</course>
  <speed>0.0282842712474619</speed>
  <fix>3d</fix>
</trkpt>
<trkpt lat="-35.362881" lon="149.165222">
  <ele>582.09</ele>
  <time>2026-08-27T18:28:06Z</time>
  <course>356.03</course>
  <speed>0.0</speed>
  <fix>3d</fix>
</trkpt>
<trkpt lat="-35.362881" lon="149.165222">
  <ele>582.09</ele>
  <time>2026-08-27T18:28:06Z</time>
  <course>95.17</course>
  <speed>0.0282842712474619</speed>
  <fix>3d</fix>
</trkpt>
<trkpt lat="-35.362881" lon="149.165222">
  <ele>582.09</ele>
  <time>2026-08-27T18:28:06Z</time>
  <course>356.03</course>
  <speed>0.0</speed>
  <fix>3d</fix>
</trkpt>
<trkpt lat="-35.362881" lon="149.165222">
  <ele>582.09</ele>
  <time>2026-08-27T18:28:06Z</time>
  <course>95.16</course>
  <speed>0.0282842712474619</speed>
  <fix>3d</fix>
</trkpt>
<trkpt lat="-35.362881" lon="149.165222">
  <ele>582.09</ele>
  <time>2026-08-27T18:28:06Z</time>
  <course>356.03</course>
  <speed>0.0</speed>
  <fix>3d</fix>
</trkpt>
<trkpt lat="-35.362881" lon="149.165222">
  <ele>582.09</ele>
  <time>2026-08-27T18:28:06Z</time>
  <course>95.14</course>
  <speed>0.0282842712474619</speed>
  <fix>3d</fix>
</trkpt>
<trkpt lat="-35.362881" lon="149.165222">
  <ele>582.09</ele>
  <time>2026-08-27T18:28:06Z</time>
  <course>356.03</course>
  <speed>0.0</speed>
  <fix>3d</fix>
</trkpt>
<trkpt lat="-35.362881" lon="149.165222">
  <ele>582.09</ele>
  <time>2026-08-27T18:28:06Z</time>
  <course>95.13</course>
  <speed>0.0282842712474619</speed>
  <fix>3d</fix>
</trkpt>
<trkpt lat="-35.362881" lon="149.165222">
  <ele>582.09</ele>
  <time>2026-08-27T18:28:06Z</time>
  <course>356.03</course>
  <speed>0.0</speed>
  <fix>3d</fix>
</trkpt>
<trkpt lat="-35.362881" lon="149.165222">
  <ele>582.09</ele>
  <time>2026-08-27T18:28:06Z</time>
  <course>95.12</course>
  <speed>0.03605551275463989</speed>
  <fix>3d</fix>
</trkpt>
<trkpt lat="-35.362881" lon="149.165222">
  <ele>582.09</ele>
  <time>2026-08-27T18:28:06Z</time>
  <course>356.03</course>
  <speed>0.0</speed>
  <fix>3d</fix>
</trkpt>
<trkpt lat="-35.362881" lon="149.165222">
  <ele>582.09</ele>
  <time>2026-08-27T18:28:06Z</time>
  <course>95.11</course>
  <speed>0.03605551275463989</speed>
  <fix>3d</fix>
</trkpt>
<trkpt lat="-35.362881" lon="149.165222">
  <ele>582.09</ele>
  <time>2026-08-27T18:28:06Z</time>
  <course>356.03</course>
  <speed>0.0</speed>
  <fix>3d</fix>
</trkpt>
<trkpt lat="-35.362881" lon="149.165222">
  <ele>582.09</ele>
  <time>2026-08-27T18:28:06Z</time>
  <course>95.09</course>
  <speed>0.03605551275463989</speed>
  <fix>3d</fix>
</trkpt>
<trkpt lat="-35.362881" lon="149.165222">
  <ele>582.09</ele>
  <time>2026-08-27T18:28:06Z</time>
  <course>356.03</course>
  <speed>0.0</speed>
  <fix>3d</fix>
</trkpt>
<trkpt lat="-35.362881" lon="149.165222">
  <ele>582.09</ele>
  <time>2026-08-27T18:28:06Z</time>
  <course>95.08</course>
  <speed>0.03605551275463989</speed>
  <fix>3d</fix>
</trkpt>
<trkpt lat="-35.362881" lon="149.165222">
  <ele>582.09</ele>
  <time>2026-08-27T18:28:06Z</time>
  <course>356.03</course>
  <speed>0.0</speed>
  <fix>3d</fix>
</trkpt>
<trkpt lat="-35.362881" lon="149.165222">
  <ele>582.09</ele>
  <time>2026-08-27T18:28:06Z</time>
  <course>95.07</course>
  <speed>0.03605551275463989</speed>
  <fix>3d</fix>
</trkpt>
<trkpt lat="-35.362881" lon="149.165222">
  <ele>582.09</ele>
  <time>2026-08-27T18:28:06Z</time>
  <course>356.03</course>
  <speed>0.0</speed>
  <fix>3d</fix>
</trkpt>
<trkpt lat="-35.362881" lon="149.165222">
  <ele>582.09</ele>
  <time>2026-08-27T18:28:06Z</time>
  <course>95.06</course>
  <speed>0.03605551275463989</speed>
  <fix>3d</fix>
</trkpt>
<trkpt lat="-35.362881" lon="149.165222">
  <ele>582.09</ele>
  <time>2026-08-27T18:28:06Z</time>
  <course>356.03</course>
  <speed>0.0</speed>
  <fix>3d</fix>
</trkpt>
<trkpt lat="-35.362881" lon="149.165222">
  <ele>582.09</ele>
  <time>2026-08-27T18:28:06Z</time>
  <course>95.05</course>
  <speed>0.03605551275463989</speed>
  <fix>3d</fix>
</trkpt>
<trkpt lat="-35.362881" lon="149.165222">
  <ele>582.09</ele>
  <time>2026-08-27T18:28:06Z</time>
  <course>356.03</course>
  <speed>0.0</speed>
  <fix>3d</fix>
</trkpt>
<trkpt lat="-35.362881" lon="149.165222">
  <ele>582.09</ele>
  <time>2026-08-27T18:28:06Z</time>
  <course>95.04</course>
  <speed>0.03605551275463989</speed>
  <fix>3d</fix>
</trkpt>
<trkpt lat="-35.362881" lon="149.165222">
  <ele>582.09</ele>
  <time>2026-08-27T18:28:06Z</time>
  <course>356.03</course>
  <speed>0.0</speed>
  <fix>3d</fix>
</trkpt>
<trkpt lat="-35.362881" lon="149.165222">
  <ele>582.09</ele>
  <time>2026-08-27T18:28:06Z</time>
  <course>95.02</course>
  <speed>0.03605551275463989</speed>
  <fix>3d</fix>
</trkpt>
<trkpt lat="-35.362881" lon="149.165222">
  <ele>582.09</ele>
  <time>2026-08-27T18:28:06Z</time>
  <course>356.03</course>
  <speed>0.0</speed>
  <fix>3d</fix>
</trkpt>
<trkpt lat="-35.362881" lon="149.165222">
  <ele>582.09</ele>
  <time>2026-08-27T18:28:06Z</time>
  <course>95.01</course>
  <speed>0.03605551275463989</speed>
  <fix>3d</fix>
</trkpt>
<trkpt lat="-35.362881" lon="149.165222">
  <ele>582.09</ele>
  <time>2026-08-27T18:28:06Z</time>
  <course>356.03</course>
  <speed>0.0</speed>
  <fix>3d</fix>
</trkpt>
<trkpt lat="-35.362881" lon="149.165222">
  <ele>582.09</ele>
  <time>2026-08-27T18:28:06Z</time>
  <course>95.0</course>
  <speed>0.03605551275463989</speed>
  <fix>3d</fix>
</trkpt>
<trkpt lat="-35.362881" lon="149.165222">
  <ele>582.09</ele>
  <time>2026-08-27T18:28:06Z</time>
  <course>356.03</course>
  <speed>0.0</speed>
  <fix>3d</fix>
</trkpt>
<trkpt lat="-35.362881" lon="149.165222">
  <ele>582.09</ele>
  <time>2026-08-27T18:28:06Z</time>
  <course>94.99</course>
  <speed>0.03605551275463989</speed>
  <fix>3d</fix>
</trkpt>
<trkpt lat="-35.362881" lon="149.165222">
  <ele>582.09</ele>
  <time>2026-08-27T18:28:06Z</time>
  <course>356.03</course>
  <speed>0.0</speed>
  <fix>3d</fix>
</trkpt>
<trkpt lat="-35.362881" lon="149.165222">
  <ele>582.09</ele>
  <time>2026-08-27T18:28:06Z</time>
  <course>94.98</course>
  <speed>0.03605551275463989</speed>
  <fix>3d</fix>
</trkpt>
<trkpt lat="-35.362881" lon="149.165222">
  <ele>582.09</ele>
  <time>2026-08-27T18:28:06Z</time>
  <course>356.03</course>
  <speed>0.0</speed>
  <fix>3d</fix>
</trkpt>
<trkpt lat="-35.362881" lon="149.165222">
  <ele>582.09</ele>
  <time>2026-08-27T18:28:06Z</time>
  <course>94.96</course>
  <speed>0.03605551275463989</speed>
  <fix>3d</fix>
</trkpt>
<trkpt lat="-35.362881" lon="149.165222">
  <ele>582.09</ele>
  <time>2026-08-27T18:28:06Z</time>
  <course>356.03</course>
  <speed>0.0</speed>
  <fix>3d</fix>
</trkpt>
<trkpt lat="-35.362881" lon="149.165222">
  <ele>582.09</ele>
  <time>2026-08-27T18:28:06Z</time>
  <course>94.95</course>
  <speed>0.03605551275463989</speed>
  <fix>3d</fix>
</trkpt>
<trkpt lat="-35.362881" lon="149.165222">
  <ele>582.09</ele>
  <time>2026-08-27T18:28:06Z</time>
  <course>356.03</course>
  <speed>0.0</speed>
  <fix>3d</fix>
</trkpt>
<trkpt lat="-35.362881" lon="149.165222">
  <ele>582.09</ele>
  <time>2026-08-27T18:28:06Z</time>
  <course>94.94</course>
  <speed>0.03605551275463989</speed>
  <fix>3d</fix>
</trkpt>
<trkpt lat="-35.362881" lon="149.165222">
  <ele>582.09</ele>
  <time>2026-08-27T18:28:06Z</time>
  <course>356.03</course>
  <speed>0.0</speed>
  <fix>3d</fix>
</trkpt>
<trkpt lat="-35.362881" lon="149.165222">
  <ele>582.09</ele>
  <time>2026-08-27T18:28:06Z</time>
  <course>94.93</course>
  <speed>0.03605551275463989</speed>
  <fix>3d</fix>
</trkpt>
<trkpt lat="-35.362881" lon="149.165222">
  <ele>582.09</ele>
  <time>2026-08-27T18:28:06Z</time>
  <course>356.03</course>
  <speed>0.0</speed>
  <fix>3d</fix>
</trkpt>
<trkpt lat="-35.362881" lon="149.165222">
  <ele>582.09</ele>
  <time>2026-08-27T18:28:06Z</time>
  <course>94.92</course>
  <speed>0.03605551275463989</speed>
  <fix>3d</fix>
</trkpt>
<trkpt lat="-35.362881" lon="149.165222">
  <ele>582.09</ele>
  <time>2026-08-27T18:28:06Z</time>
  <course>356.03</course>
  <speed>0.0</speed>
  <fix>3d</fix>
</trkpt>
<trkpt lat="-35.362881" lon="149.165222">
  <ele>582.09</ele>
  <time>2026-08-27T18:28:06Z</time>
  <course>94.91</course>
  <speed>0.04242640687119285</speed>
  <fix>3d</fix>
</trkpt>
<trkpt lat="-35.362881" lon="149.165222">
  <ele>582.09</ele>
  <time>2026-08-27T18:28:06Z</time>
  <course>356.03</course>
  <speed>0.0</speed>
  <fix>3d</fix>
</trkpt>
<trkpt lat="-35.362881" lon="149.165222">
  <ele>582.09</ele>
  <time>2026-08-27T18:28:06Z</time>
  <course>94.9</course>
  <speed>0.04242640687119285</speed>
  <fix>3d</fix>
</trkpt>
<trkpt lat="-35.362881" lon="149.165222">
  <ele>582.09</ele>
  <time>2026-08-27T18:28:06Z</time>
  <course>356.03</course>
  <speed>0.0</speed>
  <fix>3d</fix>
</trkpt>
<trkpt lat="-35.362881" lon="149.165222">
  <ele>582.09</ele>
  <time>2026-08-27T18:28:06Z</time>
  <course>94.89</course>
  <speed>0.04242640687119285</speed>
  <fix>3d</fix>
</trkpt>
<trkpt lat="-35.362881" lon="149.165222">
  <ele>582.09</ele>
  <time>2026-08-27T18:28:06Z</time>
  <course>356.03</course>
  <speed>0.0</speed>
  <fix>3d</fix>
</trkpt>
<trkpt lat="-35.362881" lon="149.165222">
  <ele>582.09</ele>
  <time>2026-08-27T18:28:06Z</time>
  <course>94.88</course>
  <speed>0.04242640687119285</speed>
  <fix>3d</fix>
</trkpt>
<trkpt lat="-35.362881" lon="149.165222">
  <ele>582.09</ele>
  <time>2026-08-27T18:28:06Z</time>
  <course>356.03</course>
  <speed>0.0</speed>
  <fix>3d</fix>
</trkpt>
<trkpt lat="-35.362881" lon="149.165222">
  <ele>582.09</ele>
  <time>2026-08-27T18:28:06Z</time>
  <course>94.87</course>
  <speed>0.04242640687119285</speed>
  <fix>3d</fix>
</trkpt>
<trkpt lat="-35.362881" lon="149.165222">
  <ele>582.09</ele>
  <time>2026-08-27T18:28:06Z</time>
  <course>356.03</course>
  <speed>0.0</speed>
  <fix>3d</fix>
</trkpt>
<trkpt lat="-35.362881" lon="149.165222">
  <ele>582.09</ele>
  <time>2026-08-27T18:28:06Z</time>
  <course>94.85</course>
  <speed>0.04242640687119285</speed>
  <fix>3d</fix>
</trkpt>
<trkpt lat="-35.362881" lon="149.165222">
  <ele>582.09</ele>
  <time>2026-08-27T18:28:06Z</time>
  <course>356.03</course>
  <speed>0.0</speed>
  <fix>3d</fix>
</trkpt>
<trkpt lat="-35.362881" lon="149.165222">
  <ele>582.09</ele>
  <time>2026-08-27T18:28:06Z</time>
  <course>94.84</course>
  <speed>0.04242640687119285</speed>
  <fix>3d</fix>
</trkpt>
<trkpt lat="-35.362881" lon="149.165222">
  <ele>582.09</ele>
  <time>2026-08-27T18:28:06Z</time>
  <course>356.03</course>
  <speed>0.0</speed>
  <fix>3d</fix>
</trkpt>
<trkpt lat="-35.362881" lon="149.165222">
  <ele>582.09</ele>
  <time>2026-08-27T18:28:06Z</time>
  <course>94.83</course>
  <speed>0.04242640687119285</speed>
  <fix>3d</fix>
</trkpt>
<trkpt lat="-35.362881" lon="149.165222">
  <ele>582.09</ele>
  <time>2026-08-27T18:28:06Z</time>
  <course>356.03</course>
  <speed>0.0</speed>
  <fix>3d</fix>
</trkpt>
<trkpt lat="-35.362881" lon="149.165222">
  <ele>582.09</ele>
  <time>2026-08-27T18:28:06Z</time>
  <course>94.82</course>
  <speed>0.04242640687119285</speed>
  <fix>3d</fix>
</trkpt>
<trkpt lat="-35.362881" lon="149.165222">
  <ele>582.09</ele>
  <time>2026-08-27T18:28:06Z</time>
  <course>356.03</course>
  <speed>0.0</speed>
  <fix>3d</fix>
</trkpt>
<trkpt lat="-35.362881" lon="149.165222">
  <ele>582.09</ele>
  <time>2026-08-27T18:28:06Z</time>
  <course>94.82</course>
  <speed>0.04242640687119285</speed>
  <fix>3d</fix>
</trkpt>
<trkpt lat="-35.362881" lon="149.165222">
  <ele>582.09</ele>
  <time>2026-08-27T18:28:06Z</time>
  <course>356.03</course>
  <speed>0.0</speed>
  <fix>3d</fix>
</trkpt>
<trkpt lat="-35.362881" lon="149.165222">
  <ele>582.09</ele>
  <time>2026-08-27T18:28:06Z</time>
  <course>94.81</course>
  <speed>0.04242640687119285</speed>
  <fix>3d</fix>
</trkpt>
<trkpt lat="-35.362881" lon="149.165222">
  <ele>582.09</ele>
  <time>2026-08-27T18:28:06Z</time>
  <course>356.03</course>
  <speed>0.0</speed>
  <fix>3d</fix>
</trkpt>
<trkpt lat="-35.362881" lon="149.165222">
  <ele>582.09</ele>
  <time>2026-08-27T18:28:06Z</time>
  <course>94.8</course>
  <speed>0.04242640687119285</speed>
  <fix>3d</fix>
</trkpt>
<trkpt lat="-35.362881" lon="149.165222">
  <ele>582.09</ele>
  <time>2026-08-27T18:28:06Z</time>
  <course>356.03</course>
  <speed>0.0</speed>
  <fix>3d</fix>
</trkpt>
<trkpt lat="-35.362881" lon="149.165222">
  <ele>582.09</ele>
  <time>2026-08-27T18:28:06Z</time>
  <course>94.79</course>
  <speed>0.04242640687119285</speed>
  <fix>3d</fix>
</trkpt>
<trkpt lat="-35.362881" lon="149.165222">
  <ele>582.09</ele>
  <time>2026-08-27T18:28:06Z</time>
  <course>356.03</course>
  <speed>0.0</speed>
  <fix>3d</fix>
</trkpt>
<trkpt lat="-35.362881" lon="149.165222">
  <ele>582.16</ele>
  <time>2026-08-27T18:28:06Z</time>
  <course>94.78</course>
  <speed>0.0</speed>
  <fix>3d</fix>
</trkpt>
<trkpt lat="-35.362881" lon="149.165222">
  <ele>582.09</ele>
  <time>2026-08-27T18:28:06Z</time>
  <course>356.03</course>
  <speed>0.0</speed>
  <fix>3d</fix>
</trkpt>
<trkpt lat="-35.362881" lon="149.165222">
  <ele>582.15</ele>
  <time>2026-08-27T18:28:06Z</time>
  <course>94.77</course>
  <speed>0.0</speed>
  <fix>3d</fix>
</trkpt>
<trkpt lat="-35.362881" lon="149.165222">
  <ele>582.09</ele>
  <time>2026-08-27T18:28:06Z</time>
  <course>356.03</course>
  <speed>0.0</speed>
  <fix>3d</fix>
</trkpt>
<trkpt lat="-35.362881" lon="149.165222">
  <ele>582.16</ele>
  <time>2026-08-27T18:28:06Z</time>
  <course>94.76</course>
  <speed>0.0</speed>
  <fix>3d</fix>
</trkpt>
<trkpt lat="-35.362881" lon="149.165222">
  <ele>582.09</ele>
  <time>2026-08-27T18:28:06Z</time>
  <course>20.58</course>
  <speed>0.0</speed>
  <fix>3d</fix>
</trkpt>
<trkpt lat="-35.362881" lon="149.165222">
  <ele>582.16</ele>
  <time>2026-08-27T18:28:06Z</time>
  <course>94.75</course>
  <speed>0.0</speed>
  <fix>3d</fix>
</trkpt>
<trkpt lat="-35.362881" lon="149.165222">
  <ele>582.09</ele>
  <time>2026-08-27T18:28:06Z</time>
  <course>1.49</course>
  <speed>0.0</speed>
  <fix>3d</fix>
</trkpt>
<trkpt lat="-35.362881" lon="149.165222">
  <ele>582.16</ele>
  <time>2026-08-27T18:28:07Z</time>
  <course>94.74</course>
  <speed>0.0</speed>
  <fix>3d</fix>
</trkpt>
<trkpt lat="-35.362881" lon="149.165222">
  <ele>582.09</ele>
  <time>2026-08-27T18:28:07Z</time>
  <course>322.22</course>
  <speed>0.0</speed>
  <fix>3d</fix>
</trkpt>
<trkpt lat="-35.362881" lon="149.165222">
  <ele>582.16</ele>
  <time>2026-08-27T18:28:07Z</time>
  <course>94.73</course>
  <speed>0.0</speed>
  <fix>3d</fix>
</trkpt>
<trkpt lat="-35.362881" lon="149.165222">
  <ele>582.09</ele>
  <time>2026-08-27T18:28:07Z</time>
  <course>175.73</course>
  <speed>0.0</speed>
  <fix>3d</fix>
</trkpt>
<trkpt lat="-35.362881" lon="149.165222">
  <ele>582.17</ele>
  <time>2026-08-27T18:28:07Z</time>
  <course>94.72</course>
  <speed>0.01</speed>
  <fix>3d</fix>
</trkpt>
<trkpt lat="-35.362881" lon="149.165222">
  <ele>582.09</ele>
  <time>2026-08-27T18:28:07Z</time>
  <course>27.34</course>
  <speed>0.0</speed>
  <fix>3d</fix>
</trkpt>
<trkpt lat="-35.362881" lon="149.165222">
  <ele>582.17</ele>
  <time>2026-08-27T18:28:07Z</time>
  <course>94.71</course>
  <speed>0.01414213562373095</speed>
  <fix>3d</fix>
</trkpt>
<trkpt lat="-35.362881" lon="149.165222">
  <ele>582.09</ele>
  <time>2026-08-27T18:28:07Z</time>
  <course>353.74</course>
  <speed>0.0</speed>
  <fix>3d</fix>
</trkpt>
<trkpt lat="-35.362881" lon="149.165222">
  <ele>582.17</ele>
  <time>2026-08-27T18:28:07Z</time>
  <course>94.71</course>
  <speed>0.01414213562373095</speed>
  <fix>3d</fix>
</trkpt>
<trkpt lat="-35.362881" lon="149.165222">
  <ele>582.09</ele>
  <time>2026-08-27T18:28:07Z</time>
  <course>352.43</course>
  <speed>0.0</speed>
  <fix>3d</fix>
</trkpt>
<trkpt lat="-35.362881" lon="149.165222">
  <ele>582.16</ele>
  <time>2026-08-27T18:28:07Z</time>
  <course>94.7</course>
  <speed>0.01414213562373095</speed>
  <fix>3d</fix>
</trkpt>
<trkpt lat="-35.362881" lon="149.165222">
  <ele>582.09</ele>
  <time>2026-08-27T18:28:07Z</time>
  <course>356.97</course>
  <speed>0.0</speed>
  <fix>3d</fix>
</trkpt>
<trkpt lat="-35.362881" lon="149.165222">
  <ele>582.16</ele>
  <time>2026-08-27T18:28:07Z</time>
  <course>94.69</course>
  <speed>0.01414213562373095</speed>
  <fix>3d</fix>
</trkpt>
<trkpt lat="-35.362881" lon="149.165222">
  <ele>582.09</ele>
  <time>2026-08-27T18:28:07Z</time>
  <course>301.6</course>
  <speed>0.0</speed>
  <fix>3d</fix>
</trkpt>
<trkpt lat="-35.362881" lon="149.165222">
  <ele>582.16</ele>
  <time>2026-08-27T18:28:07Z</time>
  <course>94.68</course>
  <speed>0.01414213562373095</speed>
  <fix>3d</fix>
</trkpt>
<trkpt lat="-35.362881" lon="149.165222">
  <ele>582.09</ele>
  <time>2026-08-27T18:28:07Z</time>
  <course>343.45</course>
  <speed>0.0</speed>
  <fix>3d</fix>
</trkpt>
<trkpt lat="-35.362881" lon="149.165222">
  <ele>582.16</ele>
  <time>2026-08-27T18:28:07Z</time>
  <course>94.67</course>
  <speed>0.01414213562373095</speed>
  <fix>3d</fix>
</trkpt>
<trkpt lat="-35.362881" lon="149.165222">
  <ele>582.09</ele>
  <time>2026-08-27T18:28:07Z</time>
  <course>355.23</course>
  <speed>0.0</speed>
  <fix>3d</fix>
</trkpt>
<trkpt lat="-35.362881" lon="149.165222">
  <ele>582.16</ele>
  <time>2026-08-27T18:28:07Z</time>
  <course>94.66</course>
  <speed>0.01414213562373095</speed>
  <fix>3d</fix>
</trkpt>
<trkpt lat="-35.362881" lon="149.165222">
  <ele>582.09</ele>
  <time>2026-08-27T18:28:07Z</time>
  <course>352.0</course>
  <speed>0.0</speed>
  <fix>3d</fix>
</trkpt>
<trkpt lat="-35.362881" lon="149.165222">
  <ele>582.16</ele>
  <time>2026-08-27T18:28:07Z</time>
  <course>94.65</course>
  <speed>0.01414213562373095</speed>
  <fix>3d</fix>
</trkpt>
<trkpt lat="-35.362881" lon="149.165222">
  <ele>582.09</ele>
  <time>2026-08-27T18:28:07Z</time>
  <course>356.93</course>
  <speed>0.0</speed>
  <fix>3d</fix>
</trkpt>
<trkpt lat="-35.362881" lon="149.165222">
  <ele>582.16</ele>
  <time>2026-08-27T18:28:07Z</time>
  <course>94.65</course>
  <speed>0.01</speed>
  <fix>3d</fix>
</trkpt>
<trkpt lat="-35.362881" lon="149.165222">
  <ele>582.09</ele>
  <time>2026-08-27T18:28:07Z</time>
  <course>356.46</course>
  <speed>0.0</speed>
  <fix>3d</fix>
</trkpt>
<trkpt lat="-35.362881" lon="149.165222">
  <ele>582.16</ele>
  <time>2026-08-27T18:28:07Z</time>
  <course>94.64</course>
  <speed>0.0</speed>
  <fix>3d</fix>
</trkpt>
<trkpt lat="-35.362881" lon="149.165222">
  <ele>582.09</ele>
  <time>2026-08-27T18:28:07Z</time>
  <course>355.87</course>
  <speed>0.0</speed>
  <fix>3d</fix>
</trkpt>
<trkpt lat="-35.362881" lon="149.165222">
  <ele>582.16</ele>
  <time>2026-08-27T18:28:07Z</time>
  <course>94.63</course>
  <speed>0.0</speed>
  <fix>3d</fix>
</trkpt>
<trkpt lat="-35.362881" lon="149.165222">
  <ele>582.09</ele>
  <time>2026-08-27T18:28:07Z</time>
  <course>356.0</course>
  <speed>0.0</speed>
  <fix>3d</fix>
</trkpt>
<trkpt lat="-35.362881" lon="149.165222">
  <ele>582.16</ele>
  <time>2026-08-27T18:28:07Z</time>
  <course>94.62</course>
  <speed>0.0</speed>
  <fix>3d</fix>
</trkpt>
<trkpt lat="-35.362881" lon="149.165222">
  <ele>582.09</ele>
  <time>2026-08-27T18:28:07Z</time>
  <course>76.16</course>
  <speed>0.0</speed>
  <fix>3d</fix>
</trkpt>
<trkpt lat="-35.362881" lon="149.165222">
  <ele>582.16</ele>
  <time>2026-08-27T18:28:07Z</time>
  <course>94.61</course>
  <speed>0.0</speed>
  <fix>3d</fix>
</trkpt>
<trkpt lat="-35.362881" lon="149.165222">
  <ele>582.09</ele>
  <time>2026-08-27T18:28:07Z</time>
  <course>57.56</course>
  <speed>0.0</speed>
  <fix>3d</fix>
</trkpt>
<trkpt lat="-35.362881" lon="149.165222">
  <ele>582.16</ele>
  <time>2026-08-27T18:28:07Z</time>
  <course>94.61</course>
  <speed>0.0</speed>
  <fix>3d</fix>
</trkpt>
<trkpt lat="-35.362881" lon="149.165222">
  <ele>582.09</ele>
  <time>2026-08-27T18:28:07Z</time>
  <course>21.94</course>
  <speed>0.0</speed>
  <fix>3d</fix>
</trkpt>
<trkpt lat="-35.362881" lon="149.165222">
  <ele>582.16</ele>
  <time>2026-08-27T18:28:07Z</time>
  <course>94.6</course>
  <speed>0.0</speed>
  <fix>3d</fix>
</trkpt>
<trkpt lat="-35.362881" lon="149.165222">
  <ele>582.09</ele>
  <time>2026-08-27T18:28:07Z</time>
  <course>254.99</course>
  <speed>0.0</speed>
  <fix>3d</fix>
</trkpt>
<trkpt lat="-35.362881" lon="149.165222">
  <ele>582.16</ele>
  <time>2026-08-27T18:28:07Z</time>
  <course>94.59</course>
  <speed>0.0</speed>
  <fix>3d</fix>
</trkpt>
<trkpt lat="-35.362881" lon="149.165222">
  <ele>582.09</ele>
  <time>2026-08-27T18:28:07Z</time>
  <course>32.39</course>
  <speed>0.0</speed>
  <fix>3d</fix>
</trkpt>
<trkpt lat="-35.362881" lon="149.165222">
  <ele>582.16</ele>
  <time>2026-08-27T18:28:07Z</time>
  <course>94.59</course>
  <speed>0.0</speed>
  <fix>3d</fix>
</trkpt>
<trkpt lat="-35.362881" lon="149.165222">
  <ele>582.09</ele>
  <time>2026-08-27T18:28:07Z</time>
  <course>26.31</course>
  <speed>0.0</speed>
  <fix>3d</fix>
</trkpt>
<trkpt lat="-35.362881" lon="149.165222">
  <ele>582.16</ele>
  <time>2026-08-27T18:28:07Z</time>
  <course>94.58</course>
  <speed>0.0</speed>
  <fix>3d</fix>
</trkpt>
<trkpt lat="-35.362881" lon="149.165222">
  <ele>582.09</ele>
  <time>2026-08-27T18:28:07Z</time>
  <course>13.42</course>
  <speed>0.0</speed>
  <fix>3d</fix>
</trkpt>
<trkpt lat="-35.362881" lon="149.165222">
  <ele>582.16</ele>
  <time>2026-08-27T18:28:07Z</time>
  <course>94.57</course>
  <speed>0.0</speed>
  <fix>3d</fix>
</trkpt>
<trkpt lat="-35.362881" lon="149.165222">
  <ele>582.09</ele>
  <time>2026-08-27T18:28:07Z</time>
  <course>14.61</course>
  <speed>0.0</speed>
  <fix>3d</fix>
</trkpt>
<trkpt lat="-35.362881" lon="149.165222">
  <ele>582.16</ele>
  <time>2026-08-27T18:28:07Z</time>
  <course>94.57</course>
  <speed>0.0</speed>
  <fix>3d</fix>
</trkpt>
<trkpt lat="-35.362881" lon="149.165222">
  <ele>582.09</ele>
  <time>2026-08-27T18:28:07Z</time>
  <course>16.75</course>
  <speed>0.0</speed>
  <fix>3d</fix>
</trkpt>
<trkpt lat="-35.362881" lon="149.165222">
  <ele>582.16</ele>
  <time>2026-08-27T18:28:07Z</time>
  <course>94.56</course>
  <speed>0.0</speed>
  <fix>3d</fix>
</trkpt>
<trkpt lat="-35.362881" lon="149.165222">
  <ele>582.09</ele>
  <time>2026-08-27T18:28:07Z</time>
  <course>16.32</course>
  <speed>0.0</speed>
  <fix>3d</fix>
</trkpt>
<trkpt lat="-35.362881" lon="149.165222">
  <ele>582.16</ele>
  <time>2026-08-27T18:28:07Z</time>
  <course>94.55</course>
  <speed>0.0</speed>
  <fix>3d</fix>
</trkpt>
<trkpt lat="-35.362881" lon="149.165222">
  <ele>582.09</ele>
  <time>2026-08-27T18:28:07Z</time>
  <course>16.1</course>
  <speed>0.0</speed>
  <fix>3d</fix>
</trkpt>
<trkpt lat="-35.362881" lon="149.165222">
  <ele>582.15</ele>
  <time>2026-08-27T18:28:07Z</time>
  <course>94.55</course>
  <speed>0.0</speed>
  <fix>3d</fix>
</trkpt>
<trkpt lat="-35.362881" lon="149.165222">
  <ele>582.09</ele>
  <time>2026-08-27T18:28:07Z</time>
  <course>16.18</course>
  <speed>0.0</speed>
  <fix>3d</fix>
</trkpt>
<trkpt lat="-35.362881" lon="149.165222">
  <ele>582.15</ele>
  <time>2026-08-27T18:28:07Z</time>
  <course>94.54</course>
  <speed>0.0</speed>
  <fix>3d</fix>
</trkpt>
<trkpt lat="-35.362881" lon="149.165222">
  <ele>582.09</ele>
  <time>2026-08-27T18:28:07Z</time>
  <course>16.2</course>
  <speed>0.0</speed>
  <fix>3d</fix>
</trkpt>
<trkpt lat="-35.362881" lon="149.165222">
  <ele>582.15</ele>
  <time>2026-08-27T18:28:07Z</time>
  <course>94.54</course>
  <speed>0.0</speed>
  <fix>3d</fix>
</trkpt>
<trkpt lat="-35.362881" lon="149.165222">
  <ele>582.09</ele>
  <time>2026-08-27T18:28:07Z</time>
  <course>16.19</course>
  <speed>0.0</speed>
  <fix>3d</fix>
</trkpt>
<trkpt lat="-35.362881" lon="149.165222">
  <ele>582.15</ele>
  <time>2026-08-27T18:28:07Z</time>
  <course>94.53</course>
  <speed>0.0</speed>
  <fix>3d</fix>
</trkpt>
<trkpt lat="-35.362881" lon="149.165222">
  <ele>582.09</ele>
  <time>2026-08-27T18:28:07Z</time>
  <course>16.19</course>
  <speed>0.0</speed>
  <fix>3d</fix>
</trkpt>
<trkpt lat="-35.362881" lon="149.165222">
  <ele>582.15</ele>
  <time>2026-08-27T18:28:07Z</time>
  <course>94.52</course>
  <speed>0.0</speed>
  <fix>3d</fix>
</trkpt>
<trkpt lat="-35.362881" lon="149.165222">
  <ele>582.09</ele>
  <time>2026-08-27T18:28:07Z</time>
  <course>16.19</course>
  <speed>0.0</speed>
  <fix>3d</fix>
</trkpt>
<trkpt lat="-35.362881" lon="149.165222">
  <ele>582.15</ele>
  <time>2026-08-27T18:28:07Z</time>
  <course>94.52</course>
  <speed>0.0</speed>
  <fix>3d</fix>
</trkpt>
<trkpt lat="-35.362881" lon="149.165222">
  <ele>582.09</ele>
  <time>2026-08-27T18:28:07Z</time>
  <course>21.02</course>
  <speed>0.0</speed>
  <fix>3d</fix>
</trkpt>
<trkpt lat="-35.362881" lon="149.165222">
  <ele>582.16</ele>
  <time>2026-08-27T18:28:07Z</time>
  <course>94.51</course>
  <speed>0.0</speed>
  <fix>3d</fix>
</trkpt>
<trkpt lat="-35.362881" lon="149.165222">
  <ele>582.09</ele>
  <time>2026-08-27T18:28:07Z</time>
  <course>2.62</course>
  <speed>0.0</speed>
  <fix>3d</fix>
</trkpt>
<trkpt lat="-35.362881" lon="149.165222">
  <ele>582.16</ele>
  <time>2026-08-27T18:28:07Z</time>
  <course>94.51</course>
  <speed>0.0</speed>
  <fix>3d</fix>
</trkpt>
<trkpt lat="-35.362881" lon="149.165222">
  <ele>582.09</ele>
  <time>2026-08-27T18:28:07Z</time>
  <course>328.29</course>
  <speed>0.0</speed>
  <fix>3d</fix>
</trkpt>
<trkpt lat="-35.362881" lon="149.165222">
  <ele>582.16</ele>
  <time>2026-08-27T18:28:07Z</time>
  <course>94.5</course>
  <speed>0.0</speed>
  <fix>3d</fix>
</trkpt>
<trkpt lat="-35.362881" lon="149.165222">
  <ele>582.09</ele>
  <time>2026-08-27T18:28:07Z</time>
  <course>161.23</course>
  <speed>0.0</speed>
  <fix>3d</fix>
</trkpt>
<trkpt lat="-35.362881" lon="149.165222">
  <ele>582.16</ele>
  <time>2026-08-27T18:28:07Z</time>
  <course>94.5</course>
  <speed>0.0</speed>
  <fix>3d</fix>
</trkpt>
<trkpt lat="-35.362881" lon="149.165222">
  <ele>582.09</ele>
  <time>2026-08-27T18:28:07Z</time>
  <course>27.23</course>
  <speed>0.0</speed>
  <fix>3d</fix>
</trkpt>
<trkpt lat="-35.362881" lon="149.165222">
  <ele>582.15</ele>
  <time>2026-08-27T18:28:07Z</time>
  <course>94.49</course>
  <speed>0.01</speed>
  <fix>3d</fix>
</trkpt>
<trkpt lat="-35.362881" lon="149.165222">
  <ele>582.09</ele>
  <time>2026-08-27T18:28:07Z</time>
  <course>6.19</course>
  <speed>0.0</speed>
  <fix>3d</fix>
</trkpt>
<trkpt lat="-35.362881" lon="149.165222">
  <ele>582.15</ele>
  <time>2026-08-27T18:28:07Z</time>
  <course>94.49</course>
  <speed>0.01</speed>
  <fix>3d</fix>
</trkpt>
<trkpt lat="-35.362881" lon="149.165222">
  <ele>582.09</ele>
  <time>2026-08-27T18:28:07Z</time>
  <course>9.24</course>
  <speed>0.0</speed>
  <fix>3d</fix>
</trkpt>
<trkpt lat="-35.362881" lon="149.165222">
  <ele>582.15</ele>
  <time>2026-08-27T18:28:07Z</time>
  <course>94.48</course>
  <speed>0.01414213562373095</speed>
  <fix>3d</fix>
</trkpt>
<trkpt lat="-35.362881" lon="149.165222">
  <ele>582.09</ele>
  <time>2026-08-27T18:28:07Z</time>
  <course>11.81</course>
  <speed>0.0</speed>
  <fix>3d</fix>
</trkpt>
<trkpt lat="-35.362881" lon="149.165222">
  <ele>582.15</ele>
  <time>2026-08-27T18:28:07Z</time>
  <course>94.48</course>
  <speed>0.01414213562373095</speed>
  <fix>3d</fix>
</trkpt>
<trkpt lat="-35.362881" lon="149.165222">
  <ele>582.09</ele>
  <time>2026-08-27T18:28:07Z</time>
  <course>10.9</course>
  <speed>0.0</speed>
  <fix>3d</fix>
</trkpt>
<trkpt lat="-35.362881" lon="149.165222">
  <ele>582.15</ele>
  <time>2026-08-27T18:28:07Z</time>
  <course>94.47</course>
  <speed>0.01414213562373095</speed>
  <fix>3d</fix>
</trkpt>
<trkpt lat="-35.362881" lon="149.165222">
  <ele>582.09</ele>
  <time>2026-08-27T18:28:07Z</time>
  <course>10.67</course>
  <speed>0.0</speed>
  <fix>3d</fix>
</trkpt>
<trkpt lat="-35.362881" lon="149.165222">
  <ele>582.15</ele>
  <time>2026-08-27T18:28:07Z</time>
  <course>94.47</course>
  <speed>0.01414213562373095</speed>
  <fix>3d</fix>
</trkpt>
<trkpt lat="-35.362881" lon="149.165222">
  <ele>582.09</ele>
  <time>2026-08-27T18:28:07Z</time>
  <course>10.82</course>
  <speed>0.0</speed>
  <fix>3d</fix>
</trkpt>
<trkpt lat="-35.362881" lon="149.165222">
  <ele>582.16</ele>
  <time>2026-08-27T18:28:07Z</time>
  <course>94.46</course>
  <speed>0.01414213562373095</speed>
  <fix>3d</fix>
</trkpt>
<trkpt lat="-35.362881" lon="149.165222">
  <ele>582.09</ele>
  <time>2026-08-27T18:28:07Z</time>
  <course>10.83</course>
  <speed>0.0</speed>
  <fix>3d</fix>
</trkpt>
<trkpt lat="-35.362881" lon="149.165222">
  <ele>582.16</ele>
  <time>2026-08-27T18:28:07Z</time>
  <course>94.46</course>
  <speed>0.01414213562373095</speed>
  <fix>3d</fix>
</trkpt>
<trkpt lat="-35.362881" lon="149.165222">
  <ele>582.09</ele>
  <time>2026-08-27T18:28:07Z</time>
  <course>10.81</course>
  <speed>0.0</speed>
  <fix>3d</fix>
</trkpt>
<trkpt lat="-35.362881" lon="149.1652219">
  <ele>582.16</ele>
  <time>2026-08-27T18:28:07Z</time>
  <course>94.45</course>
  <speed>0.01414213562373095</speed>
  <fix>3d</fix>
</trkpt>
<trkpt lat="-35.362881" lon="149.165222">
  <ele>582.09</ele>
  <time>2026-08-27T18:28:07Z</time>
  <course>10.81</course>
  <speed>0.0</speed>
  <fix>3d</fix>
</trkpt>
<trkpt lat="-35.362881" lon="149.1652219">
  <ele>582.16</ele>
  <time>2026-08-27T18:28:07Z</time>
  <course>94.45</course>
  <speed>0.01414213562373095</speed>
  <fix>3d</fix>
</trkpt>
<trkpt lat="-35.362881" lon="149.165222">
  <ele>582.09</ele>
  <time>2026-08-27T18:28:07Z</time>
  <course>10.81</course>
  <speed>0.0</speed>
  <fix>3d</fix>
</trkpt>
<trkpt lat="-35.362881" lon="149.1652219">
  <ele>582.16</ele>
  <time>2026-08-27T18:28:07Z</time>
  <course>94.45</course>
  <speed>0.01414213562373095</speed>
  <fix>3d</fix>
</trkpt>
<trkpt lat="-35.362881" lon="149.165222">
  <ele>582.09</ele>
  <time>2026-08-27T18:28:07Z</time>
  <course>10.81</course>
  <speed>0.0</speed>
  <fix>3d</fix>
</trkpt>
<trkpt lat="-35.362881" lon="149.1652219">
  <ele>582.16</ele>
  <time>2026-08-27T18:28:07Z</time>
  <course>94.44</course>
  <speed>0.01414213562373095</speed>
  <fix>3d</fix>
</trkpt>
<trkpt lat="-35.362881" lon="149.165222">
  <ele>582.09</ele>
  <time>2026-08-27T18:28:07Z</time>
  <course>10.81</course>
  <speed>0.0</speed>
  <fix>3d</fix>
</trkpt>
<trkpt lat="-35.362881" lon="149.1652219">
  <ele>582.16</ele>
  <time>2026-08-27T18:28:07Z</time>
  <course>94.44</course>
  <speed>0.01414213562373095</speed>
  <fix>3d</fix>
</trkpt>
<trkpt lat="-35.362881" lon="149.165222">
  <ele>582.09</ele>
  <time>2026-08-27T18:28:07Z</time>
  <course>10.81</course>
  <speed>0.0</speed>
  <fix>3d</fix>
</trkpt>
<trkpt lat="-35.362881" lon="149.1652219">
  <ele>582.16</ele>
  <time>2026-08-27T18:28:07Z</time>
  <course>94.43</course>
  <speed>0.01414213562373095</speed>
  <fix>3d</fix>
</trkpt>
<trkpt lat="-35.362881" lon="149.165222">
  <ele>582.09</ele>
  <time>2026-08-27T18:28:07Z</time>
  <course>10.81</course>
  <speed>0.0</speed>
  <fix>3d</fix>
</trkpt>
<trkpt lat="-35.362881" lon="149.1652219">
  <ele>582.16</ele>
  <time>2026-08-27T18:28:07Z</time>
  <course>94.43</course>
  <speed>0.01414213562373095</speed>
  <fix>3d</fix>
</trkpt>
<trkpt lat="-35.362881" lon="149.165222">
  <ele>582.09</ele>
  <time>2026-08-27T18:28:07Z</time>
  <course>10.81</course>
  <speed>0.0</speed>
  <fix>3d</fix>
</trkpt>
<trkpt lat="-35.3628811" lon="149.1652219">
  <ele>582.16</ele>
  <time>2026-08-27T18:28:07Z</time>
  <course>94.43</course>
  <speed>0.01414213562373095</speed>
  <fix>3d</fix>
</trkpt>
<trkpt lat="-35.362881" lon="149.165222">
  <ele>582.09</ele>
  <time>2026-08-27T18:28:07Z</time>
  <course>10.81</course>
  <speed>0.0</speed>
  <fix>3d</fix>
</trkpt>
<trkpt lat="-35.3628811" lon="149.1652219">
  <ele>582.16</ele>
  <time>2026-08-27T18:28:07Z</time>
  <course>94.42</course>
  <speed>0.022360679774997897</speed>
  <fix>3d</fix>
</trkpt>
<trkpt lat="-35.362881" lon="149.165222">
  <ele>582.09</ele>
  <time>2026-08-27T18:28:07Z</time>
  <course>10.81</course>
  <speed>0.0</speed>
  <fix>3d</fix>
</trkpt>
<trkpt lat="-35.3628811" lon="149.1652219">
  <ele>582.16</ele>
  <time>2026-08-27T18:28:07Z</time>
  <course>94.42</course>
  <speed>0.022360679774997897</speed>
  <fix>3d</fix>
</trkpt>
<trkpt lat="-35.362881" lon="149.165222">
  <ele>582.09</ele>
  <time>2026-08-27T18:28:07Z</time>
  <course>10.81</course>
  <speed>0.0</speed>
  <fix>3d</fix>
</trkpt>
<trkpt lat="-35.3628811" lon="149.1652219">
  <ele>582.16</ele>
  <time>2026-08-27T18:28:07Z</time>
  <course>94.41</course>
  <speed>0.022360679774997897</speed>
  <fix>3d</fix>
</trkpt>
<trkpt lat="-35.362881" lon="149.165222">
  <ele>582.09</ele>
  <time>2026-08-27T18:28:07Z</time>
  <course>10.81</course>
  <speed>0.0</speed>
  <fix>3d</fix>
</trkpt>
<trkpt lat="-35.3628811" lon="149.1652219">
  <ele>582.16</ele>
  <time>2026-08-27T18:28:07Z</time>
  <course>94.41</course>
  <speed>0.022360679774997897</speed>
  <fix>3d</fix>
</trkpt>
<trkpt lat="-35.362881" lon="149.165222">
  <ele>582.09</ele>
  <time>2026-08-27T18:28:07Z</time>
  <course>10.81</course>
  <speed>0.0</speed>
  <fix>3d</fix>
</trkpt>
<trkpt lat="-35.3628811" lon="149.1652219">
  <ele>582.15</ele>
  <time>2026-08-27T18:28:07Z</time>
  <course>94.41</course>
  <speed>0.022360679774997897</speed>
  <fix>3d</fix>
</trkpt>
<trkpt lat="-35.362881" lon="149.165222">
  <ele>582.09</ele>
  <time>2026-08-27T18:28:07Z</time>
  <course>10.81</course>
  <speed>0.0</speed>
  <fix>3d</fix>
</trkpt>
<trkpt lat="-35.3628811" lon="149.1652219">
  <ele>582.15</ele>
  <time>2026-08-27T18:28:07Z</time>
  <course>94.4</course>
  <speed>0.022360679774997897</speed>
  <fix>3d</fix>
</trkpt>
<trkpt lat="-35.362881" lon="149.165222">
  <ele>582.09</ele>
  <time>2026-08-27T18:28:07Z</time>
  <course>10.81</course>
  <speed>0.0</speed>
  <fix>3d</fix>
</trkpt>
<trkpt lat="-35.3628811" lon="149.1652219">
  <ele>582.15</ele>
  <time>2026-08-27T18:28:07Z</time>
  <course>94.4</course>
  <speed>0.022360679774997897</speed>
  <fix>3d</fix>
</trkpt>
<trkpt lat="-35.362881" lon="149.165222">
  <ele>582.09</ele>
  <time>2026-08-27T18:28:07Z</time>
  <course>10.81</course>
  <speed>0.0</speed>
  <fix>3d</fix>
</trkpt>
<trkpt lat="-35.3628811" lon="149.1652219">
  <ele>582.16</ele>
  <time>2026-08-27T18:28:07Z</time>
  <course>94.39</course>
  <speed>0.022360679774997897</speed>
  <fix>3d</fix>
</trkpt>
<trkpt lat="-35.362881" lon="149.165222">
  <ele>582.09</ele>
  <time>2026-08-27T18:28:07Z</time>
  <course>10.81</course>
  <speed>0.0</speed>
  <fix>3d</fix>
</trkpt>
<trkpt lat="-35.3628811" lon="149.1652219">
  <ele>582.16</ele>
  <time>2026-08-27T18:28:07Z</time>
  <course>94.39</course>
  <speed>0.022360679774997897</speed>
  <fix>3d</fix>
</trkpt>
<trkpt lat="-35.362881" lon="149.165222">
  <ele>582.09</ele>
  <time>2026-08-27T18:28:07Z</time>
  <course>10.81</course>
  <speed>0.0</speed>
  <fix>3d</fix>
</trkpt>
<trkpt lat="-35.3628811" lon="149.1652219">
  <ele>582.16</ele>
  <time>2026-08-27T18:28:07Z</time>
  <course>94.39</course>
  <speed>0.01414213562373095</speed>
  <fix>3d</fix>
</trkpt>
<trkpt lat="-35.362881" lon="149.165222">
  <ele>582.09</ele>
  <time>2026-08-27T18:28:07Z</time>
  <course>10.81</course>
  <speed>0.0</speed>
  <fix>3d</fix>
</trkpt>
<trkpt lat="-35.3628811" lon="149.1652219">
  <ele>582.16</ele>
  <time>2026-08-27T18:28:07Z</time>
  <course>94.38</course>
  <speed>0.01414213562373095</speed>
  <fix>3d</fix>
</trkpt>
<trkpt lat="-35.362881" lon="149.165222">
  <ele>582.09</ele>
  <time>2026-08-27T18:28:07Z</time>
  <course>10.81</course>
  <speed>0.0</speed>
  <fix>3d</fix>
</trkpt>
<trkpt lat="-35.3628811" lon="149.1652219">
  <ele>582.17</ele>
  <time>2026-08-27T18:28:07Z</time>
  <course>94.38</course>
  <speed>0.01414213562373095</speed>
  <fix>3d</fix>
</trkpt>
<trkpt lat="-35.362881" lon="149.165222">
  <ele>582.09</ele>
  <time>2026-08-27T18:28:07Z</time>
  <course>202.55</course>
  <speed>0.0</speed>
  <fix>3d</fix>
</trkpt>
<trkpt lat="-35.3628811" lon="149.1652219">
  <ele>582.17</ele>
  <time>2026-08-27T18:28:07Z</time>
  <course>94.37</course>
  <speed>0.01414213562373095</speed>
  <fix>3d</fix>
</trkpt>
<trkpt lat="-35.362881" lon="149.165222">
  <ele>582.09</ele>
  <time>2026-08-27T18:28:07Z</time>
  <course>180.66</course>
  <speed>0.0</speed>
  <fix>3d</fix>
</trkpt>
<trkpt lat="-35.362881" lon="149.1652219">
  <ele>582.18</ele>
  <time>2026-08-27T18:28:07Z</time>
  <course>94.37</course>
  <speed>0.01414213562373095</speed>
  <fix>3d</fix>
</trkpt>
<trkpt lat="-35.362881" lon="149.165222">
  <ele>582.09</ele>
  <time>2026-08-27T18:28:07Z</time>
  <course>122.81</course>
  <speed>0.0</speed>
  <fix>3d</fix>
</trkpt>
<trkpt lat="-35.362881" lon="149.1652219">
  <ele>582.18</ele>
  <time>2026-08-27T18:28:07Z</time>
  <course>94.36</course>
  <speed>0.01</speed>
  <fix>3d</fix>
</trkpt>
<trkpt lat="-35.362881" lon="149.165222">
  <ele>582.09</ele>
  <time>2026-08-27T18:28:07Z</time>
  <course>1.15</course>
  <speed>0.0</speed>
  <fix>3d</fix>
</trkpt>
<trkpt lat="-35.362881" lon="149.1652219">
  <ele>582.18</ele>
  <time>2026-08-27T18:28:07Z</time>
  <course>94.36</course>
  <speed>0.01</speed>
  <fix>3d</fix>
</trkpt>
<trkpt lat="-35.362881" lon="149.165222">
  <ele>582.09</ele>
  <time>2026-08-27T18:28:07Z</time>
  <course>354.85</course>
  <speed>0.0</speed>
  <fix>3d</fix>
</trkpt>
<trkpt lat="-35.362881" lon="149.1652219">
  <ele>582.18</ele>
  <time>2026-08-27T18:28:07Z</time>
  <course>94.35</course>
  <speed>0.0</speed>
  <fix>3d</fix>
</trkpt>
<trkpt lat="-35.362881" lon="149.165222">
  <ele>582.09</ele>
  <time>2026-08-27T18:28:07Z</time>
  <course>30.35</course>
  <speed>0.0</speed>
  <fix>3d</fix>
</trkpt>
<trkpt lat="-35.362881" lon="149.1652219">
  <ele>582.18</ele>
  <time>2026-08-27T18:28:07Z</time>
  <course>94.35</course>
  <speed>0.0</speed>
  <fix>3d</fix>
</trkpt>
<trkpt lat="-35.362881" lon="149.165222">
  <ele>582.09</ele>
  <time>2026-08-27T18:28:07Z</time>
  <course>17.91</course>
  <speed>0.0</speed>
  <fix>3d</fix>
</trkpt>
<trkpt lat="-35.362881" lon="149.1652219">
  <ele>582.18</ele>
  <time>2026-08-27T18:28:07Z</time>
  <course>94.34</course>
  <speed>0.0</speed>
  <fix>3d</fix>
</trkpt>
<trkpt lat="-35.362881" lon="149.165222">
  <ele>582.09</ele>
  <time>2026-08-27T18:28:07Z</time>
  <course>14.73</course>
  <speed>0.0</speed>
  <fix>3d</fix>
</trkpt>
<trkpt lat="-35.362881" lon="149.1652219">
  <ele>582.17</ele>
  <time>2026-08-27T18:28:07Z</time>
  <course>94.34</course>
  <speed>0.0</speed>
  <fix>3d</fix>
</trkpt>
<trkpt lat="-35.362881" lon="149.165222">
  <ele>582.09</ele>
  <time>2026-08-27T18:28:07Z</time>
  <course>16.13</course>
  <speed>0.0</speed>
  <fix>3d</fix>
</trkpt>
<trkpt lat="-35.362881" lon="149.1652219">
  <ele>582.17</ele>
  <time>2026-08-27T18:28:07Z</time>
  <course>94.33</course>
  <speed>0.0</speed>
  <fix>3d</fix>
</trkpt>
<trkpt lat="-35.362881" lon="149.165222">
  <ele>582.09</ele>
  <time>2026-08-27T18:28:07Z</time>
  <course>317.46</course>
  <speed>0.0</speed>
  <fix>3d</fix>
</trkpt>
<trkpt lat="-35.362881" lon="149.1652219">
  <ele>582.17</ele>
  <time>2026-08-27T18:28:07Z</time>
  <course>94.33</course>
  <speed>0.0</speed>
  <fix>3d</fix>
</trkpt>
<trkpt lat="-35.362881" lon="149.165222">
  <ele>582.09</ele>
  <time>2026-08-27T18:28:07Z</time>
  <course>3.69</course>
  <speed>0.0</speed>
  <fix>3d</fix>
</trkpt>
<trkpt lat="-35.362881" lon="149.1652219">
  <ele>582.17</ele>
  <time>2026-08-27T18:28:07Z</time>
  <course>94.32</course>
  <speed>0.0</speed>
  <fix>3d</fix>
</trkpt>
<trkpt lat="-35.362881" lon="149.165222">
  <ele>582.09</ele>
  <time>2026-08-27T18:28:07Z</time>
  <course>15.42</course>
  <speed>0.0</speed>
  <fix>3d</fix>
</trkpt>
<trkpt lat="-35.362881" lon="149.1652219">
  <ele>582.17</ele>
  <time>2026-08-27T18:28:07Z</time>
  <course>94.32</course>
  <speed>0.0</speed>
  <fix>3d</fix>
</trkpt>
<trkpt lat="-35.362881" lon="149.165222">
  <ele>582.09</ele>
  <time>2026-08-27T18:28:07Z</time>
  <course>12.16</course>
  <speed>0.0</speed>
  <fix>3d</fix>
</trkpt>
<trkpt lat="-35.362881" lon="149.1652219">
  <ele>582.17</ele>
  <time>2026-08-27T18:28:07Z</time>
  <course>94.31</course>
  <speed>0.0</speed>
  <fix>3d</fix>
</trkpt>
<trkpt lat="-35.362881" lon="149.165222">
  <ele>582.09</ele>
  <time>2026-08-27T18:28:07Z</time>
  <course>17.1</course>
  <speed>0.0</speed>
  <fix>3d</fix>
</trkpt>
<trkpt lat="-35.362881" lon="149.1652219">
  <ele>582.17</ele>
  <time>2026-08-27T18:28:07Z</time>
  <course>94.31</course>
  <speed>0.0</speed>
  <fix>3d</fix>
</trkpt>
<trkpt lat="-35.362881" lon="149.165222">
  <ele>582.09</ele>
  <time>2026-08-27T18:28:07Z</time>
  <course>6.03</course>
  <speed>0.0</speed>
  <fix>3d</fix>
</trkpt>
<trkpt lat="-35.362881" lon="149.1652219">
  <ele>582.17</ele>
  <time>2026-08-27T18:28:07Z</time>
  <course>94.31</course>
  <speed>0.0</speed>
  <fix>3d</fix>
</trkpt>
<trkpt lat="-35.362881" lon="149.165222">
  <ele>582.09</ele>
  <time>2026-08-27T18:28:07Z</time>
  <course>356.92</course>
  <speed>0.0</speed>
  <fix>3d</fix>
</trkpt>
<trkpt lat="-35.362881" lon="149.1652219">
  <ele>582.16</ele>
  <time>2026-08-27T18:28:07Z</time>
  <course>94.3</course>
  <speed>0.0</speed>
  <fix>3d</fix>
</trkpt>
<trkpt lat="-35.362881" lon="149.165222">
  <ele>582.09</ele>
  <time>2026-08-27T18:28:07Z</time>
  <course>297.91</course>
  <speed>0.0</speed>
  <fix>3d</fix>
</trkpt>
<trkpt lat="-35.362881" lon="149.1652219">
  <ele>582.16</ele>
  <time>2026-08-27T18:28:07Z</time>
  <course>94.3</course>
  <speed>0.0</speed>
  <fix>3d</fix>
</trkpt>
<trkpt lat="-35.362881" lon="149.165222">
  <ele>582.09</ele>
  <time>2026-08-27T18:28:07Z</time>
  <course>128.13</course>
  <speed>0.0</speed>
  <fix>3d</fix>
</trkpt>
<trkpt lat="-35.362881" lon="149.1652219">
  <ele>582.16</ele>
  <time>2026-08-27T18:28:07Z</time>
  <course>94.29</course>
  <speed>0.0</speed>
  <fix>3d</fix>
</trkpt>
<trkpt lat="-35.362881" lon="149.165222">
  <ele>582.09</ele>
  <time>2026-08-27T18:28:07Z</time>
  <course>15.51</course>
  <speed>0.0</speed>
  <fix>3d</fix>
</trkpt>
<trkpt lat="-35.362881" lon="149.1652219">
  <ele>582.16</ele>
  <time>2026-08-27T18:28:07Z</time>
  <course>94.29</course>
  <speed>0.0</speed>
  <fix>3d</fix>
</trkpt>
<trkpt lat="-35.362881" lon="149.165222">
  <ele>582.09</ele>
  <time>2026-08-27T18:28:07Z</time>
  <course>6.04</course>
  <speed>0.0</speed>
  <fix>3d</fix>
</trkpt>
<trkpt lat="-35.362881" lon="149.1652219">
  <ele>582.16</ele>
  <time>2026-08-27T18:28:07Z</time>
  <course>94.29</course>
  <speed>0.0</speed>
  <fix>3d</fix>
</trkpt>
<trkpt lat="-35.362881" lon="149.165222">
  <ele>582.09</ele>
  <time>2026-08-27T18:28:07Z</time>
  <course>10.68</course>
  <speed>0.0</speed>
  <fix>3d</fix>
</trkpt>
<trkpt lat="-35.362881" lon="149.1652219">
  <ele>582.16</ele>
  <time>2026-08-27T18:28:07Z</time>
  <course>94.28</course>
  <speed>0.0</speed>
  <fix>3d</fix>
</trkpt>
<trkpt lat="-35.362881" lon="149.165222">
  <ele>582.09</ele>
  <time>2026-08-27T18:28:07Z</time>
  <course>11.57</course>
  <speed>0.0</speed>
  <fix>3d</fix>
</trkpt>
<trkpt lat="-35.362881" lon="149.1652219">
  <ele>582.16</ele>
  <time>2026-08-27T18:28:07Z</time>
  <course>94.28</course>
  <speed>0.0</speed>
  <fix>3d</fix>
</trkpt>
<trkpt lat="-35.362881" lon="149.165222">
  <ele>582.09</ele>
  <time>2026-08-27T18:28:07Z</time>
  <course>10.69</course>
  <speed>0.0</speed>
  <fix>3d</fix>
</trkpt>
<trkpt lat="-35.362881" lon="149.1652219">
  <ele>582.16</ele>
  <time>2026-08-27T18:28:07Z</time>
  <course>94.27</course>
  <speed>0.0</speed>
  <fix>3d</fix>
</trkpt>
<trkpt lat="-35.362881" lon="149.165222">
  <ele>582.09</ele>
  <time>2026-08-27T18:28:07Z</time>
  <course>10.57</course>
  <speed>0.0</speed>
  <fix>3d</fix>
</trkpt>
<trkpt lat="-35.362881" lon="149.1652219">
  <ele>582.16</ele>
  <time>2026-08-27T18:28:07Z</time>
  <course>94.26</course>
  <speed>0.0</speed>
  <fix>3d</fix>
</trkpt>
<trkpt lat="-35.362881" lon="149.165222">
  <ele>582.09</ele>
  <time>2026-08-27T18:28:07Z</time>
  <course>10.58</course>
  <speed>0.0</speed>
  <fix>3d</fix>
</trkpt>
<trkpt lat="-35.362881" lon="149.1652219">
  <ele>582.16</ele>
  <time>2026-08-27T18:28:07Z</time>
  <course>94.25</course>
  <speed>0.0</speed>
  <fix>3d</fix>
</trkpt>
<trkpt lat="-35.362881" lon="149.165222">
  <ele>582.09</ele>
  <time>2026-08-27T18:28:07Z</time>
  <course>10.47</course>
  <speed>0.0</speed>
  <fix>3d</fix>
</trkpt>
<trkpt lat="-35.362881" lon="149.1652219">
  <ele>582.16</ele>
  <time>2026-08-27T18:28:07Z</time>
  <course>94.24</course>
  <speed>0.0</speed>
  <fix>3d</fix>
</trkpt>
<trkpt lat="-35.362881" lon="149.165222">
  <ele>582.09</ele>
  <time>2026-08-27T18:28:07Z</time>
  <course>10.36</course>
  <speed>0.0</speed>
  <fix>3d</fix>
</trkpt>
<trkpt lat="-35.362881" lon="149.1652219">
  <ele>582.16</ele>
  <time>2026-08-27T18:28:07Z</time>
  <course>94.23</course>
  <speed>0.0</speed>
  <fix>3d</fix>
</trkpt>
<trkpt lat="-35.362881" lon="149.165222">
  <ele>582.09</ele>
  <time>2026-08-27T18:28:07Z</time>
  <course>10.26</course>
  <speed>0.0</speed>
  <fix>3d</fix>
</trkpt>
<trkpt lat="-35.362881" lon="149.1652219">
  <ele>582.15</ele>
  <time>2026-08-27T18:28:07Z</time>
  <course>94.21</course>
  <speed>0.01</speed>
  <fix>3d</fix>
</trkpt>
<trkpt lat="-35.362881" lon="149.165222">
  <ele>582.09</ele>
  <time>2026-08-27T18:28:07Z</time>
  <course>10.16</course>
  <speed>0.0</speed>
  <fix>3d</fix>
</trkpt>
<trkpt lat="-35.362881" lon="149.1652219">
  <ele>582.16</ele>
  <time>2026-08-27T18:28:07Z</time>
  <course>94.2</course>
  <speed>0.01</speed>
  <fix>3d</fix>
</trkpt>
<trkpt lat="-35.362881" lon="149.165222">
  <ele>582.09</ele>
  <time>2026-08-27T18:28:07Z</time>
  <course>76.22</course>
  <speed>0.0</speed>
  <fix>3d</fix>
</trkpt>
<trkpt lat="-35.362881" lon="149.1652219">
  <ele>582.16</ele>
  <time>2026-08-27T18:28:07Z</time>
  <course>94.18</course>
  <speed>0.01</speed>
  <fix>3d</fix>
</trkpt>
<trkpt lat="-35.362881" lon="149.165222">
  <ele>582.09</ele>
  <time>2026-08-27T18:28:07Z</time>
  <course>54.13</course>
  <speed>0.0</speed>
  <fix>3d</fix>
</trkpt>
<trkpt lat="-35.362881" lon="149.1652219">
  <ele>582.16</ele>
  <time>2026-08-27T18:28:07Z</time>
  <course>94.16</course>
  <speed>0.01414213562373095</speed>
  <fix>3d</fix>
</trkpt>
<trkpt lat="-35.362881" lon="149.165222">
  <ele>582.09</ele>
  <time>2026-08-27T18:28:07Z</time>
  <course>23.24</course>
  <speed>0.0</speed>
  <fix>3d</fix>
</trkpt>
<trkpt lat="-35.362881" lon="149.1652219">
  <ele>582.16</ele>
  <time>2026-08-27T18:28:07Z</time>
  <course>94.14</course>
  <speed>0.01414213562373095</speed>
  <fix>3d</fix>
</trkpt>
<trkpt lat="-35.362881" lon="149.165222">
  <ele>582.09</ele>
  <time>2026-08-27T18:28:07Z</time>
  <course>333.1</course>
  <speed>0.0</speed>
  <fix>3d</fix>
</trkpt>
<trkpt lat="-35.362881" lon="149.1652219">
  <ele>582.16</ele>
  <time>2026-08-27T18:28:07Z</time>
  <course>94.12</course>
  <speed>0.01414213562373095</speed>
  <fix>3d</fix>
</trkpt>
<trkpt lat="-35.362881" lon="149.165222">
  <ele>582.09</ele>
  <time>2026-08-27T18:28:07Z</time>
  <course>6.69</course>
  <speed>0.0</speed>
  <fix>3d</fix>
</trkpt>
<trkpt lat="-35.362881" lon="149.1652219">
  <ele>582.16</ele>
  <time>2026-08-27T18:28:07Z</time>
  <course>94.1</course>
  <speed>0.01414213562373095</speed>
  <fix>3d</fix>
</trkpt>
<trkpt lat="-35.362881" lon="149.165222">
  <ele>582.09</ele>
  <time>2026-08-27T18:28:07Z</time>
  <course>14.72</course>
  <speed>0.0</speed>
  <fix>3d</fix>
</trkpt>
<trkpt lat="-35.362881" lon="149.1652219">
  <ele>582.17</ele>
  <time>2026-08-27T18:28:07Z</time>
  <course>94.07</course>
  <speed>0.01414213562373095</speed>
  <fix>3d</fix>
</trkpt>
<trkpt lat="-35.362881" lon="149.165222">
  <ele>582.09</ele>
  <time>2026-08-27T18:28:07Z</time>
  <course>5.65</course>
  <speed>0.0</speed>
  <fix>3d</fix>
</trkpt>
<trkpt lat="-35.362881" lon="149.1652219">
  <ele>582.17</ele>
  <time>2026-08-27T18:28:07Z</time>
  <course>94.05</course>
  <speed>0.01414213562373095</speed>
  <fix>3d</fix>
</trkpt>
<trkpt lat="-35.362881" lon="149.165222">
  <ele>582.09</ele>
  <time>2026-08-27T18:28:07Z</time>
  <course>2.35</course>
  <speed>0.0</speed>
  <fix>3d</fix>
</trkpt>
<trkpt lat="-35.362881" lon="149.1652219">
  <ele>582.17</ele>
  <time>2026-08-27T18:28:07Z</time>
  <course>94.02</course>
  <speed>0.01414213562373095</speed>
  <fix>3d</fix>
</trkpt>
<trkpt lat="-35.362881" lon="149.165222">
  <ele>582.09</ele>
  <time>2026-08-27T18:28:07Z</time>
  <course>2.73</course>
  <speed>0.0</speed>
  <fix>3d</fix>
</trkpt>
<trkpt lat="-35.362881" lon="149.1652219">
  <ele>582.17</ele>
  <time>2026-08-27T18:28:07Z</time>
  <course>93.99</course>
  <speed>0.01414213562373095</speed>
  <fix>3d</fix>
</trkpt>
<trkpt lat="-35.362881" lon="149.165222">
  <ele>582.09</ele>
  <time>2026-08-27T18:28:07Z</time>
  <course>5.31</course>
  <speed>0.0</speed>
  <fix>3d</fix>
</trkpt>
<trkpt lat="-35.362881" lon="149.1652219">
  <ele>582.17</ele>
  <time>2026-08-27T18:28:07Z</time>
  <course>93.96</course>
  <speed>0.01414213562373095</speed>
  <fix>3d</fix>
</trkpt>
<trkpt lat="-35.362881" lon="149.165222">
  <ele>582.09</ele>
  <time>2026-08-27T18:28:07Z</time>
  <course>1.41</course>
  <speed>0.0</speed>
  <fix>3d</fix>
</trkpt>
<trkpt lat="-35.362881" lon="149.1652219">
  <ele>582.17</ele>
  <time>2026-08-27T18:28:07Z</time>
  <course>93.93</course>
  <speed>0.01414213562373095</speed>
  <fix>3d</fix>
</trkpt>
<trkpt lat="-35.362881" lon="149.165222">
  <ele>582.09</ele>
  <time>2026-08-27T18:28:07Z</time>
  <course>6.98</course>
  <speed>0.0</speed>
  <fix>3d</fix>
</trkpt>
<trkpt lat="-35.362881" lon="149.1652219">
  <ele>582.17</ele>
  <time>2026-08-27T18:28:07Z</time>
  <course>93.9</course>
  <speed>0.01414213562373095</speed>
  <fix>3d</fix>
</trkpt>
<trkpt lat="-35.362881" lon="149.165222">
  <ele>582.09</ele>
  <time>2026-08-27T18:28:07Z</time>
  <course>1.39</course>
  <speed>0.0</speed>
  <fix>3d</fix>
</trkpt>
<trkpt lat="-35.362881" lon="149.1652219">
  <ele>582.17</ele>
  <time>2026-08-27T18:28:07Z</time>
  <course>93.87</course>
  <speed>0.01414213562373095</speed>
  <fix>3d</fix>
</trkpt>
<trkpt lat="-35.362881" lon="149.165222">
  <ele>582.09</ele>
  <time>2026-08-27T18:28:07Z</time>
  <course>353.78</course>
  <speed>0.0</speed>
  <fix>3d</fix>
</trkpt>
<trkpt lat="-35.362881" lon="149.1652219">
  <ele>582.17</ele>
  <time>2026-08-27T18:28:07Z</time>
  <course>93.83</course>
  <speed>0.022360679774997897</speed>
  <fix>3d</fix>
</trkpt>
<trkpt lat="-35.362881" lon="149.165222">
  <ele>582.09</ele>
  <time>2026-08-27T18:28:07Z</time>
  <course>0.66</course>
  <speed>0.0</speed>
  <fix>3d</fix>
</trkpt>
<trkpt lat="-35.3628811" lon="149.1652219">
  <ele>582.17</ele>
  <time>2026-08-27T18:28:07Z</time>
  <course>93.8</course>
  <speed>0.022360679774997897</speed>
  <fix>3d</fix>
</trkpt>
<trkpt lat="-35.362881" lon="149.165222">
  <ele>582.09</ele>
  <time>2026-08-27T18:28:07Z</time>
  <course>3.47</course>
  <speed>0.0</speed>
  <fix>3d</fix>
</trkpt>
<trkpt lat="-35.3628811" lon="149.1652219">
  <ele>582.17</ele>
  <time>2026-08-27T18:28:07Z</time>
  <course>93.76</course>
  <speed>0.022360679774997897</speed>
  <fix>3d</fix>
</trkpt>
<trkpt lat="-35.362881" lon="149.165222">
  <ele>582.09</ele>
  <time>2026-08-27T18:28:07Z</time>
  <course>0.27</course>
  <speed>0.0</speed>
  <fix>3d</fix>
</trkpt>
<trkpt lat="-35.3628811" lon="149.1652219">
  <ele>582.17</ele>
  <time>2026-08-27T18:28:07Z</time>
  <course>93.72</course>
  <speed>0.022360679774997897</speed>
  <fix>3d</fix>
</trkpt>
<trkpt lat="-35.362881" lon="149.165222">
  <ele>582.09</ele>
  <time>2026-08-27T18:28:07Z</time>
  <course>0.09</course>
  <speed>0.0</speed>
  <fix>3d</fix>
</trkpt>
<trkpt lat="-35.3628811" lon="149.1652219">
  <ele>582.17</ele>
  <time>2026-08-27T18:28:07Z</time>
  <course>93.68</course>
  <speed>0.022360679774997897</speed>
  <fix>3d</fix>
</trkpt>
<trkpt lat="-35.362881" lon="149.165222">
  <ele>582.09</ele>
  <time>2026-08-27T18:28:07Z</time>
  <course>0.68</course>
  <speed>0.0</speed>
  <fix>3d</fix>
</trkpt>
<trkpt lat="-35.3628811" lon="149.1652219">
  <ele>582.17</ele>
  <time>2026-08-27T18:28:07Z</time>
  <course>93.64</course>
  <speed>0.022360679774997897</speed>
  <fix>3d</fix>
</trkpt>
<trkpt lat="-35.362881" lon="149.165222">
  <ele>582.09</ele>
  <time>2026-08-27T18:28:07Z</time>
  <course>0.11</course>
  <speed>0.0</speed>
  <fix>3d</fix>
</trkpt>
<trkpt lat="-35.3628811" lon="149.1652219">
  <ele>582.17</ele>
  <time>2026-08-27T18:28:07Z</time>
  <course>93.6</course>
  <speed>0.022360679774997897</speed>
  <fix>3d</fix>
</trkpt>
<trkpt lat="-35.362881" lon="149.165222">
  <ele>582.09</ele>
  <time>2026-08-27T18:28:07Z</time>
  <course>0.05</course>
  <speed>0.0</speed>
  <fix>3d</fix>
</trkpt>
<trkpt lat="-35.3628811" lon="149.1652219">
  <ele>582.17</ele>
  <time>2026-08-27T18:28:07Z</time>
  <course>93.56</course>
  <speed>0.022360679774997897</speed>
  <fix>3d</fix>
</trkpt>
<trkpt lat="-35.362881" lon="149.165222">
  <ele>582.09</ele>
  <time>2026-08-27T18:28:07Z</time>
  <course>359.82</course>
  <speed>0.0</speed>
  <fix>3d</fix>
</trkpt>
<trkpt lat="-35.3628811" lon="149.1652219">
  <ele>582.17</ele>
  <time>2026-08-27T18:28:07Z</time>
  <course>93.52</course>
  <speed>0.0282842712474619</speed>
  <fix>3d</fix>
</trkpt>
<trkpt lat="-35.362881" lon="149.165222">
  <ele>582.09</ele>
  <time>2026-08-27T18:28:07Z</time>
  <course>359.7</course>
  <speed>0.0</speed>
  <fix>3d</fix>
</trkpt>
<trkpt lat="-35.3628811" lon="149.1652219">
  <ele>582.17</ele>
  <time>2026-08-27T18:28:07Z</time>
  <course>93.47</course>
  <speed>0.0282842712474619</speed>
  <fix>3d</fix>
</trkpt>
<trkpt lat="-35.362881" lon="149.165222">
  <ele>582.09</ele>
  <time>2026-08-27T18:28:07Z</time>
  <course>359.59</course>
  <speed>0.0</speed>
  <fix>3d</fix>
</trkpt>
<trkpt lat="-35.3628811" lon="149.1652219">
  <ele>582.17</ele>
  <time>2026-08-27T18:28:07Z</time>
  <course>93.43</course>
  <speed>0.0282842712474619</speed>
  <fix>3d</fix>
</trkpt>
<trkpt lat="-35.362881" lon="149.165222">
  <ele>582.09</ele>
  <time>2026-08-27T18:28:07Z</time>
  <course>359.49</course>
  <speed>0.0</speed>
  <fix>3d</fix>
</trkpt>
<trkpt lat="-35.3628811" lon="149.1652219">
  <ele>582.17</ele>
  <time>2026-08-27T18:28:07Z</time>
  <course>93.38</course>
  <speed>0.0282842712474619</speed>
  <fix>3d</fix>
</trkpt>
<trkpt lat="-35.362881" lon="149.165222">
  <ele>582.09</ele>
  <time>2026-08-27T18:28:07Z</time>
  <course>359.48</course>
  <speed>0.0</speed>
  <fix>3d</fix>
</trkpt>
<trkpt lat="-35.3628811" lon="149.1652219">
  <ele>582.16</ele>
  <time>2026-08-27T18:28:07Z</time>
  <course>93.34</course>
  <speed>0.0282842712474619</speed>
  <fix>3d</fix>
</trkpt>
<trkpt lat="-35.362881" lon="149.165222">
  <ele>582.09</ele>
  <time>2026-08-27T18:28:07Z</time>
  <course>359.32</course>
  <speed>0.0</speed>
  <fix>3d</fix>
</trkpt>
<trkpt lat="-35.3628811" lon="149.1652219">
  <ele>582.16</ele>
  <time>2026-08-27T18:28:07Z</time>
  <course>93.29</course>
  <speed>0.0282842712474619</speed>
  <fix>3d</fix>
</trkpt>
<trkpt lat="-35.362881" lon="149.165222">
  <ele>582.09</ele>
  <time>2026-08-27T18:28:07Z</time>
  <course>359.24</course>
  <speed>0.0</speed>
  <fix>3d</fix>
</trkpt>
<trkpt lat="-35.3628811" lon="149.1652219">
  <ele>582.16</ele>
  <time>2026-08-27T18:28:07Z</time>
  <course>93.24</course>
  <speed>0.0282842712474619</speed>
  <fix>3d</fix>
</trkpt>
<trkpt lat="-35.362881" lon="149.165222">
  <ele>582.09</ele>
  <time>2026-08-27T18:28:07Z</time>
  <course>359.12</course>
  <speed>0.0</speed>
  <fix>3d</fix>
</trkpt>
<trkpt lat="-35.3628811" lon="149.1652219">
  <ele>582.16</ele>
  <time>2026-08-27T18:28:07Z</time>
  <course>93.19</course>
  <speed>0.0282842712474619</speed>
  <fix>3d</fix>
</trkpt>
<trkpt lat="-35.362881" lon="149.165222">
  <ele>582.09</ele>
  <time>2026-08-27T18:28:07Z</time>
  <course>359.03</course>
  <speed>0.0</speed>
  <fix>3d</fix>
</trkpt>
<trkpt lat="-35.3628811" lon="149.1652218">
  <ele>582.16</ele>
  <time>2026-08-27T18:28:07Z</time>
  <course>93.14</course>
  <speed>0.0282842712474619</speed>
  <fix>3d</fix>
</trkpt>
<trkpt lat="-35.362881" lon="149.165222">
  <ele>582.09</ele>
  <time>2026-08-27T18:28:07Z</time>
  <course>358.91</course>
  <speed>0.0</speed>
  <fix>3d</fix>
</trkpt>
<trkpt lat="-35.3628811" lon="149.1652218">
  <ele>582.16</ele>
  <time>2026-08-27T18:28:07Z</time>
  <course>93.09</course>
  <speed>0.0282842712474619</speed>
  <fix>3d</fix>
</trkpt>
<trkpt lat="-35.362881" lon="149.165222">
  <ele>582.09</ele>
  <time>2026-08-27T18:28:07Z</time>
  <course>358.83</course>
  <speed>0.0</speed>
  <fix>3d</fix>
</trkpt>
<trkpt lat="-35.3628811" lon="149.1652218">
  <ele>582.16</ele>
  <time>2026-08-27T18:28:07Z</time>
  <course>93.04</course>
  <speed>0.0282842712474619</speed>
  <fix>3d</fix>
</trkpt>
<trkpt lat="-35.362881" lon="149.165222">
  <ele>582.09</ele>
  <time>2026-08-27T18:28:07Z</time>
  <course>358.73</course>
  <speed>0.0</speed>
  <fix>3d</fix>
</trkpt>
<trkpt lat="-35.3628811" lon="149.1652218">
  <ele>582.16</ele>
  <time>2026-08-27T18:28:07Z</time>
  <course>92.99</course>
  <speed>0.0282842712474619</speed>
  <fix>3d</fix>
</trkpt>
<trkpt lat="-35.362881" lon="149.165222">
  <ele>582.09</ele>
  <time>2026-08-27T18:28:07Z</time>
  <course>358.62</course>
  <speed>0.0</speed>
  <fix>3d</fix>
</trkpt>
<trkpt lat="-35.3628811" lon="149.1652218">
  <ele>582.17</ele>
  <time>2026-08-27T18:28:07Z</time>
  <course>92.94</course>
  <speed>0.0282842712474619</speed>
  <fix>3d</fix>
</trkpt>
<trkpt lat="-35.362881" lon="149.165222">
  <ele>582.09</ele>
  <time>2026-08-27T18:28:07Z</time>
  <course>358.5</course>
  <speed>0.0</speed>
  <fix>3d</fix>
</trkpt>
<trkpt lat="-35.3628811" lon="149.1652218">
  <ele>582.17</ele>
  <time>2026-08-27T18:28:07Z</time>
  <course>92.89</course>
  <speed>0.0282842712474619</speed>
  <fix>3d</fix>
</trkpt>
<trkpt lat="-35.362881" lon="149.165222">
  <ele>582.09</ele>
  <time>2026-08-27T18:28:07Z</time>
  <course>358.42</course>
  <speed>0.0</speed>
  <fix>3d</fix>
</trkpt>
<trkpt lat="-35.3628811" lon="149.1652218">
  <ele>582.17</ele>
  <time>2026-08-27T18:28:08Z</time>
  <course>92.85</course>
  <speed>0.0282842712474619</speed>
  <fix>3d</fix>
</trkpt>
<trkpt lat="-35.362881" lon="149.165222">
  <ele>582.09</ele>
  <time>2026-08-27T18:28:08Z</time>
  <course>358.33</course>
  <speed>0.0</speed>
  <fix>3d</fix>
</trkpt>
<trkpt lat="-35.3628811" lon="149.1652218">
  <ele>582.17</ele>
  <time>2026-08-27T18:28:08Z</time>
  <course>92.8</course>
  <speed>0.0282842712474619</speed>
  <fix>3d</fix>
</trkpt>
<trkpt lat="-35.362881" lon="149.165222">
  <ele>582.09</ele>
  <time>2026-08-27T18:28:08Z</time>
  <course>358.26</course>
  <speed>0.0</speed>
  <fix>3d</fix>
</trkpt>
<trkpt lat="-35.3628811" lon="149.1652218">
  <ele>582.18</ele>
  <time>2026-08-27T18:28:08Z</time>
  <course>92.75</course>
  <speed>0.0282842712474619</speed>
  <fix>3d</fix>
</trkpt>
<trkpt lat="-35.362881" lon="149.165222">
  <ele>582.09</ele>
  <time>2026-08-27T18:28:08Z</time>
  <course>358.18</course>
  <speed>0.0</speed>
  <fix>3d</fix>
</trkpt>
<trkpt lat="-35.3628811" lon="149.1652218">
  <ele>582.18</ele>
  <time>2026-08-27T18:28:08Z</time>
  <course>92.71</course>
  <speed>0.0282842712474619</speed>
  <fix>3d</fix>
</trkpt>
<trkpt lat="-35.362881" lon="149.165222">
  <ele>582.09</ele>
  <time>2026-08-27T18:28:08Z</time>
  <course>358.13</course>
  <speed>0.0</speed>
  <fix>3d</fix>
</trkpt>
<trkpt lat="-35.3628811" lon="149.1652218">
  <ele>582.18</ele>
  <time>2026-08-27T18:28:08Z</time>
  <course>92.66</course>
  <speed>0.0282842712474619</speed>
  <fix>3d</fix>
</trkpt>
<trkpt lat="-35.362881" lon="149.165222">
  <ele>582.09</ele>
  <time>2026-08-27T18:28:08Z</time>
  <course>358.07</course>
  <speed>0.0</speed>
  <fix>3d</fix>
</trkpt>
<trkpt lat="-35.3628811" lon="149.1652218">
  <ele>582.18</ele>
  <time>2026-08-27T18:28:08Z</time>
  <course>92.62</course>
  <speed>0.0282842712474619</speed>
  <fix>3d</fix>
</trkpt>
<trkpt lat="-35.362881" lon="149.165222">
  <ele>582.09</ele>
  <time>2026-08-27T18:28:08Z</time>
  <course>358.06</course>
  <speed>0.0</speed>
  <fix>3d</fix>
</trkpt>
<trkpt lat="-35.3628811" lon="149.1652218">
  <ele>582.18</ele>
  <time>2026-08-27T18:28:08Z</time>
  <course>92.57</course>
  <speed>0.0282842712474619</speed>
  <fix>3d</fix>
</trkpt>
<trkpt lat="-35.362881" lon="149.165222">
  <ele>582.09</ele>
  <time>2026-08-27T18:28:08Z</time>
  <course>357.99</course>
  <speed>0.0</speed>
  <fix>3d</fix>
</trkpt>
<trkpt lat="-35.3628811" lon="149.1652218">
  <ele>582.18</ele>
  <time>2026-08-27T18:28:08Z</time>
  <course>92.53</course>
  <speed>0.0282842712474619</speed>
  <fix>3d</fix>
</trkpt>
<trkpt lat="-35.362881" lon="149.165222">
  <ele>582.09</ele>
  <time>2026-08-27T18:28:08Z</time>
  <course>357.97</course>
  <speed>0.0</speed>
  <fix>3d</fix>
</trkpt>
<trkpt lat="-35.3628811" lon="149.1652218">
  <ele>582.19</ele>
  <time>2026-08-27T18:28:08Z</time>
  <course>92.49</course>
  <speed>0.0282842712474619</speed>
  <fix>3d</fix>
</trkpt>
<trkpt lat="-35.362881" lon="149.165222">
  <ele>582.09</ele>
  <time>2026-08-27T18:28:08Z</time>
  <course>354.66</course>
  <speed>0.0</speed>
  <fix>3d</fix>
</trkpt>
<trkpt lat="-35.3628811" lon="149.1652218">
  <ele>582.19</ele>
  <time>2026-08-27T18:28:08Z</time>
  <course>92.44</course>
  <speed>0.0282842712474619</speed>
  <fix>3d</fix>
</trkpt>
<trkpt lat="-35.362881" lon="149.165222">
  <ele>582.09</ele>
  <time>2026-08-27T18:28:08Z</time>
  <course>357.89</course>
  <speed>0.0</speed>
  <fix>3d</fix>
</trkpt>
<trkpt lat="-35.3628811" lon="149.1652218">
  <ele>582.19</ele>
  <time>2026-08-27T18:28:08Z</time>
  <course>92.4</course>
  <speed>0.022360679774997897</speed>
  <fix>3d</fix>
</trkpt>
<trkpt lat="-35.362881" lon="149.165222">
  <ele>582.09</ele>
  <time>2026-08-27T18:28:08Z</time>
  <course>1.84</course>
  <speed>0.0</speed>
  <fix>3d</fix>
</trkpt>
<trkpt lat="-35.3628811" lon="149.1652218">
  <ele>582.19</ele>
  <time>2026-08-27T18:28:08Z</time>
  <course>92.36</course>
  <speed>0.022360679774997897</speed>
  <fix>3d</fix>
</trkpt>
<trkpt lat="-35.362881" lon="149.165222">
  <ele>582.09</ele>
  <time>2026-08-27T18:28:08Z</time>
  <course>357.95</course>
  <speed>0.0</speed>
  <fix>3d</fix>
</trkpt>
<trkpt lat="-35.3628811" lon="149.1652218">
  <ele>582.19</ele>
  <time>2026-08-27T18:28:08Z</time>
  <course>92.32</course>
  <speed>0.022360679774997897</speed>
  <fix>3d</fix>
</trkpt>
<trkpt lat="-35.362881" lon="149.165222">
  <ele>582.09</ele>
  <time>2026-08-27T18:28:08Z</time>
  <course>356.89</course>
  <speed>0.0</speed>
  <fix>3d</fix>
</trkpt>
<trkpt lat="-35.3628811" lon="149.1652218">
  <ele>582.18</ele>
  <time>2026-08-27T18:28:08Z</time>
  <course>92.28</course>
  <speed>0.022360679774997897</speed>
  <fix>3d</fix>
</trkpt>
<trkpt lat="-35.362881" lon="149.165222">
  <ele>582.09</ele>
  <time>2026-08-27T18:28:08Z</time>
  <course>357.7</course>
  <speed>0.0</speed>
  <fix>3d</fix>
</trkpt>
<trkpt lat="-35.3628811" lon="149.1652218">
  <ele>582.18</ele>
  <time>2026-08-27T18:28:08Z</time>
  <course>92.24</course>
  <speed>0.022360679774997897</speed>
  <fix>3d</fix>
</trkpt>
<trkpt lat="-35.362881" lon="149.165222">
  <ele>582.09</ele>
  <time>2026-08-27T18:28:08Z</time>
  <course>357.68</course>
  <speed>0.0</speed>
  <fix>3d</fix>
</trkpt>
<trkpt lat="-35.3628811" lon="149.1652218">
  <ele>582.18</ele>
  <time>2026-08-27T18:28:08Z</time>
  <course>92.2</course>
  <speed>0.022360679774997897</speed>
  <fix>3d</fix>
</trkpt>
<trkpt lat="-35.362881" lon="149.165222">
  <ele>582.09</ele>
  <time>2026-08-27T18:28:08Z</time>
  <course>357.53</course>
  <speed>0.0</speed>
  <fix>3d</fix>
</trkpt>
<trkpt lat="-35.3628811" lon="149.1652218">
  <ele>582.18</ele>
  <time>2026-08-27T18:28:08Z</time>
  <course>92.16</course>
  <speed>0.022360679774997897</speed>
  <fix>3d</fix>
</trkpt>
<trkpt lat="-35.362881" lon="149.165222">
  <ele>582.09</ele>
  <time>2026-08-27T18:28:08Z</time>
  <course>357.65</course>
  <speed>0.0</speed>
  <fix>3d</fix>
</trkpt>
<trkpt lat="-35.3628811" lon="149.1652218">
  <ele>582.18</ele>
  <time>2026-08-27T18:28:08Z</time>
  <course>92.13</course>
  <speed>0.022360679774997897</speed>
  <fix>3d</fix>
</trkpt>
<trkpt lat="-35.362881" lon="149.165222">
  <ele>582.09</ele>
  <time>2026-08-27T18:28:08Z</time>
  <course>357.31</course>
  <speed>0.0</speed>
  <fix>3d</fix>
</trkpt>
<trkpt lat="-35.3628811" lon="149.1652218">
  <ele>582.18</ele>
  <time>2026-08-27T18:28:08Z</time>
  <course>92.09</course>
  <speed>0.022360679774997897</speed>
  <fix>3d</fix>
</trkpt>
<trkpt lat="-35.362881" lon="149.165222">
  <ele>582.09</ele>
  <time>2026-08-27T18:28:08Z</time>
  <course>357.43</course>
  <speed>0.0</speed>
  <fix>3d</fix>
</trkpt>
<trkpt lat="-35.3628811" lon="149.1652218">
  <ele>582.19</ele>
  <time>2026-08-27T18:28:08Z</time>
  <course>92.05</course>
  <speed>0.022360679774997897</speed>
  <fix>3d</fix>
</trkpt>
<trkpt lat="-35.362881" lon="149.165222">
  <ele>582.09</ele>
  <time>2026-08-27T18:28:08Z</time>
  <course>357.46</course>
  <speed>0.0</speed>
  <fix>3d</fix>
</trkpt>
<trkpt lat="-35.3628811" lon="149.1652218">
  <ele>582.19</ele>
  <time>2026-08-27T18:28:08Z</time>
  <course>92.01</course>
  <speed>0.022360679774997897</speed>
  <fix>3d</fix>
</trkpt>
<trkpt lat="-35.362881" lon="149.165222">
  <ele>582.09</ele>
  <time>2026-08-27T18:28:08Z</time>
  <course>357.28</course>
  <speed>0.0</speed>
  <fix>3d</fix>
</trkpt>
<trkpt lat="-35.3628811" lon="149.1652218">
  <ele>582.19</ele>
  <time>2026-08-27T18:28:08Z</time>
  <course>91.98</course>
  <speed>0.022360679774997897</speed>
  <fix>3d</fix>
</trkpt>
<trkpt lat="-35.362881" lon="149.165222">
  <ele>582.09</ele>
  <time>2026-08-27T18:28:08Z</time>
  <course>357.42</course>
  <speed>0.0</speed>
  <fix>3d</fix>
</trkpt>
<trkpt lat="-35.3628811" lon="149.1652218">
  <ele>582.19</ele>
  <time>2026-08-27T18:28:08Z</time>
  <course>91.94</course>
  <speed>0.022360679774997897</speed>
  <fix>3d</fix>
</trkpt>
<trkpt lat="-35.362881" lon="149.165222">
  <ele>582.09</ele>
  <time>2026-08-27T18:28:08Z</time>
  <course>357.19</course>
  <speed>0.0</speed>
  <fix>3d</fix>
</trkpt>
<trkpt lat="-35.3628811" lon="149.1652218">
  <ele>582.19</ele>
  <time>2026-08-27T18:28:08Z</time>
  <course>91.91</course>
  <speed>0.022360679774997897</speed>
  <fix>3d</fix>
</trkpt>
<trkpt lat="-35.362881" lon="149.165222">
  <ele>582.09</ele>
  <time>2026-08-27T18:28:08Z</time>
  <course>357.27</course>
  <speed>0.0</speed>
  <fix>3d</fix>
</trkpt>
<trkpt lat="-35.3628811" lon="149.1652218">
  <ele>582.19</ele>
  <time>2026-08-27T18:28:08Z</time>
  <course>91.87</course>
  <speed>0.022360679774997897</speed>
  <fix>3d</fix>
</trkpt>
<trkpt lat="-35.362881" lon="149.165222">
  <ele>582.09</ele>
  <time>2026-08-27T18:28:08Z</time>
  <course>357.35</course>
  <speed>0.0</speed>
  <fix>3d</fix>
</trkpt>
<trkpt lat="-35.3628811" lon="149.1652218">
  <ele>582.18</ele>
  <time>2026-08-27T18:28:08Z</time>
  <course>91.84</course>
  <speed>0.022360679774997897</speed>
  <fix>3d</fix>
</trkpt>
<trkpt lat="-35.362881" lon="149.165222">
  <ele>582.09</ele>
  <time>2026-08-27T18:28:08Z</time>
  <course>356.9</course>
  <speed>0.0</speed>
  <fix>3d</fix>
</trkpt>
<trkpt lat="-35.3628811" lon="149.1652218">
  <ele>582.18</ele>
  <time>2026-08-27T18:28:08Z</time>
  <course>91.81</course>
  <speed>0.022360679774997897</speed>
  <fix>3d</fix>
</trkpt>
<trkpt lat="-35.362881" lon="149.165222">
  <ele>582.09</ele>
  <time>2026-08-27T18:28:08Z</time>
  <course>357.17</course>
  <speed>0.0</speed>
  <fix>3d</fix>
</trkpt>
<trkpt lat="-35.3628811" lon="149.1652218">
  <ele>582.18</ele>
  <time>2026-08-27T18:28:08Z</time>
  <course>91.77</course>
  <speed>0.022360679774997897</speed>
  <fix>3d</fix>
</trkpt>
<trkpt lat="-35.362881" lon="149.165222">
  <ele>582.09</ele>
  <time>2026-08-27T18:28:08Z</time>
  <course>357.27</course>
  <speed>0.0</speed>
  <fix>3d</fix>
</trkpt>
<trkpt lat="-35.3628811" lon="149.1652218">
  <ele>582.18</ele>
  <time>2026-08-27T18:28:08Z</time>
  <course>91.74</course>
  <speed>0.022360679774997897</speed>
  <fix>3d</fix>
</trkpt>
<trkpt lat="-35.362881" lon="149.165222">
  <ele>582.09</ele>
  <time>2026-08-27T18:28:08Z</time>
  <course>356.9</course>
  <speed>0.0</speed>
  <fix>3d</fix>
</trkpt>
<trkpt lat="-35.3628811" lon="149.1652218">
  <ele>582.18</ele>
  <time>2026-08-27T18:28:08Z</time>
  <course>91.71</course>
  <speed>0.022360679774997897</speed>
  <fix>3d</fix>
</trkpt>
<trkpt lat="-35.362881" lon="149.165222">
  <ele>582.09</ele>
  <time>2026-08-27T18:28:08Z</time>
  <course>357.08</course>
  <speed>0.0</speed>
  <fix>3d</fix>
</trkpt>
<trkpt lat="-35.3628811" lon="149.1652218">
  <ele>582.18</ele>
  <time>2026-08-27T18:28:08Z</time>
  <course>91.68</course>
  <speed>0.022360679774997897</speed>
  <fix>3d</fix>
</trkpt>
<trkpt lat="-35.362881" lon="149.165222">
  <ele>582.09</ele>
  <time>2026-08-27T18:28:08Z</time>
  <course>357.16</course>
  <speed>0.0</speed>
  <fix>3d</fix>
</trkpt>
<trkpt lat="-35.3628811" lon="149.1652218">
  <ele>582.18</ele>
  <time>2026-08-27T18:28:08Z</time>
  <course>91.65</course>
  <speed>0.022360679774997897</speed>
  <fix>3d</fix>
</trkpt>
<trkpt lat="-35.362881" lon="149.165222">
  <ele>582.09</ele>
  <time>2026-08-27T18:28:08Z</time>
  <course>356.75</course>
  <speed>0.0</speed>
  <fix>3d</fix>
</trkpt>
<trkpt lat="-35.3628811" lon="149.1652218">
  <ele>582.17</ele>
  <time>2026-08-27T18:28:08Z</time>
  <course>91.61</course>
  <speed>0.022360679774997897</speed>
  <fix>3d</fix>
</trkpt>
<trkpt lat="-35.362881" lon="149.165222">
  <ele>582.09</ele>
  <time>2026-08-27T18:28:08Z</time>
  <course>356.96</course>
  <speed>0.0</speed>
  <fix>3d</fix>
</trkpt>
<trkpt lat="-35.3628811" lon="149.1652218">
  <ele>582.17</ele>
  <time>2026-08-27T18:28:08Z</time>
  <course>91.58</course>
  <speed>0.022360679774997897</speed>
  <fix>3d</fix>
</trkpt>
<trkpt lat="-35.362881" lon="149.165222">
  <ele>582.09</ele>
  <time>2026-08-27T18:28:08Z</time>
  <course>357.07</course>
  <speed>0.0</speed>
  <fix>3d</fix>
</trkpt>
<trkpt lat="-35.3628811" lon="149.1652218">
  <ele>582.17</ele>
  <time>2026-08-27T18:28:08Z</time>
  <course>91.55</course>
  <speed>0.022360679774997897</speed>
  <fix>3d</fix>
</trkpt>
<trkpt lat="-35.362881" lon="149.165222">
  <ele>582.09</ele>
  <time>2026-08-27T18:28:08Z</time>
  <course>356.72</course>
  <speed>0.0</speed>
  <fix>3d</fix>
</trkpt>
<trkpt lat="-35.3628811" lon="149.1652218">
  <ele>582.17</ele>
  <time>2026-08-27T18:28:08Z</time>
  <course>91.52</course>
  <speed>0.01414213562373095</speed>
  <fix>3d</fix>
</trkpt>
<trkpt lat="-35.362881" lon="149.165222">
  <ele>582.09</ele>
  <time>2026-08-27T18:28:08Z</time>
  <course>356.82</course>
  <speed>0.0</speed>
  <fix>3d</fix>
</trkpt>
<trkpt lat="-35.3628811" lon="149.1652218">
  <ele>582.17</ele>
  <time>2026-08-27T18:28:08Z</time>
  <course>91.49</course>
  <speed>0.01414213562373095</speed>
  <fix>3d</fix>
</trkpt>
<trkpt lat="-35.362881" lon="149.165222">
  <ele>582.09</ele>
  <time>2026-08-27T18:28:08Z</time>
  <course>356.98</course>
  <speed>0.0</speed>
  <fix>3d</fix>
</trkpt>
<trkpt lat="-35.3628811" lon="149.1652218">
  <ele>582.17</ele>
  <time>2026-08-27T18:28:08Z</time>
  <course>91.46</course>
  <speed>0.01414213562373095</speed>
  <fix>3d</fix>
</trkpt>
<trkpt lat="-35.362881" lon="149.165222">
  <ele>582.09</ele>
  <time>2026-08-27T18:28:08Z</time>
  <course>356.76</course>
  <speed>0.0</speed>
  <fix>3d</fix>
</trkpt>
<trkpt lat="-35.3628811" lon="149.1652218">
  <ele>582.17</ele>
  <time>2026-08-27T18:28:08Z</time>
  <course>91.44</course>
  <speed>0.01414213562373095</speed>
  <fix>3d</fix>
</trkpt>
<trkpt lat="-35.362881" lon="149.165222">
  <ele>582.09</ele>
  <time>2026-08-27T18:28:08Z</time>
  <course>356.29</course>
  <speed>0.0</speed>
  <fix>3d</fix>
</trkpt>
<trkpt lat="-35.3628811" lon="149.1652218">
  <ele>582.17</ele>
  <time>2026-08-27T18:28:08Z</time>
  <course>91.41</course>
  <speed>0.01414213562373095</speed>
  <fix>3d</fix>
</trkpt>
<trkpt lat="-35.362881" lon="149.165222">
  <ele>582.09</ele>
  <time>2026-08-27T18:28:08Z</time>
  <course>356.84</course>
  <speed>0.0</speed>
  <fix>3d</fix>
</trkpt>
<trkpt lat="-35.3628811" lon="149.1652218">
  <ele>582.17</ele>
  <time>2026-08-27T18:28:08Z</time>
  <course>91.38</course>
  <speed>0.01414213562373095</speed>
  <fix>3d</fix>
</trkpt>
<trkpt lat="-35.362881" lon="149.165222">
  <ele>582.09</ele>
  <time>2026-08-27T18:28:08Z</time>
  <course>356.85</course>
  <speed>0.0</speed>
  <fix>3d</fix>
</trkpt>
<trkpt lat="-35.3628811" lon="149.1652218">
  <ele>582.16</ele>
  <time>2026-08-27T18:28:08Z</time>
  <course>91.35</course>
  <speed>0.01414213562373095</speed>
  <fix>3d</fix>
</trkpt>
<trkpt lat="-35.362881" lon="149.165222">
  <ele>582.09</ele>
  <time>2026-08-27T18:28:08Z</time>
  <course>356.36</course>
  <speed>0.0</speed>
  <fix>3d</fix>
</trkpt>
<trkpt lat="-35.3628811" lon="149.1652218">
  <ele>582.16</ele>
  <time>2026-08-27T18:28:08Z</time>
  <course>91.32</course>
  <speed>0.01414213562373095</speed>
  <fix>3d</fix>
</trkpt>
<trkpt lat="-35.362881" lon="149.165222">
  <ele>582.09</ele>
  <time>2026-08-27T18:28:08Z</time>
  <course>356.63</course>
  <speed>0.0</speed>
  <fix>3d</fix>
</trkpt>
<trkpt lat="-35.3628811" lon="149.1652218">
  <ele>582.16</ele>
  <time>2026-08-27T18:28:08Z</time>
  <course>91.29</course>
  <speed>0.01414213562373095</speed>
  <fix>3d</fix>
</trkpt>
<trkpt lat="-35.362881" lon="149.165222">
  <ele>582.09</ele>
  <time>2026-08-27T18:28:08Z</time>
  <course>356.78</course>
  <speed>0.0</speed>
  <fix>3d</fix>
</trkpt>
<trkpt lat="-35.3628811" lon="149.1652218">
  <ele>582.16</ele>
  <time>2026-08-27T18:28:08Z</time>
  <course>91.27</course>
  <speed>0.01414213562373095</speed>
  <fix>3d</fix>
</trkpt>
<trkpt lat="-35.362881" lon="149.165222">
  <ele>582.09</ele>
  <time>2026-08-27T18:28:08Z</time>
  <course>356.57</course>
  <speed>0.0</speed>
  <fix>3d</fix>
</trkpt>
<trkpt lat="-35.3628811" lon="149.1652218">
  <ele>582.16</ele>
  <time>2026-08-27T18:28:08Z</time>
  <course>91.24</course>
  <speed>0.01414213562373095</speed>
  <fix>3d</fix>
</trkpt>
<trkpt lat="-35.362881" lon="149.165222">
  <ele>582.09</ele>
  <time>2026-08-27T18:28:08Z</time>
  <course>356.14</course>
  <speed>0.0</speed>
  <fix>3d</fix>
</trkpt>
<trkpt lat="-35.3628811" lon="149.1652218">
  <ele>582.16</ele>
  <time>2026-08-27T18:28:08Z</time>
  <course>91.21</course>
  <speed>0.01414213562373095</speed>
  <fix>3d</fix>
</trkpt>
<trkpt lat="-35.362881" lon="149.165222">
  <ele>582.09</ele>
  <time>2026-08-27T18:28:08Z</time>
  <course>356.66</course>
  <speed>0.0</speed>
  <fix>3d</fix>
</trkpt>
<trkpt lat="-35.3628811" lon="149.1652218">
  <ele>582.16</ele>
  <time>2026-08-27T18:28:08Z</time>
  <course>91.19</course>
  <speed>0.01414213562373095</speed>
  <fix>3d</fix>
</trkpt>
<trkpt lat="-35.362881" lon="149.165222">
  <ele>582.09</ele>
  <time>2026-08-27T18:28:08Z</time>
  <course>356.68</course>
  <speed>0.0</speed>
  <fix>3d</fix>
</trkpt>
<trkpt lat="-35.3628811" lon="149.1652218">
  <ele>582.16</ele>
  <time>2026-08-27T18:28:08Z</time>
  <course>91.16</course>
  <speed>0.01414213562373095</speed>
  <fix>3d</fix>
</trkpt>
<trkpt lat="-35.362881" lon="149.165222">
  <ele>582.09</ele>
  <time>2026-08-27T18:28:08Z</time>
  <course>356.28</course>
  <speed>0.0</speed>
  <fix>3d</fix>
</trkpt>
<trkpt lat="-35.3628811" lon="149.1652218">
  <ele>582.16</ele>
  <time>2026-08-27T18:28:08Z</time>
  <course>91.14</course>
  <speed>0.01414213562373095</speed>
  <fix>3d</fix>
</trkpt>
<trkpt lat="-35.362881" lon="149.165222">
  <ele>582.09</ele>
  <time>2026-08-27T18:28:08Z</time>
  <course>356.2</course>
  <speed>0.0</speed>
  <fix>3d</fix>
</trkpt>
<trkpt lat="-35.3628811" lon="149.1652218">
  <ele>582.16</ele>
  <time>2026-08-27T18:28:08Z</time>
  <course>91.12</course>
  <speed>0.01414213562373095</speed>
  <fix>3d</fix>
</trkpt>
<trkpt lat="-35.362881" lon="149.165222">
  <ele>582.09</ele>
  <time>2026-08-27T18:28:08Z</time>
  <course>356.58</course>
  <speed>0.0</speed>
  <fix>3d</fix>
</trkpt>
<trkpt lat="-35.3628811" lon="149.1652218">
  <ele>582.16</ele>
  <time>2026-08-27T18:28:08Z</time>
  <course>91.09</course>
  <speed>0.01414213562373095</speed>
  <fix>3d</fix>
</trkpt>
<trkpt lat="-35.362881" lon="149.165222">
  <ele>582.09</ele>
  <time>2026-08-27T18:28:08Z</time>
  <course>349.17</course>
  <speed>0.0</speed>
  <fix>3d</fix>
</trkpt>
<trkpt lat="-35.3628811" lon="149.1652218">
  <ele>582.16</ele>
  <time>2026-08-27T18:28:08Z</time>
  <course>91.07</course>
  <speed>0.01414213562373095</speed>
  <fix>3d</fix>
</trkpt>
<trkpt lat="-35.362881" lon="149.165222">
  <ele>582.09</ele>
  <time>2026-08-27T18:28:08Z</time>
  <course>330.24</course>
  <speed>0.0</speed>
  <fix>3d</fix>
</trkpt>
<trkpt lat="-35.3628811" lon="149.1652218">
  <ele>582.16</ele>
  <time>2026-08-27T18:28:08Z</time>
  <course>91.06</course>
  <speed>0.01414213562373095</speed>
  <fix>3d</fix>
</trkpt>
<trkpt lat="-35.362881" lon="149.165222">
  <ele>582.09</ele>
  <time>2026-08-27T18:28:08Z</time>
  <course>355.34</course>
  <speed>0.0</speed>
  <fix>3d</fix>
</trkpt>
<trkpt lat="-35.3628811" lon="149.1652218">
  <ele>582.15</ele>
  <time>2026-08-27T18:28:08Z</time>
  <course>91.04</course>
  <speed>0.01414213562373095</speed>
  <fix>3d</fix>
</trkpt>
<trkpt lat="-35.362881" lon="149.165222">
  <ele>582.09</ele>
  <time>2026-08-27T18:28:08Z</time>
  <course>358.62</course>
  <speed>0.0</speed>
  <fix>3d</fix>
</trkpt>
<trkpt lat="-35.3628811" lon="149.1652218">
  <ele>582.15</ele>
  <time>2026-08-27T18:28:08Z</time>
  <course>91.0</course>
  <speed>0.01414213562373095</speed>
  <fix>3d</fix>
</trkpt>
<trkpt lat="-35.362881" lon="149.165222">
  <ele>582.09</ele>
  <time>2026-08-27T18:28:08Z</time>
  <course>355.61</course>
  <speed>0.0</speed>
  <fix>3d</fix>
</trkpt>
<trkpt lat="-35.3628811" lon="149.1652218">
  <ele>582.15</ele>
  <time>2026-08-27T18:28:08Z</time>
  <course>90.95</course>
  <speed>0.01414213562373095</speed>
  <fix>3d</fix>
</trkpt>
<trkpt lat="-35.362881" lon="149.165222">
  <ele>582.09</ele>
  <time>2026-08-27T18:28:08Z</time>
  <course>355.23</course>
  <speed>0.0</speed>
  <fix>3d</fix>
</trkpt>
<trkpt lat="-35.3628811" lon="149.1652218">
  <ele>582.18</ele>
  <time>2026-08-27T18:28:08Z</time>
  <course>90.89</course>
  <speed>0.01414213562373095</speed>
  <fix>3d</fix>
</trkpt>
<trkpt lat="-35.362881" lon="149.165222">
  <ele>582.11</ele>
  <time>2026-08-27T18:28:08Z</time>
  <course>359.5</course>
  <speed>0.0</speed>
  <fix>3d</fix>
</trkpt>
<trkpt lat="-35.3628811" lon="149.1652218">
  <ele>582.21</ele>
  <time>2026-08-27T18:28:08Z</time>
  <course>90.81</course>
  <speed>0.01414213562373095</speed>
  <fix>3d</fix>
</trkpt>
<trkpt lat="-35.362881" lon="149.165222">
  <ele>582.13</ele>
  <time>2026-08-27T18:28:08Z</time>
  <course>0.51</course>
  <speed>0.0</speed>
  <fix>3d</fix>
</trkpt>
<trkpt lat="-35.3628811" lon="149.1652218">
  <ele>582.25</ele>
  <time>2026-08-27T18:28:08Z</time>
  <course>90.73</course>
  <speed>0.01414213562373095</speed>
  <fix>3d</fix>
</trkpt>
<trkpt lat="-35.362881" lon="149.165222">
  <ele>582.16</ele>
  <time>2026-08-27T18:28:08Z</time>
  <course>358.1</course>
  <speed>0.0</speed>
  <fix>3d</fix>
</trkpt>
<trkpt lat="-35.3628811" lon="149.1652218">
  <ele>582.35</ele>
  <time>2026-08-27T18:28:08Z</time>
  <course>86.18</course>
  <speed>0.044721359549995794</speed>
  <fix>3d</fix>
</trkpt>
<trkpt lat="-35.362881" lon="149.165222">
  <ele>582.21</ele>
  <time>2026-08-27T18:28:08Z</time>
  <course>358.39</course>
  <speed>0.01</speed>
  <fix>3d</fix>
</trkpt>
<trkpt lat="-35.3628809" lon="149.1652218">
  <ele>582.64</ele>
  <time>2026-08-27T18:28:08Z</time>
  <course>83.46</course>
  <speed>0.2109502310972899</speed>
  <fix>3d</fix>
</trkpt>
<trkpt lat="-35.3628809" lon="149.165222">
  <ele>582.38</ele>
  <time>2026-08-27T18:28:08Z</time>
  <course>355.23</course>
  <speed>0.11</speed>
  <fix>3d</fix>
</trkpt>
<trkpt lat="-35.3628804" lon="149.1652218">
  <ele>582.89</ele>
  <time>2026-08-27T18:28:08Z</time>
  <course>82.79</course>
  <speed>0.27166155414412246</speed>
  <fix>3d</fix>
</trkpt>
<trkpt lat="-35.3628805" lon="149.165222">
  <ele>582.65</ele>
  <time>2026-08-27T18:28:08Z</time>
  <course>354.56</course>
  <speed>0.24</speed>
  <fix>3d</fix>
</trkpt>
<trkpt lat="-35.3628799" lon="149.1652218">
  <ele>583.15</ele>
  <time>2026-08-27T18:28:08Z</time>
  <course>81.31</course>
  <speed>0.3026549190084311</speed>
  <fix>3d</fix>
</trkpt>
<trkpt lat="-35.36288" lon="149.1652219">
  <ele>582.91</ele>
  <time>2026-08-27T18:28:08Z</time>
  <course>353.43</course>
  <speed>0.3</speed>
  <fix>3d</fix>
</trkpt>
<trkpt lat="-35.3628793" lon="149.1652217">
  <ele>583.45</ele>
  <time>2026-08-27T18:28:08Z</time>
  <course>80.22</course>
  <speed>0.304138126514911</speed>
  <fix>3d</fix>
</trkpt>
<trkpt lat="-35.3628795" lon="149.1652218">
  <ele>583.18</ele>
  <time>2026-08-27T18:28:08Z</time>
  <course>351.96</course>
  <speed>0.32</speed>
  <fix>3d</fix>
</trkpt>
<trkpt lat="-35.3628787" lon="149.1652216">
  <ele>583.8</ele>
  <time>2026-08-27T18:28:08Z</time>
  <course>79.46</course>
  <speed>0.28442925306655786</speed>
  <fix>3d</fix>
</trkpt>
<trkpt lat="-35.3628789" lon="149.1652217">
  <ele>583.48</ele>
  <time>2026-08-27T18:28:08Z</time>
  <course>351.05</course>
  <speed>0.32</speed>
  <fix>3d</fix>
</trkpt>
<trkpt lat="-35.3628782" lon="149.1652215">
  <ele>584.19</ele>
  <time>2026-08-27T18:28:08Z</time>
  <course>78.8</course>
  <speed>0.24515301344262524</speed>
  <fix>3d</fix>
</trkpt>
<trkpt lat="-35.3628783" lon="149.1652216">
  <ele>583.83</ele>
  <time>2026-08-27T18:28:08Z</time>
  <course>350.88</course>
  <speed>0.29</speed>
  <fix>3d</fix>
</trkpt>
<trkpt lat="-35.3628778" lon="149.1652214">
  <ele>584.6</ele>
  <time>2026-08-27T18:28:08Z</time>
  <course>78.2</course>
  <speed>0.20615528128088303</speed>
  <fix>3d</fix>
</trkpt>
<trkpt lat="-35.3628778" lon="149.1652215">
  <ele>584.2</ele>
  <time>2026-08-27T18:28:08Z</time>
  <course>351.24</course>
  <speed>0.26</speed>
  <fix>3d</fix>
</trkpt>
<trkpt lat="-35.3628774" lon="149.1652213">
  <ele>585.06</ele>
  <time>2026-08-27T18:28:08Z</time>
  <course>77.56</course>
  <speed>0.1649242250247064</speed>
  <fix>3d</fix>
</trkpt>
<trkpt lat="-35.3628774" lon="149.1652214">
  <ele>584.63</ele>
  <time>2026-08-27T18:28:08Z</time>
  <course>351.92</course>
  <speed>0.22</speed>
  <fix>3d</fix>
</trkpt>
<trkpt lat="-35.3628771" lon="149.1652212">
  <ele>585.55</ele>
  <time>2026-08-27T18:28:08Z</time>
  <course>77.13</course>
  <speed>0.1264911064067352</speed>
  <fix>3d</fix>
</trkpt>
<trkpt lat="-35.362877" lon="149.1652214">
  <ele>585.08</ele>
  <time>2026-08-27T18:28:08Z</time>
  <course>352.78</course>
  <speed>0.17</speed>
  <fix>3d</fix>
</trkpt>
<trkpt lat="-35.3628769" lon="149.1652212">
  <ele>586.06</ele>
  <time>2026-08-27T18:28:08Z</time>
  <course>77.33</course>
  <speed>0.08062257748298549</speed>
  <fix>3d</fix>
</trkpt>
<trkpt lat="-35.3628767" lon="149.1652213">
  <ele>585.58</ele>
  <time>2026-08-27T18:28:08Z</time>
  <course>354.16</course>
  <speed>0.13</speed>
  <fix>3d</fix>
</trkpt>
<trkpt lat="-35.3628767" lon="149.1652212">
  <ele>586.59</ele>
  <time>2026-08-27T18:28:08Z</time>
  <course>77.71</course>
  <speed>0.03605551275463989</speed>
  <fix>3d</fix>
</trkpt>
<trkpt lat="-35.3628766" lon="149.1652212">
  <ele>586.08</ele>
  <time>2026-08-27T18:28:08Z</time>
  <course>357.91</course>
  <speed>0.08</speed>
  <fix>3d</fix>
</trkpt>
<trkpt lat="-35.3628767" lon="149.1652212">
  <ele>587.11</ele>
  <time>2026-08-27T18:28:08Z</time>
  <course>78.18</course>
  <speed>0.01</speed>
  <fix>3d</fix>
</trkpt>
<trkpt lat="-35.3628765" lon="149.1652213">
  <ele>586.6</ele>
  <time>2026-08-27T18:28:08Z</time>
  <course>11.37</course>
  <speed>0.03</speed>
  <fix>3d</fix>
</trkpt>
<trkpt lat="-35.3628767" lon="149.1652212">
  <ele>587.63</ele>
  <time>2026-08-27T18:28:08Z</time>
  <course>78.74</course>
  <speed>0.05</speed>
  <fix>3d</fix>
</trkpt>
<trkpt lat="-35.3628765" lon="149.1652214">
  <ele>587.11</ele>
  <time>2026-08-27T18:28:08Z</time>
  <course>119.73</course>
  <speed>0.01</speed>
  <fix>3d</fix>
</trkpt>
<trkpt lat="-35.3628767" lon="149.1652212">
  <ele>588.13</ele>
  <time>2026-08-27T18:28:08Z</time>
  <course>79.33</course>
  <speed>0.09055385138137417</speed>
  <fix>3d</fix>
</trkpt>
<trkpt lat="-35.3628765" lon="149.1652214">
  <ele>587.62</ele>
  <time>2026-08-27T18:28:08Z</time>
  <course>161.59</course>
  <speed>0.05</speed>
  <fix>3d</fix>
</trkpt>
<trkpt lat="-35.3628768" lon="149.1652213">
  <ele>588.64</ele>
  <time>2026-08-27T18:28:08Z</time>
  <course>79.89</course>
  <speed>0.130384048104053</speed>
  <fix>3d</fix>
</trkpt>
<trkpt lat="-35.3628765" lon="149.1652214">
  <ele>588.13</ele>
  <time>2026-08-27T18:28:08Z</time>
  <course>170.65</course>
  <speed>0.09</speed>
  <fix>3d</fix>
</trkpt>
<trkpt lat="-35.3628771" lon="149.1652214">
  <ele>589.14</ele>
  <time>2026-08-27T18:28:08Z</time>
  <course>80.42</course>
  <speed>0.16031219541881397</speed>
  <fix>3d</fix>
</trkpt>
<trkpt lat="-35.3628767" lon="149.1652214">
  <ele>588.64</ele>
  <time>2026-08-27T18:28:08Z</time>
  <course>175.1</course>
  <speed>0.13</speed>
  <fix>3d</fix>
</trkpt>
<trkpt lat="-35.3628773" lon="149.1652214">
  <ele>589.64</ele>
  <time>2026-08-27T18:28:08Z</time>
  <course>80.9</course>
  <speed>0.18027756377319945</speed>
  <fix>3d</fix>
</trkpt>
<trkpt lat="-35.362877" lon="149.1652214">
  <ele>589.14</ele>
  <time>2026-08-27T18:28:08Z</time>
  <course>177.55</course>
  <speed>0.16</speed>
  <fix>3d</fix>
</trkpt>
<trkpt lat="-35.3628777" lon="149.1652214">
  <ele>590.15</ele>
  <time>2026-08-27T18:28:08Z</time>
  <course>81.4</course>
  <speed>0.2002498439450079</speed>
  <fix>3d</fix>
</trkpt>
<trkpt lat="-35.3628773" lon="149.1652214">
  <ele>589.63</ele>
  <time>2026-08-27T18:28:08Z</time>
  <course>178.88</course>
  <speed>0.19</speed>
  <fix>3d</fix>
</trkpt>
<trkpt lat="-35.362878" lon="149.1652214">
  <ele>590.66</ele>
  <time>2026-08-27T18:28:08Z</time>
  <course>81.85</course>
  <speed>0.22022715545545238</speed>
  <fix>3d</fix>
</trkpt>
<trkpt lat="-35.3628777" lon="149.1652214">
  <ele>590.13</ele>
  <time>2026-08-27T18:28:08Z</time>
  <course>179.58</course>
  <speed>0.21</speed>
  <fix>3d</fix>
</trkpt>
<trkpt lat="-35.3628784" lon="149.1652215">
  <ele>591.16</ele>
  <time>2026-08-27T18:28:08Z</time>
  <course>82.3</course>
  <speed>0.22022715545545238</speed>
  <fix>3d</fix>
</trkpt>
<trkpt lat="-35.3628781" lon="149.1652214">
  <ele>590.63</ele>
  <time>2026-08-27T18:28:08Z</time>
  <course>179.89</course>
  <speed>0.22</speed>
  <fix>3d</fix>
</trkpt>
<trkpt lat="-35.3628788" lon="149.1652215">
  <ele>591.66</ele>
  <time>2026-08-27T18:28:08Z</time>
  <course>82.72</course>
  <speed>0.22090722034374521</speed>
  <fix>3d</fix>
</trkpt>
<trkpt lat="-35.3628785" lon="149.1652214">
  <ele>591.12</ele>
  <time>2026-08-27T18:28:08Z</time>
  <course>179.95</course>
  <speed>0.23</speed>
  <fix>3d</fix>
</trkpt>
<trkpt lat="-35.3628792" lon="149.1652215">
  <ele>592.16</ele>
  <time>2026-08-27T18:28:08Z</time>
  <course>83.14</course>
  <speed>0.22090722034374521</speed>
  <fix>3d</fix>
</trkpt>
<trkpt lat="-35.362879" lon="149.1652214">
  <ele>591.62</ele>
  <time>2026-08-27T18:28:08Z</time>
  <course>179.87</course>
  <speed>0.23</speed>
  <fix>3d</fix>
</trkpt>
<trkpt lat="-35.3628796" lon="149.1652215">
  <ele>592.65</ele>
  <time>2026-08-27T18:28:08Z</time>
  <course>83.51</course>
  <speed>0.2109502310972899</speed>
  <fix>3d</fix>
</trkpt>
<trkpt lat="-35.3628794" lon="149.1652214">
  <ele>592.11</ele>
  <time>2026-08-27T18:28:08Z</time>
  <course>179.67</course>
  <speed>0.22</speed>
  <fix>3d</fix>
</trkpt>
<trkpt lat="-35.36288" lon="149.1652215">
  <ele>593.15</ele>
  <time>2026-08-27T18:28:08Z</time>
  <course>83.83</course>
  <speed>0.191049731745428</speed>
  <fix>3d</fix>
</trkpt>
<trkpt lat="-35.3628798" lon="149.1652214">
  <ele>592.6</ele>
  <time>2026-08-27T18:28:08Z</time>
  <course>179.34</course>
  <speed>0.21</speed>
  <fix>3d</fix>
</trkpt>
<trkpt lat="-35.3628803" lon="149.1652215">
  <ele>593.65</ele>
  <time>2026-08-27T18:28:08Z</time>
  <course>84.16</course>
  <speed>0.1711724276862369</speed>
  <fix>3d</fix>
</trkpt>
<trkpt lat="-35.3628801" lon="149.1652214">
  <ele>593.1</ele>
  <time>2026-08-27T18:28:08Z</time>
  <course>178.94</course>
  <speed>0.19</speed>
  <fix>3d</fix>
</trkpt>
<trkpt lat="-35.3628806" lon="149.1652215">
  <ele>594.14</ele>
  <time>2026-08-27T18:28:08Z</time>
  <course>84.45</course>
  <speed>0.15297058540778355</speed>
  <fix>3d</fix>
</trkpt>
<trkpt lat="-35.3628804" lon="149.1652214">
  <ele>593.59</ele>
  <time>2026-08-27T18:28:08Z</time>
  <course>178.36</course>
  <speed>0.17</speed>
  <fix>3d</fix>
</trkpt>
<trkpt lat="-35.3628809" lon="149.1652215">
  <ele>594.64</ele>
  <time>2026-08-27T18:28:08Z</time>
  <course>84.73</course>
  <speed>0.13341664064126335</speed>
  <fix>3d</fix>
</trkpt>
<trkpt lat="-35.3628807" lon="149.1652214">
  <ele>594.08</ele>
  <time>2026-08-27T18:28:08Z</time>
  <course>177.48</course>
  <speed>0.15</speed>
  <fix>3d</fix>
</trkpt>
<trkpt lat="-35.3628811" lon="149.1652215">
  <ele>595.14</ele>
  <time>2026-08-27T18:28:08Z</time>
  <course>85.04</course>
  <speed>0.11401754250991379</speed>
  <fix>3d</fix>
</trkpt>
<trkpt lat="-35.362881" lon="149.1652215">
  <ele>594.58</ele>
  <time>2026-08-27T18:28:08Z</time>
  <course>176.33</course>
  <speed>0.12</speed>
  <fix>3d</fix>
</trkpt>
<trkpt lat="-35.3628813" lon="149.1652215">
  <ele>595.64</ele>
  <time>2026-08-27T18:28:08Z</time>
  <course>85.34</course>
  <speed>0.0854400374531753</speed>
  <fix>3d</fix>
</trkpt>
<trkpt lat="-35.3628811" lon="149.1652215">
  <ele>595.08</ele>
  <time>2026-08-27T18:28:08Z</time>
  <course>174.82</course>
  <speed>0.1</speed>
  <fix>3d</fix>
</trkpt>
<trkpt lat="-35.3628814" lon="149.1652216">
  <ele>596.15</ele>
  <time>2026-08-27T18:28:08Z</time>
  <course>85.66</course>
  <speed>0.0670820393249937</speed>
  <fix>3d</fix>
</trkpt>
<trkpt lat="-35.3628814" lon="149.1652215">
  <ele>595.57</ele>
  <time>2026-08-27T18:28:08Z</time>
  <course>172.23</course>
  <speed>0.07</speed>
  <fix>3d</fix>
</trkpt>
<trkpt lat="-35.3628815" lon="149.1652216">
  <ele>596.65</ele>
  <time>2026-08-27T18:28:08Z</time>
  <course>85.95</course>
  <speed>0.05</speed>
  <fix>3d</fix>
</trkpt>
<trkpt lat="-35.3628815" lon="149.1652215">
  <ele>596.07</ele>
  <time>2026-08-27T18:28:08Z</time>
  <course>167.43</course>
  <speed>0.05</speed>
  <fix>3d</fix>
</trkpt>
<trkpt lat="-35.3628816" lon="149.1652216">
  <ele>597.14</ele>
  <time>2026-08-27T18:28:08Z</time>
  <course>86.24</course>
  <speed>0.03605551275463989</speed>
  <fix>3d</fix>
</trkpt>
<trkpt lat="-35.3628815" lon="149.1652215">
  <ele>596.57</ele>
  <time>2026-08-27T18:28:08Z</time>
  <course>157.74</course>
  <speed>0.03</speed>
  <fix>3d</fix>
</trkpt>
<trkpt lat="-35.3628816" lon="149.1652217">
  <ele>597.64</ele>
  <time>2026-08-27T18:28:08Z</time>
  <course>86.46</course>
  <speed>0.0316227766016838</speed>
  <fix>3d</fix>
</trkpt>
<trkpt lat="-35.3628816" lon="149.1652216">
  <ele>597.06</ele>
  <time>2026-08-27T18:28:08Z</time>
  <course>133.5</course>
  <speed>0.02</speed>
  <fix>3d</fix>
</trkpt>
<trkpt lat="-35.3628816" lon="149.1652217">
  <ele>598.14</ele>
  <time>2026-08-27T18:28:08Z</time>
  <course>86.7</course>
  <speed>0.03</speed>
  <fix>3d</fix>
</trkpt>
<trkpt lat="-35.3628816" lon="149.1652216">
  <ele>597.56</ele>
  <time>2026-08-27T18:28:08Z</time>
  <course>82.04</course>
  <speed>0.01</speed>
  <fix>3d</fix>
</trkpt>
<trkpt lat="-35.3628816" lon="149.1652217">
  <ele>598.64</ele>
  <time>2026-08-27T18:28:08Z</time>
  <course>86.95</course>
  <speed>0.0316227766016838</speed>
  <fix>3d</fix>
</trkpt>
<trkpt lat="-35.3628816" lon="149.1652216">
  <ele>598.05</ele>
  <time>2026-08-27T18:28:08Z</time>
  <course>47.64</course>
  <speed>0.02</speed>
  <fix>3d</fix>
</trkpt>
<trkpt lat="-35.3628815" lon="149.1652218">
  <ele>599.14</ele>
  <time>2026-08-27T18:28:08Z</time>
  <course>87.17</course>
  <speed>0.03605551275463989</speed>
  <fix>3d</fix>
</trkpt>
<trkpt lat="-35.3628816" lon="149.1652217">
  <ele>598.55</ele>
  <time>2026-08-27T18:28:08Z</time>
  <course>34.88</course>
  <speed>0.03</speed>
  <fix>3d</fix>
</trkpt>
<trkpt lat="-35.3628815" lon="149.1652218">
  <ele>599.64</ele>
  <time>2026-08-27T18:28:08Z</time>
  <course>87.4</course>
  <speed>0.03605551275463989</speed>
  <fix>3d</fix>
</trkpt>
<trkpt lat="-35.3628816" lon="149.1652217">
  <ele>599.04</ele>
  <time>2026-08-27T18:28:08Z</time>
  <course>29.43</course>
  <speed>0.04</speed>
  <fix>3d</fix>
</trkpt>
<trkpt lat="-35.3628815" lon="149.1652218">
  <ele>600.13</ele>
  <time>2026-08-27T18:28:08Z</time>
  <course>87.63</course>
  <speed>0.03605551275463989</speed>
  <fix>3d</fix>
</trkpt>
<trkpt lat="-35.3628815" lon="149.1652217">
  <ele>599.54</ele>
  <time>2026-08-27T18:28:08Z</time>
  <course>26.68</course>
  <speed>0.04</speed>
  <fix>3d</fix>
</trkpt>
<trkpt lat="-35.3628814" lon="149.1652219">
  <ele>600.63</ele>
  <time>2026-08-27T18:28:08Z</time>
  <course>87.82</course>
  <speed>0.03605551275463989</speed>
  <fix>3d</fix>
</trkpt>
<trkpt lat="-35.3628814" lon="149.1652218">
  <ele>600.04</ele>
  <time>2026-08-27T18:28:08Z</time>
  <course>25.17</course>
  <speed>0.05</speed>
  <fix>3d</fix>
</trkpt>
<trkpt lat="-35.3628814" lon="149.1652219">
  <ele>601.13</ele>
  <time>2026-08-27T18:28:08Z</time>
  <course>88.01</course>
  <speed>0.03605551275463989</speed>
  <fix>3d</fix>
</trkpt>
<trkpt lat="-35.3628813" lon="149.1652219">
  <ele>600.53</ele>
  <time>2026-08-27T18:28:08Z</time>
  <course>24.24</course>
  <speed>0.05</speed>
  <fix>3d</fix>
</trkpt>
<trkpt lat="-35.3628813" lon="149.1652219">
  <ele>601.63</ele>
  <time>2026-08-27T18:28:08Z</time>
  <course>88.22</course>
  <speed>0.0282842712474619</speed>
  <fix>3d</fix>
</trkpt>
<trkpt lat="-35.3628812" lon="149.1652219">
  <ele>601.03</ele>
  <time>2026-08-27T18:28:08Z</time>
  <course>23.67</course>
  <speed>0.05</speed>
  <fix>3d</fix>
</trkpt>
<trkpt lat="-35.3628812" lon="149.165222">
  <ele>602.13</ele>
  <time>2026-08-27T18:28:08Z</time>
  <course>88.39</course>
  <speed>0.0282842712474619</speed>
  <fix>3d</fix>
</trkpt>
<trkpt lat="-35.3628811" lon="149.165222">
  <ele>601.53</ele>
  <time>2026-08-27T18:28:08Z</time>
  <course>23.61</course>
  <speed>0.05</speed>
  <fix>3d</fix>
</trkpt>
<trkpt lat="-35.3628811" lon="149.165222">
  <ele>602.63</ele>
  <time>2026-08-27T18:28:08Z</time>
  <course>88.58</course>
  <speed>0.022360679774997897</speed>
  <fix>3d</fix>
</trkpt>
<trkpt lat="-35.362881" lon="149.165222">
  <ele>602.03</ele>
  <time>2026-08-27T18:28:08Z</time>
  <course>23.69</course>
  <speed>0.05</speed>
  <fix>3d</fix>
</trkpt>
<trkpt lat="-35.362881" lon="149.1652221">
  <ele>603.12</ele>
  <time>2026-08-27T18:28:08Z</time>
  <course>88.71</course>
  <speed>0.01414213562373095</speed>
  <fix>3d</fix>
</trkpt>
<trkpt lat="-35.362881" lon="149.1652221">
  <ele>602.53</ele>
  <time>2026-08-27T18:28:08Z</time>
  <course>23.81</course>
  <speed>0.05</speed>
  <fix>3d</fix>
</trkpt>
<trkpt lat="-35.362881" lon="149.1652221">
  <ele>603.62</ele>
  <time>2026-08-27T18:28:08Z</time>
  <course>88.89</course>
  <speed>0.01414213562373095</speed>
  <fix>3d</fix>
</trkpt>
<trkpt lat="-35.3628809" lon="149.1652221">
  <ele>603.03</ele>
  <time>2026-08-27T18:28:08Z</time>
  <course>24.24</course>
  <speed>0.04</speed>
  <fix>3d</fix>
</trkpt>
<trkpt lat="-35.3628809" lon="149.1652221">
  <ele>604.12</ele>
  <time>2026-08-27T18:28:08Z</time>
  <course>88.99</course>
  <speed>0.0</speed>
  <fix>3d</fix>
</trkpt>
<trkpt lat="-35.3628808" lon="149.1652222">
  <ele>603.53</ele>
  <time>2026-08-27T18:28:08Z</time>
  <course>25.25</course>
  <speed>0.03</speed>
  <fix>3d</fix>
</trkpt>
<trkpt lat="-35.3628809" lon="149.1652222">
  <ele>604.62</ele>
  <time>2026-08-27T18:28:08Z</time>
  <course>89.13</course>
  <speed>0.0</speed>
  <fix>3d</fix>
</trkpt>
<trkpt lat="-35.3628808" lon="149.1652222">
  <ele>604.03</ele>
  <time>2026-08-27T18:28:08Z</time>
  <course>26.25</course>
  <speed>0.03</speed>
  <fix>3d</fix>
</trkpt>
<trkpt lat="-35.3628809" lon="149.1652222">
  <ele>605.11</ele>
  <time>2026-08-27T18:28:08Z</time>
  <course>89.28</course>
  <speed>0.0</speed>
  <fix>3d</fix>
</trkpt>
<trkpt lat="-35.3628807" lon="149.1652222">
  <ele>604.53</ele>
  <time>2026-08-27T18:28:08Z</time>
  <course>26.89</course>
  <speed>0.02</speed>
  <fix>3d</fix>
</trkpt>
<trkpt lat="-35.3628808" lon="149.1652222">
  <ele>605.62</ele>
  <time>2026-08-27T18:28:08Z</time>
  <course>89.39</course>
  <speed>0.01</speed>
  <fix>3d</fix>
</trkpt>
<trkpt lat="-35.3628807" lon="149.1652222">
  <ele>605.03</ele>
  <time>2026-08-27T18:28:08Z</time>
  <course>27.54</course>
  <speed>0.02</speed>
  <fix>3d</fix>
</trkpt>
<trkpt lat="-35.3628808" lon="149.1652222">
  <ele>606.12</ele>
  <time>2026-08-27T18:28:08Z</time>
  <course>89.51</course>
  <speed>0.01</speed>
  <fix>3d</fix>
</trkpt>
<trkpt lat="-35.3628807" lon="149.1652222">
  <ele>605.53</ele>
  <time>2026-08-27T18:28:08Z</time>
  <course>28.83</course>
  <speed>0.01</speed>
  <fix>3d</fix>
</trkpt>
<trkpt lat="-35.3628808" lon="149.1652222">
  <ele>606.62</ele>
  <time>2026-08-27T18:28:08Z</time>
  <course>89.66</course>
  <speed>0.02</speed>
  <fix>3d</fix>
</trkpt>
<trkpt lat="-35.3628807" lon="149.1652222">
  <ele>606.03</ele>
  <time>2026-08-27T18:28:08Z</time>
  <course>32.31</course>
  <speed>0.0</speed>
  <fix>3d</fix>
</trkpt>
<trkpt lat="-35.3628808" lon="149.1652222">
  <ele>607.12</ele>
  <time>2026-08-27T18:28:08Z</time>
  <course>89.77</course>
  <speed>0.022360679774997897</speed>
  <fix>3d</fix>
</trkpt>
<trkpt lat="-35.3628806" lon="149.1652222">
  <ele>606.53</ele>
  <time>2026-08-27T18:28:08Z</time>
  <course>41.0</course>
  <speed>0.0</speed>
  <fix>3d</fix>
</trkpt>
<trkpt lat="-35.3628808" lon="149.1652222">
  <ele>607.62</ele>
  <time>2026-08-27T18:28:08Z</time>
  <course>89.87</course>
  <speed>0.022360679774997897</speed>
  <fix>3d</fix>
</trkpt>
<trkpt lat="-35.3628805" lon="149.1652222">
  <ele>607.04</ele>
  <time>2026-08-27T18:28:08Z</time>
  <course>73.88</course>
  <speed>0.0</speed>
  <fix>3d</fix>
</trkpt>
<trkpt lat="-35.3628808" lon="149.1652222">
  <ele>608.13</ele>
  <time>2026-08-27T18:28:08Z</time>
  <course>89.98</course>
  <speed>0.022360679774997897</speed>
  <fix>3d</fix>
</trkpt>
<trkpt lat="-35.3628805" lon="149.1652222">
  <ele>607.54</ele>
  <time>2026-08-27T18:28:08Z</time>
  <course>146.84</course>
  <speed>0.0</speed>
  <fix>3d</fix>
</trkpt>
<trkpt lat="-35.3628808" lon="149.1652222">
  <ele>608.63</ele>
  <time>2026-08-27T18:28:08Z</time>
  <course>90.07</course>
  <speed>0.0316227766016838</speed>
  <fix>3d</fix>
</trkpt>
<trkpt lat="-35.3628805" lon="149.1652222">
  <ele>608.04</ele>
  <time>2026-08-27T18:28:08Z</time>
  <course>173.09</course>
  <speed>0.0</speed>
  <fix>3d</fix>
</trkpt>
<trkpt lat="-35.3628808" lon="149.1652222">
  <ele>609.13</ele>
  <time>2026-08-27T18:28:08Z</time>
  <course>90.18</course>
  <speed>0.0316227766016838</speed>
  <fix>3d</fix>
</trkpt>
<trkpt lat="-35.3628805" lon="149.1652222">
  <ele>608.54</ele>
  <time>2026-08-27T18:28:08Z</time>
  <course>181.47</course>
  <speed>0.0</speed>
  <fix>3d</fix>
</trkpt>
<trkpt lat="-35.3628808" lon="149.1652222">
  <ele>609.64</ele>
  <time>2026-08-27T18:28:08Z</time>
  <course>90.26</course>
  <speed>0.0316227766016838</speed>
  <fix>3d</fix>
</trkpt>
<trkpt lat="-35.3628805" lon="149.1652222">
  <ele>609.04</ele>
  <time>2026-08-27T18:28:08Z</time>
  <course>183.15</course>
  <speed>0.0</speed>
  <fix>3d</fix>
</trkpt>
<trkpt lat="-35.3628808" lon="149.1652222">
  <ele>610.14</ele>
  <time>2026-08-27T18:28:08Z</time>
  <course>90.34</course>
  <speed>0.03605551275463989</speed>
  <fix>3d</fix>
</trkpt>
<trkpt lat="-35.3628805" lon="149.1652222">
  <ele>609.54</ele>
  <time>2026-08-27T18:28:08Z</time>
  <course>182.21</course>
  <speed>0.01</speed>
  <fix>3d</fix>
</trkpt>
<trkpt lat="-35.3628808" lon="149.1652221">
  <ele>610.63</ele>
  <time>2026-08-27T18:28:08Z</time>
  <course>90.45</course>
  <speed>0.0316227766016838</speed>
  <fix>3d</fix>
</trkpt>
<trkpt lat="-35.3628805" lon="149.1652222">
  <ele>610.04</ele>
  <time>2026-08-27T18:28:08Z</time>
  <course>180.13</course>
  <speed>0.01</speed>
  <fix>3d</fix>
</trkpt>
<trkpt lat="-35.3628808" lon="149.1652221">
  <ele>611.13</ele>
  <time>2026-08-27T18:28:08Z</time>
  <course>90.52</course>
  <speed>0.0412310562561766</speed>
  <fix>3d</fix>
</trkpt>
<trkpt lat="-35.3628806" lon="149.1652222">
  <ele>610.54</ele>
  <time>2026-08-27T18:28:08Z</time>
  <course>176.3</course>
  <speed>0.01</speed>
  <fix>3d</fix>
</trkpt>
<trkpt lat="-35.3628808" lon="149.1652221">
  <ele>611.63</ele>
  <time>2026-08-27T18:28:09Z</time>
  <course>90.58</course>
  <speed>0.0412310562561766</speed>
  <fix>3d</fix>
</trkpt>
<trkpt lat="-35.3628807" lon="149.1652222">
  <ele>611.04</ele>
  <time>2026-08-27T18:28:09Z</time>
  <course>172.44</course>
  <speed>0.01</speed>
  <fix>3d</fix>
</trkpt>
<trkpt lat="-35.3628808" lon="149.1652221">
  <ele>612.12</ele>
  <time>2026-08-27T18:28:09Z</time>
  <course>90.65</course>
  <speed>0.0412310562561766</speed>
  <fix>3d</fix>
</trkpt>
<trkpt lat="-35.3628807" lon="149.1652222">
  <ele>611.54</ele>
  <time>2026-08-27T18:28:09Z</time>
  <course>169.5</course>
  <speed>0.02</speed>
  <fix>3d</fix>
</trkpt>
<trkpt lat="-35.3628809" lon="149.1652221">
  <ele>612.62</ele>
  <time>2026-08-27T18:28:09Z</time>
  <course>90.69</course>
  <speed>0.0412310562561766</speed>
  <fix>3d</fix>
</trkpt>
<trkpt lat="-35.3628807" lon="149.1652222">
  <ele>612.04</ele>
  <time>2026-08-27T18:28:09Z</time>
  <course>166.79</course>
  <speed>0.02</speed>
  <fix>3d</fix>
</trkpt>
<trkpt lat="-35.3628809" lon="149.1652221">
  <ele>613.12</ele>
  <time>2026-08-27T18:28:09Z</time>
  <course>90.76</course>
  <speed>0.0316227766016838</speed>
  <fix>3d</fix>
</trkpt>
<trkpt lat="-35.3628808" lon="149.1652223">
  <ele>612.54</ele>
  <time>2026-08-27T18:28:09Z</time>
  <course>164.94</course>
  <speed>0.02</speed>
  <fix>3d</fix>
</trkpt>
<trkpt lat="-35.3628809" lon="149.1652221">
  <ele>613.62</ele>
  <time>2026-08-27T18:28:09Z</time>
  <course>90.86</course>
  <speed>0.0316227766016838</speed>
  <fix>3d</fix>
</trkpt>
<trkpt lat="-35.3628808" lon="149.1652224">
  <ele>613.04</ele>
  <time>2026-08-27T18:28:09Z</time>
  <course>164.88</course>
  <speed>0.01</speed>
  <fix>3d</fix>
</trkpt>
<trkpt lat="-35.362881" lon="149.1652222">
  <ele>614.11</ele>
  <time>2026-08-27T18:28:09Z</time>
  <course>90.9</course>
  <speed>0.0316227766016838</speed>
  <fix>3d</fix>
</trkpt>
<trkpt lat="-35.3628808" lon="149.1652224">
  <ele>613.54</ele>
  <time>2026-08-27T18:28:09Z</time>
  <course>167.02</course>
  <speed>0.01</speed>
  <fix>3d</fix>
</trkpt>
<trkpt lat="-35.362881" lon="149.1652222">
  <ele>614.61</ele>
  <time>2026-08-27T18:28:09Z</time>
  <course>90.96</course>
  <speed>0.0316227766016838</speed>
  <fix>3d</fix>
</trkpt>
<trkpt lat="-35.3628809" lon="149.1652224">
  <ele>614.04</ele>
  <time>2026-08-27T18:28:09Z</time>
  <course>170.8</course>
  <speed>0.01</speed>
  <fix>3d</fix>
</trkpt>
<trkpt lat="-35.362881" lon="149.1652222">
  <ele>615.11</ele>
  <time>2026-08-27T18:28:09Z</time>
  <course>91.02</course>
  <speed>0.03605551275463989</speed>
  <fix>3d</fix>
</trkpt>
<trkpt lat="-35.3628809" lon="149.1652224">
  <ele>614.54</ele>
  <time>2026-08-27T18:28:09Z</time>
  <course>176.25</course>
  <speed>0.01</speed>
  <fix>3d</fix>
</trkpt>
<trkpt lat="-35.362881" lon="149.1652222">
  <ele>615.61</ele>
  <time>2026-08-27T18:28:09Z</time>
  <course>91.1</course>
  <speed>0.0282842712474619</speed>
  <fix>3d</fix>
</trkpt>
<trkpt lat="-35.3628809" lon="149.1652224">
  <ele>615.05</ele>
  <time>2026-08-27T18:28:09Z</time>
  <course>185.11</course>
  <speed>0.01</speed>
  <fix>3d</fix>
</trkpt>
<trkpt lat="-35.362881" lon="149.1652222">
  <ele>616.11</ele>
  <time>2026-08-27T18:28:09Z</time>
  <course>91.13</course>
  <speed>0.0282842712474619</speed>
  <fix>3d</fix>
</trkpt>
<trkpt lat="-35.3628809" lon="149.1652224">
  <ele>615.55</ele>
  <time>2026-08-27T18:28:09Z</time>
  <course>196.02</course>
  <speed>0.0</speed>
  <fix>3d</fix>
</trkpt>
<trkpt lat="-35.362881" lon="149.1652222">
  <ele>616.62</ele>
  <time>2026-08-27T18:28:09Z</time>
  <course>91.21</course>
  <speed>0.0282842712474619</speed>
  <fix>3d</fix>
</trkpt>
<trkpt lat="-35.362881" lon="149.1652224">
  <ele>616.05</ele>
  <time>2026-08-27T18:28:09Z</time>
  <course>210.43</course>
  <speed>0.0</speed>
  <fix>3d</fix>
</trkpt>
<trkpt lat="-35.362881" lon="149.1652222">
  <ele>617.13</ele>
  <time>2026-08-27T18:28:09Z</time>
  <course>91.29</course>
  <speed>0.0282842712474619</speed>
  <fix>3d</fix>
</trkpt>
<trkpt lat="-35.362881" lon="149.1652224">
  <ele>616.56</ele>
  <time>2026-08-27T18:28:09Z</time>
  <course>231.49</course>
  <speed>0.0</speed>
  <fix>3d</fix>
</trkpt>
<trkpt lat="-35.3628811" lon="149.1652222">
  <ele>617.63</ele>
  <time>2026-08-27T18:28:09Z</time>
  <course>91.36</course>
  <speed>0.0282842712474619</speed>
  <fix>3d</fix>
</trkpt>
<trkpt lat="-35.362881" lon="149.1652224">
  <ele>617.06</ele>
  <time>2026-08-27T18:28:09Z</time>
  <course>249.61</course>
  <speed>0.0</speed>
  <fix>3d</fix>
</trkpt>
<trkpt lat="-35.3628811" lon="149.1652222">
  <ele>618.14</ele>
  <time>2026-08-27T18:28:09Z</time>
  <course>91.43</course>
  <speed>0.0282842712474619</speed>
  <fix>3d</fix>
</trkpt>
<trkpt lat="-35.362881" lon="149.1652224">
  <ele>617.57</ele>
  <time>2026-08-27T18:28:09Z</time>
  <course>261.28</course>
  <speed>0.0</speed>
  <fix>3d</fix>
</trkpt>
<trkpt lat="-35.3628811" lon="149.1652222">
  <ele>618.64</ele>
  <time>2026-08-27T18:28:09Z</time>
  <course>91.49</course>
  <speed>0.022360679774997897</speed>
  <fix>3d</fix>
</trkpt>
<trkpt lat="-35.362881" lon="149.1652224">
  <ele>618.07</ele>
  <time>2026-08-27T18:28:09Z</time>
  <course>269.12</course>
  <speed>0.0</speed>
  <fix>3d</fix>
</trkpt>
<trkpt lat="-35.3628811" lon="149.1652222">
  <ele>619.15</ele>
  <time>2026-08-27T18:28:09Z</time>
  <course>91.56</course>
  <speed>0.022360679774997897</speed>
  <fix>3d</fix>
</trkpt>
<trkpt lat="-35.362881" lon="149.1652224">
  <ele>618.57</ele>
  <time>2026-08-27T18:28:09Z</time>
  <course>276.31</course>
  <speed>0.01</speed>
  <fix>3d</fix>
</trkpt>
<trkpt lat="-35.3628811" lon="149.1652221">
  <ele>619.64</ele>
  <time>2026-08-27T18:28:09Z</time>
  <course>91.61</course>
  <speed>0.022360679774997897</speed>
  <fix>3d</fix>
</trkpt>
<trkpt lat="-35.362881" lon="149.1652224">
  <ele>619.07</ele>
  <time>2026-08-27T18:28:09Z</time>
  <course>282.81</course>
  <speed>0.01</speed>
  <fix>3d</fix>
</trkpt>
<trkpt lat="-35.3628811" lon="149.1652221">
  <ele>620.14</ele>
  <time>2026-08-27T18:28:09Z</time>
  <course>91.66</course>
  <speed>0.022360679774997897</speed>
  <fix>3d</fix>
</trkpt>
<trkpt lat="-35.362881" lon="149.1652223">
  <ele>619.57</ele>
  <time>2026-08-27T18:28:09Z</time>
  <course>288.51</course>
  <speed>0.01</speed>
  <fix>3d</fix>
</trkpt>
<trkpt lat="-35.3628811" lon="149.1652221">
  <ele>620.64</ele>
  <time>2026-08-27T18:28:09Z</time>
  <course>91.7</course>
  <speed>0.022360679774997897</speed>
  <fix>3d</fix>
</trkpt>
<trkpt lat="-35.362881" lon="149.1652222">
  <ele>620.06</ele>
  <time>2026-08-27T18:28:09Z</time>
  <course>293.37</course>
  <speed>0.0</speed>
  <fix>3d</fix>
</trkpt>
<trkpt lat="-35.3628811" lon="149.1652221">
  <ele>621.13</ele>
  <time>2026-08-27T18:28:09Z</time>
  <course>91.75</course>
  <speed>0.022360679774997897</speed>
  <fix>3d</fix>
</trkpt>
<trkpt lat="-35.362881" lon="149.1652222">
  <ele>620.56</ele>
  <time>2026-08-27T18:28:09Z</time>
  <course>296.28</course>
  <speed>0.0</speed>
  <fix>3d</fix>
</trkpt>
<trkpt lat="-35.3628811" lon="149.1652221">
  <ele>621.63</ele>
  <time>2026-08-27T18:28:09Z</time>
  <course>91.8</course>
  <speed>0.022360679774997897</speed>
  <fix>3d</fix>
</trkpt>
<trkpt lat="-35.362881" lon="149.1652222">
  <ele>621.06</ele>
  <time>2026-08-27T18:28:09Z</time>
  <course>298.6</course>
  <speed>0.0</speed>
  <fix>3d</fix>
</trkpt>
<trkpt lat="-35.362881" lon="149.1652221">
  <ele>622.13</ele>
  <time>2026-08-27T18:28:09Z</time>
  <course>91.85</course>
  <speed>0.022360679774997897</speed>
  <fix>3d</fix>
</trkpt>
<trkpt lat="-35.362881" lon="149.1652222">
  <ele>621.56</ele>
  <time>2026-08-27T18:28:09Z</time>
  <course>301.25</course>
  <speed>0.0</speed>
  <fix>3d</fix>
</trkpt>
<trkpt lat="-35.362881" lon="149.165222">
  <ele>622.63</ele>
  <time>2026-08-27T18:28:09Z</time>
  <course>91.88</course>
  <speed>0.022360679774997897</speed>
  <fix>3d</fix>
</trkpt>
<trkpt lat="-35.362881" lon="149.1652222">
  <ele>622.06</ele>
  <time>2026-08-27T18:28:09Z</time>
  <course>304.29</course>
  <speed>0.0</speed>
  <fix>3d</fix>
</trkpt>
<trkpt lat="-35.362881" lon="149.165222">
  <ele>623.13</ele>
  <time>2026-08-27T18:28:09Z</time>
  <course>91.92</course>
  <speed>0.022360679774997897</speed>
  <fix>3d</fix>
</trkpt>
<trkpt lat="-35.362881" lon="149.1652222">
  <ele>622.56</ele>
  <time>2026-08-27T18:28:09Z</time>
  <course>309.33</course>
  <speed>0.0</speed>
  <fix>3d</fix>
</trkpt>
<trkpt lat="-35.362881" lon="149.165222">
  <ele>623.62</ele>
  <time>2026-08-27T18:28:09Z</time>
  <course>91.97</course>
  <speed>0.022360679774997897</speed>
  <fix>3d</fix>
</trkpt>
<trkpt lat="-35.362881" lon="149.1652222">
  <ele>623.06</ele>
  <time>2026-08-27T18:28:09Z</time>
  <course>323.38</course>
  <speed>0.0</speed>
  <fix>3d</fix>
</trkpt>
<trkpt lat="-35.362881" lon="149.165222">
  <ele>624.12</ele>
  <time>2026-08-27T18:28:09Z</time>
  <course>92.01</course>
  <speed>0.022360679774997897</speed>
  <fix>3d</fix>
</trkpt>
<trkpt lat="-35.362881" lon="149.1652222">
  <ele>623.56</ele>
  <time>2026-08-27T18:28:09Z</time>
  <course>346.04</course>
  <speed>0.0</speed>
  <fix>3d</fix>
</trkpt>
<trkpt lat="-35.362881" lon="149.165222">
  <ele>624.62</ele>
  <time>2026-08-27T18:28:09Z</time>
  <course>92.06</course>
  <speed>0.01414213562373095</speed>
  <fix>3d</fix>
</trkpt>
<trkpt lat="-35.362881" lon="149.1652222">
  <ele>624.06</ele>
  <time>2026-08-27T18:28:09Z</time>
  <course>2.75</course>
  <speed>0.0</speed>
  <fix>3d</fix>
</trkpt>
<trkpt lat="-35.362881" lon="149.165222">
  <ele>625.12</ele>
  <time>2026-08-27T18:28:09Z</time>
  <course>92.11</course>
  <speed>0.01414213562373095</speed>
  <fix>3d</fix>
</trkpt>
<trkpt lat="-35.362881" lon="149.1652222">
  <ele>624.56</ele>
  <time>2026-08-27T18:28:09Z</time>
  <course>12.15</course>
  <speed>0.0</speed>
  <fix>3d</fix>
</trkpt>
<trkpt lat="-35.362881" lon="149.165222">
  <ele>625.63</ele>
  <time>2026-08-27T18:28:09Z</time>
  <course>92.12</course>
  <speed>0.01414213562373095</speed>
  <fix>3d</fix>
</trkpt>
<trkpt lat="-35.362881" lon="149.1652222">
  <ele>625.07</ele>
  <time>2026-08-27T18:28:09Z</time>
  <course>17.54</course>
  <speed>0.0</speed>
  <fix>3d</fix>
</trkpt>
<trkpt lat="-35.362881" lon="149.165222">
  <ele>626.13</ele>
  <time>2026-08-27T18:28:09Z</time>
  <course>92.19</course>
  <speed>0.01414213562373095</speed>
  <fix>3d</fix>
</trkpt>
<trkpt lat="-35.362881" lon="149.1652222">
  <ele>625.57</ele>
  <time>2026-08-27T18:28:09Z</time>
  <course>20.4</course>
  <speed>0.0</speed>
  <fix>3d</fix>
</trkpt>
<trkpt lat="-35.362881" lon="149.1652221">
  <ele>626.63</ele>
  <time>2026-08-27T18:28:09Z</time>
  <course>92.21</course>
  <speed>0.01414213562373095</speed>
  <fix>3d</fix>
</trkpt>
<trkpt lat="-35.362881" lon="149.1652222">
  <ele>626.07</ele>
  <time>2026-08-27T18:28:09Z</time>
  <course>24.83</course>
  <speed>0.0</speed>
  <fix>3d</fix>
</trkpt>
<trkpt lat="-35.362881" lon="149.1652221">
  <ele>627.13</ele>
  <time>2026-08-27T18:28:09Z</time>
  <course>92.26</course>
  <speed>0.01414213562373095</speed>
  <fix>3d</fix>
</trkpt>
<trkpt lat="-35.3628809" lon="149.1652222">
  <ele>626.57</ele>
  <time>2026-08-27T18:28:09Z</time>
  <course>28.86</course>
  <speed>0.0</speed>
  <fix>3d</fix>
</trkpt>
<trkpt lat="-35.362881" lon="149.1652221">
  <ele>627.63</ele>
  <time>2026-08-27T18:28:09Z</time>
  <course>92.31</course>
  <speed>0.01414213562373095</speed>
  <fix>3d</fix>
</trkpt>
<trkpt lat="-35.3628809" lon="149.1652222">
  <ele>627.07</ele>
  <time>2026-08-27T18:28:09Z</time>
  <course>29.22</course>
  <speed>0.0</speed>
  <fix>3d</fix>
</trkpt>
<trkpt lat="-35.362881" lon="149.1652221">
  <ele>628.13</ele>
  <time>2026-08-27T18:28:09Z</time>
  <course>92.33</course>
  <speed>0.01414213562373095</speed>
  <fix>3d</fix>
</trkpt>
<trkpt lat="-35.3628809" lon="149.1652222">
  <ele>627.57</ele>
  <time>2026-08-27T18:28:09Z</time>
  <course>30.63</course>
  <speed>0.0</speed>
  <fix>3d</fix>
</trkpt>
<trkpt lat="-35.362881" lon="149.1652221">
  <ele>628.64</ele>
  <time>2026-08-27T18:28:09Z</time>
  <course>92.37</course>
  <speed>0.01414213562373095</speed>
  <fix>3d</fix>
</trkpt>
<trkpt lat="-35.3628809" lon="149.1652222">
  <ele>628.08</ele>
  <time>2026-08-27T18:28:09Z</time>
  <course>36.55</course>
  <speed>0.0</speed>
  <fix>3d</fix>
</trkpt>
<trkpt lat="-35.362881" lon="149.1652221">
  <ele>629.14</ele>
  <time>2026-08-27T18:28:09Z</time>
  <course>92.43</course>
  <speed>0.01414213562373095</speed>
  <fix>3d</fix>
</trkpt>
<trkpt lat="-35.3628809" lon="149.1652222">
  <ele>628.58</ele>
  <time>2026-08-27T18:28:09Z</time>
  <course>42.95</course>
  <speed>0.0</speed>
  <fix>3d</fix>
</trkpt>
<trkpt lat="-35.362881" lon="149.1652221">
  <ele>629.64</ele>
  <time>2026-08-27T18:28:09Z</time>
  <course>92.47</course>
  <speed>0.01414213562373095</speed>
  <fix>3d</fix>
</trkpt>
<trkpt lat="-35.3628809" lon="149.1652222">
  <ele>629.08</ele>
  <time>2026-08-27T18:28:09Z</time>
  <course>47.63</course>
  <speed>0.0</speed>
  <fix>3d</fix>
</trkpt>
<trkpt lat="-35.362881" lon="149.1652221">
  <ele>630.15</ele>
  <time>2026-08-27T18:28:09Z</time>
  <course>92.5</course>
  <speed>0.01414213562373095</speed>
  <fix>3d</fix>
</trkpt>
<trkpt lat="-35.3628809" lon="149.1652222">
  <ele>629.58</ele>
  <time>2026-08-27T18:28:09Z</time>
  <course>57.1</course>
  <speed>0.0</speed>
  <fix>3d</fix>
</trkpt>
<trkpt lat="-35.362881" lon="149.1652221">
  <ele>630.65</ele>
  <time>2026-08-27T18:28:09Z</time>
  <course>92.55</course>
  <speed>0.01414213562373095</speed>
  <fix>3d</fix>
</trkpt>
<trkpt lat="-35.3628809" lon="149.1652222">
  <ele>630.08</ele>
  <time>2026-08-27T18:28:09Z</time>
  <course>67.16</course>
  <speed>0.0</speed>
  <fix>3d</fix>
</trkpt>
<trkpt lat="-35.362881" lon="149.1652221">
  <ele>631.14</ele>
  <time>2026-08-27T18:28:09Z</time>
  <course>92.59</course>
  <speed>0.01414213562373095</speed>
  <fix>3d</fix>
</trkpt>
<trkpt lat="-35.3628809" lon="149.1652222">
  <ele>630.58</ele>
  <time>2026-08-27T18:28:09Z</time>
  <course>81.3</course>
  <speed>0.0</speed>
  <fix>3d</fix>
</trkpt>
<trkpt lat="-35.362881" lon="149.1652221">
  <ele>631.64</ele>
  <time>2026-08-27T18:28:09Z</time>
  <course>92.61</course>
  <speed>0.01414213562373095</speed>
  <fix>3d</fix>
</trkpt>
<trkpt lat="-35.3628809" lon="149.1652222">
  <ele>631.08</ele>
  <time>2026-08-27T18:28:09Z</time>
  <course>97.66</course>
  <speed>0.0</speed>
  <fix>3d</fix>
</trkpt>
<trkpt lat="-35.362881" lon="149.1652221">
  <ele>632.14</ele>
  <time>2026-08-27T18:28:09Z</time>
  <course>92.64</course>
  <speed>0.022360679774997897</speed>
  <fix>3d</fix>
</trkpt>
<trkpt lat="-35.3628809" lon="149.1652222">
  <ele>631.57</ele>
  <time>2026-08-27T18:28:09Z</time>
  <course>107.21</course>
  <speed>0.0</speed>
  <fix>3d</fix>
</trkpt>
<trkpt lat="-35.362881" lon="149.1652221">
  <ele>632.64</ele>
  <time>2026-08-27T18:28:09Z</time>
  <course>92.67</course>
  <speed>0.0282842712474619</speed>
  <fix>3d</fix>
</trkpt>
<trkpt lat="-35.3628809" lon="149.1652222">
  <ele>632.07</ele>
  <time>2026-08-27T18:28:09Z</time>
  <course>112.51</course>
  <speed>0.0</speed>
  <fix>3d</fix>
</trkpt>
<trkpt lat="-35.362881" lon="149.1652221">
  <ele>633.14</ele>
  <time>2026-08-27T18:28:09Z</time>
  <course>92.7</course>
  <speed>0.022360679774997897</speed>
  <fix>3d</fix>
</trkpt>
<trkpt lat="-35.3628809" lon="149.1652222">
  <ele>632.57</ele>
  <time>2026-08-27T18:28:09Z</time>
  <course>117.65</course>
  <speed>0.0</speed>
  <fix>3d</fix>
</trkpt>
<trkpt lat="-35.362881" lon="149.1652221">
  <ele>633.64</ele>
  <time>2026-08-27T18:28:09Z</time>
  <course>92.72</course>
  <speed>0.022360679774997897</speed>
  <fix>3d</fix>
</trkpt>
<trkpt lat="-35.3628809" lon="149.1652222">
  <ele>633.07</ele>
  <time>2026-08-27T18:28:09Z</time>
  <course>123.05</course>
  <speed>0.0</speed>
  <fix>3d</fix>
</trkpt>
<trkpt lat="-35.362881" lon="149.1652221">
  <ele>634.14</ele>
  <time>2026-08-27T18:28:09Z</time>
  <course>92.75</course>
  <speed>0.022360679774997897</speed>
  <fix>3d</fix>
</trkpt>
<trkpt lat="-35.3628809" lon="149.1652222">
  <ele>633.57</ele>
  <time>2026-08-27T18:28:09Z</time>
  <course>127.69</course>
  <speed>0.0</speed>
  <fix>3d</fix>
</trkpt>
<trkpt lat="-35.362881" lon="149.1652221">
  <ele>634.64</ele>
  <time>2026-08-27T18:28:09Z</time>
  <course>92.78</course>
  <speed>0.022360679774997897</speed>
  <fix>3d</fix>
</trkpt>
<trkpt lat="-35.3628809" lon="149.1652222">
  <ele>634.07</ele>
  <time>2026-08-27T18:28:09Z</time>
  <course>131.73</course>
  <speed>0.0</speed>
  <fix>3d</fix>
</trkpt>
<trkpt lat="-35.362881" lon="149.1652221">
  <ele>635.13</ele>
  <time>2026-08-27T18:28:09Z</time>
  <course>92.8</course>
  <speed>0.022360679774997897</speed>
  <fix>3d</fix>
</trkpt>
<trkpt lat="-35.3628809" lon="149.1652222">
  <ele>634.57</ele>
  <time>2026-08-27T18:28:09Z</time>
  <course>135.22</course>
  <speed>0.0</speed>
  <fix>3d</fix>
</trkpt>
<trkpt lat="-35.362881" lon="149.1652221">
  <ele>635.63</ele>
  <time>2026-08-27T18:28:09Z</time>
  <course>92.83</course>
  <speed>0.022360679774997897</speed>
  <fix>3d</fix>
</trkpt>
<trkpt lat="-35.3628809" lon="149.1652222">
  <ele>635.06</ele>
  <time>2026-08-27T18:28:09Z</time>
  <course>137.99</course>
  <speed>0.0</speed>
  <fix>3d</fix>
</trkpt>
<trkpt lat="-35.362881" lon="149.1652221">
  <ele>636.12</ele>
  <time>2026-08-27T18:28:09Z</time>
  <course>92.85</course>
  <speed>0.022360679774997897</speed>
  <fix>3d</fix>
</trkpt>
<trkpt lat="-35.3628809" lon="149.1652222">
  <ele>635.56</ele>
  <time>2026-08-27T18:28:09Z</time>
  <course>140.3</course>
  <speed>0.0</speed>
  <fix>3d</fix>
</trkpt>
<trkpt lat="-35.362881" lon="149.1652221">
  <ele>636.61</ele>
  <time>2026-08-27T18:28:09Z</time>
  <course>92.85</course>
  <speed>0.022360679774997897</speed>
  <fix>3d</fix>
</trkpt>
<trkpt lat="-35.3628809" lon="149.1652222">
  <ele>636.06</ele>
  <time>2026-08-27T18:28:09Z</time>
  <course>141.27</course>
  <speed>0.0</speed>
  <fix>3d</fix>
</trkpt>
<trkpt lat="-35.362881" lon="149.1652221">
  <ele>637.11</ele>
  <time>2026-08-27T18:28:09Z</time>
  <course>92.85</course>
  <speed>0.022360679774997897</speed>
  <fix>3d</fix>
</trkpt>
<trkpt lat="-35.3628809" lon="149.1652222">
  <ele>636.56</ele>
  <time>2026-08-27T18:28:09Z</time>
  <course>140.47</course>
  <speed>0.0</speed>
  <fix>3d</fix>
</trkpt>
<trkpt lat="-35.362881" lon="149.1652221">
  <ele>637.62</ele>
  <time>2026-08-27T18:28:09Z</time>
  <course>92.9</course>
  <speed>0.022360679774997897</speed>
  <fix>3d</fix>
</trkpt>
<trkpt lat="-35.3628809" lon="149.1652222">
  <ele>637.07</ele>
  <time>2026-08-27T18:28:09Z</time>
  <course>138.39</course>
  <speed>0.0</speed>
  <fix>3d</fix>
</trkpt>
<trkpt lat="-35.362881" lon="149.1652221">
  <ele>638.12</ele>
  <time>2026-08-27T18:28:09Z</time>
  <course>92.92</course>
  <speed>0.022360679774997897</speed>
  <fix>3d</fix>
</trkpt>
<trkpt lat="-35.3628809" lon="149.1652222">
  <ele>637.57</ele>
  <time>2026-08-27T18:28:09Z</time>
  <course>135.97</course>
  <speed>0.0</speed>
  <fix>3d</fix>
</trkpt>
<trkpt lat="-35.362881" lon="149.1652221">
  <ele>638.62</ele>
  <time>2026-08-27T18:28:09Z</time>
  <course>92.96</course>
  <speed>0.022360679774997897</speed>
  <fix>3d</fix>
</trkpt>
<trkpt lat="-35.3628809" lon="149.1652222">
  <ele>638.07</ele>
  <time>2026-08-27T18:28:09Z</time>
  <course>135.48</course>
  <speed>0.0</speed>
  <fix>3d</fix>
</trkpt>
<trkpt lat="-35.362881" lon="149.1652221">
  <ele>639.12</ele>
  <time>2026-08-27T18:28:09Z</time>
  <course>93.0</course>
  <speed>0.022360679774997897</speed>
  <fix>3d</fix>
</trkpt>
<trkpt lat="-35.3628809" lon="149.1652222">
  <ele>638.58</ele>
  <time>2026-08-27T18:28:09Z</time>
  <course>137.0</course>
  <speed>0.0</speed>
  <fix>3d</fix>
</trkpt>
<trkpt lat="-35.362881" lon="149.1652221">
  <ele>639.63</ele>
  <time>2026-08-27T18:28:09Z</time>
  <course>93.02</course>
  <speed>0.022360679774997897</speed>
  <fix>3d</fix>
</trkpt>
<trkpt lat="-35.3628809" lon="149.1652223">
  <ele>639.08</ele>
  <time>2026-08-27T18:28:09Z</time>
  <course>139.84</course>
  <speed>0.0</speed>
  <fix>3d</fix>
</trkpt>
<trkpt lat="-35.362881" lon="149.1652221">
  <ele>640.12</ele>
  <time>2026-08-27T18:28:09Z</time>
  <course>93.05</course>
  <speed>0.022360679774997897</speed>
  <fix>3d</fix>
</trkpt>
<trkpt lat="-35.3628809" lon="149.1652224">
  <ele>639.59</ele>
  <time>2026-08-27T18:28:09Z</time>
  <course>142.93</course>
  <speed>0.0</speed>
  <fix>3d</fix>
</trkpt>
<trkpt lat="-35.362881" lon="149.1652221">
  <ele>640.62</ele>
  <time>2026-08-27T18:28:09Z</time>
  <course>93.06</course>
  <speed>0.022360679774997897</speed>
  <fix>3d</fix>
</trkpt>
<trkpt lat="-35.3628809" lon="149.1652224">
  <ele>640.09</ele>
  <time>2026-08-27T18:28:09Z</time>
  <course>144.89</course>
  <speed>0.0</speed>
  <fix>3d</fix>
</trkpt>
<trkpt lat="-35.362881" lon="149.1652221">
  <ele>641.13</ele>
  <time>2026-08-27T18:28:09Z</time>
  <course>93.09</course>
  <speed>0.022360679774997897</speed>
  <fix>3d</fix>
</trkpt>
<trkpt lat="-35.3628809" lon="149.1652224">
  <ele>640.59</ele>
  <time>2026-08-27T18:28:09Z</time>
  <course>149.59</course>
  <speed>0.0</speed>
  <fix>3d</fix>
</trkpt>
<trkpt lat="-35.362881" lon="149.1652221">
  <ele>641.63</ele>
  <time>2026-08-27T18:28:09Z</time>
  <course>93.1</course>
  <speed>0.022360679774997897</speed>
  <fix>3d</fix>
</trkpt>
<trkpt lat="-35.3628809" lon="149.1652224">
  <ele>641.09</ele>
  <time>2026-08-27T18:28:09Z</time>
  <course>159.03</course>
  <speed>0.0</speed>
  <fix>3d</fix>
</trkpt>
<trkpt lat="-35.362881" lon="149.1652221">
  <ele>642.13</ele>
  <time>2026-08-27T18:28:09Z</time>
  <course>93.15</course>
  <speed>0.022360679774997897</speed>
  <fix>3d</fix>
</trkpt>
<trkpt lat="-35.3628809" lon="149.1652224">
  <ele>641.6</ele>
  <time>2026-08-27T18:28:09Z</time>
  <course>174.24</course>
  <speed>0.0</speed>
  <fix>3d</fix>
</trkpt>
<trkpt lat="-35.362881" lon="149.1652221">
  <ele>642.64</ele>
  <time>2026-08-27T18:28:09Z</time>
  <course>93.18</course>
  <speed>0.022360679774997897</speed>
  <fix>3d</fix>
</trkpt>
<trkpt lat="-35.3628809" lon="149.1652224">
  <ele>642.1</ele>
  <time>2026-08-27T18:28:09Z</time>
  <course>190.64</course>
  <speed>0.0</speed>
  <fix>3d</fix>
</trkpt>
<trkpt lat="-35.362881" lon="149.1652221">
  <ele>643.14</ele>
  <time>2026-08-27T18:28:09Z</time>
  <course>93.2</course>
  <speed>0.022360679774997897</speed>
  <fix>3d</fix>
</trkpt>
<trkpt lat="-35.3628809" lon="149.1652224">
  <ele>642.6</ele>
  <time>2026-08-27T18:28:09Z</time>
  <course>203.96</course>
  <speed>0.0</speed>
  <fix>3d</fix>
</trkpt>
<trkpt lat="-35.362881" lon="149.1652221">
  <ele>643.65</ele>
  <time>2026-08-27T18:28:09Z</time>
  <course>93.23</course>
  <speed>0.022360679774997897</speed>
  <fix>3d</fix>
</trkpt>
<trkpt lat="-35.3628809" lon="149.1652224">
  <ele>643.1</ele>
  <time>2026-08-27T18:28:09Z</time>
  <course>215.69</course>
  <speed>0.0</speed>
  <fix>3d</fix>
</trkpt>
<trkpt lat="-35.362881" lon="149.1652221">
  <ele>644.15</ele>
  <time>2026-08-27T18:28:09Z</time>
  <course>93.25</course>
  <speed>0.022360679774997897</speed>
  <fix>3d</fix>
</trkpt>
<trkpt lat="-35.362881" lon="149.1652224">
  <ele>643.6</ele>
  <time>2026-08-27T18:28:09Z</time>
  <course>225.46</course>
  <speed>0.0</speed>
  <fix>3d</fix>
</trkpt>
<trkpt lat="-35.362881" lon="149.1652221">
  <ele>644.66</ele>
  <time>2026-08-27T18:28:09Z</time>
  <course>93.27</course>
  <speed>0.022360679774997897</speed>
  <fix>3d</fix>
</trkpt>
<trkpt lat="-35.362881" lon="149.1652224">
  <ele>644.1</ele>
  <time>2026-08-27T18:28:09Z</time>
  <course>231.06</course>
  <speed>0.0</speed>
  <fix>3d</fix>
</trkpt>
<trkpt lat="-35.362881" lon="149.1652221">
  <ele>645.16</ele>
  <time>2026-08-27T18:28:09Z</time>
  <course>93.33</course>
  <speed>0.022360679774997897</speed>
  <fix>3d</fix>
</trkpt>
<trkpt lat="-35.362881" lon="149.1652224">
  <ele>644.6</ele>
  <time>2026-08-27T18:28:09Z</time>
  <course>232.6</course>
  <speed>0.0</speed>
  <fix>3d</fix>
</trkpt>
<trkpt lat="-35.362881" lon="149.1652221">
  <ele>645.66</ele>
  <time>2026-08-27T18:28:09Z</time>
  <course>93.37</course>
  <speed>0.022360679774997897</speed>
  <fix>3d</fix>
</trkpt>
<trkpt lat="-35.362881" lon="149.1652224">
  <ele>645.1</ele>
  <time>2026-08-27T18:28:09Z</time>
  <course>233.31</course>
  <speed>0.0</speed>
  <fix>3d</fix>
</trkpt>
<trkpt lat="-35.3628811" lon="149.1652221">
  <ele>646.16</ele>
  <time>2026-08-27T18:28:09Z</time>
  <course>93.38</course>
  <speed>0.022360679774997897</speed>
  <fix>3d</fix>
</trkpt>
<trkpt lat="-35.362881" lon="149.1652224">
  <ele>645.59</ele>
  <time>2026-08-27T18:28:09Z</time>
  <course>235.89</course>
  <speed>0.0</speed>
  <fix>3d</fix>
</trkpt>
<trkpt lat="-35.3628811" lon="149.1652221">
  <ele>646.66</ele>
  <time>2026-08-27T18:28:09Z</time>
  <course>93.36</course>
  <speed>0.022360679774997897</speed>
  <fix>3d</fix>
</trkpt>
<trkpt lat="-35.362881" lon="149.1652224">
  <ele>646.08</ele>
  <time>2026-08-27T18:28:09Z</time>
  <course>239.58</course>
  <speed>0.0</speed>
  <fix>3d</fix>
</trkpt>
<trkpt lat="-35.3628811" lon="149.1652221">
  <ele>647.15</ele>
  <time>2026-08-27T18:28:09Z</time>
  <course>93.38</course>
  <speed>0.022360679774997897</speed>
  <fix>3d</fix>
</trkpt>
<trkpt lat="-35.362881" lon="149.1652224">
  <ele>646.58</ele>
  <time>2026-08-27T18:28:09Z</time>
  <course>244.28</course>
  <speed>0.0</speed>
  <fix>3d</fix>
</trkpt>
<trkpt lat="-35.3628811" lon="149.1652221">
  <ele>647.64</ele>
  <time>2026-08-27T18:28:09Z</time>
  <course>93.37</course>
  <speed>0.022360679774997897</speed>
  <fix>3d</fix>
</trkpt>
<trkpt lat="-35.362881" lon="149.1652223">
  <ele>647.07</ele>
  <time>2026-08-27T18:28:09Z</time>
  <course>249.13</course>
  <speed>0.0</speed>
  <fix>3d</fix>
</trkpt>
<trkpt lat="-35.3628811" lon="149.1652221">
  <ele>648.15</ele>
  <time>2026-08-27T18:28:09Z</time>
  <course>93.39</course>
  <speed>0.022360679774997897</speed>
  <fix>3d</fix>
</trkpt>
<trkpt lat="-35.362881" lon="149.1652222">
  <ele>647.57</ele>
  <time>2026-08-27T18:28:09Z</time>
  <course>254.08</course>
  <speed>0.0</speed>
  <fix>3d</fix>
</trkpt>
<trkpt lat="-35.3628811" lon="149.1652221">
  <ele>648.65</ele>
  <time>2026-08-27T18:28:09Z</time>
  <course>93.41</course>
  <speed>0.022360679774997897</speed>
  <fix>3d</fix>
</trkpt>
<trkpt lat="-35.362881" lon="149.1652222">
  <ele>648.07</ele>
  <time>2026-08-27T18:28:09Z</time>
  <course>258.66</course>
  <speed>0.0</speed>
  <fix>3d</fix>
</trkpt>
<trkpt lat="-35.3628811" lon="149.1652221">
  <ele>649.15</ele>
  <time>2026-08-27T18:28:09Z</time>
  <course>93.44</course>
  <speed>0.022360679774997897</speed>
  <fix>3d</fix>
</trkpt>
<trkpt lat="-35.362881" lon="149.1652222">
  <ele>648.56</ele>
  <time>2026-08-27T18:28:09Z</time>
  <course>261.57</course>
  <speed>0.0</speed>
  <fix>3d</fix>
</trkpt>
<trkpt lat="-35.3628811" lon="149.165222">
  <ele>649.64</ele>
  <time>2026-08-27T18:28:09Z</time>
  <course>93.45</course>
  <speed>0.022360679774997897</speed>
  <fix>3d</fix>
</trkpt>
<trkpt lat="-35.362881" lon="149.1652222">
  <ele>649.06</ele>
  <time>2026-08-27T18:28:09Z</time>
  <course>265.1</course>
  <speed>0.0</speed>
  <fix>3d</fix>
</trkpt>
<trkpt lat="-35.3628811" lon="149.165222">
  <ele>650.14</ele>
  <time>2026-08-27T18:28:09Z</time>
  <course>93.47</course>
  <speed>0.022360679774997897</speed>
  <fix>3d</fix>
</trkpt>
<trkpt lat="-35.362881" lon="149.1652222">
  <ele>649.56</ele>
  <time>2026-08-27T18:28:09Z</time>
  <course>271.76</course>
  <speed>0.0</speed>
  <fix>3d</fix>
</trkpt>
<trkpt lat="-35.3628811" lon="149.165222">
  <ele>650.64</ele>
  <time>2026-08-27T18:28:09Z</time>
  <course>93.47</course>
  <speed>0.022360679774997897</speed>
  <fix>3d</fix>
</trkpt>
<trkpt lat="-35.362881" lon="149.1652222">
  <ele>650.06</ele>
  <time>2026-08-27T18:28:09Z</time>
  <course>277.52</course>
  <speed>0.0</speed>
  <fix>3d</fix>
</trkpt>
<trkpt lat="-35.3628811" lon="149.165222">
  <ele>651.13</ele>
  <time>2026-08-27T18:28:09Z</time>
  <course>93.48</course>
  <speed>0.022360679774997897</speed>
  <fix>3d</fix>
</trkpt>
<trkpt lat="-35.362881" lon="149.1652222">
  <ele>650.55</ele>
  <time>2026-08-27T18:28:09Z</time>
  <course>285.9</course>
  <speed>0.0</speed>
  <fix>3d</fix>
</trkpt>
<trkpt lat="-35.3628811" lon="149.165222">
  <ele>651.63</ele>
  <time>2026-08-27T18:28:09Z</time>
  <course>93.49</course>
  <speed>0.022360679774997897</speed>
  <fix>3d</fix>
</trkpt>
<trkpt lat="-35.362881" lon="149.1652222">
  <ele>651.05</ele>
  <time>2026-08-27T18:28:09Z</time>
  <course>303.47</course>
  <speed>0.0</speed>
  <fix>3d</fix>
</trkpt>
<trkpt lat="-35.3628811" lon="149.165222">
  <ele>652.12</ele>
  <time>2026-08-27T18:28:09Z</time>
  <course>93.5</course>
  <speed>0.022360679774997897</speed>
  <fix>3d</fix>
</trkpt>
<trkpt lat="-35.362881" lon="149.1652222">
  <ele>651.55</ele>
  <time>2026-08-27T18:28:09Z</time>
  <course>323.21</course>
  <speed>0.0</speed>
  <fix>3d</fix>
</trkpt>
<trkpt lat="-35.3628811" lon="149.165222">
  <ele>652.62</ele>
  <time>2026-08-27T18:28:09Z</time>
  <course>93.52</course>
  <speed>0.022360679774997897</speed>
  <fix>3d</fix>
</trkpt>
<trkpt lat="-35.362881" lon="149.1652222">
  <ele>652.05</ele>
  <time>2026-08-27T18:28:09Z</time>
  <course>338.98</course>
  <speed>0.0</speed>
  <fix>3d</fix>
</trkpt>
<trkpt lat="-35.3628811" lon="149.165222">
  <ele>653.13</ele>
  <time>2026-08-27T18:28:09Z</time>
  <course>93.49</course>
  <speed>0.022360679774997897</speed>
  <fix>3d</fix>
</trkpt>
<trkpt lat="-35.362881" lon="149.1652222">
  <ele>652.55</ele>
  <time>2026-08-27T18:28:09Z</time>
  <course>347.27</course>
  <speed>0.0</speed>
  <fix>3d</fix>
</trkpt>
<trkpt lat="-35.3628811" lon="149.165222">
  <ele>653.63</ele>
  <time>2026-08-27T18:28:09Z</time>
  <course>93.53</course>
  <speed>0.022360679774997897</speed>
  <fix>3d</fix>
</trkpt>
<trkpt lat="-35.362881" lon="149.1652222">
  <ele>653.05</ele>
  <time>2026-08-27T18:28:09Z</time>
  <course>358.66</course>
  <speed>0.0</speed>
  <fix>3d</fix>
</trkpt>
<trkpt lat="-35.3628811" lon="149.165222">
  <ele>654.13</ele>
  <time>2026-08-27T18:28:09Z</time>
  <course>93.54</course>
  <speed>0.022360679774997897</speed>
  <fix>3d</fix>
</trkpt>
<trkpt lat="-35.362881" lon="149.1652222">
  <ele>653.55</ele>
  <time>2026-08-27T18:28:09Z</time>
  <course>9.26</course>
  <speed>0.0</speed>
  <fix>3d</fix>
</trkpt>
<trkpt lat="-35.3628811" lon="149.165222">
  <ele>654.64</ele>
  <time>2026-08-27T18:28:09Z</time>
  <course>93.57</course>
  <speed>0.022360679774997897</speed>
  <fix>3d</fix>
</trkpt>
<trkpt lat="-35.362881" lon="149.1652222">
  <ele>654.05</ele>
  <time>2026-08-27T18:28:09Z</time>
  <course>12.56</course>
  <speed>0.0</speed>
  <fix>3d</fix>
</trkpt>
<trkpt lat="-35.3628811" lon="149.165222">
  <ele>655.14</ele>
  <time>2026-08-27T18:28:09Z</time>
  <course>93.58</course>
  <speed>0.022360679774997897</speed>
  <fix>3d</fix>
</trkpt>
<trkpt lat="-35.362881" lon="149.1652222">
  <ele>654.55</ele>
  <time>2026-08-27T18:28:09Z</time>
  <course>12.58</course>
  <speed>0.0</speed>
  <fix>3d</fix>
</trkpt>
<trkpt lat="-35.3628811" lon="149.165222">
  <ele>655.65</ele>
  <time>2026-08-27T18:28:09Z</time>
  <course>93.6</course>
  <speed>0.022360679774997897</speed>
  <fix>3d</fix>
</trkpt>
<trkpt lat="-35.362881" lon="149.1652222">
  <ele>655.05</ele>
  <time>2026-08-27T18:28:09Z</time>
  <course>15.7</course>
  <speed>0.0</speed>
  <fix>3d</fix>
</trkpt>
<trkpt lat="-35.3628811" lon="149.165222">
  <ele>656.16</ele>
  <time>2026-08-27T18:28:09Z</time>
  <course>93.66</course>
  <speed>0.022360679774997897</speed>
  <fix>3d</fix>
</trkpt>
<trkpt lat="-35.362881" lon="149.1652222">
  <ele>655.55</ele>
  <time>2026-08-27T18:28:09Z</time>
  <course>22.49</course>
  <speed>0.0</speed>
  <fix>3d</fix>
</trkpt>
<trkpt lat="-35.3628811" lon="149.165222">
  <ele>656.66</ele>
  <time>2026-08-27T18:28:09Z</time>
  <course>93.69</course>
  <speed>0.01414213562373095</speed>
  <fix>3d</fix>
</trkpt>
<trkpt lat="-35.362881" lon="149.1652222">
  <ele>656.05</ele>
  <time>2026-08-27T18:28:09Z</time>
  <course>36.74</course>
  <speed>0.0</speed>
  <fix>3d</fix>
</trkpt>
<trkpt lat="-35.3628811" lon="149.165222">
  <ele>657.15</ele>
  <time>2026-08-27T18:28:09Z</time>
  <course>93.69</course>
  <speed>0.01414213562373095</speed>
  <fix>3d</fix>
</trkpt>
<trkpt lat="-35.362881" lon="149.1652222">
  <ele>656.54</ele>
  <time>2026-08-27T18:28:09Z</time>
  <course>56.55</course>
  <speed>0.0</speed>
  <fix>3d</fix>
</trkpt>
<trkpt lat="-35.3628811" lon="149.165222">
  <ele>657.65</ele>
  <time>2026-08-27T18:28:09Z</time>
  <course>93.67</course>
  <speed>0.01414213562373095</speed>
  <fix>3d</fix>
</trkpt>
<trkpt lat="-35.362881" lon="149.1652222">
  <ele>657.04</ele>
  <time>2026-08-27T18:28:09Z</time>
  <course>67.84</course>
  <speed>0.0</speed>
  <fix>3d</fix>
</trkpt>
<trkpt lat="-35.3628811" lon="149.165222">
  <ele>658.15</ele>
  <time>2026-08-27T18:28:09Z</time>
  <course>93.7</course>
  <speed>0.022360679774997897</speed>
  <fix>3d</fix>
</trkpt>
<trkpt lat="-35.362881" lon="149.1652222">
  <ele>657.53</ele>
  <time>2026-08-27T18:28:09Z</time>
  <course>68.1</course>
  <speed>0.0</speed>
  <fix>3d</fix>
</trkpt>
<trkpt lat="-35.3628811" lon="149.165222">
  <ele>658.65</ele>
  <time>2026-08-27T18:28:09Z</time>
  <course>93.7</course>
  <speed>0.022360679774997897</speed>
  <fix>3d</fix>
</trkpt>
<trkpt lat="-35.362881" lon="149.1652222">
  <ele>658.02</ele>
  <time>2026-08-27T18:28:09Z</time>
  <course>69.5</course>
  <speed>0.0</speed>
  <fix>3d</fix>
</trkpt>
<trkpt lat="-35.3628811" lon="149.165222">
  <ele>659.14</ele>
  <time>2026-08-27T18:28:09Z</time>
  <course>93.69</course>
  <speed>0.022360679774997897</speed>
  <fix>3d</fix>
</trkpt>
<trkpt lat="-35.362881" lon="149.1652222">
  <ele>658.52</ele>
  <time>2026-08-27T18:28:09Z</time>
  <course>73.07</course>
  <speed>0.0</speed>
  <fix>3d</fix>
</trkpt>
<trkpt lat="-35.3628811" lon="149.165222">
  <ele>659.63</ele>
  <time>2026-08-27T18:28:09Z</time>
  <course>93.69</course>
  <speed>0.022360679774997897</speed>
  <fix>3d</fix>
</trkpt>
<trkpt lat="-35.362881" lon="149.1652222">
  <ele>659.02</ele>
  <time>2026-08-27T18:28:09Z</time>
  <course>73.37</course>
  <speed>0.0</speed>
  <fix>3d</fix>
</trkpt>
<trkpt lat="-35.3628811" lon="149.165222">
  <ele>660.11</ele>
  <time>2026-08-27T18:28:09Z</time>
  <course>93.68</course>
  <speed>0.022360679774997897</speed>
  <fix>3d</fix>
</trkpt>
<trkpt lat="-35.362881" lon="149.1652222">
  <ele>659.51</ele>
  <time>2026-08-27T18:28:09Z</time>
  <course>74.79</course>
  <speed>0.0</speed>
  <fix>3d</fix>
</trkpt>
<trkpt lat="-35.3628811" lon="149.165222">
  <ele>660.6</ele>
  <time>2026-08-27T18:28:09Z</time>
  <course>93.65</course>
  <speed>0.022360679774997897</speed>
  <fix>3d</fix>
</trkpt>
<trkpt lat="-35.362881" lon="149.1652222">
  <ele>660.01</ele>
  <time>2026-08-27T18:28:09Z</time>
  <course>73.84</course>
  <speed>0.0</speed>
  <fix>3d</fix>
</trkpt>
<trkpt lat="-35.3628811" lon="149.165222">
  <ele>661.11</ele>
  <time>2026-08-27T18:28:09Z</time>
  <course>93.64</course>
  <speed>0.022360679774997897</speed>
  <fix>3d</fix>
</trkpt>
<trkpt lat="-35.362881" lon="149.1652222">
  <ele>660.51</ele>
  <time>2026-08-27T18:28:09Z</time>
  <course>61.04</course>
  <speed>0.0</speed>
  <fix>3d</fix>
</trkpt>
<trkpt lat="-35.3628811" lon="149.165222">
  <ele>661.61</ele>
  <time>2026-08-27T18:28:09Z</time>
  <course>93.65</course>
  <speed>0.022360679774997897</speed>
  <fix>3d</fix>
</trkpt>
<trkpt lat="-35.362881" lon="149.1652222">
  <ele>661.02</ele>
  <time>2026-08-27T18:28:09Z</time>
  <course>39.55</course>
  <speed>0.0</speed>
  <fix>3d</fix>
</trkpt>
<trkpt lat="-35.3628811" lon="149.165222">
  <ele>662.11</ele>
  <time>2026-08-27T18:28:09Z</time>
  <course>93.67</course>
  <speed>0.022360679774997897</speed>
  <fix>3d</fix>
</trkpt>
<trkpt lat="-35.362881" lon="149.1652222">
  <ele>661.52</ele>
  <time>2026-08-27T18:28:09Z</time>
  <course>26.74</course>
  <speed>0.0</speed>
  <fix>3d</fix>
</trkpt>
<trkpt lat="-35.3628811" lon="149.165222">
  <ele>662.61</ele>
  <time>2026-08-27T18:28:09Z</time>
  <course>93.7</course>
  <speed>0.022360679774997897</speed>
  <fix>3d</fix>
</trkpt>
<trkpt lat="-35.362881" lon="149.1652222">
  <ele>662.02</ele>
  <time>2026-08-27T18:28:09Z</time>
  <course>25.39</course>
  <speed>0.0</speed>
  <fix>3d</fix>
</trkpt>
<trkpt lat="-35.3628811" lon="149.165222">
  <ele>663.11</ele>
  <time>2026-08-27T18:28:09Z</time>
  <course>93.73</course>
  <speed>0.022360679774997897</speed>
  <fix>3d</fix>
</trkpt>
<trkpt lat="-35.362881" lon="149.1652222">
  <ele>662.53</ele>
  <time>2026-08-27T18:28:09Z</time>
  <course>28.12</course>
  <speed>0.0</speed>
  <fix>3d</fix>
</trkpt>
<trkpt lat="-35.3628811" lon="149.165222">
  <ele>663.62</ele>
  <time>2026-08-27T18:28:09Z</time>
  <course>93.75</course>
  <speed>0.022360679774997897</speed>
  <fix>3d</fix>
</trkpt>
<trkpt lat="-35.362881" lon="149.1652222">
  <ele>663.03</ele>
  <time>2026-08-27T18:28:09Z</time>
  <course>30.09</course>
  <speed>0.0</speed>
  <fix>3d</fix>
</trkpt>
<trkpt lat="-35.3628811" lon="149.165222">
  <ele>664.12</ele>
  <time>2026-08-27T18:28:09Z</time>
  <course>93.74</course>
  <speed>0.022360679774997897</speed>
  <fix>3d</fix>
</trkpt>
<trkpt lat="-35.362881" lon="149.1652222">
  <ele>663.54</ele>
  <time>2026-08-27T18:28:09Z</time>
  <course>32.6</course>
  <speed>0.0</speed>
  <fix>3d</fix>
</trkpt>
<trkpt lat="-35.3628811" lon="149.165222">
  <ele>664.63</ele>
  <time>2026-08-27T18:28:09Z</time>
  <course>93.77</course>
  <speed>0.022360679774997897</speed>
  <fix>3d</fix>
</trkpt>
<trkpt lat="-35.362881" lon="149.1652222">
  <ele>664.04</ele>
  <time>2026-08-27T18:28:09Z</time>
  <course>34.7</course>
  <speed>0.0</speed>
  <fix>3d</fix>
</trkpt>
<trkpt lat="-35.3628811" lon="149.165222">
  <ele>665.13</ele>
  <time>2026-08-27T18:28:09Z</time>
  <course>93.78</course>
  <speed>0.022360679774997897</speed>
  <fix>3d</fix>
</trkpt>
<trkpt lat="-35.362881" lon="149.1652222">
  <ele>664.55</ele>
  <time>2026-08-27T18:28:09Z</time>
  <course>35.51</course>
  <speed>0.0</speed>
  <fix>3d</fix>
</trkpt>
<trkpt lat="-35.3628811" lon="149.165222">
  <ele>665.64</ele>
  <time>2026-08-27T18:28:09Z</time>
  <course>93.79</course>
  <speed>0.022360679774997897</speed>
  <fix>3d</fix>
</trkpt>
<trkpt lat="-35.362881" lon="149.1652222">
  <ele>665.05</ele>
  <time>2026-08-27T18:28:09Z</time>
  <course>35.88</course>
  <speed>0.0</speed>
  <fix>3d</fix>
</trkpt>
<trkpt lat="-35.3628811" lon="149.165222">
  <ele>666.14</ele>
  <time>2026-08-27T18:28:09Z</time>
  <course>93.8</course>
  <speed>0.022360679774997897</speed>
  <fix>3d</fix>
</trkpt>
<trkpt lat="-35.362881" lon="149.1652222">
  <ele>665.55</ele>
  <time>2026-08-27T18:28:09Z</time>
  <course>38.87</course>
  <speed>0.0</speed>
  <fix>3d</fix>
</trkpt>
<trkpt lat="-35.3628811" lon="149.165222">
  <ele>666.64</ele>
  <time>2026-08-27T18:28:09Z</time>
  <course>93.81</course>
  <speed>0.022360679774997897</speed>
  <fix>3d</fix>
</trkpt>
<trkpt lat="-35.362881" lon="149.1652222">
  <ele>666.05</ele>
  <time>2026-08-27T18:28:09Z</time>
  <course>45.3</course>
  <speed>0.0</speed>
  <fix>3d</fix>
</trkpt>
<trkpt lat="-35.3628811" lon="149.165222">
  <ele>667.14</ele>
  <time>2026-08-27T18:28:09Z</time>
  <course>93.82</course>
  <speed>0.022360679774997897</speed>
  <fix>3d</fix>
</trkpt>
<trkpt lat="-35.362881" lon="149.1652222">
  <ele>666.55</ele>
  <time>2026-08-27T18:28:09Z</time>
  <course>52.37</course>
  <speed>0.0</speed>
  <fix>3d</fix>
</trkpt>
<trkpt lat="-35.3628811" lon="149.165222">
  <ele>667.63</ele>
  <time>2026-08-27T18:28:09Z</time>
  <course>93.83</course>
  <speed>0.022360679774997897</speed>
  <fix>3d</fix>
</trkpt>
<trkpt lat="-35.362881" lon="149.1652222">
  <ele>667.05</ele>
  <time>2026-08-27T18:28:09Z</time>
  <course>59.81</course>
  <speed>0.0</speed>
  <fix>3d</fix>
</trkpt>
<trkpt lat="-35.3628811" lon="149.165222">
  <ele>668.13</ele>
  <time>2026-08-27T18:28:09Z</time>
  <course>93.84</course>
  <speed>0.022360679774997897</speed>
  <fix>3d</fix>
</trkpt>
<trkpt lat="-35.362881" lon="149.1652222">
  <ele>667.55</ele>
  <time>2026-08-27T18:28:09Z</time>
  <course>67.21</course>
  <speed>0.0</speed>
  <fix>3d</fix>
</trkpt>
<trkpt lat="-35.3628811" lon="149.165222">
  <ele>668.63</ele>
  <time>2026-08-27T18:28:09Z</time>
  <course>93.84</course>
  <speed>0.022360679774997897</speed>
  <fix>3d</fix>
</trkpt>
<trkpt lat="-35.362881" lon="149.1652222">
  <ele>668.05</ele>
  <time>2026-08-27T18:28:09Z</time>
  <course>73.87</course>
  <speed>0.0</speed>
  <fix>3d</fix>
</trkpt>
<trkpt lat="-35.3628811" lon="149.165222">
  <ele>669.13</ele>
  <time>2026-08-27T18:28:09Z</time>
  <course>93.85</course>
  <speed>0.022360679774997897</speed>
  <fix>3d</fix>
</trkpt>
<trkpt lat="-35.362881" lon="149.1652222">
  <ele>668.55</ele>
  <time>2026-08-27T18:28:09Z</time>
  <course>79.39</course>
  <speed>0.0</speed>
  <fix>3d</fix>
</trkpt>
<trkpt lat="-35.3628811" lon="149.165222">
  <ele>669.63</ele>
  <time>2026-08-27T18:28:09Z</time>
  <course>93.86</course>
  <speed>0.022360679774997897</speed>
  <fix>3d</fix>
</trkpt>
<trkpt lat="-35.362881" lon="149.1652222">
  <ele>669.05</ele>
  <time>2026-08-27T18:28:09Z</time>
  <course>74.7</course>
  <speed>0.0</speed>
  <fix>3d</fix>
</trkpt>
<trkpt lat="-35.3628811" lon="149.165222">
  <ele>670.13</ele>
  <time>2026-08-27T18:28:09Z</time>
  <course>93.83</course>
  <speed>0.022360679774997897</speed>
  <fix>3d</fix>
</trkpt>
<trkpt lat="-35.362881" lon="149.1652222">
  <ele>669.55</ele>
  <time>2026-08-27T18:28:09Z</time>
  <course>66.32</course>
  <speed>0.0</speed>
  <fix>3d</fix>
</trkpt>
<trkpt lat="-35.3628811" lon="149.165222">
  <ele>670.63</ele>
  <time>2026-08-27T18:28:09Z</time>
  <course>93.87</course>
  <speed>0.022360679774997897</speed>
  <fix>3d</fix>
</trkpt>
<trkpt lat="-35.362881" lon="149.1652222">
  <ele>670.05</ele>
  <time>2026-08-27T18:28:09Z</time>
  <course>59.87</course>
  <speed>0.0</speed>
  <fix>3d</fix>
</trkpt>
<trkpt lat="-35.3628811" lon="149.165222">
  <ele>671.14</ele>
  <time>2026-08-27T18:28:09Z</time>
  <course>93.88</course>
  <speed>0.022360679774997897</speed>
  <fix>3d</fix>
</trkpt>
<trkpt lat="-35.362881" lon="149.1652222">
  <ele>670.55</ele>
  <time>2026-08-27T18:28:09Z</time>
  <course>53.71</course>
  <speed>0.0</speed>
  <fix>3d</fix>
</trkpt>
<trkpt lat="-35.3628811" lon="149.165222">
  <ele>671.64</ele>
  <time>2026-08-27T18:28:10Z</time>
  <course>93.88</course>
  <speed>0.022360679774997897</speed>
  <fix>3d</fix>
</trkpt>
<trkpt lat="-35.362881" lon="149.1652222">
  <ele>671.05</ele>
  <time>2026-08-27T18:28:10Z</time>
  <course>50.76</course>
  <speed>0.0</speed>
  <fix>3d</fix>
</trkpt>
<trkpt lat="-35.3628811" lon="149.165222">
  <ele>672.13</ele>
  <time>2026-08-27T18:28:10Z</time>
  <course>93.89</course>
  <speed>0.022360679774997897</speed>
  <fix>3d</fix>
</trkpt>
<trkpt lat="-35.362881" lon="149.1652222">
  <ele>671.55</ele>
  <time>2026-08-27T18:28:10Z</time>
  <course>52.31</course>
  <speed>0.0</speed>
  <fix>3d</fix>
</trkpt>
<trkpt lat="-35.3628811" lon="149.165222">
  <ele>672.63</ele>
  <time>2026-08-27T18:28:10Z</time>
  <course>93.9</course>
  <speed>0.022360679774997897</speed>
  <fix>3d</fix>
</trkpt>
<trkpt lat="-35.362881" lon="149.1652222">
  <ele>672.05</ele>
  <time>2026-08-27T18:28:10Z</time>
  <course>58.25</course>
  <speed>0.0</speed>
  <fix>3d</fix>
</trkpt>
<trkpt lat="-35.3628811" lon="149.165222">
  <ele>673.12</ele>
  <time>2026-08-27T18:28:10Z</time>
  <course>93.9</course>
  <speed>0.022360679774997897</speed>
  <fix>3d</fix>
</trkpt>
<trkpt lat="-35.362881" lon="149.1652222">
  <ele>672.55</ele>
  <time>2026-08-27T18:28:10Z</time>
  <course>62.0</course>
  <speed>0.0</speed>
  <fix>3d</fix>
</trkpt>
<trkpt lat="-35.3628811" lon="149.165222">
  <ele>673.62</ele>
  <time>2026-08-27T18:28:10Z</time>
  <course>93.88</course>
  <speed>0.022360679774997897</speed>
  <fix>3d</fix>
</trkpt>
<trkpt lat="-35.3628809" lon="149.1652222">
  <ele>673.05</ele>
  <time>2026-08-27T18:28:10Z</time>
  <course>64.74</course>
  <speed>0.0</speed>
  <fix>3d</fix>
</trkpt>
<trkpt lat="-35.3628811" lon="149.165222">
  <ele>674.13</ele>
  <time>2026-08-27T18:28:10Z</time>
  <course>93.88</course>
  <speed>0.022360679774997897</speed>
  <fix>3d</fix>
</trkpt>
<trkpt lat="-35.3628809" lon="149.1652222">
  <ele>673.55</ele>
  <time>2026-08-27T18:28:10Z</time>
  <course>62.05</course>
  <speed>0.0</speed>
  <fix>3d</fix>
</trkpt>
<trkpt lat="-35.3628811" lon="149.165222">
  <ele>674.63</ele>
  <time>2026-08-27T18:28:10Z</time>
  <course>93.9</course>
  <speed>0.022360679774997897</speed>
  <fix>3d</fix>
</trkpt>
<trkpt lat="-35.3628809" lon="149.1652222">
  <ele>674.05</ele>
  <time>2026-08-27T18:28:10Z</time>
  <course>57.85</course>
  <speed>0.0</speed>
  <fix>3d</fix>
</trkpt>
<trkpt lat="-35.3628811" lon="149.165222">
  <ele>675.14</ele>
  <time>2026-08-27T18:28:10Z</time>
  <course>93.91</course>
  <speed>0.022360679774997897</speed>
  <fix>3d</fix>
</trkpt>
<trkpt lat="-35.3628809" lon="149.1652223">
  <ele>674.56</ele>
  <time>2026-08-27T18:28:10Z</time>
  <course>61.61</course>
  <speed>0.0</speed>
  <fix>3d</fix>
</trkpt>
<trkpt lat="-35.3628811" lon="149.165222">
  <ele>675.64</ele>
  <time>2026-08-27T18:28:10Z</time>
  <course>93.93</course>
  <speed>0.022360679774997897</speed>
  <fix>3d</fix>
</trkpt>
<trkpt lat="-35.3628809" lon="149.1652224">
  <ele>675.06</ele>
  <time>2026-08-27T18:28:10Z</time>
  <course>73.33</course>
  <speed>0.0</speed>
  <fix>3d</fix>
</trkpt>
<trkpt lat="-35.3628811" lon="149.165222">
  <ele>676.14</ele>
  <time>2026-08-27T18:28:10Z</time>
  <course>93.94</course>
  <speed>0.022360679774997897</speed>
  <fix>3d</fix>
</trkpt>
<trkpt lat="-35.3628809" lon="149.1652224">
  <ele>675.56</ele>
  <time>2026-08-27T18:28:10Z</time>
  <course>92.65</course>
  <speed>0.0</speed>
  <fix>3d</fix>
</trkpt>
<trkpt lat="-35.3628811" lon="149.165222">
  <ele>676.64</ele>
  <time>2026-08-27T18:28:10Z</time>
  <course>93.94</course>
  <speed>0.022360679774997897</speed>
  <fix>3d</fix>
</trkpt>
<trkpt lat="-35.3628809" lon="149.1652224">
  <ele>676.06</ele>
  <time>2026-08-27T18:28:10Z</time>
  <course>111.04</course>
  <speed>0.0</speed>
  <fix>3d</fix>
</trkpt>
<trkpt lat="-35.3628811" lon="149.165222">
  <ele>677.14</ele>
  <time>2026-08-27T18:28:10Z</time>
  <course>93.97</course>
  <speed>0.022360679774997897</speed>
  <fix>3d</fix>
</trkpt>
<trkpt lat="-35.3628809" lon="149.1652224">
  <ele>676.56</ele>
  <time>2026-08-27T18:28:10Z</time>
  <course>126.08</course>
  <speed>0.0</speed>
  <fix>3d</fix>
</trkpt>
<trkpt lat="-35.3628811" lon="149.165222">
  <ele>677.64</ele>
  <time>2026-08-27T18:28:10Z</time>
  <course>93.98</course>
  <speed>0.022360679774997897</speed>
  <fix>3d</fix>
</trkpt>
<trkpt lat="-35.3628809" lon="149.1652224">
  <ele>677.06</ele>
  <time>2026-08-27T18:28:10Z</time>
  <course>144.1</course>
  <speed>0.0</speed>
  <fix>3d</fix>
</trkpt>
<trkpt lat="-35.3628811" lon="149.165222">
  <ele>678.14</ele>
  <time>2026-08-27T18:28:10Z</time>
  <course>93.98</course>
  <speed>0.022360679774997897</speed>
  <fix>3d</fix>
</trkpt>
<trkpt lat="-35.3628809" lon="149.1652224">
  <ele>677.56</ele>
  <time>2026-08-27T18:28:10Z</time>
  <course>181.46</course>
  <speed>0.0</speed>
  <fix>3d</fix>
</trkpt>
<trkpt lat="-35.3628811" lon="149.165222">
  <ele>678.64</ele>
  <time>2026-08-27T18:28:10Z</time>
  <course>93.97</course>
  <speed>0.022360679774997897</speed>
  <fix>3d</fix>
</trkpt>
<trkpt lat="-35.3628809" lon="149.1652224">
  <ele>678.06</ele>
  <time>2026-08-27T18:28:10Z</time>
  <course>211.53</course>
  <speed>0.0</speed>
  <fix>3d</fix>
</trkpt>
<trkpt lat="-35.3628811" lon="149.165222">
  <ele>679.14</ele>
  <time>2026-08-27T18:28:10Z</time>
  <course>94.05</course>
  <speed>0.022360679774997897</speed>
  <fix>3d</fix>
</trkpt>
<trkpt lat="-35.3628809" lon="149.1652224">
  <ele>678.56</ele>
  <time>2026-08-27T18:28:10Z</time>
  <course>223.59</course>
  <speed>0.0</speed>
  <fix>3d</fix>
</trkpt>
<trkpt lat="-35.3628811" lon="149.165222">
  <ele>679.62</ele>
  <time>2026-08-27T18:28:10Z</time>
  <course>94.41</course>
  <speed>0.022360679774997897</speed>
  <fix>3d</fix>
</trkpt>
<trkpt lat="-35.3628809" lon="149.1652224">
  <ele>679.05</ele>
  <time>2026-08-27T18:28:10Z</time>
  <course>236.29</course>
  <speed>0.0</speed>
  <fix>3d</fix>
</trkpt>
<trkpt lat="-35.3628811" lon="149.1652221">
  <ele>680.08</ele>
  <time>2026-08-27T18:28:10Z</time>
  <course>94.83</course>
  <speed>0.022360679774997897</speed>
  <fix>3d</fix>
</trkpt>
<trkpt lat="-35.3628809" lon="149.1652224">
  <ele>679.52</ele>
  <time>2026-08-27T18:28:10Z</time>
  <course>241.06</course>
  <speed>0.0</speed>
  <fix>3d</fix>
</trkpt>
<trkpt lat="-35.3628811" lon="149.1652221">
  <ele>680.5</ele>
  <time>2026-08-27T18:28:10Z</time>
  <course>95.24</course>
  <speed>0.022360679774997897</speed>
  <fix>3d</fix>
</trkpt>
<trkpt lat="-35.3628809" lon="149.1652224">
  <ele>679.97</ele>
  <time>2026-08-27T18:28:10Z</time>
  <course>227.37</course>
  <speed>0.0</speed>
  <fix>3d</fix>
</trkpt>
<trkpt lat="-35.3628811" lon="149.1652221">
  <ele>680.88</ele>
  <time>2026-08-27T18:28:10Z</time>
  <course>95.63</course>
  <speed>0.0282842712474619</speed>
  <fix>3d</fix>
</trkpt>
<trkpt lat="-35.3628809" lon="149.1652224">
  <ele>680.38</ele>
  <time>2026-08-27T18:28:10Z</time>
  <course>206.12</course>
  <speed>0.0</speed>
  <fix>3d</fix>
</trkpt>
<trkpt lat="-35.3628811" lon="149.1652221">
  <ele>681.21</ele>
  <time>2026-08-27T18:28:10Z</time>
  <course>95.98</course>
  <speed>0.0282842712474619</speed>
  <fix>3d</fix>
</trkpt>
<trkpt lat="-35.3628809" lon="149.1652224">
  <ele>680.74</ele>
  <time>2026-08-27T18:28:10Z</time>
  <course>191.2</course>
  <speed>0.01</speed>
  <fix>3d</fix>
</trkpt>
<trkpt lat="-35.3628811" lon="149.1652221">
  <ele>681.49</ele>
  <time>2026-08-27T18:28:10Z</time>
  <course>96.3</course>
  <speed>0.0316227766016838</speed>
  <fix>3d</fix>
</trkpt>
<trkpt lat="-35.3628809" lon="149.1652224">
  <ele>681.06</ele>
  <time>2026-08-27T18:28:10Z</time>
  <course>183.57</course>
  <speed>0.02</speed>
  <fix>3d</fix>
</trkpt>
<trkpt lat="-35.3628811" lon="149.1652221">
  <ele>681.73</ele>
  <time>2026-08-27T18:28:10Z</time>
  <course>96.59</course>
  <speed>0.0412310562561766</speed>
  <fix>3d</fix>
</trkpt>
<trkpt lat="-35.362881" lon="149.1652224">
  <ele>681.33</ele>
  <time>2026-08-27T18:28:10Z</time>
  <course>179.99</course>
  <speed>0.02</speed>
  <fix>3d</fix>
</trkpt>
<trkpt lat="-35.3628812" lon="149.1652221">
  <ele>681.93</ele>
  <time>2026-08-27T18:28:10Z</time>
  <course>96.85</course>
  <speed>0.05099019513592785</speed>
  <fix>3d</fix>
</trkpt>
<trkpt lat="-35.362881" lon="149.1652224">
  <ele>681.56</ele>
  <time>2026-08-27T18:28:10Z</time>
  <course>178.47</course>
  <speed>0.03</speed>
  <fix>3d</fix>
</trkpt>
<trkpt lat="-35.3628812" lon="149.1652221">
  <ele>682.09</ele>
  <time>2026-08-27T18:28:10Z</time>
  <course>97.09</course>
  <speed>0.05099019513592785</speed>
  <fix>3d</fix>
</trkpt>
<trkpt lat="-35.3628811" lon="149.1652224">
  <ele>681.75</ele>
  <time>2026-08-27T18:28:10Z</time>
  <course>178.02</course>
  <speed>0.04</speed>
  <fix>3d</fix>
</trkpt>
<trkpt lat="-35.3628813" lon="149.1652221">
  <ele>682.2</ele>
  <time>2026-08-27T18:28:10Z</time>
  <course>97.32</course>
  <speed>0.06082762530298219</speed>
  <fix>3d</fix>
</trkpt>
<trkpt lat="-35.3628812" lon="149.1652224">
  <ele>681.9</ele>
  <time>2026-08-27T18:28:10Z</time>
  <course>178.15</course>
  <speed>0.05</speed>
  <fix>3d</fix>
</trkpt>
<trkpt lat="-35.3628814" lon="149.1652221">
  <ele>682.26</ele>
  <time>2026-08-27T18:28:10Z</time>
  <course>97.53</course>
  <speed>0.06082762530298219</speed>
  <fix>3d</fix>
</trkpt>
<trkpt lat="-35.3628813" lon="149.1652224">
  <ele>682.0</ele>
  <time>2026-08-27T18:28:10Z</time>
  <course>178.61</course>
  <speed>0.05</speed>
  <fix>3d</fix>
</trkpt>
<trkpt lat="-35.3628815" lon="149.1652221">
  <ele>682.29</ele>
  <time>2026-08-27T18:28:10Z</time>
  <course>97.75</course>
  <speed>0.06082762530298219</speed>
  <fix>3d</fix>
</trkpt>
<trkpt lat="-35.3628814" lon="149.1652224">
  <ele>682.06</ele>
  <time>2026-08-27T18:28:10Z</time>
  <course>179.33</course>
  <speed>0.06</speed>
  <fix>3d</fix>
</trkpt>
<trkpt lat="-35.3628816" lon="149.1652221">
  <ele>682.28</ele>
  <time>2026-08-27T18:28:10Z</time>
  <course>102.28</course>
  <speed>0.07071067811865475</speed>
  <fix>3d</fix>
</trkpt>
<trkpt lat="-35.3628815" lon="149.1652224">
  <ele>682.09</ele>
  <time>2026-08-27T18:28:10Z</time>
  <course>178.89</course>
  <speed>0.05</speed>
  <fix>3d</fix>
</trkpt>
<trkpt lat="-35.3628817" lon="149.1652221">
  <ele>682.25</ele>
  <time>2026-08-27T18:28:10Z</time>
  <course>101.16</course>
  <speed>0.07071067811865475</speed>
  <fix>3d</fix>
</trkpt>
<trkpt lat="-35.3628816" lon="149.1652224">
  <ele>682.08</ele>
  <time>2026-08-27T18:28:10Z</time>
  <course>178.78</course>
  <speed>0.05</speed>
  <fix>3d</fix>
</trkpt>
<trkpt lat="-35.3628818" lon="149.1652221">
  <ele>682.22</ele>
  <time>2026-08-27T18:28:10Z</time>
  <course>100.91</course>
  <speed>0.0670820393249937</speed>
  <fix>3d</fix>
</trkpt>
<trkpt lat="-35.3628817" lon="149.1652224">
  <ele>682.05</ele>
  <time>2026-08-27T18:28:10Z</time>
  <course>185.51</course>
  <speed>0.05</speed>
  <fix>3d</fix>
</trkpt>
<trkpt lat="-35.3628819" lon="149.1652221">
  <ele>682.18</ele>
  <time>2026-08-27T18:28:10Z</time>
  <course>100.76</course>
  <speed>0.11401754250991379</speed>
  <fix>3d</fix>
</trkpt>
<trkpt lat="-35.3628818" lon="149.1652224">
  <ele>682.02</ele>
  <time>2026-08-27T18:28:10Z</time>
  <course>212.01</course>
  <speed>0.06</speed>
  <fix>3d</fix>
</trkpt>
<trkpt lat="-35.3628821" lon="149.1652219">
  <ele>682.15</ele>
  <time>2026-08-27T18:28:10Z</time>
  <course>100.7</course>
  <speed>0.2195449840010015</speed>
  <fix>3d</fix>
</trkpt>
<trkpt lat="-35.3628819" lon="149.1652222">
  <ele>682.0</ele>
  <time>2026-08-27T18:28:10Z</time>
  <course>233.33</course>
  <speed>0.12</speed>
  <fix>3d</fix>
</trkpt>
<trkpt lat="-35.3628823" lon="149.1652213">
  <ele>682.13</ele>
  <time>2026-08-27T18:28:10Z</time>
  <course>100.67</course>
  <speed>0.37589892258425</speed>
  <fix>3d</fix>
</trkpt>
<trkpt lat="-35.3628821" lon="149.1652219">
  <ele>681.98</ele>
  <time>2026-08-27T18:28:10Z</time>
  <course>237.85</course>
  <speed>0.24</speed>
  <fix>3d</fix>
</trkpt>
<trkpt lat="-35.3628827" lon="149.1652205">
  <ele>682.12</ele>
  <time>2026-08-27T18:28:10Z</time>
  <course>100.63</course>
  <speed>0.574543296888929</speed>
  <fix>3d</fix>
</trkpt>
<trkpt lat="-35.3628824" lon="149.1652212">
  <ele>681.97</ele>
  <time>2026-08-27T18:28:10Z</time>
  <course>237.21</course>
  <speed>0.41</speed>
  <fix>3d</fix>
</trkpt>
<trkpt lat="-35.3628834" lon="149.1652193">
  <ele>682.12</ele>
  <time>2026-08-27T18:28:10Z</time>
  <course>100.57</course>
  <speed>0.7961155694998057</speed>
  <fix>3d</fix>
</trkpt>
<trkpt lat="-35.3628829" lon="149.1652203">
  <ele>681.97</ele>
  <time>2026-08-27T18:28:10Z</time>
  <course>235.59</course>
  <speed>0.61</speed>
  <fix>3d</fix>
</trkpt>
<trkpt lat="-35.3628843" lon="149.1652177">
  <ele>682.11</ele>
  <time>2026-08-27T18:28:10Z</time>
  <course>100.51</course>
  <speed>1.0511898020814319</speed>
  <fix>3d</fix>
</trkpt>
<trkpt lat="-35.3628837" lon="149.165219">
  <ele>681.97</ele>
  <time>2026-08-27T18:28:10Z</time>
  <course>234.08</course>
  <speed>0.84</speed>
  <fix>3d</fix>
</trkpt>
<trkpt lat="-35.3628854" lon="149.1652156">
  <ele>682.11</ele>
  <time>2026-08-27T18:28:10Z</time>
  <course>107.17</course>
  <speed>1.278632081562167</speed>
  <fix>3d</fix>
</trkpt>
<trkpt lat="-35.3628846" lon="149.1652173">
  <ele>681.97</ele>
  <time>2026-08-27T18:28:10Z</time>
  <course>233.94</course>
  <speed>1.08</speed>
  <fix>3d</fix>
</trkpt>
<trkpt lat="-35.3628869" lon="149.1652132">
  <ele>682.12</ele>
  <time>2026-08-27T18:28:10Z</time>
  <course>120.44</course>
  <speed>1.554252231782216</speed>
  <fix>3d</fix>
</trkpt>
<trkpt lat="-35.3628859" lon="149.1652151">
  <ele>681.98</ele>
  <time>2026-08-27T18:28:10Z</time>
  <course>233.3</course>
  <speed>1.34</speed>
  <fix>3d</fix>
</trkpt>
<trkpt lat="-35.3628888" lon="149.1652103">
  <ele>682.11</ele>
  <time>2026-08-27T18:28:10Z</time>
  <course>132.05</course>
  <speed>1.8428510520386612</speed>
  <fix>3d</fix>
</trkpt>
<trkpt lat="-35.3628876" lon="149.1652126">
  <ele>681.98</ele>
  <time>2026-08-27T18:28:10Z</time>
  <course>231.22</course>
  <speed>1.61</speed>
  <fix>3d</fix>
</trkpt>
<trkpt lat="-35.3628911" lon="149.1652071">
  <ele>682.11</ele>
  <time>2026-08-27T18:28:10Z</time>
  <course>143.56</course>
  <speed>2.132627487396709</speed>
  <fix>3d</fix>
</trkpt>
<trkpt lat="-35.3628896" lon="149.1652096">
  <ele>681.99</ele>
  <time>2026-08-27T18:28:10Z</time>
  <course>228.82</course>
  <speed>1.9</speed>
  <fix>3d</fix>
</trkpt>
<trkpt lat="-35.3628939" lon="149.1652035">
  <ele>682.11</ele>
  <time>2026-08-27T18:28:10Z</time>
  <course>155.05</course>
  <speed>2.461097316239242</speed>
  <fix>3d</fix>
</trkpt>
<trkpt lat="-35.3628921" lon="149.1652062">
  <ele>681.99</ele>
  <time>2026-08-27T18:28:10Z</time>
  <course>226.38</course>
  <speed>2.2</speed>
  <fix>3d</fix>
</trkpt>
<trkpt lat="-35.3628973" lon="149.1651995">
  <ele>682.1</ele>
  <time>2026-08-27T18:28:10Z</time>
  <course>166.57</course>
  <speed>2.850350855596553</speed>
  <fix>3d</fix>
</trkpt>
<trkpt lat="-35.3628951" lon="149.1652025">
  <ele>681.99</ele>
  <time>2026-08-27T18:28:10Z</time>
  <course>224.17</course>
  <speed>2.55</speed>
  <fix>3d</fix>
</trkpt>
<trkpt lat="-35.3629014" lon="149.1651951">
  <ele>682.09</ele>
  <time>2026-08-27T18:28:10Z</time>
  <course>178.13</course>
  <speed>3.298787656094281</speed>
  <fix>3d</fix>
</trkpt>
<trkpt lat="-35.3628987" lon="149.1651984">
  <ele>681.98</ele>
  <time>2026-08-27T18:28:10Z</time>
  <course>222.45</course>
  <speed>2.94</speed>
  <fix>3d</fix>
</trkpt>
<trkpt lat="-35.3629061" lon="149.16519">
  <ele>682.07</ele>
  <time>2026-08-27T18:28:10Z</time>
  <course>189.84</course>
  <speed>3.7968407920269716</speed>
  <fix>3d</fix>
</trkpt>
<trkpt lat="-35.362903" lon="149.1651937">
  <ele>681.98</ele>
  <time>2026-08-27T18:28:10Z</time>
  <course>221.35</course>
  <speed>3.4</speed>
  <fix>3d</fix>
</trkpt>
<trkpt lat="-35.3629115" lon="149.1651843">
  <ele>682.06</ele>
  <time>2026-08-27T18:28:10Z</time>
  <course>201.91</course>
  <speed>4.335827487343103</speed>
  <fix>3d</fix>
</trkpt>
<trkpt lat="-35.362908" lon="149.1651884">
  <ele>681.97</ele>
  <time>2026-08-27T18:28:10Z</time>
  <course>220.95</course>
  <speed>3.92</speed>
  <fix>3d</fix>
</trkpt>
<trkpt lat="-35.3629177" lon="149.1651776">
  <ele>682.06</ele>
  <time>2026-08-27T18:28:10Z</time>
  <course>214.3</course>
  <speed>4.892371613031864</speed>
  <fix>3d</fix>
</trkpt>
<trkpt lat="-35.3629137" lon="149.1651823">
  <ele>681.96</ele>
  <time>2026-08-27T18:28:10Z</time>
  <course>221.23</course>
  <speed>4.46</speed>
  <fix>3d</fix>
</trkpt>
<trkpt lat="-35.3629245" lon="149.16517">
  <ele>682.05</ele>
  <time>2026-08-27T18:28:10Z</time>
  <course>223.19</course>
  <speed>5.438685502950139</speed>
  <fix>3d</fix>
</trkpt>
<trkpt lat="-35.36292" lon="149.1651754">
  <ele>681.96</ele>
  <time>2026-08-27T18:28:10Z</time>
  <course>222.31</course>
  <speed>5.02</speed>
  <fix>3d</fix>
</trkpt>
<trkpt lat="-35.3629318" lon="149.1651613">
  <ele>682.05</ele>
  <time>2026-08-27T18:28:10Z</time>
  <course>223.42</course>
  <speed>5.939713797818881</speed>
  <fix>3d</fix>
</trkpt>
<trkpt lat="-35.362927" lon="149.1651674">
  <ele>681.96</ele>
  <time>2026-08-27T18:28:10Z</time>
  <course>223.83</course>
  <speed>5.55</speed>
  <fix>3d</fix>
</trkpt>
<trkpt lat="-35.3629395" lon="149.1651519">
  <ele>682.06</ele>
  <time>2026-08-27T18:28:10Z</time>
  <course>223.98</course>
  <speed>6.386305661335041</speed>
  <fix>3d</fix>
</trkpt>
<trkpt lat="-35.3629344" lon="149.1651584">
  <ele>681.96</ele>
  <time>2026-08-27T18:28:10Z</time>
  <course>225.16</course>
  <speed>6.05</speed>
  <fix>3d</fix>
</trkpt>
<trkpt lat="-35.3629475" lon="149.1651415">
  <ele>682.07</ele>
  <time>2026-08-27T18:28:10Z</time>
  <course>224.92</course>
  <speed>6.7998014676900675</speed>
  <fix>3d</fix>
</trkpt>
<trkpt lat="-35.3629423" lon="149.1651485">
  <ele>681.97</ele>
  <time>2026-08-27T18:28:10Z</time>
  <course>226.25</course>
  <speed>6.5</speed>
  <fix>3d</fix>
</trkpt>
<trkpt lat="-35.3629559" lon="149.1651303">
  <ele>682.08</ele>
  <time>2026-08-27T18:28:10Z</time>
  <course>225.9</course>
  <speed>7.180222837767641</speed>
  <fix>3d</fix>
</trkpt>
<trkpt lat="-35.3629506" lon="149.1651377">
  <ele>681.98</ele>
  <time>2026-08-27T18:28:10Z</time>
  <course>227.3</course>
  <speed>6.92</speed>
  <fix>3d</fix>
</trkpt>
<trkpt lat="-35.3629647" lon="149.1651183">
  <ele>682.09</ele>
  <time>2026-08-27T18:28:10Z</time>
  <course>226.83</course>
  <speed>7.548357437217716</speed>
  <fix>3d</fix>
</trkpt>
<trkpt lat="-35.3629592" lon="149.1651261">
  <ele>681.99</ele>
  <time>2026-08-27T18:28:10Z</time>
  <course>228.32</course>
  <speed>7.31</speed>
  <fix>3d</fix>
</trkpt>
<trkpt lat="-35.3629736" lon="149.1651056">
  <ele>682.1</ele>
  <time>2026-08-27T18:28:10Z</time>
  <course>227.75</course>
  <speed>7.897524928735585</speed>
  <fix>3d</fix>
</trkpt>
<trkpt lat="-35.3629681" lon="149.1651137">
  <ele>682.0</ele>
  <time>2026-08-27T18:28:10Z</time>
  <course>229.25</course>
  <speed>7.68</speed>
  <fix>3d</fix>
</trkpt>
<trkpt lat="-35.3629829" lon="149.165092">
  <ele>682.11</ele>
  <time>2026-08-27T18:28:10Z</time>
  <course>228.65</course>
  <speed>8.196999451018648</speed>
  <fix>3d</fix>
</trkpt>
<trkpt lat="-35.3629772" lon="149.1651005">
  <ele>682.01</ele>
  <time>2026-08-27T18:28:10Z</time>
  <course>230.07</course>
  <speed>8.03</speed>
  <fix>3d</fix>
</trkpt>
<trkpt lat="-35.3629923" lon="149.165078">
  <ele>682.13</ele>
  <time>2026-08-27T18:28:10Z</time>
  <course>229.59</course>
  <speed>8.453833449979955</speed>
  <fix>3d</fix>
</trkpt>
<trkpt lat="-35.3629865" lon="149.1650866">
  <ele>682.02</ele>
  <time>2026-08-27T18:28:10Z</time>
  <course>230.76</course>
  <speed>8.32</speed>
  <fix>3d</fix>
</trkpt>
<trkpt lat="-35.3630019" lon="149.1650633">
  <ele>682.15</ele>
  <time>2026-08-27T18:28:10Z</time>
  <course>230.48</course>
  <speed>8.653611962643113</speed>
  <fix>3d</fix>
</trkpt>
<trkpt lat="-35.362996" lon="149.165072">
  <ele>682.04</ele>
  <time>2026-08-27T18:28:10Z</time>
  <course>231.33</course>
  <speed>8.57</speed>
  <fix>3d</fix>
</trkpt>
<trkpt lat="-35.3630117" lon="149.165048">
  <ele>682.17</ele>
  <time>2026-08-27T18:28:10Z</time>
  <course>231.31</course>
  <speed>8.81800430936615</speed>
  <fix>3d</fix>
</trkpt>
<trkpt lat="-35.3630057" lon="149.165057">
  <ele>682.06</ele>
  <time>2026-08-27T18:28:10Z</time>
  <course>231.81</course>
  <speed>8.76</speed>
  <fix>3d</fix>
</trkpt>
<trkpt lat="-35.3630215" lon="149.1650325">
  <ele>682.18</ele>
  <time>2026-08-27T18:28:10Z</time>
  <course>232.02</course>
  <speed>8.945127165110621</speed>
  <fix>3d</fix>
</trkpt>
<trkpt lat="-35.3630155" lon="149.1650417">
  <ele>682.08</ele>
  <time>2026-08-27T18:28:10Z</time>
  <course>232.2</course>
  <speed>8.92</speed>
  <fix>3d</fix>
</trkpt>
<trkpt lat="-35.3630314" lon="149.1650167">
  <ele>682.2</ele>
  <time>2026-08-27T18:28:10Z</time>
  <course>232.59</course>
  <speed>9.048718141261778</speed>
  <fix>3d</fix>
</trkpt>
<trkpt lat="-35.3630254" lon="149.165026">
  <ele>682.09</ele>
  <time>2026-08-27T18:28:10Z</time>
  <course>232.51</course>
  <speed>9.04</speed>
  <fix>3d</fix>
</trkpt>
<trkpt lat="-35.3630414" lon="149.1650006">
  <ele>682.21</ele>
  <time>2026-08-27T18:28:10Z</time>
  <course>233.03</course>
  <speed>9.122505138392633</speed>
  <fix>3d</fix>
</trkpt>
<trkpt lat="-35.3630353" lon="149.1650101">
  <ele>682.11</ele>
  <time>2026-08-27T18:28:10Z</time>
  <course>232.71</course>
  <speed>9.13</speed>
  <fix>3d</fix>
</trkpt>
<trkpt lat="-35.3630514" lon="149.1649845">
  <ele>682.22</ele>
  <time>2026-08-27T18:28:10Z</time>
  <course>233.34</course>
  <speed>9.172502384845696</speed>
  <fix>3d</fix>
</trkpt>
<trkpt lat="-35.3630452" lon="149.164994">
  <ele>682.12</ele>
  <time>2026-08-27T18:28:10Z</time>
  <course>232.81</course>
  <speed>9.19</speed>
  <fix>3d</fix>
</trkpt>
<trkpt lat="-35.3630614" lon="149.1649683">
  <ele>682.23</ele>
  <time>2026-08-27T18:28:10Z</time>
  <course>233.52</course>
  <speed>9.192611163320246</speed>
  <fix>3d</fix>
</trkpt>
<trkpt lat="-35.3630553" lon="149.1649779">
  <ele>682.13</ele>
  <time>2026-08-27T18:28:10Z</time>
  <course>232.8</course>
  <speed>9.22</speed>
  <fix>3d</fix>
</trkpt>
<trkpt lat="-35.3630715" lon="149.1649521">
  <ele>682.23</ele>
  <time>2026-08-27T18:28:10Z</time>
  <course>233.58</course>
  <speed>9.196890778953504</speed>
  <fix>3d</fix>
</trkpt>
<trkpt lat="-35.3630653" lon="149.1649617">
  <ele>682.13</ele>
  <time>2026-08-27T18:28:10Z</time>
  <course>232.71</course>
  <speed>9.23</speed>
  <fix>3d</fix>
</trkpt>
<trkpt lat="-35.3630816" lon="149.164936">
  <ele>682.23</ele>
  <time>2026-08-27T18:28:10Z</time>
  <course>233.51</course>
  <speed>9.177537796162976</speed>
  <fix>3d</fix>
</trkpt>
<trkpt lat="-35.3630754" lon="149.1649455">
  <ele>682.14</ele>
  <time>2026-08-27T18:28:10Z</time>
  <course>232.52</course>
  <speed>9.22</speed>
  <fix>3d</fix>
</trkpt>
<trkpt lat="-35.3630917" lon="149.16492">
  <ele>682.22</ele>
  <time>2026-08-27T18:28:10Z</time>
  <course>233.36</course>
  <speed>9.150502718430284</speed>
  <fix>3d</fix>
</trkpt>
<trkpt lat="-35.3630855" lon="149.1649294">
  <ele>682.14</ele>
  <time>2026-08-27T18:28:10Z</time>
  <course>232.26</course>
  <speed>9.19</speed>
  <fix>3d</fix>
</trkpt>
<trkpt lat="-35.3631019" lon="149.1649041">
  <ele>682.22</ele>
  <time>2026-08-27T18:28:10Z</time>
  <course>233.1</course>
  <speed>9.122115982599652</speed>
  <fix>3d</fix>
</trkpt>
<trkpt lat="-35.3630956" lon="149.1649135">
  <ele>682.15</ele>
  <time>2026-08-27T18:28:10Z</time>
  <course>231.93</course>
  <speed>9.16</speed>
  <fix>3d</fix>
</trkpt>
<trkpt lat="-35.3631121" lon="149.1648883">
  <ele>682.21</ele>
  <time>2026-08-27T18:28:10Z</time>
  <course>232.69</course>
  <speed>9.10191188707076</speed>
  <fix>3d</fix>
</trkpt>
<trkpt lat="-35.3631058" lon="149.1648976">
  <ele>682.14</ele>
  <time>2026-08-27T18:28:10Z</time>
  <course>231.56</course>
  <speed>9.12</speed>
  <fix>3d</fix>
</trkpt>
<trkpt lat="-35.3631225" lon="149.1648726">
  <ele>682.19</ele>
  <time>2026-08-27T18:28:10Z</time>
  <course>232.13</course>
  <speed>9.115135764211084</speed>
  <fix>3d</fix>
</trkpt>
<trkpt lat="-35.363116" lon="149.1648819">
  <ele>682.13</ele>
  <time>2026-08-27T18:28:10Z</time>
  <course>231.14</course>
  <speed>9.11</speed>
  <fix>3d</fix>
</trkpt>
<trkpt lat="-35.3631329" lon="149.1648569">
  <ele>682.17</ele>
  <time>2026-08-27T18:28:10Z</time>
  <course>231.44</course>
  <speed>9.15848240703666</speed>
  <fix>3d</fix>
</trkpt>
<trkpt lat="-35.3631264" lon="149.1648664">
  <ele>682.12</ele>
  <time>2026-08-27T18:28:10Z</time>
  <course>230.68</course>
  <speed>9.13</speed>
  <fix>3d</fix>
</trkpt>
<trkpt lat="-35.3631436" lon="149.1648414">
  <ele>682.16</ele>
  <time>2026-08-27T18:28:10Z</time>
  <course>230.66</course>
  <speed>9.229371592909239</speed>
  <fix>3d</fix>
</trkpt>
<trkpt lat="-35.3631368" lon="149.1648508">
  <ele>682.1</ele>
  <time>2026-08-27T18:28:10Z</time>
  <course>230.18</course>
  <speed>9.17</speed>
  <fix>3d</fix>
</trkpt>
<trkpt lat="-35.3631544" lon="149.1648258">
  <ele>682.14</ele>
  <time>2026-08-27T18:28:10Z</time>
  <course>229.84</course>
  <speed>9.308582061732066</speed>
  <fix>3d</fix>
</trkpt>
<trkpt lat="-35.3631474" lon="149.1648353">
  <ele>682.08</ele>
  <time>2026-08-27T18:28:10Z</time>
  <course>229.65</course>
  <speed>9.24</speed>
  <fix>3d</fix>
</trkpt>
<trkpt lat="-35.3631654" lon="149.1648102">
  <ele>682.13</ele>
  <time>2026-08-27T18:28:10Z</time>
  <course>229.08</course>
  <speed>9.409144488209328</speed>
  <fix>3d</fix>
</trkpt>
<trkpt lat="-35.3631583" lon="149.1648197">
  <ele>682.07</ele>
  <time>2026-08-27T18:28:10Z</time>
  <course>229.12</course>
  <speed>9.33</speed>
  <fix>3d</fix>
</trkpt>
<trkpt lat="-35.3631766" lon="149.1647945">
  <ele>682.12</ele>
  <time>2026-08-27T18:28:10Z</time>
  <course>228.44</course>
  <speed>9.504577844386356</speed>
  <fix>3d</fix>
</trkpt>
<trkpt lat="-35.3631694" lon="149.1648042">
  <ele>682.05</ele>
  <time>2026-08-27T18:28:10Z</time>
  <course>228.62</course>
  <speed>9.42</speed>
  <fix>3d</fix>
</trkpt>
<trkpt lat="-35.363188" lon="149.1647788">
  <ele>682.12</ele>
  <time>2026-08-27T18:28:10Z</time>
  <course>227.92</course>
  <speed>9.600416657624812</speed>
  <fix>3d</fix>
</trkpt>
<trkpt lat="-35.3631807" lon="149.1647886">
  <ele>682.05</ele>
  <time>2026-08-27T18:28:10Z</time>
  <course>228.18</course>
  <speed>9.51</speed>
  <fix>3d</fix>
</trkpt>
<trkpt lat="-35.3631996" lon="149.1647631">
  <ele>682.12</ele>
  <time>2026-08-27T18:28:10Z</time>
  <course>227.55</course>
  <speed>9.690536620848198</speed>
  <fix>3d</fix>
</trkpt>
<trkpt lat="-35.3631922" lon="149.1647729">
  <ele>682.05</ele>
  <time>2026-08-27T18:28:10Z</time>
  <course>227.84</course>
  <speed>9.61</speed>
  <fix>3d</fix>
</trkpt>
<trkpt lat="-35.3632114" lon="149.1647473">
  <ele>682.13</ele>
  <time>2026-08-27T18:28:10Z</time>
  <course>227.28</course>
  <speed>9.767292357659823</speed>
  <fix>3d</fix>
</trkpt>
<trkpt lat="-35.3632039" lon="149.1647572">
  <ele>682.06</ele>
  <time>2026-08-27T18:28:10Z</time>
  <course>227.58</course>
  <speed>9.7</speed>
  <fix>3d</fix>
</trkpt>
<trkpt lat="-35.3632233" lon="149.1647314">
  <ele>682.14</ele>
  <time>2026-08-27T18:28:10Z</time>
  <course>227.14</course>
  <speed>9.851466895848557</speed>
  <fix>3d</fix>
</trkpt>
<trkpt lat="-35.3632157" lon="149.1647413">
  <ele>682.06</ele>
  <time>2026-08-27T18:28:10Z</time>
  <course>227.43</course>
  <speed>9.78</speed>
  <fix>3d</fix>
</trkpt>
<trkpt lat="-35.3632354" lon="149.1647153">
  <ele>682.15</ele>
  <time>2026-08-27T18:28:10Z</time>
  <course>227.12</course>
  <speed>9.915346690862604</speed>
  <fix>3d</fix>
</trkpt>
<trkpt lat="-35.3632276" lon="149.1647254">
  <ele>682.07</ele>
  <time>2026-08-27T18:28:10Z</time>
  <course>227.37</course>
  <speed>9.86</speed>
  <fix>3d</fix>
</trkpt>
<trkpt lat="-35.3632474" lon="149.1646991">
  <ele>682.16</ele>
  <time>2026-08-27T18:28:10Z</time>
  <course>227.22</course>
  <speed>9.979839678070986</speed>
  <fix>3d</fix>
</trkpt>
<trkpt lat="-35.3632397" lon="149.1647094">
  <ele>682.08</ele>
  <time>2026-08-27T18:28:10Z</time>
  <course>227.39</course>
  <speed>9.93</speed>
  <fix>3d</fix>
</trkpt>
<trkpt lat="-35.3632596" lon="149.1646828">
  <ele>682.17</ele>
  <time>2026-08-27T18:28:10Z</time>
  <course>227.39</course>
  <speed>10.030239279299373</speed>
  <fix>3d</fix>
</trkpt>
<trkpt lat="-35.3632518" lon="149.1646932">
  <ele>682.09</ele>
  <time>2026-08-27T18:28:10Z</time>
  <course>227.48</course>
  <speed>9.99</speed>
  <fix>3d</fix>
</trkpt>
<trkpt lat="-35.3632717" lon="149.1646665">
  <ele>682.18</ele>
  <time>2026-08-27T18:28:10Z</time>
  <course>227.64</course>
  <speed>10.067233979599362</speed>
  <fix>3d</fix>
</trkpt>
<trkpt lat="-35.363264" lon="149.1646769">
  <ele>682.1</ele>
  <time>2026-08-27T18:28:10Z</time>
  <course>227.63</course>
  <speed>10.03</speed>
  <fix>3d</fix>
</trkpt>
<trkpt lat="-35.3632838" lon="149.1646501">
  <ele>682.18</ele>
  <time>2026-08-27T18:28:10Z</time>
  <course>227.94</course>
  <speed>10.090971211929999</speed>
  <fix>3d</fix>
</trkpt>
<trkpt lat="-35.3632761" lon="149.1646605">
  <ele>682.1</ele>
  <time>2026-08-27T18:28:10Z</time>
  <course>227.84</course>
  <speed>10.07</speed>
  <fix>3d</fix>
</trkpt>
<trkpt lat="-35.3632958" lon="149.1646335">
  <ele>682.18</ele>
  <time>2026-08-27T18:28:10Z</time>
  <course>228.25</course>
  <speed>10.114939446185529</speed>
  <fix>3d</fix>
</trkpt>
<trkpt lat="-35.3632883" lon="149.164644">
  <ele>682.11</ele>
  <time>2026-08-27T18:28:10Z</time>
  <course>228.09</course>
  <speed>10.1</speed>
  <fix>3d</fix>
</trkpt>
<trkpt lat="-35.3633079" lon="149.1646169">
  <ele>682.18</ele>
  <time>2026-08-27T18:28:10Z</time>
  <course>228.6</course>
  <speed>10.125023456762953</speed>
  <fix>3d</fix>
</trkpt>
<trkpt lat="-35.3633004" lon="149.1646274">
  <ele>682.11</ele>
  <time>2026-08-27T18:28:10Z</time>
  <course>228.36</course>
  <speed>10.13</speed>
  <fix>3d</fix>
</trkpt>
<trkpt lat="-35.3633199" lon="149.1646001">
  <ele>682.18</ele>
  <time>2026-08-27T18:28:10Z</time>
  <course>228.97</course>
  <speed>10.135344098746721</speed>
  <fix>3d</fix>
</trkpt>
<trkpt lat="-35.3633124" lon="149.1646106">
  <ele>682.12</ele>
  <time>2026-08-27T18:28:10Z</time>
  <course>228.65</course>
  <speed>10.14</speed>
  <fix>3d</fix>
</trkpt>
<trkpt lat="-35.3633318" lon="149.1645834">
  <ele>682.19</ele>
  <time>2026-08-27T18:28:10Z</time>
  <course>229.32</course>
  <speed>10.131796484335835</speed>
  <fix>3d</fix>
</trkpt>
<trkpt lat="-35.3633245" lon="149.1645938">
  <ele>682.12</ele>
  <time>2026-08-27T18:28:10Z</time>
  <course>228.94</course>
  <speed>10.15</speed>
  <fix>3d</fix>
</trkpt>
<trkpt lat="-35.3633436" lon="149.1645665">
  <ele>682.19</ele>
  <time>2026-08-27T18:28:10Z</time>
  <course>229.67</course>
  <speed>10.128494458704118</speed>
  <fix>3d</fix>
</trkpt>
<trkpt lat="-35.3633364" lon="149.1645769">
  <ele>682.13</ele>
  <time>2026-08-27T18:28:10Z</time>
  <course>229.21</course>
  <speed>10.15</speed>
  <fix>3d</fix>
</trkpt>
<trkpt lat="-35.3633555" lon="149.1645495">
  <ele>682.19</ele>
  <time>2026-08-27T18:28:10Z</time>
  <course>230.0</course>
  <speed>10.11017803997536</speed>
  <fix>3d</fix>
</trkpt>
<trkpt lat="-35.3633483" lon="149.16456">
  <ele>682.13</ele>
  <time>2026-08-27T18:28:10Z</time>
  <course>229.46</course>
  <speed>10.14</speed>
  <fix>3d</fix>
</trkpt>
<trkpt lat="-35.3633673" lon="149.1645324">
  <ele>682.19</ele>
  <time>2026-08-27T18:28:10Z</time>
  <course>230.28</course>
  <speed>10.091996829171123</speed>
  <fix>3d</fix>
</trkpt>
<trkpt lat="-35.36336" lon="149.1645429">
  <ele>682.13</ele>
  <time>2026-08-27T18:28:10Z</time>
  <course>229.69</course>
  <speed>10.13</speed>
  <fix>3d</fix>
</trkpt>
<trkpt lat="-35.363379" lon="149.1645153">
  <ele>682.19</ele>
  <time>2026-08-27T18:28:10Z</time>
  <course>230.54</course>
  <speed>10.06628034578811</speed>
  <fix>3d</fix>
</trkpt>
<trkpt lat="-35.3633718" lon="149.1645259">
  <ele>682.13</ele>
  <time>2026-08-27T18:28:10Z</time>
  <course>229.89</course>
  <speed>10.1</speed>
  <fix>3d</fix>
</trkpt>
<trkpt lat="-35.3633906" lon="149.1644983">
  <ele>682.19</ele>
  <time>2026-08-27T18:28:10Z</time>
  <course>230.77</course>
  <speed>10.039372490350182</speed>
  <fix>3d</fix>
</trkpt>
<trkpt lat="-35.3633835" lon="149.1645088">
  <ele>682.13</ele>
  <time>2026-08-27T18:28:10Z</time>
  <course>230.05</course>
  <speed>10.08</speed>
  <fix>3d</fix>
</trkpt>
<trkpt lat="-35.3634022" lon="149.1644813">
  <ele>682.19</ele>
  <time>2026-08-27T18:28:10Z</time>
  <course>230.93</course>
  <speed>10.00610313758558</speed>
  <fix>3d</fix>
</trkpt>
<trkpt lat="-35.3633951" lon="149.1644918">
  <ele>682.14</ele>
  <time>2026-08-27T18:28:10Z</time>
  <course>230.18</course>
  <speed>10.05</speed>
  <fix>3d</fix>
</trkpt>
<trkpt lat="-35.3634137" lon="149.1644643">
  <ele>682.19</ele>
  <time>2026-08-27T18:28:10Z</time>
  <course>231.04</course>
  <speed>9.970245734183285</speed>
  <fix>3d</fix>
</trkpt>
<trkpt lat="-35.3634066" lon="149.1644748">
  <ele>682.14</ele>
  <time>2026-08-27T18:28:10Z</time>
  <course>230.26</course>
  <speed>10.01</speed>
  <fix>3d</fix>
</trkpt>
<trkpt lat="-35.3634251" lon="149.1644474">
  <ele>682.18</ele>
  <time>2026-08-27T18:28:10Z</time>
  <course>231.07</course>
  <speed>9.935698264339553</speed>
  <fix>3d</fix>
</trkpt>
<trkpt lat="-35.3634181" lon="149.1644579">
  <ele>682.13</ele>
  <time>2026-08-27T18:28:10Z</time>
  <course>230.3</course>
  <speed>9.98</speed>
  <fix>3d</fix>
</trkpt>
<trkpt lat="-35.3634365" lon="149.1644306">
  <ele>682.18</ele>
  <time>2026-08-27T18:28:10Z</time>
  <course>231.03</course>
  <speed>9.906225315426658</speed>
  <fix>3d</fix>
</trkpt>
<trkpt lat="-35.3634296" lon="149.164441">
  <ele>682.13</ele>
  <time>2026-08-27T18:28:10Z</time>
  <course>230.29</course>
  <speed>9.94</speed>
  <fix>3d</fix>
</trkpt>
<trkpt lat="-35.3634479" lon="149.1644139">
  <ele>682.18</ele>
  <time>2026-08-27T18:28:10Z</time>
  <course>230.96</course>
  <speed>9.87676566493303</speed>
  <fix>3d</fix>
</trkpt>
<trkpt lat="-35.3634409" lon="149.1644243">
  <ele>682.13</ele>
  <time>2026-08-27T18:28:10Z</time>
  <course>230.25</course>
  <speed>9.91</speed>
  <fix>3d</fix>
</trkpt>
<trkpt lat="-35.3634592" lon="149.1643971">
  <ele>682.18</ele>
  <time>2026-08-27T18:28:10Z</time>
  <course>230.86</course>
  <speed>9.86140456527365</speed>
  <fix>3d</fix>
</trkpt>
<trkpt lat="-35.3634523" lon="149.1644074">
  <ele>682.13</ele>
  <time>2026-08-27T18:28:10Z</time>
  <course>230.18</course>
  <speed>9.88</speed>
  <fix>3d</fix>
</trkpt>
<trkpt lat="-35.3634707" lon="149.1643804">
  <ele>682.18</ele>
  <time>2026-08-27T18:28:10Z</time>
  <course>230.68</course>
  <speed>9.838394177913385</speed>
  <fix>3d</fix>
</trkpt>
<trkpt lat="-35.3634636" lon="149.1643907">
  <ele>682.12</ele>
  <time>2026-08-27T18:28:10Z</time>
  <course>230.07</course>
  <speed>9.86</speed>
  <fix>3d</fix>
</trkpt>
<trkpt lat="-35.3634821" lon="149.1643637">
  <ele>682.17</ele>
  <time>2026-08-27T18:28:10Z</time>
  <course>230.48</course>
  <speed>9.821863366999157</speed>
  <fix>3d</fix>
</trkpt>
<trkpt lat="-35.3634751" lon="149.1643742">
  <ele>682.12</ele>
  <time>2026-08-27T18:28:10Z</time>
  <course>229.94</course>
  <speed>9.85</speed>
  <fix>3d</fix>
</trkpt>
<trkpt lat="-35.3634935" lon="149.1643472">
  <ele>682.17</ele>
  <time>2026-08-27T18:28:10Z</time>
  <course>230.27</course>
  <speed>9.819501005651967</speed>
  <fix>3d</fix>
</trkpt>
<trkpt lat="-35.3634864" lon="149.1643575">
  <ele>682.11</ele>
  <time>2026-08-27T18:28:10Z</time>
  <course>229.79</course>
  <speed>9.83</speed>
  <fix>3d</fix>
</trkpt>
<trkpt lat="-35.3635049" lon="149.1643307">
  <ele>682.16</ele>
  <time>2026-08-27T18:28:11Z</time>
  <course>230.05</course>
  <speed>9.817219565640773</speed>
  <fix>3d</fix>
</trkpt>
<trkpt lat="-35.3634979" lon="149.1643409">
  <ele>682.11</ele>
  <time>2026-08-27T18:28:11Z</time>
  <course>229.62</course>
  <speed>9.83</speed>
  <fix>3d</fix>
</trkpt>
<trkpt lat="-35.3635164" lon="149.1643144">
  <ele>682.15</ele>
  <time>2026-08-27T18:28:11Z</time>
  <course>229.83</course>
  <speed>9.815019103394553</speed>
  <fix>3d</fix>
</trkpt>
<trkpt lat="-35.3635094" lon="149.1643245">
  <ele>682.11</ele>
  <time>2026-08-27T18:28:11Z</time>
  <course>229.45</course>
  <speed>9.82</speed>
  <fix>3d</fix>
</trkpt>
<trkpt lat="-35.3635279" lon="149.164298">
  <ele>682.15</ele>
  <time>2026-08-27T18:28:11Z</time>
  <course>229.57</course>
  <speed>9.820473512005417</speed>
  <fix>3d</fix>
</trkpt>
<trkpt lat="-35.3635209" lon="149.1643081">
  <ele>682.1</ele>
  <time>2026-08-27T18:28:11Z</time>
  <course>229.28</course>
  <speed>9.82</speed>
  <fix>3d</fix>
</trkpt>
<trkpt lat="-35.3635394" lon="149.1642816">
  <ele>682.14</ele>
  <time>2026-08-27T18:28:11Z</time>
  <course>229.37</course>
  <speed>9.832522565445757</speed>
  <fix>3d</fix>
</trkpt>
<trkpt lat="-35.3635324" lon="149.1642916">
  <ele>682.1</ele>
  <time>2026-08-27T18:28:11Z</time>
  <course>229.13</course>
  <speed>9.83</speed>
  <fix>3d</fix>
</trkpt>
<trkpt lat="-35.363551" lon="149.1642653">
  <ele>682.14</ele>
  <time>2026-08-27T18:28:11Z</time>
  <course>229.14</course>
  <speed>9.845633549955025</speed>
  <fix>3d</fix>
</trkpt>
<trkpt lat="-35.363544" lon="149.1642752">
  <ele>682.1</ele>
  <time>2026-08-27T18:28:11Z</time>
  <course>229.0</course>
  <speed>9.85</speed>
  <fix>3d</fix>
</trkpt>
<trkpt lat="-35.3635626" lon="149.1642489">
  <ele>682.14</ele>
  <time>2026-08-27T18:28:11Z</time>
  <course>228.96</course>
  <speed>9.865343379730884</speed>
  <fix>3d</fix>
</trkpt>
<trkpt lat="-35.3635556" lon="149.1642589">
  <ele>682.1</ele>
  <time>2026-08-27T18:28:11Z</time>
  <course>228.87</course>
  <speed>9.87</speed>
  <fix>3d</fix>
</trkpt>
<trkpt lat="-35.3635743" lon="149.1642326">
  <ele>682.14</ele>
  <time>2026-08-27T18:28:11Z</time>
  <course>228.84</course>
  <speed>9.886035605843224</speed>
  <fix>3d</fix>
</trkpt>
<trkpt lat="-35.3635673" lon="149.1642426">
  <ele>682.1</ele>
  <time>2026-08-27T18:28:11Z</time>
  <course>228.77</course>
  <speed>9.89</speed>
  <fix>3d</fix>
</trkpt>
<trkpt lat="-35.363586" lon="149.1642162">
  <ele>682.15</ele>
  <time>2026-08-27T18:28:11Z</time>
  <course>228.73</course>
  <speed>9.906735082760616</speed>
  <fix>3d</fix>
</trkpt>
<trkpt lat="-35.363579" lon="149.1642262">
  <ele>682.11</ele>
  <time>2026-08-27T18:28:11Z</time>
  <course>228.7</course>
  <speed>9.91</speed>
  <fix>3d</fix>
</trkpt>
<trkpt lat="-35.3635979" lon="149.1641997">
  <ele>682.16</ele>
  <time>2026-08-27T18:28:11Z</time>
  <course>228.68</course>
  <speed>9.92744176512761</speed>
  <fix>3d</fix>
</trkpt>
<trkpt lat="-35.3635908" lon="149.1642097">
  <ele>682.11</ele>
  <time>2026-08-27T18:28:11Z</time>
  <course>228.65</course>
  <speed>9.93</speed>
  <fix>3d</fix>
</trkpt>
<trkpt lat="-35.3636097" lon="149.1641832">
  <ele>682.16</ele>
  <time>2026-08-27T18:28:11Z</time>
  <course>228.68</course>
  <speed>9.949070308325297</speed>
  <fix>3d</fix>
</trkpt>
<trkpt lat="-35.3636026" lon="149.1641933">
  <ele>682.12</ele>
  <time>2026-08-27T18:28:11Z</time>
  <course>228.64</course>
  <speed>9.95</speed>
  <fix>3d</fix>
</trkpt>
<trkpt lat="-35.3636215" lon="149.1641667">
  <ele>682.17</ele>
  <time>2026-08-27T18:28:11Z</time>
  <course>228.69</course>
  <speed>9.970702081598867</speed>
  <fix>3d</fix>
</trkpt>
<trkpt lat="-35.3636145" lon="149.1641768">
  <ele>682.12</ele>
  <time>2026-08-27T18:28:11Z</time>
  <course>228.65</course>
  <speed>9.97</speed>
  <fix>3d</fix>
</trkpt>
<trkpt lat="-35.3636334" lon="149.1641501">
  <ele>682.17</ele>
  <time>2026-08-27T18:28:11Z</time>
  <course>228.75</course>
  <speed>9.985754853790473</speed>
  <fix>3d</fix>
</trkpt>
<trkpt lat="-35.3636263" lon="149.1641602">
  <ele>682.12</ele>
  <time>2026-08-27T18:28:11Z</time>
  <course>228.69</course>
  <speed>9.99</speed>
  <fix>3d</fix>
</trkpt>
<trkpt lat="-35.3636453" lon="149.1641335">
  <ele>682.18</ele>
  <time>2026-08-27T18:28:11Z</time>
  <course>228.8</course>
  <speed>10.000824965971557</speed>
  <fix>3d</fix>
</trkpt>
<trkpt lat="-35.3636382" lon="149.1641437">
  <ele>682.12</ele>
  <time>2026-08-27T18:28:11Z</time>
  <course>228.74</course>
  <speed>10.01</speed>
  <fix>3d</fix>
</trkpt>
<trkpt lat="-35.3636571" lon="149.1641169">
  <ele>682.18</ele>
  <time>2026-08-27T18:28:11Z</time>
  <course>228.9</course>
  <speed>10.008366500083817</speed>
  <fix>3d</fix>
</trkpt>
<trkpt lat="-35.3636501" lon="149.164127">
  <ele>682.13</ele>
  <time>2026-08-27T18:28:11Z</time>
  <course>228.81</course>
  <speed>10.02</speed>
  <fix>3d</fix>
</trkpt>
<trkpt lat="-35.363669" lon="149.1641002">
  <ele>682.19</ele>
  <time>2026-08-27T18:28:11Z</time>
  <course>229.04</course>
  <speed>10.016910701408893</speed>
  <fix>3d</fix>
</trkpt>
<trkpt lat="-35.3636618" lon="149.1641104">
  <ele>682.13</ele>
  <time>2026-08-27T18:28:11Z</time>
  <course>228.9</course>
  <speed>10.03</speed>
  <fix>3d</fix>
</trkpt>
<trkpt lat="-35.3636808" lon="149.1640835">
  <ele>682.19</ele>
  <time>2026-08-27T18:28:11Z</time>
  <course>229.16</course>
  <speed>10.017928927677616</speed>
  <fix>3d</fix>
</trkpt>
<trkpt lat="-35.3636737" lon="149.1640938">
  <ele>682.13</ele>
  <time>2026-08-27T18:28:11Z</time>
  <course>228.99</course>
  <speed>10.03</speed>
  <fix>3d</fix>
</trkpt>
<trkpt lat="-35.3636925" lon="149.1640669">
  <ele>682.19</ele>
  <time>2026-08-27T18:28:11Z</time>
  <course>229.31</course>
  <speed>10.020024950068738</speed>
  <fix>3d</fix>
</trkpt>
<trkpt lat="-35.3636855" lon="149.164077">
  <ele>682.12</ele>
  <time>2026-08-27T18:28:11Z</time>
  <course>229.1</course>
  <speed>10.04</speed>
  <fix>3d</fix>
</trkpt>
<trkpt lat="-35.3637043" lon="149.1640501">
  <ele>682.19</ele>
  <time>2026-08-27T18:28:11Z</time>
  <course>229.41</course>
  <speed>10.021102733731453</speed>
  <fix>3d</fix>
</trkpt>
<trkpt lat="-35.3636974" lon="149.1640603">
  <ele>682.12</ele>
  <time>2026-08-27T18:28:11Z</time>
  <course>229.21</course>
  <speed>10.04</speed>
  <fix>3d</fix>
</trkpt>
<trkpt lat="-35.3637161" lon="149.1640333">
  <ele>682.19</ele>
  <time>2026-08-27T18:28:11Z</time>
  <course>229.5</course>
  <speed>10.022200357206994</speed>
  <fix>3d</fix>
</trkpt>
<trkpt lat="-35.3637091" lon="149.1640436">
  <ele>682.12</ele>
  <time>2026-08-27T18:28:11Z</time>
  <course>229.31</course>
  <speed>10.04</speed>
  <fix>3d</fix>
</trkpt>
<trkpt lat="-35.3637279" lon="149.1640164">
  <ele>682.18</ele>
  <time>2026-08-27T18:28:11Z</time>
  <course>229.58</course>
  <speed>10.023317813977565</speed>
  <fix>3d</fix>
</trkpt>
<trkpt lat="-35.3637208" lon="149.1640267">
  <ele>682.11</ele>
  <time>2026-08-27T18:28:11Z</time>
  <course>229.39</course>
  <speed>10.04</speed>
  <fix>3d</fix>
</trkpt>
<trkpt lat="-35.3637396" lon="149.1639996">
  <ele>682.18</ele>
  <time>2026-08-27T18:28:11Z</time>
  <course>229.68</course>
  <speed>10.016835827745206</speed>
  <fix>3d</fix>
</trkpt>
<trkpt lat="-35.3637326" lon="149.1640099">
  <ele>682.11</ele>
  <time>2026-08-27T18:28:11Z</time>
  <course>229.47</course>
  <speed>10.04</speed>
  <fix>3d</fix>
</trkpt>
<trkpt lat="-35.3637514" lon="149.1639827">
  <ele>682.18</ele>
  <time>2026-08-27T18:28:11Z</time>
  <course>229.74</course>
  <speed>10.017983829094556</speed>
  <fix>3d</fix>
</trkpt>
<trkpt lat="-35.3637444" lon="149.163993">
  <ele>682.11</ele>
  <time>2026-08-27T18:28:11Z</time>
  <course>229.53</course>
  <speed>10.04</speed>
  <fix>3d</fix>
</trkpt>
<trkpt lat="-35.3637631" lon="149.1639659">
  <ele>682.18</ele>
  <time>2026-08-27T18:28:11Z</time>
  <course>229.82</course>
  <speed>10.011518366361818</speed>
  <fix>3d</fix>
</trkpt>
<trkpt lat="-35.3637561" lon="149.1639763">
  <ele>682.11</ele>
  <time>2026-08-27T18:28:11Z</time>
  <course>229.58</course>
  <speed>10.03</speed>
  <fix>3d</fix>
</trkpt>
<trkpt lat="-35.3637748" lon="149.163949">
  <ele>682.17</ele>
  <time>2026-08-27T18:28:11Z</time>
  <course>229.85</course>
  <speed>9.997424668383353</speed>
  <fix>3d</fix>
</trkpt>
<trkpt lat="-35.3637677" lon="149.1639594">
  <ele>682.1</ele>
  <time>2026-08-27T18:28:11Z</time>
  <course>229.62</course>
  <speed>10.02</speed>
  <fix>3d</fix>
</trkpt>
<trkpt lat="-35.3637864" lon="149.1639322">
  <ele>682.17</ele>
  <time>2026-08-27T18:28:11Z</time>
  <course>229.88</course>
  <speed>9.983331107400977</speed>
  <fix>3d</fix>
</trkpt>
<trkpt lat="-35.3637794" lon="149.1639425">
  <ele>682.1</ele>
  <time>2026-08-27T18:28:11Z</time>
  <course>229.64</course>
  <speed>10.01</speed>
  <fix>3d</fix>
</trkpt>
<trkpt lat="-35.363798" lon="149.1639155">
  <ele>682.17</ele>
  <time>2026-08-27T18:28:11Z</time>
  <course>229.93</course>
  <speed>9.969237683995702</speed>
  <fix>3d</fix>
</trkpt>
<trkpt lat="-35.363791" lon="149.1639258">
  <ele>682.1</ele>
  <time>2026-08-27T18:28:11Z</time>
  <course>229.65</course>
  <speed>10.0</speed>
  <fix>3d</fix>
</trkpt>
<trkpt lat="-35.3638096" lon="149.1638988">
  <ele>682.17</ele>
  <time>2026-08-27T18:28:11Z</time>
  <course>229.91</course>
  <speed>9.961606296175331</speed>
  <fix>3d</fix>
</trkpt>
<trkpt lat="-35.3638026" lon="149.163909">
  <ele>682.1</ele>
  <time>2026-08-27T18:28:11Z</time>
  <course>229.65</course>
  <speed>9.98</speed>
  <fix>3d</fix>
</trkpt>
<trkpt lat="-35.3638211" lon="149.1638821">
  <ele>682.17</ele>
  <time>2026-08-27T18:28:11Z</time>
  <course>229.89</course>
  <speed>9.953979103855904</speed>
  <fix>3d</fix>
</trkpt>
<trkpt lat="-35.3638143" lon="149.1638922">
  <ele>682.1</ele>
  <time>2026-08-27T18:28:11Z</time>
  <course>229.64</course>
  <speed>9.98</speed>
  <fix>3d</fix>
</trkpt>
<trkpt lat="-35.3638327" lon="149.1638654">
  <ele>682.17</ele>
  <time>2026-08-27T18:28:11Z</time>
  <course>229.78</course>
  <speed>9.953979103855904</speed>
  <fix>3d</fix>
</trkpt>
<trkpt lat="-35.3638258" lon="149.1638755">
  <ele>682.1</ele>
  <time>2026-08-27T18:28:11Z</time>
  <course>229.62</course>
  <speed>9.97</speed>
  <fix>3d</fix>
</trkpt>
<trkpt lat="-35.3638444" lon="149.1638486">
  <ele>682.17</ele>
  <time>2026-08-27T18:28:11Z</time>
  <course>229.69</course>
  <speed>9.960451796981902</speed>
  <fix>3d</fix>
</trkpt>
<trkpt lat="-35.3638375" lon="149.1638588">
  <ele>682.09</ele>
  <time>2026-08-27T18:28:11Z</time>
  <course>229.58</course>
  <speed>9.97</speed>
  <fix>3d</fix>
</trkpt>
<trkpt lat="-35.363856" lon="149.1638319">
  <ele>682.17</ele>
  <time>2026-08-27T18:28:11Z</time>
  <course>229.61</course>
  <speed>9.959317245675027</speed>
  <fix>3d</fix>
</trkpt>
<trkpt lat="-35.3638491" lon="149.1638421">
  <ele>682.09</ele>
  <time>2026-08-27T18:28:11Z</time>
  <course>229.53</course>
  <speed>9.98</speed>
  <fix>3d</fix>
</trkpt>
<trkpt lat="-35.3638677" lon="149.1638151">
  <ele>682.16</ele>
  <time>2026-08-27T18:28:11Z</time>
  <course>229.55</course>
  <speed>9.965806540365913</speed>
  <fix>3d</fix>
</trkpt>
<trkpt lat="-35.3638608" lon="149.1638253">
  <ele>682.09</ele>
  <time>2026-08-27T18:28:11Z</time>
  <course>229.46</course>
  <speed>9.98</speed>
  <fix>3d</fix>
</trkpt>
<trkpt lat="-35.3638794" lon="149.1637984">
  <ele>682.16</ele>
  <time>2026-08-27T18:28:11Z</time>
  <course>229.48</course>
  <speed>9.964702705048456</speed>
  <fix>3d</fix>
</trkpt>
<trkpt lat="-35.3638725" lon="149.1638086">
  <ele>682.09</ele>
  <time>2026-08-27T18:28:11Z</time>
  <course>229.4</course>
  <speed>9.98</speed>
  <fix>3d</fix>
</trkpt>
<trkpt lat="-35.3638911" lon="149.1637817">
  <ele>682.15</ele>
  <time>2026-08-27T18:28:11Z</time>
  <course>229.41</course>
  <speed>9.957108013876319</speed>
  <fix>3d</fix>
</trkpt>
<trkpt lat="-35.3638841" lon="149.1637919">
  <ele>682.09</ele>
  <time>2026-08-27T18:28:11Z</time>
  <course>229.34</course>
  <speed>9.97</speed>
  <fix>3d</fix>
</trkpt>
<trkpt lat="-35.3639028" lon="149.1637651">
  <ele>682.15</ele>
  <time>2026-08-27T18:28:11Z</time>
  <course>229.36</course>
  <speed>9.956033346669747</speed>
  <fix>3d</fix>
</trkpt>
<trkpt lat="-35.3638958" lon="149.1637752">
  <ele>682.09</ele>
  <time>2026-08-27T18:28:11Z</time>
  <course>229.29</course>
  <speed>9.97</speed>
  <fix>3d</fix>
</trkpt>
<trkpt lat="-35.3639144" lon="149.1637485">
  <ele>682.16</ele>
  <time>2026-08-27T18:28:11Z</time>
  <course>229.31</course>
  <speed>9.956033346669747</speed>
  <fix>3d</fix>
</trkpt>
<trkpt lat="-35.3639075" lon="149.1637586">
  <ele>682.09</ele>
  <time>2026-08-27T18:28:11Z</time>
  <course>229.24</course>
  <speed>9.97</speed>
  <fix>3d</fix>
</trkpt>
<trkpt lat="-35.3639261" lon="149.1637319">
  <ele>682.16</ele>
  <time>2026-08-27T18:28:11Z</time>
  <course>229.28</course>
  <speed>9.948452140911167</speed>
  <fix>3d</fix>
</trkpt>
<trkpt lat="-35.3639192" lon="149.163742">
  <ele>682.09</ele>
  <time>2026-08-27T18:28:11Z</time>
  <course>229.2</course>
  <speed>9.97</speed>
  <fix>3d</fix>
</trkpt>
<trkpt lat="-35.3639378" lon="149.1637153">
  <ele>682.16</ele>
  <time>2026-08-27T18:28:11Z</time>
  <course>229.22</course>
  <speed>9.954978653919857</speed>
  <fix>3d</fix>
</trkpt>
<trkpt lat="-35.3639309" lon="149.1637253">
  <ele>682.09</ele>
  <time>2026-08-27T18:28:11Z</time>
  <course>229.18</course>
  <speed>9.97</speed>
  <fix>3d</fix>
</trkpt>
<trkpt lat="-35.3639495" lon="149.1636987">
  <ele>682.16</ele>
  <time>2026-08-27T18:28:11Z</time>
  <course>229.16</course>
  <speed>9.954978653919857</speed>
  <fix>3d</fix>
</trkpt>
<trkpt lat="-35.3639426" lon="149.1637087">
  <ele>682.1</ele>
  <time>2026-08-27T18:28:11Z</time>
  <course>229.15</course>
  <speed>9.97</speed>
  <fix>3d</fix>
</trkpt>
<trkpt lat="-35.3639612" lon="149.1636821">
  <ele>682.17</ele>
  <time>2026-08-27T18:28:11Z</time>
  <course>229.12</course>
  <speed>9.96908220449606</speed>
  <fix>3d</fix>
</trkpt>
<trkpt lat="-35.3639543" lon="149.1636921">
  <ele>682.1</ele>
  <time>2026-08-27T18:28:11Z</time>
  <course>229.13</course>
  <speed>9.98</speed>
  <fix>3d</fix>
</trkpt>
<trkpt lat="-35.363973" lon="149.1636653">
  <ele>682.17</ele>
  <time>2026-08-27T18:28:11Z</time>
  <course>229.11</course>
  <speed>9.96908220449606</speed>
  <fix>3d</fix>
</trkpt>
<trkpt lat="-35.3639661" lon="149.1636755">
  <ele>682.1</ele>
  <time>2026-08-27T18:28:11Z</time>
  <course>229.12</course>
  <speed>9.98</speed>
  <fix>3d</fix>
</trkpt>
<trkpt lat="-35.3639848" lon="149.1636486">
  <ele>682.16</ele>
  <time>2026-08-27T18:28:11Z</time>
  <course>229.07</course>
  <speed>9.983185864241936</speed>
  <fix>3d</fix>
</trkpt>
<trkpt lat="-35.3639778" lon="149.1636588">
  <ele>682.09</ele>
  <time>2026-08-27T18:28:11Z</time>
  <course>229.11</course>
  <speed>9.99</speed>
  <fix>3d</fix>
</trkpt>
<trkpt lat="-35.3639966" lon="149.1636319">
  <ele>682.17</ele>
  <time>2026-08-27T18:28:11Z</time>
  <course>229.1</course>
  <speed>9.983185864241936</speed>
  <fix>3d</fix>
</trkpt>
<trkpt lat="-35.3639896" lon="149.1636421">
  <ele>682.09</ele>
  <time>2026-08-27T18:28:11Z</time>
  <course>229.11</course>
  <speed>9.99</speed>
  <fix>3d</fix>
</trkpt>
<trkpt lat="-35.3640084" lon="149.1636152">
  <ele>682.17</ele>
  <time>2026-08-27T18:28:11Z</time>
  <course>229.15</course>
  <speed>9.983185864241936</speed>
  <fix>3d</fix>
</trkpt>
<trkpt lat="-35.3640014" lon="149.1636255">
  <ele>682.09</ele>
  <time>2026-08-27T18:28:11Z</time>
  <course>229.11</course>
  <speed>9.99</speed>
  <fix>3d</fix>
</trkpt>
<trkpt lat="-35.3640202" lon="149.1635986">
  <ele>682.17</ele>
  <time>2026-08-27T18:28:11Z</time>
  <course>229.17</course>
  <speed>9.983185864241936</speed>
  <fix>3d</fix>
</trkpt>
<trkpt lat="-35.3640131" lon="149.1636088">
  <ele>682.1</ele>
  <time>2026-08-27T18:28:11Z</time>
  <course>229.13</course>
  <speed>9.99</speed>
  <fix>3d</fix>
</trkpt>
<trkpt lat="-35.3640319" lon="149.1635819">
  <ele>682.18</ele>
  <time>2026-08-27T18:28:11Z</time>
  <course>229.21</course>
  <speed>9.976657756984551</speed>
  <fix>3d</fix>
</trkpt>
<trkpt lat="-35.3640249" lon="149.1635921">
  <ele>682.1</ele>
  <time>2026-08-27T18:28:11Z</time>
  <course>229.15</course>
  <speed>9.99</speed>
  <fix>3d</fix>
</trkpt>
<trkpt lat="-35.3640437" lon="149.1635652">
  <ele>682.18</ele>
  <time>2026-08-27T18:28:11Z</time>
  <course>229.23</course>
  <speed>9.984237577301535</speed>
  <fix>3d</fix>
</trkpt>
<trkpt lat="-35.3640366" lon="149.1635755">
  <ele>682.1</ele>
  <time>2026-08-27T18:28:11Z</time>
  <course>229.18</course>
  <speed>9.99</speed>
  <fix>3d</fix>
</trkpt>
<trkpt lat="-35.3640554" lon="149.1635485">
  <ele>682.17</ele>
  <time>2026-08-27T18:28:11Z</time>
  <course>229.27</course>
  <speed>9.977720180482113</speed>
  <fix>3d</fix>
</trkpt>
<trkpt lat="-35.3640483" lon="149.1635589">
  <ele>682.09</ele>
  <time>2026-08-27T18:28:11Z</time>
  <course>229.22</course>
  <speed>9.99</speed>
  <fix>3d</fix>
</trkpt>
<trkpt lat="-35.3640671" lon="149.1635318">
  <ele>682.17</ele>
  <time>2026-08-27T18:28:11Z</time>
  <course>229.31</course>
  <speed>9.977720180482113</speed>
  <fix>3d</fix>
</trkpt>
<trkpt lat="-35.36406" lon="149.1635422">
  <ele>682.09</ele>
  <time>2026-08-27T18:28:11Z</time>
  <course>229.25</course>
  <speed>9.98</speed>
  <fix>3d</fix>
</trkpt>
<trkpt lat="-35.3640789" lon="149.1635151">
  <ele>682.17</ele>
  <time>2026-08-27T18:28:11Z</time>
  <course>229.33</course>
  <speed>9.97120855262791</speed>
  <fix>3d</fix>
</trkpt>
<trkpt lat="-35.3640717" lon="149.1635255">
  <ele>682.09</ele>
  <time>2026-08-27T18:28:11Z</time>
  <course>229.28</course>
  <speed>9.98</speed>
  <fix>3d</fix>
</trkpt>
<trkpt lat="-35.3640906" lon="149.1634983">
  <ele>682.16</ele>
  <time>2026-08-27T18:28:11Z</time>
  <course>229.35</course>
  <speed>9.978802533370423</speed>
  <fix>3d</fix>
</trkpt>
<trkpt lat="-35.3640834" lon="149.1635089">
  <ele>682.09</ele>
  <time>2026-08-27T18:28:11Z</time>
  <course>229.31</course>
  <speed>9.98</speed>
  <fix>3d</fix>
</trkpt>
<trkpt lat="-35.3641023" lon="149.1634816">
  <ele>682.16</ele>
  <time>2026-08-27T18:28:11Z</time>
  <course>229.37</course>
  <speed>9.972301640042785</speed>
  <fix>3d</fix>
</trkpt>
<trkpt lat="-35.3640951" lon="149.1634922">
  <ele>682.09</ele>
  <time>2026-08-27T18:28:11Z</time>
  <course>229.34</course>
  <speed>9.98</speed>
  <fix>3d</fix>
</trkpt>
<trkpt lat="-35.364114" lon="149.1634649">
  <ele>682.16</ele>
  <time>2026-08-27T18:28:11Z</time>
  <course>229.37</course>
  <speed>9.972301640042785</speed>
  <fix>3d</fix>
</trkpt>
<trkpt lat="-35.3641068" lon="149.1634755">
  <ele>682.09</ele>
  <time>2026-08-27T18:28:11Z</time>
  <course>229.36</course>
  <speed>9.98</speed>
  <fix>3d</fix>
</trkpt>
<trkpt lat="-35.3641257" lon="149.1634483">
  <ele>682.16</ele>
  <time>2026-08-27T18:28:11Z</time>
  <course>229.4</course>
  <speed>9.972301640042785</speed>
  <fix>3d</fix>
</trkpt>
<trkpt lat="-35.3641185" lon="149.1634587">
  <ele>682.09</ele>
  <time>2026-08-27T18:28:11Z</time>
  <course>229.37</course>
  <speed>9.98</speed>
  <fix>3d</fix>
</trkpt>
<trkpt lat="-35.3641373" lon="149.1634316">
  <ele>682.17</ele>
  <time>2026-08-27T18:28:11Z</time>
  <course>229.38</course>
  <speed>9.965806540365913</speed>
  <fix>3d</fix>
</trkpt>
<trkpt lat="-35.3641302" lon="149.1634421">
  <ele>682.09</ele>
  <time>2026-08-27T18:28:11Z</time>
  <course>229.38</course>
  <speed>9.98</speed>
  <fix>3d</fix>
</trkpt>
<trkpt lat="-35.3641489" lon="149.163415">
  <ele>682.16</ele>
  <time>2026-08-27T18:28:11Z</time>
  <course>229.38</course>
  <speed>9.965806540365913</speed>
  <fix>3d</fix>
</trkpt>
<trkpt lat="-35.3641418" lon="149.1634254">
  <ele>682.09</ele>
  <time>2026-08-27T18:28:11Z</time>
  <course>229.38</course>
  <speed>9.98</speed>
  <fix>3d</fix>
</trkpt>
<trkpt lat="-35.3641605" lon="149.1633984">
  <ele>682.16</ele>
  <time>2026-08-27T18:28:11Z</time>
  <course>229.33</course>
  <speed>9.972301640042785</speed>
  <fix>3d</fix>
</trkpt>
<trkpt lat="-35.3641535" lon="149.1634087">
  <ele>682.09</ele>
  <time>2026-08-27T18:28:11Z</time>
  <course>229.38</course>
  <speed>9.98</speed>
  <fix>3d</fix>
</trkpt>
<trkpt lat="-35.3641722" lon="149.1633817">
  <ele>682.16</ele>
  <time>2026-08-27T18:28:11Z</time>
  <course>229.29</course>
  <speed>9.972301640042785</speed>
  <fix>3d</fix>
</trkpt>
<trkpt lat="-35.3641652" lon="149.163392">
  <ele>682.08</ele>
  <time>2026-08-27T18:28:11Z</time>
  <course>229.37</course>
  <speed>9.99</speed>
  <fix>3d</fix>
</trkpt>
<trkpt lat="-35.3641838" lon="149.1633652">
  <ele>682.16</ele>
  <time>2026-08-27T18:28:11Z</time>
  <course>229.24</course>
  <speed>9.986400753024085</speed>
  <fix>3d</fix>
</trkpt>
<trkpt lat="-35.3641769" lon="149.1633752">
  <ele>682.08</ele>
  <time>2026-08-27T18:28:11Z</time>
  <course>229.36</course>
  <speed>10.0</speed>
  <fix>3d</fix>
</trkpt>
<trkpt lat="-35.3641955" lon="149.1633485">
  <ele>682.16</ele>
  <time>2026-08-27T18:28:11Z</time>
  <course>229.21</course>
  <speed>9.992902481261387</speed>
  <fix>3d</fix>
</trkpt>
<trkpt lat="-35.3641886" lon="149.1633585">
  <ele>682.08</ele>
  <time>2026-08-27T18:28:11Z</time>
  <course>229.35</course>
  <speed>10.01</speed>
  <fix>3d</fix>
</trkpt>
<trkpt lat="-35.3642073" lon="149.1633316">
  <ele>682.16</ele>
  <time>2026-08-27T18:28:11Z</time>
  <course>229.19</course>
  <speed>10.007002548215924</speed>
  <fix>3d</fix>
</trkpt>
<trkpt lat="-35.3642003" lon="149.1633418">
  <ele>682.08</ele>
  <time>2026-08-27T18:28:11Z</time>
  <course>229.33</course>
  <speed>10.02</speed>
  <fix>3d</fix>
</trkpt>
<trkpt lat="-35.364219" lon="149.1633149">
  <ele>682.16</ele>
  <time>2026-08-27T18:28:11Z</time>
  <course>229.18</course>
  <speed>10.007002548215924</speed>
  <fix>3d</fix>
</trkpt>
<trkpt lat="-35.3642121" lon="149.1633251">
  <ele>682.08</ele>
  <time>2026-08-27T18:28:11Z</time>
  <course>229.3</course>
  <speed>10.03</speed>
  <fix>3d</fix>
</trkpt>
<trkpt lat="-35.3642308" lon="149.1632981">
  <ele>682.16</ele>
  <time>2026-08-27T18:28:11Z</time>
  <course>229.15</course>
  <speed>10.013510872815788</speed>
  <fix>3d</fix>
</trkpt>
<trkpt lat="-35.3642239" lon="149.1633082">
  <ele>682.08</ele>
  <time>2026-08-27T18:28:11Z</time>
  <course>229.29</course>
  <speed>10.03</speed>
  <fix>3d</fix>
</trkpt>
<trkpt lat="-35.3642426" lon="149.1632813">
  <ele>682.16</ele>
  <time>2026-08-27T18:28:11Z</time>
  <course>229.17</course>
  <speed>10.013510872815788</speed>
  <fix>3d</fix>
</trkpt>
<trkpt lat="-35.3642356" lon="149.1632915">
  <ele>682.08</ele>
  <time>2026-08-27T18:28:11Z</time>
  <course>229.27</course>
  <speed>10.04</speed>
  <fix>3d</fix>
</trkpt>
<trkpt lat="-35.3642544" lon="149.1632645">
  <ele>682.16</ele>
  <time>2026-08-27T18:28:11Z</time>
  <course>229.21</course>
  <speed>10.013510872815788</speed>
  <fix>3d</fix>
</trkpt>
<trkpt lat="-35.3642474" lon="149.1632747">
  <ele>682.09</ele>
  <time>2026-08-27T18:28:11Z</time>
  <course>229.27</course>
  <speed>10.04</speed>
  <fix>3d</fix>
</trkpt>
<trkpt lat="-35.3642661" lon="149.1632477">
  <ele>682.17</ele>
  <time>2026-08-27T18:28:11Z</time>
  <course>229.23</course>
  <speed>10.013510872815788</speed>
  <fix>3d</fix>
</trkpt>
<trkpt lat="-35.3642592" lon="149.1632579">
  <ele>682.09</ele>
  <time>2026-08-27T18:28:11Z</time>
  <course>229.27</course>
  <speed>10.03</speed>
  <fix>3d</fix>
</trkpt>
<trkpt lat="-35.3642779" lon="149.163231">
  <ele>682.17</ele>
  <time>2026-08-27T18:28:11Z</time>
  <course>229.28</course>
  <speed>9.999409982593972</speed>
  <fix>3d</fix>
</trkpt>
<trkpt lat="-35.3642709" lon="149.1632412">
  <ele>682.09</ele>
  <time>2026-08-27T18:28:11Z</time>
  <course>229.27</course>
  <speed>10.02</speed>
  <fix>3d</fix>
</trkpt>
<trkpt lat="-35.3642897" lon="149.1632142">
  <ele>682.17</ele>
  <time>2026-08-27T18:28:11Z</time>
  <course>229.3</course>
  <speed>9.999409982593972</speed>
  <fix>3d</fix>
</trkpt>
<trkpt lat="-35.3642827" lon="149.1632245">
  <ele>682.1</ele>
  <time>2026-08-27T18:28:11Z</time>
  <course>229.28</course>
  <speed>10.02</speed>
  <fix>3d</fix>
</trkpt>
<trkpt lat="-35.3643014" lon="149.1631976">
  <ele>682.17</ele>
  <time>2026-08-27T18:28:11Z</time>
  <course>229.32</course>
  <speed>9.985309209033039</speed>
  <fix>3d</fix>
</trkpt>
<trkpt lat="-35.3642944" lon="149.1632077">
  <ele>682.1</ele>
  <time>2026-08-27T18:28:11Z</time>
  <course>229.29</course>
  <speed>10.01</speed>
  <fix>3d</fix>
</trkpt>
<trkpt lat="-35.3643131" lon="149.1631808">
  <ele>682.17</ele>
  <time>2026-08-27T18:28:11Z</time>
  <course>229.33</course>
  <speed>9.978802533370423</speed>
  <fix>3d</fix>
</trkpt>
<trkpt lat="-35.3643061" lon="149.163191">
  <ele>682.1</ele>
  <time>2026-08-27T18:28:11Z</time>
  <course>229.31</course>
  <speed>10.0</speed>
  <fix>3d</fix>
</trkpt>
<trkpt lat="-35.3643249" lon="149.163164">
  <ele>682.18</ele>
  <time>2026-08-27T18:28:11Z</time>
  <course>229.31</course>
  <speed>9.978802533370423</speed>
  <fix>3d</fix>
</trkpt>
<trkpt lat="-35.3643178" lon="149.1631743">
  <ele>682.1</ele>
  <time>2026-08-27T18:28:11Z</time>
  <course>229.32</course>
  <speed>9.99</speed>
  <fix>3d</fix>
</trkpt>
<trkpt lat="-35.3643366" lon="149.1631472">
  <ele>682.18</ele>
  <time>2026-08-27T18:28:11Z</time>
  <course>229.34</course>
  <speed>9.97120855262791</speed>
  <fix>3d</fix>
</trkpt>
<trkpt lat="-35.3643295" lon="149.1631576">
  <ele>682.1</ele>
  <time>2026-08-27T18:28:11Z</time>
  <course>229.32</course>
  <speed>9.99</speed>
  <fix>3d</fix>
</trkpt>
<trkpt lat="-35.3643483" lon="149.1631305">
  <ele>682.18</ele>
  <time>2026-08-27T18:28:11Z</time>
  <course>229.37</course>
  <speed>9.964702705048456</speed>
  <fix>3d</fix>
</trkpt>
<trkpt lat="-35.3643413" lon="149.1631409">
  <ele>682.09</ele>
  <time>2026-08-27T18:28:11Z</time>
  <course>229.33</course>
  <speed>9.98</speed>
  <fix>3d</fix>
</trkpt>
<trkpt lat="-35.36436" lon="149.1631138">
  <ele>682.18</ele>
  <time>2026-08-27T18:28:11Z</time>
  <course>229.36</course>
  <speed>9.964702705048456</speed>
  <fix>3d</fix>
</trkpt>
<trkpt lat="-35.3643529" lon="149.1631242">
  <ele>682.09</ele>
  <time>2026-08-27T18:28:11Z</time>
  <course>229.33</course>
  <speed>9.97</speed>
  <fix>3d</fix>
</trkpt>
<trkpt lat="-35.3643717" lon="149.1630971">
  <ele>682.18</ele>
  <time>2026-08-27T18:28:11Z</time>
  <course>229.32</course>
  <speed>9.950602996803761</speed>
  <fix>3d</fix>
</trkpt>
<trkpt lat="-35.3643646" lon="149.1631075">
  <ele>682.09</ele>
  <time>2026-08-27T18:28:11Z</time>
  <course>229.33</course>
  <speed>9.96</speed>
  <fix>3d</fix>
</trkpt>
<trkpt lat="-35.3643834" lon="149.1630805">
  <ele>682.18</ele>
  <time>2026-08-27T18:28:11Z</time>
  <course>229.36</course>
  <speed>9.914807108562426</speed>
  <fix>3d</fix>
</trkpt>
<trkpt lat="-35.3643763" lon="149.1630908">
  <ele>682.09</ele>
  <time>2026-08-27T18:28:11Z</time>
  <course>229.33</course>
  <speed>9.94</speed>
  <fix>3d</fix>
</trkpt>
<trkpt lat="-35.364395" lon="149.163064">
  <ele>682.19</ele>
  <time>2026-08-27T18:28:11Z</time>
  <course>229.59</course>
  <speed>9.829120001302252</speed>
  <fix>3d</fix>
</trkpt>
<trkpt lat="-35.3643878" lon="149.1630743">
  <ele>682.09</ele>
  <time>2026-08-27T18:28:11Z</time>
  <course>229.32</course>
  <speed>9.9</speed>
  <fix>3d</fix>
</trkpt>
<trkpt lat="-35.3644064" lon="149.1630476">
  <ele>682.2</ele>
  <time>2026-08-27T18:28:11Z</time>
  <course>229.98</course>
  <speed>9.680521680157533</speed>
  <fix>3d</fix>
</trkpt>
<trkpt lat="-35.3643994" lon="149.1630578">
  <ele>682.11</ele>
  <time>2026-08-27T18:28:11Z</time>
  <course>229.31</course>
  <speed>9.8</speed>
  <fix>3d</fix>
</trkpt>
<trkpt lat="-35.3644177" lon="149.1630315">
  <ele>682.24</ele>
  <time>2026-08-27T18:28:11Z</time>
  <course>230.47</course>
  <speed>9.48203037329031</speed>
  <fix>3d</fix>
</trkpt>
<trkpt lat="-35.3644108" lon="149.1630416">
  <ele>682.13</ele>
  <time>2026-08-27T18:28:11Z</time>
  <course>229.33</course>
  <speed>9.64</speed>
  <fix>3d</fix>
</trkpt>
<trkpt lat="-35.3644286" lon="149.1630159">
  <ele>682.27</ele>
  <time>2026-08-27T18:28:11Z</time>
  <course>231.02</course>
  <speed>9.234738761870853</speed>
  <fix>3d</fix>
</trkpt>
<trkpt lat="-35.364422" lon="149.1630257">
  <ele>682.16</ele>
  <time>2026-08-27T18:28:11Z</time>
  <course>229.39</course>
  <speed>9.43</speed>
  <fix>3d</fix>
</trkpt>
<trkpt lat="-35.3644393" lon="149.1630006">
  <ele>682.3</ele>
  <time>2026-08-27T18:28:11Z</time>
  <course>231.55</course>
  <speed>8.945171882082535</speed>
  <fix>3d</fix>
</trkpt>
<trkpt lat="-35.3644328" lon="149.1630101">
  <ele>682.19</ele>
  <time>2026-08-27T18:28:11Z</time>
  <course>229.51</course>
  <speed>9.17</speed>
  <fix>3d</fix>
</trkpt>
<trkpt lat="-35.3644496" lon="149.1629857">
  <ele>682.32</ele>
  <time>2026-08-27T18:28:11Z</time>
  <course>232.06</course>
  <speed>8.606886777459083</speed>
  <fix>3d</fix>
</trkpt>
<trkpt lat="-35.3644433" lon="149.1629949">
  <ele>682.22</ele>
  <time>2026-08-27T18:28:11Z</time>
  <course>229.67</course>
  <speed>8.86</speed>
  <fix>3d</fix>
</trkpt>
<trkpt lat="-35.3644594" lon="149.1629715">
  <ele>682.33</ele>
  <time>2026-08-27T18:28:11Z</time>
  <course>232.54</course>
  <speed>8.225211243487914</speed>
  <fix>3d</fix>
</trkpt>
<trkpt lat="-35.3644534" lon="149.1629803">
  <ele>682.24</ele>
  <time>2026-08-27T18:28:11Z</time>
  <course>229.85</course>
  <speed>8.51</speed>
  <fix>3d</fix>
</trkpt>
<trkpt lat="-35.3644687" lon="149.162958">
  <ele>682.33</ele>
  <time>2026-08-27T18:28:11Z</time>
  <course>232.94</course>
  <speed>7.801313991886238</speed>
  <fix>3d</fix>
</trkpt>
<trkpt lat="-35.364463" lon="149.1629663">
  <ele>682.25</ele>
  <time>2026-08-27T18:28:11Z</time>
  <course>230.04</course>
  <speed>8.12</speed>
  <fix>3d</fix>
</trkpt>
<trkpt lat="-35.3644774" lon="149.1629451">
  <ele>682.33</ele>
  <time>2026-08-27T18:28:11Z</time>
  <course>233.25</course>
  <speed>7.333955276656655</speed>
  <fix>3d</fix>
</trkpt>
<trkpt lat="-35.3644721" lon="149.1629529">
  <ele>682.26</ele>
  <time>2026-08-27T18:28:11Z</time>
  <course>230.23</course>
  <speed>7.68</speed>
  <fix>3d</fix>
</trkpt>
<trkpt lat="-35.3644856" lon="149.1629331">
  <ele>682.33</ele>
  <time>2026-08-27T18:28:11Z</time>
  <course>233.5</course>
  <speed>6.830768624393597</speed>
  <fix>3d</fix>
</trkpt>
<trkpt lat="-35.3644807" lon="149.1629403">
  <ele>682.25</ele>
  <time>2026-08-27T18:28:11Z</time>
  <course>230.42</course>
  <speed>7.2</speed>
  <fix>3d</fix>
</trkpt>
<trkpt lat="-35.3644931" lon="149.1629219">
  <ele>682.32</ele>
  <time>2026-08-27T18:28:11Z</time>
  <course>233.72</course>
  <speed>6.285355996282152</speed>
  <fix>3d</fix>
</trkpt>
<trkpt lat="-35.3644886" lon="149.1629285">
  <ele>682.24</ele>
  <time>2026-08-27T18:28:11Z</time>
  <course>230.58</course>
  <speed>6.68</speed>
  <fix>3d</fix>
</trkpt>
<trkpt lat="-35.3645" lon="149.1629116">
  <ele>682.3</ele>
  <time>2026-08-27T18:28:11Z</time>
  <course>233.94</course>
  <speed>5.710481590899318</speed>
  <fix>3d</fix>
</trkpt>
<trkpt lat="-35.364496" lon="149.1629175">
  <ele>682.23</ele>
  <time>2026-08-27T18:28:11Z</time>
  <course>230.73</course>
  <speed>6.13</speed>
  <fix>3d</fix>
</trkpt>
<trkpt lat="-35.3645062" lon="149.1629022">
  <ele>682.28</ele>
  <time>2026-08-27T18:28:11Z</time>
  <course>234.26</course>
  <speed>5.138375229583764</speed>
  <fix>3d</fix>
</trkpt>
<trkpt lat="-35.3645026" lon="149.1629075">
  <ele>682.2</ele>
  <time>2026-08-27T18:28:11Z</time>
  <course>230.96</course>
  <speed>5.55</speed>
  <fix>3d</fix>
</trkpt>
<trkpt lat="-35.3645117" lon="149.1628939">
  <ele>682.24</ele>
  <time>2026-08-27T18:28:11Z</time>
  <course>234.82</course>
  <speed>4.554031181272258</speed>
  <fix>3d</fix>
</trkpt>
<trkpt lat="-35.3645085" lon="149.1628985">
  <ele>682.18</ele>
  <time>2026-08-27T18:28:11Z</time>
  <course>231.46</course>
  <speed>4.97</speed>
  <fix>3d</fix>
</trkpt>
<trkpt lat="-35.3645164" lon="149.1628863">
  <ele>682.2</ele>
  <time>2026-08-27T18:28:11Z</time>
  <course>235.99</course>
  <speed>3.9700125944384608</speed>
  <fix>3d</fix>
</trkpt>
<trkpt lat="-35.3645136" lon="149.1628904">
  <ele>682.15</ele>
  <time>2026-08-27T18:28:11Z</time>
  <course>232.51</course>
  <speed>4.38</speed>
  <fix>3d</fix>
</trkpt>
<trkpt lat="-35.3645203" lon="149.1628796">
  <ele>682.16</ele>
  <time>2026-08-27T18:28:11Z</time>
  <course>238.2</course>
  <speed>3.38940997815254</speed>
  <fix>3d</fix>
</trkpt>
<trkpt lat="-35.3645181" lon="149.1628832">
  <ele>682.11</ele>
  <time>2026-08-27T18:28:11Z</time>
  <course>234.44</course>
  <speed>3.79</speed>
  <fix>3d</fix>
</trkpt>
<trkpt lat="-35.3645233" lon="149.1628736">
  <ele>682.1</ele>
  <time>2026-08-27T18:28:11Z</time>
  <course>241.86</course>
  <speed>2.816842203603177</speed>
  <fix>3d</fix>
</trkpt>
<trkpt lat="-35.3645216" lon="149.1628768">
  <ele>682.06</ele>
  <time>2026-08-27T18:28:11Z</time>
  <course>237.76</course>
  <speed>3.21</speed>
  <fix>3d</fix>
</trkpt>
<trkpt lat="-35.3645253" lon="149.1628684">
  <ele>682.04</ele>
  <time>2026-08-27T18:28:11Z</time>
  <course>247.66</course>
  <speed>2.30633909042014</speed>
  <fix>3d</fix>
</trkpt>
<trkpt lat="-35.3645243" lon="149.1628711">
  <ele>682.01</ele>
  <time>2026-08-27T18:28:11Z</time>
  <course>243.31</course>
  <speed>2.66</speed>
  <fix>3d</fix>
</trkpt>
<trkpt lat="-35.3645263" lon="149.1628639">
  <ele>681.97</ele>
  <time>2026-08-27T18:28:11Z</time>
  <course>256.53</course>
  <speed>1.88403821617291</speed>
  <fix>3d</fix>
</trkpt>
<trkpt lat="-35.3645259" lon="149.1628663">
  <ele>681.94</ele>
  <time>2026-08-27T18:28:11Z</time>
  <course>252.46</course>
  <speed>2.17</speed>
  <fix>3d</fix>
</trkpt>
<trkpt lat="-35.3645263" lon="149.16286">
  <ele>681.9</ele>
  <time>2026-08-27T18:28:11Z</time>
  <course>267.93</course>
  <speed>1.6637307474468337</speed>
  <fix>3d</fix>
</trkpt>
<trkpt lat="-35.3645266" lon="149.162862">
  <ele>681.88</ele>
  <time>2026-08-27T18:28:11Z</time>
  <course>267.13</course>
  <speed>1.8</speed>
  <fix>3d</fix>
</trkpt>
<trkpt lat="-35.3645253" lon="149.1628564">
  <ele>681.81</ele>
  <time>2026-08-27T18:28:11Z</time>
  <course>278.43</course>
  <speed>1.7390802166662698</speed>
  <fix>3d</fix>
</trkpt>
<trkpt lat="-35.3645262" lon="149.1628582">
  <ele>681.8</ele>
  <time>2026-08-27T18:28:11Z</time>
  <course>287.21</course>
  <speed>1.68</speed>
  <fix>3d</fix>
</trkpt>
<trkpt lat="-35.3645232" lon="149.1628531">
  <ele>681.71</ele>
  <time>2026-08-27T18:28:11Z</time>
  <course>288.79</course>
  <speed>2.0651876428063383</speed>
  <fix>3d</fix>
</trkpt>
<trkpt lat="-35.3645249" lon="149.1628549">
  <ele>681.7</ele>
  <time>2026-08-27T18:28:11Z</time>
  <course>306.55</course>
  <speed>1.84</speed>
  <fix>3d</fix>
</trkpt>
<trkpt lat="-35.3645201" lon="149.1628499">
  <ele>681.6</ele>
  <time>2026-08-27T18:28:11Z</time>
  <course>299.37</course>
  <speed>2.5628109567426156</speed>
  <fix>3d</fix>
</trkpt>
<trkpt lat="-35.3645224" lon="149.1628516">
  <ele>681.6</ele>
  <time>2026-08-27T18:28:11Z</time>
  <course>319.99</course>
  <speed>2.23</speed>
  <fix>3d</fix>
</trkpt>
<trkpt lat="-35.3645157" lon="149.1628467">
  <ele>681.47</ele>
  <time>2026-08-27T18:28:11Z</time>
  <course>310.35</course>
  <speed>3.136510800236467</speed>
  <fix>3d</fix>
</trkpt>
<trkpt lat="-35.3645187" lon="149.1628485">
  <ele>681.48</ele>
  <time>2026-08-27T18:28:11Z</time>
  <course>328.16</course>
  <speed>2.75</speed>
  <fix>3d</fix>
</trkpt>
<trkpt lat="-35.3645102" lon="149.1628433">
  <ele>681.32</ele>
  <time>2026-08-27T18:28:12Z</time>
  <course>322.02</course>
  <speed>3.78549864614954</speed>
  <fix>3d</fix>
</trkpt>
<trkpt lat="-35.3645139" lon="149.1628452">
  <ele>681.35</ele>
  <time>2026-08-27T18:28:12Z</time>
  <course>333.09</course>
  <speed>3.35</speed>
  <fix>3d</fix>
</trkpt>
<trkpt lat="-35.3645034" lon="149.1628396">
  <ele>681.16</ele>
  <time>2026-08-27T18:28:12Z</time>
  <course>334.23</course>
  <speed>4.464134854593889</speed>
  <fix>3d</fix>
</trkpt>
<trkpt lat="-35.364508" lon="149.1628418">
  <ele>681.19</ele>
  <time>2026-08-27T18:28:12Z</time>
  <course>336.29</course>
  <speed>4.0</speed>
  <fix>3d</fix>
</trkpt>
<trkpt lat="-35.3644953" lon="149.1628359">
  <ele>680.97</ele>
  <time>2026-08-27T18:28:12Z</time>
  <course>338.68</course>
  <speed>5.149310633473184</speed>
  <fix>3d</fix>
</trkpt>
<trkpt lat="-35.3645007" lon="149.1628381">
  <ele>681.02</ele>
  <time>2026-08-27T18:28:12Z</time>
  <course>338.84</course>
  <speed>4.68</speed>
  <fix>3d</fix>
</trkpt>
<trkpt lat="-35.3644861" lon="149.1628319">
  <ele>680.78</ele>
  <time>2026-08-27T18:28:12Z</time>
  <course>339.41</course>
  <speed>5.774374424991854</speed>
  <fix>3d</fix>
</trkpt>
<trkpt lat="-35.3644922" lon="149.1628343">
  <ele>680.83</ele>
  <time>2026-08-27T18:28:12Z</time>
  <course>340.58</course>
  <speed>5.34</speed>
  <fix>3d</fix>
</trkpt>
<trkpt lat="-35.3644758" lon="149.1628277">
  <ele>680.58</ele>
  <time>2026-08-27T18:28:12Z</time>
  <course>340.02</course>
  <speed>6.3151326193517106</speed>
  <fix>3d</fix>
</trkpt>
<trkpt lat="-35.3644826" lon="149.1628303">
  <ele>680.64</ele>
  <time>2026-08-27T18:28:12Z</time>
  <course>341.4</course>
  <speed>5.94</speed>
  <fix>3d</fix>
</trkpt>
<trkpt lat="-35.3644647" lon="149.1628232">
  <ele>680.38</ele>
  <time>2026-08-27T18:28:12Z</time>
  <course>340.67</course>
  <speed>6.780162239946771</speed>
  <fix>3d</fix>
</trkpt>
<trkpt lat="-35.364472" lon="149.162826">
  <ele>680.44</ele>
  <time>2026-08-27T18:28:12Z</time>
  <course>341.83</course>
  <speed>6.47</speed>
  <fix>3d</fix>
</trkpt>
<trkpt lat="-35.3644529" lon="149.1628185">
  <ele>680.17</ele>
  <time>2026-08-27T18:28:12Z</time>
  <course>341.28</course>
  <speed>7.140896302285869</speed>
  <fix>3d</fix>
</trkpt>
<trkpt lat="-35.3644606" lon="149.1628214">
  <ele>680.23</ele>
  <time>2026-08-27T18:28:12Z</time>
  <course>342.06</course>
  <speed>6.9</speed>
  <fix>3d</fix>
</trkpt>
<trkpt lat="-35.3644406" lon="149.1628136">
  <ele>679.96</ele>
  <time>2026-08-27T18:28:12Z</time>
  <course>341.81</course>
  <speed>7.412907661639932</speed>
  <fix>3d</fix>
</trkpt>
<trkpt lat="-35.3644484" lon="149.1628166">
  <ele>680.03</ele>
  <time>2026-08-27T18:28:12Z</time>
  <course>342.2</course>
  <speed>7.24</speed>
  <fix>3d</fix>
</trkpt>
<trkpt lat="-35.3644278" lon="149.1628086">
  <ele>679.75</ele>
  <time>2026-08-27T18:28:12Z</time>
  <course>342.37</course>
  <speed>7.615615536514432</speed>
  <fix>3d</fix>
</trkpt>
<trkpt lat="-35.3644359" lon="149.1628117">
  <ele>679.82</ele>
  <time>2026-08-27T18:28:12Z</time>
  <course>342.33</course>
  <speed>7.5</speed>
  <fix>3d</fix>
</trkpt>
<trkpt lat="-35.3644146" lon="149.1628035">
  <ele>679.52</ele>
  <time>2026-08-27T18:28:12Z</time>
  <course>343.03</course>
  <speed>7.771261158911082</speed>
  <fix>3d</fix>
</trkpt>
<trkpt lat="-35.3644228" lon="149.1628066">
  <ele>679.6</ele>
  <time>2026-08-27T18:28:12Z</time>
  <course>342.55</course>
  <speed>7.69</speed>
  <fix>3d</fix>
</trkpt>
<trkpt lat="-35.3644013" lon="149.1627985">
  <ele>679.27</ele>
  <time>2026-08-27T18:28:12Z</time>
  <course>343.77</course>
  <speed>7.880082486877914</speed>
  <fix>3d</fix>
</trkpt>
<trkpt lat="-35.3644095" lon="149.1628015">
  <ele>679.37</ele>
  <time>2026-08-27T18:28:12Z</time>
  <course>342.9</course>
  <speed>7.83</speed>
  <fix>3d</fix>
</trkpt>
<trkpt lat="-35.3643877" lon="149.1627935">
  <ele>679.01</ele>
  <time>2026-08-27T18:28:12Z</time>
  <course>344.55</course>
  <speed>7.952012323934112</speed>
  <fix>3d</fix>
</trkpt>
<trkpt lat="-35.364396" lon="149.1627965">
  <ele>679.12</ele>
  <time>2026-08-27T18:28:12Z</time>
  <course>343.35</course>
  <speed>7.93</speed>
  <fix>3d</fix>
</trkpt>
<trkpt lat="-35.3643739" lon="149.1627886">
  <ele>678.73</ele>
  <time>2026-08-27T18:28:12Z</time>
  <course>345.33</course>
  <speed>7.99576137712976</speed>
  <fix>3d</fix>
</trkpt>
<trkpt lat="-35.3643823" lon="149.1627915">
  <ele>678.86</ele>
  <time>2026-08-27T18:28:12Z</time>
  <course>343.88</course>
  <speed>7.99</speed>
  <fix>3d</fix>
</trkpt>
<trkpt lat="-35.3643599" lon="149.1627838">
  <ele>678.45</ele>
  <time>2026-08-27T18:28:12Z</time>
  <course>346.05</course>
  <speed>8.015441347798635</speed>
  <fix>3d</fix>
</trkpt>
<trkpt lat="-35.3643684" lon="149.1627867">
  <ele>678.59</ele>
  <time>2026-08-27T18:28:12Z</time>
  <course>344.42</course>
  <speed>8.03</speed>
  <fix>3d</fix>
</trkpt>
<trkpt lat="-35.364346" lon="149.1627792">
  <ele>678.16</ele>
  <time>2026-08-27T18:28:12Z</time>
  <course>346.76</course>
  <speed>8.009444425177067</speed>
  <fix>3d</fix>
</trkpt>
<trkpt lat="-35.3643544" lon="149.162782">
  <ele>678.31</ele>
  <time>2026-08-27T18:28:12Z</time>
  <course>344.96</course>
  <speed>8.03</speed>
  <fix>3d</fix>
</trkpt>
<trkpt lat="-35.364332" lon="149.1627748">
  <ele>677.87</ele>
  <time>2026-08-27T18:28:12Z</time>
  <course>347.4</course>
  <speed>7.9723584967059775</speed>
  <fix>3d</fix>
</trkpt>
<trkpt lat="-35.3643404" lon="149.1627775">
  <ele>678.02</ele>
  <time>2026-08-27T18:28:12Z</time>
  <course>345.47</course>
  <speed>8.01</speed>
  <fix>3d</fix>
</trkpt>
<trkpt lat="-35.3643182" lon="149.1627705">
  <ele>677.57</ele>
  <time>2026-08-27T18:28:12Z</time>
  <course>347.99</course>
  <speed>7.896961440959427</speed>
  <fix>3d</fix>
</trkpt>
<trkpt lat="-35.3643265" lon="149.1627732">
  <ele>677.73</ele>
  <time>2026-08-27T18:28:12Z</time>
  <course>345.92</course>
  <speed>7.96</speed>
  <fix>3d</fix>
</trkpt>
<trkpt lat="-35.3643044" lon="149.1627663">
  <ele>677.28</ele>
  <time>2026-08-27T18:28:12Z</time>
  <course>348.49</course>
  <speed>7.814582522438419</speed>
  <fix>3d</fix>
</trkpt>
<trkpt lat="-35.3643127" lon="149.162769">
  <ele>677.44</ele>
  <time>2026-08-27T18:28:12Z</time>
  <course>346.3</course>
  <speed>7.88</speed>
  <fix>3d</fix>
</trkpt>
<trkpt lat="-35.3642908" lon="149.1627623">
  <ele>676.97</ele>
  <time>2026-08-27T18:28:12Z</time>
  <course>348.83</course>
  <speed>7.734759207628897</speed>
  <fix>3d</fix>
</trkpt>
<trkpt lat="-35.364299" lon="149.1627649">
  <ele>677.14</ele>
  <time>2026-08-27T18:28:12Z</time>
  <course>346.61</course>
  <speed>7.8</speed>
  <fix>3d</fix>
</trkpt>
<trkpt lat="-35.3642773" lon="149.1627585">
  <ele>676.66</ele>
  <time>2026-08-27T18:28:12Z</time>
  <course>348.97</course>
  <speed>7.679147088056069</speed>
  <fix>3d</fix>
</trkpt>
<trkpt lat="-35.3642854" lon="149.162761">
  <ele>676.83</ele>
  <time>2026-08-27T18:28:12Z</time>
  <course>346.84</course>
  <speed>7.72</speed>
  <fix>3d</fix>
</trkpt>
<trkpt lat="-35.364264" lon="149.1627546">
  <ele>676.35</ele>
  <time>2026-08-27T18:28:12Z</time>
  <course>348.93</course>
  <speed>7.647646696860415</speed>
  <fix>3d</fix>
</trkpt>
<trkpt lat="-35.364272" lon="149.1627571">
  <ele>676.53</ele>
  <time>2026-08-27T18:28:12Z</time>
  <course>346.97</course>
  <speed>7.66</speed>
  <fix>3d</fix>
</trkpt>
<trkpt lat="-35.3642506" lon="149.1627508">
  <ele>676.02</ele>
  <time>2026-08-27T18:28:12Z</time>
  <course>348.7</course>
  <speed>7.640242142759613</speed>
  <fix>3d</fix>
</trkpt>
<trkpt lat="-35.3642586" lon="149.1627533">
  <ele>676.22</ele>
  <time>2026-08-27T18:28:12Z</time>
  <course>346.97</course>
  <speed>7.63</speed>
  <fix>3d</fix>
</trkpt>
<trkpt lat="-35.3642372" lon="149.1627469">
  <ele>675.7</ele>
  <time>2026-08-27T18:28:12Z</time>
  <course>348.32</course>
  <speed>7.6593733425130806</speed>
  <fix>3d</fix>
</trkpt>
<trkpt lat="-35.3642453" lon="149.1627495">
  <ele>675.9</ele>
  <time>2026-08-27T18:28:12Z</time>
  <course>346.81</course>
  <speed>7.63</speed>
  <fix>3d</fix>
</trkpt>
<trkpt lat="-35.3642237" lon="149.1627429">
  <ele>675.39</ele>
  <time>2026-08-27T18:28:12Z</time>
  <course>347.79</course>
  <speed>7.700506476849429</speed>
  <fix>3d</fix>
</trkpt>
<trkpt lat="-35.3642319" lon="149.1627457">
  <ele>675.57</ele>
  <time>2026-08-27T18:28:12Z</time>
  <course>346.5</course>
  <speed>7.65</speed>
  <fix>3d</fix>
</trkpt>
<trkpt lat="-35.3642103" lon="149.1627388">
  <ele>675.08</ele>
  <time>2026-08-27T18:28:12Z</time>
  <course>347.2</course>
  <speed>7.749354811853695</speed>
  <fix>3d</fix>
</trkpt>
<trkpt lat="-35.3642185" lon="149.1627417">
  <ele>675.26</ele>
  <time>2026-08-27T18:28:12Z</time>
  <course>346.07</course>
  <speed>7.69</speed>
  <fix>3d</fix>
</trkpt>
<trkpt lat="-35.3641967" lon="149.1627345">
  <ele>674.77</ele>
  <time>2026-08-27T18:28:12Z</time>
  <course>346.57</course>
  <speed>7.8084889703450315</speed>
  <fix>3d</fix>
</trkpt>
<trkpt lat="-35.364205" lon="149.1627375">
  <ele>674.95</ele>
  <time>2026-08-27T18:28:12Z</time>
  <course>345.56</course>
  <speed>7.74</speed>
  <fix>3d</fix>
</trkpt>
<trkpt lat="-35.3641831" lon="149.1627301">
  <ele>674.47</ele>
  <time>2026-08-27T18:28:12Z</time>
  <course>345.92</course>
  <speed>7.868195472914993</speed>
  <fix>3d</fix>
</trkpt>
<trkpt lat="-35.3641915" lon="149.1627332">
  <ele>674.65</ele>
  <time>2026-08-27T18:28:12Z</time>
  <course>345.01</course>
  <speed>7.79</speed>
  <fix>3d</fix>
</trkpt>
<trkpt lat="-35.3641695" lon="149.1627254">
  <ele>674.17</ele>
  <time>2026-08-27T18:28:12Z</time>
  <course>345.3</course>
  <speed>7.9408374873183245</speed>
  <fix>3d</fix>
</trkpt>
<trkpt lat="-35.3641779" lon="149.1627286">
  <ele>674.35</ele>
  <time>2026-08-27T18:28:12Z</time>
  <course>344.45</course>
  <speed>7.86</speed>
  <fix>3d</fix>
</trkpt>
<trkpt lat="-35.3641558" lon="149.1627206">
  <ele>673.87</ele>
  <time>2026-08-27T18:28:12Z</time>
  <course>344.69</course>
  <speed>8.00170606808323</speed>
  <fix>3d</fix>
</trkpt>
<trkpt lat="-35.3641643" lon="149.1627239">
  <ele>674.06</ele>
  <time>2026-08-27T18:28:12Z</time>
  <course>343.9</course>
  <speed>7.92</speed>
  <fix>3d</fix>
</trkpt>
<trkpt lat="-35.364142" lon="149.1627156">
  <ele>673.57</ele>
  <time>2026-08-27T18:28:12Z</time>
  <course>344.17</course>
  <speed>8.060186102069853</speed>
  <fix>3d</fix>
</trkpt>
<trkpt lat="-35.3641506" lon="149.1627189">
  <ele>673.76</ele>
  <time>2026-08-27T18:28:12Z</time>
  <course>343.4</course>
  <speed>7.99</speed>
  <fix>3d</fix>
</trkpt>
<trkpt lat="-35.3641282" lon="149.1627104">
  <ele>673.28</ele>
  <time>2026-08-27T18:28:12Z</time>
  <course>343.71</course>
  <speed>8.119045510403302</speed>
  <fix>3d</fix>
</trkpt>
<trkpt lat="-35.3641368" lon="149.1627138">
  <ele>673.47</ele>
  <time>2026-08-27T18:28:12Z</time>
  <course>342.96</course>
  <speed>8.05</speed>
  <fix>3d</fix>
</trkpt>
<trkpt lat="-35.3641144" lon="149.1627051">
  <ele>672.99</ele>
  <time>2026-08-27T18:28:12Z</time>
  <course>343.35</course>
  <speed>8.172209003690496</speed>
  <fix>3d</fix>
</trkpt>
<trkpt lat="-35.3641229" lon="149.1627085">
  <ele>673.19</ele>
  <time>2026-08-27T18:28:12Z</time>
  <course>342.59</course>
  <speed>8.11</speed>
  <fix>3d</fix>
</trkpt>
<trkpt lat="-35.3641004" lon="149.1626997">
  <ele>672.7</ele>
  <time>2026-08-27T18:28:12Z</time>
  <course>343.06</course>
  <speed>8.225527338718168</speed>
  <fix>3d</fix>
</trkpt>
<trkpt lat="-35.364109" lon="149.1627032">
  <ele>672.9</ele>
  <time>2026-08-27T18:28:12Z</time>
  <course>342.3</course>
  <speed>8.17</speed>
  <fix>3d</fix>
</trkpt>
<trkpt lat="-35.3640863" lon="149.1626941">
  <ele>672.4</ele>
  <time>2026-08-27T18:28:12Z</time>
  <course>342.86</course>
  <speed>8.27281088868832</speed>
  <fix>3d</fix>
</trkpt>
<trkpt lat="-35.3640949" lon="149.1626977">
  <ele>672.61</ele>
  <time>2026-08-27T18:28:12Z</time>
  <course>342.09</course>
  <speed>8.23</speed>
  <fix>3d</fix>
</trkpt>
<trkpt lat="-35.3640722" lon="149.1626885">
  <ele>672.11</ele>
  <time>2026-08-27T18:28:12Z</time>
  <course>342.75</course>
  <speed>8.31703072015488</speed>
  <fix>3d</fix>
</trkpt>
<trkpt lat="-35.3640808" lon="149.162692">
  <ele>672.32</ele>
  <time>2026-08-27T18:28:12Z</time>
  <course>341.95</course>
  <speed>8.28</speed>
  <fix>3d</fix>
</trkpt>
<trkpt lat="-35.3640579" lon="149.1626828">
  <ele>671.82</ele>
  <time>2026-08-27T18:28:12Z</time>
  <course>342.71</course>
  <speed>8.351748319962713</speed>
  <fix>3d</fix>
</trkpt>
<trkpt lat="-35.3640666" lon="149.1626863">
  <ele>672.04</ele>
  <time>2026-08-27T18:28:12Z</time>
  <course>341.88</course>
  <speed>8.32</speed>
  <fix>3d</fix>
</trkpt>
<trkpt lat="-35.3640436" lon="149.1626771">
  <ele>671.53</ele>
  <time>2026-08-27T18:28:12Z</time>
  <course>342.79</course>
  <speed>8.367675901945534</speed>
  <fix>3d</fix>
</trkpt>
<trkpt lat="-35.3640524" lon="149.1626806">
  <ele>671.75</ele>
  <time>2026-08-27T18:28:12Z</time>
  <course>341.88</course>
  <speed>8.35</speed>
  <fix>3d</fix>
</trkpt>
<trkpt lat="-35.3640293" lon="149.1626714">
  <ele>671.25</ele>
  <time>2026-08-27T18:28:12Z</time>
  <course>342.92</course>
  <speed>8.383632864098951</speed>
  <fix>3d</fix>
</trkpt>
<trkpt lat="-35.3640381" lon="149.1626748">
  <ele>671.47</ele>
  <time>2026-08-27T18:28:12Z</time>
  <course>341.95</course>
  <speed>8.38</speed>
  <fix>3d</fix>
</trkpt>
<trkpt lat="-35.364015" lon="149.1626658">
  <ele>670.96</ele>
  <time>2026-08-27T18:28:12Z</time>
  <course>343.13</course>
  <speed>8.387049540809928</speed>
  <fix>3d</fix>
</trkpt>
<trkpt lat="-35.3640237" lon="149.1626691">
  <ele>671.18</ele>
  <time>2026-08-27T18:28:12Z</time>
  <course>342.08</course>
  <speed>8.39</speed>
  <fix>3d</fix>
</trkpt>
<trkpt lat="-35.3640007" lon="149.1626602">
  <ele>670.67</ele>
  <time>2026-08-27T18:28:12Z</time>
  <course>343.37</course>
  <speed>8.377977082804655</speed>
  <fix>3d</fix>
</trkpt>
<trkpt lat="-35.3640094" lon="149.1626635">
  <ele>670.89</ele>
  <time>2026-08-27T18:28:12Z</time>
  <course>342.26</course>
  <speed>8.39</speed>
  <fix>3d</fix>
</trkpt>
<trkpt lat="-35.3639864" lon="149.1626546">
  <ele>670.37</ele>
  <time>2026-08-27T18:28:12Z</time>
  <course>343.63</course>
  <speed>8.366032512487624</speed>
  <fix>3d</fix>
</trkpt>
<trkpt lat="-35.363995" lon="149.1626579">
  <ele>670.6</ele>
  <time>2026-08-27T18:28:12Z</time>
  <course>342.48</course>
  <speed>8.38</speed>
  <fix>3d</fix>
</trkpt>
<trkpt lat="-35.3639721" lon="149.1626492">
  <ele>670.08</ele>
  <time>2026-08-27T18:28:12Z</time>
  <course>343.9</course>
  <speed>8.344698916078398</speed>
  <fix>3d</fix>
</trkpt>
<trkpt lat="-35.3639807" lon="149.1626524">
  <ele>670.31</ele>
  <time>2026-08-27T18:28:12Z</time>
  <course>342.72</course>
  <speed>8.37</speed>
  <fix>3d</fix>
</trkpt>
<trkpt lat="-35.3639577" lon="149.1626438">
  <ele>669.78</ele>
  <time>2026-08-27T18:28:12Z</time>
  <course>344.15</course>
  <speed>8.333090663133337</speed>
  <fix>3d</fix>
</trkpt>
<trkpt lat="-35.3639663" lon="149.162647">
  <ele>670.02</ele>
  <time>2026-08-27T18:28:12Z</time>
  <course>342.99</course>
  <speed>8.36</speed>
  <fix>3d</fix>
</trkpt>
<trkpt lat="-35.3639434" lon="149.1626386">
  <ele>669.48</ele>
  <time>2026-08-27T18:28:12Z</time>
  <course>344.44</course>
  <speed>8.302481556739528</speed>
  <fix>3d</fix>
</trkpt>
<trkpt lat="-35.3639519" lon="149.1626416">
  <ele>669.72</ele>
  <time>2026-08-27T18:28:12Z</time>
  <course>343.24</course>
  <speed>8.34</speed>
  <fix>3d</fix>
</trkpt>
<trkpt lat="-35.363929" lon="149.1626333">
  <ele>669.18</ele>
  <time>2026-08-27T18:28:12Z</time>
  <course>344.69</course>
  <speed>8.281600086939722</speed>
  <fix>3d</fix>
</trkpt>
<trkpt lat="-35.3639376" lon="149.1626364">
  <ele>669.42</ele>
  <time>2026-08-27T18:28:12Z</time>
  <course>343.49</course>
  <speed>8.32</speed>
  <fix>3d</fix>
</trkpt>
<trkpt lat="-35.3639146" lon="149.1626282">
  <ele>668.89</ele>
  <time>2026-08-27T18:28:12Z</time>
  <course>344.96</course>
  <speed>8.251260509764553</speed>
  <fix>3d</fix>
</trkpt>
<trkpt lat="-35.3639232" lon="149.1626312">
  <ele>669.13</ele>
  <time>2026-08-27T18:28:12Z</time>
  <course>343.73</course>
  <speed>8.29</speed>
  <fix>3d</fix>
</trkpt>
<trkpt lat="-35.3639003" lon="149.1626232">
  <ele>668.59</ele>
  <time>2026-08-27T18:28:12Z</time>
  <course>345.15</course>
  <speed>8.223782584674767</speed>
  <fix>3d</fix>
</trkpt>
<trkpt lat="-35.3639089" lon="149.1626261">
  <ele>668.82</ele>
  <time>2026-08-27T18:28:12Z</time>
  <course>343.93</course>
  <speed>8.26</speed>
  <fix>3d</fix>
</trkpt>
<trkpt lat="-35.3638861" lon="149.1626182">
  <ele>668.29</ele>
  <time>2026-08-27T18:28:12Z</time>
  <course>345.33</course>
  <speed>8.196371148258233</speed>
  <fix>3d</fix>
</trkpt>
<trkpt lat="-35.3638947" lon="149.1626211">
  <ele>668.53</ele>
  <time>2026-08-27T18:28:12Z</time>
  <course>344.11</course>
  <speed>8.23</speed>
  <fix>3d</fix>
</trkpt>
<trkpt lat="-35.3638719" lon="149.1626133">
  <ele>667.98</ele>
  <time>2026-08-27T18:28:12Z</time>
  <course>345.45</course>
  <speed>8.162083067452818</speed>
  <fix>3d</fix>
</trkpt>
<trkpt lat="-35.3638804" lon="149.1626162">
  <ele>668.23</ele>
  <time>2026-08-27T18:28:12Z</time>
  <course>344.25</course>
  <speed>8.2</speed>
  <fix>3d</fix>
</trkpt>
<trkpt lat="-35.3638577" lon="149.1626084">
  <ele>667.68</ele>
  <time>2026-08-27T18:28:12Z</time>
  <course>345.54</course>
  <speed>8.137444316245734</speed>
  <fix>3d</fix>
</trkpt>
<trkpt lat="-35.3638663" lon="149.1626113">
  <ele>667.93</ele>
  <time>2026-08-27T18:28:12Z</time>
  <course>344.36</course>
  <speed>8.17</speed>
  <fix>3d</fix>
</trkpt>
<trkpt lat="-35.3638436" lon="149.1626036">
  <ele>667.37</ele>
  <time>2026-08-27T18:28:12Z</time>
  <course>345.55</course>
  <speed>8.103190729583009</speed>
  <fix>3d</fix>
</trkpt>
<trkpt lat="-35.3638522" lon="149.1626064">
  <ele>667.63</ele>
  <time>2026-08-27T18:28:12Z</time>
  <course>344.44</course>
  <speed>8.14</speed>
  <fix>3d</fix>
</trkpt>
<trkpt lat="-35.3638295" lon="149.1625988">
  <ele>667.07</ele>
  <time>2026-08-27T18:28:12Z</time>
  <course>345.54</course>
  <speed>8.083916130193336</speed>
  <fix>3d</fix>
</trkpt>
<trkpt lat="-35.3638381" lon="149.1626016">
  <ele>667.32</ele>
  <time>2026-08-27T18:28:12Z</time>
  <course>344.47</course>
  <speed>8.11</speed>
  <fix>3d</fix>
</trkpt>
<trkpt lat="-35.3638155" lon="149.162594">
  <ele>666.77</ele>
  <time>2026-08-27T18:28:12Z</time>
  <course>345.49</course>
  <speed>8.064645063485436</speed>
  <fix>3d</fix>
</trkpt>
<trkpt lat="-35.3638241" lon="149.1625968">
  <ele>667.03</ele>
  <time>2026-08-27T18:28:12Z</time>
  <course>344.46</course>
  <speed>8.09</speed>
  <fix>3d</fix>
</trkpt>
<trkpt lat="-35.3638015" lon="149.1625892">
  <ele>666.48</ele>
  <time>2026-08-27T18:28:12Z</time>
  <course>345.39</course>
  <speed>8.04537755484477</speed>
  <fix>3d</fix>
</trkpt>
<trkpt lat="-35.3638101" lon="149.1625921">
  <ele>666.74</ele>
  <time>2026-08-27T18:28:12Z</time>
  <course>344.41</course>
  <speed>8.07</speed>
  <fix>3d</fix>
</trkpt>
<trkpt lat="-35.3637875" lon="149.1625844">
  <ele>666.18</ele>
  <time>2026-08-27T18:28:12Z</time>
  <course>345.27</course>
  <speed>8.038438903170192</speed>
  <fix>3d</fix>
</trkpt>
<trkpt lat="-35.3637961" lon="149.1625874">
  <ele>666.44</ele>
  <time>2026-08-27T18:28:12Z</time>
  <course>344.33</course>
  <speed>8.06</speed>
  <fix>3d</fix>
</trkpt>
<trkpt lat="-35.3637735" lon="149.1625796">
  <ele>665.88</ele>
  <time>2026-08-27T18:28:12Z</time>
  <course>345.15</course>
  <speed>8.03423922969686</speed>
  <fix>3d</fix>
</trkpt>
<trkpt lat="-35.3637822" lon="149.1625826">
  <ele>666.14</ele>
  <time>2026-08-27T18:28:12Z</time>
  <course>344.23</course>
  <speed>8.05</speed>
  <fix>3d</fix>
</trkpt>
<trkpt lat="-35.3637596" lon="149.1625747">
  <ele>665.58</ele>
  <time>2026-08-27T18:28:12Z</time>
  <course>344.99</course>
  <speed>8.027353237524807</speed>
  <fix>3d</fix>
</trkpt>
<trkpt lat="-35.3637683" lon="149.1625777">
  <ele>665.83</ele>
  <time>2026-08-27T18:28:12Z</time>
  <course>344.11</course>
  <speed>8.04</speed>
  <fix>3d</fix>
</trkpt>
<trkpt lat="-35.3637458" lon="149.1625698">
  <ele>665.28</ele>
  <time>2026-08-27T18:28:12Z</time>
  <course>344.8</course>
  <speed>8.0232474721898</speed>
  <fix>3d</fix>
</trkpt>
<trkpt lat="-35.3637544" lon="149.1625728">
  <ele>665.53</ele>
  <time>2026-08-27T18:28:12Z</time>
  <course>343.97</course>
  <speed>8.04</speed>
  <fix>3d</fix>
</trkpt>
<trkpt lat="-35.3637319" lon="149.1625649">
  <ele>664.98</ele>
  <time>2026-08-27T18:28:12Z</time>
  <course>344.6</course>
  <speed>8.028804394179746</speed>
  <fix>3d</fix>
</trkpt>
<trkpt lat="-35.3637405" lon="149.1625679">
  <ele>665.23</ele>
  <time>2026-08-27T18:28:12Z</time>
  <course>343.83</course>
  <speed>8.04</speed>
  <fix>3d</fix>
</trkpt>
<trkpt lat="-35.3637181" lon="149.1625599">
  <ele>664.68</ele>
  <time>2026-08-27T18:28:12Z</time>
  <course>344.4</course>
  <speed>8.034407258783936</speed>
  <fix>3d</fix>
</trkpt>
<trkpt lat="-35.3637266" lon="149.1625629">
  <ele>664.93</ele>
  <time>2026-08-27T18:28:12Z</time>
  <course>343.68</course>
  <speed>8.05</speed>
  <fix>3d</fix>
</trkpt>
<trkpt lat="-35.3637043" lon="149.1625549">
  <ele>664.38</ele>
  <time>2026-08-27T18:28:12Z</time>
  <course>344.23</course>
  <speed>8.049645954947335</speed>
  <fix>3d</fix>
</trkpt>
<trkpt lat="-35.3637127" lon="149.162558">
  <ele>664.63</ele>
  <time>2026-08-27T18:28:12Z</time>
  <course>343.53</course>
  <speed>8.06</speed>
  <fix>3d</fix>
</trkpt>
<trkpt lat="-35.3636904" lon="149.1625499">
  <ele>664.08</ele>
  <time>2026-08-27T18:28:12Z</time>
  <course>344.04</course>
  <speed>8.077357241078296</speed>
  <fix>3d</fix>
</trkpt>
<trkpt lat="-35.3636988" lon="149.1625529">
  <ele>664.32</ele>
  <time>2026-08-27T18:28:12Z</time>
  <course>343.4</course>
  <speed>8.08</speed>
  <fix>3d</fix>
</trkpt>
<trkpt lat="-35.3636766" lon="149.1625448">
  <ele>663.79</ele>
  <time>2026-08-27T18:28:12Z</time>
  <course>343.87</course>
  <speed>8.092675700903873</speed>
  <fix>3d</fix>
</trkpt>
<trkpt lat="-35.3636849" lon="149.1625477">
  <ele>664.02</ele>
  <time>2026-08-27T18:28:12Z</time>
  <course>343.28</course>
  <speed>8.1</speed>
  <fix>3d</fix>
</trkpt>
<trkpt lat="-35.3636627" lon="149.1625396">
  <ele>663.48</ele>
  <time>2026-08-27T18:28:12Z</time>
  <course>343.74</course>
  <speed>8.114708867236088</speed>
  <fix>3d</fix>
</trkpt>
<trkpt lat="-35.3636709" lon="149.1625426">
  <ele>663.71</ele>
  <time>2026-08-27T18:28:12Z</time>
  <course>343.17</course>
  <speed>8.12</speed>
  <fix>3d</fix>
</trkpt>
<trkpt lat="-35.3636486" lon="149.1625344">
  <ele>663.18</ele>
  <time>2026-08-27T18:28:12Z</time>
  <course>343.62</course>
  <speed>8.139637584069698</speed>
  <fix>3d</fix>
</trkpt>
<trkpt lat="-35.363657" lon="149.1625374">
  <ele>663.41</ele>
  <time>2026-08-27T18:28:12Z</time>
  <course>343.08</course>
  <speed>8.15</speed>
  <fix>3d</fix>
</trkpt>
<trkpt lat="-35.3636345" lon="149.1625291">
  <ele>662.87</ele>
  <time>2026-08-27T18:28:12Z</time>
  <course>343.54</course>
  <speed>8.161678748884938</speed>
  <fix>3d</fix>
</trkpt>
<trkpt lat="-35.3636429" lon="149.1625321">
  <ele>663.11</ele>
  <time>2026-08-27T18:28:12Z</time>
  <course>343.01</course>
  <speed>8.17</speed>
  <fix>3d</fix>
</trkpt>
<trkpt lat="-35.3636204" lon="149.1625238">
  <ele>662.57</ele>
  <time>2026-08-27T18:28:12Z</time>
  <course>343.46</course>
  <speed>8.17415439051649</speed>
  <fix>3d</fix>
</trkpt>
<trkpt lat="-35.3636288" lon="149.1625269">
  <ele>662.81</ele>
  <time>2026-08-27T18:28:12Z</time>
  <course>342.97</course>
  <speed>8.19</speed>
  <fix>3d</fix>
</trkpt>
<trkpt lat="-35.3636063" lon="149.1625185">
  <ele>662.28</ele>
  <time>2026-08-27T18:28:12Z</time>
  <course>343.47</course>
  <speed>8.196200339181566</speed>
  <fix>3d</fix>
</trkpt>
<trkpt lat="-35.3636147" lon="149.1625216">
  <ele>662.51</ele>
  <time>2026-08-27T18:28:12Z</time>
  <course>342.96</course>
  <speed>8.21</speed>
  <fix>3d</fix>
</trkpt>
<trkpt lat="-35.3635921" lon="149.1625132">
  <ele>661.98</ele>
  <time>2026-08-27T18:28:12Z</time>
  <course>343.49</course>
  <speed>8.205766265255184</speed>
  <fix>3d</fix>
</trkpt>
<trkpt lat="-35.3636006" lon="149.1625163">
  <ele>662.2</ele>
  <time>2026-08-27T18:28:12Z</time>
  <course>342.96</course>
  <speed>8.22</speed>
  <fix>3d</fix>
</trkpt>
<trkpt lat="-35.363578" lon="149.1625079">
  <ele>661.69</ele>
  <time>2026-08-27T18:28:12Z</time>
  <course>343.54</course>
  <speed>8.212429603960084</speed>
  <fix>3d</fix>
</trkpt>
<trkpt lat="-35.3635864" lon="149.162511">
  <ele>661.91</ele>
  <time>2026-08-27T18:28:12Z</time>
  <course>342.99</course>
  <speed>8.23</speed>
  <fix>3d</fix>
</trkpt>
<trkpt lat="-35.3635638" lon="149.1625026">
  <ele>661.39</ele>
  <time>2026-08-27T18:28:12Z</time>
  <course>343.6</course>
  <speed>8.209537136769649</speed>
  <fix>3d</fix>
</trkpt>
<trkpt lat="-35.3635723" lon="149.1625057">
  <ele>661.61</ele>
  <time>2026-08-27T18:28:12Z</time>
  <course>343.04</course>
  <speed>8.24</speed>
  <fix>3d</fix>
</trkpt>
<trkpt lat="-35.3635496" lon="149.1624973">
  <ele>661.1</ele>
  <time>2026-08-27T18:28:12Z</time>
  <course>343.67</course>
  <speed>8.206655835357056</speed>
  <fix>3d</fix>
</trkpt>
<trkpt lat="-35.3635582" lon="149.1625004">
  <ele>661.31</ele>
  <time>2026-08-27T18:28:12Z</time>
  <course>343.11</course>
  <speed>8.24</speed>
  <fix>3d</fix>
</trkpt>
<trkpt lat="-35.3635355" lon="149.1624921">
  <ele>660.8</ele>
  <time>2026-08-27T18:28:12Z</time>
  <course>343.79</course>
  <speed>8.213367153610022</speed>
  <fix>3d</fix>
</trkpt>
<trkpt lat="-35.363544" lon="149.1624951">
  <ele>661.02</ele>
  <time>2026-08-27T18:28:12Z</time>
  <course>343.19</course>
  <speed>8.24</speed>
  <fix>3d</fix>
</trkpt>
<trkpt lat="-35.3635213" lon="149.1624869">
  <ele>660.5</ele>
  <time>2026-08-27T18:28:12Z</time>
  <course>343.89</course>
  <speed>8.210511555317366</speed>
  <fix>3d</fix>
</trkpt>
<trkpt lat="-35.3635299" lon="149.1624898">
  <ele>660.72</ele>
  <time>2026-08-27T18:28:12Z</time>
  <course>343.28</course>
  <speed>8.23</speed>
  <fix>3d</fix>
</trkpt>
<trkpt lat="-35.3635071" lon="149.1624817">
  <ele>660.2</ele>
  <time>2026-08-27T18:28:12Z</time>
  <course>343.98</course>
  <speed>8.204833941037442</speed>
  <fix>3d</fix>
</trkpt>
<trkpt lat="-35.3635156" lon="149.1624847">
  <ele>660.41</ele>
  <time>2026-08-27T18:28:12Z</time>
  <course>343.38</course>
  <speed>8.23</speed>
  <fix>3d</fix>
</trkpt>
<trkpt lat="-35.3634928" lon="149.1624765">
  <ele>659.9</ele>
  <time>2026-08-27T18:28:12Z</time>
  <course>344.07</course>
  <speed>8.202011948296589</speed>
  <fix>3d</fix>
</trkpt>
<trkpt lat="-35.3635015" lon="149.1624795">
  <ele>660.11</ele>
  <time>2026-08-27T18:28:12Z</time>
  <course>343.47</course>
  <speed>8.22</speed>
  <fix>3d</fix>
</trkpt>
<trkpt lat="-35.3634786" lon="149.1624714">
  <ele>659.59</ele>
  <time>2026-08-27T18:28:12Z</time>
  <course>344.15</course>
  <speed>8.189603164989132</speed>
  <fix>3d</fix>
</trkpt>
<trkpt lat="-35.3634873" lon="149.1624744">
  <ele>659.81</ele>
  <time>2026-08-27T18:28:12Z</time>
  <course>343.56</course>
  <speed>8.22</speed>
  <fix>3d</fix>
</trkpt>
<trkpt lat="-35.3634645" lon="149.1624663">
  <ele>659.29</ele>
  <time>2026-08-27T18:28:12Z</time>
  <course>344.23</course>
  <speed>8.18400879764923</speed>
  <fix>3d</fix>
</trkpt>
<trkpt lat="-35.3634731" lon="149.1624692">
  <ele>659.5</ele>
  <time>2026-08-27T18:28:12Z</time>
  <course>343.64</course>
  <speed>8.21</speed>
  <fix>3d</fix>
</trkpt>
<trkpt lat="-35.3634503" lon="149.1624612">
  <ele>658.99</ele>
  <time>2026-08-27T18:28:12Z</time>
  <course>344.28</course>
  <speed>8.171621626091115</speed>
  <fix>3d</fix>
</trkpt>
<trkpt lat="-35.363459" lon="149.1624641">
  <ele>659.19</ele>
  <time>2026-08-27T18:28:12Z</time>
  <course>343.72</course>
  <speed>8.2</speed>
  <fix>3d</fix>
</trkpt>
<trkpt lat="-35.3634361" lon="149.1624561">
  <ele>658.69</ele>
  <time>2026-08-27T18:28:12Z</time>
  <course>344.35</course>
  <speed>8.15924016070124</speed>
  <fix>3d</fix>
</trkpt>
<trkpt lat="-35.3634448" lon="149.1624591">
  <ele>658.9</ele>
  <time>2026-08-27T18:28:12Z</time>
  <course>343.78</course>
  <speed>8.19</speed>
  <fix>3d</fix>
</trkpt>
<trkpt lat="-35.363422" lon="149.1624511">
  <ele>658.39</ele>
  <time>2026-08-27T18:28:12Z</time>
  <course>344.37</course>
  <speed>8.15924016070124</speed>
  <fix>3d</fix>
</trkpt>
<trkpt lat="-35.3634307" lon="149.1624541">
  <ele>658.59</ele>
  <time>2026-08-27T18:28:12Z</time>
  <course>343.83</course>
  <speed>8.18</speed>
  <fix>3d</fix>
</trkpt>
<trkpt lat="-35.3634079" lon="149.1624461">
  <ele>658.09</ele>
  <time>2026-08-27T18:28:12Z</time>
  <course>344.42</course>
  <speed>8.146864427496018</speed>
  <fix>3d</fix>
</trkpt>
<trkpt lat="-35.3634166" lon="149.1624491">
  <ele>658.29</ele>
  <time>2026-08-27T18:28:12Z</time>
  <course>343.86</course>
  <speed>8.17</speed>
  <fix>3d</fix>
</trkpt>
<trkpt lat="-35.3633938" lon="149.1624411">
  <ele>657.79</ele>
  <time>2026-08-27T18:28:12Z</time>
  <course>344.43</course>
  <speed>8.137253836522492</speed>
  <fix>3d</fix>
</trkpt>
<trkpt lat="-35.3634025" lon="149.162444">
  <ele>657.99</ele>
  <time>2026-08-27T18:28:12Z</time>
  <course>343.88</course>
  <speed>8.16</speed>
  <fix>3d</fix>
</trkpt>
<trkpt lat="-35.3633797" lon="149.1624361">
  <ele>657.49</ele>
  <time>2026-08-27T18:28:12Z</time>
  <course>344.39</course>
  <speed>8.127644185125233</speed>
  <fix>3d</fix>
</trkpt>
<trkpt lat="-35.3633884" lon="149.1624391">
  <ele>657.69</ele>
  <time>2026-08-27T18:28:12Z</time>
  <course>343.88</course>
  <speed>8.15</speed>
  <fix>3d</fix>
</trkpt>
<trkpt lat="-35.3633657" lon="149.1624311">
  <ele>657.18</ele>
  <time>2026-08-27T18:28:12Z</time>
  <course>344.32</course>
  <speed>8.127644185125233</speed>
  <fix>3d</fix>
</trkpt>
<trkpt lat="-35.3633743" lon="149.162434">
  <ele>657.39</ele>
  <time>2026-08-27T18:28:12Z</time>
  <course>343.88</course>
  <speed>8.15</speed>
  <fix>3d</fix>
</trkpt>
<trkpt lat="-35.3633515" lon="149.1624261">
  <ele>656.88</ele>
  <time>2026-08-27T18:28:12Z</time>
  <course>344.29</course>
  <speed>8.118035476640884</speed>
  <fix>3d</fix>
</trkpt>
<trkpt lat="-35.3633602" lon="149.1624291">
  <ele>657.08</ele>
  <time>2026-08-27T18:28:12Z</time>
  <course>343.85</course>
  <speed>8.14</speed>
  <fix>3d</fix>
</trkpt>
<trkpt lat="-35.3633375" lon="149.1624211">
  <ele>656.58</ele>
  <time>2026-08-27T18:28:12Z</time>
  <course>344.24</course>
  <speed>8.111208294699377</speed>
  <fix>3d</fix>
</trkpt>
<trkpt lat="-35.3633462" lon="149.1624241">
  <ele>656.78</ele>
  <time>2026-08-27T18:28:12Z</time>
  <course>343.82</course>
  <speed>8.13</speed>
  <fix>3d</fix>
</trkpt>
<trkpt lat="-35.3633234" lon="149.1624161">
  <ele>656.28</ele>
  <time>2026-08-27T18:28:12Z</time>
  <course>344.18</course>
  <speed>8.111208294699377</speed>
  <fix>3d</fix>
</trkpt>
<trkpt lat="-35.3633321" lon="149.1624191">
  <ele>656.48</ele>
  <time>2026-08-27T18:28:12Z</time>
  <course>343.78</course>
  <speed>8.13</speed>
  <fix>3d</fix>
</trkpt>
<trkpt lat="-35.3633094" lon="149.1624111">
  <ele>655.98</ele>
  <time>2026-08-27T18:28:12Z</time>
  <course>344.11</course>
  <speed>8.11400024648755</speed>
  <fix>3d</fix>
</trkpt>
<trkpt lat="-35.3633181" lon="149.162414">
  <ele>656.18</ele>
  <time>2026-08-27T18:28:12Z</time>
  <course>343.73</course>
  <speed>8.13</speed>
  <fix>3d</fix>
</trkpt>
<trkpt lat="-35.3632955" lon="149.162406">
  <ele>655.68</ele>
  <time>2026-08-27T18:28:12Z</time>
  <course>344.04</course>
  <speed>8.11400024648755</speed>
  <fix>3d</fix>
</trkpt>
<trkpt lat="-35.363304" lon="149.1624091">
  <ele>655.88</ele>
  <time>2026-08-27T18:28:12Z</time>
  <course>343.69</course>
  <speed>8.13</speed>
  <fix>3d</fix>
</trkpt>
<trkpt lat="-35.3632815" lon="149.162401">
  <ele>655.37</ele>
  <time>2026-08-27T18:28:12Z</time>
  <course>343.97</course>
  <speed>8.116803558051656</speed>
  <fix>3d</fix>
</trkpt>
<trkpt lat="-35.3632901" lon="149.162404">
  <ele>655.57</ele>
  <time>2026-08-27T18:28:12Z</time>
  <course>343.63</course>
  <speed>8.13</speed>
  <fix>3d</fix>
</trkpt>
<trkpt lat="-35.3632675" lon="149.1623959">
  <ele>655.07</ele>
  <time>2026-08-27T18:28:12Z</time>
  <course>343.89</course>
  <speed>8.119618217625753</speed>
  <fix>3d</fix>
</trkpt>
<trkpt lat="-35.363276" lon="149.162399">
  <ele>655.27</ele>
  <time>2026-08-27T18:28:12Z</time>
  <course>343.58</course>
  <speed>8.14</speed>
  <fix>3d</fix>
</trkpt>
<trkpt lat="-35.3632534" lon="149.1623909">
  <ele>654.77</ele>
  <time>2026-08-27T18:28:12Z</time>
  <course>343.8</course>
  <speed>8.13203541556479</speed>
  <fix>3d</fix>
</trkpt>
<trkpt lat="-35.3632619" lon="149.1623939">
  <ele>654.97</ele>
  <time>2026-08-27T18:28:12Z</time>
  <course>343.52</course>
  <speed>8.15</speed>
  <fix>3d</fix>
</trkpt>
<trkpt lat="-35.3632395" lon="149.1623858">
  <ele>654.47</ele>
  <time>2026-08-27T18:28:12Z</time>
  <course>343.73</course>
  <speed>8.134869390469646</speed>
  <fix>3d</fix>
</trkpt>
<trkpt lat="-35.363248" lon="149.1623888">
  <ele>654.67</ele>
  <time>2026-08-27T18:28:12Z</time>
  <course>343.47</course>
  <speed>8.15</speed>
  <fix>3d</fix>
</trkpt>
<trkpt lat="-35.3632254" lon="149.1623807">
  <ele>654.17</ele>
  <time>2026-08-27T18:28:12Z</time>
  <course>343.66</course>
  <speed>8.147300166312766</speed>
  <fix>3d</fix>
</trkpt>
<trkpt lat="-35.3632339" lon="149.1623837">
  <ele>654.37</ele>
  <time>2026-08-27T18:28:12Z</time>
  <course>343.42</course>
  <speed>8.16</speed>
  <fix>3d</fix>
</trkpt>
<trkpt lat="-35.3632113" lon="149.1623755">
  <ele>653.87</ele>
  <time>2026-08-27T18:28:12Z</time>
  <course>343.63</course>
  <speed>8.147300166312766</speed>
  <fix>3d</fix>
</trkpt>
<trkpt lat="-35.3632198" lon="149.1623785">
  <ele>654.06</ele>
  <time>2026-08-27T18:28:12Z</time>
  <course>343.38</course>
  <speed>8.17</speed>
  <fix>3d</fix>
</trkpt>
<trkpt lat="-35.3631972" lon="149.1623703">
  <ele>653.57</ele>
  <time>2026-08-27T18:28:12Z</time>
  <course>343.57</course>
  <speed>8.159736515353913</speed>
  <fix>3d</fix>
</trkpt>
<trkpt lat="-35.3632058" lon="149.1623733">
  <ele>653.77</ele>
  <time>2026-08-27T18:28:12Z</time>
  <course>343.35</course>
  <speed>8.18</speed>
  <fix>3d</fix>
</trkpt>
<trkpt lat="-35.363183" lon="149.1623651">
  <ele>653.28</ele>
  <time>2026-08-27T18:28:12Z</time>
  <course>343.54</course>
  <speed>8.169320657190536</speed>
  <fix>3d</fix>
</trkpt>
<trkpt lat="-35.3631917" lon="149.1623682">
  <ele>653.47</ele>
  <time>2026-08-27T18:28:12Z</time>
  <course>343.32</course>
  <speed>8.18</speed>
  <fix>3d</fix>
</trkpt>
<trkpt lat="-35.3631689" lon="149.1623599">
  <ele>652.98</ele>
  <time>2026-08-27T18:28:12Z</time>
  <course>343.55</course>
  <speed>8.169320657190536</speed>
  <fix>3d</fix>
</trkpt>
<trkpt lat="-35.3631775" lon="149.162363">
  <ele>653.18</ele>
  <time>2026-08-27T18:28:12Z</time>
  <course>343.31</course>
  <speed>8.19</speed>
  <fix>3d</fix>
</trkpt>
<trkpt lat="-35.3631548" lon="149.1623547">
  <ele>652.68</ele>
  <time>2026-08-27T18:28:12Z</time>
  <course>343.55</course>
  <speed>8.169320657190536</speed>
  <fix>3d</fix>
</trkpt>
<trkpt lat="-35.3631634" lon="149.1623579">
  <ele>652.88</ele>
  <time>2026-08-27T18:28:12Z</time>
  <course>343.3</course>
  <speed>8.19</speed>
  <fix>3d</fix>
</trkpt>
<trkpt lat="-35.3631407" lon="149.1623496">
  <ele>652.38</ele>
  <time>2026-08-27T18:28:12Z</time>
  <course>343.54</course>
  <speed>8.169320657190536</speed>
  <fix>3d</fix>
</trkpt>
<trkpt lat="-35.3631493" lon="149.1623526">
  <ele>652.57</ele>
  <time>2026-08-27T18:28:12Z</time>
  <course>343.31</course>
  <speed>8.19</speed>
  <fix>3d</fix>
</trkpt>
<trkpt lat="-35.3631266" lon="149.1623444">
  <ele>652.09</ele>
  <time>2026-08-27T18:28:12Z</time>
  <course>343.58</course>
  <speed>8.169320657190536</speed>
  <fix>3d</fix>
</trkpt>
<trkpt lat="-35.3631352" lon="149.1623475">
  <ele>652.28</ele>
  <time>2026-08-27T18:28:12Z</time>
  <course>343.33</course>
  <speed>8.19</speed>
  <fix>3d</fix>
</trkpt>
<trkpt lat="-35.3631125" lon="149.1623392">
  <ele>651.79</ele>
  <time>2026-08-27T18:28:12Z</time>
  <course>343.62</course>
  <speed>8.16647414739066</speed>
  <fix>3d</fix>
</trkpt>
<trkpt lat="-35.3631211" lon="149.1623422">
  <ele>651.98</ele>
  <time>2026-08-27T18:28:12Z</time>
  <course>343.35</course>
  <speed>8.19</speed>
  <fix>3d</fix>
</trkpt>
<trkpt lat="-35.3630984" lon="149.1623341">
  <ele>651.49</ele>
  <time>2026-08-27T18:28:13Z</time>
  <course>343.66</course>
  <speed>8.16647414739066</speed>
  <fix>3d</fix>
</trkpt>
<trkpt lat="-35.363107" lon="149.1623371">
  <ele>651.68</ele>
  <time>2026-08-27T18:28:13Z</time>
  <course>343.39</course>
  <speed>8.19</speed>
  <fix>3d</fix>
</trkpt>
<trkpt lat="-35.3630843" lon="149.1623289">
  <ele>651.19</ele>
  <time>2026-08-27T18:28:13Z</time>
  <course>343.7</course>
  <speed>8.163638894512667</speed>
  <fix>3d</fix>
</trkpt>
<trkpt lat="-35.3630929" lon="149.162332">
  <ele>651.38</ele>
  <time>2026-08-27T18:28:13Z</time>
  <course>343.42</course>
  <speed>8.19</speed>
  <fix>3d</fix>
</trkpt>
<trkpt lat="-35.3630702" lon="149.1623238">
  <ele>650.89</ele>
  <time>2026-08-27T18:28:13Z</time>
  <course>343.71</course>
  <speed>8.173230695386005</speed>
  <fix>3d</fix>
</trkpt>
<trkpt lat="-35.3630788" lon="149.1623268">
  <ele>651.07</ele>
  <time>2026-08-27T18:28:13Z</time>
  <course>343.46</course>
  <speed>8.19</speed>
  <fix>3d</fix>
</trkpt>
<trkpt lat="-35.363056" lon="149.1623186">
  <ele>650.58</ele>
  <time>2026-08-27T18:28:13Z</time>
  <course>343.74</course>
  <speed>8.170410026430742</speed>
  <fix>3d</fix>
</trkpt>
<trkpt lat="-35.3630647" lon="149.1623217">
  <ele>650.77</ele>
  <time>2026-08-27T18:28:13Z</time>
  <course>343.5</course>
  <speed>8.19</speed>
  <fix>3d</fix>
</trkpt>
<trkpt lat="-35.3630419" lon="149.1623135">
  <ele>650.27</ele>
  <time>2026-08-27T18:28:13Z</time>
  <course>343.77</course>
  <speed>8.170410026430742</speed>
  <fix>3d</fix>
</trkpt>
<trkpt lat="-35.3630506" lon="149.1623166">
  <ele>650.47</ele>
  <time>2026-08-27T18:28:13Z</time>
  <course>343.53</course>
  <speed>8.19</speed>
  <fix>3d</fix>
</trkpt>
<trkpt lat="-35.3630277" lon="149.1623084">
  <ele>649.97</ele>
  <time>2026-08-27T18:28:13Z</time>
  <course>343.8</course>
  <speed>8.170410026430742</speed>
  <fix>3d</fix>
</trkpt>
<trkpt lat="-35.3630364" lon="149.1623114">
  <ele>650.17</ele>
  <time>2026-08-27T18:28:13Z</time>
  <course>343.56</course>
  <speed>8.18</speed>
  <fix>3d</fix>
</trkpt>
<trkpt lat="-35.3630136" lon="149.1623033">
  <ele>649.67</ele>
  <time>2026-08-27T18:28:13Z</time>
  <course>343.79</course>
  <speed>8.158002206422845</speed>
  <fix>3d</fix>
</trkpt>
<trkpt lat="-35.3630223" lon="149.1623063">
  <ele>649.87</ele>
  <time>2026-08-27T18:28:13Z</time>
  <course>343.58</course>
  <speed>8.18</speed>
  <fix>3d</fix>
</trkpt>
<trkpt lat="-35.3629996" lon="149.1622982">
  <ele>649.37</ele>
  <time>2026-08-27T18:28:13Z</time>
  <course>343.79</course>
  <speed>8.158002206422845</speed>
  <fix>3d</fix>
</trkpt>
<trkpt lat="-35.3630082" lon="149.1623013">
  <ele>649.56</ele>
  <time>2026-08-27T18:28:13Z</time>
  <course>343.6</course>
  <speed>8.18</speed>
  <fix>3d</fix>
</trkpt>
<trkpt lat="-35.3629855" lon="149.1622932">
  <ele>649.07</ele>
  <time>2026-08-27T18:28:13Z</time>
  <course>343.81</course>
  <speed>8.158002206422845</speed>
  <fix>3d</fix>
</trkpt>
<trkpt lat="-35.3629941" lon="149.1622962">
  <ele>649.27</ele>
  <time>2026-08-27T18:28:13Z</time>
  <course>343.62</course>
  <speed>8.18</speed>
  <fix>3d</fix>
</trkpt>
<trkpt lat="-35.3629715" lon="149.1622881">
  <ele>648.77</ele>
  <time>2026-08-27T18:28:13Z</time>
  <course>343.82</course>
  <speed>8.155200794585012</speed>
  <fix>3d</fix>
</trkpt>
<trkpt lat="-35.36298" lon="149.1622911">
  <ele>648.97</ele>
  <time>2026-08-27T18:28:13Z</time>
  <course>343.63</course>
  <speed>8.18</speed>
  <fix>3d</fix>
</trkpt>
<trkpt lat="-35.3629574" lon="149.1622831">
  <ele>648.47</ele>
  <time>2026-08-27T18:28:13Z</time>
  <course>343.81</course>
  <speed>8.155200794585012</speed>
  <fix>3d</fix>
</trkpt>
<trkpt lat="-35.3629659" lon="149.162286">
  <ele>648.67</ele>
  <time>2026-08-27T18:28:13Z</time>
  <course>343.64</course>
  <speed>8.18</speed>
  <fix>3d</fix>
</trkpt>
<trkpt lat="-35.3629434" lon="149.162278">
  <ele>648.18</ele>
  <time>2026-08-27T18:28:13Z</time>
  <course>343.81</course>
  <speed>8.155200794585012</speed>
  <fix>3d</fix>
</trkpt>
<trkpt lat="-35.3629518" lon="149.162281">
  <ele>648.38</ele>
  <time>2026-08-27T18:28:13Z</time>
  <course>343.64</course>
  <speed>8.18</speed>
  <fix>3d</fix>
</trkpt>
<trkpt lat="-35.3629293" lon="149.1622729">
  <ele>647.88</ele>
  <time>2026-08-27T18:28:13Z</time>
  <course>343.8</course>
  <speed>8.158002206422845</speed>
  <fix>3d</fix>
</trkpt>
<trkpt lat="-35.3629377" lon="149.1622759">
  <ele>648.07</ele>
  <time>2026-08-27T18:28:13Z</time>
  <course>343.63</course>
  <speed>8.18</speed>
  <fix>3d</fix>
</trkpt>
<trkpt lat="-35.3629152" lon="149.1622679">
  <ele>647.59</ele>
  <time>2026-08-27T18:28:13Z</time>
  <course>343.79</course>
  <speed>8.158002206422845</speed>
  <fix>3d</fix>
</trkpt>
<trkpt lat="-35.3629236" lon="149.1622708">
  <ele>647.78</ele>
  <time>2026-08-27T18:28:13Z</time>
  <course>343.62</course>
  <speed>8.18</speed>
  <fix>3d</fix>
</trkpt>
<trkpt lat="-35.362901" lon="149.1622627">
  <ele>647.29</ele>
  <time>2026-08-27T18:28:13Z</time>
  <course>343.76</course>
  <speed>8.158002206422845</speed>
  <fix>3d</fix>
</trkpt>
<trkpt lat="-35.3629095" lon="149.1622657">
  <ele>647.48</ele>
  <time>2026-08-27T18:28:13Z</time>
  <course>343.61</course>
  <speed>8.18</speed>
  <fix>3d</fix>
</trkpt>
<trkpt lat="-35.3628869" lon="149.1622576">
  <ele>646.99</ele>
  <time>2026-08-27T18:28:13Z</time>
  <course>343.75</course>
  <speed>8.16081491028929</speed>
  <fix>3d</fix>
</trkpt>
<trkpt lat="-35.3628954" lon="149.1622606">
  <ele>647.18</ele>
  <time>2026-08-27T18:28:13Z</time>
  <course>343.59</course>
  <speed>8.18</speed>
  <fix>3d</fix>
</trkpt>
<trkpt lat="-35.3628727" lon="149.1622525">
  <ele>646.7</ele>
  <time>2026-08-27T18:28:13Z</time>
  <course>343.74</course>
  <speed>8.16081491028929</speed>
  <fix>3d</fix>
</trkpt>
<trkpt lat="-35.3628812" lon="149.1622555">
  <ele>646.88</ele>
  <time>2026-08-27T18:28:13Z</time>
  <course>343.57</course>
  <speed>8.18</speed>
  <fix>3d</fix>
</trkpt>
<trkpt lat="-35.3628586" lon="149.1622474">
  <ele>646.4</ele>
  <time>2026-08-27T18:28:13Z</time>
  <course>343.74</course>
  <speed>8.16081491028929</speed>
  <fix>3d</fix>
</trkpt>
<trkpt lat="-35.3628671" lon="149.1622504">
  <ele>646.57</ele>
  <time>2026-08-27T18:28:13Z</time>
  <course>343.56</course>
  <speed>8.18</speed>
  <fix>3d</fix>
</trkpt>
<trkpt lat="-35.3628445" lon="149.1622423">
  <ele>646.09</ele>
  <time>2026-08-27T18:28:13Z</time>
  <course>343.73</course>
  <speed>8.151220767467901</speed>
  <fix>3d</fix>
</trkpt>
<trkpt lat="-35.362853" lon="149.1622453">
  <ele>646.28</ele>
  <time>2026-08-27T18:28:13Z</time>
  <course>343.55</course>
  <speed>8.18</speed>
  <fix>3d</fix>
</trkpt>
<trkpt lat="-35.3628304" lon="149.1622372">
  <ele>645.79</ele>
  <time>2026-08-27T18:28:13Z</time>
  <course>343.71</course>
  <speed>8.151220767467901</speed>
  <fix>3d</fix>
</trkpt>
<trkpt lat="-35.3628389" lon="149.1622402">
  <ele>645.97</ele>
  <time>2026-08-27T18:28:13Z</time>
  <course>343.54</course>
  <speed>8.17</speed>
  <fix>3d</fix>
</trkpt>
<trkpt lat="-35.3628163" lon="149.1622321">
  <ele>645.49</ele>
  <time>2026-08-27T18:28:13Z</time>
  <course>343.69</course>
  <speed>8.151220767467901</speed>
  <fix>3d</fix>
</trkpt>
<trkpt lat="-35.3628249" lon="149.1622351">
  <ele>645.67</ele>
  <time>2026-08-27T18:28:13Z</time>
  <course>343.53</course>
  <speed>8.17</speed>
  <fix>3d</fix>
</trkpt>
<trkpt lat="-35.3628023" lon="149.162227">
  <ele>645.19</ele>
  <time>2026-08-27T18:28:13Z</time>
  <course>343.66</course>
  <speed>8.151220767467901</speed>
  <fix>3d</fix>
</trkpt>
<trkpt lat="-35.3628108" lon="149.16223">
  <ele>645.37</ele>
  <time>2026-08-27T18:28:13Z</time>
  <course>343.53</course>
  <speed>8.17</speed>
  <fix>3d</fix>
</trkpt>
<trkpt lat="-35.3627883" lon="149.1622219">
  <ele>644.89</ele>
  <time>2026-08-27T18:28:13Z</time>
  <course>343.66</course>
  <speed>8.151220767467901</speed>
  <fix>3d</fix>
</trkpt>
<trkpt lat="-35.3627967" lon="149.1622249">
  <ele>645.06</ele>
  <time>2026-08-27T18:28:13Z</time>
  <course>343.52</course>
  <speed>8.17</speed>
  <fix>3d</fix>
</trkpt>
<trkpt lat="-35.3627741" lon="149.1622168">
  <ele>644.59</ele>
  <time>2026-08-27T18:28:13Z</time>
  <course>343.64</course>
  <speed>8.151220767467901</speed>
  <fix>3d</fix>
</trkpt>
<trkpt lat="-35.3627826" lon="149.1622198">
  <ele>644.77</ele>
  <time>2026-08-27T18:28:13Z</time>
  <course>343.51</course>
  <speed>8.17</speed>
  <fix>3d</fix>
</trkpt>
<trkpt lat="-35.36276" lon="149.1622117">
  <ele>644.29</ele>
  <time>2026-08-27T18:28:13Z</time>
  <course>343.61</course>
  <speed>8.151220767467901</speed>
  <fix>3d</fix>
</trkpt>
<trkpt lat="-35.3627685" lon="149.1622147">
  <ele>644.46</ele>
  <time>2026-08-27T18:28:13Z</time>
  <course>343.5</course>
  <speed>8.17</speed>
  <fix>3d</fix>
</trkpt>
<trkpt lat="-35.3627459" lon="149.1622066">
  <ele>643.99</ele>
  <time>2026-08-27T18:28:13Z</time>
  <course>343.6</course>
  <speed>8.151220767467901</speed>
  <fix>3d</fix>
</trkpt>
<trkpt lat="-35.3627545" lon="149.1622096">
  <ele>644.16</ele>
  <time>2026-08-27T18:28:13Z</time>
  <course>343.5</course>
  <speed>8.17</speed>
  <fix>3d</fix>
</trkpt>
<trkpt lat="-35.3627318" lon="149.1622014">
  <ele>643.68</ele>
  <time>2026-08-27T18:28:13Z</time>
  <course>343.61</course>
  <speed>8.151220767467901</speed>
  <fix>3d</fix>
</trkpt>
<trkpt lat="-35.3627404" lon="149.1622044">
  <ele>643.86</ele>
  <time>2026-08-27T18:28:13Z</time>
  <course>343.49</course>
  <speed>8.17</speed>
  <fix>3d</fix>
</trkpt>
<trkpt lat="-35.3627177" lon="149.1621963">
  <ele>643.38</ele>
  <time>2026-08-27T18:28:13Z</time>
  <course>343.58</course>
  <speed>8.154048074422912</speed>
  <fix>3d</fix>
</trkpt>
<trkpt lat="-35.3627263" lon="149.1621993">
  <ele>643.56</ele>
  <time>2026-08-27T18:28:13Z</time>
  <course>343.48</course>
  <speed>8.17</speed>
  <fix>3d</fix>
</trkpt>
<trkpt lat="-35.3627036" lon="149.1621912">
  <ele>643.07</ele>
  <time>2026-08-27T18:28:13Z</time>
  <course>343.56</course>
  <speed>8.154048074422912</speed>
  <fix>3d</fix>
</trkpt>
<trkpt lat="-35.3627122" lon="149.1621942">
  <ele>643.26</ele>
  <time>2026-08-27T18:28:13Z</time>
  <course>343.48</course>
  <speed>8.17</speed>
  <fix>3d</fix>
</trkpt>
<trkpt lat="-35.3626896" lon="149.1621861">
  <ele>642.77</ele>
  <time>2026-08-27T18:28:13Z</time>
  <course>343.57</course>
  <speed>8.154048074422912</speed>
  <fix>3d</fix>
</trkpt>
<trkpt lat="-35.3626981" lon="149.1621891">
  <ele>642.95</ele>
  <time>2026-08-27T18:28:13Z</time>
  <course>343.48</course>
  <speed>8.17</speed>
  <fix>3d</fix>
</trkpt>
<trkpt lat="-35.3626755" lon="149.162181">
  <ele>642.47</ele>
  <time>2026-08-27T18:28:13Z</time>
  <course>343.55</course>
  <speed>8.151220767467901</speed>
  <fix>3d</fix>
</trkpt>
<trkpt lat="-35.3626841" lon="149.162184">
  <ele>642.66</ele>
  <time>2026-08-27T18:28:13Z</time>
  <course>343.48</course>
  <speed>8.17</speed>
  <fix>3d</fix>
</trkpt>
<trkpt lat="-35.3626615" lon="149.1621759">
  <ele>642.17</ele>
  <time>2026-08-27T18:28:13Z</time>
  <course>343.54</course>
  <speed>8.141627601407473</speed>
  <fix>3d</fix>
</trkpt>
<trkpt lat="-35.36267" lon="149.1621789">
  <ele>642.36</ele>
  <time>2026-08-27T18:28:13Z</time>
  <course>343.48</course>
  <speed>8.17</speed>
  <fix>3d</fix>
</trkpt>
<trkpt lat="-35.3626475" lon="149.1621708">
  <ele>641.87</ele>
  <time>2026-08-27T18:28:13Z</time>
  <course>343.53</course>
  <speed>8.141627601407473</speed>
  <fix>3d</fix>
</trkpt>
<trkpt lat="-35.362656" lon="149.1621737">
  <ele>642.06</ele>
  <time>2026-08-27T18:28:13Z</time>
  <course>343.48</course>
  <speed>8.17</speed>
  <fix>3d</fix>
</trkpt>
<trkpt lat="-35.3626335" lon="149.1621657">
  <ele>641.57</ele>
  <time>2026-08-27T18:28:13Z</time>
  <course>343.51</course>
  <speed>8.151220767467901</speed>
  <fix>3d</fix>
</trkpt>
<trkpt lat="-35.3626419" lon="149.1621686">
  <ele>641.76</ele>
  <time>2026-08-27T18:28:13Z</time>
  <course>343.49</course>
  <speed>8.17</speed>
  <fix>3d</fix>
</trkpt>
<trkpt lat="-35.3626194" lon="149.1621605">
  <ele>641.27</ele>
  <time>2026-08-27T18:28:13Z</time>
  <course>343.5</course>
  <speed>8.154048074422912</speed>
  <fix>3d</fix>
</trkpt>
<trkpt lat="-35.3626278" lon="149.1621635">
  <ele>641.45</ele>
  <time>2026-08-27T18:28:13Z</time>
  <course>343.49</course>
  <speed>8.17</speed>
  <fix>3d</fix>
</trkpt>
<trkpt lat="-35.3626053" lon="149.1621554">
  <ele>640.96</ele>
  <time>2026-08-27T18:28:13Z</time>
  <course>343.5</course>
  <speed>8.163638894512667</speed>
  <fix>3d</fix>
</trkpt>
<trkpt lat="-35.3626137" lon="149.1621584">
  <ele>641.16</ele>
  <time>2026-08-27T18:28:13Z</time>
  <course>343.49</course>
  <speed>8.18</speed>
  <fix>3d</fix>
</trkpt>
<trkpt lat="-35.3625911" lon="149.1621503">
  <ele>640.66</ele>
  <time>2026-08-27T18:28:13Z</time>
  <course>343.49</course>
  <speed>8.173230695386005</speed>
  <fix>3d</fix>
</trkpt>
<trkpt lat="-35.3625995" lon="149.1621533">
  <ele>640.86</ele>
  <time>2026-08-27T18:28:13Z</time>
  <course>343.5</course>
  <speed>8.19</speed>
  <fix>3d</fix>
</trkpt>
<trkpt lat="-35.362577" lon="149.1621452">
  <ele>640.36</ele>
  <time>2026-08-27T18:28:13Z</time>
  <course>343.49</course>
  <speed>8.173230695386005</speed>
  <fix>3d</fix>
</trkpt>
<trkpt lat="-35.3625854" lon="149.1621481">
  <ele>640.56</ele>
  <time>2026-08-27T18:28:13Z</time>
  <course>343.5</course>
  <speed>8.19</speed>
  <fix>3d</fix>
</trkpt>
<trkpt lat="-35.3625629" lon="149.16214">
  <ele>640.07</ele>
  <time>2026-08-27T18:28:13Z</time>
  <course>343.51</course>
  <speed>8.173230695386005</speed>
  <fix>3d</fix>
</trkpt>
<trkpt lat="-35.3625713" lon="149.162143">
  <ele>640.27</ele>
  <time>2026-08-27T18:28:13Z</time>
  <course>343.51</course>
  <speed>8.2</speed>
  <fix>3d</fix>
</trkpt>
<trkpt lat="-35.3625488" lon="149.1621349">
  <ele>639.77</ele>
  <time>2026-08-27T18:28:13Z</time>
  <course>343.52</course>
  <speed>8.173230695386005</speed>
  <fix>3d</fix>
</trkpt>
<trkpt lat="-35.3625572" lon="149.1621379">
  <ele>639.97</ele>
  <time>2026-08-27T18:28:13Z</time>
  <course>343.51</course>
  <speed>8.2</speed>
  <fix>3d</fix>
</trkpt>
<trkpt lat="-35.3625347" lon="149.1621298">
  <ele>639.48</ele>
  <time>2026-08-27T18:28:13Z</time>
  <course>343.56</course>
  <speed>8.173230695386005</speed>
  <fix>3d</fix>
</trkpt>
<trkpt lat="-35.362543" lon="149.1621328">
  <ele>639.67</ele>
  <time>2026-08-27T18:28:13Z</time>
  <course>343.52</course>
  <speed>8.2</speed>
  <fix>3d</fix>
</trkpt>
<trkpt lat="-35.3625205" lon="149.1621247">
  <ele>639.18</ele>
  <time>2026-08-27T18:28:13Z</time>
  <course>343.58</course>
  <speed>8.170410026430742</speed>
  <fix>3d</fix>
</trkpt>
<trkpt lat="-35.3625289" lon="149.1621276">
  <ele>639.38</ele>
  <time>2026-08-27T18:28:13Z</time>
  <course>343.53</course>
  <speed>8.19</speed>
  <fix>3d</fix>
</trkpt>
<trkpt lat="-35.3625065" lon="149.1621196">
  <ele>638.89</ele>
  <time>2026-08-27T18:28:13Z</time>
  <course>343.59</course>
  <speed>8.170410026430742</speed>
  <fix>3d</fix>
</trkpt>
<trkpt lat="-35.3625148" lon="149.1621225">
  <ele>639.08</ele>
  <time>2026-08-27T18:28:13Z</time>
  <course>343.54</course>
  <speed>8.19</speed>
  <fix>3d</fix>
</trkpt>
<trkpt lat="-35.3624924" lon="149.1621145">
  <ele>638.6</ele>
  <time>2026-08-27T18:28:13Z</time>
  <course>343.62</course>
  <speed>8.170410026430742</speed>
  <fix>3d</fix>
</trkpt>
<trkpt lat="-35.3625007" lon="149.1621174">
  <ele>638.79</ele>
  <time>2026-08-27T18:28:13Z</time>
  <course>343.54</course>
  <speed>8.19</speed>
  <fix>3d</fix>
</trkpt>
<trkpt lat="-35.3624782" lon="149.1621094">
  <ele>638.3</ele>
  <time>2026-08-27T18:28:13Z</time>
  <course>343.62</course>
  <speed>8.170410026430742</speed>
  <fix>3d</fix>
</trkpt>
<trkpt lat="-35.3624866" lon="149.1621123">
  <ele>638.49</ele>
  <time>2026-08-27T18:28:13Z</time>
  <course>343.55</course>
  <speed>8.19</speed>
  <fix>3d</fix>
</trkpt>
<trkpt lat="-35.362464" lon="149.1621042">
  <ele>638.0</ele>
  <time>2026-08-27T18:28:13Z</time>
  <course>343.63</course>
  <speed>8.170410026430742</speed>
  <fix>3d</fix>
</trkpt>
<trkpt lat="-35.3624725" lon="149.1621072">
  <ele>638.18</ele>
  <time>2026-08-27T18:28:13Z</time>
  <course>343.56</course>
  <speed>8.19</speed>
  <fix>3d</fix>
</trkpt>
<trkpt lat="-35.3624499" lon="149.1620991">
  <ele>637.7</ele>
  <time>2026-08-27T18:28:13Z</time>
  <course>343.63</course>
  <speed>8.170410026430742</speed>
  <fix>3d</fix>
</trkpt>
<trkpt lat="-35.3624583" lon="149.1621021">
  <ele>637.88</ele>
  <time>2026-08-27T18:28:13Z</time>
  <course>343.57</course>
  <speed>8.18</speed>
  <fix>3d</fix>
</trkpt>
<trkpt lat="-35.3624357" lon="149.162094">
  <ele>637.39</ele>
  <time>2026-08-27T18:28:13Z</time>
  <course>343.65</course>
  <speed>8.16081491028929</speed>
  <fix>3d</fix>
</trkpt>
<trkpt lat="-35.3624442" lon="149.162097">
  <ele>637.57</ele>
  <time>2026-08-27T18:28:13Z</time>
  <course>343.57</course>
  <speed>8.18</speed>
  <fix>3d</fix>
</trkpt>
<trkpt lat="-35.3624216" lon="149.1620889">
  <ele>637.08</ele>
  <time>2026-08-27T18:28:13Z</time>
  <course>343.65</course>
  <speed>8.158002206422845</speed>
  <fix>3d</fix>
</trkpt>
<trkpt lat="-35.3624301" lon="149.1620919">
  <ele>637.27</ele>
  <time>2026-08-27T18:28:13Z</time>
  <course>343.57</course>
  <speed>8.18</speed>
  <fix>3d</fix>
</trkpt>
<trkpt lat="-35.3624075" lon="149.1620838">
  <ele>636.77</ele>
  <time>2026-08-27T18:28:13Z</time>
  <course>343.63</course>
  <speed>8.158002206422845</speed>
  <fix>3d</fix>
</trkpt>
<trkpt lat="-35.362416" lon="149.1620868">
  <ele>636.97</ele>
  <time>2026-08-27T18:28:13Z</time>
  <course>343.57</course>
  <speed>8.17</speed>
  <fix>3d</fix>
</trkpt>
<trkpt lat="-35.3623934" lon="149.1620787">
  <ele>636.47</ele>
  <time>2026-08-27T18:28:13Z</time>
  <course>343.61</course>
  <speed>8.14840475185174</speed>
  <fix>3d</fix>
</trkpt>
<trkpt lat="-35.3624019" lon="149.1620817">
  <ele>636.67</ele>
  <time>2026-08-27T18:28:13Z</time>
  <course>343.57</course>
  <speed>8.17</speed>
  <fix>3d</fix>
</trkpt>
<trkpt lat="-35.3623793" lon="149.1620736">
  <ele>636.17</ele>
  <time>2026-08-27T18:28:13Z</time>
  <course>343.6</course>
  <speed>8.14840475185174</speed>
  <fix>3d</fix>
</trkpt>
<trkpt lat="-35.3623879" lon="149.1620766">
  <ele>636.37</ele>
  <time>2026-08-27T18:28:13Z</time>
  <course>343.56</course>
  <speed>8.16</speed>
  <fix>3d</fix>
</trkpt>
<trkpt lat="-35.3623652" lon="149.1620685">
  <ele>635.88</ele>
  <time>2026-08-27T18:28:13Z</time>
  <course>343.6</course>
  <speed>8.138808266570727</speed>
  <fix>3d</fix>
</trkpt>
<trkpt lat="-35.3623738" lon="149.1620715">
  <ele>636.07</ele>
  <time>2026-08-27T18:28:13Z</time>
  <course>343.56</course>
  <speed>8.15</speed>
  <fix>3d</fix>
</trkpt>
<trkpt lat="-35.3623512" lon="149.1620634">
  <ele>635.58</ele>
  <time>2026-08-27T18:28:13Z</time>
  <course>343.6</course>
  <speed>8.138808266570727</speed>
  <fix>3d</fix>
</trkpt>
<trkpt lat="-35.3623597" lon="149.1620664">
  <ele>635.78</ele>
  <time>2026-08-27T18:28:13Z</time>
  <course>343.55</course>
  <speed>8.15</speed>
  <fix>3d</fix>
</trkpt>
<trkpt lat="-35.3623371" lon="149.1620583">
  <ele>635.28</ele>
  <time>2026-08-27T18:28:13Z</time>
  <course>343.59</course>
  <speed>8.129212754012531</speed>
  <fix>3d</fix>
</trkpt>
<trkpt lat="-35.3623457" lon="149.1620614">
  <ele>635.48</ele>
  <time>2026-08-27T18:28:13Z</time>
  <course>343.55</course>
  <speed>8.14</speed>
  <fix>3d</fix>
</trkpt>
<trkpt lat="-35.3623229" lon="149.1620532">
  <ele>634.98</ele>
  <time>2026-08-27T18:28:13Z</time>
  <course>343.56</course>
  <speed>8.129212754012531</speed>
  <fix>3d</fix>
</trkpt>
<trkpt lat="-35.3623317" lon="149.1620563">
  <ele>635.18</ele>
  <time>2026-08-27T18:28:13Z</time>
  <course>343.54</course>
  <speed>8.14</speed>
  <fix>3d</fix>
</trkpt>
<trkpt lat="-35.3623089" lon="149.1620481">
  <ele>634.68</ele>
  <time>2026-08-27T18:28:13Z</time>
  <course>343.57</course>
  <speed>8.129212754012531</speed>
  <fix>3d</fix>
</trkpt>
<trkpt lat="-35.3623177" lon="149.1620512">
  <ele>634.88</ele>
  <time>2026-08-27T18:28:13Z</time>
  <course>343.54</course>
  <speed>8.14</speed>
  <fix>3d</fix>
</trkpt>
<trkpt lat="-35.3622949" lon="149.1620431">
  <ele>634.38</ele>
  <time>2026-08-27T18:28:13Z</time>
  <course>343.56</course>
  <speed>8.129212754012531</speed>
  <fix>3d</fix>
</trkpt>
<trkpt lat="-35.3623036" lon="149.1620461">
  <ele>634.57</ele>
  <time>2026-08-27T18:28:13Z</time>
  <course>343.53</course>
  <speed>8.14</speed>
  <fix>3d</fix>
</trkpt>
<trkpt lat="-35.3622809" lon="149.162038">
  <ele>634.09</ele>
  <time>2026-08-27T18:28:13Z</time>
  <course>343.52</course>
  <speed>8.129212754012531</speed>
  <fix>3d</fix>
</trkpt>
<trkpt lat="-35.3622895" lon="149.162041">
  <ele>634.28</ele>
  <time>2026-08-27T18:28:13Z</time>
  <course>343.52</course>
  <speed>8.14</speed>
  <fix>3d</fix>
</trkpt>
<trkpt lat="-35.3622669" lon="149.1620329">
  <ele>633.78</ele>
  <time>2026-08-27T18:28:13Z</time>
  <course>343.5</course>
  <speed>8.13203541556479</speed>
  <fix>3d</fix>
</trkpt>
<trkpt lat="-35.3622756" lon="149.1620359">
  <ele>633.98</ele>
  <time>2026-08-27T18:28:13Z</time>
  <course>343.52</course>
  <speed>8.14</speed>
  <fix>3d</fix>
</trkpt>
<trkpt lat="-35.3622529" lon="149.1620278">
  <ele>633.48</ele>
  <time>2026-08-27T18:28:13Z</time>
  <course>343.48</course>
  <speed>8.141627601407473</speed>
  <fix>3d</fix>
</trkpt>
<trkpt lat="-35.3622615" lon="149.1620308">
  <ele>633.68</ele>
  <time>2026-08-27T18:28:13Z</time>
  <course>343.51</course>
  <speed>8.15</speed>
  <fix>3d</fix>
</trkpt>
<trkpt lat="-35.3622389" lon="149.1620227">
  <ele>633.17</ele>
  <time>2026-08-27T18:28:13Z</time>
  <course>343.44</course>
  <speed>8.141627601407473</speed>
  <fix>3d</fix>
</trkpt>
<trkpt lat="-35.3622474" lon="149.1620257">
  <ele>633.38</ele>
  <time>2026-08-27T18:28:13Z</time>
  <course>343.5</course>
  <speed>8.16</speed>
  <fix>3d</fix>
</trkpt>
<trkpt lat="-35.3622249" lon="149.1620176">
  <ele>632.87</ele>
  <time>2026-08-27T18:28:13Z</time>
  <course>343.41</course>
  <speed>8.154048074422912</speed>
  <fix>3d</fix>
</trkpt>
<trkpt lat="-35.3622334" lon="149.1620206">
  <ele>633.07</ele>
  <time>2026-08-27T18:28:13Z</time>
  <course>343.49</course>
  <speed>8.17</speed>
  <fix>3d</fix>
</trkpt>
<trkpt lat="-35.3622109" lon="149.1620126">
  <ele>632.57</ele>
  <time>2026-08-27T18:28:13Z</time>
  <course>343.37</course>
  <speed>8.163638894512667</speed>
  <fix>3d</fix>
</trkpt>
<trkpt lat="-35.3622193" lon="149.1620155">
  <ele>632.78</ele>
  <time>2026-08-27T18:28:13Z</time>
  <course>343.48</course>
  <speed>8.18</speed>
  <fix>3d</fix>
</trkpt>
<trkpt lat="-35.3621969" lon="149.1620074">
  <ele>632.28</ele>
  <time>2026-08-27T18:28:13Z</time>
  <course>343.37</course>
  <speed>8.173230695386005</speed>
  <fix>3d</fix>
</trkpt>
<trkpt lat="-35.3622052" lon="149.1620104">
  <ele>632.48</ele>
  <time>2026-08-27T18:28:13Z</time>
  <course>343.47</course>
  <speed>8.19</speed>
  <fix>3d</fix>
</trkpt>
<trkpt lat="-35.3621827" lon="149.1620023">
  <ele>631.98</ele>
  <time>2026-08-27T18:28:13Z</time>
  <course>343.37</course>
  <speed>8.18282347359394</speed>
  <fix>3d</fix>
</trkpt>
<trkpt lat="-35.3621911" lon="149.1620052">
  <ele>632.18</ele>
  <time>2026-08-27T18:28:13Z</time>
  <course>343.47</course>
  <speed>8.2</speed>
  <fix>3d</fix>
</trkpt>
<trkpt lat="-35.3621685" lon="149.1619971">
  <ele>631.68</ele>
  <time>2026-08-27T18:28:13Z</time>
  <course>343.38</course>
  <speed>8.18565208153877</speed>
  <fix>3d</fix>
</trkpt>
<trkpt lat="-35.362177" lon="149.1620001">
  <ele>631.88</ele>
  <time>2026-08-27T18:28:13Z</time>
  <course>343.47</course>
  <speed>8.21</speed>
  <fix>3d</fix>
</trkpt>
<trkpt lat="-35.3621544" lon="149.161992">
  <ele>631.38</ele>
  <time>2026-08-27T18:28:13Z</time>
  <course>343.39</course>
  <speed>8.19524252234185</speed>
  <fix>3d</fix>
</trkpt>
<trkpt lat="-35.3621627" lon="149.161995">
  <ele>631.58</ele>
  <time>2026-08-27T18:28:13Z</time>
  <course>343.47</course>
  <speed>8.21</speed>
  <fix>3d</fix>
</trkpt>
<trkpt lat="-35.3621402" lon="149.1619868">
  <ele>631.08</ele>
  <time>2026-08-27T18:28:13Z</time>
  <course>343.42</course>
  <speed>8.19524252234185</speed>
  <fix>3d</fix>
</trkpt>
<trkpt lat="-35.3621486" lon="149.1619898">
  <ele>631.29</ele>
  <time>2026-08-27T18:28:13Z</time>
  <course>343.47</course>
  <speed>8.22</speed>
  <fix>3d</fix>
</trkpt>
<trkpt lat="-35.362126" lon="149.1619817">
  <ele>630.79</ele>
  <time>2026-08-27T18:28:13Z</time>
  <course>343.44</course>
  <speed>8.19524252234185</speed>
  <fix>3d</fix>
</trkpt>
<trkpt lat="-35.3621344" lon="149.1619847">
  <ele>630.99</ele>
  <time>2026-08-27T18:28:13Z</time>
  <course>343.48</course>
  <speed>8.22</speed>
  <fix>3d</fix>
</trkpt>
<trkpt lat="-35.3621118" lon="149.1619765">
  <ele>630.49</ele>
  <time>2026-08-27T18:28:13Z</time>
  <course>343.46</course>
  <speed>8.192417225703291</speed>
  <fix>3d</fix>
</trkpt>
<trkpt lat="-35.3621203" lon="149.1619795">
  <ele>630.69</ele>
  <time>2026-08-27T18:28:13Z</time>
  <course>343.48</course>
  <speed>8.21</speed>
  <fix>3d</fix>
</trkpt>
<trkpt lat="-35.3620977" lon="149.1619714">
  <ele>630.19</ele>
  <time>2026-08-27T18:28:13Z</time>
  <course>343.5</course>
  <speed>8.18282347359394</speed>
  <fix>3d</fix>
</trkpt>
<trkpt lat="-35.3621062" lon="149.1619744">
  <ele>630.39</ele>
  <time>2026-08-27T18:28:13Z</time>
  <course>343.5</course>
  <speed>8.21</speed>
  <fix>3d</fix>
</trkpt>
<trkpt lat="-35.3620835" lon="149.1619662">
  <ele>629.89</ele>
  <time>2026-08-27T18:28:13Z</time>
  <course>343.52</course>
  <speed>8.18282347359394</speed>
  <fix>3d</fix>
</trkpt>
<trkpt lat="-35.362092" lon="149.1619692">
  <ele>630.08</ele>
  <time>2026-08-27T18:28:13Z</time>
  <course>343.51</course>
  <speed>8.2</speed>
  <fix>3d</fix>
</trkpt>
<trkpt lat="-35.3620694" lon="149.1619611">
  <ele>629.59</ele>
  <time>2026-08-27T18:28:13Z</time>
  <course>343.55</course>
  <speed>8.170410026430742</speed>
  <fix>3d</fix>
</trkpt>
<trkpt lat="-35.3620779" lon="149.1619641">
  <ele>629.79</ele>
  <time>2026-08-27T18:28:13Z</time>
  <course>343.52</course>
  <speed>8.2</speed>
  <fix>3d</fix>
</trkpt>
<trkpt lat="-35.3620553" lon="149.161956">
  <ele>629.29</ele>
  <time>2026-08-27T18:28:13Z</time>
  <course>343.57</course>
  <speed>8.170410026430742</speed>
  <fix>3d</fix>
</trkpt>
<trkpt lat="-35.3620638" lon="149.161959">
  <ele>629.5</ele>
  <time>2026-08-27T18:28:13Z</time>
  <course>343.54</course>
  <speed>8.19</speed>
  <fix>3d</fix>
</trkpt>
<trkpt lat="-35.3620412" lon="149.1619509">
  <ele>629.0</ele>
  <time>2026-08-27T18:28:13Z</time>
  <course>343.58</course>
  <speed>8.16081491028929</speed>
  <fix>3d</fix>
</trkpt>
<trkpt lat="-35.3620496" lon="149.1619539">
  <ele>629.19</ele>
  <time>2026-08-27T18:28:13Z</time>
  <course>343.55</course>
  <speed>8.18</speed>
  <fix>3d</fix>
</trkpt>
<trkpt lat="-35.3620269" lon="149.1619458">
  <ele>628.7</ele>
  <time>2026-08-27T18:28:13Z</time>
  <course>343.59</course>
  <speed>8.158002206422845</speed>
  <fix>3d</fix>
</trkpt>
<trkpt lat="-35.3620356" lon="149.1619488">
  <ele>628.9</ele>
  <time>2026-08-27T18:28:13Z</time>
  <course>343.57</course>
  <speed>8.17</speed>
  <fix>3d</fix>
</trkpt>
<trkpt lat="-35.3620128" lon="149.1619407">
  <ele>628.4</ele>
  <time>2026-08-27T18:28:13Z</time>
  <course>343.61</course>
  <speed>8.14840475185174</speed>
  <fix>3d</fix>
</trkpt>
<trkpt lat="-35.3620215" lon="149.1619437">
  <ele>628.59</ele>
  <time>2026-08-27T18:28:13Z</time>
  <course>343.58</course>
  <speed>8.17</speed>
  <fix>3d</fix>
</trkpt>
<trkpt lat="-35.3619987" lon="149.1619356">
  <ele>628.1</ele>
  <time>2026-08-27T18:28:13Z</time>
  <course>343.62</course>
  <speed>8.14840475185174</speed>
  <fix>3d</fix>
</trkpt>
<trkpt lat="-35.3620073" lon="149.1619386">
  <ele>628.29</ele>
  <time>2026-08-27T18:28:13Z</time>
  <course>343.58</course>
  <speed>8.16</speed>
  <fix>3d</fix>
</trkpt>
<trkpt lat="-35.3619846" lon="149.1619305">
  <ele>627.79</ele>
  <time>2026-08-27T18:28:13Z</time>
  <course>343.63</course>
  <speed>8.138808266570727</speed>
  <fix>3d</fix>
</trkpt>
<trkpt lat="-35.3619932" lon="149.1619335">
  <ele>627.99</ele>
  <time>2026-08-27T18:28:13Z</time>
  <course>343.58</course>
  <speed>8.15</speed>
  <fix>3d</fix>
</trkpt>
<trkpt lat="-35.3619705" lon="149.1619254">
  <ele>627.49</ele>
  <time>2026-08-27T18:28:13Z</time>
  <course>343.62</course>
  <speed>8.138808266570727</speed>
  <fix>3d</fix>
</trkpt>
<trkpt lat="-35.3619793" lon="149.1619284">
  <ele>627.69</ele>
  <time>2026-08-27T18:28:13Z</time>
  <course>343.59</course>
  <speed>8.14</speed>
  <fix>3d</fix>
</trkpt>
<trkpt lat="-35.3619565" lon="149.1619203">
  <ele>627.18</ele>
  <time>2026-08-27T18:28:13Z</time>
  <course>343.61</course>
  <speed>8.126401417601766</speed>
  <fix>3d</fix>
</trkpt>
<trkpt lat="-35.3619652" lon="149.1619233">
  <ele>627.38</ele>
  <time>2026-08-27T18:28:13Z</time>
  <course>343.59</course>
  <speed>8.14</speed>
  <fix>3d</fix>
</trkpt>
<trkpt lat="-35.3619424" lon="149.1619152">
  <ele>626.88</ele>
  <time>2026-08-27T18:28:13Z</time>
  <course>343.59</course>
  <speed>8.126401417601766</speed>
  <fix>3d</fix>
</trkpt>
<trkpt lat="-35.3619511" lon="149.1619183">
  <ele>627.07</ele>
  <time>2026-08-27T18:28:13Z</time>
  <course>343.59</course>
  <speed>8.13</speed>
  <fix>3d</fix>
</trkpt>
<trkpt lat="-35.3619284" lon="149.1619102">
  <ele>626.57</ele>
  <time>2026-08-27T18:28:13Z</time>
  <course>343.57</course>
  <speed>8.126401417601766</speed>
  <fix>3d</fix>
</trkpt>
<trkpt lat="-35.3619372" lon="149.1619132">
  <ele>626.78</ele>
  <time>2026-08-27T18:28:13Z</time>
  <course>343.58</course>
  <speed>8.13</speed>
  <fix>3d</fix>
</trkpt>
<trkpt lat="-35.3619144" lon="149.1619051">
  <ele>626.27</ele>
  <time>2026-08-27T18:28:13Z</time>
  <course>343.51</course>
  <speed>8.129212754012531</speed>
  <fix>3d</fix>
</trkpt>
<trkpt lat="-35.3619231" lon="149.1619082">
  <ele>626.48</ele>
  <time>2026-08-27T18:28:13Z</time>
  <course>343.57</course>
  <speed>8.13</speed>
  <fix>3d</fix>
</trkpt>
<trkpt lat="-35.3619004" lon="149.1619">
  <ele>625.97</ele>
  <time>2026-08-27T18:28:13Z</time>
  <course>343.48</course>
  <speed>8.119618217625753</speed>
  <fix>3d</fix>
</trkpt>
<trkpt lat="-35.3619092" lon="149.1619031">
  <ele>626.18</ele>
  <time>2026-08-27T18:28:13Z</time>
  <course>343.56</course>
  <speed>8.13</speed>
  <fix>3d</fix>
</trkpt>
<trkpt lat="-35.3618864" lon="149.161895">
  <ele>625.69</ele>
  <time>2026-08-27T18:28:13Z</time>
  <course>343.47</course>
  <speed>8.088015825899452</speed>
  <fix>3d</fix>
</trkpt>
<trkpt lat="-35.3618951" lon="149.161898">
  <ele>625.88</ele>
  <time>2026-08-27T18:28:13Z</time>
  <course>343.55</course>
  <speed>8.12</speed>
  <fix>3d</fix>
</trkpt>
<trkpt lat="-35.3618724" lon="149.1618899">
  <ele>625.41</ele>
  <time>2026-08-27T18:28:13Z</time>
  <course>343.55</course>
  <speed>8.018042155040094</speed>
  <fix>3d</fix>
</trkpt>
<trkpt lat="-35.3618812" lon="149.161893">
  <ele>625.6</ele>
  <time>2026-08-27T18:28:13Z</time>
  <course>343.51</course>
  <speed>8.08</speed>
  <fix>3d</fix>
</trkpt>
<trkpt lat="-35.3618587" lon="149.1618849">
  <ele>625.14</ele>
  <time>2026-08-27T18:28:13Z</time>
  <course>343.73</course>
  <speed>7.884871590584086</speed>
  <fix>3d</fix>
</trkpt>
<trkpt lat="-35.3618673" lon="149.1618879">
  <ele>625.32</ele>
  <time>2026-08-27T18:28:13Z</time>
  <course>343.47</course>
  <speed>7.99</speed>
  <fix>3d</fix>
</trkpt>
<trkpt lat="-35.3618453" lon="149.16188">
  <ele>624.88</ele>
  <time>2026-08-27T18:28:13Z</time>
  <course>343.98</course>
  <speed>7.698084177248258</speed>
  <fix>3d</fix>
</trkpt>
<trkpt lat="-35.3618536" lon="149.161883">
  <ele>625.05</ele>
  <time>2026-08-27T18:28:13Z</time>
  <course>343.44</course>
  <speed>7.85</speed>
  <fix>3d</fix>
</trkpt>
<trkpt lat="-35.3618322" lon="149.1618752">
  <ele>624.63</ele>
  <time>2026-08-27T18:28:13Z</time>
  <course>344.26</course>
  <speed>7.467261881037788</speed>
  <fix>3d</fix>
</trkpt>
<trkpt lat="-35.3618403" lon="149.1618781">
  <ele>624.79</ele>
  <time>2026-08-27T18:28:13Z</time>
  <course>343.46</course>
  <speed>7.65</speed>
  <fix>3d</fix>
</trkpt>
<trkpt lat="-35.3618196" lon="149.1618707">
  <ele>624.38</ele>
  <time>2026-08-27T18:28:13Z</time>
  <course>344.53</course>
  <speed>7.182826741610854</speed>
  <fix>3d</fix>
</trkpt>
<trkpt lat="-35.3618273" lon="149.1618734">
  <ele>624.55</ele>
  <time>2026-08-27T18:28:13Z</time>
  <course>343.52</course>
  <speed>7.41</speed>
  <fix>3d</fix>
</trkpt>
<trkpt lat="-35.3618074" lon="149.1618663">
  <ele>624.14</ele>
  <time>2026-08-27T18:28:13Z</time>
  <course>344.8</course>
  <speed>6.85440004668534</speed>
  <fix>3d</fix>
</trkpt>
<trkpt lat="-35.3618147" lon="149.1618689">
  <ele>624.3</ele>
  <time>2026-08-27T18:28:13Z</time>
  <course>343.63</course>
  <speed>7.12</speed>
  <fix>3d</fix>
</trkpt>
<trkpt lat="-35.3617959" lon="149.1618621">
  <ele>623.9</ele>
  <time>2026-08-27T18:28:13Z</time>
  <course>345.04</course>
  <speed>6.487603563720582</speed>
  <fix>3d</fix>
</trkpt>
<trkpt lat="-35.3618027" lon="149.1618646">
  <ele>624.06</ele>
  <time>2026-08-27T18:28:13Z</time>
  <course>343.77</course>
  <speed>6.78</speed>
  <fix>3d</fix>
</trkpt>
<trkpt lat="-35.361785" lon="149.1618583">
  <ele>623.67</ele>
  <time>2026-08-27T18:28:13Z</time>
  <course>345.25</course>
  <speed>6.076841284746541</speed>
  <fix>3d</fix>
</trkpt>
<trkpt lat="-35.3617914" lon="149.1618605">
  <ele>623.83</ele>
  <time>2026-08-27T18:28:13Z</time>
  <course>343.91</course>
  <speed>6.39</speed>
  <fix>3d</fix>
</trkpt>
<trkpt lat="-35.3617748" lon="149.1618547">
  <ele>623.45</ele>
  <time>2026-08-27T18:28:13Z</time>
  <course>345.37</course>
  <speed>5.605684614745999</speed>
  <fix>3d</fix>
</trkpt>
<trkpt lat="-35.3617807" lon="149.1618568">
  <ele>623.61</ele>
  <time>2026-08-27T18:28:13Z</time>
  <course>344.07</course>
  <speed>5.96</speed>
  <fix>3d</fix>
</trkpt>
<trkpt lat="-35.3617655" lon="149.1618514">
  <ele>623.25</ele>
  <time>2026-08-27T18:28:13Z</time>
  <course>345.42</course>
  <speed>5.093338787082595</speed>
  <fix>3d</fix>
</trkpt>
<trkpt lat="-35.3617708" lon="149.1618533">
  <ele>623.4</ele>
  <time>2026-08-27T18:28:13Z</time>
  <course>344.23</course>
  <speed>5.48</speed>
  <fix>3d</fix>
</trkpt>
<trkpt lat="-35.361757" lon="149.1618485">
  <ele>623.06</ele>
  <time>2026-08-27T18:28:13Z</time>
  <course>345.49</course>
  <speed>4.501310920165369</speed>
  <fix>3d</fix>
</trkpt>
<trkpt lat="-35.3617617" lon="149.1618502">
  <ele>623.2</ele>
  <time>2026-08-27T18:28:13Z</time>
  <course>344.38</course>
  <speed>4.94</speed>
  <fix>3d</fix>
</trkpt>
<trkpt lat="-35.3617497" lon="149.161846">
  <ele>622.88</ele>
  <time>2026-08-27T18:28:13Z</time>
  <course>345.45</course>
  <speed>3.8364827641995216</speed>
  <fix>3d</fix>
</trkpt>
<trkpt lat="-35.3617537" lon="149.1618475">
  <ele>623.02</ele>
  <time>2026-08-27T18:28:13Z</time>
  <course>344.48</course>
  <speed>4.32</speed>
  <fix>3d</fix>
</trkpt>
<trkpt lat="-35.3617436" lon="149.1618439">
  <ele>622.72</ele>
  <time>2026-08-27T18:28:13Z</time>
  <course>345.22</course>
  <speed>3.111221625021271</speed>
  <fix>3d</fix>
</trkpt>
<trkpt lat="-35.3617468" lon="149.1618451">
  <ele>622.85</ele>
  <time>2026-08-27T18:28:13Z</time>
  <course>344.57</course>
  <speed>3.64</speed>
  <fix>3d</fix>
</trkpt>
<trkpt lat="-35.3617387" lon="149.1618422">
  <ele>622.58</ele>
  <time>2026-08-27T18:28:13Z</time>
  <course>344.87</course>
  <speed>2.3516164653276266</speed>
  <fix>3d</fix>
</trkpt>
<trkpt lat="-35.3617412" lon="149.1618432">
  <ele>622.7</ele>
  <time>2026-08-27T18:28:13Z</time>
  <course>344.7</course>
  <speed>2.9</speed>
  <fix>3d</fix>
</trkpt>
<trkpt lat="-35.3617352" lon="149.1618411">
  <ele>622.44</ele>
  <time>2026-08-27T18:28:13Z</time>
  <course>344.41</course>
  <speed>1.5508062419270823</speed>
  <fix>3d</fix>
</trkpt>
<trkpt lat="-35.3617368" lon="149.1618418">
  <ele>622.56</ele>
  <time>2026-08-27T18:28:13Z</time>
  <course>344.97</course>
  <speed>2.12</speed>
  <fix>3d</fix>
</trkpt>
<trkpt lat="-35.3617331" lon="149.1618404">
  <ele>622.32</ele>
  <time>2026-08-27T18:28:14Z</time>
  <course>343.8</course>
  <speed>0.75</speed>
  <fix>3d</fix>
</trkpt>
<trkpt lat="-35.3617338" lon="149.1618408">
  <ele>622.43</ele>
  <time>2026-08-27T18:28:14Z</time>
  <course>345.61</course>
  <speed>1.32</speed>
  <fix>3d</fix>
</trkpt>
<trkpt lat="-35.3617324" lon="149.1618402">
  <ele>622.22</ele>
  <time>2026-08-27T18:28:14Z</time>
  <course>343.18</course>
  <speed>0.04</speed>
  <fix>3d</fix>
</trkpt>
<trkpt lat="-35.3617322" lon="149.1618403">
  <ele>622.31</ele>
  <time>2026-08-27T18:28:14Z</time>
  <course>348.22</course>
  <speed>0.5</speed>
  <fix>3d</fix>
</trkpt>
<trkpt lat="-35.361733" lon="149.1618405">
  <ele>622.13</ele>
  <time>2026-08-27T18:28:14Z</time>
  <course>342.68</course>
  <speed>0.8200609733428362</speed>
  <fix>3d</fix>
</trkpt>
<trkpt lat="-35.361732" lon="149.1618403">
  <ele>622.21</ele>
  <time>2026-08-27T18:28:14Z</time>
  <course>156.74</course>
  <speed>0.29</speed>
  <fix>3d</fix>
</trkpt>
<trkpt lat="-35.361735" lon="149.1618413">
  <ele>622.06</ele>
  <time>2026-08-27T18:28:14Z</time>
  <course>341.03</course>
  <speed>1.5756268593801008</speed>
  <fix>3d</fix>
</trkpt>
<trkpt lat="-35.3617331" lon="149.1618407">
  <ele>622.13</ele>
  <time>2026-08-27T18:28:14Z</time>
  <course>161.88</course>
  <speed>1.07</speed>
  <fix>3d</fix>
</trkpt>
<trkpt lat="-35.3617381" lon="149.1618425">
  <ele>622.0</ele>
  <time>2026-08-27T18:28:14Z</time>
  <course>326.1</course>
  <speed>2.3152105735764077</speed>
  <fix>3d</fix>
</trkpt>
<trkpt lat="-35.3617355" lon="149.1618417">
  <ele>622.05</ele>
  <time>2026-08-27T18:28:14Z</time>
  <course>161.8</course>
  <speed>1.83</speed>
  <fix>3d</fix>
</trkpt>
<trkpt lat="-35.3617427" lon="149.1618443">
  <ele>621.96</ele>
  <time>2026-08-27T18:28:14Z</time>
  <course>312.58</course>
  <speed>3.036445290137795</speed>
  <fix>3d</fix>
</trkpt>
<trkpt lat="-35.3617392" lon="149.1618432">
  <ele>621.99</ele>
  <time>2026-08-27T18:28:14Z</time>
  <course>161.78</course>
  <speed>2.57</speed>
  <fix>3d</fix>
</trkpt>
<trkpt lat="-35.3617484" lon="149.1618466">
  <ele>621.93</ele>
  <time>2026-08-27T18:28:14Z</time>
  <course>299.82</course>
  <speed>3.715979009628553</speed>
  <fix>3d</fix>
</trkpt>
<trkpt lat="-35.3617443" lon="149.1618452">
  <ele>621.95</ele>
  <time>2026-08-27T18:28:14Z</time>
  <course>161.9</course>
  <speed>3.29</speed>
  <fix>3d</fix>
</trkpt>
<trkpt lat="-35.3617552" lon="149.1618494">
  <ele>621.91</ele>
  <time>2026-08-27T18:28:14Z</time>
  <course>287.7</course>
  <speed>4.322834718098762</speed>
  <fix>3d</fix>
</trkpt>
<trkpt lat="-35.3617505" lon="149.1618478">
  <ele>621.92</ele>
  <time>2026-08-27T18:28:14Z</time>
  <course>161.51</course>
  <speed>3.95</speed>
  <fix>3d</fix>
</trkpt>
<trkpt lat="-35.3617629" lon="149.1618527">
  <ele>621.9</ele>
  <time>2026-08-27T18:28:14Z</time>
  <course>276.13</course>
  <speed>4.841621629165171</speed>
  <fix>3d</fix>
</trkpt>
<trkpt lat="-35.3617578" lon="149.1618508">
  <ele>621.9</ele>
  <time>2026-08-27T18:28:14Z</time>
  <course>161.05</course>
  <speed>4.54</speed>
  <fix>3d</fix>
</trkpt>
<trkpt lat="-35.3617714" lon="149.1618564">
  <ele>621.91</ele>
  <time>2026-08-27T18:28:14Z</time>
  <course>264.89</course>
  <speed>5.2654059672545666</speed>
  <fix>3d</fix>
</trkpt>
<trkpt lat="-35.3617659" lon="149.1618542">
  <ele>621.89</ele>
  <time>2026-08-27T18:28:14Z</time>
  <course>160.8</course>
  <speed>5.04</speed>
  <fix>3d</fix>
</trkpt>
<trkpt lat="-35.3617807" lon="149.1618603">
  <ele>621.91</ele>
  <time>2026-08-27T18:28:14Z</time>
  <course>253.68</course>
  <speed>5.625735507469224</speed>
  <fix>3d</fix>
</trkpt>
<trkpt lat="-35.3617749" lon="149.1618581">
  <ele>621.89</ele>
  <time>2026-08-27T18:28:14Z</time>
  <course>160.9</course>
  <speed>5.45</speed>
  <fix>3d</fix>
</trkpt>
<trkpt lat="-35.3617905" lon="149.1618644">
  <ele>621.91</ele>
  <time>2026-08-27T18:28:14Z</time>
  <course>242.33</course>
  <speed>5.948487202642366</speed>
  <fix>3d</fix>
</trkpt>
<trkpt lat="-35.3617844" lon="149.1618621">
  <ele>621.89</ele>
  <time>2026-08-27T18:28:14Z</time>
  <course>161.41</course>
  <speed>5.81</speed>
  <fix>3d</fix>
</trkpt>
<trkpt lat="-35.361801" lon="149.1618685">
  <ele>621.91</ele>
  <time>2026-08-27T18:28:14Z</time>
  <course>230.72</course>
  <speed>6.2949185856530345</speed>
  <fix>3d</fix>
</trkpt>
<trkpt lat="-35.3617946" lon="149.1618662">
  <ele>621.88</ele>
  <time>2026-08-27T18:28:14Z</time>
  <course>162.22</course>
  <speed>6.14</speed>
  <fix>3d</fix>
</trkpt>
<trkpt lat="-35.3618122" lon="149.1618726">
  <ele>621.9</ele>
  <time>2026-08-27T18:28:14Z</time>
  <course>218.88</course>
  <speed>6.671626488346002</speed>
  <fix>3d</fix>
</trkpt>
<trkpt lat="-35.3618055" lon="149.1618703">
  <ele>621.87</ele>
  <time>2026-08-27T18:28:14Z</time>
  <course>163.14</course>
  <speed>6.49</speed>
  <fix>3d</fix>
</trkpt>
<trkpt lat="-35.3618241" lon="149.1618768">
  <ele>621.88</ele>
  <time>2026-08-27T18:28:14Z</time>
  <course>206.59</course>
  <speed>7.120933927512598</speed>
  <fix>3d</fix>
</trkpt>
<trkpt lat="-35.361817" lon="149.1618745">
  <ele>621.85</ele>
  <time>2026-08-27T18:28:14Z</time>
  <course>163.95</course>
  <speed>6.88</speed>
  <fix>3d</fix>
</trkpt>
<trkpt lat="-35.361837" lon="149.1618812">
  <ele>621.85</ele>
  <time>2026-08-27T18:28:14Z</time>
  <course>193.81</course>
  <speed>7.625181965041884</speed>
  <fix>3d</fix>
</trkpt>
<trkpt lat="-35.3618293" lon="149.1618787">
  <ele>621.82</ele>
  <time>2026-08-27T18:28:14Z</time>
  <course>164.41</course>
  <speed>7.34</speed>
  <fix>3d</fix>
</trkpt>
<trkpt lat="-35.3618507" lon="149.161886">
  <ele>621.82</ele>
  <time>2026-08-27T18:28:14Z</time>
  <course>180.86</course>
  <speed>8.129009779794831</speed>
  <fix>3d</fix>
</trkpt>
<trkpt lat="-35.3618424" lon="149.1618832">
  <ele>621.78</ele>
  <time>2026-08-27T18:28:14Z</time>
  <course>164.4</course>
  <speed>7.84</speed>
  <fix>3d</fix>
</trkpt>
<trkpt lat="-35.3618652" lon="149.1618912">
  <ele>621.79</ele>
  <time>2026-08-27T18:28:14Z</time>
  <course>168.19</course>
  <speed>8.580209787645055</speed>
  <fix>3d</fix>
</trkpt>
<trkpt lat="-35.3618564" lon="149.1618881">
  <ele>621.75</ele>
  <time>2026-08-27T18:28:14Z</time>
  <course>163.93</course>
  <speed>8.32</speed>
  <fix>3d</fix>
</trkpt>
<trkpt lat="-35.3618803" lon="149.1618969">
  <ele>621.77</ele>
  <time>2026-08-27T18:28:14Z</time>
  <course>156.52</course>
  <speed>8.924595228916548</speed>
  <fix>3d</fix>
</trkpt>
<trkpt lat="-35.3618711" lon="149.1618934">
  <ele>621.72</ele>
  <time>2026-08-27T18:28:14Z</time>
  <course>163.13</course>
  <speed>8.73</speed>
  <fix>3d</fix>
</trkpt>
<trkpt lat="-35.3618958" lon="149.1619032">
  <ele>621.76</ele>
  <time>2026-08-27T18:28:14Z</time>
  <course>155.3</course>
  <speed>9.164387595469758</speed>
  <fix>3d</fix>
</trkpt>
<trkpt lat="-35.3618864" lon="149.1618993">
  <ele>621.71</ele>
  <time>2026-08-27T18:28:14Z</time>
  <course>162.09</course>
  <speed>9.05</speed>
  <fix>3d</fix>
</trkpt>
<trkpt lat="-35.3619116" lon="149.1619097">
  <ele>621.76</ele>
  <time>2026-08-27T18:28:14Z</time>
  <course>155.97</course>
  <speed>9.367027276569658</speed>
  <fix>3d</fix>
</trkpt>
<trkpt lat="-35.3619021" lon="149.1619056">
  <ele>621.71</ele>
  <time>2026-08-27T18:28:14Z</time>
  <course>161.33</course>
  <speed>9.28</speed>
  <fix>3d</fix>
</trkpt>
<trkpt lat="-35.3619277" lon="149.1619164">
  <ele>621.75</ele>
  <time>2026-08-27T18:28:14Z</time>
  <course>156.65</course>
  <speed>9.531358769871167</speed>
  <fix>3d</fix>
</trkpt>
<trkpt lat="-35.361918" lon="149.1619122">
  <ele>621.7</ele>
  <time>2026-08-27T18:28:14Z</time>
  <course>161.18</course>
  <speed>9.47</speed>
  <fix>3d</fix>
</trkpt>
<trkpt lat="-35.3619441" lon="149.1619232">
  <ele>621.74</ele>
  <time>2026-08-27T18:28:14Z</time>
  <course>157.27</course>
  <speed>9.67343268958853</speed>
  <fix>3d</fix>
</trkpt>
<trkpt lat="-35.3619343" lon="149.161919">
  <ele>621.7</ele>
  <time>2026-08-27T18:28:14Z</time>
  <course>161.33</course>
  <speed>9.62</speed>
  <fix>3d</fix>
</trkpt>
<trkpt lat="-35.3619608" lon="149.1619299">
  <ele>621.72</ele>
  <time>2026-08-27T18:28:14Z</time>
  <course>157.89</course>
  <speed>9.799984693865598</speed>
  <fix>3d</fix>
</trkpt>
<trkpt lat="-35.3619508" lon="149.1619258">
  <ele>621.69</ele>
  <time>2026-08-27T18:28:14Z</time>
  <course>161.63</course>
  <speed>9.76</speed>
  <fix>3d</fix>
</trkpt>
<trkpt lat="-35.3619776" lon="149.1619366">
  <ele>621.7</ele>
  <time>2026-08-27T18:28:14Z</time>
  <course>158.62</course>
  <speed>9.882737475011668</speed>
  <fix>3d</fix>
</trkpt>
<trkpt lat="-35.3619675" lon="149.1619326">
  <ele>621.67</ele>
  <time>2026-08-27T18:28:14Z</time>
  <course>162.01</course>
  <speed>9.86</speed>
  <fix>3d</fix>
</trkpt>
<trkpt lat="-35.3619946" lon="149.1619432">
  <ele>621.69</ele>
  <time>2026-08-27T18:28:14Z</time>
  <course>159.42</course>
  <speed>9.931364458119539</speed>
  <fix>3d</fix>
</trkpt>
<trkpt lat="-35.3619845" lon="149.1619393">
  <ele>621.65</ele>
  <time>2026-08-27T18:28:14Z</time>
  <course>162.44</course>
  <speed>9.94</speed>
  <fix>3d</fix>
</trkpt>
<trkpt lat="-35.3620119" lon="149.1619497">
  <ele>621.67</ele>
  <time>2026-08-27T18:28:14Z</time>
  <course>160.35</course>
  <speed>9.946094710990842</speed>
  <fix>3d</fix>
</trkpt>
<trkpt lat="-35.3620015" lon="149.1619458">
  <ele>621.63</ele>
  <time>2026-08-27T18:28:14Z</time>
  <course>162.91</course>
  <speed>9.97</speed>
  <fix>3d</fix>
</trkpt>
<trkpt lat="-35.3620292" lon="149.161956">
  <ele>621.66</ele>
  <time>2026-08-27T18:28:14Z</time>
  <course>161.35</course>
  <speed>9.920408257728106</speed>
  <fix>3d</fix>
</trkpt>
<trkpt lat="-35.3620187" lon="149.1619521">
  <ele>621.61</ele>
  <time>2026-08-27T18:28:14Z</time>
  <course>163.41</course>
  <speed>9.97</speed>
  <fix>3d</fix>
</trkpt>
<trkpt lat="-35.3620464" lon="149.161962">
  <ele>621.64</ele>
  <time>2026-08-27T18:28:14Z</time>
  <course>162.3</course>
  <speed>9.885853529159736</speed>
  <fix>3d</fix>
</trkpt>
<trkpt lat="-35.3620358" lon="149.1619583">
  <ele>621.59</ele>
  <time>2026-08-27T18:28:14Z</time>
  <course>163.92</course>
  <speed>9.94</speed>
  <fix>3d</fix>
</trkpt>
<trkpt lat="-35.3620635" lon="149.1619679">
  <ele>621.6</ele>
  <time>2026-08-27T18:28:14Z</time>
  <course>163.06</course>
  <speed>9.852009947213817</speed>
  <fix>3d</fix>
</trkpt>
<trkpt lat="-35.3620531" lon="149.1619643">
  <ele>621.56</ele>
  <time>2026-08-27T18:28:14Z</time>
  <course>164.43</course>
  <speed>9.89</speed>
  <fix>3d</fix>
</trkpt>
<trkpt lat="-35.3620807" lon="149.1619735">
  <ele>621.55</ele>
  <time>2026-08-27T18:28:14Z</time>
  <course>163.51</course>
  <speed>9.862682190966106</speed>
  <fix>3d</fix>
</trkpt>
<trkpt lat="-35.3620702" lon="149.16197">
  <ele>621.53</ele>
  <time>2026-08-27T18:28:14Z</time>
  <course>164.91</course>
  <speed>9.87</speed>
  <fix>3d</fix>
</trkpt>
<trkpt lat="-35.3620979" lon="149.161979">
  <ele>621.49</ele>
  <time>2026-08-27T18:28:14Z</time>
  <course>163.58</course>
  <speed>9.929859012090755</speed>
  <fix>3d</fix>
</trkpt>
<trkpt lat="-35.3620873" lon="149.1619756">
  <ele>621.47</ele>
  <time>2026-08-27T18:28:14Z</time>
  <course>165.32</course>
  <speed>9.89</speed>
  <fix>3d</fix>
</trkpt>
<trkpt lat="-35.3621153" lon="149.1619845">
  <ele>621.41</ele>
  <time>2026-08-27T18:28:14Z</time>
  <course>163.31</course>
  <speed>10.065411069598698</speed>
  <fix>3d</fix>
</trkpt>
<trkpt lat="-35.3621045" lon="149.1619811">
  <ele>621.4</ele>
  <time>2026-08-27T18:28:14Z</time>
  <course>165.62</course>
  <speed>9.97</speed>
  <fix>3d</fix>
</trkpt>
<trkpt lat="-35.3621329" lon="149.16199">
  <ele>621.32</ele>
  <time>2026-08-27T18:28:14Z</time>
  <course>162.71</course>
  <speed>10.271562685395052</speed>
  <fix>3d</fix>
</trkpt>
<trkpt lat="-35.362122" lon="149.1619865">
  <ele>621.31</ele>
  <time>2026-08-27T18:28:14Z</time>
  <course>165.76</course>
  <speed>10.12</speed>
  <fix>3d</fix>
</trkpt>
<trkpt lat="-35.3621509" lon="149.1619956">
  <ele>621.23</ele>
  <time>2026-08-27T18:28:14Z</time>
  <course>161.82</course>
  <speed>10.545790629440734</speed>
  <fix>3d</fix>
</trkpt>
<trkpt lat="-35.3621399" lon="149.1619921">
  <ele>621.22</ele>
  <time>2026-08-27T18:28:14Z</time>
  <course>165.71</course>
  <speed>10.34</speed>
  <fix>3d</fix>
</trkpt>
<trkpt lat="-35.3621694" lon="149.1620015">
  <ele>621.14</ele>
  <time>2026-08-27T18:28:14Z</time>
  <course>160.69</course>
  <speed>10.86178622511049</speed>
  <fix>3d</fix>
</trkpt>
<trkpt lat="-35.3621581" lon="149.1619978">
  <ele>621.14</ele>
  <time>2026-08-27T18:28:14Z</time>
  <course>165.48</course>
  <speed>10.63</speed>
  <fix>3d</fix>
</trkpt>
<trkpt lat="-35.3621885" lon="149.1620078">
  <ele>621.07</ele>
  <time>2026-08-27T18:28:14Z</time>
  <course>159.36</course>
  <speed>11.236867891009489</speed>
  <fix>3d</fix>
</trkpt>
<trkpt lat="-35.3621768" lon="149.1620039">
  <ele>621.06</ele>
  <time>2026-08-27T18:28:14Z</time>
  <course>165.11</course>
  <speed>10.97</speed>
  <fix>3d</fix>
</trkpt>
<trkpt lat="-35.3622083" lon="149.1620145">
  <ele>621.01</ele>
  <time>2026-08-27T18:28:14Z</time>
  <course>157.89</course>
  <speed>11.627626584991454</speed>
  <fix>3d</fix>
</trkpt>
<trkpt lat="-35.3621962" lon="149.1620103">
  <ele>620.99</ele>
  <time>2026-08-27T18:28:14Z</time>
  <course>164.65</course>
  <speed>11.34</speed>
  <fix>3d</fix>
</trkpt>
<trkpt lat="-35.3622288" lon="149.1620217">
  <ele>620.97</ele>
  <time>2026-08-27T18:28:14Z</time>
  <course>156.47</course>
  <speed>12.01920130457927</speed>
  <fix>3d</fix>
</trkpt>
<trkpt lat="-35.3622163" lon="149.1620171">
  <ele>620.93</ele>
  <time>2026-08-27T18:28:14Z</time>
  <course>164.14</course>
  <speed>11.74</speed>
  <fix>3d</fix>
</trkpt>
<trkpt lat="-35.3622498" lon="149.1620292">
  <ele>620.93</ele>
  <time>2026-08-27T18:28:14Z</time>
  <course>155.37</course>
  <speed>12.392356515207267</speed>
  <fix>3d</fix>
</trkpt>
<trkpt lat="-35.3622369" lon="149.1620244">
  <ele>620.89</ele>
  <time>2026-08-27T18:28:14Z</time>
  <course>163.63</course>
  <speed>12.13</speed>
  <fix>3d</fix>
</trkpt>
<trkpt lat="-35.3622713" lon="149.1620372">
  <ele>620.91</ele>
  <time>2026-08-27T18:28:14Z</time>
  <course>154.85</course>
  <speed>12.71259611566418</speed>
  <fix>3d</fix>
</trkpt>
<trkpt lat="-35.3622581" lon="149.1620322">
  <ele>620.86</ele>
  <time>2026-08-27T18:28:14Z</time>
  <course>163.16</course>
  <speed>12.49</speed>
  <fix>3d</fix>
</trkpt>
<trkpt lat="-35.3622933" lon="149.1620456">
  <ele>620.91</ele>
  <time>2026-08-27T18:28:14Z</time>
  <course>155.0</course>
  <speed>12.951698730282448</speed>
  <fix>3d</fix>
</trkpt>
<trkpt lat="-35.3622798" lon="149.1620403">
  <ele>620.85</ele>
  <time>2026-08-27T18:28:14Z</time>
  <course>162.79</course>
  <speed>12.79</speed>
  <fix>3d</fix>
</trkpt>
<trkpt lat="-35.3623156" lon="149.1620541">
  <ele>620.93</ele>
  <time>2026-08-27T18:28:14Z</time>
  <course>155.76</course>
  <speed>13.12832434090505</speed>
  <fix>3d</fix>
</trkpt>
<trkpt lat="-35.3623019" lon="149.1620488">
  <ele>620.85</ele>
  <time>2026-08-27T18:28:14Z</time>
  <course>162.53</course>
  <speed>13.02</speed>
  <fix>3d</fix>
</trkpt>
<trkpt lat="-35.3623381" lon="149.1620628">
  <ele>620.94</ele>
  <time>2026-08-27T18:28:14Z</time>
  <course>156.9</course>
  <speed>13.232717030149175</speed>
  <fix>3d</fix>
</trkpt>
<trkpt lat="-35.3623244" lon="149.1620575">
  <ele>620.87</ele>
  <time>2026-08-27T18:28:14Z</time>
  <course>162.43</course>
  <speed>13.18</speed>
  <fix>3d</fix>
</trkpt>
<trkpt lat="-35.3623607" lon="149.1620715">
  <ele>620.96</ele>
  <time>2026-08-27T18:28:14Z</time>
  <course>158.11</course>
  <speed>13.293520978281112</speed>
  <fix>3d</fix>
</trkpt>
<trkpt lat="-35.362347" lon="149.1620663">
  <ele>620.89</ele>
  <time>2026-08-27T18:28:14Z</time>
  <course>162.47</course>
  <speed>13.28</speed>
  <fix>3d</fix>
</trkpt>
<trkpt lat="-35.3623835" lon="149.1620802">
  <ele>620.97</ele>
  <time>2026-08-27T18:28:14Z</time>
  <course>159.25</course>
  <speed>13.300770654364355</speed>
  <fix>3d</fix>
</trkpt>
<trkpt lat="-35.3623699" lon="149.162075">
  <ele>620.9</ele>
  <time>2026-08-27T18:28:14Z</time>
  <course>162.62</course>
  <speed>13.33</speed>
  <fix>3d</fix>
</trkpt>
<trkpt lat="-35.3624065" lon="149.1620889">
  <ele>620.97</ele>
  <time>2026-08-27T18:28:14Z</time>
  <course>160.37</course>
  <speed>13.28030873135109</speed>
  <fix>3d</fix>
</trkpt>
<trkpt lat="-35.3623928" lon="149.1620838">
  <ele>620.91</ele>
  <time>2026-08-27T18:28:14Z</time>
  <course>162.86</course>
  <speed>13.33</speed>
  <fix>3d</fix>
</trkpt>
<trkpt lat="-35.3624294" lon="149.1620973">
  <ele>620.96</ele>
  <time>2026-08-27T18:28:14Z</time>
  <course>161.46</course>
  <speed>13.216145428981932</speed>
  <fix>3d</fix>
</trkpt>
<trkpt lat="-35.3624157" lon="149.1620924">
  <ele>620.9</ele>
  <time>2026-08-27T18:28:14Z</time>
  <course>163.14</course>
  <speed>13.3</speed>
  <fix>3d</fix>
</trkpt>
<trkpt lat="-35.3624523" lon="149.1621056">
  <ele>620.94</ele>
  <time>2026-08-27T18:28:14Z</time>
  <course>162.34</course>
  <speed>13.142804114799855</speed>
  <fix>3d</fix>
</trkpt>
<trkpt lat="-35.3624385" lon="149.1621008">
  <ele>620.88</ele>
  <time>2026-08-27T18:28:14Z</time>
  <course>163.46</course>
  <speed>13.23</speed>
  <fix>3d</fix>
</trkpt>
<trkpt lat="-35.362475" lon="149.1621137">
  <ele>620.9</ele>
  <time>2026-08-27T18:28:14Z</time>
  <course>162.99</course>
  <speed>13.060245020672468</speed>
  <fix>3d</fix>
</trkpt>
<trkpt lat="-35.3624613" lon="149.162109">
  <ele>620.85</ele>
  <time>2026-08-27T18:28:14Z</time>
  <course>163.78</course>
  <speed>13.15</speed>
  <fix>3d</fix>
</trkpt>
<trkpt lat="-35.3624976" lon="149.1621216">
  <ele>620.84</ele>
  <time>2026-08-27T18:28:14Z</time>
  <course>163.37</course>
  <speed>12.990384905767803</speed>
  <fix>3d</fix>
</trkpt>
<trkpt lat="-35.3624839" lon="149.162117">
  <ele>620.8</ele>
  <time>2026-08-27T18:28:14Z</time>
  <course>164.08</course>
  <speed>13.07</speed>
  <fix>3d</fix>
</trkpt>
<trkpt lat="-35.3625201" lon="149.1621293">
  <ele>620.77</ele>
  <time>2026-08-27T18:28:14Z</time>
  <course>163.61</course>
  <speed>12.935783702582539</speed>
  <fix>3d</fix>
</trkpt>
<trkpt lat="-35.3625065" lon="149.1621248">
  <ele>620.73</ele>
  <time>2026-08-27T18:28:14Z</time>
  <course>164.34</course>
  <speed>13.0</speed>
  <fix>3d</fix>
</trkpt>
<trkpt lat="-35.3625426" lon="149.1621369">
  <ele>620.69</ele>
  <time>2026-08-27T18:28:14Z</time>
  <course>163.69</course>
  <speed>12.896263024612983</speed>
  <fix>3d</fix>
</trkpt>
<trkpt lat="-35.3625289" lon="149.1621324">
  <ele>620.66</ele>
  <time>2026-08-27T18:28:14Z</time>
  <course>164.53</course>
  <speed>12.95</speed>
  <fix>3d</fix>
</trkpt>
<trkpt lat="-35.362565" lon="149.1621444">
  <ele>620.61</ele>
  <time>2026-08-27T18:28:14Z</time>
  <course>163.66</course>
  <speed>12.864688103487001</speed>
  <fix>3d</fix>
</trkpt>
<trkpt lat="-35.3625513" lon="149.16214">
  <ele>620.58</ele>
  <time>2026-08-27T18:28:14Z</time>
  <course>164.63</course>
  <speed>12.9</speed>
  <fix>3d</fix>
</trkpt>
<trkpt lat="-35.3625873" lon="149.162152">
  <ele>620.54</ele>
  <time>2026-08-27T18:28:14Z</time>
  <course>163.56</course>
  <speed>12.845396062403058</speed>
  <fix>3d</fix>
</trkpt>
<trkpt lat="-35.3625736" lon="149.1621475">
  <ele>620.51</ele>
  <time>2026-08-27T18:28:14Z</time>
  <course>164.65</course>
  <speed>12.87</speed>
  <fix>3d</fix>
</trkpt>
<trkpt lat="-35.3626095" lon="149.1621595">
  <ele>620.47</ele>
  <time>2026-08-27T18:28:14Z</time>
  <course>163.41</course>
  <speed>12.821766648945067</speed>
  <fix>3d</fix>
</trkpt>
<trkpt lat="-35.3625959" lon="149.1621551">
  <ele>620.44</ele>
  <time>2026-08-27T18:28:14Z</time>
  <course>164.59</course>
  <speed>12.84</speed>
  <fix>3d</fix>
</trkpt>
<trkpt lat="-35.3626318" lon="149.1621671">
  <ele>620.41</ele>
  <time>2026-08-27T18:28:14Z</time>
  <course>163.2</course>
  <speed>12.80087887607722</speed>
  <fix>3d</fix>
</trkpt>
<trkpt lat="-35.3626181" lon="149.1621626">
  <ele>620.39</ele>
  <time>2026-08-27T18:28:14Z</time>
  <course>164.46</course>
  <speed>12.82</speed>
  <fix>3d</fix>
</trkpt>
<trkpt lat="-35.3626541" lon="149.1621748">
  <ele>620.36</ele>
  <time>2026-08-27T18:28:14Z</time>
  <course>162.97</course>
  <speed>12.789722436393998</speed>
  <fix>3d</fix>
</trkpt>
<trkpt lat="-35.3626402" lon="149.1621702">
  <ele>620.33</ele>
  <time>2026-08-27T18:28:14Z</time>
  <course>164.3</course>
  <speed>12.8</speed>
  <fix>3d</fix>
</trkpt>
<trkpt lat="-35.3626763" lon="149.1621826">
  <ele>620.31</ele>
  <time>2026-08-27T18:28:14Z</time>
  <course>162.67</course>
  <speed>12.784150343296186</speed>
  <fix>3d</fix>
</trkpt>
<trkpt lat="-35.3626624" lon="149.1621779">
  <ele>620.28</ele>
  <time>2026-08-27T18:28:14Z</time>
  <course>164.1</course>
  <speed>12.79</speed>
  <fix>3d</fix>
</trkpt>
<trkpt lat="-35.3626984" lon="149.1621904">
  <ele>620.26</ele>
  <time>2026-08-27T18:28:14Z</time>
  <course>162.39</course>
  <speed>12.788404904443713</speed>
  <fix>3d</fix>
</trkpt>
<trkpt lat="-35.3626845" lon="149.1621857">
  <ele>620.23</ele>
  <time>2026-08-27T18:28:14Z</time>
  <course>163.88</course>
  <speed>12.78</speed>
  <fix>3d</fix>
</trkpt>
<trkpt lat="-35.3627204" lon="149.1621983">
  <ele>620.21</ele>
  <time>2026-08-27T18:28:14Z</time>
  <course>162.08</course>
  <speed>12.790035183688902</speed>
  <fix>3d</fix>
</trkpt>
<trkpt lat="-35.3627066" lon="149.1621935">
  <ele>620.18</ele>
  <time>2026-08-27T18:28:14Z</time>
  <course>163.65</course>
  <speed>12.78</speed>
  <fix>3d</fix>
</trkpt>
<trkpt lat="-35.3627423" lon="149.1622064">
  <ele>620.17</ele>
  <time>2026-08-27T18:28:14Z</time>
  <course>161.77</course>
  <speed>12.794655134078448</speed>
  <fix>3d</fix>
</trkpt>
<trkpt lat="-35.3627287" lon="149.1622015">
  <ele>620.14</ele>
  <time>2026-08-27T18:28:14Z</time>
  <course>163.42</course>
  <speed>12.79</speed>
  <fix>3d</fix>
</trkpt>
<trkpt lat="-35.3627643" lon="149.1622145">
  <ele>620.12</ele>
  <time>2026-08-27T18:28:14Z</time>
  <course>161.46</course>
  <speed>12.818619270420664</speed>
  <fix>3d</fix>
</trkpt>
<trkpt lat="-35.3627507" lon="149.1622096">
  <ele>620.1</ele>
  <time>2026-08-27T18:28:14Z</time>
  <course>163.2</course>
  <speed>12.81</speed>
  <fix>3d</fix>
</trkpt>
<trkpt lat="-35.3627863" lon="149.1622227">
  <ele>620.08</ele>
  <time>2026-08-27T18:28:14Z</time>
  <course>161.17</course>
  <speed>12.839816976888729</speed>
  <fix>3d</fix>
</trkpt>
<trkpt lat="-35.3627727" lon="149.1622178">
  <ele>620.05</ele>
  <time>2026-08-27T18:28:14Z</time>
  <course>163.01</course>
  <speed>12.83</speed>
  <fix>3d</fix>
</trkpt>
<trkpt lat="-35.3628083" lon="149.162231">
  <ele>620.03</ele>
  <time>2026-08-27T18:28:14Z</time>
  <course>160.9</course>
  <speed>12.870668203321845</speed>
  <fix>3d</fix>
</trkpt>
<trkpt lat="-35.3627947" lon="149.1622262">
  <ele>620.01</ele>
  <time>2026-08-27T18:28:14Z</time>
  <course>162.83</course>
  <speed>12.86</speed>
  <fix>3d</fix>
</trkpt>
<trkpt lat="-35.3628302" lon="149.1622394">
  <ele>619.99</ele>
  <time>2026-08-27T18:28:14Z</time>
  <course>160.69</course>
  <speed>12.911150219868096</speed>
  <fix>3d</fix>
</trkpt>
<trkpt lat="-35.3628169" lon="149.1622345">
  <ele>619.97</ele>
  <time>2026-08-27T18:28:14Z</time>
  <course>162.69</course>
  <speed>12.9</speed>
  <fix>3d</fix>
</trkpt>
<trkpt lat="-35.3628523" lon="149.1622479">
  <ele>619.95</ele>
  <time>2026-08-27T18:28:14Z</time>
  <course>160.54</course>
  <speed>12.94871422188319</speed>
  <fix>3d</fix>
</trkpt>
<trkpt lat="-35.362839" lon="149.162243">
  <ele>619.93</ele>
  <time>2026-08-27T18:28:14Z</time>
  <course>162.57</course>
  <speed>12.94</speed>
  <fix>3d</fix>
</trkpt>
<trkpt lat="-35.3628746" lon="149.1622565">
  <ele>619.91</ele>
  <time>2026-08-27T18:28:14Z</time>
  <course>160.43</course>
  <speed>12.983316217361418</speed>
  <fix>3d</fix>
</trkpt>
<trkpt lat="-35.3628612" lon="149.1622516">
  <ele>619.89</ele>
  <time>2026-08-27T18:28:14Z</time>
  <course>162.5</course>
  <speed>12.98</speed>
  <fix>3d</fix>
</trkpt>
<trkpt lat="-35.362897" lon="149.1622652">
  <ele>619.87</ele>
  <time>2026-08-27T18:28:14Z</time>
  <course>160.41</course>
  <speed>13.014933730142463</speed>
  <fix>3d</fix>
</trkpt>
<trkpt lat="-35.3628835" lon="149.1622602">
  <ele>619.85</ele>
  <time>2026-08-27T18:28:14Z</time>
  <course>162.46</course>
  <speed>13.01</speed>
  <fix>3d</fix>
</trkpt>
<trkpt lat="-35.3629194" lon="149.1622738">
  <ele>619.84</ele>
  <time>2026-08-27T18:28:14Z</time>
  <course>160.46</course>
  <speed>13.043565463476618</speed>
  <fix>3d</fix>
</trkpt>
<trkpt lat="-35.3629059" lon="149.1622689">
  <ele>619.82</ele>
  <time>2026-08-27T18:28:14Z</time>
  <course>162.45</course>
  <speed>13.05</speed>
  <fix>3d</fix>
</trkpt>
<trkpt lat="-35.3629418" lon="149.1622825">
  <ele>619.81</ele>
  <time>2026-08-27T18:28:14Z</time>
  <course>160.61</course>
  <speed>13.072203333791897</speed>
  <fix>3d</fix>
</trkpt>
<trkpt lat="-35.3629282" lon="149.1622775">
  <ele>619.78</ele>
  <time>2026-08-27T18:28:14Z</time>
  <course>162.49</course>
  <speed>13.08</speed>
  <fix>3d</fix>
</trkpt>
<trkpt lat="-35.3629643" lon="149.1622912">
  <ele>619.78</ele>
  <time>2026-08-27T18:28:14Z</time>
  <course>160.81</course>
  <speed>13.085369692905125</speed>
  <fix>3d</fix>
</trkpt>
<trkpt lat="-35.3629507" lon="149.1622862">
  <ele>619.75</ele>
  <time>2026-08-27T18:28:14Z</time>
  <course>162.56</course>
  <speed>13.1</speed>
  <fix>3d</fix>
</trkpt>
<trkpt lat="-35.3629868" lon="149.1622997">
  <ele>619.75</ele>
  <time>2026-08-27T18:28:14Z</time>
  <course>161.06</course>
  <speed>13.089025937784674</speed>
  <fix>3d</fix>
</trkpt>
<trkpt lat="-35.3629732" lon="149.1622949">
  <ele>619.71</ele>
  <time>2026-08-27T18:28:14Z</time>
  <course>162.65</course>
  <speed>13.11</speed>
  <fix>3d</fix>
</trkpt>
<trkpt lat="-35.3630093" lon="149.1623083">
  <ele>619.71</ele>
  <time>2026-08-27T18:28:14Z</time>
  <course>161.31</course>
  <speed>13.099362579912047</speed>
  <fix>3d</fix>
</trkpt>
<trkpt lat="-35.3629957" lon="149.1623035">
  <ele>619.68</ele>
  <time>2026-08-27T18:28:14Z</time>
  <course>162.78</course>
  <speed>13.12</speed>
  <fix>3d</fix>
</trkpt>
<trkpt lat="-35.3630319" lon="149.1623168">
  <ele>619.66</ele>
  <time>2026-08-27T18:28:14Z</time>
  <course>161.55</course>
  <speed>13.100217555445406</speed>
  <fix>3d</fix>
</trkpt>
<trkpt lat="-35.3630182" lon="149.1623119">
  <ele>619.64</ele>
  <time>2026-08-27T18:28:14Z</time>
  <course>162.93</course>
  <speed>13.12</speed>
  <fix>3d</fix>
</trkpt>
<trkpt lat="-35.3630545" lon="149.1623252">
  <ele>619.62</ele>
  <time>2026-08-27T18:28:14Z</time>
  <course>161.78</course>
  <speed>13.088701234270724</speed>
  <fix>3d</fix>
</trkpt>
<trkpt lat="-35.3630407" lon="149.1623204">
  <ele>619.6</ele>
  <time>2026-08-27T18:28:14Z</time>
  <course>163.08</course>
  <speed>13.11</speed>
  <fix>3d</fix>
</trkpt>
<trkpt lat="-35.363077" lon="149.1623335">
  <ele>619.58</ele>
  <time>2026-08-27T18:28:14Z</time>
  <course>162.02</course>
  <speed>13.089724978012335</speed>
  <fix>3d</fix>
</trkpt>
<trkpt lat="-35.3630632" lon="149.1623288">
  <ele>619.56</ele>
  <time>2026-08-27T18:28:14Z</time>
  <course>163.23</course>
  <speed>13.11</speed>
  <fix>3d</fix>
</trkpt>
<trkpt lat="-35.3630995" lon="149.1623417">
  <ele>619.54</ele>
  <time>2026-08-27T18:28:14Z</time>
  <course>162.26</course>
  <speed>13.071637234868476</speed>
  <fix>3d</fix>
</trkpt>
<trkpt lat="-35.3630858" lon="149.1623371">
  <ele>619.52</ele>
  <time>2026-08-27T18:28:14Z</time>
  <course>163.38</course>
  <speed>13.1</speed>
  <fix>3d</fix>
</trkpt>
<trkpt lat="-35.3631223" lon="149.16235">
  <ele>619.49</ele>
  <time>2026-08-27T18:28:14Z</time>
  <course>162.45</course>
  <speed>13.063200220466651</speed>
  <fix>3d</fix>
</trkpt>
<trkpt lat="-35.3631084" lon="149.1623452">
  <ele>619.48</ele>
  <time>2026-08-27T18:28:14Z</time>
  <course>163.51</course>
  <speed>13.09</speed>
  <fix>3d</fix>
</trkpt>
<trkpt lat="-35.363145" lon="149.1623581">
  <ele>619.45</ele>
  <time>2026-08-27T18:28:14Z</time>
  <course>162.61</course>
  <speed>13.054826693602639</speed>
  <fix>3d</fix>
</trkpt>
<trkpt lat="-35.3631309" lon="149.1623534">
  <ele>619.43</ele>
  <time>2026-08-27T18:28:14Z</time>
  <course>163.64</course>
  <speed>13.08</speed>
  <fix>3d</fix>
</trkpt>
<trkpt lat="-35.3631676" lon="149.1623662">
  <ele>619.4</ele>
  <time>2026-08-27T18:28:14Z</time>
  <course>162.8</course>
  <speed>13.039670241229262</speed>
  <fix>3d</fix>
</trkpt>
<trkpt lat="-35.3631535" lon="149.1623615">
  <ele>619.39</ele>
  <time>2026-08-27T18:28:14Z</time>
  <course>163.74</course>
  <speed>13.06</speed>
  <fix>3d</fix>
</trkpt>
<trkpt lat="-35.3631901" lon="149.1623742">
  <ele>619.36</ele>
  <time>2026-08-27T18:28:14Z</time>
  <course>162.94</course>
  <speed>13.0149222049154</speed>
  <fix>3d</fix>
</trkpt>
<trkpt lat="-35.3631761" lon="149.1623695">
  <ele>619.35</ele>
  <time>2026-08-27T18:28:14Z</time>
  <course>163.81</course>
  <speed>13.04</speed>
  <fix>3d</fix>
</trkpt>
<trkpt lat="-35.3632126" lon="149.1623822">
  <ele>619.31</ele>
  <time>2026-08-27T18:28:14Z</time>
  <course>163.04</course>
  <speed>12.992940390843021</speed>
  <fix>3d</fix>
</trkpt>
<trkpt lat="-35.3631986" lon="149.1623776">
  <ele>619.31</ele>
  <time>2026-08-27T18:28:14Z</time>
  <course>163.86</course>
  <speed>13.02</speed>
  <fix>3d</fix>
</trkpt>
<trkpt lat="-35.3632351" lon="149.1623902">
  <ele>619.27</ele>
  <time>2026-08-27T18:28:14Z</time>
  <course>163.12</course>
  <speed>12.970959871960131</speed>
  <fix>3d</fix>
</trkpt>
<trkpt lat="-35.363221" lon="149.1623855">
  <ele>619.27</ele>
  <time>2026-08-27T18:28:14Z</time>
  <course>163.89</course>
  <speed>13.0</speed>
  <fix>3d</fix>
</trkpt>
<trkpt lat="-35.3632575" lon="149.1623981">
  <ele>619.23</ele>
  <time>2026-08-27T18:28:14Z</time>
  <course>163.13</course>
  <speed>12.948980654862373</speed>
  <fix>3d</fix>
</trkpt>
<trkpt lat="-35.3632434" lon="149.1623935">
  <ele>619.22</ele>
  <time>2026-08-27T18:28:14Z</time>
  <course>163.9</course>
  <speed>12.98</speed>
  <fix>3d</fix>
</trkpt>
<trkpt lat="-35.3632799" lon="149.162406">
  <ele>619.18</ele>
  <time>2026-08-27T18:28:14Z</time>
  <course>163.12</course>
  <speed>12.93250942392852</speed>
  <fix>3d</fix>
</trkpt>
<trkpt lat="-35.3632658" lon="149.1624014">
  <ele>619.18</ele>
  <time>2026-08-27T18:28:14Z</time>
  <course>163.89</course>
  <speed>12.96</speed>
  <fix>3d</fix>
</trkpt>
<trkpt lat="-35.3633021" lon="149.162414">
  <ele>619.14</ele>
  <time>2026-08-27T18:28:14Z</time>
  <course>163.09</course>
  <speed>12.922898281732314</speed>
  <fix>3d</fix>
</trkpt>
<trkpt lat="-35.3632881" lon="149.1624093">
  <ele>619.14</ele>
  <time>2026-08-27T18:28:14Z</time>
  <course>163.85</course>
  <speed>12.94</speed>
  <fix>3d</fix>
</trkpt>
<trkpt lat="-35.3633244" lon="149.1624219">
  <ele>619.09</ele>
  <time>2026-08-27T18:28:14Z</time>
  <course>163.01</course>
  <speed>12.906448000902493</speed>
  <fix>3d</fix>
</trkpt>
<trkpt lat="-35.3633104" lon="149.1624172">
  <ele>619.09</ele>
  <time>2026-08-27T18:28:14Z</time>
  <course>163.8</course>
  <speed>12.93</speed>
  <fix>3d</fix>
</trkpt>
<trkpt lat="-35.3633468" lon="149.1624299">
  <ele>619.05</ele>
  <time>2026-08-27T18:28:14Z</time>
  <course>162.89</course>
  <speed>12.902406752230377</speed>
  <fix>3d</fix>
</trkpt>
<trkpt lat="-35.3633327" lon="149.1624251">
  <ele>619.05</ele>
  <time>2026-08-27T18:28:14Z</time>
  <course>163.73</course>
  <speed>12.92</speed>
  <fix>3d</fix>
</trkpt>
<trkpt lat="-35.3633691" lon="149.1624379">
  <ele>619.0</ele>
  <time>2026-08-27T18:28:14Z</time>
  <course>162.76</course>
  <speed>12.89840300192237</speed>
  <fix>3d</fix>
</trkpt>
<trkpt lat="-35.363355" lon="149.1624332">
  <ele>619.0</ele>
  <time>2026-08-27T18:28:14Z</time>
  <course>163.65</course>
  <speed>12.91</speed>
  <fix>3d</fix>
</trkpt>
<trkpt lat="-35.3633913" lon="149.162446">
  <ele>618.96</ele>
  <time>2026-08-27T18:28:14Z</time>
  <course>162.66</course>
  <speed>12.894436784908443</speed>
  <fix>3d</fix>
</trkpt>
<trkpt lat="-35.3633773" lon="149.1624412">
  <ele>618.95</ele>
  <time>2026-08-27T18:28:14Z</time>
  <course>163.57</course>
  <speed>12.91</speed>
  <fix>3d</fix>
</trkpt>
<trkpt lat="-35.3634135" lon="149.1624541">
  <ele>618.91</ele>
  <time>2026-08-27T18:28:14Z</time>
  <course>162.53</course>
  <speed>12.897263275594556</speed>
  <fix>3d</fix>
</trkpt>
<trkpt lat="-35.3633996" lon="149.1624493">
  <ele>618.91</ele>
  <time>2026-08-27T18:28:14Z</time>
  <course>163.48</course>
  <speed>12.91</speed>
  <fix>3d</fix>
</trkpt>
<trkpt lat="-35.3634357" lon="149.1624622">
  <ele>618.86</ele>
  <time>2026-08-27T18:28:14Z</time>
  <course>162.37</course>
  <speed>12.905785524329776</speed>
  <fix>3d</fix>
</trkpt>
<trkpt lat="-35.3634219" lon="149.1624574">
  <ele>618.86</ele>
  <time>2026-08-27T18:28:14Z</time>
  <course>163.39</course>
  <speed>12.92</speed>
  <fix>3d</fix>
</trkpt>
<trkpt lat="-35.3634579" lon="149.1624704">
  <ele>618.81</ele>
  <time>2026-08-27T18:28:14Z</time>
  <course>162.23</course>
  <speed>12.921083545895058</speed>
  <fix>3d</fix>
</trkpt>
<trkpt lat="-35.3634441" lon="149.1624656">
  <ele>618.82</ele>
  <time>2026-08-27T18:28:14Z</time>
  <course>163.3</course>
  <speed>12.93</speed>
  <fix>3d</fix>
</trkpt>
<trkpt lat="-35.3634801" lon="149.1624786">
  <ele>618.77</ele>
  <time>2026-08-27T18:28:14Z</time>
  <course>162.1</course>
  <speed>12.926824822824821</speed>
  <fix>3d</fix>
</trkpt>
<trkpt lat="-35.3634664" lon="149.1624737">
  <ele>618.77</ele>
  <time>2026-08-27T18:28:14Z</time>
  <course>163.22</course>
  <speed>12.94</speed>
  <fix>3d</fix>
</trkpt>
<trkpt lat="-35.3635023" lon="149.1624868">
  <ele>618.73</ele>
  <time>2026-08-27T18:28:14Z</time>
  <course>162.03</course>
  <speed>12.93928127834</speed>
  <fix>3d</fix>
</trkpt>
<trkpt lat="-35.3634886" lon="149.162482">
  <ele>618.73</ele>
  <time>2026-08-27T18:28:14Z</time>
  <course>163.15</course>
  <speed>12.96</speed>
  <fix>3d</fix>
</trkpt>
<trkpt lat="-35.3635245" lon="149.1624951">
  <ele>618.69</ele>
  <time>2026-08-27T18:28:14Z</time>
  <course>161.98</course>
  <speed>12.954632376103923</speed>
  <fix>3d</fix>
</trkpt>
<trkpt lat="-35.3635109" lon="149.1624903">
  <ele>618.69</ele>
  <time>2026-08-27T18:28:14Z</time>
  <course>163.09</course>
  <speed>12.97</speed>
  <fix>3d</fix>
</trkpt>
<trkpt lat="-35.3635468" lon="149.1625034">
  <ele>618.66</ele>
  <time>2026-08-27T18:28:14Z</time>
  <course>161.94</course>
  <speed>12.964204564877862</speed>
  <fix>3d</fix>
</trkpt>
<trkpt lat="-35.3635332" lon="149.1624986">
  <ele>618.65</ele>
  <time>2026-08-27T18:28:14Z</time>
  <course>163.05</course>
  <speed>12.99</speed>
  <fix>3d</fix>
</trkpt>
<trkpt lat="-35.3635691" lon="149.1625118">
  <ele>618.62</ele>
  <time>2026-08-27T18:28:14Z</time>
  <course>161.94</course>
  <speed>12.976671375973117</speed>
  <fix>3d</fix>
</trkpt>
<trkpt lat="-35.3635556" lon="149.162507">
  <ele>618.61</ele>
  <time>2026-08-27T18:28:14Z</time>
  <course>163.03</course>
  <speed>13.0</speed>
  <fix>3d</fix>
</trkpt>
<trkpt lat="-35.3635917" lon="149.1625202">
  <ele>618.57</ele>
  <time>2026-08-27T18:28:14Z</time>
  <course>161.94</course>
  <speed>12.995814710898273</speed>
  <fix>3d</fix>
</trkpt>
<trkpt lat="-35.3635779" lon="149.1625154">
  <ele>618.57</ele>
  <time>2026-08-27T18:28:14Z</time>
  <course>163.02</course>
  <speed>13.01</speed>
  <fix>3d</fix>
</trkpt>
<trkpt lat="-35.3636142" lon="149.1625286">
  <ele>618.53</ele>
  <time>2026-08-27T18:28:14Z</time>
  <course>161.97</course>
  <speed>13.005387345250428</speed>
  <fix>3d</fix>
</trkpt>
<trkpt lat="-35.3636003" lon="149.1625237">
  <ele>618.53</ele>
  <time>2026-08-27T18:28:14Z</time>
  <course>163.03</course>
  <speed>13.03</speed>
  <fix>3d</fix>
</trkpt>
<trkpt lat="-35.3636367" lon="149.162537">
  <ele>618.49</ele>
  <time>2026-08-27T18:28:14Z</time>
  <course>162.03</course>
  <speed>13.014960622299247</speed>
  <fix>3d</fix>
</trkpt>
<trkpt lat="-35.3636227" lon="149.1625321">
  <ele>618.48</ele>
  <time>2026-08-27T18:28:14Z</time>
  <course>163.05</course>
  <speed>13.03</speed>
  <fix>3d</fix>
</trkpt>
<trkpt lat="-35.3636591" lon="149.1625454">
  <ele>618.45</ele>
  <time>2026-08-27T18:28:15Z</time>
  <course>162.15</course>
  <speed>13.012075161172412</speed>
  <fix>3d</fix>
</trkpt>
<trkpt lat="-35.3636451" lon="149.1625405">
  <ele>618.44</ele>
  <time>2026-08-27T18:28:15Z</time>
  <course>163.08</course>
  <speed>13.04</speed>
  <fix>3d</fix>
</trkpt>
<trkpt lat="-35.3636815" lon="149.1625537">
  <ele>618.42</ele>
  <time>2026-08-27T18:28:15Z</time>
  <course>162.29</course>
  <speed>13.00919674691716</speed>
  <fix>3d</fix>
</trkpt>
<trkpt lat="-35.3636676" lon="149.1625489">
  <ele>618.4</ele>
  <time>2026-08-27T18:28:15Z</time>
  <course>163.12</course>
  <speed>13.03</speed>
  <fix>3d</fix>
</trkpt>
<trkpt lat="-35.3637039" lon="149.162562">
  <ele>618.38</ele>
  <time>2026-08-27T18:28:15Z</time>
  <course>162.42</course>
  <speed>13.003461077728497</speed>
  <fix>3d</fix>
</trkpt>
<trkpt lat="-35.36369" lon="149.1625572">
  <ele>618.37</ele>
  <time>2026-08-27T18:28:15Z</time>
  <course>163.18</course>
  <speed>13.03</speed>
  <fix>3d</fix>
</trkpt>
<trkpt lat="-35.3637263" lon="149.1625703">
  <ele>618.34</ele>
  <time>2026-08-27T18:28:15Z</time>
  <course>162.53</course>
  <speed>12.991019975352206</speed>
  <fix>3d</fix>
</trkpt>
<trkpt lat="-35.3637124" lon="149.1625654">
  <ele>618.32</ele>
  <time>2026-08-27T18:28:15Z</time>
  <course>163.24</course>
  <speed>13.02</speed>
  <fix>3d</fix>
</trkpt>
<trkpt lat="-35.3637487" lon="149.1625785">
  <ele>618.3</ele>
  <time>2026-08-27T18:28:15Z</time>
  <course>162.61</course>
  <speed>12.98532248348111</speed>
  <fix>3d</fix>
</trkpt>
<trkpt lat="-35.3637348" lon="149.1625737">
  <ele>618.28</ele>
  <time>2026-08-27T18:28:15Z</time>
  <course>163.31</course>
  <speed>13.01</speed>
  <fix>3d</fix>
</trkpt>
<trkpt lat="-35.363771" lon="149.1625867">
  <ele>618.26</ele>
  <time>2026-08-27T18:28:15Z</time>
  <course>162.67</course>
  <speed>12.982484353928564</speed>
  <fix>3d</fix>
</trkpt>
<trkpt lat="-35.3637571" lon="149.1625819">
  <ele>618.23</ele>
  <time>2026-08-27T18:28:15Z</time>
  <course>163.37</course>
  <speed>13.01</speed>
  <fix>3d</fix>
</trkpt>
<trkpt lat="-35.3637934" lon="149.1625949">
  <ele>618.21</ele>
  <time>2026-08-27T18:28:15Z</time>
  <course>162.71</course>
  <speed>12.989245551609224</speed>
  <fix>3d</fix>
</trkpt>
<trkpt lat="-35.3637796" lon="149.1625901">
  <ele>618.18</ele>
  <time>2026-08-27T18:28:15Z</time>
  <course>163.43</course>
  <speed>13.01</speed>
  <fix>3d</fix>
</trkpt>
<trkpt lat="-35.363816" lon="149.1626031">
  <ele>618.16</ele>
  <time>2026-08-27T18:28:15Z</time>
  <course>162.76</course>
  <speed>12.986423680136113</speed>
  <fix>3d</fix>
</trkpt>
<trkpt lat="-35.3638019" lon="149.1625983">
  <ele>618.13</ele>
  <time>2026-08-27T18:28:15Z</time>
  <course>163.48</course>
  <speed>13.01</speed>
  <fix>3d</fix>
</trkpt>
<trkpt lat="-35.3638384" lon="149.1626112">
  <ele>618.12</ele>
  <time>2026-08-27T18:28:15Z</time>
  <course>162.78</course>
  <speed>12.986423680136113</speed>
  <fix>3d</fix>
</trkpt>
<trkpt lat="-35.3638244" lon="149.1626064">
  <ele>618.08</ele>
  <time>2026-08-27T18:28:15Z</time>
  <course>163.51</course>
  <speed>13.01</speed>
  <fix>3d</fix>
</trkpt>
<trkpt lat="-35.3638608" lon="149.1626193">
  <ele>618.07</ele>
  <time>2026-08-27T18:28:15Z</time>
  <course>162.82</course>
  <speed>12.983608897375182</speed>
  <fix>3d</fix>
</trkpt>
<trkpt lat="-35.3638469" lon="149.1626145">
  <ele>618.04</ele>
  <time>2026-08-27T18:28:15Z</time>
  <course>163.53</course>
  <speed>13.01</speed>
  <fix>3d</fix>
</trkpt>
<trkpt lat="-35.3638832" lon="149.1626274">
  <ele>618.02</ele>
  <time>2026-08-27T18:28:15Z</time>
  <course>162.88</course>
  <speed>12.974012486505476</speed>
  <fix>3d</fix>
</trkpt>
<trkpt lat="-35.3638694" lon="149.1626227">
  <ele>617.99</ele>
  <time>2026-08-27T18:28:15Z</time>
  <course>163.55</course>
  <speed>13.0</speed>
  <fix>3d</fix>
</trkpt>
<trkpt lat="-35.3639055" lon="149.1626355">
  <ele>617.97</ele>
  <time>2026-08-27T18:28:15Z</time>
  <course>162.9</course>
  <speed>12.974012486505476</speed>
  <fix>3d</fix>
</trkpt>
<trkpt lat="-35.3638918" lon="149.1626308">
  <ele>617.94</ele>
  <time>2026-08-27T18:28:15Z</time>
  <course>163.56</course>
  <speed>13.0</speed>
  <fix>3d</fix>
</trkpt>
<trkpt lat="-35.3639278" lon="149.1626436">
  <ele>617.93</ele>
  <time>2026-08-27T18:28:15Z</time>
  <course>162.87</course>
  <speed>12.974012486505476</speed>
  <fix>3d</fix>
</trkpt>
<trkpt lat="-35.3639141" lon="149.1626389">
  <ele>617.9</ele>
  <time>2026-08-27T18:28:15Z</time>
  <course>163.56</course>
  <speed>13.0</speed>
  <fix>3d</fix>
</trkpt>
<trkpt lat="-35.3639502" lon="149.1626517">
  <ele>617.89</ele>
  <time>2026-08-27T18:28:15Z</time>
  <course>162.85</course>
  <speed>12.96441668568239</speed>
  <fix>3d</fix>
</trkpt>
<trkpt lat="-35.3639366" lon="149.162647">
  <ele>617.86</ele>
  <time>2026-08-27T18:28:15Z</time>
  <course>163.55</course>
  <speed>13.0</speed>
  <fix>3d</fix>
</trkpt>
<trkpt lat="-35.3639725" lon="149.1626598">
  <ele>617.85</ele>
  <time>2026-08-27T18:28:15Z</time>
  <course>162.81</course>
  <speed>12.96441668568239</speed>
  <fix>3d</fix>
</trkpt>
<trkpt lat="-35.3639589" lon="149.1626551">
  <ele>617.81</ele>
  <time>2026-08-27T18:28:15Z</time>
  <course>163.53</course>
  <speed>13.0</speed>
  <fix>3d</fix>
</trkpt>
<trkpt lat="-35.3639948" lon="149.1626679">
  <ele>617.8</ele>
  <time>2026-08-27T18:28:15Z</time>
  <course>162.8</course>
  <speed>12.976829350808309</speed>
  <fix>3d</fix>
</trkpt>
<trkpt lat="-35.3639814" lon="149.1626632">
  <ele>617.77</ele>
  <time>2026-08-27T18:28:15Z</time>
  <course>163.51</course>
  <speed>13.0</speed>
  <fix>3d</fix>
</trkpt>
<trkpt lat="-35.3640172" lon="149.162676">
  <ele>617.76</ele>
  <time>2026-08-27T18:28:15Z</time>
  <course>162.76</course>
  <speed>12.979653308158891</speed>
  <fix>3d</fix>
</trkpt>
<trkpt lat="-35.3640037" lon="149.1626714">
  <ele>617.72</ele>
  <time>2026-08-27T18:28:15Z</time>
  <course>163.48</course>
  <speed>13.01</speed>
  <fix>3d</fix>
</trkpt>
<trkpt lat="-35.3640396" lon="149.1626842">
  <ele>617.72</ele>
  <time>2026-08-27T18:28:15Z</time>
  <course>162.71</course>
  <speed>12.982484353928564</speed>
  <fix>3d</fix>
</trkpt>
<trkpt lat="-35.3640262" lon="149.1626795">
  <ele>617.68</ele>
  <time>2026-08-27T18:28:15Z</time>
  <course>163.45</course>
  <speed>13.01</speed>
  <fix>3d</fix>
</trkpt>
<trkpt lat="-35.3640621" lon="149.1626924">
  <ele>617.67</ele>
  <time>2026-08-27T18:28:15Z</time>
  <course>162.69</course>
  <speed>12.98532248348111</speed>
  <fix>3d</fix>
</trkpt>
<trkpt lat="-35.3640486" lon="149.1626877">
  <ele>617.63</ele>
  <time>2026-08-27T18:28:15Z</time>
  <course>163.42</course>
  <speed>13.01</speed>
  <fix>3d</fix>
</trkpt>
<trkpt lat="-35.3640846" lon="149.1627006">
  <ele>617.64</ele>
  <time>2026-08-27T18:28:15Z</time>
  <course>162.71</course>
  <speed>12.98532248348111</speed>
  <fix>3d</fix>
</trkpt>
<trkpt lat="-35.364071" lon="149.1626959">
  <ele>617.58</ele>
  <time>2026-08-27T18:28:15Z</time>
  <course>163.39</course>
  <speed>13.02</speed>
  <fix>3d</fix>
</trkpt>
<trkpt lat="-35.364107" lon="149.1627088">
  <ele>617.6</ele>
  <time>2026-08-27T18:28:15Z</time>
  <course>162.72</course>
  <speed>12.988167692172748</speed>
  <fix>3d</fix>
</trkpt>
<trkpt lat="-35.3640934" lon="149.1627042">
  <ele>617.55</ele>
  <time>2026-08-27T18:28:15Z</time>
  <course>163.36</course>
  <speed>13.01</speed>
  <fix>3d</fix>
</trkpt>
<trkpt lat="-35.3641294" lon="149.1627171">
  <ele>617.56</ele>
  <time>2026-08-27T18:28:15Z</time>
  <course>162.74</course>
  <speed>12.978582357098944</speed>
  <fix>3d</fix>
</trkpt>
<trkpt lat="-35.3641159" lon="149.1627123">
  <ele>617.5</ele>
  <time>2026-08-27T18:28:15Z</time>
  <course>163.34</course>
  <speed>13.01</speed>
  <fix>3d</fix>
</trkpt>
<trkpt lat="-35.3641518" lon="149.1627253">
  <ele>617.52</ele>
  <time>2026-08-27T18:28:15Z</time>
  <course>162.77</course>
  <speed>12.968997648237893</speed>
  <fix>3d</fix>
</trkpt>
<trkpt lat="-35.3641382" lon="149.1627206">
  <ele>617.45</ele>
  <time>2026-08-27T18:28:15Z</time>
  <course>163.33</course>
  <speed>13.0</speed>
  <fix>3d</fix>
</trkpt>
<trkpt lat="-35.3641742" lon="149.1627335">
  <ele>617.48</ele>
  <time>2026-08-27T18:28:15Z</time>
  <course>162.78</course>
  <speed>12.968997648237893</speed>
  <fix>3d</fix>
</trkpt>
<trkpt lat="-35.3641606" lon="149.1627287">
  <ele>617.41</ele>
  <time>2026-08-27T18:28:15Z</time>
  <course>163.32</course>
  <speed>13.0</speed>
  <fix>3d</fix>
</trkpt>
<trkpt lat="-35.3641965" lon="149.1627417">
  <ele>617.43</ele>
  <time>2026-08-27T18:28:15Z</time>
  <course>162.8</course>
  <speed>12.959413566979023</speed>
  <fix>3d</fix>
</trkpt>
<trkpt lat="-35.364183" lon="149.162737">
  <ele>617.37</ele>
  <time>2026-08-27T18:28:15Z</time>
  <course>163.32</course>
  <speed>12.99</speed>
  <fix>3d</fix>
</trkpt>
<trkpt lat="-35.3642189" lon="149.1627499">
  <ele>617.38</ele>
  <time>2026-08-27T18:28:15Z</time>
  <course>162.8</course>
  <speed>12.959413566979023</speed>
  <fix>3d</fix>
</trkpt>
<trkpt lat="-35.3642053" lon="149.1627452">
  <ele>617.32</ele>
  <time>2026-08-27T18:28:15Z</time>
  <course>163.31</course>
  <speed>12.98</speed>
  <fix>3d</fix>
</trkpt>
<trkpt lat="-35.3642411" lon="149.1627581">
  <ele>617.33</ele>
  <time>2026-08-27T18:28:15Z</time>
  <course>162.77</course>
  <speed>12.959413566979023</speed>
  <fix>3d</fix>
</trkpt>
<trkpt lat="-35.3642277" lon="149.1627533">
  <ele>617.27</ele>
  <time>2026-08-27T18:28:15Z</time>
  <course>163.32</course>
  <speed>12.98</speed>
  <fix>3d</fix>
</trkpt>
<trkpt lat="-35.3642635" lon="149.1627663">
  <ele>617.28</ele>
  <time>2026-08-27T18:28:15Z</time>
  <course>162.74</course>
  <speed>12.959413566979023</speed>
  <fix>3d</fix>
</trkpt>
<trkpt lat="-35.36425" lon="149.1627616">
  <ele>617.23</ele>
  <time>2026-08-27T18:28:15Z</time>
  <course>163.32</course>
  <speed>12.98</speed>
  <fix>3d</fix>
</trkpt>
<trkpt lat="-35.364286" lon="149.1627746">
  <ele>617.23</ele>
  <time>2026-08-27T18:28:15Z</time>
  <course>162.7</course>
  <speed>12.959413566979023</speed>
  <fix>3d</fix>
</trkpt>
<trkpt lat="-35.3642724" lon="149.1627698">
  <ele>617.18</ele>
  <time>2026-08-27T18:28:15Z</time>
  <course>163.31</course>
  <speed>12.98</speed>
  <fix>3d</fix>
</trkpt>
<trkpt lat="-35.3643084" lon="149.1627828">
  <ele>617.18</ele>
  <time>2026-08-27T18:28:15Z</time>
  <course>162.68</course>
  <speed>12.959413566979023</speed>
  <fix>3d</fix>
</trkpt>
<trkpt lat="-35.3642947" lon="149.162778">
  <ele>617.14</ele>
  <time>2026-08-27T18:28:15Z</time>
  <course>163.31</course>
  <speed>12.98</speed>
  <fix>3d</fix>
</trkpt>
<trkpt lat="-35.3643307" lon="149.162791">
  <ele>617.14</ele>
  <time>2026-08-27T18:28:15Z</time>
  <course>162.68</course>
  <speed>12.968997648237893</speed>
  <fix>3d</fix>
</trkpt>
<trkpt lat="-35.364317" lon="149.1627863">
  <ele>617.09</ele>
  <time>2026-08-27T18:28:15Z</time>
  <course>163.31</course>
  <speed>12.98</speed>
  <fix>3d</fix>
</trkpt>
<trkpt lat="-35.3643531" lon="149.1627993">
  <ele>617.1</ele>
  <time>2026-08-27T18:28:15Z</time>
  <course>162.68</course>
  <speed>12.968997648237893</speed>
  <fix>3d</fix>
</trkpt>
<trkpt lat="-35.3643395" lon="149.1627945">
  <ele>617.05</ele>
  <time>2026-08-27T18:28:15Z</time>
  <course>163.31</course>
  <speed>12.98</speed>
  <fix>3d</fix>
</trkpt>
<trkpt lat="-35.3643755" lon="149.1628075">
  <ele>617.05</ele>
  <time>2026-08-27T18:28:15Z</time>
  <course>162.71</course>
  <speed>12.959413566979023</speed>
  <fix>3d</fix>
</trkpt>
<trkpt lat="-35.3643618" lon="149.1628026">
  <ele>617.01</ele>
  <time>2026-08-27T18:28:15Z</time>
  <course>163.31</course>
  <speed>12.98</speed>
  <fix>3d</fix>
</trkpt>
<trkpt lat="-35.3643978" lon="149.1628157">
  <ele>617.01</ele>
  <time>2026-08-27T18:28:15Z</time>
  <course>162.72</course>
  <speed>12.959413566979023</speed>
  <fix>3d</fix>
</trkpt>
<trkpt lat="-35.3643841" lon="149.1628109">
  <ele>616.97</ele>
  <time>2026-08-27T18:28:15Z</time>
  <course>163.31</course>
  <speed>12.98</speed>
  <fix>3d</fix>
</trkpt>
<trkpt lat="-35.3644201" lon="149.1628239">
  <ele>616.97</ele>
  <time>2026-08-27T18:28:15Z</time>
  <course>162.78</course>
  <speed>12.946976481016716</speed>
  <fix>3d</fix>
</trkpt>
<trkpt lat="-35.3644065" lon="149.1628191">
  <ele>616.93</ele>
  <time>2026-08-27T18:28:15Z</time>
  <course>163.32</course>
  <speed>12.97</speed>
  <fix>3d</fix>
</trkpt>
<trkpt lat="-35.3644423" lon="149.162832">
  <ele>616.93</ele>
  <time>2026-08-27T18:28:15Z</time>
  <course>162.79</course>
  <speed>12.946976481016716</speed>
  <fix>3d</fix>
</trkpt>
<trkpt lat="-35.3644288" lon="149.1628273">
  <ele>616.9</ele>
  <time>2026-08-27T18:28:15Z</time>
  <course>163.33</course>
  <speed>12.97</speed>
  <fix>3d</fix>
</trkpt>
<trkpt lat="-35.3644645" lon="149.1628402">
  <ele>616.89</ele>
  <time>2026-08-27T18:28:15Z</time>
  <course>162.76</course>
  <speed>12.946976481016716</speed>
  <fix>3d</fix>
</trkpt>
<trkpt lat="-35.3644511" lon="149.1628354">
  <ele>616.85</ele>
  <time>2026-08-27T18:28:15Z</time>
  <course>163.34</course>
  <speed>12.97</speed>
  <fix>3d</fix>
</trkpt>
<trkpt lat="-35.3644868" lon="149.1628483">
  <ele>616.85</ele>
  <time>2026-08-27T18:28:15Z</time>
  <course>162.72</course>
  <speed>12.956562043999172</speed>
  <fix>3d</fix>
</trkpt>
<trkpt lat="-35.3644734" lon="149.1628437">
  <ele>616.81</ele>
  <time>2026-08-27T18:28:15Z</time>
  <course>163.35</course>
  <speed>12.98</speed>
  <fix>3d</fix>
</trkpt>
<trkpt lat="-35.3645092" lon="149.1628565">
  <ele>616.8</ele>
  <time>2026-08-27T18:28:15Z</time>
  <course>162.65</course>
  <speed>12.966148232995025</speed>
  <fix>3d</fix>
</trkpt>
<trkpt lat="-35.3644958" lon="149.1628519">
  <ele>616.77</ele>
  <time>2026-08-27T18:28:15Z</time>
  <course>163.36</course>
  <speed>12.99</speed>
  <fix>3d</fix>
</trkpt>
<trkpt lat="-35.3645316" lon="149.1628648">
  <ele>616.75</ele>
  <time>2026-08-27T18:28:15Z</time>
  <course>162.62</course>
  <speed>12.978582357098944</speed>
  <fix>3d</fix>
</trkpt>
<trkpt lat="-35.3645181" lon="149.1628601">
  <ele>616.72</ele>
  <time>2026-08-27T18:28:15Z</time>
  <course>163.35</course>
  <speed>13.0</speed>
  <fix>3d</fix>
</trkpt>
<trkpt lat="-35.364554" lon="149.162873">
  <ele>616.71</ele>
  <time>2026-08-27T18:28:15Z</time>
  <course>162.6</course>
  <speed>12.988167692172748</speed>
  <fix>3d</fix>
</trkpt>
<trkpt lat="-35.3645406" lon="149.1628683">
  <ele>616.68</ele>
  <time>2026-08-27T18:28:15Z</time>
  <course>163.35</course>
  <speed>13.01</speed>
  <fix>3d</fix>
</trkpt>
<trkpt lat="-35.3645765" lon="149.1628812">
  <ele>616.67</ele>
  <time>2026-08-27T18:28:15Z</time>
  <course>162.65</course>
  <speed>12.997753652073884</speed>
  <fix>3d</fix>
</trkpt>
<trkpt lat="-35.3645631" lon="149.1628766">
  <ele>616.64</ele>
  <time>2026-08-27T18:28:15Z</time>
  <course>163.34</course>
  <speed>13.02</speed>
  <fix>3d</fix>
</trkpt>
<trkpt lat="-35.3645989" lon="149.1628894">
  <ele>616.64</ele>
  <time>2026-08-27T18:28:15Z</time>
  <course>162.72</course>
  <speed>12.997753652073884</speed>
  <fix>3d</fix>
</trkpt>
<trkpt lat="-35.3645855" lon="149.1628847">
  <ele>616.6</ele>
  <time>2026-08-27T18:28:15Z</time>
  <course>163.34</course>
  <speed>13.02</speed>
  <fix>3d</fix>
</trkpt>
<trkpt lat="-35.3646213" lon="149.1628977">
  <ele>616.6</ele>
  <time>2026-08-27T18:28:15Z</time>
  <course>162.77</course>
  <speed>12.997753652073884</speed>
  <fix>3d</fix>
</trkpt>
<trkpt lat="-35.3646078" lon="149.162893">
  <ele>616.56</ele>
  <time>2026-08-27T18:28:15Z</time>
  <course>163.34</course>
  <speed>13.02</speed>
  <fix>3d</fix>
</trkpt>
<trkpt lat="-35.3646437" lon="149.1629059">
  <ele>616.56</ele>
  <time>2026-08-27T18:28:15Z</time>
  <course>162.85</course>
  <speed>12.997753652073884</speed>
  <fix>3d</fix>
</trkpt>
<trkpt lat="-35.3646303" lon="149.1629012">
  <ele>616.52</ele>
  <time>2026-08-27T18:28:15Z</time>
  <course>163.35</course>
  <speed>13.02</speed>
  <fix>3d</fix>
</trkpt>
<trkpt lat="-35.3646661" lon="149.1629141">
  <ele>616.52</ele>
  <time>2026-08-27T18:28:15Z</time>
  <course>162.88</course>
  <speed>12.994910542208437</speed>
  <fix>3d</fix>
</trkpt>
<trkpt lat="-35.3646526" lon="149.1629094">
  <ele>616.48</ele>
  <time>2026-08-27T18:28:15Z</time>
  <course>163.37</course>
  <speed>13.02</speed>
  <fix>3d</fix>
</trkpt>
<trkpt lat="-35.3646884" lon="149.1629222">
  <ele>616.48</ele>
  <time>2026-08-27T18:28:15Z</time>
  <course>162.91</course>
  <speed>12.994910542208437</speed>
  <fix>3d</fix>
</trkpt>
<trkpt lat="-35.3646751" lon="149.1629176">
  <ele>616.44</ele>
  <time>2026-08-27T18:28:15Z</time>
  <course>163.39</course>
  <speed>13.02</speed>
  <fix>3d</fix>
</trkpt>
<trkpt lat="-35.3647108" lon="149.1629304">
  <ele>616.43</ele>
  <time>2026-08-27T18:28:15Z</time>
  <course>162.92</course>
  <speed>12.994910542208437</speed>
  <fix>3d</fix>
</trkpt>
<trkpt lat="-35.3646976" lon="149.1629257">
  <ele>616.39</ele>
  <time>2026-08-27T18:28:15Z</time>
  <course>163.4</course>
  <speed>13.02</speed>
  <fix>3d</fix>
</trkpt>
<trkpt lat="-35.3647332" lon="149.1629386">
  <ele>616.39</ele>
  <time>2026-08-27T18:28:15Z</time>
  <course>162.89</course>
  <speed>12.992074507175518</speed>
  <fix>3d</fix>
</trkpt>
<trkpt lat="-35.36472" lon="149.162934">
  <ele>616.35</ele>
  <time>2026-08-27T18:28:15Z</time>
  <course>163.42</course>
  <speed>13.02</speed>
  <fix>3d</fix>
</trkpt>
<trkpt lat="-35.3647558" lon="149.1629468">
  <ele>616.35</ele>
  <time>2026-08-27T18:28:15Z</time>
  <course>162.91</course>
  <speed>12.992074507175518</speed>
  <fix>3d</fix>
</trkpt>
<trkpt lat="-35.3647424" lon="149.1629421">
  <ele>616.3</ele>
  <time>2026-08-27T18:28:15Z</time>
  <course>163.42</course>
  <speed>13.02</speed>
  <fix>3d</fix>
</trkpt>
<trkpt lat="-35.3647784" lon="149.1629551">
  <ele>616.3</ele>
  <time>2026-08-27T18:28:15Z</time>
  <course>162.93</course>
  <speed>12.992074507175518</speed>
  <fix>3d</fix>
</trkpt>
<trkpt lat="-35.3647648" lon="149.1629504">
  <ele>616.26</ele>
  <time>2026-08-27T18:28:15Z</time>
  <course>163.43</course>
  <speed>13.02</speed>
  <fix>3d</fix>
</trkpt>
<trkpt lat="-35.3648009" lon="149.1629633">
  <ele>616.26</ele>
  <time>2026-08-27T18:28:15Z</time>
  <course>162.98</course>
  <speed>12.992074507175518</speed>
  <fix>3d</fix>
</trkpt>
<trkpt lat="-35.3647872" lon="149.1629585">
  <ele>616.22</ele>
  <time>2026-08-27T18:28:15Z</time>
  <course>163.42</course>
  <speed>13.01</speed>
  <fix>3d</fix>
</trkpt>
<trkpt lat="-35.3648234" lon="149.1629715">
  <ele>616.21</ele>
  <time>2026-08-27T18:28:15Z</time>
  <course>163.05</course>
  <speed>12.982484353928564</speed>
  <fix>3d</fix>
</trkpt>
<trkpt lat="-35.3648096" lon="149.1629668">
  <ele>616.17</ele>
  <time>2026-08-27T18:28:15Z</time>
  <course>163.42</course>
  <speed>13.0</speed>
  <fix>3d</fix>
</trkpt>
<trkpt lat="-35.3648458" lon="149.1629797">
  <ele>616.17</ele>
  <time>2026-08-27T18:28:15Z</time>
  <course>163.1</course>
  <speed>12.97289481958441</speed>
  <fix>3d</fix>
</trkpt>
<trkpt lat="-35.3648321" lon="149.1629749">
  <ele>616.13</ele>
  <time>2026-08-27T18:28:15Z</time>
  <course>163.42</course>
  <speed>12.99</speed>
  <fix>3d</fix>
</trkpt>
<trkpt lat="-35.3648682" lon="149.1629878">
  <ele>616.13</ele>
  <time>2026-08-27T18:28:15Z</time>
  <course>163.15</course>
  <speed>12.950880278961735</speed>
  <fix>3d</fix>
</trkpt>
<trkpt lat="-35.3648544" lon="149.1629831">
  <ele>616.08</ele>
  <time>2026-08-27T18:28:15Z</time>
  <course>163.43</course>
  <speed>12.97</speed>
  <fix>3d</fix>
</trkpt>
<trkpt lat="-35.3648905" lon="149.162996">
  <ele>616.08</ele>
  <time>2026-08-27T18:28:15Z</time>
  <course>163.15</course>
  <speed>12.941290507518948</speed>
  <fix>3d</fix>
</trkpt>
<trkpt lat="-35.3648767" lon="149.1629912">
  <ele>616.05</ele>
  <time>2026-08-27T18:28:15Z</time>
  <course>163.43</course>
  <speed>12.96</speed>
  <fix>3d</fix>
</trkpt>
<trkpt lat="-35.3649129" lon="149.1630041">
  <ele>616.04</ele>
  <time>2026-08-27T18:28:15Z</time>
  <course>163.14</course>
  <speed>12.928866926378351</speed>
  <fix>3d</fix>
</trkpt>
<trkpt lat="-35.364899" lon="149.1629993">
  <ele>616.01</ele>
  <time>2026-08-27T18:28:15Z</time>
  <course>163.44</course>
  <speed>12.94</speed>
  <fix>3d</fix>
</trkpt>
<trkpt lat="-35.3649351" lon="149.1630123">
  <ele>615.99</ele>
  <time>2026-08-27T18:28:15Z</time>
  <course>163.11</course>
  <speed>12.928866926378351</speed>
  <fix>3d</fix>
</trkpt>
<trkpt lat="-35.3649213" lon="149.1630075">
  <ele>615.96</ele>
  <time>2026-08-27T18:28:15Z</time>
  <course>163.44</course>
  <speed>12.94</speed>
  <fix>3d</fix>
</trkpt>
<trkpt lat="-35.3649574" lon="149.1630204">
  <ele>615.95</ele>
  <time>2026-08-27T18:28:15Z</time>
  <course>163.06</course>
  <speed>12.93170135751673</speed>
  <fix>3d</fix>
</trkpt>
<trkpt lat="-35.3649436" lon="149.1630156">
  <ele>615.92</ele>
  <time>2026-08-27T18:28:15Z</time>
  <course>163.43</course>
  <speed>12.93</speed>
  <fix>3d</fix>
</trkpt>
<trkpt lat="-35.3649798" lon="149.1630286">
  <ele>615.9</ele>
  <time>2026-08-27T18:28:15Z</time>
  <course>162.97</course>
  <speed>12.922112830338545</speed>
  <fix>3d</fix>
</trkpt>
<trkpt lat="-35.3649658" lon="149.1630237">
  <ele>615.87</ele>
  <time>2026-08-27T18:28:15Z</time>
  <course>163.41</course>
  <speed>12.93</speed>
  <fix>3d</fix>
</trkpt>
<trkpt lat="-35.3650022" lon="149.1630368">
  <ele>615.85</ele>
  <time>2026-08-27T18:28:15Z</time>
  <course>162.94</course>
  <speed>12.924956479617254</speed>
  <fix>3d</fix>
</trkpt>
<trkpt lat="-35.3649881" lon="149.1630318">
  <ele>615.82</ele>
  <time>2026-08-27T18:28:15Z</time>
  <course>163.4</course>
  <speed>12.93</speed>
  <fix>3d</fix>
</trkpt>
<trkpt lat="-35.3650244" lon="149.1630449">
  <ele>615.81</ele>
  <time>2026-08-27T18:28:15Z</time>
  <course>162.9</course>
  <speed>12.924956479617254</speed>
  <fix>3d</fix>
</trkpt>
<trkpt lat="-35.3650104" lon="149.1630399">
  <ele>615.79</ele>
  <time>2026-08-27T18:28:15Z</time>
  <course>163.37</course>
  <speed>12.93</speed>
  <fix>3d</fix>
</trkpt>
<trkpt lat="-35.3650467" lon="149.1630531">
  <ele>615.77</ele>
  <time>2026-08-27T18:28:15Z</time>
  <course>162.89</course>
  <speed>12.924956479617254</speed>
  <fix>3d</fix>
</trkpt>
<trkpt lat="-35.3650327" lon="149.1630482">
  <ele>615.75</ele>
  <time>2026-08-27T18:28:15Z</time>
  <course>163.35</course>
  <speed>12.93</speed>
  <fix>3d</fix>
</trkpt>
<trkpt lat="-35.3650688" lon="149.1630612">
  <ele>615.73</ele>
  <time>2026-08-27T18:28:15Z</time>
  <course>162.82</course>
  <speed>12.927807238661938</speed>
  <fix>3d</fix>
</trkpt>
<trkpt lat="-35.365055" lon="149.1630564">
  <ele>615.7</ele>
  <time>2026-08-27T18:28:15Z</time>
  <course>163.33</course>
  <speed>12.94</speed>
  <fix>3d</fix>
</trkpt>
<trkpt lat="-35.365091" lon="149.1630694">
  <ele>615.69</ele>
  <time>2026-08-27T18:28:15Z</time>
  <course>162.77</course>
  <speed>12.937391545439134</speed>
  <fix>3d</fix>
</trkpt>
<trkpt lat="-35.3650772" lon="149.1630645">
  <ele>615.66</ele>
  <time>2026-08-27T18:28:15Z</time>
  <course>163.31</course>
  <speed>12.94</speed>
  <fix>3d</fix>
</trkpt>
<trkpt lat="-35.3651132" lon="149.1630775">
  <ele>615.64</ele>
  <time>2026-08-27T18:28:15Z</time>
  <course>162.68</course>
  <speed>12.949830114715791</speed>
  <fix>3d</fix>
</trkpt>
<trkpt lat="-35.3650995" lon="149.1630727">
  <ele>615.62</ele>
  <time>2026-08-27T18:28:15Z</time>
  <course>163.29</course>
  <speed>12.96</speed>
  <fix>3d</fix>
</trkpt>
<trkpt lat="-35.3651355" lon="149.1630857">
  <ele>615.6</ele>
  <time>2026-08-27T18:28:15Z</time>
  <course>162.62</course>
  <speed>12.962272177361498</speed>
  <fix>3d</fix>
</trkpt>
<trkpt lat="-35.3651218" lon="149.1630809">
  <ele>615.57</ele>
  <time>2026-08-27T18:28:15Z</time>
  <course>163.27</course>
  <speed>12.97</speed>
  <fix>3d</fix>
</trkpt>
<trkpt lat="-35.3651576" lon="149.1630939">
  <ele>615.56</ele>
  <time>2026-08-27T18:28:15Z</time>
  <course>162.58</course>
  <speed>12.97471772332639</speed>
  <fix>3d</fix>
</trkpt>
<trkpt lat="-35.3651442" lon="149.1630892">
  <ele>615.53</ele>
  <time>2026-08-27T18:28:15Z</time>
  <course>163.26</course>
  <speed>12.99</speed>
  <fix>3d</fix>
</trkpt>
<trkpt lat="-35.3651799" lon="149.1631021">
  <ele>615.51</ele>
  <time>2026-08-27T18:28:15Z</time>
  <course>162.54</course>
  <speed>12.99387932836072</speed>
  <fix>3d</fix>
</trkpt>
<trkpt lat="-35.3651665" lon="149.1630974">
  <ele>615.48</ele>
  <time>2026-08-27T18:28:15Z</time>
  <course>163.24</course>
  <speed>13.01</speed>
  <fix>3d</fix>
</trkpt>
<trkpt lat="-35.3652024" lon="149.1631104">
  <ele>615.47</ele>
  <time>2026-08-27T18:28:15Z</time>
  <course>162.5</course>
  <speed>13.006325384212097</speed>
  <fix>3d</fix>
</trkpt>
<trkpt lat="-35.365189" lon="149.1631057">
  <ele>615.44</ele>
  <time>2026-08-27T18:28:15Z</time>
  <course>163.24</course>
  <speed>13.03</speed>
  <fix>3d</fix>
</trkpt>
<trkpt lat="-35.3652249" lon="149.1631187">
  <ele>615.43</ele>
  <time>2026-08-27T18:28:15Z</time>
  <course>162.51</course>
  <speed>13.025486555211671</speed>
  <fix>3d</fix>
</trkpt>
<trkpt lat="-35.3652113" lon="149.163114">
  <ele>615.4</ele>
  <time>2026-08-27T18:28:15Z</time>
  <course>163.23</course>
  <speed>13.05</speed>
  <fix>3d</fix>
</trkpt>
<trkpt lat="-35.3652474" lon="149.163127">
  <ele>615.39</ele>
  <time>2026-08-27T18:28:15Z</time>
  <course>162.55</course>
  <speed>13.037933118404926</speed>
  <fix>3d</fix>
</trkpt>
<trkpt lat="-35.3652338" lon="149.1631223">
  <ele>615.36</ele>
  <time>2026-08-27T18:28:15Z</time>
  <course>163.23</course>
  <speed>13.06</speed>
  <fix>3d</fix>
</trkpt>
<trkpt lat="-35.3652699" lon="149.1631353">
  <ele>615.35</ele>
  <time>2026-08-27T18:28:15Z</time>
  <course>162.62</course>
  <speed>13.04465024444887</speed>
  <fix>3d</fix>
</trkpt>
<trkpt lat="-35.3652564" lon="149.1631306">
  <ele>615.32</ele>
  <time>2026-08-27T18:28:15Z</time>
  <course>163.24</course>
  <speed>13.07</speed>
  <fix>3d</fix>
</trkpt>
<trkpt lat="-35.3652924" lon="149.1631436">
  <ele>615.32</ele>
  <time>2026-08-27T18:28:15Z</time>
  <course>162.74</course>
  <speed>13.04465024444887</speed>
  <fix>3d</fix>
</trkpt>
<trkpt lat="-35.3652789" lon="149.1631389">
  <ele>615.28</ele>
  <time>2026-08-27T18:28:15Z</time>
  <course>163.26</course>
  <speed>13.07</speed>
  <fix>3d</fix>
</trkpt>
<trkpt lat="-35.3653149" lon="149.1631519">
  <ele>615.27</ele>
  <time>2026-08-27T18:28:15Z</time>
  <course>162.85</course>
  <speed>13.041794355072463</speed>
  <fix>3d</fix>
</trkpt>
<trkpt lat="-35.3653014" lon="149.1631471">
  <ele>615.24</ele>
  <time>2026-08-27T18:28:15Z</time>
  <course>163.29</course>
  <speed>13.07</speed>
  <fix>3d</fix>
</trkpt>
<trkpt lat="-35.3653374" lon="149.1631602">
  <ele>615.23</ele>
  <time>2026-08-27T18:28:15Z</time>
  <course>162.95</course>
  <speed>13.029359155384427</speed>
  <fix>3d</fix>
</trkpt>
<trkpt lat="-35.3653239" lon="149.1631554">
  <ele>615.19</ele>
  <time>2026-08-27T18:28:15Z</time>
  <course>163.33</course>
  <speed>13.07</speed>
  <fix>3d</fix>
</trkpt>
<trkpt lat="-35.36536" lon="149.1631684">
  <ele>615.19</ele>
  <time>2026-08-27T18:28:15Z</time>
  <course>163.04</course>
  <speed>13.026515266946873</speed>
  <fix>3d</fix>
</trkpt>
<trkpt lat="-35.3653463" lon="149.1631636">
  <ele>615.16</ele>
  <time>2026-08-27T18:28:15Z</time>
  <course>163.37</course>
  <speed>13.06</speed>
  <fix>3d</fix>
</trkpt>
<trkpt lat="-35.3653824" lon="149.1631766">
  <ele>615.14</ele>
  <time>2026-08-27T18:28:15Z</time>
  <course>163.14</course>
  <speed>13.014088519754274</speed>
  <fix>3d</fix>
</trkpt>
<trkpt lat="-35.3653688" lon="149.1631719">
  <ele>615.12</ele>
  <time>2026-08-27T18:28:15Z</time>
  <course>163.42</course>
  <speed>13.05</speed>
  <fix>3d</fix>
</trkpt>
<trkpt lat="-35.3654048" lon="149.1631848">
  <ele>615.1</ele>
  <time>2026-08-27T18:28:15Z</time>
  <course>163.19</course>
  <speed>13.001665277955745</speed>
  <fix>3d</fix>
</trkpt>
<trkpt lat="-35.3653913" lon="149.16318">
  <ele>615.07</ele>
  <time>2026-08-27T18:28:15Z</time>
  <course>163.45</course>
  <speed>13.03</speed>
  <fix>3d</fix>
</trkpt>
<trkpt lat="-35.3654273" lon="149.1631929">
  <ele>615.05</ele>
  <time>2026-08-27T18:28:15Z</time>
  <course>163.21</course>
  <speed>12.989245551609224</speed>
  <fix>3d</fix>
</trkpt>
<trkpt lat="-35.3654137" lon="149.1631883">
  <ele>615.03</ele>
  <time>2026-08-27T18:28:15Z</time>
  <course>163.48</course>
  <speed>13.02</speed>
  <fix>3d</fix>
</trkpt>
<trkpt lat="-35.3654499" lon="149.1632012">
  <ele>615.01</ele>
  <time>2026-08-27T18:28:15Z</time>
  <course>163.22</course>
  <speed>12.986423680136113</speed>
  <fix>3d</fix>
</trkpt>
<trkpt lat="-35.3654362" lon="149.1631964">
  <ele>614.99</ele>
  <time>2026-08-27T18:28:15Z</time>
  <course>163.5</course>
  <speed>13.01</speed>
  <fix>3d</fix>
</trkpt>
<trkpt lat="-35.3654723" lon="149.1632093">
  <ele>614.96</ele>
  <time>2026-08-27T18:28:15Z</time>
  <course>163.25</course>
  <speed>12.976829350808309</speed>
  <fix>3d</fix>
</trkpt>
<trkpt lat="-35.3654585" lon="149.1632045">
  <ele>614.94</ele>
  <time>2026-08-27T18:28:15Z</time>
  <course>163.51</course>
  <speed>13.0</speed>
  <fix>3d</fix>
</trkpt>
<trkpt lat="-35.3654947" lon="149.1632174">
  <ele>614.92</ele>
  <time>2026-08-27T18:28:15Z</time>
  <course>163.28</course>
  <speed>12.957642532497955</speed>
  <fix>3d</fix>
</trkpt>
<trkpt lat="-35.365481" lon="149.1632126">
  <ele>614.91</ele>
  <time>2026-08-27T18:28:15Z</time>
  <course>163.51</course>
  <speed>12.99</speed>
  <fix>3d</fix>
</trkpt>
<trkpt lat="-35.3655171" lon="149.1632255">
  <ele>614.88</ele>
  <time>2026-08-27T18:28:15Z</time>
  <course>163.27</course>
  <speed>12.954821496261536</speed>
  <fix>3d</fix>
</trkpt>
<trkpt lat="-35.3655033" lon="149.1632208">
  <ele>614.87</ele>
  <time>2026-08-27T18:28:15Z</time>
  <course>163.52</course>
  <speed>12.97</speed>
  <fix>3d</fix>
</trkpt>
<trkpt lat="-35.3655395" lon="149.1632337">
  <ele>614.83</ele>
  <time>2026-08-27T18:28:15Z</time>
  <course>163.25</course>
  <speed>12.945226919602453</speed>
  <fix>3d</fix>
</trkpt>
<trkpt lat="-35.3655257" lon="149.1632289">
  <ele>614.82</ele>
  <time>2026-08-27T18:28:15Z</time>
  <course>163.51</course>
  <speed>12.96</speed>
  <fix>3d</fix>
</trkpt>
<trkpt lat="-35.3655619" lon="149.1632418">
  <ele>614.79</ele>
  <time>2026-08-27T18:28:15Z</time>
  <course>163.23</course>
  <speed>12.938458177078132</speed>
  <fix>3d</fix>
</trkpt>
<trkpt lat="-35.365548" lon="149.163237">
  <ele>614.78</ele>
  <time>2026-08-27T18:28:15Z</time>
  <course>163.5</course>
  <speed>12.95</speed>
  <fix>3d</fix>
</trkpt>
<trkpt lat="-35.3655842" lon="149.1632499">
  <ele>614.74</ele>
  <time>2026-08-27T18:28:15Z</time>
  <course>163.2</course>
  <speed>12.928866926378351</speed>
  <fix>3d</fix>
</trkpt>
<trkpt lat="-35.3655703" lon="149.1632451">
  <ele>614.74</ele>
  <time>2026-08-27T18:28:15Z</time>
  <course>163.48</course>
  <speed>12.94</speed>
  <fix>3d</fix>
</trkpt>
<trkpt lat="-35.3656065" lon="149.163258">
  <ele>614.69</ele>
  <time>2026-08-27T18:28:15Z</time>
  <course>163.16</course>
  <speed>12.91927629552058</speed>
  <fix>3d</fix>
</trkpt>
<trkpt lat="-35.3655926" lon="149.1632532">
  <ele>614.69</ele>
  <time>2026-08-27T18:28:15Z</time>
  <course>163.46</course>
  <speed>12.94</speed>
  <fix>3d</fix>
</trkpt>
<trkpt lat="-35.3656287" lon="149.1632661">
  <ele>614.65</ele>
  <time>2026-08-27T18:28:15Z</time>
  <course>163.11</course>
  <speed>12.922112830338545</speed>
  <fix>3d</fix>
</trkpt>
<trkpt lat="-35.3656149" lon="149.1632613">
  <ele>614.65</ele>
  <time>2026-08-27T18:28:15Z</time>
  <course>163.43</course>
  <speed>12.93</speed>
  <fix>3d</fix>
</trkpt>
<trkpt lat="-35.365651" lon="149.1632743">
  <ele>614.61</ele>
  <time>2026-08-27T18:28:15Z</time>
  <course>163.07</course>
  <speed>12.912524927371873</speed>
  <fix>3d</fix>
</trkpt>
<trkpt lat="-35.3656371" lon="149.1632695">
  <ele>614.61</ele>
  <time>2026-08-27T18:28:15Z</time>
  <course>163.4</course>
  <speed>12.93</speed>
  <fix>3d</fix>
</trkpt>
<trkpt lat="-35.3656733" lon="149.1632825">
  <ele>614.57</ele>
  <time>2026-08-27T18:28:15Z</time>
  <course>163.01</course>
  <speed>12.915370687672887</speed>
  <fix>3d</fix>
</trkpt>
<trkpt lat="-35.3656594" lon="149.1632776">
  <ele>614.57</ele>
  <time>2026-08-27T18:28:15Z</time>
  <course>163.38</course>
  <speed>12.93</speed>
  <fix>3d</fix>
</trkpt>
<trkpt lat="-35.3656956" lon="149.1632907">
  <ele>614.54</ele>
  <time>2026-08-27T18:28:15Z</time>
  <course>162.98</course>
  <speed>12.915370687672887</speed>
  <fix>3d</fix>
</trkpt>
<trkpt lat="-35.3656816" lon="149.1632857">
  <ele>614.53</ele>
  <time>2026-08-27T18:28:15Z</time>
  <course>163.35</course>
  <speed>12.93</speed>
  <fix>3d</fix>
</trkpt>
<trkpt lat="-35.3657179" lon="149.1632988">
  <ele>614.5</ele>
  <time>2026-08-27T18:28:15Z</time>
  <course>162.92</course>
  <speed>12.918223562084687</speed>
  <fix>3d</fix>
</trkpt>
<trkpt lat="-35.3657039" lon="149.163294">
  <ele>614.48</ele>
  <time>2026-08-27T18:28:15Z</time>
  <course>163.32</course>
  <speed>12.93</speed>
  <fix>3d</fix>
</trkpt>
<trkpt lat="-35.3657401" lon="149.163307">
  <ele>614.46</ele>
  <time>2026-08-27T18:28:15Z</time>
  <course>162.87</course>
  <speed>12.930665102770236</speed>
  <fix>3d</fix>
</trkpt>
<trkpt lat="-35.3657263" lon="149.1633021">
  <ele>614.44</ele>
  <time>2026-08-27T18:28:15Z</time>
  <course>163.3</course>
  <speed>12.94</speed>
  <fix>3d</fix>
</trkpt>
<trkpt lat="-35.3657623" lon="149.1633152">
  <ele>614.41</ele>
  <time>2026-08-27T18:28:15Z</time>
  <course>162.82</course>
  <speed>12.940247292845681</speed>
  <fix>3d</fix>
</trkpt>
<trkpt lat="-35.3657485" lon="149.1633104">
  <ele>614.39</ele>
  <time>2026-08-27T18:28:15Z</time>
  <course>163.28</course>
  <speed>12.95</speed>
  <fix>3d</fix>
</trkpt>
<trkpt lat="-35.3657846" lon="149.1633234">
  <ele>614.37</ele>
  <time>2026-08-27T18:28:15Z</time>
  <course>162.73</course>
  <speed>12.95269084013048</speed>
  <fix>3d</fix>
</trkpt>
<trkpt lat="-35.3657708" lon="149.1633185">
  <ele>614.35</ele>
  <time>2026-08-27T18:28:15Z</time>
  <course>163.26</course>
  <speed>12.96</speed>
  <fix>3d</fix>
</trkpt>
<trkpt lat="-35.3658068" lon="149.1633316">
  <ele>614.32</ele>
  <time>2026-08-27T18:28:16Z</time>
  <course>162.68</course>
  <speed>12.965137870458609</speed>
  <fix>3d</fix>
</trkpt>
<trkpt lat="-35.3657931" lon="149.1633268">
  <ele>614.3</ele>
  <time>2026-08-27T18:28:16Z</time>
  <course>163.24</course>
  <speed>12.97</speed>
  <fix>3d</fix>
</trkpt>
<trkpt lat="-35.3658292" lon="149.1633399">
  <ele>614.27</ele>
  <time>2026-08-27T18:28:16Z</time>
  <course>162.64</course>
  <speed>12.97471772332639</speed>
  <fix>3d</fix>
</trkpt>
<trkpt lat="-35.3658154" lon="149.163335">
  <ele>614.25</ele>
  <time>2026-08-27T18:28:16Z</time>
  <course>163.23</course>
  <speed>12.99</speed>
  <fix>3d</fix>
</trkpt>
<trkpt lat="-35.3658515" lon="149.1633481">
  <ele>614.23</ele>
  <time>2026-08-27T18:28:16Z</time>
  <course>162.63</course>
  <speed>12.99674574653209</speed>
  <fix>3d</fix>
</trkpt>
<trkpt lat="-35.3658379" lon="149.1633433">
  <ele>614.2</ele>
  <time>2026-08-27T18:28:16Z</time>
  <course>163.22</course>
  <speed>13.01</speed>
  <fix>3d</fix>
</trkpt>
<trkpt lat="-35.3658738" lon="149.1633564">
  <ele>614.18</ele>
  <time>2026-08-27T18:28:16Z</time>
  <course>162.66</course>
  <speed>13.006325384212097</speed>
  <fix>3d</fix>
</trkpt>
<trkpt lat="-35.3658602" lon="149.1633515">
  <ele>614.16</ele>
  <time>2026-08-27T18:28:16Z</time>
  <course>163.22</course>
  <speed>13.02</speed>
  <fix>3d</fix>
</trkpt>
<trkpt lat="-35.3658962" lon="149.1633646">
  <ele>614.14</ele>
  <time>2026-08-27T18:28:16Z</time>
  <course>162.68</course>
  <speed>13.015905654237049</speed>
  <fix>3d</fix>
</trkpt>
<trkpt lat="-35.3658827" lon="149.1633598">
  <ele>614.12</ele>
  <time>2026-08-27T18:28:16Z</time>
  <course>163.23</course>
  <speed>13.03</speed>
  <fix>3d</fix>
</trkpt>
<trkpt lat="-35.3659188" lon="149.163373">
  <ele>614.1</ele>
  <time>2026-08-27T18:28:16Z</time>
  <course>162.71</course>
  <speed>13.025486555211671</speed>
  <fix>3d</fix>
</trkpt>
<trkpt lat="-35.365905" lon="149.1633681">
  <ele>614.07</ele>
  <time>2026-08-27T18:28:16Z</time>
  <course>163.24</course>
  <speed>13.04</speed>
  <fix>3d</fix>
</trkpt>
<trkpt lat="-35.3659414" lon="149.1633813">
  <ele>614.06</ele>
  <time>2026-08-27T18:28:16Z</time>
  <course>162.77</course>
  <speed>13.025486555211671</speed>
  <fix>3d</fix>
</trkpt>
<trkpt lat="-35.3659275" lon="149.1633764">
  <ele>614.04</ele>
  <time>2026-08-27T18:28:16Z</time>
  <course>163.26</course>
  <speed>13.05</speed>
  <fix>3d</fix>
</trkpt>
<trkpt lat="-35.3659639" lon="149.1633896">
  <ele>614.02</ele>
  <time>2026-08-27T18:28:16Z</time>
  <course>162.83</course>
  <speed>13.03221009652622</speed>
  <fix>3d</fix>
</trkpt>
<trkpt lat="-35.36595" lon="149.1633847">
  <ele>614.0</ele>
  <time>2026-08-27T18:28:16Z</time>
  <course>163.28</course>
  <speed>13.05</speed>
  <fix>3d</fix>
</trkpt>
<trkpt lat="-35.3659864" lon="149.1633979">
  <ele>613.98</ele>
  <time>2026-08-27T18:28:16Z</time>
  <course>162.94</course>
  <speed>13.01977342352777</speed>
  <fix>3d</fix>
</trkpt>
<trkpt lat="-35.3659725" lon="149.1633929">
  <ele>613.95</ele>
  <time>2026-08-27T18:28:16Z</time>
  <course>163.31</course>
  <speed>13.05</speed>
  <fix>3d</fix>
</trkpt>
<trkpt lat="-35.3660089" lon="149.1634061">
  <ele>613.95</ele>
  <time>2026-08-27T18:28:16Z</time>
  <course>163.05</course>
  <speed>13.007340235420923</speed>
  <fix>3d</fix>
</trkpt>
<trkpt lat="-35.365995" lon="149.1634012">
  <ele>613.92</ele>
  <time>2026-08-27T18:28:16Z</time>
  <course>163.34</course>
  <speed>13.04</speed>
  <fix>3d</fix>
</trkpt>
<trkpt lat="-35.3660313" lon="149.1634143">
  <ele>613.91</ele>
  <time>2026-08-27T18:28:16Z</time>
  <course>163.15</course>
  <speed>12.994910542208437</speed>
  <fix>3d</fix>
</trkpt>
<trkpt lat="-35.3660174" lon="149.1634095">
  <ele>613.88</ele>
  <time>2026-08-27T18:28:16Z</time>
  <course>163.37</course>
  <speed>13.02</speed>
  <fix>3d</fix>
</trkpt>
<trkpt lat="-35.3660537" lon="149.1634225">
  <ele>613.86</ele>
  <time>2026-08-27T18:28:16Z</time>
  <course>163.22</course>
  <speed>12.982484353928564</speed>
  <fix>3d</fix>
</trkpt>
<trkpt lat="-35.3660397" lon="149.1634176">
  <ele>613.84</ele>
  <time>2026-08-27T18:28:16Z</time>
  <course>163.41</course>
  <speed>13.01</speed>
  <fix>3d</fix>
</trkpt>
<trkpt lat="-35.3660761" lon="149.1634306">
  <ele>613.82</ele>
  <time>2026-08-27T18:28:16Z</time>
  <course>163.24</course>
  <speed>12.979653308158891</speed>
  <fix>3d</fix>
</trkpt>
<trkpt lat="-35.3660622" lon="149.1634258">
  <ele>613.8</ele>
  <time>2026-08-27T18:28:16Z</time>
  <course>163.45</course>
  <speed>13.0</speed>
  <fix>3d</fix>
</trkpt>
<trkpt lat="-35.3660984" lon="149.1634387">
  <ele>613.77</ele>
  <time>2026-08-27T18:28:16Z</time>
  <course>163.24</course>
  <speed>12.967235634475067</speed>
  <fix>3d</fix>
</trkpt>
<trkpt lat="-35.3660845" lon="149.163434">
  <ele>613.75</ele>
  <time>2026-08-27T18:28:16Z</time>
  <course>163.48</course>
  <speed>12.99</speed>
  <fix>3d</fix>
</trkpt>
<trkpt lat="-35.3661207" lon="149.1634469">
  <ele>613.73</ele>
  <time>2026-08-27T18:28:16Z</time>
  <course>163.21</course>
  <speed>12.967235634475067</speed>
  <fix>3d</fix>
</trkpt>
<trkpt lat="-35.366107" lon="149.1634421">
  <ele>613.7</ele>
  <time>2026-08-27T18:28:16Z</time>
  <course>163.49</course>
  <speed>12.99</speed>
  <fix>3d</fix>
</trkpt>
<trkpt lat="-35.3661432" lon="149.163455">
  <ele>613.68</ele>
  <time>2026-08-27T18:28:16Z</time>
  <course>163.2</course>
  <speed>12.967235634475067</speed>
  <fix>3d</fix>
</trkpt>
<trkpt lat="-35.3661293" lon="149.1634502">
  <ele>613.66</ele>
  <time>2026-08-27T18:28:16Z</time>
  <course>163.5</course>
  <speed>12.99</speed>
  <fix>3d</fix>
</trkpt>
<trkpt lat="-35.3661657" lon="149.1634632">
  <ele>613.63</ele>
  <time>2026-08-27T18:28:16Z</time>
  <course>163.18</course>
  <speed>12.967235634475067</speed>
  <fix>3d</fix>
</trkpt>
<trkpt lat="-35.3661517" lon="149.1634583">
  <ele>613.61</ele>
  <time>2026-08-27T18:28:16Z</time>
  <course>163.5</course>
  <speed>12.98</speed>
  <fix>3d</fix>
</trkpt>
<trkpt lat="-35.3661881" lon="149.1634713">
  <ele>613.59</ele>
  <time>2026-08-27T18:28:16Z</time>
  <course>163.18</course>
  <speed>12.960470670465636</speed>
  <fix>3d</fix>
</trkpt>
<trkpt lat="-35.3661741" lon="149.1634664">
  <ele>613.56</ele>
  <time>2026-08-27T18:28:16Z</time>
  <course>163.49</course>
  <speed>12.98</speed>
  <fix>3d</fix>
</trkpt>
<trkpt lat="-35.3662104" lon="149.1634794">
  <ele>613.54</ele>
  <time>2026-08-27T18:28:16Z</time>
  <course>163.18</course>
  <speed>12.960470670465636</speed>
  <fix>3d</fix>
</trkpt>
<trkpt lat="-35.3661965" lon="149.1634746">
  <ele>613.52</ele>
  <time>2026-08-27T18:28:16Z</time>
  <course>163.48</course>
  <speed>12.98</speed>
  <fix>3d</fix>
</trkpt>
<trkpt lat="-35.3662326" lon="149.1634875">
  <ele>613.49</ele>
  <time>2026-08-27T18:28:16Z</time>
  <course>163.14</course>
  <speed>12.950880278961735</speed>
  <fix>3d</fix>
</trkpt>
<trkpt lat="-35.3662188" lon="149.1634827">
  <ele>613.48</ele>
  <time>2026-08-27T18:28:16Z</time>
  <course>163.46</course>
  <speed>12.98</speed>
  <fix>3d</fix>
</trkpt>
<trkpt lat="-35.3662549" lon="149.1634956">
  <ele>613.45</ele>
  <time>2026-08-27T18:28:16Z</time>
  <course>163.09</course>
  <speed>12.950880278961735</speed>
  <fix>3d</fix>
</trkpt>
<trkpt lat="-35.3662412" lon="149.1634909">
  <ele>613.43</ele>
  <time>2026-08-27T18:28:16Z</time>
  <course>163.44</course>
  <speed>12.98</speed>
  <fix>3d</fix>
</trkpt>
<trkpt lat="-35.3662772" lon="149.1635038">
  <ele>613.41</ele>
  <time>2026-08-27T18:28:16Z</time>
  <course>163.02</course>
  <speed>12.953717613102427</speed>
  <fix>3d</fix>
</trkpt>
<trkpt lat="-35.3662635" lon="149.163499">
  <ele>613.39</ele>
  <time>2026-08-27T18:28:16Z</time>
  <course>163.42</course>
  <speed>12.98</speed>
  <fix>3d</fix>
</trkpt>
<trkpt lat="-35.3662995" lon="149.1635119">
  <ele>613.37</ele>
  <time>2026-08-27T18:28:16Z</time>
  <course>162.98</course>
  <speed>12.956562043999172</speed>
  <fix>3d</fix>
</trkpt>
<trkpt lat="-35.3662859" lon="149.1635071">
  <ele>613.35</ele>
  <time>2026-08-27T18:28:16Z</time>
  <course>163.4</course>
  <speed>12.98</speed>
  <fix>3d</fix>
</trkpt>
<trkpt lat="-35.3663217" lon="149.1635201">
  <ele>613.33</ele>
  <time>2026-08-27T18:28:16Z</time>
  <course>162.93</course>
  <speed>12.966148232995025</speed>
  <fix>3d</fix>
</trkpt>
<trkpt lat="-35.3663083" lon="149.1635154">
  <ele>613.3</ele>
  <time>2026-08-27T18:28:16Z</time>
  <course>163.37</course>
  <speed>12.99</speed>
  <fix>3d</fix>
</trkpt>
<trkpt lat="-35.366344" lon="149.1635283">
  <ele>613.28</ele>
  <time>2026-08-27T18:28:16Z</time>
  <course>162.9</course>
  <speed>12.968997648237893</speed>
  <fix>3d</fix>
</trkpt>
<trkpt lat="-35.3663307" lon="149.1635236">
  <ele>613.26</ele>
  <time>2026-08-27T18:28:16Z</time>
  <course>163.34</course>
  <speed>13.0</speed>
  <fix>3d</fix>
</trkpt>
<trkpt lat="-35.3663665" lon="149.1635365">
  <ele>613.24</ele>
  <time>2026-08-27T18:28:16Z</time>
  <course>162.86</course>
  <speed>12.981436746369795</speed>
  <fix>3d</fix>
</trkpt>
<trkpt lat="-35.366353" lon="149.1635317">
  <ele>613.22</ele>
  <time>2026-08-27T18:28:16Z</time>
  <course>163.32</course>
  <speed>13.01</speed>
  <fix>3d</fix>
</trkpt>
<trkpt lat="-35.366389" lon="149.1635448">
  <ele>613.2</ele>
  <time>2026-08-27T18:28:16Z</time>
  <course>162.81</course>
  <speed>12.991019975352206</speed>
  <fix>3d</fix>
</trkpt>
<trkpt lat="-35.3663753" lon="149.16354">
  <ele>613.17</ele>
  <time>2026-08-27T18:28:16Z</time>
  <course>163.3</course>
  <speed>13.01</speed>
  <fix>3d</fix>
</trkpt>
<trkpt lat="-35.3664114" lon="149.163553">
  <ele>613.15</ele>
  <time>2026-08-27T18:28:16Z</time>
  <course>162.8</course>
  <speed>12.99387932836072</speed>
  <fix>3d</fix>
</trkpt>
<trkpt lat="-35.3663978" lon="149.1635483">
  <ele>613.13</ele>
  <time>2026-08-27T18:28:16Z</time>
  <course>163.28</course>
  <speed>13.02</speed>
  <fix>3d</fix>
</trkpt>
<trkpt lat="-35.3664339" lon="149.1635613">
  <ele>613.12</ele>
  <time>2026-08-27T18:28:16Z</time>
  <course>162.85</course>
  <speed>12.99387932836072</speed>
  <fix>3d</fix>
</trkpt>
<trkpt lat="-35.3664203" lon="149.1635566">
  <ele>613.08</ele>
  <time>2026-08-27T18:28:16Z</time>
  <course>163.27</course>
  <speed>13.02</speed>
  <fix>3d</fix>
</trkpt>
<trkpt lat="-35.3664563" lon="149.1635696">
  <ele>613.08</ele>
  <time>2026-08-27T18:28:16Z</time>
  <course>162.89</course>
  <speed>12.99387932836072</speed>
  <fix>3d</fix>
</trkpt>
<trkpt lat="-35.3664426" lon="149.1635648">
  <ele>613.05</ele>
  <time>2026-08-27T18:28:16Z</time>
  <course>163.27</course>
  <speed>13.02</speed>
  <fix>3d</fix>
</trkpt>
<trkpt lat="-35.3664787" lon="149.1635778">
  <ele>613.03</ele>
  <time>2026-08-27T18:28:16Z</time>
  <course>162.93</course>
  <speed>12.99387932836072</speed>
  <fix>3d</fix>
</trkpt>
<trkpt lat="-35.3664651" lon="149.1635731">
  <ele>613.01</ele>
  <time>2026-08-27T18:28:16Z</time>
  <course>163.27</course>
  <speed>13.02</speed>
  <fix>3d</fix>
</trkpt>
<trkpt lat="-35.3665011" lon="149.1635861">
  <ele>612.99</ele>
  <time>2026-08-27T18:28:16Z</time>
  <course>162.99</course>
  <speed>12.991019975352206</speed>
  <fix>3d</fix>
</trkpt>
<trkpt lat="-35.3664875" lon="149.1635813">
  <ele>612.97</ele>
  <time>2026-08-27T18:28:16Z</time>
  <course>163.28</course>
  <speed>13.01</speed>
  <fix>3d</fix>
</trkpt>
<trkpt lat="-35.3665235" lon="149.1635943">
  <ele>612.95</ele>
  <time>2026-08-27T18:28:16Z</time>
  <course>163.0</course>
  <speed>12.981436746369795</speed>
  <fix>3d</fix>
</trkpt>
<trkpt lat="-35.3665098" lon="149.1635896">
  <ele>612.93</ele>
  <time>2026-08-27T18:28:16Z</time>
  <course>163.3</course>
  <speed>13.01</speed>
  <fix>3d</fix>
</trkpt>
<trkpt lat="-35.3665458" lon="149.1636025">
  <ele>612.91</ele>
  <time>2026-08-27T18:28:16Z</time>
  <course>163.02</course>
  <speed>12.978582357098944</speed>
  <fix>3d</fix>
</trkpt>
<trkpt lat="-35.3665323" lon="149.1635978">
  <ele>612.88</ele>
  <time>2026-08-27T18:28:16Z</time>
  <course>163.32</course>
  <speed>13.0</speed>
  <fix>3d</fix>
</trkpt>
<trkpt lat="-35.3665681" lon="149.1636107">
  <ele>612.88</ele>
  <time>2026-08-27T18:28:16Z</time>
  <course>163.07</course>
  <speed>12.978582357098944</speed>
  <fix>3d</fix>
</trkpt>
<trkpt lat="-35.3665546" lon="149.163606">
  <ele>612.83</ele>
  <time>2026-08-27T18:28:16Z</time>
  <course>163.34</course>
  <speed>13.0</speed>
  <fix>3d</fix>
</trkpt>
<trkpt lat="-35.3665905" lon="149.1636189">
  <ele>612.83</ele>
  <time>2026-08-27T18:28:16Z</time>
  <course>163.09</course>
  <speed>12.975735046616819</speed>
  <fix>3d</fix>
</trkpt>
<trkpt lat="-35.366577" lon="149.1636141">
  <ele>612.8</ele>
  <time>2026-08-27T18:28:16Z</time>
  <course>163.36</course>
  <speed>13.0</speed>
  <fix>3d</fix>
</trkpt>
<trkpt lat="-35.366613" lon="149.1636272">
  <ele>612.78</ele>
  <time>2026-08-27T18:28:16Z</time>
  <course>163.1</course>
  <speed>12.975735046616819</speed>
  <fix>3d</fix>
</trkpt>
<trkpt lat="-35.3665994" lon="149.1636224">
  <ele>612.75</ele>
  <time>2026-08-27T18:28:16Z</time>
  <course>163.37</course>
  <speed>12.99</speed>
  <fix>3d</fix>
</trkpt>
<trkpt lat="-35.3666354" lon="149.1636353">
  <ele>612.73</ele>
  <time>2026-08-27T18:28:16Z</time>
  <course>163.09</course>
  <speed>12.975735046616819</speed>
  <fix>3d</fix>
</trkpt>
<trkpt lat="-35.3666218" lon="149.1636305">
  <ele>612.7</ele>
  <time>2026-08-27T18:28:16Z</time>
  <course>163.39</course>
  <speed>12.99</speed>
  <fix>3d</fix>
</trkpt>
<trkpt lat="-35.3666578" lon="149.1636435">
  <ele>612.68</ele>
  <time>2026-08-27T18:28:16Z</time>
  <course>163.1</course>
  <speed>12.97289481958441</speed>
  <fix>3d</fix>
</trkpt>
<trkpt lat="-35.3666442" lon="149.1636388">
  <ele>612.65</ele>
  <time>2026-08-27T18:28:16Z</time>
  <course>163.4</course>
  <speed>12.99</speed>
  <fix>3d</fix>
</trkpt>
<trkpt lat="-35.3666803" lon="149.1636517">
  <ele>612.64</ele>
  <time>2026-08-27T18:28:16Z</time>
  <course>163.08</course>
  <speed>12.97289481958441</speed>
  <fix>3d</fix>
</trkpt>
<trkpt lat="-35.3666666" lon="149.1636469">
  <ele>612.61</ele>
  <time>2026-08-27T18:28:16Z</time>
  <course>163.4</course>
  <speed>12.99</speed>
  <fix>3d</fix>
</trkpt>
<trkpt lat="-35.3667027" lon="149.1636599">
  <ele>612.59</ele>
  <time>2026-08-27T18:28:16Z</time>
  <course>163.09</course>
  <speed>12.97289481958441</speed>
  <fix>3d</fix>
</trkpt>
<trkpt lat="-35.3666889" lon="149.1636551">
  <ele>612.57</ele>
  <time>2026-08-27T18:28:16Z</time>
  <course>163.41</course>
  <speed>12.99</speed>
  <fix>3d</fix>
</trkpt>
<trkpt lat="-35.366725" lon="149.1636681">
  <ele>612.55</ele>
  <time>2026-08-27T18:28:16Z</time>
  <course>163.13</course>
  <speed>12.96330590551654</speed>
  <fix>3d</fix>
</trkpt>
<trkpt lat="-35.3667113" lon="149.1636633">
  <ele>612.52</ele>
  <time>2026-08-27T18:28:16Z</time>
  <course>163.41</course>
  <speed>12.98</speed>
  <fix>3d</fix>
</trkpt>
<trkpt lat="-35.3667473" lon="149.1636762">
  <ele>612.51</ele>
  <time>2026-08-27T18:28:16Z</time>
  <course>163.14</course>
  <speed>12.953717613102427</speed>
  <fix>3d</fix>
</trkpt>
<trkpt lat="-35.3667337" lon="149.1636715">
  <ele>612.48</ele>
  <time>2026-08-27T18:28:16Z</time>
  <course>163.41</course>
  <speed>12.98</speed>
  <fix>3d</fix>
</trkpt>
<trkpt lat="-35.3667695" lon="149.1636843">
  <ele>612.46</ele>
  <time>2026-08-27T18:28:16Z</time>
  <course>163.12</course>
  <speed>12.953717613102427</speed>
  <fix>3d</fix>
</trkpt>
<trkpt lat="-35.366756" lon="149.1636796">
  <ele>612.44</ele>
  <time>2026-08-27T18:28:16Z</time>
  <course>163.41</course>
  <speed>12.97</speed>
  <fix>3d</fix>
</trkpt>
<trkpt lat="-35.3667917" lon="149.1636924">
  <ele>612.42</ele>
  <time>2026-08-27T18:28:16Z</time>
  <course>163.08</course>
  <speed>12.953717613102427</speed>
  <fix>3d</fix>
</trkpt>
<trkpt lat="-35.3667784" lon="149.1636878">
  <ele>612.4</ele>
  <time>2026-08-27T18:28:16Z</time>
  <course>163.41</course>
  <speed>12.97</speed>
  <fix>3d</fix>
</trkpt>
<trkpt lat="-35.366814" lon="149.1637006">
  <ele>612.37</ele>
  <time>2026-08-27T18:28:16Z</time>
  <course>162.99</course>
  <speed>12.953717613102427</speed>
  <fix>3d</fix>
</trkpt>
<trkpt lat="-35.3668007" lon="149.163696">
  <ele>612.36</ele>
  <time>2026-08-27T18:28:16Z</time>
  <course>163.4</course>
  <speed>12.98</speed>
  <fix>3d</fix>
</trkpt>
<trkpt lat="-35.3668364" lon="149.1637088">
  <ele>612.33</ele>
  <time>2026-08-27T18:28:16Z</time>
  <course>162.94</course>
  <speed>12.966148232995025</speed>
  <fix>3d</fix>
</trkpt>
<trkpt lat="-35.3668231" lon="149.1637041">
  <ele>612.31</ele>
  <time>2026-08-27T18:28:16Z</time>
  <course>163.39</course>
  <speed>12.99</speed>
  <fix>3d</fix>
</trkpt>
<trkpt lat="-35.3668588" lon="149.163717">
  <ele>612.29</ele>
  <time>2026-08-27T18:28:16Z</time>
  <course>162.89</course>
  <speed>12.975735046616819</speed>
  <fix>3d</fix>
</trkpt>
<trkpt lat="-35.3668454" lon="149.1637122">
  <ele>612.27</ele>
  <time>2026-08-27T18:28:16Z</time>
  <course>163.38</course>
  <speed>13.0</speed>
  <fix>3d</fix>
</trkpt>
<trkpt lat="-35.3668813" lon="149.1637252">
  <ele>612.25</ele>
  <time>2026-08-27T18:28:16Z</time>
  <course>162.89</course>
  <speed>12.988167692172748</speed>
  <fix>3d</fix>
</trkpt>
<trkpt lat="-35.3668678" lon="149.1637205">
  <ele>612.23</ele>
  <time>2026-08-27T18:28:16Z</time>
  <course>163.36</course>
  <speed>13.0</speed>
  <fix>3d</fix>
</trkpt>
<trkpt lat="-35.3669037" lon="149.1637334">
  <ele>612.21</ele>
  <time>2026-08-27T18:28:16Z</time>
  <course>162.93</course>
  <speed>12.988167692172748</speed>
  <fix>3d</fix>
</trkpt>
<trkpt lat="-35.3668902" lon="149.1637288">
  <ele>612.19</ele>
  <time>2026-08-27T18:28:16Z</time>
  <course>163.34</course>
  <speed>13.01</speed>
  <fix>3d</fix>
</trkpt>
<trkpt lat="-35.3669261" lon="149.1637417">
  <ele>612.16</ele>
  <time>2026-08-27T18:28:16Z</time>
  <course>162.94</course>
  <speed>12.991019975352206</speed>
  <fix>3d</fix>
</trkpt>
<trkpt lat="-35.3669127" lon="149.1637369">
  <ele>612.15</ele>
  <time>2026-08-27T18:28:16Z</time>
  <course>163.33</course>
  <speed>13.01</speed>
  <fix>3d</fix>
</trkpt>
<trkpt lat="-35.3669485" lon="149.1637499">
  <ele>612.13</ele>
  <time>2026-08-27T18:28:16Z</time>
  <course>162.96</course>
  <speed>12.991019975352206</speed>
  <fix>3d</fix>
</trkpt>
<trkpt lat="-35.366935" lon="149.1637452">
  <ele>612.11</ele>
  <time>2026-08-27T18:28:16Z</time>
  <course>163.32</course>
  <speed>13.01</speed>
  <fix>3d</fix>
</trkpt>
<trkpt lat="-35.3669708" lon="149.1637581">
  <ele>612.09</ele>
  <time>2026-08-27T18:28:16Z</time>
  <course>162.97</course>
  <speed>12.988167692172748</speed>
  <fix>3d</fix>
</trkpt>
<trkpt lat="-35.3669575" lon="149.1637534">
  <ele>612.07</ele>
  <time>2026-08-27T18:28:16Z</time>
  <course>163.32</course>
  <speed>13.01</speed>
  <fix>3d</fix>
</trkpt>
<trkpt lat="-35.3669932" lon="149.1637663">
  <ele>612.05</ele>
  <time>2026-08-27T18:28:16Z</time>
  <course>163.0</course>
  <speed>12.988167692172748</speed>
  <fix>3d</fix>
</trkpt>
<trkpt lat="-35.3669799" lon="149.1637617">
  <ele>612.03</ele>
  <time>2026-08-27T18:28:16Z</time>
  <course>163.33</course>
  <speed>13.01</speed>
  <fix>3d</fix>
</trkpt>
<trkpt lat="-35.3670156" lon="149.1637745">
  <ele>612.01</ele>
  <time>2026-08-27T18:28:16Z</time>
  <course>163.02</course>
  <speed>12.988167692172748</speed>
  <fix>3d</fix>
</trkpt>
<trkpt lat="-35.3670022" lon="149.1637698">
  <ele>611.98</ele>
  <time>2026-08-27T18:28:16Z</time>
  <course>163.33</course>
  <speed>13.01</speed>
  <fix>3d</fix>
</trkpt>
<trkpt lat="-35.3670379" lon="149.1637827">
  <ele>611.97</ele>
  <time>2026-08-27T18:28:16Z</time>
  <course>163.04</course>
  <speed>12.988167692172748</speed>
  <fix>3d</fix>
</trkpt>
<trkpt lat="-35.3670247" lon="149.1637781">
  <ele>611.94</ele>
  <time>2026-08-27T18:28:16Z</time>
  <course>163.34</course>
  <speed>13.01</speed>
  <fix>3d</fix>
</trkpt>
<trkpt lat="-35.3670603" lon="149.1637909">
  <ele>611.92</ele>
  <time>2026-08-27T18:28:16Z</time>
  <course>163.04</course>
  <speed>12.988167692172748</speed>
  <fix>3d</fix>
</trkpt>
<trkpt lat="-35.367047" lon="149.1637862">
  <ele>611.89</ele>
  <time>2026-08-27T18:28:16Z</time>
  <course>163.35</course>
  <speed>13.01</speed>
  <fix>3d</fix>
</trkpt>
<trkpt lat="-35.3670829" lon="149.1637992">
  <ele>611.88</ele>
  <time>2026-08-27T18:28:16Z</time>
  <course>163.04</course>
  <speed>12.988167692172748</speed>
  <fix>3d</fix>
</trkpt>
<trkpt lat="-35.3670694" lon="149.1637945">
  <ele>611.85</ele>
  <time>2026-08-27T18:28:16Z</time>
  <course>163.36</course>
  <speed>13.01</speed>
  <fix>3d</fix>
</trkpt>
<trkpt lat="-35.3671054" lon="149.1638074">
  <ele>611.83</ele>
  <time>2026-08-27T18:28:16Z</time>
  <course>163.06</course>
  <speed>12.988167692172748</speed>
  <fix>3d</fix>
</trkpt>
<trkpt lat="-35.3670918" lon="149.1638027">
  <ele>611.8</ele>
  <time>2026-08-27T18:28:16Z</time>
  <course>163.37</course>
  <speed>13.01</speed>
  <fix>3d</fix>
</trkpt>
<trkpt lat="-35.3671279" lon="149.1638157">
  <ele>611.78</ele>
  <time>2026-08-27T18:28:16Z</time>
  <course>163.07</course>
  <speed>12.98532248348111</speed>
  <fix>3d</fix>
</trkpt>
<trkpt lat="-35.3671142" lon="149.1638108">
  <ele>611.76</ele>
  <time>2026-08-27T18:28:16Z</time>
  <course>163.38</course>
  <speed>13.0</speed>
  <fix>3d</fix>
</trkpt>
<trkpt lat="-35.3671504" lon="149.1638239">
  <ele>611.75</ele>
  <time>2026-08-27T18:28:16Z</time>
  <course>163.11</course>
  <speed>12.98532248348111</speed>
  <fix>3d</fix>
</trkpt>
<trkpt lat="-35.3671367" lon="149.1638191">
  <ele>611.72</ele>
  <time>2026-08-27T18:28:16Z</time>
  <course>163.38</course>
  <speed>13.0</speed>
  <fix>3d</fix>
</trkpt>
<trkpt lat="-35.3671728" lon="149.1638321">
  <ele>611.71</ele>
  <time>2026-08-27T18:28:16Z</time>
  <course>163.19</course>
  <speed>12.975735046616819</speed>
  <fix>3d</fix>
</trkpt>
<trkpt lat="-35.367159" lon="149.1638272">
  <ele>611.68</ele>
  <time>2026-08-27T18:28:16Z</time>
  <course>163.38</course>
  <speed>12.99</speed>
  <fix>3d</fix>
</trkpt>
<trkpt lat="-35.3671952" lon="149.1638403">
  <ele>611.66</ele>
  <time>2026-08-27T18:28:16Z</time>
  <course>163.26</course>
  <speed>12.953717613102427</speed>
  <fix>3d</fix>
</trkpt>
<trkpt lat="-35.3671814" lon="149.1638355">
  <ele>611.63</ele>
  <time>2026-08-27T18:28:16Z</time>
  <course>163.39</course>
  <speed>12.97</speed>
  <fix>3d</fix>
</trkpt>
<trkpt lat="-35.3672175" lon="149.1638484">
  <ele>611.62</ele>
  <time>2026-08-27T18:28:16Z</time>
  <course>163.27</course>
  <speed>12.941290507518948</speed>
  <fix>3d</fix>
</trkpt>
<trkpt lat="-35.3672037" lon="149.1638436">
  <ele>611.58</ele>
  <time>2026-08-27T18:28:16Z</time>
  <course>163.41</course>
  <speed>12.96</speed>
  <fix>3d</fix>
</trkpt>
<trkpt lat="-35.3672399" lon="149.1638566">
  <ele>611.58</ele>
  <time>2026-08-27T18:28:16Z</time>
  <course>163.25</course>
  <speed>12.941290507518948</speed>
  <fix>3d</fix>
</trkpt>
<trkpt lat="-35.367226" lon="149.1638517">
  <ele>611.55</ele>
  <time>2026-08-27T18:28:16Z</time>
  <course>163.42</course>
  <speed>12.95</speed>
  <fix>3d</fix>
</trkpt>
<trkpt lat="-35.3672621" lon="149.1638647">
  <ele>611.54</ele>
  <time>2026-08-27T18:28:16Z</time>
  <course>163.23</course>
  <speed>12.93170135751673</speed>
  <fix>3d</fix>
</trkpt>
<trkpt lat="-35.3672483" lon="149.1638599">
  <ele>611.5</ele>
  <time>2026-08-27T18:28:16Z</time>
  <course>163.43</course>
  <speed>12.94</speed>
  <fix>3d</fix>
</trkpt>
<trkpt lat="-35.3672844" lon="149.1638728">
  <ele>611.49</ele>
  <time>2026-08-27T18:28:16Z</time>
  <course>163.21</course>
  <speed>12.93170135751673</speed>
  <fix>3d</fix>
</trkpt>
<trkpt lat="-35.3672706" lon="149.163868">
  <ele>611.45</ele>
  <time>2026-08-27T18:28:16Z</time>
  <course>163.42</course>
  <speed>12.94</speed>
  <fix>3d</fix>
</trkpt>
<trkpt lat="-35.3673068" lon="149.163881">
  <ele>611.44</ele>
  <time>2026-08-27T18:28:16Z</time>
  <course>163.17</course>
  <speed>12.93170135751673</speed>
  <fix>3d</fix>
</trkpt>
<trkpt lat="-35.3672928" lon="149.1638761">
  <ele>611.41</ele>
  <time>2026-08-27T18:28:16Z</time>
  <course>163.42</course>
  <speed>12.93</speed>
  <fix>3d</fix>
</trkpt>
<trkpt lat="-35.3673292" lon="149.1638892">
  <ele>611.39</ele>
  <time>2026-08-27T18:28:16Z</time>
  <course>163.12</course>
  <speed>12.934542898765306</speed>
  <fix>3d</fix>
</trkpt>
<trkpt lat="-35.3673151" lon="149.1638843">
  <ele>611.36</ele>
  <time>2026-08-27T18:28:16Z</time>
  <course>163.41</course>
  <speed>12.93</speed>
  <fix>3d</fix>
</trkpt>
<trkpt lat="-35.3673515" lon="149.1638973">
  <ele>611.34</ele>
  <time>2026-08-27T18:28:16Z</time>
  <course>163.04</course>
  <speed>12.934542898765306</speed>
  <fix>3d</fix>
</trkpt>
<trkpt lat="-35.3673375" lon="149.1638924">
  <ele>611.31</ele>
  <time>2026-08-27T18:28:16Z</time>
  <course>163.39</course>
  <speed>12.94</speed>
  <fix>3d</fix>
</trkpt>
<trkpt lat="-35.3673737" lon="149.1639055">
  <ele>611.3</ele>
  <time>2026-08-27T18:28:16Z</time>
  <course>163.04</course>
  <speed>12.934542898765306</speed>
  <fix>3d</fix>
</trkpt>
<trkpt lat="-35.3673598" lon="149.1639006">
  <ele>611.27</ele>
  <time>2026-08-27T18:28:16Z</time>
  <course>163.37</course>
  <speed>12.94</speed>
  <fix>3d</fix>
</trkpt>
<trkpt lat="-35.3673959" lon="149.1639136">
  <ele>611.26</ele>
  <time>2026-08-27T18:28:16Z</time>
  <course>162.99</course>
  <speed>12.937391545439134</speed>
  <fix>3d</fix>
</trkpt>
<trkpt lat="-35.367382" lon="149.1639088">
  <ele>611.23</ele>
  <time>2026-08-27T18:28:16Z</time>
  <course>163.35</course>
  <speed>12.94</speed>
  <fix>3d</fix>
</trkpt>
<trkpt lat="-35.3674181" lon="149.1639218">
  <ele>611.22</ele>
  <time>2026-08-27T18:28:16Z</time>
  <course>162.91</course>
  <speed>12.946976481016716</speed>
  <fix>3d</fix>
</trkpt>
<trkpt lat="-35.3674043" lon="149.1639169">
  <ele>611.18</ele>
  <time>2026-08-27T18:28:16Z</time>
  <course>163.33</course>
  <speed>12.95</speed>
  <fix>3d</fix>
</trkpt>
<trkpt lat="-35.3674403" lon="149.1639299">
  <ele>611.18</ele>
  <time>2026-08-27T18:28:16Z</time>
  <course>162.85</course>
  <speed>12.949830114715791</speed>
  <fix>3d</fix>
</trkpt>
<trkpt lat="-35.3674266" lon="149.1639252">
  <ele>611.14</ele>
  <time>2026-08-27T18:28:16Z</time>
  <course>163.32</course>
  <speed>12.96</speed>
  <fix>3d</fix>
</trkpt>
<trkpt lat="-35.3674626" lon="149.1639381">
  <ele>611.14</ele>
  <time>2026-08-27T18:28:16Z</time>
  <course>162.8</course>
  <speed>12.962272177361498</speed>
  <fix>3d</fix>
</trkpt>
<trkpt lat="-35.3674489" lon="149.1639334">
  <ele>611.1</ele>
  <time>2026-08-27T18:28:16Z</time>
  <course>163.29</course>
  <speed>12.98</speed>
  <fix>3d</fix>
</trkpt>
<trkpt lat="-35.3674847" lon="149.1639463">
  <ele>611.09</ele>
  <time>2026-08-27T18:28:16Z</time>
  <course>162.75</course>
  <speed>12.971854146574422</speed>
  <fix>3d</fix>
</trkpt>
<trkpt lat="-35.3674713" lon="149.1639415">
  <ele>611.05</ele>
  <time>2026-08-27T18:28:16Z</time>
  <course>163.28</course>
  <speed>12.99</speed>
  <fix>3d</fix>
</trkpt>
<trkpt lat="-35.3675071" lon="149.1639545">
  <ele>611.04</ele>
  <time>2026-08-27T18:28:16Z</time>
  <course>162.72</course>
  <speed>12.99387932836072</speed>
  <fix>3d</fix>
</trkpt>
<trkpt lat="-35.3674937" lon="149.1639498">
  <ele>611.01</ele>
  <time>2026-08-27T18:28:16Z</time>
  <course>163.27</course>
  <speed>13.01</speed>
  <fix>3d</fix>
</trkpt>
<trkpt lat="-35.3675294" lon="149.1639628">
  <ele>611.0</ele>
  <time>2026-08-27T18:28:16Z</time>
  <course>162.67</course>
  <speed>13.003461077728497</speed>
  <fix>3d</fix>
</trkpt>
<trkpt lat="-35.3675161" lon="149.1639581">
  <ele>610.96</ele>
  <time>2026-08-27T18:28:16Z</time>
  <course>163.26</course>
  <speed>13.03</speed>
  <fix>3d</fix>
</trkpt>
<trkpt lat="-35.367552" lon="149.1639711">
  <ele>610.96</ele>
  <time>2026-08-27T18:28:16Z</time>
  <course>162.64</course>
  <speed>13.025486555211671</speed>
  <fix>3d</fix>
</trkpt>
<trkpt lat="-35.3675385" lon="149.1639663">
  <ele>610.92</ele>
  <time>2026-08-27T18:28:16Z</time>
  <course>163.26</course>
  <speed>13.05</speed>
  <fix>3d</fix>
</trkpt>
<trkpt lat="-35.3675745" lon="149.1639794">
  <ele>610.92</ele>
  <time>2026-08-27T18:28:16Z</time>
  <course>162.63</course>
  <speed>13.0350680857447</speed>
  <fix>3d</fix>
</trkpt>
<trkpt lat="-35.3675609" lon="149.1639746">
  <ele>610.88</ele>
  <time>2026-08-27T18:28:16Z</time>
  <course>163.26</course>
  <speed>13.06</speed>
  <fix>3d</fix>
</trkpt>
<trkpt lat="-35.3675971" lon="149.1639877">
  <ele>610.89</ele>
  <time>2026-08-27T18:28:16Z</time>
  <course>162.78</course>
  <speed>13.025486555211671</speed>
  <fix>3d</fix>
</trkpt>
<trkpt lat="-35.3675834" lon="149.1639829">
  <ele>610.83</ele>
  <time>2026-08-27T18:28:16Z</time>
  <course>163.26</course>
  <speed>13.06</speed>
  <fix>3d</fix>
</trkpt>
<trkpt lat="-35.3676195" lon="149.163996">
  <ele>610.87</ele>
  <time>2026-08-27T18:28:16Z</time>
  <course>163.17</course>
  <speed>12.949830114715791</speed>
  <fix>3d</fix>
</trkpt>
<trkpt lat="-35.3676059" lon="149.1639912">
  <ele>610.81</ele>
  <time>2026-08-27T18:28:16Z</time>
  <course>163.28</course>
  <speed>13.03</speed>
  <fix>3d</fix>
</trkpt>
<trkpt lat="-35.3676418" lon="149.1640042">
  <ele>610.86</ele>
  <time>2026-08-27T18:28:16Z</time>
  <course>163.83</course>
  <speed>12.820553810190884</speed>
  <fix>3d</fix>
</trkpt>
<trkpt lat="-35.3676283" lon="149.1639995">
  <ele>610.79</ele>
  <time>2026-08-27T18:28:16Z</time>
  <course>163.31</course>
  <speed>12.94</speed>
  <fix>3d</fix>
</trkpt>
<trkpt lat="-35.3676638" lon="149.1640122">
  <ele>610.86</ele>
  <time>2026-08-27T18:28:16Z</time>
  <course>164.65</course>
  <speed>12.628083781793658</speed>
  <fix>3d</fix>
</trkpt>
<trkpt lat="-35.3676504" lon="149.1640076">
  <ele>610.79</ele>
  <time>2026-08-27T18:28:16Z</time>
  <course>163.38</course>
  <speed>12.79</speed>
  <fix>3d</fix>
</trkpt>
<trkpt lat="-35.3676854" lon="149.1640201">
  <ele>610.86</ele>
  <time>2026-08-27T18:28:16Z</time>
  <course>165.49</course>
  <speed>12.379208375336445</speed>
  <fix>3d</fix>
</trkpt>
<trkpt lat="-35.3676723" lon="149.1640155">
  <ele>610.79</ele>
  <time>2026-08-27T18:28:16Z</time>
  <course>163.5</course>
  <speed>12.58</speed>
  <fix>3d</fix>
</trkpt>
<trkpt lat="-35.3677066" lon="149.1640277">
  <ele>610.86</ele>
  <time>2026-08-27T18:28:16Z</time>
  <course>166.28</course>
  <speed>12.08642627082133</speed>
  <fix>3d</fix>
</trkpt>
<trkpt lat="-35.3676938" lon="149.1640233">
  <ele>610.79</ele>
  <time>2026-08-27T18:28:16Z</time>
  <course>163.67</course>
  <speed>12.32</speed>
  <fix>3d</fix>
</trkpt>
<trkpt lat="-35.3677271" lon="149.164035">
  <ele>610.84</ele>
  <time>2026-08-27T18:28:16Z</time>
  <course>167.0</course>
  <speed>11.742955335008306</speed>
  <fix>3d</fix>
</trkpt>
<trkpt lat="-35.3677148" lon="149.1640307">
  <ele>610.79</ele>
  <time>2026-08-27T18:28:16Z</time>
  <course>163.87</course>
  <speed>12.01</speed>
  <fix>3d</fix>
</trkpt>
<trkpt lat="-35.3677472" lon="149.164042">
  <ele>610.83</ele>
  <time>2026-08-27T18:28:16Z</time>
  <course>167.62</course>
  <speed>11.365298060323802</speed>
  <fix>3d</fix>
</trkpt>
<trkpt lat="-35.3677352" lon="149.164038">
  <ele>610.78</ele>
  <time>2026-08-27T18:28:16Z</time>
  <course>164.08</course>
  <speed>11.66</speed>
  <fix>3d</fix>
</trkpt>
<trkpt lat="-35.3677667" lon="149.1640487">
  <ele>610.8</ele>
  <time>2026-08-27T18:28:16Z</time>
  <course>168.15</course>
  <speed>10.932726101023476</speed>
  <fix>3d</fix>
</trkpt>
<trkpt lat="-35.367755" lon="149.1640449">
  <ele>610.76</ele>
  <time>2026-08-27T18:28:16Z</time>
  <course>164.28</course>
  <speed>11.26</speed>
  <fix>3d</fix>
</trkpt>
<trkpt lat="-35.3677854" lon="149.1640551">
  <ele>610.77</ele>
  <time>2026-08-27T18:28:16Z</time>
  <course>168.61</course>
  <speed>10.458991347161541</speed>
  <fix>3d</fix>
</trkpt>
<trkpt lat="-35.3677742" lon="149.1640514">
  <ele>610.73</ele>
  <time>2026-08-27T18:28:16Z</time>
  <course>164.45</course>
  <speed>10.82</speed>
  <fix>3d</fix>
</trkpt>
<trkpt lat="-35.3678032" lon="149.1640611">
  <ele>610.74</ele>
  <time>2026-08-27T18:28:16Z</time>
  <course>168.97</course>
  <speed>9.946743185585923</speed>
  <fix>3d</fix>
</trkpt>
<trkpt lat="-35.3677926" lon="149.1640577">
  <ele>610.69</ele>
  <time>2026-08-27T18:28:16Z</time>
  <course>164.6</course>
  <speed>10.33</speed>
  <fix>3d</fix>
</trkpt>
<trkpt lat="-35.36782" lon="149.1640668">
  <ele>610.69</ele>
  <time>2026-08-27T18:28:16Z</time>
  <course>169.22</course>
  <speed>9.393295481352645</speed>
  <fix>3d</fix>
</trkpt>
<trkpt lat="-35.36781" lon="149.1640635">
  <ele>610.66</ele>
  <time>2026-08-27T18:28:16Z</time>
  <course>164.7</course>
  <speed>9.8</speed>
  <fix>3d</fix>
</trkpt>
<trkpt lat="-35.3678359" lon="149.1640722">
  <ele>610.64</ele>
  <time>2026-08-27T18:28:16Z</time>
  <course>169.37</course>
  <speed>8.823208033362922</speed>
  <fix>3d</fix>
</trkpt>
<trkpt lat="-35.3678265" lon="149.1640691">
  <ele>610.61</ele>
  <time>2026-08-27T18:28:16Z</time>
  <course>164.76</course>
  <speed>9.24</speed>
  <fix>3d</fix>
</trkpt>
<trkpt lat="-35.3678508" lon="149.1640772">
  <ele>610.58</ele>
  <time>2026-08-27T18:28:16Z</time>
  <course>169.3</course>
  <speed>8.233832643429182</speed>
  <fix>3d</fix>
</trkpt>
<trkpt lat="-35.3678421" lon="149.1640742">
  <ele>610.56</ele>
  <time>2026-08-27T18:28:16Z</time>
  <course>164.78</course>
  <speed>8.65</speed>
  <fix>3d</fix>
</trkpt>
<trkpt lat="-35.3678647" lon="149.1640818">
  <ele>610.52</ele>
  <time>2026-08-27T18:28:16Z</time>
  <course>169.06</course>
  <speed>7.666400720025011</speed>
  <fix>3d</fix>
</trkpt>
<trkpt lat="-35.3678565" lon="149.164079">
  <ele>610.51</ele>
  <time>2026-08-27T18:28:16Z</time>
  <course>164.75</course>
  <speed>8.07</speed>
  <fix>3d</fix>
</trkpt>
<trkpt lat="-35.3678776" lon="149.1640862">
  <ele>610.44</ele>
  <time>2026-08-27T18:28:16Z</time>
  <course>168.65</course>
  <speed>7.111300865523832</speed>
  <fix>3d</fix>
</trkpt>
<trkpt lat="-35.36787" lon="149.1640835">
  <ele>610.44</ele>
  <time>2026-08-27T18:28:16Z</time>
  <course>164.65</course>
  <speed>7.5</speed>
  <fix>3d</fix>
</trkpt>
<trkpt lat="-35.3678895" lon="149.1640903">
  <ele>610.38</ele>
  <time>2026-08-27T18:28:16Z</time>
  <course>168.11</course>
  <speed>6.580949779477123</speed>
  <fix>3d</fix>
</trkpt>
<trkpt lat="-35.3678825" lon="149.1640878">
  <ele>610.38</ele>
  <time>2026-08-27T18:28:16Z</time>
  <course>164.46</course>
  <speed>6.94</speed>
  <fix>3d</fix>
</trkpt>
<trkpt lat="-35.3679005" lon="149.1640941">
  <ele>610.32</ele>
  <time>2026-08-27T18:28:16Z</time>
  <course>167.43</course>
  <speed>6.053602233381378</speed>
  <fix>3d</fix>
</trkpt>
<trkpt lat="-35.3678941" lon="149.1640918">
  <ele>610.31</ele>
  <time>2026-08-27T18:28:16Z</time>
  <course>164.15</course>
  <speed>6.4</speed>
  <fix>3d</fix>
</trkpt>
<trkpt lat="-35.3679106" lon="149.1640977">
  <ele>610.26</ele>
  <time>2026-08-27T18:28:16Z</time>
  <course>166.57</course>
  <speed>5.548711562155669</speed>
  <fix>3d</fix>
</trkpt>
<trkpt lat="-35.3679046" lon="149.1640956">
  <ele>610.26</ele>
  <time>2026-08-27T18:28:16Z</time>
  <course>163.7</course>
  <speed>5.88</speed>
  <fix>3d</fix>
</trkpt>
<trkpt lat="-35.3679197" lon="149.1641012">
  <ele>610.22</ele>
  <time>2026-08-27T18:28:16Z</time>
  <course>165.47</course>
  <speed>5.0505148252430665</speed>
  <fix>3d</fix>
</trkpt>
<trkpt lat="-35.3679144" lon="149.164099">
  <ele>610.2</ele>
  <time>2026-08-27T18:28:16Z</time>
  <course>163.05</course>
  <speed>5.37</speed>
  <fix>3d</fix>
</trkpt>
<trkpt lat="-35.367928" lon="149.1641045">
  <ele>610.19</ele>
  <time>2026-08-27T18:28:16Z</time>
  <course>163.95</course>
  <speed>4.5541190146942805</speed>
  <fix>3d</fix>
</trkpt>
<trkpt lat="-35.3679232" lon="149.1641025">
  <ele>610.17</ele>
  <time>2026-08-27T18:28:16Z</time>
  <course>161.99</course>
  <speed>4.87</speed>
  <fix>3d</fix>
</trkpt>
<trkpt lat="-35.3679353" lon="149.1641078">
  <ele>610.16</ele>
  <time>2026-08-27T18:28:16Z</time>
  <course>161.62</course>
  <speed>4.0574499380768705</speed>
  <fix>3d</fix>
</trkpt>
<trkpt lat="-35.3679311" lon="149.1641058">
  <ele>610.14</ele>
  <time>2026-08-27T18:28:16Z</time>
  <course>160.23</course>
  <speed>4.37</speed>
  <fix>3d</fix>
</trkpt>
<trkpt lat="-35.3679416" lon="149.1641111">
  <ele>610.15</ele>
  <time>2026-08-27T18:28:17Z</time>
  <course>158.15</course>
  <speed>3.565010518918563</speed>
  <fix>3d</fix>
</trkpt>
<trkpt lat="-35.3679379" lon="149.164109">
  <ele>610.12</ele>
  <time>2026-08-27T18:28:17Z</time>
  <course>157.42</course>
  <speed>3.87</speed>
  <fix>3d</fix>
</trkpt>
<trkpt lat="-35.3679469" lon="149.1641145">
  <ele>610.14</ele>
  <time>2026-08-27T18:28:17Z</time>
  <course>153.11</course>
  <speed>3.073271872125862</speed>
  <fix>3d</fix>
</trkpt>
<trkpt lat="-35.3679439" lon="149.1641124">
  <ele>610.1</ele>
  <time>2026-08-27T18:28:17Z</time>
  <course>153.07</course>
  <speed>3.37</speed>
  <fix>3d</fix>
</trkpt>
<trkpt lat="-35.3679511" lon="149.1641181">
  <ele>610.13</ele>
  <time>2026-08-27T18:28:17Z</time>
  <course>145.95</course>
  <speed>2.6273180241455356</speed>
  <fix>3d</fix>
</trkpt>
<trkpt lat="-35.3679487" lon="149.1641158">
  <ele>610.09</ele>
  <time>2026-08-27T18:28:17Z</time>
  <course>146.49</course>
  <speed>2.89</speed>
  <fix>3d</fix>
</trkpt>
<trkpt lat="-35.3679542" lon="149.1641218">
  <ele>610.12</ele>
  <time>2026-08-27T18:28:17Z</time>
  <course>135.96</course>
  <speed>2.2522877258467666</speed>
  <fix>3d</fix>
</trkpt>
<trkpt lat="-35.3679525" lon="149.1641194">
  <ele>610.08</ele>
  <time>2026-08-27T18:28:17Z</time>
  <course>136.64</course>
  <speed>2.46</speed>
  <fix>3d</fix>
</trkpt>
<trkpt lat="-35.3679561" lon="149.1641259">
  <ele>610.1</ele>
  <time>2026-08-27T18:28:17Z</time>
  <course>123.76</course>
  <speed>2.0505608988762076</speed>
  <fix>3d</fix>
</trkpt>
<trkpt lat="-35.3679552" lon="149.1641233">
  <ele>610.07</ele>
  <time>2026-08-27T18:28:17Z</time>
  <course>122.27</course>
  <speed>2.13</speed>
  <fix>3d</fix>
</trkpt>
<trkpt lat="-35.3679568" lon="149.1641302">
  <ele>610.09</ele>
  <time>2026-08-27T18:28:17Z</time>
  <course>112.18</course>
  <speed>2.081177551291576</speed>
  <fix>3d</fix>
</trkpt>
<trkpt lat="-35.3679566" lon="149.1641274">
  <ele>610.05</ele>
  <time>2026-08-27T18:28:17Z</time>
  <course>103.8</course>
  <speed>2.0</speed>
  <fix>3d</fix>
</trkpt>
<trkpt lat="-35.3679564" lon="149.1641349">
  <ele>610.07</ele>
  <time>2026-08-27T18:28:17Z</time>
  <course>100.8</course>
  <speed>2.3430749027719964</speed>
  <fix>3d</fix>
</trkpt>
<trkpt lat="-35.3679569" lon="149.1641319">
  <ele>610.03</ele>
  <time>2026-08-27T18:28:17Z</time>
  <course>85.52</course>
  <speed>2.13</speed>
  <fix>3d</fix>
</trkpt>
<trkpt lat="-35.367955" lon="149.1641402">
  <ele>610.05</ele>
  <time>2026-08-27T18:28:17Z</time>
  <course>89.17</course>
  <speed>2.770884335370208</speed>
  <fix>3d</fix>
</trkpt>
<trkpt lat="-35.3679561" lon="149.1641368">
  <ele>610.01</ele>
  <time>2026-08-27T18:28:17Z</time>
  <course>71.6</course>
  <speed>2.47</speed>
  <fix>3d</fix>
</trkpt>
<trkpt lat="-35.3679524" lon="149.1641461">
  <ele>610.03</ele>
  <time>2026-08-27T18:28:17Z</time>
  <course>77.17</course>
  <speed>3.2876283244916844</speed>
  <fix>3d</fix>
</trkpt>
<trkpt lat="-35.3679542" lon="149.1641422">
  <ele>609.99</ele>
  <time>2026-08-27T18:28:17Z</time>
  <course>62.4</course>
  <speed>2.94</speed>
  <fix>3d</fix>
</trkpt>
<trkpt lat="-35.3679489" lon="149.1641526">
  <ele>610.02</ele>
  <time>2026-08-27T18:28:17Z</time>
  <course>64.54</course>
  <speed>3.8570973542289546</speed>
  <fix>3d</fix>
</trkpt>
<trkpt lat="-35.3679512" lon="149.1641483">
  <ele>609.96</ele>
  <time>2026-08-27T18:28:17Z</time>
  <course>56.53</course>
  <speed>3.48</speed>
  <fix>3d</fix>
</trkpt>
<trkpt lat="-35.3679444" lon="149.1641598">
  <ele>610.0</ele>
  <time>2026-08-27T18:28:17Z</time>
  <course>51.63</course>
  <speed>4.418155723828665</speed>
  <fix>3d</fix>
</trkpt>
<trkpt lat="-35.3679473" lon="149.1641551">
  <ele>609.94</ele>
  <time>2026-08-27T18:28:17Z</time>
  <course>52.71</course>
  <speed>4.06</speed>
  <fix>3d</fix>
</trkpt>
<trkpt lat="-35.3679389" lon="149.1641677">
  <ele>610.0</ele>
  <time>2026-08-27T18:28:17Z</time>
  <course>46.26</course>
  <speed>4.947261868953371</speed>
  <fix>3d</fix>
</trkpt>
<trkpt lat="-35.3679424" lon="149.1641626">
  <ele>609.93</ele>
  <time>2026-08-27T18:28:17Z</time>
  <course>49.88</course>
  <speed>4.62</speed>
  <fix>3d</fix>
</trkpt>
<trkpt lat="-35.3679327" lon="149.1641762">
  <ele>610.0</ele>
  <time>2026-08-27T18:28:17Z</time>
  <course>44.98</course>
  <speed>5.437940786731684</speed>
  <fix>3d</fix>
</trkpt>
<trkpt lat="-35.3679366" lon="149.1641707">
  <ele>609.93</ele>
  <time>2026-08-27T18:28:17Z</time>
  <course>48.1</course>
  <speed>5.15</speed>
  <fix>3d</fix>
</trkpt>
<trkpt lat="-35.3679258" lon="149.1641854">
  <ele>610.01</ele>
  <time>2026-08-27T18:28:17Z</time>
  <course>44.5</course>
  <speed>5.890619661801295</speed>
  <fix>3d</fix>
</trkpt>
<trkpt lat="-35.36793" lon="149.1641795">
  <ele>609.93</ele>
  <time>2026-08-27T18:28:17Z</time>
  <course>47.52</course>
  <speed>5.64</speed>
  <fix>3d</fix>
</trkpt>
<trkpt lat="-35.3679184" lon="149.1641954">
  <ele>610.02</ele>
  <time>2026-08-27T18:28:17Z</time>
  <course>44.56</course>
  <speed>6.324752959602454</speed>
  <fix>3d</fix>
</trkpt>
<trkpt lat="-35.367923" lon="149.164189">
  <ele>609.94</ele>
  <time>2026-08-27T18:28:17Z</time>
  <course>47.66</course>
  <speed>6.09</speed>
  <fix>3d</fix>
</trkpt>
<trkpt lat="-35.3679106" lon="149.1642062">
  <ele>610.03</ele>
  <time>2026-08-27T18:28:17Z</time>
  <course>45.0</course>
  <speed>6.748807302034931</speed>
  <fix>3d</fix>
</trkpt>
<trkpt lat="-35.3679154" lon="149.1641993">
  <ele>609.95</ele>
  <time>2026-08-27T18:28:17Z</time>
  <course>48.24</course>
  <speed>6.53</speed>
  <fix>3d</fix>
</trkpt>
<trkpt lat="-35.3679025" lon="149.1642178">
  <ele>610.04</ele>
  <time>2026-08-27T18:28:17Z</time>
  <course>45.81</course>
  <speed>7.168835330791188</speed>
  <fix>3d</fix>
</trkpt>
<trkpt lat="-35.3679074" lon="149.1642105">
  <ele>609.96</ele>
  <time>2026-08-27T18:28:17Z</time>
  <course>49.1</course>
  <speed>6.96</speed>
  <fix>3d</fix>
</trkpt>
<trkpt lat="-35.3678939" lon="149.1642305">
  <ele>610.04</ele>
  <time>2026-08-27T18:28:17Z</time>
  <course>46.64</course>
  <speed>7.605918747922568</speed>
  <fix>3d</fix>
</trkpt>
<trkpt lat="-35.367899" lon="149.1642225">
  <ele>609.97</ele>
  <time>2026-08-27T18:28:17Z</time>
  <course>50.07</course>
  <speed>7.39</speed>
  <fix>3d</fix>
</trkpt>
<trkpt lat="-35.367885" lon="149.164244">
  <ele>610.04</ele>
  <time>2026-08-27T18:28:17Z</time>
  <course>47.28</course>
  <speed>8.058684756211772</speed>
  <fix>3d</fix>
</trkpt>
<trkpt lat="-35.3678903" lon="149.1642355">
  <ele>609.97</ele>
  <time>2026-08-27T18:28:17Z</time>
  <course>50.99</course>
  <speed>7.83</speed>
  <fix>3d</fix>
</trkpt>
<trkpt lat="-35.3678757" lon="149.1642585">
  <ele>610.04</ele>
  <time>2026-08-27T18:28:17Z</time>
  <course>47.65</course>
  <speed>8.525021994106526</speed>
  <fix>3d</fix>
</trkpt>
<trkpt lat="-35.3678812" lon="149.1642494">
  <ele>609.97</ele>
  <time>2026-08-27T18:28:17Z</time>
  <course>51.76</course>
  <speed>8.28</speed>
  <fix>3d</fix>
</trkpt>
<trkpt lat="-35.367866" lon="149.1642738">
  <ele>610.03</ele>
  <time>2026-08-27T18:28:17Z</time>
  <course>47.76</course>
  <speed>9.002410788227785</speed>
  <fix>3d</fix>
</trkpt>
<trkpt lat="-35.3678719" lon="149.1642642">
  <ele>609.96</ele>
  <time>2026-08-27T18:28:17Z</time>
  <course>52.3</course>
  <speed>8.75</speed>
  <fix>3d</fix>
</trkpt>
<trkpt lat="-35.3678559" lon="149.1642899">
  <ele>610.02</ele>
  <time>2026-08-27T18:28:17Z</time>
  <course>47.63</course>
  <speed>9.476243981662778</speed>
  <fix>3d</fix>
</trkpt>
<trkpt lat="-35.367862" lon="149.16428">
  <ele>609.95</ele>
  <time>2026-08-27T18:28:17Z</time>
  <course>52.63</course>
  <speed>9.23</speed>
  <fix>3d</fix>
</trkpt>
<trkpt lat="-35.3678453" lon="149.164307">
  <ele>610.02</ele>
  <time>2026-08-27T18:28:17Z</time>
  <course>47.26</course>
  <speed>9.962218628397993</speed>
  <fix>3d</fix>
</trkpt>
<trkpt lat="-35.3678517" lon="149.1642966">
  <ele>609.94</ele>
  <time>2026-08-27T18:28:17Z</time>
  <course>52.78</course>
  <speed>9.71</speed>
  <fix>3d</fix>
</trkpt>
<trkpt lat="-35.3678342" lon="149.1643249">
  <ele>610.01</ele>
  <time>2026-08-27T18:28:17Z</time>
  <course>46.73</course>
  <speed>10.438337990312442</speed>
  <fix>3d</fix>
</trkpt>
<trkpt lat="-35.3678409" lon="149.164314">
  <ele>609.93</ele>
  <time>2026-08-27T18:28:17Z</time>
  <course>52.78</course>
  <speed>10.19</speed>
  <fix>3d</fix>
</trkpt>
<trkpt lat="-35.3678225" lon="149.1643436">
  <ele>610.01</ele>
  <time>2026-08-27T18:28:17Z</time>
  <course>46.24</course>
  <speed>10.896751809599044</speed>
  <fix>3d</fix>
</trkpt>
<trkpt lat="-35.3678295" lon="149.1643323">
  <ele>609.92</ele>
  <time>2026-08-27T18:28:17Z</time>
  <course>52.68</course>
  <speed>10.67</speed>
  <fix>3d</fix>
</trkpt>
<trkpt lat="-35.3678103" lon="149.1643629">
  <ele>610.02</ele>
  <time>2026-08-27T18:28:17Z</time>
  <course>45.95</course>
  <speed>11.31143227005316</speed>
  <fix>3d</fix>
</trkpt>
<trkpt lat="-35.3678176" lon="149.1643513">
  <ele>609.92</ele>
  <time>2026-08-27T18:28:17Z</time>
  <course>52.5</course>
  <speed>11.12</speed>
  <fix>3d</fix>
</trkpt>
<trkpt lat="-35.3677976" lon="149.164383">
  <ele>610.05</ele>
  <time>2026-08-27T18:28:17Z</time>
  <course>45.95</course>
  <speed>11.676305066244202</speed>
  <fix>3d</fix>
</trkpt>
<trkpt lat="-35.3678052" lon="149.1643711">
  <ele>609.93</ele>
  <time>2026-08-27T18:28:17Z</time>
  <course>52.27</course>
  <speed>11.52</speed>
  <fix>3d</fix>
</trkpt>
<trkpt lat="-35.3677845" lon="149.1644036">
  <ele>610.07</ele>
  <time>2026-08-27T18:28:17Z</time>
  <course>46.21</course>
  <speed>11.971136119850948</speed>
  <fix>3d</fix>
</trkpt>
<trkpt lat="-35.3677923" lon="149.1643915">
  <ele>609.95</ele>
  <time>2026-08-27T18:28:17Z</time>
  <course>52.06</course>
  <speed>11.86</speed>
  <fix>3d</fix>
</trkpt>
<trkpt lat="-35.3677709" lon="149.1644248">
  <ele>610.1</ele>
  <time>2026-08-27T18:28:17Z</time>
  <course>46.63</course>
  <speed>12.22393144614285</speed>
  <fix>3d</fix>
</trkpt>
<trkpt lat="-35.367779" lon="149.1644123">
  <ele>609.97</ele>
  <time>2026-08-27T18:28:17Z</time>
  <course>51.89</course>
  <speed>12.15</speed>
  <fix>3d</fix>
</trkpt>
<trkpt lat="-35.367757" lon="149.1644464">
  <ele>610.12</ele>
  <time>2026-08-27T18:28:17Z</time>
  <course>47.09</course>
  <speed>12.442483674893852</speed>
  <fix>3d</fix>
</trkpt>
<trkpt lat="-35.3677654" lon="149.1644336">
  <ele>610.0</ele>
  <time>2026-08-27T18:28:17Z</time>
  <course>51.78</course>
  <speed>12.39</speed>
  <fix>3d</fix>
</trkpt>
<trkpt lat="-35.3677429" lon="149.1644682">
  <ele>610.15</ele>
  <time>2026-08-27T18:28:17Z</time>
  <course>47.58</course>
  <speed>12.618910412551475</speed>
  <fix>3d</fix>
</trkpt>
<trkpt lat="-35.3677515" lon="149.1644552">
  <ele>610.03</ele>
  <time>2026-08-27T18:28:17Z</time>
  <course>51.71</course>
  <speed>12.58</speed>
  <fix>3d</fix>
</trkpt>
<trkpt lat="-35.3677287" lon="149.1644903">
  <ele>610.18</ele>
  <time>2026-08-27T18:28:17Z</time>
  <course>48.11</course>
  <speed>12.746972189504454</speed>
  <fix>3d</fix>
</trkpt>
<trkpt lat="-35.3677373" lon="149.1644772">
  <ele>610.06</ele>
  <time>2026-08-27T18:28:17Z</time>
  <course>51.67</course>
  <speed>12.74</speed>
  <fix>3d</fix>
</trkpt>
<trkpt lat="-35.3677144" lon="149.1645125">
  <ele>610.21</ele>
  <time>2026-08-27T18:28:17Z</time>
  <course>48.68</course>
  <speed>12.83127819042203</speed>
  <fix>3d</fix>
</trkpt>
<trkpt lat="-35.3677231" lon="149.1644993">
  <ele>610.08</ele>
  <time>2026-08-27T18:28:17Z</time>
  <course>51.65</course>
  <speed>12.85</speed>
  <fix>3d</fix>
</trkpt>
<trkpt lat="-35.3677" lon="149.1645348">
  <ele>610.24</ele>
  <time>2026-08-27T18:28:17Z</time>
  <course>49.27</course>
  <speed>12.875033980537683</speed>
  <fix>3d</fix>
</trkpt>
<trkpt lat="-35.3677088" lon="149.1645215">
  <ele>610.11</ele>
  <time>2026-08-27T18:28:17Z</time>
  <course>51.64</course>
  <speed>12.92</speed>
  <fix>3d</fix>
</trkpt>
<trkpt lat="-35.3676855" lon="149.1645572">
  <ele>610.26</ele>
  <time>2026-08-27T18:28:17Z</time>
  <course>49.84</course>
  <speed>12.88908452916653</speed>
  <fix>3d</fix>
</trkpt>
<trkpt lat="-35.3676943" lon="149.1645439">
  <ele>610.14</ele>
  <time>2026-08-27T18:28:17Z</time>
  <course>51.66</course>
  <speed>12.95</speed>
  <fix>3d</fix>
</trkpt>
<trkpt lat="-35.3676711" lon="149.1645796">
  <ele>610.27</ele>
  <time>2026-08-27T18:28:17Z</time>
  <course>50.4</course>
  <speed>12.868815019262652</speed>
  <fix>3d</fix>
</trkpt>
<trkpt lat="-35.3676799" lon="149.1645663">
  <ele>610.15</ele>
  <time>2026-08-27T18:28:17Z</time>
  <course>51.68</course>
  <speed>12.95</speed>
  <fix>3d</fix>
</trkpt>
<trkpt lat="-35.3676568" lon="149.1646018">
  <ele>610.27</ele>
  <time>2026-08-27T18:28:17Z</time>
  <course>50.91</course>
  <speed>12.820456310131867</speed>
  <fix>3d</fix>
</trkpt>
<trkpt lat="-35.3676655" lon="149.1645887">
  <ele>610.17</ele>
  <time>2026-08-27T18:28:17Z</time>
  <course>51.71</course>
  <speed>12.92</speed>
  <fix>3d</fix>
</trkpt>
<trkpt lat="-35.3676425" lon="149.164624">
  <ele>610.27</ele>
  <time>2026-08-27T18:28:17Z</time>
  <course>51.25</course>
  <speed>12.778313660260496</speed>
  <fix>3d</fix>
</trkpt>
<trkpt lat="-35.3676511" lon="149.1646109">
  <ele>610.18</ele>
  <time>2026-08-27T18:28:17Z</time>
  <course>51.73</course>
  <speed>12.87</speed>
  <fix>3d</fix>
</trkpt>
<trkpt lat="-35.3676282" lon="149.1646463">
  <ele>610.25</ele>
  <time>2026-08-27T18:28:17Z</time>
  <course>51.33</course>
  <speed>12.742378113994263</speed>
  <fix>3d</fix>
</trkpt>
<trkpt lat="-35.3676368" lon="149.1646332">
  <ele>610.18</ele>
  <time>2026-08-27T18:28:17Z</time>
  <course>51.75</course>
  <speed>12.81</speed>
  <fix>3d</fix>
</trkpt>
<trkpt lat="-35.3676139" lon="149.1646685">
  <ele>610.23</ele>
  <time>2026-08-27T18:28:17Z</time>
  <course>51.2</course>
  <speed>12.728330605385768</speed>
  <fix>3d</fix>
</trkpt>
<trkpt lat="-35.3676227" lon="149.1646553">
  <ele>610.17</ele>
  <time>2026-08-27T18:28:17Z</time>
  <course>51.73</course>
  <speed>12.78</speed>
  <fix>3d</fix>
</trkpt>
<trkpt lat="-35.3675997" lon="149.1646906">
  <ele>610.21</ele>
  <time>2026-08-27T18:28:17Z</time>
  <course>50.93</course>
  <speed>12.732921895621601</speed>
  <fix>3d</fix>
</trkpt>
<trkpt lat="-35.3676084" lon="149.1646774">
  <ele>610.15</ele>
  <time>2026-08-27T18:28:17Z</time>
  <course>51.67</course>
  <speed>12.76</speed>
  <fix>3d</fix>
</trkpt>
<trkpt lat="-35.3675854" lon="149.1647127">
  <ele>610.18</ele>
  <time>2026-08-27T18:28:17Z</time>
  <course>50.59</course>
  <speed>12.75002745095084</speed>
  <fix>3d</fix>
</trkpt>
<trkpt lat="-35.3675941" lon="149.1646995">
  <ele>610.12</ele>
  <time>2026-08-27T18:28:17Z</time>
  <course>51.55</course>
  <speed>12.76</speed>
  <fix>3d</fix>
</trkpt>
<trkpt lat="-35.367571" lon="149.1647348">
  <ele>610.15</ele>
  <time>2026-08-27T18:28:17Z</time>
  <course>50.22</course>
  <speed>12.773511654983526</speed>
  <fix>3d</fix>
</trkpt>
<trkpt lat="-35.3675798" lon="149.1647216">
  <ele>610.1</ele>
  <time>2026-08-27T18:28:17Z</time>
  <course>51.39</course>
  <speed>12.78</speed>
  <fix>3d</fix>
</trkpt>
<trkpt lat="-35.3675566" lon="149.1647567">
  <ele>610.14</ele>
  <time>2026-08-27T18:28:17Z</time>
  <course>49.9</course>
  <speed>12.804924833828585</speed>
  <fix>3d</fix>
</trkpt>
<trkpt lat="-35.3675655" lon="149.1647435">
  <ele>610.08</ele>
  <time>2026-08-27T18:28:17Z</time>
  <course>51.19</course>
  <speed>12.8</speed>
  <fix>3d</fix>
</trkpt>
<trkpt lat="-35.3675421" lon="149.1647786">
  <ele>610.13</ele>
  <time>2026-08-27T18:28:17Z</time>
  <course>49.61</course>
  <speed>12.828706092198074</speed>
  <fix>3d</fix>
</trkpt>
<trkpt lat="-35.367551" lon="149.1647654">
  <ele>610.07</ele>
  <time>2026-08-27T18:28:17Z</time>
  <course>50.98</course>
  <speed>12.82</speed>
  <fix>3d</fix>
</trkpt>
<trkpt lat="-35.3675276" lon="149.1648005">
  <ele>610.12</ele>
  <time>2026-08-27T18:28:17Z</time>
  <course>49.33</course>
  <speed>12.852645642045843</speed>
  <fix>3d</fix>
</trkpt>
<trkpt lat="-35.3675365" lon="149.1647874">
  <ele>610.06</ele>
  <time>2026-08-27T18:28:17Z</time>
  <course>50.77</course>
  <speed>12.85</speed>
  <fix>3d</fix>
</trkpt>
<trkpt lat="-35.367513" lon="149.1648223">
  <ele>610.12</ele>
  <time>2026-08-27T18:28:17Z</time>
  <course>49.07</course>
  <speed>12.885790623784015</speed>
  <fix>3d</fix>
</trkpt>
<trkpt lat="-35.3675218" lon="149.1648093">
  <ele>610.06</ele>
  <time>2026-08-27T18:28:17Z</time>
  <course>50.59</course>
  <speed>12.88</speed>
  <fix>3d</fix>
</trkpt>
<trkpt lat="-35.3674982" lon="149.1648442">
  <ele>610.12</ele>
  <time>2026-08-27T18:28:17Z</time>
  <course>48.84</course>
  <speed>12.925362664157628</speed>
  <fix>3d</fix>
</trkpt>
<trkpt lat="-35.3675071" lon="149.1648312">
  <ele>610.07</ele>
  <time>2026-08-27T18:28:17Z</time>
  <course>50.43</course>
  <speed>12.91</speed>
  <fix>3d</fix>
</trkpt>
<trkpt lat="-35.3674833" lon="149.1648662">
  <ele>610.12</ele>
  <time>2026-08-27T18:28:17Z</time>
  <course>48.67</course>
  <speed>12.96630247988994</speed>
  <fix>3d</fix>
</trkpt>
<trkpt lat="-35.3674922" lon="149.1648531">
  <ele>610.07</ele>
  <time>2026-08-27T18:28:17Z</time>
  <course>50.3</course>
  <speed>12.95</speed>
  <fix>3d</fix>
</trkpt>
<trkpt lat="-35.3674684" lon="149.1648883">
  <ele>610.13</ele>
  <time>2026-08-27T18:28:17Z</time>
  <course>48.54</course>
  <speed>12.99958845502426</speed>
  <fix>3d</fix>
</trkpt>
<trkpt lat="-35.3674774" lon="149.1648751">
  <ele>610.07</ele>
  <time>2026-08-27T18:28:17Z</time>
  <course>50.2</course>
  <speed>12.99</speed>
  <fix>3d</fix>
</trkpt>
<trkpt lat="-35.3674533" lon="149.1649104">
  <ele>610.14</ele>
  <time>2026-08-27T18:28:17Z</time>
  <course>48.49</course>
  <speed>13.04184419474485</speed>
  <fix>3d</fix>
</trkpt>
<trkpt lat="-35.3674623" lon="149.1648972">
  <ele>610.08</ele>
  <time>2026-08-27T18:28:17Z</time>
  <course>50.14</course>
  <speed>13.03</speed>
  <fix>3d</fix>
</trkpt>
<trkpt lat="-35.3674383" lon="149.1649325">
  <ele>610.16</ele>
  <time>2026-08-27T18:28:17Z</time>
  <course>48.58</course>
  <speed>13.063605934044396</speed>
  <fix>3d</fix>
</trkpt>
<trkpt lat="-35.3674473" lon="149.1649193">
  <ele>610.09</ele>
  <time>2026-08-27T18:28:17Z</time>
  <course>50.11</course>
  <speed>13.06</speed>
  <fix>3d</fix>
</trkpt>
<trkpt lat="-35.3674232" lon="149.1649546">
  <ele>610.17</ele>
  <time>2026-08-27T18:28:17Z</time>
  <course>48.68</course>
  <speed>13.085369692905125</speed>
  <fix>3d</fix>
</trkpt>
<trkpt lat="-35.3674323" lon="149.1649414">
  <ele>610.1</ele>
  <time>2026-08-27T18:28:17Z</time>
  <course>50.12</course>
  <speed>13.08</speed>
  <fix>3d</fix>
</trkpt>
<trkpt lat="-35.3674082" lon="149.1649768">
  <ele>610.18</ele>
  <time>2026-08-27T18:28:17Z</time>
  <course>48.84</course>
  <speed>13.102034193208318</speed>
  <fix>3d</fix>
</trkpt>
<trkpt lat="-35.3674172" lon="149.1649636">
  <ele>610.1</ele>
  <time>2026-08-27T18:28:17Z</time>
  <course>50.17</course>
  <speed>13.1</speed>
  <fix>3d</fix>
</trkpt>
<trkpt lat="-35.3673931" lon="149.164999">
  <ele>610.18</ele>
  <time>2026-08-27T18:28:17Z</time>
  <course>49.0</course>
  <speed>13.111048775746356</speed>
  <fix>3d</fix>
</trkpt>
<trkpt lat="-35.3674021" lon="149.1649858">
  <ele>610.11</ele>
  <time>2026-08-27T18:28:17Z</time>
  <course>50.25</course>
  <speed>13.11</speed>
  <fix>3d</fix>
</trkpt>
<trkpt lat="-35.3673781" lon="149.1650213">
  <ele>610.18</ele>
  <time>2026-08-27T18:28:17Z</time>
  <course>49.21</course>
  <speed>13.113733259449806</speed>
  <fix>3d</fix>
</trkpt>
<trkpt lat="-35.3673871" lon="149.165008">
  <ele>610.12</ele>
  <time>2026-08-27T18:28:17Z</time>
  <course>50.35</course>
  <speed>13.12</speed>
  <fix>3d</fix>
</trkpt>
<trkpt lat="-35.3673631" lon="149.1650436">
  <ele>610.17</ele>
  <time>2026-08-27T18:28:17Z</time>
  <course>49.41</course>
  <speed>13.116478185854616</speed>
  <fix>3d</fix>
</trkpt>
<trkpt lat="-35.3673721" lon="149.1650303">
  <ele>610.12</ele>
  <time>2026-08-27T18:28:17Z</time>
  <course>50.48</course>
  <speed>13.13</speed>
  <fix>3d</fix>
</trkpt>
<trkpt lat="-35.3673482" lon="149.1650659">
  <ele>610.17</ele>
  <time>2026-08-27T18:28:17Z</time>
  <course>49.6</course>
  <speed>13.127029366920759</speed>
  <fix>3d</fix>
</trkpt>
<trkpt lat="-35.3673571" lon="149.1650526">
  <ele>610.12</ele>
  <time>2026-08-27T18:28:17Z</time>
  <course>50.61</course>
  <speed>13.13</speed>
  <fix>3d</fix>
</trkpt>
<trkpt lat="-35.3673333" lon="149.1650883">
  <ele>610.17</ele>
  <time>2026-08-27T18:28:17Z</time>
  <course>49.79</course>
  <speed>13.115841566594192</speed>
  <fix>3d</fix>
</trkpt>
<trkpt lat="-35.3673421" lon="149.165075">
  <ele>610.12</ele>
  <time>2026-08-27T18:28:17Z</time>
  <course>50.74</course>
  <speed>13.13</speed>
  <fix>3d</fix>
</trkpt>
<trkpt lat="-35.3673183" lon="149.165111">
  <ele>610.18</ele>
  <time>2026-08-27T18:28:17Z</time>
  <course>49.99</course>
  <speed>13.118784242451737</speed>
  <fix>3d</fix>
</trkpt>
<trkpt lat="-35.3673272" lon="149.1650974">
  <ele>610.13</ele>
  <time>2026-08-27T18:28:17Z</time>
  <course>50.87</course>
  <speed>13.13</speed>
  <fix>3d</fix>
</trkpt>
<trkpt lat="-35.3673035" lon="149.1651335">
  <ele>610.18</ele>
  <time>2026-08-27T18:28:17Z</time>
  <course>50.2</course>
  <speed>13.107726728918328</speed>
  <fix>3d</fix>
</trkpt>
<trkpt lat="-35.3673123" lon="149.1651198">
  <ele>610.13</ele>
  <time>2026-08-27T18:28:17Z</time>
  <course>50.99</course>
  <speed>13.12</speed>
  <fix>3d</fix>
</trkpt>
<trkpt lat="-35.3672886" lon="149.1651561">
  <ele>610.17</ele>
  <time>2026-08-27T18:28:17Z</time>
  <course>50.35</course>
  <speed>13.095193774816773</speed>
  <fix>3d</fix>
</trkpt>
<trkpt lat="-35.3672975" lon="149.1651423">
  <ele>610.13</ele>
  <time>2026-08-27T18:28:17Z</time>
  <course>51.1</course>
  <speed>13.11</speed>
  <fix>3d</fix>
</trkpt>
<trkpt lat="-35.3672738" lon="149.1651786">
  <ele>610.17</ele>
  <time>2026-08-27T18:28:17Z</time>
  <course>50.56</course>
  <speed>13.076429176193324</speed>
  <fix>3d</fix>
</trkpt>
<trkpt lat="-35.3672827" lon="149.1651649">
  <ele>610.13</ele>
  <time>2026-08-27T18:28:17Z</time>
  <course>51.2</course>
  <speed>13.09</speed>
  <fix>3d</fix>
</trkpt>
<trkpt lat="-35.3672591" lon="149.1652011">
  <ele>610.18</ele>
  <time>2026-08-27T18:28:17Z</time>
  <course>50.74</course>
  <speed>13.049888888415872</speed>
  <fix>3d</fix>
</trkpt>
<trkpt lat="-35.367268" lon="149.1651874">
  <ele>610.14</ele>
  <time>2026-08-27T18:28:17Z</time>
  <course>51.29</course>
  <speed>13.07</speed>
  <fix>3d</fix>
</trkpt>
<trkpt lat="-35.3672445" lon="149.1652236">
  <ele>610.19</ele>
  <time>2026-08-27T18:28:17Z</time>
  <course>50.89</course>
  <speed>13.023371299321845</speed>
  <fix>3d</fix>
</trkpt>
<trkpt lat="-35.3672533" lon="149.1652098">
  <ele>610.14</ele>
  <time>2026-08-27T18:28:17Z</time>
  <course>51.36</course>
  <speed>13.04</speed>
  <fix>3d</fix>
</trkpt>
<trkpt lat="-35.3672299" lon="149.1652461">
  <ele>610.19</ele>
  <time>2026-08-27T18:28:17Z</time>
  <course>51.02</course>
  <speed>13.003095785235146</speed>
  <fix>3d</fix>
</trkpt>
<trkpt lat="-35.3672387" lon="149.1652323">
  <ele>610.15</ele>
  <time>2026-08-27T18:28:17Z</time>
  <course>51.42</course>
  <speed>13.02</speed>
  <fix>3d</fix>
</trkpt>
<trkpt lat="-35.3672153" lon="149.1652685">
  <ele>610.19</ele>
  <time>2026-08-27T18:28:17Z</time>
  <course>51.08</course>
  <speed>12.974995183043422</speed>
  <fix>3d</fix>
</trkpt>
<trkpt lat="-35.3672241" lon="149.1652547">
  <ele>610.15</ele>
  <time>2026-08-27T18:28:17Z</time>
  <course>51.46</course>
  <speed>12.99</speed>
  <fix>3d</fix>
</trkpt>
<trkpt lat="-35.3672008" lon="149.1652908">
  <ele>610.19</ele>
  <time>2026-08-27T18:28:17Z</time>
  <course>51.1</course>
  <speed>12.953115455364395</speed>
  <fix>3d</fix>
</trkpt>
<trkpt lat="-35.3672096" lon="149.165277">
  <ele>610.15</ele>
  <time>2026-08-27T18:28:17Z</time>
  <course>51.48</course>
  <speed>12.96</speed>
  <fix>3d</fix>
</trkpt>
<trkpt lat="-35.3671863" lon="149.1653132">
  <ele>610.19</ele>
  <time>2026-08-27T18:28:17Z</time>
  <course>51.09</course>
  <speed>12.939064881203741</speed>
  <fix>3d</fix>
</trkpt>
<trkpt lat="-35.3671951" lon="149.1652994">
  <ele>610.14</ele>
  <time>2026-08-27T18:28:17Z</time>
  <course>51.48</course>
  <speed>12.94</speed>
  <fix>3d</fix>
</trkpt>
<trkpt lat="-35.3671717" lon="149.1653356">
  <ele>610.2</ele>
  <time>2026-08-27T18:28:17Z</time>
  <course>51.04</course>
  <speed>12.923412861933954</speed>
  <fix>3d</fix>
</trkpt>
<trkpt lat="-35.3671807" lon="149.1653217">
  <ele>610.14</ele>
  <time>2026-08-27T18:28:17Z</time>
  <course>51.46</course>
  <speed>12.93</speed>
  <fix>3d</fix>
</trkpt>
<trkpt lat="-35.3671572" lon="149.165358">
  <ele>610.2</ele>
  <time>2026-08-27T18:28:17Z</time>
  <course>50.96</course>
  <speed>12.90777285204539</speed>
  <fix>3d</fix>
</trkpt>
<trkpt lat="-35.3671662" lon="149.165344">
  <ele>610.13</ele>
  <time>2026-08-27T18:28:17Z</time>
  <course>51.41</course>
  <speed>12.91</speed>
  <fix>3d</fix>
</trkpt>
<trkpt lat="-35.3671427" lon="149.1653802">
  <ele>610.19</ele>
  <time>2026-08-27T18:28:17Z</time>
  <course>50.87</course>
  <speed>12.899957364270628</speed>
  <fix>3d</fix>
</trkpt>
<trkpt lat="-35.3671517" lon="149.1653662">
  <ele>610.12</ele>
  <time>2026-08-27T18:28:17Z</time>
  <course>51.36</course>
  <speed>12.9</speed>
  <fix>3d</fix>
</trkpt>
<trkpt lat="-35.3671282" lon="149.1654023">
  <ele>610.19</ele>
  <time>2026-08-27T18:28:17Z</time>
  <course>50.81</course>
  <speed>12.890585712061341</speed>
  <fix>3d</fix>
</trkpt>
<trkpt lat="-35.3671372" lon="149.1653885">
  <ele>610.11</ele>
  <time>2026-08-27T18:28:17Z</time>
  <course>51.29</course>
  <speed>12.89</speed>
  <fix>3d</fix>
</trkpt>
<trkpt lat="-35.3671138" lon="149.1654244">
  <ele>610.18</ele>
  <time>2026-08-27T18:28:17Z</time>
  <course>50.68</course>
  <speed>12.889041857329815</speed>
  <fix>3d</fix>
</trkpt>
<trkpt lat="-35.3671227" lon="149.1654106">
  <ele>610.11</ele>
  <time>2026-08-27T18:28:17Z</time>
  <course>51.21</course>
  <speed>12.89</speed>
  <fix>3d</fix>
</trkpt>
<trkpt lat="-35.3670993" lon="149.1654464">
  <ele>610.17</ele>
  <time>2026-08-27T18:28:17Z</time>
  <course>50.51</course>
  <speed>12.88751333655954</speed>
  <fix>3d</fix>
</trkpt>
<trkpt lat="-35.3671082" lon="149.1654327">
  <ele>610.1</ele>
  <time>2026-08-27T18:28:17Z</time>
  <course>51.14</course>
  <speed>12.89</speed>
  <fix>3d</fix>
</trkpt>
<trkpt lat="-35.3670848" lon="149.1654684">
  <ele>610.16</ele>
  <time>2026-08-27T18:28:17Z</time>
  <course>50.3</course>
  <speed>12.900062015354811</speed>
  <fix>3d</fix>
</trkpt>
<trkpt lat="-35.3670937" lon="149.1654548">
  <ele>610.08</ele>
  <time>2026-08-27T18:28:17Z</time>
  <course>51.06</course>
  <speed>12.9</speed>
  <fix>3d</fix>
</trkpt>
<trkpt lat="-35.3670702" lon="149.1654905">
  <ele>610.15</ele>
  <time>2026-08-27T18:28:17Z</time>
  <course>50.1</course>
  <speed>12.9048556752875</speed>
  <fix>3d</fix>
</trkpt>
<trkpt lat="-35.3670791" lon="149.1654769">
  <ele>610.08</ele>
  <time>2026-08-27T18:28:17Z</time>
  <course>50.98</course>
  <speed>12.91</speed>
  <fix>3d</fix>
</trkpt>
<trkpt lat="-35.3670556" lon="149.1655125">
  <ele>610.15</ele>
  <time>2026-08-27T18:28:17Z</time>
  <course>50.05</course>
  <speed>12.895619411257453</speed>
  <fix>3d</fix>
</trkpt>
<trkpt lat="-35.3670644" lon="149.165499">
  <ele>610.08</ele>
  <time>2026-08-27T18:28:17Z</time>
  <course>50.9</course>
  <speed>12.92</speed>
  <fix>3d</fix>
</trkpt>
<trkpt lat="-35.3670411" lon="149.1655343">
  <ele>610.16</ele>
  <time>2026-08-27T18:28:17Z</time>
  <course>50.28</course>
  <speed>12.837897024045644</speed>
  <fix>3d</fix>
</trkpt>
<trkpt lat="-35.3670497" lon="149.1655211">
  <ele>610.08</ele>
  <time>2026-08-27T18:28:17Z</time>
  <course>50.82</course>
  <speed>12.9</speed>
  <fix>3d</fix>
</trkpt>
<trkpt lat="-35.3670266" lon="149.1655561">
  <ele>610.2</ele>
  <time>2026-08-27T18:28:17Z</time>
  <course>50.79</course>
  <speed>12.7161511472615</speed>
  <fix>3d</fix>
</trkpt>
<trkpt lat="-35.3670351" lon="149.1655431">
  <ele>610.1</ele>
  <time>2026-08-27T18:28:17Z</time>
  <course>50.77</course>
  <speed>12.83</speed>
  <fix>3d</fix>
</trkpt>
<trkpt lat="-35.3670121" lon="149.1655779">
  <ele>610.25</ele>
  <time>2026-08-27T18:28:17Z</time>
  <course>51.5</course>
  <speed>12.539577345349404</speed>
  <fix>3d</fix>
</trkpt>
<trkpt lat="-35.3670207" lon="149.1655649">
  <ele>610.14</ele>
  <time>2026-08-27T18:28:17Z</time>
  <course>50.76</course>
  <speed>12.7</speed>
  <fix>3d</fix>
</trkpt>
<trkpt lat="-35.366998" lon="149.1655992">
  <ele>610.3</ele>
  <time>2026-08-27T18:28:17Z</time>
  <course>52.31</course>
  <speed>12.30675018028724</speed>
  <fix>3d</fix>
</trkpt>
<trkpt lat="-35.3670063" lon="149.1655864">
  <ele>610.19</ele>
  <time>2026-08-27T18:28:17Z</time>
  <course>50.82</course>
  <speed>12.51</speed>
  <fix>3d</fix>
</trkpt>
<trkpt lat="-35.3669841" lon="149.1656202">
  <ele>610.34</ele>
  <time>2026-08-27T18:28:17Z</time>
  <course>53.13</course>
  <speed>12.025477121511644</speed>
  <fix>3d</fix>
</trkpt>
<trkpt lat="-35.3669922" lon="149.1656076">
  <ele>610.23</ele>
  <time>2026-08-27T18:28:17Z</time>
  <course>50.94</course>
  <speed>12.26</speed>
  <fix>3d</fix>
</trkpt>
<trkpt lat="-35.3669706" lon="149.1656406">
  <ele>610.38</ele>
  <time>2026-08-27T18:28:17Z</time>
  <course>53.93</course>
  <speed>11.688049452325226</speed>
  <fix>3d</fix>
</trkpt>
<trkpt lat="-35.3669785" lon="149.1656284">
  <ele>610.28</ele>
  <time>2026-08-27T18:28:17Z</time>
  <course>51.11</course>
  <speed>11.96</speed>
  <fix>3d</fix>
</trkpt>
<trkpt lat="-35.3669577" lon="149.1656605">
  <ele>610.41</ele>
  <time>2026-08-27T18:28:17Z</time>
  <course>54.66</course>
  <speed>11.308585234236862</speed>
  <fix>3d</fix>
</trkpt>
<trkpt lat="-35.3669653" lon="149.1656487">
  <ele>610.31</ele>
  <time>2026-08-27T18:28:17Z</time>
  <course>51.3</course>
  <speed>11.61</speed>
  <fix>3d</fix>
</trkpt>
<trkpt lat="-35.3669452" lon="149.1656798">
  <ele>610.42</ele>
  <time>2026-08-27T18:28:17Z</time>
  <course>55.31</course>
  <speed>10.879301448162927</speed>
  <fix>3d</fix>
</trkpt>
<trkpt lat="-35.3669525" lon="149.1656683">
  <ele>610.33</ele>
  <time>2026-08-27T18:28:17Z</time>
  <course>51.51</course>
  <speed>11.21</speed>
  <fix>3d</fix>
</trkpt>
<trkpt lat="-35.3669333" lon="149.1656983">
  <ele>610.43</ele>
  <time>2026-08-27T18:28:17Z</time>
  <course>55.85</course>
  <speed>10.39849989181132</speed>
  <fix>3d</fix>
</trkpt>
<trkpt lat="-35.3669402" lon="149.1656873">
  <ele>610.35</ele>
  <time>2026-08-27T18:28:17Z</time>
  <course>51.72</course>
  <speed>10.76</speed>
  <fix>3d</fix>
</trkpt>
<trkpt lat="-35.366922" lon="149.165716">
  <ele>610.42</ele>
  <time>2026-08-27T18:28:17Z</time>
  <course>56.28</course>
  <speed>9.88182675419884</speed>
  <fix>3d</fix>
</trkpt>
<trkpt lat="-35.3669285" lon="149.1657055">
  <ele>610.35</ele>
  <time>2026-08-27T18:28:17Z</time>
  <course>51.91</course>
  <speed>10.27</speed>
  <fix>3d</fix>
</trkpt>
<trkpt lat="-35.3669113" lon="149.1657327">
  <ele>610.41</ele>
  <time>2026-08-27T18:28:17Z</time>
  <course>56.63</course>
  <speed>9.329271139805082</speed>
  <fix>3d</fix>
</trkpt>
<trkpt lat="-35.3669175" lon="149.1657228">
  <ele>610.34</ele>
  <time>2026-08-27T18:28:17Z</time>
  <course>52.07</course>
  <speed>9.74</speed>
  <fix>3d</fix>
</trkpt>
<trkpt lat="-35.3669013" lon="149.1657486">
  <ele>610.39</ele>
  <time>2026-08-27T18:28:17Z</time>
  <course>56.85</course>
  <speed>8.745152943202308</speed>
  <fix>3d</fix>
</trkpt>
<trkpt lat="-35.3669071" lon="149.1657392">
  <ele>610.33</ele>
  <time>2026-08-27T18:28:17Z</time>
  <course>52.19</course>
  <speed>9.17</speed>
  <fix>3d</fix>
</trkpt>
<trkpt lat="-35.3668919" lon="149.1657634">
  <ele>610.37</ele>
  <time>2026-08-27T18:28:17Z</time>
  <course>56.86</course>
  <speed>8.162824266147105</speed>
  <fix>3d</fix>
</trkpt>
<trkpt lat="-35.3668973" lon="149.1657548">
  <ele>610.31</ele>
  <time>2026-08-27T18:28:17Z</time>
  <course>52.28</course>
  <speed>8.58</speed>
  <fix>3d</fix>
</trkpt>
<trkpt lat="-35.3668831" lon="149.1657773">
  <ele>610.34</ele>
  <time>2026-08-27T18:28:17Z</time>
  <course>56.61</course>
  <speed>7.598855176932904</speed>
  <fix>3d</fix>
</trkpt>
<trkpt lat="-35.3668882" lon="149.1657692">
  <ele>610.28</ele>
  <time>2026-08-27T18:28:17Z</time>
  <course>52.32</course>
  <speed>8.0</speed>
  <fix>3d</fix>
</trkpt>
<trkpt lat="-35.366875" lon="149.1657902">
  <ele>610.29</ele>
  <time>2026-08-27T18:28:17Z</time>
  <course>56.08</course>
  <speed>7.053311279108558</speed>
  <fix>3d</fix>
</trkpt>
<trkpt lat="-35.3668797" lon="149.1657827">
  <ele>610.23</ele>
  <time>2026-08-27T18:28:17Z</time>
  <course>52.26</course>
  <speed>7.43</speed>
  <fix>3d</fix>
</trkpt>
<trkpt lat="-35.3668674" lon="149.1658021">
  <ele>610.23</ele>
  <time>2026-08-27T18:28:17Z</time>
  <course>55.21</course>
  <speed>6.546816020020725</speed>
  <fix>3d</fix>
</trkpt>
<trkpt lat="-35.3668718" lon="149.1657952">
  <ele>610.18</ele>
  <time>2026-08-27T18:28:17Z</time>
  <course>51.94</course>
  <speed>6.9</speed>
  <fix>3d</fix>
</trkpt>
<trkpt lat="-35.3668601" lon="149.165813">
  <ele>610.19</ele>
  <time>2026-08-27T18:28:17Z</time>
  <course>53.84</course>
  <speed>6.091994747207191</speed>
  <fix>3d</fix>
</trkpt>
<trkpt lat="-35.3668644" lon="149.1658067">
  <ele>610.13</ele>
  <time>2026-08-27T18:28:17Z</time>
  <course>51.18</course>
  <speed>6.4</speed>
  <fix>3d</fix>
</trkpt>
<trkpt lat="-35.3668532" lon="149.1658229">
  <ele>610.14</ele>
  <time>2026-08-27T18:28:17Z</time>
  <course>51.82</course>
  <speed>5.673667244384359</speed>
  <fix>3d</fix>
</trkpt>
<trkpt lat="-35.3668573" lon="149.1658172">
  <ele>610.08</ele>
  <time>2026-08-27T18:28:17Z</time>
  <course>49.79</course>
  <speed>5.94</speed>
  <fix>3d</fix>
</trkpt>
<trkpt lat="-35.3668465" lon="149.1658318">
  <ele>610.1</ele>
  <time>2026-08-27T18:28:17Z</time>
  <course>49.03</course>
  <speed>5.296461082647545</speed>
  <fix>3d</fix>
</trkpt>
<trkpt lat="-35.3668505" lon="149.1658266">
  <ele>610.05</ele>
  <time>2026-08-27T18:28:17Z</time>
  <course>47.63</course>
  <speed>5.53</speed>
  <fix>3d</fix>
</trkpt>
<trkpt lat="-35.3668398" lon="149.1658397">
  <ele>610.08</ele>
  <time>2026-08-27T18:28:17Z</time>
  <course>45.47</course>
  <speed>4.9852783272351004</speed>
  <fix>3d</fix>
</trkpt>
<trkpt lat="-35.366844" lon="149.1658352">
  <ele>610.01</ele>
  <time>2026-08-27T18:28:17Z</time>
  <course>44.59</course>
  <speed>5.17</speed>
  <fix>3d</fix>
</trkpt>
<trkpt lat="-35.3668332" lon="149.1658466">
  <ele>610.06</ele>
  <time>2026-08-27T18:28:17Z</time>
  <course>41.16</course>
  <speed>4.722224052287228</speed>
  <fix>3d</fix>
</trkpt>
<trkpt lat="-35.3668373" lon="149.1658426">
  <ele>609.99</ele>
  <time>2026-08-27T18:28:17Z</time>
  <course>40.65</course>
  <speed>4.86</speed>
  <fix>3d</fix>
</trkpt>
<trkpt lat="-35.3668264" lon="149.1658524">
  <ele>610.05</ele>
  <time>2026-08-27T18:28:17Z</time>
  <course>36.11</course>
  <speed>4.53894260814124</speed>
  <fix>3d</fix>
</trkpt>
<trkpt lat="-35.3668306" lon="149.1658491">
  <ele>609.97</ele>
  <time>2026-08-27T18:28:17Z</time>
  <course>35.84</course>
  <speed>4.62</speed>
  <fix>3d</fix>
</trkpt>
<trkpt lat="-35.3668194" lon="149.1658573">
  <ele>610.04</ele>
  <time>2026-08-27T18:28:17Z</time>
  <course>30.42</course>
  <speed>4.427471061452576</speed>
  <fix>3d</fix>
</trkpt>
<trkpt lat="-35.3668238" lon="149.1658546">
  <ele>609.96</ele>
  <time>2026-08-27T18:28:17Z</time>
  <course>30.29</course>
  <speed>4.45</speed>
  <fix>3d</fix>
</trkpt>
<trkpt lat="-35.3668121" lon="149.1658612">
  <ele>610.03</ele>
  <time>2026-08-27T18:28:17Z</time>
  <course>24.22</course>
  <speed>4.406778868969942</speed>
  <fix>3d</fix>
</trkpt>
<trkpt lat="-35.3668167" lon="149.165859">
  <ele>609.96</ele>
  <time>2026-08-27T18:28:17Z</time>
  <course>24.17</course>
  <speed>4.37</speed>
  <fix>3d</fix>
</trkpt>
<trkpt lat="-35.3668045" lon="149.165864">
  <ele>610.02</ele>
  <time>2026-08-27T18:28:17Z</time>
  <course>17.7</course>
  <speed>4.467572047544393</speed>
  <fix>3d</fix>
</trkpt>
<trkpt lat="-35.3668095" lon="149.1658624">
  <ele>609.95</ele>
  <time>2026-08-27T18:28:17Z</time>
  <course>17.78</course>
  <speed>4.37</speed>
  <fix>3d</fix>
</trkpt>
<trkpt lat="-35.3667965" lon="149.1658659">
  <ele>610.01</ele>
  <time>2026-08-27T18:28:18Z</time>
  <course>11.25</course>
  <speed>4.623126647627123</speed>
  <fix>3d</fix>
</trkpt>
<trkpt lat="-35.3668018" lon="149.1658649">
  <ele>609.95</ele>
  <time>2026-08-27T18:28:18Z</time>
  <course>11.5</course>
  <speed>4.47</speed>
  <fix>3d</fix>
</trkpt>
<trkpt lat="-35.3667881" lon="149.1658668">
  <ele>610.01</ele>
  <time>2026-08-27T18:28:18Z</time>
  <course>5.33</course>
  <speed>4.876412615847843</speed>
  <fix>3d</fix>
</trkpt>
<trkpt lat="-35.3667937" lon="149.1658664">
  <ele>609.94</ele>
  <time>2026-08-27T18:28:18Z</time>
  <course>5.82</course>
  <speed>4.66</speed>
  <fix>3d</fix>
</trkpt>
<trkpt lat="-35.3667792" lon="149.165867">
  <ele>610.0</ele>
  <time>2026-08-27T18:28:18Z</time>
  <course>0.26</course>
  <speed>5.190780288164777</speed>
  <fix>3d</fix>
</trkpt>
<trkpt lat="-35.366785" lon="149.165867">
  <ele>609.93</ele>
  <time>2026-08-27T18:28:18Z</time>
  <course>1.11</course>
  <speed>4.94</speed>
  <fix>3d</fix>
</trkpt>
<trkpt lat="-35.3667696" lon="149.1658664">
  <ele>610.0</ele>
  <time>2026-08-27T18:28:18Z</time>
  <course>356.21</course>
  <speed>5.543040681791899</speed>
  <fix>3d</fix>
</trkpt>
<trkpt lat="-35.3667758" lon="149.1658668">
  <ele>609.93</ele>
  <time>2026-08-27T18:28:18Z</time>
  <course>357.44</course>
  <speed>5.28</speed>
  <fix>3d</fix>
</trkpt>
<trkpt lat="-35.3667595" lon="149.1658653">
  <ele>610.0</ele>
  <time>2026-08-27T18:28:18Z</time>
  <course>353.17</course>
  <speed>5.923596880274687</speed>
  <fix>3d</fix>
</trkpt>
<trkpt lat="-35.366766" lon="149.1658661">
  <ele>609.93</ele>
  <time>2026-08-27T18:28:18Z</time>
  <course>354.73</course>
  <speed>5.66</speed>
  <fix>3d</fix>
</trkpt>
<trkpt lat="-35.3667486" lon="149.1658637">
  <ele>610.01</ele>
  <time>2026-08-27T18:28:18Z</time>
  <course>351.03</course>
  <speed>6.303562484817613</speed>
  <fix>3d</fix>
</trkpt>
<trkpt lat="-35.3667556" lon="149.1658647">
  <ele>609.93</ele>
  <time>2026-08-27T18:28:18Z</time>
  <course>352.84</course>
  <speed>6.05</speed>
  <fix>3d</fix>
</trkpt>
<trkpt lat="-35.3667372" lon="149.1658617">
  <ele>610.01</ele>
  <time>2026-08-27T18:28:18Z</time>
  <course>349.55</course>
  <speed>6.6906875580914695</speed>
  <fix>3d</fix>
</trkpt>
<trkpt lat="-35.3667444" lon="149.1658628">
  <ele>609.93</ele>
  <time>2026-08-27T18:28:18Z</time>
  <course>351.64</course>
  <speed>6.44</speed>
  <fix>3d</fix>
</trkpt>
<trkpt lat="-35.366725" lon="149.1658593">
  <ele>610.02</ele>
  <time>2026-08-27T18:28:18Z</time>
  <course>348.56</course>
  <speed>7.092707522519168</speed>
  <fix>3d</fix>
</trkpt>
<trkpt lat="-35.3667327" lon="149.1658605">
  <ele>609.94</ele>
  <time>2026-08-27T18:28:18Z</time>
  <course>350.98</course>
  <speed>6.85</speed>
  <fix>3d</fix>
</trkpt>
<trkpt lat="-35.3667119" lon="149.1658568">
  <ele>610.02</ele>
  <time>2026-08-27T18:28:18Z</time>
  <course>347.89</course>
  <speed>7.508588415940775</speed>
  <fix>3d</fix>
</trkpt>
<trkpt lat="-35.3667201" lon="149.1658581">
  <ele>609.94</ele>
  <time>2026-08-27T18:28:18Z</time>
  <course>350.74</course>
  <speed>7.26</speed>
  <fix>3d</fix>
</trkpt>
<trkpt lat="-35.3666982" lon="149.1658541">
  <ele>610.03</ele>
  <time>2026-08-27T18:28:18Z</time>
  <course>347.46</course>
  <speed>7.94957231554</speed>
  <fix>3d</fix>
</trkpt>
<trkpt lat="-35.3667068" lon="149.1658555">
  <ele>609.95</ele>
  <time>2026-08-27T18:28:18Z</time>
  <course>350.8</course>
  <speed>7.68</speed>
  <fix>3d</fix>
</trkpt>
<trkpt lat="-35.3666836" lon="149.1658513">
  <ele>610.03</ele>
  <time>2026-08-27T18:28:18Z</time>
  <course>347.19</course>
  <speed>8.39763061821607</speed>
  <fix>3d</fix>
</trkpt>
<trkpt lat="-35.3666928" lon="149.1658527">
  <ele>609.95</ele>
  <time>2026-08-27T18:28:18Z</time>
  <course>351.09</course>
  <speed>8.13</speed>
  <fix>3d</fix>
</trkpt>
<trkpt lat="-35.3666683" lon="149.1658485">
  <ele>610.03</ele>
  <time>2026-08-27T18:28:18Z</time>
  <course>347.12</course>
  <speed>8.871533125677884</speed>
  <fix>3d</fix>
</trkpt>
<trkpt lat="-35.3666779" lon="149.1658499">
  <ele>609.94</ele>
  <time>2026-08-27T18:28:18Z</time>
  <course>351.54</course>
  <speed>8.59</speed>
  <fix>3d</fix>
</trkpt>
<trkpt lat="-35.366652" lon="149.1658458">
  <ele>610.02</ele>
  <time>2026-08-27T18:28:18Z</time>
  <course>347.22</course>
  <speed>9.35472073340514</speed>
  <fix>3d</fix>
</trkpt>
<trkpt lat="-35.3666623" lon="149.1658472">
  <ele>609.94</ele>
  <time>2026-08-27T18:28:18Z</time>
  <course>352.08</course>
  <speed>9.07</speed>
  <fix>3d</fix>
</trkpt>
<trkpt lat="-35.3666349" lon="149.1658431">
  <ele>610.01</ele>
  <time>2026-08-27T18:28:18Z</time>
  <course>347.32</course>
  <speed>9.859665308721183</speed>
  <fix>3d</fix>
</trkpt>
<trkpt lat="-35.3666457" lon="149.1658444">
  <ele>609.93</ele>
  <time>2026-08-27T18:28:18Z</time>
  <course>352.61</course>
  <speed>9.56</speed>
  <fix>3d</fix>
</trkpt>
<trkpt lat="-35.3666168" lon="149.1658404">
  <ele>610.01</ele>
  <time>2026-08-27T18:28:18Z</time>
  <course>347.26</course>
  <speed>10.357436941637637</speed>
  <fix>3d</fix>
</trkpt>
<trkpt lat="-35.3666281" lon="149.1658417">
  <ele>609.92</ele>
  <time>2026-08-27T18:28:18Z</time>
  <course>353.05</course>
  <speed>10.06</speed>
  <fix>3d</fix>
</trkpt>
<trkpt lat="-35.3665979" lon="149.1658377">
  <ele>610.01</ele>
  <time>2026-08-27T18:28:18Z</time>
  <course>347.07</course>
  <speed>10.837758070745075</speed>
  <fix>3d</fix>
</trkpt>
<trkpt lat="-35.3666097" lon="149.165839">
  <ele>609.91</ele>
  <time>2026-08-27T18:28:18Z</time>
  <course>353.34</course>
  <speed>10.56</speed>
  <fix>3d</fix>
</trkpt>
<trkpt lat="-35.3665782" lon="149.1658349">
  <ele>610.01</ele>
  <time>2026-08-27T18:28:18Z</time>
  <course>346.99</course>
  <speed>11.290527002757665</speed>
  <fix>3d</fix>
</trkpt>
<trkpt lat="-35.3665905" lon="149.1658363">
  <ele>609.91</ele>
  <time>2026-08-27T18:28:18Z</time>
  <course>353.47</course>
  <speed>11.04</speed>
  <fix>3d</fix>
</trkpt>
<trkpt lat="-35.3665576" lon="149.165832">
  <ele>610.03</ele>
  <time>2026-08-27T18:28:18Z</time>
  <course>347.17</course>
  <speed>11.674861883551344</speed>
  <fix>3d</fix>
</trkpt>
<trkpt lat="-35.3665704" lon="149.1658335">
  <ele>609.92</ele>
  <time>2026-08-27T18:28:18Z</time>
  <course>353.49</course>
  <speed>11.48</speed>
  <fix>3d</fix>
</trkpt>
<trkpt lat="-35.3665364" lon="149.1658289">
  <ele>610.05</ele>
  <time>2026-08-27T18:28:18Z</time>
  <course>347.63</course>
  <speed>11.998470735889637</speed>
  <fix>3d</fix>
</trkpt>
<trkpt lat="-35.3665496" lon="149.1658306">
  <ele>609.94</ele>
  <time>2026-08-27T18:28:18Z</time>
  <course>353.46</course>
  <speed>11.85</speed>
  <fix>3d</fix>
</trkpt>
<trkpt lat="-35.3665146" lon="149.1658258">
  <ele>610.09</ele>
  <time>2026-08-27T18:28:18Z</time>
  <course>348.28</course>
  <speed>12.261341688412406</speed>
  <fix>3d</fix>
</trkpt>
<trkpt lat="-35.3665281" lon="149.1658276">
  <ele>609.96</ele>
  <time>2026-08-27T18:28:18Z</time>
  <course>353.41</course>
  <speed>12.16</speed>
  <fix>3d</fix>
</trkpt>
<trkpt lat="-35.3664924" lon="149.1658226">
  <ele>610.12</ele>
  <time>2026-08-27T18:28:18Z</time>
  <course>348.98</course>
  <speed>12.473399696955116</speed>
  <fix>3d</fix>
</trkpt>
<trkpt lat="-35.3665061" lon="149.1658244">
  <ele>610.0</ele>
  <time>2026-08-27T18:28:18Z</time>
  <course>353.39</course>
  <speed>12.41</speed>
  <fix>3d</fix>
</trkpt>
<trkpt lat="-35.36647" lon="149.1658194">
  <ele>610.15</ele>
  <time>2026-08-27T18:28:18Z</time>
  <course>349.65</course>
  <speed>12.634638894721132</speed>
  <fix>3d</fix>
</trkpt>
<trkpt lat="-35.3664837" lon="149.1658213">
  <ele>610.03</ele>
  <time>2026-08-27T18:28:18Z</time>
  <course>353.39</course>
  <speed>12.6</speed>
  <fix>3d</fix>
</trkpt>
<trkpt lat="-35.3664473" lon="149.1658162">
  <ele>610.18</ele>
  <time>2026-08-27T18:28:18Z</time>
  <course>350.22</course>
  <speed>12.754991179926389</speed>
  <fix>3d</fix>
</trkpt>
<trkpt lat="-35.3664611" lon="149.1658181">
  <ele>610.06</ele>
  <time>2026-08-27T18:28:18Z</time>
  <course>353.39</course>
  <speed>12.76</speed>
  <fix>3d</fix>
</trkpt>
<trkpt lat="-35.3664244" lon="149.1658129">
  <ele>610.21</ele>
  <time>2026-08-27T18:28:18Z</time>
  <course>350.74</course>
  <speed>12.845543974468344</speed>
  <fix>3d</fix>
</trkpt>
<trkpt lat="-35.3664383" lon="149.1658148">
  <ele>610.09</ele>
  <time>2026-08-27T18:28:18Z</time>
  <course>353.39</course>
  <speed>12.87</speed>
  <fix>3d</fix>
</trkpt>
<trkpt lat="-35.3664014" lon="149.1658096">
  <ele>610.23</ele>
  <time>2026-08-27T18:28:18Z</time>
  <course>351.23</course>
  <speed>12.907455210071426</speed>
  <fix>3d</fix>
</trkpt>
<trkpt lat="-35.3664152" lon="149.1658115">
  <ele>610.12</ele>
  <time>2026-08-27T18:28:18Z</time>
  <course>353.38</course>
  <speed>12.95</speed>
  <fix>3d</fix>
</trkpt>
<trkpt lat="-35.3663783" lon="149.1658063">
  <ele>610.25</ele>
  <time>2026-08-27T18:28:18Z</time>
  <course>351.7</course>
  <speed>12.928484056531918</speed>
  <fix>3d</fix>
</trkpt>
<trkpt lat="-35.3663921" lon="149.1658082">
  <ele>610.14</ele>
  <time>2026-08-27T18:28:18Z</time>
  <course>353.36</course>
  <speed>13.0</speed>
  <fix>3d</fix>
</trkpt>
<trkpt lat="-35.3663551" lon="149.165803">
  <ele>610.26</ele>
  <time>2026-08-27T18:28:18Z</time>
  <course>352.16</course>
  <speed>12.909794731133411</speed>
  <fix>3d</fix>
</trkpt>
<trkpt lat="-35.3663688" lon="149.1658049">
  <ele>610.15</ele>
  <time>2026-08-27T18:28:18Z</time>
  <course>353.32</course>
  <speed>13.01</speed>
  <fix>3d</fix>
</trkpt>
<trkpt lat="-35.3663321" lon="149.1657996">
  <ele>610.28</ele>
  <time>2026-08-27T18:28:18Z</time>
  <course>352.64</course>
  <speed>12.87125867970961</speed>
  <fix>3d</fix>
</trkpt>
<trkpt lat="-35.3663456" lon="149.1658016">
  <ele>610.17</ele>
  <time>2026-08-27T18:28:18Z</time>
  <course>353.27</course>
  <speed>12.98</speed>
  <fix>3d</fix>
</trkpt>
<trkpt lat="-35.3663091" lon="149.1657962">
  <ele>610.29</ele>
  <time>2026-08-27T18:28:18Z</time>
  <course>353.03</course>
  <speed>12.801757691817167</speed>
  <fix>3d</fix>
</trkpt>
<trkpt lat="-35.3663225" lon="149.1657982">
  <ele>610.18</ele>
  <time>2026-08-27T18:28:18Z</time>
  <course>353.21</course>
  <speed>12.93</speed>
  <fix>3d</fix>
</trkpt>
<trkpt lat="-35.366286" lon="149.1657928">
  <ele>610.29</ele>
  <time>2026-08-27T18:28:18Z</time>
  <course>353.21</course>
  <speed>12.743394367279073</speed>
  <fix>3d</fix>
</trkpt>
<trkpt lat="-35.3662995" lon="149.1657948">
  <ele>610.19</ele>
  <time>2026-08-27T18:28:18Z</time>
  <course>353.14</course>
  <speed>12.86</speed>
  <fix>3d</fix>
</trkpt>
<trkpt lat="-35.3662632" lon="149.1657894">
  <ele>610.28</ele>
  <time>2026-08-27T18:28:18Z</time>
  <course>353.14</course>
  <speed>12.706128442605955</speed>
  <fix>3d</fix>
</trkpt>
<trkpt lat="-35.3662767" lon="149.1657915">
  <ele>610.18</ele>
  <time>2026-08-27T18:28:18Z</time>
  <course>353.06</course>
  <speed>12.8</speed>
  <fix>3d</fix>
</trkpt>
<trkpt lat="-35.3662404" lon="149.1657859">
  <ele>610.25</ele>
  <time>2026-08-27T18:28:18Z</time>
  <course>352.86</course>
  <speed>12.68008280730059</speed>
  <fix>3d</fix>
</trkpt>
<trkpt lat="-35.3662538" lon="149.165788">
  <ele>610.16</ele>
  <time>2026-08-27T18:28:18Z</time>
  <course>352.94</course>
  <speed>12.75</speed>
  <fix>3d</fix>
</trkpt>
<trkpt lat="-35.3662176" lon="149.1657824">
  <ele>610.22</ele>
  <time>2026-08-27T18:28:18Z</time>
  <course>352.42</course>
  <speed>12.68516062176589</speed>
  <fix>3d</fix>
</trkpt>
<trkpt lat="-35.366231" lon="149.1657845">
  <ele>610.13</ele>
  <time>2026-08-27T18:28:18Z</time>
  <course>352.77</course>
  <speed>12.73</speed>
  <fix>3d</fix>
</trkpt>
<trkpt lat="-35.3661949" lon="149.1657787">
  <ele>610.19</ele>
  <time>2026-08-27T18:28:18Z</time>
  <course>351.93</course>
  <speed>12.702920923945012</speed>
  <fix>3d</fix>
</trkpt>
<trkpt lat="-35.3662084" lon="149.1657809">
  <ele>610.1</ele>
  <time>2026-08-27T18:28:18Z</time>
  <course>352.55</course>
  <speed>12.73</speed>
  <fix>3d</fix>
</trkpt>
<trkpt lat="-35.3661721" lon="149.1657749">
  <ele>610.17</ele>
  <time>2026-08-27T18:28:18Z</time>
  <course>351.46</course>
  <speed>12.730852288829682</speed>
  <fix>3d</fix>
</trkpt>
<trkpt lat="-35.3661857" lon="149.1657773">
  <ele>610.07</ele>
  <time>2026-08-27T18:28:18Z</time>
  <course>352.29</course>
  <speed>12.74</speed>
  <fix>3d</fix>
</trkpt>
<trkpt lat="-35.3661494" lon="149.165771">
  <ele>610.15</ele>
  <time>2026-08-27T18:28:18Z</time>
  <course>351.01</course>
  <speed>12.749137225710609</speed>
  <fix>3d</fix>
</trkpt>
<trkpt lat="-35.366163" lon="149.1657734">
  <ele>610.05</ele>
  <time>2026-08-27T18:28:18Z</time>
  <course>352.02</course>
  <speed>12.76</speed>
  <fix>3d</fix>
</trkpt>
<trkpt lat="-35.3661266" lon="149.1657669">
  <ele>610.13</ele>
  <time>2026-08-27T18:28:18Z</time>
  <course>350.61</course>
  <speed>12.787470430073338</speed>
  <fix>3d</fix>
</trkpt>
<trkpt lat="-35.3661403" lon="149.1657695">
  <ele>610.03</ele>
  <time>2026-08-27T18:28:18Z</time>
  <course>351.75</course>
  <speed>12.78</speed>
  <fix>3d</fix>
</trkpt>
<trkpt lat="-35.3661039" lon="149.1657628">
  <ele>610.12</ele>
  <time>2026-08-27T18:28:18Z</time>
  <course>350.25</course>
  <speed>12.824538978068567</speed>
  <fix>3d</fix>
</trkpt>
<trkpt lat="-35.3661175" lon="149.1657654">
  <ele>610.02</ele>
  <time>2026-08-27T18:28:18Z</time>
  <course>351.51</course>
  <speed>12.81</speed>
  <fix>3d</fix>
</trkpt>
<trkpt lat="-35.3660811" lon="149.1657585">
  <ele>610.11</ele>
  <time>2026-08-27T18:28:18Z</time>
  <course>349.95</course>
  <speed>12.860237167330936</speed>
  <fix>3d</fix>
</trkpt>
<trkpt lat="-35.3660948" lon="149.1657611">
  <ele>610.02</ele>
  <time>2026-08-27T18:28:18Z</time>
  <course>351.31</course>
  <speed>12.85</speed>
  <fix>3d</fix>
</trkpt>
<trkpt lat="-35.3660581" lon="149.1657541">
  <ele>610.11</ele>
  <time>2026-08-27T18:28:18Z</time>
  <course>349.71</course>
  <speed>12.905909499140307</speed>
  <fix>3d</fix>
</trkpt>
<trkpt lat="-35.3660719" lon="149.1657568">
  <ele>610.02</ele>
  <time>2026-08-27T18:28:18Z</time>
  <course>351.14</course>
  <speed>12.89</speed>
  <fix>3d</fix>
</trkpt>
<trkpt lat="-35.366035" lon="149.1657497">
  <ele>610.11</ele>
  <time>2026-08-27T18:28:18Z</time>
  <course>349.54</course>
  <speed>12.948532735410604</speed>
  <fix>3d</fix>
</trkpt>
<trkpt lat="-35.3660489" lon="149.1657523">
  <ele>610.02</ele>
  <time>2026-08-27T18:28:18Z</time>
  <course>351.03</course>
  <speed>12.93</speed>
  <fix>3d</fix>
</trkpt>
<trkpt lat="-35.3660119" lon="149.1657452">
  <ele>610.12</ele>
  <time>2026-08-27T18:28:18Z</time>
  <course>349.46</course>
  <speed>12.98960353513532</speed>
  <fix>3d</fix>
</trkpt>
<trkpt lat="-35.3660259" lon="149.1657479">
  <ele>610.03</ele>
  <time>2026-08-27T18:28:18Z</time>
  <course>350.95</course>
  <speed>12.97</speed>
  <fix>3d</fix>
</trkpt>
<trkpt lat="-35.3659888" lon="149.1657407">
  <ele>610.13</ele>
  <time>2026-08-27T18:28:18Z</time>
  <course>349.5</course>
  <speed>13.02079874662073</speed>
  <fix>3d</fix>
</trkpt>
<trkpt lat="-35.3660029" lon="149.1657434">
  <ele>610.03</ele>
  <time>2026-08-27T18:28:18Z</time>
  <course>350.93</course>
  <speed>13.0</speed>
  <fix>3d</fix>
</trkpt>
<trkpt lat="-35.3659656" lon="149.1657362">
  <ele>610.14</ele>
  <time>2026-08-27T18:28:18Z</time>
  <course>349.58</course>
  <speed>13.05874802574887</speed>
  <fix>3d</fix>
</trkpt>
<trkpt lat="-35.3659798" lon="149.1657389">
  <ele>610.04</ele>
  <time>2026-08-27T18:28:18Z</time>
  <course>350.95</course>
  <speed>13.04</speed>
  <fix>3d</fix>
</trkpt>
<trkpt lat="-35.3659424" lon="149.1657317">
  <ele>610.15</ele>
  <time>2026-08-27T18:28:18Z</time>
  <course>349.7</course>
  <speed>13.075415863367404</speed>
  <fix>3d</fix>
</trkpt>
<trkpt lat="-35.3659565" lon="149.1657344">
  <ele>610.05</ele>
  <time>2026-08-27T18:28:18Z</time>
  <course>351.02</course>
  <speed>13.06</speed>
  <fix>3d</fix>
</trkpt>
<trkpt lat="-35.3659193" lon="149.1657273">
  <ele>610.17</ele>
  <time>2026-08-27T18:28:18Z</time>
  <course>349.92</course>
  <speed>13.090607319754115</speed>
  <fix>3d</fix>
</trkpt>
<trkpt lat="-35.3659333" lon="149.1657299">
  <ele>610.06</ele>
  <time>2026-08-27T18:28:18Z</time>
  <course>351.12</course>
  <speed>13.08</speed>
  <fix>3d</fix>
</trkpt>
<trkpt lat="-35.365896" lon="149.165723">
  <ele>610.17</ele>
  <time>2026-08-27T18:28:18Z</time>
  <course>350.11</course>
  <speed>13.105880359594314</speed>
  <fix>3d</fix>
</trkpt>
<trkpt lat="-35.3659101" lon="149.1657255">
  <ele>610.07</ele>
  <time>2026-08-27T18:28:18Z</time>
  <course>351.26</course>
  <speed>13.1</speed>
  <fix>3d</fix>
</trkpt>
<trkpt lat="-35.3658729" lon="149.1657187">
  <ele>610.18</ele>
  <time>2026-08-27T18:28:18Z</time>
  <course>350.3</course>
  <speed>13.119775150512298</speed>
  <fix>3d</fix>
</trkpt>
<trkpt lat="-35.3658868" lon="149.1657211">
  <ele>610.08</ele>
  <time>2026-08-27T18:28:18Z</time>
  <course>351.42</course>
  <speed>13.12</speed>
  <fix>3d</fix>
</trkpt>
<trkpt lat="-35.3658496" lon="149.1657145">
  <ele>610.17</ele>
  <time>2026-08-27T18:28:18Z</time>
  <course>350.54</course>
  <speed>13.133807521050398</speed>
  <fix>3d</fix>
</trkpt>
<trkpt lat="-35.3658635" lon="149.1657169">
  <ele>610.08</ele>
  <time>2026-08-27T18:28:18Z</time>
  <course>351.59</course>
  <speed>13.14</speed>
  <fix>3d</fix>
</trkpt>
<trkpt lat="-35.3658262" lon="149.1657104">
  <ele>610.18</ele>
  <time>2026-08-27T18:28:18Z</time>
  <course>350.74</course>
  <speed>13.149372608607607</speed>
  <fix>3d</fix>
</trkpt>
<trkpt lat="-35.3658401" lon="149.1657127">
  <ele>610.08</ele>
  <time>2026-08-27T18:28:18Z</time>
  <course>351.77</course>
  <speed>13.15</speed>
  <fix>3d</fix>
</trkpt>
<trkpt lat="-35.3658026" lon="149.1657063">
  <ele>610.18</ele>
  <time>2026-08-27T18:28:18Z</time>
  <course>350.96</course>
  <speed>13.163646911095725</speed>
  <fix>3d</fix>
</trkpt>
<trkpt lat="-35.3658168" lon="149.1657086">
  <ele>610.08</ele>
  <time>2026-08-27T18:28:18Z</time>
  <course>351.94</course>
  <speed>13.16</speed>
  <fix>3d</fix>
</trkpt>
<trkpt lat="-35.3657791" lon="149.1657023">
  <ele>610.18</ele>
  <time>2026-08-27T18:28:18Z</time>
  <course>351.19</course>
  <speed>13.169487461552935</speed>
  <fix>3d</fix>
</trkpt>
<trkpt lat="-35.3657933" lon="149.1657046">
  <ele>610.08</ele>
  <time>2026-08-27T18:28:18Z</time>
  <course>352.1</course>
  <speed>13.17</speed>
  <fix>3d</fix>
</trkpt>
<trkpt lat="-35.3657556" lon="149.1656984">
  <ele>610.19</ele>
  <time>2026-08-27T18:28:18Z</time>
  <course>351.46</course>
  <speed>13.164171071510731</speed>
  <fix>3d</fix>
</trkpt>
<trkpt lat="-35.3657698" lon="149.1657006">
  <ele>610.08</ele>
  <time>2026-08-27T18:28:18Z</time>
  <course>352.25</course>
  <speed>13.17</speed>
  <fix>3d</fix>
</trkpt>
<trkpt lat="-35.3657321" lon="149.1656946">
  <ele>610.19</ele>
  <time>2026-08-27T18:28:18Z</time>
  <course>351.76</course>
  <speed>13.150346003052544</speed>
  <fix>3d</fix>
</trkpt>
<trkpt lat="-35.3657464" lon="149.1656967">
  <ele>610.08</ele>
  <time>2026-08-27T18:28:18Z</time>
  <course>352.39</course>
  <speed>13.16</speed>
  <fix>3d</fix>
</trkpt>
<trkpt lat="-35.3657087" lon="149.1656908">
  <ele>610.19</ele>
  <time>2026-08-27T18:28:18Z</time>
  <course>352.02</course>
  <speed>13.127939670793737</speed>
  <fix>3d</fix>
</trkpt>
<trkpt lat="-35.3657229" lon="149.1656929">
  <ele>610.09</ele>
  <time>2026-08-27T18:28:18Z</time>
  <course>352.51</course>
  <speed>13.14</speed>
  <fix>3d</fix>
</trkpt>
<trkpt lat="-35.3656854" lon="149.1656871">
  <ele>610.19</ele>
  <time>2026-08-27T18:28:18Z</time>
  <course>352.21</course>
  <speed>13.094372837215229</speed>
  <fix>3d</fix>
</trkpt>
<trkpt lat="-35.3656995" lon="149.1656892">
  <ele>610.09</ele>
  <time>2026-08-27T18:28:18Z</time>
  <course>352.61</course>
  <speed>13.12</speed>
  <fix>3d</fix>
</trkpt>
<trkpt lat="-35.3656621" lon="149.1656834">
  <ele>610.19</ele>
  <time>2026-08-27T18:28:18Z</time>
  <course>352.36</course>
  <speed>13.07202356179027</speed>
  <fix>3d</fix>
</trkpt>
<trkpt lat="-35.3656761" lon="149.1656855">
  <ele>610.09</ele>
  <time>2026-08-27T18:28:18Z</time>
  <course>352.7</course>
  <speed>13.09</speed>
  <fix>3d</fix>
</trkpt>
<trkpt lat="-35.3656388" lon="149.1656798">
  <ele>610.19</ele>
  <time>2026-08-27T18:28:18Z</time>
  <course>352.44</course>
  <speed>13.050934832417179</speed>
  <fix>3d</fix>
</trkpt>
<trkpt lat="-35.3656528" lon="149.1656818">
  <ele>610.09</ele>
  <time>2026-08-27T18:28:18Z</time>
  <course>352.76</course>
  <speed>13.07</speed>
  <fix>3d</fix>
</trkpt>
<trkpt lat="-35.3656157" lon="149.1656762">
  <ele>610.19</ele>
  <time>2026-08-27T18:28:18Z</time>
  <course>352.46</course>
  <speed>13.031089747216079</speed>
  <fix>3d</fix>
</trkpt>
<trkpt lat="-35.3656296" lon="149.1656783">
  <ele>610.09</ele>
  <time>2026-08-27T18:28:18Z</time>
  <course>352.79</course>
  <speed>13.05</speed>
  <fix>3d</fix>
</trkpt>
<trkpt lat="-35.3655925" lon="149.1656726">
  <ele>610.18</ele>
  <time>2026-08-27T18:28:18Z</time>
  <course>352.47</course>
  <speed>13.011245136419495</speed>
  <fix>3d</fix>
</trkpt>
<trkpt lat="-35.3656064" lon="149.1656747">
  <ele>610.08</ele>
  <time>2026-08-27T18:28:18Z</time>
  <course>352.79</course>
  <speed>13.03</speed>
  <fix>3d</fix>
</trkpt>
<trkpt lat="-35.3655691" lon="149.165669">
  <ele>610.18</ele>
  <time>2026-08-27T18:28:18Z</time>
  <course>352.41</course>
  <speed>12.992651769365636</speed>
  <fix>3d</fix>
</trkpt>
<trkpt lat="-35.3655831" lon="149.1656711">
  <ele>610.08</ele>
  <time>2026-08-27T18:28:18Z</time>
  <course>352.76</course>
  <speed>13.01</speed>
  <fix>3d</fix>
</trkpt>
<trkpt lat="-35.3655459" lon="149.1656654">
  <ele>610.17</ele>
  <time>2026-08-27T18:28:18Z</time>
  <course>352.38</course>
  <speed>12.974070294244592</speed>
  <fix>3d</fix>
</trkpt>
<trkpt lat="-35.36556" lon="149.1656674">
  <ele>610.07</ele>
  <time>2026-08-27T18:28:18Z</time>
  <course>352.71</course>
  <speed>12.99</speed>
  <fix>3d</fix>
</trkpt>
<trkpt lat="-35.3655227" lon="149.1656617">
  <ele>610.17</ele>
  <time>2026-08-27T18:28:18Z</time>
  <course>352.26</course>
  <speed>12.966695801166928</speed>
  <fix>3d</fix>
</trkpt>
<trkpt lat="-35.3655368" lon="149.1656638">
  <ele>610.07</ele>
  <time>2026-08-27T18:28:18Z</time>
  <course>352.65</course>
  <speed>12.98</speed>
  <fix>3d</fix>
</trkpt>
<trkpt lat="-35.3654996" lon="149.165658">
  <ele>610.17</ele>
  <time>2026-08-27T18:28:18Z</time>
  <course>352.18</course>
  <speed>12.948146585515628</speed>
  <fix>3d</fix>
</trkpt>
<trkpt lat="-35.3655136" lon="149.1656601">
  <ele>610.07</ele>
  <time>2026-08-27T18:28:18Z</time>
  <course>352.56</course>
  <speed>12.96</speed>
  <fix>3d</fix>
</trkpt>
<trkpt lat="-35.3654765" lon="149.1656542">
  <ele>610.18</ele>
  <time>2026-08-27T18:28:18Z</time>
  <course>352.13</course>
  <speed>12.93091257413799</speed>
  <fix>3d</fix>
</trkpt>
<trkpt lat="-35.3654906" lon="149.1656564">
  <ele>610.07</ele>
  <time>2026-08-27T18:28:18Z</time>
  <course>352.46</course>
  <speed>12.94</speed>
  <fix>3d</fix>
</trkpt>
<trkpt lat="-35.3654534" lon="149.1656504">
  <ele>610.18</ele>
  <time>2026-08-27T18:28:18Z</time>
  <course>352.01</course>
  <speed>12.923629521152328</speed>
  <fix>3d</fix>
</trkpt>
<trkpt lat="-35.3654676" lon="149.1656525">
  <ele>610.06</ele>
  <time>2026-08-27T18:28:18Z</time>
  <course>352.37</course>
  <speed>12.93</speed>
  <fix>3d</fix>
</trkpt>
<trkpt lat="-35.3654304" lon="149.1656466">
  <ele>610.17</ele>
  <time>2026-08-27T18:28:18Z</time>
  <course>351.9</course>
  <speed>12.906471245077022</speed>
  <fix>3d</fix>
</trkpt>
<trkpt lat="-35.3654445" lon="149.1656487">
  <ele>610.06</ele>
  <time>2026-08-27T18:28:18Z</time>
  <course>352.27</course>
  <speed>12.91</speed>
  <fix>3d</fix>
</trkpt>
<trkpt lat="-35.3654073" lon="149.1656427">
  <ele>610.17</ele>
  <time>2026-08-27T18:28:18Z</time>
  <course>351.77</course>
  <speed>12.899259668678665</speed>
  <fix>3d</fix>
</trkpt>
<trkpt lat="-35.3654216" lon="149.1656449">
  <ele>610.06</ele>
  <time>2026-08-27T18:28:18Z</time>
  <course>352.18</course>
  <speed>12.9</speed>
  <fix>3d</fix>
</trkpt>
<trkpt lat="-35.3653844" lon="149.1656388">
  <ele>610.16</ele>
  <time>2026-08-27T18:28:18Z</time>
  <course>351.65</course>
  <speed>12.900620140132798</speed>
  <fix>3d</fix>
</trkpt>
<trkpt lat="-35.3653986" lon="149.1656411">
  <ele>610.06</ele>
  <time>2026-08-27T18:28:18Z</time>
  <course>352.1</course>
  <speed>12.89</speed>
  <fix>3d</fix>
</trkpt>
<trkpt lat="-35.3653615" lon="149.1656348">
  <ele>610.15</ele>
  <time>2026-08-27T18:28:18Z</time>
  <course>351.53</course>
  <speed>12.903363902486824</speed>
  <fix>3d</fix>
</trkpt>
<trkpt lat="-35.3653757" lon="149.1656372">
  <ele>610.05</ele>
  <time>2026-08-27T18:28:18Z</time>
  <course>352.03</course>
  <speed>12.89</speed>
  <fix>3d</fix>
</trkpt>
<trkpt lat="-35.3653384" lon="149.1656309">
  <ele>610.14</ele>
  <time>2026-08-27T18:28:18Z</time>
  <course>351.4</course>
  <speed>12.904747188534923</speed>
  <fix>3d</fix>
</trkpt>
<trkpt lat="-35.3653527" lon="149.1656332">
  <ele>610.05</ele>
  <time>2026-08-27T18:28:18Z</time>
  <course>351.97</course>
  <speed>12.89</speed>
  <fix>3d</fix>
</trkpt>
<trkpt lat="-35.3653153" lon="149.1656268">
  <ele>610.14</ele>
  <time>2026-08-27T18:28:18Z</time>
  <course>351.29</course>
  <speed>12.906138074575212</speed>
  <fix>3d</fix>
</trkpt>
<trkpt lat="-35.3653298" lon="149.1656292">
  <ele>610.05</ele>
  <time>2026-08-27T18:28:18Z</time>
  <course>351.91</course>
  <speed>12.9</speed>
  <fix>3d</fix>
</trkpt>
<trkpt lat="-35.3652923" lon="149.1656228">
  <ele>610.14</ele>
  <time>2026-08-27T18:28:18Z</time>
  <course>351.19</course>
  <speed>12.917437826442209</speed>
  <fix>3d</fix>
</trkpt>
<trkpt lat="-35.3653068" lon="149.1656252">
  <ele>610.05</ele>
  <time>2026-08-27T18:28:18Z</time>
  <course>351.86</course>
  <speed>12.91</speed>
  <fix>3d</fix>
</trkpt>
<trkpt lat="-35.3652694" lon="149.1656188">
  <ele>610.14</ele>
  <time>2026-08-27T18:28:18Z</time>
  <course>351.14</course>
  <speed>12.92874317170853</speed>
  <fix>3d</fix>
</trkpt>
<trkpt lat="-35.3652838" lon="149.1656211">
  <ele>610.05</ele>
  <time>2026-08-27T18:28:18Z</time>
  <course>351.83</course>
  <speed>12.91</speed>
  <fix>3d</fix>
</trkpt>
<trkpt lat="-35.3652465" lon="149.1656147">
  <ele>610.14</ele>
  <time>2026-08-27T18:28:18Z</time>
  <course>351.1</course>
  <speed>12.92874317170853</speed>
  <fix>3d</fix>
</trkpt>
<trkpt lat="-35.3652608" lon="149.1656171">
  <ele>610.05</ele>
  <time>2026-08-27T18:28:18Z</time>
  <course>351.81</course>
  <speed>12.92</speed>
  <fix>3d</fix>
</trkpt>
<trkpt lat="-35.3652236" lon="149.1656107">
  <ele>610.14</ele>
  <time>2026-08-27T18:28:18Z</time>
  <course>351.05</course>
  <speed>12.938643669256836</speed>
  <fix>3d</fix>
</trkpt>
<trkpt lat="-35.3652377" lon="149.1656131">
  <ele>610.05</ele>
  <time>2026-08-27T18:28:18Z</time>
  <course>351.81</course>
  <speed>12.94</speed>
  <fix>3d</fix>
</trkpt>
<trkpt lat="-35.3652006" lon="149.1656067">
  <ele>610.13</ele>
  <time>2026-08-27T18:28:18Z</time>
  <course>351.0</course>
  <speed>12.95844512277611</speed>
  <fix>3d</fix>
</trkpt>
<trkpt lat="-35.3652147" lon="149.165609">
  <ele>610.06</ele>
  <time>2026-08-27T18:28:18Z</time>
  <course>351.82</course>
  <speed>12.96</speed>
  <fix>3d</fix>
</trkpt>
<trkpt lat="-35.3651776" lon="149.1656026">
  <ele>610.13</ele>
  <time>2026-08-27T18:28:18Z</time>
  <course>350.96</course>
  <speed>12.978247185194155</speed>
  <fix>3d</fix>
</trkpt>
<trkpt lat="-35.3651917" lon="149.1656049">
  <ele>610.06</ele>
  <time>2026-08-27T18:28:18Z</time>
  <course>351.84</course>
  <speed>12.98</speed>
  <fix>3d</fix>
</trkpt>
<trkpt lat="-35.3651546" lon="149.1655986">
  <ele>610.14</ele>
  <time>2026-08-27T18:28:18Z</time>
  <course>350.96</course>
  <speed>12.996653415398905</speed>
  <fix>3d</fix>
</trkpt>
<trkpt lat="-35.3651686" lon="149.1656008">
  <ele>610.06</ele>
  <time>2026-08-27T18:28:18Z</time>
  <course>351.86</course>
  <speed>13.0</speed>
  <fix>3d</fix>
</trkpt>
<trkpt lat="-35.3651316" lon="149.1655946">
  <ele>610.15</ele>
  <time>2026-08-27T18:28:18Z</time>
  <course>350.99</course>
  <speed>13.01645881182743</speed>
  <fix>3d</fix>
</trkpt>
<trkpt lat="-35.3651454" lon="149.1655968">
  <ele>610.06</ele>
  <time>2026-08-27T18:28:18Z</time>
  <course>351.89</course>
  <speed>13.02</speed>
  <fix>3d</fix>
</trkpt>
<trkpt lat="-35.3651084" lon="149.1655906">
  <ele>610.15</ele>
  <time>2026-08-27T18:28:18Z</time>
  <course>351.05</course>
  <speed>13.03488012986694</speed>
  <fix>3d</fix>
</trkpt>
<trkpt lat="-35.3651222" lon="149.1655927">
  <ele>610.07</ele>
  <time>2026-08-27T18:28:18Z</time>
  <course>351.93</course>
  <speed>13.05</speed>
  <fix>3d</fix>
</trkpt>
<trkpt lat="-35.365085" lon="149.1655865">
  <ele>610.16</ele>
  <time>2026-08-27T18:28:18Z</time>
  <course>351.11</course>
  <speed>13.053313755518175</speed>
  <fix>3d</fix>
</trkpt>
<trkpt lat="-35.365099" lon="149.1655888">
  <ele>610.07</ele>
  <time>2026-08-27T18:28:18Z</time>
  <course>351.98</course>
  <speed>13.06</speed>
  <fix>3d</fix>
</trkpt>
<trkpt lat="-35.3650618" lon="149.1655825">
  <ele>610.16</ele>
  <time>2026-08-27T18:28:18Z</time>
  <course>351.24</course>
  <speed>13.061852854782892</speed>
  <fix>3d</fix>
</trkpt>
<trkpt lat="-35.3650758" lon="149.1655847">
  <ele>610.08</ele>
  <time>2026-08-27T18:28:18Z</time>
  <course>352.04</course>
  <speed>13.08</speed>
  <fix>3d</fix>
</trkpt>
<trkpt lat="-35.3650384" lon="149.1655786">
  <ele>610.16</ele>
  <time>2026-08-27T18:28:18Z</time>
  <course>351.35</course>
  <speed>13.07040167707175</speed>
  <fix>3d</fix>
</trkpt>
<trkpt lat="-35.3650525" lon="149.1655807">
  <ele>610.08</ele>
  <time>2026-08-27T18:28:18Z</time>
  <course>352.1</course>
  <speed>13.09</speed>
  <fix>3d</fix>
</trkpt>
<trkpt lat="-35.3650151" lon="149.1655746">
  <ele>610.17</ele>
  <time>2026-08-27T18:28:18Z</time>
  <course>351.47</course>
  <speed>13.077618284687773</speed>
  <fix>3d</fix>
</trkpt>
<trkpt lat="-35.3650291" lon="149.1655768">
  <ele>610.09</ele>
  <time>2026-08-27T18:28:18Z</time>
  <course>352.16</course>
  <speed>13.09</speed>
  <fix>3d</fix>
</trkpt>
<trkpt lat="-35.3649917" lon="149.1655707">
  <ele>610.18</ele>
  <time>2026-08-27T18:28:18Z</time>
  <course>351.66</course>
  <speed>13.07628387578061</speed>
  <fix>3d</fix>
</trkpt>
<trkpt lat="-35.3650058" lon="149.1655729">
  <ele>610.1</ele>
  <time>2026-08-27T18:28:18Z</time>
  <course>352.23</course>
  <speed>13.09</speed>
  <fix>3d</fix>
</trkpt>
<trkpt lat="-35.3649684" lon="149.1655669">
  <ele>610.18</ele>
  <time>2026-08-27T18:28:18Z</time>
  <course>351.82</course>
  <speed>13.063724583747165</speed>
  <fix>3d</fix>
</trkpt>
<trkpt lat="-35.3649825" lon="149.165569">
  <ele>610.1</ele>
  <time>2026-08-27T18:28:18Z</time>
  <course>352.29</course>
  <speed>13.09</speed>
  <fix>3d</fix>
</trkpt>
<trkpt lat="-35.3649451" lon="149.165563">
  <ele>610.19</ele>
  <time>2026-08-27T18:28:18Z</time>
  <course>351.98</course>
  <speed>13.052497845240199</speed>
  <fix>3d</fix>
</trkpt>
<trkpt lat="-35.3649592" lon="149.1655652">
  <ele>610.11</ele>
  <time>2026-08-27T18:28:18Z</time>
  <course>352.36</course>
  <speed>13.08</speed>
  <fix>3d</fix>
</trkpt>
<trkpt lat="-35.3649218" lon="149.1655592">
  <ele>610.19</ele>
  <time>2026-08-27T18:28:18Z</time>
  <course>352.11</course>
  <speed>13.03006139663202</speed>
  <fix>3d</fix>
</trkpt>
<trkpt lat="-35.364936" lon="149.1655614">
  <ele>610.11</ele>
  <time>2026-08-27T18:28:18Z</time>
  <course>352.41</course>
  <speed>13.06</speed>
  <fix>3d</fix>
</trkpt>
<trkpt lat="-35.3648986" lon="149.1655555">
  <ele>610.19</ele>
  <time>2026-08-27T18:28:18Z</time>
  <course>352.2</course>
  <speed>13.018851715877249</speed>
  <fix>3d</fix>
</trkpt>
<trkpt lat="-35.3649127" lon="149.1655576">
  <ele>610.11</ele>
  <time>2026-08-27T18:28:18Z</time>
  <course>352.46</course>
  <speed>13.04</speed>
  <fix>3d</fix>
</trkpt>
<trkpt lat="-35.3648754" lon="149.1655517">
  <ele>610.19</ele>
  <time>2026-08-27T18:28:18Z</time>
  <course>352.23</course>
  <speed>13.008935390722792</speed>
  <fix>3d</fix>
</trkpt>
<trkpt lat="-35.3648894" lon="149.1655538">
  <ele>610.11</ele>
  <time>2026-08-27T18:28:18Z</time>
  <course>352.49</course>
  <speed>13.03</speed>
  <fix>3d</fix>
</trkpt>
<trkpt lat="-35.3648521" lon="149.165548">
  <ele>610.18</ele>
  <time>2026-08-27T18:28:18Z</time>
  <course>352.24</course>
  <speed>12.999019193769966</speed>
  <fix>3d</fix>
</trkpt>
<trkpt lat="-35.3648662" lon="149.1655501">
  <ele>610.11</ele>
  <time>2026-08-27T18:28:18Z</time>
  <course>352.51</course>
  <speed>13.02</speed>
  <fix>3d</fix>
</trkpt>
<trkpt lat="-35.3648288" lon="149.1655442">
  <ele>610.17</ele>
  <time>2026-08-27T18:28:18Z</time>
  <course>352.24</course>
  <speed>12.989103125312386</speed>
  <fix>3d</fix>
</trkpt>
<trkpt lat="-35.3648431" lon="149.1655463">
  <ele>610.1</ele>
  <time>2026-08-27T18:28:18Z</time>
  <course>352.51</course>
  <speed>13.0</speed>
  <fix>3d</fix>
</trkpt>
<trkpt lat="-35.3648056" lon="149.1655405">
  <ele>610.17</ele>
  <time>2026-08-27T18:28:18Z</time>
  <course>352.22</course>
  <speed>12.9692713750619</speed>
  <fix>3d</fix>
</trkpt>
<trkpt lat="-35.3648199" lon="149.1655426">
  <ele>610.1</ele>
  <time>2026-08-27T18:28:18Z</time>
  <course>352.5</course>
  <speed>12.99</speed>
  <fix>3d</fix>
</trkpt>
<trkpt lat="-35.3647825" lon="149.1655367">
  <ele>610.16</ele>
  <time>2026-08-27T18:28:18Z</time>
  <course>352.2</course>
  <speed>12.960655847602775</speed>
  <fix>3d</fix>
</trkpt>
<trkpt lat="-35.3647967" lon="149.1655389">
  <ele>610.1</ele>
  <time>2026-08-27T18:28:18Z</time>
  <course>352.47</course>
  <speed>12.98</speed>
  <fix>3d</fix>
</trkpt>
<trkpt lat="-35.3647593" lon="149.1655329">
  <ele>610.16</ele>
  <time>2026-08-27T18:28:18Z</time>
  <course>352.14</course>
  <speed>12.950741291524588</speed>
  <fix>3d</fix>
</trkpt>
<trkpt lat="-35.3647736" lon="149.1655351">
  <ele>610.1</ele>
  <time>2026-08-27T18:28:18Z</time>
  <course>352.44</course>
  <speed>12.96</speed>
  <fix>3d</fix>
</trkpt>
<trkpt lat="-35.3647362" lon="149.1655292">
  <ele>610.16</ele>
  <time>2026-08-27T18:28:18Z</time>
  <course>352.11</course>
  <speed>12.942136608767504</speed>
  <fix>3d</fix>
</trkpt>
<trkpt lat="-35.3647506" lon="149.1655314">
  <ele>610.1</ele>
  <time>2026-08-27T18:28:18Z</time>
  <course>352.4</course>
  <speed>12.95</speed>
  <fix>3d</fix>
</trkpt>
<trkpt lat="-35.3647131" lon="149.1655254">
  <ele>610.16</ele>
  <time>2026-08-27T18:28:18Z</time>
  <course>352.04</course>
  <speed>12.923629521152328</speed>
  <fix>3d</fix>
</trkpt>
<trkpt lat="-35.3647275" lon="149.1655276">
  <ele>610.1</ele>
  <time>2026-08-27T18:28:18Z</time>
  <course>352.36</course>
  <speed>12.94</speed>
  <fix>3d</fix>
</trkpt>
<trkpt lat="-35.3646901" lon="149.1655215">
  <ele>610.16</ele>
  <time>2026-08-27T18:28:18Z</time>
  <course>351.99</course>
  <speed>12.9150454896605</speed>
  <fix>3d</fix>
</trkpt>
<trkpt lat="-35.3647045" lon="149.1655238">
  <ele>610.1</ele>
  <time>2026-08-27T18:28:18Z</time>
  <course>352.31</course>
  <speed>12.93</speed>
  <fix>3d</fix>
</trkpt>
<trkpt lat="-35.3646671" lon="149.1655177">
  <ele>610.16</ele>
  <time>2026-08-27T18:28:18Z</time>
  <course>351.9</course>
  <speed>12.916381072111491</speed>
  <fix>3d</fix>
</trkpt>
<trkpt lat="-35.3646814" lon="149.1655199">
  <ele>610.1</ele>
  <time>2026-08-27T18:28:18Z</time>
  <course>352.26</course>
  <speed>12.92</speed>
  <fix>3d</fix>
</trkpt>
<trkpt lat="-35.3646441" lon="149.1655138">
  <ele>610.16</ele>
  <time>2026-08-27T18:28:18Z</time>
  <course>351.85</course>
  <speed>12.907815461959471</speed>
  <fix>3d</fix>
</trkpt>
<trkpt lat="-35.3646585" lon="149.1655161">
  <ele>610.11</ele>
  <time>2026-08-27T18:28:18Z</time>
  <course>352.2</course>
  <speed>12.91</speed>
  <fix>3d</fix>
</trkpt>
<trkpt lat="-35.3646211" lon="149.16551">
  <ele>610.16</ele>
  <time>2026-08-27T18:28:18Z</time>
  <course>351.76</course>
  <speed>12.909167285305433</speed>
  <fix>3d</fix>
</trkpt>
<trkpt lat="-35.3646355" lon="149.1655122">
  <ele>610.11</ele>
  <time>2026-08-27T18:28:18Z</time>
  <course>352.16</course>
  <speed>12.91</speed>
  <fix>3d</fix>
</trkpt>
<trkpt lat="-35.3645979" lon="149.165506">
  <ele>610.16</ele>
  <time>2026-08-27T18:28:18Z</time>
  <course>351.65</course>
  <speed>12.91052671272555</speed>
  <fix>3d</fix>
</trkpt>
<trkpt lat="-35.3646125" lon="149.1655083">
  <ele>610.1</ele>
  <time>2026-08-27T18:28:18Z</time>
  <course>352.11</course>
  <speed>12.91</speed>
  <fix>3d</fix>
</trkpt>
<trkpt lat="-35.3645749" lon="149.1655021">
  <ele>610.17</ele>
  <time>2026-08-27T18:28:19Z</time>
  <course>351.58</course>
  <speed>12.921799410298862</speed>
  <fix>3d</fix>
</trkpt>
<trkpt lat="-35.3645896" lon="149.1655044">
  <ele>610.1</ele>
  <time>2026-08-27T18:28:19Z</time>
  <course>352.07</course>
  <speed>12.92</speed>
  <fix>3d</fix>
</trkpt>
<trkpt lat="-35.3645519" lon="149.1654981">
  <ele>610.17</ele>
  <time>2026-08-27T18:28:19Z</time>
  <course>351.54</course>
  <speed>12.923172984990954</speed>
  <fix>3d</fix>
</trkpt>
<trkpt lat="-35.3645665" lon="149.1655005">
  <ele>610.1</ele>
  <time>2026-08-27T18:28:19Z</time>
  <course>352.04</course>
  <speed>12.92</speed>
  <fix>3d</fix>
</trkpt>
<trkpt lat="-35.3645289" lon="149.1654942">
  <ele>610.16</ele>
  <time>2026-08-27T18:28:19Z</time>
  <course>351.5</course>
  <speed>12.933077746615458</speed>
  <fix>3d</fix>
</trkpt>
<trkpt lat="-35.3645434" lon="149.1654965">
  <ele>610.1</ele>
  <time>2026-08-27T18:28:19Z</time>
  <course>352.01</course>
  <speed>12.93</speed>
  <fix>3d</fix>
</trkpt>
<trkpt lat="-35.364506" lon="149.1654902">
  <ele>610.16</ele>
  <time>2026-08-27T18:28:19Z</time>
  <course>351.47</course>
  <speed>12.933077746615458</speed>
  <fix>3d</fix>
</trkpt>
<trkpt lat="-35.3645205" lon="149.1654926">
  <ele>610.1</ele>
  <time>2026-08-27T18:28:19Z</time>
  <course>351.99</course>
  <speed>12.94</speed>
  <fix>3d</fix>
</trkpt>
<trkpt lat="-35.364483" lon="149.1654863">
  <ele>610.15</ele>
  <time>2026-08-27T18:28:19Z</time>
  <course>351.41</course>
  <speed>12.944361706936345</speed>
  <fix>3d</fix>
</trkpt>
<trkpt lat="-35.3644974" lon="149.1654886">
  <ele>610.1</ele>
  <time>2026-08-27T18:28:19Z</time>
  <course>351.99</course>
  <speed>12.95</speed>
  <fix>3d</fix>
</trkpt>
<trkpt lat="-35.36446" lon="149.1654823">
  <ele>610.15</ele>
  <time>2026-08-27T18:28:19Z</time>
  <course>351.34</course>
  <speed>12.964169853870322</speed>
  <fix>3d</fix>
</trkpt>
<trkpt lat="-35.3644743" lon="149.1654846">
  <ele>610.1</ele>
  <time>2026-08-27T18:28:19Z</time>
  <course>351.99</course>
  <speed>12.96</speed>
  <fix>3d</fix>
</trkpt>
<trkpt lat="-35.3644369" lon="149.1654783">
  <ele>610.15</ele>
  <time>2026-08-27T18:28:19Z</time>
  <course>351.29</course>
  <speed>12.97407414808471</speed>
  <fix>3d</fix>
</trkpt>
<trkpt lat="-35.3644513" lon="149.1654807">
  <ele>610.1</ele>
  <time>2026-08-27T18:28:19Z</time>
  <course>351.99</course>
  <speed>12.98</speed>
  <fix>3d</fix>
</trkpt>
<trkpt lat="-35.3644139" lon="149.1654744">
  <ele>610.16</ele>
  <time>2026-08-27T18:28:19Z</time>
  <course>351.29</course>
  <speed>12.9938831763257</speed>
  <fix>3d</fix>
</trkpt>
<trkpt lat="-35.3644282" lon="149.1654767">
  <ele>610.1</ele>
  <time>2026-08-27T18:28:19Z</time>
  <course>351.99</course>
  <speed>13.0</speed>
  <fix>3d</fix>
</trkpt>
<trkpt lat="-35.3643908" lon="149.1654704">
  <ele>610.16</ele>
  <time>2026-08-27T18:28:19Z</time>
  <course>351.32</course>
  <speed>13.003787909682316</speed>
  <fix>3d</fix>
</trkpt>
<trkpt lat="-35.364405" lon="149.1654727">
  <ele>610.1</ele>
  <time>2026-08-27T18:28:19Z</time>
  <course>352.0</course>
  <speed>13.01</speed>
  <fix>3d</fix>
</trkpt>
<trkpt lat="-35.3643676" lon="149.1654664">
  <ele>610.16</ele>
  <time>2026-08-27T18:28:19Z</time>
  <course>351.34</course>
  <speed>13.012321084264713</speed>
  <fix>3d</fix>
</trkpt>
<trkpt lat="-35.3643819" lon="149.1654687">
  <ele>610.1</ele>
  <time>2026-08-27T18:28:19Z</time>
  <course>352.02</course>
  <speed>13.03</speed>
  <fix>3d</fix>
</trkpt>
<trkpt lat="-35.3643443" lon="149.1654624">
  <ele>610.16</ele>
  <time>2026-08-27T18:28:19Z</time>
  <course>351.39</course>
  <speed>13.032133363344622</speed>
  <fix>3d</fix>
</trkpt>
<trkpt lat="-35.3643586" lon="149.1654647">
  <ele>610.1</ele>
  <time>2026-08-27T18:28:19Z</time>
  <course>352.05</course>
  <speed>13.04</speed>
  <fix>3d</fix>
</trkpt>
<trkpt lat="-35.364321" lon="149.1654584">
  <ele>610.16</ele>
  <time>2026-08-27T18:28:19Z</time>
  <course>351.44</course>
  <speed>13.040678663321168</speed>
  <fix>3d</fix>
</trkpt>
<trkpt lat="-35.3643354" lon="149.1654608">
  <ele>610.11</ele>
  <time>2026-08-27T18:28:19Z</time>
  <course>352.08</course>
  <speed>13.05</speed>
  <fix>3d</fix>
</trkpt>
<trkpt lat="-35.3642977" lon="149.1654545">
  <ele>610.16</ele>
  <time>2026-08-27T18:28:19Z</time>
  <course>351.51</course>
  <speed>13.040678663321168</speed>
  <fix>3d</fix>
</trkpt>
<trkpt lat="-35.3643121" lon="149.1654567">
  <ele>610.11</ele>
  <time>2026-08-27T18:28:19Z</time>
  <course>352.11</course>
  <speed>13.06</speed>
  <fix>3d</fix>
</trkpt>
<trkpt lat="-35.3642745" lon="149.1654506">
  <ele>610.17</ele>
  <time>2026-08-27T18:28:19Z</time>
  <course>351.65</course>
  <speed>13.039325135910984</speed>
  <fix>3d</fix>
</trkpt>
<trkpt lat="-35.3642889" lon="149.1654528">
  <ele>610.11</ele>
  <time>2026-08-27T18:28:19Z</time>
  <course>352.14</course>
  <speed>13.06</speed>
  <fix>3d</fix>
</trkpt>
<trkpt lat="-35.3642512" lon="149.1654466">
  <ele>610.17</ele>
  <time>2026-08-27T18:28:19Z</time>
  <course>351.75</course>
  <speed>13.037979137887897</speed>
  <fix>3d</fix>
</trkpt>
<trkpt lat="-35.3642656" lon="149.1654489">
  <ele>610.12</ele>
  <time>2026-08-27T18:28:19Z</time>
  <course>352.18</course>
  <speed>13.06</speed>
  <fix>3d</fix>
</trkpt>
<trkpt lat="-35.364228" lon="149.1654428">
  <ele>610.17</ele>
  <time>2026-08-27T18:28:19Z</time>
  <course>351.84</course>
  <speed>13.026730211376915</speed>
  <fix>3d</fix>
</trkpt>
<trkpt lat="-35.3642423" lon="149.165445">
  <ele>610.12</ele>
  <time>2026-08-27T18:28:19Z</time>
  <course>352.23</course>
  <speed>13.05</speed>
  <fix>3d</fix>
</trkpt>
<trkpt lat="-35.3642048" lon="149.1654389">
  <ele>610.17</ele>
  <time>2026-08-27T18:28:19Z</time>
  <course>351.92</course>
  <speed>13.015486929039573</speed>
  <fix>3d</fix>
</trkpt>
<trkpt lat="-35.3642192" lon="149.1654411">
  <ele>610.13</ele>
  <time>2026-08-27T18:28:19Z</time>
  <course>352.27</course>
  <speed>13.04</speed>
  <fix>3d</fix>
</trkpt>
<trkpt lat="-35.3641817" lon="149.1654351">
  <ele>610.18</ele>
  <time>2026-08-27T18:28:19Z</time>
  <course>351.98</course>
  <speed>13.014161517362538</speed>
  <fix>3d</fix>
</trkpt>
<trkpt lat="-35.364196" lon="149.1654373">
  <ele>610.13</ele>
  <time>2026-08-27T18:28:19Z</time>
  <course>352.31</course>
  <speed>13.03</speed>
  <fix>3d</fix>
</trkpt>
<trkpt lat="-35.3641585" lon="149.1654312">
  <ele>610.18</ele>
  <time>2026-08-27T18:28:19Z</time>
  <course>352.02</course>
  <speed>13.00293043894337</speed>
  <fix>3d</fix>
</trkpt>
<trkpt lat="-35.3641728" lon="149.1654335">
  <ele>610.13</ele>
  <time>2026-08-27T18:28:19Z</time>
  <course>352.34</course>
  <speed>13.03</speed>
  <fix>3d</fix>
</trkpt>
<trkpt lat="-35.3641352" lon="149.1654274">
  <ele>610.18</ele>
  <time>2026-08-27T18:28:19Z</time>
  <course>352.05</course>
  <speed>12.993017355487522</speed>
  <fix>3d</fix>
</trkpt>
<trkpt lat="-35.3641496" lon="149.1654297">
  <ele>610.13</ele>
  <time>2026-08-27T18:28:19Z</time>
  <course>352.36</course>
  <speed>13.02</speed>
  <fix>3d</fix>
</trkpt>
<trkpt lat="-35.3641119" lon="149.1654236">
  <ele>610.18</ele>
  <time>2026-08-27T18:28:19Z</time>
  <course>352.06</course>
  <speed>12.993017355487522</speed>
  <fix>3d</fix>
</trkpt>
<trkpt lat="-35.3641263" lon="149.1654259">
  <ele>610.13</ele>
  <time>2026-08-27T18:28:19Z</time>
  <course>352.38</course>
  <speed>13.01</speed>
  <fix>3d</fix>
</trkpt>
<trkpt lat="-35.3640888" lon="149.1654198">
  <ele>610.18</ele>
  <time>2026-08-27T18:28:19Z</time>
  <course>352.09</course>
  <speed>12.983104405341583</speed>
  <fix>3d</fix>
</trkpt>
<trkpt lat="-35.3641032" lon="149.1654221">
  <ele>610.13</ele>
  <time>2026-08-27T18:28:19Z</time>
  <course>352.38</course>
  <speed>13.0</speed>
  <fix>3d</fix>
</trkpt>
<trkpt lat="-35.3640657" lon="149.165416">
  <ele>610.18</ele>
  <time>2026-08-27T18:28:19Z</time>
  <course>352.12</course>
  <speed>12.973191588811135</speed>
  <fix>3d</fix>
</trkpt>
<trkpt lat="-35.36408" lon="149.1654183">
  <ele>610.13</ele>
  <time>2026-08-27T18:28:19Z</time>
  <course>352.38</course>
  <speed>13.0</speed>
  <fix>3d</fix>
</trkpt>
<trkpt lat="-35.3640426" lon="149.1654123">
  <ele>610.17</ele>
  <time>2026-08-27T18:28:19Z</time>
  <course>352.1</course>
  <speed>12.963278906202705</speed>
  <fix>3d</fix>
</trkpt>
<trkpt lat="-35.3640568" lon="149.1654145">
  <ele>610.13</ele>
  <time>2026-08-27T18:28:19Z</time>
  <course>352.37</course>
  <speed>12.99</speed>
  <fix>3d</fix>
</trkpt>
<trkpt lat="-35.3640196" lon="149.1654085">
  <ele>610.17</ele>
  <time>2026-08-27T18:28:19Z</time>
  <course>352.04</course>
  <speed>12.963278906202705</speed>
  <fix>3d</fix>
</trkpt>
<trkpt lat="-35.3640337" lon="149.1654107">
  <ele>610.12</ele>
  <time>2026-08-27T18:28:19Z</time>
  <course>352.35</course>
  <speed>12.99</speed>
  <fix>3d</fix>
</trkpt>
<trkpt lat="-35.3639965" lon="149.1654047">
  <ele>610.17</ele>
  <time>2026-08-27T18:28:19Z</time>
  <course>351.97</course>
  <speed>12.964601806457459</speed>
  <fix>3d</fix>
</trkpt>
<trkpt lat="-35.3640106" lon="149.1654069">
  <ele>610.12</ele>
  <time>2026-08-27T18:28:19Z</time>
  <course>352.33</course>
  <speed>12.99</speed>
  <fix>3d</fix>
</trkpt>
<trkpt lat="-35.3639735" lon="149.1654008">
  <ele>610.17</ele>
  <time>2026-08-27T18:28:19Z</time>
  <course>351.89</course>
  <speed>12.965932284259393</speed>
  <fix>3d</fix>
</trkpt>
<trkpt lat="-35.3639875" lon="149.165403">
  <ele>610.11</ele>
  <time>2026-08-27T18:28:19Z</time>
  <course>352.3</course>
  <speed>12.99</speed>
  <fix>3d</fix>
</trkpt>
<trkpt lat="-35.3639504" lon="149.165397">
  <ele>610.17</ele>
  <time>2026-08-27T18:28:19Z</time>
  <course>351.84</course>
  <speed>12.967270337276076</speed>
  <fix>3d</fix>
</trkpt>
<trkpt lat="-35.3639643" lon="149.1653992">
  <ele>610.11</ele>
  <time>2026-08-27T18:28:19Z</time>
  <course>352.26</course>
  <speed>12.99</speed>
  <fix>3d</fix>
</trkpt>
<trkpt lat="-35.3639274" lon="149.1653931">
  <ele>610.17</ele>
  <time>2026-08-27T18:28:19Z</time>
  <course>351.81</course>
  <speed>12.96861596316276</speed>
  <fix>3d</fix>
</trkpt>
<trkpt lat="-35.3639412" lon="149.1653953">
  <ele>610.11</ele>
  <time>2026-08-27T18:28:19Z</time>
  <course>352.22</course>
  <speed>12.99</speed>
  <fix>3d</fix>
</trkpt>
<trkpt lat="-35.3639043" lon="149.1653892">
  <ele>610.17</ele>
  <time>2026-08-27T18:28:19Z</time>
  <course>351.76</course>
  <speed>12.96861596316276</speed>
  <fix>3d</fix>
</trkpt>
<trkpt lat="-35.3639181" lon="149.1653914">
  <ele>610.11</ele>
  <time>2026-08-27T18:28:19Z</time>
  <course>352.19</course>
  <speed>13.0</speed>
  <fix>3d</fix>
</trkpt>
<trkpt lat="-35.363881" lon="149.1653853">
  <ele>610.17</ele>
  <time>2026-08-27T18:28:19Z</time>
  <course>351.72</course>
  <speed>12.97987673285074</speed>
  <fix>3d</fix>
</trkpt>
<trkpt lat="-35.363895" lon="149.1653875">
  <ele>610.11</ele>
  <time>2026-08-27T18:28:19Z</time>
  <course>352.16</course>
  <speed>13.0</speed>
  <fix>3d</fix>
</trkpt>
<trkpt lat="-35.3638578" lon="149.1653814">
  <ele>610.17</ele>
  <time>2026-08-27T18:28:19Z</time>
  <course>351.72</course>
  <speed>12.97987673285074</speed>
  <fix>3d</fix>
</trkpt>
<trkpt lat="-35.3638718" lon="149.1653836">
  <ele>610.11</ele>
  <time>2026-08-27T18:28:19Z</time>
  <course>352.14</course>
  <speed>13.0</speed>
  <fix>3d</fix>
</trkpt>
<trkpt lat="-35.3638346" lon="149.1653774">
  <ele>610.17</ele>
  <time>2026-08-27T18:28:19Z</time>
  <course>351.7</course>
  <speed>12.981236458827796</speed>
  <fix>3d</fix>
</trkpt>
<trkpt lat="-35.3638486" lon="149.1653797">
  <ele>610.11</ele>
  <time>2026-08-27T18:28:19Z</time>
  <course>352.12</course>
  <speed>13.0</speed>
  <fix>3d</fix>
</trkpt>
<trkpt lat="-35.3638114" lon="149.1653735">
  <ele>610.17</ele>
  <time>2026-08-27T18:28:19Z</time>
  <course>351.69</course>
  <speed>12.981236458827796</speed>
  <fix>3d</fix>
</trkpt>
<trkpt lat="-35.3638254" lon="149.1653757">
  <ele>610.11</ele>
  <time>2026-08-27T18:28:19Z</time>
  <course>352.1</course>
  <speed>13.0</speed>
  <fix>3d</fix>
</trkpt>
<trkpt lat="-35.3637883" lon="149.1653696">
  <ele>610.18</ele>
  <time>2026-08-27T18:28:19Z</time>
  <course>351.71</course>
  <speed>12.981236458827796</speed>
  <fix>3d</fix>
</trkpt>
<trkpt lat="-35.3638023" lon="149.1653718">
  <ele>610.11</ele>
  <time>2026-08-27T18:28:19Z</time>
  <course>352.1</course>
  <speed>13.0</speed>
  <fix>3d</fix>
</trkpt>
<trkpt lat="-35.3637651" lon="149.1653656">
  <ele>610.17</ele>
  <time>2026-08-27T18:28:19Z</time>
  <course>351.76</course>
  <speed>12.981236458827796</speed>
  <fix>3d</fix>
</trkpt>
<trkpt lat="-35.3637791" lon="149.1653678">
  <ele>610.11</ele>
  <time>2026-08-27T18:28:19Z</time>
  <course>352.09</course>
  <speed>13.0</speed>
  <fix>3d</fix>
</trkpt>
<trkpt lat="-35.363742" lon="149.1653617">
  <ele>610.17</ele>
  <time>2026-08-27T18:28:19Z</time>
  <course>351.76</course>
  <speed>12.971329924105701</speed>
  <fix>3d</fix>
</trkpt>
<trkpt lat="-35.363756" lon="149.1653639">
  <ele>610.11</ele>
  <time>2026-08-27T18:28:19Z</time>
  <course>352.1</course>
  <speed>12.99</speed>
  <fix>3d</fix>
</trkpt>
<trkpt lat="-35.3637189" lon="149.1653577">
  <ele>610.17</ele>
  <time>2026-08-27T18:28:19Z</time>
  <course>351.77</course>
  <speed>12.971329924105701</speed>
  <fix>3d</fix>
</trkpt>
<trkpt lat="-35.3637329" lon="149.16536">
  <ele>610.11</ele>
  <time>2026-08-27T18:28:19Z</time>
  <course>352.11</course>
  <speed>12.98</speed>
  <fix>3d</fix>
</trkpt>
<trkpt lat="-35.3636959" lon="149.1653538">
  <ele>610.17</ele>
  <time>2026-08-27T18:28:19Z</time>
  <course>351.79</course>
  <speed>12.969969159562408</speed>
  <fix>3d</fix>
</trkpt>
<trkpt lat="-35.3637098" lon="149.1653561">
  <ele>610.11</ele>
  <time>2026-08-27T18:28:19Z</time>
  <course>352.12</course>
  <speed>12.98</speed>
  <fix>3d</fix>
</trkpt>
<trkpt lat="-35.3636728" lon="149.1653499">
  <ele>610.18</ele>
  <time>2026-08-27T18:28:19Z</time>
  <course>351.79</course>
  <speed>12.969969159562408</speed>
  <fix>3d</fix>
</trkpt>
<trkpt lat="-35.3636867" lon="149.1653522">
  <ele>610.1</ele>
  <time>2026-08-27T18:28:19Z</time>
  <course>352.14</course>
  <speed>12.98</speed>
  <fix>3d</fix>
</trkpt>
<trkpt lat="-35.3636496" lon="149.165346">
  <ele>610.18</ele>
  <time>2026-08-27T18:28:19Z</time>
  <course>351.81</course>
  <speed>12.969969159562408</speed>
  <fix>3d</fix>
</trkpt>
<trkpt lat="-35.3636636" lon="149.1653483">
  <ele>610.1</ele>
  <time>2026-08-27T18:28:19Z</time>
  <course>352.15</course>
  <speed>12.98</speed>
  <fix>3d</fix>
</trkpt>
<trkpt lat="-35.3636264" lon="149.1653421">
  <ele>610.18</ele>
  <time>2026-08-27T18:28:19Z</time>
  <course>351.8</course>
  <speed>12.96861596316276</speed>
  <fix>3d</fix>
</trkpt>
<trkpt lat="-35.3636405" lon="149.1653444">
  <ele>610.1</ele>
  <time>2026-08-27T18:28:19Z</time>
  <course>352.17</course>
  <speed>12.98</speed>
  <fix>3d</fix>
</trkpt>
<trkpt lat="-35.3636032" lon="149.1653382">
  <ele>610.17</ele>
  <time>2026-08-27T18:28:19Z</time>
  <course>351.8</course>
  <speed>12.96861596316276</speed>
  <fix>3d</fix>
</trkpt>
<trkpt lat="-35.3636173" lon="149.1653405">
  <ele>610.09</ele>
  <time>2026-08-27T18:28:19Z</time>
  <course>352.18</course>
  <speed>12.98</speed>
  <fix>3d</fix>
</trkpt>
<trkpt lat="-35.3635801" lon="149.1653343">
  <ele>610.17</ele>
  <time>2026-08-27T18:28:19Z</time>
  <course>351.8</course>
  <speed>12.96861596316276</speed>
  <fix>3d</fix>
</trkpt>
<trkpt lat="-35.3635942" lon="149.1653366">
  <ele>610.09</ele>
  <time>2026-08-27T18:28:19Z</time>
  <course>352.19</course>
  <speed>12.98</speed>
  <fix>3d</fix>
</trkpt>
<trkpt lat="-35.3635569" lon="149.1653304">
  <ele>610.17</ele>
  <time>2026-08-27T18:28:19Z</time>
  <course>351.79</course>
  <speed>12.978524569457038</speed>
  <fix>3d</fix>
</trkpt>
<trkpt lat="-35.3635711" lon="149.1653327">
  <ele>610.09</ele>
  <time>2026-08-27T18:28:19Z</time>
  <course>352.2</course>
  <speed>12.98</speed>
  <fix>3d</fix>
</trkpt>
<trkpt lat="-35.3635338" lon="149.1653265">
  <ele>610.17</ele>
  <time>2026-08-27T18:28:19Z</time>
  <course>351.82</course>
  <speed>12.978524569457038</speed>
  <fix>3d</fix>
</trkpt>
<trkpt lat="-35.363548" lon="149.1653288">
  <ele>610.09</ele>
  <time>2026-08-27T18:28:19Z</time>
  <course>352.21</course>
  <speed>12.98</speed>
  <fix>3d</fix>
</trkpt>
<trkpt lat="-35.3635107" lon="149.1653227">
  <ele>610.16</ele>
  <time>2026-08-27T18:28:19Z</time>
  <course>351.84</course>
  <speed>12.96861596316276</speed>
  <fix>3d</fix>
</trkpt>
<trkpt lat="-35.3635249" lon="149.165325">
  <ele>610.09</ele>
  <time>2026-08-27T18:28:19Z</time>
  <course>352.21</course>
  <speed>12.97</speed>
  <fix>3d</fix>
</trkpt>
<trkpt lat="-35.3634877" lon="149.1653188">
  <ele>610.16</ele>
  <time>2026-08-27T18:28:19Z</time>
  <course>351.88</course>
  <speed>12.967270337276076</speed>
  <fix>3d</fix>
</trkpt>
<trkpt lat="-35.3635018" lon="149.1653211">
  <ele>610.09</ele>
  <time>2026-08-27T18:28:19Z</time>
  <course>352.22</course>
  <speed>12.97</speed>
  <fix>3d</fix>
</trkpt>
<trkpt lat="-35.3634646" lon="149.165315">
  <ele>610.15</ele>
  <time>2026-08-27T18:28:19Z</time>
  <course>351.86</course>
  <speed>12.957360842393793</speed>
  <fix>3d</fix>
</trkpt>
<trkpt lat="-35.3634788" lon="149.1653172">
  <ele>610.09</ele>
  <time>2026-08-27T18:28:19Z</time>
  <course>352.23</course>
  <speed>12.97</speed>
  <fix>3d</fix>
</trkpt>
<trkpt lat="-35.3634417" lon="149.1653111">
  <ele>610.14</ele>
  <time>2026-08-27T18:28:19Z</time>
  <course>351.81</course>
  <speed>12.967270337276076</speed>
  <fix>3d</fix>
</trkpt>
<trkpt lat="-35.3634557" lon="149.1653134">
  <ele>610.09</ele>
  <time>2026-08-27T18:28:19Z</time>
  <course>352.23</course>
  <speed>12.97</speed>
  <fix>3d</fix>
</trkpt>
<trkpt lat="-35.3634187" lon="149.1653073">
  <ele>610.14</ele>
  <time>2026-08-27T18:28:19Z</time>
  <course>351.72</course>
  <speed>12.977179971010651</speed>
  <fix>3d</fix>
</trkpt>
<trkpt lat="-35.3634326" lon="149.1653095">
  <ele>610.09</ele>
  <time>2026-08-27T18:28:19Z</time>
  <course>352.24</course>
  <speed>12.98</speed>
  <fix>3d</fix>
</trkpt>
<trkpt lat="-35.3633954" lon="149.1653034">
  <ele>610.14</ele>
  <time>2026-08-27T18:28:19Z</time>
  <course>351.65</course>
  <speed>12.988433315839137</speed>
  <fix>3d</fix>
</trkpt>
<trkpt lat="-35.3634095" lon="149.1653056">
  <ele>610.09</ele>
  <time>2026-08-27T18:28:19Z</time>
  <course>352.23</course>
  <speed>12.99</speed>
  <fix>3d</fix>
</trkpt>
<trkpt lat="-35.3633722" lon="149.1652995">
  <ele>610.14</ele>
  <time>2026-08-27T18:28:19Z</time>
  <course>351.59</course>
  <speed>12.998342201988683</speed>
  <fix>3d</fix>
</trkpt>
<trkpt lat="-35.3633863" lon="149.1653017">
  <ele>610.09</ele>
  <time>2026-08-27T18:28:19Z</time>
  <course>352.22</course>
  <speed>13.0</speed>
  <fix>3d</fix>
</trkpt>
<trkpt lat="-35.363349" lon="149.1652956">
  <ele>610.15</ele>
  <time>2026-08-27T18:28:19Z</time>
  <course>351.61</course>
  <speed>13.009600301315947</speed>
  <fix>3d</fix>
</trkpt>
<trkpt lat="-35.3633631" lon="149.1652979">
  <ele>610.09</ele>
  <time>2026-08-27T18:28:19Z</time>
  <course>352.2</course>
  <speed>13.01</speed>
  <fix>3d</fix>
</trkpt>
<trkpt lat="-35.3633258" lon="149.1652917">
  <ele>610.16</ele>
  <time>2026-08-27T18:28:19Z</time>
  <course>351.64</course>
  <speed>13.009600301315947</speed>
  <fix>3d</fix>
</trkpt>
<trkpt lat="-35.36334" lon="149.165294">
  <ele>610.09</ele>
  <time>2026-08-27T18:28:19Z</time>
  <course>352.19</course>
  <speed>13.01</speed>
  <fix>3d</fix>
</trkpt>
<trkpt lat="-35.3633027" lon="149.1652878">
  <ele>610.18</ele>
  <time>2026-08-27T18:28:19Z</time>
  <course>351.74</course>
  <speed>12.989784447788193</speed>
  <fix>3d</fix>
</trkpt>
<trkpt lat="-35.3633168" lon="149.1652901">
  <ele>610.1</ele>
  <time>2026-08-27T18:28:19Z</time>
  <course>352.18</course>
  <speed>13.01</speed>
  <fix>3d</fix>
</trkpt>
<trkpt lat="-35.3632796" lon="149.1652839">
  <ele>610.2</ele>
  <time>2026-08-27T18:28:19Z</time>
  <course>352.03</course>
  <speed>12.928982945305481</speed>
  <fix>3d</fix>
</trkpt>
<trkpt lat="-35.3632937" lon="149.1652862">
  <ele>610.11</ele>
  <time>2026-08-27T18:28:19Z</time>
  <course>352.18</course>
  <speed>12.98</speed>
  <fix>3d</fix>
</trkpt>
<trkpt lat="-35.3632567" lon="149.1652801">
  <ele>610.23</ele>
  <time>2026-08-27T18:28:19Z</time>
  <course>352.54</course>
  <speed>12.817289104955073</speed>
  <fix>3d</fix>
</trkpt>
<trkpt lat="-35.3632706" lon="149.1652823">
  <ele>610.13</ele>
  <time>2026-08-27T18:28:19Z</time>
  <course>352.2</course>
  <speed>12.91</speed>
  <fix>3d</fix>
</trkpt>
<trkpt lat="-35.3632341" lon="149.1652763">
  <ele>610.26</ele>
  <time>2026-08-27T18:28:19Z</time>
  <course>353.22</course>
  <speed>12.653367140804853</speed>
  <fix>3d</fix>
</trkpt>
<trkpt lat="-35.3632477" lon="149.1652785">
  <ele>610.16</ele>
  <time>2026-08-27T18:28:19Z</time>
  <course>352.24</course>
  <speed>12.78</speed>
  <fix>3d</fix>
</trkpt>
<trkpt lat="-35.3632118" lon="149.1652726">
  <ele>610.3</ele>
  <time>2026-08-27T18:28:19Z</time>
  <course>353.96</course>
  <speed>12.4385891482917</speed>
  <fix>3d</fix>
</trkpt>
<trkpt lat="-35.3632252" lon="149.1652747">
  <ele>610.19</ele>
  <time>2026-08-27T18:28:19Z</time>
  <course>352.32</course>
  <speed>12.6</speed>
  <fix>3d</fix>
</trkpt>
<trkpt lat="-35.3631899" lon="149.165269">
  <ele>610.33</ele>
  <time>2026-08-27T18:28:19Z</time>
  <course>354.72</course>
  <speed>12.163058825805292</speed>
  <fix>3d</fix>
</trkpt>
<trkpt lat="-35.3632029" lon="149.165271">
  <ele>610.23</ele>
  <time>2026-08-27T18:28:19Z</time>
  <course>352.44</course>
  <speed>12.37</speed>
  <fix>3d</fix>
</trkpt>
<trkpt lat="-35.3631684" lon="149.1652656">
  <ele>610.36</ele>
  <time>2026-08-27T18:28:19Z</time>
  <course>355.44</course>
  <speed>11.845357740482134</speed>
  <fix>3d</fix>
</trkpt>
<trkpt lat="-35.3631811" lon="149.1652676">
  <ele>610.27</ele>
  <time>2026-08-27T18:28:19Z</time>
  <course>352.6</course>
  <speed>12.09</speed>
  <fix>3d</fix>
</trkpt>
<trkpt lat="-35.3631474" lon="149.1652623">
  <ele>610.39</ele>
  <time>2026-08-27T18:28:19Z</time>
  <course>356.09</course>
  <speed>11.48933853622566</speed>
  <fix>3d</fix>
</trkpt>
<trkpt lat="-35.3631599" lon="149.1652642">
  <ele>610.3</ele>
  <time>2026-08-27T18:28:19Z</time>
  <course>352.77</course>
  <speed>11.76</speed>
  <fix>3d</fix>
</trkpt>
<trkpt lat="-35.3631271" lon="149.1652593">
  <ele>610.41</ele>
  <time>2026-08-27T18:28:19Z</time>
  <course>356.68</course>
  <speed>11.082531299301618</speed>
  <fix>3d</fix>
</trkpt>
<trkpt lat="-35.3631392" lon="149.165261">
  <ele>610.32</ele>
  <time>2026-08-27T18:28:19Z</time>
  <course>352.94</course>
  <speed>11.38</speed>
  <fix>3d</fix>
</trkpt>
<trkpt lat="-35.3631077" lon="149.1652564">
  <ele>610.41</ele>
  <time>2026-08-27T18:28:19Z</time>
  <course>357.2</course>
  <speed>10.626165818393764</speed>
  <fix>3d</fix>
</trkpt>
<trkpt lat="-35.3631192" lon="149.165258">
  <ele>610.33</ele>
  <time>2026-08-27T18:28:19Z</time>
  <course>353.11</course>
  <speed>10.96</speed>
  <fix>3d</fix>
</trkpt>
<trkpt lat="-35.363089" lon="149.1652536">
  <ele>610.42</ele>
  <time>2026-08-27T18:28:19Z</time>
  <course>357.62</course>
  <speed>10.130138202413628</speed>
  <fix>3d</fix>
</trkpt>
<trkpt lat="-35.3631" lon="149.1652552">
  <ele>610.34</ele>
  <time>2026-08-27T18:28:19Z</time>
  <course>353.25</course>
  <speed>10.49</speed>
  <fix>3d</fix>
</trkpt>
<trkpt lat="-35.3630713" lon="149.1652511">
  <ele>610.41</ele>
  <time>2026-08-27T18:28:19Z</time>
  <course>357.95</course>
  <speed>9.595587527608718</speed>
  <fix>3d</fix>
</trkpt>
<trkpt lat="-35.3630818" lon="149.1652526">
  <ele>610.33</ele>
  <time>2026-08-27T18:28:19Z</time>
  <course>353.36</course>
  <speed>9.98</speed>
  <fix>3d</fix>
</trkpt>
<trkpt lat="-35.3630546" lon="149.1652487">
  <ele>610.4</ele>
  <time>2026-08-27T18:28:19Z</time>
  <course>358.16</course>
  <speed>9.02131365156982</speed>
  <fix>3d</fix>
</trkpt>
<trkpt lat="-35.3630645" lon="149.1652502">
  <ele>610.32</ele>
  <time>2026-08-27T18:28:19Z</time>
  <course>353.43</course>
  <speed>9.42</speed>
  <fix>3d</fix>
</trkpt>
<trkpt lat="-35.3630389" lon="149.1652465">
  <ele>610.38</ele>
  <time>2026-08-27T18:28:19Z</time>
  <course>358.2</course>
  <speed>8.44704090199639</speed>
  <fix>3d</fix>
</trkpt>
<trkpt lat="-35.3630482" lon="149.1652479">
  <ele>610.31</ele>
  <time>2026-08-27T18:28:19Z</time>
  <course>353.47</course>
  <speed>8.84</speed>
  <fix>3d</fix>
</trkpt>
<trkpt lat="-35.3630243" lon="149.1652444">
  <ele>610.35</ele>
  <time>2026-08-27T18:28:19Z</time>
  <course>358.06</course>
  <speed>7.873931673566897</speed>
  <fix>3d</fix>
</trkpt>
<trkpt lat="-35.3630329" lon="149.1652457">
  <ele>610.28</ele>
  <time>2026-08-27T18:28:19Z</time>
  <course>353.47</course>
  <speed>8.26</speed>
  <fix>3d</fix>
</trkpt>
<trkpt lat="-35.3630107" lon="149.1652425">
  <ele>610.31</ele>
  <time>2026-08-27T18:28:19Z</time>
  <course>357.74</course>
  <speed>7.311942286424312</speed>
  <fix>3d</fix>
</trkpt>
<trkpt lat="-35.3630187" lon="149.1652437">
  <ele>610.24</ele>
  <time>2026-08-27T18:28:19Z</time>
  <course>353.41</course>
  <speed>7.68</speed>
  <fix>3d</fix>
</trkpt>
<trkpt lat="-35.362998" lon="149.1652406">
  <ele>610.26</ele>
  <time>2026-08-27T18:28:19Z</time>
  <course>357.26</course>
  <speed>6.771063431987622</speed>
  <fix>3d</fix>
</trkpt>
<trkpt lat="-35.3630055" lon="149.1652418">
  <ele>610.19</ele>
  <time>2026-08-27T18:28:19Z</time>
  <course>353.27</course>
  <speed>7.12</speed>
  <fix>3d</fix>
</trkpt>
<trkpt lat="-35.3629863" lon="149.1652388">
  <ele>610.21</ele>
  <time>2026-08-27T18:28:19Z</time>
  <course>356.63</course>
  <speed>6.232856487999703</speed>
  <fix>3d</fix>
</trkpt>
<trkpt lat="-35.3629933" lon="149.1652401">
  <ele>610.15</ele>
  <time>2026-08-27T18:28:19Z</time>
  <course>353.01</course>
  <speed>6.57</speed>
  <fix>3d</fix>
</trkpt>
<trkpt lat="-35.3629756" lon="149.1652371">
  <ele>610.17</ele>
  <time>2026-08-27T18:28:19Z</time>
  <course>355.9</course>
  <speed>5.714866577620163</speed>
  <fix>3d</fix>
</trkpt>
<trkpt lat="-35.362982" lon="149.1652383">
  <ele>610.1</ele>
  <time>2026-08-27T18:28:19Z</time>
  <course>352.63</course>
  <speed>6.04</speed>
  <fix>3d</fix>
</trkpt>
<trkpt lat="-35.3629659" lon="149.1652355">
  <ele>610.13</ele>
  <time>2026-08-27T18:28:19Z</time>
  <course>355.09</course>
  <speed>5.217135229223027</speed>
  <fix>3d</fix>
</trkpt>
<trkpt lat="-35.3629717" lon="149.1652366">
  <ele>610.06</ele>
  <time>2026-08-27T18:28:19Z</time>
  <course>352.12</course>
  <speed>5.52</speed>
  <fix>3d</fix>
</trkpt>
<trkpt lat="-35.362957" lon="149.1652338">
  <ele>610.11</ele>
  <time>2026-08-27T18:28:19Z</time>
  <course>354.2</course>
  <speed>4.731437413725347</speed>
  <fix>3d</fix>
</trkpt>
<trkpt lat="-35.3629623" lon="149.165235">
  <ele>610.03</ele>
  <time>2026-08-27T18:28:19Z</time>
  <course>351.48</course>
  <speed>5.02</speed>
  <fix>3d</fix>
</trkpt>
<trkpt lat="-35.3629491" lon="149.1652322">
  <ele>610.1</ele>
  <time>2026-08-27T18:28:19Z</time>
  <course>353.27</course>
  <speed>4.254844297973781</speed>
  <fix>3d</fix>
</trkpt>
<trkpt lat="-35.3629538" lon="149.1652333">
  <ele>610.01</ele>
  <time>2026-08-27T18:28:19Z</time>
  <course>350.74</course>
  <speed>4.53</speed>
  <fix>3d</fix>
</trkpt>
<trkpt lat="-35.362942" lon="149.1652307">
  <ele>610.1</ele>
  <time>2026-08-27T18:28:19Z</time>
  <course>352.27</course>
  <speed>3.796972478172577</speed>
  <fix>3d</fix>
</trkpt>
<trkpt lat="-35.3629463" lon="149.1652318">
  <ele>610.0</ele>
  <time>2026-08-27T18:28:19Z</time>
  <course>349.91</course>
  <speed>4.06</speed>
  <fix>3d</fix>
</trkpt>
<trkpt lat="-35.3629357" lon="149.1652292">
  <ele>610.1</ele>
  <time>2026-08-27T18:28:19Z</time>
  <course>351.22</course>
  <speed>3.3399550895184205</speed>
  <fix>3d</fix>
</trkpt>
<trkpt lat="-35.3629394" lon="149.1652302">
  <ele>609.99</ele>
  <time>2026-08-27T18:28:19Z</time>
  <course>348.97</course>
  <speed>3.6</speed>
  <fix>3d</fix>
</trkpt>
<trkpt lat="-35.3629303" lon="149.1652278">
  <ele>610.1</ele>
  <time>2026-08-27T18:28:19Z</time>
  <course>350.09</course>
  <speed>2.89394194827747</speed>
  <fix>3d</fix>
</trkpt>
<trkpt lat="-35.3629335" lon="149.1652287">
  <ele>609.99</ele>
  <time>2026-08-27T18:28:19Z</time>
  <course>347.92</course>
  <speed>3.14</speed>
  <fix>3d</fix>
</trkpt>
<trkpt lat="-35.3629256" lon="149.1652264">
  <ele>610.09</ele>
  <time>2026-08-27T18:28:19Z</time>
  <course>348.81</course>
  <speed>2.4447699278255204</speed>
  <fix>3d</fix>
</trkpt>
<trkpt lat="-35.3629284" lon="149.1652273">
  <ele>609.99</ele>
  <time>2026-08-27T18:28:19Z</time>
  <course>346.71</course>
  <speed>2.69</speed>
  <fix>3d</fix>
</trkpt>
<trkpt lat="-35.3629218" lon="149.1652252">
  <ele>610.09</ele>
  <time>2026-08-27T18:28:19Z</time>
  <course>347.32</course>
  <speed>2.0137527157027004</speed>
  <fix>3d</fix>
</trkpt>
<trkpt lat="-35.3629241" lon="149.165226">
  <ele>609.99</ele>
  <time>2026-08-27T18:28:19Z</time>
  <course>345.31</course>
  <speed>2.25</speed>
  <fix>3d</fix>
</trkpt>
<trkpt lat="-35.3629187" lon="149.1652241">
  <ele>610.09</ele>
  <time>2026-08-27T18:28:19Z</time>
  <course>345.61</course>
  <speed>1.622621335986927</speed>
  <fix>3d</fix>
</trkpt>
<trkpt lat="-35.3629205" lon="149.1652248">
  <ele>609.99</ele>
  <time>2026-08-27T18:28:19Z</time>
  <course>343.69</course>
  <speed>1.83</speed>
  <fix>3d</fix>
</trkpt>
<trkpt lat="-35.3629162" lon="149.1652231">
  <ele>610.09</ele>
  <time>2026-08-27T18:28:19Z</time>
  <course>343.81</course>
  <speed>1.268108828137396</speed>
  <fix>3d</fix>
</trkpt>
<trkpt lat="-35.3629177" lon="149.1652237">
  <ele>609.99</ele>
  <time>2026-08-27T18:28:19Z</time>
  <course>341.88</course>
  <speed>1.45</speed>
  <fix>3d</fix>
</trkpt>
<trkpt lat="-35.3629144" lon="149.1652223">
  <ele>610.09</ele>
  <time>2026-08-27T18:28:19Z</time>
  <course>341.95</course>
  <speed>0.9620810776644555</speed>
  <fix>3d</fix>
</trkpt>
<trkpt lat="-35.3629155" lon="149.1652228">
  <ele>609.98</ele>
  <time>2026-08-27T18:28:19Z</time>
  <course>339.88</course>
  <speed>1.11</speed>
  <fix>3d</fix>
</trkpt>
<trkpt lat="-35.362913" lon="149.1652216">
  <ele>610.09</ele>
  <time>2026-08-27T18:28:19Z</time>
  <course>340.96</course>
  <speed>0.7077428911688198</speed>
  <fix>3d</fix>
</trkpt>
<trkpt lat="-35.3629139" lon="149.165222">
  <ele>609.98</ele>
  <time>2026-08-27T18:28:19Z</time>
  <course>337.26</course>
  <speed>0.82</speed>
  <fix>3d</fix>
</trkpt>
<trkpt lat="-35.3629121" lon="149.1652211">
  <ele>610.09</ele>
  <time>2026-08-27T18:28:19Z</time>
  <course>341.09</course>
  <speed>0.4965883607174055</speed>
  <fix>3d</fix>
</trkpt>
<trkpt lat="-35.3629128" lon="149.1652214">
  <ele>609.98</ele>
  <time>2026-08-27T18:28:19Z</time>
  <course>333.86</course>
  <speed>0.58</speed>
  <fix>3d</fix>
</trkpt>
<trkpt lat="-35.3629115" lon="149.1652207">
  <ele>610.09</ele>
  <time>2026-08-27T18:28:19Z</time>
  <course>340.99</course>
  <speed>0.32649655434629016</speed>
  <fix>3d</fix>
</trkpt>
<trkpt lat="-35.3629121" lon="149.1652209">
  <ele>609.99</ele>
  <time>2026-08-27T18:28:19Z</time>
  <course>329.79</course>
  <speed>0.38</speed>
  <fix>3d</fix>
</trkpt>
<trkpt lat="-35.3629112" lon="149.1652204">
  <ele>610.09</ele>
  <time>2026-08-27T18:28:19Z</time>
  <course>340.96</course>
  <speed>0.1972308292331602</speed>
  <fix>3d</fix>
</trkpt>
<trkpt lat="-35.3629116" lon="149.1652206">
  <ele>609.99</ele>
  <time>2026-08-27T18:28:19Z</time>
  <course>323.83</course>
  <speed>0.23</speed>
  <fix>3d</fix>
</trkpt>
<trkpt lat="-35.362911" lon="149.1652202">
  <ele>610.1</ele>
  <time>2026-08-27T18:28:19Z</time>
  <course>340.89</course>
  <speed>0.10816653826391968</speed>
  <fix>3d</fix>
</trkpt>
<trkpt lat="-35.3629114" lon="149.1652204">
  <ele>610.0</ele>
  <time>2026-08-27T18:28:19Z</time>
  <course>313.42</course>
  <speed>0.12</speed>
  <fix>3d</fix>
</trkpt>
<trkpt lat="-35.362911" lon="149.1652201">
  <ele>610.11</ele>
  <time>2026-08-27T18:28:19Z</time>
  <course>340.83</course>
  <speed>0.053851648071345036</speed>
  <fix>3d</fix>
</trkpt>
<trkpt lat="-35.3629113" lon="149.1652202">
  <ele>610.01</ele>
  <time>2026-08-27T18:28:19Z</time>
  <course>289.87</course>
  <speed>0.04</speed>
  <fix>3d</fix>
</trkpt>
<trkpt lat="-35.362911" lon="149.1652201">
  <ele>610.12</ele>
  <time>2026-08-27T18:28:19Z</time>
  <course>340.79</course>
  <speed>0.04</speed>
  <fix>3d</fix>
</trkpt>
<trkpt lat="-35.3629113" lon="149.1652201">
  <ele>610.02</ele>
  <time>2026-08-27T18:28:19Z</time>
  <course>230.13</course>
  <speed>0.01</speed>
  <fix>3d</fix>
</trkpt>
<trkpt lat="-35.362911" lon="149.1652202">
  <ele>610.13</ele>
  <time>2026-08-27T18:28:19Z</time>
  <course>340.73</course>
  <speed>0.07071067811865475</speed>
  <fix>3d</fix>
</trkpt>
<trkpt lat="-35.3629113" lon="149.1652201">
  <ele>610.03</ele>
  <time>2026-08-27T18:28:19Z</time>
  <course>123.94</course>
  <speed>0.01</speed>
  <fix>3d</fix>
</trkpt>
<trkpt lat="-35.3629109" lon="149.1652202">
  <ele>610.14</ele>
  <time>2026-08-27T18:28:19Z</time>
  <course>340.67</course>
  <speed>0.12165525060596438</speed>
  <fix>3d</fix>
</trkpt>
<trkpt lat="-35.3629113" lon="149.1652202">
  <ele>610.04</ele>
  <time>2026-08-27T18:28:19Z</time>
  <course>34.07</course>
  <speed>0.04</speed>
  <fix>3d</fix>
</trkpt>
<trkpt lat="-35.3629107" lon="149.1652202">
  <ele>610.14</ele>
  <time>2026-08-27T18:28:19Z</time>
  <course>340.95</course>
  <speed>0.18110770276274835</speed>
  <fix>3d</fix>
</trkpt>
<trkpt lat="-35.3629112" lon="149.1652202">
  <ele>610.04</ele>
  <time>2026-08-27T18:28:19Z</time>
  <course>16.54</course>
  <speed>0.09</speed>
  <fix>3d</fix>
</trkpt>
<trkpt lat="-35.3629105" lon="149.1652202">
  <ele>610.1</ele>
  <time>2026-08-27T18:28:19Z</time>
  <course>341.36</course>
  <speed>0.22090722034374521</speed>
  <fix>3d</fix>
</trkpt>
<trkpt lat="-35.3629109" lon="149.1652202">
  <ele>610.03</ele>
  <time>2026-08-27T18:28:19Z</time>
  <course>9.16</course>
  <speed>0.15</speed>
  <fix>3d</fix>
</trkpt>
<trkpt lat="-35.3629101" lon="149.1652203">
  <ele>610.02</ele>
  <time>2026-08-27T18:28:19Z</time>
  <course>341.71</course>
  <speed>0.2501999200639361</speed>
  <fix>3d</fix>
</trkpt>
<trkpt lat="-35.3629106" lon="149.1652202">
  <ele>609.98</ele>
  <time>2026-08-27T18:28:19Z</time>
  <course>5.53</course>
  <speed>0.19</speed>
  <fix>3d</fix>
</trkpt>
<trkpt lat="-35.3629097" lon="149.1652203">
  <ele>609.9</ele>
  <time>2026-08-27T18:28:19Z</time>
  <course>342.03</course>
  <speed>0.2601922366251538</speed>
  <fix>3d</fix>
</trkpt>
<trkpt lat="-35.3629102" lon="149.1652202">
  <ele>609.89</ele>
  <time>2026-08-27T18:28:19Z</time>
  <course>3.91</course>
  <speed>0.22</speed>
  <fix>3d</fix>
</trkpt>
<trkpt lat="-35.3629093" lon="149.1652203">
  <ele>609.73</ele>
  <time>2026-08-27T18:28:19Z</time>
  <course>342.3</course>
  <speed>0.25079872407968906</speed>
  <fix>3d</fix>
</trkpt>
<trkpt lat="-35.3629099" lon="149.1652202">
  <ele>609.75</ele>
  <time>2026-08-27T18:28:19Z</time>
  <course>3.92</course>
  <speed>0.23</speed>
  <fix>3d</fix>
</trkpt>
<trkpt lat="-35.362909" lon="149.1652204">
  <ele>609.51</ele>
  <time>2026-08-27T18:28:19Z</time>
  <course>342.53</course>
  <speed>0.24186773244895649</speed>
  <fix>3d</fix>
</trkpt>
<trkpt lat="-35.3629094" lon="149.1652203">
  <ele>609.56</ele>
  <time>2026-08-27T18:28:19Z</time>
  <course>5.39</course>
  <speed>0.23</speed>
  <fix>3d</fix>
</trkpt>
<trkpt lat="-35.3629086" lon="149.1652204">
  <ele>609.24</ele>
  <time>2026-08-27T18:28:19Z</time>
  <course>342.72</course>
  <speed>0.223606797749979</speed>
  <fix>3d</fix>
</trkpt>
<trkpt lat="-35.362909" lon="149.1652204">
  <ele>609.33</ele>
  <time>2026-08-27T18:28:19Z</time>
  <course>8.21</course>
  <speed>0.22</speed>
  <fix>3d</fix>
</trkpt>
<trkpt lat="-35.3629083" lon="149.1652205">
  <ele>608.93</ele>
  <time>2026-08-27T18:28:19Z</time>
  <course>342.72</course>
  <speed>0.196468827043885</speed>
  <fix>3d</fix>
</trkpt>
<trkpt lat="-35.3629086" lon="149.1652205">
  <ele>609.06</ele>
  <time>2026-08-27T18:28:19Z</time>
  <course>12.76</course>
  <speed>0.2</speed>
  <fix>3d</fix>
</trkpt>
<trkpt lat="-35.362908" lon="149.1652207">
  <ele>608.62</ele>
  <time>2026-08-27T18:28:19Z</time>
  <course>342.62</course>
  <speed>0.16552945357246848</speed>
  <fix>3d</fix>
</trkpt>
<trkpt lat="-35.3629083" lon="149.1652206">
  <ele>608.76</ele>
  <time>2026-08-27T18:28:19Z</time>
  <course>19.46</course>
  <speed>0.18</speed>
  <fix>3d</fix>
</trkpt>
<trkpt lat="-35.3629078" lon="149.1652208">
  <ele>608.29</ele>
  <time>2026-08-27T18:28:19Z</time>
  <course>342.51</course>
  <speed>0.13601470508735444</speed>
  <fix>3d</fix>
</trkpt>
<trkpt lat="-35.362908" lon="149.1652207">
  <ele>608.44</ele>
  <time>2026-08-27T18:28:20Z</time>
  <course>28.74</course>
  <speed>0.15</speed>
  <fix>3d</fix>
</trkpt>
<trkpt lat="-35.3629076" lon="149.165221">
  <ele>607.96</ele>
  <time>2026-08-27T18:28:20Z</time>
  <course>342.38</course>
  <speed>0.10816653826391968</speed>
  <fix>3d</fix>
</trkpt>
<trkpt lat="-35.3629078" lon="149.1652209">
  <ele>608.12</ele>
  <time>2026-08-27T18:28:20Z</time>
  <course>41.77</course>
  <speed>0.13</speed>
  <fix>3d</fix>
</trkpt>
<trkpt lat="-35.3629076" lon="149.1652212">
  <ele>607.63</ele>
  <time>2026-08-27T18:28:20Z</time>
  <course>342.27</course>
  <speed>0.1019803902718557</speed>
  <fix>3d</fix>
</trkpt>
<trkpt lat="-35.3629076" lon="149.1652212">
  <ele>607.8</ele>
  <time>2026-08-27T18:28:20Z</time>
  <course>60.0</course>
  <speed>0.11</speed>
  <fix>3d</fix>
</trkpt>
<trkpt lat="-35.3629076" lon="149.1652215">
  <ele>607.32</ele>
  <time>2026-08-27T18:28:20Z</time>
  <course>342.18</course>
  <speed>0.1019803902718557</speed>
  <fix>3d</fix>
</trkpt>
<trkpt lat="-35.3629076" lon="149.1652214">
  <ele>607.48</ele>
  <time>2026-08-27T18:28:20Z</time>
  <course>82.84</course>
  <speed>0.1</speed>
  <fix>3d</fix>
</trkpt>
<trkpt lat="-35.3629076" lon="149.1652217">
  <ele>607.0</ele>
  <time>2026-08-27T18:28:20Z</time>
  <course>342.09</course>
  <speed>0.11661903789690602</speed>
  <fix>3d</fix>
</trkpt>
<trkpt lat="-35.3629076" lon="149.1652216">
  <ele>607.17</ele>
  <time>2026-08-27T18:28:20Z</time>
  <course>105.38</course>
  <speed>0.1</speed>
  <fix>3d</fix>
</trkpt>
<trkpt lat="-35.3629078" lon="149.1652219">
  <ele>606.69</ele>
  <time>2026-08-27T18:28:20Z</time>
  <course>342.04</course>
  <speed>0.1414213562373095</speed>
  <fix>3d</fix>
</trkpt>
<trkpt lat="-35.3629077" lon="149.1652218">
  <ele>606.86</ele>
  <time>2026-08-27T18:28:20Z</time>
  <course>123.08</course>
  <speed>0.12</speed>
  <fix>3d</fix>
</trkpt>
<trkpt lat="-35.3629079" lon="149.1652221">
  <ele>606.39</ele>
  <time>2026-08-27T18:28:20Z</time>
  <course>341.99</course>
  <speed>0.15811388300841897</speed>
  <fix>3d</fix>
</trkpt>
<trkpt lat="-35.3629078" lon="149.1652221">
  <ele>606.56</ele>
  <time>2026-08-27T18:28:20Z</time>
  <course>135.65</course>
  <speed>0.14</speed>
  <fix>3d</fix>
</trkpt>
<trkpt lat="-35.3629081" lon="149.1652223">
  <ele>606.09</ele>
  <time>2026-08-27T18:28:20Z</time>
  <course>341.93</course>
  <speed>0.17</speed>
  <fix>3d</fix>
</trkpt>
<trkpt lat="-35.362908" lon="149.1652222">
  <ele>606.26</ele>
  <time>2026-08-27T18:28:20Z</time>
  <course>144.65</course>
  <speed>0.15</speed>
  <fix>3d</fix>
</trkpt>
<trkpt lat="-35.3629084" lon="149.1652225">
  <ele>605.8</ele>
  <time>2026-08-27T18:28:20Z</time>
  <course>341.9</course>
  <speed>0.18384776310850234</speed>
  <fix>3d</fix>
</trkpt>
<trkpt lat="-35.3629082" lon="149.1652225">
  <ele>605.97</ele>
  <time>2026-08-27T18:28:20Z</time>
  <course>151.47</course>
  <speed>0.17</speed>
  <fix>3d</fix>
</trkpt>
<trkpt lat="-35.3629087" lon="149.1652227">
  <ele>605.51</ele>
  <time>2026-08-27T18:28:20Z</time>
  <course>341.83</course>
  <speed>0.18973665961010278</speed>
  <fix>3d</fix>
</trkpt>
<trkpt lat="-35.3629085" lon="149.1652226">
  <ele>605.67</ele>
  <time>2026-08-27T18:28:20Z</time>
  <course>156.97</course>
  <speed>0.18</speed>
  <fix>3d</fix>
</trkpt>
<trkpt lat="-35.362909" lon="149.1652228">
  <ele>605.21</ele>
  <time>2026-08-27T18:28:20Z</time>
  <course>341.79</course>
  <speed>0.18439088914585774</speed>
  <fix>3d</fix>
</trkpt>
<trkpt lat="-35.3629088" lon="149.1652227">
  <ele>605.38</ele>
  <time>2026-08-27T18:28:20Z</time>
  <course>161.72</course>
  <speed>0.18</speed>
  <fix>3d</fix>
</trkpt>
<trkpt lat="-35.3629094" lon="149.1652229">
  <ele>604.9</ele>
  <time>2026-08-27T18:28:20Z</time>
  <course>341.74</course>
  <speed>0.1824828759089466</speed>
  <fix>3d</fix>
</trkpt>
<trkpt lat="-35.3629091" lon="149.1652229">
  <ele>605.07</ele>
  <time>2026-08-27T18:28:20Z</time>
  <course>166.03</course>
  <speed>0.18</speed>
  <fix>3d</fix>
</trkpt>
<trkpt lat="-35.3629097" lon="149.1652229">
  <ele>604.6</ele>
  <time>2026-08-27T18:28:20Z</time>
  <course>341.69</course>
  <speed>0.18110770276274835</speed>
  <fix>3d</fix>
</trkpt>
<trkpt lat="-35.3629095" lon="149.165223">
  <ele>604.78</ele>
  <time>2026-08-27T18:28:20Z</time>
  <course>169.96</course>
  <speed>0.18</speed>
  <fix>3d</fix>
</trkpt>
<trkpt lat="-35.36291" lon="149.165223">
  <ele>604.3</ele>
  <time>2026-08-27T18:28:20Z</time>
  <course>341.65</course>
  <speed>0.17</speed>
  <fix>3d</fix>
</trkpt>
<trkpt lat="-35.3629098" lon="149.165223">
  <ele>604.48</ele>
  <time>2026-08-27T18:28:20Z</time>
  <course>173.8</course>
  <speed>0.17</speed>
  <fix>3d</fix>
</trkpt>
<trkpt lat="-35.3629103" lon="149.165223">
  <ele>604.0</ele>
  <time>2026-08-27T18:28:20Z</time>
  <course>341.61</course>
  <speed>0.16</speed>
  <fix>3d</fix>
</trkpt>
<trkpt lat="-35.3629101" lon="149.1652231">
  <ele>604.18</ele>
  <time>2026-08-27T18:28:20Z</time>
  <course>177.96</course>
  <speed>0.16</speed>
  <fix>3d</fix>
</trkpt>
<trkpt lat="-35.3629105" lon="149.165223">
  <ele>603.7</ele>
  <time>2026-08-27T18:28:20Z</time>
  <course>341.57</course>
  <speed>0.140356688476182</speed>
  <fix>3d</fix>
</trkpt>
<trkpt lat="-35.3629103" lon="149.1652231">
  <ele>603.89</ele>
  <time>2026-08-27T18:28:20Z</time>
  <course>182.63</course>
  <speed>0.14</speed>
  <fix>3d</fix>
</trkpt>
<trkpt lat="-35.3629108" lon="149.165223">
  <ele>603.4</ele>
  <time>2026-08-27T18:28:20Z</time>
  <course>341.51</course>
  <speed>0.12165525060596438</speed>
  <fix>3d</fix>
</trkpt>
<trkpt lat="-35.3629106" lon="149.165223">
  <ele>603.58</ele>
  <time>2026-08-27T18:28:20Z</time>
  <course>187.95</course>
  <speed>0.13</speed>
  <fix>3d</fix>
</trkpt>
<trkpt lat="-35.3629109" lon="149.165223">
  <ele>603.1</ele>
  <time>2026-08-27T18:28:20Z</time>
  <course>341.48</course>
  <speed>0.1044030650891055</speed>
  <fix>3d</fix>
</trkpt>
<trkpt lat="-35.3629109" lon="149.165223">
  <ele>603.29</ele>
  <time>2026-08-27T18:28:20Z</time>
  <course>194.3</course>
  <speed>0.11</speed>
  <fix>3d</fix>
</trkpt>
<trkpt lat="-35.3629111" lon="149.1652229">
  <ele>602.8</ele>
  <time>2026-08-27T18:28:20Z</time>
  <course>341.45</course>
  <speed>0.08944271909999159</speed>
  <fix>3d</fix>
</trkpt>
<trkpt lat="-35.362911" lon="149.165223">
  <ele>603.0</ele>
  <time>2026-08-27T18:28:20Z</time>
  <course>202.24</course>
  <speed>0.09</speed>
  <fix>3d</fix>
</trkpt>
<trkpt lat="-35.3629112" lon="149.1652228">
  <ele>602.5</ele>
  <time>2026-08-27T18:28:20Z</time>
  <course>341.42</course>
  <speed>0.07810249675906654</speed>
  <fix>3d</fix>
</trkpt>
<trkpt lat="-35.3629112" lon="149.1652229">
  <ele>602.69</ele>
  <time>2026-08-27T18:28:20Z</time>
  <course>211.98</course>
  <speed>0.08</speed>
  <fix>3d</fix>
</trkpt>
<trkpt lat="-35.3629113" lon="149.1652227">
  <ele>602.2</ele>
  <time>2026-08-27T18:28:20Z</time>
  <course>341.37</course>
  <speed>0.06403124237432849</speed>
  <fix>3d</fix>
</trkpt>
<trkpt lat="-35.3629113" lon="149.1652228">
  <ele>602.4</ele>
  <time>2026-08-27T18:28:20Z</time>
  <course>223.9</course>
  <speed>0.07</speed>
  <fix>3d</fix>
</trkpt>
<trkpt lat="-35.3629114" lon="149.1652226">
  <ele>601.9</ele>
  <time>2026-08-27T18:28:20Z</time>
  <course>341.34</course>
  <speed>0.053851648071345036</speed>
  <fix>3d</fix>
</trkpt>
<trkpt lat="-35.3629114" lon="149.1652227">
  <ele>602.11</ele>
  <time>2026-08-27T18:28:20Z</time>
  <course>238.78</course>
  <speed>0.06</speed>
  <fix>3d</fix>
</trkpt>
<trkpt lat="-35.3629114" lon="149.1652225">
  <ele>601.6</ele>
  <time>2026-08-27T18:28:20Z</time>
  <course>341.29</course>
  <speed>0.05</speed>
  <fix>3d</fix>
</trkpt>
<trkpt lat="-35.3629114" lon="149.1652226">
  <ele>601.81</ele>
  <time>2026-08-27T18:28:20Z</time>
  <course>255.95</course>
  <speed>0.05</speed>
  <fix>3d</fix>
</trkpt>
<trkpt lat="-35.3629114" lon="149.1652223">
  <ele>601.3</ele>
  <time>2026-08-27T18:28:20Z</time>
  <course>341.26</course>
  <speed>0.05</speed>
  <fix>3d</fix>
</trkpt>
<trkpt lat="-35.3629114" lon="149.1652224">
  <ele>601.52</ele>
  <time>2026-08-27T18:28:20Z</time>
  <course>272.92</course>
  <speed>0.05</speed>
  <fix>3d</fix>
</trkpt>
<trkpt lat="-35.3629113" lon="149.1652222">
  <ele>601.0</ele>
  <time>2026-08-27T18:28:20Z</time>
  <course>341.26</course>
  <speed>0.053851648071345036</speed>
  <fix>3d</fix>
</trkpt>
<trkpt lat="-35.3629114" lon="149.1652223">
  <ele>601.22</ele>
  <time>2026-08-27T18:28:20Z</time>
  <course>287.35</course>
  <speed>0.05</speed>
  <fix>3d</fix>
</trkpt>
<trkpt lat="-35.3629113" lon="149.1652221">
  <ele>600.7</ele>
  <time>2026-08-27T18:28:20Z</time>
  <course>341.22</course>
  <speed>0.05830951894845301</speed>
  <fix>3d</fix>
</trkpt>
<trkpt lat="-35.3629114" lon="149.1652222">
  <ele>600.92</ele>
  <time>2026-08-27T18:28:20Z</time>
  <course>298.95</course>
  <speed>0.05</speed>
  <fix>3d</fix>
</trkpt>
<trkpt lat="-35.3629113" lon="149.165222">
  <ele>600.4</ele>
  <time>2026-08-27T18:28:20Z</time>
  <course>341.2</course>
  <speed>0.05</speed>
  <fix>3d</fix>
</trkpt>
<trkpt lat="-35.3629114" lon="149.1652221">
  <ele>600.63</ele>
  <time>2026-08-27T18:28:20Z</time>
  <course>308.63</course>
  <speed>0.05</speed>
  <fix>3d</fix>
</trkpt>
<trkpt lat="-35.3629113" lon="149.1652219">
  <ele>600.11</ele>
  <time>2026-08-27T18:28:20Z</time>
  <course>341.18</course>
  <speed>0.0565685424949238</speed>
  <fix>3d</fix>
</trkpt>
<trkpt lat="-35.3629113" lon="149.165222">
  <ele>600.32</ele>
  <time>2026-08-27T18:28:20Z</time>
  <course>316.74</course>
  <speed>0.06</speed>
  <fix>3d</fix>
</trkpt>
<trkpt lat="-35.3629112" lon="149.1652219">
  <ele>599.81</ele>
  <time>2026-08-27T18:28:20Z</time>
  <course>341.14</course>
  <speed>0.05</speed>
  <fix>3d</fix>
</trkpt>
<trkpt lat="-35.3629112" lon="149.1652219">
  <ele>600.03</ele>
  <time>2026-08-27T18:28:20Z</time>
  <course>324.01</course>
  <speed>0.05</speed>
  <fix>3d</fix>
</trkpt>
<trkpt lat="-35.3629111" lon="149.1652218">
  <ele>599.52</ele>
  <time>2026-08-27T18:28:20Z</time>
  <course>341.12</course>
  <speed>0.044721359549995794</speed>
  <fix>3d</fix>
</trkpt>
<trkpt lat="-35.3629111" lon="149.1652218">
  <ele>599.74</ele>
  <time>2026-08-27T18:28:20Z</time>
  <course>330.61</course>
  <speed>0.05</speed>
  <fix>3d</fix>
</trkpt>
<trkpt lat="-35.362911" lon="149.1652218">
  <ele>599.23</ele>
  <time>2026-08-27T18:28:20Z</time>
  <course>341.1</course>
  <speed>0.044721359549995794</speed>
  <fix>3d</fix>
</trkpt>
<trkpt lat="-35.362911" lon="149.1652217">
  <ele>599.44</ele>
  <time>2026-08-27T18:28:20Z</time>
  <course>336.75</course>
  <speed>0.05</speed>
  <fix>3d</fix>
</trkpt>
<trkpt lat="-35.3629109" lon="149.1652217">
  <ele>598.93</ele>
  <time>2026-08-27T18:28:20Z</time>
  <course>341.08</course>
  <speed>0.0412310562561766</speed>
  <fix>3d</fix>
</trkpt>
<trkpt lat="-35.3629109" lon="149.1652217">
  <ele>599.14</ele>
  <time>2026-08-27T18:28:20Z</time>
  <course>343.39</course>
  <speed>0.04</speed>
  <fix>3d</fix>
</trkpt>
<trkpt lat="-35.3629109" lon="149.1652217">
  <ele>598.64</ele>
  <time>2026-08-27T18:28:20Z</time>
  <course>341.07</course>
  <speed>0.03</speed>
  <fix>3d</fix>
</trkpt>
<trkpt lat="-35.3629109" lon="149.1652217">
  <ele>598.83</ele>
  <time>2026-08-27T18:28:20Z</time>
  <course>351.36</course>
  <speed>0.04</speed>
  <fix>3d</fix>
</trkpt>
<trkpt lat="-35.3629108" lon="149.1652217">
  <ele>598.34</ele>
  <time>2026-08-27T18:28:20Z</time>
  <course>341.05</course>
  <speed>0.03</speed>
  <fix>3d</fix>
</trkpt>
<trkpt lat="-35.3629108" lon="149.1652217">
  <ele>598.54</ele>
  <time>2026-08-27T18:28:20Z</time>
  <course>1.03</course>
  <speed>0.03</speed>
  <fix>3d</fix>
</trkpt>
<trkpt lat="-35.3629107" lon="149.1652217">
  <ele>598.04</ele>
  <time>2026-08-27T18:28:20Z</time>
  <course>341.01</course>
  <speed>0.02</speed>
  <fix>3d</fix>
</trkpt>
<trkpt lat="-35.3629107" lon="149.1652217">
  <ele>598.24</ele>
  <time>2026-08-27T18:28:20Z</time>
  <course>12.81</course>
  <speed>0.03</speed>
  <fix>3d</fix>
</trkpt>
<trkpt lat="-35.3629107" lon="149.1652217">
  <ele>597.74</ele>
  <time>2026-08-27T18:28:20Z</time>
  <course>341.01</course>
  <speed>0.02</speed>
  <fix>3d</fix>
</trkpt>
<trkpt lat="-35.3629107" lon="149.1652217">
  <ele>597.93</ele>
  <time>2026-08-27T18:28:20Z</time>
  <course>27.37</course>
  <speed>0.03</speed>
  <fix>3d</fix>
</trkpt>
<trkpt lat="-35.3629107" lon="149.1652218">
  <ele>597.43</ele>
  <time>2026-08-27T18:28:20Z</time>
  <course>340.97</course>
  <speed>0.01414213562373095</speed>
  <fix>3d</fix>
</trkpt>
<trkpt lat="-35.3629107" lon="149.1652217">
  <ele>597.63</ele>
  <time>2026-08-27T18:28:20Z</time>
  <course>44.89</course>
  <speed>0.02</speed>
  <fix>3d</fix>
</trkpt>
<trkpt lat="-35.3629106" lon="149.1652218">
  <ele>597.13</ele>
  <time>2026-08-27T18:28:20Z</time>
  <course>340.93</course>
  <speed>0.01</speed>
  <fix>3d</fix>
</trkpt>
<trkpt lat="-35.3629106" lon="149.1652217">
  <ele>597.32</ele>
  <time>2026-08-27T18:28:20Z</time>
  <course>63.16</course>
  <speed>0.02</speed>
  <fix>3d</fix>
</trkpt>
<trkpt lat="-35.3629106" lon="149.1652218">
  <ele>596.83</ele>
  <time>2026-08-27T18:28:20Z</time>
  <course>340.9</course>
  <speed>0.01</speed>
  <fix>3d</fix>
</trkpt>
<trkpt lat="-35.3629106" lon="149.1652218">
  <ele>597.02</ele>
  <time>2026-08-27T18:28:20Z</time>
  <course>79.83</course>
  <speed>0.02</speed>
  <fix>3d</fix>
</trkpt>
<trkpt lat="-35.3629106" lon="149.1652218">
  <ele>596.53</ele>
  <time>2026-08-27T18:28:20Z</time>
  <course>340.88</course>
  <speed>0.02</speed>
  <fix>3d</fix>
</trkpt>
<trkpt lat="-35.3629106" lon="149.1652219">
  <ele>596.71</ele>
  <time>2026-08-27T18:28:20Z</time>
  <course>93.73</course>
  <speed>0.03</speed>
  <fix>3d</fix>
</trkpt>
<trkpt lat="-35.3629107" lon="149.1652219">
  <ele>596.23</ele>
  <time>2026-08-27T18:28:20Z</time>
  <course>340.86</course>
  <speed>0.022360679774997897</speed>
  <fix>3d</fix>
</trkpt>
<trkpt lat="-35.3629106" lon="149.1652219">
  <ele>596.41</ele>
  <time>2026-08-27T18:28:20Z</time>
  <course>104.41</course>
  <speed>0.03</speed>
  <fix>3d</fix>
</trkpt>
<trkpt lat="-35.3629107" lon="149.1652219">
  <ele>595.92</ele>
  <time>2026-08-27T18:28:20Z</time>
  <course>340.82</course>
  <speed>0.01414213562373095</speed>
  <fix>3d</fix>
</trkpt>
<trkpt lat="-35.3629106" lon="149.165222">
  <ele>596.11</ele>
  <time>2026-08-27T18:28:20Z</time>
  <course>112.8</course>
  <speed>0.03</speed>
  <fix>3d</fix>
</trkpt>
<trkpt lat="-35.3629107" lon="149.165222">
  <ele>595.62</ele>
  <time>2026-08-27T18:28:20Z</time>
  <course>340.79</course>
  <speed>0.01414213562373095</speed>
  <fix>3d</fix>
</trkpt>
<trkpt lat="-35.3629107" lon="149.1652221">
  <ele>595.81</ele>
  <time>2026-08-27T18:28:20Z</time>
  <course>119.26</course>
  <speed>0.03</speed>
  <fix>3d</fix>
</trkpt>
<trkpt lat="-35.3629107" lon="149.1652221">
  <ele>595.32</ele>
  <time>2026-08-27T18:28:20Z</time>
  <course>340.77</course>
  <speed>0.022360679774997897</speed>
  <fix>3d</fix>
</trkpt>
<trkpt lat="-35.3629107" lon="149.1652221">
  <ele>595.5</ele>
  <time>2026-08-27T18:28:20Z</time>
  <course>124.93</course>
  <speed>0.03</speed>
  <fix>3d</fix>
</trkpt>
<trkpt lat="-35.3629107" lon="149.1652221">
  <ele>595.02</ele>
  <time>2026-08-27T18:28:20Z</time>
  <course>340.75</course>
  <speed>0.022360679774997897</speed>
  <fix>3d</fix>
</trkpt>
<trkpt lat="-35.3629107" lon="149.1652222">
  <ele>595.19</ele>
  <time>2026-08-27T18:28:20Z</time>
  <course>130.1</course>
  <speed>0.03</speed>
  <fix>3d</fix>
</trkpt>
<trkpt lat="-35.3629107" lon="149.1652222">
  <ele>594.71</ele>
  <time>2026-08-27T18:28:20Z</time>
  <course>340.72</course>
  <speed>0.02</speed>
  <fix>3d</fix>
</trkpt>
<trkpt lat="-35.3629107" lon="149.1652222">
  <ele>594.9</ele>
  <time>2026-08-27T18:28:20Z</time>
  <course>134.33</course>
  <speed>0.03</speed>
  <fix>3d</fix>
</trkpt>
<trkpt lat="-35.3629108" lon="149.1652222">
  <ele>594.41</ele>
  <time>2026-08-27T18:28:20Z</time>
  <course>340.7</course>
  <speed>0.02</speed>
  <fix>3d</fix>
</trkpt>
<trkpt lat="-35.3629107" lon="149.1652223">
  <ele>594.6</ele>
  <time>2026-08-27T18:28:20Z</time>
  <course>138.62</course>
  <speed>0.03</speed>
  <fix>3d</fix>
</trkpt>
<trkpt lat="-35.3629108" lon="149.1652222">
  <ele>594.1</ele>
  <time>2026-08-27T18:28:20Z</time>
  <course>340.67</course>
  <speed>0.01</speed>
  <fix>3d</fix>
</trkpt>
<trkpt lat="-35.3629108" lon="149.1652224">
  <ele>594.3</ele>
  <time>2026-08-27T18:28:20Z</time>
  <course>143.67</course>
  <speed>0.03</speed>
  <fix>3d</fix>
</trkpt>
<trkpt lat="-35.3629108" lon="149.1652223">
  <ele>593.8</ele>
  <time>2026-08-27T18:28:20Z</time>
  <course>340.64</course>
  <speed>0.01</speed>
  <fix>3d</fix>
</trkpt>
<trkpt lat="-35.3629108" lon="149.1652224">
  <ele>594.0</ele>
  <time>2026-08-27T18:28:20Z</time>
  <course>148.4</course>
  <speed>0.03</speed>
  <fix>3d</fix>
</trkpt>
<trkpt lat="-35.3629109" lon="149.1652223">
  <ele>593.5</ele>
  <time>2026-08-27T18:28:20Z</time>
  <course>340.61</course>
  <speed>0.01</speed>
  <fix>3d</fix>
</trkpt>
<trkpt lat="-35.3629108" lon="149.1652225">
  <ele>593.69</ele>
  <time>2026-08-27T18:28:20Z</time>
  <course>153.24</course>
  <speed>0.02</speed>
  <fix>3d</fix>
</trkpt>
<trkpt lat="-35.3629109" lon="149.1652223">
  <ele>593.22</ele>
  <time>2026-08-27T18:28:20Z</time>
  <course>340.36</course>
  <speed>0.01</speed>
  <fix>3d</fix>
</trkpt>
<trkpt lat="-35.3629109" lon="149.1652225">
  <ele>593.4</ele>
  <time>2026-08-27T18:28:20Z</time>
  <course>157.81</course>
  <speed>0.02</speed>
  <fix>3d</fix>
</trkpt>
<trkpt lat="-35.3629109" lon="149.1652223">
  <ele>592.95</ele>
  <time>2026-08-27T18:28:20Z</time>
  <course>340.01</course>
  <speed>0.01414213562373095</speed>
  <fix>3d</fix>
</trkpt>
<trkpt lat="-35.3629109" lon="149.1652225">
  <ele>593.12</ele>
  <time>2026-08-27T18:28:20Z</time>
  <course>163.62</course>
  <speed>0.02</speed>
  <fix>3d</fix>
</trkpt>
<trkpt lat="-35.3629109" lon="149.1652223">
  <ele>592.73</ele>
  <time>2026-08-27T18:28:20Z</time>
  <course>339.65</course>
  <speed>0.01414213562373095</speed>
  <fix>3d</fix>
</trkpt>
<trkpt lat="-35.3629109" lon="149.1652225">
  <ele>592.87</ele>
  <time>2026-08-27T18:28:20Z</time>
  <course>175.65</course>
  <speed>0.02</speed>
  <fix>3d</fix>
</trkpt>
<trkpt lat="-35.362911" lon="149.1652223">
  <ele>592.55</ele>
  <time>2026-08-27T18:28:20Z</time>
  <course>339.31</course>
  <speed>0.022360679774997897</speed>
  <fix>3d</fix>
</trkpt>
<trkpt lat="-35.362911" lon="149.1652225">
  <ele>592.66</ele>
  <time>2026-08-27T18:28:20Z</time>
  <course>192.87</course>
  <speed>0.02</speed>
  <fix>3d</fix>
</trkpt>
<trkpt lat="-35.362911" lon="149.1652223">
  <ele>592.42</ele>
  <time>2026-08-27T18:28:20Z</time>
  <course>339.05</course>
  <speed>0.0316227766016838</speed>
  <fix>3d</fix>
</trkpt>
<trkpt lat="-35.3629111" lon="149.1652225">
  <ele>592.5</ele>
  <time>2026-08-27T18:28:20Z</time>
  <course>209.13</course>
  <speed>0.02</speed>
  <fix>3d</fix>
</trkpt>
<trkpt lat="-35.362911" lon="149.1652223">
  <ele>592.32</ele>
  <time>2026-08-27T18:28:20Z</time>
  <course>339.05</course>
  <speed>0.0412310562561766</speed>
  <fix>3d</fix>
</trkpt>
<trkpt lat="-35.3629111" lon="149.1652225">
  <ele>592.38</ele>
  <time>2026-08-27T18:28:20Z</time>
  <course>220.84</course>
  <speed>0.03</speed>
  <fix>3d</fix>
</trkpt>
<trkpt lat="-35.3629111" lon="149.1652223">
  <ele>592.24</ele>
  <time>2026-08-27T18:28:20Z</time>
  <course>339.11</course>
  <speed>0.0412310562561766</speed>
  <fix>3d</fix>
</trkpt>
<trkpt lat="-35.3629112" lon="149.1652225">
  <ele>592.28</ele>
  <time>2026-08-27T18:28:20Z</time>
  <course>228.22</course>
  <speed>0.03</speed>
  <fix>3d</fix>
</trkpt>
<trkpt lat="-35.3629111" lon="149.1652222">
  <ele>592.16</ele>
  <time>2026-08-27T18:28:20Z</time>
  <course>339.21</course>
  <speed>0.05099019513592785</speed>
  <fix>3d</fix>
</trkpt>
<trkpt lat="-35.3629112" lon="149.1652224">
  <ele>592.2</ele>
  <time>2026-08-27T18:28:20Z</time>
  <course>233.46</course>
  <speed>0.04</speed>
  <fix>3d</fix>
</trkpt>
<trkpt lat="-35.3629112" lon="149.1652221">
  <ele>592.08</ele>
  <time>2026-08-27T18:28:20Z</time>
  <course>339.26</course>
  <speed>0.05099019513592785</speed>
  <fix>3d</fix>
</trkpt>
<trkpt lat="-35.3629113" lon="149.1652223">
  <ele>592.13</ele>
  <time>2026-08-27T18:28:20Z</time>
  <course>238.23</course>
  <speed>0.04</speed>
  <fix>3d</fix>
</trkpt>
<trkpt lat="-35.3629112" lon="149.1652221">
  <ele>592.01</ele>
  <time>2026-08-27T18:28:20Z</time>
  <course>339.34</course>
  <speed>0.05</speed>
  <fix>3d</fix>
</trkpt>
<trkpt lat="-35.3629113" lon="149.1652222">
  <ele>592.05</ele>
  <time>2026-08-27T18:28:20Z</time>
  <course>243.37</course>
  <speed>0.04</speed>
  <fix>3d</fix>
</trkpt>
<trkpt lat="-35.3629112" lon="149.165222">
  <ele>591.92</ele>
  <time>2026-08-27T18:28:20Z</time>
  <course>339.38</course>
  <speed>0.04</speed>
  <fix>3d</fix>
</trkpt>
<trkpt lat="-35.3629113" lon="149.1652222">
  <ele>591.97</ele>
  <time>2026-08-27T18:28:20Z</time>
  <course>249.25</course>
  <speed>0.03</speed>
  <fix>3d</fix>
</trkpt>
<trkpt lat="-35.3629112" lon="149.1652219">
  <ele>591.84</ele>
  <time>2026-08-27T18:28:20Z</time>
  <course>339.44</course>
  <speed>0.04</speed>
  <fix>3d</fix>
</trkpt>
<trkpt lat="-35.3629114" lon="149.1652221">
  <ele>591.88</ele>
  <time>2026-08-27T18:28:20Z</time>
  <course>256.1</course>
  <speed>0.03</speed>
  <fix>3d</fix>
</trkpt>
<trkpt lat="-35.3629112" lon="149.1652219">
  <ele>591.75</ele>
  <time>2026-08-27T18:28:20Z</time>
  <course>339.47</course>
  <speed>0.03</speed>
  <fix>3d</fix>
</trkpt>
<trkpt lat="-35.3629114" lon="149.165222">
  <ele>591.79</ele>
  <time>2026-08-27T18:28:20Z</time>
  <course>264.15</course>
  <speed>0.03</speed>
  <fix>3d</fix>
</trkpt>
<trkpt lat="-35.3629112" lon="149.1652218">
  <ele>591.65</ele>
  <time>2026-08-27T18:28:20Z</time>
  <course>339.48</course>
  <speed>0.0316227766016838</speed>
  <fix>3d</fix>
</trkpt>
<trkpt lat="-35.3629114" lon="149.165222">
  <ele>591.7</ele>
  <time>2026-08-27T18:28:20Z</time>
  <course>274.04</course>
  <speed>0.02</speed>
  <fix>3d</fix>
</trkpt>
<trkpt lat="-35.3629112" lon="149.1652218">
  <ele>591.56</ele>
  <time>2026-08-27T18:28:20Z</time>
  <course>339.49</course>
  <speed>0.022360679774997897</speed>
  <fix>3d</fix>
</trkpt>
<trkpt lat="-35.3629114" lon="149.1652219">
  <ele>591.61</ele>
  <time>2026-08-27T18:28:20Z</time>
  <course>287.84</course>
  <speed>0.02</speed>
  <fix>3d</fix>
</trkpt>
<trkpt lat="-35.3629112" lon="149.1652218">
  <ele>591.46</ele>
  <time>2026-08-27T18:28:20Z</time>
  <course>339.49</course>
  <speed>0.0282842712474619</speed>
  <fix>3d</fix>
</trkpt>
<trkpt lat="-35.3629114" lon="149.1652219">
  <ele>591.51</ele>
  <time>2026-08-27T18:28:20Z</time>
  <course>306.59</course>
  <speed>0.01</speed>
  <fix>3d</fix>
</trkpt>
<trkpt lat="-35.3629112" lon="149.1652217">
  <ele>591.36</ele>
  <time>2026-08-27T18:28:20Z</time>
  <course>339.49</course>
  <speed>0.022360679774997897</speed>
  <fix>3d</fix>
</trkpt>
<trkpt lat="-35.3629114" lon="149.1652219">
  <ele>591.41</ele>
  <time>2026-08-27T18:28:20Z</time>
  <course>327.55</course>
  <speed>0.01</speed>
  <fix>3d</fix>
</trkpt>
<trkpt lat="-35.3629112" lon="149.1652217">
  <ele>591.26</ele>
  <time>2026-08-27T18:28:20Z</time>
  <course>339.49</course>
  <speed>0.022360679774997897</speed>
  <fix>3d</fix>
</trkpt>
<trkpt lat="-35.3629114" lon="149.1652218">
  <ele>591.3</ele>
  <time>2026-08-27T18:28:20Z</time>
  <course>345.91</course>
  <speed>0.02</speed>
  <fix>3d</fix>
</trkpt>
<trkpt lat="-35.3629112" lon="149.1652217">
  <ele>591.16</ele>
  <time>2026-08-27T18:28:20Z</time>
  <course>339.49</course>
  <speed>0.03</speed>
  <fix>3d</fix>
</trkpt>
<trkpt lat="-35.3629113" lon="149.1652217">
  <ele>591.2</ele>
  <time>2026-08-27T18:28:20Z</time>
  <course>359.29</course>
  <speed>0.02</speed>
  <fix>3d</fix>
</trkpt>
<trkpt lat="-35.3629112" lon="149.1652218">
  <ele>591.06</ele>
  <time>2026-08-27T18:28:20Z</time>
  <course>339.5</course>
  <speed>0.03</speed>
  <fix>3d</fix>
</trkpt>
<trkpt lat="-35.3629113" lon="149.1652218">
  <ele>591.1</ele>
  <time>2026-08-27T18:28:20Z</time>
  <course>9.34</course>
  <speed>0.02</speed>
  <fix>3d</fix>
</trkpt>
<trkpt lat="-35.3629112" lon="149.1652218">
  <ele>590.96</ele>
  <time>2026-08-27T18:28:20Z</time>
  <course>339.51</course>
  <speed>0.03</speed>
  <fix>3d</fix>
</trkpt>
<trkpt lat="-35.3629112" lon="149.1652219">
  <ele>590.99</ele>
  <time>2026-08-27T18:28:20Z</time>
  <course>17.36</course>
  <speed>0.02</speed>
  <fix>3d</fix>
</trkpt>
<trkpt lat="-35.3629111" lon="149.1652218">
  <ele>590.85</ele>
  <time>2026-08-27T18:28:20Z</time>
  <course>339.5</course>
  <speed>0.03</speed>
  <fix>3d</fix>
</trkpt>
<trkpt lat="-35.3629112" lon="149.1652219">
  <ele>590.89</ele>
  <time>2026-08-27T18:28:20Z</time>
  <course>24.57</course>
  <speed>0.02</speed>
  <fix>3d</fix>
</trkpt>
<trkpt lat="-35.3629111" lon="149.1652218">
  <ele>590.75</ele>
  <time>2026-08-27T18:28:20Z</time>
  <course>339.5</course>
  <speed>0.02</speed>
  <fix>3d</fix>
</trkpt>
<trkpt lat="-35.3629112" lon="149.1652219">
  <ele>590.79</ele>
  <time>2026-08-27T18:28:20Z</time>
  <course>31.14</course>
  <speed>0.02</speed>
  <fix>3d</fix>
</trkpt>
<trkpt lat="-35.3629111" lon="149.1652218">
  <ele>590.65</ele>
  <time>2026-08-27T18:28:20Z</time>
  <course>339.51</course>
  <speed>0.02</speed>
  <fix>3d</fix>
</trkpt>
<trkpt lat="-35.3629111" lon="149.1652219">
  <ele>590.69</ele>
  <time>2026-08-27T18:28:20Z</time>
  <course>37.08</course>
  <speed>0.02</speed>
  <fix>3d</fix>
</trkpt>
<trkpt lat="-35.362911" lon="149.1652218">
  <ele>590.55</ele>
  <time>2026-08-27T18:28:20Z</time>
  <course>339.49</course>
  <speed>0.02</speed>
  <fix>3d</fix>
</trkpt>
<trkpt lat="-35.3629111" lon="149.1652219">
  <ele>590.58</ele>
  <time>2026-08-27T18:28:20Z</time>
  <course>43.61</course>
  <speed>0.02</speed>
  <fix>3d</fix>
</trkpt>
<trkpt lat="-35.362911" lon="149.1652219">
  <ele>590.44</ele>
  <time>2026-08-27T18:28:20Z</time>
  <course>339.51</course>
  <speed>0.02</speed>
  <fix>3d</fix>
</trkpt>
<trkpt lat="-35.362911" lon="149.1652219">
  <ele>590.48</ele>
  <time>2026-08-27T18:28:20Z</time>
  <course>50.34</course>
  <speed>0.02</speed>
  <fix>3d</fix>
</trkpt>
<trkpt lat="-35.362911" lon="149.1652219">
  <ele>590.34</ele>
  <time>2026-08-27T18:28:20Z</time>
  <course>339.5</course>
  <speed>0.01</speed>
  <fix>3d</fix>
</trkpt>
<trkpt lat="-35.3629109" lon="149.165222">
  <ele>590.38</ele>
  <time>2026-08-27T18:28:20Z</time>
  <course>56.68</course>
  <speed>0.02</speed>
  <fix>3d</fix>
</trkpt>
<trkpt lat="-35.362911" lon="149.1652219">
  <ele>590.24</ele>
  <time>2026-08-27T18:28:20Z</time>
  <course>339.52</course>
  <speed>0.01</speed>
  <fix>3d</fix>
</trkpt>
<trkpt lat="-35.3629109" lon="149.165222">
  <ele>590.28</ele>
  <time>2026-08-27T18:28:20Z</time>
  <course>62.73</course>
  <speed>0.02</speed>
  <fix>3d</fix>
</trkpt>
<trkpt lat="-35.3629109" lon="149.165222">
  <ele>590.15</ele>
  <time>2026-08-27T18:28:20Z</time>
  <course>339.51</course>
  <speed>0.01</speed>
  <fix>3d</fix>
</trkpt>
<trkpt lat="-35.3629109" lon="149.1652221">
  <ele>590.18</ele>
  <time>2026-08-27T18:28:20Z</time>
  <course>69.07</course>
  <speed>0.02</speed>
  <fix>3d</fix>
</trkpt>
<trkpt lat="-35.3629109" lon="149.165222">
  <ele>590.05</ele>
  <time>2026-08-27T18:28:20Z</time>
  <course>339.53</course>
  <speed>0.0</speed>
  <fix>3d</fix>
</trkpt>
<trkpt lat="-35.3629109" lon="149.1652221">
  <ele>590.08</ele>
  <time>2026-08-27T18:28:20Z</time>
  <course>76.7</course>
  <speed>0.02</speed>
  <fix>3d</fix>
</trkpt>
<trkpt lat="-35.3629109" lon="149.165222">
  <ele>589.95</ele>
  <time>2026-08-27T18:28:20Z</time>
  <course>339.52</course>
  <speed>0.0</speed>
  <fix>3d</fix>
</trkpt>
<trkpt lat="-35.3629109" lon="149.1652222">
  <ele>589.98</ele>
  <time>2026-08-27T18:28:20Z</time>
  <course>85.17</course>
  <speed>0.02</speed>
  <fix>3d</fix>
</trkpt>
<trkpt lat="-35.3629109" lon="149.1652221">
  <ele>589.85</ele>
  <time>2026-08-27T18:28:20Z</time>
  <course>339.52</course>
  <speed>0.0</speed>
  <fix>3d</fix>
</trkpt>
<trkpt lat="-35.3629109" lon="149.1652222">
  <ele>589.88</ele>
  <time>2026-08-27T18:28:20Z</time>
  <course>93.17</course>
  <speed>0.01</speed>
  <fix>3d</fix>
</trkpt>
<trkpt lat="-35.3629109" lon="149.1652221">
  <ele>589.75</ele>
  <time>2026-08-27T18:28:20Z</time>
  <course>339.53</course>
  <speed>0.0</speed>
  <fix>3d</fix>
</trkpt>
<trkpt lat="-35.3629109" lon="149.1652222">
  <ele>589.78</ele>
  <time>2026-08-27T18:28:20Z</time>
  <course>100.62</course>
  <speed>0.01</speed>
  <fix>3d</fix>
</trkpt>
<trkpt lat="-35.3629109" lon="149.1652221">
  <ele>589.64</ele>
  <time>2026-08-27T18:28:20Z</time>
  <course>339.54</course>
  <speed>0.0</speed>
  <fix>3d</fix>
</trkpt>
<trkpt lat="-35.3629109" lon="149.1652222">
  <ele>589.68</ele>
  <time>2026-08-27T18:28:20Z</time>
  <course>108.16</course>
  <speed>0.01</speed>
  <fix>3d</fix>
</trkpt>
<trkpt lat="-35.3629109" lon="149.1652222">
  <ele>589.54</ele>
  <time>2026-08-27T18:28:20Z</time>
  <course>339.52</course>
  <speed>0.0</speed>
  <fix>3d</fix>
</trkpt>
<trkpt lat="-35.3629109" lon="149.1652223">
  <ele>589.58</ele>
  <time>2026-08-27T18:28:20Z</time>
  <course>115.71</course>
  <speed>0.01</speed>
  <fix>3d</fix>
</trkpt>
<trkpt lat="-35.3629109" lon="149.1652222">
  <ele>589.44</ele>
  <time>2026-08-27T18:28:20Z</time>
  <course>339.52</course>
  <speed>0.0</speed>
  <fix>3d</fix>
</trkpt>
<trkpt lat="-35.3629109" lon="149.1652224">
  <ele>589.48</ele>
  <time>2026-08-27T18:28:20Z</time>
  <course>122.58</course>
  <speed>0.01</speed>
  <fix>3d</fix>
</trkpt>
<trkpt lat="-35.3629109" lon="149.1652222">
  <ele>589.34</ele>
  <time>2026-08-27T18:28:20Z</time>
  <course>339.52</course>
  <speed>0.0</speed>
  <fix>3d</fix>
</trkpt>
<trkpt lat="-35.3629109" lon="149.1652224">
  <ele>589.38</ele>
  <time>2026-08-27T18:28:20Z</time>
  <course>129.95</course>
  <speed>0.01</speed>
  <fix>3d</fix>
</trkpt>
<trkpt lat="-35.3629109" lon="149.1652222">
  <ele>589.24</ele>
  <time>2026-08-27T18:28:20Z</time>
  <course>339.54</course>
  <speed>0.01</speed>
  <fix>3d</fix>
</trkpt>
<trkpt lat="-35.3629109" lon="149.1652224">
  <ele>589.28</ele>
  <time>2026-08-27T18:28:20Z</time>
  <course>137.85</course>
  <speed>0.01</speed>
  <fix>3d</fix>
</trkpt>
<trkpt lat="-35.3629109" lon="149.1652222">
  <ele>589.14</ele>
  <time>2026-08-27T18:28:20Z</time>
  <course>339.53</course>
  <speed>0.01</speed>
  <fix>3d</fix>
</trkpt>
<trkpt lat="-35.3629109" lon="149.1652224">
  <ele>589.18</ele>
  <time>2026-08-27T18:28:20Z</time>
  <course>145.9</course>
  <speed>0.01</speed>
  <fix>3d</fix>
</trkpt>
<trkpt lat="-35.3629109" lon="149.1652222">
  <ele>589.04</ele>
  <time>2026-08-27T18:28:20Z</time>
  <course>339.52</course>
  <speed>0.01</speed>
  <fix>3d</fix>
</trkpt>
<trkpt lat="-35.3629109" lon="149.1652224">
  <ele>589.08</ele>
  <time>2026-08-27T18:28:20Z</time>
  <course>154.53</course>
  <speed>0.01</speed>
  <fix>3d</fix>
</trkpt>
<trkpt lat="-35.3629109" lon="149.1652222">
  <ele>588.94</ele>
  <time>2026-08-27T18:28:20Z</time>
  <course>339.54</course>
  <speed>0.01</speed>
  <fix>3d</fix>
</trkpt>
<trkpt lat="-35.3629109" lon="149.1652225">
  <ele>588.98</ele>
  <time>2026-08-27T18:28:20Z</time>
  <course>164.2</course>
  <speed>0.01</speed>
  <fix>3d</fix>
</trkpt>
<trkpt lat="-35.3629109" lon="149.1652223">
  <ele>588.84</ele>
  <time>2026-08-27T18:28:20Z</time>
  <course>339.54</course>
  <speed>0.01</speed>
  <fix>3d</fix>
</trkpt>
<trkpt lat="-35.3629109" lon="149.1652225">
  <ele>588.88</ele>
  <time>2026-08-27T18:28:20Z</time>
  <course>173.38</course>
  <speed>0.01</speed>
  <fix>3d</fix>
</trkpt>
<trkpt lat="-35.3629109" lon="149.1652223">
  <ele>588.74</ele>
  <time>2026-08-27T18:28:20Z</time>
  <course>339.54</course>
  <speed>0.01</speed>
  <fix>3d</fix>
</trkpt>
<trkpt lat="-35.3629109" lon="149.1652225">
  <ele>588.78</ele>
  <time>2026-08-27T18:28:20Z</time>
  <course>180.42</course>
  <speed>0.0</speed>
  <fix>3d</fix>
</trkpt>
<trkpt lat="-35.3629109" lon="149.1652223">
  <ele>588.64</ele>
  <time>2026-08-27T18:28:20Z</time>
  <course>339.55</course>
  <speed>0.01</speed>
  <fix>3d</fix>
</trkpt>
<trkpt lat="-35.362911" lon="149.1652225">
  <ele>588.68</ele>
  <time>2026-08-27T18:28:20Z</time>
  <course>188.85</course>
  <speed>0.0</speed>
  <fix>3d</fix>
</trkpt>
<trkpt lat="-35.3629109" lon="149.1652223">
  <ele>588.54</ele>
  <time>2026-08-27T18:28:20Z</time>
  <course>339.53</course>
  <speed>0.02</speed>
  <fix>3d</fix>
</trkpt>
<trkpt lat="-35.3629111" lon="149.1652225">
  <ele>588.58</ele>
  <time>2026-08-27T18:28:20Z</time>
  <course>197.81</course>
  <speed>0.0</speed>
  <fix>3d</fix>
</trkpt>
<trkpt lat="-35.3629109" lon="149.1652223">
  <ele>588.44</ele>
  <time>2026-08-27T18:28:20Z</time>
  <course>339.56</course>
  <speed>0.02</speed>
  <fix>3d</fix>
</trkpt>
<trkpt lat="-35.3629111" lon="149.1652225">
  <ele>588.48</ele>
  <time>2026-08-27T18:28:20Z</time>
  <course>206.39</course>
  <speed>0.0</speed>
  <fix>3d</fix>
</trkpt>
<trkpt lat="-35.362911" lon="149.1652223">
  <ele>588.34</ele>
  <time>2026-08-27T18:28:20Z</time>
  <course>339.55</course>
  <speed>0.02</speed>
  <fix>3d</fix>
</trkpt>
<trkpt lat="-35.3629111" lon="149.1652225">
  <ele>588.38</ele>
  <time>2026-08-27T18:28:20Z</time>
  <course>214.93</course>
  <speed>0.0</speed>
  <fix>3d</fix>
</trkpt>
<trkpt lat="-35.362911" lon="149.1652223">
  <ele>588.24</ele>
  <time>2026-08-27T18:28:20Z</time>
  <course>339.55</course>
  <speed>0.02</speed>
  <fix>3d</fix>
</trkpt>
<trkpt lat="-35.3629111" lon="149.1652225">
  <ele>588.28</ele>
  <time>2026-08-27T18:28:20Z</time>
  <course>224.83</course>
  <speed>0.0</speed>
  <fix>3d</fix>
</trkpt>
<trkpt lat="-35.362911" lon="149.1652223">
  <ele>588.14</ele>
  <time>2026-08-27T18:28:20Z</time>
  <course>339.54</course>
  <speed>0.02</speed>
  <fix>3d</fix>
</trkpt>
<trkpt lat="-35.3629111" lon="149.1652225">
  <ele>588.18</ele>
  <time>2026-08-27T18:28:20Z</time>
  <course>237.52</course>
  <speed>0.0</speed>
  <fix>3d</fix>
</trkpt>
<trkpt lat="-35.362911" lon="149.1652223">
  <ele>588.04</ele>
  <time>2026-08-27T18:28:20Z</time>
  <course>339.55</course>
  <speed>0.02</speed>
  <fix>3d</fix>
</trkpt>
<trkpt lat="-35.3629111" lon="149.1652225">
  <ele>588.08</ele>
  <time>2026-08-27T18:28:20Z</time>
  <course>250.18</course>
  <speed>0.0</speed>
  <fix>3d</fix>
</trkpt>
<trkpt lat="-35.362911" lon="149.1652223">
  <ele>587.95</ele>
  <time>2026-08-27T18:28:20Z</time>
  <course>339.56</course>
  <speed>0.02</speed>
  <fix>3d</fix>
</trkpt>
<trkpt lat="-35.3629111" lon="149.1652225">
  <ele>587.98</ele>
  <time>2026-08-27T18:28:20Z</time>
  <course>261.16</course>
  <speed>0.0</speed>
  <fix>3d</fix>
</trkpt>
<trkpt lat="-35.362911" lon="149.1652223">
  <ele>587.85</ele>
  <time>2026-08-27T18:28:20Z</time>
  <course>339.56</course>
  <speed>0.02</speed>
  <fix>3d</fix>
</trkpt>
<trkpt lat="-35.3629111" lon="149.1652224">
  <ele>587.88</ele>
  <time>2026-08-27T18:28:20Z</time>
  <course>270.6</course>
  <speed>0.0</speed>
  <fix>3d</fix>
</trkpt>
<trkpt lat="-35.362911" lon="149.1652223">
  <ele>587.75</ele>
  <time>2026-08-27T18:28:20Z</time>
  <course>339.57</course>
  <speed>0.022360679774997897</speed>
  <fix>3d</fix>
</trkpt>
<trkpt lat="-35.3629111" lon="149.1652224">
  <ele>587.78</ele>
  <time>2026-08-27T18:28:20Z</time>
  <course>278.3</course>
  <speed>0.0</speed>
  <fix>3d</fix>
</trkpt>
<trkpt lat="-35.362911" lon="149.1652223">
  <ele>587.64</ele>
  <time>2026-08-27T18:28:20Z</time>
  <course>339.57</course>
  <speed>0.022360679774997897</speed>
  <fix>3d</fix>
</trkpt>
<trkpt lat="-35.3629111" lon="149.1652224">
  <ele>587.68</ele>
  <time>2026-08-27T18:28:20Z</time>
  <course>283.98</course>
  <speed>0.0</speed>
  <fix>3d</fix>
</trkpt>
<trkpt lat="-35.362911" lon="149.1652223">
  <ele>587.54</ele>
  <time>2026-08-27T18:28:20Z</time>
  <course>339.55</course>
  <speed>0.022360679774997897</speed>
  <fix>3d</fix>
</trkpt>
<trkpt lat="-35.3629111" lon="149.1652224">
  <ele>587.58</ele>
  <time>2026-08-27T18:28:20Z</time>
  <course>288.95</course>
  <speed>0.01</speed>
  <fix>3d</fix>
</trkpt>
<trkpt lat="-35.362911" lon="149.1652222">
  <ele>587.45</ele>
  <time>2026-08-27T18:28:21Z</time>
  <course>339.58</course>
  <speed>0.022360679774997897</speed>
  <fix>3d</fix>
</trkpt>
<trkpt lat="-35.3629111" lon="149.1652224">
  <ele>587.48</ele>
  <time>2026-08-27T18:28:21Z</time>
  <course>293.17</course>
  <speed>0.01</speed>
  <fix>3d</fix>
</trkpt>
<trkpt lat="-35.362911" lon="149.1652222">
  <ele>587.35</ele>
  <time>2026-08-27T18:28:21Z</time>
  <course>339.57</course>
  <speed>0.022360679774997897</speed>
  <fix>3d</fix>
</trkpt>
<trkpt lat="-35.3629111" lon="149.1652223">
  <ele>587.38</ele>
  <time>2026-08-27T18:28:21Z</time>
  <course>296.76</course>
  <speed>0.0</speed>
  <fix>3d</fix>
</trkpt>
<trkpt lat="-35.362911" lon="149.1652222">
  <ele>587.25</ele>
  <time>2026-08-27T18:28:21Z</time>
  <course>339.57</course>
  <speed>0.022360679774997897</speed>
  <fix>3d</fix>
</trkpt>
<trkpt lat="-35.3629111" lon="149.1652222">
  <ele>587.28</ele>
  <time>2026-08-27T18:28:21Z</time>
  <course>301.07</course>
  <speed>0.0</speed>
  <fix>3d</fix>
</trkpt>
<trkpt lat="-35.362911" lon="149.1652222">
  <ele>587.15</ele>
  <time>2026-08-27T18:28:21Z</time>
  <course>339.59</course>
  <speed>0.022360679774997897</speed>
  <fix>3d</fix>
</trkpt>
<trkpt lat="-35.3629111" lon="149.1652222">
  <ele>587.18</ele>
  <time>2026-08-27T18:28:21Z</time>
  <course>306.02</course>
  <speed>0.0</speed>
  <fix>3d</fix>
</trkpt>
<trkpt lat="-35.362911" lon="149.1652222">
  <ele>587.06</ele>
  <time>2026-08-27T18:28:21Z</time>
  <course>339.59</course>
  <speed>0.01414213562373095</speed>
  <fix>3d</fix>
</trkpt>
<trkpt lat="-35.3629111" lon="149.1652222">
  <ele>587.07</ele>
  <time>2026-08-27T18:28:21Z</time>
  <course>312.36</course>
  <speed>0.0</speed>
  <fix>3d</fix>
</trkpt>
<trkpt lat="-35.362911" lon="149.1652222">
  <ele>586.95</ele>
  <time>2026-08-27T18:28:21Z</time>
  <course>339.6</course>
  <speed>0.01414213562373095</speed>
  <fix>3d</fix>
</trkpt>
<trkpt lat="-35.3629111" lon="149.1652222">
  <ele>586.97</ele>
  <time>2026-08-27T18:28:21Z</time>
  <course>320.65</course>
  <speed>0.0</speed>
  <fix>3d</fix>
</trkpt>
<trkpt lat="-35.362911" lon="149.1652221">
  <ele>586.85</ele>
  <time>2026-08-27T18:28:21Z</time>
  <course>339.6</course>
  <speed>0.01414213562373095</speed>
  <fix>3d</fix>
</trkpt>
<trkpt lat="-35.3629111" lon="149.1652222">
  <ele>586.87</ele>
  <time>2026-08-27T18:28:21Z</time>
  <course>333.05</course>
  <speed>0.0</speed>
  <fix>3d</fix>
</trkpt>
<trkpt lat="-35.362911" lon="149.1652221">
  <ele>586.75</ele>
  <time>2026-08-27T18:28:21Z</time>
  <course>339.59</course>
  <speed>0.01414213562373095</speed>
  <fix>3d</fix>
</trkpt>
<trkpt lat="-35.3629111" lon="149.1652222">
  <ele>586.77</ele>
  <time>2026-08-27T18:28:21Z</time>
  <course>350.8</course>
  <speed>0.0</speed>
  <fix>3d</fix>
</trkpt>
<trkpt lat="-35.362911" lon="149.1652221">
  <ele>586.65</ele>
  <time>2026-08-27T18:28:21Z</time>
  <course>339.59</course>
  <speed>0.01414213562373095</speed>
  <fix>3d</fix>
</trkpt>
<trkpt lat="-35.3629111" lon="149.1652222">
  <ele>586.67</ele>
  <time>2026-08-27T18:28:21Z</time>
  <course>6.96</course>
  <speed>0.0</speed>
  <fix>3d</fix>
</trkpt>
<trkpt lat="-35.362911" lon="149.1652221">
  <ele>586.56</ele>
  <time>2026-08-27T18:28:21Z</time>
  <course>339.59</course>
  <speed>0.01414213562373095</speed>
  <fix>3d</fix>
</trkpt>
<trkpt lat="-35.3629111" lon="149.1652222">
  <ele>586.56</ele>
  <time>2026-08-27T18:28:21Z</time>
  <course>20.27</course>
  <speed>0.0</speed>
  <fix>3d</fix>
</trkpt>
<trkpt lat="-35.362911" lon="149.1652221">
  <ele>586.45</ele>
  <time>2026-08-27T18:28:21Z</time>
  <course>339.59</course>
  <speed>0.01414213562373095</speed>
  <fix>3d</fix>
</trkpt>
<trkpt lat="-35.3629111" lon="149.1652222">
  <ele>586.45</ele>
  <time>2026-08-27T18:28:21Z</time>
  <course>30.49</course>
  <speed>0.0</speed>
  <fix>3d</fix>
</trkpt>
<trkpt lat="-35.362911" lon="149.1652221">
  <ele>586.35</ele>
  <time>2026-08-27T18:28:21Z</time>
  <course>339.59</course>
  <speed>0.01414213562373095</speed>
  <fix>3d</fix>
</trkpt>
<trkpt lat="-35.3629111" lon="149.1652222">
  <ele>586.36</ele>
  <time>2026-08-27T18:28:21Z</time>
  <course>36.36</course>
  <speed>0.0</speed>
  <fix>3d</fix>
</trkpt>
<trkpt lat="-35.362911" lon="149.1652222">
  <ele>586.25</ele>
  <time>2026-08-27T18:28:21Z</time>
  <course>339.59</course>
  <speed>0.01414213562373095</speed>
  <fix>3d</fix>
</trkpt>
<trkpt lat="-35.3629111" lon="149.1652222">
  <ele>586.26</ele>
  <time>2026-08-27T18:28:21Z</time>
  <course>41.67</course>
  <speed>0.0</speed>
  <fix>3d</fix>
</trkpt>
<trkpt lat="-35.362911" lon="149.1652222">
  <ele>586.15</ele>
  <time>2026-08-27T18:28:21Z</time>
  <course>339.58</course>
  <speed>0.01414213562373095</speed>
  <fix>3d</fix>
</trkpt>
<trkpt lat="-35.3629111" lon="149.1652222">
  <ele>586.15</ele>
  <time>2026-08-27T18:28:21Z</time>
  <course>47.7</course>
  <speed>0.0</speed>
  <fix>3d</fix>
</trkpt>
<trkpt lat="-35.362911" lon="149.1652222">
  <ele>586.05</ele>
  <time>2026-08-27T18:28:21Z</time>
  <course>339.59</course>
  <speed>0.01414213562373095</speed>
  <fix>3d</fix>
</trkpt>
<trkpt lat="-35.3629111" lon="149.1652222">
  <ele>586.05</ele>
  <time>2026-08-27T18:28:21Z</time>
  <course>53.03</course>
  <speed>0.0</speed>
  <fix>3d</fix>
</trkpt>
<trkpt lat="-35.362911" lon="149.1652222">
  <ele>585.95</ele>
  <time>2026-08-27T18:28:21Z</time>
  <course>339.6</course>
  <speed>0.01</speed>
  <fix>3d</fix>
</trkpt>
<trkpt lat="-35.3629111" lon="149.1652222">
  <ele>585.95</ele>
  <time>2026-08-27T18:28:21Z</time>
  <course>56.45</course>
  <speed>0.0</speed>
  <fix>3d</fix>
</trkpt>
<trkpt lat="-35.362911" lon="149.1652222">
  <ele>585.84</ele>
  <time>2026-08-27T18:28:21Z</time>
  <course>339.59</course>
  <speed>0.01</speed>
  <fix>3d</fix>
</trkpt>
<trkpt lat="-35.3629111" lon="149.1652222">
  <ele>585.85</ele>
  <time>2026-08-27T18:28:21Z</time>
  <course>59.25</course>
  <speed>0.0</speed>
  <fix>3d</fix>
</trkpt>
<trkpt lat="-35.362911" lon="149.1652222">
  <ele>585.74</ele>
  <time>2026-08-27T18:28:21Z</time>
  <course>339.59</course>
  <speed>0.01</speed>
  <fix>3d</fix>
</trkpt>
<trkpt lat="-35.3629111" lon="149.1652222">
  <ele>585.75</ele>
  <time>2026-08-27T18:28:21Z</time>
  <course>60.75</course>
  <speed>0.0</speed>
  <fix>3d</fix>
</trkpt>
<trkpt lat="-35.362911" lon="149.1652222">
  <ele>585.64</ele>
  <time>2026-08-27T18:28:21Z</time>
  <course>339.59</course>
  <speed>0.01</speed>
  <fix>3d</fix>
</trkpt>
<trkpt lat="-35.3629111" lon="149.1652222">
  <ele>585.65</ele>
  <time>2026-08-27T18:28:21Z</time>
  <course>60.41</course>
  <speed>0.0</speed>
  <fix>3d</fix>
</trkpt>
<trkpt lat="-35.362911" lon="149.1652222">
  <ele>585.54</ele>
  <time>2026-08-27T18:28:21Z</time>
  <course>339.59</course>
  <speed>0.01</speed>
  <fix>3d</fix>
</trkpt>
<trkpt lat="-35.3629111" lon="149.1652222">
  <ele>585.55</ele>
  <time>2026-08-27T18:28:21Z</time>
  <course>59.37</course>
  <speed>0.0</speed>
  <fix>3d</fix>
</trkpt>
<trkpt lat="-35.362911" lon="149.1652222">
  <ele>585.44</ele>
  <time>2026-08-27T18:28:21Z</time>
  <course>339.6</course>
  <speed>0.01</speed>
  <fix>3d</fix>
</trkpt>
<trkpt lat="-35.362911" lon="149.1652222">
  <ele>585.45</ele>
  <time>2026-08-27T18:28:21Z</time>
  <course>58.27</course>
  <speed>0.0</speed>
  <fix>3d</fix>
</trkpt>
<trkpt lat="-35.362911" lon="149.1652222">
  <ele>585.34</ele>
  <time>2026-08-27T18:28:21Z</time>
  <course>339.59</course>
  <speed>0.01</speed>
  <fix>3d</fix>
</trkpt>
<trkpt lat="-35.3629109" lon="149.1652222">
  <ele>585.35</ele>
  <time>2026-08-27T18:28:21Z</time>
  <course>57.64</course>
  <speed>0.0</speed>
  <fix>3d</fix>
</trkpt>
<trkpt lat="-35.362911" lon="149.1652222">
  <ele>585.24</ele>
  <time>2026-08-27T18:28:21Z</time>
  <course>339.6</course>
  <speed>0.01414213562373095</speed>
  <fix>3d</fix>
</trkpt>
<trkpt lat="-35.3629109" lon="149.1652223">
  <ele>585.25</ele>
  <time>2026-08-27T18:28:21Z</time>
  <course>57.97</course>
  <speed>0.0</speed>
  <fix>3d</fix>
</trkpt>
<trkpt lat="-35.362911" lon="149.1652222">
  <ele>585.14</ele>
  <time>2026-08-27T18:28:21Z</time>
  <course>339.58</course>
  <speed>0.01414213562373095</speed>
  <fix>3d</fix>
</trkpt>
<trkpt lat="-35.3629109" lon="149.1652224">
  <ele>585.15</ele>
  <time>2026-08-27T18:28:21Z</time>
  <course>60.26</course>
  <speed>0.0</speed>
  <fix>3d</fix>
</trkpt>
<trkpt lat="-35.362911" lon="149.1652222">
  <ele>585.04</ele>
  <time>2026-08-27T18:28:21Z</time>
  <course>339.6</course>
  <speed>0.01</speed>
  <fix>3d</fix>
</trkpt>
<trkpt lat="-35.3629109" lon="149.1652224">
  <ele>585.05</ele>
  <time>2026-08-27T18:28:21Z</time>
  <course>65.98</course>
  <speed>0.0</speed>
  <fix>3d</fix>
</trkpt>
<trkpt lat="-35.362911" lon="149.1652222">
  <ele>584.94</ele>
  <time>2026-08-27T18:28:21Z</time>
  <course>339.59</course>
  <speed>0.01</speed>
  <fix>3d</fix>
</trkpt>
<trkpt lat="-35.3629109" lon="149.1652224">
  <ele>584.95</ele>
  <time>2026-08-27T18:28:21Z</time>
  <course>75.92</course>
  <speed>0.0</speed>
  <fix>3d</fix>
</trkpt>
<trkpt lat="-35.362911" lon="149.1652222">
  <ele>584.84</ele>
  <time>2026-08-27T18:28:21Z</time>
  <course>339.59</course>
  <speed>0.01</speed>
  <fix>3d</fix>
</trkpt>
<trkpt lat="-35.3629109" lon="149.1652224">
  <ele>584.85</ele>
  <time>2026-08-27T18:28:21Z</time>
  <course>91.26</course>
  <speed>0.0</speed>
  <fix>3d</fix>
</trkpt>
<trkpt lat="-35.362911" lon="149.1652222">
  <ele>584.74</ele>
  <time>2026-08-27T18:28:21Z</time>
  <course>339.61</course>
  <speed>0.01</speed>
  <fix>3d</fix>
</trkpt>
<trkpt lat="-35.3629109" lon="149.1652224">
  <ele>584.75</ele>
  <time>2026-08-27T18:28:21Z</time>
  <course>114.53</course>
  <speed>0.0</speed>
  <fix>3d</fix>
</trkpt>
<trkpt lat="-35.3629109" lon="149.1652222">
  <ele>584.64</ele>
  <time>2026-08-27T18:28:21Z</time>
  <course>339.58</course>
  <speed>0.01</speed>
  <fix>3d</fix>
</trkpt>
<trkpt lat="-35.3629109" lon="149.1652224">
  <ele>584.65</ele>
  <time>2026-08-27T18:28:21Z</time>
  <course>137.13</course>
  <speed>0.0</speed>
  <fix>3d</fix>
</trkpt>
<trkpt lat="-35.362911" lon="149.1652222">
  <ele>584.54</ele>
  <time>2026-08-27T18:28:21Z</time>
  <course>339.58</course>
  <speed>0.01</speed>
  <fix>3d</fix>
</trkpt>
<trkpt lat="-35.3629109" lon="149.1652224">
  <ele>584.56</ele>
  <time>2026-08-27T18:28:21Z</time>
  <course>156.02</course>
  <speed>0.0</speed>
  <fix>3d</fix>
</trkpt>
<trkpt lat="-35.362911" lon="149.1652222">
  <ele>584.44</ele>
  <time>2026-08-27T18:28:21Z</time>
  <course>339.6</course>
  <speed>0.01</speed>
  <fix>3d</fix>
</trkpt>
<trkpt lat="-35.3629109" lon="149.1652224">
  <ele>584.45</ele>
  <time>2026-08-27T18:28:21Z</time>
  <course>170.47</course>
  <speed>0.0</speed>
  <fix>3d</fix>
</trkpt>
<trkpt lat="-35.362911" lon="149.1652222">
  <ele>584.34</ele>
  <time>2026-08-27T18:28:21Z</time>
  <course>339.6</course>
  <speed>0.01</speed>
  <fix>3d</fix>
</trkpt>
<trkpt lat="-35.3629109" lon="149.1652224">
  <ele>584.36</ele>
  <time>2026-08-27T18:28:21Z</time>
  <course>179.31</course>
  <speed>0.0</speed>
  <fix>3d</fix>
</trkpt>
<trkpt lat="-35.362911" lon="149.1652222">
  <ele>584.24</ele>
  <time>2026-08-27T18:28:21Z</time>
  <course>339.6</course>
  <speed>0.01</speed>
  <fix>3d</fix>
</trkpt>
<trkpt lat="-35.3629109" lon="149.1652224">
  <ele>584.26</ele>
  <time>2026-08-27T18:28:21Z</time>
  <course>183.52</course>
  <speed>0.0</speed>
  <fix>3d</fix>
</trkpt>
<trkpt lat="-35.362911" lon="149.1652222">
  <ele>584.14</ele>
  <time>2026-08-27T18:28:21Z</time>
  <course>339.59</course>
  <speed>0.01</speed>
  <fix>3d</fix>
</trkpt>
<trkpt lat="-35.3629109" lon="149.1652224">
  <ele>584.16</ele>
  <time>2026-08-27T18:28:21Z</time>
  <course>187.58</course>
  <speed>0.0</speed>
  <fix>3d</fix>
</trkpt>
<trkpt lat="-35.362911" lon="149.1652222">
  <ele>584.04</ele>
  <time>2026-08-27T18:28:21Z</time>
  <course>339.6</course>
  <speed>0.01</speed>
  <fix>3d</fix>
</trkpt>
<trkpt lat="-35.3629109" lon="149.1652224">
  <ele>584.06</ele>
  <time>2026-08-27T18:28:21Z</time>
  <course>192.59</course>
  <speed>0.0</speed>
  <fix>3d</fix>
</trkpt>
<trkpt lat="-35.362911" lon="149.1652222">
  <ele>583.94</ele>
  <time>2026-08-27T18:28:21Z</time>
  <course>339.6</course>
  <speed>0.01</speed>
  <fix>3d</fix>
</trkpt>
<trkpt lat="-35.3629109" lon="149.1652224">
  <ele>583.95</ele>
  <time>2026-08-27T18:28:21Z</time>
  <course>194.62</course>
  <speed>0.0</speed>
  <fix>3d</fix>
</trkpt>
<trkpt lat="-35.362911" lon="149.1652222">
  <ele>583.84</ele>
  <time>2026-08-27T18:28:21Z</time>
  <course>339.6</course>
  <speed>0.01</speed>
  <fix>3d</fix>
</trkpt>
<trkpt lat="-35.3629109" lon="149.1652224">
  <ele>583.86</ele>
  <time>2026-08-27T18:28:21Z</time>
  <course>196.06</course>
  <speed>0.0</speed>
  <fix>3d</fix>
</trkpt>
<trkpt lat="-35.362911" lon="149.1652222">
  <ele>583.74</ele>
  <time>2026-08-27T18:28:21Z</time>
  <course>339.62</course>
  <speed>0.02</speed>
  <fix>3d</fix>
</trkpt>
<trkpt lat="-35.362911" lon="149.1652224">
  <ele>583.77</ele>
  <time>2026-08-27T18:28:21Z</time>
  <course>198.45</course>
  <speed>0.01</speed>
  <fix>3d</fix>
</trkpt>
<trkpt lat="-35.362911" lon="149.1652222">
  <ele>583.65</ele>
  <time>2026-08-27T18:28:21Z</time>
  <course>339.6</course>
  <speed>0.02</speed>
  <fix>3d</fix>
</trkpt>
<trkpt lat="-35.3629111" lon="149.1652224">
  <ele>583.67</ele>
  <time>2026-08-27T18:28:21Z</time>
  <course>200.32</course>
  <speed>0.01</speed>
  <fix>3d</fix>
</trkpt>
<trkpt lat="-35.362911" lon="149.1652222">
  <ele>583.55</ele>
  <time>2026-08-27T18:28:21Z</time>
  <course>339.61</course>
  <speed>0.02</speed>
  <fix>3d</fix>
</trkpt>
<trkpt lat="-35.3629111" lon="149.1652224">
  <ele>583.57</ele>
  <time>2026-08-27T18:28:21Z</time>
  <course>201.03</course>
  <speed>0.01</speed>
  <fix>3d</fix>
</trkpt>
<trkpt lat="-35.362911" lon="149.1652222">
  <ele>583.45</ele>
  <time>2026-08-27T18:28:21Z</time>
  <course>339.62</course>
  <speed>0.01</speed>
  <fix>3d</fix>
</trkpt>
<trkpt lat="-35.3629111" lon="149.1652224">
  <ele>583.47</ele>
  <time>2026-08-27T18:28:21Z</time>
  <course>202.39</course>
  <speed>0.0</speed>
  <fix>3d</fix>
</trkpt>
<trkpt lat="-35.362911" lon="149.1652222">
  <ele>583.35</ele>
  <time>2026-08-27T18:28:21Z</time>
  <course>339.61</course>
  <speed>0.01</speed>
  <fix>3d</fix>
</trkpt>
<trkpt lat="-35.3629111" lon="149.1652224">
  <ele>583.37</ele>
  <time>2026-08-27T18:28:21Z</time>
  <course>205.39</course>
  <speed>0.0</speed>
  <fix>3d</fix>
</trkpt>
<trkpt lat="-35.362911" lon="149.1652222">
  <ele>583.25</ele>
  <time>2026-08-27T18:28:21Z</time>
  <course>339.61</course>
  <speed>0.01</speed>
  <fix>3d</fix>
</trkpt>
<trkpt lat="-35.3629111" lon="149.1652224">
  <ele>583.27</ele>
  <time>2026-08-27T18:28:21Z</time>
  <course>210.45</course>
  <speed>0.0</speed>
  <fix>3d</fix>
</trkpt>
<trkpt lat="-35.362911" lon="149.1652222">
  <ele>583.15</ele>
  <time>2026-08-27T18:28:21Z</time>
  <course>339.61</course>
  <speed>0.01</speed>
  <fix>3d</fix>
</trkpt>
<trkpt lat="-35.3629111" lon="149.1652224">
  <ele>583.17</ele>
  <time>2026-08-27T18:28:21Z</time>
  <course>218.99</course>
  <speed>0.0</speed>
  <fix>3d</fix>
</trkpt>
<trkpt lat="-35.362911" lon="149.1652222">
  <ele>583.05</ele>
  <time>2026-08-27T18:28:21Z</time>
  <course>339.62</course>
  <speed>0.01</speed>
  <fix>3d</fix>
</trkpt>
<trkpt lat="-35.3629111" lon="149.1652224">
  <ele>583.07</ele>
  <time>2026-08-27T18:28:21Z</time>
  <course>235.1</course>
  <speed>0.0</speed>
  <fix>3d</fix>
</trkpt>
<trkpt lat="-35.362911" lon="149.1652222">
  <ele>582.94</ele>
  <time>2026-08-27T18:28:21Z</time>
  <course>339.61</course>
  <speed>0.01</speed>
  <fix>3d</fix>
</trkpt>
<trkpt lat="-35.3629111" lon="149.1652224">
  <ele>582.97</ele>
  <time>2026-08-27T18:28:21Z</time>
  <course>260.09</course>
  <speed>0.0</speed>
  <fix>3d</fix>
</trkpt>
<trkpt lat="-35.362911" lon="149.1652222">
  <ele>582.84</ele>
  <time>2026-08-27T18:28:21Z</time>
  <course>339.62</course>
  <speed>0.01414213562373095</speed>
  <fix>3d</fix>
</trkpt>
<trkpt lat="-35.3629111" lon="149.1652224">
  <ele>582.87</ele>
  <time>2026-08-27T18:28:21Z</time>
  <course>283.21</course>
  <speed>0.0</speed>
  <fix>3d</fix>
</trkpt>
<trkpt lat="-35.362911" lon="149.1652222">
  <ele>582.74</ele>
  <time>2026-08-27T18:28:21Z</time>
  <course>339.61</course>
  <speed>0.01414213562373095</speed>
  <fix>3d</fix>
</trkpt>
<trkpt lat="-35.3629111" lon="149.1652224">
  <ele>582.77</ele>
  <time>2026-08-27T18:28:21Z</time>
  <course>295.65</course>
  <speed>0.0</speed>
  <fix>3d</fix>
</trkpt>
<trkpt lat="-35.362911" lon="149.1652222">
  <ele>582.64</ele>
  <time>2026-08-27T18:28:21Z</time>
  <course>339.62</course>
  <speed>0.01414213562373095</speed>
  <fix>3d</fix>
</trkpt>
<trkpt lat="-35.3629111" lon="149.1652224">
  <ele>582.67</ele>
  <time>2026-08-27T18:28:21Z</time>
  <course>303.64</course>
  <speed>0.0</speed>
  <fix>3d</fix>
</trkpt>
<trkpt lat="-35.362911" lon="149.1652222">
  <ele>582.54</ele>
  <time>2026-08-27T18:28:21Z</time>
  <course>339.61</course>
  <speed>0.01414213562373095</speed>
  <fix>3d</fix>
</trkpt>
<trkpt lat="-35.3629111" lon="149.1652224">
  <ele>582.57</ele>
  <time>2026-08-27T18:28:21Z</time>
  <course>310.8</course>
  <speed>0.0</speed>
  <fix>3d</fix>
</trkpt>
<trkpt lat="-35.362911" lon="149.1652222">
  <ele>582.44</ele>
  <time>2026-08-27T18:28:21Z</time>
  <course>339.63</course>
  <speed>0.01414213562373095</speed>
  <fix>3d</fix>
</trkpt>
<trkpt lat="-35.3629111" lon="149.1652224">
  <ele>582.47</ele>
  <time>2026-08-27T18:28:21Z</time>
  <course>314.33</course>
  <speed>0.0</speed>
  <fix>3d</fix>
</trkpt>
<trkpt lat="-35.362911" lon="149.1652222">
  <ele>582.34</ele>
  <time>2026-08-27T18:28:21Z</time>
  <course>339.6</course>
  <speed>0.01414213562373095</speed>
  <fix>3d</fix>
</trkpt>
<trkpt lat="-35.3629111" lon="149.1652224">
  <ele>582.37</ele>
  <time>2026-08-27T18:28:21Z</time>
  <course>316.68</course>
  <speed>0.0</speed>
  <fix>3d</fix>
</trkpt>
<trkpt lat="-35.362911" lon="149.1652222">
  <ele>582.24</ele>
  <time>2026-08-27T18:28:21Z</time>
  <course>339.61</course>
  <speed>0.01414213562373095</speed>
  <fix>3d</fix>
</trkpt>
<trkpt lat="-35.3629111" lon="149.1652224">
  <ele>582.27</ele>
  <time>2026-08-27T18:28:21Z</time>
  <course>319.87</course>
  <speed>0.0</speed>
  <fix>3d</fix>
</trkpt>
<trkpt lat="-35.362911" lon="149.1652222">
  <ele>582.21</ele>
  <time>2026-08-27T18:28:21Z</time>
  <course>339.61</course>
  <speed>0.03</speed>
  <fix>3d</fix>
</trkpt>
<trkpt lat="-35.3629111" lon="149.1652223">
  <ele>582.18</ele>
  <time>2026-08-27T18:28:21Z</time>
  <course>262.39</course>
  <speed>0.01</speed>
  <fix>3d</fix>
</trkpt>
<trkpt lat="-35.362911" lon="149.1652222">
  <ele>582.23</ele>
  <time>2026-08-27T18:28:21Z</time>
  <course>339.61</course>
  <speed>0.01</speed>
  <fix>3d</fix>
</trkpt>
<trkpt lat="-35.3629111" lon="149.1652222">
  <ele>582.17</ele>
  <time>2026-08-27T18:28:21Z</time>
  <course>253.38</course>
  <speed>0.01</speed>
  <fix>3d</fix>
</trkpt>
<trkpt lat="-35.362911" lon="149.1652222">
  <ele>582.23</ele>
  <time>2026-08-27T18:28:21Z</time>
  <course>339.63</course>
  <speed>0.01</speed>
  <fix>3d</fix>
</trkpt>
<trkpt lat="-35.3629111" lon="149.1652222">
  <ele>582.18</ele>
  <time>2026-08-27T18:28:21Z</time>
  <course>31.26</course>
  <speed>0.0</speed>
  <fix>3d</fix>
</trkpt>
<trkpt lat="-35.362911" lon="149.1652222">
  <ele>582.23</ele>
  <time>2026-08-27T18:28:21Z</time>
  <course>339.67</course>
  <speed>0.01</speed>
  <fix>3d</fix>
</trkpt>
<trkpt lat="-35.3629111" lon="149.1652222">
  <ele>582.18</ele>
  <time>2026-08-27T18:28:21Z</time>
  <course>61.68</course>
  <speed>0.0</speed>
  <fix>3d</fix>
</trkpt>
<trkpt lat="-35.362911" lon="149.1652222">
  <ele>582.24</ele>
  <time>2026-08-27T18:28:21Z</time>
  <course>339.7</course>
  <speed>0.01</speed>
  <fix>3d</fix>
</trkpt>
<trkpt lat="-35.3629111" lon="149.1652222">
  <ele>582.18</ele>
  <time>2026-08-27T18:28:21Z</time>
  <course>295.2</course>
  <speed>0.0</speed>
  <fix>3d</fix>
</trkpt>
<trkpt lat="-35.362911" lon="149.1652222">
  <ele>582.24</ele>
  <time>2026-08-27T18:28:21Z</time>
  <course>339.73</course>
  <speed>0.01</speed>
  <fix>3d</fix>
</trkpt>
<trkpt lat="-35.3629111" lon="149.1652222">
  <ele>582.18</ele>
  <time>2026-08-27T18:28:21Z</time>
  <course>322.19</course>
  <speed>0.0</speed>
  <fix>3d</fix>
</trkpt>
<trkpt lat="-35.362911" lon="149.1652222">
  <ele>582.24</ele>
  <time>2026-08-27T18:28:21Z</time>
  <course>339.76</course>
  <speed>0.01</speed>
  <fix>3d</fix>
</trkpt>
<trkpt lat="-35.3629111" lon="149.1652222">
  <ele>582.18</ele>
  <time>2026-08-27T18:28:21Z</time>
  <course>13.93</course>
  <speed>0.0</speed>
  <fix>3d</fix>
</trkpt>
<trkpt lat="-35.362911" lon="149.1652221">
  <ele>582.25</ele>
  <time>2026-08-27T18:28:21Z</time>
  <course>339.78</course>
  <speed>0.01</speed>
  <fix>3d</fix>
</trkpt>
<trkpt lat="-35.3629111" lon="149.1652222">
  <ele>582.18</ele>
  <time>2026-08-27T18:28:21Z</time>
  <course>23.97</course>
  <speed>0.0</speed>
  <fix>3d</fix>
</trkpt>
<trkpt lat="-35.362911" lon="149.1652221">
  <ele>582.25</ele>
  <time>2026-08-27T18:28:21Z</time>
  <course>339.81</course>
  <speed>0.01</speed>
  <fix>3d</fix>
</trkpt>
<trkpt lat="-35.3629111" lon="149.1652222">
  <ele>582.18</ele>
  <time>2026-08-27T18:28:21Z</time>
  <course>347.08</course>
  <speed>0.0</speed>
  <fix>3d</fix>
</trkpt>
<trkpt lat="-35.362911" lon="149.1652221">
  <ele>582.25</ele>
  <time>2026-08-27T18:28:21Z</time>
  <course>339.83</course>
  <speed>0.01</speed>
  <fix>3d</fix>
</trkpt>
<trkpt lat="-35.3629111" lon="149.1652222">
  <ele>582.18</ele>
  <time>2026-08-27T18:28:21Z</time>
  <course>359.35</course>
  <speed>0.0</speed>
  <fix>3d</fix>
</trkpt>
<trkpt lat="-35.362911" lon="149.1652221">
  <ele>582.25</ele>
  <time>2026-08-27T18:28:21Z</time>
  <course>339.85</course>
  <speed>0.01</speed>
  <fix>3d</fix>
</trkpt>
<trkpt lat="-35.3629111" lon="149.1652222">
  <ele>582.18</ele>
  <time>2026-08-27T18:28:21Z</time>
  <course>68.84</course>
  <speed>0.0</speed>
  <fix>3d</fix>
</trkpt>
<trkpt lat="-35.362911" lon="149.1652221">
  <ele>582.26</ele>
  <time>2026-08-27T18:28:21Z</time>
  <course>339.83</course>
  <speed>0.01</speed>
  <fix>3d</fix>
</trkpt>
<trkpt lat="-35.3629111" lon="149.1652223">
  <ele>582.18</ele>
  <time>2026-08-27T18:28:21Z</time>
  <course>74.21</course>
  <speed>0.01</speed>
  <fix>3d</fix>
</trkpt>
<trkpt lat="-35.362911" lon="149.1652221">
  <ele>582.26</ele>
  <time>2026-08-27T18:28:21Z</time>
  <course>339.81</course>
  <speed>0.01</speed>
  <fix>3d</fix>
</trkpt>
<trkpt lat="-35.3629111" lon="149.1652224">
  <ele>582.18</ele>
  <time>2026-08-27T18:28:21Z</time>
  <course>82.2</course>
  <speed>0.0</speed>
  <fix>3d</fix>
</trkpt>
<trkpt lat="-35.362911" lon="149.1652221">
  <ele>582.26</ele>
  <time>2026-08-27T18:28:21Z</time>
  <course>339.79</course>
  <speed>0.01</speed>
  <fix>3d</fix>
</trkpt>
<trkpt lat="-35.3629111" lon="149.1652224">
  <ele>582.18</ele>
  <time>2026-08-27T18:28:21Z</time>
  <course>206.99</course>
  <speed>0.0</speed>
  <fix>3d</fix>
</trkpt>
<trkpt lat="-35.362911" lon="149.1652221">
  <ele>582.26</ele>
  <time>2026-08-27T18:28:21Z</time>
  <course>339.79</course>
  <speed>0.01</speed>
  <fix>3d</fix>
</trkpt>
<trkpt lat="-35.3629111" lon="149.1652224">
  <ele>582.18</ele>
  <time>2026-08-27T18:28:21Z</time>
  <course>226.44</course>
  <speed>0.0</speed>
  <fix>3d</fix>
</trkpt>
<trkpt lat="-35.362911" lon="149.1652221">
  <ele>582.26</ele>
  <time>2026-08-27T18:28:21Z</time>
  <course>339.78</course>
  <speed>0.01</speed>
  <fix>3d</fix>
</trkpt>
<trkpt lat="-35.3629111" lon="149.1652224">
  <ele>582.18</ele>
  <time>2026-08-27T18:28:21Z</time>
  <course>205.85</course>
  <speed>0.0</speed>
  <fix>3d</fix>
</trkpt>
<trkpt lat="-35.362911" lon="149.1652221">
  <ele>582.26</ele>
  <time>2026-08-27T18:28:21Z</time>
  <course>339.78</course>
  <speed>0.01</speed>
  <fix>3d</fix>
</trkpt>
<trkpt lat="-35.3629111" lon="149.1652224">
  <ele>582.18</ele>
  <time>2026-08-27T18:28:21Z</time>
  <course>199.25</course>
  <speed>0.0</speed>
  <fix>3d</fix>
</trkpt>
<trkpt lat="-35.362911" lon="149.1652221">
  <ele>582.26</ele>
  <time>2026-08-27T18:28:21Z</time>
  <course>339.78</course>
  <speed>0.01</speed>
  <fix>3d</fix>
</trkpt>
<trkpt lat="-35.3629111" lon="149.1652224">
  <ele>582.18</ele>
  <time>2026-08-27T18:28:21Z</time>
  <course>203.21</course>
  <speed>0.0</speed>
  <fix>3d</fix>
</trkpt>
<trkpt lat="-35.362911" lon="149.1652221">
  <ele>582.26</ele>
  <time>2026-08-27T18:28:21Z</time>
  <course>339.78</course>
  <speed>0.01</speed>
  <fix>3d</fix>
</trkpt>
<trkpt lat="-35.3629111" lon="149.1652224">
  <ele>582.18</ele>
  <time>2026-08-27T18:28:21Z</time>
  <course>37.07</course>
  <speed>0.0</speed>
  <fix>3d</fix>
</trkpt>
<trkpt lat="-35.362911" lon="149.1652222">
  <ele>582.26</ele>
  <time>2026-08-27T18:28:21Z</time>
  <course>339.77</course>
  <speed>0.01</speed>
  <fix>3d</fix>
</trkpt>
<trkpt lat="-35.3629111" lon="149.1652224">
  <ele>582.18</ele>
  <time>2026-08-27T18:28:21Z</time>
  <course>3.92</course>
  <speed>0.0</speed>
  <fix>3d</fix>
</trkpt>
<trkpt lat="-35.362911" lon="149.1652222">
  <ele>582.26</ele>
  <time>2026-08-27T18:28:21Z</time>
  <course>339.77</course>
  <speed>0.01</speed>
  <fix>3d</fix>
</trkpt>
<trkpt lat="-35.3629111" lon="149.1652224">
  <ele>582.18</ele>
  <time>2026-08-27T18:28:21Z</time>
  <course>237.25</course>
  <speed>0.0</speed>
  <fix>3d</fix>
</trkpt>
<trkpt lat="-35.362911" lon="149.1652222">
  <ele>582.27</ele>
  <time>2026-08-27T18:28:21Z</time>
  <course>339.77</course>
  <speed>0.01</speed>
  <fix>3d</fix>
</trkpt>
<trkpt lat="-35.3629111" lon="149.1652224">
  <ele>582.18</ele>
  <time>2026-08-27T18:28:21Z</time>
  <course>237.21</course>
  <speed>0.0</speed>
  <fix>3d</fix>
</trkpt>
<trkpt lat="-35.362911" lon="149.1652222">
  <ele>582.27</ele>
  <time>2026-08-27T18:28:21Z</time>
  <course>339.77</course>
  <speed>0.01</speed>
  <fix>3d</fix>
</trkpt>
<trkpt lat="-35.3629111" lon="149.1652224">
  <ele>582.18</ele>
  <time>2026-08-27T18:28:21Z</time>
  <course>260.25</course>
  <speed>0.0</speed>
  <fix>3d</fix>
</trkpt>
<trkpt lat="-35.362911" lon="149.1652222">
  <ele>582.27</ele>
  <time>2026-08-27T18:28:21Z</time>
  <course>339.77</course>
  <speed>0.01</speed>
  <fix>3d</fix>
</trkpt>
<trkpt lat="-35.3629111" lon="149.1652224">
  <ele>582.18</ele>
  <time>2026-08-27T18:28:21Z</time>
  <course>254.3</course>
  <speed>0.0</speed>
  <fix>3d</fix>
</trkpt>
<trkpt lat="-35.362911" lon="149.1652222">
  <ele>582.27</ele>
  <time>2026-08-27T18:28:21Z</time>
  <course>339.77</course>
  <speed>0.01</speed>
  <fix>3d</fix>
</trkpt>
<trkpt lat="-35.3629111" lon="149.1652224">
  <ele>582.18</ele>
  <time>2026-08-27T18:28:21Z</time>
  <course>250.24</course>
  <speed>0.0</speed>
  <fix>3d</fix>
</trkpt>
<trkpt lat="-35.362911" lon="149.1652222">
  <ele>582.27</ele>
  <time>2026-08-27T18:28:21Z</time>
  <course>339.76</course>
  <speed>0.01</speed>
  <fix>3d</fix>
</trkpt>
<trkpt lat="-35.3629111" lon="149.1652224">
  <ele>582.18</ele>
  <time>2026-08-27T18:28:21Z</time>
  <course>252.35</course>
  <speed>0.0</speed>
  <fix>3d</fix>
</trkpt>
<trkpt lat="-35.362911" lon="149.1652222">
  <ele>582.27</ele>
  <time>2026-08-27T18:28:21Z</time>
  <course>339.76</course>
  <speed>0.01</speed>
  <fix>3d</fix>
</trkpt>
<trkpt lat="-35.3629111" lon="149.1652224">
  <ele>582.18</ele>
  <time>2026-08-27T18:28:21Z</time>
  <course>250.6</course>
  <speed>0.0</speed>
  <fix>3d</fix>
</trkpt>
<trkpt lat="-35.362911" lon="149.1652222">
  <ele>582.27</ele>
  <time>2026-08-27T18:28:21Z</time>
  <course>339.76</course>
  <speed>0.01</speed>
  <fix>3d</fix>
</trkpt>
<trkpt lat="-35.3629111" lon="149.1652224">
  <ele>582.18</ele>
  <time>2026-08-27T18:28:21Z</time>
  <course>250.23</course>
  <speed>0.0</speed>
  <fix>3d</fix>
</trkpt>
<trkpt lat="-35.362911" lon="149.1652222">
  <ele>582.27</ele>
  <time>2026-08-27T18:28:21Z</time>
  <course>339.76</course>
  <speed>0.01</speed>
  <fix>3d</fix>
</trkpt>
<trkpt lat="-35.3629111" lon="149.1652224">
  <ele>582.18</ele>
  <time>2026-08-27T18:28:21Z</time>
  <course>250.36</course>
  <speed>0.0</speed>
  <fix>3d</fix>
</trkpt>
<trkpt lat="-35.362911" lon="149.1652222">
  <ele>582.27</ele>
  <time>2026-08-27T18:28:21Z</time>
  <course>339.76</course>
  <speed>0.01</speed>
  <fix>3d</fix>
</trkpt>
<trkpt lat="-35.3629111" lon="149.1652224">
  <ele>582.18</ele>
  <time>2026-08-27T18:28:21Z</time>
  <course>68.22</course>
  <speed>0.0</speed>
  <fix>3d</fix>
</trkpt>
<trkpt lat="-35.362911" lon="149.1652222">
  <ele>582.27</ele>
  <time>2026-08-27T18:28:21Z</time>
  <course>339.75</course>
  <speed>0.01</speed>
  <fix>3d</fix>
</trkpt>
<trkpt lat="-35.3629111" lon="149.1652224">
  <ele>582.18</ele>
  <time>2026-08-27T18:28:21Z</time>
  <course>68.41</course>
  <speed>0.0</speed>
  <fix>3d</fix>
</trkpt>
<trkpt lat="-35.362911" lon="149.1652222">
  <ele>582.27</ele>
  <time>2026-08-27T18:28:21Z</time>
  <course>339.75</course>
  <speed>0.01</speed>
  <fix>3d</fix>
</trkpt>
<trkpt lat="-35.3629111" lon="149.1652224">
  <ele>582.18</ele>
  <time>2026-08-27T18:28:21Z</time>
  <course>64.04</course>
  <speed>0.0</speed>
  <fix>3d</fix>
</trkpt>
<trkpt lat="-35.362911" lon="149.1652222">
  <ele>582.27</ele>
  <time>2026-08-27T18:28:21Z</time>
  <course>339.75</course>
  <speed>0.01</speed>
  <fix>3d</fix>
</trkpt>
<trkpt lat="-35.3629111" lon="149.1652224">
  <ele>582.18</ele>
  <time>2026-08-27T18:28:21Z</time>
  <course>65.32</course>
  <speed>0.0</speed>
  <fix>3d</fix>
</trkpt>
<trkpt lat="-35.362911" lon="149.1652222">
  <ele>582.27</ele>
  <time>2026-08-27T18:28:21Z</time>
  <course>339.75</course>
  <speed>0.01</speed>
  <fix>3d</fix>
</trkpt>
<trkpt lat="-35.3629111" lon="149.1652224">
  <ele>582.18</ele>
  <time>2026-08-27T18:28:21Z</time>
  <course>66.29</course>
  <speed>0.0</speed>
  <fix>3d</fix>
</trkpt>
<trkpt lat="-35.362911" lon="149.1652222">
  <ele>582.27</ele>
  <time>2026-08-27T18:28:21Z</time>
  <course>339.75</course>
  <speed>0.01</speed>
  <fix>3d</fix>
</trkpt>
<trkpt lat="-35.3629111" lon="149.1652224">
  <ele>582.18</ele>
  <time>2026-08-27T18:28:21Z</time>
  <course>66.1</course>
  <speed>0.0</speed>
  <fix>3d</fix>
</trkpt>
<trkpt lat="-35.362911" lon="149.1652222">
  <ele>582.27</ele>
  <time>2026-08-27T18:28:21Z</time>
  <course>339.75</course>
  <speed>0.01</speed>
  <fix>3d</fix>
</trkpt>
<trkpt lat="-35.3629111" lon="149.1652224">
  <ele>582.18</ele>
  <time>2026-08-27T18:28:21Z</time>
  <course>66.01</course>
  <speed>0.0</speed>
  <fix>3d</fix>
</trkpt>
<trkpt lat="-35.362911" lon="149.1652222">
  <ele>582.27</ele>
  <time>2026-08-27T18:28:21Z</time>
  <course>339.74</course>
  <speed>0.01</speed>
  <fix>3d</fix>
</trkpt>
<trkpt lat="-35.3629111" lon="149.1652224">
  <ele>582.18</ele>
  <time>2026-08-27T18:28:21Z</time>
  <course>66.05</course>
  <speed>0.0</speed>
  <fix>3d</fix>
</trkpt>
<trkpt lat="-35.362911" lon="149.1652222">
  <ele>582.27</ele>
  <time>2026-08-27T18:28:21Z</time>
  <course>339.74</course>
  <speed>0.01</speed>
  <fix>3d</fix>
</trkpt>
<trkpt lat="-35.3629111" lon="149.1652224">
  <ele>582.18</ele>
  <time>2026-08-27T18:28:21Z</time>
  <course>66.06</course>
  <speed>0.0</speed>
  <fix>3d</fix>
</trkpt>
<trkpt lat="-35.362911" lon="149.1652222">
  <ele>582.27</ele>
  <time>2026-08-27T18:28:21Z</time>
  <course>339.74</course>
  <speed>0.01</speed>
  <fix>3d</fix>
</trkpt>
<trkpt lat="-35.3629111" lon="149.1652224">
  <ele>582.18</ele>
  <time>2026-08-27T18:28:21Z</time>
  <course>66.05</course>
  <speed>0.0</speed>
  <fix>3d</fix>
</trkpt>
<trkpt lat="-35.362911" lon="149.1652222">
  <ele>582.27</ele>
  <time>2026-08-27T18:28:21Z</time>
  <course>339.74</course>
  <speed>0.01</speed>
  <fix>3d</fix>
</trkpt>
<trkpt lat="-35.3629111" lon="149.1652224">
  <ele>582.18</ele>
  <time>2026-08-27T18:28:21Z</time>
  <course>66.05</course>
  <speed>0.0</speed>
  <fix>3d</fix>
</trkpt>
<trkpt lat="-35.362911" lon="149.1652222">
  <ele>582.26</ele>
  <time>2026-08-27T18:28:21Z</time>
  <course>339.74</course>
  <speed>0.01</speed>
  <fix>3d</fix>
</trkpt>
<trkpt lat="-35.3629111" lon="149.1652224">
  <ele>582.18</ele>
  <time>2026-08-27T18:28:21Z</time>
  <course>66.05</course>
  <speed>0.0</speed>
  <fix>3d</fix>
</trkpt>
<trkpt lat="-35.362911" lon="149.1652222">
  <ele>582.26</ele>
  <time>2026-08-27T18:28:21Z</time>
  <course>339.74</course>
  <speed>0.01</speed>
  <fix>3d</fix>
</trkpt>
<trkpt lat="-35.3629111" lon="149.1652224">
  <ele>582.18</ele>
  <time>2026-08-27T18:28:21Z</time>
  <course>66.05</course>
  <speed>0.0</speed>
  <fix>3d</fix>
</trkpt>
<trkpt lat="-35.362911" lon="149.1652222">
  <ele>582.26</ele>
  <time>2026-08-27T18:28:21Z</time>
  <course>339.73</course>
  <speed>0.01</speed>
  <fix>3d</fix>
</trkpt>
<trkpt lat="-35.3629111" lon="149.1652224">
  <ele>582.18</ele>
  <time>2026-08-27T18:28:21Z</time>
  <course>66.05</course>
  <speed>0.0</speed>
  <fix>3d</fix>
</trkpt>
<trkpt lat="-35.362911" lon="149.1652222">
  <ele>582.26</ele>
  <time>2026-08-27T18:28:21Z</time>
  <course>339.73</course>
  <speed>0.01</speed>
  <fix>3d</fix>
</trkpt>
<trkpt lat="-35.3629111" lon="149.1652224">
  <ele>582.18</ele>
  <time>2026-08-27T18:28:21Z</time>
  <course>66.05</course>
  <speed>0.0</speed>
  <fix>3d</fix>
</trkpt>
<trkpt lat="-35.362911" lon="149.1652222">
  <ele>582.26</ele>
  <time>2026-08-27T18:28:21Z</time>
  <course>339.73</course>
  <speed>0.01</speed>
  <fix>3d</fix>
</trkpt>
<trkpt lat="-35.3629111" lon="149.1652224">
  <ele>582.18</ele>
  <time>2026-08-27T18:28:21Z</time>
  <course>66.05</course>
  <speed>0.0</speed>
  <fix>3d</fix>
</trkpt>
<trkpt lat="-35.362911" lon="149.1652222">
  <ele>582.25</ele>
  <time>2026-08-27T18:28:22Z</time>
  <course>339.73</course>
  <speed>0.01</speed>
  <fix>3d</fix>
</trkpt>
<trkpt lat="-35.3629111" lon="149.1652224">
  <ele>582.18</ele>
  <time>2026-08-27T18:28:22Z</time>
  <course>66.05</course>
  <speed>0.0</speed>
  <fix>3d</fix>
</trkpt>
<trkpt lat="-35.362911" lon="149.1652222">
  <ele>582.25</ele>
  <time>2026-08-27T18:28:22Z</time>
  <course>339.73</course>
  <speed>0.01</speed>
  <fix>3d</fix>
</trkpt>
<trkpt lat="-35.3629111" lon="149.1652224">
  <ele>582.18</ele>
  <time>2026-08-27T18:28:22Z</time>
  <course>66.05</course>
  <speed>0.0</speed>
  <fix>3d</fix>
</trkpt>
<trkpt lat="-35.362911" lon="149.1652222">
  <ele>582.25</ele>
  <time>2026-08-27T18:28:22Z</time>
  <course>339.73</course>
  <speed>0.01</speed>
  <fix>3d</fix>
</trkpt>
<trkpt lat="-35.3629111" lon="149.1652224">
  <ele>582.18</ele>
  <time>2026-08-27T18:28:22Z</time>
  <course>66.05</course>
  <speed>0.0</speed>
  <fix>3d</fix>
</trkpt>
<trkpt lat="-35.362911" lon="149.1652222">
  <ele>582.25</ele>
  <time>2026-08-27T18:28:22Z</time>
  <course>339.73</course>
  <speed>0.01</speed>
  <fix>3d</fix>
</trkpt>
<trkpt lat="-35.3629111" lon="149.1652224">
  <ele>582.18</ele>
  <time>2026-08-27T18:28:22Z</time>
  <course>66.05</course>
  <speed>0.0</speed>
  <fix>3d</fix>
</trkpt>
<trkpt lat="-35.362911" lon="149.1652222">
  <ele>582.25</ele>
  <time>2026-08-27T18:28:22Z</time>
  <course>339.72</course>
  <speed>0.01</speed>
  <fix>3d</fix>
</trkpt>
<trkpt lat="-35.3629111" lon="149.1652224">
  <ele>582.18</ele>
  <time>2026-08-27T18:28:22Z</time>
  <course>66.05</course>
  <speed>0.0</speed>
  <fix>3d</fix>
</trkpt>
<trkpt lat="-35.362911" lon="149.1652222">
  <ele>582.25</ele>
  <time>2026-08-27T18:28:22Z</time>
  <course>339.72</course>
  <speed>0.01</speed>
  <fix>3d</fix>
</trkpt>
<trkpt lat="-35.3629111" lon="149.1652224">
  <ele>582.18</ele>
  <time>2026-08-27T18:28:22Z</time>
  <course>66.05</course>
  <speed>0.0</speed>
  <fix>3d</fix>
</trkpt>
<trkpt lat="-35.362911" lon="149.1652222">
  <ele>582.24</ele>
  <time>2026-08-27T18:28:22Z</time>
  <course>339.72</course>
  <speed>0.01</speed>
  <fix>3d</fix>
</trkpt>
<trkpt lat="-35.3629111" lon="149.1652224">
  <ele>582.18</ele>
  <time>2026-08-27T18:28:22Z</time>
  <course>66.05</course>
  <speed>0.0</speed>
  <fix>3d</fix>
</trkpt>
<trkpt lat="-35.362911" lon="149.1652222">
  <ele>582.24</ele>
  <time>2026-08-27T18:28:22Z</time>
  <course>339.72</course>
  <speed>0.01</speed>
  <fix>3d</fix>
</trkpt>
<trkpt lat="-35.3629111" lon="149.1652224">
  <ele>582.18</ele>
  <time>2026-08-27T18:28:22Z</time>
  <course>66.05</course>
  <speed>0.0</speed>
  <fix>3d</fix>
</trkpt>
<trkpt lat="-35.362911" lon="149.1652222">
  <ele>582.24</ele>
  <time>2026-08-27T18:28:22Z</time>
  <course>339.72</course>
  <speed>0.01</speed>
  <fix>3d</fix>
</trkpt>
<trkpt lat="-35.3629111" lon="149.1652224">
  <ele>582.18</ele>
  <time>2026-08-27T18:28:22Z</time>
  <course>66.05</course>
  <speed>0.0</speed>
  <fix>3d</fix>
</trkpt>
<trkpt lat="-35.362911" lon="149.1652222">
  <ele>582.24</ele>
  <time>2026-08-27T18:28:22Z</time>
  <course>339.72</course>
  <speed>0.01</speed>
  <fix>3d</fix>
</trkpt>
<trkpt lat="-35.3629111" lon="149.1652224">
  <ele>582.18</ele>
  <time>2026-08-27T18:28:22Z</time>
  <course>66.05</course>
  <speed>0.0</speed>
  <fix>3d</fix>
</trkpt>
<trkpt lat="-35.362911" lon="149.1652222">
  <ele>582.24</ele>
  <time>2026-08-27T18:28:22Z</time>
  <course>339.71</course>
  <speed>0.01</speed>
  <fix>3d</fix>
</trkpt>
<trkpt lat="-35.3629111" lon="149.1652224">
  <ele>582.18</ele>
  <time>2026-08-27T18:28:22Z</time>
  <course>66.05</course>
  <speed>0.0</speed>
  <fix>3d</fix>
</trkpt>
<trkpt lat="-35.362911" lon="149.1652222">
  <ele>582.25</ele>
  <time>2026-08-27T18:28:22Z</time>
  <course>339.71</course>
  <speed>0.01</speed>
  <fix>3d</fix>
</trkpt>
<trkpt lat="-35.3629111" lon="149.1652224">
  <ele>582.18</ele>
  <time>2026-08-27T18:28:22Z</time>
  <course>66.05</course>
  <speed>0.0</speed>
  <fix>3d</fix>
</trkpt>
<trkpt lat="-35.362911" lon="149.1652222">
  <ele>582.25</ele>
  <time>2026-08-27T18:28:22Z</time>
  <course>339.71</course>
  <speed>0.01</speed>
  <fix>3d</fix>
</trkpt>
<trkpt lat="-35.3629111" lon="149.1652224">
  <ele>582.18</ele>
  <time>2026-08-27T18:28:22Z</time>
  <course>66.05</course>
  <speed>0.0</speed>
  <fix>3d</fix>
</trkpt>
<trkpt lat="-35.362911" lon="149.1652222">
  <ele>582.24</ele>
  <time>2026-08-27T18:28:22Z</time>
  <course>339.71</course>
  <speed>0.01</speed>
  <fix>3d</fix>
</trkpt>
<trkpt lat="-35.3629111" lon="149.1652224">
  <ele>582.18</ele>
  <time>2026-08-27T18:28:22Z</time>
  <course>66.05</course>
  <speed>0.0</speed>
  <fix>3d</fix>
</trkpt>
<trkpt lat="-35.362911" lon="149.1652222">
  <ele>582.24</ele>
  <time>2026-08-27T18:28:22Z</time>
  <course>339.71</course>
  <speed>0.01</speed>
  <fix>3d</fix>
</trkpt>
<trkpt lat="-35.3629111" lon="149.1652224">
  <ele>582.18</ele>
  <time>2026-08-27T18:28:22Z</time>
  <course>66.05</course>
  <speed>0.0</speed>
  <fix>3d</fix>
</trkpt>
<trkpt lat="-35.362911" lon="149.1652222">
  <ele>582.24</ele>
  <time>2026-08-27T18:28:22Z</time>
  <course>339.72</course>
  <speed>0.01</speed>
  <fix>3d</fix>
</trkpt>
<trkpt lat="-35.3629111" lon="149.1652224">
  <ele>582.18</ele>
  <time>2026-08-27T18:28:22Z</time>
  <course>66.05</course>
  <speed>0.0</speed>
  <fix>3d</fix>
</trkpt>
<trkpt lat="-35.362911" lon="149.1652222">
  <ele>582.25</ele>
  <time>2026-08-27T18:28:22Z</time>
  <course>339.73</course>
  <speed>0.01</speed>
  <fix>3d</fix>
</trkpt>
<trkpt lat="-35.3629111" lon="149.1652224">
  <ele>582.18</ele>
  <time>2026-08-27T18:28:22Z</time>
  <course>66.05</course>
  <speed>0.0</speed>
  <fix>3d</fix>
</trkpt>
<trkpt lat="-35.362911" lon="149.1652222">
  <ele>582.26</ele>
  <time>2026-08-27T18:28:22Z</time>
  <course>339.75</course>
  <speed>0.01</speed>
  <fix>3d</fix>
</trkpt>
<trkpt lat="-35.3629111" lon="149.1652224">
  <ele>582.18</ele>
  <time>2026-08-27T18:28:22Z</time>
  <course>66.05</course>
  <speed>0.0</speed>
  <fix>3d</fix>
</trkpt>
<trkpt lat="-35.362911" lon="149.1652222">
  <ele>582.27</ele>
  <time>2026-08-27T18:28:22Z</time>
  <course>339.77</course>
  <speed>0.01</speed>
  <fix>3d</fix>
</trkpt>
<trkpt lat="-35.3629111" lon="149.1652224">
  <ele>582.18</ele>
  <time>2026-08-27T18:28:22Z</time>
  <course>66.05</course>
  <speed>0.0</speed>
  <fix>3d</fix>
</trkpt>
<trkpt lat="-35.362911" lon="149.1652222">
  <ele>582.28</ele>
  <time>2026-08-27T18:28:22Z</time>
  <course>339.78</course>
  <speed>0.01</speed>
  <fix>3d</fix>
</trkpt>
<trkpt lat="-35.3629111" lon="149.1652224">
  <ele>582.18</ele>
  <time>2026-08-27T18:28:22Z</time>
  <course>66.05</course>
  <speed>0.0</speed>
  <fix>3d</fix>
</trkpt>
<trkpt lat="-35.362911" lon="149.1652222">
  <ele>582.28</ele>
  <time>2026-08-27T18:28:22Z</time>
  <course>339.8</course>
  <speed>0.01</speed>
  <fix>3d</fix>
</trkpt>
<trkpt lat="-35.3629111" lon="149.1652224">
  <ele>582.18</ele>
  <time>2026-08-27T18:28:22Z</time>
  <course>66.05</course>
  <speed>0.0</speed>
  <fix>3d</fix>
</trkpt>
<trkpt lat="-35.362911" lon="149.1652222">
  <ele>582.29</ele>
  <time>2026-08-27T18:28:22Z</time>
  <course>339.81</course>
  <speed>0.02</speed>
  <fix>3d</fix>
</trkpt>
<trkpt lat="-35.3629111" lon="149.1652224">
  <ele>582.18</ele>
  <time>2026-08-27T18:28:22Z</time>
  <course>66.05</course>
  <speed>0.0</speed>
  <fix>3d</fix>
</trkpt>
<trkpt lat="-35.362911" lon="149.1652222">
  <ele>582.29</ele>
  <time>2026-08-27T18:28:22Z</time>
  <course>339.83</course>
  <speed>0.02</speed>
  <fix>3d</fix>
</trkpt>
<trkpt lat="-35.3629111" lon="149.1652224">
  <ele>582.18</ele>
  <time>2026-08-27T18:28:22Z</time>
  <course>66.05</course>
  <speed>0.0</speed>
  <fix>3d</fix>
</trkpt>
<trkpt lat="-35.362911" lon="149.1652222">
  <ele>582.28</ele>
  <time>2026-08-27T18:28:22Z</time>
  <course>339.85</course>
  <speed>0.02</speed>
  <fix>3d</fix>
</trkpt>
<trkpt lat="-35.3629111" lon="149.1652224">
  <ele>582.18</ele>
  <time>2026-08-27T18:28:22Z</time>
  <course>66.05</course>
  <speed>0.0</speed>
  <fix>3d</fix>
</trkpt>
<trkpt lat="-35.362911" lon="149.1652222">
  <ele>582.28</ele>
  <time>2026-08-27T18:28:22Z</time>
  <course>339.86</course>
  <speed>0.02</speed>
  <fix>3d</fix>
</trkpt>
<trkpt lat="-35.3629111" lon="149.1652224">
  <ele>582.18</ele>
  <time>2026-08-27T18:28:22Z</time>
  <course>66.05</course>
  <speed>0.0</speed>
  <fix>3d</fix>
</trkpt>
<trkpt lat="-35.362911" lon="149.1652222">
  <ele>582.27</ele>
  <time>2026-08-27T18:28:22Z</time>
  <course>339.88</course>
  <speed>0.02</speed>
  <fix>3d</fix>
</trkpt>
<trkpt lat="-35.3629111" lon="149.1652224">
  <ele>582.18</ele>
  <time>2026-08-27T18:28:22Z</time>
  <course>66.05</course>
  <speed>0.0</speed>
  <fix>3d</fix>
</trkpt>
<trkpt lat="-35.362911" lon="149.1652222">
  <ele>582.27</ele>
  <time>2026-08-27T18:28:22Z</time>
  <course>339.9</course>
  <speed>0.02</speed>
  <fix>3d</fix>
</trkpt>
<trkpt lat="-35.3629111" lon="149.1652224">
  <ele>582.18</ele>
  <time>2026-08-27T18:28:22Z</time>
  <course>66.05</course>
  <speed>0.0</speed>
  <fix>3d</fix>
</trkpt>
<trkpt lat="-35.362911" lon="149.1652222">
  <ele>582.26</ele>
  <time>2026-08-27T18:28:22Z</time>
  <course>339.91</course>
  <speed>0.02</speed>
  <fix>3d</fix>
</trkpt>
<trkpt lat="-35.3629111" lon="149.1652224">
  <ele>582.18</ele>
  <time>2026-08-27T18:28:22Z</time>
  <course>66.05</course>
  <speed>0.0</speed>
  <fix>3d</fix>
</trkpt>
<trkpt lat="-35.362911" lon="149.1652222">
  <ele>582.27</ele>
  <time>2026-08-27T18:28:22Z</time>
  <course>339.93</course>
  <speed>0.02</speed>
  <fix>3d</fix>
</trkpt>
<trkpt lat="-35.3629111" lon="149.1652224">
  <ele>582.18</ele>
  <time>2026-08-27T18:28:22Z</time>
  <course>66.05</course>
  <speed>0.0</speed>
  <fix>3d</fix>
</trkpt>
<trkpt lat="-35.362911" lon="149.1652222">
  <ele>582.26</ele>
  <time>2026-08-27T18:28:22Z</time>
  <course>339.95</course>
  <speed>0.02</speed>
  <fix>3d</fix>
</trkpt>
<trkpt lat="-35.3629111" lon="149.1652224">
  <ele>582.18</ele>
  <time>2026-08-27T18:28:22Z</time>
  <course>66.05</course>
  <speed>0.0</speed>
  <fix>3d</fix>
</trkpt>
<trkpt lat="-35.362911" lon="149.1652222">
  <ele>582.26</ele>
  <time>2026-08-27T18:28:22Z</time>
  <course>339.97</course>
  <speed>0.02</speed>
  <fix>3d</fix>
</trkpt>
<trkpt lat="-35.3629111" lon="149.1652224">
  <ele>582.18</ele>
  <time>2026-08-27T18:28:22Z</time>
  <course>66.05</course>
  <speed>0.0</speed>
  <fix>3d</fix>
</trkpt>
<trkpt lat="-35.362911" lon="149.1652222">
  <ele>582.26</ele>
  <time>2026-08-27T18:28:22Z</time>
  <course>339.99</course>
  <speed>0.02</speed>
  <fix>3d</fix>
</trkpt>
<trkpt lat="-35.3629111" lon="149.1652224">
  <ele>582.18</ele>
  <time>2026-08-27T18:28:22Z</time>
  <course>66.05</course>
  <speed>0.0</speed>
  <fix>3d</fix>
</trkpt>
<trkpt lat="-35.362911" lon="149.1652222">
  <ele>582.26</ele>
  <time>2026-08-27T18:28:22Z</time>
  <course>340.01</course>
  <speed>0.02</speed>
  <fix>3d</fix>
</trkpt>
<trkpt lat="-35.3629111" lon="149.1652224">
  <ele>582.18</ele>
  <time>2026-08-27T18:28:22Z</time>
  <course>66.05</course>
  <speed>0.0</speed>
  <fix>3d</fix>
</trkpt>
<trkpt lat="-35.362911" lon="149.1652222">
  <ele>582.26</ele>
  <time>2026-08-27T18:28:22Z</time>
  <course>340.02</course>
  <speed>0.02</speed>
  <fix>3d</fix>
</trkpt>
<trkpt lat="-35.3629111" lon="149.1652224">
  <ele>582.18</ele>
  <time>2026-08-27T18:28:22Z</time>
  <course>66.05</course>
  <speed>0.0</speed>
  <fix>3d</fix>
</trkpt>
<trkpt lat="-35.362911" lon="149.1652222">
  <ele>582.26</ele>
  <time>2026-08-27T18:28:22Z</time>
  <course>340.04</course>
  <speed>0.02</speed>
  <fix>3d</fix>
</trkpt>
<trkpt lat="-35.3629111" lon="149.1652224">
  <ele>582.18</ele>
  <time>2026-08-27T18:28:22Z</time>
  <course>66.05</course>
  <speed>0.0</speed>
  <fix>3d</fix>
</trkpt>
<trkpt lat="-35.362911" lon="149.1652222">
  <ele>582.27</ele>
  <time>2026-08-27T18:28:22Z</time>
  <course>340.06</course>
  <speed>0.02</speed>
  <fix>3d</fix>
</trkpt>
<trkpt lat="-35.3629111" lon="149.1652224">
  <ele>582.18</ele>
  <time>2026-08-27T18:28:22Z</time>
  <course>66.05</course>
  <speed>0.0</speed>
  <fix>3d</fix>
</trkpt>
<trkpt lat="-35.362911" lon="149.1652222">
  <ele>582.27</ele>
  <time>2026-08-27T18:28:22Z</time>
  <course>340.08</course>
  <speed>0.02</speed>
  <fix>3d</fix>
</trkpt>
<trkpt lat="-35.3629111" lon="149.1652224">
  <ele>582.18</ele>
  <time>2026-08-27T18:28:22Z</time>
  <course>66.05</course>
  <speed>0.0</speed>
  <fix>3d</fix>
</trkpt>
<trkpt lat="-35.362911" lon="149.1652222">
  <ele>582.27</ele>
  <time>2026-08-27T18:28:22Z</time>
  <course>340.1</course>
  <speed>0.02</speed>
  <fix>3d</fix>
</trkpt>
<trkpt lat="-35.3629111" lon="149.1652224">
  <ele>582.18</ele>
  <time>2026-08-27T18:28:22Z</time>
  <course>66.05</course>
  <speed>0.0</speed>
  <fix>3d</fix>
</trkpt>
<trkpt lat="-35.362911" lon="149.1652222">
  <ele>582.26</ele>
  <time>2026-08-27T18:28:22Z</time>
  <course>340.12</course>
  <speed>0.02</speed>
  <fix>3d</fix>
</trkpt>
<trkpt lat="-35.3629111" lon="149.1652224">
  <ele>582.18</ele>
  <time>2026-08-27T18:28:22Z</time>
  <course>66.05</course>
  <speed>0.0</speed>
  <fix>3d</fix>
</trkpt>
<trkpt lat="-35.362911" lon="149.1652222">
  <ele>582.26</ele>
  <time>2026-08-27T18:28:22Z</time>
  <course>340.15</course>
  <speed>0.02</speed>
  <fix>3d</fix>
</trkpt>
<trkpt lat="-35.3629111" lon="149.1652224">
  <ele>582.18</ele>
  <time>2026-08-27T18:28:22Z</time>
  <course>66.05</course>
  <speed>0.0</speed>
  <fix>3d</fix>
</trkpt>
<trkpt lat="39.654938" lon="-104.1331666">
  <ele>1569.54</ele>
  <time>2026-08-27T18:28:23Z</time>
  <course>168.11</course>
  <speed>0.0</speed>
  <fix>3d</fix>
</trkpt>
<trkpt lat="40.072842" lon="-105.230575">
  <ele>1586.09</ele>
  <time>2026-08-27T18:28:23Z</time>
  <course>2.1</course>
  <speed>0.0</speed>
  <fix>3d</fix>
</trkpt>
<trkpt lat="40.072842" lon="-105.230575">
  <ele>1586.09</ele>
  <time>2026-08-27T18:28:23Z</time>
  <course>238.4</course>
  <speed>0.0</speed>
  <fix>3d</fix>
</trkpt>
<trkpt lat="40.072842" lon="-105.230575">
  <ele>1586.09</ele>
  <time>2026-08-27T18:28:23Z</time>
  <course>2.68</course>
  <speed>0.0</speed>
  <fix>3d</fix>
</trkpt>
<trkpt lat="40.072842" lon="-105.230575">
  <ele>1586.09</ele>
  <time>2026-08-27T18:28:23Z</time>
  <course>194.29</course>
  <speed>0.0</speed>
  <fix>3d</fix>
</trkpt>
<trkpt lat="40.072842" lon="-105.230575">
  <ele>1586.09</ele>
  <time>2026-08-27T18:28:23Z</time>
  <course>3.42</course>
  <speed>0.0</speed>
  <fix>3d</fix>
</trkpt>
<trkpt lat="40.072842" lon="-105.230575">
  <ele>1586.09</ele>
  <time>2026-08-27T18:28:23Z</time>
  <course>193.66</course>
  <speed>0.0</speed>
  <fix>3d</fix>
</trkpt>
<trkpt lat="40.072842" lon="-105.230575">
  <ele>1586.09</ele>
  <time>2026-08-27T18:28:23Z</time>
  <course>4.08</course>
  <speed>0.0</speed>
  <fix>3d</fix>
</trkpt>
<trkpt lat="40.072842" lon="-105.230575">
  <ele>1586.09</ele>
  <time>2026-08-27T18:28:23Z</time>
  <course>303.54</course>
  <speed>0.0</speed>
  <fix>3d</fix>
</trkpt>
<trkpt lat="40.072842" lon="-105.230575">
  <ele>1586.09</ele>
  <time>2026-08-27T18:28:23Z</time>
  <course>4.68</course>
  <speed>0.0</speed>
  <fix>3d</fix>
</trkpt>
<trkpt lat="40.072842" lon="-105.230575">
  <ele>1586.09</ele>
  <time>2026-08-27T18:28:23Z</time>
  <course>110.94</course>
  <speed>0.0</speed>
  <fix>3d</fix>
</trkpt>
<trkpt lat="40.072842" lon="-105.230575">
  <ele>1586.09</ele>
  <time>2026-08-27T18:28:23Z</time>
  <course>5.26</course>
  <speed>0.0</speed>
  <fix>3d</fix>
</trkpt>
<trkpt lat="40.072842" lon="-105.230575">
  <ele>1586.09</ele>
  <time>2026-08-27T18:28:23Z</time>
  <course>191.21</course>
  <speed>0.0</speed>
  <fix>3d</fix>
</trkpt>
<trkpt lat="40.072842" lon="-105.230575">
  <ele>1586.09</ele>
  <time>2026-08-27T18:28:23Z</time>
  <course>5.81</course>
  <speed>0.0</speed>
  <fix>3d</fix>
</trkpt>
<trkpt lat="40.072842" lon="-105.230575">
  <ele>1586.09</ele>
  <time>2026-08-27T18:28:23Z</time>
  <course>252.23</course>
  <speed>0.0</speed>
  <fix>3d</fix>
</trkpt>
<trkpt lat="40.072842" lon="-105.230575">
  <ele>1586.09</ele>
  <time>2026-08-27T18:28:23Z</time>
  <course>6.33</course>
  <speed>0.0</speed>
  <fix>3d</fix>
</trkpt>
<trkpt lat="40.072842" lon="-105.230575">
  <ele>1586.09</ele>
  <time>2026-08-27T18:28:23Z</time>
  <course>170.36</course>
  <speed>0.0</speed>
  <fix>3d</fix>
</trkpt>
<trkpt lat="40.072842" lon="-105.230575">
  <ele>1586.09</ele>
  <time>2026-08-27T18:28:23Z</time>
  <course>6.81</course>
  <speed>0.0</speed>
  <fix>3d</fix>
</trkpt>
<trkpt lat="40.072842" lon="-105.230575">
  <ele>1586.09</ele>
  <time>2026-08-27T18:28:23Z</time>
  <course>179.36</course>
  <speed>0.0</speed>
  <fix>3d</fix>
</trkpt>
<trkpt lat="40.072842" lon="-105.230575">
  <ele>1586.09</ele>
  <time>2026-08-27T18:28:23Z</time>
  <course>7.26</course>
  <speed>0.0</speed>
  <fix>3d</fix>
</trkpt>
<trkpt lat="40.072842" lon="-105.230575">
  <ele>1586.09</ele>
  <time>2026-08-27T18:28:23Z</time>
  <course>19.98</course>
  <speed>0.0</speed>
  <fix>3d</fix>
</trkpt>
<trkpt lat="40.072842" lon="-105.230575">
  <ele>1586.09</ele>
  <time>2026-08-27T18:28:23Z</time>
  <course>7.67</course>
  <speed>0.0</speed>
  <fix>3d</fix>
</trkpt>
<trkpt lat="40.072842" lon="-105.230575">
  <ele>1586.09</ele>
  <time>2026-08-27T18:28:23Z</time>
  <course>17.49</course>
  <speed>0.0</speed>
  <fix>3d</fix>
</trkpt>
<trkpt lat="40.072842" lon="-105.230575">
  <ele>1586.09</ele>
  <time>2026-08-27T18:28:23Z</time>
  <course>8.06</course>
  <speed>0.0</speed>
  <fix>3d</fix>
</trkpt>
<trkpt lat="40.072842" lon="-105.230575">
  <ele>1586.09</ele>
  <time>2026-08-27T18:28:23Z</time>
  <course>356.19</course>
  <speed>0.0</speed>
  <fix>3d</fix>
</trkpt>
<trkpt lat="40.072842" lon="-105.230575">
  <ele>1586.09</ele>
  <time>2026-08-27T18:28:23Z</time>
  <course>8.41</course>
  <speed>0.0</speed>
  <fix>3d</fix>
</trkpt>
<trkpt lat="40.072842" lon="-105.230575">
  <ele>1586.09</ele>
  <time>2026-08-27T18:28:23Z</time>
  <course>77.32</course>
  <speed>0.0</speed>
  <fix>3d</fix>
</trkpt>
<trkpt lat="40.072842" lon="-105.230575">
  <ele>1586.09</ele>
  <time>2026-08-27T18:28:23Z</time>
  <course>8.74</course>
  <speed>0.0</speed>
  <fix>3d</fix>
</trkpt>
<trkpt lat="40.072842" lon="-105.230575">
  <ele>1586.09</ele>
  <time>2026-08-27T18:28:23Z</time>
  <course>290.54</course>
  <speed>0.0</speed>
  <fix>3d</fix>
</trkpt>
<trkpt lat="40.072842" lon="-105.230575">
  <ele>1586.09</ele>
  <time>2026-08-27T18:28:23Z</time>
  <course>9.04</course>
  <speed>0.0</speed>
  <fix>3d</fix>
</trkpt>
<trkpt lat="40.072842" lon="-105.230575">
  <ele>1586.09</ele>
  <time>2026-08-27T18:28:23Z</time>
  <course>338.69</course>
  <speed>0.0</speed>
  <fix>3d</fix>
</trkpt>
<trkpt lat="40.072842" lon="-105.230575">
  <ele>1586.09</ele>
  <time>2026-08-27T18:28:23Z</time>
  <course>9.32</course>
  <speed>0.0</speed>
  <fix>3d</fix>
</trkpt>
<trkpt lat="40.072842" lon="-105.230575">
  <ele>1586.09</ele>
  <time>2026-08-27T18:28:23Z</time>
  <course>326.81</course>
  <speed>0.0</speed>
  <fix>3d</fix>
</trkpt>
<trkpt lat="40.072842" lon="-105.230575">
  <ele>1586.09</ele>
  <time>2026-08-27T18:28:23Z</time>
  <course>9.58</course>
  <speed>0.0</speed>
  <fix>3d</fix>
</trkpt>
<trkpt lat="40.072842" lon="-105.230575">
  <ele>1586.09</ele>
  <time>2026-08-27T18:28:23Z</time>
  <course>262.23</course>
  <speed>0.0</speed>
  <fix>3d</fix>
</trkpt>
<trkpt lat="40.072842" lon="-105.230575">
  <ele>1586.09</ele>
  <time>2026-08-27T18:28:23Z</time>
  <course>9.81</course>
  <speed>0.0</speed>
  <fix>3d</fix>
</trkpt>
<trkpt lat="40.072842" lon="-105.230575">
  <ele>1586.09</ele>
  <time>2026-08-27T18:28:23Z</time>
  <course>159.08</course>
  <speed>0.0</speed>
  <fix>3d</fix>
</trkpt>
<trkpt lat="40.072842" lon="-105.230575">
  <ele>1586.09</ele>
  <time>2026-08-27T18:28:23Z</time>
  <course>10.03</course>
  <speed>0.0</speed>
  <fix>3d</fix>
</trkpt>
<trkpt lat="40.072842" lon="-105.230575">
  <ele>1586.09</ele>
  <time>2026-08-27T18:28:23Z</time>
  <course>287.98</course>
  <speed>0.0</speed>
  <fix>3d</fix>
</trkpt>
<trkpt lat="40.072842" lon="-105.230575">
  <ele>1586.09</ele>
  <time>2026-08-27T18:28:23Z</time>
  <course>10.23</course>
  <speed>0.0</speed>
  <fix>3d</fix>
</trkpt>
<trkpt lat="40.072842" lon="-105.230575">
  <ele>1586.09</ele>
  <time>2026-08-27T18:28:23Z</time>
  <course>278.3</course>
  <speed>0.0</speed>
  <fix>3d</fix>
</trkpt>
<trkpt lat="40.072842" lon="-105.230575">
  <ele>1586.09</ele>
  <time>2026-08-27T18:28:23Z</time>
  <course>10.41</course>
  <speed>0.0</speed>
  <fix>3d</fix>
</trkpt>
<trkpt lat="40.072842" lon="-105.230575">
  <ele>1586.09</ele>
  <time>2026-08-27T18:28:23Z</time>
  <course>261.72</course>
  <speed>0.0</speed>
  <fix>3d</fix>
</trkpt>
<trkpt lat="40.072842" lon="-105.230575">
  <ele>1586.09</ele>
  <time>2026-08-27T18:28:23Z</time>
  <course>10.57</course>
  <speed>0.0</speed>
  <fix>3d</fix>
</trkpt>
<trkpt lat="40.072842" lon="-105.230575">
  <ele>1586.09</ele>
  <time>2026-08-27T18:28:23Z</time>
  <course>264.4</course>
  <speed>0.0</speed>
  <fix>3d</fix>
</trkpt>
<trkpt lat="40.072842" lon="-105.230575">
  <ele>1586.09</ele>
  <time>2026-08-27T18:28:23Z</time>
  <course>10.73</course>
  <speed>0.0</speed>
  <fix>3d</fix>
</trkpt>
<trkpt lat="40.072842" lon="-105.230575">
  <ele>1586.09</ele>
  <time>2026-08-27T18:28:23Z</time>
  <course>266.8</course>
  <speed>0.0</speed>
  <fix>3d</fix>
</trkpt>
<trkpt lat="40.072842" lon="-105.230575">
  <ele>1586.09</ele>
  <time>2026-08-27T18:28:23Z</time>
  <course>10.86</course>
  <speed>0.0</speed>
  <fix>3d</fix>
</trkpt>
<trkpt lat="40.072842" lon="-105.230575">
  <ele>1586.09</ele>
  <time>2026-08-27T18:28:23Z</time>
  <course>266.15</course>
  <speed>0.0</speed>
  <fix>3d</fix>
</trkpt>
<trkpt lat="40.072842" lon="-105.230575">
  <ele>1586.09</ele>
  <time>2026-08-27T18:28:23Z</time>
  <course>10.99</course>
  <speed>0.0</speed>
  <fix>3d</fix>
</trkpt>
<trkpt lat="40.072842" lon="-105.230575">
  <ele>1586.09</ele>
  <time>2026-08-27T18:28:23Z</time>
  <course>265.92</course>
  <speed>0.0</speed>
  <fix>3d</fix>
</trkpt>
<trkpt lat="40.072842" lon="-105.230575">
  <ele>1586.09</ele>
  <time>2026-08-27T18:28:23Z</time>
  <course>11.11</course>
  <speed>0.0</speed>
  <fix>3d</fix>
</trkpt>
<trkpt lat="40.072842" lon="-105.230575">
  <ele>1586.09</ele>
  <time>2026-08-27T18:28:23Z</time>
  <course>266.03</course>
  <speed>0.0</speed>
  <fix>3d</fix>
</trkpt>
<trkpt lat="40.072842" lon="-105.230575">
  <ele>1586.09</ele>
  <time>2026-08-27T18:28:23Z</time>
  <course>11.22</course>
  <speed>0.0</speed>
  <fix>3d</fix>
</trkpt>
<trkpt lat="40.072842" lon="-105.230575">
  <ele>1586.09</ele>
  <time>2026-08-27T18:28:23Z</time>
  <course>266.05</course>
  <speed>0.0</speed>
  <fix>3d</fix>
</trkpt>
<trkpt lat="40.072842" lon="-105.230575">
  <ele>1586.09</ele>
  <time>2026-08-27T18:28:23Z</time>
  <course>11.31</course>
  <speed>0.0</speed>
  <fix>3d</fix>
</trkpt>
<trkpt lat="40.072842" lon="-105.230575">
  <ele>1586.09</ele>
  <time>2026-08-27T18:28:23Z</time>
  <course>266.03</course>
  <speed>0.0</speed>
  <fix>3d</fix>
</trkpt>
<trkpt lat="40.072842" lon="-105.230575">
  <ele>1586.09</ele>
  <time>2026-08-27T18:28:23Z</time>
  <course>11.4</course>
  <speed>0.0</speed>
  <fix>3d</fix>
</trkpt>
<trkpt lat="40.072842" lon="-105.230575">
  <ele>1586.09</ele>
  <time>2026-08-27T18:28:23Z</time>
  <course>266.03</course>
  <speed>0.0</speed>
  <fix>3d</fix>
</trkpt>
<trkpt lat="40.072842" lon="-105.230575">
  <ele>1586.09</ele>
  <time>2026-08-27T18:28:23Z</time>
  <course>11.48</course>
  <speed>0.0</speed>
  <fix>3d</fix>
</trkpt>
<trkpt lat="40.072842" lon="-105.230575">
  <ele>1586.09</ele>
  <time>2026-08-27T18:28:23Z</time>
  <course>266.03</course>
  <speed>0.0</speed>
  <fix>3d</fix>
</trkpt>
<trkpt lat="40.072842" lon="-105.230575">
  <ele>1586.09</ele>
  <time>2026-08-27T18:28:23Z</time>
  <course>11.55</course>
  <speed>0.0</speed>
  <fix>3d</fix>
</trkpt>
<trkpt lat="40.072842" lon="-105.230575">
  <ele>1586.09</ele>
  <time>2026-08-27T18:28:23Z</time>
  <course>266.03</course>
  <speed>0.0</speed>
  <fix>3d</fix>
</trkpt>
<trkpt lat="40.072842" lon="-105.230575">
  <ele>1586.09</ele>
  <time>2026-08-27T18:28:23Z</time>
  <course>11.62</course>
  <speed>0.0</speed>
  <fix>3d</fix>
</trkpt>
<trkpt lat="40.072842" lon="-105.230575">
  <ele>1586.09</ele>
  <time>2026-08-27T18:28:23Z</time>
  <course>266.03</course>
  <speed>0.0</speed>
  <fix>3d</fix>
</trkpt>
<trkpt lat="40.072842" lon="-105.230575">
  <ele>1586.09</ele>
  <time>2026-08-27T18:28:23Z</time>
  <course>11.68</course>
  <speed>0.0</speed>
  <fix>3d</fix>
</trkpt>
<trkpt lat="40.072842" lon="-105.230575">
  <ele>1586.09</ele>
  <time>2026-08-27T18:28:23Z</time>
  <course>266.03</course>
  <speed>0.0</speed>
  <fix>3d</fix>
</trkpt>
<trkpt lat="40.072842" lon="-105.230575">
  <ele>1586.09</ele>
  <time>2026-08-27T18:28:23Z</time>
  <course>11.73</course>
  <speed>0.0</speed>
  <fix>3d</fix>
</trkpt>
<trkpt lat="40.072842" lon="-105.230575">
  <ele>1586.09</ele>
  <time>2026-08-27T18:28:23Z</time>
  <course>266.03</course>
  <speed>0.0</speed>
  <fix>3d</fix>
</trkpt>
<trkpt lat="40.072842" lon="-105.230575">
  <ele>1586.09</ele>
  <time>2026-08-27T18:28:23Z</time>
  <course>11.78</course>
  <speed>0.0</speed>
  <fix>3d</fix>
</trkpt>
<trkpt lat="40.072842" lon="-105.230575">
  <ele>1586.09</ele>
  <time>2026-08-27T18:28:23Z</time>
  <course>266.03</course>
  <speed>0.0</speed>
  <fix>3d</fix>
</trkpt>
<trkpt lat="40.072842" lon="-105.230575">
  <ele>1586.09</ele>
  <time>2026-08-27T18:28:23Z</time>
  <course>11.82</course>
  <speed>0.0</speed>
  <fix>3d</fix>
</trkpt>
<trkpt lat="40.072842" lon="-105.230575">
  <ele>1586.09</ele>
  <time>2026-08-27T18:28:23Z</time>
  <course>266.03</course>
  <speed>0.0</speed>
  <fix>3d</fix>
</trkpt>
<trkpt lat="40.072842" lon="-105.230575">
  <ele>1586.09</ele>
  <time>2026-08-27T18:28:23Z</time>
  <course>11.86</course>
  <speed>0.0</speed>
  <fix>3d</fix>
</trkpt>
<trkpt lat="40.072842" lon="-105.230575">
  <ele>1586.09</ele>
  <time>2026-08-27T18:28:23Z</time>
  <course>266.03</course>
  <speed>0.0</speed>
  <fix>3d</fix>
</trkpt>
<trkpt lat="40.072842" lon="-105.230575">
  <ele>1586.09</ele>
  <time>2026-08-27T18:28:23Z</time>
  <course>11.9</course>
  <speed>0.0</speed>
  <fix>3d</fix>
</trkpt>
<trkpt lat="40.072842" lon="-105.230575">
  <ele>1586.09</ele>
  <time>2026-08-27T18:28:23Z</time>
  <course>266.03</course>
  <speed>0.0</speed>
  <fix>3d</fix>
</trkpt>
<trkpt lat="40.072842" lon="-105.230575">
  <ele>1586.09</ele>
  <time>2026-08-27T18:28:23Z</time>
  <course>11.93</course>
  <speed>0.0</speed>
  <fix>3d</fix>
</trkpt>
<trkpt lat="40.072842" lon="-105.230575">
  <ele>1586.09</ele>
  <time>2026-08-27T18:28:23Z</time>
  <course>266.03</course>
  <speed>0.0</speed>
  <fix>3d</fix>
</trkpt>
<trkpt lat="40.072842" lon="-105.230575">
  <ele>1586.09</ele>
  <time>2026-08-27T18:28:23Z</time>
  <course>11.96</course>
  <speed>0.0</speed>
  <fix>3d</fix>
</trkpt>
<trkpt lat="40.072842" lon="-105.230575">
  <ele>1586.09</ele>
  <time>2026-08-27T18:28:23Z</time>
  <course>266.03</course>
  <speed>0.0</speed>
  <fix>3d</fix>
</trkpt>
<trkpt lat="40.072842" lon="-105.230575">
  <ele>1586.09</ele>
  <time>2026-08-27T18:28:23Z</time>
  <course>11.98</course>
  <speed>0.0</speed>
  <fix>3d</fix>
</trkpt>
<trkpt lat="40.072842" lon="-105.230575">
  <ele>1586.09</ele>
  <time>2026-08-27T18:28:23Z</time>
  <course>266.03</course>
  <speed>0.0</speed>
  <fix>3d</fix>
</trkpt>
<trkpt lat="40.072842" lon="-105.230575">
  <ele>1586.09</ele>
  <time>2026-08-27T18:28:23Z</time>
  <course>12.01</course>
  <speed>0.0</speed>
  <fix>3d</fix>
</trkpt>
<trkpt lat="40.072842" lon="-105.230575">
  <ele>1586.09</ele>
  <time>2026-08-27T18:28:23Z</time>
  <course>266.03</course>
  <speed>0.0</speed>
  <fix>3d</fix>
</trkpt>
<trkpt lat="40.072842" lon="-105.230575">
  <ele>1586.09</ele>
  <time>2026-08-27T18:28:23Z</time>
  <course>12.03</course>
  <speed>0.0</speed>
  <fix>3d</fix>
</trkpt>
<trkpt lat="40.072842" lon="-105.230575">
  <ele>1586.09</ele>
  <time>2026-08-27T18:28:23Z</time>
  <course>266.03</course>
  <speed>0.0</speed>
  <fix>3d</fix>
</trkpt>
<trkpt lat="40.072842" lon="-105.230575">
  <ele>1586.09</ele>
  <time>2026-08-27T18:28:23Z</time>
  <course>12.04</course>
  <speed>0.0</speed>
  <fix>3d</fix>
</trkpt>
<trkpt lat="40.072842" lon="-105.230575">
  <ele>1586.09</ele>
  <time>2026-08-27T18:28:23Z</time>
  <course>266.03</course>
  <speed>0.0</speed>
  <fix>3d</fix>
</trkpt>
<trkpt lat="40.072842" lon="-105.230575">
  <ele>1586.09</ele>
  <time>2026-08-27T18:28:23Z</time>
  <course>12.06</course>
  <speed>0.0</speed>
  <fix>3d</fix>
</trkpt>
<trkpt lat="40.072842" lon="-105.230575">
  <ele>1586.09</ele>
  <time>2026-08-27T18:28:23Z</time>
  <course>266.03</course>
  <speed>0.0</speed>
  <fix>3d</fix>
</trkpt>
<trkpt lat="40.072842" lon="-105.230575">
  <ele>1586.09</ele>
  <time>2026-08-27T18:28:23Z</time>
  <course>12.07</course>
  <speed>0.0</speed>
  <fix>3d</fix>
</trkpt>
<trkpt lat="40.072842" lon="-105.230575">
  <ele>1586.09</ele>
  <time>2026-08-27T18:28:23Z</time>
  <course>266.03</course>
  <speed>0.0</speed>
  <fix>3d</fix>
</trkpt>
<trkpt lat="40.072842" lon="-105.230575">
  <ele>1586.09</ele>
  <time>2026-08-27T18:28:23Z</time>
  <course>12.08</course>
  <speed>0.0</speed>
  <fix>3d</fix>
</trkpt>
<trkpt lat="40.072842" lon="-105.230575">
  <ele>1586.09</ele>
  <time>2026-08-27T18:28:23Z</time>
  <course>266.03</course>
  <speed>0.0</speed>
  <fix>3d</fix>
</trkpt>
<trkpt lat="40.072842" lon="-105.230575">
  <ele>1586.09</ele>
  <time>2026-08-27T18:28:23Z</time>
  <course>12.09</course>
  <speed>0.0</speed>
  <fix>3d</fix>
</trkpt>
<trkpt lat="40.072842" lon="-105.230575">
  <ele>1586.09</ele>
  <time>2026-08-27T18:28:23Z</time>
  <course>266.03</course>
  <speed>0.0</speed>
  <fix>3d</fix>
</trkpt>
<trkpt lat="40.072842" lon="-105.230575">
  <ele>1586.09</ele>
  <time>2026-08-27T18:28:23Z</time>
  <course>12.1</course>
  <speed>0.0</speed>
  <fix>3d</fix>
</trkpt>
<trkpt lat="40.072842" lon="-105.230575">
  <ele>1586.09</ele>
  <time>2026-08-27T18:28:23Z</time>
  <course>266.03</course>
  <speed>0.0</speed>
  <fix>3d</fix>
</trkpt>
<trkpt lat="40.072842" lon="-105.230575">
  <ele>1586.09</ele>
  <time>2026-08-27T18:28:23Z</time>
  <course>12.11</course>
  <speed>0.0</speed>
  <fix>3d</fix>
</trkpt>
<trkpt lat="40.072842" lon="-105.230575">
  <ele>1586.09</ele>
  <time>2026-08-27T18:28:23Z</time>
  <course>266.03</course>
  <speed>0.0</speed>
  <fix>3d</fix>
</trkpt>
<trkpt lat="40.072842" lon="-105.230575">
  <ele>1586.09</ele>
  <time>2026-08-27T18:28:23Z</time>
  <course>12.12</course>
  <speed>0.0</speed>
  <fix>3d</fix>
</trkpt>
<trkpt lat="40.072842" lon="-105.230575">
  <ele>1586.09</ele>
  <time>2026-08-27T18:28:23Z</time>
  <course>266.03</course>
  <speed>0.0</speed>
  <fix>3d</fix>
</trkpt>
<trkpt lat="40.072842" lon="-105.230575">
  <ele>1586.09</ele>
  <time>2026-08-27T18:28:23Z</time>
  <course>12.12</course>
  <speed>0.0</speed>
  <fix>3d</fix>
</trkpt>
<trkpt lat="40.072842" lon="-105.230575">
  <ele>1586.09</ele>
  <time>2026-08-27T18:28:23Z</time>
  <course>266.03</course>
  <speed>0.0</speed>
  <fix>3d</fix>
</trkpt>
<trkpt lat="40.072842" lon="-105.230575">
  <ele>1586.09</ele>
  <time>2026-08-27T18:28:23Z</time>
  <course>12.12</course>
  <speed>0.0</speed>
  <fix>3d</fix>
</trkpt>
<trkpt lat="40.072842" lon="-105.230575">
  <ele>1586.09</ele>
  <time>2026-08-27T18:28:23Z</time>
  <course>266.03</course>
  <speed>0.0</speed>
  <fix>3d</fix>
</trkpt>
<trkpt lat="40.072842" lon="-105.230575">
  <ele>1586.09</ele>
  <time>2026-08-27T18:28:23Z</time>
  <course>12.13</course>
  <speed>0.0</speed>
  <fix>3d</fix>
</trkpt>
<trkpt lat="40.072842" lon="-105.230575">
  <ele>1586.09</ele>
  <time>2026-08-27T18:28:23Z</time>
  <course>266.03</course>
  <speed>0.0</speed>
  <fix>3d</fix>
</trkpt>
<trkpt lat="40.072842" lon="-105.230575">
  <ele>1586.09</ele>
  <time>2026-08-27T18:28:23Z</time>
  <course>12.13</course>
  <speed>0.0</speed>
  <fix>3d</fix>
</trkpt>
<trkpt lat="40.072842" lon="-105.230575">
  <ele>1586.09</ele>
  <time>2026-08-27T18:28:23Z</time>
  <course>266.03</course>
  <speed>0.0</speed>
  <fix>3d</fix>
</trkpt>
<trkpt lat="40.072842" lon="-105.230575">
  <ele>1586.09</ele>
  <time>2026-08-27T18:28:23Z</time>
  <course>12.13</course>
  <speed>0.0</speed>
  <fix>3d</fix>
</trkpt>
<trkpt lat="40.072842" lon="-105.230575">
  <ele>1586.09</ele>
  <time>2026-08-27T18:28:23Z</time>
  <course>266.03</course>
  <speed>0.0</speed>
  <fix>3d</fix>
</trkpt>
<trkpt lat="40.072842" lon="-105.230575">
  <ele>1586.09</ele>
  <time>2026-08-27T18:28:23Z</time>
  <course>12.13</course>
  <speed>0.0</speed>
  <fix>3d</fix>
</trkpt>
<trkpt lat="40.072842" lon="-105.230575">
  <ele>1586.09</ele>
  <time>2026-08-27T18:28:23Z</time>
  <course>266.03</course>
  <speed>0.0</speed>
  <fix>3d</fix>
</trkpt>
<trkpt lat="40.072842" lon="-105.230575">
  <ele>1586.09</ele>
  <time>2026-08-27T18:28:23Z</time>
  <course>12.12</course>
  <speed>0.01</speed>
  <fix>3d</fix>
</trkpt>
<trkpt lat="40.072842" lon="-105.230575">
  <ele>1586.09</ele>
  <time>2026-08-27T18:28:23Z</time>
  <course>266.03</course>
  <speed>0.0</speed>
  <fix>3d</fix>
</trkpt>
<trkpt lat="40.072842" lon="-105.230575">
  <ele>1586.09</ele>
  <time>2026-08-27T18:28:23Z</time>
  <course>12.12</course>
  <speed>0.01</speed>
  <fix>3d</fix>
</trkpt>
<trkpt lat="40.072842" lon="-105.230575">
  <ele>1586.09</ele>
  <time>2026-08-27T18:28:23Z</time>
  <course>266.03</course>
  <speed>0.0</speed>
  <fix>3d</fix>
</trkpt>
<trkpt lat="40.072842" lon="-105.230575">
  <ele>1586.09</ele>
  <time>2026-08-27T18:28:23Z</time>
  <course>12.12</course>
  <speed>0.01</speed>
  <fix>3d</fix>
</trkpt>
<trkpt lat="40.072842" lon="-105.230575">
  <ele>1586.09</ele>
  <time>2026-08-27T18:28:23Z</time>
  <course>266.03</course>
  <speed>0.0</speed>
  <fix>3d</fix>
</trkpt>
<trkpt lat="40.072842" lon="-105.230575">
  <ele>1586.09</ele>
  <time>2026-08-27T18:28:23Z</time>
  <course>12.12</course>
  <speed>0.01</speed>
  <fix>3d</fix>
</trkpt>
<trkpt lat="40.072842" lon="-105.230575">
  <ele>1586.09</ele>
  <time>2026-08-27T18:28:23Z</time>
  <course>266.03</course>
  <speed>0.0</speed>
  <fix>3d</fix>
</trkpt>
<trkpt lat="40.072842" lon="-105.230575">
  <ele>1586.09</ele>
  <time>2026-08-27T18:28:23Z</time>
  <course>12.11</course>
  <speed>0.01</speed>
  <fix>3d</fix>
</trkpt>
<trkpt lat="40.072842" lon="-105.230575">
  <ele>1586.09</ele>
  <time>2026-08-27T18:28:23Z</time>
  <course>266.03</course>
  <speed>0.0</speed>
  <fix>3d</fix>
</trkpt>
<trkpt lat="40.072842" lon="-105.230575">
  <ele>1586.09</ele>
  <time>2026-08-27T18:28:23Z</time>
  <course>12.11</course>
  <speed>0.01</speed>
  <fix>3d</fix>
</trkpt>
<trkpt lat="40.072842" lon="-105.230575">
  <ele>1586.09</ele>
  <time>2026-08-27T18:28:23Z</time>
  <course>266.03</course>
  <speed>0.0</speed>
  <fix>3d</fix>
</trkpt>
<trkpt lat="40.072842" lon="-105.230575">
  <ele>1586.09</ele>
  <time>2026-08-27T18:28:23Z</time>
  <course>12.1</course>
  <speed>0.01</speed>
  <fix>3d</fix>
</trkpt>
<trkpt lat="40.072842" lon="-105.230575">
  <ele>1586.09</ele>
  <time>2026-08-27T18:28:23Z</time>
  <course>266.03</course>
  <speed>0.0</speed>
  <fix>3d</fix>
</trkpt>
<trkpt lat="40.072842" lon="-105.230575">
  <ele>1586.09</ele>
  <time>2026-08-27T18:28:23Z</time>
  <course>12.1</course>
  <speed>0.01</speed>
  <fix>3d</fix>
</trkpt>
<trkpt lat="40.072842" lon="-105.230575">
  <ele>1586.09</ele>
  <time>2026-08-27T18:28:23Z</time>
  <course>266.03</course>
  <speed>0.0</speed>
  <fix>3d</fix>
</trkpt>
<trkpt lat="40.072842" lon="-105.230575">
  <ele>1586.09</ele>
  <time>2026-08-27T18:28:23Z</time>
  <course>12.09</course>
  <speed>0.01</speed>
  <fix>3d</fix>
</trkpt>
<trkpt lat="40.072842" lon="-105.230575">
  <ele>1586.09</ele>
  <time>2026-08-27T18:28:23Z</time>
  <course>266.03</course>
  <speed>0.0</speed>
  <fix>3d</fix>
</trkpt>
<trkpt lat="40.072842" lon="-105.230575">
  <ele>1586.09</ele>
  <time>2026-08-27T18:28:23Z</time>
  <course>12.09</course>
  <speed>0.01</speed>
  <fix>3d</fix>
</trkpt>
<trkpt lat="40.072842" lon="-105.230575">
  <ele>1586.09</ele>
  <time>2026-08-27T18:28:23Z</time>
  <course>266.03</course>
  <speed>0.0</speed>
  <fix>3d</fix>
</trkpt>
<trkpt lat="40.072842" lon="-105.230575">
  <ele>1586.09</ele>
  <time>2026-08-27T18:28:23Z</time>
  <course>12.08</course>
  <speed>0.01414213562373095</speed>
  <fix>3d</fix>
</trkpt>
<trkpt lat="40.072842" lon="-105.230575">
  <ele>1586.09</ele>
  <time>2026-08-27T18:28:23Z</time>
  <course>266.03</course>
  <speed>0.0</speed>
  <fix>3d</fix>
</trkpt>
<trkpt lat="40.072842" lon="-105.230575">
  <ele>1586.09</ele>
  <time>2026-08-27T18:28:23Z</time>
  <course>12.07</course>
  <speed>0.01414213562373095</speed>
  <fix>3d</fix>
</trkpt>
<trkpt lat="40.072842" lon="-105.230575">
  <ele>1586.09</ele>
  <time>2026-08-27T18:28:23Z</time>
  <course>266.03</course>
  <speed>0.0</speed>
  <fix>3d</fix>
</trkpt>
<trkpt lat="40.072842" lon="-105.230575">
  <ele>1586.09</ele>
  <time>2026-08-27T18:28:23Z</time>
  <course>12.07</course>
  <speed>0.01414213562373095</speed>
  <fix>3d</fix>
</trkpt>
<trkpt lat="40.072842" lon="-105.230575">
  <ele>1586.09</ele>
  <time>2026-08-27T18:28:23Z</time>
  <course>266.03</course>
  <speed>0.0</speed>
  <fix>3d</fix>
</trkpt>
<trkpt lat="40.072842" lon="-105.230575">
  <ele>1586.09</ele>
  <time>2026-08-27T18:28:23Z</time>
  <course>12.06</course>
  <speed>0.01414213562373095</speed>
  <fix>3d</fix>
</trkpt>
<trkpt lat="40.072842" lon="-105.230575">
  <ele>1586.09</ele>
  <time>2026-08-27T18:28:23Z</time>
  <course>266.03</course>
  <speed>0.0</speed>
  <fix>3d</fix>
</trkpt>
<trkpt lat="40.072842" lon="-105.230575">
  <ele>1586.09</ele>
  <time>2026-08-27T18:28:23Z</time>
  <course>12.05</course>
  <speed>0.01414213562373095</speed>
  <fix>3d</fix>
</trkpt>
<trkpt lat="40.072842" lon="-105.230575">
  <ele>1586.09</ele>
  <time>2026-08-27T18:28:23Z</time>
  <course>266.03</course>
  <speed>0.0</speed>
  <fix>3d</fix>
</trkpt>
<trkpt lat="40.072842" lon="-105.230575">
  <ele>1586.09</ele>
  <time>2026-08-27T18:28:23Z</time>
  <course>12.05</course>
  <speed>0.01414213562373095</speed>
  <fix>3d</fix>
</trkpt>
<trkpt lat="40.072842" lon="-105.230575">
  <ele>1586.09</ele>
  <time>2026-08-27T18:28:23Z</time>
  <course>266.03</course>
  <speed>0.0</speed>
  <fix>3d</fix>
</trkpt>
<trkpt lat="40.072842" lon="-105.230575">
  <ele>1586.09</ele>
  <time>2026-08-27T18:28:23Z</time>
  <course>12.04</course>
  <speed>0.01414213562373095</speed>
  <fix>3d</fix>
</trkpt>
<trkpt lat="40.072842" lon="-105.230575">
  <ele>1586.09</ele>
  <time>2026-08-27T18:28:23Z</time>
  <course>266.03</course>
  <speed>0.0</speed>
  <fix>3d</fix>
</trkpt>
<trkpt lat="40.072842" lon="-105.230575">
  <ele>1586.09</ele>
  <time>2026-08-27T18:28:24Z</time>
  <course>12.03</course>
  <speed>0.01414213562373095</speed>
  <fix>3d</fix>
</trkpt>
<trkpt lat="40.072842" lon="-105.230575">
  <ele>1586.09</ele>
  <time>2026-08-27T18:28:24Z</time>
  <course>266.03</course>
  <speed>0.0</speed>
  <fix>3d</fix>
</trkpt>
<trkpt lat="40.072842" lon="-105.230575">
  <ele>1586.09</ele>
  <time>2026-08-27T18:28:24Z</time>
  <course>12.02</course>
  <speed>0.01414213562373095</speed>
  <fix>3d</fix>
</trkpt>
<trkpt lat="40.072842" lon="-105.230575">
  <ele>1586.09</ele>
  <time>2026-08-27T18:28:24Z</time>
  <course>266.03</course>
  <speed>0.0</speed>
  <fix>3d</fix>
</trkpt>
<trkpt lat="40.072842" lon="-105.230575">
  <ele>1586.09</ele>
  <time>2026-08-27T18:28:24Z</time>
  <course>12.02</course>
  <speed>0.01414213562373095</speed>
  <fix>3d</fix>
</trkpt>
<trkpt lat="40.072842" lon="-105.230575">
  <ele>1586.09</ele>
  <time>2026-08-27T18:28:24Z</time>
  <course>266.03</course>
  <speed>0.0</speed>
  <fix>3d</fix>
</trkpt>
<trkpt lat="40.072842" lon="-105.230575">
  <ele>1586.09</ele>
  <time>2026-08-27T18:28:24Z</time>
  <course>12.01</course>
  <speed>0.01414213562373095</speed>
  <fix>3d</fix>
</trkpt>
<trkpt lat="40.072842" lon="-105.230575">
  <ele>1586.09</ele>
  <time>2026-08-27T18:28:24Z</time>
  <course>266.03</course>
  <speed>0.0</speed>
  <fix>3d</fix>
</trkpt>
<trkpt lat="40.072842" lon="-105.230575">
  <ele>1586.09</ele>
  <time>2026-08-27T18:28:24Z</time>
  <course>12.01</course>
  <speed>0.01414213562373095</speed>
  <fix>3d</fix>
</trkpt>
<trkpt lat="40.072842" lon="-105.230575">
  <ele>1586.09</ele>
  <time>2026-08-27T18:28:24Z</time>
  <course>266.03</course>
  <speed>0.0</speed>
  <fix>3d</fix>
</trkpt>
<trkpt lat="40.072842" lon="-105.230575">
  <ele>1586.09</ele>
  <time>2026-08-27T18:28:24Z</time>
  <course>12.0</course>
  <speed>0.01414213562373095</speed>
  <fix>3d</fix>
</trkpt>
<trkpt lat="40.072842" lon="-105.230575">
  <ele>1586.09</ele>
  <time>2026-08-27T18:28:24Z</time>
  <course>266.03</course>
  <speed>0.0</speed>
  <fix>3d</fix>
</trkpt>
<trkpt lat="40.072842" lon="-105.230575">
  <ele>1586.09</ele>
  <time>2026-08-27T18:28:24Z</time>
  <course>11.99</course>
  <speed>0.01414213562373095</speed>
  <fix>3d</fix>
</trkpt>
<trkpt lat="40.072842" lon="-105.230575">
  <ele>1586.09</ele>
  <time>2026-08-27T18:28:24Z</time>
  <course>266.03</course>
  <speed>0.0</speed>
  <fix>3d</fix>
</trkpt>
<trkpt lat="40.072842" lon="-105.230575">
  <ele>1586.09</ele>
  <time>2026-08-27T18:28:24Z</time>
  <course>11.98</course>
  <speed>0.01414213562373095</speed>
  <fix>3d</fix>
</trkpt>
<trkpt lat="40.072842" lon="-105.230575">
  <ele>1586.09</ele>
  <time>2026-08-27T18:28:24Z</time>
  <course>266.03</course>
  <speed>0.0</speed>
  <fix>3d</fix>
</trkpt>
<trkpt lat="40.072842" lon="-105.230575">
  <ele>1586.09</ele>
  <time>2026-08-27T18:28:24Z</time>
  <course>11.97</course>
  <speed>0.01414213562373095</speed>
  <fix>3d</fix>
</trkpt>
<trkpt lat="40.072842" lon="-105.230575">
  <ele>1586.09</ele>
  <time>2026-08-27T18:28:24Z</time>
  <course>266.03</course>
  <speed>0.0</speed>
  <fix>3d</fix>
</trkpt>
<trkpt lat="40.072842" lon="-105.230575">
  <ele>1586.09</ele>
  <time>2026-08-27T18:28:24Z</time>
  <course>11.96</course>
  <speed>0.022360679774997897</speed>
  <fix>3d</fix>
</trkpt>
<trkpt lat="40.072842" lon="-105.230575">
  <ele>1586.09</ele>
  <time>2026-08-27T18:28:24Z</time>
  <course>266.03</course>
  <speed>0.0</speed>
  <fix>3d</fix>
</trkpt>
<trkpt lat="40.072842" lon="-105.230575">
  <ele>1586.09</ele>
  <time>2026-08-27T18:28:24Z</time>
  <course>11.96</course>
  <speed>0.022360679774997897</speed>
  <fix>3d</fix>
</trkpt>
<trkpt lat="40.072842" lon="-105.230575">
  <ele>1586.09</ele>
  <time>2026-08-27T18:28:24Z</time>
  <course>266.03</course>
  <speed>0.0</speed>
  <fix>3d</fix>
</trkpt>
<trkpt lat="40.072842" lon="-105.230575">
  <ele>1586.09</ele>
  <time>2026-08-27T18:28:24Z</time>
  <course>11.95</course>
  <speed>0.022360679774997897</speed>
  <fix>3d</fix>
</trkpt>
<trkpt lat="40.072842" lon="-105.230575">
  <ele>1586.09</ele>
  <time>2026-08-27T18:28:24Z</time>
  <course>266.03</course>
  <speed>0.0</speed>
  <fix>3d</fix>
</trkpt>
<trkpt lat="40.072842" lon="-105.230575">
  <ele>1586.09</ele>
  <time>2026-08-27T18:28:24Z</time>
  <course>11.94</course>
  <speed>0.022360679774997897</speed>
  <fix>3d</fix>
</trkpt>
<trkpt lat="40.072842" lon="-105.230575">
  <ele>1586.09</ele>
  <time>2026-08-27T18:28:24Z</time>
  <course>266.03</course>
  <speed>0.0</speed>
  <fix>3d</fix>
</trkpt>
<trkpt lat="40.072842" lon="-105.230575">
  <ele>1586.09</ele>
  <time>2026-08-27T18:28:24Z</time>
  <course>11.93</course>
  <speed>0.022360679774997897</speed>
  <fix>3d</fix>
</trkpt>
<trkpt lat="40.072842" lon="-105.230575">
  <ele>1586.09</ele>
  <time>2026-08-27T18:28:24Z</time>
  <course>266.03</course>
  <speed>0.0</speed>
  <fix>3d</fix>
</trkpt>
<trkpt lat="40.072842" lon="-105.230575">
  <ele>1586.09</ele>
  <time>2026-08-27T18:28:24Z</time>
  <course>11.92</course>
  <speed>0.022360679774997897</speed>
  <fix>3d</fix>
</trkpt>
<trkpt lat="40.072842" lon="-105.230575">
  <ele>1586.09</ele>
  <time>2026-08-27T18:28:24Z</time>
  <course>266.03</course>
  <speed>0.0</speed>
  <fix>3d</fix>
</trkpt>
<trkpt lat="40.072842" lon="-105.230575">
  <ele>1586.09</ele>
  <time>2026-08-27T18:28:24Z</time>
  <course>11.91</course>
  <speed>0.022360679774997897</speed>
  <fix>3d</fix>
</trkpt>
<trkpt lat="40.072842" lon="-105.230575">
  <ele>1586.09</ele>
  <time>2026-08-27T18:28:24Z</time>
  <course>266.03</course>
  <speed>0.0</speed>
  <fix>3d</fix>
</trkpt>
<trkpt lat="40.072842" lon="-105.230575">
  <ele>1586.09</ele>
  <time>2026-08-27T18:28:24Z</time>
  <course>11.91</course>
  <speed>0.022360679774997897</speed>
  <fix>3d</fix>
</trkpt>
<trkpt lat="40.072842" lon="-105.230575">
  <ele>1586.09</ele>
  <time>2026-08-27T18:28:24Z</time>
  <course>266.03</course>
  <speed>0.0</speed>
  <fix>3d</fix>
</trkpt>
<trkpt lat="40.072842" lon="-105.230575">
  <ele>1586.09</ele>
  <time>2026-08-27T18:28:24Z</time>
  <course>11.9</course>
  <speed>0.022360679774997897</speed>
  <fix>3d</fix>
</trkpt>
<trkpt lat="40.072842" lon="-105.230575">
  <ele>1586.09</ele>
  <time>2026-08-27T18:28:24Z</time>
  <course>266.03</course>
  <speed>0.0</speed>
  <fix>3d</fix>
</trkpt>
<trkpt lat="40.072842" lon="-105.230575">
  <ele>1586.09</ele>
  <time>2026-08-27T18:28:24Z</time>
  <course>11.89</course>
  <speed>0.022360679774997897</speed>
  <fix>3d</fix>
</trkpt>
<trkpt lat="40.072842" lon="-105.230575">
  <ele>1586.09</ele>
  <time>2026-08-27T18:28:24Z</time>
  <course>266.03</course>
  <speed>0.0</speed>
  <fix>3d</fix>
</trkpt>
<trkpt lat="40.072842" lon="-105.230575">
  <ele>1586.09</ele>
  <time>2026-08-27T18:28:24Z</time>
  <course>11.88</course>
  <speed>0.022360679774997897</speed>
  <fix>3d</fix>
</trkpt>
<trkpt lat="40.072842" lon="-105.230575">
  <ele>1586.09</ele>
  <time>2026-08-27T18:28:24Z</time>
  <course>266.03</course>
  <speed>0.0</speed>
  <fix>3d</fix>
</trkpt>
<trkpt lat="40.072842" lon="-105.230575">
  <ele>1586.09</ele>
  <time>2026-08-27T18:28:24Z</time>
  <course>11.87</course>
  <speed>0.022360679774997897</speed>
  <fix>3d</fix>
</trkpt>
<trkpt lat="40.072842" lon="-105.230575">
  <ele>1586.09</ele>
  <time>2026-08-27T18:28:24Z</time>
  <course>266.03</course>
  <speed>0.0</speed>
  <fix>3d</fix>
</trkpt>
<trkpt lat="40.072842" lon="-105.230575">
  <ele>1586.09</ele>
  <time>2026-08-27T18:28:24Z</time>
  <course>11.86</course>
  <speed>0.022360679774997897</speed>
  <fix>3d</fix>
</trkpt>
<trkpt lat="40.072842" lon="-105.230575">
  <ele>1586.09</ele>
  <time>2026-08-27T18:28:24Z</time>
  <course>266.03</course>
  <speed>0.0</speed>
  <fix>3d</fix>
</trkpt>
<trkpt lat="40.072842" lon="-105.230575">
  <ele>1586.09</ele>
  <time>2026-08-27T18:28:24Z</time>
  <course>11.86</course>
  <speed>0.022360679774997897</speed>
  <fix>3d</fix>
</trkpt>
<trkpt lat="40.072842" lon="-105.230575">
  <ele>1586.09</ele>
  <time>2026-08-27T18:28:24Z</time>
  <course>266.03</course>
  <speed>0.0</speed>
  <fix>3d</fix>
</trkpt>
<trkpt lat="40.072842" lon="-105.230575">
  <ele>1586.09</ele>
  <time>2026-08-27T18:28:24Z</time>
  <course>11.85</course>
  <speed>0.0282842712474619</speed>
  <fix>3d</fix>
</trkpt>
<trkpt lat="40.072842" lon="-105.230575">
  <ele>1586.09</ele>
  <time>2026-08-27T18:28:24Z</time>
  <course>266.03</course>
  <speed>0.0</speed>
  <fix>3d</fix>
</trkpt>
<trkpt lat="40.072842" lon="-105.230575">
  <ele>1586.09</ele>
  <time>2026-08-27T18:28:24Z</time>
  <course>11.84</course>
  <speed>0.0282842712474619</speed>
  <fix>3d</fix>
</trkpt>
<trkpt lat="40.072842" lon="-105.230575">
  <ele>1586.09</ele>
  <time>2026-08-27T18:28:24Z</time>
  <course>266.03</course>
  <speed>0.0</speed>
  <fix>3d</fix>
</trkpt>
<trkpt lat="40.072842" lon="-105.230575">
  <ele>1586.09</ele>
  <time>2026-08-27T18:28:24Z</time>
  <course>11.83</course>
  <speed>0.0282842712474619</speed>
  <fix>3d</fix>
</trkpt>
<trkpt lat="40.072842" lon="-105.230575">
  <ele>1586.09</ele>
  <time>2026-08-27T18:28:24Z</time>
  <course>266.03</course>
  <speed>0.0</speed>
  <fix>3d</fix>
</trkpt>
<trkpt lat="40.072842" lon="-105.230575">
  <ele>1586.09</ele>
  <time>2026-08-27T18:28:24Z</time>
  <course>11.82</course>
  <speed>0.0282842712474619</speed>
  <fix>3d</fix>
</trkpt>
<trkpt lat="40.072842" lon="-105.230575">
  <ele>1586.09</ele>
  <time>2026-08-27T18:28:24Z</time>
  <course>266.03</course>
  <speed>0.0</speed>
  <fix>3d</fix>
</trkpt>
<trkpt lat="40.072842" lon="-105.230575">
  <ele>1586.09</ele>
  <time>2026-08-27T18:28:24Z</time>
  <course>11.82</course>
  <speed>0.0282842712474619</speed>
  <fix>3d</fix>
</trkpt>
<trkpt lat="40.072842" lon="-105.230575">
  <ele>1586.09</ele>
  <time>2026-08-27T18:28:24Z</time>
  <course>266.03</course>
  <speed>0.0</speed>
  <fix>3d</fix>
</trkpt>
<trkpt lat="40.072842" lon="-105.230575">
  <ele>1586.09</ele>
  <time>2026-08-27T18:28:24Z</time>
  <course>11.81</course>
  <speed>0.0282842712474619</speed>
  <fix>3d</fix>
</trkpt>
<trkpt lat="40.072842" lon="-105.230575">
  <ele>1586.09</ele>
  <time>2026-08-27T18:28:24Z</time>
  <course>266.03</course>
  <speed>0.0</speed>
  <fix>3d</fix>
</trkpt>
<trkpt lat="40.072842" lon="-105.230575">
  <ele>1586.09</ele>
  <time>2026-08-27T18:28:24Z</time>
  <course>11.8</course>
  <speed>0.0282842712474619</speed>
  <fix>3d</fix>
</trkpt>
<trkpt lat="40.072842" lon="-105.230575">
  <ele>1586.09</ele>
  <time>2026-08-27T18:28:24Z</time>
  <course>266.03</course>
  <speed>0.0</speed>
  <fix>3d</fix>
</trkpt>
<trkpt lat="40.072842" lon="-105.230575">
  <ele>1586.09</ele>
  <time>2026-08-27T18:28:24Z</time>
  <course>11.79</course>
  <speed>0.0282842712474619</speed>
  <fix>3d</fix>
</trkpt>
<trkpt lat="40.072842" lon="-105.230575">
  <ele>1586.09</ele>
  <time>2026-08-27T18:28:24Z</time>
  <course>266.03</course>
  <speed>0.0</speed>
  <fix>3d</fix>
</trkpt>
<trkpt lat="40.072842" lon="-105.230575">
  <ele>1586.09</ele>
  <time>2026-08-27T18:28:24Z</time>
  <course>11.78</course>
  <speed>0.0282842712474619</speed>
  <fix>3d</fix>
</trkpt>
<trkpt lat="40.072842" lon="-105.230575">
  <ele>1586.09</ele>
  <time>2026-08-27T18:28:24Z</time>
  <course>266.03</course>
  <speed>0.0</speed>
  <fix>3d</fix>
</trkpt>
<trkpt lat="40.072842" lon="-105.230575">
  <ele>1586.09</ele>
  <time>2026-08-27T18:28:24Z</time>
  <course>11.78</course>
  <speed>0.0282842712474619</speed>
  <fix>3d</fix>
</trkpt>
<trkpt lat="40.072842" lon="-105.230575">
  <ele>1586.09</ele>
  <time>2026-08-27T18:28:24Z</time>
  <course>266.03</course>
  <speed>0.0</speed>
  <fix>3d</fix>
</trkpt>
<trkpt lat="40.072842" lon="-105.230575">
  <ele>1586.09</ele>
  <time>2026-08-27T18:28:24Z</time>
  <course>11.77</course>
  <speed>0.0282842712474619</speed>
  <fix>3d</fix>
</trkpt>
<trkpt lat="40.072842" lon="-105.230575">
  <ele>1586.09</ele>
  <time>2026-08-27T18:28:24Z</time>
  <course>266.03</course>
  <speed>0.0</speed>
  <fix>3d</fix>
</trkpt>
<trkpt lat="40.072842" lon="-105.230575">
  <ele>1586.09</ele>
  <time>2026-08-27T18:28:24Z</time>
  <course>11.76</course>
  <speed>0.0282842712474619</speed>
  <fix>3d</fix>
</trkpt>
<trkpt lat="40.072842" lon="-105.230575">
  <ele>1586.09</ele>
  <time>2026-08-27T18:28:24Z</time>
  <course>266.03</course>
  <speed>0.0</speed>
  <fix>3d</fix>
</trkpt>
<trkpt lat="40.072842" lon="-105.230575">
  <ele>1586.09</ele>
  <time>2026-08-27T18:28:24Z</time>
  <course>11.76</course>
  <speed>0.0282842712474619</speed>
  <fix>3d</fix>
</trkpt>
<trkpt lat="40.072842" lon="-105.230575">
  <ele>1586.09</ele>
  <time>2026-08-27T18:28:24Z</time>
  <course>266.03</course>
  <speed>0.0</speed>
  <fix>3d</fix>
</trkpt>
<trkpt lat="40.072842" lon="-105.230575">
  <ele>1586.09</ele>
  <time>2026-08-27T18:28:24Z</time>
  <course>11.75</course>
  <speed>0.03605551275463989</speed>
  <fix>3d</fix>
</trkpt>
<trkpt lat="40.072842" lon="-105.230575">
  <ele>1586.09</ele>
  <time>2026-08-27T18:28:24Z</time>
  <course>266.03</course>
  <speed>0.0</speed>
  <fix>3d</fix>
</trkpt>
<trkpt lat="40.072842" lon="-105.230575">
  <ele>1586.09</ele>
  <time>2026-08-27T18:28:24Z</time>
  <course>11.74</course>
  <speed>0.03605551275463989</speed>
  <fix>3d</fix>
</trkpt>
<trkpt lat="40.072842" lon="-105.230575">
  <ele>1586.09</ele>
  <time>2026-08-27T18:28:24Z</time>
  <course>266.03</course>
  <speed>0.0</speed>
  <fix>3d</fix>
</trkpt>
<trkpt lat="40.072842" lon="-105.230575">
  <ele>1586.09</ele>
  <time>2026-08-27T18:28:24Z</time>
  <course>11.73</course>
  <speed>0.03605551275463989</speed>
  <fix>3d</fix>
</trkpt>
<trkpt lat="40.072842" lon="-105.230575">
  <ele>1586.09</ele>
  <time>2026-08-27T18:28:24Z</time>
  <course>266.03</course>
  <speed>0.0</speed>
  <fix>3d</fix>
</trkpt>
<trkpt lat="40.072842" lon="-105.230575">
  <ele>1586.09</ele>
  <time>2026-08-27T18:28:24Z</time>
  <course>11.72</course>
  <speed>0.03605551275463989</speed>
  <fix>3d</fix>
</trkpt>
<trkpt lat="40.072842" lon="-105.230575">
  <ele>1586.09</ele>
  <time>2026-08-27T18:28:24Z</time>
  <course>266.03</course>
  <speed>0.0</speed>
  <fix>3d</fix>
</trkpt>
<trkpt lat="40.072842" lon="-105.230575">
  <ele>1586.09</ele>
  <time>2026-08-27T18:28:24Z</time>
  <course>11.72</course>
  <speed>0.03605551275463989</speed>
  <fix>3d</fix>
</trkpt>
<trkpt lat="40.072842" lon="-105.230575">
  <ele>1586.09</ele>
  <time>2026-08-27T18:28:24Z</time>
  <course>266.03</course>
  <speed>0.0</speed>
  <fix>3d</fix>
</trkpt>
<trkpt lat="40.072842" lon="-105.230575">
  <ele>1586.09</ele>
  <time>2026-08-27T18:28:24Z</time>
  <course>11.71</course>
  <speed>0.03605551275463989</speed>
  <fix>3d</fix>
</trkpt>
<trkpt lat="40.072842" lon="-105.230575">
  <ele>1586.09</ele>
  <time>2026-08-27T18:28:24Z</time>
  <course>266.03</course>
  <speed>0.0</speed>
  <fix>3d</fix>
</trkpt>
<trkpt lat="40.072842" lon="-105.230575">
  <ele>1586.09</ele>
  <time>2026-08-27T18:28:24Z</time>
  <course>11.7</course>
  <speed>0.03605551275463989</speed>
  <fix>3d</fix>
</trkpt>
<trkpt lat="40.072842" lon="-105.230575">
  <ele>1586.09</ele>
  <time>2026-08-27T18:28:24Z</time>
  <course>266.03</course>
  <speed>0.0</speed>
  <fix>3d</fix>
</trkpt>
<trkpt lat="40.072842" lon="-105.230575">
  <ele>1586.09</ele>
  <time>2026-08-27T18:28:24Z</time>
  <course>11.7</course>
  <speed>0.03605551275463989</speed>
  <fix>3d</fix>
</trkpt>
<trkpt lat="40.072842" lon="-105.230575">
  <ele>1586.09</ele>
  <time>2026-08-27T18:28:24Z</time>
  <course>266.03</course>
  <speed>0.0</speed>
  <fix>3d</fix>
</trkpt>
<trkpt lat="40.072842" lon="-105.230575">
  <ele>1586.09</ele>
  <time>2026-08-27T18:28:24Z</time>
  <course>11.69</course>
  <speed>0.03605551275463989</speed>
  <fix>3d</fix>
</trkpt>
<trkpt lat="40.072842" lon="-105.230575">
  <ele>1586.09</ele>
  <time>2026-08-27T18:28:24Z</time>
  <course>266.03</course>
  <speed>0.0</speed>
  <fix>3d</fix>
</trkpt>
<trkpt lat="40.072842" lon="-105.230575">
  <ele>1586.09</ele>
  <time>2026-08-27T18:28:24Z</time>
  <course>11.68</course>
  <speed>0.03605551275463989</speed>
  <fix>3d</fix>
</trkpt>
<trkpt lat="40.072842" lon="-105.230575">
  <ele>1586.09</ele>
  <time>2026-08-27T18:28:24Z</time>
  <course>266.03</course>
  <speed>0.0</speed>
  <fix>3d</fix>
</trkpt>
<trkpt lat="40.072842" lon="-105.230575">
  <ele>1586.09</ele>
  <time>2026-08-27T18:28:24Z</time>
  <course>11.67</course>
  <speed>0.03605551275463989</speed>
  <fix>3d</fix>
</trkpt>
<trkpt lat="40.072842" lon="-105.230575">
  <ele>1586.09</ele>
  <time>2026-08-27T18:28:24Z</time>
  <course>266.03</course>
  <speed>0.0</speed>
  <fix>3d</fix>
</trkpt>
<trkpt lat="40.072842" lon="-105.230575">
  <ele>1586.09</ele>
  <time>2026-08-27T18:28:24Z</time>
  <course>11.67</course>
  <speed>0.03605551275463989</speed>
  <fix>3d</fix>
</trkpt>
<trkpt lat="40.072842" lon="-105.230575">
  <ele>1586.09</ele>
  <time>2026-08-27T18:28:24Z</time>
  <course>266.03</course>
  <speed>0.0</speed>
  <fix>3d</fix>
</trkpt>
<trkpt lat="40.072842" lon="-105.230575">
  <ele>1586.09</ele>
  <time>2026-08-27T18:28:24Z</time>
  <course>11.66</course>
  <speed>0.03605551275463989</speed>
  <fix>3d</fix>
</trkpt>
<trkpt lat="40.072842" lon="-105.230575">
  <ele>1586.09</ele>
  <time>2026-08-27T18:28:24Z</time>
  <course>266.03</course>
  <speed>0.0</speed>
  <fix>3d</fix>
</trkpt>
<trkpt lat="40.072842" lon="-105.230575">
  <ele>1586.09</ele>
  <time>2026-08-27T18:28:24Z</time>
  <course>11.65</course>
  <speed>0.03605551275463989</speed>
  <fix>3d</fix>
</trkpt>
<trkpt lat="40.072842" lon="-105.230575">
  <ele>1586.09</ele>
  <time>2026-08-27T18:28:24Z</time>
  <course>266.03</course>
  <speed>0.0</speed>
  <fix>3d</fix>
</trkpt>
<trkpt lat="40.072842" lon="-105.230575">
  <ele>1586.09</ele>
  <time>2026-08-27T18:28:24Z</time>
  <course>11.65</course>
  <speed>0.03605551275463989</speed>
  <fix>3d</fix>
</trkpt>
<trkpt lat="40.072842" lon="-105.230575">
  <ele>1586.09</ele>
  <time>2026-08-27T18:28:24Z</time>
  <course>266.03</course>
  <speed>0.0</speed>
  <fix>3d</fix>
</trkpt>
<trkpt lat="40.072842" lon="-105.230575">
  <ele>1586.09</ele>
  <time>2026-08-27T18:28:24Z</time>
  <course>11.64</course>
  <speed>0.03605551275463989</speed>
  <fix>3d</fix>
</trkpt>
<trkpt lat="40.072842" lon="-105.230575">
  <ele>1586.09</ele>
  <time>2026-08-27T18:28:24Z</time>
  <course>266.03</course>
  <speed>0.0</speed>
  <fix>3d</fix>
</trkpt>
<trkpt lat="40.072842" lon="-105.230575">
  <ele>1586.09</ele>
  <time>2026-08-27T18:28:24Z</time>
  <course>11.63</course>
  <speed>0.03605551275463989</speed>
  <fix>3d</fix>
</trkpt>
<trkpt lat="40.072842" lon="-105.230575">
  <ele>1586.09</ele>
  <time>2026-08-27T18:28:24Z</time>
  <course>266.03</course>
  <speed>0.0</speed>
  <fix>3d</fix>
</trkpt>
<trkpt lat="40.072842" lon="-105.230575">
  <ele>1586.09</ele>
  <time>2026-08-27T18:28:24Z</time>
  <course>11.63</course>
  <speed>0.03605551275463989</speed>
  <fix>3d</fix>
</trkpt>
<trkpt lat="40.072842" lon="-105.230575">
  <ele>1586.09</ele>
  <time>2026-08-27T18:28:24Z</time>
  <course>266.03</course>
  <speed>0.0</speed>
  <fix>3d</fix>
</trkpt>
<trkpt lat="40.072842" lon="-105.230575">
  <ele>1586.09</ele>
  <time>2026-08-27T18:28:24Z</time>
  <course>11.62</course>
  <speed>0.03605551275463989</speed>
  <fix>3d</fix>
</trkpt>
<trkpt lat="40.072842" lon="-105.230575">
  <ele>1586.09</ele>
  <time>2026-08-27T18:28:24Z</time>
  <course>266.03</course>
  <speed>0.0</speed>
  <fix>3d</fix>
</trkpt>
<trkpt lat="40.072842" lon="-105.230575">
  <ele>1586.09</ele>
  <time>2026-08-27T18:28:24Z</time>
  <course>11.61</course>
  <speed>0.03605551275463989</speed>
  <fix>3d</fix>
</trkpt>
<trkpt lat="40.072842" lon="-105.230575">
  <ele>1586.09</ele>
  <time>2026-08-27T18:28:24Z</time>
  <course>266.03</course>
  <speed>0.0</speed>
  <fix>3d</fix>
</trkpt>
<trkpt lat="40.072842" lon="-105.230575">
  <ele>1586.09</ele>
  <time>2026-08-27T18:28:24Z</time>
  <course>11.61</course>
  <speed>0.03605551275463989</speed>
  <fix>3d</fix>
</trkpt>
<trkpt lat="40.072842" lon="-105.230575">
  <ele>1586.09</ele>
  <time>2026-08-27T18:28:24Z</time>
  <course>266.03</course>
  <speed>0.0</speed>
  <fix>3d</fix>
</trkpt>
<trkpt lat="40.072842" lon="-105.230575">
  <ele>1586.09</ele>
  <time>2026-08-27T18:28:24Z</time>
  <course>11.6</course>
  <speed>0.03605551275463989</speed>
  <fix>3d</fix>
</trkpt>
<trkpt lat="40.072842" lon="-105.230575">
  <ele>1586.09</ele>
  <time>2026-08-27T18:28:24Z</time>
  <course>266.03</course>
  <speed>0.0</speed>
  <fix>3d</fix>
</trkpt>
<trkpt lat="40.072842" lon="-105.230575">
  <ele>1586.09</ele>
  <time>2026-08-27T18:28:24Z</time>
  <course>11.59</course>
  <speed>0.03605551275463989</speed>
  <fix>3d</fix>
</trkpt>
<trkpt lat="40.072842" lon="-105.230575">
  <ele>1586.09</ele>
  <time>2026-08-27T18:28:24Z</time>
  <course>266.03</course>
  <speed>0.0</speed>
  <fix>3d</fix>
</trkpt>
<trkpt lat="40.072842" lon="-105.230575">
  <ele>1586.09</ele>
  <time>2026-08-27T18:28:24Z</time>
  <course>11.59</course>
  <speed>0.03605551275463989</speed>
  <fix>3d</fix>
</trkpt>
<trkpt lat="40.072842" lon="-105.230575">
  <ele>1586.09</ele>
  <time>2026-08-27T18:28:24Z</time>
  <course>266.03</course>
  <speed>0.0</speed>
  <fix>3d</fix>
</trkpt>
<trkpt lat="40.072842" lon="-105.230575">
  <ele>1586.09</ele>
  <time>2026-08-27T18:28:24Z</time>
  <course>11.58</course>
  <speed>0.03605551275463989</speed>
  <fix>3d</fix>
</trkpt>
<trkpt lat="40.072842" lon="-105.230575">
  <ele>1586.09</ele>
  <time>2026-08-27T18:28:24Z</time>
  <course>266.03</course>
  <speed>0.0</speed>
  <fix>3d</fix>
</trkpt>
<trkpt lat="40.072842" lon="-105.230575">
  <ele>1586.09</ele>
  <time>2026-08-27T18:28:24Z</time>
  <course>11.58</course>
  <speed>0.03605551275463989</speed>
  <fix>3d</fix>
</trkpt>
<trkpt lat="40.072842" lon="-105.230575">
  <ele>1586.09</ele>
  <time>2026-08-27T18:28:24Z</time>
  <course>266.03</course>
  <speed>0.0</speed>
  <fix>3d</fix>
</trkpt>
<trkpt lat="40.072842" lon="-105.230575">
  <ele>1586.09</ele>
  <time>2026-08-27T18:28:24Z</time>
  <course>11.57</course>
  <speed>0.03605551275463989</speed>
  <fix>3d</fix>
</trkpt>
<trkpt lat="40.072842" lon="-105.230575">
  <ele>1586.09</ele>
  <time>2026-08-27T18:28:24Z</time>
  <course>266.03</course>
  <speed>0.0</speed>
  <fix>3d</fix>
</trkpt>
<trkpt lat="40.072842" lon="-105.230575">
  <ele>1586.09</ele>
  <time>2026-08-27T18:28:24Z</time>
  <course>11.56</course>
  <speed>0.03605551275463989</speed>
  <fix>3d</fix>
</trkpt>
<trkpt lat="40.072842" lon="-105.230575">
  <ele>1586.09</ele>
  <time>2026-08-27T18:28:24Z</time>
  <course>266.03</course>
  <speed>0.0</speed>
  <fix>3d</fix>
</trkpt>
<trkpt lat="40.072842" lon="-105.230575">
  <ele>1586.09</ele>
  <time>2026-08-27T18:28:24Z</time>
  <course>11.56</course>
  <speed>0.03605551275463989</speed>
  <fix>3d</fix>
</trkpt>
<trkpt lat="40.072842" lon="-105.230575">
  <ele>1586.09</ele>
  <time>2026-08-27T18:28:24Z</time>
  <course>266.03</course>
  <speed>0.0</speed>
  <fix>3d</fix>
</trkpt>
<trkpt lat="40.072842" lon="-105.230575">
  <ele>1586.09</ele>
  <time>2026-08-27T18:28:24Z</time>
  <course>11.55</course>
  <speed>0.03605551275463989</speed>
  <fix>3d</fix>
</trkpt>
<trkpt lat="40.072842" lon="-105.230575">
  <ele>1586.09</ele>
  <time>2026-08-27T18:28:24Z</time>
  <course>266.03</course>
  <speed>0.0</speed>
  <fix>3d</fix>
</trkpt>
<trkpt lat="40.072842" lon="-105.230575">
  <ele>1586.09</ele>
  <time>2026-08-27T18:28:24Z</time>
  <course>11.54</course>
  <speed>0.03605551275463989</speed>
  <fix>3d</fix>
</trkpt>
<trkpt lat="40.072842" lon="-105.230575">
  <ele>1586.09</ele>
  <time>2026-08-27T18:28:24Z</time>
  <course>266.03</course>
  <speed>0.0</speed>
  <fix>3d</fix>
</trkpt>
<trkpt lat="40.072842" lon="-105.230575">
  <ele>1586.09</ele>
  <time>2026-08-27T18:28:24Z</time>
  <course>11.54</course>
  <speed>0.03605551275463989</speed>
  <fix>3d</fix>
</trkpt>
<trkpt lat="40.072842" lon="-105.230575">
  <ele>1586.09</ele>
  <time>2026-08-27T18:28:24Z</time>
  <course>266.03</course>
  <speed>0.0</speed>
  <fix>3d</fix>
</trkpt>
<trkpt lat="40.072842" lon="-105.230575">
  <ele>1586.09</ele>
  <time>2026-08-27T18:28:24Z</time>
  <course>11.53</course>
  <speed>0.03605551275463989</speed>
  <fix>3d</fix>
</trkpt>
<trkpt lat="40.072842" lon="-105.230575">
  <ele>1586.09</ele>
  <time>2026-08-27T18:28:24Z</time>
  <course>266.03</course>
  <speed>0.0</speed>
  <fix>3d</fix>
</trkpt>
<trkpt lat="40.072842" lon="-105.230575">
  <ele>1586.09</ele>
  <time>2026-08-27T18:28:24Z</time>
  <course>11.53</course>
  <speed>0.03605551275463989</speed>
  <fix>3d</fix>
</trkpt>
<trkpt lat="40.072842" lon="-105.230575">
  <ele>1586.09</ele>
  <time>2026-08-27T18:28:24Z</time>
  <course>266.03</course>
  <speed>0.0</speed>
  <fix>3d</fix>
</trkpt>
<trkpt lat="40.072842" lon="-105.230575">
  <ele>1586.09</ele>
  <time>2026-08-27T18:28:24Z</time>
  <course>11.52</course>
  <speed>0.03605551275463989</speed>
  <fix>3d</fix>
</trkpt>
<trkpt lat="40.072842" lon="-105.230575">
  <ele>1586.09</ele>
  <time>2026-08-27T18:28:24Z</time>
  <course>266.03</course>
  <speed>0.0</speed>
  <fix>3d</fix>
</trkpt>
<trkpt lat="40.072842" lon="-105.230575">
  <ele>1586.09</ele>
  <time>2026-08-27T18:28:24Z</time>
  <course>11.51</course>
  <speed>0.03605551275463989</speed>
  <fix>3d</fix>
</trkpt>
<trkpt lat="40.072842" lon="-105.230575">
  <ele>1586.09</ele>
  <time>2026-08-27T18:28:24Z</time>
  <course>266.03</course>
  <speed>0.0</speed>
  <fix>3d</fix>
</trkpt>
<trkpt lat="40.072842" lon="-105.230575">
  <ele>1586.09</ele>
  <time>2026-08-27T18:28:24Z</time>
  <course>11.51</course>
  <speed>0.03605551275463989</speed>
  <fix>3d</fix>
</trkpt>
<trkpt lat="40.072842" lon="-105.230575">
  <ele>1586.09</ele>
  <time>2026-08-27T18:28:24Z</time>
  <course>266.03</course>
  <speed>0.0</speed>
  <fix>3d</fix>
</trkpt>
<trkpt lat="40.072842" lon="-105.230575">
  <ele>1586.09</ele>
  <time>2026-08-27T18:28:24Z</time>
  <course>11.5</course>
  <speed>0.044721359549995794</speed>
  <fix>3d</fix>
</trkpt>
<trkpt lat="40.072842" lon="-105.230575">
  <ele>1586.09</ele>
  <time>2026-08-27T18:28:24Z</time>
  <course>266.03</course>
  <speed>0.0</speed>
  <fix>3d</fix>
</trkpt>
<trkpt lat="40.072842" lon="-105.230575">
  <ele>1586.09</ele>
  <time>2026-08-27T18:28:24Z</time>
  <course>11.5</course>
  <speed>0.044721359549995794</speed>
  <fix>3d</fix>
</trkpt>
<trkpt lat="40.072842" lon="-105.230575">
  <ele>1586.09</ele>
  <time>2026-08-27T18:28:24Z</time>
  <course>266.03</course>
  <speed>0.0</speed>
  <fix>3d</fix>
</trkpt>
<trkpt lat="40.072842" lon="-105.230575">
  <ele>1586.09</ele>
  <time>2026-08-27T18:28:24Z</time>
  <course>11.49</course>
  <speed>0.044721359549995794</speed>
  <fix>3d</fix>
</trkpt>
<trkpt lat="40.072842" lon="-105.230575">
  <ele>1586.09</ele>
  <time>2026-08-27T18:28:24Z</time>
  <course>266.03</course>
  <speed>0.0</speed>
  <fix>3d</fix>
</trkpt>
<trkpt lat="40.072842" lon="-105.230575">
  <ele>1586.09</ele>
  <time>2026-08-27T18:28:24Z</time>
  <course>11.49</course>
  <speed>0.044721359549995794</speed>
  <fix>3d</fix>
</trkpt>
<trkpt lat="40.072842" lon="-105.230575">
  <ele>1586.09</ele>
  <time>2026-08-27T18:28:24Z</time>
  <course>266.03</course>
  <speed>0.0</speed>
  <fix>3d</fix>
</trkpt>
<trkpt lat="40.072842" lon="-105.230575">
  <ele>1586.09</ele>
  <time>2026-08-27T18:28:24Z</time>
  <course>11.48</course>
  <speed>0.044721359549995794</speed>
  <fix>3d</fix>
</trkpt>
<trkpt lat="40.072842" lon="-105.230575">
  <ele>1586.09</ele>
  <time>2026-08-27T18:28:24Z</time>
  <course>266.03</course>
  <speed>0.0</speed>
  <fix>3d</fix>
</trkpt>
<trkpt lat="40.072842" lon="-105.230575">
  <ele>1586.09</ele>
  <time>2026-08-27T18:28:24Z</time>
  <course>11.48</course>
  <speed>0.044721359549995794</speed>
  <fix>3d</fix>
</trkpt>
<trkpt lat="40.072842" lon="-105.230575">
  <ele>1586.09</ele>
  <time>2026-08-27T18:28:24Z</time>
  <course>266.03</course>
  <speed>0.0</speed>
  <fix>3d</fix>
</trkpt>
<trkpt lat="40.072842" lon="-105.230575">
  <ele>1586.09</ele>
  <time>2026-08-27T18:28:24Z</time>
  <course>11.47</course>
  <speed>0.044721359549995794</speed>
  <fix>3d</fix>
</trkpt>
<trkpt lat="40.072842" lon="-105.230575">
  <ele>1586.09</ele>
  <time>2026-08-27T18:28:24Z</time>
  <course>266.03</course>
  <speed>0.0</speed>
  <fix>3d</fix>
</trkpt>
<trkpt lat="40.072842" lon="-105.230575">
  <ele>1586.09</ele>
  <time>2026-08-27T18:28:24Z</time>
  <course>11.47</course>
  <speed>0.044721359549995794</speed>
  <fix>3d</fix>
</trkpt>
<trkpt lat="40.072842" lon="-105.230575">
  <ele>1586.09</ele>
  <time>2026-08-27T18:28:24Z</time>
  <course>266.03</course>
  <speed>0.0</speed>
  <fix>3d</fix>
</trkpt>
<trkpt lat="40.072842" lon="-105.230575">
  <ele>1586.09</ele>
  <time>2026-08-27T18:28:24Z</time>
  <course>11.46</course>
  <speed>0.044721359549995794</speed>
  <fix>3d</fix>
</trkpt>
<trkpt lat="40.072842" lon="-105.230575">
  <ele>1586.09</ele>
  <time>2026-08-27T18:28:24Z</time>
  <course>266.03</course>
  <speed>0.0</speed>
  <fix>3d</fix>
</trkpt>
<trkpt lat="40.072842" lon="-105.230575">
  <ele>1586.09</ele>
  <time>2026-08-27T18:28:24Z</time>
  <course>11.46</course>
  <speed>0.044721359549995794</speed>
  <fix>3d</fix>
</trkpt>
<trkpt lat="40.072842" lon="-105.230575">
  <ele>1586.09</ele>
  <time>2026-08-27T18:28:24Z</time>
  <course>266.03</course>
  <speed>0.0</speed>
  <fix>3d</fix>
</trkpt>
<trkpt lat="40.072842" lon="-105.230575">
  <ele>1586.16</ele>
  <time>2026-08-27T18:28:24Z</time>
  <course>11.45</course>
  <speed>0.0</speed>
  <fix>3d</fix>
</trkpt>
<trkpt lat="40.072842" lon="-105.230575">
  <ele>1586.09</ele>
  <time>2026-08-27T18:28:24Z</time>
  <course>297.19</course>
  <speed>0.0</speed>
  <fix>3d</fix>
</trkpt>
<trkpt lat="40.072842" lon="-105.230575">
  <ele>1586.16</ele>
  <time>2026-08-27T18:28:24Z</time>
  <course>11.45</course>
  <speed>0.0</speed>
  <fix>3d</fix>
</trkpt>
<trkpt lat="40.072842" lon="-105.230575">
  <ele>1586.09</ele>
  <time>2026-08-27T18:28:24Z</time>
  <course>269.87</course>
  <speed>0.0</speed>
  <fix>3d</fix>
</trkpt>
<trkpt lat="40.072842" lon="-105.230575">
  <ele>1586.16</ele>
  <time>2026-08-27T18:28:24Z</time>
  <course>11.44</course>
  <speed>0.0</speed>
  <fix>3d</fix>
</trkpt>
<trkpt lat="40.072842" lon="-105.230575">
  <ele>1586.09</ele>
  <time>2026-08-27T18:28:24Z</time>
  <course>241.23</course>
  <speed>0.0</speed>
  <fix>3d</fix>
</trkpt>
<trkpt lat="40.072842" lon="-105.230575">
  <ele>1586.16</ele>
  <time>2026-08-27T18:28:24Z</time>
  <course>11.44</course>
  <speed>0.0</speed>
  <fix>3d</fix>
</trkpt>
<trkpt lat="40.072842" lon="-105.230575">
  <ele>1586.09</ele>
  <time>2026-08-27T18:28:24Z</time>
  <course>93.08</course>
  <speed>0.0</speed>
  <fix>3d</fix>
</trkpt>
<trkpt lat="40.072842" lon="-105.230575">
  <ele>1586.17</ele>
  <time>2026-08-27T18:28:24Z</time>
  <course>11.43</course>
  <speed>0.0</speed>
  <fix>3d</fix>
</trkpt>
<trkpt lat="40.072842" lon="-105.230575">
  <ele>1586.09</ele>
  <time>2026-08-27T18:28:24Z</time>
  <course>317.31</course>
  <speed>0.0</speed>
  <fix>3d</fix>
</trkpt>
<trkpt lat="40.072842" lon="-105.230575">
  <ele>1586.17</ele>
  <time>2026-08-27T18:28:24Z</time>
  <course>11.43</course>
  <speed>0.01</speed>
  <fix>3d</fix>
</trkpt>
<trkpt lat="40.072842" lon="-105.230575">
  <ele>1586.09</ele>
  <time>2026-08-27T18:28:24Z</time>
  <course>265.24</course>
  <speed>0.0</speed>
  <fix>3d</fix>
</trkpt>
<trkpt lat="40.072842" lon="-105.230575">
  <ele>1586.17</ele>
  <time>2026-08-27T18:28:24Z</time>
  <course>11.43</course>
  <speed>0.01</speed>
  <fix>3d</fix>
</trkpt>
<trkpt lat="40.072842" lon="-105.230575">
  <ele>1586.09</ele>
  <time>2026-08-27T18:28:24Z</time>
  <course>261.76</course>
  <speed>0.0</speed>
  <fix>3d</fix>
</trkpt>
<trkpt lat="40.072842" lon="-105.230575">
  <ele>1586.17</ele>
  <time>2026-08-27T18:28:24Z</time>
  <course>11.42</course>
  <speed>0.01414213562373095</speed>
  <fix>3d</fix>
</trkpt>
<trkpt lat="40.072842" lon="-105.230575">
  <ele>1586.09</ele>
  <time>2026-08-27T18:28:24Z</time>
  <course>266.78</course>
  <speed>0.0</speed>
  <fix>3d</fix>
</trkpt>
<trkpt lat="40.072842" lon="-105.230575">
  <ele>1586.17</ele>
  <time>2026-08-27T18:28:24Z</time>
  <course>11.42</course>
  <speed>0.01414213562373095</speed>
  <fix>3d</fix>
</trkpt>
<trkpt lat="40.072842" lon="-105.230575">
  <ele>1586.09</ele>
  <time>2026-08-27T18:28:24Z</time>
  <course>266.53</course>
  <speed>0.0</speed>
  <fix>3d</fix>
</trkpt>
<trkpt lat="40.072842" lon="-105.230575">
  <ele>1586.17</ele>
  <time>2026-08-27T18:28:24Z</time>
  <course>11.41</course>
  <speed>0.01414213562373095</speed>
  <fix>3d</fix>
</trkpt>
<trkpt lat="40.072842" lon="-105.230575">
  <ele>1586.09</ele>
  <time>2026-08-27T18:28:24Z</time>
  <course>265.88</course>
  <speed>0.0</speed>
  <fix>3d</fix>
</trkpt>
<trkpt lat="40.072842" lon="-105.230575">
  <ele>1586.17</ele>
  <time>2026-08-27T18:28:24Z</time>
  <course>11.41</course>
  <speed>0.01414213562373095</speed>
  <fix>3d</fix>
</trkpt>
<trkpt lat="40.072842" lon="-105.230575">
  <ele>1586.09</ele>
  <time>2026-08-27T18:28:24Z</time>
  <course>265.99</course>
  <speed>0.0</speed>
  <fix>3d</fix>
</trkpt>
<trkpt lat="40.072842" lon="-105.230575">
  <ele>1586.17</ele>
  <time>2026-08-27T18:28:24Z</time>
  <course>11.41</course>
  <speed>0.022360679774997897</speed>
  <fix>3d</fix>
</trkpt>
<trkpt lat="40.072842" lon="-105.230575">
  <ele>1586.09</ele>
  <time>2026-08-27T18:28:24Z</time>
  <course>282.04</course>
  <speed>0.0</speed>
  <fix>3d</fix>
</trkpt>
<trkpt lat="40.072842" lon="-105.230575">
  <ele>1586.17</ele>
  <time>2026-08-27T18:28:24Z</time>
  <course>11.4</course>
  <speed>0.01414213562373095</speed>
  <fix>3d</fix>
</trkpt>
<trkpt lat="40.072842" lon="-105.230575">
  <ele>1586.09</ele>
  <time>2026-08-27T18:28:24Z</time>
  <course>275.64</course>
  <speed>0.0</speed>
  <fix>3d</fix>
</trkpt>
<trkpt lat="40.072842" lon="-105.230575">
  <ele>1586.17</ele>
  <time>2026-08-27T18:28:24Z</time>
  <course>11.4</course>
  <speed>0.01414213562373095</speed>
  <fix>3d</fix>
</trkpt>
<trkpt lat="40.072842" lon="-105.230575">
  <ele>1586.09</ele>
  <time>2026-08-27T18:28:24Z</time>
  <course>260.45</course>
  <speed>0.0</speed>
  <fix>3d</fix>
</trkpt>
<trkpt lat="40.072842" lon="-105.230575">
  <ele>1586.17</ele>
  <time>2026-08-27T18:28:24Z</time>
  <course>11.39</course>
  <speed>0.01414213562373095</speed>
  <fix>3d</fix>
</trkpt>
<trkpt lat="40.072842" lon="-105.230575">
  <ele>1586.09</ele>
  <time>2026-08-27T18:28:24Z</time>
  <course>265.46</course>
  <speed>0.0</speed>
  <fix>3d</fix>
</trkpt>
<trkpt lat="40.072842" lon="-105.230575">
  <ele>1586.17</ele>
  <time>2026-08-27T18:28:24Z</time>
  <course>11.39</course>
  <speed>0.01</speed>
  <fix>3d</fix>
</trkpt>
<trkpt lat="40.072842" lon="-105.230575">
  <ele>1586.09</ele>
  <time>2026-08-27T18:28:24Z</time>
  <course>266.96</course>
  <speed>0.0</speed>
  <fix>3d</fix>
</trkpt>
<trkpt lat="40.072842" lon="-105.230575">
  <ele>1586.17</ele>
  <time>2026-08-27T18:28:24Z</time>
  <course>11.39</course>
  <speed>0.0</speed>
  <fix>3d</fix>
</trkpt>
<trkpt lat="40.072842" lon="-105.230575">
  <ele>1586.09</ele>
  <time>2026-08-27T18:28:24Z</time>
  <course>266.0</course>
  <speed>0.0</speed>
  <fix>3d</fix>
</trkpt>
<trkpt lat="40.072842" lon="-105.230575">
  <ele>1586.17</ele>
  <time>2026-08-27T18:28:24Z</time>
  <course>11.38</course>
  <speed>0.0</speed>
  <fix>3d</fix>
</trkpt>
<trkpt lat="40.072842" lon="-105.230575">
  <ele>1586.09</ele>
  <time>2026-08-27T18:28:24Z</time>
  <course>265.92</course>
  <speed>0.0</speed>
  <fix>3d</fix>
</trkpt>
<trkpt lat="40.072842" lon="-105.230575">
  <ele>1586.17</ele>
  <time>2026-08-27T18:28:24Z</time>
  <course>11.38</course>
  <speed>0.0</speed>
  <fix>3d</fix>
</trkpt>
<trkpt lat="40.072842" lon="-105.230575">
  <ele>1586.09</ele>
  <time>2026-08-27T18:28:24Z</time>
  <course>341.87</course>
  <speed>0.0</speed>
  <fix>3d</fix>
</trkpt>
<trkpt lat="40.072842" lon="-105.230575">
  <ele>1586.17</ele>
  <time>2026-08-27T18:28:24Z</time>
  <course>11.38</course>
  <speed>0.0</speed>
  <fix>3d</fix>
</trkpt>
<trkpt lat="40.072842" lon="-105.230575">
  <ele>1586.09</ele>
  <time>2026-08-27T18:28:24Z</time>
  <course>326.39</course>
  <speed>0.0</speed>
  <fix>3d</fix>
</trkpt>
<trkpt lat="40.072842" lon="-105.230575">
  <ele>1586.17</ele>
  <time>2026-08-27T18:28:24Z</time>
  <course>11.37</course>
  <speed>0.0</speed>
  <fix>3d</fix>
</trkpt>
<trkpt lat="40.072842" lon="-105.230575">
  <ele>1586.09</ele>
  <time>2026-08-27T18:28:24Z</time>
  <course>286.9</course>
  <speed>0.0</speed>
  <fix>3d</fix>
</trkpt>
<trkpt lat="40.072842" lon="-105.230575">
  <ele>1586.17</ele>
  <time>2026-08-27T18:28:24Z</time>
  <course>11.37</course>
  <speed>0.0</speed>
  <fix>3d</fix>
</trkpt>
<trkpt lat="40.072842" lon="-105.230575">
  <ele>1586.09</ele>
  <time>2026-08-27T18:28:24Z</time>
  <course>163.1</course>
  <speed>0.0</speed>
  <fix>3d</fix>
</trkpt>
<trkpt lat="40.072842" lon="-105.230575">
  <ele>1586.17</ele>
  <time>2026-08-27T18:28:24Z</time>
  <course>11.37</course>
  <speed>0.0</speed>
  <fix>3d</fix>
</trkpt>
<trkpt lat="40.072842" lon="-105.230575">
  <ele>1586.09</ele>
  <time>2026-08-27T18:28:24Z</time>
  <course>303.78</course>
  <speed>0.0</speed>
  <fix>3d</fix>
</trkpt>
<trkpt lat="40.072842" lon="-105.230575">
  <ele>1586.17</ele>
  <time>2026-08-27T18:28:24Z</time>
  <course>11.36</course>
  <speed>0.0</speed>
  <fix>3d</fix>
</trkpt>
<trkpt lat="40.072842" lon="-105.230575">
  <ele>1586.09</ele>
  <time>2026-08-27T18:28:24Z</time>
  <course>295.2</course>
  <speed>0.0</speed>
  <fix>3d</fix>
</trkpt>
<trkpt lat="40.072842" lon="-105.230575">
  <ele>1586.17</ele>
  <time>2026-08-27T18:28:24Z</time>
  <course>11.36</course>
  <speed>0.0</speed>
  <fix>3d</fix>
</trkpt>
<trkpt lat="40.072842" lon="-105.230575">
  <ele>1586.09</ele>
  <time>2026-08-27T18:28:24Z</time>
  <course>300.38</course>
  <speed>0.0</speed>
  <fix>3d</fix>
</trkpt>
<trkpt lat="40.072842" lon="-105.230575">
  <ele>1586.17</ele>
  <time>2026-08-27T18:28:24Z</time>
  <course>11.36</course>
  <speed>0.0</speed>
  <fix>3d</fix>
</trkpt>
<trkpt lat="40.072842" lon="-105.230575">
  <ele>1586.09</ele>
  <time>2026-08-27T18:28:24Z</time>
  <course>267.36</course>
  <speed>0.0</speed>
  <fix>3d</fix>
</trkpt>
<trkpt lat="40.072842" lon="-105.230575">
  <ele>1586.16</ele>
  <time>2026-08-27T18:28:24Z</time>
  <course>11.36</course>
  <speed>0.0</speed>
  <fix>3d</fix>
</trkpt>
<trkpt lat="40.072842" lon="-105.230575">
  <ele>1586.09</ele>
  <time>2026-08-27T18:28:24Z</time>
  <course>250.8</course>
  <speed>0.0</speed>
  <fix>3d</fix>
</trkpt>
<trkpt lat="40.072842" lon="-105.230575">
  <ele>1586.16</ele>
  <time>2026-08-27T18:28:24Z</time>
  <course>11.36</course>
  <speed>0.0</speed>
  <fix>3d</fix>
</trkpt>
<trkpt lat="40.072842" lon="-105.230575">
  <ele>1586.09</ele>
  <time>2026-08-27T18:28:24Z</time>
  <course>92.86</course>
  <speed>0.0</speed>
  <fix>3d</fix>
</trkpt>
<trkpt lat="40.072842" lon="-105.230575">
  <ele>1586.16</ele>
  <time>2026-08-27T18:28:24Z</time>
  <course>11.35</course>
  <speed>0.0</speed>
  <fix>3d</fix>
</trkpt>
<trkpt lat="40.072842" lon="-105.230575">
  <ele>1586.09</ele>
  <time>2026-08-27T18:28:24Z</time>
  <course>327.21</course>
  <speed>0.0</speed>
  <fix>3d</fix>
</trkpt>
<trkpt lat="40.072842" lon="-105.230575">
  <ele>1586.16</ele>
  <time>2026-08-27T18:28:24Z</time>
  <course>11.35</course>
  <speed>0.0</speed>
  <fix>3d</fix>
</trkpt>
<trkpt lat="40.072842" lon="-105.230575">
  <ele>1586.09</ele>
  <time>2026-08-27T18:28:24Z</time>
  <course>316.03</course>
  <speed>0.0</speed>
  <fix>3d</fix>
</trkpt>
<trkpt lat="40.072842" lon="-105.230575">
  <ele>1586.16</ele>
  <time>2026-08-27T18:28:24Z</time>
  <course>11.34</course>
  <speed>0.0</speed>
  <fix>3d</fix>
</trkpt>
<trkpt lat="40.072842" lon="-105.230575">
  <ele>1586.09</ele>
  <time>2026-08-27T18:28:24Z</time>
  <course>276.58</course>
  <speed>0.0</speed>
  <fix>3d</fix>
</trkpt>
<trkpt lat="40.072842" lon="-105.230575">
  <ele>1586.16</ele>
  <time>2026-08-27T18:28:24Z</time>
  <course>11.34</course>
  <speed>0.0</speed>
  <fix>3d</fix>
</trkpt>
<trkpt lat="40.072842" lon="-105.230575">
  <ele>1586.09</ele>
  <time>2026-08-27T18:28:24Z</time>
  <course>269.26</course>
  <speed>0.0</speed>
  <fix>3d</fix>
</trkpt>
<trkpt lat="40.072842" lon="-105.230575">
  <ele>1586.16</ele>
  <time>2026-08-27T18:28:24Z</time>
  <course>11.33</course>
  <speed>0.0</speed>
  <fix>3d</fix>
</trkpt>
<trkpt lat="40.072842" lon="-105.230575">
  <ele>1586.09</ele>
  <time>2026-08-27T18:28:24Z</time>
  <course>246.54</course>
  <speed>0.0</speed>
  <fix>3d</fix>
</trkpt>
<trkpt lat="40.072842" lon="-105.230575">
  <ele>1586.16</ele>
  <time>2026-08-27T18:28:24Z</time>
  <course>11.32</course>
  <speed>0.0</speed>
  <fix>3d</fix>
</trkpt>
<trkpt lat="40.072842" lon="-105.230575">
  <ele>1586.09</ele>
  <time>2026-08-27T18:28:24Z</time>
  <course>25.75</course>
  <speed>0.0</speed>
  <fix>3d</fix>
</trkpt>
<trkpt lat="40.072842" lon="-105.230575">
  <ele>1586.16</ele>
  <time>2026-08-27T18:28:24Z</time>
  <course>11.31</course>
  <speed>0.0</speed>
  <fix>3d</fix>
</trkpt>
<trkpt lat="40.072842" lon="-105.230575">
  <ele>1586.09</ele>
  <time>2026-08-27T18:28:24Z</time>
  <course>341.21</course>
  <speed>0.0</speed>
  <fix>3d</fix>
</trkpt>
<trkpt lat="40.072842" lon="-105.230575">
  <ele>1586.16</ele>
  <time>2026-08-27T18:28:24Z</time>
  <course>11.3</course>
  <speed>0.0</speed>
  <fix>3d</fix>
</trkpt>
<trkpt lat="40.072842" lon="-105.230575">
  <ele>1586.09</ele>
  <time>2026-08-27T18:28:24Z</time>
  <course>318.05</course>
  <speed>0.0</speed>
  <fix>3d</fix>
</trkpt>
<trkpt lat="40.072842" lon="-105.230575">
  <ele>1586.16</ele>
  <time>2026-08-27T18:28:24Z</time>
  <course>11.28</course>
  <speed>0.0</speed>
  <fix>3d</fix>
</trkpt>
<trkpt lat="40.072842" lon="-105.230575">
  <ele>1586.09</ele>
  <time>2026-08-27T18:28:24Z</time>
  <course>276.56</course>
  <speed>0.0</speed>
  <fix>3d</fix>
</trkpt>
<trkpt lat="40.072842" lon="-105.230575">
  <ele>1586.16</ele>
  <time>2026-08-27T18:28:24Z</time>
  <course>11.27</course>
  <speed>0.0</speed>
  <fix>3d</fix>
</trkpt>
<trkpt lat="40.072842" lon="-105.230575">
  <ele>1586.09</ele>
  <time>2026-08-27T18:28:24Z</time>
  <course>231.12</course>
  <speed>0.0</speed>
  <fix>3d</fix>
</trkpt>
<trkpt lat="40.072842" lon="-105.230575">
  <ele>1586.16</ele>
  <time>2026-08-27T18:28:24Z</time>
  <course>11.25</course>
  <speed>0.01</speed>
  <fix>3d</fix>
</trkpt>
<trkpt lat="40.072842" lon="-105.230575">
  <ele>1586.09</ele>
  <time>2026-08-27T18:28:24Z</time>
  <course>29.09</course>
  <speed>0.0</speed>
  <fix>3d</fix>
</trkpt>
<trkpt lat="40.072842" lon="-105.230575">
  <ele>1586.16</ele>
  <time>2026-08-27T18:28:24Z</time>
  <course>11.23</course>
  <speed>0.01</speed>
  <fix>3d</fix>
</trkpt>
<trkpt lat="40.072842" lon="-105.230575">
  <ele>1586.09</ele>
  <time>2026-08-27T18:28:24Z</time>
  <course>286.58</course>
  <speed>0.0</speed>
  <fix>3d</fix>
</trkpt>
<trkpt lat="40.072842" lon="-105.230575">
  <ele>1586.16</ele>
  <time>2026-08-27T18:28:24Z</time>
  <course>11.21</course>
  <speed>0.01</speed>
  <fix>3d</fix>
</trkpt>
<trkpt lat="40.072842" lon="-105.230575">
  <ele>1586.09</ele>
  <time>2026-08-27T18:28:24Z</time>
  <course>303.67</course>
  <speed>0.0</speed>
  <fix>3d</fix>
</trkpt>
<trkpt lat="40.072842" lon="-105.230575">
  <ele>1586.16</ele>
  <time>2026-08-27T18:28:24Z</time>
  <course>11.19</course>
  <speed>0.01</speed>
  <fix>3d</fix>
</trkpt>
<trkpt lat="40.072842" lon="-105.230575">
  <ele>1586.09</ele>
  <time>2026-08-27T18:28:24Z</time>
  <course>276.24</course>
  <speed>0.0</speed>
  <fix>3d</fix>
</trkpt>
<trkpt lat="40.072842" lon="-105.230575">
  <ele>1586.15</ele>
  <time>2026-08-27T18:28:24Z</time>
  <course>11.17</course>
  <speed>0.01</speed>
  <fix>3d</fix>
</trkpt>
<trkpt lat="40.072842" lon="-105.230575">
  <ele>1586.09</ele>
  <time>2026-08-27T18:28:24Z</time>
  <course>220.16</course>
  <speed>0.0</speed>
  <fix>3d</fix>
</trkpt>
<trkpt lat="40.072842" lon="-105.230575">
  <ele>1586.16</ele>
  <time>2026-08-27T18:28:24Z</time>
  <course>11.14</course>
  <speed>0.01</speed>
  <fix>3d</fix>
</trkpt>
<trkpt lat="40.072842" lon="-105.230575">
  <ele>1586.09</ele>
  <time>2026-08-27T18:28:24Z</time>
  <course>281.69</course>
  <speed>0.0</speed>
  <fix>3d</fix>
</trkpt>
<trkpt lat="40.072842" lon="-105.230575">
  <ele>1586.16</ele>
  <time>2026-08-27T18:28:24Z</time>
  <course>11.12</course>
  <speed>0.01414213562373095</speed>
  <fix>3d</fix>
</trkpt>
<trkpt lat="40.072842" lon="-105.230575">
  <ele>1586.09</ele>
  <time>2026-08-27T18:28:24Z</time>
  <course>277.74</course>
  <speed>0.0</speed>
  <fix>3d</fix>
</trkpt>
<trkpt lat="40.072842" lon="-105.230575">
  <ele>1586.16</ele>
  <time>2026-08-27T18:28:24Z</time>
  <course>11.09</course>
  <speed>0.01414213562373095</speed>
  <fix>3d</fix>
</trkpt>
<trkpt lat="40.072842" lon="-105.230575">
  <ele>1586.09</ele>
  <time>2026-08-27T18:28:24Z</time>
  <course>270.25</course>
  <speed>0.0</speed>
  <fix>3d</fix>
</trkpt>
<trkpt lat="40.072842" lon="-105.230575">
  <ele>1586.16</ele>
  <time>2026-08-27T18:28:24Z</time>
  <course>11.07</course>
  <speed>0.01414213562373095</speed>
  <fix>3d</fix>
</trkpt>
<trkpt lat="40.072842" lon="-105.230575">
  <ele>1586.09</ele>
  <time>2026-08-27T18:28:24Z</time>
  <course>286.83</course>
  <speed>0.0</speed>
  <fix>3d</fix>
</trkpt>
<trkpt lat="40.072842" lon="-105.230575">
  <ele>1586.17</ele>
  <time>2026-08-27T18:28:24Z</time>
  <course>11.06</course>
  <speed>0.01414213562373095</speed>
  <fix>3d</fix>
</trkpt>
<trkpt lat="40.072842" lon="-105.230575">
  <ele>1586.09</ele>
  <time>2026-08-27T18:28:24Z</time>
  <course>290.55</course>
  <speed>0.0</speed>
  <fix>3d</fix>
</trkpt>
<trkpt lat="40.072842" lon="-105.230575">
  <ele>1586.17</ele>
  <time>2026-08-27T18:28:24Z</time>
  <course>11.06</course>
  <speed>0.01414213562373095</speed>
  <fix>3d</fix>
</trkpt>
<trkpt lat="40.072842" lon="-105.230575">
  <ele>1586.09</ele>
  <time>2026-08-27T18:28:24Z</time>
  <course>246.22</course>
  <speed>0.0</speed>
  <fix>3d</fix>
</trkpt>
<trkpt lat="40.0728419" lon="-105.230575">
  <ele>1586.17</ele>
  <time>2026-08-27T18:28:24Z</time>
  <course>11.06</course>
  <speed>0.022360679774997897</speed>
  <fix>3d</fix>
</trkpt>
<trkpt lat="40.072842" lon="-105.230575">
  <ele>1586.09</ele>
  <time>2026-08-27T18:28:24Z</time>
  <course>46.62</course>
  <speed>0.0</speed>
  <fix>3d</fix>
</trkpt>
<trkpt lat="40.0728419" lon="-105.230575">
  <ele>1586.16</ele>
  <time>2026-08-27T18:28:25Z</time>
  <course>11.06</course>
  <speed>0.022360679774997897</speed>
  <fix>3d</fix>
</trkpt>
<trkpt lat="40.072842" lon="-105.230575">
  <ele>1586.09</ele>
  <time>2026-08-27T18:28:25Z</time>
  <course>108.69</course>
  <speed>0.0</speed>
  <fix>3d</fix>
</trkpt>
<trkpt lat="40.0728419" lon="-105.2305749">
  <ele>1586.17</ele>
  <time>2026-08-27T18:28:25Z</time>
  <course>11.06</course>
  <speed>0.022360679774997897</speed>
  <fix>3d</fix>
</trkpt>
<trkpt lat="40.072842" lon="-105.230575">
  <ele>1586.09</ele>
  <time>2026-08-27T18:28:25Z</time>
  <course>102.52</course>
  <speed>0.0</speed>
  <fix>3d</fix>
</trkpt>
<trkpt lat="40.0728419" lon="-105.2305749">
  <ele>1586.17</ele>
  <time>2026-08-27T18:28:25Z</time>
  <course>11.06</course>
  <speed>0.022360679774997897</speed>
  <fix>3d</fix>
</trkpt>
<trkpt lat="40.072842" lon="-105.230575">
  <ele>1586.09</ele>
  <time>2026-08-27T18:28:25Z</time>
  <course>330.82</course>
  <speed>0.0</speed>
  <fix>3d</fix>
</trkpt>
<trkpt lat="40.0728419" lon="-105.2305749">
  <ele>1586.16</ele>
  <time>2026-08-27T18:28:25Z</time>
  <course>11.06</course>
  <speed>0.022360679774997897</speed>
  <fix>3d</fix>
</trkpt>
<trkpt lat="40.072842" lon="-105.230575">
  <ele>1586.09</ele>
  <time>2026-08-27T18:28:25Z</time>
  <course>272.97</course>
  <speed>0.0</speed>
  <fix>3d</fix>
</trkpt>
<trkpt lat="40.0728419" lon="-105.2305749">
  <ele>1586.17</ele>
  <time>2026-08-27T18:28:25Z</time>
  <course>11.06</course>
  <speed>0.01414213562373095</speed>
  <fix>3d</fix>
</trkpt>
<trkpt lat="40.072842" lon="-105.230575">
  <ele>1586.09</ele>
  <time>2026-08-27T18:28:25Z</time>
  <course>142.45</course>
  <speed>0.0</speed>
  <fix>3d</fix>
</trkpt>
<trkpt lat="40.0728419" lon="-105.2305749">
  <ele>1586.17</ele>
  <time>2026-08-27T18:28:25Z</time>
  <course>11.06</course>
  <speed>0.01414213562373095</speed>
  <fix>3d</fix>
</trkpt>
<trkpt lat="40.072842" lon="-105.230575">
  <ele>1586.09</ele>
  <time>2026-08-27T18:28:25Z</time>
  <course>38.71</course>
  <speed>0.0</speed>
  <fix>3d</fix>
</trkpt>
<trkpt lat="40.0728419" lon="-105.2305749">
  <ele>1586.17</ele>
  <time>2026-08-27T18:28:25Z</time>
  <course>11.06</course>
  <speed>0.01414213562373095</speed>
  <fix>3d</fix>
</trkpt>
<trkpt lat="40.072842" lon="-105.230575">
  <ele>1586.09</ele>
  <time>2026-08-27T18:28:25Z</time>
  <course>285.01</course>
  <speed>0.0</speed>
  <fix>3d</fix>
</trkpt>
<trkpt lat="40.0728419" lon="-105.230575">
  <ele>1586.17</ele>
  <time>2026-08-27T18:28:25Z</time>
  <course>11.06</course>
  <speed>0.01414213562373095</speed>
  <fix>3d</fix>
</trkpt>
<trkpt lat="40.072842" lon="-105.230575">
  <ele>1586.09</ele>
  <time>2026-08-27T18:28:25Z</time>
  <course>277.44</course>
  <speed>0.0</speed>
  <fix>3d</fix>
</trkpt>
<trkpt lat="40.0728419" lon="-105.230575">
  <ele>1586.16</ele>
  <time>2026-08-27T18:28:25Z</time>
  <course>11.06</course>
  <speed>0.01</speed>
  <fix>3d</fix>
</trkpt>
<trkpt lat="40.072842" lon="-105.230575">
  <ele>1586.09</ele>
  <time>2026-08-27T18:28:25Z</time>
  <course>280.05</course>
  <speed>0.0</speed>
  <fix>3d</fix>
</trkpt>
<trkpt lat="40.0728419" lon="-105.230575">
  <ele>1586.15</ele>
  <time>2026-08-27T18:28:25Z</time>
  <course>11.06</course>
  <speed>0.01</speed>
  <fix>3d</fix>
</trkpt>
<trkpt lat="40.072842" lon="-105.230575">
  <ele>1586.09</ele>
  <time>2026-08-27T18:28:25Z</time>
  <course>281.06</course>
  <speed>0.0</speed>
  <fix>3d</fix>
</trkpt>
<trkpt lat="40.072842" lon="-105.230575">
  <ele>1586.15</ele>
  <time>2026-08-27T18:28:25Z</time>
  <course>11.06</course>
  <speed>0.01</speed>
  <fix>3d</fix>
</trkpt>
<trkpt lat="40.072842" lon="-105.230575">
  <ele>1586.09</ele>
  <time>2026-08-27T18:28:25Z</time>
  <course>280.54</course>
  <speed>0.0</speed>
  <fix>3d</fix>
</trkpt>
<trkpt lat="40.072842" lon="-105.230575">
  <ele>1586.15</ele>
  <time>2026-08-27T18:28:25Z</time>
  <course>11.06</course>
  <speed>0.01</speed>
  <fix>3d</fix>
</trkpt>
<trkpt lat="40.072842" lon="-105.230575">
  <ele>1586.09</ele>
  <time>2026-08-27T18:28:25Z</time>
  <course>280.47</course>
  <speed>0.0</speed>
  <fix>3d</fix>
</trkpt>
<trkpt lat="40.072842" lon="-105.230575">
  <ele>1586.15</ele>
  <time>2026-08-27T18:28:25Z</time>
  <course>11.05</course>
  <speed>0.01</speed>
  <fix>3d</fix>
</trkpt>
<trkpt lat="40.072842" lon="-105.230575">
  <ele>1586.09</ele>
  <time>2026-08-27T18:28:25Z</time>
  <course>280.55</course>
  <speed>0.0</speed>
  <fix>3d</fix>
</trkpt>
<trkpt lat="40.072842" lon="-105.230575">
  <ele>1586.15</ele>
  <time>2026-08-27T18:28:25Z</time>
  <course>11.05</course>
  <speed>0.0</speed>
  <fix>3d</fix>
</trkpt>
<trkpt lat="40.072842" lon="-105.230575">
  <ele>1586.09</ele>
  <time>2026-08-27T18:28:25Z</time>
  <course>280.55</course>
  <speed>0.0</speed>
  <fix>3d</fix>
</trkpt>
<trkpt lat="40.072842" lon="-105.230575">
  <ele>1586.15</ele>
  <time>2026-08-27T18:28:25Z</time>
  <course>11.05</course>
  <speed>0.0</speed>
  <fix>3d</fix>
</trkpt>
<trkpt lat="40.072842" lon="-105.230575">
  <ele>1586.09</ele>
  <time>2026-08-27T18:28:25Z</time>
  <course>280.54</course>
  <speed>0.0</speed>
  <fix>3d</fix>
</trkpt>
<trkpt lat="40.072842" lon="-105.230575">
  <ele>1586.15</ele>
  <time>2026-08-27T18:28:25Z</time>
  <course>11.05</course>
  <speed>0.0</speed>
  <fix>3d</fix>
</trkpt>
<trkpt lat="40.072842" lon="-105.230575">
  <ele>1586.09</ele>
  <time>2026-08-27T18:28:25Z</time>
  <course>280.54</course>
  <speed>0.0</speed>
  <fix>3d</fix>
</trkpt>
<trkpt lat="40.072842" lon="-105.230575">
  <ele>1586.16</ele>
  <time>2026-08-27T18:28:25Z</time>
  <course>11.05</course>
  <speed>0.0</speed>
  <fix>3d</fix>
</trkpt>
<trkpt lat="40.072842" lon="-105.230575">
  <ele>1586.09</ele>
  <time>2026-08-27T18:28:25Z</time>
  <course>280.54</course>
  <speed>0.0</speed>
  <fix>3d</fix>
</trkpt>
<trkpt lat="40.072842" lon="-105.230575">
  <ele>1586.16</ele>
  <time>2026-08-27T18:28:25Z</time>
  <course>11.05</course>
  <speed>0.0</speed>
  <fix>3d</fix>
</trkpt>
<trkpt lat="40.072842" lon="-105.230575">
  <ele>1586.09</ele>
  <time>2026-08-27T18:28:25Z</time>
  <course>295.97</course>
  <speed>0.0</speed>
  <fix>3d</fix>
</trkpt>
<trkpt lat="40.072842" lon="-105.230575">
  <ele>1586.16</ele>
  <time>2026-08-27T18:28:25Z</time>
  <course>11.05</course>
  <speed>0.0</speed>
  <fix>3d</fix>
</trkpt>
<trkpt lat="40.072842" lon="-105.230575">
  <ele>1586.09</ele>
  <time>2026-08-27T18:28:25Z</time>
  <course>289.84</course>
  <speed>0.0</speed>
  <fix>3d</fix>
</trkpt>
<trkpt lat="40.072842" lon="-105.230575">
  <ele>1586.16</ele>
  <time>2026-08-27T18:28:25Z</time>
  <course>11.05</course>
  <speed>0.0</speed>
  <fix>3d</fix>
</trkpt>
<trkpt lat="40.072842" lon="-105.230575">
  <ele>1586.09</ele>
  <time>2026-08-27T18:28:25Z</time>
  <course>274.96</course>
  <speed>0.0</speed>
  <fix>3d</fix>
</trkpt>
<trkpt lat="40.072842" lon="-105.230575">
  <ele>1586.16</ele>
  <time>2026-08-27T18:28:25Z</time>
  <course>11.05</course>
  <speed>0.0</speed>
  <fix>3d</fix>
</trkpt>
<trkpt lat="40.072842" lon="-105.230575">
  <ele>1586.09</ele>
  <time>2026-08-27T18:28:25Z</time>
  <course>280.02</course>
  <speed>0.0</speed>
  <fix>3d</fix>
</trkpt>
<trkpt lat="40.072842" lon="-105.230575">
  <ele>1586.16</ele>
  <time>2026-08-27T18:28:25Z</time>
  <course>11.04</course>
  <speed>0.0</speed>
  <fix>3d</fix>
</trkpt>
<trkpt lat="40.072842" lon="-105.230575">
  <ele>1586.09</ele>
  <time>2026-08-27T18:28:25Z</time>
  <course>281.45</course>
  <speed>0.0</speed>
  <fix>3d</fix>
</trkpt>
<trkpt lat="40.072842" lon="-105.230575">
  <ele>1586.16</ele>
  <time>2026-08-27T18:28:25Z</time>
  <course>11.04</course>
  <speed>0.0</speed>
  <fix>3d</fix>
</trkpt>
<trkpt lat="40.072842" lon="-105.230575">
  <ele>1586.09</ele>
  <time>2026-08-27T18:28:25Z</time>
  <course>280.5</course>
  <speed>0.0</speed>
  <fix>3d</fix>
</trkpt>
<trkpt lat="40.072842" lon="-105.230575">
  <ele>1586.16</ele>
  <time>2026-08-27T18:28:25Z</time>
  <course>11.04</course>
  <speed>0.0</speed>
  <fix>3d</fix>
</trkpt>
<trkpt lat="40.072842" lon="-105.230575">
  <ele>1586.09</ele>
  <time>2026-08-27T18:28:25Z</time>
  <course>280.42</course>
  <speed>0.0</speed>
  <fix>3d</fix>
</trkpt>
<trkpt lat="40.072842" lon="-105.230575">
  <ele>1586.16</ele>
  <time>2026-08-27T18:28:25Z</time>
  <course>11.04</course>
  <speed>0.0</speed>
  <fix>3d</fix>
</trkpt>
<trkpt lat="40.072842" lon="-105.230575">
  <ele>1586.09</ele>
  <time>2026-08-27T18:28:25Z</time>
  <course>280.55</course>
  <speed>0.0</speed>
  <fix>3d</fix>
</trkpt>
<trkpt lat="40.072842" lon="-105.230575">
  <ele>1586.16</ele>
  <time>2026-08-27T18:28:25Z</time>
  <course>11.04</course>
  <speed>0.0</speed>
  <fix>3d</fix>
</trkpt>
<trkpt lat="40.072842" lon="-105.230575">
  <ele>1586.09</ele>
  <time>2026-08-27T18:28:25Z</time>
  <course>280.5</course>
  <speed>0.0</speed>
  <fix>3d</fix>
</trkpt>
<trkpt lat="40.072842" lon="-105.230575">
  <ele>1586.16</ele>
  <time>2026-08-27T18:28:25Z</time>
  <course>11.04</course>
  <speed>0.0</speed>
  <fix>3d</fix>
</trkpt>
<trkpt lat="40.072842" lon="-105.230575">
  <ele>1586.09</ele>
  <time>2026-08-27T18:28:25Z</time>
  <course>280.39</course>
  <speed>0.0</speed>
  <fix>3d</fix>
</trkpt>
<trkpt lat="40.072842" lon="-105.230575">
  <ele>1586.16</ele>
  <time>2026-08-27T18:28:25Z</time>
  <course>11.03</course>
  <speed>0.0</speed>
  <fix>3d</fix>
</trkpt>
<trkpt lat="40.072842" lon="-105.230575">
  <ele>1586.09</ele>
  <time>2026-08-27T18:28:25Z</time>
  <course>280.29</course>
  <speed>0.0</speed>
  <fix>3d</fix>
</trkpt>
<trkpt lat="40.072842" lon="-105.230575">
  <ele>1586.16</ele>
  <time>2026-08-27T18:28:25Z</time>
  <course>11.02</course>
  <speed>0.0</speed>
  <fix>3d</fix>
</trkpt>
<trkpt lat="40.072842" lon="-105.230575">
  <ele>1586.09</ele>
  <time>2026-08-27T18:28:25Z</time>
  <course>280.2</course>
  <speed>0.0</speed>
  <fix>3d</fix>
</trkpt>
<trkpt lat="40.072842" lon="-105.230575">
  <ele>1586.16</ele>
  <time>2026-08-27T18:28:25Z</time>
  <course>11.02</course>
  <speed>0.0</speed>
  <fix>3d</fix>
</trkpt>
<trkpt lat="40.072842" lon="-105.230575">
  <ele>1586.09</ele>
  <time>2026-08-27T18:28:25Z</time>
  <course>280.1</course>
  <speed>0.0</speed>
  <fix>3d</fix>
</trkpt>
<trkpt lat="40.072842" lon="-105.230575">
  <ele>1586.16</ele>
  <time>2026-08-27T18:28:25Z</time>
  <course>11.0</course>
  <speed>0.0</speed>
  <fix>3d</fix>
</trkpt>
<trkpt lat="40.072842" lon="-105.230575">
  <ele>1586.09</ele>
  <time>2026-08-27T18:28:25Z</time>
  <course>313.44</course>
  <speed>0.0</speed>
  <fix>3d</fix>
</trkpt>
<trkpt lat="40.072842" lon="-105.230575">
  <ele>1586.16</ele>
  <time>2026-08-27T18:28:25Z</time>
  <course>10.99</course>
  <speed>0.01</speed>
  <fix>3d</fix>
</trkpt>
<trkpt lat="40.072842" lon="-105.230575">
  <ele>1586.09</ele>
  <time>2026-08-27T18:28:25Z</time>
  <course>320.63</course>
  <speed>0.0</speed>
  <fix>3d</fix>
</trkpt>
<trkpt lat="40.072842" lon="-105.230575">
  <ele>1586.16</ele>
  <time>2026-08-27T18:28:25Z</time>
  <course>10.98</course>
  <speed>0.01</speed>
  <fix>3d</fix>
</trkpt>
<trkpt lat="40.072842" lon="-105.230575">
  <ele>1586.09</ele>
  <time>2026-08-27T18:28:25Z</time>
  <course>311.09</course>
  <speed>0.0</speed>
  <fix>3d</fix>
</trkpt>
<trkpt lat="40.072842" lon="-105.230575">
  <ele>1586.16</ele>
  <time>2026-08-27T18:28:25Z</time>
  <course>10.97</course>
  <speed>0.01</speed>
  <fix>3d</fix>
</trkpt>
<trkpt lat="40.072842" lon="-105.230575">
  <ele>1586.09</ele>
  <time>2026-08-27T18:28:25Z</time>
  <course>207.12</course>
  <speed>0.0</speed>
  <fix>3d</fix>
</trkpt>
<trkpt lat="40.072842" lon="-105.230575">
  <ele>1586.16</ele>
  <time>2026-08-27T18:28:25Z</time>
  <course>10.96</course>
  <speed>0.01</speed>
  <fix>3d</fix>
</trkpt>
<trkpt lat="40.072842" lon="-105.230575">
  <ele>1586.09</ele>
  <time>2026-08-27T18:28:25Z</time>
  <course>251.76</course>
  <speed>0.0</speed>
  <fix>3d</fix>
</trkpt>
<trkpt lat="40.072842" lon="-105.230575">
  <ele>1586.16</ele>
  <time>2026-08-27T18:28:25Z</time>
  <course>10.96</course>
  <speed>0.01</speed>
  <fix>3d</fix>
</trkpt>
<trkpt lat="40.072842" lon="-105.230575">
  <ele>1586.09</ele>
  <time>2026-08-27T18:28:25Z</time>
  <course>299.65</course>
  <speed>0.0</speed>
  <fix>3d</fix>
</trkpt>
<trkpt lat="40.072842" lon="-105.230575">
  <ele>1586.16</ele>
  <time>2026-08-27T18:28:25Z</time>
  <course>10.97</course>
  <speed>0.01</speed>
  <fix>3d</fix>
</trkpt>
<trkpt lat="40.072842" lon="-105.230575">
  <ele>1586.09</ele>
  <time>2026-08-27T18:28:25Z</time>
  <course>290.21</course>
  <speed>0.0</speed>
  <fix>3d</fix>
</trkpt>
<trkpt lat="40.072842" lon="-105.230575">
  <ele>1586.16</ele>
  <time>2026-08-27T18:28:25Z</time>
  <course>10.97</course>
  <speed>0.01</speed>
  <fix>3d</fix>
</trkpt>
<trkpt lat="40.072842" lon="-105.230575">
  <ele>1586.09</ele>
  <time>2026-08-27T18:28:25Z</time>
  <course>288.61</course>
  <speed>0.0</speed>
  <fix>3d</fix>
</trkpt>
<trkpt lat="40.072842" lon="-105.230575">
  <ele>1586.16</ele>
  <time>2026-08-27T18:28:25Z</time>
  <course>10.97</course>
  <speed>0.01</speed>
  <fix>3d</fix>
</trkpt>
<trkpt lat="40.072842" lon="-105.230575">
  <ele>1586.09</ele>
  <time>2026-08-27T18:28:25Z</time>
  <course>294.31</course>
  <speed>0.0</speed>
  <fix>3d</fix>
</trkpt>
<trkpt lat="40.072842" lon="-105.230575">
  <ele>1586.16</ele>
  <time>2026-08-27T18:28:25Z</time>
  <course>10.97</course>
  <speed>0.01414213562373095</speed>
  <fix>3d</fix>
</trkpt>
<trkpt lat="40.072842" lon="-105.230575">
  <ele>1586.09</ele>
  <time>2026-08-27T18:28:25Z</time>
  <course>265.26</course>
  <speed>0.0</speed>
  <fix>3d</fix>
</trkpt>
<trkpt lat="40.072842" lon="-105.230575">
  <ele>1586.15</ele>
  <time>2026-08-27T18:28:25Z</time>
  <course>10.97</course>
  <speed>0.01414213562373095</speed>
  <fix>3d</fix>
</trkpt>
<trkpt lat="40.072842" lon="-105.230575">
  <ele>1586.09</ele>
  <time>2026-08-27T18:28:25Z</time>
  <course>257.98</course>
  <speed>0.0</speed>
  <fix>3d</fix>
</trkpt>
<trkpt lat="40.072842" lon="-105.230575">
  <ele>1586.15</ele>
  <time>2026-08-27T18:28:25Z</time>
  <course>10.97</course>
  <speed>0.01414213562373095</speed>
  <fix>3d</fix>
</trkpt>
<trkpt lat="40.072842" lon="-105.230575">
  <ele>1586.09</ele>
  <time>2026-08-27T18:28:25Z</time>
  <course>10.89</course>
  <speed>0.0</speed>
  <fix>3d</fix>
</trkpt>
<trkpt lat="40.072842" lon="-105.230575">
  <ele>1586.15</ele>
  <time>2026-08-27T18:28:25Z</time>
  <course>10.97</course>
  <speed>0.01414213562373095</speed>
  <fix>3d</fix>
</trkpt>
<trkpt lat="40.072842" lon="-105.230575">
  <ele>1586.09</ele>
  <time>2026-08-27T18:28:25Z</time>
  <course>313.0</course>
  <speed>0.0</speed>
  <fix>3d</fix>
</trkpt>
<trkpt lat="40.072842" lon="-105.230575">
  <ele>1586.15</ele>
  <time>2026-08-27T18:28:25Z</time>
  <course>10.97</course>
  <speed>0.01414213562373095</speed>
  <fix>3d</fix>
</trkpt>
<trkpt lat="40.072842" lon="-105.230575">
  <ele>1586.09</ele>
  <time>2026-08-27T18:28:25Z</time>
  <course>284.07</course>
  <speed>0.0</speed>
  <fix>3d</fix>
</trkpt>
<trkpt lat="40.072842" lon="-105.230575">
  <ele>1586.15</ele>
  <time>2026-08-27T18:28:25Z</time>
  <course>10.97</course>
  <speed>0.01414213562373095</speed>
  <fix>3d</fix>
</trkpt>
<trkpt lat="40.072842" lon="-105.230575">
  <ele>1586.09</ele>
  <time>2026-08-27T18:28:25Z</time>
  <course>223.18</course>
  <speed>0.0</speed>
  <fix>3d</fix>
</trkpt>
<trkpt lat="40.072842" lon="-105.230575">
  <ele>1586.15</ele>
  <time>2026-08-27T18:28:25Z</time>
  <course>10.97</course>
  <speed>0.01414213562373095</speed>
  <fix>3d</fix>
</trkpt>
<trkpt lat="40.072842" lon="-105.230575">
  <ele>1586.09</ele>
  <time>2026-08-27T18:28:25Z</time>
  <course>51.51</course>
  <speed>0.0</speed>
  <fix>3d</fix>
</trkpt>
<trkpt lat="40.0728419" lon="-105.230575">
  <ele>1586.15</ele>
  <time>2026-08-27T18:28:25Z</time>
  <course>10.97</course>
  <speed>0.01414213562373095</speed>
  <fix>3d</fix>
</trkpt>
<trkpt lat="40.072842" lon="-105.230575">
  <ele>1586.09</ele>
  <time>2026-08-27T18:28:25Z</time>
  <course>280.45</course>
  <speed>0.0</speed>
  <fix>3d</fix>
</trkpt>
<trkpt lat="40.0728419" lon="-105.230575">
  <ele>1586.15</ele>
  <time>2026-08-27T18:28:25Z</time>
  <course>10.97</course>
  <speed>0.022360679774997897</speed>
  <fix>3d</fix>
</trkpt>
<trkpt lat="40.072842" lon="-105.230575">
  <ele>1586.09</ele>
  <time>2026-08-27T18:28:25Z</time>
  <course>261.03</course>
  <speed>0.0</speed>
  <fix>3d</fix>
</trkpt>
<trkpt lat="40.0728419" lon="-105.230575">
  <ele>1586.16</ele>
  <time>2026-08-27T18:28:25Z</time>
  <course>10.97</course>
  <speed>0.022360679774997897</speed>
  <fix>3d</fix>
</trkpt>
<trkpt lat="40.072842" lon="-105.230575">
  <ele>1586.09</ele>
  <time>2026-08-27T18:28:25Z</time>
  <course>178.87</course>
  <speed>0.0</speed>
  <fix>3d</fix>
</trkpt>
<trkpt lat="40.0728419" lon="-105.2305749">
  <ele>1586.16</ele>
  <time>2026-08-27T18:28:25Z</time>
  <course>10.97</course>
  <speed>0.022360679774997897</speed>
  <fix>3d</fix>
</trkpt>
<trkpt lat="40.072842" lon="-105.230575">
  <ele>1586.09</ele>
  <time>2026-08-27T18:28:25Z</time>
  <course>309.89</course>
  <speed>0.0</speed>
  <fix>3d</fix>
</trkpt>
<trkpt lat="40.0728419" lon="-105.2305749">
  <ele>1586.16</ele>
  <time>2026-08-27T18:28:25Z</time>
  <course>10.96</course>
  <speed>0.022360679774997897</speed>
  <fix>3d</fix>
</trkpt>
<trkpt lat="40.072842" lon="-105.230575">
  <ele>1586.09</ele>
  <time>2026-08-27T18:28:25Z</time>
  <course>298.84</course>
  <speed>0.0</speed>
  <fix>3d</fix>
</trkpt>
<trkpt lat="40.0728419" lon="-105.2305749">
  <ele>1586.16</ele>
  <time>2026-08-27T18:28:25Z</time>
  <course>10.95</course>
  <speed>0.022360679774997897</speed>
  <fix>3d</fix>
</trkpt>
<trkpt lat="40.072842" lon="-105.230575">
  <ele>1586.09</ele>
  <time>2026-08-27T18:28:25Z</time>
  <course>297.25</course>
  <speed>0.0</speed>
  <fix>3d</fix>
</trkpt>
<trkpt lat="40.0728419" lon="-105.2305749">
  <ele>1586.17</ele>
  <time>2026-08-27T18:28:25Z</time>
  <course>10.94</course>
  <speed>0.022360679774997897</speed>
  <fix>3d</fix>
</trkpt>
<trkpt lat="40.072842" lon="-105.230575">
  <ele>1586.09</ele>
  <time>2026-08-27T18:28:25Z</time>
  <course>235.05</course>
  <speed>0.0</speed>
  <fix>3d</fix>
</trkpt>
<trkpt lat="40.0728419" lon="-105.2305749">
  <ele>1586.17</ele>
  <time>2026-08-27T18:28:25Z</time>
  <course>10.93</course>
  <speed>0.022360679774997897</speed>
  <fix>3d</fix>
</trkpt>
<trkpt lat="40.072842" lon="-105.230575">
  <ele>1586.09</ele>
  <time>2026-08-27T18:28:25Z</time>
  <course>266.42</course>
  <speed>0.0</speed>
  <fix>3d</fix>
</trkpt>
<trkpt lat="40.0728419" lon="-105.2305749">
  <ele>1586.17</ele>
  <time>2026-08-27T18:28:25Z</time>
  <course>10.92</course>
  <speed>0.022360679774997897</speed>
  <fix>3d</fix>
</trkpt>
<trkpt lat="40.072842" lon="-105.230575">
  <ele>1586.09</ele>
  <time>2026-08-27T18:28:25Z</time>
  <course>297.03</course>
  <speed>0.0</speed>
  <fix>3d</fix>
</trkpt>
<trkpt lat="40.0728419" lon="-105.2305749">
  <ele>1586.17</ele>
  <time>2026-08-27T18:28:25Z</time>
  <course>10.91</course>
  <speed>0.022360679774997897</speed>
  <fix>3d</fix>
</trkpt>
<trkpt lat="40.072842" lon="-105.230575">
  <ele>1586.09</ele>
  <time>2026-08-27T18:28:25Z</time>
  <course>318.62</course>
  <speed>0.0</speed>
  <fix>3d</fix>
</trkpt>
<trkpt lat="40.0728419" lon="-105.2305749">
  <ele>1586.17</ele>
  <time>2026-08-27T18:28:25Z</time>
  <course>10.89</course>
  <speed>0.022360679774997897</speed>
  <fix>3d</fix>
</trkpt>
<trkpt lat="40.072842" lon="-105.230575">
  <ele>1586.09</ele>
  <time>2026-08-27T18:28:25Z</time>
  <course>282.83</course>
  <speed>0.0</speed>
  <fix>3d</fix>
</trkpt>
<trkpt lat="40.0728419" lon="-105.2305749">
  <ele>1586.17</ele>
  <time>2026-08-27T18:28:25Z</time>
  <course>10.87</course>
  <speed>0.022360679774997897</speed>
  <fix>3d</fix>
</trkpt>
<trkpt lat="40.072842" lon="-105.230575">
  <ele>1586.09</ele>
  <time>2026-08-27T18:28:25Z</time>
  <course>270.28</course>
  <speed>0.0</speed>
  <fix>3d</fix>
</trkpt>
<trkpt lat="40.0728419" lon="-105.2305749">
  <ele>1586.17</ele>
  <time>2026-08-27T18:28:25Z</time>
  <course>10.86</course>
  <speed>0.022360679774997897</speed>
  <fix>3d</fix>
</trkpt>
<trkpt lat="40.072842" lon="-105.230575">
  <ele>1586.09</ele>
  <time>2026-08-27T18:28:25Z</time>
  <course>313.5</course>
  <speed>0.0</speed>
  <fix>3d</fix>
</trkpt>
<trkpt lat="40.0728419" lon="-105.2305749">
  <ele>1586.17</ele>
  <time>2026-08-27T18:28:25Z</time>
  <course>10.84</course>
  <speed>0.022360679774997897</speed>
  <fix>3d</fix>
</trkpt>
<trkpt lat="40.072842" lon="-105.230575">
  <ele>1586.09</ele>
  <time>2026-08-27T18:28:25Z</time>
  <course>309.91</course>
  <speed>0.0</speed>
  <fix>3d</fix>
</trkpt>
<trkpt lat="40.0728419" lon="-105.2305749">
  <ele>1586.17</ele>
  <time>2026-08-27T18:28:25Z</time>
  <course>10.81</course>
  <speed>0.022360679774997897</speed>
  <fix>3d</fix>
</trkpt>
<trkpt lat="40.072842" lon="-105.230575">
  <ele>1586.09</ele>
  <time>2026-08-27T18:28:25Z</time>
  <course>270.54</course>
  <speed>0.0</speed>
  <fix>3d</fix>
</trkpt>
<trkpt lat="40.0728419" lon="-105.2305749">
  <ele>1586.17</ele>
  <time>2026-08-27T18:28:25Z</time>
  <course>10.79</course>
  <speed>0.022360679774997897</speed>
  <fix>3d</fix>
</trkpt>
<trkpt lat="40.072842" lon="-105.230575">
  <ele>1586.09</ele>
  <time>2026-08-27T18:28:25Z</time>
  <course>260.78</course>
  <speed>0.0</speed>
  <fix>3d</fix>
</trkpt>
<trkpt lat="40.0728419" lon="-105.2305749">
  <ele>1586.17</ele>
  <time>2026-08-27T18:28:25Z</time>
  <course>10.77</course>
  <speed>0.022360679774997897</speed>
  <fix>3d</fix>
</trkpt>
<trkpt lat="40.072842" lon="-105.230575">
  <ele>1586.09</ele>
  <time>2026-08-27T18:28:25Z</time>
  <course>328.98</course>
  <speed>0.0</speed>
  <fix>3d</fix>
</trkpt>
<trkpt lat="40.0728419" lon="-105.2305749">
  <ele>1586.17</ele>
  <time>2026-08-27T18:28:25Z</time>
  <course>10.74</course>
  <speed>0.022360679774997897</speed>
  <fix>3d</fix>
</trkpt>
<trkpt lat="40.072842" lon="-105.230575">
  <ele>1586.09</ele>
  <time>2026-08-27T18:28:25Z</time>
  <course>300.9</course>
  <speed>0.0</speed>
  <fix>3d</fix>
</trkpt>
<trkpt lat="40.0728419" lon="-105.2305749">
  <ele>1586.17</ele>
  <time>2026-08-27T18:28:25Z</time>
  <course>10.71</course>
  <speed>0.022360679774997897</speed>
  <fix>3d</fix>
</trkpt>
<trkpt lat="40.072842" lon="-105.230575">
  <ele>1586.09</ele>
  <time>2026-08-27T18:28:25Z</time>
  <course>275.36</course>
  <speed>0.0</speed>
  <fix>3d</fix>
</trkpt>
<trkpt lat="40.0728419" lon="-105.2305749">
  <ele>1586.17</ele>
  <time>2026-08-27T18:28:25Z</time>
  <course>10.68</course>
  <speed>0.022360679774997897</speed>
  <fix>3d</fix>
</trkpt>
<trkpt lat="40.072842" lon="-105.230575">
  <ele>1586.09</ele>
  <time>2026-08-27T18:28:25Z</time>
  <course>255.64</course>
  <speed>0.0</speed>
  <fix>3d</fix>
</trkpt>
<trkpt lat="40.0728419" lon="-105.2305749">
  <ele>1586.17</ele>
  <time>2026-08-27T18:28:25Z</time>
  <course>10.65</course>
  <speed>0.022360679774997897</speed>
  <fix>3d</fix>
</trkpt>
<trkpt lat="40.072842" lon="-105.230575">
  <ele>1586.09</ele>
  <time>2026-08-27T18:28:25Z</time>
  <course>288.57</course>
  <speed>0.0</speed>
  <fix>3d</fix>
</trkpt>
<trkpt lat="40.0728419" lon="-105.2305749">
  <ele>1586.17</ele>
  <time>2026-08-27T18:28:25Z</time>
  <course>10.62</course>
  <speed>0.022360679774997897</speed>
  <fix>3d</fix>
</trkpt>
<trkpt lat="40.072842" lon="-105.230575">
  <ele>1586.09</ele>
  <time>2026-08-27T18:28:25Z</time>
  <course>288.99</course>
  <speed>0.0</speed>
  <fix>3d</fix>
</trkpt>
<trkpt lat="40.0728419" lon="-105.2305749">
  <ele>1586.17</ele>
  <time>2026-08-27T18:28:25Z</time>
  <course>10.59</course>
  <speed>0.022360679774997897</speed>
  <fix>3d</fix>
</trkpt>
<trkpt lat="40.072842" lon="-105.230575">
  <ele>1586.09</ele>
  <time>2026-08-27T18:28:25Z</time>
  <course>281.67</course>
  <speed>0.0</speed>
  <fix>3d</fix>
</trkpt>
<trkpt lat="40.0728419" lon="-105.2305749">
  <ele>1586.17</ele>
  <time>2026-08-27T18:28:25Z</time>
  <course>10.55</course>
  <speed>0.022360679774997897</speed>
  <fix>3d</fix>
</trkpt>
<trkpt lat="40.072842" lon="-105.230575">
  <ele>1586.09</ele>
  <time>2026-08-27T18:28:25Z</time>
  <course>255.13</course>
  <speed>0.0</speed>
  <fix>3d</fix>
</trkpt>
<trkpt lat="40.0728419" lon="-105.2305749">
  <ele>1586.17</ele>
  <time>2026-08-27T18:28:25Z</time>
  <course>10.53</course>
  <speed>0.022360679774997897</speed>
  <fix>3d</fix>
</trkpt>
<trkpt lat="40.072842" lon="-105.230575">
  <ele>1586.09</ele>
  <time>2026-08-27T18:28:25Z</time>
  <course>251.14</course>
  <speed>0.0</speed>
  <fix>3d</fix>
</trkpt>
<trkpt lat="40.0728419" lon="-105.2305749">
  <ele>1586.17</ele>
  <time>2026-08-27T18:28:25Z</time>
  <course>10.51</course>
  <speed>0.0282842712474619</speed>
  <fix>3d</fix>
</trkpt>
<trkpt lat="40.072842" lon="-105.230575">
  <ele>1586.09</ele>
  <time>2026-08-27T18:28:25Z</time>
  <course>280.04</course>
  <speed>0.0</speed>
  <fix>3d</fix>
</trkpt>
<trkpt lat="40.0728419" lon="-105.2305749">
  <ele>1586.15</ele>
  <time>2026-08-27T18:28:25Z</time>
  <course>10.51</course>
  <speed>0.022360679774997897</speed>
  <fix>3d</fix>
</trkpt>
<trkpt lat="40.072842" lon="-105.230575">
  <ele>1586.09</ele>
  <time>2026-08-27T18:28:25Z</time>
  <course>101.94</course>
  <speed>0.0</speed>
  <fix>3d</fix>
</trkpt>
<trkpt lat="40.0728419" lon="-105.2305749">
  <ele>1586.14</ele>
  <time>2026-08-27T18:28:25Z</time>
  <course>10.51</course>
  <speed>0.022360679774997897</speed>
  <fix>3d</fix>
</trkpt>
<trkpt lat="40.072842" lon="-105.230575">
  <ele>1586.09</ele>
  <time>2026-08-27T18:28:25Z</time>
  <course>98.88</course>
  <speed>0.0</speed>
  <fix>3d</fix>
</trkpt>
<trkpt lat="40.0728419" lon="-105.2305749">
  <ele>1586.14</ele>
  <time>2026-08-27T18:28:25Z</time>
  <course>10.51</course>
  <speed>0.022360679774997897</speed>
  <fix>3d</fix>
</trkpt>
<trkpt lat="40.072842" lon="-105.230575">
  <ele>1586.09</ele>
  <time>2026-08-27T18:28:25Z</time>
  <course>315.6</course>
  <speed>0.0</speed>
  <fix>3d</fix>
</trkpt>
<trkpt lat="40.0728419" lon="-105.2305749">
  <ele>1586.14</ele>
  <time>2026-08-27T18:28:25Z</time>
  <course>10.51</course>
  <speed>0.022360679774997897</speed>
  <fix>3d</fix>
</trkpt>
<trkpt lat="40.072842" lon="-105.230575">
  <ele>1586.09</ele>
  <time>2026-08-27T18:28:25Z</time>
  <course>271.56</course>
  <speed>0.0</speed>
  <fix>3d</fix>
</trkpt>
<trkpt lat="40.0728419" lon="-105.2305749">
  <ele>1586.15</ele>
  <time>2026-08-27T18:28:25Z</time>
  <course>10.51</course>
  <speed>0.022360679774997897</speed>
  <fix>3d</fix>
</trkpt>
<trkpt lat="40.072842" lon="-105.230575">
  <ele>1586.09</ele>
  <time>2026-08-27T18:28:25Z</time>
  <course>120.67</course>
  <speed>0.0</speed>
  <fix>3d</fix>
</trkpt>
<trkpt lat="40.0728419" lon="-105.2305749">
  <ele>1586.15</ele>
  <time>2026-08-27T18:28:25Z</time>
  <course>10.51</course>
  <speed>0.022360679774997897</speed>
  <fix>3d</fix>
</trkpt>
<trkpt lat="40.072842" lon="-105.230575">
  <ele>1586.09</ele>
  <time>2026-08-27T18:28:25Z</time>
  <course>58.19</course>
  <speed>0.0</speed>
  <fix>3d</fix>
</trkpt>
<trkpt lat="40.0728419" lon="-105.2305749">
  <ele>1586.16</ele>
  <time>2026-08-27T18:28:25Z</time>
  <course>10.51</course>
  <speed>0.022360679774997897</speed>
  <fix>3d</fix>
</trkpt>
<trkpt lat="40.072842" lon="-105.230575">
  <ele>1586.09</ele>
  <time>2026-08-27T18:28:25Z</time>
  <course>278.84</course>
  <speed>0.0</speed>
  <fix>3d</fix>
</trkpt>
<trkpt lat="40.0728419" lon="-105.2305749">
  <ele>1586.17</ele>
  <time>2026-08-27T18:28:25Z</time>
  <course>10.51</course>
  <speed>0.01414213562373095</speed>
  <fix>3d</fix>
</trkpt>
<trkpt lat="40.072842" lon="-105.230575">
  <ele>1586.09</ele>
  <time>2026-08-27T18:28:25Z</time>
  <course>77.06</course>
  <speed>0.0</speed>
  <fix>3d</fix>
</trkpt>
<trkpt lat="40.0728419" lon="-105.2305749">
  <ele>1586.17</ele>
  <time>2026-08-27T18:28:25Z</time>
  <course>10.52</course>
  <speed>0.01414213562373095</speed>
  <fix>3d</fix>
</trkpt>
<trkpt lat="40.072842" lon="-105.230575">
  <ele>1586.09</ele>
  <time>2026-08-27T18:28:25Z</time>
  <course>64.37</course>
  <speed>0.0</speed>
  <fix>3d</fix>
</trkpt>
<trkpt lat="40.0728419" lon="-105.2305749">
  <ele>1586.17</ele>
  <time>2026-08-27T18:28:25Z</time>
  <course>10.52</course>
  <speed>0.01414213562373095</speed>
  <fix>3d</fix>
</trkpt>
<trkpt lat="40.072842" lon="-105.230575">
  <ele>1586.09</ele>
  <time>2026-08-27T18:28:25Z</time>
  <course>285.74</course>
  <speed>0.0</speed>
  <fix>3d</fix>
</trkpt>
<trkpt lat="40.0728419" lon="-105.2305749">
  <ele>1586.18</ele>
  <time>2026-08-27T18:28:25Z</time>
  <course>10.52</course>
  <speed>0.01414213562373095</speed>
  <fix>3d</fix>
</trkpt>
<trkpt lat="40.072842" lon="-105.230575">
  <ele>1586.09</ele>
  <time>2026-08-27T18:28:25Z</time>
  <course>270.18</course>
  <speed>0.0</speed>
  <fix>3d</fix>
</trkpt>
<trkpt lat="40.0728419" lon="-105.2305749">
  <ele>1586.19</ele>
  <time>2026-08-27T18:28:25Z</time>
  <course>10.52</course>
  <speed>0.01414213562373095</speed>
  <fix>3d</fix>
</trkpt>
<trkpt lat="40.072842" lon="-105.230575">
  <ele>1586.09</ele>
  <time>2026-08-27T18:28:25Z</time>
  <course>296.04</course>
  <speed>0.0</speed>
  <fix>3d</fix>
</trkpt>
<trkpt lat="40.0728419" lon="-105.2305749">
  <ele>1586.2</ele>
  <time>2026-08-27T18:28:25Z</time>
  <course>10.52</course>
  <speed>0.01</speed>
  <fix>3d</fix>
</trkpt>
<trkpt lat="40.072842" lon="-105.230575">
  <ele>1586.09</ele>
  <time>2026-08-27T18:28:25Z</time>
  <course>289.88</course>
  <speed>0.0</speed>
  <fix>3d</fix>
</trkpt>
<trkpt lat="40.0728419" lon="-105.2305749">
  <ele>1586.2</ele>
  <time>2026-08-27T18:28:25Z</time>
  <course>10.52</course>
  <speed>0.01</speed>
  <fix>3d</fix>
</trkpt>
<trkpt lat="40.072842" lon="-105.230575">
  <ele>1586.09</ele>
  <time>2026-08-27T18:28:25Z</time>
  <course>289.72</course>
  <speed>0.0</speed>
  <fix>3d</fix>
</trkpt>
<trkpt lat="40.0728419" lon="-105.2305749">
  <ele>1586.21</ele>
  <time>2026-08-27T18:28:25Z</time>
  <course>10.52</course>
  <speed>0.01</speed>
  <fix>3d</fix>
</trkpt>
<trkpt lat="40.072842" lon="-105.230575">
  <ele>1586.09</ele>
  <time>2026-08-27T18:28:25Z</time>
  <course>289.68</course>
  <speed>0.0</speed>
  <fix>3d</fix>
</trkpt>
<trkpt lat="40.0728419" lon="-105.2305749">
  <ele>1586.21</ele>
  <time>2026-08-27T18:28:25Z</time>
  <course>10.52</course>
  <speed>0.01</speed>
  <fix>3d</fix>
</trkpt>
<trkpt lat="40.072842" lon="-105.230575">
  <ele>1586.09</ele>
  <time>2026-08-27T18:28:25Z</time>
  <course>289.7</course>
  <speed>0.0</speed>
  <fix>3d</fix>
</trkpt>
<trkpt lat="40.0728419" lon="-105.2305749">
  <ele>1586.21</ele>
  <time>2026-08-27T18:28:25Z</time>
  <course>10.52</course>
  <speed>0.01</speed>
  <fix>3d</fix>
</trkpt>
<trkpt lat="40.072842" lon="-105.230575">
  <ele>1586.09</ele>
  <time>2026-08-27T18:28:25Z</time>
  <course>289.71</course>
  <speed>0.0</speed>
  <fix>3d</fix>
</trkpt>
<trkpt lat="40.0728419" lon="-105.2305749">
  <ele>1586.21</ele>
  <time>2026-08-27T18:28:25Z</time>
  <course>10.52</course>
  <speed>0.01</speed>
  <fix>3d</fix>
</trkpt>
<trkpt lat="40.072842" lon="-105.230575">
  <ele>1586.09</ele>
  <time>2026-08-27T18:28:25Z</time>
  <course>289.7</course>
  <speed>0.0</speed>
  <fix>3d</fix>
</trkpt>
<trkpt lat="40.0728419" lon="-105.2305749">
  <ele>1586.21</ele>
  <time>2026-08-27T18:28:25Z</time>
  <course>10.52</course>
  <speed>0.01</speed>
  <fix>3d</fix>
</trkpt>
<trkpt lat="40.072842" lon="-105.230575">
  <ele>1586.09</ele>
  <time>2026-08-27T18:28:25Z</time>
  <course>289.7</course>
  <speed>0.0</speed>
  <fix>3d</fix>
</trkpt>
<trkpt lat="40.0728419" lon="-105.2305749">
  <ele>1586.2</ele>
  <time>2026-08-27T18:28:25Z</time>
  <course>10.52</course>
  <speed>0.01</speed>
  <fix>3d</fix>
</trkpt>
<trkpt lat="40.072842" lon="-105.230575">
  <ele>1586.09</ele>
  <time>2026-08-27T18:28:25Z</time>
  <course>289.71</course>
  <speed>0.0</speed>
  <fix>3d</fix>
</trkpt>
<trkpt lat="40.0728419" lon="-105.2305749">
  <ele>1586.2</ele>
  <time>2026-08-27T18:28:25Z</time>
  <course>10.52</course>
  <speed>0.01</speed>
  <fix>3d</fix>
</trkpt>
<trkpt lat="40.072842" lon="-105.230575">
  <ele>1586.09</ele>
  <time>2026-08-27T18:28:25Z</time>
  <course>289.71</course>
  <speed>0.0</speed>
  <fix>3d</fix>
</trkpt>
<trkpt lat="40.0728419" lon="-105.2305749">
  <ele>1586.2</ele>
  <time>2026-08-27T18:28:25Z</time>
  <course>10.52</course>
  <speed>0.01</speed>
  <fix>3d</fix>
</trkpt>
<trkpt lat="40.072842" lon="-105.230575">
  <ele>1586.09</ele>
  <time>2026-08-27T18:28:25Z</time>
  <course>289.71</course>
  <speed>0.0</speed>
  <fix>3d</fix>
</trkpt>
<trkpt lat="40.0728419" lon="-105.2305749">
  <ele>1586.19</ele>
  <time>2026-08-27T18:28:25Z</time>
  <course>10.52</course>
  <speed>0.01414213562373095</speed>
  <fix>3d</fix>
</trkpt>
<trkpt lat="40.072842" lon="-105.230575">
  <ele>1586.09</ele>
  <time>2026-08-27T18:28:25Z</time>
  <course>289.71</course>
  <speed>0.0</speed>
  <fix>3d</fix>
</trkpt>
<trkpt lat="40.0728419" lon="-105.2305749">
  <ele>1586.19</ele>
  <time>2026-08-27T18:28:25Z</time>
  <course>10.52</course>
  <speed>0.01414213562373095</speed>
  <fix>3d</fix>
</trkpt>
<trkpt lat="40.072842" lon="-105.230575">
  <ele>1586.09</ele>
  <time>2026-08-27T18:28:25Z</time>
  <course>289.71</course>
  <speed>0.0</speed>
  <fix>3d</fix>
</trkpt>
<trkpt lat="40.0728419" lon="-105.2305749">
  <ele>1586.2</ele>
  <time>2026-08-27T18:28:25Z</time>
  <course>10.52</course>
  <speed>0.01414213562373095</speed>
  <fix>3d</fix>
</trkpt>
<trkpt lat="40.072842" lon="-105.230575">
  <ele>1586.09</ele>
  <time>2026-08-27T18:28:25Z</time>
  <course>289.71</course>
  <speed>0.0</speed>
  <fix>3d</fix>
</trkpt>
<trkpt lat="40.0728419" lon="-105.2305749">
  <ele>1586.2</ele>
  <time>2026-08-27T18:28:25Z</time>
  <course>10.52</course>
  <speed>0.01414213562373095</speed>
  <fix>3d</fix>
</trkpt>
<trkpt lat="40.072842" lon="-105.230575">
  <ele>1586.09</ele>
  <time>2026-08-27T18:28:25Z</time>
  <course>289.71</course>
  <speed>0.0</speed>
  <fix>3d</fix>
</trkpt>
<trkpt lat="40.0728419" lon="-105.2305749">
  <ele>1586.2</ele>
  <time>2026-08-27T18:28:25Z</time>
  <course>10.52</course>
  <speed>0.01414213562373095</speed>
  <fix>3d</fix>
</trkpt>
<trkpt lat="40.072842" lon="-105.230575">
  <ele>1586.09</ele>
  <time>2026-08-27T18:28:25Z</time>
  <course>289.71</course>
  <speed>0.0</speed>
  <fix>3d</fix>
</trkpt>
<trkpt lat="40.0728419" lon="-105.2305749">
  <ele>1586.2</ele>
  <time>2026-08-27T18:28:25Z</time>
  <course>10.52</course>
  <speed>0.01414213562373095</speed>
  <fix>3d</fix>
</trkpt>
<trkpt lat="40.072842" lon="-105.230575">
  <ele>1586.09</ele>
  <time>2026-08-27T18:28:25Z</time>
  <course>271.22</course>
  <speed>0.0</speed>
  <fix>3d</fix>
</trkpt>
<trkpt lat="40.0728419" lon="-105.2305749">
  <ele>1586.2</ele>
  <time>2026-08-27T18:28:25Z</time>
  <course>10.52</course>
  <speed>0.01414213562373095</speed>
  <fix>3d</fix>
</trkpt>
<trkpt lat="40.072842" lon="-105.230575">
  <ele>1586.09</ele>
  <time>2026-08-27T18:28:25Z</time>
  <course>264.02</course>
  <speed>0.0</speed>
  <fix>3d</fix>
</trkpt>
<trkpt lat="40.0728419" lon="-105.2305749">
  <ele>1586.2</ele>
  <time>2026-08-27T18:28:25Z</time>
  <course>10.52</course>
  <speed>0.01414213562373095</speed>
  <fix>3d</fix>
</trkpt>
<trkpt lat="40.072842" lon="-105.230575">
  <ele>1586.09</ele>
  <time>2026-08-27T18:28:25Z</time>
  <course>203.76</course>
  <speed>0.0</speed>
  <fix>3d</fix>
</trkpt>
<trkpt lat="40.0728419" lon="-105.2305749">
  <ele>1586.2</ele>
  <time>2026-08-27T18:28:25Z</time>
  <course>10.52</course>
  <speed>0.01414213562373095</speed>
  <fix>3d</fix>
</trkpt>
<trkpt lat="40.072842" lon="-105.230575">
  <ele>1586.09</ele>
  <time>2026-08-27T18:28:25Z</time>
  <course>342.94</course>
  <speed>0.0</speed>
  <fix>3d</fix>
</trkpt>
<trkpt lat="40.0728419" lon="-105.2305749">
  <ele>1586.2</ele>
  <time>2026-08-27T18:28:25Z</time>
  <course>10.52</course>
  <speed>0.01414213562373095</speed>
  <fix>3d</fix>
</trkpt>
<trkpt lat="40.072842" lon="-105.230575">
  <ele>1586.09</ele>
  <time>2026-08-27T18:28:25Z</time>
  <course>285.69</course>
  <speed>0.0</speed>
  <fix>3d</fix>
</trkpt>
<trkpt lat="40.0728419" lon="-105.2305749">
  <ele>1586.19</ele>
  <time>2026-08-27T18:28:25Z</time>
  <course>10.53</course>
  <speed>0.022360679774997897</speed>
  <fix>3d</fix>
</trkpt>
<trkpt lat="40.072842" lon="-105.230575">
  <ele>1586.09</ele>
  <time>2026-08-27T18:28:25Z</time>
  <course>281.74</course>
  <speed>0.0</speed>
  <fix>3d</fix>
</trkpt>
<trkpt lat="40.0728419" lon="-105.2305749">
  <ele>1586.18</ele>
  <time>2026-08-27T18:28:25Z</time>
  <course>10.53</course>
  <speed>0.022360679774997897</speed>
  <fix>3d</fix>
</trkpt>
<trkpt lat="40.072842" lon="-105.230575">
  <ele>1586.09</ele>
  <time>2026-08-27T18:28:25Z</time>
  <course>285.75</course>
  <speed>0.0</speed>
  <fix>3d</fix>
</trkpt>
<trkpt lat="40.0728419" lon="-105.2305749">
  <ele>1586.18</ele>
  <time>2026-08-27T18:28:25Z</time>
  <course>10.53</course>
  <speed>0.022360679774997897</speed>
  <fix>3d</fix>
</trkpt>
<trkpt lat="40.072842" lon="-105.230575">
  <ele>1586.09</ele>
  <time>2026-08-27T18:28:25Z</time>
  <course>285.81</course>
  <speed>0.0</speed>
  <fix>3d</fix>
</trkpt>
<trkpt lat="40.0728419" lon="-105.2305749">
  <ele>1586.19</ele>
  <time>2026-08-27T18:28:25Z</time>
  <course>10.53</course>
  <speed>0.022360679774997897</speed>
  <fix>3d</fix>
</trkpt>
<trkpt lat="40.072842" lon="-105.230575">
  <ele>1586.09</ele>
  <time>2026-08-27T18:28:25Z</time>
  <course>285.23</course>
  <speed>0.0</speed>
  <fix>3d</fix>
</trkpt>
<trkpt lat="40.0728419" lon="-105.2305749">
  <ele>1586.19</ele>
  <time>2026-08-27T18:28:25Z</time>
  <course>10.53</course>
  <speed>0.022360679774997897</speed>
  <fix>3d</fix>
</trkpt>
<trkpt lat="40.072842" lon="-105.230575">
  <ele>1586.09</ele>
  <time>2026-08-27T18:28:25Z</time>
  <course>285.29</course>
  <speed>0.0</speed>
  <fix>3d</fix>
</trkpt>
<trkpt lat="40.0728419" lon="-105.2305749">
  <ele>1586.19</ele>
  <time>2026-08-27T18:28:25Z</time>
  <course>10.53</course>
  <speed>0.022360679774997897</speed>
  <fix>3d</fix>
</trkpt>
<trkpt lat="40.072842" lon="-105.230575">
  <ele>1586.09</ele>
  <time>2026-08-27T18:28:25Z</time>
  <course>285.36</course>
  <speed>0.0</speed>
  <fix>3d</fix>
</trkpt>
<trkpt lat="40.0728419" lon="-105.2305749">
  <ele>1586.18</ele>
  <time>2026-08-27T18:28:25Z</time>
  <course>10.53</course>
  <speed>0.022360679774997897</speed>
  <fix>3d</fix>
</trkpt>
<trkpt lat="40.072842" lon="-105.230575">
  <ele>1586.09</ele>
  <time>2026-08-27T18:28:25Z</time>
  <course>301.72</course>
  <speed>0.0</speed>
  <fix>3d</fix>
</trkpt>
<trkpt lat="40.0728419" lon="-105.2305749">
  <ele>1586.18</ele>
  <time>2026-08-27T18:28:25Z</time>
  <course>10.53</course>
  <speed>0.022360679774997897</speed>
  <fix>3d</fix>
</trkpt>
<trkpt lat="40.072842" lon="-105.230575">
  <ele>1586.09</ele>
  <time>2026-08-27T18:28:25Z</time>
  <course>295.21</course>
  <speed>0.0</speed>
  <fix>3d</fix>
</trkpt>
<trkpt lat="40.0728419" lon="-105.2305749">
  <ele>1586.18</ele>
  <time>2026-08-27T18:28:25Z</time>
  <course>10.53</course>
  <speed>0.022360679774997897</speed>
  <fix>3d</fix>
</trkpt>
<trkpt lat="40.072842" lon="-105.230575">
  <ele>1586.09</ele>
  <time>2026-08-27T18:28:25Z</time>
  <course>279.78</course>
  <speed>0.0</speed>
  <fix>3d</fix>
</trkpt>
<trkpt lat="40.0728419" lon="-105.2305749">
  <ele>1586.18</ele>
  <time>2026-08-27T18:28:25Z</time>
  <course>10.53</course>
  <speed>0.022360679774997897</speed>
  <fix>3d</fix>
</trkpt>
<trkpt lat="40.072842" lon="-105.230575">
  <ele>1586.09</ele>
  <time>2026-08-27T18:28:25Z</time>
  <course>284.69</course>
  <speed>0.0</speed>
  <fix>3d</fix>
</trkpt>
<trkpt lat="40.0728419" lon="-105.2305749">
  <ele>1586.18</ele>
  <time>2026-08-27T18:28:25Z</time>
  <course>10.53</course>
  <speed>0.022360679774997897</speed>
  <fix>3d</fix>
</trkpt>
<trkpt lat="40.072842" lon="-105.230575">
  <ele>1586.09</ele>
  <time>2026-08-27T18:28:25Z</time>
  <course>286.26</course>
  <speed>0.0</speed>
  <fix>3d</fix>
</trkpt>
<trkpt lat="40.0728419" lon="-105.2305749">
  <ele>1586.18</ele>
  <time>2026-08-27T18:28:25Z</time>
  <course>10.53</course>
  <speed>0.022360679774997897</speed>
  <fix>3d</fix>
</trkpt>
<trkpt lat="40.072842" lon="-105.230575">
  <ele>1586.09</ele>
  <time>2026-08-27T18:28:25Z</time>
  <course>285.27</course>
  <speed>0.0</speed>
  <fix>3d</fix>
</trkpt>
<trkpt lat="40.0728419" lon="-105.2305749">
  <ele>1586.18</ele>
  <time>2026-08-27T18:28:26Z</time>
  <course>10.53</course>
  <speed>0.022360679774997897</speed>
  <fix>3d</fix>
</trkpt>
<trkpt lat="40.072842" lon="-105.230575">
  <ele>1586.09</ele>
  <time>2026-08-27T18:28:26Z</time>
  <course>285.09</course>
  <speed>0.0</speed>
  <fix>3d</fix>
</trkpt>
<trkpt lat="40.0728419" lon="-105.2305749">
  <ele>1586.18</ele>
  <time>2026-08-27T18:28:26Z</time>
  <course>10.53</course>
  <speed>0.022360679774997897</speed>
  <fix>3d</fix>
</trkpt>
<trkpt lat="40.072842" lon="-105.230575">
  <ele>1586.09</ele>
  <time>2026-08-27T18:28:26Z</time>
  <course>285.12</course>
  <speed>0.0</speed>
  <fix>3d</fix>
</trkpt>
<trkpt lat="40.0728419" lon="-105.2305749">
  <ele>1586.18</ele>
  <time>2026-08-27T18:28:26Z</time>
  <course>10.52</course>
  <speed>0.022360679774997897</speed>
  <fix>3d</fix>
</trkpt>
<trkpt lat="40.072842" lon="-105.230575">
  <ele>1586.09</ele>
  <time>2026-08-27T18:28:26Z</time>
  <course>285.03</course>
  <speed>0.0</speed>
  <fix>3d</fix>
</trkpt>
<trkpt lat="40.0728419" lon="-105.2305749">
  <ele>1586.18</ele>
  <time>2026-08-27T18:28:26Z</time>
  <course>10.51</course>
  <speed>0.022360679774997897</speed>
  <fix>3d</fix>
</trkpt>
<trkpt lat="40.072842" lon="-105.230575">
  <ele>1586.09</ele>
  <time>2026-08-27T18:28:26Z</time>
  <course>284.91</course>
  <speed>0.0</speed>
  <fix>3d</fix>
</trkpt>
<trkpt lat="40.0728419" lon="-105.2305749">
  <ele>1586.18</ele>
  <time>2026-08-27T18:28:26Z</time>
  <course>10.5</course>
  <speed>0.01414213562373095</speed>
  <fix>3d</fix>
</trkpt>
<trkpt lat="40.072842" lon="-105.230575">
  <ele>1586.09</ele>
  <time>2026-08-27T18:28:26Z</time>
  <course>284.81</course>
  <speed>0.0</speed>
  <fix>3d</fix>
</trkpt>
<trkpt lat="40.0728419" lon="-105.2305749">
  <ele>1586.18</ele>
  <time>2026-08-27T18:28:26Z</time>
  <course>10.49</course>
  <speed>0.01414213562373095</speed>
  <fix>3d</fix>
</trkpt>
<trkpt lat="40.072842" lon="-105.230575">
  <ele>1586.09</ele>
  <time>2026-08-27T18:28:26Z</time>
  <course>284.71</course>
  <speed>0.0</speed>
  <fix>3d</fix>
</trkpt>
<trkpt lat="40.0728419" lon="-105.2305749">
  <ele>1586.18</ele>
  <time>2026-08-27T18:28:26Z</time>
  <course>10.48</course>
  <speed>0.01414213562373095</speed>
  <fix>3d</fix>
</trkpt>
<trkpt lat="40.072842" lon="-105.230575">
  <ele>1586.09</ele>
  <time>2026-08-27T18:28:26Z</time>
  <course>284.61</course>
  <speed>0.0</speed>
  <fix>3d</fix>
</trkpt>
<trkpt lat="40.0728419" lon="-105.2305749">
  <ele>1586.18</ele>
  <time>2026-08-27T18:28:26Z</time>
  <course>10.47</course>
  <speed>0.01414213562373095</speed>
  <fix>3d</fix>
</trkpt>
<trkpt lat="40.072842" lon="-105.230575">
  <ele>1586.09</ele>
  <time>2026-08-27T18:28:26Z</time>
  <course>284.5</course>
  <speed>0.0</speed>
  <fix>3d</fix>
</trkpt>
<trkpt lat="40.0728419" lon="-105.2305749">
  <ele>1586.18</ele>
  <time>2026-08-27T18:28:26Z</time>
  <course>10.47</course>
  <speed>0.01414213562373095</speed>
  <fix>3d</fix>
</trkpt>
<trkpt lat="40.072842" lon="-105.230575">
  <ele>1586.09</ele>
  <time>2026-08-27T18:28:26Z</time>
  <course>284.59</course>
  <speed>0.0</speed>
  <fix>3d</fix>
</trkpt>
<trkpt lat="40.0728419" lon="-105.2305749">
  <ele>1586.17</ele>
  <time>2026-08-27T18:28:26Z</time>
  <course>10.47</course>
  <speed>0.01414213562373095</speed>
  <fix>3d</fix>
</trkpt>
<trkpt lat="40.072842" lon="-105.230575">
  <ele>1586.09</ele>
  <time>2026-08-27T18:28:26Z</time>
  <course>285.04</course>
  <speed>0.0</speed>
  <fix>3d</fix>
</trkpt>
<trkpt lat="40.0728419" lon="-105.2305749">
  <ele>1586.17</ele>
  <time>2026-08-27T18:28:26Z</time>
  <course>10.47</course>
  <speed>0.01414213562373095</speed>
  <fix>3d</fix>
</trkpt>
<trkpt lat="40.072842" lon="-105.230575">
  <ele>1586.09</ele>
  <time>2026-08-27T18:28:26Z</time>
  <course>331.43</course>
  <speed>0.0</speed>
  <fix>3d</fix>
</trkpt>
<trkpt lat="40.0728419" lon="-105.2305749">
  <ele>1586.18</ele>
  <time>2026-08-27T18:28:26Z</time>
  <course>10.47</course>
  <speed>0.01414213562373095</speed>
  <fix>3d</fix>
</trkpt>
<trkpt lat="40.072842" lon="-105.230575">
  <ele>1586.09</ele>
  <time>2026-08-27T18:28:26Z</time>
  <course>298.94</course>
  <speed>0.0</speed>
  <fix>3d</fix>
</trkpt>
<trkpt lat="40.0728419" lon="-105.2305749">
  <ele>1586.18</ele>
  <time>2026-08-27T18:28:26Z</time>
  <course>10.47</course>
  <speed>0.01414213562373095</speed>
  <fix>3d</fix>
</trkpt>
<trkpt lat="40.072842" lon="-105.230575">
  <ele>1586.09</ele>
  <time>2026-08-27T18:28:26Z</time>
  <course>258.98</course>
  <speed>0.0</speed>
  <fix>3d</fix>
</trkpt>
<trkpt lat="40.0728419" lon="-105.2305749">
  <ele>1586.18</ele>
  <time>2026-08-27T18:28:26Z</time>
  <course>10.47</course>
  <speed>0.01414213562373095</speed>
  <fix>3d</fix>
</trkpt>
<trkpt lat="40.072842" lon="-105.230575">
  <ele>1586.09</ele>
  <time>2026-08-27T18:28:26Z</time>
  <course>145.62</course>
  <speed>0.0</speed>
  <fix>3d</fix>
</trkpt>
<trkpt lat="40.0728419" lon="-105.2305749">
  <ele>1586.17</ele>
  <time>2026-08-27T18:28:26Z</time>
  <course>10.47</course>
  <speed>0.01414213562373095</speed>
  <fix>3d</fix>
</trkpt>
<trkpt lat="40.072842" lon="-105.230575">
  <ele>1586.09</ele>
  <time>2026-08-27T18:28:26Z</time>
  <course>280.57</course>
  <speed>0.0</speed>
  <fix>3d</fix>
</trkpt>
<trkpt lat="40.0728419" lon="-105.2305749">
  <ele>1586.17</ele>
  <time>2026-08-27T18:28:26Z</time>
  <course>10.47</course>
  <speed>0.01414213562373095</speed>
  <fix>3d</fix>
</trkpt>
<trkpt lat="40.072842" lon="-105.230575">
  <ele>1586.09</ele>
  <time>2026-08-27T18:28:26Z</time>
  <course>265.62</course>
  <speed>0.0</speed>
  <fix>3d</fix>
</trkpt>
<trkpt lat="40.0728419" lon="-105.2305749">
  <ele>1586.17</ele>
  <time>2026-08-27T18:28:26Z</time>
  <course>10.46</course>
  <speed>0.01414213562373095</speed>
  <fix>3d</fix>
</trkpt>
<trkpt lat="40.072842" lon="-105.230575">
  <ele>1586.09</ele>
  <time>2026-08-27T18:28:26Z</time>
  <course>193.99</course>
  <speed>0.0</speed>
  <fix>3d</fix>
</trkpt>
<trkpt lat="40.0728419" lon="-105.2305749">
  <ele>1586.17</ele>
  <time>2026-08-27T18:28:26Z</time>
  <course>10.46</course>
  <speed>0.01414213562373095</speed>
  <fix>3d</fix>
</trkpt>
<trkpt lat="40.072842" lon="-105.230575">
  <ele>1586.09</ele>
  <time>2026-08-27T18:28:26Z</time>
  <course>295.33</course>
  <speed>0.0</speed>
  <fix>3d</fix>
</trkpt>
<trkpt lat="40.0728419" lon="-105.2305749">
  <ele>1586.17</ele>
  <time>2026-08-27T18:28:26Z</time>
  <course>10.45</course>
  <speed>0.01414213562373095</speed>
  <fix>3d</fix>
</trkpt>
<trkpt lat="40.072842" lon="-105.230575">
  <ele>1586.09</ele>
  <time>2026-08-27T18:28:26Z</time>
  <course>291.37</course>
  <speed>0.0</speed>
  <fix>3d</fix>
</trkpt>
<trkpt lat="40.0728419" lon="-105.2305749">
  <ele>1586.16</ele>
  <time>2026-08-27T18:28:26Z</time>
  <course>10.44</course>
  <speed>0.01414213562373095</speed>
  <fix>3d</fix>
</trkpt>
<trkpt lat="40.072842" lon="-105.230575">
  <ele>1586.09</ele>
  <time>2026-08-27T18:28:26Z</time>
  <course>291.7</course>
  <speed>0.0</speed>
  <fix>3d</fix>
</trkpt>
<trkpt lat="40.0728419" lon="-105.2305749">
  <ele>1586.16</ele>
  <time>2026-08-27T18:28:26Z</time>
  <course>10.43</course>
  <speed>0.01414213562373095</speed>
  <fix>3d</fix>
</trkpt>
<trkpt lat="40.072842" lon="-105.230575">
  <ele>1586.09</ele>
  <time>2026-08-27T18:28:26Z</time>
  <course>274.6</course>
  <speed>0.0</speed>
  <fix>3d</fix>
</trkpt>
<trkpt lat="40.0728419" lon="-105.2305749">
  <ele>1586.16</ele>
  <time>2026-08-27T18:28:26Z</time>
  <course>10.42</course>
  <speed>0.01414213562373095</speed>
  <fix>3d</fix>
</trkpt>
<trkpt lat="40.072842" lon="-105.230575">
  <ele>1586.09</ele>
  <time>2026-08-27T18:28:26Z</time>
  <course>298.78</course>
  <speed>0.0</speed>
  <fix>3d</fix>
</trkpt>
<trkpt lat="40.0728419" lon="-105.2305749">
  <ele>1586.16</ele>
  <time>2026-08-27T18:28:26Z</time>
  <course>10.41</course>
  <speed>0.01414213562373095</speed>
  <fix>3d</fix>
</trkpt>
<trkpt lat="40.072842" lon="-105.230575">
  <ele>1586.09</ele>
  <time>2026-08-27T18:28:26Z</time>
  <course>312.45</course>
  <speed>0.0</speed>
  <fix>3d</fix>
</trkpt>
<trkpt lat="40.0728419" lon="-105.2305749">
  <ele>1586.16</ele>
  <time>2026-08-27T18:28:26Z</time>
  <course>10.39</course>
  <speed>0.022360679774997897</speed>
  <fix>3d</fix>
</trkpt>
<trkpt lat="40.072842" lon="-105.230575">
  <ele>1586.09</ele>
  <time>2026-08-27T18:28:26Z</time>
  <course>284.26</course>
  <speed>0.0</speed>
  <fix>3d</fix>
</trkpt>
<trkpt lat="40.0728419" lon="-105.2305749">
  <ele>1586.16</ele>
  <time>2026-08-27T18:28:26Z</time>
  <course>10.38</course>
  <speed>0.022360679774997897</speed>
  <fix>3d</fix>
</trkpt>
<trkpt lat="40.072842" lon="-105.230575">
  <ele>1586.09</ele>
  <time>2026-08-27T18:28:26Z</time>
  <course>266.77</course>
  <speed>0.0</speed>
  <fix>3d</fix>
</trkpt>
<trkpt lat="40.0728419" lon="-105.2305749">
  <ele>1586.16</ele>
  <time>2026-08-27T18:28:26Z</time>
  <course>10.36</course>
  <speed>0.022360679774997897</speed>
  <fix>3d</fix>
</trkpt>
<trkpt lat="40.072842" lon="-105.230575">
  <ele>1586.09</ele>
  <time>2026-08-27T18:28:26Z</time>
  <course>303.85</course>
  <speed>0.0</speed>
  <fix>3d</fix>
</trkpt>
<trkpt lat="40.0728419" lon="-105.2305749">
  <ele>1586.16</ele>
  <time>2026-08-27T18:28:26Z</time>
  <course>10.34</course>
  <speed>0.022360679774997897</speed>
  <fix>3d</fix>
</trkpt>
<trkpt lat="40.072842" lon="-105.230575">
  <ele>1586.09</ele>
  <time>2026-08-27T18:28:26Z</time>
  <course>293.1</course>
  <speed>0.0</speed>
  <fix>3d</fix>
</trkpt>
<trkpt lat="40.0728419" lon="-105.2305749">
  <ele>1586.16</ele>
  <time>2026-08-27T18:28:26Z</time>
  <course>10.32</course>
  <speed>0.022360679774997897</speed>
  <fix>3d</fix>
</trkpt>
<trkpt lat="40.072842" lon="-105.230575">
  <ele>1586.09</ele>
  <time>2026-08-27T18:28:26Z</time>
  <course>267.18</course>
  <speed>0.0</speed>
  <fix>3d</fix>
</trkpt>
<trkpt lat="40.0728419" lon="-105.2305749">
  <ele>1586.16</ele>
  <time>2026-08-27T18:28:26Z</time>
  <course>10.3</course>
  <speed>0.022360679774997897</speed>
  <fix>3d</fix>
</trkpt>
<trkpt lat="40.072842" lon="-105.230575">
  <ele>1586.09</ele>
  <time>2026-08-27T18:28:26Z</time>
  <course>309.43</course>
  <speed>0.0</speed>
  <fix>3d</fix>
</trkpt>
<trkpt lat="40.0728419" lon="-105.2305749">
  <ele>1586.16</ele>
  <time>2026-08-27T18:28:26Z</time>
  <course>10.27</course>
  <speed>0.022360679774997897</speed>
  <fix>3d</fix>
</trkpt>
<trkpt lat="40.072842" lon="-105.230575">
  <ele>1586.09</ele>
  <time>2026-08-27T18:28:26Z</time>
  <course>306.51</course>
  <speed>0.0</speed>
  <fix>3d</fix>
</trkpt>
<trkpt lat="40.0728419" lon="-105.2305749">
  <ele>1586.17</ele>
  <time>2026-08-27T18:28:26Z</time>
  <course>10.25</course>
  <speed>0.022360679774997897</speed>
  <fix>3d</fix>
</trkpt>
<trkpt lat="40.072842" lon="-105.230575">
  <ele>1586.09</ele>
  <time>2026-08-27T18:28:26Z</time>
  <course>273.15</course>
  <speed>0.0</speed>
  <fix>3d</fix>
</trkpt>
<trkpt lat="40.0728419" lon="-105.2305749">
  <ele>1586.17</ele>
  <time>2026-08-27T18:28:26Z</time>
  <course>10.24</course>
  <speed>0.022360679774997897</speed>
  <fix>3d</fix>
</trkpt>
<trkpt lat="40.072842" lon="-105.230575">
  <ele>1586.09</ele>
  <time>2026-08-27T18:28:26Z</time>
  <course>260.44</course>
  <speed>0.0</speed>
  <fix>3d</fix>
</trkpt>
<trkpt lat="40.0728419" lon="-105.2305749">
  <ele>1586.17</ele>
  <time>2026-08-27T18:28:26Z</time>
  <course>10.24</course>
  <speed>0.022360679774997897</speed>
  <fix>3d</fix>
</trkpt>
<trkpt lat="40.072842" lon="-105.230575">
  <ele>1586.09</ele>
  <time>2026-08-27T18:28:26Z</time>
  <course>299.55</course>
  <speed>0.0</speed>
  <fix>3d</fix>
</trkpt>
<trkpt lat="40.0728419" lon="-105.2305749">
  <ele>1586.17</ele>
  <time>2026-08-27T18:28:26Z</time>
  <course>10.24</course>
  <speed>0.022360679774997897</speed>
  <fix>3d</fix>
</trkpt>
<trkpt lat="40.072842" lon="-105.230575">
  <ele>1586.09</ele>
  <time>2026-08-27T18:28:26Z</time>
  <course>295.13</course>
  <speed>0.0</speed>
  <fix>3d</fix>
</trkpt>
<trkpt lat="40.0728419" lon="-105.2305749">
  <ele>1586.17</ele>
  <time>2026-08-27T18:28:26Z</time>
  <course>10.25</course>
  <speed>0.022360679774997897</speed>
  <fix>3d</fix>
</trkpt>
<trkpt lat="40.072842" lon="-105.230575">
  <ele>1586.09</ele>
  <time>2026-08-27T18:28:26Z</time>
  <course>224.71</course>
  <speed>0.0</speed>
  <fix>3d</fix>
</trkpt>
<trkpt lat="40.0728419" lon="-105.2305749">
  <ele>1586.17</ele>
  <time>2026-08-27T18:28:26Z</time>
  <course>10.25</course>
  <speed>0.022360679774997897</speed>
  <fix>3d</fix>
</trkpt>
<trkpt lat="40.072842" lon="-105.230575">
  <ele>1586.09</ele>
  <time>2026-08-27T18:28:26Z</time>
  <course>269.68</course>
  <speed>0.0</speed>
  <fix>3d</fix>
</trkpt>
<trkpt lat="40.0728419" lon="-105.2305749">
  <ele>1586.17</ele>
  <time>2026-08-27T18:28:26Z</time>
  <course>10.25</course>
  <speed>0.022360679774997897</speed>
  <fix>3d</fix>
</trkpt>
<trkpt lat="40.072842" lon="-105.230575">
  <ele>1586.09</ele>
  <time>2026-08-27T18:28:26Z</time>
  <course>295.21</course>
  <speed>0.0</speed>
  <fix>3d</fix>
</trkpt>
<trkpt lat="40.0728419" lon="-105.2305749">
  <ele>1586.17</ele>
  <time>2026-08-27T18:28:26Z</time>
  <course>10.26</course>
  <speed>0.022360679774997897</speed>
  <fix>3d</fix>
</trkpt>
<trkpt lat="40.072842" lon="-105.230575">
  <ele>1586.09</ele>
  <time>2026-08-27T18:28:26Z</time>
  <course>289.79</course>
  <speed>0.0</speed>
  <fix>3d</fix>
</trkpt>
<trkpt lat="40.0728419" lon="-105.2305749">
  <ele>1586.16</ele>
  <time>2026-08-27T18:28:26Z</time>
  <course>10.26</course>
  <speed>0.022360679774997897</speed>
  <fix>3d</fix>
</trkpt>
<trkpt lat="40.072842" lon="-105.230575">
  <ele>1586.09</ele>
  <time>2026-08-27T18:28:26Z</time>
  <course>292.94</course>
  <speed>0.0</speed>
  <fix>3d</fix>
</trkpt>
<trkpt lat="40.0728419" lon="-105.2305749">
  <ele>1586.16</ele>
  <time>2026-08-27T18:28:26Z</time>
  <course>10.26</course>
  <speed>0.022360679774997897</speed>
  <fix>3d</fix>
</trkpt>
<trkpt lat="40.072842" lon="-105.230575">
  <ele>1586.09</ele>
  <time>2026-08-27T18:28:26Z</time>
  <course>300.81</course>
  <speed>0.0</speed>
  <fix>3d</fix>
</trkpt>
<trkpt lat="40.0728419" lon="-105.2305749">
  <ele>1586.16</ele>
  <time>2026-08-27T18:28:26Z</time>
  <course>10.26</course>
  <speed>0.022360679774997897</speed>
  <fix>3d</fix>
</trkpt>
<trkpt lat="40.072842" lon="-105.230575">
  <ele>1586.09</ele>
  <time>2026-08-27T18:28:26Z</time>
  <course>300.16</course>
  <speed>0.0</speed>
  <fix>3d</fix>
</trkpt>
<trkpt lat="40.0728419" lon="-105.2305749">
  <ele>1586.16</ele>
  <time>2026-08-27T18:28:26Z</time>
  <course>10.26</course>
  <speed>0.022360679774997897</speed>
  <fix>3d</fix>
</trkpt>
<trkpt lat="40.072842" lon="-105.230575">
  <ele>1586.09</ele>
  <time>2026-08-27T18:28:26Z</time>
  <course>285.07</course>
  <speed>0.0</speed>
  <fix>3d</fix>
</trkpt>
<trkpt lat="40.0728419" lon="-105.2305749">
  <ele>1586.17</ele>
  <time>2026-08-27T18:28:26Z</time>
  <course>10.27</course>
  <speed>0.022360679774997897</speed>
  <fix>3d</fix>
</trkpt>
<trkpt lat="40.072842" lon="-105.230575">
  <ele>1586.09</ele>
  <time>2026-08-27T18:28:26Z</time>
  <course>279.06</course>
  <speed>0.0</speed>
  <fix>3d</fix>
</trkpt>
<trkpt lat="40.0728419" lon="-105.2305749">
  <ele>1586.17</ele>
  <time>2026-08-27T18:28:26Z</time>
  <course>10.27</course>
  <speed>0.022360679774997897</speed>
  <fix>3d</fix>
</trkpt>
<trkpt lat="40.072842" lon="-105.230575">
  <ele>1586.09</ele>
  <time>2026-08-27T18:28:26Z</time>
  <course>295.71</course>
  <speed>0.0</speed>
  <fix>3d</fix>
</trkpt>
<trkpt lat="40.0728419" lon="-105.2305749">
  <ele>1586.17</ele>
  <time>2026-08-27T18:28:26Z</time>
  <course>10.27</course>
  <speed>0.022360679774997897</speed>
  <fix>3d</fix>
</trkpt>
<trkpt lat="40.072842" lon="-105.230575">
  <ele>1586.09</ele>
  <time>2026-08-27T18:28:26Z</time>
  <course>302.87</course>
  <speed>0.0</speed>
  <fix>3d</fix>
</trkpt>
<trkpt lat="40.0728419" lon="-105.2305749">
  <ele>1586.17</ele>
  <time>2026-08-27T18:28:26Z</time>
  <course>10.27</course>
  <speed>0.022360679774997897</speed>
  <fix>3d</fix>
</trkpt>
<trkpt lat="40.072842" lon="-105.230575">
  <ele>1586.09</ele>
  <time>2026-08-27T18:28:26Z</time>
  <course>269.6</course>
  <speed>0.0</speed>
  <fix>3d</fix>
</trkpt>
<trkpt lat="40.0728419" lon="-105.2305749">
  <ele>1586.17</ele>
  <time>2026-08-27T18:28:26Z</time>
  <course>10.27</course>
  <speed>0.022360679774997897</speed>
  <fix>3d</fix>
</trkpt>
<trkpt lat="40.072842" lon="-105.230575">
  <ele>1586.09</ele>
  <time>2026-08-27T18:28:26Z</time>
  <course>298.41</course>
  <speed>0.0</speed>
  <fix>3d</fix>
</trkpt>
<trkpt lat="40.0728419" lon="-105.2305749">
  <ele>1586.17</ele>
  <time>2026-08-27T18:28:26Z</time>
  <course>10.28</course>
  <speed>0.022360679774997897</speed>
  <fix>3d</fix>
</trkpt>
<trkpt lat="40.072842" lon="-105.230575">
  <ele>1586.09</ele>
  <time>2026-08-27T18:28:26Z</time>
  <course>319.15</course>
  <speed>0.0</speed>
  <fix>3d</fix>
</trkpt>
<trkpt lat="40.0728419" lon="-105.2305749">
  <ele>1586.17</ele>
  <time>2026-08-27T18:28:26Z</time>
  <course>10.28</course>
  <speed>0.022360679774997897</speed>
  <fix>3d</fix>
</trkpt>
<trkpt lat="40.072842" lon="-105.230575">
  <ele>1586.09</ele>
  <time>2026-08-27T18:28:26Z</time>
  <course>276.84</course>
  <speed>0.0</speed>
  <fix>3d</fix>
</trkpt>
<trkpt lat="40.0728419" lon="-105.2305749">
  <ele>1586.17</ele>
  <time>2026-08-27T18:28:26Z</time>
  <course>10.28</course>
  <speed>0.022360679774997897</speed>
  <fix>3d</fix>
</trkpt>
<trkpt lat="40.072842" lon="-105.230575">
  <ele>1586.09</ele>
  <time>2026-08-27T18:28:26Z</time>
  <course>260.55</course>
  <speed>0.0</speed>
  <fix>3d</fix>
</trkpt>
<trkpt lat="40.0728419" lon="-105.2305749">
  <ele>1586.17</ele>
  <time>2026-08-27T18:28:26Z</time>
  <course>10.28</course>
  <speed>0.022360679774997897</speed>
  <fix>3d</fix>
</trkpt>
<trkpt lat="40.072842" lon="-105.230575">
  <ele>1586.09</ele>
  <time>2026-08-27T18:28:26Z</time>
  <course>322.37</course>
  <speed>0.0</speed>
  <fix>3d</fix>
</trkpt>
<trkpt lat="40.0728419" lon="-105.2305749">
  <ele>1586.17</ele>
  <time>2026-08-27T18:28:26Z</time>
  <course>10.28</course>
  <speed>0.022360679774997897</speed>
  <fix>3d</fix>
</trkpt>
<trkpt lat="40.072842" lon="-105.230575">
  <ele>1586.09</ele>
  <time>2026-08-27T18:28:26Z</time>
  <course>298.96</course>
  <speed>0.0</speed>
  <fix>3d</fix>
</trkpt>
<trkpt lat="40.0728419" lon="-105.2305749">
  <ele>1586.17</ele>
  <time>2026-08-27T18:28:26Z</time>
  <course>10.28</course>
  <speed>0.022360679774997897</speed>
  <fix>3d</fix>
</trkpt>
<trkpt lat="40.072842" lon="-105.230575">
  <ele>1586.09</ele>
  <time>2026-08-27T18:28:26Z</time>
  <course>269.71</course>
  <speed>0.0</speed>
  <fix>3d</fix>
</trkpt>
<trkpt lat="40.0728419" lon="-105.2305749">
  <ele>1586.17</ele>
  <time>2026-08-27T18:28:26Z</time>
  <course>10.28</course>
  <speed>0.022360679774997897</speed>
  <fix>3d</fix>
</trkpt>
<trkpt lat="40.072842" lon="-105.230575">
  <ele>1586.09</ele>
  <time>2026-08-27T18:28:26Z</time>
  <course>269.76</course>
  <speed>0.0</speed>
  <fix>3d</fix>
</trkpt>
<trkpt lat="40.0728419" lon="-105.2305749">
  <ele>1586.17</ele>
  <time>2026-08-27T18:28:26Z</time>
  <course>10.29</course>
  <speed>0.022360679774997897</speed>
  <fix>3d</fix>
</trkpt>
<trkpt lat="40.072842" lon="-105.230575">
  <ele>1586.09</ele>
  <time>2026-08-27T18:28:26Z</time>
  <course>305.35</course>
  <speed>0.0</speed>
  <fix>3d</fix>
</trkpt>
<trkpt lat="40.0728419" lon="-105.2305749">
  <ele>1586.18</ele>
  <time>2026-08-27T18:28:26Z</time>
  <course>10.29</course>
  <speed>0.022360679774997897</speed>
  <fix>3d</fix>
</trkpt>
<trkpt lat="40.072842" lon="-105.230575">
  <ele>1586.09</ele>
  <time>2026-08-27T18:28:26Z</time>
  <course>276.67</course>
  <speed>0.0</speed>
  <fix>3d</fix>
</trkpt>
<trkpt lat="40.0728419" lon="-105.2305749">
  <ele>1586.18</ele>
  <time>2026-08-27T18:28:26Z</time>
  <course>10.29</course>
  <speed>0.022360679774997897</speed>
  <fix>3d</fix>
</trkpt>
<trkpt lat="40.072842" lon="-105.230575">
  <ele>1586.09</ele>
  <time>2026-08-27T18:28:26Z</time>
  <course>230.45</course>
  <speed>0.0</speed>
  <fix>3d</fix>
</trkpt>
<trkpt lat="40.0728419" lon="-105.2305749">
  <ele>1586.18</ele>
  <time>2026-08-27T18:28:26Z</time>
  <course>10.29</course>
  <speed>0.022360679774997897</speed>
  <fix>3d</fix>
</trkpt>
<trkpt lat="40.072842" lon="-105.230575">
  <ele>1586.09</ele>
  <time>2026-08-27T18:28:26Z</time>
  <course>289.69</course>
  <speed>0.0</speed>
  <fix>3d</fix>
</trkpt>
<trkpt lat="40.0728419" lon="-105.2305749">
  <ele>1586.18</ele>
  <time>2026-08-27T18:28:26Z</time>
  <course>10.29</course>
  <speed>0.022360679774997897</speed>
  <fix>3d</fix>
</trkpt>
<trkpt lat="40.072842" lon="-105.230575">
  <ele>1586.09</ele>
  <time>2026-08-27T18:28:26Z</time>
  <course>299.75</course>
  <speed>0.0</speed>
  <fix>3d</fix>
</trkpt>
<trkpt lat="40.0728419" lon="-105.2305749">
  <ele>1586.18</ele>
  <time>2026-08-27T18:28:26Z</time>
  <course>10.29</course>
  <speed>0.022360679774997897</speed>
  <fix>3d</fix>
</trkpt>
<trkpt lat="40.072842" lon="-105.230575">
  <ele>1586.09</ele>
  <time>2026-08-27T18:28:26Z</time>
  <course>291.64</course>
  <speed>0.0</speed>
  <fix>3d</fix>
</trkpt>
<trkpt lat="40.0728419" lon="-105.2305749">
  <ele>1586.18</ele>
  <time>2026-08-27T18:28:26Z</time>
  <course>10.3</course>
  <speed>0.022360679774997897</speed>
  <fix>3d</fix>
</trkpt>
<trkpt lat="40.072842" lon="-105.230575">
  <ele>1586.09</ele>
  <time>2026-08-27T18:28:26Z</time>
  <course>274.72</course>
  <speed>0.0</speed>
  <fix>3d</fix>
</trkpt>
<trkpt lat="40.0728419" lon="-105.2305749">
  <ele>1586.18</ele>
  <time>2026-08-27T18:28:26Z</time>
  <course>10.3</course>
  <speed>0.022360679774997897</speed>
  <fix>3d</fix>
</trkpt>
<trkpt lat="40.072842" lon="-105.230575">
  <ele>1586.09</ele>
  <time>2026-08-27T18:28:26Z</time>
  <course>274.49</course>
  <speed>0.0</speed>
  <fix>3d</fix>
</trkpt>
<trkpt lat="40.0728419" lon="-105.2305749">
  <ele>1586.19</ele>
  <time>2026-08-27T18:28:26Z</time>
  <course>10.3</course>
  <speed>0.022360679774997897</speed>
  <fix>3d</fix>
</trkpt>
<trkpt lat="40.072842" lon="-105.230575">
  <ele>1586.09</ele>
  <time>2026-08-27T18:28:26Z</time>
  <course>291.58</course>
  <speed>0.0</speed>
  <fix>3d</fix>
</trkpt>
<trkpt lat="40.0728419" lon="-105.2305749">
  <ele>1586.19</ele>
  <time>2026-08-27T18:28:26Z</time>
  <course>10.3</course>
  <speed>0.022360679774997897</speed>
  <fix>3d</fix>
</trkpt>
<trkpt lat="40.072842" lon="-105.230575">
  <ele>1586.09</ele>
  <time>2026-08-27T18:28:26Z</time>
  <course>303.71</course>
  <speed>0.0</speed>
  <fix>3d</fix>
</trkpt>
<trkpt lat="40.0728419" lon="-105.2305749">
  <ele>1586.19</ele>
  <time>2026-08-27T18:28:26Z</time>
  <course>10.3</course>
  <speed>0.022360679774997897</speed>
  <fix>3d</fix>
</trkpt>
<trkpt lat="40.072842" lon="-105.230575">
  <ele>1586.09</ele>
  <time>2026-08-27T18:28:26Z</time>
  <course>280.71</course>
  <speed>0.0</speed>
  <fix>3d</fix>
</trkpt>
<trkpt lat="40.0728419" lon="-105.2305749">
  <ele>1586.19</ele>
  <time>2026-08-27T18:28:26Z</time>
  <course>10.3</course>
  <speed>0.022360679774997897</speed>
  <fix>3d</fix>
</trkpt>
<trkpt lat="40.072842" lon="-105.230575">
  <ele>1586.09</ele>
  <time>2026-08-27T18:28:26Z</time>
  <course>275.44</course>
  <speed>0.0</speed>
  <fix>3d</fix>
</trkpt>
<trkpt lat="40.0728419" lon="-105.2305749">
  <ele>1586.19</ele>
  <time>2026-08-27T18:28:26Z</time>
  <course>10.3</course>
  <speed>0.022360679774997897</speed>
  <fix>3d</fix>
</trkpt>
<trkpt lat="40.072842" lon="-105.230575">
  <ele>1586.09</ele>
  <time>2026-08-27T18:28:26Z</time>
  <course>300.93</course>
  <speed>0.0</speed>
  <fix>3d</fix>
</trkpt>
<trkpt lat="40.0728419" lon="-105.2305749">
  <ele>1586.18</ele>
  <time>2026-08-27T18:28:26Z</time>
  <course>10.3</course>
  <speed>0.022360679774997897</speed>
  <fix>3d</fix>
</trkpt>
<trkpt lat="40.072842" lon="-105.230575">
  <ele>1586.09</ele>
  <time>2026-08-27T18:28:26Z</time>
  <course>306.78</course>
  <speed>0.0</speed>
  <fix>3d</fix>
</trkpt>
<trkpt lat="40.0728419" lon="-105.2305749">
  <ele>1586.18</ele>
  <time>2026-08-27T18:28:26Z</time>
  <course>10.31</course>
  <speed>0.022360679774997897</speed>
  <fix>3d</fix>
</trkpt>
<trkpt lat="40.072842" lon="-105.230575">
  <ele>1586.09</ele>
  <time>2026-08-27T18:28:26Z</time>
  <course>271.28</course>
  <speed>0.0</speed>
  <fix>3d</fix>
</trkpt>
<trkpt lat="40.0728419" lon="-105.2305749">
  <ele>1586.18</ele>
  <time>2026-08-27T18:28:26Z</time>
  <course>10.31</course>
  <speed>0.022360679774997897</speed>
  <fix>3d</fix>
</trkpt>
<trkpt lat="40.072842" lon="-105.230575">
  <ele>1586.09</ele>
  <time>2026-08-27T18:28:26Z</time>
  <course>268.5</course>
  <speed>0.0</speed>
  <fix>3d</fix>
</trkpt>
<trkpt lat="40.0728419" lon="-105.2305749">
  <ele>1586.18</ele>
  <time>2026-08-27T18:28:26Z</time>
  <course>10.31</course>
  <speed>0.022360679774997897</speed>
  <fix>3d</fix>
</trkpt>
<trkpt lat="40.072842" lon="-105.230575">
  <ele>1586.09</ele>
  <time>2026-08-27T18:28:26Z</time>
  <course>310.57</course>
  <speed>0.0</speed>
  <fix>3d</fix>
</trkpt>
<trkpt lat="40.0728419" lon="-105.2305749">
  <ele>1586.18</ele>
  <time>2026-08-27T18:28:26Z</time>
  <course>10.31</course>
  <speed>0.022360679774997897</speed>
  <fix>3d</fix>
</trkpt>
<trkpt lat="40.072842" lon="-105.230575">
  <ele>1586.09</ele>
  <time>2026-08-27T18:28:26Z</time>
  <course>294.81</course>
  <speed>0.0</speed>
  <fix>3d</fix>
</trkpt>
<trkpt lat="40.0728419" lon="-105.2305749">
  <ele>1586.18</ele>
  <time>2026-08-27T18:28:26Z</time>
  <course>10.31</course>
  <speed>0.022360679774997897</speed>
  <fix>3d</fix>
</trkpt>
<trkpt lat="40.072842" lon="-105.230575">
  <ele>1586.09</ele>
  <time>2026-08-27T18:28:26Z</time>
  <course>270.92</course>
  <speed>0.0</speed>
  <fix>3d</fix>
</trkpt>
<trkpt lat="40.0728419" lon="-105.2305749">
  <ele>1586.18</ele>
  <time>2026-08-27T18:28:26Z</time>
  <course>10.31</course>
  <speed>0.022360679774997897</speed>
  <fix>3d</fix>
</trkpt>
<trkpt lat="40.072842" lon="-105.230575">
  <ele>1586.09</ele>
  <time>2026-08-27T18:28:26Z</time>
  <course>276.32</course>
  <speed>0.0</speed>
  <fix>3d</fix>
</trkpt>
<trkpt lat="40.0728419" lon="-105.2305749">
  <ele>1586.18</ele>
  <time>2026-08-27T18:28:26Z</time>
  <course>10.31</course>
  <speed>0.022360679774997897</speed>
  <fix>3d</fix>
</trkpt>
<trkpt lat="40.072842" lon="-105.230575">
  <ele>1586.09</ele>
  <time>2026-08-27T18:28:26Z</time>
  <course>310.44</course>
  <speed>0.0</speed>
  <fix>3d</fix>
</trkpt>
<trkpt lat="40.0728419" lon="-105.2305749">
  <ele>1586.18</ele>
  <time>2026-08-27T18:28:26Z</time>
  <course>10.31</course>
  <speed>0.022360679774997897</speed>
  <fix>3d</fix>
</trkpt>
<trkpt lat="40.072842" lon="-105.230575">
  <ele>1586.09</ele>
  <time>2026-08-27T18:28:26Z</time>
  <course>293.84</course>
  <speed>0.0</speed>
  <fix>3d</fix>
</trkpt>
<trkpt lat="40.0728419" lon="-105.2305749">
  <ele>1586.18</ele>
  <time>2026-08-27T18:28:26Z</time>
  <course>10.31</course>
  <speed>0.022360679774997897</speed>
  <fix>3d</fix>
</trkpt>
<trkpt lat="40.072842" lon="-105.230575">
  <ele>1586.09</ele>
  <time>2026-08-27T18:28:26Z</time>
  <course>266.72</course>
  <speed>0.0</speed>
  <fix>3d</fix>
</trkpt>
<trkpt lat="40.0728419" lon="-105.2305749">
  <ele>1586.18</ele>
  <time>2026-08-27T18:28:26Z</time>
  <course>10.32</course>
  <speed>0.022360679774997897</speed>
  <fix>3d</fix>
</trkpt>
<trkpt lat="40.072842" lon="-105.230575">
  <ele>1586.09</ele>
  <time>2026-08-27T18:28:26Z</time>
  <course>281.42</course>
  <speed>0.0</speed>
  <fix>3d</fix>
</trkpt>
<trkpt lat="40.0728419" lon="-105.2305749">
  <ele>1586.18</ele>
  <time>2026-08-27T18:28:26Z</time>
  <course>10.32</course>
  <speed>0.022360679774997897</speed>
  <fix>3d</fix>
</trkpt>
<trkpt lat="40.072842" lon="-105.230575">
  <ele>1586.09</ele>
  <time>2026-08-27T18:28:26Z</time>
  <course>280.67</course>
  <speed>0.0</speed>
  <fix>3d</fix>
</trkpt>
<trkpt lat="40.0728419" lon="-105.2305749">
  <ele>1586.18</ele>
  <time>2026-08-27T18:28:26Z</time>
  <course>10.32</course>
  <speed>0.022360679774997897</speed>
  <fix>3d</fix>
</trkpt>
<trkpt lat="40.072842" lon="-105.230575">
  <ele>1586.09</ele>
  <time>2026-08-27T18:28:26Z</time>
  <course>279.09</course>
  <speed>0.0</speed>
  <fix>3d</fix>
</trkpt>
<trkpt lat="40.0728419" lon="-105.2305749">
  <ele>1586.19</ele>
  <time>2026-08-27T18:28:26Z</time>
  <course>10.32</course>
  <speed>0.022360679774997897</speed>
  <fix>3d</fix>
</trkpt>
<trkpt lat="40.072842" lon="-105.230575">
  <ele>1586.09</ele>
  <time>2026-08-27T18:28:26Z</time>
  <course>284.07</course>
  <speed>0.0</speed>
  <fix>3d</fix>
</trkpt>
<trkpt lat="40.0728419" lon="-105.2305749">
  <ele>1586.19</ele>
  <time>2026-08-27T18:28:26Z</time>
  <course>10.32</course>
  <speed>0.022360679774997897</speed>
  <fix>3d</fix>
</trkpt>
<trkpt lat="40.072842" lon="-105.230575">
  <ele>1586.09</ele>
  <time>2026-08-27T18:28:26Z</time>
  <course>293.54</course>
  <speed>0.0</speed>
  <fix>3d</fix>
</trkpt>
<trkpt lat="40.0728419" lon="-105.2305749">
  <ele>1586.19</ele>
  <time>2026-08-27T18:28:26Z</time>
  <course>10.32</course>
  <speed>0.022360679774997897</speed>
  <fix>3d</fix>
</trkpt>
<trkpt lat="40.072842" lon="-105.230575">
  <ele>1586.09</ele>
  <time>2026-08-27T18:28:26Z</time>
  <course>297.05</course>
  <speed>0.0</speed>
  <fix>3d</fix>
</trkpt>
<trkpt lat="40.0728419" lon="-105.2305749">
  <ele>1586.19</ele>
  <time>2026-08-27T18:28:26Z</time>
  <course>10.32</course>
  <speed>0.022360679774997897</speed>
  <fix>3d</fix>
</trkpt>
<trkpt lat="40.072842" lon="-105.230575">
  <ele>1586.09</ele>
  <time>2026-08-27T18:28:26Z</time>
  <course>296.23</course>
  <speed>0.0</speed>
  <fix>3d</fix>
</trkpt>
<trkpt lat="40.0728419" lon="-105.2305749">
  <ele>1586.19</ele>
  <time>2026-08-27T18:28:26Z</time>
  <course>10.32</course>
  <speed>0.022360679774997897</speed>
  <fix>3d</fix>
</trkpt>
<trkpt lat="40.072842" lon="-105.230575">
  <ele>1586.09</ele>
  <time>2026-08-27T18:28:26Z</time>
  <course>284.8</course>
  <speed>0.0</speed>
  <fix>3d</fix>
</trkpt>
<trkpt lat="40.0728419" lon="-105.2305749">
  <ele>1586.19</ele>
  <time>2026-08-27T18:28:26Z</time>
  <course>10.32</course>
  <speed>0.022360679774997897</speed>
  <fix>3d</fix>
</trkpt>
<trkpt lat="40.072842" lon="-105.230575">
  <ele>1586.09</ele>
  <time>2026-08-27T18:28:26Z</time>
  <course>278.71</course>
  <speed>0.0</speed>
  <fix>3d</fix>
</trkpt>
<trkpt lat="40.0728419" lon="-105.2305749">
  <ele>1586.19</ele>
  <time>2026-08-27T18:28:26Z</time>
  <course>10.32</course>
  <speed>0.022360679774997897</speed>
  <fix>3d</fix>
</trkpt>
<trkpt lat="40.072842" lon="-105.230575">
  <ele>1586.09</ele>
  <time>2026-08-27T18:28:26Z</time>
  <course>292.72</course>
  <speed>0.0</speed>
  <fix>3d</fix>
</trkpt>
<trkpt lat="40.0728419" lon="-105.2305749">
  <ele>1586.19</ele>
  <time>2026-08-27T18:28:26Z</time>
  <course>10.32</course>
  <speed>0.022360679774997897</speed>
  <fix>3d</fix>
</trkpt>
<trkpt lat="40.072842" lon="-105.230575">
  <ele>1586.09</ele>
  <time>2026-08-27T18:28:26Z</time>
  <course>305.58</course>
  <speed>0.0</speed>
  <fix>3d</fix>
</trkpt>
<trkpt lat="40.0728419" lon="-105.2305749">
  <ele>1586.18</ele>
  <time>2026-08-27T18:28:26Z</time>
  <course>10.32</course>
  <speed>0.022360679774997897</speed>
  <fix>3d</fix>
</trkpt>
<trkpt lat="40.072842" lon="-105.230575">
  <ele>1586.09</ele>
  <time>2026-08-27T18:28:26Z</time>
  <course>291.92</course>
  <speed>0.0</speed>
  <fix>3d</fix>
</trkpt>
<trkpt lat="40.0728419" lon="-105.2305749">
  <ele>1586.18</ele>
  <time>2026-08-27T18:28:26Z</time>
  <course>10.33</course>
  <speed>0.022360679774997897</speed>
  <fix>3d</fix>
</trkpt>
<trkpt lat="40.072842" lon="-105.230575">
  <ele>1586.09</ele>
  <time>2026-08-27T18:28:26Z</time>
  <course>274.84</course>
  <speed>0.0</speed>
  <fix>3d</fix>
</trkpt>
<trkpt lat="40.0728419" lon="-105.2305749">
  <ele>1586.18</ele>
  <time>2026-08-27T18:28:26Z</time>
  <course>10.33</course>
  <speed>0.022360679774997897</speed>
  <fix>3d</fix>
</trkpt>
<trkpt lat="40.072842" lon="-105.230575">
  <ele>1586.09</ele>
  <time>2026-08-27T18:28:26Z</time>
  <course>287.62</course>
  <speed>0.0</speed>
  <fix>3d</fix>
</trkpt>
<trkpt lat="40.0728419" lon="-105.2305749">
  <ele>1586.18</ele>
  <time>2026-08-27T18:28:26Z</time>
  <course>10.33</course>
  <speed>0.022360679774997897</speed>
  <fix>3d</fix>
</trkpt>
<trkpt lat="40.072842" lon="-105.230575">
  <ele>1586.09</ele>
  <time>2026-08-27T18:28:26Z</time>
  <course>308.14</course>
  <speed>0.0</speed>
  <fix>3d</fix>
</trkpt>
<trkpt lat="40.0728419" lon="-105.2305749">
  <ele>1586.17</ele>
  <time>2026-08-27T18:28:26Z</time>
  <course>10.33</course>
  <speed>0.022360679774997897</speed>
  <fix>3d</fix>
</trkpt>
<trkpt lat="40.072842" lon="-105.230575">
  <ele>1586.09</ele>
  <time>2026-08-27T18:28:26Z</time>
  <course>286.75</course>
  <speed>0.0</speed>
  <fix>3d</fix>
</trkpt>
<trkpt lat="40.0728419" lon="-105.2305749">
  <ele>1586.18</ele>
  <time>2026-08-27T18:28:26Z</time>
  <course>10.33</course>
  <speed>0.022360679774997897</speed>
  <fix>3d</fix>
</trkpt>
<trkpt lat="40.072842" lon="-105.230575">
  <ele>1586.09</ele>
  <time>2026-08-27T18:28:26Z</time>
  <course>273.02</course>
  <speed>0.0</speed>
  <fix>3d</fix>
</trkpt>
<trkpt lat="40.0728419" lon="-105.2305749">
  <ele>1586.18</ele>
  <time>2026-08-27T18:28:26Z</time>
  <course>10.33</course>
  <speed>0.022360679774997897</speed>
  <fix>3d</fix>
</trkpt>
<trkpt lat="40.072842" lon="-105.230575">
  <ele>1586.09</ele>
  <time>2026-08-27T18:28:26Z</time>
  <course>283.25</course>
  <speed>0.0</speed>
  <fix>3d</fix>
</trkpt>
<trkpt lat="40.0728419" lon="-105.2305749">
  <ele>1586.18</ele>
  <time>2026-08-27T18:28:26Z</time>
  <course>10.33</course>
  <speed>0.022360679774997897</speed>
  <fix>3d</fix>
</trkpt>
<trkpt lat="40.072842" lon="-105.230575">
  <ele>1586.09</ele>
  <time>2026-08-27T18:28:26Z</time>
  <course>304.76</course>
  <speed>0.0</speed>
  <fix>3d</fix>
</trkpt>
<trkpt lat="40.0728419" lon="-105.2305749">
  <ele>1586.18</ele>
  <time>2026-08-27T18:28:26Z</time>
  <course>10.33</course>
  <speed>0.022360679774997897</speed>
  <fix>3d</fix>
</trkpt>
<trkpt lat="40.072842" lon="-105.230575">
  <ele>1586.09</ele>
  <time>2026-08-27T18:28:26Z</time>
  <course>286.84</course>
  <speed>0.0</speed>
  <fix>3d</fix>
</trkpt>
<trkpt lat="40.0728419" lon="-105.2305749">
  <ele>1586.18</ele>
  <time>2026-08-27T18:28:26Z</time>
  <course>10.33</course>
  <speed>0.022360679774997897</speed>
  <fix>3d</fix>
</trkpt>
<trkpt lat="40.072842" lon="-105.230575">
  <ele>1586.09</ele>
  <time>2026-08-27T18:28:26Z</time>
  <course>268.69</course>
  <speed>0.0</speed>
  <fix>3d</fix>
</trkpt>
<trkpt lat="40.0728419" lon="-105.2305749">
  <ele>1586.18</ele>
  <time>2026-08-27T18:28:26Z</time>
  <course>10.33</course>
  <speed>0.022360679774997897</speed>
  <fix>3d</fix>
</trkpt>
<trkpt lat="40.072842" lon="-105.230575">
  <ele>1586.09</ele>
  <time>2026-08-27T18:28:26Z</time>
  <course>288.27</course>
  <speed>0.0</speed>
  <fix>3d</fix>
</trkpt>
<trkpt lat="40.0728419" lon="-105.2305749">
  <ele>1586.18</ele>
  <time>2026-08-27T18:28:26Z</time>
  <course>10.33</course>
  <speed>0.022360679774997897</speed>
  <fix>3d</fix>
</trkpt>
<trkpt lat="40.072842" lon="-105.230575">
  <ele>1586.09</ele>
  <time>2026-08-27T18:28:26Z</time>
  <course>300.44</course>
  <speed>0.0</speed>
  <fix>3d</fix>
</trkpt>
<trkpt lat="40.0728419" lon="-105.2305749">
  <ele>1586.18</ele>
  <time>2026-08-27T18:28:26Z</time>
  <course>10.33</course>
  <speed>0.022360679774997897</speed>
  <fix>3d</fix>
</trkpt>
<trkpt lat="40.072842" lon="-105.230575">
  <ele>1586.09</ele>
  <time>2026-08-27T18:28:26Z</time>
  <course>291.15</course>
  <speed>0.0</speed>
  <fix>3d</fix>
</trkpt>
<trkpt lat="40.0728419" lon="-105.2305749">
  <ele>1586.18</ele>
  <time>2026-08-27T18:28:26Z</time>
  <course>10.33</course>
  <speed>0.022360679774997897</speed>
  <fix>3d</fix>
</trkpt>
<trkpt lat="40.072842" lon="-105.230575">
  <ele>1586.09</ele>
  <time>2026-08-27T18:28:26Z</time>
  <course>250.75</course>
  <speed>0.0</speed>
  <fix>3d</fix>
</trkpt>
<trkpt lat="40.0728419" lon="-105.2305749">
  <ele>1586.18</ele>
  <time>2026-08-27T18:28:26Z</time>
  <course>10.33</course>
  <speed>0.022360679774997897</speed>
  <fix>3d</fix>
</trkpt>
<trkpt lat="40.072842" lon="-105.230575">
  <ele>1586.09</ele>
  <time>2026-08-27T18:28:26Z</time>
  <course>246.5</course>
  <speed>0.0</speed>
  <fix>3d</fix>
</trkpt>
<trkpt lat="40.0728419" lon="-105.2305749">
  <ele>1586.18</ele>
  <time>2026-08-27T18:28:26Z</time>
  <course>10.33</course>
  <speed>0.022360679774997897</speed>
  <fix>3d</fix>
</trkpt>
<trkpt lat="40.072842" lon="-105.230575">
  <ele>1586.09</ele>
  <time>2026-08-27T18:28:26Z</time>
  <course>107.52</course>
  <speed>0.0</speed>
  <fix>3d</fix>
</trkpt>
<trkpt lat="40.0728419" lon="-105.2305749">
  <ele>1586.18</ele>
  <time>2026-08-27T18:28:26Z</time>
  <course>10.34</course>
  <speed>0.022360679774997897</speed>
  <fix>3d</fix>
</trkpt>
<trkpt lat="40.072842" lon="-105.230575">
  <ele>1586.09</ele>
  <time>2026-08-27T18:28:26Z</time>
  <course>99.6</course>
  <speed>0.0</speed>
  <fix>3d</fix>
</trkpt>
<trkpt lat="40.0728419" lon="-105.2305749">
  <ele>1586.18</ele>
  <time>2026-08-27T18:28:26Z</time>
  <course>10.34</course>
  <speed>0.022360679774997897</speed>
  <fix>3d</fix>
</trkpt>
<trkpt lat="40.072842" lon="-105.230575">
  <ele>1586.09</ele>
  <time>2026-08-27T18:28:26Z</time>
  <course>321.77</course>
  <speed>0.0</speed>
  <fix>3d</fix>
</trkpt>
<trkpt lat="40.0728419" lon="-105.2305749">
  <ele>1586.18</ele>
  <time>2026-08-27T18:28:26Z</time>
  <course>10.34</course>
  <speed>0.022360679774997897</speed>
  <fix>3d</fix>
</trkpt>
<trkpt lat="40.072842" lon="-105.230575">
  <ele>1586.09</ele>
  <time>2026-08-27T18:28:26Z</time>
  <course>268.79</course>
  <speed>0.0</speed>
  <fix>3d</fix>
</trkpt>
<trkpt lat="40.0728419" lon="-105.2305749">
  <ele>1586.18</ele>
  <time>2026-08-27T18:28:26Z</time>
  <course>10.34</course>
  <speed>0.01414213562373095</speed>
  <fix>3d</fix>
</trkpt>
<trkpt lat="40.072842" lon="-105.230575">
  <ele>1586.09</ele>
  <time>2026-08-27T18:28:26Z</time>
  <course>124.94</course>
  <speed>0.0</speed>
  <fix>3d</fix>
</trkpt>
<trkpt lat="40.0728419" lon="-105.2305749">
  <ele>1586.17</ele>
  <time>2026-08-27T18:28:26Z</time>
  <course>10.34</course>
  <speed>0.01414213562373095</speed>
  <fix>3d</fix>
</trkpt>
<trkpt lat="40.072842" lon="-105.230575">
  <ele>1586.09</ele>
  <time>2026-08-27T18:28:26Z</time>
  <course>68.28</course>
  <speed>0.0</speed>
  <fix>3d</fix>
</trkpt>
<trkpt lat="40.0728419" lon="-105.2305749">
  <ele>1586.17</ele>
  <time>2026-08-27T18:28:26Z</time>
  <course>10.34</course>
  <speed>0.01414213562373095</speed>
  <fix>3d</fix>
</trkpt>
<trkpt lat="40.072842" lon="-105.230575">
  <ele>1586.09</ele>
  <time>2026-08-27T18:28:26Z</time>
  <course>289.46</course>
  <speed>0.0</speed>
  <fix>3d</fix>
</trkpt>
<trkpt lat="40.0728419" lon="-105.2305749">
  <ele>1586.17</ele>
  <time>2026-08-27T18:28:26Z</time>
  <course>10.34</course>
  <speed>0.01414213562373095</speed>
  <fix>3d</fix>
</trkpt>
<trkpt lat="40.072842" lon="-105.230575">
  <ele>1586.09</ele>
  <time>2026-08-27T18:28:26Z</time>
  <course>273.41</course>
  <speed>0.0</speed>
  <fix>3d</fix>
</trkpt>
<trkpt lat="40.0728419" lon="-105.2305749">
  <ele>1586.17</ele>
  <time>2026-08-27T18:28:26Z</time>
  <course>10.34</course>
  <speed>0.01414213562373095</speed>
  <fix>3d</fix>
</trkpt>
<trkpt lat="40.072842" lon="-105.230575">
  <ele>1586.09</ele>
  <time>2026-08-27T18:28:26Z</time>
  <course>285.17</course>
  <speed>0.0</speed>
  <fix>3d</fix>
</trkpt>
<trkpt lat="40.0728419" lon="-105.2305749">
  <ele>1586.17</ele>
  <time>2026-08-27T18:28:26Z</time>
  <course>10.34</course>
  <speed>0.01414213562373095</speed>
  <fix>3d</fix>
</trkpt>
<trkpt lat="40.072842" lon="-105.230575">
  <ele>1586.09</ele>
  <time>2026-08-27T18:28:26Z</time>
  <course>286.95</course>
  <speed>0.0</speed>
  <fix>3d</fix>
</trkpt>
<trkpt lat="40.0728419" lon="-105.2305749">
  <ele>1586.17</ele>
  <time>2026-08-27T18:28:26Z</time>
  <course>10.34</course>
  <speed>0.01414213562373095</speed>
  <fix>3d</fix>
</trkpt>
<trkpt lat="40.072842" lon="-105.230575">
  <ele>1586.09</ele>
  <time>2026-08-27T18:28:26Z</time>
  <course>284.76</course>
  <speed>0.0</speed>
  <fix>3d</fix>
</trkpt>
<trkpt lat="40.0728419" lon="-105.2305749">
  <ele>1586.18</ele>
  <time>2026-08-27T18:28:26Z</time>
  <course>10.34</course>
  <speed>0.01414213562373095</speed>
  <fix>3d</fix>
</trkpt>
<trkpt lat="40.072842" lon="-105.230575">
  <ele>1586.09</ele>
  <time>2026-08-27T18:28:26Z</time>
  <course>284.77</course>
  <speed>0.0</speed>
  <fix>3d</fix>
</trkpt>
<trkpt lat="40.0728419" lon="-105.2305749">
  <ele>1586.17</ele>
  <time>2026-08-27T18:28:27Z</time>
  <course>10.34</course>
  <speed>0.01414213562373095</speed>
  <fix>3d</fix>
</trkpt>
<trkpt lat="40.072842" lon="-105.230575">
  <ele>1586.09</ele>
  <time>2026-08-27T18:28:27Z</time>
  <course>285.0</course>
  <speed>0.0</speed>
  <fix>3d</fix>
</trkpt>
<trkpt lat="40.0728419" lon="-105.2305749">
  <ele>1586.17</ele>
  <time>2026-08-27T18:28:27Z</time>
  <course>10.34</course>
  <speed>0.01414213562373095</speed>
  <fix>3d</fix>
</trkpt>
<trkpt lat="40.072842" lon="-105.230575">
  <ele>1586.09</ele>
  <time>2026-08-27T18:28:27Z</time>
  <course>285.0</course>
  <speed>0.0</speed>
  <fix>3d</fix>
</trkpt>
<trkpt lat="40.0728419" lon="-105.2305749">
  <ele>1586.18</ele>
  <time>2026-08-27T18:28:27Z</time>
  <course>10.34</course>
  <speed>0.01414213562373095</speed>
  <fix>3d</fix>
</trkpt>
<trkpt lat="40.072842" lon="-105.230575">
  <ele>1586.09</ele>
  <time>2026-08-27T18:28:27Z</time>
  <course>285.0</course>
  <speed>0.0</speed>
  <fix>3d</fix>
</trkpt>
<trkpt lat="40.0728419" lon="-105.2305749">
  <ele>1586.18</ele>
  <time>2026-08-27T18:28:27Z</time>
  <course>10.34</course>
  <speed>0.01414213562373095</speed>
  <fix>3d</fix>
</trkpt>
<trkpt lat="40.072842" lon="-105.230575">
  <ele>1586.09</ele>
  <time>2026-08-27T18:28:27Z</time>
  <course>285.0</course>
  <speed>0.0</speed>
  <fix>3d</fix>
</trkpt>
<trkpt lat="40.0728419" lon="-105.2305749">
  <ele>1586.18</ele>
  <time>2026-08-27T18:28:27Z</time>
  <course>10.34</course>
  <speed>0.01414213562373095</speed>
  <fix>3d</fix>
</trkpt>
<trkpt lat="40.072842" lon="-105.230575">
  <ele>1586.09</ele>
  <time>2026-08-27T18:28:27Z</time>
  <course>285.0</course>
  <speed>0.0</speed>
  <fix>3d</fix>
</trkpt>
<trkpt lat="40.0728419" lon="-105.2305749">
  <ele>1586.17</ele>
  <time>2026-08-27T18:28:27Z</time>
  <course>10.34</course>
  <speed>0.01414213562373095</speed>
  <fix>3d</fix>
</trkpt>
<trkpt lat="40.072842" lon="-105.230575">
  <ele>1586.09</ele>
  <time>2026-08-27T18:28:27Z</time>
  <course>285.0</course>
  <speed>0.0</speed>
  <fix>3d</fix>
</trkpt>
<trkpt lat="40.0728419" lon="-105.2305749">
  <ele>1586.17</ele>
  <time>2026-08-27T18:28:27Z</time>
  <course>10.34</course>
  <speed>0.01414213562373095</speed>
  <fix>3d</fix>
</trkpt>
<trkpt lat="40.072842" lon="-105.230575">
  <ele>1586.09</ele>
  <time>2026-08-27T18:28:27Z</time>
  <course>285.0</course>
  <speed>0.0</speed>
  <fix>3d</fix>
</trkpt>
<trkpt lat="40.0728419" lon="-105.2305749">
  <ele>1586.17</ele>
  <time>2026-08-27T18:28:27Z</time>
  <course>10.34</course>
  <speed>0.01414213562373095</speed>
  <fix>3d</fix>
</trkpt>
<trkpt lat="40.072842" lon="-105.230575">
  <ele>1586.09</ele>
  <time>2026-08-27T18:28:27Z</time>
  <course>285.0</course>
  <speed>0.0</speed>
  <fix>3d</fix>
</trkpt>
<trkpt lat="40.0728419" lon="-105.2305749">
  <ele>1586.17</ele>
  <time>2026-08-27T18:28:27Z</time>
  <course>10.34</course>
  <speed>0.01414213562373095</speed>
  <fix>3d</fix>
</trkpt>
<trkpt lat="40.072842" lon="-105.230575">
  <ele>1586.09</ele>
  <time>2026-08-27T18:28:27Z</time>
  <course>285.0</course>
  <speed>0.0</speed>
  <fix>3d</fix>
</trkpt>
<trkpt lat="40.0728419" lon="-105.2305749">
  <ele>1586.17</ele>
  <time>2026-08-27T18:28:27Z</time>
  <course>10.34</course>
  <speed>0.01414213562373095</speed>
  <fix>3d</fix>
</trkpt>
<trkpt lat="40.072842" lon="-105.230575">
  <ele>1586.09</ele>
  <time>2026-08-27T18:28:27Z</time>
  <course>285.0</course>
  <speed>0.0</speed>
  <fix>3d</fix>
</trkpt>
<trkpt lat="40.0728419" lon="-105.2305749">
  <ele>1586.17</ele>
  <time>2026-08-27T18:28:27Z</time>
  <course>10.34</course>
  <speed>0.01414213562373095</speed>
  <fix>3d</fix>
</trkpt>
<trkpt lat="40.072842" lon="-105.230575">
  <ele>1586.09</ele>
  <time>2026-08-27T18:28:27Z</time>
  <course>285.0</course>
  <speed>0.0</speed>
  <fix>3d</fix>
</trkpt>
<trkpt lat="40.0728419" lon="-105.2305749">
  <ele>1586.17</ele>
  <time>2026-08-27T18:28:27Z</time>
  <course>10.34</course>
  <speed>0.01414213562373095</speed>
  <fix>3d</fix>
</trkpt>
<trkpt lat="40.072842" lon="-105.230575">
  <ele>1586.09</ele>
  <time>2026-08-27T18:28:27Z</time>
  <course>285.0</course>
  <speed>0.0</speed>
  <fix>3d</fix>
</trkpt>
<trkpt lat="40.0728419" lon="-105.2305749">
  <ele>1586.17</ele>
  <time>2026-08-27T18:28:27Z</time>
  <course>10.34</course>
  <speed>0.01414213562373095</speed>
  <fix>3d</fix>
</trkpt>
<trkpt lat="40.072842" lon="-105.230575">
  <ele>1586.09</ele>
  <time>2026-08-27T18:28:27Z</time>
  <course>285.0</course>
  <speed>0.0</speed>
  <fix>3d</fix>
</trkpt>
<trkpt lat="40.0728419" lon="-105.2305749">
  <ele>1586.17</ele>
  <time>2026-08-27T18:28:27Z</time>
  <course>10.34</course>
  <speed>0.01414213562373095</speed>
  <fix>3d</fix>
</trkpt>
<trkpt lat="40.072842" lon="-105.230575">
  <ele>1586.09</ele>
  <time>2026-08-27T18:28:27Z</time>
  <course>285.0</course>
  <speed>0.0</speed>
  <fix>3d</fix>
</trkpt>
<trkpt lat="40.0728419" lon="-105.2305749">
  <ele>1586.17</ele>
  <time>2026-08-27T18:28:27Z</time>
  <course>10.35</course>
  <speed>0.01414213562373095</speed>
  <fix>3d</fix>
</trkpt>
<trkpt lat="40.072842" lon="-105.230575">
  <ele>1586.09</ele>
  <time>2026-08-27T18:28:27Z</time>
  <course>285.0</course>
  <speed>0.0</speed>
  <fix>3d</fix>
</trkpt>
<trkpt lat="40.0728419" lon="-105.2305749">
  <ele>1586.17</ele>
  <time>2026-08-27T18:28:27Z</time>
  <course>10.35</course>
  <speed>0.01414213562373095</speed>
  <fix>3d</fix>
</trkpt>
<trkpt lat="40.072842" lon="-105.230575">
  <ele>1586.09</ele>
  <time>2026-08-27T18:28:27Z</time>
  <course>285.0</course>
  <speed>0.0</speed>
  <fix>3d</fix>
</trkpt>
<trkpt lat="40.0728419" lon="-105.2305749">
  <ele>1586.16</ele>
  <time>2026-08-27T18:28:27Z</time>
  <course>10.35</course>
  <speed>0.01414213562373095</speed>
  <fix>3d</fix>
</trkpt>
<trkpt lat="40.072842" lon="-105.230575">
  <ele>1586.09</ele>
  <time>2026-08-27T18:28:27Z</time>
  <course>285.0</course>
  <speed>0.0</speed>
  <fix>3d</fix>
</trkpt>
<trkpt lat="40.0728419" lon="-105.2305749">
  <ele>1586.16</ele>
  <time>2026-08-27T18:28:27Z</time>
  <course>10.35</course>
  <speed>0.01414213562373095</speed>
  <fix>3d</fix>
</trkpt>
<trkpt lat="40.072842" lon="-105.230575">
  <ele>1586.09</ele>
  <time>2026-08-27T18:28:27Z</time>
  <course>285.0</course>
  <speed>0.0</speed>
  <fix>3d</fix>
</trkpt>
<trkpt lat="40.0728419" lon="-105.2305749">
  <ele>1586.16</ele>
  <time>2026-08-27T18:28:27Z</time>
  <course>10.35</course>
  <speed>0.01414213562373095</speed>
  <fix>3d</fix>
</trkpt>
<trkpt lat="40.072842" lon="-105.230575">
  <ele>1586.09</ele>
  <time>2026-08-27T18:28:27Z</time>
  <course>285.0</course>
  <speed>0.0</speed>
  <fix>3d</fix>
</trkpt>
<trkpt lat="40.0728419" lon="-105.2305749">
  <ele>1586.16</ele>
  <time>2026-08-27T18:28:27Z</time>
  <course>10.35</course>
  <speed>0.01414213562373095</speed>
  <fix>3d</fix>
</trkpt>
<trkpt lat="40.072842" lon="-105.230575">
  <ele>1586.09</ele>
  <time>2026-08-27T18:28:27Z</time>
  <course>285.0</course>
  <speed>0.0</speed>
  <fix>3d</fix>
</trkpt>
<trkpt lat="40.0728419" lon="-105.2305749">
  <ele>1586.16</ele>
  <time>2026-08-27T18:28:27Z</time>
  <course>10.35</course>
  <speed>0.01414213562373095</speed>
  <fix>3d</fix>
</trkpt>
<trkpt lat="40.072842" lon="-105.230575">
  <ele>1586.09</ele>
  <time>2026-08-27T18:28:27Z</time>
  <course>285.0</course>
  <speed>0.0</speed>
  <fix>3d</fix>
</trkpt>
<trkpt lat="40.0728419" lon="-105.2305749">
  <ele>1586.16</ele>
  <time>2026-08-27T18:28:27Z</time>
  <course>10.35</course>
  <speed>0.01414213562373095</speed>
  <fix>3d</fix>
</trkpt>
<trkpt lat="40.072842" lon="-105.230575">
  <ele>1586.09</ele>
  <time>2026-08-27T18:28:27Z</time>
  <course>285.0</course>
  <speed>0.0</speed>
  <fix>3d</fix>
</trkpt>
<trkpt lat="40.0728419" lon="-105.2305749">
  <ele>1586.16</ele>
  <time>2026-08-27T18:28:27Z</time>
  <course>10.35</course>
  <speed>0.01414213562373095</speed>
  <fix>3d</fix>
</trkpt>
<trkpt lat="40.072842" lon="-105.230575">
  <ele>1586.09</ele>
  <time>2026-08-27T18:28:27Z</time>
  <course>285.0</course>
  <speed>0.0</speed>
  <fix>3d</fix>
</trkpt>
<trkpt lat="40.0728419" lon="-105.2305749">
  <ele>1586.15</ele>
  <time>2026-08-27T18:28:27Z</time>
  <course>10.35</course>
  <speed>0.022360679774997897</speed>
  <fix>3d</fix>
</trkpt>
<trkpt lat="40.072842" lon="-105.230575">
  <ele>1586.09</ele>
  <time>2026-08-27T18:28:27Z</time>
  <course>285.0</course>
  <speed>0.0</speed>
  <fix>3d</fix>
</trkpt>
<trkpt lat="40.0728419" lon="-105.2305749">
  <ele>1586.15</ele>
  <time>2026-08-27T18:28:27Z</time>
  <course>10.35</course>
  <speed>0.022360679774997897</speed>
  <fix>3d</fix>
</trkpt>
<trkpt lat="40.072842" lon="-105.230575">
  <ele>1586.09</ele>
  <time>2026-08-27T18:28:27Z</time>
  <course>285.0</course>
  <speed>0.0</speed>
  <fix>3d</fix>
</trkpt>
<trkpt lat="40.0728419" lon="-105.2305749">
  <ele>1586.15</ele>
  <time>2026-08-27T18:28:27Z</time>
  <course>10.35</course>
  <speed>0.022360679774997897</speed>
  <fix>3d</fix>
</trkpt>
<trkpt lat="40.072842" lon="-105.230575">
  <ele>1586.09</ele>
  <time>2026-08-27T18:28:27Z</time>
  <course>285.0</course>
  <speed>0.0</speed>
  <fix>3d</fix>
</trkpt>
<trkpt lat="40.0728419" lon="-105.2305749">
  <ele>1586.15</ele>
  <time>2026-08-27T18:28:27Z</time>
  <course>10.35</course>
  <speed>0.022360679774997897</speed>
  <fix>3d</fix>
</trkpt>
<trkpt lat="40.072842" lon="-105.230575">
  <ele>1586.09</ele>
  <time>2026-08-27T18:28:27Z</time>
  <course>285.0</course>
  <speed>0.0</speed>
  <fix>3d</fix>
</trkpt>
<trkpt lat="40.0728419" lon="-105.2305749">
  <ele>1586.15</ele>
  <time>2026-08-27T18:28:27Z</time>
  <course>10.35</course>
  <speed>0.022360679774997897</speed>
  <fix>3d</fix>
</trkpt>
<trkpt lat="40.072842" lon="-105.230575">
  <ele>1586.09</ele>
  <time>2026-08-27T18:28:27Z</time>
  <course>285.0</course>
  <speed>0.0</speed>
  <fix>3d</fix>
</trkpt>
<trkpt lat="40.0728419" lon="-105.2305749">
  <ele>1586.15</ele>
  <time>2026-08-27T18:28:27Z</time>
  <course>10.35</course>
  <speed>0.022360679774997897</speed>
  <fix>3d</fix>
</trkpt>
<trkpt lat="40.072842" lon="-105.230575">
  <ele>1586.09</ele>
  <time>2026-08-27T18:28:27Z</time>
  <course>285.0</course>
  <speed>0.0</speed>
  <fix>3d</fix>
</trkpt>
<trkpt lat="40.0728419" lon="-105.2305749">
  <ele>1586.15</ele>
  <time>2026-08-27T18:28:27Z</time>
  <course>10.35</course>
  <speed>0.022360679774997897</speed>
  <fix>3d</fix>
</trkpt>
<trkpt lat="40.072842" lon="-105.230575">
  <ele>1586.09</ele>
  <time>2026-08-27T18:28:27Z</time>
  <course>285.0</course>
  <speed>0.0</speed>
  <fix>3d</fix>
</trkpt>
<trkpt lat="40.0728419" lon="-105.2305749">
  <ele>1586.15</ele>
  <time>2026-08-27T18:28:27Z</time>
  <course>10.36</course>
  <speed>0.022360679774997897</speed>
  <fix>3d</fix>
</trkpt>
<trkpt lat="40.072842" lon="-105.230575">
  <ele>1586.09</ele>
  <time>2026-08-27T18:28:27Z</time>
  <course>285.0</course>
  <speed>0.0</speed>
  <fix>3d</fix>
</trkpt>
<trkpt lat="40.0728419" lon="-105.2305749">
  <ele>1586.15</ele>
  <time>2026-08-27T18:28:27Z</time>
  <course>10.36</course>
  <speed>0.022360679774997897</speed>
  <fix>3d</fix>
</trkpt>
<trkpt lat="40.072842" lon="-105.230575">
  <ele>1586.09</ele>
  <time>2026-08-27T18:28:27Z</time>
  <course>285.0</course>
  <speed>0.0</speed>
  <fix>3d</fix>
</trkpt>
<trkpt lat="40.0728419" lon="-105.2305749">
  <ele>1586.16</ele>
  <time>2026-08-27T18:28:27Z</time>
  <course>10.36</course>
  <speed>0.022360679774997897</speed>
  <fix>3d</fix>
</trkpt>
<trkpt lat="40.072842" lon="-105.230575">
  <ele>1586.09</ele>
  <time>2026-08-27T18:28:27Z</time>
  <course>285.0</course>
  <speed>0.0</speed>
  <fix>3d</fix>
</trkpt>
<trkpt lat="40.0728419" lon="-105.2305749">
  <ele>1586.17</ele>
  <time>2026-08-27T18:28:27Z</time>
  <course>10.36</course>
  <speed>0.022360679774997897</speed>
  <fix>3d</fix>
</trkpt>
<trkpt lat="40.072842" lon="-105.230575">
  <ele>1586.09</ele>
  <time>2026-08-27T18:28:27Z</time>
  <course>285.0</course>
  <speed>0.0</speed>
  <fix>3d</fix>
</trkpt>
<trkpt lat="40.0728419" lon="-105.2305749">
  <ele>1586.17</ele>
  <time>2026-08-27T18:28:27Z</time>
  <course>10.36</course>
  <speed>0.022360679774997897</speed>
  <fix>3d</fix>
</trkpt>
<trkpt lat="40.072842" lon="-105.230575">
  <ele>1586.09</ele>
  <time>2026-08-27T18:28:27Z</time>
  <course>285.0</course>
  <speed>0.0</speed>
  <fix>3d</fix>
</trkpt>
<trkpt lat="40.0728419" lon="-105.2305749">
  <ele>1586.17</ele>
  <time>2026-08-27T18:28:27Z</time>
  <course>10.36</course>
  <speed>0.022360679774997897</speed>
  <fix>3d</fix>
</trkpt>
<trkpt lat="40.072842" lon="-105.230575">
  <ele>1586.09</ele>
  <time>2026-08-27T18:28:27Z</time>
  <course>285.0</course>
  <speed>0.0</speed>
  <fix>3d</fix>
</trkpt>
<trkpt lat="40.0728419" lon="-105.2305749">
  <ele>1586.17</ele>
  <time>2026-08-27T18:28:27Z</time>
  <course>10.36</course>
  <speed>0.022360679774997897</speed>
  <fix>3d</fix>
</trkpt>
<trkpt lat="40.072842" lon="-105.230575">
  <ele>1586.09</ele>
  <time>2026-08-27T18:28:27Z</time>
  <course>285.0</course>
  <speed>0.0</speed>
  <fix>3d</fix>
</trkpt>
<trkpt lat="40.0728419" lon="-105.2305749">
  <ele>1586.17</ele>
  <time>2026-08-27T18:28:27Z</time>
  <course>10.36</course>
  <speed>0.022360679774997897</speed>
  <fix>3d</fix>
</trkpt>
<trkpt lat="40.072842" lon="-105.230575">
  <ele>1586.09</ele>
  <time>2026-08-27T18:28:27Z</time>
  <course>300.4</course>
  <speed>0.0</speed>
  <fix>3d</fix>
</trkpt>
<trkpt lat="40.0728419" lon="-105.2305749">
  <ele>1586.17</ele>
  <time>2026-08-27T18:28:27Z</time>
  <course>10.36</course>
  <speed>0.022360679774997897</speed>
  <fix>3d</fix>
</trkpt>
<trkpt lat="40.072842" lon="-105.230575">
  <ele>1586.09</ele>
  <time>2026-08-27T18:28:27Z</time>
  <course>294.28</course>
  <speed>0.0</speed>
  <fix>3d</fix>
</trkpt>
<trkpt lat="40.0728419" lon="-105.2305749">
  <ele>1586.17</ele>
  <time>2026-08-27T18:28:27Z</time>
  <course>10.36</course>
  <speed>0.022360679774997897</speed>
  <fix>3d</fix>
</trkpt>
<trkpt lat="40.072842" lon="-105.230575">
  <ele>1586.09</ele>
  <time>2026-08-27T18:28:27Z</time>
  <course>279.43</course>
  <speed>0.0</speed>
  <fix>3d</fix>
</trkpt>
<trkpt lat="40.0728419" lon="-105.2305749">
  <ele>1586.17</ele>
  <time>2026-08-27T18:28:27Z</time>
  <course>10.36</course>
  <speed>0.022360679774997897</speed>
  <fix>3d</fix>
</trkpt>
<trkpt lat="40.072842" lon="-105.230575">
  <ele>1586.09</ele>
  <time>2026-08-27T18:28:27Z</time>
  <course>284.49</course>
  <speed>0.0</speed>
  <fix>3d</fix>
</trkpt>
<trkpt lat="40.0728419" lon="-105.2305749">
  <ele>1586.18</ele>
  <time>2026-08-27T18:28:27Z</time>
  <course>10.36</course>
  <speed>0.022360679774997897</speed>
  <fix>3d</fix>
</trkpt>
<trkpt lat="40.072842" lon="-105.230575">
  <ele>1586.09</ele>
  <time>2026-08-27T18:28:27Z</time>
  <course>285.91</course>
  <speed>0.0</speed>
  <fix>3d</fix>
</trkpt>
<trkpt lat="40.0728419" lon="-105.2305749">
  <ele>1586.18</ele>
  <time>2026-08-27T18:28:27Z</time>
  <course>10.36</course>
  <speed>0.022360679774997897</speed>
  <fix>3d</fix>
</trkpt>
<trkpt lat="40.072842" lon="-105.230575">
  <ele>1586.09</ele>
  <time>2026-08-27T18:28:27Z</time>
  <course>284.96</course>
  <speed>0.0</speed>
  <fix>3d</fix>
</trkpt>
<trkpt lat="40.0728419" lon="-105.2305749">
  <ele>1586.18</ele>
  <time>2026-08-27T18:28:27Z</time>
  <course>10.36</course>
  <speed>0.022360679774997897</speed>
  <fix>3d</fix>
</trkpt>
<trkpt lat="40.072842" lon="-105.230575">
  <ele>1586.09</ele>
  <time>2026-08-27T18:28:27Z</time>
  <course>284.89</course>
  <speed>0.0</speed>
  <fix>3d</fix>
</trkpt>
<trkpt lat="40.0728419" lon="-105.2305749">
  <ele>1586.18</ele>
  <time>2026-08-27T18:28:27Z</time>
  <course>10.36</course>
  <speed>0.022360679774997897</speed>
  <fix>3d</fix>
</trkpt>
<trkpt lat="40.072842" lon="-105.230575">
  <ele>1586.09</ele>
  <time>2026-08-27T18:28:27Z</time>
  <course>285.02</course>
  <speed>0.0</speed>
  <fix>3d</fix>
</trkpt>
<trkpt lat="40.0728419" lon="-105.2305749">
  <ele>1586.18</ele>
  <time>2026-08-27T18:28:27Z</time>
  <course>10.36</course>
  <speed>0.01414213562373095</speed>
  <fix>3d</fix>
</trkpt>
<trkpt lat="40.072842" lon="-105.230575">
  <ele>1586.09</ele>
  <time>2026-08-27T18:28:27Z</time>
  <course>285.02</course>
  <speed>0.0</speed>
  <fix>3d</fix>
</trkpt>
<trkpt lat="40.0728419" lon="-105.2305749">
  <ele>1586.18</ele>
  <time>2026-08-27T18:28:27Z</time>
  <course>10.36</course>
  <speed>0.01414213562373095</speed>
  <fix>3d</fix>
</trkpt>
<trkpt lat="40.072842" lon="-105.230575">
  <ele>1586.09</ele>
  <time>2026-08-27T18:28:27Z</time>
  <course>285.0</course>
  <speed>0.0</speed>
  <fix>3d</fix>
</trkpt>
<trkpt lat="40.0728419" lon="-105.2305749">
  <ele>1586.18</ele>
  <time>2026-08-27T18:28:27Z</time>
  <course>10.37</course>
  <speed>0.01414213562373095</speed>
  <fix>3d</fix>
</trkpt>
<trkpt lat="40.072842" lon="-105.230575">
  <ele>1586.09</ele>
  <time>2026-08-27T18:28:27Z</time>
  <course>285.0</course>
  <speed>0.0</speed>
  <fix>3d</fix>
</trkpt>
<trkpt lat="40.0728419" lon="-105.2305749">
  <ele>1586.18</ele>
  <time>2026-08-27T18:28:27Z</time>
  <course>10.37</course>
  <speed>0.01414213562373095</speed>
  <fix>3d</fix>
</trkpt>
<trkpt lat="40.072842" lon="-105.230575">
  <ele>1586.09</ele>
  <time>2026-08-27T18:28:27Z</time>
  <course>285.0</course>
  <speed>0.0</speed>
  <fix>3d</fix>
</trkpt>
<trkpt lat="40.0728419" lon="-105.2305749">
  <ele>1586.18</ele>
  <time>2026-08-27T18:28:27Z</time>
  <course>10.36</course>
  <speed>0.01414213562373095</speed>
  <fix>3d</fix>
</trkpt>
<trkpt lat="40.072842" lon="-105.230575">
  <ele>1586.09</ele>
  <time>2026-08-27T18:28:27Z</time>
  <course>284.98</course>
  <speed>0.0</speed>
  <fix>3d</fix>
</trkpt>
<trkpt lat="40.0728419" lon="-105.2305749">
  <ele>1586.18</ele>
  <time>2026-08-27T18:28:27Z</time>
  <course>10.36</course>
  <speed>0.01414213562373095</speed>
  <fix>3d</fix>
</trkpt>
<trkpt lat="40.072842" lon="-105.230575">
  <ele>1586.09</ele>
  <time>2026-08-27T18:28:27Z</time>
  <course>284.9</course>
  <speed>0.0</speed>
  <fix>3d</fix>
</trkpt>
<trkpt lat="40.0728419" lon="-105.2305749">
  <ele>1586.18</ele>
  <time>2026-08-27T18:28:27Z</time>
  <course>10.36</course>
  <speed>0.01414213562373095</speed>
  <fix>3d</fix>
</trkpt>
<trkpt lat="40.072842" lon="-105.230575">
  <ele>1586.09</ele>
  <time>2026-08-27T18:28:27Z</time>
  <course>284.79</course>
  <speed>0.0</speed>
  <fix>3d</fix>
</trkpt>
<trkpt lat="40.0728419" lon="-105.2305749">
  <ele>1586.18</ele>
  <time>2026-08-27T18:28:27Z</time>
  <course>10.35</course>
  <speed>0.01414213562373095</speed>
  <fix>3d</fix>
</trkpt>
<trkpt lat="40.072842" lon="-105.230575">
  <ele>1586.09</ele>
  <time>2026-08-27T18:28:27Z</time>
  <course>284.7</course>
  <speed>0.0</speed>
  <fix>3d</fix>
</trkpt>
<trkpt lat="40.0728419" lon="-105.2305749">
  <ele>1586.19</ele>
  <time>2026-08-27T18:28:27Z</time>
  <course>10.35</course>
  <speed>0.01414213562373095</speed>
  <fix>3d</fix>
</trkpt>
<trkpt lat="40.072842" lon="-105.230575">
  <ele>1586.09</ele>
  <time>2026-08-27T18:28:27Z</time>
  <course>284.6</course>
  <speed>0.0</speed>
  <fix>3d</fix>
</trkpt>
<trkpt lat="40.0728419" lon="-105.2305749">
  <ele>1586.19</ele>
  <time>2026-08-27T18:28:27Z</time>
  <course>10.34</course>
  <speed>0.01414213562373095</speed>
  <fix>3d</fix>
</trkpt>
<trkpt lat="40.072842" lon="-105.230575">
  <ele>1586.09</ele>
  <time>2026-08-27T18:28:27Z</time>
  <course>284.5</course>
  <speed>0.0</speed>
  <fix>3d</fix>
</trkpt>
<trkpt lat="40.0728419" lon="-105.2305749">
  <ele>1586.19</ele>
  <time>2026-08-27T18:28:27Z</time>
  <course>10.33</course>
  <speed>0.01414213562373095</speed>
  <fix>3d</fix>
</trkpt>
<trkpt lat="40.072842" lon="-105.230575">
  <ele>1586.09</ele>
  <time>2026-08-27T18:28:27Z</time>
  <course>284.4</course>
  <speed>0.0</speed>
  <fix>3d</fix>
</trkpt>
<trkpt lat="40.0728419" lon="-105.2305749">
  <ele>1586.19</ele>
  <time>2026-08-27T18:28:27Z</time>
  <course>10.32</course>
  <speed>0.01414213562373095</speed>
  <fix>3d</fix>
</trkpt>
<trkpt lat="40.072842" lon="-105.230575">
  <ele>1586.09</ele>
  <time>2026-08-27T18:28:27Z</time>
  <course>284.3</course>
  <speed>0.0</speed>
  <fix>3d</fix>
</trkpt>
<trkpt lat="40.0728419" lon="-105.2305749">
  <ele>1586.2</ele>
  <time>2026-08-27T18:28:27Z</time>
  <course>10.3</course>
  <speed>0.01414213562373095</speed>
  <fix>3d</fix>
</trkpt>
<trkpt lat="40.072842" lon="-105.230575">
  <ele>1586.09</ele>
  <time>2026-08-27T18:28:27Z</time>
  <course>284.2</course>
  <speed>0.0</speed>
  <fix>3d</fix>
</trkpt>
<trkpt lat="40.0728419" lon="-105.2305749">
  <ele>1586.2</ele>
  <time>2026-08-27T18:28:27Z</time>
  <course>10.29</course>
  <speed>0.01414213562373095</speed>
  <fix>3d</fix>
</trkpt>
<trkpt lat="40.072842" lon="-105.230575">
  <ele>1586.09</ele>
  <time>2026-08-27T18:28:27Z</time>
  <course>284.09</course>
  <speed>0.0</speed>
  <fix>3d</fix>
</trkpt>
<trkpt lat="40.0728419" lon="-105.2305749">
  <ele>1586.2</ele>
  <time>2026-08-27T18:28:27Z</time>
  <course>10.27</course>
  <speed>0.01414213562373095</speed>
  <fix>3d</fix>
</trkpt>
<trkpt lat="40.072842" lon="-105.230575">
  <ele>1586.09</ele>
  <time>2026-08-27T18:28:27Z</time>
  <course>283.98</course>
  <speed>0.0</speed>
  <fix>3d</fix>
</trkpt>
<trkpt lat="40.0728419" lon="-105.2305749">
  <ele>1586.2</ele>
  <time>2026-08-27T18:28:27Z</time>
  <course>10.25</course>
  <speed>0.01414213562373095</speed>
  <fix>3d</fix>
</trkpt>
<trkpt lat="40.072842" lon="-105.230575">
  <ele>1586.09</ele>
  <time>2026-08-27T18:28:27Z</time>
  <course>283.87</course>
  <speed>0.0</speed>
  <fix>3d</fix>
</trkpt>
<trkpt lat="40.0728419" lon="-105.2305749">
  <ele>1586.2</ele>
  <time>2026-08-27T18:28:27Z</time>
  <course>10.23</course>
  <speed>0.01414213562373095</speed>
  <fix>3d</fix>
</trkpt>
<trkpt lat="40.072842" lon="-105.230575">
  <ele>1586.09</ele>
  <time>2026-08-27T18:28:27Z</time>
  <course>283.75</course>
  <speed>0.0</speed>
  <fix>3d</fix>
</trkpt>
<trkpt lat="40.0728419" lon="-105.2305749">
  <ele>1586.19</ele>
  <time>2026-08-27T18:28:27Z</time>
  <course>10.21</course>
  <speed>0.01414213562373095</speed>
  <fix>3d</fix>
</trkpt>
<trkpt lat="40.072842" lon="-105.230575">
  <ele>1586.09</ele>
  <time>2026-08-27T18:28:27Z</time>
  <course>283.64</course>
  <speed>0.0</speed>
  <fix>3d</fix>
</trkpt>
<trkpt lat="40.0728419" lon="-105.2305749">
  <ele>1586.19</ele>
  <time>2026-08-27T18:28:27Z</time>
  <course>10.19</course>
  <speed>0.01414213562373095</speed>
  <fix>3d</fix>
</trkpt>
<trkpt lat="40.072842" lon="-105.230575">
  <ele>1586.09</ele>
  <time>2026-08-27T18:28:27Z</time>
  <course>283.52</course>
  <speed>0.0</speed>
  <fix>3d</fix>
</trkpt>
<trkpt lat="40.0728419" lon="-105.2305749">
  <ele>1586.19</ele>
  <time>2026-08-27T18:28:27Z</time>
  <course>10.16</course>
  <speed>0.01414213562373095</speed>
  <fix>3d</fix>
</trkpt>
<trkpt lat="40.072842" lon="-105.230575">
  <ele>1586.09</ele>
  <time>2026-08-27T18:28:27Z</time>
  <course>283.4</course>
  <speed>0.0</speed>
  <fix>3d</fix>
</trkpt>
<trkpt lat="40.0728419" lon="-105.2305749">
  <ele>1586.19</ele>
  <time>2026-08-27T18:28:27Z</time>
  <course>10.14</course>
  <speed>0.01414213562373095</speed>
  <fix>3d</fix>
</trkpt>
<trkpt lat="40.072842" lon="-105.230575">
  <ele>1586.09</ele>
  <time>2026-08-27T18:28:27Z</time>
  <course>283.28</course>
  <speed>0.0</speed>
  <fix>3d</fix>
</trkpt>
<trkpt lat="40.0728419" lon="-105.2305749">
  <ele>1586.19</ele>
  <time>2026-08-27T18:28:27Z</time>
  <course>10.11</course>
  <speed>0.01414213562373095</speed>
  <fix>3d</fix>
</trkpt>
<trkpt lat="40.072842" lon="-105.230575">
  <ele>1586.09</ele>
  <time>2026-08-27T18:28:27Z</time>
  <course>283.16</course>
  <speed>0.0</speed>
  <fix>3d</fix>
</trkpt>
<trkpt lat="40.0728419" lon="-105.2305749">
  <ele>1586.19</ele>
  <time>2026-08-27T18:28:27Z</time>
  <course>10.08</course>
  <speed>0.01414213562373095</speed>
  <fix>3d</fix>
</trkpt>
<trkpt lat="40.072842" lon="-105.230575">
  <ele>1586.09</ele>
  <time>2026-08-27T18:28:27Z</time>
  <course>283.03</course>
  <speed>0.0</speed>
  <fix>3d</fix>
</trkpt>
<trkpt lat="40.0728419" lon="-105.2305749">
  <ele>1586.19</ele>
  <time>2026-08-27T18:28:27Z</time>
  <course>10.05</course>
  <speed>0.01414213562373095</speed>
  <fix>3d</fix>
</trkpt>
<trkpt lat="40.072842" lon="-105.230575">
  <ele>1586.09</ele>
  <time>2026-08-27T18:28:27Z</time>
  <course>331.35</course>
  <speed>0.0</speed>
  <fix>3d</fix>
</trkpt>
<trkpt lat="40.0728419" lon="-105.2305749">
  <ele>1586.19</ele>
  <time>2026-08-27T18:28:27Z</time>
  <course>10.02</course>
  <speed>0.01414213562373095</speed>
  <fix>3d</fix>
</trkpt>
<trkpt lat="40.072842" lon="-105.230575">
  <ele>1586.09</ele>
  <time>2026-08-27T18:28:27Z</time>
  <course>321.91</course>
  <speed>0.0</speed>
  <fix>3d</fix>
</trkpt>
<trkpt lat="40.0728419" lon="-105.2305749">
  <ele>1586.19</ele>
  <time>2026-08-27T18:28:27Z</time>
  <course>9.99</course>
  <speed>0.022360679774997897</speed>
  <fix>3d</fix>
</trkpt>
<trkpt lat="40.072842" lon="-105.230575">
  <ele>1586.09</ele>
  <time>2026-08-27T18:28:27Z</time>
  <course>269.41</course>
  <speed>0.0</speed>
  <fix>3d</fix>
</trkpt>
<trkpt lat="40.0728419" lon="-105.2305749">
  <ele>1586.19</ele>
  <time>2026-08-27T18:28:27Z</time>
  <course>9.95</course>
  <speed>0.022360679774997897</speed>
  <fix>3d</fix>
</trkpt>
<trkpt lat="40.072842" lon="-105.230575">
  <ele>1586.09</ele>
  <time>2026-08-27T18:28:27Z</time>
  <course>206.38</course>
  <speed>0.0</speed>
  <fix>3d</fix>
</trkpt>
<trkpt lat="40.0728419" lon="-105.2305749">
  <ele>1586.19</ele>
  <time>2026-08-27T18:28:27Z</time>
  <course>9.91</course>
  <speed>0.022360679774997897</speed>
  <fix>3d</fix>
</trkpt>
<trkpt lat="40.072842" lon="-105.230575">
  <ele>1586.09</ele>
  <time>2026-08-27T18:28:27Z</time>
  <course>297.06</course>
  <speed>0.0</speed>
  <fix>3d</fix>
</trkpt>
<trkpt lat="40.0728419" lon="-105.2305749">
  <ele>1586.19</ele>
  <time>2026-08-27T18:28:27Z</time>
  <course>9.87</course>
  <speed>0.022360679774997897</speed>
  <fix>3d</fix>
</trkpt>
<trkpt lat="40.072842" lon="-105.230575">
  <ele>1586.09</ele>
  <time>2026-08-27T18:28:27Z</time>
  <course>291.08</course>
  <speed>0.0</speed>
  <fix>3d</fix>
</trkpt>
<trkpt lat="40.0728419" lon="-105.2305749">
  <ele>1586.19</ele>
  <time>2026-08-27T18:28:27Z</time>
  <course>9.83</course>
  <speed>0.022360679774997897</speed>
  <fix>3d</fix>
</trkpt>
<trkpt lat="40.072842" lon="-105.230575">
  <ele>1586.09</ele>
  <time>2026-08-27T18:28:27Z</time>
  <course>286.87</course>
  <speed>0.0</speed>
  <fix>3d</fix>
</trkpt>
<trkpt lat="40.0728419" lon="-105.2305749">
  <ele>1586.2</ele>
  <time>2026-08-27T18:28:27Z</time>
  <course>9.79</course>
  <speed>0.022360679774997897</speed>
  <fix>3d</fix>
</trkpt>
<trkpt lat="40.072842" lon="-105.230575">
  <ele>1586.09</ele>
  <time>2026-08-27T18:28:27Z</time>
  <course>288.02</course>
  <speed>0.0</speed>
  <fix>3d</fix>
</trkpt>
<trkpt lat="40.0728419" lon="-105.2305749">
  <ele>1586.2</ele>
  <time>2026-08-27T18:28:27Z</time>
  <course>9.75</course>
  <speed>0.022360679774997897</speed>
  <fix>3d</fix>
</trkpt>
<trkpt lat="40.072842" lon="-105.230575">
  <ele>1586.09</ele>
  <time>2026-08-27T18:28:27Z</time>
  <course>288.33</course>
  <speed>0.0</speed>
  <fix>3d</fix>
</trkpt>
<trkpt lat="40.0728419" lon="-105.2305749">
  <ele>1586.2</ele>
  <time>2026-08-27T18:28:27Z</time>
  <course>9.7</course>
  <speed>0.022360679774997897</speed>
  <fix>3d</fix>
</trkpt>
<trkpt lat="40.072842" lon="-105.230575">
  <ele>1586.09</ele>
  <time>2026-08-27T18:28:27Z</time>
  <course>287.97</course>
  <speed>0.0</speed>
  <fix>3d</fix>
</trkpt>
<trkpt lat="40.0728419" lon="-105.2305749">
  <ele>1586.19</ele>
  <time>2026-08-27T18:28:27Z</time>
  <course>9.66</course>
  <speed>0.022360679774997897</speed>
  <fix>3d</fix>
</trkpt>
<trkpt lat="40.072842" lon="-105.230575">
  <ele>1586.09</ele>
  <time>2026-08-27T18:28:27Z</time>
  <course>287.79</course>
  <speed>0.0</speed>
  <fix>3d</fix>
</trkpt>
<trkpt lat="40.0728419" lon="-105.2305749">
  <ele>1586.19</ele>
  <time>2026-08-27T18:28:27Z</time>
  <course>9.61</course>
  <speed>0.022360679774997897</speed>
  <fix>3d</fix>
</trkpt>
<trkpt lat="40.072842" lon="-105.230575">
  <ele>1586.09</ele>
  <time>2026-08-27T18:28:27Z</time>
  <course>287.69</course>
  <speed>0.0</speed>
  <fix>3d</fix>
</trkpt>
<trkpt lat="40.0728419" lon="-105.2305749">
  <ele>1586.2</ele>
  <time>2026-08-27T18:28:27Z</time>
  <course>9.56</course>
  <speed>0.022360679774997897</speed>
  <fix>3d</fix>
</trkpt>
<trkpt lat="40.072842" lon="-105.230575">
  <ele>1586.09</ele>
  <time>2026-08-27T18:28:27Z</time>
  <course>287.54</course>
  <speed>0.0</speed>
  <fix>3d</fix>
</trkpt>
<trkpt lat="40.0728419" lon="-105.2305749">
  <ele>1586.19</ele>
  <time>2026-08-27T18:28:27Z</time>
  <course>9.51</course>
  <speed>0.022360679774997897</speed>
  <fix>3d</fix>
</trkpt>
<trkpt lat="40.072842" lon="-105.230575">
  <ele>1586.09</ele>
  <time>2026-08-27T18:28:27Z</time>
  <course>287.39</course>
  <speed>0.0</speed>
  <fix>3d</fix>
</trkpt>
<trkpt lat="40.0728419" lon="-105.2305749">
  <ele>1586.19</ele>
  <time>2026-08-27T18:28:27Z</time>
  <course>9.46</course>
  <speed>0.022360679774997897</speed>
  <fix>3d</fix>
</trkpt>
<trkpt lat="40.072842" lon="-105.230575">
  <ele>1586.09</ele>
  <time>2026-08-27T18:28:27Z</time>
  <course>287.25</course>
  <speed>0.0</speed>
  <fix>3d</fix>
</trkpt>
<trkpt lat="40.0728419" lon="-105.2305749">
  <ele>1586.19</ele>
  <time>2026-08-27T18:28:27Z</time>
  <course>9.4</course>
  <speed>0.022360679774997897</speed>
  <fix>3d</fix>
</trkpt>
<trkpt lat="40.072842" lon="-105.230575">
  <ele>1586.09</ele>
  <time>2026-08-27T18:28:27Z</time>
  <course>287.1</course>
  <speed>0.0</speed>
  <fix>3d</fix>
</trkpt>
<trkpt lat="40.0728419" lon="-105.2305749">
  <ele>1586.19</ele>
  <time>2026-08-27T18:28:27Z</time>
  <course>9.35</course>
  <speed>0.022360679774997897</speed>
  <fix>3d</fix>
</trkpt>
<trkpt lat="40.072842" lon="-105.230575">
  <ele>1586.09</ele>
  <time>2026-08-27T18:28:27Z</time>
  <course>286.95</course>
  <speed>0.0</speed>
  <fix>3d</fix>
</trkpt>
<trkpt lat="40.0728419" lon="-105.2305749">
  <ele>1586.19</ele>
  <time>2026-08-27T18:28:27Z</time>
  <course>9.29</course>
  <speed>0.022360679774997897</speed>
  <fix>3d</fix>
</trkpt>
<trkpt lat="40.072842" lon="-105.230575">
  <ele>1586.09</ele>
  <time>2026-08-27T18:28:27Z</time>
  <course>286.8</course>
  <speed>0.0</speed>
  <fix>3d</fix>
</trkpt>
<trkpt lat="40.0728419" lon="-105.2305749">
  <ele>1586.19</ele>
  <time>2026-08-27T18:28:27Z</time>
  <course>9.23</course>
  <speed>0.022360679774997897</speed>
  <fix>3d</fix>
</trkpt>
<trkpt lat="40.072842" lon="-105.230575">
  <ele>1586.09</ele>
  <time>2026-08-27T18:28:27Z</time>
  <course>286.64</course>
  <speed>0.0</speed>
  <fix>3d</fix>
</trkpt>
<trkpt lat="40.0728419" lon="-105.2305749">
  <ele>1586.19</ele>
  <time>2026-08-27T18:28:27Z</time>
  <course>9.17</course>
  <speed>0.022360679774997897</speed>
  <fix>3d</fix>
</trkpt>
<trkpt lat="40.072842" lon="-105.230575">
  <ele>1586.09</ele>
  <time>2026-08-27T18:28:27Z</time>
  <course>286.49</course>
  <speed>0.0</speed>
  <fix>3d</fix>
</trkpt>
<trkpt lat="40.0728419" lon="-105.2305749">
  <ele>1586.19</ele>
  <time>2026-08-27T18:28:27Z</time>
  <course>9.1</course>
  <speed>0.022360679774997897</speed>
  <fix>3d</fix>
</trkpt>
<trkpt lat="40.072842" lon="-105.230575">
  <ele>1586.09</ele>
  <time>2026-08-27T18:28:27Z</time>
  <course>286.33</course>
  <speed>0.0</speed>
  <fix>3d</fix>
</trkpt>
<trkpt lat="40.0728419" lon="-105.2305749">
  <ele>1586.19</ele>
  <time>2026-08-27T18:28:27Z</time>
  <course>9.04</course>
  <speed>0.022360679774997897</speed>
  <fix>3d</fix>
</trkpt>
<trkpt lat="40.072842" lon="-105.230575">
  <ele>1586.09</ele>
  <time>2026-08-27T18:28:27Z</time>
  <course>286.18</course>
  <speed>0.0</speed>
  <fix>3d</fix>
</trkpt>
<trkpt lat="40.0728419" lon="-105.2305749">
  <ele>1586.19</ele>
  <time>2026-08-27T18:28:27Z</time>
  <course>8.98</course>
  <speed>0.022360679774997897</speed>
  <fix>3d</fix>
</trkpt>
<trkpt lat="40.072842" lon="-105.230575">
  <ele>1586.09</ele>
  <time>2026-08-27T18:28:27Z</time>
  <course>286.08</course>
  <speed>0.0</speed>
  <fix>3d</fix>
</trkpt>
<trkpt lat="40.0728419" lon="-105.2305749">
  <ele>1586.19</ele>
  <time>2026-08-27T18:28:27Z</time>
  <course>8.91</course>
  <speed>0.022360679774997897</speed>
  <fix>3d</fix>
</trkpt>
<trkpt lat="40.072842" lon="-105.230575">
  <ele>1586.09</ele>
  <time>2026-08-27T18:28:27Z</time>
  <course>286.02</course>
  <speed>0.0</speed>
  <fix>3d</fix>
</trkpt>
<trkpt lat="40.0728419" lon="-105.2305749">
  <ele>1586.19</ele>
  <time>2026-08-27T18:28:27Z</time>
  <course>8.85</course>
  <speed>0.022360679774997897</speed>
  <fix>3d</fix>
</trkpt>
<trkpt lat="40.072842" lon="-105.230575">
  <ele>1586.09</ele>
  <time>2026-08-27T18:28:27Z</time>
  <course>285.96</course>
  <speed>0.0</speed>
  <fix>3d</fix>
</trkpt>
<trkpt lat="40.0728419" lon="-105.2305749">
  <ele>1586.2</ele>
  <time>2026-08-27T18:28:27Z</time>
  <course>8.79</course>
  <speed>0.022360679774997897</speed>
  <fix>3d</fix>
</trkpt>
<trkpt lat="40.072842" lon="-105.230575">
  <ele>1586.09</ele>
  <time>2026-08-27T18:28:27Z</time>
  <course>285.9</course>
  <speed>0.0</speed>
  <fix>3d</fix>
</trkpt>
<trkpt lat="40.0728419" lon="-105.2305749">
  <ele>1586.2</ele>
  <time>2026-08-27T18:28:27Z</time>
  <course>8.72</course>
  <speed>0.022360679774997897</speed>
  <fix>3d</fix>
</trkpt>
<trkpt lat="40.072842" lon="-105.230575">
  <ele>1586.09</ele>
  <time>2026-08-27T18:28:27Z</time>
  <course>285.83</course>
  <speed>0.0</speed>
  <fix>3d</fix>
</trkpt>
<trkpt lat="40.0728419" lon="-105.2305749">
  <ele>1586.2</ele>
  <time>2026-08-27T18:28:27Z</time>
  <course>8.66</course>
  <speed>0.022360679774997897</speed>
  <fix>3d</fix>
</trkpt>
<trkpt lat="40.072842" lon="-105.230575">
  <ele>1586.09</ele>
  <time>2026-08-27T18:28:27Z</time>
  <course>285.77</course>
  <speed>0.0</speed>
  <fix>3d</fix>
</trkpt>
<trkpt lat="40.0728419" lon="-105.2305749">
  <ele>1586.2</ele>
  <time>2026-08-27T18:28:27Z</time>
  <course>8.6</course>
  <speed>0.022360679774997897</speed>
  <fix>3d</fix>
</trkpt>
<trkpt lat="40.072842" lon="-105.230575">
  <ele>1586.09</ele>
  <time>2026-08-27T18:28:27Z</time>
  <course>285.7</course>
  <speed>0.0</speed>
  <fix>3d</fix>
</trkpt>
<trkpt lat="40.0728419" lon="-105.2305749">
  <ele>1586.2</ele>
  <time>2026-08-27T18:28:27Z</time>
  <course>8.54</course>
  <speed>0.022360679774997897</speed>
  <fix>3d</fix>
</trkpt>
<trkpt lat="40.072842" lon="-105.230575">
  <ele>1586.09</ele>
  <time>2026-08-27T18:28:27Z</time>
  <course>207.91</course>
  <speed>0.0</speed>
  <fix>3d</fix>
</trkpt>
<trkpt lat="40.0728419" lon="-105.2305749">
  <ele>1586.2</ele>
  <time>2026-08-27T18:28:27Z</time>
  <course>8.49</course>
  <speed>0.022360679774997897</speed>
  <fix>3d</fix>
</trkpt>
<trkpt lat="40.072842" lon="-105.230575">
  <ele>1586.09</ele>
  <time>2026-08-27T18:28:27Z</time>
  <course>254.51</course>
  <speed>0.0</speed>
  <fix>3d</fix>
</trkpt>
<trkpt lat="40.0728419" lon="-105.2305749">
  <ele>1586.2</ele>
  <time>2026-08-27T18:28:27Z</time>
  <course>8.43</course>
  <speed>0.022360679774997897</speed>
  <fix>3d</fix>
</trkpt>
<trkpt lat="40.072842" lon="-105.230575">
  <ele>1586.09</ele>
  <time>2026-08-27T18:28:27Z</time>
  <course>269.3</course>
  <speed>0.0</speed>
  <fix>3d</fix>
</trkpt>
<trkpt lat="40.0728419" lon="-105.2305749">
  <ele>1586.21</ele>
  <time>2026-08-27T18:28:27Z</time>
  <course>8.36</course>
  <speed>0.022360679774997897</speed>
  <fix>3d</fix>
</trkpt>
<trkpt lat="40.072842" lon="-105.230575">
  <ele>1586.09</ele>
  <time>2026-08-27T18:28:27Z</time>
  <course>269.95</course>
  <speed>0.0</speed>
  <fix>3d</fix>
</trkpt>
<trkpt lat="40.0728419" lon="-105.2305749">
  <ele>1586.21</ele>
  <time>2026-08-27T18:28:27Z</time>
  <course>8.27</course>
  <speed>0.022360679774997897</speed>
  <fix>3d</fix>
</trkpt>
<trkpt lat="40.072842" lon="-105.230575">
  <ele>1586.09</ele>
  <time>2026-08-27T18:28:27Z</time>
  <course>267.06</course>
  <speed>0.0</speed>
  <fix>3d</fix>
</trkpt>
<trkpt lat="40.0728419" lon="-105.2305749">
  <ele>1586.23</ele>
  <time>2026-08-27T18:28:27Z</time>
  <course>8.17</course>
  <speed>0.022360679774997897</speed>
  <fix>3d</fix>
</trkpt>
<trkpt lat="40.072842" lon="-105.230575">
  <ele>1586.09</ele>
  <time>2026-08-27T18:28:27Z</time>
  <course>266.39</course>
  <speed>0.0</speed>
  <fix>3d</fix>
</trkpt>
<trkpt lat="40.0728419" lon="-105.2305749">
  <ele>1586.26</ele>
  <time>2026-08-27T18:28:27Z</time>
  <course>8.06</course>
  <speed>0.022360679774997897</speed>
  <fix>3d</fix>
</trkpt>
<trkpt lat="40.072842" lon="-105.230575">
  <ele>1586.11</ele>
  <time>2026-08-27T18:28:27Z</time>
  <course>274.17</course>
  <speed>0.0</speed>
  <fix>3d</fix>
</trkpt>
<trkpt lat="40.0728419" lon="-105.2305749">
  <ele>1586.31</ele>
  <time>2026-08-27T18:28:27Z</time>
  <course>7.94</course>
  <speed>0.022360679774997897</speed>
  <fix>3d</fix>
</trkpt>
<trkpt lat="40.072842" lon="-105.230575">
  <ele>1586.15</ele>
  <time>2026-08-27T18:28:27Z</time>
  <course>274.46</course>
  <speed>0.0</speed>
  <fix>3d</fix>
</trkpt>
<trkpt lat="40.0728419" lon="-105.2305749">
  <ele>1586.41</ele>
  <time>2026-08-27T18:28:27Z</time>
  <course>1.73</course>
  <speed>0.0412310562561766</speed>
  <fix>3d</fix>
</trkpt>
<trkpt lat="40.072842" lon="-105.230575">
  <ele>1586.19</ele>
  <time>2026-08-27T18:28:27Z</time>
  <course>268.85</course>
  <speed>0.0</speed>
  <fix>3d</fix>
</trkpt>
<trkpt lat="40.0728419" lon="-105.2305752">
  <ele>1586.68</ele>
  <time>2026-08-27T18:28:27Z</time>
  <course>358.24</course>
  <speed>0.21</speed>
  <fix>3d</fix>
</trkpt>
<trkpt lat="40.072842" lon="-105.230575">
  <ele>1586.3</ele>
  <time>2026-08-27T18:28:27Z</time>
  <course>264.86</course>
  <speed>0.07</speed>
  <fix>3d</fix>
</trkpt>
<trkpt lat="40.0728419" lon="-105.2305759">
  <ele>1586.94</ele>
  <time>2026-08-27T18:28:27Z</time>
  <course>357.19</course>
  <speed>0.28</speed>
  <fix>3d</fix>
</trkpt>
<trkpt lat="40.072842" lon="-105.2305753">
  <ele>1586.53</ele>
  <time>2026-08-27T18:28:27Z</time>
  <course>264.53</course>
  <speed>0.2</speed>
  <fix>3d</fix>
</trkpt>
<trkpt lat="40.0728419" lon="-105.2305766">
  <ele>1587.2</ele>
  <time>2026-08-27T18:28:27Z</time>
  <course>355.49</course>
  <speed>0.3101612483854165</speed>
  <fix>3d</fix>
</trkpt>
<trkpt lat="40.072842" lon="-105.2305759">
  <ele>1586.8</ele>
  <time>2026-08-27T18:28:27Z</time>
  <course>263.91</course>
  <speed>0.29</speed>
  <fix>3d</fix>
</trkpt>
<trkpt lat="40.0728419" lon="-105.2305773">
  <ele>1587.5</ele>
  <time>2026-08-27T18:28:27Z</time>
  <course>354.26</course>
  <speed>0.31064449134018135</speed>
  <fix>3d</fix>
</trkpt>
<trkpt lat="40.0728419" lon="-105.2305767">
  <ele>1587.06</ele>
  <time>2026-08-27T18:28:27Z</time>
  <course>262.92</course>
  <speed>0.32</speed>
  <fix>3d</fix>
</trkpt>
<trkpt lat="40.0728418" lon="-105.2305781">
  <ele>1587.84</ele>
  <time>2026-08-27T18:28:27Z</time>
  <course>353.41</course>
  <speed>0.291547594742265</speed>
  <fix>3d</fix>
</trkpt>
<trkpt lat="40.0728418" lon="-105.2305774">
  <ele>1587.35</ele>
  <time>2026-08-27T18:28:27Z</time>
  <course>262.17</course>
  <speed>0.33</speed>
  <fix>3d</fix>
</trkpt>
<trkpt lat="40.0728417" lon="-105.2305788">
  <ele>1588.22</ele>
  <time>2026-08-27T18:28:27Z</time>
  <course>352.66</course>
  <speed>0.261725046566048</speed>
  <fix>3d</fix>
</trkpt>
<trkpt lat="40.0728417" lon="-105.2305782">
  <ele>1587.67</ele>
  <time>2026-08-27T18:28:27Z</time>
  <course>262.45</course>
  <speed>0.31</speed>
  <fix>3d</fix>
</trkpt>
<trkpt lat="40.0728416" lon="-105.2305794">
  <ele>1588.63</ele>
  <time>2026-08-27T18:28:27Z</time>
  <course>351.98</course>
  <speed>0.2220360331117452</speed>
  <fix>3d</fix>
</trkpt>
<trkpt lat="40.0728417" lon="-105.2305789">
  <ele>1588.04</ele>
  <time>2026-08-27T18:28:27Z</time>
  <course>264.03</course>
  <speed>0.28</speed>
  <fix>3d</fix>
</trkpt>
<trkpt lat="40.0728416" lon="-105.2305799">
  <ele>1589.1</ele>
  <time>2026-08-27T18:28:27Z</time>
  <course>349.37</course>
  <speed>0.1711724276862369</speed>
  <fix>3d</fix>
</trkpt>
<trkpt lat="40.0728416" lon="-105.2305795">
  <ele>1588.45</ele>
  <time>2026-08-27T18:28:27Z</time>
  <course>266.97</course>
  <speed>0.24</speed>
  <fix>3d</fix>
</trkpt>
<trkpt lat="40.0728416" lon="-105.2305803">
  <ele>1589.59</ele>
  <time>2026-08-27T18:28:27Z</time>
  <course>348.84</course>
  <speed>0.13152946437965907</speed>
  <fix>3d</fix>
</trkpt>
<trkpt lat="40.0728416" lon="-105.23058">
  <ele>1588.9</ele>
  <time>2026-08-27T18:28:27Z</time>
  <course>271.36</course>
  <speed>0.2</speed>
  <fix>3d</fix>
</trkpt>
<trkpt lat="40.0728416" lon="-105.2305806">
  <ele>1590.11</ele>
  <time>2026-08-27T18:28:27Z</time>
  <course>349.09</course>
  <speed>0.0824621125123532</speed>
  <fix>3d</fix>
</trkpt>
<trkpt lat="40.0728417" lon="-105.2305805">
  <ele>1589.39</ele>
  <time>2026-08-27T18:28:27Z</time>
  <course>277.51</course>
  <speed>0.16</speed>
  <fix>3d</fix>
</trkpt>
<trkpt lat="40.0728416" lon="-105.2305808">
  <ele>1590.63</ele>
  <time>2026-08-27T18:28:27Z</time>
  <course>349.73</course>
  <speed>0.04</speed>
  <fix>3d</fix>
</trkpt>
<trkpt lat="40.0728417" lon="-105.2305808">
  <ele>1589.9</ele>
  <time>2026-08-27T18:28:27Z</time>
  <course>286.58</course>
  <speed>0.12</speed>
  <fix>3d</fix>
</trkpt>
<trkpt lat="40.0728416" lon="-105.2305809">
  <ele>1591.15</ele>
  <time>2026-08-27T18:28:27Z</time>
  <course>350.35</course>
  <speed>0.0</speed>
  <fix>3d</fix>
</trkpt>
<trkpt lat="40.0728417" lon="-105.230581">
  <ele>1590.42</ele>
  <time>2026-08-27T18:28:27Z</time>
  <course>302.81</course>
  <speed>0.08</speed>
  <fix>3d</fix>
</trkpt>
<trkpt lat="40.0728417" lon="-105.230581">
  <ele>1591.67</ele>
  <time>2026-08-27T18:28:27Z</time>
  <course>350.95</course>
  <speed>0.0412310562561766</speed>
  <fix>3d</fix>
</trkpt>
<trkpt lat="40.0728417" lon="-105.2305811">
  <ele>1590.94</ele>
  <time>2026-08-27T18:28:27Z</time>
  <course>337.54</course>
  <speed>0.05</speed>
  <fix>3d</fix>
</trkpt>
<trkpt lat="40.0728418" lon="-105.2305809">
  <ele>1592.18</ele>
  <time>2026-08-27T18:28:27Z</time>
  <course>351.54</course>
  <speed>0.08062257748298549</speed>
  <fix>3d</fix>
</trkpt>
<trkpt lat="40.0728418" lon="-105.2305811">
  <ele>1591.45</ele>
  <time>2026-08-27T18:28:27Z</time>
  <course>33.28</course>
  <speed>0.05</speed>
  <fix>3d</fix>
</trkpt>
<trkpt lat="40.0728419" lon="-105.2305807">
  <ele>1592.69</ele>
  <time>2026-08-27T18:28:27Z</time>
  <course>352.1</course>
  <speed>0.12</speed>
  <fix>3d</fix>
</trkpt>
<trkpt lat="40.0728419" lon="-105.230581">
  <ele>1591.96</ele>
  <time>2026-08-27T18:28:27Z</time>
  <course>67.23</course>
  <speed>0.08</speed>
  <fix>3d</fix>
</trkpt>
<trkpt lat="40.0728419" lon="-105.2305804">
  <ele>1593.2</ele>
  <time>2026-08-27T18:28:28Z</time>
  <course>352.62</course>
  <speed>0.16</speed>
  <fix>3d</fix>
</trkpt>
<trkpt lat="40.072842" lon="-105.2305808">
  <ele>1592.47</ele>
  <time>2026-08-27T18:28:28Z</time>
  <course>82.2</course>
  <speed>0.13</speed>
  <fix>3d</fix>
</trkpt>
<trkpt lat="40.0728419" lon="-105.23058">
  <ele>1593.71</ele>
  <time>2026-08-27T18:28:28Z</time>
  <course>353.13</course>
  <speed>0.19</speed>
  <fix>3d</fix>
</trkpt>
<trkpt lat="40.072842" lon="-105.2305805">
  <ele>1592.98</ele>
  <time>2026-08-27T18:28:28Z</time>
  <course>89.69</course>
  <speed>0.17</speed>
  <fix>3d</fix>
</trkpt>
<trkpt lat="40.0728419" lon="-105.2305795">
  <ele>1594.21</ele>
  <time>2026-08-27T18:28:28Z</time>
  <course>353.56</course>
  <speed>0.2102379604162864</speed>
  <fix>3d</fix>
</trkpt>
<trkpt lat="40.072842" lon="-105.23058">
  <ele>1593.48</ele>
  <time>2026-08-27T18:28:28Z</time>
  <course>93.95</course>
  <speed>0.21</speed>
  <fix>3d</fix>
</trkpt>
<trkpt lat="40.0728419" lon="-105.2305789">
  <ele>1594.71</ele>
  <time>2026-08-27T18:28:28Z</time>
  <course>353.99</course>
  <speed>0.23021728866442676</speed>
  <fix>3d</fix>
</trkpt>
<trkpt lat="40.072842" lon="-105.2305795">
  <ele>1593.98</ele>
  <time>2026-08-27T18:28:28Z</time>
  <course>96.69</course>
  <speed>0.24</speed>
  <fix>3d</fix>
</trkpt>
<trkpt lat="40.0728419" lon="-105.2305783">
  <ele>1595.21</ele>
  <time>2026-08-27T18:28:28Z</time>
  <course>354.41</course>
  <speed>0.24083189157584592</speed>
  <fix>3d</fix>
</trkpt>
<trkpt lat="40.072842" lon="-105.2305789">
  <ele>1594.48</ele>
  <time>2026-08-27T18:28:28Z</time>
  <course>98.72</course>
  <speed>0.26</speed>
  <fix>3d</fix>
</trkpt>
<trkpt lat="40.0728419" lon="-105.2305777">
  <ele>1595.71</ele>
  <time>2026-08-27T18:28:28Z</time>
  <course>354.8</course>
  <speed>0.24083189157584592</speed>
  <fix>3d</fix>
</trkpt>
<trkpt lat="40.0728419" lon="-105.2305782">
  <ele>1594.98</ele>
  <time>2026-08-27T18:28:28Z</time>
  <course>100.4</course>
  <speed>0.27</speed>
  <fix>3d</fix>
</trkpt>
<trkpt lat="40.0728418" lon="-105.2305771">
  <ele>1596.21</ele>
  <time>2026-08-27T18:28:28Z</time>
  <course>355.16</course>
  <speed>0.23021728866442676</speed>
  <fix>3d</fix>
</trkpt>
<trkpt lat="40.0728418" lon="-105.2305776">
  <ele>1595.47</ele>
  <time>2026-08-27T18:28:28Z</time>
  <course>101.95</course>
  <speed>0.27</speed>
  <fix>3d</fix>
</trkpt>
<trkpt lat="40.0728417" lon="-105.2305765">
  <ele>1596.71</ele>
  <time>2026-08-27T18:28:28Z</time>
  <course>355.5</course>
  <speed>0.2102379604162864</speed>
  <fix>3d</fix>
</trkpt>
<trkpt lat="40.0728417" lon="-105.230577">
  <ele>1595.97</ele>
  <time>2026-08-27T18:28:28Z</time>
  <course>103.51</course>
  <speed>0.26</speed>
  <fix>3d</fix>
</trkpt>
<trkpt lat="40.0728416" lon="-105.230576">
  <ele>1597.21</ele>
  <time>2026-08-27T18:28:28Z</time>
  <course>355.81</course>
  <speed>0.2002498439450079</speed>
  <fix>3d</fix>
</trkpt>
<trkpt lat="40.0728415" lon="-105.2305764">
  <ele>1596.47</ele>
  <time>2026-08-27T18:28:28Z</time>
  <course>105.24</course>
  <speed>0.25</speed>
  <fix>3d</fix>
</trkpt>
<trkpt lat="40.0728415" lon="-105.2305755">
  <ele>1597.7</ele>
  <time>2026-08-27T18:28:28Z</time>
  <course>356.11</course>
  <speed>0.17</speed>
  <fix>3d</fix>
</trkpt>
<trkpt lat="40.0728414" lon="-105.2305758">
  <ele>1596.96</ele>
  <time>2026-08-27T18:28:28Z</time>
  <course>107.26</course>
  <speed>0.23</speed>
  <fix>3d</fix>
</trkpt>
<trkpt lat="40.0728414" lon="-105.2305751">
  <ele>1598.21</ele>
  <time>2026-08-27T18:28:28Z</time>
  <course>356.38</course>
  <speed>0.15</speed>
  <fix>3d</fix>
</trkpt>
<trkpt lat="40.0728413" lon="-105.2305753">
  <ele>1597.46</ele>
  <time>2026-08-27T18:28:28Z</time>
  <course>109.55</course>
  <speed>0.2</speed>
  <fix>3d</fix>
</trkpt>
<trkpt lat="40.0728413" lon="-105.2305747">
  <ele>1598.71</ele>
  <time>2026-08-27T18:28:28Z</time>
  <course>356.65</course>
  <speed>0.12</speed>
  <fix>3d</fix>
</trkpt>
<trkpt lat="40.0728412" lon="-105.2305749">
  <ele>1597.95</ele>
  <time>2026-08-27T18:28:28Z</time>
  <course>112.19</course>
  <speed>0.17</speed>
  <fix>3d</fix>
</trkpt>
<trkpt lat="40.0728411" lon="-105.2305744">
  <ele>1599.21</ele>
  <time>2026-08-27T18:28:28Z</time>
  <course>356.91</course>
  <speed>0.09055385138137417</speed>
  <fix>3d</fix>
</trkpt>
<trkpt lat="40.0728411" lon="-105.2305746">
  <ele>1598.45</ele>
  <time>2026-08-27T18:28:28Z</time>
  <course>115.38</course>
  <speed>0.14</speed>
  <fix>3d</fix>
</trkpt>
<trkpt lat="40.0728411" lon="-105.2305742">
  <ele>1599.71</ele>
  <time>2026-08-27T18:28:28Z</time>
  <course>357.17</course>
  <speed>0.0632455532033676</speed>
  <fix>3d</fix>
</trkpt>
<trkpt lat="40.072841" lon="-105.2305744">
  <ele>1598.94</ele>
  <time>2026-08-27T18:28:28Z</time>
  <course>119.19</course>
  <speed>0.11</speed>
  <fix>3d</fix>
</trkpt>
<trkpt lat="40.0728411" lon="-105.2305741">
  <ele>1600.21</ele>
  <time>2026-08-27T18:28:28Z</time>
  <course>357.41</course>
  <speed>0.05</speed>
  <fix>3d</fix>
</trkpt>
<trkpt lat="40.0728409" lon="-105.2305742">
  <ele>1599.44</ele>
  <time>2026-08-27T18:28:28Z</time>
  <course>124.12</course>
  <speed>0.07</speed>
  <fix>3d</fix>
</trkpt>
<trkpt lat="40.072841" lon="-105.230574">
  <ele>1600.71</ele>
  <time>2026-08-27T18:28:28Z</time>
  <course>357.68</course>
  <speed>0.0412310562561766</speed>
  <fix>3d</fix>
</trkpt>
<trkpt lat="40.0728408" lon="-105.230574">
  <ele>1599.94</ele>
  <time>2026-08-27T18:28:28Z</time>
  <course>133.11</course>
  <speed>0.04</speed>
  <fix>3d</fix>
</trkpt>
<trkpt lat="40.072841" lon="-105.230574">
  <ele>1601.21</ele>
  <time>2026-08-27T18:28:28Z</time>
  <course>357.97</course>
  <speed>0.05</speed>
  <fix>3d</fix>
</trkpt>
<trkpt lat="40.0728408" lon="-105.2305739">
  <ele>1600.43</ele>
  <time>2026-08-27T18:28:28Z</time>
  <course>164.4</course>
  <speed>0.01</speed>
  <fix>3d</fix>
</trkpt>
<trkpt lat="40.0728409" lon="-105.230574">
  <ele>1601.71</ele>
  <time>2026-08-27T18:28:28Z</time>
  <course>358.23</course>
  <speed>0.06082762530298219</speed>
  <fix>3d</fix>
</trkpt>
<trkpt lat="40.0728408" lon="-105.2305739">
  <ele>1600.93</ele>
  <time>2026-08-27T18:28:28Z</time>
  <course>256.74</course>
  <speed>0.01</speed>
  <fix>3d</fix>
</trkpt>
<trkpt lat="40.072841" lon="-105.230574">
  <ele>1602.21</ele>
  <time>2026-08-27T18:28:28Z</time>
  <course>358.52</course>
  <speed>0.07615773105863909</speed>
  <fix>3d</fix>
</trkpt>
<trkpt lat="40.0728408" lon="-105.230574">
  <ele>1601.42</ele>
  <time>2026-08-27T18:28:28Z</time>
  <course>283.26</course>
  <speed>0.04</speed>
  <fix>3d</fix>
</trkpt>
<trkpt lat="40.072841" lon="-105.2305741">
  <ele>1602.7</ele>
  <time>2026-08-27T18:28:28Z</time>
  <course>358.78</course>
  <speed>0.07615773105863909</speed>
  <fix>3d</fix>
</trkpt>
<trkpt lat="40.0728408" lon="-105.2305741">
  <ele>1601.92</ele>
  <time>2026-08-27T18:28:28Z</time>
  <course>292.04</course>
  <speed>0.06</speed>
  <fix>3d</fix>
</trkpt>
<trkpt lat="40.0728411" lon="-105.2305743">
  <ele>1603.21</ele>
  <time>2026-08-27T18:28:28Z</time>
  <course>359.08</course>
  <speed>0.08944271909999159</speed>
  <fix>3d</fix>
</trkpt>
<trkpt lat="40.0728408" lon="-105.2305743">
  <ele>1602.41</ele>
  <time>2026-08-27T18:28:28Z</time>
  <course>297.02</course>
  <speed>0.07</speed>
  <fix>3d</fix>
</trkpt>
<trkpt lat="40.0728411" lon="-105.2305744">
  <ele>1603.71</ele>
  <time>2026-08-27T18:28:28Z</time>
  <course>359.35</course>
  <speed>0.08944271909999159</speed>
  <fix>3d</fix>
</trkpt>
<trkpt lat="40.0728408" lon="-105.2305744">
  <ele>1602.91</ele>
  <time>2026-08-27T18:28:28Z</time>
  <course>300.83</course>
  <speed>0.09</speed>
  <fix>3d</fix>
</trkpt>
<trkpt lat="40.0728412" lon="-105.2305746">
  <ele>1604.21</ele>
  <time>2026-08-27T18:28:28Z</time>
  <course>359.62</course>
  <speed>0.09848857801796104</speed>
  <fix>3d</fix>
</trkpt>
<trkpt lat="40.0728409" lon="-105.2305747">
  <ele>1603.4</ele>
  <time>2026-08-27T18:28:28Z</time>
  <course>304.64</course>
  <speed>0.09</speed>
  <fix>3d</fix>
</trkpt>
<trkpt lat="40.0728413" lon="-105.2305748">
  <ele>1604.71</ele>
  <time>2026-08-27T18:28:28Z</time>
  <course>359.89</course>
  <speed>0.09848857801796104</speed>
  <fix>3d</fix>
</trkpt>
<trkpt lat="40.072841" lon="-105.2305748">
  <ele>1603.9</ele>
  <time>2026-08-27T18:28:28Z</time>
  <course>308.57</course>
  <speed>0.1</speed>
  <fix>3d</fix>
</trkpt>
<trkpt lat="40.0728414" lon="-105.2305749">
  <ele>1605.2</ele>
  <time>2026-08-27T18:28:28Z</time>
  <course>0.12</course>
  <speed>0.09486832980505139</speed>
  <fix>3d</fix>
</trkpt>
<trkpt lat="40.0728411" lon="-105.2305749">
  <ele>1604.4</ele>
  <time>2026-08-27T18:28:28Z</time>
  <course>312.41</course>
  <speed>0.1</speed>
  <fix>3d</fix>
</trkpt>
<trkpt lat="40.0728415" lon="-105.2305751">
  <ele>1605.7</ele>
  <time>2026-08-27T18:28:28Z</time>
  <course>0.39</course>
  <speed>0.09486832980505139</speed>
  <fix>3d</fix>
</trkpt>
<trkpt lat="40.0728413" lon="-105.2305752">
  <ele>1604.89</ele>
  <time>2026-08-27T18:28:28Z</time>
  <course>316.3</course>
  <speed>0.1</speed>
  <fix>3d</fix>
</trkpt>
<trkpt lat="40.0728417" lon="-105.2305752">
  <ele>1606.2</ele>
  <time>2026-08-27T18:28:28Z</time>
  <course>0.58</course>
  <speed>0.09219544457292887</speed>
  <fix>3d</fix>
</trkpt>
<trkpt lat="40.0728414" lon="-105.2305753">
  <ele>1605.39</ele>
  <time>2026-08-27T18:28:28Z</time>
  <course>320.42</course>
  <speed>0.1</speed>
  <fix>3d</fix>
</trkpt>
<trkpt lat="40.0728418" lon="-105.2305754">
  <ele>1606.69</ele>
  <time>2026-08-27T18:28:28Z</time>
  <course>0.79</course>
  <speed>0.08062257748298549</speed>
  <fix>3d</fix>
</trkpt>
<trkpt lat="40.0728415" lon="-105.2305755">
  <ele>1605.88</ele>
  <time>2026-08-27T18:28:28Z</time>
  <course>324.53</course>
  <speed>0.1</speed>
  <fix>3d</fix>
</trkpt>
<trkpt lat="40.0728419" lon="-105.2305754">
  <ele>1607.19</ele>
  <time>2026-08-27T18:28:28Z</time>
  <course>1.0</course>
  <speed>0.07</speed>
  <fix>3d</fix>
</trkpt>
<trkpt lat="40.0728417" lon="-105.2305756">
  <ele>1606.38</ele>
  <time>2026-08-27T18:28:28Z</time>
  <course>328.6</course>
  <speed>0.09</speed>
  <fix>3d</fix>
</trkpt>
<trkpt lat="40.072842" lon="-105.2305755">
  <ele>1607.68</ele>
  <time>2026-08-27T18:28:28Z</time>
  <course>1.16</course>
  <speed>0.06</speed>
  <fix>3d</fix>
</trkpt>
<trkpt lat="40.0728419" lon="-105.2305757">
  <ele>1606.88</ele>
  <time>2026-08-27T18:28:28Z</time>
  <course>332.89</course>
  <speed>0.08</speed>
  <fix>3d</fix>
</trkpt>
<trkpt lat="40.0728421" lon="-105.2305755">
  <ele>1608.17</ele>
  <time>2026-08-27T18:28:28Z</time>
  <course>1.29</course>
  <speed>0.05099019513592785</speed>
  <fix>3d</fix>
</trkpt>
<trkpt lat="40.072842" lon="-105.2305758">
  <ele>1607.37</ele>
  <time>2026-08-27T18:28:28Z</time>
  <course>337.55</course>
  <speed>0.07</speed>
  <fix>3d</fix>
</trkpt>
<trkpt lat="40.0728422" lon="-105.2305756">
  <ele>1608.67</ele>
  <time>2026-08-27T18:28:28Z</time>
  <course>1.45</course>
  <speed>0.044721359549995794</speed>
  <fix>3d</fix>
</trkpt>
<trkpt lat="40.0728421" lon="-105.2305758">
  <ele>1607.87</ele>
  <time>2026-08-27T18:28:28Z</time>
  <course>343.25</course>
  <speed>0.06</speed>
  <fix>3d</fix>
</trkpt>
<trkpt lat="40.0728423" lon="-105.2305756">
  <ele>1609.17</ele>
  <time>2026-08-27T18:28:28Z</time>
  <course>1.58</course>
  <speed>0.04242640687119285</speed>
  <fix>3d</fix>
</trkpt>
<trkpt lat="40.0728422" lon="-105.2305759">
  <ele>1608.37</ele>
  <time>2026-08-27T18:28:28Z</time>
  <course>350.69</course>
  <speed>0.05</speed>
  <fix>3d</fix>
</trkpt>
<trkpt lat="40.0728423" lon="-105.2305756">
  <ele>1609.68</ele>
  <time>2026-08-27T18:28:28Z</time>
  <course>1.72</course>
  <speed>0.03605551275463989</speed>
  <fix>3d</fix>
</trkpt>
<trkpt lat="40.0728423" lon="-105.230576">
  <ele>1608.88</ele>
  <time>2026-08-27T18:28:28Z</time>
  <course>0.15</course>
  <speed>0.04</speed>
  <fix>3d</fix>
</trkpt>
<trkpt lat="40.0728424" lon="-105.2305756">
  <ele>1610.18</ele>
  <time>2026-08-27T18:28:28Z</time>
  <course>1.88</course>
  <speed>0.0412310562561766</speed>
  <fix>3d</fix>
</trkpt>
<trkpt lat="40.0728424" lon="-105.2305759">
  <ele>1609.38</ele>
  <time>2026-08-27T18:28:28Z</time>
  <course>13.29</course>
  <speed>0.03</speed>
  <fix>3d</fix>
</trkpt>
<trkpt lat="40.0728424" lon="-105.2305756">
  <ele>1610.69</ele>
  <time>2026-08-27T18:28:28Z</time>
  <course>2.02</course>
  <speed>0.04</speed>
  <fix>3d</fix>
</trkpt>
<trkpt lat="40.0728424" lon="-105.2305758">
  <ele>1609.88</ele>
  <time>2026-08-27T18:28:28Z</time>
  <course>33.62</course>
  <speed>0.02</speed>
  <fix>3d</fix>
</trkpt>
<trkpt lat="40.0728424" lon="-105.2305756">
  <ele>1611.19</ele>
  <time>2026-08-27T18:28:28Z</time>
  <course>2.17</course>
  <speed>0.05</speed>
  <fix>3d</fix>
</trkpt>
<trkpt lat="40.0728425" lon="-105.2305758">
  <ele>1610.39</ele>
  <time>2026-08-27T18:28:28Z</time>
  <course>59.67</course>
  <speed>0.02</speed>
  <fix>3d</fix>
</trkpt>
<trkpt lat="40.0728425" lon="-105.2305755">
  <ele>1611.69</ele>
  <time>2026-08-27T18:28:28Z</time>
  <course>2.29</course>
  <speed>0.05099019513592785</speed>
  <fix>3d</fix>
</trkpt>
<trkpt lat="40.0728425" lon="-105.2305758">
  <ele>1610.89</ele>
  <time>2026-08-27T18:28:28Z</time>
  <course>84.36</course>
  <speed>0.02</speed>
  <fix>3d</fix>
</trkpt>
<trkpt lat="40.0728425" lon="-105.2305754">
  <ele>1612.2</ele>
  <time>2026-08-27T18:28:28Z</time>
  <course>2.41</course>
  <speed>0.053851648071345036</speed>
  <fix>3d</fix>
</trkpt>
<trkpt lat="40.0728425" lon="-105.2305758">
  <ele>1611.39</ele>
  <time>2026-08-27T18:28:28Z</time>
  <course>102.93</course>
  <speed>0.02</speed>
  <fix>3d</fix>
</trkpt>
<trkpt lat="40.0728424" lon="-105.2305754">
  <ele>1612.7</ele>
  <time>2026-08-27T18:28:28Z</time>
  <course>2.51</course>
  <speed>0.05830951894845301</speed>
  <fix>3d</fix>
</trkpt>
<trkpt lat="40.0728425" lon="-105.2305758">
  <ele>1611.89</ele>
  <time>2026-08-27T18:28:28Z</time>
  <course>115.56</course>
  <speed>0.03</speed>
  <fix>3d</fix>
</trkpt>
<trkpt lat="40.0728424" lon="-105.2305753">
  <ele>1613.19</ele>
  <time>2026-08-27T18:28:28Z</time>
  <course>2.7</course>
  <speed>0.05830951894845301</speed>
  <fix>3d</fix>
</trkpt>
<trkpt lat="40.0728425" lon="-105.2305757">
  <ele>1612.39</ele>
  <time>2026-08-27T18:28:28Z</time>
  <course>124.17</course>
  <speed>0.03</speed>
  <fix>3d</fix>
</trkpt>
<trkpt lat="40.0728423" lon="-105.2305753">
  <ele>1613.68</ele>
  <time>2026-08-27T18:28:28Z</time>
  <course>3.16</course>
  <speed>0.05</speed>
  <fix>3d</fix>
</trkpt>
<trkpt lat="40.0728425" lon="-105.2305756">
  <ele>1612.88</ele>
  <time>2026-08-27T18:28:28Z</time>
  <course>131.16</course>
  <speed>0.03</speed>
  <fix>3d</fix>
</trkpt>
<trkpt lat="40.0728423" lon="-105.2305752">
  <ele>1614.13</ele>
  <time>2026-08-27T18:28:28Z</time>
  <course>3.68</course>
  <speed>0.05</speed>
  <fix>3d</fix>
</trkpt>
<trkpt lat="40.0728424" lon="-105.2305756">
  <ele>1613.37</ele>
  <time>2026-08-27T18:28:28Z</time>
  <course>136.57</course>
  <speed>0.03</speed>
  <fix>3d</fix>
</trkpt>
<trkpt lat="40.0728423" lon="-105.2305752">
  <ele>1614.55</ele>
  <time>2026-08-27T18:28:28Z</time>
  <course>4.17</course>
  <speed>0.05</speed>
  <fix>3d</fix>
</trkpt>
<trkpt lat="40.0728424" lon="-105.2305755">
  <ele>1613.83</ele>
  <time>2026-08-27T18:28:28Z</time>
  <course>138.64</course>
  <speed>0.03</speed>
  <fix>3d</fix>
</trkpt>
<trkpt lat="40.0728422" lon="-105.2305751">
  <ele>1614.92</ele>
  <time>2026-08-27T18:28:28Z</time>
  <course>4.63</course>
  <speed>0.05</speed>
  <fix>3d</fix>
</trkpt>
<trkpt lat="40.0728423" lon="-105.2305754">
  <ele>1614.25</ele>
  <time>2026-08-27T18:28:28Z</time>
  <course>137.51</course>
  <speed>0.03</speed>
  <fix>3d</fix>
</trkpt>
<trkpt lat="40.0728422" lon="-105.2305751">
  <ele>1615.25</ele>
  <time>2026-08-27T18:28:28Z</time>
  <course>5.03</course>
  <speed>0.05830951894845301</speed>
  <fix>3d</fix>
</trkpt>
<trkpt lat="40.0728423" lon="-105.2305753">
  <ele>1614.62</ele>
  <time>2026-08-27T18:28:28Z</time>
  <course>133.49</course>
  <speed>0.04</speed>
  <fix>3d</fix>
</trkpt>
<trkpt lat="40.0728422" lon="-105.230575">
  <ele>1615.53</ele>
  <time>2026-08-27T18:28:28Z</time>
  <course>5.4</course>
  <speed>0.053851648071345036</speed>
  <fix>3d</fix>
</trkpt>
<trkpt lat="40.0728422" lon="-105.2305753">
  <ele>1614.95</ele>
  <time>2026-08-27T18:28:28Z</time>
  <course>127.55</course>
  <speed>0.04</speed>
  <fix>3d</fix>
</trkpt>
<trkpt lat="40.0728421" lon="-105.2305749">
  <ele>1615.76</ele>
  <time>2026-08-27T18:28:28Z</time>
  <course>5.74</course>
  <speed>0.0632455532033676</speed>
  <fix>3d</fix>
</trkpt>
<trkpt lat="40.0728421" lon="-105.2305752">
  <ele>1615.24</ele>
  <time>2026-08-27T18:28:28Z</time>
  <course>121.09</course>
  <speed>0.04</speed>
  <fix>3d</fix>
</trkpt>
<trkpt lat="40.0728421" lon="-105.2305748">
  <ele>1615.95</ele>
  <time>2026-08-27T18:28:28Z</time>
  <course>6.05</course>
  <speed>0.0632455532033676</speed>
  <fix>3d</fix>
</trkpt>
<trkpt lat="40.0728421" lon="-105.2305751">
  <ele>1615.49</ele>
  <time>2026-08-27T18:28:28Z</time>
  <course>115.01</course>
  <speed>0.04</speed>
  <fix>3d</fix>
</trkpt>
<trkpt lat="40.0728421" lon="-105.2305747">
  <ele>1616.09</ele>
  <time>2026-08-27T18:28:28Z</time>
  <course>6.34</course>
  <speed>0.07071067811865475</speed>
  <fix>3d</fix>
</trkpt>
<trkpt lat="40.072842" lon="-105.230575">
  <ele>1615.69</ele>
  <time>2026-08-27T18:28:28Z</time>
  <course>109.75</course>
  <speed>0.05</speed>
  <fix>3d</fix>
</trkpt>
<trkpt lat="40.072842" lon="-105.2305746">
  <ele>1616.2</ele>
  <time>2026-08-27T18:28:28Z</time>
  <course>6.62</course>
  <speed>0.07071067811865475</speed>
  <fix>3d</fix>
</trkpt>
<trkpt lat="40.072842" lon="-105.2305749">
  <ele>1615.85</ele>
  <time>2026-08-27T18:28:28Z</time>
  <course>105.35</course>
  <speed>0.05</speed>
  <fix>3d</fix>
</trkpt>
<trkpt lat="40.072842" lon="-105.2305744">
  <ele>1616.27</ele>
  <time>2026-08-27T18:28:28Z</time>
  <course>6.89</course>
  <speed>0.07071067811865475</speed>
  <fix>3d</fix>
</trkpt>
<trkpt lat="40.072842" lon="-105.2305748">
  <ele>1615.97</ele>
  <time>2026-08-27T18:28:28Z</time>
  <course>101.71</course>
  <speed>0.05</speed>
  <fix>3d</fix>
</trkpt>
<trkpt lat="40.072842" lon="-105.2305743">
  <ele>1616.3</ele>
  <time>2026-08-27T18:28:28Z</time>
  <course>7.21</course>
  <speed>0.07071067811865475</speed>
  <fix>3d</fix>
</trkpt>
<trkpt lat="40.072842" lon="-105.2305746">
  <ele>1616.05</ele>
  <time>2026-08-27T18:28:28Z</time>
  <course>98.62</course>
  <speed>0.05</speed>
  <fix>3d</fix>
</trkpt>
<trkpt lat="40.072842" lon="-105.2305742">
  <ele>1616.29</ele>
  <time>2026-08-27T18:28:28Z</time>
  <course>7.72</course>
  <speed>0.07</speed>
  <fix>3d</fix>
</trkpt>
<trkpt lat="40.072842" lon="-105.2305745">
  <ele>1616.09</ele>
  <time>2026-08-27T18:28:28Z</time>
  <course>96.08</course>
  <speed>0.05</speed>
  <fix>3d</fix>
</trkpt>
<trkpt lat="40.072842" lon="-105.2305741">
  <ele>1616.26</ele>
  <time>2026-08-27T18:28:28Z</time>
  <course>7.57</course>
  <speed>0.06</speed>
  <fix>3d</fix>
</trkpt>
<trkpt lat="40.072842" lon="-105.2305744">
  <ele>1616.09</ele>
  <time>2026-08-27T18:28:28Z</time>
  <course>93.71</course>
  <speed>0.05</speed>
  <fix>3d</fix>
</trkpt>
<trkpt lat="40.072842" lon="-105.230574">
  <ele>1616.22</ele>
  <time>2026-08-27T18:28:28Z</time>
  <course>7.42</course>
  <speed>0.06</speed>
  <fix>3d</fix>
</trkpt>
<trkpt lat="40.072842" lon="-105.2305742">
  <ele>1616.06</ele>
  <time>2026-08-27T18:28:28Z</time>
  <course>90.21</course>
  <speed>0.04</speed>
  <fix>3d</fix>
</trkpt>
<trkpt lat="40.072842" lon="-105.2305738">
  <ele>1616.19</ele>
  <time>2026-08-27T18:28:28Z</time>
  <course>7.25</course>
  <speed>0.1044030650891055</speed>
  <fix>3d</fix>
</trkpt>
<trkpt lat="40.072842" lon="-105.2305741">
  <ele>1616.04</ele>
  <time>2026-08-27T18:28:28Z</time>
  <course>78.65</course>
  <speed>0.04</speed>
  <fix>3d</fix>
</trkpt>
<trkpt lat="40.0728421" lon="-105.2305735">
  <ele>1616.17</ele>
  <time>2026-08-27T18:28:28Z</time>
  <course>7.06</course>
  <speed>0.19697715603592209</speed>
  <fix>3d</fix>
</trkpt>
<trkpt lat="40.072842" lon="-105.2305739">
  <ele>1616.01</ele>
  <time>2026-08-27T18:28:28Z</time>
  <course>63.74</course>
  <speed>0.08</speed>
  <fix>3d</fix>
</trkpt>
<trkpt lat="40.0728423" lon="-105.230573">
  <ele>1616.15</ele>
  <time>2026-08-27T18:28:28Z</time>
  <course>6.84</course>
  <speed>0.3535533905932738</speed>
  <fix>3d</fix>
</trkpt>
<trkpt lat="40.0728421" lon="-105.2305737">
  <ele>1615.99</ele>
  <time>2026-08-27T18:28:28Z</time>
  <course>56.82</course>
  <speed>0.17</speed>
  <fix>3d</fix>
</trkpt>
<trkpt lat="40.0728427" lon="-105.2305722">
  <ele>1616.15</ele>
  <time>2026-08-27T18:28:28Z</time>
  <course>6.6</course>
  <speed>0.5575840743780259</speed>
  <fix>3d</fix>
</trkpt>
<trkpt lat="40.0728423" lon="-105.2305733">
  <ele>1615.99</ele>
  <time>2026-08-27T18:28:28Z</time>
  <course>53.75</course>
  <speed>0.31</speed>
  <fix>3d</fix>
</trkpt>
<trkpt lat="40.0728434" lon="-105.2305709">
  <ele>1616.15</ele>
  <time>2026-08-27T18:28:28Z</time>
  <course>6.3</course>
  <speed>0.7905694150420949</speed>
  <fix>3d</fix>
</trkpt>
<trkpt lat="40.0728428" lon="-105.2305725">
  <ele>1615.99</ele>
  <time>2026-08-27T18:28:28Z</time>
  <course>51.89</course>
  <speed>0.51</speed>
  <fix>3d</fix>
</trkpt>
<trkpt lat="40.0728444" lon="-105.2305693">
  <ele>1616.15</ele>
  <time>2026-08-27T18:28:28Z</time>
  <course>6.0</course>
  <speed>1.0601886624558856</speed>
  <fix>3d</fix>
</trkpt>
<trkpt lat="40.0728435" lon="-105.2305714">
  <ele>1615.99</ele>
  <time>2026-08-27T18:28:28Z</time>
  <course>50.65</course>
  <speed>0.74</speed>
  <fix>3d</fix>
</trkpt>
<trkpt lat="40.0728458" lon="-105.2305672">
  <ele>1616.16</ele>
  <time>2026-08-27T18:28:28Z</time>
  <course>12.49</course>
  <speed>1.3087398519186308</speed>
  <fix>3d</fix>
</trkpt>
<trkpt lat="40.0728444" lon="-105.2305698">
  <ele>1616.0</ele>
  <time>2026-08-27T18:28:28Z</time>
  <course>49.7</course>
  <speed>1.0</speed>
  <fix>3d</fix>
</trkpt>
<trkpt lat="40.0728475" lon="-105.2305646">
  <ele>1616.16</ele>
  <time>2026-08-27T18:28:28Z</time>
  <course>25.83</course>
  <speed>1.6726326554267679</speed>
  <fix>3d</fix>
</trkpt>
<trkpt lat="40.0728458" lon="-105.2305677">
  <ele>1616.01</ele>
  <time>2026-08-27T18:28:28Z</time>
  <course>48.38</course>
  <speed>1.28</speed>
  <fix>3d</fix>
</trkpt>
<trkpt lat="40.0728497" lon="-105.2305613">
  <ele>1616.17</ele>
  <time>2026-08-27T18:28:28Z</time>
  <course>37.81</course>
  <speed>2.1005951537600005</speed>
  <fix>3d</fix>
</trkpt>
<trkpt lat="40.0728476" lon="-105.2305653">
  <ele>1616.02</ele>
  <time>2026-08-27T18:28:28Z</time>
  <course>48.19</course>
  <speed>1.61</speed>
  <fix>3d</fix>
</trkpt>
<trkpt lat="40.0728523" lon="-105.2305572">
  <ele>1616.17</ele>
  <time>2026-08-27T18:28:28Z</time>
  <course>49.71</course>
  <speed>2.5681121470839234</speed>
  <fix>3d</fix>
</trkpt>
<trkpt lat="40.0728497" lon="-105.230562">
  <ele>1616.03</ele>
  <time>2026-08-27T18:28:28Z</time>
  <course>49.14</course>
  <speed>2.02</speed>
  <fix>3d</fix>
</trkpt>
<trkpt lat="40.0728554" lon="-105.2305521">
  <ele>1616.17</ele>
  <time>2026-08-27T18:28:28Z</time>
  <course>52.5</course>
  <speed>3.058512710452582</speed>
  <fix>3d</fix>
</trkpt>
<trkpt lat="40.0728523" lon="-105.230558">
  <ele>1616.04</ele>
  <time>2026-08-27T18:28:28Z</time>
  <course>50.67</course>
  <speed>2.48</speed>
  <fix>3d</fix>
</trkpt>
<trkpt lat="40.0728589" lon="-105.230546">
  <ele>1616.17</ele>
  <time>2026-08-27T18:28:28Z</time>
  <course>52.18</course>
  <speed>3.540903839417275</speed>
  <fix>3d</fix>
</trkpt>
<trkpt lat="40.0728553" lon="-105.2305529">
  <ele>1616.04</ele>
  <time>2026-08-27T18:28:28Z</time>
  <course>52.29</course>
  <speed>2.97</speed>
  <fix>3d</fix>
</trkpt>
<trkpt lat="40.0728629" lon="-105.2305391">
  <ele>1616.18</ele>
  <time>2026-08-27T18:28:28Z</time>
  <course>52.01</course>
  <speed>4.0036233589087775</speed>
  <fix>3d</fix>
</trkpt>
<trkpt lat="40.0728589" lon="-105.2305469">
  <ele>1616.05</ele>
  <time>2026-08-27T18:28:28Z</time>
  <course>53.25</course>
  <speed>3.46</speed>
  <fix>3d</fix>
</trkpt>
<trkpt lat="40.0728673" lon="-105.2305312">
  <ele>1616.19</ele>
  <time>2026-08-27T18:28:28Z</time>
  <course>52.14</course>
  <speed>4.438603383948604</speed>
  <fix>3d</fix>
</trkpt>
<trkpt lat="40.0728628" lon="-105.2305399">
  <ele>1616.07</ele>
  <time>2026-08-27T18:28:28Z</time>
  <course>53.84</course>
  <speed>3.93</speed>
  <fix>3d</fix>
</trkpt>
<trkpt lat="40.0728721" lon="-105.2305225">
  <ele>1616.22</ele>
  <time>2026-08-27T18:28:28Z</time>
  <course>52.49</course>
  <speed>4.818070153079965</speed>
  <fix>3d</fix>
</trkpt>
<trkpt lat="40.0728672" lon="-105.2305321">
  <ele>1616.09</ele>
  <time>2026-08-27T18:28:28Z</time>
  <course>54.36</course>
  <speed>4.37</speed>
  <fix>3d</fix>
</trkpt>
<trkpt lat="40.0728771" lon="-105.2305131">
  <ele>1616.25</ele>
  <time>2026-08-27T18:28:28Z</time>
  <course>53.01</course>
  <speed>5.139513595662532</speed>
  <fix>3d</fix>
</trkpt>
<trkpt lat="40.0728719" lon="-105.2305233">
  <ele>1616.13</ele>
  <time>2026-08-27T18:28:28Z</time>
  <course>54.89</course>
  <speed>4.76</speed>
  <fix>3d</fix>
</trkpt>
<trkpt lat="40.0728825" lon="-105.2305029">
  <ele>1616.3</ele>
  <time>2026-08-27T18:28:28Z</time>
  <course>53.7</course>
  <speed>5.400009259251322</speed>
  <fix>3d</fix>
</trkpt>
<trkpt lat="40.072877" lon="-105.2305138">
  <ele>1616.16</ele>
  <time>2026-08-27T18:28:28Z</time>
  <course>55.39</course>
  <speed>5.1</speed>
  <fix>3d</fix>
</trkpt>
<trkpt lat="40.072888" lon="-105.2304922">
  <ele>1616.36</ele>
  <time>2026-08-27T18:28:28Z</time>
  <course>54.43</course>
  <speed>5.6025708384633575</speed>
  <fix>3d</fix>
</trkpt>
<trkpt lat="40.0728824" lon="-105.2305036">
  <ele>1616.21</ele>
  <time>2026-08-27T18:28:28Z</time>
  <course>55.88</course>
  <speed>5.38</speed>
  <fix>3d</fix>
</trkpt>
<trkpt lat="40.0728936" lon="-105.2304811">
  <ele>1616.42</ele>
  <time>2026-08-27T18:28:28Z</time>
  <course>55.22</course>
  <speed>5.7555017157498956</speed>
  <fix>3d</fix>
</trkpt>
<trkpt lat="40.0728879" lon="-105.2304929">
  <ele>1616.27</ele>
  <time>2026-08-27T18:28:28Z</time>
  <course>56.35</course>
  <speed>5.59</speed>
  <fix>3d</fix>
</trkpt>
<trkpt lat="40.0728993" lon="-105.2304697">
  <ele>1616.47</ele>
  <time>2026-08-27T18:28:28Z</time>
  <course>56.0</course>
  <speed>5.8672821646823845</speed>
  <fix>3d</fix>
</trkpt>
<trkpt lat="40.0728934" lon="-105.2304817">
  <ele>1616.32</ele>
  <time>2026-08-27T18:28:28Z</time>
  <course>56.82</course>
  <speed>5.76</speed>
  <fix>3d</fix>
</trkpt>
<trkpt lat="40.072905" lon="-105.230458">
  <ele>1616.52</ele>
  <time>2026-08-27T18:28:28Z</time>
  <course>56.73</course>
  <speed>5.94340811319566</speed>
  <fix>3d</fix>
</trkpt>
<trkpt lat="40.0728991" lon="-105.2304702">
  <ele>1616.38</ele>
  <time>2026-08-27T18:28:28Z</time>
  <course>57.27</course>
  <speed>5.87</speed>
  <fix>3d</fix>
</trkpt>
<trkpt lat="40.0729107" lon="-105.2304461">
  <ele>1616.57</ele>
  <time>2026-08-27T18:28:28Z</time>
  <course>57.38</course>
  <speed>5.980610336746577</speed>
  <fix>3d</fix>
</trkpt>
<trkpt lat="40.0729049" lon="-105.2304585">
  <ele>1616.43</ele>
  <time>2026-08-27T18:28:28Z</time>
  <course>57.7</course>
  <speed>5.95</speed>
  <fix>3d</fix>
</trkpt>
<trkpt lat="40.0729164" lon="-105.2304341">
  <ele>1616.62</ele>
  <time>2026-08-27T18:28:28Z</time>
  <course>57.93</course>
  <speed>6.000941592783586</speed>
  <fix>3d</fix>
</trkpt>
<trkpt lat="40.0729106" lon="-105.2304466">
  <ele>1616.48</ele>
  <time>2026-08-27T18:28:28Z</time>
  <course>58.07</course>
  <speed>6.0</speed>
  <fix>3d</fix>
</trkpt>
<trkpt lat="40.072922" lon="-105.2304221">
  <ele>1616.67</ele>
  <time>2026-08-27T18:28:28Z</time>
  <course>58.4</course>
  <speed>5.993905237822833</speed>
  <fix>3d</fix>
</trkpt>
<trkpt lat="40.0729163" lon="-105.2304346">
  <ele>1616.53</ele>
  <time>2026-08-27T18:28:28Z</time>
  <course>58.38</course>
  <speed>6.02</speed>
  <fix>3d</fix>
</trkpt>
<trkpt lat="40.0729276" lon="-105.2304101">
  <ele>1616.71</ele>
  <time>2026-08-27T18:28:28Z</time>
  <course>58.75</course>
  <speed>5.961291806311783</speed>
  <fix>3d</fix>
</trkpt>
<trkpt lat="40.0729219" lon="-105.2304226">
  <ele>1616.57</ele>
  <time>2026-08-27T18:28:28Z</time>
  <course>58.6</course>
  <speed>6.01</speed>
  <fix>3d</fix>
</trkpt>
<trkpt lat="40.0729331" lon="-105.2303981">
  <ele>1616.74</ele>
  <time>2026-08-27T18:28:28Z</time>
  <course>59.01</course>
  <speed>5.911556478627266</speed>
  <fix>3d</fix>
</trkpt>
<trkpt lat="40.0729276" lon="-105.2304106">
  <ele>1616.61</ele>
  <time>2026-08-27T18:28:28Z</time>
  <course>58.75</course>
  <speed>5.98</speed>
  <fix>3d</fix>
</trkpt>
<trkpt lat="40.0729386" lon="-105.2303863">
  <ele>1616.78</ele>
  <time>2026-08-27T18:28:28Z</time>
  <course>59.19</course>
  <speed>5.84467278810371</speed>
  <fix>3d</fix>
</trkpt>
<trkpt lat="40.0729331" lon="-105.2303986">
  <ele>1616.65</ele>
  <time>2026-08-27T18:28:28Z</time>
  <course>58.82</course>
  <speed>5.93</speed>
  <fix>3d</fix>
</trkpt>
<trkpt lat="40.072944" lon="-105.2303746">
  <ele>1616.81</ele>
  <time>2026-08-27T18:28:28Z</time>
  <course>59.21</course>
  <speed>5.782957720751553</speed>
  <fix>3d</fix>
</trkpt>
<trkpt lat="40.0729386" lon="-105.2303867">
  <ele>1616.68</ele>
  <time>2026-08-27T18:28:28Z</time>
  <course>58.8</course>
  <speed>5.87</speed>
  <fix>3d</fix>
</trkpt>
<trkpt lat="40.0729495" lon="-105.2303629">
  <ele>1616.83</ele>
  <time>2026-08-27T18:28:28Z</time>
  <course>59.05</course>
  <speed>5.738379562210921</speed>
  <fix>3d</fix>
</trkpt>
<trkpt lat="40.072944" lon="-105.230375">
  <ele>1616.71</ele>
  <time>2026-08-27T18:28:28Z</time>
  <course>58.72</course>
  <speed>5.81</speed>
  <fix>3d</fix>
</trkpt>
<trkpt lat="40.0729549" lon="-105.2303514">
  <ele>1616.85</ele>
  <time>2026-08-27T18:28:28Z</time>
  <course>58.78</course>
  <speed>5.709404522364832</speed>
  <fix>3d</fix>
</trkpt>
<trkpt lat="40.0729494" lon="-105.2303634">
  <ele>1616.73</ele>
  <time>2026-08-27T18:28:28Z</time>
  <course>58.58</course>
  <speed>5.76</speed>
  <fix>3d</fix>
</trkpt>
<trkpt lat="40.0729603" lon="-105.23034">
  <ele>1616.87</ele>
  <time>2026-08-27T18:28:28Z</time>
  <course>58.45</course>
  <speed>5.658312469279158</speed>
  <fix>3d</fix>
</trkpt>
<trkpt lat="40.0729548" lon="-105.2303519">
  <ele>1616.76</ele>
  <time>2026-08-27T18:28:28Z</time>
  <course>58.37</course>
  <speed>5.72</speed>
  <fix>3d</fix>
</trkpt>
<trkpt lat="40.0729657" lon="-105.2303288">
  <ele>1616.9</ele>
  <time>2026-08-27T18:28:28Z</time>
  <course>58.06</course>
  <speed>5.590465096930666</speed>
  <fix>3d</fix>
</trkpt>
<trkpt lat="40.0729602" lon="-105.2303405">
  <ele>1616.78</ele>
  <time>2026-08-27T18:28:28Z</time>
  <course>58.04</course>
  <speed>5.67</speed>
  <fix>3d</fix>
</trkpt>
<trkpt lat="40.0729711" lon="-105.2303178">
  <ele>1616.93</ele>
  <time>2026-08-27T18:28:28Z</time>
  <course>57.7</course>
  <speed>5.478476065476603</speed>
  <fix>3d</fix>
</trkpt>
<trkpt lat="40.0729656" lon="-105.2303293">
  <ele>1616.8</ele>
  <time>2026-08-27T18:28:28Z</time>
  <course>57.61</course>
  <speed>5.6</speed>
  <fix>3d</fix>
</trkpt>
<trkpt lat="40.0729764" lon="-105.2303072">
  <ele>1616.96</ele>
  <time>2026-08-27T18:28:28Z</time>
  <course>57.37</course>
  <speed>5.330853590186097</speed>
  <fix>3d</fix>
</trkpt>
<trkpt lat="40.0729709" lon="-105.2303183">
  <ele>1616.84</ele>
  <time>2026-08-27T18:28:28Z</time>
  <course>57.12</course>
  <speed>5.5</speed>
  <fix>3d</fix>
</trkpt>
<trkpt lat="40.0729816" lon="-105.2302969">
  <ele>1617.01</ele>
  <time>2026-08-27T18:28:28Z</time>
  <course>57.11</course>
  <speed>5.142071566985431</speed>
  <fix>3d</fix>
</trkpt>
<trkpt lat="40.0729763" lon="-105.2303076">
  <ele>1616.88</ele>
  <time>2026-08-27T18:28:28Z</time>
  <course>56.64</course>
  <speed>5.36</speed>
  <fix>3d</fix>
</trkpt>
<trkpt lat="40.0729867" lon="-105.2302871">
  <ele>1617.05</ele>
  <time>2026-08-27T18:28:28Z</time>
  <course>56.89</course>
  <speed>4.920254058481127</speed>
  <fix>3d</fix>
</trkpt>
<trkpt lat="40.0729816" lon="-105.2302973">
  <ele>1616.91</ele>
  <time>2026-08-27T18:28:28Z</time>
  <course>56.19</course>
  <speed>5.17</speed>
  <fix>3d</fix>
</trkpt>
<trkpt lat="40.0729915" lon="-105.2302778">
  <ele>1617.08</ele>
  <time>2026-08-27T18:28:28Z</time>
  <course>56.71</course>
  <speed>4.654299087940095</speed>
  <fix>3d</fix>
</trkpt>
<trkpt lat="40.0729867" lon="-105.2302875">
  <ele>1616.96</ele>
  <time>2026-08-27T18:28:28Z</time>
  <course>55.78</course>
  <speed>4.96</speed>
  <fix>3d</fix>
</trkpt>
<trkpt lat="40.0729961" lon="-105.2302691">
  <ele>1617.12</ele>
  <time>2026-08-27T18:28:28Z</time>
  <course>56.55</course>
  <speed>4.355088977277044</speed>
  <fix>3d</fix>
</trkpt>
<trkpt lat="40.0729915" lon="-105.2302781">
  <ele>1617.0</ele>
  <time>2026-08-27T18:28:28Z</time>
  <course>55.43</course>
  <speed>4.7</speed>
  <fix>3d</fix>
</trkpt>
<trkpt lat="40.0730005" lon="-105.230261">
  <ele>1617.15</ele>
  <time>2026-08-27T18:28:28Z</time>
  <course>56.39</course>
  <speed>4.014237162899073</speed>
  <fix>3d</fix>
</trkpt>
<trkpt lat="40.0729962" lon="-105.2302693">
  <ele>1617.03</ele>
  <time>2026-08-27T18:28:28Z</time>
  <course>55.1</course>
  <speed>4.4</speed>
  <fix>3d</fix>
</trkpt>
<trkpt lat="40.0730045" lon="-105.2302536">
  <ele>1617.17</ele>
  <time>2026-08-27T18:28:28Z</time>
  <course>56.24</course>
  <speed>3.6153284774692325</speed>
  <fix>3d</fix>
</trkpt>
<trkpt lat="40.0730006" lon="-105.2302612">
  <ele>1617.06</ele>
  <time>2026-08-27T18:28:28Z</time>
  <course>54.8</course>
  <speed>4.07</speed>
  <fix>3d</fix>
</trkpt>
<trkpt lat="40.0730082" lon="-105.230247">
  <ele>1617.18</ele>
  <time>2026-08-27T18:28:28Z</time>
  <course>56.03</course>
  <speed>3.1886831137634233</speed>
  <fix>3d</fix>
</trkpt>
<trkpt lat="40.0730046" lon="-105.2302537">
  <ele>1617.08</ele>
  <time>2026-08-27T18:28:28Z</time>
  <course>54.51</course>
  <speed>3.68</speed>
  <fix>3d</fix>
</trkpt>
<trkpt lat="40.0730113" lon="-105.2302413">
  <ele>1617.19</ele>
  <time>2026-08-27T18:28:28Z</time>
  <course>55.77</course>
  <speed>2.728387802347753</speed>
  <fix>3d</fix>
</trkpt>
<trkpt lat="40.0730083" lon="-105.2302471">
  <ele>1617.1</ele>
  <time>2026-08-27T18:28:28Z</time>
  <course>54.21</course>
  <speed>3.25</speed>
  <fix>3d</fix>
</trkpt>
<trkpt lat="40.073014" lon="-105.2302365">
  <ele>1617.18</ele>
  <time>2026-08-27T18:28:28Z</time>
  <course>55.47</course>
  <speed>2.2541739063346466</speed>
  <fix>3d</fix>
</trkpt>
<trkpt lat="40.0730114" lon="-105.2302413">
  <ele>1617.11</ele>
  <time>2026-08-27T18:28:28Z</time>
  <course>53.92</course>
  <speed>2.79</speed>
  <fix>3d</fix>
</trkpt>
<trkpt lat="40.0730162" lon="-105.2302326">
  <ele>1617.18</ele>
  <time>2026-08-27T18:28:28Z</time>
  <course>55.16</course>
  <speed>1.7961347388211164</speed>
  <fix>3d</fix>
</trkpt>
<trkpt lat="40.0730142" lon="-105.2302364">
  <ele>1617.11</ele>
  <time>2026-08-27T18:28:28Z</time>
  <course>53.69</course>
  <speed>2.32</speed>
  <fix>3d</fix>
</trkpt>
<trkpt lat="40.073018" lon="-105.2302296">
  <ele>1617.16</ele>
  <time>2026-08-27T18:28:28Z</time>
  <course>54.97</course>
  <speed>1.3880922159568507</speed>
  <fix>3d</fix>
</trkpt>
<trkpt lat="40.0730164" lon="-105.2302325">
  <ele>1617.11</ele>
  <time>2026-08-27T18:28:28Z</time>
  <course>53.6</course>
  <speed>1.86</speed>
  <fix>3d</fix>
</trkpt>
<trkpt lat="40.0730193" lon="-105.2302272">
  <ele>1617.15</ele>
  <time>2026-08-27T18:28:28Z</time>
  <course>55.13</course>
  <speed>1.0322790320451152</speed>
  <fix>3d</fix>
</trkpt>
<trkpt lat="40.0730181" lon="-105.2302294">
  <ele>1617.1</ele>
  <time>2026-08-27T18:28:28Z</time>
  <course>53.76</course>
  <speed>1.43</speed>
  <fix>3d</fix>
</trkpt>
<trkpt lat="40.0730203" lon="-105.2302254">
  <ele>1617.14</ele>
  <time>2026-08-27T18:28:28Z</time>
  <course>55.51</course>
  <speed>0.7267048919609665</speed>
  <fix>3d</fix>
</trkpt>
<trkpt lat="40.0730195" lon="-105.230227">
  <ele>1617.09</ele>
  <time>2026-08-27T18:28:28Z</time>
  <course>54.3</course>
  <speed>1.06</speed>
  <fix>3d</fix>
</trkpt>
<trkpt lat="40.0730209" lon="-105.2302242">
  <ele>1617.14</ele>
  <time>2026-08-27T18:28:28Z</time>
  <course>55.22</course>
  <speed>0.4854894437575342</speed>
  <fix>3d</fix>
</trkpt>
<trkpt lat="40.0730204" lon="-105.2302253">
  <ele>1617.07</ele>
  <time>2026-08-27T18:28:28Z</time>
  <course>55.53</course>
  <speed>0.75</speed>
  <fix>3d</fix>
</trkpt>
<trkpt lat="40.0730213" lon="-105.2302234">
  <ele>1617.14</ele>
  <time>2026-08-27T18:28:28Z</time>
  <course>55.13</course>
  <speed>0.28653097563788804</speed>
  <fix>3d</fix>
</trkpt>
<trkpt lat="40.073021" lon="-105.2302241">
  <ele>1617.07</ele>
  <time>2026-08-27T18:28:28Z</time>
  <course>57.54</course>
  <speed>0.49</speed>
  <fix>3d</fix>
</trkpt>
<trkpt lat="40.0730215" lon="-105.2302229">
  <ele>1617.14</ele>
  <time>2026-08-27T18:28:28Z</time>
  <course>55.04</course>
  <speed>0.1392838827718412</speed>
  <fix>3d</fix>
</trkpt>
<trkpt lat="40.0730214" lon="-105.2302233">
  <ele>1617.06</ele>
  <time>2026-08-27T18:28:28Z</time>
  <course>60.45</course>
  <speed>0.28</speed>
  <fix>3d</fix>
</trkpt>
<trkpt lat="40.0730215" lon="-105.2302228">
  <ele>1617.13</ele>
  <time>2026-08-27T18:28:28Z</time>
  <course>54.99</course>
  <speed>0.04</speed>
  <fix>3d</fix>
</trkpt>
<trkpt lat="40.0730216" lon="-105.2302229">
  <ele>1617.06</ele>
  <time>2026-08-27T18:28:28Z</time>
  <course>67.09</course>
  <speed>0.13</speed>
  <fix>3d</fix>
</trkpt>
<trkpt lat="40.0730215" lon="-105.2302228">
  <ele>1617.14</ele>
  <time>2026-08-27T18:28:28Z</time>
  <course>54.91</course>
  <speed>0.0316227766016838</speed>
  <fix>3d</fix>
</trkpt>
<trkpt lat="40.0730216" lon="-105.2302227">
  <ele>1617.06</ele>
  <time>2026-08-27T18:28:28Z</time>
  <course>117.32</course>
  <speed>0.02</speed>
  <fix>3d</fix>
</trkpt>
<trkpt lat="40.0730214" lon="-105.2302228">
  <ele>1617.15</ele>
  <time>2026-08-27T18:28:28Z</time>
  <course>54.91</course>
  <speed>0.05</speed>
  <fix>3d</fix>
</trkpt>
<trkpt lat="40.0730216" lon="-105.2302227">
  <ele>1617.07</ele>
  <time>2026-08-27T18:28:28Z</time>
  <course>216.68</course>
  <speed>0.06</speed>
  <fix>3d</fix>
</trkpt>
<trkpt lat="40.0730214" lon="-105.2302229">
  <ele>1617.15</ele>
  <time>2026-08-27T18:28:28Z</time>
  <course>54.87</course>
  <speed>0.03605551275463989</speed>
  <fix>3d</fix>
</trkpt>
<trkpt lat="40.0730215" lon="-105.2302228">
  <ele>1617.07</ele>
  <time>2026-08-27T18:28:28Z</time>
  <course>226.1</course>
  <speed>0.08</speed>
  <fix>3d</fix>
</trkpt>
<trkpt lat="40.0730213" lon="-105.2302229">
  <ele>1617.16</ele>
  <time>2026-08-27T18:28:28Z</time>
  <course>54.83</course>
  <speed>0.0</speed>
  <fix>3d</fix>
</trkpt>
<trkpt lat="40.0730214" lon="-105.2302229">
  <ele>1617.08</ele>
  <time>2026-08-27T18:28:28Z</time>
  <course>229.85</course>
  <speed>0.07</speed>
  <fix>3d</fix>
</trkpt>
<trkpt lat="40.0730214" lon="-105.2302229">
  <ele>1617.16</ele>
  <time>2026-08-27T18:28:28Z</time>
  <course>54.79</course>
  <speed>0.05830951894845301</speed>
  <fix>3d</fix>
</trkpt>
<trkpt lat="40.0730213" lon="-105.230223">
  <ele>1617.08</ele>
  <time>2026-08-27T18:28:28Z</time>
  <course>237.15</course>
  <speed>0.03</speed>
  <fix>3d</fix>
</trkpt>
<trkpt lat="40.0730214" lon="-105.2302228">
  <ele>1617.16</ele>
  <time>2026-08-27T18:28:28Z</time>
  <course>54.78</course>
  <speed>0.12806248474865697</speed>
  <fix>3d</fix>
</trkpt>
<trkpt lat="40.0730213" lon="-105.230223">
  <ele>1617.08</ele>
  <time>2026-08-27T18:28:28Z</time>
  <course>36.78</course>
  <speed>0.03</speed>
  <fix>3d</fix>
</trkpt>
<trkpt lat="40.0730215" lon="-105.2302226">
  <ele>1617.16</ele>
  <time>2026-08-27T18:28:28Z</time>
  <course>54.79</course>
  <speed>0.1769180601295413</speed>
  <fix>3d</fix>
</trkpt>
<trkpt lat="40.0730214" lon="-105.230223">
  <ele>1617.09</ele>
  <time>2026-08-27T18:28:28Z</time>
  <course>41.87</course>
  <speed>0.1</speed>
  <fix>3d</fix>
</trkpt>
<trkpt lat="40.0730218" lon="-105.2302223">
  <ele>1617.16</ele>
  <time>2026-08-27T18:28:28Z</time>
  <course>54.8</course>
  <speed>0.21213203435596426</speed>
  <fix>3d</fix>
</trkpt>
<trkpt lat="40.0730216" lon="-105.2302228">
  <ele>1617.09</ele>
  <time>2026-08-27T18:28:28Z</time>
  <course>41.29</course>
  <speed>0.16</speed>
  <fix>3d</fix>
</trkpt>
<trkpt lat="40.0730221" lon="-105.230222">
  <ele>1617.16</ele>
  <time>2026-08-27T18:28:29Z</time>
  <course>54.82</course>
  <speed>0.2193171219946131</speed>
  <fix>3d</fix>
</trkpt>
<trkpt lat="40.0730218" lon="-105.2302225">
  <ele>1617.09</ele>
  <time>2026-08-27T18:28:29Z</time>
  <course>39.97</course>
  <speed>0.2</speed>
  <fix>3d</fix>
</trkpt>
<trkpt lat="40.0730224" lon="-105.2302217">
  <ele>1617.16</ele>
  <time>2026-08-27T18:28:29Z</time>
  <course>54.82</course>
  <speed>0.2193171219946131</speed>
  <fix>3d</fix>
</trkpt>
<trkpt lat="40.0730221" lon="-105.2302221">
  <ele>1617.09</ele>
  <time>2026-08-27T18:28:29Z</time>
  <course>38.82</course>
  <speed>0.23</speed>
  <fix>3d</fix>
</trkpt>
<trkpt lat="40.0730227" lon="-105.2302214">
  <ele>1617.16</ele>
  <time>2026-08-27T18:28:29Z</time>
  <course>54.83</course>
  <speed>0.20518284528683192</speed>
  <fix>3d</fix>
</trkpt>
<trkpt lat="40.0730224" lon="-105.2302218">
  <ele>1617.09</ele>
  <time>2026-08-27T18:28:29Z</time>
  <course>38.1</course>
  <speed>0.23</speed>
  <fix>3d</fix>
</trkpt>
<trkpt lat="40.073023" lon="-105.2302211">
  <ele>1617.17</ele>
  <time>2026-08-27T18:28:29Z</time>
  <course>54.83</course>
  <speed>0.18384776310850234</speed>
  <fix>3d</fix>
</trkpt>
<trkpt lat="40.0730228" lon="-105.2302215">
  <ele>1617.09</ele>
  <time>2026-08-27T18:28:29Z</time>
  <course>37.86</course>
  <speed>0.22</speed>
  <fix>3d</fix>
</trkpt>
<trkpt lat="40.0730232" lon="-105.2302208">
  <ele>1617.17</ele>
  <time>2026-08-27T18:28:29Z</time>
  <course>54.83</course>
  <speed>0.15556349186104046</speed>
  <fix>3d</fix>
</trkpt>
<trkpt lat="40.0730231" lon="-105.2302212">
  <ele>1617.09</ele>
  <time>2026-08-27T18:28:29Z</time>
  <course>37.94</course>
  <speed>0.21</speed>
  <fix>3d</fix>
</trkpt>
<trkpt lat="40.0730235" lon="-105.2302206">
  <ele>1617.17</ele>
  <time>2026-08-27T18:28:29Z</time>
  <course>54.85</course>
  <speed>0.12041594578792296</speed>
  <fix>3d</fix>
</trkpt>
<trkpt lat="40.0730234" lon="-105.2302209">
  <ele>1617.09</ele>
  <time>2026-08-27T18:28:29Z</time>
  <course>38.15</course>
  <speed>0.18</speed>
  <fix>3d</fix>
</trkpt>
<trkpt lat="40.0730236" lon="-105.2302204">
  <ele>1617.17</ele>
  <time>2026-08-27T18:28:29Z</time>
  <course>54.84</course>
  <speed>0.07810249675906654</speed>
  <fix>3d</fix>
</trkpt>
<trkpt lat="40.0730237" lon="-105.2302206">
  <ele>1617.09</ele>
  <time>2026-08-27T18:28:29Z</time>
  <course>38.45</course>
  <speed>0.15</speed>
  <fix>3d</fix>
</trkpt>
<trkpt lat="40.0730238" lon="-105.2302203">
  <ele>1617.17</ele>
  <time>2026-08-27T18:28:29Z</time>
  <course>54.85</course>
  <speed>0.03605551275463989</speed>
  <fix>3d</fix>
</trkpt>
<trkpt lat="40.0730238" lon="-105.2302205">
  <ele>1617.09</ele>
  <time>2026-08-27T18:28:29Z</time>
  <course>39.01</course>
  <speed>0.12</speed>
  <fix>3d</fix>
</trkpt>
<trkpt lat="40.0730238" lon="-105.2302202">
  <ele>1617.17</ele>
  <time>2026-08-27T18:28:29Z</time>
  <course>54.84</course>
  <speed>0.01</speed>
  <fix>3d</fix>
</trkpt>
<trkpt lat="40.0730239" lon="-105.2302203">
  <ele>1617.09</ele>
  <time>2026-08-27T18:28:29Z</time>
  <course>39.93</course>
  <speed>0.08</speed>
  <fix>3d</fix>
</trkpt>
<trkpt lat="40.0730238" lon="-105.2302202">
  <ele>1617.17</ele>
  <time>2026-08-27T18:28:29Z</time>
  <course>54.83</course>
  <speed>0.0316227766016838</speed>
  <fix>3d</fix>
</trkpt>
<trkpt lat="40.0730241" lon="-105.2302202">
  <ele>1617.09</ele>
  <time>2026-08-27T18:28:29Z</time>
  <course>42.37</course>
  <speed>0.04</speed>
  <fix>3d</fix>
</trkpt>
<trkpt lat="40.0730238" lon="-105.2302202">
  <ele>1617.17</ele>
  <time>2026-08-27T18:28:29Z</time>
  <course>54.81</course>
  <speed>0.0670820393249937</speed>
  <fix>3d</fix>
</trkpt>
<trkpt lat="40.0730241" lon="-105.2302201">
  <ele>1617.09</ele>
  <time>2026-08-27T18:28:29Z</time>
  <course>89.53</course>
  <speed>0.0</speed>
  <fix>3d</fix>
</trkpt>
<trkpt lat="40.0730238" lon="-105.2302202">
  <ele>1617.17</ele>
  <time>2026-08-27T18:28:29Z</time>
  <course>54.81</course>
  <speed>0.10295630140987001</speed>
  <fix>3d</fix>
</trkpt>
<trkpt lat="40.0730241" lon="-105.2302201">
  <ele>1617.09</ele>
  <time>2026-08-27T18:28:29Z</time>
  <course>212.62</course>
  <speed>0.03</speed>
  <fix>3d</fix>
</trkpt>
<trkpt lat="40.0730237" lon="-105.2302204">
  <ele>1617.17</ele>
  <time>2026-08-27T18:28:29Z</time>
  <course>54.8</course>
  <speed>0.130384048104053</speed>
  <fix>3d</fix>
</trkpt>
<trkpt lat="40.0730241" lon="-105.2302201">
  <ele>1617.09</ele>
  <time>2026-08-27T18:28:29Z</time>
  <course>215.71</course>
  <speed>0.06</speed>
  <fix>3d</fix>
</trkpt>
<trkpt lat="40.0730236" lon="-105.2302205">
  <ele>1617.17</ele>
  <time>2026-08-27T18:28:29Z</time>
  <course>54.8</course>
  <speed>0.15</speed>
  <fix>3d</fix>
</trkpt>
<trkpt lat="40.0730239" lon="-105.2302202">
  <ele>1617.09</ele>
  <time>2026-08-27T18:28:29Z</time>
  <course>216.79</course>
  <speed>0.09</speed>
  <fix>3d</fix>
</trkpt>
<trkpt lat="40.0730234" lon="-105.2302207">
  <ele>1617.17</ele>
  <time>2026-08-27T18:28:29Z</time>
  <course>54.79</course>
  <speed>0.17204650534085253</speed>
  <fix>3d</fix>
</trkpt>
<trkpt lat="40.0730238" lon="-105.2302204">
  <ele>1617.09</ele>
  <time>2026-08-27T18:28:29Z</time>
  <course>217.49</course>
  <speed>0.11</speed>
  <fix>3d</fix>
</trkpt>
<trkpt lat="40.0730232" lon="-105.2302209">
  <ele>1617.17</ele>
  <time>2026-08-27T18:28:29Z</time>
  <course>54.77</course>
  <speed>0.18601075237738274</speed>
  <fix>3d</fix>
</trkpt>
<trkpt lat="40.0730237" lon="-105.2302206">
  <ele>1617.09</ele>
  <time>2026-08-27T18:28:29Z</time>
  <course>218.1</course>
  <speed>0.13</speed>
  <fix>3d</fix>
</trkpt>
<trkpt lat="40.073023" lon="-105.2302211">
  <ele>1617.17</ele>
  <time>2026-08-27T18:28:29Z</time>
  <course>54.77</course>
  <speed>0.18601075237738274</speed>
  <fix>3d</fix>
</trkpt>
<trkpt lat="40.0730235" lon="-105.2302207">
  <ele>1617.09</ele>
  <time>2026-08-27T18:28:29Z</time>
  <course>218.57</course>
  <speed>0.15</speed>
  <fix>3d</fix>
</trkpt>
<trkpt lat="40.0730228" lon="-105.2302214">
  <ele>1617.17</ele>
  <time>2026-08-27T18:28:29Z</time>
  <course>54.76</course>
  <speed>0.18601075237738274</speed>
  <fix>3d</fix>
</trkpt>
<trkpt lat="40.0730232" lon="-105.230221">
  <ele>1617.09</ele>
  <time>2026-08-27T18:28:29Z</time>
  <course>218.89</course>
  <speed>0.15</speed>
  <fix>3d</fix>
</trkpt>
<trkpt lat="40.0730226" lon="-105.2302216">
  <ele>1617.16</ele>
  <time>2026-08-27T18:28:29Z</time>
  <course>54.76</course>
  <speed>0.18601075237738274</speed>
  <fix>3d</fix>
</trkpt>
<trkpt lat="40.073023" lon="-105.2302212">
  <ele>1617.09</ele>
  <time>2026-08-27T18:28:29Z</time>
  <course>219.12</course>
  <speed>0.16</speed>
  <fix>3d</fix>
</trkpt>
<trkpt lat="40.0730224" lon="-105.2302218">
  <ele>1617.16</ele>
  <time>2026-08-27T18:28:29Z</time>
  <course>54.73</course>
  <speed>0.17804493814764857</speed>
  <fix>3d</fix>
</trkpt>
<trkpt lat="40.0730227" lon="-105.2302215">
  <ele>1617.09</ele>
  <time>2026-08-27T18:28:29Z</time>
  <course>219.33</course>
  <speed>0.15</speed>
  <fix>3d</fix>
</trkpt>
<trkpt lat="40.0730222" lon="-105.230222">
  <ele>1617.17</ele>
  <time>2026-08-27T18:28:29Z</time>
  <course>54.72</course>
  <speed>0.16401219466856726</speed>
  <fix>3d</fix>
</trkpt>
<trkpt lat="40.0730226" lon="-105.2302217">
  <ele>1617.09</ele>
  <time>2026-08-27T18:28:29Z</time>
  <course>219.7</course>
  <speed>0.15</speed>
  <fix>3d</fix>
</trkpt>
<trkpt lat="40.073022" lon="-105.2302222">
  <ele>1617.17</ele>
  <time>2026-08-27T18:28:29Z</time>
  <course>54.71</course>
  <speed>0.15</speed>
  <fix>3d</fix>
</trkpt>
<trkpt lat="40.0730224" lon="-105.230222">
  <ele>1617.09</ele>
  <time>2026-08-27T18:28:29Z</time>
  <course>220.27</course>
  <speed>0.14</speed>
  <fix>3d</fix>
</trkpt>
<trkpt lat="40.0730218" lon="-105.2302224">
  <ele>1617.18</ele>
  <time>2026-08-27T18:28:29Z</time>
  <course>54.72</course>
  <speed>0.12806248474865697</speed>
  <fix>3d</fix>
</trkpt>
<trkpt lat="40.0730221" lon="-105.2302221">
  <ele>1617.09</ele>
  <time>2026-08-27T18:28:29Z</time>
  <course>220.94</course>
  <speed>0.12</speed>
  <fix>3d</fix>
</trkpt>
<trkpt lat="40.0730217" lon="-105.2302226">
  <ele>1617.18</ele>
  <time>2026-08-27T18:28:29Z</time>
  <course>54.74</course>
  <speed>0.11401754250991379</speed>
  <fix>3d</fix>
</trkpt>
<trkpt lat="40.073022" lon="-105.2302224">
  <ele>1617.09</ele>
  <time>2026-08-27T18:28:29Z</time>
  <course>221.76</course>
  <speed>0.11</speed>
  <fix>3d</fix>
</trkpt>
<trkpt lat="40.0730216" lon="-105.2302227">
  <ele>1617.18</ele>
  <time>2026-08-27T18:28:29Z</time>
  <course>54.75</course>
  <speed>0.09219544457292887</speed>
  <fix>3d</fix>
</trkpt>
<trkpt lat="40.0730219" lon="-105.2302225">
  <ele>1617.09</ele>
  <time>2026-08-27T18:28:29Z</time>
  <course>222.77</course>
  <speed>0.09</speed>
  <fix>3d</fix>
</trkpt>
<trkpt lat="40.0730215" lon="-105.2302228">
  <ele>1617.17</ele>
  <time>2026-08-27T18:28:29Z</time>
  <course>54.73</course>
  <speed>0.07810249675906654</speed>
  <fix>3d</fix>
</trkpt>
<trkpt lat="40.0730217" lon="-105.2302226">
  <ele>1617.08</ele>
  <time>2026-08-27T18:28:29Z</time>
  <course>224.09</course>
  <speed>0.07</speed>
  <fix>3d</fix>
</trkpt>
<trkpt lat="40.0730215" lon="-105.2302229">
  <ele>1617.17</ele>
  <time>2026-08-27T18:28:29Z</time>
  <course>54.71</course>
  <speed>0.0565685424949238</speed>
  <fix>3d</fix>
</trkpt>
<trkpt lat="40.0730217" lon="-105.2302227">
  <ele>1617.08</ele>
  <time>2026-08-27T18:28:29Z</time>
  <course>226.21</course>
  <speed>0.05</speed>
  <fix>3d</fix>
</trkpt>
<trkpt lat="40.0730214" lon="-105.2302229">
  <ele>1617.16</ele>
  <time>2026-08-27T18:28:29Z</time>
  <course>54.69</course>
  <speed>0.04242640687119285</speed>
  <fix>3d</fix>
</trkpt>
<trkpt lat="40.0730216" lon="-105.2302228">
  <ele>1617.08</ele>
  <time>2026-08-27T18:28:29Z</time>
  <course>231.18</course>
  <speed>0.03</speed>
  <fix>3d</fix>
</trkpt>
<trkpt lat="40.0730214" lon="-105.230223">
  <ele>1617.16</ele>
  <time>2026-08-27T18:28:29Z</time>
  <course>54.68</course>
  <speed>0.0282842712474619</speed>
  <fix>3d</fix>
</trkpt>
<trkpt lat="40.0730216" lon="-105.2302229">
  <ele>1617.07</ele>
  <time>2026-08-27T18:28:29Z</time>
  <course>246.81</course>
  <speed>0.01</speed>
  <fix>3d</fix>
</trkpt>
<trkpt lat="40.0730215" lon="-105.230223">
  <ele>1617.16</ele>
  <time>2026-08-27T18:28:29Z</time>
  <course>54.68</course>
  <speed>0.01414213562373095</speed>
  <fix>3d</fix>
</trkpt>
<trkpt lat="40.0730216" lon="-105.2302229">
  <ele>1617.07</ele>
  <time>2026-08-27T18:28:29Z</time>
  <course>315.71</course>
  <speed>0.0</speed>
  <fix>3d</fix>
</trkpt>
<trkpt lat="40.0730215" lon="-105.2302229">
  <ele>1617.16</ele>
  <time>2026-08-27T18:28:29Z</time>
  <course>54.68</course>
  <speed>0.0</speed>
  <fix>3d</fix>
</trkpt>
<trkpt lat="40.0730216" lon="-105.2302229">
  <ele>1617.07</ele>
  <time>2026-08-27T18:28:29Z</time>
  <course>11.51</course>
  <speed>0.01</speed>
  <fix>3d</fix>
</trkpt>
<trkpt lat="40.0730215" lon="-105.2302229">
  <ele>1617.16</ele>
  <time>2026-08-27T18:28:29Z</time>
  <course>54.68</course>
  <speed>0.0</speed>
  <fix>3d</fix>
</trkpt>
<trkpt lat="40.0730217" lon="-105.2302229">
  <ele>1617.07</ele>
  <time>2026-08-27T18:28:29Z</time>
  <course>24.33</course>
  <speed>0.02</speed>
  <fix>3d</fix>
</trkpt>
<trkpt lat="40.0730215" lon="-105.2302229">
  <ele>1617.16</ele>
  <time>2026-08-27T18:28:29Z</time>
  <course>54.67</course>
  <speed>0.0</speed>
  <fix>3d</fix>
</trkpt>
<trkpt lat="40.0730217" lon="-105.2302229">
  <ele>1617.07</ele>
  <time>2026-08-27T18:28:29Z</time>
  <course>29.47</course>
  <speed>0.03</speed>
  <fix>3d</fix>
</trkpt>
<trkpt lat="40.0730216" lon="-105.2302229">
  <ele>1617.16</ele>
  <time>2026-08-27T18:28:29Z</time>
  <course>54.68</course>
  <speed>0.0</speed>
  <fix>3d</fix>
</trkpt>
<trkpt lat="40.0730217" lon="-105.2302229">
  <ele>1617.07</ele>
  <time>2026-08-27T18:28:29Z</time>
  <course>32.01</course>
  <speed>0.04</speed>
  <fix>3d</fix>
</trkpt>
<trkpt lat="40.0730216" lon="-105.2302229">
  <ele>1617.16</ele>
  <time>2026-08-27T18:28:29Z</time>
  <course>54.68</course>
  <speed>0.01</speed>
  <fix>3d</fix>
</trkpt>
<trkpt lat="40.0730217" lon="-105.2302228">
  <ele>1617.07</ele>
  <time>2026-08-27T18:28:29Z</time>
  <course>33.67</course>
  <speed>0.04</speed>
  <fix>3d</fix>
</trkpt>
<trkpt lat="40.0730217" lon="-105.2302228">
  <ele>1617.16</ele>
  <time>2026-08-27T18:28:29Z</time>
  <course>54.65</course>
  <speed>0.01</speed>
  <fix>3d</fix>
</trkpt>
<trkpt lat="40.0730218" lon="-105.2302227">
  <ele>1617.07</ele>
  <time>2026-08-27T18:28:29Z</time>
  <course>35.46</course>
  <speed>0.04</speed>
  <fix>3d</fix>
</trkpt>
<trkpt lat="40.0730218" lon="-105.2302227">
  <ele>1617.16</ele>
  <time>2026-08-27T18:28:29Z</time>
  <course>54.67</course>
  <speed>0.01</speed>
  <fix>3d</fix>
</trkpt>
<trkpt lat="40.0730219" lon="-105.2302227">
  <ele>1617.07</ele>
  <time>2026-08-27T18:28:29Z</time>
  <course>37.19</course>
  <speed>0.04</speed>
  <fix>3d</fix>
</trkpt>
<trkpt lat="40.0730218" lon="-105.2302227">
  <ele>1617.16</ele>
  <time>2026-08-27T18:28:29Z</time>
  <course>54.68</course>
  <speed>0.01</speed>
  <fix>3d</fix>
</trkpt>
<trkpt lat="40.073022" lon="-105.2302226">
  <ele>1617.08</ele>
  <time>2026-08-27T18:28:29Z</time>
  <course>38.77</course>
  <speed>0.04</speed>
  <fix>3d</fix>
</trkpt>
<trkpt lat="40.0730219" lon="-105.2302226">
  <ele>1617.17</ele>
  <time>2026-08-27T18:28:29Z</time>
  <course>54.67</course>
  <speed>0.0</speed>
  <fix>3d</fix>
</trkpt>
<trkpt lat="40.073022" lon="-105.2302225">
  <ele>1617.08</ele>
  <time>2026-08-27T18:28:29Z</time>
  <course>40.28</course>
  <speed>0.04</speed>
  <fix>3d</fix>
</trkpt>
<trkpt lat="40.0730219" lon="-105.2302226">
  <ele>1617.17</ele>
  <time>2026-08-27T18:28:29Z</time>
  <course>54.66</course>
  <speed>0.0</speed>
  <fix>3d</fix>
</trkpt>
<trkpt lat="40.073022" lon="-105.2302225">
  <ele>1617.08</ele>
  <time>2026-08-27T18:28:29Z</time>
  <course>41.3</course>
  <speed>0.04</speed>
  <fix>3d</fix>
</trkpt>
<trkpt lat="40.0730219" lon="-105.2302225">
  <ele>1617.16</ele>
  <time>2026-08-27T18:28:29Z</time>
  <course>54.68</course>
  <speed>0.01</speed>
  <fix>3d</fix>
</trkpt>
<trkpt lat="40.0730221" lon="-105.2302224">
  <ele>1617.08</ele>
  <time>2026-08-27T18:28:29Z</time>
  <course>42.22</course>
  <speed>0.03</speed>
  <fix>3d</fix>
</trkpt>
<trkpt lat="40.073022" lon="-105.2302225">
  <ele>1617.16</ele>
  <time>2026-08-27T18:28:29Z</time>
  <course>54.66</course>
  <speed>0.01</speed>
  <fix>3d</fix>
</trkpt>
<trkpt lat="40.0730221" lon="-105.2302223">
  <ele>1617.08</ele>
  <time>2026-08-27T18:28:29Z</time>
  <course>44.53</course>
  <speed>0.02</speed>
  <fix>3d</fix>
</trkpt>
<trkpt lat="40.073022" lon="-105.2302224">
  <ele>1617.16</ele>
  <time>2026-08-27T18:28:29Z</time>
  <course>54.64</course>
  <speed>0.04</speed>
  <fix>3d</fix>
</trkpt>
<trkpt lat="40.0730221" lon="-105.2302223">
  <ele>1617.07</ele>
  <time>2026-08-27T18:28:29Z</time>
  <course>50.52</course>
  <speed>0.02</speed>
  <fix>3d</fix>
</trkpt>
<trkpt lat="40.0730219" lon="-105.2302224">
  <ele>1617.16</ele>
  <time>2026-08-27T18:28:29Z</time>
  <course>54.77</course>
  <speed>0.12165525060596438</speed>
  <fix>3d</fix>
</trkpt>
<trkpt lat="40.0730221" lon="-105.2302223">
  <ele>1617.07</ele>
  <time>2026-08-27T18:28:29Z</time>
  <course>136.09</course>
  <speed>0.01</speed>
  <fix>3d</fix>
</trkpt>
<trkpt lat="40.0730217" lon="-105.2302224">
  <ele>1617.15</ele>
  <time>2026-08-27T18:28:29Z</time>
  <course>54.88</course>
  <speed>0.26305892875931813</speed>
  <fix>3d</fix>
</trkpt>
<trkpt lat="40.0730221" lon="-105.2302223">
  <ele>1617.07</ele>
  <time>2026-08-27T18:28:29Z</time>
  <course>182.49</course>
  <speed>0.08</speed>
  <fix>3d</fix>
</trkpt>
<trkpt lat="40.0730211" lon="-105.2302225">
  <ele>1617.15</ele>
  <time>2026-08-27T18:28:29Z</time>
  <course>54.89</course>
  <speed>0.4440720662234904</speed>
  <fix>3d</fix>
</trkpt>
<trkpt lat="40.0730219" lon="-105.2302223">
  <ele>1617.07</ele>
  <time>2026-08-27T18:28:29Z</time>
  <course>186.52</course>
  <speed>0.21</speed>
  <fix>3d</fix>
</trkpt>
<trkpt lat="40.0730202" lon="-105.2302226">
  <ele>1617.15</ele>
  <time>2026-08-27T18:28:29Z</time>
  <course>54.85</course>
  <speed>0.6338769596696191</speed>
  <fix>3d</fix>
</trkpt>
<trkpt lat="40.0730214" lon="-105.2302223">
  <ele>1617.07</ele>
  <time>2026-08-27T18:28:29Z</time>
  <course>185.99</course>
  <speed>0.38</speed>
  <fix>3d</fix>
</trkpt>
<trkpt lat="40.073019" lon="-105.2302227">
  <ele>1617.15</ele>
  <time>2026-08-27T18:28:29Z</time>
  <course>54.83</course>
  <speed>0.8229823813423954</speed>
  <fix>3d</fix>
</trkpt>
<trkpt lat="40.0730206" lon="-105.2302224">
  <ele>1617.07</ele>
  <time>2026-08-27T18:28:29Z</time>
  <course>184.66</course>
  <speed>0.57</speed>
  <fix>3d</fix>
</trkpt>
<trkpt lat="40.0730174" lon="-105.2302228">
  <ele>1617.15</ele>
  <time>2026-08-27T18:28:29Z</time>
  <course>54.76</course>
  <speed>1.0017983829094554</speed>
  <fix>3d</fix>
</trkpt>
<trkpt lat="40.0730194" lon="-105.2302225">
  <ele>1617.07</ele>
  <time>2026-08-27T18:28:29Z</time>
  <course>183.47</course>
  <speed>0.76</speed>
  <fix>3d</fix>
</trkpt>
<trkpt lat="40.0730156" lon="-105.2302229">
  <ele>1617.15</ele>
  <time>2026-08-27T18:28:29Z</time>
  <course>58.72</course>
  <speed>1.1344161493913951</speed>
  <fix>3d</fix>
</trkpt>
<trkpt lat="40.0730178" lon="-105.2302226">
  <ele>1617.07</ele>
  <time>2026-08-27T18:28:29Z</time>
  <course>182.67</course>
  <speed>0.95</speed>
  <fix>3d</fix>
</trkpt>
<trkpt lat="40.0730135" lon="-105.2302231">
  <ele>1617.16</ele>
  <time>2026-08-27T18:28:29Z</time>
  <course>72.47</course>
  <speed>1.2918978287774927</speed>
  <fix>3d</fix>
</trkpt>
<trkpt lat="40.0730159" lon="-105.2302228">
  <ele>1617.07</ele>
  <time>2026-08-27T18:28:29Z</time>
  <course>183.09</course>
  <speed>1.1</speed>
  <fix>3d</fix>
</trkpt>
<trkpt lat="40.0730111" lon="-105.2302231">
  <ele>1617.16</ele>
  <time>2026-08-27T18:28:29Z</time>
  <course>84.5</course>
  <speed>1.44</speed>
  <fix>3d</fix>
</trkpt>
<trkpt lat="40.0730139" lon="-105.2302229">
  <ele>1617.07</ele>
  <time>2026-08-27T18:28:29Z</time>
  <course>182.48</course>
  <speed>1.25</speed>
  <fix>3d</fix>
</trkpt>
<trkpt lat="40.0730084" lon="-105.230223">
  <ele>1617.17</ele>
  <time>2026-08-27T18:28:29Z</time>
  <course>96.52</course>
  <speed>1.5820240200452078</speed>
  <fix>3d</fix>
</trkpt>
<trkpt lat="40.0730115" lon="-105.230223">
  <ele>1617.07</ele>
  <time>2026-08-27T18:28:29Z</time>
  <course>179.91</course>
  <speed>1.4</speed>
  <fix>3d</fix>
</trkpt>
<trkpt lat="40.0730055" lon="-105.2302227">
  <ele>1617.17</ele>
  <time>2026-08-27T18:28:29Z</time>
  <course>108.55</course>
  <speed>1.720523176246109</speed>
  <fix>3d</fix>
</trkpt>
<trkpt lat="40.0730088" lon="-105.2302229">
  <ele>1617.06</ele>
  <time>2026-08-27T18:28:29Z</time>
  <course>176.9</course>
  <speed>1.54</speed>
  <fix>3d</fix>
</trkpt>
<trkpt lat="40.0730024" lon="-105.2302221">
  <ele>1617.16</ele>
  <time>2026-08-27T18:28:29Z</time>
  <course>120.63</course>
  <speed>1.8824717793369439</speed>
  <fix>3d</fix>
</trkpt>
<trkpt lat="40.0730059" lon="-105.2302227">
  <ele>1617.06</ele>
  <time>2026-08-27T18:28:29Z</time>
  <course>173.82</course>
  <speed>1.68</speed>
  <fix>3d</fix>
</trkpt>
<trkpt lat="40.0729989" lon="-105.2302213">
  <ele>1617.16</ele>
  <time>2026-08-27T18:28:29Z</time>
  <course>132.69</course>
  <speed>2.0769448716805172</speed>
  <fix>3d</fix>
</trkpt>
<trkpt lat="40.0730028" lon="-105.2302221">
  <ele>1617.05</ele>
  <time>2026-08-27T18:28:29Z</time>
  <course>171.14</course>
  <speed>1.84</speed>
  <fix>3d</fix>
</trkpt>
<trkpt lat="40.0729952" lon="-105.2302203">
  <ele>1617.16</ele>
  <time>2026-08-27T18:28:29Z</time>
  <course>144.8</course>
  <speed>2.2867444107289296</speed>
  <fix>3d</fix>
</trkpt>
<trkpt lat="40.0729994" lon="-105.2302213">
  <ele>1617.05</ele>
  <time>2026-08-27T18:28:29Z</time>
  <course>169.25</course>
  <speed>2.02</speed>
  <fix>3d</fix>
</trkpt>
<trkpt lat="40.072991" lon="-105.2302192">
  <ele>1617.15</ele>
  <time>2026-08-27T18:28:29Z</time>
  <course>156.9</course>
  <speed>2.510298786997277</speed>
  <fix>3d</fix>
</trkpt>
<trkpt lat="40.0729956" lon="-105.2302203">
  <ele>1617.04</ele>
  <time>2026-08-27T18:28:29Z</time>
  <course>168.34</course>
  <speed>2.22</speed>
  <fix>3d</fix>
</trkpt>
<trkpt lat="40.0729865" lon="-105.230218">
  <ele>1617.15</ele>
  <time>2026-08-27T18:28:29Z</time>
  <course>168.76</course>
  <speed>2.742334771686345</speed>
  <fix>3d</fix>
</trkpt>
<trkpt lat="40.0729915" lon="-105.2302192">
  <ele>1617.04</ele>
  <time>2026-08-27T18:28:29Z</time>
  <course>168.47</course>
  <speed>2.43</speed>
  <fix>3d</fix>
</trkpt>
<trkpt lat="40.0729816" lon="-105.230217">
  <ele>1617.14</ele>
  <time>2026-08-27T18:28:29Z</time>
  <course>171.68</course>
  <speed>2.9558416737031097</speed>
  <fix>3d</fix>
</trkpt>
<trkpt lat="40.072987" lon="-105.2302181">
  <ele>1617.04</ele>
  <time>2026-08-27T18:28:29Z</time>
  <course>169.93</course>
  <speed>2.66</speed>
  <fix>3d</fix>
</trkpt>
<trkpt lat="40.0729763" lon="-105.2302162">
  <ele>1617.14</ele>
  <time>2026-08-27T18:28:29Z</time>
  <course>172.73</course>
  <speed>3.148412298286233</speed>
  <fix>3d</fix>
</trkpt>
<trkpt lat="40.0729821" lon="-105.230217">
  <ele>1617.04</ele>
  <time>2026-08-27T18:28:29Z</time>
  <course>171.95</course>
  <speed>2.87</speed>
  <fix>3d</fix>
</trkpt>
<trkpt lat="40.0729706" lon="-105.2302155">
  <ele>1617.14</ele>
  <time>2026-08-27T18:28:29Z</time>
  <course>174.06</course>
  <speed>3.311027030998086</speed>
  <fix>3d</fix>
</trkpt>
<trkpt lat="40.0729768" lon="-105.2302162">
  <ele>1617.04</ele>
  <time>2026-08-27T18:28:29Z</time>
  <course>173.58</course>
  <speed>3.07</speed>
  <fix>3d</fix>
</trkpt>
<trkpt lat="40.0729647" lon="-105.2302149">
  <ele>1617.14</ele>
  <time>2026-08-27T18:28:29Z</time>
  <course>175.51</course>
  <speed>3.465775526487542</speed>
  <fix>3d</fix>
</trkpt>
<trkpt lat="40.0729712" lon="-105.2302154">
  <ele>1617.04</ele>
  <time>2026-08-27T18:28:29Z</time>
  <course>175.08</course>
  <speed>3.24</speed>
  <fix>3d</fix>
</trkpt>
<trkpt lat="40.0729584" lon="-105.2302145">
  <ele>1617.14</ele>
  <time>2026-08-27T18:28:29Z</time>
  <course>177.02</course>
  <speed>3.611675511448945</speed>
  <fix>3d</fix>
</trkpt>
<trkpt lat="40.0729652" lon="-105.2302149">
  <ele>1617.04</ele>
  <time>2026-08-27T18:28:29Z</time>
  <course>176.6</course>
  <speed>3.4</speed>
  <fix>3d</fix>
</trkpt>
<trkpt lat="40.0729518" lon="-105.2302144">
  <ele>1617.14</ele>
  <time>2026-08-27T18:28:29Z</time>
  <course>178.51</course>
  <speed>3.760053191113126</speed>
  <fix>3d</fix>
</trkpt>
<trkpt lat="40.072959" lon="-105.2302145">
  <ele>1617.04</ele>
  <time>2026-08-27T18:28:29Z</time>
  <course>178.13</course>
  <speed>3.55</speed>
  <fix>3d</fix>
</trkpt>
<trkpt lat="40.072945" lon="-105.2302144">
  <ele>1617.15</ele>
  <time>2026-08-27T18:28:29Z</time>
  <course>179.91</course>
  <speed>3.9103196800261744</speed>
  <fix>3d</fix>
</trkpt>
<trkpt lat="40.0729525" lon="-105.2302144">
  <ele>1617.05</ele>
  <time>2026-08-27T18:28:29Z</time>
  <course>179.61</course>
  <speed>3.69</speed>
  <fix>3d</fix>
</trkpt>
<trkpt lat="40.072938" lon="-105.2302147">
  <ele>1617.15</ele>
  <time>2026-08-27T18:28:29Z</time>
  <course>181.14</course>
  <speed>4.062413075993134</speed>
  <fix>3d</fix>
</trkpt>
<trkpt lat="40.0729457" lon="-105.2302144">
  <ele>1617.05</ele>
  <time>2026-08-27T18:28:29Z</time>
  <course>180.96</course>
  <speed>3.84</speed>
  <fix>3d</fix>
</trkpt>
<trkpt lat="40.0729307" lon="-105.230215">
  <ele>1617.15</ele>
  <time>2026-08-27T18:28:29Z</time>
  <course>182.11</course>
  <speed>4.2152342758143355</speed>
  <fix>3d</fix>
</trkpt>
<trkpt lat="40.0729386" lon="-105.2302146">
  <ele>1617.05</ele>
  <time>2026-08-27T18:28:29Z</time>
  <course>182.12</course>
  <speed>4.0</speed>
  <fix>3d</fix>
</trkpt>
<trkpt lat="40.0729231" lon="-105.2302156">
  <ele>1617.15</ele>
  <time>2026-08-27T18:28:29Z</time>
  <course>182.85</course>
  <speed>4.377727721090018</speed>
  <fix>3d</fix>
</trkpt>
<trkpt lat="40.0729313" lon="-105.230215">
  <ele>1617.05</ele>
  <time>2026-08-27T18:28:29Z</time>
  <course>183.05</course>
  <speed>4.15</speed>
  <fix>3d</fix>
</trkpt>
<trkpt lat="40.0729152" lon="-105.2302163">
  <ele>1617.14</ele>
  <time>2026-08-27T18:28:29Z</time>
  <course>183.34</course>
  <speed>4.54059467470947</speed>
  <fix>3d</fix>
</trkpt>
<trkpt lat="40.0729237" lon="-105.2302156">
  <ele>1617.05</ele>
  <time>2026-08-27T18:28:29Z</time>
  <course>183.74</course>
  <speed>4.32</speed>
  <fix>3d</fix>
</trkpt>
<trkpt lat="40.072907" lon="-105.2302171">
  <ele>1617.14</ele>
  <time>2026-08-27T18:28:29Z</time>
  <course>183.61</course>
  <speed>4.7222558168739655</speed>
  <fix>3d</fix>
</trkpt>
<trkpt lat="40.0729158" lon="-105.2302163">
  <ele>1617.05</ele>
  <time>2026-08-27T18:28:29Z</time>
  <course>184.21</course>
  <speed>4.49</speed>
  <fix>3d</fix>
</trkpt>
<trkpt lat="40.0728985" lon="-105.2302179">
  <ele>1617.13</ele>
  <time>2026-08-27T18:28:29Z</time>
  <course>183.66</course>
  <speed>4.913206692171621</speed>
  <fix>3d</fix>
</trkpt>
<trkpt lat="40.0729076" lon="-105.2302172">
  <ele>1617.05</ele>
  <time>2026-08-27T18:28:29Z</time>
  <course>184.45</course>
  <speed>4.67</speed>
  <fix>3d</fix>
</trkpt>
<trkpt lat="40.0728896" lon="-105.2302188">
  <ele>1617.13</ele>
  <time>2026-08-27T18:28:29Z</time>
  <course>183.51</course>
  <speed>5.112690094265445</speed>
  <fix>3d</fix>
</trkpt>
<trkpt lat="40.0728991" lon="-105.230218">
  <ele>1617.04</ele>
  <time>2026-08-27T18:28:29Z</time>
  <course>184.5</course>
  <speed>4.85</speed>
  <fix>3d</fix>
</trkpt>
<trkpt lat="40.0728803" lon="-105.2302197">
  <ele>1617.13</ele>
  <time>2026-08-27T18:28:29Z</time>
  <course>183.17</course>
  <speed>5.321522338579441</speed>
  <fix>3d</fix>
</trkpt>
<trkpt lat="40.0728902" lon="-105.2302189">
  <ele>1617.04</ele>
  <time>2026-08-27T18:28:29Z</time>
  <course>184.36</course>
  <speed>5.05</speed>
  <fix>3d</fix>
</trkpt>
<trkpt lat="40.0728706" lon="-105.2302205">
  <ele>1617.13</ele>
  <time>2026-08-27T18:28:29Z</time>
  <course>182.69</course>
  <speed>5.549234181398367</speed>
  <fix>3d</fix>
</trkpt>
<trkpt lat="40.0728809" lon="-105.2302198">
  <ele>1617.04</ele>
  <time>2026-08-27T18:28:29Z</time>
  <course>184.06</course>
  <speed>5.27</speed>
  <fix>3d</fix>
</trkpt>
<trkpt lat="40.0728605" lon="-105.2302213">
  <ele>1617.12</ele>
  <time>2026-08-27T18:28:29Z</time>
  <course>182.11</course>
  <speed>5.777283098481499</speed>
  <fix>3d</fix>
</trkpt>
<trkpt lat="40.0728713" lon="-105.2302206">
  <ele>1617.03</ele>
  <time>2026-08-27T18:28:29Z</time>
  <course>183.64</course>
  <speed>5.49</speed>
  <fix>3d</fix>
</trkpt>
<trkpt lat="40.07285" lon="-105.230222">
  <ele>1617.12</ele>
  <time>2026-08-27T18:28:29Z</time>
  <course>181.42</course>
  <speed>6.024782153738009</speed>
  <fix>3d</fix>
</trkpt>
<trkpt lat="40.0728612" lon="-105.2302215">
  <ele>1617.03</ele>
  <time>2026-08-27T18:28:29Z</time>
  <course>183.13</course>
  <speed>5.72</speed>
  <fix>3d</fix>
</trkpt>
<trkpt lat="40.072839" lon="-105.2302226">
  <ele>1617.11</ele>
  <time>2026-08-27T18:28:29Z</time>
  <course>180.72</course>
  <speed>6.272878127303287</speed>
  <fix>3d</fix>
</trkpt>
<trkpt lat="40.0728507" lon="-105.2302221">
  <ele>1617.03</ele>
  <time>2026-08-27T18:28:29Z</time>
  <course>182.57</course>
  <speed>5.97</speed>
  <fix>3d</fix>
</trkpt>
<trkpt lat="40.0728276" lon="-105.230223">
  <ele>1617.11</ele>
  <time>2026-08-27T18:28:29Z</time>
  <course>179.84</course>
  <speed>6.531500593278699</speed>
  <fix>3d</fix>
</trkpt>
<trkpt lat="40.0728397" lon="-105.2302227">
  <ele>1617.02</ele>
  <time>2026-08-27T18:28:29Z</time>
  <course>182.0</course>
  <speed>6.22</speed>
  <fix>3d</fix>
</trkpt>
<trkpt lat="40.0728157" lon="-105.2302233">
  <ele>1617.11</ele>
  <time>2026-08-27T18:28:29Z</time>
  <course>179.18</course>
  <speed>6.74047476072717</speed>
  <fix>3d</fix>
</trkpt>
<trkpt lat="40.0728283" lon="-105.2302232">
  <ele>1617.02</ele>
  <time>2026-08-27T18:28:29Z</time>
  <course>181.43</course>
  <speed>6.48</speed>
  <fix>3d</fix>
</trkpt>
<trkpt lat="40.0728036" lon="-105.2302235">
  <ele>1617.13</ele>
  <time>2026-08-27T18:28:29Z</time>
  <course>179.01</course>
  <speed>6.800007352937201</speed>
  <fix>3d</fix>
</trkpt>
<trkpt lat="40.0728165" lon="-105.2302234">
  <ele>1617.02</ele>
  <time>2026-08-27T18:28:29Z</time>
  <course>180.86</course>
  <speed>6.69</speed>
  <fix>3d</fix>
</trkpt>
<trkpt lat="40.0727916" lon="-105.2302235">
  <ele>1617.17</ele>
  <time>2026-08-27T18:28:29Z</time>
  <course>179.18</course>
  <speed>6.730118869678306</speed>
  <fix>3d</fix>
</trkpt>
<trkpt lat="40.0728043" lon="-105.2302236">
  <ele>1617.04</ele>
  <time>2026-08-27T18:28:29Z</time>
  <course>180.27</course>
  <speed>6.79</speed>
  <fix>3d</fix>
</trkpt>
<trkpt lat="40.0727797" lon="-105.2302233">
  <ele>1617.22</ele>
  <time>2026-08-27T18:28:29Z</time>
  <course>179.54</course>
  <speed>6.560373464978957</speed>
  <fix>3d</fix>
</trkpt>
<trkpt lat="40.0727922" lon="-105.2302237">
  <ele>1617.08</ele>
  <time>2026-08-27T18:28:29Z</time>
  <course>179.77</course>
  <speed>6.75</speed>
  <fix>3d</fix>
</trkpt>
<trkpt lat="40.0727681" lon="-105.2302232">
  <ele>1617.26</ele>
  <time>2026-08-27T18:28:29Z</time>
  <course>179.99</course>
  <speed>6.340386423554955</speed>
  <fix>3d</fix>
</trkpt>
<trkpt lat="40.0727802" lon="-105.2302236">
  <ele>1617.13</ele>
  <time>2026-08-27T18:28:29Z</time>
  <course>179.5</course>
  <speed>6.6</speed>
  <fix>3d</fix>
</trkpt>
<trkpt lat="40.0727569" lon="-105.2302232">
  <ele>1617.29</ele>
  <time>2026-08-27T18:28:29Z</time>
  <course>180.47</course>
  <speed>6.080296045424104</speed>
  <fix>3d</fix>
</trkpt>
<trkpt lat="40.0727685" lon="-105.2302234">
  <ele>1617.17</ele>
  <time>2026-08-27T18:28:29Z</time>
  <course>179.46</course>
  <speed>6.39</speed>
  <fix>3d</fix>
</trkpt>
<trkpt lat="40.0727462" lon="-105.2302231">
  <ele>1617.31</ele>
  <time>2026-08-27T18:28:29Z</time>
  <course>180.93</course>
  <speed>5.790138167608783</speed>
  <fix>3d</fix>
</trkpt>
<trkpt lat="40.0727573" lon="-105.2302233">
  <ele>1617.21</ele>
  <time>2026-08-27T18:28:29Z</time>
  <course>179.6</course>
  <speed>6.14</speed>
  <fix>3d</fix>
</trkpt>
<trkpt lat="40.072736" lon="-105.2302231">
  <ele>1617.31</ele>
  <time>2026-08-27T18:28:29Z</time>
  <course>181.34</course>
  <speed>5.460036629913759</speed>
  <fix>3d</fix>
</trkpt>
<trkpt lat="40.0727464" lon="-105.2302232">
  <ele>1617.23</ele>
  <time>2026-08-27T18:28:29Z</time>
  <course>179.83</course>
  <speed>5.85</speed>
  <fix>3d</fix>
</trkpt>
<trkpt lat="40.0727265" lon="-105.2302231">
  <ele>1617.31</ele>
  <time>2026-08-27T18:28:29Z</time>
  <course>181.67</course>
  <speed>5.09</speed>
  <fix>3d</fix>
</trkpt>
<trkpt lat="40.0727362" lon="-105.2302232">
  <ele>1617.24</ele>
  <time>2026-08-27T18:28:29Z</time>
  <course>180.11</course>
  <speed>5.52</speed>
  <fix>3d</fix>
</trkpt>
<trkpt lat="40.0727176" lon="-105.2302232">
  <ele>1617.3</ele>
  <time>2026-08-27T18:28:29Z</time>
  <course>181.94</course>
  <speed>4.700010638285833</speed>
  <fix>3d</fix>
</trkpt>
<trkpt lat="40.0727266" lon="-105.2302232">
  <ele>1617.24</ele>
  <time>2026-08-27T18:28:29Z</time>
  <course>180.41</course>
  <speed>5.16</speed>
  <fix>3d</fix>
</trkpt>
<trkpt lat="40.0727095" lon="-105.2302232">
  <ele>1617.28</ele>
  <time>2026-08-27T18:28:29Z</time>
  <course>182.15</course>
  <speed>4.300104649889349</speed>
  <fix>3d</fix>
</trkpt>
<trkpt lat="40.0727177" lon="-105.2302234">
  <ele>1617.23</ele>
  <time>2026-08-27T18:28:29Z</time>
  <course>180.73</course>
  <speed>4.77</speed>
  <fix>3d</fix>
</trkpt>
<trkpt lat="40.072702" lon="-105.2302234">
  <ele>1617.25</ele>
  <time>2026-08-27T18:28:29Z</time>
  <course>182.32</course>
  <speed>3.90020512281085</speed>
  <fix>3d</fix>
</trkpt>
<trkpt lat="40.0727094" lon="-105.2302235">
  <ele>1617.21</ele>
  <time>2026-08-27T18:28:29Z</time>
  <course>181.07</course>
  <speed>4.37</speed>
  <fix>3d</fix>
</trkpt>
<trkpt lat="40.0726953" lon="-105.2302236">
  <ele>1617.22</ele>
  <time>2026-08-27T18:28:29Z</time>
  <course>182.44</course>
  <speed>3.4903581478123415</speed>
  <fix>3d</fix>
</trkpt>
<trkpt lat="40.0727019" lon="-105.2302238">
  <ele>1617.19</ele>
  <time>2026-08-27T18:28:29Z</time>
  <course>181.43</course>
  <speed>3.96</speed>
  <fix>3d</fix>
</trkpt>
<trkpt lat="40.0726893" lon="-105.2302239">
  <ele>1617.2</ele>
  <time>2026-08-27T18:28:29Z</time>
  <course>182.51</course>
  <speed>3.100403199585499</speed>
  <fix>3d</fix>
</trkpt>
<trkpt lat="40.0726952" lon="-105.230224">
  <ele>1617.17</ele>
  <time>2026-08-27T18:28:29Z</time>
  <course>181.78</course>
  <speed>3.55</speed>
  <fix>3d</fix>
</trkpt>
<trkpt lat="40.072684" lon="-105.2302241">
  <ele>1617.18</ele>
  <time>2026-08-27T18:28:29Z</time>
  <course>182.49</course>
  <speed>2.73045783706689</speed>
  <fix>3d</fix>
</trkpt>
<trkpt lat="40.0726892" lon="-105.2302243">
  <ele>1617.15</ele>
  <time>2026-08-27T18:28:29Z</time>
  <course>182.09</course>
  <speed>3.15</speed>
  <fix>3d</fix>
</trkpt>
<trkpt lat="40.0726793" lon="-105.2302244">
  <ele>1617.16</ele>
  <time>2026-08-27T18:28:29Z</time>
  <course>182.41</course>
  <speed>2.3703375287076733</speed>
  <fix>3d</fix>
</trkpt>
<trkpt lat="40.0726839" lon="-105.2302245">
  <ele>1617.13</ele>
  <time>2026-08-27T18:28:29Z</time>
  <course>182.32</course>
  <speed>2.77</speed>
  <fix>3d</fix>
</trkpt>
<trkpt lat="40.0726753" lon="-105.2302246">
  <ele>1617.14</ele>
  <time>2026-08-27T18:28:29Z</time>
  <course>182.2</course>
  <speed>2.0402205763103165</speed>
  <fix>3d</fix>
</trkpt>
<trkpt lat="40.0726792" lon="-105.2302248">
  <ele>1617.11</ele>
  <time>2026-08-27T18:28:29Z</time>
  <course>182.44</course>
  <speed>2.41</speed>
  <fix>3d</fix>
</trkpt>
<trkpt lat="40.0726719" lon="-105.2302248">
  <ele>1617.14</ele>
  <time>2026-08-27T18:28:29Z</time>
  <course>181.81</course>
  <speed>1.7300289014926888</speed>
  <fix>3d</fix>
</trkpt>
<trkpt lat="40.0726752" lon="-105.2302249">
  <ele>1617.09</ele>
  <time>2026-08-27T18:28:29Z</time>
  <course>182.4</course>
  <speed>2.07</speed>
  <fix>3d</fix>
</trkpt>
<trkpt lat="40.072669" lon="-105.2302249">
  <ele>1617.13</ele>
  <time>2026-08-27T18:28:29Z</time>
  <course>181.16</course>
  <speed>1.45</speed>
  <fix>3d</fix>
</trkpt>
<trkpt lat="40.0726717" lon="-105.2302252">
  <ele>1617.08</ele>
  <time>2026-08-27T18:28:29Z</time>
  <course>182.14</course>
  <speed>1.75</speed>
  <fix>3d</fix>
</trkpt>
<trkpt lat="40.0726666" lon="-105.230225">
  <ele>1617.12</ele>
  <time>2026-08-27T18:28:29Z</time>
  <course>180.2</course>
  <speed>1.1901680553602503</speed>
  <fix>3d</fix>
</trkpt>
<trkpt lat="40.0726688" lon="-105.2302253">
  <ele>1617.08</ele>
  <time>2026-08-27T18:28:29Z</time>
  <course>181.58</course>
  <speed>1.46</speed>
  <fix>3d</fix>
</trkpt>
<trkpt lat="40.0726646" lon="-105.2302251">
  <ele>1617.12</ele>
  <time>2026-08-27T18:28:29Z</time>
  <course>178.81</course>
  <speed>0.9508417323613851</speed>
  <fix>3d</fix>
</trkpt>
<trkpt lat="40.0726664" lon="-105.2302254">
  <ele>1617.08</ele>
  <time>2026-08-27T18:28:29Z</time>
  <course>180.62</course>
  <speed>1.19</speed>
  <fix>3d</fix>
</trkpt>
<trkpt lat="40.0726631" lon="-105.2302251">
  <ele>1617.11</ele>
  <time>2026-08-27T18:28:29Z</time>
  <course>178.06</course>
  <speed>0.7333484846919641</speed>
  <fix>3d</fix>
</trkpt>
<trkpt lat="40.0726645" lon="-105.2302254">
  <ele>1617.08</ele>
  <time>2026-08-27T18:28:29Z</time>
  <course>179.05</course>
  <speed>0.95</speed>
  <fix>3d</fix>
</trkpt>
<trkpt lat="40.0726619" lon="-105.230225">
  <ele>1617.11</ele>
  <time>2026-08-27T18:28:29Z</time>
  <course>178.19</course>
  <speed>0.5375872022286245</speed>
  <fix>3d</fix>
</trkpt>
<trkpt lat="40.072663" lon="-105.2302253">
  <ele>1617.08</ele>
  <time>2026-08-27T18:28:29Z</time>
  <course>176.24</course>
  <speed>0.73</speed>
  <fix>3d</fix>
</trkpt>
<trkpt lat="40.0726611" lon="-105.2302248">
  <ele>1617.12</ele>
  <time>2026-08-27T18:28:29Z</time>
  <course>178.14</course>
  <speed>0.3640054944640259</speed>
  <fix>3d</fix>
</trkpt>
<trkpt lat="40.0726619" lon="-105.2302252">
  <ele>1617.08</ele>
  <time>2026-08-27T18:28:29Z</time>
  <course>171.83</course>
  <speed>0.53</speed>
  <fix>3d</fix>
</trkpt>
<trkpt lat="40.0726607" lon="-105.2302246">
  <ele>1617.13</ele>
  <time>2026-08-27T18:28:29Z</time>
  <course>178.15</course>
  <speed>0.2109502310972899</speed>
  <fix>3d</fix>
</trkpt>
<trkpt lat="40.0726612" lon="-105.230225">
  <ele>1617.09</ele>
  <time>2026-08-27T18:28:29Z</time>
  <course>164.55</course>
  <speed>0.36</speed>
  <fix>3d</fix>
</trkpt>
<trkpt lat="40.0726605" lon="-105.2302243">
  <ele>1617.15</ele>
  <time>2026-08-27T18:28:29Z</time>
  <course>178.18</course>
  <speed>0.12165525060596438</speed>
  <fix>3d</fix>
</trkpt>
<trkpt lat="40.0726607" lon="-105.2302248">
  <ele>1617.1</ele>
  <time>2026-08-27T18:28:29Z</time>
  <course>147.7</course>
  <speed>0.21</speed>
  <fix>3d</fix>
</trkpt>
<trkpt lat="40.0726606" lon="-105.2302241">
  <ele>1617.16</ele>
  <time>2026-08-27T18:28:30Z</time>
  <course>178.16</course>
  <speed>0.1769180601295413</speed>
  <fix>3d</fix>
</trkpt>
<trkpt lat="40.0726605" lon="-105.2302245">
  <ele>1617.1</ele>
  <time>2026-08-27T18:28:30Z</time>
  <course>99.42</course>
  <speed>0.12</speed>
  <fix>3d</fix>
</trkpt>
<trkpt lat="40.0726609" lon="-105.2302238">
  <ele>1617.16</ele>
  <time>2026-08-27T18:28:30Z</time>
  <course>178.0</course>
  <speed>0.29966648127543394</speed>
  <fix>3d</fix>
</trkpt>
<trkpt lat="40.0726606" lon="-105.2302242">
  <ele>1617.11</ele>
  <time>2026-08-27T18:28:30Z</time>
  <course>46.51</course>
  <speed>0.18</speed>
  <fix>3d</fix>
</trkpt>
<trkpt lat="40.0726616" lon="-105.2302235">
  <ele>1617.17</ele>
  <time>2026-08-27T18:28:30Z</time>
  <course>178.46</course>
  <speed>0.46840153714521476</speed>
  <fix>3d</fix>
</trkpt>
<trkpt lat="40.0726609" lon="-105.2302239">
  <ele>1617.12</ele>
  <time>2026-08-27T18:28:30Z</time>
  <course>27.08</course>
  <speed>0.31</speed>
  <fix>3d</fix>
</trkpt>
<trkpt lat="40.0726625" lon="-105.2302232">
  <ele>1617.17</ele>
  <time>2026-08-27T18:28:30Z</time>
  <course>178.23</course>
  <speed>0.6020797289396147</speed>
  <fix>3d</fix>
</trkpt>
<trkpt lat="40.0726614" lon="-105.2302235">
  <ele>1617.12</ele>
  <time>2026-08-27T18:28:30Z</time>
  <course>18.39</course>
  <speed>0.47</speed>
  <fix>3d</fix>
</trkpt>
<trkpt lat="40.0726636" lon="-105.2302229">
  <ele>1617.18</ele>
  <time>2026-08-27T18:28:30Z</time>
  <course>178.12</course>
  <speed>0.646297145282261</speed>
  <fix>3d</fix>
</trkpt>
<trkpt lat="40.0726624" lon="-105.2302232">
  <ele>1617.12</ele>
  <time>2026-08-27T18:28:30Z</time>
  <course>13.63</course>
  <speed>0.6</speed>
  <fix>3d</fix>
</trkpt>
<trkpt lat="40.0726648" lon="-105.2302227">
  <ele>1617.18</ele>
  <time>2026-08-27T18:28:30Z</time>
  <course>178.06</course>
  <speed>0.6220128616033594</speed>
  <fix>3d</fix>
</trkpt>
<trkpt lat="40.0726636" lon="-105.2302229">
  <ele>1617.12</ele>
  <time>2026-08-27T18:28:30Z</time>
  <course>10.33</course>
  <speed>0.66</speed>
  <fix>3d</fix>
</trkpt>
<trkpt lat="40.0726658" lon="-105.2302226">
  <ele>1617.19</ele>
  <time>2026-08-27T18:28:30Z</time>
  <course>178.05</course>
  <speed>0.5608029957123981</speed>
  <fix>3d</fix>
</trkpt>
<trkpt lat="40.0726648" lon="-105.2302226">
  <ele>1617.12</ele>
  <time>2026-08-27T18:28:30Z</time>
  <course>7.94</course>
  <speed>0.65</speed>
  <fix>3d</fix>
</trkpt>
<trkpt lat="40.0726668" lon="-105.2302224">
  <ele>1617.19</ele>
  <time>2026-08-27T18:28:30Z</time>
  <course>178.05</course>
  <speed>0.48041648597857256</speed>
  <fix>3d</fix>
</trkpt>
<trkpt lat="40.0726658" lon="-105.2302225">
  <ele>1617.12</ele>
  <time>2026-08-27T18:28:30Z</time>
  <course>6.79</course>
  <speed>0.59</speed>
  <fix>3d</fix>
</trkpt>
<trkpt lat="40.0726676" lon="-105.2302223">
  <ele>1617.19</ele>
  <time>2026-08-27T18:28:30Z</time>
  <course>178.04</course>
  <speed>0.3905124837953327</speed>
  <fix>3d</fix>
</trkpt>
<trkpt lat="40.0726669" lon="-105.2302223">
  <ele>1617.12</ele>
  <time>2026-08-27T18:28:30Z</time>
  <course>7.05</course>
  <speed>0.51</speed>
  <fix>3d</fix>
</trkpt>
<trkpt lat="40.0726683" lon="-105.2302222">
  <ele>1617.19</ele>
  <time>2026-08-27T18:28:30Z</time>
  <course>178.01</course>
  <speed>0.2906888370749727</speed>
  <fix>3d</fix>
</trkpt>
<trkpt lat="40.0726677" lon="-105.2302221">
  <ele>1617.12</ele>
  <time>2026-08-27T18:28:30Z</time>
  <course>8.63</course>
  <speed>0.42</speed>
  <fix>3d</fix>
</trkpt>
<trkpt lat="40.0726687" lon="-105.2302221">
  <ele>1617.18</ele>
  <time>2026-08-27T18:28:30Z</time>
  <course>177.98</course>
  <speed>0.191049731745428</speed>
  <fix>3d</fix>
</trkpt>
<trkpt lat="40.0726684" lon="-105.230222">
  <ele>1617.11</ele>
  <time>2026-08-27T18:28:30Z</time>
  <course>11.63</course>
  <speed>0.32</speed>
  <fix>3d</fix>
</trkpt>
<trkpt lat="40.072669" lon="-105.230222">
  <ele>1617.17</ele>
  <time>2026-08-27T18:28:30Z</time>
  <course>177.95</course>
  <speed>0.09055385138137417</speed>
  <fix>3d</fix>
</trkpt>
<trkpt lat="40.0726688" lon="-105.2302218">
  <ele>1617.11</ele>
  <time>2026-08-27T18:28:30Z</time>
  <course>17.33</course>
  <speed>0.22</speed>
  <fix>3d</fix>
</trkpt>
<trkpt lat="40.0726691" lon="-105.2302218">
  <ele>1617.17</ele>
  <time>2026-08-27T18:28:30Z</time>
  <course>177.9</course>
  <speed>0.01414213562373095</speed>
  <fix>3d</fix>
</trkpt>
<trkpt lat="40.0726692" lon="-105.2302216">
  <ele>1617.1</ele>
  <time>2026-08-27T18:28:30Z</time>
  <course>32.18</course>
  <speed>0.12</speed>
  <fix>3d</fix>
</trkpt>
<trkpt lat="40.072669" lon="-105.2302217">
  <ele>1617.17</ele>
  <time>2026-08-27T18:28:30Z</time>
  <course>177.88</course>
  <speed>0.1</speed>
  <fix>3d</fix>
</trkpt>
<trkpt lat="40.0726692" lon="-105.2302215">
  <ele>1617.1</ele>
  <time>2026-08-27T18:28:30Z</time>
  <course>95.64</course>
  <speed>0.06</speed>
  <fix>3d</fix>
</trkpt>
<trkpt lat="40.0726688" lon="-105.2302215">
  <ele>1617.16</ele>
  <time>2026-08-27T18:28:30Z</time>
  <course>177.87</course>
  <speed>0.19</speed>
  <fix>3d</fix>
</trkpt>
<trkpt lat="40.0726691" lon="-105.2302214">
  <ele>1617.09</ele>
  <time>2026-08-27T18:28:30Z</time>
  <course>152.21</course>
  <speed>0.12</speed>
  <fix>3d</fix>
</trkpt>
<trkpt lat="40.0726684" lon="-105.2302215">
  <ele>1617.17</ele>
  <time>2026-08-27T18:28:30Z</time>
  <course>177.87</course>
  <speed>0.26</speed>
  <fix>3d</fix>
</trkpt>
<trkpt lat="40.0726689" lon="-105.2302212">
  <ele>1617.09</ele>
  <time>2026-08-27T18:28:30Z</time>
  <course>165.51</course>
  <speed>0.2</speed>
  <fix>3d</fix>
</trkpt>
<trkpt lat="40.0726679" lon="-105.2302214">
  <ele>1617.17</ele>
  <time>2026-08-27T18:28:30Z</time>
  <course>177.88</course>
  <speed>0.32015621187164245</speed>
  <fix>3d</fix>
</trkpt>
<trkpt lat="40.0726685" lon="-105.2302211">
  <ele>1617.09</ele>
  <time>2026-08-27T18:28:30Z</time>
  <course>170.78</course>
  <speed>0.28</speed>
  <fix>3d</fix>
</trkpt>
<trkpt lat="40.0726673" lon="-105.2302214">
  <ele>1617.17</ele>
  <time>2026-08-27T18:28:30Z</time>
  <course>177.9</course>
  <speed>0.3605551275463989</speed>
  <fix>3d</fix>
</trkpt>
<trkpt lat="40.0726679" lon="-105.230221">
  <ele>1617.09</ele>
  <time>2026-08-27T18:28:30Z</time>
  <course>173.76</course>
  <speed>0.34</speed>
  <fix>3d</fix>
</trkpt>
<trkpt lat="40.0726666" lon="-105.2302213">
  <ele>1617.17</ele>
  <time>2026-08-27T18:28:30Z</time>
  <course>177.89</course>
  <speed>0.3905124837953327</speed>
  <fix>3d</fix>
</trkpt>
<trkpt lat="40.0726673" lon="-105.230221">
  <ele>1617.09</ele>
  <time>2026-08-27T18:28:30Z</time>
  <course>175.92</course>
  <speed>0.39</speed>
  <fix>3d</fix>
</trkpt>
<trkpt lat="40.0726658" lon="-105.2302212">
  <ele>1617.17</ele>
  <time>2026-08-27T18:28:30Z</time>
  <course>177.91</course>
  <speed>0.4011234224026316</speed>
  <fix>3d</fix>
</trkpt>
<trkpt lat="40.0726666" lon="-105.2302209">
  <ele>1617.08</ele>
  <time>2026-08-27T18:28:30Z</time>
  <course>177.71</course>
  <speed>0.42</speed>
  <fix>3d</fix>
</trkpt>
<trkpt lat="40.072665" lon="-105.2302212">
  <ele>1617.17</ele>
  <time>2026-08-27T18:28:30Z</time>
  <course>177.93</course>
  <speed>0.4019950248448356</speed>
  <fix>3d</fix>
</trkpt>
<trkpt lat="40.0726657" lon="-105.2302208">
  <ele>1617.08</ele>
  <time>2026-08-27T18:28:30Z</time>
  <course>179.32</course>
  <speed>0.44</speed>
  <fix>3d</fix>
</trkpt>
<trkpt lat="40.0726643" lon="-105.2302212">
  <ele>1617.17</ele>
  <time>2026-08-27T18:28:30Z</time>
  <course>177.94</course>
  <speed>0.39319206502675</speed>
  <fix>3d</fix>
</trkpt>
<trkpt lat="40.072665" lon="-105.2302208">
  <ele>1617.08</ele>
  <time>2026-08-27T18:28:30Z</time>
  <course>180.89</course>
  <speed>0.44</speed>
  <fix>3d</fix>
</trkpt>
<trkpt lat="40.0726635" lon="-105.2302212">
  <ele>1617.17</ele>
  <time>2026-08-27T18:28:30Z</time>
  <course>177.95</course>
  <speed>0.3649657518178932</speed>
  <fix>3d</fix>
</trkpt>
<trkpt lat="40.0726642" lon="-105.2302208">
  <ele>1617.08</ele>
  <time>2026-08-27T18:28:30Z</time>
  <course>182.53</course>
  <speed>0.43</speed>
  <fix>3d</fix>
</trkpt>
<trkpt lat="40.0726629" lon="-105.2302213">
  <ele>1617.17</ele>
  <time>2026-08-27T18:28:30Z</time>
  <course>177.96</course>
  <speed>0.327566787083184</speed>
  <fix>3d</fix>
</trkpt>
<trkpt lat="40.0726634" lon="-105.2302209">
  <ele>1617.08</ele>
  <time>2026-08-27T18:28:30Z</time>
  <course>184.33</course>
  <speed>0.41</speed>
  <fix>3d</fix>
</trkpt>
<trkpt lat="40.0726623" lon="-105.2302214">
  <ele>1617.17</ele>
  <time>2026-08-27T18:28:30Z</time>
  <course>177.98</course>
  <speed>0.29120439557122074</speed>
  <fix>3d</fix>
</trkpt>
<trkpt lat="40.0726627" lon="-105.230221">
  <ele>1617.08</ele>
  <time>2026-08-27T18:28:30Z</time>
  <course>186.42</course>
  <speed>0.38</speed>
  <fix>3d</fix>
</trkpt>
<trkpt lat="40.0726617" lon="-105.2302215">
  <ele>1617.17</ele>
  <time>2026-08-27T18:28:30Z</time>
  <course>177.98</course>
  <speed>0.24351591323771843</speed>
  <fix>3d</fix>
</trkpt>
<trkpt lat="40.0726621" lon="-105.2302211">
  <ele>1617.07</ele>
  <time>2026-08-27T18:28:30Z</time>
  <course>188.94</course>
  <speed>0.34</speed>
  <fix>3d</fix>
</trkpt>
<trkpt lat="40.0726613" lon="-105.2302216">
  <ele>1617.17</ele>
  <time>2026-08-27T18:28:30Z</time>
  <course>177.98</course>
  <speed>0.20124611797498107</speed>
  <fix>3d</fix>
</trkpt>
<trkpt lat="40.0726614" lon="-105.2302212">
  <ele>1617.07</ele>
  <time>2026-08-27T18:28:30Z</time>
  <course>192.15</course>
  <speed>0.29</speed>
  <fix>3d</fix>
</trkpt>
<trkpt lat="40.0726609" lon="-105.2302218">
  <ele>1617.17</ele>
  <time>2026-08-27T18:28:30Z</time>
  <course>177.98</course>
  <speed>0.15811388300841897</speed>
  <fix>3d</fix>
</trkpt>
<trkpt lat="40.0726609" lon="-105.2302214">
  <ele>1617.07</ele>
  <time>2026-08-27T18:28:30Z</time>
  <course>196.4</course>
  <speed>0.24</speed>
  <fix>3d</fix>
</trkpt>
<trkpt lat="40.0726606" lon="-105.2302219">
  <ele>1617.17</ele>
  <time>2026-08-27T18:28:30Z</time>
  <course>177.99</course>
  <speed>0.11401754250991379</speed>
  <fix>3d</fix>
</trkpt>
<trkpt lat="40.0726606" lon="-105.2302215">
  <ele>1617.07</ele>
  <time>2026-08-27T18:28:30Z</time>
  <course>202.4</course>
  <speed>0.19</speed>
  <fix>3d</fix>
</trkpt>
<trkpt lat="40.0726605" lon="-105.2302221">
  <ele>1617.17</ele>
  <time>2026-08-27T18:28:30Z</time>
  <course>177.98</course>
  <speed>0.09219544457292887</speed>
  <fix>3d</fix>
</trkpt>
<trkpt lat="40.0726603" lon="-105.2302218">
  <ele>1617.07</ele>
  <time>2026-08-27T18:28:30Z</time>
  <course>211.77</course>
  <speed>0.14</speed>
  <fix>3d</fix>
</trkpt>
<trkpt lat="40.0726604" lon="-105.2302223">
  <ele>1617.17</ele>
  <time>2026-08-27T18:28:30Z</time>
  <course>177.96</course>
  <speed>0.09219544457292887</speed>
  <fix>3d</fix>
</trkpt>
<trkpt lat="40.0726602" lon="-105.2302219">
  <ele>1617.06</ele>
  <time>2026-08-27T18:28:30Z</time>
  <course>227.48</course>
  <speed>0.1</speed>
  <fix>3d</fix>
</trkpt>
<trkpt lat="40.0726604" lon="-105.2302224">
  <ele>1617.17</ele>
  <time>2026-08-27T18:28:30Z</time>
  <course>177.95</course>
  <speed>0.1</speed>
  <fix>3d</fix>
</trkpt>
<trkpt lat="40.0726601" lon="-105.230222">
  <ele>1617.06</ele>
  <time>2026-08-27T18:28:30Z</time>
  <course>253.75</course>
  <speed>0.08</speed>
  <fix>3d</fix>
</trkpt>
<trkpt lat="40.0726605" lon="-105.2302226">
  <ele>1617.17</ele>
  <time>2026-08-27T18:28:30Z</time>
  <course>177.94</course>
  <speed>0.12806248474865697</speed>
  <fix>3d</fix>
</trkpt>
<trkpt lat="40.0726601" lon="-105.2302223">
  <ele>1617.06</ele>
  <time>2026-08-27T18:28:30Z</time>
  <course>286.08</course>
  <speed>0.07</speed>
  <fix>3d</fix>
</trkpt>
<trkpt lat="40.0726605" lon="-105.2302227">
  <ele>1617.16</ele>
  <time>2026-08-27T18:28:30Z</time>
  <course>177.95</course>
  <speed>0.147648230602334</speed>
  <fix>3d</fix>
</trkpt>
<trkpt lat="40.0726601" lon="-105.2302225">
  <ele>1617.06</ele>
  <time>2026-08-27T18:28:30Z</time>
  <course>310.33</course>
  <speed>0.09</speed>
  <fix>3d</fix>
</trkpt>
<trkpt lat="40.0726607" lon="-105.2302229">
  <ele>1617.16</ele>
  <time>2026-08-27T18:28:30Z</time>
  <course>177.92</course>
  <speed>0.1615549442140351</speed>
  <fix>3d</fix>
</trkpt>
<trkpt lat="40.0726602" lon="-105.2302226">
  <ele>1617.06</ele>
  <time>2026-08-27T18:28:30Z</time>
  <course>324.67</course>
  <speed>0.11</speed>
  <fix>3d</fix>
</trkpt>
<trkpt lat="40.0726609" lon="-105.230223">
  <ele>1617.16</ele>
  <time>2026-08-27T18:28:30Z</time>
  <course>177.9</course>
  <speed>0.1676305461424021</speed>
  <fix>3d</fix>
</trkpt>
<trkpt lat="40.0726603" lon="-105.2302228">
  <ele>1617.06</ele>
  <time>2026-08-27T18:28:30Z</time>
  <course>333.51</course>
  <speed>0.13</speed>
  <fix>3d</fix>
</trkpt>
<trkpt lat="40.0726611" lon="-105.2302231">
  <ele>1617.16</ele>
  <time>2026-08-27T18:28:30Z</time>
  <course>177.9</course>
  <speed>0.17464249196572978</speed>
  <fix>3d</fix>
</trkpt>
<trkpt lat="40.0726606" lon="-105.2302229">
  <ele>1617.06</ele>
  <time>2026-08-27T18:28:30Z</time>
  <course>339.86</course>
  <speed>0.14</speed>
  <fix>3d</fix>
</trkpt>
<trkpt lat="40.0726614" lon="-105.2302232">
  <ele>1617.16</ele>
  <time>2026-08-27T18:28:30Z</time>
  <course>177.9</course>
  <speed>0.17262676501632068</speed>
  <fix>3d</fix>
</trkpt>
<trkpt lat="40.0726609" lon="-105.230223">
  <ele>1617.06</ele>
  <time>2026-08-27T18:28:30Z</time>
  <course>344.95</course>
  <speed>0.15</speed>
  <fix>3d</fix>
</trkpt>
<trkpt lat="40.0726616" lon="-105.2302232">
  <ele>1617.16</ele>
  <time>2026-08-27T18:28:30Z</time>
  <course>177.88</course>
  <speed>0.1711724276862369</speed>
  <fix>3d</fix>
</trkpt>
<trkpt lat="40.0726611" lon="-105.230223">
  <ele>1617.06</ele>
  <time>2026-08-27T18:28:30Z</time>
  <course>349.21</course>
  <speed>0.15</speed>
  <fix>3d</fix>
</trkpt>
<trkpt lat="40.0726619" lon="-105.2302232">
  <ele>1617.16</ele>
  <time>2026-08-27T18:28:30Z</time>
  <course>177.88</course>
  <speed>0.16031219541881397</speed>
  <fix>3d</fix>
</trkpt>
<trkpt lat="40.0726614" lon="-105.2302231">
  <ele>1617.06</ele>
  <time>2026-08-27T18:28:30Z</time>
  <course>353.05</course>
  <speed>0.15</speed>
  <fix>3d</fix>
</trkpt>
<trkpt lat="40.0726621" lon="-105.2302232">
  <ele>1617.16</ele>
  <time>2026-08-27T18:28:30Z</time>
  <course>177.87</course>
  <speed>0.15033296378372907</speed>
  <fix>3d</fix>
</trkpt>
<trkpt lat="40.0726617" lon="-105.2302232">
  <ele>1617.06</ele>
  <time>2026-08-27T18:28:30Z</time>
  <course>356.76</course>
  <speed>0.14</speed>
  <fix>3d</fix>
</trkpt>
<trkpt lat="40.0726623" lon="-105.2302232">
  <ele>1617.16</ele>
  <time>2026-08-27T18:28:30Z</time>
  <course>177.86</course>
  <speed>0.14</speed>
  <fix>3d</fix>
</trkpt>
<trkpt lat="40.0726619" lon="-105.2302232">
  <ele>1617.06</ele>
  <time>2026-08-27T18:28:30Z</time>
  <course>0.37</course>
  <speed>0.13</speed>
  <fix>3d</fix>
</trkpt>
<trkpt lat="40.0726625" lon="-105.2302232">
  <ele>1617.16</ele>
  <time>2026-08-27T18:28:30Z</time>
  <course>177.86</course>
  <speed>0.12</speed>
  <fix>3d</fix>
</trkpt>
<trkpt lat="40.0726621" lon="-105.2302232">
  <ele>1617.06</ele>
  <time>2026-08-27T18:28:30Z</time>
  <course>4.32</course>
  <speed>0.12</speed>
  <fix>3d</fix>
</trkpt>
<trkpt lat="40.0726627" lon="-105.2302232">
  <ele>1617.16</ele>
  <time>2026-08-27T18:28:30Z</time>
  <course>177.84</course>
  <speed>0.1</speed>
  <fix>3d</fix>
</trkpt>
<trkpt lat="40.0726624" lon="-105.2302232">
  <ele>1617.06</ele>
  <time>2026-08-27T18:28:30Z</time>
  <course>9.03</course>
  <speed>0.1</speed>
  <fix>3d</fix>
</trkpt>
<trkpt lat="40.0726628" lon="-105.2302232">
  <ele>1617.16</ele>
  <time>2026-08-27T18:28:30Z</time>
  <course>177.84</course>
  <speed>0.08062257748298549</speed>
  <fix>3d</fix>
</trkpt>
<trkpt lat="40.0726626" lon="-105.2302232">
  <ele>1617.06</ele>
  <time>2026-08-27T18:28:30Z</time>
  <course>15.02</course>
  <speed>0.09</speed>
  <fix>3d</fix>
</trkpt>
<trkpt lat="40.0726629" lon="-105.2302231">
  <ele>1617.16</ele>
  <time>2026-08-27T18:28:30Z</time>
  <course>177.85</course>
  <speed>0.06082762530298219</speed>
  <fix>3d</fix>
</trkpt>
<trkpt lat="40.0726627" lon="-105.2302231">
  <ele>1617.06</ele>
  <time>2026-08-27T18:28:30Z</time>
  <course>23.13</course>
  <speed>0.07</speed>
  <fix>3d</fix>
</trkpt>
<trkpt lat="40.072663" lon="-105.2302231">
  <ele>1617.16</ele>
  <time>2026-08-27T18:28:30Z</time>
  <course>177.85</course>
  <speed>0.0412310562561766</speed>
  <fix>3d</fix>
</trkpt>
<trkpt lat="40.0726628" lon="-105.230223">
  <ele>1617.06</ele>
  <time>2026-08-27T18:28:30Z</time>
  <course>34.93</course>
  <speed>0.05</speed>
  <fix>3d</fix>
</trkpt>
<trkpt lat="40.072663" lon="-105.230223">
  <ele>1617.17</ele>
  <time>2026-08-27T18:28:30Z</time>
  <course>177.86</course>
  <speed>0.022360679774997897</speed>
  <fix>3d</fix>
</trkpt>
<trkpt lat="40.0726629" lon="-105.230223">
  <ele>1617.07</ele>
  <time>2026-08-27T18:28:30Z</time>
  <course>53.71</course>
  <speed>0.04</speed>
  <fix>3d</fix>
</trkpt>
<trkpt lat="40.072663" lon="-105.2302229">
  <ele>1617.17</ele>
  <time>2026-08-27T18:28:30Z</time>
  <course>177.88</course>
  <speed>0.01</speed>
  <fix>3d</fix>
</trkpt>
<trkpt lat="40.0726629" lon="-105.2302229">
  <ele>1617.07</ele>
  <time>2026-08-27T18:28:30Z</time>
  <course>79.21</course>
  <speed>0.03</speed>
  <fix>3d</fix>
</trkpt>
<trkpt lat="40.072663" lon="-105.2302229">
  <ele>1617.16</ele>
  <time>2026-08-27T18:28:30Z</time>
  <course>177.91</course>
  <speed>0.01</speed>
  <fix>3d</fix>
</trkpt>
<trkpt lat="40.0726629" lon="-105.2302228">
  <ele>1617.06</ele>
  <time>2026-08-27T18:28:30Z</time>
  <course>102.24</course>
  <speed>0.03</speed>
  <fix>3d</fix>
</trkpt>
<trkpt lat="40.072663" lon="-105.2302228">
  <ele>1617.16</ele>
  <time>2026-08-27T18:28:30Z</time>
  <course>177.92</course>
  <speed>0.0</speed>
  <fix>3d</fix>
</trkpt>
<trkpt lat="40.0726629" lon="-105.2302227">
  <ele>1617.06</ele>
  <time>2026-08-27T18:28:30Z</time>
  <course>117.99</course>
  <speed>0.03</speed>
  <fix>3d</fix>
</trkpt>
<trkpt lat="40.072663" lon="-105.2302227">
  <ele>1617.15</ele>
  <time>2026-08-27T18:28:30Z</time>
  <course>177.88</course>
  <speed>0.0</speed>
  <fix>3d</fix>
</trkpt>
<trkpt lat="40.0726629" lon="-105.2302226">
  <ele>1617.05</ele>
  <time>2026-08-27T18:28:30Z</time>
  <course>129.3</course>
  <speed>0.03</speed>
  <fix>3d</fix>
</trkpt>
<trkpt lat="40.072663" lon="-105.2302227">
  <ele>1617.15</ele>
  <time>2026-08-27T18:28:30Z</time>
  <course>178.04</course>
  <speed>0.0</speed>
  <fix>3d</fix>
</trkpt>
<trkpt lat="40.0726629" lon="-105.2302225">
  <ele>1617.05</ele>
  <time>2026-08-27T18:28:30Z</time>
  <course>138.48</course>
  <speed>0.03</speed>
  <fix>3d</fix>
</trkpt>
<trkpt lat="40.0726629" lon="-105.2302227">
  <ele>1617.15</ele>
  <time>2026-08-27T18:28:30Z</time>
  <course>178.01</course>
  <speed>0.022360679774997897</speed>
  <fix>3d</fix>
</trkpt>
<trkpt lat="40.0726629" lon="-105.2302225">
  <ele>1617.05</ele>
  <time>2026-08-27T18:28:30Z</time>
  <course>150.6</course>
  <speed>0.02</speed>
  <fix>3d</fix>
</trkpt>
<trkpt lat="40.0726629" lon="-105.2302227">
  <ele>1617.15</ele>
  <time>2026-08-27T18:28:30Z</time>
  <course>178.07</course>
  <speed>0.08602325267042626</speed>
  <fix>3d</fix>
</trkpt>
<trkpt lat="40.0726628" lon="-105.2302225">
  <ele>1617.05</ele>
  <time>2026-08-27T18:28:30Z</time>
  <course>229.02</course>
  <speed>0.01</speed>
  <fix>3d</fix>
</trkpt>
<trkpt lat="40.072663" lon="-105.2302229">
  <ele>1617.15</ele>
  <time>2026-08-27T18:28:30Z</time>
  <course>178.08</course>
  <speed>0.16401219466856726</speed>
  <fix>3d</fix>
</trkpt>
<trkpt lat="40.0726628" lon="-105.2302225">
  <ele>1617.05</ele>
  <time>2026-08-27T18:28:30Z</time>
  <course>297.51</course>
  <speed>0.05</speed>
  <fix>3d</fix>
</trkpt>
<trkpt lat="40.0726632" lon="-105.2302232">
  <ele>1617.15</ele>
  <time>2026-08-27T18:28:30Z</time>
  <course>178.11</course>
  <speed>0.27018512172212594</speed>
  <fix>3d</fix>
</trkpt>
<trkpt lat="40.0726629" lon="-105.2302226">
  <ele>1617.05</ele>
  <time>2026-08-27T18:28:30Z</time>
  <course>304.19</course>
  <speed>0.13</speed>
  <fix>3d</fix>
</trkpt>
<trkpt lat="40.0726635" lon="-105.2302238">
  <ele>1617.15</ele>
  <time>2026-08-27T18:28:30Z</time>
  <course>178.12</course>
  <speed>0.378021163428716</speed>
  <fix>3d</fix>
</trkpt>
<trkpt lat="40.072663" lon="-105.230223">
  <ele>1617.05</ele>
  <time>2026-08-27T18:28:30Z</time>
  <course>305.42</course>
  <speed>0.23</speed>
  <fix>3d</fix>
</trkpt>
<trkpt lat="40.0726639" lon="-105.2302246">
  <ele>1617.14</ele>
  <time>2026-08-27T18:28:30Z</time>
  <course>178.1</course>
  <speed>0.5140038910358559</speed>
  <fix>3d</fix>
</trkpt>
<trkpt lat="40.0726633" lon="-105.2302236">
  <ele>1617.05</ele>
  <time>2026-08-27T18:28:30Z</time>
  <course>305.39</course>
  <speed>0.34</speed>
  <fix>3d</fix>
</trkpt>
<trkpt lat="40.0726645" lon="-105.2302256">
  <ele>1617.14</ele>
  <time>2026-08-27T18:28:30Z</time>
  <course>178.1</course>
  <speed>0.6360031446463138</speed>
  <fix>3d</fix>
</trkpt>
<trkpt lat="40.0726637" lon="-105.2302244">
  <ele>1617.05</ele>
  <time>2026-08-27T18:28:30Z</time>
  <course>305.19</course>
  <speed>0.47</speed>
  <fix>3d</fix>
</trkpt>
<trkpt lat="40.0726652" lon="-105.2302269">
  <ele>1617.14</ele>
  <time>2026-08-27T18:28:30Z</time>
  <course>178.08</course>
  <speed>0.7860025445251434</speed>
  <fix>3d</fix>
</trkpt>
<trkpt lat="40.0726643" lon="-105.2302254">
  <ele>1617.05</ele>
  <time>2026-08-27T18:28:30Z</time>
  <course>305.09</course>
  <speed>0.6</speed>
  <fix>3d</fix>
</trkpt>
<trkpt lat="40.0726661" lon="-105.2302284">
  <ele>1617.15</ele>
  <time>2026-08-27T18:28:30Z</time>
  <course>178.1</course>
  <speed>0.9360021367496978</speed>
  <fix>3d</fix>
</trkpt>
<trkpt lat="40.072665" lon="-105.2302267">
  <ele>1617.05</ele>
  <time>2026-08-27T18:28:30Z</time>
  <course>305.17</course>
  <speed>0.74</speed>
  <fix>3d</fix>
</trkpt>
<trkpt lat="40.0726671" lon="-105.2302303">
  <ele>1617.15</ele>
  <time>2026-08-27T18:28:30Z</time>
  <course>178.57</course>
  <speed>1.0920164833920778</speed>
  <fix>3d</fix>
</trkpt>
<trkpt lat="40.0726658" lon="-105.2302282">
  <ele>1617.05</ele>
  <time>2026-08-27T18:28:30Z</time>
  <course>305.34</course>
  <speed>0.9</speed>
  <fix>3d</fix>
</trkpt>
<trkpt lat="40.0726683" lon="-105.2302324">
  <ele>1617.15</ele>
  <time>2026-08-27T18:28:30Z</time>
  <course>190.93</course>
  <speed>1.23227432010896</speed>
  <fix>3d</fix>
</trkpt>
<trkpt lat="40.0726669" lon="-105.2302302">
  <ele>1617.05</ele>
  <time>2026-08-27T18:28:30Z</time>
  <course>306.41</course>
  <speed>1.04</speed>
  <fix>3d</fix>
</trkpt>
<trkpt lat="40.0726697" lon="-105.2302349">
  <ele>1617.15</ele>
  <time>2026-08-27T18:28:30Z</time>
  <course>203.26</course>
  <speed>1.4263590010933433</speed>
  <fix>3d</fix>
</trkpt>
<trkpt lat="40.0726681" lon="-105.2302322">
  <ele>1617.05</ele>
  <time>2026-08-27T18:28:30Z</time>
  <course>306.7</course>
  <speed>1.2</speed>
  <fix>3d</fix>
</trkpt>
<trkpt lat="40.0726712" lon="-105.2302378">
  <ele>1617.15</ele>
  <time>2026-08-27T18:28:30Z</time>
  <course>215.14</course>
  <speed>1.6337074401495513</speed>
  <fix>3d</fix>
</trkpt>
<trkpt lat="40.0726694" lon="-105.2302347">
  <ele>1617.04</ele>
  <time>2026-08-27T18:28:30Z</time>
  <course>305.03</course>
  <speed>1.39</speed>
  <fix>3d</fix>
</trkpt>
<trkpt lat="40.0726728" lon="-105.2302413">
  <ele>1617.14</ele>
  <time>2026-08-27T18:28:30Z</time>
  <course>226.88</course>
  <speed>1.8729655629509048</speed>
  <fix>3d</fix>
</trkpt>
<trkpt lat="40.072671" lon="-105.2302377">
  <ele>1617.04</ele>
  <time>2026-08-27T18:28:30Z</time>
  <course>302.6</course>
  <speed>1.59</speed>
  <fix>3d</fix>
</trkpt>
<trkpt lat="40.0726745" lon="-105.2302454">
  <ele>1617.13</ele>
  <time>2026-08-27T18:28:30Z</time>
  <course>238.56</course>
  <speed>2.1606017680266763</speed>
  <fix>3d</fix>
</trkpt>
<trkpt lat="40.0726726" lon="-105.2302411">
  <ele>1617.03</ele>
  <time>2026-08-27T18:28:30Z</time>
  <course>299.99</course>
  <speed>1.83</speed>
  <fix>3d</fix>
</trkpt>
<trkpt lat="40.0726763" lon="-105.2302503">
  <ele>1617.12</ele>
  <time>2026-08-27T18:28:30Z</time>
  <course>250.24</course>
  <speed>2.513483638299641</speed>
  <fix>3d</fix>
</trkpt>
<trkpt lat="40.0726743" lon="-105.2302452">
  <ele>1617.02</ele>
  <time>2026-08-27T18:28:30Z</time>
  <course>297.64</course>
  <speed>2.11</speed>
  <fix>3d</fix>
</trkpt>
<trkpt lat="40.0726784" lon="-105.230256">
  <ele>1617.1</ele>
  <time>2026-08-27T18:28:30Z</time>
  <course>261.98</course>
  <speed>2.9300170647967225</speed>
  <fix>3d</fix>
</trkpt>
<trkpt lat="40.0726761" lon="-105.2302499">
  <ele>1617.01</ele>
  <time>2026-08-27T18:28:30Z</time>
  <course>295.9</course>
  <speed>2.45</speed>
  <fix>3d</fix>
</trkpt>
<trkpt lat="40.0726807" lon="-105.2302626">
  <ele>1617.1</ele>
  <time>2026-08-27T18:28:30Z</time>
  <course>273.86</course>
  <speed>3.390943821416096</speed>
  <fix>3d</fix>
</trkpt>
<trkpt lat="40.0726781" lon="-105.2302555">
  <ele>1617.0</ele>
  <time>2026-08-27T18:28:30Z</time>
  <course>294.92</course>
  <speed>2.85</speed>
  <fix>3d</fix>
</trkpt>
<trkpt lat="40.0726835" lon="-105.2302702">
  <ele>1617.08</ele>
  <time>2026-08-27T18:28:30Z</time>
  <course>286.07</course>
  <speed>3.8823188946813736</speed>
  <fix>3d</fix>
</trkpt>
<trkpt lat="40.0726804" lon="-105.2302621">
  <ele>1616.98</ele>
  <time>2026-08-27T18:28:30Z</time>
  <course>294.69</course>
  <speed>3.3</speed>
  <fix>3d</fix>
</trkpt>
<trkpt lat="40.0726867" lon="-105.2302788">
  <ele>1617.08</ele>
  <time>2026-08-27T18:28:30Z</time>
  <course>295.73</course>
  <speed>4.356248385939443</speed>
  <fix>3d</fix>
</trkpt>
<trkpt lat="40.0726831" lon="-105.2302696">
  <ele>1616.97</ele>
  <time>2026-08-27T18:28:30Z</time>
  <course>295.15</course>
  <speed>3.78</speed>
  <fix>3d</fix>
</trkpt>
<trkpt lat="40.0726904" lon="-105.2302882">
  <ele>1617.08</ele>
  <time>2026-08-27T18:28:30Z</time>
  <course>296.04</course>
  <speed>4.787744771810628</speed>
  <fix>3d</fix>
</trkpt>
<trkpt lat="40.0726863" lon="-105.2302781">
  <ele>1616.96</ele>
  <time>2026-08-27T18:28:30Z</time>
  <course>296.5</course>
  <speed>4.26</speed>
  <fix>3d</fix>
</trkpt>
<trkpt lat="40.0726946" lon="-105.2302984">
  <ele>1617.08</ele>
  <time>2026-08-27T18:28:30Z</time>
  <course>296.6</course>
  <speed>5.13522151420949</speed>
  <fix>3d</fix>
</trkpt>
<trkpt lat="40.0726899" lon="-105.2302875">
  <ele>1616.96</ele>
  <time>2026-08-27T18:28:30Z</time>
  <course>297.9</course>
  <speed>4.7</speed>
  <fix>3d</fix>
</trkpt>
<trkpt lat="40.0726992" lon="-105.2303091">
  <ele>1617.09</ele>
  <time>2026-08-27T18:28:30Z</time>
  <course>297.64</course>
  <speed>5.399351812949402</speed>
  <fix>3d</fix>
</trkpt>
<trkpt lat="40.0726942" lon="-105.2302976">
  <ele>1616.97</ele>
  <time>2026-08-27T18:28:30Z</time>
  <course>298.83</course>
  <speed>5.06</speed>
  <fix>3d</fix>
</trkpt>
<trkpt lat="40.0727042" lon="-105.2303201">
  <ele>1617.11</ele>
  <time>2026-08-27T18:28:30Z</time>
  <course>298.92</course>
  <speed>5.608029957123981</speed>
  <fix>3d</fix>
</trkpt>
<trkpt lat="40.0726988" lon="-105.2303084">
  <ele>1616.98</ele>
  <time>2026-08-27T18:28:30Z</time>
  <course>299.76</course>
  <speed>5.35</speed>
  <fix>3d</fix>
</trkpt>
<trkpt lat="40.0727095" lon="-105.2303315">
  <ele>1617.13</ele>
  <time>2026-08-27T18:28:30Z</time>
  <course>300.3</course>
  <speed>5.7568915223408546</speed>
  <fix>3d</fix>
</trkpt>
<trkpt lat="40.0727037" lon="-105.2303195">
  <ele>1617.0</ele>
  <time>2026-08-27T18:28:30Z</time>
  <course>300.8</course>
  <speed>5.57</speed>
  <fix>3d</fix>
</trkpt>
<trkpt lat="40.0727151" lon="-105.2303429">
  <ele>1617.15</ele>
  <time>2026-08-27T18:28:30Z</time>
  <course>301.72</course>
  <speed>5.871669268615186</speed>
  <fix>3d</fix>
</trkpt>
<trkpt lat="40.072709" lon="-105.2303307">
  <ele>1617.02</ele>
  <time>2026-08-27T18:28:30Z</time>
  <course>301.91</course>
  <speed>5.73</speed>
  <fix>3d</fix>
</trkpt>
<trkpt lat="40.0727209" lon="-105.2303544">
  <ele>1617.17</ele>
  <time>2026-08-27T18:28:30Z</time>
  <course>303.08</course>
  <speed>5.94395491234582</speed>
  <fix>3d</fix>
</trkpt>
<trkpt lat="40.0727146" lon="-105.2303422">
  <ele>1617.04</ele>
  <time>2026-08-27T18:28:30Z</time>
  <course>303.05</course>
  <speed>5.85</speed>
  <fix>3d</fix>
</trkpt>
<trkpt lat="40.0727269" lon="-105.2303658">
  <ele>1617.19</ele>
  <time>2026-08-27T18:28:30Z</time>
  <course>304.37</course>
  <speed>5.990300493297477</speed>
  <fix>3d</fix>
</trkpt>
<trkpt lat="40.0727204" lon="-105.2303538">
  <ele>1617.06</ele>
  <time>2026-08-27T18:28:30Z</time>
  <course>304.17</course>
  <speed>5.94</speed>
  <fix>3d</fix>
</trkpt>
<trkpt lat="40.0727332" lon="-105.2303772">
  <ele>1617.2</ele>
  <time>2026-08-27T18:28:30Z</time>
  <course>305.53</course>
  <speed>6.010407640085654</speed>
  <fix>3d</fix>
</trkpt>
<trkpt lat="40.0727265" lon="-105.2303653">
  <ele>1617.07</ele>
  <time>2026-08-27T18:28:30Z</time>
  <course>305.23</course>
  <speed>6.0</speed>
  <fix>3d</fix>
</trkpt>
<trkpt lat="40.0727396" lon="-105.2303885">
  <ele>1617.21</ele>
  <time>2026-08-27T18:28:30Z</time>
  <course>306.57</course>
  <speed>6.012021290714131</speed>
  <fix>3d</fix>
</trkpt>
<trkpt lat="40.0727329" lon="-105.2303767">
  <ele>1617.08</ele>
  <time>2026-08-27T18:28:30Z</time>
  <course>306.19</course>
  <speed>6.02</speed>
  <fix>3d</fix>
</trkpt>
<trkpt lat="40.0727461" lon="-105.2303997">
  <ele>1617.21</ele>
  <time>2026-08-27T18:28:30Z</time>
  <course>307.47</course>
  <speed>5.982482762198316</speed>
  <fix>3d</fix>
</trkpt>
<trkpt lat="40.0727393" lon="-105.2303881">
  <ele>1617.09</ele>
  <time>2026-08-27T18:28:30Z</time>
  <course>307.04</course>
  <speed>6.02</speed>
  <fix>3d</fix>
</trkpt>
<trkpt lat="40.0727527" lon="-105.2304108">
  <ele>1617.21</ele>
  <time>2026-08-27T18:28:30Z</time>
  <course>308.22</course>
  <speed>5.925470445458318</speed>
  <fix>3d</fix>
</trkpt>
<trkpt lat="40.0727459" lon="-105.2303994">
  <ele>1617.1</ele>
  <time>2026-08-27T18:28:30Z</time>
  <course>307.75</course>
  <speed>6.0</speed>
  <fix>3d</fix>
</trkpt>
<trkpt lat="40.0727593" lon="-105.2304216">
  <ele>1617.21</ele>
  <time>2026-08-27T18:28:30Z</time>
  <course>308.81</course>
  <speed>5.864349921346782</speed>
  <fix>3d</fix>
</trkpt>
<trkpt lat="40.0727525" lon="-105.2304104">
  <ele>1617.1</ele>
  <time>2026-08-27T18:28:30Z</time>
  <course>308.32</course>
  <speed>5.95</speed>
  <fix>3d</fix>
</trkpt>
<trkpt lat="40.0727658" lon="-105.2304323">
  <ele>1617.2</ele>
  <time>2026-08-27T18:28:30Z</time>
  <course>309.13</course>
  <speed>5.798732620150718</speed>
  <fix>3d</fix>
</trkpt>
<trkpt lat="40.0727591" lon="-105.2304213">
  <ele>1617.11</ele>
  <time>2026-08-27T18:28:30Z</time>
  <course>308.72</course>
  <speed>5.88</speed>
  <fix>3d</fix>
</trkpt>
<trkpt lat="40.0727724" lon="-105.2304429">
  <ele>1617.19</ele>
  <time>2026-08-27T18:28:30Z</time>
  <course>309.2</course>
  <speed>5.740949398836397</speed>
  <fix>3d</fix>
</trkpt>
<trkpt lat="40.0727658" lon="-105.2304321">
  <ele>1617.11</ele>
  <time>2026-08-27T18:28:30Z</time>
  <course>308.97</course>
  <speed>5.81</speed>
  <fix>3d</fix>
</trkpt>
<trkpt lat="40.0727788" lon="-105.2304534">
  <ele>1617.19</ele>
  <time>2026-08-27T18:28:30Z</time>
  <course>309.1</course>
  <speed>5.686308116871614</speed>
  <fix>3d</fix>
</trkpt>
<trkpt lat="40.0727723" lon="-105.2304426">
  <ele>1617.1</ele>
  <time>2026-08-27T18:28:30Z</time>
  <course>309.05</course>
  <speed>5.75</speed>
  <fix>3d</fix>
</trkpt>
<trkpt lat="40.0727852" lon="-105.2304638">
  <ele>1617.18</ele>
  <time>2026-08-27T18:28:30Z</time>
  <course>308.84</course>
  <speed>5.6115060367070795</speed>
  <fix>3d</fix>
</trkpt>
<trkpt lat="40.0727787" lon="-105.2304531">
  <ele>1617.09</ele>
  <time>2026-08-27T18:28:30Z</time>
  <course>308.93</course>
  <speed>5.69</speed>
  <fix>3d</fix>
</trkpt>
<trkpt lat="40.0727913" lon="-105.230474">
  <ele>1617.19</ele>
  <time>2026-08-27T18:28:30Z</time>
  <course>308.44</course>
  <speed>5.504470910087544</speed>
  <fix>3d</fix>
</trkpt>
<trkpt lat="40.0727851" lon="-105.2304634">
  <ele>1617.09</ele>
  <time>2026-08-27T18:28:30Z</time>
  <course>308.61</course>
  <speed>5.61</speed>
  <fix>3d</fix>
</trkpt>
<trkpt lat="40.0727973" lon="-105.2304841">
  <ele>1617.2</ele>
  <time>2026-08-27T18:28:30Z</time>
  <course>307.98</course>
  <speed>5.348018324575936</speed>
  <fix>3d</fix>
</trkpt>
<trkpt lat="40.0727913" lon="-105.2304736">
  <ele>1617.09</ele>
  <time>2026-08-27T18:28:30Z</time>
  <course>308.12</course>
  <speed>5.51</speed>
  <fix>3d</fix>
</trkpt>
<trkpt lat="40.072803" lon="-105.2304939">
  <ele>1617.21</ele>
  <time>2026-08-27T18:28:30Z</time>
  <course>307.47</course>
  <speed>5.17228189487</speed>
  <fix>3d</fix>
</trkpt>
<trkpt lat="40.0727973" lon="-105.2304836">
  <ele>1617.09</ele>
  <time>2026-08-27T18:28:30Z</time>
  <course>307.51</course>
  <speed>5.36</speed>
  <fix>3d</fix>
</trkpt>
<trkpt lat="40.0728084" lon="-105.2305036">
  <ele>1617.22</ele>
  <time>2026-08-27T18:28:30Z</time>
  <course>306.92</course>
  <speed>4.95913298873906</speed>
  <fix>3d</fix>
</trkpt>
<trkpt lat="40.0728031" lon="-105.2304935">
  <ele>1617.1</ele>
  <time>2026-08-27T18:28:30Z</time>
  <course>306.85</course>
  <speed>5.18</speed>
  <fix>3d</fix>
</trkpt>
<trkpt lat="40.0728135" lon="-105.2305128">
  <ele>1617.22</ele>
  <time>2026-08-27T18:28:30Z</time>
  <course>306.35</course>
  <speed>4.710583827934707</speed>
  <fix>3d</fix>
</trkpt>
<trkpt lat="40.0728085" lon="-105.2305031">
  <ele>1617.11</ele>
  <time>2026-08-27T18:28:30Z</time>
  <course>306.16</course>
  <speed>4.97</speed>
  <fix>3d</fix>
</trkpt>
<trkpt lat="40.0728183" lon="-105.2305217">
  <ele>1617.22</ele>
  <time>2026-08-27T18:28:30Z</time>
  <course>305.71</course>
  <speed>4.42108583947428</speed>
  <fix>3d</fix>
</trkpt>
<trkpt lat="40.0728136" lon="-105.2305124">
  <ele>1617.11</ele>
  <time>2026-08-27T18:28:30Z</time>
  <course>305.44</course>
  <speed>4.73</speed>
  <fix>3d</fix>
</trkpt>
<trkpt lat="40.0728226" lon="-105.23053">
  <ele>1617.21</ele>
  <time>2026-08-27T18:28:30Z</time>
  <course>305.02</course>
  <speed>4.10212140239657</speed>
  <fix>3d</fix>
</trkpt>
<trkpt lat="40.0728184" lon="-105.2305212">
  <ele>1617.12</ele>
  <time>2026-08-27T18:28:30Z</time>
  <course>304.69</course>
  <speed>4.45</speed>
  <fix>3d</fix>
</trkpt>
<trkpt lat="40.0728265" lon="-105.2305377">
  <ele>1617.21</ele>
  <time>2026-08-27T18:28:30Z</time>
  <course>304.22</course>
  <speed>3.7366562592778054</speed>
  <fix>3d</fix>
</trkpt>
<trkpt lat="40.0728227" lon="-105.2305296">
  <ele>1617.12</ele>
  <time>2026-08-27T18:28:30Z</time>
  <course>303.9</course>
  <speed>4.13</speed>
  <fix>3d</fix>
</trkpt>
<trkpt lat="40.07283" lon="-105.2305447">
  <ele>1617.2</ele>
  <time>2026-08-27T18:28:30Z</time>
  <course>303.36</course>
  <speed>3.330645583066442</speed>
  <fix>3d</fix>
</trkpt>
<trkpt lat="40.0728266" lon="-105.2305374">
  <ele>1617.12</ele>
  <time>2026-08-27T18:28:30Z</time>
  <course>303.05</course>
  <speed>3.77</speed>
  <fix>3d</fix>
</trkpt>
<trkpt lat="40.0728329" lon="-105.230551">
  <ele>1617.2</ele>
  <time>2026-08-27T18:28:30Z</time>
  <course>302.38</course>
  <speed>2.886468430452687</speed>
  <fix>3d</fix>
</trkpt>
<trkpt lat="40.0728301" lon="-105.2305444">
  <ele>1617.11</ele>
  <time>2026-08-27T18:28:30Z</time>
  <course>302.14</course>
  <speed>3.36</speed>
  <fix>3d</fix>
</trkpt>
<trkpt lat="40.0728354" lon="-105.2305564">
  <ele>1617.19</ele>
  <time>2026-08-27T18:28:30Z</time>
  <course>301.2</course>
  <speed>2.4262728618191316</speed>
  <fix>3d</fix>
</trkpt>
<trkpt lat="40.0728331" lon="-105.2305507">
  <ele>1617.11</ele>
  <time>2026-08-27T18:28:30Z</time>
  <course>301.12</course>
  <speed>2.93</speed>
  <fix>3d</fix>
</trkpt>
<trkpt lat="40.0728373" lon="-105.2305609">
  <ele>1617.18</ele>
  <time>2026-08-27T18:28:30Z</time>
  <course>299.81</course>
  <speed>1.9770938268074179</speed>
  <fix>3d</fix>
</trkpt>
<trkpt lat="40.0728356" lon="-105.2305562">
  <ele>1617.1</ele>
  <time>2026-08-27T18:28:30Z</time>
  <course>299.97</course>
  <speed>2.47</speed>
  <fix>3d</fix>
</trkpt>
<trkpt lat="40.0728388" lon="-105.2305646">
  <ele>1617.17</ele>
  <time>2026-08-27T18:28:30Z</time>
  <course>298.13</course>
  <speed>1.5474172029546525</speed>
  <fix>3d</fix>
</trkpt>
<trkpt lat="40.0728375" lon="-105.2305607">
  <ele>1617.09</ele>
  <time>2026-08-27T18:28:30Z</time>
  <course>298.67</course>
  <speed>2.01</speed>
  <fix>3d</fix>
</trkpt>
<trkpt lat="40.0728399" lon="-105.2305675">
  <ele>1617.15</ele>
  <time>2026-08-27T18:28:31Z</time>
  <course>296.19</course>
  <speed>1.172731853408954</speed>
  <fix>3d</fix>
</trkpt>
<trkpt lat="40.072839" lon="-105.2305645">
  <ele>1617.08</ele>
  <time>2026-08-27T18:28:31Z</time>
  <course>297.15</course>
  <speed>1.58</speed>
  <fix>3d</fix>
</trkpt>
<trkpt lat="40.0728407" lon="-105.2305697">
  <ele>1617.14</ele>
  <time>2026-08-27T18:28:31Z</time>
  <course>293.88</course>
  <speed>0.8616263691415206</speed>
  <fix>3d</fix>
</trkpt>
<trkpt lat="40.0728401" lon="-105.2305674">
  <ele>1617.07</ele>
  <time>2026-08-27T18:28:31Z</time>
  <course>295.33</course>
  <speed>1.2</speed>
  <fix>3d</fix>
</trkpt>
<trkpt lat="40.0728412" lon="-105.2305713">
  <ele>1617.13</ele>
  <time>2026-08-27T18:28:31Z</time>
  <course>293.6</course>
  <speed>0.5948108943185221</speed>
  <fix>3d</fix>
</trkpt>
<trkpt lat="40.0728409" lon="-105.2305696">
  <ele>1617.05</ele>
  <time>2026-08-27T18:28:31Z</time>
  <course>292.66</course>
  <speed>0.87</speed>
  <fix>3d</fix>
</trkpt>
<trkpt lat="40.0728414" lon="-105.2305724">
  <ele>1617.13</ele>
  <time>2026-08-27T18:28:31Z</time>
  <course>293.61</course>
  <speed>0.396232255123179</speed>
  <fix>3d</fix>
</trkpt>
<trkpt lat="40.0728414" lon="-105.2305712">
  <ele>1617.03</ele>
  <time>2026-08-27T18:28:31Z</time>
  <course>288.42</course>
  <speed>0.6</speed>
  <fix>3d</fix>
</trkpt>
<trkpt lat="40.0728415" lon="-105.2305731">
  <ele>1617.12</ele>
  <time>2026-08-27T18:28:31Z</time>
  <course>293.56</course>
  <speed>0.24</speed>
  <fix>3d</fix>
</trkpt>
<trkpt lat="40.0728416" lon="-105.2305723">
  <ele>1617.02</ele>
  <time>2026-08-27T18:28:31Z</time>
  <course>281.86</course>
  <speed>0.38</speed>
  <fix>3d</fix>
</trkpt>
<trkpt lat="40.0728415" lon="-105.2305735">
  <ele>1617.12</ele>
  <time>2026-08-27T18:28:31Z</time>
  <course>293.5</course>
  <speed>0.14560219778561037</speed>
  <fix>3d</fix>
</trkpt>
<trkpt lat="40.0728417" lon="-105.230573">
  <ele>1617.02</ele>
  <time>2026-08-27T18:28:31Z</time>
  <course>269.84</course>
  <speed>0.22</speed>
  <fix>3d</fix>
</trkpt>
<trkpt lat="40.0728414" lon="-105.2305737">
  <ele>1617.11</ele>
  <time>2026-08-27T18:28:31Z</time>
  <course>293.45</course>
  <speed>0.09899494936611665</speed>
  <fix>3d</fix>
</trkpt>
<trkpt lat="40.0728416" lon="-105.2305734">
  <ele>1617.02</ele>
  <time>2026-08-27T18:28:31Z</time>
  <course>244.96</course>
  <speed>0.13</speed>
  <fix>3d</fix>
</trkpt>
<trkpt lat="40.0728414" lon="-105.2305738">
  <ele>1617.12</ele>
  <time>2026-08-27T18:28:31Z</time>
  <course>293.44</course>
  <speed>0.07615773105863909</speed>
  <fix>3d</fix>
</trkpt>
<trkpt lat="40.0728415" lon="-105.2305736">
  <ele>1617.02</ele>
  <time>2026-08-27T18:28:31Z</time>
  <course>209.02</course>
  <speed>0.1</speed>
  <fix>3d</fix>
</trkpt>
<trkpt lat="40.0728412" lon="-105.2305738">
  <ele>1617.12</ele>
  <time>2026-08-27T18:28:31Z</time>
  <course>293.38</course>
  <speed>0.0670820393249937</speed>
  <fix>3d</fix>
</trkpt>
<trkpt lat="40.0728414" lon="-105.2305736">
  <ele>1617.02</ele>
  <time>2026-08-27T18:28:31Z</time>
  <course>187.44</course>
  <speed>0.1</speed>
  <fix>3d</fix>
</trkpt>
<trkpt lat="40.0728411" lon="-105.2305739">
  <ele>1617.13</ele>
  <time>2026-08-27T18:28:31Z</time>
  <course>293.37</course>
  <speed>0.06403124237432849</speed>
  <fix>3d</fix>
</trkpt>
<trkpt lat="40.0728412" lon="-105.2305736">
  <ele>1617.03</ele>
  <time>2026-08-27T18:28:31Z</time>
  <course>184.73</course>
  <speed>0.09</speed>
  <fix>3d</fix>
</trkpt>
<trkpt lat="40.072841" lon="-105.230574">
  <ele>1617.14</ele>
  <time>2026-08-27T18:28:31Z</time>
  <course>293.33</course>
  <speed>0.09</speed>
  <fix>3d</fix>
</trkpt>
<trkpt lat="40.0728411" lon="-105.2305737">
  <ele>1617.04</ele>
  <time>2026-08-27T18:28:31Z</time>
  <course>202.28</course>
  <speed>0.07</speed>
  <fix>3d</fix>
</trkpt>
<trkpt lat="40.072841" lon="-105.2305742">
  <ele>1617.15</ele>
  <time>2026-08-27T18:28:31Z</time>
  <course>293.3</course>
  <speed>0.14317821063276354</speed>
  <fix>3d</fix>
</trkpt>
<trkpt lat="40.0728409" lon="-105.2305739">
  <ele>1617.04</ele>
  <time>2026-08-27T18:28:31Z</time>
  <course>242.88</course>
  <speed>0.08</speed>
  <fix>3d</fix>
</trkpt>
<trkpt lat="40.072841" lon="-105.2305746">
  <ele>1617.15</ele>
  <time>2026-08-27T18:28:31Z</time>
  <course>297.15</course>
  <speed>0.22090722034374521</speed>
  <fix>3d</fix>
</trkpt>
<trkpt lat="40.0728409" lon="-105.2305741">
  <ele>1617.05</ele>
  <time>2026-08-27T18:28:31Z</time>
  <course>271.49</course>
  <speed>0.12</speed>
  <fix>3d</fix>
</trkpt>
<trkpt lat="40.072841" lon="-105.2305751">
  <ele>1617.15</ele>
  <time>2026-08-27T18:28:31Z</time>
  <course>311.27</course>
  <speed>0.27892651361962706</speed>
  <fix>3d</fix>
</trkpt>
<trkpt lat="40.0728409" lon="-105.2305745">
  <ele>1617.05</ele>
  <time>2026-08-27T18:28:31Z</time>
  <course>273.92</course>
  <speed>0.2</speed>
  <fix>3d</fix>
</trkpt>
<trkpt lat="40.0728412" lon="-105.2305758">
  <ele>1617.15</ele>
  <time>2026-08-27T18:28:31Z</time>
  <course>323.53</course>
  <speed>0.3361547262794322</speed>
  <fix>3d</fix>
</trkpt>
<trkpt lat="40.0728409" lon="-105.2305751">
  <ele>1617.06</ele>
  <time>2026-08-27T18:28:31Z</time>
  <course>277.77</course>
  <speed>0.27</speed>
  <fix>3d</fix>
</trkpt>
<trkpt lat="40.0728414" lon="-105.2305766">
  <ele>1617.15</ele>
  <time>2026-08-27T18:28:31Z</time>
  <course>335.67</course>
  <speed>0.3944616584663204</speed>
  <fix>3d</fix>
</trkpt>
<trkpt lat="40.072841" lon="-105.2305757">
  <ele>1617.06</ele>
  <time>2026-08-27T18:28:31Z</time>
  <course>287.69</course>
  <speed>0.33</speed>
  <fix>3d</fix>
</trkpt>
<trkpt lat="40.0728418" lon="-105.2305774">
  <ele>1617.15</ele>
  <time>2026-08-27T18:28:31Z</time>
  <course>347.74</course>
  <speed>0.4440720662234904</speed>
  <fix>3d</fix>
</trkpt>
<trkpt lat="40.0728412" lon="-105.2305765">
  <ele>1617.06</ele>
  <time>2026-08-27T18:28:31Z</time>
  <course>294.53</course>
  <speed>0.39</speed>
  <fix>3d</fix>
</trkpt>
<trkpt lat="40.0728422" lon="-105.2305783">
  <ele>1617.15</ele>
  <time>2026-08-27T18:28:31Z</time>
  <course>359.82</course>
  <speed>0.4675467891024384</speed>
  <fix>3d</fix>
</trkpt>
<trkpt lat="40.0728416" lon="-105.2305774">
  <ele>1617.06</ele>
  <time>2026-08-27T18:28:31Z</time>
  <course>300.27</course>
  <speed>0.44</speed>
  <fix>3d</fix>
</trkpt>
<trkpt lat="40.0728428" lon="-105.2305791">
  <ele>1617.15</ele>
  <time>2026-08-27T18:28:31Z</time>
  <course>11.48</course>
  <speed>0.47507894080878815</speed>
  <fix>3d</fix>
</trkpt>
<trkpt lat="40.072842" lon="-105.2305783">
  <ele>1617.06</ele>
  <time>2026-08-27T18:28:31Z</time>
  <course>305.82</course>
  <speed>0.47</speed>
  <fix>3d</fix>
</trkpt>
<trkpt lat="40.0728434" lon="-105.2305797">
  <ele>1617.15</ele>
  <time>2026-08-27T18:28:31Z</time>
  <course>11.58</course>
  <speed>0.4304648650006177</speed>
  <fix>3d</fix>
</trkpt>
<trkpt lat="40.0728426" lon="-105.2305791">
  <ele>1617.06</ele>
  <time>2026-08-27T18:28:31Z</time>
  <course>313.38</course>
  <speed>0.46</speed>
  <fix>3d</fix>
</trkpt>
<trkpt lat="40.072844" lon="-105.2305802">
  <ele>1617.16</ele>
  <time>2026-08-27T18:28:31Z</time>
  <course>11.01</course>
  <speed>0.4204759208325728</speed>
  <fix>3d</fix>
</trkpt>
<trkpt lat="40.0728431" lon="-105.2305799">
  <ele>1617.06</ele>
  <time>2026-08-27T18:28:31Z</time>
  <course>321.77</course>
  <speed>0.44</speed>
  <fix>3d</fix>
</trkpt>
<trkpt lat="40.0728446" lon="-105.2305807">
  <ele>1617.16</ele>
  <time>2026-08-27T18:28:31Z</time>
  <course>10.93</course>
  <speed>0.3921734310225516</speed>
  <fix>3d</fix>
</trkpt>
<trkpt lat="40.0728438" lon="-105.2305805">
  <ele>1617.06</ele>
  <time>2026-08-27T18:28:31Z</time>
  <course>327.53</course>
  <speed>0.42</speed>
  <fix>3d</fix>
</trkpt>
<trkpt lat="40.0728452" lon="-105.230581">
  <ele>1617.17</ele>
  <time>2026-08-27T18:28:31Z</time>
  <course>10.93</course>
  <speed>0.33734255586865997</speed>
  <fix>3d</fix>
</trkpt>
<trkpt lat="40.0728445" lon="-105.230581">
  <ele>1617.07</ele>
  <time>2026-08-27T18:28:31Z</time>
  <course>332.45</course>
  <speed>0.39</speed>
  <fix>3d</fix>
</trkpt>
<trkpt lat="40.0728457" lon="-105.2305812">
  <ele>1617.17</ele>
  <time>2026-08-27T18:28:31Z</time>
  <course>10.95</course>
  <speed>0.2906888370749727</speed>
  <fix>3d</fix>
</trkpt>
<trkpt lat="40.072845" lon="-105.2305813">
  <ele>1617.07</ele>
  <time>2026-08-27T18:28:31Z</time>
  <course>338.01</course>
  <speed>0.34</speed>
  <fix>3d</fix>
</trkpt>
<trkpt lat="40.0728462" lon="-105.2305813">
  <ele>1617.17</ele>
  <time>2026-08-27T18:28:31Z</time>
  <course>10.94</course>
  <speed>0.23194827009486402</speed>
  <fix>3d</fix>
</trkpt>
<trkpt lat="40.0728456" lon="-105.2305815">
  <ele>1617.07</ele>
  <time>2026-08-27T18:28:31Z</time>
  <course>345.47</course>
  <speed>0.28</speed>
  <fix>3d</fix>
</trkpt>
<trkpt lat="40.0728465" lon="-105.2305812">
  <ele>1617.16</ele>
  <time>2026-08-27T18:28:31Z</time>
  <course>10.92</course>
  <speed>0.19235384061671343</speed>
  <fix>3d</fix>
</trkpt>
<trkpt lat="40.072846" lon="-105.2305817">
  <ele>1617.07</ele>
  <time>2026-08-27T18:28:31Z</time>
  <course>356.78</course>
  <speed>0.22</speed>
  <fix>3d</fix>
</trkpt>
<trkpt lat="40.0728467" lon="-105.2305811">
  <ele>1617.16</ele>
  <time>2026-08-27T18:28:31Z</time>
  <course>10.91</course>
  <speed>0.17204650534085253</speed>
  <fix>3d</fix>
</trkpt>
<trkpt lat="40.0728464" lon="-105.2305816">
  <ele>1617.06</ele>
  <time>2026-08-27T18:28:31Z</time>
  <course>15.37</course>
  <speed>0.16</speed>
  <fix>3d</fix>
</trkpt>
<trkpt lat="40.0728468" lon="-105.2305809">
  <ele>1617.15</ele>
  <time>2026-08-27T18:28:31Z</time>
  <course>10.91</course>
  <speed>0.1824828759089466</speed>
  <fix>3d</fix>
</trkpt>
<trkpt lat="40.0728466" lon="-105.2305815">
  <ele>1617.06</ele>
  <time>2026-08-27T18:28:31Z</time>
  <course>44.66</course>
  <speed>0.13</speed>
  <fix>3d</fix>
</trkpt>
<trkpt lat="40.0728468" lon="-105.2305805">
  <ele>1617.15</ele>
  <time>2026-08-27T18:28:31Z</time>
  <course>10.88</course>
  <speed>0.2109502310972899</speed>
  <fix>3d</fix>
</trkpt>
<trkpt lat="40.0728467" lon="-105.2305813">
  <ele>1617.06</ele>
  <time>2026-08-27T18:28:31Z</time>
  <course>77.12</course>
  <speed>0.14</speed>
  <fix>3d</fix>
</trkpt>
<trkpt lat="40.0728467" lon="-105.2305801">
  <ele>1617.14</ele>
  <time>2026-08-27T18:28:31Z</time>
  <course>10.85</course>
  <speed>0.2529822128134704</speed>
  <fix>3d</fix>
</trkpt>
<trkpt lat="40.0728468" lon="-105.2305808">
  <ele>1617.06</ele>
  <time>2026-08-27T18:28:31Z</time>
  <course>99.96</course>
  <speed>0.17</speed>
  <fix>3d</fix>
</trkpt>
<trkpt lat="40.0728465" lon="-105.2305796">
  <ele>1617.14</ele>
  <time>2026-08-27T18:28:31Z</time>
  <course>10.83</course>
  <speed>0.28178005607210743</speed>
  <fix>3d</fix>
</trkpt>
<trkpt lat="40.0728467" lon="-105.2305804">
  <ele>1617.06</ele>
  <time>2026-08-27T18:28:31Z</time>
  <course>113.62</course>
  <speed>0.22</speed>
  <fix>3d</fix>
</trkpt>
<trkpt lat="40.0728463" lon="-105.230579">
  <ele>1617.15</ele>
  <time>2026-08-27T18:28:31Z</time>
  <course>10.78</course>
  <speed>0.31064449134018135</speed>
  <fix>3d</fix>
</trkpt>
<trkpt lat="40.0728465" lon="-105.2305799">
  <ele>1617.06</ele>
  <time>2026-08-27T18:28:31Z</time>
  <course>122.13</course>
  <speed>0.26</speed>
  <fix>3d</fix>
</trkpt>
<trkpt lat="40.0728459" lon="-105.2305785">
  <ele>1617.16</ele>
  <time>2026-08-27T18:28:31Z</time>
  <course>10.82</course>
  <speed>0.3420526275297414</speed>
  <fix>3d</fix>
</trkpt>
<trkpt lat="40.0728462" lon="-105.2305794">
  <ele>1617.06</ele>
  <time>2026-08-27T18:28:31Z</time>
  <course>127.9</course>
  <speed>0.3</speed>
  <fix>3d</fix>
</trkpt>
<trkpt lat="40.0728455" lon="-105.2305779">
  <ele>1617.16</ele>
  <time>2026-08-27T18:28:31Z</time>
  <course>10.82</course>
  <speed>0.34713109915419565</speed>
  <fix>3d</fix>
</trkpt>
<trkpt lat="40.0728459" lon="-105.2305788">
  <ele>1617.06</ele>
  <time>2026-08-27T18:28:31Z</time>
  <course>132.25</course>
  <speed>0.32</speed>
  <fix>3d</fix>
</trkpt>
<trkpt lat="40.072845" lon="-105.2305774">
  <ele>1617.16</ele>
  <time>2026-08-27T18:28:31Z</time>
  <course>10.8</course>
  <speed>0.3535533905932738</speed>
  <fix>3d</fix>
</trkpt>
<trkpt lat="40.0728454" lon="-105.2305782">
  <ele>1617.06</ele>
  <time>2026-08-27T18:28:31Z</time>
  <course>135.71</course>
  <speed>0.34</speed>
  <fix>3d</fix>
</trkpt>
<trkpt lat="40.0728445" lon="-105.2305769">
  <ele>1617.16</ele>
  <time>2026-08-27T18:28:31Z</time>
  <course>10.78</course>
  <speed>0.3538361202590826</speed>
  <fix>3d</fix>
</trkpt>
<trkpt lat="40.072845" lon="-105.2305777">
  <ele>1617.06</ele>
  <time>2026-08-27T18:28:31Z</time>
  <course>138.6</course>
  <speed>0.35</speed>
  <fix>3d</fix>
</trkpt>
<trkpt lat="40.072844" lon="-105.2305764">
  <ele>1617.15</ele>
  <time>2026-08-27T18:28:31Z</time>
  <course>10.78</course>
  <speed>0.34058772731852804</speed>
  <fix>3d</fix>
</trkpt>
<trkpt lat="40.0728445" lon="-105.2305771">
  <ele>1617.06</ele>
  <time>2026-08-27T18:28:31Z</time>
  <course>141.13</course>
  <speed>0.35</speed>
  <fix>3d</fix>
</trkpt>
<trkpt lat="40.0728436" lon="-105.2305759">
  <ele>1617.15</ele>
  <time>2026-08-27T18:28:31Z</time>
  <course>10.78</course>
  <speed>0.32015621187164245</speed>
  <fix>3d</fix>
</trkpt>
<trkpt lat="40.072844" lon="-105.2305766">
  <ele>1617.06</ele>
  <time>2026-08-27T18:28:31Z</time>
  <course>143.41</course>
  <speed>0.34</speed>
  <fix>3d</fix>
</trkpt>
<trkpt lat="40.0728431" lon="-105.2305756">
  <ele>1617.13</ele>
  <time>2026-08-27T18:28:31Z</time>
  <course>11.11</course>
  <speed>0.29410882339705485</speed>
  <fix>3d</fix>
</trkpt>
<trkpt lat="40.0728435" lon="-105.2305762">
  <ele>1617.06</ele>
  <time>2026-08-27T18:28:31Z</time>
  <course>145.58</course>
  <speed>0.32</speed>
  <fix>3d</fix>
</trkpt>
<trkpt lat="40.0728427" lon="-105.2305752">
  <ele>1617.08</ele>
  <time>2026-08-27T18:28:31Z</time>
  <course>11.47</course>
  <speed>0.266270539113887</speed>
  <fix>3d</fix>
</trkpt>
<trkpt lat="40.072843" lon="-105.2305758">
  <ele>1617.05</ele>
  <time>2026-08-27T18:28:31Z</time>
  <course>147.69</course>
  <speed>0.29</speed>
  <fix>3d</fix>
</trkpt>
<trkpt lat="40.0728423" lon="-105.230575">
  <ele>1616.99</ele>
  <time>2026-08-27T18:28:31Z</time>
  <course>11.78</course>
  <speed>0.23021728866442676</speed>
  <fix>3d</fix>
</trkpt>
<trkpt lat="40.0728426" lon="-105.2305754">
  <ele>1617.0</ele>
  <time>2026-08-27T18:28:31Z</time>
  <course>149.42</course>
  <speed>0.26</speed>
  <fix>3d</fix>
</trkpt>
<trkpt lat="40.0728419" lon="-105.2305747">
  <ele>1616.86</ele>
  <time>2026-08-27T18:28:31Z</time>
  <course>12.06</course>
  <speed>0.20248456731316586</speed>
  <fix>3d</fix>
</trkpt>
<trkpt lat="40.0728422" lon="-105.2305752">
  <ele>1616.91</ele>
  <time>2026-08-27T18:28:31Z</time>
  <course>150.62</course>
  <speed>0.23</speed>
  <fix>3d</fix>
</trkpt>
<trkpt lat="40.0728416" lon="-105.2305745">
  <ele>1616.68</ele>
  <time>2026-08-27T18:28:31Z</time>
  <course>12.31</course>
  <speed>0.1664331697709324</speed>
  <fix>3d</fix>
</trkpt>
<trkpt lat="40.0728419" lon="-105.2305749">
  <ele>1616.79</ele>
  <time>2026-08-27T18:28:31Z</time>
  <course>151.21</course>
  <speed>0.2</speed>
  <fix>3d</fix>
</trkpt>
<trkpt lat="40.0728414" lon="-105.2305744">
  <ele>1616.45</ele>
  <time>2026-08-27T18:28:31Z</time>
  <course>12.54</course>
  <speed>0.13601470508735444</speed>
  <fix>3d</fix>
</trkpt>
<trkpt lat="40.0728415" lon="-105.2305747">
  <ele>1616.62</ele>
  <time>2026-08-27T18:28:31Z</time>
  <course>151.03</course>
  <speed>0.16</speed>
  <fix>3d</fix>
</trkpt>
<trkpt lat="40.0728412" lon="-105.2305742">
  <ele>1616.17</ele>
  <time>2026-08-27T18:28:31Z</time>
  <course>12.71</course>
  <speed>0.1063014581273465</speed>
  <fix>3d</fix>
</trkpt>
<trkpt lat="40.0728414" lon="-105.2305745">
  <ele>1616.41</ele>
  <time>2026-08-27T18:28:31Z</time>
  <course>149.73</course>
  <speed>0.13</speed>
  <fix>3d</fix>
</trkpt>
<trkpt lat="40.0728411" lon="-105.2305741">
  <ele>1615.86</ele>
  <time>2026-08-27T18:28:31Z</time>
  <course>12.67</course>
  <speed>0.07810249675906654</speed>
  <fix>3d</fix>
</trkpt>
<trkpt lat="40.0728412" lon="-105.2305744">
  <ele>1616.14</ele>
  <time>2026-08-27T18:28:31Z</time>
  <course>146.22</course>
  <speed>0.09</speed>
  <fix>3d</fix>
</trkpt>
<trkpt lat="40.072841" lon="-105.230574">
  <ele>1615.54</ele>
  <time>2026-08-27T18:28:31Z</time>
  <course>12.57</course>
  <speed>0.044721359549995794</speed>
  <fix>3d</fix>
</trkpt>
<trkpt lat="40.072841" lon="-105.2305742">
  <ele>1615.84</ele>
  <time>2026-08-27T18:28:31Z</time>
  <course>137.99</course>
  <speed>0.06</speed>
  <fix>3d</fix>
</trkpt>
<trkpt lat="40.072841" lon="-105.230574">
  <ele>1615.21</ele>
  <time>2026-08-27T18:28:31Z</time>
  <course>12.45</course>
  <speed>0.03</speed>
  <fix>3d</fix>
</trkpt>
<trkpt lat="40.0728409" lon="-105.2305741">
  <ele>1615.53</ele>
  <time>2026-08-27T18:28:31Z</time>
  <course>117.35</course>
  <speed>0.03</speed>
  <fix>3d</fix>
</trkpt>
<trkpt lat="40.072841" lon="-105.2305739">
  <ele>1614.88</ele>
  <time>2026-08-27T18:28:31Z</time>
  <course>12.35</course>
  <speed>0.0282842712474619</speed>
  <fix>3d</fix>
</trkpt>
<trkpt lat="40.0728409" lon="-105.2305741">
  <ele>1615.21</ele>
  <time>2026-08-27T18:28:31Z</time>
  <course>63.89</course>
  <speed>0.02</speed>
  <fix>3d</fix>
</trkpt>
<trkpt lat="40.072841" lon="-105.2305739">
  <ele>1614.57</ele>
  <time>2026-08-27T18:28:31Z</time>
  <course>12.26</course>
  <speed>0.0412310562561766</speed>
  <fix>3d</fix>
</trkpt>
<trkpt lat="40.0728409" lon="-105.2305741">
  <ele>1614.89</ele>
  <time>2026-08-27T18:28:31Z</time>
  <course>17.78</course>
  <speed>0.03</speed>
  <fix>3d</fix>
</trkpt>
<trkpt lat="40.0728411" lon="-105.2305739">
  <ele>1614.26</ele>
  <time>2026-08-27T18:28:31Z</time>
  <course>12.19</course>
  <speed>0.05</speed>
  <fix>3d</fix>
</trkpt>
<trkpt lat="40.072841" lon="-105.2305741">
  <ele>1614.57</ele>
  <time>2026-08-27T18:28:31Z</time>
  <course>0.11</course>
  <speed>0.05</speed>
  <fix>3d</fix>
</trkpt>
<trkpt lat="40.0728412" lon="-105.230574">
  <ele>1613.95</ele>
  <time>2026-08-27T18:28:31Z</time>
  <course>12.16</course>
  <speed>0.06</speed>
  <fix>3d</fix>
</trkpt>
<trkpt lat="40.0728411" lon="-105.2305741">
  <ele>1614.25</ele>
  <time>2026-08-27T18:28:31Z</time>
  <course>352.0</course>
  <speed>0.07</speed>
  <fix>3d</fix>
</trkpt>
<trkpt lat="40.0728414" lon="-105.230574">
  <ele>1613.64</ele>
  <time>2026-08-27T18:28:31Z</time>
  <course>12.12</course>
  <speed>0.07071067811865475</speed>
  <fix>3d</fix>
</trkpt>
<trkpt lat="40.0728413" lon="-105.2305741">
  <ele>1613.95</ele>
  <time>2026-08-27T18:28:31Z</time>
  <course>347.61</course>
  <speed>0.09</speed>
  <fix>3d</fix>
</trkpt>
<trkpt lat="40.0728415" lon="-105.230574">
  <ele>1613.33</ele>
  <time>2026-08-27T18:28:31Z</time>
  <course>12.08</course>
  <speed>0.07280109889280519</speed>
  <fix>3d</fix>
</trkpt>
<trkpt lat="40.0728414" lon="-105.2305741">
  <ele>1613.64</ele>
  <time>2026-08-27T18:28:31Z</time>
  <course>344.7</course>
  <speed>0.1</speed>
  <fix>3d</fix>
</trkpt>
<trkpt lat="40.0728417" lon="-105.2305741">
  <ele>1613.03</ele>
  <time>2026-08-27T18:28:31Z</time>
  <course>12.06</course>
  <speed>0.07280109889280519</speed>
  <fix>3d</fix>
</trkpt>
<trkpt lat="40.0728417" lon="-105.2305741">
  <ele>1613.34</ele>
  <time>2026-08-27T18:28:31Z</time>
  <course>342.29</course>
  <speed>0.11</speed>
  <fix>3d</fix>
</trkpt>
<trkpt lat="40.0728419" lon="-105.2305742">
  <ele>1612.73</ele>
  <time>2026-08-27T18:28:31Z</time>
  <course>12.02</course>
  <speed>0.07280109889280519</speed>
  <fix>3d</fix>
</trkpt>
<trkpt lat="40.0728419" lon="-105.2305742">
  <ele>1613.04</ele>
  <time>2026-08-27T18:28:31Z</time>
  <course>340.14</course>
  <speed>0.11</speed>
  <fix>3d</fix>
</trkpt>
<trkpt lat="40.072842" lon="-105.2305743">
  <ele>1612.43</ele>
  <time>2026-08-27T18:28:31Z</time>
  <course>11.99</course>
  <speed>0.0670820393249937</speed>
  <fix>3d</fix>
</trkpt>
<trkpt lat="40.0728421" lon="-105.2305743">
  <ele>1612.74</ele>
  <time>2026-08-27T18:28:31Z</time>
  <course>337.99</course>
  <speed>0.11</speed>
  <fix>3d</fix>
</trkpt>
<trkpt lat="40.0728422" lon="-105.2305744">
  <ele>1612.13</ele>
  <time>2026-08-27T18:28:31Z</time>
  <course>11.97</course>
  <speed>0.05830951894845301</speed>
  <fix>3d</fix>
</trkpt>
<trkpt lat="40.0728422" lon="-105.2305744">
  <ele>1612.45</ele>
  <time>2026-08-27T18:28:31Z</time>
  <course>335.77</course>
  <speed>0.11</speed>
  <fix>3d</fix>
</trkpt>
<trkpt lat="40.0728423" lon="-105.2305745">
  <ele>1611.83</ele>
  <time>2026-08-27T18:28:31Z</time>
  <course>11.92</course>
  <speed>0.05</speed>
  <fix>3d</fix>
</trkpt>
<trkpt lat="40.0728424" lon="-105.2305745">
  <ele>1612.15</ele>
  <time>2026-08-27T18:28:31Z</time>
  <course>333.53</course>
  <speed>0.1</speed>
  <fix>3d</fix>
</trkpt>
<trkpt lat="40.0728425" lon="-105.2305746">
  <ele>1611.53</ele>
  <time>2026-08-27T18:28:31Z</time>
  <course>11.92</course>
  <speed>0.04242640687119285</speed>
  <fix>3d</fix>
</trkpt>
<trkpt lat="40.0728425" lon="-105.2305746">
  <ele>1611.85</ele>
  <time>2026-08-27T18:28:31Z</time>
  <course>330.84</course>
  <speed>0.09</speed>
  <fix>3d</fix>
</trkpt>
<trkpt lat="40.0728426" lon="-105.2305747">
  <ele>1611.24</ele>
  <time>2026-08-27T18:28:31Z</time>
  <course>11.89</course>
  <speed>0.022360679774997897</speed>
  <fix>3d</fix>
</trkpt>
<trkpt lat="40.0728426" lon="-105.2305747">
  <ele>1611.56</ele>
  <time>2026-08-27T18:28:31Z</time>
  <course>327.72</course>
  <speed>0.08</speed>
  <fix>3d</fix>
</trkpt>
<trkpt lat="40.0728426" lon="-105.2305748">
  <ele>1610.95</ele>
  <time>2026-08-27T18:28:31Z</time>
  <course>11.86</course>
  <speed>0.02</speed>
  <fix>3d</fix>
</trkpt>
<trkpt lat="40.0728428" lon="-105.2305748">
  <ele>1611.26</ele>
  <time>2026-08-27T18:28:31Z</time>
  <course>324.09</course>
  <speed>0.07</speed>
  <fix>3d</fix>
</trkpt>
<trkpt lat="40.0728427" lon="-105.2305748">
  <ele>1610.65</ele>
  <time>2026-08-27T18:28:31Z</time>
  <course>11.83</course>
  <speed>0.02</speed>
  <fix>3d</fix>
</trkpt>
<trkpt lat="40.0728429" lon="-105.2305749">
  <ele>1610.96</ele>
  <time>2026-08-27T18:28:31Z</time>
  <course>319.43</course>
  <speed>0.05</speed>
  <fix>3d</fix>
</trkpt>
<trkpt lat="40.0728427" lon="-105.2305749">
  <ele>1610.36</ele>
  <time>2026-08-27T18:28:31Z</time>
  <course>11.81</course>
  <speed>0.022360679774997897</speed>
  <fix>3d</fix>
</trkpt>
<trkpt lat="40.072843" lon="-105.230575">
  <ele>1610.66</ele>
  <time>2026-08-27T18:28:31Z</time>
  <course>312.38</course>
  <speed>0.04</speed>
  <fix>3d</fix>
</trkpt>
<trkpt lat="40.0728427" lon="-105.230575">
  <ele>1610.06</ele>
  <time>2026-08-27T18:28:31Z</time>
  <course>11.79</course>
  <speed>0.0316227766016838</speed>
  <fix>3d</fix>
</trkpt>
<trkpt lat="40.072843" lon="-105.2305751">
  <ele>1610.37</ele>
  <time>2026-08-27T18:28:31Z</time>
  <course>300.79</course>
  <speed>0.03</speed>
  <fix>3d</fix>
</trkpt>
<trkpt lat="40.0728427" lon="-105.230575">
  <ele>1609.75</ele>
  <time>2026-08-27T18:28:31Z</time>
  <course>11.76</course>
  <speed>0.04</speed>
  <fix>3d</fix>
</trkpt>
<trkpt lat="40.072843" lon="-105.2305751">
  <ele>1610.06</ele>
  <time>2026-08-27T18:28:31Z</time>
  <course>281.47</course>
  <speed>0.02</speed>
  <fix>3d</fix>
</trkpt>
<trkpt lat="40.0728427" lon="-105.2305751">
  <ele>1609.44</ele>
  <time>2026-08-27T18:28:31Z</time>
  <course>11.72</course>
  <speed>0.05</speed>
  <fix>3d</fix>
</trkpt>
<trkpt lat="40.072843" lon="-105.2305751">
  <ele>1609.76</ele>
  <time>2026-08-27T18:28:31Z</time>
  <course>251.78</course>
  <speed>0.02</speed>
  <fix>3d</fix>
</trkpt>
<trkpt lat="40.0728428" lon="-105.2305751">
  <ele>1609.14</ele>
  <time>2026-08-27T18:28:31Z</time>
  <course>11.68</course>
  <speed>0.06</speed>
  <fix>3d</fix>
</trkpt>
<trkpt lat="40.072843" lon="-105.2305752">
  <ele>1609.46</ele>
  <time>2026-08-27T18:28:31Z</time>
  <course>222.51</course>
  <speed>0.02</speed>
  <fix>3d</fix>
</trkpt>
<trkpt lat="40.0728427" lon="-105.2305751">
  <ele>1608.84</ele>
  <time>2026-08-27T18:28:31Z</time>
  <course>11.65</course>
  <speed>0.06</speed>
  <fix>3d</fix>
</trkpt>
<trkpt lat="40.072843" lon="-105.2305753">
  <ele>1609.16</ele>
  <time>2026-08-27T18:28:31Z</time>
  <course>203.01</course>
  <speed>0.02</speed>
  <fix>3d</fix>
</trkpt>
<trkpt lat="40.0728427" lon="-105.2305751">
  <ele>1608.53</ele>
  <time>2026-08-27T18:28:31Z</time>
  <course>11.62</course>
  <speed>0.07</speed>
  <fix>3d</fix>
</trkpt>
<trkpt lat="40.072843" lon="-105.2305753">
  <ele>1608.86</ele>
  <time>2026-08-27T18:28:31Z</time>
  <course>191.66</course>
  <speed>0.03</speed>
  <fix>3d</fix>
</trkpt>
<trkpt lat="40.0728426" lon="-105.2305751">
  <ele>1608.23</ele>
  <time>2026-08-27T18:28:31Z</time>
  <course>11.59</course>
  <speed>0.07</speed>
  <fix>3d</fix>
</trkpt>
<trkpt lat="40.0728429" lon="-105.2305753">
  <ele>1608.56</ele>
  <time>2026-08-27T18:28:31Z</time>
  <course>184.79</course>
  <speed>0.03</speed>
  <fix>3d</fix>
</trkpt>
<trkpt lat="40.0728425" lon="-105.2305751">
  <ele>1607.93</ele>
  <time>2026-08-27T18:28:31Z</time>
  <course>11.57</course>
  <speed>0.07071067811865475</speed>
  <fix>3d</fix>
</trkpt>
<trkpt lat="40.0728429" lon="-105.2305753">
  <ele>1608.26</ele>
  <time>2026-08-27T18:28:31Z</time>
  <course>180.44</course>
  <speed>0.04</speed>
  <fix>3d</fix>
</trkpt>
<trkpt lat="40.0728425" lon="-105.2305751">
  <ele>1607.63</ele>
  <time>2026-08-27T18:28:31Z</time>
  <course>11.55</course>
  <speed>0.07071067811865475</speed>
  <fix>3d</fix>
</trkpt>
<trkpt lat="40.0728428" lon="-105.2305753">
  <ele>1607.96</ele>
  <time>2026-08-27T18:28:31Z</time>
  <course>176.8</course>
  <speed>0.04</speed>
  <fix>3d</fix>
</trkpt>
<trkpt lat="40.0728424" lon="-105.2305751">
  <ele>1607.33</ele>
  <time>2026-08-27T18:28:31Z</time>
  <course>11.51</course>
  <speed>0.07071067811865475</speed>
  <fix>3d</fix>
</trkpt>
<trkpt lat="40.0728427" lon="-105.2305753">
  <ele>1607.66</ele>
  <time>2026-08-27T18:28:31Z</time>
  <course>172.87</course>
  <speed>0.04</speed>
  <fix>3d</fix>
</trkpt>
<trkpt lat="40.0728423" lon="-105.2305751">
  <ele>1607.04</ele>
  <time>2026-08-27T18:28:31Z</time>
  <course>11.49</course>
  <speed>0.07071067811865475</speed>
  <fix>3d</fix>
</trkpt>
<trkpt lat="40.0728426" lon="-105.2305753">
  <ele>1607.37</ele>
  <time>2026-08-27T18:28:31Z</time>
  <course>169.34</course>
  <speed>0.04</speed>
  <fix>3d</fix>
</trkpt>
<trkpt lat="40.0728423" lon="-105.2305751">
  <ele>1606.75</ele>
  <time>2026-08-27T18:28:31Z</time>
  <course>11.47</course>
  <speed>0.06082762530298219</speed>
  <fix>3d</fix>
</trkpt>
<trkpt lat="40.0728426" lon="-105.2305753">
  <ele>1607.07</ele>
  <time>2026-08-27T18:28:31Z</time>
  <course>166.5</course>
  <speed>0.04</speed>
  <fix>3d</fix>
</trkpt>
<trkpt lat="40.0728422" lon="-105.2305751">
  <ele>1606.45</ele>
  <time>2026-08-27T18:28:31Z</time>
  <course>11.46</course>
  <speed>0.06082762530298219</speed>
  <fix>3d</fix>
</trkpt>
<trkpt lat="40.0728425" lon="-105.2305753">
  <ele>1606.77</ele>
  <time>2026-08-27T18:28:31Z</time>
  <course>164.11</course>
  <speed>0.04</speed>
  <fix>3d</fix>
</trkpt>
<trkpt lat="40.0728422" lon="-105.2305751">
  <ele>1606.15</ele>
  <time>2026-08-27T18:28:31Z</time>
  <course>11.43</course>
  <speed>0.05099019513592785</speed>
  <fix>3d</fix>
</trkpt>
<trkpt lat="40.0728424" lon="-105.2305753">
  <ele>1606.48</ele>
  <time>2026-08-27T18:28:31Z</time>
  <course>161.8</course>
  <speed>0.03</speed>
  <fix>3d</fix>
</trkpt>
<trkpt lat="40.0728421" lon="-105.2305751">
  <ele>1605.85</ele>
  <time>2026-08-27T18:28:31Z</time>
  <course>11.41</course>
  <speed>0.05099019513592785</speed>
  <fix>3d</fix>
</trkpt>
<trkpt lat="40.0728424" lon="-105.2305753">
  <ele>1606.17</ele>
  <time>2026-08-27T18:28:31Z</time>
  <course>159.15</course>
  <speed>0.03</speed>
  <fix>3d</fix>
</trkpt>
<trkpt lat="40.0728421" lon="-105.2305751">
  <ele>1605.55</ele>
  <time>2026-08-27T18:28:31Z</time>
  <course>11.39</course>
  <speed>0.0412310562561766</speed>
  <fix>3d</fix>
</trkpt>
<trkpt lat="40.0728423" lon="-105.2305753">
  <ele>1605.88</ele>
  <time>2026-08-27T18:28:31Z</time>
  <course>155.56</course>
  <speed>0.02</speed>
  <fix>3d</fix>
</trkpt>
<trkpt lat="40.0728421" lon="-105.2305751">
  <ele>1605.25</ele>
  <time>2026-08-27T18:28:31Z</time>
  <course>11.37</course>
  <speed>0.0412310562561766</speed>
  <fix>3d</fix>
</trkpt>
<trkpt lat="40.0728423" lon="-105.2305752">
  <ele>1605.58</ele>
  <time>2026-08-27T18:28:31Z</time>
  <course>150.46</course>
  <speed>0.02</speed>
  <fix>3d</fix>
</trkpt>
<trkpt lat="40.072842" lon="-105.2305751">
  <ele>1604.94</ele>
  <time>2026-08-27T18:28:31Z</time>
  <course>11.35</course>
  <speed>0.0316227766016838</speed>
  <fix>3d</fix>
</trkpt>
<trkpt lat="40.0728423" lon="-105.2305751">
  <ele>1605.28</ele>
  <time>2026-08-27T18:28:31Z</time>
  <course>143.27</course>
  <speed>0.02</speed>
  <fix>3d</fix>
</trkpt>
<trkpt lat="40.072842" lon="-105.2305751">
  <ele>1604.64</ele>
  <time>2026-08-27T18:28:31Z</time>
  <course>11.33</course>
  <speed>0.0316227766016838</speed>
  <fix>3d</fix>
</trkpt>
<trkpt lat="40.0728422" lon="-105.2305751">
  <ele>1604.98</ele>
  <time>2026-08-27T18:28:31Z</time>
  <course>132.77</course>
  <speed>0.01</speed>
  <fix>3d</fix>
</trkpt>
<trkpt lat="40.072842" lon="-105.230575">
  <ele>1604.34</ele>
  <time>2026-08-27T18:28:31Z</time>
  <course>11.29</course>
  <speed>0.022360679774997897</speed>
  <fix>3d</fix>
</trkpt>
<trkpt lat="40.0728421" lon="-105.2305751">
  <ele>1604.67</ele>
  <time>2026-08-27T18:28:31Z</time>
  <course>119.89</course>
  <speed>0.01</speed>
  <fix>3d</fix>
</trkpt>
<trkpt lat="40.072842" lon="-105.230575">
  <ele>1604.03</ele>
  <time>2026-08-27T18:28:31Z</time>
  <course>11.28</course>
  <speed>0.022360679774997897</speed>
  <fix>3d</fix>
</trkpt>
<trkpt lat="40.0728421" lon="-105.2305751">
  <ele>1604.38</ele>
  <time>2026-08-27T18:28:31Z</time>
  <course>104.16</course>
  <speed>0.01</speed>
  <fix>3d</fix>
</trkpt>
<trkpt lat="40.072842" lon="-105.230575">
  <ele>1603.74</ele>
  <time>2026-08-27T18:28:31Z</time>
  <course>11.27</course>
  <speed>0.022360679774997897</speed>
  <fix>3d</fix>
</trkpt>
<trkpt lat="40.0728421" lon="-105.2305751">
  <ele>1604.08</ele>
  <time>2026-08-27T18:28:31Z</time>
  <course>82.95</course>
  <speed>0.0</speed>
  <fix>3d</fix>
</trkpt>
<trkpt lat="40.072842" lon="-105.230575">
  <ele>1603.44</ele>
  <time>2026-08-27T18:28:31Z</time>
  <course>11.25</course>
  <speed>0.022360679774997897</speed>
  <fix>3d</fix>
</trkpt>
<trkpt lat="40.0728421" lon="-105.2305751">
  <ele>1603.78</ele>
  <time>2026-08-27T18:28:31Z</time>
  <course>61.88</course>
  <speed>0.0</speed>
  <fix>3d</fix>
</trkpt>
<trkpt lat="40.072842" lon="-105.230575">
  <ele>1603.14</ele>
  <time>2026-08-27T18:28:31Z</time>
  <course>11.24</course>
  <speed>0.01414213562373095</speed>
  <fix>3d</fix>
</trkpt>
<trkpt lat="40.0728421" lon="-105.2305751">
  <ele>1603.48</ele>
  <time>2026-08-27T18:28:31Z</time>
  <course>45.08</course>
  <speed>0.01</speed>
  <fix>3d</fix>
</trkpt>
<trkpt lat="40.072842" lon="-105.230575">
  <ele>1602.84</ele>
  <time>2026-08-27T18:28:31Z</time>
  <course>11.22</course>
  <speed>0.01414213562373095</speed>
  <fix>3d</fix>
</trkpt>
<trkpt lat="40.0728421" lon="-105.230575">
  <ele>1603.19</ele>
  <time>2026-08-27T18:28:31Z</time>
  <course>32.53</course>
  <speed>0.01</speed>
  <fix>3d</fix>
</trkpt>
<trkpt lat="40.072842" lon="-105.230575">
  <ele>1602.54</ele>
  <time>2026-08-27T18:28:31Z</time>
  <course>11.2</course>
  <speed>0.01414213562373095</speed>
  <fix>3d</fix>
</trkpt>
<trkpt lat="40.0728421" lon="-105.230575">
  <ele>1602.89</ele>
  <time>2026-08-27T18:28:31Z</time>
  <course>23.79</course>
  <speed>0.01</speed>
  <fix>3d</fix>
</trkpt>
<trkpt lat="40.072842" lon="-105.230575">
  <ele>1602.24</ele>
  <time>2026-08-27T18:28:31Z</time>
  <course>11.19</course>
  <speed>0.01</speed>
  <fix>3d</fix>
</trkpt>
<trkpt lat="40.0728421" lon="-105.230575">
  <ele>1602.59</ele>
  <time>2026-08-27T18:28:31Z</time>
  <course>18.48</course>
  <speed>0.01</speed>
  <fix>3d</fix>
</trkpt>
<trkpt lat="40.072842" lon="-105.230575">
  <ele>1601.94</ele>
  <time>2026-08-27T18:28:31Z</time>
  <course>11.17</course>
  <speed>0.01</speed>
  <fix>3d</fix>
</trkpt>
<trkpt lat="40.0728421" lon="-105.230575">
  <ele>1602.29</ele>
  <time>2026-08-27T18:28:31Z</time>
  <course>14.42</course>
  <speed>0.01</speed>
  <fix>3d</fix>
</trkpt>
<trkpt lat="40.072842" lon="-105.230575">
  <ele>1601.65</ele>
  <time>2026-08-27T18:28:31Z</time>
  <course>11.15</course>
  <speed>0.01</speed>
  <fix>3d</fix>
</trkpt>
<trkpt lat="40.0728422" lon="-105.230575">
  <ele>1601.99</ele>
  <time>2026-08-27T18:28:31Z</time>
  <course>10.21</course>
  <speed>0.01</speed>
  <fix>3d</fix>
</trkpt>
<trkpt lat="40.072842" lon="-105.230575">
  <ele>1601.36</ele>
  <time>2026-08-27T18:28:31Z</time>
  <course>11.14</course>
  <speed>0.01</speed>
  <fix>3d</fix>
</trkpt>
<trkpt lat="40.0728423" lon="-105.230575">
  <ele>1601.69</ele>
  <time>2026-08-27T18:28:31Z</time>
  <course>5.71</course>
  <speed>0.01</speed>
  <fix>3d</fix>
</trkpt>
<trkpt lat="40.0728421" lon="-105.230575">
  <ele>1601.06</ele>
  <time>2026-08-27T18:28:31Z</time>
  <course>11.15</course>
  <speed>0.01</speed>
  <fix>3d</fix>
</trkpt>
<trkpt lat="40.0728423" lon="-105.230575">
  <ele>1601.39</ele>
  <time>2026-08-27T18:28:31Z</time>
  <course>1.3</course>
  <speed>0.01</speed>
  <fix>3d</fix>
</trkpt>
<trkpt lat="40.0728421" lon="-105.230575">
  <ele>1600.76</ele>
  <time>2026-08-27T18:28:31Z</time>
  <course>11.13</course>
  <speed>0.01</speed>
  <fix>3d</fix>
</trkpt>
<trkpt lat="40.0728423" lon="-105.230575">
  <ele>1601.09</ele>
  <time>2026-08-27T18:28:31Z</time>
  <course>359.21</course>
  <speed>0.01</speed>
  <fix>3d</fix>
</trkpt>
<trkpt lat="40.0728421" lon="-105.230575">
  <ele>1600.46</ele>
  <time>2026-08-27T18:28:31Z</time>
  <course>11.12</course>
  <speed>0.01</speed>
  <fix>3d</fix>
</trkpt>
<trkpt lat="40.0728423" lon="-105.230575">
  <ele>1600.79</ele>
  <time>2026-08-27T18:28:31Z</time>
  <course>358.33</course>
  <speed>0.01</speed>
  <fix>3d</fix>
</trkpt>
<trkpt lat="40.0728421" lon="-105.230575">
  <ele>1600.16</ele>
  <time>2026-08-27T18:28:31Z</time>
  <course>11.1</course>
  <speed>0.01</speed>
  <fix>3d</fix>
</trkpt>
<trkpt lat="40.0728424" lon="-105.230575">
  <ele>1600.49</ele>
  <time>2026-08-27T18:28:31Z</time>
  <course>356.19</course>
  <speed>0.01</speed>
  <fix>3d</fix>
</trkpt>
<trkpt lat="40.0728422" lon="-105.230575">
  <ele>1599.86</ele>
  <time>2026-08-27T18:28:31Z</time>
  <course>11.09</course>
  <speed>0.01</speed>
  <fix>3d</fix>
</trkpt>
<trkpt lat="40.0728424" lon="-105.230575">
  <ele>1600.18</ele>
  <time>2026-08-27T18:28:31Z</time>
  <course>352.97</course>
  <speed>0.01</speed>
  <fix>3d</fix>
</trkpt>
<trkpt lat="40.0728422" lon="-105.230575">
  <ele>1599.55</ele>
  <time>2026-08-27T18:28:31Z</time>
  <course>11.07</course>
  <speed>0.01</speed>
  <fix>3d</fix>
</trkpt>
<trkpt lat="40.0728424" lon="-105.230575">
  <ele>1599.88</ele>
  <time>2026-08-27T18:28:31Z</time>
  <course>349.82</course>
  <speed>0.01</speed>
  <fix>3d</fix>
</trkpt>
<trkpt lat="40.0728422" lon="-105.230575">
  <ele>1599.25</ele>
  <time>2026-08-27T18:28:31Z</time>
  <course>11.06</course>
  <speed>0.02</speed>
  <fix>3d</fix>
</trkpt>
<trkpt lat="40.0728424" lon="-105.230575">
  <ele>1599.57</ele>
  <time>2026-08-27T18:28:31Z</time>
  <course>345.69</course>
  <speed>0.0</speed>
  <fix>3d</fix>
</trkpt>
<trkpt lat="40.0728422" lon="-105.230575">
  <ele>1598.94</ele>
  <time>2026-08-27T18:28:31Z</time>
  <course>11.03</course>
  <speed>0.02</speed>
  <fix>3d</fix>
</trkpt>
<trkpt lat="40.0728425" lon="-105.230575">
  <ele>1599.27</ele>
  <time>2026-08-27T18:28:31Z</time>
  <course>334.53</course>
  <speed>0.0</speed>
  <fix>3d</fix>
</trkpt>
<trkpt lat="40.0728422" lon="-105.230575">
  <ele>1598.64</ele>
  <time>2026-08-27T18:28:31Z</time>
  <course>11.02</course>
  <speed>0.02</speed>
  <fix>3d</fix>
</trkpt>
<trkpt lat="40.0728425" lon="-105.230575">
  <ele>1598.97</ele>
  <time>2026-08-27T18:28:31Z</time>
  <course>298.6</course>
  <speed>0.0</speed>
  <fix>3d</fix>
</trkpt>
<trkpt lat="40.0728422" lon="-105.230575">
  <ele>1598.34</ele>
  <time>2026-08-27T18:28:31Z</time>
  <course>10.99</course>
  <speed>0.03</speed>
  <fix>3d</fix>
</trkpt>
<trkpt lat="40.0728425" lon="-105.230575">
  <ele>1598.66</ele>
  <time>2026-08-27T18:28:31Z</time>
  <course>243.87</course>
  <speed>0.0</speed>
  <fix>3d</fix>
</trkpt>
<trkpt lat="40.0728422" lon="-105.230575">
  <ele>1598.03</ele>
  <time>2026-08-27T18:28:31Z</time>
  <course>10.98</course>
  <speed>0.03</speed>
  <fix>3d</fix>
</trkpt>
<trkpt lat="40.0728425" lon="-105.230575">
  <ele>1598.37</ele>
  <time>2026-08-27T18:28:31Z</time>
  <course>220.54</course>
  <speed>0.0</speed>
  <fix>3d</fix>
</trkpt>
<trkpt lat="40.0728422" lon="-105.230575">
  <ele>1597.73</ele>
  <time>2026-08-27T18:28:31Z</time>
  <course>10.97</course>
  <speed>0.03</speed>
  <fix>3d</fix>
</trkpt>
<trkpt lat="40.0728425" lon="-105.230575">
  <ele>1598.07</ele>
  <time>2026-08-27T18:28:31Z</time>
  <course>211.42</course>
  <speed>0.0</speed>
  <fix>3d</fix>
</trkpt>
<trkpt lat="40.0728422" lon="-105.230575">
  <ele>1597.43</ele>
  <time>2026-08-27T18:28:31Z</time>
  <course>10.91</course>
  <speed>0.03</speed>
  <fix>3d</fix>
</trkpt>
<trkpt lat="40.0728425" lon="-105.230575">
  <ele>1597.77</ele>
  <time>2026-08-27T18:28:31Z</time>
  <course>204.5</course>
  <speed>0.0</speed>
  <fix>3d</fix>
</trkpt>
<trkpt lat="40.0728422" lon="-105.230575">
  <ele>1597.15</ele>
  <time>2026-08-27T18:28:31Z</time>
  <course>10.62</course>
  <speed>0.03</speed>
  <fix>3d</fix>
</trkpt>
<trkpt lat="40.0728425" lon="-105.230575">
  <ele>1597.47</ele>
  <time>2026-08-27T18:28:31Z</time>
  <course>198.15</course>
  <speed>0.01</speed>
  <fix>3d</fix>
</trkpt>
<trkpt lat="40.0728422" lon="-105.230575">
  <ele>1596.9</ele>
  <time>2026-08-27T18:28:31Z</time>
  <course>10.26</course>
  <speed>0.04</speed>
  <fix>3d</fix>
</trkpt>
<trkpt lat="40.0728425" lon="-105.230575">
  <ele>1597.19</ele>
  <time>2026-08-27T18:28:31Z</time>
  <course>194.17</course>
  <speed>0.01</speed>
  <fix>3d</fix>
</trkpt>
<trkpt lat="40.0728422" lon="-105.230575">
  <ele>1596.69</ele>
  <time>2026-08-27T18:28:31Z</time>
  <course>9.92</course>
  <speed>0.04</speed>
  <fix>3d</fix>
</trkpt>
<trkpt lat="40.0728425" lon="-105.230575">
  <ele>1596.93</ele>
  <time>2026-08-27T18:28:31Z</time>
  <course>198.53</course>
  <speed>0.01</speed>
  <fix>3d</fix>
</trkpt>
<trkpt lat="40.0728422" lon="-105.230575">
  <ele>1596.52</ele>
  <time>2026-08-27T18:28:32Z</time>
  <course>9.6</course>
  <speed>0.04</speed>
  <fix>3d</fix>
</trkpt>
<trkpt lat="40.0728424" lon="-105.230575">
  <ele>1596.72</ele>
  <time>2026-08-27T18:28:32Z</time>
  <course>209.29</course>
  <speed>0.01</speed>
  <fix>3d</fix>
</trkpt>
<trkpt lat="40.0728422" lon="-105.230575">
  <ele>1596.4</ele>
  <time>2026-08-27T18:28:32Z</time>
  <course>9.4</course>
  <speed>0.0412310562561766</speed>
  <fix>3d</fix>
</trkpt>
<trkpt lat="40.0728424" lon="-105.230575">
  <ele>1596.55</ele>
  <time>2026-08-27T18:28:32Z</time>
  <course>221.82</course>
  <speed>0.02</speed>
  <fix>3d</fix>
</trkpt>
<trkpt lat="40.0728422" lon="-105.230575">
  <ele>1596.3</ele>
  <time>2026-08-27T18:28:32Z</time>
  <course>9.42</course>
  <speed>0.0412310562561766</speed>
  <fix>3d</fix>
</trkpt>
<trkpt lat="40.0728424" lon="-105.230575">
  <ele>1596.42</ele>
  <time>2026-08-27T18:28:32Z</time>
  <course>233.52</course>
  <speed>0.02</speed>
  <fix>3d</fix>
</trkpt>
<trkpt lat="40.0728422" lon="-105.2305751">
  <ele>1596.22</ele>
  <time>2026-08-27T18:28:32Z</time>
  <course>9.49</course>
  <speed>0.03605551275463989</speed>
  <fix>3d</fix>
</trkpt>
<trkpt lat="40.0728423" lon="-105.2305751">
  <ele>1596.32</ele>
  <time>2026-08-27T18:28:32Z</time>
  <course>241.79</course>
  <speed>0.03</speed>
  <fix>3d</fix>
</trkpt>
<trkpt lat="40.0728421" lon="-105.2305752">
  <ele>1596.14</ele>
  <time>2026-08-27T18:28:32Z</time>
  <course>9.6</course>
  <speed>0.03605551275463989</speed>
  <fix>3d</fix>
</trkpt>
<trkpt lat="40.0728423" lon="-105.2305752">
  <ele>1596.24</ele>
  <time>2026-08-27T18:28:32Z</time>
  <course>247.13</course>
  <speed>0.03</speed>
  <fix>3d</fix>
</trkpt>
<trkpt lat="40.0728421" lon="-105.2305752">
  <ele>1596.07</ele>
  <time>2026-08-27T18:28:32Z</time>
  <course>9.65</course>
  <speed>0.03605551275463989</speed>
  <fix>3d</fix>
</trkpt>
<trkpt lat="40.0728423" lon="-105.2305753">
  <ele>1596.16</ele>
  <time>2026-08-27T18:28:32Z</time>
  <course>250.91</course>
  <speed>0.04</speed>
  <fix>3d</fix>
</trkpt>
<trkpt lat="40.0728421" lon="-105.2305753">
  <ele>1595.99</ele>
  <time>2026-08-27T18:28:32Z</time>
  <course>9.74</course>
  <speed>0.03605551275463989</speed>
  <fix>3d</fix>
</trkpt>
<trkpt lat="40.0728423" lon="-105.2305753">
  <ele>1596.09</ele>
  <time>2026-08-27T18:28:32Z</time>
  <course>254.02</course>
  <speed>0.04</speed>
  <fix>3d</fix>
</trkpt>
<trkpt lat="40.0728421" lon="-105.2305754">
  <ele>1595.9</ele>
  <time>2026-08-27T18:28:32Z</time>
  <course>9.77</course>
  <speed>0.022360679774997897</speed>
  <fix>3d</fix>
</trkpt>
<trkpt lat="40.0728422" lon="-105.2305754">
  <ele>1596.01</ele>
  <time>2026-08-27T18:28:32Z</time>
  <course>257.02</course>
  <speed>0.03</speed>
  <fix>3d</fix>
</trkpt>
<trkpt lat="40.0728421" lon="-105.2305755">
  <ele>1595.82</ele>
  <time>2026-08-27T18:28:32Z</time>
  <course>9.82</course>
  <speed>0.022360679774997897</speed>
  <fix>3d</fix>
</trkpt>
<trkpt lat="40.0728421" lon="-105.2305755">
  <ele>1595.92</ele>
  <time>2026-08-27T18:28:32Z</time>
  <course>259.98</course>
  <speed>0.03</speed>
  <fix>3d</fix>
</trkpt>
<trkpt lat="40.0728421" lon="-105.2305755">
  <ele>1595.73</ele>
  <time>2026-08-27T18:28:32Z</time>
  <course>9.88</course>
  <speed>0.02</speed>
  <fix>3d</fix>
</trkpt>
<trkpt lat="40.0728421" lon="-105.2305756">
  <ele>1595.84</ele>
  <time>2026-08-27T18:28:32Z</time>
  <course>263.21</course>
  <speed>0.02</speed>
  <fix>3d</fix>
</trkpt>
<trkpt lat="40.0728421" lon="-105.2305755">
  <ele>1595.63</ele>
  <time>2026-08-27T18:28:32Z</time>
  <course>9.91</course>
  <speed>0.02</speed>
  <fix>3d</fix>
</trkpt>
<trkpt lat="40.0728421" lon="-105.2305756">
  <ele>1595.75</ele>
  <time>2026-08-27T18:28:32Z</time>
  <course>267.11</course>
  <speed>0.02</speed>
  <fix>3d</fix>
</trkpt>
<trkpt lat="40.0728421" lon="-105.2305756">
  <ele>1595.53</ele>
  <time>2026-08-27T18:28:32Z</time>
  <course>9.92</course>
  <speed>0.01</speed>
  <fix>3d</fix>
</trkpt>
<trkpt lat="40.0728421" lon="-105.2305757">
  <ele>1595.64</ele>
  <time>2026-08-27T18:28:32Z</time>
  <course>273.76</course>
  <speed>0.01</speed>
  <fix>3d</fix>
</trkpt>
<trkpt lat="40.0728421" lon="-105.2305756">
  <ele>1595.43</ele>
  <time>2026-08-27T18:28:32Z</time>
  <course>9.92</course>
  <speed>0.01414213562373095</speed>
  <fix>3d</fix>
</trkpt>
<trkpt lat="40.0728421" lon="-105.2305758">
  <ele>1595.55</ele>
  <time>2026-08-27T18:28:32Z</time>
  <course>291.01</course>
  <speed>0.0</speed>
  <fix>3d</fix>
</trkpt>
<trkpt lat="40.0728421" lon="-105.2305756">
  <ele>1595.33</ele>
  <time>2026-08-27T18:28:32Z</time>
  <course>9.92</course>
  <speed>0.01414213562373095</speed>
  <fix>3d</fix>
</trkpt>
<trkpt lat="40.0728421" lon="-105.2305758">
  <ele>1595.45</ele>
  <time>2026-08-27T18:28:32Z</time>
  <course>338.21</course>
  <speed>0.0</speed>
  <fix>3d</fix>
</trkpt>
<trkpt lat="40.0728421" lon="-105.2305756">
  <ele>1595.23</ele>
  <time>2026-08-27T18:28:32Z</time>
  <course>9.92</course>
  <speed>0.022360679774997897</speed>
  <fix>3d</fix>
</trkpt>
<trkpt lat="40.0728421" lon="-105.2305758">
  <ele>1595.35</ele>
  <time>2026-08-27T18:28:32Z</time>
  <course>20.19</course>
  <speed>0.0</speed>
  <fix>3d</fix>
</trkpt>
<trkpt lat="40.0728421" lon="-105.2305756">
  <ele>1595.13</ele>
  <time>2026-08-27T18:28:32Z</time>
  <course>9.94</course>
  <speed>0.022360679774997897</speed>
  <fix>3d</fix>
</trkpt>
<trkpt lat="40.0728421" lon="-105.2305758">
  <ele>1595.25</ele>
  <time>2026-08-27T18:28:32Z</time>
  <course>38.77</course>
  <speed>0.01</speed>
  <fix>3d</fix>
</trkpt>
<trkpt lat="40.0728421" lon="-105.2305756">
  <ele>1595.03</ele>
  <time>2026-08-27T18:28:32Z</time>
  <course>9.96</course>
  <speed>0.022360679774997897</speed>
  <fix>3d</fix>
</trkpt>
<trkpt lat="40.0728421" lon="-105.2305758">
  <ele>1595.14</ele>
  <time>2026-08-27T18:28:32Z</time>
  <course>49.01</course>
  <speed>0.01</speed>
  <fix>3d</fix>
</trkpt>
<trkpt lat="40.0728421" lon="-105.2305756">
  <ele>1594.93</ele>
  <time>2026-08-27T18:28:32Z</time>
  <course>9.94</course>
  <speed>0.0316227766016838</speed>
  <fix>3d</fix>
</trkpt>
<trkpt lat="40.0728421" lon="-105.2305758">
  <ele>1595.05</ele>
  <time>2026-08-27T18:28:32Z</time>
  <course>54.91</course>
  <speed>0.02</speed>
  <fix>3d</fix>
</trkpt>
<trkpt lat="40.0728421" lon="-105.2305755">
  <ele>1594.83</ele>
  <time>2026-08-27T18:28:32Z</time>
  <course>9.96</course>
  <speed>0.0316227766016838</speed>
  <fix>3d</fix>
</trkpt>
<trkpt lat="40.0728421" lon="-105.2305757">
  <ele>1594.95</ele>
  <time>2026-08-27T18:28:32Z</time>
  <course>58.31</course>
  <speed>0.02</speed>
  <fix>3d</fix>
</trkpt>
<trkpt lat="40.0728421" lon="-105.2305755">
  <ele>1594.73</ele>
  <time>2026-08-27T18:28:32Z</time>
  <course>9.97</course>
  <speed>0.0316227766016838</speed>
  <fix>3d</fix>
</trkpt>
<trkpt lat="40.0728422" lon="-105.2305756">
  <ele>1594.85</ele>
  <time>2026-08-27T18:28:32Z</time>
  <course>60.59</course>
  <speed>0.02</speed>
  <fix>3d</fix>
</trkpt>
<trkpt lat="40.0728421" lon="-105.2305754">
  <ele>1594.63</ele>
  <time>2026-08-27T18:28:32Z</time>
  <course>9.96</course>
  <speed>0.0316227766016838</speed>
  <fix>3d</fix>
</trkpt>
<trkpt lat="40.0728423" lon="-105.2305756">
  <ele>1594.74</ele>
  <time>2026-08-27T18:28:32Z</time>
  <course>62.38</course>
  <speed>0.02</speed>
  <fix>3d</fix>
</trkpt>
<trkpt lat="40.0728421" lon="-105.2305754">
  <ele>1594.53</ele>
  <time>2026-08-27T18:28:32Z</time>
  <course>9.99</course>
  <speed>0.0316227766016838</speed>
  <fix>3d</fix>
</trkpt>
<trkpt lat="40.0728423" lon="-105.2305756">
  <ele>1594.63</ele>
  <time>2026-08-27T18:28:32Z</time>
  <course>63.23</course>
  <speed>0.02</speed>
  <fix>3d</fix>
</trkpt>
<trkpt lat="40.0728421" lon="-105.2305753">
  <ele>1594.43</ele>
  <time>2026-08-27T18:28:32Z</time>
  <course>9.98</course>
  <speed>0.0316227766016838</speed>
  <fix>3d</fix>
</trkpt>
<trkpt lat="40.0728423" lon="-105.2305755">
  <ele>1594.54</ele>
  <time>2026-08-27T18:28:32Z</time>
  <course>64.11</course>
  <speed>0.02</speed>
  <fix>3d</fix>
</trkpt>
<trkpt lat="40.0728421" lon="-105.2305753">
  <ele>1594.33</ele>
  <time>2026-08-27T18:28:32Z</time>
  <course>9.99</course>
  <speed>0.0316227766016838</speed>
  <fix>3d</fix>
</trkpt>
<trkpt lat="40.0728423" lon="-105.2305755">
  <ele>1594.44</ele>
  <time>2026-08-27T18:28:32Z</time>
  <course>65.89</course>
  <speed>0.02</speed>
  <fix>3d</fix>
</trkpt>
<trkpt lat="40.0728421" lon="-105.2305752">
  <ele>1594.23</ele>
  <time>2026-08-27T18:28:32Z</time>
  <course>10.02</course>
  <speed>0.0316227766016838</speed>
  <fix>3d</fix>
</trkpt>
<trkpt lat="40.0728424" lon="-105.2305754">
  <ele>1594.34</ele>
  <time>2026-08-27T18:28:32Z</time>
  <course>68.61</course>
  <speed>0.02</speed>
  <fix>3d</fix>
</trkpt>
<trkpt lat="40.0728421" lon="-105.2305752">
  <ele>1594.13</ele>
  <time>2026-08-27T18:28:32Z</time>
  <course>10.02</course>
  <speed>0.0316227766016838</speed>
  <fix>3d</fix>
</trkpt>
<trkpt lat="40.0728424" lon="-105.2305753">
  <ele>1594.24</ele>
  <time>2026-08-27T18:28:32Z</time>
  <course>72.27</course>
  <speed>0.02</speed>
  <fix>3d</fix>
</trkpt>
<trkpt lat="40.0728422" lon="-105.2305751">
  <ele>1594.03</ele>
  <time>2026-08-27T18:28:32Z</time>
  <course>10.02</course>
  <speed>0.0282842712474619</speed>
  <fix>3d</fix>
</trkpt>
<trkpt lat="40.0728424" lon="-105.2305753">
  <ele>1594.13</ele>
  <time>2026-08-27T18:28:32Z</time>
  <course>76.53</course>
  <speed>0.02</speed>
  <fix>3d</fix>
</trkpt>
<trkpt lat="40.0728422" lon="-105.2305751">
  <ele>1593.93</ele>
  <time>2026-08-27T18:28:32Z</time>
  <course>10.03</course>
  <speed>0.0282842712474619</speed>
  <fix>3d</fix>
</trkpt>
<trkpt lat="40.0728424" lon="-105.2305752">
  <ele>1594.04</ele>
  <time>2026-08-27T18:28:32Z</time>
  <course>81.76</course>
  <speed>0.01</speed>
  <fix>3d</fix>
</trkpt>
<trkpt lat="40.0728422" lon="-105.2305751">
  <ele>1593.83</ele>
  <time>2026-08-27T18:28:32Z</time>
  <course>10.05</course>
  <speed>0.0282842712474619</speed>
  <fix>3d</fix>
</trkpt>
<trkpt lat="40.0728424" lon="-105.2305751">
  <ele>1593.94</ele>
  <time>2026-08-27T18:28:32Z</time>
  <course>89.14</course>
  <speed>0.01</speed>
  <fix>3d</fix>
</trkpt>
<trkpt lat="40.0728422" lon="-105.230575">
  <ele>1593.73</ele>
  <time>2026-08-27T18:28:32Z</time>
  <course>10.04</course>
  <speed>0.0282842712474619</speed>
  <fix>3d</fix>
</trkpt>
<trkpt lat="40.0728424" lon="-105.2305751">
  <ele>1593.84</ele>
  <time>2026-08-27T18:28:32Z</time>
  <course>98.13</course>
  <speed>0.01</speed>
  <fix>3d</fix>
</trkpt>
<trkpt lat="40.0728422" lon="-105.230575">
  <ele>1593.63</ele>
  <time>2026-08-27T18:28:32Z</time>
  <course>10.04</course>
  <speed>0.0282842712474619</speed>
  <fix>3d</fix>
</trkpt>
<trkpt lat="40.0728424" lon="-105.2305751">
  <ele>1593.74</ele>
  <time>2026-08-27T18:28:32Z</time>
  <course>108.46</course>
  <speed>0.01</speed>
  <fix>3d</fix>
</trkpt>
<trkpt lat="40.0728422" lon="-105.230575">
  <ele>1593.53</ele>
  <time>2026-08-27T18:28:32Z</time>
  <course>10.06</course>
  <speed>0.022360679774997897</speed>
  <fix>3d</fix>
</trkpt>
<trkpt lat="40.0728424" lon="-105.2305751">
  <ele>1593.63</ele>
  <time>2026-08-27T18:28:32Z</time>
  <course>120.94</course>
  <speed>0.01</speed>
  <fix>3d</fix>
</trkpt>
<trkpt lat="40.0728422" lon="-105.230575">
  <ele>1593.43</ele>
  <time>2026-08-27T18:28:32Z</time>
  <course>10.05</course>
  <speed>0.022360679774997897</speed>
  <fix>3d</fix>
</trkpt>
<trkpt lat="40.0728424" lon="-105.2305751">
  <ele>1593.53</ele>
  <time>2026-08-27T18:28:32Z</time>
  <course>134.98</course>
  <speed>0.01</speed>
  <fix>3d</fix>
</trkpt>
<trkpt lat="40.0728422" lon="-105.230575">
  <ele>1593.33</ele>
  <time>2026-08-27T18:28:32Z</time>
  <course>10.06</course>
  <speed>0.0316227766016838</speed>
  <fix>3d</fix>
</trkpt>
<trkpt lat="40.0728424" lon="-105.2305751">
  <ele>1593.42</ele>
  <time>2026-08-27T18:28:32Z</time>
  <course>151.59</course>
  <speed>0.01</speed>
  <fix>3d</fix>
</trkpt>
<trkpt lat="40.0728422" lon="-105.230575">
  <ele>1593.23</ele>
  <time>2026-08-27T18:28:32Z</time>
  <course>10.08</course>
  <speed>0.0316227766016838</speed>
  <fix>3d</fix>
</trkpt>
<trkpt lat="40.0728424" lon="-105.2305751">
  <ele>1593.33</ele>
  <time>2026-08-27T18:28:32Z</time>
  <course>168.35</course>
  <speed>0.01</speed>
  <fix>3d</fix>
</trkpt>
<trkpt lat="40.0728422" lon="-105.230575">
  <ele>1593.13</ele>
  <time>2026-08-27T18:28:32Z</time>
  <course>10.08</course>
  <speed>0.03</speed>
  <fix>3d</fix>
</trkpt>
<trkpt lat="40.0728424" lon="-105.2305751">
  <ele>1593.23</ele>
  <time>2026-08-27T18:28:32Z</time>
  <course>179.18</course>
  <speed>0.01</speed>
  <fix>3d</fix>
</trkpt>
<trkpt lat="40.0728422" lon="-105.230575">
  <ele>1593.03</ele>
  <time>2026-08-27T18:28:32Z</time>
  <course>10.09</course>
  <speed>0.03</speed>
  <fix>3d</fix>
</trkpt>
<trkpt lat="40.0728424" lon="-105.2305751">
  <ele>1593.13</ele>
  <time>2026-08-27T18:28:32Z</time>
  <course>186.57</course>
  <speed>0.01</speed>
  <fix>3d</fix>
</trkpt>
<trkpt lat="40.0728422" lon="-105.230575">
  <ele>1592.93</ele>
  <time>2026-08-27T18:28:32Z</time>
  <course>10.11</course>
  <speed>0.03</speed>
  <fix>3d</fix>
</trkpt>
<trkpt lat="40.0728424" lon="-105.2305751">
  <ele>1593.03</ele>
  <time>2026-08-27T18:28:32Z</time>
  <course>192.57</course>
  <speed>0.01</speed>
  <fix>3d</fix>
</trkpt>
<trkpt lat="40.0728422" lon="-105.230575">
  <ele>1592.83</ele>
  <time>2026-08-27T18:28:32Z</time>
  <course>10.09</course>
  <speed>0.03</speed>
  <fix>3d</fix>
</trkpt>
<trkpt lat="40.0728423" lon="-105.2305751">
  <ele>1592.92</ele>
  <time>2026-08-27T18:28:32Z</time>
  <course>196.08</course>
  <speed>0.01</speed>
  <fix>3d</fix>
</trkpt>
<trkpt lat="40.0728422" lon="-105.230575">
  <ele>1592.73</ele>
  <time>2026-08-27T18:28:32Z</time>
  <course>10.09</course>
  <speed>0.02</speed>
  <fix>3d</fix>
</trkpt>
<trkpt lat="40.0728423" lon="-105.2305751">
  <ele>1592.83</ele>
  <time>2026-08-27T18:28:32Z</time>
  <course>198.9</course>
  <speed>0.01</speed>
  <fix>3d</fix>
</trkpt>
<trkpt lat="40.0728421" lon="-105.230575">
  <ele>1592.63</ele>
  <time>2026-08-27T18:28:32Z</time>
  <course>10.11</course>
  <speed>0.02</speed>
  <fix>3d</fix>
</trkpt>
<trkpt lat="40.0728423" lon="-105.2305751">
  <ele>1592.72</ele>
  <time>2026-08-27T18:28:32Z</time>
  <course>200.84</course>
  <speed>0.01</speed>
  <fix>3d</fix>
</trkpt>
<trkpt lat="40.0728421" lon="-105.230575">
  <ele>1592.53</ele>
  <time>2026-08-27T18:28:32Z</time>
  <course>10.12</course>
  <speed>0.02</speed>
  <fix>3d</fix>
</trkpt>
<trkpt lat="40.0728423" lon="-105.2305751">
  <ele>1592.62</ele>
  <time>2026-08-27T18:28:32Z</time>
  <course>202.62</course>
  <speed>0.01</speed>
  <fix>3d</fix>
</trkpt>
<trkpt lat="40.0728421" lon="-105.230575">
  <ele>1592.43</ele>
  <time>2026-08-27T18:28:32Z</time>
  <course>10.11</course>
  <speed>0.02</speed>
  <fix>3d</fix>
</trkpt>
<trkpt lat="40.0728423" lon="-105.2305751">
  <ele>1592.52</ele>
  <time>2026-08-27T18:28:32Z</time>
  <course>204.97</course>
  <speed>0.01</speed>
  <fix>3d</fix>
</trkpt>
<trkpt lat="40.0728421" lon="-105.230575">
  <ele>1592.33</ele>
  <time>2026-08-27T18:28:32Z</time>
  <course>10.11</course>
  <speed>0.02</speed>
  <fix>3d</fix>
</trkpt>
<trkpt lat="40.0728422" lon="-105.2305751">
  <ele>1592.41</ele>
  <time>2026-08-27T18:28:32Z</time>
  <course>207.44</course>
  <speed>0.01</speed>
  <fix>3d</fix>
</trkpt>
<trkpt lat="40.0728421" lon="-105.230575">
  <ele>1592.23</ele>
  <time>2026-08-27T18:28:32Z</time>
  <course>10.12</course>
  <speed>0.02</speed>
  <fix>3d</fix>
</trkpt>
<trkpt lat="40.0728421" lon="-105.2305751">
  <ele>1592.32</ele>
  <time>2026-08-27T18:28:32Z</time>
  <course>211.87</course>
  <speed>0.01</speed>
  <fix>3d</fix>
</trkpt>
<trkpt lat="40.0728421" lon="-105.230575">
  <ele>1592.13</ele>
  <time>2026-08-27T18:28:32Z</time>
  <course>10.14</course>
  <speed>0.02</speed>
  <fix>3d</fix>
</trkpt>
<trkpt lat="40.0728421" lon="-105.2305751">
  <ele>1592.22</ele>
  <time>2026-08-27T18:28:32Z</time>
  <course>216.73</course>
  <speed>0.0</speed>
  <fix>3d</fix>
</trkpt>
<trkpt lat="40.0728421" lon="-105.230575">
  <ele>1592.03</ele>
  <time>2026-08-27T18:28:32Z</time>
  <course>10.15</course>
  <speed>0.02</speed>
  <fix>3d</fix>
</trkpt>
<trkpt lat="40.0728421" lon="-105.2305751">
  <ele>1592.12</ele>
  <time>2026-08-27T18:28:32Z</time>
  <course>222.05</course>
  <speed>0.0</speed>
  <fix>3d</fix>
</trkpt>
<trkpt lat="40.0728421" lon="-105.230575">
  <ele>1591.93</ele>
  <time>2026-08-27T18:28:32Z</time>
  <course>10.15</course>
  <speed>0.02</speed>
  <fix>3d</fix>
</trkpt>
<trkpt lat="40.0728421" lon="-105.2305751">
  <ele>1592.01</ele>
  <time>2026-08-27T18:28:32Z</time>
  <course>230.37</course>
  <speed>0.0</speed>
  <fix>3d</fix>
</trkpt>
<trkpt lat="40.072842" lon="-105.230575">
  <ele>1591.83</ele>
  <time>2026-08-27T18:28:32Z</time>
  <course>10.14</course>
  <speed>0.01</speed>
  <fix>3d</fix>
</trkpt>
<trkpt lat="40.0728421" lon="-105.2305751">
  <ele>1591.9</ele>
  <time>2026-08-27T18:28:32Z</time>
  <course>245.2</course>
  <speed>0.0</speed>
  <fix>3d</fix>
</trkpt>
<trkpt lat="40.072842" lon="-105.230575">
  <ele>1591.73</ele>
  <time>2026-08-27T18:28:32Z</time>
  <course>10.14</course>
  <speed>0.01414213562373095</speed>
  <fix>3d</fix>
</trkpt>
<trkpt lat="40.0728421" lon="-105.2305751">
  <ele>1591.81</ele>
  <time>2026-08-27T18:28:32Z</time>
  <course>270.33</course>
  <speed>0.0</speed>
  <fix>3d</fix>
</trkpt>
<trkpt lat="40.072842" lon="-105.230575">
  <ele>1591.62</ele>
  <time>2026-08-27T18:28:32Z</time>
  <course>10.16</course>
  <speed>0.01414213562373095</speed>
  <fix>3d</fix>
</trkpt>
<trkpt lat="40.0728421" lon="-105.2305751">
  <ele>1591.7</ele>
  <time>2026-08-27T18:28:32Z</time>
  <course>292.52</course>
  <speed>0.0</speed>
  <fix>3d</fix>
</trkpt>
<trkpt lat="40.072842" lon="-105.230575">
  <ele>1591.52</ele>
  <time>2026-08-27T18:28:32Z</time>
  <course>10.14</course>
  <speed>0.01414213562373095</speed>
  <fix>3d</fix>
</trkpt>
<trkpt lat="40.0728421" lon="-105.2305751">
  <ele>1591.6</ele>
  <time>2026-08-27T18:28:32Z</time>
  <course>307.58</course>
  <speed>0.0</speed>
  <fix>3d</fix>
</trkpt>
<trkpt lat="40.0728421" lon="-105.230575">
  <ele>1591.42</ele>
  <time>2026-08-27T18:28:32Z</time>
  <course>10.14</course>
  <speed>0.01414213562373095</speed>
  <fix>3d</fix>
</trkpt>
<trkpt lat="40.0728421" lon="-105.2305751">
  <ele>1591.5</ele>
  <time>2026-08-27T18:28:32Z</time>
  <course>315.82</course>
  <speed>0.0</speed>
  <fix>3d</fix>
</trkpt>
<trkpt lat="40.0728421" lon="-105.230575">
  <ele>1591.33</ele>
  <time>2026-08-27T18:28:32Z</time>
  <course>10.16</course>
  <speed>0.01414213562373095</speed>
  <fix>3d</fix>
</trkpt>
<trkpt lat="40.0728421" lon="-105.2305751">
  <ele>1591.39</ele>
  <time>2026-08-27T18:28:32Z</time>
  <course>320.23</course>
  <speed>0.0</speed>
  <fix>3d</fix>
</trkpt>
<trkpt lat="40.0728421" lon="-105.230575">
  <ele>1591.23</ele>
  <time>2026-08-27T18:28:32Z</time>
  <course>10.17</course>
  <speed>0.01414213562373095</speed>
  <fix>3d</fix>
</trkpt>
<trkpt lat="40.0728421" lon="-105.2305751">
  <ele>1591.3</ele>
  <time>2026-08-27T18:28:32Z</time>
  <course>324.09</course>
  <speed>0.0</speed>
  <fix>3d</fix>
</trkpt>
<trkpt lat="40.0728421" lon="-105.230575">
  <ele>1591.13</ele>
  <time>2026-08-27T18:28:32Z</time>
  <course>10.18</course>
  <speed>0.01414213562373095</speed>
  <fix>3d</fix>
</trkpt>
<trkpt lat="40.0728421" lon="-105.2305751">
  <ele>1591.2</ele>
  <time>2026-08-27T18:28:32Z</time>
  <course>327.86</course>
  <speed>0.01</speed>
  <fix>3d</fix>
</trkpt>
<trkpt lat="40.0728421" lon="-105.230575">
  <ele>1591.03</ele>
  <time>2026-08-27T18:28:32Z</time>
  <course>10.18</course>
  <speed>0.01414213562373095</speed>
  <fix>3d</fix>
</trkpt>
<trkpt lat="40.0728421" lon="-105.2305751">
  <ele>1591.1</ele>
  <time>2026-08-27T18:28:32Z</time>
  <course>330.14</course>
  <speed>0.01</speed>
  <fix>3d</fix>
</trkpt>
<trkpt lat="40.0728421" lon="-105.230575">
  <ele>1590.93</ele>
  <time>2026-08-27T18:28:32Z</time>
  <course>10.17</course>
  <speed>0.01414213562373095</speed>
  <fix>3d</fix>
</trkpt>
<trkpt lat="40.0728421" lon="-105.2305751">
  <ele>1590.99</ele>
  <time>2026-08-27T18:28:32Z</time>
  <course>331.23</course>
  <speed>0.01</speed>
  <fix>3d</fix>
</trkpt>
<trkpt lat="40.0728421" lon="-105.230575">
  <ele>1590.83</ele>
  <time>2026-08-27T18:28:32Z</time>
  <course>10.18</course>
  <speed>0.01414213562373095</speed>
  <fix>3d</fix>
</trkpt>
<trkpt lat="40.0728421" lon="-105.2305751">
  <ele>1590.88</ele>
  <time>2026-08-27T18:28:32Z</time>
  <course>331.35</course>
  <speed>0.01</speed>
  <fix>3d</fix>
</trkpt>
<trkpt lat="40.0728421" lon="-105.230575">
  <ele>1590.73</ele>
  <time>2026-08-27T18:28:32Z</time>
  <course>10.19</course>
  <speed>0.01414213562373095</speed>
  <fix>3d</fix>
</trkpt>
<trkpt lat="40.0728421" lon="-105.2305752">
  <ele>1590.79</ele>
  <time>2026-08-27T18:28:32Z</time>
  <course>330.76</course>
  <speed>0.01</speed>
  <fix>3d</fix>
</trkpt>
<trkpt lat="40.0728421" lon="-105.230575">
  <ele>1590.63</ele>
  <time>2026-08-27T18:28:32Z</time>
  <course>10.2</course>
  <speed>0.01414213562373095</speed>
  <fix>3d</fix>
</trkpt>
<trkpt lat="40.0728421" lon="-105.2305753">
  <ele>1590.69</ele>
  <time>2026-08-27T18:28:32Z</time>
  <course>330.74</course>
  <speed>0.01</speed>
  <fix>3d</fix>
</trkpt>
<trkpt lat="40.0728421" lon="-105.230575">
  <ele>1590.53</ele>
  <time>2026-08-27T18:28:32Z</time>
  <course>10.2</course>
  <speed>0.01414213562373095</speed>
  <fix>3d</fix>
</trkpt>
<trkpt lat="40.0728422" lon="-105.2305753">
  <ele>1590.59</ele>
  <time>2026-08-27T18:28:32Z</time>
  <course>331.04</course>
  <speed>0.01</speed>
  <fix>3d</fix>
</trkpt>
<trkpt lat="40.0728421" lon="-105.230575">
  <ele>1590.43</ele>
  <time>2026-08-27T18:28:32Z</time>
  <course>10.21</course>
  <speed>0.01414213562373095</speed>
  <fix>3d</fix>
</trkpt>
<trkpt lat="40.0728423" lon="-105.2305753">
  <ele>1590.48</ele>
  <time>2026-08-27T18:28:32Z</time>
  <course>332.91</course>
  <speed>0.01</speed>
  <fix>3d</fix>
</trkpt>
<trkpt lat="40.0728421" lon="-105.2305751">
  <ele>1590.33</ele>
  <time>2026-08-27T18:28:32Z</time>
  <course>10.21</course>
  <speed>0.01414213562373095</speed>
  <fix>3d</fix>
</trkpt>
<trkpt lat="40.0728423" lon="-105.2305753">
  <ele>1590.38</ele>
  <time>2026-08-27T18:28:32Z</time>
  <course>334.86</course>
  <speed>0.01</speed>
  <fix>3d</fix>
</trkpt>
<trkpt lat="40.0728421" lon="-105.2305751">
  <ele>1590.23</ele>
  <time>2026-08-27T18:28:32Z</time>
  <course>10.22</course>
  <speed>0.01414213562373095</speed>
  <fix>3d</fix>
</trkpt>
<trkpt lat="40.0728423" lon="-105.2305753">
  <ele>1590.28</ele>
  <time>2026-08-27T18:28:32Z</time>
  <course>336.19</course>
  <speed>0.0</speed>
  <fix>3d</fix>
</trkpt>
<trkpt lat="40.0728421" lon="-105.2305751">
  <ele>1590.12</ele>
  <time>2026-08-27T18:28:32Z</time>
  <course>10.2</course>
  <speed>0.01414213562373095</speed>
  <fix>3d</fix>
</trkpt>
<trkpt lat="40.0728423" lon="-105.2305753">
  <ele>1590.17</ele>
  <time>2026-08-27T18:28:32Z</time>
  <course>339.8</course>
  <speed>0.0</speed>
  <fix>3d</fix>
</trkpt>
<trkpt lat="40.0728421" lon="-105.2305751">
  <ele>1590.02</ele>
  <time>2026-08-27T18:28:32Z</time>
  <course>10.2</course>
  <speed>0.01414213562373095</speed>
  <fix>3d</fix>
</trkpt>
<trkpt lat="40.0728423" lon="-105.2305753">
  <ele>1590.07</ele>
  <time>2026-08-27T18:28:32Z</time>
  <course>346.93</course>
  <speed>0.0</speed>
  <fix>3d</fix>
</trkpt>
<trkpt lat="40.0728421" lon="-105.2305751">
  <ele>1589.92</ele>
  <time>2026-08-27T18:28:32Z</time>
  <course>10.21</course>
  <speed>0.01414213562373095</speed>
  <fix>3d</fix>
</trkpt>
<trkpt lat="40.0728423" lon="-105.2305753">
  <ele>1589.97</ele>
  <time>2026-08-27T18:28:32Z</time>
  <course>357.92</course>
  <speed>0.0</speed>
  <fix>3d</fix>
</trkpt>
<trkpt lat="40.0728421" lon="-105.2305751">
  <ele>1589.82</ele>
  <time>2026-08-27T18:28:32Z</time>
  <course>10.19</course>
  <speed>0.022360679774997897</speed>
  <fix>3d</fix>
</trkpt>
<trkpt lat="40.0728423" lon="-105.2305753">
  <ele>1589.87</ele>
  <time>2026-08-27T18:28:32Z</time>
  <course>22.75</course>
  <speed>0.0</speed>
  <fix>3d</fix>
</trkpt>
<trkpt lat="40.0728421" lon="-105.2305751">
  <ele>1589.72</ele>
  <time>2026-08-27T18:28:32Z</time>
  <course>10.2</course>
  <speed>0.022360679774997897</speed>
  <fix>3d</fix>
</trkpt>
<trkpt lat="40.0728423" lon="-105.2305753">
  <ele>1589.77</ele>
  <time>2026-08-27T18:28:32Z</time>
  <course>58.91</course>
  <speed>0.0</speed>
  <fix>3d</fix>
</trkpt>
<trkpt lat="40.0728421" lon="-105.2305751">
  <ele>1589.62</ele>
  <time>2026-08-27T18:28:32Z</time>
  <course>10.22</course>
  <speed>0.022360679774997897</speed>
  <fix>3d</fix>
</trkpt>
<trkpt lat="40.0728423" lon="-105.2305753">
  <ele>1589.66</ele>
  <time>2026-08-27T18:28:32Z</time>
  <course>90.65</course>
  <speed>0.0</speed>
  <fix>3d</fix>
</trkpt>
<trkpt lat="40.0728421" lon="-105.2305751">
  <ele>1589.52</ele>
  <time>2026-08-27T18:28:32Z</time>
  <course>10.19</course>
  <speed>0.022360679774997897</speed>
  <fix>3d</fix>
</trkpt>
<trkpt lat="40.0728423" lon="-105.2305753">
  <ele>1589.57</ele>
  <time>2026-08-27T18:28:32Z</time>
  <course>113.73</course>
  <speed>0.0</speed>
  <fix>3d</fix>
</trkpt>
<trkpt lat="40.0728421" lon="-105.2305751">
  <ele>1589.42</ele>
  <time>2026-08-27T18:28:32Z</time>
  <course>10.21</course>
  <speed>0.022360679774997897</speed>
  <fix>3d</fix>
</trkpt>
<trkpt lat="40.0728423" lon="-105.2305753">
  <ele>1589.47</ele>
  <time>2026-08-27T18:28:32Z</time>
  <course>126.39</course>
  <speed>0.0</speed>
  <fix>3d</fix>
</trkpt>
<trkpt lat="40.0728421" lon="-105.2305751">
  <ele>1589.32</ele>
  <time>2026-08-27T18:28:32Z</time>
  <course>10.21</course>
  <speed>0.022360679774997897</speed>
  <fix>3d</fix>
</trkpt>
<trkpt lat="40.0728423" lon="-105.2305753">
  <ele>1589.37</ele>
  <time>2026-08-27T18:28:32Z</time>
  <course>135.25</course>
  <speed>0.0</speed>
  <fix>3d</fix>
</trkpt>
<trkpt lat="40.0728421" lon="-105.2305751">
  <ele>1589.22</ele>
  <time>2026-08-27T18:28:32Z</time>
  <course>10.21</course>
  <speed>0.022360679774997897</speed>
  <fix>3d</fix>
</trkpt>
<trkpt lat="40.0728423" lon="-105.2305753">
  <ele>1589.27</ele>
  <time>2026-08-27T18:28:32Z</time>
  <course>137.99</course>
  <speed>0.0</speed>
  <fix>3d</fix>
</trkpt>
<trkpt lat="40.0728421" lon="-105.2305751">
  <ele>1589.12</ele>
  <time>2026-08-27T18:28:32Z</time>
  <course>10.23</course>
  <speed>0.022360679774997897</speed>
  <fix>3d</fix>
</trkpt>
<trkpt lat="40.0728423" lon="-105.2305753">
  <ele>1589.16</ele>
  <time>2026-08-27T18:28:32Z</time>
  <course>138.41</course>
  <speed>0.0</speed>
  <fix>3d</fix>
</trkpt>
<trkpt lat="40.0728421" lon="-105.2305751">
  <ele>1589.02</ele>
  <time>2026-08-27T18:28:32Z</time>
  <course>10.21</course>
  <speed>0.022360679774997897</speed>
  <fix>3d</fix>
</trkpt>
<trkpt lat="40.0728423" lon="-105.2305753">
  <ele>1589.07</ele>
  <time>2026-08-27T18:28:32Z</time>
  <course>138.24</course>
  <speed>0.0</speed>
  <fix>3d</fix>
</trkpt>
<trkpt lat="40.0728421" lon="-105.2305751">
  <ele>1588.92</ele>
  <time>2026-08-27T18:28:32Z</time>
  <course>10.23</course>
  <speed>0.022360679774997897</speed>
  <fix>3d</fix>
</trkpt>
<trkpt lat="40.0728423" lon="-105.2305753">
  <ele>1588.97</ele>
  <time>2026-08-27T18:28:32Z</time>
  <course>139.97</course>
  <speed>0.0</speed>
  <fix>3d</fix>
</trkpt>
<trkpt lat="40.0728421" lon="-105.2305751">
  <ele>1588.82</ele>
  <time>2026-08-27T18:28:32Z</time>
  <course>10.23</course>
  <speed>0.022360679774997897</speed>
  <fix>3d</fix>
</trkpt>
<trkpt lat="40.0728423" lon="-105.2305753">
  <ele>1588.88</ele>
  <time>2026-08-27T18:28:32Z</time>
  <course>142.23</course>
  <speed>0.0</speed>
  <fix>3d</fix>
</trkpt>
<trkpt lat="40.0728421" lon="-105.2305751">
  <ele>1588.72</ele>
  <time>2026-08-27T18:28:32Z</time>
  <course>10.24</course>
  <speed>0.022360679774997897</speed>
  <fix>3d</fix>
</trkpt>
<trkpt lat="40.0728423" lon="-105.2305753">
  <ele>1588.78</ele>
  <time>2026-08-27T18:28:32Z</time>
  <course>143.04</course>
  <speed>0.0</speed>
  <fix>3d</fix>
</trkpt>
<trkpt lat="40.0728421" lon="-105.2305751">
  <ele>1588.62</ele>
  <time>2026-08-27T18:28:32Z</time>
  <course>10.24</course>
  <speed>0.022360679774997897</speed>
  <fix>3d</fix>
</trkpt>
<trkpt lat="40.0728423" lon="-105.2305753">
  <ele>1588.67</ele>
  <time>2026-08-27T18:28:32Z</time>
  <course>143.28</course>
  <speed>0.0</speed>
  <fix>3d</fix>
</trkpt>
<trkpt lat="40.0728421" lon="-105.2305751">
  <ele>1588.52</ele>
  <time>2026-08-27T18:28:32Z</time>
  <course>10.23</course>
  <speed>0.022360679774997897</speed>
  <fix>3d</fix>
</trkpt>
<trkpt lat="40.0728423" lon="-105.2305753">
  <ele>1588.58</ele>
  <time>2026-08-27T18:28:32Z</time>
  <course>142.48</course>
  <speed>0.0</speed>
  <fix>3d</fix>
</trkpt>
<trkpt lat="40.0728421" lon="-105.2305751">
  <ele>1588.42</ele>
  <time>2026-08-27T18:28:32Z</time>
  <course>10.25</course>
  <speed>0.022360679774997897</speed>
  <fix>3d</fix>
</trkpt>
<trkpt lat="40.0728423" lon="-105.2305753">
  <ele>1588.48</ele>
  <time>2026-08-27T18:28:32Z</time>
  <course>141.98</course>
  <speed>0.0</speed>
  <fix>3d</fix>
</trkpt>
<trkpt lat="40.0728421" lon="-105.2305751">
  <ele>1588.32</ele>
  <time>2026-08-27T18:28:32Z</time>
  <course>10.25</course>
  <speed>0.022360679774997897</speed>
  <fix>3d</fix>
</trkpt>
<trkpt lat="40.0728423" lon="-105.2305753">
  <ele>1588.38</ele>
  <time>2026-08-27T18:28:32Z</time>
  <course>141.52</course>
  <speed>0.0</speed>
  <fix>3d</fix>
</trkpt>
<trkpt lat="40.0728421" lon="-105.2305751">
  <ele>1588.22</ele>
  <time>2026-08-27T18:28:32Z</time>
  <course>10.25</course>
  <speed>0.022360679774997897</speed>
  <fix>3d</fix>
</trkpt>
<trkpt lat="40.0728423" lon="-105.2305753">
  <ele>1588.28</ele>
  <time>2026-08-27T18:28:32Z</time>
  <course>141.09</course>
  <speed>0.0</speed>
  <fix>3d</fix>
</trkpt>
<trkpt lat="40.0728421" lon="-105.2305751">
  <ele>1588.12</ele>
  <time>2026-08-27T18:28:32Z</time>
  <course>10.25</course>
  <speed>0.022360679774997897</speed>
  <fix>3d</fix>
</trkpt>
<trkpt lat="40.0728423" lon="-105.2305753">
  <ele>1588.17</ele>
  <time>2026-08-27T18:28:32Z</time>
  <course>140.45</course>
  <speed>0.0</speed>
  <fix>3d</fix>
</trkpt>
<trkpt lat="40.0728421" lon="-105.2305751">
  <ele>1588.02</ele>
  <time>2026-08-27T18:28:32Z</time>
  <course>10.26</course>
  <speed>0.022360679774997897</speed>
  <fix>3d</fix>
</trkpt>
<trkpt lat="40.0728423" lon="-105.2305753">
  <ele>1588.08</ele>
  <time>2026-08-27T18:28:32Z</time>
  <course>140.37</course>
  <speed>0.0</speed>
  <fix>3d</fix>
</trkpt>
<trkpt lat="40.0728421" lon="-105.2305751">
  <ele>1587.92</ele>
  <time>2026-08-27T18:28:32Z</time>
  <course>10.26</course>
  <speed>0.022360679774997897</speed>
  <fix>3d</fix>
</trkpt>
<trkpt lat="40.0728423" lon="-105.2305752">
  <ele>1587.98</ele>
  <time>2026-08-27T18:28:32Z</time>
  <course>140.62</course>
  <speed>0.0</speed>
  <fix>3d</fix>
</trkpt>
<trkpt lat="40.0728421" lon="-105.2305751">
  <ele>1587.82</ele>
  <time>2026-08-27T18:28:32Z</time>
  <course>10.26</course>
  <speed>0.022360679774997897</speed>
  <fix>3d</fix>
</trkpt>
<trkpt lat="40.0728423" lon="-105.2305751">
  <ele>1587.88</ele>
  <time>2026-08-27T18:28:32Z</time>
  <course>141.85</course>
  <speed>0.0</speed>
  <fix>3d</fix>
</trkpt>
<trkpt lat="40.0728421" lon="-105.2305751">
  <ele>1587.73</ele>
  <time>2026-08-27T18:28:32Z</time>
  <course>10.26</course>
  <speed>0.022360679774997897</speed>
  <fix>3d</fix>
</trkpt>
<trkpt lat="40.0728423" lon="-105.2305751">
  <ele>1587.78</ele>
  <time>2026-08-27T18:28:32Z</time>
  <course>143.48</course>
  <speed>0.0</speed>
  <fix>3d</fix>
</trkpt>
<trkpt lat="40.0728421" lon="-105.2305751">
  <ele>1587.62</ele>
  <time>2026-08-27T18:28:32Z</time>
  <course>10.27</course>
  <speed>0.022360679774997897</speed>
  <fix>3d</fix>
</trkpt>
<trkpt lat="40.0728423" lon="-105.2305751">
  <ele>1587.67</ele>
  <time>2026-08-27T18:28:32Z</time>
  <course>145.32</course>
  <speed>0.0</speed>
  <fix>3d</fix>
</trkpt>
<trkpt lat="40.0728421" lon="-105.2305751">
  <ele>1587.52</ele>
  <time>2026-08-27T18:28:32Z</time>
  <course>10.26</course>
  <speed>0.022360679774997897</speed>
  <fix>3d</fix>
</trkpt>
<trkpt lat="40.0728423" lon="-105.2305751">
  <ele>1587.57</ele>
  <time>2026-08-27T18:28:32Z</time>
  <course>150.85</course>
  <speed>0.0</speed>
  <fix>3d</fix>
</trkpt>
<trkpt lat="40.0728421" lon="-105.2305751">
  <ele>1587.42</ele>
  <time>2026-08-27T18:28:32Z</time>
  <course>10.26</course>
  <speed>0.022360679774997897</speed>
  <fix>3d</fix>
</trkpt>
<trkpt lat="40.0728423" lon="-105.2305751">
  <ele>1587.47</ele>
  <time>2026-08-27T18:28:32Z</time>
  <course>160.63</course>
  <speed>0.0</speed>
  <fix>3d</fix>
</trkpt>
<trkpt lat="40.0728421" lon="-105.230575">
  <ele>1587.32</ele>
  <time>2026-08-27T18:28:32Z</time>
  <course>10.27</course>
  <speed>0.022360679774997897</speed>
  <fix>3d</fix>
</trkpt>
<trkpt lat="40.0728422" lon="-105.2305751">
  <ele>1587.37</ele>
  <time>2026-08-27T18:28:32Z</time>
  <course>172.41</course>
  <speed>0.0</speed>
  <fix>3d</fix>
</trkpt>
<trkpt lat="40.0728421" lon="-105.230575">
  <ele>1587.22</ele>
  <time>2026-08-27T18:28:32Z</time>
  <course>10.25</course>
  <speed>0.022360679774997897</speed>
  <fix>3d</fix>
</trkpt>
<trkpt lat="40.0728421" lon="-105.2305751">
  <ele>1587.27</ele>
  <time>2026-08-27T18:28:32Z</time>
  <course>182.99</course>
  <speed>0.0</speed>
  <fix>3d</fix>
</trkpt>
<trkpt lat="40.0728421" lon="-105.230575">
  <ele>1587.12</ele>
  <time>2026-08-27T18:28:32Z</time>
  <course>10.26</course>
  <speed>0.022360679774997897</speed>
  <fix>3d</fix>
</trkpt>
<trkpt lat="40.0728421" lon="-105.2305751">
  <ele>1587.16</ele>
  <time>2026-08-27T18:28:32Z</time>
  <course>195.22</course>
  <speed>0.0</speed>
  <fix>3d</fix>
</trkpt>
<trkpt lat="40.0728421" lon="-105.230575">
  <ele>1587.02</ele>
  <time>2026-08-27T18:28:32Z</time>
  <course>10.26</course>
  <speed>0.022360679774997897</speed>
  <fix>3d</fix>
</trkpt>
<trkpt lat="40.0728421" lon="-105.2305751">
  <ele>1587.07</ele>
  <time>2026-08-27T18:28:32Z</time>
  <course>208.37</course>
  <speed>0.0</speed>
  <fix>3d</fix>
</trkpt>
<trkpt lat="40.0728421" lon="-105.230575">
  <ele>1586.92</ele>
  <time>2026-08-27T18:28:32Z</time>
  <course>10.26</course>
  <speed>0.022360679774997897</speed>
  <fix>3d</fix>
</trkpt>
<trkpt lat="40.0728421" lon="-105.2305751">
  <ele>1586.97</ele>
  <time>2026-08-27T18:28:32Z</time>
  <course>219.84</course>
  <speed>0.0</speed>
  <fix>3d</fix>
</trkpt>
<trkpt lat="40.0728421" lon="-105.2305751">
  <ele>1586.82</ele>
  <time>2026-08-27T18:28:32Z</time>
  <course>10.27</course>
  <speed>0.01414213562373095</speed>
  <fix>3d</fix>
</trkpt>
<trkpt lat="40.0728421" lon="-105.2305751">
  <ele>1586.87</ele>
  <time>2026-08-27T18:28:32Z</time>
  <course>236.11</course>
  <speed>0.0</speed>
  <fix>3d</fix>
</trkpt>
<trkpt lat="40.0728421" lon="-105.2305751">
  <ele>1586.72</ele>
  <time>2026-08-27T18:28:32Z</time>
  <course>10.28</course>
  <speed>0.01</speed>
  <fix>3d</fix>
</trkpt>
<trkpt lat="40.0728421" lon="-105.2305751">
  <ele>1586.77</ele>
  <time>2026-08-27T18:28:32Z</time>
  <course>255.05</course>
  <speed>0.0</speed>
  <fix>3d</fix>
</trkpt>
<trkpt lat="40.0728421" lon="-105.2305751">
  <ele>1586.62</ele>
  <time>2026-08-27T18:28:32Z</time>
  <course>10.27</course>
  <speed>0.01</speed>
  <fix>3d</fix>
</trkpt>
<trkpt lat="40.0728421" lon="-105.2305751">
  <ele>1586.67</ele>
  <time>2026-08-27T18:28:32Z</time>
  <course>271.0</course>
  <speed>0.0</speed>
  <fix>3d</fix>
</trkpt>
<trkpt lat="40.0728421" lon="-105.2305751">
  <ele>1586.52</ele>
  <time>2026-08-27T18:28:32Z</time>
  <course>10.27</course>
  <speed>0.01</speed>
  <fix>3d</fix>
</trkpt>
<trkpt lat="40.0728421" lon="-105.2305751">
  <ele>1586.58</ele>
  <time>2026-08-27T18:28:32Z</time>
  <course>282.8</course>
  <speed>0.0</speed>
  <fix>3d</fix>
</trkpt>
<trkpt lat="40.0728421" lon="-105.2305751">
  <ele>1586.42</ele>
  <time>2026-08-27T18:28:32Z</time>
  <course>10.28</course>
  <speed>0.01414213562373095</speed>
  <fix>3d</fix>
</trkpt>
<trkpt lat="40.0728421" lon="-105.2305751">
  <ele>1586.48</ele>
  <time>2026-08-27T18:28:32Z</time>
  <course>291.86</course>
  <speed>0.0</speed>
  <fix>3d</fix>
</trkpt>
<trkpt lat="40.0728421" lon="-105.2305751">
  <ele>1586.32</ele>
  <time>2026-08-27T18:28:32Z</time>
  <course>10.26</course>
  <speed>0.01414213562373095</speed>
  <fix>3d</fix>
</trkpt>
<trkpt lat="40.0728421" lon="-105.2305751">
  <ele>1586.38</ele>
  <time>2026-08-27T18:28:32Z</time>
  <course>299.41</course>
  <speed>0.0</speed>
  <fix>3d</fix>
</trkpt>
<trkpt lat="40.0728421" lon="-105.2305751">
  <ele>1586.22</ele>
  <time>2026-08-27T18:28:32Z</time>
  <course>10.29</course>
  <speed>0.01414213562373095</speed>
  <fix>3d</fix>
</trkpt>
<trkpt lat="40.0728421" lon="-105.2305751">
  <ele>1586.28</ele>
  <time>2026-08-27T18:28:32Z</time>
  <course>304.92</course>
  <speed>0.0</speed>
  <fix>3d</fix>
</trkpt>
<trkpt lat="40.0728421" lon="-105.2305751">
  <ele>1586.13</ele>
  <time>2026-08-27T18:28:32Z</time>
  <course>10.28</course>
  <speed>0.01</speed>
  <fix>3d</fix>
</trkpt>
<trkpt lat="40.0728421" lon="-105.2305751">
  <ele>1586.17</ele>
  <time>2026-08-27T18:28:32Z</time>
  <course>308.87</course>
  <speed>0.0</speed>
  <fix>3d</fix>
</trkpt>
<trkpt lat="40.0728421" lon="-105.2305751">
  <ele>1586.14</ele>
  <time>2026-08-27T18:28:32Z</time>
  <course>10.3</course>
  <speed>0.022360679774997897</speed>
  <fix>3d</fix>
</trkpt>
<trkpt lat="40.0728421" lon="-105.2305752">
  <ele>1586.1</ele>
  <time>2026-08-27T18:28:32Z</time>
  <course>287.76</course>
  <speed>0.01</speed>
  <fix>3d</fix>
</trkpt>
<trkpt lat="40.0728421" lon="-105.2305751">
  <ele>1586.15</ele>
  <time>2026-08-27T18:28:32Z</time>
  <course>10.35</course>
  <speed>0.0282842712474619</speed>
  <fix>3d</fix>
</trkpt>
<trkpt lat="40.0728421" lon="-105.2305753">
  <ele>1586.08</ele>
  <time>2026-08-27T18:28:32Z</time>
  <course>283.77</course>
  <speed>0.01</speed>
  <fix>3d</fix>
</trkpt>
<trkpt lat="40.072842" lon="-105.2305751">
  <ele>1586.15</ele>
  <time>2026-08-27T18:28:32Z</time>
  <course>10.39</course>
  <speed>0.022360679774997897</speed>
  <fix>3d</fix>
</trkpt>
<trkpt lat="40.0728421" lon="-105.2305753">
  <ele>1586.09</ele>
  <time>2026-08-27T18:28:32Z</time>
  <course>71.75</course>
  <speed>0.0</speed>
  <fix>3d</fix>
</trkpt>
<trkpt lat="40.072842" lon="-105.2305751">
  <ele>1586.15</ele>
  <time>2026-08-27T18:28:32Z</time>
  <course>10.42</course>
  <speed>0.022360679774997897</speed>
  <fix>3d</fix>
</trkpt>
<trkpt lat="40.0728421" lon="-105.2305753">
  <ele>1586.09</ele>
  <time>2026-08-27T18:28:32Z</time>
  <course>91.73</course>
  <speed>0.0</speed>
  <fix>3d</fix>
</trkpt>
<trkpt lat="40.072842" lon="-105.2305751">
  <ele>1586.15</ele>
  <time>2026-08-27T18:28:32Z</time>
  <course>10.46</course>
  <speed>0.022360679774997897</speed>
  <fix>3d</fix>
</trkpt>
<trkpt lat="40.0728421" lon="-105.2305753">
  <ele>1586.09</ele>
  <time>2026-08-27T18:28:32Z</time>
  <course>326.21</course>
  <speed>0.0</speed>
  <fix>3d</fix>
</trkpt>
<trkpt lat="40.072842" lon="-105.2305751">
  <ele>1586.15</ele>
  <time>2026-08-27T18:28:32Z</time>
  <course>10.48</course>
  <speed>0.022360679774997897</speed>
  <fix>3d</fix>
</trkpt>
<trkpt lat="40.0728421" lon="-105.2305753">
  <ele>1586.09</ele>
  <time>2026-08-27T18:28:32Z</time>
  <course>349.76</course>
  <speed>0.0</speed>
  <fix>3d</fix>
</trkpt>
<trkpt lat="40.072842" lon="-105.2305751">
  <ele>1586.15</ele>
  <time>2026-08-27T18:28:32Z</time>
  <course>10.51</course>
  <speed>0.022360679774997897</speed>
  <fix>3d</fix>
</trkpt>
<trkpt lat="40.0728421" lon="-105.2305753">
  <ele>1586.09</ele>
  <time>2026-08-27T18:28:32Z</time>
  <course>26.92</course>
  <speed>0.0</speed>
  <fix>3d</fix>
</trkpt>
<trkpt lat="40.072842" lon="-105.2305751">
  <ele>1586.15</ele>
  <time>2026-08-27T18:28:32Z</time>
  <course>10.53</course>
  <speed>0.022360679774997897</speed>
  <fix>3d</fix>
</trkpt>
<trkpt lat="40.0728421" lon="-105.2305753">
  <ele>1586.09</ele>
  <time>2026-08-27T18:28:32Z</time>
  <course>4.28</course>
  <speed>0.0</speed>
  <fix>3d</fix>
</trkpt>
<trkpt lat="40.072842" lon="-105.2305751">
  <ele>1586.15</ele>
  <time>2026-08-27T18:28:32Z</time>
  <course>10.56</course>
  <speed>0.022360679774997897</speed>
  <fix>3d</fix>
</trkpt>
<trkpt lat="40.0728421" lon="-105.2305753">
  <ele>1586.09</ele>
  <time>2026-08-27T18:28:32Z</time>
  <course>332.7</course>
  <speed>0.0</speed>
  <fix>3d</fix>
</trkpt>
<trkpt lat="40.072842" lon="-105.2305751">
  <ele>1586.15</ele>
  <time>2026-08-27T18:28:32Z</time>
  <course>10.58</course>
  <speed>0.0282842712474619</speed>
  <fix>3d</fix>
</trkpt>
<trkpt lat="40.0728421" lon="-105.2305753">
  <ele>1586.09</ele>
  <time>2026-08-27T18:28:32Z</time>
  <course>10.37</course>
  <speed>0.0</speed>
  <fix>3d</fix>
</trkpt>
<trkpt lat="40.072842" lon="-105.2305751">
  <ele>1586.15</ele>
  <time>2026-08-27T18:28:32Z</time>
  <course>10.58</course>
  <speed>0.03605551275463989</speed>
  <fix>3d</fix>
</trkpt>
<trkpt lat="40.0728421" lon="-105.2305753">
  <ele>1586.09</ele>
  <time>2026-08-27T18:28:32Z</time>
  <course>98.84</course>
  <speed>0.0</speed>
  <fix>3d</fix>
</trkpt>
<trkpt lat="40.072842" lon="-105.2305751">
  <ele>1586.15</ele>
  <time>2026-08-27T18:28:32Z</time>
  <course>10.56</course>
  <speed>0.0282842712474619</speed>
  <fix>3d</fix>
</trkpt>
<trkpt lat="40.0728421" lon="-105.2305753">
  <ele>1586.09</ele>
  <time>2026-08-27T18:28:32Z</time>
  <course>104.25</course>
  <speed>0.01</speed>
  <fix>3d</fix>
</trkpt>
<trkpt lat="40.072842" lon="-105.2305751">
  <ele>1586.14</ele>
  <time>2026-08-27T18:28:32Z</time>
  <course>10.54</course>
  <speed>0.022360679774997897</speed>
  <fix>3d</fix>
</trkpt>
<trkpt lat="40.0728421" lon="-105.2305753">
  <ele>1586.09</ele>
  <time>2026-08-27T18:28:32Z</time>
  <course>111.6</course>
  <speed>0.0</speed>
  <fix>3d</fix>
</trkpt>
<trkpt lat="40.072842" lon="-105.2305751">
  <ele>1586.14</ele>
  <time>2026-08-27T18:28:32Z</time>
  <course>10.54</course>
  <speed>0.022360679774997897</speed>
  <fix>3d</fix>
</trkpt>
<trkpt lat="40.0728421" lon="-105.2305753">
  <ele>1586.09</ele>
  <time>2026-08-27T18:28:32Z</time>
  <course>239.25</course>
  <speed>0.0</speed>
  <fix>3d</fix>
</trkpt>
<trkpt lat="40.072842" lon="-105.2305751">
  <ele>1586.14</ele>
  <time>2026-08-27T18:28:32Z</time>
  <course>10.53</course>
  <speed>0.022360679774997897</speed>
  <fix>3d</fix>
</trkpt>
<trkpt lat="40.0728421" lon="-105.2305753">
  <ele>1586.09</ele>
  <time>2026-08-27T18:28:32Z</time>
  <course>256.76</course>
  <speed>0.0</speed>
  <fix>3d</fix>
</trkpt>
<trkpt lat="40.072842" lon="-105.2305751">
  <ele>1586.14</ele>
  <time>2026-08-27T18:28:33Z</time>
  <course>10.53</course>
  <speed>0.022360679774997897</speed>
  <fix>3d</fix>
</trkpt>
<trkpt lat="40.0728421" lon="-105.2305753">
  <ele>1586.09</ele>
  <time>2026-08-27T18:28:33Z</time>
  <course>236.37</course>
  <speed>0.0</speed>
  <fix>3d</fix>
</trkpt>
<trkpt lat="40.072842" lon="-105.2305751">
  <ele>1586.14</ele>
  <time>2026-08-27T18:28:33Z</time>
  <course>10.53</course>
  <speed>0.022360679774997897</speed>
  <fix>3d</fix>
</trkpt>
<trkpt lat="40.0728421" lon="-105.2305753">
  <ele>1586.09</ele>
  <time>2026-08-27T18:28:33Z</time>
  <course>235.62</course>
  <speed>0.0</speed>
  <fix>3d</fix>
</trkpt>
<trkpt lat="40.072842" lon="-105.2305751">
  <ele>1586.14</ele>
  <time>2026-08-27T18:28:33Z</time>
  <course>10.53</course>
  <speed>0.022360679774997897</speed>
  <fix>3d</fix>
</trkpt>
<trkpt lat="40.0728421" lon="-105.2305753">
  <ele>1586.09</ele>
  <time>2026-08-27T18:28:33Z</time>
  <course>227.84</course>
  <speed>0.0</speed>
  <fix>3d</fix>
</trkpt>
<trkpt lat="40.072842" lon="-105.2305751">
  <ele>1586.14</ele>
  <time>2026-08-27T18:28:33Z</time>
  <course>10.53</course>
  <speed>0.022360679774997897</speed>
  <fix>3d</fix>
</trkpt>
<trkpt lat="40.0728421" lon="-105.2305753">
  <ele>1586.09</ele>
  <time>2026-08-27T18:28:33Z</time>
  <course>130.98</course>
  <speed>0.0</speed>
  <fix>3d</fix>
</trkpt>
<trkpt lat="40.072842" lon="-105.2305751">
  <ele>1586.14</ele>
  <time>2026-08-27T18:28:33Z</time>
  <course>10.53</course>
  <speed>0.022360679774997897</speed>
  <fix>3d</fix>
</trkpt>
<trkpt lat="40.0728421" lon="-105.2305753">
  <ele>1586.09</ele>
  <time>2026-08-27T18:28:33Z</time>
  <course>6.07</course>
  <speed>0.0</speed>
  <fix>3d</fix>
</trkpt>
<trkpt lat="40.072842" lon="-105.2305751">
  <ele>1586.14</ele>
  <time>2026-08-27T18:28:33Z</time>
  <course>10.53</course>
  <speed>0.022360679774997897</speed>
  <fix>3d</fix>
</trkpt>
<trkpt lat="40.0728421" lon="-105.2305753">
  <ele>1586.09</ele>
  <time>2026-08-27T18:28:33Z</time>
  <course>281.86</course>
  <speed>0.0</speed>
  <fix>3d</fix>
</trkpt>
<trkpt lat="40.072842" lon="-105.2305751">
  <ele>1586.13</ele>
  <time>2026-08-27T18:28:33Z</time>
  <course>10.53</course>
  <speed>0.022360679774997897</speed>
  <fix>3d</fix>
</trkpt>
<trkpt lat="40.0728421" lon="-105.2305753">
  <ele>1586.09</ele>
  <time>2026-08-27T18:28:33Z</time>
  <course>275.73</course>
  <speed>0.0</speed>
  <fix>3d</fix>
</trkpt>
<trkpt lat="40.072842" lon="-105.2305751">
  <ele>1586.13</ele>
  <time>2026-08-27T18:28:33Z</time>
  <course>10.53</course>
  <speed>0.022360679774997897</speed>
  <fix>3d</fix>
</trkpt>
<trkpt lat="40.0728421" lon="-105.2305753">
  <ele>1586.09</ele>
  <time>2026-08-27T18:28:33Z</time>
  <course>288.95</course>
  <speed>0.0</speed>
  <fix>3d</fix>
</trkpt>
<trkpt lat="40.072842" lon="-105.2305751">
  <ele>1586.14</ele>
  <time>2026-08-27T18:28:33Z</time>
  <course>10.53</course>
  <speed>0.022360679774997897</speed>
  <fix>3d</fix>
</trkpt>
<trkpt lat="40.0728421" lon="-105.2305753">
  <ele>1586.09</ele>
  <time>2026-08-27T18:28:33Z</time>
  <course>288.45</course>
  <speed>0.0</speed>
  <fix>3d</fix>
</trkpt>
<trkpt lat="40.072842" lon="-105.2305751">
  <ele>1586.14</ele>
  <time>2026-08-27T18:28:33Z</time>
  <course>10.53</course>
  <speed>0.022360679774997897</speed>
  <fix>3d</fix>
</trkpt>
<trkpt lat="40.0728421" lon="-105.2305753">
  <ele>1586.09</ele>
  <time>2026-08-27T18:28:33Z</time>
  <course>287.02</course>
  <speed>0.0</speed>
  <fix>3d</fix>
</trkpt>
<trkpt lat="40.072842" lon="-105.2305751">
  <ele>1586.14</ele>
  <time>2026-08-27T18:28:33Z</time>
  <course>10.52</course>
  <speed>0.022360679774997897</speed>
  <fix>3d</fix>
</trkpt>
<trkpt lat="40.0728421" lon="-105.2305753">
  <ele>1586.09</ele>
  <time>2026-08-27T18:28:33Z</time>
  <course>287.99</course>
  <speed>0.0</speed>
  <fix>3d</fix>
</trkpt>
<trkpt lat="40.072842" lon="-105.2305751">
  <ele>1586.14</ele>
  <time>2026-08-27T18:28:33Z</time>
  <course>10.52</course>
  <speed>0.022360679774997897</speed>
  <fix>3d</fix>
</trkpt>
<trkpt lat="40.0728421" lon="-105.2305753">
  <ele>1586.09</ele>
  <time>2026-08-27T18:28:33Z</time>
  <course>288.79</course>
  <speed>0.0</speed>
  <fix>3d</fix>
</trkpt>
<trkpt lat="40.072842" lon="-105.2305751">
  <ele>1586.15</ele>
  <time>2026-08-27T18:28:33Z</time>
  <course>10.52</course>
  <speed>0.022360679774997897</speed>
  <fix>3d</fix>
</trkpt>
<trkpt lat="40.0728421" lon="-105.2305753">
  <ele>1586.09</ele>
  <time>2026-08-27T18:28:33Z</time>
  <course>289.2</course>
  <speed>0.0</speed>
  <fix>3d</fix>
</trkpt>
<trkpt lat="40.072842" lon="-105.2305751">
  <ele>1586.15</ele>
  <time>2026-08-27T18:28:33Z</time>
  <course>10.52</course>
  <speed>0.022360679774997897</speed>
  <fix>3d</fix>
</trkpt>
<trkpt lat="40.0728421" lon="-105.2305753">
  <ele>1586.09</ele>
  <time>2026-08-27T18:28:33Z</time>
  <course>289.66</course>
  <speed>0.0</speed>
  <fix>3d</fix>
</trkpt>
<trkpt lat="40.072842" lon="-105.2305751">
  <ele>1586.15</ele>
  <time>2026-08-27T18:28:33Z</time>
  <course>10.52</course>
  <speed>0.022360679774997897</speed>
  <fix>3d</fix>
</trkpt>
<trkpt lat="40.0728421" lon="-105.2305753">
  <ele>1586.09</ele>
  <time>2026-08-27T18:28:33Z</time>
  <course>290.14</course>
  <speed>0.0</speed>
  <fix>3d</fix>
</trkpt>
<trkpt lat="40.072842" lon="-105.2305751">
  <ele>1586.15</ele>
  <time>2026-08-27T18:28:33Z</time>
  <course>10.52</course>
  <speed>0.022360679774997897</speed>
  <fix>3d</fix>
</trkpt>
<trkpt lat="40.0728421" lon="-105.2305753">
  <ele>1586.09</ele>
  <time>2026-08-27T18:28:33Z</time>
  <course>290.57</course>
  <speed>0.0</speed>
  <fix>3d</fix>
</trkpt>
<trkpt lat="40.072842" lon="-105.2305751">
  <ele>1586.15</ele>
  <time>2026-08-27T18:28:33Z</time>
  <course>10.52</course>
  <speed>0.022360679774997897</speed>
  <fix>3d</fix>
</trkpt>
<trkpt lat="40.0728421" lon="-105.2305753">
  <ele>1586.09</ele>
  <time>2026-08-27T18:28:33Z</time>
  <course>290.96</course>
  <speed>0.0</speed>
  <fix>3d</fix>
</trkpt>
<trkpt lat="40.072842" lon="-105.2305751">
  <ele>1586.15</ele>
  <time>2026-08-27T18:28:33Z</time>
  <course>10.52</course>
  <speed>0.022360679774997897</speed>
  <fix>3d</fix>
</trkpt>
<trkpt lat="40.0728421" lon="-105.2305753">
  <ele>1586.09</ele>
  <time>2026-08-27T18:28:33Z</time>
  <course>291.34</course>
  <speed>0.0</speed>
  <fix>3d</fix>
</trkpt>
<trkpt lat="40.072842" lon="-105.2305751">
  <ele>1586.15</ele>
  <time>2026-08-27T18:28:33Z</time>
  <course>10.52</course>
  <speed>0.022360679774997897</speed>
  <fix>3d</fix>
</trkpt>
<trkpt lat="40.0728421" lon="-105.2305753">
  <ele>1586.09</ele>
  <time>2026-08-27T18:28:33Z</time>
  <course>291.68</course>
  <speed>0.0</speed>
  <fix>3d</fix>
</trkpt>
<trkpt lat="40.072842" lon="-105.2305751">
  <ele>1586.15</ele>
  <time>2026-08-27T18:28:33Z</time>
  <course>10.52</course>
  <speed>0.022360679774997897</speed>
  <fix>3d</fix>
</trkpt>
<trkpt lat="40.0728421" lon="-105.2305753">
  <ele>1586.09</ele>
  <time>2026-08-27T18:28:33Z</time>
  <course>292.0</course>
  <speed>0.0</speed>
  <fix>3d</fix>
</trkpt>
<trkpt lat="40.072842" lon="-105.2305751">
  <ele>1586.15</ele>
  <time>2026-08-27T18:28:33Z</time>
  <course>10.52</course>
  <speed>0.022360679774997897</speed>
  <fix>3d</fix>
</trkpt>
<trkpt lat="40.0728421" lon="-105.2305753">
  <ele>1586.09</ele>
  <time>2026-08-27T18:28:33Z</time>
  <course>292.3</course>
  <speed>0.0</speed>
  <fix>3d</fix>
</trkpt>
<trkpt lat="40.072842" lon="-105.2305751">
  <ele>1586.15</ele>
  <time>2026-08-27T18:28:33Z</time>
  <course>10.52</course>
  <speed>0.022360679774997897</speed>
  <fix>3d</fix>
</trkpt>
<trkpt lat="40.0728421" lon="-105.2305753">
  <ele>1586.09</ele>
  <time>2026-08-27T18:28:33Z</time>
  <course>292.57</course>
  <speed>0.0</speed>
  <fix>3d</fix>
</trkpt>
<trkpt lat="40.072842" lon="-105.2305751">
  <ele>1586.15</ele>
  <time>2026-08-27T18:28:33Z</time>
  <course>10.52</course>
  <speed>0.022360679774997897</speed>
  <fix>3d</fix>
</trkpt>
<trkpt lat="40.0728421" lon="-105.2305753">
  <ele>1586.09</ele>
  <time>2026-08-27T18:28:33Z</time>
  <course>292.82</course>
  <speed>0.0</speed>
  <fix>3d</fix>
</trkpt>
<trkpt lat="40.072842" lon="-105.2305751">
  <ele>1586.15</ele>
  <time>2026-08-27T18:28:33Z</time>
  <course>10.52</course>
  <speed>0.022360679774997897</speed>
  <fix>3d</fix>
</trkpt>
<trkpt lat="40.0728421" lon="-105.2305753">
  <ele>1586.09</ele>
  <time>2026-08-27T18:28:33Z</time>
  <course>293.05</course>
  <speed>0.0</speed>
  <fix>3d</fix>
</trkpt>
<trkpt lat="40.072842" lon="-105.2305751">
  <ele>1586.15</ele>
  <time>2026-08-27T18:28:33Z</time>
  <course>10.52</course>
  <speed>0.022360679774997897</speed>
  <fix>3d</fix>
</trkpt>
<trkpt lat="40.0728421" lon="-105.2305753">
  <ele>1586.09</ele>
  <time>2026-08-27T18:28:33Z</time>
  <course>293.26</course>
  <speed>0.0</speed>
  <fix>3d</fix>
</trkpt>
<trkpt lat="40.072842" lon="-105.2305751">
  <ele>1586.15</ele>
  <time>2026-08-27T18:28:33Z</time>
  <course>10.51</course>
  <speed>0.022360679774997897</speed>
  <fix>3d</fix>
</trkpt>
<trkpt lat="40.0728421" lon="-105.2305753">
  <ele>1586.09</ele>
  <time>2026-08-27T18:28:33Z</time>
  <course>293.46</course>
  <speed>0.0</speed>
  <fix>3d</fix>
</trkpt>
<trkpt lat="40.072842" lon="-105.2305751">
  <ele>1586.15</ele>
  <time>2026-08-27T18:28:33Z</time>
  <course>10.51</course>
  <speed>0.022360679774997897</speed>
  <fix>3d</fix>
</trkpt>
<trkpt lat="40.0728421" lon="-105.2305753">
  <ele>1586.09</ele>
  <time>2026-08-27T18:28:33Z</time>
  <course>293.64</course>
  <speed>0.0</speed>
  <fix>3d</fix>
</trkpt>
<trkpt lat="40.072842" lon="-105.2305751">
  <ele>1586.15</ele>
  <time>2026-08-27T18:28:33Z</time>
  <course>10.51</course>
  <speed>0.022360679774997897</speed>
  <fix>3d</fix>
</trkpt>
<trkpt lat="40.0728421" lon="-105.2305753">
  <ele>1586.09</ele>
  <time>2026-08-27T18:28:33Z</time>
  <course>293.81</course>
  <speed>0.0</speed>
  <fix>3d</fix>
</trkpt>
<trkpt lat="40.072842" lon="-105.2305751">
  <ele>1586.15</ele>
  <time>2026-08-27T18:28:33Z</time>
  <course>10.51</course>
  <speed>0.01414213562373095</speed>
  <fix>3d</fix>
</trkpt>
<trkpt lat="40.0728421" lon="-105.2305753">
  <ele>1586.09</ele>
  <time>2026-08-27T18:28:33Z</time>
  <course>293.96</course>
  <speed>0.0</speed>
  <fix>3d</fix>
</trkpt>
<trkpt lat="40.072842" lon="-105.2305751">
  <ele>1586.15</ele>
  <time>2026-08-27T18:28:33Z</time>
  <course>10.51</course>
  <speed>0.01414213562373095</speed>
  <fix>3d</fix>
</trkpt>
<trkpt lat="40.0728421" lon="-105.2305753">
  <ele>1586.09</ele>
  <time>2026-08-27T18:28:33Z</time>
  <course>294.1</course>
  <speed>0.0</speed>
  <fix>3d</fix>
</trkpt>
<trkpt lat="40.072842" lon="-105.2305751">
  <ele>1586.15</ele>
  <time>2026-08-27T18:28:33Z</time>
  <course>10.51</course>
  <speed>0.01414213562373095</speed>
  <fix>3d</fix>
</trkpt>
<trkpt lat="40.0728421" lon="-105.2305753">
  <ele>1586.09</ele>
  <time>2026-08-27T18:28:33Z</time>
  <course>294.23</course>
  <speed>0.0</speed>
  <fix>3d</fix>
</trkpt>
<trkpt lat="40.072842" lon="-105.2305751">
  <ele>1586.15</ele>
  <time>2026-08-27T18:28:33Z</time>
  <course>10.51</course>
  <speed>0.01414213562373095</speed>
  <fix>3d</fix>
</trkpt>
<trkpt lat="40.0728421" lon="-105.2305753">
  <ele>1586.09</ele>
  <time>2026-08-27T18:28:33Z</time>
  <course>294.35</course>
  <speed>0.0</speed>
  <fix>3d</fix>
</trkpt>
<trkpt lat="40.072842" lon="-105.2305751">
  <ele>1586.15</ele>
  <time>2026-08-27T18:28:33Z</time>
  <course>10.51</course>
  <speed>0.01414213562373095</speed>
  <fix>3d</fix>
</trkpt>
<trkpt lat="40.0728421" lon="-105.2305753">
  <ele>1586.09</ele>
  <time>2026-08-27T18:28:33Z</time>
  <course>294.46</course>
  <speed>0.0</speed>
  <fix>3d</fix>
</trkpt>
<trkpt lat="40.072842" lon="-105.2305751">
  <ele>1586.15</ele>
  <time>2026-08-27T18:28:33Z</time>
  <course>10.51</course>
  <speed>0.01414213562373095</speed>
  <fix>3d</fix>
</trkpt>
<trkpt lat="40.0728421" lon="-105.2305753">
  <ele>1586.09</ele>
  <time>2026-08-27T18:28:33Z</time>
  <course>294.57</course>
  <speed>0.0</speed>
  <fix>3d</fix>
</trkpt>
<trkpt lat="40.072842" lon="-105.2305751">
  <ele>1586.15</ele>
  <time>2026-08-27T18:28:33Z</time>
  <course>10.51</course>
  <speed>0.01414213562373095</speed>
  <fix>3d</fix>
</trkpt>
<trkpt lat="40.0728421" lon="-105.2305753">
  <ele>1586.09</ele>
  <time>2026-08-27T18:28:33Z</time>
  <course>294.66</course>
  <speed>0.0</speed>
  <fix>3d</fix>
</trkpt>
<trkpt lat="40.072842" lon="-105.2305751">
  <ele>1586.15</ele>
  <time>2026-08-27T18:28:33Z</time>
  <course>10.51</course>
  <speed>0.01414213562373095</speed>
  <fix>3d</fix>
</trkpt>
<trkpt lat="40.0728421" lon="-105.2305753">
  <ele>1586.09</ele>
  <time>2026-08-27T18:28:33Z</time>
  <course>294.75</course>
  <speed>0.0</speed>
  <fix>3d</fix>
</trkpt>
<trkpt lat="40.072842" lon="-105.2305751">
  <ele>1586.15</ele>
  <time>2026-08-27T18:28:33Z</time>
  <course>10.51</course>
  <speed>0.01414213562373095</speed>
  <fix>3d</fix>
</trkpt>
<trkpt lat="40.0728421" lon="-105.2305753">
  <ele>1586.09</ele>
  <time>2026-08-27T18:28:33Z</time>
  <course>294.83</course>
  <speed>0.0</speed>
  <fix>3d</fix>
</trkpt>
<trkpt lat="40.072842" lon="-105.2305751">
  <ele>1586.15</ele>
  <time>2026-08-27T18:28:33Z</time>
  <course>10.51</course>
  <speed>0.01414213562373095</speed>
  <fix>3d</fix>
</trkpt>
<trkpt lat="40.0728421" lon="-105.2305753">
  <ele>1586.09</ele>
  <time>2026-08-27T18:28:33Z</time>
  <course>294.9</course>
  <speed>0.0</speed>
  <fix>3d</fix>
</trkpt>
<trkpt lat="40.072842" lon="-105.2305751">
  <ele>1586.15</ele>
  <time>2026-08-27T18:28:33Z</time>
  <course>10.51</course>
  <speed>0.01414213562373095</speed>
  <fix>3d</fix>
</trkpt>
<trkpt lat="40.0728421" lon="-105.2305753">
  <ele>1586.09</ele>
  <time>2026-08-27T18:28:33Z</time>
  <course>294.97</course>
  <speed>0.0</speed>
  <fix>3d</fix>
</trkpt>
<trkpt lat="40.072842" lon="-105.2305751">
  <ele>1586.15</ele>
  <time>2026-08-27T18:28:33Z</time>
  <course>10.51</course>
  <speed>0.01414213562373095</speed>
  <fix>3d</fix>
</trkpt>
<trkpt lat="40.0728421" lon="-105.2305753">
  <ele>1586.09</ele>
  <time>2026-08-27T18:28:33Z</time>
  <course>295.04</course>
  <speed>0.0</speed>
  <fix>3d</fix>
</trkpt>
<trkpt lat="40.072842" lon="-105.2305751">
  <ele>1586.15</ele>
  <time>2026-08-27T18:28:33Z</time>
  <course>10.51</course>
  <speed>0.01414213562373095</speed>
  <fix>3d</fix>
</trkpt>
<trkpt lat="40.0728421" lon="-105.2305753">
  <ele>1586.09</ele>
  <time>2026-08-27T18:28:33Z</time>
  <course>295.1</course>
  <speed>0.0</speed>
  <fix>3d</fix>
</trkpt>
<trkpt lat="40.072842" lon="-105.2305751">
  <ele>1586.15</ele>
  <time>2026-08-27T18:28:33Z</time>
  <course>10.51</course>
  <speed>0.01414213562373095</speed>
  <fix>3d</fix>
</trkpt>
<trkpt lat="40.0728421" lon="-105.2305753">
  <ele>1586.09</ele>
  <time>2026-08-27T18:28:33Z</time>
  <course>295.14</course>
  <speed>0.0</speed>
  <fix>3d</fix>
</trkpt>
<trkpt lat="40.072842" lon="-105.2305751">
  <ele>1586.15</ele>
  <time>2026-08-27T18:28:33Z</time>
  <course>10.5</course>
  <speed>0.01414213562373095</speed>
  <fix>3d</fix>
</trkpt>
<trkpt lat="40.0728421" lon="-105.2305753">
  <ele>1586.09</ele>
  <time>2026-08-27T18:28:33Z</time>
  <course>294.87</course>
  <speed>0.0</speed>
  <fix>3d</fix>
</trkpt>
<trkpt lat="40.072842" lon="-105.2305751">
  <ele>1586.15</ele>
  <time>2026-08-27T18:28:33Z</time>
  <course>10.5</course>
  <speed>0.01414213562373095</speed>
  <fix>3d</fix>
</trkpt>
<trkpt lat="40.0728421" lon="-105.2305753">
  <ele>1586.09</ele>
  <time>2026-08-27T18:28:33Z</time>
  <course>294.55</course>
  <speed>0.0</speed>
  <fix>3d</fix>
</trkpt>
<trkpt lat="40.072842" lon="-105.2305751">
  <ele>1586.15</ele>
  <time>2026-08-27T18:28:33Z</time>
  <course>10.51</course>
  <speed>0.01414213562373095</speed>
  <fix>3d</fix>
</trkpt>
<trkpt lat="40.0728421" lon="-105.2305753">
  <ele>1586.09</ele>
  <time>2026-08-27T18:28:33Z</time>
  <course>294.57</course>
  <speed>0.0</speed>
  <fix>3d</fix>
</trkpt>
<trkpt lat="40.072842" lon="-105.2305751">
  <ele>1586.15</ele>
  <time>2026-08-27T18:28:33Z</time>
  <course>10.54</course>
  <speed>0.01414213562373095</speed>
  <fix>3d</fix>
</trkpt>
<trkpt lat="40.0728421" lon="-105.2305753">
  <ele>1586.09</ele>
  <time>2026-08-27T18:28:33Z</time>
  <course>294.63</course>
  <speed>0.0</speed>
  <fix>3d</fix>
</trkpt>
<trkpt lat="40.072842" lon="-105.2305751">
  <ele>1586.15</ele>
  <time>2026-08-27T18:28:33Z</time>
  <course>10.59</course>
  <speed>0.022360679774997897</speed>
  <fix>3d</fix>
</trkpt>
<trkpt lat="40.0728421" lon="-105.2305753">
  <ele>1586.09</ele>
  <time>2026-08-27T18:28:33Z</time>
  <course>283.35</course>
  <speed>0.0</speed>
  <fix>3d</fix>
</trkpt>
<trkpt lat="40.072842" lon="-105.2305751">
  <ele>1586.16</ele>
  <time>2026-08-27T18:28:33Z</time>
  <course>10.64</course>
  <speed>0.022360679774997897</speed>
  <fix>3d</fix>
</trkpt>
<trkpt lat="40.0728421" lon="-105.2305753">
  <ele>1586.09</ele>
  <time>2026-08-27T18:28:33Z</time>
  <course>275.27</course>
  <speed>0.0</speed>
  <fix>3d</fix>
</trkpt>
<trkpt lat="40.072842" lon="-105.2305751">
  <ele>1586.17</ele>
  <time>2026-08-27T18:28:33Z</time>
  <course>10.68</course>
  <speed>0.022360679774997897</speed>
  <fix>3d</fix>
</trkpt>
<trkpt lat="40.0728421" lon="-105.2305753">
  <ele>1586.09</ele>
  <time>2026-08-27T18:28:33Z</time>
  <course>204.01</course>
  <speed>0.0</speed>
  <fix>3d</fix>
</trkpt>
<trkpt lat="40.072842" lon="-105.2305751">
  <ele>1586.18</ele>
  <time>2026-08-27T18:28:33Z</time>
  <course>10.73</course>
  <speed>0.022360679774997897</speed>
  <fix>3d</fix>
</trkpt>
<trkpt lat="40.0728421" lon="-105.2305753">
  <ele>1586.09</ele>
  <time>2026-08-27T18:28:33Z</time>
  <course>34.78</course>
  <speed>0.0</speed>
  <fix>3d</fix>
</trkpt>
<trkpt lat="40.072842" lon="-105.2305751">
  <ele>1586.18</ele>
  <time>2026-08-27T18:28:33Z</time>
  <course>10.78</course>
  <speed>0.022360679774997897</speed>
  <fix>3d</fix>
</trkpt>
<trkpt lat="40.0728421" lon="-105.2305753">
  <ele>1586.09</ele>
  <time>2026-08-27T18:28:33Z</time>
  <course>338.23</course>
  <speed>0.0</speed>
  <fix>3d</fix>
</trkpt>
<trkpt lat="40.072842" lon="-105.2305751">
  <ele>1586.18</ele>
  <time>2026-08-27T18:28:33Z</time>
  <course>10.82</course>
  <speed>0.022360679774997897</speed>
  <fix>3d</fix>
</trkpt>
<trkpt lat="40.0728421" lon="-105.2305753">
  <ele>1586.09</ele>
  <time>2026-08-27T18:28:33Z</time>
  <course>90.49</course>
  <speed>0.0</speed>
  <fix>3d</fix>
</trkpt>
<trkpt lat="40.072842" lon="-105.2305751">
  <ele>1586.17</ele>
  <time>2026-08-27T18:28:33Z</time>
  <course>10.87</course>
  <speed>0.022360679774997897</speed>
  <fix>3d</fix>
</trkpt>
<trkpt lat="40.0728421" lon="-105.2305753">
  <ele>1586.09</ele>
  <time>2026-08-27T18:28:33Z</time>
  <course>128.22</course>
  <speed>0.0</speed>
  <fix>3d</fix>
</trkpt>
<trkpt lat="40.072842" lon="-105.2305751">
  <ele>1586.17</ele>
  <time>2026-08-27T18:28:33Z</time>
  <course>10.91</course>
  <speed>0.022360679774997897</speed>
  <fix>3d</fix>
</trkpt>
<trkpt lat="40.0728421" lon="-105.2305753">
  <ele>1586.09</ele>
  <time>2026-08-27T18:28:33Z</time>
  <course>356.64</course>
  <speed>0.0</speed>
  <fix>3d</fix>
</trkpt>
<trkpt lat="40.072842" lon="-105.2305751">
  <ele>1586.16</ele>
  <time>2026-08-27T18:28:33Z</time>
  <course>10.96</course>
  <speed>0.01414213562373095</speed>
  <fix>3d</fix>
</trkpt>
<trkpt lat="40.0728421" lon="-105.2305753">
  <ele>1586.09</ele>
  <time>2026-08-27T18:28:33Z</time>
  <course>297.67</course>
  <speed>0.0</speed>
  <fix>3d</fix>
</trkpt>
<trkpt lat="40.072842" lon="-105.2305751">
  <ele>1586.16</ele>
  <time>2026-08-27T18:28:33Z</time>
  <course>11.01</course>
  <speed>0.01414213562373095</speed>
  <fix>3d</fix>
</trkpt>
<trkpt lat="40.0728421" lon="-105.2305753">
  <ele>1586.09</ele>
  <time>2026-08-27T18:28:33Z</time>
  <course>269.11</course>
  <speed>0.0</speed>
  <fix>3d</fix>
</trkpt>
<trkpt lat="40.072842" lon="-105.2305751">
  <ele>1586.16</ele>
  <time>2026-08-27T18:28:33Z</time>
  <course>11.05</course>
  <speed>0.01414213562373095</speed>
  <fix>3d</fix>
</trkpt>
<trkpt lat="40.0728421" lon="-105.2305753">
  <ele>1586.09</ele>
  <time>2026-08-27T18:28:33Z</time>
  <course>297.74</course>
  <speed>0.0</speed>
  <fix>3d</fix>
</trkpt>
<trkpt lat="40.072842" lon="-105.2305751">
  <ele>1586.16</ele>
  <time>2026-08-27T18:28:33Z</time>
  <course>11.1</course>
  <speed>0.01414213562373095</speed>
  <fix>3d</fix>
</trkpt>
<trkpt lat="40.0728421" lon="-105.2305753">
  <ele>1586.09</ele>
  <time>2026-08-27T18:28:33Z</time>
  <course>297.98</course>
  <speed>0.0</speed>
  <fix>3d</fix>
</trkpt>
<trkpt lat="40.072842" lon="-105.2305751">
  <ele>1586.15</ele>
  <time>2026-08-27T18:28:33Z</time>
  <course>11.15</course>
  <speed>0.01414213562373095</speed>
  <fix>3d</fix>
</trkpt>
<trkpt lat="40.0728421" lon="-105.2305753">
  <ele>1586.09</ele>
  <time>2026-08-27T18:28:33Z</time>
  <course>295.54</course>
  <speed>0.0</speed>
  <fix>3d</fix>
</trkpt>
<trkpt lat="40.072842" lon="-105.2305751">
  <ele>1586.15</ele>
  <time>2026-08-27T18:28:33Z</time>
  <course>11.2</course>
  <speed>0.01414213562373095</speed>
  <fix>3d</fix>
</trkpt>
<trkpt lat="40.0728421" lon="-105.2305753">
  <ele>1586.09</ele>
  <time>2026-08-27T18:28:33Z</time>
  <course>295.69</course>
  <speed>0.0</speed>
  <fix>3d</fix>
</trkpt>
<trkpt lat="40.072842" lon="-105.2305751">
  <ele>1586.15</ele>
  <time>2026-08-27T18:28:33Z</time>
  <course>11.24</course>
  <speed>0.01414213562373095</speed>
  <fix>3d</fix>
</trkpt>
<trkpt lat="40.0728421" lon="-105.2305753">
  <ele>1586.09</ele>
  <time>2026-08-27T18:28:33Z</time>
  <course>296.03</course>
  <speed>0.0</speed>
  <fix>3d</fix>
</trkpt>
<trkpt lat="40.072842" lon="-105.2305751">
  <ele>1586.16</ele>
  <time>2026-08-27T18:28:33Z</time>
  <course>11.29</course>
  <speed>0.01414213562373095</speed>
  <fix>3d</fix>
</trkpt>
<trkpt lat="40.0728421" lon="-105.2305753">
  <ele>1586.09</ele>
  <time>2026-08-27T18:28:33Z</time>
  <course>295.97</course>
  <speed>0.0</speed>
  <fix>3d</fix>
</trkpt>
<trkpt lat="40.072842" lon="-105.2305751">
  <ele>1586.16</ele>
  <time>2026-08-27T18:28:33Z</time>
  <course>11.34</course>
  <speed>0.01414213562373095</speed>
  <fix>3d</fix>
</trkpt>
<trkpt lat="40.0728421" lon="-105.2305753">
  <ele>1586.09</ele>
  <time>2026-08-27T18:28:33Z</time>
  <course>295.93</course>
  <speed>0.0</speed>
  <fix>3d</fix>
</trkpt>
<trkpt lat="40.072842" lon="-105.2305751">
  <ele>1586.15</ele>
  <time>2026-08-27T18:28:33Z</time>
  <course>11.39</course>
  <speed>0.01414213562373095</speed>
  <fix>3d</fix>
</trkpt>
<trkpt lat="40.0728421" lon="-105.2305753">
  <ele>1586.09</ele>
  <time>2026-08-27T18:28:33Z</time>
  <course>295.94</course>
  <speed>0.0</speed>
  <fix>3d</fix>
</trkpt>
<trkpt lat="40.072842" lon="-105.2305751">
  <ele>1586.15</ele>
  <time>2026-08-27T18:28:33Z</time>
  <course>11.44</course>
  <speed>0.01414213562373095</speed>
  <fix>3d</fix>
</trkpt>
<trkpt lat="40.0728421" lon="-105.2305753">
  <ele>1586.09</ele>
  <time>2026-08-27T18:28:33Z</time>
  <course>295.95</course>
  <speed>0.0</speed>
  <fix>3d</fix>
</trkpt>
<trkpt lat="40.072842" lon="-105.2305751">
  <ele>1586.15</ele>
  <time>2026-08-27T18:28:33Z</time>
  <course>11.49</course>
  <speed>0.01414213562373095</speed>
  <fix>3d</fix>
</trkpt>
<trkpt lat="40.0728421" lon="-105.2305753">
  <ele>1586.09</ele>
  <time>2026-08-27T18:28:33Z</time>
  <course>295.94</course>
  <speed>0.0</speed>
  <fix>3d</fix>
</trkpt>
<trkpt lat="40.072842" lon="-105.2305751">
  <ele>1586.15</ele>
  <time>2026-08-27T18:28:33Z</time>
  <course>11.53</course>
  <speed>0.01414213562373095</speed>
  <fix>3d</fix>
</trkpt>
<trkpt lat="40.0728421" lon="-105.2305753">
  <ele>1586.09</ele>
  <time>2026-08-27T18:28:33Z</time>
  <course>295.94</course>
  <speed>0.0</speed>
  <fix>3d</fix>
</trkpt>
<trkpt lat="40.072842" lon="-105.2305751">
  <ele>1586.16</ele>
  <time>2026-08-27T18:28:33Z</time>
  <course>11.58</course>
  <speed>0.01414213562373095</speed>
  <fix>3d</fix>
</trkpt>
<trkpt lat="40.0728421" lon="-105.2305753">
  <ele>1586.09</ele>
  <time>2026-08-27T18:28:33Z</time>
  <course>295.94</course>
  <speed>0.0</speed>
  <fix>3d</fix>
</trkpt>
<trkpt lat="40.072842" lon="-105.2305751">
  <ele>1586.16</ele>
  <time>2026-08-27T18:28:33Z</time>
  <course>11.63</course>
  <speed>0.01414213562373095</speed>
  <fix>3d</fix>
</trkpt>
<trkpt lat="40.0728421" lon="-105.2305753">
  <ele>1586.09</ele>
  <time>2026-08-27T18:28:33Z</time>
  <course>295.94</course>
  <speed>0.0</speed>
  <fix>3d</fix>
</trkpt>
<trkpt lat="40.072842" lon="-105.2305751">
  <ele>1586.16</ele>
  <time>2026-08-27T18:28:33Z</time>
  <course>11.68</course>
  <speed>0.01414213562373095</speed>
  <fix>3d</fix>
</trkpt>
<trkpt lat="40.0728421" lon="-105.2305753">
  <ele>1586.09</ele>
  <time>2026-08-27T18:28:33Z</time>
  <course>295.94</course>
  <speed>0.0</speed>
  <fix>3d</fix>
</trkpt>
<trkpt lat="40.072842" lon="-105.2305751">
  <ele>1586.17</ele>
  <time>2026-08-27T18:28:33Z</time>
  <course>11.73</course>
  <speed>0.01414213562373095</speed>
  <fix>3d</fix>
</trkpt>
<trkpt lat="40.0728421" lon="-105.2305753">
  <ele>1586.09</ele>
  <time>2026-08-27T18:28:33Z</time>
  <course>295.94</course>
  <speed>0.0</speed>
  <fix>3d</fix>
</trkpt>
<trkpt lat="40.072842" lon="-105.2305751">
  <ele>1586.17</ele>
  <time>2026-08-27T18:28:33Z</time>
  <course>11.78</course>
  <speed>0.01414213562373095</speed>
  <fix>3d</fix>
</trkpt>
<trkpt lat="40.0728421" lon="-105.2305753">
  <ele>1586.09</ele>
  <time>2026-08-27T18:28:33Z</time>
  <course>295.94</course>
  <speed>0.0</speed>
  <fix>3d</fix>
</trkpt>
<trkpt lat="40.072842" lon="-105.2305751">
  <ele>1586.16</ele>
  <time>2026-08-27T18:28:33Z</time>
  <course>11.83</course>
  <speed>0.01414213562373095</speed>
  <fix>3d</fix>
</trkpt>
<trkpt lat="40.0728421" lon="-105.2305753">
  <ele>1586.09</ele>
  <time>2026-08-27T18:28:33Z</time>
  <course>295.94</course>
  <speed>0.0</speed>
  <fix>3d</fix>
</trkpt>
<trkpt lat="40.072842" lon="-105.2305751">
  <ele>1586.16</ele>
  <time>2026-08-27T18:28:33Z</time>
  <course>11.88</course>
  <speed>0.01414213562373095</speed>
  <fix>3d</fix>
</trkpt>
<trkpt lat="40.0728421" lon="-105.2305753">
  <ele>1586.09</ele>
  <time>2026-08-27T18:28:33Z</time>
  <course>295.94</course>
  <speed>0.0</speed>
  <fix>3d</fix>
</trkpt>
<trkpt lat="40.072842" lon="-105.2305751">
  <ele>1586.16</ele>
  <time>2026-08-27T18:28:33Z</time>
  <course>11.93</course>
  <speed>0.01414213562373095</speed>
  <fix>3d</fix>
</trkpt>
<trkpt lat="40.0728421" lon="-105.2305753">
  <ele>1586.09</ele>
  <time>2026-08-27T18:28:33Z</time>
  <course>295.94</course>
  <speed>0.0</speed>
  <fix>3d</fix>
</trkpt>
<trkpt lat="40.072842" lon="-105.2305751">
  <ele>1586.16</ele>
  <time>2026-08-27T18:28:33Z</time>
  <course>11.98</course>
  <speed>0.01414213562373095</speed>
  <fix>3d</fix>
</trkpt>
<trkpt lat="40.0728421" lon="-105.2305753">
  <ele>1586.09</ele>
  <time>2026-08-27T18:28:33Z</time>
  <course>295.94</course>
  <speed>0.0</speed>
  <fix>3d</fix>
</trkpt>
<trkpt lat="40.072842" lon="-105.2305751">
  <ele>1586.17</ele>
  <time>2026-08-27T18:28:33Z</time>
  <course>12.03</course>
  <speed>0.01414213562373095</speed>
  <fix>3d</fix>
</trkpt>
<trkpt lat="40.0728421" lon="-105.2305753">
  <ele>1586.09</ele>
  <time>2026-08-27T18:28:33Z</time>
  <course>295.94</course>
  <speed>0.0</speed>
  <fix>3d</fix>
</trkpt>
<trkpt lat="40.072842" lon="-105.2305751">
  <ele>1586.17</ele>
  <time>2026-08-27T18:28:33Z</time>
  <course>12.08</course>
  <speed>0.022360679774997897</speed>
  <fix>3d</fix>
</trkpt>
<trkpt lat="40.0728421" lon="-105.2305753">
  <ele>1586.09</ele>
  <time>2026-08-27T18:28:33Z</time>
  <course>311.33</course>
  <speed>0.0</speed>
  <fix>3d</fix>
</trkpt>
<trkpt lat="40.072842" lon="-105.2305751">
  <ele>1586.17</ele>
  <time>2026-08-27T18:28:33Z</time>
  <course>12.13</course>
  <speed>0.022360679774997897</speed>
  <fix>3d</fix>
</trkpt>
<trkpt lat="40.0728421" lon="-105.2305753">
  <ele>1586.09</ele>
  <time>2026-08-27T18:28:33Z</time>
  <course>305.22</course>
  <speed>0.0</speed>
  <fix>3d</fix>
</trkpt>
<trkpt lat="40.072842" lon="-105.2305751">
  <ele>1586.17</ele>
  <time>2026-08-27T18:28:33Z</time>
  <course>12.18</course>
  <speed>0.022360679774997897</speed>
  <fix>3d</fix>
</trkpt>
<trkpt lat="40.0728421" lon="-105.2305753">
  <ele>1586.09</ele>
  <time>2026-08-27T18:28:33Z</time>
  <course>290.37</course>
  <speed>0.0</speed>
  <fix>3d</fix>
</trkpt>
<trkpt lat="40.072842" lon="-105.2305751">
  <ele>1586.17</ele>
  <time>2026-08-27T18:28:33Z</time>
  <course>12.23</course>
  <speed>0.022360679774997897</speed>
  <fix>3d</fix>
</trkpt>
<trkpt lat="40.0728421" lon="-105.2305753">
  <ele>1586.09</ele>
  <time>2026-08-27T18:28:33Z</time>
  <course>295.43</course>
  <speed>0.0</speed>
  <fix>3d</fix>
</trkpt>
<trkpt lat="40.072842" lon="-105.2305751">
  <ele>1586.17</ele>
  <time>2026-08-27T18:28:33Z</time>
  <course>12.29</course>
  <speed>0.022360679774997897</speed>
  <fix>3d</fix>
</trkpt>
<trkpt lat="40.0728421" lon="-105.2305753">
  <ele>1586.09</ele>
  <time>2026-08-27T18:28:33Z</time>
  <course>296.86</course>
  <speed>0.0</speed>
  <fix>3d</fix>
</trkpt>
<trkpt lat="40.072842" lon="-105.2305751">
  <ele>1586.17</ele>
  <time>2026-08-27T18:28:33Z</time>
  <course>12.34</course>
  <speed>0.022360679774997897</speed>
  <fix>3d</fix>
</trkpt>
<trkpt lat="40.0728421" lon="-105.2305753">
  <ele>1586.09</ele>
  <time>2026-08-27T18:28:33Z</time>
  <course>295.91</course>
  <speed>0.0</speed>
  <fix>3d</fix>
</trkpt>
<trkpt lat="40.072842" lon="-105.2305751">
  <ele>1586.17</ele>
  <time>2026-08-27T18:28:33Z</time>
  <course>12.39</course>
  <speed>0.022360679774997897</speed>
  <fix>3d</fix>
</trkpt>
<trkpt lat="40.0728421" lon="-105.2305753">
  <ele>1586.09</ele>
  <time>2026-08-27T18:28:33Z</time>
  <course>295.83</course>
  <speed>0.0</speed>
  <fix>3d</fix>
</trkpt>
<trkpt lat="40.072842" lon="-105.2305751">
  <ele>1586.17</ele>
  <time>2026-08-27T18:28:33Z</time>
  <course>12.44</course>
  <speed>0.022360679774997897</speed>
  <fix>3d</fix>
</trkpt>
<trkpt lat="40.0728421" lon="-105.2305753">
  <ele>1586.09</ele>
  <time>2026-08-27T18:28:33Z</time>
  <course>295.97</course>
  <speed>0.0</speed>
  <fix>3d</fix>
</trkpt>
<trkpt lat="40.072842" lon="-105.2305751">
  <ele>1586.17</ele>
  <time>2026-08-27T18:28:33Z</time>
  <course>12.49</course>
  <speed>0.022360679774997897</speed>
  <fix>3d</fix>
</trkpt>
<trkpt lat="40.0728421" lon="-105.2305753">
  <ele>1586.09</ele>
  <time>2026-08-27T18:28:33Z</time>
  <course>295.96</course>
  <speed>0.0</speed>
  <fix>3d</fix>
</trkpt>
<trkpt lat="40.072842" lon="-105.2305751">
  <ele>1586.17</ele>
  <time>2026-08-27T18:28:33Z</time>
  <course>12.54</course>
  <speed>0.022360679774997897</speed>
  <fix>3d</fix>
</trkpt>
<trkpt lat="40.0728421" lon="-105.2305753">
  <ele>1586.09</ele>
  <time>2026-08-27T18:28:33Z</time>
  <course>295.94</course>
  <speed>0.0</speed>
  <fix>3d</fix>
</trkpt>
<trkpt lat="40.072842" lon="-105.2305751">
  <ele>1586.17</ele>
  <time>2026-08-27T18:28:33Z</time>
  <course>12.59</course>
  <speed>0.022360679774997897</speed>
  <fix>3d</fix>
</trkpt>
<trkpt lat="40.0728421" lon="-105.2305753">
  <ele>1586.09</ele>
  <time>2026-08-27T18:28:33Z</time>
  <course>295.95</course>
  <speed>0.0</speed>
  <fix>3d</fix>
</trkpt>
<trkpt lat="40.072842" lon="-105.2305752">
  <ele>1586.17</ele>
  <time>2026-08-27T18:28:33Z</time>
  <course>12.64</course>
  <speed>0.01414213562373095</speed>
  <fix>3d</fix>
</trkpt>
<trkpt lat="40.0728421" lon="-105.2305753">
  <ele>1586.09</ele>
  <time>2026-08-27T18:28:33Z</time>
  <course>295.95</course>
  <speed>0.0</speed>
  <fix>3d</fix>
</trkpt>
<trkpt lat="40.072842" lon="-105.2305752">
  <ele>1586.17</ele>
  <time>2026-08-27T18:28:33Z</time>
  <course>12.69</course>
  <speed>0.01414213562373095</speed>
  <fix>3d</fix>
</trkpt>
<trkpt lat="40.0728421" lon="-105.2305753">
  <ele>1586.09</ele>
  <time>2026-08-27T18:28:33Z</time>
  <course>295.92</course>
  <speed>0.0</speed>
  <fix>3d</fix>
</trkpt>
<trkpt lat="40.072842" lon="-105.2305752">
  <ele>1586.17</ele>
  <time>2026-08-27T18:28:33Z</time>
  <course>12.74</course>
  <speed>0.01414213562373095</speed>
  <fix>3d</fix>
</trkpt>
<trkpt lat="40.0728421" lon="-105.2305753">
  <ele>1586.09</ele>
  <time>2026-08-27T18:28:33Z</time>
  <course>295.84</course>
  <speed>0.0</speed>
  <fix>3d</fix>
</trkpt>
<trkpt lat="40.072842" lon="-105.2305752">
  <ele>1586.17</ele>
  <time>2026-08-27T18:28:33Z</time>
  <course>12.79</course>
  <speed>0.01414213562373095</speed>
  <fix>3d</fix>
</trkpt>
<trkpt lat="40.0728421" lon="-105.2305753">
  <ele>1586.09</ele>
  <time>2026-08-27T18:28:33Z</time>
  <course>295.74</course>
  <speed>0.0</speed>
  <fix>3d</fix>
</trkpt>
<trkpt lat="40.072842" lon="-105.2305752">
  <ele>1586.17</ele>
  <time>2026-08-27T18:28:33Z</time>
  <course>12.84</course>
  <speed>0.01414213562373095</speed>
  <fix>3d</fix>
</trkpt>
<trkpt lat="40.0728421" lon="-105.2305753">
  <ele>1586.09</ele>
  <time>2026-08-27T18:28:33Z</time>
  <course>295.64</course>
  <speed>0.0</speed>
  <fix>3d</fix>
</trkpt>
<trkpt lat="40.072842" lon="-105.2305752">
  <ele>1586.17</ele>
  <time>2026-08-27T18:28:33Z</time>
  <course>12.88</course>
  <speed>0.01414213562373095</speed>
  <fix>3d</fix>
</trkpt>
<trkpt lat="40.0728421" lon="-105.2305753">
  <ele>1586.09</ele>
  <time>2026-08-27T18:28:33Z</time>
  <course>295.55</course>
  <speed>0.0</speed>
  <fix>3d</fix>
</trkpt>
<trkpt lat="40.072842" lon="-105.2305752">
  <ele>1586.17</ele>
  <time>2026-08-27T18:28:33Z</time>
  <course>12.92</course>
  <speed>0.01414213562373095</speed>
  <fix>3d</fix>
</trkpt>
<trkpt lat="40.0728421" lon="-105.2305753">
  <ele>1586.09</ele>
  <time>2026-08-27T18:28:33Z</time>
  <course>295.45</course>
  <speed>0.0</speed>
  <fix>3d</fix>
</trkpt>
<trkpt lat="40.072842" lon="-105.2305752">
  <ele>1586.17</ele>
  <time>2026-08-27T18:28:33Z</time>
  <course>12.96</course>
  <speed>0.01414213562373095</speed>
  <fix>3d</fix>
</trkpt>
<trkpt lat="40.0728421" lon="-105.2305753">
  <ele>1586.09</ele>
  <time>2026-08-27T18:28:33Z</time>
  <course>295.35</course>
  <speed>0.0</speed>
  <fix>3d</fix>
</trkpt>
<trkpt lat="40.072842" lon="-105.2305752">
  <ele>1586.17</ele>
  <time>2026-08-27T18:28:33Z</time>
  <course>13.0</course>
  <speed>0.01414213562373095</speed>
  <fix>3d</fix>
</trkpt>
<trkpt lat="40.0728421" lon="-105.2305753">
  <ele>1586.09</ele>
  <time>2026-08-27T18:28:33Z</time>
  <course>295.24</course>
  <speed>0.0</speed>
  <fix>3d</fix>
</trkpt>
<trkpt lat="40.072842" lon="-105.2305752">
  <ele>1586.17</ele>
  <time>2026-08-27T18:28:33Z</time>
  <course>13.04</course>
  <speed>0.01414213562373095</speed>
  <fix>3d</fix>
</trkpt>
<trkpt lat="40.0728421" lon="-105.2305753">
  <ele>1586.09</ele>
  <time>2026-08-27T18:28:33Z</time>
  <course>295.14</course>
  <speed>0.0</speed>
  <fix>3d</fix>
</trkpt>
<trkpt lat="40.072842" lon="-105.2305752">
  <ele>1586.17</ele>
  <time>2026-08-27T18:28:33Z</time>
  <course>13.08</course>
  <speed>0.01414213562373095</speed>
  <fix>3d</fix>
</trkpt>
<trkpt lat="40.0728421" lon="-105.2305753">
  <ele>1586.09</ele>
  <time>2026-08-27T18:28:33Z</time>
  <course>295.03</course>
  <speed>0.0</speed>
  <fix>3d</fix>
</trkpt>
<trkpt lat="40.072842" lon="-105.2305752">
  <ele>1586.17</ele>
  <time>2026-08-27T18:28:33Z</time>
  <course>13.11</course>
  <speed>0.01414213562373095</speed>
  <fix>3d</fix>
</trkpt>
<trkpt lat="40.0728421" lon="-105.2305753">
  <ele>1586.09</ele>
  <time>2026-08-27T18:28:33Z</time>
  <course>294.92</course>
  <speed>0.0</speed>
  <fix>3d</fix>
</trkpt>
<trkpt lat="40.072842" lon="-105.2305752">
  <ele>1586.17</ele>
  <time>2026-08-27T18:28:33Z</time>
  <course>13.15</course>
  <speed>0.01414213562373095</speed>
  <fix>3d</fix>
</trkpt>
<trkpt lat="40.0728421" lon="-105.2305753">
  <ele>1586.09</ele>
  <time>2026-08-27T18:28:33Z</time>
  <course>294.81</course>
  <speed>0.0</speed>
  <fix>3d</fix>
</trkpt>
<trkpt lat="40.072842" lon="-105.2305752">
  <ele>1586.17</ele>
  <time>2026-08-27T18:28:33Z</time>
  <course>13.18</course>
  <speed>0.01414213562373095</speed>
  <fix>3d</fix>
</trkpt>
<trkpt lat="40.0728421" lon="-105.2305753">
  <ele>1586.09</ele>
  <time>2026-08-27T18:28:33Z</time>
  <course>294.7</course>
  <speed>0.0</speed>
  <fix>3d</fix>
</trkpt>
<trkpt lat="40.072842" lon="-105.2305752">
  <ele>1586.17</ele>
  <time>2026-08-27T18:28:33Z</time>
  <course>13.21</course>
  <speed>0.01414213562373095</speed>
  <fix>3d</fix>
</trkpt>
<trkpt lat="40.0728421" lon="-105.2305753">
  <ele>1586.09</ele>
  <time>2026-08-27T18:28:33Z</time>
  <course>294.58</course>
  <speed>0.0</speed>
  <fix>3d</fix>
</trkpt>
<trkpt lat="40.072842" lon="-105.2305752">
  <ele>1586.17</ele>
  <time>2026-08-27T18:28:33Z</time>
  <course>13.23</course>
  <speed>0.01414213562373095</speed>
  <fix>3d</fix>
</trkpt>
<trkpt lat="40.0728421" lon="-105.2305753">
  <ele>1586.09</ele>
  <time>2026-08-27T18:28:33Z</time>
  <course>294.46</course>
  <speed>0.0</speed>
  <fix>3d</fix>
</trkpt>
<trkpt lat="40.072842" lon="-105.2305752">
  <ele>1586.17</ele>
  <time>2026-08-27T18:28:33Z</time>
  <course>13.26</course>
  <speed>0.01414213562373095</speed>
  <fix>3d</fix>
</trkpt>
<trkpt lat="40.0728421" lon="-105.2305753">
  <ele>1586.09</ele>
  <time>2026-08-27T18:28:33Z</time>
  <course>294.34</course>
  <speed>0.0</speed>
  <fix>3d</fix>
</trkpt>
<trkpt lat="40.072842" lon="-105.2305752">
  <ele>1586.17</ele>
  <time>2026-08-27T18:28:33Z</time>
  <course>13.29</course>
  <speed>0.01414213562373095</speed>
  <fix>3d</fix>
</trkpt>
<trkpt lat="40.0728421" lon="-105.2305753">
  <ele>1586.09</ele>
  <time>2026-08-27T18:28:33Z</time>
  <course>294.22</course>
  <speed>0.0</speed>
  <fix>3d</fix>
</trkpt>
<trkpt lat="40.072842" lon="-105.2305752">
  <ele>1586.17</ele>
  <time>2026-08-27T18:28:33Z</time>
  <course>13.31</course>
  <speed>0.022360679774997897</speed>
  <fix>3d</fix>
</trkpt>
<trkpt lat="40.0728421" lon="-105.2305753">
  <ele>1586.09</ele>
  <time>2026-08-27T18:28:33Z</time>
  <course>294.1</course>
  <speed>0.0</speed>
  <fix>3d</fix>
</trkpt>
<trkpt lat="40.072842" lon="-105.2305752">
  <ele>1586.17</ele>
  <time>2026-08-27T18:28:33Z</time>
  <course>13.33</course>
  <speed>0.022360679774997897</speed>
  <fix>3d</fix>
</trkpt>
<trkpt lat="40.0728421" lon="-105.2305753">
  <ele>1586.09</ele>
  <time>2026-08-27T18:28:33Z</time>
  <course>293.97</course>
  <speed>0.0</speed>
  <fix>3d</fix>
</trkpt>
<trkpt lat="40.072842" lon="-105.2305752">
  <ele>1586.16</ele>
  <time>2026-08-27T18:28:33Z</time>
  <course>13.35</course>
  <speed>0.022360679774997897</speed>
  <fix>3d</fix>
</trkpt>
<trkpt lat="40.0728421" lon="-105.2305753">
  <ele>1586.09</ele>
  <time>2026-08-27T18:28:33Z</time>
  <course>293.85</course>
  <speed>0.0</speed>
  <fix>3d</fix>
</trkpt>
<trkpt lat="40.072842" lon="-105.2305752">
  <ele>1586.16</ele>
  <time>2026-08-27T18:28:33Z</time>
  <course>13.37</course>
  <speed>0.022360679774997897</speed>
  <fix>3d</fix>
</trkpt>
<trkpt lat="40.0728421" lon="-105.2305753">
  <ele>1586.09</ele>
  <time>2026-08-27T18:28:33Z</time>
  <course>293.72</course>
  <speed>0.0</speed>
  <fix>3d</fix>
</trkpt>
<trkpt lat="40.072842" lon="-105.2305752">
  <ele>1586.16</ele>
  <time>2026-08-27T18:28:33Z</time>
  <course>13.39</course>
  <speed>0.022360679774997897</speed>
  <fix>3d</fix>
</trkpt>
<trkpt lat="40.0728421" lon="-105.2305753">
  <ele>1586.09</ele>
  <time>2026-08-27T18:28:33Z</time>
  <course>293.59</course>
  <speed>0.0</speed>
  <fix>3d</fix>
</trkpt>
<trkpt lat="40.072842" lon="-105.2305752">
  <ele>1586.15</ele>
  <time>2026-08-27T18:28:33Z</time>
  <course>13.4</course>
  <speed>0.022360679774997897</speed>
  <fix>3d</fix>
</trkpt>
<trkpt lat="40.0728421" lon="-105.2305753">
  <ele>1586.09</ele>
  <time>2026-08-27T18:28:33Z</time>
  <course>293.46</course>
  <speed>0.0</speed>
  <fix>3d</fix>
</trkpt>
<trkpt lat="40.072842" lon="-105.2305752">
  <ele>1586.15</ele>
  <time>2026-08-27T18:28:33Z</time>
  <course>13.42</course>
  <speed>0.022360679774997897</speed>
  <fix>3d</fix>
</trkpt>
<trkpt lat="40.0728421" lon="-105.2305753">
  <ele>1586.09</ele>
  <time>2026-08-27T18:28:33Z</time>
  <course>293.33</course>
  <speed>0.0</speed>
  <fix>3d</fix>
</trkpt>
<trkpt lat="40.072842" lon="-105.2305752">
  <ele>1586.15</ele>
  <time>2026-08-27T18:28:33Z</time>
  <course>13.43</course>
  <speed>0.022360679774997897</speed>
  <fix>3d</fix>
</trkpt>
<trkpt lat="40.0728421" lon="-105.2305753">
  <ele>1586.09</ele>
  <time>2026-08-27T18:28:33Z</time>
  <course>293.2</course>
  <speed>0.0</speed>
  <fix>3d</fix>
</trkpt>
<trkpt lat="40.072842" lon="-105.2305752">
  <ele>1586.15</ele>
  <time>2026-08-27T18:28:33Z</time>
  <course>13.44</course>
  <speed>0.022360679774997897</speed>
  <fix>3d</fix>
</trkpt>
<trkpt lat="40.0728421" lon="-105.2305753">
  <ele>1586.09</ele>
  <time>2026-08-27T18:28:33Z</time>
  <course>293.06</course>
  <speed>0.0</speed>
  <fix>3d</fix>
</trkpt>
<trkpt lat="40.072842" lon="-105.2305752">
  <ele>1586.15</ele>
  <time>2026-08-27T18:28:33Z</time>
  <course>13.45</course>
  <speed>0.022360679774997897</speed>
  <fix>3d</fix>
</trkpt>
<trkpt lat="40.0728421" lon="-105.2305753">
  <ele>1586.09</ele>
  <time>2026-08-27T18:28:33Z</time>
  <course>292.93</course>
  <speed>0.0</speed>
  <fix>3d</fix>
</trkpt>
<trkpt lat="40.072842" lon="-105.2305752">
  <ele>1586.15</ele>
  <time>2026-08-27T18:28:33Z</time>
  <course>13.46</course>
  <speed>0.022360679774997897</speed>
  <fix>3d</fix>
</trkpt>
<trkpt lat="40.0728421" lon="-105.2305753">
  <ele>1586.09</ele>
  <time>2026-08-27T18:28:33Z</time>
  <course>292.79</course>
  <speed>0.0</speed>
  <fix>3d</fix>
</trkpt>
<trkpt lat="40.072842" lon="-105.2305752">
  <ele>1586.15</ele>
  <time>2026-08-27T18:28:33Z</time>
  <course>13.46</course>
  <speed>0.022360679774997897</speed>
  <fix>3d</fix>
</trkpt>
<trkpt lat="40.0728421" lon="-105.2305753">
  <ele>1586.09</ele>
  <time>2026-08-27T18:28:33Z</time>
  <course>292.65</course>
  <speed>0.0</speed>
  <fix>3d</fix>
</trkpt>
<trkpt lat="40.072842" lon="-105.2305752">
  <ele>1586.15</ele>
  <time>2026-08-27T18:28:33Z</time>
  <course>13.47</course>
  <speed>0.022360679774997897</speed>
  <fix>3d</fix>
</trkpt>
<trkpt lat="40.0728421" lon="-105.2305753">
  <ele>1586.09</ele>
  <time>2026-08-27T18:28:33Z</time>
  <course>292.51</course>
  <speed>0.0</speed>
  <fix>3d</fix>
</trkpt>
<trkpt lat="40.072842" lon="-105.2305752">
  <ele>1586.15</ele>
  <time>2026-08-27T18:28:33Z</time>
  <course>13.47</course>
  <speed>0.022360679774997897</speed>
  <fix>3d</fix>
</trkpt>
<trkpt lat="40.0728421" lon="-105.2305753">
  <ele>1586.09</ele>
  <time>2026-08-27T18:28:34Z</time>
  <course>292.37</course>
  <speed>0.0</speed>
  <fix>3d</fix>
</trkpt>
<trkpt lat="40.072842" lon="-105.2305752">
  <ele>1586.15</ele>
  <time>2026-08-27T18:28:34Z</time>
  <course>13.47</course>
  <speed>0.022360679774997897</speed>
  <fix>3d</fix>
</trkpt>
<trkpt lat="40.0728421" lon="-105.2305753">
  <ele>1586.09</ele>
  <time>2026-08-27T18:28:34Z</time>
  <course>292.22</course>
  <speed>0.0</speed>
  <fix>3d</fix>
</trkpt>
<trkpt lat="40.072842" lon="-105.2305752">
  <ele>1586.15</ele>
  <time>2026-08-27T18:28:34Z</time>
  <course>13.47</course>
  <speed>0.022360679774997897</speed>
  <fix>3d</fix>
</trkpt>
<trkpt lat="40.0728421" lon="-105.2305753">
  <ele>1586.09</ele>
  <time>2026-08-27T18:28:34Z</time>
  <course>292.08</course>
  <speed>0.0</speed>
  <fix>3d</fix>
</trkpt>
<trkpt lat="40.072842" lon="-105.2305752">
  <ele>1586.16</ele>
  <time>2026-08-27T18:28:34Z</time>
  <course>13.47</course>
  <speed>0.022360679774997897</speed>
  <fix>3d</fix>
</trkpt>
<trkpt lat="40.0728421" lon="-105.2305753">
  <ele>1586.09</ele>
  <time>2026-08-27T18:28:34Z</time>
  <course>291.93</course>
  <speed>0.0</speed>
  <fix>3d</fix>
</trkpt>
<trkpt lat="40.072842" lon="-105.2305752">
  <ele>1586.16</ele>
  <time>2026-08-27T18:28:34Z</time>
  <course>13.46</course>
  <speed>0.022360679774997897</speed>
  <fix>3d</fix>
</trkpt>
<trkpt lat="40.0728421" lon="-105.2305753">
  <ele>1586.09</ele>
  <time>2026-08-27T18:28:34Z</time>
  <course>291.78</course>
  <speed>0.0</speed>
  <fix>3d</fix>
</trkpt>
<trkpt lat="40.072842" lon="-105.2305752">
  <ele>1586.16</ele>
  <time>2026-08-27T18:28:34Z</time>
  <course>13.46</course>
  <speed>0.022360679774997897</speed>
  <fix>3d</fix>
</trkpt>
<trkpt lat="40.0728421" lon="-105.2305753">
  <ele>1586.09</ele>
  <time>2026-08-27T18:28:34Z</time>
  <course>291.63</course>
  <speed>0.0</speed>
  <fix>3d</fix>
</trkpt>
<trkpt lat="40.072842" lon="-105.2305752">
  <ele>1586.16</ele>
  <time>2026-08-27T18:28:34Z</time>
  <course>13.45</course>
  <speed>0.022360679774997897</speed>
  <fix>3d</fix>
</trkpt>
<trkpt lat="40.0728421" lon="-105.2305753">
  <ele>1586.09</ele>
  <time>2026-08-27T18:28:34Z</time>
  <course>291.48</course>
  <speed>0.0</speed>
  <fix>3d</fix>
</trkpt>
<trkpt lat="40.072842" lon="-105.2305752">
  <ele>1586.16</ele>
  <time>2026-08-27T18:28:34Z</time>
  <course>13.44</course>
  <speed>0.022360679774997897</speed>
  <fix>3d</fix>
</trkpt>
<trkpt lat="40.0728421" lon="-105.2305753">
  <ele>1586.09</ele>
  <time>2026-08-27T18:28:34Z</time>
  <course>291.33</course>
  <speed>0.0</speed>
  <fix>3d</fix>
</trkpt>
<trkpt lat="40.072842" lon="-105.2305752">
  <ele>1586.16</ele>
  <time>2026-08-27T18:28:34Z</time>
  <course>13.43</course>
  <speed>0.022360679774997897</speed>
  <fix>3d</fix>
</trkpt>
<trkpt lat="40.0728421" lon="-105.2305753">
  <ele>1586.09</ele>
  <time>2026-08-27T18:28:34Z</time>
  <course>291.17</course>
  <speed>0.0</speed>
  <fix>3d</fix>
</trkpt>
<trkpt lat="40.072842" lon="-105.2305752">
  <ele>1586.16</ele>
  <time>2026-08-27T18:28:34Z</time>
  <course>13.42</course>
  <speed>0.022360679774997897</speed>
  <fix>3d</fix>
</trkpt>
<trkpt lat="40.0728421" lon="-105.2305753">
  <ele>1586.09</ele>
  <time>2026-08-27T18:28:34Z</time>
  <course>291.02</course>
  <speed>0.0</speed>
  <fix>3d</fix>
</trkpt>
<trkpt lat="40.072842" lon="-105.2305752">
  <ele>1586.16</ele>
  <time>2026-08-27T18:28:34Z</time>
  <course>13.41</course>
  <speed>0.022360679774997897</speed>
  <fix>3d</fix>
</trkpt>
<trkpt lat="40.0728421" lon="-105.2305753">
  <ele>1586.09</ele>
  <time>2026-08-27T18:28:34Z</time>
  <course>290.87</course>
  <speed>0.0</speed>
  <fix>3d</fix>
</trkpt>
<trkpt lat="40.072842" lon="-105.2305752">
  <ele>1586.16</ele>
  <time>2026-08-27T18:28:34Z</time>
  <course>13.39</course>
  <speed>0.022360679774997897</speed>
  <fix>3d</fix>
</trkpt>
<trkpt lat="40.0728421" lon="-105.2305753">
  <ele>1586.09</ele>
  <time>2026-08-27T18:28:34Z</time>
  <course>290.78</course>
  <speed>0.0</speed>
  <fix>3d</fix>
</trkpt>
<trkpt lat="40.072842" lon="-105.2305752">
  <ele>1586.16</ele>
  <time>2026-08-27T18:28:34Z</time>
  <course>13.38</course>
  <speed>0.022360679774997897</speed>
  <fix>3d</fix>
</trkpt>
<trkpt lat="40.0728421" lon="-105.2305753">
  <ele>1586.09</ele>
  <time>2026-08-27T18:28:34Z</time>
  <course>290.72</course>
  <speed>0.0</speed>
  <fix>3d</fix>
</trkpt>
<trkpt lat="40.072842" lon="-105.2305752">
  <ele>1586.16</ele>
  <time>2026-08-27T18:28:34Z</time>
  <course>13.37</course>
  <speed>0.022360679774997897</speed>
  <fix>3d</fix>
</trkpt>
<trkpt lat="40.0728421" lon="-105.2305753">
  <ele>1586.09</ele>
  <time>2026-08-27T18:28:34Z</time>
  <course>290.66</course>
  <speed>0.0</speed>
  <fix>3d</fix>
</trkpt>
<trkpt lat="40.072842" lon="-105.2305752">
  <ele>1586.15</ele>
  <time>2026-08-27T18:28:34Z</time>
  <course>13.36</course>
  <speed>0.022360679774997897</speed>
  <fix>3d</fix>
</trkpt>
<trkpt lat="40.0728421" lon="-105.2305753">
  <ele>1586.09</ele>
  <time>2026-08-27T18:28:34Z</time>
  <course>290.59</course>
  <speed>0.0</speed>
  <fix>3d</fix>
</trkpt>
<trkpt lat="40.072842" lon="-105.2305752">
  <ele>1586.16</ele>
  <time>2026-08-27T18:28:34Z</time>
  <course>13.34</course>
  <speed>0.022360679774997897</speed>
  <fix>3d</fix>
</trkpt>
<trkpt lat="40.0728421" lon="-105.2305753">
  <ele>1586.09</ele>
  <time>2026-08-27T18:28:34Z</time>
  <course>290.51</course>
  <speed>0.0</speed>
  <fix>3d</fix>
</trkpt>
<trkpt lat="40.072842" lon="-105.2305752">
  <ele>1586.16</ele>
  <time>2026-08-27T18:28:34Z</time>
  <course>13.33</course>
  <speed>0.022360679774997897</speed>
  <fix>3d</fix>
</trkpt>
<trkpt lat="40.0728421" lon="-105.2305753">
  <ele>1586.09</ele>
  <time>2026-08-27T18:28:34Z</time>
  <course>290.45</course>
  <speed>0.0</speed>
  <fix>3d</fix>
</trkpt>
<trkpt lat="40.072842" lon="-105.2305752">
  <ele>1586.16</ele>
  <time>2026-08-27T18:28:34Z</time>
  <course>13.31</course>
  <speed>0.022360679774997897</speed>
  <fix>3d</fix>
</trkpt>
<trkpt lat="40.0728421" lon="-105.2305753">
  <ele>1586.09</ele>
  <time>2026-08-27T18:28:34Z</time>
  <course>290.39</course>
  <speed>0.0</speed>
  <fix>3d</fix>
</trkpt>
<trkpt lat="40.072842" lon="-105.2305752">
  <ele>1586.16</ele>
  <time>2026-08-27T18:28:34Z</time>
  <course>13.31</course>
  <speed>0.022360679774997897</speed>
  <fix>3d</fix>
</trkpt>
<trkpt lat="40.0728421" lon="-105.2305753">
  <ele>1586.09</ele>
  <time>2026-08-27T18:28:34Z</time>
  <course>296.72</course>
  <speed>0.0</speed>
  <fix>3d</fix>
</trkpt>
<trkpt lat="40.072842" lon="-105.2305752">
  <ele>1586.16</ele>
  <time>2026-08-27T18:28:34Z</time>
  <course>13.3</course>
  <speed>0.022360679774997897</speed>
  <fix>3d</fix>
</trkpt>
<trkpt lat="40.0728421" lon="-105.2305753">
  <ele>1586.09</ele>
  <time>2026-08-27T18:28:34Z</time>
  <course>288.33</course>
  <speed>0.0</speed>
  <fix>3d</fix>
</trkpt>
<trkpt lat="40.072842" lon="-105.2305752">
  <ele>1586.16</ele>
  <time>2026-08-27T18:28:34Z</time>
  <course>13.29</course>
  <speed>0.022360679774997897</speed>
  <fix>3d</fix>
</trkpt>
<trkpt lat="40.0728421" lon="-105.2305753">
  <ele>1586.09</ele>
  <time>2026-08-27T18:28:34Z</time>
  <course>218.65</course>
  <speed>0.0</speed>
  <fix>3d</fix>
</trkpt>
<trkpt lat="40.072842" lon="-105.2305752">
  <ele>1586.16</ele>
  <time>2026-08-27T18:28:34Z</time>
  <course>13.27</course>
  <speed>0.022360679774997897</speed>
  <fix>3d</fix>
</trkpt>
<trkpt lat="40.0728421" lon="-105.2305753">
  <ele>1586.09</ele>
  <time>2026-08-27T18:28:34Z</time>
  <course>278.38</course>
  <speed>0.0</speed>
  <fix>3d</fix>
</trkpt>
<trkpt lat="40.072842" lon="-105.2305752">
  <ele>1586.17</ele>
  <time>2026-08-27T18:28:34Z</time>
  <course>13.23</course>
  <speed>0.022360679774997897</speed>
  <fix>3d</fix>
</trkpt>
<trkpt lat="40.0728421" lon="-105.2305753">
  <ele>1586.09</ele>
  <time>2026-08-27T18:28:34Z</time>
  <course>278.51</course>
  <speed>0.0</speed>
  <fix>3d</fix>
</trkpt>
<trkpt lat="40.072842" lon="-105.2305752">
  <ele>1586.19</ele>
  <time>2026-08-27T18:28:34Z</time>
  <course>13.17</course>
  <speed>0.022360679774997897</speed>
  <fix>3d</fix>
</trkpt>
<trkpt lat="40.0728421" lon="-105.2305753">
  <ele>1586.09</ele>
  <time>2026-08-27T18:28:34Z</time>
  <course>278.98</course>
  <speed>0.0</speed>
  <fix>3d</fix>
</trkpt>
<trkpt lat="40.072842" lon="-105.2305752">
  <ele>1586.23</ele>
  <time>2026-08-27T18:28:34Z</time>
  <course>13.11</course>
  <speed>0.022360679774997897</speed>
  <fix>3d</fix>
</trkpt>
<trkpt lat="40.0728421" lon="-105.2305753">
  <ele>1586.11</ele>
  <time>2026-08-27T18:28:34Z</time>
  <course>286.23</course>
  <speed>0.0</speed>
  <fix>3d</fix>
</trkpt>
<trkpt lat="40.072842" lon="-105.2305752">
  <ele>1586.27</ele>
  <time>2026-08-27T18:28:34Z</time>
  <course>13.03</course>
  <speed>0.022360679774997897</speed>
  <fix>3d</fix>
</trkpt>
<trkpt lat="40.0728421" lon="-105.2305753">
  <ele>1586.14</ele>
  <time>2026-08-27T18:28:34Z</time>
  <course>285.58</course>
  <speed>0.0</speed>
  <fix>3d</fix>
</trkpt>
<trkpt lat="40.072842" lon="-105.2305752">
  <ele>1586.36</ele>
  <time>2026-08-27T18:28:34Z</time>
  <course>7.09</course>
  <speed>0.0412310562561766</speed>
  <fix>3d</fix>
</trkpt>
<trkpt lat="40.0728421" lon="-105.2305753">
  <ele>1586.18</ele>
  <time>2026-08-27T18:28:34Z</time>
  <course>280.33</course>
  <speed>0.0</speed>
  <fix>3d</fix>
</trkpt>
<trkpt lat="40.072842" lon="-105.2305756">
  <ele>1586.65</ele>
  <time>2026-08-27T18:28:34Z</time>
  <course>3.02</course>
  <speed>0.21</speed>
  <fix>3d</fix>
</trkpt>
<trkpt lat="40.0728421" lon="-105.2305753">
  <ele>1586.29</ele>
  <time>2026-08-27T18:28:34Z</time>
  <course>274.12</course>
  <speed>0.06</speed>
  <fix>3d</fix>
</trkpt>
<trkpt lat="40.072842" lon="-105.2305762">
  <ele>1586.93</ele>
  <time>2026-08-27T18:28:34Z</time>
  <course>2.0</course>
  <speed>0.27018512172212594</speed>
  <fix>3d</fix>
</trkpt>
<trkpt lat="40.0728421" lon="-105.2305756">
  <ele>1586.52</ele>
  <time>2026-08-27T18:28:34Z</time>
  <course>273.19</course>
  <speed>0.19</speed>
  <fix>3d</fix>
</trkpt>
<trkpt lat="40.072842" lon="-105.2305769">
  <ele>1587.19</ele>
  <time>2026-08-27T18:28:34Z</time>
  <course>0.34</course>
  <speed>0.3</speed>
  <fix>3d</fix>
</trkpt>
<trkpt lat="40.0728421" lon="-105.2305761">
  <ele>1586.79</ele>
  <time>2026-08-27T18:28:34Z</time>
  <course>271.75</course>
  <speed>0.27</speed>
  <fix>3d</fix>
</trkpt>
<trkpt lat="40.072842" lon="-105.2305776">
  <ele>1587.5</ele>
  <time>2026-08-27T18:28:34Z</time>
  <course>359.15</course>
  <speed>0.30016662039607267</speed>
  <fix>3d</fix>
</trkpt>
<trkpt lat="40.0728421" lon="-105.2305768">
  <ele>1587.05</ele>
  <time>2026-08-27T18:28:34Z</time>
  <course>269.96</course>
  <speed>0.31</speed>
  <fix>3d</fix>
</trkpt>
<trkpt lat="40.072842" lon="-105.2305783">
  <ele>1587.83</ele>
  <time>2026-08-27T18:28:34Z</time>
  <course>358.34</course>
  <speed>0.280178514522438</speed>
  <fix>3d</fix>
</trkpt>
<trkpt lat="40.0728421" lon="-105.2305776">
  <ele>1587.34</ele>
  <time>2026-08-27T18:28:34Z</time>
  <course>268.52</course>
  <speed>0.31</speed>
  <fix>3d</fix>
</trkpt>
<trkpt lat="40.072842" lon="-105.2305789">
  <ele>1588.19</ele>
  <time>2026-08-27T18:28:34Z</time>
  <course>357.6</course>
  <speed>0.24020824298928628</speed>
  <fix>3d</fix>
</trkpt>
<trkpt lat="40.0728421" lon="-105.2305783">
  <ele>1587.65</ele>
  <time>2026-08-27T18:28:34Z</time>
  <course>268.07</course>
  <speed>0.29</speed>
  <fix>3d</fix>
</trkpt>
<trkpt lat="40.072842" lon="-105.2305795">
  <ele>1588.59</ele>
  <time>2026-08-27T18:28:34Z</time>
  <course>356.89</course>
  <speed>0.2009975124224178</speed>
  <fix>3d</fix>
</trkpt>
<trkpt lat="40.0728421" lon="-105.230579">
  <ele>1588.01</ele>
  <time>2026-08-27T18:28:34Z</time>
  <course>268.57</course>
  <speed>0.26</speed>
  <fix>3d</fix>
</trkpt>
<trkpt lat="40.072842" lon="-105.2305799">
  <ele>1589.03</ele>
  <time>2026-08-27T18:28:34Z</time>
  <course>359.64</course>
  <speed>0.16124515496597097</speed>
  <fix>3d</fix>
</trkpt>
<trkpt lat="40.0728421" lon="-105.2305796">
  <ele>1588.4</ele>
  <time>2026-08-27T18:28:34Z</time>
  <course>269.71</course>
  <speed>0.22</speed>
  <fix>3d</fix>
</trkpt>
<trkpt lat="40.072842" lon="-105.2305803">
  <ele>1589.52</ele>
  <time>2026-08-27T18:28:34Z</time>
  <course>356.41</course>
  <speed>0.12369316876852982</speed>
  <fix>3d</fix>
</trkpt>
<trkpt lat="40.0728421" lon="-105.2305801">
  <ele>1588.85</ele>
  <time>2026-08-27T18:28:34Z</time>
  <course>271.21</course>
  <speed>0.18</speed>
  <fix>3d</fix>
</trkpt>
<trkpt lat="40.072842" lon="-105.2305806">
  <ele>1590.03</ele>
  <time>2026-08-27T18:28:34Z</time>
  <course>355.07</course>
  <speed>0.09848857801796104</speed>
  <fix>3d</fix>
</trkpt>
<trkpt lat="40.0728421" lon="-105.2305805">
  <ele>1589.33</ele>
  <time>2026-08-27T18:28:34Z</time>
  <course>273.32</course>
  <speed>0.14</speed>
  <fix>3d</fix>
</trkpt>
<trkpt lat="40.072842" lon="-105.2305808">
  <ele>1590.56</ele>
  <time>2026-08-27T18:28:34Z</time>
  <course>356.56</course>
  <speed>0.044721359549995794</speed>
  <fix>3d</fix>
</trkpt>
<trkpt lat="40.0728421" lon="-105.2305807">
  <ele>1589.83</ele>
  <time>2026-08-27T18:28:34Z</time>
  <course>278.88</course>
  <speed>0.11</speed>
  <fix>3d</fix>
</trkpt>
<trkpt lat="40.072842" lon="-105.2305809">
  <ele>1591.09</ele>
  <time>2026-08-27T18:28:34Z</time>
  <course>358.01</course>
  <speed>0.0</speed>
  <fix>3d</fix>
</trkpt>
<trkpt lat="40.0728421" lon="-105.230581">
  <ele>1590.35</ele>
  <time>2026-08-27T18:28:34Z</time>
  <course>296.65</course>
  <speed>0.07</speed>
  <fix>3d</fix>
</trkpt>
<trkpt lat="40.0728421" lon="-105.2305809">
  <ele>1591.61</ele>
  <time>2026-08-27T18:28:34Z</time>
  <course>359.21</course>
  <speed>0.044721359549995794</speed>
  <fix>3d</fix>
</trkpt>
<trkpt lat="40.0728422" lon="-105.2305811">
  <ele>1590.88</ele>
  <time>2026-08-27T18:28:34Z</time>
  <course>339.94</course>
  <speed>0.05</speed>
  <fix>3d</fix>
</trkpt>
<trkpt lat="40.0728422" lon="-105.2305809">
  <ele>1592.13</ele>
  <time>2026-08-27T18:28:34Z</time>
  <course>0.26</course>
  <speed>0.07615773105863909</speed>
  <fix>3d</fix>
</trkpt>
<trkpt lat="40.0728423" lon="-105.2305811">
  <ele>1591.4</ele>
  <time>2026-08-27T18:28:34Z</time>
  <course>22.4</course>
  <speed>0.06</speed>
  <fix>3d</fix>
</trkpt>
<trkpt lat="40.0728423" lon="-105.2305807">
  <ele>1592.64</ele>
  <time>2026-08-27T18:28:34Z</time>
  <course>1.18</course>
  <speed>0.11401754250991379</speed>
  <fix>3d</fix>
</trkpt>
<trkpt lat="40.0728424" lon="-105.230581">
  <ele>1591.91</ele>
  <time>2026-08-27T18:28:34Z</time>
  <course>46.95</course>
  <speed>0.08</speed>
  <fix>3d</fix>
</trkpt>
<trkpt lat="40.0728424" lon="-105.2305804">
  <ele>1593.15</ele>
  <time>2026-08-27T18:28:34Z</time>
  <course>1.99</course>
  <speed>0.1414213562373095</speed>
  <fix>3d</fix>
</trkpt>
<trkpt lat="40.0728425" lon="-105.2305809">
  <ele>1592.42</ele>
  <time>2026-08-27T18:28:34Z</time>
  <course>63.8</course>
  <speed>0.11</speed>
  <fix>3d</fix>
</trkpt>
<trkpt lat="40.0728425" lon="-105.2305801">
  <ele>1593.65</ele>
  <time>2026-08-27T18:28:34Z</time>
  <course>2.69</course>
  <speed>0.17029386365926402</speed>
  <fix>3d</fix>
</trkpt>
<trkpt lat="40.0728426" lon="-105.2305806">
  <ele>1592.93</ele>
  <time>2026-08-27T18:28:34Z</time>
  <course>75.97</course>
  <speed>0.13</speed>
  <fix>3d</fix>
</trkpt>
<trkpt lat="40.0728426" lon="-105.2305797">
  <ele>1594.15</ele>
  <time>2026-08-27T18:28:34Z</time>
  <course>3.29</course>
  <speed>0.19</speed>
  <fix>3d</fix>
</trkpt>
<trkpt lat="40.0728426" lon="-105.2305802">
  <ele>1593.44</ele>
  <time>2026-08-27T18:28:34Z</time>
  <course>84.28</course>
  <speed>0.16</speed>
  <fix>3d</fix>
</trkpt>
<trkpt lat="40.0728426" lon="-105.2305792">
  <ele>1594.66</ele>
  <time>2026-08-27T18:28:34Z</time>
  <course>3.83</course>
  <speed>0.21</speed>
  <fix>3d</fix>
</trkpt>
<trkpt lat="40.0728426" lon="-105.2305798">
  <ele>1593.93</ele>
  <time>2026-08-27T18:28:34Z</time>
  <course>89.71</course>
  <speed>0.19</speed>
  <fix>3d</fix>
</trkpt>
<trkpt lat="40.0728426" lon="-105.2305787">
  <ele>1595.16</ele>
  <time>2026-08-27T18:28:34Z</time>
  <course>4.33</course>
  <speed>0.22022715545545238</speed>
  <fix>3d</fix>
</trkpt>
<trkpt lat="40.0728426" lon="-105.2305793">
  <ele>1594.43</ele>
  <time>2026-08-27T18:28:34Z</time>
  <course>93.41</course>
  <speed>0.21</speed>
  <fix>3d</fix>
</trkpt>
<trkpt lat="40.0728425" lon="-105.2305782">
  <ele>1595.67</ele>
  <time>2026-08-27T18:28:34Z</time>
  <course>4.79</course>
  <speed>0.22022715545545238</speed>
  <fix>3d</fix>
</trkpt>
<trkpt lat="40.0728426" lon="-105.2305788">
  <ele>1594.93</ele>
  <time>2026-08-27T18:28:34Z</time>
  <course>96.18</course>
  <speed>0.22</speed>
  <fix>3d</fix>
</trkpt>
<trkpt lat="40.0728425" lon="-105.2305777">
  <ele>1596.17</ele>
  <time>2026-08-27T18:28:34Z</time>
  <course>5.22</course>
  <speed>0.22090722034374521</speed>
  <fix>3d</fix>
</trkpt>
<trkpt lat="40.0728426" lon="-105.2305782">
  <ele>1595.43</ele>
  <time>2026-08-27T18:28:34Z</time>
  <course>98.51</course>
  <speed>0.23</speed>
  <fix>3d</fix>
</trkpt>
<trkpt lat="40.0728425" lon="-105.2305772">
  <ele>1596.67</ele>
  <time>2026-08-27T18:28:34Z</time>
  <course>5.61</course>
  <speed>0.2109502310972899</speed>
  <fix>3d</fix>
</trkpt>
<trkpt lat="40.0728426" lon="-105.2305777">
  <ele>1595.92</ele>
  <time>2026-08-27T18:28:34Z</time>
  <course>100.65</course>
  <speed>0.22</speed>
  <fix>3d</fix>
</trkpt>
<trkpt lat="40.0728424" lon="-105.2305767">
  <ele>1597.17</ele>
  <time>2026-08-27T18:28:34Z</time>
  <course>6.0</course>
  <speed>0.191049731745428</speed>
  <fix>3d</fix>
</trkpt>
<trkpt lat="40.0728425" lon="-105.2305772">
  <ele>1596.41</ele>
  <time>2026-08-27T18:28:34Z</time>
  <course>102.64</course>
  <speed>0.22</speed>
  <fix>3d</fix>
</trkpt>
<trkpt lat="40.0728424" lon="-105.2305763">
  <ele>1597.66</ele>
  <time>2026-08-27T18:28:34Z</time>
  <course>6.35</course>
  <speed>0.18110770276274835</speed>
  <fix>3d</fix>
</trkpt>
<trkpt lat="40.0728424" lon="-105.2305767">
  <ele>1596.91</ele>
  <time>2026-08-27T18:28:34Z</time>
  <course>104.61</course>
  <speed>0.2</speed>
  <fix>3d</fix>
</trkpt>
<trkpt lat="40.0728423" lon="-105.2305759">
  <ele>1598.15</ele>
  <time>2026-08-27T18:28:34Z</time>
  <course>6.65</course>
  <speed>0.16124515496597097</speed>
  <fix>3d</fix>
</trkpt>
<trkpt lat="40.0728423" lon="-105.2305763">
  <ele>1597.4</ele>
  <time>2026-08-27T18:28:34Z</time>
  <course>106.78</course>
  <speed>0.19</speed>
  <fix>3d</fix>
</trkpt>
<trkpt lat="40.0728422" lon="-105.2305755">
  <ele>1598.64</ele>
  <time>2026-08-27T18:28:34Z</time>
  <course>6.95</course>
  <speed>0.13152946437965907</speed>
  <fix>3d</fix>
</trkpt>
<trkpt lat="40.0728422" lon="-105.2305758">
  <ele>1597.89</ele>
  <time>2026-08-27T18:28:34Z</time>
  <course>109.19</course>
  <speed>0.17</speed>
  <fix>3d</fix>
</trkpt>
<trkpt lat="40.0728421" lon="-105.2305752">
  <ele>1599.13</ele>
  <time>2026-08-27T18:28:34Z</time>
  <course>7.24</course>
  <speed>0.1118033988749895</speed>
  <fix>3d</fix>
</trkpt>
<trkpt lat="40.0728421" lon="-105.2305755">
  <ele>1598.39</ele>
  <time>2026-08-27T18:28:34Z</time>
  <course>111.9</course>
  <speed>0.15</speed>
  <fix>3d</fix>
</trkpt>
<trkpt lat="40.072842" lon="-105.230575">
  <ele>1599.63</ele>
  <time>2026-08-27T18:28:34Z</time>
  <course>7.52</course>
  <speed>0.09055385138137417</speed>
  <fix>3d</fix>
</trkpt>
<trkpt lat="40.072842" lon="-105.2305752">
  <ele>1598.89</ele>
  <time>2026-08-27T18:28:34Z</time>
  <course>115.2</course>
  <speed>0.12</speed>
  <fix>3d</fix>
</trkpt>
<trkpt lat="40.0728419" lon="-105.2305748">
  <ele>1600.13</ele>
  <time>2026-08-27T18:28:34Z</time>
  <course>7.78</course>
  <speed>0.07071067811865475</speed>
  <fix>3d</fix>
</trkpt>
<trkpt lat="40.0728419" lon="-105.2305749">
  <ele>1599.39</ele>
  <time>2026-08-27T18:28:34Z</time>
  <course>119.36</course>
  <speed>0.1</speed>
  <fix>3d</fix>
</trkpt>
<trkpt lat="40.0728419" lon="-105.2305746">
  <ele>1600.63</ele>
  <time>2026-08-27T18:28:34Z</time>
  <course>8.05</course>
  <speed>0.04</speed>
  <fix>3d</fix>
</trkpt>
<trkpt lat="40.0728419" lon="-105.2305748">
  <ele>1599.89</ele>
  <time>2026-08-27T18:28:34Z</time>
  <course>124.59</course>
  <speed>0.07</speed>
  <fix>3d</fix>
</trkpt>
<trkpt lat="40.0728418" lon="-105.2305746">
  <ele>1601.13</ele>
  <time>2026-08-27T18:28:34Z</time>
  <course>8.33</course>
  <speed>0.03</speed>
  <fix>3d</fix>
</trkpt>
<trkpt lat="40.0728418" lon="-105.2305746">
  <ele>1600.39</ele>
  <time>2026-08-27T18:28:34Z</time>
  <course>132.27</course>
  <speed>0.05</speed>
  <fix>3d</fix>
</trkpt>
<trkpt lat="40.0728418" lon="-105.2305745">
  <ele>1601.62</ele>
  <time>2026-08-27T18:28:34Z</time>
  <course>8.6</course>
  <speed>0.01</speed>
  <fix>3d</fix>
</trkpt>
<trkpt lat="40.0728417" lon="-105.2305746">
  <ele>1600.89</ele>
  <time>2026-08-27T18:28:34Z</time>
  <course>145.75</course>
  <speed>0.03</speed>
  <fix>3d</fix>
</trkpt>
<trkpt lat="40.0728417" lon="-105.2305745">
  <ele>1602.13</ele>
  <time>2026-08-27T18:28:34Z</time>
  <course>8.83</course>
  <speed>0.01</speed>
  <fix>3d</fix>
</trkpt>
<trkpt lat="40.0728417" lon="-105.2305746">
  <ele>1601.39</ele>
  <time>2026-08-27T18:28:34Z</time>
  <course>174.31</course>
  <speed>0.02</speed>
  <fix>3d</fix>
</trkpt>
<trkpt lat="40.0728417" lon="-105.2305746">
  <ele>1602.63</ele>
  <time>2026-08-27T18:28:34Z</time>
  <course>9.09</course>
  <speed>0.01414213562373095</speed>
  <fix>3d</fix>
</trkpt>
<trkpt lat="40.0728417" lon="-105.2305746">
  <ele>1601.89</ele>
  <time>2026-08-27T18:28:34Z</time>
  <course>226.53</course>
  <speed>0.01</speed>
  <fix>3d</fix>
</trkpt>
<trkpt lat="40.0728417" lon="-105.2305746">
  <ele>1603.14</ele>
  <time>2026-08-27T18:28:34Z</time>
  <course>9.36</course>
  <speed>0.022360679774997897</speed>
  <fix>3d</fix>
</trkpt>
<trkpt lat="40.0728417" lon="-105.2305746">
  <ele>1602.4</ele>
  <time>2026-08-27T18:28:34Z</time>
  <course>260.55</course>
  <speed>0.02</speed>
  <fix>3d</fix>
</trkpt>
<trkpt lat="40.0728417" lon="-105.2305746">
  <ele>1603.65</ele>
  <time>2026-08-27T18:28:34Z</time>
  <course>9.64</course>
  <speed>0.0282842712474619</speed>
  <fix>3d</fix>
</trkpt>
<trkpt lat="40.0728417" lon="-105.2305746">
  <ele>1602.9</ele>
  <time>2026-08-27T18:28:34Z</time>
  <course>275.45</course>
  <speed>0.03</speed>
  <fix>3d</fix>
</trkpt>
<trkpt lat="40.0728417" lon="-105.2305747">
  <ele>1604.16</ele>
  <time>2026-08-27T18:28:34Z</time>
  <course>9.92</course>
  <speed>0.03605551275463989</speed>
  <fix>3d</fix>
</trkpt>
<trkpt lat="40.0728417" lon="-105.2305747">
  <ele>1603.4</ele>
  <time>2026-08-27T18:28:34Z</time>
  <course>283.73</course>
  <speed>0.04</speed>
  <fix>3d</fix>
</trkpt>
<trkpt lat="40.0728417" lon="-105.2305748">
  <ele>1604.66</ele>
  <time>2026-08-27T18:28:34Z</time>
  <course>10.15</course>
  <speed>0.03605551275463989</speed>
  <fix>3d</fix>
</trkpt>
<trkpt lat="40.0728417" lon="-105.2305748">
  <ele>1603.9</ele>
  <time>2026-08-27T18:28:34Z</time>
  <course>289.67</course>
  <speed>0.05</speed>
  <fix>3d</fix>
</trkpt>
<trkpt lat="40.0728418" lon="-105.2305749">
  <ele>1605.17</ele>
  <time>2026-08-27T18:28:34Z</time>
  <course>10.38</course>
  <speed>0.03605551275463989</speed>
  <fix>3d</fix>
</trkpt>
<trkpt lat="40.0728417" lon="-105.2305749">
  <ele>1604.4</ele>
  <time>2026-08-27T18:28:34Z</time>
  <course>294.5</course>
  <speed>0.05</speed>
  <fix>3d</fix>
</trkpt>
<trkpt lat="40.0728418" lon="-105.230575">
  <ele>1605.68</ele>
  <time>2026-08-27T18:28:34Z</time>
  <course>10.59</course>
  <speed>0.03605551275463989</speed>
  <fix>3d</fix>
</trkpt>
<trkpt lat="40.0728417" lon="-105.230575">
  <ele>1604.9</ele>
  <time>2026-08-27T18:28:34Z</time>
  <course>298.18</course>
  <speed>0.05</speed>
  <fix>3d</fix>
</trkpt>
<trkpt lat="40.0728419" lon="-105.2305751">
  <ele>1606.18</ele>
  <time>2026-08-27T18:28:34Z</time>
  <course>10.81</course>
  <speed>0.03605551275463989</speed>
  <fix>3d</fix>
</trkpt>
<trkpt lat="40.0728417" lon="-105.2305751">
  <ele>1605.39</ele>
  <time>2026-08-27T18:28:34Z</time>
  <course>301.02</course>
  <speed>0.05</speed>
  <fix>3d</fix>
</trkpt>
<trkpt lat="40.0728419" lon="-105.2305752">
  <ele>1606.68</ele>
  <time>2026-08-27T18:28:34Z</time>
  <course>10.98</course>
  <speed>0.0316227766016838</speed>
  <fix>3d</fix>
</trkpt>
<trkpt lat="40.0728418" lon="-105.2305753">
  <ele>1605.89</ele>
  <time>2026-08-27T18:28:34Z</time>
  <course>303.98</course>
  <speed>0.05</speed>
  <fix>3d</fix>
</trkpt>
<trkpt lat="40.0728419" lon="-105.2305753">
  <ele>1607.18</ele>
  <time>2026-08-27T18:28:34Z</time>
  <course>11.19</course>
  <speed>0.0316227766016838</speed>
  <fix>3d</fix>
</trkpt>
<trkpt lat="40.0728418" lon="-105.2305754">
  <ele>1606.38</ele>
  <time>2026-08-27T18:28:34Z</time>
  <course>307.77</course>
  <speed>0.05</speed>
  <fix>3d</fix>
</trkpt>
<trkpt lat="40.072842" lon="-105.2305754">
  <ele>1607.67</ele>
  <time>2026-08-27T18:28:34Z</time>
  <course>11.36</course>
  <speed>0.03</speed>
  <fix>3d</fix>
</trkpt>
<trkpt lat="40.0728419" lon="-105.2305755">
  <ele>1606.87</ele>
  <time>2026-08-27T18:28:34Z</time>
  <course>312.56</course>
  <speed>0.05</speed>
  <fix>3d</fix>
</trkpt>
<trkpt lat="40.072842" lon="-105.2305754">
  <ele>1608.16</ele>
  <time>2026-08-27T18:28:34Z</time>
  <course>11.49</course>
  <speed>0.02</speed>
  <fix>3d</fix>
</trkpt>
<trkpt lat="40.072842" lon="-105.2305756">
  <ele>1607.37</ele>
  <time>2026-08-27T18:28:34Z</time>
  <course>317.82</course>
  <speed>0.04</speed>
  <fix>3d</fix>
</trkpt>
<trkpt lat="40.0728421" lon="-105.2305755">
  <ele>1608.65</ele>
  <time>2026-08-27T18:28:34Z</time>
  <course>11.61</course>
  <speed>0.02</speed>
  <fix>3d</fix>
</trkpt>
<trkpt lat="40.072842" lon="-105.2305756">
  <ele>1607.86</ele>
  <time>2026-08-27T18:28:34Z</time>
  <course>323.6</course>
  <speed>0.04</speed>
  <fix>3d</fix>
</trkpt>
<trkpt lat="40.0728421" lon="-105.2305755">
  <ele>1609.14</ele>
  <time>2026-08-27T18:28:34Z</time>
  <course>11.73</course>
  <speed>0.02</speed>
  <fix>3d</fix>
</trkpt>
<trkpt lat="40.0728421" lon="-105.2305756">
  <ele>1608.35</ele>
  <time>2026-08-27T18:28:34Z</time>
  <course>329.95</course>
  <speed>0.04</speed>
  <fix>3d</fix>
</trkpt>
<trkpt lat="40.0728422" lon="-105.2305755">
  <ele>1609.63</ele>
  <time>2026-08-27T18:28:34Z</time>
  <course>11.86</course>
  <speed>0.01414213562373095</speed>
  <fix>3d</fix>
</trkpt>
<trkpt lat="40.0728421" lon="-105.2305757">
  <ele>1608.85</ele>
  <time>2026-08-27T18:28:34Z</time>
  <course>335.9</course>
  <speed>0.03</speed>
  <fix>3d</fix>
</trkpt>
<trkpt lat="40.0728422" lon="-105.2305755">
  <ele>1610.13</ele>
  <time>2026-08-27T18:28:34Z</time>
  <course>11.95</course>
  <speed>0.01414213562373095</speed>
  <fix>3d</fix>
</trkpt>
<trkpt lat="40.0728422" lon="-105.2305758">
  <ele>1609.34</ele>
  <time>2026-08-27T18:28:34Z</time>
  <course>342.01</course>
  <speed>0.03</speed>
  <fix>3d</fix>
</trkpt>
<trkpt lat="40.0728422" lon="-105.2305755">
  <ele>1610.64</ele>
  <time>2026-08-27T18:28:34Z</time>
  <course>12.06</course>
  <speed>0.02</speed>
  <fix>3d</fix>
</trkpt>
<trkpt lat="40.0728423" lon="-105.2305758">
  <ele>1609.84</ele>
  <time>2026-08-27T18:28:34Z</time>
  <course>349.08</course>
  <speed>0.02</speed>
  <fix>3d</fix>
</trkpt>
<trkpt lat="40.0728422" lon="-105.2305755">
  <ele>1611.15</ele>
  <time>2026-08-27T18:28:34Z</time>
  <course>12.19</course>
  <speed>0.02</speed>
  <fix>3d</fix>
</trkpt>
<trkpt lat="40.0728423" lon="-105.2305758">
  <ele>1610.34</ele>
  <time>2026-08-27T18:28:34Z</time>
  <course>357.05</course>
  <speed>0.02</speed>
  <fix>3d</fix>
</trkpt>
<trkpt lat="40.0728423" lon="-105.2305755">
  <ele>1611.65</ele>
  <time>2026-08-27T18:28:34Z</time>
  <course>12.32</course>
  <speed>0.02</speed>
  <fix>3d</fix>
</trkpt>
<trkpt lat="40.0728424" lon="-105.2305758">
  <ele>1610.84</ele>
  <time>2026-08-27T18:28:34Z</time>
  <course>6.87</course>
  <speed>0.01</speed>
  <fix>3d</fix>
</trkpt>
<trkpt lat="40.0728423" lon="-105.2305756">
  <ele>1612.14</ele>
  <time>2026-08-27T18:28:34Z</time>
  <course>12.46</course>
  <speed>0.02</speed>
  <fix>3d</fix>
</trkpt>
<trkpt lat="40.0728424" lon="-105.2305758">
  <ele>1611.34</ele>
  <time>2026-08-27T18:28:34Z</time>
  <course>21.17</course>
  <speed>0.01</speed>
  <fix>3d</fix>
</trkpt>
<trkpt lat="40.0728423" lon="-105.2305756">
  <ele>1612.64</ele>
  <time>2026-08-27T18:28:34Z</time>
  <course>12.55</course>
  <speed>0.0316227766016838</speed>
  <fix>3d</fix>
</trkpt>
<trkpt lat="40.0728424" lon="-105.2305758">
  <ele>1611.84</ele>
  <time>2026-08-27T18:28:34Z</time>
  <course>41.42</course>
  <speed>0.01</speed>
  <fix>3d</fix>
</trkpt>
<trkpt lat="40.0728423" lon="-105.2305756">
  <ele>1613.14</ele>
  <time>2026-08-27T18:28:34Z</time>
  <course>12.71</course>
  <speed>0.0316227766016838</speed>
  <fix>3d</fix>
</trkpt>
<trkpt lat="40.0728424" lon="-105.2305758">
  <ele>1612.34</ele>
  <time>2026-08-27T18:28:34Z</time>
  <course>64.41</course>
  <speed>0.01</speed>
  <fix>3d</fix>
</trkpt>
<trkpt lat="40.0728423" lon="-105.2305756">
  <ele>1613.62</ele>
  <time>2026-08-27T18:28:34Z</time>
  <course>13.18</course>
  <speed>0.022360679774997897</speed>
  <fix>3d</fix>
</trkpt>
<trkpt lat="40.0728424" lon="-105.2305758">
  <ele>1612.83</ele>
  <time>2026-08-27T18:28:34Z</time>
  <course>82.97</course>
  <speed>0.01</speed>
  <fix>3d</fix>
</trkpt>
<trkpt lat="40.0728423" lon="-105.2305755">
  <ele>1614.07</ele>
  <time>2026-08-27T18:28:34Z</time>
  <course>13.69</course>
  <speed>0.0316227766016838</speed>
  <fix>3d</fix>
</trkpt>
<trkpt lat="40.0728424" lon="-105.2305758">
  <ele>1613.32</ele>
  <time>2026-08-27T18:28:34Z</time>
  <course>97.81</course>
  <speed>0.01</speed>
  <fix>3d</fix>
</trkpt>
<trkpt lat="40.0728423" lon="-105.2305755">
  <ele>1614.49</ele>
  <time>2026-08-27T18:28:34Z</time>
  <course>14.17</course>
  <speed>0.03605551275463989</speed>
  <fix>3d</fix>
</trkpt>
<trkpt lat="40.0728424" lon="-105.2305758">
  <ele>1613.78</ele>
  <time>2026-08-27T18:28:34Z</time>
  <course>106.72</course>
  <speed>0.01</speed>
  <fix>3d</fix>
</trkpt>
<trkpt lat="40.0728423" lon="-105.2305755">
  <ele>1614.86</ele>
  <time>2026-08-27T18:28:34Z</time>
  <course>14.63</course>
  <speed>0.03605551275463989</speed>
  <fix>3d</fix>
</trkpt>
<trkpt lat="40.0728424" lon="-105.2305757">
  <ele>1614.2</ele>
  <time>2026-08-27T18:28:34Z</time>
  <course>108.23</course>
  <speed>0.01</speed>
  <fix>3d</fix>
</trkpt>
<trkpt lat="40.0728423" lon="-105.2305754">
  <ele>1615.2</ele>
  <time>2026-08-27T18:28:34Z</time>
  <course>15.05</course>
  <speed>0.044721359549995794</speed>
  <fix>3d</fix>
</trkpt>
<trkpt lat="40.0728424" lon="-105.2305756">
  <ele>1614.59</ele>
  <time>2026-08-27T18:28:34Z</time>
  <course>106.1</course>
  <speed>0.02</speed>
  <fix>3d</fix>
</trkpt>
<trkpt lat="40.0728423" lon="-105.2305754">
  <ele>1615.5</ele>
  <time>2026-08-27T18:28:34Z</time>
  <course>15.45</course>
  <speed>0.053851648071345036</speed>
  <fix>3d</fix>
</trkpt>
<trkpt lat="40.0728424" lon="-105.2305756">
  <ele>1614.92</ele>
  <time>2026-08-27T18:28:34Z</time>
  <course>103.51</course>
  <speed>0.02</speed>
  <fix>3d</fix>
</trkpt>
<trkpt lat="40.0728423" lon="-105.2305753">
  <ele>1615.74</ele>
  <time>2026-08-27T18:28:34Z</time>
  <course>15.82</course>
  <speed>0.053851648071345036</speed>
  <fix>3d</fix>
</trkpt>
<trkpt lat="40.0728424" lon="-105.2305756">
  <ele>1615.22</ele>
  <time>2026-08-27T18:28:34Z</time>
  <course>101.62</course>
  <speed>0.03</speed>
  <fix>3d</fix>
</trkpt>
<trkpt lat="40.0728423" lon="-105.2305752">
  <ele>1615.93</ele>
  <time>2026-08-27T18:28:34Z</time>
  <course>16.15</course>
  <speed>0.0632455532033676</speed>
  <fix>3d</fix>
</trkpt>
<trkpt lat="40.0728424" lon="-105.2305755">
  <ele>1615.47</ele>
  <time>2026-08-27T18:28:34Z</time>
  <course>100.54</course>
  <speed>0.04</speed>
  <fix>3d</fix>
</trkpt>
<trkpt lat="40.0728423" lon="-105.2305751">
  <ele>1616.08</ele>
  <time>2026-08-27T18:28:34Z</time>
  <course>16.45</course>
  <speed>0.07280109889280519</speed>
  <fix>3d</fix>
</trkpt>
<trkpt lat="40.0728424" lon="-105.2305753">
  <ele>1615.67</ele>
  <time>2026-08-27T18:28:34Z</time>
  <course>100.13</course>
  <speed>0.04</speed>
  <fix>3d</fix>
</trkpt>
<trkpt lat="40.0728423" lon="-105.230575">
  <ele>1616.19</ele>
  <time>2026-08-27T18:28:34Z</time>
  <course>16.73</course>
  <speed>0.07280109889280519</speed>
  <fix>3d</fix>
</trkpt>
<trkpt lat="40.0728424" lon="-105.2305752">
  <ele>1615.84</ele>
  <time>2026-08-27T18:28:34Z</time>
  <course>100.23</course>
  <speed>0.05</speed>
  <fix>3d</fix>
</trkpt>
<trkpt lat="40.0728423" lon="-105.2305748">
  <ele>1616.26</ele>
  <time>2026-08-27T18:28:34Z</time>
  <course>17.0</course>
  <speed>0.07280109889280519</speed>
  <fix>3d</fix>
</trkpt>
<trkpt lat="40.0728424" lon="-105.2305751">
  <ele>1615.96</ele>
  <time>2026-08-27T18:28:34Z</time>
  <course>100.72</course>
  <speed>0.06</speed>
  <fix>3d</fix>
</trkpt>
<trkpt lat="40.0728423" lon="-105.2305747">
  <ele>1616.29</ele>
  <time>2026-08-27T18:28:34Z</time>
  <course>17.29</course>
  <speed>0.07280109889280519</speed>
  <fix>3d</fix>
</trkpt>
<trkpt lat="40.0728424" lon="-105.2305749">
  <ele>1616.04</ele>
  <time>2026-08-27T18:28:34Z</time>
  <course>101.53</course>
  <speed>0.06</speed>
  <fix>3d</fix>
</trkpt>
<trkpt lat="40.0728422" lon="-105.2305745">
  <ele>1616.28</ele>
  <time>2026-08-27T18:28:34Z</time>
  <course>17.87</course>
  <speed>0.07280109889280519</speed>
  <fix>3d</fix>
</trkpt>
<trkpt lat="40.0728424" lon="-105.2305748">
  <ele>1616.08</ele>
  <time>2026-08-27T18:28:34Z</time>
  <course>102.61</course>
  <speed>0.06</speed>
  <fix>3d</fix>
</trkpt>
<trkpt lat="40.0728422" lon="-105.2305744">
  <ele>1616.25</ele>
  <time>2026-08-27T18:28:34Z</time>
  <course>17.72</course>
  <speed>0.0632455532033676</speed>
  <fix>3d</fix>
</trkpt>
<trkpt lat="40.0728423" lon="-105.2305747">
  <ele>1616.08</ele>
  <time>2026-08-27T18:28:34Z</time>
  <course>104.39</course>
  <speed>0.06</speed>
  <fix>3d</fix>
</trkpt>
<trkpt lat="40.0728422" lon="-105.2305743">
  <ele>1616.22</ele>
  <time>2026-08-27T18:28:34Z</time>
  <course>17.58</course>
  <speed>0.0632455532033676</speed>
  <fix>3d</fix>
</trkpt>
<trkpt lat="40.0728423" lon="-105.2305745">
  <ele>1616.06</ele>
  <time>2026-08-27T18:28:34Z</time>
  <course>106.43</course>
  <speed>0.05</speed>
  <fix>3d</fix>
</trkpt>
<trkpt lat="40.0728422" lon="-105.2305741">
  <ele>1616.18</ele>
  <time>2026-08-27T18:28:34Z</time>
  <course>17.42</course>
  <speed>0.09</speed>
  <fix>3d</fix>
</trkpt>
<trkpt lat="40.0728423" lon="-105.2305744">
  <ele>1616.03</ele>
  <time>2026-08-27T18:28:34Z</time>
  <course>100.08</course>
  <speed>0.05</speed>
  <fix>3d</fix>
</trkpt>
<trkpt lat="40.0728423" lon="-105.2305739">
  <ele>1616.15</ele>
  <time>2026-08-27T18:28:34Z</time>
  <course>17.22</course>
  <speed>0.18027756377319945</speed>
  <fix>3d</fix>
</trkpt>
<trkpt lat="40.0728423" lon="-105.2305743">
  <ele>1616.01</ele>
  <time>2026-08-27T18:28:34Z</time>
  <course>78.55</course>
  <speed>0.07</speed>
  <fix>3d</fix>
</trkpt>
<trkpt lat="40.0728424" lon="-105.2305733">
  <ele>1616.14</ele>
  <time>2026-08-27T18:28:34Z</time>
  <course>16.99</course>
  <speed>0.33541019662496846</speed>
  <fix>3d</fix>
</trkpt>
<trkpt lat="40.0728423" lon="-105.230574">
  <ele>1615.99</ele>
  <time>2026-08-27T18:28:34Z</time>
  <course>64.31</course>
  <speed>0.16</speed>
  <fix>3d</fix>
</trkpt>
<trkpt lat="40.0728428" lon="-105.2305725">
  <ele>1616.13</ele>
  <time>2026-08-27T18:28:34Z</time>
  <course>16.75</course>
  <speed>0.5333854141237835</speed>
  <fix>3d</fix>
</trkpt>
<trkpt lat="40.0728424" lon="-105.2305735">
  <ele>1615.98</ele>
  <time>2026-08-27T18:28:34Z</time>
  <course>58.23</course>
  <speed>0.3</speed>
  <fix>3d</fix>
</trkpt>
<trkpt lat="40.0728434" lon="-105.2305713">
  <ele>1616.13</ele>
  <time>2026-08-27T18:28:34Z</time>
  <course>16.48</course>
  <speed>0.7655063683601856</speed>
  <fix>3d</fix>
</trkpt>
<trkpt lat="40.0728428" lon="-105.2305727">
  <ele>1615.98</ele>
  <time>2026-08-27T18:28:34Z</time>
  <course>55.12</course>
  <speed>0.49</speed>
  <fix>3d</fix>
</trkpt>
<trkpt lat="40.0728444" lon="-105.2305696">
  <ele>1616.13</ele>
  <time>2026-08-27T18:28:34Z</time>
  <course>16.19</course>
  <speed>1.0404326023342407</speed>
  <fix>3d</fix>
</trkpt>
<trkpt lat="40.0728435" lon="-105.2305716">
  <ele>1615.98</ele>
  <time>2026-08-27T18:28:34Z</time>
  <course>53.23</course>
  <speed>0.73</speed>
  <fix>3d</fix>
</trkpt>
<trkpt lat="40.0728457" lon="-105.2305675">
  <ele>1616.14</ele>
  <time>2026-08-27T18:28:34Z</time>
  <course>21.69</course>
  <speed>1.3024976007655444</speed>
  <fix>3d</fix>
</trkpt>
<trkpt lat="40.0728444" lon="-105.23057">
  <ele>1615.98</ele>
  <time>2026-08-27T18:28:34Z</time>
  <course>51.92</course>
  <speed>0.99</speed>
  <fix>3d</fix>
</trkpt>
<trkpt lat="40.0728473" lon="-105.2305649">
  <ele>1616.15</ele>
  <time>2026-08-27T18:28:34Z</time>
  <course>35.33</course>
  <speed>1.6602710622064096</speed>
  <fix>3d</fix>
</trkpt>
<trkpt lat="40.0728457" lon="-105.230568">
  <ele>1615.99</ele>
  <time>2026-08-27T18:28:34Z</time>
  <course>50.09</course>
  <speed>1.27</speed>
  <fix>3d</fix>
</trkpt>
<trkpt lat="40.0728494" lon="-105.2305616">
  <ele>1616.15</ele>
  <time>2026-08-27T18:28:34Z</time>
  <course>47.41</course>
  <speed>2.0700241544484452</speed>
  <fix>3d</fix>
</trkpt>
<trkpt lat="40.0728474" lon="-105.2305654">
  <ele>1616.01</ele>
  <time>2026-08-27T18:28:34Z</time>
  <course>49.7</course>
  <speed>1.6</speed>
  <fix>3d</fix>
</trkpt>
<trkpt lat="40.0728519" lon="-105.2305574">
  <ele>1616.16</ele>
  <time>2026-08-27T18:28:34Z</time>
  <course>53.66</course>
  <speed>2.5249158401816088</speed>
  <fix>3d</fix>
</trkpt>
<trkpt lat="40.0728494" lon="-105.2305621">
  <ele>1616.02</ele>
  <time>2026-08-27T18:28:34Z</time>
  <course>51.01</course>
  <speed>2.01</speed>
  <fix>3d</fix>
</trkpt>
<trkpt lat="40.0728548" lon="-105.2305522">
  <ele>1616.16</ele>
  <time>2026-08-27T18:28:34Z</time>
  <course>53.46</course>
  <speed>2.993476240092779</speed>
  <fix>3d</fix>
</trkpt>
<trkpt lat="40.0728519" lon="-105.230558">
  <ele>1616.02</ele>
  <time>2026-08-27T18:28:34Z</time>
  <course>52.68</course>
  <speed>2.46</speed>
  <fix>3d</fix>
</trkpt>
<trkpt lat="40.0728582" lon="-105.2305462">
  <ele>1616.17</ele>
  <time>2026-08-27T18:28:34Z</time>
  <course>52.84</course>
  <speed>3.4514489710844636</speed>
  <fix>3d</fix>
</trkpt>
<trkpt lat="40.0728548" lon="-105.2305528">
  <ele>1616.03</ele>
  <time>2026-08-27T18:28:34Z</time>
  <course>53.82</course>
  <speed>2.92</speed>
  <fix>3d</fix>
</trkpt>
<trkpt lat="40.0728621" lon="-105.2305392">
  <ele>1616.18</ele>
  <time>2026-08-27T18:28:34Z</time>
  <course>52.56</course>
  <speed>3.897909696234637</speed>
  <fix>3d</fix>
</trkpt>
<trkpt lat="40.0728582" lon="-105.2305469">
  <ele>1616.04</ele>
  <time>2026-08-27T18:28:34Z</time>
  <course>54.2</course>
  <speed>3.39</speed>
  <fix>3d</fix>
</trkpt>
<trkpt lat="40.0728664" lon="-105.2305314">
  <ele>1616.2</ele>
  <time>2026-08-27T18:28:34Z</time>
  <course>52.58</course>
  <speed>4.316537964619331</speed>
  <fix>3d</fix>
</trkpt>
<trkpt lat="40.072862" lon="-105.2305399">
  <ele>1616.06</ele>
  <time>2026-08-27T18:28:34Z</time>
  <course>54.47</course>
  <speed>3.85</speed>
  <fix>3d</fix>
</trkpt>
<trkpt lat="40.072871" lon="-105.2305228">
  <ele>1616.23</ele>
  <time>2026-08-27T18:28:34Z</time>
  <course>52.78</course>
  <speed>4.701680550611664</speed>
  <fix>3d</fix>
</trkpt>
<trkpt lat="40.0728661" lon="-105.2305322">
  <ele>1616.08</ele>
  <time>2026-08-27T18:28:34Z</time>
  <course>54.77</course>
  <speed>4.27</speed>
  <fix>3d</fix>
</trkpt>
<trkpt lat="40.072876" lon="-105.2305135">
  <ele>1616.26</ele>
  <time>2026-08-27T18:28:34Z</time>
  <course>53.11</course>
  <speed>5.028727473228193</speed>
  <fix>3d</fix>
</trkpt>
<trkpt lat="40.0728708" lon="-105.2305236">
  <ele>1616.1</ele>
  <time>2026-08-27T18:28:34Z</time>
  <course>55.1</course>
  <speed>4.66</speed>
  <fix>3d</fix>
</trkpt>
<trkpt lat="40.0728812" lon="-105.2305035">
  <ele>1616.3</ele>
  <time>2026-08-27T18:28:34Z</time>
  <course>53.55</course>
  <speed>5.292003401359451</speed>
  <fix>3d</fix>
</trkpt>
<trkpt lat="40.0728758" lon="-105.2305142">
  <ele>1616.14</ele>
  <time>2026-08-27T18:28:34Z</time>
  <course>55.42</course>
  <speed>5.0</speed>
  <fix>3d</fix>
</trkpt>
<trkpt lat="40.0728867" lon="-105.2304931">
  <ele>1616.35</ele>
  <time>2026-08-27T18:28:35Z</time>
  <course>54.08</course>
  <speed>5.505433679556952</speed>
  <fix>3d</fix>
</trkpt>
<trkpt lat="40.072881" lon="-105.2305042">
  <ele>1616.17</ele>
  <time>2026-08-27T18:28:35Z</time>
  <course>55.71</course>
  <speed>5.29</speed>
  <fix>3d</fix>
</trkpt>
<trkpt lat="40.0728923" lon="-105.2304822">
  <ele>1616.4</ele>
  <time>2026-08-27T18:28:35Z</time>
  <course>54.65</course>
  <speed>5.6635059812805</speed>
  <fix>3d</fix>
</trkpt>
<trkpt lat="40.0728864" lon="-105.2304937">
  <ele>1616.22</ele>
  <time>2026-08-27T18:28:35Z</time>
  <course>56.01</course>
  <speed>5.51</speed>
  <fix>3d</fix>
</trkpt>
<trkpt lat="40.0728979" lon="-105.230471">
  <ele>1616.44</ele>
  <time>2026-08-27T18:28:35Z</time>
  <course>55.26</course>
  <speed>5.785715167548434</speed>
  <fix>3d</fix>
</trkpt>
<trkpt lat="40.0728921" lon="-105.2304828">
  <ele>1616.27</ele>
  <time>2026-08-27T18:28:35Z</time>
  <course>56.33</course>
  <speed>5.68</speed>
  <fix>3d</fix>
</trkpt>
<trkpt lat="40.0729037" lon="-105.2304595">
  <ele>1616.49</ele>
  <time>2026-08-27T18:28:35Z</time>
  <course>55.86</course>
  <speed>5.866625946828381</speed>
  <fix>3d</fix>
</trkpt>
<trkpt lat="40.0728978" lon="-105.2304715">
  <ele>1616.32</ele>
  <time>2026-08-27T18:28:35Z</time>
  <course>56.67</course>
  <speed>5.81</speed>
  <fix>3d</fix>
</trkpt>
<trkpt lat="40.0729095" lon="-105.2304477">
  <ele>1616.54</ele>
  <time>2026-08-27T18:28:35Z</time>
  <course>56.42</course>
  <speed>5.930944275577035</speed>
  <fix>3d</fix>
</trkpt>
<trkpt lat="40.0729035" lon="-105.2304599">
  <ele>1616.37</ele>
  <time>2026-08-27T18:28:35Z</time>
  <course>57.02</course>
  <speed>5.9</speed>
  <fix>3d</fix>
</trkpt>
<trkpt lat="40.0729153" lon="-105.2304359">
  <ele>1616.58</ele>
  <time>2026-08-27T18:28:35Z</time>
  <course>56.92</course>
  <speed>5.9593623820002755</speed>
  <fix>3d</fix>
</trkpt>
<trkpt lat="40.0729093" lon="-105.2304483">
  <ele>1616.41</ele>
  <time>2026-08-27T18:28:35Z</time>
  <course>57.34</course>
  <speed>5.97</speed>
  <fix>3d</fix>
</trkpt>
<trkpt lat="40.072921" lon="-105.230424">
  <ele>1616.62</ele>
  <time>2026-08-27T18:28:35Z</time>
  <course>57.35</course>
  <speed>5.965668445363017</speed>
  <fix>3d</fix>
</trkpt>
<trkpt lat="40.0729151" lon="-105.2304364">
  <ele>1616.46</ele>
  <time>2026-08-27T18:28:35Z</time>
  <course>57.63</course>
  <speed>6.0</speed>
  <fix>3d</fix>
</trkpt>
<trkpt lat="40.0729267" lon="-105.2304121">
  <ele>1616.66</ele>
  <time>2026-08-27T18:28:35Z</time>
  <course>57.71</course>
  <speed>5.946604072914221</speed>
  <fix>3d</fix>
</trkpt>
<trkpt lat="40.0729209" lon="-105.2304244">
  <ele>1616.5</ele>
  <time>2026-08-27T18:28:35Z</time>
  <course>57.86</course>
  <speed>6.01</speed>
  <fix>3d</fix>
</trkpt>
<trkpt lat="40.0729324" lon="-105.2304002">
  <ele>1616.7</ele>
  <time>2026-08-27T18:28:35Z</time>
  <course>57.97</course>
  <speed>5.913797426358126</speed>
  <fix>3d</fix>
</trkpt>
<trkpt lat="40.0729266" lon="-105.2304125">
  <ele>1616.55</ele>
  <time>2026-08-27T18:28:35Z</time>
  <course>58.03</course>
  <speed>6.0</speed>
  <fix>3d</fix>
</trkpt>
<trkpt lat="40.072938" lon="-105.2303884">
  <ele>1616.73</ele>
  <time>2026-08-27T18:28:35Z</time>
  <course>58.22</course>
  <speed>5.86400034106411</speed>
  <fix>3d</fix>
</trkpt>
<trkpt lat="40.0729323" lon="-105.2304005">
  <ele>1616.59</ele>
  <time>2026-08-27T18:28:35Z</time>
  <course>58.14</course>
  <speed>5.96</speed>
  <fix>3d</fix>
</trkpt>
<trkpt lat="40.0729435" lon="-105.2303767">
  <ele>1616.77</ele>
  <time>2026-08-27T18:28:35Z</time>
  <course>58.34</course>
  <speed>5.810955171054067</speed>
  <fix>3d</fix>
</trkpt>
<trkpt lat="40.0729379" lon="-105.2303886">
  <ele>1616.62</ele>
  <time>2026-08-27T18:28:35Z</time>
  <course>58.2</course>
  <speed>5.91</speed>
  <fix>3d</fix>
</trkpt>
<trkpt lat="40.072949" lon="-105.2303651">
  <ele>1616.8</ele>
  <time>2026-08-27T18:28:35Z</time>
  <course>58.31</course>
  <speed>5.774919912864593</speed>
  <fix>3d</fix>
</trkpt>
<trkpt lat="40.0729434" lon="-105.2303769">
  <ele>1616.66</ele>
  <time>2026-08-27T18:28:35Z</time>
  <course>58.2</course>
  <speed>5.86</speed>
  <fix>3d</fix>
</trkpt>
<trkpt lat="40.0729545" lon="-105.2303536">
  <ele>1616.82</ele>
  <time>2026-08-27T18:28:35Z</time>
  <course>58.19</course>
  <speed>5.744153549479679</speed>
  <fix>3d</fix>
</trkpt>
<trkpt lat="40.072949" lon="-105.2303652">
  <ele>1616.69</ele>
  <time>2026-08-27T18:28:35Z</time>
  <course>58.16</course>
  <speed>5.82</speed>
  <fix>3d</fix>
</trkpt>
<trkpt lat="40.07296" lon="-105.2303421">
  <ele>1616.85</ele>
  <time>2026-08-27T18:28:35Z</time>
  <course>57.97</course>
  <speed>5.710210153750911</speed>
  <fix>3d</fix>
</trkpt>
<trkpt lat="40.0729545" lon="-105.2303537">
  <ele>1616.71</ele>
  <time>2026-08-27T18:28:35Z</time>
  <course>58.06</course>
  <speed>5.79</speed>
  <fix>3d</fix>
</trkpt>
<trkpt lat="40.0729655" lon="-105.2303307">
  <ele>1616.89</ele>
  <time>2026-08-27T18:28:35Z</time>
  <course>57.75</course>
  <speed>5.6456443387801185</speed>
  <fix>3d</fix>
</trkpt>
<trkpt lat="40.07296" lon="-105.2303422">
  <ele>1616.74</ele>
  <time>2026-08-27T18:28:35Z</time>
  <course>57.86</course>
  <speed>5.75</speed>
  <fix>3d</fix>
</trkpt>
<trkpt lat="40.072971" lon="-105.2303195">
  <ele>1616.92</ele>
  <time>2026-08-27T18:28:35Z</time>
  <course>57.53</course>
  <speed>5.542165641696394</speed>
  <fix>3d</fix>
</trkpt>
<trkpt lat="40.0729655" lon="-105.2303308">
  <ele>1616.77</ele>
  <time>2026-08-27T18:28:35Z</time>
  <course>57.55</course>
  <speed>5.68</speed>
  <fix>3d</fix>
</trkpt>
<trkpt lat="40.0729764" lon="-105.2303087">
  <ele>1616.96</ele>
  <time>2026-08-27T18:28:35Z</time>
  <course>57.34</course>
  <speed>5.389118666349813</speed>
  <fix>3d</fix>
</trkpt>
<trkpt lat="40.0729709" lon="-105.2303197">
  <ele>1616.81</ele>
  <time>2026-08-27T18:28:35Z</time>
  <course>57.19</course>
  <speed>5.58</speed>
  <fix>3d</fix>
</trkpt>
<trkpt lat="40.0729816" lon="-105.2302982">
  <ele>1617.0</ele>
  <time>2026-08-27T18:28:35Z</time>
  <course>57.18</course>
  <speed>5.2031240615614776</speed>
  <fix>3d</fix>
</trkpt>
<trkpt lat="40.0729764" lon="-105.2303088">
  <ele>1616.85</ele>
  <time>2026-08-27T18:28:35Z</time>
  <course>56.81</course>
  <speed>5.44</speed>
  <fix>3d</fix>
</trkpt>
<trkpt lat="40.0729868" lon="-105.2302881">
  <ele>1617.04</ele>
  <time>2026-08-27T18:28:35Z</time>
  <course>57.05</course>
  <speed>4.981214711292819</speed>
  <fix>3d</fix>
</trkpt>
<trkpt lat="40.0729817" lon="-105.2302983">
  <ele>1616.89</ele>
  <time>2026-08-27T18:28:35Z</time>
  <course>56.47</course>
  <speed>5.26</speed>
  <fix>3d</fix>
</trkpt>
<trkpt lat="40.0729917" lon="-105.2302786">
  <ele>1617.08</ele>
  <time>2026-08-27T18:28:35Z</time>
  <course>56.97</course>
  <speed>4.7095222687656975</speed>
  <fix>3d</fix>
</trkpt>
<trkpt lat="40.0729868" lon="-105.2302882">
  <ele>1616.92</ele>
  <time>2026-08-27T18:28:35Z</time>
  <course>56.16</course>
  <speed>5.03</speed>
  <fix>3d</fix>
</trkpt>
<trkpt lat="40.0729963" lon="-105.2302697">
  <ele>1617.11</ele>
  <time>2026-08-27T18:28:35Z</time>
  <course>56.91</course>
  <speed>4.404543109109048</speed>
  <fix>3d</fix>
</trkpt>
<trkpt lat="40.0729917" lon="-105.2302787">
  <ele>1616.96</ele>
  <time>2026-08-27T18:28:35Z</time>
  <course>55.89</course>
  <speed>4.77</speed>
  <fix>3d</fix>
</trkpt>
<trkpt lat="40.0730007" lon="-105.2302614">
  <ele>1617.13</ele>
  <time>2026-08-27T18:28:35Z</time>
  <course>56.82</course>
  <speed>4.04708537097996</speed>
  <fix>3d</fix>
</trkpt>
<trkpt lat="40.0729964" lon="-105.2302697">
  <ele>1616.99</ele>
  <time>2026-08-27T18:28:35Z</time>
  <course>55.66</course>
  <speed>4.46</speed>
  <fix>3d</fix>
</trkpt>
<trkpt lat="40.0730047" lon="-105.2302539">
  <ele>1617.15</ele>
  <time>2026-08-27T18:28:35Z</time>
  <course>56.71</course>
  <speed>3.650534207482516</speed>
  <fix>3d</fix>
</trkpt>
<trkpt lat="40.0730008" lon="-105.2302614">
  <ele>1617.02</ele>
  <time>2026-08-27T18:28:35Z</time>
  <course>55.44</course>
  <speed>4.11</speed>
  <fix>3d</fix>
</trkpt>
<trkpt lat="40.0730083" lon="-105.2302472">
  <ele>1617.16</ele>
  <time>2026-08-27T18:28:35Z</time>
  <course>56.57</course>
  <speed>3.2097507691408067</speed>
  <fix>3d</fix>
</trkpt>
<trkpt lat="40.0730048" lon="-105.2302538">
  <ele>1617.05</ele>
  <time>2026-08-27T18:28:35Z</time>
  <course>55.23</course>
  <speed>3.72</speed>
  <fix>3d</fix>
</trkpt>
<trkpt lat="40.0730114" lon="-105.2302414">
  <ele>1617.16</ele>
  <time>2026-08-27T18:28:35Z</time>
  <course>56.32</course>
  <speed>2.7330020124398002</speed>
  <fix>3d</fix>
</trkpt>
<trkpt lat="40.0730084" lon="-105.2302471">
  <ele>1617.06</ele>
  <time>2026-08-27T18:28:35Z</time>
  <course>55.02</course>
  <speed>3.28</speed>
  <fix>3d</fix>
</trkpt>
<trkpt lat="40.0730141" lon="-105.2302365">
  <ele>1617.17</ele>
  <time>2026-08-27T18:28:35Z</time>
  <course>56.04</course>
  <speed>2.258694313093297</speed>
  <fix>3d</fix>
</trkpt>
<trkpt lat="40.0730115" lon="-105.2302412">
  <ele>1617.07</ele>
  <time>2026-08-27T18:28:35Z</time>
  <course>54.82</course>
  <speed>2.81</speed>
  <fix>3d</fix>
</trkpt>
<trkpt lat="40.0730162" lon="-105.2302325">
  <ele>1617.16</ele>
  <time>2026-08-27T18:28:35Z</time>
  <course>55.75</course>
  <speed>1.7925400971805345</speed>
  <fix>3d</fix>
</trkpt>
<trkpt lat="40.0730141" lon="-105.2302363">
  <ele>1617.08</ele>
  <time>2026-08-27T18:28:35Z</time>
  <course>54.68</course>
  <speed>2.33</speed>
  <fix>3d</fix>
</trkpt>
<trkpt lat="40.0730179" lon="-105.2302294">
  <ele>1617.15</ele>
  <time>2026-08-27T18:28:35Z</time>
  <course>55.56</course>
  <speed>1.3763720427268202</speed>
  <fix>3d</fix>
</trkpt>
<trkpt lat="40.0730164" lon="-105.2302322">
  <ele>1617.07</ele>
  <time>2026-08-27T18:28:35Z</time>
  <course>54.67</course>
  <speed>1.86</speed>
  <fix>3d</fix>
</trkpt>
<trkpt lat="40.0730192" lon="-105.230227">
  <ele>1617.14</ele>
  <time>2026-08-27T18:28:35Z</time>
  <course>55.67</course>
  <speed>1.0125709851659783</speed>
  <fix>3d</fix>
</trkpt>
<trkpt lat="40.0730181" lon="-105.2302291">
  <ele>1617.06</ele>
  <time>2026-08-27T18:28:35Z</time>
  <course>54.88</course>
  <speed>1.42</speed>
  <fix>3d</fix>
</trkpt>
<trkpt lat="40.0730201" lon="-105.2302253">
  <ele>1617.13</ele>
  <time>2026-08-27T18:28:35Z</time>
  <course>55.92</course>
  <speed>0.7072481884034769</speed>
  <fix>3d</fix>
</trkpt>
<trkpt lat="40.0730193" lon="-105.2302268">
  <ele>1617.05</ele>
  <time>2026-08-27T18:28:35Z</time>
  <course>55.41</course>
  <speed>1.05</speed>
  <fix>3d</fix>
</trkpt>
<trkpt lat="40.0730207" lon="-105.2302241">
  <ele>1617.13</ele>
  <time>2026-08-27T18:28:35Z</time>
  <course>55.68</course>
  <speed>0.44944410108488464</speed>
  <fix>3d</fix>
</trkpt>
<trkpt lat="40.0730202" lon="-105.2302251">
  <ele>1617.04</ele>
  <time>2026-08-27T18:28:35Z</time>
  <course>56.49</course>
  <speed>0.73</speed>
  <fix>3d</fix>
</trkpt>
<trkpt lat="40.073021" lon="-105.2302233">
  <ele>1617.12</ele>
  <time>2026-08-27T18:28:35Z</time>
  <course>55.57</course>
  <speed>0.25553864678361277</speed>
  <fix>3d</fix>
</trkpt>
<trkpt lat="40.0730208" lon="-105.2302239">
  <ele>1617.03</ele>
  <time>2026-08-27T18:28:35Z</time>
  <course>58.06</course>
  <speed>0.46</speed>
  <fix>3d</fix>
</trkpt>
<trkpt lat="40.0730212" lon="-105.2302229">
  <ele>1617.12</ele>
  <time>2026-08-27T18:28:35Z</time>
  <course>55.51</course>
  <speed>0.1118033988749895</speed>
  <fix>3d</fix>
</trkpt>
<trkpt lat="40.0730212" lon="-105.2302231">
  <ele>1617.03</ele>
  <time>2026-08-27T18:28:35Z</time>
  <course>59.93</course>
  <speed>0.25</speed>
  <fix>3d</fix>
</trkpt>
<trkpt lat="40.0730213" lon="-105.2302228">
  <ele>1617.12</ele>
  <time>2026-08-27T18:28:35Z</time>
  <course>55.45</course>
  <speed>0.01</speed>
  <fix>3d</fix>
</trkpt>
<trkpt lat="40.0730213" lon="-105.2302228">
  <ele>1617.03</ele>
  <time>2026-08-27T18:28:35Z</time>
  <course>63.47</course>
  <speed>0.09</speed>
  <fix>3d</fix>
</trkpt>
<trkpt lat="40.0730212" lon="-105.2302228">
  <ele>1617.13</ele>
  <time>2026-08-27T18:28:35Z</time>
  <course>55.39</course>
  <speed>0.05</speed>
  <fix>3d</fix>
</trkpt>
<trkpt lat="40.0730213" lon="-105.2302227">
  <ele>1617.03</ele>
  <time>2026-08-27T18:28:35Z</time>
  <course>222.07</course>
  <speed>0.01</speed>
  <fix>3d</fix>
</trkpt>
<trkpt lat="40.0730211" lon="-105.230223">
  <ele>1617.13</ele>
  <time>2026-08-27T18:28:35Z</time>
  <course>55.34</course>
  <speed>0.07211102550927978</speed>
  <fix>3d</fix>
</trkpt>
<trkpt lat="40.0730213" lon="-105.2302227">
  <ele>1617.03</ele>
  <time>2026-08-27T18:28:35Z</time>
  <course>239.88</course>
  <speed>0.08</speed>
  <fix>3d</fix>
</trkpt>
<trkpt lat="40.0730211" lon="-105.2302231">
  <ele>1617.14</ele>
  <time>2026-08-27T18:28:35Z</time>
  <course>55.33</course>
  <speed>0.053851648071345036</speed>
  <fix>3d</fix>
</trkpt>
<trkpt lat="40.0730213" lon="-105.2302229">
  <ele>1617.03</ele>
  <time>2026-08-27T18:28:35Z</time>
  <course>244.62</course>
  <speed>0.11</speed>
  <fix>3d</fix>
</trkpt>
<trkpt lat="40.0730211" lon="-105.2302232">
  <ele>1617.15</ele>
  <time>2026-08-27T18:28:35Z</time>
  <course>55.3</course>
  <speed>0.02</speed>
  <fix>3d</fix>
</trkpt>
<trkpt lat="40.0730212" lon="-105.2302231">
  <ele>1617.04</ele>
  <time>2026-08-27T18:28:35Z</time>
  <course>252.18</course>
  <speed>0.1</speed>
  <fix>3d</fix>
</trkpt>
<trkpt lat="40.0730211" lon="-105.2302233">
  <ele>1617.15</ele>
  <time>2026-08-27T18:28:35Z</time>
  <course>55.28</course>
  <speed>0.044721359549995794</speed>
  <fix>3d</fix>
</trkpt>
<trkpt lat="40.0730212" lon="-105.2302234">
  <ele>1617.04</ele>
  <time>2026-08-27T18:28:35Z</time>
  <course>272.17</course>
  <speed>0.07</speed>
  <fix>3d</fix>
</trkpt>
<trkpt lat="40.0730212" lon="-105.2302232">
  <ele>1617.15</ele>
  <time>2026-08-27T18:28:35Z</time>
  <course>55.25</course>
  <speed>0.12041594578792296</speed>
  <fix>3d</fix>
</trkpt>
<trkpt lat="40.0730212" lon="-105.2302235">
  <ele>1617.05</ele>
  <time>2026-08-27T18:28:35Z</time>
  <course>332.57</course>
  <speed>0.05</speed>
  <fix>3d</fix>
</trkpt>
<trkpt lat="40.0730215" lon="-105.2302231">
  <ele>1617.15</ele>
  <time>2026-08-27T18:28:35Z</time>
  <course>55.25</course>
  <speed>0.1769180601295413</speed>
  <fix>3d</fix>
</trkpt>
<trkpt lat="40.0730212" lon="-105.2302235">
  <ele>1617.05</ele>
  <time>2026-08-27T18:28:35Z</time>
  <course>13.32</course>
  <speed>0.1</speed>
  <fix>3d</fix>
</trkpt>
<trkpt lat="40.0730217" lon="-105.230223">
  <ele>1617.15</ele>
  <time>2026-08-27T18:28:35Z</time>
  <course>55.27</course>
  <speed>0.212602916254693</speed>
  <fix>3d</fix>
</trkpt>
<trkpt lat="40.0730215" lon="-105.2302234">
  <ele>1617.05</ele>
  <time>2026-08-27T18:28:35Z</time>
  <course>23.99</course>
  <speed>0.16</speed>
  <fix>3d</fix>
</trkpt>
<trkpt lat="40.0730221" lon="-105.2302227">
  <ele>1617.15</ele>
  <time>2026-08-27T18:28:35Z</time>
  <course>55.28</course>
  <speed>0.23430749027719963</speed>
  <fix>3d</fix>
</trkpt>
<trkpt lat="40.0730218" lon="-105.2302233">
  <ele>1617.05</ele>
  <time>2026-08-27T18:28:35Z</time>
  <course>27.25</course>
  <speed>0.21</speed>
  <fix>3d</fix>
</trkpt>
<trkpt lat="40.0730224" lon="-105.2302224">
  <ele>1617.16</ele>
  <time>2026-08-27T18:28:35Z</time>
  <course>55.3</course>
  <speed>0.24083189157584592</speed>
  <fix>3d</fix>
</trkpt>
<trkpt lat="40.0730221" lon="-105.230223">
  <ele>1617.05</ele>
  <time>2026-08-27T18:28:35Z</time>
  <course>28.42</course>
  <speed>0.24</speed>
  <fix>3d</fix>
</trkpt>
<trkpt lat="40.0730228" lon="-105.2302221">
  <ele>1617.16</ele>
  <time>2026-08-27T18:28:35Z</time>
  <course>55.29</course>
  <speed>0.22671568097509268</speed>
  <fix>3d</fix>
</trkpt>
<trkpt lat="40.0730226" lon="-105.2302228">
  <ele>1617.05</ele>
  <time>2026-08-27T18:28:35Z</time>
  <course>29.16</course>
  <speed>0.25</speed>
  <fix>3d</fix>
</trkpt>
<trkpt lat="40.0730231" lon="-105.2302219">
  <ele>1617.16</ele>
  <time>2026-08-27T18:28:35Z</time>
  <course>55.3</course>
  <speed>0.20518284528683192</speed>
  <fix>3d</fix>
</trkpt>
<trkpt lat="40.073023" lon="-105.2302225">
  <ele>1617.06</ele>
  <time>2026-08-27T18:28:35Z</time>
  <course>29.94</course>
  <speed>0.25</speed>
  <fix>3d</fix>
</trkpt>
<trkpt lat="40.0730234" lon="-105.2302216">
  <ele>1617.16</ele>
  <time>2026-08-27T18:28:35Z</time>
  <course>55.29</course>
  <speed>0.18384776310850234</speed>
  <fix>3d</fix>
</trkpt>
<trkpt lat="40.0730233" lon="-105.2302222">
  <ele>1617.06</ele>
  <time>2026-08-27T18:28:35Z</time>
  <course>30.84</course>
  <speed>0.23</speed>
  <fix>3d</fix>
</trkpt>
<trkpt lat="40.0730237" lon="-105.2302214">
  <ele>1617.16</ele>
  <time>2026-08-27T18:28:35Z</time>
  <course>55.31</course>
  <speed>0.14212670403551894</speed>
  <fix>3d</fix>
</trkpt>
<trkpt lat="40.0730237" lon="-105.2302219">
  <ele>1617.06</ele>
  <time>2026-08-27T18:28:35Z</time>
  <course>31.84</course>
  <speed>0.21</speed>
  <fix>3d</fix>
</trkpt>
<trkpt lat="40.0730239" lon="-105.2302212">
  <ele>1617.16</ele>
  <time>2026-08-27T18:28:35Z</time>
  <course>55.31</course>
  <speed>0.10816653826391968</speed>
  <fix>3d</fix>
</trkpt>
<trkpt lat="40.073024" lon="-105.2302216">
  <ele>1617.06</ele>
  <time>2026-08-27T18:28:35Z</time>
  <course>33.06</course>
  <speed>0.18</speed>
  <fix>3d</fix>
</trkpt>
<trkpt lat="40.0730241" lon="-105.2302211">
  <ele>1617.17</ele>
  <time>2026-08-27T18:28:35Z</time>
  <course>55.31</course>
  <speed>0.07280109889280519</speed>
  <fix>3d</fix>
</trkpt>
<trkpt lat="40.0730243" lon="-105.2302215">
  <ele>1617.06</ele>
  <time>2026-08-27T18:28:35Z</time>
  <course>34.83</course>
  <speed>0.14</speed>
  <fix>3d</fix>
</trkpt>
<trkpt lat="40.0730242" lon="-105.230221">
  <ele>1617.17</ele>
  <time>2026-08-27T18:28:35Z</time>
  <course>55.33</course>
  <speed>0.05</speed>
  <fix>3d</fix>
</trkpt>
<trkpt lat="40.0730245" lon="-105.2302212">
  <ele>1617.05</ele>
  <time>2026-08-27T18:28:35Z</time>
  <course>37.31</course>
  <speed>0.1</speed>
  <fix>3d</fix>
</trkpt>
<trkpt lat="40.0730243" lon="-105.2302209">
  <ele>1617.17</ele>
  <time>2026-08-27T18:28:35Z</time>
  <course>55.3</course>
  <speed>0.044721359549995794</speed>
  <fix>3d</fix>
</trkpt>
<trkpt lat="40.0730245" lon="-105.2302211">
  <ele>1617.05</ele>
  <time>2026-08-27T18:28:35Z</time>
  <course>41.93</course>
  <speed>0.06</speed>
  <fix>3d</fix>
</trkpt>
<trkpt lat="40.0730243" lon="-105.2302209">
  <ele>1617.16</ele>
  <time>2026-08-27T18:28:35Z</time>
  <course>55.32</course>
  <speed>0.07</speed>
  <fix>3d</fix>
</trkpt>
<trkpt lat="40.0730246" lon="-105.2302211">
  <ele>1617.05</ele>
  <time>2026-08-27T18:28:35Z</time>
  <course>58.13</course>
  <speed>0.02</speed>
  <fix>3d</fix>
</trkpt>
<trkpt lat="40.0730243" lon="-105.230221">
  <ele>1617.16</ele>
  <time>2026-08-27T18:28:35Z</time>
  <course>55.28</course>
  <speed>0.1019803902718557</speed>
  <fix>3d</fix>
</trkpt>
<trkpt lat="40.0730246" lon="-105.230221">
  <ele>1617.05</ele>
  <time>2026-08-27T18:28:35Z</time>
  <course>171.9</course>
  <speed>0.01</speed>
  <fix>3d</fix>
</trkpt>
<trkpt lat="40.0730242" lon="-105.230221">
  <ele>1617.15</ele>
  <time>2026-08-27T18:28:35Z</time>
  <course>55.27</course>
  <speed>0.12369316876852982</speed>
  <fix>3d</fix>
</trkpt>
<trkpt lat="40.0730245" lon="-105.230221">
  <ele>1617.05</ele>
  <time>2026-08-27T18:28:35Z</time>
  <course>199.04</course>
  <speed>0.05</speed>
  <fix>3d</fix>
</trkpt>
<trkpt lat="40.073024" lon="-105.2302211">
  <ele>1617.15</ele>
  <time>2026-08-27T18:28:35Z</time>
  <course>55.25</course>
  <speed>0.14866068747318506</speed>
  <fix>3d</fix>
</trkpt>
<trkpt lat="40.0730245" lon="-105.230221">
  <ele>1617.04</ele>
  <time>2026-08-27T18:28:35Z</time>
  <course>204.54</course>
  <speed>0.08</speed>
  <fix>3d</fix>
</trkpt>
<trkpt lat="40.0730238" lon="-105.2302212">
  <ele>1617.14</ele>
  <time>2026-08-27T18:28:35Z</time>
  <course>55.24</course>
  <speed>0.1708800749063506</speed>
  <fix>3d</fix>
</trkpt>
<trkpt lat="40.0730243" lon="-105.2302211">
  <ele>1617.04</ele>
  <time>2026-08-27T18:28:35Z</time>
  <course>207.04</course>
  <speed>0.11</speed>
  <fix>3d</fix>
</trkpt>
<trkpt lat="40.0730236" lon="-105.2302214">
  <ele>1617.14</ele>
  <time>2026-08-27T18:28:35Z</time>
  <course>55.22</course>
  <speed>0.18788294228055935</speed>
  <fix>3d</fix>
</trkpt>
<trkpt lat="40.0730242" lon="-105.2302212">
  <ele>1617.04</ele>
  <time>2026-08-27T18:28:35Z</time>
  <course>208.82</course>
  <speed>0.13</speed>
  <fix>3d</fix>
</trkpt>
<trkpt lat="40.0730234" lon="-105.2302216">
  <ele>1617.14</ele>
  <time>2026-08-27T18:28:35Z</time>
  <course>55.21</course>
  <speed>0.18788294228055935</speed>
  <fix>3d</fix>
</trkpt>
<trkpt lat="40.0730239" lon="-105.2302214">
  <ele>1617.04</ele>
  <time>2026-08-27T18:28:35Z</time>
  <course>210.28</course>
  <speed>0.14</speed>
  <fix>3d</fix>
</trkpt>
<trkpt lat="40.0730231" lon="-105.2302218">
  <ele>1617.14</ele>
  <time>2026-08-27T18:28:35Z</time>
  <course>55.21</course>
  <speed>0.19235384061671343</speed>
  <fix>3d</fix>
</trkpt>
<trkpt lat="40.0730237" lon="-105.2302215">
  <ele>1617.05</ele>
  <time>2026-08-27T18:28:35Z</time>
  <course>211.6</course>
  <speed>0.15</speed>
  <fix>3d</fix>
</trkpt>
<trkpt lat="40.0730229" lon="-105.230222">
  <ele>1617.14</ele>
  <time>2026-08-27T18:28:35Z</time>
  <course>55.19</course>
  <speed>0.19235384061671343</speed>
  <fix>3d</fix>
</trkpt>
<trkpt lat="40.0730235" lon="-105.2302218">
  <ele>1617.05</ele>
  <time>2026-08-27T18:28:35Z</time>
  <course>212.71</course>
  <speed>0.16</speed>
  <fix>3d</fix>
</trkpt>
<trkpt lat="40.0730227" lon="-105.2302222">
  <ele>1617.14</ele>
  <time>2026-08-27T18:28:35Z</time>
  <course>55.18</course>
  <speed>0.1835755975068582</speed>
  <fix>3d</fix>
</trkpt>
<trkpt lat="40.0730233" lon="-105.230222">
  <ele>1617.05</ele>
  <time>2026-08-27T18:28:35Z</time>
  <course>213.74</course>
  <speed>0.16</speed>
  <fix>3d</fix>
</trkpt>
<trkpt lat="40.0730225" lon="-105.2302224">
  <ele>1617.14</ele>
  <time>2026-08-27T18:28:35Z</time>
  <course>55.19</course>
  <speed>0.17492855684535902</speed>
  <fix>3d</fix>
</trkpt>
<trkpt lat="40.073023" lon="-105.2302221">
  <ele>1617.05</ele>
  <time>2026-08-27T18:28:35Z</time>
  <course>214.83</course>
  <speed>0.15</speed>
  <fix>3d</fix>
</trkpt>
<trkpt lat="40.0730223" lon="-105.2302226">
  <ele>1617.14</ele>
  <time>2026-08-27T18:28:35Z</time>
  <course>55.17</course>
  <speed>0.16124515496597097</speed>
  <fix>3d</fix>
</trkpt>
<trkpt lat="40.0730227" lon="-105.2302224">
  <ele>1617.06</ele>
  <time>2026-08-27T18:28:35Z</time>
  <course>215.79</course>
  <speed>0.14</speed>
  <fix>3d</fix>
</trkpt>
<trkpt lat="40.0730221" lon="-105.2302228">
  <ele>1617.15</ele>
  <time>2026-08-27T18:28:35Z</time>
  <course>55.16</course>
  <speed>0.147648230602334</speed>
  <fix>3d</fix>
</trkpt>
<trkpt lat="40.0730226" lon="-105.2302226">
  <ele>1617.06</ele>
  <time>2026-08-27T18:28:35Z</time>
  <course>216.76</course>
  <speed>0.13</speed>
  <fix>3d</fix>
</trkpt>
<trkpt lat="40.0730219" lon="-105.2302229">
  <ele>1617.15</ele>
  <time>2026-08-27T18:28:35Z</time>
  <course>55.17</course>
  <speed>0.12529964086141668</speed>
  <fix>3d</fix>
</trkpt>
<trkpt lat="40.0730224" lon="-105.2302228">
  <ele>1617.06</ele>
  <time>2026-08-27T18:28:35Z</time>
  <course>217.86</course>
  <speed>0.12</speed>
  <fix>3d</fix>
</trkpt>
<trkpt lat="40.0730218" lon="-105.2302231">
  <ele>1617.16</ele>
  <time>2026-08-27T18:28:35Z</time>
  <course>55.17</course>
  <speed>0.1118033988749895</speed>
  <fix>3d</fix>
</trkpt>
<trkpt lat="40.0730222" lon="-105.230223">
  <ele>1617.07</ele>
  <time>2026-08-27T18:28:35Z</time>
  <course>218.85</course>
  <speed>0.1</speed>
  <fix>3d</fix>
</trkpt>
<trkpt lat="40.0730217" lon="-105.2302232">
  <ele>1617.15</ele>
  <time>2026-08-27T18:28:35Z</time>
  <course>55.18</course>
  <speed>0.08944271909999159</speed>
  <fix>3d</fix>
</trkpt>
<trkpt lat="40.0730221" lon="-105.2302231">
  <ele>1617.07</ele>
  <time>2026-08-27T18:28:35Z</time>
  <course>219.66</course>
  <speed>0.08</speed>
  <fix>3d</fix>
</trkpt>
<trkpt lat="40.0730217" lon="-105.2302233">
  <ele>1617.15</ele>
  <time>2026-08-27T18:28:35Z</time>
  <course>55.17</course>
  <speed>0.07615773105863909</speed>
  <fix>3d</fix>
</trkpt>
<trkpt lat="40.073022" lon="-105.2302232">
  <ele>1617.07</ele>
  <time>2026-08-27T18:28:35Z</time>
  <course>220.73</course>
  <speed>0.07</speed>
  <fix>3d</fix>
</trkpt>
<trkpt lat="40.0730216" lon="-105.2302233">
  <ele>1617.16</ele>
  <time>2026-08-27T18:28:35Z</time>
  <course>55.17</course>
  <speed>0.053851648071345036</speed>
  <fix>3d</fix>
</trkpt>
<trkpt lat="40.0730219" lon="-105.2302233">
  <ele>1617.07</ele>
  <time>2026-08-27T18:28:35Z</time>
  <course>222.72</course>
  <speed>0.05</speed>
  <fix>3d</fix>
</trkpt>
<trkpt lat="40.0730216" lon="-105.2302234">
  <ele>1617.16</ele>
  <time>2026-08-27T18:28:35Z</time>
  <course>55.17</course>
  <speed>0.0412310562561766</speed>
  <fix>3d</fix>
</trkpt>
<trkpt lat="40.0730218" lon="-105.2302234">
  <ele>1617.07</ele>
  <time>2026-08-27T18:28:35Z</time>
  <course>226.61</course>
  <speed>0.03</speed>
  <fix>3d</fix>
</trkpt>
<trkpt lat="40.0730216" lon="-105.2302234">
  <ele>1617.16</ele>
  <time>2026-08-27T18:28:35Z</time>
  <course>55.16</course>
  <speed>0.02</speed>
  <fix>3d</fix>
</trkpt>
<trkpt lat="40.0730218" lon="-105.2302234">
  <ele>1617.08</ele>
  <time>2026-08-27T18:28:35Z</time>
  <course>238.63</course>
  <speed>0.01</speed>
  <fix>3d</fix>
</trkpt>
<trkpt lat="40.0730216" lon="-105.2302234">
  <ele>1617.16</ele>
  <time>2026-08-27T18:28:35Z</time>
  <course>55.15</course>
  <speed>0.01</speed>
  <fix>3d</fix>
</trkpt>
<trkpt lat="40.0730218" lon="-105.2302234">
  <ele>1617.08</ele>
  <time>2026-08-27T18:28:35Z</time>
  <course>325.18</course>
  <speed>0.0</speed>
  <fix>3d</fix>
</trkpt>
<trkpt lat="40.0730216" lon="-105.2302234">
  <ele>1617.16</ele>
  <time>2026-08-27T18:28:35Z</time>
  <course>55.17</course>
  <speed>0.01</speed>
  <fix>3d</fix>
</trkpt>
<trkpt lat="40.0730218" lon="-105.2302234">
  <ele>1617.08</ele>
  <time>2026-08-27T18:28:35Z</time>
  <course>16.79</course>
  <speed>0.01</speed>
  <fix>3d</fix>
</trkpt>
<trkpt lat="40.0730216" lon="-105.2302234">
  <ele>1617.16</ele>
  <time>2026-08-27T18:28:35Z</time>
  <course>55.17</course>
  <speed>0.01</speed>
  <fix>3d</fix>
</trkpt>
<trkpt lat="40.0730219" lon="-105.2302234">
  <ele>1617.08</ele>
  <time>2026-08-27T18:28:35Z</time>
  <course>26.13</course>
  <speed>0.02</speed>
  <fix>3d</fix>
</trkpt>
<trkpt lat="40.0730217" lon="-105.2302234">
  <ele>1617.16</ele>
  <time>2026-08-27T18:28:35Z</time>
  <course>55.17</course>
  <speed>0.01</speed>
  <fix>3d</fix>
</trkpt>
<trkpt lat="40.0730219" lon="-105.2302234">
  <ele>1617.07</ele>
  <time>2026-08-27T18:28:35Z</time>
  <course>30.2</course>
  <speed>0.03</speed>
  <fix>3d</fix>
</trkpt>
<trkpt lat="40.0730217" lon="-105.2302233">
  <ele>1617.16</ele>
  <time>2026-08-27T18:28:35Z</time>
  <course>55.17</course>
  <speed>0.02</speed>
  <fix>3d</fix>
</trkpt>
<trkpt lat="40.0730219" lon="-105.2302234">
  <ele>1617.07</ele>
  <time>2026-08-27T18:28:35Z</time>
  <course>32.84</course>
  <speed>0.03</speed>
  <fix>3d</fix>
</trkpt>
<trkpt lat="40.0730218" lon="-105.2302233">
  <ele>1617.15</ele>
  <time>2026-08-27T18:28:35Z</time>
  <course>55.14</course>
  <speed>0.02</speed>
  <fix>3d</fix>
</trkpt>
<trkpt lat="40.0730219" lon="-105.2302234">
  <ele>1617.07</ele>
  <time>2026-08-27T18:28:35Z</time>
  <course>35.1</course>
  <speed>0.04</speed>
  <fix>3d</fix>
</trkpt>
<trkpt lat="40.0730218" lon="-105.2302232">
  <ele>1617.15</ele>
  <time>2026-08-27T18:28:35Z</time>
  <course>55.14</course>
  <speed>0.02</speed>
  <fix>3d</fix>
</trkpt>
<trkpt lat="40.073022" lon="-105.2302233">
  <ele>1617.07</ele>
  <time>2026-08-27T18:28:35Z</time>
  <course>36.8</course>
  <speed>0.04</speed>
  <fix>3d</fix>
</trkpt>
<trkpt lat="40.0730219" lon="-105.2302232">
  <ele>1617.15</ele>
  <time>2026-08-27T18:28:35Z</time>
  <course>55.14</course>
  <speed>0.02</speed>
  <fix>3d</fix>
</trkpt>
<trkpt lat="40.073022" lon="-105.2302232">
  <ele>1617.07</ele>
  <time>2026-08-27T18:28:35Z</time>
  <course>38.49</course>
  <speed>0.04</speed>
  <fix>3d</fix>
</trkpt>
<trkpt lat="40.0730219" lon="-105.2302231">
  <ele>1617.14</ele>
  <time>2026-08-27T18:28:35Z</time>
  <course>55.14</course>
  <speed>0.02</speed>
  <fix>3d</fix>
</trkpt>
<trkpt lat="40.0730221" lon="-105.2302232">
  <ele>1617.07</ele>
  <time>2026-08-27T18:28:35Z</time>
  <course>40.59</course>
  <speed>0.04</speed>
  <fix>3d</fix>
</trkpt>
<trkpt lat="40.073022" lon="-105.2302231">
  <ele>1617.14</ele>
  <time>2026-08-27T18:28:35Z</time>
  <course>55.13</course>
  <speed>0.02</speed>
  <fix>3d</fix>
</trkpt>
<trkpt lat="40.0730221" lon="-105.2302231">
  <ele>1617.07</ele>
  <time>2026-08-27T18:28:35Z</time>
  <course>43.12</course>
  <speed>0.04</speed>
  <fix>3d</fix>
</trkpt>
<trkpt lat="40.073022" lon="-105.230223">
  <ele>1617.14</ele>
  <time>2026-08-27T18:28:35Z</time>
  <course>55.12</course>
  <speed>0.01</speed>
  <fix>3d</fix>
</trkpt>
<trkpt lat="40.0730222" lon="-105.230223">
  <ele>1617.07</ele>
  <time>2026-08-27T18:28:35Z</time>
  <course>45.88</course>
  <speed>0.03</speed>
  <fix>3d</fix>
</trkpt>
<trkpt lat="40.073022" lon="-105.230223">
  <ele>1617.14</ele>
  <time>2026-08-27T18:28:35Z</time>
  <course>55.11</course>
  <speed>0.01414213562373095</speed>
  <fix>3d</fix>
</trkpt>
<trkpt lat="40.0730223" lon="-105.230223">
  <ele>1617.07</ele>
  <time>2026-08-27T18:28:35Z</time>
  <course>48.1</course>
  <speed>0.03</speed>
  <fix>3d</fix>
</trkpt>
<trkpt lat="40.0730221" lon="-105.2302229">
  <ele>1617.15</ele>
  <time>2026-08-27T18:28:35Z</time>
  <course>55.07</course>
  <speed>0.022360679774997897</speed>
  <fix>3d</fix>
</trkpt>
<trkpt lat="40.0730223" lon="-105.230223">
  <ele>1617.08</ele>
  <time>2026-08-27T18:28:35Z</time>
  <course>50.35</course>
  <speed>0.02</speed>
  <fix>3d</fix>
</trkpt>
<trkpt lat="40.073022" lon="-105.2302229">
  <ele>1617.15</ele>
  <time>2026-08-27T18:28:35Z</time>
  <course>55.18</course>
  <speed>0.09</speed>
  <fix>3d</fix>
</trkpt>
<trkpt lat="40.0730224" lon="-105.2302229">
  <ele>1617.08</ele>
  <time>2026-08-27T18:28:35Z</time>
  <course>81.4</course>
  <speed>0.01</speed>
  <fix>3d</fix>
</trkpt>
<trkpt lat="40.0730219" lon="-105.2302229">
  <ele>1617.15</ele>
  <time>2026-08-27T18:28:35Z</time>
  <course>55.34</course>
  <speed>0.2109502310972899</speed>
  <fix>3d</fix>
</trkpt>
<trkpt lat="40.0730223" lon="-105.2302229">
  <ele>1617.08</ele>
  <time>2026-08-27T18:28:35Z</time>
  <course>171.49</course>
  <speed>0.05</speed>
  <fix>3d</fix>
</trkpt>
<trkpt lat="40.0730214" lon="-105.2302229">
  <ele>1617.16</ele>
  <time>2026-08-27T18:28:35Z</time>
  <course>55.37</course>
  <speed>0.382099463490856</speed>
  <fix>3d</fix>
</trkpt>
<trkpt lat="40.0730221" lon="-105.2302229">
  <ele>1617.09</ele>
  <time>2026-08-27T18:28:35Z</time>
  <course>183.18</course>
  <speed>0.16</speed>
  <fix>3d</fix>
</trkpt>
<trkpt lat="40.0730206" lon="-105.230223">
  <ele>1617.16</ele>
  <time>2026-08-27T18:28:35Z</time>
  <course>55.34</course>
  <speed>0.5721887800367987</speed>
  <fix>3d</fix>
</trkpt>
<trkpt lat="40.0730217" lon="-105.2302229">
  <ele>1617.09</ele>
  <time>2026-08-27T18:28:35Z</time>
  <course>184.17</course>
  <speed>0.32</speed>
  <fix>3d</fix>
</trkpt>
<trkpt lat="40.0730195" lon="-105.2302231">
  <ele>1617.16</ele>
  <time>2026-08-27T18:28:35Z</time>
  <course>55.3</course>
  <speed>0.7616429609731845</speed>
  <fix>3d</fix>
</trkpt>
<trkpt lat="40.073021" lon="-105.230223">
  <ele>1617.09</ele>
  <time>2026-08-27T18:28:35Z</time>
  <course>183.29</course>
  <speed>0.51</speed>
  <fix>3d</fix>
</trkpt>
<trkpt lat="40.0730181" lon="-105.2302232">
  <ele>1617.16</ele>
  <time>2026-08-27T18:28:35Z</time>
  <course>55.28</course>
  <speed>0.9513148795220223</speed>
  <fix>3d</fix>
</trkpt>
<trkpt lat="40.0730199" lon="-105.230223">
  <ele>1617.08</ele>
  <time>2026-08-27T18:28:35Z</time>
  <course>182.22</course>
  <speed>0.7</speed>
  <fix>3d</fix>
</trkpt>
<trkpt lat="40.0730163" lon="-105.2302232">
  <ele>1617.15</ele>
  <time>2026-08-27T18:28:35Z</time>
  <course>56.06</course>
  <speed>1.1016351483136329</speed>
  <fix>3d</fix>
</trkpt>
<trkpt lat="40.0730185" lon="-105.230223">
  <ele>1617.08</ele>
  <time>2026-08-27T18:28:35Z</time>
  <course>181.43</course>
  <speed>0.89</speed>
  <fix>3d</fix>
</trkpt>
<trkpt lat="40.0730143" lon="-105.2302234">
  <ele>1617.14</ele>
  <time>2026-08-27T18:28:35Z</time>
  <course>69.08</course>
  <speed>1.2414507642270796</speed>
  <fix>3d</fix>
</trkpt>
<trkpt lat="40.0730167" lon="-105.230223">
  <ele>1617.08</ele>
  <time>2026-08-27T18:28:35Z</time>
  <course>181.92</course>
  <speed>1.05</speed>
  <fix>3d</fix>
</trkpt>
<trkpt lat="40.073012" lon="-105.2302234">
  <ele>1617.14</ele>
  <time>2026-08-27T18:28:35Z</time>
  <course>81.26</course>
  <speed>1.4000357138301864</speed>
  <fix>3d</fix>
</trkpt>
<trkpt lat="40.0730147" lon="-105.2302231">
  <ele>1617.08</ele>
  <time>2026-08-27T18:28:35Z</time>
  <course>181.7</course>
  <speed>1.2</speed>
  <fix>3d</fix>
</trkpt>
<trkpt lat="40.0730094" lon="-105.2302233">
  <ele>1617.14</ele>
  <time>2026-08-27T18:28:35Z</time>
  <course>93.23</course>
  <speed>1.5311760186209813</speed>
  <fix>3d</fix>
</trkpt>
<trkpt lat="40.0730123" lon="-105.2302232">
  <ele>1617.07</ele>
  <time>2026-08-27T18:28:35Z</time>
  <course>179.6</course>
  <speed>1.35</speed>
  <fix>3d</fix>
</trkpt>
<trkpt lat="40.0730066" lon="-105.230223">
  <ele>1617.14</ele>
  <time>2026-08-27T18:28:35Z</time>
  <course>105.15</course>
  <speed>1.6776471619503308</speed>
  <fix>3d</fix>
</trkpt>
<trkpt lat="40.0730098" lon="-105.2302231">
  <ele>1617.07</ele>
  <time>2026-08-27T18:28:35Z</time>
  <course>176.85</course>
  <speed>1.5</speed>
  <fix>3d</fix>
</trkpt>
<trkpt lat="40.0730036" lon="-105.2302225">
  <ele>1617.14</ele>
  <time>2026-08-27T18:28:35Z</time>
  <course>117.19</course>
  <speed>1.828578683021324</speed>
  <fix>3d</fix>
</trkpt>
<trkpt lat="40.073007" lon="-105.2302229">
  <ele>1617.07</ele>
  <time>2026-08-27T18:28:35Z</time>
  <course>173.87</course>
  <speed>1.64</speed>
  <fix>3d</fix>
</trkpt>
<trkpt lat="40.0730002" lon="-105.2302217">
  <ele>1617.14</ele>
  <time>2026-08-27T18:28:35Z</time>
  <course>129.3</course>
  <speed>2.0026232796010337</speed>
  <fix>3d</fix>
</trkpt>
<trkpt lat="40.073004" lon="-105.2302224">
  <ele>1617.07</ele>
  <time>2026-08-27T18:28:35Z</time>
  <course>171.15</course>
  <speed>1.79</speed>
  <fix>3d</fix>
</trkpt>
<trkpt lat="40.0729966" lon="-105.2302207">
  <ele>1617.13</ele>
  <time>2026-08-27T18:28:35Z</time>
  <course>141.45</course>
  <speed>2.2141589825484527</speed>
  <fix>3d</fix>
</trkpt>
<trkpt lat="40.0730006" lon="-105.2302216">
  <ele>1617.07</ele>
  <time>2026-08-27T18:28:35Z</time>
  <course>169.09</course>
  <speed>1.96</speed>
  <fix>3d</fix>
</trkpt>
<trkpt lat="40.0729925" lon="-105.2302196">
  <ele>1617.13</ele>
  <time>2026-08-27T18:28:35Z</time>
  <course>153.56</course>
  <speed>2.4279209212822397</speed>
  <fix>3d</fix>
</trkpt>
<trkpt lat="40.072997" lon="-105.2302206">
  <ele>1617.07</ele>
  <time>2026-08-27T18:28:35Z</time>
  <course>167.94</course>
  <speed>2.16</speed>
  <fix>3d</fix>
</trkpt>
<trkpt lat="40.0729881" lon="-105.2302184">
  <ele>1617.13</ele>
  <time>2026-08-27T18:28:35Z</time>
  <course>165.69</course>
  <speed>2.6537709019431195</speed>
  <fix>3d</fix>
</trkpt>
<trkpt lat="40.0729929" lon="-105.2302195">
  <ele>1617.07</ele>
  <time>2026-08-27T18:28:35Z</time>
  <course>167.82</course>
  <speed>2.37</speed>
  <fix>3d</fix>
</trkpt>
<trkpt lat="40.0729833" lon="-105.2302173">
  <ele>1617.13</ele>
  <time>2026-08-27T18:28:36Z</time>
  <course>171.43</course>
  <speed>2.877933286231632</speed>
  <fix>3d</fix>
</trkpt>
<trkpt lat="40.0729886" lon="-105.2302182">
  <ele>1617.07</ele>
  <time>2026-08-27T18:28:36Z</time>
  <course>168.83</course>
  <speed>2.59</speed>
  <fix>3d</fix>
</trkpt>
<trkpt lat="40.0729781" lon="-105.2302164">
  <ele>1617.13</ele>
  <time>2026-08-27T18:28:36Z</time>
  <course>172.52</course>
  <speed>3.068892308309303</speed>
  <fix>3d</fix>
</trkpt>
<trkpt lat="40.0729838" lon="-105.2302172">
  <ele>1617.07</ele>
  <time>2026-08-27T18:28:36Z</time>
  <course>170.8</course>
  <speed>2.82</speed>
  <fix>3d</fix>
</trkpt>
<trkpt lat="40.0729725" lon="-105.2302156">
  <ele>1617.13</ele>
  <time>2026-08-27T18:28:36Z</time>
  <course>173.76</course>
  <speed>3.2421135081918404</speed>
  <fix>3d</fix>
</trkpt>
<trkpt lat="40.0729786" lon="-105.2302162">
  <ele>1617.07</ele>
  <time>2026-08-27T18:28:36Z</time>
  <course>172.74</course>
  <speed>3.02</speed>
  <fix>3d</fix>
</trkpt>
<trkpt lat="40.0729666" lon="-105.2302149">
  <ele>1617.14</ele>
  <time>2026-08-27T18:28:36Z</time>
  <course>175.22</course>
  <speed>3.396498196672567</speed>
  <fix>3d</fix>
</trkpt>
<trkpt lat="40.0729731" lon="-105.2302154">
  <ele>1617.08</ele>
  <time>2026-08-27T18:28:36Z</time>
  <course>174.32</course>
  <speed>3.2</speed>
  <fix>3d</fix>
</trkpt>
<trkpt lat="40.0729605" lon="-105.2302145">
  <ele>1617.14</ele>
  <time>2026-08-27T18:28:36Z</time>
  <course>176.8</course>
  <speed>3.542033314354906</speed>
  <fix>3d</fix>
</trkpt>
<trkpt lat="40.0729672" lon="-105.2302148">
  <ele>1617.08</ele>
  <time>2026-08-27T18:28:36Z</time>
  <course>175.92</course>
  <speed>3.36</speed>
  <fix>3d</fix>
</trkpt>
<trkpt lat="40.0729541" lon="-105.2302142">
  <ele>1617.15</ele>
  <time>2026-08-27T18:28:36Z</time>
  <course>178.36</course>
  <speed>3.690121949204389</speed>
  <fix>3d</fix>
</trkpt>
<trkpt lat="40.072961" lon="-105.2302143">
  <ele>1617.09</ele>
  <time>2026-08-27T18:28:36Z</time>
  <course>177.54</course>
  <speed>3.51</speed>
  <fix>3d</fix>
</trkpt>
<trkpt lat="40.0729474" lon="-105.2302142">
  <ele>1617.15</ele>
  <time>2026-08-27T18:28:36Z</time>
  <course>179.84</course>
  <speed>3.8303263568526376</speed>
  <fix>3d</fix>
</trkpt>
<trkpt lat="40.0729546" lon="-105.230214">
  <ele>1617.09</ele>
  <time>2026-08-27T18:28:36Z</time>
  <course>179.13</course>
  <speed>3.66</speed>
  <fix>3d</fix>
</trkpt>
<trkpt lat="40.0729404" lon="-105.2302143">
  <ele>1617.16</ele>
  <time>2026-08-27T18:28:36Z</time>
  <course>181.15</course>
  <speed>3.9824615503479754</speed>
  <fix>3d</fix>
</trkpt>
<trkpt lat="40.0729479" lon="-105.230214">
  <ele>1617.1</ele>
  <time>2026-08-27T18:28:36Z</time>
  <course>180.59</course>
  <speed>3.81</speed>
  <fix>3d</fix>
</trkpt>
<trkpt lat="40.0729331" lon="-105.2302147">
  <ele>1617.16</ele>
  <time>2026-08-27T18:28:36Z</time>
  <course>182.23</course>
  <speed>4.13533553656774</speed>
  <fix>3d</fix>
</trkpt>
<trkpt lat="40.0729409" lon="-105.2302142">
  <ele>1617.1</ele>
  <time>2026-08-27T18:28:36Z</time>
  <course>181.87</course>
  <speed>3.96</speed>
  <fix>3d</fix>
</trkpt>
<trkpt lat="40.0729256" lon="-105.2302152">
  <ele>1617.15</ele>
  <time>2026-08-27T18:28:36Z</time>
  <course>183.06</course>
  <speed>4.2991278185231945</speed>
  <fix>3d</fix>
</trkpt>
<trkpt lat="40.0729336" lon="-105.2302145">
  <ele>1617.09</ele>
  <time>2026-08-27T18:28:36Z</time>
  <course>182.93</course>
  <speed>4.12</speed>
  <fix>3d</fix>
</trkpt>
<trkpt lat="40.0729178" lon="-105.2302159">
  <ele>1617.14</ele>
  <time>2026-08-27T18:28:36Z</time>
  <course>183.63</course>
  <speed>4.462219178839157</speed>
  <fix>3d</fix>
</trkpt>
<trkpt lat="40.072926" lon="-105.2302151">
  <ele>1617.09</ele>
  <time>2026-08-27T18:28:36Z</time>
  <course>183.74</course>
  <speed>4.28</speed>
  <fix>3d</fix>
</trkpt>
<trkpt lat="40.0729097" lon="-105.2302167">
  <ele>1617.14</ele>
  <time>2026-08-27T18:28:36Z</time>
  <course>183.97</course>
  <speed>4.634004747515911</speed>
  <fix>3d</fix>
</trkpt>
<trkpt lat="40.0729183" lon="-105.2302158">
  <ele>1617.08</ele>
  <time>2026-08-27T18:28:36Z</time>
  <course>184.3</course>
  <speed>4.45</speed>
  <fix>3d</fix>
</trkpt>
<trkpt lat="40.0729013" lon="-105.2302176">
  <ele>1617.13</ele>
  <time>2026-08-27T18:28:36Z</time>
  <course>184.05</course>
  <speed>4.824987046614736</speed>
  <fix>3d</fix>
</trkpt>
<trkpt lat="40.0729101" lon="-105.2302167">
  <ele>1617.08</ele>
  <time>2026-08-27T18:28:36Z</time>
  <course>184.63</course>
  <speed>4.62</speed>
  <fix>3d</fix>
</trkpt>
<trkpt lat="40.0728925" lon="-105.2302185">
  <ele>1617.13</ele>
  <time>2026-08-27T18:28:36Z</time>
  <course>183.94</course>
  <speed>5.015186935698409</speed>
  <fix>3d</fix>
</trkpt>
<trkpt lat="40.0729016" lon="-105.2302176">
  <ele>1617.07</ele>
  <time>2026-08-27T18:28:36Z</time>
  <course>184.75</course>
  <speed>4.8</speed>
  <fix>3d</fix>
</trkpt>
<trkpt lat="40.0728834" lon="-105.2302194">
  <ele>1617.13</ele>
  <time>2026-08-27T18:28:36Z</time>
  <course>183.68</course>
  <speed>5.223839584060751</speed>
  <fix>3d</fix>
</trkpt>
<trkpt lat="40.0728929" lon="-105.2302185">
  <ele>1617.07</ele>
  <time>2026-08-27T18:28:36Z</time>
  <course>184.67</course>
  <speed>5.0</speed>
  <fix>3d</fix>
</trkpt>
<trkpt lat="40.0728739" lon="-105.2302203">
  <ele>1617.12</ele>
  <time>2026-08-27T18:28:36Z</time>
  <course>183.21</course>
  <speed>5.431942562288375</speed>
  <fix>3d</fix>
</trkpt>
<trkpt lat="40.0728837" lon="-105.2302194">
  <ele>1617.06</ele>
  <time>2026-08-27T18:28:36Z</time>
  <course>184.41</course>
  <speed>5.2</speed>
  <fix>3d</fix>
</trkpt>
<trkpt lat="40.072864" lon="-105.2302212">
  <ele>1617.12</ele>
  <time>2026-08-27T18:28:36Z</time>
  <course>182.63</course>
  <speed>5.65905469137735</speed>
  <fix>3d</fix>
</trkpt>
<trkpt lat="40.0728742" lon="-105.2302204">
  <ele>1617.06</ele>
  <time>2026-08-27T18:28:36Z</time>
  <course>184.01</course>
  <speed>5.41</speed>
  <fix>3d</fix>
</trkpt>
<trkpt lat="40.0728536" lon="-105.2302219">
  <ele>1617.12</ele>
  <time>2026-08-27T18:28:36Z</time>
  <course>181.93</course>
  <speed>5.896651592217401</speed>
  <fix>3d</fix>
</trkpt>
<trkpt lat="40.0728643" lon="-105.2302213">
  <ele>1617.05</ele>
  <time>2026-08-27T18:28:36Z</time>
  <course>183.51</course>
  <speed>5.64</speed>
  <fix>3d</fix>
</trkpt>
<trkpt lat="40.0728428" lon="-105.2302226">
  <ele>1617.11</ele>
  <time>2026-08-27T18:28:36Z</time>
  <course>181.19</course>
  <speed>6.154299310238331</speed>
  <fix>3d</fix>
</trkpt>
<trkpt lat="40.072854" lon="-105.230222">
  <ele>1617.04</ele>
  <time>2026-08-27T18:28:36Z</time>
  <course>182.94</course>
  <speed>5.87</speed>
  <fix>3d</fix>
</trkpt>
<trkpt lat="40.0728315" lon="-105.2302231">
  <ele>1617.11</ele>
  <time>2026-08-27T18:28:36Z</time>
  <course>180.39</course>
  <speed>6.412526803062892</speed>
  <fix>3d</fix>
</trkpt>
<trkpt lat="40.0728432" lon="-105.2302226">
  <ele>1617.04</ele>
  <time>2026-08-27T18:28:36Z</time>
  <course>182.33</course>
  <speed>6.12</speed>
  <fix>3d</fix>
</trkpt>
<trkpt lat="40.0728197" lon="-105.2302234">
  <ele>1617.1</ele>
  <time>2026-08-27T18:28:36Z</time>
  <course>179.47</course>
  <speed>6.651082618641871</speed>
  <fix>3d</fix>
</trkpt>
<trkpt lat="40.072832" lon="-105.2302232">
  <ele>1617.03</ele>
  <time>2026-08-27T18:28:36Z</time>
  <course>181.72</course>
  <speed>6.38</speed>
  <fix>3d</fix>
</trkpt>
<trkpt lat="40.0728077" lon="-105.2302237">
  <ele>1617.12</ele>
  <time>2026-08-27T18:28:36Z</time>
  <course>179.12</course>
  <speed>6.770118167358675</speed>
  <fix>3d</fix>
</trkpt>
<trkpt lat="40.0728203" lon="-105.2302235">
  <ele>1617.03</ele>
  <time>2026-08-27T18:28:36Z</time>
  <course>181.13</course>
  <speed>6.61</speed>
  <fix>3d</fix>
</trkpt>
<trkpt lat="40.0727956" lon="-105.2302237">
  <ele>1617.16</ele>
  <time>2026-08-27T18:28:36Z</time>
  <course>179.17</course>
  <speed>6.740029673525185</speed>
  <fix>3d</fix>
</trkpt>
<trkpt lat="40.0728083" lon="-105.2302238">
  <ele>1617.04</ele>
  <time>2026-08-27T18:28:36Z</time>
  <course>180.52</course>
  <speed>6.75</speed>
  <fix>3d</fix>
</trkpt>
<trkpt lat="40.0727836" lon="-105.2302236">
  <ele>1617.2</ele>
  <time>2026-08-27T18:28:36Z</time>
  <course>179.47</course>
  <speed>6.5902731354625965</speed>
  <fix>3d</fix>
</trkpt>
<trkpt lat="40.0727961" lon="-105.2302239">
  <ele>1617.07</ele>
  <time>2026-08-27T18:28:36Z</time>
  <course>179.97</course>
  <speed>6.75</speed>
  <fix>3d</fix>
</trkpt>
<trkpt lat="40.0727719" lon="-105.2302235">
  <ele>1617.25</ele>
  <time>2026-08-27T18:28:36Z</time>
  <course>179.88</course>
  <speed>6.39038340007859</speed>
  <fix>3d</fix>
</trkpt>
<trkpt lat="40.0727841" lon="-105.2302239">
  <ele>1617.12</ele>
  <time>2026-08-27T18:28:36Z</time>
  <course>179.63</course>
  <speed>6.63</speed>
  <fix>3d</fix>
</trkpt>
<trkpt lat="40.0727607" lon="-105.2302234">
  <ele>1617.28</ele>
  <time>2026-08-27T18:28:36Z</time>
  <course>180.34</course>
  <speed>6.140399009836412</speed>
  <fix>3d</fix>
</trkpt>
<trkpt lat="40.0727724" lon="-105.2302238">
  <ele>1617.16</ele>
  <time>2026-08-27T18:28:36Z</time>
  <course>179.56</course>
  <speed>6.43</speed>
  <fix>3d</fix>
</trkpt>
<trkpt lat="40.0727499" lon="-105.2302234">
  <ele>1617.31</ele>
  <time>2026-08-27T18:28:36Z</time>
  <course>180.79</course>
  <speed>5.8502136713115025</speed>
  <fix>3d</fix>
</trkpt>
<trkpt lat="40.072761" lon="-105.2302237">
  <ele>1617.2</ele>
  <time>2026-08-27T18:28:36Z</time>
  <course>179.71</course>
  <speed>6.19</speed>
  <fix>3d</fix>
</trkpt>
<trkpt lat="40.0727396" lon="-105.2302234">
  <ele>1617.32</ele>
  <time>2026-08-27T18:28:36Z</time>
  <course>181.22</course>
  <speed>5.540036100965408</speed>
  <fix>3d</fix>
</trkpt>
<trkpt lat="40.0727502" lon="-105.2302237">
  <ele>1617.23</ele>
  <time>2026-08-27T18:28:36Z</time>
  <course>179.98</course>
  <speed>5.91</speed>
  <fix>3d</fix>
</trkpt>
<trkpt lat="40.0727299" lon="-105.2302234">
  <ele>1617.32</ele>
  <time>2026-08-27T18:28:36Z</time>
  <course>181.57</course>
  <speed>5.18</speed>
  <fix>3d</fix>
</trkpt>
<trkpt lat="40.0727398" lon="-105.2302237">
  <ele>1617.24</ele>
  <time>2026-08-27T18:28:36Z</time>
  <course>180.33</course>
  <speed>5.59</speed>
  <fix>3d</fix>
</trkpt>
<trkpt lat="40.0727208" lon="-105.2302235">
  <ele>1617.3</ele>
  <time>2026-08-27T18:28:36Z</time>
  <course>181.83</course>
  <speed>4.810010394999162</speed>
  <fix>3d</fix>
</trkpt>
<trkpt lat="40.0727301" lon="-105.2302237">
  <ele>1617.23</ele>
  <time>2026-08-27T18:28:36Z</time>
  <course>180.71</course>
  <speed>5.25</speed>
  <fix>3d</fix>
</trkpt>
<trkpt lat="40.0727125" lon="-105.2302237">
  <ele>1617.28</ele>
  <time>2026-08-27T18:28:36Z</time>
  <course>182.04</course>
  <speed>4.420045248637168</speed>
  <fix>3d</fix>
</trkpt>
<trkpt lat="40.072721" lon="-105.2302239">
  <ele>1617.22</ele>
  <time>2026-08-27T18:28:36Z</time>
  <course>181.12</course>
  <speed>4.87</speed>
  <fix>3d</fix>
</trkpt>
<trkpt lat="40.0727048" lon="-105.2302239">
  <ele>1617.26</ele>
  <time>2026-08-27T18:28:36Z</time>
  <course>182.22</course>
  <speed>4.020199000049624</speed>
  <fix>3d</fix>
</trkpt>
<trkpt lat="40.0727125" lon="-105.2302241">
  <ele>1617.2</ele>
  <time>2026-08-27T18:28:36Z</time>
  <course>181.54</course>
  <speed>4.48</speed>
  <fix>3d</fix>
</trkpt>
<trkpt lat="40.0726979" lon="-105.2302242">
  <ele>1617.23</ele>
  <time>2026-08-27T18:28:36Z</time>
  <course>182.32</course>
  <speed>3.6203452874000845</speed>
  <fix>3d</fix>
</trkpt>
<trkpt lat="40.0727048" lon="-105.2302244">
  <ele>1617.17</ele>
  <time>2026-08-27T18:28:36Z</time>
  <course>181.99</course>
  <speed>4.08</speed>
  <fix>3d</fix>
</trkpt>
<trkpt lat="40.0726916" lon="-105.2302245">
  <ele>1617.2</ele>
  <time>2026-08-27T18:28:36Z</time>
  <course>182.39</course>
  <speed>3.2303869737231174</speed>
  <fix>3d</fix>
</trkpt>
<trkpt lat="40.0726978" lon="-105.2302248">
  <ele>1617.15</ele>
  <time>2026-08-27T18:28:36Z</time>
  <course>182.43</course>
  <speed>3.67</speed>
  <fix>3d</fix>
</trkpt>
<trkpt lat="40.0726861" lon="-105.2302249">
  <ele>1617.17</ele>
  <time>2026-08-27T18:28:36Z</time>
  <course>182.38</course>
  <speed>2.8504385627478452</speed>
  <fix>3d</fix>
</trkpt>
<trkpt lat="40.0726916" lon="-105.2302251">
  <ele>1617.12</ele>
  <time>2026-08-27T18:28:36Z</time>
  <course>182.83</course>
  <speed>3.28</speed>
  <fix>3d</fix>
</trkpt>
<trkpt lat="40.0726813" lon="-105.2302252">
  <ele>1617.15</ele>
  <time>2026-08-27T18:28:36Z</time>
  <course>182.23</course>
  <speed>2.4903212644154973</speed>
  <fix>3d</fix>
</trkpt>
<trkpt lat="40.0726861" lon="-105.2302256">
  <ele>1617.1</ele>
  <time>2026-08-27T18:28:36Z</time>
  <course>183.16</course>
  <speed>2.89</speed>
  <fix>3d</fix>
</trkpt>
<trkpt lat="40.0726771" lon="-105.2302255">
  <ele>1617.12</ele>
  <time>2026-08-27T18:28:36Z</time>
  <course>181.94</course>
  <speed>2.160208323287363</speed>
  <fix>3d</fix>
</trkpt>
<trkpt lat="40.0726812" lon="-105.2302259">
  <ele>1617.08</ele>
  <time>2026-08-27T18:28:36Z</time>
  <course>183.37</course>
  <speed>2.53</speed>
  <fix>3d</fix>
</trkpt>
<trkpt lat="40.0726734" lon="-105.2302258">
  <ele>1617.11</ele>
  <time>2026-08-27T18:28:36Z</time>
  <course>181.46</course>
  <speed>1.8400271737123886</speed>
  <fix>3d</fix>
</trkpt>
<trkpt lat="40.072677" lon="-105.2302262">
  <ele>1617.06</ele>
  <time>2026-08-27T18:28:36Z</time>
  <course>183.39</course>
  <speed>2.18</speed>
  <fix>3d</fix>
</trkpt>
<trkpt lat="40.0726703" lon="-105.230226">
  <ele>1617.1</ele>
  <time>2026-08-27T18:28:36Z</time>
  <course>180.68</course>
  <speed>1.5600320509528</speed>
  <fix>3d</fix>
</trkpt>
<trkpt lat="40.0726734" lon="-105.2302265">
  <ele>1617.04</ele>
  <time>2026-08-27T18:28:36Z</time>
  <course>183.16</course>
  <speed>1.86</speed>
  <fix>3d</fix>
</trkpt>
<trkpt lat="40.0726678" lon="-105.2302262">
  <ele>1617.1</ele>
  <time>2026-08-27T18:28:36Z</time>
  <course>179.51</course>
  <speed>1.2906200060436068</speed>
  <fix>3d</fix>
</trkpt>
<trkpt lat="40.0726703" lon="-105.2302267">
  <ele>1617.04</ele>
  <time>2026-08-27T18:28:36Z</time>
  <course>182.57</course>
  <speed>1.56</speed>
  <fix>3d</fix>
</trkpt>
<trkpt lat="40.0726657" lon="-105.2302262">
  <ele>1617.1</ele>
  <time>2026-08-27T18:28:36Z</time>
  <course>177.79</course>
  <speed>1.0517128885774862</speed>
  <fix>3d</fix>
</trkpt>
<trkpt lat="40.0726677" lon="-105.2302268">
  <ele>1617.04</ele>
  <time>2026-08-27T18:28:36Z</time>
  <course>181.51</course>
  <speed>1.29</speed>
  <fix>3d</fix>
</trkpt>
<trkpt lat="40.072664" lon="-105.2302263">
  <ele>1617.11</ele>
  <time>2026-08-27T18:28:36Z</time>
  <course>175.71</course>
  <speed>0.8260750571225353</speed>
  <fix>3d</fix>
</trkpt>
<trkpt lat="40.0726657" lon="-105.2302268">
  <ele>1617.04</ele>
  <time>2026-08-27T18:28:36Z</time>
  <course>179.8</course>
  <speed>1.04</speed>
  <fix>3d</fix>
</trkpt>
<trkpt lat="40.0726627" lon="-105.2302262">
  <ele>1617.12</ele>
  <time>2026-08-27T18:28:36Z</time>
  <course>176.02</course>
  <speed>0.6334824385884742</speed>
  <fix>3d</fix>
</trkpt>
<trkpt lat="40.072664" lon="-105.2302268">
  <ele>1617.04</ele>
  <time>2026-08-27T18:28:36Z</time>
  <course>176.63</course>
  <speed>0.81</speed>
  <fix>3d</fix>
</trkpt>
<trkpt lat="40.0726618" lon="-105.230226">
  <ele>1617.13</ele>
  <time>2026-08-27T18:28:36Z</time>
  <course>176.04</course>
  <speed>0.455411901469428</speed>
  <fix>3d</fix>
</trkpt>
<trkpt lat="40.0726627" lon="-105.2302267">
  <ele>1617.05</ele>
  <time>2026-08-27T18:28:36Z</time>
  <course>171.71</course>
  <speed>0.6</speed>
  <fix>3d</fix>
</trkpt>
<trkpt lat="40.0726612" lon="-105.2302258">
  <ele>1617.14</ele>
  <time>2026-08-27T18:28:36Z</time>
  <course>176.03</course>
  <speed>0.30528675044947495</speed>
  <fix>3d</fix>
</trkpt>
<trkpt lat="40.0726618" lon="-105.2302265">
  <ele>1617.05</ele>
  <time>2026-08-27T18:28:36Z</time>
  <course>164.52</course>
  <speed>0.43</speed>
  <fix>3d</fix>
</trkpt>
<trkpt lat="40.0726609" lon="-105.2302255">
  <ele>1617.14</ele>
  <time>2026-08-27T18:28:36Z</time>
  <course>176.03</course>
  <speed>0.1972308292331602</speed>
  <fix>3d</fix>
</trkpt>
<trkpt lat="40.0726612" lon="-105.2302262">
  <ele>1617.06</ele>
  <time>2026-08-27T18:28:36Z</time>
  <course>150.48</course>
  <speed>0.27</speed>
  <fix>3d</fix>
</trkpt>
<trkpt lat="40.0726609" lon="-105.2302252">
  <ele>1617.14</ele>
  <time>2026-08-27T18:28:36Z</time>
  <course>176.03</course>
  <speed>0.17464249196572978</speed>
  <fix>3d</fix>
</trkpt>
<trkpt lat="40.0726609" lon="-105.2302258">
  <ele>1617.06</ele>
  <time>2026-08-27T18:28:36Z</time>
  <course>117.58</course>
  <speed>0.17</speed>
  <fix>3d</fix>
</trkpt>
<trkpt lat="40.072661" lon="-105.2302248">
  <ele>1617.14</ele>
  <time>2026-08-27T18:28:36Z</time>
  <course>176.03</course>
  <speed>0.261725046566048</speed>
  <fix>3d</fix>
</trkpt>
<trkpt lat="40.0726609" lon="-105.2302255">
  <ele>1617.06</ele>
  <time>2026-08-27T18:28:36Z</time>
  <course>66.55</course>
  <speed>0.18</speed>
  <fix>3d</fix>
</trkpt>
<trkpt lat="40.0726616" lon="-105.2302244">
  <ele>1617.14</ele>
  <time>2026-08-27T18:28:36Z</time>
  <course>176.09</course>
  <speed>0.40249223594996214</speed>
  <fix>3d</fix>
</trkpt>
<trkpt lat="40.0726611" lon="-105.2302251">
  <ele>1617.06</ele>
  <time>2026-08-27T18:28:36Z</time>
  <course>38.16</course>
  <speed>0.28</speed>
  <fix>3d</fix>
</trkpt>
<trkpt lat="40.0726624" lon="-105.2302241">
  <ele>1617.14</ele>
  <time>2026-08-27T18:28:36Z</time>
  <course>176.1</course>
  <speed>0.5597320787662612</speed>
  <fix>3d</fix>
</trkpt>
<trkpt lat="40.0726616" lon="-105.2302246">
  <ele>1617.06</ele>
  <time>2026-08-27T18:28:36Z</time>
  <course>25.09</course>
  <speed>0.42</speed>
  <fix>3d</fix>
</trkpt>
<trkpt lat="40.0726635" lon="-105.2302237">
  <ele>1617.14</ele>
  <time>2026-08-27T18:28:36Z</time>
  <course>175.98</course>
  <speed>0.6356099432828282</speed>
  <fix>3d</fix>
</trkpt>
<trkpt lat="40.0726625" lon="-105.2302243">
  <ele>1617.06</ele>
  <time>2026-08-27T18:28:36Z</time>
  <course>18.45</course>
  <speed>0.57</speed>
  <fix>3d</fix>
</trkpt>
<trkpt lat="40.0726647" lon="-105.2302234">
  <ele>1617.15</ele>
  <time>2026-08-27T18:28:36Z</time>
  <course>175.88</course>
  <speed>0.6280127387243033</speed>
  <fix>3d</fix>
</trkpt>
<trkpt lat="40.0726636" lon="-105.2302239">
  <ele>1617.06</ele>
  <time>2026-08-27T18:28:36Z</time>
  <course>14.44</course>
  <speed>0.66</speed>
  <fix>3d</fix>
</trkpt>
<trkpt lat="40.0726658" lon="-105.2302232">
  <ele>1617.15</ele>
  <time>2026-08-27T18:28:36Z</time>
  <course>175.87</course>
  <speed>0.5742821606144493</speed>
  <fix>3d</fix>
</trkpt>
<trkpt lat="40.0726648" lon="-105.2302235">
  <ele>1617.07</ele>
  <time>2026-08-27T18:28:36Z</time>
  <course>11.69</course>
  <speed>0.67</speed>
  <fix>3d</fix>
</trkpt>
<trkpt lat="40.0726668" lon="-105.230223">
  <ele>1617.16</ele>
  <time>2026-08-27T18:28:36Z</time>
  <course>175.88</course>
  <speed>0.4936598018878993</speed>
  <fix>3d</fix>
</trkpt>
<trkpt lat="40.0726659" lon="-105.2302232">
  <ele>1617.07</ele>
  <time>2026-08-27T18:28:36Z</time>
  <course>10.31</course>
  <speed>0.62</speed>
  <fix>3d</fix>
</trkpt>
<trkpt lat="40.0726677" lon="-105.2302228">
  <ele>1617.16</ele>
  <time>2026-08-27T18:28:36Z</time>
  <course>175.89</course>
  <speed>0.40311288741492746</speed>
  <fix>3d</fix>
</trkpt>
<trkpt lat="40.0726669" lon="-105.230223">
  <ele>1617.07</ele>
  <time>2026-08-27T18:28:36Z</time>
  <course>10.51</course>
  <speed>0.55</speed>
  <fix>3d</fix>
</trkpt>
<trkpt lat="40.0726684" lon="-105.2302226">
  <ele>1617.17</ele>
  <time>2026-08-27T18:28:36Z</time>
  <course>175.88</course>
  <speed>0.31400636936215165</speed>
  <fix>3d</fix>
</trkpt>
<trkpt lat="40.0726679" lon="-105.2302227">
  <ele>1617.08</ele>
  <time>2026-08-27T18:28:36Z</time>
  <course>12.32</course>
  <speed>0.46</speed>
  <fix>3d</fix>
</trkpt>
<trkpt lat="40.0726689" lon="-105.2302225">
  <ele>1617.17</ele>
  <time>2026-08-27T18:28:36Z</time>
  <course>175.86</course>
  <speed>0.21377558326431947</speed>
  <fix>3d</fix>
</trkpt>
<trkpt lat="40.0726686" lon="-105.2302225">
  <ele>1617.08</ele>
  <time>2026-08-27T18:28:36Z</time>
  <course>15.79</course>
  <speed>0.36</speed>
  <fix>3d</fix>
</trkpt>
<trkpt lat="40.0726692" lon="-105.2302223">
  <ele>1617.17</ele>
  <time>2026-08-27T18:28:36Z</time>
  <course>175.8</course>
  <speed>0.10770329614269007</speed>
  <fix>3d</fix>
</trkpt>
<trkpt lat="40.0726691" lon="-105.2302223">
  <ele>1617.08</ele>
  <time>2026-08-27T18:28:36Z</time>
  <course>21.95</course>
  <speed>0.26</speed>
  <fix>3d</fix>
</trkpt>
<trkpt lat="40.0726694" lon="-105.2302221">
  <ele>1617.17</ele>
  <time>2026-08-27T18:28:36Z</time>
  <course>175.81</course>
  <speed>0.03</speed>
  <fix>3d</fix>
</trkpt>
<trkpt lat="40.0726694" lon="-105.230222">
  <ele>1617.07</ele>
  <time>2026-08-27T18:28:36Z</time>
  <course>35.13</course>
  <speed>0.16</speed>
  <fix>3d</fix>
</trkpt>
<trkpt lat="40.0726693" lon="-105.2302219">
  <ele>1617.16</ele>
  <time>2026-08-27T18:28:36Z</time>
  <course>175.8</course>
  <speed>0.09219544457292887</speed>
  <fix>3d</fix>
</trkpt>
<trkpt lat="40.0726696" lon="-105.2302218">
  <ele>1617.07</ele>
  <time>2026-08-27T18:28:36Z</time>
  <course>72.24</course>
  <speed>0.09</speed>
  <fix>3d</fix>
</trkpt>
<trkpt lat="40.0726691" lon="-105.2302218">
  <ele>1617.15</ele>
  <time>2026-08-27T18:28:36Z</time>
  <course>175.75</course>
  <speed>0.18027756377319945</speed>
  <fix>3d</fix>
</trkpt>
<trkpt lat="40.0726696" lon="-105.2302215">
  <ele>1617.06</ele>
  <time>2026-08-27T18:28:36Z</time>
  <course>131.2</course>
  <speed>0.11</speed>
  <fix>3d</fix>
</trkpt>
<trkpt lat="40.0726689" lon="-105.2302215">
  <ele>1617.15</ele>
  <time>2026-08-27T18:28:36Z</time>
  <course>175.73</course>
  <speed>0.26</speed>
  <fix>3d</fix>
</trkpt>
<trkpt lat="40.0726693" lon="-105.2302214">
  <ele>1617.06</ele>
  <time>2026-08-27T18:28:36Z</time>
  <course>155.66</course>
  <speed>0.18</speed>
  <fix>3d</fix>
</trkpt>
<trkpt lat="40.0726683" lon="-105.2302215">
  <ele>1617.15</ele>
  <time>2026-08-27T18:28:36Z</time>
  <course>175.7</course>
  <speed>0.32</speed>
  <fix>3d</fix>
</trkpt>
<trkpt lat="40.072669" lon="-105.2302212">
  <ele>1617.06</ele>
  <time>2026-08-27T18:28:36Z</time>
  <course>165.04</course>
  <speed>0.26</speed>
  <fix>3d</fix>
</trkpt>
<trkpt lat="40.0726677" lon="-105.2302214">
  <ele>1617.15</ele>
  <time>2026-08-27T18:28:36Z</time>
  <course>175.7</course>
  <speed>0.37013511046643494</speed>
  <fix>3d</fix>
</trkpt>
<trkpt lat="40.0726685" lon="-105.2302211">
  <ele>1617.06</ele>
  <time>2026-08-27T18:28:36Z</time>
  <course>169.96</course>
  <speed>0.32</speed>
  <fix>3d</fix>
</trkpt>
<trkpt lat="40.0726671" lon="-105.2302213">
  <ele>1617.16</ele>
  <time>2026-08-27T18:28:36Z</time>
  <course>175.74</course>
  <speed>0.4004996878900158</speed>
  <fix>3d</fix>
</trkpt>
<trkpt lat="40.0726679" lon="-105.2302209">
  <ele>1617.06</ele>
  <time>2026-08-27T18:28:36Z</time>
  <course>173.24</course>
  <speed>0.38</speed>
  <fix>3d</fix>
</trkpt>
<trkpt lat="40.0726663" lon="-105.2302213">
  <ele>1617.16</ele>
  <time>2026-08-27T18:28:36Z</time>
  <course>175.76</course>
  <speed>0.42107006542854597</speed>
  <fix>3d</fix>
</trkpt>
<trkpt lat="40.0726672" lon="-105.2302208">
  <ele>1617.06</ele>
  <time>2026-08-27T18:28:36Z</time>
  <course>175.8</course>
  <speed>0.41</speed>
  <fix>3d</fix>
</trkpt>
<trkpt lat="40.0726656" lon="-105.2302211">
  <ele>1617.16</ele>
  <time>2026-08-27T18:28:36Z</time>
  <course>175.8</course>
  <speed>0.422965719651132</speed>
  <fix>3d</fix>
</trkpt>
<trkpt lat="40.0726664" lon="-105.2302208">
  <ele>1617.06</ele>
  <time>2026-08-27T18:28:36Z</time>
  <course>178.07</course>
  <speed>0.43</speed>
  <fix>3d</fix>
</trkpt>
<trkpt lat="40.0726648" lon="-105.2302212">
  <ele>1617.16</ele>
  <time>2026-08-27T18:28:36Z</time>
  <course>175.81</course>
  <speed>0.4143669871020132</speed>
  <fix>3d</fix>
</trkpt>
<trkpt lat="40.0726655" lon="-105.2302208">
  <ele>1617.06</ele>
  <time>2026-08-27T18:28:36Z</time>
  <course>180.29</course>
  <speed>0.44</speed>
  <fix>3d</fix>
</trkpt>
<trkpt lat="40.0726641" lon="-105.2302212">
  <ele>1617.16</ele>
  <time>2026-08-27T18:28:36Z</time>
  <course>175.82</course>
  <speed>0.396232255123179</speed>
  <fix>3d</fix>
</trkpt>
<trkpt lat="40.0726648" lon="-105.2302208">
  <ele>1617.06</ele>
  <time>2026-08-27T18:28:36Z</time>
  <course>182.53</course>
  <speed>0.43</speed>
  <fix>3d</fix>
</trkpt>
<trkpt lat="40.0726634" lon="-105.2302213">
  <ele>1617.16</ele>
  <time>2026-08-27T18:28:36Z</time>
  <course>175.83</course>
  <speed>0.3590264614203248</speed>
  <fix>3d</fix>
</trkpt>
<trkpt lat="40.072664" lon="-105.2302208">
  <ele>1617.05</ele>
  <time>2026-08-27T18:28:36Z</time>
  <course>184.87</course>
  <speed>0.42</speed>
  <fix>3d</fix>
</trkpt>
<trkpt lat="40.0726627" lon="-105.2302214">
  <ele>1617.15</ele>
  <time>2026-08-27T18:28:36Z</time>
  <course>175.83</course>
  <speed>0.32280024783137945</speed>
  <fix>3d</fix>
</trkpt>
<trkpt lat="40.0726633" lon="-105.2302209">
  <ele>1617.05</ele>
  <time>2026-08-27T18:28:36Z</time>
  <course>187.47</course>
  <speed>0.39</speed>
  <fix>3d</fix>
</trkpt>
<trkpt lat="40.0726622" lon="-105.2302215">
  <ele>1617.15</ele>
  <time>2026-08-27T18:28:36Z</time>
  <course>175.83</course>
  <speed>0.2785677655436824</speed>
  <fix>3d</fix>
</trkpt>
<trkpt lat="40.0726626" lon="-105.230221">
  <ele>1617.05</ele>
  <time>2026-08-27T18:28:36Z</time>
  <course>190.49</course>
  <speed>0.35</speed>
  <fix>3d</fix>
</trkpt>
<trkpt lat="40.0726617" lon="-105.2302217">
  <ele>1617.15</ele>
  <time>2026-08-27T18:28:36Z</time>
  <course>175.84</course>
  <speed>0.23259406699226015</speed>
  <fix>3d</fix>
</trkpt>
<trkpt lat="40.0726621" lon="-105.2302211">
  <ele>1617.05</ele>
  <time>2026-08-27T18:28:36Z</time>
  <course>194.28</course>
  <speed>0.31</speed>
  <fix>3d</fix>
</trkpt>
<trkpt lat="40.0726613" lon="-105.2302219">
  <ele>1617.15</ele>
  <time>2026-08-27T18:28:36Z</time>
  <course>175.83</course>
  <speed>0.194164878389476</speed>
  <fix>3d</fix>
</trkpt>
<trkpt lat="40.0726616" lon="-105.2302214">
  <ele>1617.05</ele>
  <time>2026-08-27T18:28:36Z</time>
  <course>199.23</course>
  <speed>0.26</speed>
  <fix>3d</fix>
</trkpt>
<trkpt lat="40.072661" lon="-105.2302221">
  <ele>1617.15</ele>
  <time>2026-08-27T18:28:36Z</time>
  <course>175.83</course>
  <speed>0.15556349186104046</speed>
  <fix>3d</fix>
</trkpt>
<trkpt lat="40.0726612" lon="-105.2302216">
  <ele>1617.05</ele>
  <time>2026-08-27T18:28:36Z</time>
  <course>205.96</course>
  <speed>0.21</speed>
  <fix>3d</fix>
</trkpt>
<trkpt lat="40.0726608" lon="-105.2302223">
  <ele>1617.14</ele>
  <time>2026-08-27T18:28:36Z</time>
  <course>175.83</course>
  <speed>0.12083045973594572</speed>
  <fix>3d</fix>
</trkpt>
<trkpt lat="40.0726608" lon="-105.2302219">
  <ele>1617.05</ele>
  <time>2026-08-27T18:28:36Z</time>
  <course>215.57</course>
  <speed>0.17</speed>
  <fix>3d</fix>
</trkpt>
<trkpt lat="40.0726607" lon="-105.2302225">
  <ele>1617.14</ele>
  <time>2026-08-27T18:28:36Z</time>
  <course>175.81</course>
  <speed>0.1004987562112089</speed>
  <fix>3d</fix>
</trkpt>
<trkpt lat="40.0726606" lon="-105.230222">
  <ele>1617.05</ele>
  <time>2026-08-27T18:28:36Z</time>
  <course>229.7</course>
  <speed>0.13</speed>
  <fix>3d</fix>
</trkpt>
<trkpt lat="40.0726607" lon="-105.2302227">
  <ele>1617.14</ele>
  <time>2026-08-27T18:28:36Z</time>
  <course>175.8</course>
  <speed>0.1044030650891055</speed>
  <fix>3d</fix>
</trkpt>
<trkpt lat="40.0726605" lon="-105.2302223">
  <ele>1617.05</ele>
  <time>2026-08-27T18:28:36Z</time>
  <course>249.73</course>
  <speed>0.11</speed>
  <fix>3d</fix>
</trkpt>
<trkpt lat="40.0726607" lon="-105.2302229">
  <ele>1617.15</ele>
  <time>2026-08-27T18:28:36Z</time>
  <course>175.81</course>
  <speed>0.10816653826391968</speed>
  <fix>3d</fix>
</trkpt>
<trkpt lat="40.0726605" lon="-105.2302225">
  <ele>1617.05</ele>
  <time>2026-08-27T18:28:36Z</time>
  <course>273.83</course>
  <speed>0.1</speed>
  <fix>3d</fix>
</trkpt>
<trkpt lat="40.0726607" lon="-105.2302231">
  <ele>1617.15</ele>
  <time>2026-08-27T18:28:36Z</time>
  <course>175.79</course>
  <speed>0.12806248474865697</speed>
  <fix>3d</fix>
</trkpt>
<trkpt lat="40.0726605" lon="-105.2302228">
  <ele>1617.05</ele>
  <time>2026-08-27T18:28:36Z</time>
  <course>295.75</course>
  <speed>0.1</speed>
  <fix>3d</fix>
</trkpt>
<trkpt lat="40.0726609" lon="-105.2302233">
  <ele>1617.16</ele>
  <time>2026-08-27T18:28:36Z</time>
  <course>175.8</course>
  <speed>0.13892443989449804</speed>
  <fix>3d</fix>
</trkpt>
<trkpt lat="40.0726606" lon="-105.230223">
  <ele>1617.06</ele>
  <time>2026-08-27T18:28:36Z</time>
  <course>311.66</course>
  <speed>0.12</speed>
  <fix>3d</fix>
</trkpt>
<trkpt lat="40.0726611" lon="-105.2302234">
  <ele>1617.16</ele>
  <time>2026-08-27T18:28:36Z</time>
  <course>175.8</course>
  <speed>0.15231546211727817</speed>
  <fix>3d</fix>
</trkpt>
<trkpt lat="40.0726607" lon="-105.2302233">
  <ele>1617.06</ele>
  <time>2026-08-27T18:28:36Z</time>
  <course>322.57</course>
  <speed>0.13</speed>
  <fix>3d</fix>
</trkpt>
<trkpt lat="40.0726613" lon="-105.2302236">
  <ele>1617.16</ele>
  <time>2026-08-27T18:28:36Z</time>
  <course>175.78</course>
  <speed>0.15811388300841897</speed>
  <fix>3d</fix>
</trkpt>
<trkpt lat="40.0726609" lon="-105.2302234">
  <ele>1617.06</ele>
  <time>2026-08-27T18:28:36Z</time>
  <course>330.34</course>
  <speed>0.14</speed>
  <fix>3d</fix>
</trkpt>
<trkpt lat="40.0726616" lon="-105.2302237">
  <ele>1617.16</ele>
  <time>2026-08-27T18:28:36Z</time>
  <course>175.78</course>
  <speed>0.15524174696260024</speed>
  <fix>3d</fix>
</trkpt>
<trkpt lat="40.0726612" lon="-105.2302236">
  <ele>1617.06</ele>
  <time>2026-08-27T18:28:36Z</time>
  <course>336.5</course>
  <speed>0.15</speed>
  <fix>3d</fix>
</trkpt>
<trkpt lat="40.0726618" lon="-105.2302238">
  <ele>1617.16</ele>
  <time>2026-08-27T18:28:36Z</time>
  <course>175.78</course>
  <speed>0.15297058540778355</speed>
  <fix>3d</fix>
</trkpt>
<trkpt lat="40.0726614" lon="-105.2302237">
  <ele>1617.06</ele>
  <time>2026-08-27T18:28:36Z</time>
  <course>341.76</course>
  <speed>0.15</speed>
  <fix>3d</fix>
</trkpt>
<trkpt lat="40.0726621" lon="-105.2302238">
  <ele>1617.16</ele>
  <time>2026-08-27T18:28:36Z</time>
  <course>175.77</course>
  <speed>0.15033296378372907</speed>
  <fix>3d</fix>
</trkpt>
<trkpt lat="40.0726617" lon="-105.2302238">
  <ele>1617.06</ele>
  <time>2026-08-27T18:28:36Z</time>
  <course>346.34</course>
  <speed>0.15</speed>
  <fix>3d</fix>
</trkpt>
<trkpt lat="40.0726623" lon="-105.2302239">
  <ele>1617.16</ele>
  <time>2026-08-27T18:28:36Z</time>
  <course>175.75</course>
  <speed>0.13</speed>
  <fix>3d</fix>
</trkpt>
<trkpt lat="40.072662" lon="-105.2302239">
  <ele>1617.05</ele>
  <time>2026-08-27T18:28:36Z</time>
  <course>350.5</course>
  <speed>0.15</speed>
  <fix>3d</fix>
</trkpt>
<trkpt lat="40.0726625" lon="-105.2302239">
  <ele>1617.15</ele>
  <time>2026-08-27T18:28:36Z</time>
  <course>175.74</course>
  <speed>0.12</speed>
  <fix>3d</fix>
</trkpt>
<trkpt lat="40.0726623" lon="-105.2302239">
  <ele>1617.05</ele>
  <time>2026-08-27T18:28:36Z</time>
  <course>354.62</course>
  <speed>0.14</speed>
  <fix>3d</fix>
</trkpt>
<trkpt lat="40.0726627" lon="-105.2302239">
  <ele>1617.14</ele>
  <time>2026-08-27T18:28:36Z</time>
  <course>175.72</course>
  <speed>0.1004987562112089</speed>
  <fix>3d</fix>
</trkpt>
<trkpt lat="40.0726625" lon="-105.2302239">
  <ele>1617.05</ele>
  <time>2026-08-27T18:28:36Z</time>
  <course>359.14</course>
  <speed>0.12</speed>
  <fix>3d</fix>
</trkpt>
<trkpt lat="40.0726629" lon="-105.2302239">
  <ele>1617.14</ele>
  <time>2026-08-27T18:28:36Z</time>
  <course>175.71</course>
  <speed>0.0824621125123532</speed>
  <fix>3d</fix>
</trkpt>
<trkpt lat="40.0726627" lon="-105.2302239">
  <ele>1617.05</ele>
  <time>2026-08-27T18:28:36Z</time>
  <course>4.42</course>
  <speed>0.11</speed>
  <fix>3d</fix>
</trkpt>
<trkpt lat="40.0726631" lon="-105.2302239">
  <ele>1617.14</ele>
  <time>2026-08-27T18:28:36Z</time>
  <course>175.71</course>
  <speed>0.0670820393249937</speed>
  <fix>3d</fix>
</trkpt>
<trkpt lat="40.0726629" lon="-105.2302239">
  <ele>1617.05</ele>
  <time>2026-08-27T18:28:36Z</time>
  <course>10.93</course>
  <speed>0.09</speed>
  <fix>3d</fix>
</trkpt>
<trkpt lat="40.0726632" lon="-105.2302238">
  <ele>1617.14</ele>
  <time>2026-08-27T18:28:36Z</time>
  <course>175.71</course>
  <speed>0.05</speed>
  <fix>3d</fix>
</trkpt>
<trkpt lat="40.0726631" lon="-105.2302239">
  <ele>1617.05</ele>
  <time>2026-08-27T18:28:36Z</time>
  <course>19.63</course>
  <speed>0.07</speed>
  <fix>3d</fix>
</trkpt>
<trkpt lat="40.0726632" lon="-105.2302237">
  <ele>1617.15</ele>
  <time>2026-08-27T18:28:36Z</time>
  <course>175.71</course>
  <speed>0.044721359549995794</speed>
  <fix>3d</fix>
</trkpt>
<trkpt lat="40.0726632" lon="-105.2302239">
  <ele>1617.05</ele>
  <time>2026-08-27T18:28:36Z</time>
  <course>31.8</course>
  <speed>0.06</speed>
  <fix>3d</fix>
</trkpt>
<trkpt lat="40.0726633" lon="-105.2302236">
  <ele>1617.15</ele>
  <time>2026-08-27T18:28:36Z</time>
  <course>175.7</course>
  <speed>0.04</speed>
  <fix>3d</fix>
</trkpt>
<trkpt lat="40.0726632" lon="-105.2302238">
  <ele>1617.06</ele>
  <time>2026-08-27T18:28:36Z</time>
  <course>48.9</course>
  <speed>0.04</speed>
  <fix>3d</fix>
</trkpt>
<trkpt lat="40.0726633" lon="-105.2302236">
  <ele>1617.15</ele>
  <time>2026-08-27T18:28:36Z</time>
  <course>175.72</course>
  <speed>0.04</speed>
  <fix>3d</fix>
</trkpt>
<trkpt lat="40.0726632" lon="-105.2302237">
  <ele>1617.06</ele>
  <time>2026-08-27T18:28:36Z</time>
  <course>70.75</course>
  <speed>0.04</speed>
  <fix>3d</fix>
</trkpt>
<trkpt lat="40.0726632" lon="-105.2302235">
  <ele>1617.15</ele>
  <time>2026-08-27T18:28:36Z</time>
  <course>175.76</course>
  <speed>0.0316227766016838</speed>
  <fix>3d</fix>
</trkpt>
<trkpt lat="40.0726632" lon="-105.2302236">
  <ele>1617.06</ele>
  <time>2026-08-27T18:28:36Z</time>
  <course>90.45</course>
  <speed>0.04</speed>
  <fix>3d</fix>
</trkpt>
<trkpt lat="40.0726632" lon="-105.2302234">
  <ele>1617.14</ele>
  <time>2026-08-27T18:28:37Z</time>
  <course>175.75</course>
  <speed>0.022360679774997897</speed>
  <fix>3d</fix>
</trkpt>
<trkpt lat="40.0726632" lon="-105.2302235">
  <ele>1617.06</ele>
  <time>2026-08-27T18:28:37Z</time>
  <course>102.92</course>
  <speed>0.03</speed>
  <fix>3d</fix>
</trkpt>
<trkpt lat="40.0726632" lon="-105.2302234">
  <ele>1617.14</ele>
  <time>2026-08-27T18:28:37Z</time>
  <course>175.73</course>
  <speed>0.022360679774997897</speed>
  <fix>3d</fix>
</trkpt>
<trkpt lat="40.0726632" lon="-105.2302234">
  <ele>1617.06</ele>
  <time>2026-08-27T18:28:37Z</time>
  <course>111.01</course>
  <speed>0.03</speed>
  <fix>3d</fix>
</trkpt>
<trkpt lat="40.0726632" lon="-105.2302233">
  <ele>1617.14</ele>
  <time>2026-08-27T18:28:37Z</time>
  <course>175.77</course>
  <speed>0.01414213562373095</speed>
  <fix>3d</fix>
</trkpt>
<trkpt lat="40.0726632" lon="-105.2302234">
  <ele>1617.06</ele>
  <time>2026-08-27T18:28:37Z</time>
  <course>121.48</course>
  <speed>0.02</speed>
  <fix>3d</fix>
</trkpt>
<trkpt lat="40.0726632" lon="-105.2302233">
  <ele>1617.14</ele>
  <time>2026-08-27T18:28:37Z</time>
  <course>175.86</course>
  <speed>0.0</speed>
  <fix>3d</fix>
</trkpt>
<trkpt lat="40.0726632" lon="-105.2302234">
  <ele>1617.06</ele>
  <time>2026-08-27T18:28:37Z</time>
  <course>138.25</course>
  <speed>0.01</speed>
  <fix>3d</fix>
</trkpt>
<trkpt lat="40.0726632" lon="-105.2302234">
  <ele>1617.14</ele>
  <time>2026-08-27T18:28:37Z</time>
  <course>175.88</course>
  <speed>0.022360679774997897</speed>
  <fix>3d</fix>
</trkpt>
<trkpt lat="40.0726632" lon="-105.2302234">
  <ele>1617.06</ele>
  <time>2026-08-27T18:28:37Z</time>
  <course>192.09</course>
  <speed>0.0</speed>
  <fix>3d</fix>
</trkpt>
<trkpt lat="40.0726632" lon="-105.2302234">
  <ele>1617.14</ele>
  <time>2026-08-27T18:28:37Z</time>
  <course>175.9</course>
  <speed>0.08602325267042626</speed>
  <fix>3d</fix>
</trkpt>
<trkpt lat="40.0726632" lon="-105.2302234">
  <ele>1617.06</ele>
  <time>2026-08-27T18:28:37Z</time>
  <course>289.45</course>
  <speed>0.02</speed>
  <fix>3d</fix>
</trkpt>
<trkpt lat="40.0726633" lon="-105.2302236">
  <ele>1617.14</ele>
  <time>2026-08-27T18:28:37Z</time>
  <course>175.93</course>
  <speed>0.16401219466856726</speed>
  <fix>3d</fix>
</trkpt>
<trkpt lat="40.0726632" lon="-105.2302234">
  <ele>1617.06</ele>
  <time>2026-08-27T18:28:37Z</time>
  <course>302.29</course>
  <speed>0.08</speed>
  <fix>3d</fix>
</trkpt>
<trkpt lat="40.0726635" lon="-105.230224">
  <ele>1617.14</ele>
  <time>2026-08-27T18:28:37Z</time>
  <course>175.94</course>
  <speed>0.25</speed>
  <fix>3d</fix>
</trkpt>
<trkpt lat="40.0726633" lon="-105.2302236">
  <ele>1617.06</ele>
  <time>2026-08-27T18:28:37Z</time>
  <course>305.33</course>
  <speed>0.15</speed>
  <fix>3d</fix>
</trkpt>
<trkpt lat="40.0726639" lon="-105.2302246">
  <ele>1617.14</ele>
  <time>2026-08-27T18:28:37Z</time>
  <course>175.9</course>
  <speed>0.35</speed>
  <fix>3d</fix>
</trkpt>
<trkpt lat="40.0726636" lon="-105.230224">
  <ele>1617.06</ele>
  <time>2026-08-27T18:28:37Z</time>
  <course>305.77</course>
  <speed>0.25</speed>
  <fix>3d</fix>
</trkpt>
<trkpt lat="40.0726643" lon="-105.2302254">
  <ele>1617.13</ele>
  <time>2026-08-27T18:28:37Z</time>
  <course>175.91</course>
  <speed>0.46400431032480727</speed>
  <fix>3d</fix>
</trkpt>
<trkpt lat="40.0726639" lon="-105.2302246">
  <ele>1617.06</ele>
  <time>2026-08-27T18:28:37Z</time>
  <course>305.5</course>
  <speed>0.35</speed>
  <fix>3d</fix>
</trkpt>
<trkpt lat="40.0726649" lon="-105.2302264">
  <ele>1617.13</ele>
  <time>2026-08-27T18:28:37Z</time>
  <course>175.92</course>
  <speed>0.5720139858430037</speed>
  <fix>3d</fix>
</trkpt>
<trkpt lat="40.0726643" lon="-105.2302254">
  <ele>1617.06</ele>
  <time>2026-08-27T18:28:37Z</time>
  <course>305.27</course>
  <speed>0.45</speed>
  <fix>3d</fix>
</trkpt>
<trkpt lat="40.0726655" lon="-105.2302276">
  <ele>1617.13</ele>
  <time>2026-08-27T18:28:37Z</time>
  <course>175.91</course>
  <speed>0.7</speed>
  <fix>3d</fix>
</trkpt>
<trkpt lat="40.0726648" lon="-105.2302264">
  <ele>1617.06</ele>
  <time>2026-08-27T18:28:37Z</time>
  <course>305.21</course>
  <speed>0.57</speed>
  <fix>3d</fix>
</trkpt>
<trkpt lat="40.0726664" lon="-105.2302291">
  <ele>1617.13</ele>
  <time>2026-08-27T18:28:37Z</time>
  <course>175.93</course>
  <speed>0.8440379138403676</speed>
  <fix>3d</fix>
</trkpt>
<trkpt lat="40.0726655" lon="-105.2302276">
  <ele>1617.06</ele>
  <time>2026-08-27T18:28:37Z</time>
  <course>305.24</course>
  <speed>0.7</speed>
  <fix>3d</fix>
</trkpt>
<trkpt lat="40.0726673" lon="-105.2302308">
  <ele>1617.13</ele>
  <time>2026-08-27T18:28:37Z</time>
  <course>175.93</course>
  <speed>0.9940321926376429</speed>
  <fix>3d</fix>
</trkpt>
<trkpt lat="40.0726663" lon="-105.2302291">
  <ele>1617.06</ele>
  <time>2026-08-27T18:28:37Z</time>
  <course>305.32</course>
  <speed>0.83</speed>
  <fix>3d</fix>
</trkpt>
<trkpt lat="40.0726685" lon="-105.2302328">
  <ele>1617.12</ele>
  <time>2026-08-27T18:28:37Z</time>
  <course>179.4</course>
  <speed>1.1244554237496478</speed>
  <fix>3d</fix>
</trkpt>
<trkpt lat="40.0726673" lon="-105.2302308">
  <ele>1617.06</ele>
  <time>2026-08-27T18:28:37Z</time>
  <course>305.43</course>
  <speed>0.99</speed>
  <fix>3d</fix>
</trkpt>
<trkpt lat="40.0726698" lon="-105.2302351">
  <ele>1617.12</ele>
  <time>2026-08-27T18:28:37Z</time>
  <course>193.38</course>
  <speed>1.3</speed>
  <fix>3d</fix>
</trkpt>
<trkpt lat="40.0726684" lon="-105.2302328">
  <ele>1617.06</ele>
  <time>2026-08-27T18:28:37Z</time>
  <course>306.49</course>
  <speed>1.13</speed>
  <fix>3d</fix>
</trkpt>
<trkpt lat="40.0726712" lon="-105.2302378">
  <ele>1617.12</ele>
  <time>2026-08-27T18:28:37Z</time>
  <course>205.39</course>
  <speed>1.495125412799876</speed>
  <fix>3d</fix>
</trkpt>
<trkpt lat="40.0726697" lon="-105.2302351">
  <ele>1617.06</ele>
  <time>2026-08-27T18:28:37Z</time>
  <course>306.35</course>
  <speed>1.29</speed>
  <fix>3d</fix>
</trkpt>
<trkpt lat="40.0726728" lon="-105.230241">
  <ele>1617.12</ele>
  <time>2026-08-27T18:28:37Z</time>
  <course>217.22</course>
  <speed>1.698116603770189</speed>
  <fix>3d</fix>
</trkpt>
<trkpt lat="40.0726711" lon="-105.2302378">
  <ele>1617.06</ele>
  <time>2026-08-27T18:28:37Z</time>
  <course>304.18</course>
  <speed>1.48</speed>
  <fix>3d</fix>
</trkpt>
<trkpt lat="40.0726745" lon="-105.2302447">
  <ele>1617.12</ele>
  <time>2026-08-27T18:28:37Z</time>
  <course>228.97</course>
  <speed>1.9523319389898839</speed>
  <fix>3d</fix>
</trkpt>
<trkpt lat="40.0726727" lon="-105.2302409">
  <ele>1617.06</ele>
  <time>2026-08-27T18:28:37Z</time>
  <course>301.66</course>
  <speed>1.69</speed>
  <fix>3d</fix>
</trkpt>
<trkpt lat="40.0726762" lon="-105.230249">
  <ele>1617.11</ele>
  <time>2026-08-27T18:28:37Z</time>
  <course>240.67</course>
  <speed>2.2585393509965686</speed>
  <fix>3d</fix>
</trkpt>
<trkpt lat="40.0726743" lon="-105.2302445">
  <ele>1617.06</ele>
  <time>2026-08-27T18:28:37Z</time>
  <course>299.1</course>
  <speed>1.93</speed>
  <fix>3d</fix>
</trkpt>
<trkpt lat="40.0726781" lon="-105.2302542">
  <ele>1617.1</ele>
  <time>2026-08-27T18:28:37Z</time>
  <course>252.31</course>
  <speed>2.629923953273174</speed>
  <fix>3d</fix>
</trkpt>
<trkpt lat="40.072676" lon="-105.2302489">
  <ele>1617.05</ele>
  <time>2026-08-27T18:28:37Z</time>
  <course>296.92</course>
  <speed>2.23</speed>
  <fix>3d</fix>
</trkpt>
<trkpt lat="40.0726803" lon="-105.2302602">
  <ele>1617.09</ele>
  <time>2026-08-27T18:28:37Z</time>
  <course>264.07</course>
  <speed>3.064718584144391</speed>
  <fix>3d</fix>
</trkpt>
<trkpt lat="40.0726779" lon="-105.230254">
  <ele>1617.04</ele>
  <time>2026-08-27T18:28:37Z</time>
  <course>295.35</course>
  <speed>2.59</speed>
  <fix>3d</fix>
</trkpt>
<trkpt lat="40.0726827" lon="-105.2302672">
  <ele>1617.08</ele>
  <time>2026-08-27T18:28:37Z</time>
  <course>276.07</course>
  <speed>3.5389546479151157</speed>
  <fix>3d</fix>
</trkpt>
<trkpt lat="40.0726801" lon="-105.2302599">
  <ele>1617.03</ele>
  <time>2026-08-27T18:28:37Z</time>
  <course>294.52</course>
  <speed>3.01</speed>
  <fix>3d</fix>
</trkpt>
<trkpt lat="40.0726855" lon="-105.2302751">
  <ele>1617.07</ele>
  <time>2026-08-27T18:28:37Z</time>
  <course>288.29</course>
  <speed>4.025481337678762</speed>
  <fix>3d</fix>
</trkpt>
<trkpt lat="40.0726826" lon="-105.2302669">
  <ele>1617.02</ele>
  <time>2026-08-27T18:28:37Z</time>
  <course>294.42</course>
  <speed>3.48</speed>
  <fix>3d</fix>
</trkpt>
<trkpt lat="40.0726889" lon="-105.230284">
  <ele>1617.07</ele>
  <time>2026-08-27T18:28:37Z</time>
  <course>295.56</course>
  <speed>4.494997219131509</speed>
  <fix>3d</fix>
</trkpt>
<trkpt lat="40.0726854" lon="-105.2302748">
  <ele>1617.01</ele>
  <time>2026-08-27T18:28:37Z</time>
  <course>295.03</course>
  <speed>3.97</speed>
  <fix>3d</fix>
</trkpt>
<trkpt lat="40.0726928" lon="-105.2302938">
  <ele>1617.07</ele>
  <time>2026-08-27T18:28:37Z</time>
  <course>295.82</course>
  <speed>4.894742076963811</speed>
  <fix>3d</fix>
</trkpt>
<trkpt lat="40.0726886" lon="-105.2302838">
  <ele>1617.01</ele>
  <time>2026-08-27T18:28:37Z</time>
  <course>296.39</course>
  <speed>4.44</speed>
  <fix>3d</fix>
</trkpt>
<trkpt lat="40.0726971" lon="-105.2303043">
  <ele>1617.09</ele>
  <time>2026-08-27T18:28:37Z</time>
  <course>296.53</course>
  <speed>5.2158412552530775</speed>
  <fix>3d</fix>
</trkpt>
<trkpt lat="40.0726924" lon="-105.2302935">
  <ele>1617.01</ele>
  <time>2026-08-27T18:28:37Z</time>
  <course>297.73</course>
  <speed>4.86</speed>
  <fix>3d</fix>
</trkpt>
<trkpt lat="40.0727018" lon="-105.2303152">
  <ele>1617.11</ele>
  <time>2026-08-27T18:28:37Z</time>
  <course>297.73</course>
  <speed>5.462682491230842</speed>
  <fix>3d</fix>
</trkpt>
<trkpt lat="40.0726967" lon="-105.2303039">
  <ele>1617.01</ele>
  <time>2026-08-27T18:28:37Z</time>
  <course>298.7</course>
  <speed>5.2</speed>
  <fix>3d</fix>
</trkpt>
<trkpt lat="40.0727068" lon="-105.2303265">
  <ele>1617.13</ele>
  <time>2026-08-27T18:28:37Z</time>
  <course>299.12</course>
  <speed>5.64923003603146</speed>
  <fix>3d</fix>
</trkpt>
<trkpt lat="40.0727014" lon="-105.2303149">
  <ele>1617.03</ele>
  <time>2026-08-27T18:28:37Z</time>
  <course>299.73</course>
  <speed>5.46</speed>
  <fix>3d</fix>
</trkpt>
<trkpt lat="40.0727122" lon="-105.230338">
  <ele>1617.15</ele>
  <time>2026-08-27T18:28:37Z</time>
  <course>300.6</course>
  <speed>5.789827285852316</speed>
  <fix>3d</fix>
</trkpt>
<trkpt lat="40.0727064" lon="-105.2303262">
  <ele>1617.05</ele>
  <time>2026-08-27T18:28:37Z</time>
  <course>300.88</course>
  <speed>5.66</speed>
  <fix>3d</fix>
</trkpt>
<trkpt lat="40.0727179" lon="-105.2303495">
  <ele>1617.17</ele>
  <time>2026-08-27T18:28:37Z</time>
  <course>302.08</course>
  <speed>5.8937000262992685</speed>
  <fix>3d</fix>
</trkpt>
<trkpt lat="40.0727119" lon="-105.2303377">
  <ele>1617.06</ele>
  <time>2026-08-27T18:28:37Z</time>
  <course>302.1</course>
  <speed>5.81</speed>
  <fix>3d</fix>
</trkpt>
<trkpt lat="40.0727238" lon="-105.2303611">
  <ele>1617.18</ele>
  <time>2026-08-27T18:28:37Z</time>
  <course>303.51</course>
  <speed>5.9583638693856225</speed>
  <fix>3d</fix>
</trkpt>
<trkpt lat="40.0727176" lon="-105.2303493">
  <ele>1617.08</ele>
  <time>2026-08-27T18:28:37Z</time>
  <course>303.34</course>
  <speed>5.92</speed>
  <fix>3d</fix>
</trkpt>
<trkpt lat="40.07273" lon="-105.2303727">
  <ele>1617.19</ele>
  <time>2026-08-27T18:28:37Z</time>
  <course>304.84</course>
  <speed>5.997241032341455</speed>
  <fix>3d</fix>
</trkpt>
<trkpt lat="40.0727235" lon="-105.2303609">
  <ele>1617.09</ele>
  <time>2026-08-27T18:28:37Z</time>
  <course>304.54</course>
  <speed>5.99</speed>
  <fix>3d</fix>
</trkpt>
<trkpt lat="40.0727364" lon="-105.2303841">
  <ele>1617.2</ele>
  <time>2026-08-27T18:28:37Z</time>
  <course>306.07</course>
  <speed>6.004065289451806</speed>
  <fix>3d</fix>
</trkpt>
<trkpt lat="40.0727298" lon="-105.2303725">
  <ele>1617.1</ele>
  <time>2026-08-27T18:28:37Z</time>
  <course>305.66</course>
  <speed>6.03</speed>
  <fix>3d</fix>
</trkpt>
<trkpt lat="40.0727429" lon="-105.2303954">
  <ele>1617.21</ele>
  <time>2026-08-27T18:28:37Z</time>
  <course>307.13</course>
  <speed>5.984321181220139</speed>
  <fix>3d</fix>
</trkpt>
<trkpt lat="40.0727362" lon="-105.2303839">
  <ele>1617.1</ele>
  <time>2026-08-27T18:28:37Z</time>
  <course>306.67</course>
  <speed>6.04</speed>
  <fix>3d</fix>
</trkpt>
<trkpt lat="40.0727495" lon="-105.2304065">
  <ele>1617.21</ele>
  <time>2026-08-27T18:28:37Z</time>
  <course>308.04</course>
  <speed>5.933338014979427</speed>
  <fix>3d</fix>
</trkpt>
<trkpt lat="40.0727428" lon="-105.2303953">
  <ele>1617.11</ele>
  <time>2026-08-27T18:28:37Z</time>
  <course>307.56</course>
  <speed>6.03</speed>
  <fix>3d</fix>
</trkpt>
<trkpt lat="40.0727561" lon="-105.2304175">
  <ele>1617.21</ele>
  <time>2026-08-27T18:28:37Z</time>
  <course>308.82</course>
  <speed>5.8705791877803675</speed>
  <fix>3d</fix>
</trkpt>
<trkpt lat="40.0727493" lon="-105.2304063">
  <ele>1617.11</ele>
  <time>2026-08-27T18:28:37Z</time>
  <course>308.3</course>
  <speed>5.98</speed>
  <fix>3d</fix>
</trkpt>
<trkpt lat="40.0727628" lon="-105.2304283">
  <ele>1617.21</ele>
  <time>2026-08-27T18:28:37Z</time>
  <course>309.36</course>
  <speed>5.795662170968905</speed>
  <fix>3d</fix>
</trkpt>
<trkpt lat="40.072756" lon="-105.2304173">
  <ele>1617.11</ele>
  <time>2026-08-27T18:28:37Z</time>
  <course>308.88</course>
  <speed>5.91</speed>
  <fix>3d</fix>
</trkpt>
<trkpt lat="40.0727694" lon="-105.2304388">
  <ele>1617.2</ele>
  <time>2026-08-27T18:28:37Z</time>
  <course>309.61</course>
  <speed>5.7301483401391975</speed>
  <fix>3d</fix>
</trkpt>
<trkpt lat="40.0727627" lon="-105.230428">
  <ele>1617.11</ele>
  <time>2026-08-27T18:28:37Z</time>
  <course>309.3</course>
  <speed>5.83</speed>
  <fix>3d</fix>
</trkpt>
<trkpt lat="40.0727759" lon="-105.2304493">
  <ele>1617.19</ele>
  <time>2026-08-27T18:28:37Z</time>
  <course>309.66</course>
  <speed>5.680184856146849</speed>
  <fix>3d</fix>
</trkpt>
<trkpt lat="40.0727694" lon="-105.2304385">
  <ele>1617.1</ele>
  <time>2026-08-27T18:28:37Z</time>
  <course>309.54</course>
  <speed>5.76</speed>
  <fix>3d</fix>
</trkpt>
<trkpt lat="40.0727824" lon="-105.2304596">
  <ele>1617.18</ele>
  <time>2026-08-27T18:28:37Z</time>
  <course>309.49</course>
  <speed>5.611354560175288</speed>
  <fix>3d</fix>
</trkpt>
<trkpt lat="40.0727759" lon="-105.2304489">
  <ele>1617.09</ele>
  <time>2026-08-27T18:28:37Z</time>
  <course>309.57</course>
  <speed>5.7</speed>
  <fix>3d</fix>
</trkpt>
<trkpt lat="40.0727887" lon="-105.2304698">
  <ele>1617.17</ele>
  <time>2026-08-27T18:28:37Z</time>
  <course>309.15</course>
  <speed>5.5177259808729175</speed>
  <fix>3d</fix>
</trkpt>
<trkpt lat="40.0727823" lon="-105.2304591">
  <ele>1617.08</ele>
  <time>2026-08-27T18:28:37Z</time>
  <course>309.38</course>
  <speed>5.62</speed>
  <fix>3d</fix>
</trkpt>
<trkpt lat="40.0727948" lon="-105.2304798">
  <ele>1617.17</ele>
  <time>2026-08-27T18:28:37Z</time>
  <course>308.67</course>
  <speed>5.382536576745206</speed>
  <fix>3d</fix>
</trkpt>
<trkpt lat="40.0727887" lon="-105.2304693">
  <ele>1617.08</ele>
  <time>2026-08-27T18:28:37Z</time>
  <course>308.98</course>
  <speed>5.52</speed>
  <fix>3d</fix>
</trkpt>
<trkpt lat="40.0728006" lon="-105.2304896">
  <ele>1617.18</ele>
  <time>2026-08-27T18:28:37Z</time>
  <course>308.09</course>
  <speed>5.212024558652809</speed>
  <fix>3d</fix>
</trkpt>
<trkpt lat="40.0727949" lon="-105.2304793">
  <ele>1617.08</ele>
  <time>2026-08-27T18:28:37Z</time>
  <course>308.41</course>
  <speed>5.39</speed>
  <fix>3d</fix>
</trkpt>
<trkpt lat="40.0728062" lon="-105.2304991">
  <ele>1617.18</ele>
  <time>2026-08-27T18:28:37Z</time>
  <course>307.49</course>
  <speed>5.014229751417459</speed>
  <fix>3d</fix>
</trkpt>
<trkpt lat="40.0728007" lon="-105.2304891">
  <ele>1617.08</ele>
  <time>2026-08-27T18:28:37Z</time>
  <course>307.74</course>
  <speed>5.22</speed>
  <fix>3d</fix>
</trkpt>
<trkpt lat="40.0728114" lon="-105.2305084">
  <ele>1617.19</ele>
  <time>2026-08-27T18:28:37Z</time>
  <course>306.84</course>
  <speed>4.789404973480527</speed>
  <fix>3d</fix>
</trkpt>
<trkpt lat="40.0728063" lon="-105.2304987">
  <ele>1617.08</ele>
  <time>2026-08-27T18:28:37Z</time>
  <course>307.02</course>
  <speed>5.02</speed>
  <fix>3d</fix>
</trkpt>
<trkpt lat="40.0728163" lon="-105.2305173">
  <ele>1617.19</ele>
  <time>2026-08-27T18:28:37Z</time>
  <course>306.12</course>
  <speed>4.52142676596669</speed>
  <fix>3d</fix>
</trkpt>
<trkpt lat="40.0728116" lon="-105.2305079">
  <ele>1617.09</ele>
  <time>2026-08-27T18:28:37Z</time>
  <course>306.26</course>
  <speed>4.79</speed>
  <fix>3d</fix>
</trkpt>
<trkpt lat="40.0728209" lon="-105.2305257">
  <ele>1617.2</ele>
  <time>2026-08-27T18:28:37Z</time>
  <course>305.37</course>
  <speed>4.2240501890957685</speed>
  <fix>3d</fix>
</trkpt>
<trkpt lat="40.0728165" lon="-105.2305168">
  <ele>1617.1</ele>
  <time>2026-08-27T18:28:37Z</time>
  <course>305.45</course>
  <speed>4.53</speed>
  <fix>3d</fix>
</trkpt>
<trkpt lat="40.072825" lon="-105.2305336">
  <ele>1617.2</ele>
  <time>2026-08-27T18:28:37Z</time>
  <course>304.53</course>
  <speed>3.8916577444580094</speed>
  <fix>3d</fix>
</trkpt>
<trkpt lat="40.072821" lon="-105.2305253">
  <ele>1617.1</ele>
  <time>2026-08-27T18:28:37Z</time>
  <course>304.6</course>
  <speed>4.24</speed>
  <fix>3d</fix>
</trkpt>
<trkpt lat="40.0728286" lon="-105.2305409">
  <ele>1617.2</ele>
  <time>2026-08-27T18:28:37Z</time>
  <course>303.61</course>
  <speed>3.5160489188860837</speed>
  <fix>3d</fix>
</trkpt>
<trkpt lat="40.0728251" lon="-105.2305332">
  <ele>1617.1</ele>
  <time>2026-08-27T18:28:37Z</time>
  <course>303.7</course>
  <speed>3.9</speed>
  <fix>3d</fix>
</trkpt>
<trkpt lat="40.0728318" lon="-105.2305475">
  <ele>1617.2</ele>
  <time>2026-08-27T18:28:37Z</time>
  <course>302.58</course>
  <speed>3.0938648968563576</speed>
  <fix>3d</fix>
</trkpt>
<trkpt lat="40.0728289" lon="-105.2305405">
  <ele>1617.1</ele>
  <time>2026-08-27T18:28:37Z</time>
  <course>302.73</course>
  <speed>3.53</speed>
  <fix>3d</fix>
</trkpt>
<trkpt lat="40.0728344" lon="-105.2305533">
  <ele>1617.19</ele>
  <time>2026-08-27T18:28:37Z</time>
  <course>301.33</course>
  <speed>2.6506791582535976</speed>
  <fix>3d</fix>
</trkpt>
<trkpt lat="40.072832" lon="-105.2305471">
  <ele>1617.1</ele>
  <time>2026-08-27T18:28:37Z</time>
  <course>301.66</course>
  <speed>3.11</speed>
  <fix>3d</fix>
</trkpt>
<trkpt lat="40.0728366" lon="-105.2305582">
  <ele>1617.18</ele>
  <time>2026-08-27T18:28:37Z</time>
  <course>299.86</course>
  <speed>2.2053117693423756</speed>
  <fix>3d</fix>
</trkpt>
<trkpt lat="40.0728347" lon="-105.2305529">
  <ele>1617.09</ele>
  <time>2026-08-27T18:28:37Z</time>
  <course>300.44</course>
  <speed>2.67</speed>
  <fix>3d</fix>
</trkpt>
<trkpt lat="40.0728383" lon="-105.2305623">
  <ele>1617.17</ele>
  <time>2026-08-27T18:28:37Z</time>
  <course>298.1</course>
  <speed>1.766635219845908</speed>
  <fix>3d</fix>
</trkpt>
<trkpt lat="40.0728369" lon="-105.230558">
  <ele>1617.08</ele>
  <time>2026-08-27T18:28:37Z</time>
  <course>299.05</course>
  <speed>2.22</speed>
  <fix>3d</fix>
</trkpt>
<trkpt lat="40.0728396" lon="-105.2305656">
  <ele>1617.15</ele>
  <time>2026-08-27T18:28:37Z</time>
  <course>295.97</course>
  <speed>1.3656500283747663</speed>
  <fix>3d</fix>
</trkpt>
<trkpt lat="40.0728386" lon="-105.2305621">
  <ele>1617.07</ele>
  <time>2026-08-27T18:28:37Z</time>
  <course>297.44</course>
  <speed>1.77</speed>
  <fix>3d</fix>
</trkpt>
<trkpt lat="40.0728405" lon="-105.2305681">
  <ele>1617.13</ele>
  <time>2026-08-27T18:28:37Z</time>
  <course>293.51</course>
  <speed>1.0324727599312247</speed>
  <fix>3d</fix>
</trkpt>
<trkpt lat="40.0728399" lon="-105.2305654">
  <ele>1617.05</ele>
  <time>2026-08-27T18:28:37Z</time>
  <course>295.5</course>
  <speed>1.37</speed>
  <fix>3d</fix>
</trkpt>
<trkpt lat="40.0728411" lon="-105.23057">
  <ele>1617.12</ele>
  <time>2026-08-27T18:28:37Z</time>
  <course>291.25</course>
  <speed>0.7528612089887484</speed>
  <fix>3d</fix>
</trkpt>
<trkpt lat="40.0728407" lon="-105.230568">
  <ele>1617.03</ele>
  <time>2026-08-27T18:28:37Z</time>
  <course>293.06</course>
  <speed>1.01</speed>
  <fix>3d</fix>
</trkpt>
<trkpt lat="40.0728414" lon="-105.2305714">
  <ele>1617.11</ele>
  <time>2026-08-27T18:28:37Z</time>
  <course>291.62</course>
  <speed>0.5295280917949491</speed>
  <fix>3d</fix>
</trkpt>
<trkpt lat="40.0728412" lon="-105.2305699">
  <ele>1617.02</ele>
  <time>2026-08-27T18:28:37Z</time>
  <course>288.93</course>
  <speed>0.72</speed>
  <fix>3d</fix>
</trkpt>
<trkpt lat="40.0728415" lon="-105.2305724">
  <ele>1617.11</ele>
  <time>2026-08-27T18:28:37Z</time>
  <course>291.56</course>
  <speed>0.35014282800023194</speed>
  <fix>3d</fix>
</trkpt>
<trkpt lat="40.0728415" lon="-105.2305712">
  <ele>1617.0</ele>
  <time>2026-08-27T18:28:37Z</time>
  <course>282.38</course>
  <speed>0.48</speed>
  <fix>3d</fix>
</trkpt>
<trkpt lat="40.0728415" lon="-105.2305729">
  <ele>1617.1</ele>
  <time>2026-08-27T18:28:37Z</time>
  <course>291.54</course>
  <speed>0.23194827009486402</speed>
  <fix>3d</fix>
</trkpt>
<trkpt lat="40.0728417" lon="-105.2305721">
  <ele>1616.99</ele>
  <time>2026-08-27T18:28:37Z</time>
  <course>272.4</course>
  <speed>0.3</speed>
  <fix>3d</fix>
</trkpt>
<trkpt lat="40.0728414" lon="-105.2305733">
  <ele>1617.11</ele>
  <time>2026-08-27T18:28:37Z</time>
  <course>291.47</course>
  <speed>0.15652475842498528</speed>
  <fix>3d</fix>
</trkpt>
<trkpt lat="40.0728416" lon="-105.2305727">
  <ele>1616.99</ele>
  <time>2026-08-27T18:28:37Z</time>
  <course>253.33</course>
  <speed>0.18</speed>
  <fix>3d</fix>
</trkpt>
<trkpt lat="40.0728414" lon="-105.2305734">
  <ele>1617.12</ele>
  <time>2026-08-27T18:28:37Z</time>
  <course>291.45</course>
  <speed>0.12041594578792296</speed>
  <fix>3d</fix>
</trkpt>
<trkpt lat="40.0728415" lon="-105.2305729">
  <ele>1616.99</ele>
  <time>2026-08-27T18:28:37Z</time>
  <course>222.25</course>
  <speed>0.12</speed>
  <fix>3d</fix>
</trkpt>
<trkpt lat="40.0728412" lon="-105.2305735">
  <ele>1617.12</ele>
  <time>2026-08-27T18:28:37Z</time>
  <course>291.44</course>
  <speed>0.09899494936611665</speed>
  <fix>3d</fix>
</trkpt>
<trkpt lat="40.0728414" lon="-105.230573">
  <ele>1616.99</ele>
  <time>2026-08-27T18:28:37Z</time>
  <course>194.72</course>
  <speed>0.11</speed>
  <fix>3d</fix>
</trkpt>
<trkpt lat="40.0728411" lon="-105.2305735">
  <ele>1617.12</ele>
  <time>2026-08-27T18:28:37Z</time>
  <course>291.42</course>
  <speed>0.09433981132056603</speed>
  <fix>3d</fix>
</trkpt>
<trkpt lat="40.0728413" lon="-105.2305731">
  <ele>1617.0</ele>
  <time>2026-08-27T18:28:37Z</time>
  <course>183.58</course>
  <speed>0.1</speed>
  <fix>3d</fix>
</trkpt>
<trkpt lat="40.072841" lon="-105.2305736">
  <ele>1617.13</ele>
  <time>2026-08-27T18:28:37Z</time>
  <course>291.37</course>
  <speed>0.1118033988749895</speed>
  <fix>3d</fix>
</trkpt>
<trkpt lat="40.0728411" lon="-105.2305731">
  <ele>1617.0</ele>
  <time>2026-08-27T18:28:37Z</time>
  <course>188.93</course>
  <speed>0.08</speed>
  <fix>3d</fix>
</trkpt>
<trkpt lat="40.072841" lon="-105.2305738">
  <ele>1617.13</ele>
  <time>2026-08-27T18:28:37Z</time>
  <course>291.33</course>
  <speed>0.15132745950421556</speed>
  <fix>3d</fix>
</trkpt>
<trkpt lat="40.0728409" lon="-105.2305731">
  <ele>1617.0</ele>
  <time>2026-08-27T18:28:37Z</time>
  <course>220.79</course>
  <speed>0.06</speed>
  <fix>3d</fix>
</trkpt>
<trkpt lat="40.0728409" lon="-105.2305741">
  <ele>1617.13</ele>
  <time>2026-08-27T18:28:37Z</time>
  <course>291.3</course>
  <speed>0.208806130178211</speed>
  <fix>3d</fix>
</trkpt>
<trkpt lat="40.0728408" lon="-105.2305733">
  <ele>1617.01</ele>
  <time>2026-08-27T18:28:37Z</time>
  <course>264.87</course>
  <speed>0.09</speed>
  <fix>3d</fix>
</trkpt>
<trkpt lat="40.072841" lon="-105.2305745">
  <ele>1617.12</ele>
  <time>2026-08-27T18:28:37Z</time>
  <course>298.66</course>
  <speed>0.2816025568065745</speed>
  <fix>3d</fix>
</trkpt>
<trkpt lat="40.0728408" lon="-105.2305736">
  <ele>1617.01</ele>
  <time>2026-08-27T18:28:37Z</time>
  <course>281.52</course>
  <speed>0.15</speed>
  <fix>3d</fix>
</trkpt>
<trkpt lat="40.0728411" lon="-105.2305751">
  <ele>1617.12</ele>
  <time>2026-08-27T18:28:37Z</time>
  <course>312.23</course>
  <speed>0.3352610922848042</speed>
  <fix>3d</fix>
</trkpt>
<trkpt lat="40.0728409" lon="-105.230574">
  <ele>1617.01</ele>
  <time>2026-08-27T18:28:37Z</time>
  <course>281.82</course>
  <speed>0.22</speed>
  <fix>3d</fix>
</trkpt>
<trkpt lat="40.0728413" lon="-105.2305758">
  <ele>1617.12</ele>
  <time>2026-08-27T18:28:37Z</time>
  <course>324.45</course>
  <speed>0.39395431207184417</speed>
  <fix>3d</fix>
</trkpt>
<trkpt lat="40.072841" lon="-105.2305746">
  <ele>1617.01</ele>
  <time>2026-08-27T18:28:37Z</time>
  <course>285.57</course>
  <speed>0.28</speed>
  <fix>3d</fix>
</trkpt>
<trkpt lat="40.0728416" lon="-105.2305765">
  <ele>1617.12</ele>
  <time>2026-08-27T18:28:37Z</time>
  <course>336.58</course>
  <speed>0.4477722635447622</speed>
  <fix>3d</fix>
</trkpt>
<trkpt lat="40.0728412" lon="-105.2305753">
  <ele>1617.02</ele>
  <time>2026-08-27T18:28:37Z</time>
  <course>293.74</course>
  <speed>0.35</speed>
  <fix>3d</fix>
</trkpt>
<trkpt lat="40.072842" lon="-105.2305774">
  <ele>1617.12</ele>
  <time>2026-08-27T18:28:37Z</time>
  <course>348.67</course>
  <speed>0.4882622246293481</speed>
  <fix>3d</fix>
</trkpt>
<trkpt lat="40.0728415" lon="-105.2305761">
  <ele>1617.02</ele>
  <time>2026-08-27T18:28:37Z</time>
  <course>299.56</course>
  <speed>0.41</speed>
  <fix>3d</fix>
</trkpt>
<trkpt lat="40.0728425" lon="-105.2305782">
  <ele>1617.13</ele>
  <time>2026-08-27T18:28:37Z</time>
  <course>0.7</course>
  <speed>0.5108815909777921</speed>
  <fix>3d</fix>
</trkpt>
<trkpt lat="40.0728419" lon="-105.230577">
  <ele>1617.02</ele>
  <time>2026-08-27T18:28:37Z</time>
  <course>304.58</course>
  <speed>0.45</speed>
  <fix>3d</fix>
</trkpt>
<trkpt lat="40.0728431" lon="-105.230579">
  <ele>1617.13</ele>
  <time>2026-08-27T18:28:37Z</time>
  <course>12.58</course>
  <speed>0.5093132631298737</speed>
  <fix>3d</fix>
</trkpt>
<trkpt lat="40.0728424" lon="-105.2305778">
  <ele>1617.03</ele>
  <time>2026-08-27T18:28:37Z</time>
  <course>309.64</course>
  <speed>0.48</speed>
  <fix>3d</fix>
</trkpt>
<trkpt lat="40.0728438" lon="-105.2305796">
  <ele>1617.13</ele>
  <time>2026-08-27T18:28:37Z</time>
  <course>13.36</course>
  <speed>0.44944410108488464</speed>
  <fix>3d</fix>
</trkpt>
<trkpt lat="40.072843" lon="-105.2305787">
  <ele>1617.03</ele>
  <time>2026-08-27T18:28:37Z</time>
  <course>316.73</course>
  <speed>0.47</speed>
  <fix>3d</fix>
</trkpt>
<trkpt lat="40.0728444" lon="-105.2305801">
  <ele>1617.14</ele>
  <time>2026-08-27T18:28:37Z</time>
  <course>12.67</course>
  <speed>0.4341658669218482</speed>
  <fix>3d</fix>
</trkpt>
<trkpt lat="40.0728436" lon="-105.2305794">
  <ele>1617.04</ele>
  <time>2026-08-27T18:28:37Z</time>
  <course>325.09</course>
  <speed>0.45</speed>
  <fix>3d</fix>
</trkpt>
<trkpt lat="40.0728451" lon="-105.2305805">
  <ele>1617.14</ele>
  <time>2026-08-27T18:28:37Z</time>
  <course>12.59</course>
  <speed>0.39395431207184417</speed>
  <fix>3d</fix>
</trkpt>
<trkpt lat="40.0728443" lon="-105.2305799">
  <ele>1617.04</ele>
  <time>2026-08-27T18:28:37Z</time>
  <course>331.18</course>
  <speed>0.42</speed>
  <fix>3d</fix>
</trkpt>
<trkpt lat="40.0728457" lon="-105.2305808">
  <ele>1617.14</ele>
  <time>2026-08-27T18:28:37Z</time>
  <course>12.57</course>
  <speed>0.34481879299133333</speed>
  <fix>3d</fix>
</trkpt>
<trkpt lat="40.072845" lon="-105.2305803">
  <ele>1617.04</ele>
  <time>2026-08-27T18:28:37Z</time>
  <course>336.14</course>
  <speed>0.39</speed>
  <fix>3d</fix>
</trkpt>
<trkpt lat="40.0728462" lon="-105.2305809">
  <ele>1617.14</ele>
  <time>2026-08-27T18:28:37Z</time>
  <course>12.56</course>
  <speed>0.27294688127912364</speed>
  <fix>3d</fix>
</trkpt>
<trkpt lat="40.0728457" lon="-105.2305806">
  <ele>1617.05</ele>
  <time>2026-08-27T18:28:37Z</time>
  <course>341.82</course>
  <speed>0.34</speed>
  <fix>3d</fix>
</trkpt>
<trkpt lat="40.0728466" lon="-105.230581">
  <ele>1617.14</ele>
  <time>2026-08-27T18:28:37Z</time>
  <course>12.57</course>
  <speed>0.21</speed>
  <fix>3d</fix>
</trkpt>
<trkpt lat="40.0728462" lon="-105.2305809">
  <ele>1617.05</ele>
  <time>2026-08-27T18:28:37Z</time>
  <course>349.46</course>
  <speed>0.28</speed>
  <fix>3d</fix>
</trkpt>
<trkpt lat="40.072847" lon="-105.2305809">
  <ele>1617.14</ele>
  <time>2026-08-27T18:28:37Z</time>
  <course>12.56</course>
  <speed>0.1615549442140351</speed>
  <fix>3d</fix>
</trkpt>
<trkpt lat="40.0728466" lon="-105.230581">
  <ele>1617.05</ele>
  <time>2026-08-27T18:28:37Z</time>
  <course>1.29</course>
  <speed>0.21</speed>
  <fix>3d</fix>
</trkpt>
<trkpt lat="40.0728471" lon="-105.2305808">
  <ele>1617.14</ele>
  <time>2026-08-27T18:28:37Z</time>
  <course>12.55</course>
  <speed>0.12806248474865697</speed>
  <fix>3d</fix>
</trkpt>
<trkpt lat="40.0728469" lon="-105.2305809">
  <ele>1617.05</ele>
  <time>2026-08-27T18:28:37Z</time>
  <course>21.2</course>
  <speed>0.16</speed>
  <fix>3d</fix>
</trkpt>
<trkpt lat="40.0728472" lon="-105.2305805">
  <ele>1617.14</ele>
  <time>2026-08-27T18:28:37Z</time>
  <course>12.54</course>
  <speed>0.140356688476182</speed>
  <fix>3d</fix>
</trkpt>
<trkpt lat="40.0728472" lon="-105.2305807">
  <ele>1617.05</ele>
  <time>2026-08-27T18:28:37Z</time>
  <course>52.65</course>
  <speed>0.13</speed>
  <fix>3d</fix>
</trkpt>
<trkpt lat="40.0728472" lon="-105.2305801">
  <ele>1617.14</ele>
  <time>2026-08-27T18:28:37Z</time>
  <course>12.53</course>
  <speed>0.1772004514666935</speed>
  <fix>3d</fix>
</trkpt>
<trkpt lat="40.0728473" lon="-105.2305805">
  <ele>1617.05</ele>
  <time>2026-08-27T18:28:37Z</time>
  <course>85.69</course>
  <speed>0.14</speed>
  <fix>3d</fix>
</trkpt>
<trkpt lat="40.072847" lon="-105.2305796">
  <ele>1617.14</ele>
  <time>2026-08-27T18:28:37Z</time>
  <course>12.53</course>
  <speed>0.22825424421026652</speed>
  <fix>3d</fix>
</trkpt>
<trkpt lat="40.0728472" lon="-105.2305801">
  <ele>1617.06</ele>
  <time>2026-08-27T18:28:37Z</time>
  <course>107.43</course>
  <speed>0.18</speed>
  <fix>3d</fix>
</trkpt>
<trkpt lat="40.0728469" lon="-105.2305791">
  <ele>1617.14</ele>
  <time>2026-08-27T18:28:37Z</time>
  <course>12.49</course>
  <speed>0.2640075756488817</speed>
  <fix>3d</fix>
</trkpt>
<trkpt lat="40.0728471" lon="-105.2305796">
  <ele>1617.06</ele>
  <time>2026-08-27T18:28:37Z</time>
  <course>120.17</course>
  <speed>0.23</speed>
  <fix>3d</fix>
</trkpt>
<trkpt lat="40.0728465" lon="-105.2305786">
  <ele>1617.14</ele>
  <time>2026-08-27T18:28:37Z</time>
  <course>12.46</course>
  <speed>0.2973213749463701</speed>
  <fix>3d</fix>
</trkpt>
<trkpt lat="40.0728469" lon="-105.2305791">
  <ele>1617.06</ele>
  <time>2026-08-27T18:28:37Z</time>
  <course>128.15</course>
  <speed>0.28</speed>
  <fix>3d</fix>
</trkpt>
<trkpt lat="40.0728461" lon="-105.2305781">
  <ele>1617.14</ele>
  <time>2026-08-27T18:28:37Z</time>
  <course>12.43</course>
  <speed>0.3255764119219941</speed>
  <fix>3d</fix>
</trkpt>
<trkpt lat="40.0728466" lon="-105.2305786">
  <ele>1617.06</ele>
  <time>2026-08-27T18:28:37Z</time>
  <course>133.61</course>
  <speed>0.31</speed>
  <fix>3d</fix>
</trkpt>
<trkpt lat="40.0728457" lon="-105.2305776">
  <ele>1617.14</ele>
  <time>2026-08-27T18:28:37Z</time>
  <course>12.43</course>
  <speed>0.34058772731852804</speed>
  <fix>3d</fix>
</trkpt>
<trkpt lat="40.0728461" lon="-105.2305781">
  <ele>1617.06</ele>
  <time>2026-08-27T18:28:37Z</time>
  <course>137.67</course>
  <speed>0.34</speed>
  <fix>3d</fix>
</trkpt>
<trkpt lat="40.0728451" lon="-105.230577">
  <ele>1617.14</ele>
  <time>2026-08-27T18:28:37Z</time>
  <course>12.44</course>
  <speed>0.35</speed>
  <fix>3d</fix>
</trkpt>
<trkpt lat="40.0728456" lon="-105.2305775">
  <ele>1617.06</ele>
  <time>2026-08-27T18:28:37Z</time>
  <course>140.95</course>
  <speed>0.36</speed>
  <fix>3d</fix>
</trkpt>
<trkpt lat="40.0728446" lon="-105.2305765">
  <ele>1617.14</ele>
  <time>2026-08-27T18:28:37Z</time>
  <course>12.41</course>
  <speed>0.33837848631377265</speed>
  <fix>3d</fix>
</trkpt>
<trkpt lat="40.072845" lon="-105.230577">
  <ele>1617.07</ele>
  <time>2026-08-27T18:28:37Z</time>
  <course>143.75</course>
  <speed>0.37</speed>
  <fix>3d</fix>
</trkpt>
<trkpt lat="40.0728441" lon="-105.2305761">
  <ele>1617.14</ele>
  <time>2026-08-27T18:28:37Z</time>
  <course>12.4</course>
  <speed>0.327566787083184</speed>
  <fix>3d</fix>
</trkpt>
<trkpt lat="40.0728445" lon="-105.2305765">
  <ele>1617.07</ele>
  <time>2026-08-27T18:28:37Z</time>
  <course>146.24</course>
  <speed>0.37</speed>
  <fix>3d</fix>
</trkpt>
<trkpt lat="40.0728435" lon="-105.2305757">
  <ele>1617.14</ele>
  <time>2026-08-27T18:28:37Z</time>
  <course>12.46</course>
  <speed>0.30886890422961</speed>
  <fix>3d</fix>
</trkpt>
<trkpt lat="40.072844" lon="-105.230576">
  <ele>1617.07</ele>
  <time>2026-08-27T18:28:37Z</time>
  <course>148.51</course>
  <speed>0.36</speed>
  <fix>3d</fix>
</trkpt>
<trkpt lat="40.072843" lon="-105.2305753">
  <ele>1617.12</ele>
  <time>2026-08-27T18:28:37Z</time>
  <course>12.85</course>
  <speed>0.28178005607210743</speed>
  <fix>3d</fix>
</trkpt>
<trkpt lat="40.0728434" lon="-105.2305756">
  <ele>1617.07</ele>
  <time>2026-08-27T18:28:37Z</time>
  <course>150.73</course>
  <speed>0.34</speed>
  <fix>3d</fix>
</trkpt>
<trkpt lat="40.0728425" lon="-105.230575">
  <ele>1617.06</ele>
  <time>2026-08-27T18:28:37Z</time>
  <course>13.2</course>
  <speed>0.25495097567963926</speed>
  <fix>3d</fix>
</trkpt>
<trkpt lat="40.0728429" lon="-105.2305752">
  <ele>1617.05</ele>
  <time>2026-08-27T18:28:37Z</time>
  <course>152.78</course>
  <speed>0.31</speed>
  <fix>3d</fix>
</trkpt>
<trkpt lat="40.0728421" lon="-105.2305748">
  <ele>1616.96</ele>
  <time>2026-08-27T18:28:37Z</time>
  <course>13.51</course>
  <speed>0.2193171219946131</speed>
  <fix>3d</fix>
</trkpt>
<trkpt lat="40.0728424" lon="-105.2305749">
  <ele>1617.0</ele>
  <time>2026-08-27T18:28:37Z</time>
  <course>154.34</course>
  <speed>0.28</speed>
  <fix>3d</fix>
</trkpt>
<trkpt lat="40.0728417" lon="-105.2305745">
  <ele>1616.82</ele>
  <time>2026-08-27T18:28:37Z</time>
  <course>13.79</course>
  <speed>0.18384776310850234</speed>
  <fix>3d</fix>
</trkpt>
<trkpt lat="40.0728419" lon="-105.2305747">
  <ele>1616.9</ele>
  <time>2026-08-27T18:28:37Z</time>
  <course>155.47</course>
  <speed>0.25</speed>
  <fix>3d</fix>
</trkpt>
<trkpt lat="40.0728414" lon="-105.2305744">
  <ele>1616.63</ele>
  <time>2026-08-27T18:28:37Z</time>
  <course>14.03</course>
  <speed>0.14317821063276354</speed>
  <fix>3d</fix>
</trkpt>
<trkpt lat="40.0728416" lon="-105.2305744">
  <ele>1616.77</ele>
  <time>2026-08-27T18:28:37Z</time>
  <course>156.11</course>
  <speed>0.21</speed>
  <fix>3d</fix>
</trkpt>
<trkpt lat="40.0728412" lon="-105.2305742">
  <ele>1616.39</ele>
  <time>2026-08-27T18:28:37Z</time>
  <course>14.24</course>
  <speed>0.10770329614269007</speed>
  <fix>3d</fix>
</trkpt>
<trkpt lat="40.0728413" lon="-105.2305742">
  <ele>1616.58</ele>
  <time>2026-08-27T18:28:37Z</time>
  <course>156.15</course>
  <speed>0.17</speed>
  <fix>3d</fix>
</trkpt>
<trkpt lat="40.072841" lon="-105.2305741">
  <ele>1616.11</ele>
  <time>2026-08-27T18:28:37Z</time>
  <course>14.38</course>
  <speed>0.0670820393249937</speed>
  <fix>3d</fix>
</trkpt>
<trkpt lat="40.072841" lon="-105.230574">
  <ele>1616.35</ele>
  <time>2026-08-27T18:28:37Z</time>
  <course>155.29</course>
  <speed>0.14</speed>
  <fix>3d</fix>
</trkpt>
<trkpt lat="40.0728409" lon="-105.230574">
  <ele>1615.8</ele>
  <time>2026-08-27T18:28:38Z</time>
  <course>14.31</course>
  <speed>0.03605551275463989</speed>
  <fix>3d</fix>
</trkpt>
<trkpt lat="40.0728408" lon="-105.2305739">
  <ele>1616.08</ele>
  <time>2026-08-27T18:28:38Z</time>
  <course>152.66</course>
  <speed>0.1</speed>
  <fix>3d</fix>
</trkpt>
<trkpt lat="40.0728408" lon="-105.2305739">
  <ele>1615.48</ele>
  <time>2026-08-27T18:28:38Z</time>
  <course>14.22</course>
  <speed>0.01</speed>
  <fix>3d</fix>
</trkpt>
<trkpt lat="40.0728407" lon="-105.2305738">
  <ele>1615.77</ele>
  <time>2026-08-27T18:28:38Z</time>
  <course>146.34</course>
  <speed>0.06</speed>
  <fix>3d</fix>
</trkpt>
<trkpt lat="40.0728408" lon="-105.2305738">
  <ele>1615.16</ele>
  <time>2026-08-27T18:28:38Z</time>
  <course>14.11</course>
  <speed>0.02</speed>
  <fix>3d</fix>
</trkpt>
<trkpt lat="40.0728406" lon="-105.2305738">
  <ele>1615.45</ele>
  <time>2026-08-27T18:28:38Z</time>
  <course>129.39</course>
  <speed>0.03</speed>
  <fix>3d</fix>
</trkpt>
<trkpt lat="40.0728408" lon="-105.2305738">
  <ele>1614.83</ele>
  <time>2026-08-27T18:28:38Z</time>
  <course>14.01</course>
  <speed>0.05</speed>
  <fix>3d</fix>
</trkpt>
<trkpt lat="40.0728406" lon="-105.2305737">
  <ele>1615.12</ele>
  <time>2026-08-27T18:28:38Z</time>
  <course>67.05</course>
  <speed>0.01</speed>
  <fix>3d</fix>
</trkpt>
<trkpt lat="40.0728408" lon="-105.2305738">
  <ele>1614.51</ele>
  <time>2026-08-27T18:28:38Z</time>
  <course>13.94</course>
  <speed>0.07071067811865475</speed>
  <fix>3d</fix>
</trkpt>
<trkpt lat="40.0728406" lon="-105.2305736">
  <ele>1614.79</ele>
  <time>2026-08-27T18:28:38Z</time>
  <course>11.54</course>
  <speed>0.03</speed>
  <fix>3d</fix>
</trkpt>
<trkpt lat="40.0728409" lon="-105.2305738">
  <ele>1614.19</ele>
  <time>2026-08-27T18:28:38Z</time>
  <course>13.85</course>
  <speed>0.0824621125123532</speed>
  <fix>3d</fix>
</trkpt>
<trkpt lat="40.0728407" lon="-105.2305736">
  <ele>1614.47</ele>
  <time>2026-08-27T18:28:38Z</time>
  <course>356.18</course>
  <speed>0.05</speed>
  <fix>3d</fix>
</trkpt>
<trkpt lat="40.072841" lon="-105.2305738">
  <ele>1613.87</ele>
  <time>2026-08-27T18:28:38Z</time>
  <course>13.79</course>
  <speed>0.09486832980505139</speed>
  <fix>3d</fix>
</trkpt>
<trkpt lat="40.0728407" lon="-105.2305737">
  <ele>1614.15</ele>
  <time>2026-08-27T18:28:38Z</time>
  <course>349.36</course>
  <speed>0.07</speed>
  <fix>3d</fix>
</trkpt>
<trkpt lat="40.0728412" lon="-105.2305738">
  <ele>1613.57</ele>
  <time>2026-08-27T18:28:38Z</time>
  <course>13.75</course>
  <speed>0.10770329614269007</speed>
  <fix>3d</fix>
</trkpt>
<trkpt lat="40.0728409" lon="-105.2305738">
  <ele>1613.83</ele>
  <time>2026-08-27T18:28:38Z</time>
  <course>345.23</course>
  <speed>0.08</speed>
  <fix>3d</fix>
</trkpt>
<trkpt lat="40.0728413" lon="-105.2305739">
  <ele>1613.26</ele>
  <time>2026-08-27T18:28:38Z</time>
  <course>13.72</course>
  <speed>0.10770329614269007</speed>
  <fix>3d</fix>
</trkpt>
<trkpt lat="40.0728411" lon="-105.2305738">
  <ele>1613.53</ele>
  <time>2026-08-27T18:28:38Z</time>
  <course>342.42</course>
  <speed>0.09</speed>
  <fix>3d</fix>
</trkpt>
<trkpt lat="40.0728415" lon="-105.230574">
  <ele>1612.96</ele>
  <time>2026-08-27T18:28:38Z</time>
  <course>13.69</course>
  <speed>0.1118033988749895</speed>
  <fix>3d</fix>
</trkpt>
<trkpt lat="40.0728412" lon="-105.2305738">
  <ele>1613.22</ele>
  <time>2026-08-27T18:28:38Z</time>
  <course>340.23</course>
  <speed>0.1</speed>
  <fix>3d</fix>
</trkpt>
<trkpt lat="40.0728417" lon="-105.2305741">
  <ele>1612.65</ele>
  <time>2026-08-27T18:28:38Z</time>
  <course>13.67</course>
  <speed>0.1118033988749895</speed>
  <fix>3d</fix>
</trkpt>
<trkpt lat="40.0728414" lon="-105.2305739">
  <ele>1612.91</ele>
  <time>2026-08-27T18:28:38Z</time>
  <course>338.25</course>
  <speed>0.1</speed>
  <fix>3d</fix>
</trkpt>
<trkpt lat="40.0728418" lon="-105.2305742">
  <ele>1612.35</ele>
  <time>2026-08-27T18:28:38Z</time>
  <course>13.61</course>
  <speed>0.10295630140987001</speed>
  <fix>3d</fix>
</trkpt>
<trkpt lat="40.0728415" lon="-105.230574">
  <ele>1612.62</ele>
  <time>2026-08-27T18:28:38Z</time>
  <course>336.25</course>
  <speed>0.1</speed>
  <fix>3d</fix>
</trkpt>
<trkpt lat="40.072842" lon="-105.2305743">
  <ele>1612.05</ele>
  <time>2026-08-27T18:28:38Z</time>
  <course>13.59</course>
  <speed>0.09433981132056603</speed>
  <fix>3d</fix>
</trkpt>
<trkpt lat="40.0728418" lon="-105.2305741">
  <ele>1612.32</ele>
  <time>2026-08-27T18:28:38Z</time>
  <course>333.96</course>
  <speed>0.1</speed>
  <fix>3d</fix>
</trkpt>
<trkpt lat="40.0728421" lon="-105.2305744">
  <ele>1611.75</ele>
  <time>2026-08-27T18:28:38Z</time>
  <course>13.56</course>
  <speed>0.08602325267042626</speed>
  <fix>3d</fix>
</trkpt>
<trkpt lat="40.0728419" lon="-105.2305742">
  <ele>1612.02</ele>
  <time>2026-08-27T18:28:38Z</time>
  <course>331.32</course>
  <speed>0.09</speed>
  <fix>3d</fix>
</trkpt>
<trkpt lat="40.0728422" lon="-105.2305745">
  <ele>1611.45</ele>
  <time>2026-08-27T18:28:38Z</time>
  <course>13.52</course>
  <speed>0.07810249675906654</speed>
  <fix>3d</fix>
</trkpt>
<trkpt lat="40.072842" lon="-105.2305743">
  <ele>1611.72</ele>
  <time>2026-08-27T18:28:38Z</time>
  <course>328.3</course>
  <speed>0.08</speed>
  <fix>3d</fix>
</trkpt>
<trkpt lat="40.0728423" lon="-105.2305746">
  <ele>1611.15</ele>
  <time>2026-08-27T18:28:38Z</time>
  <course>13.5</course>
  <speed>0.07071067811865475</speed>
  <fix>3d</fix>
</trkpt>
<trkpt lat="40.0728421" lon="-105.2305744">
  <ele>1611.42</ele>
  <time>2026-08-27T18:28:38Z</time>
  <course>324.49</course>
  <speed>0.07</speed>
  <fix>3d</fix>
</trkpt>
<trkpt lat="40.0728424" lon="-105.2305747">
  <ele>1610.85</ele>
  <time>2026-08-27T18:28:38Z</time>
  <course>13.48</course>
  <speed>0.05830951894845301</speed>
  <fix>3d</fix>
</trkpt>
<trkpt lat="40.0728422" lon="-105.2305745">
  <ele>1611.13</ele>
  <time>2026-08-27T18:28:38Z</time>
  <course>319.75</course>
  <speed>0.06</speed>
  <fix>3d</fix>
</trkpt>
<trkpt lat="40.0728424" lon="-105.2305748">
  <ele>1610.55</ele>
  <time>2026-08-27T18:28:38Z</time>
  <course>13.43</course>
  <speed>0.044721359549995794</speed>
  <fix>3d</fix>
</trkpt>
<trkpt lat="40.0728423" lon="-105.2305746">
  <ele>1610.83</ele>
  <time>2026-08-27T18:28:38Z</time>
  <course>313.69</course>
  <speed>0.05</speed>
  <fix>3d</fix>
</trkpt>
<trkpt lat="40.0728424" lon="-105.2305748">
  <ele>1610.25</ele>
  <time>2026-08-27T18:28:38Z</time>
  <course>13.43</course>
  <speed>0.0412310562561766</speed>
  <fix>3d</fix>
</trkpt>
<trkpt lat="40.0728424" lon="-105.2305746">
  <ele>1610.54</ele>
  <time>2026-08-27T18:28:38Z</time>
  <course>304.99</course>
  <speed>0.04</speed>
  <fix>3d</fix>
</trkpt>
<trkpt lat="40.0728424" lon="-105.2305749">
  <ele>1609.95</ele>
  <time>2026-08-27T18:28:38Z</time>
  <course>13.39</course>
  <speed>0.03</speed>
  <fix>3d</fix>
</trkpt>
<trkpt lat="40.0728424" lon="-105.2305747">
  <ele>1610.24</ele>
  <time>2026-08-27T18:28:38Z</time>
  <course>291.57</course>
  <speed>0.03</speed>
  <fix>3d</fix>
</trkpt>
<trkpt lat="40.0728424" lon="-105.2305749">
  <ele>1609.65</ele>
  <time>2026-08-27T18:28:38Z</time>
  <course>13.35</course>
  <speed>0.03</speed>
  <fix>3d</fix>
</trkpt>
<trkpt lat="40.0728425" lon="-105.2305748">
  <ele>1609.94</ele>
  <time>2026-08-27T18:28:38Z</time>
  <course>270.62</course>
  <speed>0.02</speed>
  <fix>3d</fix>
</trkpt>
<trkpt lat="40.0728424" lon="-105.230575">
  <ele>1609.34</ele>
  <time>2026-08-27T18:28:38Z</time>
  <course>13.33</course>
  <speed>0.0316227766016838</speed>
  <fix>3d</fix>
</trkpt>
<trkpt lat="40.0728424" lon="-105.2305748">
  <ele>1609.65</ele>
  <time>2026-08-27T18:28:38Z</time>
  <course>244.32</course>
  <speed>0.02</speed>
  <fix>3d</fix>
</trkpt>
<trkpt lat="40.0728424" lon="-105.230575">
  <ele>1609.04</ele>
  <time>2026-08-27T18:28:38Z</time>
  <course>13.28</course>
  <speed>0.0282842712474619</speed>
  <fix>3d</fix>
</trkpt>
<trkpt lat="40.0728424" lon="-105.2305749">
  <ele>1609.35</ele>
  <time>2026-08-27T18:28:38Z</time>
  <course>220.9</course>
  <speed>0.02</speed>
  <fix>3d</fix>
</trkpt>
<trkpt lat="40.0728424" lon="-105.230575">
  <ele>1608.74</ele>
  <time>2026-08-27T18:28:38Z</time>
  <course>13.26</course>
  <speed>0.0282842712474619</speed>
  <fix>3d</fix>
</trkpt>
<trkpt lat="40.0728424" lon="-105.230575">
  <ele>1609.05</ele>
  <time>2026-08-27T18:28:38Z</time>
  <course>204.79</course>
  <speed>0.03</speed>
  <fix>3d</fix>
</trkpt>
<trkpt lat="40.0728423" lon="-105.2305751">
  <ele>1608.44</ele>
  <time>2026-08-27T18:28:38Z</time>
  <course>13.23</course>
  <speed>0.022360679774997897</speed>
  <fix>3d</fix>
</trkpt>
<trkpt lat="40.0728424" lon="-105.230575">
  <ele>1608.76</ele>
  <time>2026-08-27T18:28:38Z</time>
  <course>193.97</course>
  <speed>0.03</speed>
  <fix>3d</fix>
</trkpt>
<trkpt lat="40.0728423" lon="-105.2305751">
  <ele>1608.14</ele>
  <time>2026-08-27T18:28:38Z</time>
  <course>13.2</course>
  <speed>0.0316227766016838</speed>
  <fix>3d</fix>
</trkpt>
<trkpt lat="40.0728423" lon="-105.230575">
  <ele>1608.46</ele>
  <time>2026-08-27T18:28:38Z</time>
  <course>186.2</course>
  <speed>0.03</speed>
  <fix>3d</fix>
</trkpt>
<trkpt lat="40.0728422" lon="-105.2305751">
  <ele>1607.84</ele>
  <time>2026-08-27T18:28:38Z</time>
  <course>13.19</course>
  <speed>0.0316227766016838</speed>
  <fix>3d</fix>
</trkpt>
<trkpt lat="40.0728423" lon="-105.230575">
  <ele>1608.16</ele>
  <time>2026-08-27T18:28:38Z</time>
  <course>180.56</course>
  <speed>0.04</speed>
  <fix>3d</fix>
</trkpt>
<trkpt lat="40.0728422" lon="-105.2305751">
  <ele>1607.55</ele>
  <time>2026-08-27T18:28:38Z</time>
  <course>13.15</course>
  <speed>0.0316227766016838</speed>
  <fix>3d</fix>
</trkpt>
<trkpt lat="40.0728422" lon="-105.230575">
  <ele>1607.87</ele>
  <time>2026-08-27T18:28:38Z</time>
  <course>176.12</course>
  <speed>0.04</speed>
  <fix>3d</fix>
</trkpt>
<trkpt lat="40.0728421" lon="-105.2305751">
  <ele>1607.25</ele>
  <time>2026-08-27T18:28:38Z</time>
  <course>13.14</course>
  <speed>0.02</speed>
  <fix>3d</fix>
</trkpt>
<trkpt lat="40.0728421" lon="-105.230575">
  <ele>1607.58</ele>
  <time>2026-08-27T18:28:38Z</time>
  <course>172.47</course>
  <speed>0.04</speed>
  <fix>3d</fix>
</trkpt>
<trkpt lat="40.072842" lon="-105.230575">
  <ele>1606.96</ele>
  <time>2026-08-27T18:28:38Z</time>
  <course>13.11</course>
  <speed>0.02</speed>
  <fix>3d</fix>
</trkpt>
<trkpt lat="40.072842" lon="-105.230575">
  <ele>1607.28</ele>
  <time>2026-08-27T18:28:38Z</time>
  <course>169.53</course>
  <speed>0.04</speed>
  <fix>3d</fix>
</trkpt>
<trkpt lat="40.072842" lon="-105.230575">
  <ele>1606.66</ele>
  <time>2026-08-27T18:28:38Z</time>
  <course>13.1</course>
  <speed>0.02</speed>
  <fix>3d</fix>
</trkpt>
<trkpt lat="40.072842" lon="-105.230575">
  <ele>1606.98</ele>
  <time>2026-08-27T18:28:38Z</time>
  <course>166.98</course>
  <speed>0.04</speed>
  <fix>3d</fix>
</trkpt>
<trkpt lat="40.0728419" lon="-105.230575">
  <ele>1606.35</ele>
  <time>2026-08-27T18:28:38Z</time>
  <course>13.08</course>
  <speed>0.01</speed>
  <fix>3d</fix>
</trkpt>
<trkpt lat="40.0728419" lon="-105.230575">
  <ele>1606.69</ele>
  <time>2026-08-27T18:28:38Z</time>
  <course>164.07</course>
  <speed>0.03</speed>
  <fix>3d</fix>
</trkpt>
<trkpt lat="40.0728419" lon="-105.230575">
  <ele>1606.05</ele>
  <time>2026-08-27T18:28:38Z</time>
  <course>13.05</course>
  <speed>0.01</speed>
  <fix>3d</fix>
</trkpt>
<trkpt lat="40.0728418" lon="-105.230575">
  <ele>1606.39</ele>
  <time>2026-08-27T18:28:38Z</time>
  <course>160.6</course>
  <speed>0.03</speed>
  <fix>3d</fix>
</trkpt>
<trkpt lat="40.0728418" lon="-105.230575">
  <ele>1605.75</ele>
  <time>2026-08-27T18:28:38Z</time>
  <course>13.04</course>
  <speed>0.0</speed>
  <fix>3d</fix>
</trkpt>
<trkpt lat="40.0728418" lon="-105.230575">
  <ele>1606.09</ele>
  <time>2026-08-27T18:28:38Z</time>
  <course>156.71</course>
  <speed>0.03</speed>
  <fix>3d</fix>
</trkpt>
<trkpt lat="40.0728418" lon="-105.230575">
  <ele>1605.45</ele>
  <time>2026-08-27T18:28:38Z</time>
  <course>13.0</course>
  <speed>0.0</speed>
  <fix>3d</fix>
</trkpt>
<trkpt lat="40.0728417" lon="-105.230575">
  <ele>1605.8</ele>
  <time>2026-08-27T18:28:38Z</time>
  <course>151.36</course>
  <speed>0.02</speed>
  <fix>3d</fix>
</trkpt>
<trkpt lat="40.0728418" lon="-105.230575">
  <ele>1605.16</ele>
  <time>2026-08-27T18:28:38Z</time>
  <course>12.98</course>
  <speed>0.0</speed>
  <fix>3d</fix>
</trkpt>
<trkpt lat="40.0728417" lon="-105.2305749">
  <ele>1605.5</ele>
  <time>2026-08-27T18:28:38Z</time>
  <course>144.23</course>
  <speed>0.02</speed>
  <fix>3d</fix>
</trkpt>
<trkpt lat="40.0728418" lon="-105.230575">
  <ele>1604.86</ele>
  <time>2026-08-27T18:28:38Z</time>
  <course>12.98</course>
  <speed>0.0</speed>
  <fix>3d</fix>
</trkpt>
<trkpt lat="40.0728417" lon="-105.2305748">
  <ele>1605.2</ele>
  <time>2026-08-27T18:28:38Z</time>
  <course>134.85</course>
  <speed>0.01</speed>
  <fix>3d</fix>
</trkpt>
<trkpt lat="40.0728418" lon="-105.230575">
  <ele>1604.56</ele>
  <time>2026-08-27T18:28:38Z</time>
  <course>12.96</course>
  <speed>0.0</speed>
  <fix>3d</fix>
</trkpt>
<trkpt lat="40.0728417" lon="-105.2305748">
  <ele>1604.91</ele>
  <time>2026-08-27T18:28:38Z</time>
  <course>121.7</course>
  <speed>0.01</speed>
  <fix>3d</fix>
</trkpt>
<trkpt lat="40.0728418" lon="-105.230575">
  <ele>1604.27</ele>
  <time>2026-08-27T18:28:38Z</time>
  <course>12.94</course>
  <speed>0.01</speed>
  <fix>3d</fix>
</trkpt>
<trkpt lat="40.0728417" lon="-105.2305748">
  <ele>1604.61</ele>
  <time>2026-08-27T18:28:38Z</time>
  <course>104.77</course>
  <speed>0.01</speed>
  <fix>3d</fix>
</trkpt>
<trkpt lat="40.0728418" lon="-105.2305749">
  <ele>1603.97</ele>
  <time>2026-08-27T18:28:38Z</time>
  <course>12.93</course>
  <speed>0.01</speed>
  <fix>3d</fix>
</trkpt>
<trkpt lat="40.0728417" lon="-105.2305748">
  <ele>1604.31</ele>
  <time>2026-08-27T18:28:38Z</time>
  <course>87.76</course>
  <speed>0.01</speed>
  <fix>3d</fix>
</trkpt>
<trkpt lat="40.0728418" lon="-105.2305749">
  <ele>1603.68</ele>
  <time>2026-08-27T18:28:38Z</time>
  <course>12.91</course>
  <speed>0.01414213562373095</speed>
  <fix>3d</fix>
</trkpt>
<trkpt lat="40.0728417" lon="-105.2305748">
  <ele>1604.01</ele>
  <time>2026-08-27T18:28:38Z</time>
  <course>72.81</course>
  <speed>0.01</speed>
  <fix>3d</fix>
</trkpt>
<trkpt lat="40.0728418" lon="-105.2305749">
  <ele>1603.38</ele>
  <time>2026-08-27T18:28:38Z</time>
  <course>12.9</course>
  <speed>0.022360679774997897</speed>
  <fix>3d</fix>
</trkpt>
<trkpt lat="40.0728417" lon="-105.2305748">
  <ele>1603.72</ele>
  <time>2026-08-27T18:28:38Z</time>
  <course>58.44</course>
  <speed>0.01</speed>
  <fix>3d</fix>
</trkpt>
<trkpt lat="40.0728418" lon="-105.2305749">
  <ele>1603.07</ele>
  <time>2026-08-27T18:28:38Z</time>
  <course>12.89</course>
  <speed>0.022360679774997897</speed>
  <fix>3d</fix>
</trkpt>
<trkpt lat="40.0728417" lon="-105.2305747">
  <ele>1603.41</ele>
  <time>2026-08-27T18:28:38Z</time>
  <course>46.84</course>
  <speed>0.01</speed>
  <fix>3d</fix>
</trkpt>
<trkpt lat="40.0728418" lon="-105.2305749">
  <ele>1602.77</ele>
  <time>2026-08-27T18:28:38Z</time>
  <course>12.87</course>
  <speed>0.022360679774997897</speed>
  <fix>3d</fix>
</trkpt>
<trkpt lat="40.0728417" lon="-105.2305746">
  <ele>1603.11</ele>
  <time>2026-08-27T18:28:38Z</time>
  <course>38.8</course>
  <speed>0.01</speed>
  <fix>3d</fix>
</trkpt>
<trkpt lat="40.0728418" lon="-105.2305749">
  <ele>1602.47</ele>
  <time>2026-08-27T18:28:38Z</time>
  <course>12.83</course>
  <speed>0.022360679774997897</speed>
  <fix>3d</fix>
</trkpt>
<trkpt lat="40.0728417" lon="-105.2305746">
  <ele>1602.81</ele>
  <time>2026-08-27T18:28:38Z</time>
  <course>32.53</course>
  <speed>0.01</speed>
  <fix>3d</fix>
</trkpt>
<trkpt lat="40.0728418" lon="-105.2305749">
  <ele>1602.16</ele>
  <time>2026-08-27T18:28:38Z</time>
  <course>12.82</course>
  <speed>0.022360679774997897</speed>
  <fix>3d</fix>
</trkpt>
<trkpt lat="40.0728417" lon="-105.2305746">
  <ele>1602.51</ele>
  <time>2026-08-27T18:28:38Z</time>
  <course>25.59</course>
  <speed>0.01</speed>
  <fix>3d</fix>
</trkpt>
<trkpt lat="40.0728418" lon="-105.2305748">
  <ele>1601.86</ele>
  <time>2026-08-27T18:28:38Z</time>
  <course>12.81</course>
  <speed>0.022360679774997897</speed>
  <fix>3d</fix>
</trkpt>
<trkpt lat="40.0728417" lon="-105.2305746">
  <ele>1602.21</ele>
  <time>2026-08-27T18:28:38Z</time>
  <course>17.72</course>
  <speed>0.01</speed>
  <fix>3d</fix>
</trkpt>
<trkpt lat="40.0728418" lon="-105.2305748">
  <ele>1601.56</ele>
  <time>2026-08-27T18:28:38Z</time>
  <course>12.79</course>
  <speed>0.022360679774997897</speed>
  <fix>3d</fix>
</trkpt>
<trkpt lat="40.0728417" lon="-105.2305746">
  <ele>1601.91</ele>
  <time>2026-08-27T18:28:38Z</time>
  <course>10.35</course>
  <speed>0.0</speed>
  <fix>3d</fix>
</trkpt>
<trkpt lat="40.0728418" lon="-105.2305748">
  <ele>1601.26</ele>
  <time>2026-08-27T18:28:38Z</time>
  <course>12.76</course>
  <speed>0.022360679774997897</speed>
  <fix>3d</fix>
</trkpt>
<trkpt lat="40.0728417" lon="-105.2305746">
  <ele>1601.61</ele>
  <time>2026-08-27T18:28:38Z</time>
  <course>1.34</course>
  <speed>0.0</speed>
  <fix>3d</fix>
</trkpt>
<trkpt lat="40.0728418" lon="-105.2305748">
  <ele>1600.96</ele>
  <time>2026-08-27T18:28:38Z</time>
  <course>12.76</course>
  <speed>0.022360679774997897</speed>
  <fix>3d</fix>
</trkpt>
<trkpt lat="40.0728417" lon="-105.2305746">
  <ele>1601.31</ele>
  <time>2026-08-27T18:28:38Z</time>
  <course>353.51</course>
  <speed>0.0</speed>
  <fix>3d</fix>
</trkpt>
<trkpt lat="40.0728418" lon="-105.2305748">
  <ele>1600.66</ele>
  <time>2026-08-27T18:28:38Z</time>
  <course>12.74</course>
  <speed>0.022360679774997897</speed>
  <fix>3d</fix>
</trkpt>
<trkpt lat="40.0728417" lon="-105.2305746">
  <ele>1601.01</ele>
  <time>2026-08-27T18:28:38Z</time>
  <course>347.78</course>
  <speed>0.0</speed>
  <fix>3d</fix>
</trkpt>
<trkpt lat="40.0728418" lon="-105.2305748">
  <ele>1600.36</ele>
  <time>2026-08-27T18:28:38Z</time>
  <course>12.71</course>
  <speed>0.022360679774997897</speed>
  <fix>3d</fix>
</trkpt>
<trkpt lat="40.0728417" lon="-105.2305746">
  <ele>1600.71</ele>
  <time>2026-08-27T18:28:38Z</time>
  <course>340.08</course>
  <speed>0.0</speed>
  <fix>3d</fix>
</trkpt>
<trkpt lat="40.0728418" lon="-105.2305748">
  <ele>1600.06</ele>
  <time>2026-08-27T18:28:38Z</time>
  <course>12.72</course>
  <speed>0.022360679774997897</speed>
  <fix>3d</fix>
</trkpt>
<trkpt lat="40.0728417" lon="-105.2305746">
  <ele>1600.41</ele>
  <time>2026-08-27T18:28:38Z</time>
  <course>331.87</course>
  <speed>0.0</speed>
  <fix>3d</fix>
</trkpt>
<trkpt lat="40.0728418" lon="-105.2305748">
  <ele>1599.77</ele>
  <time>2026-08-27T18:28:38Z</time>
  <course>12.71</course>
  <speed>0.022360679774997897</speed>
  <fix>3d</fix>
</trkpt>
<trkpt lat="40.0728418" lon="-105.2305746">
  <ele>1600.12</ele>
  <time>2026-08-27T18:28:38Z</time>
  <course>325.56</course>
  <speed>0.0</speed>
  <fix>3d</fix>
</trkpt>
<trkpt lat="40.0728418" lon="-105.2305748">
  <ele>1599.47</ele>
  <time>2026-08-27T18:28:38Z</time>
  <course>12.7</course>
  <speed>0.022360679774997897</speed>
  <fix>3d</fix>
</trkpt>
<trkpt lat="40.0728418" lon="-105.2305746">
  <ele>1599.82</ele>
  <time>2026-08-27T18:28:38Z</time>
  <course>319.95</course>
  <speed>0.0</speed>
  <fix>3d</fix>
</trkpt>
<trkpt lat="40.0728419" lon="-105.2305748">
  <ele>1599.18</ele>
  <time>2026-08-27T18:28:38Z</time>
  <course>12.68</course>
  <speed>0.022360679774997897</speed>
  <fix>3d</fix>
</trkpt>
<trkpt lat="40.0728418" lon="-105.2305746">
  <ele>1599.52</ele>
  <time>2026-08-27T18:28:38Z</time>
  <course>314.02</course>
  <speed>0.0</speed>
  <fix>3d</fix>
</trkpt>
<trkpt lat="40.0728419" lon="-105.2305748">
  <ele>1598.88</ele>
  <time>2026-08-27T18:28:38Z</time>
  <course>12.68</course>
  <speed>0.022360679774997897</speed>
  <fix>3d</fix>
</trkpt>
<trkpt lat="40.0728418" lon="-105.2305746">
  <ele>1599.22</ele>
  <time>2026-08-27T18:28:38Z</time>
  <course>307.15</course>
  <speed>0.0</speed>
  <fix>3d</fix>
</trkpt>
<trkpt lat="40.0728419" lon="-105.2305748">
  <ele>1598.59</ele>
  <time>2026-08-27T18:28:38Z</time>
  <course>12.68</course>
  <speed>0.022360679774997897</speed>
  <fix>3d</fix>
</trkpt>
<trkpt lat="40.0728418" lon="-105.2305746">
  <ele>1598.91</ele>
  <time>2026-08-27T18:28:38Z</time>
  <course>300.44</course>
  <speed>0.0</speed>
  <fix>3d</fix>
</trkpt>
<trkpt lat="40.0728419" lon="-105.2305748">
  <ele>1598.29</ele>
  <time>2026-08-27T18:28:38Z</time>
  <course>12.66</course>
  <speed>0.022360679774997897</speed>
  <fix>3d</fix>
</trkpt>
<trkpt lat="40.0728418" lon="-105.2305746">
  <ele>1598.61</ele>
  <time>2026-08-27T18:28:38Z</time>
  <course>294.31</course>
  <speed>0.0</speed>
  <fix>3d</fix>
</trkpt>
<trkpt lat="40.0728419" lon="-105.2305748">
  <ele>1597.99</ele>
  <time>2026-08-27T18:28:38Z</time>
  <course>12.64</course>
  <speed>0.022360679774997897</speed>
  <fix>3d</fix>
</trkpt>
<trkpt lat="40.0728418" lon="-105.2305746">
  <ele>1598.31</ele>
  <time>2026-08-27T18:28:38Z</time>
  <course>287.92</course>
  <speed>0.0</speed>
  <fix>3d</fix>
</trkpt>
<trkpt lat="40.0728419" lon="-105.2305748">
  <ele>1597.69</ele>
  <time>2026-08-27T18:28:38Z</time>
  <course>12.64</course>
  <speed>0.022360679774997897</speed>
  <fix>3d</fix>
</trkpt>
<trkpt lat="40.0728418" lon="-105.2305746">
  <ele>1598.01</ele>
  <time>2026-08-27T18:28:38Z</time>
  <course>282.05</course>
  <speed>0.0</speed>
  <fix>3d</fix>
</trkpt>
<trkpt lat="40.0728419" lon="-105.2305748">
  <ele>1597.39</ele>
  <time>2026-08-27T18:28:38Z</time>
  <course>12.58</course>
  <speed>0.022360679774997897</speed>
  <fix>3d</fix>
</trkpt>
<trkpt lat="40.0728418" lon="-105.2305746">
  <ele>1597.7</ele>
  <time>2026-08-27T18:28:38Z</time>
  <course>277.69</course>
  <speed>0.0</speed>
  <fix>3d</fix>
</trkpt>
<trkpt lat="40.0728419" lon="-105.2305748">
  <ele>1597.11</ele>
  <time>2026-08-27T18:28:38Z</time>
  <course>12.26</course>
  <speed>0.01</speed>
  <fix>3d</fix>
</trkpt>
<trkpt lat="40.0728418" lon="-105.2305747">
  <ele>1597.4</ele>
  <time>2026-08-27T18:28:38Z</time>
  <course>272.51</course>
  <speed>0.0</speed>
  <fix>3d</fix>
</trkpt>
<trkpt lat="40.0728419" lon="-105.2305748">
  <ele>1596.86</ele>
  <time>2026-08-27T18:28:38Z</time>
  <course>11.89</course>
  <speed>0.02</speed>
  <fix>3d</fix>
</trkpt>
<trkpt lat="40.0728418" lon="-105.2305748">
  <ele>1597.11</ele>
  <time>2026-08-27T18:28:38Z</time>
  <course>262.56</course>
  <speed>0.0</speed>
  <fix>3d</fix>
</trkpt>
<trkpt lat="40.0728419" lon="-105.2305748">
  <ele>1596.65</ele>
  <time>2026-08-27T18:28:38Z</time>
  <course>11.56</course>
  <speed>0.02</speed>
  <fix>3d</fix>
</trkpt>
<trkpt lat="40.0728418" lon="-105.2305748">
  <ele>1596.85</ele>
  <time>2026-08-27T18:28:38Z</time>
  <course>256.93</course>
  <speed>0.0</speed>
  <fix>3d</fix>
</trkpt>
<trkpt lat="40.0728419" lon="-105.2305749">
  <ele>1596.49</ele>
  <time>2026-08-27T18:28:38Z</time>
  <course>11.24</course>
  <speed>0.03</speed>
  <fix>3d</fix>
</trkpt>
<trkpt lat="40.0728418" lon="-105.2305748">
  <ele>1596.64</ele>
  <time>2026-08-27T18:28:38Z</time>
  <course>256.93</course>
  <speed>0.01</speed>
  <fix>3d</fix>
</trkpt>
<trkpt lat="40.0728419" lon="-105.2305749">
  <ele>1596.36</ele>
  <time>2026-08-27T18:28:38Z</time>
  <course>11.08</course>
  <speed>0.03</speed>
  <fix>3d</fix>
</trkpt>
<trkpt lat="40.0728418" lon="-105.2305748">
  <ele>1596.46</ele>
  <time>2026-08-27T18:28:38Z</time>
  <course>258.26</course>
  <speed>0.01</speed>
  <fix>3d</fix>
</trkpt>
<trkpt lat="40.0728419" lon="-105.230575">
  <ele>1596.26</ele>
  <time>2026-08-27T18:28:38Z</time>
  <course>11.12</course>
  <speed>0.04</speed>
  <fix>3d</fix>
</trkpt>
<trkpt lat="40.0728418" lon="-105.2305748">
  <ele>1596.33</ele>
  <time>2026-08-27T18:28:38Z</time>
  <course>260.35</course>
  <speed>0.02</speed>
  <fix>3d</fix>
</trkpt>
<trkpt lat="40.0728419" lon="-105.2305751">
  <ele>1596.18</ele>
  <time>2026-08-27T18:28:38Z</time>
  <course>11.16</course>
  <speed>0.04</speed>
  <fix>3d</fix>
</trkpt>
<trkpt lat="40.0728418" lon="-105.2305749">
  <ele>1596.23</ele>
  <time>2026-08-27T18:28:38Z</time>
  <course>262.06</course>
  <speed>0.02</speed>
  <fix>3d</fix>
</trkpt>
<trkpt lat="40.0728419" lon="-105.2305751">
  <ele>1596.1</ele>
  <time>2026-08-27T18:28:38Z</time>
  <course>11.24</course>
  <speed>0.04</speed>
  <fix>3d</fix>
</trkpt>
<trkpt lat="40.0728418" lon="-105.230575">
  <ele>1596.14</ele>
  <time>2026-08-27T18:28:38Z</time>
  <course>263.53</course>
  <speed>0.03</speed>
  <fix>3d</fix>
</trkpt>
<trkpt lat="40.0728419" lon="-105.2305752">
  <ele>1596.02</ele>
  <time>2026-08-27T18:28:38Z</time>
  <course>11.32</course>
  <speed>0.0412310562561766</speed>
  <fix>3d</fix>
</trkpt>
<trkpt lat="40.0728418" lon="-105.230575">
  <ele>1596.06</ele>
  <time>2026-08-27T18:28:38Z</time>
  <course>265.12</course>
  <speed>0.03</speed>
  <fix>3d</fix>
</trkpt>
<trkpt lat="40.0728419" lon="-105.2305753">
  <ele>1595.93</ele>
  <time>2026-08-27T18:28:38Z</time>
  <course>11.38</course>
  <speed>0.0412310562561766</speed>
  <fix>3d</fix>
</trkpt>
<trkpt lat="40.0728418" lon="-105.2305751">
  <ele>1595.99</ele>
  <time>2026-08-27T18:28:38Z</time>
  <course>266.79</course>
  <speed>0.03</speed>
  <fix>3d</fix>
</trkpt>
<trkpt lat="40.0728419" lon="-105.2305753">
  <ele>1595.85</ele>
  <time>2026-08-27T18:28:38Z</time>
  <course>11.45</course>
  <speed>0.0316227766016838</speed>
  <fix>3d</fix>
</trkpt>
<trkpt lat="40.0728418" lon="-105.2305752">
  <ele>1595.9</ele>
  <time>2026-08-27T18:28:38Z</time>
  <course>268.67</course>
  <speed>0.02</speed>
  <fix>3d</fix>
</trkpt>
<trkpt lat="40.0728419" lon="-105.2305754">
  <ele>1595.76</ele>
  <time>2026-08-27T18:28:38Z</time>
  <course>11.48</course>
  <speed>0.0316227766016838</speed>
  <fix>3d</fix>
</trkpt>
<trkpt lat="40.0728418" lon="-105.2305753">
  <ele>1595.81</ele>
  <time>2026-08-27T18:28:38Z</time>
  <course>270.8</course>
  <speed>0.02</speed>
  <fix>3d</fix>
</trkpt>
<trkpt lat="40.0728419" lon="-105.2305754">
  <ele>1595.67</ele>
  <time>2026-08-27T18:28:38Z</time>
  <course>11.52</course>
  <speed>0.022360679774997897</speed>
  <fix>3d</fix>
</trkpt>
<trkpt lat="40.0728418" lon="-105.2305753">
  <ele>1595.72</ele>
  <time>2026-08-27T18:28:38Z</time>
  <course>273.5</course>
  <speed>0.01</speed>
  <fix>3d</fix>
</trkpt>
<trkpt lat="40.0728419" lon="-105.2305755">
  <ele>1595.57</ele>
  <time>2026-08-27T18:28:38Z</time>
  <course>11.54</course>
  <speed>0.022360679774997897</speed>
  <fix>3d</fix>
</trkpt>
<trkpt lat="40.0728418" lon="-105.2305753">
  <ele>1595.63</ele>
  <time>2026-08-27T18:28:38Z</time>
  <course>276.37</course>
  <speed>0.01</speed>
  <fix>3d</fix>
</trkpt>
<trkpt lat="40.0728419" lon="-105.2305755">
  <ele>1595.47</ele>
  <time>2026-08-27T18:28:38Z</time>
  <course>11.54</course>
  <speed>0.01414213562373095</speed>
  <fix>3d</fix>
</trkpt>
<trkpt lat="40.0728418" lon="-105.2305753">
  <ele>1595.54</ele>
  <time>2026-08-27T18:28:38Z</time>
  <course>279.43</course>
  <speed>0.0</speed>
  <fix>3d</fix>
</trkpt>
<trkpt lat="40.0728419" lon="-105.2305755">
  <ele>1595.37</ele>
  <time>2026-08-27T18:28:38Z</time>
  <course>11.55</course>
  <speed>0.01414213562373095</speed>
  <fix>3d</fix>
</trkpt>
<trkpt lat="40.0728418" lon="-105.2305753">
  <ele>1595.44</ele>
  <time>2026-08-27T18:28:38Z</time>
  <course>299.34</course>
  <speed>0.0</speed>
  <fix>3d</fix>
</trkpt>
<trkpt lat="40.0728419" lon="-105.2305755">
  <ele>1595.27</ele>
  <time>2026-08-27T18:28:38Z</time>
  <course>11.55</course>
  <speed>0.01</speed>
  <fix>3d</fix>
</trkpt>
<trkpt lat="40.0728418" lon="-105.2305753">
  <ele>1595.34</ele>
  <time>2026-08-27T18:28:38Z</time>
  <course>70.62</course>
  <speed>0.0</speed>
  <fix>3d</fix>
</trkpt>
<trkpt lat="40.0728419" lon="-105.2305755">
  <ele>1595.17</ele>
  <time>2026-08-27T18:28:38Z</time>
  <course>11.54</course>
  <speed>0.01</speed>
  <fix>3d</fix>
</trkpt>
<trkpt lat="40.0728418" lon="-105.2305753">
  <ele>1595.24</ele>
  <time>2026-08-27T18:28:38Z</time>
  <course>80.04</course>
  <speed>0.0</speed>
  <fix>3d</fix>
</trkpt>
<trkpt lat="40.0728419" lon="-105.2305755">
  <ele>1595.07</ele>
  <time>2026-08-27T18:28:38Z</time>
  <course>11.56</course>
  <speed>0.01</speed>
  <fix>3d</fix>
</trkpt>
<trkpt lat="40.0728418" lon="-105.2305753">
  <ele>1595.13</ele>
  <time>2026-08-27T18:28:38Z</time>
  <course>83.81</course>
  <speed>0.01</speed>
  <fix>3d</fix>
</trkpt>
<trkpt lat="40.0728419" lon="-105.2305754">
  <ele>1594.97</ele>
  <time>2026-08-27T18:28:38Z</time>
  <course>11.58</course>
  <speed>0.01</speed>
  <fix>3d</fix>
</trkpt>
<trkpt lat="40.0728418" lon="-105.2305753">
  <ele>1595.03</ele>
  <time>2026-08-27T18:28:38Z</time>
  <course>86.12</course>
  <speed>0.01</speed>
  <fix>3d</fix>
</trkpt>
<trkpt lat="40.0728419" lon="-105.2305754">
  <ele>1594.87</ele>
  <time>2026-08-27T18:28:38Z</time>
  <course>11.58</course>
  <speed>0.01</speed>
  <fix>3d</fix>
</trkpt>
<trkpt lat="40.0728418" lon="-105.2305753">
  <ele>1594.92</ele>
  <time>2026-08-27T18:28:38Z</time>
  <course>87.57</course>
  <speed>0.01</speed>
  <fix>3d</fix>
</trkpt>
<trkpt lat="40.0728419" lon="-105.2305753">
  <ele>1594.77</ele>
  <time>2026-08-27T18:28:38Z</time>
  <course>11.59</course>
  <speed>0.01</speed>
  <fix>3d</fix>
</trkpt>
<trkpt lat="40.0728418" lon="-105.2305753">
  <ele>1594.83</ele>
  <time>2026-08-27T18:28:38Z</time>
  <course>88.37</course>
  <speed>0.02</speed>
  <fix>3d</fix>
</trkpt>
<trkpt lat="40.0728419" lon="-105.2305753">
  <ele>1594.67</ele>
  <time>2026-08-27T18:28:38Z</time>
  <course>11.6</course>
  <speed>0.01</speed>
  <fix>3d</fix>
</trkpt>
<trkpt lat="40.0728418" lon="-105.2305753">
  <ele>1594.73</ele>
  <time>2026-08-27T18:28:38Z</time>
  <course>89.28</course>
  <speed>0.02</speed>
  <fix>3d</fix>
</trkpt>
<trkpt lat="40.0728419" lon="-105.2305753">
  <ele>1594.57</ele>
  <time>2026-08-27T18:28:38Z</time>
  <course>11.6</course>
  <speed>0.01</speed>
  <fix>3d</fix>
</trkpt>
<trkpt lat="40.0728418" lon="-105.2305752">
  <ele>1594.63</ele>
  <time>2026-08-27T18:28:38Z</time>
  <course>90.25</course>
  <speed>0.02</speed>
  <fix>3d</fix>
</trkpt>
<trkpt lat="40.0728419" lon="-105.2305752">
  <ele>1594.47</ele>
  <time>2026-08-27T18:28:38Z</time>
  <course>11.61</course>
  <speed>0.01</speed>
  <fix>3d</fix>
</trkpt>
<trkpt lat="40.0728418" lon="-105.2305751">
  <ele>1594.53</ele>
  <time>2026-08-27T18:28:38Z</time>
  <course>90.72</course>
  <speed>0.02</speed>
  <fix>3d</fix>
</trkpt>
<trkpt lat="40.0728419" lon="-105.2305752">
  <ele>1594.37</ele>
  <time>2026-08-27T18:28:38Z</time>
  <course>11.61</course>
  <speed>0.01</speed>
  <fix>3d</fix>
</trkpt>
<trkpt lat="40.0728418" lon="-105.2305751">
  <ele>1594.42</ele>
  <time>2026-08-27T18:28:38Z</time>
  <course>90.97</course>
  <speed>0.02</speed>
  <fix>3d</fix>
</trkpt>
<trkpt lat="40.0728419" lon="-105.2305751">
  <ele>1594.27</ele>
  <time>2026-08-27T18:28:38Z</time>
  <course>11.63</course>
  <speed>0.01</speed>
  <fix>3d</fix>
</trkpt>
<trkpt lat="40.0728418" lon="-105.2305751">
  <ele>1594.33</ele>
  <time>2026-08-27T18:28:38Z</time>
  <course>91.16</course>
  <speed>0.02</speed>
  <fix>3d</fix>
</trkpt>
<trkpt lat="40.0728419" lon="-105.2305751">
  <ele>1594.17</ele>
  <time>2026-08-27T18:28:38Z</time>
  <course>11.65</course>
  <speed>0.01</speed>
  <fix>3d</fix>
</trkpt>
<trkpt lat="40.0728418" lon="-105.230575">
  <ele>1594.23</ele>
  <time>2026-08-27T18:28:38Z</time>
  <course>91.83</course>
  <speed>0.02</speed>
  <fix>3d</fix>
</trkpt>
<trkpt lat="40.0728419" lon="-105.2305751">
  <ele>1594.07</ele>
  <time>2026-08-27T18:28:38Z</time>
  <course>11.63</course>
  <speed>0.01</speed>
  <fix>3d</fix>
</trkpt>
<trkpt lat="40.0728418" lon="-105.230575">
  <ele>1594.13</ele>
  <time>2026-08-27T18:28:38Z</time>
  <course>93.06</course>
  <speed>0.02</speed>
  <fix>3d</fix>
</trkpt>
<trkpt lat="40.0728419" lon="-105.230575">
  <ele>1593.97</ele>
  <time>2026-08-27T18:28:38Z</time>
  <course>11.66</course>
  <speed>0.01</speed>
  <fix>3d</fix>
</trkpt>
<trkpt lat="40.0728418" lon="-105.2305749">
  <ele>1594.03</ele>
  <time>2026-08-27T18:28:38Z</time>
  <course>94.16</course>
  <speed>0.02</speed>
  <fix>3d</fix>
</trkpt>
<trkpt lat="40.0728419" lon="-105.230575">
  <ele>1593.87</ele>
  <time>2026-08-27T18:28:38Z</time>
  <course>11.65</course>
  <speed>0.01</speed>
  <fix>3d</fix>
</trkpt>
<trkpt lat="40.0728418" lon="-105.2305748">
  <ele>1593.92</ele>
  <time>2026-08-27T18:28:38Z</time>
  <course>95.2</course>
  <speed>0.01</speed>
  <fix>3d</fix>
</trkpt>
<trkpt lat="40.0728419" lon="-105.230575">
  <ele>1593.77</ele>
  <time>2026-08-27T18:28:38Z</time>
  <course>11.66</course>
  <speed>0.01</speed>
  <fix>3d</fix>
</trkpt>
<trkpt lat="40.0728418" lon="-105.2305748">
  <ele>1593.82</ele>
  <time>2026-08-27T18:28:38Z</time>
  <course>96.55</course>
  <speed>0.01</speed>
  <fix>3d</fix>
</trkpt>
<trkpt lat="40.0728419" lon="-105.2305749">
  <ele>1593.67</ele>
  <time>2026-08-27T18:28:38Z</time>
  <course>11.65</course>
  <speed>0.01</speed>
  <fix>3d</fix>
</trkpt>
<trkpt lat="40.0728418" lon="-105.2305748">
  <ele>1593.72</ele>
  <time>2026-08-27T18:28:38Z</time>
  <course>98.13</course>
  <speed>0.01</speed>
  <fix>3d</fix>
</trkpt>
<trkpt lat="40.0728419" lon="-105.2305749">
  <ele>1593.56</ele>
  <time>2026-08-27T18:28:38Z</time>
  <course>11.68</course>
  <speed>0.01</speed>
  <fix>3d</fix>
</trkpt>
<trkpt lat="40.0728418" lon="-105.2305748">
  <ele>1593.62</ele>
  <time>2026-08-27T18:28:38Z</time>
  <course>100.23</course>
  <speed>0.01</speed>
  <fix>3d</fix>
</trkpt>
<trkpt lat="40.0728419" lon="-105.2305749">
  <ele>1593.46</ele>
  <time>2026-08-27T18:28:38Z</time>
  <course>11.66</course>
  <speed>0.01414213562373095</speed>
  <fix>3d</fix>
</trkpt>
<trkpt lat="40.0728418" lon="-105.2305747">
  <ele>1593.52</ele>
  <time>2026-08-27T18:28:38Z</time>
  <course>104.12</course>
  <speed>0.01</speed>
  <fix>3d</fix>
</trkpt>
<trkpt lat="40.0728419" lon="-105.2305748">
  <ele>1593.36</ele>
  <time>2026-08-27T18:28:38Z</time>
  <course>11.67</course>
  <speed>0.01414213562373095</speed>
  <fix>3d</fix>
</trkpt>
<trkpt lat="40.0728418" lon="-105.2305746">
  <ele>1593.42</ele>
  <time>2026-08-27T18:28:38Z</time>
  <course>108.72</course>
  <speed>0.0</speed>
  <fix>3d</fix>
</trkpt>
<trkpt lat="40.0728419" lon="-105.2305748">
  <ele>1593.26</ele>
  <time>2026-08-27T18:28:38Z</time>
  <course>11.69</course>
  <speed>0.01414213562373095</speed>
  <fix>3d</fix>
</trkpt>
<trkpt lat="40.0728418" lon="-105.2305746">
  <ele>1593.33</ele>
  <time>2026-08-27T18:28:38Z</time>
  <course>114.14</course>
  <speed>0.0</speed>
  <fix>3d</fix>
</trkpt>
<trkpt lat="40.0728419" lon="-105.2305748">
  <ele>1593.16</ele>
  <time>2026-08-27T18:28:38Z</time>
  <course>11.65</course>
  <speed>0.01414213562373095</speed>
  <fix>3d</fix>
</trkpt>
<trkpt lat="40.0728418" lon="-105.2305746">
  <ele>1593.23</ele>
  <time>2026-08-27T18:28:38Z</time>
  <course>122.68</course>
  <speed>0.0</speed>
  <fix>3d</fix>
</trkpt>
<trkpt lat="40.0728419" lon="-105.2305748">
  <ele>1593.06</ele>
  <time>2026-08-27T18:28:38Z</time>
  <course>11.69</course>
  <speed>0.01414213562373095</speed>
  <fix>3d</fix>
</trkpt>
<trkpt lat="40.0728418" lon="-105.2305746">
  <ele>1593.13</ele>
  <time>2026-08-27T18:28:38Z</time>
  <course>138.32</course>
  <speed>0.0</speed>
  <fix>3d</fix>
</trkpt>
<trkpt lat="40.0728419" lon="-105.2305748">
  <ele>1592.97</ele>
  <time>2026-08-27T18:28:38Z</time>
  <course>11.68</course>
  <speed>0.01414213562373095</speed>
  <fix>3d</fix>
</trkpt>
<trkpt lat="40.0728418" lon="-105.2305746">
  <ele>1593.03</ele>
  <time>2026-08-27T18:28:38Z</time>
  <course>165.84</course>
  <speed>0.0</speed>
  <fix>3d</fix>
</trkpt>
<trkpt lat="40.0728419" lon="-105.2305748">
  <ele>1592.87</ele>
  <time>2026-08-27T18:28:38Z</time>
  <course>11.7</course>
  <speed>0.022360679774997897</speed>
  <fix>3d</fix>
</trkpt>
<trkpt lat="40.0728418" lon="-105.2305746">
  <ele>1592.92</ele>
  <time>2026-08-27T18:28:38Z</time>
  <course>195.44</course>
  <speed>0.0</speed>
  <fix>3d</fix>
</trkpt>
<trkpt lat="40.0728419" lon="-105.2305748">
  <ele>1592.76</ele>
  <time>2026-08-27T18:28:38Z</time>
  <course>11.72</course>
  <speed>0.022360679774997897</speed>
  <fix>3d</fix>
</trkpt>
<trkpt lat="40.0728418" lon="-105.2305746">
  <ele>1592.83</ele>
  <time>2026-08-27T18:28:38Z</time>
  <course>217.93</course>
  <speed>0.0</speed>
  <fix>3d</fix>
</trkpt>
<trkpt lat="40.0728419" lon="-105.2305748">
  <ele>1592.66</ele>
  <time>2026-08-27T18:28:38Z</time>
  <course>11.71</course>
  <speed>0.022360679774997897</speed>
  <fix>3d</fix>
</trkpt>
<trkpt lat="40.0728418" lon="-105.2305746">
  <ele>1592.73</ele>
  <time>2026-08-27T18:28:38Z</time>
  <course>228.64</course>
  <speed>0.0</speed>
  <fix>3d</fix>
</trkpt>
<trkpt lat="40.0728419" lon="-105.2305748">
  <ele>1592.56</ele>
  <time>2026-08-27T18:28:38Z</time>
  <course>11.73</course>
  <speed>0.022360679774997897</speed>
  <fix>3d</fix>
</trkpt>
<trkpt lat="40.0728418" lon="-105.2305746">
  <ele>1592.63</ele>
  <time>2026-08-27T18:28:38Z</time>
  <course>234.88</course>
  <speed>0.0</speed>
  <fix>3d</fix>
</trkpt>
<trkpt lat="40.0728419" lon="-105.2305748">
  <ele>1592.46</ele>
  <time>2026-08-27T18:28:38Z</time>
  <course>11.74</course>
  <speed>0.022360679774997897</speed>
  <fix>3d</fix>
</trkpt>
<trkpt lat="40.0728418" lon="-105.2305746">
  <ele>1592.54</ele>
  <time>2026-08-27T18:28:38Z</time>
  <course>240.17</course>
  <speed>0.0</speed>
  <fix>3d</fix>
</trkpt>
<trkpt lat="40.0728419" lon="-105.2305748">
  <ele>1592.37</ele>
  <time>2026-08-27T18:28:38Z</time>
  <course>11.72</course>
  <speed>0.022360679774997897</speed>
  <fix>3d</fix>
</trkpt>
<trkpt lat="40.0728418" lon="-105.2305746">
  <ele>1592.44</ele>
  <time>2026-08-27T18:28:39Z</time>
  <course>242.62</course>
  <speed>0.0</speed>
  <fix>3d</fix>
</trkpt>
<trkpt lat="40.0728419" lon="-105.2305748">
  <ele>1592.27</ele>
  <time>2026-08-27T18:28:39Z</time>
  <course>11.75</course>
  <speed>0.022360679774997897</speed>
  <fix>3d</fix>
</trkpt>
<trkpt lat="40.0728418" lon="-105.2305746">
  <ele>1592.34</ele>
  <time>2026-08-27T18:28:39Z</time>
  <course>244.11</course>
  <speed>0.0</speed>
  <fix>3d</fix>
</trkpt>
<trkpt lat="40.0728419" lon="-105.2305748">
  <ele>1592.17</ele>
  <time>2026-08-27T18:28:39Z</time>
  <course>11.75</course>
  <speed>0.022360679774997897</speed>
  <fix>3d</fix>
</trkpt>
<trkpt lat="40.0728418" lon="-105.2305746">
  <ele>1592.24</ele>
  <time>2026-08-27T18:28:39Z</time>
  <course>245.06</course>
  <speed>0.0</speed>
  <fix>3d</fix>
</trkpt>
<trkpt lat="40.0728419" lon="-105.2305748">
  <ele>1592.07</ele>
  <time>2026-08-27T18:28:39Z</time>
  <course>11.75</course>
  <speed>0.022360679774997897</speed>
  <fix>3d</fix>
</trkpt>
<trkpt lat="40.0728418" lon="-105.2305746">
  <ele>1592.13</ele>
  <time>2026-08-27T18:28:39Z</time>
  <course>244.62</course>
  <speed>0.0</speed>
  <fix>3d</fix>
</trkpt>
<trkpt lat="40.0728419" lon="-105.2305748">
  <ele>1591.97</ele>
  <time>2026-08-27T18:28:39Z</time>
  <course>11.76</course>
  <speed>0.022360679774997897</speed>
  <fix>3d</fix>
</trkpt>
<trkpt lat="40.0728418" lon="-105.2305746">
  <ele>1592.04</ele>
  <time>2026-08-27T18:28:39Z</time>
  <course>243.69</course>
  <speed>0.0</speed>
  <fix>3d</fix>
</trkpt>
<trkpt lat="40.0728419" lon="-105.2305748">
  <ele>1591.87</ele>
  <time>2026-08-27T18:28:39Z</time>
  <course>11.77</course>
  <speed>0.022360679774997897</speed>
  <fix>3d</fix>
</trkpt>
<trkpt lat="40.0728418" lon="-105.2305746">
  <ele>1591.94</ele>
  <time>2026-08-27T18:28:39Z</time>
  <course>242.2</course>
  <speed>0.0</speed>
  <fix>3d</fix>
</trkpt>
<trkpt lat="40.0728419" lon="-105.2305748">
  <ele>1591.77</ele>
  <time>2026-08-27T18:28:39Z</time>
  <course>11.77</course>
  <speed>0.022360679774997897</speed>
  <fix>3d</fix>
</trkpt>
<trkpt lat="40.0728418" lon="-105.2305747">
  <ele>1591.84</ele>
  <time>2026-08-27T18:28:39Z</time>
  <course>241.49</course>
  <speed>0.0</speed>
  <fix>3d</fix>
</trkpt>
<trkpt lat="40.0728419" lon="-105.2305748">
  <ele>1591.67</ele>
  <time>2026-08-27T18:28:39Z</time>
  <course>11.78</course>
  <speed>0.022360679774997897</speed>
  <fix>3d</fix>
</trkpt>
<trkpt lat="40.0728418" lon="-105.2305748">
  <ele>1591.74</ele>
  <time>2026-08-27T18:28:39Z</time>
  <course>241.26</course>
  <speed>0.0</speed>
  <fix>3d</fix>
</trkpt>
<trkpt lat="40.0728419" lon="-105.2305749">
  <ele>1591.58</ele>
  <time>2026-08-27T18:28:39Z</time>
  <course>11.78</course>
  <speed>0.022360679774997897</speed>
  <fix>3d</fix>
</trkpt>
<trkpt lat="40.0728417" lon="-105.2305748">
  <ele>1591.63</ele>
  <time>2026-08-27T18:28:39Z</time>
  <course>240.73</course>
  <speed>0.0</speed>
  <fix>3d</fix>
</trkpt>
<trkpt lat="40.0728419" lon="-105.2305749">
  <ele>1591.48</ele>
  <time>2026-08-27T18:28:39Z</time>
  <course>11.79</course>
  <speed>0.022360679774997897</speed>
  <fix>3d</fix>
</trkpt>
<trkpt lat="40.0728417" lon="-105.2305748">
  <ele>1591.54</ele>
  <time>2026-08-27T18:28:39Z</time>
  <course>240.49</course>
  <speed>0.0</speed>
  <fix>3d</fix>
</trkpt>
<trkpt lat="40.0728419" lon="-105.2305749">
  <ele>1591.38</ele>
  <time>2026-08-27T18:28:39Z</time>
  <course>11.81</course>
  <speed>0.01414213562373095</speed>
  <fix>3d</fix>
</trkpt>
<trkpt lat="40.0728417" lon="-105.2305748">
  <ele>1591.44</ele>
  <time>2026-08-27T18:28:39Z</time>
  <course>238.97</course>
  <speed>0.0</speed>
  <fix>3d</fix>
</trkpt>
<trkpt lat="40.0728419" lon="-105.2305749">
  <ele>1591.28</ele>
  <time>2026-08-27T18:28:39Z</time>
  <course>11.81</course>
  <speed>0.01414213562373095</speed>
  <fix>3d</fix>
</trkpt>
<trkpt lat="40.0728417" lon="-105.2305748">
  <ele>1591.34</ele>
  <time>2026-08-27T18:28:39Z</time>
  <course>234.17</course>
  <speed>0.0</speed>
  <fix>3d</fix>
</trkpt>
<trkpt lat="40.0728419" lon="-105.2305749">
  <ele>1591.18</ele>
  <time>2026-08-27T18:28:39Z</time>
  <course>11.81</course>
  <speed>0.01414213562373095</speed>
  <fix>3d</fix>
</trkpt>
<trkpt lat="40.0728417" lon="-105.2305748">
  <ele>1591.23</ele>
  <time>2026-08-27T18:28:39Z</time>
  <course>227.84</course>
  <speed>0.0</speed>
  <fix>3d</fix>
</trkpt>
<trkpt lat="40.0728419" lon="-105.2305749">
  <ele>1591.08</ele>
  <time>2026-08-27T18:28:39Z</time>
  <course>11.81</course>
  <speed>0.01414213562373095</speed>
  <fix>3d</fix>
</trkpt>
<trkpt lat="40.0728417" lon="-105.2305748">
  <ele>1591.13</ele>
  <time>2026-08-27T18:28:39Z</time>
  <course>226.76</course>
  <speed>0.0</speed>
  <fix>3d</fix>
</trkpt>
<trkpt lat="40.0728419" lon="-105.2305749">
  <ele>1590.98</ele>
  <time>2026-08-27T18:28:39Z</time>
  <course>11.81</course>
  <speed>0.01414213562373095</speed>
  <fix>3d</fix>
</trkpt>
<trkpt lat="40.0728417" lon="-105.2305748">
  <ele>1591.03</ele>
  <time>2026-08-27T18:28:39Z</time>
  <course>238.9</course>
  <speed>0.0</speed>
  <fix>3d</fix>
</trkpt>
<trkpt lat="40.0728418" lon="-105.2305749">
  <ele>1590.87</ele>
  <time>2026-08-27T18:28:39Z</time>
  <course>11.82</course>
  <speed>0.01414213562373095</speed>
  <fix>3d</fix>
</trkpt>
<trkpt lat="40.0728417" lon="-105.2305748">
  <ele>1590.92</ele>
  <time>2026-08-27T18:28:39Z</time>
  <course>257.5</course>
  <speed>0.0</speed>
  <fix>3d</fix>
</trkpt>
<trkpt lat="40.0728418" lon="-105.2305749">
  <ele>1590.77</ele>
  <time>2026-08-27T18:28:39Z</time>
  <course>11.79</course>
  <speed>0.01414213562373095</speed>
  <fix>3d</fix>
</trkpt>
<trkpt lat="40.0728417" lon="-105.2305748">
  <ele>1590.83</ele>
  <time>2026-08-27T18:28:39Z</time>
  <course>292.67</course>
  <speed>0.0</speed>
  <fix>3d</fix>
</trkpt>
<trkpt lat="40.0728418" lon="-105.2305749">
  <ele>1590.67</ele>
  <time>2026-08-27T18:28:39Z</time>
  <course>11.81</course>
  <speed>0.01414213562373095</speed>
  <fix>3d</fix>
</trkpt>
<trkpt lat="40.0728417" lon="-105.2305748">
  <ele>1590.72</ele>
  <time>2026-08-27T18:28:39Z</time>
  <course>4.45</course>
  <speed>0.0</speed>
  <fix>3d</fix>
</trkpt>
<trkpt lat="40.0728418" lon="-105.2305749">
  <ele>1590.57</ele>
  <time>2026-08-27T18:28:39Z</time>
  <course>11.8</course>
  <speed>0.01414213562373095</speed>
  <fix>3d</fix>
</trkpt>
<trkpt lat="40.0728417" lon="-105.2305748">
  <ele>1590.62</ele>
  <time>2026-08-27T18:28:39Z</time>
  <course>9.04</course>
  <speed>0.0</speed>
  <fix>3d</fix>
</trkpt>
<trkpt lat="40.0728418" lon="-105.2305749">
  <ele>1590.47</ele>
  <time>2026-08-27T18:28:39Z</time>
  <course>11.83</course>
  <speed>0.01414213562373095</speed>
  <fix>3d</fix>
</trkpt>
<trkpt lat="40.0728417" lon="-105.2305748">
  <ele>1590.52</ele>
  <time>2026-08-27T18:28:39Z</time>
  <course>11.4</course>
  <speed>0.0</speed>
  <fix>3d</fix>
</trkpt>
<trkpt lat="40.0728418" lon="-105.2305749">
  <ele>1590.37</ele>
  <time>2026-08-27T18:28:39Z</time>
  <course>11.81</course>
  <speed>0.01414213562373095</speed>
  <fix>3d</fix>
</trkpt>
<trkpt lat="40.0728417" lon="-105.2305748">
  <ele>1590.41</ele>
  <time>2026-08-27T18:28:39Z</time>
  <course>12.97</course>
  <speed>0.0</speed>
  <fix>3d</fix>
</trkpt>
<trkpt lat="40.0728418" lon="-105.2305749">
  <ele>1590.27</ele>
  <time>2026-08-27T18:28:39Z</time>
  <course>11.84</course>
  <speed>0.01414213562373095</speed>
  <fix>3d</fix>
</trkpt>
<trkpt lat="40.0728417" lon="-105.2305748">
  <ele>1590.32</ele>
  <time>2026-08-27T18:28:39Z</time>
  <course>13.74</course>
  <speed>0.0</speed>
  <fix>3d</fix>
</trkpt>
<trkpt lat="40.0728418" lon="-105.2305749">
  <ele>1590.17</ele>
  <time>2026-08-27T18:28:39Z</time>
  <course>11.82</course>
  <speed>0.01414213562373095</speed>
  <fix>3d</fix>
</trkpt>
<trkpt lat="40.0728417" lon="-105.2305748">
  <ele>1590.22</ele>
  <time>2026-08-27T18:28:39Z</time>
  <course>16.66</course>
  <speed>0.0</speed>
  <fix>3d</fix>
</trkpt>
<trkpt lat="40.0728418" lon="-105.2305749">
  <ele>1590.07</ele>
  <time>2026-08-27T18:28:39Z</time>
  <course>11.84</course>
  <speed>0.01414213562373095</speed>
  <fix>3d</fix>
</trkpt>
<trkpt lat="40.0728417" lon="-105.2305748">
  <ele>1590.12</ele>
  <time>2026-08-27T18:28:39Z</time>
  <course>20.37</course>
  <speed>0.0</speed>
  <fix>3d</fix>
</trkpt>
<trkpt lat="40.0728418" lon="-105.2305749">
  <ele>1589.97</ele>
  <time>2026-08-27T18:28:39Z</time>
  <course>11.83</course>
  <speed>0.01414213562373095</speed>
  <fix>3d</fix>
</trkpt>
<trkpt lat="40.0728417" lon="-105.2305748">
  <ele>1590.02</ele>
  <time>2026-08-27T18:28:39Z</time>
  <course>25.9</course>
  <speed>0.0</speed>
  <fix>3d</fix>
</trkpt>
<trkpt lat="40.0728418" lon="-105.2305749">
  <ele>1589.87</ele>
  <time>2026-08-27T18:28:39Z</time>
  <course>11.85</course>
  <speed>0.01414213562373095</speed>
  <fix>3d</fix>
</trkpt>
<trkpt lat="40.0728417" lon="-105.2305748">
  <ele>1589.92</ele>
  <time>2026-08-27T18:28:39Z</time>
  <course>30.64</course>
  <speed>0.0</speed>
  <fix>3d</fix>
</trkpt>
<trkpt lat="40.0728418" lon="-105.2305749">
  <ele>1589.77</ele>
  <time>2026-08-27T18:28:39Z</time>
  <course>11.85</course>
  <speed>0.01414213562373095</speed>
  <fix>3d</fix>
</trkpt>
<trkpt lat="40.0728417" lon="-105.2305748">
  <ele>1589.83</ele>
  <time>2026-08-27T18:28:39Z</time>
  <course>30.48</course>
  <speed>0.0</speed>
  <fix>3d</fix>
</trkpt>
<trkpt lat="40.0728418" lon="-105.2305749">
  <ele>1589.67</ele>
  <time>2026-08-27T18:28:39Z</time>
  <course>11.85</course>
  <speed>0.01414213562373095</speed>
  <fix>3d</fix>
</trkpt>
<trkpt lat="40.0728417" lon="-105.2305748">
  <ele>1589.73</ele>
  <time>2026-08-27T18:28:39Z</time>
  <course>31.06</course>
  <speed>0.0</speed>
  <fix>3d</fix>
</trkpt>
<trkpt lat="40.0728418" lon="-105.2305749">
  <ele>1589.57</ele>
  <time>2026-08-27T18:28:39Z</time>
  <course>11.86</course>
  <speed>0.01414213562373095</speed>
  <fix>3d</fix>
</trkpt>
<trkpt lat="40.0728417" lon="-105.2305748">
  <ele>1589.62</ele>
  <time>2026-08-27T18:28:39Z</time>
  <course>31.38</course>
  <speed>0.0</speed>
  <fix>3d</fix>
</trkpt>
<trkpt lat="40.0728418" lon="-105.2305749">
  <ele>1589.47</ele>
  <time>2026-08-27T18:28:39Z</time>
  <course>11.86</course>
  <speed>0.01414213562373095</speed>
  <fix>3d</fix>
</trkpt>
<trkpt lat="40.0728417" lon="-105.2305748">
  <ele>1589.52</ele>
  <time>2026-08-27T18:28:39Z</time>
  <course>34.81</course>
  <speed>0.0</speed>
  <fix>3d</fix>
</trkpt>
<trkpt lat="40.0728418" lon="-105.2305749">
  <ele>1589.37</ele>
  <time>2026-08-27T18:28:39Z</time>
  <course>11.85</course>
  <speed>0.01414213562373095</speed>
  <fix>3d</fix>
</trkpt>
<trkpt lat="40.0728417" lon="-105.2305748">
  <ele>1589.41</ele>
  <time>2026-08-27T18:28:39Z</time>
  <course>39.83</course>
  <speed>0.0</speed>
  <fix>3d</fix>
</trkpt>
<trkpt lat="40.0728418" lon="-105.2305749">
  <ele>1589.27</ele>
  <time>2026-08-27T18:28:39Z</time>
  <course>11.86</course>
  <speed>0.01414213562373095</speed>
  <fix>3d</fix>
</trkpt>
<trkpt lat="40.0728417" lon="-105.2305748">
  <ele>1589.32</ele>
  <time>2026-08-27T18:28:39Z</time>
  <course>43.01</course>
  <speed>0.0</speed>
  <fix>3d</fix>
</trkpt>
<trkpt lat="40.0728418" lon="-105.2305749">
  <ele>1589.17</ele>
  <time>2026-08-27T18:28:39Z</time>
  <course>11.85</course>
  <speed>0.01414213562373095</speed>
  <fix>3d</fix>
</trkpt>
<trkpt lat="40.0728417" lon="-105.2305748">
  <ele>1589.22</ele>
  <time>2026-08-27T18:28:39Z</time>
  <course>45.95</course>
  <speed>0.0</speed>
  <fix>3d</fix>
</trkpt>
<trkpt lat="40.0728418" lon="-105.2305749">
  <ele>1589.07</ele>
  <time>2026-08-27T18:28:39Z</time>
  <course>11.87</course>
  <speed>0.01414213562373095</speed>
  <fix>3d</fix>
</trkpt>
<trkpt lat="40.0728417" lon="-105.2305748">
  <ele>1589.12</ele>
  <time>2026-08-27T18:28:39Z</time>
  <course>46.27</course>
  <speed>0.0</speed>
  <fix>3d</fix>
</trkpt>
<trkpt lat="40.0728418" lon="-105.2305749">
  <ele>1588.97</ele>
  <time>2026-08-27T18:28:39Z</time>
  <course>11.86</course>
  <speed>0.01414213562373095</speed>
  <fix>3d</fix>
</trkpt>
<trkpt lat="40.0728417" lon="-105.2305748">
  <ele>1589.02</ele>
  <time>2026-08-27T18:28:39Z</time>
  <course>45.97</course>
  <speed>0.0</speed>
  <fix>3d</fix>
</trkpt>
<trkpt lat="40.0728418" lon="-105.2305749">
  <ele>1588.87</ele>
  <time>2026-08-27T18:28:39Z</time>
  <course>11.88</course>
  <speed>0.01414213562373095</speed>
  <fix>3d</fix>
</trkpt>
<trkpt lat="40.0728417" lon="-105.2305748">
  <ele>1588.91</ele>
  <time>2026-08-27T18:28:39Z</time>
  <course>45.27</course>
  <speed>0.0</speed>
  <fix>3d</fix>
</trkpt>
<trkpt lat="40.0728418" lon="-105.2305749">
  <ele>1588.77</ele>
  <time>2026-08-27T18:28:39Z</time>
  <course>11.86</course>
  <speed>0.01414213562373095</speed>
  <fix>3d</fix>
</trkpt>
<trkpt lat="40.0728417" lon="-105.2305748">
  <ele>1588.82</ele>
  <time>2026-08-27T18:28:39Z</time>
  <course>46.11</course>
  <speed>0.0</speed>
  <fix>3d</fix>
</trkpt>
<trkpt lat="40.0728418" lon="-105.2305749">
  <ele>1588.67</ele>
  <time>2026-08-27T18:28:39Z</time>
  <course>11.86</course>
  <speed>0.01414213562373095</speed>
  <fix>3d</fix>
</trkpt>
<trkpt lat="40.0728417" lon="-105.2305748">
  <ele>1588.72</ele>
  <time>2026-08-27T18:28:39Z</time>
  <course>47.15</course>
  <speed>0.0</speed>
  <fix>3d</fix>
</trkpt>
<trkpt lat="40.0728418" lon="-105.2305749">
  <ele>1588.56</ele>
  <time>2026-08-27T18:28:39Z</time>
  <course>11.88</course>
  <speed>0.01414213562373095</speed>
  <fix>3d</fix>
</trkpt>
<trkpt lat="40.0728417" lon="-105.2305748">
  <ele>1588.62</ele>
  <time>2026-08-27T18:28:39Z</time>
  <course>43.46</course>
  <speed>0.0</speed>
  <fix>3d</fix>
</trkpt>
<trkpt lat="40.0728418" lon="-105.2305749">
  <ele>1588.47</ele>
  <time>2026-08-27T18:28:39Z</time>
  <course>11.86</course>
  <speed>0.01414213562373095</speed>
  <fix>3d</fix>
</trkpt>
<trkpt lat="40.0728417" lon="-105.2305748">
  <ele>1588.52</ele>
  <time>2026-08-27T18:28:39Z</time>
  <course>42.62</course>
  <speed>0.0</speed>
  <fix>3d</fix>
</trkpt>
<trkpt lat="40.0728418" lon="-105.2305749">
  <ele>1588.37</ele>
  <time>2026-08-27T18:28:39Z</time>
  <course>11.87</course>
  <speed>0.01414213562373095</speed>
  <fix>3d</fix>
</trkpt>
<trkpt lat="40.0728417" lon="-105.2305748">
  <ele>1588.42</ele>
  <time>2026-08-27T18:28:39Z</time>
  <course>41.58</course>
  <speed>0.0</speed>
  <fix>3d</fix>
</trkpt>
<trkpt lat="40.0728418" lon="-105.2305749">
  <ele>1588.27</ele>
  <time>2026-08-27T18:28:39Z</time>
  <course>11.88</course>
  <speed>0.01414213562373095</speed>
  <fix>3d</fix>
</trkpt>
<trkpt lat="40.0728417" lon="-105.2305748">
  <ele>1588.33</ele>
  <time>2026-08-27T18:28:39Z</time>
  <course>39.54</course>
  <speed>0.0</speed>
  <fix>3d</fix>
</trkpt>
<trkpt lat="40.0728418" lon="-105.2305749">
  <ele>1588.17</ele>
  <time>2026-08-27T18:28:39Z</time>
  <course>11.88</course>
  <speed>0.01414213562373095</speed>
  <fix>3d</fix>
</trkpt>
<trkpt lat="40.0728417" lon="-105.2305748">
  <ele>1588.23</ele>
  <time>2026-08-27T18:28:39Z</time>
  <course>42.3</course>
  <speed>0.0</speed>
  <fix>3d</fix>
</trkpt>
<trkpt lat="40.0728418" lon="-105.2305749">
  <ele>1588.07</ele>
  <time>2026-08-27T18:28:39Z</time>
  <course>11.89</course>
  <speed>0.01414213562373095</speed>
  <fix>3d</fix>
</trkpt>
<trkpt lat="40.0728417" lon="-105.2305748">
  <ele>1588.13</ele>
  <time>2026-08-27T18:28:39Z</time>
  <course>44.8</course>
  <speed>0.0</speed>
  <fix>3d</fix>
</trkpt>
<trkpt lat="40.0728418" lon="-105.2305749">
  <ele>1587.97</ele>
  <time>2026-08-27T18:28:39Z</time>
  <course>11.9</course>
  <speed>0.01414213562373095</speed>
  <fix>3d</fix>
</trkpt>
<trkpt lat="40.0728417" lon="-105.2305748">
  <ele>1588.03</ele>
  <time>2026-08-27T18:28:39Z</time>
  <course>47.72</course>
  <speed>0.0</speed>
  <fix>3d</fix>
</trkpt>
<trkpt lat="40.0728418" lon="-105.2305749">
  <ele>1587.87</ele>
  <time>2026-08-27T18:28:39Z</time>
  <course>11.89</course>
  <speed>0.01414213562373095</speed>
  <fix>3d</fix>
</trkpt>
<trkpt lat="40.0728417" lon="-105.2305748">
  <ele>1587.92</ele>
  <time>2026-08-27T18:28:39Z</time>
  <course>53.74</course>
  <speed>0.0</speed>
  <fix>3d</fix>
</trkpt>
<trkpt lat="40.0728418" lon="-105.2305749">
  <ele>1587.77</ele>
  <time>2026-08-27T18:28:39Z</time>
  <course>11.89</course>
  <speed>0.01414213562373095</speed>
  <fix>3d</fix>
</trkpt>
<trkpt lat="40.0728418" lon="-105.2305748">
  <ele>1587.83</ele>
  <time>2026-08-27T18:28:39Z</time>
  <course>57.04</course>
  <speed>0.0</speed>
  <fix>3d</fix>
</trkpt>
<trkpt lat="40.0728418" lon="-105.2305749">
  <ele>1587.67</ele>
  <time>2026-08-27T18:28:39Z</time>
  <course>11.91</course>
  <speed>0.01414213562373095</speed>
  <fix>3d</fix>
</trkpt>
<trkpt lat="40.0728418" lon="-105.2305748">
  <ele>1587.73</ele>
  <time>2026-08-27T18:28:39Z</time>
  <course>57.91</course>
  <speed>0.0</speed>
  <fix>3d</fix>
</trkpt>
<trkpt lat="40.0728418" lon="-105.2305749">
  <ele>1587.57</ele>
  <time>2026-08-27T18:28:39Z</time>
  <course>11.89</course>
  <speed>0.01414213562373095</speed>
  <fix>3d</fix>
</trkpt>
<trkpt lat="40.0728418" lon="-105.2305748">
  <ele>1587.63</ele>
  <time>2026-08-27T18:28:39Z</time>
  <course>60.66</course>
  <speed>0.0</speed>
  <fix>3d</fix>
</trkpt>
<trkpt lat="40.0728418" lon="-105.2305749">
  <ele>1587.47</ele>
  <time>2026-08-27T18:28:39Z</time>
  <course>11.91</course>
  <speed>0.01414213562373095</speed>
  <fix>3d</fix>
</trkpt>
<trkpt lat="40.0728418" lon="-105.2305748">
  <ele>1587.53</ele>
  <time>2026-08-27T18:28:39Z</time>
  <course>64.73</course>
  <speed>0.0</speed>
  <fix>3d</fix>
</trkpt>
<trkpt lat="40.0728418" lon="-105.2305749">
  <ele>1587.37</ele>
  <time>2026-08-27T18:28:39Z</time>
  <course>11.9</course>
  <speed>0.01414213562373095</speed>
  <fix>3d</fix>
</trkpt>
<trkpt lat="40.0728418" lon="-105.2305748">
  <ele>1587.42</ele>
  <time>2026-08-27T18:28:39Z</time>
  <course>74.3</course>
  <speed>0.0</speed>
  <fix>3d</fix>
</trkpt>
<trkpt lat="40.0728418" lon="-105.2305749">
  <ele>1587.27</ele>
  <time>2026-08-27T18:28:39Z</time>
  <course>11.9</course>
  <speed>0.01414213562373095</speed>
  <fix>3d</fix>
</trkpt>
<trkpt lat="40.0728418" lon="-105.2305748">
  <ele>1587.33</ele>
  <time>2026-08-27T18:28:39Z</time>
  <course>89.35</course>
  <speed>0.0</speed>
  <fix>3d</fix>
</trkpt>
<trkpt lat="40.0728418" lon="-105.2305749">
  <ele>1587.17</ele>
  <time>2026-08-27T18:28:39Z</time>
  <course>11.89</course>
  <speed>0.01414213562373095</speed>
  <fix>3d</fix>
</trkpt>
<trkpt lat="40.0728418" lon="-105.2305748">
  <ele>1587.23</ele>
  <time>2026-08-27T18:28:39Z</time>
  <course>105.55</course>
  <speed>0.0</speed>
  <fix>3d</fix>
</trkpt>
<trkpt lat="40.0728418" lon="-105.2305749">
  <ele>1587.07</ele>
  <time>2026-08-27T18:28:39Z</time>
  <course>11.91</course>
  <speed>0.01414213562373095</speed>
  <fix>3d</fix>
</trkpt>
<trkpt lat="40.0728418" lon="-105.2305748">
  <ele>1587.13</ele>
  <time>2026-08-27T18:28:39Z</time>
  <course>118.48</course>
  <speed>0.0</speed>
  <fix>3d</fix>
</trkpt>
<trkpt lat="40.0728418" lon="-105.2305749">
  <ele>1586.97</ele>
  <time>2026-08-27T18:28:39Z</time>
  <course>11.89</course>
  <speed>0.01414213562373095</speed>
  <fix>3d</fix>
</trkpt>
<trkpt lat="40.0728418" lon="-105.2305748">
  <ele>1587.03</ele>
  <time>2026-08-27T18:28:39Z</time>
  <course>129.35</course>
  <speed>0.0</speed>
  <fix>3d</fix>
</trkpt>
<trkpt lat="40.0728418" lon="-105.2305749">
  <ele>1586.87</ele>
  <time>2026-08-27T18:28:39Z</time>
  <course>11.89</course>
  <speed>0.01414213562373095</speed>
  <fix>3d</fix>
</trkpt>
<trkpt lat="40.0728418" lon="-105.2305747">
  <ele>1586.92</ele>
  <time>2026-08-27T18:28:39Z</time>
  <course>138.44</course>
  <speed>0.0</speed>
  <fix>3d</fix>
</trkpt>
<trkpt lat="40.0728418" lon="-105.2305749">
  <ele>1586.77</ele>
  <time>2026-08-27T18:28:39Z</time>
  <course>11.91</course>
  <speed>0.01414213562373095</speed>
  <fix>3d</fix>
</trkpt>
<trkpt lat="40.0728418" lon="-105.2305746">
  <ele>1586.83</ele>
  <time>2026-08-27T18:28:39Z</time>
  <course>146.99</course>
  <speed>0.0</speed>
  <fix>3d</fix>
</trkpt>
<trkpt lat="40.0728418" lon="-105.2305749">
  <ele>1586.67</ele>
  <time>2026-08-27T18:28:39Z</time>
  <course>11.91</course>
  <speed>0.01414213562373095</speed>
  <fix>3d</fix>
</trkpt>
<trkpt lat="40.0728418" lon="-105.2305746">
  <ele>1586.73</ele>
  <time>2026-08-27T18:28:39Z</time>
  <course>152.81</course>
  <speed>0.0</speed>
  <fix>3d</fix>
</trkpt>
<trkpt lat="40.0728418" lon="-105.2305749">
  <ele>1586.57</ele>
  <time>2026-08-27T18:28:39Z</time>
  <course>11.93</course>
  <speed>0.01414213562373095</speed>
  <fix>3d</fix>
</trkpt>
<trkpt lat="40.0728418" lon="-105.2305746">
  <ele>1586.63</ele>
  <time>2026-08-27T18:28:39Z</time>
  <course>157.93</course>
  <speed>0.0</speed>
  <fix>3d</fix>
</trkpt>
<trkpt lat="40.0728418" lon="-105.2305749">
  <ele>1586.47</ele>
  <time>2026-08-27T18:28:39Z</time>
  <course>11.91</course>
  <speed>0.01414213562373095</speed>
  <fix>3d</fix>
</trkpt>
<trkpt lat="40.0728418" lon="-105.2305746">
  <ele>1586.53</ele>
  <time>2026-08-27T18:28:39Z</time>
  <course>165.02</course>
  <speed>0.0</speed>
  <fix>3d</fix>
</trkpt>
<trkpt lat="40.0728418" lon="-105.2305749">
  <ele>1586.38</ele>
  <time>2026-08-27T18:28:39Z</time>
  <course>11.93</course>
  <speed>0.01414213562373095</speed>
  <fix>3d</fix>
</trkpt>
<trkpt lat="40.0728418" lon="-105.2305746">
  <ele>1586.42</ele>
  <time>2026-08-27T18:28:39Z</time>
  <course>174.64</course>
  <speed>0.0</speed>
  <fix>3d</fix>
</trkpt>
<trkpt lat="40.0728418" lon="-105.2305749">
  <ele>1586.28</ele>
  <time>2026-08-27T18:28:39Z</time>
  <course>11.94</course>
  <speed>0.01414213562373095</speed>
  <fix>3d</fix>
</trkpt>
<trkpt lat="40.0728418" lon="-105.2305746">
  <ele>1586.33</ele>
  <time>2026-08-27T18:28:39Z</time>
  <course>185.16</course>
  <speed>0.0</speed>
  <fix>3d</fix>
</trkpt>
<trkpt lat="40.0728418" lon="-105.2305749">
  <ele>1586.18</ele>
  <time>2026-08-27T18:28:39Z</time>
  <course>11.92</course>
  <speed>0.01414213562373095</speed>
  <fix>3d</fix>
</trkpt>
<trkpt lat="40.0728418" lon="-105.2305746">
  <ele>1586.23</ele>
  <time>2026-08-27T18:28:39Z</time>
  <course>193.24</course>
  <speed>0.0</speed>
  <fix>3d</fix>
</trkpt>
<trkpt lat="40.0728418" lon="-105.2305749">
  <ele>1586.14</ele>
  <time>2026-08-27T18:28:39Z</time>
  <course>11.93</course>
  <speed>0.03605551275463989</speed>
  <fix>3d</fix>
</trkpt>
<trkpt lat="40.0728418" lon="-105.2305746">
  <ele>1586.13</ele>
  <time>2026-08-27T18:28:39Z</time>
  <course>242.95</course>
  <speed>0.0</speed>
  <fix>3d</fix>
</trkpt>
<trkpt lat="40.0728418" lon="-105.2305749">
  <ele>1586.16</ele>
  <time>2026-08-27T18:28:39Z</time>
  <course>11.97</course>
  <speed>0.022360679774997897</speed>
  <fix>3d</fix>
</trkpt>
<trkpt lat="40.0728418" lon="-105.2305746">
  <ele>1586.08</ele>
  <time>2026-08-27T18:28:39Z</time>
  <course>280.6</course>
  <speed>0.01</speed>
  <fix>3d</fix>
</trkpt>
<trkpt lat="40.0728419" lon="-105.2305749">
  <ele>1586.15</ele>
  <time>2026-08-27T18:28:39Z</time>
  <course>12.01</course>
  <speed>0.01414213562373095</speed>
  <fix>3d</fix>
</trkpt>
<trkpt lat="40.0728418" lon="-105.2305746">
  <ele>1586.09</ele>
  <time>2026-08-27T18:28:39Z</time>
  <course>319.42</course>
  <speed>0.0</speed>
  <fix>3d</fix>
</trkpt>
<trkpt lat="40.0728419" lon="-105.2305749">
  <ele>1586.15</ele>
  <time>2026-08-27T18:28:39Z</time>
  <course>12.04</course>
  <speed>0.022360679774997897</speed>
  <fix>3d</fix>
</trkpt>
<trkpt lat="40.0728418" lon="-105.2305746">
  <ele>1586.1</ele>
  <time>2026-08-27T18:28:39Z</time>
  <course>89.6</course>
  <speed>0.0</speed>
  <fix>3d</fix>
</trkpt>
<trkpt lat="40.0728419" lon="-105.2305749">
  <ele>1586.15</ele>
  <time>2026-08-27T18:28:39Z</time>
  <course>12.08</course>
  <speed>0.022360679774997897</speed>
  <fix>3d</fix>
</trkpt>
<trkpt lat="40.0728418" lon="-105.2305746">
  <ele>1586.1</ele>
  <time>2026-08-27T18:28:39Z</time>
  <course>145.4</course>
  <speed>0.0</speed>
  <fix>3d</fix>
</trkpt>
<trkpt lat="40.0728419" lon="-105.2305749">
  <ele>1586.15</ele>
  <time>2026-08-27T18:28:39Z</time>
  <course>12.1</course>
  <speed>0.022360679774997897</speed>
  <fix>3d</fix>
</trkpt>
<trkpt lat="40.0728418" lon="-105.2305746">
  <ele>1586.1</ele>
  <time>2026-08-27T18:28:39Z</time>
  <course>337.0</course>
  <speed>0.0</speed>
  <fix>3d</fix>
</trkpt>
<trkpt lat="40.0728419" lon="-105.2305749">
  <ele>1586.15</ele>
  <time>2026-08-27T18:28:39Z</time>
  <course>12.13</course>
  <speed>0.022360679774997897</speed>
  <fix>3d</fix>
</trkpt>
<trkpt lat="40.0728418" lon="-105.2305746">
  <ele>1586.1</ele>
  <time>2026-08-27T18:28:39Z</time>
  <course>7.32</course>
  <speed>0.0</speed>
  <fix>3d</fix>
</trkpt>
<trkpt lat="40.0728419" lon="-105.2305749">
  <ele>1586.15</ele>
  <time>2026-08-27T18:28:39Z</time>
  <course>12.15</course>
  <speed>0.022360679774997897</speed>
  <fix>3d</fix>
</trkpt>
<trkpt lat="40.0728418" lon="-105.2305746">
  <ele>1586.1</ele>
  <time>2026-08-27T18:28:39Z</time>
  <course>65.85</course>
  <speed>0.0</speed>
  <fix>3d</fix>
</trkpt>
<trkpt lat="40.0728419" lon="-105.2305748">
  <ele>1586.15</ele>
  <time>2026-08-27T18:28:39Z</time>
  <course>12.18</course>
  <speed>0.022360679774997897</speed>
  <fix>3d</fix>
</trkpt>
<trkpt lat="40.0728418" lon="-105.2305746">
  <ele>1586.1</ele>
  <time>2026-08-27T18:28:39Z</time>
  <course>65.5</course>
  <speed>0.0</speed>
  <fix>3d</fix>
</trkpt>
<trkpt lat="40.0728419" lon="-105.2305748">
  <ele>1586.15</ele>
  <time>2026-08-27T18:28:39Z</time>
  <course>12.2</course>
  <speed>0.022360679774997897</speed>
  <fix>3d</fix>
</trkpt>
<trkpt lat="40.0728418" lon="-105.2305746">
  <ele>1586.1</ele>
  <time>2026-08-27T18:28:39Z</time>
  <course>14.81</course>
  <speed>0.0</speed>
  <fix>3d</fix>
</trkpt>
<trkpt lat="40.0728419" lon="-105.2305748">
  <ele>1586.15</ele>
  <time>2026-08-27T18:28:39Z</time>
  <course>12.21</course>
  <speed>0.01</speed>
  <fix>3d</fix>
</trkpt>
<trkpt lat="40.0728418" lon="-105.2305746">
  <ele>1586.1</ele>
  <time>2026-08-27T18:28:39Z</time>
  <course>86.78</course>
  <speed>0.0</speed>
  <fix>3d</fix>
</trkpt>
<trkpt lat="40.0728419" lon="-105.2305748">
  <ele>1586.15</ele>
  <time>2026-08-27T18:28:39Z</time>
  <course>12.2</course>
  <speed>0.01</speed>
  <fix>3d</fix>
</trkpt>
<trkpt lat="40.0728418" lon="-105.2305746">
  <ele>1586.1</ele>
  <time>2026-08-27T18:28:39Z</time>
  <course>105.09</course>
  <speed>0.0</speed>
  <fix>3d</fix>
</trkpt>
<trkpt lat="40.0728419" lon="-105.2305748">
  <ele>1586.15</ele>
  <time>2026-08-27T18:28:39Z</time>
  <course>12.17</course>
  <speed>0.01414213562373095</speed>
  <fix>3d</fix>
</trkpt>
<trkpt lat="40.0728418" lon="-105.2305746">
  <ele>1586.1</ele>
  <time>2026-08-27T18:28:39Z</time>
  <course>108.96</course>
  <speed>0.0</speed>
  <fix>3d</fix>
</trkpt>
<trkpt lat="40.0728419" lon="-105.2305748">
  <ele>1586.15</ele>
  <time>2026-08-27T18:28:39Z</time>
  <course>12.16</course>
  <speed>0.01414213562373095</speed>
  <fix>3d</fix>
</trkpt>
<trkpt lat="40.0728418" lon="-105.2305746">
  <ele>1586.1</ele>
  <time>2026-08-27T18:28:39Z</time>
  <course>136.46</course>
  <speed>0.0</speed>
  <fix>3d</fix>
</trkpt>
<trkpt lat="40.0728419" lon="-105.2305748">
  <ele>1586.15</ele>
  <time>2026-08-27T18:28:39Z</time>
  <course>12.16</course>
  <speed>0.01414213562373095</speed>
  <fix>3d</fix>
</trkpt>
<trkpt lat="40.0728418" lon="-105.2305746">
  <ele>1586.1</ele>
  <time>2026-08-27T18:28:39Z</time>
  <course>260.25</course>
  <speed>0.0</speed>
  <fix>3d</fix>
</trkpt>
<trkpt lat="40.0728419" lon="-105.2305748">
  <ele>1586.14</ele>
  <time>2026-08-27T18:28:39Z</time>
  <course>12.15</course>
  <speed>0.01414213562373095</speed>
  <fix>3d</fix>
</trkpt>
<trkpt lat="40.0728418" lon="-105.2305746">
  <ele>1586.1</ele>
  <time>2026-08-27T18:28:39Z</time>
  <course>247.5</course>
  <speed>0.0</speed>
  <fix>3d</fix>
</trkpt>
<trkpt lat="40.0728419" lon="-105.2305748">
  <ele>1586.14</ele>
  <time>2026-08-27T18:28:39Z</time>
  <course>12.15</course>
  <speed>0.01414213562373095</speed>
  <fix>3d</fix>
</trkpt>
<trkpt lat="40.0728418" lon="-105.2305746">
  <ele>1586.1</ele>
  <time>2026-08-27T18:28:39Z</time>
  <course>234.47</course>
  <speed>0.0</speed>
  <fix>3d</fix>
</trkpt>
<trkpt lat="40.0728419" lon="-105.2305748">
  <ele>1586.14</ele>
  <time>2026-08-27T18:28:39Z</time>
  <course>12.15</course>
  <speed>0.022360679774997897</speed>
  <fix>3d</fix>
</trkpt>
<trkpt lat="40.0728418" lon="-105.2305746">
  <ele>1586.1</ele>
  <time>2026-08-27T18:28:39Z</time>
  <course>238.43</course>
  <speed>0.0</speed>
  <fix>3d</fix>
</trkpt>
<trkpt lat="40.0728419" lon="-105.2305748">
  <ele>1586.14</ele>
  <time>2026-08-27T18:28:39Z</time>
  <course>12.14</course>
  <speed>0.022360679774997897</speed>
  <fix>3d</fix>
</trkpt>
<trkpt lat="40.0728418" lon="-105.2305746">
  <ele>1586.1</ele>
  <time>2026-08-27T18:28:39Z</time>
  <course>247.79</course>
  <speed>0.0</speed>
  <fix>3d</fix>
</trkpt>
<trkpt lat="40.0728419" lon="-105.2305748">
  <ele>1586.14</ele>
  <time>2026-08-27T18:28:39Z</time>
  <course>12.14</course>
  <speed>0.022360679774997897</speed>
  <fix>3d</fix>
</trkpt>
<trkpt lat="40.0728418" lon="-105.2305746">
  <ele>1586.1</ele>
  <time>2026-08-27T18:28:39Z</time>
  <course>194.17</course>
  <speed>0.0</speed>
  <fix>3d</fix>
</trkpt>
<trkpt lat="40.0728419" lon="-105.2305748">
  <ele>1586.14</ele>
  <time>2026-08-27T18:28:39Z</time>
  <course>12.14</course>
  <speed>0.022360679774997897</speed>
  <fix>3d</fix>
</trkpt>
<trkpt lat="40.0728418" lon="-105.2305746">
  <ele>1586.1</ele>
  <time>2026-08-27T18:28:39Z</time>
  <course>209.52</course>
  <speed>0.0</speed>
  <fix>3d</fix>
</trkpt>
<trkpt lat="40.0728419" lon="-105.2305748">
  <ele>1586.14</ele>
  <time>2026-08-27T18:28:39Z</time>
  <course>12.14</course>
  <speed>0.022360679774997897</speed>
  <fix>3d</fix>
</trkpt>
<trkpt lat="40.0728418" lon="-105.2305746">
  <ele>1586.1</ele>
  <time>2026-08-27T18:28:39Z</time>
  <course>338.15</course>
  <speed>0.0</speed>
  <fix>3d</fix>
</trkpt>
<trkpt lat="40.0728419" lon="-105.2305748">
  <ele>1586.14</ele>
  <time>2026-08-27T18:28:39Z</time>
  <course>12.14</course>
  <speed>0.022360679774997897</speed>
  <fix>3d</fix>
</trkpt>
<trkpt lat="40.0728418" lon="-105.2305746">
  <ele>1586.1</ele>
  <time>2026-08-27T18:28:39Z</time>
  <course>305.91</course>
  <speed>0.0</speed>
  <fix>3d</fix>
</trkpt>
<trkpt lat="40.0728419" lon="-105.2305748">
  <ele>1586.14</ele>
  <time>2026-08-27T18:28:39Z</time>
  <course>12.13</course>
  <speed>0.022360679774997897</speed>
  <fix>3d</fix>
</trkpt>
<trkpt lat="40.0728418" lon="-105.2305746">
  <ele>1586.1</ele>
  <time>2026-08-27T18:28:39Z</time>
  <course>253.78</course>
  <speed>0.0</speed>
  <fix>3d</fix>
</trkpt>
<trkpt lat="40.0728419" lon="-105.2305748">
  <ele>1586.14</ele>
  <time>2026-08-27T18:28:39Z</time>
  <course>12.13</course>
  <speed>0.022360679774997897</speed>
  <fix>3d</fix>
</trkpt>
<trkpt lat="40.0728418" lon="-105.2305746">
  <ele>1586.1</ele>
  <time>2026-08-27T18:28:39Z</time>
  <course>258.27</course>
  <speed>0.0</speed>
  <fix>3d</fix>
</trkpt>
<trkpt lat="40.0728419" lon="-105.2305748">
  <ele>1586.14</ele>
  <time>2026-08-27T18:28:39Z</time>
  <course>12.13</course>
  <speed>0.022360679774997897</speed>
  <fix>3d</fix>
</trkpt>
<trkpt lat="40.0728418" lon="-105.2305746">
  <ele>1586.1</ele>
  <time>2026-08-27T18:28:39Z</time>
  <course>262.71</course>
  <speed>0.0</speed>
  <fix>3d</fix>
</trkpt>
<trkpt lat="40.0728419" lon="-105.2305748">
  <ele>1586.14</ele>
  <time>2026-08-27T18:28:39Z</time>
  <course>12.13</course>
  <speed>0.022360679774997897</speed>
  <fix>3d</fix>
</trkpt>
<trkpt lat="40.0728418" lon="-105.2305746">
  <ele>1586.1</ele>
  <time>2026-08-27T18:28:39Z</time>
  <course>255.96</course>
  <speed>0.0</speed>
  <fix>3d</fix>
</trkpt>
<trkpt lat="40.0728419" lon="-105.2305748">
  <ele>1586.14</ele>
  <time>2026-08-27T18:28:39Z</time>
  <course>12.13</course>
  <speed>0.01414213562373095</speed>
  <fix>3d</fix>
</trkpt>
<trkpt lat="40.0728418" lon="-105.2305746">
  <ele>1586.1</ele>
  <time>2026-08-27T18:28:39Z</time>
  <course>250.53</course>
  <speed>0.0</speed>
  <fix>3d</fix>
</trkpt>
<trkpt lat="40.0728419" lon="-105.2305748">
  <ele>1586.14</ele>
  <time>2026-08-27T18:28:39Z</time>
  <course>12.12</course>
  <speed>0.01414213562373095</speed>
  <fix>3d</fix>
</trkpt>
<trkpt lat="40.0728418" lon="-105.2305746">
  <ele>1586.1</ele>
  <time>2026-08-27T18:28:39Z</time>
  <course>246.16</course>
  <speed>0.0</speed>
  <fix>3d</fix>
</trkpt>
<trkpt lat="40.0728419" lon="-105.2305748">
  <ele>1586.15</ele>
  <time>2026-08-27T18:28:39Z</time>
  <course>12.12</course>
  <speed>0.01414213562373095</speed>
  <fix>3d</fix>
</trkpt>
<trkpt lat="40.0728418" lon="-105.2305746">
  <ele>1586.1</ele>
  <time>2026-08-27T18:28:39Z</time>
  <course>240.9</course>
  <speed>0.0</speed>
  <fix>3d</fix>
</trkpt>
<trkpt lat="40.0728419" lon="-105.2305748">
  <ele>1586.15</ele>
  <time>2026-08-27T18:28:39Z</time>
  <course>12.12</course>
  <speed>0.01414213562373095</speed>
  <fix>3d</fix>
</trkpt>
<trkpt lat="40.0728418" lon="-105.2305746">
  <ele>1586.1</ele>
  <time>2026-08-27T18:28:39Z</time>
  <course>235.11</course>
  <speed>0.0</speed>
  <fix>3d</fix>
</trkpt>
<trkpt lat="40.0728419" lon="-105.2305748">
  <ele>1586.15</ele>
  <time>2026-08-27T18:28:39Z</time>
  <course>12.12</course>
  <speed>0.022360679774997897</speed>
  <fix>3d</fix>
</trkpt>
<trkpt lat="40.0728418" lon="-105.2305746">
  <ele>1586.1</ele>
  <time>2026-08-27T18:28:39Z</time>
  <course>229.2</course>
  <speed>0.0</speed>
  <fix>3d</fix>
</trkpt>
<trkpt lat="40.0728419" lon="-105.2305748">
  <ele>1586.16</ele>
  <time>2026-08-27T18:28:39Z</time>
  <course>12.12</course>
  <speed>0.022360679774997897</speed>
  <fix>3d</fix>
</trkpt>
<trkpt lat="40.0728418" lon="-105.2305746">
  <ele>1586.1</ele>
  <time>2026-08-27T18:28:39Z</time>
  <course>223.24</course>
  <speed>0.0</speed>
  <fix>3d</fix>
</trkpt>
<trkpt lat="40.0728419" lon="-105.2305748">
  <ele>1586.16</ele>
  <time>2026-08-27T18:28:39Z</time>
  <course>12.12</course>
  <speed>0.022360679774997897</speed>
  <fix>3d</fix>
</trkpt>
<trkpt lat="40.0728418" lon="-105.2305746">
  <ele>1586.1</ele>
  <time>2026-08-27T18:28:39Z</time>
  <course>217.36</course>
  <speed>0.0</speed>
  <fix>3d</fix>
</trkpt>
<trkpt lat="40.0728419" lon="-105.2305748">
  <ele>1586.16</ele>
  <time>2026-08-27T18:28:39Z</time>
  <course>12.12</course>
  <speed>0.01414213562373095</speed>
  <fix>3d</fix>
</trkpt>
<trkpt lat="40.0728418" lon="-105.2305746">
  <ele>1586.1</ele>
  <time>2026-08-27T18:28:39Z</time>
  <course>211.72</course>
  <speed>0.0</speed>
  <fix>3d</fix>
</trkpt>
<trkpt lat="40.0728419" lon="-105.2305748">
  <ele>1586.16</ele>
  <time>2026-08-27T18:28:39Z</time>
  <course>12.11</course>
  <speed>0.01414213562373095</speed>
  <fix>3d</fix>
</trkpt>
<trkpt lat="40.0728418" lon="-105.2305746">
  <ele>1586.1</ele>
  <time>2026-08-27T18:28:39Z</time>
  <course>206.42</course>
  <speed>0.0</speed>
  <fix>3d</fix>
</trkpt>
<trkpt lat="40.0728419" lon="-105.2305748">
  <ele>1586.16</ele>
  <time>2026-08-27T18:28:39Z</time>
  <course>12.11</course>
  <speed>0.01414213562373095</speed>
  <fix>3d</fix>
</trkpt>
<trkpt lat="40.0728418" lon="-105.2305746">
  <ele>1586.1</ele>
  <time>2026-08-27T18:28:39Z</time>
  <course>201.54</course>
  <speed>0.0</speed>
  <fix>3d</fix>
</trkpt>
<trkpt lat="40.0728419" lon="-105.2305748">
  <ele>1586.16</ele>
  <time>2026-08-27T18:28:39Z</time>
  <course>12.11</course>
  <speed>0.01414213562373095</speed>
  <fix>3d</fix>
</trkpt>
<trkpt lat="40.0728418" lon="-105.2305746">
  <ele>1586.1</ele>
  <time>2026-08-27T18:28:39Z</time>
  <course>197.12</course>
  <speed>0.0</speed>
  <fix>3d</fix>
</trkpt>
<trkpt lat="40.0728419" lon="-105.2305748">
  <ele>1586.16</ele>
  <time>2026-08-27T18:28:39Z</time>
  <course>12.11</course>
  <speed>0.01414213562373095</speed>
  <fix>3d</fix>
</trkpt>
<trkpt lat="40.0728418" lon="-105.2305746">
  <ele>1586.1</ele>
  <time>2026-08-27T18:28:39Z</time>
  <course>193.15</course>
  <speed>0.0</speed>
  <fix>3d</fix>
</trkpt>
<trkpt lat="40.0728419" lon="-105.2305748">
  <ele>1586.16</ele>
  <time>2026-08-27T18:28:39Z</time>
  <course>12.11</course>
  <speed>0.01414213562373095</speed>
  <fix>3d</fix>
</trkpt>
<trkpt lat="40.0728418" lon="-105.2305746">
  <ele>1586.1</ele>
  <time>2026-08-27T18:28:39Z</time>
  <course>270.22</course>
  <speed>0.0</speed>
  <fix>3d</fix>
</trkpt>
<trkpt lat="40.0728419" lon="-105.2305748">
  <ele>1586.16</ele>
  <time>2026-08-27T18:28:39Z</time>
  <course>12.11</course>
  <speed>0.01414213562373095</speed>
  <fix>3d</fix>
</trkpt>
<trkpt lat="40.0728418" lon="-105.2305746">
  <ele>1586.1</ele>
  <time>2026-08-27T18:28:39Z</time>
  <course>276.12</course>
  <speed>0.0</speed>
  <fix>3d</fix>
</trkpt>
<trkpt lat="40.0728419" lon="-105.2305748">
  <ele>1586.16</ele>
  <time>2026-08-27T18:28:39Z</time>
  <course>12.11</course>
  <speed>0.01414213562373095</speed>
  <fix>3d</fix>
</trkpt>
<trkpt lat="40.0728418" lon="-105.2305746">
  <ele>1586.1</ele>
  <time>2026-08-27T18:28:39Z</time>
  <course>264.66</course>
  <speed>0.0</speed>
  <fix>3d</fix>
</trkpt>
<trkpt lat="40.0728419" lon="-105.2305748">
  <ele>1586.16</ele>
  <time>2026-08-27T18:28:39Z</time>
  <course>12.1</course>
  <speed>0.01414213562373095</speed>
  <fix>3d</fix>
</trkpt>
<trkpt lat="40.0728418" lon="-105.2305746">
  <ele>1586.1</ele>
  <time>2026-08-27T18:28:39Z</time>
  <course>131.46</course>
  <speed>0.0</speed>
  <fix>3d</fix>
</trkpt>
<trkpt lat="40.0728419" lon="-105.2305748">
  <ele>1586.16</ele>
  <time>2026-08-27T18:28:39Z</time>
  <course>12.1</course>
  <speed>0.01414213562373095</speed>
  <fix>3d</fix>
</trkpt>
<trkpt lat="40.0728418" lon="-105.2305746">
  <ele>1586.1</ele>
  <time>2026-08-27T18:28:39Z</time>
  <course>146.25</course>
  <speed>0.0</speed>
  <fix>3d</fix>
</trkpt>
<trkpt lat="40.0728419" lon="-105.2305748">
  <ele>1586.16</ele>
  <time>2026-08-27T18:28:39Z</time>
  <course>12.1</course>
  <speed>0.01414213562373095</speed>
  <fix>3d</fix>
</trkpt>
<trkpt lat="40.0728418" lon="-105.2305746">
  <ele>1586.1</ele>
  <time>2026-08-27T18:28:39Z</time>
  <course>166.57</course>
  <speed>0.0</speed>
  <fix>3d</fix>
</trkpt>
<trkpt lat="40.0728419" lon="-105.2305748">
  <ele>1586.16</ele>
  <time>2026-08-27T18:28:39Z</time>
  <course>12.1</course>
  <speed>0.01414213562373095</speed>
  <fix>3d</fix>
</trkpt>
<trkpt lat="40.0728418" lon="-105.2305746">
  <ele>1586.1</ele>
  <time>2026-08-27T18:28:39Z</time>
  <course>159.22</course>
  <speed>0.0</speed>
  <fix>3d</fix>
</trkpt>
<trkpt lat="40.0728419" lon="-105.2305748">
  <ele>1586.16</ele>
  <time>2026-08-27T18:28:39Z</time>
  <course>12.1</course>
  <speed>0.01414213562373095</speed>
  <fix>3d</fix>
</trkpt>
<trkpt lat="40.0728418" lon="-105.2305746">
  <ele>1586.1</ele>
  <time>2026-08-27T18:28:39Z</time>
  <course>157.08</course>
  <speed>0.0</speed>
  <fix>3d</fix>
</trkpt>
<trkpt lat="40.0728419" lon="-105.2305748">
  <ele>1586.16</ele>
  <time>2026-08-27T18:28:39Z</time>
  <course>12.1</course>
  <speed>0.01414213562373095</speed>
  <fix>3d</fix>
</trkpt>
<trkpt lat="40.0728418" lon="-105.2305746">
  <ele>1586.1</ele>
  <time>2026-08-27T18:28:39Z</time>
  <course>158.21</course>
  <speed>0.0</speed>
  <fix>3d</fix>
</trkpt>
<trkpt lat="40.0728419" lon="-105.2305748">
  <ele>1586.17</ele>
  <time>2026-08-27T18:28:39Z</time>
  <course>12.1</course>
  <speed>0.01414213562373095</speed>
  <fix>3d</fix>
</trkpt>
<trkpt lat="40.0728418" lon="-105.2305746">
  <ele>1586.1</ele>
  <time>2026-08-27T18:28:39Z</time>
  <course>158.37</course>
  <speed>0.0</speed>
  <fix>3d</fix>
</trkpt>
<trkpt lat="40.0728419" lon="-105.2305748">
  <ele>1586.17</ele>
  <time>2026-08-27T18:28:39Z</time>
  <course>12.1</course>
  <speed>0.01414213562373095</speed>
  <fix>3d</fix>
</trkpt>
<trkpt lat="40.0728418" lon="-105.2305746">
  <ele>1586.1</ele>
  <time>2026-08-27T18:28:39Z</time>
  <course>158.19</course>
  <speed>0.0</speed>
  <fix>3d</fix>
</trkpt>
<trkpt lat="40.0728419" lon="-105.2305748">
  <ele>1586.17</ele>
  <time>2026-08-27T18:28:39Z</time>
  <course>12.09</course>
  <speed>0.01414213562373095</speed>
  <fix>3d</fix>
</trkpt>
<trkpt lat="40.0728418" lon="-105.2305746">
  <ele>1586.1</ele>
  <time>2026-08-27T18:28:39Z</time>
  <course>158.19</course>
  <speed>0.0</speed>
  <fix>3d</fix>
</trkpt>
<trkpt lat="40.0728419" lon="-105.2305748">
  <ele>1586.17</ele>
  <time>2026-08-27T18:28:39Z</time>
  <course>12.09</course>
  <speed>0.01414213562373095</speed>
  <fix>3d</fix>
</trkpt>
<trkpt lat="40.0728418" lon="-105.2305746">
  <ele>1586.1</ele>
  <time>2026-08-27T18:28:39Z</time>
  <course>158.22</course>
  <speed>0.0</speed>
  <fix>3d</fix>
</trkpt>
<trkpt lat="40.0728419" lon="-105.2305748">
  <ele>1586.17</ele>
  <time>2026-08-27T18:28:39Z</time>
  <course>12.09</course>
  <speed>0.01414213562373095</speed>
  <fix>3d</fix>
</trkpt>
<trkpt lat="40.0728418" lon="-105.2305746">
  <ele>1586.1</ele>
  <time>2026-08-27T18:28:39Z</time>
  <course>158.21</course>
  <speed>0.0</speed>
  <fix>3d</fix>
</trkpt>
<trkpt lat="40.0728419" lon="-105.2305748">
  <ele>1586.17</ele>
  <time>2026-08-27T18:28:39Z</time>
  <course>12.09</course>
  <speed>0.01414213562373095</speed>
  <fix>3d</fix>
</trkpt>
<trkpt lat="40.0728418" lon="-105.2305746">
  <ele>1586.1</ele>
  <time>2026-08-27T18:28:39Z</time>
  <course>158.21</course>
  <speed>0.0</speed>
  <fix>3d</fix>
</trkpt>
<trkpt lat="40.0728419" lon="-105.2305748">
  <ele>1586.17</ele>
  <time>2026-08-27T18:28:39Z</time>
  <course>12.09</course>
  <speed>0.01414213562373095</speed>
  <fix>3d</fix>
</trkpt>
<trkpt lat="40.0728418" lon="-105.2305746">
  <ele>1586.1</ele>
  <time>2026-08-27T18:28:39Z</time>
  <course>158.21</course>
  <speed>0.0</speed>
  <fix>3d</fix>
</trkpt>
<trkpt lat="40.0728419" lon="-105.2305748">
  <ele>1586.17</ele>
  <time>2026-08-27T18:28:39Z</time>
  <course>12.09</course>
  <speed>0.01414213562373095</speed>
  <fix>3d</fix>
</trkpt>
<trkpt lat="40.0728418" lon="-105.2305746">
  <ele>1586.1</ele>
  <time>2026-08-27T18:28:39Z</time>
  <course>158.21</course>
  <speed>0.0</speed>
  <fix>3d</fix>
</trkpt>
<trkpt lat="40.0728419" lon="-105.2305748">
  <ele>1586.17</ele>
  <time>2026-08-27T18:28:39Z</time>
  <course>12.09</course>
  <speed>0.01414213562373095</speed>
  <fix>3d</fix>
</trkpt>
<trkpt lat="40.0728418" lon="-105.2305746">
  <ele>1586.1</ele>
  <time>2026-08-27T18:28:39Z</time>
  <course>158.21</course>
  <speed>0.0</speed>
  <fix>3d</fix>
</trkpt>
<trkpt lat="40.0728419" lon="-105.2305748">
  <ele>1586.17</ele>
  <time>2026-08-27T18:28:39Z</time>
  <course>12.09</course>
  <speed>0.01414213562373095</speed>
  <fix>3d</fix>
</trkpt>
<trkpt lat="40.0728418" lon="-105.2305746">
  <ele>1586.1</ele>
  <time>2026-08-27T18:28:39Z</time>
  <course>158.21</course>
  <speed>0.0</speed>
  <fix>3d</fix>
</trkpt>
<trkpt lat="40.0728419" lon="-105.2305748">
  <ele>1586.17</ele>
  <time>2026-08-27T18:28:39Z</time>
  <course>12.08</course>
  <speed>0.01414213562373095</speed>
  <fix>3d</fix>
</trkpt>
<trkpt lat="40.0728418" lon="-105.2305746">
  <ele>1586.1</ele>
  <time>2026-08-27T18:28:39Z</time>
  <course>158.21</course>
  <speed>0.0</speed>
  <fix>3d</fix>
</trkpt>
<trkpt lat="40.0728419" lon="-105.2305748">
  <ele>1586.17</ele>
  <time>2026-08-27T18:28:39Z</time>
  <course>12.08</course>
  <speed>0.01414213562373095</speed>
  <fix>3d</fix>
</trkpt>
<trkpt lat="40.0728418" lon="-105.2305746">
  <ele>1586.1</ele>
  <time>2026-08-27T18:28:39Z</time>
  <course>158.21</course>
  <speed>0.0</speed>
  <fix>3d</fix>
</trkpt>
<trkpt lat="40.0728419" lon="-105.2305748">
  <ele>1586.17</ele>
  <time>2026-08-27T18:28:40Z</time>
  <course>12.1</course>
  <speed>0.01414213562373095</speed>
  <fix>3d</fix>
</trkpt>
<trkpt lat="40.0728418" lon="-105.2305746">
  <ele>1586.1</ele>
  <time>2026-08-27T18:28:40Z</time>
  <course>158.21</course>
  <speed>0.0</speed>
  <fix>3d</fix>
</trkpt>
<trkpt lat="40.0728419" lon="-105.2305748">
  <ele>1586.17</ele>
  <time>2026-08-27T18:28:40Z</time>
  <course>12.14</course>
  <speed>0.01414213562373095</speed>
  <fix>3d</fix>
</trkpt>
<trkpt lat="40.0728418" lon="-105.2305746">
  <ele>1586.1</ele>
  <time>2026-08-27T18:28:40Z</time>
  <course>158.21</course>
  <speed>0.0</speed>
  <fix>3d</fix>
</trkpt>
<trkpt lat="40.0728419" lon="-105.2305748">
  <ele>1586.18</ele>
  <time>2026-08-27T18:28:40Z</time>
  <course>12.18</course>
  <speed>0.01414213562373095</speed>
  <fix>3d</fix>
</trkpt>
<trkpt lat="40.0728418" lon="-105.2305746">
  <ele>1586.1</ele>
  <time>2026-08-27T18:28:40Z</time>
  <course>158.21</course>
  <speed>0.0</speed>
  <fix>3d</fix>
</trkpt>
<trkpt lat="40.0728419" lon="-105.2305748">
  <ele>1586.18</ele>
  <time>2026-08-27T18:28:40Z</time>
  <course>12.22</course>
  <speed>0.01414213562373095</speed>
  <fix>3d</fix>
</trkpt>
<trkpt lat="40.0728418" lon="-105.2305746">
  <ele>1586.1</ele>
  <time>2026-08-27T18:28:40Z</time>
  <course>158.21</course>
  <speed>0.0</speed>
  <fix>3d</fix>
</trkpt>
<trkpt lat="40.0728419" lon="-105.2305748">
  <ele>1586.18</ele>
  <time>2026-08-27T18:28:40Z</time>
  <course>12.26</course>
  <speed>0.01414213562373095</speed>
  <fix>3d</fix>
</trkpt>
<trkpt lat="40.0728418" lon="-105.2305746">
  <ele>1586.1</ele>
  <time>2026-08-27T18:28:40Z</time>
  <course>158.21</course>
  <speed>0.0</speed>
  <fix>3d</fix>
</trkpt>
<trkpt lat="40.0728419" lon="-105.2305748">
  <ele>1586.18</ele>
  <time>2026-08-27T18:28:40Z</time>
  <course>12.3</course>
  <speed>0.01414213562373095</speed>
  <fix>3d</fix>
</trkpt>
<trkpt lat="40.0728418" lon="-105.2305746">
  <ele>1586.1</ele>
  <time>2026-08-27T18:28:40Z</time>
  <course>158.21</course>
  <speed>0.0</speed>
  <fix>3d</fix>
</trkpt>
<trkpt lat="40.0728419" lon="-105.2305748">
  <ele>1586.17</ele>
  <time>2026-08-27T18:28:40Z</time>
  <course>12.34</course>
  <speed>0.01414213562373095</speed>
  <fix>3d</fix>
</trkpt>
<trkpt lat="40.0728418" lon="-105.2305746">
  <ele>1586.1</ele>
  <time>2026-08-27T18:28:40Z</time>
  <course>158.21</course>
  <speed>0.0</speed>
  <fix>3d</fix>
</trkpt>
<trkpt lat="40.0728419" lon="-105.2305748">
  <ele>1586.17</ele>
  <time>2026-08-27T18:28:40Z</time>
  <course>12.38</course>
  <speed>0.01414213562373095</speed>
  <fix>3d</fix>
</trkpt>
<trkpt lat="40.0728418" lon="-105.2305746">
  <ele>1586.1</ele>
  <time>2026-08-27T18:28:40Z</time>
  <course>158.21</course>
  <speed>0.0</speed>
  <fix>3d</fix>
</trkpt>
<trkpt lat="40.0728419" lon="-105.2305748">
  <ele>1586.18</ele>
  <time>2026-08-27T18:28:40Z</time>
  <course>12.42</course>
  <speed>0.01414213562373095</speed>
  <fix>3d</fix>
</trkpt>
<trkpt lat="40.0728418" lon="-105.2305746">
  <ele>1586.1</ele>
  <time>2026-08-27T18:28:40Z</time>
  <course>158.21</course>
  <speed>0.0</speed>
  <fix>3d</fix>
</trkpt>
<trkpt lat="40.0728419" lon="-105.2305748">
  <ele>1586.18</ele>
  <time>2026-08-27T18:28:40Z</time>
  <course>12.46</course>
  <speed>0.01414213562373095</speed>
  <fix>3d</fix>
</trkpt>
<trkpt lat="40.0728418" lon="-105.2305746">
  <ele>1586.1</ele>
  <time>2026-08-27T18:28:40Z</time>
  <course>158.21</course>
  <speed>0.0</speed>
  <fix>3d</fix>
</trkpt>
<trkpt lat="40.0728419" lon="-105.2305748">
  <ele>1586.18</ele>
  <time>2026-08-27T18:28:40Z</time>
  <course>12.5</course>
  <speed>0.01414213562373095</speed>
  <fix>3d</fix>
</trkpt>
<trkpt lat="40.0728418" lon="-105.2305746">
  <ele>1586.1</ele>
  <time>2026-08-27T18:28:40Z</time>
  <course>158.21</course>
  <speed>0.0</speed>
  <fix>3d</fix>
</trkpt>
<trkpt lat="40.0728419" lon="-105.2305747">
  <ele>1586.18</ele>
  <time>2026-08-27T18:28:40Z</time>
  <course>12.66</course>
  <speed>0.01414213562373095</speed>
  <fix>3d</fix>
</trkpt>
<trkpt lat="40.0728418" lon="-105.2305746">
  <ele>1586.1</ele>
  <time>2026-08-27T18:28:40Z</time>
  <course>158.21</course>
  <speed>0.0</speed>
  <fix>3d</fix>
</trkpt>
<trkpt lat="40.0728419" lon="-105.2305747">
  <ele>1586.17</ele>
  <time>2026-08-27T18:28:40Z</time>
  <course>12.7</course>
  <speed>0.01414213562373095</speed>
  <fix>3d</fix>
</trkpt>
<trkpt lat="40.0728418" lon="-105.2305746">
  <ele>1586.1</ele>
  <time>2026-08-27T18:28:40Z</time>
  <course>158.21</course>
  <speed>0.0</speed>
  <fix>3d</fix>
</trkpt>
<trkpt lat="40.0728419" lon="-105.2305747">
  <ele>1586.17</ele>
  <time>2026-08-27T18:28:40Z</time>
  <course>12.74</course>
  <speed>0.01414213562373095</speed>
  <fix>3d</fix>
</trkpt>
<trkpt lat="40.0728418" lon="-105.2305746">
  <ele>1586.1</ele>
  <time>2026-08-27T18:28:40Z</time>
  <course>158.21</course>
  <speed>0.0</speed>
  <fix>3d</fix>
</trkpt>
<trkpt lat="40.0728419" lon="-105.2305747">
  <ele>1586.17</ele>
  <time>2026-08-27T18:28:40Z</time>
  <course>12.78</course>
  <speed>0.01</speed>
  <fix>3d</fix>
</trkpt>
<trkpt lat="40.0728418" lon="-105.2305746">
  <ele>1586.1</ele>
  <time>2026-08-27T18:28:40Z</time>
  <course>158.21</course>
  <speed>0.0</speed>
  <fix>3d</fix>
</trkpt>
<trkpt lat="40.0728419" lon="-105.2305747">
  <ele>1586.18</ele>
  <time>2026-08-27T18:28:40Z</time>
  <course>12.82</course>
  <speed>0.01</speed>
  <fix>3d</fix>
</trkpt>
<trkpt lat="40.0728418" lon="-105.2305746">
  <ele>1586.1</ele>
  <time>2026-08-27T18:28:40Z</time>
  <course>159.64</course>
  <speed>0.0</speed>
  <fix>3d</fix>
</trkpt>
<trkpt lat="40.0728419" lon="-105.2305747">
  <ele>1586.19</ele>
  <time>2026-08-27T18:28:40Z</time>
  <course>12.86</course>
  <speed>0.01</speed>
  <fix>3d</fix>
</trkpt>
<trkpt lat="40.0728418" lon="-105.2305746">
  <ele>1586.1</ele>
  <time>2026-08-27T18:28:40Z</time>
  <course>152.47</course>
  <speed>0.0</speed>
  <fix>3d</fix>
</trkpt>
<trkpt lat="40.0728419" lon="-105.2305747">
  <ele>1586.19</ele>
  <time>2026-08-27T18:28:40Z</time>
  <course>12.9</course>
  <speed>0.01</speed>
  <fix>3d</fix>
</trkpt>
<trkpt lat="40.0728418" lon="-105.2305746">
  <ele>1586.1</ele>
  <time>2026-08-27T18:28:40Z</time>
  <course>32.36</course>
  <speed>0.0</speed>
  <fix>3d</fix>
</trkpt>
<trkpt lat="40.0728419" lon="-105.2305747">
  <ele>1586.19</ele>
  <time>2026-08-27T18:28:40Z</time>
  <course>12.94</course>
  <speed>0.01</speed>
  <fix>3d</fix>
</trkpt>
<trkpt lat="40.0728418" lon="-105.2305746">
  <ele>1586.1</ele>
  <time>2026-08-27T18:28:40Z</time>
  <course>306.71</course>
  <speed>0.0</speed>
  <fix>3d</fix>
</trkpt>
<trkpt lat="40.0728418" lon="-105.2305746">
  <ele>1586.1</ele>
  <time>2026-08-27T18:28:40Z</time>
  <course>12.83</course>
  <speed>0.0</speed>
  <fix>3d</fix>
</trkpt>
<trkpt lat="40.0728418" lon="-105.2305746">
  <ele>1586.1</ele>
  <time>2026-08-27T18:28:40Z</time>
  <course>339.81</course>
  <speed>0.0</speed>
  <fix>3d</fix>
</trkpt>
<trkpt lat="40.0728418" lon="-105.2305746">
  <ele>1586.1</ele>
  <time>2026-08-27T18:28:40Z</time>
  <course>12.83</course>
  <speed>0.0</speed>
  <fix>3d</fix>
</trkpt>
<trkpt lat="40.0728418" lon="-105.2305746">
  <ele>1586.1</ele>
  <time>2026-08-27T18:28:40Z</time>
  <course>330.76</course>
  <speed>0.0</speed>
  <fix>3d</fix>
</trkpt>
<trkpt lat="40.0728418" lon="-105.2305746">
  <ele>1586.1</ele>
  <time>2026-08-27T18:28:40Z</time>
  <course>12.83</course>
  <speed>0.0</speed>
  <fix>3d</fix>
</trkpt>
<trkpt lat="40.0728418" lon="-105.2305746">
  <ele>1586.1</ele>
  <time>2026-08-27T18:28:40Z</time>
  <course>275.07</course>
  <speed>0.0</speed>
  <fix>3d</fix>
</trkpt>
<trkpt lat="40.0728418" lon="-105.2305746">
  <ele>1586.1</ele>
  <time>2026-08-27T18:28:40Z</time>
  <course>12.83</course>
  <speed>0.0</speed>
  <fix>3d</fix>
</trkpt>
<trkpt lat="40.0728418" lon="-105.2305746">
  <ele>1586.1</ele>
  <time>2026-08-27T18:28:40Z</time>
  <course>337.73</course>
  <speed>0.0</speed>
  <fix>3d</fix>
</trkpt>
<trkpt lat="40.0728418" lon="-105.2305746">
  <ele>1586.1</ele>
  <time>2026-08-27T18:28:40Z</time>
  <course>12.83</course>
  <speed>0.0</speed>
  <fix>3d</fix>
</trkpt>
<trkpt lat="40.0728418" lon="-105.2305746">
  <ele>1586.1</ele>
  <time>2026-08-27T18:28:40Z</time>
  <course>38.73</course>
  <speed>0.0</speed>
  <fix>3d</fix>
</trkpt>
<trkpt lat="40.0728418" lon="-105.2305746">
  <ele>1586.1</ele>
  <time>2026-08-27T18:28:40Z</time>
  <course>12.83</course>
  <speed>0.0</speed>
  <fix>3d</fix>
</trkpt>
<trkpt lat="40.0728418" lon="-105.2305746">
  <ele>1586.1</ele>
  <time>2026-08-27T18:28:40Z</time>
  <course>176.16</course>
  <speed>0.0</speed>
  <fix>3d</fix>
</trkpt>
<trkpt lat="40.0728418" lon="-105.2305746">
  <ele>1586.1</ele>
  <time>2026-08-27T18:28:40Z</time>
  <course>12.83</course>
  <speed>0.0</speed>
  <fix>3d</fix>
</trkpt>
<trkpt lat="40.0728418" lon="-105.2305746">
  <ele>1586.1</ele>
  <time>2026-08-27T18:28:40Z</time>
  <course>222.28</course>
  <speed>0.0</speed>
  <fix>3d</fix>
</trkpt>
<trkpt lat="40.0728418" lon="-105.2305746">
  <ele>1586.1</ele>
  <time>2026-08-27T18:28:40Z</time>
  <course>12.83</course>
  <speed>0.0</speed>
  <fix>3d</fix>
</trkpt>
<trkpt lat="40.0728418" lon="-105.2305746">
  <ele>1586.1</ele>
  <time>2026-08-27T18:28:40Z</time>
  <course>192.24</course>
  <speed>0.0</speed>
  <fix>3d</fix>
</trkpt>
<trkpt lat="40.0728418" lon="-105.2305746">
  <ele>1586.1</ele>
  <time>2026-08-27T18:28:40Z</time>
  <course>12.83</course>
  <speed>0.0</speed>
  <fix>3d</fix>
</trkpt>
<trkpt lat="40.0728418" lon="-105.2305746">
  <ele>1586.1</ele>
  <time>2026-08-27T18:28:40Z</time>
  <course>148.89</course>
  <speed>0.0</speed>
  <fix>3d</fix>
</trkpt>
<trkpt lat="40.0728418" lon="-105.2305746">
  <ele>1586.1</ele>
  <time>2026-08-27T18:28:40Z</time>
  <course>12.83</course>
  <speed>0.0</speed>
  <fix>3d</fix>
</trkpt>
<trkpt lat="40.0728418" lon="-105.2305746">
  <ele>1586.1</ele>
  <time>2026-08-27T18:28:40Z</time>
  <course>338.08</course>
  <speed>0.0</speed>
  <fix>3d</fix>
</trkpt>
<trkpt lat="40.0728418" lon="-105.2305746">
  <ele>1586.1</ele>
  <time>2026-08-27T18:28:40Z</time>
  <course>12.83</course>
  <speed>0.0</speed>
  <fix>3d</fix>
</trkpt>
<trkpt lat="40.0728418" lon="-105.2305746">
  <ele>1586.1</ele>
  <time>2026-08-27T18:28:40Z</time>
  <course>30.39</course>
  <speed>0.0</speed>
  <fix>3d</fix>
</trkpt>
<trkpt lat="40.072842" lon="-105.230575">
  <ele>1586.09</ele>
  <time>2026-08-27T18:28:40Z</time>
  <course>0.0</course>
  <speed>0.0</speed>
  <fix>3d</fix>
</trkpt>
<trkpt lat="40.072842" lon="-105.230575">
  <ele>1586.09</ele>
  <time>2026-08-27T18:28:40Z</time>
  <course>0.0</course>
  <speed>0.0</speed>
  <fix>3d</fix>
</trkpt>
<trkpt lat="40.072842" lon="-105.230575">
  <ele>1586.09</ele>
  <time>2026-08-27T18:28:40Z</time>
  <course>0.0</course>
  <speed>0.0</speed>
  <fix>3d</fix>
</trkpt>
<trkpt lat="40.072842" lon="-105.230575">
  <ele>1586.09</ele>
  <time>2026-08-27T18:28:40Z</time>
  <course>0.0</course>
  <speed>0.0</speed>
  <fix>3d</fix>
</trkpt>
<trkpt lat="40.072842" lon="-105.230575">
  <ele>1586.09</ele>
  <time>2026-08-27T18:28:40Z</time>
  <course>0.0</course>
  <speed>0.0</speed>
  <fix>3d</fix>
</trkpt>
<trkpt lat="40.072842" lon="-105.230575">
  <ele>1586.09</ele>
  <time>2026-08-27T18:28:40Z</time>
  <course>0.0</course>
  <speed>0.0</speed>
  <fix>3d</fix>
</trkpt>
<trkpt lat="40.072842" lon="-105.230575">
  <ele>1586.09</ele>
  <time>2026-08-27T18:28:40Z</time>
  <course>0.0</course>
  <speed>0.0</speed>
  <fix>3d</fix>
</trkpt>
<trkpt lat="40.072842" lon="-105.230575">
  <ele>1586.09</ele>
  <time>2026-08-27T18:28:40Z</time>
  <course>0.0</course>
  <speed>0.0</speed>
  <fix>3d</fix>
</trkpt>
<trkpt lat="40.072842" lon="-105.230575">
  <ele>1586.09</ele>
  <time>2026-08-27T18:28:40Z</time>
  <course>0.0</course>
  <speed>0.0</speed>
  <fix>3d</fix>
</trkpt>
<trkpt lat="40.072842" lon="-105.230575">
  <ele>1586.09</ele>
  <time>2026-08-27T18:28:40Z</time>
  <course>0.0</course>
  <speed>0.0</speed>
  <fix>3d</fix>
</trkpt>
<trkpt lat="40.072842" lon="-105.230575">
  <ele>1586.09</ele>
  <time>2026-08-27T18:28:40Z</time>
  <course>0.0</course>
  <speed>0.0</speed>
  <fix>3d</fix>
</trkpt>
<trkpt lat="40.072842" lon="-105.230575">
  <ele>1586.09</ele>
  <time>2026-08-27T18:28:40Z</time>
  <course>0.0</course>
  <speed>0.0</speed>
  <fix>3d</fix>
</trkpt>
<trkpt lat="40.072842" lon="-105.230575">
  <ele>1586.09</ele>
  <time>2026-08-27T18:28:40Z</time>
  <course>0.0</course>
  <speed>0.0</speed>
  <fix>3d</fix>
</trkpt>
<trkpt lat="40.072842" lon="-105.230575">
  <ele>1586.09</ele>
  <time>2026-08-27T18:28:40Z</time>
  <course>0.0</course>
  <speed>0.0</speed>
  <fix>3d</fix>
</trkpt>
<trkpt lat="40.072842" lon="-105.230575">
  <ele>1586.09</ele>
  <time>2026-08-27T18:28:40Z</time>
  <course>0.0</course>
  <speed>0.0</speed>
  <fix>3d</fix>
</trkpt>
<trkpt lat="40.072842" lon="-105.230575">
  <ele>1586.09</ele>
  <time>2026-08-27T18:28:40Z</time>
  <course>0.0</course>
  <speed>0.0</speed>
  <fix>3d</fix>
</trkpt>
<trkpt lat="40.072842" lon="-105.230575">
  <ele>1586.09</ele>
  <time>2026-08-27T18:28:40Z</time>
  <course>0.0</course>
  <speed>0.0</speed>
  <fix>3d</fix>
</trkpt>
<trkpt lat="40.072842" lon="-105.230575">
  <ele>1586.09</ele>
  <time>2026-08-27T18:28:40Z</time>
  <course>0.0</course>
  <speed>0.0</speed>
  <fix>3d</fix>
</trkpt>
<trkpt lat="40.072842" lon="-105.230575">
  <ele>1586.09</ele>
  <time>2026-08-27T18:28:40Z</time>
  <course>0.0</course>
  <speed>0.0</speed>
  <fix>3d</fix>
</trkpt>
<trkpt lat="40.072842" lon="-105.230575">
  <ele>1586.09</ele>
  <time>2026-08-27T18:28:40Z</time>
  <course>0.0</course>
  <speed>0.0</speed>
  <fix>3d</fix>
</trkpt>
<trkpt lat="40.072842" lon="-105.230575">
  <ele>1586.09</ele>
  <time>2026-08-27T18:28:40Z</time>
  <course>0.0</course>
  <speed>0.0</speed>
  <fix>3d</fix>
</trkpt>
<trkpt lat="40.072842" lon="-105.230575">
  <ele>1586.09</ele>
  <time>2026-08-27T18:28:40Z</time>
  <course>0.0</course>
  <speed>0.0</speed>
  <fix>3d</fix>
</trkpt>
<trkpt lat="40.072842" lon="-105.230575">
  <ele>1586.09</ele>
  <time>2026-08-27T18:28:40Z</time>
  <course>0.0</course>
  <speed>0.0</speed>
  <fix>3d</fix>
</trkpt>
<trkpt lat="40.072842" lon="-105.230575">
  <ele>1586.09</ele>
  <time>2026-08-27T18:28:40Z</time>
  <course>0.0</course>
  <speed>0.0</speed>
  <fix>3d</fix>
</trkpt>
<trkpt lat="40.072842" lon="-105.230575">
  <ele>1586.09</ele>
  <time>2026-08-27T18:28:40Z</time>
  <course>0.0</course>
  <speed>0.0</speed>
  <fix>3d</fix>
</trkpt>
<trkpt lat="40.072842" lon="-105.230575">
  <ele>1586.09</ele>
  <time>2026-08-27T18:28:40Z</time>
  <course>0.0</course>
  <speed>0.0</speed>
  <fix>3d</fix>
</trkpt>
<trkpt lat="40.072842" lon="-105.230575">
  <ele>1586.09</ele>
  <time>2026-08-27T18:28:40Z</time>
  <course>0.0</course>
  <speed>0.0</speed>
  <fix>3d</fix>
</trkpt>
<trkpt lat="40.072842" lon="-105.230575">
  <ele>1586.09</ele>
  <time>2026-08-27T18:28:40Z</time>
  <course>0.0</course>
  <speed>0.0</speed>
  <fix>3d</fix>
</trkpt>
<trkpt lat="40.072842" lon="-105.230575">
  <ele>1586.09</ele>
  <time>2026-08-27T18:28:40Z</time>
  <course>0.0</course>
  <speed>0.0</speed>
  <fix>3d</fix>
</trkpt>
<trkpt lat="40.072842" lon="-105.230575">
  <ele>1586.09</ele>
  <time>2026-08-27T18:28:40Z</time>
  <course>0.0</course>
  <speed>0.0</speed>
  <fix>3d</fix>
</trkpt>
<trkpt lat="40.072842" lon="-105.230575">
  <ele>1586.09</ele>
  <time>2026-08-27T18:28:40Z</time>
  <course>0.0</course>
  <speed>0.0</speed>
  <fix>3d</fix>
</trkpt>
<trkpt lat="40.072842" lon="-105.230575">
  <ele>1586.09</ele>
  <time>2026-08-27T18:28:40Z</time>
  <course>0.0</course>
  <speed>0.0</speed>
  <fix>3d</fix>
</trkpt>
<trkpt lat="40.072842" lon="-105.230575">
  <ele>1586.09</ele>
  <time>2026-08-27T18:28:40Z</time>
  <course>0.0</course>
  <speed>0.0</speed>
  <fix>3d</fix>
</trkpt>
<trkpt lat="40.072842" lon="-105.230575">
  <ele>1586.09</ele>
  <time>2026-08-27T18:28:40Z</time>
  <course>0.0</course>
  <speed>0.0</speed>
  <fix>3d</fix>
</trkpt>
<trkpt lat="40.072842" lon="-105.230575">
  <ele>1586.09</ele>
  <time>2026-08-27T18:28:40Z</time>
  <course>0.0</course>
  <speed>0.0</speed>
  <fix>3d</fix>
</trkpt>
<trkpt lat="40.072842" lon="-105.230575">
  <ele>1586.09</ele>
  <time>2026-08-27T18:28:40Z</time>
  <course>0.0</course>
  <speed>0.0</speed>
  <fix>3d</fix>
</trkpt>
<trkpt lat="40.072842" lon="-105.230575">
  <ele>1586.09</ele>
  <time>2026-08-27T18:28:40Z</time>
  <course>0.0</course>
  <speed>0.0</speed>
  <fix>3d</fix>
</trkpt>
<trkpt lat="39.654938" lon="-104.1331666">
  <ele>1569.54</ele>
  <time>2026-08-27T18:28:40Z</time>
  <course>127.59</course>
  <speed>0.0</speed>
  <fix>3d</fix>
</trkpt>
<trkpt lat="40.072842" lon="-105.230575">
  <ele>1586.09</ele>
  <time>2026-08-27T18:28:40Z</time>
  <course>0.0</course>
  <speed>0.0</speed>
  <fix>3d</fix>
</trkpt>
<trkpt lat="40.072842" lon="-105.230575">
  <ele>1586.09</ele>
  <time>2026-08-27T18:28:40Z</time>
  <course>121.35</course>
  <speed>0.0</speed>
  <fix>3d</fix>
</trkpt>
<trkpt lat="40.072842" lon="-105.230575">
  <ele>1586.09</ele>
  <time>2026-08-27T18:28:40Z</time>
  <course>0.0</course>
  <speed>0.0</speed>
  <fix>3d</fix>
</trkpt>
<trkpt lat="40.072842" lon="-105.230575">
  <ele>1586.09</ele>
  <time>2026-08-27T18:28:40Z</time>
  <course>94.19</course>
  <speed>0.0</speed>
  <fix>3d</fix>
</trkpt>
<trkpt lat="40.072842" lon="-105.230575">
  <ele>1586.09</ele>
  <time>2026-08-27T18:28:40Z</time>
  <course>0.0</course>
  <speed>0.0</speed>
  <fix>3d</fix>
</trkpt>
<trkpt lat="40.072842" lon="-105.230575">
  <ele>1586.09</ele>
  <time>2026-08-27T18:28:40Z</time>
  <course>350.76</course>
  <speed>0.0</speed>
  <fix>3d</fix>
</trkpt>
<trkpt lat="40.072842" lon="-105.230575">
  <ele>1586.09</ele>
  <time>2026-08-27T18:28:40Z</time>
  <course>0.0</course>
  <speed>0.0</speed>
  <fix>3d</fix>
</trkpt>
<trkpt lat="40.072842" lon="-105.230575">
  <ele>1586.09</ele>
  <time>2026-08-27T18:28:40Z</time>
  <course>284.47</course>
  <speed>0.0</speed>
  <fix>3d</fix>
</trkpt>
<trkpt lat="40.072842" lon="-105.230575">
  <ele>1586.09</ele>
  <time>2026-08-27T18:28:40Z</time>
  <course>0.0</course>
  <speed>0.0</speed>
  <fix>3d</fix>
</trkpt>
<trkpt lat="40.072842" lon="-105.230575">
  <ele>1586.09</ele>
  <time>2026-08-27T18:28:40Z</time>
  <course>135.24</course>
  <speed>0.0</speed>
  <fix>3d</fix>
</trkpt>
<trkpt lat="40.072842" lon="-105.230575">
  <ele>1586.09</ele>
  <time>2026-08-27T18:28:40Z</time>
  <course>0.0</course>
  <speed>0.0</speed>
  <fix>3d</fix>
</trkpt>
<trkpt lat="40.072842" lon="-105.230575">
  <ele>1586.09</ele>
  <time>2026-08-27T18:28:40Z</time>
  <course>357.93</course>
  <speed>0.0</speed>
  <fix>3d</fix>
</trkpt>
<trkpt lat="40.072842" lon="-105.230575">
  <ele>1586.09</ele>
  <time>2026-08-27T18:28:40Z</time>
  <course>0.0</course>
  <speed>0.0</speed>
  <fix>3d</fix>
</trkpt>
<trkpt lat="40.072842" lon="-105.230575">
  <ele>1586.09</ele>
  <time>2026-08-27T18:28:40Z</time>
  <course>325.22</course>
  <speed>0.0</speed>
  <fix>3d</fix>
</trkpt>
<trkpt lat="40.072842" lon="-105.230575">
  <ele>1586.09</ele>
  <time>2026-08-27T18:28:40Z</time>
  <course>0.0</course>
  <speed>0.0</speed>
  <fix>3d</fix>
</trkpt>
<trkpt lat="40.072842" lon="-105.230575">
  <ele>1586.09</ele>
  <time>2026-08-27T18:28:40Z</time>
  <course>128.09</course>
  <speed>0.0</speed>
  <fix>3d</fix>
</trkpt>
<trkpt lat="40.072842" lon="-105.230575">
  <ele>1586.09</ele>
  <time>2026-08-27T18:28:40Z</time>
  <course>0.0</course>
  <speed>0.0</speed>
  <fix>3d</fix>
</trkpt>
<trkpt lat="40.072842" lon="-105.230575">
  <ele>1586.09</ele>
  <time>2026-08-27T18:28:40Z</time>
  <course>27.14</course>
  <speed>0.0</speed>
  <fix>3d</fix>
</trkpt>
<trkpt lat="40.072842" lon="-105.230575">
  <ele>1586.09</ele>
  <time>2026-08-27T18:28:40Z</time>
  <course>0.0</course>
  <speed>0.0</speed>
  <fix>3d</fix>
</trkpt>
<trkpt lat="40.072842" lon="-105.230575">
  <ele>1586.09</ele>
  <time>2026-08-27T18:28:40Z</time>
  <course>290.19</course>
  <speed>0.0</speed>
  <fix>3d</fix>
</trkpt>
<trkpt lat="40.072842" lon="-105.230575">
  <ele>1586.09</ele>
  <time>2026-08-27T18:28:40Z</time>
  <course>0.0</course>
  <speed>0.0</speed>
  <fix>3d</fix>
</trkpt>
<trkpt lat="40.072842" lon="-105.230575">
  <ele>1586.09</ele>
  <time>2026-08-27T18:28:40Z</time>
  <course>206.36</course>
  <speed>0.0</speed>
  <fix>3d</fix>
</trkpt>
<trkpt lat="40.072842" lon="-105.230575">
  <ele>1586.09</ele>
  <time>2026-08-27T18:28:40Z</time>
  <course>0.0</course>
  <speed>0.0</speed>
  <fix>3d</fix>
</trkpt>
<trkpt lat="40.072842" lon="-105.230575">
  <ele>1586.09</ele>
  <time>2026-08-27T18:28:40Z</time>
  <course>78.54</course>
  <speed>0.0</speed>
  <fix>3d</fix>
</trkpt>
<trkpt lat="40.072842" lon="-105.230575">
  <ele>1586.09</ele>
  <time>2026-08-27T18:28:40Z</time>
  <course>0.0</course>
  <speed>0.0</speed>
  <fix>3d</fix>
</trkpt>
<trkpt lat="40.072842" lon="-105.230575">
  <ele>1586.09</ele>
  <time>2026-08-27T18:28:40Z</time>
  <course>225.42</course>
  <speed>0.0</speed>
  <fix>3d</fix>
</trkpt>
<trkpt lat="40.072842" lon="-105.230575">
  <ele>1586.09</ele>
  <time>2026-08-27T18:28:40Z</time>
  <course>0.0</course>
  <speed>0.0</speed>
  <fix>3d</fix>
</trkpt>
<trkpt lat="40.072842" lon="-105.230575">
  <ele>1586.09</ele>
  <time>2026-08-27T18:28:40Z</time>
  <course>269.57</course>
  <speed>0.0</speed>
  <fix>3d</fix>
</trkpt>
<trkpt lat="40.072842" lon="-105.230575">
  <ele>1586.09</ele>
  <time>2026-08-27T18:28:40Z</time>
  <course>0.0</course>
  <speed>0.0</speed>
  <fix>3d</fix>
</trkpt>
<trkpt lat="40.072842" lon="-105.230575">
  <ele>1586.09</ele>
  <time>2026-08-27T18:28:40Z</time>
  <course>20.38</course>
  <speed>0.0</speed>
  <fix>3d</fix>
</trkpt>
<trkpt lat="40.072842" lon="-105.230575">
  <ele>1586.09</ele>
  <time>2026-08-27T18:28:40Z</time>
  <course>0.0</course>
  <speed>0.0</speed>
  <fix>3d</fix>
</trkpt>
<trkpt lat="40.072842" lon="-105.230575">
  <ele>1586.09</ele>
  <time>2026-08-27T18:28:40Z</time>
  <course>184.63</course>
  <speed>0.0</speed>
  <fix>3d</fix>
</trkpt>
<trkpt lat="40.072842" lon="-105.230575">
  <ele>1586.09</ele>
  <time>2026-08-27T18:28:40Z</time>
  <course>0.0</course>
  <speed>0.0</speed>
  <fix>3d</fix>
</trkpt>
<trkpt lat="40.072842" lon="-105.230575">
  <ele>1586.09</ele>
  <time>2026-08-27T18:28:40Z</time>
  <course>149.79</course>
  <speed>0.0</speed>
  <fix>3d</fix>
</trkpt>
<trkpt lat="40.072842" lon="-105.230575">
  <ele>1586.09</ele>
  <time>2026-08-27T18:28:40Z</time>
  <course>0.0</course>
  <speed>0.0</speed>
  <fix>3d</fix>
</trkpt>
<trkpt lat="40.072842" lon="-105.230575">
  <ele>1586.09</ele>
  <time>2026-08-27T18:28:40Z</time>
  <course>128.34</course>
  <speed>0.0</speed>
  <fix>3d</fix>
</trkpt>
<trkpt lat="40.072842" lon="-105.230575">
  <ele>1586.09</ele>
  <time>2026-08-27T18:28:40Z</time>
  <course>0.0</course>
  <speed>0.0</speed>
  <fix>3d</fix>
</trkpt>
<trkpt lat="40.072842" lon="-105.230575">
  <ele>1586.09</ele>
  <time>2026-08-27T18:28:40Z</time>
  <course>306.56</course>
  <speed>0.0</speed>
  <fix>3d</fix>
</trkpt>
<trkpt lat="40.072842" lon="-105.230575">
  <ele>1586.09</ele>
  <time>2026-08-27T18:28:40Z</time>
  <course>0.0</course>
  <speed>0.0</speed>
  <fix>3d</fix>
</trkpt>
<trkpt lat="40.072842" lon="-105.230575">
  <ele>1586.09</ele>
  <time>2026-08-27T18:28:40Z</time>
  <course>194.19</course>
  <speed>0.0</speed>
  <fix>3d</fix>
</trkpt>
<trkpt lat="40.072842" lon="-105.230575">
  <ele>1586.09</ele>
  <time>2026-08-27T18:28:40Z</time>
  <course>0.0</course>
  <speed>0.0</speed>
  <fix>3d</fix>
</trkpt>
<trkpt lat="40.072842" lon="-105.230575">
  <ele>1586.09</ele>
  <time>2026-08-27T18:28:40Z</time>
  <course>39.63</course>
  <speed>0.0</speed>
  <fix>3d</fix>
</trkpt>
<trkpt lat="40.072842" lon="-105.230575">
  <ele>1586.09</ele>
  <time>2026-08-27T18:28:40Z</time>
  <course>0.0</course>
  <speed>0.0</speed>
  <fix>3d</fix>
</trkpt>
<trkpt lat="40.072842" lon="-105.230575">
  <ele>1586.09</ele>
  <time>2026-08-27T18:28:40Z</time>
  <course>357.64</course>
  <speed>0.0</speed>
  <fix>3d</fix>
</trkpt>
<trkpt lat="40.072842" lon="-105.230575">
  <ele>1586.09</ele>
  <time>2026-08-27T18:28:40Z</time>
  <course>0.0</course>
  <speed>0.0</speed>
  <fix>3d</fix>
</trkpt>
<trkpt lat="40.072842" lon="-105.230575">
  <ele>1586.09</ele>
  <time>2026-08-27T18:28:40Z</time>
  <course>313.52</course>
  <speed>0.0</speed>
  <fix>3d</fix>
</trkpt>
<trkpt lat="40.072842" lon="-105.230575">
  <ele>1586.09</ele>
  <time>2026-08-27T18:28:41Z</time>
  <course>0.0</course>
  <speed>0.0</speed>
  <fix>3d</fix>
</trkpt>
<trkpt lat="40.072842" lon="-105.230575">
  <ele>1586.09</ele>
  <time>2026-08-27T18:28:41Z</time>
  <course>217.12</course>
  <speed>0.0</speed>
  <fix>3d</fix>
</trkpt>
<trkpt lat="40.072842" lon="-105.230575">
  <ele>1586.09</ele>
  <time>2026-08-27T18:28:41Z</time>
  <course>0.0</course>
  <speed>0.0</speed>
  <fix>3d</fix>
</trkpt>
<trkpt lat="40.072842" lon="-105.230575">
  <ele>1586.09</ele>
  <time>2026-08-27T18:28:41Z</time>
  <course>154.76</course>
  <speed>0.0</speed>
  <fix>3d</fix>
</trkpt>
<trkpt lat="40.072842" lon="-105.230575">
  <ele>1586.09</ele>
  <time>2026-08-27T18:28:41Z</time>
  <course>0.0</course>
  <speed>0.0</speed>
  <fix>3d</fix>
</trkpt>
<trkpt lat="40.072842" lon="-105.230575">
  <ele>1586.09</ele>
  <time>2026-08-27T18:28:41Z</time>
  <course>348.83</course>
  <speed>0.0</speed>
  <fix>3d</fix>
</trkpt>
<trkpt lat="40.072842" lon="-105.230575">
  <ele>1586.09</ele>
  <time>2026-08-27T18:28:41Z</time>
  <course>0.0</course>
  <speed>0.0</speed>
  <fix>3d</fix>
</trkpt>
<trkpt lat="40.072842" lon="-105.230575">
  <ele>1586.09</ele>
  <time>2026-08-27T18:28:41Z</time>
  <course>258.53</course>
  <speed>0.0</speed>
  <fix>3d</fix>
</trkpt>
<trkpt lat="40.072842" lon="-105.230575">
  <ele>1586.09</ele>
  <time>2026-08-27T18:28:41Z</time>
  <course>0.0</course>
  <speed>0.0</speed>
  <fix>3d</fix>
</trkpt>
<trkpt lat="40.072842" lon="-105.230575">
  <ele>1586.09</ele>
  <time>2026-08-27T18:28:41Z</time>
  <course>171.66</course>
  <speed>0.0</speed>
  <fix>3d</fix>
</trkpt>
<trkpt lat="40.072842" lon="-105.230575">
  <ele>1586.09</ele>
  <time>2026-08-27T18:28:41Z</time>
  <course>0.0</course>
  <speed>0.0</speed>
  <fix>3d</fix>
</trkpt>
<trkpt lat="40.072842" lon="-105.230575">
  <ele>1586.09</ele>
  <time>2026-08-27T18:28:41Z</time>
  <course>15.0</course>
  <speed>0.0</speed>
  <fix>3d</fix>
</trkpt>
<trkpt lat="40.072842" lon="-105.230575">
  <ele>1586.09</ele>
  <time>2026-08-27T18:28:41Z</time>
  <course>0.0</course>
  <speed>0.0</speed>
  <fix>3d</fix>
</trkpt>
<trkpt lat="40.072842" lon="-105.230575">
  <ele>1586.09</ele>
  <time>2026-08-27T18:28:41Z</time>
  <course>264.57</course>
  <speed>0.0</speed>
  <fix>3d</fix>
</trkpt>
<trkpt lat="40.072842" lon="-105.230575">
  <ele>1586.09</ele>
  <time>2026-08-27T18:28:41Z</time>
  <course>0.0</course>
  <speed>0.0</speed>
  <fix>3d</fix>
</trkpt>
<trkpt lat="40.072842" lon="-105.230575">
  <ele>1586.09</ele>
  <time>2026-08-27T18:28:41Z</time>
  <course>157.99</course>
  <speed>0.0</speed>
  <fix>3d</fix>
</trkpt>
<trkpt lat="40.072842" lon="-105.230575">
  <ele>1586.09</ele>
  <time>2026-08-27T18:28:41Z</time>
  <course>0.0</course>
  <speed>0.0</speed>
  <fix>3d</fix>
</trkpt>
<trkpt lat="40.072842" lon="-105.230575">
  <ele>1586.09</ele>
  <time>2026-08-27T18:28:41Z</time>
  <course>112.31</course>
  <speed>0.0</speed>
  <fix>3d</fix>
</trkpt>
<trkpt lat="40.072842" lon="-105.230575">
  <ele>1586.09</ele>
  <time>2026-08-27T18:28:41Z</time>
  <course>0.0</course>
  <speed>0.0</speed>
  <fix>3d</fix>
</trkpt>
<trkpt lat="40.072842" lon="-105.230575">
  <ele>1586.09</ele>
  <time>2026-08-27T18:28:41Z</time>
  <course>66.41</course>
  <speed>0.0</speed>
  <fix>3d</fix>
</trkpt>
<trkpt lat="40.072842" lon="-105.230575">
  <ele>1586.09</ele>
  <time>2026-08-27T18:28:41Z</time>
  <course>0.0</course>
  <speed>0.0</speed>
  <fix>3d</fix>
</trkpt>
<trkpt lat="40.072842" lon="-105.230575">
  <ele>1586.09</ele>
  <time>2026-08-27T18:28:41Z</time>
  <course>320.8</course>
  <speed>0.0</speed>
  <fix>3d</fix>
</trkpt>
<trkpt lat="40.072842" lon="-105.230575">
  <ele>1586.09</ele>
  <time>2026-08-27T18:28:41Z</time>
  <course>0.0</course>
  <speed>0.0</speed>
  <fix>3d</fix>
</trkpt>
<trkpt lat="40.072842" lon="-105.230575">
  <ele>1586.09</ele>
  <time>2026-08-27T18:28:41Z</time>
  <course>247.01</course>
  <speed>0.0</speed>
  <fix>3d</fix>
</trkpt>
<trkpt lat="40.072842" lon="-105.230575">
  <ele>1586.09</ele>
  <time>2026-08-27T18:28:41Z</time>
  <course>0.0</course>
  <speed>0.0</speed>
  <fix>3d</fix>
</trkpt>
<trkpt lat="40.072842" lon="-105.230575">
  <ele>1586.09</ele>
  <time>2026-08-27T18:28:41Z</time>
  <course>111.34</course>
  <speed>0.0</speed>
  <fix>3d</fix>
</trkpt>
<trkpt lat="40.072842" lon="-105.230575">
  <ele>1586.09</ele>
  <time>2026-08-27T18:28:41Z</time>
  <course>0.0</course>
  <speed>0.0</speed>
  <fix>3d</fix>
</trkpt>
<trkpt lat="40.072842" lon="-105.230575">
  <ele>1586.09</ele>
  <time>2026-08-27T18:28:41Z</time>
  <course>358.22</course>
  <speed>0.0</speed>
  <fix>3d</fix>
</trkpt>
<trkpt lat="40.072842" lon="-105.230575">
  <ele>1586.09</ele>
  <time>2026-08-27T18:28:41Z</time>
  <course>359.99</course>
  <speed>0.0</speed>
  <fix>3d</fix>
</trkpt>
<trkpt lat="40.072842" lon="-105.230575">
  <ele>1586.09</ele>
  <time>2026-08-27T18:28:41Z</time>
  <course>330.56</course>
  <speed>0.0</speed>
  <fix>3d</fix>
</trkpt>
<trkpt lat="40.072842" lon="-105.230575">
  <ele>1586.09</ele>
  <time>2026-08-27T18:28:41Z</time>
  <course>359.99</course>
  <speed>0.0</speed>
  <fix>3d</fix>
</trkpt>
<trkpt lat="40.072842" lon="-105.230575">
  <ele>1586.09</ele>
  <time>2026-08-27T18:28:41Z</time>
  <course>314.49</course>
  <speed>0.0</speed>
  <fix>3d</fix>
</trkpt>
<trkpt lat="40.072842" lon="-105.230575">
  <ele>1586.09</ele>
  <time>2026-08-27T18:28:41Z</time>
  <course>359.98</course>
  <speed>0.0</speed>
  <fix>3d</fix>
</trkpt>
<trkpt lat="40.072842" lon="-105.230575">
  <ele>1586.09</ele>
  <time>2026-08-27T18:28:41Z</time>
  <course>88.54</course>
  <speed>0.0</speed>
  <fix>3d</fix>
</trkpt>
<trkpt lat="40.072842" lon="-105.230575">
  <ele>1586.09</ele>
  <time>2026-08-27T18:28:41Z</time>
  <course>359.97</course>
  <speed>0.0</speed>
  <fix>3d</fix>
</trkpt>
<trkpt lat="40.072842" lon="-105.230575">
  <ele>1586.09</ele>
  <time>2026-08-27T18:28:41Z</time>
  <course>278.96</course>
  <speed>0.0</speed>
  <fix>3d</fix>
</trkpt>
<trkpt lat="40.072842" lon="-105.230575">
  <ele>1586.09</ele>
  <time>2026-08-27T18:28:41Z</time>
  <course>359.96</course>
  <speed>0.0</speed>
  <fix>3d</fix>
</trkpt>
<trkpt lat="40.072842" lon="-105.230575">
  <ele>1586.09</ele>
  <time>2026-08-27T18:28:41Z</time>
  <course>233.06</course>
  <speed>0.0</speed>
  <fix>3d</fix>
</trkpt>
<trkpt lat="40.072842" lon="-105.230575">
  <ele>1586.09</ele>
  <time>2026-08-27T18:28:41Z</time>
  <course>359.94</course>
  <speed>0.0</speed>
  <fix>3d</fix>
</trkpt>
<trkpt lat="40.072842" lon="-105.230575">
  <ele>1586.09</ele>
  <time>2026-08-27T18:28:41Z</time>
  <course>241.36</course>
  <speed>0.0</speed>
  <fix>3d</fix>
</trkpt>
<trkpt lat="40.072842" lon="-105.230575">
  <ele>1586.09</ele>
  <time>2026-08-27T18:28:41Z</time>
  <course>359.93</course>
  <speed>0.0</speed>
  <fix>3d</fix>
</trkpt>
<trkpt lat="40.072842" lon="-105.230575">
  <ele>1586.09</ele>
  <time>2026-08-27T18:28:41Z</time>
  <course>236.05</course>
  <speed>0.0</speed>
  <fix>3d</fix>
</trkpt>
<trkpt lat="40.072842" lon="-105.230575">
  <ele>1586.09</ele>
  <time>2026-08-27T18:28:41Z</time>
  <course>359.91</course>
  <speed>0.0</speed>
  <fix>3d</fix>
</trkpt>
<trkpt lat="40.072842" lon="-105.230575">
  <ele>1586.09</ele>
  <time>2026-08-27T18:28:41Z</time>
  <course>246.94</course>
  <speed>0.0</speed>
  <fix>3d</fix>
</trkpt>
<trkpt lat="40.072842" lon="-105.230575">
  <ele>1586.09</ele>
  <time>2026-08-27T18:28:41Z</time>
  <course>359.89</course>
  <speed>0.0</speed>
  <fix>3d</fix>
</trkpt>
<trkpt lat="40.072842" lon="-105.230575">
  <ele>1586.09</ele>
  <time>2026-08-27T18:28:41Z</time>
  <course>250.75</course>
  <speed>0.0</speed>
  <fix>3d</fix>
</trkpt>
<trkpt lat="40.072842" lon="-105.230575">
  <ele>1586.09</ele>
  <time>2026-08-27T18:28:41Z</time>
  <course>359.87</course>
  <speed>0.0</speed>
  <fix>3d</fix>
</trkpt>
<trkpt lat="40.072842" lon="-105.230575">
  <ele>1586.09</ele>
  <time>2026-08-27T18:28:41Z</time>
  <course>240.03</course>
  <speed>0.0</speed>
  <fix>3d</fix>
</trkpt>
<trkpt lat="40.072842" lon="-105.230575">
  <ele>1586.09</ele>
  <time>2026-08-27T18:28:41Z</time>
  <course>359.85</course>
  <speed>0.0</speed>
  <fix>3d</fix>
</trkpt>
<trkpt lat="40.072842" lon="-105.230575">
  <ele>1586.09</ele>
  <time>2026-08-27T18:28:41Z</time>
  <course>283.03</course>
  <speed>0.0</speed>
  <fix>3d</fix>
</trkpt>
<trkpt lat="40.072842" lon="-105.230575">
  <ele>1586.09</ele>
  <time>2026-08-27T18:28:41Z</time>
  <course>359.83</course>
  <speed>0.0</speed>
  <fix>3d</fix>
</trkpt>
<trkpt lat="40.072842" lon="-105.230575">
  <ele>1586.09</ele>
  <time>2026-08-27T18:28:41Z</time>
  <course>305.86</course>
  <speed>0.0</speed>
  <fix>3d</fix>
</trkpt>
<trkpt lat="40.072842" lon="-105.230575">
  <ele>1586.09</ele>
  <time>2026-08-27T18:28:41Z</time>
  <course>359.81</course>
  <speed>0.0</speed>
  <fix>3d</fix>
</trkpt>
<trkpt lat="40.072842" lon="-105.230575">
  <ele>1586.09</ele>
  <time>2026-08-27T18:28:41Z</time>
  <course>291.09</course>
  <speed>0.0</speed>
  <fix>3d</fix>
</trkpt>
<trkpt lat="40.072842" lon="-105.230575">
  <ele>1586.09</ele>
  <time>2026-08-27T18:28:41Z</time>
  <course>359.78</course>
  <speed>0.0</speed>
  <fix>3d</fix>
</trkpt>
<trkpt lat="40.072842" lon="-105.230575">
  <ele>1586.09</ele>
  <time>2026-08-27T18:28:41Z</time>
  <course>280.68</course>
  <speed>0.0</speed>
  <fix>3d</fix>
</trkpt>
<trkpt lat="40.072842" lon="-105.230575">
  <ele>1586.09</ele>
  <time>2026-08-27T18:28:41Z</time>
  <course>359.75</course>
  <speed>0.0</speed>
  <fix>3d</fix>
</trkpt>
<trkpt lat="40.072842" lon="-105.230575">
  <ele>1586.09</ele>
  <time>2026-08-27T18:28:41Z</time>
  <course>261.8</course>
  <speed>0.0</speed>
  <fix>3d</fix>
</trkpt>
<trkpt lat="40.072842" lon="-105.230575">
  <ele>1586.09</ele>
  <time>2026-08-27T18:28:41Z</time>
  <course>359.73</course>
  <speed>0.0</speed>
  <fix>3d</fix>
</trkpt>
<trkpt lat="40.072842" lon="-105.230575">
  <ele>1586.09</ele>
  <time>2026-08-27T18:28:41Z</time>
  <course>247.89</course>
  <speed>0.0</speed>
  <fix>3d</fix>
</trkpt>
<trkpt lat="40.072842" lon="-105.230575">
  <ele>1586.09</ele>
  <time>2026-08-27T18:28:41Z</time>
  <course>359.7</course>
  <speed>0.0</speed>
  <fix>3d</fix>
</trkpt>
<trkpt lat="40.072842" lon="-105.230575">
  <ele>1586.09</ele>
  <time>2026-08-27T18:28:41Z</time>
  <course>254.3</course>
  <speed>0.0</speed>
  <fix>3d</fix>
</trkpt>
<trkpt lat="40.072842" lon="-105.230575">
  <ele>1586.09</ele>
  <time>2026-08-27T18:28:41Z</time>
  <course>359.67</course>
  <speed>0.0</speed>
  <fix>3d</fix>
</trkpt>
<trkpt lat="40.072842" lon="-105.230575">
  <ele>1586.09</ele>
  <time>2026-08-27T18:28:41Z</time>
  <course>267.61</course>
  <speed>0.0</speed>
  <fix>3d</fix>
</trkpt>
<trkpt lat="40.072842" lon="-105.230575">
  <ele>1586.09</ele>
  <time>2026-08-27T18:28:41Z</time>
  <course>359.63</course>
  <speed>0.0</speed>
  <fix>3d</fix>
</trkpt>
<trkpt lat="40.072842" lon="-105.230575">
  <ele>1586.09</ele>
  <time>2026-08-27T18:28:41Z</time>
  <course>271.23</course>
  <speed>0.0</speed>
  <fix>3d</fix>
</trkpt>
<trkpt lat="40.072842" lon="-105.230575">
  <ele>1586.09</ele>
  <time>2026-08-27T18:28:41Z</time>
  <course>359.6</course>
  <speed>0.0</speed>
  <fix>3d</fix>
</trkpt>
<trkpt lat="40.072842" lon="-105.230575">
  <ele>1586.09</ele>
  <time>2026-08-27T18:28:41Z</time>
  <course>273.75</course>
  <speed>0.0</speed>
  <fix>3d</fix>
</trkpt>
<trkpt lat="40.072842" lon="-105.230575">
  <ele>1586.09</ele>
  <time>2026-08-27T18:28:41Z</time>
  <course>359.56</course>
  <speed>0.0</speed>
  <fix>3d</fix>
</trkpt>
<trkpt lat="40.072842" lon="-105.230575">
  <ele>1586.09</ele>
  <time>2026-08-27T18:28:41Z</time>
  <course>268.33</course>
  <speed>0.0</speed>
  <fix>3d</fix>
</trkpt>
<trkpt lat="40.072842" lon="-105.230575">
  <ele>1586.09</ele>
  <time>2026-08-27T18:28:41Z</time>
  <course>359.53</course>
  <speed>0.0</speed>
  <fix>3d</fix>
</trkpt>
<trkpt lat="40.072842" lon="-105.230575">
  <ele>1586.09</ele>
  <time>2026-08-27T18:28:41Z</time>
  <course>264.49</course>
  <speed>0.0</speed>
  <fix>3d</fix>
</trkpt>
<trkpt lat="40.072842" lon="-105.230575">
  <ele>1586.09</ele>
  <time>2026-08-27T18:28:41Z</time>
  <course>359.49</course>
  <speed>0.0</speed>
  <fix>3d</fix>
</trkpt>
<trkpt lat="40.072842" lon="-105.230575">
  <ele>1586.09</ele>
  <time>2026-08-27T18:28:41Z</time>
  <course>265.46</course>
  <speed>0.0</speed>
  <fix>3d</fix>
</trkpt>
<trkpt lat="40.072842" lon="-105.230575">
  <ele>1586.09</ele>
  <time>2026-08-27T18:28:41Z</time>
  <course>359.45</course>
  <speed>0.0</speed>
  <fix>3d</fix>
</trkpt>
<trkpt lat="40.072842" lon="-105.230575">
  <ele>1586.09</ele>
  <time>2026-08-27T18:28:41Z</time>
  <course>261.84</course>
  <speed>0.0</speed>
  <fix>3d</fix>
</trkpt>
<trkpt lat="40.072842" lon="-105.230575">
  <ele>1586.09</ele>
  <time>2026-08-27T18:28:41Z</time>
  <course>359.41</course>
  <speed>0.0</speed>
  <fix>3d</fix>
</trkpt>
<trkpt lat="40.072842" lon="-105.230575">
  <ele>1586.09</ele>
  <time>2026-08-27T18:28:41Z</time>
  <course>270.19</course>
  <speed>0.0</speed>
  <fix>3d</fix>
</trkpt>
<trkpt lat="40.072842" lon="-105.230575">
  <ele>1586.09</ele>
  <time>2026-08-27T18:28:41Z</time>
  <course>359.37</course>
  <speed>0.0</speed>
  <fix>3d</fix>
</trkpt>
<trkpt lat="40.072842" lon="-105.230575">
  <ele>1586.09</ele>
  <time>2026-08-27T18:28:41Z</time>
  <course>274.45</course>
  <speed>0.0</speed>
  <fix>3d</fix>
</trkpt>
<trkpt lat="40.072842" lon="-105.230575">
  <ele>1586.09</ele>
  <time>2026-08-27T18:28:41Z</time>
  <course>359.33</course>
  <speed>0.0</speed>
  <fix>3d</fix>
</trkpt>
<trkpt lat="40.072842" lon="-105.230575">
  <ele>1586.09</ele>
  <time>2026-08-27T18:28:41Z</time>
  <course>272.83</course>
  <speed>0.0</speed>
  <fix>3d</fix>
</trkpt>
<trkpt lat="40.072842" lon="-105.230575">
  <ele>1586.09</ele>
  <time>2026-08-27T18:28:41Z</time>
  <course>359.29</course>
  <speed>0.0</speed>
  <fix>3d</fix>
</trkpt>
<trkpt lat="40.072842" lon="-105.230575">
  <ele>1586.09</ele>
  <time>2026-08-27T18:28:41Z</time>
  <course>269.07</course>
  <speed>0.0</speed>
  <fix>3d</fix>
</trkpt>
<trkpt lat="40.072842" lon="-105.230575">
  <ele>1586.09</ele>
  <time>2026-08-27T18:28:41Z</time>
  <course>359.25</course>
  <speed>0.0</speed>
  <fix>3d</fix>
</trkpt>
<trkpt lat="40.072842" lon="-105.230575">
  <ele>1586.09</ele>
  <time>2026-08-27T18:28:41Z</time>
  <course>268.71</course>
  <speed>0.0</speed>
  <fix>3d</fix>
</trkpt>
<trkpt lat="40.072842" lon="-105.230575">
  <ele>1586.09</ele>
  <time>2026-08-27T18:28:41Z</time>
  <course>359.2</course>
  <speed>0.0</speed>
  <fix>3d</fix>
</trkpt>
<trkpt lat="40.072842" lon="-105.230575">
  <ele>1586.09</ele>
  <time>2026-08-27T18:28:41Z</time>
  <course>267.26</course>
  <speed>0.0</speed>
  <fix>3d</fix>
</trkpt>
<trkpt lat="40.072842" lon="-105.230575">
  <ele>1586.09</ele>
  <time>2026-08-27T18:28:41Z</time>
  <course>359.15</course>
  <speed>0.0</speed>
  <fix>3d</fix>
</trkpt>
<trkpt lat="40.072842" lon="-105.230575">
  <ele>1586.09</ele>
  <time>2026-08-27T18:28:41Z</time>
  <course>266.56</course>
  <speed>0.0</speed>
  <fix>3d</fix>
</trkpt>
<trkpt lat="40.072842" lon="-105.230575">
  <ele>1586.09</ele>
  <time>2026-08-27T18:28:41Z</time>
  <course>359.11</course>
  <speed>0.0</speed>
  <fix>3d</fix>
</trkpt>
<trkpt lat="40.072842" lon="-105.230575">
  <ele>1586.09</ele>
  <time>2026-08-27T18:28:41Z</time>
  <course>270.08</course>
  <speed>0.0</speed>
  <fix>3d</fix>
</trkpt>
<trkpt lat="40.072842" lon="-105.230575">
  <ele>1586.09</ele>
  <time>2026-08-27T18:28:41Z</time>
  <course>359.06</course>
  <speed>0.0</speed>
  <fix>3d</fix>
</trkpt>
<trkpt lat="40.072842" lon="-105.230575">
  <ele>1586.09</ele>
  <time>2026-08-27T18:28:41Z</time>
  <course>271.79</course>
  <speed>0.0</speed>
  <fix>3d</fix>
</trkpt>
<trkpt lat="40.072842" lon="-105.230575">
  <ele>1586.09</ele>
  <time>2026-08-27T18:28:41Z</time>
  <course>359.01</course>
  <speed>0.0</speed>
  <fix>3d</fix>
</trkpt>
<trkpt lat="40.072842" lon="-105.230575">
  <ele>1586.09</ele>
  <time>2026-08-27T18:28:41Z</time>
  <course>269.94</course>
  <speed>0.0</speed>
  <fix>3d</fix>
</trkpt>
<trkpt lat="40.072842" lon="-105.230575">
  <ele>1586.09</ele>
  <time>2026-08-27T18:28:41Z</time>
  <course>358.96</course>
  <speed>0.0</speed>
  <fix>3d</fix>
</trkpt>
<trkpt lat="40.072842" lon="-105.230575">
  <ele>1586.09</ele>
  <time>2026-08-27T18:28:41Z</time>
  <course>266.92</course>
  <speed>0.0</speed>
  <fix>3d</fix>
</trkpt>
<trkpt lat="40.072842" lon="-105.230575">
  <ele>1586.09</ele>
  <time>2026-08-27T18:28:41Z</time>
  <course>358.91</course>
  <speed>0.0</speed>
  <fix>3d</fix>
</trkpt>
<trkpt lat="40.072842" lon="-105.230575">
  <ele>1586.09</ele>
  <time>2026-08-27T18:28:41Z</time>
  <course>265.25</course>
  <speed>0.0</speed>
  <fix>3d</fix>
</trkpt>
<trkpt lat="40.072842" lon="-105.230575">
  <ele>1586.09</ele>
  <time>2026-08-27T18:28:41Z</time>
  <course>358.86</course>
  <speed>0.0</speed>
  <fix>3d</fix>
</trkpt>
<trkpt lat="40.072842" lon="-105.230575">
  <ele>1586.09</ele>
  <time>2026-08-27T18:28:41Z</time>
  <course>266.21</course>
  <speed>0.0</speed>
  <fix>3d</fix>
</trkpt>
<trkpt lat="40.072842" lon="-105.230575">
  <ele>1586.09</ele>
  <time>2026-08-27T18:28:41Z</time>
  <course>358.81</course>
  <speed>0.0</speed>
  <fix>3d</fix>
</trkpt>
<trkpt lat="40.072842" lon="-105.230575">
  <ele>1586.09</ele>
  <time>2026-08-27T18:28:41Z</time>
  <course>268.5</course>
  <speed>0.0</speed>
  <fix>3d</fix>
</trkpt>
<trkpt lat="40.072842" lon="-105.230575">
  <ele>1586.09</ele>
  <time>2026-08-27T18:28:41Z</time>
  <course>358.76</course>
  <speed>0.0</speed>
  <fix>3d</fix>
</trkpt>
<trkpt lat="40.072842" lon="-105.230575">
  <ele>1586.09</ele>
  <time>2026-08-27T18:28:41Z</time>
  <course>268.78</course>
  <speed>0.0</speed>
  <fix>3d</fix>
</trkpt>
<trkpt lat="40.072842" lon="-105.230575">
  <ele>1586.09</ele>
  <time>2026-08-27T18:28:41Z</time>
  <course>358.71</course>
  <speed>0.0</speed>
  <fix>3d</fix>
</trkpt>
<trkpt lat="40.072842" lon="-105.230575">
  <ele>1586.09</ele>
  <time>2026-08-27T18:28:41Z</time>
  <course>269.83</course>
  <speed>0.0</speed>
  <fix>3d</fix>
</trkpt>
<trkpt lat="40.072842" lon="-105.230575">
  <ele>1586.09</ele>
  <time>2026-08-27T18:28:41Z</time>
  <course>358.67</course>
  <speed>0.0</speed>
  <fix>3d</fix>
</trkpt>
<trkpt lat="40.072842" lon="-105.230575">
  <ele>1586.09</ele>
  <time>2026-08-27T18:28:41Z</time>
  <course>272.12</course>
  <speed>0.0</speed>
  <fix>3d</fix>
</trkpt>
<trkpt lat="40.072842" lon="-105.230575">
  <ele>1586.09</ele>
  <time>2026-08-27T18:28:41Z</time>
  <course>358.62</course>
  <speed>0.0</speed>
  <fix>3d</fix>
</trkpt>
<trkpt lat="40.072842" lon="-105.230575">
  <ele>1586.09</ele>
  <time>2026-08-27T18:28:41Z</time>
  <course>267.28</course>
  <speed>0.0</speed>
  <fix>3d</fix>
</trkpt>
<trkpt lat="40.072842" lon="-105.230575">
  <ele>1586.09</ele>
  <time>2026-08-27T18:28:41Z</time>
  <course>358.57</course>
  <speed>0.0</speed>
  <fix>3d</fix>
</trkpt>
<trkpt lat="40.072842" lon="-105.230575">
  <ele>1586.09</ele>
  <time>2026-08-27T18:28:41Z</time>
  <course>264.22</course>
  <speed>0.0</speed>
  <fix>3d</fix>
</trkpt>
<trkpt lat="40.072842" lon="-105.230575">
  <ele>1586.09</ele>
  <time>2026-08-27T18:28:41Z</time>
  <course>358.52</course>
  <speed>0.0</speed>
  <fix>3d</fix>
</trkpt>
<trkpt lat="40.072842" lon="-105.230575">
  <ele>1586.09</ele>
  <time>2026-08-27T18:28:41Z</time>
  <course>266.46</course>
  <speed>0.0</speed>
  <fix>3d</fix>
</trkpt>
<trkpt lat="40.072842" lon="-105.230575">
  <ele>1586.09</ele>
  <time>2026-08-27T18:28:41Z</time>
  <course>358.48</course>
  <speed>0.0</speed>
  <fix>3d</fix>
</trkpt>
<trkpt lat="40.072842" lon="-105.230575">
  <ele>1586.09</ele>
  <time>2026-08-27T18:28:41Z</time>
  <course>268.64</course>
  <speed>0.0</speed>
  <fix>3d</fix>
</trkpt>
<trkpt lat="40.072842" lon="-105.230575">
  <ele>1586.09</ele>
  <time>2026-08-27T18:28:41Z</time>
  <course>358.43</course>
  <speed>0.0</speed>
  <fix>3d</fix>
</trkpt>
<trkpt lat="40.072842" lon="-105.230575">
  <ele>1586.09</ele>
  <time>2026-08-27T18:28:41Z</time>
  <course>271.31</course>
  <speed>0.0</speed>
  <fix>3d</fix>
</trkpt>
<trkpt lat="40.072842" lon="-105.230575">
  <ele>1586.09</ele>
  <time>2026-08-27T18:28:41Z</time>
  <course>358.39</course>
  <speed>0.0</speed>
  <fix>3d</fix>
</trkpt>
<trkpt lat="40.072842" lon="-105.230575">
  <ele>1586.09</ele>
  <time>2026-08-27T18:28:41Z</time>
  <course>270.03</course>
  <speed>0.0</speed>
  <fix>3d</fix>
</trkpt>
<trkpt lat="40.072842" lon="-105.230575">
  <ele>1586.09</ele>
  <time>2026-08-27T18:28:41Z</time>
  <course>358.34</course>
  <speed>0.0</speed>
  <fix>3d</fix>
</trkpt>
<trkpt lat="40.072842" lon="-105.230575">
  <ele>1586.09</ele>
  <time>2026-08-27T18:28:41Z</time>
  <course>266.72</course>
  <speed>0.0</speed>
  <fix>3d</fix>
</trkpt>
<trkpt lat="40.072842" lon="-105.230575">
  <ele>1586.09</ele>
  <time>2026-08-27T18:28:41Z</time>
  <course>358.3</course>
  <speed>0.0</speed>
  <fix>3d</fix>
</trkpt>
<trkpt lat="40.072842" lon="-105.230575">
  <ele>1586.09</ele>
  <time>2026-08-27T18:28:41Z</time>
  <course>264.92</course>
  <speed>0.0</speed>
  <fix>3d</fix>
</trkpt>
<trkpt lat="40.072842" lon="-105.230575">
  <ele>1586.09</ele>
  <time>2026-08-27T18:28:41Z</time>
  <course>358.25</course>
  <speed>0.0</speed>
  <fix>3d</fix>
</trkpt>
<trkpt lat="40.072842" lon="-105.230575">
  <ele>1586.09</ele>
  <time>2026-08-27T18:28:41Z</time>
  <course>264.65</course>
  <speed>0.0</speed>
  <fix>3d</fix>
</trkpt>
<trkpt lat="40.072842" lon="-105.230575">
  <ele>1586.09</ele>
  <time>2026-08-27T18:28:41Z</time>
  <course>358.21</course>
  <speed>0.0</speed>
  <fix>3d</fix>
</trkpt>
<trkpt lat="40.072842" lon="-105.230575">
  <ele>1586.09</ele>
  <time>2026-08-27T18:28:41Z</time>
  <course>264.79</course>
  <speed>0.0</speed>
  <fix>3d</fix>
</trkpt>
<trkpt lat="40.072842" lon="-105.230575">
  <ele>1586.09</ele>
  <time>2026-08-27T18:28:41Z</time>
  <course>358.17</course>
  <speed>0.0</speed>
  <fix>3d</fix>
</trkpt>
<trkpt lat="40.072842" lon="-105.230575">
  <ele>1586.09</ele>
  <time>2026-08-27T18:28:41Z</time>
  <course>268.96</course>
  <speed>0.0</speed>
  <fix>3d</fix>
</trkpt>
<trkpt lat="40.072842" lon="-105.230575">
  <ele>1586.09</ele>
  <time>2026-08-27T18:28:41Z</time>
  <course>358.13</course>
  <speed>0.0</speed>
  <fix>3d</fix>
</trkpt>
<trkpt lat="40.072842" lon="-105.230575">
  <ele>1586.09</ele>
  <time>2026-08-27T18:28:41Z</time>
  <course>268.25</course>
  <speed>0.0</speed>
  <fix>3d</fix>
</trkpt>
<trkpt lat="40.072842" lon="-105.230575">
  <ele>1586.09</ele>
  <time>2026-08-27T18:28:41Z</time>
  <course>358.09</course>
  <speed>0.0</speed>
  <fix>3d</fix>
</trkpt>
<trkpt lat="40.072842" lon="-105.230575">
  <ele>1586.09</ele>
  <time>2026-08-27T18:28:41Z</time>
  <course>265.61</course>
  <speed>0.0</speed>
  <fix>3d</fix>
</trkpt>
<trkpt lat="40.072842" lon="-105.230575">
  <ele>1586.09</ele>
  <time>2026-08-27T18:28:41Z</time>
  <course>358.05</course>
  <speed>0.0</speed>
  <fix>3d</fix>
</trkpt>
<trkpt lat="40.072842" lon="-105.230575">
  <ele>1586.09</ele>
  <time>2026-08-27T18:28:41Z</time>
  <course>266.49</course>
  <speed>0.0</speed>
  <fix>3d</fix>
</trkpt>
<trkpt lat="40.072842" lon="-105.230575">
  <ele>1586.09</ele>
  <time>2026-08-27T18:28:41Z</time>
  <course>358.01</course>
  <speed>0.0</speed>
  <fix>3d</fix>
</trkpt>
<trkpt lat="40.072842" lon="-105.230575">
  <ele>1586.09</ele>
  <time>2026-08-27T18:28:41Z</time>
  <course>263.06</course>
  <speed>0.0</speed>
  <fix>3d</fix>
</trkpt>
<trkpt lat="40.072842" lon="-105.230575">
  <ele>1586.09</ele>
  <time>2026-08-27T18:28:41Z</time>
  <course>357.97</course>
  <speed>0.0</speed>
  <fix>3d</fix>
</trkpt>
<trkpt lat="40.072842" lon="-105.230575">
  <ele>1586.09</ele>
  <time>2026-08-27T18:28:41Z</time>
  <course>263.46</course>
  <speed>0.0</speed>
  <fix>3d</fix>
</trkpt>
<trkpt lat="40.072842" lon="-105.230575">
  <ele>1586.09</ele>
  <time>2026-08-27T18:28:41Z</time>
  <course>357.93</course>
  <speed>0.0</speed>
  <fix>3d</fix>
</trkpt>
<trkpt lat="40.072842" lon="-105.230575">
  <ele>1586.09</ele>
  <time>2026-08-27T18:28:41Z</time>
  <course>267.24</course>
  <speed>0.0</speed>
  <fix>3d</fix>
</trkpt>
<trkpt lat="40.072842" lon="-105.230575">
  <ele>1586.09</ele>
  <time>2026-08-27T18:28:41Z</time>
  <course>357.89</course>
  <speed>0.0</speed>
  <fix>3d</fix>
</trkpt>
<trkpt lat="40.072842" lon="-105.230575">
  <ele>1586.09</ele>
  <time>2026-08-27T18:28:41Z</time>
  <course>270.23</course>
  <speed>0.0</speed>
  <fix>3d</fix>
</trkpt>
<trkpt lat="40.072842" lon="-105.230575">
  <ele>1586.09</ele>
  <time>2026-08-27T18:28:41Z</time>
  <course>357.85</course>
  <speed>0.0</speed>
  <fix>3d</fix>
</trkpt>
<trkpt lat="40.072842" lon="-105.230575">
  <ele>1586.09</ele>
  <time>2026-08-27T18:28:41Z</time>
  <course>270.66</course>
  <speed>0.0</speed>
  <fix>3d</fix>
</trkpt>
<trkpt lat="40.072842" lon="-105.230575">
  <ele>1586.09</ele>
  <time>2026-08-27T18:28:41Z</time>
  <course>357.81</course>
  <speed>0.0</speed>
  <fix>3d</fix>
</trkpt>
<trkpt lat="40.072842" lon="-105.230575">
  <ele>1586.09</ele>
  <time>2026-08-27T18:28:41Z</time>
  <course>269.11</course>
  <speed>0.0</speed>
  <fix>3d</fix>
</trkpt>
<trkpt lat="40.072842" lon="-105.230575">
  <ele>1586.09</ele>
  <time>2026-08-27T18:28:41Z</time>
  <course>357.78</course>
  <speed>0.0</speed>
  <fix>3d</fix>
</trkpt>
<trkpt lat="40.072842" lon="-105.230575">
  <ele>1586.09</ele>
  <time>2026-08-27T18:28:41Z</time>
  <course>267.57</course>
  <speed>0.0</speed>
  <fix>3d</fix>
</trkpt>
<trkpt lat="40.072842" lon="-105.230575">
  <ele>1586.09</ele>
  <time>2026-08-27T18:28:41Z</time>
  <course>357.74</course>
  <speed>0.0</speed>
  <fix>3d</fix>
</trkpt>
<trkpt lat="40.072842" lon="-105.230575">
  <ele>1586.09</ele>
  <time>2026-08-27T18:28:41Z</time>
  <course>266.9</course>
  <speed>0.0</speed>
  <fix>3d</fix>
</trkpt>
<trkpt lat="40.072842" lon="-105.230575">
  <ele>1586.09</ele>
  <time>2026-08-27T18:28:41Z</time>
  <course>357.7</course>
  <speed>0.0</speed>
  <fix>3d</fix>
</trkpt>
<trkpt lat="40.072842" lon="-105.230575">
  <ele>1586.09</ele>
  <time>2026-08-27T18:28:41Z</time>
  <course>265.36</course>
  <speed>0.0</speed>
  <fix>3d</fix>
</trkpt>
<trkpt lat="40.072842" lon="-105.230575">
  <ele>1586.09</ele>
  <time>2026-08-27T18:28:41Z</time>
  <course>357.67</course>
  <speed>0.0</speed>
  <fix>3d</fix>
</trkpt>
<trkpt lat="40.072842" lon="-105.230575">
  <ele>1586.09</ele>
  <time>2026-08-27T18:28:41Z</time>
  <course>268.74</course>
  <speed>0.0</speed>
  <fix>3d</fix>
</trkpt>
<trkpt lat="40.072842" lon="-105.230575">
  <ele>1586.09</ele>
  <time>2026-08-27T18:28:41Z</time>
  <course>357.63</course>
  <speed>0.0</speed>
  <fix>3d</fix>
</trkpt>
<trkpt lat="40.072842" lon="-105.230575">
  <ele>1586.09</ele>
  <time>2026-08-27T18:28:41Z</time>
  <course>270.97</course>
  <speed>0.0</speed>
  <fix>3d</fix>
</trkpt>
<trkpt lat="40.072842" lon="-105.230575">
  <ele>1586.09</ele>
  <time>2026-08-27T18:28:41Z</time>
  <course>357.6</course>
  <speed>0.0</speed>
  <fix>3d</fix>
</trkpt>
<trkpt lat="40.072842" lon="-105.230575">
  <ele>1586.09</ele>
  <time>2026-08-27T18:28:41Z</time>
  <course>268.9</course>
  <speed>0.0</speed>
  <fix>3d</fix>
</trkpt>
<trkpt lat="40.072842" lon="-105.230575">
  <ele>1586.09</ele>
  <time>2026-08-27T18:28:41Z</time>
  <course>357.56</course>
  <speed>0.0</speed>
  <fix>3d</fix>
</trkpt>
<trkpt lat="40.072842" lon="-105.230575">
  <ele>1586.09</ele>
  <time>2026-08-27T18:28:41Z</time>
  <course>264.85</course>
  <speed>0.0</speed>
  <fix>3d</fix>
</trkpt>
<trkpt lat="40.072842" lon="-105.230575">
  <ele>1586.09</ele>
  <time>2026-08-27T18:28:41Z</time>
  <course>357.53</course>
  <speed>0.0</speed>
  <fix>3d</fix>
</trkpt>
<trkpt lat="40.072842" lon="-105.230575">
  <ele>1586.09</ele>
  <time>2026-08-27T18:28:41Z</time>
  <course>263.08</course>
  <speed>0.0</speed>
  <fix>3d</fix>
</trkpt>
<trkpt lat="40.072842" lon="-105.230575">
  <ele>1586.09</ele>
  <time>2026-08-27T18:28:41Z</time>
  <course>357.49</course>
  <speed>0.0</speed>
  <fix>3d</fix>
</trkpt>
<trkpt lat="40.072842" lon="-105.230575">
  <ele>1586.09</ele>
  <time>2026-08-27T18:28:41Z</time>
  <course>264.79</course>
  <speed>0.0</speed>
  <fix>3d</fix>
</trkpt>
<trkpt lat="40.072842" lon="-105.230575">
  <ele>1586.09</ele>
  <time>2026-08-27T18:28:41Z</time>
  <course>357.46</course>
  <speed>0.0</speed>
  <fix>3d</fix>
</trkpt>
<trkpt lat="40.072842" lon="-105.230575">
  <ele>1586.09</ele>
  <time>2026-08-27T18:28:41Z</time>
  <course>264.69</course>
  <speed>0.0</speed>
  <fix>3d</fix>
</trkpt>
<trkpt lat="40.072842" lon="-105.230575">
  <ele>1586.09</ele>
  <time>2026-08-27T18:28:41Z</time>
  <course>357.43</course>
  <speed>0.0</speed>
  <fix>3d</fix>
</trkpt>
<trkpt lat="40.072842" lon="-105.230575">
  <ele>1586.09</ele>
  <time>2026-08-27T18:28:41Z</time>
  <course>263.72</course>
  <speed>0.0</speed>
  <fix>3d</fix>
</trkpt>
<trkpt lat="40.072842" lon="-105.230575">
  <ele>1586.09</ele>
  <time>2026-08-27T18:28:41Z</time>
  <course>357.4</course>
  <speed>0.0</speed>
  <fix>3d</fix>
</trkpt>
<trkpt lat="40.072842" lon="-105.230575">
  <ele>1586.09</ele>
  <time>2026-08-27T18:28:41Z</time>
  <course>266.45</course>
  <speed>0.0</speed>
  <fix>3d</fix>
</trkpt>
<trkpt lat="40.072842" lon="-105.230575">
  <ele>1586.09</ele>
  <time>2026-08-27T18:28:41Z</time>
  <course>357.36</course>
  <speed>0.0</speed>
  <fix>3d</fix>
</trkpt>
<trkpt lat="40.072842" lon="-105.230575">
  <ele>1586.09</ele>
  <time>2026-08-27T18:28:41Z</time>
  <course>265.6</course>
  <speed>0.0</speed>
  <fix>3d</fix>
</trkpt>
<trkpt lat="40.072842" lon="-105.230575">
  <ele>1586.09</ele>
  <time>2026-08-27T18:28:41Z</time>
  <course>357.33</course>
  <speed>0.0</speed>
  <fix>3d</fix>
</trkpt>
<trkpt lat="40.072842" lon="-105.230575">
  <ele>1586.09</ele>
  <time>2026-08-27T18:28:41Z</time>
  <course>262.88</course>
  <speed>0.0</speed>
  <fix>3d</fix>
</trkpt>
<trkpt lat="40.072842" lon="-105.230575">
  <ele>1586.09</ele>
  <time>2026-08-27T18:28:41Z</time>
  <course>357.3</course>
  <speed>0.0</speed>
  <fix>3d</fix>
</trkpt>
<trkpt lat="40.072842" lon="-105.230575">
  <ele>1586.09</ele>
  <time>2026-08-27T18:28:41Z</time>
  <course>263.83</course>
  <speed>0.0</speed>
  <fix>3d</fix>
</trkpt>
<trkpt lat="40.072842" lon="-105.230575">
  <ele>1586.09</ele>
  <time>2026-08-27T18:28:41Z</time>
  <course>357.27</course>
  <speed>0.0</speed>
  <fix>3d</fix>
</trkpt>
<trkpt lat="40.072842" lon="-105.230575">
  <ele>1586.09</ele>
  <time>2026-08-27T18:28:41Z</time>
  <course>264.6</course>
  <speed>0.0</speed>
  <fix>3d</fix>
</trkpt>
<trkpt lat="40.072842" lon="-105.230575">
  <ele>1586.09</ele>
  <time>2026-08-27T18:28:41Z</time>
  <course>357.24</course>
  <speed>0.0</speed>
  <fix>3d</fix>
</trkpt>
<trkpt lat="40.072842" lon="-105.230575">
  <ele>1586.09</ele>
  <time>2026-08-27T18:28:41Z</time>
  <course>266.92</course>
  <speed>0.0</speed>
  <fix>3d</fix>
</trkpt>
<trkpt lat="40.072842" lon="-105.230575">
  <ele>1586.09</ele>
  <time>2026-08-27T18:28:41Z</time>
  <course>357.21</course>
  <speed>0.0</speed>
  <fix>3d</fix>
</trkpt>
<trkpt lat="40.072842" lon="-105.230575">
  <ele>1586.09</ele>
  <time>2026-08-27T18:28:41Z</time>
  <course>269.12</course>
  <speed>0.0</speed>
  <fix>3d</fix>
</trkpt>
<trkpt lat="40.072842" lon="-105.230575">
  <ele>1586.09</ele>
  <time>2026-08-27T18:28:41Z</time>
  <course>357.18</course>
  <speed>0.0</speed>
  <fix>3d</fix>
</trkpt>
<trkpt lat="40.072842" lon="-105.230575">
  <ele>1586.09</ele>
  <time>2026-08-27T18:28:41Z</time>
  <course>269.26</course>
  <speed>0.0</speed>
  <fix>3d</fix>
</trkpt>
<trkpt lat="40.072842" lon="-105.230575">
  <ele>1586.09</ele>
  <time>2026-08-27T18:28:41Z</time>
  <course>357.15</course>
  <speed>0.0</speed>
  <fix>3d</fix>
</trkpt>
<trkpt lat="40.072842" lon="-105.230575">
  <ele>1586.09</ele>
  <time>2026-08-27T18:28:41Z</time>
  <course>267.98</course>
  <speed>0.0</speed>
  <fix>3d</fix>
</trkpt>
<trkpt lat="40.072842" lon="-105.230575">
  <ele>1586.09</ele>
  <time>2026-08-27T18:28:41Z</time>
  <course>357.12</course>
  <speed>0.0</speed>
  <fix>3d</fix>
</trkpt>
<trkpt lat="40.072842" lon="-105.230575">
  <ele>1586.09</ele>
  <time>2026-08-27T18:28:41Z</time>
  <course>266.37</course>
  <speed>0.0</speed>
  <fix>3d</fix>
</trkpt>
<trkpt lat="40.072842" lon="-105.230575">
  <ele>1586.09</ele>
  <time>2026-08-27T18:28:41Z</time>
  <course>357.09</course>
  <speed>0.0</speed>
  <fix>3d</fix>
</trkpt>
<trkpt lat="40.072842" lon="-105.230575">
  <ele>1586.09</ele>
  <time>2026-08-27T18:28:41Z</time>
  <course>263.65</course>
  <speed>0.0</speed>
  <fix>3d</fix>
</trkpt>
<trkpt lat="40.072842" lon="-105.230575">
  <ele>1586.09</ele>
  <time>2026-08-27T18:28:41Z</time>
  <course>357.06</course>
  <speed>0.0</speed>
  <fix>3d</fix>
</trkpt>
<trkpt lat="40.072842" lon="-105.230575">
  <ele>1586.09</ele>
  <time>2026-08-27T18:28:41Z</time>
  <course>266.65</course>
  <speed>0.0</speed>
  <fix>3d</fix>
</trkpt>
<trkpt lat="40.072842" lon="-105.230575">
  <ele>1586.09</ele>
  <time>2026-08-27T18:28:41Z</time>
  <course>357.03</course>
  <speed>0.0</speed>
  <fix>3d</fix>
</trkpt>
<trkpt lat="40.072842" lon="-105.230575">
  <ele>1586.09</ele>
  <time>2026-08-27T18:28:41Z</time>
  <course>269.35</course>
  <speed>0.0</speed>
  <fix>3d</fix>
</trkpt>
<trkpt lat="40.072842" lon="-105.230575">
  <ele>1586.09</ele>
  <time>2026-08-27T18:28:41Z</time>
  <course>357.01</course>
  <speed>0.0</speed>
  <fix>3d</fix>
</trkpt>
<trkpt lat="40.072842" lon="-105.230575">
  <ele>1586.09</ele>
  <time>2026-08-27T18:28:41Z</time>
  <course>268.85</course>
  <speed>0.0</speed>
  <fix>3d</fix>
</trkpt>
<trkpt lat="40.072842" lon="-105.230575">
  <ele>1586.09</ele>
  <time>2026-08-27T18:28:41Z</time>
  <course>356.98</course>
  <speed>0.0</speed>
  <fix>3d</fix>
</trkpt>
<trkpt lat="40.072842" lon="-105.230575">
  <ele>1586.09</ele>
  <time>2026-08-27T18:28:41Z</time>
  <course>268.48</course>
  <speed>0.0</speed>
  <fix>3d</fix>
</trkpt>
<trkpt lat="40.072842" lon="-105.230575">
  <ele>1586.09</ele>
  <time>2026-08-27T18:28:41Z</time>
  <course>356.95</course>
  <speed>0.0</speed>
  <fix>3d</fix>
</trkpt>
<trkpt lat="40.072842" lon="-105.230575">
  <ele>1586.09</ele>
  <time>2026-08-27T18:28:41Z</time>
  <course>264.67</course>
  <speed>0.0</speed>
  <fix>3d</fix>
</trkpt>
<trkpt lat="40.072842" lon="-105.230575">
  <ele>1586.09</ele>
  <time>2026-08-27T18:28:41Z</time>
  <course>356.93</course>
  <speed>0.0</speed>
  <fix>3d</fix>
</trkpt>
<trkpt lat="40.072842" lon="-105.230575">
  <ele>1586.09</ele>
  <time>2026-08-27T18:28:41Z</time>
  <course>262.5</course>
  <speed>0.0</speed>
  <fix>3d</fix>
</trkpt>
<trkpt lat="40.072842" lon="-105.230575">
  <ele>1586.09</ele>
  <time>2026-08-27T18:28:41Z</time>
  <course>356.9</course>
  <speed>0.0</speed>
  <fix>3d</fix>
</trkpt>
<trkpt lat="40.072842" lon="-105.230575">
  <ele>1586.09</ele>
  <time>2026-08-27T18:28:41Z</time>
  <course>262.98</course>
  <speed>0.0</speed>
  <fix>3d</fix>
</trkpt>
<trkpt lat="40.072842" lon="-105.230575">
  <ele>1586.09</ele>
  <time>2026-08-27T18:28:41Z</time>
  <course>356.87</course>
  <speed>0.0</speed>
  <fix>3d</fix>
</trkpt>
<trkpt lat="40.072842" lon="-105.230575">
  <ele>1586.09</ele>
  <time>2026-08-27T18:28:41Z</time>
  <course>264.7</course>
  <speed>0.0</speed>
  <fix>3d</fix>
</trkpt>
<trkpt lat="40.072842" lon="-105.230575">
  <ele>1586.09</ele>
  <time>2026-08-27T18:28:41Z</time>
  <course>356.85</course>
  <speed>0.0</speed>
  <fix>3d</fix>
</trkpt>
<trkpt lat="40.072842" lon="-105.230575">
  <ele>1586.09</ele>
  <time>2026-08-27T18:28:41Z</time>
  <course>265.17</course>
  <speed>0.0</speed>
  <fix>3d</fix>
</trkpt>
<trkpt lat="40.072842" lon="-105.230575">
  <ele>1586.09</ele>
  <time>2026-08-27T18:28:41Z</time>
  <course>356.82</course>
  <speed>0.0</speed>
  <fix>3d</fix>
</trkpt>
<trkpt lat="40.072842" lon="-105.230575">
  <ele>1586.09</ele>
  <time>2026-08-27T18:28:41Z</time>
  <course>266.43</course>
  <speed>0.0</speed>
  <fix>3d</fix>
</trkpt>
<trkpt lat="40.072842" lon="-105.230575">
  <ele>1586.09</ele>
  <time>2026-08-27T18:28:41Z</time>
  <course>356.8</course>
  <speed>0.0</speed>
  <fix>3d</fix>
</trkpt>
<trkpt lat="40.072842" lon="-105.230575">
  <ele>1586.09</ele>
  <time>2026-08-27T18:28:41Z</time>
  <course>264.96</course>
  <speed>0.0</speed>
  <fix>3d</fix>
</trkpt>
<trkpt lat="40.072842" lon="-105.230575">
  <ele>1586.09</ele>
  <time>2026-08-27T18:28:41Z</time>
  <course>356.77</course>
  <speed>0.0</speed>
  <fix>3d</fix>
</trkpt>
<trkpt lat="40.072842" lon="-105.230575">
  <ele>1586.09</ele>
  <time>2026-08-27T18:28:41Z</time>
  <course>264.52</course>
  <speed>0.0</speed>
  <fix>3d</fix>
</trkpt>
<trkpt lat="40.072842" lon="-105.230575">
  <ele>1586.09</ele>
  <time>2026-08-27T18:28:41Z</time>
  <course>356.75</course>
  <speed>0.0</speed>
  <fix>3d</fix>
</trkpt>
<trkpt lat="40.072842" lon="-105.230575">
  <ele>1586.09</ele>
  <time>2026-08-27T18:28:41Z</time>
  <course>263.63</course>
  <speed>0.0</speed>
  <fix>3d</fix>
</trkpt>
<trkpt lat="40.072842" lon="-105.230575">
  <ele>1586.09</ele>
  <time>2026-08-27T18:28:41Z</time>
  <course>356.72</course>
  <speed>0.0</speed>
  <fix>3d</fix>
</trkpt>
<trkpt lat="40.072842" lon="-105.230575">
  <ele>1586.09</ele>
  <time>2026-08-27T18:28:41Z</time>
  <course>263.03</course>
  <speed>0.0</speed>
  <fix>3d</fix>
</trkpt>
<trkpt lat="40.072842" lon="-105.230575">
  <ele>1586.09</ele>
  <time>2026-08-27T18:28:41Z</time>
  <course>356.7</course>
  <speed>0.0</speed>
  <fix>3d</fix>
</trkpt>
<trkpt lat="40.072842" lon="-105.230575">
  <ele>1586.09</ele>
  <time>2026-08-27T18:28:41Z</time>
  <course>266.22</course>
  <speed>0.0</speed>
  <fix>3d</fix>
</trkpt>
<trkpt lat="40.072842" lon="-105.230575">
  <ele>1586.09</ele>
  <time>2026-08-27T18:28:41Z</time>
  <course>356.68</course>
  <speed>0.0</speed>
  <fix>3d</fix>
</trkpt>
<trkpt lat="40.072842" lon="-105.230575">
  <ele>1586.09</ele>
  <time>2026-08-27T18:28:41Z</time>
  <course>269.87</course>
  <speed>0.0</speed>
  <fix>3d</fix>
</trkpt>
<trkpt lat="40.072842" lon="-105.230575">
  <ele>1586.09</ele>
  <time>2026-08-27T18:28:41Z</time>
  <course>356.65</course>
  <speed>0.0</speed>
  <fix>3d</fix>
</trkpt>
<trkpt lat="40.072842" lon="-105.230575">
  <ele>1586.09</ele>
  <time>2026-08-27T18:28:41Z</time>
  <course>268.88</course>
  <speed>0.0</speed>
  <fix>3d</fix>
</trkpt>
<trkpt lat="40.072842" lon="-105.230575">
  <ele>1586.09</ele>
  <time>2026-08-27T18:28:41Z</time>
  <course>356.63</course>
  <speed>0.0</speed>
  <fix>3d</fix>
</trkpt>
<trkpt lat="40.072842" lon="-105.230575">
  <ele>1586.09</ele>
  <time>2026-08-27T18:28:41Z</time>
  <course>265.6</course>
  <speed>0.0</speed>
  <fix>3d</fix>
</trkpt>
<trkpt lat="40.072842" lon="-105.230575">
  <ele>1586.09</ele>
  <time>2026-08-27T18:28:41Z</time>
  <course>356.61</course>
  <speed>0.0</speed>
  <fix>3d</fix>
</trkpt>
<trkpt lat="40.072842" lon="-105.230575">
  <ele>1586.09</ele>
  <time>2026-08-27T18:28:41Z</time>
  <course>265.95</course>
  <speed>0.0</speed>
  <fix>3d</fix>
</trkpt>
<trkpt lat="40.072842" lon="-105.230575">
  <ele>1586.09</ele>
  <time>2026-08-27T18:28:41Z</time>
  <course>356.58</course>
  <speed>0.0</speed>
  <fix>3d</fix>
</trkpt>
<trkpt lat="40.072842" lon="-105.230575">
  <ele>1586.09</ele>
  <time>2026-08-27T18:28:41Z</time>
  <course>265.58</course>
  <speed>0.0</speed>
  <fix>3d</fix>
</trkpt>
<trkpt lat="40.072842" lon="-105.230575">
  <ele>1586.09</ele>
  <time>2026-08-27T18:28:41Z</time>
  <course>356.56</course>
  <speed>0.0</speed>
  <fix>3d</fix>
</trkpt>
<trkpt lat="40.072842" lon="-105.230575">
  <ele>1586.09</ele>
  <time>2026-08-27T18:28:41Z</time>
  <course>264.58</course>
  <speed>0.0</speed>
  <fix>3d</fix>
</trkpt>
<trkpt lat="40.072842" lon="-105.230575">
  <ele>1586.09</ele>
  <time>2026-08-27T18:28:41Z</time>
  <course>356.55</course>
  <speed>0.0</speed>
  <fix>3d</fix>
</trkpt>
<trkpt lat="40.072842" lon="-105.230575">
  <ele>1586.09</ele>
  <time>2026-08-27T18:28:41Z</time>
  <course>266.06</course>
  <speed>0.0</speed>
  <fix>3d</fix>
</trkpt>
<trkpt lat="40.072842" lon="-105.230575">
  <ele>1586.09</ele>
  <time>2026-08-27T18:28:41Z</time>
  <course>356.54</course>
  <speed>0.0</speed>
  <fix>3d</fix>
</trkpt>
<trkpt lat="40.072842" lon="-105.230575">
  <ele>1586.09</ele>
  <time>2026-08-27T18:28:41Z</time>
  <course>265.68</course>
  <speed>0.0</speed>
  <fix>3d</fix>
</trkpt>
<trkpt lat="40.072842" lon="-105.230575">
  <ele>1586.09</ele>
  <time>2026-08-27T18:28:41Z</time>
  <course>356.52</course>
  <speed>0.0</speed>
  <fix>3d</fix>
</trkpt>
<trkpt lat="40.072842" lon="-105.230575">
  <ele>1586.09</ele>
  <time>2026-08-27T18:28:41Z</time>
  <course>265.48</course>
  <speed>0.0</speed>
  <fix>3d</fix>
</trkpt>
<trkpt lat="40.072842" lon="-105.230575">
  <ele>1586.09</ele>
  <time>2026-08-27T18:28:41Z</time>
  <course>356.52</course>
  <speed>0.0</speed>
  <fix>3d</fix>
</trkpt>
<trkpt lat="40.072842" lon="-105.230575">
  <ele>1586.09</ele>
  <time>2026-08-27T18:28:41Z</time>
  <course>356.5</course>
  <speed>0.0</speed>
  <fix>3d</fix>
</trkpt>
<trkpt lat="40.072842" lon="-105.230575">
  <ele>1586.09</ele>
  <time>2026-08-27T18:28:41Z</time>
  <course>266.62</course>
  <speed>0.0</speed>
  <fix>3d</fix>
</trkpt>
<trkpt lat="40.072842" lon="-105.230575">
  <ele>1586.09</ele>
  <time>2026-08-27T18:28:41Z</time>
  <course>356.49</course>
  <speed>0.0</speed>
  <fix>3d</fix>
</trkpt>
<trkpt lat="40.072842" lon="-105.230575">
  <ele>1586.09</ele>
  <time>2026-08-27T18:28:41Z</time>
  <course>356.45</course>
  <speed>0.0</speed>
  <fix>3d</fix>
</trkpt>
<trkpt lat="40.072842" lon="-105.230575">
  <ele>1586.09</ele>
  <time>2026-08-27T18:28:41Z</time>
  <course>266.4</course>
  <speed>0.0</speed>
  <fix>3d</fix>
</trkpt>
<trkpt lat="40.072842" lon="-105.230575">
  <ele>1586.1</ele>
  <time>2026-08-27T18:28:41Z</time>
  <course>356.44</course>
  <speed>0.0</speed>
  <fix>3d</fix>
</trkpt>
<trkpt lat="40.072842" lon="-105.230575">
  <ele>1586.11</ele>
  <time>2026-08-27T18:28:41Z</time>
  <course>356.39</course>
  <speed>0.0</speed>
  <fix>3d</fix>
</trkpt>
<trkpt lat="40.072842" lon="-105.230575">
  <ele>1586.09</ele>
  <time>2026-08-27T18:28:41Z</time>
  <course>265.45</course>
  <speed>0.0</speed>
  <fix>3d</fix>
</trkpt>
<trkpt lat="40.072842" lon="-105.230575">
  <ele>1586.12</ele>
  <time>2026-08-27T18:28:41Z</time>
  <course>356.37</course>
  <speed>0.0</speed>
  <fix>3d</fix>
</trkpt>
<trkpt lat="40.072842" lon="-105.230575">
  <ele>1586.17</ele>
  <time>2026-08-27T18:28:41Z</time>
  <course>356.31</course>
  <speed>0.0</speed>
  <fix>3d</fix>
</trkpt>
<trkpt lat="40.072842" lon="-105.230575">
  <ele>1586.12</ele>
  <time>2026-08-27T18:28:41Z</time>
  <course>265.51</course>
  <speed>0.0</speed>
  <fix>3d</fix>
</trkpt>
<trkpt lat="40.072842" lon="-105.230575">
  <ele>1586.17</ele>
  <time>2026-08-27T18:28:41Z</time>
  <course>356.3</course>
  <speed>0.0</speed>
  <fix>3d</fix>
</trkpt>
<trkpt lat="40.072842" lon="-105.230575">
  <ele>1586.21</ele>
  <time>2026-08-27T18:28:41Z</time>
  <course>356.22</course>
  <speed>0.0</speed>
  <fix>3d</fix>
</trkpt>
<trkpt lat="40.072842" lon="-105.230575">
  <ele>1586.17</ele>
  <time>2026-08-27T18:28:41Z</time>
  <course>285.86</course>
  <speed>0.0</speed>
  <fix>3d</fix>
</trkpt>
<trkpt lat="40.072842" lon="-105.230575">
  <ele>1586.22</ele>
  <time>2026-08-27T18:28:41Z</time>
  <course>356.18</course>
  <speed>0.0</speed>
  <fix>3d</fix>
</trkpt>
<trkpt lat="40.072842" lon="-105.2305751">
  <ele>1586.34</ele>
  <time>2026-08-27T18:28:41Z</time>
  <course>351.41</course>
  <speed>0.08062257748298549</speed>
  <fix>3d</fix>
</trkpt>
<trkpt lat="40.072842" lon="-105.230575">
  <ele>1586.23</ele>
  <time>2026-08-27T18:28:41Z</time>
  <course>264.31</course>
  <speed>0.01</speed>
  <fix>3d</fix>
</trkpt>
<trkpt lat="40.072842" lon="-105.2305751">
  <ele>1586.37</ele>
  <time>2026-08-27T18:28:41Z</time>
  <course>350.92</course>
  <speed>0.1004987562112089</speed>
  <fix>3d</fix>
</trkpt>
<trkpt lat="40.072842" lon="-105.2305753">
  <ele>1586.57</ele>
  <time>2026-08-27T18:28:41Z</time>
  <course>350.92</course>
  <speed>0.1824828759089466</speed>
  <fix>3d</fix>
</trkpt>
<trkpt lat="40.072842" lon="-105.2305751">
  <ele>1586.38</ele>
  <time>2026-08-27T18:28:41Z</time>
  <course>261.09</course>
  <speed>0.1</speed>
  <fix>3d</fix>
</trkpt>
<trkpt lat="40.072842" lon="-105.2305755">
  <ele>1586.6</ele>
  <time>2026-08-27T18:28:41Z</time>
  <course>351.01</course>
  <speed>0.19235384061671343</speed>
  <fix>3d</fix>
</trkpt>
<trkpt lat="40.0728419" lon="-105.2305758">
  <ele>1586.72</ele>
  <time>2026-08-27T18:28:42Z</time>
  <course>350.99</course>
  <speed>0.22561028345356957</speed>
  <fix>3d</fix>
</trkpt>
<trkpt lat="40.072842" lon="-105.2305754">
  <ele>1586.59</ele>
  <time>2026-08-27T18:28:42Z</time>
  <course>259.12</course>
  <speed>0.19</speed>
  <fix>3d</fix>
</trkpt>
<trkpt lat="40.0728419" lon="-105.230576">
  <ele>1586.74</ele>
  <time>2026-08-27T18:28:42Z</time>
  <course>350.92</course>
  <speed>0.22561028345356957</speed>
  <fix>3d</fix>
</trkpt>
<trkpt lat="40.0728418" lon="-105.2305763">
  <ele>1586.83</ele>
  <time>2026-08-27T18:28:42Z</time>
  <course>350.5</course>
  <speed>0.24041630560342614</speed>
  <fix>3d</fix>
</trkpt>
<trkpt lat="40.0728419" lon="-105.2305759">
  <ele>1586.73</ele>
  <time>2026-08-27T18:28:42Z</time>
  <course>256.16</course>
  <speed>0.23</speed>
  <fix>3d</fix>
</trkpt>
<trkpt lat="40.0728418" lon="-105.2305765">
  <ele>1586.84</ele>
  <time>2026-08-27T18:28:42Z</time>
  <course>350.46</course>
  <speed>0.24041630560342614</speed>
  <fix>3d</fix>
</trkpt>
<trkpt lat="40.0728417" lon="-105.230577">
  <ele>1586.92</ele>
  <time>2026-08-27T18:28:42Z</time>
  <course>350.39</course>
  <speed>0.24698178070456936</speed>
  <fix>3d</fix>
</trkpt>
<trkpt lat="40.0728418" lon="-105.2305765">
  <ele>1586.84</ele>
  <time>2026-08-27T18:28:42Z</time>
  <course>252.5</course>
  <speed>0.24</speed>
  <fix>3d</fix>
</trkpt>
<trkpt lat="40.0728415" lon="-105.230577">
  <ele>1586.94</ele>
  <time>2026-08-27T18:28:42Z</time>
  <course>350.39</course>
  <speed>0.24698178070456936</speed>
  <fix>3d</fix>
</trkpt>
<trkpt lat="40.0728414" lon="-105.2305775">
  <ele>1587.01</ele>
  <time>2026-08-27T18:28:42Z</time>
  <course>350.44</course>
  <speed>0.25079872407968906</speed>
  <fix>3d</fix>
</trkpt>
<trkpt lat="40.0728416" lon="-105.2305771">
  <ele>1586.93</ele>
  <time>2026-08-27T18:28:42Z</time>
  <course>248.61</course>
  <speed>0.25</speed>
  <fix>3d</fix>
</trkpt>
<trkpt lat="40.0728414" lon="-105.2305775">
  <ele>1587.03</ele>
  <time>2026-08-27T18:28:42Z</time>
  <course>350.45</course>
  <speed>0.24166091947189144</speed>
  <fix>3d</fix>
</trkpt>
<trkpt lat="40.0728413" lon="-105.230578">
  <ele>1587.11</ele>
  <time>2026-08-27T18:28:42Z</time>
  <course>350.49</course>
  <speed>0.24186773244895649</speed>
  <fix>3d</fix>
</trkpt>
<trkpt lat="40.0728414" lon="-105.2305776">
  <ele>1587.03</ele>
  <time>2026-08-27T18:28:42Z</time>
  <course>244.57</course>
  <speed>0.25</speed>
  <fix>3d</fix>
</trkpt>
<trkpt lat="40.0728413" lon="-105.2305782">
  <ele>1587.12</ele>
  <time>2026-08-27T18:28:42Z</time>
  <course>350.5</course>
  <speed>0.24186773244895649</speed>
  <fix>3d</fix>
</trkpt>
<trkpt lat="40.0728411" lon="-105.2305786">
  <ele>1587.21</ele>
  <time>2026-08-27T18:28:42Z</time>
  <course>350.58</course>
  <speed>0.23853720883753127</speed>
  <fix>3d</fix>
</trkpt>
<trkpt lat="40.0728412" lon="-105.2305781">
  <ele>1587.12</ele>
  <time>2026-08-27T18:28:42Z</time>
  <course>240.44</course>
  <speed>0.24</speed>
  <fix>3d</fix>
</trkpt>
<trkpt lat="40.0728409" lon="-105.2305787">
  <ele>1587.22</ele>
  <time>2026-08-27T18:28:42Z</time>
  <course>350.6</course>
  <speed>0.23853720883753127</speed>
  <fix>3d</fix>
</trkpt>
<trkpt lat="40.0728408" lon="-105.2305791">
  <ele>1587.31</ele>
  <time>2026-08-27T18:28:42Z</time>
  <course>350.72</course>
  <speed>0.23600847442411893</speed>
  <fix>3d</fix>
</trkpt>
<trkpt lat="40.0728409" lon="-105.2305786">
  <ele>1587.22</ele>
  <time>2026-08-27T18:28:42Z</time>
  <course>236.35</course>
  <speed>0.24</speed>
  <fix>3d</fix>
</trkpt>
<trkpt lat="40.0728408" lon="-105.2305791">
  <ele>1587.33</ele>
  <time>2026-08-27T18:28:42Z</time>
  <course>350.74</course>
  <speed>0.23600847442411893</speed>
  <fix>3d</fix>
</trkpt>
<trkpt lat="40.0728405" lon="-105.2305794">
  <ele>1587.42</ele>
  <time>2026-08-27T18:28:42Z</time>
  <course>350.89</course>
  <speed>0.23430749027719963</speed>
  <fix>3d</fix>
</trkpt>
<trkpt lat="40.0728407" lon="-105.2305791">
  <ele>1587.33</ele>
  <time>2026-08-27T18:28:42Z</time>
  <course>232.4</course>
  <speed>0.24</speed>
  <fix>3d</fix>
</trkpt>
<trkpt lat="40.0728405" lon="-105.2305796">
  <ele>1587.44</ele>
  <time>2026-08-27T18:28:42Z</time>
  <course>350.93</course>
  <speed>0.24083189157584592</speed>
  <fix>3d</fix>
</trkpt>
<trkpt lat="40.0728402" lon="-105.2305799">
  <ele>1587.54</ele>
  <time>2026-08-27T18:28:42Z</time>
  <course>351.1</course>
  <speed>0.23345235059857505</speed>
  <fix>3d</fix>
</trkpt>
<trkpt lat="40.0728404" lon="-105.2305796">
  <ele>1587.44</ele>
  <time>2026-08-27T18:28:42Z</time>
  <course>228.68</course>
  <speed>0.24</speed>
  <fix>3d</fix>
</trkpt>
<trkpt lat="40.0728402" lon="-105.2305799">
  <ele>1587.55</ele>
  <time>2026-08-27T18:28:42Z</time>
  <course>351.13</course>
  <speed>0.24041630560342614</speed>
  <fix>3d</fix>
</trkpt>
<trkpt lat="40.0728399" lon="-105.2305803">
  <ele>1587.66</ele>
  <time>2026-08-27T18:28:42Z</time>
  <course>351.33</course>
  <speed>0.24083189157584592</speed>
  <fix>3d</fix>
</trkpt>
<trkpt lat="40.0728401" lon="-105.23058">
  <ele>1587.56</ele>
  <time>2026-08-27T18:28:42Z</time>
  <course>225.24</course>
  <speed>0.24</speed>
  <fix>3d</fix>
</trkpt>
<trkpt lat="40.0728399" lon="-105.2305803">
  <ele>1587.68</ele>
  <time>2026-08-27T18:28:42Z</time>
  <course>351.37</course>
  <speed>0.24083189157584592</speed>
  <fix>3d</fix>
</trkpt>
<trkpt lat="40.0728395" lon="-105.2305806">
  <ele>1587.78</ele>
  <time>2026-08-27T18:28:42Z</time>
  <course>351.57</course>
  <speed>0.2420743687382041</speed>
  <fix>3d</fix>
</trkpt>
<trkpt lat="40.0728398" lon="-105.2305803">
  <ele>1587.67</ele>
  <time>2026-08-27T18:28:42Z</time>
  <course>222.15</course>
  <speed>0.24</speed>
  <fix>3d</fix>
</trkpt>
<trkpt lat="40.0728395" lon="-105.2305808">
  <ele>1587.8</ele>
  <time>2026-08-27T18:28:42Z</time>
  <course>351.61</course>
  <speed>0.2420743687382041</speed>
  <fix>3d</fix>
</trkpt>
<trkpt lat="40.0728392" lon="-105.2305811">
  <ele>1587.9</ele>
  <time>2026-08-27T18:28:42Z</time>
  <course>351.82</course>
  <speed>0.2420743687382041</speed>
  <fix>3d</fix>
</trkpt>
<trkpt lat="40.0728395" lon="-105.2305807">
  <ele>1587.8</ele>
  <time>2026-08-27T18:28:42Z</time>
  <course>219.35</course>
  <speed>0.24</speed>
  <fix>3d</fix>
</trkpt>
<trkpt lat="40.0728392" lon="-105.2305811">
  <ele>1587.92</ele>
  <time>2026-08-27T18:28:42Z</time>
  <course>351.86</course>
  <speed>0.25</speed>
  <fix>3d</fix>
</trkpt>
<trkpt lat="40.0728389" lon="-105.2305813">
  <ele>1588.03</ele>
  <time>2026-08-27T18:28:42Z</time>
  <course>352.07</course>
  <speed>0.24413111231467405</speed>
  <fix>3d</fix>
</trkpt>
<trkpt lat="40.0728392" lon="-105.2305811">
  <ele>1587.92</ele>
  <time>2026-08-27T18:28:42Z</time>
  <course>216.85</course>
  <speed>0.25</speed>
  <fix>3d</fix>
</trkpt>
<trkpt lat="40.0728388" lon="-105.2305813">
  <ele>1588.04</ele>
  <time>2026-08-27T18:28:42Z</time>
  <course>352.1</course>
  <speed>0.24413111231467405</speed>
  <fix>3d</fix>
</trkpt>
<trkpt lat="40.0728384" lon="-105.2305818">
  <ele>1588.15</ele>
  <time>2026-08-27T18:28:42Z</time>
  <course>352.32</course>
  <speed>0.25238858928247926</speed>
  <fix>3d</fix>
</trkpt>
<trkpt lat="40.0728388" lon="-105.2305814">
  <ele>1588.05</ele>
  <time>2026-08-27T18:28:42Z</time>
  <course>214.65</course>
  <speed>0.25</speed>
  <fix>3d</fix>
</trkpt>
<trkpt lat="40.0728383" lon="-105.2305818">
  <ele>1588.17</ele>
  <time>2026-08-27T18:28:42Z</time>
  <course>352.35</course>
  <speed>0.25238858928247926</speed>
  <fix>3d</fix>
</trkpt>
<trkpt lat="40.0728381" lon="-105.230582">
  <ele>1588.28</ele>
  <time>2026-08-27T18:28:42Z</time>
  <course>352.56</course>
  <speed>0.25553864678361277</speed>
  <fix>3d</fix>
</trkpt>
<trkpt lat="40.0728383" lon="-105.2305818">
  <ele>1588.17</ele>
  <time>2026-08-27T18:28:42Z</time>
  <course>212.67</course>
  <speed>0.25</speed>
  <fix>3d</fix>
</trkpt>
<trkpt lat="40.0728381" lon="-105.230582">
  <ele>1588.29</ele>
  <time>2026-08-27T18:28:42Z</time>
  <course>352.58</course>
  <speed>0.25553864678361277</speed>
  <fix>3d</fix>
</trkpt>
<trkpt lat="40.0728377" lon="-105.2305823">
  <ele>1588.41</ele>
  <time>2026-08-27T18:28:42Z</time>
  <course>352.8</course>
  <speed>0.2641968962724581</speed>
  <fix>3d</fix>
</trkpt>
<trkpt lat="40.072838" lon="-105.2305821">
  <ele>1588.3</ele>
  <time>2026-08-27T18:28:42Z</time>
  <course>210.93</course>
  <speed>0.26</speed>
  <fix>3d</fix>
</trkpt>
<trkpt lat="40.0728376" lon="-105.2305823">
  <ele>1588.42</ele>
  <time>2026-08-27T18:28:42Z</time>
  <course>352.82</course>
  <speed>0.2641968962724581</speed>
  <fix>3d</fix>
</trkpt>
<trkpt lat="40.0728372" lon="-105.2305827">
  <ele>1588.53</ele>
  <time>2026-08-27T18:28:42Z</time>
  <course>353.02</course>
  <speed>0.25942243542145693</speed>
  <fix>3d</fix>
</trkpt>
<trkpt lat="40.0728376" lon="-105.2305824">
  <ele>1588.42</ele>
  <time>2026-08-27T18:28:42Z</time>
  <course>209.38</course>
  <speed>0.26</speed>
  <fix>3d</fix>
</trkpt>
<trkpt lat="40.0728371" lon="-105.2305827">
  <ele>1588.54</ele>
  <time>2026-08-27T18:28:42Z</time>
  <course>353.05</course>
  <speed>0.2683281572999748</speed>
  <fix>3d</fix>
</trkpt>
<trkpt lat="40.0728368" lon="-105.230583">
  <ele>1588.66</ele>
  <time>2026-08-27T18:28:42Z</time>
  <course>353.23</course>
  <speed>0.2683281572999748</speed>
  <fix>3d</fix>
</trkpt>
<trkpt lat="40.0728371" lon="-105.2305827">
  <ele>1588.55</ele>
  <time>2026-08-27T18:28:42Z</time>
  <course>208.02</course>
  <speed>0.27</speed>
  <fix>3d</fix>
</trkpt>
<trkpt lat="40.0728368" lon="-105.230583">
  <ele>1588.67</ele>
  <time>2026-08-27T18:28:42Z</time>
  <course>353.26</course>
  <speed>0.2683281572999748</speed>
  <fix>3d</fix>
</trkpt>
<trkpt lat="40.0728364" lon="-105.2305832">
  <ele>1588.78</ele>
  <time>2026-08-27T18:28:42Z</time>
  <course>353.44</course>
  <speed>0.27730849247724093</speed>
  <fix>3d</fix>
</trkpt>
<trkpt lat="40.0728367" lon="-105.230583">
  <ele>1588.67</ele>
  <time>2026-08-27T18:28:42Z</time>
  <course>206.81</course>
  <speed>0.27</speed>
  <fix>3d</fix>
</trkpt>
<trkpt lat="40.0728363" lon="-105.2305832">
  <ele>1588.8</ele>
  <time>2026-08-27T18:28:42Z</time>
  <course>353.47</course>
  <speed>0.27730849247724093</speed>
  <fix>3d</fix>
</trkpt>
<trkpt lat="40.0728359" lon="-105.2305835">
  <ele>1588.91</ele>
  <time>2026-08-27T18:28:42Z</time>
  <course>353.63</course>
  <speed>0.27313000567495327</speed>
  <fix>3d</fix>
</trkpt>
<trkpt lat="40.0728363" lon="-105.2305833">
  <ele>1588.8</ele>
  <time>2026-08-27T18:28:42Z</time>
  <course>205.74</course>
  <speed>0.28</speed>
  <fix>3d</fix>
</trkpt>
<trkpt lat="40.0728359" lon="-105.2305835">
  <ele>1588.92</ele>
  <time>2026-08-27T18:28:42Z</time>
  <course>353.65</course>
  <speed>0.27313000567495327</speed>
  <fix>3d</fix>
</trkpt>
<trkpt lat="40.0728353" lon="-105.2305837">
  <ele>1589.03</ele>
  <time>2026-08-27T18:28:42Z</time>
  <course>353.82</course>
  <speed>0.2823118842698621</speed>
  <fix>3d</fix>
</trkpt>
<trkpt lat="40.0728358" lon="-105.2305836">
  <ele>1588.92</ele>
  <time>2026-08-27T18:28:42Z</time>
  <course>204.79</course>
  <speed>0.28</speed>
  <fix>3d</fix>
</trkpt>
<trkpt lat="40.0728353" lon="-105.2305839">
  <ele>1589.05</ele>
  <time>2026-08-27T18:28:42Z</time>
  <course>353.84</course>
  <speed>0.2823118842698621</speed>
  <fix>3d</fix>
</trkpt>
<trkpt lat="40.072835" lon="-105.2305841">
  <ele>1589.16</ele>
  <time>2026-08-27T18:28:42Z</time>
  <course>353.99</course>
  <speed>0.2823118842698621</speed>
  <fix>3d</fix>
</trkpt>
<trkpt lat="40.0728353" lon="-105.2305839">
  <ele>1589.05</ele>
  <time>2026-08-27T18:28:42Z</time>
  <course>203.95</course>
  <speed>0.28</speed>
  <fix>3d</fix>
</trkpt>
<trkpt lat="40.0728348" lon="-105.2305842">
  <ele>1589.17</ele>
  <time>2026-08-27T18:28:42Z</time>
  <course>354.01</course>
  <speed>0.2823118842698621</speed>
  <fix>3d</fix>
</trkpt>
<trkpt lat="40.0728345" lon="-105.2305844">
  <ele>1589.29</ele>
  <time>2026-08-27T18:28:42Z</time>
  <course>354.17</course>
  <speed>0.291547594742265</speed>
  <fix>3d</fix>
</trkpt>
<trkpt lat="40.0728349" lon="-105.2305841">
  <ele>1589.17</ele>
  <time>2026-08-27T18:28:42Z</time>
  <course>203.22</course>
  <speed>0.29</speed>
  <fix>3d</fix>
</trkpt>
<trkpt lat="40.0728344" lon="-105.2305844">
  <ele>1589.3</ele>
  <time>2026-08-27T18:28:42Z</time>
  <course>354.19</course>
  <speed>0.291547594742265</speed>
  <fix>3d</fix>
</trkpt>
<trkpt lat="40.072834" lon="-105.2305847">
  <ele>1589.41</ele>
  <time>2026-08-27T18:28:42Z</time>
  <course>354.33</course>
  <speed>0.291547594742265</speed>
  <fix>3d</fix>
</trkpt>
<trkpt lat="40.0728344" lon="-105.2305844">
  <ele>1589.3</ele>
  <time>2026-08-27T18:28:42Z</time>
  <course>202.58</course>
  <speed>0.29</speed>
  <fix>3d</fix>
</trkpt>
<trkpt lat="40.0728339" lon="-105.2305847">
  <ele>1589.43</ele>
  <time>2026-08-27T18:28:42Z</time>
  <course>354.35</course>
  <speed>0.291547594742265</speed>
  <fix>3d</fix>
</trkpt>
<trkpt lat="40.0728335" lon="-105.2305849">
  <ele>1589.54</ele>
  <time>2026-08-27T18:28:42Z</time>
  <course>354.49</course>
  <speed>0.291547594742265</speed>
  <fix>3d</fix>
</trkpt>
<trkpt lat="40.0728339" lon="-105.2305847">
  <ele>1589.43</ele>
  <time>2026-08-27T18:28:42Z</time>
  <course>202.03</course>
  <speed>0.29</speed>
  <fix>3d</fix>
</trkpt>
<trkpt lat="40.0728335" lon="-105.2305849">
  <ele>1589.55</ele>
  <time>2026-08-27T18:28:42Z</time>
  <course>354.5</course>
  <speed>0.291547594742265</speed>
  <fix>3d</fix>
</trkpt>
<trkpt lat="40.0728329" lon="-105.2305851">
  <ele>1589.66</ele>
  <time>2026-08-27T18:28:42Z</time>
  <course>354.64</course>
  <speed>0.2973213749463701</speed>
  <fix>3d</fix>
</trkpt>
<trkpt lat="40.0728334" lon="-105.2305849">
  <ele>1589.56</ele>
  <time>2026-08-27T18:28:42Z</time>
  <course>201.55</course>
  <speed>0.3</speed>
  <fix>3d</fix>
</trkpt>
<trkpt lat="40.0728329" lon="-105.2305851">
  <ele>1589.68</ele>
  <time>2026-08-27T18:28:42Z</time>
  <course>354.66</course>
  <speed>0.2973213749463701</speed>
  <fix>3d</fix>
</trkpt>
<trkpt lat="40.0728324" lon="-105.2305854">
  <ele>1589.79</ele>
  <time>2026-08-27T18:28:42Z</time>
  <course>354.79</course>
  <speed>0.2973213749463701</speed>
  <fix>3d</fix>
</trkpt>
<trkpt lat="40.0728329" lon="-105.2305852">
  <ele>1589.68</ele>
  <time>2026-08-27T18:28:42Z</time>
  <course>201.13</course>
  <speed>0.3</speed>
  <fix>3d</fix>
</trkpt>
<trkpt lat="40.0728323" lon="-105.2305854">
  <ele>1589.8</ele>
  <time>2026-08-27T18:28:42Z</time>
  <course>354.8</course>
  <speed>0.2973213749463701</speed>
  <fix>3d</fix>
</trkpt>
<trkpt lat="40.072832" lon="-105.2305856">
  <ele>1589.91</ele>
  <time>2026-08-27T18:28:42Z</time>
  <course>354.93</course>
  <speed>0.2973213749463701</speed>
  <fix>3d</fix>
</trkpt>
<trkpt lat="40.0728323" lon="-105.2305854">
  <ele>1589.81</ele>
  <time>2026-08-27T18:28:42Z</time>
  <course>200.75</course>
  <speed>0.3</speed>
  <fix>3d</fix>
</trkpt>
<trkpt lat="40.0728319" lon="-105.2305856">
  <ele>1589.93</ele>
  <time>2026-08-27T18:28:42Z</time>
  <course>354.94</course>
  <speed>0.2973213749463701</speed>
  <fix>3d</fix>
</trkpt>
<trkpt lat="40.0728315" lon="-105.2305859">
  <ele>1590.04</ele>
  <time>2026-08-27T18:28:42Z</time>
  <course>355.06</course>
  <speed>0.2973213749463701</speed>
  <fix>3d</fix>
</trkpt>
<trkpt lat="40.0728318" lon="-105.2305857">
  <ele>1589.93</ele>
  <time>2026-08-27T18:28:42Z</time>
  <course>200.43</course>
  <speed>0.3</speed>
  <fix>3d</fix>
</trkpt>
<trkpt lat="40.0728314" lon="-105.2305859">
  <ele>1590.05</ele>
  <time>2026-08-27T18:28:42Z</time>
  <course>355.07</course>
  <speed>0.2973213749463701</speed>
  <fix>3d</fix>
</trkpt>
<trkpt lat="40.0728309" lon="-105.2305861">
  <ele>1590.16</ele>
  <time>2026-08-27T18:28:42Z</time>
  <course>355.19</course>
  <speed>0.30675723300355934</speed>
  <fix>3d</fix>
</trkpt>
<trkpt lat="40.0728313" lon="-105.2305859">
  <ele>1590.06</ele>
  <time>2026-08-27T18:28:42Z</time>
  <course>200.16</course>
  <speed>0.3</speed>
  <fix>3d</fix>
</trkpt>
<trkpt lat="40.0728309" lon="-105.2305861">
  <ele>1590.18</ele>
  <time>2026-08-27T18:28:42Z</time>
  <course>355.2</course>
  <speed>0.30675723300355934</speed>
  <fix>3d</fix>
</trkpt>
<trkpt lat="40.0728304" lon="-105.2305863">
  <ele>1590.29</ele>
  <time>2026-08-27T18:28:42Z</time>
  <course>355.31</course>
  <speed>0.30675723300355934</speed>
  <fix>3d</fix>
</trkpt>
<trkpt lat="40.0728308" lon="-105.2305862">
  <ele>1590.18</ele>
  <time>2026-08-27T18:28:42Z</time>
  <course>199.94</course>
  <speed>0.31</speed>
  <fix>3d</fix>
</trkpt>
<trkpt lat="40.0728303" lon="-105.2305865">
  <ele>1590.31</ele>
  <time>2026-08-27T18:28:42Z</time>
  <course>355.33</course>
  <speed>0.30675723300355934</speed>
  <fix>3d</fix>
</trkpt>
<trkpt lat="40.0728298" lon="-105.2305866">
  <ele>1590.42</ele>
  <time>2026-08-27T18:28:42Z</time>
  <course>355.42</course>
  <speed>0.30675723300355934</speed>
  <fix>3d</fix>
</trkpt>
<trkpt lat="40.0728303" lon="-105.2305864">
  <ele>1590.31</ele>
  <time>2026-08-27T18:28:42Z</time>
  <course>199.76</course>
  <speed>0.31</speed>
  <fix>3d</fix>
</trkpt>
<trkpt lat="40.0728298" lon="-105.2305866">
  <ele>1590.44</ele>
  <time>2026-08-27T18:28:42Z</time>
  <course>355.44</course>
  <speed>0.30675723300355934</speed>
  <fix>3d</fix>
</trkpt>
<trkpt lat="40.0728293" lon="-105.2305868">
  <ele>1590.54</ele>
  <time>2026-08-27T18:28:42Z</time>
  <course>355.54</course>
  <speed>0.30675723300355934</speed>
  <fix>3d</fix>
</trkpt>
<trkpt lat="40.0728297" lon="-105.2305867">
  <ele>1590.43</ele>
  <time>2026-08-27T18:28:42Z</time>
  <course>199.62</course>
  <speed>0.31</speed>
  <fix>3d</fix>
</trkpt>
<trkpt lat="40.0728292" lon="-105.2305868">
  <ele>1590.55</ele>
  <time>2026-08-27T18:28:42Z</time>
  <course>355.55</course>
  <speed>0.30675723300355934</speed>
  <fix>3d</fix>
</trkpt>
<trkpt lat="40.0728287" lon="-105.2305872">
  <ele>1590.67</ele>
  <time>2026-08-27T18:28:42Z</time>
  <course>355.65</course>
  <speed>0.30675723300355934</speed>
  <fix>3d</fix>
</trkpt>
<trkpt lat="40.0728292" lon="-105.2305869">
  <ele>1590.56</ele>
  <time>2026-08-27T18:28:42Z</time>
  <course>199.51</course>
  <speed>0.31</speed>
  <fix>3d</fix>
</trkpt>
<trkpt lat="40.0728286" lon="-105.2305872">
  <ele>1590.69</ele>
  <time>2026-08-27T18:28:42Z</time>
  <course>355.66</course>
  <speed>0.30675723300355934</speed>
  <fix>3d</fix>
</trkpt>
<trkpt lat="40.0728283" lon="-105.2305873">
  <ele>1590.79</ele>
  <time>2026-08-27T18:28:42Z</time>
  <course>355.75</course>
  <speed>0.30675723300355934</speed>
  <fix>3d</fix>
</trkpt>
<trkpt lat="40.0728287" lon="-105.2305872">
  <ele>1590.69</ele>
  <time>2026-08-27T18:28:42Z</time>
  <course>199.42</course>
  <speed>0.31</speed>
  <fix>3d</fix>
</trkpt>
<trkpt lat="40.0728281" lon="-105.2305873">
  <ele>1590.81</ele>
  <time>2026-08-27T18:28:42Z</time>
  <course>355.77</course>
  <speed>0.30675723300355934</speed>
  <fix>3d</fix>
</trkpt>
<trkpt lat="40.0728278" lon="-105.2305877">
  <ele>1590.92</ele>
  <time>2026-08-27T18:28:42Z</time>
  <course>355.85</course>
  <speed>0.30675723300355934</speed>
  <fix>3d</fix>
</trkpt>
<trkpt lat="40.0728282" lon="-105.2305874">
  <ele>1590.81</ele>
  <time>2026-08-27T18:28:42Z</time>
  <course>199.35</course>
  <speed>0.31</speed>
  <fix>3d</fix>
</trkpt>
<trkpt lat="40.0728277" lon="-105.2305877">
  <ele>1590.94</ele>
  <time>2026-08-27T18:28:42Z</time>
  <course>355.86</course>
  <speed>0.30675723300355934</speed>
  <fix>3d</fix>
</trkpt>
<trkpt lat="40.0728272" lon="-105.2305878">
  <ele>1591.04</ele>
  <time>2026-08-27T18:28:42Z</time>
  <course>355.94</course>
  <speed>0.30675723300355934</speed>
  <fix>3d</fix>
</trkpt>
<trkpt lat="40.0728276" lon="-105.2305877">
  <ele>1590.94</ele>
  <time>2026-08-27T18:28:42Z</time>
  <course>199.31</course>
  <speed>0.31</speed>
  <fix>3d</fix>
</trkpt>
<trkpt lat="40.0728271" lon="-105.2305878">
  <ele>1591.06</ele>
  <time>2026-08-27T18:28:42Z</time>
  <course>355.95</course>
  <speed>0.30675723300355934</speed>
  <fix>3d</fix>
</trkpt>
<trkpt lat="40.0728267" lon="-105.230588">
  <ele>1591.17</ele>
  <time>2026-08-27T18:28:42Z</time>
  <course>356.04</course>
  <speed>0.30675723300355934</speed>
  <fix>3d</fix>
</trkpt>
<trkpt lat="40.0728271" lon="-105.2305879">
  <ele>1591.06</ele>
  <time>2026-08-27T18:28:42Z</time>
  <course>199.31</course>
  <speed>0.31</speed>
  <fix>3d</fix>
</trkpt>
<trkpt lat="40.0728266" lon="-105.2305882">
  <ele>1591.19</ele>
  <time>2026-08-27T18:28:42Z</time>
  <course>356.05</course>
  <speed>0.30675723300355934</speed>
  <fix>3d</fix>
</trkpt>
<trkpt lat="40.0728262" lon="-105.2305884">
  <ele>1591.3</ele>
  <time>2026-08-27T18:28:42Z</time>
  <course>356.12</course>
  <speed>0.30675723300355934</speed>
  <fix>3d</fix>
</trkpt>
<trkpt lat="40.0728266" lon="-105.2305882">
  <ele>1591.19</ele>
  <time>2026-08-27T18:28:42Z</time>
  <course>199.31</course>
  <speed>0.31</speed>
  <fix>3d</fix>
</trkpt>
<trkpt lat="40.0728261" lon="-105.2305884">
  <ele>1591.31</ele>
  <time>2026-08-27T18:28:42Z</time>
  <course>356.13</course>
  <speed>0.30675723300355934</speed>
  <fix>3d</fix>
</trkpt>
<trkpt lat="40.0728256" lon="-105.2305885">
  <ele>1591.42</ele>
  <time>2026-08-27T18:28:42Z</time>
  <course>356.21</course>
  <speed>0.30675723300355934</speed>
  <fix>3d</fix>
</trkpt>
<trkpt lat="40.072826" lon="-105.2305884">
  <ele>1591.31</ele>
  <time>2026-08-27T18:28:42Z</time>
  <course>199.34</course>
  <speed>0.31</speed>
  <fix>3d</fix>
</trkpt>
<trkpt lat="40.0728255" lon="-105.2305887">
  <ele>1591.44</ele>
  <time>2026-08-27T18:28:42Z</time>
  <course>356.22</course>
  <speed>0.30675723300355934</speed>
  <fix>3d</fix>
</trkpt>
<trkpt lat="40.072825" lon="-105.2305889">
  <ele>1591.55</ele>
  <time>2026-08-27T18:28:42Z</time>
  <course>356.28</course>
  <speed>0.30675723300355934</speed>
  <fix>3d</fix>
</trkpt>
<trkpt lat="40.0728255" lon="-105.2305887">
  <ele>1591.44</ele>
  <time>2026-08-27T18:28:42Z</time>
  <course>199.39</course>
  <speed>0.31</speed>
  <fix>3d</fix>
</trkpt>
<trkpt lat="40.072825" lon="-105.2305889">
  <ele>1591.57</ele>
  <time>2026-08-27T18:28:42Z</time>
  <course>356.29</course>
  <speed>0.30675723300355934</speed>
  <fix>3d</fix>
</trkpt>
<trkpt lat="40.0728245" lon="-105.230589">
  <ele>1591.67</ele>
  <time>2026-08-27T18:28:42Z</time>
  <course>356.36</course>
  <speed>0.30675723300355934</speed>
  <fix>3d</fix>
</trkpt>
<trkpt lat="40.0728249" lon="-105.2305888">
  <ele>1591.56</ele>
  <time>2026-08-27T18:28:42Z</time>
  <course>199.46</course>
  <speed>0.31</speed>
  <fix>3d</fix>
</trkpt>
<trkpt lat="40.0728244" lon="-105.2305892">
  <ele>1591.69</ele>
  <time>2026-08-27T18:28:42Z</time>
  <course>356.38</course>
  <speed>0.30675723300355934</speed>
  <fix>3d</fix>
</trkpt>
<trkpt lat="40.072824" lon="-105.2305894">
  <ele>1591.8</ele>
  <time>2026-08-27T18:28:42Z</time>
  <course>356.43</course>
  <speed>0.30675723300355934</speed>
  <fix>3d</fix>
</trkpt>
<trkpt lat="40.0728244" lon="-105.2305891">
  <ele>1591.69</ele>
  <time>2026-08-27T18:28:42Z</time>
  <course>199.55</course>
  <speed>0.31</speed>
  <fix>3d</fix>
</trkpt>
<trkpt lat="40.0728238" lon="-105.2305894">
  <ele>1591.82</ele>
  <time>2026-08-27T18:28:42Z</time>
  <course>356.45</course>
  <speed>0.30675723300355934</speed>
  <fix>3d</fix>
</trkpt>
<trkpt lat="40.0728235" lon="-105.2305896">
  <ele>1591.92</ele>
  <time>2026-08-27T18:28:42Z</time>
  <course>356.51</course>
  <speed>0.30675723300355934</speed>
  <fix>3d</fix>
</trkpt>
<trkpt lat="40.0728239" lon="-105.2305893">
  <ele>1591.82</ele>
  <time>2026-08-27T18:28:42Z</time>
  <course>199.64</course>
  <speed>0.31</speed>
  <fix>3d</fix>
</trkpt>
<trkpt lat="40.0728234" lon="-105.2305897">
  <ele>1591.94</ele>
  <time>2026-08-27T18:28:42Z</time>
  <course>356.52</course>
  <speed>0.30675723300355934</speed>
  <fix>3d</fix>
</trkpt>
<trkpt lat="40.072823" lon="-105.2305899">
  <ele>1592.05</ele>
  <time>2026-08-27T18:28:42Z</time>
  <course>356.58</course>
  <speed>0.30675723300355934</speed>
  <fix>3d</fix>
</trkpt>
<trkpt lat="40.0728234" lon="-105.2305896">
  <ele>1591.94</ele>
  <time>2026-08-27T18:28:42Z</time>
  <course>199.74</course>
  <speed>0.31</speed>
  <fix>3d</fix>
</trkpt>
<trkpt lat="40.0728229" lon="-105.2305899">
  <ele>1592.07</ele>
  <time>2026-08-27T18:28:42Z</time>
  <course>356.59</course>
  <speed>0.30675723300355934</speed>
  <fix>3d</fix>
</trkpt>
<trkpt lat="40.0728224" lon="-105.2305901">
  <ele>1592.17</ele>
  <time>2026-08-27T18:28:42Z</time>
  <course>356.65</course>
  <speed>0.30675723300355934</speed>
  <fix>3d</fix>
</trkpt>
<trkpt lat="40.0728228" lon="-105.2305898">
  <ele>1592.07</ele>
  <time>2026-08-27T18:28:42Z</time>
  <course>199.85</course>
  <speed>0.31</speed>
  <fix>3d</fix>
</trkpt>
<trkpt lat="40.0728224" lon="-105.2305902">
  <ele>1592.2</ele>
  <time>2026-08-27T18:28:42Z</time>
  <course>356.66</course>
  <speed>0.30675723300355934</speed>
  <fix>3d</fix>
</trkpt>
<trkpt lat="40.0728219" lon="-105.2305904">
  <ele>1592.3</ele>
  <time>2026-08-27T18:28:42Z</time>
  <course>356.71</course>
  <speed>0.30675723300355934</speed>
  <fix>3d</fix>
</trkpt>
<trkpt lat="40.0728223" lon="-105.2305901">
  <ele>1592.19</ele>
  <time>2026-08-27T18:28:42Z</time>
  <course>199.97</course>
  <speed>0.31</speed>
  <fix>3d</fix>
</trkpt>
<trkpt lat="40.0728218" lon="-105.2305904">
  <ele>1592.33</ele>
  <time>2026-08-27T18:28:42Z</time>
  <course>356.72</course>
  <speed>0.30675723300355934</speed>
  <fix>3d</fix>
</trkpt>
<trkpt lat="40.0728213" lon="-105.2305906">
  <ele>1592.43</ele>
  <time>2026-08-27T18:28:42Z</time>
  <course>356.78</course>
  <speed>0.30675723300355934</speed>
  <fix>3d</fix>
</trkpt>
<trkpt lat="40.0728218" lon="-105.2305903">
  <ele>1592.32</ele>
  <time>2026-08-27T18:28:42Z</time>
  <course>200.11</course>
  <speed>0.31</speed>
  <fix>3d</fix>
</trkpt>
<trkpt lat="40.0728213" lon="-105.2305906">
  <ele>1592.45</ele>
  <time>2026-08-27T18:28:42Z</time>
  <course>356.79</course>
  <speed>0.30675723300355934</speed>
  <fix>3d</fix>
</trkpt>
<trkpt lat="40.0728208" lon="-105.2305909">
  <ele>1592.55</ele>
  <time>2026-08-27T18:28:42Z</time>
  <course>356.84</course>
  <speed>0.2973213749463701</speed>
  <fix>3d</fix>
</trkpt>
<trkpt lat="40.0728213" lon="-105.2305906">
  <ele>1592.44</ele>
  <time>2026-08-27T18:28:42Z</time>
  <course>200.26</course>
  <speed>0.3</speed>
  <fix>3d</fix>
</trkpt>
<trkpt lat="40.0728207" lon="-105.2305909">
  <ele>1592.57</ele>
  <time>2026-08-27T18:28:42Z</time>
  <course>356.85</course>
  <speed>0.2973213749463701</speed>
  <fix>3d</fix>
</trkpt>
<trkpt lat="40.0728204" lon="-105.2305911">
  <ele>1592.68</ele>
  <time>2026-08-27T18:28:42Z</time>
  <course>356.9</course>
  <speed>0.2973213749463701</speed>
  <fix>3d</fix>
</trkpt>
<trkpt lat="40.0728207" lon="-105.2305909">
  <ele>1592.57</ele>
  <time>2026-08-27T18:28:42Z</time>
  <course>200.41</course>
  <speed>0.3</speed>
  <fix>3d</fix>
</trkpt>
<trkpt lat="40.0728202" lon="-105.2305911">
  <ele>1592.7</ele>
  <time>2026-08-27T18:28:42Z</time>
  <course>356.91</course>
  <speed>0.2973213749463701</speed>
  <fix>3d</fix>
</trkpt>
<trkpt lat="40.0728198" lon="-105.2305914">
  <ele>1592.8</ele>
  <time>2026-08-27T18:28:42Z</time>
  <course>356.97</course>
  <speed>0.2973213749463701</speed>
  <fix>3d</fix>
</trkpt>
<trkpt lat="40.0728202" lon="-105.2305911">
  <ele>1592.7</ele>
  <time>2026-08-27T18:28:42Z</time>
  <course>200.56</course>
  <speed>0.3</speed>
  <fix>3d</fix>
</trkpt>
<trkpt lat="40.0728198" lon="-105.2305914">
  <ele>1592.82</ele>
  <time>2026-08-27T18:28:42Z</time>
  <course>356.97</course>
  <speed>0.2973213749463701</speed>
  <fix>3d</fix>
</trkpt>
<trkpt lat="40.0728193" lon="-105.2305916">
  <ele>1592.93</ele>
  <time>2026-08-27T18:28:42Z</time>
  <course>357.03</course>
  <speed>0.2973213749463701</speed>
  <fix>3d</fix>
</trkpt>
<trkpt lat="40.0728197" lon="-105.2305914">
  <ele>1592.82</ele>
  <time>2026-08-27T18:28:42Z</time>
  <course>200.71</course>
  <speed>0.3</speed>
  <fix>3d</fix>
</trkpt>
<trkpt lat="40.0728192" lon="-105.2305916">
  <ele>1592.95</ele>
  <time>2026-08-27T18:28:42Z</time>
  <course>357.03</course>
  <speed>0.2973213749463701</speed>
  <fix>3d</fix>
</trkpt>
<trkpt lat="40.0728188" lon="-105.2305918">
  <ele>1593.05</ele>
  <time>2026-08-27T18:28:42Z</time>
  <course>357.09</course>
  <speed>0.2973213749463701</speed>
  <fix>3d</fix>
</trkpt>
<trkpt lat="40.0728192" lon="-105.2305916">
  <ele>1592.95</ele>
  <time>2026-08-27T18:28:42Z</time>
  <course>200.87</course>
  <speed>0.3</speed>
  <fix>3d</fix>
</trkpt>
<trkpt lat="40.0728187" lon="-105.2305918">
  <ele>1593.07</ele>
  <time>2026-08-27T18:28:42Z</time>
  <course>357.1</course>
  <speed>0.2973213749463701</speed>
  <fix>3d</fix>
</trkpt>
<trkpt lat="40.0728183" lon="-105.2305921">
  <ele>1593.18</ele>
  <time>2026-08-27T18:28:42Z</time>
  <course>357.14</course>
  <speed>0.2973213749463701</speed>
  <fix>3d</fix>
</trkpt>
<trkpt lat="40.0728187" lon="-105.2305919">
  <ele>1593.07</ele>
  <time>2026-08-27T18:28:42Z</time>
  <course>201.03</course>
  <speed>0.3</speed>
  <fix>3d</fix>
</trkpt>
<trkpt lat="40.0728182" lon="-105.2305921">
  <ele>1593.2</ele>
  <time>2026-08-27T18:28:42Z</time>
  <course>357.15</course>
  <speed>0.2973213749463701</speed>
  <fix>3d</fix>
</trkpt>
<trkpt lat="40.0728177" lon="-105.2305923">
  <ele>1593.31</ele>
  <time>2026-08-27T18:28:42Z</time>
  <course>357.2</course>
  <speed>0.2879236009777594</speed>
  <fix>3d</fix>
</trkpt>
<trkpt lat="40.0728182" lon="-105.2305921">
  <ele>1593.2</ele>
  <time>2026-08-27T18:28:42Z</time>
  <course>201.2</course>
  <speed>0.3</speed>
  <fix>3d</fix>
</trkpt>
<trkpt lat="40.0728177" lon="-105.2305923">
  <ele>1593.33</ele>
  <time>2026-08-27T18:28:42Z</time>
  <course>357.21</course>
  <speed>0.2879236009777594</speed>
  <fix>3d</fix>
</trkpt>
<trkpt lat="40.0728172" lon="-105.2305926">
  <ele>1593.43</ele>
  <time>2026-08-27T18:28:42Z</time>
  <course>357.25</course>
  <speed>0.2879236009777594</speed>
  <fix>3d</fix>
</trkpt>
<trkpt lat="40.0728177" lon="-105.2305924">
  <ele>1593.32</ele>
  <time>2026-08-27T18:28:42Z</time>
  <course>201.38</course>
  <speed>0.3</speed>
  <fix>3d</fix>
</trkpt>
<trkpt lat="40.0728171" lon="-105.2305926">
  <ele>1593.45</ele>
  <time>2026-08-27T18:28:42Z</time>
  <course>357.26</course>
  <speed>0.2879236009777594</speed>
  <fix>3d</fix>
</trkpt>
<trkpt lat="40.0728168" lon="-105.2305928">
  <ele>1593.56</ele>
  <time>2026-08-27T18:28:42Z</time>
  <course>357.31</course>
  <speed>0.291547594742265</speed>
  <fix>3d</fix>
</trkpt>
<trkpt lat="40.0728172" lon="-105.2305926">
  <ele>1593.45</ele>
  <time>2026-08-27T18:28:42Z</time>
  <course>201.57</course>
  <speed>0.29</speed>
  <fix>3d</fix>
</trkpt>
<trkpt lat="40.0728167" lon="-105.230593">
  <ele>1593.58</ele>
  <time>2026-08-27T18:28:42Z</time>
  <course>357.31</course>
  <speed>0.291547594742265</speed>
  <fix>3d</fix>
</trkpt>
<trkpt lat="40.0728163" lon="-105.2305932">
  <ele>1593.68</ele>
  <time>2026-08-27T18:28:42Z</time>
  <course>357.36</course>
  <speed>0.291547594742265</speed>
  <fix>3d</fix>
</trkpt>
<trkpt lat="40.0728167" lon="-105.2305929">
  <ele>1593.57</ele>
  <time>2026-08-27T18:28:42Z</time>
  <course>201.78</course>
  <speed>0.29</speed>
  <fix>3d</fix>
</trkpt>
<trkpt lat="40.0728162" lon="-105.2305932">
  <ele>1593.7</ele>
  <time>2026-08-27T18:28:42Z</time>
  <course>357.37</course>
  <speed>0.291547594742265</speed>
  <fix>3d</fix>
</trkpt>
<trkpt lat="40.0728158" lon="-105.2305933">
  <ele>1593.81</ele>
  <time>2026-08-27T18:28:42Z</time>
  <course>357.41</course>
  <speed>0.291547594742265</speed>
  <fix>3d</fix>
</trkpt>
<trkpt lat="40.0728162" lon="-105.2305931">
  <ele>1593.7</ele>
  <time>2026-08-27T18:28:42Z</time>
  <course>201.99</course>
  <speed>0.29</speed>
  <fix>3d</fix>
</trkpt>
<trkpt lat="40.0728157" lon="-105.2305935">
  <ele>1593.83</ele>
  <time>2026-08-27T18:28:42Z</time>
  <course>357.42</course>
  <speed>0.291547594742265</speed>
  <fix>3d</fix>
</trkpt>
<trkpt lat="40.0728152" lon="-105.2305937">
  <ele>1593.93</ele>
  <time>2026-08-27T18:28:42Z</time>
  <course>357.46</course>
  <speed>0.291547594742265</speed>
  <fix>3d</fix>
</trkpt>
<trkpt lat="40.0728157" lon="-105.2305934">
  <ele>1593.83</ele>
  <time>2026-08-27T18:28:42Z</time>
  <course>202.19</course>
  <speed>0.29</speed>
  <fix>3d</fix>
</trkpt>
<trkpt lat="40.0728152" lon="-105.2305937">
  <ele>1593.95</ele>
  <time>2026-08-27T18:28:42Z</time>
  <course>357.47</course>
  <speed>0.291547594742265</speed>
  <fix>3d</fix>
</trkpt>
<trkpt lat="40.0728147" lon="-105.230594">
  <ele>1594.06</ele>
  <time>2026-08-27T18:28:42Z</time>
  <course>357.51</course>
  <speed>0.2823118842698621</speed>
  <fix>3d</fix>
</trkpt>
<trkpt lat="40.0728152" lon="-105.2305937">
  <ele>1593.95</ele>
  <time>2026-08-27T18:28:42Z</time>
  <course>202.39</course>
  <speed>0.29</speed>
  <fix>3d</fix>
</trkpt>
<trkpt lat="40.0728147" lon="-105.230594">
  <ele>1594.08</ele>
  <time>2026-08-27T18:28:42Z</time>
  <course>357.52</course>
  <speed>0.2823118842698621</speed>
  <fix>3d</fix>
</trkpt>
<trkpt lat="40.0728144" lon="-105.2305942">
  <ele>1594.18</ele>
  <time>2026-08-27T18:28:42Z</time>
  <course>357.56</course>
  <speed>0.2823118842698621</speed>
  <fix>3d</fix>
</trkpt>
<trkpt lat="40.0728147" lon="-105.230594">
  <ele>1594.08</ele>
  <time>2026-08-27T18:28:42Z</time>
  <course>202.6</course>
  <speed>0.29</speed>
  <fix>3d</fix>
</trkpt>
<trkpt lat="40.0728143" lon="-105.2305942">
  <ele>1594.2</ele>
  <time>2026-08-27T18:28:42Z</time>
  <course>357.57</course>
  <speed>0.2823118842698621</speed>
  <fix>3d</fix>
</trkpt>
<trkpt lat="40.0728139" lon="-105.2305945">
  <ele>1594.31</ele>
  <time>2026-08-27T18:28:42Z</time>
  <course>357.61</course>
  <speed>0.2823118842698621</speed>
  <fix>3d</fix>
</trkpt>
<trkpt lat="40.0728142" lon="-105.2305942">
  <ele>1594.2</ele>
  <time>2026-08-27T18:28:42Z</time>
  <course>202.82</course>
  <speed>0.28</speed>
  <fix>3d</fix>
</trkpt>
<trkpt lat="40.0728138" lon="-105.2305945">
  <ele>1594.33</ele>
  <time>2026-08-27T18:28:42Z</time>
  <course>357.62</course>
  <speed>0.2823118842698621</speed>
  <fix>3d</fix>
</trkpt>
<trkpt lat="40.0728134" lon="-105.2305947">
  <ele>1594.44</ele>
  <time>2026-08-27T18:28:42Z</time>
  <course>357.66</course>
  <speed>0.2823118842698621</speed>
  <fix>3d</fix>
</trkpt>
<trkpt lat="40.0728138" lon="-105.2305945">
  <ele>1594.33</ele>
  <time>2026-08-27T18:28:42Z</time>
  <course>203.06</course>
  <speed>0.28</speed>
  <fix>3d</fix>
</trkpt>
<trkpt lat="40.0728133" lon="-105.2305947">
  <ele>1594.45</ele>
  <time>2026-08-27T18:28:42Z</time>
  <course>357.67</course>
  <speed>0.2823118842698621</speed>
  <fix>3d</fix>
</trkpt>
<trkpt lat="40.0728128" lon="-105.2305949">
  <ele>1594.56</ele>
  <time>2026-08-27T18:28:42Z</time>
  <course>357.71</course>
  <speed>0.27313000567495327</speed>
  <fix>3d</fix>
</trkpt>
<trkpt lat="40.0728133" lon="-105.2305948">
  <ele>1594.45</ele>
  <time>2026-08-27T18:28:42Z</time>
  <course>203.29</course>
  <speed>0.28</speed>
  <fix>3d</fix>
</trkpt>
<trkpt lat="40.0728128" lon="-105.2305949">
  <ele>1594.58</ele>
  <time>2026-08-27T18:28:42Z</time>
  <course>357.71</course>
  <speed>0.27313000567495327</speed>
  <fix>3d</fix>
</trkpt>
<trkpt lat="40.0728125" lon="-105.2305952">
  <ele>1594.69</ele>
  <time>2026-08-27T18:28:42Z</time>
  <course>357.75</course>
  <speed>0.27313000567495327</speed>
  <fix>3d</fix>
</trkpt>
<trkpt lat="40.0728128" lon="-105.230595">
  <ele>1594.58</ele>
  <time>2026-08-27T18:28:42Z</time>
  <course>203.52</course>
  <speed>0.28</speed>
  <fix>3d</fix>
</trkpt>
<trkpt lat="40.0728123" lon="-105.2305952">
  <ele>1594.7</ele>
  <time>2026-08-27T18:28:42Z</time>
  <course>357.76</course>
  <speed>0.27313000567495327</speed>
  <fix>3d</fix>
</trkpt>
<trkpt lat="40.072812" lon="-105.2305954">
  <ele>1594.81</ele>
  <time>2026-08-27T18:28:42Z</time>
  <course>357.8</course>
  <speed>0.27313000567495327</speed>
  <fix>3d</fix>
</trkpt>
<trkpt lat="40.0728124" lon="-105.2305953">
  <ele>1594.71</ele>
  <time>2026-08-27T18:28:42Z</time>
  <course>203.75</course>
  <speed>0.28</speed>
  <fix>3d</fix>
</trkpt>
<trkpt lat="40.0728119" lon="-105.2305956">
  <ele>1594.83</ele>
  <time>2026-08-27T18:28:42Z</time>
  <course>357.8</course>
  <speed>0.27313000567495327</speed>
  <fix>3d</fix>
</trkpt>
<trkpt lat="40.0728116" lon="-105.2305957">
  <ele>1594.94</ele>
  <time>2026-08-27T18:28:42Z</time>
  <course>357.84</course>
  <speed>0.27313000567495327</speed>
  <fix>3d</fix>
</trkpt>
<trkpt lat="40.0728119" lon="-105.2305955">
  <ele>1594.83</ele>
  <time>2026-08-27T18:28:42Z</time>
  <course>204.0</course>
  <speed>0.27</speed>
  <fix>3d</fix>
</trkpt>
<trkpt lat="40.0728115" lon="-105.2305957">
  <ele>1594.96</ele>
  <time>2026-08-27T18:28:42Z</time>
  <course>357.84</course>
  <speed>0.27313000567495327</speed>
  <fix>3d</fix>
</trkpt>
<trkpt lat="40.072811" lon="-105.2305961">
  <ele>1595.06</ele>
  <time>2026-08-27T18:28:42Z</time>
  <course>357.88</course>
  <speed>0.27313000567495327</speed>
  <fix>3d</fix>
</trkpt>
<trkpt lat="40.0728115" lon="-105.2305958">
  <ele>1594.96</ele>
  <time>2026-08-27T18:28:42Z</time>
  <course>204.27</course>
  <speed>0.27</speed>
  <fix>3d</fix>
</trkpt>
<trkpt lat="40.072811" lon="-105.2305961">
  <ele>1595.08</ele>
  <time>2026-08-27T18:28:42Z</time>
  <course>357.89</course>
  <speed>0.27313000567495327</speed>
  <fix>3d</fix>
</trkpt>
<trkpt lat="40.0728107" lon="-105.2305963">
  <ele>1595.19</ele>
  <time>2026-08-27T18:28:42Z</time>
  <course>357.92</course>
  <speed>0.2640075756488817</speed>
  <fix>3d</fix>
</trkpt>
<trkpt lat="40.072811" lon="-105.2305961">
  <ele>1595.08</ele>
  <time>2026-08-27T18:28:42Z</time>
  <course>204.52</course>
  <speed>0.27</speed>
  <fix>3d</fix>
</trkpt>
<trkpt lat="40.0728105" lon="-105.2305964">
  <ele>1595.21</ele>
  <time>2026-08-27T18:28:42Z</time>
  <course>357.93</course>
  <speed>0.2640075756488817</speed>
  <fix>3d</fix>
</trkpt>
<trkpt lat="40.0728102" lon="-105.2305966">
  <ele>1595.31</ele>
  <time>2026-08-27T18:28:42Z</time>
  <course>357.97</course>
  <speed>0.2640075756488817</speed>
  <fix>3d</fix>
</trkpt>
<trkpt lat="40.0728105" lon="-105.2305964">
  <ele>1595.21</ele>
  <time>2026-08-27T18:28:42Z</time>
  <course>204.79</course>
  <speed>0.27</speed>
  <fix>3d</fix>
</trkpt>
<trkpt lat="40.0728098" lon="-105.2305969">
  <ele>1595.43</ele>
  <time>2026-08-27T18:28:42Z</time>
  <course>358.24</course>
  <speed>0.2640075756488817</speed>
  <fix>3d</fix>
</trkpt>
<trkpt lat="40.0728101" lon="-105.2305966">
  <ele>1595.33</ele>
  <time>2026-08-27T18:28:42Z</time>
  <course>205.22</course>
  <speed>0.27</speed>
  <fix>3d</fix>
</trkpt>
<trkpt lat="40.0728092" lon="-105.2305971">
  <ele>1595.52</ele>
  <time>2026-08-27T18:28:42Z</time>
  <course>358.67</course>
  <speed>0.2640075756488817</speed>
  <fix>3d</fix>
</trkpt>
<trkpt lat="40.0728096" lon="-105.2305969">
  <ele>1595.45</ele>
  <time>2026-08-27T18:28:42Z</time>
  <course>205.73</course>
  <speed>0.26</speed>
  <fix>3d</fix>
</trkpt>
<trkpt lat="40.0728089" lon="-105.2305973">
  <ele>1595.59</ele>
  <time>2026-08-27T18:28:42Z</time>
  <course>358.9</course>
  <speed>0.25495097567963926</speed>
  <fix>3d</fix>
</trkpt>
<trkpt lat="40.0728093" lon="-105.2305972">
  <ele>1595.53</ele>
  <time>2026-08-27T18:28:42Z</time>
  <course>205.86</course>
  <speed>0.26</speed>
  <fix>3d</fix>
</trkpt>
<trkpt lat="40.0728089" lon="-105.2305975">
  <ele>1595.59</ele>
  <time>2026-08-27T18:28:42Z</time>
  <course>358.93</course>
  <speed>0.25495097567963926</speed>
  <fix>3d</fix>
</trkpt>
<trkpt lat="40.0728085" lon="-105.2305976">
  <ele>1595.62</ele>
  <time>2026-08-27T18:28:42Z</time>
  <course>359.03</course>
  <speed>0.25079872407968906</speed>
  <fix>3d</fix>
</trkpt>
<trkpt lat="40.0728088" lon="-105.2305974">
  <ele>1595.59</ele>
  <time>2026-08-27T18:28:42Z</time>
  <course>205.58</course>
  <speed>0.26</speed>
  <fix>3d</fix>
</trkpt>
<trkpt lat="40.0728084" lon="-105.2305976">
  <ele>1595.62</ele>
  <time>2026-08-27T18:28:42Z</time>
  <course>359.05</course>
  <speed>0.25079872407968906</speed>
  <fix>3d</fix>
</trkpt>
<trkpt lat="40.072808" lon="-105.2305978">
  <ele>1595.64</ele>
  <time>2026-08-27T18:28:42Z</time>
  <course>359.1</course>
  <speed>0.24166091947189144</speed>
  <fix>3d</fix>
</trkpt>
<trkpt lat="40.0728084" lon="-105.2305977">
  <ele>1595.62</ele>
  <time>2026-08-27T18:28:42Z</time>
  <course>205.0</course>
  <speed>0.25</speed>
  <fix>3d</fix>
</trkpt>
<trkpt lat="40.0728079" lon="-105.230598">
  <ele>1595.64</ele>
  <time>2026-08-27T18:28:42Z</time>
  <course>359.1</course>
  <speed>0.24166091947189144</speed>
  <fix>3d</fix>
</trkpt>
<trkpt lat="40.0728077" lon="-105.2305981">
  <ele>1595.65</ele>
  <time>2026-08-27T18:28:42Z</time>
  <course>359.12</course>
  <speed>0.23769728648009425</speed>
  <fix>3d</fix>
</trkpt>
<trkpt lat="40.0728079" lon="-105.2305979">
  <ele>1595.64</ele>
  <time>2026-08-27T18:28:42Z</time>
  <course>204.17</course>
  <speed>0.24</speed>
  <fix>3d</fix>
</trkpt>
<trkpt lat="40.0728076" lon="-105.2305981">
  <ele>1595.65</ele>
  <time>2026-08-27T18:28:42Z</time>
  <course>359.12</course>
  <speed>0.23769728648009425</speed>
  <fix>3d</fix>
</trkpt>
<trkpt lat="40.0728073" lon="-105.2305983">
  <ele>1595.64</ele>
  <time>2026-08-27T18:28:42Z</time>
  <course>359.12</course>
  <speed>0.22472205054244232</speed>
  <fix>3d</fix>
</trkpt>
<trkpt lat="40.0728076" lon="-105.2305982">
  <ele>1595.64</ele>
  <time>2026-08-27T18:28:42Z</time>
  <course>203.15</course>
  <speed>0.24</speed>
  <fix>3d</fix>
</trkpt>
<trkpt lat="40.0728072" lon="-105.2305983">
  <ele>1595.64</ele>
  <time>2026-08-27T18:28:42Z</time>
  <course>359.12</course>
  <speed>0.22472205054244232</speed>
  <fix>3d</fix>
</trkpt>
<trkpt lat="40.0728068" lon="-105.2305985">
  <ele>1595.64</ele>
  <time>2026-08-27T18:28:42Z</time>
  <course>359.12</course>
  <speed>0.22472205054244232</speed>
  <fix>3d</fix>
</trkpt>
<trkpt lat="40.0728072" lon="-105.2305983">
  <ele>1595.64</ele>
  <time>2026-08-27T18:28:42Z</time>
  <course>202.04</course>
  <speed>0.23</speed>
  <fix>3d</fix>
</trkpt>
<trkpt lat="40.0728067" lon="-105.2305985">
  <ele>1595.64</ele>
  <time>2026-08-27T18:28:42Z</time>
  <course>359.12</course>
  <speed>0.22472205054244232</speed>
  <fix>3d</fix>
</trkpt>
<trkpt lat="40.0728065" lon="-105.2305988">
  <ele>1595.63</ele>
  <time>2026-08-27T18:28:42Z</time>
  <course>359.12</course>
  <speed>0.22135943621178655</speed>
  <fix>3d</fix>
</trkpt>
<trkpt lat="40.0728067" lon="-105.2305986">
  <ele>1595.64</ele>
  <time>2026-08-27T18:28:42Z</time>
  <course>200.94</course>
  <speed>0.23</speed>
  <fix>3d</fix>
</trkpt>
<trkpt lat="40.0728064" lon="-105.2305988">
  <ele>1595.63</ele>
  <time>2026-08-27T18:28:42Z</time>
  <course>359.12</course>
  <speed>0.22135943621178655</speed>
  <fix>3d</fix>
</trkpt>
<trkpt lat="40.0728061" lon="-105.230599">
  <ele>1595.63</ele>
  <time>2026-08-27T18:28:42Z</time>
  <course>359.11</course>
  <speed>0.21189620100417092</speed>
  <fix>3d</fix>
</trkpt>
<trkpt lat="40.0728064" lon="-105.2305988">
  <ele>1595.63</ele>
  <time>2026-08-27T18:28:42Z</time>
  <course>199.83</course>
  <speed>0.22</speed>
  <fix>3d</fix>
</trkpt>
<trkpt lat="40.0728061" lon="-105.230599">
  <ele>1595.63</ele>
  <time>2026-08-27T18:28:42Z</time>
  <course>359.11</course>
  <speed>0.21189620100417092</speed>
  <fix>3d</fix>
</trkpt>
<trkpt lat="40.0728058" lon="-105.230599">
  <ele>1595.62</ele>
  <time>2026-08-27T18:28:42Z</time>
  <course>359.12</course>
  <speed>0.208806130178211</speed>
  <fix>3d</fix>
</trkpt>
<trkpt lat="40.072806" lon="-105.2305989">
  <ele>1595.62</ele>
  <time>2026-08-27T18:28:42Z</time>
  <course>198.71</course>
  <speed>0.21</speed>
  <fix>3d</fix>
</trkpt>
<trkpt lat="40.0728056" lon="-105.230599">
  <ele>1595.62</ele>
  <time>2026-08-27T18:28:42Z</time>
  <course>359.12</course>
  <speed>0.208806130178211</speed>
  <fix>3d</fix>
</trkpt>
<trkpt lat="40.0728054" lon="-105.2305993">
  <ele>1595.62</ele>
  <time>2026-08-27T18:28:42Z</time>
  <course>359.13</course>
  <speed>0.208806130178211</speed>
  <fix>3d</fix>
</trkpt>
<trkpt lat="40.0728057" lon="-105.2305991">
  <ele>1595.62</ele>
  <time>2026-08-27T18:28:42Z</time>
  <course>197.64</course>
  <speed>0.21</speed>
  <fix>3d</fix>
</trkpt>
<trkpt lat="40.0728053" lon="-105.2305993">
  <ele>1595.62</ele>
  <time>2026-08-27T18:28:42Z</time>
  <course>359.13</course>
  <speed>0.208806130178211</speed>
  <fix>3d</fix>
</trkpt>
<trkpt lat="40.0728049" lon="-105.2305993">
  <ele>1595.62</ele>
  <time>2026-08-27T18:28:42Z</time>
  <course>359.14</course>
  <speed>0.196468827043885</speed>
  <fix>3d</fix>
</trkpt>
<trkpt lat="40.0728053" lon="-105.2305993">
  <ele>1595.62</ele>
  <time>2026-08-27T18:28:42Z</time>
  <course>196.64</course>
  <speed>0.2</speed>
  <fix>3d</fix>
</trkpt>
<trkpt lat="40.0728049" lon="-105.2305993">
  <ele>1595.62</ele>
  <time>2026-08-27T18:28:42Z</time>
  <course>359.14</course>
  <speed>0.196468827043885</speed>
  <fix>3d</fix>
</trkpt>
<trkpt lat="40.0728047" lon="-105.2305995">
  <ele>1595.61</ele>
  <time>2026-08-27T18:28:42Z</time>
  <course>359.16</course>
  <speed>0.196468827043885</speed>
  <fix>3d</fix>
</trkpt>
<trkpt lat="40.072805" lon="-105.2305994">
  <ele>1595.61</ele>
  <time>2026-08-27T18:28:42Z</time>
  <course>195.73</course>
  <speed>0.2</speed>
  <fix>3d</fix>
</trkpt>
<trkpt lat="40.0728046" lon="-105.2305995">
  <ele>1595.61</ele>
  <time>2026-08-27T18:28:42Z</time>
  <course>359.16</course>
  <speed>0.196468827043885</speed>
  <fix>3d</fix>
</trkpt>
<trkpt lat="40.0728043" lon="-105.2305997">
  <ele>1595.61</ele>
  <time>2026-08-27T18:28:42Z</time>
  <course>359.16</course>
  <speed>0.194164878389476</speed>
  <fix>3d</fix>
</trkpt>
<trkpt lat="40.0728046" lon="-105.2305995">
  <ele>1595.61</ele>
  <time>2026-08-27T18:28:42Z</time>
  <course>194.84</course>
  <speed>0.2</speed>
  <fix>3d</fix>
</trkpt>
<trkpt lat="40.0728043" lon="-105.2305997">
  <ele>1595.61</ele>
  <time>2026-08-27T18:28:42Z</time>
  <course>359.17</course>
  <speed>0.194164878389476</speed>
  <fix>3d</fix>
</trkpt>
<trkpt lat="40.072804" lon="-105.2305997">
  <ele>1595.61</ele>
  <time>2026-08-27T18:28:42Z</time>
  <course>359.18</course>
  <speed>0.18439088914585774</speed>
  <fix>3d</fix>
</trkpt>
<trkpt lat="40.0728043" lon="-105.2305996">
  <ele>1595.61</ele>
  <time>2026-08-27T18:28:42Z</time>
  <course>194.0</course>
  <speed>0.19</speed>
  <fix>3d</fix>
</trkpt>
<trkpt lat="40.0728038" lon="-105.2305997">
  <ele>1595.61</ele>
  <time>2026-08-27T18:28:42Z</time>
  <course>359.18</course>
  <speed>0.18439088914585774</speed>
  <fix>3d</fix>
</trkpt>
<trkpt lat="40.0728037" lon="-105.2305999">
  <ele>1595.61</ele>
  <time>2026-08-27T18:28:42Z</time>
  <course>359.2</course>
  <speed>0.18439088914585774</speed>
  <fix>3d</fix>
</trkpt>
<trkpt lat="40.0728039" lon="-105.2305997">
  <ele>1595.61</ele>
  <time>2026-08-27T18:28:42Z</time>
  <course>193.27</course>
  <speed>0.19</speed>
  <fix>3d</fix>
</trkpt>
<trkpt lat="40.0728036" lon="-105.2305999">
  <ele>1595.61</ele>
  <time>2026-08-27T18:28:42Z</time>
  <course>359.2</course>
  <speed>0.18439088914585774</speed>
  <fix>3d</fix>
</trkpt>
<trkpt lat="40.0728032" lon="-105.2306">
  <ele>1595.61</ele>
  <time>2026-08-27T18:28:42Z</time>
  <course>359.21</course>
  <speed>0.1824828759089466</speed>
  <fix>3d</fix>
</trkpt>
<trkpt lat="40.0728036" lon="-105.2305998">
  <ele>1595.61</ele>
  <time>2026-08-27T18:28:42Z</time>
  <course>192.58</course>
  <speed>0.18</speed>
  <fix>3d</fix>
</trkpt>
<trkpt lat="40.0728032" lon="-105.2306">
  <ele>1595.61</ele>
  <time>2026-08-27T18:28:42Z</time>
  <course>359.21</course>
  <speed>0.1824828759089466</speed>
  <fix>3d</fix>
</trkpt>
<trkpt lat="40.072803" lon="-105.2306">
  <ele>1595.61</ele>
  <time>2026-08-27T18:28:42Z</time>
  <course>359.23</course>
  <speed>0.17262676501632068</speed>
  <fix>3d</fix>
</trkpt>
<trkpt lat="40.0728032" lon="-105.2305999">
  <ele>1595.61</ele>
  <time>2026-08-27T18:28:42Z</time>
  <course>191.92</course>
  <speed>0.18</speed>
  <fix>3d</fix>
</trkpt>
<trkpt lat="40.072803" lon="-105.2306">
  <ele>1595.61</ele>
  <time>2026-08-27T18:28:42Z</time>
  <course>359.23</course>
  <speed>0.17262676501632068</speed>
  <fix>3d</fix>
</trkpt>
<trkpt lat="40.0728026" lon="-105.2306">
  <ele>1595.61</ele>
  <time>2026-08-27T18:28:42Z</time>
  <course>359.24</course>
  <speed>0.17262676501632068</speed>
  <fix>3d</fix>
</trkpt>
<trkpt lat="40.0728029" lon="-105.2306">
  <ele>1595.61</ele>
  <time>2026-08-27T18:28:42Z</time>
  <course>191.3</course>
  <speed>0.18</speed>
  <fix>3d</fix>
</trkpt>
<trkpt lat="40.0728025" lon="-105.2306">
  <ele>1595.61</ele>
  <time>2026-08-27T18:28:42Z</time>
  <course>359.24</course>
  <speed>0.17262676501632068</speed>
  <fix>3d</fix>
</trkpt>
<trkpt lat="40.0728024" lon="-105.2306002">
  <ele>1595.61</ele>
  <time>2026-08-27T18:28:42Z</time>
  <course>359.25</course>
  <speed>0.17262676501632068</speed>
  <fix>3d</fix>
</trkpt>
<trkpt lat="40.0728026" lon="-105.2306001">
  <ele>1595.61</ele>
  <time>2026-08-27T18:28:42Z</time>
  <course>190.74</course>
  <speed>0.17</speed>
  <fix>3d</fix>
</trkpt>
<trkpt lat="40.0728023" lon="-105.2306002">
  <ele>1595.61</ele>
  <time>2026-08-27T18:28:42Z</time>
  <course>359.26</course>
  <speed>0.17262676501632068</speed>
  <fix>3d</fix>
</trkpt>
<trkpt lat="40.072802" lon="-105.2306002">
  <ele>1595.61</ele>
  <time>2026-08-27T18:28:42Z</time>
  <course>359.27</course>
  <speed>0.16124515496597097</speed>
  <fix>3d</fix>
</trkpt>
<trkpt lat="40.0728023" lon="-105.2306002">
  <ele>1595.61</ele>
  <time>2026-08-27T18:28:42Z</time>
  <course>190.21</course>
  <speed>0.17</speed>
  <fix>3d</fix>
</trkpt>
<trkpt lat="40.0728019" lon="-105.2306002">
  <ele>1595.61</ele>
  <time>2026-08-27T18:28:42Z</time>
  <course>359.28</course>
  <speed>0.16124515496597097</speed>
  <fix>3d</fix>
</trkpt>
<trkpt lat="40.0728018" lon="-105.2306002">
  <ele>1595.61</ele>
  <time>2026-08-27T18:28:42Z</time>
  <course>359.29</course>
  <speed>0.16124515496597097</speed>
  <fix>3d</fix>
</trkpt>
<trkpt lat="40.072802" lon="-105.2306002">
  <ele>1595.61</ele>
  <time>2026-08-27T18:28:42Z</time>
  <course>189.69</course>
  <speed>0.17</speed>
  <fix>3d</fix>
</trkpt>
<trkpt lat="40.0728017" lon="-105.2306002">
  <ele>1595.61</ele>
  <time>2026-08-27T18:28:42Z</time>
  <course>359.29</course>
  <speed>0.16124515496597097</speed>
  <fix>3d</fix>
</trkpt>
<trkpt lat="40.0728015" lon="-105.2306004">
  <ele>1595.61</ele>
  <time>2026-08-27T18:28:42Z</time>
  <course>359.3</course>
  <speed>0.16124515496597097</speed>
  <fix>3d</fix>
</trkpt>
<trkpt lat="40.0728017" lon="-105.2306003">
  <ele>1595.61</ele>
  <time>2026-08-27T18:28:42Z</time>
  <course>189.21</course>
  <speed>0.16</speed>
  <fix>3d</fix>
</trkpt>
<trkpt lat="40.0728013" lon="-105.2306004">
  <ele>1595.61</ele>
  <time>2026-08-27T18:28:42Z</time>
  <course>359.3</course>
  <speed>0.16124515496597097</speed>
  <fix>3d</fix>
</trkpt>
<trkpt lat="40.0728012" lon="-105.2306005">
  <ele>1595.62</ele>
  <time>2026-08-27T18:28:42Z</time>
  <course>359.32</course>
  <speed>0.16124515496597097</speed>
  <fix>3d</fix>
</trkpt>
<trkpt lat="40.0728014" lon="-105.2306004">
  <ele>1595.61</ele>
  <time>2026-08-27T18:28:42Z</time>
  <course>188.79</course>
  <speed>0.16</speed>
  <fix>3d</fix>
</trkpt>
<trkpt lat="40.0728011" lon="-105.2306005">
  <ele>1595.62</ele>
  <time>2026-08-27T18:28:42Z</time>
  <course>359.32</course>
  <speed>0.16124515496597097</speed>
  <fix>3d</fix>
</trkpt>
<trkpt lat="40.0728009" lon="-105.2306005">
  <ele>1595.61</ele>
  <time>2026-08-27T18:28:42Z</time>
  <course>359.35</course>
  <speed>0.15132745950421556</speed>
  <fix>3d</fix>
</trkpt>
<trkpt lat="40.0728011" lon="-105.2306004">
  <ele>1595.62</ele>
  <time>2026-08-27T18:28:42Z</time>
  <course>188.39</course>
  <speed>0.16</speed>
  <fix>3d</fix>
</trkpt>
<trkpt lat="40.0728007" lon="-105.2306005">
  <ele>1595.61</ele>
  <time>2026-08-27T18:28:42Z</time>
  <course>359.35</course>
  <speed>0.15132745950421556</speed>
  <fix>3d</fix>
</trkpt>
<trkpt lat="40.0728006" lon="-105.2306005">
  <ele>1595.61</ele>
  <time>2026-08-27T18:28:42Z</time>
  <course>359.35</course>
  <speed>0.15132745950421556</speed>
  <fix>3d</fix>
</trkpt>
<trkpt lat="40.0728008" lon="-105.2306005">
  <ele>1595.61</ele>
  <time>2026-08-27T18:28:42Z</time>
  <course>187.92</course>
  <speed>0.15</speed>
  <fix>3d</fix>
</trkpt>
<trkpt lat="40.0728006" lon="-105.2306005">
  <ele>1595.61</ele>
  <time>2026-08-27T18:28:42Z</time>
  <course>359.35</course>
  <speed>0.15132745950421556</speed>
  <fix>3d</fix>
</trkpt>
<trkpt lat="40.0728003" lon="-105.2306005">
  <ele>1595.61</ele>
  <time>2026-08-27T18:28:42Z</time>
  <course>359.35</course>
  <speed>0.15033296378372907</speed>
  <fix>3d</fix>
</trkpt>
<trkpt lat="40.0728005" lon="-105.2306005">
  <ele>1595.61</ele>
  <time>2026-08-27T18:28:42Z</time>
  <course>187.47</course>
  <speed>0.15</speed>
  <fix>3d</fix>
</trkpt>
<trkpt lat="40.0728003" lon="-105.2306005">
  <ele>1595.61</ele>
  <time>2026-08-27T18:28:42Z</time>
  <course>359.36</course>
  <speed>0.15033296378372907</speed>
  <fix>3d</fix>
</trkpt>
<trkpt lat="40.0728" lon="-105.2306007">
  <ele>1595.61</ele>
  <time>2026-08-27T18:28:42Z</time>
  <course>359.37</course>
  <speed>0.140356688476182</speed>
  <fix>3d</fix>
</trkpt>
<trkpt lat="40.0728002" lon="-105.2306005">
  <ele>1595.61</ele>
  <time>2026-08-27T18:28:42Z</time>
  <course>187.09</course>
  <speed>0.15</speed>
  <fix>3d</fix>
</trkpt>
<trkpt lat="40.0728" lon="-105.2306007">
  <ele>1595.61</ele>
  <time>2026-08-27T18:28:42Z</time>
  <course>359.37</course>
  <speed>0.140356688476182</speed>
  <fix>3d</fix>
</trkpt>
<trkpt lat="40.0727998" lon="-105.2306007">
  <ele>1595.61</ele>
  <time>2026-08-27T18:28:42Z</time>
  <course>359.38</course>
  <speed>0.140356688476182</speed>
  <fix>3d</fix>
</trkpt>
<trkpt lat="40.0728" lon="-105.2306006">
  <ele>1595.61</ele>
  <time>2026-08-27T18:28:42Z</time>
  <course>186.74</course>
  <speed>0.15</speed>
  <fix>3d</fix>
</trkpt>
<trkpt lat="40.0727998" lon="-105.2306007">
  <ele>1595.61</ele>
  <time>2026-08-27T18:28:42Z</time>
  <course>359.38</course>
  <speed>0.140356688476182</speed>
  <fix>3d</fix>
</trkpt>
<trkpt lat="40.0727994" lon="-105.2306007">
  <ele>1595.61</ele>
  <time>2026-08-27T18:28:42Z</time>
  <course>359.39</course>
  <speed>0.140356688476182</speed>
  <fix>3d</fix>
</trkpt>
<trkpt lat="40.0727997" lon="-105.2306007">
  <ele>1595.61</ele>
  <time>2026-08-27T18:28:42Z</time>
  <course>186.42</course>
  <speed>0.14</speed>
  <fix>3d</fix>
</trkpt>
<trkpt lat="40.0727994" lon="-105.2306007">
  <ele>1595.61</ele>
  <time>2026-08-27T18:28:42Z</time>
  <course>359.39</course>
  <speed>0.140356688476182</speed>
  <fix>3d</fix>
</trkpt>
<trkpt lat="40.0727993" lon="-105.2306007">
  <ele>1595.61</ele>
  <time>2026-08-27T18:28:42Z</time>
  <course>359.4</course>
  <speed>0.140356688476182</speed>
  <fix>3d</fix>
</trkpt>
<trkpt lat="40.0727995" lon="-105.2306007">
  <ele>1595.61</ele>
  <time>2026-08-27T18:28:42Z</time>
  <course>186.15</course>
  <speed>0.14</speed>
  <fix>3d</fix>
</trkpt>
<trkpt lat="40.0727992" lon="-105.2306007">
  <ele>1595.61</ele>
  <time>2026-08-27T18:28:42Z</time>
  <course>359.4</course>
  <speed>0.140356688476182</speed>
  <fix>3d</fix>
</trkpt>
<trkpt lat="40.0727989" lon="-105.2306007">
  <ele>1595.61</ele>
  <time>2026-08-27T18:28:42Z</time>
  <course>359.41</course>
  <speed>0.130384048104053</speed>
  <fix>3d</fix>
</trkpt>
<trkpt lat="40.0727992" lon="-105.2306007">
  <ele>1595.61</ele>
  <time>2026-08-27T18:28:42Z</time>
  <course>185.91</course>
  <speed>0.14</speed>
  <fix>3d</fix>
</trkpt>
<trkpt lat="40.0727989" lon="-105.2306007">
  <ele>1595.61</ele>
  <time>2026-08-27T18:28:42Z</time>
  <course>359.41</course>
  <speed>0.130384048104053</speed>
  <fix>3d</fix>
</trkpt>
<trkpt lat="40.0727988" lon="-105.2306007">
  <ele>1595.61</ele>
  <time>2026-08-27T18:28:42Z</time>
  <course>359.42</course>
  <speed>0.130384048104053</speed>
  <fix>3d</fix>
</trkpt>
<trkpt lat="40.0727989" lon="-105.2306007">
  <ele>1595.61</ele>
  <time>2026-08-27T18:28:42Z</time>
  <course>185.7</course>
  <speed>0.13</speed>
  <fix>3d</fix>
</trkpt>
<trkpt lat="40.0727987" lon="-105.2306007">
  <ele>1595.61</ele>
  <time>2026-08-27T18:28:42Z</time>
  <course>359.43</course>
  <speed>0.130384048104053</speed>
  <fix>3d</fix>
</trkpt>
<trkpt lat="40.0727985" lon="-105.2306009">
  <ele>1595.62</ele>
  <time>2026-08-27T18:28:42Z</time>
  <course>359.43</course>
  <speed>0.130384048104053</speed>
  <fix>3d</fix>
</trkpt>
<trkpt lat="40.0727987" lon="-105.2306008">
  <ele>1595.61</ele>
  <time>2026-08-27T18:28:42Z</time>
  <course>185.5</course>
  <speed>0.13</speed>
  <fix>3d</fix>
</trkpt>
<trkpt lat="40.0727985" lon="-105.2306009">
  <ele>1595.62</ele>
  <time>2026-08-27T18:28:42Z</time>
  <course>359.44</course>
  <speed>0.130384048104053</speed>
  <fix>3d</fix>
</trkpt>
<trkpt lat="40.0727982" lon="-105.2306009">
  <ele>1595.61</ele>
  <time>2026-08-27T18:28:42Z</time>
  <course>359.46</course>
  <speed>0.130384048104053</speed>
  <fix>3d</fix>
</trkpt>
<trkpt lat="40.0727985" lon="-105.2306009">
  <ele>1595.61</ele>
  <time>2026-08-27T18:28:42Z</time>
  <course>185.29</course>
  <speed>0.13</speed>
  <fix>3d</fix>
</trkpt>
<trkpt lat="40.0727982" lon="-105.2306009">
  <ele>1595.61</ele>
  <time>2026-08-27T18:28:42Z</time>
  <course>359.46</course>
  <speed>0.130384048104053</speed>
  <fix>3d</fix>
</trkpt>
<trkpt lat="40.0727981" lon="-105.2306009">
  <ele>1595.61</ele>
  <time>2026-08-27T18:28:42Z</time>
  <course>359.47</course>
  <speed>0.12041594578792296</speed>
  <fix>3d</fix>
</trkpt>
<trkpt lat="40.0727982" lon="-105.2306009">
  <ele>1595.61</ele>
  <time>2026-08-27T18:28:42Z</time>
  <course>185.08</course>
  <speed>0.13</speed>
  <fix>3d</fix>
</trkpt>
<trkpt lat="40.072798" lon="-105.2306009">
  <ele>1595.61</ele>
  <time>2026-08-27T18:28:42Z</time>
  <course>359.46</course>
  <speed>0.12041594578792296</speed>
  <fix>3d</fix>
</trkpt>
<trkpt lat="40.0727977" lon="-105.2306009">
  <ele>1595.61</ele>
  <time>2026-08-27T18:28:42Z</time>
  <course>359.47</course>
  <speed>0.12041594578792296</speed>
  <fix>3d</fix>
</trkpt>
<trkpt lat="40.072798" lon="-105.2306009">
  <ele>1595.61</ele>
  <time>2026-08-27T18:28:42Z</time>
  <course>184.84</course>
  <speed>0.12</speed>
  <fix>3d</fix>
</trkpt>
<trkpt lat="40.0727977" lon="-105.2306009">
  <ele>1595.61</ele>
  <time>2026-08-27T18:28:42Z</time>
  <course>359.47</course>
  <speed>0.12041594578792296</speed>
  <fix>3d</fix>
</trkpt>
<trkpt lat="40.0727976" lon="-105.2306009">
  <ele>1595.61</ele>
  <time>2026-08-27T18:28:42Z</time>
  <course>359.48</course>
  <speed>0.12</speed>
  <fix>3d</fix>
</trkpt>
<trkpt lat="40.0727977" lon="-105.2306009">
  <ele>1595.61</ele>
  <time>2026-08-27T18:28:42Z</time>
  <course>184.62</course>
  <speed>0.12</speed>
  <fix>3d</fix>
</trkpt>
<trkpt lat="40.0727976" lon="-105.2306009">
  <ele>1595.61</ele>
  <time>2026-08-27T18:28:42Z</time>
  <course>359.48</course>
  <speed>0.12</speed>
  <fix>3d</fix>
</trkpt>
<trkpt lat="40.0727974" lon="-105.2306009">
  <ele>1595.61</ele>
  <time>2026-08-27T18:28:42Z</time>
  <course>359.49</course>
  <speed>0.12</speed>
  <fix>3d</fix>
</trkpt>
<trkpt lat="40.0727976" lon="-105.2306009">
  <ele>1595.61</ele>
  <time>2026-08-27T18:28:42Z</time>
  <course>184.44</course>
  <speed>0.12</speed>
  <fix>3d</fix>
</trkpt>
<trkpt lat="40.0727973" lon="-105.2306009">
  <ele>1595.61</ele>
  <time>2026-08-27T18:28:42Z</time>
  <course>359.49</course>
  <speed>0.12</speed>
  <fix>3d</fix>
</trkpt>
<trkpt lat="40.0727971" lon="-105.2306009">
  <ele>1595.61</ele>
  <time>2026-08-27T18:28:42Z</time>
  <course>359.49</course>
  <speed>0.11</speed>
  <fix>3d</fix>
</trkpt>
<trkpt lat="40.0727973" lon="-105.2306009">
  <ele>1595.61</ele>
  <time>2026-08-27T18:28:42Z</time>
  <course>184.25</course>
  <speed>0.12</speed>
  <fix>3d</fix>
</trkpt>
<trkpt lat="40.072797" lon="-105.2306009">
  <ele>1595.61</ele>
  <time>2026-08-27T18:28:42Z</time>
  <course>359.49</course>
  <speed>0.11</speed>
  <fix>3d</fix>
</trkpt>
<trkpt lat="40.072797" lon="-105.2306009">
  <ele>1595.61</ele>
  <time>2026-08-27T18:28:42Z</time>
  <course>359.51</course>
  <speed>0.11</speed>
  <fix>3d</fix>
</trkpt>
<trkpt lat="40.0727971" lon="-105.2306009">
  <ele>1595.61</ele>
  <time>2026-08-27T18:28:42Z</time>
  <course>184.13</course>
  <speed>0.11</speed>
  <fix>3d</fix>
</trkpt>
<trkpt lat="40.0727969" lon="-105.2306009">
  <ele>1595.61</ele>
  <time>2026-08-27T18:28:42Z</time>
  <course>359.51</course>
  <speed>0.11</speed>
  <fix>3d</fix>
</trkpt>
<trkpt lat="40.0727967" lon="-105.2306009">
  <ele>1595.61</ele>
  <time>2026-08-27T18:28:42Z</time>
  <course>359.52</course>
  <speed>0.11</speed>
  <fix>3d</fix>
</trkpt>
<trkpt lat="40.0727969" lon="-105.2306009">
  <ele>1595.61</ele>
  <time>2026-08-27T18:28:42Z</time>
  <course>184.08</course>
  <speed>0.11</speed>
  <fix>3d</fix>
</trkpt>
<trkpt lat="40.0727967" lon="-105.2306011">
  <ele>1595.61</ele>
  <time>2026-08-27T18:28:42Z</time>
  <course>359.52</course>
  <speed>0.11</speed>
  <fix>3d</fix>
</trkpt>
<trkpt lat="40.0727964" lon="-105.2306011">
  <ele>1595.61</ele>
  <time>2026-08-27T18:28:42Z</time>
  <course>359.53</course>
  <speed>0.11</speed>
  <fix>3d</fix>
</trkpt>
<trkpt lat="40.0727967" lon="-105.230601">
  <ele>1595.61</ele>
  <time>2026-08-27T18:28:42Z</time>
  <course>184.0</course>
  <speed>0.11</speed>
  <fix>3d</fix>
</trkpt>
<trkpt lat="40.0727964" lon="-105.2306011">
  <ele>1595.61</ele>
  <time>2026-08-27T18:28:42Z</time>
  <course>359.53</course>
  <speed>0.11</speed>
  <fix>3d</fix>
</trkpt>
<trkpt lat="40.0727963" lon="-105.2306011">
  <ele>1595.62</ele>
  <time>2026-08-27T18:28:42Z</time>
  <course>359.53</course>
  <speed>0.11</speed>
  <fix>3d</fix>
</trkpt>
<trkpt lat="40.0727964" lon="-105.2306011">
  <ele>1595.61</ele>
  <time>2026-08-27T18:28:42Z</time>
  <course>183.92</course>
  <speed>0.11</speed>
  <fix>3d</fix>
</trkpt>
<trkpt lat="40.0727963" lon="-105.2306011">
  <ele>1595.62</ele>
  <time>2026-08-27T18:28:42Z</time>
  <course>359.53</course>
  <speed>0.11</speed>
  <fix>3d</fix>
</trkpt>
<trkpt lat="40.0727961" lon="-105.2306011">
  <ele>1595.62</ele>
  <time>2026-08-27T18:28:42Z</time>
  <course>359.55</course>
  <speed>0.1</speed>
  <fix>3d</fix>
</trkpt>
<trkpt lat="40.0727963" lon="-105.2306011">
  <ele>1595.61</ele>
  <time>2026-08-27T18:28:42Z</time>
  <course>183.84</course>
  <speed>0.11</speed>
  <fix>3d</fix>
</trkpt>
<trkpt lat="40.0727961" lon="-105.2306011">
  <ele>1595.62</ele>
  <time>2026-08-27T18:28:42Z</time>
  <course>359.56</course>
  <speed>0.1</speed>
  <fix>3d</fix>
</trkpt>
<trkpt lat="40.0727958" lon="-105.2306011">
  <ele>1595.61</ele>
  <time>2026-08-27T18:28:43Z</time>
  <course>359.57</course>
  <speed>0.1</speed>
  <fix>3d</fix>
</trkpt>
<trkpt lat="40.0727961" lon="-105.2306011">
  <ele>1595.61</ele>
  <time>2026-08-27T18:28:43Z</time>
  <course>183.76</course>
  <speed>0.1</speed>
  <fix>3d</fix>
</trkpt>
<trkpt lat="40.0727958" lon="-105.2306011">
  <ele>1595.61</ele>
  <time>2026-08-27T18:28:43Z</time>
  <course>359.57</course>
  <speed>0.1</speed>
  <fix>3d</fix>
</trkpt>
<trkpt lat="40.0727958" lon="-105.2306011">
  <ele>1595.61</ele>
  <time>2026-08-27T18:28:43Z</time>
  <course>359.56</course>
  <speed>0.1</speed>
  <fix>3d</fix>
</trkpt>
<trkpt lat="40.0727959" lon="-105.2306011">
  <ele>1595.61</ele>
  <time>2026-08-27T18:28:43Z</time>
  <course>183.61</course>
  <speed>0.1</speed>
  <fix>3d</fix>
</trkpt>
<trkpt lat="40.0727957" lon="-105.2306011">
  <ele>1595.61</ele>
  <time>2026-08-27T18:28:43Z</time>
  <course>359.56</course>
  <speed>0.1</speed>
  <fix>3d</fix>
</trkpt>
<trkpt lat="40.0727956" lon="-105.2306011">
  <ele>1595.61</ele>
  <time>2026-08-27T18:28:43Z</time>
  <course>359.57</course>
  <speed>0.1</speed>
  <fix>3d</fix>
</trkpt>
<trkpt lat="40.0727957" lon="-105.2306011">
  <ele>1595.61</ele>
  <time>2026-08-27T18:28:43Z</time>
  <course>183.47</course>
  <speed>0.1</speed>
  <fix>3d</fix>
</trkpt>
<trkpt lat="40.0727955" lon="-105.2306012">
  <ele>1595.61</ele>
  <time>2026-08-27T18:28:43Z</time>
  <course>359.57</course>
  <speed>0.1</speed>
  <fix>3d</fix>
</trkpt>
<trkpt lat="40.0727953" lon="-105.2306012">
  <ele>1595.61</ele>
  <time>2026-08-27T18:28:43Z</time>
  <course>359.58</course>
  <speed>0.1</speed>
  <fix>3d</fix>
</trkpt>
<trkpt lat="40.0727955" lon="-105.2306011">
  <ele>1595.61</ele>
  <time>2026-08-27T18:28:43Z</time>
  <course>183.35</course>
  <speed>0.1</speed>
  <fix>3d</fix>
</trkpt>
<trkpt lat="40.0727953" lon="-105.2306012">
  <ele>1595.61</ele>
  <time>2026-08-27T18:28:43Z</time>
  <course>359.58</course>
  <speed>0.1</speed>
  <fix>3d</fix>
</trkpt>
<trkpt lat="40.0727952" lon="-105.2306012">
  <ele>1595.61</ele>
  <time>2026-08-27T18:28:43Z</time>
  <course>359.59</course>
  <speed>0.09</speed>
  <fix>3d</fix>
</trkpt>
<trkpt lat="40.0727953" lon="-105.2306012">
  <ele>1595.61</ele>
  <time>2026-08-27T18:28:43Z</time>
  <course>183.22</course>
  <speed>0.1</speed>
  <fix>3d</fix>
</trkpt>
<trkpt lat="40.0727952" lon="-105.2306012">
  <ele>1595.61</ele>
  <time>2026-08-27T18:28:43Z</time>
  <course>359.59</course>
  <speed>0.09</speed>
  <fix>3d</fix>
</trkpt>
<trkpt lat="40.072795" lon="-105.2306012">
  <ele>1595.61</ele>
  <time>2026-08-27T18:28:43Z</time>
  <course>359.6</course>
  <speed>0.09</speed>
  <fix>3d</fix>
</trkpt>
<trkpt lat="40.0727952" lon="-105.2306012">
  <ele>1595.61</ele>
  <time>2026-08-27T18:28:43Z</time>
  <course>183.17</course>
  <speed>0.09</speed>
  <fix>3d</fix>
</trkpt>
<trkpt lat="40.072795" lon="-105.2306012">
  <ele>1595.61</ele>
  <time>2026-08-27T18:28:43Z</time>
  <course>359.6</course>
  <speed>0.09</speed>
  <fix>3d</fix>
</trkpt>
<trkpt lat="40.0727949" lon="-105.2306012">
  <ele>1595.61</ele>
  <time>2026-08-27T18:28:43Z</time>
  <course>359.61</course>
  <speed>0.09</speed>
  <fix>3d</fix>
</trkpt>
<trkpt lat="40.072795" lon="-105.2306012">
  <ele>1595.61</ele>
  <time>2026-08-27T18:28:43Z</time>
  <course>183.15</course>
  <speed>0.09</speed>
  <fix>3d</fix>
</trkpt>
<trkpt lat="40.0727947" lon="-105.2306012">
  <ele>1595.61</ele>
  <time>2026-08-27T18:28:43Z</time>
  <course>359.61</course>
  <speed>0.09</speed>
  <fix>3d</fix>
</trkpt>
<trkpt lat="40.0727946" lon="-105.2306012">
  <ele>1595.61</ele>
  <time>2026-08-27T18:28:43Z</time>
  <course>359.61</course>
  <speed>0.09</speed>
  <fix>3d</fix>
</trkpt>
<trkpt lat="40.0727948" lon="-105.2306012">
  <ele>1595.61</ele>
  <time>2026-08-27T18:28:43Z</time>
  <course>183.17</course>
  <speed>0.09</speed>
  <fix>3d</fix>
</trkpt>
<trkpt lat="40.0727946" lon="-105.2306012">
  <ele>1595.61</ele>
  <time>2026-08-27T18:28:43Z</time>
  <course>359.61</course>
  <speed>0.09</speed>
  <fix>3d</fix>
</trkpt>
<trkpt lat="40.0727945" lon="-105.2306012">
  <ele>1595.61</ele>
  <time>2026-08-27T18:28:43Z</time>
  <course>359.62</course>
  <speed>0.09</speed>
  <fix>3d</fix>
</trkpt>
<trkpt lat="40.0727947" lon="-105.2306012">
  <ele>1595.61</ele>
  <time>2026-08-27T18:28:43Z</time>
  <course>183.2</course>
  <speed>0.09</speed>
  <fix>3d</fix>
</trkpt>
<trkpt lat="40.0727944" lon="-105.2306012">
  <ele>1595.61</ele>
  <time>2026-08-27T18:28:43Z</time>
  <course>359.63</course>
  <speed>0.08</speed>
  <fix>3d</fix>
</trkpt>
<trkpt lat="40.0727945" lon="-105.2306012">
  <ele>1595.61</ele>
  <time>2026-08-27T18:28:43Z</time>
  <course>183.23</course>
  <speed>0.09</speed>
  <fix>3d</fix>
</trkpt>
<trkpt lat="40.0727942" lon="-105.2306012">
  <ele>1595.62</ele>
  <time>2026-08-27T18:28:43Z</time>
  <course>359.64</course>
  <speed>0.08</speed>
  <fix>3d</fix>
</trkpt>
<trkpt lat="40.0727943" lon="-105.2306012">
  <ele>1595.61</ele>
  <time>2026-08-27T18:28:43Z</time>
  <course>183.24</course>
  <speed>0.08</speed>
  <fix>3d</fix>
</trkpt>
<trkpt lat="40.072794" lon="-105.2306012">
  <ele>1595.61</ele>
  <time>2026-08-27T18:28:43Z</time>
  <course>359.66</course>
  <speed>0.08</speed>
  <fix>3d</fix>
</trkpt>
<trkpt lat="40.0727942" lon="-105.2306012">
  <ele>1595.62</ele>
  <time>2026-08-27T18:28:43Z</time>
  <course>183.25</course>
  <speed>0.08</speed>
  <fix>3d</fix>
</trkpt>
<trkpt lat="40.0727939" lon="-105.2306012">
  <ele>1595.61</ele>
  <time>2026-08-27T18:28:43Z</time>
  <course>359.66</course>
  <speed>0.08</speed>
  <fix>3d</fix>
</trkpt>
<trkpt lat="40.072794" lon="-105.2306012">
  <ele>1595.61</ele>
  <time>2026-08-27T18:28:43Z</time>
  <course>183.18</course>
  <speed>0.08</speed>
  <fix>3d</fix>
</trkpt>
<trkpt lat="40.0727938" lon="-105.2306012">
  <ele>1595.61</ele>
  <time>2026-08-27T18:28:43Z</time>
  <course>359.66</course>
  <speed>0.08</speed>
  <fix>3d</fix>
</trkpt>
<trkpt lat="40.0727938" lon="-105.2306012">
  <ele>1595.61</ele>
  <time>2026-08-27T18:28:43Z</time>
  <course>183.1</course>
  <speed>0.08</speed>
  <fix>3d</fix>
</trkpt>
<trkpt lat="40.0727936" lon="-105.2306012">
  <ele>1595.61</ele>
  <time>2026-08-27T18:28:43Z</time>
  <course>359.65</course>
  <speed>0.08</speed>
  <fix>3d</fix>
</trkpt>
<trkpt lat="40.0727937" lon="-105.2306012">
  <ele>1595.61</ele>
  <time>2026-08-27T18:28:43Z</time>
  <course>183.11</course>
  <speed>0.08</speed>
  <fix>3d</fix>
</trkpt>
<trkpt lat="40.0727934" lon="-105.2306012">
  <ele>1595.61</ele>
  <time>2026-08-27T18:28:43Z</time>
  <course>359.66</course>
  <speed>0.07</speed>
  <fix>3d</fix>
</trkpt>
<trkpt lat="40.0727936" lon="-105.2306012">
  <ele>1595.61</ele>
  <time>2026-08-27T18:28:43Z</time>
  <course>183.1</course>
  <speed>0.08</speed>
  <fix>3d</fix>
</trkpt>
<trkpt lat="40.0727933" lon="-105.2306012">
  <ele>1595.61</ele>
  <time>2026-08-27T18:28:43Z</time>
  <course>359.67</course>
  <speed>0.07</speed>
  <fix>3d</fix>
</trkpt>
<trkpt lat="40.0727934" lon="-105.2306012">
  <ele>1595.61</ele>
  <time>2026-08-27T18:28:43Z</time>
  <course>183.12</course>
  <speed>0.07</speed>
  <fix>3d</fix>
</trkpt>
<trkpt lat="40.0727932" lon="-105.2306012">
  <ele>1595.61</ele>
  <time>2026-08-27T18:28:43Z</time>
  <course>359.68</course>
  <speed>0.07</speed>
  <fix>3d</fix>
</trkpt>
<trkpt lat="40.0727933" lon="-105.2306012">
  <ele>1595.61</ele>
  <time>2026-08-27T18:28:43Z</time>
  <course>183.19</course>
  <speed>0.07</speed>
  <fix>3d</fix>
</trkpt>
<trkpt lat="40.0727931" lon="-105.2306012">
  <ele>1595.61</ele>
  <time>2026-08-27T18:28:43Z</time>
  <course>359.68</course>
  <speed>0.07</speed>
  <fix>3d</fix>
</trkpt>
<trkpt lat="40.0727931" lon="-105.2306012">
  <ele>1595.61</ele>
  <time>2026-08-27T18:28:43Z</time>
  <course>183.24</course>
  <speed>0.07</speed>
  <fix>3d</fix>
</trkpt>
<trkpt lat="40.0727928" lon="-105.2306012">
  <ele>1595.61</ele>
  <time>2026-08-27T18:28:43Z</time>
  <course>359.7</course>
  <speed>0.07</speed>
  <fix>3d</fix>
</trkpt>
<trkpt lat="40.072793" lon="-105.2306012">
  <ele>1595.61</ele>
  <time>2026-08-27T18:28:43Z</time>
  <course>183.26</course>
  <speed>0.07</speed>
  <fix>3d</fix>
</trkpt>
<trkpt lat="40.0727927" lon="-105.2306014">
  <ele>1595.61</ele>
  <time>2026-08-27T18:28:43Z</time>
  <course>359.7</course>
  <speed>0.07</speed>
  <fix>3d</fix>
</trkpt>
<trkpt lat="40.0727928" lon="-105.2306012">
  <ele>1595.61</ele>
  <time>2026-08-27T18:28:43Z</time>
  <course>183.27</course>
  <speed>0.07</speed>
  <fix>3d</fix>
</trkpt>
<trkpt lat="40.0727927" lon="-105.2306014">
  <ele>1595.62</ele>
  <time>2026-08-27T18:28:43Z</time>
  <course>359.7</course>
  <speed>0.06</speed>
  <fix>3d</fix>
</trkpt>
<trkpt lat="40.0727927" lon="-105.2306013">
  <ele>1595.61</ele>
  <time>2026-08-27T18:28:43Z</time>
  <course>183.35</course>
  <speed>0.06</speed>
  <fix>3d</fix>
</trkpt>
<trkpt lat="40.0727926" lon="-105.2306014">
  <ele>1595.62</ele>
  <time>2026-08-27T18:28:43Z</time>
  <course>359.72</course>
  <speed>0.06</speed>
  <fix>3d</fix>
</trkpt>
<trkpt lat="40.0727926" lon="-105.2306014">
  <ele>1595.61</ele>
  <time>2026-08-27T18:28:43Z</time>
  <course>183.5</course>
  <speed>0.06</speed>
  <fix>3d</fix>
</trkpt>
<trkpt lat="40.0727924" lon="-105.2306014">
  <ele>1595.61</ele>
  <time>2026-08-27T18:28:43Z</time>
  <course>359.73</course>
  <speed>0.06</speed>
  <fix>3d</fix>
</trkpt>
<trkpt lat="40.0727925" lon="-105.2306014">
  <ele>1595.61</ele>
  <time>2026-08-27T18:28:43Z</time>
  <course>183.56</course>
  <speed>0.06</speed>
  <fix>3d</fix>
</trkpt>
<trkpt lat="40.0727922" lon="-105.2306014">
  <ele>1595.61</ele>
  <time>2026-08-27T18:28:43Z</time>
  <course>359.73</course>
  <speed>0.06</speed>
  <fix>3d</fix>
</trkpt>
<trkpt lat="40.0727924" lon="-105.2306014">
  <ele>1595.61</ele>
  <time>2026-08-27T18:28:43Z</time>
  <course>183.52</course>
  <speed>0.06</speed>
  <fix>3d</fix>
</trkpt>
<trkpt lat="40.0727921" lon="-105.2306014">
  <ele>1595.61</ele>
  <time>2026-08-27T18:28:43Z</time>
  <course>359.73</course>
  <speed>0.06</speed>
  <fix>3d</fix>
</trkpt>
<trkpt lat="40.0727922" lon="-105.2306014">
  <ele>1595.61</ele>
  <time>2026-08-27T18:28:43Z</time>
  <course>183.5</course>
  <speed>0.06</speed>
  <fix>3d</fix>
</trkpt>
<trkpt lat="40.0727921" lon="-105.2306014">
  <ele>1595.61</ele>
  <time>2026-08-27T18:28:43Z</time>
  <course>359.73</course>
  <speed>0.06</speed>
  <fix>3d</fix>
</trkpt>
<trkpt lat="40.0727921" lon="-105.2306014">
  <ele>1595.61</ele>
  <time>2026-08-27T18:28:43Z</time>
  <course>183.5</course>
  <speed>0.06</speed>
  <fix>3d</fix>
</trkpt>
<trkpt lat="40.072792" lon="-105.2306014">
  <ele>1595.61</ele>
  <time>2026-08-27T18:28:43Z</time>
  <course>359.74</course>
  <speed>0.05</speed>
  <fix>3d</fix>
</trkpt>
<trkpt lat="40.072792" lon="-105.2306014">
  <ele>1595.61</ele>
  <time>2026-08-27T18:28:43Z</time>
  <course>183.46</course>
  <speed>0.06</speed>
  <fix>3d</fix>
</trkpt>
<trkpt lat="40.0727919" lon="-105.2306014">
  <ele>1595.61</ele>
  <time>2026-08-27T18:28:43Z</time>
  <course>359.74</course>
  <speed>0.05</speed>
  <fix>3d</fix>
</trkpt>
<trkpt lat="40.0727919" lon="-105.2306014">
  <ele>1595.61</ele>
  <time>2026-08-27T18:28:43Z</time>
  <course>183.48</course>
  <speed>0.05</speed>
  <fix>3d</fix>
</trkpt>
<trkpt lat="40.0727918" lon="-105.2306014">
  <ele>1595.61</ele>
  <time>2026-08-27T18:28:43Z</time>
  <course>359.74</course>
  <speed>0.05</speed>
  <fix>3d</fix>
</trkpt>
<trkpt lat="40.0727918" lon="-105.2306014">
  <ele>1595.61</ele>
  <time>2026-08-27T18:28:43Z</time>
  <course>183.56</course>
  <speed>0.05</speed>
  <fix>3d</fix>
</trkpt>
<trkpt lat="40.0727916" lon="-105.2306014">
  <ele>1595.61</ele>
  <time>2026-08-27T18:28:43Z</time>
  <course>359.75</course>
  <speed>0.05</speed>
  <fix>3d</fix>
</trkpt>
<trkpt lat="40.0727917" lon="-105.2306014">
  <ele>1595.61</ele>
  <time>2026-08-27T18:28:43Z</time>
  <course>183.65</course>
  <speed>0.05</speed>
  <fix>3d</fix>
</trkpt>
<trkpt lat="40.0727915" lon="-105.2306014">
  <ele>1595.61</ele>
  <time>2026-08-27T18:28:43Z</time>
  <course>359.76</course>
  <speed>0.05</speed>
  <fix>3d</fix>
</trkpt>
<trkpt lat="40.0727916" lon="-105.2306014">
  <ele>1595.61</ele>
  <time>2026-08-27T18:28:43Z</time>
  <course>183.75</course>
  <speed>0.05</speed>
  <fix>3d</fix>
</trkpt>
<trkpt lat="40.0727915" lon="-105.2306014">
  <ele>1595.61</ele>
  <time>2026-08-27T18:28:43Z</time>
  <course>359.76</course>
  <speed>0.05</speed>
  <fix>3d</fix>
</trkpt>
<trkpt lat="40.0727915" lon="-105.2306014">
  <ele>1595.61</ele>
  <time>2026-08-27T18:28:43Z</time>
  <course>183.84</course>
  <speed>0.05</speed>
  <fix>3d</fix>
</trkpt>
<trkpt lat="40.0727914" lon="-105.2306014">
  <ele>1595.62</ele>
  <time>2026-08-27T18:28:43Z</time>
  <course>359.76</course>
  <speed>0.05</speed>
  <fix>3d</fix>
</trkpt>
<trkpt lat="40.0727914" lon="-105.2306014">
  <ele>1595.61</ele>
  <time>2026-08-27T18:28:43Z</time>
  <course>183.95</course>
  <speed>0.05</speed>
  <fix>3d</fix>
</trkpt>
<trkpt lat="40.0727913" lon="-105.2306014">
  <ele>1595.62</ele>
  <time>2026-08-27T18:28:43Z</time>
  <course>359.78</course>
  <speed>0.05</speed>
  <fix>3d</fix>
</trkpt>
<trkpt lat="40.0727913" lon="-105.2306014">
  <ele>1595.62</ele>
  <time>2026-08-27T18:28:43Z</time>
  <course>184.17</course>
  <speed>0.05</speed>
  <fix>3d</fix>
</trkpt>
<trkpt lat="40.0727912" lon="-105.2306014">
  <ele>1595.61</ele>
  <time>2026-08-27T18:28:43Z</time>
  <course>359.79</course>
  <speed>0.04</speed>
  <fix>3d</fix>
</trkpt>
<trkpt lat="40.0727912" lon="-105.2306014">
  <ele>1595.61</ele>
  <time>2026-08-27T18:28:43Z</time>
  <course>184.36</course>
  <speed>0.05</speed>
  <fix>3d</fix>
</trkpt>
<trkpt lat="40.072791" lon="-105.2306014">
  <ele>1595.61</ele>
  <time>2026-08-27T18:28:43Z</time>
  <course>359.79</course>
  <speed>0.04</speed>
  <fix>3d</fix>
</trkpt>
<trkpt lat="40.0727911" lon="-105.2306014">
  <ele>1595.61</ele>
  <time>2026-08-27T18:28:43Z</time>
  <course>184.37</course>
  <speed>0.04</speed>
  <fix>3d</fix>
</trkpt>
<trkpt lat="40.0727909" lon="-105.2306014">
  <ele>1595.61</ele>
  <time>2026-08-27T18:28:43Z</time>
  <course>359.78</course>
  <speed>0.04</speed>
  <fix>3d</fix>
</trkpt>
<trkpt lat="40.072791" lon="-105.2306014">
  <ele>1595.61</ele>
  <time>2026-08-27T18:28:43Z</time>
  <course>184.42</course>
  <speed>0.04</speed>
  <fix>3d</fix>
</trkpt>
<trkpt lat="40.0727909" lon="-105.2306014">
  <ele>1595.61</ele>
  <time>2026-08-27T18:28:43Z</time>
  <course>359.79</course>
  <speed>0.04</speed>
  <fix>3d</fix>
</trkpt>
<trkpt lat="40.072791" lon="-105.2306014">
  <ele>1595.61</ele>
  <time>2026-08-27T18:28:43Z</time>
  <course>184.54</course>
  <speed>0.04</speed>
  <fix>3d</fix>
</trkpt>
<trkpt lat="40.0727909" lon="-105.2306014">
  <ele>1595.61</ele>
  <time>2026-08-27T18:28:43Z</time>
  <course>359.79</course>
  <speed>0.04</speed>
  <fix>3d</fix>
</trkpt>
<trkpt lat="40.0727909" lon="-105.2306014">
  <ele>1595.61</ele>
  <time>2026-08-27T18:28:43Z</time>
  <course>184.47</course>
  <speed>0.04</speed>
  <fix>3d</fix>
</trkpt>
<trkpt lat="40.0727908" lon="-105.2306014">
  <ele>1595.61</ele>
  <time>2026-08-27T18:28:43Z</time>
  <course>359.8</course>
  <speed>0.04</speed>
  <fix>3d</fix>
</trkpt>
<trkpt lat="40.0727908" lon="-105.2306014">
  <ele>1595.61</ele>
  <time>2026-08-27T18:28:43Z</time>
  <course>184.55</course>
  <speed>0.04</speed>
  <fix>3d</fix>
</trkpt>
<trkpt lat="40.0727907" lon="-105.2306014">
  <ele>1595.61</ele>
  <time>2026-08-27T18:28:43Z</time>
  <course>359.8</course>
  <speed>0.04</speed>
  <fix>3d</fix>
</trkpt>
<trkpt lat="40.0727907" lon="-105.2306014">
  <ele>1595.61</ele>
  <time>2026-08-27T18:28:43Z</time>
  <course>184.79</course>
  <speed>0.04</speed>
  <fix>3d</fix>
</trkpt>
<trkpt lat="40.0727906" lon="-105.2306014">
  <ele>1595.61</ele>
  <time>2026-08-27T18:28:43Z</time>
  <course>359.8</course>
  <speed>0.04</speed>
  <fix>3d</fix>
</trkpt>
<trkpt lat="40.0727907" lon="-105.2306014">
  <ele>1595.61</ele>
  <time>2026-08-27T18:28:43Z</time>
  <course>184.9</course>
  <speed>0.04</speed>
  <fix>3d</fix>
</trkpt>
<trkpt lat="40.0727906" lon="-105.2306016">
  <ele>1595.61</ele>
  <time>2026-08-27T18:28:43Z</time>
  <course>359.81</course>
  <speed>0.04</speed>
  <fix>3d</fix>
</trkpt>
<trkpt lat="40.0727906" lon="-105.2306015">
  <ele>1595.61</ele>
  <time>2026-08-27T18:28:43Z</time>
  <course>185.06</course>
  <speed>0.04</speed>
  <fix>3d</fix>
</trkpt>
<trkpt lat="40.0727904" lon="-105.2306016">
  <ele>1595.61</ele>
  <time>2026-08-27T18:28:43Z</time>
  <course>359.81</course>
  <speed>0.03</speed>
  <fix>3d</fix>
</trkpt>
<trkpt lat="40.0727905" lon="-105.2306016">
  <ele>1595.61</ele>
  <time>2026-08-27T18:28:43Z</time>
  <course>185.2</course>
  <speed>0.04</speed>
  <fix>3d</fix>
</trkpt>
<trkpt lat="40.0727903" lon="-105.2306016">
  <ele>1595.62</ele>
  <time>2026-08-27T18:28:43Z</time>
  <course>359.81</course>
  <speed>0.03</speed>
  <fix>3d</fix>
</trkpt>
<trkpt lat="40.0727904" lon="-105.2306016">
  <ele>1595.61</ele>
  <time>2026-08-27T18:28:43Z</time>
  <course>185.31</course>
  <speed>0.04</speed>
  <fix>3d</fix>
</trkpt>
<trkpt lat="40.0727903" lon="-105.2306016">
  <ele>1595.62</ele>
  <time>2026-08-27T18:28:43Z</time>
  <course>359.82</course>
  <speed>0.03</speed>
  <fix>3d</fix>
</trkpt>
<trkpt lat="40.0727903" lon="-105.2306016">
  <ele>1595.61</ele>
  <time>2026-08-27T18:28:43Z</time>
  <course>185.45</course>
  <speed>0.03</speed>
  <fix>3d</fix>
</trkpt>
<trkpt lat="40.0727903" lon="-105.2306016">
  <ele>1595.61</ele>
  <time>2026-08-27T18:28:43Z</time>
  <course>359.84</course>
  <speed>0.03</speed>
  <fix>3d</fix>
</trkpt>
<trkpt lat="40.0727903" lon="-105.2306016">
  <ele>1595.61</ele>
  <time>2026-08-27T18:28:43Z</time>
  <course>185.66</course>
  <speed>0.03</speed>
  <fix>3d</fix>
</trkpt>
<trkpt lat="40.0727902" lon="-105.2306016">
  <ele>1595.61</ele>
  <time>2026-08-27T18:28:43Z</time>
  <course>359.83</course>
  <speed>0.03</speed>
  <fix>3d</fix>
</trkpt>
<trkpt lat="40.0727902" lon="-105.2306016">
  <ele>1595.61</ele>
  <time>2026-08-27T18:28:43Z</time>
  <course>185.77</course>
  <speed>0.03</speed>
  <fix>3d</fix>
</trkpt>
<trkpt lat="40.0727902" lon="-105.2306016">
  <ele>1595.61</ele>
  <time>2026-08-27T18:28:43Z</time>
  <course>359.83</course>
  <speed>0.03</speed>
  <fix>3d</fix>
</trkpt>
<trkpt lat="40.0727902" lon="-105.2306016">
  <ele>1595.61</ele>
  <time>2026-08-27T18:28:43Z</time>
  <course>185.82</course>
  <speed>0.03</speed>
  <fix>3d</fix>
</trkpt>
<trkpt lat="40.0727901" lon="-105.2306016">
  <ele>1595.61</ele>
  <time>2026-08-27T18:28:43Z</time>
  <course>359.83</course>
  <speed>0.03</speed>
  <fix>3d</fix>
</trkpt>
<trkpt lat="40.0727901" lon="-105.2306016">
  <ele>1595.61</ele>
  <time>2026-08-27T18:28:43Z</time>
  <course>185.85</course>
  <speed>0.03</speed>
  <fix>3d</fix>
</trkpt>
<trkpt lat="40.07279" lon="-105.2306016">
  <ele>1595.61</ele>
  <time>2026-08-27T18:28:43Z</time>
  <course>359.83</course>
  <speed>0.03</speed>
  <fix>3d</fix>
</trkpt>
<trkpt lat="40.07279" lon="-105.2306016">
  <ele>1595.61</ele>
  <time>2026-08-27T18:28:43Z</time>
  <course>185.9</course>
  <speed>0.03</speed>
  <fix>3d</fix>
</trkpt>
<trkpt lat="40.07279" lon="-105.2306016">
  <ele>1595.61</ele>
  <time>2026-08-27T18:28:43Z</time>
  <course>359.83</course>
  <speed>0.03</speed>
  <fix>3d</fix>
</trkpt>
<trkpt lat="40.07279" lon="-105.2306016">
  <ele>1595.61</ele>
  <time>2026-08-27T18:28:43Z</time>
  <course>186.09</course>
  <speed>0.03</speed>
  <fix>3d</fix>
</trkpt>
<trkpt lat="40.0727898" lon="-105.2306016">
  <ele>1595.61</ele>
  <time>2026-08-27T18:28:43Z</time>
  <course>359.83</course>
  <speed>0.03</speed>
  <fix>3d</fix>
</trkpt>
<trkpt lat="40.0727899" lon="-105.2306016">
  <ele>1595.61</ele>
  <time>2026-08-27T18:28:43Z</time>
  <course>186.29</course>
  <speed>0.03</speed>
  <fix>3d</fix>
</trkpt>
<trkpt lat="40.0727898" lon="-105.2306016">
  <ele>1595.61</ele>
  <time>2026-08-27T18:28:43Z</time>
  <course>359.84</course>
  <speed>0.03</speed>
  <fix>3d</fix>
</trkpt>
<trkpt lat="40.0727898" lon="-105.2306016">
  <ele>1595.61</ele>
  <time>2026-08-27T18:28:43Z</time>
  <course>186.57</course>
  <speed>0.03</speed>
  <fix>3d</fix>
</trkpt>
<trkpt lat="40.0727897" lon="-105.2306016">
  <ele>1595.61</ele>
  <time>2026-08-27T18:28:43Z</time>
  <course>359.85</course>
  <speed>0.03</speed>
  <fix>3d</fix>
</trkpt>
<trkpt lat="40.0727898" lon="-105.2306016">
  <ele>1595.61</ele>
  <time>2026-08-27T18:28:43Z</time>
  <course>186.85</course>
  <speed>0.03</speed>
  <fix>3d</fix>
</trkpt>
<trkpt lat="40.0727897" lon="-105.2306016">
  <ele>1595.61</ele>
  <time>2026-08-27T18:28:43Z</time>
  <course>359.85</course>
  <speed>0.02</speed>
  <fix>3d</fix>
</trkpt>
<trkpt lat="40.0727897" lon="-105.2306016">
  <ele>1595.61</ele>
  <time>2026-08-27T18:28:43Z</time>
  <course>186.97</course>
  <speed>0.03</speed>
  <fix>3d</fix>
</trkpt>
<trkpt lat="40.0727897" lon="-105.2306016">
  <ele>1595.62</ele>
  <time>2026-08-27T18:28:43Z</time>
  <course>359.85</course>
  <speed>0.02</speed>
  <fix>3d</fix>
</trkpt>
<trkpt lat="40.0727897" lon="-105.2306016">
  <ele>1595.61</ele>
  <time>2026-08-27T18:28:43Z</time>
  <course>187.22</course>
  <speed>0.02</speed>
  <fix>3d</fix>
</trkpt>
<trkpt lat="40.0727896" lon="-105.2306016">
  <ele>1595.62</ele>
  <time>2026-08-27T18:28:43Z</time>
  <course>359.87</course>
  <speed>0.02</speed>
  <fix>3d</fix>
</trkpt>
<trkpt lat="40.0727897" lon="-105.2306016">
  <ele>1595.62</ele>
  <time>2026-08-27T18:28:43Z</time>
  <course>187.58</course>
  <speed>0.02</speed>
  <fix>3d</fix>
</trkpt>
<trkpt lat="40.0727896" lon="-105.2306016">
  <ele>1595.61</ele>
  <time>2026-08-27T18:28:43Z</time>
  <course>359.88</course>
  <speed>0.02</speed>
  <fix>3d</fix>
</trkpt>
<trkpt lat="40.0727896" lon="-105.2306016">
  <ele>1595.61</ele>
  <time>2026-08-27T18:28:43Z</time>
  <course>187.86</course>
  <speed>0.02</speed>
  <fix>3d</fix>
</trkpt>
<trkpt lat="40.0727895" lon="-105.2306016">
  <ele>1595.61</ele>
  <time>2026-08-27T18:28:43Z</time>
  <course>359.86</course>
  <speed>0.02</speed>
  <fix>3d</fix>
</trkpt>
<trkpt lat="40.0727896" lon="-105.2306016">
  <ele>1595.61</ele>
  <time>2026-08-27T18:28:43Z</time>
  <course>188.01</course>
  <speed>0.02</speed>
  <fix>3d</fix>
</trkpt>
<trkpt lat="40.0727895" lon="-105.2306016">
  <ele>1595.61</ele>
  <time>2026-08-27T18:28:43Z</time>
  <course>359.86</course>
  <speed>0.02</speed>
  <fix>3d</fix>
</trkpt>
<trkpt lat="40.0727895" lon="-105.2306016">
  <ele>1595.61</ele>
  <time>2026-08-27T18:28:43Z</time>
  <course>188.1</course>
  <speed>0.02</speed>
  <fix>3d</fix>
</trkpt>
<trkpt lat="40.0727895" lon="-105.2306016">
  <ele>1595.61</ele>
  <time>2026-08-27T18:28:43Z</time>
  <course>359.86</course>
  <speed>0.02</speed>
  <fix>3d</fix>
</trkpt>
<trkpt lat="40.0727895" lon="-105.2306016">
  <ele>1595.61</ele>
  <time>2026-08-27T18:28:43Z</time>
  <course>188.27</course>
  <speed>0.02</speed>
  <fix>3d</fix>
</trkpt>
<trkpt lat="40.0727894" lon="-105.2306016">
  <ele>1595.61</ele>
  <time>2026-08-27T18:28:43Z</time>
  <course>359.87</course>
  <speed>0.02</speed>
  <fix>3d</fix>
</trkpt>
<trkpt lat="40.0727894" lon="-105.2306016">
  <ele>1595.61</ele>
  <time>2026-08-27T18:28:43Z</time>
  <course>188.46</course>
  <speed>0.02</speed>
  <fix>3d</fix>
</trkpt>
<trkpt lat="40.0727894" lon="-105.2306016">
  <ele>1595.61</ele>
  <time>2026-08-27T18:28:43Z</time>
  <course>359.87</course>
  <speed>0.02</speed>
  <fix>3d</fix>
</trkpt>
<trkpt lat="40.0727894" lon="-105.2306016">
  <ele>1595.61</ele>
  <time>2026-08-27T18:28:43Z</time>
  <course>188.74</course>
  <speed>0.02</speed>
  <fix>3d</fix>
</trkpt>
<trkpt lat="40.0727892" lon="-105.2306016">
  <ele>1595.61</ele>
  <time>2026-08-27T18:28:43Z</time>
  <course>359.87</course>
  <speed>0.02</speed>
  <fix>3d</fix>
</trkpt>
<trkpt lat="40.0727893" lon="-105.2306016">
  <ele>1595.61</ele>
  <time>2026-08-27T18:28:43Z</time>
  <course>189.04</course>
  <speed>0.02</speed>
  <fix>3d</fix>
</trkpt>
<trkpt lat="40.0727892" lon="-105.2306018">
  <ele>1595.61</ele>
  <time>2026-08-27T18:28:43Z</time>
  <course>359.87</course>
  <speed>0.02</speed>
  <fix>3d</fix>
</trkpt>
<trkpt lat="40.0727892" lon="-105.2306017">
  <ele>1595.61</ele>
  <time>2026-08-27T18:28:43Z</time>
  <course>189.5</course>
  <speed>0.02</speed>
  <fix>3d</fix>
</trkpt>
<trkpt lat="40.0727891" lon="-105.2306018">
  <ele>1595.61</ele>
  <time>2026-08-27T18:28:43Z</time>
  <course>359.88</course>
  <speed>0.02</speed>
  <fix>3d</fix>
</trkpt>
<trkpt lat="40.0727892" lon="-105.2306018">
  <ele>1595.61</ele>
  <time>2026-08-27T18:28:43Z</time>
  <course>189.99</course>
  <speed>0.02</speed>
  <fix>3d</fix>
</trkpt>
<trkpt lat="40.0727891" lon="-105.2306018">
  <ele>1595.61</ele>
  <time>2026-08-27T18:28:43Z</time>
  <course>359.88</course>
  <speed>0.02</speed>
  <fix>3d</fix>
</trkpt>
<trkpt lat="40.0727892" lon="-105.2306018">
  <ele>1595.61</ele>
  <time>2026-08-27T18:28:43Z</time>
  <course>190.41</course>
  <speed>0.02</speed>
  <fix>3d</fix>
</trkpt>
<trkpt lat="40.0727891" lon="-105.2306018">
  <ele>1595.62</ele>
  <time>2026-08-27T18:28:43Z</time>
  <course>359.88</course>
  <speed>0.02</speed>
  <fix>3d</fix>
</trkpt>
<trkpt lat="40.0727891" lon="-105.2306018">
  <ele>1595.61</ele>
  <time>2026-08-27T18:28:43Z</time>
  <course>190.84</course>
  <speed>0.02</speed>
  <fix>3d</fix>
</trkpt>
<trkpt lat="40.0727891" lon="-105.2306018">
  <ele>1595.62</ele>
  <time>2026-08-27T18:28:43Z</time>
  <course>359.89</course>
  <speed>0.02</speed>
  <fix>3d</fix>
</trkpt>
<trkpt lat="40.0727891" lon="-105.2306018">
  <ele>1595.61</ele>
  <time>2026-08-27T18:28:43Z</time>
  <course>191.0</course>
  <speed>0.02</speed>
  <fix>3d</fix>
</trkpt>
<trkpt lat="40.0727891" lon="-105.2306018">
  <ele>1595.61</ele>
  <time>2026-08-27T18:28:43Z</time>
  <course>359.9</course>
  <speed>0.01</speed>
  <fix>3d</fix>
</trkpt>
<trkpt lat="40.0727891" lon="-105.2306018">
  <ele>1595.62</ele>
  <time>2026-08-27T18:28:43Z</time>
  <course>191.37</course>
  <speed>0.02</speed>
  <fix>3d</fix>
</trkpt>
<trkpt lat="40.0727891" lon="-105.2306018">
  <ele>1595.61</ele>
  <time>2026-08-27T18:28:43Z</time>
  <course>359.9</course>
  <speed>0.01</speed>
  <fix>3d</fix>
</trkpt>
<trkpt lat="40.0727891" lon="-105.2306018">
  <ele>1595.61</ele>
  <time>2026-08-27T18:28:43Z</time>
  <course>191.85</course>
  <speed>0.01</speed>
  <fix>3d</fix>
</trkpt>
<trkpt lat="40.072789" lon="-105.2306018">
  <ele>1595.61</ele>
  <time>2026-08-27T18:28:43Z</time>
  <course>359.89</course>
  <speed>0.01</speed>
  <fix>3d</fix>
</trkpt>
<trkpt lat="40.072789" lon="-105.2306018">
  <ele>1595.61</ele>
  <time>2026-08-27T18:28:43Z</time>
  <course>192.14</course>
  <speed>0.01</speed>
  <fix>3d</fix>
</trkpt>
<trkpt lat="40.072789" lon="-105.2306018">
  <ele>1595.61</ele>
  <time>2026-08-27T18:28:43Z</time>
  <course>359.89</course>
  <speed>0.01</speed>
  <fix>3d</fix>
</trkpt>
<trkpt lat="40.072789" lon="-105.2306018">
  <ele>1595.61</ele>
  <time>2026-08-27T18:28:43Z</time>
  <course>192.6</course>
  <speed>0.01</speed>
  <fix>3d</fix>
</trkpt>
<trkpt lat="40.072789" lon="-105.2306018">
  <ele>1595.61</ele>
  <time>2026-08-27T18:28:43Z</time>
  <course>359.89</course>
  <speed>0.01</speed>
  <fix>3d</fix>
</trkpt>
<trkpt lat="40.072789" lon="-105.2306018">
  <ele>1595.61</ele>
  <time>2026-08-27T18:28:43Z</time>
  <course>192.98</course>
  <speed>0.01</speed>
  <fix>3d</fix>
</trkpt>
<trkpt lat="40.0727889" lon="-105.2306018">
  <ele>1595.61</ele>
  <time>2026-08-27T18:28:43Z</time>
  <course>359.9</course>
  <speed>0.01</speed>
  <fix>3d</fix>
</trkpt>
<trkpt lat="40.072789" lon="-105.2306018">
  <ele>1595.61</ele>
  <time>2026-08-27T18:28:43Z</time>
  <course>193.38</course>
  <speed>0.01</speed>
  <fix>3d</fix>
</trkpt>
<trkpt lat="40.0727889" lon="-105.2306019">
  <ele>1595.61</ele>
  <time>2026-08-27T18:28:43Z</time>
  <course>359.9</course>
  <speed>0.01</speed>
  <fix>3d</fix>
</trkpt>
<trkpt lat="40.0727889" lon="-105.2306018">
  <ele>1595.61</ele>
  <time>2026-08-27T18:28:43Z</time>
  <course>193.73</course>
  <speed>0.01</speed>
  <fix>3d</fix>
</trkpt>
<trkpt lat="40.0727889" lon="-105.2306019">
  <ele>1595.61</ele>
  <time>2026-08-27T18:28:43Z</time>
  <course>359.9</course>
  <speed>0.01</speed>
  <fix>3d</fix>
</trkpt>
<trkpt lat="40.0727889" lon="-105.2306019">
  <ele>1595.61</ele>
  <time>2026-08-27T18:28:43Z</time>
  <course>194.08</course>
  <speed>0.01</speed>
  <fix>3d</fix>
</trkpt>
<trkpt lat="40.0727889" lon="-105.2306019">
  <ele>1595.61</ele>
  <time>2026-08-27T18:28:43Z</time>
  <course>359.9</course>
  <speed>0.01</speed>
  <fix>3d</fix>
</trkpt>
<trkpt lat="40.0727889" lon="-105.2306019">
  <ele>1595.61</ele>
  <time>2026-08-27T18:28:43Z</time>
  <course>194.6</course>
  <speed>0.01</speed>
  <fix>3d</fix>
</trkpt>
<trkpt lat="40.0727888" lon="-105.2306019">
  <ele>1595.61</ele>
  <time>2026-08-27T18:28:43Z</time>
  <course>359.9</course>
  <speed>0.01</speed>
  <fix>3d</fix>
</trkpt>
<trkpt lat="40.0727888" lon="-105.2306019">
  <ele>1595.61</ele>
  <time>2026-08-27T18:28:43Z</time>
  <course>195.38</course>
  <speed>0.01</speed>
  <fix>3d</fix>
</trkpt>
<trkpt lat="40.0727888" lon="-105.2306019">
  <ele>1595.62</ele>
  <time>2026-08-27T18:28:43Z</time>
  <course>359.9</course>
  <speed>0.01</speed>
  <fix>3d</fix>
</trkpt>
<trkpt lat="40.0727888" lon="-105.2306019">
  <ele>1595.61</ele>
  <time>2026-08-27T18:28:43Z</time>
  <course>196.28</course>
  <speed>0.01</speed>
  <fix>3d</fix>
</trkpt>
<trkpt lat="40.0727888" lon="-105.2306019">
  <ele>1595.62</ele>
  <time>2026-08-27T18:28:43Z</time>
  <course>359.91</course>
  <speed>0.01</speed>
  <fix>3d</fix>
</trkpt>
<trkpt lat="40.0727888" lon="-105.2306019">
  <ele>1595.61</ele>
  <time>2026-08-27T18:28:43Z</time>
  <course>196.82</course>
  <speed>0.01</speed>
  <fix>3d</fix>
</trkpt>
<trkpt lat="40.0727888" lon="-105.2306019">
  <ele>1595.61</ele>
  <time>2026-08-27T18:28:43Z</time>
  <course>359.92</course>
  <speed>0.01</speed>
  <fix>3d</fix>
</trkpt>
<trkpt lat="40.0727888" lon="-105.2306019">
  <ele>1595.62</ele>
  <time>2026-08-27T18:28:43Z</time>
  <course>197.12</course>
  <speed>0.01</speed>
  <fix>3d</fix>
</trkpt>
<trkpt lat="40.0727886" lon="-105.2306019">
  <ele>1595.61</ele>
  <time>2026-08-27T18:28:43Z</time>
  <course>359.92</course>
  <speed>0.01</speed>
  <fix>3d</fix>
</trkpt>
<trkpt lat="40.0727887" lon="-105.2306019">
  <ele>1595.61</ele>
  <time>2026-08-27T18:28:43Z</time>
  <course>197.67</course>
  <speed>0.01</speed>
  <fix>3d</fix>
</trkpt>
<trkpt lat="40.0727886" lon="-105.2306019">
  <ele>1595.61</ele>
  <time>2026-08-27T18:28:43Z</time>
  <course>359.91</course>
  <speed>0.01</speed>
  <fix>3d</fix>
</trkpt>
<trkpt lat="40.0727886" lon="-105.2306019">
  <ele>1595.61</ele>
  <time>2026-08-27T18:28:43Z</time>
  <course>198.61</course>
  <speed>0.01</speed>
  <fix>3d</fix>
</trkpt>
<trkpt lat="40.0727886" lon="-105.2306019">
  <ele>1595.61</ele>
  <time>2026-08-27T18:28:43Z</time>
  <course>359.91</course>
  <speed>0.01</speed>
  <fix>3d</fix>
</trkpt>
<trkpt lat="40.0727886" lon="-105.2306019">
  <ele>1595.61</ele>
  <time>2026-08-27T18:28:43Z</time>
  <course>199.49</course>
  <speed>0.01</speed>
  <fix>3d</fix>
</trkpt>
<trkpt lat="40.0727886" lon="-105.2306019">
  <ele>1595.61</ele>
  <time>2026-08-27T18:28:43Z</time>
  <course>359.91</course>
  <speed>0.01</speed>
  <fix>3d</fix>
</trkpt>
<trkpt lat="40.0727886" lon="-105.2306019">
  <ele>1595.61</ele>
  <time>2026-08-27T18:28:43Z</time>
  <course>200.01</course>
  <speed>0.01</speed>
  <fix>3d</fix>
</trkpt>
<trkpt lat="40.0727886" lon="-105.2306019">
  <ele>1595.61</ele>
  <time>2026-08-27T18:28:43Z</time>
  <course>359.91</course>
  <speed>0.01</speed>
  <fix>3d</fix>
</trkpt>
<trkpt lat="40.0727886" lon="-105.2306019">
  <ele>1595.61</ele>
  <time>2026-08-27T18:28:43Z</time>
  <course>200.48</course>
  <speed>0.01</speed>
  <fix>3d</fix>
</trkpt>
<trkpt lat="40.0727885" lon="-105.2306019">
  <ele>1595.61</ele>
  <time>2026-08-27T18:28:43Z</time>
  <course>359.91</course>
  <speed>0.01</speed>
  <fix>3d</fix>
</trkpt>
<trkpt lat="40.0727886" lon="-105.2306019">
  <ele>1595.61</ele>
  <time>2026-08-27T18:28:43Z</time>
  <course>200.94</course>
  <speed>0.01</speed>
  <fix>3d</fix>
</trkpt>
<trkpt lat="40.0727885" lon="-105.2306019">
  <ele>1595.62</ele>
  <time>2026-08-27T18:28:43Z</time>
  <course>359.85</course>
  <speed>0.0</speed>
  <fix>3d</fix>
</trkpt>
<trkpt lat="40.0727885" lon="-105.2306019">
  <ele>1595.61</ele>
  <time>2026-08-27T18:28:43Z</time>
  <course>201.72</course>
  <speed>0.01</speed>
  <fix>3d</fix>
</trkpt>
<trkpt lat="40.0727885" lon="-105.2306019">
  <ele>1595.63</ele>
  <time>2026-08-27T18:28:43Z</time>
  <course>359.74</course>
  <speed>0.0</speed>
  <fix>3d</fix>
</trkpt>
<trkpt lat="40.0727885" lon="-105.2306019">
  <ele>1595.62</ele>
  <time>2026-08-27T18:28:43Z</time>
  <course>204.53</course>
  <speed>0.0</speed>
  <fix>3d</fix>
</trkpt>
<trkpt lat="40.0727885" lon="-105.2306019">
  <ele>1595.65</ele>
  <time>2026-08-27T18:28:43Z</time>
  <course>359.56</course>
  <speed>0.0</speed>
  <fix>3d</fix>
</trkpt>
<trkpt lat="40.0727885" lon="-105.2306019">
  <ele>1595.63</ele>
  <time>2026-08-27T18:28:43Z</time>
  <course>218.26</course>
  <speed>0.0</speed>
  <fix>3d</fix>
</trkpt>
<trkpt lat="40.0727885" lon="-105.2306019">
  <ele>1595.69</ele>
  <time>2026-08-27T18:28:43Z</time>
  <course>359.35</course>
  <speed>0.0</speed>
  <fix>3d</fix>
</trkpt>
<trkpt lat="40.0727885" lon="-105.2306019">
  <ele>1595.66</ele>
  <time>2026-08-27T18:28:43Z</time>
  <course>244.28</course>
  <speed>0.0</speed>
  <fix>3d</fix>
</trkpt>
<trkpt lat="40.0727885" lon="-105.2306019">
  <ele>1595.76</ele>
  <time>2026-08-27T18:28:43Z</time>
  <course>359.1</course>
  <speed>0.0</speed>
  <fix>3d</fix>
</trkpt>
<trkpt lat="40.0727885" lon="-105.2306019">
  <ele>1595.71</ele>
  <time>2026-08-27T18:28:43Z</time>
  <course>253.87</course>
  <speed>0.0</speed>
  <fix>3d</fix>
</trkpt>
<trkpt lat="40.0727885" lon="-105.2306019">
  <ele>1595.86</ele>
  <time>2026-08-27T18:28:43Z</time>
  <course>358.82</course>
  <speed>0.01</speed>
  <fix>3d</fix>
</trkpt>
<trkpt lat="40.0727885" lon="-105.2306019">
  <ele>1595.78</ele>
  <time>2026-08-27T18:28:43Z</time>
  <course>254.49</course>
  <speed>0.0</speed>
  <fix>3d</fix>
</trkpt>
<trkpt lat="40.0727885" lon="-105.2306021">
  <ele>1595.99</ele>
  <time>2026-08-27T18:28:43Z</time>
  <course>358.57</course>
  <speed>0.01</speed>
  <fix>3d</fix>
</trkpt>
<trkpt lat="40.0727885" lon="-105.230602">
  <ele>1595.88</ele>
  <time>2026-08-27T18:28:43Z</time>
  <course>254.33</course>
  <speed>0.01</speed>
  <fix>3d</fix>
</trkpt>
<trkpt lat="40.0727885" lon="-105.2306021">
  <ele>1596.16</ele>
  <time>2026-08-27T18:28:43Z</time>
  <course>358.35</course>
  <speed>0.01</speed>
  <fix>3d</fix>
</trkpt>
<trkpt lat="40.0727885" lon="-105.2306021">
  <ele>1596.02</ele>
  <time>2026-08-27T18:28:43Z</time>
  <course>252.52</course>
  <speed>0.01</speed>
  <fix>3d</fix>
</trkpt>
<trkpt lat="40.0727885" lon="-105.2306021">
  <ele>1596.36</ele>
  <time>2026-08-27T18:28:43Z</time>
  <course>358.14</course>
  <speed>0.02</speed>
  <fix>3d</fix>
</trkpt>
<trkpt lat="40.0727885" lon="-105.2306021">
  <ele>1596.19</ele>
  <time>2026-08-27T18:28:43Z</time>
  <course>249.16</course>
  <speed>0.02</speed>
  <fix>3d</fix>
</trkpt>
<trkpt lat="40.0727885" lon="-105.2306021">
  <ele>1596.59</ele>
  <time>2026-08-27T18:28:43Z</time>
  <course>357.94</course>
  <speed>0.02</speed>
  <fix>3d</fix>
</trkpt>
<trkpt lat="40.0727885" lon="-105.2306021">
  <ele>1596.4</ele>
  <time>2026-08-27T18:28:43Z</time>
  <course>247.8</course>
  <speed>0.02</speed>
  <fix>3d</fix>
</trkpt>
<trkpt lat="40.0727885" lon="-105.2306023">
  <ele>1596.85</ele>
  <time>2026-08-27T18:28:43Z</time>
  <course>357.77</course>
  <speed>0.0316227766016838</speed>
  <fix>3d</fix>
</trkpt>
<trkpt lat="40.0727885" lon="-105.2306022">
  <ele>1596.63</ele>
  <time>2026-08-27T18:28:43Z</time>
  <course>249.24</course>
  <speed>0.02</speed>
  <fix>3d</fix>
</trkpt>
<trkpt lat="40.0727885" lon="-105.2306024">
  <ele>1597.13</ele>
  <time>2026-08-27T18:28:43Z</time>
  <course>357.67</course>
  <speed>0.0316227766016838</speed>
  <fix>3d</fix>
</trkpt>
<trkpt lat="40.0727885" lon="-105.2306023">
  <ele>1596.89</ele>
  <time>2026-08-27T18:28:43Z</time>
  <course>250.55</course>
  <speed>0.03</speed>
  <fix>3d</fix>
</trkpt>
<trkpt lat="40.0727885" lon="-105.2306024">
  <ele>1597.44</ele>
  <time>2026-08-27T18:28:43Z</time>
  <course>357.64</course>
  <speed>0.0316227766016838</speed>
  <fix>3d</fix>
</trkpt>
<trkpt lat="40.0727885" lon="-105.2306023">
  <ele>1597.17</ele>
  <time>2026-08-27T18:28:43Z</time>
  <course>249.6</course>
  <speed>0.03</speed>
  <fix>3d</fix>
</trkpt>
<trkpt lat="40.0727885" lon="-105.2306024">
  <ele>1597.76</ele>
  <time>2026-08-27T18:28:43Z</time>
  <course>357.66</course>
  <speed>0.0316227766016838</speed>
  <fix>3d</fix>
</trkpt>
<trkpt lat="40.0727885" lon="-105.2306024">
  <ele>1597.49</ele>
  <time>2026-08-27T18:28:43Z</time>
  <course>247.56</course>
  <speed>0.03</speed>
  <fix>3d</fix>
</trkpt>
<trkpt lat="40.0727884" lon="-105.2306026">
  <ele>1598.09</ele>
  <time>2026-08-27T18:28:43Z</time>
  <course>357.74</course>
  <speed>0.0316227766016838</speed>
  <fix>3d</fix>
</trkpt>
<trkpt lat="40.0727884" lon="-105.2306025">
  <ele>1597.81</ele>
  <time>2026-08-27T18:28:43Z</time>
  <course>246.78</course>
  <speed>0.03</speed>
  <fix>3d</fix>
</trkpt>
<trkpt lat="40.0727884" lon="-105.2306026">
  <ele>1598.42</ele>
  <time>2026-08-27T18:28:43Z</time>
  <course>357.85</course>
  <speed>0.022360679774997897</speed>
  <fix>3d</fix>
</trkpt>
<trkpt lat="40.0727884" lon="-105.2306026">
  <ele>1598.14</ele>
  <time>2026-08-27T18:28:43Z</time>
  <course>247.88</course>
  <speed>0.03</speed>
  <fix>3d</fix>
</trkpt>
<trkpt lat="40.0727884" lon="-105.2306026">
  <ele>1598.74</ele>
  <time>2026-08-27T18:28:43Z</time>
  <course>357.95</course>
  <speed>0.02</speed>
  <fix>3d</fix>
</trkpt>
<trkpt lat="40.0727884" lon="-105.2306026">
  <ele>1598.47</ele>
  <time>2026-08-27T18:28:43Z</time>
  <course>250.29</course>
  <speed>0.02</speed>
  <fix>3d</fix>
</trkpt>
<trkpt lat="40.0727884" lon="-105.2306028">
  <ele>1599.07</ele>
  <time>2026-08-27T18:28:43Z</time>
  <course>358.03</course>
  <speed>0.01</speed>
  <fix>3d</fix>
</trkpt>
<trkpt lat="40.0727884" lon="-105.2306027">
  <ele>1598.79</ele>
  <time>2026-08-27T18:28:43Z</time>
  <course>254.32</course>
  <speed>0.02</speed>
  <fix>3d</fix>
</trkpt>
<trkpt lat="40.0727884" lon="-105.2306028">
  <ele>1599.39</ele>
  <time>2026-08-27T18:28:43Z</time>
  <course>358.15</course>
  <speed>0.01</speed>
  <fix>3d</fix>
</trkpt>
<trkpt lat="40.0727884" lon="-105.2306028">
  <ele>1599.12</ele>
  <time>2026-08-27T18:28:43Z</time>
  <course>259.63</course>
  <speed>0.01</speed>
  <fix>3d</fix>
</trkpt>
<trkpt lat="40.0727884" lon="-105.2306028">
  <ele>1599.7</ele>
  <time>2026-08-27T18:28:43Z</time>
  <course>358.31</course>
  <speed>0.0</speed>
  <fix>3d</fix>
</trkpt>
<trkpt lat="40.0727884" lon="-105.2306028">
  <ele>1599.44</ele>
  <time>2026-08-27T18:28:43Z</time>
  <course>265.88</course>
  <speed>0.0</speed>
  <fix>3d</fix>
</trkpt>
<trkpt lat="40.0727884" lon="-105.2306028">
  <ele>1600.0</ele>
  <time>2026-08-27T18:28:43Z</time>
  <course>358.52</course>
  <speed>0.01</speed>
  <fix>3d</fix>
</trkpt>
<trkpt lat="40.0727884" lon="-105.2306028">
  <ele>1599.75</ele>
  <time>2026-08-27T18:28:43Z</time>
  <course>346.77</course>
  <speed>0.0</speed>
  <fix>3d</fix>
</trkpt>
<trkpt lat="40.0727884" lon="-105.2306028">
  <ele>1600.28</ele>
  <time>2026-08-27T18:28:43Z</time>
  <course>358.74</course>
  <speed>0.05</speed>
  <fix>3d</fix>
</trkpt>
<trkpt lat="40.0727884" lon="-105.2306028">
  <ele>1600.04</ele>
  <time>2026-08-27T18:28:43Z</time>
  <course>37.18</course>
  <speed>0.02</speed>
  <fix>3d</fix>
</trkpt>
<trkpt lat="40.0727885" lon="-105.2306028">
  <ele>1600.53</ele>
  <time>2026-08-27T18:28:43Z</time>
  <course>358.97</course>
  <speed>0.130384048104053</speed>
  <fix>3d</fix>
</trkpt>
<trkpt lat="40.0727884" lon="-105.2306028">
  <ele>1600.32</ele>
  <time>2026-08-27T18:28:43Z</time>
  <course>35.06</course>
  <speed>0.06</speed>
  <fix>3d</fix>
</trkpt>
<trkpt lat="40.0727888" lon="-105.2306024">
  <ele>1600.74</ele>
  <time>2026-08-27T18:28:43Z</time>
  <course>359.16</course>
  <speed>0.25059928172283336</speed>
  <fix>3d</fix>
</trkpt>
<trkpt lat="40.0727885" lon="-105.2306026">
  <ele>1600.56</ele>
  <time>2026-08-27T18:28:43Z</time>
  <course>32.06</course>
  <speed>0.15</speed>
  <fix>3d</fix>
</trkpt>
<trkpt lat="40.0727892" lon="-105.2306021">
  <ele>1600.91</ele>
  <time>2026-08-27T18:28:43Z</time>
  <course>359.3</course>
  <speed>0.42941821107167777</speed>
  <fix>3d</fix>
</trkpt>
<trkpt lat="40.0727888" lon="-105.2306024">
  <ele>1600.76</ele>
  <time>2026-08-27T18:28:43Z</time>
  <course>29.47</course>
  <speed>0.28</speed>
  <fix>3d</fix>
</trkpt>
<trkpt lat="40.0727902" lon="-105.2306016">
  <ele>1601.05</ele>
  <time>2026-08-27T18:28:43Z</time>
  <course>359.36</course>
  <speed>0.6440496875241847</speed>
  <fix>3d</fix>
</trkpt>
<trkpt lat="40.0727894" lon="-105.230602">
  <ele>1600.93</ele>
  <time>2026-08-27T18:28:43Z</time>
  <course>27.25</course>
  <speed>0.46</speed>
  <fix>3d</fix>
</trkpt>
<trkpt lat="40.0727914" lon="-105.2306007">
  <ele>1601.14</ele>
  <time>2026-08-27T18:28:43Z</time>
  <course>359.13</course>
  <speed>0.8863972021616494</speed>
  <fix>3d</fix>
</trkpt>
<trkpt lat="40.0727903" lon="-105.2306014">
  <ele>1601.06</ele>
  <time>2026-08-27T18:28:43Z</time>
  <course>25.42</course>
  <speed>0.69</speed>
  <fix>3d</fix>
</trkpt>
<trkpt lat="40.0727931" lon="-105.2305997">
  <ele>1601.19</ele>
  <time>2026-08-27T18:28:43Z</time>
  <course>359.53</course>
  <speed>1.16619037896906</speed>
  <fix>3d</fix>
</trkpt>
<trkpt lat="40.0727916" lon="-105.2306006">
  <ele>1601.14</ele>
  <time>2026-08-27T18:28:43Z</time>
  <course>23.92</course>
  <speed>0.94</speed>
  <fix>3d</fix>
</trkpt>
<trkpt lat="40.0727952" lon="-105.2305988">
  <ele>1601.21</ele>
  <time>2026-08-27T18:28:43Z</time>
  <course>11.29</course>
  <speed>1.4455794685869054</speed>
  <fix>3d</fix>
</trkpt>
<trkpt lat="40.0727935" lon="-105.2305997">
  <ele>1601.19</ele>
  <time>2026-08-27T18:28:43Z</time>
  <course>21.31</course>
  <speed>1.21</speed>
  <fix>3d</fix>
</trkpt>
<trkpt lat="40.072798" lon="-105.2305975">
  <ele>1601.2</ele>
  <time>2026-08-27T18:28:43Z</time>
  <course>22.29</course>
  <speed>1.7548219282878819</speed>
  <fix>3d</fix>
</trkpt>
<trkpt lat="40.0727957" lon="-105.2305986">
  <ele>1601.2</ele>
  <time>2026-08-27T18:28:43Z</time>
  <course>20.23</course>
  <speed>1.5</speed>
  <fix>3d</fix>
</trkpt>
<trkpt lat="40.0728012" lon="-105.2305957">
  <ele>1601.18</ele>
  <time>2026-08-27T18:28:43Z</time>
  <course>23.3</course>
  <speed>2.0315757431117354</speed>
  <fix>3d</fix>
</trkpt>
<trkpt lat="40.0727986" lon="-105.2305972">
  <ele>1601.2</ele>
  <time>2026-08-27T18:28:43Z</time>
  <course>21.47</course>
  <speed>1.8</speed>
  <fix>3d</fix>
</trkpt>
<trkpt lat="40.0728048" lon="-105.2305938">
  <ele>1601.15</ele>
  <time>2026-08-27T18:28:43Z</time>
  <course>22.43</course>
  <speed>2.2264994947226016</speed>
  <fix>3d</fix>
</trkpt>
<trkpt lat="40.0728017" lon="-105.2305954">
  <ele>1601.17</ele>
  <time>2026-08-27T18:28:43Z</time>
  <course>22.02</course>
  <speed>2.06</speed>
  <fix>3d</fix>
</trkpt>
<trkpt lat="40.0728085" lon="-105.2305918">
  <ele>1601.13</ele>
  <time>2026-08-27T18:28:43Z</time>
  <course>21.55</course>
  <speed>2.336236289419373</speed>
  <fix>3d</fix>
</trkpt>
<trkpt lat="40.0728054" lon="-105.2305935">
  <ele>1601.15</ele>
  <time>2026-08-27T18:28:43Z</time>
  <course>21.56</course>
  <speed>2.24</speed>
  <fix>3d</fix>
</trkpt>
<trkpt lat="40.0728126" lon="-105.2305899">
  <ele>1601.12</ele>
  <time>2026-08-27T18:28:43Z</time>
  <course>20.98</course>
  <speed>2.3700843866833097</speed>
  <fix>3d</fix>
</trkpt>
<trkpt lat="40.0728092" lon="-105.2305916">
  <ele>1601.13</ele>
  <time>2026-08-27T18:28:43Z</time>
  <course>20.96</course>
  <speed>2.34</speed>
  <fix>3d</fix>
</trkpt>
<trkpt lat="40.0728164" lon="-105.230588">
  <ele>1601.12</ele>
  <time>2026-08-27T18:28:44Z</time>
  <course>20.8</course>
  <speed>2.325618197383225</speed>
  <fix>3d</fix>
</trkpt>
<trkpt lat="40.0728132" lon="-105.2305896">
  <ele>1601.12</ele>
  <time>2026-08-27T18:28:44Z</time>
  <course>20.55</course>
  <speed>2.36</speed>
  <fix>3d</fix>
</trkpt>
<trkpt lat="40.0728204" lon="-105.2305861">
  <ele>1601.12</ele>
  <time>2026-08-27T18:28:44Z</time>
  <course>20.94</course>
  <speed>2.240178564311336</speed>
  <fix>3d</fix>
</trkpt>
<trkpt lat="40.0728171" lon="-105.2305877">
  <ele>1601.12</ele>
  <time>2026-08-27T18:28:44Z</time>
  <course>20.41</course>
  <speed>2.31</speed>
  <fix>3d</fix>
</trkpt>
<trkpt lat="40.0728241" lon="-105.2305842">
  <ele>1601.12</ele>
  <time>2026-08-27T18:28:44Z</time>
  <course>21.28</course>
  <speed>2.126640543204234</speed>
  <fix>3d</fix>
</trkpt>
<trkpt lat="40.072821" lon="-105.2305858">
  <ele>1601.12</ele>
  <time>2026-08-27T18:28:44Z</time>
  <course>20.54</course>
  <speed>2.22</speed>
  <fix>3d</fix>
</trkpt>
<trkpt lat="40.0728275" lon="-105.2305825">
  <ele>1601.12</ele>
  <time>2026-08-27T18:28:44Z</time>
  <course>21.77</course>
  <speed>2.0167548190099858</speed>
  <fix>3d</fix>
</trkpt>
<trkpt lat="40.0728246" lon="-105.230584">
  <ele>1601.12</ele>
  <time>2026-08-27T18:28:44Z</time>
  <course>20.91</course>
  <speed>2.11</speed>
  <fix>3d</fix>
</trkpt>
<trkpt lat="40.0728308" lon="-105.2305808">
  <ele>1601.12</ele>
  <time>2026-08-27T18:28:44Z</time>
  <course>22.39</course>
  <speed>1.8848076824970763</speed>
  <fix>3d</fix>
</trkpt>
<trkpt lat="40.072828" lon="-105.2305823">
  <ele>1601.12</ele>
  <time>2026-08-27T18:28:44Z</time>
  <course>21.45</course>
  <speed>1.99</speed>
  <fix>3d</fix>
</trkpt>
<trkpt lat="40.0728339" lon="-105.2305793">
  <ele>1601.11</ele>
  <time>2026-08-27T18:28:44Z</time>
  <course>22.99</course>
  <speed>1.740028735394907</speed>
  <fix>3d</fix>
</trkpt>
<trkpt lat="40.0728313" lon="-105.2305806">
  <ele>1601.12</ele>
  <time>2026-08-27T18:28:44Z</time>
  <course>22.01</course>
  <speed>1.87</speed>
  <fix>3d</fix>
</trkpt>
<trkpt lat="40.0728365" lon="-105.2305777">
  <ele>1601.11</ele>
  <time>2026-08-27T18:28:44Z</time>
  <course>23.39</course>
  <speed>1.5507740002979156</speed>
  <fix>3d</fix>
</trkpt>
<trkpt lat="40.0728342" lon="-105.230579">
  <ele>1601.11</ele>
  <time>2026-08-27T18:28:44Z</time>
  <course>22.42</course>
  <speed>1.71</speed>
  <fix>3d</fix>
</trkpt>
<trkpt lat="40.0728389" lon="-105.2305765">
  <ele>1601.11</ele>
  <time>2026-08-27T18:28:44Z</time>
  <course>23.61</course>
  <speed>1.3223085872821065</speed>
  <fix>3d</fix>
</trkpt>
<trkpt lat="40.072837" lon="-105.2305775">
  <ele>1601.11</ele>
  <time>2026-08-27T18:28:44Z</time>
  <course>22.67</course>
  <speed>1.51</speed>
  <fix>3d</fix>
</trkpt>
<trkpt lat="40.0728409" lon="-105.2305753">
  <ele>1601.11</ele>
  <time>2026-08-27T18:28:44Z</time>
  <course>23.74</course>
  <speed>1.0623088063270492</speed>
  <fix>3d</fix>
</trkpt>
<trkpt lat="40.0728393" lon="-105.2305763">
  <ele>1601.11</ele>
  <time>2026-08-27T18:28:44Z</time>
  <course>22.8</course>
  <speed>1.28</speed>
  <fix>3d</fix>
</trkpt>
<trkpt lat="40.0728425" lon="-105.2305744">
  <ele>1601.1</ele>
  <time>2026-08-27T18:28:44Z</time>
  <course>23.89</course>
  <speed>0.7707788269017254</speed>
  <fix>3d</fix>
</trkpt>
<trkpt lat="40.0728412" lon="-105.2305752">
  <ele>1601.1</ele>
  <time>2026-08-27T18:28:44Z</time>
  <course>22.95</course>
  <speed>1.01</speed>
  <fix>3d</fix>
</trkpt>
<trkpt lat="40.0728435" lon="-105.2305739">
  <ele>1601.1</ele>
  <time>2026-08-27T18:28:44Z</time>
  <course>23.86</course>
  <speed>0.4609772228646444</speed>
  <fix>3d</fix>
</trkpt>
<trkpt lat="40.0728426" lon="-105.2305744">
  <ele>1601.1</ele>
  <time>2026-08-27T18:28:44Z</time>
  <course>23.36</course>
  <speed>0.72</speed>
  <fix>3d</fix>
</trkpt>
<trkpt lat="40.0728439" lon="-105.2305736">
  <ele>1601.09</ele>
  <time>2026-08-27T18:28:44Z</time>
  <course>23.81</course>
  <speed>0.16124515496597097</speed>
  <fix>3d</fix>
</trkpt>
<trkpt lat="40.0728436" lon="-105.2305739">
  <ele>1601.09</ele>
  <time>2026-08-27T18:28:44Z</time>
  <course>24.8</course>
  <speed>0.41</speed>
  <fix>3d</fix>
</trkpt>
<trkpt lat="40.0728441" lon="-105.2305734">
  <ele>1601.09</ele>
  <time>2026-08-27T18:28:44Z</time>
  <course>23.71</course>
  <speed>0.1</speed>
  <fix>3d</fix>
</trkpt>
<trkpt lat="40.0728439" lon="-105.2305735">
  <ele>1601.09</ele>
  <time>2026-08-27T18:28:44Z</time>
  <course>34.44</course>
  <speed>0.12</speed>
  <fix>3d</fix>
</trkpt>
<trkpt lat="40.0728437" lon="-105.2305736">
  <ele>1601.08</ele>
  <time>2026-08-27T18:28:44Z</time>
  <course>23.6</course>
  <speed>0.3080584360149873</speed>
  <fix>3d</fix>
</trkpt>
<trkpt lat="40.0728439" lon="-105.2305735">
  <ele>1601.08</ele>
  <time>2026-08-27T18:28:44Z</time>
  <course>186.46</course>
  <speed>0.13</speed>
  <fix>3d</fix>
</trkpt>
<trkpt lat="40.0728431" lon="-105.2305738">
  <ele>1601.08</ele>
  <time>2026-08-27T18:28:44Z</time>
  <course>23.48</course>
  <speed>0.431740662898458</speed>
  <fix>3d</fix>
</trkpt>
<trkpt lat="40.0728436" lon="-105.2305737">
  <ele>1601.08</ele>
  <time>2026-08-27T18:28:44Z</time>
  <course>193.26</course>
  <speed>0.32</speed>
  <fix>3d</fix>
</trkpt>
<trkpt lat="40.0728423" lon="-105.2305739">
  <ele>1601.07</ele>
  <time>2026-08-27T18:28:44Z</time>
  <course>23.42</course>
  <speed>0.49477267507411926</speed>
  <fix>3d</fix>
</trkpt>
<trkpt lat="40.0728429" lon="-105.2305738">
  <ele>1601.07</ele>
  <time>2026-08-27T18:28:44Z</time>
  <course>194.14</course>
  <speed>0.44</speed>
  <fix>3d</fix>
</trkpt>
<trkpt lat="40.0728414" lon="-105.2305743">
  <ele>1601.08</ele>
  <time>2026-08-27T18:28:44Z</time>
  <course>23.37</course>
  <speed>0.4850773134253961</speed>
  <fix>3d</fix>
</trkpt>
<trkpt lat="40.0728421" lon="-105.230574">
  <ele>1601.07</ele>
  <time>2026-08-27T18:28:44Z</time>
  <course>194.33</course>
  <speed>0.49</speed>
  <fix>3d</fix>
</trkpt>
<trkpt lat="40.0728406" lon="-105.2305746">
  <ele>1601.08</ele>
  <time>2026-08-27T18:28:44Z</time>
  <course>23.34</course>
  <speed>0.4341658669218482</speed>
  <fix>3d</fix>
</trkpt>
<trkpt lat="40.0728412" lon="-105.2305743">
  <ele>1601.07</ele>
  <time>2026-08-27T18:28:44Z</time>
  <course>194.64</course>
  <speed>0.48</speed>
  <fix>3d</fix>
</trkpt>
<trkpt lat="40.0728399" lon="-105.2305748">
  <ele>1601.08</ele>
  <time>2026-08-27T18:28:44Z</time>
  <course>23.33</course>
  <speed>0.33241540277189324</speed>
  <fix>3d</fix>
</trkpt>
<trkpt lat="40.0728405" lon="-105.2305746">
  <ele>1601.08</ele>
  <time>2026-08-27T18:28:44Z</time>
  <course>195.29</course>
  <speed>0.41</speed>
  <fix>3d</fix>
</trkpt>
<trkpt lat="40.0728394" lon="-105.230575">
  <ele>1601.08</ele>
  <time>2026-08-27T18:28:44Z</time>
  <course>21.01</course>
  <speed>0.2220360331117452</speed>
  <fix>3d</fix>
</trkpt>
<trkpt lat="40.0728398" lon="-105.2305748">
  <ele>1601.08</ele>
  <time>2026-08-27T18:28:44Z</time>
  <course>195.74</course>
  <speed>0.32</speed>
  <fix>3d</fix>
</trkpt>
<trkpt lat="40.072839" lon="-105.230575">
  <ele>1601.09</ele>
  <time>2026-08-27T18:28:44Z</time>
  <course>7.44</course>
  <speed>0.12041594578792296</speed>
  <fix>3d</fix>
</trkpt>
<trkpt lat="40.0728393" lon="-105.230575">
  <ele>1601.08</ele>
  <time>2026-08-27T18:28:44Z</time>
  <course>191.03</course>
  <speed>0.21</speed>
  <fix>3d</fix>
</trkpt>
<trkpt lat="40.0728389" lon="-105.2305751">
  <ele>1601.09</ele>
  <time>2026-08-27T18:28:44Z</time>
  <course>358.01</course>
  <speed>0.09433981132056603</speed>
  <fix>3d</fix>
</trkpt>
<trkpt lat="40.072839" lon="-105.230575">
  <ele>1601.09</ele>
  <time>2026-08-27T18:28:44Z</time>
  <course>192.62</course>
  <speed>0.11</speed>
  <fix>3d</fix>
</trkpt>
<trkpt lat="40.0728389" lon="-105.2305753">
  <ele>1601.09</ele>
  <time>2026-08-27T18:28:44Z</time>
  <course>359.65</course>
  <speed>0.08062257748298549</speed>
  <fix>3d</fix>
</trkpt>
<trkpt lat="40.0728389" lon="-105.2305752">
  <ele>1601.09</ele>
  <time>2026-08-27T18:28:44Z</time>
  <course>239.2</course>
  <speed>0.07</speed>
  <fix>3d</fix>
</trkpt>
<trkpt lat="40.0728389" lon="-105.2305755">
  <ele>1601.09</ele>
  <time>2026-08-27T18:28:44Z</time>
  <course>0.17</course>
  <speed>0.0848528137423857</speed>
  <fix>3d</fix>
</trkpt>
<trkpt lat="40.0728389" lon="-105.2305753">
  <ele>1601.09</ele>
  <time>2026-08-27T18:28:44Z</time>
  <course>282.95</course>
  <speed>0.08</speed>
  <fix>3d</fix>
</trkpt>
<trkpt lat="40.072839" lon="-105.2305756">
  <ele>1601.09</ele>
  <time>2026-08-27T18:28:44Z</time>
  <course>0.23</course>
  <speed>0.11704699910719625</speed>
  <fix>3d</fix>
</trkpt>
<trkpt lat="40.072839" lon="-105.2305755">
  <ele>1601.09</ele>
  <time>2026-08-27T18:28:44Z</time>
  <course>319.22</course>
  <speed>0.09</speed>
  <fix>3d</fix>
</trkpt>
<trkpt lat="40.0728393" lon="-105.2305756">
  <ele>1601.09</ele>
  <time>2026-08-27T18:28:44Z</time>
  <course>0.22</course>
  <speed>0.16124515496597097</speed>
  <fix>3d</fix>
</trkpt>
<trkpt lat="40.0728391" lon="-105.2305756">
  <ele>1601.09</ele>
  <time>2026-08-27T18:28:44Z</time>
  <course>341.61</course>
  <speed>0.12</speed>
  <fix>3d</fix>
</trkpt>
<trkpt lat="40.0728395" lon="-105.2305758">
  <ele>1601.09</ele>
  <time>2026-08-27T18:28:44Z</time>
  <course>0.22</course>
  <speed>0.19026297590440447</speed>
  <fix>3d</fix>
</trkpt>
<trkpt lat="40.0728393" lon="-105.2305757">
  <ele>1601.09</ele>
  <time>2026-08-27T18:28:44Z</time>
  <course>352.5</course>
  <speed>0.16</speed>
  <fix>3d</fix>
</trkpt>
<trkpt lat="40.07284" lon="-105.2305758">
  <ele>1601.09</ele>
  <time>2026-08-27T18:28:44Z</time>
  <course>0.23</course>
  <speed>0.22</speed>
  <fix>3d</fix>
</trkpt>
<trkpt lat="40.0728397" lon="-105.2305758">
  <ele>1601.09</ele>
  <time>2026-08-27T18:28:44Z</time>
  <course>357.38</course>
  <speed>0.2</speed>
  <fix>3d</fix>
</trkpt>
<trkpt lat="40.0728403" lon="-105.2305758">
  <ele>1601.08</ele>
  <time>2026-08-27T18:28:44Z</time>
  <course>0.23</course>
  <speed>0.23</speed>
  <fix>3d</fix>
</trkpt>
<trkpt lat="40.07284" lon="-105.2305758">
  <ele>1601.08</ele>
  <time>2026-08-27T18:28:44Z</time>
  <course>0.12</course>
  <speed>0.22</speed>
  <fix>3d</fix>
</trkpt>
<trkpt lat="40.0728408" lon="-105.2305758">
  <ele>1601.08</ele>
  <time>2026-08-27T18:28:44Z</time>
  <course>0.22</course>
  <speed>0.23021728866442676</speed>
  <fix>3d</fix>
</trkpt>
<trkpt lat="40.0728405" lon="-105.2305758">
  <ele>1601.08</ele>
  <time>2026-08-27T18:28:44Z</time>
  <course>2.35</course>
  <speed>0.23</speed>
  <fix>3d</fix>
</trkpt>
<trkpt lat="40.0728413" lon="-105.2305758">
  <ele>1601.09</ele>
  <time>2026-08-27T18:28:44Z</time>
  <course>0.23</course>
  <speed>0.22090722034374521</speed>
  <fix>3d</fix>
</trkpt>
<trkpt lat="40.0728409" lon="-105.2305758">
  <ele>1601.08</ele>
  <time>2026-08-27T18:28:44Z</time>
  <course>4.42</course>
  <speed>0.23</speed>
  <fix>3d</fix>
</trkpt>
<trkpt lat="40.0728417" lon="-105.2305756">
  <ele>1601.09</ele>
  <time>2026-08-27T18:28:44Z</time>
  <course>0.25</course>
  <speed>0.21213203435596426</speed>
  <fix>3d</fix>
</trkpt>
<trkpt lat="40.0728413" lon="-105.2305758">
  <ele>1601.09</ele>
  <time>2026-08-27T18:28:44Z</time>
  <course>6.55</course>
  <speed>0.22</speed>
  <fix>3d</fix>
</trkpt>
<trkpt lat="40.072842" lon="-105.2305756">
  <ele>1601.09</ele>
  <time>2026-08-27T18:28:44Z</time>
  <course>0.25</course>
  <speed>0.19235384061671343</speed>
  <fix>3d</fix>
</trkpt>
<trkpt lat="40.0728417" lon="-105.2305757">
  <ele>1601.09</ele>
  <time>2026-08-27T18:28:44Z</time>
  <course>8.98</course>
  <speed>0.21</speed>
  <fix>3d</fix>
</trkpt>
<trkpt lat="40.0728424" lon="-105.2305756">
  <ele>1601.09</ele>
  <time>2026-08-27T18:28:44Z</time>
  <course>0.27</course>
  <speed>0.1649242250247064</speed>
  <fix>3d</fix>
</trkpt>
<trkpt lat="40.0728421" lon="-105.2305756">
  <ele>1601.09</ele>
  <time>2026-08-27T18:28:44Z</time>
  <course>11.57</course>
  <speed>0.19</speed>
  <fix>3d</fix>
</trkpt>
<trkpt lat="40.0728426" lon="-105.2305755">
  <ele>1601.09</ele>
  <time>2026-08-27T18:28:44Z</time>
  <course>0.25</course>
  <speed>0.13601470508735444</speed>
  <fix>3d</fix>
</trkpt>
<trkpt lat="40.0728424" lon="-105.2305755">
  <ele>1601.09</ele>
  <time>2026-08-27T18:28:44Z</time>
  <course>14.38</course>
  <speed>0.16</speed>
  <fix>3d</fix>
</trkpt>
<trkpt lat="40.0728429" lon="-105.2305753">
  <ele>1601.09</ele>
  <time>2026-08-27T18:28:44Z</time>
  <course>0.26</course>
  <speed>0.10770329614269007</speed>
  <fix>3d</fix>
</trkpt>
<trkpt lat="40.0728426" lon="-105.2305754">
  <ele>1601.09</ele>
  <time>2026-08-27T18:28:44Z</time>
  <course>18.19</course>
  <speed>0.14</speed>
  <fix>3d</fix>
</trkpt>
<trkpt lat="40.072843" lon="-105.2305751">
  <ele>1601.09</ele>
  <time>2026-08-27T18:28:44Z</time>
  <course>0.24</course>
  <speed>0.08062257748298549</speed>
  <fix>3d</fix>
</trkpt>
<trkpt lat="40.0728429" lon="-105.2305753">
  <ele>1601.09</ele>
  <time>2026-08-27T18:28:44Z</time>
  <course>23.4</course>
  <speed>0.11</speed>
  <fix>3d</fix>
</trkpt>
<trkpt lat="40.0728431" lon="-105.2305751">
  <ele>1601.09</ele>
  <time>2026-08-27T18:28:44Z</time>
  <course>0.23</course>
  <speed>0.0565685424949238</speed>
  <fix>3d</fix>
</trkpt>
<trkpt lat="40.072843" lon="-105.2305752">
  <ele>1601.09</ele>
  <time>2026-08-27T18:28:44Z</time>
  <course>31.24</course>
  <speed>0.08</speed>
  <fix>3d</fix>
</trkpt>
<trkpt lat="40.0728432" lon="-105.230575">
  <ele>1601.08</ele>
  <time>2026-08-27T18:28:44Z</time>
  <course>0.24</course>
  <speed>0.0316227766016838</speed>
  <fix>3d</fix>
</trkpt>
<trkpt lat="40.0728431" lon="-105.2305751">
  <ele>1601.08</ele>
  <time>2026-08-27T18:28:44Z</time>
  <course>45.01</course>
  <speed>0.05</speed>
  <fix>3d</fix>
</trkpt>
<trkpt lat="40.0728432" lon="-105.230575">
  <ele>1601.08</ele>
  <time>2026-08-27T18:28:44Z</time>
  <course>0.22</course>
  <speed>0.0316227766016838</speed>
  <fix>3d</fix>
</trkpt>
<trkpt lat="40.0728432" lon="-105.230575">
  <ele>1601.08</ele>
  <time>2026-08-27T18:28:44Z</time>
  <course>73.05</course>
  <speed>0.03</speed>
  <fix>3d</fix>
</trkpt>
<trkpt lat="40.0728432" lon="-105.2305748">
  <ele>1601.09</ele>
  <time>2026-08-27T18:28:44Z</time>
  <course>0.21</course>
  <speed>0.04242640687119285</speed>
  <fix>3d</fix>
</trkpt>
<trkpt lat="40.0728432" lon="-105.2305749">
  <ele>1601.08</ele>
  <time>2026-08-27T18:28:44Z</time>
  <course>113.82</course>
  <speed>0.03</speed>
  <fix>3d</fix>
</trkpt>
<trkpt lat="40.0728432" lon="-105.2305748">
  <ele>1601.09</ele>
  <time>2026-08-27T18:28:44Z</time>
  <course>0.22</course>
  <speed>0.053851648071345036</speed>
  <fix>3d</fix>
</trkpt>
<trkpt lat="40.0728432" lon="-105.2305748">
  <ele>1601.09</ele>
  <time>2026-08-27T18:28:44Z</time>
  <course>140.88</course>
  <speed>0.04</speed>
  <fix>3d</fix>
</trkpt>
<trkpt lat="40.0728431" lon="-105.2305748">
  <ele>1601.09</ele>
  <time>2026-08-27T18:28:44Z</time>
  <course>0.21</course>
  <speed>0.07280109889280519</speed>
  <fix>3d</fix>
</trkpt>
<trkpt lat="40.0728431" lon="-105.2305748">
  <ele>1601.09</ele>
  <time>2026-08-27T18:28:44Z</time>
  <course>155.43</course>
  <speed>0.06</speed>
  <fix>3d</fix>
</trkpt>
<trkpt lat="40.0728429" lon="-105.2305746">
  <ele>1601.09</ele>
  <time>2026-08-27T18:28:44Z</time>
  <course>0.21</course>
  <speed>0.08062257748298549</speed>
  <fix>3d</fix>
</trkpt>
<trkpt lat="40.072843" lon="-105.2305747">
  <ele>1601.09</ele>
  <time>2026-08-27T18:28:44Z</time>
  <course>164.09</course>
  <speed>0.07</speed>
  <fix>3d</fix>
</trkpt>
<trkpt lat="40.0728427" lon="-105.2305746">
  <ele>1601.09</ele>
  <time>2026-08-27T18:28:44Z</time>
  <course>0.21</course>
  <speed>0.09055385138137417</speed>
  <fix>3d</fix>
</trkpt>
<trkpt lat="40.0728429" lon="-105.2305746">
  <ele>1601.09</ele>
  <time>2026-08-27T18:28:44Z</time>
  <course>169.68</course>
  <speed>0.08</speed>
  <fix>3d</fix>
</trkpt>
<trkpt lat="40.0728426" lon="-105.2305746">
  <ele>1601.07</ele>
  <time>2026-08-27T18:28:44Z</time>
  <course>0.5</course>
  <speed>0.09</speed>
  <fix>3d</fix>
</trkpt>
<trkpt lat="40.0728427" lon="-105.2305746">
  <ele>1601.08</ele>
  <time>2026-08-27T18:28:44Z</time>
  <course>174.62</course>
  <speed>0.09</speed>
  <fix>3d</fix>
</trkpt>
<trkpt lat="40.0728424" lon="-105.2305746">
  <ele>1601.03</ele>
  <time>2026-08-27T18:28:44Z</time>
  <course>0.89</course>
  <speed>0.09</speed>
  <fix>3d</fix>
</trkpt>
<trkpt lat="40.0728426" lon="-105.2305746">
  <ele>1601.06</ele>
  <time>2026-08-27T18:28:44Z</time>
  <course>178.49</course>
  <speed>0.09</speed>
  <fix>3d</fix>
</trkpt>
<trkpt lat="40.0728423" lon="-105.2305746">
  <ele>1600.94</ele>
  <time>2026-08-27T18:28:44Z</time>
  <course>1.22</course>
  <speed>0.08</speed>
  <fix>3d</fix>
</trkpt>
<trkpt lat="40.0728424" lon="-105.2305746">
  <ele>1601.01</ele>
  <time>2026-08-27T18:28:44Z</time>
  <course>180.45</course>
  <speed>0.09</speed>
  <fix>3d</fix>
</trkpt>
<trkpt lat="40.072842" lon="-105.2305746">
  <ele>1600.81</ele>
  <time>2026-08-27T18:28:44Z</time>
  <course>1.51</course>
  <speed>0.07</speed>
  <fix>3d</fix>
</trkpt>
<trkpt lat="40.0728422" lon="-105.2305746">
  <ele>1600.91</ele>
  <time>2026-08-27T18:28:44Z</time>
  <course>181.13</course>
  <speed>0.08</speed>
  <fix>3d</fix>
</trkpt>
<trkpt lat="40.072842" lon="-105.2305746">
  <ele>1600.64</ele>
  <time>2026-08-27T18:28:44Z</time>
  <course>1.76</course>
  <speed>0.06</speed>
  <fix>3d</fix>
</trkpt>
<trkpt lat="40.0728421" lon="-105.2305746">
  <ele>1600.78</ele>
  <time>2026-08-27T18:28:44Z</time>
  <course>180.51</course>
  <speed>0.07</speed>
  <fix>3d</fix>
</trkpt>
<trkpt lat="40.0728419" lon="-105.2305746">
  <ele>1600.42</ele>
  <time>2026-08-27T18:28:44Z</time>
  <course>1.98</course>
  <speed>0.05</speed>
  <fix>3d</fix>
</trkpt>
<trkpt lat="40.0728419" lon="-105.2305746">
  <ele>1600.6</ele>
  <time>2026-08-27T18:28:44Z</time>
  <course>178.06</course>
  <speed>0.06</speed>
  <fix>3d</fix>
</trkpt>
<trkpt lat="40.0728418" lon="-105.2305746">
  <ele>1600.15</ele>
  <time>2026-08-27T18:28:44Z</time>
  <course>2.16</course>
  <speed>0.04</speed>
  <fix>3d</fix>
</trkpt>
<trkpt lat="40.0728418" lon="-105.2305746">
  <ele>1600.37</ele>
  <time>2026-08-27T18:28:44Z</time>
  <course>173.77</course>
  <speed>0.05</speed>
  <fix>3d</fix>
</trkpt>
<trkpt lat="40.0728417" lon="-105.2305746">
  <ele>1599.85</ele>
  <time>2026-08-27T18:28:44Z</time>
  <course>2.17</course>
  <speed>0.0316227766016838</speed>
  <fix>3d</fix>
</trkpt>
<trkpt lat="40.0728417" lon="-105.2305746">
  <ele>1600.09</ele>
  <time>2026-08-27T18:28:44Z</time>
  <course>166.49</course>
  <speed>0.04</speed>
  <fix>3d</fix>
</trkpt>
<trkpt lat="40.0728417" lon="-105.2305746">
  <ele>1599.53</ele>
  <time>2026-08-27T18:28:44Z</time>
  <course>2.07</course>
  <speed>0.0282842712474619</speed>
  <fix>3d</fix>
</trkpt>
<trkpt lat="40.0728417" lon="-105.2305746">
  <ele>1599.79</ele>
  <time>2026-08-27T18:28:44Z</time>
  <course>153.63</course>
  <speed>0.03</speed>
  <fix>3d</fix>
</trkpt>
<trkpt lat="40.0728415" lon="-105.2305744">
  <ele>1599.2</ele>
  <time>2026-08-27T18:28:44Z</time>
  <course>1.96</course>
  <speed>0.022360679774997897</speed>
  <fix>3d</fix>
</trkpt>
<trkpt lat="40.0728416" lon="-105.2305745">
  <ele>1599.47</ele>
  <time>2026-08-27T18:28:44Z</time>
  <course>134.34</course>
  <speed>0.02</speed>
  <fix>3d</fix>
</trkpt>
<trkpt lat="40.0728415" lon="-105.2305744">
  <ele>1598.88</ele>
  <time>2026-08-27T18:28:44Z</time>
  <course>1.85</course>
  <speed>0.02</speed>
  <fix>3d</fix>
</trkpt>
<trkpt lat="40.0728415" lon="-105.2305744">
  <ele>1599.14</ele>
  <time>2026-08-27T18:28:44Z</time>
  <course>110.56</course>
  <speed>0.02</speed>
  <fix>3d</fix>
</trkpt>
<trkpt lat="40.0728415" lon="-105.2305744">
  <ele>1598.55</ele>
  <time>2026-08-27T18:28:44Z</time>
  <course>1.75</course>
  <speed>0.022360679774997897</speed>
  <fix>3d</fix>
</trkpt>
<trkpt lat="40.0728415" lon="-105.2305744">
  <ele>1598.82</ele>
  <time>2026-08-27T18:28:44Z</time>
  <course>81.4</course>
  <speed>0.02</speed>
  <fix>3d</fix>
</trkpt>
<trkpt lat="40.0728415" lon="-105.2305744">
  <ele>1598.24</ele>
  <time>2026-08-27T18:28:44Z</time>
  <course>1.68</course>
  <speed>0.022360679774997897</speed>
  <fix>3d</fix>
</trkpt>
<trkpt lat="40.0728415" lon="-105.2305744">
  <ele>1598.5</ele>
  <time>2026-08-27T18:28:44Z</time>
  <course>51.75</course>
  <speed>0.02</speed>
  <fix>3d</fix>
</trkpt>
<trkpt lat="40.0728415" lon="-105.2305743">
  <ele>1597.93</ele>
  <time>2026-08-27T18:28:44Z</time>
  <course>1.63</course>
  <speed>0.0316227766016838</speed>
  <fix>3d</fix>
</trkpt>
<trkpt lat="40.0728415" lon="-105.2305743">
  <ele>1598.18</ele>
  <time>2026-08-27T18:28:44Z</time>
  <course>32.17</course>
  <speed>0.03</speed>
  <fix>3d</fix>
</trkpt>
<trkpt lat="40.0728417" lon="-105.2305743">
  <ele>1597.62</ele>
  <time>2026-08-27T18:28:44Z</time>
  <course>1.58</course>
  <speed>0.03</speed>
  <fix>3d</fix>
</trkpt>
<trkpt lat="40.0728416" lon="-105.2305743">
  <ele>1597.87</ele>
  <time>2026-08-27T18:28:44Z</time>
  <course>19.52</course>
  <speed>0.03</speed>
  <fix>3d</fix>
</trkpt>
<trkpt lat="40.0728418" lon="-105.2305743">
  <ele>1597.32</ele>
  <time>2026-08-27T18:28:44Z</time>
  <course>1.48</course>
  <speed>0.03</speed>
  <fix>3d</fix>
</trkpt>
<trkpt lat="40.0728417" lon="-105.2305743">
  <ele>1597.57</ele>
  <time>2026-08-27T18:28:44Z</time>
  <course>10.16</course>
  <speed>0.03</speed>
  <fix>3d</fix>
</trkpt>
<trkpt lat="40.0728418" lon="-105.2305743">
  <ele>1597.03</ele>
  <time>2026-08-27T18:28:44Z</time>
  <course>1.17</course>
  <speed>0.03</speed>
  <fix>3d</fix>
</trkpt>
<trkpt lat="40.0728417" lon="-105.2305743">
  <ele>1597.27</ele>
  <time>2026-08-27T18:28:44Z</time>
  <course>2.18</course>
  <speed>0.03</speed>
  <fix>3d</fix>
</trkpt>
<trkpt lat="40.0728419" lon="-105.2305743">
  <ele>1596.79</ele>
  <time>2026-08-27T18:28:44Z</time>
  <course>0.8</course>
  <speed>0.0316227766016838</speed>
  <fix>3d</fix>
</trkpt>
<trkpt lat="40.0728418" lon="-105.2305743">
  <ele>1597.0</ele>
  <time>2026-08-27T18:28:44Z</time>
  <course>352.43</course>
  <speed>0.03</speed>
  <fix>3d</fix>
</trkpt>
<trkpt lat="40.0728419" lon="-105.2305743">
  <ele>1596.58</ele>
  <time>2026-08-27T18:28:44Z</time>
  <course>0.44</course>
  <speed>0.022360679774997897</speed>
  <fix>3d</fix>
</trkpt>
<trkpt lat="40.0728419" lon="-105.2305743">
  <ele>1596.76</ele>
  <time>2026-08-27T18:28:44Z</time>
  <course>338.79</course>
  <speed>0.03</speed>
  <fix>3d</fix>
</trkpt>
<trkpt lat="40.072842" lon="-105.2305743">
  <ele>1596.43</ele>
  <time>2026-08-27T18:28:44Z</time>
  <course>0.1</course>
  <speed>0.0282842712474619</speed>
  <fix>3d</fix>
</trkpt>
<trkpt lat="40.0728419" lon="-105.2305743">
  <ele>1596.56</ele>
  <time>2026-08-27T18:28:44Z</time>
  <course>321.61</course>
  <speed>0.03</speed>
  <fix>3d</fix>
</trkpt>
<trkpt lat="40.072842" lon="-105.2305744">
  <ele>1596.31</ele>
  <time>2026-08-27T18:28:44Z</time>
  <course>359.94</course>
  <speed>0.0412310562561766</speed>
  <fix>3d</fix>
</trkpt>
<trkpt lat="40.072842" lon="-105.2305743">
  <ele>1596.4</ele>
  <time>2026-08-27T18:28:44Z</time>
  <course>304.43</course>
  <speed>0.03</speed>
  <fix>3d</fix>
</trkpt>
<trkpt lat="40.072842" lon="-105.2305744">
  <ele>1596.21</ele>
  <time>2026-08-27T18:28:44Z</time>
  <course>359.96</course>
  <speed>0.05099019513592785</speed>
  <fix>3d</fix>
</trkpt>
<trkpt lat="40.072842" lon="-105.2305744">
  <ele>1596.29</ele>
  <time>2026-08-27T18:28:44Z</time>
  <course>291.27</course>
  <speed>0.04</speed>
  <fix>3d</fix>
</trkpt>
<trkpt lat="40.072842" lon="-105.2305746">
  <ele>1596.13</ele>
  <time>2026-08-27T18:28:44Z</time>
  <course>0.02</course>
  <speed>0.05</speed>
  <fix>3d</fix>
</trkpt>
<trkpt lat="40.072842" lon="-105.2305745">
  <ele>1596.2</ele>
  <time>2026-08-27T18:28:44Z</time>
  <course>283.26</course>
  <speed>0.05</speed>
  <fix>3d</fix>
</trkpt>
<trkpt lat="40.072842" lon="-105.2305748">
  <ele>1596.06</ele>
  <time>2026-08-27T18:28:44Z</time>
  <course>0.1</course>
  <speed>0.06</speed>
  <fix>3d</fix>
</trkpt>
<trkpt lat="40.072842" lon="-105.2305746">
  <ele>1596.12</ele>
  <time>2026-08-27T18:28:44Z</time>
  <course>279.09</course>
  <speed>0.05</speed>
  <fix>3d</fix>
</trkpt>
<trkpt lat="40.072842" lon="-105.2305748">
  <ele>1595.98</ele>
  <time>2026-08-27T18:28:44Z</time>
  <course>0.17</course>
  <speed>0.05</speed>
  <fix>3d</fix>
</trkpt>
<trkpt lat="40.072842" lon="-105.2305748">
  <ele>1596.04</ele>
  <time>2026-08-27T18:28:44Z</time>
  <course>276.76</course>
  <speed>0.06</speed>
  <fix>3d</fix>
</trkpt>
<trkpt lat="40.072842" lon="-105.230575">
  <ele>1595.89</ele>
  <time>2026-08-27T18:28:44Z</time>
  <course>0.22</course>
  <speed>0.05</speed>
  <fix>3d</fix>
</trkpt>
<trkpt lat="40.072842" lon="-105.2305749">
  <ele>1595.96</ele>
  <time>2026-08-27T18:28:44Z</time>
  <course>275.3</course>
  <speed>0.05</speed>
  <fix>3d</fix>
</trkpt>
<trkpt lat="40.072842" lon="-105.2305751">
  <ele>1595.81</ele>
  <time>2026-08-27T18:28:44Z</time>
  <course>0.24</course>
  <speed>0.05</speed>
  <fix>3d</fix>
</trkpt>
<trkpt lat="40.072842" lon="-105.230575">
  <ele>1595.88</ele>
  <time>2026-08-27T18:28:44Z</time>
  <course>274.44</course>
  <speed>0.05</speed>
  <fix>3d</fix>
</trkpt>
<trkpt lat="40.072842" lon="-105.2305753">
  <ele>1595.72</ele>
  <time>2026-08-27T18:28:44Z</time>
  <course>0.25</course>
  <speed>0.04</speed>
  <fix>3d</fix>
</trkpt>
<trkpt lat="40.072842" lon="-105.2305751">
  <ele>1595.79</ele>
  <time>2026-08-27T18:28:44Z</time>
  <course>274.0</course>
  <speed>0.04</speed>
  <fix>3d</fix>
</trkpt>
<trkpt lat="40.072842" lon="-105.2305753">
  <ele>1595.62</ele>
  <time>2026-08-27T18:28:44Z</time>
  <course>0.26</course>
  <speed>0.03</speed>
  <fix>3d</fix>
</trkpt>
<trkpt lat="40.072842" lon="-105.2305752">
  <ele>1595.7</ele>
  <time>2026-08-27T18:28:44Z</time>
  <course>274.01</course>
  <speed>0.04</speed>
  <fix>3d</fix>
</trkpt>
<trkpt lat="40.072842" lon="-105.2305753">
  <ele>1595.52</ele>
  <time>2026-08-27T18:28:44Z</time>
  <course>0.26</course>
  <speed>0.02</speed>
  <fix>3d</fix>
</trkpt>
<trkpt lat="40.072842" lon="-105.2305753">
  <ele>1595.6</ele>
  <time>2026-08-27T18:28:44Z</time>
  <course>274.03</course>
  <speed>0.03</speed>
  <fix>3d</fix>
</trkpt>
<trkpt lat="40.072842" lon="-105.2305755">
  <ele>1595.42</ele>
  <time>2026-08-27T18:28:44Z</time>
  <course>0.25</course>
  <speed>0.02</speed>
  <fix>3d</fix>
</trkpt>
<trkpt lat="40.072842" lon="-105.2305754">
  <ele>1595.51</ele>
  <time>2026-08-27T18:28:44Z</time>
  <course>273.82</course>
  <speed>0.02</speed>
  <fix>3d</fix>
</trkpt>
<trkpt lat="40.072842" lon="-105.2305755">
  <ele>1595.32</ele>
  <time>2026-08-27T18:28:44Z</time>
  <course>0.24</course>
  <speed>0.01</speed>
  <fix>3d</fix>
</trkpt>
<trkpt lat="40.072842" lon="-105.2305755">
  <ele>1595.4</ele>
  <time>2026-08-27T18:28:44Z</time>
  <course>273.82</course>
  <speed>0.01</speed>
  <fix>3d</fix>
</trkpt>
<trkpt lat="40.072842" lon="-105.2305756">
  <ele>1595.22</ele>
  <time>2026-08-27T18:28:44Z</time>
  <course>0.23</course>
  <speed>0.0</speed>
  <fix>3d</fix>
</trkpt>
<trkpt lat="40.072842" lon="-105.2305755">
  <ele>1595.31</ele>
  <time>2026-08-27T18:28:44Z</time>
  <course>274.03</course>
  <speed>0.01</speed>
  <fix>3d</fix>
</trkpt>
<trkpt lat="40.072842" lon="-105.2305756">
  <ele>1595.12</ele>
  <time>2026-08-27T18:28:44Z</time>
  <course>0.22</course>
  <speed>0.0</speed>
  <fix>3d</fix>
</trkpt>
<trkpt lat="40.072842" lon="-105.2305756">
  <ele>1595.21</ele>
  <time>2026-08-27T18:28:44Z</time>
  <course>278.23</course>
  <speed>0.0</speed>
  <fix>3d</fix>
</trkpt>
<trkpt lat="40.072842" lon="-105.2305756">
  <ele>1595.02</ele>
  <time>2026-08-27T18:28:44Z</time>
  <course>0.22</course>
  <speed>0.0</speed>
  <fix>3d</fix>
</trkpt>
<trkpt lat="40.072842" lon="-105.2305756">
  <ele>1595.11</ele>
  <time>2026-08-27T18:28:44Z</time>
  <course>84.13</course>
  <speed>0.0</speed>
  <fix>3d</fix>
</trkpt>
<trkpt lat="40.072842" lon="-105.2305756">
  <ele>1594.92</ele>
  <time>2026-08-27T18:28:44Z</time>
  <course>0.21</course>
  <speed>0.01</speed>
  <fix>3d</fix>
</trkpt>
<trkpt lat="40.072842" lon="-105.2305756">
  <ele>1595.01</ele>
  <time>2026-08-27T18:28:44Z</time>
  <course>88.49</course>
  <speed>0.01</speed>
  <fix>3d</fix>
</trkpt>
<trkpt lat="40.072842" lon="-105.2305756">
  <ele>1594.82</ele>
  <time>2026-08-27T18:28:44Z</time>
  <course>0.21</course>
  <speed>0.01</speed>
  <fix>3d</fix>
</trkpt>
<trkpt lat="40.072842" lon="-105.2305756">
  <ele>1594.9</ele>
  <time>2026-08-27T18:28:44Z</time>
  <course>89.47</course>
  <speed>0.01</speed>
  <fix>3d</fix>
</trkpt>
<trkpt lat="40.072842" lon="-105.2305755">
  <ele>1594.72</ele>
  <time>2026-08-27T18:28:44Z</time>
  <course>0.2</course>
  <speed>0.02</speed>
  <fix>3d</fix>
</trkpt>
<trkpt lat="40.072842" lon="-105.2305755">
  <ele>1594.81</ele>
  <time>2026-08-27T18:28:44Z</time>
  <course>90.08</course>
  <speed>0.02</speed>
  <fix>3d</fix>
</trkpt>
<trkpt lat="40.072842" lon="-105.2305755">
  <ele>1594.62</ele>
  <time>2026-08-27T18:28:44Z</time>
  <course>0.2</course>
  <speed>0.02</speed>
  <fix>3d</fix>
</trkpt>
<trkpt lat="40.072842" lon="-105.2305755">
  <ele>1594.71</ele>
  <time>2026-08-27T18:28:44Z</time>
  <course>90.27</course>
  <speed>0.02</speed>
  <fix>3d</fix>
</trkpt>
<trkpt lat="40.072842" lon="-105.2305753">
  <ele>1594.52</ele>
  <time>2026-08-27T18:28:44Z</time>
  <course>0.19</course>
  <speed>0.02</speed>
  <fix>3d</fix>
</trkpt>
<trkpt lat="40.072842" lon="-105.2305754">
  <ele>1594.61</ele>
  <time>2026-08-27T18:28:44Z</time>
  <course>90.07</course>
  <speed>0.02</speed>
  <fix>3d</fix>
</trkpt>
<trkpt lat="40.072842" lon="-105.2305753">
  <ele>1594.42</ele>
  <time>2026-08-27T18:28:44Z</time>
  <course>0.19</course>
  <speed>0.02</speed>
  <fix>3d</fix>
</trkpt>
<trkpt lat="40.072842" lon="-105.2305753">
  <ele>1594.51</ele>
  <time>2026-08-27T18:28:44Z</time>
  <course>89.82</course>
  <speed>0.02</speed>
  <fix>3d</fix>
</trkpt>
<trkpt lat="40.072842" lon="-105.2305753">
  <ele>1594.32</ele>
  <time>2026-08-27T18:28:44Z</time>
  <course>0.18</course>
  <speed>0.02</speed>
  <fix>3d</fix>
</trkpt>
<trkpt lat="40.072842" lon="-105.2305753">
  <ele>1594.4</ele>
  <time>2026-08-27T18:28:44Z</time>
  <course>89.8</course>
  <speed>0.02</speed>
  <fix>3d</fix>
</trkpt>
<trkpt lat="40.072842" lon="-105.2305751">
  <ele>1594.22</ele>
  <time>2026-08-27T18:28:44Z</time>
  <course>0.17</course>
  <speed>0.02</speed>
  <fix>3d</fix>
</trkpt>
<trkpt lat="40.072842" lon="-105.2305752">
  <ele>1594.31</ele>
  <time>2026-08-27T18:28:44Z</time>
  <course>90.48</course>
  <speed>0.02</speed>
  <fix>3d</fix>
</trkpt>
<trkpt lat="40.072842" lon="-105.2305751">
  <ele>1594.12</ele>
  <time>2026-08-27T18:28:44Z</time>
  <course>0.18</course>
  <speed>0.02</speed>
  <fix>3d</fix>
</trkpt>
<trkpt lat="40.072842" lon="-105.2305751">
  <ele>1594.21</ele>
  <time>2026-08-27T18:28:44Z</time>
  <course>91.41</course>
  <speed>0.02</speed>
  <fix>3d</fix>
</trkpt>
<trkpt lat="40.072842" lon="-105.2305751">
  <ele>1594.02</ele>
  <time>2026-08-27T18:28:44Z</time>
  <course>0.18</course>
  <speed>0.01</speed>
  <fix>3d</fix>
</trkpt>
<trkpt lat="40.072842" lon="-105.2305751">
  <ele>1594.11</ele>
  <time>2026-08-27T18:28:44Z</time>
  <course>91.27</course>
  <speed>0.02</speed>
  <fix>3d</fix>
</trkpt>
<trkpt lat="40.072842" lon="-105.2305751">
  <ele>1593.92</ele>
  <time>2026-08-27T18:28:44Z</time>
  <course>0.17</course>
  <speed>0.01</speed>
  <fix>3d</fix>
</trkpt>
<trkpt lat="40.072842" lon="-105.2305751">
  <ele>1594.01</ele>
  <time>2026-08-27T18:28:44Z</time>
  <course>91.39</course>
  <speed>0.01</speed>
  <fix>3d</fix>
</trkpt>
<trkpt lat="40.072842" lon="-105.230575">
  <ele>1593.82</ele>
  <time>2026-08-27T18:28:44Z</time>
  <course>0.16</course>
  <speed>0.01</speed>
  <fix>3d</fix>
</trkpt>
<trkpt lat="40.072842" lon="-105.2305751">
  <ele>1593.9</ele>
  <time>2026-08-27T18:28:44Z</time>
  <course>92.92</course>
  <speed>0.01</speed>
  <fix>3d</fix>
</trkpt>
<trkpt lat="40.072842" lon="-105.230575">
  <ele>1593.72</ele>
  <time>2026-08-27T18:28:44Z</time>
  <course>0.16</course>
  <speed>0.01</speed>
  <fix>3d</fix>
</trkpt>
<trkpt lat="40.072842" lon="-105.230575">
  <ele>1593.81</ele>
  <time>2026-08-27T18:28:44Z</time>
  <course>94.39</course>
  <speed>0.01</speed>
  <fix>3d</fix>
</trkpt>
<trkpt lat="40.072842" lon="-105.230575">
  <ele>1593.62</ele>
  <time>2026-08-27T18:28:44Z</time>
  <course>0.15</course>
  <speed>0.01</speed>
  <fix>3d</fix>
</trkpt>
<trkpt lat="40.072842" lon="-105.230575">
  <ele>1593.71</ele>
  <time>2026-08-27T18:28:44Z</time>
  <course>94.86</course>
  <speed>0.01</speed>
  <fix>3d</fix>
</trkpt>
<trkpt lat="40.072842" lon="-105.2305748">
  <ele>1593.52</ele>
  <time>2026-08-27T18:28:44Z</time>
  <course>0.16</course>
  <speed>0.01</speed>
  <fix>3d</fix>
</trkpt>
<trkpt lat="40.072842" lon="-105.230575">
  <ele>1593.61</ele>
  <time>2026-08-27T18:28:44Z</time>
  <course>95.42</course>
  <speed>0.01</speed>
  <fix>3d</fix>
</trkpt>
<trkpt lat="40.072842" lon="-105.2305748">
  <ele>1593.42</ele>
  <time>2026-08-27T18:28:44Z</time>
  <course>0.15</course>
  <speed>0.0</speed>
  <fix>3d</fix>
</trkpt>
<trkpt lat="40.072842" lon="-105.2305749">
  <ele>1593.51</ele>
  <time>2026-08-27T18:28:44Z</time>
  <course>97.63</course>
  <speed>0.0</speed>
  <fix>3d</fix>
</trkpt>
<trkpt lat="40.072842" lon="-105.2305748">
  <ele>1593.32</ele>
  <time>2026-08-27T18:28:44Z</time>
  <course>0.15</course>
  <speed>0.0</speed>
  <fix>3d</fix>
</trkpt>
<trkpt lat="40.072842" lon="-105.2305748">
  <ele>1593.4</ele>
  <time>2026-08-27T18:28:44Z</time>
  <course>100.34</course>
  <speed>0.0</speed>
  <fix>3d</fix>
</trkpt>
<trkpt lat="40.072842" lon="-105.2305748">
  <ele>1593.22</ele>
  <time>2026-08-27T18:28:44Z</time>
  <course>0.15</course>
  <speed>0.0</speed>
  <fix>3d</fix>
</trkpt>
<trkpt lat="40.072842" lon="-105.2305748">
  <ele>1593.31</ele>
  <time>2026-08-27T18:28:44Z</time>
  <course>116.51</course>
  <speed>0.0</speed>
  <fix>3d</fix>
</trkpt>
<trkpt lat="40.072842" lon="-105.2305748">
  <ele>1593.12</ele>
  <time>2026-08-27T18:28:44Z</time>
  <course>0.14</course>
  <speed>0.0</speed>
  <fix>3d</fix>
</trkpt>
<trkpt lat="40.072842" lon="-105.2305748">
  <ele>1593.21</ele>
  <time>2026-08-27T18:28:44Z</time>
  <course>244.65</course>
  <speed>0.0</speed>
  <fix>3d</fix>
</trkpt>
<trkpt lat="40.072842" lon="-105.2305748">
  <ele>1593.02</ele>
  <time>2026-08-27T18:28:44Z</time>
  <course>0.14</course>
  <speed>0.0</speed>
  <fix>3d</fix>
</trkpt>
<trkpt lat="40.072842" lon="-105.2305748">
  <ele>1593.11</ele>
  <time>2026-08-27T18:28:44Z</time>
  <course>254.84</course>
  <speed>0.0</speed>
  <fix>3d</fix>
</trkpt>
<trkpt lat="40.072842" lon="-105.2305748">
  <ele>1592.92</ele>
  <time>2026-08-27T18:28:44Z</time>
  <course>0.13</course>
  <speed>0.0</speed>
  <fix>3d</fix>
</trkpt>
<trkpt lat="40.072842" lon="-105.2305748">
  <ele>1593.01</ele>
  <time>2026-08-27T18:28:44Z</time>
  <course>257.77</course>
  <speed>0.0</speed>
  <fix>3d</fix>
</trkpt>
<trkpt lat="40.072842" lon="-105.2305748">
  <ele>1592.82</ele>
  <time>2026-08-27T18:28:44Z</time>
  <course>0.13</course>
  <speed>0.0</speed>
  <fix>3d</fix>
</trkpt>
<trkpt lat="40.072842" lon="-105.2305748">
  <ele>1592.9</ele>
  <time>2026-08-27T18:28:44Z</time>
  <course>260.06</course>
  <speed>0.0</speed>
  <fix>3d</fix>
</trkpt>
<trkpt lat="40.072842" lon="-105.2305748">
  <ele>1592.72</ele>
  <time>2026-08-27T18:28:44Z</time>
  <course>0.13</course>
  <speed>0.01</speed>
  <fix>3d</fix>
</trkpt>
<trkpt lat="40.072842" lon="-105.2305748">
  <ele>1592.81</ele>
  <time>2026-08-27T18:28:44Z</time>
  <course>261.73</course>
  <speed>0.0</speed>
  <fix>3d</fix>
</trkpt>
<trkpt lat="40.072842" lon="-105.2305748">
  <ele>1592.62</ele>
  <time>2026-08-27T18:28:44Z</time>
  <course>0.13</course>
  <speed>0.01</speed>
  <fix>3d</fix>
</trkpt>
<trkpt lat="40.072842" lon="-105.2305748">
  <ele>1592.71</ele>
  <time>2026-08-27T18:28:44Z</time>
  <course>262.89</course>
  <speed>0.01</speed>
  <fix>3d</fix>
</trkpt>
<trkpt lat="40.072842" lon="-105.230575">
  <ele>1592.52</ele>
  <time>2026-08-27T18:28:44Z</time>
  <course>0.12</course>
  <speed>0.01</speed>
  <fix>3d</fix>
</trkpt>
<trkpt lat="40.072842" lon="-105.2305748">
  <ele>1592.61</ele>
  <time>2026-08-27T18:28:44Z</time>
  <course>263.85</course>
  <speed>0.01</speed>
  <fix>3d</fix>
</trkpt>
<trkpt lat="40.072842" lon="-105.230575">
  <ele>1592.42</ele>
  <time>2026-08-27T18:28:44Z</time>
  <course>0.13</course>
  <speed>0.01</speed>
  <fix>3d</fix>
</trkpt>
<trkpt lat="40.072842" lon="-105.2305749">
  <ele>1592.51</ele>
  <time>2026-08-27T18:28:44Z</time>
  <course>264.39</course>
  <speed>0.01</speed>
  <fix>3d</fix>
</trkpt>
<trkpt lat="40.072842" lon="-105.230575">
  <ele>1592.32</ele>
  <time>2026-08-27T18:28:44Z</time>
  <course>0.12</course>
  <speed>0.01</speed>
  <fix>3d</fix>
</trkpt>
<trkpt lat="40.072842" lon="-105.230575">
  <ele>1592.4</ele>
  <time>2026-08-27T18:28:44Z</time>
  <course>263.24</course>
  <speed>0.01</speed>
  <fix>3d</fix>
</trkpt>
<trkpt lat="40.072842" lon="-105.230575">
  <ele>1592.22</ele>
  <time>2026-08-27T18:28:44Z</time>
  <course>0.11</course>
  <speed>0.0</speed>
  <fix>3d</fix>
</trkpt>
<trkpt lat="40.072842" lon="-105.230575">
  <ele>1592.31</ele>
  <time>2026-08-27T18:28:44Z</time>
  <course>260.22</course>
  <speed>0.01</speed>
  <fix>3d</fix>
</trkpt>
<trkpt lat="40.072842" lon="-105.2305751">
  <ele>1592.12</ele>
  <time>2026-08-27T18:28:44Z</time>
  <course>0.11</course>
  <speed>0.0</speed>
  <fix>3d</fix>
</trkpt>
<trkpt lat="40.072842" lon="-105.230575">
  <ele>1592.21</ele>
  <time>2026-08-27T18:28:44Z</time>
  <course>257.97</course>
  <speed>0.0</speed>
  <fix>3d</fix>
</trkpt>
<trkpt lat="40.072842" lon="-105.2305751">
  <ele>1592.02</ele>
  <time>2026-08-27T18:28:44Z</time>
  <course>0.11</course>
  <speed>0.0</speed>
  <fix>3d</fix>
</trkpt>
<trkpt lat="40.072842" lon="-105.230575">
  <ele>1592.11</ele>
  <time>2026-08-27T18:28:44Z</time>
  <course>258.18</course>
  <speed>0.0</speed>
  <fix>3d</fix>
</trkpt>
<trkpt lat="40.072842" lon="-105.2305751">
  <ele>1591.92</ele>
  <time>2026-08-27T18:28:44Z</time>
  <course>0.1</course>
  <speed>0.0</speed>
  <fix>3d</fix>
</trkpt>
<trkpt lat="40.072842" lon="-105.2305751">
  <ele>1592.01</ele>
  <time>2026-08-27T18:28:44Z</time>
  <course>255.51</course>
  <speed>0.0</speed>
  <fix>3d</fix>
</trkpt>
<trkpt lat="40.072842" lon="-105.2305751">
  <ele>1591.82</ele>
  <time>2026-08-27T18:28:44Z</time>
  <course>0.1</course>
  <speed>0.0</speed>
  <fix>3d</fix>
</trkpt>
<trkpt lat="40.072842" lon="-105.2305751">
  <ele>1591.9</ele>
  <time>2026-08-27T18:28:44Z</time>
  <course>242.89</course>
  <speed>0.0</speed>
  <fix>3d</fix>
</trkpt>
<trkpt lat="40.072842" lon="-105.2305751">
  <ele>1591.72</ele>
  <time>2026-08-27T18:28:44Z</time>
  <course>0.1</course>
  <speed>0.0</speed>
  <fix>3d</fix>
</trkpt>
<trkpt lat="40.072842" lon="-105.2305751">
  <ele>1591.81</ele>
  <time>2026-08-27T18:28:44Z</time>
  <course>193.85</course>
  <speed>0.0</speed>
  <fix>3d</fix>
</trkpt>
<trkpt lat="40.072842" lon="-105.2305751">
  <ele>1591.62</ele>
  <time>2026-08-27T18:28:44Z</time>
  <course>0.1</course>
  <speed>0.0</speed>
  <fix>3d</fix>
</trkpt>
<trkpt lat="40.072842" lon="-105.2305751">
  <ele>1591.71</ele>
  <time>2026-08-27T18:28:44Z</time>
  <course>118.78</course>
  <speed>0.0</speed>
  <fix>3d</fix>
</trkpt>
<trkpt lat="40.072842" lon="-105.2305751">
  <ele>1591.52</ele>
  <time>2026-08-27T18:28:44Z</time>
  <course>0.09</course>
  <speed>0.0</speed>
  <fix>3d</fix>
</trkpt>
<trkpt lat="40.072842" lon="-105.2305751">
  <ele>1591.61</ele>
  <time>2026-08-27T18:28:44Z</time>
  <course>102.76</course>
  <speed>0.0</speed>
  <fix>3d</fix>
</trkpt>
<trkpt lat="40.072842" lon="-105.2305751">
  <ele>1591.42</ele>
  <time>2026-08-27T18:28:44Z</time>
  <course>0.1</course>
  <speed>0.0</speed>
  <fix>3d</fix>
</trkpt>
<trkpt lat="40.072842" lon="-105.2305751">
  <ele>1591.51</ele>
  <time>2026-08-27T18:28:44Z</time>
  <course>97.78</course>
  <speed>0.0</speed>
  <fix>3d</fix>
</trkpt>
<trkpt lat="40.072842" lon="-105.2305751">
  <ele>1591.32</ele>
  <time>2026-08-27T18:28:44Z</time>
  <course>0.09</course>
  <speed>0.0</speed>
  <fix>3d</fix>
</trkpt>
<trkpt lat="40.072842" lon="-105.2305751">
  <ele>1591.4</ele>
  <time>2026-08-27T18:28:44Z</time>
  <course>95.35</course>
  <speed>0.0</speed>
  <fix>3d</fix>
</trkpt>
<trkpt lat="40.072842" lon="-105.2305751">
  <ele>1591.22</ele>
  <time>2026-08-27T18:28:44Z</time>
  <course>0.09</course>
  <speed>0.0</speed>
  <fix>3d</fix>
</trkpt>
<trkpt lat="40.072842" lon="-105.2305751">
  <ele>1591.31</ele>
  <time>2026-08-27T18:28:44Z</time>
  <course>93.32</course>
  <speed>0.0</speed>
  <fix>3d</fix>
</trkpt>
<trkpt lat="40.072842" lon="-105.2305751">
  <ele>1591.12</ele>
  <time>2026-08-27T18:28:44Z</time>
  <course>0.09</course>
  <speed>0.0</speed>
  <fix>3d</fix>
</trkpt>
<trkpt lat="40.072842" lon="-105.2305751">
  <ele>1591.21</ele>
  <time>2026-08-27T18:28:44Z</time>
  <course>92.0</course>
  <speed>0.0</speed>
  <fix>3d</fix>
</trkpt>
<trkpt lat="40.072842" lon="-105.2305751">
  <ele>1591.02</ele>
  <time>2026-08-27T18:28:44Z</time>
  <course>0.09</course>
  <speed>0.0</speed>
  <fix>3d</fix>
</trkpt>
<trkpt lat="40.072842" lon="-105.2305751">
  <ele>1591.11</ele>
  <time>2026-08-27T18:28:44Z</time>
  <course>91.24</course>
  <speed>0.0</speed>
  <fix>3d</fix>
</trkpt>
<trkpt lat="40.072842" lon="-105.2305751">
  <ele>1590.92</ele>
  <time>2026-08-27T18:28:45Z</time>
  <course>0.09</course>
  <speed>0.0</speed>
  <fix>3d</fix>
</trkpt>
<trkpt lat="40.072842" lon="-105.2305751">
  <ele>1591.01</ele>
  <time>2026-08-27T18:28:45Z</time>
  <course>90.47</course>
  <speed>0.0</speed>
  <fix>3d</fix>
</trkpt>
<trkpt lat="40.072842" lon="-105.2305751">
  <ele>1590.82</ele>
  <time>2026-08-27T18:28:45Z</time>
  <course>0.08</course>
  <speed>0.0</speed>
  <fix>3d</fix>
</trkpt>
<trkpt lat="40.072842" lon="-105.2305751">
  <ele>1590.9</ele>
  <time>2026-08-27T18:28:45Z</time>
  <course>90.22</course>
  <speed>0.0</speed>
  <fix>3d</fix>
</trkpt>
<trkpt lat="40.072842" lon="-105.2305751">
  <ele>1590.72</ele>
  <time>2026-08-27T18:28:45Z</time>
  <course>0.07</course>
  <speed>0.0</speed>
  <fix>3d</fix>
</trkpt>
<trkpt lat="40.072842" lon="-105.2305751">
  <ele>1590.81</ele>
  <time>2026-08-27T18:28:45Z</time>
  <course>89.97</course>
  <speed>0.0</speed>
  <fix>3d</fix>
</trkpt>
<trkpt lat="40.072842" lon="-105.230575">
  <ele>1590.62</ele>
  <time>2026-08-27T18:28:45Z</time>
  <course>0.08</course>
  <speed>0.0</speed>
  <fix>3d</fix>
</trkpt>
<trkpt lat="40.072842" lon="-105.230575">
  <ele>1590.71</ele>
  <time>2026-08-27T18:28:45Z</time>
  <course>89.54</course>
  <speed>0.0</speed>
  <fix>3d</fix>
</trkpt>
<trkpt lat="40.072842" lon="-105.230575">
  <ele>1590.52</ele>
  <time>2026-08-27T18:28:45Z</time>
  <course>0.07</course>
  <speed>0.0</speed>
  <fix>3d</fix>
</trkpt>
<trkpt lat="40.072842" lon="-105.230575">
  <ele>1590.61</ele>
  <time>2026-08-27T18:28:45Z</time>
  <course>88.99</course>
  <speed>0.0</speed>
  <fix>3d</fix>
</trkpt>
<trkpt lat="40.072842" lon="-105.230575">
  <ele>1590.42</ele>
  <time>2026-08-27T18:28:45Z</time>
  <course>0.08</course>
  <speed>0.0</speed>
  <fix>3d</fix>
</trkpt>
<trkpt lat="40.072842" lon="-105.230575">
  <ele>1590.51</ele>
  <time>2026-08-27T18:28:45Z</time>
  <course>87.04</course>
  <speed>0.0</speed>
  <fix>3d</fix>
</trkpt>
<trkpt lat="40.072842" lon="-105.230575">
  <ele>1590.32</ele>
  <time>2026-08-27T18:28:45Z</time>
  <course>0.07</course>
  <speed>0.0</speed>
  <fix>3d</fix>
</trkpt>
<trkpt lat="40.072842" lon="-105.230575">
  <ele>1590.4</ele>
  <time>2026-08-27T18:28:45Z</time>
  <course>85.7</course>
  <speed>0.0</speed>
  <fix>3d</fix>
</trkpt>
<trkpt lat="40.072842" lon="-105.230575">
  <ele>1590.22</ele>
  <time>2026-08-27T18:28:45Z</time>
  <course>0.07</course>
  <speed>0.0</speed>
  <fix>3d</fix>
</trkpt>
<trkpt lat="40.072842" lon="-105.230575">
  <ele>1590.31</ele>
  <time>2026-08-27T18:28:45Z</time>
  <course>87.66</course>
  <speed>0.0</speed>
  <fix>3d</fix>
</trkpt>
<trkpt lat="40.072842" lon="-105.230575">
  <ele>1590.12</ele>
  <time>2026-08-27T18:28:45Z</time>
  <course>0.06</course>
  <speed>0.0</speed>
  <fix>3d</fix>
</trkpt>
<trkpt lat="40.072842" lon="-105.230575">
  <ele>1590.21</ele>
  <time>2026-08-27T18:28:45Z</time>
  <course>88.34</course>
  <speed>0.0</speed>
  <fix>3d</fix>
</trkpt>
<trkpt lat="40.072842" lon="-105.230575">
  <ele>1590.02</ele>
  <time>2026-08-27T18:28:45Z</time>
  <course>0.06</course>
  <speed>0.0</speed>
  <fix>3d</fix>
</trkpt>
<trkpt lat="40.072842" lon="-105.230575">
  <ele>1590.11</ele>
  <time>2026-08-27T18:28:45Z</time>
  <course>86.71</course>
  <speed>0.0</speed>
  <fix>3d</fix>
</trkpt>
<trkpt lat="40.072842" lon="-105.230575">
  <ele>1589.92</ele>
  <time>2026-08-27T18:28:45Z</time>
  <course>0.06</course>
  <speed>0.0</speed>
  <fix>3d</fix>
</trkpt>
<trkpt lat="40.072842" lon="-105.230575">
  <ele>1590.01</ele>
  <time>2026-08-27T18:28:45Z</time>
  <course>85.09</course>
  <speed>0.0</speed>
  <fix>3d</fix>
</trkpt>
<trkpt lat="40.072842" lon="-105.230575">
  <ele>1589.82</ele>
  <time>2026-08-27T18:28:45Z</time>
  <course>0.06</course>
  <speed>0.0</speed>
  <fix>3d</fix>
</trkpt>
<trkpt lat="40.072842" lon="-105.230575">
  <ele>1589.9</ele>
  <time>2026-08-27T18:28:45Z</time>
  <course>83.94</course>
  <speed>0.0</speed>
  <fix>3d</fix>
</trkpt>
<trkpt lat="40.072842" lon="-105.230575">
  <ele>1589.72</ele>
  <time>2026-08-27T18:28:45Z</time>
  <course>0.06</course>
  <speed>0.0</speed>
  <fix>3d</fix>
</trkpt>
<trkpt lat="40.072842" lon="-105.230575">
  <ele>1589.81</ele>
  <time>2026-08-27T18:28:45Z</time>
  <course>84.13</course>
  <speed>0.0</speed>
  <fix>3d</fix>
</trkpt>
<trkpt lat="40.072842" lon="-105.230575">
  <ele>1589.62</ele>
  <time>2026-08-27T18:28:45Z</time>
  <course>0.06</course>
  <speed>0.0</speed>
  <fix>3d</fix>
</trkpt>
<trkpt lat="40.072842" lon="-105.230575">
  <ele>1589.71</ele>
  <time>2026-08-27T18:28:45Z</time>
  <course>85.96</course>
  <speed>0.0</speed>
  <fix>3d</fix>
</trkpt>
<trkpt lat="40.072842" lon="-105.230575">
  <ele>1589.52</ele>
  <time>2026-08-27T18:28:45Z</time>
  <course>0.05</course>
  <speed>0.0</speed>
  <fix>3d</fix>
</trkpt>
<trkpt lat="40.072842" lon="-105.230575">
  <ele>1589.61</ele>
  <time>2026-08-27T18:28:45Z</time>
  <course>87.18</course>
  <speed>0.0</speed>
  <fix>3d</fix>
</trkpt>
<trkpt lat="40.072842" lon="-105.2305748">
  <ele>1589.42</ele>
  <time>2026-08-27T18:28:45Z</time>
  <course>0.06</course>
  <speed>0.0</speed>
  <fix>3d</fix>
</trkpt>
<trkpt lat="40.072842" lon="-105.2305749">
  <ele>1589.51</ele>
  <time>2026-08-27T18:28:45Z</time>
  <course>87.15</course>
  <speed>0.0</speed>
  <fix>3d</fix>
</trkpt>
<trkpt lat="40.072842" lon="-105.2305748">
  <ele>1589.32</ele>
  <time>2026-08-27T18:28:45Z</time>
  <course>0.05</course>
  <speed>0.0</speed>
  <fix>3d</fix>
</trkpt>
<trkpt lat="40.072842" lon="-105.2305748">
  <ele>1589.4</ele>
  <time>2026-08-27T18:28:45Z</time>
  <course>82.67</course>
  <speed>0.0</speed>
  <fix>3d</fix>
</trkpt>
<trkpt lat="40.072842" lon="-105.230575">
  <ele>1589.22</ele>
  <time>2026-08-27T18:28:45Z</time>
  <course>0.06</course>
  <speed>0.0</speed>
  <fix>3d</fix>
</trkpt>
<trkpt lat="40.072842" lon="-105.2305749">
  <ele>1589.31</ele>
  <time>2026-08-27T18:28:45Z</time>
  <course>280.4</course>
  <speed>0.0</speed>
  <fix>3d</fix>
</trkpt>
<trkpt lat="40.072842" lon="-105.230575">
  <ele>1589.12</ele>
  <time>2026-08-27T18:28:45Z</time>
  <course>0.05</course>
  <speed>0.0</speed>
  <fix>3d</fix>
</trkpt>
<trkpt lat="40.072842" lon="-105.230575">
  <ele>1589.21</ele>
  <time>2026-08-27T18:28:45Z</time>
  <course>273.07</course>
  <speed>0.0</speed>
  <fix>3d</fix>
</trkpt>
<trkpt lat="40.072842" lon="-105.230575">
  <ele>1589.02</ele>
  <time>2026-08-27T18:28:45Z</time>
  <course>0.05</course>
  <speed>0.0</speed>
  <fix>3d</fix>
</trkpt>
<trkpt lat="40.072842" lon="-105.230575">
  <ele>1589.11</ele>
  <time>2026-08-27T18:28:45Z</time>
  <course>265.58</course>
  <speed>0.0</speed>
  <fix>3d</fix>
</trkpt>
<trkpt lat="40.072842" lon="-105.230575">
  <ele>1588.92</ele>
  <time>2026-08-27T18:28:45Z</time>
  <course>0.04</course>
  <speed>0.0</speed>
  <fix>3d</fix>
</trkpt>
<trkpt lat="40.072842" lon="-105.230575">
  <ele>1589.01</ele>
  <time>2026-08-27T18:28:45Z</time>
  <course>255.15</course>
  <speed>0.0</speed>
  <fix>3d</fix>
</trkpt>
<trkpt lat="40.072842" lon="-105.230575">
  <ele>1588.82</ele>
  <time>2026-08-27T18:28:45Z</time>
  <course>0.05</course>
  <speed>0.0</speed>
  <fix>3d</fix>
</trkpt>
<trkpt lat="40.072842" lon="-105.230575">
  <ele>1588.9</ele>
  <time>2026-08-27T18:28:45Z</time>
  <course>246.19</course>
  <speed>0.0</speed>
  <fix>3d</fix>
</trkpt>
<trkpt lat="40.072842" lon="-105.230575">
  <ele>1588.72</ele>
  <time>2026-08-27T18:28:45Z</time>
  <course>0.04</course>
  <speed>0.0</speed>
  <fix>3d</fix>
</trkpt>
<trkpt lat="40.072842" lon="-105.230575">
  <ele>1588.81</ele>
  <time>2026-08-27T18:28:45Z</time>
  <course>246.08</course>
  <speed>0.0</speed>
  <fix>3d</fix>
</trkpt>
<trkpt lat="40.072842" lon="-105.230575">
  <ele>1588.62</ele>
  <time>2026-08-27T18:28:45Z</time>
  <course>0.04</course>
  <speed>0.0</speed>
  <fix>3d</fix>
</trkpt>
<trkpt lat="40.072842" lon="-105.230575">
  <ele>1588.71</ele>
  <time>2026-08-27T18:28:45Z</time>
  <course>252.3</course>
  <speed>0.0</speed>
  <fix>3d</fix>
</trkpt>
<trkpt lat="40.072842" lon="-105.230575">
  <ele>1588.52</ele>
  <time>2026-08-27T18:28:45Z</time>
  <course>0.04</course>
  <speed>0.0</speed>
  <fix>3d</fix>
</trkpt>
<trkpt lat="40.072842" lon="-105.230575">
  <ele>1588.61</ele>
  <time>2026-08-27T18:28:45Z</time>
  <course>254.31</course>
  <speed>0.0</speed>
  <fix>3d</fix>
</trkpt>
<trkpt lat="40.072842" lon="-105.230575">
  <ele>1588.42</ele>
  <time>2026-08-27T18:28:45Z</time>
  <course>0.04</course>
  <speed>0.0</speed>
  <fix>3d</fix>
</trkpt>
<trkpt lat="40.072842" lon="-105.230575">
  <ele>1588.51</ele>
  <time>2026-08-27T18:28:45Z</time>
  <course>255.79</course>
  <speed>0.0</speed>
  <fix>3d</fix>
</trkpt>
<trkpt lat="40.072842" lon="-105.230575">
  <ele>1588.32</ele>
  <time>2026-08-27T18:28:45Z</time>
  <course>0.04</course>
  <speed>0.0</speed>
  <fix>3d</fix>
</trkpt>
<trkpt lat="40.072842" lon="-105.230575">
  <ele>1588.4</ele>
  <time>2026-08-27T18:28:45Z</time>
  <course>257.9</course>
  <speed>0.0</speed>
  <fix>3d</fix>
</trkpt>
<trkpt lat="40.072842" lon="-105.230575">
  <ele>1588.22</ele>
  <time>2026-08-27T18:28:45Z</time>
  <course>0.04</course>
  <speed>0.0</speed>
  <fix>3d</fix>
</trkpt>
<trkpt lat="40.072842" lon="-105.230575">
  <ele>1588.31</ele>
  <time>2026-08-27T18:28:45Z</time>
  <course>260.69</course>
  <speed>0.0</speed>
  <fix>3d</fix>
</trkpt>
<trkpt lat="40.072842" lon="-105.230575">
  <ele>1588.12</ele>
  <time>2026-08-27T18:28:45Z</time>
  <course>0.04</course>
  <speed>0.0</speed>
  <fix>3d</fix>
</trkpt>
<trkpt lat="40.072842" lon="-105.230575">
  <ele>1588.21</ele>
  <time>2026-08-27T18:28:45Z</time>
  <course>264.56</course>
  <speed>0.0</speed>
  <fix>3d</fix>
</trkpt>
<trkpt lat="40.072842" lon="-105.230575">
  <ele>1588.02</ele>
  <time>2026-08-27T18:28:45Z</time>
  <course>0.03</course>
  <speed>0.0</speed>
  <fix>3d</fix>
</trkpt>
<trkpt lat="40.072842" lon="-105.230575">
  <ele>1588.11</ele>
  <time>2026-08-27T18:28:45Z</time>
  <course>267.41</course>
  <speed>0.0</speed>
  <fix>3d</fix>
</trkpt>
<trkpt lat="40.072842" lon="-105.230575">
  <ele>1587.92</ele>
  <time>2026-08-27T18:28:45Z</time>
  <course>0.04</course>
  <speed>0.0</speed>
  <fix>3d</fix>
</trkpt>
<trkpt lat="40.072842" lon="-105.230575">
  <ele>1588.01</ele>
  <time>2026-08-27T18:28:45Z</time>
  <course>271.05</course>
  <speed>0.0</speed>
  <fix>3d</fix>
</trkpt>
<trkpt lat="40.072842" lon="-105.230575">
  <ele>1587.82</ele>
  <time>2026-08-27T18:28:45Z</time>
  <course>0.03</course>
  <speed>0.0</speed>
  <fix>3d</fix>
</trkpt>
<trkpt lat="40.072842" lon="-105.230575">
  <ele>1587.9</ele>
  <time>2026-08-27T18:28:45Z</time>
  <course>277.64</course>
  <speed>0.0</speed>
  <fix>3d</fix>
</trkpt>
<trkpt lat="40.072842" lon="-105.230575">
  <ele>1587.72</ele>
  <time>2026-08-27T18:28:45Z</time>
  <course>0.03</course>
  <speed>0.0</speed>
  <fix>3d</fix>
</trkpt>
<trkpt lat="40.072842" lon="-105.230575">
  <ele>1587.81</ele>
  <time>2026-08-27T18:28:45Z</time>
  <course>284.8</course>
  <speed>0.0</speed>
  <fix>3d</fix>
</trkpt>
<trkpt lat="40.072842" lon="-105.230575">
  <ele>1587.62</ele>
  <time>2026-08-27T18:28:45Z</time>
  <course>0.03</course>
  <speed>0.0</speed>
  <fix>3d</fix>
</trkpt>
<trkpt lat="40.072842" lon="-105.230575">
  <ele>1587.71</ele>
  <time>2026-08-27T18:28:45Z</time>
  <course>294.73</course>
  <speed>0.0</speed>
  <fix>3d</fix>
</trkpt>
<trkpt lat="40.072842" lon="-105.230575">
  <ele>1587.52</ele>
  <time>2026-08-27T18:28:45Z</time>
  <course>0.03</course>
  <speed>0.0</speed>
  <fix>3d</fix>
</trkpt>
<trkpt lat="40.072842" lon="-105.230575">
  <ele>1587.61</ele>
  <time>2026-08-27T18:28:45Z</time>
  <course>300.58</course>
  <speed>0.0</speed>
  <fix>3d</fix>
</trkpt>
<trkpt lat="40.072842" lon="-105.230575">
  <ele>1587.42</ele>
  <time>2026-08-27T18:28:45Z</time>
  <course>0.03</course>
  <speed>0.0</speed>
  <fix>3d</fix>
</trkpt>
<trkpt lat="40.072842" lon="-105.230575">
  <ele>1587.51</ele>
  <time>2026-08-27T18:28:45Z</time>
  <course>303.53</course>
  <speed>0.0</speed>
  <fix>3d</fix>
</trkpt>
<trkpt lat="40.072842" lon="-105.230575">
  <ele>1587.32</ele>
  <time>2026-08-27T18:28:45Z</time>
  <course>0.03</course>
  <speed>0.0</speed>
  <fix>3d</fix>
</trkpt>
<trkpt lat="40.072842" lon="-105.230575">
  <ele>1587.4</ele>
  <time>2026-08-27T18:28:45Z</time>
  <course>306.8</course>
  <speed>0.0</speed>
  <fix>3d</fix>
</trkpt>
<trkpt lat="40.072842" lon="-105.230575">
  <ele>1587.22</ele>
  <time>2026-08-27T18:28:45Z</time>
  <course>0.03</course>
  <speed>0.0</speed>
  <fix>3d</fix>
</trkpt>
<trkpt lat="40.072842" lon="-105.230575">
  <ele>1587.31</ele>
  <time>2026-08-27T18:28:45Z</time>
  <course>309.7</course>
  <speed>0.0</speed>
  <fix>3d</fix>
</trkpt>
<trkpt lat="40.072842" lon="-105.230575">
  <ele>1587.12</ele>
  <time>2026-08-27T18:28:45Z</time>
  <course>0.03</course>
  <speed>0.0</speed>
  <fix>3d</fix>
</trkpt>
<trkpt lat="40.072842" lon="-105.230575">
  <ele>1587.21</ele>
  <time>2026-08-27T18:28:45Z</time>
  <course>311.94</course>
  <speed>0.0</speed>
  <fix>3d</fix>
</trkpt>
<trkpt lat="40.072842" lon="-105.230575">
  <ele>1587.02</ele>
  <time>2026-08-27T18:28:45Z</time>
  <course>0.02</course>
  <speed>0.0</speed>
  <fix>3d</fix>
</trkpt>
<trkpt lat="40.072842" lon="-105.230575">
  <ele>1587.11</ele>
  <time>2026-08-27T18:28:45Z</time>
  <course>314.17</course>
  <speed>0.0</speed>
  <fix>3d</fix>
</trkpt>
<trkpt lat="40.072842" lon="-105.230575">
  <ele>1586.92</ele>
  <time>2026-08-27T18:28:45Z</time>
  <course>0.03</course>
  <speed>0.0</speed>
  <fix>3d</fix>
</trkpt>
<trkpt lat="40.072842" lon="-105.230575">
  <ele>1587.01</ele>
  <time>2026-08-27T18:28:45Z</time>
  <course>316.91</course>
  <speed>0.0</speed>
  <fix>3d</fix>
</trkpt>
<trkpt lat="40.072842" lon="-105.230575">
  <ele>1586.82</ele>
  <time>2026-08-27T18:28:45Z</time>
  <course>0.02</course>
  <speed>0.0</speed>
  <fix>3d</fix>
</trkpt>
<trkpt lat="40.072842" lon="-105.230575">
  <ele>1586.9</ele>
  <time>2026-08-27T18:28:45Z</time>
  <course>319.3</course>
  <speed>0.0</speed>
  <fix>3d</fix>
</trkpt>
<trkpt lat="40.072842" lon="-105.230575">
  <ele>1586.72</ele>
  <time>2026-08-27T18:28:45Z</time>
  <course>0.03</course>
  <speed>0.0</speed>
  <fix>3d</fix>
</trkpt>
<trkpt lat="40.072842" lon="-105.230575">
  <ele>1586.81</ele>
  <time>2026-08-27T18:28:45Z</time>
  <course>316.01</course>
  <speed>0.0</speed>
  <fix>3d</fix>
</trkpt>
<trkpt lat="40.072842" lon="-105.230575">
  <ele>1586.62</ele>
  <time>2026-08-27T18:28:45Z</time>
  <course>0.02</course>
  <speed>0.0</speed>
  <fix>3d</fix>
</trkpt>
<trkpt lat="40.072842" lon="-105.230575">
  <ele>1586.71</ele>
  <time>2026-08-27T18:28:45Z</time>
  <course>312.15</course>
  <speed>0.0</speed>
  <fix>3d</fix>
</trkpt>
<trkpt lat="40.072842" lon="-105.230575">
  <ele>1586.52</ele>
  <time>2026-08-27T18:28:45Z</time>
  <course>0.02</course>
  <speed>0.0</speed>
  <fix>3d</fix>
</trkpt>
<trkpt lat="40.072842" lon="-105.230575">
  <ele>1586.61</ele>
  <time>2026-08-27T18:28:45Z</time>
  <course>319.2</course>
  <speed>0.0</speed>
  <fix>3d</fix>
</trkpt>
<trkpt lat="40.072842" lon="-105.230575">
  <ele>1586.42</ele>
  <time>2026-08-27T18:28:45Z</time>
  <course>0.02</course>
  <speed>0.0</speed>
  <fix>3d</fix>
</trkpt>
<trkpt lat="40.072842" lon="-105.230575">
  <ele>1586.51</ele>
  <time>2026-08-27T18:28:45Z</time>
  <course>338.58</course>
  <speed>0.0</speed>
  <fix>3d</fix>
</trkpt>
<trkpt lat="40.072842" lon="-105.230575">
  <ele>1586.32</ele>
  <time>2026-08-27T18:28:45Z</time>
  <course>0.01</course>
  <speed>0.0</speed>
  <fix>3d</fix>
</trkpt>
<trkpt lat="40.072842" lon="-105.230575">
  <ele>1586.4</ele>
  <time>2026-08-27T18:28:45Z</time>
  <course>339.95</course>
  <speed>0.0</speed>
  <fix>3d</fix>
</trkpt>
<trkpt lat="40.072842" lon="-105.230575">
  <ele>1586.22</ele>
  <time>2026-08-27T18:28:45Z</time>
  <course>0.02</course>
  <speed>0.0</speed>
  <fix>3d</fix>
</trkpt>
<trkpt lat="40.072842" lon="-105.230575">
  <ele>1586.31</ele>
  <time>2026-08-27T18:28:45Z</time>
  <course>291.86</course>
  <speed>0.0</speed>
  <fix>3d</fix>
</trkpt>
<trkpt lat="40.072842" lon="-105.230575">
  <ele>1586.12</ele>
  <time>2026-08-27T18:28:45Z</time>
  <course>0.02</course>
  <speed>0.0</speed>
  <fix>3d</fix>
</trkpt>
<trkpt lat="40.072842" lon="-105.230575">
  <ele>1586.21</ele>
  <time>2026-08-27T18:28:45Z</time>
  <course>257.09</course>
  <speed>0.0</speed>
  <fix>3d</fix>
</trkpt>
<trkpt lat="40.072842" lon="-105.230575">
  <ele>1586.07</ele>
  <time>2026-08-27T18:28:45Z</time>
  <course>0.02</course>
  <speed>0.02</speed>
  <fix>3d</fix>
</trkpt>
<trkpt lat="40.072842" lon="-105.230575">
  <ele>1586.11</ele>
  <time>2026-08-27T18:28:45Z</time>
  <course>269.5</course>
  <speed>0.01</speed>
  <fix>3d</fix>
</trkpt>
<trkpt lat="40.072842" lon="-105.230575">
  <ele>1586.09</ele>
  <time>2026-08-27T18:28:45Z</time>
  <course>0.05</course>
  <speed>0.0</speed>
  <fix>3d</fix>
</trkpt>
<trkpt lat="40.072842" lon="-105.230575">
  <ele>1586.07</ele>
  <time>2026-08-27T18:28:45Z</time>
  <course>277.66</course>
  <speed>0.01</speed>
  <fix>3d</fix>
</trkpt>
<trkpt lat="40.072842" lon="-105.230575">
  <ele>1586.1</ele>
  <time>2026-08-27T18:28:45Z</time>
  <course>0.09</course>
  <speed>0.0</speed>
  <fix>3d</fix>
</trkpt>
<trkpt lat="40.072842" lon="-105.230575">
  <ele>1586.09</ele>
  <time>2026-08-27T18:28:45Z</time>
  <course>324.93</course>
  <speed>0.0</speed>
  <fix>3d</fix>
</trkpt>
<trkpt lat="40.072842" lon="-105.230575">
  <ele>1586.09</ele>
  <time>2026-08-27T18:28:45Z</time>
  <course>0.12</course>
  <speed>0.0</speed>
  <fix>3d</fix>
</trkpt>
<trkpt lat="40.072842" lon="-105.230575">
  <ele>1586.1</ele>
  <time>2026-08-27T18:28:45Z</time>
  <course>100.52</course>
  <speed>0.0</speed>
  <fix>3d</fix>
</trkpt>
<trkpt lat="40.072842" lon="-105.230575">
  <ele>1586.09</ele>
  <time>2026-08-27T18:28:45Z</time>
  <course>0.16</course>
  <speed>0.0</speed>
  <fix>3d</fix>
</trkpt>
<trkpt lat="40.072842" lon="-105.230575">
  <ele>1586.09</ele>
  <time>2026-08-27T18:28:45Z</time>
  <course>74.14</course>
  <speed>0.0</speed>
  <fix>3d</fix>
</trkpt>
<trkpt lat="40.072842" lon="-105.230575">
  <ele>1586.09</ele>
  <time>2026-08-27T18:28:45Z</time>
  <course>0.18</course>
  <speed>0.0</speed>
  <fix>3d</fix>
</trkpt>
<trkpt lat="40.072842" lon="-105.230575">
  <ele>1586.09</ele>
  <time>2026-08-27T18:28:45Z</time>
  <course>346.17</course>
  <speed>0.0</speed>
  <fix>3d</fix>
</trkpt>
<trkpt lat="40.072842" lon="-105.230575">
  <ele>1586.09</ele>
  <time>2026-08-27T18:28:45Z</time>
  <course>0.21</course>
  <speed>0.0</speed>
  <fix>3d</fix>
</trkpt>
<trkpt lat="40.072842" lon="-105.230575">
  <ele>1586.09</ele>
  <time>2026-08-27T18:28:45Z</time>
  <course>1.96</course>
  <speed>0.0</speed>
  <fix>3d</fix>
</trkpt>
<trkpt lat="40.072842" lon="-105.230575">
  <ele>1586.09</ele>
  <time>2026-08-27T18:28:45Z</time>
  <course>0.24</course>
  <speed>0.0</speed>
  <fix>3d</fix>
</trkpt>
<trkpt lat="40.072842" lon="-105.230575">
  <ele>1586.09</ele>
  <time>2026-08-27T18:28:45Z</time>
  <course>1.14</course>
  <speed>0.0</speed>
  <fix>3d</fix>
</trkpt>
<trkpt lat="40.072842" lon="-105.230575">
  <ele>1586.09</ele>
  <time>2026-08-27T18:28:45Z</time>
  <course>0.26</course>
  <speed>0.0</speed>
  <fix>3d</fix>
</trkpt>
<trkpt lat="40.072842" lon="-105.230575">
  <ele>1586.09</ele>
  <time>2026-08-27T18:28:45Z</time>
  <course>10.18</course>
  <speed>0.0</speed>
  <fix>3d</fix>
</trkpt>
<trkpt lat="40.072842" lon="-105.230575">
  <ele>1586.09</ele>
  <time>2026-08-27T18:28:45Z</time>
  <course>0.28</course>
  <speed>0.0</speed>
  <fix>3d</fix>
</trkpt>
<trkpt lat="40.072842" lon="-105.230575">
  <ele>1586.09</ele>
  <time>2026-08-27T18:28:45Z</time>
  <course>10.3</course>
  <speed>0.0</speed>
  <fix>3d</fix>
</trkpt>
<trkpt lat="40.072842" lon="-105.230575">
  <ele>1586.09</ele>
  <time>2026-08-27T18:28:45Z</time>
  <course>0.29</course>
  <speed>0.01</speed>
  <fix>3d</fix>
</trkpt>
<trkpt lat="40.072842" lon="-105.230575">
  <ele>1586.09</ele>
  <time>2026-08-27T18:28:45Z</time>
  <course>85.48</course>
  <speed>0.0</speed>
  <fix>3d</fix>
</trkpt>
<trkpt lat="40.072842" lon="-105.230575">
  <ele>1586.09</ele>
  <time>2026-08-27T18:28:45Z</time>
  <course>0.27</course>
  <speed>0.0</speed>
  <fix>3d</fix>
</trkpt>
<trkpt lat="40.072842" lon="-105.230575">
  <ele>1586.09</ele>
  <time>2026-08-27T18:28:45Z</time>
  <course>93.57</course>
  <speed>0.0</speed>
  <fix>3d</fix>
</trkpt>
<trkpt lat="40.072842" lon="-105.230575">
  <ele>1586.09</ele>
  <time>2026-08-27T18:28:45Z</time>
  <course>0.25</course>
  <speed>0.0</speed>
  <fix>3d</fix>
</trkpt>
<trkpt lat="40.072842" lon="-105.230575">
  <ele>1586.09</ele>
  <time>2026-08-27T18:28:45Z</time>
  <course>99.5</course>
  <speed>0.0</speed>
  <fix>3d</fix>
</trkpt>
<trkpt lat="40.072842" lon="-105.230575">
  <ele>1586.09</ele>
  <time>2026-08-27T18:28:45Z</time>
  <course>0.24</course>
  <speed>0.0</speed>
  <fix>3d</fix>
</trkpt>
<trkpt lat="40.072842" lon="-105.230575">
  <ele>1586.09</ele>
  <time>2026-08-27T18:28:45Z</time>
  <course>172.73</course>
  <speed>0.0</speed>
  <fix>3d</fix>
</trkpt>
<trkpt lat="40.072842" lon="-105.230575">
  <ele>1586.09</ele>
  <time>2026-08-27T18:28:45Z</time>
  <course>0.24</course>
  <speed>0.0</speed>
  <fix>3d</fix>
</trkpt>
<trkpt lat="40.072842" lon="-105.230575">
  <ele>1586.09</ele>
  <time>2026-08-27T18:28:45Z</time>
  <course>245.25</course>
  <speed>0.0</speed>
  <fix>3d</fix>
</trkpt>
<trkpt lat="40.072842" lon="-105.230575">
  <ele>1586.09</ele>
  <time>2026-08-27T18:28:45Z</time>
  <course>0.23</course>
  <speed>0.0</speed>
  <fix>3d</fix>
</trkpt>
<trkpt lat="40.072842" lon="-105.230575">
  <ele>1586.09</ele>
  <time>2026-08-27T18:28:45Z</time>
  <course>229.74</course>
  <speed>0.0</speed>
  <fix>3d</fix>
</trkpt>
<trkpt lat="40.072842" lon="-105.230575">
  <ele>1586.09</ele>
  <time>2026-08-27T18:28:45Z</time>
  <course>0.23</course>
  <speed>0.0</speed>
  <fix>3d</fix>
</trkpt>
<trkpt lat="40.072842" lon="-105.230575">
  <ele>1586.09</ele>
  <time>2026-08-27T18:28:45Z</time>
  <course>226.67</course>
  <speed>0.0</speed>
  <fix>3d</fix>
</trkpt>
<trkpt lat="40.072842" lon="-105.230575">
  <ele>1586.09</ele>
  <time>2026-08-27T18:28:45Z</time>
  <course>0.23</course>
  <speed>0.0</speed>
  <fix>3d</fix>
</trkpt>
<trkpt lat="40.072842" lon="-105.230575">
  <ele>1586.09</ele>
  <time>2026-08-27T18:28:45Z</time>
  <course>225.53</course>
  <speed>0.0</speed>
  <fix>3d</fix>
</trkpt>
<trkpt lat="40.072842" lon="-105.230575">
  <ele>1586.09</ele>
  <time>2026-08-27T18:28:45Z</time>
  <course>0.23</course>
  <speed>0.0</speed>
  <fix>3d</fix>
</trkpt>
<trkpt lat="40.072842" lon="-105.230575">
  <ele>1586.09</ele>
  <time>2026-08-27T18:28:45Z</time>
  <course>258.79</course>
  <speed>0.0</speed>
  <fix>3d</fix>
</trkpt>
<trkpt lat="40.072842" lon="-105.230575">
  <ele>1586.09</ele>
  <time>2026-08-27T18:28:45Z</time>
  <course>0.23</course>
  <speed>0.0</speed>
  <fix>3d</fix>
</trkpt>
<trkpt lat="40.072842" lon="-105.230575">
  <ele>1586.09</ele>
  <time>2026-08-27T18:28:45Z</time>
  <course>254.93</course>
  <speed>0.0</speed>
  <fix>3d</fix>
</trkpt>
<trkpt lat="40.072842" lon="-105.230575">
  <ele>1586.09</ele>
  <time>2026-08-27T18:28:45Z</time>
  <course>0.23</course>
  <speed>0.0</speed>
  <fix>3d</fix>
</trkpt>
<trkpt lat="40.072842" lon="-105.230575">
  <ele>1586.09</ele>
  <time>2026-08-27T18:28:45Z</time>
  <course>227.98</course>
  <speed>0.0</speed>
  <fix>3d</fix>
</trkpt>
<trkpt lat="40.072842" lon="-105.230575">
  <ele>1586.09</ele>
  <time>2026-08-27T18:28:45Z</time>
  <course>0.23</course>
  <speed>0.0</speed>
  <fix>3d</fix>
</trkpt>
<trkpt lat="40.072842" lon="-105.230575">
  <ele>1586.09</ele>
  <time>2026-08-27T18:28:45Z</time>
  <course>320.86</course>
  <speed>0.0</speed>
  <fix>3d</fix>
</trkpt>
<trkpt lat="40.072842" lon="-105.230575">
  <ele>1586.09</ele>
  <time>2026-08-27T18:28:45Z</time>
  <course>0.23</course>
  <speed>0.0</speed>
  <fix>3d</fix>
</trkpt>
<trkpt lat="40.072842" lon="-105.230575">
  <ele>1586.09</ele>
  <time>2026-08-27T18:28:45Z</time>
  <course>271.27</course>
  <speed>0.0</speed>
  <fix>3d</fix>
</trkpt>
<trkpt lat="40.072842" lon="-105.230575">
  <ele>1586.09</ele>
  <time>2026-08-27T18:28:45Z</time>
  <course>0.23</course>
  <speed>0.0</speed>
  <fix>3d</fix>
</trkpt>
<trkpt lat="40.072842" lon="-105.230575">
  <ele>1586.09</ele>
  <time>2026-08-27T18:28:45Z</time>
  <course>250.03</course>
  <speed>0.0</speed>
  <fix>3d</fix>
</trkpt>
<trkpt lat="40.072842" lon="-105.230575">
  <ele>1586.09</ele>
  <time>2026-08-27T18:28:45Z</time>
  <course>0.23</course>
  <speed>0.0</speed>
  <fix>3d</fix>
</trkpt>
<trkpt lat="40.072842" lon="-105.230575">
  <ele>1586.09</ele>
  <time>2026-08-27T18:28:45Z</time>
  <course>259.19</course>
  <speed>0.0</speed>
  <fix>3d</fix>
</trkpt>
<trkpt lat="40.072842" lon="-105.230575">
  <ele>1586.09</ele>
  <time>2026-08-27T18:28:45Z</time>
  <course>0.22</course>
  <speed>0.0</speed>
  <fix>3d</fix>
</trkpt>
<trkpt lat="40.072842" lon="-105.230575">
  <ele>1586.09</ele>
  <time>2026-08-27T18:28:45Z</time>
  <course>283.21</course>
  <speed>0.0</speed>
  <fix>3d</fix>
</trkpt>
<trkpt lat="40.072842" lon="-105.230575">
  <ele>1586.09</ele>
  <time>2026-08-27T18:28:45Z</time>
  <course>0.22</course>
  <speed>0.0</speed>
  <fix>3d</fix>
</trkpt>
<trkpt lat="40.072842" lon="-105.230575">
  <ele>1586.09</ele>
  <time>2026-08-27T18:28:45Z</time>
  <course>272.86</course>
  <speed>0.0</speed>
  <fix>3d</fix>
</trkpt>
<trkpt lat="40.072842" lon="-105.230575">
  <ele>1586.09</ele>
  <time>2026-08-27T18:28:45Z</time>
  <course>0.22</course>
  <speed>0.0</speed>
  <fix>3d</fix>
</trkpt>
<trkpt lat="40.072842" lon="-105.230575">
  <ele>1586.09</ele>
  <time>2026-08-27T18:28:45Z</time>
  <course>251.58</course>
  <speed>0.0</speed>
  <fix>3d</fix>
</trkpt>
<trkpt lat="40.072842" lon="-105.230575">
  <ele>1586.09</ele>
  <time>2026-08-27T18:28:45Z</time>
  <course>0.22</course>
  <speed>0.0</speed>
  <fix>3d</fix>
</trkpt>
<trkpt lat="40.072842" lon="-105.230575">
  <ele>1586.09</ele>
  <time>2026-08-27T18:28:45Z</time>
  <course>261.63</course>
  <speed>0.0</speed>
  <fix>3d</fix>
</trkpt>
<trkpt lat="40.072842" lon="-105.230575">
  <ele>1586.09</ele>
  <time>2026-08-27T18:28:45Z</time>
  <course>0.22</course>
  <speed>0.0</speed>
  <fix>3d</fix>
</trkpt>
<trkpt lat="40.072842" lon="-105.230575">
  <ele>1586.09</ele>
  <time>2026-08-27T18:28:45Z</time>
  <course>255.13</course>
  <speed>0.0</speed>
  <fix>3d</fix>
</trkpt>
<trkpt lat="40.072842" lon="-105.230575">
  <ele>1586.09</ele>
  <time>2026-08-27T18:28:45Z</time>
  <course>0.22</course>
  <speed>0.0</speed>
  <fix>3d</fix>
</trkpt>
<trkpt lat="40.072842" lon="-105.230575">
  <ele>1586.09</ele>
  <time>2026-08-27T18:28:45Z</time>
  <course>277.48</course>
  <speed>0.0</speed>
  <fix>3d</fix>
</trkpt>
<trkpt lat="40.072842" lon="-105.230575">
  <ele>1586.09</ele>
  <time>2026-08-27T18:28:45Z</time>
  <course>0.22</course>
  <speed>0.0</speed>
  <fix>3d</fix>
</trkpt>
<trkpt lat="40.072842" lon="-105.230575">
  <ele>1586.09</ele>
  <time>2026-08-27T18:28:45Z</time>
  <course>304.09</course>
  <speed>0.0</speed>
  <fix>3d</fix>
</trkpt>
<trkpt lat="40.072842" lon="-105.230575">
  <ele>1586.09</ele>
  <time>2026-08-27T18:28:45Z</time>
  <course>0.22</course>
  <speed>0.0</speed>
  <fix>3d</fix>
</trkpt>
<trkpt lat="40.072842" lon="-105.230575">
  <ele>1586.09</ele>
  <time>2026-08-27T18:28:45Z</time>
  <course>190.13</course>
  <speed>0.0</speed>
  <fix>3d</fix>
</trkpt>
<trkpt lat="40.072842" lon="-105.230575">
  <ele>1586.09</ele>
  <time>2026-08-27T18:28:45Z</time>
  <course>0.22</course>
  <speed>0.0</speed>
  <fix>3d</fix>
</trkpt>
<trkpt lat="40.072842" lon="-105.230575">
  <ele>1586.09</ele>
  <time>2026-08-27T18:28:45Z</time>
  <course>127.61</course>
  <speed>0.0</speed>
  <fix>3d</fix>
</trkpt>
<trkpt lat="40.072842" lon="-105.230575">
  <ele>1586.09</ele>
  <time>2026-08-27T18:28:45Z</time>
  <course>0.22</course>
  <speed>0.0</speed>
  <fix>3d</fix>
</trkpt>
<trkpt lat="40.072842" lon="-105.230575">
  <ele>1586.09</ele>
  <time>2026-08-27T18:28:45Z</time>
  <course>321.92</course>
  <speed>0.0</speed>
  <fix>3d</fix>
</trkpt>
<trkpt lat="40.072842" lon="-105.230575">
  <ele>1586.09</ele>
  <time>2026-08-27T18:28:45Z</time>
  <course>0.22</course>
  <speed>0.0</speed>
  <fix>3d</fix>
</trkpt>
<trkpt lat="40.072842" lon="-105.230575">
  <ele>1586.09</ele>
  <time>2026-08-27T18:28:45Z</time>
  <course>281.93</course>
  <speed>0.0</speed>
  <fix>3d</fix>
</trkpt>
<trkpt lat="40.072842" lon="-105.230575">
  <ele>1586.09</ele>
  <time>2026-08-27T18:28:45Z</time>
  <course>0.22</course>
  <speed>0.0</speed>
  <fix>3d</fix>
</trkpt>
<trkpt lat="40.072842" lon="-105.230575">
  <ele>1586.09</ele>
  <time>2026-08-27T18:28:45Z</time>
  <course>271.44</course>
  <speed>0.0</speed>
  <fix>3d</fix>
</trkpt>
<trkpt lat="40.072842" lon="-105.230575">
  <ele>1586.09</ele>
  <time>2026-08-27T18:28:45Z</time>
  <course>0.22</course>
  <speed>0.0</speed>
  <fix>3d</fix>
</trkpt>
<trkpt lat="40.072842" lon="-105.230575">
  <ele>1586.09</ele>
  <time>2026-08-27T18:28:45Z</time>
  <course>224.32</course>
  <speed>0.0</speed>
  <fix>3d</fix>
</trkpt>
<trkpt lat="40.072842" lon="-105.230575">
  <ele>1586.09</ele>
  <time>2026-08-27T18:28:45Z</time>
  <course>0.22</course>
  <speed>0.0</speed>
  <fix>3d</fix>
</trkpt>
<trkpt lat="40.072842" lon="-105.230575">
  <ele>1586.09</ele>
  <time>2026-08-27T18:28:45Z</time>
  <course>279.26</course>
  <speed>0.0</speed>
  <fix>3d</fix>
</trkpt>
<trkpt lat="40.072842" lon="-105.230575">
  <ele>1586.09</ele>
  <time>2026-08-27T18:28:45Z</time>
  <course>0.22</course>
  <speed>0.0</speed>
  <fix>3d</fix>
</trkpt>
<trkpt lat="40.072842" lon="-105.230575">
  <ele>1586.09</ele>
  <time>2026-08-27T18:28:45Z</time>
  <course>298.46</course>
  <speed>0.0</speed>
  <fix>3d</fix>
</trkpt>
<trkpt lat="40.072842" lon="-105.230575">
  <ele>1586.09</ele>
  <time>2026-08-27T18:28:45Z</time>
  <course>0.22</course>
  <speed>0.0</speed>
  <fix>3d</fix>
</trkpt>
<trkpt lat="40.072842" lon="-105.230575">
  <ele>1586.09</ele>
  <time>2026-08-27T18:28:45Z</time>
  <course>253.06</course>
  <speed>0.0</speed>
  <fix>3d</fix>
</trkpt>
<trkpt lat="40.072842" lon="-105.230575">
  <ele>1586.09</ele>
  <time>2026-08-27T18:28:45Z</time>
  <course>0.22</course>
  <speed>0.0</speed>
  <fix>3d</fix>
</trkpt>
<trkpt lat="40.072842" lon="-105.230575">
  <ele>1586.09</ele>
  <time>2026-08-27T18:28:45Z</time>
  <course>186.26</course>
  <speed>0.0</speed>
  <fix>3d</fix>
</trkpt>
<trkpt lat="40.072842" lon="-105.230575">
  <ele>1586.09</ele>
  <time>2026-08-27T18:28:45Z</time>
  <course>0.22</course>
  <speed>0.0</speed>
  <fix>3d</fix>
</trkpt>
<trkpt lat="40.072842" lon="-105.230575">
  <ele>1586.09</ele>
  <time>2026-08-27T18:28:45Z</time>
  <course>232.22</course>
  <speed>0.0</speed>
  <fix>3d</fix>
</trkpt>
<trkpt lat="40.072842" lon="-105.230575">
  <ele>1586.09</ele>
  <time>2026-08-27T18:28:45Z</time>
  <course>0.22</course>
  <speed>0.0</speed>
  <fix>3d</fix>
</trkpt>
<trkpt lat="40.072842" lon="-105.230575">
  <ele>1586.09</ele>
  <time>2026-08-27T18:28:45Z</time>
  <course>301.63</course>
  <speed>0.0</speed>
  <fix>3d</fix>
</trkpt>
<trkpt lat="40.072842" lon="-105.230575">
  <ele>1586.09</ele>
  <time>2026-08-27T18:28:45Z</time>
  <course>0.22</course>
  <speed>0.0</speed>
  <fix>3d</fix>
</trkpt>
<trkpt lat="40.072842" lon="-105.230575">
  <ele>1586.09</ele>
  <time>2026-08-27T18:28:45Z</time>
  <course>282.35</course>
  <speed>0.0</speed>
  <fix>3d</fix>
</trkpt>
<trkpt lat="40.072842" lon="-105.230575">
  <ele>1586.09</ele>
  <time>2026-08-27T18:28:45Z</time>
  <course>0.22</course>
  <speed>0.0</speed>
  <fix>3d</fix>
</trkpt>
<trkpt lat="40.072842" lon="-105.230575">
  <ele>1586.09</ele>
  <time>2026-08-27T18:28:45Z</time>
  <course>149.11</course>
  <speed>0.0</speed>
  <fix>3d</fix>
</trkpt>
<trkpt lat="40.072842" lon="-105.230575">
  <ele>1586.09</ele>
  <time>2026-08-27T18:28:45Z</time>
  <course>0.22</course>
  <speed>0.0</speed>
  <fix>3d</fix>
</trkpt>
<trkpt lat="40.072842" lon="-105.230575">
  <ele>1586.09</ele>
  <time>2026-08-27T18:28:45Z</time>
  <course>134.99</course>
  <speed>0.0</speed>
  <fix>3d</fix>
</trkpt>
<trkpt lat="40.072842" lon="-105.230575">
  <ele>1586.09</ele>
  <time>2026-08-27T18:28:45Z</time>
  <course>0.22</course>
  <speed>0.0</speed>
  <fix>3d</fix>
</trkpt>
<trkpt lat="40.072842" lon="-105.230575">
  <ele>1586.09</ele>
  <time>2026-08-27T18:28:45Z</time>
  <course>247.85</course>
  <speed>0.0</speed>
  <fix>3d</fix>
</trkpt>
<trkpt lat="40.072842" lon="-105.230575">
  <ele>1586.09</ele>
  <time>2026-08-27T18:28:45Z</time>
  <course>0.22</course>
  <speed>0.0</speed>
  <fix>3d</fix>
</trkpt>
<trkpt lat="40.072842" lon="-105.230575">
  <ele>1586.09</ele>
  <time>2026-08-27T18:28:45Z</time>
  <course>143.35</course>
  <speed>0.0</speed>
  <fix>3d</fix>
</trkpt>
<trkpt lat="40.072842" lon="-105.230575">
  <ele>1586.09</ele>
  <time>2026-08-27T18:28:45Z</time>
  <course>0.22</course>
  <speed>0.0</speed>
  <fix>3d</fix>
</trkpt>
<trkpt lat="40.072842" lon="-105.230575">
  <ele>1586.09</ele>
  <time>2026-08-27T18:28:45Z</time>
  <course>76.64</course>
  <speed>0.0</speed>
  <fix>3d</fix>
</trkpt>
<trkpt lat="40.072842" lon="-105.230575">
  <ele>1586.09</ele>
  <time>2026-08-27T18:28:45Z</time>
  <course>0.22</course>
  <speed>0.0</speed>
  <fix>3d</fix>
</trkpt>
<trkpt lat="40.072842" lon="-105.230575">
  <ele>1586.09</ele>
  <time>2026-08-27T18:28:45Z</time>
  <course>325.2</course>
  <speed>0.0</speed>
  <fix>3d</fix>
</trkpt>
<trkpt lat="40.072842" lon="-105.230575">
  <ele>1586.09</ele>
  <time>2026-08-27T18:28:45Z</time>
  <course>0.22</course>
  <speed>0.0</speed>
  <fix>3d</fix>
</trkpt>
<trkpt lat="40.072842" lon="-105.230575">
  <ele>1586.09</ele>
  <time>2026-08-27T18:28:45Z</time>
  <course>256.06</course>
  <speed>0.0</speed>
  <fix>3d</fix>
</trkpt>
<trkpt lat="40.072842" lon="-105.230575">
  <ele>1586.09</ele>
  <time>2026-08-27T18:28:45Z</time>
  <course>0.22</course>
  <speed>0.0</speed>
  <fix>3d</fix>
</trkpt>
<trkpt lat="40.072842" lon="-105.230575">
  <ele>1586.09</ele>
  <time>2026-08-27T18:28:45Z</time>
  <course>173.71</course>
  <speed>0.0</speed>
  <fix>3d</fix>
</trkpt>
<trkpt lat="40.072842" lon="-105.230575">
  <ele>1586.09</ele>
  <time>2026-08-27T18:28:45Z</time>
  <course>0.22</course>
  <speed>0.0</speed>
  <fix>3d</fix>
</trkpt>
<trkpt lat="40.072842" lon="-105.230575">
  <ele>1586.09</ele>
  <time>2026-08-27T18:28:45Z</time>
  <course>11.54</course>
  <speed>0.0</speed>
  <fix>3d</fix>
</trkpt>
<trkpt lat="40.072842" lon="-105.230575">
  <ele>1586.09</ele>
  <time>2026-08-27T18:28:45Z</time>
  <course>0.22</course>
  <speed>0.0</speed>
  <fix>3d</fix>
</trkpt>
<trkpt lat="40.072842" lon="-105.230575">
  <ele>1586.09</ele>
  <time>2026-08-27T18:28:45Z</time>
  <course>222.36</course>
  <speed>0.0</speed>
  <fix>3d</fix>
</trkpt>
<trkpt lat="40.072842" lon="-105.230575">
  <ele>1586.09</ele>
  <time>2026-08-27T18:28:45Z</time>
  <course>0.22</course>
  <speed>0.0</speed>
  <fix>3d</fix>
</trkpt>
<trkpt lat="40.072842" lon="-105.230575">
  <ele>1586.09</ele>
  <time>2026-08-27T18:28:45Z</time>
  <course>210.95</course>
  <speed>0.0</speed>
  <fix>3d</fix>
</trkpt>
<trkpt lat="40.072842" lon="-105.230575">
  <ele>1586.09</ele>
  <time>2026-08-27T18:28:45Z</time>
  <course>0.22</course>
  <speed>0.0</speed>
  <fix>3d</fix>
</trkpt>
<trkpt lat="40.072842" lon="-105.230575">
  <ele>1586.09</ele>
  <time>2026-08-27T18:28:45Z</time>
  <course>274.45</course>
  <speed>0.0</speed>
  <fix>3d</fix>
</trkpt>
<trkpt lat="40.072842" lon="-105.230575">
  <ele>1586.09</ele>
  <time>2026-08-27T18:28:45Z</time>
  <course>0.22</course>
  <speed>0.0</speed>
  <fix>3d</fix>
</trkpt>
<trkpt lat="40.072842" lon="-105.230575">
  <ele>1586.09</ele>
  <time>2026-08-27T18:28:45Z</time>
  <course>261.76</course>
  <speed>0.0</speed>
  <fix>3d</fix>
</trkpt>
<trkpt lat="40.072842" lon="-105.230575">
  <ele>1586.09</ele>
  <time>2026-08-27T18:28:45Z</time>
  <course>0.22</course>
  <speed>0.0</speed>
  <fix>3d</fix>
</trkpt>
<trkpt lat="40.072842" lon="-105.230575">
  <ele>1586.09</ele>
  <time>2026-08-27T18:28:45Z</time>
  <course>210.38</course>
  <speed>0.0</speed>
  <fix>3d</fix>
</trkpt>
<trkpt lat="40.072842" lon="-105.230575">
  <ele>1586.09</ele>
  <time>2026-08-27T18:28:45Z</time>
  <course>0.22</course>
  <speed>0.0</speed>
  <fix>3d</fix>
</trkpt>
<trkpt lat="40.072842" lon="-105.230575">
  <ele>1586.09</ele>
  <time>2026-08-27T18:28:45Z</time>
  <course>354.8</course>
  <speed>0.0</speed>
  <fix>3d</fix>
</trkpt>
<trkpt lat="40.072842" lon="-105.230575">
  <ele>1586.09</ele>
  <time>2026-08-27T18:28:45Z</time>
  <course>0.22</course>
  <speed>0.0</speed>
  <fix>3d</fix>
</trkpt>
<trkpt lat="40.072842" lon="-105.230575">
  <ele>1586.09</ele>
  <time>2026-08-27T18:28:45Z</time>
  <course>288.68</course>
  <speed>0.0</speed>
  <fix>3d</fix>
</trkpt>
<trkpt lat="40.072842" lon="-105.230575">
  <ele>1586.09</ele>
  <time>2026-08-27T18:28:45Z</time>
  <course>0.22</course>
  <speed>0.0</speed>
  <fix>3d</fix>
</trkpt>
<trkpt lat="40.072842" lon="-105.230575">
  <ele>1586.09</ele>
  <time>2026-08-27T18:28:45Z</time>
  <course>270.98</course>
  <speed>0.0</speed>
  <fix>3d</fix>
</trkpt>
<trkpt lat="40.072842" lon="-105.230575">
  <ele>1586.09</ele>
  <time>2026-08-27T18:28:45Z</time>
  <course>0.22</course>
  <speed>0.0</speed>
  <fix>3d</fix>
</trkpt>
<trkpt lat="40.072842" lon="-105.230575">
  <ele>1586.09</ele>
  <time>2026-08-27T18:28:45Z</time>
  <course>273.95</course>
  <speed>0.0</speed>
  <fix>3d</fix>
</trkpt>
<trkpt lat="40.072842" lon="-105.230575">
  <ele>1586.09</ele>
  <time>2026-08-27T18:28:45Z</time>
  <course>0.22</course>
  <speed>0.0</speed>
  <fix>3d</fix>
</trkpt>
<trkpt lat="40.072842" lon="-105.230575">
  <ele>1586.09</ele>
  <time>2026-08-27T18:28:46Z</time>
  <course>359.75</course>
  <speed>0.0</speed>
  <fix>3d</fix>
</trkpt>
<trkpt lat="40.072842" lon="-105.230575">
  <ele>1586.09</ele>
  <time>2026-08-27T18:28:46Z</time>
  <course>0.22</course>
  <speed>0.0</speed>
  <fix>3d</fix>
</trkpt>
<trkpt lat="40.072842" lon="-105.230575">
  <ele>1586.09</ele>
  <time>2026-08-27T18:28:46Z</time>
  <course>315.16</course>
  <speed>0.0</speed>
  <fix>3d</fix>
</trkpt>
<trkpt lat="40.072842" lon="-105.230575">
  <ele>1586.09</ele>
  <time>2026-08-27T18:28:46Z</time>
  <course>0.22</course>
  <speed>0.0</speed>
  <fix>3d</fix>
</trkpt>
<trkpt lat="40.072842" lon="-105.230575">
  <ele>1586.09</ele>
  <time>2026-08-27T18:28:46Z</time>
  <course>260.06</course>
  <speed>0.0</speed>
  <fix>3d</fix>
</trkpt>
<trkpt lat="40.072842" lon="-105.230575">
  <ele>1586.09</ele>
  <time>2026-08-27T18:28:46Z</time>
  <course>0.22</course>
  <speed>0.0</speed>
  <fix>3d</fix>
</trkpt>
<trkpt lat="40.072842" lon="-105.230575">
  <ele>1586.09</ele>
  <time>2026-08-27T18:28:46Z</time>
  <course>239.94</course>
  <speed>0.0</speed>
  <fix>3d</fix>
</trkpt>
<trkpt lat="40.072842" lon="-105.230575">
  <ele>1586.09</ele>
  <time>2026-08-27T18:28:46Z</time>
  <course>0.22</course>
  <speed>0.0</speed>
  <fix>3d</fix>
</trkpt>
<trkpt lat="40.072842" lon="-105.230575">
  <ele>1586.09</ele>
  <time>2026-08-27T18:28:46Z</time>
  <course>262.21</course>
  <speed>0.0</speed>
  <fix>3d</fix>
</trkpt>
<trkpt lat="40.072842" lon="-105.230575">
  <ele>1586.09</ele>
  <time>2026-08-27T18:28:46Z</time>
  <course>0.22</course>
  <speed>0.0</speed>
  <fix>3d</fix>
</trkpt>
<trkpt lat="40.072842" lon="-105.230575">
  <ele>1586.09</ele>
  <time>2026-08-27T18:28:46Z</time>
  <course>291.6</course>
  <speed>0.0</speed>
  <fix>3d</fix>
</trkpt>
<trkpt lat="40.072842" lon="-105.230575">
  <ele>1586.09</ele>
  <time>2026-08-27T18:28:46Z</time>
  <course>0.22</course>
  <speed>0.0</speed>
  <fix>3d</fix>
</trkpt>
<trkpt lat="40.072842" lon="-105.230575">
  <ele>1586.09</ele>
  <time>2026-08-27T18:28:46Z</time>
  <course>297.39</course>
  <speed>0.0</speed>
  <fix>3d</fix>
</trkpt>
<trkpt lat="40.072842" lon="-105.230575">
  <ele>1586.09</ele>
  <time>2026-08-27T18:28:46Z</time>
  <course>0.22</course>
  <speed>0.0</speed>
  <fix>3d</fix>
</trkpt>
<trkpt lat="40.072842" lon="-105.230575">
  <ele>1586.09</ele>
  <time>2026-08-27T18:28:46Z</time>
  <course>140.57</course>
  <speed>0.0</speed>
  <fix>3d</fix>
</trkpt>
<trkpt lat="40.072842" lon="-105.230575">
  <ele>1586.09</ele>
  <time>2026-08-27T18:28:46Z</time>
  <course>0.22</course>
  <speed>0.0</speed>
  <fix>3d</fix>
</trkpt>
<trkpt lat="40.072842" lon="-105.230575">
  <ele>1586.09</ele>
  <time>2026-08-27T18:28:46Z</time>
  <course>193.12</course>
  <speed>0.0</speed>
  <fix>3d</fix>
</trkpt>
<trkpt lat="40.072842" lon="-105.230575">
  <ele>1586.09</ele>
  <time>2026-08-27T18:28:46Z</time>
  <course>0.22</course>
  <speed>0.0</speed>
  <fix>3d</fix>
</trkpt>
<trkpt lat="40.072842" lon="-105.230575">
  <ele>1586.09</ele>
  <time>2026-08-27T18:28:46Z</time>
  <course>275.24</course>
  <speed>0.0</speed>
  <fix>3d</fix>
</trkpt>
<trkpt lat="40.072842" lon="-105.230575">
  <ele>1586.09</ele>
  <time>2026-08-27T18:28:46Z</time>
  <course>0.22</course>
  <speed>0.0</speed>
  <fix>3d</fix>
</trkpt>
<trkpt lat="40.072842" lon="-105.230575">
  <ele>1586.09</ele>
  <time>2026-08-27T18:28:46Z</time>
  <course>255.08</course>
  <speed>0.0</speed>
  <fix>3d</fix>
</trkpt>
<trkpt lat="40.072842" lon="-105.230575">
  <ele>1586.09</ele>
  <time>2026-08-27T18:28:46Z</time>
  <course>0.22</course>
  <speed>0.0</speed>
  <fix>3d</fix>
</trkpt>
<trkpt lat="40.072842" lon="-105.230575">
  <ele>1586.09</ele>
  <time>2026-08-27T18:28:46Z</time>
  <course>263.48</course>
  <speed>0.0</speed>
  <fix>3d</fix>
</trkpt>
<trkpt lat="40.072842" lon="-105.230575">
  <ele>1586.09</ele>
  <time>2026-08-27T18:28:46Z</time>
  <course>0.22</course>
  <speed>0.0</speed>
  <fix>3d</fix>
</trkpt>
<trkpt lat="40.072842" lon="-105.230575">
  <ele>1586.09</ele>
  <time>2026-08-27T18:28:46Z</time>
  <course>267.37</course>
  <speed>0.0</speed>
  <fix>3d</fix>
</trkpt>
<trkpt lat="40.072842" lon="-105.230575">
  <ele>1586.09</ele>
  <time>2026-08-27T18:28:46Z</time>
  <course>0.22</course>
  <speed>0.0</speed>
  <fix>3d</fix>
</trkpt>
<trkpt lat="40.072842" lon="-105.230575">
  <ele>1586.09</ele>
  <time>2026-08-27T18:28:46Z</time>
  <course>303.1</course>
  <speed>0.0</speed>
  <fix>3d</fix>
</trkpt>
<trkpt lat="40.072842" lon="-105.230575">
  <ele>1586.09</ele>
  <time>2026-08-27T18:28:46Z</time>
  <course>0.22</course>
  <speed>0.0</speed>
  <fix>3d</fix>
</trkpt>
<trkpt lat="40.072842" lon="-105.230575">
  <ele>1586.09</ele>
  <time>2026-08-27T18:28:46Z</time>
  <course>296.46</course>
  <speed>0.0</speed>
  <fix>3d</fix>
</trkpt>
<trkpt lat="40.072842" lon="-105.230575">
  <ele>1586.09</ele>
  <time>2026-08-27T18:28:46Z</time>
  <course>0.22</course>
  <speed>0.0</speed>
  <fix>3d</fix>
</trkpt>
<trkpt lat="40.072842" lon="-105.230575">
  <ele>1586.09</ele>
  <time>2026-08-27T18:28:46Z</time>
  <course>291.12</course>
  <speed>0.0</speed>
  <fix>3d</fix>
</trkpt>
<trkpt lat="40.072842" lon="-105.230575">
  <ele>1586.09</ele>
  <time>2026-08-27T18:28:46Z</time>
  <course>0.22</course>
  <speed>0.0</speed>
  <fix>3d</fix>
</trkpt>
<trkpt lat="40.072842" lon="-105.230575">
  <ele>1586.09</ele>
  <time>2026-08-27T18:28:46Z</time>
  <course>288.18</course>
  <speed>0.0</speed>
  <fix>3d</fix>
</trkpt>
<trkpt lat="40.072842" lon="-105.230575">
  <ele>1586.09</ele>
  <time>2026-08-27T18:28:46Z</time>
  <course>0.22</course>
  <speed>0.0</speed>
  <fix>3d</fix>
</trkpt>
<trkpt lat="40.072842" lon="-105.230575">
  <ele>1586.09</ele>
  <time>2026-08-27T18:28:46Z</time>
  <course>269.01</course>
  <speed>0.0</speed>
  <fix>3d</fix>
</trkpt>
<trkpt lat="40.072842" lon="-105.230575">
  <ele>1586.09</ele>
  <time>2026-08-27T18:28:46Z</time>
  <course>0.22</course>
  <speed>0.0</speed>
  <fix>3d</fix>
</trkpt>
<trkpt lat="40.072842" lon="-105.230575">
  <ele>1586.09</ele>
  <time>2026-08-27T18:28:46Z</time>
  <course>151.51</course>
  <speed>0.0</speed>
  <fix>3d</fix>
</trkpt>
<trkpt lat="40.072842" lon="-105.230575">
  <ele>1586.09</ele>
  <time>2026-08-27T18:28:46Z</time>
  <course>0.22</course>
  <speed>0.0</speed>
  <fix>3d</fix>
</trkpt>
<trkpt lat="40.072842" lon="-105.230575">
  <ele>1586.09</ele>
  <time>2026-08-27T18:28:46Z</time>
  <course>305.33</course>
  <speed>0.0</speed>
  <fix>3d</fix>
</trkpt>
<trkpt lat="40.072842" lon="-105.230575">
  <ele>1586.09</ele>
  <time>2026-08-27T18:28:46Z</time>
  <course>0.22</course>
  <speed>0.0</speed>
  <fix>3d</fix>
</trkpt>
<trkpt lat="40.072842" lon="-105.230575">
  <ele>1586.09</ele>
  <time>2026-08-27T18:28:46Z</time>
  <course>296.34</course>
  <speed>0.0</speed>
  <fix>3d</fix>
</trkpt>
<trkpt lat="40.072842" lon="-105.230575">
  <ele>1586.09</ele>
  <time>2026-08-27T18:28:46Z</time>
  <course>0.22</course>
  <speed>0.0</speed>
  <fix>3d</fix>
</trkpt>
<trkpt lat="40.072842" lon="-105.230575">
  <ele>1586.09</ele>
  <time>2026-08-27T18:28:46Z</time>
  <course>269.47</course>
  <speed>0.0</speed>
  <fix>3d</fix>
</trkpt>
<trkpt lat="40.072842" lon="-105.230575">
  <ele>1586.09</ele>
  <time>2026-08-27T18:28:46Z</time>
  <course>0.22</course>
  <speed>0.0</speed>
  <fix>3d</fix>
</trkpt>
<trkpt lat="40.072842" lon="-105.230575">
  <ele>1586.09</ele>
  <time>2026-08-27T18:28:46Z</time>
  <course>257.27</course>
  <speed>0.0</speed>
  <fix>3d</fix>
</trkpt>
<trkpt lat="40.072842" lon="-105.230575">
  <ele>1586.09</ele>
  <time>2026-08-27T18:28:46Z</time>
  <course>0.22</course>
  <speed>0.0</speed>
  <fix>3d</fix>
</trkpt>
<trkpt lat="40.072842" lon="-105.230575">
  <ele>1586.09</ele>
  <time>2026-08-27T18:28:46Z</time>
  <course>259.78</course>
  <speed>0.0</speed>
  <fix>3d</fix>
</trkpt>
<trkpt lat="40.072842" lon="-105.230575">
  <ele>1586.09</ele>
  <time>2026-08-27T18:28:46Z</time>
  <course>0.22</course>
  <speed>0.0</speed>
  <fix>3d</fix>
</trkpt>
<trkpt lat="40.072842" lon="-105.230575">
  <ele>1586.09</ele>
  <time>2026-08-27T18:28:46Z</time>
  <course>229.43</course>
  <speed>0.0</speed>
  <fix>3d</fix>
</trkpt>
<trkpt lat="40.072842" lon="-105.230575">
  <ele>1586.09</ele>
  <time>2026-08-27T18:28:46Z</time>
  <course>0.22</course>
  <speed>0.0</speed>
  <fix>3d</fix>
</trkpt>
<trkpt lat="40.072842" lon="-105.230575">
  <ele>1586.09</ele>
  <time>2026-08-27T18:28:46Z</time>
  <course>219.63</course>
  <speed>0.0</speed>
  <fix>3d</fix>
</trkpt>
<trkpt lat="40.072842" lon="-105.230575">
  <ele>1586.09</ele>
  <time>2026-08-27T18:28:46Z</time>
  <course>0.22</course>
  <speed>0.0</speed>
  <fix>3d</fix>
</trkpt>
<trkpt lat="40.072842" lon="-105.230575">
  <ele>1586.09</ele>
  <time>2026-08-27T18:28:46Z</time>
  <course>287.26</course>
  <speed>0.0</speed>
  <fix>3d</fix>
</trkpt>
<trkpt lat="40.072842" lon="-105.230575">
  <ele>1586.09</ele>
  <time>2026-08-27T18:28:46Z</time>
  <course>0.22</course>
  <speed>0.0</speed>
  <fix>3d</fix>
</trkpt>
<trkpt lat="40.072842" lon="-105.230575">
  <ele>1586.09</ele>
  <time>2026-08-27T18:28:46Z</time>
  <course>263.39</course>
  <speed>0.0</speed>
  <fix>3d</fix>
</trkpt>
<trkpt lat="40.072842" lon="-105.230575">
  <ele>1586.09</ele>
  <time>2026-08-27T18:28:46Z</time>
  <course>0.22</course>
  <speed>0.0</speed>
  <fix>3d</fix>
</trkpt>
<trkpt lat="40.072842" lon="-105.230575">
  <ele>1586.09</ele>
  <time>2026-08-27T18:28:46Z</time>
  <course>271.48</course>
  <speed>0.0</speed>
  <fix>3d</fix>
</trkpt>
<trkpt lat="40.072842" lon="-105.230575">
  <ele>1586.09</ele>
  <time>2026-08-27T18:28:46Z</time>
  <course>0.22</course>
  <speed>0.0</speed>
  <fix>3d</fix>
</trkpt>
<trkpt lat="40.072842" lon="-105.230575">
  <ele>1586.09</ele>
  <time>2026-08-27T18:28:46Z</time>
  <course>270.89</course>
  <speed>0.0</speed>
  <fix>3d</fix>
</trkpt>
<trkpt lat="40.072842" lon="-105.230575">
  <ele>1586.09</ele>
  <time>2026-08-27T18:28:46Z</time>
  <course>0.22</course>
  <speed>0.0</speed>
  <fix>3d</fix>
</trkpt>
<trkpt lat="40.072842" lon="-105.230575">
  <ele>1586.09</ele>
  <time>2026-08-27T18:28:46Z</time>
  <course>271.08</course>
  <speed>0.0</speed>
  <fix>3d</fix>
</trkpt>
<trkpt lat="40.072842" lon="-105.230575">
  <ele>1586.09</ele>
  <time>2026-08-27T18:28:46Z</time>
  <course>0.22</course>
  <speed>0.0</speed>
  <fix>3d</fix>
</trkpt>
<trkpt lat="40.072842" lon="-105.230575">
  <ele>1586.09</ele>
  <time>2026-08-27T18:28:46Z</time>
  <course>260.29</course>
  <speed>0.0</speed>
  <fix>3d</fix>
</trkpt>
<trkpt lat="40.072842" lon="-105.230575">
  <ele>1586.09</ele>
  <time>2026-08-27T18:28:46Z</time>
  <course>0.22</course>
  <speed>0.0</speed>
  <fix>3d</fix>
</trkpt>
<trkpt lat="40.072842" lon="-105.230575">
  <ele>1586.09</ele>
  <time>2026-08-27T18:28:46Z</time>
  <course>261.24</course>
  <speed>0.0</speed>
  <fix>3d</fix>
</trkpt>
<trkpt lat="40.072842" lon="-105.230575">
  <ele>1586.09</ele>
  <time>2026-08-27T18:28:46Z</time>
  <course>0.22</course>
  <speed>0.0</speed>
  <fix>3d</fix>
</trkpt>
<trkpt lat="40.072842" lon="-105.230575">
  <ele>1586.09</ele>
  <time>2026-08-27T18:28:46Z</time>
  <course>298.44</course>
  <speed>0.0</speed>
  <fix>3d</fix>
</trkpt>
<trkpt lat="40.072842" lon="-105.230575">
  <ele>1586.09</ele>
  <time>2026-08-27T18:28:46Z</time>
  <course>0.22</course>
  <speed>0.0</speed>
  <fix>3d</fix>
</trkpt>
<trkpt lat="40.072842" lon="-105.230575">
  <ele>1586.09</ele>
  <time>2026-08-27T18:28:46Z</time>
  <course>283.13</course>
  <speed>0.0</speed>
  <fix>3d</fix>
</trkpt>
<trkpt lat="40.072842" lon="-105.230575">
  <ele>1586.09</ele>
  <time>2026-08-27T18:28:46Z</time>
  <course>0.22</course>
  <speed>0.0</speed>
  <fix>3d</fix>
</trkpt>
<trkpt lat="40.072842" lon="-105.230575">
  <ele>1586.09</ele>
  <time>2026-08-27T18:28:46Z</time>
  <course>274.34</course>
  <speed>0.0</speed>
  <fix>3d</fix>
</trkpt>
<trkpt lat="40.072842" lon="-105.230575">
  <ele>1586.09</ele>
  <time>2026-08-27T18:28:46Z</time>
  <course>0.22</course>
  <speed>0.0</speed>
  <fix>3d</fix>
</trkpt>
<trkpt lat="40.072842" lon="-105.230575">
  <ele>1586.09</ele>
  <time>2026-08-27T18:28:46Z</time>
  <course>267.7</course>
  <speed>0.0</speed>
  <fix>3d</fix>
</trkpt>
<trkpt lat="40.072842" lon="-105.230575">
  <ele>1586.09</ele>
  <time>2026-08-27T18:28:46Z</time>
  <course>0.22</course>
  <speed>0.0</speed>
  <fix>3d</fix>
</trkpt>
<trkpt lat="40.072842" lon="-105.230575">
  <ele>1586.09</ele>
  <time>2026-08-27T18:28:46Z</time>
  <course>268.96</course>
  <speed>0.0</speed>
  <fix>3d</fix>
</trkpt>
<trkpt lat="40.072842" lon="-105.230575">
  <ele>1586.09</ele>
  <time>2026-08-27T18:28:46Z</time>
  <course>0.22</course>
  <speed>0.0</speed>
  <fix>3d</fix>
</trkpt>
<trkpt lat="40.072842" lon="-105.230575">
  <ele>1586.09</ele>
  <time>2026-08-27T18:28:46Z</time>
  <course>2.24</course>
  <speed>0.0</speed>
  <fix>3d</fix>
</trkpt>
<trkpt lat="40.072842" lon="-105.230575">
  <ele>1586.09</ele>
  <time>2026-08-27T18:28:46Z</time>
  <course>0.22</course>
  <speed>0.0</speed>
  <fix>3d</fix>
</trkpt>
<trkpt lat="40.072842" lon="-105.230575">
  <ele>1586.09</ele>
  <time>2026-08-27T18:28:46Z</time>
  <course>292.75</course>
  <speed>0.0</speed>
  <fix>3d</fix>
</trkpt>
<trkpt lat="40.072842" lon="-105.230575">
  <ele>1586.09</ele>
  <time>2026-08-27T18:28:46Z</time>
  <course>0.22</course>
  <speed>0.0</speed>
  <fix>3d</fix>
</trkpt>
<trkpt lat="40.072842" lon="-105.230575">
  <ele>1586.09</ele>
  <time>2026-08-27T18:28:46Z</time>
  <course>275.81</course>
  <speed>0.0</speed>
  <fix>3d</fix>
</trkpt>
<trkpt lat="40.072842" lon="-105.230575">
  <ele>1586.09</ele>
  <time>2026-08-27T18:28:46Z</time>
  <course>0.22</course>
  <speed>0.0</speed>
  <fix>3d</fix>
</trkpt>
<trkpt lat="40.072842" lon="-105.230575">
  <ele>1586.09</ele>
  <time>2026-08-27T18:28:46Z</time>
  <course>271.42</course>
  <speed>0.0</speed>
  <fix>3d</fix>
</trkpt>
<trkpt lat="40.072842" lon="-105.230575">
  <ele>1586.09</ele>
  <time>2026-08-27T18:28:46Z</time>
  <course>0.22</course>
  <speed>0.0</speed>
  <fix>3d</fix>
</trkpt>
<trkpt lat="40.072842" lon="-105.230575">
  <ele>1586.09</ele>
  <time>2026-08-27T18:28:46Z</time>
  <course>289.16</course>
  <speed>0.0</speed>
  <fix>3d</fix>
</trkpt>
<trkpt lat="40.072842" lon="-105.230575">
  <ele>1586.09</ele>
  <time>2026-08-27T18:28:46Z</time>
  <course>0.22</course>
  <speed>0.0</speed>
  <fix>3d</fix>
</trkpt>
<trkpt lat="40.072842" lon="-105.230575">
  <ele>1586.09</ele>
  <time>2026-08-27T18:28:46Z</time>
  <course>282.07</course>
  <speed>0.0</speed>
  <fix>3d</fix>
</trkpt>
<trkpt lat="40.072842" lon="-105.230575">
  <ele>1586.09</ele>
  <time>2026-08-27T18:28:46Z</time>
  <course>0.22</course>
  <speed>0.0</speed>
  <fix>3d</fix>
</trkpt>
<trkpt lat="40.072842" lon="-105.230575">
  <ele>1586.09</ele>
  <time>2026-08-27T18:28:46Z</time>
  <course>259.52</course>
  <speed>0.0</speed>
  <fix>3d</fix>
</trkpt>
<trkpt lat="40.072842" lon="-105.230575">
  <ele>1586.09</ele>
  <time>2026-08-27T18:28:46Z</time>
  <course>0.22</course>
  <speed>0.0</speed>
  <fix>3d</fix>
</trkpt>
<trkpt lat="40.072842" lon="-105.230575">
  <ele>1586.09</ele>
  <time>2026-08-27T18:28:46Z</time>
  <course>255.63</course>
  <speed>0.0</speed>
  <fix>3d</fix>
</trkpt>
<trkpt lat="40.072842" lon="-105.230575">
  <ele>1586.09</ele>
  <time>2026-08-27T18:28:46Z</time>
  <course>0.22</course>
  <speed>0.0</speed>
  <fix>3d</fix>
</trkpt>
<trkpt lat="40.072842" lon="-105.230575">
  <ele>1586.09</ele>
  <time>2026-08-27T18:28:46Z</time>
  <course>259.23</course>
  <speed>0.0</speed>
  <fix>3d</fix>
</trkpt>
<trkpt lat="40.072842" lon="-105.230575">
  <ele>1586.09</ele>
  <time>2026-08-27T18:28:46Z</time>
  <course>0.22</course>
  <speed>0.0</speed>
  <fix>3d</fix>
</trkpt>
<trkpt lat="40.072842" lon="-105.230575">
  <ele>1586.09</ele>
  <time>2026-08-27T18:28:46Z</time>
  <course>308.8</course>
  <speed>0.0</speed>
  <fix>3d</fix>
</trkpt>
<trkpt lat="40.072842" lon="-105.230575">
  <ele>1586.09</ele>
  <time>2026-08-27T18:28:46Z</time>
  <course>0.22</course>
  <speed>0.0</speed>
  <fix>3d</fix>
</trkpt>
<trkpt lat="40.072842" lon="-105.230575">
  <ele>1586.09</ele>
  <time>2026-08-27T18:28:46Z</time>
  <course>297.7</course>
  <speed>0.0</speed>
  <fix>3d</fix>
</trkpt>
<trkpt lat="40.072842" lon="-105.230575">
  <ele>1586.09</ele>
  <time>2026-08-27T18:28:46Z</time>
  <course>0.22</course>
  <speed>0.0</speed>
  <fix>3d</fix>
</trkpt>
<trkpt lat="40.072842" lon="-105.230575">
  <ele>1586.09</ele>
  <time>2026-08-27T18:28:46Z</time>
  <course>238.0</course>
  <speed>0.0</speed>
  <fix>3d</fix>
</trkpt>
<trkpt lat="40.072842" lon="-105.230575">
  <ele>1586.09</ele>
  <time>2026-08-27T18:28:46Z</time>
  <course>0.22</course>
  <speed>0.0</speed>
  <fix>3d</fix>
</trkpt>
<trkpt lat="40.072842" lon="-105.230575">
  <ele>1586.09</ele>
  <time>2026-08-27T18:28:46Z</time>
  <course>274.9</course>
  <speed>0.0</speed>
  <fix>3d</fix>
</trkpt>
<trkpt lat="40.072842" lon="-105.230575">
  <ele>1586.09</ele>
  <time>2026-08-27T18:28:46Z</time>
  <course>0.22</course>
  <speed>0.0</speed>
  <fix>3d</fix>
</trkpt>
<trkpt lat="40.072842" lon="-105.230575">
  <ele>1586.09</ele>
  <time>2026-08-27T18:28:46Z</time>
  <course>302.26</course>
  <speed>0.0</speed>
  <fix>3d</fix>
</trkpt>
<trkpt lat="40.072842" lon="-105.230575">
  <ele>1586.09</ele>
  <time>2026-08-27T18:28:46Z</time>
  <course>0.22</course>
  <speed>0.0</speed>
  <fix>3d</fix>
</trkpt>
<trkpt lat="40.072842" lon="-105.230575">
  <ele>1586.09</ele>
  <time>2026-08-27T18:28:46Z</time>
  <course>310.58</course>
  <speed>0.0</speed>
  <fix>3d</fix>
</trkpt>
<trkpt lat="40.072842" lon="-105.230575">
  <ele>1586.09</ele>
  <time>2026-08-27T18:28:46Z</time>
  <course>0.22</course>
  <speed>0.0</speed>
  <fix>3d</fix>
</trkpt>
<trkpt lat="40.072842" lon="-105.230575">
  <ele>1586.09</ele>
  <time>2026-08-27T18:28:46Z</time>
  <course>317.69</course>
  <speed>0.0</speed>
  <fix>3d</fix>
</trkpt>
<trkpt lat="40.072842" lon="-105.230575">
  <ele>1586.09</ele>
  <time>2026-08-27T18:28:46Z</time>
  <course>0.22</course>
  <speed>0.0</speed>
  <fix>3d</fix>
</trkpt>
<trkpt lat="40.072842" lon="-105.230575">
  <ele>1586.09</ele>
  <time>2026-08-27T18:28:46Z</time>
  <course>314.32</course>
  <speed>0.0</speed>
  <fix>3d</fix>
</trkpt>
<trkpt lat="40.072842" lon="-105.230575">
  <ele>1586.09</ele>
  <time>2026-08-27T18:28:46Z</time>
  <course>0.22</course>
  <speed>0.0</speed>
  <fix>3d</fix>
</trkpt>
<trkpt lat="40.072842" lon="-105.230575">
  <ele>1586.09</ele>
  <time>2026-08-27T18:28:46Z</time>
  <course>302.19</course>
  <speed>0.0</speed>
  <fix>3d</fix>
</trkpt>
<trkpt lat="40.072842" lon="-105.230575">
  <ele>1586.09</ele>
  <time>2026-08-27T18:28:46Z</time>
  <course>0.22</course>
  <speed>0.0</speed>
  <fix>3d</fix>
</trkpt>
<trkpt lat="40.072842" lon="-105.230575">
  <ele>1586.09</ele>
  <time>2026-08-27T18:28:46Z</time>
  <course>301.04</course>
  <speed>0.0</speed>
  <fix>3d</fix>
</trkpt>
<trkpt lat="40.072842" lon="-105.230575">
  <ele>1586.09</ele>
  <time>2026-08-27T18:28:46Z</time>
  <course>0.22</course>
  <speed>0.0</speed>
  <fix>3d</fix>
</trkpt>
<trkpt lat="40.072842" lon="-105.230575">
  <ele>1586.09</ele>
  <time>2026-08-27T18:28:46Z</time>
  <course>301.45</course>
  <speed>0.0</speed>
  <fix>3d</fix>
</trkpt>
<trkpt lat="40.072842" lon="-105.230575">
  <ele>1586.09</ele>
  <time>2026-08-27T18:28:46Z</time>
  <course>0.22</course>
  <speed>0.0</speed>
  <fix>3d</fix>
</trkpt>
<trkpt lat="40.072842" lon="-105.230575">
  <ele>1586.09</ele>
  <time>2026-08-27T18:28:46Z</time>
  <course>318.14</course>
  <speed>0.0</speed>
  <fix>3d</fix>
</trkpt>
<trkpt lat="40.072842" lon="-105.230575">
  <ele>1586.09</ele>
  <time>2026-08-27T18:28:46Z</time>
  <course>0.22</course>
  <speed>0.0</speed>
  <fix>3d</fix>
</trkpt>
<trkpt lat="40.072842" lon="-105.230575">
  <ele>1586.09</ele>
  <time>2026-08-27T18:28:46Z</time>
  <course>297.37</course>
  <speed>0.0</speed>
  <fix>3d</fix>
</trkpt>
<trkpt lat="40.072842" lon="-105.230575">
  <ele>1586.09</ele>
  <time>2026-08-27T18:28:46Z</time>
  <course>0.22</course>
  <speed>0.0</speed>
  <fix>3d</fix>
</trkpt>
<trkpt lat="40.072842" lon="-105.230575">
  <ele>1586.09</ele>
  <time>2026-08-27T18:28:46Z</time>
  <course>285.29</course>
  <speed>0.0</speed>
  <fix>3d</fix>
</trkpt>
<trkpt lat="40.072842" lon="-105.230575">
  <ele>1586.09</ele>
  <time>2026-08-27T18:28:46Z</time>
  <course>0.22</course>
  <speed>0.0</speed>
  <fix>3d</fix>
</trkpt>
<trkpt lat="40.072842" lon="-105.230575">
  <ele>1586.09</ele>
  <time>2026-08-27T18:28:46Z</time>
  <course>283.22</course>
  <speed>0.0</speed>
  <fix>3d</fix>
</trkpt>
<trkpt lat="40.072842" lon="-105.230575">
  <ele>1586.09</ele>
  <time>2026-08-27T18:28:46Z</time>
  <course>0.22</course>
  <speed>0.0</speed>
  <fix>3d</fix>
</trkpt>
<trkpt lat="40.072842" lon="-105.230575">
  <ele>1586.09</ele>
  <time>2026-08-27T18:28:46Z</time>
  <course>269.14</course>
  <speed>0.0</speed>
  <fix>3d</fix>
</trkpt>
<trkpt lat="40.072842" lon="-105.230575">
  <ele>1586.09</ele>
  <time>2026-08-27T18:28:46Z</time>
  <course>0.22</course>
  <speed>0.0</speed>
  <fix>3d</fix>
</trkpt>
<trkpt lat="40.072842" lon="-105.230575">
  <ele>1586.09</ele>
  <time>2026-08-27T18:28:46Z</time>
  <course>282.33</course>
  <speed>0.0</speed>
  <fix>3d</fix>
</trkpt>
<trkpt lat="40.072842" lon="-105.230575">
  <ele>1586.09</ele>
  <time>2026-08-27T18:28:46Z</time>
  <course>0.22</course>
  <speed>0.0</speed>
  <fix>3d</fix>
</trkpt>
<trkpt lat="40.072842" lon="-105.230575">
  <ele>1586.09</ele>
  <time>2026-08-27T18:28:46Z</time>
  <course>277.54</course>
  <speed>0.0</speed>
  <fix>3d</fix>
</trkpt>
<trkpt lat="40.072842" lon="-105.230575">
  <ele>1586.09</ele>
  <time>2026-08-27T18:28:46Z</time>
  <course>0.22</course>
  <speed>0.0</speed>
  <fix>3d</fix>
</trkpt>
<trkpt lat="40.072842" lon="-105.230575">
  <ele>1586.09</ele>
  <time>2026-08-27T18:28:46Z</time>
  <course>286.72</course>
  <speed>0.0</speed>
  <fix>3d</fix>
</trkpt>
<trkpt lat="40.072842" lon="-105.230575">
  <ele>1586.09</ele>
  <time>2026-08-27T18:28:46Z</time>
  <course>0.22</course>
  <speed>0.0</speed>
  <fix>3d</fix>
</trkpt>
<trkpt lat="40.072842" lon="-105.230575">
  <ele>1586.09</ele>
  <time>2026-08-27T18:28:46Z</time>
  <course>298.95</course>
  <speed>0.0</speed>
  <fix>3d</fix>
</trkpt>
<trkpt lat="40.072842" lon="-105.230575">
  <ele>1586.09</ele>
  <time>2026-08-27T18:28:46Z</time>
  <course>0.22</course>
  <speed>0.0</speed>
  <fix>3d</fix>
</trkpt>
<trkpt lat="40.072842" lon="-105.230575">
  <ele>1586.09</ele>
  <time>2026-08-27T18:28:46Z</time>
  <course>287.54</course>
  <speed>0.0</speed>
  <fix>3d</fix>
</trkpt>
<trkpt lat="40.072842" lon="-105.230575">
  <ele>1586.09</ele>
  <time>2026-08-27T18:28:46Z</time>
  <course>0.22</course>
  <speed>0.0</speed>
  <fix>3d</fix>
</trkpt>
<trkpt lat="40.072842" lon="-105.230575">
  <ele>1586.09</ele>
  <time>2026-08-27T18:28:46Z</time>
  <course>298.4</course>
  <speed>0.0</speed>
  <fix>3d</fix>
</trkpt>
<trkpt lat="40.072842" lon="-105.230575">
  <ele>1586.09</ele>
  <time>2026-08-27T18:28:46Z</time>
  <course>0.22</course>
  <speed>0.0</speed>
  <fix>3d</fix>
</trkpt>
<trkpt lat="40.072842" lon="-105.230575">
  <ele>1586.09</ele>
  <time>2026-08-27T18:28:46Z</time>
  <course>311.2</course>
  <speed>0.0</speed>
  <fix>3d</fix>
</trkpt>
<trkpt lat="40.072842" lon="-105.230575">
  <ele>1586.09</ele>
  <time>2026-08-27T18:28:46Z</time>
  <course>0.22</course>
  <speed>0.0</speed>
  <fix>3d</fix>
</trkpt>
<trkpt lat="40.072842" lon="-105.230575">
  <ele>1586.09</ele>
  <time>2026-08-27T18:28:46Z</time>
  <course>295.07</course>
  <speed>0.0</speed>
  <fix>3d</fix>
</trkpt>
<trkpt lat="40.072842" lon="-105.230575">
  <ele>1586.09</ele>
  <time>2026-08-27T18:28:46Z</time>
  <course>0.22</course>
  <speed>0.0</speed>
  <fix>3d</fix>
</trkpt>
<trkpt lat="40.072842" lon="-105.230575">
  <ele>1586.09</ele>
  <time>2026-08-27T18:28:46Z</time>
  <course>275.69</course>
  <speed>0.0</speed>
  <fix>3d</fix>
</trkpt>
<trkpt lat="40.072842" lon="-105.230575">
  <ele>1586.09</ele>
  <time>2026-08-27T18:28:46Z</time>
  <course>0.22</course>
  <speed>0.0</speed>
  <fix>3d</fix>
</trkpt>
<trkpt lat="40.072842" lon="-105.230575">
  <ele>1586.09</ele>
  <time>2026-08-27T18:28:46Z</time>
  <course>291.96</course>
  <speed>0.0</speed>
  <fix>3d</fix>
</trkpt>
<trkpt lat="40.072842" lon="-105.230575">
  <ele>1586.09</ele>
  <time>2026-08-27T18:28:46Z</time>
  <course>0.22</course>
  <speed>0.0</speed>
  <fix>3d</fix>
</trkpt>
<trkpt lat="40.072842" lon="-105.230575">
  <ele>1586.09</ele>
  <time>2026-08-27T18:28:46Z</time>
  <course>283.33</course>
  <speed>0.0</speed>
  <fix>3d</fix>
</trkpt>
<trkpt lat="40.072842" lon="-105.230575">
  <ele>1586.09</ele>
  <time>2026-08-27T18:28:46Z</time>
  <course>0.22</course>
  <speed>0.0</speed>
  <fix>3d</fix>
</trkpt>
<trkpt lat="40.072842" lon="-105.230575">
  <ele>1586.09</ele>
  <time>2026-08-27T18:28:46Z</time>
  <course>270.87</course>
  <speed>0.0</speed>
  <fix>3d</fix>
</trkpt>
<trkpt lat="40.072842" lon="-105.230575">
  <ele>1586.09</ele>
  <time>2026-08-27T18:28:46Z</time>
  <course>0.22</course>
  <speed>0.0</speed>
  <fix>3d</fix>
</trkpt>
<trkpt lat="40.072842" lon="-105.230575">
  <ele>1586.09</ele>
  <time>2026-08-27T18:28:46Z</time>
  <course>263.3</course>
  <speed>0.0</speed>
  <fix>3d</fix>
</trkpt>
<trkpt lat="40.072842" lon="-105.230575">
  <ele>1586.09</ele>
  <time>2026-08-27T18:28:46Z</time>
  <course>0.22</course>
  <speed>0.0</speed>
  <fix>3d</fix>
</trkpt>
<trkpt lat="40.072842" lon="-105.230575">
  <ele>1586.09</ele>
  <time>2026-08-27T18:28:46Z</time>
  <course>323.97</course>
  <speed>0.0</speed>
  <fix>3d</fix>
</trkpt>
<trkpt lat="40.072842" lon="-105.230575">
  <ele>1586.09</ele>
  <time>2026-08-27T18:28:46Z</time>
  <course>0.22</course>
  <speed>0.0</speed>
  <fix>3d</fix>
</trkpt>
<trkpt lat="40.072842" lon="-105.230575">
  <ele>1586.09</ele>
  <time>2026-08-27T18:28:46Z</time>
  <course>318.83</course>
  <speed>0.0</speed>
  <fix>3d</fix>
</trkpt>
<trkpt lat="40.072842" lon="-105.230575">
  <ele>1586.09</ele>
  <time>2026-08-27T18:28:46Z</time>
  <course>0.22</course>
  <speed>0.0</speed>
  <fix>3d</fix>
</trkpt>
<trkpt lat="40.072842" lon="-105.230575">
  <ele>1586.09</ele>
  <time>2026-08-27T18:28:46Z</time>
  <course>272.72</course>
  <speed>0.0</speed>
  <fix>3d</fix>
</trkpt>
<trkpt lat="40.0728419" lon="-105.2305749">
  <ele>1586.14</ele>
  <time>2026-08-27T18:28:46Z</time>
  <course>6.87</course>
  <speed>0.01414213562373095</speed>
  <fix>3d</fix>
</trkpt>
<trkpt lat="40.072842" lon="-105.230575">
  <ele>1586.09</ele>
  <time>2026-08-27T18:28:46Z</time>
  <course>264.45</course>
  <speed>0.0</speed>
  <fix>3d</fix>
</trkpt>
<trkpt lat="40.0728419" lon="-105.2305749">
  <ele>1586.14</ele>
  <time>2026-08-27T18:28:46Z</time>
  <course>6.93</course>
  <speed>0.01414213562373095</speed>
  <fix>3d</fix>
</trkpt>
<trkpt lat="40.072842" lon="-105.230575">
  <ele>1586.09</ele>
  <time>2026-08-27T18:28:46Z</time>
  <course>299.41</course>
  <speed>0.0</speed>
  <fix>3d</fix>
</trkpt>
<trkpt lat="40.0728419" lon="-105.2305749">
  <ele>1586.14</ele>
  <time>2026-08-27T18:28:46Z</time>
  <course>6.97</course>
  <speed>0.01414213562373095</speed>
  <fix>3d</fix>
</trkpt>
<trkpt lat="40.072842" lon="-105.230575">
  <ele>1586.09</ele>
  <time>2026-08-27T18:28:46Z</time>
  <course>273.49</course>
  <speed>0.0</speed>
  <fix>3d</fix>
</trkpt>
<trkpt lat="40.0728419" lon="-105.2305749">
  <ele>1586.14</ele>
  <time>2026-08-27T18:28:46Z</time>
  <course>7.01</course>
  <speed>0.01414213562373095</speed>
  <fix>3d</fix>
</trkpt>
<trkpt lat="40.072842" lon="-105.230575">
  <ele>1586.09</ele>
  <time>2026-08-27T18:28:46Z</time>
  <course>265.8</course>
  <speed>0.0</speed>
  <fix>3d</fix>
</trkpt>
<trkpt lat="40.0728419" lon="-105.2305749">
  <ele>1586.13</ele>
  <time>2026-08-27T18:28:46Z</time>
  <course>7.06</course>
  <speed>0.01414213562373095</speed>
  <fix>3d</fix>
</trkpt>
<trkpt lat="40.072842" lon="-105.230575">
  <ele>1586.09</ele>
  <time>2026-08-27T18:28:46Z</time>
  <course>262.79</course>
  <speed>0.0</speed>
  <fix>3d</fix>
</trkpt>
<trkpt lat="39.654938" lon="-104.1331666">
  <ele>1569.54</ele>
  <time>2026-08-27T18:28:47Z</time>
  <course>136.77</course>
  <speed>0.0</speed>
  <fix>3d</fix>
</trkpt>
<trkpt lat="40.072842" lon="-105.230575">
  <ele>1586.09</ele>
  <time>2026-08-27T18:28:47Z</time>
  <course>2.03</course>
  <speed>0.0</speed>
  <fix>3d</fix>
</trkpt>
<trkpt lat="40.072842" lon="-105.230575">
  <ele>1586.09</ele>
  <time>2026-08-27T18:28:47Z</time>
  <course>131.16</course>
  <speed>0.0</speed>
  <fix>3d</fix>
</trkpt>
<trkpt lat="40.072842" lon="-105.230575">
  <ele>1586.09</ele>
  <time>2026-08-27T18:28:47Z</time>
  <course>2.4</course>
  <speed>0.0</speed>
  <fix>3d</fix>
</trkpt>
<trkpt lat="40.072842" lon="-105.230575">
  <ele>1586.09</ele>
  <time>2026-08-27T18:28:47Z</time>
  <course>324.33</course>
  <speed>0.0</speed>
  <fix>3d</fix>
</trkpt>
<trkpt lat="40.072842" lon="-105.230575">
  <ele>1586.09</ele>
  <time>2026-08-27T18:28:47Z</time>
  <course>3.13</course>
  <speed>0.0</speed>
  <fix>3d</fix>
</trkpt>
<trkpt lat="40.072842" lon="-105.230575">
  <ele>1586.09</ele>
  <time>2026-08-27T18:28:47Z</time>
  <course>251.04</course>
  <speed>0.0</speed>
  <fix>3d</fix>
</trkpt>
<trkpt lat="40.072842" lon="-105.230575">
  <ele>1586.09</ele>
  <time>2026-08-27T18:28:47Z</time>
  <course>3.82</course>
  <speed>0.0</speed>
  <fix>3d</fix>
</trkpt>
<trkpt lat="40.072842" lon="-105.230575">
  <ele>1586.09</ele>
  <time>2026-08-27T18:28:47Z</time>
  <course>181.72</course>
  <speed>0.0</speed>
  <fix>3d</fix>
</trkpt>
<trkpt lat="40.072842" lon="-105.230575">
  <ele>1586.09</ele>
  <time>2026-08-27T18:28:47Z</time>
  <course>4.45</course>
  <speed>0.0</speed>
  <fix>3d</fix>
</trkpt>
<trkpt lat="40.072842" lon="-105.230575">
  <ele>1586.09</ele>
  <time>2026-08-27T18:28:47Z</time>
  <course>195.59</course>
  <speed>0.0</speed>
  <fix>3d</fix>
</trkpt>
<trkpt lat="40.072842" lon="-105.230575">
  <ele>1586.09</ele>
  <time>2026-08-27T18:28:47Z</time>
  <course>5.03</course>
  <speed>0.0</speed>
  <fix>3d</fix>
</trkpt>
<trkpt lat="40.072842" lon="-105.230575">
  <ele>1586.09</ele>
  <time>2026-08-27T18:28:47Z</time>
  <course>205.97</course>
  <speed>0.0</speed>
  <fix>3d</fix>
</trkpt>
<trkpt lat="40.072842" lon="-105.230575">
  <ele>1586.09</ele>
  <time>2026-08-27T18:28:47Z</time>
  <course>5.6</course>
  <speed>0.0</speed>
  <fix>3d</fix>
</trkpt>
<trkpt lat="40.072842" lon="-105.230575">
  <ele>1586.09</ele>
  <time>2026-08-27T18:28:47Z</time>
  <course>201.58</course>
  <speed>0.0</speed>
  <fix>3d</fix>
</trkpt>
<trkpt lat="40.072842" lon="-105.230575">
  <ele>1586.09</ele>
  <time>2026-08-27T18:28:47Z</time>
  <course>6.13</course>
  <speed>0.0</speed>
  <fix>3d</fix>
</trkpt>
<trkpt lat="40.072842" lon="-105.230575">
  <ele>1586.09</ele>
  <time>2026-08-27T18:28:47Z</time>
  <course>200.75</course>
  <speed>0.0</speed>
  <fix>3d</fix>
</trkpt>
<trkpt lat="40.072842" lon="-105.230575">
  <ele>1586.09</ele>
  <time>2026-08-27T18:28:47Z</time>
  <course>6.62</course>
  <speed>0.0</speed>
  <fix>3d</fix>
</trkpt>
<trkpt lat="40.072842" lon="-105.230575">
  <ele>1586.09</ele>
  <time>2026-08-27T18:28:47Z</time>
  <course>201.41</course>
  <speed>0.0</speed>
  <fix>3d</fix>
</trkpt>
<trkpt lat="40.072842" lon="-105.230575">
  <ele>1586.09</ele>
  <time>2026-08-27T18:28:47Z</time>
  <course>7.08</course>
  <speed>0.0</speed>
  <fix>3d</fix>
</trkpt>
<trkpt lat="40.072842" lon="-105.230575">
  <ele>1586.09</ele>
  <time>2026-08-27T18:28:47Z</time>
  <course>201.44</course>
  <speed>0.0</speed>
  <fix>3d</fix>
</trkpt>
<trkpt lat="40.072842" lon="-105.230575">
  <ele>1586.09</ele>
  <time>2026-08-27T18:28:47Z</time>
  <course>7.51</course>
  <speed>0.0</speed>
  <fix>3d</fix>
</trkpt>
<trkpt lat="40.072842" lon="-105.230575">
  <ele>1586.09</ele>
  <time>2026-08-27T18:28:47Z</time>
  <course>201.35</course>
  <speed>0.0</speed>
  <fix>3d</fix>
</trkpt>
<trkpt lat="40.072842" lon="-105.230575">
  <ele>1586.09</ele>
  <time>2026-08-27T18:28:47Z</time>
  <course>7.91</course>
  <speed>0.0</speed>
  <fix>3d</fix>
</trkpt>
<trkpt lat="40.072842" lon="-105.230575">
  <ele>1586.09</ele>
  <time>2026-08-27T18:28:47Z</time>
  <course>201.36</course>
  <speed>0.0</speed>
  <fix>3d</fix>
</trkpt>
<trkpt lat="40.072842" lon="-105.230575">
  <ele>1586.09</ele>
  <time>2026-08-27T18:28:47Z</time>
  <course>8.27</course>
  <speed>0.0</speed>
  <fix>3d</fix>
</trkpt>
<trkpt lat="40.072842" lon="-105.230575">
  <ele>1586.09</ele>
  <time>2026-08-27T18:28:47Z</time>
  <course>201.37</course>
  <speed>0.0</speed>
  <fix>3d</fix>
</trkpt>
<trkpt lat="40.072842" lon="-105.230575">
  <ele>1586.09</ele>
  <time>2026-08-27T18:28:47Z</time>
  <course>8.61</course>
  <speed>0.0</speed>
  <fix>3d</fix>
</trkpt>
<trkpt lat="40.072842" lon="-105.230575">
  <ele>1586.09</ele>
  <time>2026-08-27T18:28:47Z</time>
  <course>201.37</course>
  <speed>0.0</speed>
  <fix>3d</fix>
</trkpt>
<trkpt lat="40.072842" lon="-105.230575">
  <ele>1586.09</ele>
  <time>2026-08-27T18:28:47Z</time>
  <course>8.92</course>
  <speed>0.0</speed>
  <fix>3d</fix>
</trkpt>
<trkpt lat="40.072842" lon="-105.230575">
  <ele>1586.09</ele>
  <time>2026-08-27T18:28:47Z</time>
  <course>334.26</course>
  <speed>0.0</speed>
  <fix>3d</fix>
</trkpt>
<trkpt lat="40.072842" lon="-105.230575">
  <ele>1586.09</ele>
  <time>2026-08-27T18:28:47Z</time>
  <course>9.21</course>
  <speed>0.0</speed>
  <fix>3d</fix>
</trkpt>
<trkpt lat="40.072842" lon="-105.230575">
  <ele>1586.09</ele>
  <time>2026-08-27T18:28:47Z</time>
  <course>324.75</course>
  <speed>0.0</speed>
  <fix>3d</fix>
</trkpt>
<trkpt lat="40.072842" lon="-105.230575">
  <ele>1586.09</ele>
  <time>2026-08-27T18:28:47Z</time>
  <course>9.48</course>
  <speed>0.0</speed>
  <fix>3d</fix>
</trkpt>
<trkpt lat="40.072842" lon="-105.230575">
  <ele>1586.09</ele>
  <time>2026-08-27T18:28:47Z</time>
  <course>233.13</course>
  <speed>0.0</speed>
  <fix>3d</fix>
</trkpt>
<trkpt lat="40.072842" lon="-105.230575">
  <ele>1586.09</ele>
  <time>2026-08-27T18:28:47Z</time>
  <course>9.72</course>
  <speed>0.0</speed>
  <fix>3d</fix>
</trkpt>
<trkpt lat="40.072842" lon="-105.230575">
  <ele>1586.09</ele>
  <time>2026-08-27T18:28:47Z</time>
  <course>143.2</course>
  <speed>0.0</speed>
  <fix>3d</fix>
</trkpt>
<trkpt lat="40.072842" lon="-105.230575">
  <ele>1586.09</ele>
  <time>2026-08-27T18:28:47Z</time>
  <course>9.95</course>
  <speed>0.0</speed>
  <fix>3d</fix>
</trkpt>
<trkpt lat="40.072842" lon="-105.230575">
  <ele>1586.09</ele>
  <time>2026-08-27T18:28:47Z</time>
  <course>316.26</course>
  <speed>0.0</speed>
  <fix>3d</fix>
</trkpt>
<trkpt lat="40.072842" lon="-105.230575">
  <ele>1586.09</ele>
  <time>2026-08-27T18:28:47Z</time>
  <course>10.15</course>
  <speed>0.0</speed>
  <fix>3d</fix>
</trkpt>
<trkpt lat="40.072842" lon="-105.230575">
  <ele>1586.09</ele>
  <time>2026-08-27T18:28:47Z</time>
  <course>283.76</course>
  <speed>0.0</speed>
  <fix>3d</fix>
</trkpt>
<trkpt lat="40.072842" lon="-105.230575">
  <ele>1586.09</ele>
  <time>2026-08-27T18:28:47Z</time>
  <course>10.34</course>
  <speed>0.0</speed>
  <fix>3d</fix>
</trkpt>
<trkpt lat="40.072842" lon="-105.230575">
  <ele>1586.09</ele>
  <time>2026-08-27T18:28:47Z</time>
  <course>254.2</course>
  <speed>0.0</speed>
  <fix>3d</fix>
</trkpt>
<trkpt lat="40.072842" lon="-105.230575">
  <ele>1586.09</ele>
  <time>2026-08-27T18:28:47Z</time>
  <course>10.51</course>
  <speed>0.0</speed>
  <fix>3d</fix>
</trkpt>
<trkpt lat="40.072842" lon="-105.230575">
  <ele>1586.09</ele>
  <time>2026-08-27T18:28:47Z</time>
  <course>263.41</course>
  <speed>0.0</speed>
  <fix>3d</fix>
</trkpt>
<trkpt lat="40.072842" lon="-105.230575">
  <ele>1586.09</ele>
  <time>2026-08-27T18:28:47Z</time>
  <course>10.67</course>
  <speed>0.0</speed>
  <fix>3d</fix>
</trkpt>
<trkpt lat="40.072842" lon="-105.230575">
  <ele>1586.09</ele>
  <time>2026-08-27T18:28:47Z</time>
  <course>267.83</course>
  <speed>0.0</speed>
  <fix>3d</fix>
</trkpt>
<trkpt lat="40.072842" lon="-105.230575">
  <ele>1586.09</ele>
  <time>2026-08-27T18:28:47Z</time>
  <course>10.81</course>
  <speed>0.0</speed>
  <fix>3d</fix>
</trkpt>
<trkpt lat="40.072842" lon="-105.230575">
  <ele>1586.09</ele>
  <time>2026-08-27T18:28:47Z</time>
  <course>266.14</course>
  <speed>0.0</speed>
  <fix>3d</fix>
</trkpt>
<trkpt lat="40.072842" lon="-105.230575">
  <ele>1586.09</ele>
  <time>2026-08-27T18:28:47Z</time>
  <course>10.94</course>
  <speed>0.0</speed>
  <fix>3d</fix>
</trkpt>
<trkpt lat="40.072842" lon="-105.230575">
  <ele>1586.09</ele>
  <time>2026-08-27T18:28:47Z</time>
  <course>265.77</course>
  <speed>0.0</speed>
  <fix>3d</fix>
</trkpt>
<trkpt lat="40.072842" lon="-105.230575">
  <ele>1586.09</ele>
  <time>2026-08-27T18:28:47Z</time>
  <course>11.06</course>
  <speed>0.0</speed>
  <fix>3d</fix>
</trkpt>
<trkpt lat="40.072842" lon="-105.230575">
  <ele>1586.09</ele>
  <time>2026-08-27T18:28:47Z</time>
  <course>266.05</course>
  <speed>0.0</speed>
  <fix>3d</fix>
</trkpt>
<trkpt lat="40.072842" lon="-105.230575">
  <ele>1586.09</ele>
  <time>2026-08-27T18:28:47Z</time>
  <course>11.18</course>
  <speed>0.0</speed>
  <fix>3d</fix>
</trkpt>
<trkpt lat="40.072842" lon="-105.230575">
  <ele>1586.09</ele>
  <time>2026-08-27T18:28:47Z</time>
  <course>266.07</course>
  <speed>0.0</speed>
  <fix>3d</fix>
</trkpt>
<trkpt lat="40.072842" lon="-105.230575">
  <ele>1586.09</ele>
  <time>2026-08-27T18:28:47Z</time>
  <course>11.28</course>
  <speed>0.0</speed>
  <fix>3d</fix>
</trkpt>
<trkpt lat="40.072842" lon="-105.230575">
  <ele>1586.09</ele>
  <time>2026-08-27T18:28:47Z</time>
  <course>266.03</course>
  <speed>0.0</speed>
  <fix>3d</fix>
</trkpt>
<trkpt lat="40.072842" lon="-105.230575">
  <ele>1586.09</ele>
  <time>2026-08-27T18:28:47Z</time>
  <course>11.37</course>
  <speed>0.0</speed>
  <fix>3d</fix>
</trkpt>
<trkpt lat="40.072842" lon="-105.230575">
  <ele>1586.09</ele>
  <time>2026-08-27T18:28:47Z</time>
  <course>266.03</course>
  <speed>0.0</speed>
  <fix>3d</fix>
</trkpt>
<trkpt lat="40.072842" lon="-105.230575">
  <ele>1586.09</ele>
  <time>2026-08-27T18:28:47Z</time>
  <course>11.45</course>
  <speed>0.0</speed>
  <fix>3d</fix>
</trkpt>
<trkpt lat="40.072842" lon="-105.230575">
  <ele>1586.09</ele>
  <time>2026-08-27T18:28:47Z</time>
  <course>266.04</course>
  <speed>0.0</speed>
  <fix>3d</fix>
</trkpt>
<trkpt lat="40.072842" lon="-105.230575">
  <ele>1586.09</ele>
  <time>2026-08-27T18:28:47Z</time>
  <course>11.52</course>
  <speed>0.0</speed>
  <fix>3d</fix>
</trkpt>
<trkpt lat="40.072842" lon="-105.230575">
  <ele>1586.09</ele>
  <time>2026-08-27T18:28:47Z</time>
  <course>266.03</course>
  <speed>0.0</speed>
  <fix>3d</fix>
</trkpt>
<trkpt lat="40.072842" lon="-105.230575">
  <ele>1586.09</ele>
  <time>2026-08-27T18:28:47Z</time>
  <course>11.59</course>
  <speed>0.0</speed>
  <fix>3d</fix>
</trkpt>
<trkpt lat="40.072842" lon="-105.230575">
  <ele>1586.09</ele>
  <time>2026-08-27T18:28:47Z</time>
  <course>266.03</course>
  <speed>0.0</speed>
  <fix>3d</fix>
</trkpt>
<trkpt lat="40.072842" lon="-105.230575">
  <ele>1586.09</ele>
  <time>2026-08-27T18:28:47Z</time>
  <course>11.65</course>
  <speed>0.0</speed>
  <fix>3d</fix>
</trkpt>
<trkpt lat="40.072842" lon="-105.230575">
  <ele>1586.09</ele>
  <time>2026-08-27T18:28:47Z</time>
  <course>266.03</course>
  <speed>0.0</speed>
  <fix>3d</fix>
</trkpt>
<trkpt lat="40.072842" lon="-105.230575">
  <ele>1586.09</ele>
  <time>2026-08-27T18:28:47Z</time>
  <course>11.71</course>
  <speed>0.0</speed>
  <fix>3d</fix>
</trkpt>
<trkpt lat="40.072842" lon="-105.230575">
  <ele>1586.09</ele>
  <time>2026-08-27T18:28:47Z</time>
  <course>266.03</course>
  <speed>0.0</speed>
  <fix>3d</fix>
</trkpt>
<trkpt lat="40.072842" lon="-105.230575">
  <ele>1586.09</ele>
  <time>2026-08-27T18:28:47Z</time>
  <course>11.76</course>
  <speed>0.0</speed>
  <fix>3d</fix>
</trkpt>
<trkpt lat="40.072842" lon="-105.230575">
  <ele>1586.09</ele>
  <time>2026-08-27T18:28:47Z</time>
  <course>266.03</course>
  <speed>0.0</speed>
  <fix>3d</fix>
</trkpt>
<trkpt lat="40.072842" lon="-105.230575">
  <ele>1586.09</ele>
  <time>2026-08-27T18:28:47Z</time>
  <course>11.81</course>
  <speed>0.0</speed>
  <fix>3d</fix>
</trkpt>
<trkpt lat="40.072842" lon="-105.230575">
  <ele>1586.09</ele>
  <time>2026-08-27T18:28:47Z</time>
  <course>266.03</course>
  <speed>0.0</speed>
  <fix>3d</fix>
</trkpt>
<trkpt lat="40.072842" lon="-105.230575">
  <ele>1586.09</ele>
  <time>2026-08-27T18:28:47Z</time>
  <course>11.85</course>
  <speed>0.0</speed>
  <fix>3d</fix>
</trkpt>
<trkpt lat="40.072842" lon="-105.230575">
  <ele>1586.09</ele>
  <time>2026-08-27T18:28:47Z</time>
  <course>266.03</course>
  <speed>0.0</speed>
  <fix>3d</fix>
</trkpt>
<trkpt lat="40.072842" lon="-105.230575">
  <ele>1586.09</ele>
  <time>2026-08-27T18:28:47Z</time>
  <course>11.88</course>
  <speed>0.0</speed>
  <fix>3d</fix>
</trkpt>
<trkpt lat="40.072842" lon="-105.230575">
  <ele>1586.09</ele>
  <time>2026-08-27T18:28:47Z</time>
  <course>266.03</course>
  <speed>0.0</speed>
  <fix>3d</fix>
</trkpt>
<trkpt lat="40.072842" lon="-105.230575">
  <ele>1586.09</ele>
  <time>2026-08-27T18:28:47Z</time>
  <course>11.92</course>
  <speed>0.0</speed>
  <fix>3d</fix>
</trkpt>
<trkpt lat="40.072842" lon="-105.230575">
  <ele>1586.09</ele>
  <time>2026-08-27T18:28:47Z</time>
  <course>266.03</course>
  <speed>0.0</speed>
  <fix>3d</fix>
</trkpt>
<trkpt lat="40.072842" lon="-105.230575">
  <ele>1586.09</ele>
  <time>2026-08-27T18:28:47Z</time>
  <course>11.95</course>
  <speed>0.0</speed>
  <fix>3d</fix>
</trkpt>
<trkpt lat="40.072842" lon="-105.230575">
  <ele>1586.09</ele>
  <time>2026-08-27T18:28:47Z</time>
  <course>266.03</course>
  <speed>0.0</speed>
  <fix>3d</fix>
</trkpt>
<trkpt lat="40.072842" lon="-105.230575">
  <ele>1586.09</ele>
  <time>2026-08-27T18:28:47Z</time>
  <course>11.97</course>
  <speed>0.0</speed>
  <fix>3d</fix>
</trkpt>
<trkpt lat="40.072842" lon="-105.230575">
  <ele>1586.09</ele>
  <time>2026-08-27T18:28:47Z</time>
  <course>266.03</course>
  <speed>0.0</speed>
  <fix>3d</fix>
</trkpt>
<trkpt lat="40.072842" lon="-105.230575">
  <ele>1586.09</ele>
  <time>2026-08-27T18:28:47Z</time>
  <course>12.0</course>
  <speed>0.0</speed>
  <fix>3d</fix>
</trkpt>
<trkpt lat="40.072842" lon="-105.230575">
  <ele>1586.09</ele>
  <time>2026-08-27T18:28:47Z</time>
  <course>266.03</course>
  <speed>0.0</speed>
  <fix>3d</fix>
</trkpt>
<trkpt lat="40.072842" lon="-105.230575">
  <ele>1586.09</ele>
  <time>2026-08-27T18:28:47Z</time>
  <course>12.02</course>
  <speed>0.0</speed>
  <fix>3d</fix>
</trkpt>
<trkpt lat="40.072842" lon="-105.230575">
  <ele>1586.09</ele>
  <time>2026-08-27T18:28:47Z</time>
  <course>266.03</course>
  <speed>0.0</speed>
  <fix>3d</fix>
</trkpt>
<trkpt lat="40.072842" lon="-105.230575">
  <ele>1586.09</ele>
  <time>2026-08-27T18:28:47Z</time>
  <course>12.03</course>
  <speed>0.0</speed>
  <fix>3d</fix>
</trkpt>
<trkpt lat="40.072842" lon="-105.230575">
  <ele>1586.09</ele>
  <time>2026-08-27T18:28:47Z</time>
  <course>266.03</course>
  <speed>0.0</speed>
  <fix>3d</fix>
</trkpt>
<trkpt lat="40.072842" lon="-105.230575">
  <ele>1586.09</ele>
  <time>2026-08-27T18:28:47Z</time>
  <course>12.05</course>
  <speed>0.0</speed>
  <fix>3d</fix>
</trkpt>
<trkpt lat="40.072842" lon="-105.230575">
  <ele>1586.09</ele>
  <time>2026-08-27T18:28:47Z</time>
  <course>266.03</course>
  <speed>0.0</speed>
  <fix>3d</fix>
</trkpt>
<trkpt lat="40.072842" lon="-105.230575">
  <ele>1586.09</ele>
  <time>2026-08-27T18:28:47Z</time>
  <course>12.07</course>
  <speed>0.0</speed>
  <fix>3d</fix>
</trkpt>
<trkpt lat="40.072842" lon="-105.230575">
  <ele>1586.09</ele>
  <time>2026-08-27T18:28:47Z</time>
  <course>266.03</course>
  <speed>0.0</speed>
  <fix>3d</fix>
</trkpt>
<trkpt lat="40.072842" lon="-105.230575">
  <ele>1586.09</ele>
  <time>2026-08-27T18:28:47Z</time>
  <course>12.08</course>
  <speed>0.0</speed>
  <fix>3d</fix>
</trkpt>
<trkpt lat="40.072842" lon="-105.230575">
  <ele>1586.09</ele>
  <time>2026-08-27T18:28:47Z</time>
  <course>266.03</course>
  <speed>0.0</speed>
  <fix>3d</fix>
</trkpt>
<trkpt lat="40.072842" lon="-105.230575">
  <ele>1586.09</ele>
  <time>2026-08-27T18:28:47Z</time>
  <course>12.09</course>
  <speed>0.0</speed>
  <fix>3d</fix>
</trkpt>
<trkpt lat="40.072842" lon="-105.230575">
  <ele>1586.09</ele>
  <time>2026-08-27T18:28:47Z</time>
  <course>266.03</course>
  <speed>0.0</speed>
  <fix>3d</fix>
</trkpt>
<trkpt lat="40.072842" lon="-105.230575">
  <ele>1586.09</ele>
  <time>2026-08-27T18:28:47Z</time>
  <course>12.1</course>
  <speed>0.0</speed>
  <fix>3d</fix>
</trkpt>
<trkpt lat="40.072842" lon="-105.230575">
  <ele>1586.09</ele>
  <time>2026-08-27T18:28:47Z</time>
  <course>266.03</course>
  <speed>0.0</speed>
  <fix>3d</fix>
</trkpt>
<trkpt lat="40.072842" lon="-105.230575">
  <ele>1586.09</ele>
  <time>2026-08-27T18:28:47Z</time>
  <course>12.1</course>
  <speed>0.0</speed>
  <fix>3d</fix>
</trkpt>
<trkpt lat="40.072842" lon="-105.230575">
  <ele>1586.09</ele>
  <time>2026-08-27T18:28:47Z</time>
  <course>266.03</course>
  <speed>0.0</speed>
  <fix>3d</fix>
</trkpt>
<trkpt lat="40.072842" lon="-105.230575">
  <ele>1586.09</ele>
  <time>2026-08-27T18:28:47Z</time>
  <course>12.11</course>
  <speed>0.0</speed>
  <fix>3d</fix>
</trkpt>
<trkpt lat="40.072842" lon="-105.230575">
  <ele>1586.09</ele>
  <time>2026-08-27T18:28:47Z</time>
  <course>266.03</course>
  <speed>0.0</speed>
  <fix>3d</fix>
</trkpt>
<trkpt lat="40.072842" lon="-105.230575">
  <ele>1586.09</ele>
  <time>2026-08-27T18:28:47Z</time>
  <course>12.12</course>
  <speed>0.0</speed>
  <fix>3d</fix>
</trkpt>
<trkpt lat="40.072842" lon="-105.230575">
  <ele>1586.09</ele>
  <time>2026-08-27T18:28:47Z</time>
  <course>266.03</course>
  <speed>0.0</speed>
  <fix>3d</fix>
</trkpt>
<trkpt lat="40.072842" lon="-105.230575">
  <ele>1586.09</ele>
  <time>2026-08-27T18:28:47Z</time>
  <course>12.12</course>
  <speed>0.0</speed>
  <fix>3d</fix>
</trkpt>
<trkpt lat="40.072842" lon="-105.230575">
  <ele>1586.09</ele>
  <time>2026-08-27T18:28:47Z</time>
  <course>266.03</course>
  <speed>0.0</speed>
  <fix>3d</fix>
</trkpt>
<trkpt lat="40.072842" lon="-105.230575">
  <ele>1586.09</ele>
  <time>2026-08-27T18:28:47Z</time>
  <course>12.12</course>
  <speed>0.0</speed>
  <fix>3d</fix>
</trkpt>
<trkpt lat="40.072842" lon="-105.230575">
  <ele>1586.09</ele>
  <time>2026-08-27T18:28:47Z</time>
  <course>266.03</course>
  <speed>0.0</speed>
  <fix>3d</fix>
</trkpt>
<trkpt lat="40.072842" lon="-105.230575">
  <ele>1586.09</ele>
  <time>2026-08-27T18:28:47Z</time>
  <course>12.13</course>
  <speed>0.0</speed>
  <fix>3d</fix>
</trkpt>
<trkpt lat="40.072842" lon="-105.230575">
  <ele>1586.09</ele>
  <time>2026-08-27T18:28:47Z</time>
  <course>266.03</course>
  <speed>0.0</speed>
  <fix>3d</fix>
</trkpt>
<trkpt lat="40.072842" lon="-105.230575">
  <ele>1586.09</ele>
  <time>2026-08-27T18:28:47Z</time>
  <course>12.13</course>
  <speed>0.0</speed>
  <fix>3d</fix>
</trkpt>
<trkpt lat="40.072842" lon="-105.230575">
  <ele>1586.09</ele>
  <time>2026-08-27T18:28:47Z</time>
  <course>266.03</course>
  <speed>0.0</speed>
  <fix>3d</fix>
</trkpt>
<trkpt lat="40.072842" lon="-105.230575">
  <ele>1586.09</ele>
  <time>2026-08-27T18:28:47Z</time>
  <course>12.13</course>
  <speed>0.0</speed>
  <fix>3d</fix>
</trkpt>
<trkpt lat="40.072842" lon="-105.230575">
  <ele>1586.09</ele>
  <time>2026-08-27T18:28:47Z</time>
  <course>266.03</course>
  <speed>0.0</speed>
  <fix>3d</fix>
</trkpt>
<trkpt lat="40.072842" lon="-105.230575">
  <ele>1586.09</ele>
  <time>2026-08-27T18:28:47Z</time>
  <course>12.12</course>
  <speed>0.01</speed>
  <fix>3d</fix>
</trkpt>
<trkpt lat="40.072842" lon="-105.230575">
  <ele>1586.09</ele>
  <time>2026-08-27T18:28:47Z</time>
  <course>266.03</course>
  <speed>0.0</speed>
  <fix>3d</fix>
</trkpt>
<trkpt lat="40.072842" lon="-105.230575">
  <ele>1586.09</ele>
  <time>2026-08-27T18:28:47Z</time>
  <course>12.12</course>
  <speed>0.01</speed>
  <fix>3d</fix>
</trkpt>
<trkpt lat="40.072842" lon="-105.230575">
  <ele>1586.09</ele>
  <time>2026-08-27T18:28:47Z</time>
  <course>266.03</course>
  <speed>0.0</speed>
  <fix>3d</fix>
</trkpt>
<trkpt lat="40.072842" lon="-105.230575">
  <ele>1586.09</ele>
  <time>2026-08-27T18:28:47Z</time>
  <course>12.12</course>
  <speed>0.01</speed>
  <fix>3d</fix>
</trkpt>
<trkpt lat="40.072842" lon="-105.230575">
  <ele>1586.09</ele>
  <time>2026-08-27T18:28:47Z</time>
  <course>266.03</course>
  <speed>0.0</speed>
  <fix>3d</fix>
</trkpt>
<trkpt lat="40.072842" lon="-105.230575">
  <ele>1586.09</ele>
  <time>2026-08-27T18:28:47Z</time>
  <course>12.12</course>
  <speed>0.01</speed>
  <fix>3d</fix>
</trkpt>
<trkpt lat="40.072842" lon="-105.230575">
  <ele>1586.09</ele>
  <time>2026-08-27T18:28:47Z</time>
  <course>266.03</course>
  <speed>0.0</speed>
  <fix>3d</fix>
</trkpt>
<trkpt lat="40.072842" lon="-105.230575">
  <ele>1586.09</ele>
  <time>2026-08-27T18:28:47Z</time>
  <course>12.11</course>
  <speed>0.01</speed>
  <fix>3d</fix>
</trkpt>
<trkpt lat="40.072842" lon="-105.230575">
  <ele>1586.09</ele>
  <time>2026-08-27T18:28:47Z</time>
  <course>266.03</course>
  <speed>0.0</speed>
  <fix>3d</fix>
</trkpt>
<trkpt lat="40.072842" lon="-105.230575">
  <ele>1586.09</ele>
  <time>2026-08-27T18:28:47Z</time>
  <course>12.11</course>
  <speed>0.01</speed>
  <fix>3d</fix>
</trkpt>
<trkpt lat="40.072842" lon="-105.230575">
  <ele>1586.09</ele>
  <time>2026-08-27T18:28:47Z</time>
  <course>266.03</course>
  <speed>0.0</speed>
  <fix>3d</fix>
</trkpt>
<trkpt lat="40.072842" lon="-105.230575">
  <ele>1586.09</ele>
  <time>2026-08-27T18:28:47Z</time>
  <course>12.1</course>
  <speed>0.01</speed>
  <fix>3d</fix>
</trkpt>
<trkpt lat="40.072842" lon="-105.230575">
  <ele>1586.09</ele>
  <time>2026-08-27T18:28:47Z</time>
  <course>266.03</course>
  <speed>0.0</speed>
  <fix>3d</fix>
</trkpt>
<trkpt lat="40.072842" lon="-105.230575">
  <ele>1586.09</ele>
  <time>2026-08-27T18:28:47Z</time>
  <course>12.1</course>
  <speed>0.01</speed>
  <fix>3d</fix>
</trkpt>
<trkpt lat="40.072842" lon="-105.230575">
  <ele>1586.09</ele>
  <time>2026-08-27T18:28:47Z</time>
  <course>266.03</course>
  <speed>0.0</speed>
  <fix>3d</fix>
</trkpt>
<trkpt lat="40.072842" lon="-105.230575">
  <ele>1586.09</ele>
  <time>2026-08-27T18:28:47Z</time>
  <course>12.09</course>
  <speed>0.01</speed>
  <fix>3d</fix>
</trkpt>
<trkpt lat="40.072842" lon="-105.230575">
  <ele>1586.09</ele>
  <time>2026-08-27T18:28:47Z</time>
  <course>266.03</course>
  <speed>0.0</speed>
  <fix>3d</fix>
</trkpt>
<trkpt lat="40.072842" lon="-105.230575">
  <ele>1586.09</ele>
  <time>2026-08-27T18:28:47Z</time>
  <course>12.09</course>
  <speed>0.01</speed>
  <fix>3d</fix>
</trkpt>
<trkpt lat="40.072842" lon="-105.230575">
  <ele>1586.09</ele>
  <time>2026-08-27T18:28:47Z</time>
  <course>266.03</course>
  <speed>0.0</speed>
  <fix>3d</fix>
</trkpt>
<trkpt lat="40.072842" lon="-105.230575">
  <ele>1586.09</ele>
  <time>2026-08-27T18:28:47Z</time>
  <course>12.08</course>
  <speed>0.01</speed>
  <fix>3d</fix>
</trkpt>
<trkpt lat="40.072842" lon="-105.230575">
  <ele>1586.09</ele>
  <time>2026-08-27T18:28:47Z</time>
  <course>266.03</course>
  <speed>0.0</speed>
  <fix>3d</fix>
</trkpt>
<trkpt lat="40.072842" lon="-105.230575">
  <ele>1586.09</ele>
  <time>2026-08-27T18:28:47Z</time>
  <course>12.08</course>
  <speed>0.01414213562373095</speed>
  <fix>3d</fix>
</trkpt>
<trkpt lat="40.072842" lon="-105.230575">
  <ele>1586.09</ele>
  <time>2026-08-27T18:28:47Z</time>
  <course>266.03</course>
  <speed>0.0</speed>
  <fix>3d</fix>
</trkpt>
<trkpt lat="40.072842" lon="-105.230575">
  <ele>1586.09</ele>
  <time>2026-08-27T18:28:47Z</time>
  <course>12.07</course>
  <speed>0.01414213562373095</speed>
  <fix>3d</fix>
</trkpt>
<trkpt lat="40.072842" lon="-105.230575">
  <ele>1586.09</ele>
  <time>2026-08-27T18:28:47Z</time>
  <course>266.03</course>
  <speed>0.0</speed>
  <fix>3d</fix>
</trkpt>
<trkpt lat="40.072842" lon="-105.230575">
  <ele>1586.09</ele>
  <time>2026-08-27T18:28:47Z</time>
  <course>12.06</course>
  <speed>0.01414213562373095</speed>
  <fix>3d</fix>
</trkpt>
<trkpt lat="40.072842" lon="-105.230575">
  <ele>1586.09</ele>
  <time>2026-08-27T18:28:47Z</time>
  <course>266.03</course>
  <speed>0.0</speed>
  <fix>3d</fix>
</trkpt>
<trkpt lat="40.072842" lon="-105.230575">
  <ele>1586.09</ele>
  <time>2026-08-27T18:28:47Z</time>
  <course>12.05</course>
  <speed>0.01414213562373095</speed>
  <fix>3d</fix>
</trkpt>
<trkpt lat="40.072842" lon="-105.230575">
  <ele>1586.09</ele>
  <time>2026-08-27T18:28:47Z</time>
  <course>266.03</course>
  <speed>0.0</speed>
  <fix>3d</fix>
</trkpt>
<trkpt lat="40.072842" lon="-105.230575">
  <ele>1586.09</ele>
  <time>2026-08-27T18:28:47Z</time>
  <course>12.05</course>
  <speed>0.01414213562373095</speed>
  <fix>3d</fix>
</trkpt>
<trkpt lat="40.072842" lon="-105.230575">
  <ele>1586.09</ele>
  <time>2026-08-27T18:28:47Z</time>
  <course>266.03</course>
  <speed>0.0</speed>
  <fix>3d</fix>
</trkpt>
<trkpt lat="40.072842" lon="-105.230575">
  <ele>1586.09</ele>
  <time>2026-08-27T18:28:47Z</time>
  <course>12.04</course>
  <speed>0.01414213562373095</speed>
  <fix>3d</fix>
</trkpt>
<trkpt lat="40.072842" lon="-105.230575">
  <ele>1586.09</ele>
  <time>2026-08-27T18:28:47Z</time>
  <course>266.03</course>
  <speed>0.0</speed>
  <fix>3d</fix>
</trkpt>
<trkpt lat="40.072842" lon="-105.230575">
  <ele>1586.09</ele>
  <time>2026-08-27T18:28:47Z</time>
  <course>12.03</course>
  <speed>0.01414213562373095</speed>
  <fix>3d</fix>
</trkpt>
<trkpt lat="40.072842" lon="-105.230575">
  <ele>1586.09</ele>
  <time>2026-08-27T18:28:47Z</time>
  <course>266.03</course>
  <speed>0.0</speed>
  <fix>3d</fix>
</trkpt>
<trkpt lat="40.072842" lon="-105.230575">
  <ele>1586.09</ele>
  <time>2026-08-27T18:28:47Z</time>
  <course>12.03</course>
  <speed>0.01414213562373095</speed>
  <fix>3d</fix>
</trkpt>
<trkpt lat="40.072842" lon="-105.230575">
  <ele>1586.09</ele>
  <time>2026-08-27T18:28:47Z</time>
  <course>266.03</course>
  <speed>0.0</speed>
  <fix>3d</fix>
</trkpt>
<trkpt lat="40.072842" lon="-105.230575">
  <ele>1586.09</ele>
  <time>2026-08-27T18:28:47Z</time>
  <course>12.02</course>
  <speed>0.01414213562373095</speed>
  <fix>3d</fix>
</trkpt>
<trkpt lat="40.072842" lon="-105.230575">
  <ele>1586.09</ele>
  <time>2026-08-27T18:28:47Z</time>
  <course>266.03</course>
  <speed>0.0</speed>
  <fix>3d</fix>
</trkpt>
<trkpt lat="40.072842" lon="-105.230575">
  <ele>1586.09</ele>
  <time>2026-08-27T18:28:47Z</time>
  <course>12.01</course>
  <speed>0.01414213562373095</speed>
  <fix>3d</fix>
</trkpt>
<trkpt lat="40.072842" lon="-105.230575">
  <ele>1586.09</ele>
  <time>2026-08-27T18:28:47Z</time>
  <course>266.03</course>
  <speed>0.0</speed>
  <fix>3d</fix>
</trkpt>
<trkpt lat="40.072842" lon="-105.230575">
  <ele>1586.09</ele>
  <time>2026-08-27T18:28:47Z</time>
  <course>12.01</course>
  <speed>0.01414213562373095</speed>
  <fix>3d</fix>
</trkpt>
<trkpt lat="40.072842" lon="-105.230575">
  <ele>1586.09</ele>
  <time>2026-08-27T18:28:47Z</time>
  <course>266.03</course>
  <speed>0.0</speed>
  <fix>3d</fix>
</trkpt>
<trkpt lat="40.072842" lon="-105.230575">
  <ele>1586.09</ele>
  <time>2026-08-27T18:28:47Z</time>
  <course>12.0</course>
  <speed>0.01414213562373095</speed>
  <fix>3d</fix>
</trkpt>
<trkpt lat="40.072842" lon="-105.230575">
  <ele>1586.09</ele>
  <time>2026-08-27T18:28:47Z</time>
  <course>266.03</course>
  <speed>0.0</speed>
  <fix>3d</fix>
</trkpt>
<trkpt lat="40.072842" lon="-105.230575">
  <ele>1586.09</ele>
  <time>2026-08-27T18:28:47Z</time>
  <course>11.99</course>
  <speed>0.01414213562373095</speed>
  <fix>3d</fix>
</trkpt>
<trkpt lat="40.072842" lon="-105.230575">
  <ele>1586.09</ele>
  <time>2026-08-27T18:28:47Z</time>
  <course>266.03</course>
  <speed>0.0</speed>
  <fix>3d</fix>
</trkpt>
<trkpt lat="40.072842" lon="-105.230575">
  <ele>1586.09</ele>
  <time>2026-08-27T18:28:47Z</time>
  <course>11.98</course>
  <speed>0.01414213562373095</speed>
  <fix>3d</fix>
</trkpt>
<trkpt lat="40.072842" lon="-105.230575">
  <ele>1586.09</ele>
  <time>2026-08-27T18:28:47Z</time>
  <course>266.03</course>
  <speed>0.0</speed>
  <fix>3d</fix>
</trkpt>
<trkpt lat="40.072842" lon="-105.230575">
  <ele>1586.09</ele>
  <time>2026-08-27T18:28:47Z</time>
  <course>11.98</course>
  <speed>0.01414213562373095</speed>
  <fix>3d</fix>
</trkpt>
<trkpt lat="40.072842" lon="-105.230575">
  <ele>1586.09</ele>
  <time>2026-08-27T18:28:47Z</time>
  <course>266.03</course>
  <speed>0.0</speed>
  <fix>3d</fix>
</trkpt>
<trkpt lat="40.072842" lon="-105.230575">
  <ele>1586.09</ele>
  <time>2026-08-27T18:28:47Z</time>
  <course>11.97</course>
  <speed>0.022360679774997897</speed>
  <fix>3d</fix>
</trkpt>
<trkpt lat="40.072842" lon="-105.230575">
  <ele>1586.09</ele>
  <time>2026-08-27T18:28:47Z</time>
  <course>266.03</course>
  <speed>0.0</speed>
  <fix>3d</fix>
</trkpt>
<trkpt lat="40.072842" lon="-105.230575">
  <ele>1586.09</ele>
  <time>2026-08-27T18:28:47Z</time>
  <course>11.96</course>
  <speed>0.022360679774997897</speed>
  <fix>3d</fix>
</trkpt>
<trkpt lat="40.072842" lon="-105.230575">
  <ele>1586.09</ele>
  <time>2026-08-27T18:28:47Z</time>
  <course>266.03</course>
  <speed>0.0</speed>
  <fix>3d</fix>
</trkpt>
<trkpt lat="40.072842" lon="-105.230575">
  <ele>1586.09</ele>
  <time>2026-08-27T18:28:47Z</time>
  <course>11.95</course>
  <speed>0.022360679774997897</speed>
  <fix>3d</fix>
</trkpt>
<trkpt lat="40.072842" lon="-105.230575">
  <ele>1586.09</ele>
  <time>2026-08-27T18:28:47Z</time>
  <course>266.03</course>
  <speed>0.0</speed>
  <fix>3d</fix>
</trkpt>
<trkpt lat="40.072842" lon="-105.230575">
  <ele>1586.09</ele>
  <time>2026-08-27T18:28:47Z</time>
  <course>11.94</course>
  <speed>0.022360679774997897</speed>
  <fix>3d</fix>
</trkpt>
<trkpt lat="40.072842" lon="-105.230575">
  <ele>1586.09</ele>
  <time>2026-08-27T18:28:47Z</time>
  <course>266.03</course>
  <speed>0.0</speed>
  <fix>3d</fix>
</trkpt>
<trkpt lat="40.072842" lon="-105.230575">
  <ele>1586.09</ele>
  <time>2026-08-27T18:28:47Z</time>
  <course>11.93</course>
  <speed>0.022360679774997897</speed>
  <fix>3d</fix>
</trkpt>
<trkpt lat="40.072842" lon="-105.230575">
  <ele>1586.09</ele>
  <time>2026-08-27T18:28:47Z</time>
  <course>266.03</course>
  <speed>0.0</speed>
  <fix>3d</fix>
</trkpt>
<trkpt lat="40.072842" lon="-105.230575">
  <ele>1586.09</ele>
  <time>2026-08-27T18:28:47Z</time>
  <course>11.92</course>
  <speed>0.022360679774997897</speed>
  <fix>3d</fix>
</trkpt>
<trkpt lat="40.072842" lon="-105.230575">
  <ele>1586.09</ele>
  <time>2026-08-27T18:28:47Z</time>
  <course>266.03</course>
  <speed>0.0</speed>
  <fix>3d</fix>
</trkpt>
<trkpt lat="40.072842" lon="-105.230575">
  <ele>1586.09</ele>
  <time>2026-08-27T18:28:47Z</time>
  <course>11.92</course>
  <speed>0.022360679774997897</speed>
  <fix>3d</fix>
</trkpt>
<trkpt lat="40.072842" lon="-105.230575">
  <ele>1586.09</ele>
  <time>2026-08-27T18:28:47Z</time>
  <course>266.03</course>
  <speed>0.0</speed>
  <fix>3d</fix>
</trkpt>
<trkpt lat="40.072842" lon="-105.230575">
  <ele>1586.09</ele>
  <time>2026-08-27T18:28:47Z</time>
  <course>11.91</course>
  <speed>0.022360679774997897</speed>
  <fix>3d</fix>
</trkpt>
<trkpt lat="40.072842" lon="-105.230575">
  <ele>1586.09</ele>
  <time>2026-08-27T18:28:47Z</time>
  <course>266.03</course>
  <speed>0.0</speed>
  <fix>3d</fix>
</trkpt>
<trkpt lat="40.072842" lon="-105.230575">
  <ele>1586.09</ele>
  <time>2026-08-27T18:28:47Z</time>
  <course>11.9</course>
  <speed>0.022360679774997897</speed>
  <fix>3d</fix>
</trkpt>
<trkpt lat="40.072842" lon="-105.230575">
  <ele>1586.09</ele>
  <time>2026-08-27T18:28:47Z</time>
  <course>266.03</course>
  <speed>0.0</speed>
  <fix>3d</fix>
</trkpt>
<trkpt lat="40.072842" lon="-105.230575">
  <ele>1586.09</ele>
  <time>2026-08-27T18:28:47Z</time>
  <course>11.89</course>
  <speed>0.022360679774997897</speed>
  <fix>3d</fix>
</trkpt>
<trkpt lat="40.072842" lon="-105.230575">
  <ele>1586.09</ele>
  <time>2026-08-27T18:28:47Z</time>
  <course>266.03</course>
  <speed>0.0</speed>
  <fix>3d</fix>
</trkpt>
<trkpt lat="40.072842" lon="-105.230575">
  <ele>1586.09</ele>
  <time>2026-08-27T18:28:47Z</time>
  <course>11.88</course>
  <speed>0.022360679774997897</speed>
  <fix>3d</fix>
</trkpt>
<trkpt lat="40.072842" lon="-105.230575">
  <ele>1586.09</ele>
  <time>2026-08-27T18:28:47Z</time>
  <course>266.03</course>
  <speed>0.0</speed>
  <fix>3d</fix>
</trkpt>
<trkpt lat="40.072842" lon="-105.230575">
  <ele>1586.09</ele>
  <time>2026-08-27T18:28:47Z</time>
  <course>11.88</course>
  <speed>0.022360679774997897</speed>
  <fix>3d</fix>
</trkpt>
<trkpt lat="40.072842" lon="-105.230575">
  <ele>1586.09</ele>
  <time>2026-08-27T18:28:47Z</time>
  <course>266.03</course>
  <speed>0.0</speed>
  <fix>3d</fix>
</trkpt>
<trkpt lat="40.072842" lon="-105.230575">
  <ele>1586.09</ele>
  <time>2026-08-27T18:28:47Z</time>
  <course>11.87</course>
  <speed>0.022360679774997897</speed>
  <fix>3d</fix>
</trkpt>
<trkpt lat="40.072842" lon="-105.230575">
  <ele>1586.09</ele>
  <time>2026-08-27T18:28:47Z</time>
  <course>266.03</course>
  <speed>0.0</speed>
  <fix>3d</fix>
</trkpt>
<trkpt lat="40.072842" lon="-105.230575">
  <ele>1586.09</ele>
  <time>2026-08-27T18:28:47Z</time>
  <course>11.86</course>
  <speed>0.022360679774997897</speed>
  <fix>3d</fix>
</trkpt>
<trkpt lat="40.072842" lon="-105.230575">
  <ele>1586.09</ele>
  <time>2026-08-27T18:28:47Z</time>
  <course>266.03</course>
  <speed>0.0</speed>
  <fix>3d</fix>
</trkpt>
<trkpt lat="40.072842" lon="-105.230575">
  <ele>1586.09</ele>
  <time>2026-08-27T18:28:47Z</time>
  <course>11.85</course>
  <speed>0.022360679774997897</speed>
  <fix>3d</fix>
</trkpt>
<trkpt lat="40.072842" lon="-105.230575">
  <ele>1586.09</ele>
  <time>2026-08-27T18:28:47Z</time>
  <course>266.03</course>
  <speed>0.0</speed>
  <fix>3d</fix>
</trkpt>
<trkpt lat="40.072842" lon="-105.230575">
  <ele>1586.09</ele>
  <time>2026-08-27T18:28:47Z</time>
  <course>11.84</course>
  <speed>0.0282842712474619</speed>
  <fix>3d</fix>
</trkpt>
<trkpt lat="40.072842" lon="-105.230575">
  <ele>1586.09</ele>
  <time>2026-08-27T18:28:47Z</time>
  <course>266.03</course>
  <speed>0.0</speed>
  <fix>3d</fix>
</trkpt>
<trkpt lat="40.072842" lon="-105.230575">
  <ele>1586.09</ele>
  <time>2026-08-27T18:28:47Z</time>
  <course>11.83</course>
  <speed>0.0282842712474619</speed>
  <fix>3d</fix>
</trkpt>
<trkpt lat="40.072842" lon="-105.230575">
  <ele>1586.09</ele>
  <time>2026-08-27T18:28:47Z</time>
  <course>266.03</course>
  <speed>0.0</speed>
  <fix>3d</fix>
</trkpt>
<trkpt lat="40.072842" lon="-105.230575">
  <ele>1586.09</ele>
  <time>2026-08-27T18:28:47Z</time>
  <course>11.83</course>
  <speed>0.0282842712474619</speed>
  <fix>3d</fix>
</trkpt>
<trkpt lat="40.072842" lon="-105.230575">
  <ele>1586.09</ele>
  <time>2026-08-27T18:28:47Z</time>
  <course>266.03</course>
  <speed>0.0</speed>
  <fix>3d</fix>
</trkpt>
<trkpt lat="40.072842" lon="-105.230575">
  <ele>1586.09</ele>
  <time>2026-08-27T18:28:47Z</time>
  <course>11.82</course>
  <speed>0.0282842712474619</speed>
  <fix>3d</fix>
</trkpt>
<trkpt lat="40.072842" lon="-105.230575">
  <ele>1586.09</ele>
  <time>2026-08-27T18:28:47Z</time>
  <course>266.03</course>
  <speed>0.0</speed>
  <fix>3d</fix>
</trkpt>
<trkpt lat="40.072842" lon="-105.230575">
  <ele>1586.09</ele>
  <time>2026-08-27T18:28:47Z</time>
  <course>11.81</course>
  <speed>0.0282842712474619</speed>
  <fix>3d</fix>
</trkpt>
<trkpt lat="40.072842" lon="-105.230575">
  <ele>1586.09</ele>
  <time>2026-08-27T18:28:47Z</time>
  <course>266.03</course>
  <speed>0.0</speed>
  <fix>3d</fix>
</trkpt>
<trkpt lat="40.072842" lon="-105.230575">
  <ele>1586.09</ele>
  <time>2026-08-27T18:28:47Z</time>
  <course>11.8</course>
  <speed>0.0282842712474619</speed>
  <fix>3d</fix>
</trkpt>
<trkpt lat="40.072842" lon="-105.230575">
  <ele>1586.09</ele>
  <time>2026-08-27T18:28:47Z</time>
  <course>266.03</course>
  <speed>0.0</speed>
  <fix>3d</fix>
</trkpt>
<trkpt lat="40.072842" lon="-105.230575">
  <ele>1586.09</ele>
  <time>2026-08-27T18:28:47Z</time>
  <course>11.79</course>
  <speed>0.0282842712474619</speed>
  <fix>3d</fix>
</trkpt>
<trkpt lat="40.072842" lon="-105.230575">
  <ele>1586.09</ele>
  <time>2026-08-27T18:28:47Z</time>
  <course>266.03</course>
  <speed>0.0</speed>
  <fix>3d</fix>
</trkpt>
<trkpt lat="40.072842" lon="-105.230575">
  <ele>1586.09</ele>
  <time>2026-08-27T18:28:47Z</time>
  <course>11.79</course>
  <speed>0.0282842712474619</speed>
  <fix>3d</fix>
</trkpt>
<trkpt lat="40.072842" lon="-105.230575">
  <ele>1586.09</ele>
  <time>2026-08-27T18:28:47Z</time>
  <course>266.03</course>
  <speed>0.0</speed>
  <fix>3d</fix>
</trkpt>
<trkpt lat="40.072842" lon="-105.230575">
  <ele>1586.09</ele>
  <time>2026-08-27T18:28:47Z</time>
  <course>11.78</course>
  <speed>0.0282842712474619</speed>
  <fix>3d</fix>
</trkpt>
<trkpt lat="40.072842" lon="-105.230575">
  <ele>1586.09</ele>
  <time>2026-08-27T18:28:47Z</time>
  <course>266.03</course>
  <speed>0.0</speed>
  <fix>3d</fix>
</trkpt>
<trkpt lat="40.072842" lon="-105.230575">
  <ele>1586.09</ele>
  <time>2026-08-27T18:28:47Z</time>
  <course>11.77</course>
  <speed>0.0282842712474619</speed>
  <fix>3d</fix>
</trkpt>
<trkpt lat="40.072842" lon="-105.230575">
  <ele>1586.09</ele>
  <time>2026-08-27T18:28:47Z</time>
  <course>266.03</course>
  <speed>0.0</speed>
  <fix>3d</fix>
</trkpt>
<trkpt lat="40.072842" lon="-105.230575">
  <ele>1586.09</ele>
  <time>2026-08-27T18:28:47Z</time>
  <course>11.77</course>
  <speed>0.0282842712474619</speed>
  <fix>3d</fix>
</trkpt>
<trkpt lat="40.072842" lon="-105.230575">
  <ele>1586.09</ele>
  <time>2026-08-27T18:28:47Z</time>
  <course>266.03</course>
  <speed>0.0</speed>
  <fix>3d</fix>
</trkpt>
<trkpt lat="40.072842" lon="-105.230575">
  <ele>1586.09</ele>
  <time>2026-08-27T18:28:48Z</time>
  <course>11.76</course>
  <speed>0.0282842712474619</speed>
  <fix>3d</fix>
</trkpt>
<trkpt lat="40.072842" lon="-105.230575">
  <ele>1586.09</ele>
  <time>2026-08-27T18:28:48Z</time>
  <course>266.03</course>
  <speed>0.0</speed>
  <fix>3d</fix>
</trkpt>
<trkpt lat="40.072842" lon="-105.230575">
  <ele>1586.09</ele>
  <time>2026-08-27T18:28:48Z</time>
  <course>11.75</course>
  <speed>0.0282842712474619</speed>
  <fix>3d</fix>
</trkpt>
<trkpt lat="40.072842" lon="-105.230575">
  <ele>1586.09</ele>
  <time>2026-08-27T18:28:48Z</time>
  <course>266.03</course>
  <speed>0.0</speed>
  <fix>3d</fix>
</trkpt>
<trkpt lat="40.072842" lon="-105.230575">
  <ele>1586.09</ele>
  <time>2026-08-27T18:28:48Z</time>
  <course>11.74</course>
  <speed>0.03605551275463989</speed>
  <fix>3d</fix>
</trkpt>
<trkpt lat="40.072842" lon="-105.230575">
  <ele>1586.09</ele>
  <time>2026-08-27T18:28:48Z</time>
  <course>266.03</course>
  <speed>0.0</speed>
  <fix>3d</fix>
</trkpt>
<trkpt lat="40.072842" lon="-105.230575">
  <ele>1586.09</ele>
  <time>2026-08-27T18:28:48Z</time>
  <course>11.73</course>
  <speed>0.03605551275463989</speed>
  <fix>3d</fix>
</trkpt>
<trkpt lat="40.072842" lon="-105.230575">
  <ele>1586.09</ele>
  <time>2026-08-27T18:28:48Z</time>
  <course>266.03</course>
  <speed>0.0</speed>
  <fix>3d</fix>
</trkpt>
<trkpt lat="40.072842" lon="-105.230575">
  <ele>1586.09</ele>
  <time>2026-08-27T18:28:48Z</time>
  <course>11.73</course>
  <speed>0.03605551275463989</speed>
  <fix>3d</fix>
</trkpt>
<trkpt lat="40.072842" lon="-105.230575">
  <ele>1586.09</ele>
  <time>2026-08-27T18:28:48Z</time>
  <course>266.03</course>
  <speed>0.0</speed>
  <fix>3d</fix>
</trkpt>
<trkpt lat="40.072842" lon="-105.230575">
  <ele>1586.09</ele>
  <time>2026-08-27T18:28:48Z</time>
  <course>11.72</course>
  <speed>0.03605551275463989</speed>
  <fix>3d</fix>
</trkpt>
<trkpt lat="40.072842" lon="-105.230575">
  <ele>1586.09</ele>
  <time>2026-08-27T18:28:48Z</time>
  <course>266.03</course>
  <speed>0.0</speed>
  <fix>3d</fix>
</trkpt>
<trkpt lat="40.072842" lon="-105.230575">
  <ele>1586.09</ele>
  <time>2026-08-27T18:28:48Z</time>
  <course>11.71</course>
  <speed>0.03605551275463989</speed>
  <fix>3d</fix>
</trkpt>
<trkpt lat="40.072842" lon="-105.230575">
  <ele>1586.09</ele>
  <time>2026-08-27T18:28:48Z</time>
  <course>266.03</course>
  <speed>0.0</speed>
  <fix>3d</fix>
</trkpt>
<trkpt lat="40.072842" lon="-105.230575">
  <ele>1586.09</ele>
  <time>2026-08-27T18:28:48Z</time>
  <course>11.71</course>
  <speed>0.03605551275463989</speed>
  <fix>3d</fix>
</trkpt>
<trkpt lat="40.072842" lon="-105.230575">
  <ele>1586.09</ele>
  <time>2026-08-27T18:28:48Z</time>
  <course>266.03</course>
  <speed>0.0</speed>
  <fix>3d</fix>
</trkpt>
<trkpt lat="40.072842" lon="-105.230575">
  <ele>1586.09</ele>
  <time>2026-08-27T18:28:48Z</time>
  <course>11.7</course>
  <speed>0.03605551275463989</speed>
  <fix>3d</fix>
</trkpt>
<trkpt lat="40.072842" lon="-105.230575">
  <ele>1586.09</ele>
  <time>2026-08-27T18:28:48Z</time>
  <course>266.03</course>
  <speed>0.0</speed>
  <fix>3d</fix>
</trkpt>
<trkpt lat="40.072842" lon="-105.230575">
  <ele>1586.09</ele>
  <time>2026-08-27T18:28:48Z</time>
  <course>11.69</course>
  <speed>0.03605551275463989</speed>
  <fix>3d</fix>
</trkpt>
<trkpt lat="40.072842" lon="-105.230575">
  <ele>1586.09</ele>
  <time>2026-08-27T18:28:48Z</time>
  <course>266.03</course>
  <speed>0.0</speed>
  <fix>3d</fix>
</trkpt>
<trkpt lat="40.072842" lon="-105.230575">
  <ele>1586.09</ele>
  <time>2026-08-27T18:28:48Z</time>
  <course>11.68</course>
  <speed>0.03605551275463989</speed>
  <fix>3d</fix>
</trkpt>
<trkpt lat="40.072842" lon="-105.230575">
  <ele>1586.09</ele>
  <time>2026-08-27T18:28:48Z</time>
  <course>266.03</course>
  <speed>0.0</speed>
  <fix>3d</fix>
</trkpt>
<trkpt lat="40.072842" lon="-105.230575">
  <ele>1586.09</ele>
  <time>2026-08-27T18:28:48Z</time>
  <course>11.68</course>
  <speed>0.03605551275463989</speed>
  <fix>3d</fix>
</trkpt>
<trkpt lat="40.072842" lon="-105.230575">
  <ele>1586.09</ele>
  <time>2026-08-27T18:28:48Z</time>
  <course>266.03</course>
  <speed>0.0</speed>
  <fix>3d</fix>
</trkpt>
<trkpt lat="40.072842" lon="-105.230575">
  <ele>1586.09</ele>
  <time>2026-08-27T18:28:48Z</time>
  <course>11.67</course>
  <speed>0.03605551275463989</speed>
  <fix>3d</fix>
</trkpt>
<trkpt lat="40.072842" lon="-105.230575">
  <ele>1586.09</ele>
  <time>2026-08-27T18:28:48Z</time>
  <course>266.03</course>
  <speed>0.0</speed>
  <fix>3d</fix>
</trkpt>
<trkpt lat="40.072842" lon="-105.230575">
  <ele>1586.09</ele>
  <time>2026-08-27T18:28:48Z</time>
  <course>11.66</course>
  <speed>0.03605551275463989</speed>
  <fix>3d</fix>
</trkpt>
<trkpt lat="40.072842" lon="-105.230575">
  <ele>1586.09</ele>
  <time>2026-08-27T18:28:48Z</time>
  <course>266.03</course>
  <speed>0.0</speed>
  <fix>3d</fix>
</trkpt>
<trkpt lat="40.072842" lon="-105.230575">
  <ele>1586.09</ele>
  <time>2026-08-27T18:28:48Z</time>
  <course>11.65</course>
  <speed>0.03605551275463989</speed>
  <fix>3d</fix>
</trkpt>
<trkpt lat="40.072842" lon="-105.230575">
  <ele>1586.09</ele>
  <time>2026-08-27T18:28:48Z</time>
  <course>266.03</course>
  <speed>0.0</speed>
  <fix>3d</fix>
</trkpt>
<trkpt lat="40.072842" lon="-105.230575">
  <ele>1586.09</ele>
  <time>2026-08-27T18:28:48Z</time>
  <course>11.65</course>
  <speed>0.03605551275463989</speed>
  <fix>3d</fix>
</trkpt>
<trkpt lat="40.072842" lon="-105.230575">
  <ele>1586.09</ele>
  <time>2026-08-27T18:28:48Z</time>
  <course>266.03</course>
  <speed>0.0</speed>
  <fix>3d</fix>
</trkpt>
<trkpt lat="40.072842" lon="-105.230575">
  <ele>1586.09</ele>
  <time>2026-08-27T18:28:48Z</time>
  <course>11.64</course>
  <speed>0.03605551275463989</speed>
  <fix>3d</fix>
</trkpt>
<trkpt lat="40.072842" lon="-105.230575">
  <ele>1586.09</ele>
  <time>2026-08-27T18:28:48Z</time>
  <course>266.03</course>
  <speed>0.0</speed>
  <fix>3d</fix>
</trkpt>
<trkpt lat="40.072842" lon="-105.230575">
  <ele>1586.09</ele>
  <time>2026-08-27T18:28:48Z</time>
  <course>11.63</course>
  <speed>0.03605551275463989</speed>
  <fix>3d</fix>
</trkpt>
<trkpt lat="40.072842" lon="-105.230575">
  <ele>1586.09</ele>
  <time>2026-08-27T18:28:48Z</time>
  <course>266.03</course>
  <speed>0.0</speed>
  <fix>3d</fix>
</trkpt>
<trkpt lat="40.072842" lon="-105.230575">
  <ele>1586.09</ele>
  <time>2026-08-27T18:28:48Z</time>
  <course>11.63</course>
  <speed>0.03605551275463989</speed>
  <fix>3d</fix>
</trkpt>
<trkpt lat="40.072842" lon="-105.230575">
  <ele>1586.09</ele>
  <time>2026-08-27T18:28:48Z</time>
  <course>266.03</course>
  <speed>0.0</speed>
  <fix>3d</fix>
</trkpt>
<trkpt lat="40.072842" lon="-105.230575">
  <ele>1586.09</ele>
  <time>2026-08-27T18:28:48Z</time>
  <course>11.62</course>
  <speed>0.03605551275463989</speed>
  <fix>3d</fix>
</trkpt>
<trkpt lat="40.072842" lon="-105.230575">
  <ele>1586.09</ele>
  <time>2026-08-27T18:28:48Z</time>
  <course>266.03</course>
  <speed>0.0</speed>
  <fix>3d</fix>
</trkpt>
<trkpt lat="40.072842" lon="-105.230575">
  <ele>1586.09</ele>
  <time>2026-08-27T18:28:48Z</time>
  <course>11.61</course>
  <speed>0.03605551275463989</speed>
  <fix>3d</fix>
</trkpt>
<trkpt lat="40.072842" lon="-105.230575">
  <ele>1586.09</ele>
  <time>2026-08-27T18:28:48Z</time>
  <course>266.03</course>
  <speed>0.0</speed>
  <fix>3d</fix>
</trkpt>
<trkpt lat="40.072842" lon="-105.230575">
  <ele>1586.09</ele>
  <time>2026-08-27T18:28:48Z</time>
  <course>11.61</course>
  <speed>0.03605551275463989</speed>
  <fix>3d</fix>
</trkpt>
<trkpt lat="40.072842" lon="-105.230575">
  <ele>1586.09</ele>
  <time>2026-08-27T18:28:48Z</time>
  <course>266.03</course>
  <speed>0.0</speed>
  <fix>3d</fix>
</trkpt>
<trkpt lat="40.072842" lon="-105.230575">
  <ele>1586.09</ele>
  <time>2026-08-27T18:28:48Z</time>
  <course>11.6</course>
  <speed>0.03605551275463989</speed>
  <fix>3d</fix>
</trkpt>
<trkpt lat="40.072842" lon="-105.230575">
  <ele>1586.09</ele>
  <time>2026-08-27T18:28:48Z</time>
  <course>266.03</course>
  <speed>0.0</speed>
  <fix>3d</fix>
</trkpt>
<trkpt lat="40.072842" lon="-105.230575">
  <ele>1586.09</ele>
  <time>2026-08-27T18:28:48Z</time>
  <course>11.6</course>
  <speed>0.03605551275463989</speed>
  <fix>3d</fix>
</trkpt>
<trkpt lat="40.072842" lon="-105.230575">
  <ele>1586.09</ele>
  <time>2026-08-27T18:28:48Z</time>
  <course>266.03</course>
  <speed>0.0</speed>
  <fix>3d</fix>
</trkpt>
<trkpt lat="40.072842" lon="-105.230575">
  <ele>1586.09</ele>
  <time>2026-08-27T18:28:48Z</time>
  <course>11.59</course>
  <speed>0.03605551275463989</speed>
  <fix>3d</fix>
</trkpt>
<trkpt lat="40.072842" lon="-105.230575">
  <ele>1586.09</ele>
  <time>2026-08-27T18:28:48Z</time>
  <course>266.03</course>
  <speed>0.0</speed>
  <fix>3d</fix>
</trkpt>
<trkpt lat="40.072842" lon="-105.230575">
  <ele>1586.09</ele>
  <time>2026-08-27T18:28:48Z</time>
  <course>11.58</course>
  <speed>0.03605551275463989</speed>
  <fix>3d</fix>
</trkpt>
<trkpt lat="40.072842" lon="-105.230575">
  <ele>1586.09</ele>
  <time>2026-08-27T18:28:48Z</time>
  <course>266.03</course>
  <speed>0.0</speed>
  <fix>3d</fix>
</trkpt>
<trkpt lat="40.072842" lon="-105.230575">
  <ele>1586.09</ele>
  <time>2026-08-27T18:28:48Z</time>
  <course>11.58</course>
  <speed>0.03605551275463989</speed>
  <fix>3d</fix>
</trkpt>
<trkpt lat="40.072842" lon="-105.230575">
  <ele>1586.09</ele>
  <time>2026-08-27T18:28:48Z</time>
  <course>266.03</course>
  <speed>0.0</speed>
  <fix>3d</fix>
</trkpt>
<trkpt lat="40.072842" lon="-105.230575">
  <ele>1586.09</ele>
  <time>2026-08-27T18:28:48Z</time>
  <course>11.57</course>
  <speed>0.03605551275463989</speed>
  <fix>3d</fix>
</trkpt>
<trkpt lat="40.072842" lon="-105.230575">
  <ele>1586.09</ele>
  <time>2026-08-27T18:28:48Z</time>
  <course>266.03</course>
  <speed>0.0</speed>
  <fix>3d</fix>
</trkpt>
<trkpt lat="40.072842" lon="-105.230575">
  <ele>1586.09</ele>
  <time>2026-08-27T18:28:48Z</time>
  <course>11.56</course>
  <speed>0.03605551275463989</speed>
  <fix>3d</fix>
</trkpt>
<trkpt lat="40.072842" lon="-105.230575">
  <ele>1586.09</ele>
  <time>2026-08-27T18:28:48Z</time>
  <course>266.03</course>
  <speed>0.0</speed>
  <fix>3d</fix>
</trkpt>
<trkpt lat="40.072842" lon="-105.230575">
  <ele>1586.09</ele>
  <time>2026-08-27T18:28:48Z</time>
  <course>11.56</course>
  <speed>0.03605551275463989</speed>
  <fix>3d</fix>
</trkpt>
<trkpt lat="40.072842" lon="-105.230575">
  <ele>1586.09</ele>
  <time>2026-08-27T18:28:48Z</time>
  <course>266.03</course>
  <speed>0.0</speed>
  <fix>3d</fix>
</trkpt>
<trkpt lat="40.072842" lon="-105.230575">
  <ele>1586.09</ele>
  <time>2026-08-27T18:28:48Z</time>
  <course>11.55</course>
  <speed>0.03605551275463989</speed>
  <fix>3d</fix>
</trkpt>
<trkpt lat="40.072842" lon="-105.230575">
  <ele>1586.09</ele>
  <time>2026-08-27T18:28:48Z</time>
  <course>266.03</course>
  <speed>0.0</speed>
  <fix>3d</fix>
</trkpt>
<trkpt lat="40.072842" lon="-105.230575">
  <ele>1586.09</ele>
  <time>2026-08-27T18:28:48Z</time>
  <course>11.55</course>
  <speed>0.03605551275463989</speed>
  <fix>3d</fix>
</trkpt>
<trkpt lat="40.072842" lon="-105.230575">
  <ele>1586.09</ele>
  <time>2026-08-27T18:28:48Z</time>
  <course>266.03</course>
  <speed>0.0</speed>
  <fix>3d</fix>
</trkpt>
<trkpt lat="40.072842" lon="-105.230575">
  <ele>1586.09</ele>
  <time>2026-08-27T18:28:48Z</time>
  <course>11.54</course>
  <speed>0.03605551275463989</speed>
  <fix>3d</fix>
</trkpt>
<trkpt lat="40.072842" lon="-105.230575">
  <ele>1586.09</ele>
  <time>2026-08-27T18:28:48Z</time>
  <course>266.03</course>
  <speed>0.0</speed>
  <fix>3d</fix>
</trkpt>
<trkpt lat="40.072842" lon="-105.230575">
  <ele>1586.09</ele>
  <time>2026-08-27T18:28:48Z</time>
  <course>11.53</course>
  <speed>0.03605551275463989</speed>
  <fix>3d</fix>
</trkpt>
<trkpt lat="40.072842" lon="-105.230575">
  <ele>1586.09</ele>
  <time>2026-08-27T18:28:48Z</time>
  <course>266.03</course>
  <speed>0.0</speed>
  <fix>3d</fix>
</trkpt>
<trkpt lat="40.072842" lon="-105.230575">
  <ele>1586.09</ele>
  <time>2026-08-27T18:28:48Z</time>
  <course>11.53</course>
  <speed>0.03605551275463989</speed>
  <fix>3d</fix>
</trkpt>
<trkpt lat="40.072842" lon="-105.230575">
  <ele>1586.09</ele>
  <time>2026-08-27T18:28:48Z</time>
  <course>266.03</course>
  <speed>0.0</speed>
  <fix>3d</fix>
</trkpt>
<trkpt lat="40.072842" lon="-105.230575">
  <ele>1586.09</ele>
  <time>2026-08-27T18:28:48Z</time>
  <course>11.52</course>
  <speed>0.03605551275463989</speed>
  <fix>3d</fix>
</trkpt>
<trkpt lat="40.072842" lon="-105.230575">
  <ele>1586.09</ele>
  <time>2026-08-27T18:28:48Z</time>
  <course>266.03</course>
  <speed>0.0</speed>
  <fix>3d</fix>
</trkpt>
<trkpt lat="40.072842" lon="-105.230575">
  <ele>1586.09</ele>
  <time>2026-08-27T18:28:48Z</time>
  <course>11.52</course>
  <speed>0.03605551275463989</speed>
  <fix>3d</fix>
</trkpt>
<trkpt lat="40.072842" lon="-105.230575">
  <ele>1586.09</ele>
  <time>2026-08-27T18:28:48Z</time>
  <course>266.03</course>
  <speed>0.0</speed>
  <fix>3d</fix>
</trkpt>
<trkpt lat="40.072842" lon="-105.230575">
  <ele>1586.09</ele>
  <time>2026-08-27T18:28:48Z</time>
  <course>11.51</course>
  <speed>0.03605551275463989</speed>
  <fix>3d</fix>
</trkpt>
<trkpt lat="40.072842" lon="-105.230575">
  <ele>1586.09</ele>
  <time>2026-08-27T18:28:48Z</time>
  <course>266.03</course>
  <speed>0.0</speed>
  <fix>3d</fix>
</trkpt>
<trkpt lat="40.072842" lon="-105.230575">
  <ele>1586.09</ele>
  <time>2026-08-27T18:28:48Z</time>
  <course>11.51</course>
  <speed>0.03605551275463989</speed>
  <fix>3d</fix>
</trkpt>
<trkpt lat="40.072842" lon="-105.230575">
  <ele>1586.09</ele>
  <time>2026-08-27T18:28:48Z</time>
  <course>266.03</course>
  <speed>0.0</speed>
  <fix>3d</fix>
</trkpt>
<trkpt lat="40.072842" lon="-105.230575">
  <ele>1586.09</ele>
  <time>2026-08-27T18:28:48Z</time>
  <course>11.5</course>
  <speed>0.044721359549995794</speed>
  <fix>3d</fix>
</trkpt>
<trkpt lat="40.072842" lon="-105.230575">
  <ele>1586.09</ele>
  <time>2026-08-27T18:28:48Z</time>
  <course>266.03</course>
  <speed>0.0</speed>
  <fix>3d</fix>
</trkpt>
<trkpt lat="40.072842" lon="-105.230575">
  <ele>1586.09</ele>
  <time>2026-08-27T18:28:48Z</time>
  <course>11.49</course>
  <speed>0.044721359549995794</speed>
  <fix>3d</fix>
</trkpt>
<trkpt lat="40.072842" lon="-105.230575">
  <ele>1586.09</ele>
  <time>2026-08-27T18:28:48Z</time>
  <course>266.03</course>
  <speed>0.0</speed>
  <fix>3d</fix>
</trkpt>
<trkpt lat="40.072842" lon="-105.230575">
  <ele>1586.09</ele>
  <time>2026-08-27T18:28:48Z</time>
  <course>11.49</course>
  <speed>0.044721359549995794</speed>
  <fix>3d</fix>
</trkpt>
<trkpt lat="40.072842" lon="-105.230575">
  <ele>1586.09</ele>
  <time>2026-08-27T18:28:48Z</time>
  <course>266.03</course>
  <speed>0.0</speed>
  <fix>3d</fix>
</trkpt>
<trkpt lat="40.072842" lon="-105.230575">
  <ele>1586.09</ele>
  <time>2026-08-27T18:28:48Z</time>
  <course>11.48</course>
  <speed>0.044721359549995794</speed>
  <fix>3d</fix>
</trkpt>
<trkpt lat="40.072842" lon="-105.230575">
  <ele>1586.09</ele>
  <time>2026-08-27T18:28:48Z</time>
  <course>266.03</course>
  <speed>0.0</speed>
  <fix>3d</fix>
</trkpt>
<trkpt lat="40.072842" lon="-105.230575">
  <ele>1586.09</ele>
  <time>2026-08-27T18:28:48Z</time>
  <course>11.48</course>
  <speed>0.044721359549995794</speed>
  <fix>3d</fix>
</trkpt>
<trkpt lat="40.072842" lon="-105.230575">
  <ele>1586.09</ele>
  <time>2026-08-27T18:28:48Z</time>
  <course>266.03</course>
  <speed>0.0</speed>
  <fix>3d</fix>
</trkpt>
<trkpt lat="40.072842" lon="-105.230575">
  <ele>1586.09</ele>
  <time>2026-08-27T18:28:48Z</time>
  <course>11.47</course>
  <speed>0.044721359549995794</speed>
  <fix>3d</fix>
</trkpt>
<trkpt lat="40.072842" lon="-105.230575">
  <ele>1586.09</ele>
  <time>2026-08-27T18:28:48Z</time>
  <course>266.03</course>
  <speed>0.0</speed>
  <fix>3d</fix>
</trkpt>
<trkpt lat="40.072842" lon="-105.230575">
  <ele>1586.09</ele>
  <time>2026-08-27T18:28:48Z</time>
  <course>11.47</course>
  <speed>0.044721359549995794</speed>
  <fix>3d</fix>
</trkpt>
<trkpt lat="40.072842" lon="-105.230575">
  <ele>1586.09</ele>
  <time>2026-08-27T18:28:48Z</time>
  <course>266.03</course>
  <speed>0.0</speed>
  <fix>3d</fix>
</trkpt>
<trkpt lat="40.072842" lon="-105.230575">
  <ele>1586.09</ele>
  <time>2026-08-27T18:28:48Z</time>
  <course>11.47</course>
  <speed>0.044721359549995794</speed>
  <fix>3d</fix>
</trkpt>
<trkpt lat="40.072842" lon="-105.230575">
  <ele>1586.09</ele>
  <time>2026-08-27T18:28:48Z</time>
  <course>266.03</course>
  <speed>0.0</speed>
  <fix>3d</fix>
</trkpt>
<trkpt lat="40.072842" lon="-105.230575">
  <ele>1586.09</ele>
  <time>2026-08-27T18:28:48Z</time>
  <course>11.46</course>
  <speed>0.044721359549995794</speed>
  <fix>3d</fix>
</trkpt>
<trkpt lat="40.072842" lon="-105.230575">
  <ele>1586.09</ele>
  <time>2026-08-27T18:28:48Z</time>
  <course>266.03</course>
  <speed>0.0</speed>
  <fix>3d</fix>
</trkpt>
<trkpt lat="40.072842" lon="-105.230575">
  <ele>1586.16</ele>
  <time>2026-08-27T18:28:48Z</time>
  <course>11.45</course>
  <speed>0.0</speed>
  <fix>3d</fix>
</trkpt>
<trkpt lat="40.072842" lon="-105.230575">
  <ele>1586.09</ele>
  <time>2026-08-27T18:28:48Z</time>
  <course>266.03</course>
  <speed>0.0</speed>
  <fix>3d</fix>
</trkpt>
<trkpt lat="40.072842" lon="-105.230575">
  <ele>1586.16</ele>
  <time>2026-08-27T18:28:48Z</time>
  <course>11.45</course>
  <speed>0.0</speed>
  <fix>3d</fix>
</trkpt>
<trkpt lat="40.072842" lon="-105.230575">
  <ele>1586.09</ele>
  <time>2026-08-27T18:28:48Z</time>
  <course>266.03</course>
  <speed>0.0</speed>
  <fix>3d</fix>
</trkpt>
<trkpt lat="40.072842" lon="-105.230575">
  <ele>1586.16</ele>
  <time>2026-08-27T18:28:48Z</time>
  <course>11.44</course>
  <speed>0.0</speed>
  <fix>3d</fix>
</trkpt>
<trkpt lat="40.072842" lon="-105.230575">
  <ele>1586.09</ele>
  <time>2026-08-27T18:28:48Z</time>
  <course>266.03</course>
  <speed>0.0</speed>
  <fix>3d</fix>
</trkpt>
<trkpt lat="40.072842" lon="-105.230575">
  <ele>1586.16</ele>
  <time>2026-08-27T18:28:48Z</time>
  <course>11.44</course>
  <speed>0.0</speed>
  <fix>3d</fix>
</trkpt>
<trkpt lat="40.072842" lon="-105.230575">
  <ele>1586.09</ele>
  <time>2026-08-27T18:28:48Z</time>
  <course>266.03</course>
  <speed>0.0</speed>
  <fix>3d</fix>
</trkpt>
<trkpt lat="40.072842" lon="-105.230575">
  <ele>1586.17</ele>
  <time>2026-08-27T18:28:48Z</time>
  <course>11.44</course>
  <speed>0.0</speed>
  <fix>3d</fix>
</trkpt>
<trkpt lat="40.072842" lon="-105.230575">
  <ele>1586.09</ele>
  <time>2026-08-27T18:28:48Z</time>
  <course>266.03</course>
  <speed>0.0</speed>
  <fix>3d</fix>
</trkpt>
<trkpt lat="40.072842" lon="-105.230575">
  <ele>1586.17</ele>
  <time>2026-08-27T18:28:48Z</time>
  <course>11.43</course>
  <speed>0.01</speed>
  <fix>3d</fix>
</trkpt>
<trkpt lat="40.072842" lon="-105.230575">
  <ele>1586.09</ele>
  <time>2026-08-27T18:28:48Z</time>
  <course>266.03</course>
  <speed>0.0</speed>
  <fix>3d</fix>
</trkpt>
<trkpt lat="40.072842" lon="-105.230575">
  <ele>1586.17</ele>
  <time>2026-08-27T18:28:48Z</time>
  <course>11.43</course>
  <speed>0.01</speed>
  <fix>3d</fix>
</trkpt>
<trkpt lat="40.072842" lon="-105.230575">
  <ele>1586.09</ele>
  <time>2026-08-27T18:28:48Z</time>
  <course>266.03</course>
  <speed>0.0</speed>
  <fix>3d</fix>
</trkpt>
<trkpt lat="40.072842" lon="-105.230575">
  <ele>1586.17</ele>
  <time>2026-08-27T18:28:48Z</time>
  <course>11.42</course>
  <speed>0.01</speed>
  <fix>3d</fix>
</trkpt>
<trkpt lat="40.072842" lon="-105.230575">
  <ele>1586.09</ele>
  <time>2026-08-27T18:28:48Z</time>
  <course>266.03</course>
  <speed>0.0</speed>
  <fix>3d</fix>
</trkpt>
<trkpt lat="40.072842" lon="-105.230575">
  <ele>1586.17</ele>
  <time>2026-08-27T18:28:48Z</time>
  <course>11.42</course>
  <speed>0.01414213562373095</speed>
  <fix>3d</fix>
</trkpt>
<trkpt lat="40.072842" lon="-105.230575">
  <ele>1586.09</ele>
  <time>2026-08-27T18:28:48Z</time>
  <course>266.03</course>
  <speed>0.0</speed>
  <fix>3d</fix>
</trkpt>
<trkpt lat="40.072842" lon="-105.230575">
  <ele>1586.17</ele>
  <time>2026-08-27T18:28:48Z</time>
  <course>11.42</course>
  <speed>0.01414213562373095</speed>
  <fix>3d</fix>
</trkpt>
<trkpt lat="40.072842" lon="-105.230575">
  <ele>1586.09</ele>
  <time>2026-08-27T18:28:48Z</time>
  <course>266.03</course>
  <speed>0.0</speed>
  <fix>3d</fix>
</trkpt>
<trkpt lat="40.072842" lon="-105.230575">
  <ele>1586.17</ele>
  <time>2026-08-27T18:28:48Z</time>
  <course>11.41</course>
  <speed>0.01414213562373095</speed>
  <fix>3d</fix>
</trkpt>
<trkpt lat="40.072842" lon="-105.230575">
  <ele>1586.09</ele>
  <time>2026-08-27T18:28:48Z</time>
  <course>266.03</course>
  <speed>0.0</speed>
  <fix>3d</fix>
</trkpt>
<trkpt lat="40.072842" lon="-105.230575">
  <ele>1586.17</ele>
  <time>2026-08-27T18:28:48Z</time>
  <course>11.41</course>
  <speed>0.022360679774997897</speed>
  <fix>3d</fix>
</trkpt>
<trkpt lat="40.072842" lon="-105.230575">
  <ele>1586.09</ele>
  <time>2026-08-27T18:28:48Z</time>
  <course>266.03</course>
  <speed>0.0</speed>
  <fix>3d</fix>
</trkpt>
<trkpt lat="40.072842" lon="-105.230575">
  <ele>1586.17</ele>
  <time>2026-08-27T18:28:48Z</time>
  <course>11.4</course>
  <speed>0.022360679774997897</speed>
  <fix>3d</fix>
</trkpt>
<trkpt lat="40.072842" lon="-105.230575">
  <ele>1586.09</ele>
  <time>2026-08-27T18:28:48Z</time>
  <course>199.93</course>
  <speed>0.0</speed>
  <fix>3d</fix>
</trkpt>
<trkpt lat="40.072842" lon="-105.230575">
  <ele>1586.17</ele>
  <time>2026-08-27T18:28:48Z</time>
  <course>11.4</course>
  <speed>0.022360679774997897</speed>
  <fix>3d</fix>
</trkpt>
<trkpt lat="40.072842" lon="-105.230575">
  <ele>1586.09</ele>
  <time>2026-08-27T18:28:48Z</time>
  <course>249.08</course>
  <speed>0.0</speed>
  <fix>3d</fix>
</trkpt>
<trkpt lat="40.072842" lon="-105.230575">
  <ele>1586.17</ele>
  <time>2026-08-27T18:28:48Z</time>
  <course>11.4</course>
  <speed>0.022360679774997897</speed>
  <fix>3d</fix>
</trkpt>
<trkpt lat="40.072842" lon="-105.230575">
  <ele>1586.09</ele>
  <time>2026-08-27T18:28:48Z</time>
  <course>265.94</course>
  <speed>0.0</speed>
  <fix>3d</fix>
</trkpt>
<trkpt lat="40.072842" lon="-105.230575">
  <ele>1586.17</ele>
  <time>2026-08-27T18:28:48Z</time>
  <course>11.39</course>
  <speed>0.01414213562373095</speed>
  <fix>3d</fix>
</trkpt>
<trkpt lat="40.072842" lon="-105.230575">
  <ele>1586.09</ele>
  <time>2026-08-27T18:28:48Z</time>
  <course>261.76</course>
  <speed>0.0</speed>
  <fix>3d</fix>
</trkpt>
<trkpt lat="40.072842" lon="-105.230575">
  <ele>1586.17</ele>
  <time>2026-08-27T18:28:48Z</time>
  <course>11.39</course>
  <speed>0.01414213562373095</speed>
  <fix>3d</fix>
</trkpt>
<trkpt lat="40.072842" lon="-105.230575">
  <ele>1586.09</ele>
  <time>2026-08-27T18:28:48Z</time>
  <course>266.88</course>
  <speed>0.0</speed>
  <fix>3d</fix>
</trkpt>
<trkpt lat="40.072842" lon="-105.230575">
  <ele>1586.17</ele>
  <time>2026-08-27T18:28:48Z</time>
  <course>11.38</course>
  <speed>0.01</speed>
  <fix>3d</fix>
</trkpt>
<trkpt lat="40.072842" lon="-105.230575">
  <ele>1586.09</ele>
  <time>2026-08-27T18:28:48Z</time>
  <course>266.5</course>
  <speed>0.0</speed>
  <fix>3d</fix>
</trkpt>
<trkpt lat="40.072842" lon="-105.230575">
  <ele>1586.17</ele>
  <time>2026-08-27T18:28:48Z</time>
  <course>11.38</course>
  <speed>0.0</speed>
  <fix>3d</fix>
</trkpt>
<trkpt lat="40.072842" lon="-105.230575">
  <ele>1586.09</ele>
  <time>2026-08-27T18:28:48Z</time>
  <course>265.87</course>
  <speed>0.0</speed>
  <fix>3d</fix>
</trkpt>
<trkpt lat="40.072842" lon="-105.230575">
  <ele>1586.17</ele>
  <time>2026-08-27T18:28:48Z</time>
  <course>11.38</course>
  <speed>0.0</speed>
  <fix>3d</fix>
</trkpt>
<trkpt lat="40.072842" lon="-105.230575">
  <ele>1586.09</ele>
  <time>2026-08-27T18:28:48Z</time>
  <course>265.99</course>
  <speed>0.0</speed>
  <fix>3d</fix>
</trkpt>
<trkpt lat="40.072842" lon="-105.230575">
  <ele>1586.17</ele>
  <time>2026-08-27T18:28:48Z</time>
  <course>11.37</course>
  <speed>0.0</speed>
  <fix>3d</fix>
</trkpt>
<trkpt lat="40.072842" lon="-105.230575">
  <ele>1586.09</ele>
  <time>2026-08-27T18:28:48Z</time>
  <course>266.06</course>
  <speed>0.0</speed>
  <fix>3d</fix>
</trkpt>
<trkpt lat="40.072842" lon="-105.230575">
  <ele>1586.17</ele>
  <time>2026-08-27T18:28:48Z</time>
  <course>11.37</course>
  <speed>0.0</speed>
  <fix>3d</fix>
</trkpt>
<trkpt lat="40.072842" lon="-105.230575">
  <ele>1586.09</ele>
  <time>2026-08-27T18:28:48Z</time>
  <course>266.04</course>
  <speed>0.0</speed>
  <fix>3d</fix>
</trkpt>
<trkpt lat="40.072842" lon="-105.230575">
  <ele>1586.17</ele>
  <time>2026-08-27T18:28:48Z</time>
  <course>11.37</course>
  <speed>0.0</speed>
  <fix>3d</fix>
</trkpt>
<trkpt lat="40.072842" lon="-105.230575">
  <ele>1586.09</ele>
  <time>2026-08-27T18:28:48Z</time>
  <course>266.03</course>
  <speed>0.0</speed>
  <fix>3d</fix>
</trkpt>
<trkpt lat="40.072842" lon="-105.230575">
  <ele>1586.17</ele>
  <time>2026-08-27T18:28:48Z</time>
  <course>11.36</course>
  <speed>0.0</speed>
  <fix>3d</fix>
</trkpt>
<trkpt lat="40.072842" lon="-105.230575">
  <ele>1586.09</ele>
  <time>2026-08-27T18:28:48Z</time>
  <course>266.03</course>
  <speed>0.0</speed>
  <fix>3d</fix>
</trkpt>
<trkpt lat="40.072842" lon="-105.230575">
  <ele>1586.17</ele>
  <time>2026-08-27T18:28:48Z</time>
  <course>11.36</course>
  <speed>0.0</speed>
  <fix>3d</fix>
</trkpt>
<trkpt lat="40.072842" lon="-105.230575">
  <ele>1586.09</ele>
  <time>2026-08-27T18:28:48Z</time>
  <course>266.03</course>
  <speed>0.0</speed>
  <fix>3d</fix>
</trkpt>
<trkpt lat="40.072842" lon="-105.230575">
  <ele>1586.17</ele>
  <time>2026-08-27T18:28:48Z</time>
  <course>11.36</course>
  <speed>0.0</speed>
  <fix>3d</fix>
</trkpt>
<trkpt lat="40.072842" lon="-105.230575">
  <ele>1586.09</ele>
  <time>2026-08-27T18:28:48Z</time>
  <course>265.98</course>
  <speed>0.0</speed>
  <fix>3d</fix>
</trkpt>
<trkpt lat="40.072842" lon="-105.230575">
  <ele>1586.17</ele>
  <time>2026-08-27T18:28:48Z</time>
  <course>11.35</course>
  <speed>0.0</speed>
  <fix>3d</fix>
</trkpt>
<trkpt lat="40.072842" lon="-105.230575">
  <ele>1586.09</ele>
  <time>2026-08-27T18:28:48Z</time>
  <course>265.88</course>
  <speed>0.0</speed>
  <fix>3d</fix>
</trkpt>
<trkpt lat="40.072842" lon="-105.230575">
  <ele>1586.16</ele>
  <time>2026-08-27T18:28:48Z</time>
  <course>11.34</course>
  <speed>0.0</speed>
  <fix>3d</fix>
</trkpt>
<trkpt lat="40.072842" lon="-105.230575">
  <ele>1586.09</ele>
  <time>2026-08-27T18:28:48Z</time>
  <course>265.77</course>
  <speed>0.0</speed>
  <fix>3d</fix>
</trkpt>
<trkpt lat="40.072842" lon="-105.230575">
  <ele>1586.16</ele>
  <time>2026-08-27T18:28:48Z</time>
  <course>11.33</course>
  <speed>0.0</speed>
  <fix>3d</fix>
</trkpt>
<trkpt lat="40.072842" lon="-105.230575">
  <ele>1586.09</ele>
  <time>2026-08-27T18:28:48Z</time>
  <course>265.67</course>
  <speed>0.0</speed>
  <fix>3d</fix>
</trkpt>
<trkpt lat="40.072842" lon="-105.230575">
  <ele>1586.16</ele>
  <time>2026-08-27T18:28:48Z</time>
  <course>11.32</course>
  <speed>0.0</speed>
  <fix>3d</fix>
</trkpt>
<trkpt lat="40.072842" lon="-105.230575">
  <ele>1586.09</ele>
  <time>2026-08-27T18:28:48Z</time>
  <course>271.87</course>
  <speed>0.0</speed>
  <fix>3d</fix>
</trkpt>
<trkpt lat="40.072842" lon="-105.230575">
  <ele>1586.16</ele>
  <time>2026-08-27T18:28:48Z</time>
  <course>11.31</course>
  <speed>0.0</speed>
  <fix>3d</fix>
</trkpt>
<trkpt lat="40.072842" lon="-105.230575">
  <ele>1586.09</ele>
  <time>2026-08-27T18:28:48Z</time>
  <course>263.64</course>
  <speed>0.0</speed>
  <fix>3d</fix>
</trkpt>
<trkpt lat="40.072842" lon="-105.230575">
  <ele>1586.16</ele>
  <time>2026-08-27T18:28:48Z</time>
  <course>11.3</course>
  <speed>0.0</speed>
  <fix>3d</fix>
</trkpt>
<trkpt lat="40.072842" lon="-105.230575">
  <ele>1586.09</ele>
  <time>2026-08-27T18:28:48Z</time>
  <course>167.11</course>
  <speed>0.0</speed>
  <fix>3d</fix>
</trkpt>
<trkpt lat="40.072842" lon="-105.230575">
  <ele>1586.16</ele>
  <time>2026-08-27T18:28:48Z</time>
  <course>11.29</course>
  <speed>0.0</speed>
  <fix>3d</fix>
</trkpt>
<trkpt lat="40.072842" lon="-105.230575">
  <ele>1586.09</ele>
  <time>2026-08-27T18:28:48Z</time>
  <course>64.34</course>
  <speed>0.0</speed>
  <fix>3d</fix>
</trkpt>
<trkpt lat="40.072842" lon="-105.230575">
  <ele>1586.16</ele>
  <time>2026-08-27T18:28:48Z</time>
  <course>11.27</course>
  <speed>0.0</speed>
  <fix>3d</fix>
</trkpt>
<trkpt lat="40.072842" lon="-105.230575">
  <ele>1586.09</ele>
  <time>2026-08-27T18:28:48Z</time>
  <course>274.88</course>
  <speed>0.0</speed>
  <fix>3d</fix>
</trkpt>
<trkpt lat="40.072842" lon="-105.230575">
  <ele>1586.16</ele>
  <time>2026-08-27T18:28:48Z</time>
  <course>11.25</course>
  <speed>0.0</speed>
  <fix>3d</fix>
</trkpt>
<trkpt lat="40.072842" lon="-105.230575">
  <ele>1586.09</ele>
  <time>2026-08-27T18:28:48Z</time>
  <course>260.44</course>
  <speed>0.0</speed>
  <fix>3d</fix>
</trkpt>
<trkpt lat="40.072842" lon="-105.230575">
  <ele>1586.16</ele>
  <time>2026-08-27T18:28:48Z</time>
  <course>11.23</course>
  <speed>0.0</speed>
  <fix>3d</fix>
</trkpt>
<trkpt lat="40.072842" lon="-105.230575">
  <ele>1586.09</ele>
  <time>2026-08-27T18:28:48Z</time>
  <course>263.53</course>
  <speed>0.0</speed>
  <fix>3d</fix>
</trkpt>
<trkpt lat="40.072842" lon="-105.230575">
  <ele>1586.16</ele>
  <time>2026-08-27T18:28:48Z</time>
  <course>11.21</course>
  <speed>0.0</speed>
  <fix>3d</fix>
</trkpt>
<trkpt lat="40.072842" lon="-105.230575">
  <ele>1586.09</ele>
  <time>2026-08-27T18:28:48Z</time>
  <course>265.76</course>
  <speed>0.0</speed>
  <fix>3d</fix>
</trkpt>
<trkpt lat="40.072842" lon="-105.230575">
  <ele>1586.16</ele>
  <time>2026-08-27T18:28:48Z</time>
  <course>11.19</course>
  <speed>0.0</speed>
  <fix>3d</fix>
</trkpt>
<trkpt lat="40.072842" lon="-105.230575">
  <ele>1586.09</ele>
  <time>2026-08-27T18:28:48Z</time>
  <course>265.99</course>
  <speed>0.0</speed>
  <fix>3d</fix>
</trkpt>
<trkpt lat="40.072842" lon="-105.230575">
  <ele>1586.16</ele>
  <time>2026-08-27T18:28:48Z</time>
  <course>11.17</course>
  <speed>0.0</speed>
  <fix>3d</fix>
</trkpt>
<trkpt lat="40.072842" lon="-105.230575">
  <ele>1586.09</ele>
  <time>2026-08-27T18:28:48Z</time>
  <course>269.21</course>
  <speed>0.0</speed>
  <fix>3d</fix>
</trkpt>
<trkpt lat="40.072842" lon="-105.230575">
  <ele>1586.16</ele>
  <time>2026-08-27T18:28:48Z</time>
  <course>11.14</course>
  <speed>0.0</speed>
  <fix>3d</fix>
</trkpt>
<trkpt lat="40.072842" lon="-105.230575">
  <ele>1586.09</ele>
  <time>2026-08-27T18:28:48Z</time>
  <course>269.25</course>
  <speed>0.0</speed>
  <fix>3d</fix>
</trkpt>
<trkpt lat="40.072842" lon="-105.230575">
  <ele>1586.16</ele>
  <time>2026-08-27T18:28:48Z</time>
  <course>11.12</course>
  <speed>0.0</speed>
  <fix>3d</fix>
</trkpt>
<trkpt lat="40.072842" lon="-105.230575">
  <ele>1586.09</ele>
  <time>2026-08-27T18:28:48Z</time>
  <course>267.96</course>
  <speed>0.0</speed>
  <fix>3d</fix>
</trkpt>
<trkpt lat="40.072842" lon="-105.230575">
  <ele>1586.16</ele>
  <time>2026-08-27T18:28:48Z</time>
  <course>11.09</course>
  <speed>0.01</speed>
  <fix>3d</fix>
</trkpt>
<trkpt lat="40.072842" lon="-105.230575">
  <ele>1586.09</ele>
  <time>2026-08-27T18:28:48Z</time>
  <course>268.16</course>
  <speed>0.0</speed>
  <fix>3d</fix>
</trkpt>
<trkpt lat="40.072842" lon="-105.230575">
  <ele>1586.16</ele>
  <time>2026-08-27T18:28:48Z</time>
  <course>11.06</course>
  <speed>0.01</speed>
  <fix>3d</fix>
</trkpt>
<trkpt lat="40.072842" lon="-105.230575">
  <ele>1586.09</ele>
  <time>2026-08-27T18:28:48Z</time>
  <course>268.4</course>
  <speed>0.0</speed>
  <fix>3d</fix>
</trkpt>
<trkpt lat="40.072842" lon="-105.230575">
  <ele>1586.16</ele>
  <time>2026-08-27T18:28:48Z</time>
  <course>11.03</course>
  <speed>0.01</speed>
  <fix>3d</fix>
</trkpt>
<trkpt lat="40.072842" lon="-105.230575">
  <ele>1586.09</ele>
  <time>2026-08-27T18:28:48Z</time>
  <course>269.39</course>
  <speed>0.0</speed>
  <fix>3d</fix>
</trkpt>
<trkpt lat="40.072842" lon="-105.230575">
  <ele>1586.16</ele>
  <time>2026-08-27T18:28:48Z</time>
  <course>11.0</course>
  <speed>0.01</speed>
  <fix>3d</fix>
</trkpt>
<trkpt lat="40.072842" lon="-105.230575">
  <ele>1586.09</ele>
  <time>2026-08-27T18:28:48Z</time>
  <course>269.43</course>
  <speed>0.0</speed>
  <fix>3d</fix>
</trkpt>
<trkpt lat="40.072842" lon="-105.230575">
  <ele>1586.16</ele>
  <time>2026-08-27T18:28:48Z</time>
  <course>10.97</course>
  <speed>0.01</speed>
  <fix>3d</fix>
</trkpt>
<trkpt lat="40.072842" lon="-105.230575">
  <ele>1586.09</ele>
  <time>2026-08-27T18:28:48Z</time>
  <course>290.21</course>
  <speed>0.0</speed>
  <fix>3d</fix>
</trkpt>
<trkpt lat="40.072842" lon="-105.230575">
  <ele>1586.16</ele>
  <time>2026-08-27T18:28:48Z</time>
  <course>10.93</course>
  <speed>0.01414213562373095</speed>
  <fix>3d</fix>
</trkpt>
<trkpt lat="40.072842" lon="-105.230575">
  <ele>1586.09</ele>
  <time>2026-08-27T18:28:48Z</time>
  <course>312.94</course>
  <speed>0.0</speed>
  <fix>3d</fix>
</trkpt>
<trkpt lat="40.072842" lon="-105.230575">
  <ele>1586.17</ele>
  <time>2026-08-27T18:28:48Z</time>
  <course>10.9</course>
  <speed>0.01414213562373095</speed>
  <fix>3d</fix>
</trkpt>
<trkpt lat="40.072842" lon="-105.230575">
  <ele>1586.09</ele>
  <time>2026-08-27T18:28:48Z</time>
  <course>289.07</course>
  <speed>0.0</speed>
  <fix>3d</fix>
</trkpt>
<trkpt lat="40.072842" lon="-105.230575">
  <ele>1586.17</ele>
  <time>2026-08-27T18:28:48Z</time>
  <course>10.86</course>
  <speed>0.01414213562373095</speed>
  <fix>3d</fix>
</trkpt>
<trkpt lat="40.072842" lon="-105.230575">
  <ele>1586.09</ele>
  <time>2026-08-27T18:28:48Z</time>
  <course>262.63</course>
  <speed>0.0</speed>
  <fix>3d</fix>
</trkpt>
<trkpt lat="40.072842" lon="-105.230575">
  <ele>1586.17</ele>
  <time>2026-08-27T18:28:48Z</time>
  <course>10.82</course>
  <speed>0.01414213562373095</speed>
  <fix>3d</fix>
</trkpt>
<trkpt lat="40.072842" lon="-105.230575">
  <ele>1586.09</ele>
  <time>2026-08-27T18:28:48Z</time>
  <course>269.05</course>
  <speed>0.0</speed>
  <fix>3d</fix>
</trkpt>
<trkpt lat="40.072842" lon="-105.230575">
  <ele>1586.17</ele>
  <time>2026-08-27T18:28:48Z</time>
  <course>10.78</course>
  <speed>0.01414213562373095</speed>
  <fix>3d</fix>
</trkpt>
<trkpt lat="40.072842" lon="-105.230575">
  <ele>1586.09</ele>
  <time>2026-08-27T18:28:48Z</time>
  <course>275.48</course>
  <speed>0.0</speed>
  <fix>3d</fix>
</trkpt>
<trkpt lat="40.0728419" lon="-105.230575">
  <ele>1586.17</ele>
  <time>2026-08-27T18:28:48Z</time>
  <course>10.74</course>
  <speed>0.01414213562373095</speed>
  <fix>3d</fix>
</trkpt>
<trkpt lat="40.072842" lon="-105.230575">
  <ele>1586.09</ele>
  <time>2026-08-27T18:28:48Z</time>
  <course>269.93</course>
  <speed>0.0</speed>
  <fix>3d</fix>
</trkpt>
<trkpt lat="40.0728419" lon="-105.230575">
  <ele>1586.17</ele>
  <time>2026-08-27T18:28:48Z</time>
  <course>10.7</course>
  <speed>0.022360679774997897</speed>
  <fix>3d</fix>
</trkpt>
<trkpt lat="40.072842" lon="-105.230575">
  <ele>1586.09</ele>
  <time>2026-08-27T18:28:48Z</time>
  <course>269.56</course>
  <speed>0.0</speed>
  <fix>3d</fix>
</trkpt>
<trkpt lat="40.0728419" lon="-105.230575">
  <ele>1586.17</ele>
  <time>2026-08-27T18:28:48Z</time>
  <course>10.66</course>
  <speed>0.022360679774997897</speed>
  <fix>3d</fix>
</trkpt>
<trkpt lat="40.072842" lon="-105.230575">
  <ele>1586.09</ele>
  <time>2026-08-27T18:28:48Z</time>
  <course>269.72</course>
  <speed>0.0</speed>
  <fix>3d</fix>
</trkpt>
<trkpt lat="40.0728419" lon="-105.2305749">
  <ele>1586.17</ele>
  <time>2026-08-27T18:28:48Z</time>
  <course>10.61</course>
  <speed>0.022360679774997897</speed>
  <fix>3d</fix>
</trkpt>
<trkpt lat="40.072842" lon="-105.230575">
  <ele>1586.09</ele>
  <time>2026-08-27T18:28:48Z</time>
  <course>270.21</course>
  <speed>0.0</speed>
  <fix>3d</fix>
</trkpt>
<trkpt lat="40.0728419" lon="-105.2305749">
  <ele>1586.17</ele>
  <time>2026-08-27T18:28:48Z</time>
  <course>10.57</course>
  <speed>0.022360679774997897</speed>
  <fix>3d</fix>
</trkpt>
<trkpt lat="40.072842" lon="-105.230575">
  <ele>1586.09</ele>
  <time>2026-08-27T18:28:48Z</time>
  <course>269.4</course>
  <speed>0.0</speed>
  <fix>3d</fix>
</trkpt>
<trkpt lat="40.0728419" lon="-105.2305749">
  <ele>1586.17</ele>
  <time>2026-08-27T18:28:48Z</time>
  <course>10.52</course>
  <speed>0.022360679774997897</speed>
  <fix>3d</fix>
</trkpt>
<trkpt lat="40.072842" lon="-105.230575">
  <ele>1586.09</ele>
  <time>2026-08-27T18:28:48Z</time>
  <course>269.32</course>
  <speed>0.0</speed>
  <fix>3d</fix>
</trkpt>
<trkpt lat="40.0728419" lon="-105.2305749">
  <ele>1586.17</ele>
  <time>2026-08-27T18:28:48Z</time>
  <course>10.47</course>
  <speed>0.022360679774997897</speed>
  <fix>3d</fix>
</trkpt>
<trkpt lat="40.072842" lon="-105.230575">
  <ele>1586.09</ele>
  <time>2026-08-27T18:28:48Z</time>
  <course>269.3</course>
  <speed>0.0</speed>
  <fix>3d</fix>
</trkpt>
<trkpt lat="40.0728419" lon="-105.2305749">
  <ele>1586.17</ele>
  <time>2026-08-27T18:28:48Z</time>
  <course>10.42</course>
  <speed>0.022360679774997897</speed>
  <fix>3d</fix>
</trkpt>
<trkpt lat="40.072842" lon="-105.230575">
  <ele>1586.09</ele>
  <time>2026-08-27T18:28:48Z</time>
  <course>269.12</course>
  <speed>0.0</speed>
  <fix>3d</fix>
</trkpt>
<trkpt lat="40.0728419" lon="-105.2305749">
  <ele>1586.16</ele>
  <time>2026-08-27T18:28:48Z</time>
  <course>10.37</course>
  <speed>0.022360679774997897</speed>
  <fix>3d</fix>
</trkpt>
<trkpt lat="40.072842" lon="-105.230575">
  <ele>1586.09</ele>
  <time>2026-08-27T18:28:48Z</time>
  <course>269.07</course>
  <speed>0.0</speed>
  <fix>3d</fix>
</trkpt>
<trkpt lat="40.0728419" lon="-105.2305749">
  <ele>1586.16</ele>
  <time>2026-08-27T18:28:48Z</time>
  <course>10.32</course>
  <speed>0.022360679774997897</speed>
  <fix>3d</fix>
</trkpt>
<trkpt lat="40.072842" lon="-105.230575">
  <ele>1586.09</ele>
  <time>2026-08-27T18:28:48Z</time>
  <course>268.94</course>
  <speed>0.0</speed>
  <fix>3d</fix>
</trkpt>
<trkpt lat="40.0728419" lon="-105.2305749">
  <ele>1586.16</ele>
  <time>2026-08-27T18:28:48Z</time>
  <course>10.27</course>
  <speed>0.022360679774997897</speed>
  <fix>3d</fix>
</trkpt>
<trkpt lat="40.072842" lon="-105.230575">
  <ele>1586.09</ele>
  <time>2026-08-27T18:28:48Z</time>
  <course>268.83</course>
  <speed>0.0</speed>
  <fix>3d</fix>
</trkpt>
<trkpt lat="40.0728419" lon="-105.2305749">
  <ele>1586.16</ele>
  <time>2026-08-27T18:28:48Z</time>
  <course>10.21</course>
  <speed>0.022360679774997897</speed>
  <fix>3d</fix>
</trkpt>
<trkpt lat="40.072842" lon="-105.230575">
  <ele>1586.09</ele>
  <time>2026-08-27T18:28:48Z</time>
  <course>268.82</course>
  <speed>0.0</speed>
  <fix>3d</fix>
</trkpt>
<trkpt lat="40.0728419" lon="-105.2305749">
  <ele>1586.16</ele>
  <time>2026-08-27T18:28:48Z</time>
  <course>10.16</course>
  <speed>0.022360679774997897</speed>
  <fix>3d</fix>
</trkpt>
<trkpt lat="40.072842" lon="-105.230575">
  <ele>1586.09</ele>
  <time>2026-08-27T18:28:48Z</time>
  <course>268.56</course>
  <speed>0.0</speed>
  <fix>3d</fix>
</trkpt>
<trkpt lat="40.0728419" lon="-105.2305749">
  <ele>1586.16</ele>
  <time>2026-08-27T18:28:48Z</time>
  <course>10.1</course>
  <speed>0.022360679774997897</speed>
  <fix>3d</fix>
</trkpt>
<trkpt lat="40.072842" lon="-105.230575">
  <ele>1586.09</ele>
  <time>2026-08-27T18:28:48Z</time>
  <course>268.56</course>
  <speed>0.0</speed>
  <fix>3d</fix>
</trkpt>
<trkpt lat="40.0728419" lon="-105.2305749">
  <ele>1586.16</ele>
  <time>2026-08-27T18:28:48Z</time>
  <course>10.05</course>
  <speed>0.022360679774997897</speed>
  <fix>3d</fix>
</trkpt>
<trkpt lat="40.072842" lon="-105.230575">
  <ele>1586.09</ele>
  <time>2026-08-27T18:28:48Z</time>
  <course>268.56</course>
  <speed>0.0</speed>
  <fix>3d</fix>
</trkpt>
<trkpt lat="40.0728419" lon="-105.2305749">
  <ele>1586.16</ele>
  <time>2026-08-27T18:28:48Z</time>
  <course>9.99</course>
  <speed>0.022360679774997897</speed>
  <fix>3d</fix>
</trkpt>
<trkpt lat="40.072842" lon="-105.230575">
  <ele>1586.09</ele>
  <time>2026-08-27T18:28:48Z</time>
  <course>267.87</course>
  <speed>0.0</speed>
  <fix>3d</fix>
</trkpt>
<trkpt lat="40.0728419" lon="-105.2305749">
  <ele>1586.16</ele>
  <time>2026-08-27T18:28:48Z</time>
  <course>9.94</course>
  <speed>0.022360679774997897</speed>
  <fix>3d</fix>
</trkpt>
<trkpt lat="40.072842" lon="-105.230575">
  <ele>1586.09</ele>
  <time>2026-08-27T18:28:48Z</time>
  <course>268.25</course>
  <speed>0.0</speed>
  <fix>3d</fix>
</trkpt>
<trkpt lat="40.0728419" lon="-105.2305749">
  <ele>1586.17</ele>
  <time>2026-08-27T18:28:48Z</time>
  <course>9.88</course>
  <speed>0.022360679774997897</speed>
  <fix>3d</fix>
</trkpt>
<trkpt lat="40.072842" lon="-105.230575">
  <ele>1586.09</ele>
  <time>2026-08-27T18:28:48Z</time>
  <course>268.3</course>
  <speed>0.0</speed>
  <fix>3d</fix>
</trkpt>
<trkpt lat="40.0728419" lon="-105.2305749">
  <ele>1586.17</ele>
  <time>2026-08-27T18:28:48Z</time>
  <course>9.83</course>
  <speed>0.022360679774997897</speed>
  <fix>3d</fix>
</trkpt>
<trkpt lat="40.072842" lon="-105.230575">
  <ele>1586.09</ele>
  <time>2026-08-27T18:28:48Z</time>
  <course>267.09</course>
  <speed>0.0</speed>
  <fix>3d</fix>
</trkpt>
<trkpt lat="40.0728419" lon="-105.2305749">
  <ele>1586.17</ele>
  <time>2026-08-27T18:28:48Z</time>
  <course>9.77</course>
  <speed>0.022360679774997897</speed>
  <fix>3d</fix>
</trkpt>
<trkpt lat="40.072842" lon="-105.230575">
  <ele>1586.09</ele>
  <time>2026-08-27T18:28:48Z</time>
  <course>249.69</course>
  <speed>0.0</speed>
  <fix>3d</fix>
</trkpt>
<trkpt lat="40.0728419" lon="-105.2305749">
  <ele>1586.17</ele>
  <time>2026-08-27T18:28:48Z</time>
  <course>9.72</course>
  <speed>0.022360679774997897</speed>
  <fix>3d</fix>
</trkpt>
<trkpt lat="40.072842" lon="-105.230575">
  <ele>1586.09</ele>
  <time>2026-08-27T18:28:48Z</time>
  <course>245.57</course>
  <speed>0.0</speed>
  <fix>3d</fix>
</trkpt>
<trkpt lat="40.0728419" lon="-105.2305749">
  <ele>1586.17</ele>
  <time>2026-08-27T18:28:48Z</time>
  <course>9.67</course>
  <speed>0.022360679774997897</speed>
  <fix>3d</fix>
</trkpt>
<trkpt lat="40.072842" lon="-105.230575">
  <ele>1586.09</ele>
  <time>2026-08-27T18:28:48Z</time>
  <course>265.32</course>
  <speed>0.0</speed>
  <fix>3d</fix>
</trkpt>
<trkpt lat="40.0728419" lon="-105.2305749">
  <ele>1586.17</ele>
  <time>2026-08-27T18:28:48Z</time>
  <course>9.61</course>
  <speed>0.022360679774997897</speed>
  <fix>3d</fix>
</trkpt>
<trkpt lat="40.072842" lon="-105.230575">
  <ele>1586.09</ele>
  <time>2026-08-27T18:28:48Z</time>
  <course>270.11</course>
  <speed>0.0</speed>
  <fix>3d</fix>
</trkpt>
<trkpt lat="40.0728419" lon="-105.2305749">
  <ele>1586.17</ele>
  <time>2026-08-27T18:28:48Z</time>
  <course>9.56</course>
  <speed>0.022360679774997897</speed>
  <fix>3d</fix>
</trkpt>
<trkpt lat="40.072842" lon="-105.230575">
  <ele>1586.09</ele>
  <time>2026-08-27T18:28:48Z</time>
  <course>266.67</course>
  <speed>0.0</speed>
  <fix>3d</fix>
</trkpt>
<trkpt lat="40.0728419" lon="-105.2305749">
  <ele>1586.17</ele>
  <time>2026-08-27T18:28:48Z</time>
  <course>9.51</course>
  <speed>0.022360679774997897</speed>
  <fix>3d</fix>
</trkpt>
<trkpt lat="40.072842" lon="-105.230575">
  <ele>1586.09</ele>
  <time>2026-08-27T18:28:48Z</time>
  <course>266.82</course>
  <speed>0.0</speed>
  <fix>3d</fix>
</trkpt>
<trkpt lat="40.0728419" lon="-105.2305749">
  <ele>1586.17</ele>
  <time>2026-08-27T18:28:48Z</time>
  <course>9.46</course>
  <speed>0.022360679774997897</speed>
  <fix>3d</fix>
</trkpt>
<trkpt lat="40.072842" lon="-105.230575">
  <ele>1586.09</ele>
  <time>2026-08-27T18:28:48Z</time>
  <course>267.49</course>
  <speed>0.0</speed>
  <fix>3d</fix>
</trkpt>
<trkpt lat="40.0728419" lon="-105.2305749">
  <ele>1586.17</ele>
  <time>2026-08-27T18:28:48Z</time>
  <course>9.41</course>
  <speed>0.022360679774997897</speed>
  <fix>3d</fix>
</trkpt>
<trkpt lat="40.072842" lon="-105.230575">
  <ele>1586.09</ele>
  <time>2026-08-27T18:28:48Z</time>
  <course>265.81</course>
  <speed>0.0</speed>
  <fix>3d</fix>
</trkpt>
<trkpt lat="40.0728419" lon="-105.2305749">
  <ele>1586.17</ele>
  <time>2026-08-27T18:28:48Z</time>
  <course>9.35</course>
  <speed>0.022360679774997897</speed>
  <fix>3d</fix>
</trkpt>
<trkpt lat="40.072842" lon="-105.230575">
  <ele>1586.09</ele>
  <time>2026-08-27T18:28:48Z</time>
  <course>266.84</course>
  <speed>0.0</speed>
  <fix>3d</fix>
</trkpt>
<trkpt lat="40.0728419" lon="-105.2305749">
  <ele>1586.17</ele>
  <time>2026-08-27T18:28:48Z</time>
  <course>9.3</course>
  <speed>0.022360679774997897</speed>
  <fix>3d</fix>
</trkpt>
<trkpt lat="40.072842" lon="-105.230575">
  <ele>1586.09</ele>
  <time>2026-08-27T18:28:48Z</time>
  <course>267.28</course>
  <speed>0.0</speed>
  <fix>3d</fix>
</trkpt>
<trkpt lat="40.0728419" lon="-105.2305749">
  <ele>1586.17</ele>
  <time>2026-08-27T18:28:49Z</time>
  <course>9.25</course>
  <speed>0.022360679774997897</speed>
  <fix>3d</fix>
</trkpt>
<trkpt lat="40.072842" lon="-105.230575">
  <ele>1586.09</ele>
  <time>2026-08-27T18:28:49Z</time>
  <course>266.22</course>
  <speed>0.0</speed>
  <fix>3d</fix>
</trkpt>
<trkpt lat="40.0728419" lon="-105.2305749">
  <ele>1586.17</ele>
  <time>2026-08-27T18:28:49Z</time>
  <course>9.2</course>
  <speed>0.022360679774997897</speed>
  <fix>3d</fix>
</trkpt>
<trkpt lat="40.072842" lon="-105.230575">
  <ele>1586.09</ele>
  <time>2026-08-27T18:28:49Z</time>
  <course>266.75</course>
  <speed>0.0</speed>
  <fix>3d</fix>
</trkpt>
<trkpt lat="40.0728419" lon="-105.2305749">
  <ele>1586.16</ele>
  <time>2026-08-27T18:28:49Z</time>
  <course>9.15</course>
  <speed>0.022360679774997897</speed>
  <fix>3d</fix>
</trkpt>
<trkpt lat="40.072842" lon="-105.230575">
  <ele>1586.09</ele>
  <time>2026-08-27T18:28:49Z</time>
  <course>267.11</course>
  <speed>0.0</speed>
  <fix>3d</fix>
</trkpt>
<trkpt lat="40.0728419" lon="-105.2305749">
  <ele>1586.16</ele>
  <time>2026-08-27T18:28:49Z</time>
  <course>9.1</course>
  <speed>0.022360679774997897</speed>
  <fix>3d</fix>
</trkpt>
<trkpt lat="40.072842" lon="-105.230575">
  <ele>1586.09</ele>
  <time>2026-08-27T18:28:49Z</time>
  <course>265.86</course>
  <speed>0.0</speed>
  <fix>3d</fix>
</trkpt>
<trkpt lat="40.0728419" lon="-105.2305749">
  <ele>1586.16</ele>
  <time>2026-08-27T18:28:49Z</time>
  <course>9.06</course>
  <speed>0.022360679774997897</speed>
  <fix>3d</fix>
</trkpt>
<trkpt lat="40.072842" lon="-105.230575">
  <ele>1586.09</ele>
  <time>2026-08-27T18:28:49Z</time>
  <course>266.51</course>
  <speed>0.0</speed>
  <fix>3d</fix>
</trkpt>
<trkpt lat="40.0728419" lon="-105.2305749">
  <ele>1586.16</ele>
  <time>2026-08-27T18:28:49Z</time>
  <course>9.01</course>
  <speed>0.022360679774997897</speed>
  <fix>3d</fix>
</trkpt>
<trkpt lat="40.072842" lon="-105.230575">
  <ele>1586.09</ele>
  <time>2026-08-27T18:28:49Z</time>
  <course>266.95</course>
  <speed>0.0</speed>
  <fix>3d</fix>
</trkpt>
<trkpt lat="40.0728419" lon="-105.2305749">
  <ele>1586.16</ele>
  <time>2026-08-27T18:28:49Z</time>
  <course>8.96</course>
  <speed>0.022360679774997897</speed>
  <fix>3d</fix>
</trkpt>
<trkpt lat="40.072842" lon="-105.230575">
  <ele>1586.09</ele>
  <time>2026-08-27T18:28:49Z</time>
  <course>265.9</course>
  <speed>0.0</speed>
  <fix>3d</fix>
</trkpt>
<trkpt lat="40.0728419" lon="-105.2305749">
  <ele>1586.16</ele>
  <time>2026-08-27T18:28:49Z</time>
  <course>8.91</course>
  <speed>0.022360679774997897</speed>
  <fix>3d</fix>
</trkpt>
<trkpt lat="40.072842" lon="-105.230575">
  <ele>1586.09</ele>
  <time>2026-08-27T18:28:49Z</time>
  <course>266.01</course>
  <speed>0.0</speed>
  <fix>3d</fix>
</trkpt>
<trkpt lat="40.0728419" lon="-105.2305749">
  <ele>1586.16</ele>
  <time>2026-08-27T18:28:49Z</time>
  <course>8.86</course>
  <speed>0.022360679774997897</speed>
  <fix>3d</fix>
</trkpt>
<trkpt lat="40.072842" lon="-105.230575">
  <ele>1586.09</ele>
  <time>2026-08-27T18:28:49Z</time>
  <course>266.74</course>
  <speed>0.0</speed>
  <fix>3d</fix>
</trkpt>
<trkpt lat="40.0728419" lon="-105.2305749">
  <ele>1586.16</ele>
  <time>2026-08-27T18:28:49Z</time>
  <course>8.82</course>
  <speed>0.022360679774997897</speed>
  <fix>3d</fix>
</trkpt>
<trkpt lat="40.072842" lon="-105.230575">
  <ele>1586.09</ele>
  <time>2026-08-27T18:28:49Z</time>
  <course>266.07</course>
  <speed>0.0</speed>
  <fix>3d</fix>
</trkpt>
<trkpt lat="40.0728419" lon="-105.2305749">
  <ele>1586.16</ele>
  <time>2026-08-27T18:28:49Z</time>
  <course>8.77</course>
  <speed>0.022360679774997897</speed>
  <fix>3d</fix>
</trkpt>
<trkpt lat="40.072842" lon="-105.230575">
  <ele>1586.09</ele>
  <time>2026-08-27T18:28:49Z</time>
  <course>262.78</course>
  <speed>0.0</speed>
  <fix>3d</fix>
</trkpt>
<trkpt lat="40.0728419" lon="-105.2305749">
  <ele>1586.16</ele>
  <time>2026-08-27T18:28:49Z</time>
  <course>8.72</course>
  <speed>0.022360679774997897</speed>
  <fix>3d</fix>
</trkpt>
<trkpt lat="40.072842" lon="-105.230575">
  <ele>1586.09</ele>
  <time>2026-08-27T18:28:49Z</time>
  <course>266.46</course>
  <speed>0.0</speed>
  <fix>3d</fix>
</trkpt>
<trkpt lat="40.0728419" lon="-105.2305749">
  <ele>1586.15</ele>
  <time>2026-08-27T18:28:49Z</time>
  <course>8.68</course>
  <speed>0.022360679774997897</speed>
  <fix>3d</fix>
</trkpt>
<trkpt lat="40.072842" lon="-105.230575">
  <ele>1586.09</ele>
  <time>2026-08-27T18:28:49Z</time>
  <course>266.51</course>
  <speed>0.0</speed>
  <fix>3d</fix>
</trkpt>
<trkpt lat="40.0728419" lon="-105.2305749">
  <ele>1586.15</ele>
  <time>2026-08-27T18:28:49Z</time>
  <course>8.63</course>
  <speed>0.022360679774997897</speed>
  <fix>3d</fix>
</trkpt>
<trkpt lat="40.072842" lon="-105.230575">
  <ele>1586.09</ele>
  <time>2026-08-27T18:28:49Z</time>
  <course>263.99</course>
  <speed>0.0</speed>
  <fix>3d</fix>
</trkpt>
<trkpt lat="40.0728419" lon="-105.2305749">
  <ele>1586.15</ele>
  <time>2026-08-27T18:28:49Z</time>
  <course>8.58</course>
  <speed>0.01414213562373095</speed>
  <fix>3d</fix>
</trkpt>
<trkpt lat="40.072842" lon="-105.230575">
  <ele>1586.09</ele>
  <time>2026-08-27T18:28:49Z</time>
  <course>266.26</course>
  <speed>0.0</speed>
  <fix>3d</fix>
</trkpt>
<trkpt lat="40.0728419" lon="-105.2305749">
  <ele>1586.15</ele>
  <time>2026-08-27T18:28:49Z</time>
  <course>8.54</course>
  <speed>0.01414213562373095</speed>
  <fix>3d</fix>
</trkpt>
<trkpt lat="40.072842" lon="-105.230575">
  <ele>1586.09</ele>
  <time>2026-08-27T18:28:49Z</time>
  <course>265.29</course>
  <speed>0.0</speed>
  <fix>3d</fix>
</trkpt>
<trkpt lat="40.0728419" lon="-105.2305749">
  <ele>1586.15</ele>
  <time>2026-08-27T18:28:49Z</time>
  <course>8.49</course>
  <speed>0.01414213562373095</speed>
  <fix>3d</fix>
</trkpt>
<trkpt lat="40.072842" lon="-105.230575">
  <ele>1586.09</ele>
  <time>2026-08-27T18:28:49Z</time>
  <course>269.16</course>
  <speed>0.0</speed>
  <fix>3d</fix>
</trkpt>
<trkpt lat="40.0728419" lon="-105.2305749">
  <ele>1586.16</ele>
  <time>2026-08-27T18:28:49Z</time>
  <course>8.45</course>
  <speed>0.01414213562373095</speed>
  <fix>3d</fix>
</trkpt>
<trkpt lat="40.072842" lon="-105.230575">
  <ele>1586.09</ele>
  <time>2026-08-27T18:28:49Z</time>
  <course>269.11</course>
  <speed>0.0</speed>
  <fix>3d</fix>
</trkpt>
<trkpt lat="40.0728419" lon="-105.2305749">
  <ele>1586.16</ele>
  <time>2026-08-27T18:28:49Z</time>
  <course>8.41</course>
  <speed>0.01414213562373095</speed>
  <fix>3d</fix>
</trkpt>
<trkpt lat="40.072842" lon="-105.230575">
  <ele>1586.09</ele>
  <time>2026-08-27T18:28:49Z</time>
  <course>265.88</course>
  <speed>0.0</speed>
  <fix>3d</fix>
</trkpt>
<trkpt lat="40.0728419" lon="-105.2305749">
  <ele>1586.16</ele>
  <time>2026-08-27T18:28:49Z</time>
  <course>8.36</course>
  <speed>0.01414213562373095</speed>
  <fix>3d</fix>
</trkpt>
<trkpt lat="40.072842" lon="-105.230575">
  <ele>1586.09</ele>
  <time>2026-08-27T18:28:49Z</time>
  <course>265.48</course>
  <speed>0.0</speed>
  <fix>3d</fix>
</trkpt>
<trkpt lat="40.0728419" lon="-105.2305749">
  <ele>1586.16</ele>
  <time>2026-08-27T18:28:49Z</time>
  <course>8.32</course>
  <speed>0.01414213562373095</speed>
  <fix>3d</fix>
</trkpt>
<trkpt lat="40.072842" lon="-105.230575">
  <ele>1586.09</ele>
  <time>2026-08-27T18:28:49Z</time>
  <course>263.5</course>
  <speed>0.0</speed>
  <fix>3d</fix>
</trkpt>
<trkpt lat="40.0728419" lon="-105.2305749">
  <ele>1586.16</ele>
  <time>2026-08-27T18:28:49Z</time>
  <course>8.28</course>
  <speed>0.01414213562373095</speed>
  <fix>3d</fix>
</trkpt>
<trkpt lat="40.072842" lon="-105.230575">
  <ele>1586.09</ele>
  <time>2026-08-27T18:28:49Z</time>
  <course>266.09</course>
  <speed>0.0</speed>
  <fix>3d</fix>
</trkpt>
<trkpt lat="40.0728419" lon="-105.2305749">
  <ele>1586.17</ele>
  <time>2026-08-27T18:28:49Z</time>
  <course>8.23</course>
  <speed>0.01414213562373095</speed>
  <fix>3d</fix>
</trkpt>
<trkpt lat="40.072842" lon="-105.230575">
  <ele>1586.09</ele>
  <time>2026-08-27T18:28:49Z</time>
  <course>266.12</course>
  <speed>0.0</speed>
  <fix>3d</fix>
</trkpt>
<trkpt lat="40.0728419" lon="-105.2305749">
  <ele>1586.17</ele>
  <time>2026-08-27T18:28:49Z</time>
  <course>8.19</course>
  <speed>0.01414213562373095</speed>
  <fix>3d</fix>
</trkpt>
<trkpt lat="40.072842" lon="-105.230575">
  <ele>1586.09</ele>
  <time>2026-08-27T18:28:49Z</time>
  <course>264.16</course>
  <speed>0.0</speed>
  <fix>3d</fix>
</trkpt>
<trkpt lat="40.0728419" lon="-105.2305749">
  <ele>1586.17</ele>
  <time>2026-08-27T18:28:49Z</time>
  <course>8.15</course>
  <speed>0.01414213562373095</speed>
  <fix>3d</fix>
</trkpt>
<trkpt lat="40.072842" lon="-105.230575">
  <ele>1586.09</ele>
  <time>2026-08-27T18:28:49Z</time>
  <course>263.81</course>
  <speed>0.0</speed>
  <fix>3d</fix>
</trkpt>
<trkpt lat="40.0728419" lon="-105.2305749">
  <ele>1586.17</ele>
  <time>2026-08-27T18:28:49Z</time>
  <course>8.11</course>
  <speed>0.01414213562373095</speed>
  <fix>3d</fix>
</trkpt>
<trkpt lat="40.072842" lon="-105.230575">
  <ele>1586.09</ele>
  <time>2026-08-27T18:28:49Z</time>
  <course>265.92</course>
  <speed>0.0</speed>
  <fix>3d</fix>
</trkpt>
<trkpt lat="40.0728419" lon="-105.2305749">
  <ele>1586.17</ele>
  <time>2026-08-27T18:28:49Z</time>
  <course>8.07</course>
  <speed>0.01414213562373095</speed>
  <fix>3d</fix>
</trkpt>
<trkpt lat="40.072842" lon="-105.230575">
  <ele>1586.09</ele>
  <time>2026-08-27T18:28:49Z</time>
  <course>265.88</course>
  <speed>0.0</speed>
  <fix>3d</fix>
</trkpt>
<trkpt lat="40.0728419" lon="-105.2305749">
  <ele>1586.17</ele>
  <time>2026-08-27T18:28:49Z</time>
  <course>8.02</course>
  <speed>0.01414213562373095</speed>
  <fix>3d</fix>
</trkpt>
<trkpt lat="40.072842" lon="-105.230575">
  <ele>1586.09</ele>
  <time>2026-08-27T18:28:49Z</time>
  <course>263.75</course>
  <speed>0.0</speed>
  <fix>3d</fix>
</trkpt>
<trkpt lat="40.0728419" lon="-105.2305749">
  <ele>1586.18</ele>
  <time>2026-08-27T18:28:49Z</time>
  <course>7.98</course>
  <speed>0.01414213562373095</speed>
  <fix>3d</fix>
</trkpt>
<trkpt lat="40.072842" lon="-105.230575">
  <ele>1586.09</ele>
  <time>2026-08-27T18:28:49Z</time>
  <course>265.54</course>
  <speed>0.0</speed>
  <fix>3d</fix>
</trkpt>
<trkpt lat="40.0728419" lon="-105.2305749">
  <ele>1586.18</ele>
  <time>2026-08-27T18:28:49Z</time>
  <course>7.94</course>
  <speed>0.01414213562373095</speed>
  <fix>3d</fix>
</trkpt>
<trkpt lat="40.072842" lon="-105.230575">
  <ele>1586.09</ele>
  <time>2026-08-27T18:28:49Z</time>
  <course>265.93</course>
  <speed>0.0</speed>
  <fix>3d</fix>
</trkpt>
<trkpt lat="40.0728419" lon="-105.2305749">
  <ele>1586.18</ele>
  <time>2026-08-27T18:28:49Z</time>
  <course>7.9</course>
  <speed>0.01414213562373095</speed>
  <fix>3d</fix>
</trkpt>
<trkpt lat="40.072842" lon="-105.230575">
  <ele>1586.09</ele>
  <time>2026-08-27T18:28:49Z</time>
  <course>265.19</course>
  <speed>0.0</speed>
  <fix>3d</fix>
</trkpt>
<trkpt lat="40.0728419" lon="-105.2305749">
  <ele>1586.17</ele>
  <time>2026-08-27T18:28:49Z</time>
  <course>7.86</course>
  <speed>0.01414213562373095</speed>
  <fix>3d</fix>
</trkpt>
<trkpt lat="40.072842" lon="-105.230575">
  <ele>1586.09</ele>
  <time>2026-08-27T18:28:49Z</time>
  <course>263.35</course>
  <speed>0.0</speed>
  <fix>3d</fix>
</trkpt>
<trkpt lat="40.0728419" lon="-105.2305749">
  <ele>1586.17</ele>
  <time>2026-08-27T18:28:49Z</time>
  <course>7.82</course>
  <speed>0.01414213562373095</speed>
  <fix>3d</fix>
</trkpt>
<trkpt lat="40.072842" lon="-105.230575">
  <ele>1586.09</ele>
  <time>2026-08-27T18:28:49Z</time>
  <course>265.68</course>
  <speed>0.0</speed>
  <fix>3d</fix>
</trkpt>
<trkpt lat="40.0728419" lon="-105.2305749">
  <ele>1586.17</ele>
  <time>2026-08-27T18:28:49Z</time>
  <course>7.78</course>
  <speed>0.01414213562373095</speed>
  <fix>3d</fix>
</trkpt>
<trkpt lat="40.072842" lon="-105.230575">
  <ele>1586.09</ele>
  <time>2026-08-27T18:28:49Z</time>
  <course>265.8</course>
  <speed>0.0</speed>
  <fix>3d</fix>
</trkpt>
<trkpt lat="40.0728419" lon="-105.2305749">
  <ele>1586.17</ele>
  <time>2026-08-27T18:28:49Z</time>
  <course>7.74</course>
  <speed>0.01414213562373095</speed>
  <fix>3d</fix>
</trkpt>
<trkpt lat="40.072842" lon="-105.230575">
  <ele>1586.09</ele>
  <time>2026-08-27T18:28:49Z</time>
  <course>264.48</course>
  <speed>0.0</speed>
  <fix>3d</fix>
</trkpt>
<trkpt lat="40.0728419" lon="-105.2305749">
  <ele>1586.17</ele>
  <time>2026-08-27T18:28:49Z</time>
  <course>7.71</course>
  <speed>0.01414213562373095</speed>
  <fix>3d</fix>
</trkpt>
<trkpt lat="40.072842" lon="-105.230575">
  <ele>1586.09</ele>
  <time>2026-08-27T18:28:49Z</time>
  <course>263.58</course>
  <speed>0.0</speed>
  <fix>3d</fix>
</trkpt>
<trkpt lat="40.0728419" lon="-105.2305749">
  <ele>1586.17</ele>
  <time>2026-08-27T18:28:49Z</time>
  <course>7.67</course>
  <speed>0.01414213562373095</speed>
  <fix>3d</fix>
</trkpt>
<trkpt lat="40.072842" lon="-105.230575">
  <ele>1586.09</ele>
  <time>2026-08-27T18:28:49Z</time>
  <course>265.56</course>
  <speed>0.0</speed>
  <fix>3d</fix>
</trkpt>
<trkpt lat="40.0728419" lon="-105.2305749">
  <ele>1586.17</ele>
  <time>2026-08-27T18:28:49Z</time>
  <course>7.63</course>
  <speed>0.01414213562373095</speed>
  <fix>3d</fix>
</trkpt>
<trkpt lat="40.072842" lon="-105.230575">
  <ele>1586.09</ele>
  <time>2026-08-27T18:28:49Z</time>
  <course>265.6</course>
  <speed>0.0</speed>
  <fix>3d</fix>
</trkpt>
<trkpt lat="40.0728419" lon="-105.2305749">
  <ele>1586.17</ele>
  <time>2026-08-27T18:28:49Z</time>
  <course>7.59</course>
  <speed>0.01414213562373095</speed>
  <fix>3d</fix>
</trkpt>
<trkpt lat="40.072842" lon="-105.230575">
  <ele>1586.09</ele>
  <time>2026-08-27T18:28:49Z</time>
  <course>264.07</course>
  <speed>0.0</speed>
  <fix>3d</fix>
</trkpt>
<trkpt lat="40.0728419" lon="-105.2305749">
  <ele>1586.17</ele>
  <time>2026-08-27T18:28:49Z</time>
  <course>7.55</course>
  <speed>0.01414213562373095</speed>
  <fix>3d</fix>
</trkpt>
<trkpt lat="40.072842" lon="-105.230575">
  <ele>1586.09</ele>
  <time>2026-08-27T18:28:49Z</time>
  <course>263.73</course>
  <speed>0.0</speed>
  <fix>3d</fix>
</trkpt>
<trkpt lat="40.0728419" lon="-105.2305749">
  <ele>1586.18</ele>
  <time>2026-08-27T18:28:49Z</time>
  <course>7.52</course>
  <speed>0.01414213562373095</speed>
  <fix>3d</fix>
</trkpt>
<trkpt lat="40.072842" lon="-105.230575">
  <ele>1586.09</ele>
  <time>2026-08-27T18:28:49Z</time>
  <course>265.39</course>
  <speed>0.0</speed>
  <fix>3d</fix>
</trkpt>
<trkpt lat="40.0728419" lon="-105.2305749">
  <ele>1586.17</ele>
  <time>2026-08-27T18:28:49Z</time>
  <course>7.48</course>
  <speed>0.01414213562373095</speed>
  <fix>3d</fix>
</trkpt>
<trkpt lat="40.072842" lon="-105.230575">
  <ele>1586.09</ele>
  <time>2026-08-27T18:28:49Z</time>
  <course>265.54</course>
  <speed>0.0</speed>
  <fix>3d</fix>
</trkpt>
<trkpt lat="40.0728419" lon="-105.2305749">
  <ele>1586.17</ele>
  <time>2026-08-27T18:28:49Z</time>
  <course>7.44</course>
  <speed>0.01414213562373095</speed>
  <fix>3d</fix>
</trkpt>
<trkpt lat="40.072842" lon="-105.230575">
  <ele>1586.09</ele>
  <time>2026-08-27T18:28:49Z</time>
  <course>264.6</course>
  <speed>0.0</speed>
  <fix>3d</fix>
</trkpt>
<trkpt lat="40.0728419" lon="-105.2305749">
  <ele>1586.16</ele>
  <time>2026-08-27T18:28:49Z</time>
  <course>7.41</course>
  <speed>0.01414213562373095</speed>
  <fix>3d</fix>
</trkpt>
<trkpt lat="40.072842" lon="-105.230575">
  <ele>1586.09</ele>
  <time>2026-08-27T18:28:49Z</time>
  <course>263.49</course>
  <speed>0.0</speed>
  <fix>3d</fix>
</trkpt>
<trkpt lat="40.0728419" lon="-105.2305749">
  <ele>1586.16</ele>
  <time>2026-08-27T18:28:49Z</time>
  <course>7.37</course>
  <speed>0.01414213562373095</speed>
  <fix>3d</fix>
</trkpt>
<trkpt lat="40.072842" lon="-105.230575">
  <ele>1586.09</ele>
  <time>2026-08-27T18:28:49Z</time>
  <course>265.13</course>
  <speed>0.0</speed>
  <fix>3d</fix>
</trkpt>
<trkpt lat="40.0728419" lon="-105.2305749">
  <ele>1586.16</ele>
  <time>2026-08-27T18:28:49Z</time>
  <course>7.33</course>
  <speed>0.01414213562373095</speed>
  <fix>3d</fix>
</trkpt>
<trkpt lat="40.072842" lon="-105.230575">
  <ele>1586.09</ele>
  <time>2026-08-27T18:28:49Z</time>
  <course>265.4</course>
  <speed>0.0</speed>
  <fix>3d</fix>
</trkpt>
<trkpt lat="40.0728419" lon="-105.2305749">
  <ele>1586.16</ele>
  <time>2026-08-27T18:28:49Z</time>
  <course>7.3</course>
  <speed>0.01414213562373095</speed>
  <fix>3d</fix>
</trkpt>
<trkpt lat="40.072842" lon="-105.230575">
  <ele>1586.09</ele>
  <time>2026-08-27T18:28:49Z</time>
  <course>264.74</course>
  <speed>0.0</speed>
  <fix>3d</fix>
</trkpt>
<trkpt lat="40.0728419" lon="-105.2305749">
  <ele>1586.16</ele>
  <time>2026-08-27T18:28:49Z</time>
  <course>7.26</course>
  <speed>0.01414213562373095</speed>
  <fix>3d</fix>
</trkpt>
<trkpt lat="40.072842" lon="-105.230575">
  <ele>1586.09</ele>
  <time>2026-08-27T18:28:49Z</time>
  <course>263.43</course>
  <speed>0.0</speed>
  <fix>3d</fix>
</trkpt>
<trkpt lat="40.0728419" lon="-105.2305749">
  <ele>1586.17</ele>
  <time>2026-08-27T18:28:49Z</time>
  <course>7.23</course>
  <speed>0.01414213562373095</speed>
  <fix>3d</fix>
</trkpt>
<trkpt lat="40.072842" lon="-105.230575">
  <ele>1586.09</ele>
  <time>2026-08-27T18:28:49Z</time>
  <course>264.36</course>
  <speed>0.0</speed>
  <fix>3d</fix>
</trkpt>
<trkpt lat="40.0728419" lon="-105.2305749">
  <ele>1586.17</ele>
  <time>2026-08-27T18:28:49Z</time>
  <course>7.19</course>
  <speed>0.01414213562373095</speed>
  <fix>3d</fix>
</trkpt>
<trkpt lat="40.072842" lon="-105.230575">
  <ele>1586.09</ele>
  <time>2026-08-27T18:28:49Z</time>
  <course>265.52</course>
  <speed>0.0</speed>
  <fix>3d</fix>
</trkpt>
<trkpt lat="40.0728419" lon="-105.2305749">
  <ele>1586.17</ele>
  <time>2026-08-27T18:28:49Z</time>
  <course>7.17</course>
  <speed>0.01414213562373095</speed>
  <fix>3d</fix>
</trkpt>
<trkpt lat="40.072842" lon="-105.230575">
  <ele>1586.09</ele>
  <time>2026-08-27T18:28:49Z</time>
  <course>268.94</course>
  <speed>0.0</speed>
  <fix>3d</fix>
</trkpt>
<trkpt lat="40.0728419" lon="-105.2305749">
  <ele>1586.17</ele>
  <time>2026-08-27T18:28:49Z</time>
  <course>7.14</course>
  <speed>0.01414213562373095</speed>
  <fix>3d</fix>
</trkpt>
<trkpt lat="40.072842" lon="-105.230575">
  <ele>1586.09</ele>
  <time>2026-08-27T18:28:49Z</time>
  <course>268.6</course>
  <speed>0.0</speed>
  <fix>3d</fix>
</trkpt>
<trkpt lat="40.0728419" lon="-105.2305749">
  <ele>1586.17</ele>
  <time>2026-08-27T18:28:49Z</time>
  <course>7.12</course>
  <speed>0.01414213562373095</speed>
  <fix>3d</fix>
</trkpt>
<trkpt lat="40.072842" lon="-105.230575">
  <ele>1586.09</ele>
  <time>2026-08-27T18:28:49Z</time>
  <course>264.79</course>
  <speed>0.0</speed>
  <fix>3d</fix>
</trkpt>
<trkpt lat="40.0728419" lon="-105.2305749">
  <ele>1586.17</ele>
  <time>2026-08-27T18:28:49Z</time>
  <course>7.11</course>
  <speed>0.01414213562373095</speed>
  <fix>3d</fix>
</trkpt>
<trkpt lat="40.0728419" lon="-105.2305749">
  <ele>1586.18</ele>
  <time>2026-08-27T18:28:49Z</time>
  <course>7.08</course>
  <speed>0.01414213562373095</speed>
  <fix>3d</fix>
</trkpt>
<trkpt lat="40.072842" lon="-105.230575">
  <ele>1586.09</ele>
  <time>2026-08-27T18:28:49Z</time>
  <course>265.49</course>
  <speed>0.0</speed>
  <fix>3d</fix>
</trkpt>
<trkpt lat="40.0728419" lon="-105.2305749">
  <ele>1586.18</ele>
  <time>2026-08-27T18:28:49Z</time>
  <course>7.08</course>
  <speed>0.01414213562373095</speed>
  <fix>3d</fix>
</trkpt>
<trkpt lat="40.0728419" lon="-105.2305749">
  <ele>1586.18</ele>
  <time>2026-08-27T18:28:49Z</time>
  <course>7.03</course>
  <speed>0.01414213562373095</speed>
  <fix>3d</fix>
</trkpt>
<trkpt lat="40.072842" lon="-105.230575">
  <ele>1586.09</ele>
  <time>2026-08-27T18:28:49Z</time>
  <course>265.92</course>
  <speed>0.0</speed>
  <fix>3d</fix>
</trkpt>
<trkpt lat="40.0728419" lon="-105.2305749">
  <ele>1586.18</ele>
  <time>2026-08-27T18:28:49Z</time>
  <course>7.03</course>
  <speed>0.01414213562373095</speed>
  <fix>3d</fix>
</trkpt>
<trkpt lat="40.0728419" lon="-105.2305749">
  <ele>1586.2</ele>
  <time>2026-08-27T18:28:49Z</time>
  <course>6.97</course>
  <speed>0.01414213562373095</speed>
  <fix>3d</fix>
</trkpt>
<trkpt lat="40.072842" lon="-105.230575">
  <ele>1586.09</ele>
  <time>2026-08-27T18:28:49Z</time>
  <course>265.12</course>
  <speed>0.0</speed>
  <fix>3d</fix>
</trkpt>
<trkpt lat="40.0728419" lon="-105.2305749">
  <ele>1586.2</ele>
  <time>2026-08-27T18:28:49Z</time>
  <course>6.97</course>
  <speed>0.01414213562373095</speed>
  <fix>3d</fix>
</trkpt>
<trkpt lat="40.0728419" lon="-105.2305749">
  <ele>1586.26</ele>
  <time>2026-08-27T18:28:49Z</time>
  <course>6.88</course>
  <speed>0.01414213562373095</speed>
  <fix>3d</fix>
</trkpt>
<trkpt lat="40.072842" lon="-105.230575">
  <ele>1586.12</ele>
  <time>2026-08-27T18:28:49Z</time>
  <course>264.29</course>
  <speed>0.0</speed>
  <fix>3d</fix>
</trkpt>
<trkpt lat="40.0728419" lon="-105.2305749">
  <ele>1586.27</ele>
  <time>2026-08-27T18:28:49Z</time>
  <course>6.87</course>
  <speed>0.01414213562373095</speed>
  <fix>3d</fix>
</trkpt>
<trkpt lat="40.0728419" lon="-105.2305749">
  <ele>1586.3</ele>
  <time>2026-08-27T18:28:49Z</time>
  <course>6.79</course>
  <speed>0.01414213562373095</speed>
  <fix>3d</fix>
</trkpt>
<trkpt lat="40.072842" lon="-105.230575">
  <ele>1586.17</ele>
  <time>2026-08-27T18:28:49Z</time>
  <course>275.73</course>
  <speed>0.0</speed>
  <fix>3d</fix>
</trkpt>
<trkpt lat="40.0728419" lon="-105.2305749">
  <ele>1586.31</ele>
  <time>2026-08-27T18:28:49Z</time>
  <course>6.73</course>
  <speed>0.01414213562373095</speed>
  <fix>3d</fix>
</trkpt>
<trkpt lat="40.0728419" lon="-105.2305749">
  <ele>1586.43</ele>
  <time>2026-08-27T18:28:49Z</time>
  <course>0.27</course>
  <speed>0.06082762530298219</speed>
  <fix>3d</fix>
</trkpt>
<trkpt lat="40.072842" lon="-105.230575">
  <ele>1586.24</ele>
  <time>2026-08-27T18:28:49Z</time>
  <course>263.9</course>
  <speed>0.02</speed>
  <fix>3d</fix>
</trkpt>
<trkpt lat="40.0728419" lon="-105.2305749">
  <ele>1586.46</ele>
  <time>2026-08-27T18:28:49Z</time>
  <course>359.39</course>
  <speed>0.09055385138137417</speed>
  <fix>3d</fix>
</trkpt>
<trkpt lat="40.0728419" lon="-105.2305752">
  <ele>1586.67</ele>
  <time>2026-08-27T18:28:49Z</time>
  <course>358.18</course>
  <speed>0.191049731745428</speed>
  <fix>3d</fix>
</trkpt>
<trkpt lat="40.072842" lon="-105.2305751">
  <ele>1586.4</ele>
  <time>2026-08-27T18:28:49Z</time>
  <course>260.14</course>
  <speed>0.11</speed>
  <fix>3d</fix>
</trkpt>
<trkpt lat="40.0728419" lon="-105.2305753">
  <ele>1586.7</ele>
  <time>2026-08-27T18:28:49Z</time>
  <course>358.26</course>
  <speed>0.2009975124224178</speed>
  <fix>3d</fix>
</trkpt>
<trkpt lat="40.0728419" lon="-105.2305758">
  <ele>1586.82</ele>
  <time>2026-08-27T18:28:49Z</time>
  <course>358.19</course>
  <speed>0.23194827009486402</speed>
  <fix>3d</fix>
</trkpt>
<trkpt lat="40.0728419" lon="-105.2305755">
  <ele>1586.6</ele>
  <time>2026-08-27T18:28:49Z</time>
  <course>258.03</course>
  <speed>0.21</speed>
  <fix>3d</fix>
</trkpt>
<trkpt lat="40.0728419" lon="-105.2305758">
  <ele>1586.82</ele>
  <time>2026-08-27T18:28:49Z</time>
  <course>358.19</course>
  <speed>0.23194827009486402</speed>
  <fix>3d</fix>
</trkpt>
<trkpt lat="40.0728418" lon="-105.2305764">
  <ele>1586.92</ele>
  <time>2026-08-27T18:28:49Z</time>
  <course>357.47</course>
  <speed>0.26476404589747454</speed>
  <fix>3d</fix>
</trkpt>
<trkpt lat="40.0728418" lon="-105.230576">
  <ele>1586.74</ele>
  <time>2026-08-27T18:28:49Z</time>
  <course>255.18</course>
  <speed>0.26</speed>
  <fix>3d</fix>
</trkpt>
<trkpt lat="40.0728418" lon="-105.2305765">
  <ele>1586.94</ele>
  <time>2026-08-27T18:28:49Z</time>
  <course>357.39</course>
  <speed>0.2765863337187866</speed>
  <fix>3d</fix>
</trkpt>
<trkpt lat="40.0728417" lon="-105.230577">
  <ele>1587.03</ele>
  <time>2026-08-27T18:28:49Z</time>
  <course>357.2</course>
  <speed>0.29120439557122074</speed>
  <fix>3d</fix>
</trkpt>
<trkpt lat="40.0728417" lon="-105.2305767">
  <ele>1586.85</ele>
  <time>2026-08-27T18:28:49Z</time>
  <course>251.52</course>
  <speed>0.28</speed>
  <fix>3d</fix>
</trkpt>
<trkpt lat="40.0728417" lon="-105.230577">
  <ele>1587.03</ele>
  <time>2026-08-27T18:28:49Z</time>
  <course>357.2</course>
  <speed>0.29120439557122074</speed>
  <fix>3d</fix>
</trkpt>
<trkpt lat="40.0728415" lon="-105.2305777">
  <ele>1587.12</ele>
  <time>2026-08-27T18:28:49Z</time>
  <course>357.28</course>
  <speed>0.291547594742265</speed>
  <fix>3d</fix>
</trkpt>
<trkpt lat="40.0728414" lon="-105.2305773">
  <ele>1586.94</ele>
  <time>2026-08-27T18:28:49Z</time>
  <course>247.55</course>
  <speed>0.3</speed>
  <fix>3d</fix>
</trkpt>
<trkpt lat="40.0728414" lon="-105.2305778">
  <ele>1587.14</ele>
  <time>2026-08-27T18:28:49Z</time>
  <course>357.31</course>
  <speed>0.291547594742265</speed>
  <fix>3d</fix>
</trkpt>
<trkpt lat="40.0728412" lon="-105.2305783">
  <ele>1587.21</ele>
  <time>2026-08-27T18:28:49Z</time>
  <course>357.42</course>
  <speed>0.2906888370749727</speed>
  <fix>3d</fix>
</trkpt>
<trkpt lat="40.0728413" lon="-105.230578">
  <ele>1587.03</ele>
  <time>2026-08-27T18:28:49Z</time>
  <course>243.47</course>
  <speed>0.3</speed>
  <fix>3d</fix>
</trkpt>
<trkpt lat="40.0728412" lon="-105.2305784">
  <ele>1587.23</ele>
  <time>2026-08-27T18:28:49Z</time>
  <course>357.44</course>
  <speed>0.295296461204668</speed>
  <fix>3d</fix>
</trkpt>
<trkpt lat="40.0728409" lon="-105.2305789">
  <ele>1587.31</ele>
  <time>2026-08-27T18:28:49Z</time>
  <course>357.6</course>
  <speed>0.291547594742265</speed>
  <fix>3d</fix>
</trkpt>
<trkpt lat="40.072841" lon="-105.2305786">
  <ele>1587.12</ele>
  <time>2026-08-27T18:28:49Z</time>
  <course>239.33</course>
  <speed>0.3</speed>
  <fix>3d</fix>
</trkpt>
<trkpt lat="40.0728409" lon="-105.230579">
  <ele>1587.32</ele>
  <time>2026-08-27T18:28:49Z</time>
  <course>357.63</course>
  <speed>0.2884441020371191</speed>
  <fix>3d</fix>
</trkpt>
<trkpt lat="40.0728406" lon="-105.2305795">
  <ele>1587.4</ele>
  <time>2026-08-27T18:28:49Z</time>
  <course>357.84</course>
  <speed>0.2920616373302047</speed>
  <fix>3d</fix>
</trkpt>
<trkpt lat="40.0728407" lon="-105.2305791">
  <ele>1587.22</ele>
  <time>2026-08-27T18:28:49Z</time>
  <course>235.29</course>
  <speed>0.29</speed>
  <fix>3d</fix>
</trkpt>
<trkpt lat="40.0728406" lon="-105.2305795">
  <ele>1587.41</ele>
  <time>2026-08-27T18:28:49Z</time>
  <course>357.84</course>
  <speed>0.2920616373302047</speed>
  <fix>3d</fix>
</trkpt>
<trkpt lat="40.0728402" lon="-105.23058">
  <ele>1587.51</ele>
  <time>2026-08-27T18:28:49Z</time>
  <course>358.15</course>
  <speed>0.2906888370749727</speed>
  <fix>3d</fix>
</trkpt>
<trkpt lat="40.0728404" lon="-105.2305797">
  <ele>1587.32</ele>
  <time>2026-08-27T18:28:49Z</time>
  <course>231.47</course>
  <speed>0.29</speed>
  <fix>3d</fix>
</trkpt>
<trkpt lat="40.0728402" lon="-105.2305801">
  <ele>1587.52</ele>
  <time>2026-08-27T18:28:49Z</time>
  <course>358.2</course>
  <speed>0.29</speed>
  <fix>3d</fix>
</trkpt>
<trkpt lat="40.0728399" lon="-105.2305805">
  <ele>1587.63</ele>
  <time>2026-08-27T18:28:49Z</time>
  <course>358.48</course>
  <speed>0.29</speed>
  <fix>3d</fix>
</trkpt>
<trkpt lat="40.07284" lon="-105.2305803">
  <ele>1587.43</ele>
  <time>2026-08-27T18:28:49Z</time>
  <course>227.95</course>
  <speed>0.28</speed>
  <fix>3d</fix>
</trkpt>
<trkpt lat="40.0728398" lon="-105.2305806">
  <ele>1587.64</ele>
  <time>2026-08-27T18:28:49Z</time>
  <course>358.53</course>
  <speed>0.29</speed>
  <fix>3d</fix>
</trkpt>
<trkpt lat="40.0728395" lon="-105.230581">
  <ele>1587.75</ele>
  <time>2026-08-27T18:28:49Z</time>
  <course>358.82</course>
  <speed>0.29832867780352595</speed>
  <fix>3d</fix>
</trkpt>
<trkpt lat="40.0728397" lon="-105.2305808">
  <ele>1587.55</ele>
  <time>2026-08-27T18:28:49Z</time>
  <course>224.73</course>
  <speed>0.28</speed>
  <fix>3d</fix>
</trkpt>
<trkpt lat="40.0728394" lon="-105.2305811">
  <ele>1587.77</ele>
  <time>2026-08-27T18:28:49Z</time>
  <course>358.88</course>
  <speed>0.29832867780352595</speed>
  <fix>3d</fix>
</trkpt>
<trkpt lat="40.0728391" lon="-105.2305815">
  <ele>1587.88</ele>
  <time>2026-08-27T18:28:49Z</time>
  <course>359.21</course>
  <speed>0.3</speed>
  <fix>3d</fix>
</trkpt>
<trkpt lat="40.0728393" lon="-105.2305812">
  <ele>1587.66</ele>
  <time>2026-08-27T18:28:49Z</time>
  <course>221.88</course>
  <speed>0.28</speed>
  <fix>3d</fix>
</trkpt>
<trkpt lat="40.072839" lon="-105.2305815">
  <ele>1587.88</ele>
  <time>2026-08-27T18:28:49Z</time>
  <course>359.21</course>
  <speed>0.3</speed>
  <fix>3d</fix>
</trkpt>
<trkpt lat="40.0728386" lon="-105.2305819">
  <ele>1588.01</ele>
  <time>2026-08-27T18:28:49Z</time>
  <course>359.62</course>
  <speed>0.3080584360149873</speed>
  <fix>3d</fix>
</trkpt>
<trkpt lat="40.072839" lon="-105.2305816">
  <ele>1587.79</ele>
  <time>2026-08-27T18:28:49Z</time>
  <course>219.39</course>
  <speed>0.29</speed>
  <fix>3d</fix>
</trkpt>
<trkpt lat="40.0728386" lon="-105.2305819">
  <ele>1588.03</ele>
  <time>2026-08-27T18:28:49Z</time>
  <course>359.68</course>
  <speed>0.3023243291566195</speed>
  <fix>3d</fix>
</trkpt>
<trkpt lat="40.0728382" lon="-105.2305823">
  <ele>1588.13</ele>
  <time>2026-08-27T18:28:49Z</time>
  <course>0.02</course>
  <speed>0.31064449134018135</speed>
  <fix>3d</fix>
</trkpt>
<trkpt lat="40.0728386" lon="-105.230582">
  <ele>1587.91</ele>
  <time>2026-08-27T18:28:49Z</time>
  <course>217.21</course>
  <speed>0.29</speed>
  <fix>3d</fix>
</trkpt>
<trkpt lat="40.0728382" lon="-105.2305823">
  <ele>1588.13</ele>
  <time>2026-08-27T18:28:49Z</time>
  <course>0.02</course>
  <speed>0.31064449134018135</speed>
  <fix>3d</fix>
</trkpt>
<trkpt lat="40.0728377" lon="-105.2305827">
  <ele>1588.26</ele>
  <time>2026-08-27T18:28:49Z</time>
  <course>0.42</course>
  <speed>0.3138470965295043</speed>
  <fix>3d</fix>
</trkpt>
<trkpt lat="40.0728381" lon="-105.2305825">
  <ele>1588.04</ele>
  <time>2026-08-27T18:28:49Z</time>
  <course>215.29</course>
  <speed>0.29</speed>
  <fix>3d</fix>
</trkpt>
<trkpt lat="40.0728377" lon="-105.2305827">
  <ele>1588.28</ele>
  <time>2026-08-27T18:28:49Z</time>
  <course>0.47</course>
  <speed>0.3138470965295043</speed>
  <fix>3d</fix>
</trkpt>
<trkpt lat="40.0728373" lon="-105.2305831">
  <ele>1588.38</ele>
  <time>2026-08-27T18:28:49Z</time>
  <course>0.82</course>
  <speed>0.32249030993194194</speed>
  <fix>3d</fix>
</trkpt>
<trkpt lat="40.0728376" lon="-105.2305829">
  <ele>1588.15</ele>
  <time>2026-08-27T18:28:49Z</time>
  <course>213.54</course>
  <speed>0.3</speed>
  <fix>3d</fix>
</trkpt>
<trkpt lat="40.0728372" lon="-105.2305831">
  <ele>1588.4</ele>
  <time>2026-08-27T18:28:49Z</time>
  <course>0.88</course>
  <speed>0.3176476034853718</speed>
  <fix>3d</fix>
</trkpt>
<trkpt lat="40.0728368" lon="-105.2305834">
  <ele>1588.51</ele>
  <time>2026-08-27T18:28:49Z</time>
  <course>1.23</course>
  <speed>0.32649655434629016</speed>
  <fix>3d</fix>
</trkpt>
<trkpt lat="40.0728372" lon="-105.2305832">
  <ele>1588.28</ele>
  <time>2026-08-27T18:28:49Z</time>
  <course>212.04</course>
  <speed>0.3</speed>
  <fix>3d</fix>
</trkpt>
<trkpt lat="40.0728368" lon="-105.2305835">
  <ele>1588.51</ele>
  <time>2026-08-27T18:28:49Z</time>
  <course>1.24</course>
  <speed>0.32649655434629016</speed>
  <fix>3d</fix>
</trkpt>
<trkpt lat="40.0728363" lon="-105.2305838">
  <ele>1588.63</ele>
  <time>2026-08-27T18:28:49Z</time>
  <course>1.6</course>
  <speed>0.33541019662496846</speed>
  <fix>3d</fix>
</trkpt>
<trkpt lat="40.0728367" lon="-105.2305837">
  <ele>1588.4</ele>
  <time>2026-08-27T18:28:49Z</time>
  <course>210.73</course>
  <speed>0.31</speed>
  <fix>3d</fix>
</trkpt>
<trkpt lat="40.0728362" lon="-105.2305839">
  <ele>1588.65</ele>
  <time>2026-08-27T18:28:49Z</time>
  <course>1.66</course>
  <speed>0.33105890714493696</speed>
  <fix>3d</fix>
</trkpt>
<trkpt lat="40.0728358" lon="-105.2305842">
  <ele>1588.74</ele>
  <time>2026-08-27T18:28:49Z</time>
  <course>1.94</course>
  <speed>0.340147027033899</speed>
  <fix>3d</fix>
</trkpt>
<trkpt lat="40.0728362" lon="-105.230584">
  <ele>1588.53</ele>
  <time>2026-08-27T18:28:49Z</time>
  <course>209.53</course>
  <speed>0.31</speed>
  <fix>3d</fix>
</trkpt>
<trkpt lat="40.0728357" lon="-105.2305842">
  <ele>1588.76</ele>
  <time>2026-08-27T18:28:49Z</time>
  <course>1.99</course>
  <speed>0.340147027033899</speed>
  <fix>3d</fix>
</trkpt>
<trkpt lat="40.0728353" lon="-105.2305845">
  <ele>1588.86</ele>
  <time>2026-08-27T18:28:49Z</time>
  <course>0.93</course>
  <speed>0.340147027033899</speed>
  <fix>3d</fix>
</trkpt>
<trkpt lat="40.0728357" lon="-105.2305844">
  <ele>1588.65</ele>
  <time>2026-08-27T18:28:49Z</time>
  <course>208.47</course>
  <speed>0.32</speed>
  <fix>3d</fix>
</trkpt>
<trkpt lat="40.0728353" lon="-105.2305845">
  <ele>1588.86</ele>
  <time>2026-08-27T18:28:49Z</time>
  <course>0.93</course>
  <speed>0.340147027033899</speed>
  <fix>3d</fix>
</trkpt>
<trkpt lat="40.0728347" lon="-105.2305849">
  <ele>1588.99</ele>
  <time>2026-08-27T18:28:49Z</time>
  <course>1.14</course>
  <speed>0.3453983207834109</speed>
  <fix>3d</fix>
</trkpt>
<trkpt lat="40.0728352" lon="-105.2305848">
  <ele>1588.78</ele>
  <time>2026-08-27T18:28:49Z</time>
  <course>207.55</course>
  <speed>0.32</speed>
  <fix>3d</fix>
</trkpt>
<trkpt lat="40.0728347" lon="-105.2305849">
  <ele>1589.0</ele>
  <time>2026-08-27T18:28:49Z</time>
  <course>1.21</course>
  <speed>0.3453983207834109</speed>
  <fix>3d</fix>
</trkpt>
<trkpt lat="40.0728342" lon="-105.2305852">
  <ele>1589.12</ele>
  <time>2026-08-27T18:28:49Z</time>
  <course>1.61</course>
  <speed>0.3453983207834109</speed>
  <fix>3d</fix>
</trkpt>
<trkpt lat="40.0728347" lon="-105.2305851">
  <ele>1588.9</ele>
  <time>2026-08-27T18:28:49Z</time>
  <course>206.87</course>
  <speed>0.32</speed>
  <fix>3d</fix>
</trkpt>
<trkpt lat="40.0728342" lon="-105.2305852">
  <ele>1589.12</ele>
  <time>2026-08-27T18:28:49Z</time>
  <course>1.62</course>
  <speed>0.3453983207834109</speed>
  <fix>3d</fix>
</trkpt>
<trkpt lat="40.0728337" lon="-105.2305855">
  <ele>1589.25</ele>
  <time>2026-08-27T18:28:49Z</time>
  <course>1.96</course>
  <speed>0.3453983207834109</speed>
  <fix>3d</fix>
</trkpt>
<trkpt lat="40.0728342" lon="-105.2305854">
  <ele>1589.03</ele>
  <time>2026-08-27T18:28:49Z</time>
  <course>206.34</course>
  <speed>0.33</speed>
  <fix>3d</fix>
</trkpt>
<trkpt lat="40.0728336" lon="-105.2305856">
  <ele>1589.26</ele>
  <time>2026-08-27T18:28:49Z</time>
  <course>2.0</course>
  <speed>0.3453983207834109</speed>
  <fix>3d</fix>
</trkpt>
<trkpt lat="40.0728331" lon="-105.2305859">
  <ele>1589.37</ele>
  <time>2026-08-27T18:28:49Z</time>
  <course>2.21</course>
  <speed>0.3417601498127012</speed>
  <fix>3d</fix>
</trkpt>
<trkpt lat="40.0728336" lon="-105.2305858">
  <ele>1589.15</ele>
  <time>2026-08-27T18:28:49Z</time>
  <course>205.82</course>
  <speed>0.33</speed>
  <fix>3d</fix>
</trkpt>
<trkpt lat="40.0728331" lon="-105.2305859">
  <ele>1589.39</ele>
  <time>2026-08-27T18:28:49Z</time>
  <course>2.24</course>
  <speed>0.3417601498127012</speed>
  <fix>3d</fix>
</trkpt>
<trkpt lat="40.0728326" lon="-105.2305862">
  <ele>1589.49</ele>
  <time>2026-08-27T18:28:49Z</time>
  <course>2.39</course>
  <speed>0.3417601498127012</speed>
  <fix>3d</fix>
</trkpt>
<trkpt lat="40.072833" lon="-105.2305861">
  <ele>1589.28</ele>
  <time>2026-08-27T18:28:49Z</time>
  <course>205.28</course>
  <speed>0.34</speed>
  <fix>3d</fix>
</trkpt>
<trkpt lat="40.0728325" lon="-105.2305862">
  <ele>1589.51</ele>
  <time>2026-08-27T18:28:49Z</time>
  <course>2.42</course>
  <speed>0.3417601498127012</speed>
  <fix>3d</fix>
</trkpt>
<trkpt lat="40.0728321" lon="-105.2305865">
  <ele>1589.62</ele>
  <time>2026-08-27T18:28:49Z</time>
  <course>2.58</course>
  <speed>0.3417601498127012</speed>
  <fix>3d</fix>
</trkpt>
<trkpt lat="40.0728325" lon="-105.2305865">
  <ele>1589.4</ele>
  <time>2026-08-27T18:28:49Z</time>
  <course>204.72</course>
  <speed>0.35</speed>
  <fix>3d</fix>
</trkpt>
<trkpt lat="40.072832" lon="-105.2305866">
  <ele>1589.64</ele>
  <time>2026-08-27T18:28:49Z</time>
  <course>2.6</course>
  <speed>0.3417601498127012</speed>
  <fix>3d</fix>
</trkpt>
<trkpt lat="40.0728315" lon="-105.2305869">
  <ele>1589.75</ele>
  <time>2026-08-27T18:28:49Z</time>
  <course>2.73</course>
  <speed>0.3417601498127012</speed>
  <fix>3d</fix>
</trkpt>
<trkpt lat="40.0728319" lon="-105.2305868">
  <ele>1589.53</ele>
  <time>2026-08-27T18:28:49Z</time>
  <course>204.16</course>
  <speed>0.35</speed>
  <fix>3d</fix>
</trkpt>
<trkpt lat="40.0728315" lon="-105.2305869">
  <ele>1589.75</ele>
  <time>2026-08-27T18:28:49Z</time>
  <course>2.73</course>
  <speed>0.3417601498127012</speed>
  <fix>3d</fix>
</trkpt>
<trkpt lat="40.0728309" lon="-105.2305872">
  <ele>1589.87</ele>
  <time>2026-08-27T18:28:49Z</time>
  <course>2.9</course>
  <speed>0.3417601498127012</speed>
  <fix>3d</fix>
</trkpt>
<trkpt lat="40.0728314" lon="-105.2305872">
  <ele>1589.66</ele>
  <time>2026-08-27T18:28:49Z</time>
  <course>203.56</course>
  <speed>0.36</speed>
  <fix>3d</fix>
</trkpt>
<trkpt lat="40.0728309" lon="-105.2305873">
  <ele>1589.89</ele>
  <time>2026-08-27T18:28:49Z</time>
  <course>2.93</course>
  <speed>0.3417601498127012</speed>
  <fix>3d</fix>
</trkpt>
<trkpt lat="40.0728304" lon="-105.2305875">
  <ele>1590.0</ele>
  <time>2026-08-27T18:28:49Z</time>
  <course>3.11</course>
  <speed>0.35114099732158877</speed>
  <fix>3d</fix>
</trkpt>
<trkpt lat="40.0728307" lon="-105.2305875">
  <ele>1589.79</ele>
  <time>2026-08-27T18:28:49Z</time>
  <course>203.0</course>
  <speed>0.36</speed>
  <fix>3d</fix>
</trkpt>
<trkpt lat="40.0728303" lon="-105.2305876">
  <ele>1590.01</ele>
  <time>2026-08-27T18:28:49Z</time>
  <course>3.14</course>
  <speed>0.35114099732158877</speed>
  <fix>3d</fix>
</trkpt>
<trkpt lat="40.0728298" lon="-105.2305879">
  <ele>1590.12</ele>
  <time>2026-08-27T18:28:49Z</time>
  <course>3.32</course>
  <speed>0.35114099732158877</speed>
  <fix>3d</fix>
</trkpt>
<trkpt lat="40.0728301" lon="-105.2305878">
  <ele>1589.91</ele>
  <time>2026-08-27T18:28:49Z</time>
  <course>202.55</course>
  <speed>0.37</speed>
  <fix>3d</fix>
</trkpt>
<trkpt lat="40.0728297" lon="-105.2305879">
  <ele>1590.14</ele>
  <time>2026-08-27T18:28:49Z</time>
  <course>3.35</course>
  <speed>0.35114099732158877</speed>
  <fix>3d</fix>
</trkpt>
<trkpt lat="40.0728291" lon="-105.2305882">
  <ele>1590.24</ele>
  <time>2026-08-27T18:28:49Z</time>
  <course>3.51</course>
  <speed>0.3605551275463989</speed>
  <fix>3d</fix>
</trkpt>
<trkpt lat="40.0728295" lon="-105.2305882">
  <ele>1590.04</ele>
  <time>2026-08-27T18:28:49Z</time>
  <course>202.15</course>
  <speed>0.38</speed>
  <fix>3d</fix>
</trkpt>
<trkpt lat="40.072829" lon="-105.2305883">
  <ele>1590.26</ele>
  <time>2026-08-27T18:28:49Z</time>
  <course>3.54</course>
  <speed>0.3605551275463989</speed>
  <fix>3d</fix>
</trkpt>
<trkpt lat="40.0728285" lon="-105.2305886">
  <ele>1590.37</ele>
  <time>2026-08-27T18:28:49Z</time>
  <course>3.69</course>
  <speed>0.3605551275463989</speed>
  <fix>3d</fix>
</trkpt>
<trkpt lat="40.0728288" lon="-105.2305885">
  <ele>1590.17</ele>
  <time>2026-08-27T18:28:49Z</time>
  <course>201.79</course>
  <speed>0.38</speed>
  <fix>3d</fix>
</trkpt>
<trkpt lat="40.0728285" lon="-105.2305886">
  <ele>1590.37</ele>
  <time>2026-08-27T18:28:49Z</time>
  <course>3.69</course>
  <speed>0.3605551275463989</speed>
  <fix>3d</fix>
</trkpt>
<trkpt lat="40.0728278" lon="-105.2305889">
  <ele>1590.5</ele>
  <time>2026-08-27T18:28:49Z</time>
  <course>3.83</course>
  <speed>0.37336309405188944</speed>
  <fix>3d</fix>
</trkpt>
<trkpt lat="40.0728282" lon="-105.2305888">
  <ele>1590.3</ele>
  <time>2026-08-27T18:28:49Z</time>
  <course>201.53</course>
  <speed>0.38</speed>
  <fix>3d</fix>
</trkpt>
<trkpt lat="40.0728278" lon="-105.2305889">
  <ele>1590.51</ele>
  <time>2026-08-27T18:28:49Z</time>
  <course>3.85</course>
  <speed>0.37336309405188944</speed>
  <fix>3d</fix>
</trkpt>
<trkpt lat="40.0728272" lon="-105.2305892">
  <ele>1590.63</ele>
  <time>2026-08-27T18:28:49Z</time>
  <course>4.0</course>
  <speed>0.37336309405188944</speed>
  <fix>3d</fix>
</trkpt>
<trkpt lat="40.0728275" lon="-105.2305892">
  <ele>1590.42</ele>
  <time>2026-08-27T18:28:49Z</time>
  <course>201.33</course>
  <speed>0.39</speed>
  <fix>3d</fix>
</trkpt>
<trkpt lat="40.0728271" lon="-105.2305893">
  <ele>1590.64</ele>
  <time>2026-08-27T18:28:49Z</time>
  <course>4.02</course>
  <speed>0.37336309405188944</speed>
  <fix>3d</fix>
</trkpt>
<trkpt lat="40.0728265" lon="-105.2305896">
  <ele>1590.75</ele>
  <time>2026-08-27T18:28:49Z</time>
  <course>4.14</course>
  <speed>0.37336309405188944</speed>
  <fix>3d</fix>
</trkpt>
<trkpt lat="40.0728268" lon="-105.2305896">
  <ele>1590.55</ele>
  <time>2026-08-27T18:28:49Z</time>
  <course>201.2</course>
  <speed>0.39</speed>
  <fix>3d</fix>
</trkpt>
<trkpt lat="40.0728264" lon="-105.2305896">
  <ele>1590.77</ele>
  <time>2026-08-27T18:28:49Z</time>
  <course>4.16</course>
  <speed>0.37336309405188944</speed>
  <fix>3d</fix>
</trkpt>
<trkpt lat="40.0728259" lon="-105.2305899">
  <ele>1590.88</ele>
  <time>2026-08-27T18:28:49Z</time>
  <course>4.27</course>
  <speed>0.3827531841800928</speed>
  <fix>3d</fix>
</trkpt>
<trkpt lat="40.0728262" lon="-105.2305899">
  <ele>1590.68</ele>
  <time>2026-08-27T18:28:49Z</time>
  <course>201.08</course>
  <speed>0.39</speed>
  <fix>3d</fix>
</trkpt>
<trkpt lat="40.0728258" lon="-105.23059">
  <ele>1590.89</ele>
  <time>2026-08-27T18:28:49Z</time>
  <course>4.3</course>
  <speed>0.3827531841800928</speed>
  <fix>3d</fix>
</trkpt>
<trkpt lat="40.0728252" lon="-105.2305903">
  <ele>1591.0</ele>
  <time>2026-08-27T18:28:49Z</time>
  <course>4.43</course>
  <speed>0.3827531841800928</speed>
  <fix>3d</fix>
</trkpt>
<trkpt lat="40.0728255" lon="-105.2305902">
  <ele>1590.81</ele>
  <time>2026-08-27T18:28:49Z</time>
  <course>201.02</course>
  <speed>0.39</speed>
  <fix>3d</fix>
</trkpt>
<trkpt lat="40.0728251" lon="-105.2305903">
  <ele>1591.02</ele>
  <time>2026-08-27T18:28:49Z</time>
  <course>4.45</course>
  <speed>0.3827531841800928</speed>
  <fix>3d</fix>
</trkpt>
<trkpt lat="40.0728245" lon="-105.2305906">
  <ele>1591.13</ele>
  <time>2026-08-27T18:28:49Z</time>
  <course>4.56</course>
  <speed>0.3827531841800928</speed>
  <fix>3d</fix>
</trkpt>
<trkpt lat="40.0728249" lon="-105.2305906">
  <ele>1590.94</ele>
  <time>2026-08-27T18:28:49Z</time>
  <course>201.01</course>
  <speed>0.4</speed>
  <fix>3d</fix>
</trkpt>
<trkpt lat="40.0728245" lon="-105.2305906">
  <ele>1591.13</ele>
  <time>2026-08-27T18:28:49Z</time>
  <course>4.56</course>
  <speed>0.3827531841800928</speed>
  <fix>3d</fix>
</trkpt>
<trkpt lat="40.0728238" lon="-105.2305909">
  <ele>1591.26</ele>
  <time>2026-08-27T18:28:49Z</time>
  <course>4.69</course>
  <speed>0.3827531841800928</speed>
  <fix>3d</fix>
</trkpt>
<trkpt lat="40.0728242" lon="-105.2305909">
  <ele>1591.06</ele>
  <time>2026-08-27T18:28:49Z</time>
  <course>201.0</course>
  <speed>0.4</speed>
  <fix>3d</fix>
</trkpt>
<trkpt lat="40.0728238" lon="-105.230591">
  <ele>1591.27</ele>
  <time>2026-08-27T18:28:49Z</time>
  <course>4.7</course>
  <speed>0.3827531841800928</speed>
  <fix>3d</fix>
</trkpt>
<trkpt lat="40.0728232" lon="-105.2305913">
  <ele>1591.38</ele>
  <time>2026-08-27T18:28:49Z</time>
  <course>4.81</course>
  <speed>0.3921734310225516</speed>
  <fix>3d</fix>
</trkpt>
<trkpt lat="40.0728235" lon="-105.2305912">
  <ele>1591.19</ele>
  <time>2026-08-27T18:28:49Z</time>
  <course>201.04</course>
  <speed>0.4</speed>
  <fix>3d</fix>
</trkpt>
<trkpt lat="40.0728231" lon="-105.2305913">
  <ele>1591.4</ele>
  <time>2026-08-27T18:28:49Z</time>
  <course>4.84</course>
  <speed>0.3921734310225516</speed>
  <fix>3d</fix>
</trkpt>
<trkpt lat="40.0728225" lon="-105.2305916">
  <ele>1591.51</ele>
  <time>2026-08-27T18:28:49Z</time>
  <course>4.9</course>
  <speed>0.3921734310225516</speed>
  <fix>3d</fix>
</trkpt>
<trkpt lat="40.0728228" lon="-105.2305916">
  <ele>1591.32</ele>
  <time>2026-08-27T18:28:49Z</time>
  <course>201.1</course>
  <speed>0.4</speed>
  <fix>3d</fix>
</trkpt>
<trkpt lat="40.0728224" lon="-105.2305917">
  <ele>1591.53</ele>
  <time>2026-08-27T18:28:49Z</time>
  <course>4.92</course>
  <speed>0.3921734310225516</speed>
  <fix>3d</fix>
</trkpt>
<trkpt lat="40.0728218" lon="-105.230592">
  <ele>1591.64</ele>
  <time>2026-08-27T18:28:49Z</time>
  <course>5.04</course>
  <speed>0.3921734310225516</speed>
  <fix>3d</fix>
</trkpt>
<trkpt lat="40.0728222" lon="-105.2305919">
  <ele>1591.44</ele>
  <time>2026-08-27T18:28:49Z</time>
  <course>201.23</course>
  <speed>0.4</speed>
  <fix>3d</fix>
</trkpt>
<trkpt lat="40.0728218" lon="-105.230592">
  <ele>1591.64</ele>
  <time>2026-08-27T18:28:49Z</time>
  <course>5.04</course>
  <speed>0.3921734310225516</speed>
  <fix>3d</fix>
</trkpt>
<trkpt lat="40.0728211" lon="-105.2305923">
  <ele>1591.77</ele>
  <time>2026-08-27T18:28:49Z</time>
  <course>5.17</course>
  <speed>0.3921734310225516</speed>
  <fix>3d</fix>
</trkpt>
<trkpt lat="40.0728215" lon="-105.2305923">
  <ele>1591.57</ele>
  <time>2026-08-27T18:28:49Z</time>
  <course>201.41</course>
  <speed>0.4</speed>
  <fix>3d</fix>
</trkpt>
<trkpt lat="40.072821" lon="-105.2305924">
  <ele>1591.79</ele>
  <time>2026-08-27T18:28:49Z</time>
  <course>5.19</course>
  <speed>0.3921734310225516</speed>
  <fix>3d</fix>
</trkpt>
<trkpt lat="40.0728204" lon="-105.2305927">
  <ele>1591.9</ele>
  <time>2026-08-27T18:28:49Z</time>
  <course>5.29</course>
  <speed>0.3921734310225516</speed>
  <fix>3d</fix>
</trkpt>
<trkpt lat="40.0728208" lon="-105.2305926">
  <ele>1591.7</ele>
  <time>2026-08-27T18:28:49Z</time>
  <course>201.58</course>
  <speed>0.4</speed>
  <fix>3d</fix>
</trkpt>
<trkpt lat="40.0728204" lon="-105.2305927">
  <ele>1591.9</ele>
  <time>2026-08-27T18:28:49Z</time>
  <course>5.29</course>
  <speed>0.3921734310225516</speed>
  <fix>3d</fix>
</trkpt>
<trkpt lat="40.0728198" lon="-105.230593">
  <ele>1592.02</ele>
  <time>2026-08-27T18:28:49Z</time>
  <course>5.4</course>
  <speed>0.3921734310225516</speed>
  <fix>3d</fix>
</trkpt>
<trkpt lat="40.0728201" lon="-105.230593">
  <ele>1591.82</ele>
  <time>2026-08-27T18:28:49Z</time>
  <course>201.76</course>
  <speed>0.4</speed>
  <fix>3d</fix>
</trkpt>
<trkpt lat="40.0728196" lon="-105.2305931">
  <ele>1592.04</ele>
  <time>2026-08-27T18:28:49Z</time>
  <course>5.42</course>
  <speed>0.3921734310225516</speed>
  <fix>3d</fix>
</trkpt>
<trkpt lat="40.0728191" lon="-105.2305934">
  <ele>1592.14</ele>
  <time>2026-08-27T18:28:49Z</time>
  <course>5.51</course>
  <speed>0.3921734310225516</speed>
  <fix>3d</fix>
</trkpt>
<trkpt lat="40.0728194" lon="-105.2305933">
  <ele>1591.95</ele>
  <time>2026-08-27T18:28:49Z</time>
  <course>201.94</course>
  <speed>0.4</speed>
  <fix>3d</fix>
</trkpt>
<trkpt lat="40.072819" lon="-105.2305934">
  <ele>1592.16</ele>
  <time>2026-08-27T18:28:49Z</time>
  <course>5.52</course>
  <speed>0.3921734310225516</speed>
  <fix>3d</fix>
</trkpt>
<trkpt lat="40.0728184" lon="-105.2305937">
  <ele>1592.26</ele>
  <time>2026-08-27T18:28:49Z</time>
  <course>5.61</course>
  <speed>0.3921734310225516</speed>
  <fix>3d</fix>
</trkpt>
<trkpt lat="40.0728188" lon="-105.2305936">
  <ele>1592.07</ele>
  <time>2026-08-27T18:28:49Z</time>
  <course>202.14</course>
  <speed>0.4</speed>
  <fix>3d</fix>
</trkpt>
<trkpt lat="40.0728184" lon="-105.2305937">
  <ele>1592.27</ele>
  <time>2026-08-27T18:28:49Z</time>
  <course>5.61</course>
  <speed>0.3921734310225516</speed>
  <fix>3d</fix>
</trkpt>
<trkpt lat="40.0728177" lon="-105.2305941">
  <ele>1592.39</ele>
  <time>2026-08-27T18:28:49Z</time>
  <course>5.69</course>
  <speed>0.3921734310225516</speed>
  <fix>3d</fix>
</trkpt>
<trkpt lat="40.0728181" lon="-105.230594">
  <ele>1592.2</ele>
  <time>2026-08-27T18:28:49Z</time>
  <course>202.34</course>
  <speed>0.4</speed>
  <fix>3d</fix>
</trkpt>
<trkpt lat="40.0728177" lon="-105.2305941">
  <ele>1592.4</ele>
  <time>2026-08-27T18:28:49Z</time>
  <course>5.7</course>
  <speed>0.3921734310225516</speed>
  <fix>3d</fix>
</trkpt>
<trkpt lat="40.0728171" lon="-105.2305944">
  <ele>1592.51</ele>
  <time>2026-08-27T18:28:49Z</time>
  <course>5.79</course>
  <speed>0.3827531841800928</speed>
  <fix>3d</fix>
</trkpt>
<trkpt lat="40.0728175" lon="-105.2305944">
  <ele>1592.32</ele>
  <time>2026-08-27T18:28:49Z</time>
  <course>202.62</course>
  <speed>0.39</speed>
  <fix>3d</fix>
</trkpt>
<trkpt lat="40.072817" lon="-105.2305945">
  <ele>1592.53</ele>
  <time>2026-08-27T18:28:49Z</time>
  <course>5.81</course>
  <speed>0.3827531841800928</speed>
  <fix>3d</fix>
</trkpt>
<trkpt lat="40.0728164" lon="-105.2305948">
  <ele>1592.63</ele>
  <time>2026-08-27T18:28:49Z</time>
  <course>5.89</course>
  <speed>0.3827531841800928</speed>
  <fix>3d</fix>
</trkpt>
<trkpt lat="40.0728168" lon="-105.2305947">
  <ele>1592.45</ele>
  <time>2026-08-27T18:28:49Z</time>
  <course>202.95</course>
  <speed>0.39</speed>
  <fix>3d</fix>
</trkpt>
<trkpt lat="40.0728163" lon="-105.2305948">
  <ele>1592.65</ele>
  <time>2026-08-27T18:28:49Z</time>
  <course>5.9</course>
  <speed>0.3827531841800928</speed>
  <fix>3d</fix>
</trkpt>
<trkpt lat="40.0728158" lon="-105.2305951">
  <ele>1592.76</ele>
  <time>2026-08-27T18:28:49Z</time>
  <course>5.97</course>
  <speed>0.3827531841800928</speed>
  <fix>3d</fix>
</trkpt>
<trkpt lat="40.0728161" lon="-105.2305951">
  <ele>1592.57</ele>
  <time>2026-08-27T18:28:49Z</time>
  <course>203.26</course>
  <speed>0.39</speed>
  <fix>3d</fix>
</trkpt>
<trkpt lat="40.0728157" lon="-105.2305952">
  <ele>1592.78</ele>
  <time>2026-08-27T18:28:49Z</time>
  <course>5.99</course>
  <speed>0.3827531841800928</speed>
  <fix>3d</fix>
</trkpt>
<trkpt lat="40.0728151" lon="-105.2305955">
  <ele>1592.89</ele>
  <time>2026-08-27T18:28:49Z</time>
  <course>6.09</course>
  <speed>0.3827531841800928</speed>
  <fix>3d</fix>
</trkpt>
<trkpt lat="40.0728155" lon="-105.2305954">
  <ele>1592.7</ele>
  <time>2026-08-27T18:28:49Z</time>
  <course>203.61</course>
  <speed>0.39</speed>
  <fix>3d</fix>
</trkpt>
<trkpt lat="40.0728151" lon="-105.2305955">
  <ele>1592.89</ele>
  <time>2026-08-27T18:28:49Z</time>
  <course>6.09</course>
  <speed>0.3827531841800928</speed>
  <fix>3d</fix>
</trkpt>
<trkpt lat="40.0728145" lon="-105.2305958">
  <ele>1593.02</ele>
  <time>2026-08-27T18:28:49Z</time>
  <course>6.16</course>
  <speed>0.3827531841800928</speed>
  <fix>3d</fix>
</trkpt>
<trkpt lat="40.0728149" lon="-105.2305959">
  <ele>1592.83</ele>
  <time>2026-08-27T18:28:49Z</time>
  <course>203.96</course>
  <speed>0.39</speed>
  <fix>3d</fix>
</trkpt>
<trkpt lat="40.0728144" lon="-105.2305959">
  <ele>1593.03</ele>
  <time>2026-08-27T18:28:49Z</time>
  <course>6.17</course>
  <speed>0.3827531841800928</speed>
  <fix>3d</fix>
</trkpt>
<trkpt lat="40.0728138" lon="-105.2305962">
  <ele>1593.14</ele>
  <time>2026-08-27T18:28:49Z</time>
  <course>6.27</course>
  <speed>0.37336309405188944</speed>
  <fix>3d</fix>
</trkpt>
<trkpt lat="40.0728142" lon="-105.2305963">
  <ele>1592.96</ele>
  <time>2026-08-27T18:28:49Z</time>
  <course>204.38</course>
  <speed>0.38</speed>
  <fix>3d</fix>
</trkpt>
<trkpt lat="40.0728138" lon="-105.2305962">
  <ele>1593.15</ele>
  <time>2026-08-27T18:28:49Z</time>
  <course>6.28</course>
  <speed>0.37336309405188944</speed>
  <fix>3d</fix>
</trkpt>
<trkpt lat="40.0728132" lon="-105.2305966">
  <ele>1593.27</ele>
  <time>2026-08-27T18:28:49Z</time>
  <course>6.35</course>
  <speed>0.37336309405188944</speed>
  <fix>3d</fix>
</trkpt>
<trkpt lat="40.0728136" lon="-105.2305966">
  <ele>1593.08</ele>
  <time>2026-08-27T18:28:49Z</time>
  <course>204.81</course>
  <speed>0.38</speed>
  <fix>3d</fix>
</trkpt>
<trkpt lat="40.0728131" lon="-105.2305966">
  <ele>1593.28</ele>
  <time>2026-08-27T18:28:49Z</time>
  <course>6.36</course>
  <speed>0.37336309405188944</speed>
  <fix>3d</fix>
</trkpt>
<trkpt lat="40.0728126" lon="-105.230597">
  <ele>1593.39</ele>
  <time>2026-08-27T18:28:49Z</time>
  <course>6.41</course>
  <speed>0.37336309405188944</speed>
  <fix>3d</fix>
</trkpt>
<trkpt lat="40.0728129" lon="-105.2305969">
  <ele>1593.21</ele>
  <time>2026-08-27T18:28:49Z</time>
  <course>205.16</course>
  <speed>0.38</speed>
  <fix>3d</fix>
</trkpt>
<trkpt lat="40.0728125" lon="-105.230597">
  <ele>1593.41</ele>
  <time>2026-08-27T18:28:49Z</time>
  <course>6.42</course>
  <speed>0.37336309405188944</speed>
  <fix>3d</fix>
</trkpt>
<trkpt lat="40.072812" lon="-105.2305973">
  <ele>1593.52</ele>
  <time>2026-08-27T18:28:49Z</time>
  <course>6.51</course>
  <speed>0.37336309405188944</speed>
  <fix>3d</fix>
</trkpt>
<trkpt lat="40.0728124" lon="-105.2305973">
  <ele>1593.34</ele>
  <time>2026-08-27T18:28:49Z</time>
  <course>205.53</course>
  <speed>0.38</speed>
  <fix>3d</fix>
</trkpt>
<trkpt lat="40.0728119" lon="-105.2305973">
  <ele>1593.52</ele>
  <time>2026-08-27T18:28:49Z</time>
  <course>6.51</course>
  <speed>0.37336309405188944</speed>
  <fix>3d</fix>
</trkpt>
<trkpt lat="40.0728113" lon="-105.2305977">
  <ele>1593.65</ele>
  <time>2026-08-27T18:28:49Z</time>
  <course>6.6</course>
  <speed>0.3640054944640259</speed>
  <fix>3d</fix>
</trkpt>
<trkpt lat="40.0728117" lon="-105.2305978">
  <ele>1593.47</ele>
  <time>2026-08-27T18:28:49Z</time>
  <course>205.95</course>
  <speed>0.37</speed>
  <fix>3d</fix>
</trkpt>
<trkpt lat="40.0728113" lon="-105.2305978">
  <ele>1593.66</ele>
  <time>2026-08-27T18:28:49Z</time>
  <course>6.6</course>
  <speed>0.3640054944640259</speed>
  <fix>3d</fix>
</trkpt>
<trkpt lat="40.0728107" lon="-105.2305981">
  <ele>1593.78</ele>
  <time>2026-08-27T18:28:49Z</time>
  <course>6.69</course>
  <speed>0.3640054944640259</speed>
  <fix>3d</fix>
</trkpt>
<trkpt lat="40.0728112" lon="-105.2305982">
  <ele>1593.59</ele>
  <time>2026-08-27T18:28:49Z</time>
  <course>206.42</course>
  <speed>0.37</speed>
  <fix>3d</fix>
</trkpt>
<trkpt lat="40.0728107" lon="-105.2305982">
  <ele>1593.8</ele>
  <time>2026-08-27T18:28:49Z</time>
  <course>6.7</course>
  <speed>0.3640054944640259</speed>
  <fix>3d</fix>
</trkpt>
<trkpt lat="40.0728101" lon="-105.2305985">
  <ele>1593.91</ele>
  <time>2026-08-27T18:28:49Z</time>
  <course>6.78</course>
  <speed>0.3640054944640259</speed>
  <fix>3d</fix>
</trkpt>
<trkpt lat="40.0728105" lon="-105.2305985">
  <ele>1593.72</ele>
  <time>2026-08-27T18:28:49Z</time>
  <course>206.88</course>
  <speed>0.37</speed>
  <fix>3d</fix>
</trkpt>
<trkpt lat="40.07281" lon="-105.2305986">
  <ele>1593.94</ele>
  <time>2026-08-27T18:28:49Z</time>
  <course>6.79</course>
  <speed>0.3640054944640259</speed>
  <fix>3d</fix>
</trkpt>
<trkpt lat="40.0728096" lon="-105.2305989">
  <ele>1594.04</ele>
  <time>2026-08-27T18:28:49Z</time>
  <course>6.86</course>
  <speed>0.3584689665786984</speed>
  <fix>3d</fix>
</trkpt>
<trkpt lat="40.07281" lon="-105.230599">
  <ele>1593.85</ele>
  <time>2026-08-27T18:28:49Z</time>
  <course>207.32</course>
  <speed>0.36</speed>
  <fix>3d</fix>
</trkpt>
<trkpt lat="40.0728095" lon="-105.2305989">
  <ele>1594.06</ele>
  <time>2026-08-27T18:28:49Z</time>
  <course>6.88</course>
  <speed>0.3584689665786984</speed>
  <fix>3d</fix>
</trkpt>
<trkpt lat="40.072809" lon="-105.2305993">
  <ele>1594.17</ele>
  <time>2026-08-27T18:28:49Z</time>
  <course>6.94</course>
  <speed>0.3584689665786984</speed>
  <fix>3d</fix>
</trkpt>
<trkpt lat="40.0728094" lon="-105.2305993">
  <ele>1593.97</ele>
  <time>2026-08-27T18:28:49Z</time>
  <course>207.74</course>
  <speed>0.36</speed>
  <fix>3d</fix>
</trkpt>
<trkpt lat="40.072809" lon="-105.2305993">
  <ele>1594.17</ele>
  <time>2026-08-27T18:28:49Z</time>
  <course>6.94</course>
  <speed>0.3584689665786984</speed>
  <fix>3d</fix>
</trkpt>
<trkpt lat="40.0728084" lon="-105.2305997">
  <ele>1594.29</ele>
  <time>2026-08-27T18:28:49Z</time>
  <course>7.03</course>
  <speed>0.3584689665786984</speed>
  <fix>3d</fix>
</trkpt>
<trkpt lat="40.0728088" lon="-105.2305997">
  <ele>1594.1</ele>
  <time>2026-08-27T18:28:49Z</time>
  <course>208.17</course>
  <speed>0.36</speed>
  <fix>3d</fix>
</trkpt>
<trkpt lat="40.0728083" lon="-105.2305997">
  <ele>1594.31</ele>
  <time>2026-08-27T18:28:49Z</time>
  <course>7.04</course>
  <speed>0.3584689665786984</speed>
  <fix>3d</fix>
</trkpt>
<trkpt lat="40.0728078" lon="-105.2306001">
  <ele>1594.42</ele>
  <time>2026-08-27T18:28:49Z</time>
  <course>7.08</course>
  <speed>0.34928498393145957</speed>
  <fix>3d</fix>
</trkpt>
<trkpt lat="40.0728082" lon="-105.2306002">
  <ele>1594.22</ele>
  <time>2026-08-27T18:28:49Z</time>
  <course>208.59</course>
  <speed>0.35</speed>
  <fix>3d</fix>
</trkpt>
<trkpt lat="40.0728077" lon="-105.2306001">
  <ele>1594.43</ele>
  <time>2026-08-27T18:28:49Z</time>
  <course>7.09</course>
  <speed>0.34928498393145957</speed>
  <fix>3d</fix>
</trkpt>
<trkpt lat="40.0728073" lon="-105.2306005">
  <ele>1594.54</ele>
  <time>2026-08-27T18:28:49Z</time>
  <course>7.15</course>
  <speed>0.34928498393145957</speed>
  <fix>3d</fix>
</trkpt>
<trkpt lat="40.0728076" lon="-105.2306006">
  <ele>1594.34</ele>
  <time>2026-08-27T18:28:49Z</time>
  <course>209.02</course>
  <speed>0.35</speed>
  <fix>3d</fix>
</trkpt>
<trkpt lat="40.0728072" lon="-105.2306005">
  <ele>1594.56</ele>
  <time>2026-08-27T18:28:49Z</time>
  <course>7.15</course>
  <speed>0.34928498393145957</speed>
  <fix>3d</fix>
</trkpt>
<trkpt lat="40.0728067" lon="-105.2306009">
  <ele>1594.67</ele>
  <time>2026-08-27T18:28:49Z</time>
  <course>7.21</course>
  <speed>0.340147027033899</speed>
  <fix>3d</fix>
</trkpt>
<trkpt lat="40.072807" lon="-105.2306009">
  <ele>1594.46</ele>
  <time>2026-08-27T18:28:49Z</time>
  <course>209.51</course>
  <speed>0.35</speed>
  <fix>3d</fix>
</trkpt>
<trkpt lat="40.0728066" lon="-105.230601">
  <ele>1594.68</ele>
  <time>2026-08-27T18:28:49Z</time>
  <course>7.23</course>
  <speed>0.340147027033899</speed>
  <fix>3d</fix>
</trkpt>
<trkpt lat="40.0728062" lon="-105.2306013">
  <ele>1594.79</ele>
  <time>2026-08-27T18:28:49Z</time>
  <course>7.27</course>
  <speed>0.340147027033899</speed>
  <fix>3d</fix>
</trkpt>
<trkpt lat="40.0728065" lon="-105.2306014">
  <ele>1594.59</ele>
  <time>2026-08-27T18:28:49Z</time>
  <course>209.95</course>
  <speed>0.34</speed>
  <fix>3d</fix>
</trkpt>
<trkpt lat="40.0728061" lon="-105.2306014">
  <ele>1594.81</ele>
  <time>2026-08-27T18:28:49Z</time>
  <course>7.28</course>
  <speed>0.340147027033899</speed>
  <fix>3d</fix>
</trkpt>
<trkpt lat="40.0728056" lon="-105.2306017">
  <ele>1594.91</ele>
  <time>2026-08-27T18:28:49Z</time>
  <course>7.34</course>
  <speed>0.340147027033899</speed>
  <fix>3d</fix>
</trkpt>
<trkpt lat="40.072806" lon="-105.2306017">
  <ele>1594.71</ele>
  <time>2026-08-27T18:28:49Z</time>
  <course>210.32</course>
  <speed>0.34</speed>
  <fix>3d</fix>
</trkpt>
<trkpt lat="40.0728056" lon="-105.2306017">
  <ele>1594.91</ele>
  <time>2026-08-27T18:28:49Z</time>
  <course>7.34</course>
  <speed>0.340147027033899</speed>
  <fix>3d</fix>
</trkpt>
<trkpt lat="40.0728051" lon="-105.2306021">
  <ele>1595.03</ele>
  <time>2026-08-27T18:28:50Z</time>
  <course>7.39</course>
  <speed>0.33105890714493696</speed>
  <fix>3d</fix>
</trkpt>
<trkpt lat="40.0728055" lon="-105.2306021">
  <ele>1594.83</ele>
  <time>2026-08-27T18:28:50Z</time>
  <course>210.68</course>
  <speed>0.33</speed>
  <fix>3d</fix>
</trkpt>
<trkpt lat="40.072805" lon="-105.2306022">
  <ele>1595.04</ele>
  <time>2026-08-27T18:28:50Z</time>
  <course>7.4</course>
  <speed>0.33105890714493696</speed>
  <fix>3d</fix>
</trkpt>
<trkpt lat="40.0728046" lon="-105.2306025">
  <ele>1595.15</ele>
  <time>2026-08-27T18:28:50Z</time>
  <course>7.45</course>
  <speed>0.33105890714493696</speed>
  <fix>3d</fix>
</trkpt>
<trkpt lat="40.0728049" lon="-105.2306026">
  <ele>1594.95</ele>
  <time>2026-08-27T18:28:50Z</time>
  <course>211.04</course>
  <speed>0.33</speed>
  <fix>3d</fix>
</trkpt>
<trkpt lat="40.0728045" lon="-105.2306026">
  <ele>1595.17</ele>
  <time>2026-08-27T18:28:50Z</time>
  <course>7.46</course>
  <speed>0.33105890714493696</speed>
  <fix>3d</fix>
</trkpt>
<trkpt lat="40.072804" lon="-105.2306029">
  <ele>1595.27</ele>
  <time>2026-08-27T18:28:50Z</time>
  <course>7.52</course>
  <speed>0.32202484376209234</speed>
  <fix>3d</fix>
</trkpt>
<trkpt lat="40.0728044" lon="-105.230603">
  <ele>1595.08</ele>
  <time>2026-08-27T18:28:50Z</time>
  <course>211.47</course>
  <speed>0.33</speed>
  <fix>3d</fix>
</trkpt>
<trkpt lat="40.0728035" lon="-105.2306033">
  <ele>1595.39</ele>
  <time>2026-08-27T18:28:50Z</time>
  <course>7.86</course>
  <speed>0.32649655434629016</speed>
  <fix>3d</fix>
</trkpt>
<trkpt lat="40.0728039" lon="-105.2306033">
  <ele>1595.2</ele>
  <time>2026-08-27T18:28:50Z</time>
  <course>212.19</course>
  <speed>0.32</speed>
  <fix>3d</fix>
</trkpt>
<trkpt lat="40.072803" lon="-105.2306038">
  <ele>1595.48</ele>
  <time>2026-08-27T18:28:50Z</time>
  <course>8.49</course>
  <speed>0.31304951684997057</speed>
  <fix>3d</fix>
</trkpt>
<trkpt lat="40.0728034" lon="-105.2306038">
  <ele>1595.31</ele>
  <time>2026-08-27T18:28:50Z</time>
  <course>212.97</course>
  <speed>0.32</speed>
  <fix>3d</fix>
</trkpt>
<trkpt lat="40.0728026" lon="-105.2306042">
  <ele>1595.55</ele>
  <time>2026-08-27T18:28:50Z</time>
  <course>8.8</course>
  <speed>0.31304951684997057</speed>
  <fix>3d</fix>
</trkpt>
<trkpt lat="40.0728029" lon="-105.2306043">
  <ele>1595.39</ele>
  <time>2026-08-27T18:28:50Z</time>
  <course>213.33</course>
  <speed>0.31</speed>
  <fix>3d</fix>
</trkpt>
<trkpt lat="40.0728021" lon="-105.2306046">
  <ele>1595.59</ele>
  <time>2026-08-27T18:28:50Z</time>
  <course>8.33</course>
  <speed>0.29966648127543394</speed>
  <fix>3d</fix>
</trkpt>
<trkpt lat="40.0728024" lon="-105.2306046">
  <ele>1595.45</ele>
  <time>2026-08-27T18:28:50Z</time>
  <course>213.11</course>
  <speed>0.31</speed>
  <fix>3d</fix>
</trkpt>
<trkpt lat="40.0728016" lon="-105.2306049">
  <ele>1595.62</ele>
  <time>2026-08-27T18:28:50Z</time>
  <course>7.87</course>
  <speed>0.29966648127543394</speed>
  <fix>3d</fix>
</trkpt>
<trkpt lat="40.072802" lon="-105.230605">
  <ele>1595.48</ele>
  <time>2026-08-27T18:28:50Z</time>
  <course>212.77</course>
  <speed>0.3</speed>
  <fix>3d</fix>
</trkpt>
<trkpt lat="40.0728012" lon="-105.2306053">
  <ele>1595.63</ele>
  <time>2026-08-27T18:28:50Z</time>
  <course>7.71</course>
  <speed>0.2863564212655271</speed>
  <fix>3d</fix>
</trkpt>
<trkpt lat="40.0728016" lon="-105.2306054">
  <ele>1595.51</ele>
  <time>2026-08-27T18:28:50Z</time>
  <course>212.54</course>
  <speed>0.29</speed>
  <fix>3d</fix>
</trkpt>
<trkpt lat="40.0728007" lon="-105.2306057">
  <ele>1595.64</ele>
  <time>2026-08-27T18:28:50Z</time>
  <course>7.65</course>
  <speed>0.2863564212655271</speed>
  <fix>3d</fix>
</trkpt>
<trkpt lat="40.0728011" lon="-105.2306057">
  <ele>1595.52</ele>
  <time>2026-08-27T18:28:50Z</time>
  <course>212.11</course>
  <speed>0.28</speed>
  <fix>3d</fix>
</trkpt>
<trkpt lat="40.0728003" lon="-105.230606">
  <ele>1595.65</ele>
  <time>2026-08-27T18:28:50Z</time>
  <course>7.64</course>
  <speed>0.27313000567495327</speed>
  <fix>3d</fix>
</trkpt>
<trkpt lat="40.0728007" lon="-105.2306061">
  <ele>1595.53</ele>
  <time>2026-08-27T18:28:50Z</time>
  <course>211.54</course>
  <speed>0.27</speed>
  <fix>3d</fix>
</trkpt>
<trkpt lat="40.0727999" lon="-105.2306063">
  <ele>1595.65</ele>
  <time>2026-08-27T18:28:50Z</time>
  <course>7.65</course>
  <speed>0.27313000567495327</speed>
  <fix>3d</fix>
</trkpt>
<trkpt lat="40.0728003" lon="-105.2306064">
  <ele>1595.54</ele>
  <time>2026-08-27T18:28:50Z</time>
  <course>210.93</course>
  <speed>0.27</speed>
  <fix>3d</fix>
</trkpt>
<trkpt lat="40.0727995" lon="-105.2306066">
  <ele>1595.66</ele>
  <time>2026-08-27T18:28:50Z</time>
  <course>7.67</course>
  <speed>0.2692582403567252</speed>
  <fix>3d</fix>
</trkpt>
<trkpt lat="40.0727998" lon="-105.2306068">
  <ele>1595.55</ele>
  <time>2026-08-27T18:28:50Z</time>
  <course>210.33</course>
  <speed>0.26</speed>
  <fix>3d</fix>
</trkpt>
<trkpt lat="40.0727991" lon="-105.2306069">
  <ele>1595.67</ele>
  <time>2026-08-27T18:28:50Z</time>
  <course>7.69</course>
  <speed>0.26</speed>
  <fix>3d</fix>
</trkpt>
<trkpt lat="40.0727995" lon="-105.2306071">
  <ele>1595.55</ele>
  <time>2026-08-27T18:28:50Z</time>
  <course>209.76</course>
  <speed>0.25</speed>
  <fix>3d</fix>
</trkpt>
<trkpt lat="40.0727987" lon="-105.2306072">
  <ele>1595.67</ele>
  <time>2026-08-27T18:28:50Z</time>
  <course>7.71</course>
  <speed>0.25632011235952595</speed>
  <fix>3d</fix>
</trkpt>
<trkpt lat="40.0727991" lon="-105.2306074">
  <ele>1595.56</ele>
  <time>2026-08-27T18:28:50Z</time>
  <course>209.21</course>
  <speed>0.25</speed>
  <fix>3d</fix>
</trkpt>
<trkpt lat="40.0727983" lon="-105.2306075">
  <ele>1595.67</ele>
  <time>2026-08-27T18:28:50Z</time>
  <course>7.73</course>
  <speed>0.24698178070456936</speed>
  <fix>3d</fix>
</trkpt>
<trkpt lat="40.0727986" lon="-105.2306077">
  <ele>1595.56</ele>
  <time>2026-08-27T18:28:50Z</time>
  <course>208.76</course>
  <speed>0.24</speed>
  <fix>3d</fix>
</trkpt>
<trkpt lat="40.0727979" lon="-105.2306078">
  <ele>1595.67</ele>
  <time>2026-08-27T18:28:50Z</time>
  <course>7.76</course>
  <speed>0.2340939982143925</speed>
  <fix>3d</fix>
</trkpt>
<trkpt lat="40.0727983" lon="-105.2306079">
  <ele>1595.56</ele>
  <time>2026-08-27T18:28:50Z</time>
  <course>208.44</course>
  <speed>0.23</speed>
  <fix>3d</fix>
</trkpt>
<trkpt lat="40.0727976" lon="-105.2306081">
  <ele>1595.68</ele>
  <time>2026-08-27T18:28:50Z</time>
  <course>7.78</course>
  <speed>0.2340939982143925</speed>
  <fix>3d</fix>
</trkpt>
<trkpt lat="40.0727979" lon="-105.2306082">
  <ele>1595.56</ele>
  <time>2026-08-27T18:28:50Z</time>
  <course>208.19</course>
  <speed>0.23</speed>
  <fix>3d</fix>
</trkpt>
<trkpt lat="40.0727972" lon="-105.2306083">
  <ele>1595.68</ele>
  <time>2026-08-27T18:28:50Z</time>
  <course>7.79</course>
  <speed>0.22472205054244232</speed>
  <fix>3d</fix>
</trkpt>
<trkpt lat="40.0727975" lon="-105.2306084">
  <ele>1595.56</ele>
  <time>2026-08-27T18:28:50Z</time>
  <course>207.94</course>
  <speed>0.22</speed>
  <fix>3d</fix>
</trkpt>
<trkpt lat="40.0727969" lon="-105.2306085">
  <ele>1595.68</ele>
  <time>2026-08-27T18:28:50Z</time>
  <course>7.84</course>
  <speed>0.22135943621178655</speed>
  <fix>3d</fix>
</trkpt>
<trkpt lat="40.0727971" lon="-105.2306087">
  <ele>1595.56</ele>
  <time>2026-08-27T18:28:50Z</time>
  <course>207.78</course>
  <speed>0.21</speed>
  <fix>3d</fix>
</trkpt>
<trkpt lat="40.0727965" lon="-105.2306088">
  <ele>1595.68</ele>
  <time>2026-08-27T18:28:50Z</time>
  <course>7.85</course>
  <speed>0.21189620100417092</speed>
  <fix>3d</fix>
</trkpt>
<trkpt lat="40.0727968" lon="-105.2306089">
  <ele>1595.56</ele>
  <time>2026-08-27T18:28:50Z</time>
  <course>207.69</course>
  <speed>0.2</speed>
  <fix>3d</fix>
</trkpt>
<trkpt lat="40.0727962" lon="-105.230609">
  <ele>1595.68</ele>
  <time>2026-08-27T18:28:50Z</time>
  <course>7.86</course>
  <speed>0.20248456731316586</speed>
  <fix>3d</fix>
</trkpt>
<trkpt lat="40.0727965" lon="-105.2306092">
  <ele>1595.56</ele>
  <time>2026-08-27T18:28:50Z</time>
  <course>207.51</course>
  <speed>0.2</speed>
  <fix>3d</fix>
</trkpt>
<trkpt lat="40.0727959" lon="-105.2306092">
  <ele>1595.68</ele>
  <time>2026-08-27T18:28:50Z</time>
  <course>7.88</course>
  <speed>0.20248456731316586</speed>
  <fix>3d</fix>
</trkpt>
<trkpt lat="40.0727962" lon="-105.2306093">
  <ele>1595.56</ele>
  <time>2026-08-27T18:28:50Z</time>
  <course>207.59</course>
  <speed>0.19</speed>
  <fix>3d</fix>
</trkpt>
<trkpt lat="40.0727956" lon="-105.2306095">
  <ele>1595.68</ele>
  <time>2026-08-27T18:28:50Z</time>
  <course>7.9</course>
  <speed>0.18788294228055935</speed>
  <fix>3d</fix>
</trkpt>
<trkpt lat="40.0727959" lon="-105.2306096">
  <ele>1595.56</ele>
  <time>2026-08-27T18:28:50Z</time>
  <course>210.5</course>
  <speed>0.19</speed>
  <fix>3d</fix>
</trkpt>
<trkpt lat="40.0727954" lon="-105.2306098">
  <ele>1595.67</ele>
  <time>2026-08-27T18:28:50Z</time>
  <course>7.89</course>
  <speed>0.18384776310850234</speed>
  <fix>3d</fix>
</trkpt>
<trkpt lat="40.0727956" lon="-105.2306098">
  <ele>1595.55</ele>
  <time>2026-08-27T18:28:50Z</time>
  <course>220.31</course>
  <speed>0.19</speed>
  <fix>3d</fix>
</trkpt>
<trkpt lat="40.0727952" lon="-105.2306102">
  <ele>1595.67</ele>
  <time>2026-08-27T18:28:50Z</time>
  <course>7.89</course>
  <speed>0.21540659228538014</speed>
  <fix>3d</fix>
</trkpt>
<trkpt lat="40.0727953" lon="-105.2306102">
  <ele>1595.55</ele>
  <time>2026-08-27T18:28:50Z</time>
  <course>236.95</course>
  <speed>0.21</speed>
  <fix>3d</fix>
</trkpt>
<trkpt lat="40.0727951" lon="-105.2306108">
  <ele>1595.67</ele>
  <time>2026-08-27T18:28:50Z</time>
  <course>7.88</course>
  <speed>0.291547594742265</speed>
  <fix>3d</fix>
</trkpt>
<trkpt lat="40.0727952" lon="-105.2306107">
  <ele>1595.55</ele>
  <time>2026-08-27T18:28:50Z</time>
  <course>253.14</course>
  <speed>0.26</speed>
  <fix>3d</fix>
</trkpt>
<trkpt lat="40.0727951" lon="-105.2306117">
  <ele>1595.67</ele>
  <time>2026-08-27T18:28:50Z</time>
  <course>7.85</course>
  <speed>0.3901281840626232</speed>
  <fix>3d</fix>
</trkpt>
<trkpt lat="40.0727951" lon="-105.2306114">
  <ele>1595.55</ele>
  <time>2026-08-27T18:28:50Z</time>
  <course>263.63</course>
  <speed>0.35</speed>
  <fix>3d</fix>
</trkpt>
<trkpt lat="40.0727951" lon="-105.2306128">
  <ele>1595.67</ele>
  <time>2026-08-27T18:28:50Z</time>
  <course>7.71</course>
  <speed>0.49254441424099005</speed>
  <fix>3d</fix>
</trkpt>
<trkpt lat="40.0727951" lon="-105.2306124">
  <ele>1595.55</ele>
  <time>2026-08-27T18:28:50Z</time>
  <course>269.17</course>
  <speed>0.45</speed>
  <fix>3d</fix>
</trkpt>
<trkpt lat="40.0727951" lon="-105.2306141">
  <ele>1595.66</ele>
  <time>2026-08-27T18:28:50Z</time>
  <course>7.62</course>
  <speed>0.563205113613149</speed>
  <fix>3d</fix>
</trkpt>
<trkpt lat="40.0727951" lon="-105.2306135">
  <ele>1595.55</ele>
  <time>2026-08-27T18:28:50Z</time>
  <course>271.76</course>
  <speed>0.55</speed>
  <fix>3d</fix>
</trkpt>
<trkpt lat="40.0727952" lon="-105.2306156">
  <ele>1595.65</ele>
  <time>2026-08-27T18:28:50Z</time>
  <course>7.58</course>
  <speed>0.6029925372672534</speed>
  <fix>3d</fix>
</trkpt>
<trkpt lat="40.0727951" lon="-105.2306149">
  <ele>1595.55</ele>
  <time>2026-08-27T18:28:50Z</time>
  <course>272.7</course>
  <speed>0.61</speed>
  <fix>3d</fix>
</trkpt>
<trkpt lat="40.0727953" lon="-105.2306171">
  <ele>1595.65</ele>
  <time>2026-08-27T18:28:50Z</time>
  <course>7.63</course>
  <speed>0.5913543776789008</speed>
  <fix>3d</fix>
</trkpt>
<trkpt lat="40.0727951" lon="-105.2306164">
  <ele>1595.55</ele>
  <time>2026-08-27T18:28:50Z</time>
  <course>272.64</course>
  <speed>0.63</speed>
  <fix>3d</fix>
</trkpt>
<trkpt lat="40.0727953" lon="-105.2306185">
  <ele>1595.65</ele>
  <time>2026-08-27T18:28:50Z</time>
  <course>7.76</course>
  <speed>0.5200961449578337</speed>
  <fix>3d</fix>
</trkpt>
<trkpt lat="40.0727951" lon="-105.2306179">
  <ele>1595.55</ele>
  <time>2026-08-27T18:28:50Z</time>
  <course>271.87</course>
  <speed>0.61</speed>
  <fix>3d</fix>
</trkpt>
<trkpt lat="40.0727952" lon="-105.2306196">
  <ele>1595.66</ele>
  <time>2026-08-27T18:28:50Z</time>
  <course>7.93</course>
  <speed>0.41048751503547587</speed>
  <fix>3d</fix>
</trkpt>
<trkpt lat="40.0727952" lon="-105.2306192">
  <ele>1595.55</ele>
  <time>2026-08-27T18:28:50Z</time>
  <course>270.42</course>
  <speed>0.53</speed>
  <fix>3d</fix>
</trkpt>
<trkpt lat="40.0727952" lon="-105.2306205">
  <ele>1595.66</ele>
  <time>2026-08-27T18:28:50Z</time>
  <course>8.06</course>
  <speed>0.2570992026436488</speed>
  <fix>3d</fix>
</trkpt>
<trkpt lat="40.0727952" lon="-105.2306203">
  <ele>1595.56</ele>
  <time>2026-08-27T18:28:50Z</time>
  <course>267.9</course>
  <speed>0.4</speed>
  <fix>3d</fix>
</trkpt>
<trkpt lat="40.0727951" lon="-105.230621">
  <ele>1595.67</ele>
  <time>2026-08-27T18:28:50Z</time>
  <course>8.09</course>
  <speed>0.11661903789690602</speed>
  <fix>3d</fix>
</trkpt>
<trkpt lat="40.0727952" lon="-105.2306211">
  <ele>1595.56</ele>
  <time>2026-08-27T18:28:50Z</time>
  <course>262.34</course>
  <speed>0.23</speed>
  <fix>3d</fix>
</trkpt>
<trkpt lat="40.0727949" lon="-105.230621">
  <ele>1595.67</ele>
  <time>2026-08-27T18:28:50Z</time>
  <course>7.96</course>
  <speed>0.1769180601295413</speed>
  <fix>3d</fix>
</trkpt>
<trkpt lat="40.0727951" lon="-105.2306214">
  <ele>1595.57</ele>
  <time>2026-08-27T18:28:50Z</time>
  <course>221.25</course>
  <speed>0.05</speed>
  <fix>3d</fix>
</trkpt>
<trkpt lat="40.0727947" lon="-105.2306206">
  <ele>1595.66</ele>
  <time>2026-08-27T18:28:50Z</time>
  <course>7.69</course>
  <speed>0.3453983207834109</speed>
  <fix>3d</fix>
</trkpt>
<trkpt lat="40.072795" lon="-105.2306213">
  <ele>1595.57</ele>
  <time>2026-08-27T18:28:50Z</time>
  <course>103.93</course>
  <speed>0.17</speed>
  <fix>3d</fix>
</trkpt>
<trkpt lat="40.0727946" lon="-105.2306197">
  <ele>1595.66</ele>
  <time>2026-08-27T18:28:50Z</time>
  <course>7.36</course>
  <speed>0.5044799302251776</speed>
  <fix>3d</fix>
</trkpt>
<trkpt lat="40.072795" lon="-105.2306207">
  <ele>1595.57</ele>
  <time>2026-08-27T18:28:50Z</time>
  <course>94.8</course>
  <speed>0.35</speed>
  <fix>3d</fix>
</trkpt>
<trkpt lat="40.0727946" lon="-105.2306185">
  <ele>1595.67</ele>
  <time>2026-08-27T18:28:50Z</time>
  <course>7.13</course>
  <speed>0.6264982043070834</speed>
  <fix>3d</fix>
</trkpt>
<trkpt lat="40.072795" lon="-105.2306197">
  <ele>1595.57</ele>
  <time>2026-08-27T18:28:50Z</time>
  <course>90.82</course>
  <speed>0.51</speed>
  <fix>3d</fix>
</trkpt>
<trkpt lat="40.0727946" lon="-105.230617">
  <ele>1595.67</ele>
  <time>2026-08-27T18:28:50Z</time>
  <course>7.09</course>
  <speed>0.6811754546370561</speed>
  <fix>3d</fix>
</trkpt>
<trkpt lat="40.072795" lon="-105.2306183">
  <ele>1595.57</ele>
  <time>2026-08-27T18:28:50Z</time>
  <course>87.75</course>
  <speed>0.62</speed>
  <fix>3d</fix>
</trkpt>
<trkpt lat="40.0727947" lon="-105.2306155">
  <ele>1595.67</ele>
  <time>2026-08-27T18:28:50Z</time>
  <course>7.27</course>
  <speed>0.6900724599634447</speed>
  <fix>3d</fix>
</trkpt>
<trkpt lat="40.072795" lon="-105.2306168">
  <ele>1595.57</ele>
  <time>2026-08-27T18:28:50Z</time>
  <course>84.64</course>
  <speed>0.68</speed>
  <fix>3d</fix>
</trkpt>
<trkpt lat="40.0727949" lon="-105.230614">
  <ele>1595.68</ele>
  <time>2026-08-27T18:28:50Z</time>
  <course>7.5</course>
  <speed>0.6239390995922599</speed>
  <fix>3d</fix>
</trkpt>
<trkpt lat="40.0727951" lon="-105.2306151">
  <ele>1595.57</ele>
  <time>2026-08-27T18:28:50Z</time>
  <course>80.95</course>
  <speed>0.67</speed>
  <fix>3d</fix>
</trkpt>
<trkpt lat="40.0727952" lon="-105.2306127">
  <ele>1595.68</ele>
  <time>2026-08-27T18:28:50Z</time>
  <course>7.75</course>
  <speed>0.5166236541235796</speed>
  <fix>3d</fix>
</trkpt>
<trkpt lat="40.0727953" lon="-105.2306136">
  <ele>1595.57</ele>
  <time>2026-08-27T18:28:50Z</time>
  <course>75.91</course>
  <speed>0.6</speed>
  <fix>3d</fix>
</trkpt>
<trkpt lat="40.0727956" lon="-105.2306117">
  <ele>1595.68</ele>
  <time>2026-08-27T18:28:50Z</time>
  <course>7.96</course>
  <speed>0.37589892258425</speed>
  <fix>3d</fix>
</trkpt>
<trkpt lat="40.0727956" lon="-105.2306124">
  <ele>1595.57</ele>
  <time>2026-08-27T18:28:50Z</time>
  <course>67.82</course>
  <speed>0.49</speed>
  <fix>3d</fix>
</trkpt>
<trkpt lat="40.072796" lon="-105.2306112">
  <ele>1595.68</ele>
  <time>2026-08-27T18:28:50Z</time>
  <course>8.09</course>
  <speed>0.24186773244895649</speed>
  <fix>3d</fix>
</trkpt>
<trkpt lat="40.0727959" lon="-105.2306116">
  <ele>1595.57</ele>
  <time>2026-08-27T18:28:50Z</time>
  <course>51.88</course>
  <speed>0.34</speed>
  <fix>3d</fix>
</trkpt>
<trkpt lat="40.0727965" lon="-105.2306112">
  <ele>1595.67</ele>
  <time>2026-08-27T18:28:50Z</time>
  <course>8.13</course>
  <speed>0.25079872407968906</speed>
  <fix>3d</fix>
</trkpt>
<trkpt lat="40.0727964" lon="-105.2306112">
  <ele>1595.57</ele>
  <time>2026-08-27T18:28:50Z</time>
  <course>14.55</course>
  <speed>0.23</speed>
  <fix>3d</fix>
</trkpt>
<trkpt lat="40.0727969" lon="-105.2306116">
  <ele>1595.67</ele>
  <time>2026-08-27T18:28:50Z</time>
  <course>8.12</course>
  <speed>0.38600518131237566</speed>
  <fix>3d</fix>
</trkpt>
<trkpt lat="40.0727968" lon="-105.2306113">
  <ele>1595.57</ele>
  <time>2026-08-27T18:28:50Z</time>
  <course>324.2</course>
  <speed>0.27</speed>
  <fix>3d</fix>
</trkpt>
<trkpt lat="40.0727974" lon="-105.2306125">
  <ele>1595.67</ele>
  <time>2026-08-27T18:28:50Z</time>
  <course>8.05</course>
  <speed>0.54230987451825</speed>
  <fix>3d</fix>
</trkpt>
<trkpt lat="40.0727971" lon="-105.2306119">
  <ele>1595.57</ele>
  <time>2026-08-27T18:28:50Z</time>
  <course>299.1</course>
  <speed>0.42</speed>
  <fix>3d</fix>
</trkpt>
<trkpt lat="40.0727977" lon="-105.2306139">
  <ele>1595.67</ele>
  <time>2026-08-27T18:28:50Z</time>
  <course>8.01</course>
  <speed>0.6621933252457322</speed>
  <fix>3d</fix>
</trkpt>
<trkpt lat="40.0727975" lon="-105.2306129">
  <ele>1595.57</ele>
  <time>2026-08-27T18:28:50Z</time>
  <course>287.47</course>
  <speed>0.57</speed>
  <fix>3d</fix>
</trkpt>
<trkpt lat="40.0727979" lon="-105.2306155">
  <ele>1595.67</ele>
  <time>2026-08-27T18:28:50Z</time>
  <course>8.03</course>
  <speed>0.7283543093852057</speed>
  <fix>3d</fix>
</trkpt>
<trkpt lat="40.0727977" lon="-105.2306145">
  <ele>1595.57</ele>
  <time>2026-08-27T18:28:50Z</time>
  <course>280.49</course>
  <speed>0.69</speed>
  <fix>3d</fix>
</trkpt>
<trkpt lat="40.072798" lon="-105.2306172">
  <ele>1595.66</ele>
  <time>2026-08-27T18:28:50Z</time>
  <course>8.09</course>
  <speed>0.7310950690573697</speed>
  <fix>3d</fix>
</trkpt>
<trkpt lat="40.072798" lon="-105.2306161">
  <ele>1595.57</ele>
  <time>2026-08-27T18:28:50Z</time>
  <course>275.22</course>
  <speed>0.74</speed>
  <fix>3d</fix>
</trkpt>
<trkpt lat="40.072798" lon="-105.2306189">
  <ele>1595.66</ele>
  <time>2026-08-27T18:28:50Z</time>
  <course>8.18</course>
  <speed>0.6702984409947557</speed>
  <fix>3d</fix>
</trkpt>
<trkpt lat="40.0727981" lon="-105.2306179">
  <ele>1595.57</ele>
  <time>2026-08-27T18:28:50Z</time>
  <course>270.37</course>
  <speed>0.73</speed>
  <fix>3d</fix>
</trkpt>
<trkpt lat="40.0727979" lon="-105.2306203">
  <ele>1595.67</ele>
  <time>2026-08-27T18:28:50Z</time>
  <course>8.34</course>
  <speed>0.5573149917237109</speed>
  <fix>3d</fix>
</trkpt>
<trkpt lat="40.0727981" lon="-105.2306195">
  <ele>1595.57</ele>
  <time>2026-08-27T18:28:50Z</time>
  <course>264.98</course>
  <speed>0.66</speed>
  <fix>3d</fix>
</trkpt>
<trkpt lat="40.0727978" lon="-105.2306215">
  <ele>1595.67</ele>
  <time>2026-08-27T18:28:50Z</time>
  <course>8.43</course>
  <speed>0.3992492955535426</speed>
  <fix>3d</fix>
</trkpt>
<trkpt lat="40.072798" lon="-105.2306208">
  <ele>1595.58</ele>
  <time>2026-08-27T18:28:50Z</time>
  <course>257.62</course>
  <speed>0.53</speed>
  <fix>3d</fix>
</trkpt>
<trkpt lat="40.0727974" lon="-105.2306221">
  <ele>1595.67</ele>
  <time>2026-08-27T18:28:50Z</time>
  <course>8.45</course>
  <speed>0.2420743687382041</speed>
  <fix>3d</fix>
</trkpt>
<trkpt lat="40.0727977" lon="-105.2306218">
  <ele>1595.58</ele>
  <time>2026-08-27T18:28:50Z</time>
  <course>244.41</course>
  <speed>0.36</speed>
  <fix>3d</fix>
</trkpt>
<trkpt lat="40.0727971" lon="-105.2306222">
  <ele>1595.67</ele>
  <time>2026-08-27T18:28:50Z</time>
  <course>8.39</course>
  <speed>0.2308679276123039</speed>
  <fix>3d</fix>
</trkpt>
<trkpt lat="40.0727974" lon="-105.2306224">
  <ele>1595.59</ele>
  <time>2026-08-27T18:28:50Z</time>
  <course>210.86</course>
  <speed>0.21</speed>
  <fix>3d</fix>
</trkpt>
<trkpt lat="40.0727967" lon="-105.230622">
  <ele>1595.68</ele>
  <time>2026-08-27T18:28:50Z</time>
  <course>8.29</course>
  <speed>0.37013511046643494</speed>
  <fix>3d</fix>
</trkpt>
<trkpt lat="40.072797" lon="-105.2306224">
  <ele>1595.59</ele>
  <time>2026-08-27T18:28:50Z</time>
  <course>149.56</course>
  <speed>0.22</speed>
  <fix>3d</fix>
</trkpt>
<trkpt lat="40.0727963" lon="-105.2306211">
  <ele>1595.68</ele>
  <time>2026-08-27T18:28:50Z</time>
  <course>8.14</course>
  <speed>0.5239274758971895</speed>
  <fix>3d</fix>
</trkpt>
<trkpt lat="40.0727967" lon="-105.2306219">
  <ele>1595.59</ele>
  <time>2026-08-27T18:28:50Z</time>
  <course>119.57</course>
  <speed>0.38</speed>
  <fix>3d</fix>
</trkpt>
<trkpt lat="40.072796" lon="-105.2306198">
  <ele>1595.67</ele>
  <time>2026-08-27T18:28:50Z</time>
  <course>8.06</course>
  <speed>0.6552098900352467</speed>
  <fix>3d</fix>
</trkpt>
<trkpt lat="40.0727963" lon="-105.2306209">
  <ele>1595.59</ele>
  <time>2026-08-27T18:28:50Z</time>
  <course>107.32</course>
  <speed>0.53</speed>
  <fix>3d</fix>
</trkpt>
<trkpt lat="40.0727958" lon="-105.2306183">
  <ele>1595.68</ele>
  <time>2026-08-27T18:28:50Z</time>
  <course>8.0</course>
  <speed>0.7200694410957876</speed>
  <fix>3d</fix>
</trkpt>
<trkpt lat="40.0727961" lon="-105.2306196">
  <ele>1595.59</ele>
  <time>2026-08-27T18:28:50Z</time>
  <course>100.21</course>
  <speed>0.65</speed>
  <fix>3d</fix>
</trkpt>
<trkpt lat="40.0727957" lon="-105.2306167">
  <ele>1595.67</ele>
  <time>2026-08-27T18:28:50Z</time>
  <course>8.02</course>
  <speed>0.7217340230306452</speed>
  <fix>3d</fix>
</trkpt>
<trkpt lat="40.0727959" lon="-105.230618">
  <ele>1595.58</ele>
  <time>2026-08-27T18:28:50Z</time>
  <course>94.8</course>
  <speed>0.71</speed>
  <fix>3d</fix>
</trkpt>
<trkpt lat="40.0727957" lon="-105.2306151">
  <ele>1595.67</ele>
  <time>2026-08-27T18:28:50Z</time>
  <course>8.08</course>
  <speed>0.66007575322837</speed>
  <fix>3d</fix>
</trkpt>
<trkpt lat="40.0727958" lon="-105.2306163">
  <ele>1595.58</ele>
  <time>2026-08-27T18:28:50Z</time>
  <course>89.73</course>
  <speed>0.7</speed>
  <fix>3d</fix>
</trkpt>
<trkpt lat="40.0727958" lon="-105.2306137">
  <ele>1595.67</ele>
  <time>2026-08-27T18:28:50Z</time>
  <course>8.19</course>
  <speed>0.5458937625582473</speed>
  <fix>3d</fix>
</trkpt>
<trkpt lat="40.0727958" lon="-105.2306148">
  <ele>1595.58</ele>
  <time>2026-08-27T18:28:50Z</time>
  <course>83.92</course>
  <speed>0.63</speed>
  <fix>3d</fix>
</trkpt>
<trkpt lat="40.072796" lon="-105.2306127">
  <ele>1595.67</ele>
  <time>2026-08-27T18:28:50Z</time>
  <course>8.29</course>
  <speed>0.38626415831655936</speed>
  <fix>3d</fix>
</trkpt>
<trkpt lat="40.072796" lon="-105.2306135">
  <ele>1595.58</ele>
  <time>2026-08-27T18:28:50Z</time>
  <course>75.64</course>
  <speed>0.5</speed>
  <fix>3d</fix>
</trkpt>
<trkpt lat="40.0727964" lon="-105.2306121">
  <ele>1595.67</ele>
  <time>2026-08-27T18:28:50Z</time>
  <course>8.34</course>
  <speed>0.2420743687382041</speed>
  <fix>3d</fix>
</trkpt>
<trkpt lat="40.0727963" lon="-105.2306125">
  <ele>1595.58</ele>
  <time>2026-08-27T18:28:50Z</time>
  <course>60.26</course>
  <speed>0.35</speed>
  <fix>3d</fix>
</trkpt>
<trkpt lat="40.0727968" lon="-105.230612">
  <ele>1595.68</ele>
  <time>2026-08-27T18:28:50Z</time>
  <course>8.35</course>
  <speed>0.2308679276123039</speed>
  <fix>3d</fix>
</trkpt>
<trkpt lat="40.0727967" lon="-105.2306121">
  <ele>1595.58</ele>
  <time>2026-08-27T18:28:50Z</time>
  <course>22.59</course>
  <speed>0.22</speed>
  <fix>3d</fix>
</trkpt>
<trkpt lat="40.0727972" lon="-105.2306123">
  <ele>1595.68</ele>
  <time>2026-08-27T18:28:50Z</time>
  <course>8.32</course>
  <speed>0.37013511046643494</speed>
  <fix>3d</fix>
</trkpt>
<trkpt lat="40.0727971" lon="-105.2306121">
  <ele>1595.58</ele>
  <time>2026-08-27T18:28:50Z</time>
  <course>327.17</course>
  <speed>0.26</speed>
  <fix>3d</fix>
</trkpt>
<trkpt lat="40.0727976" lon="-105.2306133">
  <ele>1595.67</ele>
  <time>2026-08-27T18:28:50Z</time>
  <course>8.28</course>
  <speed>0.5371219600798314</speed>
  <fix>3d</fix>
</trkpt>
<trkpt lat="40.0727974" lon="-105.2306127">
  <ele>1595.58</ele>
  <time>2026-08-27T18:28:50Z</time>
  <course>301.02</course>
  <speed>0.42</speed>
  <fix>3d</fix>
</trkpt>
<trkpt lat="40.072798" lon="-105.2306146">
  <ele>1595.67</ele>
  <time>2026-08-27T18:28:50Z</time>
  <course>8.22</course>
  <speed>0.6648308055437865</speed>
  <fix>3d</fix>
</trkpt>
<trkpt lat="40.0727978" lon="-105.2306137">
  <ele>1595.58</ele>
  <time>2026-08-27T18:28:50Z</time>
  <course>289.45</course>
  <speed>0.58</speed>
  <fix>3d</fix>
</trkpt>
<trkpt lat="40.0727983" lon="-105.2306162">
  <ele>1595.67</ele>
  <time>2026-08-27T18:28:50Z</time>
  <course>8.24</course>
  <speed>0.7316419889536138</speed>
  <fix>3d</fix>
</trkpt>
<trkpt lat="40.0727981" lon="-105.2306151">
  <ele>1595.58</ele>
  <time>2026-08-27T18:28:50Z</time>
  <course>282.56</course>
  <speed>0.69</speed>
  <fix>3d</fix>
</trkpt>
<trkpt lat="40.0727984" lon="-105.230618">
  <ele>1595.67</ele>
  <time>2026-08-27T18:28:50Z</time>
  <course>8.3</course>
  <speed>0.7424284477308234</speed>
  <fix>3d</fix>
</trkpt>
<trkpt lat="40.0727983" lon="-105.2306168">
  <ele>1595.58</ele>
  <time>2026-08-27T18:28:50Z</time>
  <course>277.4</course>
  <speed>0.75</speed>
  <fix>3d</fix>
</trkpt>
<trkpt lat="40.0727985" lon="-105.2306196">
  <ele>1595.67</ele>
  <time>2026-08-27T18:28:50Z</time>
  <course>8.42</course>
  <speed>0.68</speed>
  <fix>3d</fix>
</trkpt>
<trkpt lat="40.0727985" lon="-105.2306185">
  <ele>1595.58</ele>
  <time>2026-08-27T18:28:50Z</time>
  <course>272.72</course>
  <speed>0.75</speed>
  <fix>3d</fix>
</trkpt>
<trkpt lat="40.0727984" lon="-105.2306211">
  <ele>1595.68</ele>
  <time>2026-08-27T18:28:50Z</time>
  <course>8.52</course>
  <speed>0.5643580423808985</speed>
  <fix>3d</fix>
</trkpt>
<trkpt lat="40.0727985" lon="-105.2306203">
  <ele>1595.59</ele>
  <time>2026-08-27T18:28:50Z</time>
  <course>267.63</course>
  <speed>0.67</speed>
  <fix>3d</fix>
</trkpt>
<trkpt lat="40.0727983" lon="-105.2306223">
  <ele>1595.68</ele>
  <time>2026-08-27T18:28:50Z</time>
  <course>8.58</course>
  <speed>0.4016217125604641</speed>
  <fix>3d</fix>
</trkpt>
<trkpt lat="40.0727984" lon="-105.2306217">
  <ele>1595.59</ele>
  <time>2026-08-27T18:28:50Z</time>
  <course>260.81</course>
  <speed>0.54</speed>
  <fix>3d</fix>
</trkpt>
<trkpt lat="40.072798" lon="-105.230623">
  <ele>1595.68</ele>
  <time>2026-08-27T18:28:50Z</time>
  <course>8.57</course>
  <speed>0.24083189157584592</speed>
  <fix>3d</fix>
</trkpt>
<trkpt lat="40.0727983" lon="-105.2306227">
  <ele>1595.59</ele>
  <time>2026-08-27T18:28:50Z</time>
  <course>248.86</course>
  <speed>0.37</speed>
  <fix>3d</fix>
</trkpt>
<trkpt lat="40.0727977" lon="-105.2306232">
  <ele>1595.68</ele>
  <time>2026-08-27T18:28:50Z</time>
  <course>8.52</course>
  <speed>0.215870331449229</speed>
  <fix>3d</fix>
</trkpt>
<trkpt lat="40.072798" lon="-105.2306233">
  <ele>1595.6</ele>
  <time>2026-08-27T18:28:50Z</time>
  <course>218.11</course>
  <speed>0.21</speed>
  <fix>3d</fix>
</trkpt>
<trkpt lat="40.0727973" lon="-105.2306228">
  <ele>1595.68</ele>
  <time>2026-08-27T18:28:50Z</time>
  <course>8.43</course>
  <speed>0.35608987629529715</speed>
  <fix>3d</fix>
</trkpt>
<trkpt lat="40.0727976" lon="-105.2306233">
  <ele>1595.6</ele>
  <time>2026-08-27T18:28:50Z</time>
  <course>152.55</course>
  <speed>0.2</speed>
  <fix>3d</fix>
</trkpt>
<trkpt lat="40.072797" lon="-105.2306221">
  <ele>1595.67</ele>
  <time>2026-08-27T18:28:50Z</time>
  <course>8.33</course>
  <speed>0.51478150704935</speed>
  <fix>3d</fix>
</trkpt>
<trkpt lat="40.0727973" lon="-105.230623">
  <ele>1595.59</ele>
  <time>2026-08-27T18:28:50Z</time>
  <course>119.91</course>
  <speed>0.36</speed>
  <fix>3d</fix>
</trkpt>
<trkpt lat="40.0727967" lon="-105.2306209">
  <ele>1595.67</ele>
  <time>2026-08-27T18:28:50Z</time>
  <course>8.18</course>
  <speed>0.6428841264178172</speed>
  <fix>3d</fix>
</trkpt>
<trkpt lat="40.072797" lon="-105.2306221">
  <ele>1595.59</ele>
  <time>2026-08-27T18:28:50Z</time>
  <course>107.41</course>
  <speed>0.52</speed>
  <fix>3d</fix>
</trkpt>
<trkpt lat="40.0727965" lon="-105.2306194">
  <ele>1595.67</ele>
  <time>2026-08-27T18:28:50Z</time>
  <course>8.12</course>
  <speed>0.7200694410957876</speed>
  <fix>3d</fix>
</trkpt>
<trkpt lat="40.0727968" lon="-105.2306207">
  <ele>1595.59</ele>
  <time>2026-08-27T18:28:50Z</time>
  <course>100.35</course>
  <speed>0.64</speed>
  <fix>3d</fix>
</trkpt>
<trkpt lat="40.0727964" lon="-105.2306178">
  <ele>1595.67</ele>
  <time>2026-08-27T18:28:50Z</time>
  <course>8.15</course>
  <speed>0.7224956747275377</speed>
  <fix>3d</fix>
</trkpt>
<trkpt lat="40.0727966" lon="-105.2306191">
  <ele>1595.58</ele>
  <time>2026-08-27T18:28:50Z</time>
  <course>95.04</course>
  <speed>0.7</speed>
  <fix>3d</fix>
</trkpt>
<trkpt lat="40.0727964" lon="-105.2306162">
  <ele>1595.67</ele>
  <time>2026-08-27T18:28:50Z</time>
  <course>8.22</course>
  <speed>0.66</speed>
  <fix>3d</fix>
</trkpt>
<trkpt lat="40.0727965" lon="-105.2306174">
  <ele>1595.58</ele>
  <time>2026-08-27T18:28:50Z</time>
  <course>90.02</course>
  <speed>0.69</speed>
  <fix>3d</fix>
</trkpt>
<trkpt lat="40.0727965" lon="-105.2306148">
  <ele>1595.67</ele>
  <time>2026-08-27T18:28:50Z</time>
  <course>8.29</course>
  <speed>0.5445181356024793</speed>
  <fix>3d</fix>
</trkpt>
<trkpt lat="40.0727965" lon="-105.2306159">
  <ele>1595.58</ele>
  <time>2026-08-27T18:28:50Z</time>
  <course>84.25</course>
  <speed>0.62</speed>
  <fix>3d</fix>
</trkpt>
<trkpt lat="40.0727967" lon="-105.2306138">
  <ele>1595.67</ele>
  <time>2026-08-27T18:28:50Z</time>
  <course>8.38</course>
  <speed>0.38626415831655936</speed>
  <fix>3d</fix>
</trkpt>
<trkpt lat="40.0727967" lon="-105.2306146">
  <ele>1595.59</ele>
  <time>2026-08-27T18:28:50Z</time>
  <course>75.99</course>
  <speed>0.5</speed>
  <fix>3d</fix>
</trkpt>
<trkpt lat="40.072797" lon="-105.2306132">
  <ele>1595.67</ele>
  <time>2026-08-27T18:28:50Z</time>
  <course>8.44</course>
  <speed>0.23430749027719963</speed>
  <fix>3d</fix>
</trkpt>
<trkpt lat="40.0727969" lon="-105.2306136">
  <ele>1595.59</ele>
  <time>2026-08-27T18:28:50Z</time>
  <course>60.58</course>
  <speed>0.34</speed>
  <fix>3d</fix>
</trkpt>
<trkpt lat="40.0727974" lon="-105.2306131">
  <ele>1595.67</ele>
  <time>2026-08-27T18:28:50Z</time>
  <course>8.45</course>
  <speed>0.22135943621178655</speed>
  <fix>3d</fix>
</trkpt>
<trkpt lat="40.0727973" lon="-105.2306131">
  <ele>1595.59</ele>
  <time>2026-08-27T18:28:50Z</time>
  <course>22.71</course>
  <speed>0.22</speed>
  <fix>3d</fix>
</trkpt>
<trkpt lat="40.0727978" lon="-105.2306135">
  <ele>1595.67</ele>
  <time>2026-08-27T18:28:50Z</time>
  <course>8.42</course>
  <speed>0.37013511046643494</speed>
  <fix>3d</fix>
</trkpt>
<trkpt lat="40.0727976" lon="-105.2306132">
  <ele>1595.59</ele>
  <time>2026-08-27T18:28:50Z</time>
  <course>327.3</course>
  <speed>0.26</speed>
  <fix>3d</fix>
</trkpt>
<trkpt lat="40.0727982" lon="-105.2306143">
  <ele>1595.67</ele>
  <time>2026-08-27T18:28:50Z</time>
  <course>8.38</course>
  <speed>0.5239274758971895</speed>
  <fix>3d</fix>
</trkpt>
<trkpt lat="40.0727981" lon="-105.2306138">
  <ele>1595.59</ele>
  <time>2026-08-27T18:28:50Z</time>
  <course>301.33</course>
  <speed>0.42</speed>
  <fix>3d</fix>
</trkpt>
<trkpt lat="40.0727986" lon="-105.2306157">
  <ele>1595.67</ele>
  <time>2026-08-27T18:28:50Z</time>
  <course>8.32</course>
  <speed>0.6552098900352467</speed>
  <fix>3d</fix>
</trkpt>
<trkpt lat="40.0727985" lon="-105.2306148">
  <ele>1595.59</ele>
  <time>2026-08-27T18:28:50Z</time>
  <course>289.85</course>
  <speed>0.58</speed>
  <fix>3d</fix>
</trkpt>
<trkpt lat="40.0727989" lon="-105.2306173">
  <ele>1595.67</ele>
  <time>2026-08-27T18:28:50Z</time>
  <course>8.34</course>
  <speed>0.7316419889536138</speed>
  <fix>3d</fix>
</trkpt>
<trkpt lat="40.0727988" lon="-105.2306163">
  <ele>1595.59</ele>
  <time>2026-08-27T18:28:50Z</time>
  <course>283.04</course>
  <speed>0.7</speed>
  <fix>3d</fix>
</trkpt>
<trkpt lat="40.0727991" lon="-105.230619">
  <ele>1595.67</ele>
  <time>2026-08-27T18:28:50Z</time>
  <course>8.44</course>
  <speed>0.7333484846919641</speed>
  <fix>3d</fix>
</trkpt>
<trkpt lat="40.072799" lon="-105.2306179">
  <ele>1595.59</ele>
  <time>2026-08-27T18:28:50Z</time>
  <course>277.95</course>
  <speed>0.75</speed>
  <fix>3d</fix>
</trkpt>
<trkpt lat="40.0727991" lon="-105.2306207">
  <ele>1595.68</ele>
  <time>2026-08-27T18:28:50Z</time>
  <course>8.56</course>
  <speed>0.68</speed>
  <fix>3d</fix>
</trkpt>
<trkpt lat="40.0727991" lon="-105.2306198">
  <ele>1595.59</ele>
  <time>2026-08-27T18:28:50Z</time>
  <course>273.36</course>
  <speed>0.75</speed>
  <fix>3d</fix>
</trkpt>
<trkpt lat="40.0727991" lon="-105.2306222">
  <ele>1595.68</ele>
  <time>2026-08-27T18:28:50Z</time>
  <course>8.65</course>
  <speed>0.5532630477449222</speed>
  <fix>3d</fix>
</trkpt>
<trkpt lat="40.0727992" lon="-105.2306214">
  <ele>1595.59</ele>
  <time>2026-08-27T18:28:50Z</time>
  <course>268.4</course>
  <speed>0.67</speed>
  <fix>3d</fix>
</trkpt>
<trkpt lat="40.072799" lon="-105.2306233">
  <ele>1595.68</ele>
  <time>2026-08-27T18:28:50Z</time>
  <course>8.7</course>
  <speed>0.3984971769034255</speed>
  <fix>3d</fix>
</trkpt>
<trkpt lat="40.0727992" lon="-105.2306229">
  <ele>1595.6</ele>
  <time>2026-08-27T18:28:50Z</time>
  <course>261.83</course>
  <speed>0.54</speed>
  <fix>3d</fix>
</trkpt>
<trkpt lat="40.0727987" lon="-105.2306241">
  <ele>1595.68</ele>
  <time>2026-08-27T18:28:50Z</time>
  <course>8.69</course>
  <speed>0.23345235059857505</speed>
  <fix>3d</fix>
</trkpt>
<trkpt lat="40.072799" lon="-105.230624">
  <ele>1595.6</ele>
  <time>2026-08-27T18:28:50Z</time>
  <course>250.39</course>
  <speed>0.37</speed>
  <fix>3d</fix>
</trkpt>
<trkpt lat="40.0727984" lon="-105.2306243">
  <ele>1595.67</ele>
  <time>2026-08-27T18:28:50Z</time>
  <course>8.58</course>
  <speed>0.20615528128088303</speed>
  <fix>3d</fix>
</trkpt>
<trkpt lat="40.0727987" lon="-105.2306245">
  <ele>1595.6</ele>
  <time>2026-08-27T18:28:50Z</time>
  <course>220.46</course>
  <speed>0.21</speed>
  <fix>3d</fix>
</trkpt>
<trkpt lat="40.0727981" lon="-105.230624">
  <ele>1595.67</ele>
  <time>2026-08-27T18:28:50Z</time>
  <course>8.47</course>
  <speed>0.35</speed>
  <fix>3d</fix>
</trkpt>
<trkpt lat="40.0727984" lon="-105.2306246">
  <ele>1595.6</ele>
  <time>2026-08-27T18:28:50Z</time>
  <course>152.67</course>
  <speed>0.2</speed>
  <fix>3d</fix>
</trkpt>
<trkpt lat="40.0727977" lon="-105.2306233">
  <ele>1595.67</ele>
  <time>2026-08-27T18:28:50Z</time>
  <course>8.32</course>
  <speed>0.5107837115648853</speed>
  <fix>3d</fix>
</trkpt>
<trkpt lat="40.0727981" lon="-105.2306242">
  <ele>1595.59</ele>
  <time>2026-08-27T18:28:50Z</time>
  <course>119.43</course>
  <speed>0.35</speed>
  <fix>3d</fix>
</trkpt>
<trkpt lat="40.0727975" lon="-105.2306221">
  <ele>1595.66</ele>
  <time>2026-08-27T18:28:50Z</time>
  <course>8.23</course>
  <speed>0.6428841264178172</speed>
  <fix>3d</fix>
</trkpt>
<trkpt lat="40.0727978" lon="-105.2306232">
  <ele>1595.59</ele>
  <time>2026-08-27T18:28:50Z</time>
  <course>107.15</course>
  <speed>0.51</speed>
  <fix>3d</fix>
</trkpt>
<trkpt lat="40.0727973" lon="-105.2306206">
  <ele>1595.66</ele>
  <time>2026-08-27T18:28:50Z</time>
  <course>8.2</course>
  <speed>0.7102112361825881</speed>
  <fix>3d</fix>
</trkpt>
<trkpt lat="40.0727976" lon="-105.2306219">
  <ele>1595.59</ele>
  <time>2026-08-27T18:28:50Z</time>
  <course>100.24</course>
  <speed>0.63</speed>
  <fix>3d</fix>
</trkpt>
<trkpt lat="40.0727972" lon="-105.230619">
  <ele>1595.66</ele>
  <time>2026-08-27T18:28:50Z</time>
  <course>8.22</course>
  <speed>0.7217340230306452</speed>
  <fix>3d</fix>
</trkpt>
<trkpt lat="40.0727974" lon="-105.2306203">
  <ele>1595.59</ele>
  <time>2026-08-27T18:28:50Z</time>
  <course>95.01</course>
  <speed>0.7</speed>
  <fix>3d</fix>
</trkpt>
<trkpt lat="40.0727972" lon="-105.2306174">
  <ele>1595.66</ele>
  <time>2026-08-27T18:28:50Z</time>
  <course>8.28</course>
  <speed>0.66</speed>
  <fix>3d</fix>
</trkpt>
<trkpt lat="40.0727974" lon="-105.2306187">
  <ele>1595.59</ele>
  <time>2026-08-27T18:28:50Z</time>
  <course>90.07</course>
  <speed>0.69</speed>
  <fix>3d</fix>
</trkpt>
<trkpt lat="40.0727973" lon="-105.230616">
  <ele>1595.66</ele>
  <time>2026-08-27T18:28:50Z</time>
  <course>8.36</course>
  <speed>0.5445181356024793</speed>
  <fix>3d</fix>
</trkpt>
<trkpt lat="40.0727974" lon="-105.2306171">
  <ele>1595.59</ele>
  <time>2026-08-27T18:28:50Z</time>
  <course>84.34</course>
  <speed>0.62</speed>
  <fix>3d</fix>
</trkpt>
<trkpt lat="40.0727975" lon="-105.230615">
  <ele>1595.66</ele>
  <time>2026-08-27T18:28:50Z</time>
  <course>8.43</course>
  <speed>0.38626415831655936</speed>
  <fix>3d</fix>
</trkpt>
<trkpt lat="40.0727975" lon="-105.2306158">
  <ele>1595.6</ele>
  <time>2026-08-27T18:28:50Z</time>
  <course>76.11</course>
  <speed>0.5</speed>
  <fix>3d</fix>
</trkpt>
<trkpt lat="40.0727978" lon="-105.2306144">
  <ele>1595.66</ele>
  <time>2026-08-27T18:28:50Z</time>
  <course>8.47</course>
  <speed>0.2420743687382041</speed>
  <fix>3d</fix>
</trkpt>
<trkpt lat="40.0727977" lon="-105.2306149">
  <ele>1595.6</ele>
  <time>2026-08-27T18:28:50Z</time>
  <course>60.63</course>
  <speed>0.34</speed>
  <fix>3d</fix>
</trkpt>
<trkpt lat="40.0727982" lon="-105.2306143">
  <ele>1595.66</ele>
  <time>2026-08-27T18:28:50Z</time>
  <course>8.49</course>
  <speed>0.2308679276123039</speed>
  <fix>3d</fix>
</trkpt>
<trkpt lat="40.0727981" lon="-105.2306145">
  <ele>1595.6</ele>
  <time>2026-08-27T18:28:50Z</time>
  <course>22.51</course>
  <speed>0.22</speed>
  <fix>3d</fix>
</trkpt>
<trkpt lat="40.0727987" lon="-105.2306148">
  <ele>1595.66</ele>
  <time>2026-08-27T18:28:50Z</time>
  <course>8.47</course>
  <speed>0.37013511046643494</speed>
  <fix>3d</fix>
</trkpt>
<trkpt lat="40.0727985" lon="-105.2306145">
  <ele>1595.61</ele>
  <time>2026-08-27T18:28:50Z</time>
  <course>327.27</course>
  <speed>0.26</speed>
  <fix>3d</fix>
</trkpt>
<trkpt lat="40.0727991" lon="-105.2306156">
  <ele>1595.67</ele>
  <time>2026-08-27T18:28:50Z</time>
  <course>8.41</course>
  <speed>0.5331041174104736</speed>
  <fix>3d</fix>
</trkpt>
<trkpt lat="40.0727988" lon="-105.2306151">
  <ele>1595.61</ele>
  <time>2026-08-27T18:28:50Z</time>
  <course>301.42</course>
  <speed>0.42</speed>
  <fix>3d</fix>
</trkpt>
<trkpt lat="40.0727994" lon="-105.230617">
  <ele>1595.67</ele>
  <time>2026-08-27T18:28:50Z</time>
  <course>8.39</course>
  <speed>0.6648308055437865</speed>
  <fix>3d</fix>
</trkpt>
<trkpt lat="40.0727993" lon="-105.2306161">
  <ele>1595.61</ele>
  <time>2026-08-27T18:28:50Z</time>
  <course>289.96</course>
  <speed>0.58</speed>
  <fix>3d</fix>
</trkpt>
<trkpt lat="40.0727997" lon="-105.2306186">
  <ele>1595.67</ele>
  <time>2026-08-27T18:28:50Z</time>
  <course>8.41</course>
  <speed>0.7316419889536138</speed>
  <fix>3d</fix>
</trkpt>
<trkpt lat="40.0727996" lon="-105.2306175">
  <ele>1595.61</ele>
  <time>2026-08-27T18:28:50Z</time>
  <course>283.12</course>
  <speed>0.69</speed>
  <fix>3d</fix>
</trkpt>
<trkpt lat="40.0727999" lon="-105.2306203">
  <ele>1595.68</ele>
  <time>2026-08-27T18:28:50Z</time>
  <course>8.51</course>
  <speed>0.7333484846919641</speed>
  <fix>3d</fix>
</trkpt>
<trkpt lat="40.0727998" lon="-105.2306193">
  <ele>1595.61</ele>
  <time>2026-08-27T18:28:50Z</time>
  <course>278.01</course>
  <speed>0.75</speed>
  <fix>3d</fix>
</trkpt>
<trkpt lat="40.0728" lon="-105.230622">
  <ele>1595.69</ele>
  <time>2026-08-27T18:28:50Z</time>
  <course>8.62</course>
  <speed>0.68</speed>
  <fix>3d</fix>
</trkpt>
<trkpt lat="40.0727999" lon="-105.230621">
  <ele>1595.62</ele>
  <time>2026-08-27T18:28:50Z</time>
  <course>273.39</course>
  <speed>0.74</speed>
  <fix>3d</fix>
</trkpt>
<trkpt lat="40.0727999" lon="-105.2306235">
  <ele>1595.7</ele>
  <time>2026-08-27T18:28:50Z</time>
  <course>8.71</course>
  <speed>0.5532630477449222</speed>
  <fix>3d</fix>
</trkpt>
<trkpt lat="40.0728" lon="-105.2306227">
  <ele>1595.62</ele>
  <time>2026-08-27T18:28:50Z</time>
  <course>268.39</course>
  <speed>0.67</speed>
  <fix>3d</fix>
</trkpt>
<trkpt lat="40.0727998" lon="-105.2306246">
  <ele>1595.7</ele>
  <time>2026-08-27T18:28:50Z</time>
  <course>8.8</course>
  <speed>0.3984971769034255</speed>
  <fix>3d</fix>
</trkpt>
<trkpt lat="40.0727999" lon="-105.2306241">
  <ele>1595.62</ele>
  <time>2026-08-27T18:28:50Z</time>
  <course>261.78</course>
  <speed>0.54</speed>
  <fix>3d</fix>
</trkpt>
<trkpt lat="40.0727995" lon="-105.2306253">
  <ele>1595.7</ele>
  <time>2026-08-27T18:28:50Z</time>
  <course>8.8</course>
  <speed>0.23345235059857505</speed>
  <fix>3d</fix>
</trkpt>
<trkpt lat="40.0727998" lon="-105.2306251">
  <ele>1595.62</ele>
  <time>2026-08-27T18:28:50Z</time>
  <course>250.22</course>
  <speed>0.37</speed>
  <fix>3d</fix>
</trkpt>
<trkpt lat="40.0727992" lon="-105.2306255">
  <ele>1595.7</ele>
  <time>2026-08-27T18:28:50Z</time>
  <course>8.7</course>
  <speed>0.208806130178211</speed>
  <fix>3d</fix>
</trkpt>
<trkpt lat="40.0727995" lon="-105.2306257">
  <ele>1595.62</ele>
  <time>2026-08-27T18:28:50Z</time>
  <course>219.76</course>
  <speed>0.21</speed>
  <fix>3d</fix>
</trkpt>
<trkpt lat="40.0727989" lon="-105.2306252">
  <ele>1595.69</ele>
  <time>2026-08-27T18:28:50Z</time>
  <course>8.56</course>
  <speed>0.35</speed>
  <fix>3d</fix>
</trkpt>
<trkpt lat="40.0727992" lon="-105.2306257">
  <ele>1595.61</ele>
  <time>2026-08-27T18:28:50Z</time>
  <course>152.05</course>
  <speed>0.2</speed>
  <fix>3d</fix>
</trkpt>
<trkpt lat="40.0727986" lon="-105.2306245">
  <ele>1595.68</ele>
  <time>2026-08-27T18:28:50Z</time>
  <course>8.44</course>
  <speed>0.5107837115648853</speed>
  <fix>3d</fix>
</trkpt>
<trkpt lat="40.0727989" lon="-105.2306253">
  <ele>1595.6</ele>
  <time>2026-08-27T18:28:50Z</time>
  <course>119.35</course>
  <speed>0.35</speed>
  <fix>3d</fix>
</trkpt>
<trkpt lat="40.0727983" lon="-105.2306233">
  <ele>1595.68</ele>
  <time>2026-08-27T18:28:50Z</time>
  <course>8.3</course>
  <speed>0.6428841264178172</speed>
  <fix>3d</fix>
</trkpt>
<trkpt lat="40.0727986" lon="-105.2306245">
  <ele>1595.6</ele>
  <time>2026-08-27T18:28:50Z</time>
  <course>107.16</course>
  <speed>0.52</speed>
  <fix>3d</fix>
</trkpt>
<trkpt lat="40.0727981" lon="-105.2306218">
  <ele>1595.67</ele>
  <time>2026-08-27T18:28:50Z</time>
  <course>8.26</course>
  <speed>0.7102112361825881</speed>
  <fix>3d</fix>
</trkpt>
<trkpt lat="40.0727983" lon="-105.2306231">
  <ele>1595.59</ele>
  <time>2026-08-27T18:28:50Z</time>
  <course>100.3</course>
  <speed>0.64</speed>
  <fix>3d</fix>
</trkpt>
<trkpt lat="40.072798" lon="-105.2306202">
  <ele>1595.67</ele>
  <time>2026-08-27T18:28:50Z</time>
  <course>8.28</course>
  <speed>0.7217340230306452</speed>
  <fix>3d</fix>
</trkpt>
<trkpt lat="40.0727982" lon="-105.2306215">
  <ele>1595.59</ele>
  <time>2026-08-27T18:28:50Z</time>
  <course>95.09</course>
  <speed>0.7</speed>
  <fix>3d</fix>
</trkpt>
<trkpt lat="40.072798" lon="-105.2306186">
  <ele>1595.68</ele>
  <time>2026-08-27T18:28:50Z</time>
  <course>8.34</course>
  <speed>0.66</speed>
  <fix>3d</fix>
</trkpt>
<trkpt lat="40.0727982" lon="-105.2306198">
  <ele>1595.59</ele>
  <time>2026-08-27T18:28:50Z</time>
  <course>90.19</course>
  <speed>0.7</speed>
  <fix>3d</fix>
</trkpt>
<trkpt lat="40.072798" lon="-105.2306172">
  <ele>1595.68</ele>
  <time>2026-08-27T18:28:50Z</time>
  <course>8.45</course>
  <speed>0.5445181356024793</speed>
  <fix>3d</fix>
</trkpt>
<trkpt lat="40.0727982" lon="-105.2306183">
  <ele>1595.59</ele>
  <time>2026-08-27T18:28:50Z</time>
  <course>84.55</course>
  <speed>0.63</speed>
  <fix>3d</fix>
</trkpt>
<trkpt lat="40.0727983" lon="-105.2306162">
  <ele>1595.68</ele>
  <time>2026-08-27T18:28:50Z</time>
  <course>8.53</course>
  <speed>0.3921734310225516</speed>
  <fix>3d</fix>
</trkpt>
<trkpt lat="40.0727983" lon="-105.230617">
  <ele>1595.59</ele>
  <time>2026-08-27T18:28:50Z</time>
  <course>76.49</course>
  <speed>0.5</speed>
  <fix>3d</fix>
</trkpt>
<trkpt lat="40.0727986" lon="-105.2306156">
  <ele>1595.68</ele>
  <time>2026-08-27T18:28:51Z</time>
  <course>8.56</course>
  <speed>0.23430749027719963</speed>
  <fix>3d</fix>
</trkpt>
<trkpt lat="40.0727985" lon="-105.230616">
  <ele>1595.59</ele>
  <time>2026-08-27T18:28:51Z</time>
  <course>61.45</course>
  <speed>0.35</speed>
  <fix>3d</fix>
</trkpt>
<trkpt lat="40.072799" lon="-105.2306155">
  <ele>1595.68</ele>
  <time>2026-08-27T18:28:51Z</time>
  <course>8.55</course>
  <speed>0.21840329667841554</speed>
  <fix>3d</fix>
</trkpt>
<trkpt lat="40.0727988" lon="-105.2306155">
  <ele>1595.58</ele>
  <time>2026-08-27T18:28:51Z</time>
  <course>24.21</course>
  <speed>0.22</speed>
  <fix>3d</fix>
</trkpt>
<trkpt lat="40.0727994" lon="-105.2306159">
  <ele>1595.67</ele>
  <time>2026-08-27T18:28:51Z</time>
  <course>8.49</course>
  <speed>0.34058772731852804</speed>
  <fix>3d</fix>
</trkpt>
<trkpt lat="40.0727993" lon="-105.2306156">
  <ele>1595.58</ele>
  <time>2026-08-27T18:28:51Z</time>
  <course>328.95</course>
  <speed>0.25</speed>
  <fix>3d</fix>
</trkpt>
<trkpt lat="40.0727998" lon="-105.2306165">
  <ele>1595.67</ele>
  <time>2026-08-27T18:28:51Z</time>
  <course>8.48</course>
  <speed>0.3935733730830886</speed>
  <fix>3d</fix>
</trkpt>
<trkpt lat="40.0727997" lon="-105.230616">
  <ele>1595.58</ele>
  <time>2026-08-27T18:28:51Z</time>
  <course>304.72</course>
  <speed>0.36</speed>
  <fix>3d</fix>
</trkpt>
<trkpt lat="40.0728001" lon="-105.2306174">
  <ele>1595.68</ele>
  <time>2026-08-27T18:28:51Z</time>
  <course>8.55</course>
  <speed>0.4143669871020132</speed>
  <fix>3d</fix>
</trkpt>
<trkpt lat="40.0728" lon="-105.2306168">
  <ele>1595.58</ele>
  <time>2026-08-27T18:28:51Z</time>
  <course>294.38</course>
  <speed>0.42</speed>
  <fix>3d</fix>
</trkpt>
<trkpt lat="40.0728004" lon="-105.2306183">
  <ele>1595.68</ele>
  <time>2026-08-27T18:28:51Z</time>
  <course>8.58</course>
  <speed>0.3956008088970496</speed>
  <fix>3d</fix>
</trkpt>
<trkpt lat="40.0728003" lon="-105.2306177">
  <ele>1595.58</ele>
  <time>2026-08-27T18:28:51Z</time>
  <course>288.44</course>
  <speed>0.43</speed>
  <fix>3d</fix>
</trkpt>
<trkpt lat="40.0728005" lon="-105.2306192">
  <ele>1595.68</ele>
  <time>2026-08-27T18:28:51Z</time>
  <course>8.59</course>
  <speed>0.3590264614203248</speed>
  <fix>3d</fix>
</trkpt>
<trkpt lat="40.0728005" lon="-105.2306188">
  <ele>1595.58</ele>
  <time>2026-08-27T18:28:51Z</time>
  <course>284.9</course>
  <speed>0.41</speed>
  <fix>3d</fix>
</trkpt>
<trkpt lat="40.0728007" lon="-105.23062">
  <ele>1595.68</ele>
  <time>2026-08-27T18:28:51Z</time>
  <course>8.58</course>
  <speed>0.327566787083184</speed>
  <fix>3d</fix>
</trkpt>
<trkpt lat="40.0728007" lon="-105.2306197">
  <ele>1595.58</ele>
  <time>2026-08-27T18:28:51Z</time>
  <course>282.95</course>
  <speed>0.38</speed>
  <fix>3d</fix>
</trkpt>
<trkpt lat="40.0728008" lon="-105.2306208">
  <ele>1595.69</ele>
  <time>2026-08-27T18:28:51Z</time>
  <course>8.62</course>
  <speed>0.2863564212655271</speed>
  <fix>3d</fix>
</trkpt>
<trkpt lat="40.0728008" lon="-105.2306204">
  <ele>1595.58</ele>
  <time>2026-08-27T18:28:51Z</time>
  <course>282.17</course>
  <speed>0.34</speed>
  <fix>3d</fix>
</trkpt>
<trkpt lat="40.0728009" lon="-105.2306215">
  <ele>1595.69</ele>
  <time>2026-08-27T18:28:51Z</time>
  <course>8.67</course>
  <speed>0.25495097567963926</speed>
  <fix>3d</fix>
</trkpt>
<trkpt lat="40.0728009" lon="-105.2306212">
  <ele>1595.58</ele>
  <time>2026-08-27T18:28:51Z</time>
  <course>282.34</course>
  <speed>0.31</speed>
  <fix>3d</fix>
</trkpt>
<trkpt lat="40.072801" lon="-105.2306221">
  <ele>1595.7</ele>
  <time>2026-08-27T18:28:51Z</time>
  <course>8.64</course>
  <speed>0.22561028345356957</speed>
  <fix>3d</fix>
</trkpt>
<trkpt lat="40.072801" lon="-105.2306219">
  <ele>1595.57</ele>
  <time>2026-08-27T18:28:51Z</time>
  <course>283.27</course>
  <speed>0.28</speed>
  <fix>3d</fix>
</trkpt>
<trkpt lat="40.0728011" lon="-105.2306226">
  <ele>1595.69</ele>
  <time>2026-08-27T18:28:51Z</time>
  <course>8.66</course>
  <speed>0.20615528128088303</speed>
  <fix>3d</fix>
</trkpt>
<trkpt lat="40.0728011" lon="-105.2306226">
  <ele>1595.57</ele>
  <time>2026-08-27T18:28:51Z</time>
  <course>284.65</course>
  <speed>0.25</speed>
  <fix>3d</fix>
</trkpt>
<trkpt lat="40.0728012" lon="-105.2306231">
  <ele>1595.69</ele>
  <time>2026-08-27T18:28:51Z</time>
  <course>8.65</course>
  <speed>0.17464249196572978</speed>
  <fix>3d</fix>
</trkpt>
<trkpt lat="40.0728012" lon="-105.2306231">
  <ele>1595.56</ele>
  <time>2026-08-27T18:28:51Z</time>
  <course>286.39</course>
  <speed>0.22</speed>
  <fix>3d</fix>
</trkpt>
<trkpt lat="40.0728013" lon="-105.2306236">
  <ele>1595.69</ele>
  <time>2026-08-27T18:28:51Z</time>
  <course>8.63</course>
  <speed>0.15524174696260024</speed>
  <fix>3d</fix>
</trkpt>
<trkpt lat="40.0728013" lon="-105.2306236">
  <ele>1595.56</ele>
  <time>2026-08-27T18:28:51Z</time>
  <course>288.51</course>
  <speed>0.2</speed>
  <fix>3d</fix>
</trkpt>
<trkpt lat="40.0728014" lon="-105.230624">
  <ele>1595.69</ele>
  <time>2026-08-27T18:28:51Z</time>
  <course>8.61</course>
  <speed>0.14560219778561037</speed>
  <fix>3d</fix>
</trkpt>
<trkpt lat="40.0728015" lon="-105.2306239">
  <ele>1595.55</ele>
  <time>2026-08-27T18:28:51Z</time>
  <course>290.84</course>
  <speed>0.18</speed>
  <fix>3d</fix>
</trkpt>
<trkpt lat="40.0728015" lon="-105.2306244">
  <ele>1595.68</ele>
  <time>2026-08-27T18:28:51Z</time>
  <course>8.6</course>
  <speed>0.1264911064067352</speed>
  <fix>3d</fix>
</trkpt>
<trkpt lat="40.0728016" lon="-105.2306244">
  <ele>1595.55</ele>
  <time>2026-08-27T18:28:51Z</time>
  <course>293.31</course>
  <speed>0.17</speed>
  <fix>3d</fix>
</trkpt>
<trkpt lat="40.0728017" lon="-105.2306247">
  <ele>1595.67</ele>
  <time>2026-08-27T18:28:51Z</time>
  <course>8.56</course>
  <speed>0.11704699910719625</speed>
  <fix>3d</fix>
</trkpt>
<trkpt lat="40.0728017" lon="-105.2306247">
  <ele>1595.54</ele>
  <time>2026-08-27T18:28:51Z</time>
  <course>295.76</course>
  <speed>0.15</speed>
  <fix>3d</fix>
</trkpt>
<trkpt lat="40.0728018" lon="-105.230625">
  <ele>1595.66</ele>
  <time>2026-08-27T18:28:51Z</time>
  <course>8.54</course>
  <speed>0.10770329614269007</speed>
  <fix>3d</fix>
</trkpt>
<trkpt lat="40.0728019" lon="-105.2306251">
  <ele>1595.54</ele>
  <time>2026-08-27T18:28:51Z</time>
  <course>297.95</course>
  <speed>0.14</speed>
  <fix>3d</fix>
</trkpt>
<trkpt lat="40.0728019" lon="-105.2306253">
  <ele>1595.65</ele>
  <time>2026-08-27T18:28:51Z</time>
  <course>8.53</course>
  <speed>0.09848857801796104</speed>
  <fix>3d</fix>
</trkpt>
<trkpt lat="40.072802" lon="-105.2306254">
  <ele>1595.54</ele>
  <time>2026-08-27T18:28:51Z</time>
  <course>299.95</course>
  <speed>0.13</speed>
  <fix>3d</fix>
</trkpt>
<trkpt lat="40.072802" lon="-105.2306255">
  <ele>1595.64</ele>
  <time>2026-08-27T18:28:51Z</time>
  <course>8.51</course>
  <speed>0.08944271909999159</speed>
  <fix>3d</fix>
</trkpt>
<trkpt lat="40.0728021" lon="-105.2306256">
  <ele>1595.54</ele>
  <time>2026-08-27T18:28:51Z</time>
  <course>302.01</course>
  <speed>0.12</speed>
  <fix>3d</fix>
</trkpt>
<trkpt lat="40.0728021" lon="-105.2306258">
  <ele>1595.65</ele>
  <time>2026-08-27T18:28:51Z</time>
  <course>8.46</course>
  <speed>0.08944271909999159</speed>
  <fix>3d</fix>
</trkpt>
<trkpt lat="40.0728022" lon="-105.2306259">
  <ele>1595.54</ele>
  <time>2026-08-27T18:28:51Z</time>
  <course>303.56</course>
  <speed>0.12</speed>
  <fix>3d</fix>
</trkpt>
<trkpt lat="40.0728023" lon="-105.2306261">
  <ele>1595.65</ele>
  <time>2026-08-27T18:28:51Z</time>
  <course>8.46</course>
  <speed>0.1341640786499874</speed>
  <fix>3d</fix>
</trkpt>
<trkpt lat="40.0728024" lon="-105.2306261">
  <ele>1595.54</ele>
  <time>2026-08-27T18:28:51Z</time>
  <course>302.65</course>
  <speed>0.13</speed>
  <fix>3d</fix>
</trkpt>
<trkpt lat="40.0728024" lon="-105.2306265">
  <ele>1595.66</ele>
  <time>2026-08-27T18:28:51Z</time>
  <course>8.51</course>
  <speed>0.19697715603592209</speed>
  <fix>3d</fix>
</trkpt>
<trkpt lat="40.0728025" lon="-105.2306265">
  <ele>1595.54</ele>
  <time>2026-08-27T18:28:51Z</time>
  <course>299.03</course>
  <speed>0.18</speed>
  <fix>3d</fix>
</trkpt>
<trkpt lat="40.0728026" lon="-105.230627">
  <ele>1595.66</ele>
  <time>2026-08-27T18:28:51Z</time>
  <course>8.52</course>
  <speed>0.2879236009777594</speed>
  <fix>3d</fix>
</trkpt>
<trkpt lat="40.0728026" lon="-105.2306269">
  <ele>1595.55</ele>
  <time>2026-08-27T18:28:51Z</time>
  <course>294.75</course>
  <speed>0.25</speed>
  <fix>3d</fix>
</trkpt>
<trkpt lat="40.0728029" lon="-105.2306278">
  <ele>1595.66</ele>
  <time>2026-08-27T18:28:51Z</time>
  <course>8.52</course>
  <speed>0.3889730067755345</speed>
  <fix>3d</fix>
</trkpt>
<trkpt lat="40.0728029" lon="-105.2306275">
  <ele>1595.55</ele>
  <time>2026-08-27T18:28:51Z</time>
  <course>290.93</course>
  <speed>0.34</speed>
  <fix>3d</fix>
</trkpt>
<trkpt lat="40.0728031" lon="-105.2306289">
  <ele>1595.66</ele>
  <time>2026-08-27T18:28:51Z</time>
  <course>8.52</course>
  <speed>0.4850773134253961</speed>
  <fix>3d</fix>
</trkpt>
<trkpt lat="40.0728031" lon="-105.2306284">
  <ele>1595.55</ele>
  <time>2026-08-27T18:28:51Z</time>
  <course>287.72</course>
  <speed>0.44</speed>
  <fix>3d</fix>
</trkpt>
<trkpt lat="40.0728034" lon="-105.2306301">
  <ele>1595.67</ele>
  <time>2026-08-27T18:28:51Z</time>
  <course>8.5</course>
  <speed>0.5531726674375732</speed>
  <fix>3d</fix>
</trkpt>
<trkpt lat="40.0728034" lon="-105.2306294">
  <ele>1595.56</ele>
  <time>2026-08-27T18:28:51Z</time>
  <course>284.96</course>
  <speed>0.53</speed>
  <fix>3d</fix>
</trkpt>
<trkpt lat="40.0728036" lon="-105.2306315">
  <ele>1595.67</ele>
  <time>2026-08-27T18:28:51Z</time>
  <course>8.54</course>
  <speed>0.5885575587824864</speed>
  <fix>3d</fix>
</trkpt>
<trkpt lat="40.0728036" lon="-105.2306308">
  <ele>1595.56</ele>
  <time>2026-08-27T18:28:51Z</time>
  <course>282.43</course>
  <speed>0.59</speed>
  <fix>3d</fix>
</trkpt>
<trkpt lat="40.0728038" lon="-105.2306329">
  <ele>1595.68</ele>
  <time>2026-08-27T18:28:51Z</time>
  <course>8.58</course>
  <speed>0.5742821606144493</speed>
  <fix>3d</fix>
</trkpt>
<trkpt lat="40.0728038" lon="-105.2306322">
  <ele>1595.56</ele>
  <time>2026-08-27T18:28:51Z</time>
  <course>279.94</course>
  <speed>0.61</speed>
  <fix>3d</fix>
</trkpt>
<trkpt lat="40.0728039" lon="-105.2306342">
  <ele>1595.68</ele>
  <time>2026-08-27T18:28:51Z</time>
  <course>8.63</course>
  <speed>0.5108815909777921</speed>
  <fix>3d</fix>
</trkpt>
<trkpt lat="40.072804" lon="-105.2306335">
  <ele>1595.56</ele>
  <time>2026-08-27T18:28:51Z</time>
  <course>277.26</course>
  <speed>0.59</speed>
  <fix>3d</fix>
</trkpt>
<trkpt lat="40.0728039" lon="-105.2306354">
  <ele>1595.69</ele>
  <time>2026-08-27T18:28:51Z</time>
  <course>8.68</course>
  <speed>0.4001249804748511</speed>
  <fix>3d</fix>
</trkpt>
<trkpt lat="40.0728041" lon="-105.2306348">
  <ele>1595.57</ele>
  <time>2026-08-27T18:28:51Z</time>
  <course>273.97</course>
  <speed>0.51</speed>
  <fix>3d</fix>
</trkpt>
<trkpt lat="40.0728039" lon="-105.2306362">
  <ele>1595.69</ele>
  <time>2026-08-27T18:28:51Z</time>
  <course>8.71</course>
  <speed>0.24738633753705963</speed>
  <fix>3d</fix>
</trkpt>
<trkpt lat="40.0728041" lon="-105.2306359">
  <ele>1595.57</ele>
  <time>2026-08-27T18:28:51Z</time>
  <course>269.09</course>
  <speed>0.38</speed>
  <fix>3d</fix>
</trkpt>
<trkpt lat="40.0728038" lon="-105.2306366">
  <ele>1595.68</ele>
  <time>2026-08-27T18:28:51Z</time>
  <course>8.71</course>
  <speed>0.1118033988749895</speed>
  <fix>3d</fix>
</trkpt>
<trkpt lat="40.072804" lon="-105.2306367">
  <ele>1595.57</ele>
  <time>2026-08-27T18:28:51Z</time>
  <course>258.45</course>
  <speed>0.22</speed>
  <fix>3d</fix>
</trkpt>
<trkpt lat="40.0728037" lon="-105.2306367">
  <ele>1595.68</ele>
  <time>2026-08-27T18:28:51Z</time>
  <course>8.61</course>
  <speed>0.191049731745428</speed>
  <fix>3d</fix>
</trkpt>
<trkpt lat="40.072804" lon="-105.230637">
  <ele>1595.56</ele>
  <time>2026-08-27T18:28:51Z</time>
  <course>201.12</course>
  <speed>0.08</speed>
  <fix>3d</fix>
</trkpt>
<trkpt lat="40.0728035" lon="-105.2306362">
  <ele>1595.67</ele>
  <time>2026-08-27T18:28:51Z</time>
  <course>8.49</course>
  <speed>0.3624913792078372</speed>
  <fix>3d</fix>
</trkpt>
<trkpt lat="40.0728038" lon="-105.2306369">
  <ele>1595.56</ele>
  <time>2026-08-27T18:28:51Z</time>
  <course>120.02</course>
  <speed>0.19</speed>
  <fix>3d</fix>
</trkpt>
<trkpt lat="40.0728033" lon="-105.2306353">
  <ele>1595.67</ele>
  <time>2026-08-27T18:28:51Z</time>
  <course>8.35</course>
  <speed>0.5220153254455275</speed>
  <fix>3d</fix>
</trkpt>
<trkpt lat="40.0728036" lon="-105.2306363">
  <ele>1595.56</ele>
  <time>2026-08-27T18:28:51Z</time>
  <course>106.25</course>
  <speed>0.37</speed>
  <fix>3d</fix>
</trkpt>
<trkpt lat="40.0728031" lon="-105.230634">
  <ele>1595.66</ele>
  <time>2026-08-27T18:28:51Z</time>
  <course>8.28</course>
  <speed>0.6432728814430156</speed>
  <fix>3d</fix>
</trkpt>
<trkpt lat="40.0728035" lon="-105.2306352">
  <ele>1595.55</ele>
  <time>2026-08-27T18:28:51Z</time>
  <course>100.43</course>
  <speed>0.53</speed>
  <fix>3d</fix>
</trkpt>
<trkpt lat="40.072803" lon="-105.2306325">
  <ele>1595.66</ele>
  <time>2026-08-27T18:28:51Z</time>
  <course>8.24</course>
  <speed>0.7057619995437555</speed>
  <fix>3d</fix>
</trkpt>
<trkpt lat="40.0728034" lon="-105.2306338">
  <ele>1595.55</ele>
  <time>2026-08-27T18:28:51Z</time>
  <course>96.44</course>
  <speed>0.64</speed>
  <fix>3d</fix>
</trkpt>
<trkpt lat="40.0728029" lon="-105.2306309">
  <ele>1595.66</ele>
  <time>2026-08-27T18:28:51Z</time>
  <course>8.27</course>
  <speed>0.711125867902441</speed>
  <fix>3d</fix>
</trkpt>
<trkpt lat="40.0728032" lon="-105.2306323">
  <ele>1595.55</ele>
  <time>2026-08-27T18:28:51Z</time>
  <course>92.9</course>
  <speed>0.7</speed>
  <fix>3d</fix>
</trkpt>
<trkpt lat="40.072803" lon="-105.2306294">
  <ele>1595.66</ele>
  <time>2026-08-27T18:28:51Z</time>
  <course>8.32</course>
  <speed>0.6500769185258002</speed>
  <fix>3d</fix>
</trkpt>
<trkpt lat="40.0728032" lon="-105.2306306">
  <ele>1595.55</ele>
  <time>2026-08-27T18:28:51Z</time>
  <course>89.13</course>
  <speed>0.69</speed>
  <fix>3d</fix>
</trkpt>
<trkpt lat="40.0728031" lon="-105.230628">
  <ele>1595.66</ele>
  <time>2026-08-27T18:28:51Z</time>
  <course>8.41</course>
  <speed>0.5246903848937962</speed>
  <fix>3d</fix>
</trkpt>
<trkpt lat="40.0728032" lon="-105.230629">
  <ele>1595.55</ele>
  <time>2026-08-27T18:28:51Z</time>
  <course>84.37</course>
  <speed>0.61</speed>
  <fix>3d</fix>
</trkpt>
<trkpt lat="40.0728033" lon="-105.230627">
  <ele>1595.67</ele>
  <time>2026-08-27T18:28:51Z</time>
  <course>8.48</course>
  <speed>0.37</speed>
  <fix>3d</fix>
</trkpt>
<trkpt lat="40.0728034" lon="-105.2306278">
  <ele>1595.56</ele>
  <time>2026-08-27T18:28:51Z</time>
  <course>77.17</course>
  <speed>0.49</speed>
  <fix>3d</fix>
</trkpt>
<trkpt lat="40.0728036" lon="-105.2306264">
  <ele>1595.67</ele>
  <time>2026-08-27T18:28:51Z</time>
  <course>8.55</course>
  <speed>0.212602916254693</speed>
  <fix>3d</fix>
</trkpt>
<trkpt lat="40.0728036" lon="-105.2306268">
  <ele>1595.56</ele>
  <time>2026-08-27T18:28:51Z</time>
  <course>63.1</course>
  <speed>0.33</speed>
  <fix>3d</fix>
</trkpt>
<trkpt lat="40.0728039" lon="-105.2306263">
  <ele>1595.67</ele>
  <time>2026-08-27T18:28:51Z</time>
  <course>8.55</course>
  <speed>0.20248456731316586</speed>
  <fix>3d</fix>
</trkpt>
<trkpt lat="40.0728039" lon="-105.2306264">
  <ele>1595.56</ele>
  <time>2026-08-27T18:28:51Z</time>
  <course>25.37</course>
  <speed>0.2</speed>
  <fix>3d</fix>
</trkpt>
<trkpt lat="40.0728043" lon="-105.2306266">
  <ele>1595.66</ele>
  <time>2026-08-27T18:28:51Z</time>
  <course>8.53</course>
  <speed>0.34409301068170506</speed>
  <fix>3d</fix>
</trkpt>
<trkpt lat="40.0728042" lon="-105.2306264">
  <ele>1595.56</ele>
  <time>2026-08-27T18:28:51Z</time>
  <course>325.34</course>
  <speed>0.23</speed>
  <fix>3d</fix>
</trkpt>
<trkpt lat="40.0728047" lon="-105.2306275">
  <ele>1595.66</ele>
  <time>2026-08-27T18:28:51Z</time>
  <course>8.45</course>
  <speed>0.5069516742254631</speed>
  <fix>3d</fix>
</trkpt>
<trkpt lat="40.0728046" lon="-105.230627">
  <ele>1595.56</ele>
  <time>2026-08-27T18:28:51Z</time>
  <course>299.28</course>
  <speed>0.39</speed>
  <fix>3d</fix>
</trkpt>
<trkpt lat="40.072805" lon="-105.2306288">
  <ele>1595.66</ele>
  <time>2026-08-27T18:28:51Z</time>
  <course>8.43</course>
  <speed>0.6306346010171024</speed>
  <fix>3d</fix>
</trkpt>
<trkpt lat="40.0728049" lon="-105.230628">
  <ele>1595.57</ele>
  <time>2026-08-27T18:28:51Z</time>
  <course>288.39</course>
  <speed>0.55</speed>
  <fix>3d</fix>
</trkpt>
<trkpt lat="40.0728053" lon="-105.2306304">
  <ele>1595.67</ele>
  <time>2026-08-27T18:28:51Z</time>
  <course>8.46</course>
  <speed>0.708590149522275</speed>
  <fix>3d</fix>
</trkpt>
<trkpt lat="40.0728052" lon="-105.2306294">
  <ele>1595.57</ele>
  <time>2026-08-27T18:28:51Z</time>
  <course>282.0</course>
  <speed>0.67</speed>
  <fix>3d</fix>
</trkpt>
<trkpt lat="40.0728054" lon="-105.230632">
  <ele>1595.68</ele>
  <time>2026-08-27T18:28:51Z</time>
  <course>8.52</course>
  <speed>0.7125307010929425</speed>
  <fix>3d</fix>
</trkpt>
<trkpt lat="40.0728054" lon="-105.230631">
  <ele>1595.57</ele>
  <time>2026-08-27T18:28:51Z</time>
  <course>277.19</course>
  <speed>0.73</speed>
  <fix>3d</fix>
</trkpt>
<trkpt lat="40.0728055" lon="-105.2306337">
  <ele>1595.68</ele>
  <time>2026-08-27T18:28:51Z</time>
  <course>8.64</course>
  <speed>0.65</speed>
  <fix>3d</fix>
</trkpt>
<trkpt lat="40.0728055" lon="-105.2306327">
  <ele>1595.57</ele>
  <time>2026-08-27T18:28:51Z</time>
  <course>272.78</course>
  <speed>0.72</speed>
  <fix>3d</fix>
</trkpt>
<trkpt lat="40.0728054" lon="-105.2306351">
  <ele>1595.69</ele>
  <time>2026-08-27T18:28:51Z</time>
  <course>8.7</course>
  <speed>0.5333854141237835</speed>
  <fix>3d</fix>
</trkpt>
<trkpt lat="40.0728055" lon="-105.2306343">
  <ele>1595.57</ele>
  <time>2026-08-27T18:28:51Z</time>
  <course>267.92</course>
  <speed>0.65</speed>
  <fix>3d</fix>
</trkpt>
<trkpt lat="40.0728053" lon="-105.2306362">
  <ele>1595.69</ele>
  <time>2026-08-27T18:28:51Z</time>
  <course>8.75</course>
  <speed>0.37947331922020555</speed>
  <fix>3d</fix>
</trkpt>
<trkpt lat="40.0728055" lon="-105.2306357">
  <ele>1595.58</ele>
  <time>2026-08-27T18:28:51Z</time>
  <course>261.33</course>
  <speed>0.52</speed>
  <fix>3d</fix>
</trkpt>
<trkpt lat="40.0728051" lon="-105.2306369">
  <ele>1595.69</ele>
  <time>2026-08-27T18:28:51Z</time>
  <course>8.78</course>
  <speed>0.22671568097509268</speed>
  <fix>3d</fix>
</trkpt>
<trkpt lat="40.0728053" lon="-105.2306367">
  <ele>1595.58</ele>
  <time>2026-08-27T18:28:51Z</time>
  <course>249.48</course>
  <speed>0.35</speed>
  <fix>3d</fix>
</trkpt>
<trkpt lat="40.0728048" lon="-105.230637">
  <ele>1595.69</ele>
  <time>2026-08-27T18:28:51Z</time>
  <course>8.74</course>
  <speed>0.21189620100417092</speed>
  <fix>3d</fix>
</trkpt>
<trkpt lat="40.0728051" lon="-105.2306373">
  <ele>1595.57</ele>
  <time>2026-08-27T18:28:51Z</time>
  <course>217.37</course>
  <speed>0.2</speed>
  <fix>3d</fix>
</trkpt>
<trkpt lat="40.0728044" lon="-105.2306368">
  <ele>1595.69</ele>
  <time>2026-08-27T18:28:51Z</time>
  <course>8.59</course>
  <speed>0.3522782990761707</speed>
  <fix>3d</fix>
</trkpt>
<trkpt lat="40.0728048" lon="-105.2306373">
  <ele>1595.57</ele>
  <time>2026-08-27T18:28:51Z</time>
  <course>149.36</course>
  <speed>0.2</speed>
  <fix>3d</fix>
</trkpt>
<trkpt lat="40.0728041" lon="-105.230636">
  <ele>1595.68</ele>
  <time>2026-08-27T18:28:51Z</time>
  <course>8.46</course>
  <speed>0.5162363799656123</speed>
  <fix>3d</fix>
</trkpt>
<trkpt lat="40.0728045" lon="-105.2306368">
  <ele>1595.56</ele>
  <time>2026-08-27T18:28:51Z</time>
  <course>118.55</course>
  <speed>0.36</speed>
  <fix>3d</fix>
</trkpt>
<trkpt lat="40.0728038" lon="-105.2306347">
  <ele>1595.68</ele>
  <time>2026-08-27T18:28:51Z</time>
  <course>8.34</course>
  <speed>0.6403124237432849</speed>
  <fix>3d</fix>
</trkpt>
<trkpt lat="40.0728042" lon="-105.230636">
  <ele>1595.56</ele>
  <time>2026-08-27T18:28:51Z</time>
  <course>106.93</course>
  <speed>0.52</speed>
  <fix>3d</fix>
</trkpt>
<trkpt lat="40.0728036" lon="-105.2306333">
  <ele>1595.67</ele>
  <time>2026-08-27T18:28:51Z</time>
  <course>8.3</course>
  <speed>0.7184705978674423</speed>
  <fix>3d</fix>
</trkpt>
<trkpt lat="40.072804" lon="-105.2306346">
  <ele>1595.55</ele>
  <time>2026-08-27T18:28:51Z</time>
  <course>100.3</course>
  <speed>0.64</speed>
  <fix>3d</fix>
</trkpt>
<trkpt lat="40.0728036" lon="-105.2306316">
  <ele>1595.67</ele>
  <time>2026-08-27T18:28:51Z</time>
  <course>8.31</course>
  <speed>0.7217340230306452</speed>
  <fix>3d</fix>
</trkpt>
<trkpt lat="40.0728038" lon="-105.230633">
  <ele>1595.55</ele>
  <time>2026-08-27T18:28:51Z</time>
  <course>95.25</course>
  <speed>0.7</speed>
  <fix>3d</fix>
</trkpt>
<trkpt lat="40.0728036" lon="-105.2306301">
  <ele>1595.66</ele>
  <time>2026-08-27T18:28:51Z</time>
  <course>8.36</course>
  <speed>0.67</speed>
  <fix>3d</fix>
</trkpt>
<trkpt lat="40.0728037" lon="-105.2306313">
  <ele>1595.54</ele>
  <time>2026-08-27T18:28:51Z</time>
  <course>90.45</course>
  <speed>0.7</speed>
  <fix>3d</fix>
</trkpt>
<trkpt lat="40.0728037" lon="-105.2306287">
  <ele>1595.67</ele>
  <time>2026-08-27T18:28:51Z</time>
  <course>8.44</course>
  <speed>0.5544366510251645</speed>
  <fix>3d</fix>
</trkpt>
<trkpt lat="40.0728037" lon="-105.2306298">
  <ele>1595.54</ele>
  <time>2026-08-27T18:28:51Z</time>
  <course>84.93</course>
  <speed>0.63</speed>
  <fix>3d</fix>
</trkpt>
<trkpt lat="40.0728038" lon="-105.2306276">
  <ele>1595.67</ele>
  <time>2026-08-27T18:28:51Z</time>
  <course>8.5</course>
  <speed>0.3921734310225516</speed>
  <fix>3d</fix>
</trkpt>
<trkpt lat="40.0728038" lon="-105.2306285">
  <ele>1595.55</ele>
  <time>2026-08-27T18:28:51Z</time>
  <course>77.09</course>
  <speed>0.5</speed>
  <fix>3d</fix>
</trkpt>
<trkpt lat="40.0728042" lon="-105.230627">
  <ele>1595.66</ele>
  <time>2026-08-27T18:28:51Z</time>
  <course>8.58</course>
  <speed>0.24083189157584592</speed>
  <fix>3d</fix>
</trkpt>
<trkpt lat="40.0728041" lon="-105.2306275">
  <ele>1595.55</ele>
  <time>2026-08-27T18:28:51Z</time>
  <course>62.57</course>
  <speed>0.35</speed>
  <fix>3d</fix>
</trkpt>
<trkpt lat="40.0728045" lon="-105.2306268">
  <ele>1595.66</ele>
  <time>2026-08-27T18:28:51Z</time>
  <course>8.56</course>
  <speed>0.215870331449229</speed>
  <fix>3d</fix>
</trkpt>
<trkpt lat="40.0728043" lon="-105.230627">
  <ele>1595.55</ele>
  <time>2026-08-27T18:28:51Z</time>
  <course>26.57</course>
  <speed>0.22</speed>
  <fix>3d</fix>
</trkpt>
<trkpt lat="40.0728049" lon="-105.2306272">
  <ele>1595.66</ele>
  <time>2026-08-27T18:28:51Z</time>
  <course>8.54</course>
  <speed>0.34828149534535996</speed>
  <fix>3d</fix>
</trkpt>
<trkpt lat="40.0728048" lon="-105.230627">
  <ele>1595.55</ele>
  <time>2026-08-27T18:28:51Z</time>
  <course>329.45</course>
  <speed>0.25</speed>
  <fix>3d</fix>
</trkpt>
<trkpt lat="40.0728053" lon="-105.230628">
  <ele>1595.66</ele>
  <time>2026-08-27T18:28:51Z</time>
  <course>8.48</course>
  <speed>0.5015974481593781</speed>
  <fix>3d</fix>
</trkpt>
<trkpt lat="40.0728052" lon="-105.2306275">
  <ele>1595.55</ele>
  <time>2026-08-27T18:28:51Z</time>
  <course>301.99</course>
  <speed>0.4</speed>
  <fix>3d</fix>
</trkpt>
<trkpt lat="40.0728057" lon="-105.2306293">
  <ele>1595.66</ele>
  <time>2026-08-27T18:28:51Z</time>
  <course>8.45</course>
  <speed>0.6332456079595026</speed>
  <fix>3d</fix>
</trkpt>
<trkpt lat="40.0728055" lon="-105.2306285">
  <ele>1595.55</ele>
  <time>2026-08-27T18:28:51Z</time>
  <course>290.19</course>
  <speed>0.56</speed>
  <fix>3d</fix>
</trkpt>
<trkpt lat="40.0728059" lon="-105.2306309">
  <ele>1595.66</ele>
  <time>2026-08-27T18:28:51Z</time>
  <course>8.45</course>
  <speed>0.7003570517957252</speed>
  <fix>3d</fix>
</trkpt>
<trkpt lat="40.0728058" lon="-105.2306299">
  <ele>1595.55</ele>
  <time>2026-08-27T18:28:51Z</time>
  <course>283.3</course>
  <speed>0.67</speed>
  <fix>3d</fix>
</trkpt>
<trkpt lat="40.0728061" lon="-105.2306325">
  <ele>1595.66</ele>
  <time>2026-08-27T18:28:51Z</time>
  <course>8.53</course>
  <speed>0.7125307010929425</speed>
  <fix>3d</fix>
</trkpt>
<trkpt lat="40.072806" lon="-105.2306316">
  <ele>1595.55</ele>
  <time>2026-08-27T18:28:51Z</time>
  <course>278.18</course>
  <speed>0.73</speed>
  <fix>3d</fix>
</trkpt>
<trkpt lat="40.0728062" lon="-105.2306342">
  <ele>1595.66</ele>
  <time>2026-08-27T18:28:51Z</time>
  <course>8.62</course>
  <speed>0.66</speed>
  <fix>3d</fix>
</trkpt>
<trkpt lat="40.0728062" lon="-105.2306333">
  <ele>1595.56</ele>
  <time>2026-08-27T18:28:51Z</time>
  <course>273.55</course>
  <speed>0.73</speed>
  <fix>3d</fix>
</trkpt>
<trkpt lat="40.0728061" lon="-105.2306357">
  <ele>1595.67</ele>
  <time>2026-08-27T18:28:51Z</time>
  <course>8.71</course>
  <speed>0.5433231082882449</speed>
  <fix>3d</fix>
</trkpt>
<trkpt lat="40.0728062" lon="-105.230635">
  <ele>1595.56</ele>
  <time>2026-08-27T18:28:51Z</time>
  <course>268.52</course>
  <speed>0.66</speed>
  <fix>3d</fix>
</trkpt>
<trkpt lat="40.072806" lon="-105.2306368">
  <ele>1595.67</ele>
  <time>2026-08-27T18:28:51Z</time>
  <course>8.74</course>
  <speed>0.37947331922020555</speed>
  <fix>3d</fix>
</trkpt>
<trkpt lat="40.0728062" lon="-105.2306364">
  <ele>1595.57</ele>
  <time>2026-08-27T18:28:51Z</time>
  <course>261.8</course>
  <speed>0.53</speed>
  <fix>3d</fix>
</trkpt>
<trkpt lat="40.0728058" lon="-105.2306375">
  <ele>1595.67</ele>
  <time>2026-08-27T18:28:51Z</time>
  <course>8.72</course>
  <speed>0.22671568097509268</speed>
  <fix>3d</fix>
</trkpt>
<trkpt lat="40.072806" lon="-105.2306374">
  <ele>1595.57</ele>
  <time>2026-08-27T18:28:51Z</time>
  <course>249.94</course>
  <speed>0.36</speed>
  <fix>3d</fix>
</trkpt>
<trkpt lat="40.0728055" lon="-105.2306378">
  <ele>1595.67</ele>
  <time>2026-08-27T18:28:51Z</time>
  <course>8.65</course>
  <speed>0.208806130178211</speed>
  <fix>3d</fix>
</trkpt>
<trkpt lat="40.0728058" lon="-105.2306379">
  <ele>1595.58</ele>
  <time>2026-08-27T18:28:51Z</time>
  <course>218.56</course>
  <speed>0.2</speed>
  <fix>3d</fix>
</trkpt>
<trkpt lat="40.0728051" lon="-105.2306374">
  <ele>1595.67</ele>
  <time>2026-08-27T18:28:51Z</time>
  <course>8.54</course>
  <speed>0.35</speed>
  <fix>3d</fix>
</trkpt>
<trkpt lat="40.0728055" lon="-105.230638">
  <ele>1595.58</ele>
  <time>2026-08-27T18:28:51Z</time>
  <course>150.96</course>
  <speed>0.2</speed>
  <fix>3d</fix>
</trkpt>
<trkpt lat="40.0728048" lon="-105.2306366">
  <ele>1595.66</ele>
  <time>2026-08-27T18:28:51Z</time>
  <course>8.4</course>
  <speed>0.5107837115648853</speed>
  <fix>3d</fix>
</trkpt>
<trkpt lat="40.0728052" lon="-105.2306376">
  <ele>1595.58</ele>
  <time>2026-08-27T18:28:51Z</time>
  <course>119.26</course>
  <speed>0.36</speed>
  <fix>3d</fix>
</trkpt>
<trkpt lat="40.0728045" lon="-105.2306355">
  <ele>1595.66</ele>
  <time>2026-08-27T18:28:51Z</time>
  <course>8.31</course>
  <speed>0.6428841264178172</speed>
  <fix>3d</fix>
</trkpt>
<trkpt lat="40.0728049" lon="-105.2306366">
  <ele>1595.58</ele>
  <time>2026-08-27T18:28:51Z</time>
  <course>107.34</course>
  <speed>0.52</speed>
  <fix>3d</fix>
</trkpt>
<trkpt lat="40.0728043" lon="-105.230634">
  <ele>1595.66</ele>
  <time>2026-08-27T18:28:51Z</time>
  <course>8.28</course>
  <speed>0.7102112361825881</speed>
  <fix>3d</fix>
</trkpt>
<trkpt lat="40.0728047" lon="-105.2306353">
  <ele>1595.58</ele>
  <time>2026-08-27T18:28:51Z</time>
  <course>100.57</course>
  <speed>0.64</speed>
  <fix>3d</fix>
</trkpt>
<trkpt lat="40.0728042" lon="-105.2306324">
  <ele>1595.66</ele>
  <time>2026-08-27T18:28:51Z</time>
  <course>8.32</course>
  <speed>0.7224956747275377</speed>
  <fix>3d</fix>
</trkpt>
<trkpt lat="40.0728044" lon="-105.2306337">
  <ele>1595.58</ele>
  <time>2026-08-27T18:28:51Z</time>
  <course>95.43</course>
  <speed>0.7</speed>
  <fix>3d</fix>
</trkpt>
<trkpt lat="40.0728042" lon="-105.2306308">
  <ele>1595.66</ele>
  <time>2026-08-27T18:28:51Z</time>
  <course>8.37</course>
  <speed>0.66</speed>
  <fix>3d</fix>
</trkpt>
<trkpt lat="40.0728043" lon="-105.230632">
  <ele>1595.58</ele>
  <time>2026-08-27T18:28:51Z</time>
  <course>90.57</course>
  <speed>0.7</speed>
  <fix>3d</fix>
</trkpt>
<trkpt lat="40.0728043" lon="-105.2306294">
  <ele>1595.67</ele>
  <time>2026-08-27T18:28:51Z</time>
  <course>8.45</course>
  <speed>0.5445181356024793</speed>
  <fix>3d</fix>
</trkpt>
<trkpt lat="40.0728044" lon="-105.2306305">
  <ele>1595.58</ele>
  <time>2026-08-27T18:28:51Z</time>
  <course>84.98</course>
  <speed>0.63</speed>
  <fix>3d</fix>
</trkpt>
<trkpt lat="40.0728045" lon="-105.2306283">
  <ele>1595.67</ele>
  <time>2026-08-27T18:28:51Z</time>
  <course>8.52</course>
  <speed>0.3921734310225516</speed>
  <fix>3d</fix>
</trkpt>
<trkpt lat="40.0728045" lon="-105.2306291">
  <ele>1595.58</ele>
  <time>2026-08-27T18:28:51Z</time>
  <course>77.09</course>
  <speed>0.51</speed>
  <fix>3d</fix>
</trkpt>
<trkpt lat="40.0728048" lon="-105.2306277">
  <ele>1595.67</ele>
  <time>2026-08-27T18:28:51Z</time>
  <course>8.59</course>
  <speed>0.24083189157584592</speed>
  <fix>3d</fix>
</trkpt>
<trkpt lat="40.0728047" lon="-105.2306282">
  <ele>1595.59</ele>
  <time>2026-08-27T18:28:51Z</time>
  <course>62.56</course>
  <speed>0.35</speed>
  <fix>3d</fix>
</trkpt>
<trkpt lat="40.0728052" lon="-105.2306276">
  <ele>1595.67</ele>
  <time>2026-08-27T18:28:51Z</time>
  <course>8.59</course>
  <speed>0.215870331449229</speed>
  <fix>3d</fix>
</trkpt>
<trkpt lat="40.072805" lon="-105.2306277">
  <ele>1595.59</ele>
  <time>2026-08-27T18:28:51Z</time>
  <course>26.97</course>
  <speed>0.22</speed>
  <fix>3d</fix>
</trkpt>
<trkpt lat="40.0728056" lon="-105.2306279">
  <ele>1595.67</ele>
  <time>2026-08-27T18:28:51Z</time>
  <course>8.56</course>
  <speed>0.34828149534535996</speed>
  <fix>3d</fix>
</trkpt>
<trkpt lat="40.0728055" lon="-105.2306276">
  <ele>1595.59</ele>
  <time>2026-08-27T18:28:51Z</time>
  <course>330.48</course>
  <speed>0.25</speed>
  <fix>3d</fix>
</trkpt>
<trkpt lat="40.072806" lon="-105.2306288">
  <ele>1595.67</ele>
  <time>2026-08-27T18:28:51Z</time>
  <course>8.49</course>
  <speed>0.5056678751908212</speed>
  <fix>3d</fix>
</trkpt>
<trkpt lat="40.0728059" lon="-105.2306281">
  <ele>1595.59</ele>
  <time>2026-08-27T18:28:51Z</time>
  <course>302.71</course>
  <speed>0.4</speed>
  <fix>3d</fix>
</trkpt>
<trkpt lat="40.0728064" lon="-105.23063">
  <ele>1595.67</ele>
  <time>2026-08-27T18:28:51Z</time>
  <course>8.47</course>
  <speed>0.6360031446463138</speed>
  <fix>3d</fix>
</trkpt>
<trkpt lat="40.0728062" lon="-105.2306291">
  <ele>1595.59</ele>
  <time>2026-08-27T18:28:51Z</time>
  <course>290.7</course>
  <speed>0.55</speed>
  <fix>3d</fix>
</trkpt>
<trkpt lat="40.0728067" lon="-105.2306316">
  <ele>1595.67</ele>
  <time>2026-08-27T18:28:51Z</time>
  <course>8.48</course>
  <speed>0.7119691004531025</speed>
  <fix>3d</fix>
</trkpt>
<trkpt lat="40.0728065" lon="-105.2306305">
  <ele>1595.59</ele>
  <time>2026-08-27T18:28:51Z</time>
  <course>283.71</course>
  <speed>0.67</speed>
  <fix>3d</fix>
</trkpt>
<trkpt lat="40.0728068" lon="-105.2306333">
  <ele>1595.67</ele>
  <time>2026-08-27T18:28:51Z</time>
  <course>8.57</course>
  <speed>0.7134423592694787</speed>
  <fix>3d</fix>
</trkpt>
<trkpt lat="40.0728067" lon="-105.2306322">
  <ele>1595.59</ele>
  <time>2026-08-27T18:28:51Z</time>
  <course>278.53</course>
  <speed>0.73</speed>
  <fix>3d</fix>
</trkpt>
<trkpt lat="40.0728069" lon="-105.2306349">
  <ele>1595.68</ele>
  <time>2026-08-27T18:28:51Z</time>
  <course>8.67</course>
  <speed>0.66</speed>
  <fix>3d</fix>
</trkpt>
<trkpt lat="40.0728069" lon="-105.2306339">
  <ele>1595.6</ele>
  <time>2026-08-27T18:28:51Z</time>
  <course>273.86</course>
  <speed>0.72</speed>
  <fix>3d</fix>
</trkpt>
<trkpt lat="40.0728068" lon="-105.2306363">
  <ele>1595.68</ele>
  <time>2026-08-27T18:28:51Z</time>
  <course>8.75</course>
  <speed>0.5333854141237835</speed>
  <fix>3d</fix>
</trkpt>
<trkpt lat="40.072807" lon="-105.2306356">
  <ele>1595.6</ele>
  <time>2026-08-27T18:28:51Z</time>
  <course>268.82</course>
  <speed>0.65</speed>
  <fix>3d</fix>
</trkpt>
<trkpt lat="40.0728067" lon="-105.2306374">
  <ele>1595.69</ele>
  <time>2026-08-27T18:28:51Z</time>
  <course>8.76</course>
  <speed>0.37947331922020555</speed>
  <fix>3d</fix>
</trkpt>
<trkpt lat="40.0728069" lon="-105.230637">
  <ele>1595.6</ele>
  <time>2026-08-27T18:28:51Z</time>
  <course>262.1</course>
  <speed>0.52</speed>
  <fix>3d</fix>
</trkpt>
<trkpt lat="40.0728065" lon="-105.2306381">
  <ele>1595.69</ele>
  <time>2026-08-27T18:28:51Z</time>
  <course>8.75</course>
  <speed>0.22671568097509268</speed>
  <fix>3d</fix>
</trkpt>
<trkpt lat="40.0728067" lon="-105.230638">
  <ele>1595.61</ele>
  <time>2026-08-27T18:28:51Z</time>
  <course>250.17</course>
  <speed>0.35</speed>
  <fix>3d</fix>
</trkpt>
<trkpt lat="40.0728062" lon="-105.2306383">
  <ele>1595.68</ele>
  <time>2026-08-27T18:28:51Z</time>
  <course>8.69</course>
  <speed>0.21189620100417092</speed>
  <fix>3d</fix>
</trkpt>
<trkpt lat="40.0728066" lon="-105.2306385">
  <ele>1595.61</ele>
  <time>2026-08-27T18:28:51Z</time>
  <course>217.93</course>
  <speed>0.19</speed>
  <fix>3d</fix>
</trkpt>
<trkpt lat="40.0728059" lon="-105.230638">
  <ele>1595.68</ele>
  <time>2026-08-27T18:28:51Z</time>
  <course>8.6</course>
  <speed>0.35</speed>
  <fix>3d</fix>
</trkpt>
<trkpt lat="40.0728062" lon="-105.2306385">
  <ele>1595.61</ele>
  <time>2026-08-27T18:28:51Z</time>
  <course>149.35</course>
  <speed>0.2</speed>
  <fix>3d</fix>
</trkpt>
<trkpt lat="40.0728056" lon="-105.2306372">
  <ele>1595.68</ele>
  <time>2026-08-27T18:28:51Z</time>
  <course>8.5</course>
  <speed>0.52</speed>
  <fix>3d</fix>
</trkpt>
<trkpt lat="40.0728059" lon="-105.2306381">
  <ele>1595.6</ele>
  <time>2026-08-27T18:28:51Z</time>
  <course>118.59</course>
  <speed>0.36</speed>
  <fix>3d</fix>
</trkpt>
<trkpt lat="40.0728053" lon="-105.230636">
  <ele>1595.68</ele>
  <time>2026-08-27T18:28:51Z</time>
  <course>8.37</course>
  <speed>0.6428841264178172</speed>
  <fix>3d</fix>
</trkpt>
<trkpt lat="40.0728056" lon="-105.2306371">
  <ele>1595.6</ele>
  <time>2026-08-27T18:28:51Z</time>
  <course>107.0</course>
  <speed>0.52</speed>
  <fix>3d</fix>
</trkpt>
<trkpt lat="40.0728051" lon="-105.2306345">
  <ele>1595.68</ele>
  <time>2026-08-27T18:28:51Z</time>
  <course>8.33</course>
  <speed>0.7102112361825881</speed>
  <fix>3d</fix>
</trkpt>
<trkpt lat="40.0728054" lon="-105.2306358">
  <ele>1595.59</ele>
  <time>2026-08-27T18:28:51Z</time>
  <course>100.39</course>
  <speed>0.64</speed>
  <fix>3d</fix>
</trkpt>
<trkpt lat="40.072805" lon="-105.2306329">
  <ele>1595.68</ele>
  <time>2026-08-27T18:28:51Z</time>
  <course>8.35</course>
  <speed>0.7224956747275377</speed>
  <fix>3d</fix>
</trkpt>
<trkpt lat="40.0728052" lon="-105.2306342">
  <ele>1595.59</ele>
  <time>2026-08-27T18:28:51Z</time>
  <course>95.35</course>
  <speed>0.7</speed>
  <fix>3d</fix>
</trkpt>
<trkpt lat="40.072805" lon="-105.2306313">
  <ele>1595.67</ele>
  <time>2026-08-27T18:28:51Z</time>
  <course>8.42</course>
  <speed>0.66</speed>
  <fix>3d</fix>
</trkpt>
<trkpt lat="40.0728052" lon="-105.2306326">
  <ele>1595.59</ele>
  <time>2026-08-27T18:28:51Z</time>
  <course>90.58</course>
  <speed>0.7</speed>
  <fix>3d</fix>
</trkpt>
<trkpt lat="40.0728051" lon="-105.2306299">
  <ele>1595.68</ele>
  <time>2026-08-27T18:28:51Z</time>
  <course>8.48</course>
  <speed>0.5445181356024793</speed>
  <fix>3d</fix>
</trkpt>
<trkpt lat="40.0728052" lon="-105.230631">
  <ele>1595.59</ele>
  <time>2026-08-27T18:28:51Z</time>
  <course>85.07</course>
  <speed>0.63</speed>
  <fix>3d</fix>
</trkpt>
<trkpt lat="40.0728053" lon="-105.2306289">
  <ele>1595.68</ele>
  <time>2026-08-27T18:28:51Z</time>
  <course>8.57</course>
  <speed>0.3921734310225516</speed>
  <fix>3d</fix>
</trkpt>
<trkpt lat="40.0728053" lon="-105.2306297">
  <ele>1595.59</ele>
  <time>2026-08-27T18:28:51Z</time>
  <course>77.25</course>
  <speed>0.51</speed>
  <fix>3d</fix>
</trkpt>
<trkpt lat="40.0728056" lon="-105.2306283">
  <ele>1595.68</ele>
  <time>2026-08-27T18:28:51Z</time>
  <course>8.61</course>
  <speed>0.24083189157584592</speed>
  <fix>3d</fix>
</trkpt>
<trkpt lat="40.0728055" lon="-105.2306287">
  <ele>1595.59</ele>
  <time>2026-08-27T18:28:51Z</time>
  <course>62.95</course>
  <speed>0.35</speed>
  <fix>3d</fix>
</trkpt>
<trkpt lat="40.072806" lon="-105.2306281">
  <ele>1595.68</ele>
  <time>2026-08-27T18:28:51Z</time>
  <course>8.61</course>
  <speed>0.215870331449229</speed>
  <fix>3d</fix>
</trkpt>
<trkpt lat="40.0728059" lon="-105.2306281">
  <ele>1595.59</ele>
  <time>2026-08-27T18:28:51Z</time>
  <course>27.88</course>
  <speed>0.22</speed>
  <fix>3d</fix>
</trkpt>
<trkpt lat="40.0728064" lon="-105.2306284">
  <ele>1595.68</ele>
  <time>2026-08-27T18:28:51Z</time>
  <course>8.58</course>
  <speed>0.34828149534535996</speed>
  <fix>3d</fix>
</trkpt>
<trkpt lat="40.0728062" lon="-105.2306281">
  <ele>1595.59</ele>
  <time>2026-08-27T18:28:51Z</time>
  <course>331.05</course>
  <speed>0.24</speed>
  <fix>3d</fix>
</trkpt>
<trkpt lat="40.0728068" lon="-105.2306293">
  <ele>1595.67</ele>
  <time>2026-08-27T18:28:51Z</time>
  <course>8.56</course>
  <speed>0.5056678751908212</speed>
  <fix>3d</fix>
</trkpt>
<trkpt lat="40.0728066" lon="-105.2306287">
  <ele>1595.59</ele>
  <time>2026-08-27T18:28:51Z</time>
  <course>302.88</course>
  <speed>0.39</speed>
  <fix>3d</fix>
</trkpt>
<trkpt lat="40.0728071" lon="-105.2306305">
  <ele>1595.66</ele>
  <time>2026-08-27T18:28:51Z</time>
  <course>8.53</course>
  <speed>0.6360031446463138</speed>
  <fix>3d</fix>
</trkpt>
<trkpt lat="40.072807" lon="-105.2306297">
  <ele>1595.58</ele>
  <time>2026-08-27T18:28:51Z</time>
  <course>290.79</course>
  <speed>0.55</speed>
  <fix>3d</fix>
</trkpt>
<trkpt lat="40.0728074" lon="-105.2306321">
  <ele>1595.66</ele>
  <time>2026-08-27T18:28:51Z</time>
  <course>8.49</course>
  <speed>0.7021395872616784</speed>
  <fix>3d</fix>
</trkpt>
<trkpt lat="40.0728073" lon="-105.230631">
  <ele>1595.58</ele>
  <time>2026-08-27T18:28:51Z</time>
  <course>283.76</course>
  <speed>0.67</speed>
  <fix>3d</fix>
</trkpt>
<trkpt lat="40.0728076" lon="-105.2306337">
  <ele>1595.66</ele>
  <time>2026-08-27T18:28:51Z</time>
  <course>8.55</course>
  <speed>0.7134423592694787</speed>
  <fix>3d</fix>
</trkpt>
<trkpt lat="40.0728076" lon="-105.2306327">
  <ele>1595.58</ele>
  <time>2026-08-27T18:28:51Z</time>
  <course>278.57</course>
  <speed>0.73</speed>
  <fix>3d</fix>
</trkpt>
<trkpt lat="40.0728077" lon="-105.2306354">
  <ele>1595.67</ele>
  <time>2026-08-27T18:28:51Z</time>
  <course>8.63</course>
  <speed>0.65</speed>
  <fix>3d</fix>
</trkpt>
<trkpt lat="40.0728077" lon="-105.2306344">
  <ele>1595.58</ele>
  <time>2026-08-27T18:28:51Z</time>
  <course>273.92</course>
  <speed>0.72</speed>
  <fix>3d</fix>
</trkpt>
<trkpt lat="40.0728076" lon="-105.2306368">
  <ele>1595.67</ele>
  <time>2026-08-27T18:28:51Z</time>
  <course>8.73</course>
  <speed>0.5333854141237835</speed>
  <fix>3d</fix>
</trkpt>
<trkpt lat="40.0728078" lon="-105.230636">
  <ele>1595.59</ele>
  <time>2026-08-27T18:28:51Z</time>
  <course>268.89</course>
  <speed>0.65</speed>
  <fix>3d</fix>
</trkpt>
<trkpt lat="40.0728075" lon="-105.2306379">
  <ele>1595.68</ele>
  <time>2026-08-27T18:28:51Z</time>
  <course>8.77</course>
  <speed>0.37947331922020555</speed>
  <fix>3d</fix>
</trkpt>
<trkpt lat="40.0728077" lon="-105.2306374">
  <ele>1595.59</ele>
  <time>2026-08-27T18:28:51Z</time>
  <course>262.16</course>
  <speed>0.52</speed>
  <fix>3d</fix>
</trkpt>
<trkpt lat="40.0728073" lon="-105.2306386">
  <ele>1595.68</ele>
  <time>2026-08-27T18:28:51Z</time>
  <course>8.75</course>
  <speed>0.22671568097509268</speed>
  <fix>3d</fix>
</trkpt>
<trkpt lat="40.0728075" lon="-105.2306385">
  <ele>1595.6</ele>
  <time>2026-08-27T18:28:51Z</time>
  <course>250.19</course>
  <speed>0.36</speed>
  <fix>3d</fix>
</trkpt>
<trkpt lat="40.072807" lon="-105.2306388">
  <ele>1595.68</ele>
  <time>2026-08-27T18:28:51Z</time>
  <course>8.68</course>
  <speed>0.21189620100417092</speed>
  <fix>3d</fix>
</trkpt>
<trkpt lat="40.0728073" lon="-105.230639">
  <ele>1595.6</ele>
  <time>2026-08-27T18:28:51Z</time>
  <course>218.2</course>
  <speed>0.2</speed>
  <fix>3d</fix>
</trkpt>
<trkpt lat="40.0728067" lon="-105.2306385">
  <ele>1595.68</ele>
  <time>2026-08-27T18:28:51Z</time>
  <course>8.6</course>
  <speed>0.35</speed>
  <fix>3d</fix>
</trkpt>
<trkpt lat="40.072807" lon="-105.230639">
  <ele>1595.6</ele>
  <time>2026-08-27T18:28:51Z</time>
  <course>150.27</course>
  <speed>0.2</speed>
  <fix>3d</fix>
</trkpt>
<trkpt lat="40.0728063" lon="-105.2306377">
  <ele>1595.68</ele>
  <time>2026-08-27T18:28:51Z</time>
  <course>8.51</course>
  <speed>0.52</speed>
  <fix>3d</fix>
</trkpt>
<trkpt lat="40.0728067" lon="-105.2306385">
  <ele>1595.6</ele>
  <time>2026-08-27T18:28:51Z</time>
  <course>119.1</course>
  <speed>0.36</speed>
  <fix>3d</fix>
</trkpt>
<trkpt lat="40.072806" lon="-105.2306365">
  <ele>1595.67</ele>
  <time>2026-08-27T18:28:51Z</time>
  <course>8.39</course>
  <speed>0.6428841264178172</speed>
  <fix>3d</fix>
</trkpt>
<trkpt lat="40.0728064" lon="-105.2306376">
  <ele>1595.59</ele>
  <time>2026-08-27T18:28:51Z</time>
  <course>107.31</course>
  <speed>0.52</speed>
  <fix>3d</fix>
</trkpt>
<trkpt lat="40.0728058" lon="-105.230635">
  <ele>1595.67</ele>
  <time>2026-08-27T18:28:51Z</time>
  <course>8.34</course>
  <speed>0.7200694410957876</speed>
  <fix>3d</fix>
</trkpt>
<trkpt lat="40.0728062" lon="-105.2306363">
  <ele>1595.59</ele>
  <time>2026-08-27T18:28:51Z</time>
  <course>100.59</course>
  <speed>0.64</speed>
  <fix>3d</fix>
</trkpt>
<trkpt lat="40.0728057" lon="-105.2306333">
  <ele>1595.67</ele>
  <time>2026-08-27T18:28:51Z</time>
  <course>8.35</course>
  <speed>0.7224956747275377</speed>
  <fix>3d</fix>
</trkpt>
<trkpt lat="40.072806" lon="-105.2306347">
  <ele>1595.59</ele>
  <time>2026-08-27T18:28:51Z</time>
  <course>95.47</course>
  <speed>0.7</speed>
  <fix>3d</fix>
</trkpt>
<trkpt lat="40.0728058" lon="-105.2306318">
  <ele>1595.67</ele>
  <time>2026-08-27T18:28:51Z</time>
  <course>8.4</course>
  <speed>0.67</speed>
  <fix>3d</fix>
</trkpt>
<trkpt lat="40.0728059" lon="-105.2306331">
  <ele>1595.59</ele>
  <time>2026-08-27T18:28:51Z</time>
  <course>90.63</course>
  <speed>0.7</speed>
  <fix>3d</fix>
</trkpt>
<trkpt lat="40.0728058" lon="-105.2306304">
  <ele>1595.67</ele>
  <time>2026-08-27T18:28:51Z</time>
  <course>8.48</course>
  <speed>0.5544366510251645</speed>
  <fix>3d</fix>
</trkpt>
<trkpt lat="40.0728059" lon="-105.2306315">
  <ele>1595.59</ele>
  <time>2026-08-27T18:28:51Z</time>
  <course>85.04</course>
  <speed>0.63</speed>
  <fix>3d</fix>
</trkpt>
<trkpt lat="40.072806" lon="-105.2306293">
  <ele>1595.68</ele>
  <time>2026-08-27T18:28:51Z</time>
  <course>8.57</course>
  <speed>0.3921734310225516</speed>
  <fix>3d</fix>
</trkpt>
<trkpt lat="40.072806" lon="-105.2306302">
  <ele>1595.59</ele>
  <time>2026-08-27T18:28:51Z</time>
  <course>77.11</course>
  <speed>0.51</speed>
  <fix>3d</fix>
</trkpt>
<trkpt lat="40.0728063" lon="-105.2306287">
  <ele>1595.68</ele>
  <time>2026-08-27T18:28:51Z</time>
  <course>8.61</course>
  <speed>0.24083189157584592</speed>
  <fix>3d</fix>
</trkpt>
<trkpt lat="40.0728062" lon="-105.2306292">
  <ele>1595.59</ele>
  <time>2026-08-27T18:28:51Z</time>
  <course>62.52</course>
  <speed>0.35</speed>
  <fix>3d</fix>
</trkpt>
<trkpt lat="40.0728067" lon="-105.2306286">
  <ele>1595.67</ele>
  <time>2026-08-27T18:28:51Z</time>
  <course>8.61</course>
  <speed>0.215870331449229</speed>
  <fix>3d</fix>
</trkpt>
<trkpt lat="40.0728065" lon="-105.2306287">
  <ele>1595.59</ele>
  <time>2026-08-27T18:28:51Z</time>
  <course>26.74</course>
  <speed>0.22</speed>
  <fix>3d</fix>
</trkpt>
<trkpt lat="40.0728071" lon="-105.2306289">
  <ele>1595.67</ele>
  <time>2026-08-27T18:28:51Z</time>
  <course>8.56</course>
  <speed>0.32649655434629016</speed>
  <fix>3d</fix>
</trkpt>
<trkpt lat="40.072807" lon="-105.2306286">
  <ele>1595.59</ele>
  <time>2026-08-27T18:28:51Z</time>
  <course>331.0</course>
  <speed>0.24</speed>
  <fix>3d</fix>
</trkpt>
<trkpt lat="40.0728075" lon="-105.2306296">
  <ele>1595.66</ele>
  <time>2026-08-27T18:28:52Z</time>
  <course>8.52</course>
  <speed>0.38470768123342686</speed>
  <fix>3d</fix>
</trkpt>
<trkpt lat="40.0728074" lon="-105.2306291">
  <ele>1595.59</ele>
  <time>2026-08-27T18:28:52Z</time>
  <course>305.75</course>
  <speed>0.35</speed>
  <fix>3d</fix>
</trkpt>
<trkpt lat="40.0728078" lon="-105.2306304">
  <ele>1595.67</ele>
  <time>2026-08-27T18:28:52Z</time>
  <course>8.55</course>
  <speed>0.3956008088970496</speed>
  <fix>3d</fix>
</trkpt>
<trkpt lat="40.0728077" lon="-105.2306299">
  <ele>1595.59</ele>
  <time>2026-08-27T18:28:52Z</time>
  <course>295.07</course>
  <speed>0.41</speed>
  <fix>3d</fix>
</trkpt>
<trkpt lat="40.072808" lon="-105.2306313">
  <ele>1595.67</ele>
  <time>2026-08-27T18:28:52Z</time>
  <course>8.61</course>
  <speed>0.3736308338453881</speed>
  <fix>3d</fix>
</trkpt>
<trkpt lat="40.0728079" lon="-105.2306308">
  <ele>1595.59</ele>
  <time>2026-08-27T18:28:52Z</time>
  <course>288.95</course>
  <speed>0.41</speed>
  <fix>3d</fix>
</trkpt>
<trkpt lat="40.0728082" lon="-105.2306321">
  <ele>1595.67</ele>
  <time>2026-08-27T18:28:52Z</time>
  <course>8.64</course>
  <speed>0.33955853692699295</speed>
  <fix>3d</fix>
</trkpt>
<trkpt lat="40.0728082" lon="-105.2306317">
  <ele>1595.59</ele>
  <time>2026-08-27T18:28:52Z</time>
  <course>285.31</course>
  <speed>0.39</speed>
  <fix>3d</fix>
</trkpt>
<trkpt lat="40.0728083" lon="-105.2306329">
  <ele>1595.67</ele>
  <time>2026-08-27T18:28:52Z</time>
  <course>8.63</course>
  <speed>0.3059411708155671</speed>
  <fix>3d</fix>
</trkpt>
<trkpt lat="40.0728084" lon="-105.2306326">
  <ele>1595.59</ele>
  <time>2026-08-27T18:28:52Z</time>
  <course>283.31</course>
  <speed>0.36</speed>
  <fix>3d</fix>
</trkpt>
<trkpt lat="40.0728085" lon="-105.2306336">
  <ele>1595.67</ele>
  <time>2026-08-27T18:28:52Z</time>
  <course>8.64</course>
  <speed>0.26476404589747454</speed>
  <fix>3d</fix>
</trkpt>
<trkpt lat="40.0728085" lon="-105.2306334">
  <ele>1595.59</ele>
  <time>2026-08-27T18:28:52Z</time>
  <course>282.53</course>
  <speed>0.32</speed>
  <fix>3d</fix>
</trkpt>
<trkpt lat="40.0728086" lon="-105.2306343">
  <ele>1595.67</ele>
  <time>2026-08-27T18:28:52Z</time>
  <course>8.62</course>
  <speed>0.23345235059857505</speed>
  <fix>3d</fix>
</trkpt>
<trkpt lat="40.0728086" lon="-105.2306341">
  <ele>1595.6</ele>
  <time>2026-08-27T18:28:52Z</time>
  <course>282.68</course>
  <speed>0.29</speed>
  <fix>3d</fix>
</trkpt>
<trkpt lat="40.0728087" lon="-105.2306348">
  <ele>1595.67</ele>
  <time>2026-08-27T18:28:52Z</time>
  <course>8.61</course>
  <speed>0.2039607805437114</speed>
  <fix>3d</fix>
</trkpt>
<trkpt lat="40.0728087" lon="-105.2306347">
  <ele>1595.6</ele>
  <time>2026-08-27T18:28:52Z</time>
  <course>283.53</course>
  <speed>0.26</speed>
  <fix>3d</fix>
</trkpt>
<trkpt lat="40.0728088" lon="-105.2306354">
  <ele>1595.67</ele>
  <time>2026-08-27T18:28:52Z</time>
  <course>8.61</course>
  <speed>0.17464249196572978</speed>
  <fix>3d</fix>
</trkpt>
<trkpt lat="40.0728088" lon="-105.2306353">
  <ele>1595.6</ele>
  <time>2026-08-27T18:28:52Z</time>
  <course>284.92</course>
  <speed>0.23</speed>
  <fix>3d</fix>
</trkpt>
<trkpt lat="40.0728089" lon="-105.2306358">
  <ele>1595.67</ele>
  <time>2026-08-27T18:28:52Z</time>
  <course>8.6</course>
  <speed>0.15524174696260024</speed>
  <fix>3d</fix>
</trkpt>
<trkpt lat="40.0728089" lon="-105.2306358">
  <ele>1595.6</ele>
  <time>2026-08-27T18:28:52Z</time>
  <course>286.96</course>
  <speed>0.2</speed>
  <fix>3d</fix>
</trkpt>
<trkpt lat="40.072809" lon="-105.2306362">
  <ele>1595.67</ele>
  <time>2026-08-27T18:28:52Z</time>
  <course>8.6</course>
  <speed>0.13601470508735444</speed>
  <fix>3d</fix>
</trkpt>
<trkpt lat="40.0728091" lon="-105.2306362">
  <ele>1595.6</ele>
  <time>2026-08-27T18:28:52Z</time>
  <course>289.47</course>
  <speed>0.18</speed>
  <fix>3d</fix>
</trkpt>
<trkpt lat="40.0728091" lon="-105.2306366">
  <ele>1595.67</ele>
  <time>2026-08-27T18:28:52Z</time>
  <course>8.59</course>
  <speed>0.11704699910719625</speed>
  <fix>3d</fix>
</trkpt>
<trkpt lat="40.0728092" lon="-105.2306366">
  <ele>1595.6</ele>
  <time>2026-08-27T18:28:52Z</time>
  <course>291.99</course>
  <speed>0.16</speed>
  <fix>3d</fix>
</trkpt>
<trkpt lat="40.0728092" lon="-105.2306369">
  <ele>1595.67</ele>
  <time>2026-08-27T18:28:52Z</time>
  <course>8.6</course>
  <speed>0.10770329614269007</speed>
  <fix>3d</fix>
</trkpt>
<trkpt lat="40.0728093" lon="-105.230637">
  <ele>1595.6</ele>
  <time>2026-08-27T18:28:52Z</time>
  <course>294.65</course>
  <speed>0.15</speed>
  <fix>3d</fix>
</trkpt>
<trkpt lat="40.0728093" lon="-105.2306372">
  <ele>1595.67</ele>
  <time>2026-08-27T18:28:52Z</time>
  <course>8.61</course>
  <speed>0.09848857801796104</speed>
  <fix>3d</fix>
</trkpt>
<trkpt lat="40.0728094" lon="-105.2306373">
  <ele>1595.6</ele>
  <time>2026-08-27T18:28:52Z</time>
  <course>297.74</course>
  <speed>0.13</speed>
  <fix>3d</fix>
</trkpt>
<trkpt lat="40.0728094" lon="-105.2306374">
  <ele>1595.67</ele>
  <time>2026-08-27T18:28:52Z</time>
  <course>8.61</course>
  <speed>0.08944271909999159</speed>
  <fix>3d</fix>
</trkpt>
<trkpt lat="40.0728095" lon="-105.2306376">
  <ele>1595.6</ele>
  <time>2026-08-27T18:28:52Z</time>
  <course>300.96</course>
  <speed>0.12</speed>
  <fix>3d</fix>
</trkpt>
<trkpt lat="40.0728095" lon="-105.2306377">
  <ele>1595.67</ele>
  <time>2026-08-27T18:28:52Z</time>
  <course>8.6</course>
  <speed>0.08062257748298549</speed>
  <fix>3d</fix>
</trkpt>
<trkpt lat="40.0728096" lon="-105.2306378">
  <ele>1595.6</ele>
  <time>2026-08-27T18:28:52Z</time>
  <course>304.08</course>
  <speed>0.11</speed>
  <fix>3d</fix>
</trkpt>
<trkpt lat="40.0728096" lon="-105.2306379">
  <ele>1595.67</ele>
  <time>2026-08-27T18:28:52Z</time>
  <course>8.59</course>
  <speed>0.07211102550927978</speed>
  <fix>3d</fix>
</trkpt>
<trkpt lat="40.0728098" lon="-105.230638">
  <ele>1595.6</ele>
  <time>2026-08-27T18:28:52Z</time>
  <course>307.09</course>
  <speed>0.11</speed>
  <fix>3d</fix>
</trkpt>
<trkpt lat="40.0728098" lon="-105.2306381">
  <ele>1595.67</ele>
  <time>2026-08-27T18:28:52Z</time>
  <course>8.58</course>
  <speed>0.08062257748298549</speed>
  <fix>3d</fix>
</trkpt>
<trkpt lat="40.0728099" lon="-105.2306383">
  <ele>1595.6</ele>
  <time>2026-08-27T18:28:52Z</time>
  <course>309.15</course>
  <speed>0.1</speed>
  <fix>3d</fix>
</trkpt>
<trkpt lat="40.0728099" lon="-105.2306383">
  <ele>1595.66</ele>
  <time>2026-08-27T18:28:52Z</time>
  <course>8.57</course>
  <speed>0.11661903789690602</speed>
  <fix>3d</fix>
</trkpt>
<trkpt lat="40.07281" lon="-105.2306385">
  <ele>1595.6</ele>
  <time>2026-08-27T18:28:52Z</time>
  <course>307.55</course>
  <speed>0.12</speed>
  <fix>3d</fix>
</trkpt>
<trkpt lat="40.0728101" lon="-105.2306387">
  <ele>1595.66</ele>
  <time>2026-08-27T18:28:52Z</time>
  <course>8.57</course>
  <speed>0.18788294228055935</speed>
  <fix>3d</fix>
</trkpt>
<trkpt lat="40.0728102" lon="-105.2306387">
  <ele>1595.6</ele>
  <time>2026-08-27T18:28:52Z</time>
  <course>302.16</course>
  <speed>0.16</speed>
  <fix>3d</fix>
</trkpt>
<trkpt lat="40.0728103" lon="-105.2306393">
  <ele>1595.66</ele>
  <time>2026-08-27T18:28:52Z</time>
  <course>8.58</course>
  <speed>0.2879236009777594</speed>
  <fix>3d</fix>
</trkpt>
<trkpt lat="40.0728103" lon="-105.2306391">
  <ele>1595.6</ele>
  <time>2026-08-27T18:28:52Z</time>
  <course>296.48</course>
  <speed>0.24</speed>
  <fix>3d</fix>
</trkpt>
<trkpt lat="40.0728105" lon="-105.2306401">
  <ele>1595.65</ele>
  <time>2026-08-27T18:28:52Z</time>
  <course>8.55</course>
  <speed>0.3984971769034255</speed>
  <fix>3d</fix>
</trkpt>
<trkpt lat="40.0728105" lon="-105.2306398">
  <ele>1595.6</ele>
  <time>2026-08-27T18:28:52Z</time>
  <course>291.96</course>
  <speed>0.34</speed>
  <fix>3d</fix>
</trkpt>
<trkpt lat="40.0728108" lon="-105.2306411">
  <ele>1595.65</ele>
  <time>2026-08-27T18:28:52Z</time>
  <course>8.52</course>
  <speed>0.49729267036625424</speed>
  <fix>3d</fix>
</trkpt>
<trkpt lat="40.0728108" lon="-105.2306407">
  <ele>1595.61</ele>
  <time>2026-08-27T18:28:52Z</time>
  <course>288.38</course>
  <speed>0.44</speed>
  <fix>3d</fix>
</trkpt>
<trkpt lat="40.0728111" lon="-105.2306424">
  <ele>1595.66</ele>
  <time>2026-08-27T18:28:52Z</time>
  <course>8.48</course>
  <speed>0.5629387178015027</speed>
  <fix>3d</fix>
</trkpt>
<trkpt lat="40.072811" lon="-105.2306418">
  <ele>1595.61</ele>
  <time>2026-08-27T18:28:52Z</time>
  <course>285.37</course>
  <speed>0.53</speed>
  <fix>3d</fix>
</trkpt>
<trkpt lat="40.0728113" lon="-105.2306437">
  <ele>1595.67</ele>
  <time>2026-08-27T18:28:52Z</time>
  <course>8.48</course>
  <speed>0.5984145720150873</speed>
  <fix>3d</fix>
</trkpt>
<trkpt lat="40.0728113" lon="-105.2306431">
  <ele>1595.61</ele>
  <time>2026-08-27T18:28:52Z</time>
  <course>282.64</course>
  <speed>0.6</speed>
  <fix>3d</fix>
</trkpt>
<trkpt lat="40.0728115" lon="-105.2306452">
  <ele>1595.68</ele>
  <time>2026-08-27T18:28:52Z</time>
  <course>8.55</course>
  <speed>0.5842088667591412</speed>
  <fix>3d</fix>
</trkpt>
<trkpt lat="40.0728115" lon="-105.2306445">
  <ele>1595.62</ele>
  <time>2026-08-27T18:28:52Z</time>
  <course>279.96</course>
  <speed>0.62</speed>
  <fix>3d</fix>
</trkpt>
<trkpt lat="40.0728116" lon="-105.2306465">
  <ele>1595.68</ele>
  <time>2026-08-27T18:28:52Z</time>
  <course>8.66</course>
  <speed>0.5103920062069939</speed>
  <fix>3d</fix>
</trkpt>
<trkpt lat="40.0728117" lon="-105.2306459">
  <ele>1595.62</ele>
  <time>2026-08-27T18:28:52Z</time>
  <course>277.07</course>
  <speed>0.59</speed>
  <fix>3d</fix>
</trkpt>
<trkpt lat="40.0728116" lon="-105.2306476">
  <ele>1595.69</ele>
  <time>2026-08-27T18:28:52Z</time>
  <course>8.71</course>
  <speed>0.3905124837953327</speed>
  <fix>3d</fix>
</trkpt>
<trkpt lat="40.0728117" lon="-105.2306471">
  <ele>1595.63</ele>
  <time>2026-08-27T18:28:52Z</time>
  <course>273.48</course>
  <speed>0.5</speed>
  <fix>3d</fix>
</trkpt>
<trkpt lat="40.0728116" lon="-105.2306484">
  <ele>1595.69</ele>
  <time>2026-08-27T18:28:52Z</time>
  <course>8.71</course>
  <speed>0.2308679276123039</speed>
  <fix>3d</fix>
</trkpt>
<trkpt lat="40.0728117" lon="-105.2306482">
  <ele>1595.63</ele>
  <time>2026-08-27T18:28:52Z</time>
  <course>267.95</course>
  <speed>0.37</speed>
  <fix>3d</fix>
</trkpt>
<trkpt lat="40.0728115" lon="-105.2306488">
  <ele>1595.69</ele>
  <time>2026-08-27T18:28:52Z</time>
  <course>8.68</course>
  <speed>0.11401754250991379</speed>
  <fix>3d</fix>
</trkpt>
<trkpt lat="40.0728117" lon="-105.2306489">
  <ele>1595.63</ele>
  <time>2026-08-27T18:28:52Z</time>
  <course>255.19</course>
  <speed>0.21</speed>
  <fix>3d</fix>
</trkpt>
<trkpt lat="40.0728113" lon="-105.2306487">
  <ele>1595.69</ele>
  <time>2026-08-27T18:28:52Z</time>
  <course>8.63</course>
  <speed>0.212602916254693</speed>
  <fix>3d</fix>
</trkpt>
<trkpt lat="40.0728117" lon="-105.2306492">
  <ele>1595.63</ele>
  <time>2026-08-27T18:28:52Z</time>
  <course>185.91</course>
  <speed>0.08</speed>
  <fix>3d</fix>
</trkpt>
<trkpt lat="40.0728111" lon="-105.2306483">
  <ele>1595.7</ele>
  <time>2026-08-27T18:28:52Z</time>
  <course>8.56</course>
  <speed>0.38078865529319544</speed>
  <fix>3d</fix>
</trkpt>
<trkpt lat="40.0728115" lon="-105.2306489">
  <ele>1595.62</ele>
  <time>2026-08-27T18:28:52Z</time>
  <course>118.79</course>
  <speed>0.21</speed>
  <fix>3d</fix>
</trkpt>
<trkpt lat="40.0728109" lon="-105.2306473">
  <ele>1595.69</ele>
  <time>2026-08-27T18:28:52Z</time>
  <course>8.46</course>
  <speed>0.5288667128870941</speed>
  <fix>3d</fix>
</trkpt>
<trkpt lat="40.0728114" lon="-105.2306482">
  <ele>1595.62</ele>
  <time>2026-08-27T18:28:52Z</time>
  <course>106.17</course>
  <speed>0.39</speed>
  <fix>3d</fix>
</trkpt>
<trkpt lat="40.0728108" lon="-105.2306461">
  <ele>1595.69</ele>
  <time>2026-08-27T18:28:52Z</time>
  <course>8.37</course>
  <speed>0.6413267497929586</speed>
  <fix>3d</fix>
</trkpt>
<trkpt lat="40.0728111" lon="-105.2306472">
  <ele>1595.61</ele>
  <time>2026-08-27T18:28:52Z</time>
  <course>100.44</course>
  <speed>0.54</speed>
  <fix>3d</fix>
</trkpt>
<trkpt lat="40.0728107" lon="-105.2306446">
  <ele>1595.68</ele>
  <time>2026-08-27T18:28:52Z</time>
  <course>8.35</course>
  <speed>0.6946221994724903</speed>
  <fix>3d</fix>
</trkpt>
<trkpt lat="40.072811" lon="-105.2306459">
  <ele>1595.61</ele>
  <time>2026-08-27T18:28:52Z</time>
  <course>96.41</course>
  <speed>0.64</speed>
  <fix>3d</fix>
</trkpt>
<trkpt lat="40.0728106" lon="-105.230643">
  <ele>1595.68</ele>
  <time>2026-08-27T18:28:52Z</time>
  <course>8.37</course>
  <speed>0.6806614430096655</speed>
  <fix>3d</fix>
</trkpt>
<trkpt lat="40.0728109" lon="-105.2306443">
  <ele>1595.6</ele>
  <time>2026-08-27T18:28:52Z</time>
  <course>92.76</course>
  <speed>0.68</speed>
  <fix>3d</fix>
</trkpt>
<trkpt lat="40.0728107" lon="-105.2306415">
  <ele>1595.67</ele>
  <time>2026-08-27T18:28:52Z</time>
  <course>8.41</course>
  <speed>0.6103277807866851</speed>
  <fix>3d</fix>
</trkpt>
<trkpt lat="40.0728109" lon="-105.2306428">
  <ele>1595.6</ele>
  <time>2026-08-27T18:28:52Z</time>
  <course>88.78</course>
  <speed>0.66</speed>
  <fix>3d</fix>
</trkpt>
<trkpt lat="40.0728108" lon="-105.2306403">
  <ele>1595.67</ele>
  <time>2026-08-27T18:28:52Z</time>
  <course>8.51</course>
  <speed>0.4850773134253961</speed>
  <fix>3d</fix>
</trkpt>
<trkpt lat="40.0728109" lon="-105.2306413">
  <ele>1595.6</ele>
  <time>2026-08-27T18:28:52Z</time>
  <course>83.65</course>
  <speed>0.58</speed>
  <fix>3d</fix>
</trkpt>
<trkpt lat="40.072811" lon="-105.2306394">
  <ele>1595.67</ele>
  <time>2026-08-27T18:28:52Z</time>
  <course>8.57</course>
  <speed>0.33241540277189324</speed>
  <fix>3d</fix>
</trkpt>
<trkpt lat="40.072811" lon="-105.23064">
  <ele>1595.6</ele>
  <time>2026-08-27T18:28:52Z</time>
  <course>75.61</course>
  <speed>0.45</speed>
  <fix>3d</fix>
</trkpt>
<trkpt lat="40.0728113" lon="-105.2306389">
  <ele>1595.67</ele>
  <time>2026-08-27T18:28:52Z</time>
  <course>8.6</course>
  <speed>0.18867962264113206</speed>
  <fix>3d</fix>
</trkpt>
<trkpt lat="40.0728112" lon="-105.2306392">
  <ele>1595.6</ele>
  <time>2026-08-27T18:28:52Z</time>
  <course>58.99</course>
  <speed>0.29</speed>
  <fix>3d</fix>
</trkpt>
<trkpt lat="40.0728116" lon="-105.2306389">
  <ele>1595.67</ele>
  <time>2026-08-27T18:28:52Z</time>
  <course>8.6</course>
  <speed>0.2195449840010015</speed>
  <fix>3d</fix>
</trkpt>
<trkpt lat="40.0728115" lon="-105.2306389">
  <ele>1595.59</ele>
  <time>2026-08-27T18:28:52Z</time>
  <course>13.54</course>
  <speed>0.18</speed>
  <fix>3d</fix>
</trkpt>
<trkpt lat="40.072812" lon="-105.2306393">
  <ele>1595.67</ele>
  <time>2026-08-27T18:28:52Z</time>
  <course>8.54</course>
  <speed>0.3721558813185679</speed>
  <fix>3d</fix>
</trkpt>
<trkpt lat="40.0728119" lon="-105.230639">
  <ele>1595.59</ele>
  <time>2026-08-27T18:28:52Z</time>
  <course>318.32</course>
  <speed>0.26</speed>
  <fix>3d</fix>
</trkpt>
<trkpt lat="40.0728124" lon="-105.2306402">
  <ele>1595.67</ele>
  <time>2026-08-27T18:28:52Z</time>
  <course>8.5</course>
  <speed>0.5220153254455275</speed>
  <fix>3d</fix>
</trkpt>
<trkpt lat="40.0728122" lon="-105.2306397">
  <ele>1595.59</ele>
  <time>2026-08-27T18:28:52Z</time>
  <course>296.87</course>
  <speed>0.42</speed>
  <fix>3d</fix>
</trkpt>
<trkpt lat="40.0728127" lon="-105.2306415">
  <ele>1595.67</ele>
  <time>2026-08-27T18:28:52Z</time>
  <course>8.47</course>
  <speed>0.6378871373526824</speed>
  <fix>3d</fix>
</trkpt>
<trkpt lat="40.0728125" lon="-105.2306407">
  <ele>1595.59</ele>
  <time>2026-08-27T18:28:52Z</time>
  <course>287.27</course>
  <speed>0.56</speed>
  <fix>3d</fix>
</trkpt>
<trkpt lat="40.0728129" lon="-105.2306431">
  <ele>1595.67</ele>
  <time>2026-08-27T18:28:52Z</time>
  <course>8.49</course>
  <speed>0.6972087205421343</speed>
  <fix>3d</fix>
</trkpt>
<trkpt lat="40.0728128" lon="-105.2306421">
  <ele>1595.59</ele>
  <time>2026-08-27T18:28:52Z</time>
  <course>281.32</course>
  <speed>0.67</speed>
  <fix>3d</fix>
</trkpt>
<trkpt lat="40.072813" lon="-105.2306447">
  <ele>1595.68</ele>
  <time>2026-08-27T18:28:52Z</time>
  <course>8.58</course>
  <speed>0.6911584478250989</speed>
  <fix>3d</fix>
</trkpt>
<trkpt lat="40.072813" lon="-105.2306437">
  <ele>1595.59</ele>
  <time>2026-08-27T18:28:52Z</time>
  <course>276.67</course>
  <speed>0.71</speed>
  <fix>3d</fix>
</trkpt>
<trkpt lat="40.072813" lon="-105.2306463">
  <ele>1595.68</ele>
  <time>2026-08-27T18:28:52Z</time>
  <course>8.67</course>
  <speed>0.6200806399170998</speed>
  <fix>3d</fix>
</trkpt>
<trkpt lat="40.0728131" lon="-105.2306453">
  <ele>1595.59</ele>
  <time>2026-08-27T18:28:52Z</time>
  <course>272.25</course>
  <speed>0.69</speed>
  <fix>3d</fix>
</trkpt>
<trkpt lat="40.072813" lon="-105.2306476">
  <ele>1595.68</ele>
  <time>2026-08-27T18:28:52Z</time>
  <course>8.75</course>
  <speed>0.4850773134253961</speed>
  <fix>3d</fix>
</trkpt>
<trkpt lat="40.0728131" lon="-105.2306469">
  <ele>1595.6</ele>
  <time>2026-08-27T18:28:52Z</time>
  <course>267.2</course>
  <speed>0.61</speed>
  <fix>3d</fix>
</trkpt>
<trkpt lat="40.0728128" lon="-105.2306486">
  <ele>1595.68</ele>
  <time>2026-08-27T18:28:52Z</time>
  <course>8.77</course>
  <speed>0.3361547262794322</speed>
  <fix>3d</fix>
</trkpt>
<trkpt lat="40.0728131" lon="-105.2306482">
  <ele>1595.6</ele>
  <time>2026-08-27T18:28:52Z</time>
  <course>259.98</course>
  <speed>0.48</speed>
  <fix>3d</fix>
</trkpt>
<trkpt lat="40.0728126" lon="-105.2306491">
  <ele>1595.67</ele>
  <time>2026-08-27T18:28:52Z</time>
  <course>8.74</course>
  <speed>0.1972308292331602</speed>
  <fix>3d</fix>
</trkpt>
<trkpt lat="40.0728129" lon="-105.2306491">
  <ele>1595.6</ele>
  <time>2026-08-27T18:28:52Z</time>
  <course>245.97</course>
  <speed>0.31</speed>
  <fix>3d</fix>
</trkpt>
<trkpt lat="40.0728123" lon="-105.2306492">
  <ele>1595.67</ele>
  <time>2026-08-27T18:28:52Z</time>
  <course>8.65</course>
  <speed>0.2195449840010015</speed>
  <fix>3d</fix>
</trkpt>
<trkpt lat="40.0728127" lon="-105.2306495">
  <ele>1595.6</ele>
  <time>2026-08-27T18:28:52Z</time>
  <course>204.86</course>
  <speed>0.17</speed>
  <fix>3d</fix>
</trkpt>
<trkpt lat="40.072812" lon="-105.2306488">
  <ele>1595.66</ele>
  <time>2026-08-27T18:28:52Z</time>
  <course>8.51</course>
  <speed>0.3773592452822641</speed>
  <fix>3d</fix>
</trkpt>
<trkpt lat="40.0728124" lon="-105.2306495">
  <ele>1595.6</ele>
  <time>2026-08-27T18:28:52Z</time>
  <course>139.53</course>
  <speed>0.22</speed>
  <fix>3d</fix>
</trkpt>
<trkpt lat="40.0728117" lon="-105.230648">
  <ele>1595.66</ele>
  <time>2026-08-27T18:28:52Z</time>
  <course>8.4</course>
  <speed>0.5314132102234569</speed>
  <fix>3d</fix>
</trkpt>
<trkpt lat="40.072812" lon="-105.2306489">
  <ele>1595.59</ele>
  <time>2026-08-27T18:28:52Z</time>
  <course>115.42</course>
  <speed>0.38</speed>
  <fix>3d</fix>
</trkpt>
<trkpt lat="40.0728115" lon="-105.2306467">
  <ele>1595.66</ele>
  <time>2026-08-27T18:28:52Z</time>
  <course>8.32</course>
  <speed>0.6476109943476871</speed>
  <fix>3d</fix>
</trkpt>
<trkpt lat="40.0728117" lon="-105.2306479">
  <ele>1595.59</ele>
  <time>2026-08-27T18:28:52Z</time>
  <course>105.47</course>
  <speed>0.53</speed>
  <fix>3d</fix>
</trkpt>
<trkpt lat="40.0728113" lon="-105.2306453">
  <ele>1595.66</ele>
  <time>2026-08-27T18:28:52Z</time>
  <course>8.31</course>
  <speed>0.6972087205421343</speed>
  <fix>3d</fix>
</trkpt>
<trkpt lat="40.0728115" lon="-105.2306466">
  <ele>1595.59</ele>
  <time>2026-08-27T18:28:52Z</time>
  <course>99.39</course>
  <speed>0.64</speed>
  <fix>3d</fix>
</trkpt>
<trkpt lat="40.0728112" lon="-105.2306437">
  <ele>1595.67</ele>
  <time>2026-08-27T18:28:52Z</time>
  <course>8.36</course>
  <speed>0.6911584478250989</speed>
  <fix>3d</fix>
</trkpt>
<trkpt lat="40.0728114" lon="-105.230645">
  <ele>1595.59</ele>
  <time>2026-08-27T18:28:52Z</time>
  <course>94.51</course>
  <speed>0.68</speed>
  <fix>3d</fix>
</trkpt>
<trkpt lat="40.0728112" lon="-105.2306422">
  <ele>1595.67</ele>
  <time>2026-08-27T18:28:52Z</time>
  <course>8.42</course>
  <speed>0.6200806399170998</speed>
  <fix>3d</fix>
</trkpt>
<trkpt lat="40.0728114" lon="-105.2306433">
  <ele>1595.59</ele>
  <time>2026-08-27T18:28:52Z</time>
  <course>89.69</course>
  <speed>0.67</speed>
  <fix>3d</fix>
</trkpt>
<trkpt lat="40.0728114" lon="-105.2306409">
  <ele>1595.67</ele>
  <time>2026-08-27T18:28:52Z</time>
  <course>8.52</course>
  <speed>0.49648766349225637</speed>
  <fix>3d</fix>
</trkpt>
<trkpt lat="40.0728114" lon="-105.2306419">
  <ele>1595.59</ele>
  <time>2026-08-27T18:28:52Z</time>
  <course>83.88</course>
  <speed>0.59</speed>
  <fix>3d</fix>
</trkpt>
<trkpt lat="40.0728115" lon="-105.23064">
  <ele>1595.67</ele>
  <time>2026-08-27T18:28:52Z</time>
  <course>8.58</course>
  <speed>0.3453983207834109</speed>
  <fix>3d</fix>
</trkpt>
<trkpt lat="40.0728115" lon="-105.2306407">
  <ele>1595.6</ele>
  <time>2026-08-27T18:28:52Z</time>
  <course>75.15</course>
  <speed>0.46</speed>
  <fix>3d</fix>
</trkpt>
<trkpt lat="40.0728118" lon="-105.2306395">
  <ele>1595.68</ele>
  <time>2026-08-27T18:28:52Z</time>
  <course>8.62</course>
  <speed>0.2109502310972899</speed>
  <fix>3d</fix>
</trkpt>
<trkpt lat="40.0728117" lon="-105.2306399">
  <ele>1595.6</ele>
  <time>2026-08-27T18:28:52Z</time>
  <course>57.79</course>
  <speed>0.31</speed>
  <fix>3d</fix>
</trkpt>
<trkpt lat="40.0728122" lon="-105.2306395">
  <ele>1595.68</ele>
  <time>2026-08-27T18:28:52Z</time>
  <course>8.61</course>
  <speed>0.223606797749979</speed>
  <fix>3d</fix>
</trkpt>
<trkpt lat="40.072812" lon="-105.2306395">
  <ele>1595.6</ele>
  <time>2026-08-27T18:28:52Z</time>
  <course>14.26</course>
  <speed>0.2</speed>
  <fix>3d</fix>
</trkpt>
<trkpt lat="40.0728126" lon="-105.2306399">
  <ele>1595.68</ele>
  <time>2026-08-27T18:28:52Z</time>
  <course>8.58</course>
  <speed>0.37443290453698114</speed>
  <fix>3d</fix>
</trkpt>
<trkpt lat="40.0728125" lon="-105.2306395">
  <ele>1595.6</ele>
  <time>2026-08-27T18:28:52Z</time>
  <course>321.59</course>
  <speed>0.27</speed>
  <fix>3d</fix>
</trkpt>
<trkpt lat="40.072813" lon="-105.2306408">
  <ele>1595.68</ele>
  <time>2026-08-27T18:28:52Z</time>
  <course>8.55</course>
  <speed>0.5255473337388366</speed>
  <fix>3d</fix>
</trkpt>
<trkpt lat="40.0728129" lon="-105.2306402">
  <ele>1595.59</ele>
  <time>2026-08-27T18:28:52Z</time>
  <course>299.23</course>
  <speed>0.42</speed>
  <fix>3d</fix>
</trkpt>
<trkpt lat="40.0728133" lon="-105.2306421">
  <ele>1595.68</ele>
  <time>2026-08-27T18:28:52Z</time>
  <course>8.53</course>
  <speed>0.6403124237432849</speed>
  <fix>3d</fix>
</trkpt>
<trkpt lat="40.0728132" lon="-105.2306413">
  <ele>1595.59</ele>
  <time>2026-08-27T18:28:52Z</time>
  <course>288.92</course>
  <speed>0.57</speed>
  <fix>3d</fix>
</trkpt>
<trkpt lat="40.0728136" lon="-105.2306437">
  <ele>1595.68</ele>
  <time>2026-08-27T18:28:52Z</time>
  <course>8.58</course>
  <speed>0.6987131027825368</speed>
  <fix>3d</fix>
</trkpt>
<trkpt lat="40.0728135" lon="-105.2306427">
  <ele>1595.59</ele>
  <time>2026-08-27T18:28:52Z</time>
  <course>282.54</course>
  <speed>0.67</speed>
  <fix>3d</fix>
</trkpt>
<trkpt lat="40.0728137" lon="-105.2306453">
  <ele>1595.67</ele>
  <time>2026-08-27T18:28:52Z</time>
  <course>8.63</course>
  <speed>0.691809222257119</speed>
  <fix>3d</fix>
</trkpt>
<trkpt lat="40.0728137" lon="-105.2306443">
  <ele>1595.59</ele>
  <time>2026-08-27T18:28:52Z</time>
  <course>277.6</course>
  <speed>0.71</speed>
  <fix>3d</fix>
</trkpt>
<trkpt lat="40.0728138" lon="-105.2306469">
  <ele>1595.67</ele>
  <time>2026-08-27T18:28:52Z</time>
  <course>8.69</course>
  <speed>0.6200806399170998</speed>
  <fix>3d</fix>
</trkpt>
<trkpt lat="40.0728138" lon="-105.2306459">
  <ele>1595.59</ele>
  <time>2026-08-27T18:28:52Z</time>
  <course>272.97</course>
  <speed>0.69</speed>
  <fix>3d</fix>
</trkpt>
<trkpt lat="40.0728137" lon="-105.2306482">
  <ele>1595.67</ele>
  <time>2026-08-27T18:28:52Z</time>
  <course>8.74</course>
  <speed>0.4949747468305833</speed>
  <fix>3d</fix>
</trkpt>
<trkpt lat="40.0728139" lon="-105.2306475">
  <ele>1595.59</ele>
  <time>2026-08-27T18:28:52Z</time>
  <course>267.75</course>
  <speed>0.61</speed>
  <fix>3d</fix>
</trkpt>
<trkpt lat="40.0728135" lon="-105.2306492">
  <ele>1595.68</ele>
  <time>2026-08-27T18:28:52Z</time>
  <course>8.75</course>
  <speed>0.3361547262794322</speed>
  <fix>3d</fix>
</trkpt>
<trkpt lat="40.0728138" lon="-105.2306488">
  <ele>1595.59</ele>
  <time>2026-08-27T18:28:52Z</time>
  <course>260.41</course>
  <speed>0.48</speed>
  <fix>3d</fix>
</trkpt>
<trkpt lat="40.0728134" lon="-105.2306498">
  <ele>1595.68</ele>
  <time>2026-08-27T18:28:52Z</time>
  <course>8.71</course>
  <speed>0.1972308292331602</speed>
  <fix>3d</fix>
</trkpt>
<trkpt lat="40.0728137" lon="-105.2306497">
  <ele>1595.6</ele>
  <time>2026-08-27T18:28:52Z</time>
  <course>246.29</course>
  <speed>0.31</speed>
  <fix>3d</fix>
</trkpt>
<trkpt lat="40.0728131" lon="-105.2306498">
  <ele>1595.68</ele>
  <time>2026-08-27T18:28:52Z</time>
  <course>8.64</course>
  <speed>0.2195449840010015</speed>
  <fix>3d</fix>
</trkpt>
<trkpt lat="40.0728134" lon="-105.2306501">
  <ele>1595.6</ele>
  <time>2026-08-27T18:28:52Z</time>
  <course>204.83</course>
  <speed>0.17</speed>
  <fix>3d</fix>
</trkpt>
<trkpt lat="40.0728128" lon="-105.2306495">
  <ele>1595.68</ele>
  <time>2026-08-27T18:28:52Z</time>
  <course>8.56</course>
  <speed>0.3773592452822641</speed>
  <fix>3d</fix>
</trkpt>
<trkpt lat="40.0728131" lon="-105.23065">
  <ele>1595.59</ele>
  <time>2026-08-27T18:28:52Z</time>
  <course>139.55</course>
  <speed>0.22</speed>
  <fix>3d</fix>
</trkpt>
<trkpt lat="40.0728124" lon="-105.2306486">
  <ele>1595.67</ele>
  <time>2026-08-27T18:28:52Z</time>
  <course>8.47</course>
  <speed>0.5348831648126533</speed>
  <fix>3d</fix>
</trkpt>
<trkpt lat="40.0728128" lon="-105.2306495">
  <ele>1595.59</ele>
  <time>2026-08-27T18:28:52Z</time>
  <course>115.51</course>
  <speed>0.38</speed>
  <fix>3d</fix>
</trkpt>
<trkpt lat="40.0728122" lon="-105.2306474">
  <ele>1595.67</ele>
  <time>2026-08-27T18:28:52Z</time>
  <course>8.36</course>
  <speed>0.6476109943476871</speed>
  <fix>3d</fix>
</trkpt>
<trkpt lat="40.0728125" lon="-105.2306485">
  <ele>1595.59</ele>
  <time>2026-08-27T18:28:52Z</time>
  <course>105.55</course>
  <speed>0.53</speed>
  <fix>3d</fix>
</trkpt>
<trkpt lat="40.072812" lon="-105.2306459">
  <ele>1595.66</ele>
  <time>2026-08-27T18:28:52Z</time>
  <course>8.33</course>
  <speed>0.6972087205421343</speed>
  <fix>3d</fix>
</trkpt>
<trkpt lat="40.0728122" lon="-105.2306471">
  <ele>1595.58</ele>
  <time>2026-08-27T18:28:52Z</time>
  <course>99.44</course>
  <speed>0.64</speed>
  <fix>3d</fix>
</trkpt>
<trkpt lat="40.0728119" lon="-105.2306443">
  <ele>1595.66</ele>
  <time>2026-08-27T18:28:52Z</time>
  <course>8.35</course>
  <speed>0.6911584478250989</speed>
  <fix>3d</fix>
</trkpt>
<trkpt lat="40.0728121" lon="-105.2306456">
  <ele>1595.58</ele>
  <time>2026-08-27T18:28:52Z</time>
  <course>94.54</course>
  <speed>0.69</speed>
  <fix>3d</fix>
</trkpt>
<trkpt lat="40.0728119" lon="-105.2306428">
  <ele>1595.67</ele>
  <time>2026-08-27T18:28:52Z</time>
  <course>8.41</course>
  <speed>0.6200806399170998</speed>
  <fix>3d</fix>
</trkpt>
<trkpt lat="40.0728121" lon="-105.2306439">
  <ele>1595.58</ele>
  <time>2026-08-27T18:28:52Z</time>
  <course>89.69</course>
  <speed>0.67</speed>
  <fix>3d</fix>
</trkpt>
<trkpt lat="40.0728121" lon="-105.2306415">
  <ele>1595.67</ele>
  <time>2026-08-27T18:28:52Z</time>
  <course>8.49</course>
  <speed>0.49648766349225637</speed>
  <fix>3d</fix>
</trkpt>
<trkpt lat="40.0728121" lon="-105.2306424">
  <ele>1595.58</ele>
  <time>2026-08-27T18:28:52Z</time>
  <course>83.85</course>
  <speed>0.59</speed>
  <fix>3d</fix>
</trkpt>
<trkpt lat="40.0728122" lon="-105.2306406">
  <ele>1595.67</ele>
  <time>2026-08-27T18:28:52Z</time>
  <course>8.57</course>
  <speed>0.3453983207834109</speed>
  <fix>3d</fix>
</trkpt>
<trkpt lat="40.0728122" lon="-105.2306413">
  <ele>1595.59</ele>
  <time>2026-08-27T18:28:52Z</time>
  <course>75.1</course>
  <speed>0.46</speed>
  <fix>3d</fix>
</trkpt>
<trkpt lat="40.0728126" lon="-105.2306401">
  <ele>1595.67</ele>
  <time>2026-08-27T18:28:52Z</time>
  <course>8.6</course>
  <speed>0.2109502310972899</speed>
  <fix>3d</fix>
</trkpt>
<trkpt lat="40.0728125" lon="-105.2306404">
  <ele>1595.59</ele>
  <time>2026-08-27T18:28:52Z</time>
  <course>57.78</course>
  <speed>0.31</speed>
  <fix>3d</fix>
</trkpt>
<trkpt lat="40.0728129" lon="-105.2306401">
  <ele>1595.67</ele>
  <time>2026-08-27T18:28:52Z</time>
  <course>8.59</course>
  <speed>0.223606797749979</speed>
  <fix>3d</fix>
</trkpt>
<trkpt lat="40.0728128" lon="-105.23064">
  <ele>1595.59</ele>
  <time>2026-08-27T18:28:52Z</time>
  <course>14.46</course>
  <speed>0.2</speed>
  <fix>3d</fix>
</trkpt>
<trkpt lat="40.0728133" lon="-105.2306405">
  <ele>1595.67</ele>
  <time>2026-08-27T18:28:52Z</time>
  <course>8.57</course>
  <speed>0.37443290453698114</speed>
  <fix>3d</fix>
</trkpt>
<trkpt lat="40.0728132" lon="-105.2306402">
  <ele>1595.59</ele>
  <time>2026-08-27T18:28:52Z</time>
  <course>321.92</course>
  <speed>0.27</speed>
  <fix>3d</fix>
</trkpt>
<trkpt lat="40.0728137" lon="-105.2306414">
  <ele>1595.67</ele>
  <time>2026-08-27T18:28:52Z</time>
  <course>8.54</course>
  <speed>0.5255473337388366</speed>
  <fix>3d</fix>
</trkpt>
<trkpt lat="40.0728136" lon="-105.2306408">
  <ele>1595.59</ele>
  <time>2026-08-27T18:28:52Z</time>
  <course>299.47</course>
  <speed>0.42</speed>
  <fix>3d</fix>
</trkpt>
<trkpt lat="40.0728141" lon="-105.2306427">
  <ele>1595.67</ele>
  <time>2026-08-27T18:28:52Z</time>
  <course>8.53</course>
  <speed>0.6403124237432849</speed>
  <fix>3d</fix>
</trkpt>
<trkpt lat="40.0728139" lon="-105.2306419">
  <ele>1595.59</ele>
  <time>2026-08-27T18:28:52Z</time>
  <course>289.14</course>
  <speed>0.57</speed>
  <fix>3d</fix>
</trkpt>
<trkpt lat="40.0728143" lon="-105.2306443">
  <ele>1595.67</ele>
  <time>2026-08-27T18:28:52Z</time>
  <course>8.54</course>
  <speed>0.6987131027825368</speed>
  <fix>3d</fix>
</trkpt>
<trkpt lat="40.0728142" lon="-105.2306432">
  <ele>1595.59</ele>
  <time>2026-08-27T18:28:52Z</time>
  <course>282.76</course>
  <speed>0.67</speed>
  <fix>3d</fix>
</trkpt>
<trkpt lat="40.0728145" lon="-105.2306459">
  <ele>1595.67</ele>
  <time>2026-08-27T18:28:52Z</time>
  <course>8.62</course>
  <speed>0.691809222257119</speed>
  <fix>3d</fix>
</trkpt>
<trkpt lat="40.0728145" lon="-105.2306448">
  <ele>1595.59</ele>
  <time>2026-08-27T18:28:52Z</time>
  <course>277.83</course>
  <speed>0.72</speed>
  <fix>3d</fix>
</trkpt>
<trkpt lat="40.0728145" lon="-105.2306474">
  <ele>1595.67</ele>
  <time>2026-08-27T18:28:52Z</time>
  <course>8.69</course>
  <speed>0.62</speed>
  <fix>3d</fix>
</trkpt>
<trkpt lat="40.0728146" lon="-105.2306465">
  <ele>1595.59</ele>
  <time>2026-08-27T18:28:52Z</time>
  <course>273.25</course>
  <speed>0.7</speed>
  <fix>3d</fix>
</trkpt>
<trkpt lat="40.0728145" lon="-105.2306488">
  <ele>1595.68</ele>
  <time>2026-08-27T18:28:52Z</time>
  <course>8.73</course>
  <speed>0.4949747468305833</speed>
  <fix>3d</fix>
</trkpt>
<trkpt lat="40.0728146" lon="-105.2306481">
  <ele>1595.59</ele>
  <time>2026-08-27T18:28:52Z</time>
  <course>268.1</course>
  <speed>0.61</speed>
  <fix>3d</fix>
</trkpt>
<trkpt lat="40.0728143" lon="-105.2306498">
  <ele>1595.69</ele>
  <time>2026-08-27T18:28:52Z</time>
  <course>8.78</course>
  <speed>0.33241540277189324</speed>
  <fix>3d</fix>
</trkpt>
<trkpt lat="40.0728146" lon="-105.2306494">
  <ele>1595.6</ele>
  <time>2026-08-27T18:28:52Z</time>
  <course>260.89</course>
  <speed>0.48</speed>
  <fix>3d</fix>
</trkpt>
<trkpt lat="40.0728141" lon="-105.2306504">
  <ele>1595.69</ele>
  <time>2026-08-27T18:28:52Z</time>
  <course>8.78</course>
  <speed>0.1972308292331602</speed>
  <fix>3d</fix>
</trkpt>
<trkpt lat="40.0728145" lon="-105.2306502">
  <ele>1595.6</ele>
  <time>2026-08-27T18:28:52Z</time>
  <course>247.08</course>
  <speed>0.31</speed>
  <fix>3d</fix>
</trkpt>
<trkpt lat="40.0728138" lon="-105.2306504">
  <ele>1595.69</ele>
  <time>2026-08-27T18:28:52Z</time>
  <course>8.72</course>
  <speed>0.2195449840010015</speed>
  <fix>3d</fix>
</trkpt>
<trkpt lat="40.0728142" lon="-105.2306506">
  <ele>1595.6</ele>
  <time>2026-08-27T18:28:52Z</time>
  <course>206.27</course>
  <speed>0.17</speed>
  <fix>3d</fix>
</trkpt>
<trkpt lat="40.0728135" lon="-105.2306501">
  <ele>1595.68</ele>
  <time>2026-08-27T18:28:52Z</time>
  <course>8.58</course>
  <speed>0.3773592452822641</speed>
  <fix>3d</fix>
</trkpt>
<trkpt lat="40.0728139" lon="-105.2306506">
  <ele>1595.59</ele>
  <time>2026-08-27T18:28:52Z</time>
  <course>139.74</course>
  <speed>0.22</speed>
  <fix>3d</fix>
</trkpt>
<trkpt lat="40.0728132" lon="-105.2306492">
  <ele>1595.68</ele>
  <time>2026-08-27T18:28:52Z</time>
  <course>8.47</course>
  <speed>0.5314132102234569</speed>
  <fix>3d</fix>
</trkpt>
<trkpt lat="40.0728136" lon="-105.23065">
  <ele>1595.58</ele>
  <time>2026-08-27T18:28:52Z</time>
  <course>115.4</course>
  <speed>0.38</speed>
  <fix>3d</fix>
</trkpt>
<trkpt lat="40.072813" lon="-105.2306479">
  <ele>1595.67</ele>
  <time>2026-08-27T18:28:52Z</time>
  <course>8.36</course>
  <speed>0.6476109943476871</speed>
  <fix>3d</fix>
</trkpt>
<trkpt lat="40.0728133" lon="-105.230649">
  <ele>1595.58</ele>
  <time>2026-08-27T18:28:52Z</time>
  <course>105.44</course>
  <speed>0.53</speed>
  <fix>3d</fix>
</trkpt>
<trkpt lat="40.0728128" lon="-105.2306464">
  <ele>1595.66</ele>
  <time>2026-08-27T18:28:52Z</time>
  <course>8.32</course>
  <speed>0.7071067811865476</speed>
  <fix>3d</fix>
</trkpt>
<trkpt lat="40.0728131" lon="-105.2306477">
  <ele>1595.57</ele>
  <time>2026-08-27T18:28:52Z</time>
  <course>99.34</course>
  <speed>0.64</speed>
  <fix>3d</fix>
</trkpt>
<trkpt lat="40.0728127" lon="-105.2306448">
  <ele>1595.66</ele>
  <time>2026-08-27T18:28:52Z</time>
  <course>8.35</course>
  <speed>0.7011419257183242</speed>
  <fix>3d</fix>
</trkpt>
<trkpt lat="40.0728129" lon="-105.2306462">
  <ele>1595.57</ele>
  <time>2026-08-27T18:28:52Z</time>
  <course>94.45</course>
  <speed>0.68</speed>
  <fix>3d</fix>
</trkpt>
<trkpt lat="40.0728128" lon="-105.2306433">
  <ele>1595.66</ele>
  <time>2026-08-27T18:28:52Z</time>
  <course>8.4</course>
  <speed>0.6300793600809346</speed>
  <fix>3d</fix>
</trkpt>
<trkpt lat="40.0728128" lon="-105.2306446">
  <ele>1595.57</ele>
  <time>2026-08-27T18:28:52Z</time>
  <course>89.63</course>
  <speed>0.67</speed>
  <fix>3d</fix>
</trkpt>
<trkpt lat="40.0728129" lon="-105.230642">
  <ele>1595.67</ele>
  <time>2026-08-27T18:28:52Z</time>
  <course>8.46</course>
  <speed>0.5063595560468865</speed>
  <fix>3d</fix>
</trkpt>
<trkpt lat="40.0728129" lon="-105.2306431">
  <ele>1595.57</ele>
  <time>2026-08-27T18:28:52Z</time>
  <course>83.83</course>
  <speed>0.59</speed>
  <fix>3d</fix>
</trkpt>
<trkpt lat="40.072813" lon="-105.2306411">
  <ele>1595.67</ele>
  <time>2026-08-27T18:28:52Z</time>
  <course>8.56</course>
  <speed>0.3453983207834109</speed>
  <fix>3d</fix>
</trkpt>
<trkpt lat="40.0728131" lon="-105.2306419">
  <ele>1595.58</ele>
  <time>2026-08-27T18:28:52Z</time>
  <course>75.1</course>
  <speed>0.46</speed>
  <fix>3d</fix>
</trkpt>
<trkpt lat="40.0728134" lon="-105.2306406">
  <ele>1595.67</ele>
  <time>2026-08-27T18:28:52Z</time>
  <course>8.59</course>
  <speed>0.2109502310972899</speed>
  <fix>3d</fix>
</trkpt>
<trkpt lat="40.0728133" lon="-105.230641">
  <ele>1595.58</ele>
  <time>2026-08-27T18:28:52Z</time>
  <course>57.72</course>
  <speed>0.31</speed>
  <fix>3d</fix>
</trkpt>
<trkpt lat="40.0728137" lon="-105.2306406">
  <ele>1595.66</ele>
  <time>2026-08-27T18:28:52Z</time>
  <course>8.59</course>
  <speed>0.223606797749979</speed>
  <fix>3d</fix>
</trkpt>
<trkpt lat="40.0728136" lon="-105.2306407">
  <ele>1595.58</ele>
  <time>2026-08-27T18:28:52Z</time>
  <course>13.74</course>
  <speed>0.2</speed>
  <fix>3d</fix>
</trkpt>
<trkpt lat="40.0728141" lon="-105.230641">
  <ele>1595.67</ele>
  <time>2026-08-27T18:28:52Z</time>
  <course>8.53</course>
  <speed>0.37443290453698114</speed>
  <fix>3d</fix>
</trkpt>
<trkpt lat="40.0728139" lon="-105.2306408">
  <ele>1595.58</ele>
  <time>2026-08-27T18:28:52Z</time>
  <course>321.08</course>
  <speed>0.27</speed>
  <fix>3d</fix>
</trkpt>
<trkpt lat="40.0728145" lon="-105.230642">
  <ele>1595.67</ele>
  <time>2026-08-27T18:28:52Z</time>
  <course>8.47</course>
  <speed>0.5255473337388366</speed>
  <fix>3d</fix>
</trkpt>
<trkpt lat="40.0728144" lon="-105.2306414">
  <ele>1595.58</ele>
  <time>2026-08-27T18:28:52Z</time>
  <course>299.02</course>
  <speed>0.43</speed>
  <fix>3d</fix>
</trkpt>
<trkpt lat="40.0728148" lon="-105.2306433">
  <ele>1595.67</ele>
  <time>2026-08-27T18:28:52Z</time>
  <course>8.49</course>
  <speed>0.6403124237432849</speed>
  <fix>3d</fix>
</trkpt>
<trkpt lat="40.0728147" lon="-105.2306424">
  <ele>1595.59</ele>
  <time>2026-08-27T18:28:52Z</time>
  <course>288.86</course>
  <speed>0.57</speed>
  <fix>3d</fix>
</trkpt>
<trkpt lat="40.0728151" lon="-105.2306448">
  <ele>1595.68</ele>
  <time>2026-08-27T18:28:52Z</time>
  <course>8.53</course>
  <speed>0.6987131027825368</speed>
  <fix>3d</fix>
</trkpt>
<trkpt lat="40.072815" lon="-105.2306438">
  <ele>1595.59</ele>
  <time>2026-08-27T18:28:52Z</time>
  <course>282.56</course>
  <speed>0.68</speed>
  <fix>3d</fix>
</trkpt>
<trkpt lat="40.0728153" lon="-105.2306465">
  <ele>1595.68</ele>
  <time>2026-08-27T18:28:52Z</time>
  <course>8.62</course>
  <speed>0.691809222257119</speed>
  <fix>3d</fix>
</trkpt>
<trkpt lat="40.0728153" lon="-105.2306455">
  <ele>1595.59</ele>
  <time>2026-08-27T18:28:52Z</time>
  <course>277.69</course>
  <speed>0.72</speed>
  <fix>3d</fix>
</trkpt>
<trkpt lat="40.0728153" lon="-105.230648">
  <ele>1595.68</ele>
  <time>2026-08-27T18:28:52Z</time>
  <course>8.7</course>
  <speed>0.62</speed>
  <fix>3d</fix>
</trkpt>
<trkpt lat="40.0728153" lon="-105.2306472">
  <ele>1595.59</ele>
  <time>2026-08-27T18:28:52Z</time>
  <course>273.14</course>
  <speed>0.7</speed>
  <fix>3d</fix>
</trkpt>
<trkpt lat="40.0728152" lon="-105.2306494">
  <ele>1595.68</ele>
  <time>2026-08-27T18:28:52Z</time>
  <course>8.74</course>
  <speed>0.4949747468305833</speed>
  <fix>3d</fix>
</trkpt>
<trkpt lat="40.0728153" lon="-105.2306488">
  <ele>1595.59</ele>
  <time>2026-08-27T18:28:52Z</time>
  <course>268.01</course>
  <speed>0.62</speed>
  <fix>3d</fix>
</trkpt>
<trkpt lat="40.0728151" lon="-105.2306504">
  <ele>1595.68</ele>
  <time>2026-08-27T18:28:52Z</time>
  <course>8.76</course>
  <speed>0.3361547262794322</speed>
  <fix>3d</fix>
</trkpt>
<trkpt lat="40.0728153" lon="-105.23065">
  <ele>1595.59</ele>
  <time>2026-08-27T18:28:52Z</time>
  <course>260.82</course>
  <speed>0.48</speed>
  <fix>3d</fix>
</trkpt>
<trkpt lat="40.0728149" lon="-105.230651">
  <ele>1595.68</ele>
  <time>2026-08-27T18:28:52Z</time>
  <course>8.74</course>
  <speed>0.1972308292331602</speed>
  <fix>3d</fix>
</trkpt>
<trkpt lat="40.0728152" lon="-105.230651">
  <ele>1595.59</ele>
  <time>2026-08-27T18:28:52Z</time>
  <course>247.12</course>
  <speed>0.31</speed>
  <fix>3d</fix>
</trkpt>
<trkpt lat="40.0728146" lon="-105.2306511">
  <ele>1595.67</ele>
  <time>2026-08-27T18:28:52Z</time>
  <course>8.65</course>
  <speed>0.2195449840010015</speed>
  <fix>3d</fix>
</trkpt>
<trkpt lat="40.072815" lon="-105.2306514">
  <ele>1595.59</ele>
  <time>2026-08-27T18:28:52Z</time>
  <course>206.67</course>
  <speed>0.17</speed>
  <fix>3d</fix>
</trkpt>
<trkpt lat="40.0728143" lon="-105.2306507">
  <ele>1595.67</ele>
  <time>2026-08-27T18:28:52Z</time>
  <course>8.53</course>
  <speed>0.3773592452822641</speed>
  <fix>3d</fix>
</trkpt>
<trkpt lat="40.0728146" lon="-105.2306513">
  <ele>1595.59</ele>
  <time>2026-08-27T18:28:52Z</time>
  <course>139.92</course>
  <speed>0.22</speed>
  <fix>3d</fix>
</trkpt>
<trkpt lat="40.072814" lon="-105.2306498">
  <ele>1595.66</ele>
  <time>2026-08-27T18:28:52Z</time>
  <course>8.4</course>
  <speed>0.5314132102234569</speed>
  <fix>3d</fix>
</trkpt>
<trkpt lat="40.0728143" lon="-105.2306508">
  <ele>1595.59</ele>
  <time>2026-08-27T18:28:52Z</time>
  <course>115.44</course>
  <speed>0.38</speed>
  <fix>3d</fix>
</trkpt>
<trkpt lat="40.0728137" lon="-105.2306486">
  <ele>1595.66</ele>
  <time>2026-08-27T18:28:52Z</time>
  <course>8.33</course>
  <speed>0.6476109943476871</speed>
  <fix>3d</fix>
</trkpt>
<trkpt lat="40.0728141" lon="-105.2306498">
  <ele>1595.59</ele>
  <time>2026-08-27T18:28:52Z</time>
  <course>105.45</course>
  <speed>0.53</speed>
  <fix>3d</fix>
</trkpt>
<trkpt lat="40.0728135" lon="-105.2306471">
  <ele>1595.66</ele>
  <time>2026-08-27T18:28:52Z</time>
  <course>8.33</course>
  <speed>0.7071067811865476</speed>
  <fix>3d</fix>
</trkpt>
<trkpt lat="40.0728139" lon="-105.2306485">
  <ele>1595.59</ele>
  <time>2026-08-27T18:28:52Z</time>
  <course>99.35</course>
  <speed>0.64</speed>
  <fix>3d</fix>
</trkpt>
<trkpt lat="40.0728135" lon="-105.2306455">
  <ele>1595.67</ele>
  <time>2026-08-27T18:28:52Z</time>
  <course>8.35</course>
  <speed>0.6911584478250989</speed>
  <fix>3d</fix>
</trkpt>
<trkpt lat="40.0728137" lon="-105.2306469">
  <ele>1595.59</ele>
  <time>2026-08-27T18:28:52Z</time>
  <course>94.45</course>
  <speed>0.68</speed>
  <fix>3d</fix>
</trkpt>
<trkpt lat="40.0728135" lon="-105.230644">
  <ele>1595.67</ele>
  <time>2026-08-27T18:28:52Z</time>
  <course>8.41</course>
  <speed>0.6300793600809346</speed>
  <fix>3d</fix>
</trkpt>
<trkpt lat="40.0728137" lon="-105.2306452">
  <ele>1595.59</ele>
  <time>2026-08-27T18:28:52Z</time>
  <course>89.61</course>
  <speed>0.67</speed>
  <fix>3d</fix>
</trkpt>
<trkpt lat="40.0728136" lon="-105.2306428">
  <ele>1595.68</ele>
  <time>2026-08-27T18:28:52Z</time>
  <course>8.52</course>
  <speed>0.5063595560468865</speed>
  <fix>3d</fix>
</trkpt>
<trkpt lat="40.0728137" lon="-105.2306438">
  <ele>1595.59</ele>
  <time>2026-08-27T18:28:52Z</time>
  <course>83.76</course>
  <speed>0.59</speed>
  <fix>3d</fix>
</trkpt>
<trkpt lat="40.0728138" lon="-105.2306418">
  <ele>1595.69</ele>
  <time>2026-08-27T18:28:52Z</time>
  <course>8.61</course>
  <speed>0.3453983207834109</speed>
  <fix>3d</fix>
</trkpt>
<trkpt lat="40.0728138" lon="-105.2306426">
  <ele>1595.59</ele>
  <time>2026-08-27T18:28:52Z</time>
  <course>75.0</course>
  <speed>0.46</speed>
  <fix>3d</fix>
</trkpt>
<trkpt lat="40.0728141" lon="-105.2306413">
  <ele>1595.69</ele>
  <time>2026-08-27T18:28:52Z</time>
  <course>8.64</course>
  <speed>0.2109502310972899</speed>
  <fix>3d</fix>
</trkpt>
<trkpt lat="40.072814" lon="-105.2306418">
  <ele>1595.59</ele>
  <time>2026-08-27T18:28:52Z</time>
  <course>57.71</course>
  <speed>0.31</speed>
  <fix>3d</fix>
</trkpt>
<trkpt lat="40.0728145" lon="-105.2306413">
  <ele>1595.69</ele>
  <time>2026-08-27T18:28:52Z</time>
  <course>8.63</course>
  <speed>0.223606797749979</speed>
  <fix>3d</fix>
</trkpt>
<trkpt lat="40.0728144" lon="-105.2306414">
  <ele>1595.59</ele>
  <time>2026-08-27T18:28:52Z</time>
  <course>14.35</course>
  <speed>0.2</speed>
  <fix>3d</fix>
</trkpt>
<trkpt lat="40.0728149" lon="-105.2306417">
  <ele>1595.69</ele>
  <time>2026-08-27T18:28:52Z</time>
  <course>8.59</course>
  <speed>0.33600595232822883</speed>
  <fix>3d</fix>
</trkpt>
<trkpt lat="40.0728148" lon="-105.2306415">
  <ele>1595.59</ele>
  <time>2026-08-27T18:28:52Z</time>
  <course>323.26</course>
  <speed>0.26</speed>
  <fix>3d</fix>
</trkpt>
<trkpt lat="40.0728153" lon="-105.2306424">
  <ele>1595.69</ele>
  <time>2026-08-27T18:28:52Z</time>
  <course>8.63</course>
  <speed>0.3757658845611187</speed>
  <fix>3d</fix>
</trkpt>
<trkpt lat="40.0728151" lon="-105.2306421">
  <ele>1595.58</ele>
  <time>2026-08-27T18:28:52Z</time>
  <course>302.86</course>
  <speed>0.36</speed>
  <fix>3d</fix>
</trkpt>
<trkpt lat="40.0728155" lon="-105.2306433">
  <ele>1595.69</ele>
  <time>2026-08-27T18:28:52Z</time>
  <course>8.66</course>
  <speed>0.37947331922020555</speed>
  <fix>3d</fix>
</trkpt>
<trkpt lat="40.0728154" lon="-105.2306428">
  <ele>1595.58</ele>
  <time>2026-08-27T18:28:52Z</time>
  <course>293.61</course>
  <speed>0.4</speed>
  <fix>3d</fix>
</trkpt>
<trkpt lat="40.0728157" lon="-105.2306441">
  <ele>1595.68</ele>
  <time>2026-08-27T18:28:53Z</time>
  <course>8.65</course>
  <speed>0.35171010790137947</speed>
  <fix>3d</fix>
</trkpt>
<trkpt lat="40.0728157" lon="-105.2306436">
  <ele>1595.58</ele>
  <time>2026-08-27T18:28:53Z</time>
  <course>288.17</course>
  <speed>0.4</speed>
  <fix>3d</fix>
</trkpt>
<trkpt lat="40.0728159" lon="-105.2306449">
  <ele>1595.68</ele>
  <time>2026-08-27T18:28:53Z</time>
  <course>8.66</course>
  <speed>0.3178049716414141</speed>
  <fix>3d</fix>
</trkpt>
<trkpt lat="40.0728159" lon="-105.2306445">
  <ele>1595.57</ele>
  <time>2026-08-27T18:28:53Z</time>
  <course>284.92</course>
  <speed>0.37</speed>
  <fix>3d</fix>
</trkpt>
<trkpt lat="40.072816" lon="-105.2306457">
  <ele>1595.68</ele>
  <time>2026-08-27T18:28:53Z</time>
  <course>8.65</course>
  <speed>0.2863564212655271</speed>
  <fix>3d</fix>
</trkpt>
<trkpt lat="40.0728161" lon="-105.2306453">
  <ele>1595.57</ele>
  <time>2026-08-27T18:28:53Z</time>
  <course>283.22</course>
  <speed>0.34</speed>
  <fix>3d</fix>
</trkpt>
<trkpt lat="40.0728162" lon="-105.2306463">
  <ele>1595.67</ele>
  <time>2026-08-27T18:28:53Z</time>
  <course>8.62</course>
  <speed>0.25495097567963926</speed>
  <fix>3d</fix>
</trkpt>
<trkpt lat="40.0728162" lon="-105.2306461">
  <ele>1595.57</ele>
  <time>2026-08-27T18:28:53Z</time>
  <course>282.68</course>
  <speed>0.3</speed>
  <fix>3d</fix>
</trkpt>
<trkpt lat="40.0728163" lon="-105.2306469">
  <ele>1595.67</ele>
  <time>2026-08-27T18:28:53Z</time>
  <course>8.61</course>
  <speed>0.21377558326431947</speed>
  <fix>3d</fix>
</trkpt>
<trkpt lat="40.0728163" lon="-105.2306467">
  <ele>1595.57</ele>
  <time>2026-08-27T18:28:53Z</time>
  <course>283.04</course>
  <speed>0.27</speed>
  <fix>3d</fix>
</trkpt>
<trkpt lat="40.0728164" lon="-105.2306474">
  <ele>1595.66</ele>
  <time>2026-08-27T18:28:53Z</time>
  <course>8.61</course>
  <speed>0.194164878389476</speed>
  <fix>3d</fix>
</trkpt>
<trkpt lat="40.0728164" lon="-105.2306474">
  <ele>1595.57</ele>
  <time>2026-08-27T18:28:53Z</time>
  <course>284.02</course>
  <speed>0.24</speed>
  <fix>3d</fix>
</trkpt>
<trkpt lat="40.0728165" lon="-105.2306479">
  <ele>1595.66</ele>
  <time>2026-08-27T18:28:53Z</time>
  <course>8.59</course>
  <speed>0.1649242250247064</speed>
  <fix>3d</fix>
</trkpt>
<trkpt lat="40.0728165" lon="-105.2306478">
  <ele>1595.57</ele>
  <time>2026-08-27T18:28:53Z</time>
  <course>285.56</course>
  <speed>0.21</speed>
  <fix>3d</fix>
</trkpt>
<trkpt lat="40.0728165" lon="-105.2306483">
  <ele>1595.66</ele>
  <time>2026-08-27T18:28:53Z</time>
  <course>8.59</course>
  <speed>0.14560219778561037</speed>
  <fix>3d</fix>
</trkpt>
<trkpt lat="40.0728166" lon="-105.2306483">
  <ele>1595.57</ele>
  <time>2026-08-27T18:28:53Z</time>
  <course>287.62</course>
  <speed>0.19</speed>
  <fix>3d</fix>
</trkpt>
<trkpt lat="40.0728166" lon="-105.2306487">
  <ele>1595.66</ele>
  <time>2026-08-27T18:28:53Z</time>
  <course>8.59</course>
  <speed>0.1264911064067352</speed>
  <fix>3d</fix>
</trkpt>
<trkpt lat="40.0728167" lon="-105.2306488">
  <ele>1595.57</ele>
  <time>2026-08-27T18:28:53Z</time>
  <course>290.02</course>
  <speed>0.17</speed>
  <fix>3d</fix>
</trkpt>
<trkpt lat="40.0728167" lon="-105.230649">
  <ele>1595.67</ele>
  <time>2026-08-27T18:28:53Z</time>
  <course>8.59</course>
  <speed>0.11704699910719625</speed>
  <fix>3d</fix>
</trkpt>
<trkpt lat="40.0728168" lon="-105.2306491">
  <ele>1595.57</ele>
  <time>2026-08-27T18:28:53Z</time>
  <course>292.8</course>
  <speed>0.15</speed>
  <fix>3d</fix>
</trkpt>
<trkpt lat="40.0728168" lon="-105.2306493">
  <ele>1595.67</ele>
  <time>2026-08-27T18:28:53Z</time>
  <course>8.59</course>
  <speed>0.09848857801796104</speed>
  <fix>3d</fix>
</trkpt>
<trkpt lat="40.0728169" lon="-105.2306494">
  <ele>1595.57</ele>
  <time>2026-08-27T18:28:53Z</time>
  <course>295.88</course>
  <speed>0.14</speed>
  <fix>3d</fix>
</trkpt>
<trkpt lat="40.0728169" lon="-105.2306496">
  <ele>1595.67</ele>
  <time>2026-08-27T18:28:53Z</time>
  <course>8.59</course>
  <speed>0.08944271909999159</speed>
  <fix>3d</fix>
</trkpt>
<trkpt lat="40.072817" lon="-105.2306496">
  <ele>1595.57</ele>
  <time>2026-08-27T18:28:53Z</time>
  <course>299.03</course>
  <speed>0.12</speed>
  <fix>3d</fix>
</trkpt>
<trkpt lat="40.072817" lon="-105.2306498">
  <ele>1595.67</ele>
  <time>2026-08-27T18:28:53Z</time>
  <course>8.59</course>
  <speed>0.08062257748298549</speed>
  <fix>3d</fix>
</trkpt>
<trkpt lat="40.0728171" lon="-105.2306499">
  <ele>1595.57</ele>
  <time>2026-08-27T18:28:53Z</time>
  <course>302.19</course>
  <speed>0.11</speed>
  <fix>3d</fix>
</trkpt>
<trkpt lat="40.0728172" lon="-105.23065">
  <ele>1595.67</ele>
  <time>2026-08-27T18:28:53Z</time>
  <course>8.58</course>
  <speed>0.07211102550927978</speed>
  <fix>3d</fix>
</trkpt>
<trkpt lat="40.0728173" lon="-105.2306501">
  <ele>1595.58</ele>
  <time>2026-08-27T18:28:53Z</time>
  <course>305.42</course>
  <speed>0.1</speed>
  <fix>3d</fix>
</trkpt>
<trkpt lat="40.0728173" lon="-105.2306502">
  <ele>1595.66</ele>
  <time>2026-08-27T18:28:53Z</time>
  <course>8.59</course>
  <speed>0.06403124237432849</speed>
  <fix>3d</fix>
</trkpt>
<trkpt lat="40.0728174" lon="-105.2306504">
  <ele>1595.58</ele>
  <time>2026-08-27T18:28:53Z</time>
  <course>308.78</course>
  <speed>0.1</speed>
  <fix>3d</fix>
</trkpt>
<trkpt lat="40.0728174" lon="-105.2306504">
  <ele>1595.67</ele>
  <time>2026-08-27T18:28:53Z</time>
  <course>8.62</course>
  <speed>0.06403124237432849</speed>
  <fix>3d</fix>
</trkpt>
<trkpt lat="40.0728175" lon="-105.2306505">
  <ele>1595.58</ele>
  <time>2026-08-27T18:28:53Z</time>
  <course>313.68</course>
  <speed>0.09</speed>
  <fix>3d</fix>
</trkpt>
<trkpt lat="40.0728175" lon="-105.2306505">
  <ele>1595.67</ele>
  <time>2026-08-27T18:28:53Z</time>
  <course>8.61</course>
  <speed>0.09219544457292887</speed>
  <fix>3d</fix>
</trkpt>
<trkpt lat="40.0728177" lon="-105.2306506">
  <ele>1595.58</ele>
  <time>2026-08-27T18:28:53Z</time>
  <course>325.94</course>
  <speed>0.1</speed>
  <fix>3d</fix>
</trkpt>
<trkpt lat="40.0728178" lon="-105.2306506">
  <ele>1595.67</ele>
  <time>2026-08-27T18:28:53Z</time>
  <course>8.62</course>
  <speed>0.16</speed>
  <fix>3d</fix>
</trkpt>
<trkpt lat="40.0728178" lon="-105.2306508">
  <ele>1595.58</ele>
  <time>2026-08-27T18:28:53Z</time>
  <course>344.93</course>
  <speed>0.13</speed>
  <fix>3d</fix>
</trkpt>
<trkpt lat="40.0728182" lon="-105.2306505">
  <ele>1595.67</ele>
  <time>2026-08-27T18:28:53Z</time>
  <course>8.6</course>
  <speed>0.26305892875931813</speed>
  <fix>3d</fix>
</trkpt>
<trkpt lat="40.0728182" lon="-105.2306509">
  <ele>1595.58</ele>
  <time>2026-08-27T18:28:53Z</time>
  <course>358.77</course>
  <speed>0.21</speed>
  <fix>3d</fix>
</trkpt>
<trkpt lat="40.0728189" lon="-105.2306505">
  <ele>1595.67</ele>
  <time>2026-08-27T18:28:53Z</time>
  <course>8.57</course>
  <speed>0.388329756778952</speed>
  <fix>3d</fix>
</trkpt>
<trkpt lat="40.0728186" lon="-105.2306509">
  <ele>1595.58</ele>
  <time>2026-08-27T18:28:53Z</time>
  <course>5.34</course>
  <speed>0.31</speed>
  <fix>3d</fix>
</trkpt>
<trkpt lat="40.0728197" lon="-105.2306504">
  <ele>1595.67</ele>
  <time>2026-08-27T18:28:53Z</time>
  <course>8.53</course>
  <speed>0.5099019513592785</speed>
  <fix>3d</fix>
</trkpt>
<trkpt lat="40.0728193" lon="-105.2306508">
  <ele>1595.58</ele>
  <time>2026-08-27T18:28:53Z</time>
  <course>7.87</course>
  <speed>0.44</speed>
  <fix>3d</fix>
</trkpt>
<trkpt lat="40.0728207" lon="-105.2306502">
  <ele>1595.67</ele>
  <time>2026-08-27T18:28:53Z</time>
  <course>8.49</course>
  <speed>0.6216912416947821</speed>
  <fix>3d</fix>
</trkpt>
<trkpt lat="40.0728201" lon="-105.2306506">
  <ele>1595.58</ele>
  <time>2026-08-27T18:28:53Z</time>
  <course>8.4</course>
  <speed>0.56</speed>
  <fix>3d</fix>
</trkpt>
<trkpt lat="40.0728219" lon="-105.23065">
  <ele>1595.66</ele>
  <time>2026-08-27T18:28:53Z</time>
  <course>8.45</course>
  <speed>0.6987131027825368</speed>
  <fix>3d</fix>
</trkpt>
<trkpt lat="40.0728213" lon="-105.2306504">
  <ele>1595.58</ele>
  <time>2026-08-27T18:28:53Z</time>
  <course>7.86</course>
  <speed>0.66</speed>
  <fix>3d</fix>
</trkpt>
<trkpt lat="40.0728232" lon="-105.2306498">
  <ele>1595.66</ele>
  <time>2026-08-27T18:28:53Z</time>
  <course>8.44</course>
  <speed>0.7256031973468694</speed>
  <fix>3d</fix>
</trkpt>
<trkpt lat="40.0728225" lon="-105.2306501">
  <ele>1595.58</ele>
  <time>2026-08-27T18:28:53Z</time>
  <course>6.64</course>
  <speed>0.73</speed>
  <fix>3d</fix>
</trkpt>
<trkpt lat="40.0728245" lon="-105.2306497">
  <ele>1595.66</ele>
  <time>2026-08-27T18:28:53Z</time>
  <course>8.47</course>
  <speed>0.6926037828369117</speed>
  <fix>3d</fix>
</trkpt>
<trkpt lat="40.0728238" lon="-105.23065">
  <ele>1595.58</ele>
  <time>2026-08-27T18:28:53Z</time>
  <course>4.88</course>
  <speed>0.74</speed>
  <fix>3d</fix>
</trkpt>
<trkpt lat="40.0728257" lon="-105.2306496">
  <ele>1595.66</ele>
  <time>2026-08-27T18:28:53Z</time>
  <course>8.49</course>
  <speed>0.6000833275470999</speed>
  <fix>3d</fix>
</trkpt>
<trkpt lat="40.0728252" lon="-105.2306499">
  <ele>1595.58</ele>
  <time>2026-08-27T18:28:53Z</time>
  <course>2.46</course>
  <speed>0.7</speed>
  <fix>3d</fix>
</trkpt>
<trkpt lat="40.0728267" lon="-105.2306497">
  <ele>1595.66</ele>
  <time>2026-08-27T18:28:53Z</time>
  <course>8.52</course>
  <speed>0.4509988913511872</speed>
  <fix>3d</fix>
</trkpt>
<trkpt lat="40.0728263" lon="-105.2306498">
  <ele>1595.58</ele>
  <time>2026-08-27T18:28:53Z</time>
  <course>358.98</course>
  <speed>0.59</speed>
  <fix>3d</fix>
</trkpt>
<trkpt lat="40.0728274" lon="-105.2306498">
  <ele>1595.67</ele>
  <time>2026-08-27T18:28:53Z</time>
  <course>8.54</course>
  <speed>0.2692582403567252</speed>
  <fix>3d</fix>
</trkpt>
<trkpt lat="40.0728273" lon="-105.23065">
  <ele>1595.59</ele>
  <time>2026-08-27T18:28:53Z</time>
  <course>353.0</course>
  <speed>0.44</speed>
  <fix>3d</fix>
</trkpt>
<trkpt lat="40.0728278" lon="-105.2306501">
  <ele>1595.67</ele>
  <time>2026-08-27T18:28:53Z</time>
  <course>8.56</course>
  <speed>0.12369316876852982</speed>
  <fix>3d</fix>
</trkpt>
<trkpt lat="40.0728279" lon="-105.2306501">
  <ele>1595.59</ele>
  <time>2026-08-27T18:28:53Z</time>
  <course>337.96</course>
  <speed>0.25</speed>
  <fix>3d</fix>
</trkpt>
<trkpt lat="40.0728277" lon="-105.2306504">
  <ele>1595.66</ele>
  <time>2026-08-27T18:28:53Z</time>
  <course>8.6</course>
  <speed>0.24413111231467405</speed>
  <fix>3d</fix>
</trkpt>
<trkpt lat="40.0728281" lon="-105.2306503">
  <ele>1595.59</ele>
  <time>2026-08-27T18:28:53Z</time>
  <course>269.45</course>
  <speed>0.12</speed>
  <fix>3d</fix>
</trkpt>
<trkpt lat="40.0728272" lon="-105.2306508">
  <ele>1595.67</ele>
  <time>2026-08-27T18:28:53Z</time>
  <course>8.56</course>
  <speed>0.45880278987817846</speed>
  <fix>3d</fix>
</trkpt>
<trkpt lat="40.072828" lon="-105.2306506">
  <ele>1595.6</ele>
  <time>2026-08-27T18:28:53Z</time>
  <course>210.97</course>
  <speed>0.28</speed>
  <fix>3d</fix>
</trkpt>
<trkpt lat="40.0728264" lon="-105.2306511">
  <ele>1595.67</ele>
  <time>2026-08-27T18:28:53Z</time>
  <course>8.53</course>
  <speed>0.6378871373526824</speed>
  <fix>3d</fix>
</trkpt>
<trkpt lat="40.0728273" lon="-105.230651">
  <ele>1595.6</ele>
  <time>2026-08-27T18:28:53Z</time>
  <course>197.65</course>
  <speed>0.48</speed>
  <fix>3d</fix>
</trkpt>
<trkpt lat="40.0728252" lon="-105.2306515">
  <ele>1595.66</ele>
  <time>2026-08-27T18:28:53Z</time>
  <course>8.52</course>
  <speed>0.7694153624668537</speed>
  <fix>3d</fix>
</trkpt>
<trkpt lat="40.0728263" lon="-105.2306513">
  <ele>1595.6</ele>
  <time>2026-08-27T18:28:53Z</time>
  <course>191.68</course>
  <speed>0.66</speed>
  <fix>3d</fix>
</trkpt>
<trkpt lat="40.0728239" lon="-105.2306517">
  <ele>1595.66</ele>
  <time>2026-08-27T18:28:53Z</time>
  <course>8.52</course>
  <speed>0.8338465086573187</speed>
  <fix>3d</fix>
</trkpt>
<trkpt lat="40.072825" lon="-105.2306515">
  <ele>1595.6</ele>
  <time>2026-08-27T18:28:53Z</time>
  <course>187.69</course>
  <speed>0.78</speed>
  <fix>3d</fix>
</trkpt>
<trkpt lat="40.0728224" lon="-105.2306518">
  <ele>1595.66</ele>
  <time>2026-08-27T18:28:53Z</time>
  <course>8.52</course>
  <speed>0.8305419917138447</speed>
  <fix>3d</fix>
</trkpt>
<trkpt lat="40.0728236" lon="-105.2306518">
  <ele>1595.6</ele>
  <time>2026-08-27T18:28:53Z</time>
  <course>184.32</course>
  <speed>0.83</speed>
  <fix>3d</fix>
</trkpt>
<trkpt lat="40.072821" lon="-105.2306518">
  <ele>1595.66</ele>
  <time>2026-08-27T18:28:53Z</time>
  <course>8.54</course>
  <speed>0.7502666192761077</speed>
  <fix>3d</fix>
</trkpt>
<trkpt lat="40.0728221" lon="-105.2306519">
  <ele>1595.6</ele>
  <time>2026-08-27T18:28:53Z</time>
  <course>180.9</course>
  <speed>0.81</speed>
  <fix>3d</fix>
</trkpt>
<trkpt lat="40.0728199" lon="-105.2306517">
  <ele>1595.67</ele>
  <time>2026-08-27T18:28:53Z</time>
  <course>8.55</course>
  <speed>0.5953990258641678</speed>
  <fix>3d</fix>
</trkpt>
<trkpt lat="40.0728207" lon="-105.2306518">
  <ele>1595.61</ele>
  <time>2026-08-27T18:28:53Z</time>
  <course>176.79</course>
  <speed>0.71</speed>
  <fix>3d</fix>
</trkpt>
<trkpt lat="40.072819" lon="-105.2306515">
  <ele>1595.67</ele>
  <time>2026-08-27T18:28:53Z</time>
  <course>8.6</course>
  <speed>0.4016217125604641</speed>
  <fix>3d</fix>
</trkpt>
<trkpt lat="40.0728196" lon="-105.2306517">
  <ele>1595.61</ele>
  <time>2026-08-27T18:28:53Z</time>
  <course>170.74</course>
  <speed>0.55</speed>
  <fix>3d</fix>
</trkpt>
<trkpt lat="40.0728185" lon="-105.2306512">
  <ele>1595.67</ele>
  <time>2026-08-27T18:28:53Z</time>
  <course>8.6</course>
  <speed>0.21400934559032694</speed>
  <fix>3d</fix>
</trkpt>
<trkpt lat="40.0728187" lon="-105.2306515">
  <ele>1595.62</ele>
  <time>2026-08-27T18:28:53Z</time>
  <course>158.45</course>
  <speed>0.35</speed>
  <fix>3d</fix>
</trkpt>
<trkpt lat="40.0728185" lon="-105.2306508">
  <ele>1595.68</ele>
  <time>2026-08-27T18:28:53Z</time>
  <course>8.57</course>
  <speed>0.22472205054244232</speed>
  <fix>3d</fix>
</trkpt>
<trkpt lat="40.0728184" lon="-105.2306512">
  <ele>1595.62</ele>
  <time>2026-08-27T18:28:53Z</time>
  <course>115.31</course>
  <speed>0.17</speed>
  <fix>3d</fix>
</trkpt>
<trkpt lat="40.0728189" lon="-105.2306504">
  <ele>1595.67</ele>
  <time>2026-08-27T18:28:53Z</time>
  <course>8.5</course>
  <speed>0.4159326868617084</speed>
  <fix>3d</fix>
</trkpt>
<trkpt lat="40.0728184" lon="-105.2306508">
  <ele>1595.62</ele>
  <time>2026-08-27T18:28:53Z</time>
  <course>40.72</course>
  <speed>0.25</speed>
  <fix>3d</fix>
</trkpt>
<trkpt lat="40.0728197" lon="-105.23065">
  <ele>1595.66</ele>
  <time>2026-08-27T18:28:53Z</time>
  <course>8.41</course>
  <speed>0.6140032573203501</speed>
  <fix>3d</fix>
</trkpt>
<trkpt lat="40.0728189" lon="-105.2306505">
  <ele>1595.62</ele>
  <time>2026-08-27T18:28:53Z</time>
  <course>19.23</course>
  <speed>0.46</speed>
  <fix>3d</fix>
</trkpt>
<trkpt lat="40.0728209" lon="-105.2306497">
  <ele>1595.66</ele>
  <time>2026-08-27T18:28:53Z</time>
  <course>8.36</course>
  <speed>0.7611832893594026</speed>
  <fix>3d</fix>
</trkpt>
<trkpt lat="40.07282" lon="-105.2306501">
  <ele>1595.62</ele>
  <time>2026-08-27T18:28:53Z</time>
  <course>10.8</course>
  <speed>0.65</speed>
  <fix>3d</fix>
</trkpt>
<trkpt lat="40.0728223" lon="-105.2306495">
  <ele>1595.65</ele>
  <time>2026-08-27T18:28:53Z</time>
  <course>8.34</course>
  <speed>0.8537564055396598</speed>
  <fix>3d</fix>
</trkpt>
<trkpt lat="40.0728213" lon="-105.2306499">
  <ele>1595.62</ele>
  <time>2026-08-27T18:28:53Z</time>
  <course>5.6</course>
  <speed>0.79</speed>
  <fix>3d</fix>
</trkpt>
<trkpt lat="40.0728238" lon="-105.2306495">
  <ele>1595.65</ele>
  <time>2026-08-27T18:28:53Z</time>
  <course>8.35</course>
  <speed>0.8500588214941364</speed>
  <fix>3d</fix>
</trkpt>
<trkpt lat="40.0728228" lon="-105.2306498">
  <ele>1595.62</ele>
  <time>2026-08-27T18:28:53Z</time>
  <course>1.42</course>
  <speed>0.87</speed>
  <fix>3d</fix>
</trkpt>
<trkpt lat="40.0728253" lon="-105.2306496">
  <ele>1595.66</ele>
  <time>2026-08-27T18:28:53Z</time>
  <course>8.36</course>
  <speed>0.7816009211867653</speed>
  <fix>3d</fix>
</trkpt>
<trkpt lat="40.0728244" lon="-105.2306498">
  <ele>1595.62</ele>
  <time>2026-08-27T18:28:53Z</time>
  <course>357.31</course>
  <speed>0.86</speed>
  <fix>3d</fix>
</trkpt>
<trkpt lat="40.0728266" lon="-105.2306498">
  <ele>1595.68</ele>
  <time>2026-08-27T18:28:53Z</time>
  <course>8.45</course>
  <speed>0.6395310782127792</speed>
  <fix>3d</fix>
</trkpt>
<trkpt lat="40.0728259" lon="-105.2306499">
  <ele>1595.63</ele>
  <time>2026-08-27T18:28:53Z</time>
  <course>352.48</course>
  <speed>0.77</speed>
  <fix>3d</fix>
</trkpt>
<trkpt lat="40.0728276" lon="-105.2306502">
  <ele>1595.69</ele>
  <time>2026-08-27T18:28:53Z</time>
  <course>8.56</course>
  <speed>0.44944410108488464</speed>
  <fix>3d</fix>
</trkpt>
<trkpt lat="40.0728271" lon="-105.2306502">
  <ele>1595.64</ele>
  <time>2026-08-27T18:28:53Z</time>
  <course>345.59</course>
  <speed>0.62</speed>
  <fix>3d</fix>
</trkpt>
<trkpt lat="40.0728282" lon="-105.2306507">
  <ele>1595.7</ele>
  <time>2026-08-27T18:28:53Z</time>
  <course>8.64</course>
  <speed>0.26248809496813374</speed>
  <fix>3d</fix>
</trkpt>
<trkpt lat="40.072828" lon="-105.2306505">
  <ele>1595.64</ele>
  <time>2026-08-27T18:28:53Z</time>
  <course>333.04</course>
  <speed>0.43</speed>
  <fix>3d</fix>
</trkpt>
<trkpt lat="40.0728283" lon="-105.2306512">
  <ele>1595.7</ele>
  <time>2026-08-27T18:28:53Z</time>
  <course>8.67</course>
  <speed>0.2340939982143925</speed>
  <fix>3d</fix>
</trkpt>
<trkpt lat="40.0728285" lon="-105.230651">
  <ele>1595.65</ele>
  <time>2026-08-27T18:28:53Z</time>
  <course>301.26</course>
  <speed>0.26</speed>
  <fix>3d</fix>
</trkpt>
<trkpt lat="40.072828" lon="-105.2306518">
  <ele>1595.7</ele>
  <time>2026-08-27T18:28:53Z</time>
  <course>8.67</course>
  <speed>0.4049691346263317</speed>
  <fix>3d</fix>
</trkpt>
<trkpt lat="40.0728285" lon="-105.2306516">
  <ele>1595.64</ele>
  <time>2026-08-27T18:28:53Z</time>
  <course>240.86</course>
  <speed>0.26</speed>
  <fix>3d</fix>
</trkpt>
<trkpt lat="40.0728273" lon="-105.2306523">
  <ele>1595.69</ele>
  <time>2026-08-27T18:28:53Z</time>
  <course>8.64</course>
  <speed>0.5946427498927402</speed>
  <fix>3d</fix>
</trkpt>
<trkpt lat="40.072828" lon="-105.2306521">
  <ele>1595.64</ele>
  <time>2026-08-27T18:28:53Z</time>
  <course>210.0</course>
  <speed>0.43</speed>
  <fix>3d</fix>
</trkpt>
<trkpt lat="40.0728262" lon="-105.2306528">
  <ele>1595.69</ele>
  <time>2026-08-27T18:28:53Z</time>
  <course>8.6</course>
  <speed>0.7473285756613351</speed>
  <fix>3d</fix>
</trkpt>
<trkpt lat="40.0728272" lon="-105.2306526">
  <ele>1595.63</ele>
  <time>2026-08-27T18:28:53Z</time>
  <course>197.62</course>
  <speed>0.62</speed>
  <fix>3d</fix>
</trkpt>
<trkpt lat="40.0728249" lon="-105.2306531">
  <ele>1595.69</ele>
  <time>2026-08-27T18:28:53Z</time>
  <course>8.59</course>
  <speed>0.8360023923410747</speed>
  <fix>3d</fix>
</trkpt>
<trkpt lat="40.072826" lon="-105.230653">
  <ele>1595.63</ele>
  <time>2026-08-27T18:28:53Z</time>
  <course>190.69</course>
  <speed>0.75</speed>
  <fix>3d</fix>
</trkpt>
<trkpt lat="40.0728235" lon="-105.2306533">
  <ele>1595.69</ele>
  <time>2026-08-27T18:28:53Z</time>
  <course>8.59</course>
  <speed>0.840535543567314</speed>
  <fix>3d</fix>
</trkpt>
<trkpt lat="40.0728246" lon="-105.2306533">
  <ele>1595.62</ele>
  <time>2026-08-27T18:28:53Z</time>
  <course>185.62</course>
  <speed>0.82</speed>
  <fix>3d</fix>
</trkpt>
<trkpt lat="40.0728221" lon="-105.2306533">
  <ele>1595.69</ele>
  <time>2026-08-27T18:28:53Z</time>
  <course>8.65</course>
  <speed>0.7705841939723393</speed>
  <fix>3d</fix>
</trkpt>
<trkpt lat="40.0728231" lon="-105.2306534">
  <ele>1595.62</ele>
  <time>2026-08-27T18:28:53Z</time>
  <course>181.06</course>
  <speed>0.81</speed>
  <fix>3d</fix>
</trkpt>
<trkpt lat="40.0728208" lon="-105.2306532">
  <ele>1595.69</ele>
  <time>2026-08-27T18:28:53Z</time>
  <course>8.65</course>
  <speed>0.6280127387243033</speed>
  <fix>3d</fix>
</trkpt>
<trkpt lat="40.0728217" lon="-105.2306533">
  <ele>1595.62</ele>
  <time>2026-08-27T18:28:53Z</time>
  <course>176.05</course>
  <speed>0.73</speed>
  <fix>3d</fix>
</trkpt>
<trkpt lat="40.0728199" lon="-105.2306529">
  <ele>1595.69</ele>
  <time>2026-08-27T18:28:53Z</time>
  <course>8.67</course>
  <speed>0.44011362169330775</speed>
  <fix>3d</fix>
</trkpt>
<trkpt lat="40.0728206" lon="-105.2306532">
  <ele>1595.62</ele>
  <time>2026-08-27T18:28:53Z</time>
  <course>169.14</course>
  <speed>0.58</speed>
  <fix>3d</fix>
</trkpt>
<trkpt lat="40.0728194" lon="-105.2306525">
  <ele>1595.68</ele>
  <time>2026-08-27T18:28:53Z</time>
  <course>8.66</course>
  <speed>0.25612496949731395</speed>
  <fix>3d</fix>
</trkpt>
<trkpt lat="40.0728197" lon="-105.2306529">
  <ele>1595.61</ele>
  <time>2026-08-27T18:28:53Z</time>
  <course>156.17</course>
  <speed>0.38</speed>
  <fix>3d</fix>
</trkpt>
<trkpt lat="40.0728193" lon="-105.230652">
  <ele>1595.68</ele>
  <time>2026-08-27T18:28:53Z</time>
  <course>8.58</course>
  <speed>0.23769728648009425</speed>
  <fix>3d</fix>
</trkpt>
<trkpt lat="40.0728193" lon="-105.2306526">
  <ele>1595.61</ele>
  <time>2026-08-27T18:28:53Z</time>
  <course>117.8</course>
  <speed>0.2</speed>
  <fix>3d</fix>
</trkpt>
<trkpt lat="40.0728197" lon="-105.2306516">
  <ele>1595.68</ele>
  <time>2026-08-27T18:28:53Z</time>
  <course>8.54</course>
  <speed>0.41340053217188777</speed>
  <fix>3d</fix>
</trkpt>
<trkpt lat="40.0728193" lon="-105.2306521">
  <ele>1595.6</ele>
  <time>2026-08-27T18:28:53Z</time>
  <course>48.81</course>
  <speed>0.25</speed>
  <fix>3d</fix>
</trkpt>
<trkpt lat="40.0728204" lon="-105.2306511">
  <ele>1595.67</ele>
  <time>2026-08-27T18:28:53Z</time>
  <course>8.44</course>
  <speed>0.6135144660071187</speed>
  <fix>3d</fix>
</trkpt>
<trkpt lat="40.0728198" lon="-105.2306517">
  <ele>1595.6</ele>
  <time>2026-08-27T18:28:53Z</time>
  <course>23.23</course>
  <speed>0.45</speed>
  <fix>3d</fix>
</trkpt>
<trkpt lat="40.0728216" lon="-105.2306508">
  <ele>1595.67</ele>
  <time>2026-08-27T18:28:53Z</time>
  <course>8.38</course>
  <speed>0.7550496672405067</speed>
  <fix>3d</fix>
</trkpt>
<trkpt lat="40.0728207" lon="-105.2306512">
  <ele>1595.59</ele>
  <time>2026-08-27T18:28:53Z</time>
  <course>13.14</course>
  <speed>0.65</speed>
  <fix>3d</fix>
</trkpt>
<trkpt lat="40.072823" lon="-105.2306506">
  <ele>1595.67</ele>
  <time>2026-08-27T18:28:53Z</time>
  <course>8.36</course>
  <speed>0.8448076704197234</speed>
  <fix>3d</fix>
</trkpt>
<trkpt lat="40.072822" lon="-105.230651">
  <ele>1595.59</ele>
  <time>2026-08-27T18:28:53Z</time>
  <course>7.14</course>
  <speed>0.79</speed>
  <fix>3d</fix>
</trkpt>
<trkpt lat="40.0728246" lon="-105.2306505">
  <ele>1595.67</ele>
  <time>2026-08-27T18:28:53Z</time>
  <course>8.39</course>
  <speed>0.8502352615599991</speed>
  <fix>3d</fix>
</trkpt>
<trkpt lat="40.0728235" lon="-105.2306508">
  <ele>1595.59</ele>
  <time>2026-08-27T18:28:53Z</time>
  <course>2.48</course>
  <speed>0.86</speed>
  <fix>3d</fix>
</trkpt>
<trkpt lat="40.072826" lon="-105.2306506">
  <ele>1595.68</ele>
  <time>2026-08-27T18:28:53Z</time>
  <course>8.46</course>
  <speed>0.7810249675906654</speed>
  <fix>3d</fix>
</trkpt>
<trkpt lat="40.0728251" lon="-105.2306508">
  <ele>1595.59</ele>
  <time>2026-08-27T18:28:53Z</time>
  <course>358.05</course>
  <speed>0.86</speed>
  <fix>3d</fix>
</trkpt>
<trkpt lat="40.0728273" lon="-105.2306508">
  <ele>1595.68</ele>
  <time>2026-08-27T18:28:53Z</time>
  <course>8.52</course>
  <speed>0.6493843238021688</speed>
  <fix>3d</fix>
</trkpt>
<trkpt lat="40.0728266" lon="-105.2306509">
  <ele>1595.59</ele>
  <time>2026-08-27T18:28:53Z</time>
  <course>353.01</course>
  <speed>0.78</speed>
  <fix>3d</fix>
</trkpt>
<trkpt lat="40.0728283" lon="-105.2306512">
  <ele>1595.69</ele>
  <time>2026-08-27T18:28:53Z</time>
  <course>8.63</course>
  <speed>0.45880278987817846</speed>
  <fix>3d</fix>
</trkpt>
<trkpt lat="40.0728278" lon="-105.2306512">
  <ele>1595.59</ele>
  <time>2026-08-27T18:28:53Z</time>
  <course>346.02</course>
  <speed>0.63</speed>
  <fix>3d</fix>
</trkpt>
<trkpt lat="40.0728289" lon="-105.2306517">
  <ele>1595.69</ele>
  <time>2026-08-27T18:28:53Z</time>
  <course>8.67</course>
  <speed>0.2765863337187866</speed>
  <fix>3d</fix>
</trkpt>
<trkpt lat="40.0728287" lon="-105.2306515">
  <ele>1595.6</ele>
  <time>2026-08-27T18:28:53Z</time>
  <course>333.53</course>
  <speed>0.44</speed>
  <fix>3d</fix>
</trkpt>
<trkpt lat="40.0728291" lon="-105.2306522">
  <ele>1595.68</ele>
  <time>2026-08-27T18:28:53Z</time>
  <course>8.66</course>
  <speed>0.24351591323771843</speed>
  <fix>3d</fix>
</trkpt>
<trkpt lat="40.0728292" lon="-105.230652">
  <ele>1595.59</ele>
  <time>2026-08-27T18:28:53Z</time>
  <course>302.59</course>
  <speed>0.26</speed>
  <fix>3d</fix>
</trkpt>
<trkpt lat="40.0728287" lon="-105.2306528">
  <ele>1595.68</ele>
  <time>2026-08-27T18:28:53Z</time>
  <course>8.65</course>
  <speed>0.41048751503547587</speed>
  <fix>3d</fix>
</trkpt>
<trkpt lat="40.0728292" lon="-105.2306526">
  <ele>1595.59</ele>
  <time>2026-08-27T18:28:53Z</time>
  <course>242.81</course>
  <speed>0.26</speed>
  <fix>3d</fix>
</trkpt>
<trkpt lat="40.072828" lon="-105.2306534">
  <ele>1595.68</ele>
  <time>2026-08-27T18:28:53Z</time>
  <course>8.59</course>
  <speed>0.5946427498927402</speed>
  <fix>3d</fix>
</trkpt>
<trkpt lat="40.0728289" lon="-105.2306531">
  <ele>1595.58</ele>
  <time>2026-08-27T18:28:53Z</time>
  <course>210.99</course>
  <speed>0.43</speed>
  <fix>3d</fix>
</trkpt>
<trkpt lat="40.072827" lon="-105.2306538">
  <ele>1595.67</ele>
  <time>2026-08-27T18:28:53Z</time>
  <course>8.58</course>
  <speed>0.7473285756613351</speed>
  <fix>3d</fix>
</trkpt>
<trkpt lat="40.072828" lon="-105.2306536">
  <ele>1595.58</ele>
  <time>2026-08-27T18:28:53Z</time>
  <course>198.2</course>
  <speed>0.61</speed>
  <fix>3d</fix>
</trkpt>
<trkpt lat="40.0728256" lon="-105.2306541">
  <ele>1595.67</ele>
  <time>2026-08-27T18:28:53Z</time>
  <course>8.56</course>
  <speed>0.8360023923410747</speed>
  <fix>3d</fix>
</trkpt>
<trkpt lat="40.0728268" lon="-105.230654">
  <ele>1595.58</ele>
  <time>2026-08-27T18:28:53Z</time>
  <course>191.07</course>
  <speed>0.75</speed>
  <fix>3d</fix>
</trkpt>
<trkpt lat="40.0728242" lon="-105.2306543">
  <ele>1595.67</ele>
  <time>2026-08-27T18:28:53Z</time>
  <course>8.57</course>
  <speed>0.8409518416651456</speed>
  <fix>3d</fix>
</trkpt>
<trkpt lat="40.0728254" lon="-105.2306543">
  <ele>1595.57</ele>
  <time>2026-08-27T18:28:53Z</time>
  <course>185.88</course>
  <speed>0.82</speed>
  <fix>3d</fix>
</trkpt>
<trkpt lat="40.0728228" lon="-105.2306543">
  <ele>1595.68</ele>
  <time>2026-08-27T18:28:53Z</time>
  <course>8.58</course>
  <speed>0.7705841939723393</speed>
  <fix>3d</fix>
</trkpt>
<trkpt lat="40.072824" lon="-105.2306544">
  <ele>1595.57</ele>
  <time>2026-08-27T18:28:53Z</time>
  <course>181.24</course>
  <speed>0.81</speed>
  <fix>3d</fix>
</trkpt>
<trkpt lat="40.0728216" lon="-105.2306542">
  <ele>1595.68</ele>
  <time>2026-08-27T18:28:53Z</time>
  <course>8.63</course>
  <speed>0.6378871373526824</speed>
  <fix>3d</fix>
</trkpt>
<trkpt lat="40.0728225" lon="-105.2306544">
  <ele>1595.57</ele>
  <time>2026-08-27T18:28:53Z</time>
  <course>176.14</course>
  <speed>0.73</speed>
  <fix>3d</fix>
</trkpt>
<trkpt lat="40.0728207" lon="-105.230654">
  <ele>1595.68</ele>
  <time>2026-08-27T18:28:53Z</time>
  <course>8.63</course>
  <speed>0.44944410108488464</speed>
  <fix>3d</fix>
</trkpt>
<trkpt lat="40.0728213" lon="-105.2306543">
  <ele>1595.58</ele>
  <time>2026-08-27T18:28:53Z</time>
  <course>169.1</course>
  <speed>0.57</speed>
  <fix>3d</fix>
</trkpt>
<trkpt lat="40.0728201" lon="-105.2306535">
  <ele>1595.68</ele>
  <time>2026-08-27T18:28:53Z</time>
  <course>8.6</course>
  <speed>0.26248809496813374</speed>
  <fix>3d</fix>
</trkpt>
<trkpt lat="40.0728206" lon="-105.2306539">
  <ele>1595.58</ele>
  <time>2026-08-27T18:28:53Z</time>
  <course>155.88</course>
  <speed>0.38</speed>
  <fix>3d</fix>
</trkpt>
<trkpt lat="40.0728201" lon="-105.2306531">
  <ele>1595.68</ele>
  <time>2026-08-27T18:28:53Z</time>
  <course>8.58</course>
  <speed>0.23769728648009425</speed>
  <fix>3d</fix>
</trkpt>
<trkpt lat="40.0728201" lon="-105.2306536">
  <ele>1595.58</ele>
  <time>2026-08-27T18:28:53Z</time>
  <course>117.21</course>
  <speed>0.21</speed>
  <fix>3d</fix>
</trkpt>
<trkpt lat="40.0728205" lon="-105.2306526">
  <ele>1595.67</ele>
  <time>2026-08-27T18:28:53Z</time>
  <course>8.55</course>
  <speed>0.41340053217188777</speed>
  <fix>3d</fix>
</trkpt>
<trkpt lat="40.0728201" lon="-105.2306531">
  <ele>1595.57</ele>
  <time>2026-08-27T18:28:53Z</time>
  <course>48.86</course>
  <speed>0.26</speed>
  <fix>3d</fix>
</trkpt>
<trkpt lat="40.0728213" lon="-105.2306521">
  <ele>1595.67</ele>
  <time>2026-08-27T18:28:53Z</time>
  <course>8.46</course>
  <speed>0.6040695324215583</speed>
  <fix>3d</fix>
</trkpt>
<trkpt lat="40.0728206" lon="-105.2306526">
  <ele>1595.57</ele>
  <time>2026-08-27T18:28:53Z</time>
  <course>23.38</course>
  <speed>0.46</speed>
  <fix>3d</fix>
</trkpt>
<trkpt lat="40.0728224" lon="-105.2306518">
  <ele>1595.66</ele>
  <time>2026-08-27T18:28:53Z</time>
  <course>8.39</course>
  <speed>0.7550496672405067</speed>
  <fix>3d</fix>
</trkpt>
<trkpt lat="40.0728216" lon="-105.2306523">
  <ele>1595.56</ele>
  <time>2026-08-27T18:28:53Z</time>
  <course>13.3</course>
  <speed>0.65</speed>
  <fix>3d</fix>
</trkpt>
<trkpt lat="40.0728238" lon="-105.2306516">
  <ele>1595.66</ele>
  <time>2026-08-27T18:28:53Z</time>
  <course>8.37</course>
  <speed>0.8448076704197234</speed>
  <fix>3d</fix>
</trkpt>
<trkpt lat="40.0728229" lon="-105.2306519">
  <ele>1595.56</ele>
  <time>2026-08-27T18:28:53Z</time>
  <course>7.28</course>
  <speed>0.8</speed>
  <fix>3d</fix>
</trkpt>
<trkpt lat="40.0728253" lon="-105.2306515">
  <ele>1595.66</ele>
  <time>2026-08-27T18:28:53Z</time>
  <course>8.36</course>
  <speed>0.8505292469985968</speed>
  <fix>3d</fix>
</trkpt>
<trkpt lat="40.0728244" lon="-105.2306518">
  <ele>1595.56</ele>
  <time>2026-08-27T18:28:53Z</time>
  <course>2.6</course>
  <speed>0.87</speed>
  <fix>3d</fix>
</trkpt>
<trkpt lat="40.0728268" lon="-105.2306516">
  <ele>1595.66</ele>
  <time>2026-08-27T18:28:53Z</time>
  <course>8.41</course>
  <speed>0.7810249675906654</speed>
  <fix>3d</fix>
</trkpt>
<trkpt lat="40.072826" lon="-105.2306518">
  <ele>1595.56</ele>
  <time>2026-08-27T18:28:53Z</time>
  <course>358.17</course>
  <speed>0.87</speed>
  <fix>3d</fix>
</trkpt>
<trkpt lat="40.0728282" lon="-105.2306518">
  <ele>1595.67</ele>
  <time>2026-08-27T18:28:53Z</time>
  <course>8.5</course>
  <speed>0.6493843238021688</speed>
  <fix>3d</fix>
</trkpt>
<trkpt lat="40.0728275" lon="-105.2306519">
  <ele>1595.56</ele>
  <time>2026-08-27T18:28:53Z</time>
  <course>353.16</course>
  <speed>0.78</speed>
  <fix>3d</fix>
</trkpt>
<trkpt lat="40.0728292" lon="-105.2306521">
  <ele>1595.67</ele>
  <time>2026-08-27T18:28:53Z</time>
  <course>8.56</course>
  <speed>0.45880278987817846</speed>
  <fix>3d</fix>
</trkpt>
<trkpt lat="40.0728288" lon="-105.2306522">
  <ele>1595.57</ele>
  <time>2026-08-27T18:28:53Z</time>
  <course>346.21</course>
  <speed>0.64</speed>
  <fix>3d</fix>
</trkpt>
<trkpt lat="40.0728298" lon="-105.2306527">
  <ele>1595.67</ele>
  <time>2026-08-27T18:28:53Z</time>
  <course>8.61</course>
  <speed>0.2765863337187866</speed>
  <fix>3d</fix>
</trkpt>
<trkpt lat="40.0728297" lon="-105.2306526">
  <ele>1595.57</ele>
  <time>2026-08-27T18:28:53Z</time>
  <course>333.84</course>
  <speed>0.45</speed>
  <fix>3d</fix>
</trkpt>
<trkpt lat="40.07283" lon="-105.2306532">
  <ele>1595.67</ele>
  <time>2026-08-27T18:28:53Z</time>
  <course>8.63</course>
  <speed>0.24041630560342614</speed>
  <fix>3d</fix>
</trkpt>
<trkpt lat="40.0728302" lon="-105.2306531">
  <ele>1595.58</ele>
  <time>2026-08-27T18:28:53Z</time>
  <course>303.48</course>
  <speed>0.27</speed>
  <fix>3d</fix>
</trkpt>
<trkpt lat="40.0728297" lon="-105.2306538">
  <ele>1595.67</ele>
  <time>2026-08-27T18:28:53Z</time>
  <course>8.61</course>
  <speed>0.4022437072223753</speed>
  <fix>3d</fix>
</trkpt>
<trkpt lat="40.0728303" lon="-105.2306536">
  <ele>1595.58</ele>
  <time>2026-08-27T18:28:53Z</time>
  <course>244.0</course>
  <speed>0.26</speed>
  <fix>3d</fix>
</trkpt>
<trkpt lat="40.0728289" lon="-105.2306544">
  <ele>1595.67</ele>
  <time>2026-08-27T18:28:53Z</time>
  <course>8.58</course>
  <speed>0.5980802621722272</speed>
  <fix>3d</fix>
</trkpt>
<trkpt lat="40.0728299" lon="-105.2306542">
  <ele>1595.58</ele>
  <time>2026-08-27T18:28:53Z</time>
  <course>211.49</course>
  <speed>0.43</speed>
  <fix>3d</fix>
</trkpt>
<trkpt lat="40.072828" lon="-105.2306548">
  <ele>1595.67</ele>
  <time>2026-08-27T18:28:53Z</time>
  <course>8.58</course>
  <speed>0.7495331880577403</speed>
  <fix>3d</fix>
</trkpt>
<trkpt lat="40.0728291" lon="-105.2306547">
  <ele>1595.57</ele>
  <time>2026-08-27T18:28:53Z</time>
  <course>198.48</course>
  <speed>0.61</speed>
  <fix>3d</fix>
</trkpt>
<trkpt lat="40.0728266" lon="-105.2306552">
  <ele>1595.67</ele>
  <time>2026-08-27T18:28:53Z</time>
  <course>8.59</course>
  <speed>0.8273451516749222</speed>
  <fix>3d</fix>
</trkpt>
<trkpt lat="40.0728279" lon="-105.230655">
  <ele>1595.57</ele>
  <time>2026-08-27T18:28:53Z</time>
  <course>191.27</course>
  <speed>0.75</speed>
  <fix>3d</fix>
</trkpt>
<trkpt lat="40.0728252" lon="-105.2306554">
  <ele>1595.67</ele>
  <time>2026-08-27T18:28:53Z</time>
  <course>8.57</course>
  <speed>0.8409518416651456</speed>
  <fix>3d</fix>
</trkpt>
<trkpt lat="40.0728264" lon="-105.2306553">
  <ele>1595.57</ele>
  <time>2026-08-27T18:28:53Z</time>
  <course>186.04</course>
  <speed>0.82</speed>
  <fix>3d</fix>
</trkpt>
<trkpt lat="40.0728238" lon="-105.2306554">
  <ele>1595.68</ele>
  <time>2026-08-27T18:28:53Z</time>
  <course>8.59</course>
  <speed>0.7705841939723393</speed>
  <fix>3d</fix>
</trkpt>
<trkpt lat="40.0728249" lon="-105.2306555">
  <ele>1595.57</ele>
  <time>2026-08-27T18:28:53Z</time>
  <course>181.36</course>
  <speed>0.81</speed>
  <fix>3d</fix>
</trkpt>
<trkpt lat="40.0728226" lon="-105.2306552">
  <ele>1595.68</ele>
  <time>2026-08-27T18:28:53Z</time>
  <course>8.64</course>
  <speed>0.6264982043070834</speed>
  <fix>3d</fix>
</trkpt>
<trkpt lat="40.0728236" lon="-105.2306554">
  <ele>1595.58</ele>
  <time>2026-08-27T18:28:53Z</time>
  <course>176.27</course>
  <speed>0.73</speed>
  <fix>3d</fix>
</trkpt>
<trkpt lat="40.0728217" lon="-105.230655">
  <ele>1595.68</ele>
  <time>2026-08-27T18:28:53Z</time>
  <course>8.63</course>
  <speed>0.4459820624195552</speed>
  <fix>3d</fix>
</trkpt>
<trkpt lat="40.0728224" lon="-105.2306553">
  <ele>1595.58</ele>
  <time>2026-08-27T18:28:53Z</time>
  <course>169.28</course>
  <speed>0.58</speed>
  <fix>3d</fix>
</trkpt>
<trkpt lat="40.0728212" lon="-105.2306546">
  <ele>1595.68</ele>
  <time>2026-08-27T18:28:53Z</time>
  <course>8.64</course>
  <speed>0.26248809496813374</speed>
  <fix>3d</fix>
</trkpt>
<trkpt lat="40.0728216" lon="-105.230655">
  <ele>1595.58</ele>
  <time>2026-08-27T18:28:53Z</time>
  <course>156.18</course>
  <speed>0.38</speed>
  <fix>3d</fix>
</trkpt>
<trkpt lat="40.0728211" lon="-105.2306541">
  <ele>1595.67</ele>
  <time>2026-08-27T18:28:53Z</time>
  <course>8.59</course>
  <speed>0.23769728648009425</speed>
  <fix>3d</fix>
</trkpt>
<trkpt lat="40.0728212" lon="-105.2306546">
  <ele>1595.58</ele>
  <time>2026-08-27T18:28:53Z</time>
  <course>117.9</course>
  <speed>0.21</speed>
  <fix>3d</fix>
</trkpt>
<trkpt lat="40.0728215" lon="-105.2306537">
  <ele>1595.66</ele>
  <time>2026-08-27T18:28:53Z</time>
  <course>8.52</course>
  <speed>0.41340053217188777</speed>
  <fix>3d</fix>
</trkpt>
<trkpt lat="40.0728212" lon="-105.2306542">
  <ele>1595.57</ele>
  <time>2026-08-27T18:28:53Z</time>
  <course>49.33</course>
  <speed>0.25</speed>
  <fix>3d</fix>
</trkpt>
<trkpt lat="40.0728224" lon="-105.2306532">
  <ele>1595.66</ele>
  <time>2026-08-27T18:28:53Z</time>
  <course>8.42</course>
  <speed>0.6135144660071187</speed>
  <fix>3d</fix>
</trkpt>
<trkpt lat="40.0728217" lon="-105.2306537">
  <ele>1595.57</ele>
  <time>2026-08-27T18:28:53Z</time>
  <course>23.55</course>
  <speed>0.45</speed>
  <fix>3d</fix>
</trkpt>
<trkpt lat="40.0728235" lon="-105.2306529">
  <ele>1595.66</ele>
  <time>2026-08-27T18:28:53Z</time>
  <course>8.38</course>
  <speed>0.7550496672405067</speed>
  <fix>3d</fix>
</trkpt>
<trkpt lat="40.0728226" lon="-105.2306533">
  <ele>1595.57</ele>
  <time>2026-08-27T18:28:53Z</time>
  <course>13.34</course>
  <speed>0.65</speed>
  <fix>3d</fix>
</trkpt>
<trkpt lat="40.0728249" lon="-105.2306526">
  <ele>1595.66</ele>
  <time>2026-08-27T18:28:53Z</time>
  <course>8.36</course>
  <speed>0.8448076704197234</speed>
  <fix>3d</fix>
</trkpt>
<trkpt lat="40.0728238" lon="-105.230653">
  <ele>1595.57</ele>
  <time>2026-08-27T18:28:53Z</time>
  <course>7.27</course>
  <speed>0.79</speed>
  <fix>3d</fix>
</trkpt>
<trkpt lat="40.0728264" lon="-105.2306526">
  <ele>1595.66</ele>
  <time>2026-08-27T18:28:53Z</time>
  <course>8.37</course>
  <speed>0.8502352615599991</speed>
  <fix>3d</fix>
</trkpt>
<trkpt lat="40.0728254" lon="-105.2306529">
  <ele>1595.57</ele>
  <time>2026-08-27T18:28:53Z</time>
  <course>2.57</course>
  <speed>0.86</speed>
  <fix>3d</fix>
</trkpt>
<trkpt lat="40.0728279" lon="-105.2306527">
  <ele>1595.66</ele>
  <time>2026-08-27T18:28:53Z</time>
  <course>8.43</course>
  <speed>0.7810249675906654</speed>
  <fix>3d</fix>
</trkpt>
<trkpt lat="40.072827" lon="-105.2306529">
  <ele>1595.57</ele>
  <time>2026-08-27T18:28:53Z</time>
  <course>358.13</course>
  <speed>0.86</speed>
  <fix>3d</fix>
</trkpt>
<trkpt lat="40.0728292" lon="-105.2306529">
  <ele>1595.67</ele>
  <time>2026-08-27T18:28:53Z</time>
  <course>8.5</course>
  <speed>0.6493843238021688</speed>
  <fix>3d</fix>
</trkpt>
<trkpt lat="40.0728285" lon="-105.2306529">
  <ele>1595.57</ele>
  <time>2026-08-27T18:28:53Z</time>
  <course>353.09</course>
  <speed>0.78</speed>
  <fix>3d</fix>
</trkpt>
<trkpt lat="40.0728302" lon="-105.2306532">
  <ele>1595.67</ele>
  <time>2026-08-27T18:28:53Z</time>
  <course>8.58</course>
  <speed>0.45880278987817846</speed>
  <fix>3d</fix>
</trkpt>
<trkpt lat="40.0728297" lon="-105.2306531">
  <ele>1595.58</ele>
  <time>2026-08-27T18:28:53Z</time>
  <course>346.09</course>
  <speed>0.63</speed>
  <fix>3d</fix>
</trkpt>
<trkpt lat="40.0728308" lon="-105.2306537">
  <ele>1595.68</ele>
  <time>2026-08-27T18:28:53Z</time>
  <course>8.61</course>
  <speed>0.2690724809414742</speed>
  <fix>3d</fix>
</trkpt>
<trkpt lat="40.0728306" lon="-105.2306536">
  <ele>1595.58</ele>
  <time>2026-08-27T18:28:53Z</time>
  <course>333.54</course>
  <speed>0.44</speed>
  <fix>3d</fix>
</trkpt>
<trkpt lat="40.0728309" lon="-105.2306543">
  <ele>1595.68</ele>
  <time>2026-08-27T18:28:53Z</time>
  <course>8.64</course>
  <speed>0.24351591323771843</speed>
  <fix>3d</fix>
</trkpt>
<trkpt lat="40.0728311" lon="-105.2306541">
  <ele>1595.59</ele>
  <time>2026-08-27T18:28:53Z</time>
  <course>302.55</course>
  <speed>0.27</speed>
  <fix>3d</fix>
</trkpt>
<trkpt lat="40.0728306" lon="-105.2306548">
  <ele>1595.69</ele>
  <time>2026-08-27T18:28:53Z</time>
  <course>8.65</course>
  <speed>0.4022437072223753</speed>
  <fix>3d</fix>
</trkpt>
<trkpt lat="40.0728311" lon="-105.2306547">
  <ele>1595.59</ele>
  <time>2026-08-27T18:28:53Z</time>
  <course>243.09</course>
  <speed>0.26</speed>
  <fix>3d</fix>
</trkpt>
<trkpt lat="40.0728299" lon="-105.2306554">
  <ele>1595.69</ele>
  <time>2026-08-27T18:28:53Z</time>
  <course>8.61</course>
  <speed>0.5980802621722272</speed>
  <fix>3d</fix>
</trkpt>
<trkpt lat="40.0728307" lon="-105.2306552">
  <ele>1595.58</ele>
  <time>2026-08-27T18:28:53Z</time>
  <course>211.21</course>
  <speed>0.43</speed>
  <fix>3d</fix>
</trkpt>
<trkpt lat="40.0728289" lon="-105.2306559">
  <ele>1595.68</ele>
  <time>2026-08-27T18:28:53Z</time>
  <course>8.6</course>
  <speed>0.7473285756613351</speed>
  <fix>3d</fix>
</trkpt>
<trkpt lat="40.0728299" lon="-105.2306557">
  <ele>1595.58</ele>
  <time>2026-08-27T18:28:53Z</time>
  <course>198.38</course>
  <speed>0.61</speed>
  <fix>3d</fix>
</trkpt>
<trkpt lat="40.0728275" lon="-105.2306562">
  <ele>1595.68</ele>
  <time>2026-08-27T18:28:53Z</time>
  <course>8.59</course>
  <speed>0.8273451516749222</speed>
  <fix>3d</fix>
</trkpt>
<trkpt lat="40.0728287" lon="-105.2306561">
  <ele>1595.58</ele>
  <time>2026-08-27T18:28:53Z</time>
  <course>191.23</course>
  <speed>0.75</speed>
  <fix>3d</fix>
</trkpt>
<trkpt lat="40.0728261" lon="-105.2306564">
  <ele>1595.67</ele>
  <time>2026-08-27T18:28:53Z</time>
  <course>8.59</course>
  <speed>0.8409518416651456</speed>
  <fix>3d</fix>
</trkpt>
<trkpt lat="40.0728273" lon="-105.2306563">
  <ele>1595.57</ele>
  <time>2026-08-27T18:28:53Z</time>
  <course>186.03</course>
  <speed>0.82</speed>
  <fix>3d</fix>
</trkpt>
<trkpt lat="40.0728247" lon="-105.2306564">
  <ele>1595.67</ele>
  <time>2026-08-27T18:28:53Z</time>
  <course>8.57</course>
  <speed>0.7705841939723393</speed>
  <fix>3d</fix>
</trkpt>
<trkpt lat="40.0728258" lon="-105.2306565">
  <ele>1595.57</ele>
  <time>2026-08-27T18:28:53Z</time>
  <course>181.35</course>
  <speed>0.81</speed>
  <fix>3d</fix>
</trkpt>
<trkpt lat="40.0728235" lon="-105.2306562">
  <ele>1595.67</ele>
  <time>2026-08-27T18:28:53Z</time>
  <course>8.6</course>
  <speed>0.6280127387243033</speed>
  <fix>3d</fix>
</trkpt>
<trkpt lat="40.0728244" lon="-105.2306565">
  <ele>1595.57</ele>
  <time>2026-08-27T18:28:53Z</time>
  <course>176.24</course>
  <speed>0.73</speed>
  <fix>3d</fix>
</trkpt>
<trkpt lat="40.0728226" lon="-105.230656">
  <ele>1595.68</ele>
  <time>2026-08-27T18:28:53Z</time>
  <course>8.62</course>
  <speed>0.44944410108488464</speed>
  <fix>3d</fix>
</trkpt>
<trkpt lat="40.0728232" lon="-105.2306563">
  <ele>1595.57</ele>
  <time>2026-08-27T18:28:53Z</time>
  <course>169.24</course>
  <speed>0.58</speed>
  <fix>3d</fix>
</trkpt>
<trkpt lat="40.072822" lon="-105.2306556">
  <ele>1595.68</ele>
  <time>2026-08-27T18:28:53Z</time>
  <course>8.62</course>
  <speed>0.26248809496813374</speed>
  <fix>3d</fix>
</trkpt>
<trkpt lat="40.0728224" lon="-105.2306561">
  <ele>1595.58</ele>
  <time>2026-08-27T18:28:53Z</time>
  <course>156.14</course>
  <speed>0.38</speed>
  <fix>3d</fix>
</trkpt>
<trkpt lat="40.072822" lon="-105.2306552">
  <ele>1595.68</ele>
  <time>2026-08-27T18:28:53Z</time>
  <course>8.58</course>
  <speed>0.23769728648009425</speed>
  <fix>3d</fix>
</trkpt>
<trkpt lat="40.072822" lon="-105.2306557">
  <ele>1595.58</ele>
  <time>2026-08-27T18:28:53Z</time>
  <course>117.98</course>
  <speed>0.21</speed>
  <fix>3d</fix>
</trkpt>
<trkpt lat="40.0728223" lon="-105.2306547">
  <ele>1595.68</ele>
  <time>2026-08-27T18:28:53Z</time>
  <course>8.49</course>
  <speed>0.3420526275297414</speed>
  <fix>3d</fix>
</trkpt>
<trkpt lat="40.072822" lon="-105.2306552">
  <ele>1595.57</ele>
  <time>2026-08-27T18:28:53Z</time>
  <course>53.9</course>
  <speed>0.24</speed>
  <fix>3d</fix>
</trkpt>
<trkpt lat="40.0728229" lon="-105.2306543">
  <ele>1595.68</ele>
  <time>2026-08-27T18:28:53Z</time>
  <course>8.5</course>
  <speed>0.3716180835212409</speed>
  <fix>3d</fix>
</trkpt>
<trkpt lat="40.0728223" lon="-105.2306548">
  <ele>1595.57</ele>
  <time>2026-08-27T18:28:53Z</time>
  <course>29.26</course>
  <speed>0.34</speed>
  <fix>3d</fix>
</trkpt>
<trkpt lat="40.0728234" lon="-105.2306541">
  <ele>1595.67</ele>
  <time>2026-08-27T18:28:53Z</time>
  <course>8.56</course>
  <speed>0.383275357934736</speed>
  <fix>3d</fix>
</trkpt>
<trkpt lat="40.072823" lon="-105.2306544">
  <ele>1595.57</ele>
  <time>2026-08-27T18:28:53Z</time>
  <course>17.1</course>
  <speed>0.38</speed>
  <fix>3d</fix>
</trkpt>
<trkpt lat="40.0728241" lon="-105.2306539">
  <ele>1595.67</ele>
  <time>2026-08-27T18:28:53Z</time>
  <course>8.59</course>
  <speed>0.3649657518178932</speed>
  <fix>3d</fix>
</trkpt>
<trkpt lat="40.0728237" lon="-105.2306543">
  <ele>1595.56</ele>
  <time>2026-08-27T18:28:53Z</time>
  <course>9.28</course>
  <speed>0.39</speed>
  <fix>3d</fix>
</trkpt>
<trkpt lat="40.0728247" lon="-105.2306539">
  <ele>1595.67</ele>
  <time>2026-08-27T18:28:53Z</time>
  <course>8.61</course>
  <speed>0.34132096331752027</speed>
  <fix>3d</fix>
</trkpt>
<trkpt lat="40.0728244" lon="-105.2306541">
  <ele>1595.56</ele>
  <time>2026-08-27T18:28:53Z</time>
  <course>3.91</course>
  <speed>0.38</speed>
  <fix>3d</fix>
</trkpt>
<trkpt lat="40.0728253" lon="-105.2306539">
  <ele>1595.67</ele>
  <time>2026-08-27T18:28:53Z</time>
  <course>8.61</course>
  <speed>0.32015621187164245</speed>
  <fix>3d</fix>
</trkpt>
<trkpt lat="40.072825" lon="-105.2306541">
  <ele>1595.56</ele>
  <time>2026-08-27T18:28:53Z</time>
  <course>0.41</course>
  <speed>0.36</speed>
  <fix>3d</fix>
</trkpt>
<trkpt lat="40.0728259" lon="-105.2306539">
  <ele>1595.67</ele>
  <time>2026-08-27T18:28:54Z</time>
  <course>8.61</course>
  <speed>0.30016662039607267</speed>
  <fix>3d</fix>
</trkpt>
<trkpt lat="40.0728256" lon="-105.2306541">
  <ele>1595.56</ele>
  <time>2026-08-27T18:28:54Z</time>
  <course>358.35</course>
  <speed>0.34</speed>
  <fix>3d</fix>
</trkpt>
<trkpt lat="40.0728265" lon="-105.230654">
  <ele>1595.67</ele>
  <time>2026-08-27T18:28:54Z</time>
  <course>8.61</course>
  <speed>0.28</speed>
  <fix>3d</fix>
</trkpt>
<trkpt lat="40.0728263" lon="-105.2306541">
  <ele>1595.56</ele>
  <time>2026-08-27T18:28:54Z</time>
  <course>357.3</course>
  <speed>0.32</speed>
  <fix>3d</fix>
</trkpt>
<trkpt lat="40.072827" lon="-105.230654">
  <ele>1595.67</ele>
  <time>2026-08-27T18:28:54Z</time>
  <course>8.61</course>
  <speed>0.27</speed>
  <fix>3d</fix>
</trkpt>
<trkpt lat="40.0728268" lon="-105.2306541">
  <ele>1595.56</ele>
  <time>2026-08-27T18:28:54Z</time>
  <course>356.94</course>
  <speed>0.3</speed>
  <fix>3d</fix>
</trkpt>
<trkpt lat="40.0728275" lon="-105.230654">
  <ele>1595.67</ele>
  <time>2026-08-27T18:28:54Z</time>
  <course>8.62</course>
  <speed>0.25</speed>
  <fix>3d</fix>
</trkpt>
<trkpt lat="40.0728274" lon="-105.2306541">
  <ele>1595.56</ele>
  <time>2026-08-27T18:28:54Z</time>
  <course>356.94</course>
  <speed>0.29</speed>
  <fix>3d</fix>
</trkpt>
<trkpt lat="40.072828" lon="-105.230654">
  <ele>1595.67</ele>
  <time>2026-08-27T18:28:54Z</time>
  <course>8.62</course>
  <speed>0.24</speed>
  <fix>3d</fix>
</trkpt>
<trkpt lat="40.0728279" lon="-105.2306541">
  <ele>1595.57</ele>
  <time>2026-08-27T18:28:54Z</time>
  <course>357.11</course>
  <speed>0.27</speed>
  <fix>3d</fix>
</trkpt>
<trkpt lat="40.0728285" lon="-105.230654">
  <ele>1595.67</ele>
  <time>2026-08-27T18:28:54Z</time>
  <course>8.6</course>
  <speed>0.23</speed>
  <fix>3d</fix>
</trkpt>
<trkpt lat="40.0728284" lon="-105.2306541">
  <ele>1595.57</ele>
  <time>2026-08-27T18:28:54Z</time>
  <course>357.34</course>
  <speed>0.26</speed>
  <fix>3d</fix>
</trkpt>
<trkpt lat="40.0728289" lon="-105.230654">
  <ele>1595.66</ele>
  <time>2026-08-27T18:28:54Z</time>
  <course>8.6</course>
  <speed>0.22</speed>
  <fix>3d</fix>
</trkpt>
<trkpt lat="40.0728289" lon="-105.2306542">
  <ele>1595.57</ele>
  <time>2026-08-27T18:28:54Z</time>
  <course>357.55</course>
  <speed>0.25</speed>
  <fix>3d</fix>
</trkpt>
<trkpt lat="40.0728294" lon="-105.230654">
  <ele>1595.66</ele>
  <time>2026-08-27T18:28:54Z</time>
  <course>8.59</course>
  <speed>0.21</speed>
  <fix>3d</fix>
</trkpt>
<trkpt lat="40.0728292" lon="-105.2306543">
  <ele>1595.57</ele>
  <time>2026-08-27T18:28:54Z</time>
  <course>357.78</course>
  <speed>0.24</speed>
  <fix>3d</fix>
</trkpt>
<trkpt lat="40.0728298" lon="-105.230654">
  <ele>1595.66</ele>
  <time>2026-08-27T18:28:54Z</time>
  <course>8.58</course>
  <speed>0.2002498439450079</speed>
  <fix>3d</fix>
</trkpt>
<trkpt lat="40.0728297" lon="-105.2306543">
  <ele>1595.57</ele>
  <time>2026-08-27T18:28:54Z</time>
  <course>358.07</course>
  <speed>0.23</speed>
  <fix>3d</fix>
</trkpt>
<trkpt lat="40.0728302" lon="-105.2306541">
  <ele>1595.66</ele>
  <time>2026-08-27T18:28:54Z</time>
  <course>8.58</course>
  <speed>0.19026297590440447</speed>
  <fix>3d</fix>
</trkpt>
<trkpt lat="40.0728302" lon="-105.2306543">
  <ele>1595.57</ele>
  <time>2026-08-27T18:28:54Z</time>
  <course>358.44</course>
  <speed>0.22</speed>
  <fix>3d</fix>
</trkpt>
<trkpt lat="40.0728306" lon="-105.2306541">
  <ele>1595.66</ele>
  <time>2026-08-27T18:28:54Z</time>
  <course>8.6</course>
  <speed>0.19026297590440447</speed>
  <fix>3d</fix>
</trkpt>
<trkpt lat="40.0728306" lon="-105.2306543">
  <ele>1595.57</ele>
  <time>2026-08-27T18:28:54Z</time>
  <course>358.67</course>
  <speed>0.21</speed>
  <fix>3d</fix>
</trkpt>
<trkpt lat="40.072831" lon="-105.2306541">
  <ele>1595.67</ele>
  <time>2026-08-27T18:28:54Z</time>
  <course>8.59</course>
  <speed>0.19026297590440447</speed>
  <fix>3d</fix>
</trkpt>
<trkpt lat="40.0728309" lon="-105.2306543">
  <ele>1595.57</ele>
  <time>2026-08-27T18:28:54Z</time>
  <course>358.8</course>
  <speed>0.21</speed>
  <fix>3d</fix>
</trkpt>
<trkpt lat="40.0728314" lon="-105.2306541">
  <ele>1595.68</ele>
  <time>2026-08-27T18:28:54Z</time>
  <course>8.6</course>
  <speed>0.22090722034374521</speed>
  <fix>3d</fix>
</trkpt>
<trkpt lat="40.0728313" lon="-105.2306543">
  <ele>1595.58</ele>
  <time>2026-08-27T18:28:54Z</time>
  <course>359.94</course>
  <speed>0.22</speed>
  <fix>3d</fix>
</trkpt>
<trkpt lat="40.0728319" lon="-105.2306541">
  <ele>1595.68</ele>
  <time>2026-08-27T18:28:54Z</time>
  <course>8.61</course>
  <speed>0.282842712474619</speed>
  <fix>3d</fix>
</trkpt>
<trkpt lat="40.0728317" lon="-105.2306543">
  <ele>1595.58</ele>
  <time>2026-08-27T18:28:54Z</time>
  <course>2.76</course>
  <speed>0.26</speed>
  <fix>3d</fix>
</trkpt>
<trkpt lat="40.0728325" lon="-105.230654">
  <ele>1595.69</ele>
  <time>2026-08-27T18:28:54Z</time>
  <course>8.61</course>
  <speed>0.37656340767525465</speed>
  <fix>3d</fix>
</trkpt>
<trkpt lat="40.0728323" lon="-105.2306543">
  <ele>1595.58</ele>
  <time>2026-08-27T18:28:54Z</time>
  <course>5.86</course>
  <speed>0.32</speed>
  <fix>3d</fix>
</trkpt>
<trkpt lat="40.0728333" lon="-105.2306539">
  <ele>1595.68</ele>
  <time>2026-08-27T18:28:54Z</time>
  <course>8.59</course>
  <speed>0.47853944456021597</speed>
  <fix>3d</fix>
</trkpt>
<trkpt lat="40.0728329" lon="-105.2306542">
  <ele>1595.58</ele>
  <time>2026-08-27T18:28:54Z</time>
  <course>7.85</course>
  <speed>0.42</speed>
  <fix>3d</fix>
</trkpt>
<trkpt lat="40.0728343" lon="-105.2306537">
  <ele>1595.68</ele>
  <time>2026-08-27T18:28:54Z</time>
  <course>8.56</course>
  <speed>0.5805170109479997</speed>
  <fix>3d</fix>
</trkpt>
<trkpt lat="40.0728338" lon="-105.2306541">
  <ele>1595.57</ele>
  <time>2026-08-27T18:28:54Z</time>
  <course>8.56</course>
  <speed>0.52</speed>
  <fix>3d</fix>
</trkpt>
<trkpt lat="40.0728354" lon="-105.2306535">
  <ele>1595.67</ele>
  <time>2026-08-27T18:28:54Z</time>
  <course>8.53</course>
  <speed>0.669103878332804</speed>
  <fix>3d</fix>
</trkpt>
<trkpt lat="40.0728348" lon="-105.2306538">
  <ele>1595.57</ele>
  <time>2026-08-27T18:28:54Z</time>
  <course>8.32</course>
  <speed>0.62</speed>
  <fix>3d</fix>
</trkpt>
<trkpt lat="40.0728367" lon="-105.2306533">
  <ele>1595.66</ele>
  <time>2026-08-27T18:28:54Z</time>
  <course>8.54</course>
  <speed>0.717007670809734</speed>
  <fix>3d</fix>
</trkpt>
<trkpt lat="40.072836" lon="-105.2306537">
  <ele>1595.57</ele>
  <time>2026-08-27T18:28:54Z</time>
  <course>7.39</course>
  <speed>0.7</speed>
  <fix>3d</fix>
</trkpt>
<trkpt lat="40.072838" lon="-105.2306531">
  <ele>1595.66</ele>
  <time>2026-08-27T18:28:54Z</time>
  <course>8.51</course>
  <speed>0.7034912934784623</speed>
  <fix>3d</fix>
</trkpt>
<trkpt lat="40.0728373" lon="-105.2306534">
  <ele>1595.57</ele>
  <time>2026-08-27T18:28:54Z</time>
  <course>5.9</course>
  <speed>0.73</speed>
  <fix>3d</fix>
</trkpt>
<trkpt lat="40.0728392" lon="-105.230653">
  <ele>1595.66</ele>
  <time>2026-08-27T18:28:54Z</time>
  <course>8.52</course>
  <speed>0.6412487816752559</speed>
  <fix>3d</fix>
</trkpt>
<trkpt lat="40.0728386" lon="-105.2306533">
  <ele>1595.57</ele>
  <time>2026-08-27T18:28:54Z</time>
  <course>3.86</course>
  <speed>0.71</speed>
  <fix>3d</fix>
</trkpt>
<trkpt lat="40.0728403" lon="-105.230653">
  <ele>1595.67</ele>
  <time>2026-08-27T18:28:54Z</time>
  <course>8.55</course>
  <speed>0.52</speed>
  <fix>3d</fix>
</trkpt>
<trkpt lat="40.0728398" lon="-105.2306533">
  <ele>1595.57</ele>
  <time>2026-08-27T18:28:54Z</time>
  <course>0.99</course>
  <speed>0.64</speed>
  <fix>3d</fix>
</trkpt>
<trkpt lat="40.0728412" lon="-105.2306531">
  <ele>1595.67</ele>
  <time>2026-08-27T18:28:54Z</time>
  <course>8.57</course>
  <speed>0.3535533905932738</speed>
  <fix>3d</fix>
</trkpt>
<trkpt lat="40.0728409" lon="-105.2306533">
  <ele>1595.57</ele>
  <time>2026-08-27T18:28:54Z</time>
  <course>356.49</course>
  <speed>0.51</speed>
  <fix>3d</fix>
</trkpt>
<trkpt lat="40.0728417" lon="-105.2306533">
  <ele>1595.67</ele>
  <time>2026-08-27T18:28:54Z</time>
  <course>8.59</course>
  <speed>0.17204650534085253</speed>
  <fix>3d</fix>
</trkpt>
<trkpt lat="40.0728417" lon="-105.2306533">
  <ele>1595.58</ele>
  <time>2026-08-27T18:28:54Z</time>
  <course>347.45</course>
  <speed>0.33</speed>
  <fix>3d</fix>
</trkpt>
<trkpt lat="40.0728418" lon="-105.2306536">
  <ele>1595.68</ele>
  <time>2026-08-27T18:28:54Z</time>
  <course>8.59</course>
  <speed>0.15264337522473748</speed>
  <fix>3d</fix>
</trkpt>
<trkpt lat="40.0728421" lon="-105.2306535">
  <ele>1595.58</ele>
  <time>2026-08-27T18:28:54Z</time>
  <course>315.61</course>
  <speed>0.15</speed>
  <fix>3d</fix>
</trkpt>
<trkpt lat="40.0728415" lon="-105.230654">
  <ele>1595.68</ele>
  <time>2026-08-27T18:28:54Z</time>
  <course>8.61</course>
  <speed>0.34438350715445126</speed>
  <fix>3d</fix>
</trkpt>
<trkpt lat="40.072842" lon="-105.2306538">
  <ele>1595.58</ele>
  <time>2026-08-27T18:28:54Z</time>
  <course>227.74</course>
  <speed>0.18</speed>
  <fix>3d</fix>
</trkpt>
<trkpt lat="40.0728409" lon="-105.2306543">
  <ele>1595.68</ele>
  <time>2026-08-27T18:28:54Z</time>
  <course>8.56</course>
  <speed>0.5536244214266564</speed>
  <fix>3d</fix>
</trkpt>
<trkpt lat="40.0728416" lon="-105.2306541">
  <ele>1595.58</ele>
  <time>2026-08-27T18:28:54Z</time>
  <course>202.59</course>
  <speed>0.38</speed>
  <fix>3d</fix>
</trkpt>
<trkpt lat="40.0728399" lon="-105.2306547">
  <ele>1595.68</ele>
  <time>2026-08-27T18:28:54Z</time>
  <course>8.51</course>
  <speed>0.71386273190299</speed>
  <fix>3d</fix>
</trkpt>
<trkpt lat="40.0728409" lon="-105.2306545">
  <ele>1595.58</ele>
  <time>2026-08-27T18:28:54Z</time>
  <course>194.34</course>
  <speed>0.57</speed>
  <fix>3d</fix>
</trkpt>
<trkpt lat="40.0728386" lon="-105.230655">
  <ele>1595.68</ele>
  <time>2026-08-27T18:28:54Z</time>
  <course>8.49</course>
  <speed>0.8174350127074322</speed>
  <fix>3d</fix>
</trkpt>
<trkpt lat="40.0728397" lon="-105.2306548">
  <ele>1595.58</ele>
  <time>2026-08-27T18:28:54Z</time>
  <course>189.67</course>
  <speed>0.72</speed>
  <fix>3d</fix>
</trkpt>
<trkpt lat="40.0728371" lon="-105.2306552">
  <ele>1595.68</ele>
  <time>2026-08-27T18:28:54Z</time>
  <course>8.49</course>
  <speed>0.8421401308570919</speed>
  <fix>3d</fix>
</trkpt>
<trkpt lat="40.0728383" lon="-105.2306551">
  <ele>1595.58</ele>
  <time>2026-08-27T18:28:54Z</time>
  <course>186.15</course>
  <speed>0.81</speed>
  <fix>3d</fix>
</trkpt>
<trkpt lat="40.0728357" lon="-105.2306552">
  <ele>1595.67</ele>
  <time>2026-08-27T18:28:54Z</time>
  <course>8.53</course>
  <speed>0.8000624975587844</speed>
  <fix>3d</fix>
</trkpt>
<trkpt lat="40.0728368" lon="-105.2306552">
  <ele>1595.58</ele>
  <time>2026-08-27T18:28:54Z</time>
  <course>182.93</course>
  <speed>0.83</speed>
  <fix>3d</fix>
</trkpt>
<trkpt lat="40.0728344" lon="-105.2306552">
  <ele>1595.67</ele>
  <time>2026-08-27T18:28:54Z</time>
  <course>8.58</course>
  <speed>0.6911584478250989</speed>
  <fix>3d</fix>
</trkpt>
<trkpt lat="40.0728354" lon="-105.2306553">
  <ele>1595.58</ele>
  <time>2026-08-27T18:28:54Z</time>
  <course>179.4</course>
  <speed>0.78</speed>
  <fix>3d</fix>
</trkpt>
<trkpt lat="40.0728333" lon="-105.2306551">
  <ele>1595.67</ele>
  <time>2026-08-27T18:28:54Z</time>
  <course>8.59</course>
  <speed>0.5197114584074513</speed>
  <fix>3d</fix>
</trkpt>
<trkpt lat="40.0728341" lon="-105.2306552">
  <ele>1595.58</ele>
  <time>2026-08-27T18:28:54Z</time>
  <course>174.8</course>
  <speed>0.65</speed>
  <fix>3d</fix>
</trkpt>
<trkpt lat="40.0728326" lon="-105.2306548">
  <ele>1595.68</ele>
  <time>2026-08-27T18:28:54Z</time>
  <course>8.6</course>
  <speed>0.31304951684997057</speed>
  <fix>3d</fix>
</trkpt>
<trkpt lat="40.072833" lon="-105.230655">
  <ele>1595.58</ele>
  <time>2026-08-27T18:28:54Z</time>
  <course>167.23</course>
  <speed>0.47</speed>
  <fix>3d</fix>
</trkpt>
<trkpt lat="40.0728323" lon="-105.2306544">
  <ele>1595.68</ele>
  <time>2026-08-27T18:28:54Z</time>
  <course>8.59</course>
  <speed>0.17262676501632068</speed>
  <fix>3d</fix>
</trkpt>
<trkpt lat="40.0728325" lon="-105.2306548">
  <ele>1595.58</ele>
  <time>2026-08-27T18:28:54Z</time>
  <course>148.52</course>
  <speed>0.26</speed>
  <fix>3d</fix>
</trkpt>
<trkpt lat="40.0728325" lon="-105.230654">
  <ele>1595.68</ele>
  <time>2026-08-27T18:28:54Z</time>
  <course>8.56</course>
  <speed>0.2906888370749727</speed>
  <fix>3d</fix>
</trkpt>
<trkpt lat="40.0728323" lon="-105.2306545">
  <ele>1595.58</ele>
  <time>2026-08-27T18:28:54Z</time>
  <course>78.08</course>
  <speed>0.15</speed>
  <fix>3d</fix>
</trkpt>
<trkpt lat="40.072833" lon="-105.2306537">
  <ele>1595.68</ele>
  <time>2026-08-27T18:28:54Z</time>
  <course>8.51</course>
  <speed>0.48466483264210536</speed>
  <fix>3d</fix>
</trkpt>
<trkpt lat="40.0728325" lon="-105.2306541">
  <ele>1595.58</ele>
  <time>2026-08-27T18:28:54Z</time>
  <course>28.26</course>
  <speed>0.32</speed>
  <fix>3d</fix>
</trkpt>
<trkpt lat="40.0728339" lon="-105.2306533">
  <ele>1595.67</ele>
  <time>2026-08-27T18:28:54Z</time>
  <course>8.43</course>
  <speed>0.6670832032063168</speed>
  <fix>3d</fix>
</trkpt>
<trkpt lat="40.0728332" lon="-105.2306537">
  <ele>1595.57</ele>
  <time>2026-08-27T18:28:54Z</time>
  <course>14.72</course>
  <speed>0.53</speed>
  <fix>3d</fix>
</trkpt>
<trkpt lat="40.0728352" lon="-105.2306531">
  <ele>1595.67</ele>
  <time>2026-08-27T18:28:54Z</time>
  <course>8.4</course>
  <speed>0.7877182237323191</speed>
  <fix>3d</fix>
</trkpt>
<trkpt lat="40.0728342" lon="-105.2306534">
  <ele>1595.57</ele>
  <time>2026-08-27T18:28:54Z</time>
  <course>8.16</course>
  <speed>0.7</speed>
  <fix>3d</fix>
</trkpt>
<trkpt lat="40.0728366" lon="-105.230653">
  <ele>1595.67</ele>
  <time>2026-08-27T18:28:54Z</time>
  <course>8.4</course>
  <speed>0.8315046602394962</speed>
  <fix>3d</fix>
</trkpt>
<trkpt lat="40.0728356" lon="-105.2306533">
  <ele>1595.57</ele>
  <time>2026-08-27T18:28:54Z</time>
  <course>3.57</course>
  <speed>0.81</speed>
  <fix>3d</fix>
</trkpt>
<trkpt lat="40.0728381" lon="-105.230653">
  <ele>1595.66</ele>
  <time>2026-08-27T18:28:54Z</time>
  <course>8.4</course>
  <speed>0.8000624975587844</speed>
  <fix>3d</fix>
</trkpt>
<trkpt lat="40.0728371" lon="-105.2306532">
  <ele>1595.57</ele>
  <time>2026-08-27T18:28:54Z</time>
  <course>359.49</course>
  <speed>0.84</speed>
  <fix>3d</fix>
</trkpt>
<trkpt lat="40.0728395" lon="-105.2306532">
  <ele>1595.66</ele>
  <time>2026-08-27T18:28:54Z</time>
  <course>8.48</course>
  <speed>0.6935416353759881</speed>
  <fix>3d</fix>
</trkpt>
<trkpt lat="40.0728387" lon="-105.2306533">
  <ele>1595.57</ele>
  <time>2026-08-27T18:28:54Z</time>
  <course>355.1</course>
  <speed>0.8</speed>
  <fix>3d</fix>
</trkpt>
<trkpt lat="40.0728406" lon="-105.2306534">
  <ele>1595.67</ele>
  <time>2026-08-27T18:28:54Z</time>
  <course>8.54</course>
  <speed>0.5360037313302959</speed>
  <fix>3d</fix>
</trkpt>
<trkpt lat="40.07284" lon="-105.2306534">
  <ele>1595.57</ele>
  <time>2026-08-27T18:28:54Z</time>
  <course>349.45</course>
  <speed>0.69</speed>
  <fix>3d</fix>
</trkpt>
<trkpt lat="40.0728414" lon="-105.2306539">
  <ele>1595.67</ele>
  <time>2026-08-27T18:28:54Z</time>
  <course>8.6</course>
  <speed>0.34132096331752027</speed>
  <fix>3d</fix>
</trkpt>
<trkpt lat="40.072841" lon="-105.2306538">
  <ele>1595.58</ele>
  <time>2026-08-27T18:28:54Z</time>
  <course>340.45</course>
  <speed>0.52</speed>
  <fix>3d</fix>
</trkpt>
<trkpt lat="40.0728417" lon="-105.2306544">
  <ele>1595.68</ele>
  <time>2026-08-27T18:28:54Z</time>
  <course>8.62</course>
  <speed>0.21377558326431947</speed>
  <fix>3d</fix>
</trkpt>
<trkpt lat="40.0728417" lon="-105.2306542">
  <ele>1595.58</ele>
  <time>2026-08-27T18:28:54Z</time>
  <course>321.1</course>
  <speed>0.33</speed>
  <fix>3d</fix>
</trkpt>
<trkpt lat="40.0728416" lon="-105.2306549">
  <ele>1595.68</ele>
  <time>2026-08-27T18:28:54Z</time>
  <course>8.62</course>
  <speed>0.304138126514911</speed>
  <fix>3d</fix>
</trkpt>
<trkpt lat="40.072842" lon="-105.2306548">
  <ele>1595.58</ele>
  <time>2026-08-27T18:28:54Z</time>
  <course>270.95</course>
  <speed>0.22</speed>
  <fix>3d</fix>
</trkpt>
<trkpt lat="40.0728412" lon="-105.2306555">
  <ele>1595.68</ele>
  <time>2026-08-27T18:28:54Z</time>
  <course>8.59</course>
  <speed>0.4965883607174055</speed>
  <fix>3d</fix>
</trkpt>
<trkpt lat="40.0728417" lon="-105.2306553">
  <ele>1595.58</ele>
  <time>2026-08-27T18:28:54Z</time>
  <course>221.94</course>
  <speed>0.33</speed>
  <fix>3d</fix>
</trkpt>
<trkpt lat="40.0728402" lon="-105.230656">
  <ele>1595.68</ele>
  <time>2026-08-27T18:28:54Z</time>
  <course>8.55</course>
  <speed>0.6744627491566899</speed>
  <fix>3d</fix>
</trkpt>
<trkpt lat="40.0728411" lon="-105.2306558">
  <ele>1595.58</ele>
  <time>2026-08-27T18:28:54Z</time>
  <course>203.13</course>
  <speed>0.52</speed>
  <fix>3d</fix>
</trkpt>
<trkpt lat="40.072839" lon="-105.2306564">
  <ele>1595.68</ele>
  <time>2026-08-27T18:28:54Z</time>
  <course>8.53</course>
  <speed>0.7907591289387687</speed>
  <fix>3d</fix>
</trkpt>
<trkpt lat="40.0728401" lon="-105.2306562">
  <ele>1595.58</ele>
  <time>2026-08-27T18:28:54Z</time>
  <course>194.2</course>
  <speed>0.68</speed>
  <fix>3d</fix>
</trkpt>
<trkpt lat="40.0728376" lon="-105.2306566">
  <ele>1595.67</ele>
  <time>2026-08-27T18:28:54Z</time>
  <course>8.51</course>
  <speed>0.8429116205154606</speed>
  <fix>3d</fix>
</trkpt>
<trkpt lat="40.0728388" lon="-105.2306566">
  <ele>1595.57</ele>
  <time>2026-08-27T18:28:54Z</time>
  <course>188.44</course>
  <speed>0.79</speed>
  <fix>3d</fix>
</trkpt>
<trkpt lat="40.0728361" lon="-105.2306567">
  <ele>1595.67</ele>
  <time>2026-08-27T18:28:54Z</time>
  <course>8.5</course>
  <speed>0.81</speed>
  <fix>3d</fix>
</trkpt>
<trkpt lat="40.0728374" lon="-105.2306568">
  <ele>1595.57</ele>
  <time>2026-08-27T18:28:54Z</time>
  <course>183.76</course>
  <speed>0.82</speed>
  <fix>3d</fix>
</trkpt>
<trkpt lat="40.0728348" lon="-105.2306567">
  <ele>1595.67</ele>
  <time>2026-08-27T18:28:54Z</time>
  <course>8.55</course>
  <speed>0.7125307010929425</speed>
  <fix>3d</fix>
</trkpt>
<trkpt lat="40.0728359" lon="-105.2306569">
  <ele>1595.57</ele>
  <time>2026-08-27T18:28:54Z</time>
  <course>179.16</course>
  <speed>0.77</speed>
  <fix>3d</fix>
</trkpt>
<trkpt lat="40.0728338" lon="-105.2306566">
  <ele>1595.67</ele>
  <time>2026-08-27T18:28:54Z</time>
  <course>8.58</course>
  <speed>0.5434151267677411</speed>
  <fix>3d</fix>
</trkpt>
<trkpt lat="40.0728347" lon="-105.2306567">
  <ele>1595.57</ele>
  <time>2026-08-27T18:28:54Z</time>
  <course>173.6</course>
  <speed>0.65</speed>
  <fix>3d</fix>
</trkpt>
<trkpt lat="40.072833" lon="-105.2306562">
  <ele>1595.66</ele>
  <time>2026-08-27T18:28:54Z</time>
  <course>8.59</course>
  <speed>0.34481879299133333</speed>
  <fix>3d</fix>
</trkpt>
<trkpt lat="40.0728336" lon="-105.2306566">
  <ele>1595.57</ele>
  <time>2026-08-27T18:28:54Z</time>
  <course>164.89</course>
  <speed>0.48</speed>
  <fix>3d</fix>
</trkpt>
<trkpt lat="40.0728327" lon="-105.2306558">
  <ele>1595.66</ele>
  <time>2026-08-27T18:28:54Z</time>
  <course>8.57</course>
  <speed>0.215870331449229</speed>
  <fix>3d</fix>
</trkpt>
<trkpt lat="40.072833" lon="-105.2306562">
  <ele>1595.58</ele>
  <time>2026-08-27T18:28:54Z</time>
  <course>144.86</course>
  <speed>0.28</speed>
  <fix>3d</fix>
</trkpt>
<trkpt lat="40.0728329" lon="-105.2306553">
  <ele>1595.67</ele>
  <time>2026-08-27T18:28:54Z</time>
  <course>8.56</course>
  <speed>0.2973213749463701</speed>
  <fix>3d</fix>
</trkpt>
<trkpt lat="40.0728328" lon="-105.2306558">
  <ele>1595.58</ele>
  <time>2026-08-27T18:28:54Z</time>
  <course>82.14</course>
  <speed>0.18</speed>
  <fix>3d</fix>
</trkpt>
<trkpt lat="40.0728334" lon="-105.2306549">
  <ele>1595.67</ele>
  <time>2026-08-27T18:28:54Z</time>
  <course>8.5</course>
  <speed>0.49244289008980524</speed>
  <fix>3d</fix>
</trkpt>
<trkpt lat="40.072833" lon="-105.2306554">
  <ele>1595.58</ele>
  <time>2026-08-27T18:28:54Z</time>
  <course>32.71</course>
  <speed>0.33</speed>
  <fix>3d</fix>
</trkpt>
<trkpt lat="40.0728344" lon="-105.2306545">
  <ele>1595.67</ele>
  <time>2026-08-27T18:28:54Z</time>
  <course>8.44</course>
  <speed>0.6621933252457322</speed>
  <fix>3d</fix>
</trkpt>
<trkpt lat="40.0728338" lon="-105.230655">
  <ele>1595.58</ele>
  <time>2026-08-27T18:28:54Z</time>
  <course>17.24</course>
  <speed>0.53</speed>
  <fix>3d</fix>
</trkpt>
<trkpt lat="40.0728357" lon="-105.2306542">
  <ele>1595.67</ele>
  <time>2026-08-27T18:28:54Z</time>
  <course>8.41</course>
  <speed>0.7792945527847606</speed>
  <fix>3d</fix>
</trkpt>
<trkpt lat="40.0728348" lon="-105.2306547">
  <ele>1595.58</ele>
  <time>2026-08-27T18:28:54Z</time>
  <course>9.68</course>
  <speed>0.7</speed>
  <fix>3d</fix>
</trkpt>
<trkpt lat="40.0728371" lon="-105.2306541">
  <ele>1595.67</ele>
  <time>2026-08-27T18:28:54Z</time>
  <course>8.42</course>
  <speed>0.8321658488546619</speed>
  <fix>3d</fix>
</trkpt>
<trkpt lat="40.0728362" lon="-105.2306544">
  <ele>1595.58</ele>
  <time>2026-08-27T18:28:54Z</time>
  <course>4.52</course>
  <speed>0.81</speed>
  <fix>3d</fix>
</trkpt>
<trkpt lat="40.0728386" lon="-105.2306541">
  <ele>1595.67</ele>
  <time>2026-08-27T18:28:54Z</time>
  <course>8.47</course>
  <speed>0.8</speed>
  <fix>3d</fix>
</trkpt>
<trkpt lat="40.0728376" lon="-105.2306543">
  <ele>1595.58</ele>
  <time>2026-08-27T18:28:54Z</time>
  <course>0.08</course>
  <speed>0.85</speed>
  <fix>3d</fix>
</trkpt>
<trkpt lat="40.07284" lon="-105.2306543">
  <ele>1595.67</ele>
  <time>2026-08-27T18:28:54Z</time>
  <course>8.52</course>
  <speed>0.7034912934784623</speed>
  <fix>3d</fix>
</trkpt>
<trkpt lat="40.0728392" lon="-105.2306544">
  <ele>1595.58</ele>
  <time>2026-08-27T18:28:54Z</time>
  <course>355.47</course>
  <speed>0.81</speed>
  <fix>3d</fix>
</trkpt>
<trkpt lat="40.0728411" lon="-105.2306545">
  <ele>1595.67</ele>
  <time>2026-08-27T18:28:54Z</time>
  <course>8.58</course>
  <speed>0.5360037313302959</speed>
  <fix>3d</fix>
</trkpt>
<trkpt lat="40.0728405" lon="-105.2306547">
  <ele>1595.58</ele>
  <time>2026-08-27T18:28:54Z</time>
  <course>349.67</course>
  <speed>0.69</speed>
  <fix>3d</fix>
</trkpt>
<trkpt lat="40.0728419" lon="-105.230655">
  <ele>1595.67</ele>
  <time>2026-08-27T18:28:54Z</time>
  <course>8.59</course>
  <speed>0.34985711369071804</speed>
  <fix>3d</fix>
</trkpt>
<trkpt lat="40.0728416" lon="-105.230655">
  <ele>1595.58</ele>
  <time>2026-08-27T18:28:54Z</time>
  <course>340.53</course>
  <speed>0.53</speed>
  <fix>3d</fix>
</trkpt>
<trkpt lat="40.0728423" lon="-105.2306555">
  <ele>1595.66</ele>
  <time>2026-08-27T18:28:54Z</time>
  <course>8.61</course>
  <speed>0.223606797749979</speed>
  <fix>3d</fix>
</trkpt>
<trkpt lat="40.0728423" lon="-105.2306554">
  <ele>1595.59</ele>
  <time>2026-08-27T18:28:54Z</time>
  <course>321.23</course>
  <speed>0.34</speed>
  <fix>3d</fix>
</trkpt>
<trkpt lat="40.0728422" lon="-105.2306561">
  <ele>1595.66</ele>
  <time>2026-08-27T18:28:54Z</time>
  <course>8.61</course>
  <speed>0.31144823004794875</speed>
  <fix>3d</fix>
</trkpt>
<trkpt lat="40.0728426" lon="-105.2306559">
  <ele>1595.59</ele>
  <time>2026-08-27T18:28:54Z</time>
  <course>271.89</course>
  <speed>0.23</speed>
  <fix>3d</fix>
</trkpt>
<trkpt lat="40.0728416" lon="-105.2306567">
  <ele>1595.66</ele>
  <time>2026-08-27T18:28:54Z</time>
  <course>8.54</course>
  <speed>0.5008991914547277</speed>
  <fix>3d</fix>
</trkpt>
<trkpt lat="40.0728423" lon="-105.2306565">
  <ele>1595.59</ele>
  <time>2026-08-27T18:28:54Z</time>
  <course>222.84</course>
  <speed>0.34</speed>
  <fix>3d</fix>
</trkpt>
<trkpt lat="40.0728408" lon="-105.2306572">
  <ele>1595.66</ele>
  <time>2026-08-27T18:28:54Z</time>
  <course>8.5</course>
  <speed>0.6772001181334805</speed>
  <fix>3d</fix>
</trkpt>
<trkpt lat="40.0728417" lon="-105.230657">
  <ele>1595.59</ele>
  <time>2026-08-27T18:28:54Z</time>
  <course>203.7</course>
  <speed>0.52</speed>
  <fix>3d</fix>
</trkpt>
<trkpt lat="40.0728396" lon="-105.2306576">
  <ele>1595.65</ele>
  <time>2026-08-27T18:28:54Z</time>
  <course>8.45</course>
  <speed>0.792464510246358</speed>
  <fix>3d</fix>
</trkpt>
<trkpt lat="40.0728407" lon="-105.2306574">
  <ele>1595.59</ele>
  <time>2026-08-27T18:28:54Z</time>
  <course>194.56</course>
  <speed>0.69</speed>
  <fix>3d</fix>
</trkpt>
<trkpt lat="40.0728382" lon="-105.2306578">
  <ele>1595.65</ele>
  <time>2026-08-27T18:28:54Z</time>
  <course>8.4</course>
  <speed>0.8429116205154606</speed>
  <fix>3d</fix>
</trkpt>
<trkpt lat="40.0728394" lon="-105.2306578">
  <ele>1595.59</ele>
  <time>2026-08-27T18:28:54Z</time>
  <course>188.66</course>
  <speed>0.79</speed>
  <fix>3d</fix>
</trkpt>
<trkpt lat="40.0728367" lon="-105.2306579">
  <ele>1595.65</ele>
  <time>2026-08-27T18:28:54Z</time>
  <course>8.45</course>
  <speed>0.81</speed>
  <fix>3d</fix>
</trkpt>
<trkpt lat="40.0728379" lon="-105.230658">
  <ele>1595.6</ele>
  <time>2026-08-27T18:28:54Z</time>
  <course>183.93</course>
  <speed>0.82</speed>
  <fix>3d</fix>
</trkpt>
<trkpt lat="40.0728354" lon="-105.2306579">
  <ele>1595.66</ele>
  <time>2026-08-27T18:28:54Z</time>
  <course>8.49</course>
  <speed>0.7125307010929425</speed>
  <fix>3d</fix>
</trkpt>
<trkpt lat="40.0728364" lon="-105.2306581">
  <ele>1595.6</ele>
  <time>2026-08-27T18:28:54Z</time>
  <course>179.26</course>
  <speed>0.78</speed>
  <fix>3d</fix>
</trkpt>
<trkpt lat="40.0728343" lon="-105.2306578">
  <ele>1595.66</ele>
  <time>2026-08-27T18:28:54Z</time>
  <course>8.53</course>
  <speed>0.5434151267677411</speed>
  <fix>3d</fix>
</trkpt>
<trkpt lat="40.0728352" lon="-105.230658">
  <ele>1595.61</ele>
  <time>2026-08-27T18:28:54Z</time>
  <course>173.64</course>
  <speed>0.66</speed>
  <fix>3d</fix>
</trkpt>
<trkpt lat="40.0728336" lon="-105.2306574">
  <ele>1595.67</ele>
  <time>2026-08-27T18:28:54Z</time>
  <course>8.58</course>
  <speed>0.3535533905932738</speed>
  <fix>3d</fix>
</trkpt>
<trkpt lat="40.0728342" lon="-105.2306577">
  <ele>1595.62</ele>
  <time>2026-08-27T18:28:54Z</time>
  <course>164.96</course>
  <speed>0.49</speed>
  <fix>3d</fix>
</trkpt>
<trkpt lat="40.0728333" lon="-105.230657">
  <ele>1595.68</ele>
  <time>2026-08-27T18:28:54Z</time>
  <course>8.59</course>
  <speed>0.215870331449229</speed>
  <fix>3d</fix>
</trkpt>
<trkpt lat="40.0728335" lon="-105.2306574">
  <ele>1595.62</ele>
  <time>2026-08-27T18:28:54Z</time>
  <course>145.39</course>
  <speed>0.29</speed>
  <fix>3d</fix>
</trkpt>
<trkpt lat="40.0728334" lon="-105.2306565">
  <ele>1595.68</ele>
  <time>2026-08-27T18:28:54Z</time>
  <course>8.58</course>
  <speed>0.2973213749463701</speed>
  <fix>3d</fix>
</trkpt>
<trkpt lat="40.0728333" lon="-105.2306571">
  <ele>1595.63</ele>
  <time>2026-08-27T18:28:54Z</time>
  <course>84.94</course>
  <speed>0.18</speed>
  <fix>3d</fix>
</trkpt>
<trkpt lat="40.072834" lon="-105.2306561">
  <ele>1595.68</ele>
  <time>2026-08-27T18:28:54Z</time>
  <course>8.54</course>
  <speed>0.4875448697299562</speed>
  <fix>3d</fix>
</trkpt>
<trkpt lat="40.0728335" lon="-105.2306566">
  <ele>1595.63</ele>
  <time>2026-08-27T18:28:54Z</time>
  <course>34.16</course>
  <speed>0.33</speed>
  <fix>3d</fix>
</trkpt>
<trkpt lat="40.0728349" lon="-105.2306557">
  <ele>1595.68</ele>
  <time>2026-08-27T18:28:54Z</time>
  <course>8.48</course>
  <speed>0.6621933252457322</speed>
  <fix>3d</fix>
</trkpt>
<trkpt lat="40.0728342" lon="-105.2306562">
  <ele>1595.62</ele>
  <time>2026-08-27T18:28:54Z</time>
  <course>17.99</course>
  <speed>0.53</speed>
  <fix>3d</fix>
</trkpt>
<trkpt lat="40.0728361" lon="-105.2306554">
  <ele>1595.67</ele>
  <time>2026-08-27T18:28:54Z</time>
  <course>8.44</course>
  <speed>0.7792945527847606</speed>
  <fix>3d</fix>
</trkpt>
<trkpt lat="40.0728353" lon="-105.2306559">
  <ele>1595.62</ele>
  <time>2026-08-27T18:28:54Z</time>
  <course>10.19</course>
  <speed>0.7</speed>
  <fix>3d</fix>
</trkpt>
<trkpt lat="40.0728376" lon="-105.2306553">
  <ele>1595.68</ele>
  <time>2026-08-27T18:28:54Z</time>
  <course>8.44</course>
  <speed>0.8221921916437787</speed>
  <fix>3d</fix>
</trkpt>
<trkpt lat="40.0728366" lon="-105.2306557">
  <ele>1595.62</ele>
  <time>2026-08-27T18:28:54Z</time>
  <course>4.89</course>
  <speed>0.81</speed>
  <fix>3d</fix>
</trkpt>
<trkpt lat="40.072839" lon="-105.2306553">
  <ele>1595.68</ele>
  <time>2026-08-27T18:28:54Z</time>
  <course>8.46</course>
  <speed>0.8</speed>
  <fix>3d</fix>
</trkpt>
<trkpt lat="40.0728381" lon="-105.2306555">
  <ele>1595.62</ele>
  <time>2026-08-27T18:28:54Z</time>
  <course>0.38</course>
  <speed>0.84</speed>
  <fix>3d</fix>
</trkpt>
<trkpt lat="40.0728404" lon="-105.2306555">
  <ele>1595.68</ele>
  <time>2026-08-27T18:28:54Z</time>
  <course>8.55</course>
  <speed>0.6935416353759881</speed>
  <fix>3d</fix>
</trkpt>
<trkpt lat="40.0728396" lon="-105.2306556">
  <ele>1595.62</ele>
  <time>2026-08-27T18:28:54Z</time>
  <course>355.74</course>
  <speed>0.8</speed>
  <fix>3d</fix>
</trkpt>
<trkpt lat="40.0728415" lon="-105.2306557">
  <ele>1595.69</ele>
  <time>2026-08-27T18:28:54Z</time>
  <course>8.59</course>
  <speed>0.5360037313302959</speed>
  <fix>3d</fix>
</trkpt>
<trkpt lat="40.0728409" lon="-105.2306558">
  <ele>1595.62</ele>
  <time>2026-08-27T18:28:54Z</time>
  <course>349.93</course>
  <speed>0.69</speed>
  <fix>3d</fix>
</trkpt>
<trkpt lat="40.0728423" lon="-105.2306561">
  <ele>1595.69</ele>
  <time>2026-08-27T18:28:54Z</time>
  <course>8.65</course>
  <speed>0.34985711369071804</speed>
  <fix>3d</fix>
</trkpt>
<trkpt lat="40.072842" lon="-105.2306561">
  <ele>1595.62</ele>
  <time>2026-08-27T18:28:54Z</time>
  <course>340.81</course>
  <speed>0.52</speed>
  <fix>3d</fix>
</trkpt>
<trkpt lat="40.0728427" lon="-105.2306567">
  <ele>1595.69</ele>
  <time>2026-08-27T18:28:54Z</time>
  <course>8.67</course>
  <speed>0.21377558326431947</speed>
  <fix>3d</fix>
</trkpt>
<trkpt lat="40.0728427" lon="-105.2306565">
  <ele>1595.62</ele>
  <time>2026-08-27T18:28:54Z</time>
  <course>321.58</course>
  <speed>0.33</speed>
  <fix>3d</fix>
</trkpt>
<trkpt lat="40.0728426" lon="-105.2306572">
  <ele>1595.69</ele>
  <time>2026-08-27T18:28:54Z</time>
  <course>8.67</course>
  <speed>0.304138126514911</speed>
  <fix>3d</fix>
</trkpt>
<trkpt lat="40.072843" lon="-105.2306571">
  <ele>1595.62</ele>
  <time>2026-08-27T18:28:54Z</time>
  <course>272.07</course>
  <speed>0.23</speed>
  <fix>3d</fix>
</trkpt>
<trkpt lat="40.0728421" lon="-105.2306578">
  <ele>1595.69</ele>
  <time>2026-08-27T18:28:54Z</time>
  <course>8.61</course>
  <speed>0.4965883607174055</speed>
  <fix>3d</fix>
</trkpt>
<trkpt lat="40.0728428" lon="-105.2306576">
  <ele>1595.62</ele>
  <time>2026-08-27T18:28:54Z</time>
  <course>222.67</course>
  <speed>0.33</speed>
  <fix>3d</fix>
</trkpt>
<trkpt lat="40.0728413" lon="-105.2306583">
  <ele>1595.69</ele>
  <time>2026-08-27T18:28:54Z</time>
  <course>8.57</course>
  <speed>0.6648308055437865</speed>
  <fix>3d</fix>
</trkpt>
<trkpt lat="40.0728421" lon="-105.2306581">
  <ele>1595.61</ele>
  <time>2026-08-27T18:28:54Z</time>
  <course>203.46</course>
  <speed>0.52</speed>
  <fix>3d</fix>
</trkpt>
<trkpt lat="40.07284" lon="-105.2306587">
  <ele>1595.69</ele>
  <time>2026-08-27T18:28:54Z</time>
  <course>8.55</course>
  <speed>0.7907591289387687</speed>
  <fix>3d</fix>
</trkpt>
<trkpt lat="40.0728411" lon="-105.2306586">
  <ele>1595.61</ele>
  <time>2026-08-27T18:28:54Z</time>
  <course>194.35</course>
  <speed>0.68</speed>
  <fix>3d</fix>
</trkpt>
<trkpt lat="40.0728387" lon="-105.2306589">
  <ele>1595.68</ele>
  <time>2026-08-27T18:28:54Z</time>
  <course>8.54</course>
  <speed>0.8329465769183519</speed>
  <fix>3d</fix>
</trkpt>
<trkpt lat="40.0728399" lon="-105.2306589">
  <ele>1595.6</ele>
  <time>2026-08-27T18:28:54Z</time>
  <course>188.49</course>
  <speed>0.79</speed>
  <fix>3d</fix>
</trkpt>
<trkpt lat="40.0728372" lon="-105.230659">
  <ele>1595.68</ele>
  <time>2026-08-27T18:28:54Z</time>
  <course>8.53</course>
  <speed>0.81</speed>
  <fix>3d</fix>
</trkpt>
<trkpt lat="40.0728384" lon="-105.2306591">
  <ele>1595.6</ele>
  <time>2026-08-27T18:28:54Z</time>
  <course>183.75</course>
  <speed>0.82</speed>
  <fix>3d</fix>
</trkpt>
<trkpt lat="40.0728359" lon="-105.230659">
  <ele>1595.67</ele>
  <time>2026-08-27T18:28:54Z</time>
  <course>8.55</course>
  <speed>0.7025667228100119</speed>
  <fix>3d</fix>
</trkpt>
<trkpt lat="40.072837" lon="-105.2306591">
  <ele>1595.6</ele>
  <time>2026-08-27T18:28:54Z</time>
  <course>179.09</course>
  <speed>0.77</speed>
  <fix>3d</fix>
</trkpt>
<trkpt lat="40.0728348" lon="-105.2306589">
  <ele>1595.67</ele>
  <time>2026-08-27T18:28:54Z</time>
  <course>8.59</course>
  <speed>0.5434151267677411</speed>
  <fix>3d</fix>
</trkpt>
<trkpt lat="40.0728357" lon="-105.2306591">
  <ele>1595.6</ele>
  <time>2026-08-27T18:28:54Z</time>
  <course>173.48</course>
  <speed>0.66</speed>
  <fix>3d</fix>
</trkpt>
<trkpt lat="40.0728341" lon="-105.2306585">
  <ele>1595.67</ele>
  <time>2026-08-27T18:28:54Z</time>
  <course>8.6</course>
  <speed>0.34481879299133333</speed>
  <fix>3d</fix>
</trkpt>
<trkpt lat="40.0728346" lon="-105.2306589">
  <ele>1595.6</ele>
  <time>2026-08-27T18:28:54Z</time>
  <course>164.76</course>
  <speed>0.49</speed>
  <fix>3d</fix>
</trkpt>
<trkpt lat="40.0728338" lon="-105.2306581">
  <ele>1595.67</ele>
  <time>2026-08-27T18:28:54Z</time>
  <course>8.59</course>
  <speed>0.215870331449229</speed>
  <fix>3d</fix>
</trkpt>
<trkpt lat="40.072834" lon="-105.2306586">
  <ele>1595.6</ele>
  <time>2026-08-27T18:28:54Z</time>
  <course>145.06</course>
  <speed>0.29</speed>
  <fix>3d</fix>
</trkpt>
<trkpt lat="40.0728339" lon="-105.2306576">
  <ele>1595.66</ele>
  <time>2026-08-27T18:28:54Z</time>
  <course>8.56</course>
  <speed>0.2973213749463701</speed>
  <fix>3d</fix>
</trkpt>
<trkpt lat="40.0728338" lon="-105.2306581">
  <ele>1595.6</ele>
  <time>2026-08-27T18:28:54Z</time>
  <course>84.52</course>
  <speed>0.18</speed>
  <fix>3d</fix>
</trkpt>
<trkpt lat="40.0728345" lon="-105.2306572">
  <ele>1595.66</ele>
  <time>2026-08-27T18:28:54Z</time>
  <course>8.51</course>
  <speed>0.4875448697299562</speed>
  <fix>3d</fix>
</trkpt>
<trkpt lat="40.072834" lon="-105.2306577">
  <ele>1595.6</ele>
  <time>2026-08-27T18:28:54Z</time>
  <course>34.08</course>
  <speed>0.33</speed>
  <fix>3d</fix>
</trkpt>
<trkpt lat="40.0728353" lon="-105.2306568">
  <ele>1595.66</ele>
  <time>2026-08-27T18:28:54Z</time>
  <course>8.43</course>
  <speed>0.6621933252457322</speed>
  <fix>3d</fix>
</trkpt>
<trkpt lat="40.0728347" lon="-105.2306572">
  <ele>1595.6</ele>
  <time>2026-08-27T18:28:54Z</time>
  <course>17.97</course>
  <speed>0.53</speed>
  <fix>3d</fix>
</trkpt>
<trkpt lat="40.0728366" lon="-105.2306565">
  <ele>1595.66</ele>
  <time>2026-08-27T18:28:54Z</time>
  <course>8.4</course>
  <speed>0.7792945527847606</speed>
  <fix>3d</fix>
</trkpt>
<trkpt lat="40.0728357" lon="-105.2306569">
  <ele>1595.6</ele>
  <time>2026-08-27T18:28:54Z</time>
  <course>10.19</course>
  <speed>0.7</speed>
  <fix>3d</fix>
</trkpt>
<trkpt lat="40.0728381" lon="-105.2306564">
  <ele>1595.67</ele>
  <time>2026-08-27T18:28:54Z</time>
  <course>8.4</course>
  <speed>0.8321658488546619</speed>
  <fix>3d</fix>
</trkpt>
<trkpt lat="40.0728371" lon="-105.2306567">
  <ele>1595.6</ele>
  <time>2026-08-27T18:28:54Z</time>
  <course>4.9</course>
  <speed>0.81</speed>
  <fix>3d</fix>
</trkpt>
<trkpt lat="40.0728396" lon="-105.2306564">
  <ele>1595.68</ele>
  <time>2026-08-27T18:28:54Z</time>
  <course>8.45</course>
  <speed>0.8</speed>
  <fix>3d</fix>
</trkpt>
<trkpt lat="40.0728386" lon="-105.2306566">
  <ele>1595.6</ele>
  <time>2026-08-27T18:28:54Z</time>
  <course>0.37</course>
  <speed>0.84</speed>
  <fix>3d</fix>
</trkpt>
<trkpt lat="40.0728409" lon="-105.2306566">
  <ele>1595.68</ele>
  <time>2026-08-27T18:28:54Z</time>
  <course>8.55</course>
  <speed>0.7034912934784623</speed>
  <fix>3d</fix>
</trkpt>
<trkpt lat="40.0728401" lon="-105.2306567">
  <ele>1595.6</ele>
  <time>2026-08-27T18:28:54Z</time>
  <course>355.69</course>
  <speed>0.8</speed>
  <fix>3d</fix>
</trkpt>
<trkpt lat="40.0728421" lon="-105.2306568">
  <ele>1595.69</ele>
  <time>2026-08-27T18:28:54Z</time>
  <course>8.61</course>
  <speed>0.5360037313302959</speed>
  <fix>3d</fix>
</trkpt>
<trkpt lat="40.0728414" lon="-105.2306569">
  <ele>1595.61</ele>
  <time>2026-08-27T18:28:54Z</time>
  <course>349.87</course>
  <speed>0.69</speed>
  <fix>3d</fix>
</trkpt>
<trkpt lat="40.0728428" lon="-105.2306572">
  <ele>1595.69</ele>
  <time>2026-08-27T18:28:54Z</time>
  <course>8.68</course>
  <speed>0.34985711369071804</speed>
  <fix>3d</fix>
</trkpt>
<trkpt lat="40.0728425" lon="-105.2306572">
  <ele>1595.61</ele>
  <time>2026-08-27T18:28:54Z</time>
  <course>340.72</course>
  <speed>0.52</speed>
  <fix>3d</fix>
</trkpt>
<trkpt lat="40.0728432" lon="-105.2306578">
  <ele>1595.69</ele>
  <time>2026-08-27T18:28:54Z</time>
  <course>8.73</course>
  <speed>0.21377558326431947</speed>
  <fix>3d</fix>
</trkpt>
<trkpt lat="40.0728431" lon="-105.2306576">
  <ele>1595.61</ele>
  <time>2026-08-27T18:28:54Z</time>
  <course>321.38</course>
  <speed>0.33</speed>
  <fix>3d</fix>
</trkpt>
<trkpt lat="40.0728431" lon="-105.2306583">
  <ele>1595.69</ele>
  <time>2026-08-27T18:28:54Z</time>
  <course>8.68</course>
  <speed>0.31144823004794875</speed>
  <fix>3d</fix>
</trkpt>
<trkpt lat="40.0728434" lon="-105.2306581">
  <ele>1595.61</ele>
  <time>2026-08-27T18:28:54Z</time>
  <course>271.68</course>
  <speed>0.23</speed>
  <fix>3d</fix>
</trkpt>
<trkpt lat="40.0728426" lon="-105.2306589">
  <ele>1595.68</ele>
  <time>2026-08-27T18:28:54Z</time>
  <course>8.62</course>
  <speed>0.4965883607174055</speed>
  <fix>3d</fix>
</trkpt>
<trkpt lat="40.0728432" lon="-105.2306586">
  <ele>1595.6</ele>
  <time>2026-08-27T18:28:54Z</time>
  <course>222.4</course>
  <speed>0.33</speed>
  <fix>3d</fix>
</trkpt>
<trkpt lat="40.0728418" lon="-105.2306594">
  <ele>1595.67</ele>
  <time>2026-08-27T18:28:54Z</time>
  <course>8.55</course>
  <speed>0.6648308055437865</speed>
  <fix>3d</fix>
</trkpt>
<trkpt lat="40.0728425" lon="-105.2306592">
  <ele>1595.6</ele>
  <time>2026-08-27T18:28:54Z</time>
  <course>203.31</course>
  <speed>0.52</speed>
  <fix>3d</fix>
</trkpt>
<trkpt lat="40.0728405" lon="-105.2306598">
  <ele>1595.66</ele>
  <time>2026-08-27T18:28:54Z</time>
  <course>8.52</course>
  <speed>0.7907591289387687</speed>
  <fix>3d</fix>
</trkpt>
<trkpt lat="40.0728415" lon="-105.2306596">
  <ele>1595.59</ele>
  <time>2026-08-27T18:28:54Z</time>
  <course>194.22</course>
  <speed>0.68</speed>
  <fix>3d</fix>
</trkpt>
<trkpt lat="40.0728391" lon="-105.23066">
  <ele>1595.67</ele>
  <time>2026-08-27T18:28:54Z</time>
  <course>8.52</course>
  <speed>0.8329465769183519</speed>
  <fix>3d</fix>
</trkpt>
<trkpt lat="40.0728402" lon="-105.23066">
  <ele>1595.59</ele>
  <time>2026-08-27T18:28:54Z</time>
  <course>188.38</course>
  <speed>0.79</speed>
  <fix>3d</fix>
</trkpt>
<trkpt lat="40.0728377" lon="-105.2306601">
  <ele>1595.67</ele>
  <time>2026-08-27T18:28:54Z</time>
  <course>8.52</course>
  <speed>0.81</speed>
  <fix>3d</fix>
</trkpt>
<trkpt lat="40.0728388" lon="-105.2306601">
  <ele>1595.59</ele>
  <time>2026-08-27T18:28:54Z</time>
  <course>183.67</course>
  <speed>0.82</speed>
  <fix>3d</fix>
</trkpt>
<trkpt lat="40.0728364" lon="-105.23066">
  <ele>1595.67</ele>
  <time>2026-08-27T18:28:54Z</time>
  <course>8.56</course>
  <speed>0.7125307010929425</speed>
  <fix>3d</fix>
</trkpt>
<trkpt lat="40.0728374" lon="-105.2306602">
  <ele>1595.59</ele>
  <time>2026-08-27T18:28:54Z</time>
  <course>179.04</course>
  <speed>0.78</speed>
  <fix>3d</fix>
</trkpt>
<trkpt lat="40.0728353" lon="-105.2306599">
  <ele>1595.67</ele>
  <time>2026-08-27T18:28:54Z</time>
  <course>8.6</course>
  <speed>0.5434151267677411</speed>
  <fix>3d</fix>
</trkpt>
<trkpt lat="40.072836" lon="-105.2306601">
  <ele>1595.6</ele>
  <time>2026-08-27T18:28:54Z</time>
  <course>173.48</course>
  <speed>0.66</speed>
  <fix>3d</fix>
</trkpt>
<trkpt lat="40.0728345" lon="-105.2306596">
  <ele>1595.67</ele>
  <time>2026-08-27T18:28:54Z</time>
  <course>8.62</course>
  <speed>0.3535533905932738</speed>
  <fix>3d</fix>
</trkpt>
<trkpt lat="40.072835" lon="-105.2306599">
  <ele>1595.6</ele>
  <time>2026-08-27T18:28:54Z</time>
  <course>164.85</course>
  <speed>0.49</speed>
  <fix>3d</fix>
</trkpt>
<trkpt lat="40.0728342" lon="-105.2306592">
  <ele>1595.67</ele>
  <time>2026-08-27T18:28:54Z</time>
  <course>8.6</course>
  <speed>0.215870331449229</speed>
  <fix>3d</fix>
</trkpt>
<trkpt lat="40.0728344" lon="-105.2306596">
  <ele>1595.6</ele>
  <time>2026-08-27T18:28:54Z</time>
  <course>145.41</course>
  <speed>0.29</speed>
  <fix>3d</fix>
</trkpt>
<trkpt lat="40.0728343" lon="-105.2306587">
  <ele>1595.67</ele>
  <time>2026-08-27T18:28:54Z</time>
  <course>8.51</course>
  <speed>0.2780287754891569</speed>
  <fix>3d</fix>
</trkpt>
<trkpt lat="40.0728341" lon="-105.2306591">
  <ele>1595.6</ele>
  <time>2026-08-27T18:28:54Z</time>
  <course>86.79</course>
  <speed>0.18</speed>
  <fix>3d</fix>
</trkpt>
<trkpt lat="40.0728347" lon="-105.2306583">
  <ele>1595.67</ele>
  <time>2026-08-27T18:28:54Z</time>
  <course>8.44</course>
  <speed>0.34132096331752027</speed>
  <fix>3d</fix>
</trkpt>
<trkpt lat="40.0728344" lon="-105.2306587">
  <ele>1595.6</ele>
  <time>2026-08-27T18:28:54Z</time>
  <course>40.21</course>
  <speed>0.27</speed>
  <fix>3d</fix>
</trkpt>
<trkpt lat="40.0728352" lon="-105.230658">
  <ele>1595.67</ele>
  <time>2026-08-27T18:28:54Z</time>
  <course>8.52</course>
  <speed>0.35114099732158877</speed>
  <fix>3d</fix>
</trkpt>
<trkpt lat="40.0728349" lon="-105.2306584">
  <ele>1595.6</ele>
  <time>2026-08-27T18:28:54Z</time>
  <course>23.28</course>
  <speed>0.34</speed>
  <fix>3d</fix>
</trkpt>
<trkpt lat="40.0728358" lon="-105.2306578">
  <ele>1595.68</ele>
  <time>2026-08-27T18:28:54Z</time>
  <course>8.58</course>
  <speed>0.34713109915419565</speed>
  <fix>3d</fix>
</trkpt>
<trkpt lat="40.0728354" lon="-105.2306581">
  <ele>1595.6</ele>
  <time>2026-08-27T18:28:54Z</time>
  <course>12.99</course>
  <speed>0.36</speed>
  <fix>3d</fix>
</trkpt>
<trkpt lat="40.0728364" lon="-105.2306577">
  <ele>1595.68</ele>
  <time>2026-08-27T18:28:54Z</time>
  <course>8.62</course>
  <speed>0.32249030993194194</speed>
  <fix>3d</fix>
</trkpt>
<trkpt lat="40.072836" lon="-105.230658">
  <ele>1595.6</ele>
  <time>2026-08-27T18:28:54Z</time>
  <course>6.09</course>
  <speed>0.36</speed>
  <fix>3d</fix>
</trkpt>
<trkpt lat="40.072837" lon="-105.2306577">
  <ele>1595.68</ele>
  <time>2026-08-27T18:28:54Z</time>
  <course>8.63</course>
  <speed>0.30066592756745814</speed>
  <fix>3d</fix>
</trkpt>
<trkpt lat="40.0728366" lon="-105.2306579">
  <ele>1595.6</ele>
  <time>2026-08-27T18:28:54Z</time>
  <course>1.36</course>
  <speed>0.34</speed>
  <fix>3d</fix>
</trkpt>
<trkpt lat="40.0728375" lon="-105.2306577">
  <ele>1595.69</ele>
  <time>2026-08-27T18:28:54Z</time>
  <course>8.65</course>
  <speed>0.28</speed>
  <fix>3d</fix>
</trkpt>
<trkpt lat="40.0728373" lon="-105.2306579">
  <ele>1595.6</ele>
  <time>2026-08-27T18:28:54Z</time>
  <course>358.29</course>
  <speed>0.32</speed>
  <fix>3d</fix>
</trkpt>
<trkpt lat="40.072838" lon="-105.2306578">
  <ele>1595.69</ele>
  <time>2026-08-27T18:28:54Z</time>
  <course>8.63</course>
  <speed>0.26</speed>
  <fix>3d</fix>
</trkpt>
<trkpt lat="40.0728378" lon="-105.2306579">
  <ele>1595.59</ele>
  <time>2026-08-27T18:28:54Z</time>
  <course>356.6</course>
  <speed>0.3</speed>
  <fix>3d</fix>
</trkpt>
<trkpt lat="40.0728385" lon="-105.2306578">
  <ele>1595.68</ele>
  <time>2026-08-27T18:28:54Z</time>
  <course>8.67</course>
  <speed>0.24</speed>
  <fix>3d</fix>
</trkpt>
<trkpt lat="40.0728383" lon="-105.2306579">
  <ele>1595.59</ele>
  <time>2026-08-27T18:28:54Z</time>
  <course>355.83</course>
  <speed>0.28</speed>
  <fix>3d</fix>
</trkpt>
<trkpt lat="40.072839" lon="-105.2306578">
  <ele>1595.68</ele>
  <time>2026-08-27T18:28:54Z</time>
  <course>8.65</course>
  <speed>0.23</speed>
  <fix>3d</fix>
</trkpt>
<trkpt lat="40.0728388" lon="-105.2306579">
  <ele>1595.59</ele>
  <time>2026-08-27T18:28:54Z</time>
  <course>355.56</course>
  <speed>0.26</speed>
  <fix>3d</fix>
</trkpt>
<trkpt lat="40.0728394" lon="-105.2306578">
  <ele>1595.67</ele>
  <time>2026-08-27T18:28:55Z</time>
  <course>8.62</course>
  <speed>0.21</speed>
  <fix>3d</fix>
</trkpt>
<trkpt lat="40.0728393" lon="-105.230658">
  <ele>1595.58</ele>
  <time>2026-08-27T18:28:55Z</time>
  <course>355.62</course>
  <speed>0.25</speed>
  <fix>3d</fix>
</trkpt>
<trkpt lat="40.0728398" lon="-105.2306578">
  <ele>1595.67</ele>
  <time>2026-08-27T18:28:55Z</time>
  <course>8.62</course>
  <speed>0.2</speed>
  <fix>3d</fix>
</trkpt>
<trkpt lat="40.0728397" lon="-105.2306581">
  <ele>1595.58</ele>
  <time>2026-08-27T18:28:55Z</time>
  <course>355.81</course>
  <speed>0.23</speed>
  <fix>3d</fix>
</trkpt>
<trkpt lat="40.0728402" lon="-105.2306579">
  <ele>1595.67</ele>
  <time>2026-08-27T18:28:55Z</time>
  <course>8.61</course>
  <speed>0.19</speed>
  <fix>3d</fix>
</trkpt>
<trkpt lat="40.0728402" lon="-105.2306581">
  <ele>1595.58</ele>
  <time>2026-08-27T18:28:55Z</time>
  <course>355.99</course>
  <speed>0.22</speed>
  <fix>3d</fix>
</trkpt>
<trkpt lat="40.0728406" lon="-105.2306579">
  <ele>1595.67</ele>
  <time>2026-08-27T18:28:55Z</time>
  <course>8.6</course>
  <speed>0.18</speed>
  <fix>3d</fix>
</trkpt>
<trkpt lat="40.0728406" lon="-105.2306581">
  <ele>1595.58</ele>
  <time>2026-08-27T18:28:55Z</time>
  <course>356.16</course>
  <speed>0.21</speed>
  <fix>3d</fix>
</trkpt>
<trkpt lat="40.072841" lon="-105.2306579">
  <ele>1595.66</ele>
  <time>2026-08-27T18:28:55Z</time>
  <course>8.6</course>
  <speed>0.17</speed>
  <fix>3d</fix>
</trkpt>
<trkpt lat="40.0728409" lon="-105.2306581">
  <ele>1595.58</ele>
  <time>2026-08-27T18:28:55Z</time>
  <course>356.38</course>
  <speed>0.2</speed>
  <fix>3d</fix>
</trkpt>
<trkpt lat="40.0728413" lon="-105.230658">
  <ele>1595.66</ele>
  <time>2026-08-27T18:28:55Z</time>
  <course>8.59</course>
  <speed>0.16</speed>
  <fix>3d</fix>
</trkpt>
<trkpt lat="40.0728413" lon="-105.2306581">
  <ele>1595.58</ele>
  <time>2026-08-27T18:28:55Z</time>
  <course>356.59</course>
  <speed>0.19</speed>
  <fix>3d</fix>
</trkpt>
<trkpt lat="40.0728417" lon="-105.230658">
  <ele>1595.66</ele>
  <time>2026-08-27T18:28:55Z</time>
  <course>8.6</course>
  <speed>0.16</speed>
  <fix>3d</fix>
</trkpt>
<trkpt lat="40.0728417" lon="-105.2306582">
  <ele>1595.58</ele>
  <time>2026-08-27T18:28:55Z</time>
  <course>356.84</course>
  <speed>0.18</speed>
  <fix>3d</fix>
</trkpt>
<trkpt lat="40.072842" lon="-105.230658">
  <ele>1595.66</ele>
  <time>2026-08-27T18:28:55Z</time>
  <course>8.58</course>
  <speed>0.15</speed>
  <fix>3d</fix>
</trkpt>
<trkpt lat="40.072842" lon="-105.2306583">
  <ele>1595.58</ele>
  <time>2026-08-27T18:28:55Z</time>
  <course>357.19</course>
  <speed>0.18</speed>
  <fix>3d</fix>
</trkpt>
<trkpt lat="40.0728423" lon="-105.230658">
  <ele>1595.66</ele>
  <time>2026-08-27T18:28:55Z</time>
  <course>8.59</course>
  <speed>0.17029386365926402</speed>
  <fix>3d</fix>
</trkpt>
<trkpt lat="40.0728423" lon="-105.2306583">
  <ele>1595.59</ele>
  <time>2026-08-27T18:28:55Z</time>
  <course>358.02</course>
  <speed>0.18</speed>
  <fix>3d</fix>
</trkpt>
<trkpt lat="40.0728427" lon="-105.230658">
  <ele>1595.66</ele>
  <time>2026-08-27T18:28:55Z</time>
  <course>8.58</course>
  <speed>0.2220360331117452</speed>
  <fix>3d</fix>
</trkpt>
<trkpt lat="40.0728426" lon="-105.2306583">
  <ele>1595.59</ele>
  <time>2026-08-27T18:28:55Z</time>
  <course>0.8</course>
  <speed>0.2</speed>
  <fix>3d</fix>
</trkpt>
<trkpt lat="40.0728432" lon="-105.230658">
  <ele>1595.66</ele>
  <time>2026-08-27T18:28:55Z</time>
  <course>8.58</course>
  <speed>0.3059411708155671</speed>
  <fix>3d</fix>
</trkpt>
<trkpt lat="40.0728431" lon="-105.2306583">
  <ele>1595.59</ele>
  <time>2026-08-27T18:28:55Z</time>
  <course>4.68</course>
  <speed>0.26</speed>
  <fix>3d</fix>
</trkpt>
<trkpt lat="40.0728439" lon="-105.2306579">
  <ele>1595.66</ele>
  <time>2026-08-27T18:28:55Z</time>
  <course>8.55</course>
  <speed>0.41773197148410846</speed>
  <fix>3d</fix>
</trkpt>
<trkpt lat="40.0728436" lon="-105.2306582">
  <ele>1595.59</ele>
  <time>2026-08-27T18:28:55Z</time>
  <course>7.45</course>
  <speed>0.35</speed>
  <fix>3d</fix>
</trkpt>
<trkpt lat="40.0728448" lon="-105.2306577">
  <ele>1595.66</ele>
  <time>2026-08-27T18:28:55Z</time>
  <course>8.52</course>
  <speed>0.5295280917949491</speed>
  <fix>3d</fix>
</trkpt>
<trkpt lat="40.0728443" lon="-105.2306581">
  <ele>1595.59</ele>
  <time>2026-08-27T18:28:55Z</time>
  <course>8.66</course>
  <speed>0.46</speed>
  <fix>3d</fix>
</trkpt>
<trkpt lat="40.0728458" lon="-105.2306575">
  <ele>1595.66</ele>
  <time>2026-08-27T18:28:55Z</time>
  <course>8.5</course>
  <speed>0.6198386886924694</speed>
  <fix>3d</fix>
</trkpt>
<trkpt lat="40.0728453" lon="-105.230658">
  <ele>1595.59</ele>
  <time>2026-08-27T18:28:55Z</time>
  <course>8.66</course>
  <speed>0.57</speed>
  <fix>3d</fix>
</trkpt>
<trkpt lat="40.072847" lon="-105.2306573">
  <ele>1595.66</ele>
  <time>2026-08-27T18:28:55Z</time>
  <course>8.47</course>
  <speed>0.688839603971781</speed>
  <fix>3d</fix>
</trkpt>
<trkpt lat="40.0728463" lon="-105.2306577">
  <ele>1595.6</ele>
  <time>2026-08-27T18:28:55Z</time>
  <course>7.89</course>
  <speed>0.66</speed>
  <fix>3d</fix>
</trkpt>
<trkpt lat="40.0728483" lon="-105.2306572">
  <ele>1595.67</ele>
  <time>2026-08-27T18:28:55Z</time>
  <course>8.47</course>
  <speed>0.7156814934033155</speed>
  <fix>3d</fix>
</trkpt>
<trkpt lat="40.0728476" lon="-105.2306575">
  <ele>1595.6</ele>
  <time>2026-08-27T18:28:55Z</time>
  <course>6.57</course>
  <speed>0.72</speed>
  <fix>3d</fix>
</trkpt>
<trkpt lat="40.0728496" lon="-105.230657">
  <ele>1595.67</ele>
  <time>2026-08-27T18:28:55Z</time>
  <course>8.52</course>
  <speed>0.671863081289633</speed>
  <fix>3d</fix>
</trkpt>
<trkpt lat="40.072849" lon="-105.2306573">
  <ele>1595.6</ele>
  <time>2026-08-27T18:28:55Z</time>
  <course>4.72</course>
  <speed>0.73</speed>
  <fix>3d</fix>
</trkpt>
<trkpt lat="40.0728508" lon="-105.230657">
  <ele>1595.68</ele>
  <time>2026-08-27T18:28:55Z</time>
  <course>8.56</course>
  <speed>0.5800862004909271</speed>
  <fix>3d</fix>
</trkpt>
<trkpt lat="40.0728503" lon="-105.2306572">
  <ele>1595.6</ele>
  <time>2026-08-27T18:28:55Z</time>
  <course>2.22</course>
  <speed>0.68</speed>
  <fix>3d</fix>
</trkpt>
<trkpt lat="40.0728517" lon="-105.2306571">
  <ele>1595.69</ele>
  <time>2026-08-27T18:28:55Z</time>
  <course>8.6</course>
  <speed>0.4410215414239989</speed>
  <fix>3d</fix>
</trkpt>
<trkpt lat="40.0728514" lon="-105.2306572">
  <ele>1595.61</ele>
  <time>2026-08-27T18:28:55Z</time>
  <course>358.6</course>
  <speed>0.57</speed>
  <fix>3d</fix>
</trkpt>
<trkpt lat="40.0728524" lon="-105.2306572">
  <ele>1595.69</ele>
  <time>2026-08-27T18:28:55Z</time>
  <course>8.64</course>
  <speed>0.2529822128134704</speed>
  <fix>3d</fix>
</trkpt>
<trkpt lat="40.0728522" lon="-105.2306572">
  <ele>1595.61</ele>
  <time>2026-08-27T18:28:55Z</time>
  <course>352.27</course>
  <speed>0.42</speed>
  <fix>3d</fix>
</trkpt>
<trkpt lat="40.0728527" lon="-105.2306574">
  <ele>1595.68</ele>
  <time>2026-08-27T18:28:55Z</time>
  <course>8.66</course>
  <speed>0.12165525060596438</speed>
  <fix>3d</fix>
</trkpt>
<trkpt lat="40.0728529" lon="-105.2306573">
  <ele>1595.61</ele>
  <time>2026-08-27T18:28:55Z</time>
  <course>336.01</course>
  <speed>0.23</speed>
  <fix>3d</fix>
</trkpt>
<trkpt lat="40.0728526" lon="-105.2306578">
  <ele>1595.68</ele>
  <time>2026-08-27T18:28:55Z</time>
  <course>8.62</course>
  <speed>0.25238858928247926</speed>
  <fix>3d</fix>
</trkpt>
<trkpt lat="40.072853" lon="-105.2306576">
  <ele>1595.61</ele>
  <time>2026-08-27T18:28:55Z</time>
  <course>263.73</course>
  <speed>0.12</speed>
  <fix>3d</fix>
</trkpt>
<trkpt lat="40.0728522" lon="-105.2306581">
  <ele>1595.67</ele>
  <time>2026-08-27T18:28:55Z</time>
  <course>8.58</course>
  <speed>0.45880278987817846</speed>
  <fix>3d</fix>
</trkpt>
<trkpt lat="40.0728528" lon="-105.2306579">
  <ele>1595.6</ele>
  <time>2026-08-27T18:28:55Z</time>
  <course>210.04</course>
  <speed>0.28</speed>
  <fix>3d</fix>
</trkpt>
<trkpt lat="40.0728513" lon="-105.2306585">
  <ele>1595.67</ele>
  <time>2026-08-27T18:28:55Z</time>
  <course>8.49</course>
  <speed>0.6378871373526824</speed>
  <fix>3d</fix>
</trkpt>
<trkpt lat="40.0728522" lon="-105.2306583">
  <ele>1595.6</ele>
  <time>2026-08-27T18:28:55Z</time>
  <course>197.35</course>
  <speed>0.49</speed>
  <fix>3d</fix>
</trkpt>
<trkpt lat="40.0728501" lon="-105.2306588">
  <ele>1595.67</ele>
  <time>2026-08-27T18:28:55Z</time>
  <course>8.46</course>
  <speed>0.7694153624668537</speed>
  <fix>3d</fix>
</trkpt>
<trkpt lat="40.0728512" lon="-105.2306586">
  <ele>1595.6</ele>
  <time>2026-08-27T18:28:55Z</time>
  <course>191.52</course>
  <speed>0.66</speed>
  <fix>3d</fix>
</trkpt>
<trkpt lat="40.0728487" lon="-105.230659">
  <ele>1595.67</ele>
  <time>2026-08-27T18:28:55Z</time>
  <course>8.46</course>
  <speed>0.8338465086573187</speed>
  <fix>3d</fix>
</trkpt>
<trkpt lat="40.07285" lon="-105.2306589">
  <ele>1595.6</ele>
  <time>2026-08-27T18:28:55Z</time>
  <course>187.63</course>
  <speed>0.78</speed>
  <fix>3d</fix>
</trkpt>
<trkpt lat="40.0728473" lon="-105.2306591">
  <ele>1595.66</ele>
  <time>2026-08-27T18:28:55Z</time>
  <course>8.47</course>
  <speed>0.8305419917138447</speed>
  <fix>3d</fix>
</trkpt>
<trkpt lat="40.0728485" lon="-105.2306591">
  <ele>1595.6</ele>
  <time>2026-08-27T18:28:55Z</time>
  <course>184.31</course>
  <speed>0.83</speed>
  <fix>3d</fix>
</trkpt>
<trkpt lat="40.0728459" lon="-105.2306591">
  <ele>1595.67</ele>
  <time>2026-08-27T18:28:55Z</time>
  <course>8.5</course>
  <speed>0.7402702209328699</speed>
  <fix>3d</fix>
</trkpt>
<trkpt lat="40.072847" lon="-105.2306592">
  <ele>1595.6</ele>
  <time>2026-08-27T18:28:55Z</time>
  <course>180.93</course>
  <speed>0.8</speed>
  <fix>3d</fix>
</trkpt>
<trkpt lat="40.0728447" lon="-105.2306591">
  <ele>1595.67</ele>
  <time>2026-08-27T18:28:55Z</time>
  <course>8.55</course>
  <speed>0.5953990258641678</speed>
  <fix>3d</fix>
</trkpt>
<trkpt lat="40.0728456" lon="-105.2306593">
  <ele>1595.6</ele>
  <time>2026-08-27T18:28:55Z</time>
  <course>176.87</course>
  <speed>0.7</speed>
  <fix>3d</fix>
</trkpt>
<trkpt lat="40.0728439" lon="-105.2306589">
  <ele>1595.67</ele>
  <time>2026-08-27T18:28:55Z</time>
  <course>8.57</course>
  <speed>0.4016217125604641</speed>
  <fix>3d</fix>
</trkpt>
<trkpt lat="40.0728445" lon="-105.2306591">
  <ele>1595.61</ele>
  <time>2026-08-27T18:28:55Z</time>
  <course>170.9</course>
  <speed>0.54</speed>
  <fix>3d</fix>
</trkpt>
<trkpt lat="40.0728434" lon="-105.2306585">
  <ele>1595.67</ele>
  <time>2026-08-27T18:28:55Z</time>
  <course>8.58</course>
  <speed>0.22022715545545238</speed>
  <fix>3d</fix>
</trkpt>
<trkpt lat="40.0728438" lon="-105.2306589">
  <ele>1595.61</ele>
  <time>2026-08-27T18:28:55Z</time>
  <course>158.79</course>
  <speed>0.34</speed>
  <fix>3d</fix>
</trkpt>
<trkpt lat="40.0728434" lon="-105.2306581">
  <ele>1595.67</ele>
  <time>2026-08-27T18:28:55Z</time>
  <course>8.55</course>
  <speed>0.2195449840010015</speed>
  <fix>3d</fix>
</trkpt>
<trkpt lat="40.0728433" lon="-105.2306586">
  <ele>1595.62</ele>
  <time>2026-08-27T18:28:55Z</time>
  <course>116.11</course>
  <speed>0.16</speed>
  <fix>3d</fix>
</trkpt>
<trkpt lat="40.0728437" lon="-105.2306577">
  <ele>1595.67</ele>
  <time>2026-08-27T18:28:55Z</time>
  <course>8.51</course>
  <speed>0.40249223594996214</speed>
  <fix>3d</fix>
</trkpt>
<trkpt lat="40.0728435" lon="-105.2306581">
  <ele>1595.62</ele>
  <time>2026-08-27T18:28:55Z</time>
  <course>40.36</course>
  <speed>0.24</speed>
  <fix>3d</fix>
</trkpt>
<trkpt lat="40.0728445" lon="-105.2306574">
  <ele>1595.67</ele>
  <time>2026-08-27T18:28:55Z</time>
  <course>8.44</course>
  <speed>0.5920304046246274</speed>
  <fix>3d</fix>
</trkpt>
<trkpt lat="40.072844" lon="-105.2306578">
  <ele>1595.62</ele>
  <time>2026-08-27T18:28:55Z</time>
  <course>18.8</course>
  <speed>0.44</speed>
  <fix>3d</fix>
</trkpt>
<trkpt lat="40.0728457" lon="-105.2306571">
  <ele>1595.67</ele>
  <time>2026-08-27T18:28:55Z</time>
  <course>8.41</course>
  <speed>0.7414849964766651</speed>
  <fix>3d</fix>
</trkpt>
<trkpt lat="40.0728449" lon="-105.2306575">
  <ele>1595.61</ele>
  <time>2026-08-27T18:28:55Z</time>
  <course>10.4</course>
  <speed>0.63</speed>
  <fix>3d</fix>
</trkpt>
<trkpt lat="40.0728471" lon="-105.2306569">
  <ele>1595.67</ele>
  <time>2026-08-27T18:28:55Z</time>
  <course>8.41</course>
  <speed>0.8130190649671138</speed>
  <fix>3d</fix>
</trkpt>
<trkpt lat="40.0728462" lon="-105.2306573">
  <ele>1595.61</ele>
  <time>2026-08-27T18:28:55Z</time>
  <course>5.2</course>
  <speed>0.77</speed>
  <fix>3d</fix>
</trkpt>
<trkpt lat="40.0728486" lon="-105.2306569">
  <ele>1595.67</ele>
  <time>2026-08-27T18:28:55Z</time>
  <course>8.42</course>
  <speed>0.8200609733428362</speed>
  <fix>3d</fix>
</trkpt>
<trkpt lat="40.0728476" lon="-105.2306572">
  <ele>1595.61</ele>
  <time>2026-08-27T18:28:55Z</time>
  <course>0.98</course>
  <speed>0.83</speed>
  <fix>3d</fix>
</trkpt>
<trkpt lat="40.07285" lon="-105.230657">
  <ele>1595.67</ele>
  <time>2026-08-27T18:28:55Z</time>
  <course>8.5</course>
  <speed>0.7416872656315463</speed>
  <fix>3d</fix>
</trkpt>
<trkpt lat="40.0728491" lon="-105.2306572">
  <ele>1595.61</ele>
  <time>2026-08-27T18:28:55Z</time>
  <course>356.78</course>
  <speed>0.82</speed>
  <fix>3d</fix>
</trkpt>
<trkpt lat="40.0728512" lon="-105.2306572">
  <ele>1595.67</ele>
  <time>2026-08-27T18:28:55Z</time>
  <course>8.56</course>
  <speed>0.6001666435249463</speed>
  <fix>3d</fix>
</trkpt>
<trkpt lat="40.0728505" lon="-105.2306573">
  <ele>1595.62</ele>
  <time>2026-08-27T18:28:55Z</time>
  <course>351.77</course>
  <speed>0.73</speed>
  <fix>3d</fix>
</trkpt>
<trkpt lat="40.0728521" lon="-105.2306576">
  <ele>1595.67</ele>
  <time>2026-08-27T18:28:55Z</time>
  <course>8.58</course>
  <speed>0.41231056256176607</speed>
  <fix>3d</fix>
</trkpt>
<trkpt lat="40.0728517" lon="-105.2306576">
  <ele>1595.62</ele>
  <time>2026-08-27T18:28:55Z</time>
  <course>344.49</course>
  <speed>0.59</speed>
  <fix>3d</fix>
</trkpt>
<trkpt lat="40.0728527" lon="-105.2306581">
  <ele>1595.68</ele>
  <time>2026-08-27T18:28:55Z</time>
  <course>8.63</course>
  <speed>0.24413111231467405</speed>
  <fix>3d</fix>
</trkpt>
<trkpt lat="40.0728525" lon="-105.230658">
  <ele>1595.63</ele>
  <time>2026-08-27T18:28:55Z</time>
  <course>330.64</course>
  <speed>0.4</speed>
  <fix>3d</fix>
</trkpt>
<trkpt lat="40.0728527" lon="-105.2306587">
  <ele>1595.68</ele>
  <time>2026-08-27T18:28:55Z</time>
  <course>8.64</course>
  <speed>0.24596747752497689</speed>
  <fix>3d</fix>
</trkpt>
<trkpt lat="40.0728529" lon="-105.2306585">
  <ele>1595.63</ele>
  <time>2026-08-27T18:28:55Z</time>
  <course>294.78</course>
  <speed>0.24</speed>
  <fix>3d</fix>
</trkpt>
<trkpt lat="40.0728525" lon="-105.2306592">
  <ele>1595.68</ele>
  <time>2026-08-27T18:28:55Z</time>
  <course>8.64</course>
  <speed>0.4167733196834941</speed>
  <fix>3d</fix>
</trkpt>
<trkpt lat="40.0728529" lon="-105.2306591">
  <ele>1595.63</ele>
  <time>2026-08-27T18:28:55Z</time>
  <course>235.81</course>
  <speed>0.27</speed>
  <fix>3d</fix>
</trkpt>
<trkpt lat="40.0728517" lon="-105.2306597">
  <ele>1595.68</ele>
  <time>2026-08-27T18:28:55Z</time>
  <course>8.56</course>
  <speed>0.6008327554319921</speed>
  <fix>3d</fix>
</trkpt>
<trkpt lat="40.0728524" lon="-105.2306596">
  <ele>1595.62</ele>
  <time>2026-08-27T18:28:55Z</time>
  <course>208.47</course>
  <speed>0.45</speed>
  <fix>3d</fix>
</trkpt>
<trkpt lat="40.0728506" lon="-105.2306602">
  <ele>1595.68</ele>
  <time>2026-08-27T18:28:55Z</time>
  <course>8.53</course>
  <speed>0.7452516353554683</speed>
  <fix>3d</fix>
</trkpt>
<trkpt lat="40.0728516" lon="-105.2306601">
  <ele>1595.62</ele>
  <time>2026-08-27T18:28:55Z</time>
  <course>197.07</course>
  <speed>0.62</speed>
  <fix>3d</fix>
</trkpt>
<trkpt lat="40.0728492" lon="-105.2306605">
  <ele>1595.68</ele>
  <time>2026-08-27T18:28:55Z</time>
  <course>8.5</course>
  <speed>0.8260750571225353</speed>
  <fix>3d</fix>
</trkpt>
<trkpt lat="40.0728504" lon="-105.2306605">
  <ele>1595.62</ele>
  <time>2026-08-27T18:28:55Z</time>
  <course>190.49</course>
  <speed>0.75</speed>
  <fix>3d</fix>
</trkpt>
<trkpt lat="40.0728478" lon="-105.2306607">
  <ele>1595.68</ele>
  <time>2026-08-27T18:28:55Z</time>
  <course>8.5</course>
  <speed>0.8305419917138447</speed>
  <fix>3d</fix>
</trkpt>
<trkpt lat="40.0728489" lon="-105.2306607">
  <ele>1595.62</ele>
  <time>2026-08-27T18:28:55Z</time>
  <course>185.57</course>
  <speed>0.81</speed>
  <fix>3d</fix>
</trkpt>
<trkpt lat="40.0728464" lon="-105.2306607">
  <ele>1595.68</ele>
  <time>2026-08-27T18:28:55Z</time>
  <course>8.54</course>
  <speed>0.7505997601918082</speed>
  <fix>3d</fix>
</trkpt>
<trkpt lat="40.0728474" lon="-105.2306608">
  <ele>1595.62</ele>
  <time>2026-08-27T18:28:55Z</time>
  <course>181.09</course>
  <speed>0.8</speed>
  <fix>3d</fix>
</trkpt>
<trkpt lat="40.0728452" lon="-105.2306606">
  <ele>1595.68</ele>
  <time>2026-08-27T18:28:55Z</time>
  <course>8.58</course>
  <speed>0.6181423784210236</speed>
  <fix>3d</fix>
</trkpt>
<trkpt lat="40.0728461" lon="-105.2306608">
  <ele>1595.62</ele>
  <time>2026-08-27T18:28:55Z</time>
  <course>176.13</course>
  <speed>0.71</speed>
  <fix>3d</fix>
</trkpt>
<trkpt lat="40.0728443" lon="-105.2306603">
  <ele>1595.68</ele>
  <time>2026-08-27T18:28:55Z</time>
  <course>8.61</course>
  <speed>0.42720018726587655</speed>
  <fix>3d</fix>
</trkpt>
<trkpt lat="40.072845" lon="-105.2306607">
  <ele>1595.62</ele>
  <time>2026-08-27T18:28:55Z</time>
  <course>169.24</course>
  <speed>0.56</speed>
  <fix>3d</fix>
</trkpt>
<trkpt lat="40.0728438" lon="-105.23066">
  <ele>1595.68</ele>
  <time>2026-08-27T18:28:55Z</time>
  <course>8.6</course>
  <speed>0.2420743687382041</speed>
  <fix>3d</fix>
</trkpt>
<trkpt lat="40.0728441" lon="-105.2306604">
  <ele>1595.62</ele>
  <time>2026-08-27T18:28:55Z</time>
  <course>156.13</course>
  <speed>0.36</speed>
  <fix>3d</fix>
</trkpt>
<trkpt lat="40.0728438" lon="-105.2306595">
  <ele>1595.68</ele>
  <time>2026-08-27T18:28:55Z</time>
  <course>8.58</course>
  <speed>0.23259406699226015</speed>
  <fix>3d</fix>
</trkpt>
<trkpt lat="40.0728438" lon="-105.23066">
  <ele>1595.62</ele>
  <time>2026-08-27T18:28:55Z</time>
  <course>116.43</course>
  <speed>0.19</speed>
  <fix>3d</fix>
</trkpt>
<trkpt lat="40.0728441" lon="-105.2306591">
  <ele>1595.68</ele>
  <time>2026-08-27T18:28:55Z</time>
  <course>8.55</course>
  <speed>0.3996248240537617</speed>
  <fix>3d</fix>
</trkpt>
<trkpt lat="40.0728438" lon="-105.2306596">
  <ele>1595.62</ele>
  <time>2026-08-27T18:28:55Z</time>
  <course>46.9</course>
  <speed>0.25</speed>
  <fix>3d</fix>
</trkpt>
<trkpt lat="40.0728449" lon="-105.2306587">
  <ele>1595.68</ele>
  <time>2026-08-27T18:28:55Z</time>
  <course>8.48</course>
  <speed>0.5913543776789008</speed>
  <fix>3d</fix>
</trkpt>
<trkpt lat="40.0728443" lon="-105.2306591">
  <ele>1595.61</ele>
  <time>2026-08-27T18:28:55Z</time>
  <course>22.24</course>
  <speed>0.44</speed>
  <fix>3d</fix>
</trkpt>
<trkpt lat="40.072846" lon="-105.2306583">
  <ele>1595.68</ele>
  <time>2026-08-27T18:28:55Z</time>
  <course>8.44</course>
  <speed>0.73348483283569</speed>
  <fix>3d</fix>
</trkpt>
<trkpt lat="40.0728452" lon="-105.2306588">
  <ele>1595.61</ele>
  <time>2026-08-27T18:28:55Z</time>
  <course>12.44</course>
  <speed>0.63</speed>
  <fix>3d</fix>
</trkpt>
<trkpt lat="40.0728474" lon="-105.2306581">
  <ele>1595.68</ele>
  <time>2026-08-27T18:28:55Z</time>
  <course>8.43</course>
  <speed>0.8139410298049853</speed>
  <fix>3d</fix>
</trkpt>
<trkpt lat="40.0728465" lon="-105.2306586">
  <ele>1595.61</ele>
  <time>2026-08-27T18:28:55Z</time>
  <course>6.53</course>
  <speed>0.76</speed>
  <fix>3d</fix>
</trkpt>
<trkpt lat="40.0728489" lon="-105.2306581">
  <ele>1595.68</ele>
  <time>2026-08-27T18:28:55Z</time>
  <course>8.5</course>
  <speed>0.8102468759581859</speed>
  <fix>3d</fix>
</trkpt>
<trkpt lat="40.0728479" lon="-105.2306584">
  <ele>1595.6</ele>
  <time>2026-08-27T18:28:55Z</time>
  <course>1.89</course>
  <speed>0.83</speed>
  <fix>3d</fix>
</trkpt>
<trkpt lat="40.0728503" lon="-105.2306582">
  <ele>1595.69</ele>
  <time>2026-08-27T18:28:55Z</time>
  <course>8.54</course>
  <speed>0.7410802925459562</speed>
  <fix>3d</fix>
</trkpt>
<trkpt lat="40.0728494" lon="-105.2306584">
  <ele>1595.6</ele>
  <time>2026-08-27T18:28:55Z</time>
  <course>357.43</course>
  <speed>0.82</speed>
  <fix>3d</fix>
</trkpt>
<trkpt lat="40.0728515" lon="-105.2306584">
  <ele>1595.68</ele>
  <time>2026-08-27T18:28:55Z</time>
  <course>8.61</course>
  <speed>0.6001666435249463</speed>
  <fix>3d</fix>
</trkpt>
<trkpt lat="40.0728508" lon="-105.2306585">
  <ele>1595.6</ele>
  <time>2026-08-27T18:28:55Z</time>
  <course>352.24</course>
  <speed>0.74</speed>
  <fix>3d</fix>
</trkpt>
<trkpt lat="40.0728524" lon="-105.2306588">
  <ele>1595.68</ele>
  <time>2026-08-27T18:28:55Z</time>
  <course>8.69</course>
  <speed>0.4215447781671598</speed>
  <fix>3d</fix>
</trkpt>
<trkpt lat="40.072852" lon="-105.2306587">
  <ele>1595.6</ele>
  <time>2026-08-27T18:28:55Z</time>
  <course>344.81</course>
  <speed>0.59</speed>
  <fix>3d</fix>
</trkpt>
<trkpt lat="40.072853" lon="-105.2306593">
  <ele>1595.68</ele>
  <time>2026-08-27T18:28:55Z</time>
  <course>8.67</course>
  <speed>0.24413111231467405</speed>
  <fix>3d</fix>
</trkpt>
<trkpt lat="40.0728528" lon="-105.2306592">
  <ele>1595.6</ele>
  <time>2026-08-27T18:28:55Z</time>
  <course>331.04</course>
  <speed>0.4</speed>
  <fix>3d</fix>
</trkpt>
<trkpt lat="40.0728531" lon="-105.2306598">
  <ele>1595.68</ele>
  <time>2026-08-27T18:28:55Z</time>
  <course>8.64</course>
  <speed>0.24596747752497689</speed>
  <fix>3d</fix>
</trkpt>
<trkpt lat="40.0728533" lon="-105.2306597">
  <ele>1595.6</ele>
  <time>2026-08-27T18:28:55Z</time>
  <course>295.9</course>
  <speed>0.24</speed>
  <fix>3d</fix>
</trkpt>
<trkpt lat="40.0728527" lon="-105.2306604">
  <ele>1595.68</ele>
  <time>2026-08-27T18:28:55Z</time>
  <course>8.64</course>
  <speed>0.4219004621945798</speed>
  <fix>3d</fix>
</trkpt>
<trkpt lat="40.0728532" lon="-105.2306603">
  <ele>1595.6</ele>
  <time>2026-08-27T18:28:55Z</time>
  <course>237.05</course>
  <speed>0.27</speed>
  <fix>3d</fix>
</trkpt>
<trkpt lat="40.072852" lon="-105.2306609">
  <ele>1595.68</ele>
  <time>2026-08-27T18:28:55Z</time>
  <course>8.55</course>
  <speed>0.6040695324215583</speed>
  <fix>3d</fix>
</trkpt>
<trkpt lat="40.0728527" lon="-105.2306608">
  <ele>1595.59</ele>
  <time>2026-08-27T18:28:55Z</time>
  <course>209.02</course>
  <speed>0.45</speed>
  <fix>3d</fix>
</trkpt>
<trkpt lat="40.0728509" lon="-105.2306614">
  <ele>1595.67</ele>
  <time>2026-08-27T18:28:55Z</time>
  <course>8.52</course>
  <speed>0.7473285756613351</speed>
  <fix>3d</fix>
</trkpt>
<trkpt lat="40.0728519" lon="-105.2306613">
  <ele>1595.59</ele>
  <time>2026-08-27T18:28:55Z</time>
  <course>197.36</course>
  <speed>0.62</speed>
  <fix>3d</fix>
</trkpt>
<trkpt lat="40.0728496" lon="-105.2306617">
  <ele>1595.67</ele>
  <time>2026-08-27T18:28:55Z</time>
  <course>8.5</course>
  <speed>0.8260750571225353</speed>
  <fix>3d</fix>
</trkpt>
<trkpt lat="40.0728507" lon="-105.2306616">
  <ele>1595.59</ele>
  <time>2026-08-27T18:28:55Z</time>
  <course>190.65</course>
  <speed>0.75</speed>
  <fix>3d</fix>
</trkpt>
<trkpt lat="40.0728482" lon="-105.2306619">
  <ele>1595.67</ele>
  <time>2026-08-27T18:28:55Z</time>
  <course>8.5</course>
  <speed>0.8205485969764374</speed>
  <fix>3d</fix>
</trkpt>
<trkpt lat="40.0728493" lon="-105.2306619">
  <ele>1595.59</ele>
  <time>2026-08-27T18:28:55Z</time>
  <course>185.64</course>
  <speed>0.81</speed>
  <fix>3d</fix>
</trkpt>
<trkpt lat="40.0728468" lon="-105.2306619">
  <ele>1595.68</ele>
  <time>2026-08-27T18:28:55Z</time>
  <course>8.53</course>
  <speed>0.7505997601918082</speed>
  <fix>3d</fix>
</trkpt>
<trkpt lat="40.0728479" lon="-105.230662">
  <ele>1595.59</ele>
  <time>2026-08-27T18:28:55Z</time>
  <course>181.07</course>
  <speed>0.8</speed>
  <fix>3d</fix>
</trkpt>
<trkpt lat="40.0728456" lon="-105.2306618">
  <ele>1595.68</ele>
  <time>2026-08-27T18:28:55Z</time>
  <course>8.58</course>
  <speed>0.608276253029822</speed>
  <fix>3d</fix>
</trkpt>
<trkpt lat="40.0728465" lon="-105.230662">
  <ele>1595.59</ele>
  <time>2026-08-27T18:28:55Z</time>
  <course>176.01</course>
  <speed>0.71</speed>
  <fix>3d</fix>
</trkpt>
<trkpt lat="40.0728447" lon="-105.2306615">
  <ele>1595.69</ele>
  <time>2026-08-27T18:28:55Z</time>
  <course>8.61</course>
  <speed>0.42720018726587655</speed>
  <fix>3d</fix>
</trkpt>
<trkpt lat="40.0728454" lon="-105.2306619">
  <ele>1595.59</ele>
  <time>2026-08-27T18:28:55Z</time>
  <course>169.01</course>
  <speed>0.56</speed>
  <fix>3d</fix>
</trkpt>
<trkpt lat="40.0728442" lon="-105.2306612">
  <ele>1595.69</ele>
  <time>2026-08-27T18:28:55Z</time>
  <course>8.63</course>
  <speed>0.2420743687382041</speed>
  <fix>3d</fix>
</trkpt>
<trkpt lat="40.0728445" lon="-105.2306615">
  <ele>1595.59</ele>
  <time>2026-08-27T18:28:55Z</time>
  <course>155.72</course>
  <speed>0.36</speed>
  <fix>3d</fix>
</trkpt>
<trkpt lat="40.0728442" lon="-105.2306607">
  <ele>1595.69</ele>
  <time>2026-08-27T18:28:55Z</time>
  <course>8.6</course>
  <speed>0.22847319317591727</speed>
  <fix>3d</fix>
</trkpt>
<trkpt lat="40.0728441" lon="-105.2306611">
  <ele>1595.59</ele>
  <time>2026-08-27T18:28:55Z</time>
  <course>116.15</course>
  <speed>0.2</speed>
  <fix>3d</fix>
</trkpt>
<trkpt lat="40.0728446" lon="-105.2306602">
  <ele>1595.69</ele>
  <time>2026-08-27T18:28:55Z</time>
  <course>8.56</course>
  <speed>0.3996248240537617</speed>
  <fix>3d</fix>
</trkpt>
<trkpt lat="40.0728442" lon="-105.2306608">
  <ele>1595.58</ele>
  <time>2026-08-27T18:28:55Z</time>
  <course>47.78</course>
  <speed>0.25</speed>
  <fix>3d</fix>
</trkpt>
<trkpt lat="40.0728453" lon="-105.2306598">
  <ele>1595.68</ele>
  <time>2026-08-27T18:28:55Z</time>
  <course>8.53</course>
  <speed>0.5913543776789008</speed>
  <fix>3d</fix>
</trkpt>
<trkpt lat="40.0728447" lon="-105.2306603">
  <ele>1595.57</ele>
  <time>2026-08-27T18:28:55Z</time>
  <course>22.88</course>
  <speed>0.44</speed>
  <fix>3d</fix>
</trkpt>
<trkpt lat="40.0728464" lon="-105.2306595">
  <ele>1595.67</ele>
  <time>2026-08-27T18:28:55Z</time>
  <course>8.47</course>
  <speed>0.7354590403278758</speed>
  <fix>3d</fix>
</trkpt>
<trkpt lat="40.0728456" lon="-105.23066">
  <ele>1595.56</ele>
  <time>2026-08-27T18:28:55Z</time>
  <course>12.96</course>
  <speed>0.63</speed>
  <fix>3d</fix>
</trkpt>
<trkpt lat="40.0728478" lon="-105.2306593">
  <ele>1595.66</ele>
  <time>2026-08-27T18:28:55Z</time>
  <course>8.43</course>
  <speed>0.8050465825031493</speed>
  <fix>3d</fix>
</trkpt>
<trkpt lat="40.0728468" lon="-105.2306596">
  <ele>1595.56</ele>
  <time>2026-08-27T18:28:55Z</time>
  <course>6.98</course>
  <speed>0.76</speed>
  <fix>3d</fix>
</trkpt>
<trkpt lat="40.0728492" lon="-105.2306592">
  <ele>1595.66</ele>
  <time>2026-08-27T18:28:55Z</time>
  <course>8.41</course>
  <speed>0.8102468759581859</speed>
  <fix>3d</fix>
</trkpt>
<trkpt lat="40.0728483" lon="-105.2306595">
  <ele>1595.56</ele>
  <time>2026-08-27T18:28:55Z</time>
  <course>2.29</course>
  <speed>0.83</speed>
  <fix>3d</fix>
</trkpt>
<trkpt lat="40.0728506" lon="-105.2306593">
  <ele>1595.65</ele>
  <time>2026-08-27T18:28:55Z</time>
  <course>8.48</course>
  <speed>0.7410802925459562</speed>
  <fix>3d</fix>
</trkpt>
<trkpt lat="40.0728498" lon="-105.2306595">
  <ele>1595.56</ele>
  <time>2026-08-27T18:28:55Z</time>
  <course>357.76</course>
  <speed>0.82</speed>
  <fix>3d</fix>
</trkpt>
<trkpt lat="40.0728519" lon="-105.2306595">
  <ele>1595.66</ele>
  <time>2026-08-27T18:28:55Z</time>
  <course>8.53</course>
  <speed>0.6001666435249463</speed>
  <fix>3d</fix>
</trkpt>
<trkpt lat="40.0728512" lon="-105.2306596">
  <ele>1595.56</ele>
  <time>2026-08-27T18:28:55Z</time>
  <course>352.5</course>
  <speed>0.74</speed>
  <fix>3d</fix>
</trkpt>
<trkpt lat="40.0728528" lon="-105.2306599">
  <ele>1595.66</ele>
  <time>2026-08-27T18:28:55Z</time>
  <course>8.57</course>
  <speed>0.4215447781671598</speed>
  <fix>3d</fix>
</trkpt>
<trkpt lat="40.0728524" lon="-105.2306598">
  <ele>1595.56</ele>
  <time>2026-08-27T18:28:55Z</time>
  <course>345.02</course>
  <speed>0.59</speed>
  <fix>3d</fix>
</trkpt>
<trkpt lat="40.0728533" lon="-105.2306604">
  <ele>1595.66</ele>
  <time>2026-08-27T18:28:55Z</time>
  <course>8.61</course>
  <speed>0.24413111231467405</speed>
  <fix>3d</fix>
</trkpt>
<trkpt lat="40.0728532" lon="-105.2306603">
  <ele>1595.57</ele>
  <time>2026-08-27T18:28:55Z</time>
  <course>331.16</course>
  <speed>0.4</speed>
  <fix>3d</fix>
</trkpt>
<trkpt lat="40.0728534" lon="-105.2306609">
  <ele>1595.66</ele>
  <time>2026-08-27T18:28:55Z</time>
  <course>8.61</course>
  <speed>0.24596747752497689</speed>
  <fix>3d</fix>
</trkpt>
<trkpt lat="40.0728536" lon="-105.2306608">
  <ele>1595.57</ele>
  <time>2026-08-27T18:28:55Z</time>
  <course>296.08</course>
  <speed>0.24</speed>
  <fix>3d</fix>
</trkpt>
<trkpt lat="40.0728531" lon="-105.2306615">
  <ele>1595.66</ele>
  <time>2026-08-27T18:28:55Z</time>
  <course>8.55</course>
  <speed>0.4219004621945798</speed>
  <fix>3d</fix>
</trkpt>
<trkpt lat="40.0728536" lon="-105.2306613">
  <ele>1595.58</ele>
  <time>2026-08-27T18:28:55Z</time>
  <course>237.37</course>
  <speed>0.27</speed>
  <fix>3d</fix>
</trkpt>
<trkpt lat="40.0728524" lon="-105.230662">
  <ele>1595.66</ele>
  <time>2026-08-27T18:28:55Z</time>
  <course>8.53</course>
  <speed>0.6040695324215583</speed>
  <fix>3d</fix>
</trkpt>
<trkpt lat="40.0728532" lon="-105.2306618">
  <ele>1595.58</ele>
  <time>2026-08-27T18:28:55Z</time>
  <course>209.28</course>
  <speed>0.44</speed>
  <fix>3d</fix>
</trkpt>
<trkpt lat="40.0728513" lon="-105.2306625">
  <ele>1595.66</ele>
  <time>2026-08-27T18:28:55Z</time>
  <course>8.48</course>
  <speed>0.7473285756613351</speed>
  <fix>3d</fix>
</trkpt>
<trkpt lat="40.0728523" lon="-105.2306623">
  <ele>1595.58</ele>
  <time>2026-08-27T18:28:55Z</time>
  <course>197.52</course>
  <speed>0.62</speed>
  <fix>3d</fix>
</trkpt>
<trkpt lat="40.07285" lon="-105.2306628">
  <ele>1595.66</ele>
  <time>2026-08-27T18:28:55Z</time>
  <course>8.42</course>
  <speed>0.8260750571225353</speed>
  <fix>3d</fix>
</trkpt>
<trkpt lat="40.0728511" lon="-105.2306627">
  <ele>1595.58</ele>
  <time>2026-08-27T18:28:55Z</time>
  <course>190.72</course>
  <speed>0.75</speed>
  <fix>3d</fix>
</trkpt>
<trkpt lat="40.0728486" lon="-105.230663">
  <ele>1595.67</ele>
  <time>2026-08-27T18:28:55Z</time>
  <course>8.44</course>
  <speed>0.8205485969764374</speed>
  <fix>3d</fix>
</trkpt>
<trkpt lat="40.0728497" lon="-105.2306629">
  <ele>1595.58</ele>
  <time>2026-08-27T18:28:55Z</time>
  <course>185.69</course>
  <speed>0.81</speed>
  <fix>3d</fix>
</trkpt>
<trkpt lat="40.0728472" lon="-105.230663">
  <ele>1595.67</ele>
  <time>2026-08-27T18:28:55Z</time>
  <course>8.51</course>
  <speed>0.7505997601918082</speed>
  <fix>3d</fix>
</trkpt>
<trkpt lat="40.0728482" lon="-105.2306631">
  <ele>1595.58</ele>
  <time>2026-08-27T18:28:55Z</time>
  <course>181.11</course>
  <speed>0.8</speed>
  <fix>3d</fix>
</trkpt>
<trkpt lat="40.072846" lon="-105.2306629">
  <ele>1595.67</ele>
  <time>2026-08-27T18:28:55Z</time>
  <course>8.57</course>
  <speed>0.608276253029822</speed>
  <fix>3d</fix>
</trkpt>
<trkpt lat="40.0728469" lon="-105.2306631">
  <ele>1595.58</ele>
  <time>2026-08-27T18:28:55Z</time>
  <course>176.04</course>
  <speed>0.71</speed>
  <fix>3d</fix>
</trkpt>
<trkpt lat="40.0728451" lon="-105.2306626">
  <ele>1595.67</ele>
  <time>2026-08-27T18:28:55Z</time>
  <course>8.6</course>
  <speed>0.42720018726587655</speed>
  <fix>3d</fix>
</trkpt>
<trkpt lat="40.0728457" lon="-105.2306629">
  <ele>1595.59</ele>
  <time>2026-08-27T18:28:55Z</time>
  <course>168.99</course>
  <speed>0.56</speed>
  <fix>3d</fix>
</trkpt>
<trkpt lat="40.0728446" lon="-105.2306622">
  <ele>1595.68</ele>
  <time>2026-08-27T18:28:55Z</time>
  <course>8.6</course>
  <speed>0.2420743687382041</speed>
  <fix>3d</fix>
</trkpt>
<trkpt lat="40.0728449" lon="-105.2306627">
  <ele>1595.59</ele>
  <time>2026-08-27T18:28:55Z</time>
  <course>155.57</course>
  <speed>0.36</speed>
  <fix>3d</fix>
</trkpt>
<trkpt lat="40.0728446" lon="-105.2306618">
  <ele>1595.68</ele>
  <time>2026-08-27T18:28:55Z</time>
  <course>8.58</course>
  <speed>0.23259406699226015</speed>
  <fix>3d</fix>
</trkpt>
<trkpt lat="40.0728445" lon="-105.2306622">
  <ele>1595.59</ele>
  <time>2026-08-27T18:28:55Z</time>
  <course>115.75</course>
  <speed>0.2</speed>
  <fix>3d</fix>
</trkpt>
<trkpt lat="40.0728449" lon="-105.2306613">
  <ele>1595.68</ele>
  <time>2026-08-27T18:28:55Z</time>
  <course>8.56</course>
  <speed>0.3996248240537617</speed>
  <fix>3d</fix>
</trkpt>
<trkpt lat="40.0728446" lon="-105.2306618">
  <ele>1595.59</ele>
  <time>2026-08-27T18:28:55Z</time>
  <course>47.67</course>
  <speed>0.25</speed>
  <fix>3d</fix>
</trkpt>
<trkpt lat="40.0728456" lon="-105.2306609">
  <ele>1595.67</ele>
  <time>2026-08-27T18:28:55Z</time>
  <course>8.47</course>
  <speed>0.5913543776789008</speed>
  <fix>3d</fix>
</trkpt>
<trkpt lat="40.0728451" lon="-105.2306614">
  <ele>1595.59</ele>
  <time>2026-08-27T18:28:55Z</time>
  <course>22.89</course>
  <speed>0.45</speed>
  <fix>3d</fix>
</trkpt>
<trkpt lat="40.0728468" lon="-105.2306606">
  <ele>1595.67</ele>
  <time>2026-08-27T18:28:55Z</time>
  <course>8.43</course>
  <speed>0.73348483283569</speed>
  <fix>3d</fix>
</trkpt>
<trkpt lat="40.072846" lon="-105.230661">
  <ele>1595.58</ele>
  <time>2026-08-27T18:28:55Z</time>
  <course>12.94</course>
  <speed>0.63</speed>
  <fix>3d</fix>
</trkpt>
<trkpt lat="40.0728481" lon="-105.2306604">
  <ele>1595.67</ele>
  <time>2026-08-27T18:28:55Z</time>
  <course>8.43</course>
  <speed>0.8050465825031493</speed>
  <fix>3d</fix>
</trkpt>
<trkpt lat="40.0728473" lon="-105.2306608">
  <ele>1595.58</ele>
  <time>2026-08-27T18:28:55Z</time>
  <course>6.94</course>
  <speed>0.76</speed>
  <fix>3d</fix>
</trkpt>
<trkpt lat="40.0728496" lon="-105.2306603">
  <ele>1595.67</ele>
  <time>2026-08-27T18:28:55Z</time>
  <course>8.42</course>
  <speed>0.8102468759581859</speed>
  <fix>3d</fix>
</trkpt>
<trkpt lat="40.0728487" lon="-105.2306606">
  <ele>1595.58</ele>
  <time>2026-08-27T18:28:55Z</time>
  <course>2.25</course>
  <speed>0.83</speed>
  <fix>3d</fix>
</trkpt>
<trkpt lat="40.072851" lon="-105.2306604">
  <ele>1595.67</ele>
  <time>2026-08-27T18:28:55Z</time>
  <course>8.47</course>
  <speed>0.7410802925459562</speed>
  <fix>3d</fix>
</trkpt>
<trkpt lat="40.0728502" lon="-105.2306606">
  <ele>1595.58</ele>
  <time>2026-08-27T18:28:55Z</time>
  <course>357.75</course>
  <speed>0.82</speed>
  <fix>3d</fix>
</trkpt>
<trkpt lat="40.0728523" lon="-105.2306606">
  <ele>1595.68</ele>
  <time>2026-08-27T18:28:55Z</time>
  <course>8.56</course>
  <speed>0.6001666435249463</speed>
  <fix>3d</fix>
</trkpt>
<trkpt lat="40.0728516" lon="-105.2306607">
  <ele>1595.58</ele>
  <time>2026-08-27T18:28:55Z</time>
  <course>352.54</course>
  <speed>0.74</speed>
  <fix>3d</fix>
</trkpt>
<trkpt lat="40.0728532" lon="-105.230661">
  <ele>1595.68</ele>
  <time>2026-08-27T18:28:55Z</time>
  <course>8.61</course>
  <speed>0.4215447781671598</speed>
  <fix>3d</fix>
</trkpt>
<trkpt lat="40.0728528" lon="-105.230661">
  <ele>1595.59</ele>
  <time>2026-08-27T18:28:55Z</time>
  <course>345.16</course>
  <speed>0.59</speed>
  <fix>3d</fix>
</trkpt>
<trkpt lat="40.0728537" lon="-105.2306615">
  <ele>1595.68</ele>
  <time>2026-08-27T18:28:55Z</time>
  <course>8.64</course>
  <speed>0.24413111231467405</speed>
  <fix>3d</fix>
</trkpt>
<trkpt lat="40.0728536" lon="-105.2306614">
  <ele>1595.59</ele>
  <time>2026-08-27T18:28:55Z</time>
  <course>331.48</course>
  <speed>0.41</speed>
  <fix>3d</fix>
</trkpt>
<trkpt lat="40.0728538" lon="-105.230662">
  <ele>1595.68</ele>
  <time>2026-08-27T18:28:55Z</time>
  <course>8.65</course>
  <speed>0.24596747752497689</speed>
  <fix>3d</fix>
</trkpt>
<trkpt lat="40.0728541" lon="-105.2306618">
  <ele>1595.59</ele>
  <time>2026-08-27T18:28:55Z</time>
  <course>296.65</course>
  <speed>0.24</speed>
  <fix>3d</fix>
</trkpt>
<trkpt lat="40.0728535" lon="-105.2306626">
  <ele>1595.67</ele>
  <time>2026-08-27T18:28:55Z</time>
  <course>8.61</course>
  <speed>0.4219004621945798</speed>
  <fix>3d</fix>
</trkpt>
<trkpt lat="40.072854" lon="-105.2306624">
  <ele>1595.59</ele>
  <time>2026-08-27T18:28:55Z</time>
  <course>237.49</course>
  <speed>0.27</speed>
  <fix>3d</fix>
</trkpt>
<trkpt lat="40.0728528" lon="-105.2306631">
  <ele>1595.67</ele>
  <time>2026-08-27T18:28:55Z</time>
  <course>8.55</course>
  <speed>0.6040695324215583</speed>
  <fix>3d</fix>
</trkpt>
<trkpt lat="40.0728536" lon="-105.2306629">
  <ele>1595.58</ele>
  <time>2026-08-27T18:28:55Z</time>
  <course>209.1</course>
  <speed>0.44</speed>
  <fix>3d</fix>
</trkpt>
<trkpt lat="40.0728517" lon="-105.2306636">
  <ele>1595.66</ele>
  <time>2026-08-27T18:28:55Z</time>
  <course>8.53</course>
  <speed>0.7473285756613351</speed>
  <fix>3d</fix>
</trkpt>
<trkpt lat="40.0728527" lon="-105.2306634">
  <ele>1595.58</ele>
  <time>2026-08-27T18:28:55Z</time>
  <course>197.35</course>
  <speed>0.62</speed>
  <fix>3d</fix>
</trkpt>
<trkpt lat="40.0728503" lon="-105.2306639">
  <ele>1595.66</ele>
  <time>2026-08-27T18:28:55Z</time>
  <course>8.5</course>
  <speed>0.8260750571225353</speed>
  <fix>3d</fix>
</trkpt>
<trkpt lat="40.0728515" lon="-105.2306638">
  <ele>1595.58</ele>
  <time>2026-08-27T18:28:55Z</time>
  <course>190.58</course>
  <speed>0.75</speed>
  <fix>3d</fix>
</trkpt>
<trkpt lat="40.0728489" lon="-105.230664">
  <ele>1595.66</ele>
  <time>2026-08-27T18:28:55Z</time>
  <course>8.49</course>
  <speed>0.8305419917138447</speed>
  <fix>3d</fix>
</trkpt>
<trkpt lat="40.0728501" lon="-105.230664">
  <ele>1595.58</ele>
  <time>2026-08-27T18:28:55Z</time>
  <course>185.56</course>
  <speed>0.81</speed>
  <fix>3d</fix>
</trkpt>
<trkpt lat="40.0728475" lon="-105.230664">
  <ele>1595.67</ele>
  <time>2026-08-27T18:28:55Z</time>
  <course>8.5</course>
  <speed>0.7505997601918082</speed>
  <fix>3d</fix>
</trkpt>
<trkpt lat="40.0728486" lon="-105.2306641">
  <ele>1595.58</ele>
  <time>2026-08-27T18:28:55Z</time>
  <course>180.99</course>
  <speed>0.79</speed>
  <fix>3d</fix>
</trkpt>
<trkpt lat="40.0728463" lon="-105.230664">
  <ele>1595.67</ele>
  <time>2026-08-27T18:28:55Z</time>
  <course>8.54</course>
  <speed>0.6181423784210236</speed>
  <fix>3d</fix>
</trkpt>
<trkpt lat="40.0728473" lon="-105.2306641">
  <ele>1595.59</ele>
  <time>2026-08-27T18:28:55Z</time>
  <course>175.92</course>
  <speed>0.71</speed>
  <fix>3d</fix>
</trkpt>
<trkpt lat="40.0728455" lon="-105.2306637">
  <ele>1595.67</ele>
  <time>2026-08-27T18:28:55Z</time>
  <course>8.58</course>
  <speed>0.42720018726587655</speed>
  <fix>3d</fix>
</trkpt>
<trkpt lat="40.0728462" lon="-105.230664">
  <ele>1595.59</ele>
  <time>2026-08-27T18:28:55Z</time>
  <course>168.85</course>
  <speed>0.55</speed>
  <fix>3d</fix>
</trkpt>
<trkpt lat="40.072845" lon="-105.2306633">
  <ele>1595.67</ele>
  <time>2026-08-27T18:28:55Z</time>
  <course>8.59</course>
  <speed>0.2420743687382041</speed>
  <fix>3d</fix>
</trkpt>
<trkpt lat="40.0728453" lon="-105.2306636">
  <ele>1595.6</ele>
  <time>2026-08-27T18:28:55Z</time>
  <course>155.29</course>
  <speed>0.36</speed>
  <fix>3d</fix>
</trkpt>
<trkpt lat="40.0728449" lon="-105.2306628">
  <ele>1595.67</ele>
  <time>2026-08-27T18:28:55Z</time>
  <course>8.54</course>
  <speed>0.23769728648009425</speed>
  <fix>3d</fix>
</trkpt>
<trkpt lat="40.072845" lon="-105.2306633">
  <ele>1595.6</ele>
  <time>2026-08-27T18:28:55Z</time>
  <course>114.69</course>
  <speed>0.19</speed>
  <fix>3d</fix>
</trkpt>
<trkpt lat="40.0728453" lon="-105.2306624">
  <ele>1595.67</ele>
  <time>2026-08-27T18:28:55Z</time>
  <course>8.45</course>
  <speed>0.32015621187164245</speed>
  <fix>3d</fix>
</trkpt>
<trkpt lat="40.072845" lon="-105.2306629">
  <ele>1595.6</ele>
  <time>2026-08-27T18:28:55Z</time>
  <course>51.9</course>
  <speed>0.23</speed>
  <fix>3d</fix>
</trkpt>
<trkpt lat="40.0728457" lon="-105.230662">
  <ele>1595.68</ele>
  <time>2026-08-27T18:28:55Z</time>
  <course>8.49</course>
  <speed>0.34928498393145957</speed>
  <fix>3d</fix>
</trkpt>
<trkpt lat="40.0728454" lon="-105.2306624">
  <ele>1595.6</ele>
  <time>2026-08-27T18:28:55Z</time>
  <course>28.4</course>
  <speed>0.33</speed>
  <fix>3d</fix>
</trkpt>
<trkpt lat="40.0728463" lon="-105.2306618">
  <ele>1595.68</ele>
  <time>2026-08-27T18:28:55Z</time>
  <course>8.57</course>
  <speed>0.35171010790137947</speed>
  <fix>3d</fix>
</trkpt>
<trkpt lat="40.072846" lon="-105.2306621">
  <ele>1595.6</ele>
  <time>2026-08-27T18:28:55Z</time>
  <course>16.29</course>
  <speed>0.36</speed>
  <fix>3d</fix>
</trkpt>
<trkpt lat="40.0728469" lon="-105.2306617">
  <ele>1595.68</ele>
  <time>2026-08-27T18:28:55Z</time>
  <course>8.61</course>
  <speed>0.33376638536557274</speed>
  <fix>3d</fix>
</trkpt>
<trkpt lat="40.0728466" lon="-105.230662">
  <ele>1595.6</ele>
  <time>2026-08-27T18:28:55Z</time>
  <course>8.45</course>
  <speed>0.36</speed>
  <fix>3d</fix>
</trkpt>
<trkpt lat="40.0728475" lon="-105.2306616">
  <ele>1595.68</ele>
  <time>2026-08-27T18:28:55Z</time>
  <course>8.63</course>
  <speed>0.31064449134018135</speed>
  <fix>3d</fix>
</trkpt>
<trkpt lat="40.0728472" lon="-105.2306619">
  <ele>1595.6</ele>
  <time>2026-08-27T18:28:55Z</time>
  <course>2.97</course>
  <speed>0.35</speed>
  <fix>3d</fix>
</trkpt>
<trkpt lat="40.0728481" lon="-105.2306617">
  <ele>1595.68</ele>
  <time>2026-08-27T18:28:55Z</time>
  <course>8.64</course>
  <speed>0.29017236257093815</speed>
  <fix>3d</fix>
</trkpt>
<trkpt lat="40.0728479" lon="-105.2306619">
  <ele>1595.6</ele>
  <time>2026-08-27T18:28:55Z</time>
  <course>359.37</course>
  <speed>0.33</speed>
  <fix>3d</fix>
</trkpt>
<trkpt lat="40.0728486" lon="-105.2306617">
  <ele>1595.68</ele>
  <time>2026-08-27T18:28:55Z</time>
  <course>8.63</course>
  <speed>0.27</speed>
  <fix>3d</fix>
</trkpt>
<trkpt lat="40.0728484" lon="-105.2306619">
  <ele>1595.6</ele>
  <time>2026-08-27T18:28:55Z</time>
  <course>357.23</course>
  <speed>0.31</speed>
  <fix>3d</fix>
</trkpt>
<trkpt lat="40.0728491" lon="-105.2306617">
  <ele>1595.68</ele>
  <time>2026-08-27T18:28:55Z</time>
  <course>8.63</course>
  <speed>0.25</speed>
  <fix>3d</fix>
</trkpt>
<trkpt lat="40.072849" lon="-105.2306619">
  <ele>1595.6</ele>
  <time>2026-08-27T18:28:55Z</time>
  <course>356.14</course>
  <speed>0.29</speed>
  <fix>3d</fix>
</trkpt>
<trkpt lat="40.0728496" lon="-105.2306617">
  <ele>1595.68</ele>
  <time>2026-08-27T18:28:55Z</time>
  <course>8.65</course>
  <speed>0.23</speed>
  <fix>3d</fix>
</trkpt>
<trkpt lat="40.0728495" lon="-105.2306619">
  <ele>1595.6</ele>
  <time>2026-08-27T18:28:55Z</time>
  <course>355.77</course>
  <speed>0.27</speed>
  <fix>3d</fix>
</trkpt>
<trkpt lat="40.0728501" lon="-105.2306617">
  <ele>1595.68</ele>
  <time>2026-08-27T18:28:55Z</time>
  <course>8.63</course>
  <speed>0.22</speed>
  <fix>3d</fix>
</trkpt>
<trkpt lat="40.07285" lon="-105.2306619">
  <ele>1595.6</ele>
  <time>2026-08-27T18:28:55Z</time>
  <course>355.78</course>
  <speed>0.26</speed>
  <fix>3d</fix>
</trkpt>
<trkpt lat="40.0728505" lon="-105.2306618">
  <ele>1595.68</ele>
  <time>2026-08-27T18:28:55Z</time>
  <course>8.62</course>
  <speed>0.21</speed>
  <fix>3d</fix>
</trkpt>
<trkpt lat="40.0728505" lon="-105.230662">
  <ele>1595.6</ele>
  <time>2026-08-27T18:28:55Z</time>
  <course>355.98</course>
  <speed>0.24</speed>
  <fix>3d</fix>
</trkpt>
<trkpt lat="40.0728509" lon="-105.2306618">
  <ele>1595.67</ele>
  <time>2026-08-27T18:28:55Z</time>
  <course>8.63</course>
  <speed>0.2</speed>
  <fix>3d</fix>
</trkpt>
<trkpt lat="40.0728509" lon="-105.230662">
  <ele>1595.59</ele>
  <time>2026-08-27T18:28:55Z</time>
  <course>356.12</course>
  <speed>0.23</speed>
  <fix>3d</fix>
</trkpt>
<trkpt lat="40.0728513" lon="-105.2306618">
  <ele>1595.67</ele>
  <time>2026-08-27T18:28:55Z</time>
  <course>8.62</course>
  <speed>0.19</speed>
  <fix>3d</fix>
</trkpt>
<trkpt lat="40.0728512" lon="-105.230662">
  <ele>1595.59</ele>
  <time>2026-08-27T18:28:55Z</time>
  <course>356.23</course>
  <speed>0.22</speed>
  <fix>3d</fix>
</trkpt>
<trkpt lat="40.0728517" lon="-105.2306619">
  <ele>1595.67</ele>
  <time>2026-08-27T18:28:55Z</time>
  <course>8.61</course>
  <speed>0.18</speed>
  <fix>3d</fix>
</trkpt>
<trkpt lat="40.0728517" lon="-105.230662">
  <ele>1595.59</ele>
  <time>2026-08-27T18:28:55Z</time>
  <course>356.4</course>
  <speed>0.21</speed>
  <fix>3d</fix>
</trkpt>
<trkpt lat="40.0728521" lon="-105.2306619">
  <ele>1595.66</ele>
  <time>2026-08-27T18:28:56Z</time>
  <course>8.59</course>
  <speed>0.17</speed>
  <fix>3d</fix>
</trkpt>
<trkpt lat="40.0728521" lon="-105.2306621">
  <ele>1595.59</ele>
  <time>2026-08-27T18:28:56Z</time>
  <course>356.55</course>
  <speed>0.2</speed>
  <fix>3d</fix>
</trkpt>
<trkpt lat="40.0728524" lon="-105.2306619">
  <ele>1595.66</ele>
  <time>2026-08-27T18:28:56Z</time>
  <course>8.6</course>
  <speed>0.16</speed>
  <fix>3d</fix>
</trkpt>
<trkpt lat="40.0728524" lon="-105.2306622">
  <ele>1595.59</ele>
  <time>2026-08-27T18:28:56Z</time>
  <course>356.78</course>
  <speed>0.19</speed>
  <fix>3d</fix>
</trkpt>
<trkpt lat="40.0728528" lon="-105.2306619">
  <ele>1595.66</ele>
  <time>2026-08-27T18:28:56Z</time>
  <course>8.58</course>
  <speed>0.16</speed>
  <fix>3d</fix>
</trkpt>
<trkpt lat="40.0728527" lon="-105.2306622">
  <ele>1595.59</ele>
  <time>2026-08-27T18:28:56Z</time>
  <course>357.07</course>
  <speed>0.18</speed>
  <fix>3d</fix>
</trkpt>
<trkpt lat="40.0728531" lon="-105.230662">
  <ele>1595.66</ele>
  <time>2026-08-27T18:28:56Z</time>
  <course>8.57</course>
  <speed>0.17029386365926402</speed>
  <fix>3d</fix>
</trkpt>
<trkpt lat="40.0728531" lon="-105.2306622">
  <ele>1595.6</ele>
  <time>2026-08-27T18:28:56Z</time>
  <course>357.54</course>
  <speed>0.18</speed>
  <fix>3d</fix>
</trkpt>
<trkpt lat="40.0728535" lon="-105.230662">
  <ele>1595.66</ele>
  <time>2026-08-27T18:28:56Z</time>
  <course>8.57</course>
  <speed>0.2009975124224178</speed>
  <fix>3d</fix>
</trkpt>
<trkpt lat="40.0728534" lon="-105.2306622">
  <ele>1595.6</ele>
  <time>2026-08-27T18:28:56Z</time>
  <course>359.49</course>
  <speed>0.2</speed>
  <fix>3d</fix>
</trkpt>
<trkpt lat="40.0728539" lon="-105.2306619">
  <ele>1595.66</ele>
  <time>2026-08-27T18:28:56Z</time>
  <course>8.58</course>
  <speed>0.2745906043549196</speed>
  <fix>3d</fix>
</trkpt>
<trkpt lat="40.0728539" lon="-105.2306622">
  <ele>1595.6</ele>
  <time>2026-08-27T18:28:56Z</time>
  <course>3.21</course>
  <speed>0.24</speed>
  <fix>3d</fix>
</trkpt>
<trkpt lat="40.0728546" lon="-105.2306619">
  <ele>1595.66</ele>
  <time>2026-08-27T18:28:56Z</time>
  <course>8.55</course>
  <speed>0.37656340767525465</speed>
  <fix>3d</fix>
</trkpt>
<trkpt lat="40.0728544" lon="-105.2306622">
  <ele>1595.6</ele>
  <time>2026-08-27T18:28:56Z</time>
  <course>6.54</course>
  <speed>0.32</speed>
  <fix>3d</fix>
</trkpt>
<trkpt lat="40.0728554" lon="-105.2306618">
  <ele>1595.66</ele>
  <time>2026-08-27T18:28:56Z</time>
  <course>8.51</course>
  <speed>0.4903060268852505</speed>
  <fix>3d</fix>
</trkpt>
<trkpt lat="40.072855" lon="-105.2306621">
  <ele>1595.61</ele>
  <time>2026-08-27T18:28:56Z</time>
  <course>8.28</course>
  <speed>0.42</speed>
  <fix>3d</fix>
</trkpt>
<trkpt lat="40.0728564" lon="-105.2306616">
  <ele>1595.66</ele>
  <time>2026-08-27T18:28:56Z</time>
  <course>8.49</course>
  <speed>0.5903388857258176</speed>
  <fix>3d</fix>
</trkpt>
<trkpt lat="40.0728559" lon="-105.230662">
  <ele>1595.61</ele>
  <time>2026-08-27T18:28:56Z</time>
  <course>8.66</course>
  <speed>0.53</speed>
  <fix>3d</fix>
</trkpt>
<trkpt lat="40.0728575" lon="-105.2306613">
  <ele>1595.66</ele>
  <time>2026-08-27T18:28:56Z</time>
  <course>8.47</course>
  <speed>0.6789698078707183</speed>
  <fix>3d</fix>
</trkpt>
<trkpt lat="40.0728569" lon="-105.2306618">
  <ele>1595.61</ele>
  <time>2026-08-27T18:28:56Z</time>
  <course>8.15</course>
  <speed>0.63</speed>
  <fix>3d</fix>
</trkpt>
<trkpt lat="40.0728588" lon="-105.2306612">
  <ele>1595.66</ele>
  <time>2026-08-27T18:28:56Z</time>
  <course>8.45</course>
  <speed>0.717007670809734</speed>
  <fix>3d</fix>
</trkpt>
<trkpt lat="40.0728581" lon="-105.2306615">
  <ele>1595.61</ele>
  <time>2026-08-27T18:28:56Z</time>
  <course>7.02</course>
  <speed>0.7</speed>
  <fix>3d</fix>
</trkpt>
<trkpt lat="40.0728601" lon="-105.230661">
  <ele>1595.66</ele>
  <time>2026-08-27T18:28:56Z</time>
  <course>8.45</course>
  <speed>0.6935416353759881</speed>
  <fix>3d</fix>
</trkpt>
<trkpt lat="40.0728594" lon="-105.2306614">
  <ele>1595.61</ele>
  <time>2026-08-27T18:28:56Z</time>
  <course>5.39</course>
  <speed>0.73</speed>
  <fix>3d</fix>
</trkpt>
<trkpt lat="40.0728613" lon="-105.230661">
  <ele>1595.67</ele>
  <time>2026-08-27T18:28:56Z</time>
  <course>8.52</course>
  <speed>0.620322496770833</speed>
  <fix>3d</fix>
</trkpt>
<trkpt lat="40.0728607" lon="-105.2306612">
  <ele>1595.62</ele>
  <time>2026-08-27T18:28:56Z</time>
  <course>3.16</course>
  <speed>0.7</speed>
  <fix>3d</fix>
</trkpt>
<trkpt lat="40.0728624" lon="-105.230661">
  <ele>1595.68</ele>
  <time>2026-08-27T18:28:56Z</time>
  <course>8.56</course>
  <speed>0.4901020301937138</speed>
  <fix>3d</fix>
</trkpt>
<trkpt lat="40.0728619" lon="-105.2306612">
  <ele>1595.62</ele>
  <time>2026-08-27T18:28:56Z</time>
  <course>0.0</course>
  <speed>0.61</speed>
  <fix>3d</fix>
</trkpt>
<trkpt lat="40.0728632" lon="-105.2306611">
  <ele>1595.69</ele>
  <time>2026-08-27T18:28:56Z</time>
  <course>8.62</course>
  <speed>0.31575306807693887</speed>
  <fix>3d</fix>
</trkpt>
<trkpt lat="40.0728629" lon="-105.2306612">
  <ele>1595.63</ele>
  <time>2026-08-27T18:28:56Z</time>
  <course>354.85</course>
  <speed>0.47</speed>
  <fix>3d</fix>
</trkpt>
<trkpt lat="40.0728636" lon="-105.2306613">
  <ele>1595.69</ele>
  <time>2026-08-27T18:28:56Z</time>
  <course>8.65</course>
  <speed>0.14212670403551894</speed>
  <fix>3d</fix>
</trkpt>
<trkpt lat="40.0728636" lon="-105.2306613">
  <ele>1595.63</ele>
  <time>2026-08-27T18:28:56Z</time>
  <course>343.57</course>
  <speed>0.29</speed>
  <fix>3d</fix>
</trkpt>
<trkpt lat="40.0728636" lon="-105.2306616">
  <ele>1595.7</ele>
  <time>2026-08-27T18:28:56Z</time>
  <course>8.63</course>
  <speed>0.191049731745428</speed>
  <fix>3d</fix>
</trkpt>
<trkpt lat="40.0728639" lon="-105.2306615">
  <ele>1595.63</ele>
  <time>2026-08-27T18:28:56Z</time>
  <course>297.82</course>
  <speed>0.13</speed>
  <fix>3d</fix>
</trkpt>
<trkpt lat="40.0728633" lon="-105.230662">
  <ele>1595.69</ele>
  <time>2026-08-27T18:28:56Z</time>
  <course>8.62</course>
  <speed>0.39</speed>
  <fix>3d</fix>
</trkpt>
<trkpt lat="40.0728639" lon="-105.2306618">
  <ele>1595.63</ele>
  <time>2026-08-27T18:28:56Z</time>
  <course>219.07</course>
  <speed>0.22</speed>
  <fix>3d</fix>
</trkpt>
<trkpt lat="40.0728626" lon="-105.2306624">
  <ele>1595.69</ele>
  <time>2026-08-27T18:28:56Z</time>
  <course>8.56</course>
  <speed>0.5797413216254298</speed>
  <fix>3d</fix>
</trkpt>
<trkpt lat="40.0728634" lon="-105.2306622">
  <ele>1595.62</ele>
  <time>2026-08-27T18:28:56Z</time>
  <course>200.37</course>
  <speed>0.42</speed>
  <fix>3d</fix>
</trkpt>
<trkpt lat="40.0728615" lon="-105.2306627">
  <ele>1595.68</ele>
  <time>2026-08-27T18:28:56Z</time>
  <course>8.52</course>
  <speed>0.7316419889536138</speed>
  <fix>3d</fix>
</trkpt>
<trkpt lat="40.0728625" lon="-105.2306625">
  <ele>1595.62</ele>
  <time>2026-08-27T18:28:56Z</time>
  <course>193.26</course>
  <speed>0.61</speed>
  <fix>3d</fix>
</trkpt>
<trkpt lat="40.0728602" lon="-105.230663">
  <ele>1595.68</ele>
  <time>2026-08-27T18:28:56Z</time>
  <course>8.5</course>
  <speed>0.8161494961096283</speed>
  <fix>3d</fix>
</trkpt>
<trkpt lat="40.0728613" lon="-105.2306628">
  <ele>1595.61</ele>
  <time>2026-08-27T18:28:56Z</time>
  <course>188.94</course>
  <speed>0.75</speed>
  <fix>3d</fix>
</trkpt>
<trkpt lat="40.0728587" lon="-105.2306631">
  <ele>1595.67</ele>
  <time>2026-08-27T18:28:56Z</time>
  <course>8.5</course>
  <speed>0.841486779456457</speed>
  <fix>3d</fix>
</trkpt>
<trkpt lat="40.0728598" lon="-105.230663">
  <ele>1595.61</ele>
  <time>2026-08-27T18:28:56Z</time>
  <course>185.49</course>
  <speed>0.82</speed>
  <fix>3d</fix>
</trkpt>
<trkpt lat="40.0728573" lon="-105.2306632">
  <ele>1595.67</ele>
  <time>2026-08-27T18:28:56Z</time>
  <course>8.51</course>
  <speed>0.78</speed>
  <fix>3d</fix>
</trkpt>
<trkpt lat="40.0728583" lon="-105.2306632">
  <ele>1595.61</ele>
  <time>2026-08-27T18:28:56Z</time>
  <course>182.19</course>
  <speed>0.82</speed>
  <fix>3d</fix>
</trkpt>
<trkpt lat="40.072856" lon="-105.2306631">
  <ele>1595.67</ele>
  <time>2026-08-27T18:28:56Z</time>
  <course>8.57</course>
  <speed>0.6527633568147035</speed>
  <fix>3d</fix>
</trkpt>
<trkpt lat="40.0728569" lon="-105.2306632">
  <ele>1595.61</ele>
  <time>2026-08-27T18:28:56Z</time>
  <course>178.47</course>
  <speed>0.75</speed>
  <fix>3d</fix>
</trkpt>
<trkpt lat="40.072855" lon="-105.230663">
  <ele>1595.68</ele>
  <time>2026-08-27T18:28:56Z</time>
  <course>8.6</course>
  <speed>0.4729693436154187</speed>
  <fix>3d</fix>
</trkpt>
<trkpt lat="40.0728557" lon="-105.2306631">
  <ele>1595.61</ele>
  <time>2026-08-27T18:28:56Z</time>
  <course>173.42</course>
  <speed>0.61</speed>
  <fix>3d</fix>
</trkpt>
<trkpt lat="40.0728544" lon="-105.2306627">
  <ele>1595.67</ele>
  <time>2026-08-27T18:28:56Z</time>
  <course>8.6</course>
  <speed>0.266270539113887</speed>
  <fix>3d</fix>
</trkpt>
<trkpt lat="40.0728548" lon="-105.2306629">
  <ele>1595.61</ele>
  <time>2026-08-27T18:28:56Z</time>
  <course>164.54</course>
  <speed>0.42</speed>
  <fix>3d</fix>
</trkpt>
<trkpt lat="40.0728542" lon="-105.2306623">
  <ele>1595.67</ele>
  <time>2026-08-27T18:28:56Z</time>
  <course>8.58</course>
  <speed>0.18110770276274835</speed>
  <fix>3d</fix>
</trkpt>
<trkpt lat="40.0728542" lon="-105.2306626">
  <ele>1595.61</ele>
  <time>2026-08-27T18:28:56Z</time>
  <course>139.43</course>
  <speed>0.21</speed>
  <fix>3d</fix>
</trkpt>
<trkpt lat="40.0728544" lon="-105.2306619">
  <ele>1595.68</ele>
  <time>2026-08-27T18:28:56Z</time>
  <course>8.54</course>
  <speed>0.3301514803843835</speed>
  <fix>3d</fix>
</trkpt>
<trkpt lat="40.0728541" lon="-105.2306622">
  <ele>1595.61</ele>
  <time>2026-08-27T18:28:56Z</time>
  <course>59.77</course>
  <speed>0.18</speed>
  <fix>3d</fix>
</trkpt>
<trkpt lat="40.072855" lon="-105.2306615">
  <ele>1595.67</ele>
  <time>2026-08-27T18:28:56Z</time>
  <course>8.49</course>
  <speed>0.5281098370604357</speed>
  <fix>3d</fix>
</trkpt>
<trkpt lat="40.0728544" lon="-105.2306619">
  <ele>1595.61</ele>
  <time>2026-08-27T18:28:56Z</time>
  <course>23.94</course>
  <speed>0.37</speed>
  <fix>3d</fix>
</trkpt>
<trkpt lat="40.0728561" lon="-105.2306612">
  <ele>1595.67</ele>
  <time>2026-08-27T18:28:56Z</time>
  <course>8.44</course>
  <speed>0.6844705983459041</speed>
  <fix>3d</fix>
</trkpt>
<trkpt lat="40.0728553" lon="-105.2306616">
  <ele>1595.61</ele>
  <time>2026-08-27T18:28:56Z</time>
  <course>12.89</course>
  <speed>0.57</speed>
  <fix>3d</fix>
</trkpt>
<trkpt lat="40.0728574" lon="-105.2306609">
  <ele>1595.67</ele>
  <time>2026-08-27T18:28:56Z</time>
  <course>8.42</course>
  <speed>0.785175139698144</speed>
  <fix>3d</fix>
</trkpt>
<trkpt lat="40.0728564" lon="-105.2306614">
  <ele>1595.6</ele>
  <time>2026-08-27T18:28:56Z</time>
  <course>6.97</course>
  <speed>0.72</speed>
  <fix>3d</fix>
</trkpt>
<trkpt lat="40.0728588" lon="-105.2306609">
  <ele>1595.67</ele>
  <time>2026-08-27T18:28:56Z</time>
  <course>8.41</course>
  <speed>0.8205485969764374</speed>
  <fix>3d</fix>
</trkpt>
<trkpt lat="40.0728578" lon="-105.2306612">
  <ele>1595.6</ele>
  <time>2026-08-27T18:28:56Z</time>
  <course>2.55</course>
  <speed>0.81</speed>
  <fix>3d</fix>
</trkpt>
<trkpt lat="40.0728602" lon="-105.230661">
  <ele>1595.67</ele>
  <time>2026-08-27T18:28:56Z</time>
  <course>8.44</course>
  <speed>0.7702596964660685</speed>
  <fix>3d</fix>
</trkpt>
<trkpt lat="40.0728593" lon="-105.2306612">
  <ele>1595.6</ele>
  <time>2026-08-27T18:28:56Z</time>
  <course>358.42</course>
  <speed>0.83</speed>
  <fix>3d</fix>
</trkpt>
<trkpt lat="40.0728615" lon="-105.2306611">
  <ele>1595.68</ele>
  <time>2026-08-27T18:28:56Z</time>
  <course>8.55</course>
  <speed>0.646297145282261</speed>
  <fix>3d</fix>
</trkpt>
<trkpt lat="40.0728608" lon="-105.2306612">
  <ele>1595.6</ele>
  <time>2026-08-27T18:28:56Z</time>
  <course>353.78</course>
  <speed>0.77</speed>
  <fix>3d</fix>
</trkpt>
<trkpt lat="40.0728626" lon="-105.2306615">
  <ele>1595.68</ele>
  <time>2026-08-27T18:28:56Z</time>
  <course>8.62</course>
  <speed>0.4808326112068523</speed>
  <fix>3d</fix>
</trkpt>
<trkpt lat="40.072862" lon="-105.2306615">
  <ele>1595.61</ele>
  <time>2026-08-27T18:28:56Z</time>
  <course>347.51</course>
  <speed>0.64</speed>
  <fix>3d</fix>
</trkpt>
<trkpt lat="40.0728632" lon="-105.2306619">
  <ele>1595.68</ele>
  <time>2026-08-27T18:28:56Z</time>
  <course>8.68</course>
  <speed>0.2906888370749727</speed>
  <fix>3d</fix>
</trkpt>
<trkpt lat="40.072863" lon="-105.2306619">
  <ele>1595.61</ele>
  <time>2026-08-27T18:28:56Z</time>
  <course>336.8</course>
  <speed>0.46</speed>
  <fix>3d</fix>
</trkpt>
<trkpt lat="40.0728634" lon="-105.2306625">
  <ele>1595.68</ele>
  <time>2026-08-27T18:28:56Z</time>
  <course>8.67</course>
  <speed>0.21213203435596426</speed>
  <fix>3d</fix>
</trkpt>
<trkpt lat="40.0728636" lon="-105.2306623">
  <ele>1595.61</ele>
  <time>2026-08-27T18:28:56Z</time>
  <course>311.6</course>
  <speed>0.28</speed>
  <fix>3d</fix>
</trkpt>
<trkpt lat="40.0728633" lon="-105.230663">
  <ele>1595.67</ele>
  <time>2026-08-27T18:28:56Z</time>
  <course>8.63</course>
  <speed>0.35608987629529715</speed>
  <fix>3d</fix>
</trkpt>
<trkpt lat="40.0728637" lon="-105.2306628">
  <ele>1595.61</ele>
  <time>2026-08-27T18:28:56Z</time>
  <course>253.76</course>
  <speed>0.23</speed>
  <fix>3d</fix>
</trkpt>
<trkpt lat="40.0728627" lon="-105.2306635">
  <ele>1595.67</ele>
  <time>2026-08-27T18:28:56Z</time>
  <course>8.55</course>
  <speed>0.5478138369920935</speed>
  <fix>3d</fix>
</trkpt>
<trkpt lat="40.0728634" lon="-105.2306634">
  <ele>1595.61</ele>
  <time>2026-08-27T18:28:56Z</time>
  <course>215.01</course>
  <speed>0.38</speed>
  <fix>3d</fix>
</trkpt>
<trkpt lat="40.0728617" lon="-105.230664">
  <ele>1595.67</ele>
  <time>2026-08-27T18:28:56Z</time>
  <course>8.51</course>
  <speed>0.7106335201775947</speed>
  <fix>3d</fix>
</trkpt>
<trkpt lat="40.0728627" lon="-105.2306639">
  <ele>1595.6</ele>
  <time>2026-08-27T18:28:56Z</time>
  <course>200.16</course>
  <speed>0.57</speed>
  <fix>3d</fix>
</trkpt>
<trkpt lat="40.0728604" lon="-105.2306644">
  <ele>1595.66</ele>
  <time>2026-08-27T18:28:56Z</time>
  <course>8.49</course>
  <speed>0.8089499366462674</speed>
  <fix>3d</fix>
</trkpt>
<trkpt lat="40.0728615" lon="-105.2306643">
  <ele>1595.6</ele>
  <time>2026-08-27T18:28:56Z</time>
  <course>192.45</course>
  <speed>0.71</speed>
  <fix>3d</fix>
</trkpt>
<trkpt lat="40.072859" lon="-105.2306646">
  <ele>1595.67</ele>
  <time>2026-08-27T18:28:56Z</time>
  <course>8.49</course>
  <speed>0.8315046602394962</speed>
  <fix>3d</fix>
</trkpt>
<trkpt lat="40.0728601" lon="-105.2306645">
  <ele>1595.6</ele>
  <time>2026-08-27T18:28:56Z</time>
  <course>187.16</course>
  <speed>0.8</speed>
  <fix>3d</fix>
</trkpt>
<trkpt lat="40.0728576" lon="-105.2306647">
  <ele>1595.67</ele>
  <time>2026-08-27T18:28:56Z</time>
  <course>8.5</course>
  <speed>0.7900632886041472</speed>
  <fix>3d</fix>
</trkpt>
<trkpt lat="40.0728587" lon="-105.2306647">
  <ele>1595.6</ele>
  <time>2026-08-27T18:28:56Z</time>
  <course>182.65</course>
  <speed>0.81</speed>
  <fix>3d</fix>
</trkpt>
<trkpt lat="40.0728563" lon="-105.2306646">
  <ele>1595.68</ele>
  <time>2026-08-27T18:28:56Z</time>
  <course>8.56</course>
  <speed>0.6637017402418047</speed>
  <fix>3d</fix>
</trkpt>
<trkpt lat="40.0728572" lon="-105.2306648">
  <ele>1595.61</ele>
  <time>2026-08-27T18:28:56Z</time>
  <course>178.0</course>
  <speed>0.75</speed>
  <fix>3d</fix>
</trkpt>
<trkpt lat="40.0728553" lon="-105.2306644">
  <ele>1595.68</ele>
  <time>2026-08-27T18:28:56Z</time>
  <course>8.6</course>
  <speed>0.49729267036625424</speed>
  <fix>3d</fix>
</trkpt>
<trkpt lat="40.072856" lon="-105.2306647">
  <ele>1595.61</ele>
  <time>2026-08-27T18:28:56Z</time>
  <course>172.08</course>
  <speed>0.62</speed>
  <fix>3d</fix>
</trkpt>
<trkpt lat="40.0728547" lon="-105.2306641">
  <ele>1595.68</ele>
  <time>2026-08-27T18:28:56Z</time>
  <course>8.59</course>
  <speed>0.3</speed>
  <fix>3d</fix>
</trkpt>
<trkpt lat="40.0728551" lon="-105.2306644">
  <ele>1595.61</ele>
  <time>2026-08-27T18:28:56Z</time>
  <course>162.15</course>
  <speed>0.43</speed>
  <fix>3d</fix>
</trkpt>
<trkpt lat="40.0728545" lon="-105.2306636">
  <ele>1595.68</ele>
  <time>2026-08-27T18:28:56Z</time>
  <course>8.59</course>
  <speed>0.21</speed>
  <fix>3d</fix>
</trkpt>
<trkpt lat="40.0728546" lon="-105.2306641">
  <ele>1595.61</ele>
  <time>2026-08-27T18:28:56Z</time>
  <course>136.69</course>
  <speed>0.24</speed>
  <fix>3d</fix>
</trkpt>
<trkpt lat="40.0728546" lon="-105.2306632">
  <ele>1595.68</ele>
  <time>2026-08-27T18:28:56Z</time>
  <course>8.58</course>
  <speed>0.33421549934136807</speed>
  <fix>3d</fix>
</trkpt>
<trkpt lat="40.0728544" lon="-105.2306636">
  <ele>1595.61</ele>
  <time>2026-08-27T18:28:56Z</time>
  <course>66.31</course>
  <speed>0.19</speed>
  <fix>3d</fix>
</trkpt>
<trkpt lat="40.0728553" lon="-105.2306628">
  <ele>1595.67</ele>
  <time>2026-08-27T18:28:56Z</time>
  <course>8.5</course>
  <speed>0.5292447448959696</speed>
  <fix>3d</fix>
</trkpt>
<trkpt lat="40.0728548" lon="-105.2306633">
  <ele>1595.61</ele>
  <time>2026-08-27T18:28:56Z</time>
  <course>28.01</course>
  <speed>0.37</speed>
  <fix>3d</fix>
</trkpt>
<trkpt lat="40.0728563" lon="-105.2306624">
  <ele>1595.67</ele>
  <time>2026-08-27T18:28:56Z</time>
  <course>8.45</course>
  <speed>0.688839603971781</speed>
  <fix>3d</fix>
</trkpt>
<trkpt lat="40.0728555" lon="-105.2306629">
  <ele>1595.6</ele>
  <time>2026-08-27T18:28:56Z</time>
  <course>15.2</course>
  <speed>0.57</speed>
  <fix>3d</fix>
</trkpt>
<trkpt lat="40.0728576" lon="-105.2306622">
  <ele>1595.66</ele>
  <time>2026-08-27T18:28:56Z</time>
  <course>8.42</course>
  <speed>0.7863841300535</speed>
  <fix>3d</fix>
</trkpt>
<trkpt lat="40.0728567" lon="-105.2306625">
  <ele>1595.6</ele>
  <time>2026-08-27T18:28:56Z</time>
  <course>8.37</course>
  <speed>0.72</speed>
  <fix>3d</fix>
</trkpt>
<trkpt lat="40.072859" lon="-105.2306621">
  <ele>1595.67</ele>
  <time>2026-08-27T18:28:56Z</time>
  <course>8.42</course>
  <speed>0.8109870529176159</speed>
  <fix>3d</fix>
</trkpt>
<trkpt lat="40.0728581" lon="-105.2306624">
  <ele>1595.6</ele>
  <time>2026-08-27T18:28:56Z</time>
  <course>3.44</course>
  <speed>0.81</speed>
  <fix>3d</fix>
</trkpt>
<trkpt lat="40.0728605" lon="-105.2306621">
  <ele>1595.68</ele>
  <time>2026-08-27T18:28:56Z</time>
  <course>8.48</course>
  <speed>0.7702596964660685</speed>
  <fix>3d</fix>
</trkpt>
<trkpt lat="40.0728596" lon="-105.2306624">
  <ele>1595.6</ele>
  <time>2026-08-27T18:28:56Z</time>
  <course>358.98</course>
  <speed>0.83</speed>
  <fix>3d</fix>
</trkpt>
<trkpt lat="40.0728618" lon="-105.2306622">
  <ele>1595.69</ele>
  <time>2026-08-27T18:28:56Z</time>
  <course>8.54</course>
  <speed>0.6562011886609167</speed>
  <fix>3d</fix>
</trkpt>
<trkpt lat="40.0728611" lon="-105.2306624">
  <ele>1595.6</ele>
  <time>2026-08-27T18:28:56Z</time>
  <course>354.13</course>
  <speed>0.77</speed>
  <fix>3d</fix>
</trkpt>
<trkpt lat="40.0728628" lon="-105.2306626">
  <ele>1595.69</ele>
  <time>2026-08-27T18:28:56Z</time>
  <course>8.6</course>
  <speed>0.4838388161361178</speed>
  <fix>3d</fix>
</trkpt>
<trkpt lat="40.0728623" lon="-105.2306626">
  <ele>1595.61</ele>
  <time>2026-08-27T18:28:56Z</time>
  <course>347.73</course>
  <speed>0.64</speed>
  <fix>3d</fix>
</trkpt>
<trkpt lat="40.0728635" lon="-105.2306631">
  <ele>1595.69</ele>
  <time>2026-08-27T18:28:56Z</time>
  <course>8.7</course>
  <speed>0.29832867780352595</speed>
  <fix>3d</fix>
</trkpt>
<trkpt lat="40.0728632" lon="-105.230663">
  <ele>1595.61</ele>
  <time>2026-08-27T18:28:56Z</time>
  <course>337.0</course>
  <speed>0.47</speed>
  <fix>3d</fix>
</trkpt>
<trkpt lat="40.0728637" lon="-105.2306636">
  <ele>1595.68</ele>
  <time>2026-08-27T18:28:56Z</time>
  <course>8.69</course>
  <speed>0.22090722034374521</speed>
  <fix>3d</fix>
</trkpt>
<trkpt lat="40.0728639" lon="-105.2306635">
  <ele>1595.61</ele>
  <time>2026-08-27T18:28:56Z</time>
  <course>312.49</course>
  <speed>0.29</speed>
  <fix>3d</fix>
</trkpt>
<trkpt lat="40.0728636" lon="-105.2306642">
  <ele>1595.68</ele>
  <time>2026-08-27T18:28:56Z</time>
  <course>8.65</course>
  <speed>0.34828149534535996</speed>
  <fix>3d</fix>
</trkpt>
<trkpt lat="40.072864" lon="-105.230664">
  <ele>1595.6</ele>
  <time>2026-08-27T18:28:56Z</time>
  <course>255.9</course>
  <speed>0.23</speed>
  <fix>3d</fix>
</trkpt>
<trkpt lat="40.072863" lon="-105.2306647">
  <ele>1595.67</ele>
  <time>2026-08-27T18:28:56Z</time>
  <course>8.57</course>
  <speed>0.54230987451825</speed>
  <fix>3d</fix>
</trkpt>
<trkpt lat="40.0728637" lon="-105.2306646">
  <ele>1595.6</ele>
  <time>2026-08-27T18:28:56Z</time>
  <course>215.96</course>
  <speed>0.38</speed>
  <fix>3d</fix>
</trkpt>
<trkpt lat="40.072862" lon="-105.2306652">
  <ele>1595.66</ele>
  <time>2026-08-27T18:28:56Z</time>
  <course>8.51</course>
  <speed>0.7009279563550023</speed>
  <fix>3d</fix>
</trkpt>
<trkpt lat="40.072863" lon="-105.2306651">
  <ele>1595.59</ele>
  <time>2026-08-27T18:28:56Z</time>
  <course>200.57</course>
  <speed>0.56</speed>
  <fix>3d</fix>
</trkpt>
<trkpt lat="40.0728607" lon="-105.2306656">
  <ele>1595.66</ele>
  <time>2026-08-27T18:28:56Z</time>
  <course>8.47</course>
  <speed>0.8089499366462674</speed>
  <fix>3d</fix>
</trkpt>
<trkpt lat="40.0728619" lon="-105.2306654">
  <ele>1595.59</ele>
  <time>2026-08-27T18:28:56Z</time>
  <course>192.63</course>
  <speed>0.71</speed>
  <fix>3d</fix>
</trkpt>
<trkpt lat="40.0728593" lon="-105.2306658">
  <ele>1595.66</ele>
  <time>2026-08-27T18:28:56Z</time>
  <course>8.45</course>
  <speed>0.8321658488546619</speed>
  <fix>3d</fix>
</trkpt>
<trkpt lat="40.0728605" lon="-105.2306658">
  <ele>1595.59</ele>
  <time>2026-08-27T18:28:56Z</time>
  <course>187.2</course>
  <speed>0.8</speed>
  <fix>3d</fix>
</trkpt>
<trkpt lat="40.0728579" lon="-105.2306659">
  <ele>1595.66</ele>
  <time>2026-08-27T18:28:56Z</time>
  <course>8.47</course>
  <speed>0.79</speed>
  <fix>3d</fix>
</trkpt>
<trkpt lat="40.0728591" lon="-105.2306659">
  <ele>1595.59</ele>
  <time>2026-08-27T18:28:56Z</time>
  <course>182.59</course>
  <speed>0.81</speed>
  <fix>3d</fix>
</trkpt>
<trkpt lat="40.0728567" lon="-105.2306658">
  <ele>1595.66</ele>
  <time>2026-08-27T18:28:56Z</time>
  <course>8.51</course>
  <speed>0.6637017402418047</speed>
  <fix>3d</fix>
</trkpt>
<trkpt lat="40.0728577" lon="-105.230666">
  <ele>1595.6</ele>
  <time>2026-08-27T18:28:56Z</time>
  <course>177.83</course>
  <speed>0.75</speed>
  <fix>3d</fix>
</trkpt>
<trkpt lat="40.0728557" lon="-105.2306656">
  <ele>1595.67</ele>
  <time>2026-08-27T18:28:56Z</time>
  <course>8.57</course>
  <speed>0.49729267036625424</speed>
  <fix>3d</fix>
</trkpt>
<trkpt lat="40.0728564" lon="-105.2306658">
  <ele>1595.6</ele>
  <time>2026-08-27T18:28:56Z</time>
  <course>171.76</course>
  <speed>0.62</speed>
  <fix>3d</fix>
</trkpt>
<trkpt lat="40.072855" lon="-105.2306653">
  <ele>1595.68</ele>
  <time>2026-08-27T18:28:56Z</time>
  <course>8.59</course>
  <speed>0.3</speed>
  <fix>3d</fix>
</trkpt>
<trkpt lat="40.0728555" lon="-105.2306656">
  <ele>1595.61</ele>
  <time>2026-08-27T18:28:56Z</time>
  <course>161.59</course>
  <speed>0.43</speed>
  <fix>3d</fix>
</trkpt>
<trkpt lat="40.0728548" lon="-105.2306648">
  <ele>1595.68</ele>
  <time>2026-08-27T18:28:56Z</time>
  <course>8.59</course>
  <speed>0.21</speed>
  <fix>3d</fix>
</trkpt>
<trkpt lat="40.0728549" lon="-105.2306653">
  <ele>1595.61</ele>
  <time>2026-08-27T18:28:56Z</time>
  <course>135.85</course>
  <speed>0.24</speed>
  <fix>3d</fix>
</trkpt>
<trkpt lat="40.0728551" lon="-105.2306644">
  <ele>1595.68</ele>
  <time>2026-08-27T18:28:56Z</time>
  <course>8.57</course>
  <speed>0.33421549934136807</speed>
  <fix>3d</fix>
</trkpt>
<trkpt lat="40.0728548" lon="-105.2306648">
  <ele>1595.61</ele>
  <time>2026-08-27T18:28:56Z</time>
  <course>66.72</course>
  <speed>0.2</speed>
  <fix>3d</fix>
</trkpt>
<trkpt lat="40.0728556" lon="-105.2306639">
  <ele>1595.67</ele>
  <time>2026-08-27T18:28:56Z</time>
  <course>8.51</course>
  <speed>0.5292447448959696</speed>
  <fix>3d</fix>
</trkpt>
<trkpt lat="40.0728551" lon="-105.2306644">
  <ele>1595.61</ele>
  <time>2026-08-27T18:28:56Z</time>
  <course>28.57</course>
  <speed>0.37</speed>
  <fix>3d</fix>
</trkpt>
<trkpt lat="40.0728567" lon="-105.2306636">
  <ele>1595.67</ele>
  <time>2026-08-27T18:28:56Z</time>
  <course>8.45</course>
  <speed>0.688839603971781</speed>
  <fix>3d</fix>
</trkpt>
<trkpt lat="40.072856" lon="-105.230664">
  <ele>1595.6</ele>
  <time>2026-08-27T18:28:56Z</time>
  <course>15.61</course>
  <speed>0.57</speed>
  <fix>3d</fix>
</trkpt>
<trkpt lat="40.072858" lon="-105.2306633">
  <ele>1595.67</ele>
  <time>2026-08-27T18:28:56Z</time>
  <course>8.42</course>
  <speed>0.7877182237323191</speed>
  <fix>3d</fix>
</trkpt>
<trkpt lat="40.0728571" lon="-105.2306637">
  <ele>1595.6</ele>
  <time>2026-08-27T18:28:56Z</time>
  <course>8.69</course>
  <speed>0.72</speed>
  <fix>3d</fix>
</trkpt>
<trkpt lat="40.0728594" lon="-105.2306632">
  <ele>1595.67</ele>
  <time>2026-08-27T18:28:56Z</time>
  <course>8.42</course>
  <speed>0.8109870529176159</speed>
  <fix>3d</fix>
</trkpt>
<trkpt lat="40.0728584" lon="-105.2306635">
  <ele>1595.6</ele>
  <time>2026-08-27T18:28:56Z</time>
  <course>3.71</course>
  <speed>0.81</speed>
  <fix>3d</fix>
</trkpt>
<trkpt lat="40.0728608" lon="-105.2306632">
  <ele>1595.67</ele>
  <time>2026-08-27T18:28:56Z</time>
  <course>8.5</course>
  <speed>0.7702596964660685</speed>
  <fix>3d</fix>
</trkpt>
<trkpt lat="40.0728599" lon="-105.2306634">
  <ele>1595.6</ele>
  <time>2026-08-27T18:28:56Z</time>
  <course>359.22</course>
  <speed>0.83</speed>
  <fix>3d</fix>
</trkpt>
<trkpt lat="40.0728621" lon="-105.2306634">
  <ele>1595.68</ele>
  <time>2026-08-27T18:28:56Z</time>
  <course>8.56</course>
  <speed>0.6562011886609167</speed>
  <fix>3d</fix>
</trkpt>
<trkpt lat="40.0728613" lon="-105.2306635">
  <ele>1595.6</ele>
  <time>2026-08-27T18:28:56Z</time>
  <course>354.38</course>
  <speed>0.77</speed>
  <fix>3d</fix>
</trkpt>
<trkpt lat="40.0728632" lon="-105.2306637">
  <ele>1595.69</ele>
  <time>2026-08-27T18:28:56Z</time>
  <course>8.64</course>
  <speed>0.4808326112068523</speed>
  <fix>3d</fix>
</trkpt>
<trkpt lat="40.0728627" lon="-105.2306637">
  <ele>1595.61</ele>
  <time>2026-08-27T18:28:56Z</time>
  <course>348.0</course>
  <speed>0.64</speed>
  <fix>3d</fix>
</trkpt>
<trkpt lat="40.0728638" lon="-105.2306642">
  <ele>1595.69</ele>
  <time>2026-08-27T18:28:56Z</time>
  <course>8.71</course>
  <speed>0.29832867780352595</speed>
  <fix>3d</fix>
</trkpt>
<trkpt lat="40.0728637" lon="-105.2306641">
  <ele>1595.61</ele>
  <time>2026-08-27T18:28:56Z</time>
  <course>337.34</course>
  <speed>0.47</speed>
  <fix>3d</fix>
</trkpt>
<trkpt lat="40.0728641" lon="-105.2306647">
  <ele>1595.69</ele>
  <time>2026-08-27T18:28:56Z</time>
  <course>8.68</course>
  <speed>0.22090722034374521</speed>
  <fix>3d</fix>
</trkpt>
<trkpt lat="40.0728642" lon="-105.2306645">
  <ele>1595.61</ele>
  <time>2026-08-27T18:28:56Z</time>
  <course>312.88</course>
  <speed>0.29</speed>
  <fix>3d</fix>
</trkpt>
<trkpt lat="40.0728639" lon="-105.2306653">
  <ele>1595.68</ele>
  <time>2026-08-27T18:28:56Z</time>
  <course>8.66</course>
  <speed>0.34828149534535996</speed>
  <fix>3d</fix>
</trkpt>
<trkpt lat="40.0728644" lon="-105.2306651">
  <ele>1595.61</ele>
  <time>2026-08-27T18:28:56Z</time>
  <course>256.09</course>
  <speed>0.23</speed>
  <fix>3d</fix>
</trkpt>
<trkpt lat="40.0728633" lon="-105.2306658">
  <ele>1595.67</ele>
  <time>2026-08-27T18:28:56Z</time>
  <course>8.61</course>
  <speed>0.54230987451825</speed>
  <fix>3d</fix>
</trkpt>
<trkpt lat="40.0728641" lon="-105.2306656">
  <ele>1595.6</ele>
  <time>2026-08-27T18:28:56Z</time>
  <course>215.95</course>
  <speed>0.38</speed>
  <fix>3d</fix>
</trkpt>
<trkpt lat="40.0728623" lon="-105.2306663">
  <ele>1595.67</ele>
  <time>2026-08-27T18:28:56Z</time>
  <course>8.52</course>
  <speed>0.7009279563550023</speed>
  <fix>3d</fix>
</trkpt>
<trkpt lat="40.0728634" lon="-105.2306661">
  <ele>1595.6</ele>
  <time>2026-08-27T18:28:56Z</time>
  <course>200.53</course>
  <speed>0.56</speed>
  <fix>3d</fix>
</trkpt>
<trkpt lat="40.0728611" lon="-105.2306666">
  <ele>1595.67</ele>
  <time>2026-08-27T18:28:56Z</time>
  <course>8.49</course>
  <speed>0.8089499366462674</speed>
  <fix>3d</fix>
</trkpt>
<trkpt lat="40.0728623" lon="-105.2306665">
  <ele>1595.6</ele>
  <time>2026-08-27T18:28:56Z</time>
  <course>192.61</course>
  <speed>0.71</speed>
  <fix>3d</fix>
</trkpt>
<trkpt lat="40.0728597" lon="-105.2306669">
  <ele>1595.67</ele>
  <time>2026-08-27T18:28:56Z</time>
  <course>8.48</course>
  <speed>0.8315046602394962</speed>
  <fix>3d</fix>
</trkpt>
<trkpt lat="40.0728609" lon="-105.2306668">
  <ele>1595.6</ele>
  <time>2026-08-27T18:28:56Z</time>
  <course>187.2</course>
  <speed>0.79</speed>
  <fix>3d</fix>
</trkpt>
<trkpt lat="40.0728583" lon="-105.2306669">
  <ele>1595.67</ele>
  <time>2026-08-27T18:28:56Z</time>
  <course>8.51</course>
  <speed>0.7900632886041472</speed>
  <fix>3d</fix>
</trkpt>
<trkpt lat="40.0728595" lon="-105.230667">
  <ele>1595.6</ele>
  <time>2026-08-27T18:28:56Z</time>
  <course>182.59</course>
  <speed>0.81</speed>
  <fix>3d</fix>
</trkpt>
<trkpt lat="40.072857" lon="-105.2306669">
  <ele>1595.68</ele>
  <time>2026-08-27T18:28:56Z</time>
  <course>8.53</course>
  <speed>0.6637017402418047</speed>
  <fix>3d</fix>
</trkpt>
<trkpt lat="40.0728581" lon="-105.230667">
  <ele>1595.6</ele>
  <time>2026-08-27T18:28:56Z</time>
  <course>177.84</course>
  <speed>0.74</speed>
  <fix>3d</fix>
</trkpt>
<trkpt lat="40.072856" lon="-105.2306667">
  <ele>1595.68</ele>
  <time>2026-08-27T18:28:56Z</time>
  <course>8.58</course>
  <speed>0.49729267036625424</speed>
  <fix>3d</fix>
</trkpt>
<trkpt lat="40.0728568" lon="-105.2306669">
  <ele>1595.6</ele>
  <time>2026-08-27T18:28:56Z</time>
  <course>171.76</course>
  <speed>0.61</speed>
  <fix>3d</fix>
</trkpt>
<trkpt lat="40.0728554" lon="-105.2306663">
  <ele>1595.69</ele>
  <time>2026-08-27T18:28:56Z</time>
  <course>8.62</course>
  <speed>0.3</speed>
  <fix>3d</fix>
</trkpt>
<trkpt lat="40.0728559" lon="-105.2306667">
  <ele>1595.6</ele>
  <time>2026-08-27T18:28:56Z</time>
  <course>161.6</course>
  <speed>0.43</speed>
  <fix>3d</fix>
</trkpt>
<trkpt lat="40.0728552" lon="-105.2306659">
  <ele>1595.68</ele>
  <time>2026-08-27T18:28:56Z</time>
  <course>8.61</course>
  <speed>0.21</speed>
  <fix>3d</fix>
</trkpt>
<trkpt lat="40.0728553" lon="-105.2306663">
  <ele>1595.6</ele>
  <time>2026-08-27T18:28:56Z</time>
  <course>135.63</course>
  <speed>0.24</speed>
  <fix>3d</fix>
</trkpt>
<trkpt lat="40.0728555" lon="-105.2306654">
  <ele>1595.67</ele>
  <time>2026-08-27T18:28:56Z</time>
  <course>8.57</course>
  <speed>0.33421549934136807</speed>
  <fix>3d</fix>
</trkpt>
<trkpt lat="40.0728552" lon="-105.2306659">
  <ele>1595.6</ele>
  <time>2026-08-27T18:28:56Z</time>
  <course>66.07</course>
  <speed>0.2</speed>
  <fix>3d</fix>
</trkpt>
<trkpt lat="40.072856" lon="-105.230665">
  <ele>1595.66</ele>
  <time>2026-08-27T18:28:56Z</time>
  <course>8.49</course>
  <speed>0.5292447448959696</speed>
  <fix>3d</fix>
</trkpt>
<trkpt lat="40.0728555" lon="-105.2306654">
  <ele>1595.59</ele>
  <time>2026-08-27T18:28:56Z</time>
  <course>28.24</course>
  <speed>0.37</speed>
  <fix>3d</fix>
</trkpt>
<trkpt lat="40.0728571" lon="-105.2306646">
  <ele>1595.66</ele>
  <time>2026-08-27T18:28:56Z</time>
  <course>8.43</course>
  <speed>0.688839603971781</speed>
  <fix>3d</fix>
</trkpt>
<trkpt lat="40.0728564" lon="-105.2306651">
  <ele>1595.59</ele>
  <time>2026-08-27T18:28:56Z</time>
  <course>15.42</course>
  <speed>0.57</speed>
  <fix>3d</fix>
</trkpt>
<trkpt lat="40.0728584" lon="-105.2306643">
  <ele>1595.66</ele>
  <time>2026-08-27T18:28:56Z</time>
  <course>8.41</course>
  <speed>0.7877182237323191</speed>
  <fix>3d</fix>
</trkpt>
<trkpt lat="40.0728575" lon="-105.2306648">
  <ele>1595.59</ele>
  <time>2026-08-27T18:28:56Z</time>
  <course>8.58</course>
  <speed>0.72</speed>
  <fix>3d</fix>
</trkpt>
<trkpt lat="40.0728598" lon="-105.2306642">
  <ele>1595.67</ele>
  <time>2026-08-27T18:28:56Z</time>
  <course>8.43</course>
  <speed>0.8209750300709517</speed>
  <fix>3d</fix>
</trkpt>
<trkpt lat="40.0728589" lon="-105.2306646">
  <ele>1595.59</ele>
  <time>2026-08-27T18:28:56Z</time>
  <course>3.61</course>
  <speed>0.81</speed>
  <fix>3d</fix>
</trkpt>
<trkpt lat="40.0728613" lon="-105.2306643">
  <ele>1595.68</ele>
  <time>2026-08-27T18:28:56Z</time>
  <course>8.5</course>
  <speed>0.7702596964660685</speed>
  <fix>3d</fix>
</trkpt>
<trkpt lat="40.0728604" lon="-105.2306646">
  <ele>1595.59</ele>
  <time>2026-08-27T18:28:56Z</time>
  <course>359.14</course>
  <speed>0.83</speed>
  <fix>3d</fix>
</trkpt>
<trkpt lat="40.0728626" lon="-105.2306644">
  <ele>1595.68</ele>
  <time>2026-08-27T18:28:56Z</time>
  <course>8.55</course>
  <speed>0.6562011886609167</speed>
  <fix>3d</fix>
</trkpt>
<trkpt lat="40.0728619" lon="-105.2306646">
  <ele>1595.59</ele>
  <time>2026-08-27T18:28:56Z</time>
  <course>354.3</course>
  <speed>0.77</speed>
  <fix>3d</fix>
</trkpt>
<trkpt lat="40.0728636" lon="-105.2306648">
  <ele>1595.68</ele>
  <time>2026-08-27T18:28:56Z</time>
  <course>8.6</course>
  <speed>0.4838388161361178</speed>
  <fix>3d</fix>
</trkpt>
<trkpt lat="40.0728632" lon="-105.2306648">
  <ele>1595.59</ele>
  <time>2026-08-27T18:28:56Z</time>
  <course>347.91</course>
  <speed>0.65</speed>
  <fix>3d</fix>
</trkpt>
<trkpt lat="40.0728643" lon="-105.2306652">
  <ele>1595.68</ele>
  <time>2026-08-27T18:28:56Z</time>
  <course>8.67</course>
  <speed>0.29832867780352595</speed>
  <fix>3d</fix>
</trkpt>
<trkpt lat="40.0728641" lon="-105.2306652">
  <ele>1595.6</ele>
  <time>2026-08-27T18:28:56Z</time>
  <course>337.2</course>
  <speed>0.47</speed>
  <fix>3d</fix>
</trkpt>
<trkpt lat="40.0728646" lon="-105.2306658">
  <ele>1595.68</ele>
  <time>2026-08-27T18:28:56Z</time>
  <course>8.66</course>
  <speed>0.22090722034374521</speed>
  <fix>3d</fix>
</trkpt>
<trkpt lat="40.0728646" lon="-105.2306656">
  <ele>1595.6</ele>
  <time>2026-08-27T18:28:56Z</time>
  <course>312.56</course>
  <speed>0.29</speed>
  <fix>3d</fix>
</trkpt>
<trkpt lat="40.0728644" lon="-105.2306664">
  <ele>1595.68</ele>
  <time>2026-08-27T18:28:56Z</time>
  <course>8.65</course>
  <speed>0.34828149534535996</speed>
  <fix>3d</fix>
</trkpt>
<trkpt lat="40.0728649" lon="-105.2306662">
  <ele>1595.6</ele>
  <time>2026-08-27T18:28:56Z</time>
  <course>255.65</course>
  <speed>0.23</speed>
  <fix>3d</fix>
</trkpt>
<trkpt lat="40.0728638" lon="-105.2306669">
  <ele>1595.68</ele>
  <time>2026-08-27T18:28:56Z</time>
  <course>8.6</course>
  <speed>0.54230987451825</speed>
  <fix>3d</fix>
</trkpt>
<trkpt lat="40.0728646" lon="-105.2306667">
  <ele>1595.59</ele>
  <time>2026-08-27T18:28:56Z</time>
  <course>215.91</course>
  <speed>0.38</speed>
  <fix>3d</fix>
</trkpt>
<trkpt lat="40.0728628" lon="-105.2306674">
  <ele>1595.67</ele>
  <time>2026-08-27T18:28:56Z</time>
  <course>8.53</course>
  <speed>0.7009279563550023</speed>
  <fix>3d</fix>
</trkpt>
<trkpt lat="40.0728638" lon="-105.2306672">
  <ele>1595.59</ele>
  <time>2026-08-27T18:28:56Z</time>
  <course>200.56</course>
  <speed>0.56</speed>
  <fix>3d</fix>
</trkpt>
<trkpt lat="40.0728616" lon="-105.2306677">
  <ele>1595.67</ele>
  <time>2026-08-27T18:28:56Z</time>
  <course>8.51</course>
  <speed>0.8089499366462674</speed>
  <fix>3d</fix>
</trkpt>
<trkpt lat="40.0728627" lon="-105.2306677">
  <ele>1595.58</ele>
  <time>2026-08-27T18:28:56Z</time>
  <course>192.65</course>
  <speed>0.71</speed>
  <fix>3d</fix>
</trkpt>
<trkpt lat="40.0728601" lon="-105.230668">
  <ele>1595.67</ele>
  <time>2026-08-27T18:28:56Z</time>
  <course>8.5</course>
  <speed>0.8321658488546619</speed>
  <fix>3d</fix>
</trkpt>
<trkpt lat="40.0728613" lon="-105.230668">
  <ele>1595.58</ele>
  <time>2026-08-27T18:28:56Z</time>
  <course>187.23</course>
  <speed>0.8</speed>
  <fix>3d</fix>
</trkpt>
<trkpt lat="40.0728587" lon="-105.230668">
  <ele>1595.67</ele>
  <time>2026-08-27T18:28:56Z</time>
  <course>8.49</course>
  <speed>0.79</speed>
  <fix>3d</fix>
</trkpt>
<trkpt lat="40.0728599" lon="-105.2306681">
  <ele>1595.58</ele>
  <time>2026-08-27T18:28:56Z</time>
  <course>182.62</course>
  <speed>0.81</speed>
  <fix>3d</fix>
</trkpt>
<trkpt lat="40.0728575" lon="-105.230668">
  <ele>1595.67</ele>
  <time>2026-08-27T18:28:56Z</time>
  <course>8.56</course>
  <speed>0.6637017402418047</speed>
  <fix>3d</fix>
</trkpt>
<trkpt lat="40.0728584" lon="-105.2306681">
  <ele>1595.58</ele>
  <time>2026-08-27T18:28:56Z</time>
  <course>177.87</course>
  <speed>0.75</speed>
  <fix>3d</fix>
</trkpt>
<trkpt lat="40.0728565" lon="-105.2306678">
  <ele>1595.67</ele>
  <time>2026-08-27T18:28:56Z</time>
  <course>8.6</course>
  <speed>0.49729267036625424</speed>
  <fix>3d</fix>
</trkpt>
<trkpt lat="40.0728572" lon="-105.230668">
  <ele>1595.59</ele>
  <time>2026-08-27T18:28:56Z</time>
  <course>171.84</course>
  <speed>0.62</speed>
  <fix>3d</fix>
</trkpt>
<trkpt lat="40.0728558" lon="-105.2306674">
  <ele>1595.67</ele>
  <time>2026-08-27T18:28:56Z</time>
  <course>8.6</course>
  <speed>0.3</speed>
  <fix>3d</fix>
</trkpt>
<trkpt lat="40.0728563" lon="-105.2306678">
  <ele>1595.59</ele>
  <time>2026-08-27T18:28:56Z</time>
  <course>161.71</course>
  <speed>0.43</speed>
  <fix>3d</fix>
</trkpt>
<trkpt lat="40.0728556" lon="-105.230667">
  <ele>1595.67</ele>
  <time>2026-08-27T18:28:56Z</time>
  <course>8.57</course>
  <speed>0.21</speed>
  <fix>3d</fix>
</trkpt>
<trkpt lat="40.0728558" lon="-105.2306675">
  <ele>1595.59</ele>
  <time>2026-08-27T18:28:56Z</time>
  <course>135.94</course>
  <speed>0.24</speed>
  <fix>3d</fix>
</trkpt>
<trkpt lat="40.0728558" lon="-105.2306665">
  <ele>1595.67</ele>
  <time>2026-08-27T18:28:56Z</time>
  <course>8.49</course>
  <speed>0.29698484809834996</speed>
  <fix>3d</fix>
</trkpt>
<trkpt lat="40.0728556" lon="-105.230667">
  <ele>1595.59</ele>
  <time>2026-08-27T18:28:56Z</time>
  <course>70.03</course>
  <speed>0.19</speed>
  <fix>3d</fix>
</trkpt>
<trkpt lat="40.0728562" lon="-105.2306661">
  <ele>1595.67</ele>
  <time>2026-08-27T18:28:56Z</time>
  <course>8.45</course>
  <speed>0.34</speed>
  <fix>3d</fix>
</trkpt>
<trkpt lat="40.0728558" lon="-105.2306665">
  <ele>1595.59</ele>
  <time>2026-08-27T18:28:56Z</time>
  <course>34.64</course>
  <speed>0.29</speed>
  <fix>3d</fix>
</trkpt>
<trkpt lat="40.0728568" lon="-105.2306659">
  <ele>1595.67</ele>
  <time>2026-08-27T18:28:56Z</time>
  <course>8.55</course>
  <speed>0.3478505426185217</speed>
  <fix>3d</fix>
</trkpt>
<trkpt lat="40.0728563" lon="-105.2306662">
  <ele>1595.59</ele>
  <time>2026-08-27T18:28:56Z</time>
  <course>20.12</course>
  <speed>0.35</speed>
  <fix>3d</fix>
</trkpt>
<trkpt lat="40.0728574" lon="-105.2306657">
  <ele>1595.67</ele>
  <time>2026-08-27T18:28:56Z</time>
  <course>8.59</course>
  <speed>0.33541019662496846</speed>
  <fix>3d</fix>
</trkpt>
<trkpt lat="40.072857" lon="-105.230666">
  <ele>1595.59</ele>
  <time>2026-08-27T18:28:56Z</time>
  <course>10.91</course>
  <speed>0.36</speed>
  <fix>3d</fix>
</trkpt>
<trkpt lat="40.072858" lon="-105.2306657">
  <ele>1595.67</ele>
  <time>2026-08-27T18:28:56Z</time>
  <course>8.62</course>
  <speed>0.31144823004794875</speed>
  <fix>3d</fix>
</trkpt>
<trkpt lat="40.0728577" lon="-105.2306659">
  <ele>1595.59</ele>
  <time>2026-08-27T18:28:56Z</time>
  <course>4.59</course>
  <speed>0.35</speed>
  <fix>3d</fix>
</trkpt>
<trkpt lat="40.0728585" lon="-105.2306657">
  <ele>1595.66</ele>
  <time>2026-08-27T18:28:56Z</time>
  <course>8.62</course>
  <speed>0.29017236257093815</speed>
  <fix>3d</fix>
</trkpt>
<trkpt lat="40.0728582" lon="-105.2306658">
  <ele>1595.59</ele>
  <time>2026-08-27T18:28:56Z</time>
  <course>0.39</course>
  <speed>0.33</speed>
  <fix>3d</fix>
</trkpt>
<trkpt lat="40.0728591" lon="-105.2306657">
  <ele>1595.66</ele>
  <time>2026-08-27T18:28:56Z</time>
  <course>8.62</course>
  <speed>0.27</speed>
  <fix>3d</fix>
</trkpt>
<trkpt lat="40.0728589" lon="-105.2306658">
  <ele>1595.59</ele>
  <time>2026-08-27T18:28:56Z</time>
  <course>357.77</course>
  <speed>0.31</speed>
  <fix>3d</fix>
</trkpt>
<trkpt lat="40.0728596" lon="-105.2306657">
  <ele>1595.66</ele>
  <time>2026-08-27T18:28:56Z</time>
  <course>8.61</course>
  <speed>0.25</speed>
  <fix>3d</fix>
</trkpt>
<trkpt lat="40.0728594" lon="-105.2306658">
  <ele>1595.59</ele>
  <time>2026-08-27T18:28:56Z</time>
  <course>356.31</course>
  <speed>0.29</speed>
  <fix>3d</fix>
</trkpt>
<trkpt lat="40.07286" lon="-105.2306657">
  <ele>1595.65</ele>
  <time>2026-08-27T18:28:56Z</time>
  <course>8.6</course>
  <speed>0.23</speed>
  <fix>3d</fix>
</trkpt>
<trkpt lat="40.0728599" lon="-105.2306658">
  <ele>1595.59</ele>
  <time>2026-08-27T18:28:56Z</time>
  <course>355.59</course>
  <speed>0.27</speed>
  <fix>3d</fix>
</trkpt>
<trkpt lat="40.0728605" lon="-105.2306657">
  <ele>1595.66</ele>
  <time>2026-08-27T18:28:56Z</time>
  <course>8.58</course>
  <speed>0.22</speed>
  <fix>3d</fix>
</trkpt>
<trkpt lat="40.0728603" lon="-105.2306659">
  <ele>1595.6</ele>
  <time>2026-08-27T18:28:56Z</time>
  <course>355.3</course>
  <speed>0.25</speed>
  <fix>3d</fix>
</trkpt>
<trkpt lat="40.0728609" lon="-105.2306658">
  <ele>1595.66</ele>
  <time>2026-08-27T18:28:56Z</time>
  <course>8.59</course>
  <speed>0.2</speed>
  <fix>3d</fix>
</trkpt>
<trkpt lat="40.0728608" lon="-105.230666">
  <ele>1595.6</ele>
  <time>2026-08-27T18:28:56Z</time>
  <course>355.23</course>
  <speed>0.24</speed>
  <fix>3d</fix>
</trkpt>
<trkpt lat="40.0728613" lon="-105.2306658">
  <ele>1595.66</ele>
  <time>2026-08-27T18:28:56Z</time>
  <course>8.57</course>
  <speed>0.19</speed>
  <fix>3d</fix>
</trkpt>
<trkpt lat="40.0728613" lon="-105.230666">
  <ele>1595.6</ele>
  <time>2026-08-27T18:28:56Z</time>
  <course>355.35</course>
  <speed>0.22</speed>
  <fix>3d</fix>
</trkpt>
<trkpt lat="40.0728617" lon="-105.2306658">
  <ele>1595.66</ele>
  <time>2026-08-27T18:28:56Z</time>
  <course>8.58</course>
  <speed>0.18</speed>
  <fix>3d</fix>
</trkpt>
<trkpt lat="40.0728617" lon="-105.230666">
  <ele>1595.61</ele>
  <time>2026-08-27T18:28:56Z</time>
  <course>355.58</course>
  <speed>0.21</speed>
  <fix>3d</fix>
</trkpt>
<trkpt lat="40.0728621" lon="-105.2306659">
  <ele>1595.66</ele>
  <time>2026-08-27T18:28:56Z</time>
  <course>8.6</course>
  <speed>0.17</speed>
  <fix>3d</fix>
</trkpt>
<trkpt lat="40.072862" lon="-105.2306661">
  <ele>1595.61</ele>
  <time>2026-08-27T18:28:56Z</time>
  <course>355.64</course>
  <speed>0.2</speed>
  <fix>3d</fix>
</trkpt>
<trkpt lat="40.0728624" lon="-105.2306659">
  <ele>1595.67</ele>
  <time>2026-08-27T18:28:56Z</time>
  <course>8.57</course>
  <speed>0.17</speed>
  <fix>3d</fix>
</trkpt>
<trkpt lat="40.0728624" lon="-105.2306662">
  <ele>1595.61</ele>
  <time>2026-08-27T18:28:56Z</time>
  <course>355.58</course>
  <speed>0.19</speed>
  <fix>3d</fix>
</trkpt>
<trkpt lat="40.0728628" lon="-105.2306659">
  <ele>1595.67</ele>
  <time>2026-08-27T18:28:56Z</time>
  <course>8.59</course>
  <speed>0.16</speed>
  <fix>3d</fix>
</trkpt>
<trkpt lat="40.0728627" lon="-105.2306662">
  <ele>1595.62</ele>
  <time>2026-08-27T18:28:56Z</time>
  <course>355.6</course>
  <speed>0.19</speed>
  <fix>3d</fix>
</trkpt>
<trkpt lat="40.0728631" lon="-105.230666">
  <ele>1595.67</ele>
  <time>2026-08-27T18:28:56Z</time>
  <course>8.6</course>
  <speed>0.15</speed>
  <fix>3d</fix>
</trkpt>
<trkpt lat="40.0728631" lon="-105.2306662">
  <ele>1595.62</ele>
  <time>2026-08-27T18:28:56Z</time>
  <course>355.67</course>
  <speed>0.18</speed>
  <fix>3d</fix>
</trkpt>
<trkpt lat="40.0728634" lon="-105.230666">
  <ele>1595.68</ele>
  <time>2026-08-27T18:28:56Z</time>
  <course>8.62</course>
  <speed>0.16</speed>
  <fix>3d</fix>
</trkpt>
<trkpt lat="40.0728634" lon="-105.2306663">
  <ele>1595.62</ele>
  <time>2026-08-27T18:28:56Z</time>
  <course>355.75</course>
  <speed>0.17</speed>
  <fix>3d</fix>
</trkpt>
<trkpt lat="40.0728638" lon="-105.230666">
  <ele>1595.68</ele>
  <time>2026-08-27T18:28:56Z</time>
  <course>8.63</course>
  <speed>0.18027756377319945</speed>
  <fix>3d</fix>
</trkpt>
<trkpt lat="40.0728637" lon="-105.2306663">
  <ele>1595.62</ele>
  <time>2026-08-27T18:28:56Z</time>
  <course>357.1</course>
  <speed>0.18</speed>
  <fix>3d</fix>
</trkpt>
<trkpt lat="40.0728642" lon="-105.230666">
  <ele>1595.68</ele>
  <time>2026-08-27T18:28:57Z</time>
  <course>8.62</course>
  <speed>0.24186773244895649</speed>
  <fix>3d</fix>
</trkpt>
<trkpt lat="40.0728641" lon="-105.2306663">
  <ele>1595.62</ele>
  <time>2026-08-27T18:28:57Z</time>
  <course>0.91</course>
  <speed>0.22</speed>
  <fix>3d</fix>
</trkpt>
<trkpt lat="40.0728647" lon="-105.230666">
  <ele>1595.69</ele>
  <time>2026-08-27T18:28:57Z</time>
  <course>8.6</course>
  <speed>0.33541019662496846</speed>
  <fix>3d</fix>
</trkpt>
<trkpt lat="40.0728645" lon="-105.2306663">
  <ele>1595.62</ele>
  <time>2026-08-27T18:28:57Z</time>
  <course>5.08</course>
  <speed>0.29</speed>
  <fix>3d</fix>
</trkpt>
<trkpt lat="40.0728655" lon="-105.2306659">
  <ele>1595.68</ele>
  <time>2026-08-27T18:28:57Z</time>
  <course>8.59</course>
  <speed>0.4491102314577124</speed>
  <fix>3d</fix>
</trkpt>
<trkpt lat="40.0728651" lon="-105.2306662">
  <ele>1595.62</ele>
  <time>2026-08-27T18:28:57Z</time>
  <course>7.64</course>
  <speed>0.38</speed>
  <fix>3d</fix>
</trkpt>
<trkpt lat="40.0728664" lon="-105.2306657">
  <ele>1595.68</ele>
  <time>2026-08-27T18:28:57Z</time>
  <course>8.56</course>
  <speed>0.5608921464952064</speed>
  <fix>3d</fix>
</trkpt>
<trkpt lat="40.0728659" lon="-105.2306661">
  <ele>1595.62</ele>
  <time>2026-08-27T18:28:57Z</time>
  <course>8.59</course>
  <speed>0.49</speed>
  <fix>3d</fix>
</trkpt>
<trkpt lat="40.0728675" lon="-105.2306655">
  <ele>1595.68</ele>
  <time>2026-08-27T18:28:57Z</time>
  <course>8.54</course>
  <speed>0.6493843238021688</speed>
  <fix>3d</fix>
</trkpt>
<trkpt lat="40.0728669" lon="-105.2306658">
  <ele>1595.61</ele>
  <time>2026-08-27T18:28:57Z</time>
  <course>8.43</course>
  <speed>0.6</speed>
  <fix>3d</fix>
</trkpt>
<trkpt lat="40.0728687" lon="-105.2306653">
  <ele>1595.68</ele>
  <time>2026-08-27T18:28:57Z</time>
  <course>8.54</course>
  <speed>0.6972087205421343</speed>
  <fix>3d</fix>
</trkpt>
<trkpt lat="40.0728681" lon="-105.2306657">
  <ele>1595.61</ele>
  <time>2026-08-27T18:28:57Z</time>
  <course>7.52</course>
  <speed>0.68</speed>
  <fix>3d</fix>
</trkpt>
<trkpt lat="40.07287" lon="-105.2306651">
  <ele>1595.68</ele>
  <time>2026-08-27T18:28:57Z</time>
  <course>8.55</course>
  <speed>0.7045565981523414</speed>
  <fix>3d</fix>
</trkpt>
<trkpt lat="40.0728693" lon="-105.2306654">
  <ele>1595.61</ele>
  <time>2026-08-27T18:28:57Z</time>
  <course>6.04</course>
  <speed>0.72</speed>
  <fix>3d</fix>
</trkpt>
<trkpt lat="40.0728713" lon="-105.230665">
  <ele>1595.68</ele>
  <time>2026-08-27T18:28:57Z</time>
  <course>8.56</course>
  <speed>0.6512296062065974</speed>
  <fix>3d</fix>
</trkpt>
<trkpt lat="40.0728706" lon="-105.2306653">
  <ele>1595.61</ele>
  <time>2026-08-27T18:28:57Z</time>
  <course>3.99</course>
  <speed>0.71</speed>
  <fix>3d</fix>
</trkpt>
<trkpt lat="40.0728724" lon="-105.2306651">
  <ele>1595.68</ele>
  <time>2026-08-27T18:28:57Z</time>
  <course>8.59</course>
  <speed>0.53</speed>
  <fix>3d</fix>
</trkpt>
<trkpt lat="40.0728718" lon="-105.2306653">
  <ele>1595.61</ele>
  <time>2026-08-27T18:28:57Z</time>
  <course>1.18</course>
  <speed>0.64</speed>
  <fix>3d</fix>
</trkpt>
<trkpt lat="40.0728732" lon="-105.2306651">
  <ele>1595.68</ele>
  <time>2026-08-27T18:28:57Z</time>
  <course>8.64</course>
  <speed>0.37336309405188944</speed>
  <fix>3d</fix>
</trkpt>
<trkpt lat="40.0728729" lon="-105.2306653">
  <ele>1595.61</ele>
  <time>2026-08-27T18:28:57Z</time>
  <course>356.87</course>
  <speed>0.52</speed>
  <fix>3d</fix>
</trkpt>
<trkpt lat="40.0728738" lon="-105.2306653">
  <ele>1595.68</ele>
  <time>2026-08-27T18:28:57Z</time>
  <course>8.66</course>
  <speed>0.1835755975068582</speed>
  <fix>3d</fix>
</trkpt>
<trkpt lat="40.0728737" lon="-105.2306654">
  <ele>1595.61</ele>
  <time>2026-08-27T18:28:57Z</time>
  <course>348.46</course>
  <speed>0.35</speed>
  <fix>3d</fix>
</trkpt>
<trkpt lat="40.0728739" lon="-105.2306656">
  <ele>1595.67</ele>
  <time>2026-08-27T18:28:57Z</time>
  <course>8.61</course>
  <speed>0.14317821063276354</speed>
  <fix>3d</fix>
</trkpt>
<trkpt lat="40.0728741" lon="-105.2306656">
  <ele>1595.61</ele>
  <time>2026-08-27T18:28:57Z</time>
  <course>320.31</course>
  <speed>0.16</speed>
  <fix>3d</fix>
</trkpt>
<trkpt lat="40.0728737" lon="-105.2306659">
  <ele>1595.67</ele>
  <time>2026-08-27T18:28:57Z</time>
  <course>8.6</course>
  <speed>0.33541019662496846</speed>
  <fix>3d</fix>
</trkpt>
<trkpt lat="40.0728742" lon="-105.2306658">
  <ele>1595.61</ele>
  <time>2026-08-27T18:28:57Z</time>
  <course>231.52</course>
  <speed>0.16</speed>
  <fix>3d</fix>
</trkpt>
<trkpt lat="40.0728731" lon="-105.2306663">
  <ele>1595.67</ele>
  <time>2026-08-27T18:28:57Z</time>
  <course>8.52</course>
  <speed>0.5345091205957107</speed>
  <fix>3d</fix>
</trkpt>
<trkpt lat="40.0728738" lon="-105.2306661">
  <ele>1595.61</ele>
  <time>2026-08-27T18:28:57Z</time>
  <course>203.37</course>
  <speed>0.36</speed>
  <fix>3d</fix>
</trkpt>
<trkpt lat="40.072872" lon="-105.2306667">
  <ele>1595.67</ele>
  <time>2026-08-27T18:28:57Z</time>
  <course>8.5</course>
  <speed>0.6942621983083913</speed>
  <fix>3d</fix>
</trkpt>
<trkpt lat="40.072873" lon="-105.2306665">
  <ele>1595.6</ele>
  <time>2026-08-27T18:28:57Z</time>
  <course>194.67</course>
  <speed>0.56</speed>
  <fix>3d</fix>
</trkpt>
<trkpt lat="40.0728708" lon="-105.230667">
  <ele>1595.67</ele>
  <time>2026-08-27T18:28:57Z</time>
  <course>8.47</course>
  <speed>0.8075270893288967</speed>
  <fix>3d</fix>
</trkpt>
<trkpt lat="40.0728719" lon="-105.2306668">
  <ele>1595.6</ele>
  <time>2026-08-27T18:28:57Z</time>
  <course>189.88</course>
  <speed>0.71</speed>
  <fix>3d</fix>
</trkpt>
<trkpt lat="40.0728694" lon="-105.2306672">
  <ele>1595.67</ele>
  <time>2026-08-27T18:28:57Z</time>
  <course>8.47</course>
  <speed>0.8429116205154606</speed>
  <fix>3d</fix>
</trkpt>
<trkpt lat="40.0728705" lon="-105.2306671">
  <ele>1595.6</ele>
  <time>2026-08-27T18:28:57Z</time>
  <course>186.33</course>
  <speed>0.8</speed>
  <fix>3d</fix>
</trkpt>
<trkpt lat="40.0728679" lon="-105.2306672">
  <ele>1595.68</ele>
  <time>2026-08-27T18:28:57Z</time>
  <course>8.5</course>
  <speed>0.8000624975587844</speed>
  <fix>3d</fix>
</trkpt>
<trkpt lat="40.072869" lon="-105.2306672">
  <ele>1595.6</ele>
  <time>2026-08-27T18:28:57Z</time>
  <course>183.11</course>
  <speed>0.83</speed>
  <fix>3d</fix>
</trkpt>
<trkpt lat="40.0728666" lon="-105.2306672">
  <ele>1595.68</ele>
  <time>2026-08-27T18:28:57Z</time>
  <course>8.57</course>
  <speed>0.6911584478250989</speed>
  <fix>3d</fix>
</trkpt>
<trkpt lat="40.0728675" lon="-105.2306672">
  <ele>1595.6</ele>
  <time>2026-08-27T18:28:57Z</time>
  <course>179.62</course>
  <speed>0.77</speed>
  <fix>3d</fix>
</trkpt>
<trkpt lat="40.0728655" lon="-105.2306671">
  <ele>1595.68</ele>
  <time>2026-08-27T18:28:57Z</time>
  <course>8.59</course>
  <speed>0.5277309920783505</speed>
  <fix>3d</fix>
</trkpt>
<trkpt lat="40.0728663" lon="-105.2306672">
  <ele>1595.61</ele>
  <time>2026-08-27T18:28:57Z</time>
  <course>175.1</course>
  <speed>0.65</speed>
  <fix>3d</fix>
</trkpt>
<trkpt lat="40.0728648" lon="-105.2306668">
  <ele>1595.69</ele>
  <time>2026-08-27T18:28:57Z</time>
  <course>8.61</course>
  <speed>0.33105890714493696</speed>
  <fix>3d</fix>
</trkpt>
<trkpt lat="40.0728653" lon="-105.230667">
  <ele>1595.61</ele>
  <time>2026-08-27T18:28:57Z</time>
  <course>167.8</course>
  <speed>0.47</speed>
  <fix>3d</fix>
</trkpt>
<trkpt lat="40.0728645" lon="-105.2306665">
  <ele>1595.69</ele>
  <time>2026-08-27T18:28:57Z</time>
  <course>8.59</course>
  <speed>0.1772004514666935</speed>
  <fix>3d</fix>
</trkpt>
<trkpt lat="40.0728646" lon="-105.2306668">
  <ele>1595.61</ele>
  <time>2026-08-27T18:28:57Z</time>
  <course>150.28</course>
  <speed>0.27</speed>
  <fix>3d</fix>
</trkpt>
<trkpt lat="40.0728645" lon="-105.2306661">
  <ele>1595.69</ele>
  <time>2026-08-27T18:28:57Z</time>
  <course>8.58</course>
  <speed>0.27586228448267447</speed>
  <fix>3d</fix>
</trkpt>
<trkpt lat="40.0728645" lon="-105.2306665">
  <ele>1595.6</ele>
  <time>2026-08-27T18:28:57Z</time>
  <course>83.48</course>
  <speed>0.15</speed>
  <fix>3d</fix>
</trkpt>
<trkpt lat="40.0728651" lon="-105.2306657">
  <ele>1595.68</ele>
  <time>2026-08-27T18:28:57Z</time>
  <course>8.55</course>
  <speed>0.4661544808322666</speed>
  <fix>3d</fix>
</trkpt>
<trkpt lat="40.0728646" lon="-105.230666">
  <ele>1595.6</ele>
  <time>2026-08-27T18:28:57Z</time>
  <course>29.65</course>
  <speed>0.31</speed>
  <fix>3d</fix>
</trkpt>
<trkpt lat="40.072866" lon="-105.2306653">
  <ele>1595.67</ele>
  <time>2026-08-27T18:28:57Z</time>
  <course>8.53</course>
  <speed>0.6476109943476871</speed>
  <fix>3d</fix>
</trkpt>
<trkpt lat="40.0728653" lon="-105.2306657">
  <ele>1595.59</ele>
  <time>2026-08-27T18:28:57Z</time>
  <course>15.27</course>
  <speed>0.51</speed>
  <fix>3d</fix>
</trkpt>
<trkpt lat="40.0728673" lon="-105.2306651">
  <ele>1595.67</ele>
  <time>2026-08-27T18:28:57Z</time>
  <course>8.44</course>
  <speed>0.7679192665899195</speed>
  <fix>3d</fix>
</trkpt>
<trkpt lat="40.0728663" lon="-105.2306654">
  <ele>1595.58</ele>
  <time>2026-08-27T18:28:57Z</time>
  <course>8.48</course>
  <speed>0.68</speed>
  <fix>3d</fix>
</trkpt>
<trkpt lat="40.0728687" lon="-105.230665">
  <ele>1595.67</ele>
  <time>2026-08-27T18:28:57Z</time>
  <course>8.42</course>
  <speed>0.8115417426109393</speed>
  <fix>3d</fix>
</trkpt>
<trkpt lat="40.0728677" lon="-105.2306653">
  <ele>1595.58</ele>
  <time>2026-08-27T18:28:57Z</time>
  <course>3.78</course>
  <speed>0.79</speed>
  <fix>3d</fix>
</trkpt>
<trkpt lat="40.0728701" lon="-105.230665">
  <ele>1595.68</ele>
  <time>2026-08-27T18:28:57Z</time>
  <course>8.45</course>
  <speed>0.79</speed>
  <fix>3d</fix>
</trkpt>
<trkpt lat="40.0728692" lon="-105.2306653">
  <ele>1595.58</ele>
  <time>2026-08-27T18:28:57Z</time>
  <course>359.64</course>
  <speed>0.83</speed>
  <fix>3d</fix>
</trkpt>
<trkpt lat="40.0728715" lon="-105.2306651">
  <ele>1595.68</ele>
  <time>2026-08-27T18:28:57Z</time>
  <course>8.54</course>
  <speed>0.6835934464285041</speed>
  <fix>3d</fix>
</trkpt>
<trkpt lat="40.0728706" lon="-105.2306653">
  <ele>1595.58</ele>
  <time>2026-08-27T18:28:57Z</time>
  <course>355.26</course>
  <speed>0.79</speed>
  <fix>3d</fix>
</trkpt>
<trkpt lat="40.0728726" lon="-105.2306654">
  <ele>1595.68</ele>
  <time>2026-08-27T18:28:57Z</time>
  <course>8.62</course>
  <speed>0.5263078946776306</speed>
  <fix>3d</fix>
</trkpt>
<trkpt lat="40.0728719" lon="-105.2306654">
  <ele>1595.58</ele>
  <time>2026-08-27T18:28:57Z</time>
  <course>349.66</course>
  <speed>0.68</speed>
  <fix>3d</fix>
</trkpt>
<trkpt lat="40.0728733" lon="-105.2306658">
  <ele>1595.68</ele>
  <time>2026-08-27T18:28:57Z</time>
  <course>8.68</course>
  <speed>0.3361547262794322</speed>
  <fix>3d</fix>
</trkpt>
<trkpt lat="40.072873" lon="-105.2306658">
  <ele>1595.58</ele>
  <time>2026-08-27T18:28:57Z</time>
  <course>340.78</course>
  <speed>0.51</speed>
  <fix>3d</fix>
</trkpt>
<trkpt lat="40.0728737" lon="-105.2306663">
  <ele>1595.67</ele>
  <time>2026-08-27T18:28:57Z</time>
  <course>8.64</course>
  <speed>0.2039607805437114</speed>
  <fix>3d</fix>
</trkpt>
<trkpt lat="40.0728737" lon="-105.2306662">
  <ele>1595.58</ele>
  <time>2026-08-27T18:28:57Z</time>
  <course>321.78</course>
  <speed>0.33</speed>
  <fix>3d</fix>
</trkpt>
<trkpt lat="40.0728737" lon="-105.2306669">
  <ele>1595.66</ele>
  <time>2026-08-27T18:28:57Z</time>
  <course>8.63</course>
  <speed>0.304138126514911</speed>
  <fix>3d</fix>
</trkpt>
<trkpt lat="40.072874" lon="-105.2306667">
  <ele>1595.58</ele>
  <time>2026-08-27T18:28:57Z</time>
  <course>271.76</course>
  <speed>0.22</speed>
  <fix>3d</fix>
</trkpt>
<trkpt lat="40.0728732" lon="-105.2306674">
  <ele>1595.66</ele>
  <time>2026-08-27T18:28:57Z</time>
  <course>8.56</course>
  <speed>0.4965883607174055</speed>
  <fix>3d</fix>
</trkpt>
<trkpt lat="40.0728737" lon="-105.2306672">
  <ele>1595.58</ele>
  <time>2026-08-27T18:28:57Z</time>
  <course>222.0</course>
  <speed>0.33</speed>
  <fix>3d</fix>
</trkpt>
<trkpt lat="40.0728723" lon="-105.2306679">
  <ele>1595.65</ele>
  <time>2026-08-27T18:28:57Z</time>
  <course>8.46</course>
  <speed>0.6648308055437865</speed>
  <fix>3d</fix>
</trkpt>
<trkpt lat="40.0728732" lon="-105.2306677">
  <ele>1595.58</ele>
  <time>2026-08-27T18:28:57Z</time>
  <course>203.04</course>
  <speed>0.51</speed>
  <fix>3d</fix>
</trkpt>
<trkpt lat="40.072871" lon="-105.2306683">
  <ele>1595.65</ele>
  <time>2026-08-27T18:28:57Z</time>
  <course>8.39</course>
  <speed>0.7907591289387687</speed>
  <fix>3d</fix>
</trkpt>
<trkpt lat="40.0728722" lon="-105.2306682">
  <ele>1595.58</ele>
  <time>2026-08-27T18:28:57Z</time>
  <course>194.11</course>
  <speed>0.68</speed>
  <fix>3d</fix>
</trkpt>
<trkpt lat="40.0728697" lon="-105.2306686">
  <ele>1595.65</ele>
  <time>2026-08-27T18:28:57Z</time>
  <course>8.39</course>
  <speed>0.8329465769183519</speed>
  <fix>3d</fix>
</trkpt>
<trkpt lat="40.0728709" lon="-105.2306685">
  <ele>1595.58</ele>
  <time>2026-08-27T18:28:57Z</time>
  <course>188.41</course>
  <speed>0.78</speed>
  <fix>3d</fix>
</trkpt>
<trkpt lat="40.0728682" lon="-105.2306687">
  <ele>1595.66</ele>
  <time>2026-08-27T18:28:57Z</time>
  <course>8.44</course>
  <speed>0.81</speed>
  <fix>3d</fix>
</trkpt>
<trkpt lat="40.0728694" lon="-105.2306687">
  <ele>1595.58</ele>
  <time>2026-08-27T18:28:57Z</time>
  <course>183.84</course>
  <speed>0.82</speed>
  <fix>3d</fix>
</trkpt>
<trkpt lat="40.0728669" lon="-105.2306686">
  <ele>1595.66</ele>
  <time>2026-08-27T18:28:57Z</time>
  <course>8.47</course>
  <speed>0.7125307010929425</speed>
  <fix>3d</fix>
</trkpt>
<trkpt lat="40.072868" lon="-105.2306687">
  <ele>1595.58</ele>
  <time>2026-08-27T18:28:57Z</time>
  <course>179.33</course>
  <speed>0.77</speed>
  <fix>3d</fix>
</trkpt>
<trkpt lat="40.0728658" lon="-105.2306685">
  <ele>1595.66</ele>
  <time>2026-08-27T18:28:57Z</time>
  <course>8.51</course>
  <speed>0.5531726674375732</speed>
  <fix>3d</fix>
</trkpt>
<trkpt lat="40.0728667" lon="-105.2306687">
  <ele>1595.59</ele>
  <time>2026-08-27T18:28:57Z</time>
  <course>173.93</course>
  <speed>0.66</speed>
  <fix>3d</fix>
</trkpt>
<trkpt lat="40.0728651" lon="-105.2306682">
  <ele>1595.66</ele>
  <time>2026-08-27T18:28:57Z</time>
  <course>8.56</course>
  <speed>0.3535533905932738</speed>
  <fix>3d</fix>
</trkpt>
<trkpt lat="40.0728656" lon="-105.2306686">
  <ele>1595.6</ele>
  <time>2026-08-27T18:28:57Z</time>
  <course>165.64</course>
  <speed>0.49</speed>
  <fix>3d</fix>
</trkpt>
<trkpt lat="40.0728647" lon="-105.2306678">
  <ele>1595.66</ele>
  <time>2026-08-27T18:28:57Z</time>
  <course>8.56</course>
  <speed>0.208806130178211</speed>
  <fix>3d</fix>
</trkpt>
<trkpt lat="40.0728649" lon="-105.2306682">
  <ele>1595.6</ele>
  <time>2026-08-27T18:28:57Z</time>
  <course>147.13</course>
  <speed>0.29</speed>
  <fix>3d</fix>
</trkpt>
<trkpt lat="40.0728647" lon="-105.2306673">
  <ele>1595.66</ele>
  <time>2026-08-27T18:28:57Z</time>
  <course>8.54</course>
  <speed>0.2765863337187866</speed>
  <fix>3d</fix>
</trkpt>
<trkpt lat="40.0728648" lon="-105.2306678">
  <ele>1595.61</ele>
  <time>2026-08-27T18:28:57Z</time>
  <course>87.72</course>
  <speed>0.17</speed>
  <fix>3d</fix>
</trkpt>
<trkpt lat="40.0728653" lon="-105.2306669">
  <ele>1595.66</ele>
  <time>2026-08-27T18:28:57Z</time>
  <course>8.48</course>
  <speed>0.4651881339845203</speed>
  <fix>3d</fix>
</trkpt>
<trkpt lat="40.0728649" lon="-105.2306674">
  <ele>1595.61</ele>
  <time>2026-08-27T18:28:57Z</time>
  <course>34.27</course>
  <speed>0.31</speed>
  <fix>3d</fix>
</trkpt>
<trkpt lat="40.0728662" lon="-105.2306665">
  <ele>1595.67</ele>
  <time>2026-08-27T18:28:57Z</time>
  <course>8.43</course>
  <speed>0.6428841264178172</speed>
  <fix>3d</fix>
</trkpt>
<trkpt lat="40.0728656" lon="-105.230667">
  <ele>1595.61</ele>
  <time>2026-08-27T18:28:57Z</time>
  <course>17.74</course>
  <speed>0.51</speed>
  <fix>3d</fix>
</trkpt>
<trkpt lat="40.0728675" lon="-105.2306662">
  <ele>1595.67</ele>
  <time>2026-08-27T18:28:57Z</time>
  <course>8.41</course>
  <speed>0.7595393340703298</speed>
  <fix>3d</fix>
</trkpt>
<trkpt lat="40.0728667" lon="-105.2306667">
  <ele>1595.61</ele>
  <time>2026-08-27T18:28:57Z</time>
  <course>9.91</course>
  <speed>0.68</speed>
  <fix>3d</fix>
</trkpt>
<trkpt lat="40.0728689" lon="-105.2306661">
  <ele>1595.68</ele>
  <time>2026-08-27T18:28:57Z</time>
  <course>8.43</course>
  <speed>0.812219182240853</speed>
  <fix>3d</fix>
</trkpt>
<trkpt lat="40.072868" lon="-105.2306664">
  <ele>1595.61</ele>
  <time>2026-08-27T18:28:57Z</time>
  <course>4.65</course>
  <speed>0.79</speed>
  <fix>3d</fix>
</trkpt>
<trkpt lat="40.0728703" lon="-105.2306661">
  <ele>1595.68</ele>
  <time>2026-08-27T18:28:57Z</time>
  <course>8.5</course>
  <speed>0.79</speed>
  <fix>3d</fix>
</trkpt>
<trkpt lat="40.0728694" lon="-105.2306663">
  <ele>1595.61</ele>
  <time>2026-08-27T18:28:57Z</time>
  <course>0.18</course>
  <speed>0.83</speed>
  <fix>3d</fix>
</trkpt>
<trkpt lat="40.0728717" lon="-105.2306662">
  <ele>1595.69</ele>
  <time>2026-08-27T18:28:57Z</time>
  <course>8.55</course>
  <speed>0.6835934464285041</speed>
  <fix>3d</fix>
</trkpt>
<trkpt lat="40.0728709" lon="-105.2306664">
  <ele>1595.61</ele>
  <time>2026-08-27T18:28:57Z</time>
  <course>355.58</course>
  <speed>0.79</speed>
  <fix>3d</fix>
</trkpt>
<trkpt lat="40.0728728" lon="-105.2306665">
  <ele>1595.69</ele>
  <time>2026-08-27T18:28:57Z</time>
  <course>8.59</course>
  <speed>0.5360037313302959</speed>
  <fix>3d</fix>
</trkpt>
<trkpt lat="40.0728723" lon="-105.2306667">
  <ele>1595.61</ele>
  <time>2026-08-27T18:28:57Z</time>
  <course>349.83</course>
  <speed>0.68</speed>
  <fix>3d</fix>
</trkpt>
<trkpt lat="40.0728736" lon="-105.230667">
  <ele>1595.68</ele>
  <time>2026-08-27T18:28:57Z</time>
  <course>8.66</course>
  <speed>0.34985711369071804</speed>
  <fix>3d</fix>
</trkpt>
<trkpt lat="40.0728733" lon="-105.230667">
  <ele>1595.62</ele>
  <time>2026-08-27T18:28:57Z</time>
  <course>340.84</course>
  <speed>0.52</speed>
  <fix>3d</fix>
</trkpt>
<trkpt lat="40.072874" lon="-105.2306675">
  <ele>1595.68</ele>
  <time>2026-08-27T18:28:57Z</time>
  <course>8.68</course>
  <speed>0.21377558326431947</speed>
  <fix>3d</fix>
</trkpt>
<trkpt lat="40.072874" lon="-105.2306674">
  <ele>1595.62</ele>
  <time>2026-08-27T18:28:57Z</time>
  <course>322.06</course>
  <speed>0.34</speed>
  <fix>3d</fix>
</trkpt>
<trkpt lat="40.072874" lon="-105.2306681">
  <ele>1595.67</ele>
  <time>2026-08-27T18:28:57Z</time>
  <course>8.62</course>
  <speed>0.2973213749463701</speed>
  <fix>3d</fix>
</trkpt>
<trkpt lat="40.0728742" lon="-105.2306679">
  <ele>1595.61</ele>
  <time>2026-08-27T18:28:57Z</time>
  <course>273.55</course>
  <speed>0.22</speed>
  <fix>3d</fix>
</trkpt>
<trkpt lat="40.0728735" lon="-105.2306686">
  <ele>1595.67</ele>
  <time>2026-08-27T18:28:57Z</time>
  <course>8.55</course>
  <speed>0.4875448697299562</speed>
  <fix>3d</fix>
</trkpt>
<trkpt lat="40.072874" lon="-105.2306684">
  <ele>1595.61</ele>
  <time>2026-08-27T18:28:57Z</time>
  <course>223.42</course>
  <speed>0.33</speed>
  <fix>3d</fix>
</trkpt>
<trkpt lat="40.0728726" lon="-105.2306691">
  <ele>1595.66</ele>
  <time>2026-08-27T18:28:57Z</time>
  <course>8.52</course>
  <speed>0.6648308055437865</speed>
  <fix>3d</fix>
</trkpt>
<trkpt lat="40.0728735" lon="-105.2306689">
  <ele>1595.61</ele>
  <time>2026-08-27T18:28:57Z</time>
  <course>203.84</course>
  <speed>0.51</speed>
  <fix>3d</fix>
</trkpt>
<trkpt lat="40.0728714" lon="-105.2306695">
  <ele>1595.66</ele>
  <time>2026-08-27T18:28:57Z</time>
  <course>8.5</course>
  <speed>0.7826237921249263</speed>
  <fix>3d</fix>
</trkpt>
<trkpt lat="40.0728724" lon="-105.2306694">
  <ele>1595.61</ele>
  <time>2026-08-27T18:28:57Z</time>
  <course>194.61</course>
  <speed>0.67</speed>
  <fix>3d</fix>
</trkpt>
<trkpt lat="40.07287" lon="-105.2306698">
  <ele>1595.66</ele>
  <time>2026-08-27T18:28:57Z</time>
  <course>8.49</course>
  <speed>0.8329465769183519</speed>
  <fix>3d</fix>
</trkpt>
<trkpt lat="40.0728711" lon="-105.2306697">
  <ele>1595.61</ele>
  <time>2026-08-27T18:28:57Z</time>
  <course>188.69</course>
  <speed>0.78</speed>
  <fix>3d</fix>
</trkpt>
<trkpt lat="40.0728686" lon="-105.2306699">
  <ele>1595.66</ele>
  <time>2026-08-27T18:28:57Z</time>
  <course>8.47</course>
  <speed>0.8100617260431454</speed>
  <fix>3d</fix>
</trkpt>
<trkpt lat="40.0728698" lon="-105.2306699">
  <ele>1595.61</ele>
  <time>2026-08-27T18:28:57Z</time>
  <course>183.94</course>
  <speed>0.81</speed>
  <fix>3d</fix>
</trkpt>
<trkpt lat="40.0728672" lon="-105.2306698">
  <ele>1595.66</ele>
  <time>2026-08-27T18:28:57Z</time>
  <course>8.48</course>
  <speed>0.70178344238091</speed>
  <fix>3d</fix>
</trkpt>
<trkpt lat="40.0728684" lon="-105.2306699">
  <ele>1595.61</ele>
  <time>2026-08-27T18:28:57Z</time>
  <course>179.31</course>
  <speed>0.77</speed>
  <fix>3d</fix>
</trkpt>
<trkpt lat="40.0728662" lon="-105.2306697">
  <ele>1595.67</ele>
  <time>2026-08-27T18:28:57Z</time>
  <course>8.52</course>
  <speed>0.5434151267677411</speed>
  <fix>3d</fix>
</trkpt>
<trkpt lat="40.072867" lon="-105.2306699">
  <ele>1595.62</ele>
  <time>2026-08-27T18:28:57Z</time>
  <course>173.79</course>
  <speed>0.66</speed>
  <fix>3d</fix>
</trkpt>
<trkpt lat="40.0728654" lon="-105.2306694">
  <ele>1595.68</ele>
  <time>2026-08-27T18:28:57Z</time>
  <course>8.58</course>
  <speed>0.3535533905932738</speed>
  <fix>3d</fix>
</trkpt>
<trkpt lat="40.072866" lon="-105.2306697">
  <ele>1595.62</ele>
  <time>2026-08-27T18:28:57Z</time>
  <course>165.35</course>
  <speed>0.49</speed>
  <fix>3d</fix>
</trkpt>
<trkpt lat="40.0728651" lon="-105.230669">
  <ele>1595.69</ele>
  <time>2026-08-27T18:28:57Z</time>
  <course>8.6</course>
  <speed>0.208806130178211</speed>
  <fix>3d</fix>
</trkpt>
<trkpt lat="40.0728654" lon="-105.2306694">
  <ele>1595.63</ele>
  <time>2026-08-27T18:28:57Z</time>
  <course>146.64</course>
  <speed>0.29</speed>
  <fix>3d</fix>
</trkpt>
<trkpt lat="40.0728652" lon="-105.2306685">
  <ele>1595.69</ele>
  <time>2026-08-27T18:28:57Z</time>
  <course>8.58</course>
  <speed>0.2765863337187866</speed>
  <fix>3d</fix>
</trkpt>
<trkpt lat="40.0728651" lon="-105.230669">
  <ele>1595.63</ele>
  <time>2026-08-27T18:28:57Z</time>
  <course>88.01</course>
  <speed>0.18</speed>
  <fix>3d</fix>
</trkpt>
<trkpt lat="40.0728657" lon="-105.2306681">
  <ele>1595.69</ele>
  <time>2026-08-27T18:28:57Z</time>
  <course>8.55</course>
  <speed>0.4651881339845203</speed>
  <fix>3d</fix>
</trkpt>
<trkpt lat="40.0728654" lon="-105.2306686">
  <ele>1595.63</ele>
  <time>2026-08-27T18:28:57Z</time>
  <course>35.05</course>
  <speed>0.31</speed>
  <fix>3d</fix>
</trkpt>
<trkpt lat="40.0728666" lon="-105.2306677">
  <ele>1595.69</ele>
  <time>2026-08-27T18:28:57Z</time>
  <course>8.5</course>
  <speed>0.6428841264178172</speed>
  <fix>3d</fix>
</trkpt>
<trkpt lat="40.072866" lon="-105.2306682">
  <ele>1595.62</ele>
  <time>2026-08-27T18:28:57Z</time>
  <course>18.3</course>
  <speed>0.51</speed>
  <fix>3d</fix>
</trkpt>
<trkpt lat="40.0728679" lon="-105.2306674">
  <ele>1595.69</ele>
  <time>2026-08-27T18:28:57Z</time>
  <course>8.46</course>
  <speed>0.7595393340703298</speed>
  <fix>3d</fix>
</trkpt>
<trkpt lat="40.072867" lon="-105.2306678">
  <ele>1595.62</ele>
  <time>2026-08-27T18:28:57Z</time>
  <course>10.38</course>
  <speed>0.68</speed>
  <fix>3d</fix>
</trkpt>
<trkpt lat="40.0728693" lon="-105.2306672">
  <ele>1595.7</ele>
  <time>2026-08-27T18:28:57Z</time>
  <course>8.46</course>
  <speed>0.812219182240853</speed>
  <fix>3d</fix>
</trkpt>
<trkpt lat="40.0728684" lon="-105.2306676">
  <ele>1595.61</ele>
  <time>2026-08-27T18:28:57Z</time>
  <course>5.05</course>
  <speed>0.79</speed>
  <fix>3d</fix>
</trkpt>
<trkpt lat="40.0728707" lon="-105.2306672">
  <ele>1595.7</ele>
  <time>2026-08-27T18:28:57Z</time>
  <course>8.54</course>
  <speed>0.79</speed>
  <fix>3d</fix>
</trkpt>
<trkpt lat="40.0728698" lon="-105.2306675">
  <ele>1595.61</ele>
  <time>2026-08-27T18:28:57Z</time>
  <course>0.52</course>
  <speed>0.83</speed>
  <fix>3d</fix>
</trkpt>
<trkpt lat="40.0728721" lon="-105.2306673">
  <ele>1595.7</ele>
  <time>2026-08-27T18:28:57Z</time>
  <course>8.6</course>
  <speed>0.6935416353759881</speed>
  <fix>3d</fix>
</trkpt>
<trkpt lat="40.0728713" lon="-105.2306676">
  <ele>1595.6</ele>
  <time>2026-08-27T18:28:57Z</time>
  <course>355.87</course>
  <speed>0.79</speed>
  <fix>3d</fix>
</trkpt>
<trkpt lat="40.0728732" lon="-105.2306676">
  <ele>1595.69</ele>
  <time>2026-08-27T18:28:57Z</time>
  <course>8.68</course>
  <speed>0.5263078946776306</speed>
  <fix>3d</fix>
</trkpt>
<trkpt lat="40.0728725" lon="-105.2306677">
  <ele>1595.6</ele>
  <time>2026-08-27T18:28:57Z</time>
  <course>350.07</course>
  <speed>0.68</speed>
  <fix>3d</fix>
</trkpt>
<trkpt lat="40.072874" lon="-105.2306681">
  <ele>1595.68</ele>
  <time>2026-08-27T18:28:57Z</time>
  <course>8.71</course>
  <speed>0.34132096331752027</speed>
  <fix>3d</fix>
</trkpt>
<trkpt lat="40.0728736" lon="-105.2306681">
  <ele>1595.6</ele>
  <time>2026-08-27T18:28:57Z</time>
  <course>340.99</course>
  <speed>0.51</speed>
  <fix>3d</fix>
</trkpt>
<trkpt lat="40.0728743" lon="-105.2306686">
  <ele>1595.68</ele>
  <time>2026-08-27T18:28:57Z</time>
  <course>8.71</course>
  <speed>0.21377558326431947</speed>
  <fix>3d</fix>
</trkpt>
<trkpt lat="40.0728743" lon="-105.2306684">
  <ele>1595.6</ele>
  <time>2026-08-27T18:28:57Z</time>
  <course>321.73</course>
  <speed>0.33</speed>
  <fix>3d</fix>
</trkpt>
<trkpt lat="40.0728742" lon="-105.2306691">
  <ele>1595.67</ele>
  <time>2026-08-27T18:28:57Z</time>
  <course>8.62</course>
  <speed>0.304138126514911</speed>
  <fix>3d</fix>
</trkpt>
<trkpt lat="40.0728746" lon="-105.2306689">
  <ele>1595.59</ele>
  <time>2026-08-27T18:28:57Z</time>
  <course>271.66</course>
  <speed>0.22</speed>
  <fix>3d</fix>
</trkpt>
<trkpt lat="40.0728738" lon="-105.2306697">
  <ele>1595.66</ele>
  <time>2026-08-27T18:28:57Z</time>
  <course>8.54</course>
  <speed>0.4875448697299562</speed>
  <fix>3d</fix>
</trkpt>
<trkpt lat="40.0728744" lon="-105.2306695">
  <ele>1595.59</ele>
  <time>2026-08-27T18:28:57Z</time>
  <course>222.23</course>
  <speed>0.33</speed>
  <fix>3d</fix>
</trkpt>
<trkpt lat="40.0728729" lon="-105.2306702">
  <ele>1595.66</ele>
  <time>2026-08-27T18:28:57Z</time>
  <course>8.5</course>
  <speed>0.6648308055437865</speed>
  <fix>3d</fix>
</trkpt>
<trkpt lat="40.0728737" lon="-105.23067">
  <ele>1595.59</ele>
  <time>2026-08-27T18:28:57Z</time>
  <course>203.3</course>
  <speed>0.52</speed>
  <fix>3d</fix>
</trkpt>
<trkpt lat="40.0728717" lon="-105.2306706">
  <ele>1595.67</ele>
  <time>2026-08-27T18:28:57Z</time>
  <course>8.46</course>
  <speed>0.7808969202141856</speed>
  <fix>3d</fix>
</trkpt>
<trkpt lat="40.0728728" lon="-105.2306705">
  <ele>1595.59</ele>
  <time>2026-08-27T18:28:57Z</time>
  <course>194.31</course>
  <speed>0.68</speed>
  <fix>3d</fix>
</trkpt>
<trkpt lat="40.0728703" lon="-105.2306708">
  <ele>1595.67</ele>
  <time>2026-08-27T18:28:57Z</time>
  <course>8.46</course>
  <speed>0.8329465769183519</speed>
  <fix>3d</fix>
</trkpt>
<trkpt lat="40.0728715" lon="-105.2306708">
  <ele>1595.59</ele>
  <time>2026-08-27T18:28:57Z</time>
  <course>188.54</course>
  <speed>0.78</speed>
  <fix>3d</fix>
</trkpt>
<trkpt lat="40.0728689" lon="-105.2306709">
  <ele>1595.67</ele>
  <time>2026-08-27T18:28:57Z</time>
  <course>8.49</course>
  <speed>0.8100617260431454</speed>
  <fix>3d</fix>
</trkpt>
<trkpt lat="40.07287" lon="-105.230671">
  <ele>1595.59</ele>
  <time>2026-08-27T18:28:57Z</time>
  <course>183.88</course>
  <speed>0.82</speed>
  <fix>3d</fix>
</trkpt>
<trkpt lat="40.0728675" lon="-105.2306709">
  <ele>1595.67</ele>
  <time>2026-08-27T18:28:57Z</time>
  <course>8.51</course>
  <speed>0.7117583859709699</speed>
  <fix>3d</fix>
</trkpt>
<trkpt lat="40.0728686" lon="-105.2306711">
  <ele>1595.59</ele>
  <time>2026-08-27T18:28:57Z</time>
  <course>179.32</course>
  <speed>0.78</speed>
  <fix>3d</fix>
</trkpt>
<trkpt lat="40.0728664" lon="-105.2306708">
  <ele>1595.68</ele>
  <time>2026-08-27T18:28:57Z</time>
  <course>8.58</course>
  <speed>0.5531726674375732</speed>
  <fix>3d</fix>
</trkpt>
<trkpt lat="40.0728673" lon="-105.230671">
  <ele>1595.59</ele>
  <time>2026-08-27T18:28:57Z</time>
  <course>173.86</course>
  <speed>0.66</speed>
  <fix>3d</fix>
</trkpt>
<trkpt lat="40.0728657" lon="-105.2306705">
  <ele>1595.68</ele>
  <time>2026-08-27T18:28:57Z</time>
  <course>8.59</course>
  <speed>0.3535533905932738</speed>
  <fix>3d</fix>
</trkpt>
<trkpt lat="40.0728662" lon="-105.2306707">
  <ele>1595.59</ele>
  <time>2026-08-27T18:28:57Z</time>
  <course>165.5</course>
  <speed>0.49</speed>
  <fix>3d</fix>
</trkpt>
<trkpt lat="40.0728654" lon="-105.23067">
  <ele>1595.68</ele>
  <time>2026-08-27T18:28:57Z</time>
  <course>8.59</course>
  <speed>0.208806130178211</speed>
  <fix>3d</fix>
</trkpt>
<trkpt lat="40.0728656" lon="-105.2306705">
  <ele>1595.59</ele>
  <time>2026-08-27T18:28:57Z</time>
  <course>147.02</course>
  <speed>0.29</speed>
  <fix>3d</fix>
</trkpt>
<trkpt lat="40.0728655" lon="-105.2306696">
  <ele>1595.67</ele>
  <time>2026-08-27T18:28:57Z</time>
  <course>8.57</course>
  <speed>0.2831960451701259</speed>
  <fix>3d</fix>
</trkpt>
<trkpt lat="40.0728654" lon="-105.2306701">
  <ele>1595.59</ele>
  <time>2026-08-27T18:28:57Z</time>
  <course>88.86</course>
  <speed>0.18</speed>
  <fix>3d</fix>
</trkpt>
<trkpt lat="40.0728659" lon="-105.2306691">
  <ele>1595.67</ele>
  <time>2026-08-27T18:28:57Z</time>
  <course>8.51</course>
  <speed>0.4651881339845203</speed>
  <fix>3d</fix>
</trkpt>
<trkpt lat="40.0728656" lon="-105.2306696">
  <ele>1595.59</ele>
  <time>2026-08-27T18:28:57Z</time>
  <course>35.24</course>
  <speed>0.31</speed>
  <fix>3d</fix>
</trkpt>
<trkpt lat="40.0728669" lon="-105.2306687">
  <ele>1595.67</ele>
  <time>2026-08-27T18:28:57Z</time>
  <course>8.45</course>
  <speed>0.6428841264178172</speed>
  <fix>3d</fix>
</trkpt>
<trkpt lat="40.0728661" lon="-105.2306692">
  <ele>1595.59</ele>
  <time>2026-08-27T18:28:57Z</time>
  <course>18.3</course>
  <speed>0.51</speed>
  <fix>3d</fix>
</trkpt>
<trkpt lat="40.0728681" lon="-105.2306685">
  <ele>1595.67</ele>
  <time>2026-08-27T18:28:57Z</time>
  <course>8.43</course>
  <speed>0.7595393340703298</speed>
  <fix>3d</fix>
</trkpt>
<trkpt lat="40.0728672" lon="-105.2306689">
  <ele>1595.58</ele>
  <time>2026-08-27T18:28:57Z</time>
  <course>10.31</course>
  <speed>0.68</speed>
  <fix>3d</fix>
</trkpt>
<trkpt lat="40.0728695" lon="-105.2306683">
  <ele>1595.68</ele>
  <time>2026-08-27T18:28:57Z</time>
  <course>8.43</course>
  <speed>0.812219182240853</speed>
  <fix>3d</fix>
</trkpt>
<trkpt lat="40.0728685" lon="-105.2306687">
  <ele>1595.58</ele>
  <time>2026-08-27T18:28:57Z</time>
  <course>4.96</course>
  <speed>0.79</speed>
  <fix>3d</fix>
</trkpt>
<trkpt lat="40.0728709" lon="-105.2306683">
  <ele>1595.68</ele>
  <time>2026-08-27T18:28:57Z</time>
  <course>8.51</course>
  <speed>0.79</speed>
  <fix>3d</fix>
</trkpt>
<trkpt lat="40.07287" lon="-105.2306686">
  <ele>1595.58</ele>
  <time>2026-08-27T18:28:57Z</time>
  <course>0.41</course>
  <speed>0.83</speed>
  <fix>3d</fix>
</trkpt>
<trkpt lat="40.0728723" lon="-105.2306684">
  <ele>1595.67</ele>
  <time>2026-08-27T18:28:57Z</time>
  <course>8.57</course>
  <speed>0.6935416353759881</speed>
  <fix>3d</fix>
</trkpt>
<trkpt lat="40.0728715" lon="-105.2306687">
  <ele>1595.58</ele>
  <time>2026-08-27T18:28:57Z</time>
  <course>355.74</course>
  <speed>0.79</speed>
  <fix>3d</fix>
</trkpt>
<trkpt lat="40.0728734" lon="-105.2306687">
  <ele>1595.68</ele>
  <time>2026-08-27T18:28:57Z</time>
  <course>8.62</course>
  <speed>0.5263078946776306</speed>
  <fix>3d</fix>
</trkpt>
<trkpt lat="40.0728728" lon="-105.2306688">
  <ele>1595.58</ele>
  <time>2026-08-27T18:28:57Z</time>
  <course>349.94</course>
  <speed>0.68</speed>
  <fix>3d</fix>
</trkpt>
<trkpt lat="40.0728742" lon="-105.2306692">
  <ele>1595.68</ele>
  <time>2026-08-27T18:28:57Z</time>
  <course>8.65</course>
  <speed>0.34132096331752027</speed>
  <fix>3d</fix>
</trkpt>
<trkpt lat="40.0728738" lon="-105.2306691">
  <ele>1595.59</ele>
  <time>2026-08-27T18:28:57Z</time>
  <course>340.84</course>
  <speed>0.52</speed>
  <fix>3d</fix>
</trkpt>
<trkpt lat="40.0728745" lon="-105.2306697">
  <ele>1595.67</ele>
  <time>2026-08-27T18:28:57Z</time>
  <course>8.64</course>
  <speed>0.21377558326431947</speed>
  <fix>3d</fix>
</trkpt>
<trkpt lat="40.0728745" lon="-105.2306695">
  <ele>1595.59</ele>
  <time>2026-08-27T18:28:57Z</time>
  <course>321.6</course>
  <speed>0.33</speed>
  <fix>3d</fix>
</trkpt>
<trkpt lat="40.0728744" lon="-105.2306703">
  <ele>1595.67</ele>
  <time>2026-08-27T18:28:57Z</time>
  <course>8.61</course>
  <speed>0.304138126514911</speed>
  <fix>3d</fix>
</trkpt>
<trkpt lat="40.0728748" lon="-105.2306701">
  <ele>1595.59</ele>
  <time>2026-08-27T18:28:57Z</time>
  <course>272.0</course>
  <speed>0.22</speed>
  <fix>3d</fix>
</trkpt>
<trkpt lat="40.072874" lon="-105.2306708">
  <ele>1595.67</ele>
  <time>2026-08-27T18:28:57Z</time>
  <course>8.55</course>
  <speed>0.4875448697299562</speed>
  <fix>3d</fix>
</trkpt>
<trkpt lat="40.0728746" lon="-105.2306706">
  <ele>1595.58</ele>
  <time>2026-08-27T18:28:57Z</time>
  <course>222.61</course>
  <speed>0.33</speed>
  <fix>3d</fix>
</trkpt>
<trkpt lat="40.0728731" lon="-105.2306713">
  <ele>1595.67</ele>
  <time>2026-08-27T18:28:57Z</time>
  <course>8.53</course>
  <speed>0.6648308055437865</speed>
  <fix>3d</fix>
</trkpt>
<trkpt lat="40.072874" lon="-105.2306711">
  <ele>1595.58</ele>
  <time>2026-08-27T18:28:57Z</time>
  <course>203.51</course>
  <speed>0.51</speed>
  <fix>3d</fix>
</trkpt>
<trkpt lat="40.0728719" lon="-105.2306717">
  <ele>1595.66</ele>
  <time>2026-08-27T18:28:57Z</time>
  <course>8.47</course>
  <speed>0.7826237921249263</speed>
  <fix>3d</fix>
</trkpt>
<trkpt lat="40.072873" lon="-105.2306715">
  <ele>1595.58</ele>
  <time>2026-08-27T18:28:57Z</time>
  <course>194.44</course>
  <speed>0.68</speed>
  <fix>3d</fix>
</trkpt>
<trkpt lat="40.0728705" lon="-105.230672">
  <ele>1595.66</ele>
  <time>2026-08-27T18:28:57Z</time>
  <course>8.47</course>
  <speed>0.8329465769183519</speed>
  <fix>3d</fix>
</trkpt>
<trkpt lat="40.0728717" lon="-105.2306719">
  <ele>1595.58</ele>
  <time>2026-08-27T18:28:57Z</time>
  <course>188.59</course>
  <speed>0.78</speed>
  <fix>3d</fix>
</trkpt>
<trkpt lat="40.0728691" lon="-105.2306721">
  <ele>1595.66</ele>
  <time>2026-08-27T18:28:57Z</time>
  <course>8.48</course>
  <speed>0.8100617260431454</speed>
  <fix>3d</fix>
</trkpt>
<trkpt lat="40.0728702" lon="-105.2306721">
  <ele>1595.58</ele>
  <time>2026-08-27T18:28:57Z</time>
  <course>183.87</course>
  <speed>0.81</speed>
  <fix>3d</fix>
</trkpt>
<trkpt lat="40.0728677" lon="-105.230672">
  <ele>1595.66</ele>
  <time>2026-08-27T18:28:57Z</time>
  <course>8.5</course>
  <speed>0.7125307010929425</speed>
  <fix>3d</fix>
</trkpt>
<trkpt lat="40.0728687" lon="-105.2306722">
  <ele>1595.58</ele>
  <time>2026-08-27T18:28:57Z</time>
  <course>179.22</course>
  <speed>0.77</speed>
  <fix>3d</fix>
</trkpt>
<trkpt lat="40.0728666" lon="-105.2306719">
  <ele>1595.66</ele>
  <time>2026-08-27T18:28:57Z</time>
  <course>8.55</course>
  <speed>0.5434151267677411</speed>
  <fix>3d</fix>
</trkpt>
<trkpt lat="40.0728675" lon="-105.230672">
  <ele>1595.59</ele>
  <time>2026-08-27T18:28:57Z</time>
  <course>173.66</course>
  <speed>0.66</speed>
  <fix>3d</fix>
</trkpt>
<trkpt lat="40.0728659" lon="-105.2306716">
  <ele>1595.67</ele>
  <time>2026-08-27T18:28:57Z</time>
  <course>8.58</course>
  <speed>0.3535533905932738</speed>
  <fix>3d</fix>
</trkpt>
<trkpt lat="40.0728665" lon="-105.2306719">
  <ele>1595.59</ele>
  <time>2026-08-27T18:28:57Z</time>
  <course>165.12</course>
  <speed>0.49</speed>
  <fix>3d</fix>
</trkpt>
<trkpt lat="40.0728656" lon="-105.2306711">
  <ele>1595.67</ele>
  <time>2026-08-27T18:28:57Z</time>
  <course>8.58</course>
  <speed>0.208806130178211</speed>
  <fix>3d</fix>
</trkpt>
<trkpt lat="40.0728658" lon="-105.2306715">
  <ele>1595.6</ele>
  <time>2026-08-27T18:28:57Z</time>
  <course>146.06</course>
  <speed>0.29</speed>
  <fix>3d</fix>
</trkpt>
<trkpt lat="40.0728657" lon="-105.2306707">
  <ele>1595.67</ele>
  <time>2026-08-27T18:28:57Z</time>
  <course>8.53</course>
  <speed>0.2720294101747089</speed>
  <fix>3d</fix>
</trkpt>
<trkpt lat="40.0728656" lon="-105.2306711">
  <ele>1595.6</ele>
  <time>2026-08-27T18:28:57Z</time>
  <course>88.27</course>
  <speed>0.18</speed>
  <fix>3d</fix>
</trkpt>
<trkpt lat="40.072866" lon="-105.2306702">
  <ele>1595.67</ele>
  <time>2026-08-27T18:28:57Z</time>
  <course>8.46</course>
  <speed>0.3328663395418648</speed>
  <fix>3d</fix>
</trkpt>
<trkpt lat="40.0728658" lon="-105.2306708">
  <ele>1595.6</ele>
  <time>2026-08-27T18:28:57Z</time>
  <course>40.68</course>
  <speed>0.27</speed>
  <fix>3d</fix>
</trkpt>
<trkpt lat="40.0728665" lon="-105.23067">
  <ele>1595.67</ele>
  <time>2026-08-27T18:28:57Z</time>
  <course>8.54</course>
  <speed>0.35114099732158877</speed>
  <fix>3d</fix>
</trkpt>
<trkpt lat="40.0728662" lon="-105.2306703">
  <ele>1595.6</ele>
  <time>2026-08-27T18:28:57Z</time>
  <course>23.5</course>
  <speed>0.34</speed>
  <fix>3d</fix>
</trkpt>
<trkpt lat="40.0728671" lon="-105.2306698">
  <ele>1595.67</ele>
  <time>2026-08-27T18:28:57Z</time>
  <course>8.59</course>
  <speed>0.33734255586865997</speed>
  <fix>3d</fix>
</trkpt>
<trkpt lat="40.0728668" lon="-105.2306701">
  <ele>1595.6</ele>
  <time>2026-08-27T18:28:57Z</time>
  <course>13.09</course>
  <speed>0.36</speed>
  <fix>3d</fix>
</trkpt>
<trkpt lat="40.0728677" lon="-105.2306697">
  <ele>1595.67</ele>
  <time>2026-08-27T18:28:57Z</time>
  <course>8.62</course>
  <speed>0.3125699921617557</speed>
  <fix>3d</fix>
</trkpt>
<trkpt lat="40.0728674" lon="-105.2306699">
  <ele>1595.6</ele>
  <time>2026-08-27T18:28:57Z</time>
  <course>6.11</course>
  <speed>0.35</speed>
  <fix>3d</fix>
</trkpt>
<trkpt lat="40.0728683" lon="-105.2306697">
  <ele>1595.68</ele>
  <time>2026-08-27T18:28:57Z</time>
  <course>8.63</course>
  <speed>0.2906888370749727</speed>
  <fix>3d</fix>
</trkpt>
<trkpt lat="40.072868" lon="-105.2306699">
  <ele>1595.6</ele>
  <time>2026-08-27T18:28:57Z</time>
  <course>1.36</course>
  <speed>0.33</speed>
  <fix>3d</fix>
</trkpt>
<trkpt lat="40.0728689" lon="-105.2306697">
  <ele>1595.68</ele>
  <time>2026-08-27T18:28:57Z</time>
  <course>8.63</course>
  <speed>0.27</speed>
  <fix>3d</fix>
</trkpt>
<trkpt lat="40.0728687" lon="-105.2306699">
  <ele>1595.6</ele>
  <time>2026-08-27T18:28:57Z</time>
  <course>358.31</course>
  <speed>0.31</speed>
  <fix>3d</fix>
</trkpt>
<trkpt lat="40.0728694" lon="-105.2306697">
  <ele>1595.68</ele>
  <time>2026-08-27T18:28:57Z</time>
  <course>8.63</course>
  <speed>0.25</speed>
  <fix>3d</fix>
</trkpt>
<trkpt lat="40.0728692" lon="-105.2306699">
  <ele>1595.6</ele>
  <time>2026-08-27T18:28:57Z</time>
  <course>356.59</course>
  <speed>0.29</speed>
  <fix>3d</fix>
</trkpt>
<trkpt lat="40.0728699" lon="-105.2306697">
  <ele>1595.68</ele>
  <time>2026-08-27T18:28:57Z</time>
  <course>8.64</course>
  <speed>0.23</speed>
  <fix>3d</fix>
</trkpt>
<trkpt lat="40.0728697" lon="-105.2306699">
  <ele>1595.6</ele>
  <time>2026-08-27T18:28:57Z</time>
  <course>355.77</course>
  <speed>0.27</speed>
  <fix>3d</fix>
</trkpt>
<trkpt lat="40.0728703" lon="-105.2306698">
  <ele>1595.68</ele>
  <time>2026-08-27T18:28:57Z</time>
  <course>8.64</course>
  <speed>0.22</speed>
  <fix>3d</fix>
</trkpt>
<trkpt lat="40.0728702" lon="-105.2306699">
  <ele>1595.6</ele>
  <time>2026-08-27T18:28:57Z</time>
  <course>355.5</course>
  <speed>0.25</speed>
  <fix>3d</fix>
</trkpt>
<trkpt lat="40.0728707" lon="-105.2306698">
  <ele>1595.68</ele>
  <time>2026-08-27T18:28:57Z</time>
  <course>8.64</course>
  <speed>0.2</speed>
  <fix>3d</fix>
</trkpt>
<trkpt lat="40.0728706" lon="-105.2306699">
  <ele>1595.59</ele>
  <time>2026-08-27T18:28:57Z</time>
  <course>355.51</course>
  <speed>0.24</speed>
  <fix>3d</fix>
</trkpt>
<trkpt lat="40.0728711" lon="-105.2306698">
  <ele>1595.68</ele>
  <time>2026-08-27T18:28:57Z</time>
  <course>8.63</course>
  <speed>0.19</speed>
  <fix>3d</fix>
</trkpt>
<trkpt lat="40.0728711" lon="-105.23067">
  <ele>1595.59</ele>
  <time>2026-08-27T18:28:57Z</time>
  <course>355.63</course>
  <speed>0.23</speed>
  <fix>3d</fix>
</trkpt>
<trkpt lat="40.0728715" lon="-105.2306699">
  <ele>1595.68</ele>
  <time>2026-08-27T18:28:57Z</time>
  <course>8.63</course>
  <speed>0.18</speed>
  <fix>3d</fix>
</trkpt>
<trkpt lat="40.0728715" lon="-105.2306701">
  <ele>1595.59</ele>
  <time>2026-08-27T18:28:57Z</time>
  <course>355.8</course>
  <speed>0.21</speed>
  <fix>3d</fix>
</trkpt>
<trkpt lat="40.0728719" lon="-105.2306699">
  <ele>1595.68</ele>
  <time>2026-08-27T18:28:57Z</time>
  <course>8.62</course>
  <speed>0.17</speed>
  <fix>3d</fix>
</trkpt>
<trkpt lat="40.0728718" lon="-105.2306701">
  <ele>1595.59</ele>
  <time>2026-08-27T18:28:57Z</time>
  <course>355.94</course>
  <speed>0.2</speed>
  <fix>3d</fix>
</trkpt>
<trkpt lat="40.0728722" lon="-105.2306699">
  <ele>1595.68</ele>
  <time>2026-08-27T18:28:57Z</time>
  <course>8.61</course>
  <speed>0.17</speed>
  <fix>3d</fix>
</trkpt>
<trkpt lat="40.0728722" lon="-105.2306701">
  <ele>1595.58</ele>
  <time>2026-08-27T18:28:57Z</time>
  <course>356.08</course>
  <speed>0.19</speed>
  <fix>3d</fix>
</trkpt>
<trkpt lat="40.0728726" lon="-105.2306699">
  <ele>1595.67</ele>
  <time>2026-08-27T18:28:57Z</time>
  <course>8.6</course>
  <speed>0.16</speed>
  <fix>3d</fix>
</trkpt>
<trkpt lat="40.0728725" lon="-105.2306701">
  <ele>1595.58</ele>
  <time>2026-08-27T18:28:57Z</time>
  <course>356.14</course>
  <speed>0.19</speed>
  <fix>3d</fix>
</trkpt>
<trkpt lat="40.0728729" lon="-105.23067">
  <ele>1595.67</ele>
  <time>2026-08-27T18:28:57Z</time>
  <course>8.59</course>
  <speed>0.15</speed>
  <fix>3d</fix>
</trkpt>
<trkpt lat="40.0728729" lon="-105.2306701">
  <ele>1595.58</ele>
  <time>2026-08-27T18:28:57Z</time>
  <course>356.12</course>
  <speed>0.18</speed>
  <fix>3d</fix>
</trkpt>
<trkpt lat="40.0728732" lon="-105.23067">
  <ele>1595.67</ele>
  <time>2026-08-27T18:28:57Z</time>
  <course>8.61</course>
  <speed>0.15</speed>
  <fix>3d</fix>
</trkpt>
<trkpt lat="40.0728732" lon="-105.2306702">
  <ele>1595.58</ele>
  <time>2026-08-27T18:28:57Z</time>
  <course>356.09</course>
  <speed>0.17</speed>
  <fix>3d</fix>
</trkpt>
<trkpt lat="40.0728735" lon="-105.23067">
  <ele>1595.67</ele>
  <time>2026-08-27T18:28:57Z</time>
  <course>8.6</course>
  <speed>0.17029386365926402</speed>
  <fix>3d</fix>
</trkpt>
<trkpt lat="40.0728735" lon="-105.2306703">
  <ele>1595.58</ele>
  <time>2026-08-27T18:28:57Z</time>
  <course>356.78</course>
  <speed>0.18</speed>
  <fix>3d</fix>
</trkpt>
<trkpt lat="40.0728739" lon="-105.23067">
  <ele>1595.67</ele>
  <time>2026-08-27T18:28:57Z</time>
  <course>8.61</course>
  <speed>0.2220360331117452</speed>
  <fix>3d</fix>
</trkpt>
<trkpt lat="40.0728739" lon="-105.2306703">
  <ele>1595.58</ele>
  <time>2026-08-27T18:28:57Z</time>
  <course>359.82</course>
  <speed>0.2</speed>
  <fix>3d</fix>
</trkpt>
<trkpt lat="40.0728744" lon="-105.23067">
  <ele>1595.67</ele>
  <time>2026-08-27T18:28:57Z</time>
  <course>8.59</course>
  <speed>0.304138126514911</speed>
  <fix>3d</fix>
</trkpt>
<trkpt lat="40.0728743" lon="-105.2306703">
  <ele>1595.58</ele>
  <time>2026-08-27T18:28:57Z</time>
  <course>4.17</course>
  <speed>0.26</speed>
  <fix>3d</fix>
</trkpt>
<trkpt lat="40.0728751" lon="-105.2306699">
  <ele>1595.67</ele>
  <time>2026-08-27T18:28:57Z</time>
  <course>8.56</course>
  <speed>0.41773197148410846</speed>
  <fix>3d</fix>
</trkpt>
<trkpt lat="40.0728749" lon="-105.2306703">
  <ele>1595.58</ele>
  <time>2026-08-27T18:28:57Z</time>
  <course>7.27</course>
  <speed>0.35</speed>
  <fix>3d</fix>
</trkpt>
<trkpt lat="40.072876" lon="-105.2306698">
  <ele>1595.67</ele>
  <time>2026-08-27T18:28:57Z</time>
  <course>8.56</course>
  <speed>0.5315072906367324</speed>
  <fix>3d</fix>
</trkpt>
<trkpt lat="40.0728756" lon="-105.2306701">
  <ele>1595.58</ele>
  <time>2026-08-27T18:28:57Z</time>
  <course>8.6</course>
  <speed>0.46</speed>
  <fix>3d</fix>
</trkpt>
<trkpt lat="40.072877" lon="-105.2306696">
  <ele>1595.67</ele>
  <time>2026-08-27T18:28:57Z</time>
  <course>8.52</course>
  <speed>0.6198386886924694</speed>
  <fix>3d</fix>
</trkpt>
<trkpt lat="40.0728765" lon="-105.23067">
  <ele>1595.58</ele>
  <time>2026-08-27T18:28:57Z</time>
  <course>8.66</course>
  <speed>0.57</speed>
  <fix>3d</fix>
</trkpt>
<trkpt lat="40.0728782" lon="-105.2306693">
  <ele>1595.68</ele>
  <time>2026-08-27T18:28:58Z</time>
  <course>8.52</course>
  <speed>0.688839603971781</speed>
  <fix>3d</fix>
</trkpt>
<trkpt lat="40.0728776" lon="-105.2306697">
  <ele>1595.58</ele>
  <time>2026-08-27T18:28:58Z</time>
  <course>7.91</course>
  <speed>0.66</speed>
  <fix>3d</fix>
</trkpt>
<trkpt lat="40.0728795" lon="-105.2306692">
  <ele>1595.68</ele>
  <time>2026-08-27T18:28:58Z</time>
  <course>8.54</course>
  <speed>0.7057619995437555</speed>
  <fix>3d</fix>
</trkpt>
<trkpt lat="40.0728788" lon="-105.2306696">
  <ele>1595.58</ele>
  <time>2026-08-27T18:28:58Z</time>
  <course>6.57</course>
  <speed>0.72</speed>
  <fix>3d</fix>
</trkpt>
<trkpt lat="40.0728808" lon="-105.2306691">
  <ele>1595.68</ele>
  <time>2026-08-27T18:28:58Z</time>
  <course>8.55</course>
  <speed>0.671863081289633</speed>
  <fix>3d</fix>
</trkpt>
<trkpt lat="40.0728801" lon="-105.2306693">
  <ele>1595.58</ele>
  <time>2026-08-27T18:28:58Z</time>
  <course>4.71</course>
  <speed>0.72</speed>
  <fix>3d</fix>
</trkpt>
<trkpt lat="40.072882" lon="-105.230669">
  <ele>1595.68</ele>
  <time>2026-08-27T18:28:58Z</time>
  <course>8.58</course>
  <speed>0.5800862004909271</speed>
  <fix>3d</fix>
</trkpt>
<trkpt lat="40.0728814" lon="-105.2306692">
  <ele>1595.58</ele>
  <time>2026-08-27T18:28:58Z</time>
  <course>2.17</course>
  <speed>0.67</speed>
  <fix>3d</fix>
</trkpt>
<trkpt lat="40.0728829" lon="-105.2306691">
  <ele>1595.68</ele>
  <time>2026-08-27T18:28:58Z</time>
  <course>8.6</course>
  <speed>0.4310452412450461</speed>
  <fix>3d</fix>
</trkpt>
<trkpt lat="40.0728826" lon="-105.2306692">
  <ele>1595.58</ele>
  <time>2026-08-27T18:28:58Z</time>
  <course>358.49</course>
  <speed>0.57</speed>
  <fix>3d</fix>
</trkpt>
<trkpt lat="40.0728836" lon="-105.2306692">
  <ele>1595.68</ele>
  <time>2026-08-27T18:28:58Z</time>
  <course>8.62</course>
  <speed>0.24351591323771843</speed>
  <fix>3d</fix>
</trkpt>
<trkpt lat="40.0728834" lon="-105.2306692">
  <ele>1595.58</ele>
  <time>2026-08-27T18:28:58Z</time>
  <course>352.02</course>
  <speed>0.41</speed>
  <fix>3d</fix>
</trkpt>
<trkpt lat="40.0728838" lon="-105.2306695">
  <ele>1595.69</ele>
  <time>2026-08-27T18:28:58Z</time>
  <course>8.61</course>
  <speed>0.12</speed>
  <fix>3d</fix>
</trkpt>
<trkpt lat="40.072884" lon="-105.2306694">
  <ele>1595.58</ele>
  <time>2026-08-27T18:28:58Z</time>
  <course>334.8</course>
  <speed>0.22</speed>
  <fix>3d</fix>
</trkpt>
<trkpt lat="40.0728838" lon="-105.2306698">
  <ele>1595.68</ele>
  <time>2026-08-27T18:28:58Z</time>
  <course>8.6</course>
  <speed>0.260768096208106</speed>
  <fix>3d</fix>
</trkpt>
<trkpt lat="40.0728842" lon="-105.2306697">
  <ele>1595.57</ele>
  <time>2026-08-27T18:28:58Z</time>
  <course>258.27</course>
  <speed>0.12</speed>
  <fix>3d</fix>
</trkpt>
<trkpt lat="40.0728833" lon="-105.2306701">
  <ele>1595.67</ele>
  <time>2026-08-27T18:28:58Z</time>
  <course>8.57</course>
  <speed>0.46486557196677836</speed>
  <fix>3d</fix>
</trkpt>
<trkpt lat="40.0728839" lon="-105.23067">
  <ele>1595.57</ele>
  <time>2026-08-27T18:28:58Z</time>
  <course>208.73</course>
  <speed>0.29</speed>
  <fix>3d</fix>
</trkpt>
<trkpt lat="40.0728824" lon="-105.2306705">
  <ele>1595.66</ele>
  <time>2026-08-27T18:28:58Z</time>
  <course>8.5</course>
  <speed>0.6476109943476871</speed>
  <fix>3d</fix>
</trkpt>
<trkpt lat="40.0728833" lon="-105.2306703">
  <ele>1595.56</ele>
  <time>2026-08-27T18:28:58Z</time>
  <course>196.82</course>
  <speed>0.49</speed>
  <fix>3d</fix>
</trkpt>
<trkpt lat="40.0728812" lon="-105.2306708">
  <ele>1595.65</ele>
  <time>2026-08-27T18:28:58Z</time>
  <course>8.45</course>
  <speed>0.7694153624668537</speed>
  <fix>3d</fix>
</trkpt>
<trkpt lat="40.0728822" lon="-105.2306706">
  <ele>1595.56</ele>
  <time>2026-08-27T18:28:58Z</time>
  <course>191.16</course>
  <speed>0.66</speed>
  <fix>3d</fix>
</trkpt>
<trkpt lat="40.0728798" lon="-105.230671">
  <ele>1595.65</ele>
  <time>2026-08-27T18:28:58Z</time>
  <course>8.41</course>
  <speed>0.8338465086573187</speed>
  <fix>3d</fix>
</trkpt>
<trkpt lat="40.0728809" lon="-105.230671">
  <ele>1595.56</ele>
  <time>2026-08-27T18:28:58Z</time>
  <course>187.32</course>
  <speed>0.78</speed>
  <fix>3d</fix>
</trkpt>
<trkpt lat="40.0728784" lon="-105.2306712">
  <ele>1595.66</ele>
  <time>2026-08-27T18:28:58Z</time>
  <course>8.43</course>
  <speed>0.8205485969764374</speed>
  <fix>3d</fix>
</trkpt>
<trkpt lat="40.0728795" lon="-105.2306711">
  <ele>1595.56</ele>
  <time>2026-08-27T18:28:58Z</time>
  <course>184.04</course>
  <speed>0.82</speed>
  <fix>3d</fix>
</trkpt>
<trkpt lat="40.072877" lon="-105.2306711">
  <ele>1595.66</ele>
  <time>2026-08-27T18:28:58Z</time>
  <course>8.45</course>
  <speed>0.7302739212103907</speed>
  <fix>3d</fix>
</trkpt>
<trkpt lat="40.072878" lon="-105.2306711">
  <ele>1595.56</ele>
  <time>2026-08-27T18:28:58Z</time>
  <course>180.68</course>
  <speed>0.8</speed>
  <fix>3d</fix>
</trkpt>
<trkpt lat="40.0728758" lon="-105.230671">
  <ele>1595.67</ele>
  <time>2026-08-27T18:28:58Z</time>
  <course>8.48</course>
  <speed>0.5854912467321779</speed>
  <fix>3d</fix>
</trkpt>
<trkpt lat="40.0728767" lon="-105.2306711">
  <ele>1595.57</ele>
  <time>2026-08-27T18:28:58Z</time>
  <course>176.61</course>
  <speed>0.7</speed>
  <fix>3d</fix>
</trkpt>
<trkpt lat="40.072875" lon="-105.2306708">
  <ele>1595.67</ele>
  <time>2026-08-27T18:28:58Z</time>
  <course>8.56</course>
  <speed>0.3921734310225516</speed>
  <fix>3d</fix>
</trkpt>
<trkpt lat="40.0728756" lon="-105.2306711">
  <ele>1595.58</ele>
  <time>2026-08-27T18:28:58Z</time>
  <course>170.59</course>
  <speed>0.53</speed>
  <fix>3d</fix>
</trkpt>
<trkpt lat="40.0728745" lon="-105.2306705">
  <ele>1595.68</ele>
  <time>2026-08-27T18:28:58Z</time>
  <course>8.59</course>
  <speed>0.20615528128088303</speed>
  <fix>3d</fix>
</trkpt>
<trkpt lat="40.0728749" lon="-105.2306708">
  <ele>1595.58</ele>
  <time>2026-08-27T18:28:58Z</time>
  <course>158.18</course>
  <speed>0.33</speed>
  <fix>3d</fix>
</trkpt>
<trkpt lat="40.0728744" lon="-105.2306701">
  <ele>1595.68</ele>
  <time>2026-08-27T18:28:58Z</time>
  <course>8.58</course>
  <speed>0.21633307652783937</speed>
  <fix>3d</fix>
</trkpt>
<trkpt lat="40.0728745" lon="-105.2306705">
  <ele>1595.58</ele>
  <time>2026-08-27T18:28:58Z</time>
  <course>113.6</course>
  <speed>0.16</speed>
  <fix>3d</fix>
</trkpt>
<trkpt lat="40.0728748" lon="-105.2306697">
  <ele>1595.68</ele>
  <time>2026-08-27T18:28:58Z</time>
  <course>8.55</course>
  <speed>0.40249223594996214</speed>
  <fix>3d</fix>
</trkpt>
<trkpt lat="40.0728746" lon="-105.2306701">
  <ele>1595.58</ele>
  <time>2026-08-27T18:28:58Z</time>
  <course>39.11</course>
  <speed>0.24</speed>
  <fix>3d</fix>
</trkpt>
<trkpt lat="40.0728757" lon="-105.2306694">
  <ele>1595.68</ele>
  <time>2026-08-27T18:28:58Z</time>
  <course>8.52</course>
  <speed>0.5920304046246274</speed>
  <fix>3d</fix>
</trkpt>
<trkpt lat="40.0728752" lon="-105.2306698">
  <ele>1595.58</ele>
  <time>2026-08-27T18:28:58Z</time>
  <course>18.38</course>
  <speed>0.45</speed>
  <fix>3d</fix>
</trkpt>
<trkpt lat="40.0728768" lon="-105.2306691">
  <ele>1595.67</ele>
  <time>2026-08-27T18:28:58Z</time>
  <course>8.45</course>
  <speed>0.7299315036357864</speed>
  <fix>3d</fix>
</trkpt>
<trkpt lat="40.0728761" lon="-105.2306695">
  <ele>1595.57</ele>
  <time>2026-08-27T18:28:58Z</time>
  <course>10.18</course>
  <speed>0.63</speed>
  <fix>3d</fix>
</trkpt>
<trkpt lat="40.0728782" lon="-105.2306689">
  <ele>1595.67</ele>
  <time>2026-08-27T18:28:58Z</time>
  <course>8.43</course>
  <speed>0.8030566605165541</speed>
  <fix>3d</fix>
</trkpt>
<trkpt lat="40.0728773" lon="-105.2306693">
  <ele>1595.57</ele>
  <time>2026-08-27T18:28:58Z</time>
  <course>5.05</course>
  <speed>0.76</speed>
  <fix>3d</fix>
</trkpt>
<trkpt lat="40.0728796" lon="-105.2306689">
  <ele>1595.67</ele>
  <time>2026-08-27T18:28:58Z</time>
  <course>8.42</course>
  <speed>0.8</speed>
  <fix>3d</fix>
</trkpt>
<trkpt lat="40.0728787" lon="-105.2306692">
  <ele>1595.57</ele>
  <time>2026-08-27T18:28:58Z</time>
  <course>0.83</course>
  <speed>0.82</speed>
  <fix>3d</fix>
</trkpt>
<trkpt lat="40.072881" lon="-105.230669">
  <ele>1595.68</ele>
  <time>2026-08-27T18:28:58Z</time>
  <course>8.5</course>
  <speed>0.7217340230306452</speed>
  <fix>3d</fix>
</trkpt>
<trkpt lat="40.0728802" lon="-105.2306692">
  <ele>1595.57</ele>
  <time>2026-08-27T18:28:58Z</time>
  <course>356.59</course>
  <speed>0.81</speed>
  <fix>3d</fix>
</trkpt>
<trkpt lat="40.0728822" lon="-105.2306693">
  <ele>1595.68</ele>
  <time>2026-08-27T18:28:58Z</time>
  <course>8.59</course>
  <speed>0.5805170109479997</speed>
  <fix>3d</fix>
</trkpt>
<trkpt lat="40.0728816" lon="-105.2306694">
  <ele>1595.57</ele>
  <time>2026-08-27T18:28:58Z</time>
  <course>351.49</course>
  <speed>0.72</speed>
  <fix>3d</fix>
</trkpt>
<trkpt lat="40.0728831" lon="-105.2306697">
  <ele>1595.68</ele>
  <time>2026-08-27T18:28:58Z</time>
  <course>8.67</course>
  <speed>0.39395431207184417</speed>
  <fix>3d</fix>
</trkpt>
<trkpt lat="40.0728828" lon="-105.2306697">
  <ele>1595.57</ele>
  <time>2026-08-27T18:28:58Z</time>
  <course>343.99</course>
  <speed>0.57</speed>
  <fix>3d</fix>
</trkpt>
<trkpt lat="40.0728836" lon="-105.2306702">
  <ele>1595.68</ele>
  <time>2026-08-27T18:28:58Z</time>
  <course>8.72</course>
  <speed>0.23323807579381203</speed>
  <fix>3d</fix>
</trkpt>
<trkpt lat="40.0728836" lon="-105.2306701">
  <ele>1595.58</ele>
  <time>2026-08-27T18:28:58Z</time>
  <course>329.59</course>
  <speed>0.39</speed>
  <fix>3d</fix>
</trkpt>
<trkpt lat="40.0728838" lon="-105.2306707">
  <ele>1595.68</ele>
  <time>2026-08-27T18:28:58Z</time>
  <course>8.68</course>
  <speed>0.25553864678361277</speed>
  <fix>3d</fix>
</trkpt>
<trkpt lat="40.0728839" lon="-105.2306706">
  <ele>1595.57</ele>
  <time>2026-08-27T18:28:58Z</time>
  <course>291.99</course>
  <speed>0.23</speed>
  <fix>3d</fix>
</trkpt>
<trkpt lat="40.0728834" lon="-105.2306713">
  <ele>1595.68</ele>
  <time>2026-08-27T18:28:58Z</time>
  <course>8.61</course>
  <speed>0.425440947723653</speed>
  <fix>3d</fix>
</trkpt>
<trkpt lat="40.0728838" lon="-105.2306711">
  <ele>1595.57</ele>
  <time>2026-08-27T18:28:58Z</time>
  <course>233.57</course>
  <speed>0.28</speed>
  <fix>3d</fix>
</trkpt>
<trkpt lat="40.0728826" lon="-105.2306718">
  <ele>1595.67</ele>
  <time>2026-08-27T18:28:58Z</time>
  <course>8.53</course>
  <speed>0.6103277807866851</speed>
  <fix>3d</fix>
</trkpt>
<trkpt lat="40.0728833" lon="-105.2306716">
  <ele>1595.57</ele>
  <time>2026-08-27T18:28:58Z</time>
  <course>207.58</course>
  <speed>0.45</speed>
  <fix>3d</fix>
</trkpt>
<trkpt lat="40.0728815" lon="-105.2306722">
  <ele>1595.67</ele>
  <time>2026-08-27T18:28:58Z</time>
  <course>8.48</course>
  <speed>0.7452516353554683</speed>
  <fix>3d</fix>
</trkpt>
<trkpt lat="40.0728825" lon="-105.230672">
  <ele>1595.56</ele>
  <time>2026-08-27T18:28:58Z</time>
  <course>196.57</course>
  <speed>0.63</speed>
  <fix>3d</fix>
</trkpt>
<trkpt lat="40.0728802" lon="-105.2306725">
  <ele>1595.67</ele>
  <time>2026-08-27T18:28:58Z</time>
  <course>8.47</course>
  <speed>0.8149846624323674</speed>
  <fix>3d</fix>
</trkpt>
<trkpt lat="40.0728813" lon="-105.2306724">
  <ele>1595.56</ele>
  <time>2026-08-27T18:28:58Z</time>
  <course>190.11</course>
  <speed>0.75</speed>
  <fix>3d</fix>
</trkpt>
<trkpt lat="40.0728787" lon="-105.2306726">
  <ele>1595.67</ele>
  <time>2026-08-27T18:28:58Z</time>
  <course>8.48</course>
  <speed>0.8202438661763951</speed>
  <fix>3d</fix>
</trkpt>
<trkpt lat="40.0728799" lon="-105.2306726">
  <ele>1595.56</ele>
  <time>2026-08-27T18:28:58Z</time>
  <course>185.26</course>
  <speed>0.81</speed>
  <fix>3d</fix>
</trkpt>
<trkpt lat="40.0728774" lon="-105.2306726">
  <ele>1595.67</ele>
  <time>2026-08-27T18:28:58Z</time>
  <course>8.49</course>
  <speed>0.740607858451421</speed>
  <fix>3d</fix>
</trkpt>
<trkpt lat="40.0728785" lon="-105.2306727">
  <ele>1595.56</ele>
  <time>2026-08-27T18:28:58Z</time>
  <course>180.76</course>
  <speed>0.79</speed>
  <fix>3d</fix>
</trkpt>
<trkpt lat="40.0728762" lon="-105.2306725">
  <ele>1595.67</ele>
  <time>2026-08-27T18:28:58Z</time>
  <course>8.54</course>
  <speed>0.5984145720150873</speed>
  <fix>3d</fix>
</trkpt>
<trkpt lat="40.0728771" lon="-105.2306727">
  <ele>1595.56</ele>
  <time>2026-08-27T18:28:58Z</time>
  <course>175.71</course>
  <speed>0.7</speed>
  <fix>3d</fix>
</trkpt>
<trkpt lat="40.0728754" lon="-105.2306723">
  <ele>1595.68</ele>
  <time>2026-08-27T18:28:58Z</time>
  <course>8.57</course>
  <speed>0.41231056256176607</speed>
  <fix>3d</fix>
</trkpt>
<trkpt lat="40.0728759" lon="-105.2306726">
  <ele>1595.56</ele>
  <time>2026-08-27T18:28:58Z</time>
  <course>168.62</course>
  <speed>0.54</speed>
  <fix>3d</fix>
</trkpt>
<trkpt lat="40.0728749" lon="-105.2306719">
  <ele>1595.69</ele>
  <time>2026-08-27T18:28:58Z</time>
  <course>8.6</course>
  <speed>0.23600847442411893</speed>
  <fix>3d</fix>
</trkpt>
<trkpt lat="40.0728752" lon="-105.2306724">
  <ele>1595.57</ele>
  <time>2026-08-27T18:28:58Z</time>
  <course>154.9</course>
  <speed>0.35</speed>
  <fix>3d</fix>
</trkpt>
<trkpt lat="40.0728748" lon="-105.2306714">
  <ele>1595.68</ele>
  <time>2026-08-27T18:28:58Z</time>
  <course>8.59</course>
  <speed>0.23706539182259395</speed>
  <fix>3d</fix>
</trkpt>
<trkpt lat="40.0728748" lon="-105.230672">
  <ele>1595.57</ele>
  <time>2026-08-27T18:28:58Z</time>
  <course>112.97</course>
  <speed>0.19</speed>
  <fix>3d</fix>
</trkpt>
<trkpt lat="40.0728752" lon="-105.230671">
  <ele>1595.68</ele>
  <time>2026-08-27T18:28:58Z</time>
  <course>8.55</course>
  <speed>0.408166632639171</speed>
  <fix>3d</fix>
</trkpt>
<trkpt lat="40.0728749" lon="-105.2306715">
  <ele>1595.56</ele>
  <time>2026-08-27T18:28:58Z</time>
  <course>45.17</course>
  <speed>0.25</speed>
  <fix>3d</fix>
</trkpt>
<trkpt lat="40.072876" lon="-105.2306706">
  <ele>1595.67</ele>
  <time>2026-08-27T18:28:58Z</time>
  <course>8.5</course>
  <speed>0.5882176467941097</speed>
  <fix>3d</fix>
</trkpt>
<trkpt lat="40.0728754" lon="-105.2306711">
  <ele>1595.56</ele>
  <time>2026-08-27T18:28:58Z</time>
  <course>21.7</course>
  <speed>0.45</speed>
  <fix>3d</fix>
</trkpt>
<trkpt lat="40.0728771" lon="-105.2306703">
  <ele>1595.66</ele>
  <time>2026-08-27T18:28:58Z</time>
  <course>8.44</course>
  <speed>0.73348483283569</speed>
  <fix>3d</fix>
</trkpt>
<trkpt lat="40.0728764" lon="-105.2306708">
  <ele>1595.55</ele>
  <time>2026-08-27T18:28:58Z</time>
  <course>12.14</course>
  <speed>0.63</speed>
  <fix>3d</fix>
</trkpt>
<trkpt lat="40.0728785" lon="-105.2306701">
  <ele>1595.66</ele>
  <time>2026-08-27T18:28:58Z</time>
  <course>8.42</course>
  <speed>0.8039900496896712</speed>
  <fix>3d</fix>
</trkpt>
<trkpt lat="40.0728776" lon="-105.2306705">
  <ele>1595.55</ele>
  <time>2026-08-27T18:28:58Z</time>
  <course>6.28</course>
  <speed>0.76</speed>
  <fix>3d</fix>
</trkpt>
<trkpt lat="40.07288" lon="-105.2306701">
  <ele>1595.65</ele>
  <time>2026-08-27T18:28:58Z</time>
  <course>8.42</course>
  <speed>0.8000624975587844</speed>
  <fix>3d</fix>
</trkpt>
<trkpt lat="40.072879" lon="-105.2306703">
  <ele>1595.55</ele>
  <time>2026-08-27T18:28:58Z</time>
  <course>1.61</course>
  <speed>0.82</speed>
  <fix>3d</fix>
</trkpt>
<trkpt lat="40.0728814" lon="-105.2306702">
  <ele>1595.65</ele>
  <time>2026-08-27T18:28:58Z</time>
  <course>8.49</course>
  <speed>0.7217340230306452</speed>
  <fix>3d</fix>
</trkpt>
<trkpt lat="40.0728804" lon="-105.2306704">
  <ele>1595.55</ele>
  <time>2026-08-27T18:28:58Z</time>
  <course>357.05</course>
  <speed>0.81</speed>
  <fix>3d</fix>
</trkpt>
<trkpt lat="40.0728826" lon="-105.2306704">
  <ele>1595.66</ele>
  <time>2026-08-27T18:28:58Z</time>
  <course>8.54</course>
  <speed>0.5824946351684279</speed>
  <fix>3d</fix>
</trkpt>
<trkpt lat="40.0728818" lon="-105.2306706">
  <ele>1595.55</ele>
  <time>2026-08-27T18:28:58Z</time>
  <course>351.63</course>
  <speed>0.72</speed>
  <fix>3d</fix>
</trkpt>
<trkpt lat="40.0728834" lon="-105.2306708">
  <ele>1595.66</ele>
  <time>2026-08-27T18:28:58Z</time>
  <course>8.58</course>
  <speed>0.39812058474788764</speed>
  <fix>3d</fix>
</trkpt>
<trkpt lat="40.072883" lon="-105.2306708">
  <ele>1595.56</ele>
  <time>2026-08-27T18:28:58Z</time>
  <course>343.78</course>
  <speed>0.57</speed>
  <fix>3d</fix>
</trkpt>
<trkpt lat="40.0728839" lon="-105.2306713">
  <ele>1595.66</ele>
  <time>2026-08-27T18:28:58Z</time>
  <course>8.6</course>
  <speed>0.24186773244895649</speed>
  <fix>3d</fix>
</trkpt>
<trkpt lat="40.0728838" lon="-105.2306712">
  <ele>1595.56</ele>
  <time>2026-08-27T18:28:58Z</time>
  <course>328.92</course>
  <speed>0.39</speed>
  <fix>3d</fix>
</trkpt>
<trkpt lat="40.072884" lon="-105.2306719">
  <ele>1595.66</ele>
  <time>2026-08-27T18:28:58Z</time>
  <course>8.62</course>
  <speed>0.25553864678361277</speed>
  <fix>3d</fix>
</trkpt>
<trkpt lat="40.0728842" lon="-105.2306717">
  <ele>1595.57</ele>
  <time>2026-08-27T18:28:58Z</time>
  <course>291.11</course>
  <speed>0.24</speed>
  <fix>3d</fix>
</trkpt>
<trkpt lat="40.0728837" lon="-105.2306724">
  <ele>1595.66</ele>
  <time>2026-08-27T18:28:58Z</time>
  <course>8.59</course>
  <speed>0.4304648650006177</speed>
  <fix>3d</fix>
</trkpt>
<trkpt lat="40.0728841" lon="-105.2306723">
  <ele>1595.57</ele>
  <time>2026-08-27T18:28:58Z</time>
  <course>234.21</course>
  <speed>0.28</speed>
  <fix>3d</fix>
</trkpt>
<trkpt lat="40.0728829" lon="-105.230673">
  <ele>1595.66</ele>
  <time>2026-08-27T18:28:58Z</time>
  <course>8.52</course>
  <speed>0.6135144660071187</speed>
  <fix>3d</fix>
</trkpt>
<trkpt lat="40.0728836" lon="-105.2306728">
  <ele>1595.57</ele>
  <time>2026-08-27T18:28:58Z</time>
  <course>208.3</course>
  <speed>0.46</speed>
  <fix>3d</fix>
</trkpt>
<trkpt lat="40.0728818" lon="-105.2306734">
  <ele>1595.66</ele>
  <time>2026-08-27T18:28:58Z</time>
  <course>8.46</course>
  <speed>0.7473285756613351</speed>
  <fix>3d</fix>
</trkpt>
<trkpt lat="40.0728828" lon="-105.2306732">
  <ele>1595.58</ele>
  <time>2026-08-27T18:28:58Z</time>
  <course>197.13</course>
  <speed>0.63</speed>
  <fix>3d</fix>
</trkpt>
<trkpt lat="40.0728804" lon="-105.2306737">
  <ele>1595.66</ele>
  <time>2026-08-27T18:28:58Z</time>
  <course>8.41</course>
  <speed>0.8260750571225353</speed>
  <fix>3d</fix>
</trkpt>
<trkpt lat="40.0728816" lon="-105.2306737">
  <ele>1595.58</ele>
  <time>2026-08-27T18:28:58Z</time>
  <course>190.51</course>
  <speed>0.75</speed>
  <fix>3d</fix>
</trkpt>
<trkpt lat="40.072879" lon="-105.2306739">
  <ele>1595.67</ele>
  <time>2026-08-27T18:28:58Z</time>
  <course>8.43</course>
  <speed>0.8205485969764374</speed>
  <fix>3d</fix>
</trkpt>
<trkpt lat="40.0728801" lon="-105.2306739">
  <ele>1595.58</ele>
  <time>2026-08-27T18:28:58Z</time>
  <course>185.54</course>
  <speed>0.81</speed>
  <fix>3d</fix>
</trkpt>
<trkpt lat="40.0728777" lon="-105.2306739">
  <ele>1595.67</ele>
  <time>2026-08-27T18:28:58Z</time>
  <course>8.5</course>
  <speed>0.740607858451421</speed>
  <fix>3d</fix>
</trkpt>
<trkpt lat="40.0728786" lon="-105.2306741">
  <ele>1595.58</ele>
  <time>2026-08-27T18:28:58Z</time>
  <course>180.97</course>
  <speed>0.79</speed>
  <fix>3d</fix>
</trkpt>
<trkpt lat="40.0728765" lon="-105.2306738">
  <ele>1595.67</ele>
  <time>2026-08-27T18:28:58Z</time>
  <course>8.57</course>
  <speed>0.5984145720150873</speed>
  <fix>3d</fix>
</trkpt>
<trkpt lat="40.0728773" lon="-105.230674">
  <ele>1595.59</ele>
  <time>2026-08-27T18:28:58Z</time>
  <course>175.86</course>
  <speed>0.7</speed>
  <fix>3d</fix>
</trkpt>
<trkpt lat="40.0728756" lon="-105.2306736">
  <ele>1595.68</ele>
  <time>2026-08-27T18:28:58Z</time>
  <course>8.59</course>
  <speed>0.41785164831552357</speed>
  <fix>3d</fix>
</trkpt>
<trkpt lat="40.0728761" lon="-105.2306739">
  <ele>1595.59</ele>
  <time>2026-08-27T18:28:58Z</time>
  <course>168.71</course>
  <speed>0.55</speed>
  <fix>3d</fix>
</trkpt>
<trkpt lat="40.0728751" lon="-105.2306732">
  <ele>1595.68</ele>
  <time>2026-08-27T18:28:58Z</time>
  <course>8.6</course>
  <speed>0.23600847442411893</speed>
  <fix>3d</fix>
</trkpt>
<trkpt lat="40.0728754" lon="-105.2306735">
  <ele>1595.59</ele>
  <time>2026-08-27T18:28:58Z</time>
  <course>154.89</course>
  <speed>0.35</speed>
  <fix>3d</fix>
</trkpt>
<trkpt lat="40.0728751" lon="-105.2306727">
  <ele>1595.68</ele>
  <time>2026-08-27T18:28:58Z</time>
  <course>8.58</course>
  <speed>0.23706539182259395</speed>
  <fix>3d</fix>
</trkpt>
<trkpt lat="40.072875" lon="-105.2306732">
  <ele>1595.6</ele>
  <time>2026-08-27T18:28:58Z</time>
  <course>113.17</course>
  <speed>0.19</speed>
  <fix>3d</fix>
</trkpt>
<trkpt lat="40.0728754" lon="-105.2306723">
  <ele>1595.68</ele>
  <time>2026-08-27T18:28:58Z</time>
  <course>8.53</course>
  <speed>0.408166632639171</speed>
  <fix>3d</fix>
</trkpt>
<trkpt lat="40.0728751" lon="-105.2306727">
  <ele>1595.59</ele>
  <time>2026-08-27T18:28:58Z</time>
  <course>45.86</course>
  <speed>0.25</speed>
  <fix>3d</fix>
</trkpt>
<trkpt lat="40.0728762" lon="-105.2306718">
  <ele>1595.68</ele>
  <time>2026-08-27T18:28:58Z</time>
  <course>8.47</course>
  <speed>0.5882176467941097</speed>
  <fix>3d</fix>
</trkpt>
<trkpt lat="40.0728757" lon="-105.2306724">
  <ele>1595.59</ele>
  <time>2026-08-27T18:28:58Z</time>
  <course>22.18</course>
  <speed>0.45</speed>
  <fix>3d</fix>
</trkpt>
<trkpt lat="40.0728773" lon="-105.2306715">
  <ele>1595.68</ele>
  <time>2026-08-27T18:28:58Z</time>
  <course>8.44</course>
  <speed>0.723671196055225</speed>
  <fix>3d</fix>
</trkpt>
<trkpt lat="40.0728766" lon="-105.230672">
  <ele>1595.59</ele>
  <time>2026-08-27T18:28:58Z</time>
  <course>12.5</course>
  <speed>0.63</speed>
  <fix>3d</fix>
</trkpt>
<trkpt lat="40.0728787" lon="-105.2306713">
  <ele>1595.67</ele>
  <time>2026-08-27T18:28:58Z</time>
  <course>8.44</course>
  <speed>0.8039900496896712</speed>
  <fix>3d</fix>
</trkpt>
<trkpt lat="40.0728778" lon="-105.2306717">
  <ele>1595.59</ele>
  <time>2026-08-27T18:28:58Z</time>
  <course>6.59</course>
  <speed>0.76</speed>
  <fix>3d</fix>
</trkpt>
<trkpt lat="40.0728802" lon="-105.2306713">
  <ele>1595.67</ele>
  <time>2026-08-27T18:28:58Z</time>
  <course>8.45</course>
  <speed>0.8000624975587844</speed>
  <fix>3d</fix>
</trkpt>
<trkpt lat="40.0728792" lon="-105.2306715">
  <ele>1595.58</ele>
  <time>2026-08-27T18:28:58Z</time>
  <course>1.91</course>
  <speed>0.82</speed>
  <fix>3d</fix>
</trkpt>
<trkpt lat="40.0728816" lon="-105.2306714">
  <ele>1595.67</ele>
  <time>2026-08-27T18:28:58Z</time>
  <course>8.53</course>
  <speed>0.7217340230306452</speed>
  <fix>3d</fix>
</trkpt>
<trkpt lat="40.0728807" lon="-105.2306716">
  <ele>1595.58</ele>
  <time>2026-08-27T18:28:58Z</time>
  <course>357.36</course>
  <speed>0.81</speed>
  <fix>3d</fix>
</trkpt>
<trkpt lat="40.0728827" lon="-105.2306716">
  <ele>1595.67</ele>
  <time>2026-08-27T18:28:58Z</time>
  <course>8.58</course>
  <speed>0.5805170109479997</speed>
  <fix>3d</fix>
</trkpt>
<trkpt lat="40.072882" lon="-105.2306718">
  <ele>1595.59</ele>
  <time>2026-08-27T18:28:58Z</time>
  <course>352.03</course>
  <speed>0.72</speed>
  <fix>3d</fix>
</trkpt>
<trkpt lat="40.0728836" lon="-105.230672">
  <ele>1595.67</ele>
  <time>2026-08-27T18:28:58Z</time>
  <course>8.62</course>
  <speed>0.39812058474788764</speed>
  <fix>3d</fix>
</trkpt>
<trkpt lat="40.0728832" lon="-105.230672">
  <ele>1595.59</ele>
  <time>2026-08-27T18:28:58Z</time>
  <course>344.3</course>
  <speed>0.57</speed>
  <fix>3d</fix>
</trkpt>
<trkpt lat="40.0728841" lon="-105.2306725">
  <ele>1595.67</ele>
  <time>2026-08-27T18:28:58Z</time>
  <course>8.63</course>
  <speed>0.23323807579381203</speed>
  <fix>3d</fix>
</trkpt>
<trkpt lat="40.072884" lon="-105.2306724">
  <ele>1595.59</ele>
  <time>2026-08-27T18:28:58Z</time>
  <course>329.59</course>
  <speed>0.39</speed>
  <fix>3d</fix>
</trkpt>
<trkpt lat="40.0728842" lon="-105.2306731">
  <ele>1595.67</ele>
  <time>2026-08-27T18:28:58Z</time>
  <course>8.63</course>
  <speed>0.25553864678361277</speed>
  <fix>3d</fix>
</trkpt>
<trkpt lat="40.0728844" lon="-105.2306729">
  <ele>1595.6</ele>
  <time>2026-08-27T18:28:58Z</time>
  <course>291.68</course>
  <speed>0.24</speed>
  <fix>3d</fix>
</trkpt>
<trkpt lat="40.0728839" lon="-105.2306736">
  <ele>1595.66</ele>
  <time>2026-08-27T18:28:58Z</time>
  <course>8.58</course>
  <speed>0.4304648650006177</speed>
  <fix>3d</fix>
</trkpt>
<trkpt lat="40.0728843" lon="-105.2306734">
  <ele>1595.6</ele>
  <time>2026-08-27T18:28:58Z</time>
  <course>233.82</course>
  <speed>0.28</speed>
  <fix>3d</fix>
</trkpt>
<trkpt lat="40.0728831" lon="-105.2306741">
  <ele>1595.66</ele>
  <time>2026-08-27T18:28:58Z</time>
  <course>8.52</course>
  <speed>0.6135144660071187</speed>
  <fix>3d</fix>
</trkpt>
<trkpt lat="40.0728838" lon="-105.2306739">
  <ele>1595.6</ele>
  <time>2026-08-27T18:28:58Z</time>
  <course>207.93</course>
  <speed>0.46</speed>
  <fix>3d</fix>
</trkpt>
<trkpt lat="40.0728819" lon="-105.2306746">
  <ele>1595.66</ele>
  <time>2026-08-27T18:28:58Z</time>
  <course>8.48</course>
  <speed>0.7550496672405067</speed>
  <fix>3d</fix>
</trkpt>
<trkpt lat="40.072883" lon="-105.2306744">
  <ele>1595.6</ele>
  <time>2026-08-27T18:28:58Z</time>
  <course>196.87</course>
  <speed>0.63</speed>
  <fix>3d</fix>
</trkpt>
<trkpt lat="40.0728806" lon="-105.2306749">
  <ele>1595.67</ele>
  <time>2026-08-27T18:28:58Z</time>
  <course>8.44</course>
  <speed>0.8260750571225353</speed>
  <fix>3d</fix>
</trkpt>
<trkpt lat="40.0728818" lon="-105.2306748">
  <ele>1595.6</ele>
  <time>2026-08-27T18:28:58Z</time>
  <course>190.32</course>
  <speed>0.75</speed>
  <fix>3d</fix>
</trkpt>
<trkpt lat="40.0728792" lon="-105.230675">
  <ele>1595.67</ele>
  <time>2026-08-27T18:28:58Z</time>
  <course>8.47</course>
  <speed>0.8205485969764374</speed>
  <fix>3d</fix>
</trkpt>
<trkpt lat="40.0728804" lon="-105.230675">
  <ele>1595.6</ele>
  <time>2026-08-27T18:28:58Z</time>
  <course>185.39</course>
  <speed>0.81</speed>
  <fix>3d</fix>
</trkpt>
<trkpt lat="40.0728778" lon="-105.230675">
  <ele>1595.68</ele>
  <time>2026-08-27T18:28:58Z</time>
  <course>8.51</course>
  <speed>0.740607858451421</speed>
  <fix>3d</fix>
</trkpt>
<trkpt lat="40.0728789" lon="-105.2306751">
  <ele>1595.6</ele>
  <time>2026-08-27T18:28:58Z</time>
  <course>180.83</course>
  <speed>0.79</speed>
  <fix>3d</fix>
</trkpt>
<trkpt lat="40.0728766" lon="-105.2306749">
  <ele>1595.68</ele>
  <time>2026-08-27T18:28:58Z</time>
  <course>8.57</course>
  <speed>0.5984145720150873</speed>
  <fix>3d</fix>
</trkpt>
<trkpt lat="40.0728776" lon="-105.2306751">
  <ele>1595.61</ele>
  <time>2026-08-27T18:28:58Z</time>
  <course>175.71</course>
  <speed>0.7</speed>
  <fix>3d</fix>
</trkpt>
<trkpt lat="40.0728758" lon="-105.2306747">
  <ele>1595.69</ele>
  <time>2026-08-27T18:28:58Z</time>
  <course>8.61</course>
  <speed>0.4085339643163099</speed>
  <fix>3d</fix>
</trkpt>
<trkpt lat="40.0728765" lon="-105.2306749">
  <ele>1595.61</ele>
  <time>2026-08-27T18:28:58Z</time>
  <course>168.51</course>
  <speed>0.54</speed>
  <fix>3d</fix>
</trkpt>
<trkpt lat="40.0728753" lon="-105.2306743">
  <ele>1595.69</ele>
  <time>2026-08-27T18:28:58Z</time>
  <course>8.61</course>
  <speed>0.23600847442411893</speed>
  <fix>3d</fix>
</trkpt>
<trkpt lat="40.0728757" lon="-105.2306747">
  <ele>1595.61</ele>
  <time>2026-08-27T18:28:58Z</time>
  <course>154.41</course>
  <speed>0.35</speed>
  <fix>3d</fix>
</trkpt>
<trkpt lat="40.0728753" lon="-105.2306738">
  <ele>1595.68</ele>
  <time>2026-08-27T18:28:58Z</time>
  <course>8.6</course>
  <speed>0.23706539182259395</speed>
  <fix>3d</fix>
</trkpt>
<trkpt lat="40.0728753" lon="-105.2306743">
  <ele>1595.61</ele>
  <time>2026-08-27T18:28:58Z</time>
  <course>111.32</course>
  <speed>0.19</speed>
  <fix>3d</fix>
</trkpt>
<trkpt lat="40.0728756" lon="-105.2306734">
  <ele>1595.67</ele>
  <time>2026-08-27T18:28:58Z</time>
  <course>8.56</course>
  <speed>0.408166632639171</speed>
  <fix>3d</fix>
</trkpt>
<trkpt lat="40.0728754" lon="-105.2306739">
  <ele>1595.61</ele>
  <time>2026-08-27T18:28:58Z</time>
  <course>44.7</course>
  <speed>0.26</speed>
  <fix>3d</fix>
</trkpt>
<trkpt lat="40.0728765" lon="-105.230673">
  <ele>1595.67</ele>
  <time>2026-08-27T18:28:58Z</time>
  <course>8.48</course>
  <speed>0.5977457653551382</speed>
  <fix>3d</fix>
</trkpt>
<trkpt lat="40.0728759" lon="-105.2306735">
  <ele>1595.6</ele>
  <time>2026-08-27T18:28:58Z</time>
  <course>21.77</course>
  <speed>0.45</speed>
  <fix>3d</fix>
</trkpt>
<trkpt lat="40.0728776" lon="-105.2306726">
  <ele>1595.66</ele>
  <time>2026-08-27T18:28:58Z</time>
  <course>8.44</course>
  <speed>0.73348483283569</speed>
  <fix>3d</fix>
</trkpt>
<trkpt lat="40.0728769" lon="-105.230673">
  <ele>1595.6</ele>
  <time>2026-08-27T18:28:58Z</time>
  <course>12.29</course>
  <speed>0.64</speed>
  <fix>3d</fix>
</trkpt>
<trkpt lat="40.072879" lon="-105.2306724">
  <ele>1595.66</ele>
  <time>2026-08-27T18:28:58Z</time>
  <course>8.43</course>
  <speed>0.8039900496896712</speed>
  <fix>3d</fix>
</trkpt>
<trkpt lat="40.072878" lon="-105.2306728">
  <ele>1595.6</ele>
  <time>2026-08-27T18:28:58Z</time>
  <course>6.45</course>
  <speed>0.77</speed>
  <fix>3d</fix>
</trkpt>
<trkpt lat="40.0728804" lon="-105.2306724">
  <ele>1595.67</ele>
  <time>2026-08-27T18:28:58Z</time>
  <course>8.45</course>
  <speed>0.8000624975587844</speed>
  <fix>3d</fix>
</trkpt>
<trkpt lat="40.0728795" lon="-105.2306727">
  <ele>1595.6</ele>
  <time>2026-08-27T18:28:58Z</time>
  <course>1.8</course>
  <speed>0.83</speed>
  <fix>3d</fix>
</trkpt>
<trkpt lat="40.0728818" lon="-105.2306725">
  <ele>1595.67</ele>
  <time>2026-08-27T18:28:58Z</time>
  <course>8.53</course>
  <speed>0.7317103251970687</speed>
  <fix>3d</fix>
</trkpt>
<trkpt lat="40.072881" lon="-105.2306727">
  <ele>1595.6</ele>
  <time>2026-08-27T18:28:58Z</time>
  <course>357.28</course>
  <speed>0.81</speed>
  <fix>3d</fix>
</trkpt>
<trkpt lat="40.072883" lon="-105.2306727">
  <ele>1595.67</ele>
  <time>2026-08-27T18:28:58Z</time>
  <course>8.59</course>
  <speed>0.5805170109479997</speed>
  <fix>3d</fix>
</trkpt>
<trkpt lat="40.0728824" lon="-105.2306729">
  <ele>1595.61</ele>
  <time>2026-08-27T18:28:58Z</time>
  <course>351.97</course>
  <speed>0.72</speed>
  <fix>3d</fix>
</trkpt>
<trkpt lat="40.0728839" lon="-105.2306731">
  <ele>1595.67</ele>
  <time>2026-08-27T18:28:58Z</time>
  <course>8.64</course>
  <speed>0.40718546143004664</speed>
  <fix>3d</fix>
</trkpt>
<trkpt lat="40.0728836" lon="-105.2306731">
  <ele>1595.61</ele>
  <time>2026-08-27T18:28:58Z</time>
  <course>344.34</course>
  <speed>0.58</speed>
  <fix>3d</fix>
</trkpt>
<trkpt lat="40.0728844" lon="-105.2306736">
  <ele>1595.67</ele>
  <time>2026-08-27T18:28:58Z</time>
  <course>8.64</course>
  <speed>0.23323807579381203</speed>
  <fix>3d</fix>
</trkpt>
<trkpt lat="40.0728843" lon="-105.2306735">
  <ele>1595.61</ele>
  <time>2026-08-27T18:28:58Z</time>
  <course>329.89</course>
  <speed>0.39</speed>
  <fix>3d</fix>
</trkpt>
<trkpt lat="40.0728845" lon="-105.2306742">
  <ele>1595.67</ele>
  <time>2026-08-27T18:28:58Z</time>
  <course>8.63</course>
  <speed>0.25553864678361277</speed>
  <fix>3d</fix>
</trkpt>
<trkpt lat="40.0728848" lon="-105.230674">
  <ele>1595.62</ele>
  <time>2026-08-27T18:28:58Z</time>
  <course>292.68</course>
  <speed>0.24</speed>
  <fix>3d</fix>
</trkpt>
<trkpt lat="40.0728842" lon="-105.2306747">
  <ele>1595.67</ele>
  <time>2026-08-27T18:28:58Z</time>
  <course>8.56</course>
  <speed>0.4304648650006177</speed>
  <fix>3d</fix>
</trkpt>
<trkpt lat="40.0728847" lon="-105.2306745">
  <ele>1595.62</ele>
  <time>2026-08-27T18:28:58Z</time>
  <course>234.58</course>
  <speed>0.28</speed>
  <fix>3d</fix>
</trkpt>
<trkpt lat="40.0728834" lon="-105.2306753">
  <ele>1595.67</ele>
  <time>2026-08-27T18:28:58Z</time>
  <course>8.53</course>
  <speed>0.6135144660071187</speed>
  <fix>3d</fix>
</trkpt>
<trkpt lat="40.0728842" lon="-105.230675">
  <ele>1595.62</ele>
  <time>2026-08-27T18:28:58Z</time>
  <course>208.16</course>
  <speed>0.45</speed>
  <fix>3d</fix>
</trkpt>
<trkpt lat="40.0728823" lon="-105.2306757">
  <ele>1595.67</ele>
  <time>2026-08-27T18:28:58Z</time>
  <course>8.49</course>
  <speed>0.7452516353554683</speed>
  <fix>3d</fix>
</trkpt>
<trkpt lat="40.0728833" lon="-105.2306755">
  <ele>1595.62</ele>
  <time>2026-08-27T18:28:58Z</time>
  <course>196.92</course>
  <speed>0.62</speed>
  <fix>3d</fix>
</trkpt>
<trkpt lat="40.072881" lon="-105.230676">
  <ele>1595.66</ele>
  <time>2026-08-27T18:28:58Z</time>
  <course>8.48</course>
  <speed>0.8249242389456137</speed>
  <fix>3d</fix>
</trkpt>
<trkpt lat="40.0728822" lon="-105.2306759">
  <ele>1595.62</ele>
  <time>2026-08-27T18:28:58Z</time>
  <course>190.3</course>
  <speed>0.75</speed>
  <fix>3d</fix>
</trkpt>
<trkpt lat="40.0728796" lon="-105.2306761">
  <ele>1595.67</ele>
  <time>2026-08-27T18:28:58Z</time>
  <course>8.48</course>
  <speed>0.8205485969764374</speed>
  <fix>3d</fix>
</trkpt>
<trkpt lat="40.0728808" lon="-105.2306762">
  <ele>1595.62</ele>
  <time>2026-08-27T18:28:58Z</time>
  <course>185.32</course>
  <speed>0.81</speed>
  <fix>3d</fix>
</trkpt>
<trkpt lat="40.0728782" lon="-105.2306761">
  <ele>1595.68</ele>
  <time>2026-08-27T18:28:58Z</time>
  <course>8.52</course>
  <speed>0.740607858451421</speed>
  <fix>3d</fix>
</trkpt>
<trkpt lat="40.0728794" lon="-105.2306763">
  <ele>1595.62</ele>
  <time>2026-08-27T18:28:58Z</time>
  <course>180.73</course>
  <speed>0.79</speed>
  <fix>3d</fix>
</trkpt>
<trkpt lat="40.0728771" lon="-105.2306761">
  <ele>1595.68</ele>
  <time>2026-08-27T18:28:58Z</time>
  <course>8.58</course>
  <speed>0.5984145720150873</speed>
  <fix>3d</fix>
</trkpt>
<trkpt lat="40.072878" lon="-105.2306762">
  <ele>1595.62</ele>
  <time>2026-08-27T18:28:58Z</time>
  <course>175.61</course>
  <speed>0.7</speed>
  <fix>3d</fix>
</trkpt>
<trkpt lat="40.0728762" lon="-105.2306758">
  <ele>1595.69</ele>
  <time>2026-08-27T18:28:58Z</time>
  <course>8.62</course>
  <speed>0.4085339643163099</speed>
  <fix>3d</fix>
</trkpt>
<trkpt lat="40.0728769" lon="-105.230676">
  <ele>1595.63</ele>
  <time>2026-08-27T18:28:58Z</time>
  <course>168.4</course>
  <speed>0.54</speed>
  <fix>3d</fix>
</trkpt>
<trkpt lat="40.0728757" lon="-105.2306754">
  <ele>1595.69</ele>
  <time>2026-08-27T18:28:58Z</time>
  <course>8.64</course>
  <speed>0.23600847442411893</speed>
  <fix>3d</fix>
</trkpt>
<trkpt lat="40.0728761" lon="-105.2306758">
  <ele>1595.63</ele>
  <time>2026-08-27T18:28:58Z</time>
  <course>154.33</course>
  <speed>0.35</speed>
  <fix>3d</fix>
</trkpt>
<trkpt lat="40.0728757" lon="-105.2306749">
  <ele>1595.69</ele>
  <time>2026-08-27T18:28:58Z</time>
  <course>8.57</course>
  <speed>0.23259406699226015</speed>
  <fix>3d</fix>
</trkpt>
<trkpt lat="40.0728757" lon="-105.2306754">
  <ele>1595.63</ele>
  <time>2026-08-27T18:28:58Z</time>
  <course>111.7</course>
  <speed>0.19</speed>
  <fix>3d</fix>
</trkpt>
<trkpt lat="40.072876" lon="-105.2306745">
  <ele>1595.68</ele>
  <time>2026-08-27T18:28:58Z</time>
  <course>8.49</course>
  <speed>0.32015621187164245</speed>
  <fix>3d</fix>
</trkpt>
<trkpt lat="40.0728758" lon="-105.2306749">
  <ele>1595.62</ele>
  <time>2026-08-27T18:28:58Z</time>
  <course>50.6</course>
  <speed>0.23</speed>
  <fix>3d</fix>
</trkpt>
<trkpt lat="40.0728765" lon="-105.2306741">
  <ele>1595.67</ele>
  <time>2026-08-27T18:28:58Z</time>
  <course>8.52</course>
  <speed>0.34928498393145957</speed>
  <fix>3d</fix>
</trkpt>
<trkpt lat="40.0728762" lon="-105.2306745">
  <ele>1595.62</ele>
  <time>2026-08-27T18:28:58Z</time>
  <course>28.05</course>
  <speed>0.32</speed>
  <fix>3d</fix>
</trkpt>
<trkpt lat="40.0728771" lon="-105.2306739">
  <ele>1595.68</ele>
  <time>2026-08-27T18:28:58Z</time>
  <course>8.57</course>
  <speed>0.3420526275297414</speed>
  <fix>3d</fix>
</trkpt>
<trkpt lat="40.0728768" lon="-105.2306743">
  <ele>1595.62</ele>
  <time>2026-08-27T18:28:58Z</time>
  <course>16.07</course>
  <speed>0.35</speed>
  <fix>3d</fix>
</trkpt>
<trkpt lat="40.0728777" lon="-105.2306738">
  <ele>1595.68</ele>
  <time>2026-08-27T18:28:58Z</time>
  <course>8.61</course>
  <speed>0.3238826948140329</speed>
  <fix>3d</fix>
</trkpt>
<trkpt lat="40.0728773" lon="-105.230674">
  <ele>1595.61</ele>
  <time>2026-08-27T18:28:58Z</time>
  <course>8.28</course>
  <speed>0.35</speed>
  <fix>3d</fix>
</trkpt>
<trkpt lat="40.0728782" lon="-105.2306738">
  <ele>1595.68</ele>
  <time>2026-08-27T18:28:58Z</time>
  <course>8.63</course>
  <speed>0.30066592756745814</speed>
  <fix>3d</fix>
</trkpt>
<trkpt lat="40.072878" lon="-105.2306739">
  <ele>1595.61</ele>
  <time>2026-08-27T18:28:58Z</time>
  <course>2.88</course>
  <speed>0.34</speed>
  <fix>3d</fix>
</trkpt>
<trkpt lat="40.0728788" lon="-105.2306738">
  <ele>1595.68</ele>
  <time>2026-08-27T18:28:58Z</time>
  <course>8.64</course>
  <speed>0.280178514522438</speed>
  <fix>3d</fix>
</trkpt>
<trkpt lat="40.0728785" lon="-105.2306739">
  <ele>1595.61</ele>
  <time>2026-08-27T18:28:58Z</time>
  <course>359.35</course>
  <speed>0.32</speed>
  <fix>3d</fix>
</trkpt>
<trkpt lat="40.0728793" lon="-105.2306738">
  <ele>1595.68</ele>
  <time>2026-08-27T18:28:58Z</time>
  <course>8.65</course>
  <speed>0.26</speed>
  <fix>3d</fix>
</trkpt>
<trkpt lat="40.0728791" lon="-105.230674">
  <ele>1595.61</ele>
  <time>2026-08-27T18:28:58Z</time>
  <course>357.26</course>
  <speed>0.29</speed>
  <fix>3d</fix>
</trkpt>
<trkpt lat="40.0728798" lon="-105.2306738">
  <ele>1595.68</ele>
  <time>2026-08-27T18:28:58Z</time>
  <course>8.63</course>
  <speed>0.24</speed>
  <fix>3d</fix>
</trkpt>
<trkpt lat="40.0728796" lon="-105.2306741">
  <ele>1595.61</ele>
  <time>2026-08-27T18:28:58Z</time>
  <course>356.24</course>
  <speed>0.27</speed>
  <fix>3d</fix>
</trkpt>
<trkpt lat="40.0728802" lon="-105.2306738">
  <ele>1595.68</ele>
  <time>2026-08-27T18:28:58Z</time>
  <course>8.65</course>
  <speed>0.22</speed>
  <fix>3d</fix>
</trkpt>
<trkpt lat="40.0728801" lon="-105.2306741">
  <ele>1595.61</ele>
  <time>2026-08-27T18:28:58Z</time>
  <course>355.88</course>
  <speed>0.26</speed>
  <fix>3d</fix>
</trkpt>
<trkpt lat="40.0728807" lon="-105.2306739">
  <ele>1595.68</ele>
  <time>2026-08-27T18:28:58Z</time>
  <course>8.64</course>
  <speed>0.21</speed>
  <fix>3d</fix>
</trkpt>
<trkpt lat="40.0728806" lon="-105.2306741">
  <ele>1595.61</ele>
  <time>2026-08-27T18:28:58Z</time>
  <course>355.86</course>
  <speed>0.24</speed>
  <fix>3d</fix>
</trkpt>
<trkpt lat="40.0728811" lon="-105.2306739">
  <ele>1595.68</ele>
  <time>2026-08-27T18:28:58Z</time>
  <course>8.62</course>
  <speed>0.19</speed>
  <fix>3d</fix>
</trkpt>
<trkpt lat="40.0728809" lon="-105.2306741">
  <ele>1595.61</ele>
  <time>2026-08-27T18:28:58Z</time>
  <course>356.06</course>
  <speed>0.22</speed>
  <fix>3d</fix>
</trkpt>
<trkpt lat="40.0728814" lon="-105.2306739">
  <ele>1595.68</ele>
  <time>2026-08-27T18:28:58Z</time>
  <course>8.63</course>
  <speed>0.18</speed>
  <fix>3d</fix>
</trkpt>
<trkpt lat="40.0728814" lon="-105.2306741">
  <ele>1595.6</ele>
  <time>2026-08-27T18:28:58Z</time>
  <course>356.22</course>
  <speed>0.21</speed>
  <fix>3d</fix>
</trkpt>
<trkpt lat="40.0728818" lon="-105.230674">
  <ele>1595.67</ele>
  <time>2026-08-27T18:28:58Z</time>
  <course>8.62</course>
  <speed>0.17</speed>
  <fix>3d</fix>
</trkpt>
<trkpt lat="40.0728818" lon="-105.2306742">
  <ele>1595.6</ele>
  <time>2026-08-27T18:28:58Z</time>
  <course>356.41</course>
  <speed>0.2</speed>
  <fix>3d</fix>
</trkpt>
<trkpt lat="40.0728822" lon="-105.230674">
  <ele>1595.67</ele>
  <time>2026-08-27T18:28:58Z</time>
  <course>8.61</course>
  <speed>0.16</speed>
  <fix>3d</fix>
</trkpt>
<trkpt lat="40.0728821" lon="-105.2306742">
  <ele>1595.6</ele>
  <time>2026-08-27T18:28:58Z</time>
  <course>356.59</course>
  <speed>0.19</speed>
  <fix>3d</fix>
</trkpt>
<trkpt lat="40.0728825" lon="-105.230674">
  <ele>1595.67</ele>
  <time>2026-08-27T18:28:58Z</time>
  <course>8.6</course>
  <speed>0.16</speed>
  <fix>3d</fix>
</trkpt>
<trkpt lat="40.0728825" lon="-105.2306742">
  <ele>1595.6</ele>
  <time>2026-08-27T18:28:58Z</time>
  <course>356.68</course>
  <speed>0.18</speed>
  <fix>3d</fix>
</trkpt>
<trkpt lat="40.0728828" lon="-105.2306741">
  <ele>1595.67</ele>
  <time>2026-08-27T18:28:58Z</time>
  <course>8.6</course>
  <speed>0.15</speed>
  <fix>3d</fix>
</trkpt>
<trkpt lat="40.0728828" lon="-105.2306742">
  <ele>1595.6</ele>
  <time>2026-08-27T18:28:58Z</time>
  <course>356.72</course>
  <speed>0.17</speed>
  <fix>3d</fix>
</trkpt>
<trkpt lat="40.0728831" lon="-105.2306741">
  <ele>1595.68</ele>
  <time>2026-08-27T18:28:58Z</time>
  <course>8.61</course>
  <speed>0.14</speed>
  <fix>3d</fix>
</trkpt>
<trkpt lat="40.0728831" lon="-105.2306742">
  <ele>1595.6</ele>
  <time>2026-08-27T18:28:58Z</time>
  <course>356.68</course>
  <speed>0.16</speed>
  <fix>3d</fix>
</trkpt>
<trkpt lat="40.0728834" lon="-105.2306741">
  <ele>1595.68</ele>
  <time>2026-08-27T18:28:58Z</time>
  <course>8.62</course>
  <speed>0.15</speed>
  <fix>3d</fix>
</trkpt>
<trkpt lat="40.0728834" lon="-105.2306742">
  <ele>1595.6</ele>
  <time>2026-08-27T18:28:58Z</time>
  <course>357.01</course>
  <speed>0.16</speed>
  <fix>3d</fix>
</trkpt>
<trkpt lat="40.0728837" lon="-105.2306741">
  <ele>1595.68</ele>
  <time>2026-08-27T18:28:58Z</time>
  <course>8.62</course>
  <speed>0.191049731745428</speed>
  <fix>3d</fix>
</trkpt>
<trkpt lat="40.0728837" lon="-105.2306742">
  <ele>1595.6</ele>
  <time>2026-08-27T18:28:58Z</time>
  <course>359.69</course>
  <speed>0.17</speed>
  <fix>3d</fix>
</trkpt>
<trkpt lat="40.0728842" lon="-105.230674">
  <ele>1595.68</ele>
  <time>2026-08-27T18:28:58Z</time>
  <course>8.6</course>
  <speed>0.26476404589747454</speed>
  <fix>3d</fix>
</trkpt>
<trkpt lat="40.072884" lon="-105.2306742">
  <ele>1595.6</ele>
  <time>2026-08-27T18:28:58Z</time>
  <course>4.34</course>
  <speed>0.22</speed>
  <fix>3d</fix>
</trkpt>
<trkpt lat="40.0728848" lon="-105.230674">
  <ele>1595.68</ele>
  <time>2026-08-27T18:28:58Z</time>
  <course>8.59</course>
  <speed>0.378549864614954</speed>
  <fix>3d</fix>
</trkpt>
<trkpt lat="40.0728845" lon="-105.2306742">
  <ele>1595.59</ele>
  <time>2026-08-27T18:28:58Z</time>
  <course>7.93</course>
  <speed>0.31</speed>
  <fix>3d</fix>
</trkpt>
<trkpt lat="40.0728856" lon="-105.2306738">
  <ele>1595.68</ele>
  <time>2026-08-27T18:28:58Z</time>
  <course>8.56</course>
  <speed>0.4903060268852505</speed>
  <fix>3d</fix>
</trkpt>
<trkpt lat="40.0728852" lon="-105.2306742">
  <ele>1595.59</ele>
  <time>2026-08-27T18:28:58Z</time>
  <course>9.57</course>
  <speed>0.41</speed>
  <fix>3d</fix>
</trkpt>
<trkpt lat="40.0728865" lon="-105.2306736">
  <ele>1595.67</ele>
  <time>2026-08-27T18:28:58Z</time>
  <course>8.55</course>
  <speed>0.5922837157984339</speed>
  <fix>3d</fix>
</trkpt>
<trkpt lat="40.072886" lon="-105.2306739">
  <ele>1595.59</ele>
  <time>2026-08-27T18:28:58Z</time>
  <course>9.76</course>
  <speed>0.53</speed>
  <fix>3d</fix>
</trkpt>
<trkpt lat="40.0728877" lon="-105.2306733">
  <ele>1595.67</ele>
  <time>2026-08-27T18:28:58Z</time>
  <course>8.52</course>
  <speed>0.6708203932499369</speed>
  <fix>3d</fix>
</trkpt>
<trkpt lat="40.072887" lon="-105.2306738">
  <ele>1595.58</ele>
  <time>2026-08-27T18:28:58Z</time>
  <course>9.06</course>
  <speed>0.63</speed>
  <fix>3d</fix>
</trkpt>
<trkpt lat="40.0728889" lon="-105.2306731">
  <ele>1595.66</ele>
  <time>2026-08-27T18:28:58Z</time>
  <course>8.52</course>
  <speed>0.7071067811865476</speed>
  <fix>3d</fix>
</trkpt>
<trkpt lat="40.0728882" lon="-105.2306735">
  <ele>1595.58</ele>
  <time>2026-08-27T18:28:58Z</time>
  <course>7.78</course>
  <speed>0.69</speed>
  <fix>3d</fix>
</trkpt>
<trkpt lat="40.0728902" lon="-105.230673">
  <ele>1595.65</ele>
  <time>2026-08-27T18:28:58Z</time>
  <course>8.53</course>
  <speed>0.6835934464285041</speed>
  <fix>3d</fix>
</trkpt>
<trkpt lat="40.0728895" lon="-105.2306733">
  <ele>1595.58</ele>
  <time>2026-08-27T18:28:58Z</time>
  <course>6.01</course>
  <speed>0.72</speed>
  <fix>3d</fix>
</trkpt>
<trkpt lat="40.0728914" lon="-105.2306729">
  <ele>1595.65</ele>
  <time>2026-08-27T18:28:58Z</time>
  <course>8.54</course>
  <speed>0.6003332407921453</speed>
  <fix>3d</fix>
</trkpt>
<trkpt lat="40.0728907" lon="-105.2306731">
  <ele>1595.58</ele>
  <time>2026-08-27T18:28:58Z</time>
  <course>3.67</course>
  <speed>0.68</speed>
  <fix>3d</fix>
</trkpt>
<trkpt lat="40.0728924" lon="-105.230673">
  <ele>1595.65</ele>
  <time>2026-08-27T18:28:58Z</time>
  <course>8.55</course>
  <speed>0.470425339453563</speed>
  <fix>3d</fix>
</trkpt>
<trkpt lat="40.0728919" lon="-105.230673">
  <ele>1595.59</ele>
  <time>2026-08-27T18:28:58Z</time>
  <course>0.35</course>
  <speed>0.59</speed>
  <fix>3d</fix>
</trkpt>
<trkpt lat="40.0728931" lon="-105.2306731">
  <ele>1595.66</ele>
  <time>2026-08-27T18:28:59Z</time>
  <course>8.57</course>
  <speed>0.28861739379323625</speed>
  <fix>3d</fix>
</trkpt>
<trkpt lat="40.0728929" lon="-105.230673">
  <ele>1595.59</ele>
  <time>2026-08-27T18:28:59Z</time>
  <course>354.88</course>
  <speed>0.44</speed>
  <fix>3d</fix>
</trkpt>
<trkpt lat="40.0728935" lon="-105.2306732">
  <ele>1595.66</ele>
  <time>2026-08-27T18:28:59Z</time>
  <course>8.57</course>
  <speed>0.12529964086141668</speed>
  <fix>3d</fix>
</trkpt>
<trkpt lat="40.0728935" lon="-105.2306731">
  <ele>1595.6</ele>
  <time>2026-08-27T18:28:59Z</time>
  <course>342.02</course>
  <speed>0.26</speed>
  <fix>3d</fix>
</trkpt>
<trkpt lat="40.0728935" lon="-105.2306735">
  <ele>1595.67</ele>
  <time>2026-08-27T18:28:59Z</time>
  <course>8.59</course>
  <speed>0.212602916254693</speed>
  <fix>3d</fix>
</trkpt>
<trkpt lat="40.0728937" lon="-105.2306734">
  <ele>1595.6</ele>
  <time>2026-08-27T18:28:59Z</time>
  <course>281.47</course>
  <speed>0.11</speed>
  <fix>3d</fix>
</trkpt>
<trkpt lat="40.0728931" lon="-105.2306739">
  <ele>1595.68</ele>
  <time>2026-08-27T18:28:59Z</time>
  <course>8.57</course>
  <speed>0.4215447781671598</speed>
  <fix>3d</fix>
</trkpt>
<trkpt lat="40.0728936" lon="-105.2306737">
  <ele>1595.61</ele>
  <time>2026-08-27T18:28:59Z</time>
  <course>212.53</course>
  <speed>0.25</speed>
  <fix>3d</fix>
</trkpt>
<trkpt lat="40.0728922" lon="-105.2306742">
  <ele>1595.68</ele>
  <time>2026-08-27T18:28:59Z</time>
  <course>8.51</course>
  <speed>0.5990826320300063</speed>
  <fix>3d</fix>
</trkpt>
<trkpt lat="40.072893" lon="-105.230674">
  <ele>1595.61</ele>
  <time>2026-08-27T18:28:59Z</time>
  <course>198.0</course>
  <speed>0.45</speed>
  <fix>3d</fix>
</trkpt>
<trkpt lat="40.0728911" lon="-105.2306746">
  <ele>1595.68</ele>
  <time>2026-08-27T18:28:59Z</time>
  <course>8.48</course>
  <speed>0.7414849964766651</speed>
  <fix>3d</fix>
</trkpt>
<trkpt lat="40.0728921" lon="-105.2306744">
  <ele>1595.61</ele>
  <time>2026-08-27T18:28:59Z</time>
  <course>191.85</course>
  <speed>0.63</speed>
  <fix>3d</fix>
</trkpt>
<trkpt lat="40.0728898" lon="-105.2306748">
  <ele>1595.69</ele>
  <time>2026-08-27T18:28:59Z</time>
  <course>8.47</course>
  <speed>0.8249242389456137</speed>
  <fix>3d</fix>
</trkpt>
<trkpt lat="40.0728909" lon="-105.2306747">
  <ele>1595.6</ele>
  <time>2026-08-27T18:28:59Z</time>
  <course>187.84</course>
  <speed>0.76</speed>
  <fix>3d</fix>
</trkpt>
<trkpt lat="40.0728883" lon="-105.230675">
  <ele>1595.69</ele>
  <time>2026-08-27T18:28:59Z</time>
  <course>8.5</course>
  <speed>0.8309632964216891</speed>
  <fix>3d</fix>
</trkpt>
<trkpt lat="40.0728894" lon="-105.2306749">
  <ele>1595.6</ele>
  <time>2026-08-27T18:28:59Z</time>
  <course>184.5</course>
  <speed>0.83</speed>
  <fix>3d</fix>
</trkpt>
<trkpt lat="40.0728869" lon="-105.230675">
  <ele>1595.68</ele>
  <time>2026-08-27T18:28:59Z</time>
  <course>8.53</course>
  <speed>0.76</speed>
  <fix>3d</fix>
</trkpt>
<trkpt lat="40.0728879" lon="-105.2306749">
  <ele>1595.6</ele>
  <time>2026-08-27T18:28:59Z</time>
  <course>181.18</course>
  <speed>0.82</speed>
  <fix>3d</fix>
</trkpt>
<trkpt lat="40.0728857" lon="-105.2306749">
  <ele>1595.68</ele>
  <time>2026-08-27T18:28:59Z</time>
  <course>8.57</course>
  <speed>0.6228964600958975</speed>
  <fix>3d</fix>
</trkpt>
<trkpt lat="40.0728865" lon="-105.2306749">
  <ele>1595.6</ele>
  <time>2026-08-27T18:28:59Z</time>
  <course>177.27</course>
  <speed>0.74</speed>
  <fix>3d</fix>
</trkpt>
<trkpt lat="40.0728847" lon="-105.2306747">
  <ele>1595.68</ele>
  <time>2026-08-27T18:28:59Z</time>
  <course>8.6</course>
  <speed>0.4464302857109943</speed>
  <fix>3d</fix>
</trkpt>
<trkpt lat="40.0728853" lon="-105.2306749">
  <ele>1595.6</ele>
  <time>2026-08-27T18:28:59Z</time>
  <course>171.77</course>
  <speed>0.59</speed>
  <fix>3d</fix>
</trkpt>
<trkpt lat="40.0728841" lon="-105.2306744">
  <ele>1595.68</ele>
  <time>2026-08-27T18:28:59Z</time>
  <course>8.59</course>
  <speed>0.24839484696748443</speed>
  <fix>3d</fix>
</trkpt>
<trkpt lat="40.0728844" lon="-105.2306746">
  <ele>1595.6</ele>
  <time>2026-08-27T18:28:59Z</time>
  <course>161.74</course>
  <speed>0.4</speed>
  <fix>3d</fix>
</trkpt>
<trkpt lat="40.072884" lon="-105.230674">
  <ele>1595.68</ele>
  <time>2026-08-27T18:28:59Z</time>
  <course>8.57</course>
  <speed>0.18681541692269404</speed>
  <fix>3d</fix>
</trkpt>
<trkpt lat="40.0728839" lon="-105.2306743">
  <ele>1595.6</ele>
  <time>2026-08-27T18:28:59Z</time>
  <course>132.8</course>
  <speed>0.21</speed>
  <fix>3d</fix>
</trkpt>
<trkpt lat="40.0728842" lon="-105.2306735">
  <ele>1595.68</ele>
  <time>2026-08-27T18:28:59Z</time>
  <course>8.54</course>
  <speed>0.35510561809129404</speed>
  <fix>3d</fix>
</trkpt>
<trkpt lat="40.0728838" lon="-105.2306739">
  <ele>1595.6</ele>
  <time>2026-08-27T18:28:59Z</time>
  <course>57.04</course>
  <speed>0.2</speed>
  <fix>3d</fix>
</trkpt>
<trkpt lat="40.0728849" lon="-105.2306731">
  <ele>1595.67</ele>
  <time>2026-08-27T18:28:59Z</time>
  <course>8.49</course>
  <speed>0.5470831746635972</speed>
  <fix>3d</fix>
</trkpt>
<trkpt lat="40.0728843" lon="-105.2306735">
  <ele>1595.59</ele>
  <time>2026-08-27T18:28:59Z</time>
  <course>24.78</course>
  <speed>0.38</speed>
  <fix>3d</fix>
</trkpt>
<trkpt lat="40.0728859" lon="-105.2306728">
  <ele>1595.67</ele>
  <time>2026-08-27T18:28:59Z</time>
  <course>8.44</course>
  <speed>0.6942621983083913</speed>
  <fix>3d</fix>
</trkpt>
<trkpt lat="40.072885" lon="-105.2306732">
  <ele>1595.59</ele>
  <time>2026-08-27T18:28:59Z</time>
  <course>13.85</course>
  <speed>0.57</speed>
  <fix>3d</fix>
</trkpt>
<trkpt lat="40.0728872" lon="-105.2306726">
  <ele>1595.68</ele>
  <time>2026-08-27T18:28:59Z</time>
  <course>8.43</course>
  <speed>0.785175139698144</speed>
  <fix>3d</fix>
</trkpt>
<trkpt lat="40.0728862" lon="-105.2306729">
  <ele>1595.59</ele>
  <time>2026-08-27T18:28:59Z</time>
  <course>7.82</course>
  <speed>0.72</speed>
  <fix>3d</fix>
</trkpt>
<trkpt lat="40.0728886" lon="-105.2306725">
  <ele>1595.68</ele>
  <time>2026-08-27T18:28:59Z</time>
  <course>8.46</course>
  <speed>0.8005623023850174</speed>
  <fix>3d</fix>
</trkpt>
<trkpt lat="40.0728876" lon="-105.2306727">
  <ele>1595.59</ele>
  <time>2026-08-27T18:28:59Z</time>
  <course>3.28</course>
  <speed>0.79</speed>
  <fix>3d</fix>
</trkpt>
<trkpt lat="40.07289" lon="-105.2306726">
  <ele>1595.69</ele>
  <time>2026-08-27T18:28:59Z</time>
  <course>8.54</course>
  <speed>0.740607858451421</speed>
  <fix>3d</fix>
</trkpt>
<trkpt lat="40.072889" lon="-105.2306727">
  <ele>1595.59</ele>
  <time>2026-08-27T18:28:59Z</time>
  <course>359.05</course>
  <speed>0.79</speed>
  <fix>3d</fix>
</trkpt>
<trkpt lat="40.0728912" lon="-105.2306727">
  <ele>1595.69</ele>
  <time>2026-08-27T18:28:59Z</time>
  <course>8.58</course>
  <speed>0.6166036003787199</speed>
  <fix>3d</fix>
</trkpt>
<trkpt lat="40.0728904" lon="-105.2306727">
  <ele>1595.59</ele>
  <time>2026-08-27T18:28:59Z</time>
  <course>354.26</course>
  <speed>0.72</speed>
  <fix>3d</fix>
</trkpt>
<trkpt lat="40.0728921" lon="-105.230673">
  <ele>1595.69</ele>
  <time>2026-08-27T18:28:59Z</time>
  <course>8.64</course>
  <speed>0.4459820624195552</speed>
  <fix>3d</fix>
</trkpt>
<trkpt lat="40.0728916" lon="-105.2306729">
  <ele>1595.59</ele>
  <time>2026-08-27T18:28:59Z</time>
  <course>347.6</course>
  <speed>0.59</speed>
  <fix>3d</fix>
</trkpt>
<trkpt lat="40.0728927" lon="-105.2306734">
  <ele>1595.68</ele>
  <time>2026-08-27T18:28:59Z</time>
  <course>8.71</course>
  <speed>0.261725046566048</speed>
  <fix>3d</fix>
</trkpt>
<trkpt lat="40.0728924" lon="-105.2306732">
  <ele>1595.59</ele>
  <time>2026-08-27T18:28:59Z</time>
  <course>335.47</course>
  <speed>0.41</speed>
  <fix>3d</fix>
</trkpt>
<trkpt lat="40.0728929" lon="-105.2306739">
  <ele>1595.68</ele>
  <time>2026-08-27T18:28:59Z</time>
  <course>8.69</course>
  <speed>0.22135943621178655</speed>
  <fix>3d</fix>
</trkpt>
<trkpt lat="40.0728929" lon="-105.2306737">
  <ele>1595.59</ele>
  <time>2026-08-27T18:28:59Z</time>
  <course>303.54</course>
  <speed>0.23</speed>
  <fix>3d</fix>
</trkpt>
<trkpt lat="40.0728926" lon="-105.2306745">
  <ele>1595.67</ele>
  <time>2026-08-27T18:28:59Z</time>
  <course>8.59</course>
  <speed>0.3827531841800928</speed>
  <fix>3d</fix>
</trkpt>
<trkpt lat="40.0728929" lon="-105.2306742">
  <ele>1595.58</ele>
  <time>2026-08-27T18:28:59Z</time>
  <course>239.1</course>
  <speed>0.24</speed>
  <fix>3d</fix>
</trkpt>
<trkpt lat="40.0728919" lon="-105.2306749">
  <ele>1595.67</ele>
  <time>2026-08-27T18:28:59Z</time>
  <course>8.53</course>
  <speed>0.5758472019555188</speed>
  <fix>3d</fix>
</trkpt>
<trkpt lat="40.0728924" lon="-105.2306747">
  <ele>1595.58</ele>
  <time>2026-08-27T18:28:59Z</time>
  <course>208.44</course>
  <speed>0.42</speed>
  <fix>3d</fix>
</trkpt>
<trkpt lat="40.0728908" lon="-105.2306754">
  <ele>1595.67</ele>
  <time>2026-08-27T18:28:59Z</time>
  <course>8.46</course>
  <speed>0.7278049189171505</speed>
  <fix>3d</fix>
</trkpt>
<trkpt lat="40.0728917" lon="-105.2306751">
  <ele>1595.57</ele>
  <time>2026-08-27T18:28:59Z</time>
  <course>196.7</course>
  <speed>0.6</speed>
  <fix>3d</fix>
</trkpt>
<trkpt lat="40.0728894" lon="-105.2306757">
  <ele>1595.67</ele>
  <time>2026-08-27T18:28:59Z</time>
  <course>8.44</course>
  <speed>0.8174350127074322</speed>
  <fix>3d</fix>
</trkpt>
<trkpt lat="40.0728905" lon="-105.2306755">
  <ele>1595.57</ele>
  <time>2026-08-27T18:28:59Z</time>
  <course>190.11</course>
  <speed>0.75</speed>
  <fix>3d</fix>
</trkpt>
<trkpt lat="40.072888" lon="-105.2306758">
  <ele>1595.68</ele>
  <time>2026-08-27T18:28:59Z</time>
  <course>8.46</course>
  <speed>0.8309632964216891</speed>
  <fix>3d</fix>
</trkpt>
<trkpt lat="40.0728891" lon="-105.2306757">
  <ele>1595.57</ele>
  <time>2026-08-27T18:28:59Z</time>
  <course>185.28</course>
  <speed>0.82</speed>
  <fix>3d</fix>
</trkpt>
<trkpt lat="40.0728866" lon="-105.2306758">
  <ele>1595.68</ele>
  <time>2026-08-27T18:28:59Z</time>
  <course>8.51</course>
  <speed>0.7702596964660685</speed>
  <fix>3d</fix>
</trkpt>
<trkpt lat="40.0728876" lon="-105.2306758">
  <ele>1595.57</ele>
  <time>2026-08-27T18:28:59Z</time>
  <course>180.92</course>
  <speed>0.83</speed>
  <fix>3d</fix>
</trkpt>
<trkpt lat="40.0728853" lon="-105.2306757">
  <ele>1595.68</ele>
  <time>2026-08-27T18:28:59Z</time>
  <course>8.56</course>
  <speed>0.6449806198638839</speed>
  <fix>3d</fix>
</trkpt>
<trkpt lat="40.0728862" lon="-105.2306759">
  <ele>1595.57</ele>
  <time>2026-08-27T18:28:59Z</time>
  <course>176.18</course>
  <speed>0.75</speed>
  <fix>3d</fix>
</trkpt>
<trkpt lat="40.0728843" lon="-105.2306755">
  <ele>1595.68</ele>
  <time>2026-08-27T18:28:59Z</time>
  <course>8.59</course>
  <speed>0.4712748667179272</speed>
  <fix>3d</fix>
</trkpt>
<trkpt lat="40.0728849" lon="-105.2306757">
  <ele>1595.57</ele>
  <time>2026-08-27T18:28:59Z</time>
  <course>169.86</course>
  <speed>0.62</speed>
  <fix>3d</fix>
</trkpt>
<trkpt lat="40.0728837" lon="-105.2306751">
  <ele>1595.68</ele>
  <time>2026-08-27T18:28:59Z</time>
  <course>8.59</course>
  <speed>0.2765863337187866</speed>
  <fix>3d</fix>
</trkpt>
<trkpt lat="40.072884" lon="-105.2306754">
  <ele>1595.57</ele>
  <time>2026-08-27T18:28:59Z</time>
  <course>158.96</course>
  <speed>0.43</speed>
  <fix>3d</fix>
</trkpt>
<trkpt lat="40.0728835" lon="-105.2306746">
  <ele>1595.67</ele>
  <time>2026-08-27T18:28:59Z</time>
  <course>8.57</course>
  <speed>0.21213203435596426</speed>
  <fix>3d</fix>
</trkpt>
<trkpt lat="40.0728834" lon="-105.2306749">
  <ele>1595.57</ele>
  <time>2026-08-27T18:28:59Z</time>
  <course>131.42</course>
  <speed>0.25</speed>
  <fix>3d</fix>
</trkpt>
<trkpt lat="40.0728837" lon="-105.2306741">
  <ele>1595.67</ele>
  <time>2026-08-27T18:28:59Z</time>
  <course>8.54</course>
  <speed>0.35</speed>
  <fix>3d</fix>
</trkpt>
<trkpt lat="40.0728833" lon="-105.2306745">
  <ele>1595.57</ele>
  <time>2026-08-27T18:28:59Z</time>
  <course>65.83</course>
  <speed>0.22</speed>
  <fix>3d</fix>
</trkpt>
<trkpt lat="40.0728843" lon="-105.2306737">
  <ele>1595.66</ele>
  <time>2026-08-27T18:28:59Z</time>
  <course>8.47</course>
  <speed>0.5442425929675111</speed>
  <fix>3d</fix>
</trkpt>
<trkpt lat="40.0728837" lon="-105.230674">
  <ele>1595.57</ele>
  <time>2026-08-27T18:28:59Z</time>
  <course>29.84</course>
  <speed>0.38</speed>
  <fix>3d</fix>
</trkpt>
<trkpt lat="40.0728854" lon="-105.2306733">
  <ele>1595.66</ele>
  <time>2026-08-27T18:28:59Z</time>
  <course>8.43</course>
  <speed>0.6865857557508748</speed>
  <fix>3d</fix>
</trkpt>
<trkpt lat="40.0728845" lon="-105.2306736">
  <ele>1595.56</ele>
  <time>2026-08-27T18:28:59Z</time>
  <course>16.76</course>
  <speed>0.57</speed>
  <fix>3d</fix>
</trkpt>
<trkpt lat="40.0728866" lon="-105.230673">
  <ele>1595.66</ele>
  <time>2026-08-27T18:28:59Z</time>
  <course>8.41</course>
  <speed>0.7863841300535</speed>
  <fix>3d</fix>
</trkpt>
<trkpt lat="40.0728856" lon="-105.2306733">
  <ele>1595.56</ele>
  <time>2026-08-27T18:28:59Z</time>
  <course>9.66</course>
  <speed>0.71</speed>
  <fix>3d</fix>
</trkpt>
<trkpt lat="40.072888" lon="-105.2306729">
  <ele>1595.65</ele>
  <time>2026-08-27T18:28:59Z</time>
  <course>8.41</course>
  <speed>0.8005623023850174</speed>
  <fix>3d</fix>
</trkpt>
<trkpt lat="40.0728869" lon="-105.230673">
  <ele>1595.56</ele>
  <time>2026-08-27T18:28:59Z</time>
  <course>4.52</course>
  <speed>0.79</speed>
  <fix>3d</fix>
</trkpt>
<trkpt lat="40.0728894" lon="-105.2306729">
  <ele>1595.66</ele>
  <time>2026-08-27T18:28:59Z</time>
  <course>8.46</course>
  <speed>0.740607858451421</speed>
  <fix>3d</fix>
</trkpt>
<trkpt lat="40.0728884" lon="-105.230673">
  <ele>1595.56</ele>
  <time>2026-08-27T18:28:59Z</time>
  <course>359.9</course>
  <speed>0.79</speed>
  <fix>3d</fix>
</trkpt>
<trkpt lat="40.0728906" lon="-105.230673">
  <ele>1595.67</ele>
  <time>2026-08-27T18:28:59Z</time>
  <course>8.53</course>
  <speed>0.6166036003787199</speed>
  <fix>3d</fix>
</trkpt>
<trkpt lat="40.0728898" lon="-105.230673">
  <ele>1595.57</ele>
  <time>2026-08-27T18:28:59Z</time>
  <course>354.83</course>
  <speed>0.72</speed>
  <fix>3d</fix>
</trkpt>
<trkpt lat="40.0728915" lon="-105.2306733">
  <ele>1595.67</ele>
  <time>2026-08-27T18:28:59Z</time>
  <course>8.6</course>
  <speed>0.4459820624195552</speed>
  <fix>3d</fix>
</trkpt>
<trkpt lat="40.072891" lon="-105.2306732">
  <ele>1595.57</ele>
  <time>2026-08-27T18:28:59Z</time>
  <course>347.94</course>
  <speed>0.58</speed>
  <fix>3d</fix>
</trkpt>
<trkpt lat="40.0728921" lon="-105.2306738">
  <ele>1595.68</ele>
  <time>2026-08-27T18:28:59Z</time>
  <course>8.62</course>
  <speed>0.261725046566048</speed>
  <fix>3d</fix>
</trkpt>
<trkpt lat="40.0728918" lon="-105.2306735">
  <ele>1595.58</ele>
  <time>2026-08-27T18:28:59Z</time>
  <course>335.59</course>
  <speed>0.4</speed>
  <fix>3d</fix>
</trkpt>
<trkpt lat="40.0728922" lon="-105.2306743">
  <ele>1595.68</ele>
  <time>2026-08-27T18:28:59Z</time>
  <course>8.63</course>
  <speed>0.21840329667841554</speed>
  <fix>3d</fix>
</trkpt>
<trkpt lat="40.0728923" lon="-105.2306739">
  <ele>1595.58</ele>
  <time>2026-08-27T18:28:59Z</time>
  <course>303.51</course>
  <speed>0.23</speed>
  <fix>3d</fix>
</trkpt>
<trkpt lat="40.072892" lon="-105.2306748">
  <ele>1595.68</ele>
  <time>2026-08-27T18:28:59Z</time>
  <course>8.64</course>
  <speed>0.38013155617496425</speed>
  <fix>3d</fix>
</trkpt>
<trkpt lat="40.0728923" lon="-105.2306744">
  <ele>1595.58</ele>
  <time>2026-08-27T18:28:59Z</time>
  <course>239.73</course>
  <speed>0.24</speed>
  <fix>3d</fix>
</trkpt>
<trkpt lat="40.0728913" lon="-105.2306752">
  <ele>1595.68</ele>
  <time>2026-08-27T18:28:59Z</time>
  <course>8.56</course>
  <speed>0.5664803615307419</speed>
  <fix>3d</fix>
</trkpt>
<trkpt lat="40.0728919" lon="-105.2306749">
  <ele>1595.58</ele>
  <time>2026-08-27T18:28:59Z</time>
  <course>208.82</course>
  <speed>0.42</speed>
  <fix>3d</fix>
</trkpt>
<trkpt lat="40.0728902" lon="-105.2306757">
  <ele>1595.68</ele>
  <time>2026-08-27T18:28:59Z</time>
  <course>8.52</course>
  <speed>0.7180529228406496</speed>
  <fix>3d</fix>
</trkpt>
<trkpt lat="40.0728911" lon="-105.2306754">
  <ele>1595.58</ele>
  <time>2026-08-27T18:28:59Z</time>
  <course>196.82</course>
  <speed>0.6</speed>
  <fix>3d</fix>
</trkpt>
<trkpt lat="40.0728888" lon="-105.230676">
  <ele>1595.68</ele>
  <time>2026-08-27T18:28:59Z</time>
  <course>8.49</course>
  <speed>0.8174350127074322</speed>
  <fix>3d</fix>
</trkpt>
<trkpt lat="40.0728899" lon="-105.2306758">
  <ele>1595.57</ele>
  <time>2026-08-27T18:28:59Z</time>
  <course>190.12</course>
  <speed>0.74</speed>
  <fix>3d</fix>
</trkpt>
<trkpt lat="40.0728874" lon="-105.2306761">
  <ele>1595.67</ele>
  <time>2026-08-27T18:28:59Z</time>
  <course>8.49</course>
  <speed>0.8309632964216891</speed>
  <fix>3d</fix>
</trkpt>
<trkpt lat="40.0728884" lon="-105.230676">
  <ele>1595.57</ele>
  <time>2026-08-27T18:28:59Z</time>
  <course>185.18</course>
  <speed>0.82</speed>
  <fix>3d</fix>
</trkpt>
<trkpt lat="40.0728859" lon="-105.2306761">
  <ele>1595.67</ele>
  <time>2026-08-27T18:28:59Z</time>
  <course>8.48</course>
  <speed>0.7702596964660685</speed>
  <fix>3d</fix>
</trkpt>
<trkpt lat="40.0728869" lon="-105.2306761">
  <ele>1595.57</ele>
  <time>2026-08-27T18:28:59Z</time>
  <course>180.73</course>
  <speed>0.82</speed>
  <fix>3d</fix>
</trkpt>
<trkpt lat="40.0728847" lon="-105.230676">
  <ele>1595.66</ele>
  <time>2026-08-27T18:28:59Z</time>
  <course>8.49</course>
  <speed>0.6449806198638839</speed>
  <fix>3d</fix>
</trkpt>
<trkpt lat="40.0728855" lon="-105.2306761">
  <ele>1595.57</ele>
  <time>2026-08-27T18:28:59Z</time>
  <course>175.87</course>
  <speed>0.75</speed>
  <fix>3d</fix>
</trkpt>
<trkpt lat="40.0728837" lon="-105.2306758">
  <ele>1595.66</ele>
  <time>2026-08-27T18:28:59Z</time>
  <course>8.55</course>
  <speed>0.4712748667179272</speed>
  <fix>3d</fix>
</trkpt>
<trkpt lat="40.0728843" lon="-105.2306759">
  <ele>1595.57</ele>
  <time>2026-08-27T18:28:59Z</time>
  <course>169.42</course>
  <speed>0.62</speed>
  <fix>3d</fix>
</trkpt>
<trkpt lat="40.072883" lon="-105.2306753">
  <ele>1595.67</ele>
  <time>2026-08-27T18:28:59Z</time>
  <course>8.57</course>
  <speed>0.2831960451701259</speed>
  <fix>3d</fix>
</trkpt>
<trkpt lat="40.0728833" lon="-105.2306756">
  <ele>1595.57</ele>
  <time>2026-08-27T18:28:59Z</time>
  <course>158.29</course>
  <speed>0.44</speed>
  <fix>3d</fix>
</trkpt>
<trkpt lat="40.0728828" lon="-105.2306749">
  <ele>1595.67</ele>
  <time>2026-08-27T18:28:59Z</time>
  <course>8.56</course>
  <speed>0.21213203435596426</speed>
  <fix>3d</fix>
</trkpt>
<trkpt lat="40.0728828" lon="-105.2306752">
  <ele>1595.58</ele>
  <time>2026-08-27T18:28:59Z</time>
  <course>130.65</course>
  <speed>0.25</speed>
  <fix>3d</fix>
</trkpt>
<trkpt lat="40.072883" lon="-105.2306744">
  <ele>1595.66</ele>
  <time>2026-08-27T18:28:59Z</time>
  <course>8.57</course>
  <speed>0.35</speed>
  <fix>3d</fix>
</trkpt>
<trkpt lat="40.0728828" lon="-105.2306747">
  <ele>1595.58</ele>
  <time>2026-08-27T18:28:59Z</time>
  <course>67.04</course>
  <speed>0.22</speed>
  <fix>3d</fix>
</trkpt>
<trkpt lat="40.0728837" lon="-105.2306739">
  <ele>1595.66</ele>
  <time>2026-08-27T18:28:59Z</time>
  <course>8.52</course>
  <speed>0.5348831648126533</speed>
  <fix>3d</fix>
</trkpt>
<trkpt lat="40.0728831" lon="-105.2306742">
  <ele>1595.58</ele>
  <time>2026-08-27T18:28:59Z</time>
  <course>30.9</course>
  <speed>0.38</speed>
  <fix>3d</fix>
</trkpt>
<trkpt lat="40.0728847" lon="-105.2306735">
  <ele>1595.66</ele>
  <time>2026-08-27T18:28:59Z</time>
  <course>8.46</course>
  <speed>0.6865857557508748</speed>
  <fix>3d</fix>
</trkpt>
<trkpt lat="40.0728838" lon="-105.2306737">
  <ele>1595.58</ele>
  <time>2026-08-27T18:28:59Z</time>
  <course>17.48</course>
  <speed>0.57</speed>
  <fix>3d</fix>
</trkpt>
<trkpt lat="40.072886" lon="-105.2306732">
  <ele>1595.66</ele>
  <time>2026-08-27T18:28:59Z</time>
  <course>8.43</course>
  <speed>0.7764663547121665</speed>
  <fix>3d</fix>
</trkpt>
<trkpt lat="40.072885" lon="-105.2306734">
  <ele>1595.58</ele>
  <time>2026-08-27T18:28:59Z</time>
  <course>10.23</course>
  <speed>0.71</speed>
  <fix>3d</fix>
</trkpt>
<trkpt lat="40.0728874" lon="-105.230673">
  <ele>1595.66</ele>
  <time>2026-08-27T18:28:59Z</time>
  <course>8.43</course>
  <speed>0.8005623023850174</speed>
  <fix>3d</fix>
</trkpt>
<trkpt lat="40.0728864" lon="-105.2306732">
  <ele>1595.58</ele>
  <time>2026-08-27T18:28:59Z</time>
  <course>5.01</course>
  <speed>0.78</speed>
  <fix>3d</fix>
</trkpt>
<trkpt lat="40.0728887" lon="-105.2306731">
  <ele>1595.66</ele>
  <time>2026-08-27T18:28:59Z</time>
  <course>8.5</course>
  <speed>0.740607858451421</speed>
  <fix>3d</fix>
</trkpt>
<trkpt lat="40.0728877" lon="-105.2306732">
  <ele>1595.58</ele>
  <time>2026-08-27T18:28:59Z</time>
  <course>0.35</course>
  <speed>0.79</speed>
  <fix>3d</fix>
</trkpt>
<trkpt lat="40.0728899" lon="-105.2306731">
  <ele>1595.67</ele>
  <time>2026-08-27T18:28:59Z</time>
  <course>8.56</course>
  <speed>0.6166036003787199</speed>
  <fix>3d</fix>
</trkpt>
<trkpt lat="40.0728891" lon="-105.2306732">
  <ele>1595.58</ele>
  <time>2026-08-27T18:28:59Z</time>
  <course>355.26</course>
  <speed>0.72</speed>
  <fix>3d</fix>
</trkpt>
<trkpt lat="40.0728909" lon="-105.2306735">
  <ele>1595.68</ele>
  <time>2026-08-27T18:28:59Z</time>
  <course>8.61</course>
  <speed>0.4459820624195552</speed>
  <fix>3d</fix>
</trkpt>
<trkpt lat="40.0728903" lon="-105.2306733">
  <ele>1595.59</ele>
  <time>2026-08-27T18:28:59Z</time>
  <course>348.38</course>
  <speed>0.58</speed>
  <fix>3d</fix>
</trkpt>
<trkpt lat="40.0728914" lon="-105.2306739">
  <ele>1595.69</ele>
  <time>2026-08-27T18:28:59Z</time>
  <course>8.63</course>
  <speed>0.261725046566048</speed>
  <fix>3d</fix>
</trkpt>
<trkpt lat="40.0728912" lon="-105.2306737">
  <ele>1595.59</ele>
  <time>2026-08-27T18:28:59Z</time>
  <course>336.01</course>
  <speed>0.4</speed>
  <fix>3d</fix>
</trkpt>
<trkpt lat="40.0728915" lon="-105.2306744">
  <ele>1595.68</ele>
  <time>2026-08-27T18:28:59Z</time>
  <course>8.65</course>
  <speed>0.21840329667841554</speed>
  <fix>3d</fix>
</trkpt>
<trkpt lat="40.0728916" lon="-105.230674">
  <ele>1595.6</ele>
  <time>2026-08-27T18:28:59Z</time>
  <course>303.36</course>
  <speed>0.23</speed>
  <fix>3d</fix>
</trkpt>
<trkpt lat="40.0728913" lon="-105.2306749">
  <ele>1595.68</ele>
  <time>2026-08-27T18:28:59Z</time>
  <course>8.64</course>
  <speed>0.38013155617496425</speed>
  <fix>3d</fix>
</trkpt>
<trkpt lat="40.0728916" lon="-105.2306745">
  <ele>1595.59</ele>
  <time>2026-08-27T18:28:59Z</time>
  <course>238.5</course>
  <speed>0.24</speed>
  <fix>3d</fix>
</trkpt>
<trkpt lat="40.0728906" lon="-105.2306754">
  <ele>1595.67</ele>
  <time>2026-08-27T18:28:59Z</time>
  <course>8.55</course>
  <speed>0.5758472019555188</speed>
  <fix>3d</fix>
</trkpt>
<trkpt lat="40.0728912" lon="-105.230675">
  <ele>1595.59</ele>
  <time>2026-08-27T18:28:59Z</time>
  <course>208.07</course>
  <speed>0.42</speed>
  <fix>3d</fix>
</trkpt>
<trkpt lat="40.0728895" lon="-105.2306758">
  <ele>1595.67</ele>
  <time>2026-08-27T18:28:59Z</time>
  <course>8.51</course>
  <speed>0.7278049189171505</speed>
  <fix>3d</fix>
</trkpt>
<trkpt lat="40.0728904" lon="-105.2306754">
  <ele>1595.59</ele>
  <time>2026-08-27T18:28:59Z</time>
  <course>196.35</course>
  <speed>0.61</speed>
  <fix>3d</fix>
</trkpt>
<trkpt lat="40.0728881" lon="-105.230676">
  <ele>1595.66</ele>
  <time>2026-08-27T18:28:59Z</time>
  <course>8.49</course>
  <speed>0.8174350127074322</speed>
  <fix>3d</fix>
</trkpt>
<trkpt lat="40.0728892" lon="-105.2306758">
  <ele>1595.58</ele>
  <time>2026-08-27T18:28:59Z</time>
  <course>189.79</course>
  <speed>0.75</speed>
  <fix>3d</fix>
</trkpt>
<trkpt lat="40.0728867" lon="-105.2306762">
  <ele>1595.66</ele>
  <time>2026-08-27T18:28:59Z</time>
  <course>8.47</course>
  <speed>0.8309632964216891</speed>
  <fix>3d</fix>
</trkpt>
<trkpt lat="40.0728877" lon="-105.230676">
  <ele>1595.58</ele>
  <time>2026-08-27T18:28:59Z</time>
  <course>184.93</course>
  <speed>0.83</speed>
  <fix>3d</fix>
</trkpt>
<trkpt lat="40.0728852" lon="-105.2306762">
  <ele>1595.66</ele>
  <time>2026-08-27T18:28:59Z</time>
  <course>8.48</course>
  <speed>0.7702596964660685</speed>
  <fix>3d</fix>
</trkpt>
<trkpt lat="40.0728862" lon="-105.2306761">
  <ele>1595.58</ele>
  <time>2026-08-27T18:28:59Z</time>
  <course>180.51</course>
  <speed>0.83</speed>
  <fix>3d</fix>
</trkpt>
<trkpt lat="40.072884" lon="-105.2306761">
  <ele>1595.67</ele>
  <time>2026-08-27T18:28:59Z</time>
  <course>8.48</course>
  <speed>0.6449806198638839</speed>
  <fix>3d</fix>
</trkpt>
<trkpt lat="40.0728848" lon="-105.2306761">
  <ele>1595.59</ele>
  <time>2026-08-27T18:28:59Z</time>
  <course>175.69</course>
  <speed>0.76</speed>
  <fix>3d</fix>
</trkpt>
<trkpt lat="40.072883" lon="-105.2306758">
  <ele>1595.67</ele>
  <time>2026-08-27T18:28:59Z</time>
  <course>8.54</course>
  <speed>0.4712748667179272</speed>
  <fix>3d</fix>
</trkpt>
<trkpt lat="40.0728835" lon="-105.230676">
  <ele>1595.59</ele>
  <time>2026-08-27T18:28:59Z</time>
  <course>169.29</course>
  <speed>0.62</speed>
  <fix>3d</fix>
</trkpt>
<trkpt lat="40.0728823" lon="-105.2306754">
  <ele>1595.67</ele>
  <time>2026-08-27T18:28:59Z</time>
  <course>8.58</course>
  <speed>0.2906888370749727</speed>
  <fix>3d</fix>
</trkpt>
<trkpt lat="40.0728826" lon="-105.2306756">
  <ele>1595.6</ele>
  <time>2026-08-27T18:28:59Z</time>
  <course>158.32</course>
  <speed>0.44</speed>
  <fix>3d</fix>
</trkpt>
<trkpt lat="40.0728821" lon="-105.2306749">
  <ele>1595.66</ele>
  <time>2026-08-27T18:28:59Z</time>
  <course>8.58</course>
  <speed>0.21213203435596426</speed>
  <fix>3d</fix>
</trkpt>
<trkpt lat="40.0728821" lon="-105.2306752">
  <ele>1595.6</ele>
  <time>2026-08-27T18:28:59Z</time>
  <course>131.5</course>
  <speed>0.26</speed>
  <fix>3d</fix>
</trkpt>
<trkpt lat="40.0728823" lon="-105.2306744">
  <ele>1595.66</ele>
  <time>2026-08-27T18:28:59Z</time>
  <course>8.57</course>
  <speed>0.35</speed>
  <fix>3d</fix>
</trkpt>
<trkpt lat="40.072882" lon="-105.2306747">
  <ele>1595.6</ele>
  <time>2026-08-27T18:28:59Z</time>
  <course>69.04</course>
  <speed>0.22</speed>
  <fix>3d</fix>
</trkpt>
<trkpt lat="40.0728829" lon="-105.2306739">
  <ele>1595.66</ele>
  <time>2026-08-27T18:28:59Z</time>
  <course>8.49</course>
  <speed>0.5348831648126533</speed>
  <fix>3d</fix>
</trkpt>
<trkpt lat="40.0728823" lon="-105.2306742">
  <ele>1595.6</ele>
  <time>2026-08-27T18:28:59Z</time>
  <course>31.93</course>
  <speed>0.38</speed>
  <fix>3d</fix>
</trkpt>
<trkpt lat="40.072884" lon="-105.2306735">
  <ele>1595.66</ele>
  <time>2026-08-27T18:28:59Z</time>
  <course>8.45</course>
  <speed>0.688839603971781</speed>
  <fix>3d</fix>
</trkpt>
<trkpt lat="40.0728831" lon="-105.2306737">
  <ele>1595.6</ele>
  <time>2026-08-27T18:28:59Z</time>
  <course>18.11</course>
  <speed>0.56</speed>
  <fix>3d</fix>
</trkpt>
<trkpt lat="40.0728852" lon="-105.2306732">
  <ele>1595.66</ele>
  <time>2026-08-27T18:28:59Z</time>
  <course>8.44</course>
  <speed>0.7764663547121665</speed>
  <fix>3d</fix>
</trkpt>
<trkpt lat="40.0728842" lon="-105.2306734">
  <ele>1595.6</ele>
  <time>2026-08-27T18:28:59Z</time>
  <course>10.7</course>
  <speed>0.7</speed>
  <fix>3d</fix>
</trkpt>
<trkpt lat="40.0728866" lon="-105.230673">
  <ele>1595.66</ele>
  <time>2026-08-27T18:28:59Z</time>
  <course>8.45</course>
  <speed>0.8009993757800316</speed>
  <fix>3d</fix>
</trkpt>
<trkpt lat="40.0728855" lon="-105.2306731">
  <ele>1595.6</ele>
  <time>2026-08-27T18:28:59Z</time>
  <course>5.43</course>
  <speed>0.78</speed>
  <fix>3d</fix>
</trkpt>
<trkpt lat="40.0728879" lon="-105.230673">
  <ele>1595.67</ele>
  <time>2026-08-27T18:28:59Z</time>
  <course>8.52</course>
  <speed>0.7402702209328699</speed>
  <fix>3d</fix>
</trkpt>
<trkpt lat="40.0728869" lon="-105.230673">
  <ele>1595.61</ele>
  <time>2026-08-27T18:28:59Z</time>
  <course>0.74</course>
  <speed>0.78</speed>
  <fix>3d</fix>
</trkpt>
<trkpt lat="40.0728891" lon="-105.2306731">
  <ele>1595.67</ele>
  <time>2026-08-27T18:28:59Z</time>
  <course>8.58</course>
  <speed>0.6166036003787199</speed>
  <fix>3d</fix>
</trkpt>
<trkpt lat="40.0728883" lon="-105.230673">
  <ele>1595.61</ele>
  <time>2026-08-27T18:28:59Z</time>
  <course>355.65</course>
  <speed>0.71</speed>
  <fix>3d</fix>
</trkpt>
<trkpt lat="40.07289" lon="-105.2306734">
  <ele>1595.67</ele>
  <time>2026-08-27T18:28:59Z</time>
  <course>8.6</course>
  <speed>0.4332435804486894</speed>
  <fix>3d</fix>
</trkpt>
<trkpt lat="40.0728895" lon="-105.2306732">
  <ele>1595.62</ele>
  <time>2026-08-27T18:28:59Z</time>
  <course>348.75</course>
  <speed>0.57</speed>
  <fix>3d</fix>
</trkpt>
<trkpt lat="40.0728906" lon="-105.2306738">
  <ele>1595.68</ele>
  <time>2026-08-27T18:28:59Z</time>
  <course>8.64</course>
  <speed>0.261725046566048</speed>
  <fix>3d</fix>
</trkpt>
<trkpt lat="40.0728903" lon="-105.2306735">
  <ele>1595.62</ele>
  <time>2026-08-27T18:28:59Z</time>
  <course>336.22</course>
  <speed>0.39</speed>
  <fix>3d</fix>
</trkpt>
<trkpt lat="40.0728907" lon="-105.2306742">
  <ele>1595.69</ele>
  <time>2026-08-27T18:28:59Z</time>
  <course>8.65</course>
  <speed>0.21840329667841554</speed>
  <fix>3d</fix>
</trkpt>
<trkpt lat="40.0728907" lon="-105.2306739">
  <ele>1595.63</ele>
  <time>2026-08-27T18:28:59Z</time>
  <course>302.37</course>
  <speed>0.22</speed>
  <fix>3d</fix>
</trkpt>
<trkpt lat="40.0728905" lon="-105.2306747">
  <ele>1595.69</ele>
  <time>2026-08-27T18:28:59Z</time>
  <course>8.64</course>
  <speed>0.3827531841800928</speed>
  <fix>3d</fix>
</trkpt>
<trkpt lat="40.0728907" lon="-105.2306744">
  <ele>1595.63</ele>
  <time>2026-08-27T18:28:59Z</time>
  <course>236.71</course>
  <speed>0.24</speed>
  <fix>3d</fix>
</trkpt>
<trkpt lat="40.0728897" lon="-105.2306752">
  <ele>1595.69</ele>
  <time>2026-08-27T18:28:59Z</time>
  <course>8.6</course>
  <speed>0.5758472019555188</speed>
  <fix>3d</fix>
</trkpt>
<trkpt lat="40.0728903" lon="-105.2306749">
  <ele>1595.62</ele>
  <time>2026-08-27T18:28:59Z</time>
  <course>207.46</course>
  <speed>0.42</speed>
  <fix>3d</fix>
</trkpt>
<trkpt lat="40.0728886" lon="-105.2306756">
  <ele>1595.69</ele>
  <time>2026-08-27T18:28:59Z</time>
  <course>8.55</course>
  <speed>0.7278049189171505</speed>
  <fix>3d</fix>
</trkpt>
<trkpt lat="40.0728894" lon="-105.2306754">
  <ele>1595.62</ele>
  <time>2026-08-27T18:28:59Z</time>
  <course>196.11</course>
  <speed>0.61</speed>
  <fix>3d</fix>
</trkpt>
<trkpt lat="40.0728873" lon="-105.2306759">
  <ele>1595.69</ele>
  <time>2026-08-27T18:28:59Z</time>
  <course>8.52</course>
  <speed>0.8174350127074322</speed>
  <fix>3d</fix>
</trkpt>
<trkpt lat="40.0728882" lon="-105.2306757">
  <ele>1595.61</ele>
  <time>2026-08-27T18:28:59Z</time>
  <course>189.7</course>
  <speed>0.75</speed>
  <fix>3d</fix>
</trkpt>
<trkpt lat="40.0728858" lon="-105.2306761">
  <ele>1595.69</ele>
  <time>2026-08-27T18:28:59Z</time>
  <course>8.5</course>
  <speed>0.8309632964216891</speed>
  <fix>3d</fix>
</trkpt>
<trkpt lat="40.0728868" lon="-105.2306759">
  <ele>1595.61</ele>
  <time>2026-08-27T18:28:59Z</time>
  <course>184.91</course>
  <speed>0.83</speed>
  <fix>3d</fix>
</trkpt>
<trkpt lat="40.0728843" lon="-105.2306761">
  <ele>1595.69</ele>
  <time>2026-08-27T18:28:59Z</time>
  <course>8.56</course>
  <speed>0.7702596964660685</speed>
  <fix>3d</fix>
</trkpt>
<trkpt lat="40.0728853" lon="-105.2306761">
  <ele>1595.6</ele>
  <time>2026-08-27T18:28:59Z</time>
  <course>180.53</course>
  <speed>0.84</speed>
  <fix>3d</fix>
</trkpt>
<trkpt lat="40.072883" lon="-105.230676">
  <ele>1595.69</ele>
  <time>2026-08-27T18:28:59Z</time>
  <course>8.58</course>
  <speed>0.6449806198638839</speed>
  <fix>3d</fix>
</trkpt>
<trkpt lat="40.0728838" lon="-105.230676">
  <ele>1595.6</ele>
  <time>2026-08-27T18:28:59Z</time>
  <course>175.74</course>
  <speed>0.76</speed>
  <fix>3d</fix>
</trkpt>
<trkpt lat="40.072882" lon="-105.2306757">
  <ele>1595.69</ele>
  <time>2026-08-27T18:28:59Z</time>
  <course>8.61</course>
  <speed>0.4712748667179272</speed>
  <fix>3d</fix>
</trkpt>
<trkpt lat="40.0728826" lon="-105.2306759">
  <ele>1595.6</ele>
  <time>2026-08-27T18:28:59Z</time>
  <course>169.32</course>
  <speed>0.63</speed>
  <fix>3d</fix>
</trkpt>
<trkpt lat="40.0728814" lon="-105.2306753">
  <ele>1595.69</ele>
  <time>2026-08-27T18:28:59Z</time>
  <course>8.62</course>
  <speed>0.2842534080710379</speed>
  <fix>3d</fix>
</trkpt>
<trkpt lat="40.0728816" lon="-105.2306756">
  <ele>1595.6</ele>
  <time>2026-08-27T18:28:59Z</time>
  <course>158.4</course>
  <speed>0.45</speed>
  <fix>3d</fix>
</trkpt>
<trkpt lat="40.0728812" lon="-105.2306748">
  <ele>1595.69</ele>
  <time>2026-08-27T18:28:59Z</time>
  <course>8.6</course>
  <speed>0.21213203435596426</speed>
  <fix>3d</fix>
</trkpt>
<trkpt lat="40.0728811" lon="-105.2306751">
  <ele>1595.59</ele>
  <time>2026-08-27T18:28:59Z</time>
  <course>132.0</course>
  <speed>0.26</speed>
  <fix>3d</fix>
</trkpt>
<trkpt lat="40.0728813" lon="-105.2306743">
  <ele>1595.68</ele>
  <time>2026-08-27T18:28:59Z</time>
  <course>8.52</course>
  <speed>0.29698484809834996</speed>
  <fix>3d</fix>
</trkpt>
<trkpt lat="40.072881" lon="-105.2306746">
  <ele>1595.59</ele>
  <time>2026-08-27T18:28:59Z</time>
  <course>74.93</course>
  <speed>0.22</speed>
  <fix>3d</fix>
</trkpt>
<trkpt lat="40.0728817" lon="-105.2306739">
  <ele>1595.68</ele>
  <time>2026-08-27T18:28:59Z</time>
  <course>8.51</course>
  <speed>0.32649655434629016</speed>
  <fix>3d</fix>
</trkpt>
<trkpt lat="40.0728812" lon="-105.2306741">
  <ele>1595.59</ele>
  <time>2026-08-27T18:28:59Z</time>
  <course>41.42</course>
  <speed>0.29</speed>
  <fix>3d</fix>
</trkpt>
<trkpt lat="40.0728822" lon="-105.2306736">
  <ele>1595.68</ele>
  <time>2026-08-27T18:28:59Z</time>
  <course>8.58</course>
  <speed>0.32572994949804657</speed>
  <fix>3d</fix>
</trkpt>
<trkpt lat="40.0728816" lon="-105.2306737">
  <ele>1595.58</ele>
  <time>2026-08-27T18:28:59Z</time>
  <course>26.3</course>
  <speed>0.32</speed>
  <fix>3d</fix>
</trkpt>
<trkpt lat="40.0728827" lon="-105.2306734">
  <ele>1595.68</ele>
  <time>2026-08-27T18:28:59Z</time>
  <course>8.61</course>
  <speed>0.31575306807693887</speed>
  <fix>3d</fix>
</trkpt>
<trkpt lat="40.0728821" lon="-105.2306735">
  <ele>1595.58</ele>
  <time>2026-08-27T18:28:59Z</time>
  <course>16.98</course>
  <speed>0.32</speed>
  <fix>3d</fix>
</trkpt>
<trkpt lat="40.0728832" lon="-105.2306732">
  <ele>1595.67</ele>
  <time>2026-08-27T18:28:59Z</time>
  <course>8.63</course>
  <speed>0.2816025568065745</speed>
  <fix>3d</fix>
</trkpt>
<trkpt lat="40.0728827" lon="-105.2306733">
  <ele>1595.58</ele>
  <time>2026-08-27T18:28:59Z</time>
  <course>10.72</course>
  <speed>0.3</speed>
  <fix>3d</fix>
</trkpt>
<trkpt lat="40.0728836" lon="-105.2306732">
  <ele>1595.67</ele>
  <time>2026-08-27T18:28:59Z</time>
  <course>8.63</course>
  <speed>0.260768096208106</speed>
  <fix>3d</fix>
</trkpt>
<trkpt lat="40.0728832" lon="-105.2306732">
  <ele>1595.58</ele>
  <time>2026-08-27T18:28:59Z</time>
  <course>6.74</course>
  <speed>0.28</speed>
  <fix>3d</fix>
</trkpt>
<trkpt lat="40.0728841" lon="-105.2306731">
  <ele>1595.67</ele>
  <time>2026-08-27T18:28:59Z</time>
  <course>8.63</course>
  <speed>0.24020824298928628</speed>
  <fix>3d</fix>
</trkpt>
<trkpt lat="40.0728837" lon="-105.2306731">
  <ele>1595.58</ele>
  <time>2026-08-27T18:28:59Z</time>
  <course>4.55</course>
  <speed>0.25</speed>
  <fix>3d</fix>
</trkpt>
<trkpt lat="40.0728845" lon="-105.2306731">
  <ele>1595.67</ele>
  <time>2026-08-27T18:28:59Z</time>
  <course>8.62</course>
  <speed>0.22022715545545238</speed>
  <fix>3d</fix>
</trkpt>
<trkpt lat="40.0728842" lon="-105.230673">
  <ele>1595.57</ele>
  <time>2026-08-27T18:28:59Z</time>
  <course>3.75</course>
  <speed>0.23</speed>
  <fix>3d</fix>
</trkpt>
<trkpt lat="40.0728848" lon="-105.2306731">
  <ele>1595.67</ele>
  <time>2026-08-27T18:28:59Z</time>
  <course>8.61</course>
  <speed>0.2002498439450079</speed>
  <fix>3d</fix>
</trkpt>
<trkpt lat="40.0728845" lon="-105.230673">
  <ele>1595.57</ele>
  <time>2026-08-27T18:28:59Z</time>
  <course>3.92</course>
  <speed>0.21</speed>
  <fix>3d</fix>
</trkpt>
<trkpt lat="40.0728852" lon="-105.230673">
  <ele>1595.67</ele>
  <time>2026-08-27T18:28:59Z</time>
  <course>8.61</course>
  <speed>0.18027756377319945</speed>
  <fix>3d</fix>
</trkpt>
<trkpt lat="40.0728849" lon="-105.230673">
  <ele>1595.57</ele>
  <time>2026-08-27T18:28:59Z</time>
  <course>4.69</course>
  <speed>0.19</speed>
  <fix>3d</fix>
</trkpt>
<trkpt lat="40.0728855" lon="-105.230673">
  <ele>1595.67</ele>
  <time>2026-08-27T18:28:59Z</time>
  <course>8.61</course>
  <speed>0.17029386365926402</speed>
  <fix>3d</fix>
</trkpt>
<trkpt lat="40.0728852" lon="-105.230673">
  <ele>1595.58</ele>
  <time>2026-08-27T18:28:59Z</time>
  <course>5.64</course>
  <speed>0.17</speed>
  <fix>3d</fix>
</trkpt>
<trkpt lat="40.0728857" lon="-105.230673">
  <ele>1595.67</ele>
  <time>2026-08-27T18:28:59Z</time>
  <course>8.62</course>
  <speed>0.15033296378372907</speed>
  <fix>3d</fix>
</trkpt>
<trkpt lat="40.0728855" lon="-105.2306729">
  <ele>1595.58</ele>
  <time>2026-08-27T18:28:59Z</time>
  <course>6.57</course>
  <speed>0.16</speed>
  <fix>3d</fix>
</trkpt>
<trkpt lat="40.072886" lon="-105.2306729">
  <ele>1595.67</ele>
  <time>2026-08-27T18:28:59Z</time>
  <course>8.62</course>
  <speed>0.140356688476182</speed>
  <fix>3d</fix>
</trkpt>
<trkpt lat="40.0728858" lon="-105.2306729">
  <ele>1595.58</ele>
  <time>2026-08-27T18:28:59Z</time>
  <course>7.7</course>
  <speed>0.14</speed>
  <fix>3d</fix>
</trkpt>
<trkpt lat="40.0728862" lon="-105.2306729">
  <ele>1595.68</ele>
  <time>2026-08-27T18:28:59Z</time>
  <course>8.62</course>
  <speed>0.12041594578792296</speed>
  <fix>3d</fix>
</trkpt>
<trkpt lat="40.0728861" lon="-105.2306728">
  <ele>1595.58</ele>
  <time>2026-08-27T18:28:59Z</time>
  <course>8.96</course>
  <speed>0.13</speed>
  <fix>3d</fix>
</trkpt>
<trkpt lat="40.0728864" lon="-105.2306728">
  <ele>1595.68</ele>
  <time>2026-08-27T18:28:59Z</time>
  <course>8.61</course>
  <speed>0.11045361017187261</speed>
  <fix>3d</fix>
</trkpt>
<trkpt lat="40.0728863" lon="-105.2306727">
  <ele>1595.58</ele>
  <time>2026-08-27T18:28:59Z</time>
  <course>10.3</course>
  <speed>0.12</speed>
  <fix>3d</fix>
</trkpt>
<trkpt lat="40.0728866" lon="-105.2306728">
  <ele>1595.67</ele>
  <time>2026-08-27T18:28:59Z</time>
  <course>8.6</course>
  <speed>0.11045361017187261</speed>
  <fix>3d</fix>
</trkpt>
<trkpt lat="40.0728865" lon="-105.2306727">
  <ele>1595.58</ele>
  <time>2026-08-27T18:28:59Z</time>
  <course>12.05</course>
  <speed>0.11</speed>
  <fix>3d</fix>
</trkpt>
<trkpt lat="40.0728868" lon="-105.2306727">
  <ele>1595.67</ele>
  <time>2026-08-27T18:28:59Z</time>
  <course>8.6</course>
  <speed>0.1004987562112089</speed>
  <fix>3d</fix>
</trkpt>
<trkpt lat="40.0728867" lon="-105.2306727">
  <ele>1595.57</ele>
  <time>2026-08-27T18:28:59Z</time>
  <course>13.92</course>
  <speed>0.1</speed>
  <fix>3d</fix>
</trkpt>
<trkpt lat="40.072887" lon="-105.2306727">
  <ele>1595.67</ele>
  <time>2026-08-27T18:28:59Z</time>
  <course>8.62</course>
  <speed>0.1004987562112089</speed>
  <fix>3d</fix>
</trkpt>
<trkpt lat="40.0728869" lon="-105.2306726">
  <ele>1595.57</ele>
  <time>2026-08-27T18:28:59Z</time>
  <course>15.3</course>
  <speed>0.1</speed>
  <fix>3d</fix>
</trkpt>
<trkpt lat="40.0728872" lon="-105.2306726">
  <ele>1595.67</ele>
  <time>2026-08-27T18:28:59Z</time>
  <course>8.61</course>
  <speed>0.14317821063276354</speed>
  <fix>3d</fix>
</trkpt>
<trkpt lat="40.0728871" lon="-105.2306725">
  <ele>1595.57</ele>
  <time>2026-08-27T18:28:59Z</time>
  <course>16.36</course>
  <speed>0.11</speed>
  <fix>3d</fix>
</trkpt>
<trkpt lat="40.0728875" lon="-105.2306725">
  <ele>1595.67</ele>
  <time>2026-08-27T18:28:59Z</time>
  <course>8.59</course>
  <speed>0.215870331449229</speed>
  <fix>3d</fix>
</trkpt>
<trkpt lat="40.0728873" lon="-105.2306724">
  <ele>1595.57</ele>
  <time>2026-08-27T18:28:59Z</time>
  <course>17.33</course>
  <speed>0.15</speed>
  <fix>3d</fix>
</trkpt>
<trkpt lat="40.0728879" lon="-105.2306723">
  <ele>1595.67</ele>
  <time>2026-08-27T18:28:59Z</time>
  <course>8.57</course>
  <speed>0.32015621187164245</speed>
  <fix>3d</fix>
</trkpt>
<trkpt lat="40.0728876" lon="-105.2306723">
  <ele>1595.57</ele>
  <time>2026-08-27T18:28:59Z</time>
  <course>17.38</course>
  <speed>0.23</speed>
  <fix>3d</fix>
</trkpt>
<trkpt lat="40.0728886" lon="-105.230672">
  <ele>1595.67</ele>
  <time>2026-08-27T18:28:59Z</time>
  <course>8.57</course>
  <speed>0.4341658669218482</speed>
  <fix>3d</fix>
</trkpt>
<trkpt lat="40.0728881" lon="-105.2306721">
  <ele>1595.57</ele>
  <time>2026-08-27T18:28:59Z</time>
  <course>16.42</course>
  <speed>0.34</speed>
  <fix>3d</fix>
</trkpt>
<trkpt lat="40.0728894" lon="-105.2306717">
  <ele>1595.67</ele>
  <time>2026-08-27T18:28:59Z</time>
  <course>8.53</course>
  <speed>0.5531726674375732</speed>
  <fix>3d</fix>
</trkpt>
<trkpt lat="40.0728888" lon="-105.2306718">
  <ele>1595.57</ele>
  <time>2026-08-27T18:28:59Z</time>
  <course>14.96</course>
  <speed>0.46</speed>
  <fix>3d</fix>
</trkpt>
<trkpt lat="40.0728905" lon="-105.2306714">
  <ele>1595.67</ele>
  <time>2026-08-27T18:28:59Z</time>
  <course>8.54</course>
  <speed>0.6413267497929586</speed>
  <fix>3d</fix>
</trkpt>
<trkpt lat="40.0728898" lon="-105.2306715">
  <ele>1595.57</ele>
  <time>2026-08-27T18:28:59Z</time>
  <course>13.23</course>
  <speed>0.57</speed>
  <fix>3d</fix>
</trkpt>
<trkpt lat="40.0728916" lon="-105.2306711">
  <ele>1595.68</ele>
  <time>2026-08-27T18:28:59Z</time>
  <course>8.54</course>
  <speed>0.688839603971781</speed>
  <fix>3d</fix>
</trkpt>
<trkpt lat="40.0728908" lon="-105.2306712">
  <ele>1595.57</ele>
  <time>2026-08-27T18:28:59Z</time>
  <course>11.33</course>
  <speed>0.65</speed>
  <fix>3d</fix>
</trkpt>
<trkpt lat="40.0728928" lon="-105.2306709">
  <ele>1595.68</ele>
  <time>2026-08-27T18:28:59Z</time>
  <course>8.56</course>
  <speed>0.6846897107449476</speed>
  <fix>3d</fix>
</trkpt>
<trkpt lat="40.0728919" lon="-105.230671">
  <ele>1595.57</ele>
  <time>2026-08-27T18:28:59Z</time>
  <course>9.24</course>
  <speed>0.68</speed>
  <fix>3d</fix>
</trkpt>
<trkpt lat="40.072894" lon="-105.2306707">
  <ele>1595.68</ele>
  <time>2026-08-27T18:28:59Z</time>
  <course>8.59</course>
  <speed>0.6212889826803627</speed>
  <fix>3d</fix>
</trkpt>
<trkpt lat="40.0728932" lon="-105.2306707">
  <ele>1595.57</ele>
  <time>2026-08-27T18:28:59Z</time>
  <course>6.81</course>
  <speed>0.67</speed>
  <fix>3d</fix>
</trkpt>
<trkpt lat="40.072895" lon="-105.2306707">
  <ele>1595.69</ele>
  <time>2026-08-27T18:28:59Z</time>
  <course>8.62</course>
  <speed>0.5</speed>
  <fix>3d</fix>
</trkpt>
<trkpt lat="40.0728943" lon="-105.2306706">
  <ele>1595.57</ele>
  <time>2026-08-27T18:28:59Z</time>
  <course>3.76</course>
  <speed>0.59</speed>
  <fix>3d</fix>
</trkpt>
<trkpt lat="40.0728958" lon="-105.2306707">
  <ele>1595.69</ele>
  <time>2026-08-27T18:28:59Z</time>
  <course>8.65</course>
  <speed>0.33376638536557274</speed>
  <fix>3d</fix>
</trkpt>
<trkpt lat="40.0728953" lon="-105.2306706">
  <ele>1595.57</ele>
  <time>2026-08-27T18:28:59Z</time>
  <course>359.23</course>
  <speed>0.45</speed>
  <fix>3d</fix>
</trkpt>
<trkpt lat="40.0728962" lon="-105.2306709">
  <ele>1595.68</ele>
  <time>2026-08-27T18:28:59Z</time>
  <course>8.67</course>
  <speed>0.15620499351813308</speed>
  <fix>3d</fix>
</trkpt>
<trkpt lat="40.072896" lon="-105.2306706">
  <ele>1595.57</ele>
  <time>2026-08-27T18:28:59Z</time>
  <course>349.69</course>
  <speed>0.28</speed>
  <fix>3d</fix>
</trkpt>
<trkpt lat="40.0728962" lon="-105.230671">
  <ele>1595.68</ele>
  <time>2026-08-27T18:28:59Z</time>
  <course>8.62</course>
  <speed>0.16401219466856726</speed>
  <fix>3d</fix>
</trkpt>
<trkpt lat="40.0728963" lon="-105.2306707">
  <ele>1595.56</ele>
  <time>2026-08-27T18:28:59Z</time>
  <course>303.87</course>
  <speed>0.1</speed>
  <fix>3d</fix>
</trkpt>
<trkpt lat="40.0728959" lon="-105.2306713">
  <ele>1595.67</ele>
  <time>2026-08-27T18:28:59Z</time>
  <course>8.59</course>
  <speed>0.3716180835212409</speed>
  <fix>3d</fix>
</trkpt>
<trkpt lat="40.0728962" lon="-105.230671">
  <ele>1595.56</ele>
  <time>2026-08-27T18:28:59Z</time>
  <course>213.15</course>
  <speed>0.2</speed>
  <fix>3d</fix>
</trkpt>
<trkpt lat="40.0728951" lon="-105.2306716">
  <ele>1595.66</ele>
  <time>2026-08-27T18:29:00Z</time>
  <course>8.5</course>
  <speed>0.570087712549569</speed>
  <fix>3d</fix>
</trkpt>
<trkpt lat="40.0728957" lon="-105.2306712">
  <ele>1595.55</ele>
  <time>2026-08-27T18:29:00Z</time>
  <course>197.34</course>
  <speed>0.42</speed>
  <fix>3d</fix>
</trkpt>
<trkpt lat="40.072894" lon="-105.2306719">
  <ele>1595.65</ele>
  <time>2026-08-27T18:29:00Z</time>
  <course>8.42</course>
  <speed>0.7218032973047436</speed>
  <fix>3d</fix>
</trkpt>
<trkpt lat="40.0728948" lon="-105.2306715">
  <ele>1595.55</ele>
  <time>2026-08-27T18:29:00Z</time>
  <course>191.31</course>
  <speed>0.61</speed>
  <fix>3d</fix>
</trkpt>
<trkpt lat="40.0728926" lon="-105.2306721">
  <ele>1595.65</ele>
  <time>2026-08-27T18:29:00Z</time>
  <course>8.36</course>
  <speed>0.8161494961096283</speed>
  <fix>3d</fix>
</trkpt>
<trkpt lat="40.0728936" lon="-105.2306718">
  <ele>1595.55</ele>
  <time>2026-08-27T18:29:00Z</time>
  <course>187.5</course>
  <speed>0.76</speed>
  <fix>3d</fix>
</trkpt>
<trkpt lat="40.0728911" lon="-105.2306723">
  <ele>1595.65</ele>
  <time>2026-08-27T18:29:00Z</time>
  <course>8.37</course>
  <speed>0.841486779456457</speed>
  <fix>3d</fix>
</trkpt>
<trkpt lat="40.0728921" lon="-105.230672">
  <ele>1595.55</ele>
  <time>2026-08-27T18:29:00Z</time>
  <course>184.33</course>
  <speed>0.84</speed>
  <fix>3d</fix>
</trkpt>
<trkpt lat="40.0728896" lon="-105.2306723">
  <ele>1595.66</ele>
  <time>2026-08-27T18:29:00Z</time>
  <course>8.42</course>
  <speed>0.79</speed>
  <fix>3d</fix>
</trkpt>
<trkpt lat="40.0728906" lon="-105.230672">
  <ele>1595.55</ele>
  <time>2026-08-27T18:29:00Z</time>
  <course>181.16</course>
  <speed>0.86</speed>
  <fix>3d</fix>
</trkpt>
<trkpt lat="40.0728883" lon="-105.2306722">
  <ele>1595.66</ele>
  <time>2026-08-27T18:29:00Z</time>
  <course>8.47</course>
  <speed>0.671863081289633</speed>
  <fix>3d</fix>
</trkpt>
<trkpt lat="40.0728891" lon="-105.230672">
  <ele>1595.56</ele>
  <time>2026-08-27T18:29:00Z</time>
  <course>177.48</course>
  <speed>0.79</speed>
  <fix>3d</fix>
</trkpt>
<trkpt lat="40.0728872" lon="-105.230672">
  <ele>1595.67</ele>
  <time>2026-08-27T18:29:00Z</time>
  <course>8.54</course>
  <speed>0.5000999900019995</speed>
  <fix>3d</fix>
</trkpt>
<trkpt lat="40.0728877" lon="-105.230672">
  <ele>1595.56</ele>
  <time>2026-08-27T18:29:00Z</time>
  <course>172.48</course>
  <speed>0.66</speed>
  <fix>3d</fix>
</trkpt>
<trkpt lat="40.0728865" lon="-105.2306717">
  <ele>1595.67</ele>
  <time>2026-08-27T18:29:00Z</time>
  <course>8.58</course>
  <speed>0.30016662039607267</speed>
  <fix>3d</fix>
</trkpt>
<trkpt lat="40.0728868" lon="-105.2306717">
  <ele>1595.57</ele>
  <time>2026-08-27T18:29:00Z</time>
  <course>164.13</course>
  <speed>0.48</speed>
  <fix>3d</fix>
</trkpt>
<trkpt lat="40.0728862" lon="-105.2306712">
  <ele>1595.67</ele>
  <time>2026-08-27T18:29:00Z</time>
  <course>8.58</course>
  <speed>0.18027756377319945</speed>
  <fix>3d</fix>
</trkpt>
<trkpt lat="40.0728861" lon="-105.2306713">
  <ele>1595.57</ele>
  <time>2026-08-27T18:29:00Z</time>
  <course>144.5</course>
  <speed>0.29</speed>
  <fix>3d</fix>
</trkpt>
<trkpt lat="40.0728863" lon="-105.2306708">
  <ele>1595.67</ele>
  <time>2026-08-27T18:29:00Z</time>
  <course>8.56</course>
  <speed>0.29832867780352595</speed>
  <fix>3d</fix>
</trkpt>
<trkpt lat="40.0728858" lon="-105.230671">
  <ele>1595.58</ele>
  <time>2026-08-27T18:29:00Z</time>
  <course>84.91</course>
  <speed>0.18</speed>
  <fix>3d</fix>
</trkpt>
<trkpt lat="40.0728867" lon="-105.2306703">
  <ele>1595.66</ele>
  <time>2026-08-27T18:29:00Z</time>
  <course>8.54</course>
  <speed>0.48466483264210536</speed>
  <fix>3d</fix>
</trkpt>
<trkpt lat="40.0728861" lon="-105.2306705">
  <ele>1595.57</ele>
  <time>2026-08-27T18:29:00Z</time>
  <course>35.43</course>
  <speed>0.32</speed>
  <fix>3d</fix>
</trkpt>
<trkpt lat="40.0728876" lon="-105.2306699">
  <ele>1595.66</ele>
  <time>2026-08-27T18:29:00Z</time>
  <course>8.47</course>
  <speed>0.6476109943476871</speed>
  <fix>3d</fix>
</trkpt>
<trkpt lat="40.0728867" lon="-105.2306701">
  <ele>1595.57</ele>
  <time>2026-08-27T18:29:00Z</time>
  <course>19.42</course>
  <speed>0.51</speed>
  <fix>3d</fix>
</trkpt>
<trkpt lat="40.0728888" lon="-105.2306696">
  <ele>1595.66</ele>
  <time>2026-08-27T18:29:00Z</time>
  <course>8.43</course>
  <speed>0.7566372975210779</speed>
  <fix>3d</fix>
</trkpt>
<trkpt lat="40.0728877" lon="-105.2306697">
  <ele>1595.57</ele>
  <time>2026-08-27T18:29:00Z</time>
  <course>11.73</course>
  <speed>0.66</speed>
  <fix>3d</fix>
</trkpt>
<trkpt lat="40.0728901" lon="-105.2306694">
  <ele>1595.66</ele>
  <time>2026-08-27T18:29:00Z</time>
  <course>8.43</course>
  <speed>0.791580697086532</speed>
  <fix>3d</fix>
</trkpt>
<trkpt lat="40.0728891" lon="-105.2306695">
  <ele>1595.57</ele>
  <time>2026-08-27T18:29:00Z</time>
  <course>6.54</course>
  <speed>0.76</speed>
  <fix>3d</fix>
</trkpt>
<trkpt lat="40.0728915" lon="-105.2306694">
  <ele>1595.66</ele>
  <time>2026-08-27T18:29:00Z</time>
  <course>8.46</course>
  <speed>0.7600657866263946</speed>
  <fix>3d</fix>
</trkpt>
<trkpt lat="40.0728905" lon="-105.2306693">
  <ele>1595.57</ele>
  <time>2026-08-27T18:29:00Z</time>
  <course>2.13</course>
  <speed>0.78</speed>
  <fix>3d</fix>
</trkpt>
<trkpt lat="40.0728927" lon="-105.2306695">
  <ele>1595.67</ele>
  <time>2026-08-27T18:29:00Z</time>
  <course>8.55</course>
  <speed>0.6438167441127949</speed>
  <fix>3d</fix>
</trkpt>
<trkpt lat="40.0728918" lon="-105.2306693">
  <ele>1595.58</ele>
  <time>2026-08-27T18:29:00Z</time>
  <course>357.54</course>
  <speed>0.73</speed>
  <fix>3d</fix>
</trkpt>
<trkpt lat="40.0728937" lon="-105.2306696">
  <ele>1595.67</ele>
  <time>2026-08-27T18:29:00Z</time>
  <course>8.6</course>
  <speed>0.4780167361086848</speed>
  <fix>3d</fix>
</trkpt>
<trkpt lat="40.072893" lon="-105.2306694">
  <ele>1595.58</ele>
  <time>2026-08-27T18:29:00Z</time>
  <course>351.62</course>
  <speed>0.6</speed>
  <fix>3d</fix>
</trkpt>
<trkpt lat="40.0728943" lon="-105.23067">
  <ele>1595.67</ele>
  <time>2026-08-27T18:29:00Z</time>
  <course>8.61</course>
  <speed>0.29410882339705485</speed>
  <fix>3d</fix>
</trkpt>
<trkpt lat="40.072894" lon="-105.2306696">
  <ele>1595.59</ele>
  <time>2026-08-27T18:29:00Z</time>
  <course>341.58</course>
  <speed>0.43</speed>
  <fix>3d</fix>
</trkpt>
<trkpt lat="40.0728946" lon="-105.2306704">
  <ele>1595.67</ele>
  <time>2026-08-27T18:29:00Z</time>
  <course>8.63</course>
  <speed>0.2</speed>
  <fix>3d</fix>
</trkpt>
<trkpt lat="40.0728945" lon="-105.23067">
  <ele>1595.59</ele>
  <time>2026-08-27T18:29:00Z</time>
  <course>316.15</course>
  <speed>0.24</speed>
  <fix>3d</fix>
</trkpt>
<trkpt lat="40.0728944" lon="-105.2306708">
  <ele>1595.67</ele>
  <time>2026-08-27T18:29:00Z</time>
  <course>8.62</course>
  <speed>0.33421549934136807</speed>
  <fix>3d</fix>
</trkpt>
<trkpt lat="40.0728947" lon="-105.2306704">
  <ele>1595.6</ele>
  <time>2026-08-27T18:29:00Z</time>
  <course>248.84</course>
  <speed>0.2</speed>
  <fix>3d</fix>
</trkpt>
<trkpt lat="40.0728938" lon="-105.2306713">
  <ele>1595.67</ele>
  <time>2026-08-27T18:29:00Z</time>
  <course>8.54</course>
  <speed>0.5255473337388366</speed>
  <fix>3d</fix>
</trkpt>
<trkpt lat="40.0728943" lon="-105.2306708">
  <ele>1595.6</ele>
  <time>2026-08-27T18:29:00Z</time>
  <course>210.43</course>
  <speed>0.37</speed>
  <fix>3d</fix>
</trkpt>
<trkpt lat="40.0728927" lon="-105.2306717">
  <ele>1595.67</ele>
  <time>2026-08-27T18:29:00Z</time>
  <course>8.49</course>
  <speed>0.688839603971781</speed>
  <fix>3d</fix>
</trkpt>
<trkpt lat="40.0728936" lon="-105.2306713">
  <ele>1595.59</ele>
  <time>2026-08-27T18:29:00Z</time>
  <course>197.34</course>
  <speed>0.57</speed>
  <fix>3d</fix>
</trkpt>
<trkpt lat="40.0728915" lon="-105.230672">
  <ele>1595.67</ele>
  <time>2026-08-27T18:29:00Z</time>
  <course>8.45</course>
  <speed>0.7990619500389191</speed>
  <fix>3d</fix>
</trkpt>
<trkpt lat="40.0728924" lon="-105.2306716">
  <ele>1595.59</ele>
  <time>2026-08-27T18:29:00Z</time>
  <course>190.5</course>
  <speed>0.72</speed>
  <fix>3d</fix>
</trkpt>
<trkpt lat="40.07289" lon="-105.2306721">
  <ele>1595.66</ele>
  <time>2026-08-27T18:29:00Z</time>
  <course>8.45</course>
  <speed>0.8321658488546619</speed>
  <fix>3d</fix>
</trkpt>
<trkpt lat="40.072891" lon="-105.230672">
  <ele>1595.59</ele>
  <time>2026-08-27T18:29:00Z</time>
  <course>185.65</course>
  <speed>0.82</speed>
  <fix>3d</fix>
</trkpt>
<trkpt lat="40.0728885" lon="-105.2306721">
  <ele>1595.67</ele>
  <time>2026-08-27T18:29:00Z</time>
  <course>8.47</course>
  <speed>0.79</speed>
  <fix>3d</fix>
</trkpt>
<trkpt lat="40.0728895" lon="-105.230672">
  <ele>1595.59</ele>
  <time>2026-08-27T18:29:00Z</time>
  <course>181.39</course>
  <speed>0.84</speed>
  <fix>3d</fix>
</trkpt>
<trkpt lat="40.0728872" lon="-105.230672">
  <ele>1595.67</ele>
  <time>2026-08-27T18:29:00Z</time>
  <course>8.5</course>
  <speed>0.6835934464285041</speed>
  <fix>3d</fix>
</trkpt>
<trkpt lat="40.072888" lon="-105.230672">
  <ele>1595.6</ele>
  <time>2026-08-27T18:29:00Z</time>
  <course>176.87</course>
  <speed>0.79</speed>
  <fix>3d</fix>
</trkpt>
<trkpt lat="40.0728861" lon="-105.2306718">
  <ele>1595.67</ele>
  <time>2026-08-27T18:29:00Z</time>
  <course>8.56</course>
  <speed>0.5166236541235796</speed>
  <fix>3d</fix>
</trkpt>
<trkpt lat="40.0728867" lon="-105.230672">
  <ele>1595.6</ele>
  <time>2026-08-27T18:29:00Z</time>
  <course>171.09</course>
  <speed>0.67</speed>
  <fix>3d</fix>
</trkpt>
<trkpt lat="40.0728853" lon="-105.2306714">
  <ele>1595.68</ele>
  <time>2026-08-27T18:29:00Z</time>
  <course>8.59</course>
  <speed>0.327566787083184</speed>
  <fix>3d</fix>
</trkpt>
<trkpt lat="40.0728857" lon="-105.2306716">
  <ele>1595.61</ele>
  <time>2026-08-27T18:29:00Z</time>
  <course>161.86</course>
  <speed>0.5</speed>
  <fix>3d</fix>
</trkpt>
<trkpt lat="40.072885" lon="-105.230671">
  <ele>1595.68</ele>
  <time>2026-08-27T18:29:00Z</time>
  <course>8.6</course>
  <speed>0.20223748416156684</speed>
  <fix>3d</fix>
</trkpt>
<trkpt lat="40.072885" lon="-105.2306712">
  <ele>1595.61</ele>
  <time>2026-08-27T18:29:00Z</time>
  <course>141.66</course>
  <speed>0.31</speed>
  <fix>3d</fix>
</trkpt>
<trkpt lat="40.0728851" lon="-105.2306705">
  <ele>1595.68</ele>
  <time>2026-08-27T18:29:00Z</time>
  <course>8.59</course>
  <speed>0.304138126514911</speed>
  <fix>3d</fix>
</trkpt>
<trkpt lat="40.0728848" lon="-105.2306707">
  <ele>1595.61</ele>
  <time>2026-08-27T18:29:00Z</time>
  <course>88.04</course>
  <speed>0.21</speed>
  <fix>3d</fix>
</trkpt>
<trkpt lat="40.0728856" lon="-105.23067">
  <ele>1595.67</ele>
  <time>2026-08-27T18:29:00Z</time>
  <course>8.53</course>
  <speed>0.49244289008980524</speed>
  <fix>3d</fix>
</trkpt>
<trkpt lat="40.072885" lon="-105.2306702">
  <ele>1595.61</ele>
  <time>2026-08-27T18:29:00Z</time>
  <course>39.74</course>
  <speed>0.33</speed>
  <fix>3d</fix>
</trkpt>
<trkpt lat="40.0728865" lon="-105.2306695">
  <ele>1595.67</ele>
  <time>2026-08-27T18:29:00Z</time>
  <course>8.47</course>
  <speed>0.65</speed>
  <fix>3d</fix>
</trkpt>
<trkpt lat="40.0728856" lon="-105.2306697">
  <ele>1595.6</ele>
  <time>2026-08-27T18:29:00Z</time>
  <course>21.94</course>
  <speed>0.51</speed>
  <fix>3d</fix>
</trkpt>
<trkpt lat="40.0728877" lon="-105.2306692">
  <ele>1595.67</ele>
  <time>2026-08-27T18:29:00Z</time>
  <course>8.45</course>
  <speed>0.758023746329889</speed>
  <fix>3d</fix>
</trkpt>
<trkpt lat="40.0728866" lon="-105.2306694">
  <ele>1595.6</ele>
  <time>2026-08-27T18:29:00Z</time>
  <course>13.29</course>
  <speed>0.66</speed>
  <fix>3d</fix>
</trkpt>
<trkpt lat="40.072889" lon="-105.230669">
  <ele>1595.68</ele>
  <time>2026-08-27T18:29:00Z</time>
  <course>8.45</course>
  <speed>0.791580697086532</speed>
  <fix>3d</fix>
</trkpt>
<trkpt lat="40.0728879" lon="-105.2306691">
  <ele>1595.6</ele>
  <time>2026-08-27T18:29:00Z</time>
  <course>7.56</course>
  <speed>0.75</speed>
  <fix>3d</fix>
</trkpt>
<trkpt lat="40.0728904" lon="-105.2306689">
  <ele>1595.69</ele>
  <time>2026-08-27T18:29:00Z</time>
  <course>8.5</course>
  <speed>0.75</speed>
  <fix>3d</fix>
</trkpt>
<trkpt lat="40.0728893" lon="-105.2306689">
  <ele>1595.6</ele>
  <time>2026-08-27T18:29:00Z</time>
  <course>2.79</course>
  <speed>0.78</speed>
  <fix>3d</fix>
</trkpt>
<trkpt lat="40.0728916" lon="-105.230669">
  <ele>1595.69</ele>
  <time>2026-08-27T18:29:00Z</time>
  <course>8.6</course>
  <speed>0.6438167441127949</speed>
  <fix>3d</fix>
</trkpt>
<trkpt lat="40.0728906" lon="-105.2306689">
  <ele>1595.6</ele>
  <time>2026-08-27T18:29:00Z</time>
  <course>357.93</course>
  <speed>0.72</speed>
  <fix>3d</fix>
</trkpt>
<trkpt lat="40.0728926" lon="-105.2306691">
  <ele>1595.7</ele>
  <time>2026-08-27T18:29:00Z</time>
  <course>8.68</course>
  <speed>0.4780167361086848</speed>
  <fix>3d</fix>
</trkpt>
<trkpt lat="40.0728918" lon="-105.2306689">
  <ele>1595.6</ele>
  <time>2026-08-27T18:29:00Z</time>
  <course>351.77</course>
  <speed>0.6</speed>
  <fix>3d</fix>
</trkpt>
<trkpt lat="40.0728932" lon="-105.2306695">
  <ele>1595.7</ele>
  <time>2026-08-27T18:29:00Z</time>
  <course>8.72</course>
  <speed>0.29410882339705485</speed>
  <fix>3d</fix>
</trkpt>
<trkpt lat="40.0728928" lon="-105.2306692">
  <ele>1595.61</ele>
  <time>2026-08-27T18:29:00Z</time>
  <course>341.46</course>
  <speed>0.43</speed>
  <fix>3d</fix>
</trkpt>
<trkpt lat="40.0728934" lon="-105.2306699">
  <ele>1595.69</ele>
  <time>2026-08-27T18:29:00Z</time>
  <course>8.72</course>
  <speed>0.2</speed>
  <fix>3d</fix>
</trkpt>
<trkpt lat="40.0728933" lon="-105.2306696">
  <ele>1595.6</ele>
  <time>2026-08-27T18:29:00Z</time>
  <course>315.55</course>
  <speed>0.24</speed>
  <fix>3d</fix>
</trkpt>
<trkpt lat="40.0728933" lon="-105.2306704">
  <ele>1595.69</ele>
  <time>2026-08-27T18:29:00Z</time>
  <course>8.66</course>
  <speed>0.33421549934136807</speed>
  <fix>3d</fix>
</trkpt>
<trkpt lat="40.0728934" lon="-105.23067">
  <ele>1595.6</ele>
  <time>2026-08-27T18:29:00Z</time>
  <course>248.42</course>
  <speed>0.2</speed>
  <fix>3d</fix>
</trkpt>
<trkpt lat="40.0728926" lon="-105.2306708">
  <ele>1595.69</ele>
  <time>2026-08-27T18:29:00Z</time>
  <course>8.6</course>
  <speed>0.52</speed>
  <fix>3d</fix>
</trkpt>
<trkpt lat="40.0728931" lon="-105.2306704">
  <ele>1595.59</ele>
  <time>2026-08-27T18:29:00Z</time>
  <course>210.49</course>
  <speed>0.37</speed>
  <fix>3d</fix>
</trkpt>
<trkpt lat="40.0728916" lon="-105.2306712">
  <ele>1595.69</ele>
  <time>2026-08-27T18:29:00Z</time>
  <course>8.54</course>
  <speed>0.6912307863514182</speed>
  <fix>3d</fix>
</trkpt>
<trkpt lat="40.0728923" lon="-105.2306708">
  <ele>1595.58</ele>
  <time>2026-08-27T18:29:00Z</time>
  <course>197.43</course>
  <speed>0.57</speed>
  <fix>3d</fix>
</trkpt>
<trkpt lat="40.0728903" lon="-105.2306715">
  <ele>1595.68</ele>
  <time>2026-08-27T18:29:00Z</time>
  <course>8.5</course>
  <speed>0.7990619500389191</speed>
  <fix>3d</fix>
</trkpt>
<trkpt lat="40.0728912" lon="-105.2306712">
  <ele>1595.58</ele>
  <time>2026-08-27T18:29:00Z</time>
  <course>190.59</course>
  <speed>0.73</speed>
  <fix>3d</fix>
</trkpt>
<trkpt lat="40.0728888" lon="-105.2306717">
  <ele>1595.67</ele>
  <time>2026-08-27T18:29:00Z</time>
  <course>8.49</course>
  <speed>0.8321658488546619</speed>
  <fix>3d</fix>
</trkpt>
<trkpt lat="40.0728898" lon="-105.2306715">
  <ele>1595.57</ele>
  <time>2026-08-27T18:29:00Z</time>
  <course>185.71</course>
  <speed>0.82</speed>
  <fix>3d</fix>
</trkpt>
<trkpt lat="40.0728873" lon="-105.2306717">
  <ele>1595.67</ele>
  <time>2026-08-27T18:29:00Z</time>
  <course>8.48</course>
  <speed>0.8</speed>
  <fix>3d</fix>
</trkpt>
<trkpt lat="40.0728883" lon="-105.2306716">
  <ele>1595.57</ele>
  <time>2026-08-27T18:29:00Z</time>
  <course>181.38</course>
  <speed>0.85</speed>
  <fix>3d</fix>
</trkpt>
<trkpt lat="40.072886" lon="-105.2306716">
  <ele>1595.67</ele>
  <time>2026-08-27T18:29:00Z</time>
  <course>8.51</course>
  <speed>0.6835934464285041</speed>
  <fix>3d</fix>
</trkpt>
<trkpt lat="40.0728868" lon="-105.2306716">
  <ele>1595.57</ele>
  <time>2026-08-27T18:29:00Z</time>
  <course>176.82</course>
  <speed>0.79</speed>
  <fix>3d</fix>
</trkpt>
<trkpt lat="40.0728849" lon="-105.2306714">
  <ele>1595.67</ele>
  <time>2026-08-27T18:29:00Z</time>
  <course>8.57</course>
  <speed>0.5166236541235796</speed>
  <fix>3d</fix>
</trkpt>
<trkpt lat="40.0728855" lon="-105.2306715">
  <ele>1595.57</ele>
  <time>2026-08-27T18:29:00Z</time>
  <course>170.99</course>
  <speed>0.67</speed>
  <fix>3d</fix>
</trkpt>
<trkpt lat="40.0728841" lon="-105.230671">
  <ele>1595.67</ele>
  <time>2026-08-27T18:29:00Z</time>
  <course>8.6</course>
  <speed>0.327566787083184</speed>
  <fix>3d</fix>
</trkpt>
<trkpt lat="40.0728844" lon="-105.2306711">
  <ele>1595.57</ele>
  <time>2026-08-27T18:29:00Z</time>
  <course>161.7</course>
  <speed>0.5</speed>
  <fix>3d</fix>
</trkpt>
<trkpt lat="40.0728838" lon="-105.2306705">
  <ele>1595.67</ele>
  <time>2026-08-27T18:29:00Z</time>
  <course>8.59</course>
  <speed>0.20223748416156684</speed>
  <fix>3d</fix>
</trkpt>
<trkpt lat="40.0728837" lon="-105.2306708">
  <ele>1595.58</ele>
  <time>2026-08-27T18:29:00Z</time>
  <course>141.54</course>
  <speed>0.31</speed>
  <fix>3d</fix>
</trkpt>
<trkpt lat="40.0728838" lon="-105.23067">
  <ele>1595.67</ele>
  <time>2026-08-27T18:29:00Z</time>
  <course>8.57</course>
  <speed>0.304138126514911</speed>
  <fix>3d</fix>
</trkpt>
<trkpt lat="40.0728834" lon="-105.2306702">
  <ele>1595.57</ele>
  <time>2026-08-27T18:29:00Z</time>
  <course>88.82</course>
  <speed>0.21</speed>
  <fix>3d</fix>
</trkpt>
<trkpt lat="40.0728843" lon="-105.2306695">
  <ele>1595.67</ele>
  <time>2026-08-27T18:29:00Z</time>
  <course>8.53</course>
  <speed>0.49244289008980524</speed>
  <fix>3d</fix>
</trkpt>
<trkpt lat="40.0728837" lon="-105.2306697">
  <ele>1595.57</ele>
  <time>2026-08-27T18:29:00Z</time>
  <course>40.59</course>
  <speed>0.33</speed>
  <fix>3d</fix>
</trkpt>
<trkpt lat="40.0728852" lon="-105.230669">
  <ele>1595.66</ele>
  <time>2026-08-27T18:29:00Z</time>
  <course>8.47</course>
  <speed>0.6525335240430181</speed>
  <fix>3d</fix>
</trkpt>
<trkpt lat="40.0728843" lon="-105.2306692">
  <ele>1595.57</ele>
  <time>2026-08-27T18:29:00Z</time>
  <course>22.5</course>
  <speed>0.51</speed>
  <fix>3d</fix>
</trkpt>
<trkpt lat="40.0728864" lon="-105.2306687">
  <ele>1595.66</ele>
  <time>2026-08-27T18:29:00Z</time>
  <course>8.44</course>
  <speed>0.7595393340703298</speed>
  <fix>3d</fix>
</trkpt>
<trkpt lat="40.0728853" lon="-105.2306689">
  <ele>1595.57</ele>
  <time>2026-08-27T18:29:00Z</time>
  <course>13.71</course>
  <speed>0.66</speed>
  <fix>3d</fix>
</trkpt>
<trkpt lat="40.0728877" lon="-105.2306685">
  <ele>1595.66</ele>
  <time>2026-08-27T18:29:00Z</time>
  <course>8.44</course>
  <speed>0.791580697086532</speed>
  <fix>3d</fix>
</trkpt>
<trkpt lat="40.0728865" lon="-105.2306685">
  <ele>1595.57</ele>
  <time>2026-08-27T18:29:00Z</time>
  <course>7.92</course>
  <speed>0.75</speed>
  <fix>3d</fix>
</trkpt>
<trkpt lat="40.0728891" lon="-105.2306684">
  <ele>1595.66</ele>
  <time>2026-08-27T18:29:00Z</time>
  <course>8.49</course>
  <speed>0.75</speed>
  <fix>3d</fix>
</trkpt>
<trkpt lat="40.072888" lon="-105.2306683">
  <ele>1595.57</ele>
  <time>2026-08-27T18:29:00Z</time>
  <course>3.1</course>
  <speed>0.77</speed>
  <fix>3d</fix>
</trkpt>
<trkpt lat="40.0728903" lon="-105.2306685">
  <ele>1595.66</ele>
  <time>2026-08-27T18:29:00Z</time>
  <course>8.55</course>
  <speed>0.6438167441127949</speed>
  <fix>3d</fix>
</trkpt>
<trkpt lat="40.0728893" lon="-105.2306683">
  <ele>1595.57</ele>
  <time>2026-08-27T18:29:00Z</time>
  <course>358.2</course>
  <speed>0.72</speed>
  <fix>3d</fix>
</trkpt>
<trkpt lat="40.0728913" lon="-105.2306686">
  <ele>1595.67</ele>
  <time>2026-08-27T18:29:00Z</time>
  <course>8.6</course>
  <speed>0.4780167361086848</speed>
  <fix>3d</fix>
</trkpt>
<trkpt lat="40.0728905" lon="-105.2306684">
  <ele>1595.58</ele>
  <time>2026-08-27T18:29:00Z</time>
  <course>352.0</course>
  <speed>0.6</speed>
  <fix>3d</fix>
</trkpt>
<trkpt lat="40.0728919" lon="-105.2306689">
  <ele>1595.67</ele>
  <time>2026-08-27T18:29:00Z</time>
  <course>8.63</course>
  <speed>0.29410882339705485</speed>
  <fix>3d</fix>
</trkpt>
<trkpt lat="40.0728915" lon="-105.2306686">
  <ele>1595.58</ele>
  <time>2026-08-27T18:29:00Z</time>
  <course>341.57</course>
  <speed>0.42</speed>
  <fix>3d</fix>
</trkpt>
<trkpt lat="40.0728921" lon="-105.2306694">
  <ele>1595.67</ele>
  <time>2026-08-27T18:29:00Z</time>
  <course>8.64</course>
  <speed>0.2002498439450079</speed>
  <fix>3d</fix>
</trkpt>
<trkpt lat="40.072892" lon="-105.2306689">
  <ele>1595.59</ele>
  <time>2026-08-27T18:29:00Z</time>
  <course>315.25</course>
  <speed>0.24</speed>
  <fix>3d</fix>
</trkpt>
<trkpt lat="40.0728919" lon="-105.2306698">
  <ele>1595.67</ele>
  <time>2026-08-27T18:29:00Z</time>
  <course>8.59</course>
  <speed>0.33421549934136807</speed>
  <fix>3d</fix>
</trkpt>
<trkpt lat="40.0728921" lon="-105.2306694">
  <ele>1595.59</ele>
  <time>2026-08-27T18:29:00Z</time>
  <course>247.93</course>
  <speed>0.2</speed>
  <fix>3d</fix>
</trkpt>
<trkpt lat="40.0728913" lon="-105.2306703">
  <ele>1595.66</ele>
  <time>2026-08-27T18:29:00Z</time>
  <course>8.54</course>
  <speed>0.5292447448959696</speed>
  <fix>3d</fix>
</trkpt>
<trkpt lat="40.0728917" lon="-105.2306699">
  <ele>1595.59</ele>
  <time>2026-08-27T18:29:00Z</time>
  <course>210.55</course>
  <speed>0.38</speed>
  <fix>3d</fix>
</trkpt>
<trkpt lat="40.0728903" lon="-105.2306707">
  <ele>1595.66</ele>
  <time>2026-08-27T18:29:00Z</time>
  <course>8.48</course>
  <speed>0.6912307863514182</speed>
  <fix>3d</fix>
</trkpt>
<trkpt lat="40.072891" lon="-105.2306703">
  <ele>1595.59</ele>
  <time>2026-08-27T18:29:00Z</time>
  <course>197.59</course>
  <speed>0.57</speed>
  <fix>3d</fix>
</trkpt>
<trkpt lat="40.072889" lon="-105.230671">
  <ele>1595.66</ele>
  <time>2026-08-27T18:29:00Z</time>
  <course>8.41</course>
  <speed>0.7990619500389191</speed>
  <fix>3d</fix>
</trkpt>
<trkpt lat="40.0728898" lon="-105.2306707">
  <ele>1595.59</ele>
  <time>2026-08-27T18:29:00Z</time>
  <course>190.74</course>
  <speed>0.73</speed>
  <fix>3d</fix>
</trkpt>
<trkpt lat="40.0728875" lon="-105.2306712">
  <ele>1595.66</ele>
  <time>2026-08-27T18:29:00Z</time>
  <course>8.38</course>
  <speed>0.8321658488546619</speed>
  <fix>3d</fix>
</trkpt>
<trkpt lat="40.0728884" lon="-105.230671">
  <ele>1595.59</ele>
  <time>2026-08-27T18:29:00Z</time>
  <course>185.87</course>
  <speed>0.82</speed>
  <fix>3d</fix>
</trkpt>
<trkpt lat="40.072886" lon="-105.2306712">
  <ele>1595.66</ele>
  <time>2026-08-27T18:29:00Z</time>
  <course>8.44</course>
  <speed>0.8</speed>
  <fix>3d</fix>
</trkpt>
<trkpt lat="40.0728869" lon="-105.2306711">
  <ele>1595.59</ele>
  <time>2026-08-27T18:29:00Z</time>
  <course>181.57</course>
  <speed>0.85</speed>
  <fix>3d</fix>
</trkpt>
<trkpt lat="40.0728846" lon="-105.2306711">
  <ele>1595.66</ele>
  <time>2026-08-27T18:29:00Z</time>
  <course>8.49</course>
  <speed>0.6835934464285041</speed>
  <fix>3d</fix>
</trkpt>
<trkpt lat="40.0728854" lon="-105.2306711">
  <ele>1595.6</ele>
  <time>2026-08-27T18:29:00Z</time>
  <course>177.0</course>
  <speed>0.8</speed>
  <fix>3d</fix>
</trkpt>
<trkpt lat="40.0728835" lon="-105.2306709">
  <ele>1595.67</ele>
  <time>2026-08-27T18:29:00Z</time>
  <course>8.54</course>
  <speed>0.5166236541235796</speed>
  <fix>3d</fix>
</trkpt>
<trkpt lat="40.072884" lon="-105.230671">
  <ele>1595.6</ele>
  <time>2026-08-27T18:29:00Z</time>
  <course>171.16</course>
  <speed>0.68</speed>
  <fix>3d</fix>
</trkpt>
<trkpt lat="40.0728828" lon="-105.2306705">
  <ele>1595.67</ele>
  <time>2026-08-27T18:29:00Z</time>
  <course>8.58</course>
  <speed>0.327566787083184</speed>
  <fix>3d</fix>
</trkpt>
<trkpt lat="40.0728831" lon="-105.2306706">
  <ele>1595.61</ele>
  <time>2026-08-27T18:29:00Z</time>
  <course>161.89</course>
  <speed>0.5</speed>
  <fix>3d</fix>
</trkpt>
<trkpt lat="40.0728824" lon="-105.23067">
  <ele>1595.67</ele>
  <time>2026-08-27T18:29:00Z</time>
  <course>8.59</course>
  <speed>0.20223748416156684</speed>
  <fix>3d</fix>
</trkpt>
<trkpt lat="40.0728824" lon="-105.2306702">
  <ele>1595.61</ele>
  <time>2026-08-27T18:29:00Z</time>
  <course>141.83</course>
  <speed>0.31</speed>
  <fix>3d</fix>
</trkpt>
<trkpt lat="40.0728824" lon="-105.2306695">
  <ele>1595.67</ele>
  <time>2026-08-27T18:29:00Z</time>
  <course>8.58</course>
  <speed>0.29698484809834996</speed>
  <fix>3d</fix>
</trkpt>
<trkpt lat="40.0728821" lon="-105.2306697">
  <ele>1595.61</ele>
  <time>2026-08-27T18:29:00Z</time>
  <course>89.41</course>
  <speed>0.21</speed>
  <fix>3d</fix>
</trkpt>
<trkpt lat="40.0728829" lon="-105.230669">
  <ele>1595.68</ele>
  <time>2026-08-27T18:29:00Z</time>
  <course>8.52</course>
  <speed>0.4833218389437829</speed>
  <fix>3d</fix>
</trkpt>
<trkpt lat="40.0728824" lon="-105.2306692">
  <ele>1595.61</ele>
  <time>2026-08-27T18:29:00Z</time>
  <course>40.99</course>
  <speed>0.33</speed>
  <fix>3d</fix>
</trkpt>
<trkpt lat="40.0728838" lon="-105.2306685">
  <ele>1595.67</ele>
  <time>2026-08-27T18:29:00Z</time>
  <course>8.5</course>
  <speed>0.6525335240430181</speed>
  <fix>3d</fix>
</trkpt>
<trkpt lat="40.072883" lon="-105.2306687">
  <ele>1595.61</ele>
  <time>2026-08-27T18:29:00Z</time>
  <course>22.79</course>
  <speed>0.51</speed>
  <fix>3d</fix>
</trkpt>
<trkpt lat="40.072885" lon="-105.2306682">
  <ele>1595.68</ele>
  <time>2026-08-27T18:29:00Z</time>
  <course>8.48</course>
  <speed>0.7496665925596525</speed>
  <fix>3d</fix>
</trkpt>
<trkpt lat="40.0728839" lon="-105.2306683">
  <ele>1595.61</ele>
  <time>2026-08-27T18:29:00Z</time>
  <course>13.96</course>
  <speed>0.66</speed>
  <fix>3d</fix>
</trkpt>
<trkpt lat="40.0728863" lon="-105.230668">
  <ele>1595.68</ele>
  <time>2026-08-27T18:29:00Z</time>
  <course>8.5</course>
  <speed>0.7922752047110904</speed>
  <fix>3d</fix>
</trkpt>
<trkpt lat="40.0728852" lon="-105.230668">
  <ele>1595.61</ele>
  <time>2026-08-27T18:29:00Z</time>
  <course>8.18</course>
  <speed>0.75</speed>
  <fix>3d</fix>
</trkpt>
<trkpt lat="40.0728877" lon="-105.2306679">
  <ele>1595.68</ele>
  <time>2026-08-27T18:29:00Z</time>
  <course>8.56</course>
  <speed>0.75</speed>
  <fix>3d</fix>
</trkpt>
<trkpt lat="40.0728865" lon="-105.2306678">
  <ele>1595.61</ele>
  <time>2026-08-27T18:29:00Z</time>
  <course>3.38</course>
  <speed>0.77</speed>
  <fix>3d</fix>
</trkpt>
<trkpt lat="40.0728889" lon="-105.230668">
  <ele>1595.68</ele>
  <time>2026-08-27T18:29:00Z</time>
  <course>8.61</course>
  <speed>0.6438167441127949</speed>
  <fix>3d</fix>
</trkpt>
<trkpt lat="40.072888" lon="-105.2306677">
  <ele>1595.61</ele>
  <time>2026-08-27T18:29:00Z</time>
  <course>358.51</course>
  <speed>0.72</speed>
  <fix>3d</fix>
</trkpt>
<trkpt lat="40.0728899" lon="-105.2306681">
  <ele>1595.68</ele>
  <time>2026-08-27T18:29:00Z</time>
  <course>8.67</course>
  <speed>0.4780167361086848</speed>
  <fix>3d</fix>
</trkpt>
<trkpt lat="40.0728892" lon="-105.2306678">
  <ele>1595.61</ele>
  <time>2026-08-27T18:29:00Z</time>
  <course>352.38</course>
  <speed>0.6</speed>
  <fix>3d</fix>
</trkpt>
<trkpt lat="40.0728905" lon="-105.2306684">
  <ele>1595.68</ele>
  <time>2026-08-27T18:29:00Z</time>
  <course>8.69</course>
  <speed>0.28600699292150183</speed>
  <fix>3d</fix>
</trkpt>
<trkpt lat="40.07289" lon="-105.230668">
  <ele>1595.61</ele>
  <time>2026-08-27T18:29:00Z</time>
  <course>342.12</course>
  <speed>0.42</speed>
  <fix>3d</fix>
</trkpt>
<trkpt lat="40.0728907" lon="-105.2306688">
  <ele>1595.68</ele>
  <time>2026-08-27T18:29:00Z</time>
  <course>8.67</course>
  <speed>0.2002498439450079</speed>
  <fix>3d</fix>
</trkpt>
<trkpt lat="40.0728906" lon="-105.2306684">
  <ele>1595.62</ele>
  <time>2026-08-27T18:29:00Z</time>
  <course>316.0</course>
  <speed>0.24</speed>
  <fix>3d</fix>
</trkpt>
<trkpt lat="40.0728906" lon="-105.2306693">
  <ele>1595.68</ele>
  <time>2026-08-27T18:29:00Z</time>
  <course>8.63</course>
  <speed>0.33421549934136807</speed>
  <fix>3d</fix>
</trkpt>
<trkpt lat="40.0728907" lon="-105.2306688">
  <ele>1595.61</ele>
  <time>2026-08-27T18:29:00Z</time>
  <course>247.68</course>
  <speed>0.2</speed>
  <fix>3d</fix>
</trkpt>
<trkpt lat="40.0728899" lon="-105.2306697">
  <ele>1595.67</ele>
  <time>2026-08-27T18:29:00Z</time>
  <course>8.55</course>
  <speed>0.5292447448959696</speed>
  <fix>3d</fix>
</trkpt>
<trkpt lat="40.0728905" lon="-105.2306692">
  <ele>1595.61</ele>
  <time>2026-08-27T18:29:00Z</time>
  <course>210.2</course>
  <speed>0.37</speed>
  <fix>3d</fix>
</trkpt>
<trkpt lat="40.0728889" lon="-105.2306701">
  <ele>1595.67</ele>
  <time>2026-08-27T18:29:00Z</time>
  <course>8.53</course>
  <speed>0.6912307863514182</speed>
  <fix>3d</fix>
</trkpt>
<trkpt lat="40.0728897" lon="-105.2306697">
  <ele>1595.61</ele>
  <time>2026-08-27T18:29:00Z</time>
  <course>197.39</course>
  <speed>0.57</speed>
  <fix>3d</fix>
</trkpt>
<trkpt lat="40.0728876" lon="-105.2306704">
  <ele>1595.66</ele>
  <time>2026-08-27T18:29:00Z</time>
  <course>8.51</course>
  <speed>0.7990619500389191</speed>
  <fix>3d</fix>
</trkpt>
<trkpt lat="40.0728885" lon="-105.2306701">
  <ele>1595.6</ele>
  <time>2026-08-27T18:29:00Z</time>
  <course>190.61</course>
  <speed>0.73</speed>
  <fix>3d</fix>
</trkpt>
<trkpt lat="40.0728862" lon="-105.2306706">
  <ele>1595.67</ele>
  <time>2026-08-27T18:29:00Z</time>
  <course>8.49</course>
  <speed>0.8321658488546619</speed>
  <fix>3d</fix>
</trkpt>
<trkpt lat="40.0728871" lon="-105.2306704">
  <ele>1595.6</ele>
  <time>2026-08-27T18:29:00Z</time>
  <course>185.77</course>
  <speed>0.82</speed>
  <fix>3d</fix>
</trkpt>
<trkpt lat="40.0728847" lon="-105.2306706">
  <ele>1595.67</ele>
  <time>2026-08-27T18:29:00Z</time>
  <course>8.49</course>
  <speed>0.79</speed>
  <fix>3d</fix>
</trkpt>
<trkpt lat="40.0728856" lon="-105.2306705">
  <ele>1595.6</ele>
  <time>2026-08-27T18:29:00Z</time>
  <course>181.49</course>
  <speed>0.85</speed>
  <fix>3d</fix>
</trkpt>
<trkpt lat="40.0728833" lon="-105.2306705">
  <ele>1595.68</ele>
  <time>2026-08-27T18:29:00Z</time>
  <course>8.52</course>
  <speed>0.6835934464285041</speed>
  <fix>3d</fix>
</trkpt>
<trkpt lat="40.072884" lon="-105.2306705">
  <ele>1595.61</ele>
  <time>2026-08-27T18:29:00Z</time>
  <course>176.92</course>
  <speed>0.8</speed>
  <fix>3d</fix>
</trkpt>
<trkpt lat="40.0728822" lon="-105.2306703">
  <ele>1595.69</ele>
  <time>2026-08-27T18:29:00Z</time>
  <course>8.6</course>
  <speed>0.5141984052872977</speed>
  <fix>3d</fix>
</trkpt>
<trkpt lat="40.0728827" lon="-105.2306704">
  <ele>1595.61</ele>
  <time>2026-08-27T18:29:00Z</time>
  <course>171.12</course>
  <speed>0.68</speed>
  <fix>3d</fix>
</trkpt>
<trkpt lat="40.0728815" lon="-105.2306699">
  <ele>1595.69</ele>
  <time>2026-08-27T18:29:00Z</time>
  <course>8.61</course>
  <speed>0.327566787083184</speed>
  <fix>3d</fix>
</trkpt>
<trkpt lat="40.0728817" lon="-105.2306701">
  <ele>1595.61</ele>
  <time>2026-08-27T18:29:00Z</time>
  <course>161.9</course>
  <speed>0.51</speed>
  <fix>3d</fix>
</trkpt>
<trkpt lat="40.0728811" lon="-105.2306694">
  <ele>1595.69</ele>
  <time>2026-08-27T18:29:00Z</time>
  <course>8.63</course>
  <speed>0.20223748416156684</speed>
  <fix>3d</fix>
</trkpt>
<trkpt lat="40.072881" lon="-105.2306696">
  <ele>1595.61</ele>
  <time>2026-08-27T18:29:00Z</time>
  <course>142.07</course>
  <speed>0.32</speed>
  <fix>3d</fix>
</trkpt>
<trkpt lat="40.0728811" lon="-105.2306689">
  <ele>1595.7</ele>
  <time>2026-08-27T18:29:00Z</time>
  <course>8.61</course>
  <speed>0.29698484809834996</speed>
  <fix>3d</fix>
</trkpt>
<trkpt lat="40.0728808" lon="-105.2306691">
  <ele>1595.61</ele>
  <time>2026-08-27T18:29:00Z</time>
  <course>90.56</course>
  <speed>0.21</speed>
  <fix>3d</fix>
</trkpt>
<trkpt lat="40.0728815" lon="-105.2306684">
  <ele>1595.68</ele>
  <time>2026-08-27T18:29:00Z</time>
  <course>8.85</course>
  <speed>0.42485291572496003</speed>
  <fix>3d</fix>
</trkpt>
<trkpt lat="40.0728809" lon="-105.2306686">
  <ele>1595.6</ele>
  <time>2026-08-27T18:29:00Z</time>
  <course>44.12</course>
  <speed>0.31</speed>
  <fix>3d</fix>
</trkpt>
<trkpt lat="40.0728822" lon="-105.230668">
  <ele>1595.63</ele>
  <time>2026-08-27T18:29:00Z</time>
  <course>9.73</course>
  <speed>0.4838388161361178</speed>
  <fix>3d</fix>
</trkpt>
<trkpt lat="40.0728814" lon="-105.2306681">
  <ele>1595.58</ele>
  <time>2026-08-27T18:29:00Z</time>
  <course>26.96</course>
  <speed>0.42</speed>
  <fix>3d</fix>
</trkpt>
<trkpt lat="40.072883" lon="-105.2306676">
  <ele>1595.5</ele>
  <time>2026-08-27T18:29:00Z</time>
  <course>11.03</course>
  <speed>0.49244289008980524</speed>
  <fix>3d</fix>
</trkpt>
<trkpt lat="40.0728822" lon="-105.2306677">
  <ele>1595.5</ele>
  <time>2026-08-27T18:29:00Z</time>
  <course>18.56</course>
  <speed>0.47</speed>
  <fix>3d</fix>
</trkpt>
<trkpt lat="40.0728838" lon="-105.2306674">
  <ele>1595.28</ele>
  <time>2026-08-27T18:29:00Z</time>
  <course>12.19</course>
  <speed>0.4883646178829912</speed>
  <fix>3d</fix>
</trkpt>
<trkpt lat="40.0728831" lon="-105.2306674">
  <ele>1595.35</ele>
  <time>2026-08-27T18:29:00Z</time>
  <course>13.89</course>
  <speed>0.49</speed>
  <fix>3d</fix>
</trkpt>
<trkpt lat="40.0728846" lon="-105.2306671">
  <ele>1594.95</ele>
  <time>2026-08-27T18:29:00Z</time>
  <course>12.86</course>
  <speed>0.4669047011971501</speed>
  <fix>3d</fix>
</trkpt>
<trkpt lat="40.0728839" lon="-105.2306672">
  <ele>1595.1</ele>
  <time>2026-08-27T18:29:00Z</time>
  <course>11.73</course>
  <speed>0.48</speed>
  <fix>3d</fix>
</trkpt>
<trkpt lat="40.0728854" lon="-105.2306669">
  <ele>1594.55</ele>
  <time>2026-08-27T18:29:00Z</time>
  <course>13.12</course>
  <speed>0.447213595499958</speed>
  <fix>3d</fix>
</trkpt>
<trkpt lat="40.0728848" lon="-105.2306669">
  <ele>1594.75</ele>
  <time>2026-08-27T18:29:00Z</time>
  <course>11.57</course>
  <speed>0.46</speed>
  <fix>3d</fix>
</trkpt>
<trkpt lat="40.0728861" lon="-105.2306667">
  <ele>1594.1</ele>
  <time>2026-08-27T18:29:00Z</time>
  <course>13.14</course>
  <speed>0.4220189569201838</speed>
  <fix>3d</fix>
</trkpt>
<trkpt lat="40.0728855" lon="-105.2306667">
  <ele>1594.33</ele>
  <time>2026-08-27T18:29:00Z</time>
  <course>13.08</course>
  <speed>0.44</speed>
  <fix>3d</fix>
</trkpt>
<trkpt lat="40.0728868" lon="-105.2306664">
  <ele>1593.6</ele>
  <time>2026-08-27T18:29:00Z</time>
  <course>13.05</course>
  <speed>0.4080441152620633</speed>
  <fix>3d</fix>
</trkpt>
<trkpt lat="40.0728863" lon="-105.2306664">
  <ele>1593.86</ele>
  <time>2026-08-27T18:29:00Z</time>
  <course>15.95</course>
  <speed>0.42</speed>
  <fix>3d</fix>
</trkpt>
<trkpt lat="40.0728875" lon="-105.2306661">
  <ele>1593.08</ele>
  <time>2026-08-27T18:29:00Z</time>
  <course>12.95</course>
  <speed>0.3956008088970496</speed>
  <fix>3d</fix>
</trkpt>
<trkpt lat="40.072887" lon="-105.2306661">
  <ele>1593.36</ele>
  <time>2026-08-27T18:29:00Z</time>
  <course>19.77</course>
  <speed>0.41</speed>
  <fix>3d</fix>
</trkpt>
<trkpt lat="40.0728882" lon="-105.2306657">
  <ele>1592.55</ele>
  <time>2026-08-27T18:29:00Z</time>
  <course>12.74</course>
  <speed>0.38910152916687435</speed>
  <fix>3d</fix>
</trkpt>
<trkpt lat="40.0728877" lon="-105.2306658">
  <ele>1592.85</ele>
  <time>2026-08-27T18:29:00Z</time>
  <course>24.1</course>
  <speed>0.4</speed>
  <fix>3d</fix>
</trkpt>
<trkpt lat="40.0728888" lon="-105.2306652">
  <ele>1592.01</ele>
  <time>2026-08-27T18:29:00Z</time>
  <course>12.51</course>
  <speed>0.38948684188300897</speed>
  <fix>3d</fix>
</trkpt>
<trkpt lat="40.0728883" lon="-105.2306653">
  <ele>1592.32</ele>
  <time>2026-08-27T18:29:00Z</time>
  <course>28.52</course>
  <speed>0.39</speed>
  <fix>3d</fix>
</trkpt>
<trkpt lat="40.0728894" lon="-105.2306647">
  <ele>1591.48</ele>
  <time>2026-08-27T18:29:00Z</time>
  <course>12.35</course>
  <speed>0.3911521443121589</speed>
  <fix>3d</fix>
</trkpt>
<trkpt lat="40.072889" lon="-105.2306649">
  <ele>1591.8</ele>
  <time>2026-08-27T18:29:00Z</time>
  <course>32.68</course>
  <speed>0.39</speed>
  <fix>3d</fix>
</trkpt>
<trkpt lat="40.0728899" lon="-105.2306641">
  <ele>1590.95</ele>
  <time>2026-08-27T18:29:00Z</time>
  <course>12.17</course>
  <speed>0.38600518131237566</speed>
  <fix>3d</fix>
</trkpt>
<trkpt lat="40.0728895" lon="-105.2306644">
  <ele>1591.28</ele>
  <time>2026-08-27T18:29:00Z</time>
  <course>36.49</course>
  <speed>0.39</speed>
  <fix>3d</fix>
</trkpt>
<trkpt lat="40.0728905" lon="-105.2306635">
  <ele>1590.44</ele>
  <time>2026-08-27T18:29:00Z</time>
  <course>12.04</course>
  <speed>0.3905124837953327</speed>
  <fix>3d</fix>
</trkpt>
<trkpt lat="40.0728901" lon="-105.2306638">
  <ele>1590.76</ele>
  <time>2026-08-27T18:29:00Z</time>
  <course>39.89</course>
  <speed>0.4</speed>
  <fix>3d</fix>
</trkpt>
<trkpt lat="40.072891" lon="-105.2306629">
  <ele>1589.93</ele>
  <time>2026-08-27T18:29:00Z</time>
  <course>11.92</course>
  <speed>0.38948684188300897</speed>
  <fix>3d</fix>
</trkpt>
<trkpt lat="40.0728907" lon="-105.2306632">
  <ele>1590.26</ele>
  <time>2026-08-27T18:29:00Z</time>
  <course>42.88</course>
  <speed>0.4</speed>
  <fix>3d</fix>
</trkpt>
<trkpt lat="40.0728915" lon="-105.2306622">
  <ele>1589.43</ele>
  <time>2026-08-27T18:29:00Z</time>
  <course>11.86</course>
  <speed>0.3959797974644666</speed>
  <fix>3d</fix>
</trkpt>
<trkpt lat="40.0728912" lon="-105.2306625">
  <ele>1589.76</ele>
  <time>2026-08-27T18:29:00Z</time>
  <course>45.57</course>
  <speed>0.4</speed>
  <fix>3d</fix>
</trkpt>
<trkpt lat="40.072892" lon="-105.2306615">
  <ele>1588.93</ele>
  <time>2026-08-27T18:29:00Z</time>
  <course>11.77</course>
  <speed>0.396232255123179</speed>
  <fix>3d</fix>
</trkpt>
<trkpt lat="40.0728917" lon="-105.2306618">
  <ele>1589.26</ele>
  <time>2026-08-27T18:29:00Z</time>
  <course>48.04</course>
  <speed>0.4</speed>
  <fix>3d</fix>
</trkpt>
<trkpt lat="40.0728925" lon="-105.2306608">
  <ele>1588.44</ele>
  <time>2026-08-27T18:29:00Z</time>
  <course>11.69</course>
  <speed>0.39698866482558415</speed>
  <fix>3d</fix>
</trkpt>
<trkpt lat="40.0728922" lon="-105.230661">
  <ele>1588.76</ele>
  <time>2026-08-27T18:29:00Z</time>
  <course>50.24</course>
  <speed>0.41</speed>
  <fix>3d</fix>
</trkpt>
<trkpt lat="40.072893" lon="-105.23066">
  <ele>1587.94</ele>
  <time>2026-08-27T18:29:00Z</time>
  <course>11.64</course>
  <speed>0.4045985664828782</speed>
  <fix>3d</fix>
</trkpt>
<trkpt lat="40.0728926" lon="-105.2306603">
  <ele>1588.27</ele>
  <time>2026-08-27T18:29:00Z</time>
  <course>52.1</course>
  <speed>0.41</speed>
  <fix>3d</fix>
</trkpt>
<trkpt lat="40.0728934" lon="-105.2306592">
  <ele>1587.43</ele>
  <time>2026-08-27T18:29:00Z</time>
  <course>11.56</course>
  <speed>0.40607881008493907</speed>
  <fix>3d</fix>
</trkpt>
<trkpt lat="40.0728931" lon="-105.2306596">
  <ele>1587.77</ele>
  <time>2026-08-27T18:29:00Z</time>
  <course>53.71</course>
  <speed>0.41</speed>
  <fix>3d</fix>
</trkpt>
<trkpt lat="40.0728938" lon="-105.2306584">
  <ele>1586.93</ele>
  <time>2026-08-27T18:29:00Z</time>
  <course>11.49</course>
  <speed>0.4</speed>
  <fix>3d</fix>
</trkpt>
<trkpt lat="40.0728935" lon="-105.2306587">
  <ele>1587.28</ele>
  <time>2026-08-27T18:29:00Z</time>
  <course>55.22</course>
  <speed>0.41</speed>
  <fix>3d</fix>
</trkpt>
<trkpt lat="40.0728942" lon="-105.2306576">
  <ele>1586.43</ele>
  <time>2026-08-27T18:29:00Z</time>
  <course>11.42</course>
  <speed>0.4080441152620633</speed>
  <fix>3d</fix>
</trkpt>
<trkpt lat="40.072894" lon="-105.2306579">
  <ele>1586.79</ele>
  <time>2026-08-27T18:29:00Z</time>
  <course>56.65</course>
  <speed>0.41</speed>
  <fix>3d</fix>
</trkpt>
<trkpt lat="40.0728946" lon="-105.2306568">
  <ele>1585.94</ele>
  <time>2026-08-27T18:29:00Z</time>
  <course>11.34</course>
  <speed>0.41048751503547587</speed>
  <fix>3d</fix>
</trkpt>
<trkpt lat="40.0728943" lon="-105.2306571">
  <ele>1586.29</ele>
  <time>2026-08-27T18:29:00Z</time>
  <course>57.99</course>
  <speed>0.42</speed>
  <fix>3d</fix>
</trkpt>
<trkpt lat="40.0728948" lon="-105.2306566">
  <ele>1585.77</ele>
  <time>2026-08-27T18:29:00Z</time>
  <course>11.34</course>
  <speed>0.12041594578792296</speed>
  <fix>3d</fix>
</trkpt>
<trkpt lat="40.0728947" lon="-105.2306564">
  <ele>1585.89</ele>
  <time>2026-08-27T18:29:00Z</time>
  <course>56.78</course>
  <speed>0.19</speed>
  <fix>3d</fix>
</trkpt>
<trkpt lat="40.0728948" lon="-105.2306567">
  <ele>1585.88</ele>
  <time>2026-08-27T18:29:00Z</time>
  <course>11.36</course>
  <speed>0.06</speed>
  <fix>3d</fix>
</trkpt>
<trkpt lat="40.0728947" lon="-105.2306562">
  <ele>1585.8</ele>
  <time>2026-08-27T18:29:00Z</time>
  <course>245.79</course>
  <speed>0.05</speed>
  <fix>3d</fix>
</trkpt>
<trkpt lat="40.0728948" lon="-105.2306566">
  <ele>1585.88</ele>
  <time>2026-08-27T18:29:00Z</time>
  <course>11.37</course>
  <speed>0.03</speed>
  <fix>3d</fix>
</trkpt>
<trkpt lat="40.0728947" lon="-105.2306564">
  <ele>1585.87</ele>
  <time>2026-08-27T18:29:00Z</time>
  <course>238.76</course>
  <speed>0.03</speed>
  <fix>3d</fix>
</trkpt>
<trkpt lat="40.0728948" lon="-105.2306566">
  <ele>1585.86</ele>
  <time>2026-08-27T18:29:00Z</time>
  <course>11.38</course>
  <speed>0.0316227766016838</speed>
  <fix>3d</fix>
</trkpt>
<trkpt lat="40.0728947" lon="-105.2306564">
  <ele>1585.88</ele>
  <time>2026-08-27T18:29:00Z</time>
  <course>64.14</course>
  <speed>0.01</speed>
  <fix>3d</fix>
</trkpt>
<trkpt lat="40.0728948" lon="-105.2306566">
  <ele>1585.86</ele>
  <time>2026-08-27T18:29:00Z</time>
  <course>11.41</course>
  <speed>0.022360679774997897</speed>
  <fix>3d</fix>
</trkpt>
<trkpt lat="40.0728947" lon="-105.2306564">
  <ele>1585.87</ele>
  <time>2026-08-27T18:29:00Z</time>
  <course>67.61</course>
  <speed>0.0</speed>
  <fix>3d</fix>
</trkpt>
<trkpt lat="40.0728948" lon="-105.2306566">
  <ele>1585.86</ele>
  <time>2026-08-27T18:29:00Z</time>
  <course>11.44</course>
  <speed>0.022360679774997897</speed>
  <fix>3d</fix>
</trkpt>
<trkpt lat="40.0728947" lon="-105.2306564">
  <ele>1585.87</ele>
  <time>2026-08-27T18:29:00Z</time>
  <course>173.64</course>
  <speed>0.0</speed>
  <fix>3d</fix>
</trkpt>
<trkpt lat="40.0728948" lon="-105.2306566">
  <ele>1585.86</ele>
  <time>2026-08-27T18:29:00Z</time>
  <course>11.48</course>
  <speed>0.022360679774997897</speed>
  <fix>3d</fix>
</trkpt>
<trkpt lat="40.0728947" lon="-105.2306564">
  <ele>1585.87</ele>
  <time>2026-08-27T18:29:00Z</time>
  <course>96.89</course>
  <speed>0.0</speed>
  <fix>3d</fix>
</trkpt>
<trkpt lat="40.0728948" lon="-105.2306566">
  <ele>1585.86</ele>
  <time>2026-08-27T18:29:00Z</time>
  <course>11.51</course>
  <speed>0.022360679774997897</speed>
  <fix>3d</fix>
</trkpt>
<trkpt lat="40.0728947" lon="-105.2306564">
  <ele>1585.87</ele>
  <time>2026-08-27T18:29:00Z</time>
  <course>87.25</course>
  <speed>0.0</speed>
  <fix>3d</fix>
</trkpt>
<trkpt lat="40.0728948" lon="-105.2306566">
  <ele>1585.86</ele>
  <time>2026-08-27T18:29:00Z</time>
  <course>11.54</course>
  <speed>0.022360679774997897</speed>
  <fix>3d</fix>
</trkpt>
<trkpt lat="40.0728947" lon="-105.2306564">
  <ele>1585.87</ele>
  <time>2026-08-27T18:29:00Z</time>
  <course>89.13</course>
  <speed>0.0</speed>
  <fix>3d</fix>
</trkpt>
<trkpt lat="40.0728948" lon="-105.2306566">
  <ele>1585.86</ele>
  <time>2026-08-27T18:29:00Z</time>
  <course>11.56</course>
  <speed>0.022360679774997897</speed>
  <fix>3d</fix>
</trkpt>
<trkpt lat="40.0728947" lon="-105.2306564">
  <ele>1585.87</ele>
  <time>2026-08-27T18:29:00Z</time>
  <course>88.73</course>
  <speed>0.0</speed>
  <fix>3d</fix>
</trkpt>
<trkpt lat="40.0728948" lon="-105.2306566">
  <ele>1585.86</ele>
  <time>2026-08-27T18:29:00Z</time>
  <course>11.58</course>
  <speed>0.02</speed>
  <fix>3d</fix>
</trkpt>
<trkpt lat="40.0728947" lon="-105.2306564">
  <ele>1585.87</ele>
  <time>2026-08-27T18:29:00Z</time>
  <course>91.11</course>
  <speed>0.0</speed>
  <fix>3d</fix>
</trkpt>
<trkpt lat="40.0728948" lon="-105.2306566">
  <ele>1585.86</ele>
  <time>2026-08-27T18:29:00Z</time>
  <course>11.58</course>
  <speed>0.02</speed>
  <fix>3d</fix>
</trkpt>
<trkpt lat="40.0728947" lon="-105.2306564">
  <ele>1585.87</ele>
  <time>2026-08-27T18:29:00Z</time>
  <course>111.43</course>
  <speed>0.0</speed>
  <fix>3d</fix>
</trkpt>
<trkpt lat="40.0728948" lon="-105.2306566">
  <ele>1585.86</ele>
  <time>2026-08-27T18:29:00Z</time>
  <course>11.58</course>
  <speed>0.022360679774997897</speed>
  <fix>3d</fix>
</trkpt>
<trkpt lat="40.0728947" lon="-105.2306564">
  <ele>1585.87</ele>
  <time>2026-08-27T18:29:00Z</time>
  <course>137.38</course>
  <speed>0.0</speed>
  <fix>3d</fix>
</trkpt>
<trkpt lat="40.0728948" lon="-105.2306566">
  <ele>1585.86</ele>
  <time>2026-08-27T18:29:01Z</time>
  <course>11.57</course>
  <speed>0.022360679774997897</speed>
  <fix>3d</fix>
</trkpt>
<trkpt lat="40.0728947" lon="-105.2306564">
  <ele>1585.87</ele>
  <time>2026-08-27T18:29:01Z</time>
  <course>215.9</course>
  <speed>0.0</speed>
  <fix>3d</fix>
</trkpt>
<trkpt lat="40.0728948" lon="-105.2306566">
  <ele>1585.86</ele>
  <time>2026-08-27T18:29:01Z</time>
  <course>11.56</course>
  <speed>0.022360679774997897</speed>
  <fix>3d</fix>
</trkpt>
<trkpt lat="40.0728947" lon="-105.2306564">
  <ele>1585.87</ele>
  <time>2026-08-27T18:29:01Z</time>
  <course>250.29</course>
  <speed>0.0</speed>
  <fix>3d</fix>
</trkpt>
<trkpt lat="40.0728948" lon="-105.2306566">
  <ele>1585.86</ele>
  <time>2026-08-27T18:29:01Z</time>
  <course>11.55</course>
  <speed>0.022360679774997897</speed>
  <fix>3d</fix>
</trkpt>
<trkpt lat="40.0728947" lon="-105.2306564">
  <ele>1585.87</ele>
  <time>2026-08-27T18:29:01Z</time>
  <course>239.86</course>
  <speed>0.0</speed>
  <fix>3d</fix>
</trkpt>
<trkpt lat="40.0728948" lon="-105.2306566">
  <ele>1585.86</ele>
  <time>2026-08-27T18:29:01Z</time>
  <course>11.54</course>
  <speed>0.022360679774997897</speed>
  <fix>3d</fix>
</trkpt>
<trkpt lat="40.0728947" lon="-105.2306564">
  <ele>1585.87</ele>
  <time>2026-08-27T18:29:01Z</time>
  <course>241.57</course>
  <speed>0.0</speed>
  <fix>3d</fix>
</trkpt>
<trkpt lat="40.0728948" lon="-105.2306566">
  <ele>1585.86</ele>
  <time>2026-08-27T18:29:01Z</time>
  <course>11.53</course>
  <speed>0.022360679774997897</speed>
  <fix>3d</fix>
</trkpt>
<trkpt lat="40.0728947" lon="-105.2306564">
  <ele>1585.87</ele>
  <time>2026-08-27T18:29:01Z</time>
  <course>250.12</course>
  <speed>0.0</speed>
  <fix>3d</fix>
</trkpt>
<trkpt lat="40.0728948" lon="-105.2306566">
  <ele>1585.86</ele>
  <time>2026-08-27T18:29:01Z</time>
  <course>11.52</course>
  <speed>0.022360679774997897</speed>
  <fix>3d</fix>
</trkpt>
<trkpt lat="40.0728947" lon="-105.2306564">
  <ele>1585.87</ele>
  <time>2026-08-27T18:29:01Z</time>
  <course>270.29</course>
  <speed>0.0</speed>
  <fix>3d</fix>
</trkpt>
<trkpt lat="40.0728948" lon="-105.2306566">
  <ele>1585.86</ele>
  <time>2026-08-27T18:29:01Z</time>
  <course>11.52</course>
  <speed>0.022360679774997897</speed>
  <fix>3d</fix>
</trkpt>
<trkpt lat="40.0728947" lon="-105.2306564">
  <ele>1585.87</ele>
  <time>2026-08-27T18:29:01Z</time>
  <course>296.92</course>
  <speed>0.0</speed>
  <fix>3d</fix>
</trkpt>
<trkpt lat="40.0728948" lon="-105.2306566">
  <ele>1585.87</ele>
  <time>2026-08-27T18:29:01Z</time>
  <course>11.51</course>
  <speed>0.022360679774997897</speed>
  <fix>3d</fix>
</trkpt>
<trkpt lat="40.0728947" lon="-105.2306564">
  <ele>1585.87</ele>
  <time>2026-08-27T18:29:01Z</time>
  <course>282.47</course>
  <speed>0.0</speed>
  <fix>3d</fix>
</trkpt>
<trkpt lat="40.0728948" lon="-105.2306565">
  <ele>1585.87</ele>
  <time>2026-08-27T18:29:01Z</time>
  <course>11.51</course>
  <speed>0.01414213562373095</speed>
  <fix>3d</fix>
</trkpt>
<trkpt lat="40.0728947" lon="-105.2306564">
  <ele>1585.87</ele>
  <time>2026-08-27T18:29:01Z</time>
  <course>241.47</course>
  <speed>0.0</speed>
  <fix>3d</fix>
</trkpt>
<trkpt lat="40.0728948" lon="-105.2306565">
  <ele>1585.87</ele>
  <time>2026-08-27T18:29:01Z</time>
  <course>11.5</course>
  <speed>0.01414213562373095</speed>
  <fix>3d</fix>
</trkpt>
<trkpt lat="40.0728947" lon="-105.2306564">
  <ele>1585.87</ele>
  <time>2026-08-27T18:29:01Z</time>
  <course>234.41</course>
  <speed>0.0</speed>
  <fix>3d</fix>
</trkpt>
<trkpt lat="40.0728948" lon="-105.2306565">
  <ele>1585.87</ele>
  <time>2026-08-27T18:29:01Z</time>
  <course>11.49</course>
  <speed>0.01414213562373095</speed>
  <fix>3d</fix>
</trkpt>
<trkpt lat="40.0728947" lon="-105.2306564">
  <ele>1585.87</ele>
  <time>2026-08-27T18:29:01Z</time>
  <course>290.42</course>
  <speed>0.0</speed>
  <fix>3d</fix>
</trkpt>
<trkpt lat="40.0728948" lon="-105.2306565">
  <ele>1585.87</ele>
  <time>2026-08-27T18:29:01Z</time>
  <course>11.49</course>
  <speed>0.01414213562373095</speed>
  <fix>3d</fix>
</trkpt>
<trkpt lat="40.0728947" lon="-105.2306564">
  <ele>1585.87</ele>
  <time>2026-08-27T18:29:01Z</time>
  <course>290.39</course>
  <speed>0.0</speed>
  <fix>3d</fix>
</trkpt>
<trkpt lat="40.0728948" lon="-105.2306565">
  <ele>1585.87</ele>
  <time>2026-08-27T18:29:01Z</time>
  <course>11.48</course>
  <speed>0.01414213562373095</speed>
  <fix>3d</fix>
</trkpt>
<trkpt lat="40.0728947" lon="-105.2306564">
  <ele>1585.87</ele>
  <time>2026-08-27T18:29:01Z</time>
  <course>276.42</course>
  <speed>0.0</speed>
  <fix>3d</fix>
</trkpt>
<trkpt lat="40.0728948" lon="-105.2306565">
  <ele>1585.87</ele>
  <time>2026-08-27T18:29:01Z</time>
  <course>11.48</course>
  <speed>0.01414213562373095</speed>
  <fix>3d</fix>
</trkpt>
<trkpt lat="40.0728947" lon="-105.2306564">
  <ele>1585.87</ele>
  <time>2026-08-27T18:29:01Z</time>
  <course>354.27</course>
  <speed>0.0</speed>
  <fix>3d</fix>
</trkpt>
<trkpt lat="40.0728948" lon="-105.2306565">
  <ele>1585.87</ele>
  <time>2026-08-27T18:29:01Z</time>
  <course>11.47</course>
  <speed>0.01414213562373095</speed>
  <fix>3d</fix>
</trkpt>
<trkpt lat="40.0728947" lon="-105.2306564">
  <ele>1585.87</ele>
  <time>2026-08-27T18:29:01Z</time>
  <course>10.63</course>
  <speed>0.0</speed>
  <fix>3d</fix>
</trkpt>
<trkpt lat="40.0728948" lon="-105.2306565">
  <ele>1585.88</ele>
  <time>2026-08-27T18:29:01Z</time>
  <course>11.47</course>
  <speed>0.01414213562373095</speed>
  <fix>3d</fix>
</trkpt>
<trkpt lat="40.0728947" lon="-105.2306564">
  <ele>1585.87</ele>
  <time>2026-08-27T18:29:01Z</time>
  <course>299.04</course>
  <speed>0.0</speed>
  <fix>3d</fix>
</trkpt>
<trkpt lat="40.0728948" lon="-105.2306565">
  <ele>1585.88</ele>
  <time>2026-08-27T18:29:01Z</time>
  <course>11.47</course>
  <speed>0.01414213562373095</speed>
  <fix>3d</fix>
</trkpt>
<trkpt lat="40.0728947" lon="-105.2306564">
  <ele>1585.87</ele>
  <time>2026-08-27T18:29:01Z</time>
  <course>252.94</course>
  <speed>0.0</speed>
  <fix>3d</fix>
</trkpt>
<trkpt lat="40.0728948" lon="-105.2306565">
  <ele>1585.88</ele>
  <time>2026-08-27T18:29:01Z</time>
  <course>11.46</course>
  <speed>0.01414213562373095</speed>
  <fix>3d</fix>
</trkpt>
<trkpt lat="40.0728947" lon="-105.2306564">
  <ele>1585.87</ele>
  <time>2026-08-27T18:29:01Z</time>
  <course>282.08</course>
  <speed>0.0</speed>
  <fix>3d</fix>
</trkpt>
<trkpt lat="40.0728948" lon="-105.2306565">
  <ele>1585.88</ele>
  <time>2026-08-27T18:29:01Z</time>
  <course>11.46</course>
  <speed>0.01414213562373095</speed>
  <fix>3d</fix>
</trkpt>
<trkpt lat="40.0728947" lon="-105.2306564">
  <ele>1585.87</ele>
  <time>2026-08-27T18:29:01Z</time>
  <course>286.84</course>
  <speed>0.0</speed>
  <fix>3d</fix>
</trkpt>
<trkpt lat="40.0728948" lon="-105.2306565">
  <ele>1585.88</ele>
  <time>2026-08-27T18:29:01Z</time>
  <course>11.45</course>
  <speed>0.01414213562373095</speed>
  <fix>3d</fix>
</trkpt>
<trkpt lat="40.0728947" lon="-105.2306564">
  <ele>1585.87</ele>
  <time>2026-08-27T18:29:01Z</time>
  <course>280.38</course>
  <speed>0.0</speed>
  <fix>3d</fix>
</trkpt>
<trkpt lat="40.0728948" lon="-105.2306565">
  <ele>1585.88</ele>
  <time>2026-08-27T18:29:01Z</time>
  <course>11.45</course>
  <speed>0.01414213562373095</speed>
  <fix>3d</fix>
</trkpt>
<trkpt lat="40.0728947" lon="-105.2306564">
  <ele>1585.87</ele>
  <time>2026-08-27T18:29:01Z</time>
  <course>280.5</course>
  <speed>0.0</speed>
  <fix>3d</fix>
</trkpt>
<trkpt lat="40.0728948" lon="-105.2306565">
  <ele>1585.89</ele>
  <time>2026-08-27T18:29:01Z</time>
  <course>11.45</course>
  <speed>0.01414213562373095</speed>
  <fix>3d</fix>
</trkpt>
<trkpt lat="40.0728947" lon="-105.2306564">
  <ele>1585.87</ele>
  <time>2026-08-27T18:29:01Z</time>
  <course>281.61</course>
  <speed>0.0</speed>
  <fix>3d</fix>
</trkpt>
<trkpt lat="40.0728948" lon="-105.2306565">
  <ele>1585.89</ele>
  <time>2026-08-27T18:29:01Z</time>
  <course>11.44</course>
  <speed>0.01414213562373095</speed>
  <fix>3d</fix>
</trkpt>
<trkpt lat="40.0728947" lon="-105.2306564">
  <ele>1585.87</ele>
  <time>2026-08-27T18:29:01Z</time>
  <course>281.52</course>
  <speed>0.0</speed>
  <fix>3d</fix>
</trkpt>
<trkpt lat="40.0728948" lon="-105.2306565">
  <ele>1585.9</ele>
  <time>2026-08-27T18:29:01Z</time>
  <course>11.44</course>
  <speed>0.01414213562373095</speed>
  <fix>3d</fix>
</trkpt>
<trkpt lat="40.0728947" lon="-105.2306564">
  <ele>1585.87</ele>
  <time>2026-08-27T18:29:01Z</time>
  <course>281.44</course>
  <speed>0.0</speed>
  <fix>3d</fix>
</trkpt>
<trkpt lat="40.0728948" lon="-105.2306565">
  <ele>1585.9</ele>
  <time>2026-08-27T18:29:01Z</time>
  <course>11.44</course>
  <speed>0.01414213562373095</speed>
  <fix>3d</fix>
</trkpt>
<trkpt lat="40.0728947" lon="-105.2306564">
  <ele>1585.87</ele>
  <time>2026-08-27T18:29:01Z</time>
  <course>281.56</course>
  <speed>0.0</speed>
  <fix>3d</fix>
</trkpt>
<trkpt lat="40.0728948" lon="-105.2306565">
  <ele>1585.9</ele>
  <time>2026-08-27T18:29:01Z</time>
  <course>11.43</course>
  <speed>0.01414213562373095</speed>
  <fix>3d</fix>
</trkpt>
<trkpt lat="40.0728947" lon="-105.2306564">
  <ele>1585.87</ele>
  <time>2026-08-27T18:29:01Z</time>
  <course>281.66</course>
  <speed>0.0</speed>
  <fix>3d</fix>
</trkpt>
<trkpt lat="40.0728948" lon="-105.2306565">
  <ele>1585.91</ele>
  <time>2026-08-27T18:29:01Z</time>
  <course>11.43</course>
  <speed>0.01414213562373095</speed>
  <fix>3d</fix>
</trkpt>
<trkpt lat="40.0728947" lon="-105.2306564">
  <ele>1585.87</ele>
  <time>2026-08-27T18:29:01Z</time>
  <course>281.75</course>
  <speed>0.0</speed>
  <fix>3d</fix>
</trkpt>
<trkpt lat="40.0728948" lon="-105.2306565">
  <ele>1585.91</ele>
  <time>2026-08-27T18:29:01Z</time>
  <course>11.43</course>
  <speed>0.01414213562373095</speed>
  <fix>3d</fix>
</trkpt>
<trkpt lat="40.0728947" lon="-105.2306564">
  <ele>1585.87</ele>
  <time>2026-08-27T18:29:01Z</time>
  <course>281.86</course>
  <speed>0.0</speed>
  <fix>3d</fix>
</trkpt>
<trkpt lat="40.0728948" lon="-105.2306565">
  <ele>1585.91</ele>
  <time>2026-08-27T18:29:01Z</time>
  <course>11.42</course>
  <speed>0.01414213562373095</speed>
  <fix>3d</fix>
</trkpt>
<trkpt lat="40.0728947" lon="-105.2306564">
  <ele>1585.87</ele>
  <time>2026-08-27T18:29:01Z</time>
  <course>281.98</course>
  <speed>0.0</speed>
  <fix>3d</fix>
</trkpt>
<trkpt lat="40.0728948" lon="-105.2306565">
  <ele>1585.91</ele>
  <time>2026-08-27T18:29:01Z</time>
  <course>11.42</course>
  <speed>0.01414213562373095</speed>
  <fix>3d</fix>
</trkpt>
<trkpt lat="40.0728947" lon="-105.2306564">
  <ele>1585.87</ele>
  <time>2026-08-27T18:29:01Z</time>
  <course>282.11</course>
  <speed>0.0</speed>
  <fix>3d</fix>
</trkpt>
<trkpt lat="40.0728948" lon="-105.2306565">
  <ele>1585.91</ele>
  <time>2026-08-27T18:29:01Z</time>
  <course>11.42</course>
  <speed>0.01414213562373095</speed>
  <fix>3d</fix>
</trkpt>
<trkpt lat="40.0728947" lon="-105.2306564">
  <ele>1585.87</ele>
  <time>2026-08-27T18:29:01Z</time>
  <course>282.25</course>
  <speed>0.0</speed>
  <fix>3d</fix>
</trkpt>
<trkpt lat="40.0728948" lon="-105.2306565">
  <ele>1585.91</ele>
  <time>2026-08-27T18:29:01Z</time>
  <course>11.41</course>
  <speed>0.01414213562373095</speed>
  <fix>3d</fix>
</trkpt>
<trkpt lat="40.0728947" lon="-105.2306564">
  <ele>1585.87</ele>
  <time>2026-08-27T18:29:01Z</time>
  <course>282.42</course>
  <speed>0.0</speed>
  <fix>3d</fix>
</trkpt>
<trkpt lat="40.0728948" lon="-105.2306565">
  <ele>1585.91</ele>
  <time>2026-08-27T18:29:01Z</time>
  <course>11.41</course>
  <speed>0.01414213562373095</speed>
  <fix>3d</fix>
</trkpt>
<trkpt lat="40.0728947" lon="-105.2306564">
  <ele>1585.87</ele>
  <time>2026-08-27T18:29:01Z</time>
  <course>282.62</course>
  <speed>0.0</speed>
  <fix>3d</fix>
</trkpt>
<trkpt lat="40.0728948" lon="-105.2306565">
  <ele>1585.91</ele>
  <time>2026-08-27T18:29:01Z</time>
  <course>11.41</course>
  <speed>0.01414213562373095</speed>
  <fix>3d</fix>
</trkpt>
<trkpt lat="40.0728947" lon="-105.2306564">
  <ele>1585.87</ele>
  <time>2026-08-27T18:29:01Z</time>
  <course>282.83</course>
  <speed>0.0</speed>
  <fix>3d</fix>
</trkpt>
<trkpt lat="40.0728948" lon="-105.2306565">
  <ele>1585.91</ele>
  <time>2026-08-27T18:29:01Z</time>
  <course>11.4</course>
  <speed>0.01414213562373095</speed>
  <fix>3d</fix>
</trkpt>
<trkpt lat="40.0728947" lon="-105.2306564">
  <ele>1585.87</ele>
  <time>2026-08-27T18:29:01Z</time>
  <course>283.07</course>
  <speed>0.0</speed>
  <fix>3d</fix>
</trkpt>
<trkpt lat="40.0728948" lon="-105.2306565">
  <ele>1585.91</ele>
  <time>2026-08-27T18:29:01Z</time>
  <course>11.4</course>
  <speed>0.01414213562373095</speed>
  <fix>3d</fix>
</trkpt>
<trkpt lat="40.0728947" lon="-105.2306564">
  <ele>1585.87</ele>
  <time>2026-08-27T18:29:01Z</time>
  <course>282.81</course>
  <speed>0.0</speed>
  <fix>3d</fix>
</trkpt>
<trkpt lat="40.0728948" lon="-105.2306565">
  <ele>1585.91</ele>
  <time>2026-08-27T18:29:01Z</time>
  <course>11.4</course>
  <speed>0.01414213562373095</speed>
  <fix>3d</fix>
</trkpt>
<trkpt lat="40.0728947" lon="-105.2306564">
  <ele>1585.87</ele>
  <time>2026-08-27T18:29:01Z</time>
  <course>282.01</course>
  <speed>0.0</speed>
  <fix>3d</fix>
</trkpt>
<trkpt lat="40.0728948" lon="-105.2306565">
  <ele>1585.92</ele>
  <time>2026-08-27T18:29:01Z</time>
  <course>11.39</course>
  <speed>0.01414213562373095</speed>
  <fix>3d</fix>
</trkpt>
<trkpt lat="40.0728947" lon="-105.2306564">
  <ele>1585.87</ele>
  <time>2026-08-27T18:29:01Z</time>
  <course>281.74</course>
  <speed>0.0</speed>
  <fix>3d</fix>
</trkpt>
<trkpt lat="40.0728948" lon="-105.2306565">
  <ele>1585.92</ele>
  <time>2026-08-27T18:29:01Z</time>
  <course>11.4</course>
  <speed>0.01414213562373095</speed>
  <fix>3d</fix>
</trkpt>
<trkpt lat="40.0728947" lon="-105.2306564">
  <ele>1585.87</ele>
  <time>2026-08-27T18:29:01Z</time>
  <course>281.81</course>
  <speed>0.0</speed>
  <fix>3d</fix>
</trkpt>
<trkpt lat="40.0728948" lon="-105.2306565">
  <ele>1585.93</ele>
  <time>2026-08-27T18:29:01Z</time>
  <course>11.43</course>
  <speed>0.01414213562373095</speed>
  <fix>3d</fix>
</trkpt>
<trkpt lat="40.0728947" lon="-105.2306564">
  <ele>1585.87</ele>
  <time>2026-08-27T18:29:01Z</time>
  <course>280.73</course>
  <speed>0.0</speed>
  <fix>3d</fix>
</trkpt>
<trkpt lat="40.0728948" lon="-105.2306565">
  <ele>1585.93</ele>
  <time>2026-08-27T18:29:01Z</time>
  <course>11.46</course>
  <speed>0.01414213562373095</speed>
  <fix>3d</fix>
</trkpt>
<trkpt lat="40.0728947" lon="-105.2306564">
  <ele>1585.87</ele>
  <time>2026-08-27T18:29:01Z</time>
  <course>280.74</course>
  <speed>0.0</speed>
  <fix>3d</fix>
</trkpt>
<trkpt lat="40.0728948" lon="-105.2306565">
  <ele>1585.94</ele>
  <time>2026-08-27T18:29:01Z</time>
  <course>11.5</course>
  <speed>0.01414213562373095</speed>
  <fix>3d</fix>
</trkpt>
<trkpt lat="40.0728947" lon="-105.2306564">
  <ele>1585.87</ele>
  <time>2026-08-27T18:29:01Z</time>
  <course>100.29</course>
  <speed>0.0</speed>
  <fix>3d</fix>
</trkpt>
<trkpt lat="40.0728948" lon="-105.2306565">
  <ele>1585.93</ele>
  <time>2026-08-27T18:29:01Z</time>
  <course>11.54</course>
  <speed>0.01414213562373095</speed>
  <fix>3d</fix>
</trkpt>
<trkpt lat="40.0728947" lon="-105.2306564">
  <ele>1585.87</ele>
  <time>2026-08-27T18:29:01Z</time>
  <course>99.91</course>
  <speed>0.0</speed>
  <fix>3d</fix>
</trkpt>
<trkpt lat="40.0728948" lon="-105.2306565">
  <ele>1585.93</ele>
  <time>2026-08-27T18:29:01Z</time>
  <course>11.57</course>
  <speed>0.01414213562373095</speed>
  <fix>3d</fix>
</trkpt>
<trkpt lat="40.0728947" lon="-105.2306564">
  <ele>1585.87</ele>
  <time>2026-08-27T18:29:01Z</time>
  <course>239.14</course>
  <speed>0.0</speed>
  <fix>3d</fix>
</trkpt>
<trkpt lat="40.0728948" lon="-105.2306565">
  <ele>1585.93</ele>
  <time>2026-08-27T18:29:01Z</time>
  <course>11.61</course>
  <speed>0.01414213562373095</speed>
  <fix>3d</fix>
</trkpt>
<trkpt lat="40.0728947" lon="-105.2306564">
  <ele>1585.87</ele>
  <time>2026-08-27T18:29:01Z</time>
  <course>216.59</course>
  <speed>0.0</speed>
  <fix>3d</fix>
</trkpt>
<trkpt lat="40.0728948" lon="-105.2306565">
  <ele>1585.93</ele>
  <time>2026-08-27T18:29:01Z</time>
  <course>11.64</course>
  <speed>0.01414213562373095</speed>
  <fix>3d</fix>
</trkpt>
<trkpt lat="40.0728947" lon="-105.2306564">
  <ele>1585.87</ele>
  <time>2026-08-27T18:29:01Z</time>
  <course>172.78</course>
  <speed>0.0</speed>
  <fix>3d</fix>
</trkpt>
<trkpt lat="40.0728948" lon="-105.2306565">
  <ele>1585.93</ele>
  <time>2026-08-27T18:29:01Z</time>
  <course>11.68</course>
  <speed>0.01</speed>
  <fix>3d</fix>
</trkpt>
<trkpt lat="40.0728947" lon="-105.2306564">
  <ele>1585.87</ele>
  <time>2026-08-27T18:29:01Z</time>
  <course>39.92</course>
  <speed>0.0</speed>
  <fix>3d</fix>
</trkpt>
<trkpt lat="40.0728948" lon="-105.2306565">
  <ele>1585.93</ele>
  <time>2026-08-27T18:29:01Z</time>
  <course>11.72</course>
  <speed>0.01</speed>
  <fix>3d</fix>
</trkpt>
<trkpt lat="40.0728947" lon="-105.2306564">
  <ele>1585.87</ele>
  <time>2026-08-27T18:29:01Z</time>
  <course>257.16</course>
  <speed>0.0</speed>
  <fix>3d</fix>
</trkpt>
<trkpt lat="40.0728948" lon="-105.2306565">
  <ele>1585.93</ele>
  <time>2026-08-27T18:29:01Z</time>
  <course>11.75</course>
  <speed>0.01</speed>
  <fix>3d</fix>
</trkpt>
<trkpt lat="40.0728947" lon="-105.2306564">
  <ele>1585.87</ele>
  <time>2026-08-27T18:29:01Z</time>
  <course>180.69</course>
  <speed>0.0</speed>
  <fix>3d</fix>
</trkpt>
<trkpt lat="40.0728948" lon="-105.2306565">
  <ele>1585.93</ele>
  <time>2026-08-27T18:29:01Z</time>
  <course>11.79</course>
  <speed>0.01</speed>
  <fix>3d</fix>
</trkpt>
<trkpt lat="40.0728947" lon="-105.2306564">
  <ele>1585.87</ele>
  <time>2026-08-27T18:29:01Z</time>
  <course>149.67</course>
  <speed>0.0</speed>
  <fix>3d</fix>
</trkpt>
<trkpt lat="40.0728948" lon="-105.2306565">
  <ele>1585.93</ele>
  <time>2026-08-27T18:29:01Z</time>
  <course>11.82</course>
  <speed>0.01</speed>
  <fix>3d</fix>
</trkpt>
<trkpt lat="40.0728947" lon="-105.2306564">
  <ele>1585.87</ele>
  <time>2026-08-27T18:29:01Z</time>
  <course>150.56</course>
  <speed>0.0</speed>
  <fix>3d</fix>
</trkpt>
<trkpt lat="40.0728948" lon="-105.2306565">
  <ele>1585.92</ele>
  <time>2026-08-27T18:29:01Z</time>
  <course>11.86</course>
  <speed>0.01</speed>
  <fix>3d</fix>
</trkpt>
<trkpt lat="40.0728947" lon="-105.2306564">
  <ele>1585.87</ele>
  <time>2026-08-27T18:29:01Z</time>
  <course>157.53</course>
  <speed>0.0</speed>
  <fix>3d</fix>
</trkpt>
<trkpt lat="40.0728948" lon="-105.2306565">
  <ele>1585.92</ele>
  <time>2026-08-27T18:29:01Z</time>
  <course>11.89</course>
  <speed>0.01</speed>
  <fix>3d</fix>
</trkpt>
<trkpt lat="40.0728947" lon="-105.2306564">
  <ele>1585.87</ele>
  <time>2026-08-27T18:29:01Z</time>
  <course>156.51</course>
  <speed>0.0</speed>
  <fix>3d</fix>
</trkpt>
<trkpt lat="40.0728948" lon="-105.2306565">
  <ele>1585.93</ele>
  <time>2026-08-27T18:29:01Z</time>
  <course>11.93</course>
  <speed>0.0</speed>
  <fix>3d</fix>
</trkpt>
<trkpt lat="40.0728947" lon="-105.2306564">
  <ele>1585.87</ele>
  <time>2026-08-27T18:29:01Z</time>
  <course>155.77</course>
  <speed>0.0</speed>
  <fix>3d</fix>
</trkpt>
<trkpt lat="40.0728948" lon="-105.2306565">
  <ele>1585.93</ele>
  <time>2026-08-27T18:29:01Z</time>
  <course>11.96</course>
  <speed>0.0</speed>
  <fix>3d</fix>
</trkpt>
<trkpt lat="40.0728947" lon="-105.2306564">
  <ele>1585.87</ele>
  <time>2026-08-27T18:29:01Z</time>
  <course>155.99</course>
  <speed>0.0</speed>
  <fix>3d</fix>
</trkpt>
<trkpt lat="40.0728948" lon="-105.2306565">
  <ele>1585.93</ele>
  <time>2026-08-27T18:29:01Z</time>
  <course>12.0</course>
  <speed>0.0</speed>
  <fix>3d</fix>
</trkpt>
<trkpt lat="40.0728947" lon="-105.2306564">
  <ele>1585.87</ele>
  <time>2026-08-27T18:29:01Z</time>
  <course>156.06</course>
  <speed>0.0</speed>
  <fix>3d</fix>
</trkpt>
<trkpt lat="40.0728948" lon="-105.2306565">
  <ele>1585.93</ele>
  <time>2026-08-27T18:29:01Z</time>
  <course>12.03</course>
  <speed>0.0</speed>
  <fix>3d</fix>
</trkpt>
<trkpt lat="40.0728947" lon="-105.2306564">
  <ele>1585.87</ele>
  <time>2026-08-27T18:29:01Z</time>
  <course>156.03</course>
  <speed>0.0</speed>
  <fix>3d</fix>
</trkpt>
<trkpt lat="40.0728948" lon="-105.2306565">
  <ele>1585.94</ele>
  <time>2026-08-27T18:29:01Z</time>
  <course>12.06</course>
  <speed>0.0</speed>
  <fix>3d</fix>
</trkpt>
<trkpt lat="40.0728947" lon="-105.2306564">
  <ele>1585.87</ele>
  <time>2026-08-27T18:29:01Z</time>
  <course>156.02</course>
  <speed>0.0</speed>
  <fix>3d</fix>
</trkpt>
<trkpt lat="40.0728948" lon="-105.2306565">
  <ele>1585.94</ele>
  <time>2026-08-27T18:29:01Z</time>
  <course>12.1</course>
  <speed>0.0</speed>
  <fix>3d</fix>
</trkpt>
<trkpt lat="40.0728947" lon="-105.2306564">
  <ele>1585.87</ele>
  <time>2026-08-27T18:29:01Z</time>
  <course>156.03</course>
  <speed>0.0</speed>
  <fix>3d</fix>
</trkpt>
<trkpt lat="40.0728948" lon="-105.2306565">
  <ele>1585.94</ele>
  <time>2026-08-27T18:29:01Z</time>
  <course>12.13</course>
  <speed>0.01</speed>
  <fix>3d</fix>
</trkpt>
<trkpt lat="40.0728947" lon="-105.2306564">
  <ele>1585.87</ele>
  <time>2026-08-27T18:29:01Z</time>
  <course>156.03</course>
  <speed>0.0</speed>
  <fix>3d</fix>
</trkpt>
<trkpt lat="40.0728948" lon="-105.2306565">
  <ele>1585.94</ele>
  <time>2026-08-27T18:29:01Z</time>
  <course>12.17</course>
  <speed>0.01</speed>
  <fix>3d</fix>
</trkpt>
<trkpt lat="40.0728947" lon="-105.2306564">
  <ele>1585.87</ele>
  <time>2026-08-27T18:29:01Z</time>
  <course>156.02</course>
  <speed>0.0</speed>
  <fix>3d</fix>
</trkpt>
<trkpt lat="40.0728948" lon="-105.2306565">
  <ele>1585.94</ele>
  <time>2026-08-27T18:29:01Z</time>
  <course>12.2</course>
  <speed>0.01</speed>
  <fix>3d</fix>
</trkpt>
<trkpt lat="40.0728947" lon="-105.2306564">
  <ele>1585.87</ele>
  <time>2026-08-27T18:29:01Z</time>
  <course>156.02</course>
  <speed>0.0</speed>
  <fix>3d</fix>
</trkpt>
<trkpt lat="40.0728948" lon="-105.2306565">
  <ele>1585.94</ele>
  <time>2026-08-27T18:29:01Z</time>
  <course>12.24</course>
  <speed>0.01</speed>
  <fix>3d</fix>
</trkpt>
<trkpt lat="40.0728947" lon="-105.2306564">
  <ele>1585.87</ele>
  <time>2026-08-27T18:29:01Z</time>
  <course>156.02</course>
  <speed>0.0</speed>
  <fix>3d</fix>
</trkpt>
<trkpt lat="40.0728948" lon="-105.2306565">
  <ele>1585.94</ele>
  <time>2026-08-27T18:29:01Z</time>
  <course>12.27</course>
  <speed>0.01</speed>
  <fix>3d</fix>
</trkpt>
<trkpt lat="40.0728947" lon="-105.2306564">
  <ele>1585.87</ele>
  <time>2026-08-27T18:29:01Z</time>
  <course>156.02</course>
  <speed>0.0</speed>
  <fix>3d</fix>
</trkpt>
<trkpt lat="40.0728948" lon="-105.2306565">
  <ele>1585.94</ele>
  <time>2026-08-27T18:29:01Z</time>
  <course>12.31</course>
  <speed>0.01</speed>
  <fix>3d</fix>
</trkpt>
<trkpt lat="40.0728947" lon="-105.2306564">
  <ele>1585.87</ele>
  <time>2026-08-27T18:29:01Z</time>
  <course>37.63</course>
  <speed>0.0</speed>
  <fix>3d</fix>
</trkpt>
<trkpt lat="40.0728948" lon="-105.2306565">
  <ele>1585.93</ele>
  <time>2026-08-27T18:29:01Z</time>
  <course>12.34</course>
  <speed>0.01</speed>
  <fix>3d</fix>
</trkpt>
<trkpt lat="40.0728947" lon="-105.2306564">
  <ele>1585.87</ele>
  <time>2026-08-27T18:29:01Z</time>
  <course>29.65</course>
  <speed>0.0</speed>
  <fix>3d</fix>
</trkpt>
<trkpt lat="40.0728948" lon="-105.2306565">
  <ele>1585.93</ele>
  <time>2026-08-27T18:29:01Z</time>
  <course>12.38</course>
  <speed>0.01</speed>
  <fix>3d</fix>
</trkpt>
<trkpt lat="40.0728947" lon="-105.2306564">
  <ele>1585.87</ele>
  <time>2026-08-27T18:29:01Z</time>
  <course>265.47</course>
  <speed>0.0</speed>
  <fix>3d</fix>
</trkpt>
<trkpt lat="40.0728948" lon="-105.2306565">
  <ele>1585.93</ele>
  <time>2026-08-27T18:29:01Z</time>
  <course>12.41</course>
  <speed>0.01</speed>
  <fix>3d</fix>
</trkpt>
<trkpt lat="40.0728947" lon="-105.2306564">
  <ele>1585.87</ele>
  <time>2026-08-27T18:29:01Z</time>
  <course>190.05</course>
  <speed>0.0</speed>
  <fix>3d</fix>
</trkpt>
<trkpt lat="40.0728948" lon="-105.2306565">
  <ele>1585.93</ele>
  <time>2026-08-27T18:29:01Z</time>
  <course>12.45</course>
  <speed>0.01</speed>
  <fix>3d</fix>
</trkpt>
<trkpt lat="40.0728947" lon="-105.2306564">
  <ele>1585.87</ele>
  <time>2026-08-27T18:29:01Z</time>
  <course>79.45</course>
  <speed>0.0</speed>
  <fix>3d</fix>
</trkpt>
<trkpt lat="40.0728948" lon="-105.2306565">
  <ele>1585.93</ele>
  <time>2026-08-27T18:29:01Z</time>
  <course>12.48</course>
  <speed>0.01</speed>
  <fix>3d</fix>
</trkpt>
<trkpt lat="40.0728947" lon="-105.2306564">
  <ele>1585.87</ele>
  <time>2026-08-27T18:29:01Z</time>
  <course>64.8</course>
  <speed>0.0</speed>
  <fix>3d</fix>
</trkpt>
<trkpt lat="40.0728948" lon="-105.2306565">
  <ele>1585.93</ele>
  <time>2026-08-27T18:29:01Z</time>
  <course>12.52</course>
  <speed>0.01</speed>
  <fix>3d</fix>
</trkpt>
<trkpt lat="40.0728947" lon="-105.2306564">
  <ele>1585.87</ele>
  <time>2026-08-27T18:29:01Z</time>
  <course>109.29</course>
  <speed>0.0</speed>
  <fix>3d</fix>
</trkpt>
<trkpt lat="40.0728948" lon="-105.2306565">
  <ele>1585.93</ele>
  <time>2026-08-27T18:29:01Z</time>
  <course>12.55</course>
  <speed>0.01414213562373095</speed>
  <fix>3d</fix>
</trkpt>
<trkpt lat="40.0728947" lon="-105.2306564">
  <ele>1585.87</ele>
  <time>2026-08-27T18:29:01Z</time>
  <course>100.22</course>
  <speed>0.0</speed>
  <fix>3d</fix>
</trkpt>
<trkpt lat="40.0728948" lon="-105.2306565">
  <ele>1585.93</ele>
  <time>2026-08-27T18:29:01Z</time>
  <course>12.59</course>
  <speed>0.01414213562373095</speed>
  <fix>3d</fix>
</trkpt>
<trkpt lat="40.0728947" lon="-105.2306564">
  <ele>1585.87</ele>
  <time>2026-08-27T18:29:01Z</time>
  <course>94.9</course>
  <speed>0.0</speed>
  <fix>3d</fix>
</trkpt>
<trkpt lat="40.0728948" lon="-105.2306565">
  <ele>1585.94</ele>
  <time>2026-08-27T18:29:01Z</time>
  <course>12.62</course>
  <speed>0.01414213562373095</speed>
  <fix>3d</fix>
</trkpt>
<trkpt lat="40.0728947" lon="-105.2306564">
  <ele>1585.87</ele>
  <time>2026-08-27T18:29:01Z</time>
  <course>96.41</course>
  <speed>0.0</speed>
  <fix>3d</fix>
</trkpt>
<trkpt lat="40.0728948" lon="-105.2306565">
  <ele>1585.94</ele>
  <time>2026-08-27T18:29:01Z</time>
  <course>12.66</course>
  <speed>0.01414213562373095</speed>
  <fix>3d</fix>
</trkpt>
<trkpt lat="40.0728947" lon="-105.2306564">
  <ele>1585.87</ele>
  <time>2026-08-27T18:29:01Z</time>
  <course>96.96</course>
  <speed>0.0</speed>
  <fix>3d</fix>
</trkpt>
<trkpt lat="40.0728948" lon="-105.2306565">
  <ele>1585.94</ele>
  <time>2026-08-27T18:29:01Z</time>
  <course>12.69</course>
  <speed>0.01414213562373095</speed>
  <fix>3d</fix>
</trkpt>
<trkpt lat="40.0728947" lon="-105.2306564">
  <ele>1585.87</ele>
  <time>2026-08-27T18:29:01Z</time>
  <course>96.68</course>
  <speed>0.0</speed>
  <fix>3d</fix>
</trkpt>
<trkpt lat="40.0728948" lon="-105.2306565">
  <ele>1585.94</ele>
  <time>2026-08-27T18:29:01Z</time>
  <course>12.73</course>
  <speed>0.01414213562373095</speed>
  <fix>3d</fix>
</trkpt>
<trkpt lat="40.0728947" lon="-105.2306564">
  <ele>1585.87</ele>
  <time>2026-08-27T18:29:01Z</time>
  <course>96.64</course>
  <speed>0.0</speed>
  <fix>3d</fix>
</trkpt>
<trkpt lat="40.0728948" lon="-105.2306565">
  <ele>1585.94</ele>
  <time>2026-08-27T18:29:01Z</time>
  <course>12.76</course>
  <speed>0.01</speed>
  <fix>3d</fix>
</trkpt>
<trkpt lat="40.0728947" lon="-105.2306564">
  <ele>1585.87</ele>
  <time>2026-08-27T18:29:01Z</time>
  <course>96.69</course>
  <speed>0.0</speed>
  <fix>3d</fix>
</trkpt>
<trkpt lat="40.0728948" lon="-105.2306565">
  <ele>1585.94</ele>
  <time>2026-08-27T18:29:01Z</time>
  <course>12.79</course>
  <speed>0.01</speed>
  <fix>3d</fix>
</trkpt>
<trkpt lat="40.0728947" lon="-105.2306564">
  <ele>1585.87</ele>
  <time>2026-08-27T18:29:01Z</time>
  <course>96.68</course>
  <speed>0.0</speed>
  <fix>3d</fix>
</trkpt>
<trkpt lat="40.0728948" lon="-105.2306565">
  <ele>1585.94</ele>
  <time>2026-08-27T18:29:01Z</time>
  <course>12.83</course>
  <speed>0.01</speed>
  <fix>3d</fix>
</trkpt>
<trkpt lat="40.0728947" lon="-105.2306564">
  <ele>1585.87</ele>
  <time>2026-08-27T18:29:01Z</time>
  <course>96.63</course>
  <speed>0.0</speed>
  <fix>3d</fix>
</trkpt>
<trkpt lat="40.0728948" lon="-105.2306565">
  <ele>1585.94</ele>
  <time>2026-08-27T18:29:01Z</time>
  <course>12.86</course>
  <speed>0.01</speed>
  <fix>3d</fix>
</trkpt>
<trkpt lat="40.0728947" lon="-105.2306564">
  <ele>1585.87</ele>
  <time>2026-08-27T18:29:01Z</time>
  <course>96.52</course>
  <speed>0.0</speed>
  <fix>3d</fix>
</trkpt>
<trkpt lat="40.0728948" lon="-105.2306565">
  <ele>1585.94</ele>
  <time>2026-08-27T18:29:01Z</time>
  <course>12.89</course>
  <speed>0.01</speed>
  <fix>3d</fix>
</trkpt>
<trkpt lat="40.0728947" lon="-105.2306564">
  <ele>1585.87</ele>
  <time>2026-08-27T18:29:01Z</time>
  <course>123.31</course>
  <speed>0.0</speed>
  <fix>3d</fix>
</trkpt>
<trkpt lat="40.0728948" lon="-105.2306565">
  <ele>1585.94</ele>
  <time>2026-08-27T18:29:01Z</time>
  <course>12.92</course>
  <speed>0.01</speed>
  <fix>3d</fix>
</trkpt>
<trkpt lat="40.0728947" lon="-105.2306564">
  <ele>1585.87</ele>
  <time>2026-08-27T18:29:01Z</time>
  <course>92.95</course>
  <speed>0.0</speed>
  <fix>3d</fix>
</trkpt>
<trkpt lat="40.0728948" lon="-105.2306565">
  <ele>1585.94</ele>
  <time>2026-08-27T18:29:01Z</time>
  <course>12.95</course>
  <speed>0.01</speed>
  <fix>3d</fix>
</trkpt>
<trkpt lat="40.0728947" lon="-105.2306564">
  <ele>1585.87</ele>
  <time>2026-08-27T18:29:01Z</time>
  <course>84.39</course>
  <speed>0.0</speed>
  <fix>3d</fix>
</trkpt>
<trkpt lat="40.0728948" lon="-105.2306565">
  <ele>1585.94</ele>
  <time>2026-08-27T18:29:01Z</time>
  <course>12.97</course>
  <speed>0.01414213562373095</speed>
  <fix>3d</fix>
</trkpt>
<trkpt lat="40.0728947" lon="-105.2306564">
  <ele>1585.87</ele>
  <time>2026-08-27T18:29:01Z</time>
  <course>309.31</course>
  <speed>0.0</speed>
  <fix>3d</fix>
</trkpt>
<trkpt lat="40.0728948" lon="-105.2306565">
  <ele>1585.94</ele>
  <time>2026-08-27T18:29:01Z</time>
  <course>13.0</course>
  <speed>0.01414213562373095</speed>
  <fix>3d</fix>
</trkpt>
<trkpt lat="40.0728947" lon="-105.2306564">
  <ele>1585.87</ele>
  <time>2026-08-27T18:29:01Z</time>
  <course>159.22</course>
  <speed>0.0</speed>
  <fix>3d</fix>
</trkpt>
<trkpt lat="40.0728948" lon="-105.2306565">
  <ele>1585.94</ele>
  <time>2026-08-27T18:29:01Z</time>
  <course>13.02</course>
  <speed>0.01414213562373095</speed>
  <fix>3d</fix>
</trkpt>
<trkpt lat="40.0728947" lon="-105.2306564">
  <ele>1585.87</ele>
  <time>2026-08-27T18:29:01Z</time>
  <course>99.65</course>
  <speed>0.0</speed>
  <fix>3d</fix>
</trkpt>
<trkpt lat="40.0728948" lon="-105.2306565">
  <ele>1585.94</ele>
  <time>2026-08-27T18:29:01Z</time>
  <course>13.04</course>
  <speed>0.01414213562373095</speed>
  <fix>3d</fix>
</trkpt>
<trkpt lat="40.0728947" lon="-105.2306564">
  <ele>1585.87</ele>
  <time>2026-08-27T18:29:01Z</time>
  <course>96.23</course>
  <speed>0.0</speed>
  <fix>3d</fix>
</trkpt>
<trkpt lat="40.0728948" lon="-105.2306565">
  <ele>1585.94</ele>
  <time>2026-08-27T18:29:01Z</time>
  <course>13.06</course>
  <speed>0.01414213562373095</speed>
  <fix>3d</fix>
</trkpt>
<trkpt lat="40.0728947" lon="-105.2306564">
  <ele>1585.87</ele>
  <time>2026-08-27T18:29:01Z</time>
  <course>152.94</course>
  <speed>0.0</speed>
  <fix>3d</fix>
</trkpt>
<trkpt lat="40.0728948" lon="-105.2306565">
  <ele>1585.94</ele>
  <time>2026-08-27T18:29:01Z</time>
  <course>13.08</course>
  <speed>0.01414213562373095</speed>
  <fix>3d</fix>
</trkpt>
<trkpt lat="40.0728947" lon="-105.2306564">
  <ele>1585.87</ele>
  <time>2026-08-27T18:29:01Z</time>
  <course>143.68</course>
  <speed>0.0</speed>
  <fix>3d</fix>
</trkpt>
<trkpt lat="40.0728948" lon="-105.2306565">
  <ele>1585.93</ele>
  <time>2026-08-27T18:29:01Z</time>
  <course>13.09</course>
  <speed>0.01414213562373095</speed>
  <fix>3d</fix>
</trkpt>
<trkpt lat="40.0728947" lon="-105.2306564">
  <ele>1585.87</ele>
  <time>2026-08-27T18:29:01Z</time>
  <course>89.91</course>
  <speed>0.0</speed>
  <fix>3d</fix>
</trkpt>
<trkpt lat="40.0728948" lon="-105.2306565">
  <ele>1585.93</ele>
  <time>2026-08-27T18:29:01Z</time>
  <course>13.11</course>
  <speed>0.01414213562373095</speed>
  <fix>3d</fix>
</trkpt>
<trkpt lat="40.0728947" lon="-105.2306564">
  <ele>1585.87</ele>
  <time>2026-08-27T18:29:01Z</time>
  <course>77.78</course>
  <speed>0.0</speed>
  <fix>3d</fix>
</trkpt>
<trkpt lat="40.0728948" lon="-105.2306565">
  <ele>1585.93</ele>
  <time>2026-08-27T18:29:01Z</time>
  <course>13.12</course>
  <speed>0.01414213562373095</speed>
  <fix>3d</fix>
</trkpt>
<trkpt lat="40.0728947" lon="-105.2306564">
  <ele>1585.87</ele>
  <time>2026-08-27T18:29:01Z</time>
  <course>107.08</course>
  <speed>0.0</speed>
  <fix>3d</fix>
</trkpt>
<trkpt lat="40.0728948" lon="-105.2306565">
  <ele>1585.93</ele>
  <time>2026-08-27T18:29:01Z</time>
  <course>13.13</course>
  <speed>0.01414213562373095</speed>
  <fix>3d</fix>
</trkpt>
<trkpt lat="40.0728947" lon="-105.2306564">
  <ele>1585.87</ele>
  <time>2026-08-27T18:29:01Z</time>
  <course>104.53</course>
  <speed>0.0</speed>
  <fix>3d</fix>
</trkpt>
<trkpt lat="40.0728948" lon="-105.2306565">
  <ele>1585.93</ele>
  <time>2026-08-27T18:29:01Z</time>
  <course>13.14</course>
  <speed>0.01414213562373095</speed>
  <fix>3d</fix>
</trkpt>
<trkpt lat="40.0728947" lon="-105.2306564">
  <ele>1585.87</ele>
  <time>2026-08-27T18:29:01Z</time>
  <course>102.1</course>
  <speed>0.0</speed>
  <fix>3d</fix>
</trkpt>
<trkpt lat="40.0728948" lon="-105.2306565">
  <ele>1585.93</ele>
  <time>2026-08-27T18:29:01Z</time>
  <course>13.15</course>
  <speed>0.01414213562373095</speed>
  <fix>3d</fix>
</trkpt>
<trkpt lat="40.0728947" lon="-105.2306564">
  <ele>1585.87</ele>
  <time>2026-08-27T18:29:01Z</time>
  <course>102.54</course>
  <speed>0.0</speed>
  <fix>3d</fix>
</trkpt>
<trkpt lat="40.0728948" lon="-105.2306565">
  <ele>1585.93</ele>
  <time>2026-08-27T18:29:01Z</time>
  <course>13.15</course>
  <speed>0.01414213562373095</speed>
  <fix>3d</fix>
</trkpt>
<trkpt lat="40.0728947" lon="-105.2306564">
  <ele>1585.87</ele>
  <time>2026-08-27T18:29:01Z</time>
  <course>102.69</course>
  <speed>0.0</speed>
  <fix>3d</fix>
</trkpt>
<trkpt lat="40.0728948" lon="-105.2306565">
  <ele>1585.93</ele>
  <time>2026-08-27T18:29:01Z</time>
  <course>13.16</course>
  <speed>0.01414213562373095</speed>
  <fix>3d</fix>
</trkpt>
<trkpt lat="40.0728947" lon="-105.2306564">
  <ele>1585.87</ele>
  <time>2026-08-27T18:29:01Z</time>
  <course>102.5</course>
  <speed>0.0</speed>
  <fix>3d</fix>
</trkpt>
<trkpt lat="40.0728948" lon="-105.2306565">
  <ele>1585.93</ele>
  <time>2026-08-27T18:29:01Z</time>
  <course>13.16</course>
  <speed>0.01414213562373095</speed>
  <fix>3d</fix>
</trkpt>
<trkpt lat="40.0728947" lon="-105.2306564">
  <ele>1585.87</ele>
  <time>2026-08-27T18:29:01Z</time>
  <course>102.41</course>
  <speed>0.0</speed>
  <fix>3d</fix>
</trkpt>
<trkpt lat="40.0728948" lon="-105.2306565">
  <ele>1585.93</ele>
  <time>2026-08-27T18:29:01Z</time>
  <course>13.16</course>
  <speed>0.022360679774997897</speed>
  <fix>3d</fix>
</trkpt>
<trkpt lat="40.0728947" lon="-105.2306564">
  <ele>1585.87</ele>
  <time>2026-08-27T18:29:01Z</time>
  <course>102.35</course>
  <speed>0.0</speed>
  <fix>3d</fix>
</trkpt>
<trkpt lat="40.0728948" lon="-105.2306565">
  <ele>1585.92</ele>
  <time>2026-08-27T18:29:01Z</time>
  <course>13.16</course>
  <speed>0.022360679774997897</speed>
  <fix>3d</fix>
</trkpt>
<trkpt lat="40.0728947" lon="-105.2306564">
  <ele>1585.87</ele>
  <time>2026-08-27T18:29:01Z</time>
  <course>102.28</course>
  <speed>0.0</speed>
  <fix>3d</fix>
</trkpt>
<trkpt lat="40.0728948" lon="-105.2306565">
  <ele>1585.92</ele>
  <time>2026-08-27T18:29:01Z</time>
  <course>13.15</course>
  <speed>0.022360679774997897</speed>
  <fix>3d</fix>
</trkpt>
<trkpt lat="40.0728947" lon="-105.2306564">
  <ele>1585.87</ele>
  <time>2026-08-27T18:29:01Z</time>
  <course>102.19</course>
  <speed>0.0</speed>
  <fix>3d</fix>
</trkpt>
<trkpt lat="40.0728948" lon="-105.2306565">
  <ele>1585.92</ele>
  <time>2026-08-27T18:29:01Z</time>
  <course>13.15</course>
  <speed>0.022360679774997897</speed>
  <fix>3d</fix>
</trkpt>
<trkpt lat="40.0728947" lon="-105.2306564">
  <ele>1585.87</ele>
  <time>2026-08-27T18:29:01Z</time>
  <course>102.11</course>
  <speed>0.0</speed>
  <fix>3d</fix>
</trkpt>
<trkpt lat="40.0728948" lon="-105.2306565">
  <ele>1585.92</ele>
  <time>2026-08-27T18:29:01Z</time>
  <course>13.14</course>
  <speed>0.022360679774997897</speed>
  <fix>3d</fix>
</trkpt>
<trkpt lat="40.0728947" lon="-105.2306564">
  <ele>1585.87</ele>
  <time>2026-08-27T18:29:01Z</time>
  <course>102.02</course>
  <speed>0.0</speed>
  <fix>3d</fix>
</trkpt>
<trkpt lat="40.0728948" lon="-105.2306565">
  <ele>1585.93</ele>
  <time>2026-08-27T18:29:01Z</time>
  <course>13.13</course>
  <speed>0.022360679774997897</speed>
  <fix>3d</fix>
</trkpt>
<trkpt lat="40.0728947" lon="-105.2306564">
  <ele>1585.87</ele>
  <time>2026-08-27T18:29:01Z</time>
  <course>101.92</course>
  <speed>0.0</speed>
  <fix>3d</fix>
</trkpt>
<trkpt lat="40.0728948" lon="-105.2306565">
  <ele>1585.93</ele>
  <time>2026-08-27T18:29:01Z</time>
  <course>13.12</course>
  <speed>0.022360679774997897</speed>
  <fix>3d</fix>
</trkpt>
<trkpt lat="40.0728947" lon="-105.2306564">
  <ele>1585.87</ele>
  <time>2026-08-27T18:29:01Z</time>
  <course>101.82</course>
  <speed>0.0</speed>
  <fix>3d</fix>
</trkpt>
<trkpt lat="40.0728948" lon="-105.2306565">
  <ele>1585.93</ele>
  <time>2026-08-27T18:29:01Z</time>
  <course>13.11</course>
  <speed>0.022360679774997897</speed>
  <fix>3d</fix>
</trkpt>
<trkpt lat="40.0728947" lon="-105.2306564">
  <ele>1585.87</ele>
  <time>2026-08-27T18:29:01Z</time>
  <course>101.7</course>
  <speed>0.0</speed>
  <fix>3d</fix>
</trkpt>
<trkpt lat="40.0728948" lon="-105.2306565">
  <ele>1585.93</ele>
  <time>2026-08-27T18:29:01Z</time>
  <course>13.1</course>
  <speed>0.022360679774997897</speed>
  <fix>3d</fix>
</trkpt>
<trkpt lat="40.0728947" lon="-105.2306564">
  <ele>1585.87</ele>
  <time>2026-08-27T18:29:01Z</time>
  <course>101.59</course>
  <speed>0.0</speed>
  <fix>3d</fix>
</trkpt>
<trkpt lat="40.0728948" lon="-105.2306565">
  <ele>1585.94</ele>
  <time>2026-08-27T18:29:01Z</time>
  <course>13.09</course>
  <speed>0.022360679774997897</speed>
  <fix>3d</fix>
</trkpt>
<trkpt lat="40.0728947" lon="-105.2306564">
  <ele>1585.87</ele>
  <time>2026-08-27T18:29:01Z</time>
  <course>101.47</course>
  <speed>0.0</speed>
  <fix>3d</fix>
</trkpt>
<trkpt lat="40.0728948" lon="-105.2306565">
  <ele>1585.94</ele>
  <time>2026-08-27T18:29:01Z</time>
  <course>13.07</course>
  <speed>0.022360679774997897</speed>
  <fix>3d</fix>
</trkpt>
<trkpt lat="40.0728947" lon="-105.2306564">
  <ele>1585.87</ele>
  <time>2026-08-27T18:29:01Z</time>
  <course>101.34</course>
  <speed>0.0</speed>
  <fix>3d</fix>
</trkpt>
<trkpt lat="40.0728948" lon="-105.2306565">
  <ele>1585.94</ele>
  <time>2026-08-27T18:29:01Z</time>
  <course>13.05</course>
  <speed>0.022360679774997897</speed>
  <fix>3d</fix>
</trkpt>
<trkpt lat="40.0728947" lon="-105.2306564">
  <ele>1585.87</ele>
  <time>2026-08-27T18:29:01Z</time>
  <course>278.94</course>
  <speed>0.0</speed>
  <fix>3d</fix>
</trkpt>
<trkpt lat="40.0728948" lon="-105.2306565">
  <ele>1585.94</ele>
  <time>2026-08-27T18:29:01Z</time>
  <course>13.03</course>
  <speed>0.022360679774997897</speed>
  <fix>3d</fix>
</trkpt>
<trkpt lat="40.0728947" lon="-105.2306564">
  <ele>1585.87</ele>
  <time>2026-08-27T18:29:01Z</time>
  <course>279.42</course>
  <speed>0.0</speed>
  <fix>3d</fix>
</trkpt>
<trkpt lat="40.0728948" lon="-105.2306565">
  <ele>1585.94</ele>
  <time>2026-08-27T18:29:01Z</time>
  <course>13.01</course>
  <speed>0.022360679774997897</speed>
  <fix>3d</fix>
</trkpt>
<trkpt lat="40.0728947" lon="-105.2306564">
  <ele>1585.87</ele>
  <time>2026-08-27T18:29:01Z</time>
  <course>278.28</course>
  <speed>0.0</speed>
  <fix>3d</fix>
</trkpt>
<trkpt lat="40.0728948" lon="-105.2306565">
  <ele>1585.94</ele>
  <time>2026-08-27T18:29:01Z</time>
  <course>12.99</course>
  <speed>0.022360679774997897</speed>
  <fix>3d</fix>
</trkpt>
<trkpt lat="40.0728947" lon="-105.2306564">
  <ele>1585.87</ele>
  <time>2026-08-27T18:29:01Z</time>
  <course>100.91</course>
  <speed>0.0</speed>
  <fix>3d</fix>
</trkpt>
<trkpt lat="40.0728948" lon="-105.2306565">
  <ele>1585.94</ele>
  <time>2026-08-27T18:29:01Z</time>
  <course>12.97</course>
  <speed>0.022360679774997897</speed>
  <fix>3d</fix>
</trkpt>
<trkpt lat="40.0728947" lon="-105.2306564">
  <ele>1585.87</ele>
  <time>2026-08-27T18:29:01Z</time>
  <course>101.87</course>
  <speed>0.0</speed>
  <fix>3d</fix>
</trkpt>
<trkpt lat="40.0728948" lon="-105.2306565">
  <ele>1585.94</ele>
  <time>2026-08-27T18:29:01Z</time>
  <course>12.94</course>
  <speed>0.022360679774997897</speed>
  <fix>3d</fix>
</trkpt>
<trkpt lat="40.0728947" lon="-105.2306564">
  <ele>1585.87</ele>
  <time>2026-08-27T18:29:01Z</time>
  <course>102.84</course>
  <speed>0.0</speed>
  <fix>3d</fix>
</trkpt>
<trkpt lat="40.0728948" lon="-105.2306565">
  <ele>1585.94</ele>
  <time>2026-08-27T18:29:01Z</time>
  <course>12.92</course>
  <speed>0.022360679774997897</speed>
  <fix>3d</fix>
</trkpt>
<trkpt lat="40.0728947" lon="-105.2306564">
  <ele>1585.87</ele>
  <time>2026-08-27T18:29:01Z</time>
  <course>102.04</course>
  <speed>0.0</speed>
  <fix>3d</fix>
</trkpt>
<trkpt lat="40.0728948" lon="-105.2306565">
  <ele>1585.94</ele>
  <time>2026-08-27T18:29:01Z</time>
  <course>12.89</course>
  <speed>0.022360679774997897</speed>
  <fix>3d</fix>
</trkpt>
<trkpt lat="40.0728947" lon="-105.2306564">
  <ele>1585.87</ele>
  <time>2026-08-27T18:29:01Z</time>
  <course>279.06</course>
  <speed>0.0</speed>
  <fix>3d</fix>
</trkpt>
<trkpt lat="40.0728948" lon="-105.2306565">
  <ele>1585.94</ele>
  <time>2026-08-27T18:29:01Z</time>
  <course>12.86</course>
  <speed>0.022360679774997897</speed>
  <fix>3d</fix>
</trkpt>
<trkpt lat="40.0728947" lon="-105.2306564">
  <ele>1585.87</ele>
  <time>2026-08-27T18:29:01Z</time>
  <course>279.05</course>
  <speed>0.0</speed>
  <fix>3d</fix>
</trkpt>
<trkpt lat="40.0728948" lon="-105.2306565">
  <ele>1585.94</ele>
  <time>2026-08-27T18:29:02Z</time>
  <course>12.83</course>
  <speed>0.022360679774997897</speed>
  <fix>3d</fix>
</trkpt>
<trkpt lat="40.0728947" lon="-105.2306564">
  <ele>1585.87</ele>
  <time>2026-08-27T18:29:02Z</time>
  <course>104.67</course>
  <speed>0.0</speed>
  <fix>3d</fix>
</trkpt>
<trkpt lat="40.0728948" lon="-105.2306565">
  <ele>1585.94</ele>
  <time>2026-08-27T18:29:02Z</time>
  <course>12.8</course>
  <speed>0.022360679774997897</speed>
  <fix>3d</fix>
</trkpt>
<trkpt lat="40.0728947" lon="-105.2306564">
  <ele>1585.87</ele>
  <time>2026-08-27T18:29:02Z</time>
  <course>101.67</course>
  <speed>0.0</speed>
  <fix>3d</fix>
</trkpt>
<trkpt lat="40.0728948" lon="-105.2306565">
  <ele>1585.94</ele>
  <time>2026-08-27T18:29:02Z</time>
  <course>12.77</course>
  <speed>0.022360679774997897</speed>
  <fix>3d</fix>
</trkpt>
<trkpt lat="40.0728947" lon="-105.2306564">
  <ele>1585.87</ele>
  <time>2026-08-27T18:29:02Z</time>
  <course>137.17</course>
  <speed>0.0</speed>
  <fix>3d</fix>
</trkpt>
<trkpt lat="40.0728948" lon="-105.2306565">
  <ele>1585.94</ele>
  <time>2026-08-27T18:29:02Z</time>
  <course>12.74</course>
  <speed>0.022360679774997897</speed>
  <fix>3d</fix>
</trkpt>
<trkpt lat="40.0728947" lon="-105.2306564">
  <ele>1585.87</ele>
  <time>2026-08-27T18:29:02Z</time>
  <course>123.18</course>
  <speed>0.0</speed>
  <fix>3d</fix>
</trkpt>
<trkpt lat="40.0728948" lon="-105.2306565">
  <ele>1585.94</ele>
  <time>2026-08-27T18:29:02Z</time>
  <course>12.71</course>
  <speed>0.022360679774997897</speed>
  <fix>3d</fix>
</trkpt>
<trkpt lat="40.0728947" lon="-105.2306564">
  <ele>1585.87</ele>
  <time>2026-08-27T18:29:02Z</time>
  <course>109.81</course>
  <speed>0.0</speed>
  <fix>3d</fix>
</trkpt>
<trkpt lat="40.0728948" lon="-105.2306565">
  <ele>1585.94</ele>
  <time>2026-08-27T18:29:02Z</time>
  <course>12.69</course>
  <speed>0.022360679774997897</speed>
  <fix>3d</fix>
</trkpt>
<trkpt lat="40.0728947" lon="-105.2306564">
  <ele>1585.87</ele>
  <time>2026-08-27T18:29:02Z</time>
  <course>110.78</course>
  <speed>0.0</speed>
  <fix>3d</fix>
</trkpt>
<trkpt lat="40.0728948" lon="-105.2306565">
  <ele>1585.94</ele>
  <time>2026-08-27T18:29:02Z</time>
  <course>12.66</course>
  <speed>0.022360679774997897</speed>
  <fix>3d</fix>
</trkpt>
<trkpt lat="40.0728947" lon="-105.2306564">
  <ele>1585.87</ele>
  <time>2026-08-27T18:29:02Z</time>
  <course>111.6</course>
  <speed>0.0</speed>
  <fix>3d</fix>
</trkpt>
<trkpt lat="40.0728948" lon="-105.2306565">
  <ele>1585.94</ele>
  <time>2026-08-27T18:29:02Z</time>
  <course>12.63</course>
  <speed>0.022360679774997897</speed>
  <fix>3d</fix>
</trkpt>
<trkpt lat="40.0728947" lon="-105.2306564">
  <ele>1585.87</ele>
  <time>2026-08-27T18:29:02Z</time>
  <course>111.25</course>
  <speed>0.0</speed>
  <fix>3d</fix>
</trkpt>
<trkpt lat="40.0728948" lon="-105.2306565">
  <ele>1585.95</ele>
  <time>2026-08-27T18:29:02Z</time>
  <course>12.6</course>
  <speed>0.022360679774997897</speed>
  <fix>3d</fix>
</trkpt>
<trkpt lat="40.0728947" lon="-105.2306564">
  <ele>1585.87</ele>
  <time>2026-08-27T18:29:02Z</time>
  <course>111.1</course>
  <speed>0.0</speed>
  <fix>3d</fix>
</trkpt>
<trkpt lat="40.0728948" lon="-105.2306565">
  <ele>1585.95</ele>
  <time>2026-08-27T18:29:02Z</time>
  <course>12.57</course>
  <speed>0.022360679774997897</speed>
  <fix>3d</fix>
</trkpt>
<trkpt lat="40.0728947" lon="-105.2306564">
  <ele>1585.87</ele>
  <time>2026-08-27T18:29:02Z</time>
  <course>278.29</course>
  <speed>0.0</speed>
  <fix>3d</fix>
</trkpt>
<trkpt lat="40.0728948" lon="-105.2306565">
  <ele>1585.95</ele>
  <time>2026-08-27T18:29:02Z</time>
  <course>12.54</course>
  <speed>0.022360679774997897</speed>
  <fix>3d</fix>
</trkpt>
<trkpt lat="40.0728947" lon="-105.2306564">
  <ele>1585.87</ele>
  <time>2026-08-27T18:29:02Z</time>
  <course>278.33</course>
  <speed>0.0</speed>
  <fix>3d</fix>
</trkpt>
<trkpt lat="40.0728948" lon="-105.2306565">
  <ele>1585.95</ele>
  <time>2026-08-27T18:29:02Z</time>
  <course>12.51</course>
  <speed>0.022360679774997897</speed>
  <fix>3d</fix>
</trkpt>
<trkpt lat="40.0728947" lon="-105.2306564">
  <ele>1585.87</ele>
  <time>2026-08-27T18:29:02Z</time>
  <course>274.28</course>
  <speed>0.0</speed>
  <fix>3d</fix>
</trkpt>
<trkpt lat="40.0728948" lon="-105.2306565">
  <ele>1585.95</ele>
  <time>2026-08-27T18:29:02Z</time>
  <course>12.48</course>
  <speed>0.022360679774997897</speed>
  <fix>3d</fix>
</trkpt>
<trkpt lat="40.0728947" lon="-105.2306564">
  <ele>1585.87</ele>
  <time>2026-08-27T18:29:02Z</time>
  <course>101.44</course>
  <speed>0.0</speed>
  <fix>3d</fix>
</trkpt>
<trkpt lat="40.0728948" lon="-105.2306565">
  <ele>1585.95</ele>
  <time>2026-08-27T18:29:02Z</time>
  <course>12.45</course>
  <speed>0.022360679774997897</speed>
  <fix>3d</fix>
</trkpt>
<trkpt lat="40.0728947" lon="-105.2306564">
  <ele>1585.87</ele>
  <time>2026-08-27T18:29:02Z</time>
  <course>241.57</course>
  <speed>0.0</speed>
  <fix>3d</fix>
</trkpt>
<trkpt lat="40.0728948" lon="-105.2306565">
  <ele>1585.95</ele>
  <time>2026-08-27T18:29:02Z</time>
  <course>12.43</course>
  <speed>0.022360679774997897</speed>
  <fix>3d</fix>
</trkpt>
<trkpt lat="40.0728947" lon="-105.2306564">
  <ele>1585.87</ele>
  <time>2026-08-27T18:29:02Z</time>
  <course>277.44</course>
  <speed>0.0</speed>
  <fix>3d</fix>
</trkpt>
<trkpt lat="40.0728948" lon="-105.2306565">
  <ele>1585.95</ele>
  <time>2026-08-27T18:29:02Z</time>
  <course>12.4</course>
  <speed>0.022360679774997897</speed>
  <fix>3d</fix>
</trkpt>
<trkpt lat="40.0728947" lon="-105.2306564">
  <ele>1585.87</ele>
  <time>2026-08-27T18:29:02Z</time>
  <course>277.87</course>
  <speed>0.0</speed>
  <fix>3d</fix>
</trkpt>
<trkpt lat="40.0728948" lon="-105.2306565">
  <ele>1585.95</ele>
  <time>2026-08-27T18:29:02Z</time>
  <course>12.37</course>
  <speed>0.022360679774997897</speed>
  <fix>3d</fix>
</trkpt>
<trkpt lat="40.0728947" lon="-105.2306564">
  <ele>1585.87</ele>
  <time>2026-08-27T18:29:02Z</time>
  <course>277.18</course>
  <speed>0.0</speed>
  <fix>3d</fix>
</trkpt>
<trkpt lat="40.0728948" lon="-105.2306565">
  <ele>1585.95</ele>
  <time>2026-08-27T18:29:02Z</time>
  <course>12.34</course>
  <speed>0.022360679774997897</speed>
  <fix>3d</fix>
</trkpt>
<trkpt lat="40.0728947" lon="-105.2306564">
  <ele>1585.87</ele>
  <time>2026-08-27T18:29:02Z</time>
  <course>101.97</course>
  <speed>0.0</speed>
  <fix>3d</fix>
</trkpt>
<trkpt lat="40.0728948" lon="-105.2306565">
  <ele>1585.94</ele>
  <time>2026-08-27T18:29:02Z</time>
  <course>12.31</course>
  <speed>0.022360679774997897</speed>
  <fix>3d</fix>
</trkpt>
<trkpt lat="40.0728947" lon="-105.2306564">
  <ele>1585.87</ele>
  <time>2026-08-27T18:29:02Z</time>
  <course>166.2</course>
  <speed>0.0</speed>
  <fix>3d</fix>
</trkpt>
<trkpt lat="40.0728948" lon="-105.2306565">
  <ele>1585.95</ele>
  <time>2026-08-27T18:29:02Z</time>
  <course>12.29</course>
  <speed>0.022360679774997897</speed>
  <fix>3d</fix>
</trkpt>
<trkpt lat="40.0728947" lon="-105.2306564">
  <ele>1585.87</ele>
  <time>2026-08-27T18:29:02Z</time>
  <course>269.41</course>
  <speed>0.0</speed>
  <fix>3d</fix>
</trkpt>
<trkpt lat="40.0728948" lon="-105.2306565">
  <ele>1585.95</ele>
  <time>2026-08-27T18:29:02Z</time>
  <course>12.26</course>
  <speed>0.022360679774997897</speed>
  <fix>3d</fix>
</trkpt>
<trkpt lat="40.0728947" lon="-105.2306564">
  <ele>1585.87</ele>
  <time>2026-08-27T18:29:02Z</time>
  <course>277.4</course>
  <speed>0.0</speed>
  <fix>3d</fix>
</trkpt>
<trkpt lat="40.0728948" lon="-105.2306565">
  <ele>1585.95</ele>
  <time>2026-08-27T18:29:02Z</time>
  <course>12.23</course>
  <speed>0.022360679774997897</speed>
  <fix>3d</fix>
</trkpt>
<trkpt lat="40.0728947" lon="-105.2306564">
  <ele>1585.87</ele>
  <time>2026-08-27T18:29:02Z</time>
  <course>277.34</course>
  <speed>0.0</speed>
  <fix>3d</fix>
</trkpt>
<trkpt lat="40.0728948" lon="-105.2306565">
  <ele>1585.95</ele>
  <time>2026-08-27T18:29:02Z</time>
  <course>12.21</course>
  <speed>0.022360679774997897</speed>
  <fix>3d</fix>
</trkpt>
<trkpt lat="40.0728947" lon="-105.2306564">
  <ele>1585.87</ele>
  <time>2026-08-27T18:29:02Z</time>
  <course>112.56</course>
  <speed>0.0</speed>
  <fix>3d</fix>
</trkpt>
<trkpt lat="40.0728948" lon="-105.2306565">
  <ele>1585.95</ele>
  <time>2026-08-27T18:29:02Z</time>
  <course>12.18</course>
  <speed>0.022360679774997897</speed>
  <fix>3d</fix>
</trkpt>
<trkpt lat="40.0728947" lon="-105.2306564">
  <ele>1585.87</ele>
  <time>2026-08-27T18:29:02Z</time>
  <course>111.97</course>
  <speed>0.0</speed>
  <fix>3d</fix>
</trkpt>
<trkpt lat="40.0728948" lon="-105.2306565">
  <ele>1585.95</ele>
  <time>2026-08-27T18:29:02Z</time>
  <course>12.15</course>
  <speed>0.022360679774997897</speed>
  <fix>3d</fix>
</trkpt>
<trkpt lat="40.0728947" lon="-105.2306564">
  <ele>1585.87</ele>
  <time>2026-08-27T18:29:02Z</time>
  <course>270.5</course>
  <speed>0.0</speed>
  <fix>3d</fix>
</trkpt>
<trkpt lat="40.0728948" lon="-105.2306565">
  <ele>1585.95</ele>
  <time>2026-08-27T18:29:02Z</time>
  <course>12.13</course>
  <speed>0.022360679774997897</speed>
  <fix>3d</fix>
</trkpt>
<trkpt lat="40.0728947" lon="-105.2306564">
  <ele>1585.87</ele>
  <time>2026-08-27T18:29:02Z</time>
  <course>273.55</course>
  <speed>0.0</speed>
  <fix>3d</fix>
</trkpt>
<trkpt lat="40.0728948" lon="-105.2306565">
  <ele>1585.95</ele>
  <time>2026-08-27T18:29:02Z</time>
  <course>12.1</course>
  <speed>0.022360679774997897</speed>
  <fix>3d</fix>
</trkpt>
<trkpt lat="40.0728947" lon="-105.2306564">
  <ele>1585.87</ele>
  <time>2026-08-27T18:29:02Z</time>
  <course>276.87</course>
  <speed>0.0</speed>
  <fix>3d</fix>
</trkpt>
<trkpt lat="40.0728948" lon="-105.2306565">
  <ele>1585.95</ele>
  <time>2026-08-27T18:29:02Z</time>
  <course>12.08</course>
  <speed>0.022360679774997897</speed>
  <fix>3d</fix>
</trkpt>
<trkpt lat="40.0728947" lon="-105.2306564">
  <ele>1585.87</ele>
  <time>2026-08-27T18:29:02Z</time>
  <course>276.62</course>
  <speed>0.0</speed>
  <fix>3d</fix>
</trkpt>
<trkpt lat="40.0728948" lon="-105.2306565">
  <ele>1585.95</ele>
  <time>2026-08-27T18:29:02Z</time>
  <course>12.05</course>
  <speed>0.022360679774997897</speed>
  <fix>3d</fix>
</trkpt>
<trkpt lat="40.0728947" lon="-105.2306564">
  <ele>1585.87</ele>
  <time>2026-08-27T18:29:02Z</time>
  <course>107.05</course>
  <speed>0.0</speed>
  <fix>3d</fix>
</trkpt>
<trkpt lat="40.0728948" lon="-105.2306565">
  <ele>1585.94</ele>
  <time>2026-08-27T18:29:02Z</time>
  <course>12.03</course>
  <speed>0.022360679774997897</speed>
  <fix>3d</fix>
</trkpt>
<trkpt lat="40.0728947" lon="-105.2306564">
  <ele>1585.87</ele>
  <time>2026-08-27T18:29:02Z</time>
  <course>249.97</course>
  <speed>0.0</speed>
  <fix>3d</fix>
</trkpt>
<trkpt lat="40.0728948" lon="-105.2306565">
  <ele>1585.94</ele>
  <time>2026-08-27T18:29:02Z</time>
  <course>12.0</course>
  <speed>0.022360679774997897</speed>
  <fix>3d</fix>
</trkpt>
<trkpt lat="40.0728947" lon="-105.2306564">
  <ele>1585.87</ele>
  <time>2026-08-27T18:29:02Z</time>
  <course>271.28</course>
  <speed>0.0</speed>
  <fix>3d</fix>
</trkpt>
<trkpt lat="40.0728948" lon="-105.2306565">
  <ele>1585.95</ele>
  <time>2026-08-27T18:29:02Z</time>
  <course>11.98</course>
  <speed>0.022360679774997897</speed>
  <fix>3d</fix>
</trkpt>
<trkpt lat="40.0728947" lon="-105.2306564">
  <ele>1585.87</ele>
  <time>2026-08-27T18:29:02Z</time>
  <course>269.5</course>
  <speed>0.0</speed>
  <fix>3d</fix>
</trkpt>
<trkpt lat="40.0728948" lon="-105.2306565">
  <ele>1585.95</ele>
  <time>2026-08-27T18:29:02Z</time>
  <course>11.95</course>
  <speed>0.022360679774997897</speed>
  <fix>3d</fix>
</trkpt>
<trkpt lat="40.0728947" lon="-105.2306564">
  <ele>1585.87</ele>
  <time>2026-08-27T18:29:02Z</time>
  <course>276.51</course>
  <speed>0.0</speed>
  <fix>3d</fix>
</trkpt>
<trkpt lat="40.0728948" lon="-105.2306565">
  <ele>1585.94</ele>
  <time>2026-08-27T18:29:02Z</time>
  <course>11.93</course>
  <speed>0.022360679774997897</speed>
  <fix>3d</fix>
</trkpt>
<trkpt lat="40.0728947" lon="-105.2306564">
  <ele>1585.87</ele>
  <time>2026-08-27T18:29:02Z</time>
  <course>276.64</course>
  <speed>0.0</speed>
  <fix>3d</fix>
</trkpt>
<trkpt lat="40.0728948" lon="-105.2306565">
  <ele>1585.94</ele>
  <time>2026-08-27T18:29:02Z</time>
  <course>11.9</course>
  <speed>0.022360679774997897</speed>
  <fix>3d</fix>
</trkpt>
<trkpt lat="40.0728947" lon="-105.2306564">
  <ele>1585.87</ele>
  <time>2026-08-27T18:29:02Z</time>
  <course>273.69</course>
  <speed>0.0</speed>
  <fix>3d</fix>
</trkpt>
<trkpt lat="40.0728948" lon="-105.2306565">
  <ele>1585.95</ele>
  <time>2026-08-27T18:29:02Z</time>
  <course>11.88</course>
  <speed>0.022360679774997897</speed>
  <fix>3d</fix>
</trkpt>
<trkpt lat="40.0728947" lon="-105.2306564">
  <ele>1585.87</ele>
  <time>2026-08-27T18:29:02Z</time>
  <course>113.29</course>
  <speed>0.0</speed>
  <fix>3d</fix>
</trkpt>
<trkpt lat="40.0728948" lon="-105.2306565">
  <ele>1585.95</ele>
  <time>2026-08-27T18:29:02Z</time>
  <course>11.86</course>
  <speed>0.022360679774997897</speed>
  <fix>3d</fix>
</trkpt>
<trkpt lat="40.0728947" lon="-105.2306564">
  <ele>1585.87</ele>
  <time>2026-08-27T18:29:02Z</time>
  <course>298.11</course>
  <speed>0.0</speed>
  <fix>3d</fix>
</trkpt>
<trkpt lat="40.0728948" lon="-105.2306565">
  <ele>1585.95</ele>
  <time>2026-08-27T18:29:02Z</time>
  <course>11.83</course>
  <speed>0.022360679774997897</speed>
  <fix>3d</fix>
</trkpt>
<trkpt lat="40.0728947" lon="-105.2306564">
  <ele>1585.87</ele>
  <time>2026-08-27T18:29:02Z</time>
  <course>314.3</course>
  <speed>0.0</speed>
  <fix>3d</fix>
</trkpt>
<trkpt lat="40.0728948" lon="-105.2306565">
  <ele>1585.95</ele>
  <time>2026-08-27T18:29:02Z</time>
  <course>11.81</course>
  <speed>0.022360679774997897</speed>
  <fix>3d</fix>
</trkpt>
<trkpt lat="40.0728947" lon="-105.2306564">
  <ele>1585.87</ele>
  <time>2026-08-27T18:29:02Z</time>
  <course>284.93</course>
  <speed>0.0</speed>
  <fix>3d</fix>
</trkpt>
<trkpt lat="40.0728948" lon="-105.2306565">
  <ele>1585.95</ele>
  <time>2026-08-27T18:29:02Z</time>
  <course>11.78</course>
  <speed>0.022360679774997897</speed>
  <fix>3d</fix>
</trkpt>
<trkpt lat="40.0728947" lon="-105.2306564">
  <ele>1585.87</ele>
  <time>2026-08-27T18:29:02Z</time>
  <course>273.25</course>
  <speed>0.0</speed>
  <fix>3d</fix>
</trkpt>
<trkpt lat="40.0728948" lon="-105.2306565">
  <ele>1585.95</ele>
  <time>2026-08-27T18:29:02Z</time>
  <course>11.76</course>
  <speed>0.022360679774997897</speed>
  <fix>3d</fix>
</trkpt>
<trkpt lat="40.0728947" lon="-105.2306564">
  <ele>1585.87</ele>
  <time>2026-08-27T18:29:02Z</time>
  <course>274.29</course>
  <speed>0.0</speed>
  <fix>3d</fix>
</trkpt>
<trkpt lat="40.0728948" lon="-105.2306565">
  <ele>1585.95</ele>
  <time>2026-08-27T18:29:02Z</time>
  <course>11.74</course>
  <speed>0.022360679774997897</speed>
  <fix>3d</fix>
</trkpt>
<trkpt lat="40.0728947" lon="-105.2306564">
  <ele>1585.87</ele>
  <time>2026-08-27T18:29:02Z</time>
  <course>90.42</course>
  <speed>0.0</speed>
  <fix>3d</fix>
</trkpt>
<trkpt lat="40.0728948" lon="-105.2306565">
  <ele>1585.95</ele>
  <time>2026-08-27T18:29:02Z</time>
  <course>11.71</course>
  <speed>0.022360679774997897</speed>
  <fix>3d</fix>
</trkpt>
<trkpt lat="40.0728947" lon="-105.2306564">
  <ele>1585.87</ele>
  <time>2026-08-27T18:29:02Z</time>
  <course>273.62</course>
  <speed>0.0</speed>
  <fix>3d</fix>
</trkpt>
<trkpt lat="40.0728948" lon="-105.2306565">
  <ele>1585.96</ele>
  <time>2026-08-27T18:29:02Z</time>
  <course>11.69</course>
  <speed>0.022360679774997897</speed>
  <fix>3d</fix>
</trkpt>
<trkpt lat="40.0728947" lon="-105.2306564">
  <ele>1585.87</ele>
  <time>2026-08-27T18:29:02Z</time>
  <course>273.75</course>
  <speed>0.0</speed>
  <fix>3d</fix>
</trkpt>
<trkpt lat="40.0728948" lon="-105.2306565">
  <ele>1585.96</ele>
  <time>2026-08-27T18:29:02Z</time>
  <course>11.67</course>
  <speed>0.022360679774997897</speed>
  <fix>3d</fix>
</trkpt>
<trkpt lat="40.0728947" lon="-105.2306564">
  <ele>1585.87</ele>
  <time>2026-08-27T18:29:02Z</time>
  <course>273.76</course>
  <speed>0.0</speed>
  <fix>3d</fix>
</trkpt>
<trkpt lat="40.0728948" lon="-105.2306565">
  <ele>1585.96</ele>
  <time>2026-08-27T18:29:02Z</time>
  <course>11.64</course>
  <speed>0.022360679774997897</speed>
  <fix>3d</fix>
</trkpt>
<trkpt lat="40.0728947" lon="-105.2306564">
  <ele>1585.87</ele>
  <time>2026-08-27T18:29:02Z</time>
  <course>276.11</course>
  <speed>0.0</speed>
  <fix>3d</fix>
</trkpt>
<trkpt lat="40.0728948" lon="-105.2306565">
  <ele>1585.96</ele>
  <time>2026-08-27T18:29:02Z</time>
  <course>11.62</course>
  <speed>0.022360679774997897</speed>
  <fix>3d</fix>
</trkpt>
<trkpt lat="40.0728947" lon="-105.2306564">
  <ele>1585.87</ele>
  <time>2026-08-27T18:29:02Z</time>
  <course>276.05</course>
  <speed>0.0</speed>
  <fix>3d</fix>
</trkpt>
<trkpt lat="40.0728948" lon="-105.2306565">
  <ele>1585.96</ele>
  <time>2026-08-27T18:29:02Z</time>
  <course>11.6</course>
  <speed>0.022360679774997897</speed>
  <fix>3d</fix>
</trkpt>
<trkpt lat="40.0728947" lon="-105.2306564">
  <ele>1585.87</ele>
  <time>2026-08-27T18:29:02Z</time>
  <course>268.75</course>
  <speed>0.0</speed>
  <fix>3d</fix>
</trkpt>
<trkpt lat="40.0728948" lon="-105.2306565">
  <ele>1585.96</ele>
  <time>2026-08-27T18:29:02Z</time>
  <course>11.57</course>
  <speed>0.022360679774997897</speed>
  <fix>3d</fix>
</trkpt>
<trkpt lat="40.0728947" lon="-105.2306564">
  <ele>1585.87</ele>
  <time>2026-08-27T18:29:02Z</time>
  <course>269.35</course>
  <speed>0.0</speed>
  <fix>3d</fix>
</trkpt>
<trkpt lat="40.0728948" lon="-105.2306565">
  <ele>1585.97</ele>
  <time>2026-08-27T18:29:02Z</time>
  <course>11.55</course>
  <speed>0.022360679774997897</speed>
  <fix>3d</fix>
</trkpt>
<trkpt lat="40.0728947" lon="-105.2306564">
  <ele>1585.87</ele>
  <time>2026-08-27T18:29:02Z</time>
  <course>273.85</course>
  <speed>0.0</speed>
  <fix>3d</fix>
</trkpt>
<trkpt lat="40.0728948" lon="-105.2306565">
  <ele>1585.97</ele>
  <time>2026-08-27T18:29:02Z</time>
  <course>11.53</course>
  <speed>0.022360679774997897</speed>
  <fix>3d</fix>
</trkpt>
<trkpt lat="40.0728947" lon="-105.2306564">
  <ele>1585.87</ele>
  <time>2026-08-27T18:29:02Z</time>
  <course>273.56</course>
  <speed>0.0</speed>
  <fix>3d</fix>
</trkpt>
<trkpt lat="40.0728948" lon="-105.2306565">
  <ele>1585.97</ele>
  <time>2026-08-27T18:29:02Z</time>
  <course>11.51</course>
  <speed>0.022360679774997897</speed>
  <fix>3d</fix>
</trkpt>
<trkpt lat="40.0728947" lon="-105.2306564">
  <ele>1585.87</ele>
  <time>2026-08-27T18:29:02Z</time>
  <course>275.47</course>
  <speed>0.0</speed>
  <fix>3d</fix>
</trkpt>
<trkpt lat="40.0728948" lon="-105.2306565">
  <ele>1585.97</ele>
  <time>2026-08-27T18:29:02Z</time>
  <course>11.48</course>
  <speed>0.022360679774997897</speed>
  <fix>3d</fix>
</trkpt>
<trkpt lat="40.0728947" lon="-105.2306564">
  <ele>1585.87</ele>
  <time>2026-08-27T18:29:02Z</time>
  <course>275.74</course>
  <speed>0.0</speed>
  <fix>3d</fix>
</trkpt>
<trkpt lat="40.0728948" lon="-105.2306565">
  <ele>1585.97</ele>
  <time>2026-08-27T18:29:02Z</time>
  <course>11.46</course>
  <speed>0.022360679774997897</speed>
  <fix>3d</fix>
</trkpt>
<trkpt lat="40.0728947" lon="-105.2306564">
  <ele>1585.87</ele>
  <time>2026-08-27T18:29:02Z</time>
  <course>275.14</course>
  <speed>0.0</speed>
  <fix>3d</fix>
</trkpt>
<trkpt lat="40.0728948" lon="-105.2306565">
  <ele>1585.97</ele>
  <time>2026-08-27T18:29:02Z</time>
  <course>11.44</course>
  <speed>0.022360679774997897</speed>
  <fix>3d</fix>
</trkpt>
<trkpt lat="40.0728947" lon="-105.2306564">
  <ele>1585.87</ele>
  <time>2026-08-27T18:29:02Z</time>
  <course>250.08</course>
  <speed>0.0</speed>
  <fix>3d</fix>
</trkpt>
<trkpt lat="40.0728948" lon="-105.2306565">
  <ele>1585.97</ele>
  <time>2026-08-27T18:29:02Z</time>
  <course>11.42</course>
  <speed>0.022360679774997897</speed>
  <fix>3d</fix>
</trkpt>
<trkpt lat="40.0728947" lon="-105.2306564">
  <ele>1585.87</ele>
  <time>2026-08-27T18:29:02Z</time>
  <course>272.64</course>
  <speed>0.0</speed>
  <fix>3d</fix>
</trkpt>
<trkpt lat="40.0728948" lon="-105.2306565">
  <ele>1585.97</ele>
  <time>2026-08-27T18:29:02Z</time>
  <course>11.4</course>
  <speed>0.022360679774997897</speed>
  <fix>3d</fix>
</trkpt>
<trkpt lat="40.0728947" lon="-105.2306564">
  <ele>1585.87</ele>
  <time>2026-08-27T18:29:02Z</time>
  <course>273.45</course>
  <speed>0.0</speed>
  <fix>3d</fix>
</trkpt>
<trkpt lat="40.0728948" lon="-105.2306565">
  <ele>1585.97</ele>
  <time>2026-08-27T18:29:02Z</time>
  <course>11.38</course>
  <speed>0.01414213562373095</speed>
  <fix>3d</fix>
</trkpt>
<trkpt lat="40.0728947" lon="-105.2306564">
  <ele>1585.87</ele>
  <time>2026-08-27T18:29:02Z</time>
  <course>273.03</course>
  <speed>0.0</speed>
  <fix>3d</fix>
</trkpt>
<trkpt lat="40.0728948" lon="-105.2306565">
  <ele>1585.96</ele>
  <time>2026-08-27T18:29:02Z</time>
  <course>11.35</course>
  <speed>0.01414213562373095</speed>
  <fix>3d</fix>
</trkpt>
<trkpt lat="40.0728947" lon="-105.2306564">
  <ele>1585.87</ele>
  <time>2026-08-27T18:29:02Z</time>
  <course>272.9</course>
  <speed>0.0</speed>
  <fix>3d</fix>
</trkpt>
<trkpt lat="40.0728948" lon="-105.2306565">
  <ele>1585.96</ele>
  <time>2026-08-27T18:29:02Z</time>
  <course>11.33</course>
  <speed>0.022360679774997897</speed>
  <fix>3d</fix>
</trkpt>
<trkpt lat="40.0728947" lon="-105.2306564">
  <ele>1585.87</ele>
  <time>2026-08-27T18:29:02Z</time>
  <course>275.24</course>
  <speed>0.0</speed>
  <fix>3d</fix>
</trkpt>
<trkpt lat="40.0728948" lon="-105.2306565">
  <ele>1585.96</ele>
  <time>2026-08-27T18:29:02Z</time>
  <course>11.31</course>
  <speed>0.022360679774997897</speed>
  <fix>3d</fix>
</trkpt>
<trkpt lat="40.0728947" lon="-105.2306564">
  <ele>1585.87</ele>
  <time>2026-08-27T18:29:02Z</time>
  <course>275.24</course>
  <speed>0.0</speed>
  <fix>3d</fix>
</trkpt>
<trkpt lat="40.0728948" lon="-105.2306565">
  <ele>1585.96</ele>
  <time>2026-08-27T18:29:02Z</time>
  <course>11.29</course>
  <speed>0.022360679774997897</speed>
  <fix>3d</fix>
</trkpt>
<trkpt lat="40.0728947" lon="-105.2306564">
  <ele>1585.87</ele>
  <time>2026-08-27T18:29:02Z</time>
  <course>272.19</course>
  <speed>0.0</speed>
  <fix>3d</fix>
</trkpt>
<trkpt lat="40.0728948" lon="-105.2306565">
  <ele>1585.96</ele>
  <time>2026-08-27T18:29:02Z</time>
  <course>11.27</course>
  <speed>0.022360679774997897</speed>
  <fix>3d</fix>
</trkpt>
<trkpt lat="40.0728947" lon="-105.2306564">
  <ele>1585.87</ele>
  <time>2026-08-27T18:29:02Z</time>
  <course>269.04</course>
  <speed>0.0</speed>
  <fix>3d</fix>
</trkpt>
<trkpt lat="40.0728948" lon="-105.2306565">
  <ele>1585.96</ele>
  <time>2026-08-27T18:29:02Z</time>
  <course>11.25</course>
  <speed>0.022360679774997897</speed>
  <fix>3d</fix>
</trkpt>
<trkpt lat="40.0728947" lon="-105.2306564">
  <ele>1585.87</ele>
  <time>2026-08-27T18:29:02Z</time>
  <course>272.98</course>
  <speed>0.0</speed>
  <fix>3d</fix>
</trkpt>
<trkpt lat="40.0728948" lon="-105.2306565">
  <ele>1585.96</ele>
  <time>2026-08-27T18:29:02Z</time>
  <course>11.22</course>
  <speed>0.022360679774997897</speed>
  <fix>3d</fix>
</trkpt>
<trkpt lat="40.0728947" lon="-105.2306564">
  <ele>1585.87</ele>
  <time>2026-08-27T18:29:02Z</time>
  <course>263.76</course>
  <speed>0.0</speed>
  <fix>3d</fix>
</trkpt>
<trkpt lat="40.0728948" lon="-105.2306565">
  <ele>1585.95</ele>
  <time>2026-08-27T18:29:02Z</time>
  <course>11.21</course>
  <speed>0.022360679774997897</speed>
  <fix>3d</fix>
</trkpt>
<trkpt lat="40.0728947" lon="-105.2306564">
  <ele>1585.87</ele>
  <time>2026-08-27T18:29:02Z</time>
  <course>263.98</course>
  <speed>0.0</speed>
  <fix>3d</fix>
</trkpt>
<trkpt lat="40.0728948" lon="-105.2306565">
  <ele>1585.95</ele>
  <time>2026-08-27T18:29:02Z</time>
  <course>11.2</course>
  <speed>0.022360679774997897</speed>
  <fix>3d</fix>
</trkpt>
<trkpt lat="40.0728947" lon="-105.2306564">
  <ele>1585.87</ele>
  <time>2026-08-27T18:29:02Z</time>
  <course>264.65</course>
  <speed>0.0</speed>
  <fix>3d</fix>
</trkpt>
<trkpt lat="40.0728948" lon="-105.2306565">
  <ele>1585.95</ele>
  <time>2026-08-27T18:29:02Z</time>
  <course>11.18</course>
  <speed>0.022360679774997897</speed>
  <fix>3d</fix>
</trkpt>
<trkpt lat="40.0728947" lon="-105.2306564">
  <ele>1585.87</ele>
  <time>2026-08-27T18:29:02Z</time>
  <course>250.87</course>
  <speed>0.0</speed>
  <fix>3d</fix>
</trkpt>
<trkpt lat="40.0728948" lon="-105.2306565">
  <ele>1585.95</ele>
  <time>2026-08-27T18:29:02Z</time>
  <course>11.18</course>
  <speed>0.022360679774997897</speed>
  <fix>3d</fix>
</trkpt>
<trkpt lat="40.0728948" lon="-105.2306565">
  <ele>1585.95</ele>
  <time>2026-08-27T18:29:02Z</time>
  <course>11.16</course>
  <speed>0.022360679774997897</speed>
  <fix>3d</fix>
</trkpt>
<trkpt lat="40.0728947" lon="-105.2306564">
  <ele>1585.87</ele>
  <time>2026-08-27T18:29:02Z</time>
  <course>273.66</course>
  <speed>0.0</speed>
  <fix>3d</fix>
</trkpt>
<trkpt lat="40.0728948" lon="-105.2306565">
  <ele>1585.95</ele>
  <time>2026-08-27T18:29:02Z</time>
  <course>11.15</course>
  <speed>0.022360679774997897</speed>
  <fix>3d</fix>
</trkpt>
<trkpt lat="40.0728948" lon="-105.2306565">
  <ele>1585.95</ele>
  <time>2026-08-27T18:29:02Z</time>
  <course>11.12</course>
  <speed>0.022360679774997897</speed>
  <fix>3d</fix>
</trkpt>
<trkpt lat="40.0728947" lon="-105.2306564">
  <ele>1585.87</ele>
  <time>2026-08-27T18:29:02Z</time>
  <course>272.87</course>
  <speed>0.0</speed>
  <fix>3d</fix>
</trkpt>
<trkpt lat="40.0728948" lon="-105.2306565">
  <ele>1585.95</ele>
  <time>2026-08-27T18:29:02Z</time>
  <course>11.12</course>
  <speed>0.022360679774997897</speed>
  <fix>3d</fix>
</trkpt>
<trkpt lat="40.0728948" lon="-105.2306565">
  <ele>1585.97</ele>
  <time>2026-08-27T18:29:02Z</time>
  <course>11.06</course>
  <speed>0.022360679774997897</speed>
  <fix>3d</fix>
</trkpt>
<trkpt lat="40.0728947" lon="-105.2306564">
  <ele>1585.87</ele>
  <time>2026-08-27T18:29:02Z</time>
  <course>271.84</course>
  <speed>0.0</speed>
  <fix>3d</fix>
</trkpt>
<trkpt lat="40.0728948" lon="-105.2306565">
  <ele>1585.98</ele>
  <time>2026-08-27T18:29:02Z</time>
  <course>11.05</course>
  <speed>0.022360679774997897</speed>
  <fix>3d</fix>
</trkpt>
<trkpt lat="40.0728948" lon="-105.2306565">
  <ele>1586.02</ele>
  <time>2026-08-27T18:29:02Z</time>
  <course>10.98</course>
  <speed>0.022360679774997897</speed>
  <fix>3d</fix>
</trkpt>
<trkpt lat="40.0728947" lon="-105.2306564">
  <ele>1585.9</ele>
  <time>2026-08-27T18:29:02Z</time>
  <course>274.98</course>
  <speed>0.0</speed>
  <fix>3d</fix>
</trkpt>
<trkpt lat="40.0728948" lon="-105.2306565">
  <ele>1586.03</ele>
  <time>2026-08-27T18:29:02Z</time>
  <course>10.97</course>
  <speed>0.022360679774997897</speed>
  <fix>3d</fix>
</trkpt>
<trkpt lat="40.0728948" lon="-105.2306565">
  <ele>1586.07</ele>
  <time>2026-08-27T18:29:02Z</time>
  <course>10.89</course>
  <speed>0.022360679774997897</speed>
  <fix>3d</fix>
</trkpt>
<trkpt lat="40.0728947" lon="-105.2306564">
  <ele>1585.95</ele>
  <time>2026-08-27T18:29:02Z</time>
  <course>20.83</course>
  <speed>0.0</speed>
  <fix>3d</fix>
</trkpt>
<trkpt lat="40.0728948" lon="-105.2306565">
  <ele>1586.07</ele>
  <time>2026-08-27T18:29:02Z</time>
  <course>10.51</course>
  <speed>0.022360679774997897</speed>
  <fix>3d</fix>
</trkpt>
<trkpt lat="40.0728948" lon="-105.2306566">
  <ele>1586.21</ele>
  <time>2026-08-27T18:29:02Z</time>
  <course>1.88</course>
  <speed>0.1019803902718557</speed>
  <fix>3d</fix>
</trkpt>
<trkpt lat="40.0728947" lon="-105.2306564">
  <ele>1586.03</ele>
  <time>2026-08-27T18:29:02Z</time>
  <course>268.09</course>
  <speed>0.02</speed>
  <fix>3d</fix>
</trkpt>
<trkpt lat="40.0728948" lon="-105.2306566">
  <ele>1586.24</ele>
  <time>2026-08-27T18:29:02Z</time>
  <course>0.94</course>
  <speed>0.12165525060596438</speed>
  <fix>3d</fix>
</trkpt>
<trkpt lat="40.0728948" lon="-105.2306569">
  <ele>1586.45</ele>
  <time>2026-08-27T18:29:02Z</time>
  <course>359.51</course>
  <speed>0.2002498439450079</speed>
  <fix>3d</fix>
</trkpt>
<trkpt lat="40.0728947" lon="-105.2306565">
  <ele>1586.2</ele>
  <time>2026-08-27T18:29:02Z</time>
  <course>263.23</course>
  <speed>0.1</speed>
  <fix>3d</fix>
</trkpt>
<trkpt lat="40.0728948" lon="-105.230657">
  <ele>1586.47</ele>
  <time>2026-08-27T18:29:02Z</time>
  <course>359.5</course>
  <speed>0.21</speed>
  <fix>3d</fix>
</trkpt>
<trkpt lat="40.0728948" lon="-105.2306574">
  <ele>1586.59</ele>
  <time>2026-08-27T18:29:02Z</time>
  <course>359.0</course>
  <speed>0.23021728866442676</speed>
  <fix>3d</fix>
</trkpt>
<trkpt lat="40.0728947" lon="-105.2306568">
  <ele>1586.39</ele>
  <time>2026-08-27T18:29:02Z</time>
  <course>259.11</course>
  <speed>0.19</speed>
  <fix>3d</fix>
</trkpt>
<trkpt lat="40.0728948" lon="-105.2306574">
  <ele>1586.59</ele>
  <time>2026-08-27T18:29:02Z</time>
  <course>358.99</course>
  <speed>0.23021728866442676</speed>
  <fix>3d</fix>
</trkpt>
<trkpt lat="40.0728947" lon="-105.2306579">
  <ele>1586.71</ele>
  <time>2026-08-27T18:29:02Z</time>
  <course>358.07</course>
  <speed>0.24331050121192876</speed>
  <fix>3d</fix>
</trkpt>
<trkpt lat="40.0728946" lon="-105.2306573">
  <ele>1586.53</ele>
  <time>2026-08-27T18:29:02Z</time>
  <course>253.15</course>
  <speed>0.22</speed>
  <fix>3d</fix>
</trkpt>
<trkpt lat="40.0728947" lon="-105.2306579">
  <ele>1586.72</ele>
  <time>2026-08-27T18:29:02Z</time>
  <course>357.98</course>
  <speed>0.24515301344262524</speed>
  <fix>3d</fix>
</trkpt>
<trkpt lat="40.0728946" lon="-105.2306584">
  <ele>1586.81</ele>
  <time>2026-08-27T18:29:02Z</time>
  <course>357.76</course>
  <speed>0.2529822128134704</speed>
  <fix>3d</fix>
</trkpt>
<trkpt lat="40.0728944" lon="-105.2306578">
  <ele>1586.63</ele>
  <time>2026-08-27T18:29:02Z</time>
  <course>246.34</course>
  <speed>0.24</speed>
  <fix>3d</fix>
</trkpt>
<trkpt lat="40.0728945" lon="-105.2306584">
  <ele>1586.83</ele>
  <time>2026-08-27T18:29:02Z</time>
  <course>357.76</course>
  <speed>0.25632011235952595</speed>
  <fix>3d</fix>
</trkpt>
<trkpt lat="40.0728943" lon="-105.2306589">
  <ele>1586.9</ele>
  <time>2026-08-27T18:29:02Z</time>
  <course>357.8</course>
  <speed>0.25942243542145693</speed>
  <fix>3d</fix>
</trkpt>
<trkpt lat="40.0728943" lon="-105.2306584">
  <ele>1586.73</ele>
  <time>2026-08-27T18:29:02Z</time>
  <course>239.35</course>
  <speed>0.26</speed>
  <fix>3d</fix>
</trkpt>
<trkpt lat="40.0728943" lon="-105.230659">
  <ele>1586.92</ele>
  <time>2026-08-27T18:29:02Z</time>
  <course>357.82</course>
  <speed>0.25942243542145693</speed>
  <fix>3d</fix>
</trkpt>
<trkpt lat="40.072894" lon="-105.2306594">
  <ele>1587.0</ele>
  <time>2026-08-27T18:29:02Z</time>
  <course>357.91</course>
  <speed>0.266270539113887</speed>
  <fix>3d</fix>
</trkpt>
<trkpt lat="40.072894" lon="-105.2306589">
  <ele>1586.82</ele>
  <time>2026-08-27T18:29:02Z</time>
  <course>232.41</course>
  <speed>0.26</speed>
  <fix>3d</fix>
</trkpt>
<trkpt lat="40.072894" lon="-105.2306594">
  <ele>1587.0</ele>
  <time>2026-08-27T18:29:02Z</time>
  <course>357.91</course>
  <speed>0.266270539113887</speed>
  <fix>3d</fix>
</trkpt>
<trkpt lat="40.0728937" lon="-105.2306598">
  <ele>1587.09</ele>
  <time>2026-08-27T18:29:02Z</time>
  <course>358.09</course>
  <speed>0.2765863337187866</speed>
  <fix>3d</fix>
</trkpt>
<trkpt lat="40.0728937" lon="-105.2306593">
  <ele>1586.91</ele>
  <time>2026-08-27T18:29:02Z</time>
  <course>225.94</course>
  <speed>0.27</speed>
  <fix>3d</fix>
</trkpt>
<trkpt lat="40.0728936" lon="-105.2306599">
  <ele>1587.11</ele>
  <time>2026-08-27T18:29:02Z</time>
  <course>358.13</course>
  <speed>0.2690724809414742</speed>
  <fix>3d</fix>
</trkpt>
<trkpt lat="40.0728933" lon="-105.2306603">
  <ele>1587.19</ele>
  <time>2026-08-27T18:29:02Z</time>
  <course>358.36</course>
  <speed>0.27586228448267447</speed>
  <fix>3d</fix>
</trkpt>
<trkpt lat="40.0728934" lon="-105.2306598">
  <ele>1587.01</ele>
  <time>2026-08-27T18:29:02Z</time>
  <course>220.2</course>
  <speed>0.28</speed>
  <fix>3d</fix>
</trkpt>
<trkpt lat="40.0728933" lon="-105.2306603">
  <ele>1587.19</ele>
  <time>2026-08-27T18:29:02Z</time>
  <course>358.36</course>
  <speed>0.27586228448267447</speed>
  <fix>3d</fix>
</trkpt>
<trkpt lat="40.0728928" lon="-105.2306606">
  <ele>1587.29</ele>
  <time>2026-08-27T18:29:02Z</time>
  <course>358.68</course>
  <speed>0.2920616373302047</speed>
  <fix>3d</fix>
</trkpt>
<trkpt lat="40.0728929" lon="-105.2306601">
  <ele>1587.11</ele>
  <time>2026-08-27T18:29:02Z</time>
  <course>215.23</course>
  <speed>0.29</speed>
  <fix>3d</fix>
</trkpt>
<trkpt lat="40.0728928" lon="-105.2306607">
  <ele>1587.31</ele>
  <time>2026-08-27T18:29:02Z</time>
  <course>358.72</course>
  <speed>0.2920616373302047</speed>
  <fix>3d</fix>
</trkpt>
<trkpt lat="40.0728923" lon="-105.230661">
  <ele>1587.4</ele>
  <time>2026-08-27T18:29:02Z</time>
  <course>359.03</course>
  <speed>0.3023243291566195</speed>
  <fix>3d</fix>
</trkpt>
<trkpt lat="40.0728924" lon="-105.2306605">
  <ele>1587.21</ele>
  <time>2026-08-27T18:29:02Z</time>
  <course>211.02</course>
  <speed>0.3</speed>
  <fix>3d</fix>
</trkpt>
<trkpt lat="40.0728923" lon="-105.2306611">
  <ele>1587.42</ele>
  <time>2026-08-27T18:29:02Z</time>
  <course>359.07</course>
  <speed>0.31064449134018135</speed>
  <fix>3d</fix>
</trkpt>
<trkpt lat="40.0728918" lon="-105.2306614">
  <ele>1587.52</ele>
  <time>2026-08-27T18:29:02Z</time>
  <course>359.35</course>
  <speed>0.327566787083184</speed>
  <fix>3d</fix>
</trkpt>
<trkpt lat="40.0728919" lon="-105.230661">
  <ele>1587.33</ele>
  <time>2026-08-27T18:29:02Z</time>
  <course>207.5</course>
  <speed>0.32</speed>
  <fix>3d</fix>
</trkpt>
<trkpt lat="40.0728917" lon="-105.2306614">
  <ele>1587.53</ele>
  <time>2026-08-27T18:29:02Z</time>
  <course>359.41</course>
  <speed>0.32249030993194194</speed>
  <fix>3d</fix>
</trkpt>
<trkpt lat="40.0728913" lon="-105.2306617">
  <ele>1587.63</ele>
  <time>2026-08-27T18:29:02Z</time>
  <course>359.76</course>
  <speed>0.34</speed>
  <fix>3d</fix>
</trkpt>
<trkpt lat="40.0728914" lon="-105.2306613">
  <ele>1587.45</ele>
  <time>2026-08-27T18:29:02Z</time>
  <course>204.63</course>
  <speed>0.33</speed>
  <fix>3d</fix>
</trkpt>
<trkpt lat="40.0728912" lon="-105.2306617">
  <ele>1587.63</ele>
  <time>2026-08-27T18:29:02Z</time>
  <course>359.77</course>
  <speed>0.34</speed>
  <fix>3d</fix>
</trkpt>
<trkpt lat="40.0728907" lon="-105.230662">
  <ele>1587.75</ele>
  <time>2026-08-27T18:29:02Z</time>
  <course>0.16</course>
  <speed>0.35341194094144585</speed>
  <fix>3d</fix>
</trkpt>
<trkpt lat="40.0728909" lon="-105.2306616">
  <ele>1587.57</ele>
  <time>2026-08-27T18:29:02Z</time>
  <course>202.3</course>
  <speed>0.35</speed>
  <fix>3d</fix>
</trkpt>
<trkpt lat="40.0728906" lon="-105.230662">
  <ele>1587.77</ele>
  <time>2026-08-27T18:29:02Z</time>
  <course>0.22</course>
  <speed>0.35341194094144585</speed>
  <fix>3d</fix>
</trkpt>
<trkpt lat="40.07289" lon="-105.2306623">
  <ele>1587.87</ele>
  <time>2026-08-27T18:29:02Z</time>
  <course>0.57</course>
  <speed>0.3716180835212409</speed>
  <fix>3d</fix>
</trkpt>
<trkpt lat="40.0728903" lon="-105.2306619">
  <ele>1587.69</ele>
  <time>2026-08-27T18:29:02Z</time>
  <course>200.35</course>
  <speed>0.37</speed>
  <fix>3d</fix>
</trkpt>
<trkpt lat="40.07289" lon="-105.2306623">
  <ele>1587.87</ele>
  <time>2026-08-27T18:29:02Z</time>
  <course>0.58</course>
  <speed>0.3716180835212409</speed>
  <fix>3d</fix>
</trkpt>
<trkpt lat="40.0728894" lon="-105.2306626">
  <ele>1588.0</ele>
  <time>2026-08-27T18:29:02Z</time>
  <course>0.99</course>
  <speed>0.38626415831655936</speed>
  <fix>3d</fix>
</trkpt>
<trkpt lat="40.0728896" lon="-105.2306622">
  <ele>1587.82</ele>
  <time>2026-08-27T18:29:02Z</time>
  <course>198.71</course>
  <speed>0.38</speed>
  <fix>3d</fix>
</trkpt>
<trkpt lat="40.0728893" lon="-105.2306626">
  <ele>1588.02</ele>
  <time>2026-08-27T18:29:02Z</time>
  <course>1.05</course>
  <speed>0.38626415831655936</speed>
  <fix>3d</fix>
</trkpt>
<trkpt lat="40.0728887" lon="-105.2306629">
  <ele>1588.13</ele>
  <time>2026-08-27T18:29:02Z</time>
  <course>1.41</course>
  <speed>0.3956008088970496</speed>
  <fix>3d</fix>
</trkpt>
<trkpt lat="40.0728889" lon="-105.2306625">
  <ele>1587.95</ele>
  <time>2026-08-27T18:29:02Z</time>
  <course>197.33</course>
  <speed>0.39</speed>
  <fix>3d</fix>
</trkpt>
<trkpt lat="40.0728886" lon="-105.2306629">
  <ele>1588.15</ele>
  <time>2026-08-27T18:29:02Z</time>
  <course>1.46</course>
  <speed>0.3956008088970496</speed>
  <fix>3d</fix>
</trkpt>
<trkpt lat="40.0728879" lon="-105.2306631">
  <ele>1588.26</ele>
  <time>2026-08-27T18:29:02Z</time>
  <course>1.81</course>
  <speed>0.41109609582188933</speed>
  <fix>3d</fix>
</trkpt>
<trkpt lat="40.0728882" lon="-105.2306628">
  <ele>1588.08</ele>
  <time>2026-08-27T18:29:02Z</time>
  <course>196.23</course>
  <speed>0.41</speed>
  <fix>3d</fix>
</trkpt>
<trkpt lat="40.0728879" lon="-105.2306631">
  <ele>1588.26</ele>
  <time>2026-08-27T18:29:02Z</time>
  <course>1.81</course>
  <speed>0.41109609582188933</speed>
  <fix>3d</fix>
</trkpt>
<trkpt lat="40.0728872" lon="-105.2306634">
  <ele>1588.4</ele>
  <time>2026-08-27T18:29:02Z</time>
  <course>2.22</course>
  <speed>0.4205948168962618</speed>
  <fix>3d</fix>
</trkpt>
<trkpt lat="40.0728875" lon="-105.230663">
  <ele>1588.21</ele>
  <time>2026-08-27T18:29:02Z</time>
  <course>195.38</course>
  <speed>0.42</speed>
  <fix>3d</fix>
</trkpt>
<trkpt lat="40.0728871" lon="-105.2306634">
  <ele>1588.42</ele>
  <time>2026-08-27T18:29:02Z</time>
  <course>2.27</course>
  <speed>0.4205948168962618</speed>
  <fix>3d</fix>
</trkpt>
<trkpt lat="40.0728864" lon="-105.2306637">
  <ele>1588.53</ele>
  <time>2026-08-27T18:29:02Z</time>
  <course>5.56</course>
  <speed>0.4301162633521314</speed>
  <fix>3d</fix>
</trkpt>
<trkpt lat="40.0728868" lon="-105.2306633">
  <ele>1588.34</ele>
  <time>2026-08-27T18:29:02Z</time>
  <course>194.7</course>
  <speed>0.43</speed>
  <fix>3d</fix>
</trkpt>
<trkpt lat="40.0728864" lon="-105.2306637">
  <ele>1588.53</ele>
  <time>2026-08-27T18:29:02Z</time>
  <course>5.57</course>
  <speed>0.4301162633521314</speed>
  <fix>3d</fix>
</trkpt>
<trkpt lat="40.0728856" lon="-105.2306639">
  <ele>1588.66</ele>
  <time>2026-08-27T18:29:02Z</time>
  <course>3.1</course>
  <speed>0.44922154890432403</speed>
  <fix>3d</fix>
</trkpt>
<trkpt lat="40.0728859" lon="-105.2306635">
  <ele>1588.47</ele>
  <time>2026-08-27T18:29:02Z</time>
  <course>194.15</course>
  <speed>0.45</speed>
  <fix>3d</fix>
</trkpt>
<trkpt lat="40.0728855" lon="-105.2306639">
  <ele>1588.67</ele>
  <time>2026-08-27T18:29:02Z</time>
  <course>2.76</course>
  <speed>0.44922154890432403</speed>
  <fix>3d</fix>
</trkpt>
<trkpt lat="40.0728848" lon="-105.2306642">
  <ele>1588.79</ele>
  <time>2026-08-27T18:29:02Z</time>
  <course>2.68</course>
  <speed>0.46840153714521476</speed>
  <fix>3d</fix>
</trkpt>
<trkpt lat="40.0728852" lon="-105.2306638">
  <ele>1588.6</ele>
  <time>2026-08-27T18:29:02Z</time>
  <course>194.05</course>
  <speed>0.46</speed>
  <fix>3d</fix>
</trkpt>
<trkpt lat="40.0728848" lon="-105.2306642">
  <ele>1588.79</ele>
  <time>2026-08-27T18:29:02Z</time>
  <course>2.69</course>
  <speed>0.46840153714521476</speed>
  <fix>3d</fix>
</trkpt>
<trkpt lat="40.0728839" lon="-105.2306644">
  <ele>1588.92</ele>
  <time>2026-08-27T18:29:02Z</time>
  <course>4.52</course>
  <speed>0.4876474136094644</speed>
  <fix>3d</fix>
</trkpt>
<trkpt lat="40.0728843" lon="-105.2306641">
  <ele>1588.72</ele>
  <time>2026-08-27T18:29:02Z</time>
  <course>194.02</course>
  <speed>0.47</speed>
  <fix>3d</fix>
</trkpt>
<trkpt lat="40.0728838" lon="-105.2306645">
  <ele>1588.93</ele>
  <time>2026-08-27T18:29:02Z</time>
  <course>4.76</course>
  <speed>0.4876474136094644</speed>
  <fix>3d</fix>
</trkpt>
<trkpt lat="40.0728831" lon="-105.2306647">
  <ele>1589.04</ele>
  <time>2026-08-27T18:29:02Z</time>
  <course>5.91</course>
  <speed>0.49729267036625424</speed>
  <fix>3d</fix>
</trkpt>
<trkpt lat="40.0728836" lon="-105.2306644">
  <ele>1588.85</ele>
  <time>2026-08-27T18:29:02Z</time>
  <course>193.62</course>
  <speed>0.47</speed>
  <fix>3d</fix>
</trkpt>
<trkpt lat="40.0728829" lon="-105.2306647">
  <ele>1589.06</ele>
  <time>2026-08-27T18:29:02Z</time>
  <course>6.07</course>
  <speed>0.49729267036625424</speed>
  <fix>3d</fix>
</trkpt>
<trkpt lat="40.0728822" lon="-105.230665">
  <ele>1589.17</ele>
  <time>2026-08-27T18:29:02Z</time>
  <course>6.76</course>
  <speed>0.49729267036625424</speed>
  <fix>3d</fix>
</trkpt>
<trkpt lat="40.0728828" lon="-105.2306646">
  <ele>1588.97</ele>
  <time>2026-08-27T18:29:02Z</time>
  <course>193.28</course>
  <speed>0.47</speed>
  <fix>3d</fix>
</trkpt>
<trkpt lat="40.0728821" lon="-105.230665">
  <ele>1589.19</ele>
  <time>2026-08-27T18:29:02Z</time>
  <course>6.87</course>
  <speed>0.49729267036625424</speed>
  <fix>3d</fix>
</trkpt>
<trkpt lat="40.0728813" lon="-105.2306652">
  <ele>1589.29</ele>
  <time>2026-08-27T18:29:02Z</time>
  <course>7.31</course>
  <speed>0.49729267036625424</speed>
  <fix>3d</fix>
</trkpt>
<trkpt lat="40.0728819" lon="-105.2306648">
  <ele>1589.09</ele>
  <time>2026-08-27T18:29:02Z</time>
  <course>193.15</course>
  <speed>0.47</speed>
  <fix>3d</fix>
</trkpt>
<trkpt lat="40.0728812" lon="-105.2306653">
  <ele>1589.31</ele>
  <time>2026-08-27T18:29:02Z</time>
  <course>7.38</course>
  <speed>0.49729267036625424</speed>
  <fix>3d</fix>
</trkpt>
<trkpt lat="40.0728805" lon="-105.2306655">
  <ele>1589.42</ele>
  <time>2026-08-27T18:29:02Z</time>
  <course>7.72</course>
  <speed>0.49729267036625424</speed>
  <fix>3d</fix>
</trkpt>
<trkpt lat="40.0728811" lon="-105.2306651">
  <ele>1589.22</ele>
  <time>2026-08-27T18:29:02Z</time>
  <course>193.19</course>
  <speed>0.47</speed>
  <fix>3d</fix>
</trkpt>
<trkpt lat="40.0728805" lon="-105.2306655">
  <ele>1589.42</ele>
  <time>2026-08-27T18:29:02Z</time>
  <course>7.72</course>
  <speed>0.49729267036625424</speed>
  <fix>3d</fix>
</trkpt>
<trkpt lat="40.0728797" lon="-105.2306657">
  <ele>1589.54</ele>
  <time>2026-08-27T18:29:02Z</time>
  <course>8.0</course>
  <speed>0.49729267036625424</speed>
  <fix>3d</fix>
</trkpt>
<trkpt lat="40.0728802" lon="-105.2306654">
  <ele>1589.34</ele>
  <time>2026-08-27T18:29:02Z</time>
  <course>193.33</course>
  <speed>0.48</speed>
  <fix>3d</fix>
</trkpt>
<trkpt lat="40.0728796" lon="-105.2306658">
  <ele>1589.55</ele>
  <time>2026-08-27T18:29:02Z</time>
  <course>8.04</course>
  <speed>0.49729267036625424</speed>
  <fix>3d</fix>
</trkpt>
<trkpt lat="40.0728788" lon="-105.230666">
  <ele>1589.66</ele>
  <time>2026-08-27T18:29:02Z</time>
  <course>8.25</course>
  <speed>0.49729267036625424</speed>
  <fix>3d</fix>
</trkpt>
<trkpt lat="40.0728794" lon="-105.2306657">
  <ele>1589.46</ele>
  <time>2026-08-27T18:29:02Z</time>
  <course>193.53</course>
  <speed>0.48</speed>
  <fix>3d</fix>
</trkpt>
<trkpt lat="40.0728787" lon="-105.230666">
  <ele>1589.68</ele>
  <time>2026-08-27T18:29:02Z</time>
  <course>8.29</course>
  <speed>0.49729267036625424</speed>
  <fix>3d</fix>
</trkpt>
<trkpt lat="40.072878" lon="-105.2306662">
  <ele>1589.78</ele>
  <time>2026-08-27T18:29:02Z</time>
  <course>8.47</course>
  <speed>0.49729267036625424</speed>
  <fix>3d</fix>
</trkpt>
<trkpt lat="40.0728785" lon="-105.2306659">
  <ele>1589.58</ele>
  <time>2026-08-27T18:29:02Z</time>
  <course>193.75</course>
  <speed>0.48</speed>
  <fix>3d</fix>
</trkpt>
<trkpt lat="40.0728779" lon="-105.2306663">
  <ele>1589.8</ele>
  <time>2026-08-27T18:29:02Z</time>
  <course>8.49</course>
  <speed>0.49729267036625424</speed>
  <fix>3d</fix>
</trkpt>
<trkpt lat="40.0728772" lon="-105.2306665">
  <ele>1589.91</ele>
  <time>2026-08-27T18:29:02Z</time>
  <course>8.64</course>
  <speed>0.49729267036625424</speed>
  <fix>3d</fix>
</trkpt>
<trkpt lat="40.0728776" lon="-105.2306662">
  <ele>1589.7</ele>
  <time>2026-08-27T18:29:02Z</time>
  <course>193.97</course>
  <speed>0.48</speed>
  <fix>3d</fix>
</trkpt>
<trkpt lat="40.072877" lon="-105.2306665">
  <ele>1589.92</ele>
  <time>2026-08-27T18:29:02Z</time>
  <course>8.67</course>
  <speed>0.49729267036625424</speed>
  <fix>3d</fix>
</trkpt>
<trkpt lat="40.0728763" lon="-105.2306668">
  <ele>1590.03</ele>
  <time>2026-08-27T18:29:02Z</time>
  <course>8.85</course>
  <speed>0.49729267036625424</speed>
  <fix>3d</fix>
</trkpt>
<trkpt lat="40.0728768" lon="-105.2306665">
  <ele>1589.83</ele>
  <time>2026-08-27T18:29:02Z</time>
  <course>194.2</course>
  <speed>0.48</speed>
  <fix>3d</fix>
</trkpt>
<trkpt lat="40.0728762" lon="-105.2306668">
  <ele>1590.05</ele>
  <time>2026-08-27T18:29:02Z</time>
  <course>8.88</course>
  <speed>0.49729267036625424</speed>
  <fix>3d</fix>
</trkpt>
<trkpt lat="40.0728755" lon="-105.230667">
  <ele>1590.15</ele>
  <time>2026-08-27T18:29:02Z</time>
  <course>9.03</course>
  <speed>0.49729267036625424</speed>
  <fix>3d</fix>
</trkpt>
<trkpt lat="40.0728759" lon="-105.2306668">
  <ele>1589.95</ele>
  <time>2026-08-27T18:29:02Z</time>
  <course>194.43</course>
  <speed>0.48</speed>
  <fix>3d</fix>
</trkpt>
<trkpt lat="40.0728755" lon="-105.230667">
  <ele>1590.16</ele>
  <time>2026-08-27T18:29:02Z</time>
  <course>9.03</course>
  <speed>0.49729267036625424</speed>
  <fix>3d</fix>
</trkpt>
<trkpt lat="40.0728746" lon="-105.2306673">
  <ele>1590.28</ele>
  <time>2026-08-27T18:29:02Z</time>
  <course>9.2</course>
  <speed>0.49729267036625424</speed>
  <fix>3d</fix>
</trkpt>
<trkpt lat="40.0728751" lon="-105.230667">
  <ele>1590.08</ele>
  <time>2026-08-27T18:29:02Z</time>
  <course>194.66</course>
  <speed>0.49</speed>
  <fix>3d</fix>
</trkpt>
<trkpt lat="40.0728745" lon="-105.2306674">
  <ele>1590.3</ele>
  <time>2026-08-27T18:29:02Z</time>
  <course>9.23</course>
  <speed>0.49729267036625424</speed>
  <fix>3d</fix>
</trkpt>
<trkpt lat="40.0728738" lon="-105.2306676">
  <ele>1590.4</ele>
  <time>2026-08-27T18:29:02Z</time>
  <course>9.33</course>
  <speed>0.49729267036625424</speed>
  <fix>3d</fix>
</trkpt>
<trkpt lat="40.0728742" lon="-105.2306673">
  <ele>1590.2</ele>
  <time>2026-08-27T18:29:02Z</time>
  <course>194.85</course>
  <speed>0.49</speed>
  <fix>3d</fix>
</trkpt>
<trkpt lat="40.0728736" lon="-105.2306676">
  <ele>1590.42</ele>
  <time>2026-08-27T18:29:02Z</time>
  <course>9.36</course>
  <speed>0.49729267036625424</speed>
  <fix>3d</fix>
</trkpt>
<trkpt lat="40.0728729" lon="-105.2306679">
  <ele>1590.53</ele>
  <time>2026-08-27T18:29:02Z</time>
  <course>9.48</course>
  <speed>0.49729267036625424</speed>
  <fix>3d</fix>
</trkpt>
<trkpt lat="40.0728734" lon="-105.2306676">
  <ele>1590.33</ele>
  <time>2026-08-27T18:29:02Z</time>
  <course>195.04</course>
  <speed>0.49</speed>
  <fix>3d</fix>
</trkpt>
<trkpt lat="40.0728728" lon="-105.2306679">
  <ele>1590.54</ele>
  <time>2026-08-27T18:29:02Z</time>
  <course>9.5</course>
  <speed>0.49729267036625424</speed>
  <fix>3d</fix>
</trkpt>
<trkpt lat="40.072872" lon="-105.2306682">
  <ele>1590.65</ele>
  <time>2026-08-27T18:29:02Z</time>
  <course>9.66</course>
  <speed>0.49729267036625424</speed>
  <fix>3d</fix>
</trkpt>
<trkpt lat="40.0728725" lon="-105.2306679">
  <ele>1590.45</ele>
  <time>2026-08-27T18:29:02Z</time>
  <course>195.25</course>
  <speed>0.49</speed>
  <fix>3d</fix>
</trkpt>
<trkpt lat="40.072872" lon="-105.2306682">
  <ele>1590.66</ele>
  <time>2026-08-27T18:29:02Z</time>
  <course>9.66</course>
  <speed>0.49729267036625424</speed>
  <fix>3d</fix>
</trkpt>
<trkpt lat="40.0728712" lon="-105.2306685">
  <ele>1590.78</ele>
  <time>2026-08-27T18:29:02Z</time>
  <course>9.82</course>
  <speed>0.49729267036625424</speed>
  <fix>3d</fix>
</trkpt>
<trkpt lat="40.0728717" lon="-105.2306682">
  <ele>1590.58</ele>
  <time>2026-08-27T18:29:02Z</time>
  <course>195.44</course>
  <speed>0.49</speed>
  <fix>3d</fix>
</trkpt>
<trkpt lat="40.072871" lon="-105.2306685">
  <ele>1590.8</ele>
  <time>2026-08-27T18:29:02Z</time>
  <course>9.83</course>
  <speed>0.49729267036625424</speed>
  <fix>3d</fix>
</trkpt>
<trkpt lat="40.0728703" lon="-105.2306688">
  <ele>1590.91</ele>
  <time>2026-08-27T18:29:02Z</time>
  <course>9.94</course>
  <speed>0.49729267036625424</speed>
  <fix>3d</fix>
</trkpt>
<trkpt lat="40.0728708" lon="-105.2306686">
  <ele>1590.71</ele>
  <time>2026-08-27T18:29:02Z</time>
  <course>195.63</course>
  <speed>0.5</speed>
  <fix>3d</fix>
</trkpt>
<trkpt lat="40.0728703" lon="-105.2306688">
  <ele>1590.91</ele>
  <time>2026-08-27T18:29:02Z</time>
  <course>9.94</course>
  <speed>0.49729267036625424</speed>
  <fix>3d</fix>
</trkpt>
<trkpt lat="40.0728694" lon="-105.2306691">
  <ele>1591.03</ele>
  <time>2026-08-27T18:29:02Z</time>
  <course>10.1</course>
  <speed>0.49729267036625424</speed>
  <fix>3d</fix>
</trkpt>
<trkpt lat="40.0728699" lon="-105.2306689">
  <ele>1590.84</ele>
  <time>2026-08-27T18:29:02Z</time>
  <course>195.81</course>
  <speed>0.5</speed>
  <fix>3d</fix>
</trkpt>
<trkpt lat="40.0728693" lon="-105.2306691">
  <ele>1591.05</ele>
  <time>2026-08-27T18:29:02Z</time>
  <course>10.12</course>
  <speed>0.5</speed>
  <fix>3d</fix>
</trkpt>
<trkpt lat="40.0728686" lon="-105.2306694">
  <ele>1591.16</ele>
  <time>2026-08-27T18:29:02Z</time>
  <course>10.2</course>
  <speed>0.5</speed>
  <fix>3d</fix>
</trkpt>
<trkpt lat="40.0728691" lon="-105.2306692">
  <ele>1590.96</ele>
  <time>2026-08-27T18:29:02Z</time>
  <course>195.95</course>
  <speed>0.5</speed>
  <fix>3d</fix>
</trkpt>
<trkpt lat="40.0728684" lon="-105.2306695">
  <ele>1591.18</ele>
  <time>2026-08-27T18:29:02Z</time>
  <course>10.21</course>
  <speed>0.49040799340956914</speed>
  <fix>3d</fix>
</trkpt>
<trkpt lat="40.0728677" lon="-105.2306697">
  <ele>1591.28</ele>
  <time>2026-08-27T18:29:02Z</time>
  <course>10.33</course>
  <speed>0.49040799340956914</speed>
  <fix>3d</fix>
</trkpt>
<trkpt lat="40.0728682" lon="-105.2306695">
  <ele>1591.09</ele>
  <time>2026-08-27T18:29:02Z</time>
  <course>196.1</course>
  <speed>0.5</speed>
  <fix>3d</fix>
</trkpt>
<trkpt lat="40.0728677" lon="-105.2306697">
  <ele>1591.29</ele>
  <time>2026-08-27T18:29:02Z</time>
  <course>10.34</course>
  <speed>0.49040799340956914</speed>
  <fix>3d</fix>
</trkpt>
<trkpt lat="40.0728668" lon="-105.2306701">
  <ele>1591.41</ele>
  <time>2026-08-27T18:29:02Z</time>
  <course>10.47</course>
  <speed>0.49040799340956914</speed>
  <fix>3d</fix>
</trkpt>
<trkpt lat="40.0728673" lon="-105.2306699">
  <ele>1591.21</ele>
  <time>2026-08-27T18:29:02Z</time>
  <course>196.26</course>
  <speed>0.5</speed>
  <fix>3d</fix>
</trkpt>
<trkpt lat="40.0728667" lon="-105.2306701">
  <ele>1591.43</ele>
  <time>2026-08-27T18:29:02Z</time>
  <course>10.49</course>
  <speed>0.49040799340956914</speed>
  <fix>3d</fix>
</trkpt>
<trkpt lat="40.072866" lon="-105.2306704">
  <ele>1591.54</ele>
  <time>2026-08-27T18:29:02Z</time>
  <course>10.56</course>
  <speed>0.49040799340956914</speed>
  <fix>3d</fix>
</trkpt>
<trkpt lat="40.0728665" lon="-105.2306702">
  <ele>1591.34</ele>
  <time>2026-08-27T18:29:02Z</time>
  <course>196.36</course>
  <speed>0.5</speed>
  <fix>3d</fix>
</trkpt>
<trkpt lat="40.0728658" lon="-105.2306704">
  <ele>1591.56</ele>
  <time>2026-08-27T18:29:02Z</time>
  <course>10.58</course>
  <speed>0.49040799340956914</speed>
  <fix>3d</fix>
</trkpt>
<trkpt lat="40.0728651" lon="-105.2306707">
  <ele>1591.66</ele>
  <time>2026-08-27T18:29:02Z</time>
  <course>10.69</course>
  <speed>0.49040799340956914</speed>
  <fix>3d</fix>
</trkpt>
<trkpt lat="40.0728656" lon="-105.2306705">
  <ele>1591.47</ele>
  <time>2026-08-27T18:29:02Z</time>
  <course>196.47</course>
  <speed>0.5</speed>
  <fix>3d</fix>
</trkpt>
<trkpt lat="40.0728651" lon="-105.2306707">
  <ele>1591.67</ele>
  <time>2026-08-27T18:29:02Z</time>
  <course>10.69</course>
  <speed>0.49040799340956914</speed>
  <fix>3d</fix>
</trkpt>
<trkpt lat="40.0728642" lon="-105.2306711">
  <ele>1591.79</ele>
  <time>2026-08-27T18:29:02Z</time>
  <course>10.83</course>
  <speed>0.49040799340956914</speed>
  <fix>3d</fix>
</trkpt>
<trkpt lat="40.0728647" lon="-105.2306708">
  <ele>1591.59</ele>
  <time>2026-08-27T18:29:02Z</time>
  <course>196.6</course>
  <speed>0.5</speed>
  <fix>3d</fix>
</trkpt>
<trkpt lat="40.0728641" lon="-105.2306711">
  <ele>1591.81</ele>
  <time>2026-08-27T18:29:02Z</time>
  <course>10.85</course>
  <speed>0.49040799340956914</speed>
  <fix>3d</fix>
</trkpt>
<trkpt lat="40.0728634" lon="-105.2306714">
  <ele>1591.91</ele>
  <time>2026-08-27T18:29:03Z</time>
  <course>10.93</course>
  <speed>0.49040799340956914</speed>
  <fix>3d</fix>
</trkpt>
<trkpt lat="40.0728639" lon="-105.2306712">
  <ele>1591.72</ele>
  <time>2026-08-27T18:29:03Z</time>
  <course>196.68</course>
  <speed>0.5</speed>
  <fix>3d</fix>
</trkpt>
<trkpt lat="40.0728634" lon="-105.2306714">
  <ele>1591.91</ele>
  <time>2026-08-27T18:29:03Z</time>
  <course>10.93</course>
  <speed>0.49040799340956914</speed>
  <fix>3d</fix>
</trkpt>
<trkpt lat="40.0728625" lon="-105.2306717">
  <ele>1592.03</ele>
  <time>2026-08-27T18:29:03Z</time>
  <course>11.03</course>
  <speed>0.49040799340956914</speed>
  <fix>3d</fix>
</trkpt>
<trkpt lat="40.072863" lon="-105.2306715">
  <ele>1591.85</ele>
  <time>2026-08-27T18:29:03Z</time>
  <course>196.72</course>
  <speed>0.5</speed>
  <fix>3d</fix>
</trkpt>
<trkpt lat="40.0728624" lon="-105.2306718">
  <ele>1592.05</ele>
  <time>2026-08-27T18:29:03Z</time>
  <course>11.04</course>
  <speed>0.49040799340956914</speed>
  <fix>3d</fix>
</trkpt>
<trkpt lat="40.0728616" lon="-105.2306721">
  <ele>1592.16</ele>
  <time>2026-08-27T18:29:03Z</time>
  <course>11.13</course>
  <speed>0.4933558553417604</speed>
  <fix>3d</fix>
</trkpt>
<trkpt lat="40.0728621" lon="-105.2306719">
  <ele>1591.97</ele>
  <time>2026-08-27T18:29:03Z</time>
  <course>196.8</course>
  <speed>0.5</speed>
  <fix>3d</fix>
</trkpt>
<trkpt lat="40.0728615" lon="-105.2306721">
  <ele>1592.18</ele>
  <time>2026-08-27T18:29:03Z</time>
  <course>11.15</course>
  <speed>0.4933558553417604</speed>
  <fix>3d</fix>
</trkpt>
<trkpt lat="40.0728608" lon="-105.2306724">
  <ele>1592.29</ele>
  <time>2026-08-27T18:29:03Z</time>
  <course>11.26</course>
  <speed>0.4933558553417604</speed>
  <fix>3d</fix>
</trkpt>
<trkpt lat="40.0728613" lon="-105.2306723">
  <ele>1592.1</ele>
  <time>2026-08-27T18:29:03Z</time>
  <course>196.9</course>
  <speed>0.5</speed>
  <fix>3d</fix>
</trkpt>
<trkpt lat="40.0728607" lon="-105.2306725">
  <ele>1592.31</ele>
  <time>2026-08-27T18:29:03Z</time>
  <course>11.27</course>
  <speed>0.4933558553417604</speed>
  <fix>3d</fix>
</trkpt>
<trkpt lat="40.0728599" lon="-105.2306728">
  <ele>1592.42</ele>
  <time>2026-08-27T18:29:03Z</time>
  <course>11.35</course>
  <speed>0.4838388161361178</speed>
  <fix>3d</fix>
</trkpt>
<trkpt lat="40.0728604" lon="-105.2306726">
  <ele>1592.22</ele>
  <time>2026-08-27T18:29:03Z</time>
  <course>196.98</course>
  <speed>0.5</speed>
  <fix>3d</fix>
</trkpt>
<trkpt lat="40.0728598" lon="-105.2306728">
  <ele>1592.44</ele>
  <time>2026-08-27T18:29:03Z</time>
  <course>11.37</course>
  <speed>0.4838388161361178</speed>
  <fix>3d</fix>
</trkpt>
<trkpt lat="40.0728591" lon="-105.2306731">
  <ele>1592.55</ele>
  <time>2026-08-27T18:29:03Z</time>
  <course>11.47</course>
  <speed>0.4838388161361178</speed>
  <fix>3d</fix>
</trkpt>
<trkpt lat="40.0728595" lon="-105.230673">
  <ele>1592.35</ele>
  <time>2026-08-27T18:29:03Z</time>
  <course>197.04</course>
  <speed>0.5</speed>
  <fix>3d</fix>
</trkpt>
<trkpt lat="40.0728591" lon="-105.2306731">
  <ele>1592.55</ele>
  <time>2026-08-27T18:29:03Z</time>
  <course>11.47</course>
  <speed>0.4838388161361178</speed>
  <fix>3d</fix>
</trkpt>
<trkpt lat="40.0728582" lon="-105.2306735">
  <ele>1592.68</ele>
  <time>2026-08-27T18:29:03Z</time>
  <course>11.58</course>
  <speed>0.4838388161361178</speed>
  <fix>3d</fix>
</trkpt>
<trkpt lat="40.0728587" lon="-105.2306733">
  <ele>1592.48</ele>
  <time>2026-08-27T18:29:03Z</time>
  <course>197.08</course>
  <speed>0.5</speed>
  <fix>3d</fix>
</trkpt>
<trkpt lat="40.0728581" lon="-105.2306735">
  <ele>1592.7</ele>
  <time>2026-08-27T18:29:03Z</time>
  <course>11.59</course>
  <speed>0.4838388161361178</speed>
  <fix>3d</fix>
</trkpt>
<trkpt lat="40.0728574" lon="-105.2306738">
  <ele>1592.81</ele>
  <time>2026-08-27T18:29:03Z</time>
  <course>11.68</course>
  <speed>0.4838388161361178</speed>
  <fix>3d</fix>
</trkpt>
<trkpt lat="40.0728578" lon="-105.2306737">
  <ele>1592.6</ele>
  <time>2026-08-27T18:29:03Z</time>
  <course>197.1</course>
  <speed>0.5</speed>
  <fix>3d</fix>
</trkpt>
<trkpt lat="40.0728572" lon="-105.2306739">
  <ele>1592.83</ele>
  <time>2026-08-27T18:29:03Z</time>
  <course>11.7</course>
  <speed>0.4838388161361178</speed>
  <fix>3d</fix>
</trkpt>
<trkpt lat="40.0728565" lon="-105.2306742">
  <ele>1592.94</ele>
  <time>2026-08-27T18:29:03Z</time>
  <course>11.78</course>
  <speed>0.4838388161361178</speed>
  <fix>3d</fix>
</trkpt>
<trkpt lat="40.0728569" lon="-105.230674">
  <ele>1592.73</ele>
  <time>2026-08-27T18:29:03Z</time>
  <course>197.1</course>
  <speed>0.5</speed>
  <fix>3d</fix>
</trkpt>
<trkpt lat="40.0728564" lon="-105.2306743">
  <ele>1592.96</ele>
  <time>2026-08-27T18:29:03Z</time>
  <course>11.79</course>
  <speed>0.4838388161361178</speed>
  <fix>3d</fix>
</trkpt>
<trkpt lat="40.0728557" lon="-105.2306746">
  <ele>1593.06</ele>
  <time>2026-08-27T18:29:03Z</time>
  <course>11.87</course>
  <speed>0.4743416490252569</speed>
  <fix>3d</fix>
</trkpt>
<trkpt lat="40.072856" lon="-105.2306743">
  <ele>1592.85</ele>
  <time>2026-08-27T18:29:03Z</time>
  <course>197.1</course>
  <speed>0.5</speed>
  <fix>3d</fix>
</trkpt>
<trkpt lat="40.0728555" lon="-105.2306746">
  <ele>1593.08</ele>
  <time>2026-08-27T18:29:03Z</time>
  <course>11.89</course>
  <speed>0.4743416490252569</speed>
  <fix>3d</fix>
</trkpt>
<trkpt lat="40.0728548" lon="-105.2306749">
  <ele>1593.19</ele>
  <time>2026-08-27T18:29:03Z</time>
  <course>11.95</course>
  <speed>0.4743416490252569</speed>
  <fix>3d</fix>
</trkpt>
<trkpt lat="40.0728552" lon="-105.2306747">
  <ele>1592.98</ele>
  <time>2026-08-27T18:29:03Z</time>
  <course>197.11</course>
  <speed>0.5</speed>
  <fix>3d</fix>
</trkpt>
<trkpt lat="40.0728548" lon="-105.2306749">
  <ele>1593.19</ele>
  <time>2026-08-27T18:29:03Z</time>
  <course>11.96</course>
  <speed>0.4743416490252569</speed>
  <fix>3d</fix>
</trkpt>
<trkpt lat="40.0728539" lon="-105.2306753">
  <ele>1593.31</ele>
  <time>2026-08-27T18:29:03Z</time>
  <course>12.04</course>
  <speed>0.4743416490252569</speed>
  <fix>3d</fix>
</trkpt>
<trkpt lat="40.0728543" lon="-105.230675">
  <ele>1593.1</ele>
  <time>2026-08-27T18:29:03Z</time>
  <course>197.16</course>
  <speed>0.5</speed>
  <fix>3d</fix>
</trkpt>
<trkpt lat="40.0728538" lon="-105.2306753">
  <ele>1593.33</ele>
  <time>2026-08-27T18:29:03Z</time>
  <course>12.06</course>
  <speed>0.4743416490252569</speed>
  <fix>3d</fix>
</trkpt>
<trkpt lat="40.0728531" lon="-105.2306756">
  <ele>1593.43</ele>
  <time>2026-08-27T18:29:03Z</time>
  <course>12.13</course>
  <speed>0.4743416490252569</speed>
  <fix>3d</fix>
</trkpt>
<trkpt lat="40.0728534" lon="-105.2306754">
  <ele>1593.22</ele>
  <time>2026-08-27T18:29:03Z</time>
  <course>197.25</course>
  <speed>0.49</speed>
  <fix>3d</fix>
</trkpt>
<trkpt lat="40.072853" lon="-105.2306757">
  <ele>1593.45</ele>
  <time>2026-08-27T18:29:03Z</time>
  <course>12.14</course>
  <speed>0.4743416490252569</speed>
  <fix>3d</fix>
</trkpt>
<trkpt lat="40.0728522" lon="-105.230676">
  <ele>1593.55</ele>
  <time>2026-08-27T18:29:03Z</time>
  <course>12.21</course>
  <speed>0.4743416490252569</speed>
  <fix>3d</fix>
</trkpt>
<trkpt lat="40.0728526" lon="-105.2306757">
  <ele>1593.35</ele>
  <time>2026-08-27T18:29:03Z</time>
  <course>197.34</course>
  <speed>0.49</speed>
  <fix>3d</fix>
</trkpt>
<trkpt lat="40.0728522" lon="-105.230676">
  <ele>1593.56</ele>
  <time>2026-08-27T18:29:03Z</time>
  <course>12.21</course>
  <speed>0.4743416490252569</speed>
  <fix>3d</fix>
</trkpt>
<trkpt lat="40.0728514" lon="-105.2306763">
  <ele>1593.68</ele>
  <time>2026-08-27T18:29:03Z</time>
  <course>12.29</course>
  <speed>0.46486557196677836</speed>
  <fix>3d</fix>
</trkpt>
<trkpt lat="40.0728517" lon="-105.2306761">
  <ele>1593.47</ele>
  <time>2026-08-27T18:29:03Z</time>
  <course>197.43</course>
  <speed>0.49</speed>
  <fix>3d</fix>
</trkpt>
<trkpt lat="40.0728513" lon="-105.2306764">
  <ele>1593.69</ele>
  <time>2026-08-27T18:29:03Z</time>
  <course>12.3</course>
  <speed>0.46486557196677836</speed>
  <fix>3d</fix>
</trkpt>
<trkpt lat="40.0728505" lon="-105.2306767">
  <ele>1593.8</ele>
  <time>2026-08-27T18:29:03Z</time>
  <course>12.37</course>
  <speed>0.46486557196677836</speed>
  <fix>3d</fix>
</trkpt>
<trkpt lat="40.0728509" lon="-105.2306764">
  <ele>1593.59</ele>
  <time>2026-08-27T18:29:03Z</time>
  <course>197.52</course>
  <speed>0.49</speed>
  <fix>3d</fix>
</trkpt>
<trkpt lat="40.0728504" lon="-105.2306767">
  <ele>1593.81</ele>
  <time>2026-08-27T18:29:03Z</time>
  <course>12.37</course>
  <speed>0.46486557196677836</speed>
  <fix>3d</fix>
</trkpt>
<trkpt lat="40.0728497" lon="-105.230677">
  <ele>1593.92</ele>
  <time>2026-08-27T18:29:03Z</time>
  <course>12.44</course>
  <speed>0.46486557196677836</speed>
  <fix>3d</fix>
</trkpt>
<trkpt lat="40.07285" lon="-105.2306768">
  <ele>1593.71</ele>
  <time>2026-08-27T18:29:03Z</time>
  <course>197.62</course>
  <speed>0.49</speed>
  <fix>3d</fix>
</trkpt>
<trkpt lat="40.0728497" lon="-105.230677">
  <ele>1593.92</ele>
  <time>2026-08-27T18:29:03Z</time>
  <course>12.44</course>
  <speed>0.46486557196677836</speed>
  <fix>3d</fix>
</trkpt>
<trkpt lat="40.0728489" lon="-105.2306774">
  <ele>1594.05</ele>
  <time>2026-08-27T18:29:03Z</time>
  <course>12.49</course>
  <speed>0.468187996428785</speed>
  <fix>3d</fix>
</trkpt>
<trkpt lat="40.0728492" lon="-105.2306771">
  <ele>1593.84</ele>
  <time>2026-08-27T18:29:03Z</time>
  <course>197.69</course>
  <speed>0.49</speed>
  <fix>3d</fix>
</trkpt>
<trkpt lat="40.0728488" lon="-105.2306774">
  <ele>1594.06</ele>
  <time>2026-08-27T18:29:03Z</time>
  <course>12.51</course>
  <speed>0.468187996428785</speed>
  <fix>3d</fix>
</trkpt>
<trkpt lat="40.072848" lon="-105.2306777">
  <ele>1594.17</ele>
  <time>2026-08-27T18:29:03Z</time>
  <course>12.56</course>
  <speed>0.468187996428785</speed>
  <fix>3d</fix>
</trkpt>
<trkpt lat="40.0728484" lon="-105.2306775">
  <ele>1593.96</ele>
  <time>2026-08-27T18:29:03Z</time>
  <course>197.72</course>
  <speed>0.49</speed>
  <fix>3d</fix>
</trkpt>
<trkpt lat="40.0728479" lon="-105.2306778">
  <ele>1594.19</ele>
  <time>2026-08-27T18:29:03Z</time>
  <course>12.57</course>
  <speed>0.468187996428785</speed>
  <fix>3d</fix>
</trkpt>
<trkpt lat="40.0728472" lon="-105.2306781">
  <ele>1594.3</ele>
  <time>2026-08-27T18:29:03Z</time>
  <course>12.65</course>
  <speed>0.45880278987817846</speed>
  <fix>3d</fix>
</trkpt>
<trkpt lat="40.0728476" lon="-105.2306778">
  <ele>1594.09</ele>
  <time>2026-08-27T18:29:03Z</time>
  <course>197.8</course>
  <speed>0.48</speed>
  <fix>3d</fix>
</trkpt>
<trkpt lat="40.0728471" lon="-105.2306781">
  <ele>1594.31</ele>
  <time>2026-08-27T18:29:03Z</time>
  <course>12.65</course>
  <speed>0.45880278987817846</speed>
  <fix>3d</fix>
</trkpt>
<trkpt lat="40.0728464" lon="-105.2306784">
  <ele>1594.42</ele>
  <time>2026-08-27T18:29:03Z</time>
  <course>12.71</course>
  <speed>0.45880278987817846</speed>
  <fix>3d</fix>
</trkpt>
<trkpt lat="40.0728467" lon="-105.2306782">
  <ele>1594.21</ele>
  <time>2026-08-27T18:29:03Z</time>
  <course>197.92</course>
  <speed>0.48</speed>
  <fix>3d</fix>
</trkpt>
<trkpt lat="40.0728463" lon="-105.2306785">
  <ele>1594.43</ele>
  <time>2026-08-27T18:29:03Z</time>
  <course>12.73</course>
  <speed>0.45880278987817846</speed>
  <fix>3d</fix>
</trkpt>
<trkpt lat="40.0728456" lon="-105.2306788">
  <ele>1594.54</ele>
  <time>2026-08-27T18:29:03Z</time>
  <course>12.75</course>
  <speed>0.45880278987817846</speed>
  <fix>3d</fix>
</trkpt>
<trkpt lat="40.0728459" lon="-105.2306785">
  <ele>1594.34</ele>
  <time>2026-08-27T18:29:03Z</time>
  <course>197.98</course>
  <speed>0.48</speed>
  <fix>3d</fix>
</trkpt>
<trkpt lat="40.0728454" lon="-105.2306788">
  <ele>1594.56</ele>
  <time>2026-08-27T18:29:03Z</time>
  <course>12.77</course>
  <speed>0.45880278987817846</speed>
  <fix>3d</fix>
</trkpt>
<trkpt lat="40.0728447" lon="-105.2306791">
  <ele>1594.67</ele>
  <time>2026-08-27T18:29:03Z</time>
  <course>12.83</course>
  <speed>0.45880278987817846</speed>
  <fix>3d</fix>
</trkpt>
<trkpt lat="40.072845" lon="-105.2306788">
  <ele>1594.47</ele>
  <time>2026-08-27T18:29:03Z</time>
  <course>198.04</course>
  <speed>0.48</speed>
  <fix>3d</fix>
</trkpt>
<trkpt lat="40.0728447" lon="-105.2306791">
  <ele>1594.67</ele>
  <time>2026-08-27T18:29:03Z</time>
  <course>12.83</course>
  <speed>0.45880278987817846</speed>
  <fix>3d</fix>
</trkpt>
<trkpt lat="40.0728439" lon="-105.2306795">
  <ele>1594.79</ele>
  <time>2026-08-27T18:29:03Z</time>
  <course>12.92</course>
  <speed>0.45880278987817846</speed>
  <fix>3d</fix>
</trkpt>
<trkpt lat="40.0728443" lon="-105.2306792">
  <ele>1594.59</ele>
  <time>2026-08-27T18:29:03Z</time>
  <course>198.13</course>
  <speed>0.48</speed>
  <fix>3d</fix>
</trkpt>
<trkpt lat="40.0728438" lon="-105.2306795">
  <ele>1594.81</ele>
  <time>2026-08-27T18:29:03Z</time>
  <course>12.92</course>
  <speed>0.45880278987817846</speed>
  <fix>3d</fix>
</trkpt>
<trkpt lat="40.0728431" lon="-105.2306798">
  <ele>1594.92</ele>
  <time>2026-08-27T18:29:03Z</time>
  <course>12.95</course>
  <speed>0.44944410108488464</speed>
  <fix>3d</fix>
</trkpt>
<trkpt lat="40.0728434" lon="-105.2306796">
  <ele>1594.72</ele>
  <time>2026-08-27T18:29:03Z</time>
  <course>198.2</course>
  <speed>0.48</speed>
  <fix>3d</fix>
</trkpt>
<trkpt lat="40.072843" lon="-105.2306799">
  <ele>1594.94</ele>
  <time>2026-08-27T18:29:03Z</time>
  <course>12.96</course>
  <speed>0.44944410108488464</speed>
  <fix>3d</fix>
</trkpt>
<trkpt lat="40.0728423" lon="-105.2306802">
  <ele>1595.05</ele>
  <time>2026-08-27T18:29:03Z</time>
  <course>13.04</course>
  <speed>0.44944410108488464</speed>
  <fix>3d</fix>
</trkpt>
<trkpt lat="40.0728426" lon="-105.2306799">
  <ele>1594.85</ele>
  <time>2026-08-27T18:29:03Z</time>
  <course>198.28</course>
  <speed>0.47</speed>
  <fix>3d</fix>
</trkpt>
<trkpt lat="40.0728415" lon="-105.2306806">
  <ele>1595.18</ele>
  <time>2026-08-27T18:29:03Z</time>
  <course>13.36</course>
  <speed>0.44944410108488464</speed>
  <fix>3d</fix>
</trkpt>
<trkpt lat="40.0728418" lon="-105.2306803">
  <ele>1594.98</ele>
  <time>2026-08-27T18:29:03Z</time>
  <course>198.49</course>
  <speed>0.47</speed>
  <fix>3d</fix>
</trkpt>
<trkpt lat="40.0728407" lon="-105.2306809">
  <ele>1595.28</ele>
  <time>2026-08-27T18:29:03Z</time>
  <course>14.01</course>
  <speed>0.44011362169330775</speed>
  <fix>3d</fix>
</trkpt>
<trkpt lat="40.0728409" lon="-105.2306806">
  <ele>1595.1</ele>
  <time>2026-08-27T18:29:03Z</time>
  <course>198.78</course>
  <speed>0.47</speed>
  <fix>3d</fix>
</trkpt>
<trkpt lat="40.0728399" lon="-105.2306813">
  <ele>1595.34</ele>
  <time>2026-08-27T18:29:03Z</time>
  <course>14.35</course>
  <speed>0.43657759905886145</speed>
  <fix>3d</fix>
</trkpt>
<trkpt lat="40.0728402" lon="-105.230681">
  <ele>1595.18</ele>
  <time>2026-08-27T18:29:03Z</time>
  <course>198.77</course>
  <speed>0.46</speed>
  <fix>3d</fix>
</trkpt>
<trkpt lat="40.0728391" lon="-105.2306816">
  <ele>1595.39</ele>
  <time>2026-08-27T18:29:03Z</time>
  <course>13.88</course>
  <speed>0.43657759905886145</speed>
  <fix>3d</fix>
</trkpt>
<trkpt lat="40.0728393" lon="-105.2306814">
  <ele>1595.24</ele>
  <time>2026-08-27T18:29:03Z</time>
  <course>198.21</course>
  <speed>0.46</speed>
  <fix>3d</fix>
</trkpt>
<trkpt lat="40.0728383" lon="-105.2306819">
  <ele>1595.42</ele>
  <time>2026-08-27T18:29:03Z</time>
  <course>13.4</course>
  <speed>0.42379240200834184</speed>
  <fix>3d</fix>
</trkpt>
<trkpt lat="40.0728386" lon="-105.2306817">
  <ele>1595.27</ele>
  <time>2026-08-27T18:29:03Z</time>
  <course>197.55</course>
  <speed>0.45</speed>
  <fix>3d</fix>
</trkpt>
<trkpt lat="40.0728375" lon="-105.2306822">
  <ele>1595.44</ele>
  <time>2026-08-27T18:29:03Z</time>
  <course>13.23</course>
  <speed>0.4205948168962618</speed>
  <fix>3d</fix>
</trkpt>
<trkpt lat="40.0728378" lon="-105.230682">
  <ele>1595.3</ele>
  <time>2026-08-27T18:29:03Z</time>
  <course>197.01</course>
  <speed>0.45</speed>
  <fix>3d</fix>
</trkpt>
<trkpt lat="40.0728368" lon="-105.2306825">
  <ele>1595.45</ele>
  <time>2026-08-27T18:29:03Z</time>
  <course>13.17</course>
  <speed>0.4205948168962618</speed>
  <fix>3d</fix>
</trkpt>
<trkpt lat="40.072837" lon="-105.2306823">
  <ele>1595.31</ele>
  <time>2026-08-27T18:29:03Z</time>
  <course>196.36</course>
  <speed>0.44</speed>
  <fix>3d</fix>
</trkpt>
<trkpt lat="40.072836" lon="-105.2306828">
  <ele>1595.46</ele>
  <time>2026-08-27T18:29:03Z</time>
  <course>13.16</course>
  <speed>0.4080441152620633</speed>
  <fix>3d</fix>
</trkpt>
<trkpt lat="40.0728363" lon="-105.2306826">
  <ele>1595.32</ele>
  <time>2026-08-27T18:29:03Z</time>
  <course>195.62</course>
  <speed>0.44</speed>
  <fix>3d</fix>
</trkpt>
<trkpt lat="40.0728352" lon="-105.2306831">
  <ele>1595.47</ele>
  <time>2026-08-27T18:29:03Z</time>
  <course>13.18</course>
  <speed>0.4052159917870962</speed>
  <fix>3d</fix>
</trkpt>
<trkpt lat="40.0728354" lon="-105.2306829">
  <ele>1595.33</ele>
  <time>2026-08-27T18:29:03Z</time>
  <course>194.9</course>
  <speed>0.43</speed>
  <fix>3d</fix>
</trkpt>
<trkpt lat="40.0728345" lon="-105.2306833">
  <ele>1595.47</ele>
  <time>2026-08-27T18:29:03Z</time>
  <course>13.2</course>
  <speed>0.4052159917870962</speed>
  <fix>3d</fix>
</trkpt>
<trkpt lat="40.0728347" lon="-105.2306831">
  <ele>1595.34</ele>
  <time>2026-08-27T18:29:03Z</time>
  <course>194.19</course>
  <speed>0.43</speed>
  <fix>3d</fix>
</trkpt>
<trkpt lat="40.0728337" lon="-105.2306835">
  <ele>1595.46</ele>
  <time>2026-08-27T18:29:03Z</time>
  <course>13.21</course>
  <speed>0.39293765408777</speed>
  <fix>3d</fix>
</trkpt>
<trkpt lat="40.072834" lon="-105.2306834">
  <ele>1595.34</ele>
  <time>2026-08-27T18:29:03Z</time>
  <course>193.5</course>
  <speed>0.42</speed>
  <fix>3d</fix>
</trkpt>
<trkpt lat="40.072833" lon="-105.2306838">
  <ele>1595.46</ele>
  <time>2026-08-27T18:29:03Z</time>
  <course>13.22</course>
  <speed>0.39293765408777</speed>
  <fix>3d</fix>
</trkpt>
<trkpt lat="40.0728332" lon="-105.2306835">
  <ele>1595.34</ele>
  <time>2026-08-27T18:29:03Z</time>
  <course>192.84</course>
  <speed>0.42</speed>
  <fix>3d</fix>
</trkpt>
<trkpt lat="40.0728323" lon="-105.230684">
  <ele>1595.45</ele>
  <time>2026-08-27T18:29:03Z</time>
  <course>13.24</course>
  <speed>0.3905124837953327</speed>
  <fix>3d</fix>
</trkpt>
<trkpt lat="40.0728325" lon="-105.2306838">
  <ele>1595.34</ele>
  <time>2026-08-27T18:29:03Z</time>
  <course>192.21</course>
  <speed>0.41</speed>
  <fix>3d</fix>
</trkpt>
<trkpt lat="40.0728315" lon="-105.2306842">
  <ele>1595.45</ele>
  <time>2026-08-27T18:29:03Z</time>
  <course>13.26</course>
  <speed>0.378549864614954</speed>
  <fix>3d</fix>
</trkpt>
<trkpt lat="40.0728318" lon="-105.230684">
  <ele>1595.34</ele>
  <time>2026-08-27T18:29:03Z</time>
  <course>191.6</course>
  <speed>0.41</speed>
  <fix>3d</fix>
</trkpt>
<trkpt lat="40.0728308" lon="-105.2306843">
  <ele>1595.45</ele>
  <time>2026-08-27T18:29:03Z</time>
  <course>13.25</course>
  <speed>0.378549864614954</speed>
  <fix>3d</fix>
</trkpt>
<trkpt lat="40.0728311" lon="-105.2306841">
  <ele>1595.34</ele>
  <time>2026-08-27T18:29:03Z</time>
  <course>191.02</course>
  <speed>0.4</speed>
  <fix>3d</fix>
</trkpt>
<trkpt lat="40.0728301" lon="-105.2306845">
  <ele>1595.44</ele>
  <time>2026-08-27T18:29:03Z</time>
  <course>13.26</course>
  <speed>0.3687817782917155</speed>
  <fix>3d</fix>
</trkpt>
<trkpt lat="40.0728303" lon="-105.2306844">
  <ele>1595.34</ele>
  <time>2026-08-27T18:29:03Z</time>
  <course>190.47</course>
  <speed>0.4</speed>
  <fix>3d</fix>
</trkpt>
<trkpt lat="40.0728294" lon="-105.2306847">
  <ele>1595.44</ele>
  <time>2026-08-27T18:29:03Z</time>
  <course>13.29</course>
  <speed>0.366742416417845</speed>
  <fix>3d</fix>
</trkpt>
<trkpt lat="40.0728296" lon="-105.2306845">
  <ele>1595.35</ele>
  <time>2026-08-27T18:29:03Z</time>
  <course>189.98</course>
  <speed>0.39</speed>
  <fix>3d</fix>
</trkpt>
<trkpt lat="40.0728287" lon="-105.2306848">
  <ele>1595.45</ele>
  <time>2026-08-27T18:29:03Z</time>
  <course>13.31</course>
  <speed>0.366742416417845</speed>
  <fix>3d</fix>
</trkpt>
<trkpt lat="40.0728289" lon="-105.2306847">
  <ele>1595.35</ele>
  <time>2026-08-27T18:29:03Z</time>
  <course>189.54</course>
  <speed>0.39</speed>
  <fix>3d</fix>
</trkpt>
<trkpt lat="40.072828" lon="-105.230685">
  <ele>1595.45</ele>
  <time>2026-08-27T18:29:03Z</time>
  <course>13.33</course>
  <speed>0.356931365951495</speed>
  <fix>3d</fix>
</trkpt>
<trkpt lat="40.0728282" lon="-105.2306849">
  <ele>1595.36</ele>
  <time>2026-08-27T18:29:03Z</time>
  <course>189.11</course>
  <speed>0.38</speed>
  <fix>3d</fix>
</trkpt>
<trkpt lat="40.0728273" lon="-105.2306851">
  <ele>1595.45</ele>
  <time>2026-08-27T18:29:03Z</time>
  <course>13.32</course>
  <speed>0.31400636936215165</speed>
  <fix>3d</fix>
</trkpt>
<trkpt lat="40.0728275" lon="-105.230685">
  <ele>1595.36</ele>
  <time>2026-08-27T18:29:03Z</time>
  <course>188.81</course>
  <speed>0.37</speed>
  <fix>3d</fix>
</trkpt>
<trkpt lat="40.0728268" lon="-105.2306851">
  <ele>1595.45</ele>
  <time>2026-08-27T18:29:03Z</time>
  <course>13.35</course>
  <speed>0.19</speed>
  <fix>3d</fix>
</trkpt>
<trkpt lat="40.072827" lon="-105.2306851">
  <ele>1595.37</ele>
  <time>2026-08-27T18:29:03Z</time>
  <course>186.24</course>
  <speed>0.3</speed>
  <fix>3d</fix>
</trkpt>
<trkpt lat="40.0728265" lon="-105.2306851">
  <ele>1595.46</ele>
  <time>2026-08-27T18:29:03Z</time>
  <course>13.36</course>
  <speed>0.16</speed>
  <fix>3d</fix>
</trkpt>
<trkpt lat="40.0728265" lon="-105.2306852">
  <ele>1595.37</ele>
  <time>2026-08-27T18:29:03Z</time>
  <course>179.56</course>
  <speed>0.21</speed>
  <fix>3d</fix>
</trkpt>
<trkpt lat="40.0728261" lon="-105.2306851">
  <ele>1595.46</ele>
  <time>2026-08-27T18:29:03Z</time>
  <course>13.38</course>
  <speed>0.14317821063276354</speed>
  <fix>3d</fix>
</trkpt>
<trkpt lat="40.0728261" lon="-105.2306852">
  <ele>1595.38</ele>
  <time>2026-08-27T18:29:03Z</time>
  <course>183.73</course>
  <speed>0.18</speed>
  <fix>3d</fix>
</trkpt>
<trkpt lat="40.0728259" lon="-105.2306852">
  <ele>1595.47</ele>
  <time>2026-08-27T18:29:03Z</time>
  <course>13.45</course>
  <speed>0.06082762530298219</speed>
  <fix>3d</fix>
</trkpt>
<trkpt lat="40.0728258" lon="-105.2306852">
  <ele>1595.38</ele>
  <time>2026-08-27T18:29:03Z</time>
  <course>189.52</course>
  <speed>0.14</speed>
  <fix>3d</fix>
</trkpt>
<trkpt lat="40.0728258" lon="-105.2306852">
  <ele>1595.47</ele>
  <time>2026-08-27T18:29:03Z</time>
  <course>13.45</course>
  <speed>0.07</speed>
  <fix>3d</fix>
</trkpt>
<trkpt lat="40.0728256" lon="-105.2306852">
  <ele>1595.39</ele>
  <time>2026-08-27T18:29:03Z</time>
  <course>181.72</course>
  <speed>0.08</speed>
  <fix>3d</fix>
</trkpt>
<trkpt lat="40.0728256" lon="-105.2306852">
  <ele>1595.48</ele>
  <time>2026-08-27T18:29:03Z</time>
  <course>13.42</course>
  <speed>0.07615773105863909</speed>
  <fix>3d</fix>
</trkpt>
<trkpt lat="40.0728255" lon="-105.2306852">
  <ele>1595.39</ele>
  <time>2026-08-27T18:29:03Z</time>
  <course>192.16</course>
  <speed>0.09</speed>
  <fix>3d</fix>
</trkpt>
<trkpt lat="40.0728255" lon="-105.2306853">
  <ele>1595.48</ele>
  <time>2026-08-27T18:29:03Z</time>
  <course>13.53</course>
  <speed>0.01414213562373095</speed>
  <fix>3d</fix>
</trkpt>
<trkpt lat="40.0728253" lon="-105.2306853">
  <ele>1595.39</ele>
  <time>2026-08-27T18:29:03Z</time>
  <course>197.92</course>
  <speed>0.07</speed>
  <fix>3d</fix>
</trkpt>
<trkpt lat="40.0728254" lon="-105.2306853">
  <ele>1595.47</ele>
  <time>2026-08-27T18:29:03Z</time>
  <course>13.52</course>
  <speed>0.05099019513592785</speed>
  <fix>3d</fix>
</trkpt>
<trkpt lat="40.0728252" lon="-105.2306854">
  <ele>1595.39</ele>
  <time>2026-08-27T18:29:03Z</time>
  <course>181.96</course>
  <speed>0.04</speed>
  <fix>3d</fix>
</trkpt>
<trkpt lat="40.0728252" lon="-105.2306853">
  <ele>1595.47</ele>
  <time>2026-08-27T18:29:03Z</time>
  <course>13.45</course>
  <speed>0.03605551275463989</speed>
  <fix>3d</fix>
</trkpt>
<trkpt lat="40.0728251" lon="-105.2306854">
  <ele>1595.39</ele>
  <time>2026-08-27T18:29:03Z</time>
  <course>193.52</course>
  <speed>0.06</speed>
  <fix>3d</fix>
</trkpt>
<trkpt lat="40.0728252" lon="-105.2306853">
  <ele>1595.47</ele>
  <time>2026-08-27T18:29:03Z</time>
  <course>13.59</course>
  <speed>0.02</speed>
  <fix>3d</fix>
</trkpt>
<trkpt lat="40.072825" lon="-105.2306854">
  <ele>1595.39</ele>
  <time>2026-08-27T18:29:03Z</time>
  <course>187.06</course>
  <speed>0.04</speed>
  <fix>3d</fix>
</trkpt>
<trkpt lat="40.0728251" lon="-105.2306853">
  <ele>1595.47</ele>
  <time>2026-08-27T18:29:03Z</time>
  <course>13.55</course>
  <speed>0.053851648071345036</speed>
  <fix>3d</fix>
</trkpt>
<trkpt lat="40.072825" lon="-105.2306854">
  <ele>1595.39</ele>
  <time>2026-08-27T18:29:03Z</time>
  <course>170.79</course>
  <speed>0.04</speed>
  <fix>3d</fix>
</trkpt>
<trkpt lat="40.072825" lon="-105.2306854">
  <ele>1595.47</ele>
  <time>2026-08-27T18:29:03Z</time>
  <course>13.54</course>
  <speed>0.0</speed>
  <fix>3d</fix>
</trkpt>
<trkpt lat="40.0728249" lon="-105.2306854">
  <ele>1595.39</ele>
  <time>2026-08-27T18:29:03Z</time>
  <course>185.28</course>
  <speed>0.05</speed>
  <fix>3d</fix>
</trkpt>
<trkpt lat="40.0728249" lon="-105.2306854">
  <ele>1595.47</ele>
  <time>2026-08-27T18:29:03Z</time>
  <course>13.6</course>
  <speed>0.02</speed>
  <fix>3d</fix>
</trkpt>
<trkpt lat="40.0728248" lon="-105.2306854">
  <ele>1595.39</ele>
  <time>2026-08-27T18:29:03Z</time>
  <course>160.8</course>
  <speed>0.03</speed>
  <fix>3d</fix>
</trkpt>
<trkpt lat="40.0728248" lon="-105.2306854">
  <ele>1595.48</ele>
  <time>2026-08-27T18:29:03Z</time>
  <course>13.54</course>
  <speed>0.0282842712474619</speed>
  <fix>3d</fix>
</trkpt>
<trkpt lat="40.0728247" lon="-105.2306854">
  <ele>1595.39</ele>
  <time>2026-08-27T18:29:03Z</time>
  <course>169.09</course>
  <speed>0.04</speed>
  <fix>3d</fix>
</trkpt>
<trkpt lat="40.0728248" lon="-105.2306854">
  <ele>1595.48</ele>
  <time>2026-08-27T18:29:03Z</time>
  <course>13.65</course>
  <speed>0.02</speed>
  <fix>3d</fix>
</trkpt>
<trkpt lat="40.0728246" lon="-105.2306854">
  <ele>1595.39</ele>
  <time>2026-08-27T18:29:03Z</time>
  <course>167.02</course>
  <speed>0.04</speed>
  <fix>3d</fix>
</trkpt>
<trkpt lat="40.0728247" lon="-105.2306854">
  <ele>1595.48</ele>
  <time>2026-08-27T18:29:03Z</time>
  <course>13.62</course>
  <speed>0.0412310562561766</speed>
  <fix>3d</fix>
</trkpt>
<trkpt lat="40.0728245" lon="-105.2306854">
  <ele>1595.39</ele>
  <time>2026-08-27T18:29:03Z</time>
  <course>152.64</course>
  <speed>0.04</speed>
  <fix>3d</fix>
</trkpt>
<trkpt lat="40.0728246" lon="-105.2306854">
  <ele>1595.48</ele>
  <time>2026-08-27T18:29:03Z</time>
  <course>13.64</course>
  <speed>0.01</speed>
  <fix>3d</fix>
</trkpt>
<trkpt lat="40.0728245" lon="-105.2306854">
  <ele>1595.38</ele>
  <time>2026-08-27T18:29:03Z</time>
  <course>165.97</course>
  <speed>0.04</speed>
  <fix>3d</fix>
</trkpt>
<trkpt lat="40.0728246" lon="-105.2306853">
  <ele>1595.48</ele>
  <time>2026-08-27T18:29:03Z</time>
  <course>13.66</course>
  <speed>0.03</speed>
  <fix>3d</fix>
</trkpt>
<trkpt lat="40.0728244" lon="-105.2306853">
  <ele>1595.38</ele>
  <time>2026-08-27T18:29:03Z</time>
  <course>148.03</course>
  <speed>0.04</speed>
  <fix>3d</fix>
</trkpt>
<trkpt lat="40.0728245" lon="-105.2306854">
  <ele>1595.49</ele>
  <time>2026-08-27T18:29:03Z</time>
  <course>13.61</course>
  <speed>0.01</speed>
  <fix>3d</fix>
</trkpt>
<trkpt lat="40.0728243" lon="-105.2306852">
  <ele>1595.38</ele>
  <time>2026-08-27T18:29:03Z</time>
  <course>158.1</course>
  <speed>0.04</speed>
  <fix>3d</fix>
</trkpt>
<trkpt lat="40.0728244" lon="-105.2306853">
  <ele>1595.48</ele>
  <time>2026-08-27T18:29:03Z</time>
  <course>13.72</course>
  <speed>0.022360679774997897</speed>
  <fix>3d</fix>
</trkpt>
<trkpt lat="40.0728242" lon="-105.2306852">
  <ele>1595.38</ele>
  <time>2026-08-27T18:29:03Z</time>
  <course>149.28</course>
  <speed>0.04</speed>
  <fix>3d</fix>
</trkpt>
<trkpt lat="40.0728243" lon="-105.2306853">
  <ele>1595.48</ele>
  <time>2026-08-27T18:29:03Z</time>
  <course>13.65</course>
  <speed>0.022360679774997897</speed>
  <fix>3d</fix>
</trkpt>
<trkpt lat="40.0728242" lon="-105.2306851">
  <ele>1595.37</ele>
  <time>2026-08-27T18:29:03Z</time>
  <course>150.93</course>
  <speed>0.05</speed>
  <fix>3d</fix>
</trkpt>
<trkpt lat="40.0728243" lon="-105.2306852">
  <ele>1595.47</ele>
  <time>2026-08-27T18:29:03Z</time>
  <course>13.76</course>
  <speed>0.022360679774997897</speed>
  <fix>3d</fix>
</trkpt>
<trkpt lat="40.0728241" lon="-105.2306851">
  <ele>1595.37</ele>
  <time>2026-08-27T18:29:03Z</time>
  <course>150.17</course>
  <speed>0.04</speed>
  <fix>3d</fix>
</trkpt>
<trkpt lat="40.0728242" lon="-105.2306852">
  <ele>1595.47</ele>
  <time>2026-08-27T18:29:03Z</time>
  <course>13.65</course>
  <speed>0.022360679774997897</speed>
  <fix>3d</fix>
</trkpt>
<trkpt lat="40.072824" lon="-105.230685">
  <ele>1595.37</ele>
  <time>2026-08-27T18:29:03Z</time>
  <course>146.98</course>
  <speed>0.05</speed>
  <fix>3d</fix>
</trkpt>
<trkpt lat="40.0728241" lon="-105.2306851">
  <ele>1595.46</ele>
  <time>2026-08-27T18:29:03Z</time>
  <course>13.74</course>
  <speed>0.02</speed>
  <fix>3d</fix>
</trkpt>
<trkpt lat="40.0728239" lon="-105.2306849">
  <ele>1595.37</ele>
  <time>2026-08-27T18:29:03Z</time>
  <course>149.17</course>
  <speed>0.05</speed>
  <fix>3d</fix>
</trkpt>
<trkpt lat="40.072824" lon="-105.230685">
  <ele>1595.45</ele>
  <time>2026-08-27T18:29:03Z</time>
  <course>13.64</course>
  <speed>0.022360679774997897</speed>
  <fix>3d</fix>
</trkpt>
<trkpt lat="40.0728238" lon="-105.2306849">
  <ele>1595.37</ele>
  <time>2026-08-27T18:29:03Z</time>
  <course>146.07</course>
  <speed>0.05</speed>
  <fix>3d</fix>
</trkpt>
<trkpt lat="40.072824" lon="-105.230685">
  <ele>1595.45</ele>
  <time>2026-08-27T18:29:03Z</time>
  <course>13.72</course>
  <speed>0.02</speed>
  <fix>3d</fix>
</trkpt>
<trkpt lat="40.0728238" lon="-105.2306848">
  <ele>1595.37</ele>
  <time>2026-08-27T18:29:03Z</time>
  <course>148.39</course>
  <speed>0.05</speed>
  <fix>3d</fix>
</trkpt>
<trkpt lat="40.0728239" lon="-105.2306849">
  <ele>1595.45</ele>
  <time>2026-08-27T18:29:03Z</time>
  <course>13.64</course>
  <speed>0.022360679774997897</speed>
  <fix>3d</fix>
</trkpt>
<trkpt lat="40.0728237" lon="-105.2306847">
  <ele>1595.37</ele>
  <time>2026-08-27T18:29:03Z</time>
  <course>147.26</course>
  <speed>0.05</speed>
  <fix>3d</fix>
</trkpt>
<trkpt lat="40.0728238" lon="-105.2306849">
  <ele>1595.46</ele>
  <time>2026-08-27T18:29:03Z</time>
  <course>13.77</course>
  <speed>0.02</speed>
  <fix>3d</fix>
</trkpt>
<trkpt lat="40.0728236" lon="-105.2306847">
  <ele>1595.37</ele>
  <time>2026-08-27T18:29:03Z</time>
  <course>148.31</course>
  <speed>0.05</speed>
  <fix>3d</fix>
</trkpt>
<trkpt lat="40.0728237" lon="-105.2306848">
  <ele>1595.46</ele>
  <time>2026-08-27T18:29:03Z</time>
  <course>13.68</course>
  <speed>0.022360679774997897</speed>
  <fix>3d</fix>
</trkpt>
<trkpt lat="40.0728235" lon="-105.2306846">
  <ele>1595.37</ele>
  <time>2026-08-27T18:29:03Z</time>
  <course>149.15</course>
  <speed>0.05</speed>
  <fix>3d</fix>
</trkpt>
<trkpt lat="40.0728236" lon="-105.2306847">
  <ele>1595.47</ele>
  <time>2026-08-27T18:29:03Z</time>
  <course>13.83</course>
  <speed>0.022360679774997897</speed>
  <fix>3d</fix>
</trkpt>
<trkpt lat="40.0728235" lon="-105.2306845">
  <ele>1595.38</ele>
  <time>2026-08-27T18:29:03Z</time>
  <course>148.35</course>
  <speed>0.05</speed>
  <fix>3d</fix>
</trkpt>
<trkpt lat="40.0728236" lon="-105.2306847">
  <ele>1595.47</ele>
  <time>2026-08-27T18:29:03Z</time>
  <course>13.72</course>
  <speed>0.022360679774997897</speed>
  <fix>3d</fix>
</trkpt>
<trkpt lat="40.0728234" lon="-105.2306845">
  <ele>1595.38</ele>
  <time>2026-08-27T18:29:03Z</time>
  <course>150.28</course>
  <speed>0.04</speed>
  <fix>3d</fix>
</trkpt>
<trkpt lat="40.0728235" lon="-105.2306846">
  <ele>1595.47</ele>
  <time>2026-08-27T18:29:03Z</time>
  <course>13.91</course>
  <speed>0.022360679774997897</speed>
  <fix>3d</fix>
</trkpt>
<trkpt lat="40.0728233" lon="-105.2306845">
  <ele>1595.38</ele>
  <time>2026-08-27T18:29:03Z</time>
  <course>149.47</course>
  <speed>0.05</speed>
  <fix>3d</fix>
</trkpt>
<trkpt lat="40.0728234" lon="-105.2306846">
  <ele>1595.47</ele>
  <time>2026-08-27T18:29:03Z</time>
  <course>13.74</course>
  <speed>0.01</speed>
  <fix>3d</fix>
</trkpt>
<trkpt lat="40.0728232" lon="-105.2306844">
  <ele>1595.39</ele>
  <time>2026-08-27T18:29:03Z</time>
  <course>150.1</course>
  <speed>0.04</speed>
  <fix>3d</fix>
</trkpt>
<trkpt lat="40.0728233" lon="-105.2306845">
  <ele>1595.47</ele>
  <time>2026-08-27T18:29:03Z</time>
  <course>13.92</course>
  <speed>0.022360679774997897</speed>
  <fix>3d</fix>
</trkpt>
<trkpt lat="40.0728231" lon="-105.2306843">
  <ele>1595.39</ele>
  <time>2026-08-27T18:29:03Z</time>
  <course>151.56</course>
  <speed>0.05</speed>
  <fix>3d</fix>
</trkpt>
<trkpt lat="40.0728232" lon="-105.2306845">
  <ele>1595.47</ele>
  <time>2026-08-27T18:29:03Z</time>
  <course>13.8</course>
  <speed>0.0</speed>
  <fix>3d</fix>
</trkpt>
<trkpt lat="40.0728231" lon="-105.2306842">
  <ele>1595.39</ele>
  <time>2026-08-27T18:29:03Z</time>
  <course>147.95</course>
  <speed>0.04</speed>
  <fix>3d</fix>
</trkpt>
<trkpt lat="40.0728232" lon="-105.2306844">
  <ele>1595.47</ele>
  <time>2026-08-27T18:29:03Z</time>
  <course>13.91</course>
  <speed>0.02</speed>
  <fix>3d</fix>
</trkpt>
<trkpt lat="40.072823" lon="-105.2306842">
  <ele>1595.39</ele>
  <time>2026-08-27T18:29:03Z</time>
  <course>154.94</course>
  <speed>0.04</speed>
  <fix>3d</fix>
</trkpt>
<trkpt lat="40.0728231" lon="-105.2306843">
  <ele>1595.47</ele>
  <time>2026-08-27T18:29:03Z</time>
  <course>13.97</course>
  <speed>0.01414213562373095</speed>
  <fix>3d</fix>
</trkpt>
<trkpt lat="40.0728229" lon="-105.2306842">
  <ele>1595.39</ele>
  <time>2026-08-27T18:29:03Z</time>
  <course>146.27</course>
  <speed>0.04</speed>
  <fix>3d</fix>
</trkpt>
<trkpt lat="40.072823" lon="-105.2306843">
  <ele>1595.48</ele>
  <time>2026-08-27T18:29:03Z</time>
  <course>13.87</course>
  <speed>0.01</speed>
  <fix>3d</fix>
</trkpt>
<trkpt lat="40.0728229" lon="-105.2306841">
  <ele>1595.39</ele>
  <time>2026-08-27T18:29:03Z</time>
  <course>155.88</course>
  <speed>0.04</speed>
  <fix>3d</fix>
</trkpt>
<trkpt lat="40.072823" lon="-105.2306842">
  <ele>1595.48</ele>
  <time>2026-08-27T18:29:03Z</time>
  <course>14.05</course>
  <speed>0.022360679774997897</speed>
  <fix>3d</fix>
</trkpt>
<trkpt lat="40.0728228" lon="-105.230684">
  <ele>1595.39</ele>
  <time>2026-08-27T18:29:03Z</time>
  <course>149.61</course>
  <speed>0.04</speed>
  <fix>3d</fix>
</trkpt>
<trkpt lat="40.0728229" lon="-105.2306842">
  <ele>1595.49</ele>
  <time>2026-08-27T18:29:03Z</time>
  <course>13.9</course>
  <speed>0.0</speed>
  <fix>3d</fix>
</trkpt>
<trkpt lat="40.0728227" lon="-105.230684">
  <ele>1595.39</ele>
  <time>2026-08-27T18:29:03Z</time>
  <course>150.44</course>
  <speed>0.04</speed>
  <fix>3d</fix>
</trkpt>
<trkpt lat="40.0728228" lon="-105.2306841">
  <ele>1595.49</ele>
  <time>2026-08-27T18:29:03Z</time>
  <course>14.03</course>
  <speed>0.02</speed>
  <fix>3d</fix>
</trkpt>
<trkpt lat="40.0728226" lon="-105.230684">
  <ele>1595.38</ele>
  <time>2026-08-27T18:29:03Z</time>
  <course>157.79</course>
  <speed>0.04</speed>
  <fix>3d</fix>
</trkpt>
<trkpt lat="40.0728227" lon="-105.2306841">
  <ele>1595.48</ele>
  <time>2026-08-27T18:29:03Z</time>
  <course>14.13</course>
  <speed>0.01414213562373095</speed>
  <fix>3d</fix>
</trkpt>
<trkpt lat="40.0728225" lon="-105.2306839">
  <ele>1595.38</ele>
  <time>2026-08-27T18:29:03Z</time>
  <course>147.07</course>
  <speed>0.04</speed>
  <fix>3d</fix>
</trkpt>
<trkpt lat="40.0728227" lon="-105.230684">
  <ele>1595.48</ele>
  <time>2026-08-27T18:29:03Z</time>
  <course>13.93</course>
  <speed>0.01</speed>
  <fix>3d</fix>
</trkpt>
<trkpt lat="40.0728225" lon="-105.2306838">
  <ele>1595.38</ele>
  <time>2026-08-27T18:29:03Z</time>
  <course>156.69</course>
  <speed>0.04</speed>
  <fix>3d</fix>
</trkpt>
<trkpt lat="40.0728226" lon="-105.230684">
  <ele>1595.47</ele>
  <time>2026-08-27T18:29:03Z</time>
  <course>14.07</course>
  <speed>0.02</speed>
  <fix>3d</fix>
</trkpt>
<trkpt lat="40.0728224" lon="-105.2306838">
  <ele>1595.38</ele>
  <time>2026-08-27T18:29:03Z</time>
  <course>156.17</course>
  <speed>0.04</speed>
  <fix>3d</fix>
</trkpt>
<trkpt lat="40.0728225" lon="-105.2306839">
  <ele>1595.46</ele>
  <time>2026-08-27T18:29:03Z</time>
  <course>14.1</course>
  <speed>0.01414213562373095</speed>
  <fix>3d</fix>
</trkpt>
<trkpt lat="40.0728224" lon="-105.2306838">
  <ele>1595.37</ele>
  <time>2026-08-27T18:29:03Z</time>
  <course>147.52</course>
  <speed>0.04</speed>
  <fix>3d</fix>
</trkpt>
<trkpt lat="40.0728224" lon="-105.2306839">
  <ele>1595.46</ele>
  <time>2026-08-27T18:29:03Z</time>
  <course>13.88</course>
  <speed>0.01</speed>
  <fix>3d</fix>
</trkpt>
<trkpt lat="40.0728223" lon="-105.2306837">
  <ele>1595.37</ele>
  <time>2026-08-27T18:29:03Z</time>
  <course>158.25</course>
  <speed>0.04</speed>
  <fix>3d</fix>
</trkpt>
<trkpt lat="40.0728224" lon="-105.2306838">
  <ele>1595.46</ele>
  <time>2026-08-27T18:29:03Z</time>
  <course>14.0</course>
  <speed>0.01</speed>
  <fix>3d</fix>
</trkpt>
<trkpt lat="40.0728222" lon="-105.2306837">
  <ele>1595.37</ele>
  <time>2026-08-27T18:29:03Z</time>
  <course>157.13</course>
  <speed>0.04</speed>
  <fix>3d</fix>
</trkpt>
<trkpt lat="40.0728223" lon="-105.2306838">
  <ele>1595.47</ele>
  <time>2026-08-27T18:29:03Z</time>
  <course>14.05</course>
  <speed>0.01414213562373095</speed>
  <fix>3d</fix>
</trkpt>
<trkpt lat="40.0728221" lon="-105.2306837">
  <ele>1595.37</ele>
  <time>2026-08-27T18:29:03Z</time>
  <course>149.09</course>
  <speed>0.04</speed>
  <fix>3d</fix>
</trkpt>
<trkpt lat="40.0728222" lon="-105.2306837">
  <ele>1595.47</ele>
  <time>2026-08-27T18:29:03Z</time>
  <course>13.94</course>
  <speed>0.01</speed>
  <fix>3d</fix>
</trkpt>
<trkpt lat="40.072822" lon="-105.2306836">
  <ele>1595.37</ele>
  <time>2026-08-27T18:29:03Z</time>
  <course>157.0</course>
  <speed>0.04</speed>
  <fix>3d</fix>
</trkpt>
<trkpt lat="40.0728222" lon="-105.2306837">
  <ele>1595.47</ele>
  <time>2026-08-27T18:29:03Z</time>
  <course>13.93</course>
  <speed>0.01</speed>
  <fix>3d</fix>
</trkpt>
<trkpt lat="40.072822" lon="-105.2306835">
  <ele>1595.37</ele>
  <time>2026-08-27T18:29:03Z</time>
  <course>162.22</course>
  <speed>0.04</speed>
  <fix>3d</fix>
</trkpt>
<trkpt lat="40.0728221" lon="-105.2306837">
  <ele>1595.48</ele>
  <time>2026-08-27T18:29:03Z</time>
  <course>14.03</course>
  <speed>0.01</speed>
  <fix>3d</fix>
</trkpt>
<trkpt lat="40.0728219" lon="-105.2306835">
  <ele>1595.38</ele>
  <time>2026-08-27T18:29:03Z</time>
  <course>153.95</course>
  <speed>0.04</speed>
  <fix>3d</fix>
</trkpt>
<trkpt lat="40.072822" lon="-105.2306836">
  <ele>1595.48</ele>
  <time>2026-08-27T18:29:03Z</time>
  <course>14.04</course>
  <speed>0.01</speed>
  <fix>3d</fix>
</trkpt>
<trkpt lat="40.0728219" lon="-105.2306835">
  <ele>1595.37</ele>
  <time>2026-08-27T18:29:03Z</time>
  <course>152.3</course>
  <speed>0.04</speed>
  <fix>3d</fix>
</trkpt>
<trkpt lat="40.072822" lon="-105.2306836">
  <ele>1595.47</ele>
  <time>2026-08-27T18:29:03Z</time>
  <course>13.96</course>
  <speed>0.01</speed>
  <fix>3d</fix>
</trkpt>
<trkpt lat="40.0728218" lon="-105.2306835">
  <ele>1595.37</ele>
  <time>2026-08-27T18:29:03Z</time>
  <course>159.66</course>
  <speed>0.03</speed>
  <fix>3d</fix>
</trkpt>
<trkpt lat="40.0728219" lon="-105.2306835">
  <ele>1595.47</ele>
  <time>2026-08-27T18:29:03Z</time>
  <course>13.91</course>
  <speed>0.01</speed>
  <fix>3d</fix>
</trkpt>
<trkpt lat="40.0728217" lon="-105.2306834">
  <ele>1595.37</ele>
  <time>2026-08-27T18:29:03Z</time>
  <course>162.12</course>
  <speed>0.03</speed>
  <fix>3d</fix>
</trkpt>
<trkpt lat="40.0728218" lon="-105.2306835">
  <ele>1595.47</ele>
  <time>2026-08-27T18:29:03Z</time>
  <course>13.95</course>
  <speed>0.01</speed>
  <fix>3d</fix>
</trkpt>
<trkpt lat="40.0728217" lon="-105.2306833">
  <ele>1595.37</ele>
  <time>2026-08-27T18:29:03Z</time>
  <course>156.44</course>
  <speed>0.03</speed>
  <fix>3d</fix>
</trkpt>
<trkpt lat="40.0728218" lon="-105.2306835">
  <ele>1595.47</ele>
  <time>2026-08-27T18:29:03Z</time>
  <course>13.99</course>
  <speed>0.01</speed>
  <fix>3d</fix>
</trkpt>
<trkpt lat="40.0728216" lon="-105.2306833">
  <ele>1595.37</ele>
  <time>2026-08-27T18:29:03Z</time>
  <course>152.75</course>
  <speed>0.04</speed>
  <fix>3d</fix>
</trkpt>
<trkpt lat="40.0728217" lon="-105.2306834">
  <ele>1595.47</ele>
  <time>2026-08-27T18:29:03Z</time>
  <course>13.99</course>
  <speed>0.01</speed>
  <fix>3d</fix>
</trkpt>
<trkpt lat="40.0728215" lon="-105.2306833">
  <ele>1595.37</ele>
  <time>2026-08-27T18:29:03Z</time>
  <course>155.06</course>
  <speed>0.04</speed>
  <fix>3d</fix>
</trkpt>
<trkpt lat="40.0728216" lon="-105.2306834">
  <ele>1595.47</ele>
  <time>2026-08-27T18:29:03Z</time>
  <course>13.96</course>
  <speed>0.01</speed>
  <fix>3d</fix>
</trkpt>
<trkpt lat="40.0728214" lon="-105.2306833">
  <ele>1595.37</ele>
  <time>2026-08-27T18:29:03Z</time>
  <course>159.95</course>
  <speed>0.03</speed>
  <fix>3d</fix>
</trkpt>
<trkpt lat="40.0728216" lon="-105.2306834">
  <ele>1595.46</ele>
  <time>2026-08-27T18:29:03Z</time>
  <course>13.91</course>
  <speed>0.01</speed>
  <fix>3d</fix>
</trkpt>
<trkpt lat="40.0728214" lon="-105.2306833">
  <ele>1595.37</ele>
  <time>2026-08-27T18:29:03Z</time>
  <course>162.25</course>
  <speed>0.03</speed>
  <fix>3d</fix>
</trkpt>
<trkpt lat="40.0728215" lon="-105.2306833">
  <ele>1595.46</ele>
  <time>2026-08-27T18:29:03Z</time>
  <course>13.88</course>
  <speed>0.01</speed>
  <fix>3d</fix>
</trkpt>
<trkpt lat="40.0728213" lon="-105.2306832">
  <ele>1595.37</ele>
  <time>2026-08-27T18:29:03Z</time>
  <course>160.97</course>
  <speed>0.03</speed>
  <fix>3d</fix>
</trkpt>
<trkpt lat="40.0728214" lon="-105.2306833">
  <ele>1595.46</ele>
  <time>2026-08-27T18:29:03Z</time>
  <course>13.88</course>
  <speed>0.01</speed>
  <fix>3d</fix>
</trkpt>
<trkpt lat="40.0728213" lon="-105.2306832">
  <ele>1595.37</ele>
  <time>2026-08-27T18:29:03Z</time>
  <course>158.32</course>
  <speed>0.03</speed>
  <fix>3d</fix>
</trkpt>
<trkpt lat="40.0728214" lon="-105.2306833">
  <ele>1595.46</ele>
  <time>2026-08-27T18:29:03Z</time>
  <course>13.89</course>
  <speed>0.01</speed>
  <fix>3d</fix>
</trkpt>
<trkpt lat="40.0728212" lon="-105.2306832">
  <ele>1595.37</ele>
  <time>2026-08-27T18:29:03Z</time>
  <course>156.3</course>
  <speed>0.03</speed>
  <fix>3d</fix>
</trkpt>
<trkpt lat="40.0728213" lon="-105.2306833">
  <ele>1595.46</ele>
  <time>2026-08-27T18:29:03Z</time>
  <course>13.91</course>
  <speed>0.01</speed>
  <fix>3d</fix>
</trkpt>
<trkpt lat="40.0728211" lon="-105.2306831">
  <ele>1595.37</ele>
  <time>2026-08-27T18:29:03Z</time>
  <course>155.62</course>
  <speed>0.03</speed>
  <fix>3d</fix>
</trkpt>
<trkpt lat="40.0728212" lon="-105.2306832">
  <ele>1595.47</ele>
  <time>2026-08-27T18:29:03Z</time>
  <course>13.92</course>
  <speed>0.01</speed>
  <fix>3d</fix>
</trkpt>
<trkpt lat="40.0728211" lon="-105.230683">
  <ele>1595.37</ele>
  <time>2026-08-27T18:29:03Z</time>
  <course>155.99</course>
  <speed>0.03</speed>
  <fix>3d</fix>
</trkpt>
<trkpt lat="40.0728212" lon="-105.2306832">
  <ele>1595.47</ele>
  <time>2026-08-27T18:29:03Z</time>
  <course>13.94</course>
  <speed>0.01</speed>
  <fix>3d</fix>
</trkpt>
<trkpt lat="40.072821" lon="-105.230683">
  <ele>1595.37</ele>
  <time>2026-08-27T18:29:03Z</time>
  <course>156.76</course>
  <speed>0.03</speed>
  <fix>3d</fix>
</trkpt>
<trkpt lat="40.0728211" lon="-105.2306831">
  <ele>1595.48</ele>
  <time>2026-08-27T18:29:03Z</time>
  <course>13.96</course>
  <speed>0.01</speed>
  <fix>3d</fix>
</trkpt>
<trkpt lat="40.072821" lon="-105.230683">
  <ele>1595.38</ele>
  <time>2026-08-27T18:29:03Z</time>
  <course>157.65</course>
  <speed>0.03</speed>
  <fix>3d</fix>
</trkpt>
<trkpt lat="40.0728211" lon="-105.2306831">
  <ele>1595.48</ele>
  <time>2026-08-27T18:29:03Z</time>
  <course>13.98</course>
  <speed>0.01</speed>
  <fix>3d</fix>
</trkpt>
<trkpt lat="40.0728209" lon="-105.230683">
  <ele>1595.38</ele>
  <time>2026-08-27T18:29:03Z</time>
  <course>158.5</course>
  <speed>0.03</speed>
  <fix>3d</fix>
</trkpt>
<trkpt lat="40.072821" lon="-105.2306831">
  <ele>1595.48</ele>
  <time>2026-08-27T18:29:03Z</time>
  <course>13.99</course>
  <speed>0.01</speed>
  <fix>3d</fix>
</trkpt>
<trkpt lat="40.0728208" lon="-105.230683">
  <ele>1595.38</ele>
  <time>2026-08-27T18:29:03Z</time>
  <course>158.93</course>
  <speed>0.03</speed>
  <fix>3d</fix>
</trkpt>
<trkpt lat="40.0728209" lon="-105.230683">
  <ele>1595.48</ele>
  <time>2026-08-27T18:29:03Z</time>
  <course>13.99</course>
  <speed>0.01</speed>
  <fix>3d</fix>
</trkpt>
<trkpt lat="40.0728207" lon="-105.2306829">
  <ele>1595.38</ele>
  <time>2026-08-27T18:29:03Z</time>
  <course>158.94</course>
  <speed>0.03</speed>
  <fix>3d</fix>
</trkpt>
<trkpt lat="40.0728209" lon="-105.230683">
  <ele>1595.47</ele>
  <time>2026-08-27T18:29:03Z</time>
  <course>13.98</course>
  <speed>0.01</speed>
  <fix>3d</fix>
</trkpt>
<trkpt lat="40.0728207" lon="-105.2306828">
  <ele>1595.37</ele>
  <time>2026-08-27T18:29:03Z</time>
  <course>158.7</course>
  <speed>0.03</speed>
  <fix>3d</fix>
</trkpt>
<trkpt lat="40.0728208" lon="-105.230683">
  <ele>1595.47</ele>
  <time>2026-08-27T18:29:03Z</time>
  <course>13.97</course>
  <speed>0.01</speed>
  <fix>3d</fix>
</trkpt>
<trkpt lat="40.0728206" lon="-105.2306828">
  <ele>1595.37</ele>
  <time>2026-08-27T18:29:03Z</time>
  <course>158.31</course>
  <speed>0.03</speed>
  <fix>3d</fix>
</trkpt>
<trkpt lat="40.0728207" lon="-105.2306829">
  <ele>1595.47</ele>
  <time>2026-08-27T18:29:03Z</time>
  <course>13.96</course>
  <speed>0.01</speed>
  <fix>3d</fix>
</trkpt>
<trkpt lat="40.0728206" lon="-105.2306828">
  <ele>1595.37</ele>
  <time>2026-08-27T18:29:03Z</time>
  <course>158.21</course>
  <speed>0.03</speed>
  <fix>3d</fix>
</trkpt>
<trkpt lat="40.0728207" lon="-105.2306829">
  <ele>1595.47</ele>
  <time>2026-08-27T18:29:03Z</time>
  <course>13.94</course>
  <speed>0.01</speed>
  <fix>3d</fix>
</trkpt>
<trkpt lat="40.0728205" lon="-105.2306828">
  <ele>1595.37</ele>
  <time>2026-08-27T18:29:03Z</time>
  <course>158.65</course>
  <speed>0.03</speed>
  <fix>3d</fix>
</trkpt>
<trkpt lat="40.0728206" lon="-105.2306829">
  <ele>1595.47</ele>
  <time>2026-08-27T18:29:03Z</time>
  <course>13.94</course>
  <speed>0.01</speed>
  <fix>3d</fix>
</trkpt>
<trkpt lat="40.0728204" lon="-105.2306828">
  <ele>1595.37</ele>
  <time>2026-08-27T18:29:03Z</time>
  <course>159.99</course>
  <speed>0.03</speed>
  <fix>3d</fix>
</trkpt>
<trkpt lat="40.0728205" lon="-105.2306828">
  <ele>1595.48</ele>
  <time>2026-08-27T18:29:03Z</time>
  <course>13.96</course>
  <speed>0.01</speed>
  <fix>3d</fix>
</trkpt>
<trkpt lat="40.0728204" lon="-105.2306828">
  <ele>1595.37</ele>
  <time>2026-08-27T18:29:03Z</time>
  <course>162.18</course>
  <speed>0.03</speed>
  <fix>3d</fix>
</trkpt>
<trkpt lat="40.0728205" lon="-105.2306828">
  <ele>1595.48</ele>
  <time>2026-08-27T18:29:03Z</time>
  <course>13.99</course>
  <speed>0.01</speed>
  <fix>3d</fix>
</trkpt>
<trkpt lat="40.0728203" lon="-105.2306827">
  <ele>1595.37</ele>
  <time>2026-08-27T18:29:03Z</time>
  <course>163.88</course>
  <speed>0.03</speed>
  <fix>3d</fix>
</trkpt>
<trkpt lat="40.0728204" lon="-105.2306828">
  <ele>1595.47</ele>
  <time>2026-08-27T18:29:03Z</time>
  <course>14.01</course>
  <speed>0.01</speed>
  <fix>3d</fix>
</trkpt>
<trkpt lat="40.0728202" lon="-105.2306826">
  <ele>1595.37</ele>
  <time>2026-08-27T18:29:03Z</time>
  <course>164.04</course>
  <speed>0.03</speed>
  <fix>3d</fix>
</trkpt>
<trkpt lat="40.0728203" lon="-105.2306828">
  <ele>1595.47</ele>
  <time>2026-08-27T18:29:03Z</time>
  <course>13.99</course>
  <speed>0.01</speed>
  <fix>3d</fix>
</trkpt>
<trkpt lat="40.0728201" lon="-105.2306826">
  <ele>1595.36</ele>
  <time>2026-08-27T18:29:03Z</time>
  <course>162.42</course>
  <speed>0.03</speed>
  <fix>3d</fix>
</trkpt>
<trkpt lat="40.0728203" lon="-105.2306827">
  <ele>1595.47</ele>
  <time>2026-08-27T18:29:03Z</time>
  <course>13.95</course>
  <speed>0.01</speed>
  <fix>3d</fix>
</trkpt>
<trkpt lat="40.0728201" lon="-105.2306826">
  <ele>1595.36</ele>
  <time>2026-08-27T18:29:03Z</time>
  <course>160.56</course>
  <speed>0.03</speed>
  <fix>3d</fix>
</trkpt>
<trkpt lat="40.0728202" lon="-105.2306827">
  <ele>1595.46</ele>
  <time>2026-08-27T18:29:03Z</time>
  <course>13.95</course>
  <speed>0.01</speed>
  <fix>3d</fix>
</trkpt>
<trkpt lat="40.0728201" lon="-105.2306826">
  <ele>1595.36</ele>
  <time>2026-08-27T18:29:03Z</time>
  <course>161.03</course>
  <speed>0.03</speed>
  <fix>3d</fix>
</trkpt>
<trkpt lat="40.0728202" lon="-105.2306827">
  <ele>1595.47</ele>
  <time>2026-08-27T18:29:04Z</time>
  <course>13.97</course>
  <speed>0.01</speed>
  <fix>3d</fix>
</trkpt>
<trkpt lat="40.07282" lon="-105.2306826">
  <ele>1595.36</ele>
  <time>2026-08-27T18:29:04Z</time>
  <course>162.53</course>
  <speed>0.03</speed>
  <fix>3d</fix>
</trkpt>
<trkpt lat="40.0728201" lon="-105.2306826">
  <ele>1595.47</ele>
  <time>2026-08-27T18:29:04Z</time>
  <course>13.95</course>
  <speed>0.01</speed>
  <fix>3d</fix>
</trkpt>
<trkpt lat="40.0728199" lon="-105.2306826">
  <ele>1595.36</ele>
  <time>2026-08-27T18:29:04Z</time>
  <course>161.71</course>
  <speed>0.03</speed>
  <fix>3d</fix>
</trkpt>
<trkpt lat="40.07282" lon="-105.2306826">
  <ele>1595.47</ele>
  <time>2026-08-27T18:29:04Z</time>
  <course>13.96</course>
  <speed>0.01</speed>
  <fix>3d</fix>
</trkpt>
<trkpt lat="40.0728199" lon="-105.2306825">
  <ele>1595.36</ele>
  <time>2026-08-27T18:29:04Z</time>
  <course>160.11</course>
  <speed>0.03</speed>
  <fix>3d</fix>
</trkpt>
<trkpt lat="40.07282" lon="-105.2306826">
  <ele>1595.47</ele>
  <time>2026-08-27T18:29:04Z</time>
  <course>13.99</course>
  <speed>0.01</speed>
  <fix>3d</fix>
</trkpt>
<trkpt lat="40.0728198" lon="-105.2306825">
  <ele>1595.37</ele>
  <time>2026-08-27T18:29:04Z</time>
  <course>161.31</course>
  <speed>0.03</speed>
  <fix>3d</fix>
</trkpt>
<trkpt lat="40.0728199" lon="-105.2306826">
  <ele>1595.47</ele>
  <time>2026-08-27T18:29:04Z</time>
  <course>13.98</course>
  <speed>0.01</speed>
  <fix>3d</fix>
</trkpt>
<trkpt lat="40.0728197" lon="-105.2306825">
  <ele>1595.37</ele>
  <time>2026-08-27T18:29:04Z</time>
  <course>161.67</course>
  <speed>0.03</speed>
  <fix>3d</fix>
</trkpt>
<trkpt lat="40.0728198" lon="-105.2306826">
  <ele>1595.47</ele>
  <time>2026-08-27T18:29:04Z</time>
  <course>13.97</course>
  <speed>0.01</speed>
  <fix>3d</fix>
</trkpt>
<trkpt lat="40.0728196" lon="-105.2306825">
  <ele>1595.37</ele>
  <time>2026-08-27T18:29:04Z</time>
  <course>160.16</course>
  <speed>0.03</speed>
  <fix>3d</fix>
</trkpt>
<trkpt lat="40.0728198" lon="-105.2306825">
  <ele>1595.47</ele>
  <time>2026-08-27T18:29:04Z</time>
  <course>13.99</course>
  <speed>0.01</speed>
  <fix>3d</fix>
</trkpt>
<trkpt lat="40.0728196" lon="-105.2306824">
  <ele>1595.37</ele>
  <time>2026-08-27T18:29:04Z</time>
  <course>161.12</course>
  <speed>0.03</speed>
  <fix>3d</fix>
</trkpt>
<trkpt lat="40.0728197" lon="-105.2306825">
  <ele>1595.47</ele>
  <time>2026-08-27T18:29:04Z</time>
  <course>13.98</course>
  <speed>0.01</speed>
  <fix>3d</fix>
</trkpt>
<trkpt lat="40.0728195" lon="-105.2306823">
  <ele>1595.37</ele>
  <time>2026-08-27T18:29:04Z</time>
  <course>161.13</course>
  <speed>0.03</speed>
  <fix>3d</fix>
</trkpt>
<trkpt lat="40.0728196" lon="-105.2306825">
  <ele>1595.47</ele>
  <time>2026-08-27T18:29:04Z</time>
  <course>14.0</course>
  <speed>0.01</speed>
  <fix>3d</fix>
</trkpt>
<trkpt lat="40.0728195" lon="-105.2306823">
  <ele>1595.37</ele>
  <time>2026-08-27T18:29:04Z</time>
  <course>160.71</course>
  <speed>0.03</speed>
  <fix>3d</fix>
</trkpt>
<trkpt lat="40.0728196" lon="-105.2306824">
  <ele>1595.47</ele>
  <time>2026-08-27T18:29:04Z</time>
  <course>13.99</course>
  <speed>0.01</speed>
  <fix>3d</fix>
</trkpt>
<trkpt lat="40.0728194" lon="-105.2306823">
  <ele>1595.37</ele>
  <time>2026-08-27T18:29:04Z</time>
  <course>160.43</course>
  <speed>0.03</speed>
  <fix>3d</fix>
</trkpt>
<trkpt lat="40.0728195" lon="-105.2306824">
  <ele>1595.47</ele>
  <time>2026-08-27T18:29:04Z</time>
  <course>14.0</course>
  <speed>0.01</speed>
  <fix>3d</fix>
</trkpt>
<trkpt lat="40.0728194" lon="-105.2306823">
  <ele>1595.37</ele>
  <time>2026-08-27T18:29:04Z</time>
  <course>159.61</course>
  <speed>0.03</speed>
  <fix>3d</fix>
</trkpt>
<trkpt lat="40.0728195" lon="-105.2306824">
  <ele>1595.47</ele>
  <time>2026-08-27T18:29:04Z</time>
  <course>13.99</course>
  <speed>0.01</speed>
  <fix>3d</fix>
</trkpt>
<trkpt lat="40.0728193" lon="-105.2306823">
  <ele>1595.37</ele>
  <time>2026-08-27T18:29:04Z</time>
  <course>159.33</course>
  <speed>0.03</speed>
  <fix>3d</fix>
</trkpt>
<trkpt lat="40.0728194" lon="-105.2306824">
  <ele>1595.47</ele>
  <time>2026-08-27T18:29:04Z</time>
  <course>14.0</course>
  <speed>0.01</speed>
  <fix>3d</fix>
</trkpt>
<trkpt lat="40.0728192" lon="-105.2306823">
  <ele>1595.37</ele>
  <time>2026-08-27T18:29:04Z</time>
  <course>159.4</course>
  <speed>0.03</speed>
  <fix>3d</fix>
</trkpt>
<trkpt lat="40.0728193" lon="-105.2306823">
  <ele>1595.47</ele>
  <time>2026-08-27T18:29:04Z</time>
  <course>14.0</course>
  <speed>0.01</speed>
  <fix>3d</fix>
</trkpt>
<trkpt lat="40.0728192" lon="-105.2306822">
  <ele>1595.37</ele>
  <time>2026-08-27T18:29:04Z</time>
  <course>159.24</course>
  <speed>0.03</speed>
  <fix>3d</fix>
</trkpt>
<trkpt lat="40.0728193" lon="-105.2306823">
  <ele>1595.47</ele>
  <time>2026-08-27T18:29:04Z</time>
  <course>14.02</course>
  <speed>0.01</speed>
  <fix>3d</fix>
</trkpt>
<trkpt lat="40.0728191" lon="-105.2306821">
  <ele>1595.37</ele>
  <time>2026-08-27T18:29:04Z</time>
  <course>159.17</course>
  <speed>0.03</speed>
  <fix>3d</fix>
</trkpt>
<trkpt lat="40.0728192" lon="-105.2306823">
  <ele>1595.47</ele>
  <time>2026-08-27T18:29:04Z</time>
  <course>14.01</course>
  <speed>0.01</speed>
  <fix>3d</fix>
</trkpt>
<trkpt lat="40.072819" lon="-105.2306821">
  <ele>1595.37</ele>
  <time>2026-08-27T18:29:04Z</time>
  <course>159.01</course>
  <speed>0.03</speed>
  <fix>3d</fix>
</trkpt>
<trkpt lat="40.0728192" lon="-105.2306822">
  <ele>1595.47</ele>
  <time>2026-08-27T18:29:04Z</time>
  <course>14.01</course>
  <speed>0.01</speed>
  <fix>3d</fix>
</trkpt>
<trkpt lat="40.072819" lon="-105.2306821">
  <ele>1595.37</ele>
  <time>2026-08-27T18:29:04Z</time>
  <course>157.93</course>
  <speed>0.03</speed>
  <fix>3d</fix>
</trkpt>
<trkpt lat="40.0728191" lon="-105.2306822">
  <ele>1595.47</ele>
  <time>2026-08-27T18:29:04Z</time>
  <course>14.02</course>
  <speed>0.01</speed>
  <fix>3d</fix>
</trkpt>
<trkpt lat="40.0728189" lon="-105.2306821">
  <ele>1595.37</ele>
  <time>2026-08-27T18:29:04Z</time>
  <course>158.7</course>
  <speed>0.03</speed>
  <fix>3d</fix>
</trkpt>
<trkpt lat="40.072819" lon="-105.2306822">
  <ele>1595.47</ele>
  <time>2026-08-27T18:29:04Z</time>
  <course>14.01</course>
  <speed>0.01</speed>
  <fix>3d</fix>
</trkpt>
<trkpt lat="40.0728189" lon="-105.2306821">
  <ele>1595.36</ele>
  <time>2026-08-27T18:29:04Z</time>
  <course>158.73</course>
  <speed>0.03</speed>
  <fix>3d</fix>
</trkpt>
<trkpt lat="40.072819" lon="-105.2306821">
  <ele>1595.46</ele>
  <time>2026-08-27T18:29:04Z</time>
  <course>14.0</course>
  <speed>0.01</speed>
  <fix>3d</fix>
</trkpt>
<trkpt lat="40.0728188" lon="-105.230682">
  <ele>1595.36</ele>
  <time>2026-08-27T18:29:04Z</time>
  <course>157.76</course>
  <speed>0.03</speed>
  <fix>3d</fix>
</trkpt>
<trkpt lat="40.0728189" lon="-105.2306821">
  <ele>1595.46</ele>
  <time>2026-08-27T18:29:04Z</time>
  <course>14.01</course>
  <speed>0.01</speed>
  <fix>3d</fix>
</trkpt>
<trkpt lat="40.0728188" lon="-105.230682">
  <ele>1595.36</ele>
  <time>2026-08-27T18:29:04Z</time>
  <course>158.03</course>
  <speed>0.03</speed>
  <fix>3d</fix>
</trkpt>
<trkpt lat="40.0728189" lon="-105.2306821">
  <ele>1595.46</ele>
  <time>2026-08-27T18:29:04Z</time>
  <course>14.01</course>
  <speed>0.01</speed>
  <fix>3d</fix>
</trkpt>
<trkpt lat="40.0728187" lon="-105.230682">
  <ele>1595.36</ele>
  <time>2026-08-27T18:29:04Z</time>
  <course>158.65</course>
  <speed>0.03</speed>
  <fix>3d</fix>
</trkpt>
<trkpt lat="40.0728188" lon="-105.2306821">
  <ele>1595.46</ele>
  <time>2026-08-27T18:29:04Z</time>
  <course>14.01</course>
  <speed>0.01</speed>
  <fix>3d</fix>
</trkpt>
<trkpt lat="40.0728187" lon="-105.230682">
  <ele>1595.37</ele>
  <time>2026-08-27T18:29:04Z</time>
  <course>158.51</course>
  <speed>0.03</speed>
  <fix>3d</fix>
</trkpt>
<trkpt lat="40.0728187" lon="-105.230682">
  <ele>1595.46</ele>
  <time>2026-08-27T18:29:04Z</time>
  <course>14.01</course>
  <speed>0.01</speed>
  <fix>3d</fix>
</trkpt>
<trkpt lat="40.0728186" lon="-105.2306819">
  <ele>1595.37</ele>
  <time>2026-08-27T18:29:04Z</time>
  <course>158.05</course>
  <speed>0.03</speed>
  <fix>3d</fix>
</trkpt>
<trkpt lat="40.0728187" lon="-105.230682">
  <ele>1595.46</ele>
  <time>2026-08-27T18:29:04Z</time>
  <course>14.01</course>
  <speed>0.01</speed>
  <fix>3d</fix>
</trkpt>
<trkpt lat="40.0728185" lon="-105.2306818">
  <ele>1595.37</ele>
  <time>2026-08-27T18:29:04Z</time>
  <course>157.79</course>
  <speed>0.03</speed>
  <fix>3d</fix>
</trkpt>
<trkpt lat="40.0728186" lon="-105.230682">
  <ele>1595.46</ele>
  <time>2026-08-27T18:29:04Z</time>
  <course>14.0</course>
  <speed>0.01</speed>
  <fix>3d</fix>
</trkpt>
<trkpt lat="40.0728184" lon="-105.2306818">
  <ele>1595.37</ele>
  <time>2026-08-27T18:29:04Z</time>
  <course>157.85</course>
  <speed>0.03</speed>
  <fix>3d</fix>
</trkpt>
<trkpt lat="40.0728186" lon="-105.2306819">
  <ele>1595.46</ele>
  <time>2026-08-27T18:29:04Z</time>
  <course>14.01</course>
  <speed>0.01</speed>
  <fix>3d</fix>
</trkpt>
<trkpt lat="40.0728184" lon="-105.2306818">
  <ele>1595.37</ele>
  <time>2026-08-27T18:29:04Z</time>
  <course>158.12</course>
  <speed>0.03</speed>
  <fix>3d</fix>
</trkpt>
<trkpt lat="40.0728185" lon="-105.2306819">
  <ele>1595.47</ele>
  <time>2026-08-27T18:29:04Z</time>
  <course>14.02</course>
  <speed>0.01</speed>
  <fix>3d</fix>
</trkpt>
<trkpt lat="40.0728183" lon="-105.2306818">
  <ele>1595.37</ele>
  <time>2026-08-27T18:29:04Z</time>
  <course>158.26</course>
  <speed>0.03</speed>
  <fix>3d</fix>
</trkpt>
<trkpt lat="40.0728184" lon="-105.2306819">
  <ele>1595.47</ele>
  <time>2026-08-27T18:29:04Z</time>
  <course>14.04</course>
  <speed>0.01</speed>
  <fix>3d</fix>
</trkpt>
<trkpt lat="40.0728183" lon="-105.2306818">
  <ele>1595.38</ele>
  <time>2026-08-27T18:29:04Z</time>
  <course>158.4</course>
  <speed>0.03</speed>
  <fix>3d</fix>
</trkpt>
<trkpt lat="40.0728184" lon="-105.2306819">
  <ele>1595.48</ele>
  <time>2026-08-27T18:29:04Z</time>
  <course>14.04</course>
  <speed>0.01</speed>
  <fix>3d</fix>
</trkpt>
<trkpt lat="40.0728182" lon="-105.2306817">
  <ele>1595.38</ele>
  <time>2026-08-27T18:29:04Z</time>
  <course>158.72</course>
  <speed>0.03</speed>
  <fix>3d</fix>
</trkpt>
<trkpt lat="40.0728183" lon="-105.2306818">
  <ele>1595.48</ele>
  <time>2026-08-27T18:29:04Z</time>
  <course>14.06</course>
  <speed>0.01</speed>
  <fix>3d</fix>
</trkpt>
<trkpt lat="40.0728182" lon="-105.2306816">
  <ele>1595.38</ele>
  <time>2026-08-27T18:29:04Z</time>
  <course>159.06</course>
  <speed>0.03</speed>
  <fix>3d</fix>
</trkpt>
<trkpt lat="40.0728183" lon="-105.2306818">
  <ele>1595.48</ele>
  <time>2026-08-27T18:29:04Z</time>
  <course>14.06</course>
  <speed>0.01</speed>
  <fix>3d</fix>
</trkpt>
<trkpt lat="40.0728181" lon="-105.2306816">
  <ele>1595.38</ele>
  <time>2026-08-27T18:29:04Z</time>
  <course>159.21</course>
  <speed>0.03</speed>
  <fix>3d</fix>
</trkpt>
<trkpt lat="40.0728182" lon="-105.2306818">
  <ele>1595.47</ele>
  <time>2026-08-27T18:29:04Z</time>
  <course>14.05</course>
  <speed>0.01</speed>
  <fix>3d</fix>
</trkpt>
<trkpt lat="40.0728181" lon="-105.2306816">
  <ele>1595.38</ele>
  <time>2026-08-27T18:29:04Z</time>
  <course>159.18</course>
  <speed>0.03</speed>
  <fix>3d</fix>
</trkpt>
<trkpt lat="40.0728182" lon="-105.2306817">
  <ele>1595.47</ele>
  <time>2026-08-27T18:29:04Z</time>
  <course>14.04</course>
  <speed>0.01</speed>
  <fix>3d</fix>
</trkpt>
<trkpt lat="40.072818" lon="-105.2306816">
  <ele>1595.38</ele>
  <time>2026-08-27T18:29:04Z</time>
  <course>159.4</course>
  <speed>0.03</speed>
  <fix>3d</fix>
</trkpt>
<trkpt lat="40.0728181" lon="-105.2306817">
  <ele>1595.47</ele>
  <time>2026-08-27T18:29:04Z</time>
  <course>14.04</course>
  <speed>0.01</speed>
  <fix>3d</fix>
</trkpt>
<trkpt lat="40.072818" lon="-105.2306816">
  <ele>1595.37</ele>
  <time>2026-08-27T18:29:04Z</time>
  <course>160.78</course>
  <speed>0.03</speed>
  <fix>3d</fix>
</trkpt>
<trkpt lat="40.072818" lon="-105.2306817">
  <ele>1595.46</ele>
  <time>2026-08-27T18:29:04Z</time>
  <course>14.03</course>
  <speed>0.01</speed>
  <fix>3d</fix>
</trkpt>
<trkpt lat="40.0728179" lon="-105.2306816">
  <ele>1595.37</ele>
  <time>2026-08-27T18:29:04Z</time>
  <course>162.89</course>
  <speed>0.03</speed>
  <fix>3d</fix>
</trkpt>
<trkpt lat="40.072818" lon="-105.2306817">
  <ele>1595.46</ele>
  <time>2026-08-27T18:29:04Z</time>
  <course>14.04</course>
  <speed>0.01</speed>
  <fix>3d</fix>
</trkpt>
<trkpt lat="40.0728178" lon="-105.2306816">
  <ele>1595.37</ele>
  <time>2026-08-27T18:29:04Z</time>
  <course>164.57</course>
  <speed>0.03</speed>
  <fix>3d</fix>
</trkpt>
<trkpt lat="40.0728179" lon="-105.2306816">
  <ele>1595.46</ele>
  <time>2026-08-27T18:29:04Z</time>
  <course>14.02</course>
  <speed>0.02</speed>
  <fix>3d</fix>
</trkpt>
<trkpt lat="40.0728177" lon="-105.2306815">
  <ele>1595.37</ele>
  <time>2026-08-27T18:29:04Z</time>
  <course>165.61</course>
  <speed>0.04</speed>
  <fix>3d</fix>
</trkpt>
<trkpt lat="40.0728178" lon="-105.2306816">
  <ele>1595.46</ele>
  <time>2026-08-27T18:29:04Z</time>
  <course>14.01</course>
  <speed>0.02</speed>
  <fix>3d</fix>
</trkpt>
<trkpt lat="40.0728177" lon="-105.2306814">
  <ele>1595.37</ele>
  <time>2026-08-27T18:29:04Z</time>
  <course>165.75</course>
  <speed>0.04</speed>
  <fix>3d</fix>
</trkpt>
<trkpt lat="40.0728177" lon="-105.2306816">
  <ele>1595.46</ele>
  <time>2026-08-27T18:29:04Z</time>
  <course>14.03</course>
  <speed>0.02</speed>
  <fix>3d</fix>
</trkpt>
<trkpt lat="40.0728176" lon="-105.2306814">
  <ele>1595.38</ele>
  <time>2026-08-27T18:29:04Z</time>
  <course>165.71</course>
  <speed>0.04</speed>
  <fix>3d</fix>
</trkpt>
<trkpt lat="40.0728177" lon="-105.2306816">
  <ele>1595.46</ele>
  <time>2026-08-27T18:29:04Z</time>
  <course>14.03</course>
  <speed>0.02</speed>
  <fix>3d</fix>
</trkpt>
<trkpt lat="40.0728175" lon="-105.2306814">
  <ele>1595.38</ele>
  <time>2026-08-27T18:29:04Z</time>
  <course>166.2</course>
  <speed>0.04</speed>
  <fix>3d</fix>
</trkpt>
<trkpt lat="40.0728176" lon="-105.2306815">
  <ele>1595.47</ele>
  <time>2026-08-27T18:29:04Z</time>
  <course>14.04</course>
  <speed>0.03</speed>
  <fix>3d</fix>
</trkpt>
<trkpt lat="40.0728174" lon="-105.2306814">
  <ele>1595.38</ele>
  <time>2026-08-27T18:29:04Z</time>
  <course>166.6</course>
  <speed>0.05</speed>
  <fix>3d</fix>
</trkpt>
<trkpt lat="40.0728175" lon="-105.2306815">
  <ele>1595.46</ele>
  <time>2026-08-27T18:29:04Z</time>
  <course>14.04</course>
  <speed>0.03</speed>
  <fix>3d</fix>
</trkpt>
<trkpt lat="40.0728173" lon="-105.2306814">
  <ele>1595.38</ele>
  <time>2026-08-27T18:29:04Z</time>
  <course>166.61</course>
  <speed>0.05</speed>
  <fix>3d</fix>
</trkpt>
<trkpt lat="40.0728174" lon="-105.2306815">
  <ele>1595.46</ele>
  <time>2026-08-27T18:29:04Z</time>
  <course>14.04</course>
  <speed>0.03</speed>
  <fix>3d</fix>
</trkpt>
<trkpt lat="40.0728172" lon="-105.2306814">
  <ele>1595.38</ele>
  <time>2026-08-27T18:29:04Z</time>
  <course>166.6</course>
  <speed>0.05</speed>
  <fix>3d</fix>
</trkpt>
<trkpt lat="40.0728173" lon="-105.2306814">
  <ele>1595.46</ele>
  <time>2026-08-27T18:29:04Z</time>
  <course>14.03</course>
  <speed>0.03</speed>
  <fix>3d</fix>
</trkpt>
<trkpt lat="40.0728171" lon="-105.2306813">
  <ele>1595.39</ele>
  <time>2026-08-27T18:29:04Z</time>
  <course>166.69</course>
  <speed>0.05</speed>
  <fix>3d</fix>
</trkpt>
<trkpt lat="40.0728172" lon="-105.2306814">
  <ele>1595.47</ele>
  <time>2026-08-27T18:29:04Z</time>
  <course>14.05</course>
  <speed>0.03</speed>
  <fix>3d</fix>
</trkpt>
<trkpt lat="40.072817" lon="-105.2306813">
  <ele>1595.39</ele>
  <time>2026-08-27T18:29:04Z</time>
  <course>167.15</course>
  <speed>0.05</speed>
  <fix>3d</fix>
</trkpt>
<trkpt lat="40.0728171" lon="-105.2306814">
  <ele>1595.48</ele>
  <time>2026-08-27T18:29:04Z</time>
  <course>14.05</course>
  <speed>0.03</speed>
  <fix>3d</fix>
</trkpt>
<trkpt lat="40.0728169" lon="-105.2306813">
  <ele>1595.39</ele>
  <time>2026-08-27T18:29:04Z</time>
  <course>167.49</course>
  <speed>0.05</speed>
  <fix>3d</fix>
</trkpt>
<trkpt lat="40.0728169" lon="-105.2306814">
  <ele>1595.48</ele>
  <time>2026-08-27T18:29:04Z</time>
  <course>14.06</course>
  <speed>0.04</speed>
  <fix>3d</fix>
</trkpt>
<trkpt lat="40.0728168" lon="-105.2306812">
  <ele>1595.39</ele>
  <time>2026-08-27T18:29:04Z</time>
  <course>167.44</course>
  <speed>0.06</speed>
  <fix>3d</fix>
</trkpt>
<trkpt lat="40.0728168" lon="-105.2306813">
  <ele>1595.48</ele>
  <time>2026-08-27T18:29:04Z</time>
  <course>14.06</course>
  <speed>0.04</speed>
  <fix>3d</fix>
</trkpt>
<trkpt lat="40.0728167" lon="-105.2306811">
  <ele>1595.39</ele>
  <time>2026-08-27T18:29:04Z</time>
  <course>167.55</course>
  <speed>0.06</speed>
  <fix>3d</fix>
</trkpt>
<trkpt lat="40.0728167" lon="-105.2306813">
  <ele>1595.48</ele>
  <time>2026-08-27T18:29:04Z</time>
  <course>14.05</course>
  <speed>0.01</speed>
  <fix>3d</fix>
</trkpt>
<trkpt lat="40.0728166" lon="-105.2306811">
  <ele>1595.39</ele>
  <time>2026-08-27T18:29:04Z</time>
  <course>165.75</course>
  <speed>0.05</speed>
  <fix>3d</fix>
</trkpt>
<trkpt lat="40.0728167" lon="-105.2306812">
  <ele>1595.48</ele>
  <time>2026-08-27T18:29:04Z</time>
  <course>14.2</course>
  <speed>0.022360679774997897</speed>
  <fix>3d</fix>
</trkpt>
<trkpt lat="40.0728165" lon="-105.2306811">
  <ele>1595.39</ele>
  <time>2026-08-27T18:29:04Z</time>
  <course>145.07</course>
  <speed>0.04</speed>
  <fix>3d</fix>
</trkpt>
<trkpt lat="40.0728166" lon="-105.2306812">
  <ele>1595.48</ele>
  <time>2026-08-27T18:29:04Z</time>
  <course>14.19</course>
  <speed>0.01</speed>
  <fix>3d</fix>
</trkpt>
<trkpt lat="40.0728164" lon="-105.2306811">
  <ele>1595.39</ele>
  <time>2026-08-27T18:29:04Z</time>
  <course>128.33</course>
  <speed>0.03</speed>
  <fix>3d</fix>
</trkpt>
<trkpt lat="40.0728166" lon="-105.2306811">
  <ele>1595.47</ele>
  <time>2026-08-27T18:29:04Z</time>
  <course>14.24</course>
  <speed>0.0</speed>
  <fix>3d</fix>
</trkpt>
<trkpt lat="40.0728164" lon="-105.230681">
  <ele>1595.39</ele>
  <time>2026-08-27T18:29:04Z</time>
  <course>140.22</course>
  <speed>0.02</speed>
  <fix>3d</fix>
</trkpt>
<trkpt lat="40.0728166" lon="-105.2306811">
  <ele>1595.47</ele>
  <time>2026-08-27T18:29:04Z</time>
  <course>14.36</course>
  <speed>0.01</speed>
  <fix>3d</fix>
</trkpt>
<trkpt lat="40.0728164" lon="-105.2306809">
  <ele>1595.39</ele>
  <time>2026-08-27T18:29:04Z</time>
  <course>134.17</course>
  <speed>0.03</speed>
  <fix>3d</fix>
</trkpt>
<trkpt lat="40.0728165" lon="-105.230681">
  <ele>1595.47</ele>
  <time>2026-08-27T18:29:04Z</time>
  <course>14.21</course>
  <speed>0.0</speed>
  <fix>3d</fix>
</trkpt>
<trkpt lat="40.0728164" lon="-105.2306809">
  <ele>1595.39</ele>
  <time>2026-08-27T18:29:04Z</time>
  <course>145.07</course>
  <speed>0.02</speed>
  <fix>3d</fix>
</trkpt>
<trkpt lat="40.0728165" lon="-105.230681">
  <ele>1595.47</ele>
  <time>2026-08-27T18:29:04Z</time>
  <course>14.26</course>
  <speed>0.0</speed>
  <fix>3d</fix>
</trkpt>
<trkpt lat="40.0728163" lon="-105.2306809">
  <ele>1595.39</ele>
  <time>2026-08-27T18:29:04Z</time>
  <course>160.19</course>
  <speed>0.02</speed>
  <fix>3d</fix>
</trkpt>
<trkpt lat="40.0728164" lon="-105.230681">
  <ele>1595.47</ele>
  <time>2026-08-27T18:29:04Z</time>
  <course>14.35</course>
  <speed>0.01414213562373095</speed>
  <fix>3d</fix>
</trkpt>
<trkpt lat="40.0728163" lon="-105.2306809">
  <ele>1595.39</ele>
  <time>2026-08-27T18:29:04Z</time>
  <course>145.03</course>
  <speed>0.03</speed>
  <fix>3d</fix>
</trkpt>
<trkpt lat="40.0728164" lon="-105.2306809">
  <ele>1595.47</ele>
  <time>2026-08-27T18:29:04Z</time>
  <course>14.18</course>
  <speed>0.0</speed>
  <fix>3d</fix>
</trkpt>
<trkpt lat="40.0728162" lon="-105.2306808">
  <ele>1595.39</ele>
  <time>2026-08-27T18:29:04Z</time>
  <course>154.59</course>
  <speed>0.02</speed>
  <fix>3d</fix>
</trkpt>
<trkpt lat="40.0728163" lon="-105.2306809">
  <ele>1595.47</ele>
  <time>2026-08-27T18:29:04Z</time>
  <course>14.28</course>
  <speed>0.01</speed>
  <fix>3d</fix>
</trkpt>
<trkpt lat="40.0728162" lon="-105.2306808">
  <ele>1595.39</ele>
  <time>2026-08-27T18:29:04Z</time>
  <course>160.07</course>
  <speed>0.03</speed>
  <fix>3d</fix>
</trkpt>
<trkpt lat="40.0728163" lon="-105.2306809">
  <ele>1595.47</ele>
  <time>2026-08-27T18:29:04Z</time>
  <course>14.37</course>
  <speed>0.01414213562373095</speed>
  <fix>3d</fix>
</trkpt>
<trkpt lat="40.0728161" lon="-105.2306808">
  <ele>1595.39</ele>
  <time>2026-08-27T18:29:04Z</time>
  <course>145.98</course>
  <speed>0.03</speed>
  <fix>3d</fix>
</trkpt>
<trkpt lat="40.0728162" lon="-105.2306809">
  <ele>1595.47</ele>
  <time>2026-08-27T18:29:04Z</time>
  <course>14.18</course>
  <speed>0.0</speed>
  <fix>3d</fix>
</trkpt>
<trkpt lat="40.0728161" lon="-105.2306807">
  <ele>1595.39</ele>
  <time>2026-08-27T18:29:04Z</time>
  <course>157.19</course>
  <speed>0.02</speed>
  <fix>3d</fix>
</trkpt>
<trkpt lat="40.0728162" lon="-105.2306808">
  <ele>1595.47</ele>
  <time>2026-08-27T18:29:04Z</time>
  <course>14.3</course>
  <speed>0.01</speed>
  <fix>3d</fix>
</trkpt>
<trkpt lat="40.072816" lon="-105.2306806">
  <ele>1595.38</ele>
  <time>2026-08-27T18:29:04Z</time>
  <course>158.66</course>
  <speed>0.03</speed>
  <fix>3d</fix>
</trkpt>
<trkpt lat="40.0728161" lon="-105.2306808">
  <ele>1595.48</ele>
  <time>2026-08-27T18:29:04Z</time>
  <course>14.36</course>
  <speed>0.01414213562373095</speed>
  <fix>3d</fix>
</trkpt>
<trkpt lat="40.0728159" lon="-105.2306806">
  <ele>1595.38</ele>
  <time>2026-08-27T18:29:04Z</time>
  <course>146.03</course>
  <speed>0.03</speed>
  <fix>3d</fix>
</trkpt>
<trkpt lat="40.0728161" lon="-105.2306807">
  <ele>1595.47</ele>
  <time>2026-08-27T18:29:04Z</time>
  <course>14.18</course>
  <speed>0.0</speed>
  <fix>3d</fix>
</trkpt>
<trkpt lat="40.0728159" lon="-105.2306806">
  <ele>1595.38</ele>
  <time>2026-08-27T18:29:04Z</time>
  <course>159.21</course>
  <speed>0.03</speed>
  <fix>3d</fix>
</trkpt>
<trkpt lat="40.072816" lon="-105.2306807">
  <ele>1595.47</ele>
  <time>2026-08-27T18:29:04Z</time>
  <course>14.32</course>
  <speed>0.01</speed>
  <fix>3d</fix>
</trkpt>
<trkpt lat="40.0728158" lon="-105.2306806">
  <ele>1595.38</ele>
  <time>2026-08-27T18:29:04Z</time>
  <course>157.38</course>
  <speed>0.03</speed>
  <fix>3d</fix>
</trkpt>
<trkpt lat="40.0728159" lon="-105.2306807">
  <ele>1595.46</ele>
  <time>2026-08-27T18:29:04Z</time>
  <course>14.35</course>
  <speed>0.01414213562373095</speed>
  <fix>3d</fix>
</trkpt>
<trkpt lat="40.0728158" lon="-105.2306806">
  <ele>1595.38</ele>
  <time>2026-08-27T18:29:04Z</time>
  <course>146.27</course>
  <speed>0.03</speed>
  <fix>3d</fix>
</trkpt>
<trkpt lat="40.0728159" lon="-105.2306806">
  <ele>1595.46</ele>
  <time>2026-08-27T18:29:04Z</time>
  <course>14.16</course>
  <speed>0.0</speed>
  <fix>3d</fix>
</trkpt>
<trkpt lat="40.0728157" lon="-105.2306805">
  <ele>1595.38</ele>
  <time>2026-08-27T18:29:04Z</time>
  <course>160.14</course>
  <speed>0.03</speed>
  <fix>3d</fix>
</trkpt>
<trkpt lat="40.0728158" lon="-105.2306806">
  <ele>1595.46</ele>
  <time>2026-08-27T18:29:04Z</time>
  <course>14.29</course>
  <speed>0.01</speed>
  <fix>3d</fix>
</trkpt>
<trkpt lat="40.0728157" lon="-105.2306804">
  <ele>1595.38</ele>
  <time>2026-08-27T18:29:04Z</time>
  <course>155.39</course>
  <speed>0.03</speed>
  <fix>3d</fix>
</trkpt>
<trkpt lat="40.0728158" lon="-105.2306806">
  <ele>1595.46</ele>
  <time>2026-08-27T18:29:04Z</time>
  <course>14.29</course>
  <speed>0.01</speed>
  <fix>3d</fix>
</trkpt>
<trkpt lat="40.0728156" lon="-105.2306804">
  <ele>1595.38</ele>
  <time>2026-08-27T18:29:04Z</time>
  <course>146.12</course>
  <speed>0.03</speed>
  <fix>3d</fix>
</trkpt>
<trkpt lat="40.0728157" lon="-105.2306805">
  <ele>1595.46</ele>
  <time>2026-08-27T18:29:04Z</time>
  <course>14.15</course>
  <speed>0.0</speed>
  <fix>3d</fix>
</trkpt>
<trkpt lat="40.0728156" lon="-105.2306804">
  <ele>1595.38</ele>
  <time>2026-08-27T18:29:04Z</time>
  <course>161.19</course>
  <speed>0.03</speed>
  <fix>3d</fix>
</trkpt>
<trkpt lat="40.0728157" lon="-105.2306805">
  <ele>1595.46</ele>
  <time>2026-08-27T18:29:04Z</time>
  <course>14.26</course>
  <speed>0.02</speed>
  <fix>3d</fix>
</trkpt>
<trkpt lat="40.0728155" lon="-105.2306804">
  <ele>1595.38</ele>
  <time>2026-08-27T18:29:04Z</time>
  <course>154.76</course>
  <speed>0.03</speed>
  <fix>3d</fix>
</trkpt>
<trkpt lat="40.0728156" lon="-105.2306805">
  <ele>1595.46</ele>
  <time>2026-08-27T18:29:04Z</time>
  <course>14.09</course>
  <speed>0.0316227766016838</speed>
  <fix>3d</fix>
</trkpt>
<trkpt lat="40.0728154" lon="-105.2306803">
  <ele>1595.39</ele>
  <time>2026-08-27T18:29:04Z</time>
  <course>165.87</course>
  <speed>0.04</speed>
  <fix>3d</fix>
</trkpt>
<trkpt lat="40.0728155" lon="-105.2306805">
  <ele>1595.46</ele>
  <time>2026-08-27T18:29:04Z</time>
  <course>14.05</course>
  <speed>0.03</speed>
  <fix>3d</fix>
</trkpt>
<trkpt lat="40.0728153" lon="-105.2306802">
  <ele>1595.39</ele>
  <time>2026-08-27T18:29:04Z</time>
  <course>176.76</course>
  <speed>0.05</speed>
  <fix>3d</fix>
</trkpt>
<trkpt lat="40.0728154" lon="-105.2306804">
  <ele>1595.45</ele>
  <time>2026-08-27T18:29:04Z</time>
  <course>14.03</course>
  <speed>0.02</speed>
  <fix>3d</fix>
</trkpt>
<trkpt lat="40.0728152" lon="-105.2306802">
  <ele>1595.39</ele>
  <time>2026-08-27T18:29:04Z</time>
  <course>167.23</course>
  <speed>0.05</speed>
  <fix>3d</fix>
</trkpt>
<trkpt lat="40.0728153" lon="-105.2306804">
  <ele>1595.45</ele>
  <time>2026-08-27T18:29:04Z</time>
  <course>14.02</course>
  <speed>0.02</speed>
  <fix>3d</fix>
</trkpt>
<trkpt lat="40.0728152" lon="-105.2306802">
  <ele>1595.4</ele>
  <time>2026-08-27T18:29:04Z</time>
  <course>161.84</course>
  <speed>0.04</speed>
  <fix>3d</fix>
</trkpt>
<trkpt lat="40.0728152" lon="-105.2306803">
  <ele>1595.45</ele>
  <time>2026-08-27T18:29:04Z</time>
  <course>14.02</course>
  <speed>0.01</speed>
  <fix>3d</fix>
</trkpt>
<trkpt lat="40.0728151" lon="-105.2306802">
  <ele>1595.4</ele>
  <time>2026-08-27T18:29:04Z</time>
  <course>156.28</course>
  <speed>0.04</speed>
  <fix>3d</fix>
</trkpt>
<trkpt lat="40.0728152" lon="-105.2306803">
  <ele>1595.46</ele>
  <time>2026-08-27T18:29:04Z</time>
  <course>14.04</course>
  <speed>0.01</speed>
  <fix>3d</fix>
</trkpt>
<trkpt lat="40.072815" lon="-105.2306802">
  <ele>1595.4</ele>
  <time>2026-08-27T18:29:04Z</time>
  <course>151.1</course>
  <speed>0.03</speed>
  <fix>3d</fix>
</trkpt>
<trkpt lat="40.0728151" lon="-105.2306802">
  <ele>1595.46</ele>
  <time>2026-08-27T18:29:04Z</time>
  <course>14.05</course>
  <speed>0.0</speed>
  <fix>3d</fix>
</trkpt>
<trkpt lat="40.072815" lon="-105.2306801">
  <ele>1595.41</ele>
  <time>2026-08-27T18:29:04Z</time>
  <course>147.4</course>
  <speed>0.03</speed>
  <fix>3d</fix>
</trkpt>
<trkpt lat="40.0728151" lon="-105.2306802">
  <ele>1595.47</ele>
  <time>2026-08-27T18:29:04Z</time>
  <course>14.05</course>
  <speed>0.0</speed>
  <fix>3d</fix>
</trkpt>
<trkpt lat="40.0728149" lon="-105.2306801">
  <ele>1595.41</ele>
  <time>2026-08-27T18:29:04Z</time>
  <course>143.84</course>
  <speed>0.03</speed>
  <fix>3d</fix>
</trkpt>
<trkpt lat="40.072815" lon="-105.2306801">
  <ele>1595.47</ele>
  <time>2026-08-27T18:29:04Z</time>
  <course>14.06</course>
  <speed>0.0</speed>
  <fix>3d</fix>
</trkpt>
<trkpt lat="40.0728149" lon="-105.23068">
  <ele>1595.41</ele>
  <time>2026-08-27T18:29:04Z</time>
  <course>140.17</course>
  <speed>0.03</speed>
  <fix>3d</fix>
</trkpt>
<trkpt lat="40.072815" lon="-105.2306801">
  <ele>1595.47</ele>
  <time>2026-08-27T18:29:04Z</time>
  <course>14.06</course>
  <speed>0.01</speed>
  <fix>3d</fix>
</trkpt>
<trkpt lat="40.0728148" lon="-105.2306799">
  <ele>1595.42</ele>
  <time>2026-08-27T18:29:04Z</time>
  <course>136.39</course>
  <speed>0.03</speed>
  <fix>3d</fix>
</trkpt>
<trkpt lat="40.072815" lon="-105.23068">
  <ele>1595.47</ele>
  <time>2026-08-27T18:29:04Z</time>
  <course>14.06</course>
  <speed>0.01</speed>
  <fix>3d</fix>
</trkpt>
<trkpt lat="40.0728147" lon="-105.2306799">
  <ele>1595.42</ele>
  <time>2026-08-27T18:29:04Z</time>
  <course>132.24</course>
  <speed>0.02</speed>
  <fix>3d</fix>
</trkpt>
<trkpt lat="40.0728149" lon="-105.23068">
  <ele>1595.47</ele>
  <time>2026-08-27T18:29:04Z</time>
  <course>14.07</course>
  <speed>0.01</speed>
  <fix>3d</fix>
</trkpt>
<trkpt lat="40.0728147" lon="-105.2306799">
  <ele>1595.42</ele>
  <time>2026-08-27T18:29:04Z</time>
  <course>127.86</course>
  <speed>0.02</speed>
  <fix>3d</fix>
</trkpt>
<trkpt lat="40.0728149" lon="-105.2306799">
  <ele>1595.48</ele>
  <time>2026-08-27T18:29:04Z</time>
  <course>14.07</course>
  <speed>0.01</speed>
  <fix>3d</fix>
</trkpt>
<trkpt lat="40.0728147" lon="-105.2306798">
  <ele>1595.42</ele>
  <time>2026-08-27T18:29:04Z</time>
  <course>123.93</course>
  <speed>0.02</speed>
  <fix>3d</fix>
</trkpt>
<trkpt lat="40.0728149" lon="-105.2306799">
  <ele>1595.48</ele>
  <time>2026-08-27T18:29:04Z</time>
  <course>14.07</course>
  <speed>0.01</speed>
  <fix>3d</fix>
</trkpt>
<trkpt lat="40.0728146" lon="-105.2306797">
  <ele>1595.42</ele>
  <time>2026-08-27T18:29:04Z</time>
  <course>121.27</course>
  <speed>0.02</speed>
  <fix>3d</fix>
</trkpt>
<trkpt lat="40.0728148" lon="-105.2306798">
  <ele>1595.48</ele>
  <time>2026-08-27T18:29:04Z</time>
  <course>14.08</course>
  <speed>0.01</speed>
  <fix>3d</fix>
</trkpt>
<trkpt lat="40.0728146" lon="-105.2306797">
  <ele>1595.42</ele>
  <time>2026-08-27T18:29:04Z</time>
  <course>120.39</course>
  <speed>0.02</speed>
  <fix>3d</fix>
</trkpt>
<trkpt lat="40.0728148" lon="-105.2306798">
  <ele>1595.48</ele>
  <time>2026-08-27T18:29:04Z</time>
  <course>14.09</course>
  <speed>0.01</speed>
  <fix>3d</fix>
</trkpt>
<trkpt lat="40.0728146" lon="-105.2306797">
  <ele>1595.42</ele>
  <time>2026-08-27T18:29:04Z</time>
  <course>120.31</course>
  <speed>0.02</speed>
  <fix>3d</fix>
</trkpt>
<trkpt lat="40.0728148" lon="-105.2306797">
  <ele>1595.48</ele>
  <time>2026-08-27T18:29:04Z</time>
  <course>14.05</course>
  <speed>0.044721359549995794</speed>
  <fix>3d</fix>
</trkpt>
<trkpt lat="40.0728146" lon="-105.2306796">
  <ele>1595.41</ele>
  <time>2026-08-27T18:29:04Z</time>
  <course>95.6</course>
  <speed>0.02</speed>
  <fix>3d</fix>
</trkpt>
<trkpt lat="40.0728148" lon="-105.2306796">
  <ele>1595.47</ele>
  <time>2026-08-27T18:29:04Z</time>
  <course>14.2</course>
  <speed>0.03605551275463989</speed>
  <fix>3d</fix>
</trkpt>
<trkpt lat="40.0728146" lon="-105.2306795">
  <ele>1595.41</ele>
  <time>2026-08-27T18:29:04Z</time>
  <course>69.23</course>
  <speed>0.04</speed>
  <fix>3d</fix>
</trkpt>
<trkpt lat="40.0728148" lon="-105.2306796">
  <ele>1595.47</ele>
  <time>2026-08-27T18:29:04Z</time>
  <course>14.21</course>
  <speed>0.044721359549995794</speed>
  <fix>3d</fix>
</trkpt>
<trkpt lat="40.0728146" lon="-105.2306794">
  <ele>1595.41</ele>
  <time>2026-08-27T18:29:04Z</time>
  <course>55.21</course>
  <speed>0.04</speed>
  <fix>3d</fix>
</trkpt>
<trkpt lat="40.0728148" lon="-105.2306795">
  <ele>1595.47</ele>
  <time>2026-08-27T18:29:04Z</time>
  <course>14.25</course>
  <speed>0.02</speed>
  <fix>3d</fix>
</trkpt>
<trkpt lat="40.0728146" lon="-105.2306794">
  <ele>1595.41</ele>
  <time>2026-08-27T18:29:04Z</time>
  <course>53.06</course>
  <speed>0.02</speed>
  <fix>3d</fix>
</trkpt>
<trkpt lat="40.0728148" lon="-105.2306794">
  <ele>1595.47</ele>
  <time>2026-08-27T18:29:04Z</time>
  <course>14.38</course>
  <speed>0.0282842712474619</speed>
  <fix>3d</fix>
</trkpt>
<trkpt lat="40.0728146" lon="-105.2306794">
  <ele>1595.41</ele>
  <time>2026-08-27T18:29:04Z</time>
  <course>70.18</course>
  <speed>0.02</speed>
  <fix>3d</fix>
</trkpt>
<trkpt lat="40.0728148" lon="-105.2306794">
  <ele>1595.47</ele>
  <time>2026-08-27T18:29:04Z</time>
  <course>14.18</course>
  <speed>0.02</speed>
  <fix>3d</fix>
</trkpt>
<trkpt lat="40.0728146" lon="-105.2306793">
  <ele>1595.41</ele>
  <time>2026-08-27T18:29:04Z</time>
  <course>76.32</course>
  <speed>0.01</speed>
  <fix>3d</fix>
</trkpt>
<trkpt lat="40.0728148" lon="-105.2306794">
  <ele>1595.47</ele>
  <time>2026-08-27T18:29:04Z</time>
  <course>14.34</course>
  <speed>0.0</speed>
  <fix>3d</fix>
</trkpt>
<trkpt lat="40.0728146" lon="-105.2306792">
  <ele>1595.41</ele>
  <time>2026-08-27T18:29:04Z</time>
  <course>112.78</course>
  <speed>0.02</speed>
  <fix>3d</fix>
</trkpt>
<trkpt lat="40.0728148" lon="-105.2306793">
  <ele>1595.47</ele>
  <time>2026-08-27T18:29:04Z</time>
  <course>14.28</course>
  <speed>0.01414213562373095</speed>
  <fix>3d</fix>
</trkpt>
<trkpt lat="40.0728146" lon="-105.2306792">
  <ele>1595.41</ele>
  <time>2026-08-27T18:29:04Z</time>
  <course>106.52</course>
  <speed>0.02</speed>
  <fix>3d</fix>
</trkpt>
<trkpt lat="40.0728148" lon="-105.2306793">
  <ele>1595.47</ele>
  <time>2026-08-27T18:29:04Z</time>
  <course>14.24</course>
  <speed>0.0</speed>
  <fix>3d</fix>
</trkpt>
<trkpt lat="40.0728146" lon="-105.2306792">
  <ele>1595.41</ele>
  <time>2026-08-27T18:29:04Z</time>
  <course>129.7</course>
  <speed>0.02</speed>
  <fix>3d</fix>
</trkpt>
<trkpt lat="40.0728148" lon="-105.2306792">
  <ele>1595.47</ele>
  <time>2026-08-27T18:29:04Z</time>
  <course>14.37</course>
  <speed>0.02</speed>
  <fix>3d</fix>
</trkpt>
<trkpt lat="40.0728146" lon="-105.2306791">
  <ele>1595.41</ele>
  <time>2026-08-27T18:29:04Z</time>
  <course>120.46</course>
  <speed>0.02</speed>
  <fix>3d</fix>
</trkpt>
<trkpt lat="40.0728147" lon="-105.2306792">
  <ele>1595.47</ele>
  <time>2026-08-27T18:29:04Z</time>
  <course>14.16</course>
  <speed>0.01</speed>
  <fix>3d</fix>
</trkpt>
<trkpt lat="40.0728146" lon="-105.230679">
  <ele>1595.41</ele>
  <time>2026-08-27T18:29:04Z</time>
  <course>122.82</course>
  <speed>0.02</speed>
  <fix>3d</fix>
</trkpt>
<trkpt lat="40.0728147" lon="-105.2306791">
  <ele>1595.47</ele>
  <time>2026-08-27T18:29:04Z</time>
  <course>14.31</course>
  <speed>0.0</speed>
  <fix>3d</fix>
</trkpt>
<trkpt lat="40.0728146" lon="-105.230679">
  <ele>1595.41</ele>
  <time>2026-08-27T18:29:04Z</time>
  <course>134.06</course>
  <speed>0.02</speed>
  <fix>3d</fix>
</trkpt>
<trkpt lat="40.0728147" lon="-105.2306791">
  <ele>1595.47</ele>
  <time>2026-08-27T18:29:04Z</time>
  <course>14.3</course>
  <speed>0.01</speed>
  <fix>3d</fix>
</trkpt>
<trkpt lat="40.0728146" lon="-105.230679">
  <ele>1595.41</ele>
  <time>2026-08-27T18:29:04Z</time>
  <course>120.9</course>
  <speed>0.02</speed>
  <fix>3d</fix>
</trkpt>
<trkpt lat="40.0728147" lon="-105.230679">
  <ele>1595.47</ele>
  <time>2026-08-27T18:29:04Z</time>
  <course>14.23</course>
  <speed>0.0</speed>
  <fix>3d</fix>
</trkpt>
<trkpt lat="40.0728146" lon="-105.2306789">
  <ele>1595.41</ele>
  <time>2026-08-27T18:29:04Z</time>
  <course>139.81</course>
  <speed>0.02</speed>
  <fix>3d</fix>
</trkpt>
<trkpt lat="40.0728147" lon="-105.230679">
  <ele>1595.47</ele>
  <time>2026-08-27T18:29:04Z</time>
  <course>14.37</course>
  <speed>0.01</speed>
  <fix>3d</fix>
</trkpt>
<trkpt lat="40.0728146" lon="-105.2306789">
  <ele>1595.41</ele>
  <time>2026-08-27T18:29:04Z</time>
  <course>129.62</course>
  <speed>0.03</speed>
  <fix>3d</fix>
</trkpt>
<trkpt lat="40.0728146" lon="-105.230679">
  <ele>1595.48</ele>
  <time>2026-08-27T18:29:04Z</time>
  <course>14.18</course>
  <speed>0.01</speed>
  <fix>3d</fix>
</trkpt>
<trkpt lat="40.0728145" lon="-105.2306788">
  <ele>1595.41</ele>
  <time>2026-08-27T18:29:04Z</time>
  <course>130.31</course>
  <speed>0.02</speed>
  <fix>3d</fix>
</trkpt>
<trkpt lat="40.0728146" lon="-105.2306789">
  <ele>1595.48</ele>
  <time>2026-08-27T18:29:04Z</time>
  <course>14.33</course>
  <speed>0.0</speed>
  <fix>3d</fix>
</trkpt>
<trkpt lat="40.0728145" lon="-105.2306787">
  <ele>1595.41</ele>
  <time>2026-08-27T18:29:04Z</time>
  <course>141.24</course>
  <speed>0.02</speed>
  <fix>3d</fix>
</trkpt>
<trkpt lat="40.0728146" lon="-105.2306789">
  <ele>1595.48</ele>
  <time>2026-08-27T18:29:04Z</time>
  <course>14.36</course>
  <speed>0.01</speed>
  <fix>3d</fix>
</trkpt>
<trkpt lat="40.0728145" lon="-105.2306787">
  <ele>1595.41</ele>
  <time>2026-08-27T18:29:04Z</time>
  <course>126.41</course>
  <speed>0.02</speed>
  <fix>3d</fix>
</trkpt>
<trkpt lat="40.0728146" lon="-105.2306788">
  <ele>1595.47</ele>
  <time>2026-08-27T18:29:04Z</time>
  <course>14.25</course>
  <speed>0.0</speed>
  <fix>3d</fix>
</trkpt>
<trkpt lat="40.0728144" lon="-105.2306787">
  <ele>1595.41</ele>
  <time>2026-08-27T18:29:04Z</time>
  <course>143.48</course>
  <speed>0.02</speed>
  <fix>3d</fix>
</trkpt>
<trkpt lat="40.0728145" lon="-105.2306788">
  <ele>1595.47</ele>
  <time>2026-08-27T18:29:04Z</time>
  <course>14.38</course>
  <speed>0.01</speed>
  <fix>3d</fix>
</trkpt>
<trkpt lat="40.0728144" lon="-105.2306786">
  <ele>1595.41</ele>
  <time>2026-08-27T18:29:04Z</time>
  <course>134.0</course>
  <speed>0.03</speed>
  <fix>3d</fix>
</trkpt>
<trkpt lat="40.0728145" lon="-105.2306787">
  <ele>1595.47</ele>
  <time>2026-08-27T18:29:04Z</time>
  <course>14.19</course>
  <speed>0.01</speed>
  <fix>3d</fix>
</trkpt>
<trkpt lat="40.0728143" lon="-105.2306785">
  <ele>1595.41</ele>
  <time>2026-08-27T18:29:04Z</time>
  <course>131.96</course>
  <speed>0.02</speed>
  <fix>3d</fix>
</trkpt>
<trkpt lat="40.0728145" lon="-105.2306787">
  <ele>1595.47</ele>
  <time>2026-08-27T18:29:04Z</time>
  <course>14.3</course>
  <speed>0.0</speed>
  <fix>3d</fix>
</trkpt>
<trkpt lat="40.0728143" lon="-105.2306785">
  <ele>1595.4</ele>
  <time>2026-08-27T18:29:04Z</time>
  <course>144.36</course>
  <speed>0.02</speed>
  <fix>3d</fix>
</trkpt>
<trkpt lat="40.0728144" lon="-105.2306786">
  <ele>1595.47</ele>
  <time>2026-08-27T18:29:04Z</time>
  <course>14.34</course>
  <speed>0.02</speed>
  <fix>3d</fix>
</trkpt>
<trkpt lat="40.0728143" lon="-105.2306785">
  <ele>1595.4</ele>
  <time>2026-08-27T18:29:04Z</time>
  <course>129.41</course>
  <speed>0.03</speed>
  <fix>3d</fix>
</trkpt>
<trkpt lat="40.0728144" lon="-105.2306786">
  <ele>1595.47</ele>
  <time>2026-08-27T18:29:04Z</time>
  <course>14.15</course>
  <speed>0.01414213562373095</speed>
  <fix>3d</fix>
</trkpt>
<trkpt lat="40.0728142" lon="-105.2306784">
  <ele>1595.4</ele>
  <time>2026-08-27T18:29:04Z</time>
  <course>149.05</course>
  <speed>0.02</speed>
  <fix>3d</fix>
</trkpt>
<trkpt lat="40.0728143" lon="-105.2306786">
  <ele>1595.47</ele>
  <time>2026-08-27T18:29:04Z</time>
  <course>14.12</course>
  <speed>0.01</speed>
  <fix>3d</fix>
</trkpt>
<trkpt lat="40.0728141" lon="-105.2306784">
  <ele>1595.4</ele>
  <time>2026-08-27T18:29:04Z</time>
  <course>160.96</course>
  <speed>0.03</speed>
  <fix>3d</fix>
</trkpt>
<trkpt lat="40.0728143" lon="-105.2306785">
  <ele>1595.46</ele>
  <time>2026-08-27T18:29:04Z</time>
  <course>14.05</course>
  <speed>0.0</speed>
  <fix>3d</fix>
</trkpt>
<trkpt lat="40.0728141" lon="-105.2306784">
  <ele>1595.4</ele>
  <time>2026-08-27T18:29:04Z</time>
  <course>154.96</course>
  <speed>0.03</speed>
  <fix>3d</fix>
</trkpt>
<trkpt lat="40.0728142" lon="-105.2306785">
  <ele>1595.46</ele>
  <time>2026-08-27T18:29:04Z</time>
  <course>14.04</course>
  <speed>0.01</speed>
  <fix>3d</fix>
</trkpt>
<trkpt lat="40.072814" lon="-105.2306783">
  <ele>1595.4</ele>
  <time>2026-08-27T18:29:04Z</time>
  <course>145.25</course>
  <speed>0.03</speed>
  <fix>3d</fix>
</trkpt>
<trkpt lat="40.0728142" lon="-105.2306784">
  <ele>1595.47</ele>
  <time>2026-08-27T18:29:04Z</time>
  <course>14.04</course>
  <speed>0.01</speed>
  <fix>3d</fix>
</trkpt>
<trkpt lat="40.072814" lon="-105.2306782">
  <ele>1595.4</ele>
  <time>2026-08-27T18:29:04Z</time>
  <course>131.28</course>
  <speed>0.03</speed>
  <fix>3d</fix>
</trkpt>
<trkpt lat="40.0728141" lon="-105.2306783">
  <ele>1595.47</ele>
  <time>2026-08-27T18:29:04Z</time>
  <course>14.05</course>
  <speed>0.01414213562373095</speed>
  <fix>3d</fix>
</trkpt>
<trkpt lat="40.072814" lon="-105.2306782">
  <ele>1595.4</ele>
  <time>2026-08-27T18:29:04Z</time>
  <course>119.52</course>
  <speed>0.02</speed>
  <fix>3d</fix>
</trkpt>
<trkpt lat="40.0728141" lon="-105.2306783">
  <ele>1595.47</ele>
  <time>2026-08-27T18:29:04Z</time>
  <course>14.07</course>
  <speed>0.01414213562373095</speed>
  <fix>3d</fix>
</trkpt>
<trkpt lat="40.072814" lon="-105.2306782">
  <ele>1595.41</ele>
  <time>2026-08-27T18:29:04Z</time>
  <course>107.57</course>
  <speed>0.02</speed>
  <fix>3d</fix>
</trkpt>
<trkpt lat="40.0728141" lon="-105.2306782">
  <ele>1595.47</ele>
  <time>2026-08-27T18:29:04Z</time>
  <course>14.07</course>
  <speed>0.022360679774997897</speed>
  <fix>3d</fix>
</trkpt>
<trkpt lat="40.072814" lon="-105.2306781">
  <ele>1595.41</ele>
  <time>2026-08-27T18:29:04Z</time>
  <course>96.27</course>
  <speed>0.02</speed>
  <fix>3d</fix>
</trkpt>
<trkpt lat="40.0728141" lon="-105.2306781">
  <ele>1595.47</ele>
  <time>2026-08-27T18:29:04Z</time>
  <course>14.06</course>
  <speed>0.022360679774997897</speed>
  <fix>3d</fix>
</trkpt>
<trkpt lat="40.072814" lon="-105.230678">
  <ele>1595.41</ele>
  <time>2026-08-27T18:29:04Z</time>
  <course>86.78</course>
  <speed>0.02</speed>
  <fix>3d</fix>
</trkpt>
<trkpt lat="40.0728141" lon="-105.2306781">
  <ele>1595.47</ele>
  <time>2026-08-27T18:29:04Z</time>
  <course>14.07</course>
  <speed>0.022360679774997897</speed>
  <fix>3d</fix>
</trkpt>
<trkpt lat="40.072814" lon="-105.230678">
  <ele>1595.41</ele>
  <time>2026-08-27T18:29:04Z</time>
  <course>79.86</course>
  <speed>0.02</speed>
  <fix>3d</fix>
</trkpt>
<trkpt lat="40.0728141" lon="-105.230678">
  <ele>1595.47</ele>
  <time>2026-08-27T18:29:04Z</time>
  <course>14.08</course>
  <speed>0.0316227766016838</speed>
  <fix>3d</fix>
</trkpt>
<trkpt lat="40.072814" lon="-105.2306779">
  <ele>1595.41</ele>
  <time>2026-08-27T18:29:04Z</time>
  <course>75.0</course>
  <speed>0.02</speed>
  <fix>3d</fix>
</trkpt>
<trkpt lat="40.0728141" lon="-105.230678">
  <ele>1595.47</ele>
  <time>2026-08-27T18:29:04Z</time>
  <course>14.08</course>
  <speed>0.0316227766016838</speed>
  <fix>3d</fix>
</trkpt>
<trkpt lat="40.072814" lon="-105.2306778">
  <ele>1595.41</ele>
  <time>2026-08-27T18:29:04Z</time>
  <course>71.44</course>
  <speed>0.02</speed>
  <fix>3d</fix>
</trkpt>
<trkpt lat="40.0728141" lon="-105.2306779">
  <ele>1595.48</ele>
  <time>2026-08-27T18:29:04Z</time>
  <course>14.09</course>
  <speed>0.0316227766016838</speed>
  <fix>3d</fix>
</trkpt>
<trkpt lat="40.072814" lon="-105.2306778">
  <ele>1595.4</ele>
  <time>2026-08-27T18:29:04Z</time>
  <course>69.11</course>
  <speed>0.02</speed>
  <fix>3d</fix>
</trkpt>
<trkpt lat="40.0728141" lon="-105.2306778">
  <ele>1595.48</ele>
  <time>2026-08-27T18:29:04Z</time>
  <course>14.09</course>
  <speed>0.0316227766016838</speed>
  <fix>3d</fix>
</trkpt>
<trkpt lat="40.072814" lon="-105.2306777">
  <ele>1595.4</ele>
  <time>2026-08-27T18:29:04Z</time>
  <course>68.06</course>
  <speed>0.03</speed>
  <fix>3d</fix>
</trkpt>
<trkpt lat="40.0728142" lon="-105.2306778">
  <ele>1595.49</ele>
  <time>2026-08-27T18:29:04Z</time>
  <course>14.09</course>
  <speed>0.0316227766016838</speed>
  <fix>3d</fix>
</trkpt>
<trkpt lat="40.072814" lon="-105.2306776">
  <ele>1595.4</ele>
  <time>2026-08-27T18:29:04Z</time>
  <course>68.43</course>
  <speed>0.03</speed>
  <fix>3d</fix>
</trkpt>
<trkpt lat="40.0728142" lon="-105.2306777">
  <ele>1595.49</ele>
  <time>2026-08-27T18:29:04Z</time>
  <course>14.1</course>
  <speed>0.0316227766016838</speed>
  <fix>3d</fix>
</trkpt>
<trkpt lat="40.072814" lon="-105.2306775">
  <ele>1595.4</ele>
  <time>2026-08-27T18:29:04Z</time>
  <course>69.3</course>
  <speed>0.03</speed>
  <fix>3d</fix>
</trkpt>
<trkpt lat="40.0728142" lon="-105.2306776">
  <ele>1595.49</ele>
  <time>2026-08-27T18:29:05Z</time>
  <course>14.1</course>
  <speed>0.044721359549995794</speed>
  <fix>3d</fix>
</trkpt>
<trkpt lat="40.072814" lon="-105.2306775">
  <ele>1595.4</ele>
  <time>2026-08-27T18:29:05Z</time>
  <course>66.63</course>
  <speed>0.03</speed>
  <fix>3d</fix>
</trkpt>
<trkpt lat="40.0728142" lon="-105.2306775">
  <ele>1595.48</ele>
  <time>2026-08-27T18:29:05Z</time>
  <course>14.2</course>
  <speed>0.05</speed>
  <fix>3d</fix>
</trkpt>
<trkpt lat="40.072814" lon="-105.2306774">
  <ele>1595.39</ele>
  <time>2026-08-27T18:29:05Z</time>
  <course>59.41</course>
  <speed>0.04</speed>
  <fix>3d</fix>
</trkpt>
<trkpt lat="40.0728143" lon="-105.2306774">
  <ele>1595.48</ele>
  <time>2026-08-27T18:29:05Z</time>
  <course>14.18</course>
  <speed>0.044721359549995794</speed>
  <fix>3d</fix>
</trkpt>
<trkpt lat="40.072814" lon="-105.2306773">
  <ele>1595.39</ele>
  <time>2026-08-27T18:29:05Z</time>
  <course>54.04</course>
  <speed>0.04</speed>
  <fix>3d</fix>
</trkpt>
<trkpt lat="40.0728143" lon="-105.2306774">
  <ele>1595.48</ele>
  <time>2026-08-27T18:29:05Z</time>
  <course>14.15</course>
  <speed>0.0316227766016838</speed>
  <fix>3d</fix>
</trkpt>
<trkpt lat="40.072814" lon="-105.2306772">
  <ele>1595.38</ele>
  <time>2026-08-27T18:29:05Z</time>
  <course>52.42</course>
  <speed>0.03</speed>
  <fix>3d</fix>
</trkpt>
<trkpt lat="40.0728143" lon="-105.2306773">
  <ele>1595.48</ele>
  <time>2026-08-27T18:29:05Z</time>
  <course>14.14</course>
  <speed>0.022360679774997897</speed>
  <fix>3d</fix>
</trkpt>
<trkpt lat="40.0728141" lon="-105.2306771">
  <ele>1595.38</ele>
  <time>2026-08-27T18:29:05Z</time>
  <course>58.1</course>
  <speed>0.02</speed>
  <fix>3d</fix>
</trkpt>
<trkpt lat="40.0728143" lon="-105.2306772">
  <ele>1595.47</ele>
  <time>2026-08-27T18:29:05Z</time>
  <course>14.12</course>
  <speed>0.01414213562373095</speed>
  <fix>3d</fix>
</trkpt>
<trkpt lat="40.0728141" lon="-105.2306771">
  <ele>1595.38</ele>
  <time>2026-08-27T18:29:05Z</time>
  <course>70.99</course>
  <speed>0.02</speed>
  <fix>3d</fix>
</trkpt>
<trkpt lat="40.0728143" lon="-105.2306772">
  <ele>1595.46</ele>
  <time>2026-08-27T18:29:05Z</time>
  <course>14.08</course>
  <speed>0.01</speed>
  <fix>3d</fix>
</trkpt>
<trkpt lat="40.0728141" lon="-105.2306771">
  <ele>1595.38</ele>
  <time>2026-08-27T18:29:05Z</time>
  <course>87.25</course>
  <speed>0.02</speed>
  <fix>3d</fix>
</trkpt>
<trkpt lat="40.0728142" lon="-105.2306771">
  <ele>1595.46</ele>
  <time>2026-08-27T18:29:05Z</time>
  <course>14.05</course>
  <speed>0.0</speed>
  <fix>3d</fix>
</trkpt>
<trkpt lat="40.0728141" lon="-105.230677">
  <ele>1595.37</ele>
  <time>2026-08-27T18:29:05Z</time>
  <course>98.58</course>
  <speed>0.02</speed>
  <fix>3d</fix>
</trkpt>
<trkpt lat="40.0728142" lon="-105.2306771">
  <ele>1595.46</ele>
  <time>2026-08-27T18:29:05Z</time>
  <course>14.03</course>
  <speed>0.0</speed>
  <fix>3d</fix>
</trkpt>
<trkpt lat="40.0728141" lon="-105.230677">
  <ele>1595.37</ele>
  <time>2026-08-27T18:29:05Z</time>
  <course>104.82</course>
  <speed>0.02</speed>
  <fix>3d</fix>
</trkpt>
<trkpt lat="40.0728142" lon="-105.2306771">
  <ele>1595.46</ele>
  <time>2026-08-27T18:29:05Z</time>
  <course>14.05</course>
  <speed>0.0</speed>
  <fix>3d</fix>
</trkpt>
<trkpt lat="40.0728141" lon="-105.2306769">
  <ele>1595.37</ele>
  <time>2026-08-27T18:29:05Z</time>
  <course>108.26</course>
  <speed>0.02</speed>
  <fix>3d</fix>
</trkpt>
<trkpt lat="40.0728142" lon="-105.230677">
  <ele>1595.46</ele>
  <time>2026-08-27T18:29:05Z</time>
  <course>14.06</course>
  <speed>0.0</speed>
  <fix>3d</fix>
</trkpt>
<trkpt lat="40.0728141" lon="-105.2306768">
  <ele>1595.37</ele>
  <time>2026-08-27T18:29:05Z</time>
  <course>110.65</course>
  <speed>0.02</speed>
  <fix>3d</fix>
</trkpt>
<trkpt lat="40.0728142" lon="-105.2306769">
  <ele>1595.46</ele>
  <time>2026-08-27T18:29:05Z</time>
  <course>14.07</course>
  <speed>0.0</speed>
  <fix>3d</fix>
</trkpt>
<trkpt lat="40.0728141" lon="-105.2306768">
  <ele>1595.37</ele>
  <time>2026-08-27T18:29:05Z</time>
  <course>113.23</course>
  <speed>0.02</speed>
  <fix>3d</fix>
</trkpt>
<trkpt lat="40.0728142" lon="-105.2306769">
  <ele>1595.46</ele>
  <time>2026-08-27T18:29:05Z</time>
  <course>14.09</course>
  <speed>0.0</speed>
  <fix>3d</fix>
</trkpt>
<trkpt lat="40.0728141" lon="-105.2306767">
  <ele>1595.38</ele>
  <time>2026-08-27T18:29:05Z</time>
  <course>116.35</course>
  <speed>0.02</speed>
  <fix>3d</fix>
</trkpt>
<trkpt lat="40.0728142" lon="-105.2306768">
  <ele>1595.47</ele>
  <time>2026-08-27T18:29:05Z</time>
  <course>14.1</course>
  <speed>0.0</speed>
  <fix>3d</fix>
</trkpt>
<trkpt lat="40.0728141" lon="-105.2306766">
  <ele>1595.38</ele>
  <time>2026-08-27T18:29:05Z</time>
  <course>119.67</course>
  <speed>0.02</speed>
  <fix>3d</fix>
</trkpt>
<trkpt lat="40.0728142" lon="-105.2306768">
  <ele>1595.48</ele>
  <time>2026-08-27T18:29:05Z</time>
  <course>14.12</course>
  <speed>0.01</speed>
  <fix>3d</fix>
</trkpt>
<trkpt lat="40.0728141" lon="-105.2306766">
  <ele>1595.38</ele>
  <time>2026-08-27T18:29:05Z</time>
  <course>123.02</course>
  <speed>0.02</speed>
  <fix>3d</fix>
</trkpt>
<trkpt lat="40.0728142" lon="-105.2306767">
  <ele>1595.48</ele>
  <time>2026-08-27T18:29:05Z</time>
  <course>14.14</course>
  <speed>0.0</speed>
  <fix>3d</fix>
</trkpt>
<trkpt lat="40.072814" lon="-105.2306766">
  <ele>1595.38</ele>
  <time>2026-08-27T18:29:05Z</time>
  <course>126.31</course>
  <speed>0.02</speed>
  <fix>3d</fix>
</trkpt>
<trkpt lat="40.0728141" lon="-105.2306767">
  <ele>1595.48</ele>
  <time>2026-08-27T18:29:05Z</time>
  <course>14.08</course>
  <speed>0.0</speed>
  <fix>3d</fix>
</trkpt>
<trkpt lat="40.072814" lon="-105.2306765">
  <ele>1595.38</ele>
  <time>2026-08-27T18:29:05Z</time>
  <course>138.28</course>
  <speed>0.02</speed>
  <fix>3d</fix>
</trkpt>
<trkpt lat="40.0728141" lon="-105.2306766">
  <ele>1595.48</ele>
  <time>2026-08-27T18:29:05Z</time>
  <course>14.1</course>
  <speed>0.0</speed>
  <fix>3d</fix>
</trkpt>
<trkpt lat="40.072814" lon="-105.2306765">
  <ele>1595.38</ele>
  <time>2026-08-27T18:29:05Z</time>
  <course>140.51</course>
  <speed>0.02</speed>
  <fix>3d</fix>
</trkpt>
<trkpt lat="40.0728141" lon="-105.2306766">
  <ele>1595.48</ele>
  <time>2026-08-27T18:29:05Z</time>
  <course>14.08</course>
  <speed>0.01</speed>
  <fix>3d</fix>
</trkpt>
<trkpt lat="40.072814" lon="-105.2306765">
  <ele>1595.38</ele>
  <time>2026-08-27T18:29:05Z</time>
  <course>131.07</course>
  <speed>0.02</speed>
  <fix>3d</fix>
</trkpt>
<trkpt lat="40.0728141" lon="-105.2306765">
  <ele>1595.48</ele>
  <time>2026-08-27T18:29:05Z</time>
  <course>14.08</course>
  <speed>0.01</speed>
  <fix>3d</fix>
</trkpt>
<trkpt lat="40.072814" lon="-105.2306764">
  <ele>1595.38</ele>
  <time>2026-08-27T18:29:05Z</time>
  <course>123.78</course>
  <speed>0.02</speed>
  <fix>3d</fix>
</trkpt>
<trkpt lat="40.0728141" lon="-105.2306765">
  <ele>1595.47</ele>
  <time>2026-08-27T18:29:05Z</time>
  <course>14.09</course>
  <speed>0.01</speed>
  <fix>3d</fix>
</trkpt>
<trkpt lat="40.072814" lon="-105.2306763">
  <ele>1595.37</ele>
  <time>2026-08-27T18:29:05Z</time>
  <course>116.31</course>
  <speed>0.02</speed>
  <fix>3d</fix>
</trkpt>
<trkpt lat="40.0728141" lon="-105.2306764">
  <ele>1595.48</ele>
  <time>2026-08-27T18:29:05Z</time>
  <course>14.09</course>
  <speed>0.01414213562373095</speed>
  <fix>3d</fix>
</trkpt>
<trkpt lat="40.0728139" lon="-105.2306763">
  <ele>1595.37</ele>
  <time>2026-08-27T18:29:05Z</time>
  <course>111.63</course>
  <speed>0.02</speed>
  <fix>3d</fix>
</trkpt>
<trkpt lat="40.072814" lon="-105.2306763">
  <ele>1595.47</ele>
  <time>2026-08-27T18:29:05Z</time>
  <course>14.09</course>
  <speed>0.01414213562373095</speed>
  <fix>3d</fix>
</trkpt>
<trkpt lat="40.0728139" lon="-105.2306762">
  <ele>1595.37</ele>
  <time>2026-08-27T18:29:05Z</time>
  <course>108.36</course>
  <speed>0.02</speed>
  <fix>3d</fix>
</trkpt>
<trkpt lat="40.072814" lon="-105.2306763">
  <ele>1595.47</ele>
  <time>2026-08-27T18:29:05Z</time>
  <course>14.08</course>
  <speed>0.01414213562373095</speed>
  <fix>3d</fix>
</trkpt>
<trkpt lat="40.0728139" lon="-105.2306761">
  <ele>1595.37</ele>
  <time>2026-08-27T18:29:05Z</time>
  <course>106.2</course>
  <speed>0.02</speed>
  <fix>3d</fix>
</trkpt>
<trkpt lat="40.072814" lon="-105.2306762">
  <ele>1595.46</ele>
  <time>2026-08-27T18:29:05Z</time>
  <course>14.07</course>
  <speed>0.01414213562373095</speed>
  <fix>3d</fix>
</trkpt>
<trkpt lat="40.0728139" lon="-105.2306761">
  <ele>1595.37</ele>
  <time>2026-08-27T18:29:05Z</time>
  <course>105.43</course>
  <speed>0.02</speed>
  <fix>3d</fix>
</trkpt>
<trkpt lat="40.072814" lon="-105.2306761">
  <ele>1595.46</ele>
  <time>2026-08-27T18:29:05Z</time>
  <course>14.07</course>
  <speed>0.01414213562373095</speed>
  <fix>3d</fix>
</trkpt>
<trkpt lat="40.0728139" lon="-105.230676">
  <ele>1595.37</ele>
  <time>2026-08-27T18:29:05Z</time>
  <course>104.81</course>
  <speed>0.02</speed>
  <fix>3d</fix>
</trkpt>
<trkpt lat="40.072814" lon="-105.2306761">
  <ele>1595.46</ele>
  <time>2026-08-27T18:29:05Z</time>
  <course>14.07</course>
  <speed>0.01414213562373095</speed>
  <fix>3d</fix>
</trkpt>
<trkpt lat="40.0728139" lon="-105.2306759">
  <ele>1595.37</ele>
  <time>2026-08-27T18:29:05Z</time>
  <course>104.2</course>
  <speed>0.02</speed>
  <fix>3d</fix>
</trkpt>
<trkpt lat="40.072814" lon="-105.230676">
  <ele>1595.47</ele>
  <time>2026-08-27T18:29:05Z</time>
  <course>14.07</course>
  <speed>0.01414213562373095</speed>
  <fix>3d</fix>
</trkpt>
<trkpt lat="40.0728139" lon="-105.2306759">
  <ele>1595.37</ele>
  <time>2026-08-27T18:29:05Z</time>
  <course>103.71</course>
  <speed>0.03</speed>
  <fix>3d</fix>
</trkpt>
<trkpt lat="40.072814" lon="-105.2306759">
  <ele>1595.46</ele>
  <time>2026-08-27T18:29:05Z</time>
  <course>14.07</course>
  <speed>0.01414213562373095</speed>
  <fix>3d</fix>
</trkpt>
<trkpt lat="40.0728138" lon="-105.2306758">
  <ele>1595.37</ele>
  <time>2026-08-27T18:29:05Z</time>
  <course>103.58</course>
  <speed>0.03</speed>
  <fix>3d</fix>
</trkpt>
<trkpt lat="40.072814" lon="-105.2306759">
  <ele>1595.46</ele>
  <time>2026-08-27T18:29:05Z</time>
  <course>14.07</course>
  <speed>0.01414213562373095</speed>
  <fix>3d</fix>
</trkpt>
<trkpt lat="40.0728138" lon="-105.2306757">
  <ele>1595.37</ele>
  <time>2026-08-27T18:29:05Z</time>
  <course>104.13</course>
  <speed>0.02</speed>
  <fix>3d</fix>
</trkpt>
<trkpt lat="40.072814" lon="-105.2306758">
  <ele>1595.45</ele>
  <time>2026-08-27T18:29:05Z</time>
  <course>14.06</course>
  <speed>0.01414213562373095</speed>
  <fix>3d</fix>
</trkpt>
<trkpt lat="40.0728138" lon="-105.2306756">
  <ele>1595.37</ele>
  <time>2026-08-27T18:29:05Z</time>
  <course>105.32</course>
  <speed>0.03</speed>
  <fix>3d</fix>
</trkpt>
<trkpt lat="40.072814" lon="-105.2306757">
  <ele>1595.45</ele>
  <time>2026-08-27T18:29:05Z</time>
  <course>14.06</course>
  <speed>0.01414213562373095</speed>
  <fix>3d</fix>
</trkpt>
<trkpt lat="40.0728138" lon="-105.2306756">
  <ele>1595.37</ele>
  <time>2026-08-27T18:29:05Z</time>
  <course>107.51</course>
  <speed>0.03</speed>
  <fix>3d</fix>
</trkpt>
<trkpt lat="40.072814" lon="-105.2306757">
  <ele>1595.45</ele>
  <time>2026-08-27T18:29:05Z</time>
  <course>14.05</course>
  <speed>0.022360679774997897</speed>
  <fix>3d</fix>
</trkpt>
<trkpt lat="40.0728138" lon="-105.2306755">
  <ele>1595.37</ele>
  <time>2026-08-27T18:29:05Z</time>
  <course>104.85</course>
  <speed>0.03</speed>
  <fix>3d</fix>
</trkpt>
<trkpt lat="40.0728139" lon="-105.2306756">
  <ele>1595.46</ele>
  <time>2026-08-27T18:29:05Z</time>
  <course>14.13</course>
  <speed>0.03605551275463989</speed>
  <fix>3d</fix>
</trkpt>
<trkpt lat="40.0728138" lon="-105.2306754">
  <ele>1595.37</ele>
  <time>2026-08-27T18:29:05Z</time>
  <course>86.97</course>
  <speed>0.03</speed>
  <fix>3d</fix>
</trkpt>
<trkpt lat="40.0728139" lon="-105.2306755">
  <ele>1595.46</ele>
  <time>2026-08-27T18:29:05Z</time>
  <course>14.14</course>
  <speed>0.03605551275463989</speed>
  <fix>3d</fix>
</trkpt>
<trkpt lat="40.0728138" lon="-105.2306754">
  <ele>1595.38</ele>
  <time>2026-08-27T18:29:05Z</time>
  <course>75.18</course>
  <speed>0.03</speed>
  <fix>3d</fix>
</trkpt>
<trkpt lat="40.0728139" lon="-105.2306754">
  <ele>1595.47</ele>
  <time>2026-08-27T18:29:05Z</time>
  <course>14.12</course>
  <speed>0.022360679774997897</speed>
  <fix>3d</fix>
</trkpt>
<trkpt lat="40.0728138" lon="-105.2306753">
  <ele>1595.38</ele>
  <time>2026-08-27T18:29:05Z</time>
  <course>73.94</course>
  <speed>0.02</speed>
  <fix>3d</fix>
</trkpt>
<trkpt lat="40.0728139" lon="-105.2306754">
  <ele>1595.47</ele>
  <time>2026-08-27T18:29:05Z</time>
  <course>14.09</course>
  <speed>0.01</speed>
  <fix>3d</fix>
</trkpt>
<trkpt lat="40.0728138" lon="-105.2306753">
  <ele>1595.38</ele>
  <time>2026-08-27T18:29:05Z</time>
  <course>84.37</course>
  <speed>0.02</speed>
  <fix>3d</fix>
</trkpt>
<trkpt lat="40.0728139" lon="-105.2306753">
  <ele>1595.47</ele>
  <time>2026-08-27T18:29:05Z</time>
  <course>14.08</course>
  <speed>0.01</speed>
  <fix>3d</fix>
</trkpt>
<trkpt lat="40.0728138" lon="-105.2306752">
  <ele>1595.38</ele>
  <time>2026-08-27T18:29:05Z</time>
  <course>103.76</course>
  <speed>0.01</speed>
  <fix>3d</fix>
</trkpt>
<trkpt lat="40.0728139" lon="-105.2306753">
  <ele>1595.47</ele>
  <time>2026-08-27T18:29:05Z</time>
  <course>14.11</course>
  <speed>0.0</speed>
  <fix>3d</fix>
</trkpt>
<trkpt lat="40.0728138" lon="-105.2306751">
  <ele>1595.39</ele>
  <time>2026-08-27T18:29:05Z</time>
  <course>118.39</course>
  <speed>0.02</speed>
  <fix>3d</fix>
</trkpt>
<trkpt lat="40.0728139" lon="-105.2306753">
  <ele>1595.47</ele>
  <time>2026-08-27T18:29:05Z</time>
  <course>14.14</course>
  <speed>0.0</speed>
  <fix>3d</fix>
</trkpt>
<trkpt lat="40.0728138" lon="-105.2306751">
  <ele>1595.39</ele>
  <time>2026-08-27T18:29:05Z</time>
  <course>125.93</course>
  <speed>0.02</speed>
  <fix>3d</fix>
</trkpt>
<trkpt lat="40.0728139" lon="-105.2306752">
  <ele>1595.48</ele>
  <time>2026-08-27T18:29:05Z</time>
  <course>14.17</course>
  <speed>0.0</speed>
  <fix>3d</fix>
</trkpt>
<trkpt lat="40.0728137" lon="-105.2306751">
  <ele>1595.39</ele>
  <time>2026-08-27T18:29:05Z</time>
  <course>131.03</course>
  <speed>0.02</speed>
  <fix>3d</fix>
</trkpt>
<trkpt lat="40.0728139" lon="-105.2306752">
  <ele>1595.48</ele>
  <time>2026-08-27T18:29:05Z</time>
  <course>14.18</course>
  <speed>0.0</speed>
  <fix>3d</fix>
</trkpt>
<trkpt lat="40.0728137" lon="-105.230675">
  <ele>1595.39</ele>
  <time>2026-08-27T18:29:05Z</time>
  <course>135.6</course>
  <speed>0.03</speed>
  <fix>3d</fix>
</trkpt>
<trkpt lat="40.0728138" lon="-105.2306751">
  <ele>1595.47</ele>
  <time>2026-08-27T18:29:05Z</time>
  <course>14.17</course>
  <speed>0.0</speed>
  <fix>3d</fix>
</trkpt>
<trkpt lat="40.0728137" lon="-105.2306749">
  <ele>1595.38</ele>
  <time>2026-08-27T18:29:05Z</time>
  <course>139.81</course>
  <speed>0.02</speed>
  <fix>3d</fix>
</trkpt>
<trkpt lat="40.0728138" lon="-105.2306751">
  <ele>1595.47</ele>
  <time>2026-08-27T18:29:05Z</time>
  <course>14.12</course>
  <speed>0.0</speed>
  <fix>3d</fix>
</trkpt>
<trkpt lat="40.0728136" lon="-105.2306749">
  <ele>1595.38</ele>
  <time>2026-08-27T18:29:05Z</time>
  <course>142.43</course>
  <speed>0.02</speed>
  <fix>3d</fix>
</trkpt>
<trkpt lat="40.0728138" lon="-105.230675">
  <ele>1595.47</ele>
  <time>2026-08-27T18:29:05Z</time>
  <course>14.09</course>
  <speed>0.0</speed>
  <fix>3d</fix>
</trkpt>
<trkpt lat="40.0728135" lon="-105.2306749">
  <ele>1595.38</ele>
  <time>2026-08-27T18:29:05Z</time>
  <course>142.31</course>
  <speed>0.02</speed>
  <fix>3d</fix>
</trkpt>
<trkpt lat="40.0728137" lon="-105.230675">
  <ele>1595.48</ele>
  <time>2026-08-27T18:29:05Z</time>
  <course>14.09</course>
  <speed>0.0</speed>
  <fix>3d</fix>
</trkpt>
<trkpt lat="40.0728135" lon="-105.2306748">
  <ele>1595.38</ele>
  <time>2026-08-27T18:29:05Z</time>
  <course>140.04</course>
  <speed>0.02</speed>
  <fix>3d</fix>
</trkpt>
<trkpt lat="40.0728137" lon="-105.2306749">
  <ele>1595.48</ele>
  <time>2026-08-27T18:29:05Z</time>
  <course>14.13</course>
  <speed>0.0</speed>
  <fix>3d</fix>
</trkpt>
<trkpt lat="40.0728134" lon="-105.2306747">
  <ele>1595.38</ele>
  <time>2026-08-27T18:29:05Z</time>
  <course>137.77</course>
  <speed>0.03</speed>
  <fix>3d</fix>
</trkpt>
<trkpt lat="40.0728136" lon="-105.2306749">
  <ele>1595.48</ele>
  <time>2026-08-27T18:29:05Z</time>
  <course>14.17</course>
  <speed>0.0</speed>
  <fix>3d</fix>
</trkpt>
<trkpt lat="40.0728134" lon="-105.2306747">
  <ele>1595.38</ele>
  <time>2026-08-27T18:29:05Z</time>
  <course>137.05</course>
  <speed>0.03</speed>
  <fix>3d</fix>
</trkpt>
<trkpt lat="40.0728136" lon="-105.2306748">
  <ele>1595.47</ele>
  <time>2026-08-27T18:29:05Z</time>
  <course>14.18</course>
  <speed>0.0</speed>
  <fix>3d</fix>
</trkpt>
<trkpt lat="40.0728134" lon="-105.2306747">
  <ele>1595.38</ele>
  <time>2026-08-27T18:29:05Z</time>
  <course>138.82</course>
  <speed>0.03</speed>
  <fix>3d</fix>
</trkpt>
<trkpt lat="40.0728135" lon="-105.2306748">
  <ele>1595.48</ele>
  <time>2026-08-27T18:29:05Z</time>
  <course>14.09</course>
  <speed>0.01</speed>
  <fix>3d</fix>
</trkpt>
<trkpt lat="40.0728134" lon="-105.2306747">
  <ele>1595.38</ele>
  <time>2026-08-27T18:29:05Z</time>
  <course>152.89</course>
  <speed>0.03</speed>
  <fix>3d</fix>
</trkpt>
<trkpt lat="40.0728134" lon="-105.2306748">
  <ele>1595.48</ele>
  <time>2026-08-27T18:29:05Z</time>
  <course>14.09</course>
  <speed>0.01</speed>
  <fix>3d</fix>
</trkpt>
<trkpt lat="40.0728133" lon="-105.2306746">
  <ele>1595.37</ele>
  <time>2026-08-27T18:29:05Z</time>
  <course>157.64</course>
  <speed>0.03</speed>
  <fix>3d</fix>
</trkpt>
<trkpt lat="40.0728134" lon="-105.2306747">
  <ele>1595.48</ele>
  <time>2026-08-27T18:29:05Z</time>
  <course>14.09</course>
  <speed>0.01</speed>
  <fix>3d</fix>
</trkpt>
<trkpt lat="40.0728132" lon="-105.2306746">
  <ele>1595.37</ele>
  <time>2026-08-27T18:29:05Z</time>
  <course>150.01</course>
  <speed>0.03</speed>
  <fix>3d</fix>
</trkpt>
<trkpt lat="40.0728133" lon="-105.2306747">
  <ele>1595.48</ele>
  <time>2026-08-27T18:29:05Z</time>
  <course>14.08</course>
  <speed>0.0</speed>
  <fix>3d</fix>
</trkpt>
<trkpt lat="40.0728132" lon="-105.2306745">
  <ele>1595.37</ele>
  <time>2026-08-27T18:29:05Z</time>
  <course>145.74</course>
  <speed>0.03</speed>
  <fix>3d</fix>
</trkpt>
<trkpt lat="40.0728133" lon="-105.2306746">
  <ele>1595.47</ele>
  <time>2026-08-27T18:29:05Z</time>
  <course>14.1</course>
  <speed>0.0</speed>
  <fix>3d</fix>
</trkpt>
<trkpt lat="40.0728131" lon="-105.2306744">
  <ele>1595.37</ele>
  <time>2026-08-27T18:29:05Z</time>
  <course>140.96</course>
  <speed>0.03</speed>
  <fix>3d</fix>
</trkpt>
<trkpt lat="40.0728132" lon="-105.2306746">
  <ele>1595.47</ele>
  <time>2026-08-27T18:29:05Z</time>
  <course>14.09</course>
  <speed>0.0</speed>
  <fix>3d</fix>
</trkpt>
<trkpt lat="40.0728131" lon="-105.2306744">
  <ele>1595.37</ele>
  <time>2026-08-27T18:29:05Z</time>
  <course>137.47</course>
  <speed>0.03</speed>
  <fix>3d</fix>
</trkpt>
<trkpt lat="40.0728132" lon="-105.2306745">
  <ele>1595.47</ele>
  <time>2026-08-27T18:29:05Z</time>
  <course>14.09</course>
  <speed>0.01</speed>
  <fix>3d</fix>
</trkpt>
<trkpt lat="40.0728131" lon="-105.2306744">
  <ele>1595.37</ele>
  <time>2026-08-27T18:29:05Z</time>
  <course>134.56</course>
  <speed>0.03</speed>
  <fix>3d</fix>
</trkpt>
<trkpt lat="40.0728132" lon="-105.2306744">
  <ele>1595.46</ele>
  <time>2026-08-27T18:29:05Z</time>
  <course>14.09</course>
  <speed>0.01</speed>
  <fix>3d</fix>
</trkpt>
<trkpt lat="40.072813" lon="-105.2306743">
  <ele>1595.36</ele>
  <time>2026-08-27T18:29:05Z</time>
  <course>131.34</course>
  <speed>0.03</speed>
  <fix>3d</fix>
</trkpt>
<trkpt lat="40.0728131" lon="-105.2306744">
  <ele>1595.46</ele>
  <time>2026-08-27T18:29:05Z</time>
  <course>14.09</course>
  <speed>0.01</speed>
  <fix>3d</fix>
</trkpt>
<trkpt lat="40.0728129" lon="-105.2306742">
  <ele>1595.36</ele>
  <time>2026-08-27T18:29:05Z</time>
  <course>128.25</course>
  <speed>0.03</speed>
  <fix>3d</fix>
</trkpt>
<trkpt lat="40.0728131" lon="-105.2306743">
  <ele>1595.46</ele>
  <time>2026-08-27T18:29:05Z</time>
  <course>14.09</course>
  <speed>0.01</speed>
  <fix>3d</fix>
</trkpt>
<trkpt lat="40.0728129" lon="-105.2306742">
  <ele>1595.36</ele>
  <time>2026-08-27T18:29:05Z</time>
  <course>125.22</course>
  <speed>0.03</speed>
  <fix>3d</fix>
</trkpt>
<trkpt lat="40.0728131" lon="-105.2306743">
  <ele>1595.46</ele>
  <time>2026-08-27T18:29:05Z</time>
  <course>14.08</course>
  <speed>0.01</speed>
  <fix>3d</fix>
</trkpt>
<trkpt lat="40.0728128" lon="-105.2306742">
  <ele>1595.36</ele>
  <time>2026-08-27T18:29:05Z</time>
  <course>122.23</course>
  <speed>0.03</speed>
  <fix>3d</fix>
</trkpt>
<trkpt lat="40.072813" lon="-105.2306742">
  <ele>1595.46</ele>
  <time>2026-08-27T18:29:05Z</time>
  <course>14.08</course>
  <speed>0.01</speed>
  <fix>3d</fix>
</trkpt>
<trkpt lat="40.0728128" lon="-105.2306741">
  <ele>1595.36</ele>
  <time>2026-08-27T18:29:05Z</time>
  <course>119.68</course>
  <speed>0.03</speed>
  <fix>3d</fix>
</trkpt>
<trkpt lat="40.072813" lon="-105.2306741">
  <ele>1595.46</ele>
  <time>2026-08-27T18:29:05Z</time>
  <course>14.08</course>
  <speed>0.01</speed>
  <fix>3d</fix>
</trkpt>
<trkpt lat="40.0728128" lon="-105.230674">
  <ele>1595.36</ele>
  <time>2026-08-27T18:29:05Z</time>
  <course>117.82</course>
  <speed>0.03</speed>
  <fix>3d</fix>
</trkpt>
<trkpt lat="40.072813" lon="-105.2306741">
  <ele>1595.46</ele>
  <time>2026-08-27T18:29:05Z</time>
  <course>14.08</course>
  <speed>0.01</speed>
  <fix>3d</fix>
</trkpt>
<trkpt lat="40.0728128" lon="-105.2306739">
  <ele>1595.36</ele>
  <time>2026-08-27T18:29:05Z</time>
  <course>116.73</course>
  <speed>0.03</speed>
  <fix>3d</fix>
</trkpt>
<trkpt lat="40.0728129" lon="-105.230674">
  <ele>1595.46</ele>
  <time>2026-08-27T18:29:05Z</time>
  <course>14.07</course>
  <speed>0.01</speed>
  <fix>3d</fix>
</trkpt>
<trkpt lat="40.0728128" lon="-105.2306739">
  <ele>1595.37</ele>
  <time>2026-08-27T18:29:05Z</time>
  <course>116.51</course>
  <speed>0.03</speed>
  <fix>3d</fix>
</trkpt>
<trkpt lat="40.0728129" lon="-105.230674">
  <ele>1595.46</ele>
  <time>2026-08-27T18:29:05Z</time>
  <course>14.06</course>
  <speed>0.01</speed>
  <fix>3d</fix>
</trkpt>
<trkpt lat="40.0728128" lon="-105.2306738">
  <ele>1595.37</ele>
  <time>2026-08-27T18:29:05Z</time>
  <course>117.56</course>
  <speed>0.03</speed>
  <fix>3d</fix>
</trkpt>
<trkpt lat="40.0728129" lon="-105.2306739">
  <ele>1595.46</ele>
  <time>2026-08-27T18:29:05Z</time>
  <course>14.04</course>
  <speed>0.022360679774997897</speed>
  <fix>3d</fix>
</trkpt>
<trkpt lat="40.0728128" lon="-105.2306737">
  <ele>1595.37</ele>
  <time>2026-08-27T18:29:05Z</time>
  <course>112.3</course>
  <speed>0.02</speed>
  <fix>3d</fix>
</trkpt>
<trkpt lat="40.0728129" lon="-105.2306738">
  <ele>1595.46</ele>
  <time>2026-08-27T18:29:05Z</time>
  <course>14.18</course>
  <speed>0.03605551275463989</speed>
  <fix>3d</fix>
</trkpt>
<trkpt lat="40.0728128" lon="-105.2306737">
  <ele>1595.37</ele>
  <time>2026-08-27T18:29:05Z</time>
  <course>86.64</course>
  <speed>0.03</speed>
  <fix>3d</fix>
</trkpt>
<trkpt lat="40.072813" lon="-105.2306737">
  <ele>1595.46</ele>
  <time>2026-08-27T18:29:05Z</time>
  <course>14.16</course>
  <speed>0.0316227766016838</speed>
  <fix>3d</fix>
</trkpt>
<trkpt lat="40.0728128" lon="-105.2306736">
  <ele>1595.37</ele>
  <time>2026-08-27T18:29:05Z</time>
  <course>68.23</course>
  <speed>0.03</speed>
  <fix>3d</fix>
</trkpt>
<trkpt lat="40.072813" lon="-105.2306737">
  <ele>1595.46</ele>
  <time>2026-08-27T18:29:05Z</time>
  <course>14.2</course>
  <speed>0.02</speed>
  <fix>3d</fix>
</trkpt>
<trkpt lat="40.0728128" lon="-105.2306735">
  <ele>1595.38</ele>
  <time>2026-08-27T18:29:05Z</time>
  <course>68.72</course>
  <speed>0.02</speed>
  <fix>3d</fix>
</trkpt>
<trkpt lat="40.072813" lon="-105.2306736">
  <ele>1595.46</ele>
  <time>2026-08-27T18:29:05Z</time>
  <course>14.32</course>
  <speed>0.01414213562373095</speed>
  <fix>3d</fix>
</trkpt>
<trkpt lat="40.0728128" lon="-105.2306735">
  <ele>1595.38</ele>
  <time>2026-08-27T18:29:05Z</time>
  <course>89.52</course>
  <speed>0.02</speed>
  <fix>3d</fix>
</trkpt>
<trkpt lat="40.072813" lon="-105.2306736">
  <ele>1595.47</ele>
  <time>2026-08-27T18:29:05Z</time>
  <course>14.27</course>
  <speed>0.01</speed>
  <fix>3d</fix>
</trkpt>
<trkpt lat="40.0728128" lon="-105.2306734">
  <ele>1595.38</ele>
  <time>2026-08-27T18:29:05Z</time>
  <course>100.02</course>
  <speed>0.02</speed>
  <fix>3d</fix>
</trkpt>
<trkpt lat="40.0728129" lon="-105.2306735">
  <ele>1595.47</ele>
  <time>2026-08-27T18:29:05Z</time>
  <course>14.19</course>
  <speed>0.0</speed>
  <fix>3d</fix>
</trkpt>
<trkpt lat="40.0728128" lon="-105.2306734">
  <ele>1595.39</ele>
  <time>2026-08-27T18:29:05Z</time>
  <course>130.95</course>
  <speed>0.01</speed>
  <fix>3d</fix>
</trkpt>
<trkpt lat="40.0728129" lon="-105.2306735">
  <ele>1595.47</ele>
  <time>2026-08-27T18:29:05Z</time>
  <course>14.32</course>
  <speed>0.0</speed>
  <fix>3d</fix>
</trkpt>
<trkpt lat="40.0728128" lon="-105.2306734">
  <ele>1595.39</ele>
  <time>2026-08-27T18:29:05Z</time>
  <course>132.87</course>
  <speed>0.02</speed>
  <fix>3d</fix>
</trkpt>
<trkpt lat="40.0728129" lon="-105.2306734">
  <ele>1595.48</ele>
  <time>2026-08-27T18:29:05Z</time>
  <course>14.34</course>
  <speed>0.01</speed>
  <fix>3d</fix>
</trkpt>
<trkpt lat="40.0728127" lon="-105.2306733">
  <ele>1595.39</ele>
  <time>2026-08-27T18:29:05Z</time>
  <course>130.49</course>
  <speed>0.03</speed>
  <fix>3d</fix>
</trkpt>
<trkpt lat="40.0728128" lon="-105.2306734">
  <ele>1595.48</ele>
  <time>2026-08-27T18:29:05Z</time>
  <course>14.19</course>
  <speed>0.0</speed>
  <fix>3d</fix>
</trkpt>
<trkpt lat="40.0728127" lon="-105.2306732">
  <ele>1595.39</ele>
  <time>2026-08-27T18:29:05Z</time>
  <course>144.77</course>
  <speed>0.02</speed>
  <fix>3d</fix>
</trkpt>
<trkpt lat="40.0728128" lon="-105.2306734">
  <ele>1595.49</ele>
  <time>2026-08-27T18:29:05Z</time>
  <course>14.31</course>
  <speed>0.0</speed>
  <fix>3d</fix>
</trkpt>
<trkpt lat="40.0728126" lon="-105.2306732">
  <ele>1595.39</ele>
  <time>2026-08-27T18:29:05Z</time>
  <course>144.24</course>
  <speed>0.03</speed>
  <fix>3d</fix>
</trkpt>
<trkpt lat="40.0728128" lon="-105.2306733">
  <ele>1595.49</ele>
  <time>2026-08-27T18:29:05Z</time>
  <course>14.38</course>
  <speed>0.01</speed>
  <fix>3d</fix>
</trkpt>
<trkpt lat="40.0728126" lon="-105.2306732">
  <ele>1595.39</ele>
  <time>2026-08-27T18:29:05Z</time>
  <course>135.7</course>
  <speed>0.03</speed>
  <fix>3d</fix>
</trkpt>
<trkpt lat="40.0728127" lon="-105.2306733">
  <ele>1595.49</ele>
  <time>2026-08-27T18:29:05Z</time>
  <course>14.24</course>
  <speed>0.0</speed>
  <fix>3d</fix>
</trkpt>
<trkpt lat="40.0728125" lon="-105.2306731">
  <ele>1595.38</ele>
  <time>2026-08-27T18:29:05Z</time>
  <course>144.11</course>
  <speed>0.02</speed>
  <fix>3d</fix>
</trkpt>
<trkpt lat="40.0728127" lon="-105.2306732">
  <ele>1595.48</ele>
  <time>2026-08-27T18:29:05Z</time>
  <course>14.29</course>
  <speed>0.0</speed>
  <fix>3d</fix>
</trkpt>
<trkpt lat="40.0728125" lon="-105.230673">
  <ele>1595.38</ele>
  <time>2026-08-27T18:29:05Z</time>
  <course>149.99</course>
  <speed>0.03</speed>
  <fix>3d</fix>
</trkpt>
<trkpt lat="40.0728126" lon="-105.2306732">
  <ele>1595.48</ele>
  <time>2026-08-27T18:29:05Z</time>
  <course>14.37</course>
  <speed>0.01414213562373095</speed>
  <fix>3d</fix>
</trkpt>
<trkpt lat="40.0728125" lon="-105.230673">
  <ele>1595.38</ele>
  <time>2026-08-27T18:29:05Z</time>
  <course>139.44</course>
  <speed>0.03</speed>
  <fix>3d</fix>
</trkpt>
<trkpt lat="40.0728126" lon="-105.2306731">
  <ele>1595.47</ele>
  <time>2026-08-27T18:29:05Z</time>
  <course>14.27</course>
  <speed>0.0</speed>
  <fix>3d</fix>
</trkpt>
<trkpt lat="40.0728124" lon="-105.230673">
  <ele>1595.37</ele>
  <time>2026-08-27T18:29:05Z</time>
  <course>141.7</course>
  <speed>0.03</speed>
  <fix>3d</fix>
</trkpt>
<trkpt lat="40.0728125" lon="-105.2306731">
  <ele>1595.47</ele>
  <time>2026-08-27T18:29:05Z</time>
  <course>14.21</course>
  <speed>0.0</speed>
  <fix>3d</fix>
</trkpt>
<trkpt lat="40.0728123" lon="-105.2306729">
  <ele>1595.37</ele>
  <time>2026-08-27T18:29:05Z</time>
  <course>152.18</course>
  <speed>0.03</speed>
  <fix>3d</fix>
</trkpt>
<trkpt lat="40.0728125" lon="-105.230673">
  <ele>1595.47</ele>
  <time>2026-08-27T18:29:05Z</time>
  <course>14.31</course>
  <speed>0.01</speed>
  <fix>3d</fix>
</trkpt>
<trkpt lat="40.0728123" lon="-105.2306729">
  <ele>1595.37</ele>
  <time>2026-08-27T18:29:05Z</time>
  <course>142.64</course>
  <speed>0.03</speed>
  <fix>3d</fix>
</trkpt>
<trkpt lat="40.0728124" lon="-105.230673">
  <ele>1595.47</ele>
  <time>2026-08-27T18:29:05Z</time>
  <course>14.29</course>
  <speed>0.01</speed>
  <fix>3d</fix>
</trkpt>
<trkpt lat="40.0728122" lon="-105.2306729">
  <ele>1595.37</ele>
  <time>2026-08-27T18:29:05Z</time>
  <course>139.18</course>
  <speed>0.03</speed>
  <fix>3d</fix>
</trkpt>
<trkpt lat="40.0728124" lon="-105.230673">
  <ele>1595.47</ele>
  <time>2026-08-27T18:29:05Z</time>
  <course>14.17</course>
  <speed>0.0</speed>
  <fix>3d</fix>
</trkpt>
<trkpt lat="40.0728122" lon="-105.2306728">
  <ele>1595.37</ele>
  <time>2026-08-27T18:29:05Z</time>
  <course>151.79</course>
  <speed>0.02</speed>
  <fix>3d</fix>
</trkpt>
<trkpt lat="40.0728123" lon="-105.2306729">
  <ele>1595.47</ele>
  <time>2026-08-27T18:29:05Z</time>
  <course>14.26</course>
  <speed>0.02</speed>
  <fix>3d</fix>
</trkpt>
<trkpt lat="40.0728122" lon="-105.2306727">
  <ele>1595.37</ele>
  <time>2026-08-27T18:29:05Z</time>
  <course>150.18</course>
  <speed>0.03</speed>
  <fix>3d</fix>
</trkpt>
<trkpt lat="40.0728122" lon="-105.2306729">
  <ele>1595.47</ele>
  <time>2026-08-27T18:29:05Z</time>
  <course>14.12</course>
  <speed>0.03</speed>
  <fix>3d</fix>
</trkpt>
<trkpt lat="40.0728121" lon="-105.2306727">
  <ele>1595.37</ele>
  <time>2026-08-27T18:29:05Z</time>
  <course>162.57</course>
  <speed>0.04</speed>
  <fix>3d</fix>
</trkpt>
<trkpt lat="40.0728121" lon="-105.2306729">
  <ele>1595.46</ele>
  <time>2026-08-27T18:29:05Z</time>
  <course>14.06</course>
  <speed>0.02</speed>
  <fix>3d</fix>
</trkpt>
<trkpt lat="40.072812" lon="-105.2306727">
  <ele>1595.37</ele>
  <time>2026-08-27T18:29:05Z</time>
  <course>171.53</course>
  <speed>0.05</speed>
  <fix>3d</fix>
</trkpt>
<trkpt lat="40.0728121" lon="-105.2306728">
  <ele>1595.46</ele>
  <time>2026-08-27T18:29:05Z</time>
  <course>14.06</course>
  <speed>0.02</speed>
  <fix>3d</fix>
</trkpt>
<trkpt lat="40.0728119" lon="-105.2306727">
  <ele>1595.37</ele>
  <time>2026-08-27T18:29:05Z</time>
  <course>161.75</course>
  <speed>0.05</speed>
  <fix>3d</fix>
</trkpt>
<trkpt lat="40.072812" lon="-105.2306728">
  <ele>1595.46</ele>
  <time>2026-08-27T18:29:05Z</time>
  <course>14.06</course>
  <speed>0.01</speed>
  <fix>3d</fix>
</trkpt>
<trkpt lat="40.0728118" lon="-105.2306726">
  <ele>1595.37</ele>
  <time>2026-08-27T18:29:05Z</time>
  <course>154.7</course>
  <speed>0.04</speed>
  <fix>3d</fix>
</trkpt>
<trkpt lat="40.0728119" lon="-105.2306727">
  <ele>1595.46</ele>
  <time>2026-08-27T18:29:05Z</time>
  <course>14.06</course>
  <speed>0.01</speed>
  <fix>3d</fix>
</trkpt>
<trkpt lat="40.0728117" lon="-105.2306725">
  <ele>1595.37</ele>
  <time>2026-08-27T18:29:05Z</time>
  <course>148.32</course>
  <speed>0.04</speed>
  <fix>3d</fix>
</trkpt>
<trkpt lat="40.0728119" lon="-105.2306727">
  <ele>1595.46</ele>
  <time>2026-08-27T18:29:05Z</time>
  <course>14.06</course>
  <speed>0.01</speed>
  <fix>3d</fix>
</trkpt>
<trkpt lat="40.0728117" lon="-105.2306725">
  <ele>1595.37</ele>
  <time>2026-08-27T18:29:05Z</time>
  <course>141.97</course>
  <speed>0.03</speed>
  <fix>3d</fix>
</trkpt>
<trkpt lat="40.0728118" lon="-105.2306726">
  <ele>1595.46</ele>
  <time>2026-08-27T18:29:05Z</time>
  <course>14.07</course>
  <speed>0.01</speed>
  <fix>3d</fix>
</trkpt>
<trkpt lat="40.0728116" lon="-105.2306725">
  <ele>1595.37</ele>
  <time>2026-08-27T18:29:05Z</time>
  <course>136.42</course>
  <speed>0.03</speed>
  <fix>3d</fix>
</trkpt>
<trkpt lat="40.0728118" lon="-105.2306726">
  <ele>1595.46</ele>
  <time>2026-08-27T18:29:05Z</time>
  <course>14.08</course>
  <speed>0.01</speed>
  <fix>3d</fix>
</trkpt>
<trkpt lat="40.0728116" lon="-105.2306724">
  <ele>1595.37</ele>
  <time>2026-08-27T18:29:05Z</time>
  <course>131.32</course>
  <speed>0.03</speed>
  <fix>3d</fix>
</trkpt>
<trkpt lat="40.0728117" lon="-105.2306725">
  <ele>1595.46</ele>
  <time>2026-08-27T18:29:05Z</time>
  <course>14.07</course>
  <speed>0.01</speed>
  <fix>3d</fix>
</trkpt>
<trkpt lat="40.0728116" lon="-105.2306723">
  <ele>1595.37</ele>
  <time>2026-08-27T18:29:05Z</time>
  <course>126.8</course>
  <speed>0.03</speed>
  <fix>3d</fix>
</trkpt>
<trkpt lat="40.0728117" lon="-105.2306724">
  <ele>1595.46</ele>
  <time>2026-08-27T18:29:05Z</time>
  <course>14.06</course>
  <speed>0.01</speed>
  <fix>3d</fix>
</trkpt>
<trkpt lat="40.0728116" lon="-105.2306723">
  <ele>1595.38</ele>
  <time>2026-08-27T18:29:05Z</time>
  <course>123.75</course>
  <speed>0.03</speed>
  <fix>3d</fix>
</trkpt>
<trkpt lat="40.0728117" lon="-105.2306724">
  <ele>1595.47</ele>
  <time>2026-08-27T18:29:05Z</time>
  <course>14.07</course>
  <speed>0.01</speed>
  <fix>3d</fix>
</trkpt>
<trkpt lat="40.0728115" lon="-105.2306722">
  <ele>1595.38</ele>
  <time>2026-08-27T18:29:05Z</time>
  <course>121.1</course>
  <speed>0.02</speed>
  <fix>3d</fix>
</trkpt>
<trkpt lat="40.0728117" lon="-105.2306723">
  <ele>1595.48</ele>
  <time>2026-08-27T18:29:05Z</time>
  <course>14.08</course>
  <speed>0.01</speed>
  <fix>3d</fix>
</trkpt>
<trkpt lat="40.0728115" lon="-105.2306722">
  <ele>1595.38</ele>
  <time>2026-08-27T18:29:05Z</time>
  <course>118.45</course>
  <speed>0.02</speed>
  <fix>3d</fix>
</trkpt>
<trkpt lat="40.0728116" lon="-105.2306723">
  <ele>1595.48</ele>
  <time>2026-08-27T18:29:05Z</time>
  <course>14.11</course>
  <speed>0.01</speed>
  <fix>3d</fix>
</trkpt>
<trkpt lat="40.0728115" lon="-105.2306721">
  <ele>1595.38</ele>
  <time>2026-08-27T18:29:05Z</time>
  <course>116.45</course>
  <speed>0.02</speed>
  <fix>3d</fix>
</trkpt>
<trkpt lat="40.0728116" lon="-105.2306722">
  <ele>1595.48</ele>
  <time>2026-08-27T18:29:05Z</time>
  <course>14.1</course>
  <speed>0.01</speed>
  <fix>3d</fix>
</trkpt>
<trkpt lat="40.0728115" lon="-105.230672">
  <ele>1595.39</ele>
  <time>2026-08-27T18:29:05Z</time>
  <course>115.48</course>
  <speed>0.02</speed>
  <fix>3d</fix>
</trkpt>
<trkpt lat="40.0728116" lon="-105.2306721">
  <ele>1595.47</ele>
  <time>2026-08-27T18:29:05Z</time>
  <course>14.1</course>
  <speed>0.01</speed>
  <fix>3d</fix>
</trkpt>
<trkpt lat="40.0728114" lon="-105.230672">
  <ele>1595.38</ele>
  <time>2026-08-27T18:29:05Z</time>
  <course>114.89</course>
  <speed>0.02</speed>
  <fix>3d</fix>
</trkpt>
<trkpt lat="40.0728116" lon="-105.2306721">
  <ele>1595.46</ele>
  <time>2026-08-27T18:29:05Z</time>
  <course>14.1</course>
  <speed>0.01</speed>
  <fix>3d</fix>
</trkpt>
<trkpt lat="40.0728114" lon="-105.2306719">
  <ele>1595.38</ele>
  <time>2026-08-27T18:29:05Z</time>
  <course>114.46</course>
  <speed>0.02</speed>
  <fix>3d</fix>
</trkpt>
<trkpt lat="40.0728116" lon="-105.230672">
  <ele>1595.46</ele>
  <time>2026-08-27T18:29:05Z</time>
  <course>14.05</course>
  <speed>0.03605551275463989</speed>
  <fix>3d</fix>
</trkpt>
<trkpt lat="40.0728114" lon="-105.2306718">
  <ele>1595.38</ele>
  <time>2026-08-27T18:29:05Z</time>
  <course>90.84</course>
  <speed>0.02</speed>
  <fix>3d</fix>
</trkpt>
<trkpt lat="40.0728116" lon="-105.2306719">
  <ele>1595.46</ele>
  <time>2026-08-27T18:29:05Z</time>
  <course>14.18</course>
  <speed>0.0316227766016838</speed>
  <fix>3d</fix>
</trkpt>
<trkpt lat="40.0728114" lon="-105.2306718">
  <ele>1595.38</ele>
  <time>2026-08-27T18:29:05Z</time>
  <course>71.63</course>
  <speed>0.04</speed>
  <fix>3d</fix>
</trkpt>
<trkpt lat="40.0728116" lon="-105.2306718">
  <ele>1595.46</ele>
  <time>2026-08-27T18:29:05Z</time>
  <course>14.29</course>
  <speed>0.03605551275463989</speed>
  <fix>3d</fix>
</trkpt>
<trkpt lat="40.0728114" lon="-105.2306717">
  <ele>1595.38</ele>
  <time>2026-08-27T18:29:05Z</time>
  <course>64.83</course>
  <speed>0.04</speed>
  <fix>3d</fix>
</trkpt>
<trkpt lat="40.0728116" lon="-105.2306718">
  <ele>1595.46</ele>
  <time>2026-08-27T18:29:05Z</time>
  <course>14.17</course>
  <speed>0.03</speed>
  <fix>3d</fix>
</trkpt>
<trkpt lat="40.0728114" lon="-105.2306716">
  <ele>1595.38</ele>
  <time>2026-08-27T18:29:05Z</time>
  <course>54.75</course>
  <speed>0.02</speed>
  <fix>3d</fix>
</trkpt>
<trkpt lat="40.0728116" lon="-105.2306717">
  <ele>1595.47</ele>
  <time>2026-08-27T18:29:05Z</time>
  <course>14.3</course>
  <speed>0.01</speed>
  <fix>3d</fix>
</trkpt>
<trkpt lat="40.0728114" lon="-105.2306715">
  <ele>1595.39</ele>
  <time>2026-08-27T18:29:05Z</time>
  <course>77.1</course>
  <speed>0.02</speed>
  <fix>3d</fix>
</trkpt>
<trkpt lat="40.0728116" lon="-105.2306717">
  <ele>1595.47</ele>
  <time>2026-08-27T18:29:05Z</time>
  <course>14.36</course>
  <speed>0.01414213562373095</speed>
  <fix>3d</fix>
</trkpt>
<trkpt lat="40.0728114" lon="-105.2306715">
  <ele>1595.39</ele>
  <time>2026-08-27T18:29:05Z</time>
  <course>89.39</course>
  <speed>0.02</speed>
  <fix>3d</fix>
</trkpt>
<trkpt lat="40.0728116" lon="-105.2306716">
  <ele>1595.47</ele>
  <time>2026-08-27T18:29:05Z</time>
  <course>14.19</course>
  <speed>0.01</speed>
  <fix>3d</fix>
</trkpt>
<trkpt lat="40.0728114" lon="-105.2306715">
  <ele>1595.39</ele>
  <time>2026-08-27T18:29:05Z</time>
  <course>100.68</course>
  <speed>0.01</speed>
  <fix>3d</fix>
</trkpt>
<trkpt lat="40.0728116" lon="-105.2306715">
  <ele>1595.47</ele>
  <time>2026-08-27T18:29:05Z</time>
  <course>14.31</course>
  <speed>0.0</speed>
  <fix>3d</fix>
</trkpt>
<trkpt lat="40.0728114" lon="-105.2306714">
  <ele>1595.39</ele>
  <time>2026-08-27T18:29:05Z</time>
  <course>120.95</course>
  <speed>0.02</speed>
  <fix>3d</fix>
</trkpt>
<trkpt lat="40.0728116" lon="-105.2306715">
  <ele>1595.46</ele>
  <time>2026-08-27T18:29:05Z</time>
  <course>14.37</course>
  <speed>0.01</speed>
  <fix>3d</fix>
</trkpt>
<trkpt lat="40.0728114" lon="-105.2306713">
  <ele>1595.39</ele>
  <time>2026-08-27T18:29:05Z</time>
  <course>114.11</course>
  <speed>0.02</speed>
  <fix>3d</fix>
</trkpt>
<trkpt lat="40.0728116" lon="-105.2306715">
  <ele>1595.46</ele>
  <time>2026-08-27T18:29:05Z</time>
  <course>14.17</course>
  <speed>0.0</speed>
  <fix>3d</fix>
</trkpt>
<trkpt lat="40.0728114" lon="-105.2306713">
  <ele>1595.39</ele>
  <time>2026-08-27T18:29:05Z</time>
  <course>121.07</course>
  <speed>0.02</speed>
  <fix>3d</fix>
</trkpt>
<trkpt lat="40.0728115" lon="-105.2306714">
  <ele>1595.47</ele>
  <time>2026-08-27T18:29:05Z</time>
  <course>14.28</course>
  <speed>0.0</speed>
  <fix>3d</fix>
</trkpt>
<trkpt lat="40.0728114" lon="-105.2306713">
  <ele>1595.39</ele>
  <time>2026-08-27T18:29:05Z</time>
  <course>129.4</course>
  <speed>0.02</speed>
  <fix>3d</fix>
</trkpt>
<trkpt lat="40.0728115" lon="-105.2306714">
  <ele>1595.47</ele>
  <time>2026-08-27T18:29:05Z</time>
  <course>14.34</course>
  <speed>0.01</speed>
  <fix>3d</fix>
</trkpt>
<trkpt lat="40.0728114" lon="-105.2306712">
  <ele>1595.39</ele>
  <time>2026-08-27T18:29:05Z</time>
  <course>119.18</course>
  <speed>0.03</speed>
  <fix>3d</fix>
</trkpt>
<trkpt lat="40.0728115" lon="-105.2306713">
  <ele>1595.47</ele>
  <time>2026-08-27T18:29:05Z</time>
  <course>14.2</course>
  <speed>0.0</speed>
  <fix>3d</fix>
</trkpt>
<trkpt lat="40.0728114" lon="-105.2306711">
  <ele>1595.4</ele>
  <time>2026-08-27T18:29:05Z</time>
  <course>125.45</course>
  <speed>0.02</speed>
  <fix>3d</fix>
</trkpt>
<trkpt lat="40.0728115" lon="-105.2306713">
  <ele>1595.47</ele>
  <time>2026-08-27T18:29:05Z</time>
  <course>14.31</course>
  <speed>0.0</speed>
  <fix>3d</fix>
</trkpt>
<trkpt lat="40.0728113" lon="-105.2306711">
  <ele>1595.4</ele>
  <time>2026-08-27T18:29:05Z</time>
  <course>133.69</course>
  <speed>0.02</speed>
  <fix>3d</fix>
</trkpt>
<trkpt lat="40.0728115" lon="-105.2306712">
  <ele>1595.47</ele>
  <time>2026-08-27T18:29:05Z</time>
  <course>14.39</course>
  <speed>0.01</speed>
  <fix>3d</fix>
</trkpt>
<trkpt lat="40.0728113" lon="-105.2306711">
  <ele>1595.4</ele>
  <time>2026-08-27T18:29:05Z</time>
  <course>122.07</course>
  <speed>0.03</speed>
  <fix>3d</fix>
</trkpt>
<trkpt lat="40.0728114" lon="-105.2306712">
  <ele>1595.47</ele>
  <time>2026-08-27T18:29:05Z</time>
  <course>14.2</course>
  <speed>0.0</speed>
  <fix>3d</fix>
</trkpt>
<trkpt lat="40.0728113" lon="-105.230671">
  <ele>1595.4</ele>
  <time>2026-08-27T18:29:05Z</time>
  <course>127.14</course>
  <speed>0.02</speed>
  <fix>3d</fix>
</trkpt>
<trkpt lat="40.0728114" lon="-105.2306711">
  <ele>1595.48</ele>
  <time>2026-08-27T18:29:06Z</time>
  <course>14.29</course>
  <speed>0.0</speed>
  <fix>3d</fix>
</trkpt>
<trkpt lat="40.0728112" lon="-105.230671">
  <ele>1595.4</ele>
  <time>2026-08-27T18:29:06Z</time>
  <course>136.03</course>
  <speed>0.02</speed>
  <fix>3d</fix>
</trkpt>
<trkpt lat="40.0728114" lon="-105.2306711">
  <ele>1595.48</ele>
  <time>2026-08-27T18:29:06Z</time>
  <course>14.38</course>
  <speed>0.01</speed>
  <fix>3d</fix>
</trkpt>
<trkpt lat="40.0728111" lon="-105.2306709">
  <ele>1595.4</ele>
  <time>2026-08-27T18:29:06Z</time>
  <course>124.3</course>
  <speed>0.03</speed>
  <fix>3d</fix>
</trkpt>
<trkpt lat="40.0728113" lon="-105.230671">
  <ele>1595.48</ele>
  <time>2026-08-27T18:29:06Z</time>
  <course>14.23</course>
  <speed>0.0</speed>
  <fix>3d</fix>
</trkpt>
<trkpt lat="40.0728111" lon="-105.2306708">
  <ele>1595.4</ele>
  <time>2026-08-27T18:29:06Z</time>
  <course>129.08</course>
  <speed>0.02</speed>
  <fix>3d</fix>
</trkpt>
<trkpt lat="40.0728113" lon="-105.230671">
  <ele>1595.48</ele>
  <time>2026-08-27T18:29:06Z</time>
  <course>14.31</course>
  <speed>0.0</speed>
  <fix>3d</fix>
</trkpt>
<trkpt lat="40.0728111" lon="-105.2306708">
  <ele>1595.4</ele>
  <time>2026-08-27T18:29:06Z</time>
  <course>138.61</course>
  <speed>0.02</speed>
  <fix>3d</fix>
</trkpt>
<trkpt lat="40.0728113" lon="-105.2306709">
  <ele>1595.48</ele>
  <time>2026-08-27T18:29:06Z</time>
  <course>14.38</course>
  <speed>0.01</speed>
  <fix>3d</fix>
</trkpt>
<trkpt lat="40.072811" lon="-105.2306708">
  <ele>1595.39</ele>
  <time>2026-08-27T18:29:06Z</time>
  <course>126.11</course>
  <speed>0.03</speed>
  <fix>3d</fix>
</trkpt>
<trkpt lat="40.0728112" lon="-105.2306709">
  <ele>1595.47</ele>
  <time>2026-08-27T18:29:06Z</time>
  <course>14.14</course>
  <speed>0.022360679774997897</speed>
  <fix>3d</fix>
</trkpt>
<trkpt lat="40.072811" lon="-105.2306707">
  <ele>1595.39</ele>
  <time>2026-08-27T18:29:06Z</time>
  <course>152.0</course>
  <speed>0.03</speed>
  <fix>3d</fix>
</trkpt>
<trkpt lat="40.0728111" lon="-105.2306709">
  <ele>1595.47</ele>
  <time>2026-08-27T18:29:06Z</time>
  <course>14.11</course>
  <speed>0.02</speed>
  <fix>3d</fix>
</trkpt>
<trkpt lat="40.072811" lon="-105.2306706">
  <ele>1595.39</ele>
  <time>2026-08-27T18:29:06Z</time>
  <course>166.36</course>
  <speed>0.04</speed>
  <fix>3d</fix>
</trkpt>
<trkpt lat="40.072811" lon="-105.2306708">
  <ele>1595.46</ele>
  <time>2026-08-27T18:29:06Z</time>
  <course>14.07</course>
  <speed>0.01</speed>
  <fix>3d</fix>
</trkpt>
<trkpt lat="40.0728109" lon="-105.2306706">
  <ele>1595.39</ele>
  <time>2026-08-27T18:29:06Z</time>
  <course>153.86</course>
  <speed>0.04</speed>
  <fix>3d</fix>
</trkpt>
<trkpt lat="40.072811" lon="-105.2306707">
  <ele>1595.46</ele>
  <time>2026-08-27T18:29:06Z</time>
  <course>14.06</course>
  <speed>0.01</speed>
  <fix>3d</fix>
</trkpt>
<trkpt lat="40.0728109" lon="-105.2306706">
  <ele>1595.39</ele>
  <time>2026-08-27T18:29:06Z</time>
  <course>144.08</course>
  <speed>0.03</speed>
  <fix>3d</fix>
</trkpt>
<trkpt lat="40.072811" lon="-105.2306707">
  <ele>1595.46</ele>
  <time>2026-08-27T18:29:06Z</time>
  <course>14.04</course>
  <speed>0.01</speed>
  <fix>3d</fix>
</trkpt>
<trkpt lat="40.0728108" lon="-105.2306705">
  <ele>1595.39</ele>
  <time>2026-08-27T18:29:06Z</time>
  <course>131.15</course>
  <speed>0.03</speed>
  <fix>3d</fix>
</trkpt>
<trkpt lat="40.0728109" lon="-105.2306706">
  <ele>1595.47</ele>
  <time>2026-08-27T18:29:06Z</time>
  <course>14.05</course>
  <speed>0.01</speed>
  <fix>3d</fix>
</trkpt>
<trkpt lat="40.0728108" lon="-105.2306705">
  <ele>1595.39</ele>
  <time>2026-08-27T18:29:06Z</time>
  <course>119.34</course>
  <speed>0.03</speed>
  <fix>3d</fix>
</trkpt>
<trkpt lat="40.0728109" lon="-105.2306705">
  <ele>1595.47</ele>
  <time>2026-08-27T18:29:06Z</time>
  <course>14.07</course>
  <speed>0.01414213562373095</speed>
  <fix>3d</fix>
</trkpt>
<trkpt lat="40.0728108" lon="-105.2306704">
  <ele>1595.39</ele>
  <time>2026-08-27T18:29:06Z</time>
  <course>108.12</course>
  <speed>0.03</speed>
  <fix>3d</fix>
</trkpt>
<trkpt lat="40.0728109" lon="-105.2306705">
  <ele>1595.46</ele>
  <time>2026-08-27T18:29:06Z</time>
  <course>14.08</course>
  <speed>0.022360679774997897</speed>
  <fix>3d</fix>
</trkpt>
<trkpt lat="40.0728108" lon="-105.2306703">
  <ele>1595.39</ele>
  <time>2026-08-27T18:29:06Z</time>
  <course>97.82</course>
  <speed>0.03</speed>
  <fix>3d</fix>
</trkpt>
<trkpt lat="40.0728109" lon="-105.2306704">
  <ele>1595.46</ele>
  <time>2026-08-27T18:29:06Z</time>
  <course>14.08</course>
  <speed>0.022360679774997897</speed>
  <fix>3d</fix>
</trkpt>
<trkpt lat="40.0728108" lon="-105.2306703">
  <ele>1595.39</ele>
  <time>2026-08-27T18:29:06Z</time>
  <course>88.8</course>
  <speed>0.03</speed>
  <fix>3d</fix>
</trkpt>
<trkpt lat="40.0728109" lon="-105.2306703">
  <ele>1595.46</ele>
  <time>2026-08-27T18:29:06Z</time>
  <course>14.07</course>
  <speed>0.022360679774997897</speed>
  <fix>3d</fix>
</trkpt>
<trkpt lat="40.0728108" lon="-105.2306702">
  <ele>1595.39</ele>
  <time>2026-08-27T18:29:06Z</time>
  <course>81.67</course>
  <speed>0.03</speed>
  <fix>3d</fix>
</trkpt>
<trkpt lat="40.0728109" lon="-105.2306702">
  <ele>1595.46</ele>
  <time>2026-08-27T18:29:06Z</time>
  <course>14.08</course>
  <speed>0.022360679774997897</speed>
  <fix>3d</fix>
</trkpt>
<trkpt lat="40.0728108" lon="-105.2306701">
  <ele>1595.4</ele>
  <time>2026-08-27T18:29:06Z</time>
  <course>76.84</course>
  <speed>0.03</speed>
  <fix>3d</fix>
</trkpt>
<trkpt lat="40.0728109" lon="-105.2306702">
  <ele>1595.46</ele>
  <time>2026-08-27T18:29:06Z</time>
  <course>14.08</course>
  <speed>0.0316227766016838</speed>
  <fix>3d</fix>
</trkpt>
<trkpt lat="40.0728108" lon="-105.23067">
  <ele>1595.4</ele>
  <time>2026-08-27T18:29:06Z</time>
  <course>74.13</course>
  <speed>0.03</speed>
  <fix>3d</fix>
</trkpt>
<trkpt lat="40.0728109" lon="-105.2306701">
  <ele>1595.47</ele>
  <time>2026-08-27T18:29:06Z</time>
  <course>14.09</course>
  <speed>0.0316227766016838</speed>
  <fix>3d</fix>
</trkpt>
<trkpt lat="40.0728108" lon="-105.2306699">
  <ele>1595.4</ele>
  <time>2026-08-27T18:29:06Z</time>
  <course>72.9</course>
  <speed>0.03</speed>
  <fix>3d</fix>
</trkpt>
<trkpt lat="40.0728109" lon="-105.23067">
  <ele>1595.47</ele>
  <time>2026-08-27T18:29:06Z</time>
  <course>14.09</course>
  <speed>0.0316227766016838</speed>
  <fix>3d</fix>
</trkpt>
<trkpt lat="40.0728108" lon="-105.2306699">
  <ele>1595.4</ele>
  <time>2026-08-27T18:29:06Z</time>
  <course>72.2</course>
  <speed>0.03</speed>
  <fix>3d</fix>
</trkpt>
<trkpt lat="40.072811" lon="-105.2306699">
  <ele>1595.47</ele>
  <time>2026-08-27T18:29:06Z</time>
  <course>14.09</course>
  <speed>0.0316227766016838</speed>
  <fix>3d</fix>
</trkpt>
<trkpt lat="40.0728108" lon="-105.2306698">
  <ele>1595.4</ele>
  <time>2026-08-27T18:29:06Z</time>
  <course>71.53</course>
  <speed>0.03</speed>
  <fix>3d</fix>
</trkpt>
<trkpt lat="40.072811" lon="-105.2306699">
  <ele>1595.47</ele>
  <time>2026-08-27T18:29:06Z</time>
  <course>14.09</course>
  <speed>0.0316227766016838</speed>
  <fix>3d</fix>
</trkpt>
<trkpt lat="40.0728108" lon="-105.2306697">
  <ele>1595.4</ele>
  <time>2026-08-27T18:29:06Z</time>
  <course>70.92</course>
  <speed>0.03</speed>
  <fix>3d</fix>
</trkpt>
<trkpt lat="40.072811" lon="-105.2306698">
  <ele>1595.46</ele>
  <time>2026-08-27T18:29:06Z</time>
  <course>14.06</course>
  <speed>0.053851648071345036</speed>
  <fix>3d</fix>
</trkpt>
<trkpt lat="40.0728108" lon="-105.2306696">
  <ele>1595.4</ele>
  <time>2026-08-27T18:29:06Z</time>
  <course>61.99</course>
  <speed>0.03</speed>
  <fix>3d</fix>
</trkpt>
<trkpt lat="40.0728111" lon="-105.2306697">
  <ele>1595.46</ele>
  <time>2026-08-27T18:29:06Z</time>
  <course>14.2</course>
  <speed>0.05830951894845301</speed>
  <fix>3d</fix>
</trkpt>
<trkpt lat="40.0728108" lon="-105.2306696">
  <ele>1595.41</ele>
  <time>2026-08-27T18:29:06Z</time>
  <course>54.47</course>
  <speed>0.05</speed>
  <fix>3d</fix>
</trkpt>
<trkpt lat="40.0728111" lon="-105.2306696">
  <ele>1595.46</ele>
  <time>2026-08-27T18:29:06Z</time>
  <course>14.2</course>
  <speed>0.053851648071345036</speed>
  <fix>3d</fix>
</trkpt>
<trkpt lat="40.0728109" lon="-105.2306695">
  <ele>1595.41</ele>
  <time>2026-08-27T18:29:06Z</time>
  <course>46.03</course>
  <speed>0.05</speed>
  <fix>3d</fix>
</trkpt>
<trkpt lat="40.0728111" lon="-105.2306695">
  <ele>1595.46</ele>
  <time>2026-08-27T18:29:06Z</time>
  <course>14.18</course>
  <speed>0.04</speed>
  <fix>3d</fix>
</trkpt>
<trkpt lat="40.0728109" lon="-105.2306694">
  <ele>1595.41</ele>
  <time>2026-08-27T18:29:06Z</time>
  <course>40.55</course>
  <speed>0.04</speed>
  <fix>3d</fix>
</trkpt>
<trkpt lat="40.0728112" lon="-105.2306695">
  <ele>1595.46</ele>
  <time>2026-08-27T18:29:06Z</time>
  <course>14.3</course>
  <speed>0.022360679774997897</speed>
  <fix>3d</fix>
</trkpt>
<trkpt lat="40.072811" lon="-105.2306693">
  <ele>1595.41</ele>
  <time>2026-08-27T18:29:06Z</time>
  <course>59.08</course>
  <speed>0.03</speed>
  <fix>3d</fix>
</trkpt>
<trkpt lat="40.0728112" lon="-105.2306694">
  <ele>1595.47</ele>
  <time>2026-08-27T18:29:06Z</time>
  <course>14.27</course>
  <speed>0.022360679774997897</speed>
  <fix>3d</fix>
</trkpt>
<trkpt lat="40.072811" lon="-105.2306692">
  <ele>1595.41</ele>
  <time>2026-08-27T18:29:06Z</time>
  <course>65.81</course>
  <speed>0.02</speed>
  <fix>3d</fix>
</trkpt>
<trkpt lat="40.0728112" lon="-105.2306694">
  <ele>1595.47</ele>
  <time>2026-08-27T18:29:06Z</time>
  <course>14.18</course>
  <speed>0.01</speed>
  <fix>3d</fix>
</trkpt>
<trkpt lat="40.072811" lon="-105.2306692">
  <ele>1595.42</ele>
  <time>2026-08-27T18:29:06Z</time>
  <course>79.49</course>
  <speed>0.01</speed>
  <fix>3d</fix>
</trkpt>
<trkpt lat="40.0728111" lon="-105.2306693">
  <ele>1595.47</ele>
  <time>2026-08-27T18:29:06Z</time>
  <course>14.32</course>
  <speed>0.0</speed>
  <fix>3d</fix>
</trkpt>
<trkpt lat="40.072811" lon="-105.2306692">
  <ele>1595.42</ele>
  <time>2026-08-27T18:29:06Z</time>
  <course>103.14</course>
  <speed>0.02</speed>
  <fix>3d</fix>
</trkpt>
<trkpt lat="40.0728111" lon="-105.2306693">
  <ele>1595.47</ele>
  <time>2026-08-27T18:29:06Z</time>
  <course>14.33</course>
  <speed>0.01</speed>
  <fix>3d</fix>
</trkpt>
<trkpt lat="40.072811" lon="-105.2306691">
  <ele>1595.42</ele>
  <time>2026-08-27T18:29:06Z</time>
  <course>102.73</course>
  <speed>0.02</speed>
  <fix>3d</fix>
</trkpt>
<trkpt lat="40.0728111" lon="-105.2306692">
  <ele>1595.47</ele>
  <time>2026-08-27T18:29:06Z</time>
  <course>14.17</course>
  <speed>0.01</speed>
  <fix>3d</fix>
</trkpt>
<trkpt lat="40.072811" lon="-105.2306691">
  <ele>1595.42</ele>
  <time>2026-08-27T18:29:06Z</time>
  <course>111.51</course>
  <speed>0.02</speed>
  <fix>3d</fix>
</trkpt>
<trkpt lat="40.0728111" lon="-105.2306691">
  <ele>1595.47</ele>
  <time>2026-08-27T18:29:06Z</time>
  <course>14.29</course>
  <speed>0.0</speed>
  <fix>3d</fix>
</trkpt>
<trkpt lat="40.072811" lon="-105.230669">
  <ele>1595.42</ele>
  <time>2026-08-27T18:29:06Z</time>
  <course>119.11</course>
  <speed>0.02</speed>
  <fix>3d</fix>
</trkpt>
<trkpt lat="40.0728111" lon="-105.2306691">
  <ele>1595.47</ele>
  <time>2026-08-27T18:29:06Z</time>
  <course>14.36</course>
  <speed>0.01</speed>
  <fix>3d</fix>
</trkpt>
<trkpt lat="40.072811" lon="-105.2306689">
  <ele>1595.42</ele>
  <time>2026-08-27T18:29:06Z</time>
  <course>112.82</course>
  <speed>0.03</speed>
  <fix>3d</fix>
</trkpt>
<trkpt lat="40.0728111" lon="-105.230669">
  <ele>1595.47</ele>
  <time>2026-08-27T18:29:06Z</time>
  <course>14.2</course>
  <speed>0.0</speed>
  <fix>3d</fix>
</trkpt>
<trkpt lat="40.072811" lon="-105.2306689">
  <ele>1595.43</ele>
  <time>2026-08-27T18:29:06Z</time>
  <course>117.86</course>
  <speed>0.02</speed>
  <fix>3d</fix>
</trkpt>
<trkpt lat="40.0728111" lon="-105.230669">
  <ele>1595.48</ele>
  <time>2026-08-27T18:29:06Z</time>
  <course>14.28</course>
  <speed>0.0</speed>
  <fix>3d</fix>
</trkpt>
<trkpt lat="40.072811" lon="-105.2306688">
  <ele>1595.43</ele>
  <time>2026-08-27T18:29:06Z</time>
  <course>126.41</course>
  <speed>0.02</speed>
  <fix>3d</fix>
</trkpt>
<trkpt lat="40.0728111" lon="-105.2306689">
  <ele>1595.48</ele>
  <time>2026-08-27T18:29:06Z</time>
  <course>14.37</course>
  <speed>0.01</speed>
  <fix>3d</fix>
</trkpt>
<trkpt lat="40.072811" lon="-105.2306687">
  <ele>1595.43</ele>
  <time>2026-08-27T18:29:06Z</time>
  <course>117.9</course>
  <speed>0.03</speed>
  <fix>3d</fix>
</trkpt>
<trkpt lat="40.0728111" lon="-105.2306689">
  <ele>1595.48</ele>
  <time>2026-08-27T18:29:06Z</time>
  <course>14.24</course>
  <speed>0.0</speed>
  <fix>3d</fix>
</trkpt>
<trkpt lat="40.072811" lon="-105.2306687">
  <ele>1595.42</ele>
  <time>2026-08-27T18:29:06Z</time>
  <course>119.06</course>
  <speed>0.02</speed>
  <fix>3d</fix>
</trkpt>
<trkpt lat="40.0728111" lon="-105.2306688">
  <ele>1595.48</ele>
  <time>2026-08-27T18:29:06Z</time>
  <course>14.26</course>
  <speed>0.0</speed>
  <fix>3d</fix>
</trkpt>
<trkpt lat="40.0728109" lon="-105.2306687">
  <ele>1595.42</ele>
  <time>2026-08-27T18:29:06Z</time>
  <course>129.81</course>
  <speed>0.02</speed>
  <fix>3d</fix>
</trkpt>
<trkpt lat="40.072811" lon="-105.2306688">
  <ele>1595.48</ele>
  <time>2026-08-27T18:29:06Z</time>
  <course>14.38</course>
  <speed>0.01</speed>
  <fix>3d</fix>
</trkpt>
<trkpt lat="40.0728109" lon="-105.2306686">
  <ele>1595.42</ele>
  <time>2026-08-27T18:29:06Z</time>
  <course>121.35</course>
  <speed>0.03</speed>
  <fix>3d</fix>
</trkpt>
<trkpt lat="40.072811" lon="-105.2306687">
  <ele>1595.48</ele>
  <time>2026-08-27T18:29:06Z</time>
  <course>14.29</course>
  <speed>0.01</speed>
  <fix>3d</fix>
</trkpt>
<trkpt lat="40.0728109" lon="-105.2306686">
  <ele>1595.42</ele>
  <time>2026-08-27T18:29:06Z</time>
  <course>119.25</course>
  <speed>0.02</speed>
  <fix>3d</fix>
</trkpt>
<trkpt lat="40.072811" lon="-105.2306687">
  <ele>1595.48</ele>
  <time>2026-08-27T18:29:06Z</time>
  <course>14.24</course>
  <speed>0.0</speed>
  <fix>3d</fix>
</trkpt>
<trkpt lat="40.0728109" lon="-105.2306685">
  <ele>1595.42</ele>
  <time>2026-08-27T18:29:06Z</time>
  <course>131.73</course>
  <speed>0.02</speed>
  <fix>3d</fix>
</trkpt>
<trkpt lat="40.072811" lon="-105.2306686">
  <ele>1595.48</ele>
  <time>2026-08-27T18:29:06Z</time>
  <course>14.34</course>
  <speed>0.0</speed>
  <fix>3d</fix>
</trkpt>
<trkpt lat="40.0728108" lon="-105.2306684">
  <ele>1595.41</ele>
  <time>2026-08-27T18:29:06Z</time>
  <course>127.11</course>
  <speed>0.03</speed>
  <fix>3d</fix>
</trkpt>
<trkpt lat="40.0728109" lon="-105.2306686">
  <ele>1595.48</ele>
  <time>2026-08-27T18:29:06Z</time>
  <course>14.15</course>
  <speed>0.01</speed>
  <fix>3d</fix>
</trkpt>
<trkpt lat="40.0728108" lon="-105.2306684">
  <ele>1595.41</ele>
  <time>2026-08-27T18:29:06Z</time>
  <course>149.68</course>
  <speed>0.03</speed>
  <fix>3d</fix>
</trkpt>
<trkpt lat="40.0728108" lon="-105.2306685">
  <ele>1595.47</ele>
  <time>2026-08-27T18:29:06Z</time>
  <course>14.09</course>
  <speed>0.01</speed>
  <fix>3d</fix>
</trkpt>
<trkpt lat="40.0728107" lon="-105.2306684">
  <ele>1595.41</ele>
  <time>2026-08-27T18:29:06Z</time>
  <course>164.52</course>
  <speed>0.04</speed>
  <fix>3d</fix>
</trkpt>
<trkpt lat="40.0728108" lon="-105.2306685">
  <ele>1595.47</ele>
  <time>2026-08-27T18:29:06Z</time>
  <course>14.07</course>
  <speed>0.01</speed>
  <fix>3d</fix>
</trkpt>
<trkpt lat="40.0728106" lon="-105.2306684">
  <ele>1595.4</ele>
  <time>2026-08-27T18:29:06Z</time>
  <course>149.99</course>
  <speed>0.04</speed>
  <fix>3d</fix>
</trkpt>
<trkpt lat="40.0728107" lon="-105.2306684">
  <ele>1595.46</ele>
  <time>2026-08-27T18:29:06Z</time>
  <course>14.07</course>
  <speed>0.01</speed>
  <fix>3d</fix>
</trkpt>
<trkpt lat="40.0728105" lon="-105.2306683">
  <ele>1595.4</ele>
  <time>2026-08-27T18:29:06Z</time>
  <course>139.12</course>
  <speed>0.03</speed>
  <fix>3d</fix>
</trkpt>
<trkpt lat="40.0728107" lon="-105.2306684">
  <ele>1595.46</ele>
  <time>2026-08-27T18:29:06Z</time>
  <course>14.06</course>
  <speed>0.01</speed>
  <fix>3d</fix>
</trkpt>
<trkpt lat="40.0728105" lon="-105.2306682">
  <ele>1595.4</ele>
  <time>2026-08-27T18:29:06Z</time>
  <course>127.21</course>
  <speed>0.03</speed>
  <fix>3d</fix>
</trkpt>
<trkpt lat="40.0728107" lon="-105.2306683">
  <ele>1595.45</ele>
  <time>2026-08-27T18:29:06Z</time>
  <course>14.05</course>
  <speed>0.01414213562373095</speed>
  <fix>3d</fix>
</trkpt>
<trkpt lat="40.0728104" lon="-105.2306682">
  <ele>1595.4</ele>
  <time>2026-08-27T18:29:06Z</time>
  <course>115.42</course>
  <speed>0.03</speed>
  <fix>3d</fix>
</trkpt>
<trkpt lat="40.0728107" lon="-105.2306682">
  <ele>1595.46</ele>
  <time>2026-08-27T18:29:06Z</time>
  <course>14.05</course>
  <speed>0.01414213562373095</speed>
  <fix>3d</fix>
</trkpt>
<trkpt lat="40.0728104" lon="-105.2306681">
  <ele>1595.4</ele>
  <time>2026-08-27T18:29:06Z</time>
  <course>105.39</course>
  <speed>0.03</speed>
  <fix>3d</fix>
</trkpt>
<trkpt lat="40.0728106" lon="-105.2306682">
  <ele>1595.47</ele>
  <time>2026-08-27T18:29:06Z</time>
  <course>14.06</course>
  <speed>0.01414213562373095</speed>
  <fix>3d</fix>
</trkpt>
<trkpt lat="40.0728104" lon="-105.230668">
  <ele>1595.41</ele>
  <time>2026-08-27T18:29:06Z</time>
  <course>98.08</course>
  <speed>0.03</speed>
  <fix>3d</fix>
</trkpt>
<trkpt lat="40.0728106" lon="-105.2306681">
  <ele>1595.47</ele>
  <time>2026-08-27T18:29:06Z</time>
  <course>14.07</course>
  <speed>0.022360679774997897</speed>
  <fix>3d</fix>
</trkpt>
<trkpt lat="40.0728104" lon="-105.2306679">
  <ele>1595.41</ele>
  <time>2026-08-27T18:29:06Z</time>
  <course>91.99</course>
  <speed>0.03</speed>
  <fix>3d</fix>
</trkpt>
<trkpt lat="40.0728106" lon="-105.230668">
  <ele>1595.47</ele>
  <time>2026-08-27T18:29:06Z</time>
  <course>14.08</course>
  <speed>0.022360679774997897</speed>
  <fix>3d</fix>
</trkpt>
<trkpt lat="40.0728104" lon="-105.2306679">
  <ele>1595.41</ele>
  <time>2026-08-27T18:29:06Z</time>
  <course>86.1</course>
  <speed>0.03</speed>
  <fix>3d</fix>
</trkpt>
<trkpt lat="40.0728106" lon="-105.2306679">
  <ele>1595.47</ele>
  <time>2026-08-27T18:29:06Z</time>
  <course>14.1</course>
  <speed>0.0282842712474619</speed>
  <fix>3d</fix>
</trkpt>
<trkpt lat="40.0728104" lon="-105.2306678">
  <ele>1595.41</ele>
  <time>2026-08-27T18:29:06Z</time>
  <course>80.94</course>
  <speed>0.03</speed>
  <fix>3d</fix>
</trkpt>
<trkpt lat="40.0728106" lon="-105.2306679">
  <ele>1595.47</ele>
  <time>2026-08-27T18:29:06Z</time>
  <course>14.09</course>
  <speed>0.0282842712474619</speed>
  <fix>3d</fix>
</trkpt>
<trkpt lat="40.0728104" lon="-105.2306677">
  <ele>1595.41</ele>
  <time>2026-08-27T18:29:06Z</time>
  <course>77.03</course>
  <speed>0.03</speed>
  <fix>3d</fix>
</trkpt>
<trkpt lat="40.0728106" lon="-105.2306678">
  <ele>1595.47</ele>
  <time>2026-08-27T18:29:06Z</time>
  <course>14.09</course>
  <speed>0.0282842712474619</speed>
  <fix>3d</fix>
</trkpt>
<trkpt lat="40.0728104" lon="-105.2306676">
  <ele>1595.41</ele>
  <time>2026-08-27T18:29:06Z</time>
  <course>74.1</course>
  <speed>0.03</speed>
  <fix>3d</fix>
</trkpt>
<trkpt lat="40.0728106" lon="-105.2306677">
  <ele>1595.47</ele>
  <time>2026-08-27T18:29:06Z</time>
  <course>14.1</course>
  <speed>0.03605551275463989</speed>
  <fix>3d</fix>
</trkpt>
<trkpt lat="40.0728104" lon="-105.2306675">
  <ele>1595.41</ele>
  <time>2026-08-27T18:29:06Z</time>
  <course>71.67</course>
  <speed>0.03</speed>
  <fix>3d</fix>
</trkpt>
<trkpt lat="40.0728106" lon="-105.2306676">
  <ele>1595.47</ele>
  <time>2026-08-27T18:29:06Z</time>
  <course>14.1</course>
  <speed>0.03605551275463989</speed>
  <fix>3d</fix>
</trkpt>
<trkpt lat="40.0728104" lon="-105.2306675">
  <ele>1595.41</ele>
  <time>2026-08-27T18:29:06Z</time>
  <course>70.04</course>
  <speed>0.03</speed>
  <fix>3d</fix>
</trkpt>
<trkpt lat="40.0728106" lon="-105.2306675">
  <ele>1595.47</ele>
  <time>2026-08-27T18:29:06Z</time>
  <course>14.09</course>
  <speed>0.03605551275463989</speed>
  <fix>3d</fix>
</trkpt>
<trkpt lat="40.0728104" lon="-105.2306674">
  <ele>1595.41</ele>
  <time>2026-08-27T18:29:06Z</time>
  <course>68.86</course>
  <speed>0.03</speed>
  <fix>3d</fix>
</trkpt>
<trkpt lat="40.0728106" lon="-105.2306674">
  <ele>1595.47</ele>
  <time>2026-08-27T18:29:06Z</time>
  <course>14.04</course>
  <speed>0.053851648071345036</speed>
  <fix>3d</fix>
</trkpt>
<trkpt lat="40.0728104" lon="-105.2306673">
  <ele>1595.41</ele>
  <time>2026-08-27T18:29:06Z</time>
  <course>57.73</course>
  <speed>0.04</speed>
  <fix>3d</fix>
</trkpt>
<trkpt lat="40.0728107" lon="-105.2306673">
  <ele>1595.47</ele>
  <time>2026-08-27T18:29:06Z</time>
  <course>14.19</course>
  <speed>0.053851648071345036</speed>
  <fix>3d</fix>
</trkpt>
<trkpt lat="40.0728105" lon="-105.2306672">
  <ele>1595.41</ele>
  <time>2026-08-27T18:29:06Z</time>
  <course>52.28</course>
  <speed>0.05</speed>
  <fix>3d</fix>
</trkpt>
<trkpt lat="40.0728107" lon="-105.2306672">
  <ele>1595.47</ele>
  <time>2026-08-27T18:29:06Z</time>
  <course>14.3</course>
  <speed>0.044721359549995794</speed>
  <fix>3d</fix>
</trkpt>
<trkpt lat="40.0728106" lon="-105.2306671">
  <ele>1595.41</ele>
  <time>2026-08-27T18:29:06Z</time>
  <course>48.77</course>
  <speed>0.05</speed>
  <fix>3d</fix>
</trkpt>
<trkpt lat="40.0728108" lon="-105.2306672">
  <ele>1595.48</ele>
  <time>2026-08-27T18:29:06Z</time>
  <course>14.2</course>
  <speed>0.04</speed>
  <fix>3d</fix>
</trkpt>
<trkpt lat="40.0728107" lon="-105.230667">
  <ele>1595.41</ele>
  <time>2026-08-27T18:29:06Z</time>
  <course>39.86</course>
  <speed>0.04</speed>
  <fix>3d</fix>
</trkpt>
<trkpt lat="40.0728108" lon="-105.2306671">
  <ele>1595.49</ele>
  <time>2026-08-27T18:29:06Z</time>
  <course>14.29</course>
  <speed>0.02</speed>
  <fix>3d</fix>
</trkpt>
<trkpt lat="40.0728107" lon="-105.230667">
  <ele>1595.41</ele>
  <time>2026-08-27T18:29:06Z</time>
  <course>52.08</course>
  <speed>0.03</speed>
  <fix>3d</fix>
</trkpt>
<trkpt lat="40.0728108" lon="-105.2306671">
  <ele>1595.48</ele>
  <time>2026-08-27T18:29:06Z</time>
  <course>14.37</course>
  <speed>0.01414213562373095</speed>
  <fix>3d</fix>
</trkpt>
<trkpt lat="40.0728108" lon="-105.2306669">
  <ele>1595.41</ele>
  <time>2026-08-27T18:29:06Z</time>
  <course>73.43</course>
  <speed>0.03</speed>
  <fix>3d</fix>
</trkpt>
<trkpt lat="40.0728108" lon="-105.230667">
  <ele>1595.48</ele>
  <time>2026-08-27T18:29:06Z</time>
  <course>14.27</course>
  <speed>0.01414213562373095</speed>
  <fix>3d</fix>
</trkpt>
<trkpt lat="40.0728108" lon="-105.2306668">
  <ele>1595.41</ele>
  <time>2026-08-27T18:29:06Z</time>
  <course>80.17</course>
  <speed>0.02</speed>
  <fix>3d</fix>
</trkpt>
<trkpt lat="40.0728108" lon="-105.2306669">
  <ele>1595.48</ele>
  <time>2026-08-27T18:29:06Z</time>
  <course>14.22</course>
  <speed>0.01</speed>
  <fix>3d</fix>
</trkpt>
<trkpt lat="40.0728108" lon="-105.2306668">
  <ele>1595.41</ele>
  <time>2026-08-27T18:29:06Z</time>
  <course>98.5</course>
  <speed>0.01</speed>
  <fix>3d</fix>
</trkpt>
<trkpt lat="40.0728108" lon="-105.2306669">
  <ele>1595.48</ele>
  <time>2026-08-27T18:29:06Z</time>
  <course>14.32</course>
  <speed>0.01</speed>
  <fix>3d</fix>
</trkpt>
<trkpt lat="40.0728108" lon="-105.2306667">
  <ele>1595.4</ele>
  <time>2026-08-27T18:29:06Z</time>
  <course>108.31</course>
  <speed>0.02</speed>
  <fix>3d</fix>
</trkpt>
<trkpt lat="40.0728108" lon="-105.2306668">
  <ele>1595.47</ele>
  <time>2026-08-27T18:29:06Z</time>
  <course>14.31</course>
  <speed>0.01</speed>
  <fix>3d</fix>
</trkpt>
<trkpt lat="40.0728108" lon="-105.2306667">
  <ele>1595.4</ele>
  <time>2026-08-27T18:29:06Z</time>
  <course>108.25</course>
  <speed>0.03</speed>
  <fix>3d</fix>
</trkpt>
<trkpt lat="40.0728108" lon="-105.2306668">
  <ele>1595.47</ele>
  <time>2026-08-27T18:29:06Z</time>
  <course>14.18</course>
  <speed>0.0</speed>
  <fix>3d</fix>
</trkpt>
<trkpt lat="40.0728108" lon="-105.2306666">
  <ele>1595.4</ele>
  <time>2026-08-27T18:29:06Z</time>
  <course>116.43</course>
  <speed>0.02</speed>
  <fix>3d</fix>
</trkpt>
<trkpt lat="40.0728108" lon="-105.2306667">
  <ele>1595.47</ele>
  <time>2026-08-27T18:29:06Z</time>
  <course>14.25</course>
  <speed>0.0</speed>
  <fix>3d</fix>
</trkpt>
<trkpt lat="40.0728108" lon="-105.2306665">
  <ele>1595.4</ele>
  <time>2026-08-27T18:29:06Z</time>
  <course>122.77</course>
  <speed>0.02</speed>
  <fix>3d</fix>
</trkpt>
<trkpt lat="40.0728108" lon="-105.2306667">
  <ele>1595.47</ele>
  <time>2026-08-27T18:29:06Z</time>
  <course>14.31</course>
  <speed>0.01</speed>
  <fix>3d</fix>
</trkpt>
<trkpt lat="40.0728108" lon="-105.2306665">
  <ele>1595.39</ele>
  <time>2026-08-27T18:29:06Z</time>
  <course>118.81</course>
  <speed>0.03</speed>
  <fix>3d</fix>
</trkpt>
<trkpt lat="40.0728108" lon="-105.2306666">
  <ele>1595.47</ele>
  <time>2026-08-27T18:29:06Z</time>
  <course>14.21</course>
  <speed>0.0</speed>
  <fix>3d</fix>
</trkpt>
<trkpt lat="40.0728107" lon="-105.2306664">
  <ele>1595.39</ele>
  <time>2026-08-27T18:29:06Z</time>
  <course>122.11</course>
  <speed>0.02</speed>
  <fix>3d</fix>
</trkpt>
<trkpt lat="40.0728108" lon="-105.2306665">
  <ele>1595.48</ele>
  <time>2026-08-27T18:29:06Z</time>
  <course>14.19</course>
  <speed>0.0</speed>
  <fix>3d</fix>
</trkpt>
<trkpt lat="40.0728107" lon="-105.2306663">
  <ele>1595.39</ele>
  <time>2026-08-27T18:29:06Z</time>
  <course>132.4</course>
  <speed>0.02</speed>
  <fix>3d</fix>
</trkpt>
<trkpt lat="40.0728108" lon="-105.2306665">
  <ele>1595.48</ele>
  <time>2026-08-27T18:29:06Z</time>
  <course>14.31</course>
  <speed>0.0</speed>
  <fix>3d</fix>
</trkpt>
<trkpt lat="40.0728107" lon="-105.2306663">
  <ele>1595.39</ele>
  <time>2026-08-27T18:29:06Z</time>
  <course>127.38</course>
  <speed>0.03</speed>
  <fix>3d</fix>
</trkpt>
<trkpt lat="40.0728108" lon="-105.2306664">
  <ele>1595.48</ele>
  <time>2026-08-27T18:29:06Z</time>
  <course>14.32</course>
  <speed>0.01</speed>
  <fix>3d</fix>
</trkpt>
<trkpt lat="40.0728107" lon="-105.2306663">
  <ele>1595.39</ele>
  <time>2026-08-27T18:29:06Z</time>
  <course>124.44</course>
  <speed>0.03</speed>
  <fix>3d</fix>
</trkpt>
<trkpt lat="40.0728108" lon="-105.2306664">
  <ele>1595.48</ele>
  <time>2026-08-27T18:29:06Z</time>
  <course>14.19</course>
  <speed>0.0</speed>
  <fix>3d</fix>
</trkpt>
<trkpt lat="40.0728106" lon="-105.2306662">
  <ele>1595.39</ele>
  <time>2026-08-27T18:29:06Z</time>
  <course>134.23</course>
  <speed>0.02</speed>
  <fix>3d</fix>
</trkpt>
<trkpt lat="40.0728107" lon="-105.2306663">
  <ele>1595.48</ele>
  <time>2026-08-27T18:29:06Z</time>
  <course>14.29</course>
  <speed>0.0</speed>
  <fix>3d</fix>
</trkpt>
<trkpt lat="40.0728105" lon="-105.2306662">
  <ele>1595.39</ele>
  <time>2026-08-27T18:29:06Z</time>
  <course>134.9</course>
  <speed>0.02</speed>
  <fix>3d</fix>
</trkpt>
<trkpt lat="40.0728107" lon="-105.2306663">
  <ele>1595.48</ele>
  <time>2026-08-27T18:29:06Z</time>
  <course>14.33</course>
  <speed>0.01</speed>
  <fix>3d</fix>
</trkpt>
<trkpt lat="40.0728105" lon="-105.2306661">
  <ele>1595.38</ele>
  <time>2026-08-27T18:29:06Z</time>
  <course>127.71</course>
  <speed>0.03</speed>
  <fix>3d</fix>
</trkpt>
<trkpt lat="40.0728106" lon="-105.2306662">
  <ele>1595.47</ele>
  <time>2026-08-27T18:29:06Z</time>
  <course>14.12</course>
  <speed>0.022360679774997897</speed>
  <fix>3d</fix>
</trkpt>
<trkpt lat="40.0728105" lon="-105.230666">
  <ele>1595.38</ele>
  <time>2026-08-27T18:29:06Z</time>
  <course>153.91</course>
  <speed>0.03</speed>
  <fix>3d</fix>
</trkpt>
<trkpt lat="40.0728105" lon="-105.2306662">
  <ele>1595.48</ele>
  <time>2026-08-27T18:29:06Z</time>
  <course>14.1</course>
  <speed>0.02</speed>
  <fix>3d</fix>
</trkpt>
<trkpt lat="40.0728104" lon="-105.230666">
  <ele>1595.38</ele>
  <time>2026-08-27T18:29:06Z</time>
  <course>165.94</course>
  <speed>0.04</speed>
  <fix>3d</fix>
</trkpt>
<trkpt lat="40.0728105" lon="-105.2306662">
  <ele>1595.47</ele>
  <time>2026-08-27T18:29:06Z</time>
  <course>14.07</course>
  <speed>0.01</speed>
  <fix>3d</fix>
</trkpt>
<trkpt lat="40.0728103" lon="-105.230666">
  <ele>1595.37</ele>
  <time>2026-08-27T18:29:06Z</time>
  <course>154.93</course>
  <speed>0.04</speed>
  <fix>3d</fix>
</trkpt>
<trkpt lat="40.0728104" lon="-105.2306661">
  <ele>1595.47</ele>
  <time>2026-08-27T18:29:06Z</time>
  <course>14.07</course>
  <speed>0.01</speed>
  <fix>3d</fix>
</trkpt>
<trkpt lat="40.0728103" lon="-105.230666">
  <ele>1595.37</ele>
  <time>2026-08-27T18:29:06Z</time>
  <course>146.82</course>
  <speed>0.04</speed>
  <fix>3d</fix>
</trkpt>
<trkpt lat="40.0728104" lon="-105.230666">
  <ele>1595.47</ele>
  <time>2026-08-27T18:29:06Z</time>
  <course>14.08</course>
  <speed>0.01</speed>
  <fix>3d</fix>
</trkpt>
<trkpt lat="40.0728102" lon="-105.2306659">
  <ele>1595.37</ele>
  <time>2026-08-27T18:29:06Z</time>
  <course>136.82</course>
  <speed>0.03</speed>
  <fix>3d</fix>
</trkpt>
<trkpt lat="40.0728103" lon="-105.230666">
  <ele>1595.47</ele>
  <time>2026-08-27T18:29:06Z</time>
  <course>14.07</course>
  <speed>0.01</speed>
  <fix>3d</fix>
</trkpt>
<trkpt lat="40.0728102" lon="-105.2306658">
  <ele>1595.37</ele>
  <time>2026-08-27T18:29:06Z</time>
  <course>127.98</course>
  <speed>0.03</speed>
  <fix>3d</fix>
</trkpt>
<trkpt lat="40.0728103" lon="-105.2306659">
  <ele>1595.47</ele>
  <time>2026-08-27T18:29:06Z</time>
  <course>14.08</course>
  <speed>0.01</speed>
  <fix>3d</fix>
</trkpt>
<trkpt lat="40.0728102" lon="-105.2306658">
  <ele>1595.37</ele>
  <time>2026-08-27T18:29:06Z</time>
  <course>119.68</course>
  <speed>0.03</speed>
  <fix>3d</fix>
</trkpt>
<trkpt lat="40.0728103" lon="-105.2306658">
  <ele>1595.47</ele>
  <time>2026-08-27T18:29:06Z</time>
  <course>14.08</course>
  <speed>0.01414213562373095</speed>
  <fix>3d</fix>
</trkpt>
<trkpt lat="40.0728101" lon="-105.2306657">
  <ele>1595.37</ele>
  <time>2026-08-27T18:29:06Z</time>
  <course>112.24</course>
  <speed>0.03</speed>
  <fix>3d</fix>
</trkpt>
<trkpt lat="40.0728103" lon="-105.2306658">
  <ele>1595.47</ele>
  <time>2026-08-27T18:29:06Z</time>
  <course>14.09</course>
  <speed>0.01414213562373095</speed>
  <fix>3d</fix>
</trkpt>
<trkpt lat="40.0728101" lon="-105.2306656">
  <ele>1595.36</ele>
  <time>2026-08-27T18:29:06Z</time>
  <course>105.59</course>
  <speed>0.03</speed>
  <fix>3d</fix>
</trkpt>
<trkpt lat="40.0728103" lon="-105.2306657">
  <ele>1595.47</ele>
  <time>2026-08-27T18:29:06Z</time>
  <course>14.09</course>
  <speed>0.01414213562373095</speed>
  <fix>3d</fix>
</trkpt>
<trkpt lat="40.0728101" lon="-105.2306656">
  <ele>1595.36</ele>
  <time>2026-08-27T18:29:06Z</time>
  <course>99.58</course>
  <speed>0.02</speed>
  <fix>3d</fix>
</trkpt>
<trkpt lat="40.0728103" lon="-105.2306657">
  <ele>1595.46</ele>
  <time>2026-08-27T18:29:06Z</time>
  <course>14.09</course>
  <speed>0.022360679774997897</speed>
  <fix>3d</fix>
</trkpt>
<trkpt lat="40.0728101" lon="-105.2306655">
  <ele>1595.36</ele>
  <time>2026-08-27T18:29:06Z</time>
  <course>94.19</course>
  <speed>0.02</speed>
  <fix>3d</fix>
</trkpt>
<trkpt lat="40.0728103" lon="-105.2306656">
  <ele>1595.46</ele>
  <time>2026-08-27T18:29:06Z</time>
  <course>14.08</course>
  <speed>0.022360679774997897</speed>
  <fix>3d</fix>
</trkpt>
<trkpt lat="40.0728101" lon="-105.2306654">
  <ele>1595.36</ele>
  <time>2026-08-27T18:29:06Z</time>
  <course>89.84</course>
  <speed>0.02</speed>
  <fix>3d</fix>
</trkpt>
<trkpt lat="40.0728103" lon="-105.2306655">
  <ele>1595.46</ele>
  <time>2026-08-27T18:29:06Z</time>
  <course>14.08</course>
  <speed>0.022360679774997897</speed>
  <fix>3d</fix>
</trkpt>
<trkpt lat="40.0728101" lon="-105.2306653">
  <ele>1595.36</ele>
  <time>2026-08-27T18:29:06Z</time>
  <course>87.37</course>
  <speed>0.02</speed>
  <fix>3d</fix>
</trkpt>
<trkpt lat="40.0728103" lon="-105.2306654">
  <ele>1595.46</ele>
  <time>2026-08-27T18:29:06Z</time>
  <course>14.07</course>
  <speed>0.022360679774997897</speed>
  <fix>3d</fix>
</trkpt>
<trkpt lat="40.0728101" lon="-105.2306653">
  <ele>1595.36</ele>
  <time>2026-08-27T18:29:06Z</time>
  <course>86.38</course>
  <speed>0.03</speed>
  <fix>3d</fix>
</trkpt>
<trkpt lat="40.0728103" lon="-105.2306654">
  <ele>1595.45</ele>
  <time>2026-08-27T18:29:06Z</time>
  <course>14.06</course>
  <speed>0.022360679774997897</speed>
  <fix>3d</fix>
</trkpt>
<trkpt lat="40.0728101" lon="-105.2306652">
  <ele>1595.36</ele>
  <time>2026-08-27T18:29:06Z</time>
  <course>86.6</course>
  <speed>0.03</speed>
  <fix>3d</fix>
</trkpt>
<trkpt lat="40.0728103" lon="-105.2306653">
  <ele>1595.45</ele>
  <time>2026-08-27T18:29:06Z</time>
  <course>14.07</course>
  <speed>0.022360679774997897</speed>
  <fix>3d</fix>
</trkpt>
<trkpt lat="40.0728101" lon="-105.2306651">
  <ele>1595.36</ele>
  <time>2026-08-27T18:29:06Z</time>
  <course>87.17</course>
  <speed>0.03</speed>
  <fix>3d</fix>
</trkpt>
<trkpt lat="40.0728103" lon="-105.2306652">
  <ele>1595.45</ele>
  <time>2026-08-27T18:29:06Z</time>
  <course>14.03</course>
  <speed>0.044721359549995794</speed>
  <fix>3d</fix>
</trkpt>
<trkpt lat="40.0728101" lon="-105.2306651">
  <ele>1595.37</ele>
  <time>2026-08-27T18:29:06Z</time>
  <course>80.18</course>
  <speed>0.03</speed>
  <fix>3d</fix>
</trkpt>
<trkpt lat="40.0728103" lon="-105.2306651">
  <ele>1595.45</ele>
  <time>2026-08-27T18:29:06Z</time>
  <course>14.16</course>
  <speed>0.05</speed>
  <fix>3d</fix>
</trkpt>
<trkpt lat="40.0728101" lon="-105.230665">
  <ele>1595.37</ele>
  <time>2026-08-27T18:29:06Z</time>
  <course>65.2</course>
  <speed>0.04</speed>
  <fix>3d</fix>
</trkpt>
<trkpt lat="40.0728103" lon="-105.230665">
  <ele>1595.46</ele>
  <time>2026-08-27T18:29:06Z</time>
  <course>14.15</course>
  <speed>0.044721359549995794</speed>
  <fix>3d</fix>
</trkpt>
<trkpt lat="40.0728101" lon="-105.2306649">
  <ele>1595.37</ele>
  <time>2026-08-27T18:29:06Z</time>
  <course>52.7</course>
  <speed>0.05</speed>
  <fix>3d</fix>
</trkpt>
<trkpt lat="40.0728103" lon="-105.2306649">
  <ele>1595.46</ele>
  <time>2026-08-27T18:29:06Z</time>
  <course>14.2</course>
  <speed>0.03</speed>
  <fix>3d</fix>
</trkpt>
<trkpt lat="40.0728101" lon="-105.2306648">
  <ele>1595.38</ele>
  <time>2026-08-27T18:29:06Z</time>
  <course>49.96</course>
  <speed>0.03</speed>
  <fix>3d</fix>
</trkpt>
<trkpt lat="40.0728103" lon="-105.2306649">
  <ele>1595.46</ele>
  <time>2026-08-27T18:29:06Z</time>
  <course>14.32</course>
  <speed>0.022360679774997897</speed>
  <fix>3d</fix>
</trkpt>
<trkpt lat="40.0728102" lon="-105.2306647">
  <ele>1595.38</ele>
  <time>2026-08-27T18:29:06Z</time>
  <course>66.98</course>
  <speed>0.03</speed>
  <fix>3d</fix>
</trkpt>
<trkpt lat="40.0728103" lon="-105.2306648">
  <ele>1595.47</ele>
  <time>2026-08-27T18:29:06Z</time>
  <course>14.29</course>
  <speed>0.022360679774997897</speed>
  <fix>3d</fix>
</trkpt>
<trkpt lat="40.0728102" lon="-105.2306646">
  <ele>1595.38</ele>
  <time>2026-08-27T18:29:06Z</time>
  <course>71.99</course>
  <speed>0.02</speed>
  <fix>3d</fix>
</trkpt>
<trkpt lat="40.0728103" lon="-105.2306648">
  <ele>1595.46</ele>
  <time>2026-08-27T18:29:06Z</time>
  <course>14.19</course>
  <speed>0.01</speed>
  <fix>3d</fix>
</trkpt>
<trkpt lat="40.0728102" lon="-105.2306646">
  <ele>1595.38</ele>
  <time>2026-08-27T18:29:06Z</time>
  <course>89.6</course>
  <speed>0.01</speed>
  <fix>3d</fix>
</trkpt>
<trkpt lat="40.0728103" lon="-105.2306647">
  <ele>1595.46</ele>
  <time>2026-08-27T18:29:06Z</time>
  <course>14.31</course>
  <speed>0.0</speed>
  <fix>3d</fix>
</trkpt>
<trkpt lat="40.0728102" lon="-105.2306646">
  <ele>1595.39</ele>
  <time>2026-08-27T18:29:06Z</time>
  <course>107.88</course>
  <speed>0.02</speed>
  <fix>3d</fix>
</trkpt>
<trkpt lat="40.0728103" lon="-105.2306647">
  <ele>1595.46</ele>
  <time>2026-08-27T18:29:06Z</time>
  <course>14.31</course>
  <speed>0.01</speed>
  <fix>3d</fix>
</trkpt>
<trkpt lat="40.0728102" lon="-105.2306645">
  <ele>1595.39</ele>
  <time>2026-08-27T18:29:06Z</time>
  <course>107.33</course>
  <speed>0.03</speed>
  <fix>3d</fix>
</trkpt>
<trkpt lat="40.0728103" lon="-105.2306646">
  <ele>1595.46</ele>
  <time>2026-08-27T18:29:06Z</time>
  <course>14.16</course>
  <speed>0.0</speed>
  <fix>3d</fix>
</trkpt>
<trkpt lat="40.0728102" lon="-105.2306644">
  <ele>1595.39</ele>
  <time>2026-08-27T18:29:06Z</time>
  <course>116.2</course>
  <speed>0.02</speed>
  <fix>3d</fix>
</trkpt>
<trkpt lat="40.0728103" lon="-105.2306645">
  <ele>1595.47</ele>
  <time>2026-08-27T18:29:06Z</time>
  <course>14.27</course>
  <speed>0.0</speed>
  <fix>3d</fix>
</trkpt>
<trkpt lat="40.0728102" lon="-105.2306644">
  <ele>1595.39</ele>
  <time>2026-08-27T18:29:06Z</time>
  <course>122.17</course>
  <speed>0.02</speed>
  <fix>3d</fix>
</trkpt>
<trkpt lat="40.0728103" lon="-105.2306645">
  <ele>1595.48</ele>
  <time>2026-08-27T18:29:06Z</time>
  <course>14.34</course>
  <speed>0.01</speed>
  <fix>3d</fix>
</trkpt>
<trkpt lat="40.0728102" lon="-105.2306643">
  <ele>1595.39</ele>
  <time>2026-08-27T18:29:06Z</time>
  <course>116.05</course>
  <speed>0.03</speed>
  <fix>3d</fix>
</trkpt>
<trkpt lat="40.0728103" lon="-105.2306644">
  <ele>1595.48</ele>
  <time>2026-08-27T18:29:06Z</time>
  <course>14.21</course>
  <speed>0.0</speed>
  <fix>3d</fix>
</trkpt>
<trkpt lat="40.0728102" lon="-105.2306643">
  <ele>1595.39</ele>
  <time>2026-08-27T18:29:06Z</time>
  <course>120.42</course>
  <speed>0.02</speed>
  <fix>3d</fix>
</trkpt>
<trkpt lat="40.0728103" lon="-105.2306644">
  <ele>1595.49</ele>
  <time>2026-08-27T18:29:06Z</time>
  <course>14.28</course>
  <speed>0.0</speed>
  <fix>3d</fix>
</trkpt>
<trkpt lat="40.0728101" lon="-105.2306642">
  <ele>1595.39</ele>
  <time>2026-08-27T18:29:06Z</time>
  <course>129.93</course>
  <speed>0.02</speed>
  <fix>3d</fix>
</trkpt>
<trkpt lat="40.0728103" lon="-105.2306643">
  <ele>1595.49</ele>
  <time>2026-08-27T18:29:06Z</time>
  <course>14.38</course>
  <speed>0.01</speed>
  <fix>3d</fix>
</trkpt>
<trkpt lat="40.0728101" lon="-105.2306641">
  <ele>1595.39</ele>
  <time>2026-08-27T18:29:06Z</time>
  <course>122.09</course>
  <speed>0.03</speed>
  <fix>3d</fix>
</trkpt>
<trkpt lat="40.0728102" lon="-105.2306643">
  <ele>1595.49</ele>
  <time>2026-08-27T18:29:07Z</time>
  <course>14.3</course>
  <speed>0.01</speed>
  <fix>3d</fix>
</trkpt>
<trkpt lat="40.0728101" lon="-105.2306641">
  <ele>1595.39</ele>
  <time>2026-08-27T18:29:07Z</time>
  <course>121.47</course>
  <speed>0.02</speed>
  <fix>3d</fix>
</trkpt>
<trkpt lat="40.0728102" lon="-105.2306642">
  <ele>1595.48</ele>
  <time>2026-08-27T18:29:07Z</time>
  <course>14.24</course>
  <speed>0.0</speed>
  <fix>3d</fix>
</trkpt>
<trkpt lat="40.0728101" lon="-105.2306641">
  <ele>1595.39</ele>
  <time>2026-08-27T18:29:07Z</time>
  <course>132.4</course>
  <speed>0.02</speed>
  <fix>3d</fix>
</trkpt>
<trkpt lat="40.0728102" lon="-105.2306642">
  <ele>1595.48</ele>
  <time>2026-08-27T18:29:07Z</time>
  <course>14.35</course>
  <speed>0.01</speed>
  <fix>3d</fix>
</trkpt>
<trkpt lat="40.07281" lon="-105.230664">
  <ele>1595.38</ele>
  <time>2026-08-27T18:29:07Z</time>
  <course>125.73</course>
  <speed>0.03</speed>
  <fix>3d</fix>
</trkpt>
<trkpt lat="40.0728102" lon="-105.2306641">
  <ele>1595.48</ele>
  <time>2026-08-27T18:29:07Z</time>
  <course>14.34</course>
  <speed>0.01</speed>
  <fix>3d</fix>
</trkpt>
<trkpt lat="40.0728099" lon="-105.2306639">
  <ele>1595.38</ele>
  <time>2026-08-27T18:29:07Z</time>
  <course>120.79</course>
  <speed>0.03</speed>
  <fix>3d</fix>
</trkpt>
<trkpt lat="40.0728101" lon="-105.2306641">
  <ele>1595.48</ele>
  <time>2026-08-27T18:29:07Z</time>
  <course>14.21</course>
  <speed>0.0</speed>
  <fix>3d</fix>
</trkpt>
<trkpt lat="40.0728099" lon="-105.2306639">
  <ele>1595.38</ele>
  <time>2026-08-27T18:29:07Z</time>
  <course>131.09</course>
  <speed>0.02</speed>
  <fix>3d</fix>
</trkpt>
<trkpt lat="40.0728101" lon="-105.230664">
  <ele>1595.48</ele>
  <time>2026-08-27T18:29:07Z</time>
  <course>14.3</course>
  <speed>0.01</speed>
  <fix>3d</fix>
</trkpt>
<trkpt lat="40.0728099" lon="-105.2306638">
  <ele>1595.37</ele>
  <time>2026-08-27T18:29:07Z</time>
  <course>134.56</course>
  <speed>0.03</speed>
  <fix>3d</fix>
</trkpt>
<trkpt lat="40.07281" lon="-105.230664">
  <ele>1595.47</ele>
  <time>2026-08-27T18:29:07Z</time>
  <course>14.14</course>
  <speed>0.02</speed>
  <fix>3d</fix>
</trkpt>
<trkpt lat="40.0728098" lon="-105.2306638">
  <ele>1595.37</ele>
  <time>2026-08-27T18:29:07Z</time>
  <course>152.26</course>
  <speed>0.03</speed>
  <fix>3d</fix>
</trkpt>
<trkpt lat="40.0728099" lon="-105.2306639">
  <ele>1595.47</ele>
  <time>2026-08-27T18:29:07Z</time>
  <course>14.07</course>
  <speed>0.02</speed>
  <fix>3d</fix>
</trkpt>
<trkpt lat="40.0728098" lon="-105.2306638">
  <ele>1595.37</ele>
  <time>2026-08-27T18:29:07Z</time>
  <course>163.43</course>
  <speed>0.04</speed>
  <fix>3d</fix>
</trkpt>
<trkpt lat="40.0728099" lon="-105.2306639">
  <ele>1595.46</ele>
  <time>2026-08-27T18:29:07Z</time>
  <course>14.06</course>
  <speed>0.01414213562373095</speed>
  <fix>3d</fix>
</trkpt>
<trkpt lat="40.0728097" lon="-105.2306637">
  <ele>1595.36</ele>
  <time>2026-08-27T18:29:07Z</time>
  <course>150.22</course>
  <speed>0.04</speed>
  <fix>3d</fix>
</trkpt>
<trkpt lat="40.0728098" lon="-105.2306638">
  <ele>1595.47</ele>
  <time>2026-08-27T18:29:07Z</time>
  <course>14.06</course>
  <speed>0.01</speed>
  <fix>3d</fix>
</trkpt>
<trkpt lat="40.0728097" lon="-105.2306636">
  <ele>1595.36</ele>
  <time>2026-08-27T18:29:07Z</time>
  <course>139.14</course>
  <speed>0.03</speed>
  <fix>3d</fix>
</trkpt>
<trkpt lat="40.0728098" lon="-105.2306638">
  <ele>1595.46</ele>
  <time>2026-08-27T18:29:07Z</time>
  <course>14.06</course>
  <speed>0.01</speed>
  <fix>3d</fix>
</trkpt>
<trkpt lat="40.0728096" lon="-105.2306636">
  <ele>1595.36</ele>
  <time>2026-08-27T18:29:07Z</time>
  <course>128.45</course>
  <speed>0.03</speed>
  <fix>3d</fix>
</trkpt>
<trkpt lat="40.0728098" lon="-105.2306637">
  <ele>1595.47</ele>
  <time>2026-08-27T18:29:07Z</time>
  <course>14.06</course>
  <speed>0.01</speed>
  <fix>3d</fix>
</trkpt>
<trkpt lat="40.0728096" lon="-105.2306635">
  <ele>1595.36</ele>
  <time>2026-08-27T18:29:07Z</time>
  <course>118.08</course>
  <speed>0.03</speed>
  <fix>3d</fix>
</trkpt>
<trkpt lat="40.0728097" lon="-105.2306636">
  <ele>1595.47</ele>
  <time>2026-08-27T18:29:07Z</time>
  <course>14.07</course>
  <speed>0.01414213562373095</speed>
  <fix>3d</fix>
</trkpt>
<trkpt lat="40.0728096" lon="-105.2306634">
  <ele>1595.36</ele>
  <time>2026-08-27T18:29:07Z</time>
  <course>108.48</course>
  <speed>0.03</speed>
  <fix>3d</fix>
</trkpt>
<trkpt lat="40.0728097" lon="-105.2306635">
  <ele>1595.47</ele>
  <time>2026-08-27T18:29:07Z</time>
  <course>14.09</course>
  <speed>0.01414213562373095</speed>
  <fix>3d</fix>
</trkpt>
<trkpt lat="40.0728096" lon="-105.2306634">
  <ele>1595.37</ele>
  <time>2026-08-27T18:29:07Z</time>
  <course>99.54</course>
  <speed>0.03</speed>
  <fix>3d</fix>
</trkpt>
<trkpt lat="40.0728097" lon="-105.2306635">
  <ele>1595.47</ele>
  <time>2026-08-27T18:29:07Z</time>
  <course>14.08</course>
  <speed>0.022360679774997897</speed>
  <fix>3d</fix>
</trkpt>
<trkpt lat="40.0728096" lon="-105.2306633">
  <ele>1595.37</ele>
  <time>2026-08-27T18:29:07Z</time>
  <course>92.01</course>
  <speed>0.03</speed>
  <fix>3d</fix>
</trkpt>
<trkpt lat="40.0728097" lon="-105.2306634">
  <ele>1595.47</ele>
  <time>2026-08-27T18:29:07Z</time>
  <course>14.09</course>
  <speed>0.022360679774997897</speed>
  <fix>3d</fix>
</trkpt>
<trkpt lat="40.0728096" lon="-105.2306632">
  <ele>1595.37</ele>
  <time>2026-08-27T18:29:07Z</time>
  <course>86.01</course>
  <speed>0.03</speed>
  <fix>3d</fix>
</trkpt>
<trkpt lat="40.0728097" lon="-105.2306633">
  <ele>1595.47</ele>
  <time>2026-08-27T18:29:07Z</time>
  <course>14.09</course>
  <speed>0.022360679774997897</speed>
  <fix>3d</fix>
</trkpt>
<trkpt lat="40.0728096" lon="-105.2306632">
  <ele>1595.36</ele>
  <time>2026-08-27T18:29:07Z</time>
  <course>81.24</course>
  <speed>0.03</speed>
  <fix>3d</fix>
</trkpt>
<trkpt lat="40.0728097" lon="-105.2306632">
  <ele>1595.47</ele>
  <time>2026-08-27T18:29:07Z</time>
  <course>14.09</course>
  <speed>0.022360679774997897</speed>
  <fix>3d</fix>
</trkpt>
<trkpt lat="40.0728096" lon="-105.2306631">
  <ele>1595.36</ele>
  <time>2026-08-27T18:29:07Z</time>
  <course>77.39</course>
  <speed>0.03</speed>
  <fix>3d</fix>
</trkpt>
<trkpt lat="40.0728097" lon="-105.2306632">
  <ele>1595.47</ele>
  <time>2026-08-27T18:29:07Z</time>
  <course>14.09</course>
  <speed>0.0316227766016838</speed>
  <fix>3d</fix>
</trkpt>
<trkpt lat="40.0728096" lon="-105.230663">
  <ele>1595.36</ele>
  <time>2026-08-27T18:29:07Z</time>
  <course>74.18</course>
  <speed>0.03</speed>
  <fix>3d</fix>
</trkpt>
<trkpt lat="40.0728097" lon="-105.2306631">
  <ele>1595.47</ele>
  <time>2026-08-27T18:29:07Z</time>
  <course>14.09</course>
  <speed>0.0316227766016838</speed>
  <fix>3d</fix>
</trkpt>
<trkpt lat="40.0728096" lon="-105.2306629">
  <ele>1595.36</ele>
  <time>2026-08-27T18:29:07Z</time>
  <course>72.46</course>
  <speed>0.03</speed>
  <fix>3d</fix>
</trkpt>
<trkpt lat="40.0728097" lon="-105.230663">
  <ele>1595.47</ele>
  <time>2026-08-27T18:29:07Z</time>
  <course>14.09</course>
  <speed>0.0316227766016838</speed>
  <fix>3d</fix>
</trkpt>
<trkpt lat="40.0728096" lon="-105.2306629">
  <ele>1595.36</ele>
  <time>2026-08-27T18:29:07Z</time>
  <course>72.25</course>
  <speed>0.03</speed>
  <fix>3d</fix>
</trkpt>
<trkpt lat="40.0728098" lon="-105.2306629">
  <ele>1595.47</ele>
  <time>2026-08-27T18:29:07Z</time>
  <course>14.1</course>
  <speed>0.0316227766016838</speed>
  <fix>3d</fix>
</trkpt>
<trkpt lat="40.0728096" lon="-105.2306628">
  <ele>1595.37</ele>
  <time>2026-08-27T18:29:07Z</time>
  <course>72.31</course>
  <speed>0.03</speed>
  <fix>3d</fix>
</trkpt>
<trkpt lat="40.0728098" lon="-105.2306629">
  <ele>1595.47</ele>
  <time>2026-08-27T18:29:07Z</time>
  <course>14.1</course>
  <speed>0.05830951894845301</speed>
  <fix>3d</fix>
</trkpt>
<trkpt lat="40.0728096" lon="-105.2306627">
  <ele>1595.37</ele>
  <time>2026-08-27T18:29:07Z</time>
  <course>57.45</course>
  <speed>0.04</speed>
  <fix>3d</fix>
</trkpt>
<trkpt lat="40.0728098" lon="-105.2306628">
  <ele>1595.47</ele>
  <time>2026-08-27T18:29:07Z</time>
  <course>14.17</course>
  <speed>0.05099019513592785</speed>
  <fix>3d</fix>
</trkpt>
<trkpt lat="40.0728096" lon="-105.2306626">
  <ele>1595.36</ele>
  <time>2026-08-27T18:29:07Z</time>
  <course>50.4</course>
  <speed>0.05</speed>
  <fix>3d</fix>
</trkpt>
<trkpt lat="40.0728099" lon="-105.2306627">
  <ele>1595.47</ele>
  <time>2026-08-27T18:29:07Z</time>
  <course>14.32</course>
  <speed>0.044721359549995794</speed>
  <fix>3d</fix>
</trkpt>
<trkpt lat="40.0728097" lon="-105.2306625">
  <ele>1595.36</ele>
  <time>2026-08-27T18:29:07Z</time>
  <course>54.06</course>
  <speed>0.05</speed>
  <fix>3d</fix>
</trkpt>
<trkpt lat="40.0728099" lon="-105.2306626">
  <ele>1595.47</ele>
  <time>2026-08-27T18:29:07Z</time>
  <course>14.28</course>
  <speed>0.0316227766016838</speed>
  <fix>3d</fix>
</trkpt>
<trkpt lat="40.0728097" lon="-105.2306624">
  <ele>1595.36</ele>
  <time>2026-08-27T18:29:07Z</time>
  <course>51.55</course>
  <speed>0.04</speed>
  <fix>3d</fix>
</trkpt>
<trkpt lat="40.0728099" lon="-105.2306625">
  <ele>1595.47</ele>
  <time>2026-08-27T18:29:07Z</time>
  <course>14.19</course>
  <speed>0.02</speed>
  <fix>3d</fix>
</trkpt>
<trkpt lat="40.0728098" lon="-105.2306624">
  <ele>1595.36</ele>
  <time>2026-08-27T18:29:07Z</time>
  <course>55.51</course>
  <speed>0.02</speed>
  <fix>3d</fix>
</trkpt>
<trkpt lat="40.0728099" lon="-105.2306625">
  <ele>1595.47</ele>
  <time>2026-08-27T18:29:07Z</time>
  <course>14.28</course>
  <speed>0.01</speed>
  <fix>3d</fix>
</trkpt>
<trkpt lat="40.0728098" lon="-105.2306623">
  <ele>1595.36</ele>
  <time>2026-08-27T18:29:07Z</time>
  <course>84.5</course>
  <speed>0.02</speed>
  <fix>3d</fix>
</trkpt>
<trkpt lat="40.0728099" lon="-105.2306624">
  <ele>1595.47</ele>
  <time>2026-08-27T18:29:07Z</time>
  <course>14.33</course>
  <speed>0.01</speed>
  <fix>3d</fix>
</trkpt>
<trkpt lat="40.0728098" lon="-105.2306622">
  <ele>1595.36</ele>
  <time>2026-08-27T18:29:07Z</time>
  <course>95.63</course>
  <speed>0.03</speed>
  <fix>3d</fix>
</trkpt>
<trkpt lat="40.0728099" lon="-105.2306624">
  <ele>1595.46</ele>
  <time>2026-08-27T18:29:07Z</time>
  <course>14.19</course>
  <speed>0.01</speed>
  <fix>3d</fix>
</trkpt>
<trkpt lat="40.0728098" lon="-105.2306622">
  <ele>1595.36</ele>
  <time>2026-08-27T18:29:07Z</time>
  <course>102.59</course>
  <speed>0.02</speed>
  <fix>3d</fix>
</trkpt>
<trkpt lat="40.0728099" lon="-105.2306623">
  <ele>1595.46</ele>
  <time>2026-08-27T18:29:07Z</time>
  <course>14.19</course>
  <speed>0.0</speed>
  <fix>3d</fix>
</trkpt>
<trkpt lat="40.0728098" lon="-105.2306621">
  <ele>1595.36</ele>
  <time>2026-08-27T18:29:07Z</time>
  <course>114.99</course>
  <speed>0.02</speed>
  <fix>3d</fix>
</trkpt>
<trkpt lat="40.0728099" lon="-105.2306622">
  <ele>1595.46</ele>
  <time>2026-08-27T18:29:07Z</time>
  <course>14.28</course>
  <speed>0.01</speed>
  <fix>3d</fix>
</trkpt>
<trkpt lat="40.0728098" lon="-105.230662">
  <ele>1595.36</ele>
  <time>2026-08-27T18:29:07Z</time>
  <course>115.31</course>
  <speed>0.03</speed>
  <fix>3d</fix>
</trkpt>
<trkpt lat="40.0728099" lon="-105.2306622">
  <ele>1595.46</ele>
  <time>2026-08-27T18:29:07Z</time>
  <course>14.25</course>
  <speed>0.01</speed>
  <fix>3d</fix>
</trkpt>
<trkpt lat="40.0728098" lon="-105.230662">
  <ele>1595.36</ele>
  <time>2026-08-27T18:29:07Z</time>
  <course>115.65</course>
  <speed>0.03</speed>
  <fix>3d</fix>
</trkpt>
<trkpt lat="40.0728099" lon="-105.2306621">
  <ele>1595.46</ele>
  <time>2026-08-27T18:29:07Z</time>
  <course>14.14</course>
  <speed>0.0</speed>
  <fix>3d</fix>
</trkpt>
<trkpt lat="40.0728098" lon="-105.230662">
  <ele>1595.36</ele>
  <time>2026-08-27T18:29:07Z</time>
  <course>125.47</course>
  <speed>0.02</speed>
  <fix>3d</fix>
</trkpt>
<trkpt lat="40.0728099" lon="-105.2306621">
  <ele>1595.47</ele>
  <time>2026-08-27T18:29:07Z</time>
  <course>14.24</course>
  <speed>0.0</speed>
  <fix>3d</fix>
</trkpt>
<trkpt lat="40.0728098" lon="-105.2306619">
  <ele>1595.36</ele>
  <time>2026-08-27T18:29:07Z</time>
  <course>127.09</course>
  <speed>0.02</speed>
  <fix>3d</fix>
</trkpt>
<trkpt lat="40.0728099" lon="-105.230662">
  <ele>1595.47</ele>
  <time>2026-08-27T18:29:07Z</time>
  <course>14.3</course>
  <speed>0.01</speed>
  <fix>3d</fix>
</trkpt>
<trkpt lat="40.0728097" lon="-105.2306619">
  <ele>1595.36</ele>
  <time>2026-08-27T18:29:07Z</time>
  <course>122.13</course>
  <speed>0.03</speed>
  <fix>3d</fix>
</trkpt>
<trkpt lat="40.0728098" lon="-105.230662">
  <ele>1595.47</ele>
  <time>2026-08-27T18:29:07Z</time>
  <course>14.21</course>
  <speed>0.0</speed>
  <fix>3d</fix>
</trkpt>
<trkpt lat="40.0728097" lon="-105.2306618">
  <ele>1595.37</ele>
  <time>2026-08-27T18:29:07Z</time>
  <course>126.13</course>
  <speed>0.02</speed>
  <fix>3d</fix>
</trkpt>
<trkpt lat="40.0728098" lon="-105.2306619">
  <ele>1595.47</ele>
  <time>2026-08-27T18:29:07Z</time>
  <course>14.19</course>
  <speed>0.0</speed>
  <fix>3d</fix>
</trkpt>
<trkpt lat="40.0728097" lon="-105.2306617">
  <ele>1595.37</ele>
  <time>2026-08-27T18:29:07Z</time>
  <course>134.76</course>
  <speed>0.02</speed>
  <fix>3d</fix>
</trkpt>
<trkpt lat="40.0728098" lon="-105.2306619">
  <ele>1595.47</ele>
  <time>2026-08-27T18:29:07Z</time>
  <course>14.3</course>
  <speed>0.0</speed>
  <fix>3d</fix>
</trkpt>
<trkpt lat="40.0728096" lon="-105.2306617">
  <ele>1595.37</ele>
  <time>2026-08-27T18:29:07Z</time>
  <course>128.83</course>
  <speed>0.03</speed>
  <fix>3d</fix>
</trkpt>
<trkpt lat="40.0728098" lon="-105.2306618">
  <ele>1595.47</ele>
  <time>2026-08-27T18:29:07Z</time>
  <course>14.32</course>
  <speed>0.01</speed>
  <fix>3d</fix>
</trkpt>
<trkpt lat="40.0728096" lon="-105.2306616">
  <ele>1595.37</ele>
  <time>2026-08-27T18:29:07Z</time>
  <course>125.96</course>
  <speed>0.03</speed>
  <fix>3d</fix>
</trkpt>
<trkpt lat="40.0728097" lon="-105.2306618">
  <ele>1595.47</ele>
  <time>2026-08-27T18:29:07Z</time>
  <course>14.18</course>
  <speed>0.0</speed>
  <fix>3d</fix>
</trkpt>
<trkpt lat="40.0728096" lon="-105.2306615">
  <ele>1595.37</ele>
  <time>2026-08-27T18:29:07Z</time>
  <course>134.63</course>
  <speed>0.02</speed>
  <fix>3d</fix>
</trkpt>
<trkpt lat="40.0728097" lon="-105.2306617">
  <ele>1595.47</ele>
  <time>2026-08-27T18:29:07Z</time>
  <course>14.21</course>
  <speed>0.02</speed>
  <fix>3d</fix>
</trkpt>
<trkpt lat="40.0728095" lon="-105.2306615">
  <ele>1595.37</ele>
  <time>2026-08-27T18:29:07Z</time>
  <course>142.92</course>
  <speed>0.03</speed>
  <fix>3d</fix>
</trkpt>
<trkpt lat="40.0728096" lon="-105.2306617">
  <ele>1595.47</ele>
  <time>2026-08-27T18:29:07Z</time>
  <course>14.13</course>
  <speed>0.02</speed>
  <fix>3d</fix>
</trkpt>
<trkpt lat="40.0728094" lon="-105.2306615">
  <ele>1595.37</ele>
  <time>2026-08-27T18:29:07Z</time>
  <course>156.1</course>
  <speed>0.04</speed>
  <fix>3d</fix>
</trkpt>
<trkpt lat="40.0728095" lon="-105.2306616">
  <ele>1595.48</ele>
  <time>2026-08-27T18:29:07Z</time>
  <course>14.07</course>
  <speed>0.01</speed>
  <fix>3d</fix>
</trkpt>
<trkpt lat="40.0728094" lon="-105.2306615">
  <ele>1595.37</ele>
  <time>2026-08-27T18:29:07Z</time>
  <course>162.58</course>
  <speed>0.04</speed>
  <fix>3d</fix>
</trkpt>
<trkpt lat="40.0728095" lon="-105.2306616">
  <ele>1595.48</ele>
  <time>2026-08-27T18:29:07Z</time>
  <course>14.08</course>
  <speed>0.01</speed>
  <fix>3d</fix>
</trkpt>
<trkpt lat="40.0728093" lon="-105.2306614">
  <ele>1595.37</ele>
  <time>2026-08-27T18:29:07Z</time>
  <course>151.69</course>
  <speed>0.04</speed>
  <fix>3d</fix>
</trkpt>
<trkpt lat="40.0728094" lon="-105.2306615">
  <ele>1595.48</ele>
  <time>2026-08-27T18:29:07Z</time>
  <course>14.09</course>
  <speed>0.01</speed>
  <fix>3d</fix>
</trkpt>
<trkpt lat="40.0728092" lon="-105.2306613">
  <ele>1595.36</ele>
  <time>2026-08-27T18:29:07Z</time>
  <course>141.75</course>
  <speed>0.03</speed>
  <fix>3d</fix>
</trkpt>
<trkpt lat="40.0728094" lon="-105.2306615">
  <ele>1595.48</ele>
  <time>2026-08-27T18:29:07Z</time>
  <course>14.11</course>
  <speed>0.01</speed>
  <fix>3d</fix>
</trkpt>
<trkpt lat="40.0728091" lon="-105.2306613">
  <ele>1595.36</ele>
  <time>2026-08-27T18:29:07Z</time>
  <course>132.89</course>
  <speed>0.03</speed>
  <fix>3d</fix>
</trkpt>
<trkpt lat="40.0728093" lon="-105.2306614">
  <ele>1595.48</ele>
  <time>2026-08-27T18:29:07Z</time>
  <course>14.1</course>
  <speed>0.01</speed>
  <fix>3d</fix>
</trkpt>
<trkpt lat="40.0728091" lon="-105.2306612">
  <ele>1595.36</ele>
  <time>2026-08-27T18:29:07Z</time>
  <course>124.16</course>
  <speed>0.03</speed>
  <fix>3d</fix>
</trkpt>
<trkpt lat="40.0728093" lon="-105.2306613">
  <ele>1595.48</ele>
  <time>2026-08-27T18:29:07Z</time>
  <course>14.1</course>
  <speed>0.01</speed>
  <fix>3d</fix>
</trkpt>
<trkpt lat="40.0728091" lon="-105.2306612">
  <ele>1595.36</ele>
  <time>2026-08-27T18:29:07Z</time>
  <course>117.02</course>
  <speed>0.03</speed>
  <fix>3d</fix>
</trkpt>
<trkpt lat="40.0728093" lon="-105.2306613">
  <ele>1595.47</ele>
  <time>2026-08-27T18:29:07Z</time>
  <course>14.09</course>
  <speed>0.01414213562373095</speed>
  <fix>3d</fix>
</trkpt>
<trkpt lat="40.0728091" lon="-105.2306611">
  <ele>1595.35</ele>
  <time>2026-08-27T18:29:07Z</time>
  <course>110.81</course>
  <speed>0.03</speed>
  <fix>3d</fix>
</trkpt>
<trkpt lat="40.0728093" lon="-105.2306612">
  <ele>1595.47</ele>
  <time>2026-08-27T18:29:07Z</time>
  <course>14.08</course>
  <speed>0.01414213562373095</speed>
  <fix>3d</fix>
</trkpt>
<trkpt lat="40.0728091" lon="-105.230661">
  <ele>1595.35</ele>
  <time>2026-08-27T18:29:07Z</time>
  <course>105.53</course>
  <speed>0.03</speed>
  <fix>3d</fix>
</trkpt>
<trkpt lat="40.0728092" lon="-105.2306611">
  <ele>1595.46</ele>
  <time>2026-08-27T18:29:07Z</time>
  <course>14.08</course>
  <speed>0.01414213562373095</speed>
  <fix>3d</fix>
</trkpt>
<trkpt lat="40.0728091" lon="-105.2306609">
  <ele>1595.35</ele>
  <time>2026-08-27T18:29:07Z</time>
  <course>100.89</course>
  <speed>0.03</speed>
  <fix>3d</fix>
</trkpt>
<trkpt lat="40.0728092" lon="-105.230661">
  <ele>1595.46</ele>
  <time>2026-08-27T18:29:07Z</time>
  <course>14.07</course>
  <speed>0.01414213562373095</speed>
  <fix>3d</fix>
</trkpt>
<trkpt lat="40.0728091" lon="-105.2306608">
  <ele>1595.35</ele>
  <time>2026-08-27T18:29:07Z</time>
  <course>96.49</course>
  <speed>0.03</speed>
  <fix>3d</fix>
</trkpt>
<trkpt lat="40.0728092" lon="-105.2306609">
  <ele>1595.45</ele>
  <time>2026-08-27T18:29:07Z</time>
  <course>14.08</course>
  <speed>0.01414213562373095</speed>
  <fix>3d</fix>
</trkpt>
<trkpt lat="40.0728091" lon="-105.2306608">
  <ele>1595.35</ele>
  <time>2026-08-27T18:29:07Z</time>
  <course>93.25</course>
  <speed>0.03</speed>
  <fix>3d</fix>
</trkpt>
<trkpt lat="40.0728092" lon="-105.2306609">
  <ele>1595.45</ele>
  <time>2026-08-27T18:29:07Z</time>
  <course>14.03</course>
  <speed>0.01414213562373095</speed>
  <fix>3d</fix>
</trkpt>
<trkpt lat="40.0728091" lon="-105.2306607">
  <ele>1595.35</ele>
  <time>2026-08-27T18:29:07Z</time>
  <course>91.5</course>
  <speed>0.03</speed>
  <fix>3d</fix>
</trkpt>
<trkpt lat="40.0728092" lon="-105.2306608">
  <ele>1595.45</ele>
  <time>2026-08-27T18:29:07Z</time>
  <course>14.02</course>
  <speed>0.01414213562373095</speed>
  <fix>3d</fix>
</trkpt>
<trkpt lat="40.0728091" lon="-105.2306606">
  <ele>1595.35</ele>
  <time>2026-08-27T18:29:07Z</time>
  <course>91.24</course>
  <speed>0.03</speed>
  <fix>3d</fix>
</trkpt>
<trkpt lat="40.0728092" lon="-105.2306607">
  <ele>1595.45</ele>
  <time>2026-08-27T18:29:07Z</time>
  <course>14.05</course>
  <speed>0.01414213562373095</speed>
  <fix>3d</fix>
</trkpt>
<trkpt lat="40.0728091" lon="-105.2306605">
  <ele>1595.36</ele>
  <time>2026-08-27T18:29:07Z</time>
  <course>91.52</course>
  <speed>0.03</speed>
  <fix>3d</fix>
</trkpt>
<trkpt lat="40.0728092" lon="-105.2306606">
  <ele>1595.45</ele>
  <time>2026-08-27T18:29:07Z</time>
  <course>14.06</course>
  <speed>0.022360679774997897</speed>
  <fix>3d</fix>
</trkpt>
<trkpt lat="40.0728091" lon="-105.2306605">
  <ele>1595.36</ele>
  <time>2026-08-27T18:29:07Z</time>
  <course>91.57</course>
  <speed>0.03</speed>
  <fix>3d</fix>
</trkpt>
<trkpt lat="40.0728092" lon="-105.2306605">
  <ele>1595.46</ele>
  <time>2026-08-27T18:29:07Z</time>
  <course>14.07</course>
  <speed>0.05</speed>
  <fix>3d</fix>
</trkpt>
<trkpt lat="40.0728091" lon="-105.2306604">
  <ele>1595.37</ele>
  <time>2026-08-27T18:29:07Z</time>
  <course>70.57</course>
  <speed>0.03</speed>
  <fix>3d</fix>
</trkpt>
<trkpt lat="40.0728092" lon="-105.2306604">
  <ele>1595.46</ele>
  <time>2026-08-27T18:29:07Z</time>
  <course>14.13</course>
  <speed>0.0412310562561766</speed>
  <fix>3d</fix>
</trkpt>
<trkpt lat="40.0728091" lon="-105.2306603">
  <ele>1595.37</ele>
  <time>2026-08-27T18:29:07Z</time>
  <course>57.62</course>
  <speed>0.04</speed>
  <fix>3d</fix>
</trkpt>
<trkpt lat="40.0728093" lon="-105.2306604">
  <ele>1595.47</ele>
  <time>2026-08-27T18:29:07Z</time>
  <course>14.29</course>
  <speed>0.03605551275463989</speed>
  <fix>3d</fix>
</trkpt>
<trkpt lat="40.0728091" lon="-105.2306602">
  <ele>1595.37</ele>
  <time>2026-08-27T18:29:07Z</time>
  <course>60.28</course>
  <speed>0.04</speed>
  <fix>3d</fix>
</trkpt>
<trkpt lat="40.0728093" lon="-105.2306603">
  <ele>1595.47</ele>
  <time>2026-08-27T18:29:07Z</time>
  <course>14.28</course>
  <speed>0.0316227766016838</speed>
  <fix>3d</fix>
</trkpt>
<trkpt lat="40.0728091" lon="-105.2306601">
  <ele>1595.38</ele>
  <time>2026-08-27T18:29:07Z</time>
  <course>56.47</course>
  <speed>0.03</speed>
  <fix>3d</fix>
</trkpt>
<trkpt lat="40.0728093" lon="-105.2306602">
  <ele>1595.48</ele>
  <time>2026-08-27T18:29:07Z</time>
  <course>14.21</course>
  <speed>0.02</speed>
  <fix>3d</fix>
</trkpt>
<trkpt lat="40.0728091" lon="-105.2306601">
  <ele>1595.38</ele>
  <time>2026-08-27T18:29:07Z</time>
  <course>60.7</course>
  <speed>0.02</speed>
  <fix>3d</fix>
</trkpt>
<trkpt lat="40.0728093" lon="-105.2306602">
  <ele>1595.48</ele>
  <time>2026-08-27T18:29:07Z</time>
  <course>14.34</course>
  <speed>0.01</speed>
  <fix>3d</fix>
</trkpt>
<trkpt lat="40.0728091" lon="-105.23066">
  <ele>1595.38</ele>
  <time>2026-08-27T18:29:07Z</time>
  <course>91.08</course>
  <speed>0.02</speed>
  <fix>3d</fix>
</trkpt>
<trkpt lat="40.0728093" lon="-105.2306601">
  <ele>1595.47</ele>
  <time>2026-08-27T18:29:07Z</time>
  <course>14.36</course>
  <speed>0.01414213562373095</speed>
  <fix>3d</fix>
</trkpt>
<trkpt lat="40.0728091" lon="-105.23066">
  <ele>1595.38</ele>
  <time>2026-08-27T18:29:07Z</time>
  <course>97.88</course>
  <speed>0.02</speed>
  <fix>3d</fix>
</trkpt>
<trkpt lat="40.0728093" lon="-105.2306601">
  <ele>1595.47</ele>
  <time>2026-08-27T18:29:07Z</time>
  <course>14.2</course>
  <speed>0.01</speed>
  <fix>3d</fix>
</trkpt>
<trkpt lat="40.0728091" lon="-105.2306599">
  <ele>1595.38</ele>
  <time>2026-08-27T18:29:07Z</time>
  <course>108.08</course>
  <speed>0.02</speed>
  <fix>3d</fix>
</trkpt>
<trkpt lat="40.0728093" lon="-105.23066">
  <ele>1595.47</ele>
  <time>2026-08-27T18:29:07Z</time>
  <course>14.28</course>
  <speed>0.0</speed>
  <fix>3d</fix>
</trkpt>
<trkpt lat="40.0728091" lon="-105.2306598">
  <ele>1595.38</ele>
  <time>2026-08-27T18:29:07Z</time>
  <course>118.43</course>
  <speed>0.02</speed>
  <fix>3d</fix>
</trkpt>
<trkpt lat="40.0728093" lon="-105.23066">
  <ele>1595.46</ele>
  <time>2026-08-27T18:29:07Z</time>
  <course>14.33</course>
  <speed>0.01</speed>
  <fix>3d</fix>
</trkpt>
<trkpt lat="40.0728091" lon="-105.2306598">
  <ele>1595.38</ele>
  <time>2026-08-27T18:29:07Z</time>
  <course>113.82</course>
  <speed>0.03</speed>
  <fix>3d</fix>
</trkpt>
<trkpt lat="40.0728093" lon="-105.2306599">
  <ele>1595.46</ele>
  <time>2026-08-27T18:29:07Z</time>
  <course>14.2</course>
  <speed>0.0</speed>
  <fix>3d</fix>
</trkpt>
<trkpt lat="40.0728091" lon="-105.2306597">
  <ele>1595.38</ele>
  <time>2026-08-27T18:29:07Z</time>
  <course>115.79</course>
  <speed>0.02</speed>
  <fix>3d</fix>
</trkpt>
<trkpt lat="40.0728092" lon="-105.2306598">
  <ele>1595.46</ele>
  <time>2026-08-27T18:29:07Z</time>
  <course>14.2</course>
  <speed>0.0</speed>
  <fix>3d</fix>
</trkpt>
<trkpt lat="40.0728091" lon="-105.2306596">
  <ele>1595.38</ele>
  <time>2026-08-27T18:29:07Z</time>
  <course>125.83</course>
  <speed>0.02</speed>
  <fix>3d</fix>
</trkpt>
<trkpt lat="40.0728092" lon="-105.2306598">
  <ele>1595.46</ele>
  <time>2026-08-27T18:29:07Z</time>
  <course>14.31</course>
  <speed>0.01</speed>
  <fix>3d</fix>
</trkpt>
<trkpt lat="40.0728091" lon="-105.2306596">
  <ele>1595.38</ele>
  <time>2026-08-27T18:29:07Z</time>
  <course>120.17</course>
  <speed>0.03</speed>
  <fix>3d</fix>
</trkpt>
<trkpt lat="40.0728092" lon="-105.2306597">
  <ele>1595.46</ele>
  <time>2026-08-27T18:29:07Z</time>
  <course>14.27</course>
  <speed>0.01</speed>
  <fix>3d</fix>
</trkpt>
<trkpt lat="40.0728091" lon="-105.2306596">
  <ele>1595.38</ele>
  <time>2026-08-27T18:29:07Z</time>
  <course>117.8</course>
  <speed>0.02</speed>
  <fix>3d</fix>
</trkpt>
<trkpt lat="40.0728092" lon="-105.2306597">
  <ele>1595.46</ele>
  <time>2026-08-27T18:29:07Z</time>
  <course>14.17</course>
  <speed>0.0</speed>
  <fix>3d</fix>
</trkpt>
<trkpt lat="40.072809" lon="-105.2306595">
  <ele>1595.39</ele>
  <time>2026-08-27T18:29:07Z</time>
  <course>129.27</course>
  <speed>0.02</speed>
  <fix>3d</fix>
</trkpt>
<trkpt lat="40.0728091" lon="-105.2306596">
  <ele>1595.46</ele>
  <time>2026-08-27T18:29:07Z</time>
  <course>14.28</course>
  <speed>0.0</speed>
  <fix>3d</fix>
</trkpt>
<trkpt lat="40.072809" lon="-105.2306595">
  <ele>1595.39</ele>
  <time>2026-08-27T18:29:07Z</time>
  <course>126.82</course>
  <speed>0.03</speed>
  <fix>3d</fix>
</trkpt>
<trkpt lat="40.0728091" lon="-105.2306596">
  <ele>1595.46</ele>
  <time>2026-08-27T18:29:07Z</time>
  <course>14.31</course>
  <speed>0.01</speed>
  <fix>3d</fix>
</trkpt>
<trkpt lat="40.072809" lon="-105.2306594">
  <ele>1595.39</ele>
  <time>2026-08-27T18:29:07Z</time>
  <course>120.84</course>
  <speed>0.03</speed>
  <fix>3d</fix>
</trkpt>
<trkpt lat="40.0728091" lon="-105.2306595">
  <ele>1595.47</ele>
  <time>2026-08-27T18:29:07Z</time>
  <course>14.18</course>
  <speed>0.0</speed>
  <fix>3d</fix>
</trkpt>
<trkpt lat="40.072809" lon="-105.2306593">
  <ele>1595.39</ele>
  <time>2026-08-27T18:29:07Z</time>
  <course>129.49</course>
  <speed>0.02</speed>
  <fix>3d</fix>
</trkpt>
<trkpt lat="40.0728091" lon="-105.2306595">
  <ele>1595.46</ele>
  <time>2026-08-27T18:29:07Z</time>
  <course>14.26</course>
  <speed>0.0</speed>
  <fix>3d</fix>
</trkpt>
<trkpt lat="40.0728089" lon="-105.2306593">
  <ele>1595.4</ele>
  <time>2026-08-27T18:29:07Z</time>
  <course>133.3</course>
  <speed>0.02</speed>
  <fix>3d</fix>
</trkpt>
<trkpt lat="40.072809" lon="-105.2306594">
  <ele>1595.46</ele>
  <time>2026-08-27T18:29:07Z</time>
  <course>14.32</course>
  <speed>0.01</speed>
  <fix>3d</fix>
</trkpt>
<trkpt lat="40.0728089" lon="-105.2306593">
  <ele>1595.4</ele>
  <time>2026-08-27T18:29:07Z</time>
  <course>124.47</course>
  <speed>0.03</speed>
  <fix>3d</fix>
</trkpt>
<trkpt lat="40.072809" lon="-105.2306594">
  <ele>1595.46</ele>
  <time>2026-08-27T18:29:07Z</time>
  <course>14.12</course>
  <speed>0.022360679774997897</speed>
  <fix>3d</fix>
</trkpt>
<trkpt lat="40.0728088" lon="-105.2306592">
  <ele>1595.4</ele>
  <time>2026-08-27T18:29:07Z</time>
  <course>152.76</course>
  <speed>0.03</speed>
  <fix>3d</fix>
</trkpt>
<trkpt lat="40.0728089" lon="-105.2306594">
  <ele>1595.46</ele>
  <time>2026-08-27T18:29:07Z</time>
  <course>14.1</course>
  <speed>0.02</speed>
  <fix>3d</fix>
</trkpt>
<trkpt lat="40.0728088" lon="-105.2306591">
  <ele>1595.4</ele>
  <time>2026-08-27T18:29:07Z</time>
  <course>166.64</course>
  <speed>0.04</speed>
  <fix>3d</fix>
</trkpt>
<trkpt lat="40.0728088" lon="-105.2306593">
  <ele>1595.46</ele>
  <time>2026-08-27T18:29:07Z</time>
  <course>14.06</course>
  <speed>0.01</speed>
  <fix>3d</fix>
</trkpt>
<trkpt lat="40.0728087" lon="-105.2306591">
  <ele>1595.4</ele>
  <time>2026-08-27T18:29:07Z</time>
  <course>154.37</course>
  <speed>0.04</speed>
  <fix>3d</fix>
</trkpt>
<trkpt lat="40.0728088" lon="-105.2306593">
  <ele>1595.46</ele>
  <time>2026-08-27T18:29:07Z</time>
  <course>14.07</course>
  <speed>0.0</speed>
  <fix>3d</fix>
</trkpt>
<trkpt lat="40.0728086" lon="-105.2306591">
  <ele>1595.41</ele>
  <time>2026-08-27T18:29:07Z</time>
  <course>145.42</course>
  <speed>0.03</speed>
  <fix>3d</fix>
</trkpt>
<trkpt lat="40.0728088" lon="-105.2306592">
  <ele>1595.46</ele>
  <time>2026-08-27T18:29:07Z</time>
  <course>14.05</course>
  <speed>0.01</speed>
  <fix>3d</fix>
</trkpt>
<trkpt lat="40.0728085" lon="-105.230659">
  <ele>1595.41</ele>
  <time>2026-08-27T18:29:07Z</time>
  <course>133.73</course>
  <speed>0.03</speed>
  <fix>3d</fix>
</trkpt>
<trkpt lat="40.0728087" lon="-105.2306591">
  <ele>1595.47</ele>
  <time>2026-08-27T18:29:07Z</time>
  <course>14.07</course>
  <speed>0.01</speed>
  <fix>3d</fix>
</trkpt>
<trkpt lat="40.0728085" lon="-105.2306589">
  <ele>1595.41</ele>
  <time>2026-08-27T18:29:07Z</time>
  <course>123.06</course>
  <speed>0.03</speed>
  <fix>3d</fix>
</trkpt>
<trkpt lat="40.0728087" lon="-105.2306591">
  <ele>1595.47</ele>
  <time>2026-08-27T18:29:07Z</time>
  <course>14.08</course>
  <speed>0.01414213562373095</speed>
  <fix>3d</fix>
</trkpt>
<trkpt lat="40.0728085" lon="-105.2306589">
  <ele>1595.41</ele>
  <time>2026-08-27T18:29:07Z</time>
  <course>113.49</course>
  <speed>0.03</speed>
  <fix>3d</fix>
</trkpt>
<trkpt lat="40.0728087" lon="-105.230659">
  <ele>1595.47</ele>
  <time>2026-08-27T18:29:07Z</time>
  <course>14.09</course>
  <speed>0.01414213562373095</speed>
  <fix>3d</fix>
</trkpt>
<trkpt lat="40.0728085" lon="-105.2306588">
  <ele>1595.42</ele>
  <time>2026-08-27T18:29:07Z</time>
  <course>104.4</course>
  <speed>0.03</speed>
  <fix>3d</fix>
</trkpt>
<trkpt lat="40.0728087" lon="-105.2306589">
  <ele>1595.47</ele>
  <time>2026-08-27T18:29:07Z</time>
  <course>14.1</course>
  <speed>0.022360679774997897</speed>
  <fix>3d</fix>
</trkpt>
<trkpt lat="40.0728085" lon="-105.2306588">
  <ele>1595.42</ele>
  <time>2026-08-27T18:29:07Z</time>
  <course>95.42</course>
  <speed>0.02</speed>
  <fix>3d</fix>
</trkpt>
<trkpt lat="40.0728087" lon="-105.2306588">
  <ele>1595.47</ele>
  <time>2026-08-27T18:29:07Z</time>
  <course>14.09</course>
  <speed>0.022360679774997897</speed>
  <fix>3d</fix>
</trkpt>
<trkpt lat="40.0728085" lon="-105.2306587">
  <ele>1595.42</ele>
  <time>2026-08-27T18:29:07Z</time>
  <course>87.88</course>
  <speed>0.03</speed>
  <fix>3d</fix>
</trkpt>
<trkpt lat="40.0728087" lon="-105.2306588">
  <ele>1595.47</ele>
  <time>2026-08-27T18:29:07Z</time>
  <course>14.09</course>
  <speed>0.022360679774997897</speed>
  <fix>3d</fix>
</trkpt>
<trkpt lat="40.0728085" lon="-105.2306586">
  <ele>1595.42</ele>
  <time>2026-08-27T18:29:07Z</time>
  <course>82.88</course>
  <speed>0.03</speed>
  <fix>3d</fix>
</trkpt>
<trkpt lat="40.0728087" lon="-105.2306587">
  <ele>1595.47</ele>
  <time>2026-08-27T18:29:07Z</time>
  <course>14.09</course>
  <speed>0.022360679774997897</speed>
  <fix>3d</fix>
</trkpt>
<trkpt lat="40.0728085" lon="-105.2306585">
  <ele>1595.42</ele>
  <time>2026-08-27T18:29:07Z</time>
  <course>79.04</course>
  <speed>0.03</speed>
  <fix>3d</fix>
</trkpt>
<trkpt lat="40.0728087" lon="-105.2306586">
  <ele>1595.47</ele>
  <time>2026-08-27T18:29:07Z</time>
  <course>14.09</course>
  <speed>0.022360679774997897</speed>
  <fix>3d</fix>
</trkpt>
<trkpt lat="40.0728085" lon="-105.2306584">
  <ele>1595.42</ele>
  <time>2026-08-27T18:29:07Z</time>
  <course>76.2</course>
  <speed>0.03</speed>
  <fix>3d</fix>
</trkpt>
<trkpt lat="40.0728087" lon="-105.2306585">
  <ele>1595.47</ele>
  <time>2026-08-27T18:29:07Z</time>
  <course>14.09</course>
  <speed>0.022360679774997897</speed>
  <fix>3d</fix>
</trkpt>
<trkpt lat="40.0728085" lon="-105.2306584">
  <ele>1595.42</ele>
  <time>2026-08-27T18:29:07Z</time>
  <course>74.42</course>
  <speed>0.03</speed>
  <fix>3d</fix>
</trkpt>
<trkpt lat="40.0728087" lon="-105.2306585">
  <ele>1595.46</ele>
  <time>2026-08-27T18:29:07Z</time>
  <course>14.09</course>
  <speed>0.022360679774997897</speed>
  <fix>3d</fix>
</trkpt>
<trkpt lat="40.0728085" lon="-105.2306583">
  <ele>1595.42</ele>
  <time>2026-08-27T18:29:07Z</time>
  <course>73.3</course>
  <speed>0.03</speed>
  <fix>3d</fix>
</trkpt>
<trkpt lat="40.0728087" lon="-105.2306584">
  <ele>1595.46</ele>
  <time>2026-08-27T18:29:07Z</time>
  <course>14.08</course>
  <speed>0.022360679774997897</speed>
  <fix>3d</fix>
</trkpt>
<trkpt lat="40.0728085" lon="-105.2306582">
  <ele>1595.42</ele>
  <time>2026-08-27T18:29:07Z</time>
  <course>73.44</course>
  <speed>0.03</speed>
  <fix>3d</fix>
</trkpt>
<trkpt lat="40.0728087" lon="-105.2306583">
  <ele>1595.46</ele>
  <time>2026-08-27T18:29:07Z</time>
  <course>14.06</course>
  <speed>0.044721359549995794</speed>
  <fix>3d</fix>
</trkpt>
<trkpt lat="40.0728085" lon="-105.2306581">
  <ele>1595.43</ele>
  <time>2026-08-27T18:29:07Z</time>
  <course>69.01</course>
  <speed>0.03</speed>
  <fix>3d</fix>
</trkpt>
<trkpt lat="40.0728087" lon="-105.2306582">
  <ele>1595.47</ele>
  <time>2026-08-27T18:29:07Z</time>
  <course>14.18</course>
  <speed>0.05</speed>
  <fix>3d</fix>
</trkpt>
<trkpt lat="40.0728085" lon="-105.2306581">
  <ele>1595.43</ele>
  <time>2026-08-27T18:29:07Z</time>
  <course>59.64</course>
  <speed>0.04</speed>
  <fix>3d</fix>
</trkpt>
<trkpt lat="40.0728088" lon="-105.2306581">
  <ele>1595.47</ele>
  <time>2026-08-27T18:29:07Z</time>
  <course>14.19</course>
  <speed>0.044721359549995794</speed>
  <fix>3d</fix>
</trkpt>
<trkpt lat="40.0728085" lon="-105.230658">
  <ele>1595.43</ele>
  <time>2026-08-27T18:29:07Z</time>
  <course>49.68</course>
  <speed>0.05</speed>
  <fix>3d</fix>
</trkpt>
<trkpt lat="40.0728088" lon="-105.230658">
  <ele>1595.48</ele>
  <time>2026-08-27T18:29:07Z</time>
  <course>14.18</course>
  <speed>0.04</speed>
  <fix>3d</fix>
</trkpt>
<trkpt lat="40.0728086" lon="-105.2306579">
  <ele>1595.43</ele>
  <time>2026-08-27T18:29:07Z</time>
  <course>44.94</course>
  <speed>0.03</speed>
  <fix>3d</fix>
</trkpt>
<trkpt lat="40.0728088" lon="-105.230658">
  <ele>1595.48</ele>
  <time>2026-08-27T18:29:07Z</time>
  <course>14.3</course>
  <speed>0.02</speed>
  <fix>3d</fix>
</trkpt>
<trkpt lat="40.0728086" lon="-105.2306578">
  <ele>1595.44</ele>
  <time>2026-08-27T18:29:07Z</time>
  <course>62.05</course>
  <speed>0.03</speed>
  <fix>3d</fix>
</trkpt>
<trkpt lat="40.0728088" lon="-105.2306579">
  <ele>1595.49</ele>
  <time>2026-08-27T18:29:07Z</time>
  <course>14.34</course>
  <speed>0.01414213562373095</speed>
  <fix>3d</fix>
</trkpt>
<trkpt lat="40.0728086" lon="-105.2306577">
  <ele>1595.44</ele>
  <time>2026-08-27T18:29:07Z</time>
  <course>74.2</course>
  <speed>0.03</speed>
  <fix>3d</fix>
</trkpt>
<trkpt lat="40.0728088" lon="-105.2306579">
  <ele>1595.49</ele>
  <time>2026-08-27T18:29:07Z</time>
  <course>14.22</course>
  <speed>0.01</speed>
  <fix>3d</fix>
</trkpt>
<trkpt lat="40.0728086" lon="-105.2306577">
  <ele>1595.44</ele>
  <time>2026-08-27T18:29:07Z</time>
  <course>83.88</course>
  <speed>0.02</speed>
  <fix>3d</fix>
</trkpt>
<trkpt lat="40.0728088" lon="-105.2306578">
  <ele>1595.49</ele>
  <time>2026-08-27T18:29:07Z</time>
  <course>14.28</course>
  <speed>0.0</speed>
  <fix>3d</fix>
</trkpt>
<trkpt lat="40.0728086" lon="-105.2306576">
  <ele>1595.44</ele>
  <time>2026-08-27T18:29:07Z</time>
  <course>104.96</course>
  <speed>0.02</speed>
  <fix>3d</fix>
</trkpt>
<trkpt lat="40.0728088" lon="-105.2306577">
  <ele>1595.49</ele>
  <time>2026-08-27T18:29:07Z</time>
  <course>14.37</course>
  <speed>0.01</speed>
  <fix>3d</fix>
</trkpt>
<trkpt lat="40.0728086" lon="-105.2306576">
  <ele>1595.43</ele>
  <time>2026-08-27T18:29:07Z</time>
  <course>109.51</course>
  <speed>0.03</speed>
  <fix>3d</fix>
</trkpt>
<trkpt lat="40.0728088" lon="-105.2306577">
  <ele>1595.49</ele>
  <time>2026-08-27T18:29:07Z</time>
  <course>14.33</course>
  <speed>0.01</speed>
  <fix>3d</fix>
</trkpt>
<trkpt lat="40.0728086" lon="-105.2306575">
  <ele>1595.43</ele>
  <time>2026-08-27T18:29:07Z</time>
  <course>110.72</course>
  <speed>0.02</speed>
  <fix>3d</fix>
</trkpt>
<trkpt lat="40.0728088" lon="-105.2306576">
  <ele>1595.49</ele>
  <time>2026-08-27T18:29:07Z</time>
  <course>14.23</course>
  <speed>0.0</speed>
  <fix>3d</fix>
</trkpt>
<trkpt lat="40.0728086" lon="-105.2306574">
  <ele>1595.43</ele>
  <time>2026-08-27T18:29:07Z</time>
  <course>118.89</course>
  <speed>0.02</speed>
  <fix>3d</fix>
</trkpt>
<trkpt lat="40.0728087" lon="-105.2306576">
  <ele>1595.49</ele>
  <time>2026-08-27T18:29:07Z</time>
  <course>14.32</course>
  <speed>0.0</speed>
  <fix>3d</fix>
</trkpt>
<trkpt lat="40.0728086" lon="-105.2306574">
  <ele>1595.42</ele>
  <time>2026-08-27T18:29:07Z</time>
  <course>120.34</course>
  <speed>0.02</speed>
  <fix>3d</fix>
</trkpt>
<trkpt lat="40.0728087" lon="-105.2306575">
  <ele>1595.49</ele>
  <time>2026-08-27T18:29:07Z</time>
  <course>14.37</course>
  <speed>0.01</speed>
  <fix>3d</fix>
</trkpt>
<trkpt lat="40.0728086" lon="-105.2306573">
  <ele>1595.42</ele>
  <time>2026-08-27T18:29:07Z</time>
  <course>116.46</course>
  <speed>0.03</speed>
  <fix>3d</fix>
</trkpt>
<trkpt lat="40.0728087" lon="-105.2306574">
  <ele>1595.49</ele>
  <time>2026-08-27T18:29:07Z</time>
  <course>14.26</course>
  <speed>0.01</speed>
  <fix>3d</fix>
</trkpt>
<trkpt lat="40.0728086" lon="-105.2306572">
  <ele>1595.41</ele>
  <time>2026-08-27T18:29:07Z</time>
  <course>119.07</course>
  <speed>0.02</speed>
  <fix>3d</fix>
</trkpt>
<trkpt lat="40.0728087" lon="-105.2306574">
  <ele>1595.48</ele>
  <time>2026-08-27T18:29:07Z</time>
  <course>14.22</course>
  <speed>0.0</speed>
  <fix>3d</fix>
</trkpt>
<trkpt lat="40.0728086" lon="-105.2306572">
  <ele>1595.41</ele>
  <time>2026-08-27T18:29:07Z</time>
  <course>126.65</course>
  <speed>0.02</speed>
  <fix>3d</fix>
</trkpt>
<trkpt lat="40.0728087" lon="-105.2306573">
  <ele>1595.48</ele>
  <time>2026-08-27T18:29:07Z</time>
  <course>14.31</course>
  <speed>0.0</speed>
  <fix>3d</fix>
</trkpt>
<trkpt lat="40.0728086" lon="-105.2306572">
  <ele>1595.4</ele>
  <time>2026-08-27T18:29:07Z</time>
  <course>122.75</course>
  <speed>0.03</speed>
  <fix>3d</fix>
</trkpt>
<trkpt lat="40.0728086" lon="-105.2306573">
  <ele>1595.47</ele>
  <time>2026-08-27T18:29:07Z</time>
  <course>14.32</course>
  <speed>0.01</speed>
  <fix>3d</fix>
</trkpt>
<trkpt lat="40.0728085" lon="-105.2306571">
  <ele>1595.4</ele>
  <time>2026-08-27T18:29:07Z</time>
  <course>120.13</course>
  <speed>0.03</speed>
  <fix>3d</fix>
</trkpt>
<trkpt lat="40.0728086" lon="-105.2306572">
  <ele>1595.47</ele>
  <time>2026-08-27T18:29:07Z</time>
  <course>14.18</course>
  <speed>0.0</speed>
  <fix>3d</fix>
</trkpt>
<trkpt lat="40.0728085" lon="-105.2306571">
  <ele>1595.4</ele>
  <time>2026-08-27T18:29:07Z</time>
  <course>127.8</course>
  <speed>0.02</speed>
  <fix>3d</fix>
</trkpt>
<trkpt lat="40.0728086" lon="-105.2306572">
  <ele>1595.46</ele>
  <time>2026-08-27T18:29:07Z</time>
  <course>14.22</course>
  <speed>0.0</speed>
  <fix>3d</fix>
</trkpt>
<trkpt lat="40.0728085" lon="-105.230657">
  <ele>1595.4</ele>
  <time>2026-08-27T18:29:07Z</time>
  <course>131.46</course>
  <speed>0.02</speed>
  <fix>3d</fix>
</trkpt>
<trkpt lat="40.0728086" lon="-105.2306571">
  <ele>1595.46</ele>
  <time>2026-08-27T18:29:07Z</time>
  <course>14.28</course>
  <speed>0.01414213562373095</speed>
  <fix>3d</fix>
</trkpt>
<trkpt lat="40.0728085" lon="-105.2306569">
  <ele>1595.4</ele>
  <time>2026-08-27T18:29:07Z</time>
  <course>126.29</course>
  <speed>0.03</speed>
  <fix>3d</fix>
</trkpt>
<trkpt lat="40.0728085" lon="-105.2306571">
  <ele>1595.46</ele>
  <time>2026-08-27T18:29:07Z</time>
  <course>14.1</course>
  <speed>0.02</speed>
  <fix>3d</fix>
</trkpt>
<trkpt lat="40.0728084" lon="-105.2306569">
  <ele>1595.4</ele>
  <time>2026-08-27T18:29:07Z</time>
  <course>152.35</course>
  <speed>0.03</speed>
  <fix>3d</fix>
</trkpt>
<trkpt lat="40.0728084" lon="-105.230657">
  <ele>1595.46</ele>
  <time>2026-08-27T18:29:07Z</time>
  <course>14.08</course>
  <speed>0.02</speed>
  <fix>3d</fix>
</trkpt>
<trkpt lat="40.0728084" lon="-105.2306569">
  <ele>1595.4</ele>
  <time>2026-08-27T18:29:07Z</time>
  <course>165.8</course>
  <speed>0.04</speed>
  <fix>3d</fix>
</trkpt>
<trkpt lat="40.0728084" lon="-105.230657">
  <ele>1595.46</ele>
  <time>2026-08-27T18:29:07Z</time>
  <course>14.06</course>
  <speed>0.01</speed>
  <fix>3d</fix>
</trkpt>
<trkpt lat="40.0728083" lon="-105.2306568">
  <ele>1595.4</ele>
  <time>2026-08-27T18:29:07Z</time>
  <course>153.92</course>
  <speed>0.04</speed>
  <fix>3d</fix>
</trkpt>
<trkpt lat="40.0728083" lon="-105.2306569">
  <ele>1595.46</ele>
  <time>2026-08-27T18:29:07Z</time>
  <course>14.06</course>
  <speed>0.01</speed>
  <fix>3d</fix>
</trkpt>
<trkpt lat="40.0728082" lon="-105.2306567">
  <ele>1595.4</ele>
  <time>2026-08-27T18:29:07Z</time>
  <course>145.58</course>
  <speed>0.04</speed>
  <fix>3d</fix>
</trkpt>
<trkpt lat="40.0728083" lon="-105.2306569">
  <ele>1595.46</ele>
  <time>2026-08-27T18:29:07Z</time>
  <course>14.07</course>
  <speed>0.01</speed>
  <fix>3d</fix>
</trkpt>
<trkpt lat="40.0728082" lon="-105.2306567">
  <ele>1595.4</ele>
  <time>2026-08-27T18:29:07Z</time>
  <course>136.08</course>
  <speed>0.03</speed>
  <fix>3d</fix>
</trkpt>
<trkpt lat="40.0728083" lon="-105.2306568">
  <ele>1595.46</ele>
  <time>2026-08-27T18:29:08Z</time>
  <course>14.07</course>
  <speed>0.01</speed>
  <fix>3d</fix>
</trkpt>
<trkpt lat="40.0728081" lon="-105.2306567">
  <ele>1595.4</ele>
  <time>2026-08-27T18:29:08Z</time>
  <course>127.75</course>
  <speed>0.03</speed>
  <fix>3d</fix>
</trkpt>
<trkpt lat="40.0728082" lon="-105.2306567">
  <ele>1595.46</ele>
  <time>2026-08-27T18:29:08Z</time>
  <course>14.07</course>
  <speed>0.01</speed>
  <fix>3d</fix>
</trkpt>
<trkpt lat="40.072808" lon="-105.2306566">
  <ele>1595.4</ele>
  <time>2026-08-27T18:29:08Z</time>
  <course>120.48</course>
  <speed>0.03</speed>
  <fix>3d</fix>
</trkpt>
<trkpt lat="40.0728082" lon="-105.2306567">
  <ele>1595.47</ele>
  <time>2026-08-27T18:29:08Z</time>
  <course>14.08</course>
  <speed>0.01414213562373095</speed>
  <fix>3d</fix>
</trkpt>
<trkpt lat="40.072808" lon="-105.2306565">
  <ele>1595.41</ele>
  <time>2026-08-27T18:29:08Z</time>
  <course>114.24</course>
  <speed>0.03</speed>
  <fix>3d</fix>
</trkpt>
<trkpt lat="40.0728082" lon="-105.2306566">
  <ele>1595.48</ele>
  <time>2026-08-27T18:29:08Z</time>
  <course>14.09</course>
  <speed>0.01414213562373095</speed>
  <fix>3d</fix>
</trkpt>
<trkpt lat="40.072808" lon="-105.2306565">
  <ele>1595.41</ele>
  <time>2026-08-27T18:29:08Z</time>
  <course>108.94</course>
  <speed>0.03</speed>
  <fix>3d</fix>
</trkpt>
<trkpt lat="40.0728082" lon="-105.2306565">
  <ele>1595.48</ele>
  <time>2026-08-27T18:29:08Z</time>
  <course>14.1</course>
  <speed>0.01414213562373095</speed>
  <fix>3d</fix>
</trkpt>
<trkpt lat="40.072808" lon="-105.2306564">
  <ele>1595.41</ele>
  <time>2026-08-27T18:29:08Z</time>
  <course>104.21</course>
  <speed>0.03</speed>
  <fix>3d</fix>
</trkpt>
<trkpt lat="40.0728082" lon="-105.2306565">
  <ele>1595.47</ele>
  <time>2026-08-27T18:29:08Z</time>
  <course>14.1</course>
  <speed>0.01414213562373095</speed>
  <fix>3d</fix>
</trkpt>
<trkpt lat="40.072808" lon="-105.2306563">
  <ele>1595.41</ele>
  <time>2026-08-27T18:29:08Z</time>
  <course>100.99</course>
  <speed>0.03</speed>
  <fix>3d</fix>
</trkpt>
<trkpt lat="40.0728082" lon="-105.2306564">
  <ele>1595.47</ele>
  <time>2026-08-27T18:29:08Z</time>
  <course>14.09</course>
  <speed>0.01414213562373095</speed>
  <fix>3d</fix>
</trkpt>
<trkpt lat="40.0728079" lon="-105.2306562">
  <ele>1595.41</ele>
  <time>2026-08-27T18:29:08Z</time>
  <course>99.38</course>
  <speed>0.03</speed>
  <fix>3d</fix>
</trkpt>
<trkpt lat="40.0728082" lon="-105.2306563">
  <ele>1595.47</ele>
  <time>2026-08-27T18:29:08Z</time>
  <course>14.09</course>
  <speed>0.01414213562373095</speed>
  <fix>3d</fix>
</trkpt>
<trkpt lat="40.0728079" lon="-105.2306562">
  <ele>1595.41</ele>
  <time>2026-08-27T18:29:08Z</time>
  <course>97.99</course>
  <speed>0.03</speed>
  <fix>3d</fix>
</trkpt>
<trkpt lat="40.0728081" lon="-105.2306562">
  <ele>1595.47</ele>
  <time>2026-08-27T18:29:08Z</time>
  <course>14.1</course>
  <speed>0.01414213562373095</speed>
  <fix>3d</fix>
</trkpt>
<trkpt lat="40.0728079" lon="-105.2306561">
  <ele>1595.41</ele>
  <time>2026-08-27T18:29:08Z</time>
  <course>96.68</course>
  <speed>0.03</speed>
  <fix>3d</fix>
</trkpt>
<trkpt lat="40.0728081" lon="-105.2306562">
  <ele>1595.47</ele>
  <time>2026-08-27T18:29:08Z</time>
  <course>14.09</course>
  <speed>0.01414213562373095</speed>
  <fix>3d</fix>
</trkpt>
<trkpt lat="40.0728079" lon="-105.230656">
  <ele>1595.41</ele>
  <time>2026-08-27T18:29:08Z</time>
  <course>96.06</course>
  <speed>0.03</speed>
  <fix>3d</fix>
</trkpt>
<trkpt lat="40.0728081" lon="-105.2306561">
  <ele>1595.47</ele>
  <time>2026-08-27T18:29:08Z</time>
  <course>14.1</course>
  <speed>0.01414213562373095</speed>
  <fix>3d</fix>
</trkpt>
<trkpt lat="40.0728079" lon="-105.2306559">
  <ele>1595.41</ele>
  <time>2026-08-27T18:29:08Z</time>
  <course>96.05</course>
  <speed>0.03</speed>
  <fix>3d</fix>
</trkpt>
<trkpt lat="40.0728081" lon="-105.230656">
  <ele>1595.47</ele>
  <time>2026-08-27T18:29:08Z</time>
  <course>14.1</course>
  <speed>0.03605551275463989</speed>
  <fix>3d</fix>
</trkpt>
<trkpt lat="40.0728079" lon="-105.2306559">
  <ele>1595.41</ele>
  <time>2026-08-27T18:29:08Z</time>
  <course>86.71</course>
  <speed>0.03</speed>
  <fix>3d</fix>
</trkpt>
<trkpt lat="40.0728081" lon="-105.2306559">
  <ele>1595.46</ele>
  <time>2026-08-27T18:29:08Z</time>
  <course>14.21</course>
  <speed>0.05</speed>
  <fix>3d</fix>
</trkpt>
<trkpt lat="40.0728079" lon="-105.2306557">
  <ele>1595.41</ele>
  <time>2026-08-27T18:29:08Z</time>
  <course>70.36</course>
  <speed>0.04</speed>
  <fix>3d</fix>
</trkpt>
<trkpt lat="40.0728081" lon="-105.2306558">
  <ele>1595.46</ele>
  <time>2026-08-27T18:29:08Z</time>
  <course>14.24</course>
  <speed>0.044721359549995794</speed>
  <fix>3d</fix>
</trkpt>
<trkpt lat="40.0728079" lon="-105.2306557">
  <ele>1595.41</ele>
  <time>2026-08-27T18:29:08Z</time>
  <course>57.91</course>
  <speed>0.04</speed>
  <fix>3d</fix>
</trkpt>
<trkpt lat="40.0728081" lon="-105.2306557">
  <ele>1595.46</ele>
  <time>2026-08-27T18:29:08Z</time>
  <course>14.18</course>
  <speed>0.03</speed>
  <fix>3d</fix>
</trkpt>
<trkpt lat="40.0728079" lon="-105.2306556">
  <ele>1595.41</ele>
  <time>2026-08-27T18:29:08Z</time>
  <course>51.4</course>
  <speed>0.03</speed>
  <fix>3d</fix>
</trkpt>
<trkpt lat="40.0728081" lon="-105.2306557">
  <ele>1595.47</ele>
  <time>2026-08-27T18:29:08Z</time>
  <course>14.29</course>
  <speed>0.022360679774997897</speed>
  <fix>3d</fix>
</trkpt>
<trkpt lat="40.072808" lon="-105.2306555">
  <ele>1595.41</ele>
  <time>2026-08-27T18:29:08Z</time>
  <course>69.04</course>
  <speed>0.03</speed>
  <fix>3d</fix>
</trkpt>
<trkpt lat="40.0728081" lon="-105.2306556">
  <ele>1595.47</ele>
  <time>2026-08-27T18:29:08Z</time>
  <course>14.33</course>
  <speed>0.01414213562373095</speed>
  <fix>3d</fix>
</trkpt>
<trkpt lat="40.072808" lon="-105.2306555">
  <ele>1595.41</ele>
  <time>2026-08-27T18:29:08Z</time>
  <course>78.06</course>
  <speed>0.02</speed>
  <fix>3d</fix>
</trkpt>
<trkpt lat="40.0728081" lon="-105.2306556">
  <ele>1595.47</ele>
  <time>2026-08-27T18:29:08Z</time>
  <course>14.2</course>
  <speed>0.01</speed>
  <fix>3d</fix>
</trkpt>
<trkpt lat="40.072808" lon="-105.2306554">
  <ele>1595.41</ele>
  <time>2026-08-27T18:29:08Z</time>
  <course>88.37</course>
  <speed>0.01</speed>
  <fix>3d</fix>
</trkpt>
<trkpt lat="40.0728081" lon="-105.2306555">
  <ele>1595.47</ele>
  <time>2026-08-27T18:29:08Z</time>
  <course>14.27</course>
  <speed>0.0</speed>
  <fix>3d</fix>
</trkpt>
<trkpt lat="40.072808" lon="-105.2306553">
  <ele>1595.41</ele>
  <time>2026-08-27T18:29:08Z</time>
  <course>110.7</course>
  <speed>0.02</speed>
  <fix>3d</fix>
</trkpt>
<trkpt lat="40.0728081" lon="-105.2306555">
  <ele>1595.47</ele>
  <time>2026-08-27T18:29:08Z</time>
  <course>14.34</course>
  <speed>0.01</speed>
  <fix>3d</fix>
</trkpt>
<trkpt lat="40.072808" lon="-105.2306553">
  <ele>1595.41</ele>
  <time>2026-08-27T18:29:08Z</time>
  <course>110.84</course>
  <speed>0.03</speed>
  <fix>3d</fix>
</trkpt>
<trkpt lat="40.0728081" lon="-105.2306554">
  <ele>1595.47</ele>
  <time>2026-08-27T18:29:08Z</time>
  <course>14.23</course>
  <speed>0.0</speed>
  <fix>3d</fix>
</trkpt>
<trkpt lat="40.072808" lon="-105.2306552">
  <ele>1595.41</ele>
  <time>2026-08-27T18:29:08Z</time>
  <course>114.05</course>
  <speed>0.02</speed>
  <fix>3d</fix>
</trkpt>
<trkpt lat="40.0728081" lon="-105.2306553">
  <ele>1595.46</ele>
  <time>2026-08-27T18:29:08Z</time>
  <course>14.21</course>
  <speed>0.0</speed>
  <fix>3d</fix>
</trkpt>
<trkpt lat="40.072808" lon="-105.2306552">
  <ele>1595.41</ele>
  <time>2026-08-27T18:29:08Z</time>
  <course>125.11</course>
  <speed>0.02</speed>
  <fix>3d</fix>
</trkpt>
<trkpt lat="40.0728081" lon="-105.2306553">
  <ele>1595.46</ele>
  <time>2026-08-27T18:29:08Z</time>
  <course>14.31</course>
  <speed>0.01</speed>
  <fix>3d</fix>
</trkpt>
<trkpt lat="40.072808" lon="-105.2306551">
  <ele>1595.41</ele>
  <time>2026-08-27T18:29:08Z</time>
  <course>120.21</course>
  <speed>0.03</speed>
  <fix>3d</fix>
</trkpt>
<trkpt lat="40.0728081" lon="-105.2306552">
  <ele>1595.46</ele>
  <time>2026-08-27T18:29:08Z</time>
  <course>14.29</course>
  <speed>0.01</speed>
  <fix>3d</fix>
</trkpt>
<trkpt lat="40.072808" lon="-105.230655">
  <ele>1595.41</ele>
  <time>2026-08-27T18:29:08Z</time>
  <course>117.5</course>
  <speed>0.02</speed>
  <fix>3d</fix>
</trkpt>
<trkpt lat="40.0728081" lon="-105.2306552">
  <ele>1595.47</ele>
  <time>2026-08-27T18:29:08Z</time>
  <course>14.17</course>
  <speed>0.0</speed>
  <fix>3d</fix>
</trkpt>
<trkpt lat="40.0728079" lon="-105.230655">
  <ele>1595.42</ele>
  <time>2026-08-27T18:29:08Z</time>
  <course>127.96</course>
  <speed>0.02</speed>
  <fix>3d</fix>
</trkpt>
<trkpt lat="40.072808" lon="-105.2306551">
  <ele>1595.47</ele>
  <time>2026-08-27T18:29:08Z</time>
  <course>14.29</course>
  <speed>0.0</speed>
  <fix>3d</fix>
</trkpt>
<trkpt lat="40.0728079" lon="-105.230655">
  <ele>1595.42</ele>
  <time>2026-08-27T18:29:08Z</time>
  <course>127.07</course>
  <speed>0.02</speed>
  <fix>3d</fix>
</trkpt>
<trkpt lat="40.072808" lon="-105.2306551">
  <ele>1595.47</ele>
  <time>2026-08-27T18:29:08Z</time>
  <course>14.35</course>
  <speed>0.01</speed>
  <fix>3d</fix>
</trkpt>
<trkpt lat="40.0728079" lon="-105.2306549">
  <ele>1595.42</ele>
  <time>2026-08-27T18:29:08Z</time>
  <course>120.78</course>
  <speed>0.03</speed>
  <fix>3d</fix>
</trkpt>
<trkpt lat="40.072808" lon="-105.230655">
  <ele>1595.47</ele>
  <time>2026-08-27T18:29:08Z</time>
  <course>14.22</course>
  <speed>0.0</speed>
  <fix>3d</fix>
</trkpt>
<trkpt lat="40.0728079" lon="-105.2306548">
  <ele>1595.42</ele>
  <time>2026-08-27T18:29:08Z</time>
  <course>128.0</course>
  <speed>0.02</speed>
  <fix>3d</fix>
</trkpt>
<trkpt lat="40.072808" lon="-105.230655">
  <ele>1595.47</ele>
  <time>2026-08-27T18:29:08Z</time>
  <course>14.26</course>
  <speed>0.0</speed>
  <fix>3d</fix>
</trkpt>
<trkpt lat="40.0728079" lon="-105.2306548">
  <ele>1595.42</ele>
  <time>2026-08-27T18:29:08Z</time>
  <course>134.64</course>
  <speed>0.02</speed>
  <fix>3d</fix>
</trkpt>
<trkpt lat="40.072808" lon="-105.2306549">
  <ele>1595.47</ele>
  <time>2026-08-27T18:29:08Z</time>
  <course>14.35</course>
  <speed>0.01</speed>
  <fix>3d</fix>
</trkpt>
<trkpt lat="40.0728079" lon="-105.2306548">
  <ele>1595.42</ele>
  <time>2026-08-27T18:29:08Z</time>
  <course>125.55</course>
  <speed>0.03</speed>
  <fix>3d</fix>
</trkpt>
<trkpt lat="40.0728079" lon="-105.2306549">
  <ele>1595.47</ele>
  <time>2026-08-27T18:29:08Z</time>
  <course>14.27</course>
  <speed>0.0</speed>
  <fix>3d</fix>
</trkpt>
<trkpt lat="40.0728078" lon="-105.2306547">
  <ele>1595.42</ele>
  <time>2026-08-27T18:29:08Z</time>
  <course>125.7</course>
  <speed>0.02</speed>
  <fix>3d</fix>
</trkpt>
<trkpt lat="40.0728079" lon="-105.2306548">
  <ele>1595.47</ele>
  <time>2026-08-27T18:29:08Z</time>
  <course>14.16</course>
  <speed>0.022360679774997897</speed>
  <fix>3d</fix>
</trkpt>
<trkpt lat="40.0728078" lon="-105.2306546">
  <ele>1595.42</ele>
  <time>2026-08-27T18:29:08Z</time>
  <course>151.96</course>
  <speed>0.03</speed>
  <fix>3d</fix>
</trkpt>
<trkpt lat="40.0728078" lon="-105.2306548">
  <ele>1595.46</ele>
  <time>2026-08-27T18:29:08Z</time>
  <course>14.13</course>
  <speed>0.02</speed>
  <fix>3d</fix>
</trkpt>
<trkpt lat="40.0728077" lon="-105.2306546">
  <ele>1595.42</ele>
  <time>2026-08-27T18:29:08Z</time>
  <course>162.02</course>
  <speed>0.04</speed>
  <fix>3d</fix>
</trkpt>
<trkpt lat="40.0728078" lon="-105.2306548">
  <ele>1595.47</ele>
  <time>2026-08-27T18:29:08Z</time>
  <course>14.06</course>
  <speed>0.01</speed>
  <fix>3d</fix>
</trkpt>
<trkpt lat="40.0728076" lon="-105.2306546">
  <ele>1595.42</ele>
  <time>2026-08-27T18:29:08Z</time>
  <course>160.51</course>
  <speed>0.04</speed>
  <fix>3d</fix>
</trkpt>
<trkpt lat="40.0728077" lon="-105.2306547">
  <ele>1595.47</ele>
  <time>2026-08-27T18:29:08Z</time>
  <course>14.07</course>
  <speed>0.0</speed>
  <fix>3d</fix>
</trkpt>
<trkpt lat="40.0728076" lon="-105.2306545">
  <ele>1595.42</ele>
  <time>2026-08-27T18:29:08Z</time>
  <course>150.77</course>
  <speed>0.04</speed>
  <fix>3d</fix>
</trkpt>
<trkpt lat="40.0728077" lon="-105.2306547">
  <ele>1595.47</ele>
  <time>2026-08-27T18:29:08Z</time>
  <course>14.08</course>
  <speed>0.01</speed>
  <fix>3d</fix>
</trkpt>
<trkpt lat="40.0728075" lon="-105.2306545">
  <ele>1595.42</ele>
  <time>2026-08-27T18:29:08Z</time>
  <course>138.88</course>
  <speed>0.03</speed>
  <fix>3d</fix>
</trkpt>
<trkpt lat="40.0728076" lon="-105.2306546">
  <ele>1595.47</ele>
  <time>2026-08-27T18:29:08Z</time>
  <course>14.08</course>
  <speed>0.01</speed>
  <fix>3d</fix>
</trkpt>
<trkpt lat="40.0728074" lon="-105.2306544">
  <ele>1595.42</ele>
  <time>2026-08-27T18:29:08Z</time>
  <course>128.93</course>
  <speed>0.03</speed>
  <fix>3d</fix>
</trkpt>
<trkpt lat="40.0728076" lon="-105.2306545">
  <ele>1595.47</ele>
  <time>2026-08-27T18:29:08Z</time>
  <course>14.1</course>
  <speed>0.01414213562373095</speed>
  <fix>3d</fix>
</trkpt>
<trkpt lat="40.0728074" lon="-105.2306543">
  <ele>1595.42</ele>
  <time>2026-08-27T18:29:08Z</time>
  <course>118.96</course>
  <speed>0.03</speed>
  <fix>3d</fix>
</trkpt>
<trkpt lat="40.0728076" lon="-105.2306545">
  <ele>1595.47</ele>
  <time>2026-08-27T18:29:08Z</time>
  <course>14.09</course>
  <speed>0.01414213562373095</speed>
  <fix>3d</fix>
</trkpt>
<trkpt lat="40.0728073" lon="-105.2306543">
  <ele>1595.42</ele>
  <time>2026-08-27T18:29:08Z</time>
  <course>109.63</course>
  <speed>0.02</speed>
  <fix>3d</fix>
</trkpt>
<trkpt lat="40.0728075" lon="-105.2306544">
  <ele>1595.48</ele>
  <time>2026-08-27T18:29:08Z</time>
  <course>14.1</course>
  <speed>0.01414213562373095</speed>
  <fix>3d</fix>
</trkpt>
<trkpt lat="40.0728073" lon="-105.2306542">
  <ele>1595.42</ele>
  <time>2026-08-27T18:29:08Z</time>
  <course>101.57</course>
  <speed>0.02</speed>
  <fix>3d</fix>
</trkpt>
<trkpt lat="40.0728075" lon="-105.2306543">
  <ele>1595.48</ele>
  <time>2026-08-27T18:29:08Z</time>
  <course>14.1</course>
  <speed>0.01414213562373095</speed>
  <fix>3d</fix>
</trkpt>
<trkpt lat="40.0728073" lon="-105.2306541">
  <ele>1595.42</ele>
  <time>2026-08-27T18:29:08Z</time>
  <course>95.19</course>
  <speed>0.02</speed>
  <fix>3d</fix>
</trkpt>
<trkpt lat="40.0728075" lon="-105.2306543">
  <ele>1595.48</ele>
  <time>2026-08-27T18:29:08Z</time>
  <course>14.11</course>
  <speed>0.022360679774997897</speed>
  <fix>3d</fix>
</trkpt>
<trkpt lat="40.0728073" lon="-105.2306541">
  <ele>1595.42</ele>
  <time>2026-08-27T18:29:08Z</time>
  <course>90.11</course>
  <speed>0.02</speed>
  <fix>3d</fix>
</trkpt>
<trkpt lat="40.0728075" lon="-105.2306542">
  <ele>1595.48</ele>
  <time>2026-08-27T18:29:08Z</time>
  <course>14.11</course>
  <speed>0.022360679774997897</speed>
  <fix>3d</fix>
</trkpt>
<trkpt lat="40.0728073" lon="-105.230654">
  <ele>1595.42</ele>
  <time>2026-08-27T18:29:08Z</time>
  <course>87.04</course>
  <speed>0.02</speed>
  <fix>3d</fix>
</trkpt>
<trkpt lat="40.0728075" lon="-105.2306541">
  <ele>1595.48</ele>
  <time>2026-08-27T18:29:08Z</time>
  <course>14.11</course>
  <speed>0.022360679774997897</speed>
  <fix>3d</fix>
</trkpt>
<trkpt lat="40.0728073" lon="-105.230654">
  <ele>1595.42</ele>
  <time>2026-08-27T18:29:08Z</time>
  <course>85.66</course>
  <speed>0.02</speed>
  <fix>3d</fix>
</trkpt>
<trkpt lat="40.0728075" lon="-105.230654">
  <ele>1595.48</ele>
  <time>2026-08-27T18:29:08Z</time>
  <course>14.12</course>
  <speed>0.022360679774997897</speed>
  <fix>3d</fix>
</trkpt>
<trkpt lat="40.0728073" lon="-105.2306539">
  <ele>1595.42</ele>
  <time>2026-08-27T18:29:08Z</time>
  <course>84.53</course>
  <speed>0.03</speed>
  <fix>3d</fix>
</trkpt>
<trkpt lat="40.0728075" lon="-105.230654">
  <ele>1595.49</ele>
  <time>2026-08-27T18:29:08Z</time>
  <course>14.12</course>
  <speed>0.022360679774997897</speed>
  <fix>3d</fix>
</trkpt>
<trkpt lat="40.0728073" lon="-105.2306538">
  <ele>1595.41</ele>
  <time>2026-08-27T18:29:08Z</time>
  <course>84.1</course>
  <speed>0.03</speed>
  <fix>3d</fix>
</trkpt>
<trkpt lat="40.0728075" lon="-105.2306539">
  <ele>1595.48</ele>
  <time>2026-08-27T18:29:08Z</time>
  <course>14.13</course>
  <speed>0.022360679774997897</speed>
  <fix>3d</fix>
</trkpt>
<trkpt lat="40.0728073" lon="-105.2306537">
  <ele>1595.41</ele>
  <time>2026-08-27T18:29:08Z</time>
  <course>84.12</course>
  <speed>0.03</speed>
  <fix>3d</fix>
</trkpt>
<trkpt lat="40.0728075" lon="-105.2306538">
  <ele>1595.48</ele>
  <time>2026-08-27T18:29:08Z</time>
  <course>14.12</course>
  <speed>0.022360679774997897</speed>
  <fix>3d</fix>
</trkpt>
<trkpt lat="40.0728073" lon="-105.2306536">
  <ele>1595.41</ele>
  <time>2026-08-27T18:29:08Z</time>
  <course>83.49</course>
  <speed>0.03</speed>
  <fix>3d</fix>
</trkpt>
<trkpt lat="40.0728075" lon="-105.2306537">
  <ele>1595.47</ele>
  <time>2026-08-27T18:29:08Z</time>
  <course>14.17</course>
  <speed>0.05</speed>
  <fix>3d</fix>
</trkpt>
<trkpt lat="40.0728073" lon="-105.2306536">
  <ele>1595.4</ele>
  <time>2026-08-27T18:29:08Z</time>
  <course>65.56</course>
  <speed>0.04</speed>
  <fix>3d</fix>
</trkpt>
<trkpt lat="40.0728075" lon="-105.2306536">
  <ele>1595.47</ele>
  <time>2026-08-27T18:29:08Z</time>
  <course>14.13</course>
  <speed>0.05099019513592785</speed>
  <fix>3d</fix>
</trkpt>
<trkpt lat="40.0728073" lon="-105.2306535">
  <ele>1595.4</ele>
  <time>2026-08-27T18:29:08Z</time>
  <course>52.4</course>
  <speed>0.05</speed>
  <fix>3d</fix>
</trkpt>
<trkpt lat="40.0728076" lon="-105.2306535">
  <ele>1595.47</ele>
  <time>2026-08-27T18:29:08Z</time>
  <course>14.26</course>
  <speed>0.0316227766016838</speed>
  <fix>3d</fix>
</trkpt>
<trkpt lat="40.0728074" lon="-105.2306534">
  <ele>1595.4</ele>
  <time>2026-08-27T18:29:08Z</time>
  <course>55.44</course>
  <speed>0.04</speed>
  <fix>3d</fix>
</trkpt>
<trkpt lat="40.0728076" lon="-105.2306535">
  <ele>1595.46</ele>
  <time>2026-08-27T18:29:08Z</time>
  <course>14.32</course>
  <speed>0.022360679774997897</speed>
  <fix>3d</fix>
</trkpt>
<trkpt lat="40.0728074" lon="-105.2306533">
  <ele>1595.4</ele>
  <time>2026-08-27T18:29:08Z</time>
  <course>60.54</course>
  <speed>0.04</speed>
  <fix>3d</fix>
</trkpt>
<trkpt lat="40.0728076" lon="-105.2306534">
  <ele>1595.46</ele>
  <time>2026-08-27T18:29:08Z</time>
  <course>14.2</course>
  <speed>0.02</speed>
  <fix>3d</fix>
</trkpt>
<trkpt lat="40.0728074" lon="-105.2306533">
  <ele>1595.4</ele>
  <time>2026-08-27T18:29:08Z</time>
  <course>60.13</course>
  <speed>0.02</speed>
  <fix>3d</fix>
</trkpt>
<trkpt lat="40.0728076" lon="-105.2306534">
  <ele>1595.46</ele>
  <time>2026-08-27T18:29:08Z</time>
  <course>14.18</course>
  <speed>0.01</speed>
  <fix>3d</fix>
</trkpt>
<trkpt lat="40.0728074" lon="-105.2306532">
  <ele>1595.4</ele>
  <time>2026-08-27T18:29:08Z</time>
  <course>78.86</course>
  <speed>0.02</speed>
  <fix>3d</fix>
</trkpt>
<trkpt lat="40.0728076" lon="-105.2306533">
  <ele>1595.47</ele>
  <time>2026-08-27T18:29:08Z</time>
  <course>14.28</course>
  <speed>0.01</speed>
  <fix>3d</fix>
</trkpt>
<trkpt lat="40.0728074" lon="-105.2306531">
  <ele>1595.4</ele>
  <time>2026-08-27T18:29:08Z</time>
  <course>97.83</course>
  <speed>0.02</speed>
  <fix>3d</fix>
</trkpt>
<trkpt lat="40.0728075" lon="-105.2306532">
  <ele>1595.47</ele>
  <time>2026-08-27T18:29:08Z</time>
  <course>14.3</course>
  <speed>0.01</speed>
  <fix>3d</fix>
</trkpt>
<trkpt lat="40.0728074" lon="-105.2306531">
  <ele>1595.4</ele>
  <time>2026-08-27T18:29:08Z</time>
  <course>101.68</course>
  <speed>0.02</speed>
  <fix>3d</fix>
</trkpt>
<trkpt lat="40.0728075" lon="-105.2306532">
  <ele>1595.47</ele>
  <time>2026-08-27T18:29:08Z</time>
  <course>14.17</course>
  <speed>0.0</speed>
  <fix>3d</fix>
</trkpt>
<trkpt lat="40.0728074" lon="-105.230653">
  <ele>1595.4</ele>
  <time>2026-08-27T18:29:08Z</time>
  <course>108.16</course>
  <speed>0.02</speed>
  <fix>3d</fix>
</trkpt>
<trkpt lat="40.0728075" lon="-105.2306531">
  <ele>1595.47</ele>
  <time>2026-08-27T18:29:08Z</time>
  <course>14.22</course>
  <speed>0.0</speed>
  <fix>3d</fix>
</trkpt>
<trkpt lat="40.0728074" lon="-105.2306529">
  <ele>1595.4</ele>
  <time>2026-08-27T18:29:08Z</time>
  <course>114.76</course>
  <speed>0.02</speed>
  <fix>3d</fix>
</trkpt>
<trkpt lat="40.0728075" lon="-105.2306531">
  <ele>1595.47</ele>
  <time>2026-08-27T18:29:08Z</time>
  <course>14.31</course>
  <speed>0.01</speed>
  <fix>3d</fix>
</trkpt>
<trkpt lat="40.0728074" lon="-105.2306529">
  <ele>1595.4</ele>
  <time>2026-08-27T18:29:08Z</time>
  <course>112.4</course>
  <speed>0.03</speed>
  <fix>3d</fix>
</trkpt>
<trkpt lat="40.0728075" lon="-105.230653">
  <ele>1595.48</ele>
  <time>2026-08-27T18:29:08Z</time>
  <course>14.28</course>
  <speed>0.01</speed>
  <fix>3d</fix>
</trkpt>
<trkpt lat="40.0728074" lon="-105.2306528">
  <ele>1595.4</ele>
  <time>2026-08-27T18:29:08Z</time>
  <course>112.2</course>
  <speed>0.02</speed>
  <fix>3d</fix>
</trkpt>
<trkpt lat="40.0728075" lon="-105.2306529">
  <ele>1595.48</ele>
  <time>2026-08-27T18:29:08Z</time>
  <course>14.19</course>
  <speed>0.0</speed>
  <fix>3d</fix>
</trkpt>
<trkpt lat="40.0728074" lon="-105.2306528">
  <ele>1595.4</ele>
  <time>2026-08-27T18:29:08Z</time>
  <course>119.87</course>
  <speed>0.02</speed>
  <fix>3d</fix>
</trkpt>
<trkpt lat="40.0728075" lon="-105.2306529">
  <ele>1595.48</ele>
  <time>2026-08-27T18:29:08Z</time>
  <course>14.28</course>
  <speed>0.0</speed>
  <fix>3d</fix>
</trkpt>
<trkpt lat="40.0728074" lon="-105.2306527">
  <ele>1595.4</ele>
  <time>2026-08-27T18:29:08Z</time>
  <course>120.44</course>
  <speed>0.02</speed>
  <fix>3d</fix>
</trkpt>
<trkpt lat="40.0728075" lon="-105.2306528">
  <ele>1595.48</ele>
  <time>2026-08-27T18:29:08Z</time>
  <course>14.34</course>
  <speed>0.01</speed>
  <fix>3d</fix>
</trkpt>
<trkpt lat="40.0728074" lon="-105.2306526">
  <ele>1595.4</ele>
  <time>2026-08-27T18:29:08Z</time>
  <course>116.28</course>
  <speed>0.03</speed>
  <fix>3d</fix>
</trkpt>
<trkpt lat="40.0728075" lon="-105.2306528">
  <ele>1595.48</ele>
  <time>2026-08-27T18:29:08Z</time>
  <course>14.25</course>
  <speed>0.0</speed>
  <fix>3d</fix>
</trkpt>
<trkpt lat="40.0728074" lon="-105.2306526">
  <ele>1595.4</ele>
  <time>2026-08-27T18:29:08Z</time>
  <course>118.58</course>
  <speed>0.02</speed>
  <fix>3d</fix>
</trkpt>
<trkpt lat="40.0728075" lon="-105.2306527">
  <ele>1595.48</ele>
  <time>2026-08-27T18:29:08Z</time>
  <course>14.2</course>
  <speed>0.0</speed>
  <fix>3d</fix>
</trkpt>
<trkpt lat="40.0728074" lon="-105.2306525">
  <ele>1595.4</ele>
  <time>2026-08-27T18:29:08Z</time>
  <course>125.89</course>
  <speed>0.02</speed>
  <fix>3d</fix>
</trkpt>
<trkpt lat="40.0728074" lon="-105.2306527">
  <ele>1595.48</ele>
  <time>2026-08-27T18:29:08Z</time>
  <course>14.31</course>
  <speed>0.0</speed>
  <fix>3d</fix>
</trkpt>
<trkpt lat="40.0728073" lon="-105.2306524">
  <ele>1595.39</ele>
  <time>2026-08-27T18:29:08Z</time>
  <course>122.24</course>
  <speed>0.03</speed>
  <fix>3d</fix>
</trkpt>
<trkpt lat="40.0728074" lon="-105.2306526">
  <ele>1595.48</ele>
  <time>2026-08-27T18:29:08Z</time>
  <course>14.33</course>
  <speed>0.01</speed>
  <fix>3d</fix>
</trkpt>
<trkpt lat="40.0728073" lon="-105.2306524">
  <ele>1595.39</ele>
  <time>2026-08-27T18:29:08Z</time>
  <course>119.4</course>
  <speed>0.03</speed>
  <fix>3d</fix>
</trkpt>
<trkpt lat="40.0728074" lon="-105.2306526">
  <ele>1595.47</ele>
  <time>2026-08-27T18:29:08Z</time>
  <course>14.14</course>
  <speed>0.022360679774997897</speed>
  <fix>3d</fix>
</trkpt>
<trkpt lat="40.0728073" lon="-105.2306524">
  <ele>1595.39</ele>
  <time>2026-08-27T18:29:08Z</time>
  <course>149.48</course>
  <speed>0.03</speed>
  <fix>3d</fix>
</trkpt>
<trkpt lat="40.0728073" lon="-105.2306525">
  <ele>1595.47</ele>
  <time>2026-08-27T18:29:08Z</time>
  <course>14.12</course>
  <speed>0.01</speed>
  <fix>3d</fix>
</trkpt>
<trkpt lat="40.0728072" lon="-105.2306524">
  <ele>1595.39</ele>
  <time>2026-08-27T18:29:08Z</time>
  <course>161.5</course>
  <speed>0.04</speed>
  <fix>3d</fix>
</trkpt>
<trkpt lat="40.0728073" lon="-105.2306525">
  <ele>1595.46</ele>
  <time>2026-08-27T18:29:08Z</time>
  <course>14.07</course>
  <speed>0.01</speed>
  <fix>3d</fix>
</trkpt>
<trkpt lat="40.0728072" lon="-105.2306523">
  <ele>1595.39</ele>
  <time>2026-08-27T18:29:08Z</time>
  <course>152.03</course>
  <speed>0.04</speed>
  <fix>3d</fix>
</trkpt>
<trkpt lat="40.0728072" lon="-105.2306524">
  <ele>1595.46</ele>
  <time>2026-08-27T18:29:08Z</time>
  <course>14.06</course>
  <speed>0.01</speed>
  <fix>3d</fix>
</trkpt>
<trkpt lat="40.0728071" lon="-105.2306522">
  <ele>1595.39</ele>
  <time>2026-08-27T18:29:08Z</time>
  <course>142.88</course>
  <speed>0.04</speed>
  <fix>3d</fix>
</trkpt>
<trkpt lat="40.0728072" lon="-105.2306523">
  <ele>1595.45</ele>
  <time>2026-08-27T18:29:08Z</time>
  <course>14.07</course>
  <speed>0.01</speed>
  <fix>3d</fix>
</trkpt>
<trkpt lat="40.0728071" lon="-105.2306522">
  <ele>1595.39</ele>
  <time>2026-08-27T18:29:08Z</time>
  <course>130.98</course>
  <speed>0.03</speed>
  <fix>3d</fix>
</trkpt>
<trkpt lat="40.0728072" lon="-105.2306523">
  <ele>1595.45</ele>
  <time>2026-08-27T18:29:08Z</time>
  <course>14.06</course>
  <speed>0.01</speed>
  <fix>3d</fix>
</trkpt>
<trkpt lat="40.072807" lon="-105.2306521">
  <ele>1595.39</ele>
  <time>2026-08-27T18:29:08Z</time>
  <course>120.94</course>
  <speed>0.03</speed>
  <fix>3d</fix>
</trkpt>
<trkpt lat="40.0728071" lon="-105.2306522">
  <ele>1595.45</ele>
  <time>2026-08-27T18:29:08Z</time>
  <course>14.07</course>
  <speed>0.01414213562373095</speed>
  <fix>3d</fix>
</trkpt>
<trkpt lat="40.072807" lon="-105.230652">
  <ele>1595.39</ele>
  <time>2026-08-27T18:29:08Z</time>
  <course>112.04</course>
  <speed>0.03</speed>
  <fix>3d</fix>
</trkpt>
<trkpt lat="40.0728071" lon="-105.2306521">
  <ele>1595.46</ele>
  <time>2026-08-27T18:29:08Z</time>
  <course>14.06</course>
  <speed>0.01414213562373095</speed>
  <fix>3d</fix>
</trkpt>
<trkpt lat="40.072807" lon="-105.2306519">
  <ele>1595.39</ele>
  <time>2026-08-27T18:29:08Z</time>
  <course>105.43</course>
  <speed>0.03</speed>
  <fix>3d</fix>
</trkpt>
<trkpt lat="40.0728071" lon="-105.230652">
  <ele>1595.47</ele>
  <time>2026-08-27T18:29:08Z</time>
  <course>14.06</course>
  <speed>0.01414213562373095</speed>
  <fix>3d</fix>
</trkpt>
<trkpt lat="40.072807" lon="-105.2306519">
  <ele>1595.39</ele>
  <time>2026-08-27T18:29:08Z</time>
  <course>99.73</course>
  <speed>0.03</speed>
  <fix>3d</fix>
</trkpt>
<trkpt lat="40.0728071" lon="-105.230652">
  <ele>1595.48</ele>
  <time>2026-08-27T18:29:08Z</time>
  <course>14.08</course>
  <speed>0.022360679774997897</speed>
  <fix>3d</fix>
</trkpt>
<trkpt lat="40.072807" lon="-105.2306518">
  <ele>1595.4</ele>
  <time>2026-08-27T18:29:08Z</time>
  <course>94.17</course>
  <speed>0.03</speed>
  <fix>3d</fix>
</trkpt>
<trkpt lat="40.0728071" lon="-105.2306519">
  <ele>1595.48</ele>
  <time>2026-08-27T18:29:08Z</time>
  <course>14.11</course>
  <speed>0.022360679774997897</speed>
  <fix>3d</fix>
</trkpt>
<trkpt lat="40.072807" lon="-105.2306517">
  <ele>1595.4</ele>
  <time>2026-08-27T18:29:08Z</time>
  <course>89.85</course>
  <speed>0.03</speed>
  <fix>3d</fix>
</trkpt>
<trkpt lat="40.0728071" lon="-105.2306518">
  <ele>1595.48</ele>
  <time>2026-08-27T18:29:08Z</time>
  <course>14.11</course>
  <speed>0.022360679774997897</speed>
  <fix>3d</fix>
</trkpt>
<trkpt lat="40.072807" lon="-105.2306517">
  <ele>1595.4</ele>
  <time>2026-08-27T18:29:08Z</time>
  <course>87.49</course>
  <speed>0.03</speed>
  <fix>3d</fix>
</trkpt>
<trkpt lat="40.0728071" lon="-105.2306517">
  <ele>1595.48</ele>
  <time>2026-08-27T18:29:08Z</time>
  <course>14.11</course>
  <speed>0.022360679774997897</speed>
  <fix>3d</fix>
</trkpt>
<trkpt lat="40.072807" lon="-105.2306516">
  <ele>1595.4</ele>
  <time>2026-08-27T18:29:08Z</time>
  <course>86.39</course>
  <speed>0.03</speed>
  <fix>3d</fix>
</trkpt>
<trkpt lat="40.0728071" lon="-105.2306517">
  <ele>1595.48</ele>
  <time>2026-08-27T18:29:08Z</time>
  <course>14.11</course>
  <speed>0.022360679774997897</speed>
  <fix>3d</fix>
</trkpt>
<trkpt lat="40.072807" lon="-105.2306515">
  <ele>1595.4</ele>
  <time>2026-08-27T18:29:08Z</time>
  <course>85.44</course>
  <speed>0.03</speed>
  <fix>3d</fix>
</trkpt>
<trkpt lat="40.0728071" lon="-105.2306516">
  <ele>1595.48</ele>
  <time>2026-08-27T18:29:08Z</time>
  <course>14.11</course>
  <speed>0.022360679774997897</speed>
  <fix>3d</fix>
</trkpt>
<trkpt lat="40.072807" lon="-105.2306514">
  <ele>1595.39</ele>
  <time>2026-08-27T18:29:08Z</time>
  <course>85.32</course>
  <speed>0.03</speed>
  <fix>3d</fix>
</trkpt>
<trkpt lat="40.0728071" lon="-105.2306515">
  <ele>1595.47</ele>
  <time>2026-08-27T18:29:08Z</time>
  <course>14.11</course>
  <speed>0.022360679774997897</speed>
  <fix>3d</fix>
</trkpt>
<trkpt lat="40.072807" lon="-105.2306513">
  <ele>1595.39</ele>
  <time>2026-08-27T18:29:08Z</time>
  <course>85.46</course>
  <speed>0.03</speed>
  <fix>3d</fix>
</trkpt>
<trkpt lat="40.0728071" lon="-105.2306514">
  <ele>1595.48</ele>
  <time>2026-08-27T18:29:08Z</time>
  <course>14.11</course>
  <speed>0.03605551275463989</speed>
  <fix>3d</fix>
</trkpt>
<trkpt lat="40.072807" lon="-105.2306512">
  <ele>1595.39</ele>
  <time>2026-08-27T18:29:08Z</time>
  <course>82.44</course>
  <speed>0.03</speed>
  <fix>3d</fix>
</trkpt>
<trkpt lat="40.0728072" lon="-105.2306513">
  <ele>1595.48</ele>
  <time>2026-08-27T18:29:08Z</time>
  <course>14.21</course>
  <speed>0.05</speed>
  <fix>3d</fix>
</trkpt>
<trkpt lat="40.072807" lon="-105.2306512">
  <ele>1595.39</ele>
  <time>2026-08-27T18:29:08Z</time>
  <course>66.53</course>
  <speed>0.04</speed>
  <fix>3d</fix>
</trkpt>
<trkpt lat="40.0728072" lon="-105.2306512">
  <ele>1595.47</ele>
  <time>2026-08-27T18:29:08Z</time>
  <course>14.17</course>
  <speed>0.05099019513592785</speed>
  <fix>3d</fix>
</trkpt>
<trkpt lat="40.072807" lon="-105.2306511">
  <ele>1595.39</ele>
  <time>2026-08-27T18:29:08Z</time>
  <course>52.82</course>
  <speed>0.05</speed>
  <fix>3d</fix>
</trkpt>
<trkpt lat="40.0728072" lon="-105.2306511">
  <ele>1595.47</ele>
  <time>2026-08-27T18:29:08Z</time>
  <course>14.25</course>
  <speed>0.04</speed>
  <fix>3d</fix>
</trkpt>
<trkpt lat="40.072807" lon="-105.230651">
  <ele>1595.38</ele>
  <time>2026-08-27T18:29:08Z</time>
  <course>53.24</course>
  <speed>0.04</speed>
  <fix>3d</fix>
</trkpt>
<trkpt lat="40.0728073" lon="-105.2306511">
  <ele>1595.47</ele>
  <time>2026-08-27T18:29:08Z</time>
  <course>14.34</course>
  <speed>0.022360679774997897</speed>
  <fix>3d</fix>
</trkpt>
<trkpt lat="40.0728071" lon="-105.2306509">
  <ele>1595.38</ele>
  <time>2026-08-27T18:29:08Z</time>
  <course>65.89</course>
  <speed>0.03</speed>
  <fix>3d</fix>
</trkpt>
<trkpt lat="40.0728073" lon="-105.230651">
  <ele>1595.47</ele>
  <time>2026-08-27T18:29:08Z</time>
  <course>14.27</course>
  <speed>0.022360679774997897</speed>
  <fix>3d</fix>
</trkpt>
<trkpt lat="40.0728071" lon="-105.2306508">
  <ele>1595.38</ele>
  <time>2026-08-27T18:29:08Z</time>
  <course>69.06</course>
  <speed>0.02</speed>
  <fix>3d</fix>
</trkpt>
<trkpt lat="40.0728072" lon="-105.2306509">
  <ele>1595.47</ele>
  <time>2026-08-27T18:29:08Z</time>
  <course>14.19</course>
  <speed>0.01</speed>
  <fix>3d</fix>
</trkpt>
<trkpt lat="40.0728071" lon="-105.2306507">
  <ele>1595.38</ele>
  <time>2026-08-27T18:29:08Z</time>
  <course>86.16</course>
  <speed>0.01</speed>
  <fix>3d</fix>
</trkpt>
<trkpt lat="40.0728072" lon="-105.2306509">
  <ele>1595.47</ele>
  <time>2026-08-27T18:29:08Z</time>
  <course>14.3</course>
  <speed>0.01</speed>
  <fix>3d</fix>
</trkpt>
<trkpt lat="40.0728071" lon="-105.2306507">
  <ele>1595.38</ele>
  <time>2026-08-27T18:29:08Z</time>
  <course>104.48</course>
  <speed>0.02</speed>
  <fix>3d</fix>
</trkpt>
<trkpt lat="40.0728072" lon="-105.2306508">
  <ele>1595.47</ele>
  <time>2026-08-27T18:29:08Z</time>
  <course>14.34</course>
  <speed>0.01</speed>
  <fix>3d</fix>
</trkpt>
<trkpt lat="40.0728071" lon="-105.2306507">
  <ele>1595.38</ele>
  <time>2026-08-27T18:29:08Z</time>
  <course>105.76</course>
  <speed>0.03</speed>
  <fix>3d</fix>
</trkpt>
<trkpt lat="40.0728072" lon="-105.2306508">
  <ele>1595.47</ele>
  <time>2026-08-27T18:29:08Z</time>
  <course>14.2</course>
  <speed>0.01</speed>
  <fix>3d</fix>
</trkpt>
<trkpt lat="40.0728071" lon="-105.2306506">
  <ele>1595.38</ele>
  <time>2026-08-27T18:29:08Z</time>
  <course>112.73</course>
  <speed>0.02</speed>
  <fix>3d</fix>
</trkpt>
<trkpt lat="40.0728072" lon="-105.2306507">
  <ele>1595.47</ele>
  <time>2026-08-27T18:29:08Z</time>
  <course>14.26</course>
  <speed>0.0</speed>
  <fix>3d</fix>
</trkpt>
<trkpt lat="40.0728071" lon="-105.2306505">
  <ele>1595.38</ele>
  <time>2026-08-27T18:29:08Z</time>
  <course>120.1</course>
  <speed>0.02</speed>
  <fix>3d</fix>
</trkpt>
<trkpt lat="40.0728072" lon="-105.2306506">
  <ele>1595.47</ele>
  <time>2026-08-27T18:29:08Z</time>
  <course>14.34</course>
  <speed>0.01</speed>
  <fix>3d</fix>
</trkpt>
<trkpt lat="40.0728071" lon="-105.2306505">
  <ele>1595.38</ele>
  <time>2026-08-27T18:29:08Z</time>
  <course>115.76</course>
  <speed>0.03</speed>
  <fix>3d</fix>
</trkpt>
<trkpt lat="40.0728072" lon="-105.2306506">
  <ele>1595.47</ele>
  <time>2026-08-27T18:29:08Z</time>
  <course>14.26</course>
  <speed>0.01</speed>
  <fix>3d</fix>
</trkpt>
<trkpt lat="40.0728071" lon="-105.2306504">
  <ele>1595.38</ele>
  <time>2026-08-27T18:29:08Z</time>
  <course>116.61</course>
  <speed>0.02</speed>
  <fix>3d</fix>
</trkpt>
<trkpt lat="40.0728072" lon="-105.2306505">
  <ele>1595.47</ele>
  <time>2026-08-27T18:29:08Z</time>
  <course>14.2</course>
  <speed>0.0</speed>
  <fix>3d</fix>
</trkpt>
<trkpt lat="40.0728071" lon="-105.2306504">
  <ele>1595.38</ele>
  <time>2026-08-27T18:29:08Z</time>
  <course>126.91</course>
  <speed>0.02</speed>
  <fix>3d</fix>
</trkpt>
<trkpt lat="40.0728072" lon="-105.2306505">
  <ele>1595.46</ele>
  <time>2026-08-27T18:29:08Z</time>
  <course>14.3</course>
  <speed>0.0</speed>
  <fix>3d</fix>
</trkpt>
<trkpt lat="40.072807" lon="-105.2306503">
  <ele>1595.38</ele>
  <time>2026-08-27T18:29:08Z</time>
  <course>122.94</course>
  <speed>0.03</speed>
  <fix>3d</fix>
</trkpt>
<trkpt lat="40.0728072" lon="-105.2306504">
  <ele>1595.46</ele>
  <time>2026-08-27T18:29:08Z</time>
  <course>14.32</course>
  <speed>0.01</speed>
  <fix>3d</fix>
</trkpt>
<trkpt lat="40.072807" lon="-105.2306502">
  <ele>1595.38</ele>
  <time>2026-08-27T18:29:08Z</time>
  <course>118.48</course>
  <speed>0.03</speed>
  <fix>3d</fix>
</trkpt>
<trkpt lat="40.0728071" lon="-105.2306504">
  <ele>1595.46</ele>
  <time>2026-08-27T18:29:08Z</time>
  <course>14.17</course>
  <speed>0.0</speed>
  <fix>3d</fix>
</trkpt>
<trkpt lat="40.072807" lon="-105.2306502">
  <ele>1595.38</ele>
  <time>2026-08-27T18:29:08Z</time>
  <course>126.62</course>
  <speed>0.02</speed>
  <fix>3d</fix>
</trkpt>
<trkpt lat="40.0728071" lon="-105.2306503">
  <ele>1595.46</ele>
  <time>2026-08-27T18:29:08Z</time>
  <course>14.24</course>
  <speed>0.0</speed>
  <fix>3d</fix>
</trkpt>
<trkpt lat="40.0728069" lon="-105.2306501">
  <ele>1595.38</ele>
  <time>2026-08-27T18:29:08Z</time>
  <course>129.49</course>
  <speed>0.02</speed>
  <fix>3d</fix>
</trkpt>
<trkpt lat="40.0728071" lon="-105.2306503">
  <ele>1595.46</ele>
  <time>2026-08-27T18:29:08Z</time>
  <course>14.32</course>
  <speed>0.01</speed>
  <fix>3d</fix>
</trkpt>
<trkpt lat="40.0728068" lon="-105.23065">
  <ele>1595.38</ele>
  <time>2026-08-27T18:29:08Z</time>
  <course>121.97</course>
  <speed>0.03</speed>
  <fix>3d</fix>
</trkpt>
<trkpt lat="40.072807" lon="-105.2306502">
  <ele>1595.47</ele>
  <time>2026-08-27T18:29:08Z</time>
  <course>14.24</course>
  <speed>0.0</speed>
  <fix>3d</fix>
</trkpt>
<trkpt lat="40.0728068" lon="-105.23065">
  <ele>1595.38</ele>
  <time>2026-08-27T18:29:08Z</time>
  <course>123.95</course>
  <speed>0.02</speed>
  <fix>3d</fix>
</trkpt>
<trkpt lat="40.072807" lon="-105.2306501">
  <ele>1595.47</ele>
  <time>2026-08-27T18:29:08Z</time>
  <course>14.16</course>
  <speed>0.022360679774997897</speed>
  <fix>3d</fix>
</trkpt>
<trkpt lat="40.0728068" lon="-105.23065">
  <ele>1595.38</ele>
  <time>2026-08-27T18:29:08Z</time>
  <course>148.94</course>
  <speed>0.03</speed>
  <fix>3d</fix>
</trkpt>
<trkpt lat="40.0728069" lon="-105.2306501">
  <ele>1595.46</ele>
  <time>2026-08-27T18:29:08Z</time>
  <course>14.13</course>
  <speed>0.02</speed>
  <fix>3d</fix>
</trkpt>
<trkpt lat="40.0728067" lon="-105.23065">
  <ele>1595.38</ele>
  <time>2026-08-27T18:29:08Z</time>
  <course>160.08</course>
  <speed>0.04</speed>
  <fix>3d</fix>
</trkpt>
<trkpt lat="40.0728068" lon="-105.2306501">
  <ele>1595.46</ele>
  <time>2026-08-27T18:29:08Z</time>
  <course>14.06</course>
  <speed>0.01</speed>
  <fix>3d</fix>
</trkpt>
<trkpt lat="40.0728067" lon="-105.2306499">
  <ele>1595.38</ele>
  <time>2026-08-27T18:29:08Z</time>
  <course>159.87</course>
  <speed>0.04</speed>
  <fix>3d</fix>
</trkpt>
<trkpt lat="40.0728068" lon="-105.23065">
  <ele>1595.46</ele>
  <time>2026-08-27T18:29:08Z</time>
  <course>14.06</course>
  <speed>0.01</speed>
  <fix>3d</fix>
</trkpt>
<trkpt lat="40.0728066" lon="-105.2306498">
  <ele>1595.39</ele>
  <time>2026-08-27T18:29:08Z</time>
  <course>149.28</course>
  <speed>0.04</speed>
  <fix>3d</fix>
</trkpt>
<trkpt lat="40.0728067" lon="-105.23065">
  <ele>1595.46</ele>
  <time>2026-08-27T18:29:08Z</time>
  <course>14.06</course>
  <speed>0.01</speed>
  <fix>3d</fix>
</trkpt>
<trkpt lat="40.0728066" lon="-105.2306498">
  <ele>1595.39</ele>
  <time>2026-08-27T18:29:08Z</time>
  <course>136.91</course>
  <speed>0.03</speed>
  <fix>3d</fix>
</trkpt>
<trkpt lat="40.0728067" lon="-105.2306499">
  <ele>1595.46</ele>
  <time>2026-08-27T18:29:08Z</time>
  <course>14.07</course>
  <speed>0.01</speed>
  <fix>3d</fix>
</trkpt>
<trkpt lat="40.0728065" lon="-105.2306498">
  <ele>1595.39</ele>
  <time>2026-08-27T18:29:08Z</time>
  <course>126.49</course>
  <speed>0.03</speed>
  <fix>3d</fix>
</trkpt>
<trkpt lat="40.0728067" lon="-105.2306498">
  <ele>1595.46</ele>
  <time>2026-08-27T18:29:08Z</time>
  <course>14.06</course>
  <speed>0.01</speed>
  <fix>3d</fix>
</trkpt>
<trkpt lat="40.0728065" lon="-105.2306497">
  <ele>1595.39</ele>
  <time>2026-08-27T18:29:08Z</time>
  <course>115.39</course>
  <speed>0.03</speed>
  <fix>3d</fix>
</trkpt>
<trkpt lat="40.0728066" lon="-105.2306498">
  <ele>1595.46</ele>
  <time>2026-08-27T18:29:08Z</time>
  <course>14.06</course>
  <speed>0.01414213562373095</speed>
  <fix>3d</fix>
</trkpt>
<trkpt lat="40.0728065" lon="-105.2306496">
  <ele>1595.39</ele>
  <time>2026-08-27T18:29:08Z</time>
  <course>105.14</course>
  <speed>0.03</speed>
  <fix>3d</fix>
</trkpt>
<trkpt lat="40.0728066" lon="-105.2306497">
  <ele>1595.46</ele>
  <time>2026-08-27T18:29:08Z</time>
  <course>14.08</course>
  <speed>0.01414213562373095</speed>
  <fix>3d</fix>
</trkpt>
<trkpt lat="40.0728065" lon="-105.2306495">
  <ele>1595.39</ele>
  <time>2026-08-27T18:29:08Z</time>
  <course>97.18</course>
  <speed>0.03</speed>
  <fix>3d</fix>
</trkpt>
<trkpt lat="40.0728066" lon="-105.2306496">
  <ele>1595.47</ele>
  <time>2026-08-27T18:29:08Z</time>
  <course>14.08</course>
  <speed>0.01414213562373095</speed>
  <fix>3d</fix>
</trkpt>
<trkpt lat="40.0728065" lon="-105.2306495">
  <ele>1595.4</ele>
  <time>2026-08-27T18:29:08Z</time>
  <course>91.66</course>
  <speed>0.03</speed>
  <fix>3d</fix>
</trkpt>
<trkpt lat="40.0728067" lon="-105.2306496">
  <ele>1595.48</ele>
  <time>2026-08-27T18:29:08Z</time>
  <course>14.09</course>
  <speed>0.022360679774997897</speed>
  <fix>3d</fix>
</trkpt>
<trkpt lat="40.0728065" lon="-105.2306494">
  <ele>1595.4</ele>
  <time>2026-08-27T18:29:08Z</time>
  <course>88.1</course>
  <speed>0.03</speed>
  <fix>3d</fix>
</trkpt>
<trkpt lat="40.0728067" lon="-105.2306495">
  <ele>1595.48</ele>
  <time>2026-08-27T18:29:08Z</time>
  <course>14.09</course>
  <speed>0.022360679774997897</speed>
  <fix>3d</fix>
</trkpt>
<trkpt lat="40.0728065" lon="-105.2306493">
  <ele>1595.4</ele>
  <time>2026-08-27T18:29:08Z</time>
  <course>85.34</course>
  <speed>0.03</speed>
  <fix>3d</fix>
</trkpt>
<trkpt lat="40.0728067" lon="-105.2306494">
  <ele>1595.48</ele>
  <time>2026-08-27T18:29:08Z</time>
  <course>14.1</course>
  <speed>0.022360679774997897</speed>
  <fix>3d</fix>
</trkpt>
<trkpt lat="40.0728065" lon="-105.2306492">
  <ele>1595.4</ele>
  <time>2026-08-27T18:29:08Z</time>
  <course>83.16</course>
  <speed>0.03</speed>
  <fix>3d</fix>
</trkpt>
<trkpt lat="40.0728067" lon="-105.2306493">
  <ele>1595.48</ele>
  <time>2026-08-27T18:29:08Z</time>
  <course>14.11</course>
  <speed>0.022360679774997897</speed>
  <fix>3d</fix>
</trkpt>
<trkpt lat="40.0728065" lon="-105.2306492">
  <ele>1595.4</ele>
  <time>2026-08-27T18:29:08Z</time>
  <course>82.05</course>
  <speed>0.03</speed>
  <fix>3d</fix>
</trkpt>
<trkpt lat="40.0728067" lon="-105.2306493">
  <ele>1595.47</ele>
  <time>2026-08-27T18:29:08Z</time>
  <course>14.11</course>
  <speed>0.022360679774997897</speed>
  <fix>3d</fix>
</trkpt>
<trkpt lat="40.0728065" lon="-105.2306491">
  <ele>1595.4</ele>
  <time>2026-08-27T18:29:08Z</time>
  <course>81.43</course>
  <speed>0.03</speed>
  <fix>3d</fix>
</trkpt>
<trkpt lat="40.0728067" lon="-105.2306492">
  <ele>1595.48</ele>
  <time>2026-08-27T18:29:08Z</time>
  <course>14.1</course>
  <speed>0.022360679774997897</speed>
  <fix>3d</fix>
</trkpt>
<trkpt lat="40.0728065" lon="-105.230649">
  <ele>1595.4</ele>
  <time>2026-08-27T18:29:08Z</time>
  <course>81.33</course>
  <speed>0.03</speed>
  <fix>3d</fix>
</trkpt>
<trkpt lat="40.0728067" lon="-105.2306491">
  <ele>1595.48</ele>
  <time>2026-08-27T18:29:08Z</time>
  <course>14.12</course>
  <speed>0.022360679774997897</speed>
  <fix>3d</fix>
</trkpt>
<trkpt lat="40.0728065" lon="-105.2306489">
  <ele>1595.4</ele>
  <time>2026-08-27T18:29:08Z</time>
  <course>81.28</course>
  <speed>0.03</speed>
  <fix>3d</fix>
</trkpt>
<trkpt lat="40.0728067" lon="-105.230649">
  <ele>1595.48</ele>
  <time>2026-08-27T18:29:08Z</time>
  <course>14.18</course>
  <speed>0.05</speed>
  <fix>3d</fix>
</trkpt>
<trkpt lat="40.0728065" lon="-105.2306488">
  <ele>1595.4</ele>
  <time>2026-08-27T18:29:08Z</time>
  <course>64.47</course>
  <speed>0.04</speed>
  <fix>3d</fix>
</trkpt>
<trkpt lat="40.0728067" lon="-105.2306489">
  <ele>1595.48</ele>
  <time>2026-08-27T18:29:08Z</time>
  <course>14.15</course>
  <speed>0.05099019513592785</speed>
  <fix>3d</fix>
</trkpt>
<trkpt lat="40.0728065" lon="-105.2306487">
  <ele>1595.39</ele>
  <time>2026-08-27T18:29:08Z</time>
  <course>51.52</course>
  <speed>0.04</speed>
  <fix>3d</fix>
</trkpt>
<trkpt lat="40.0728067" lon="-105.2306488">
  <ele>1595.48</ele>
  <time>2026-08-27T18:29:08Z</time>
  <course>14.29</course>
  <speed>0.0316227766016838</speed>
  <fix>3d</fix>
</trkpt>
<trkpt lat="40.0728065" lon="-105.2306486">
  <ele>1595.39</ele>
  <time>2026-08-27T18:29:08Z</time>
  <course>54.46</course>
  <speed>0.04</speed>
  <fix>3d</fix>
</trkpt>
<trkpt lat="40.0728068" lon="-105.2306487">
  <ele>1595.48</ele>
  <time>2026-08-27T18:29:08Z</time>
  <course>14.36</course>
  <speed>0.022360679774997897</speed>
  <fix>3d</fix>
</trkpt>
<trkpt lat="40.0728066" lon="-105.2306486">
  <ele>1595.39</ele>
  <time>2026-08-27T18:29:08Z</time>
  <course>60.76</course>
  <speed>0.04</speed>
  <fix>3d</fix>
</trkpt>
<trkpt lat="40.0728068" lon="-105.2306487">
  <ele>1595.48</ele>
  <time>2026-08-27T18:29:08Z</time>
  <course>14.27</course>
  <speed>0.022360679774997897</speed>
  <fix>3d</fix>
</trkpt>
<trkpt lat="40.0728066" lon="-105.2306485">
  <ele>1595.39</ele>
  <time>2026-08-27T18:29:08Z</time>
  <course>61.31</course>
  <speed>0.02</speed>
  <fix>3d</fix>
</trkpt>
<trkpt lat="40.0728068" lon="-105.2306486">
  <ele>1595.48</ele>
  <time>2026-08-27T18:29:08Z</time>
  <course>14.21</course>
  <speed>0.01</speed>
  <fix>3d</fix>
</trkpt>
<trkpt lat="40.0728066" lon="-105.2306485">
  <ele>1595.38</ele>
  <time>2026-08-27T18:29:08Z</time>
  <course>78.04</course>
  <speed>0.02</speed>
  <fix>3d</fix>
</trkpt>
<trkpt lat="40.0728067" lon="-105.2306486">
  <ele>1595.48</ele>
  <time>2026-08-27T18:29:08Z</time>
  <course>14.3</course>
  <speed>0.01</speed>
  <fix>3d</fix>
</trkpt>
<trkpt lat="40.0728066" lon="-105.2306484">
  <ele>1595.38</ele>
  <time>2026-08-27T18:29:08Z</time>
  <course>97.94</course>
  <speed>0.02</speed>
  <fix>3d</fix>
</trkpt>
<trkpt lat="40.0728067" lon="-105.2306485">
  <ele>1595.48</ele>
  <time>2026-08-27T18:29:09Z</time>
  <course>14.33</course>
  <speed>0.01</speed>
  <fix>3d</fix>
</trkpt>
<trkpt lat="40.0728066" lon="-105.2306483">
  <ele>1595.38</ele>
  <time>2026-08-27T18:29:09Z</time>
  <course>102.45</course>
  <speed>0.03</speed>
  <fix>3d</fix>
</trkpt>
<trkpt lat="40.0728067" lon="-105.2306484">
  <ele>1595.47</ele>
  <time>2026-08-27T18:29:09Z</time>
  <course>14.21</course>
  <speed>0.0</speed>
  <fix>3d</fix>
</trkpt>
<trkpt lat="40.0728066" lon="-105.2306483">
  <ele>1595.38</ele>
  <time>2026-08-27T18:29:09Z</time>
  <course>107.93</course>
  <speed>0.02</speed>
  <fix>3d</fix>
</trkpt>
<trkpt lat="40.0728067" lon="-105.2306484">
  <ele>1595.47</ele>
  <time>2026-08-27T18:29:09Z</time>
  <course>14.21</course>
  <speed>0.0</speed>
  <fix>3d</fix>
</trkpt>
<trkpt lat="40.0728066" lon="-105.2306482">
  <ele>1595.37</ele>
  <time>2026-08-27T18:29:09Z</time>
  <course>115.75</course>
  <speed>0.02</speed>
  <fix>3d</fix>
</trkpt>
<trkpt lat="40.0728067" lon="-105.2306483">
  <ele>1595.47</ele>
  <time>2026-08-27T18:29:09Z</time>
  <course>14.3</course>
  <speed>0.01</speed>
  <fix>3d</fix>
</trkpt>
<trkpt lat="40.0728066" lon="-105.2306481">
  <ele>1595.37</ele>
  <time>2026-08-27T18:29:09Z</time>
  <course>114.16</course>
  <speed>0.03</speed>
  <fix>3d</fix>
</trkpt>
<trkpt lat="40.0728067" lon="-105.2306483">
  <ele>1595.47</ele>
  <time>2026-08-27T18:29:09Z</time>
  <course>14.31</course>
  <speed>0.01</speed>
  <fix>3d</fix>
</trkpt>
<trkpt lat="40.0728066" lon="-105.2306481">
  <ele>1595.37</ele>
  <time>2026-08-27T18:29:09Z</time>
  <course>113.03</course>
  <speed>0.03</speed>
  <fix>3d</fix>
</trkpt>
<trkpt lat="40.0728067" lon="-105.2306482">
  <ele>1595.47</ele>
  <time>2026-08-27T18:29:09Z</time>
  <course>14.18</course>
  <speed>0.0</speed>
  <fix>3d</fix>
</trkpt>
<trkpt lat="40.0728066" lon="-105.230648">
  <ele>1595.37</ele>
  <time>2026-08-27T18:29:09Z</time>
  <course>118.84</course>
  <speed>0.02</speed>
  <fix>3d</fix>
</trkpt>
<trkpt lat="40.0728067" lon="-105.2306481">
  <ele>1595.47</ele>
  <time>2026-08-27T18:29:09Z</time>
  <course>14.21</course>
  <speed>0.0</speed>
  <fix>3d</fix>
</trkpt>
<trkpt lat="40.0728066" lon="-105.230648">
  <ele>1595.37</ele>
  <time>2026-08-27T18:29:09Z</time>
  <course>121.88</course>
  <speed>0.02</speed>
  <fix>3d</fix>
</trkpt>
<trkpt lat="40.0728067" lon="-105.2306481">
  <ele>1595.47</ele>
  <time>2026-08-27T18:29:09Z</time>
  <course>14.29</course>
  <speed>0.01</speed>
  <fix>3d</fix>
</trkpt>
<trkpt lat="40.0728066" lon="-105.2306479">
  <ele>1595.37</ele>
  <time>2026-08-27T18:29:09Z</time>
  <course>117.51</course>
  <speed>0.03</speed>
  <fix>3d</fix>
</trkpt>
<trkpt lat="40.0728067" lon="-105.230648">
  <ele>1595.46</ele>
  <time>2026-08-27T18:29:09Z</time>
  <course>14.28</course>
  <speed>0.01</speed>
  <fix>3d</fix>
</trkpt>
<trkpt lat="40.0728066" lon="-105.2306478">
  <ele>1595.37</ele>
  <time>2026-08-27T18:29:09Z</time>
  <course>117.41</course>
  <speed>0.02</speed>
  <fix>3d</fix>
</trkpt>
<trkpt lat="40.0728066" lon="-105.230648">
  <ele>1595.46</ele>
  <time>2026-08-27T18:29:09Z</time>
  <course>14.16</course>
  <speed>0.0</speed>
  <fix>3d</fix>
</trkpt>
<trkpt lat="40.0728065" lon="-105.2306478">
  <ele>1595.37</ele>
  <time>2026-08-27T18:29:09Z</time>
  <course>125.34</course>
  <speed>0.02</speed>
  <fix>3d</fix>
</trkpt>
<trkpt lat="40.0728066" lon="-105.2306479">
  <ele>1595.46</ele>
  <time>2026-08-27T18:29:09Z</time>
  <course>14.23</course>
  <speed>0.0</speed>
  <fix>3d</fix>
</trkpt>
<trkpt lat="40.0728065" lon="-105.2306478">
  <ele>1595.37</ele>
  <time>2026-08-27T18:29:09Z</time>
  <course>125.46</course>
  <speed>0.02</speed>
  <fix>3d</fix>
</trkpt>
<trkpt lat="40.0728066" lon="-105.2306479">
  <ele>1595.46</ele>
  <time>2026-08-27T18:29:09Z</time>
  <course>14.29</course>
  <speed>0.01</speed>
  <fix>3d</fix>
</trkpt>
<trkpt lat="40.0728065" lon="-105.2306477">
  <ele>1595.37</ele>
  <time>2026-08-27T18:29:09Z</time>
  <course>121.13</course>
  <speed>0.03</speed>
  <fix>3d</fix>
</trkpt>
<trkpt lat="40.0728065" lon="-105.2306478">
  <ele>1595.46</ele>
  <time>2026-08-27T18:29:09Z</time>
  <course>14.1</course>
  <speed>0.01414213562373095</speed>
  <fix>3d</fix>
</trkpt>
<trkpt lat="40.0728064" lon="-105.2306476">
  <ele>1595.37</ele>
  <time>2026-08-27T18:29:09Z</time>
  <course>149.85</course>
  <speed>0.03</speed>
  <fix>3d</fix>
</trkpt>
<trkpt lat="40.0728065" lon="-105.2306478">
  <ele>1595.47</ele>
  <time>2026-08-27T18:29:09Z</time>
  <course>14.09</course>
  <speed>0.01</speed>
  <fix>3d</fix>
</trkpt>
<trkpt lat="40.0728063" lon="-105.2306476">
  <ele>1595.37</ele>
  <time>2026-08-27T18:29:09Z</time>
  <course>163.96</course>
  <speed>0.04</speed>
  <fix>3d</fix>
</trkpt>
<trkpt lat="40.0728064" lon="-105.2306478">
  <ele>1595.47</ele>
  <time>2026-08-27T18:29:09Z</time>
  <course>14.07</course>
  <speed>0.01</speed>
  <fix>3d</fix>
</trkpt>
<trkpt lat="40.0728062" lon="-105.2306476">
  <ele>1595.37</ele>
  <time>2026-08-27T18:29:09Z</time>
  <course>151.59</course>
  <speed>0.04</speed>
  <fix>3d</fix>
</trkpt>
<trkpt lat="40.0728064" lon="-105.2306477">
  <ele>1595.47</ele>
  <time>2026-08-27T18:29:09Z</time>
  <course>14.07</course>
  <speed>0.01</speed>
  <fix>3d</fix>
</trkpt>
<trkpt lat="40.0728062" lon="-105.2306475">
  <ele>1595.37</ele>
  <time>2026-08-27T18:29:09Z</time>
  <course>142.45</course>
  <speed>0.03</speed>
  <fix>3d</fix>
</trkpt>
<trkpt lat="40.0728063" lon="-105.2306476">
  <ele>1595.47</ele>
  <time>2026-08-27T18:29:09Z</time>
  <course>14.07</course>
  <speed>0.01</speed>
  <fix>3d</fix>
</trkpt>
<trkpt lat="40.0728061" lon="-105.2306474">
  <ele>1595.37</ele>
  <time>2026-08-27T18:29:09Z</time>
  <course>131.18</course>
  <speed>0.03</speed>
  <fix>3d</fix>
</trkpt>
<trkpt lat="40.0728063" lon="-105.2306476">
  <ele>1595.47</ele>
  <time>2026-08-27T18:29:09Z</time>
  <course>14.07</course>
  <speed>0.01</speed>
  <fix>3d</fix>
</trkpt>
<trkpt lat="40.0728061" lon="-105.2306474">
  <ele>1595.37</ele>
  <time>2026-08-27T18:29:09Z</time>
  <course>120.91</course>
  <speed>0.03</speed>
  <fix>3d</fix>
</trkpt>
<trkpt lat="40.0728062" lon="-105.2306475">
  <ele>1595.47</ele>
  <time>2026-08-27T18:29:09Z</time>
  <course>14.08</course>
  <speed>0.01414213562373095</speed>
  <fix>3d</fix>
</trkpt>
<trkpt lat="40.0728061" lon="-105.2306473">
  <ele>1595.37</ele>
  <time>2026-08-27T18:29:09Z</time>
  <course>111.3</course>
  <speed>0.03</speed>
  <fix>3d</fix>
</trkpt>
<trkpt lat="40.0728062" lon="-105.2306474">
  <ele>1595.47</ele>
  <time>2026-08-27T18:29:09Z</time>
  <course>14.07</course>
  <speed>0.01414213562373095</speed>
  <fix>3d</fix>
</trkpt>
<trkpt lat="40.0728061" lon="-105.2306473">
  <ele>1595.37</ele>
  <time>2026-08-27T18:29:09Z</time>
  <course>102.59</course>
  <speed>0.02</speed>
  <fix>3d</fix>
</trkpt>
<trkpt lat="40.0728062" lon="-105.2306474">
  <ele>1595.47</ele>
  <time>2026-08-27T18:29:09Z</time>
  <course>14.08</course>
  <speed>0.01414213562373095</speed>
  <fix>3d</fix>
</trkpt>
<trkpt lat="40.0728061" lon="-105.2306472">
  <ele>1595.37</ele>
  <time>2026-08-27T18:29:09Z</time>
  <course>95.34</course>
  <speed>0.02</speed>
  <fix>3d</fix>
</trkpt>
<trkpt lat="40.0728062" lon="-105.2306473">
  <ele>1595.47</ele>
  <time>2026-08-27T18:29:09Z</time>
  <course>14.09</course>
  <speed>0.022360679774997897</speed>
  <fix>3d</fix>
</trkpt>
<trkpt lat="40.0728061" lon="-105.2306471">
  <ele>1595.37</ele>
  <time>2026-08-27T18:29:09Z</time>
  <course>89.3</course>
  <speed>0.02</speed>
  <fix>3d</fix>
</trkpt>
<trkpt lat="40.0728062" lon="-105.2306472">
  <ele>1595.47</ele>
  <time>2026-08-27T18:29:09Z</time>
  <course>14.09</course>
  <speed>0.022360679774997897</speed>
  <fix>3d</fix>
</trkpt>
<trkpt lat="40.0728061" lon="-105.2306471">
  <ele>1595.37</ele>
  <time>2026-08-27T18:29:09Z</time>
  <course>84.62</course>
  <speed>0.02</speed>
  <fix>3d</fix>
</trkpt>
<trkpt lat="40.0728062" lon="-105.2306472">
  <ele>1595.47</ele>
  <time>2026-08-27T18:29:09Z</time>
  <course>14.09</course>
  <speed>0.022360679774997897</speed>
  <fix>3d</fix>
</trkpt>
<trkpt lat="40.0728061" lon="-105.230647">
  <ele>1595.37</ele>
  <time>2026-08-27T18:29:09Z</time>
  <course>80.77</course>
  <speed>0.02</speed>
  <fix>3d</fix>
</trkpt>
<trkpt lat="40.0728062" lon="-105.2306471">
  <ele>1595.47</ele>
  <time>2026-08-27T18:29:09Z</time>
  <course>14.09</course>
  <speed>0.022360679774997897</speed>
  <fix>3d</fix>
</trkpt>
<trkpt lat="40.0728061" lon="-105.2306469">
  <ele>1595.37</ele>
  <time>2026-08-27T18:29:09Z</time>
  <course>77.86</course>
  <speed>0.02</speed>
  <fix>3d</fix>
</trkpt>
<trkpt lat="40.0728062" lon="-105.230647">
  <ele>1595.47</ele>
  <time>2026-08-27T18:29:09Z</time>
  <course>14.1</course>
  <speed>0.022360679774997897</speed>
  <fix>3d</fix>
</trkpt>
<trkpt lat="40.0728061" lon="-105.2306469">
  <ele>1595.37</ele>
  <time>2026-08-27T18:29:09Z</time>
  <course>76.68</course>
  <speed>0.02</speed>
  <fix>3d</fix>
</trkpt>
<trkpt lat="40.0728062" lon="-105.230647">
  <ele>1595.48</ele>
  <time>2026-08-27T18:29:09Z</time>
  <course>14.1</course>
  <speed>0.022360679774997897</speed>
  <fix>3d</fix>
</trkpt>
<trkpt lat="40.0728061" lon="-105.2306468">
  <ele>1595.37</ele>
  <time>2026-08-27T18:29:09Z</time>
  <course>76.47</course>
  <speed>0.02</speed>
  <fix>3d</fix>
</trkpt>
<trkpt lat="40.0728062" lon="-105.2306469">
  <ele>1595.48</ele>
  <time>2026-08-27T18:29:09Z</time>
  <course>14.11</course>
  <speed>0.022360679774997897</speed>
  <fix>3d</fix>
</trkpt>
<trkpt lat="40.0728061" lon="-105.2306467">
  <ele>1595.37</ele>
  <time>2026-08-27T18:29:09Z</time>
  <course>76.55</course>
  <speed>0.03</speed>
  <fix>3d</fix>
</trkpt>
<trkpt lat="40.0728063" lon="-105.2306468">
  <ele>1595.48</ele>
  <time>2026-08-27T18:29:09Z</time>
  <course>14.09</course>
  <speed>0.053851648071345036</speed>
  <fix>3d</fix>
</trkpt>
<trkpt lat="40.0728061" lon="-105.2306467">
  <ele>1595.37</ele>
  <time>2026-08-27T18:29:09Z</time>
  <course>64.67</course>
  <speed>0.03</speed>
  <fix>3d</fix>
</trkpt>
<trkpt lat="40.0728063" lon="-105.2306467">
  <ele>1595.48</ele>
  <time>2026-08-27T18:29:09Z</time>
  <course>14.21</course>
  <speed>0.044721359549995794</speed>
  <fix>3d</fix>
</trkpt>
<trkpt lat="40.0728061" lon="-105.2306466">
  <ele>1595.37</ele>
  <time>2026-08-27T18:29:09Z</time>
  <course>58.12</course>
  <speed>0.04</speed>
  <fix>3d</fix>
</trkpt>
<trkpt lat="40.0728064" lon="-105.2306466">
  <ele>1595.49</ele>
  <time>2026-08-27T18:29:09Z</time>
  <course>14.34</course>
  <speed>0.044721359549995794</speed>
  <fix>3d</fix>
</trkpt>
<trkpt lat="40.0728061" lon="-105.2306465">
  <ele>1595.37</ele>
  <time>2026-08-27T18:29:09Z</time>
  <course>54.81</course>
  <speed>0.05</speed>
  <fix>3d</fix>
</trkpt>
<trkpt lat="40.0728064" lon="-105.2306466">
  <ele>1595.48</ele>
  <time>2026-08-27T18:29:09Z</time>
  <course>14.24</course>
  <speed>0.03</speed>
  <fix>3d</fix>
</trkpt>
<trkpt lat="40.0728061" lon="-105.2306464">
  <ele>1595.36</ele>
  <time>2026-08-27T18:29:09Z</time>
  <course>46.85</course>
  <speed>0.03</speed>
  <fix>3d</fix>
</trkpt>
<trkpt lat="40.0728064" lon="-105.2306465">
  <ele>1595.48</ele>
  <time>2026-08-27T18:29:09Z</time>
  <course>14.29</course>
  <speed>0.02</speed>
  <fix>3d</fix>
</trkpt>
<trkpt lat="40.0728062" lon="-105.2306463">
  <ele>1595.36</ele>
  <time>2026-08-27T18:29:09Z</time>
  <course>60.79</course>
  <speed>0.02</speed>
  <fix>3d</fix>
</trkpt>
<trkpt lat="40.0728064" lon="-105.2306464">
  <ele>1595.47</ele>
  <time>2026-08-27T18:29:09Z</time>
  <course>14.35</course>
  <speed>0.01414213562373095</speed>
  <fix>3d</fix>
</trkpt>
<trkpt lat="40.0728062" lon="-105.2306462">
  <ele>1595.36</ele>
  <time>2026-08-27T18:29:09Z</time>
  <course>82.07</course>
  <speed>0.03</speed>
  <fix>3d</fix>
</trkpt>
<trkpt lat="40.0728064" lon="-105.2306464">
  <ele>1595.46</ele>
  <time>2026-08-27T18:29:09Z</time>
  <course>14.28</course>
  <speed>0.01414213562373095</speed>
  <fix>3d</fix>
</trkpt>
<trkpt lat="40.0728062" lon="-105.2306462">
  <ele>1595.35</ele>
  <time>2026-08-27T18:29:09Z</time>
  <course>88.73</course>
  <speed>0.02</speed>
  <fix>3d</fix>
</trkpt>
<trkpt lat="40.0728063" lon="-105.2306463">
  <ele>1595.45</ele>
  <time>2026-08-27T18:29:09Z</time>
  <course>14.17</course>
  <speed>0.01</speed>
  <fix>3d</fix>
</trkpt>
<trkpt lat="40.0728062" lon="-105.2306461">
  <ele>1595.35</ele>
  <time>2026-08-27T18:29:09Z</time>
  <course>103.31</course>
  <speed>0.02</speed>
  <fix>3d</fix>
</trkpt>
<trkpt lat="40.0728063" lon="-105.2306462">
  <ele>1595.45</ele>
  <time>2026-08-27T18:29:09Z</time>
  <course>14.25</course>
  <speed>0.01</speed>
  <fix>3d</fix>
</trkpt>
<trkpt lat="40.0728062" lon="-105.2306461">
  <ele>1595.35</ele>
  <time>2026-08-27T18:29:09Z</time>
  <course>111.22</course>
  <speed>0.03</speed>
  <fix>3d</fix>
</trkpt>
<trkpt lat="40.0728063" lon="-105.2306462">
  <ele>1595.46</ele>
  <time>2026-08-27T18:29:09Z</time>
  <course>14.29</course>
  <speed>0.01</speed>
  <fix>3d</fix>
</trkpt>
<trkpt lat="40.0728062" lon="-105.230646">
  <ele>1595.35</ele>
  <time>2026-08-27T18:29:09Z</time>
  <course>109.82</course>
  <speed>0.03</speed>
  <fix>3d</fix>
</trkpt>
<trkpt lat="40.0728063" lon="-105.2306461">
  <ele>1595.47</ele>
  <time>2026-08-27T18:29:09Z</time>
  <course>14.17</course>
  <speed>0.0</speed>
  <fix>3d</fix>
</trkpt>
<trkpt lat="40.0728062" lon="-105.2306459">
  <ele>1595.35</ele>
  <time>2026-08-27T18:29:09Z</time>
  <course>114.86</course>
  <speed>0.02</speed>
  <fix>3d</fix>
</trkpt>
<trkpt lat="40.0728063" lon="-105.230646">
  <ele>1595.47</ele>
  <time>2026-08-27T18:29:09Z</time>
  <course>14.22</course>
  <speed>0.0</speed>
  <fix>3d</fix>
</trkpt>
<trkpt lat="40.0728062" lon="-105.2306459">
  <ele>1595.36</ele>
  <time>2026-08-27T18:29:09Z</time>
  <course>122.46</course>
  <speed>0.02</speed>
  <fix>3d</fix>
</trkpt>
<trkpt lat="40.0728063" lon="-105.230646">
  <ele>1595.47</ele>
  <time>2026-08-27T18:29:09Z</time>
  <course>14.33</course>
  <speed>0.01</speed>
  <fix>3d</fix>
</trkpt>
<trkpt lat="40.0728062" lon="-105.2306458">
  <ele>1595.36</ele>
  <time>2026-08-27T18:29:09Z</time>
  <course>118.05</course>
  <speed>0.03</speed>
  <fix>3d</fix>
</trkpt>
<trkpt lat="40.0728063" lon="-105.2306459">
  <ele>1595.47</ele>
  <time>2026-08-27T18:29:09Z</time>
  <course>14.31</course>
  <speed>0.01</speed>
  <fix>3d</fix>
</trkpt>
<trkpt lat="40.0728062" lon="-105.2306457">
  <ele>1595.36</ele>
  <time>2026-08-27T18:29:09Z</time>
  <course>117.56</course>
  <speed>0.02</speed>
  <fix>3d</fix>
</trkpt>
<trkpt lat="40.0728063" lon="-105.2306459">
  <ele>1595.47</ele>
  <time>2026-08-27T18:29:09Z</time>
  <course>14.2</course>
  <speed>0.0</speed>
  <fix>3d</fix>
</trkpt>
<trkpt lat="40.0728061" lon="-105.2306457">
  <ele>1595.36</ele>
  <time>2026-08-27T18:29:09Z</time>
  <course>127.65</course>
  <speed>0.02</speed>
  <fix>3d</fix>
</trkpt>
<trkpt lat="40.0728062" lon="-105.2306458">
  <ele>1595.47</ele>
  <time>2026-08-27T18:29:09Z</time>
  <course>14.29</course>
  <speed>0.0</speed>
  <fix>3d</fix>
</trkpt>
<trkpt lat="40.0728061" lon="-105.2306457">
  <ele>1595.36</ele>
  <time>2026-08-27T18:29:09Z</time>
  <course>125.71</course>
  <speed>0.03</speed>
  <fix>3d</fix>
</trkpt>
<trkpt lat="40.0728062" lon="-105.2306458">
  <ele>1595.46</ele>
  <time>2026-08-27T18:29:09Z</time>
  <course>14.35</course>
  <speed>0.01</speed>
  <fix>3d</fix>
</trkpt>
<trkpt lat="40.0728061" lon="-105.2306456">
  <ele>1595.36</ele>
  <time>2026-08-27T18:29:09Z</time>
  <course>120.02</course>
  <speed>0.03</speed>
  <fix>3d</fix>
</trkpt>
<trkpt lat="40.0728062" lon="-105.2306457">
  <ele>1595.46</ele>
  <time>2026-08-27T18:29:09Z</time>
  <course>14.21</course>
  <speed>0.0</speed>
  <fix>3d</fix>
</trkpt>
<trkpt lat="40.0728061" lon="-105.2306455">
  <ele>1595.36</ele>
  <time>2026-08-27T18:29:09Z</time>
  <course>125.19</course>
  <speed>0.02</speed>
  <fix>3d</fix>
</trkpt>
<trkpt lat="40.0728062" lon="-105.2306457">
  <ele>1595.45</ele>
  <time>2026-08-27T18:29:09Z</time>
  <course>14.2</course>
  <speed>0.0</speed>
  <fix>3d</fix>
</trkpt>
<trkpt lat="40.0728061" lon="-105.2306455">
  <ele>1595.36</ele>
  <time>2026-08-27T18:29:09Z</time>
  <course>131.95</course>
  <speed>0.02</speed>
  <fix>3d</fix>
</trkpt>
<trkpt lat="40.0728062" lon="-105.2306456">
  <ele>1595.45</ele>
  <time>2026-08-27T18:29:09Z</time>
  <course>14.27</course>
  <speed>0.01</speed>
  <fix>3d</fix>
</trkpt>
<trkpt lat="40.0728061" lon="-105.2306454">
  <ele>1595.36</ele>
  <time>2026-08-27T18:29:09Z</time>
  <course>126.57</course>
  <speed>0.03</speed>
  <fix>3d</fix>
</trkpt>
<trkpt lat="40.0728061" lon="-105.2306456">
  <ele>1595.45</ele>
  <time>2026-08-27T18:29:09Z</time>
  <course>14.08</course>
  <speed>0.02</speed>
  <fix>3d</fix>
</trkpt>
<trkpt lat="40.072806" lon="-105.2306454">
  <ele>1595.36</ele>
  <time>2026-08-27T18:29:09Z</time>
  <course>152.76</course>
  <speed>0.03</speed>
  <fix>3d</fix>
</trkpt>
<trkpt lat="40.072806" lon="-105.2306455">
  <ele>1595.45</ele>
  <time>2026-08-27T18:29:09Z</time>
  <course>14.07</course>
  <speed>0.02</speed>
  <fix>3d</fix>
</trkpt>
<trkpt lat="40.0728059" lon="-105.2306454">
  <ele>1595.36</ele>
  <time>2026-08-27T18:29:09Z</time>
  <course>167.05</course>
  <speed>0.04</speed>
  <fix>3d</fix>
</trkpt>
<trkpt lat="40.072806" lon="-105.2306455">
  <ele>1595.45</ele>
  <time>2026-08-27T18:29:09Z</time>
  <course>14.06</course>
  <speed>0.01</speed>
  <fix>3d</fix>
</trkpt>
<trkpt lat="40.0728058" lon="-105.2306453">
  <ele>1595.37</ele>
  <time>2026-08-27T18:29:09Z</time>
  <course>154.53</course>
  <speed>0.04</speed>
  <fix>3d</fix>
</trkpt>
<trkpt lat="40.0728059" lon="-105.2306454">
  <ele>1595.45</ele>
  <time>2026-08-27T18:29:09Z</time>
  <course>14.04</course>
  <speed>0.0</speed>
  <fix>3d</fix>
</trkpt>
<trkpt lat="40.0728058" lon="-105.2306452">
  <ele>1595.37</ele>
  <time>2026-08-27T18:29:09Z</time>
  <course>145.98</course>
  <speed>0.04</speed>
  <fix>3d</fix>
</trkpt>
<trkpt lat="40.0728059" lon="-105.2306454">
  <ele>1595.45</ele>
  <time>2026-08-27T18:29:09Z</time>
  <course>14.06</course>
  <speed>0.01</speed>
  <fix>3d</fix>
</trkpt>
<trkpt lat="40.0728057" lon="-105.2306452">
  <ele>1595.38</ele>
  <time>2026-08-27T18:29:09Z</time>
  <course>135.95</course>
  <speed>0.03</speed>
  <fix>3d</fix>
</trkpt>
<trkpt lat="40.0728058" lon="-105.2306453">
  <ele>1595.45</ele>
  <time>2026-08-27T18:29:09Z</time>
  <course>14.06</course>
  <speed>0.01</speed>
  <fix>3d</fix>
</trkpt>
<trkpt lat="40.0728056" lon="-105.2306452">
  <ele>1595.38</ele>
  <time>2026-08-27T18:29:09Z</time>
  <course>126.12</course>
  <speed>0.03</speed>
  <fix>3d</fix>
</trkpt>
<trkpt lat="40.0728058" lon="-105.2306453">
  <ele>1595.46</ele>
  <time>2026-08-27T18:29:09Z</time>
  <course>14.08</course>
  <speed>0.01414213562373095</speed>
  <fix>3d</fix>
</trkpt>
<trkpt lat="40.0728056" lon="-105.2306451">
  <ele>1595.38</ele>
  <time>2026-08-27T18:29:09Z</time>
  <course>117.58</course>
  <speed>0.03</speed>
  <fix>3d</fix>
</trkpt>
<trkpt lat="40.0728058" lon="-105.2306452">
  <ele>1595.46</ele>
  <time>2026-08-27T18:29:09Z</time>
  <course>14.06</course>
  <speed>0.01414213562373095</speed>
  <fix>3d</fix>
</trkpt>
<trkpt lat="40.0728056" lon="-105.230645">
  <ele>1595.39</ele>
  <time>2026-08-27T18:29:09Z</time>
  <course>110.53</course>
  <speed>0.02</speed>
  <fix>3d</fix>
</trkpt>
<trkpt lat="40.0728058" lon="-105.2306451">
  <ele>1595.46</ele>
  <time>2026-08-27T18:29:09Z</time>
  <course>14.07</course>
  <speed>0.01414213562373095</speed>
  <fix>3d</fix>
</trkpt>
<trkpt lat="40.0728056" lon="-105.230645">
  <ele>1595.39</ele>
  <time>2026-08-27T18:29:09Z</time>
  <course>104.3</course>
  <speed>0.02</speed>
  <fix>3d</fix>
</trkpt>
<trkpt lat="40.0728058" lon="-105.2306451">
  <ele>1595.47</ele>
  <time>2026-08-27T18:29:09Z</time>
  <course>14.08</course>
  <speed>0.01414213562373095</speed>
  <fix>3d</fix>
</trkpt>
<trkpt lat="40.0728055" lon="-105.2306449">
  <ele>1595.4</ele>
  <time>2026-08-27T18:29:09Z</time>
  <course>99.06</course>
  <speed>0.02</speed>
  <fix>3d</fix>
</trkpt>
<trkpt lat="40.0728058" lon="-105.230645">
  <ele>1595.47</ele>
  <time>2026-08-27T18:29:09Z</time>
  <course>14.08</course>
  <speed>0.01414213562373095</speed>
  <fix>3d</fix>
</trkpt>
<trkpt lat="40.0728055" lon="-105.2306448">
  <ele>1595.4</ele>
  <time>2026-08-27T18:29:09Z</time>
  <course>95.13</course>
  <speed>0.02</speed>
  <fix>3d</fix>
</trkpt>
<trkpt lat="40.0728057" lon="-105.2306449">
  <ele>1595.47</ele>
  <time>2026-08-27T18:29:09Z</time>
  <course>14.09</course>
  <speed>0.022360679774997897</speed>
  <fix>3d</fix>
</trkpt>
<trkpt lat="40.0728055" lon="-105.2306447">
  <ele>1595.4</ele>
  <time>2026-08-27T18:29:09Z</time>
  <course>91.78</course>
  <speed>0.03</speed>
  <fix>3d</fix>
</trkpt>
<trkpt lat="40.0728057" lon="-105.2306448">
  <ele>1595.48</ele>
  <time>2026-08-27T18:29:09Z</time>
  <course>14.09</course>
  <speed>0.022360679774997897</speed>
  <fix>3d</fix>
</trkpt>
<trkpt lat="40.0728055" lon="-105.2306447">
  <ele>1595.4</ele>
  <time>2026-08-27T18:29:09Z</time>
  <course>88.62</course>
  <speed>0.03</speed>
  <fix>3d</fix>
</trkpt>
<trkpt lat="40.0728057" lon="-105.2306448">
  <ele>1595.48</ele>
  <time>2026-08-27T18:29:09Z</time>
  <course>14.09</course>
  <speed>0.022360679774997897</speed>
  <fix>3d</fix>
</trkpt>
<trkpt lat="40.0728055" lon="-105.2306446">
  <ele>1595.4</ele>
  <time>2026-08-27T18:29:09Z</time>
  <course>85.69</course>
  <speed>0.03</speed>
  <fix>3d</fix>
</trkpt>
<trkpt lat="40.0728057" lon="-105.2306447">
  <ele>1595.47</ele>
  <time>2026-08-27T18:29:09Z</time>
  <course>14.1</course>
  <speed>0.022360679774997897</speed>
  <fix>3d</fix>
</trkpt>
<trkpt lat="40.0728055" lon="-105.2306445">
  <ele>1595.4</ele>
  <time>2026-08-27T18:29:09Z</time>
  <course>83.26</course>
  <speed>0.03</speed>
  <fix>3d</fix>
</trkpt>
<trkpt lat="40.0728057" lon="-105.2306446">
  <ele>1595.47</ele>
  <time>2026-08-27T18:29:09Z</time>
  <course>14.1</course>
  <speed>0.022360679774997897</speed>
  <fix>3d</fix>
</trkpt>
<trkpt lat="40.0728055" lon="-105.2306444">
  <ele>1595.4</ele>
  <time>2026-08-27T18:29:09Z</time>
  <course>81.71</course>
  <speed>0.03</speed>
  <fix>3d</fix>
</trkpt>
<trkpt lat="40.0728057" lon="-105.2306445">
  <ele>1595.47</ele>
  <time>2026-08-27T18:29:09Z</time>
  <course>14.06</course>
  <speed>0.044721359549995794</speed>
  <fix>3d</fix>
</trkpt>
<trkpt lat="40.0728055" lon="-105.2306443">
  <ele>1595.4</ele>
  <time>2026-08-27T18:29:09Z</time>
  <course>68.92</course>
  <speed>0.03</speed>
  <fix>3d</fix>
</trkpt>
<trkpt lat="40.0728057" lon="-105.2306444">
  <ele>1595.48</ele>
  <time>2026-08-27T18:29:09Z</time>
  <course>14.19</course>
  <speed>0.044721359549995794</speed>
  <fix>3d</fix>
</trkpt>
<trkpt lat="40.0728055" lon="-105.2306443">
  <ele>1595.4</ele>
  <time>2026-08-27T18:29:09Z</time>
  <course>59.65</course>
  <speed>0.04</speed>
  <fix>3d</fix>
</trkpt>
<trkpt lat="40.0728058" lon="-105.2306443">
  <ele>1595.48</ele>
  <time>2026-08-27T18:29:09Z</time>
  <course>14.31</course>
  <speed>0.044721359549995794</speed>
  <fix>3d</fix>
</trkpt>
<trkpt lat="40.0728056" lon="-105.2306442">
  <ele>1595.4</ele>
  <time>2026-08-27T18:29:09Z</time>
  <course>55.48</course>
  <speed>0.05</speed>
  <fix>3d</fix>
</trkpt>
<trkpt lat="40.0728058" lon="-105.2306443">
  <ele>1595.48</ele>
  <time>2026-08-27T18:29:09Z</time>
  <course>14.23</course>
  <speed>0.0316227766016838</speed>
  <fix>3d</fix>
</trkpt>
<trkpt lat="40.0728056" lon="-105.2306441">
  <ele>1595.4</ele>
  <time>2026-08-27T18:29:09Z</time>
  <course>46.63</course>
  <speed>0.03</speed>
  <fix>3d</fix>
</trkpt>
<trkpt lat="40.0728058" lon="-105.2306442">
  <ele>1595.48</ele>
  <time>2026-08-27T18:29:09Z</time>
  <course>14.23</course>
  <speed>0.02</speed>
  <fix>3d</fix>
</trkpt>
<trkpt lat="40.0728056" lon="-105.230644">
  <ele>1595.4</ele>
  <time>2026-08-27T18:29:09Z</time>
  <course>54.64</course>
  <speed>0.02</speed>
  <fix>3d</fix>
</trkpt>
<trkpt lat="40.0728058" lon="-105.2306441">
  <ele>1595.48</ele>
  <time>2026-08-27T18:29:09Z</time>
  <course>14.31</course>
  <speed>0.01</speed>
  <fix>3d</fix>
</trkpt>
<trkpt lat="40.0728057" lon="-105.230644">
  <ele>1595.4</ele>
  <time>2026-08-27T18:29:09Z</time>
  <course>80.3</course>
  <speed>0.02</speed>
  <fix>3d</fix>
</trkpt>
<trkpt lat="40.0728058" lon="-105.2306441">
  <ele>1595.47</ele>
  <time>2026-08-27T18:29:09Z</time>
  <course>14.32</course>
  <speed>0.01414213562373095</speed>
  <fix>3d</fix>
</trkpt>
<trkpt lat="40.0728058" lon="-105.2306439">
  <ele>1595.4</ele>
  <time>2026-08-27T18:29:09Z</time>
  <course>91.65</course>
  <speed>0.02</speed>
  <fix>3d</fix>
</trkpt>
<trkpt lat="40.0728058" lon="-105.230644">
  <ele>1595.47</ele>
  <time>2026-08-27T18:29:09Z</time>
  <course>14.2</course>
  <speed>0.01</speed>
  <fix>3d</fix>
</trkpt>
<trkpt lat="40.0728058" lon="-105.2306438">
  <ele>1595.4</ele>
  <time>2026-08-27T18:29:09Z</time>
  <course>101.46</course>
  <speed>0.02</speed>
  <fix>3d</fix>
</trkpt>
<trkpt lat="40.0728058" lon="-105.230644">
  <ele>1595.47</ele>
  <time>2026-08-27T18:29:09Z</time>
  <course>14.21</course>
  <speed>0.0</speed>
  <fix>3d</fix>
</trkpt>
<trkpt lat="40.0728058" lon="-105.2306438">
  <ele>1595.4</ele>
  <time>2026-08-27T18:29:09Z</time>
  <course>112.7</course>
  <speed>0.02</speed>
  <fix>3d</fix>
</trkpt>
<trkpt lat="40.0728058" lon="-105.2306439">
  <ele>1595.47</ele>
  <time>2026-08-27T18:29:09Z</time>
  <course>14.29</course>
  <speed>0.01</speed>
  <fix>3d</fix>
</trkpt>
<trkpt lat="40.0728058" lon="-105.2306438">
  <ele>1595.4</ele>
  <time>2026-08-27T18:29:09Z</time>
  <course>113.45</course>
  <speed>0.03</speed>
  <fix>3d</fix>
</trkpt>
<trkpt lat="40.0728058" lon="-105.2306439">
  <ele>1595.47</ele>
  <time>2026-08-27T18:29:09Z</time>
  <course>14.3</course>
  <speed>0.01</speed>
  <fix>3d</fix>
</trkpt>
<trkpt lat="40.0728058" lon="-105.2306437">
  <ele>1595.4</ele>
  <time>2026-08-27T18:29:09Z</time>
  <course>114.33</course>
  <speed>0.03</speed>
  <fix>3d</fix>
</trkpt>
<trkpt lat="40.0728058" lon="-105.2306438">
  <ele>1595.47</ele>
  <time>2026-08-27T18:29:09Z</time>
  <course>14.18</course>
  <speed>0.0</speed>
  <fix>3d</fix>
</trkpt>
<trkpt lat="40.0728058" lon="-105.2306436">
  <ele>1595.4</ele>
  <time>2026-08-27T18:29:09Z</time>
  <course>121.7</course>
  <speed>0.02</speed>
  <fix>3d</fix>
</trkpt>
<trkpt lat="40.0728058" lon="-105.2306437">
  <ele>1595.46</ele>
  <time>2026-08-27T18:29:09Z</time>
  <course>14.22</course>
  <speed>0.0</speed>
  <fix>3d</fix>
</trkpt>
<trkpt lat="40.0728057" lon="-105.2306435">
  <ele>1595.39</ele>
  <time>2026-08-27T18:29:09Z</time>
  <course>124.82</course>
  <speed>0.02</speed>
  <fix>3d</fix>
</trkpt>
<trkpt lat="40.0728058" lon="-105.2306437">
  <ele>1595.47</ele>
  <time>2026-08-27T18:29:09Z</time>
  <course>14.29</course>
  <speed>0.01</speed>
  <fix>3d</fix>
</trkpt>
<trkpt lat="40.0728056" lon="-105.2306435">
  <ele>1595.39</ele>
  <time>2026-08-27T18:29:09Z</time>
  <course>121.01</course>
  <speed>0.03</speed>
  <fix>3d</fix>
</trkpt>
<trkpt lat="40.0728058" lon="-105.2306436">
  <ele>1595.47</ele>
  <time>2026-08-27T18:29:09Z</time>
  <course>14.28</course>
  <speed>0.01</speed>
  <fix>3d</fix>
</trkpt>
<trkpt lat="40.0728056" lon="-105.2306435">
  <ele>1595.39</ele>
  <time>2026-08-27T18:29:09Z</time>
  <course>122.05</course>
  <speed>0.03</speed>
  <fix>3d</fix>
</trkpt>
<trkpt lat="40.0728058" lon="-105.2306436">
  <ele>1595.47</ele>
  <time>2026-08-27T18:29:09Z</time>
  <course>14.17</course>
  <speed>0.0</speed>
  <fix>3d</fix>
</trkpt>
<trkpt lat="40.0728056" lon="-105.2306434">
  <ele>1595.4</ele>
  <time>2026-08-27T18:29:09Z</time>
  <course>130.82</course>
  <speed>0.02</speed>
  <fix>3d</fix>
</trkpt>
<trkpt lat="40.0728057" lon="-105.2306435">
  <ele>1595.47</ele>
  <time>2026-08-27T18:29:09Z</time>
  <course>14.24</course>
  <speed>0.0</speed>
  <fix>3d</fix>
</trkpt>
<trkpt lat="40.0728055" lon="-105.2306433">
  <ele>1595.4</ele>
  <time>2026-08-27T18:29:09Z</time>
  <course>131.04</course>
  <speed>0.02</speed>
  <fix>3d</fix>
</trkpt>
<trkpt lat="40.0728057" lon="-105.2306435">
  <ele>1595.47</ele>
  <time>2026-08-27T18:29:09Z</time>
  <course>14.3</course>
  <speed>0.01</speed>
  <fix>3d</fix>
</trkpt>
<trkpt lat="40.0728055" lon="-105.2306433">
  <ele>1595.4</ele>
  <time>2026-08-27T18:29:09Z</time>
  <course>125.48</course>
  <speed>0.03</speed>
  <fix>3d</fix>
</trkpt>
<trkpt lat="40.0728057" lon="-105.2306434">
  <ele>1595.47</ele>
  <time>2026-08-27T18:29:09Z</time>
  <course>14.29</course>
  <speed>0.01</speed>
  <fix>3d</fix>
</trkpt>
<trkpt lat="40.0728055" lon="-105.2306432">
  <ele>1595.4</ele>
  <time>2026-08-27T18:29:09Z</time>
  <course>126.98</course>
  <speed>0.03</speed>
  <fix>3d</fix>
</trkpt>
<trkpt lat="40.0728056" lon="-105.2306434">
  <ele>1595.47</ele>
  <time>2026-08-27T18:29:09Z</time>
  <course>14.15</course>
  <speed>0.022360679774997897</speed>
  <fix>3d</fix>
</trkpt>
<trkpt lat="40.0728055" lon="-105.2306431">
  <ele>1595.4</ele>
  <time>2026-08-27T18:29:09Z</time>
  <course>153.0</course>
  <speed>0.03</speed>
  <fix>3d</fix>
</trkpt>
<trkpt lat="40.0728055" lon="-105.2306433">
  <ele>1595.47</ele>
  <time>2026-08-27T18:29:09Z</time>
  <course>14.13</course>
  <speed>0.02</speed>
  <fix>3d</fix>
</trkpt>
<trkpt lat="40.0728054" lon="-105.2306431">
  <ele>1595.4</ele>
  <time>2026-08-27T18:29:09Z</time>
  <course>162.22</course>
  <speed>0.04</speed>
  <fix>3d</fix>
</trkpt>
<trkpt lat="40.0728054" lon="-105.2306433">
  <ele>1595.48</ele>
  <time>2026-08-27T18:29:09Z</time>
  <course>14.08</course>
  <speed>0.01</speed>
  <fix>3d</fix>
</trkpt>
<trkpt lat="40.0728053" lon="-105.2306431">
  <ele>1595.39</ele>
  <time>2026-08-27T18:29:09Z</time>
  <course>157.58</course>
  <speed>0.04</speed>
  <fix>3d</fix>
</trkpt>
<trkpt lat="40.0728054" lon="-105.2306432">
  <ele>1595.47</ele>
  <time>2026-08-27T18:29:09Z</time>
  <course>14.08</course>
  <speed>0.01</speed>
  <fix>3d</fix>
</trkpt>
<trkpt lat="40.0728053" lon="-105.2306431">
  <ele>1595.39</ele>
  <time>2026-08-27T18:29:09Z</time>
  <course>149.26</course>
  <speed>0.04</speed>
  <fix>3d</fix>
</trkpt>
<trkpt lat="40.0728053" lon="-105.2306432">
  <ele>1595.47</ele>
  <time>2026-08-27T18:29:09Z</time>
  <course>14.09</course>
  <speed>0.01</speed>
  <fix>3d</fix>
</trkpt>
<trkpt lat="40.0728052" lon="-105.230643">
  <ele>1595.39</ele>
  <time>2026-08-27T18:29:09Z</time>
  <course>138.9</course>
  <speed>0.04</speed>
  <fix>3d</fix>
</trkpt>
<trkpt lat="40.0728053" lon="-105.2306431">
  <ele>1595.46</ele>
  <time>2026-08-27T18:29:09Z</time>
  <course>14.08</course>
  <speed>0.01</speed>
  <fix>3d</fix>
</trkpt>
<trkpt lat="40.0728052" lon="-105.2306429">
  <ele>1595.39</ele>
  <time>2026-08-27T18:29:09Z</time>
  <course>130.34</course>
  <speed>0.03</speed>
  <fix>3d</fix>
</trkpt>
<trkpt lat="40.0728053" lon="-105.230643">
  <ele>1595.47</ele>
  <time>2026-08-27T18:29:09Z</time>
  <course>14.06</course>
  <speed>0.01</speed>
  <fix>3d</fix>
</trkpt>
<trkpt lat="40.0728051" lon="-105.2306428">
  <ele>1595.39</ele>
  <time>2026-08-27T18:29:09Z</time>
  <course>121.7</course>
  <speed>0.03</speed>
  <fix>3d</fix>
</trkpt>
<trkpt lat="40.0728053" lon="-105.230643">
  <ele>1595.47</ele>
  <time>2026-08-27T18:29:09Z</time>
  <course>14.07</course>
  <speed>0.01414213562373095</speed>
  <fix>3d</fix>
</trkpt>
<trkpt lat="40.072805" lon="-105.2306428">
  <ele>1595.39</ele>
  <time>2026-08-27T18:29:09Z</time>
  <course>114.01</course>
  <speed>0.03</speed>
  <fix>3d</fix>
</trkpt>
<trkpt lat="40.0728052" lon="-105.2306429">
  <ele>1595.47</ele>
  <time>2026-08-27T18:29:09Z</time>
  <course>14.08</course>
  <speed>0.01414213562373095</speed>
  <fix>3d</fix>
</trkpt>
<trkpt lat="40.072805" lon="-105.2306427">
  <ele>1595.39</ele>
  <time>2026-08-27T18:29:09Z</time>
  <course>107.34</course>
  <speed>0.03</speed>
  <fix>3d</fix>
</trkpt>
<trkpt lat="40.0728052" lon="-105.2306428">
  <ele>1595.46</ele>
  <time>2026-08-27T18:29:09Z</time>
  <course>14.08</course>
  <speed>0.01414213562373095</speed>
  <fix>3d</fix>
</trkpt>
<trkpt lat="40.072805" lon="-105.2306426">
  <ele>1595.39</ele>
  <time>2026-08-27T18:29:09Z</time>
  <course>101.18</course>
  <speed>0.03</speed>
  <fix>3d</fix>
</trkpt>
<trkpt lat="40.0728052" lon="-105.2306427">
  <ele>1595.46</ele>
  <time>2026-08-27T18:29:09Z</time>
  <course>14.08</course>
  <speed>0.01414213562373095</speed>
  <fix>3d</fix>
</trkpt>
<trkpt lat="40.072805" lon="-105.2306426">
  <ele>1595.39</ele>
  <time>2026-08-27T18:29:09Z</time>
  <course>95.79</course>
  <speed>0.03</speed>
  <fix>3d</fix>
</trkpt>
<trkpt lat="40.0728052" lon="-105.2306427">
  <ele>1595.46</ele>
  <time>2026-08-27T18:29:09Z</time>
  <course>14.07</course>
  <speed>0.01414213562373095</speed>
  <fix>3d</fix>
</trkpt>
<trkpt lat="40.072805" lon="-105.2306425">
  <ele>1595.39</ele>
  <time>2026-08-27T18:29:09Z</time>
  <course>92.02</course>
  <speed>0.03</speed>
  <fix>3d</fix>
</trkpt>
<trkpt lat="40.0728052" lon="-105.2306426">
  <ele>1595.47</ele>
  <time>2026-08-27T18:29:09Z</time>
  <course>14.09</course>
  <speed>0.01414213562373095</speed>
  <fix>3d</fix>
</trkpt>
<trkpt lat="40.072805" lon="-105.2306424">
  <ele>1595.4</ele>
  <time>2026-08-27T18:29:09Z</time>
  <course>90.21</course>
  <speed>0.03</speed>
  <fix>3d</fix>
</trkpt>
<trkpt lat="40.0728052" lon="-105.2306425">
  <ele>1595.47</ele>
  <time>2026-08-27T18:29:09Z</time>
  <course>14.09</course>
  <speed>0.01414213562373095</speed>
  <fix>3d</fix>
</trkpt>
<trkpt lat="40.072805" lon="-105.2306423">
  <ele>1595.4</ele>
  <time>2026-08-27T18:29:09Z</time>
  <course>89.74</course>
  <speed>0.03</speed>
  <fix>3d</fix>
</trkpt>
<trkpt lat="40.0728052" lon="-105.2306424">
  <ele>1595.47</ele>
  <time>2026-08-27T18:29:09Z</time>
  <course>14.1</course>
  <speed>0.01414213562373095</speed>
  <fix>3d</fix>
</trkpt>
<trkpt lat="40.072805" lon="-105.2306423">
  <ele>1595.4</ele>
  <time>2026-08-27T18:29:09Z</time>
  <course>90.11</course>
  <speed>0.03</speed>
  <fix>3d</fix>
</trkpt>
<trkpt lat="40.0728052" lon="-105.2306423">
  <ele>1595.46</ele>
  <time>2026-08-27T18:29:09Z</time>
  <course>14.1</course>
  <speed>0.01414213562373095</speed>
  <fix>3d</fix>
</trkpt>
<trkpt lat="40.072805" lon="-105.2306422">
  <ele>1595.4</ele>
  <time>2026-08-27T18:29:09Z</time>
  <course>90.85</course>
  <speed>0.03</speed>
  <fix>3d</fix>
</trkpt>
<trkpt lat="40.0728052" lon="-105.2306423">
  <ele>1595.46</ele>
  <time>2026-08-27T18:29:09Z</time>
  <course>14.06</course>
  <speed>0.0316227766016838</speed>
  <fix>3d</fix>
</trkpt>
<trkpt lat="40.072805" lon="-105.2306421">
  <ele>1595.4</ele>
  <time>2026-08-27T18:29:09Z</time>
  <course>87.9</course>
  <speed>0.03</speed>
  <fix>3d</fix>
</trkpt>
<trkpt lat="40.0728052" lon="-105.2306422">
  <ele>1595.46</ele>
  <time>2026-08-27T18:29:09Z</time>
  <course>14.17</course>
  <speed>0.05</speed>
  <fix>3d</fix>
</trkpt>
<trkpt lat="40.072805" lon="-105.230642">
  <ele>1595.4</ele>
  <time>2026-08-27T18:29:09Z</time>
  <course>69.98</course>
  <speed>0.04</speed>
  <fix>3d</fix>
</trkpt>
<trkpt lat="40.0728052" lon="-105.2306421">
  <ele>1595.46</ele>
  <time>2026-08-27T18:29:09Z</time>
  <course>14.15</course>
  <speed>0.0412310562561766</speed>
  <fix>3d</fix>
</trkpt>
<trkpt lat="40.072805" lon="-105.2306419">
  <ele>1595.41</ele>
  <time>2026-08-27T18:29:09Z</time>
  <course>54.32</course>
  <speed>0.04</speed>
  <fix>3d</fix>
</trkpt>
<trkpt lat="40.0728052" lon="-105.230642">
  <ele>1595.46</ele>
  <time>2026-08-27T18:29:09Z</time>
  <course>14.2</course>
  <speed>0.03</speed>
  <fix>3d</fix>
</trkpt>
<trkpt lat="40.072805" lon="-105.2306418">
  <ele>1595.41</ele>
  <time>2026-08-27T18:29:09Z</time>
  <course>52.3</course>
  <speed>0.03</speed>
  <fix>3d</fix>
</trkpt>
<trkpt lat="40.0728052" lon="-105.2306419">
  <ele>1595.46</ele>
  <time>2026-08-27T18:29:09Z</time>
  <course>14.29</course>
  <speed>0.022360679774997897</speed>
  <fix>3d</fix>
</trkpt>
<trkpt lat="40.072805" lon="-105.2306418">
  <ele>1595.41</ele>
  <time>2026-08-27T18:29:09Z</time>
  <course>66.71</course>
  <speed>0.03</speed>
  <fix>3d</fix>
</trkpt>
<trkpt lat="40.0728052" lon="-105.2306419">
  <ele>1595.46</ele>
  <time>2026-08-27T18:29:09Z</time>
  <course>14.29</course>
  <speed>0.01414213562373095</speed>
  <fix>3d</fix>
</trkpt>
<trkpt lat="40.072805" lon="-105.2306417">
  <ele>1595.41</ele>
  <time>2026-08-27T18:29:09Z</time>
  <course>72.47</course>
  <speed>0.02</speed>
  <fix>3d</fix>
</trkpt>
<trkpt lat="40.0728052" lon="-105.2306418">
  <ele>1595.46</ele>
  <time>2026-08-27T18:29:09Z</time>
  <course>14.16</course>
  <speed>0.01</speed>
  <fix>3d</fix>
</trkpt>
<trkpt lat="40.072805" lon="-105.2306416">
  <ele>1595.41</ele>
  <time>2026-08-27T18:29:09Z</time>
  <course>84.97</course>
  <speed>0.01</speed>
  <fix>3d</fix>
</trkpt>
<trkpt lat="40.0728052" lon="-105.2306418">
  <ele>1595.47</ele>
  <time>2026-08-27T18:29:09Z</time>
  <course>14.25</course>
  <speed>0.0</speed>
  <fix>3d</fix>
</trkpt>
<trkpt lat="40.072805" lon="-105.2306416">
  <ele>1595.42</ele>
  <time>2026-08-27T18:29:09Z</time>
  <course>106.94</course>
  <speed>0.02</speed>
  <fix>3d</fix>
</trkpt>
<trkpt lat="40.0728052" lon="-105.2306417">
  <ele>1595.48</ele>
  <time>2026-08-27T18:29:09Z</time>
  <course>14.34</course>
  <speed>0.01</speed>
  <fix>3d</fix>
</trkpt>
<trkpt lat="40.072805" lon="-105.2306416">
  <ele>1595.42</ele>
  <time>2026-08-27T18:29:09Z</time>
  <course>109.08</course>
  <speed>0.03</speed>
  <fix>3d</fix>
</trkpt>
<trkpt lat="40.0728052" lon="-105.2306417">
  <ele>1595.48</ele>
  <time>2026-08-27T18:29:09Z</time>
  <course>14.27</course>
  <speed>0.0</speed>
  <fix>3d</fix>
</trkpt>
<trkpt lat="40.072805" lon="-105.2306415">
  <ele>1595.42</ele>
  <time>2026-08-27T18:29:09Z</time>
  <course>112.54</course>
  <speed>0.02</speed>
  <fix>3d</fix>
</trkpt>
<trkpt lat="40.0728052" lon="-105.2306416">
  <ele>1595.48</ele>
  <time>2026-08-27T18:29:09Z</time>
  <course>14.23</course>
  <speed>0.0</speed>
  <fix>3d</fix>
</trkpt>
<trkpt lat="40.072805" lon="-105.2306414">
  <ele>1595.43</ele>
  <time>2026-08-27T18:29:09Z</time>
  <course>121.56</course>
  <speed>0.02</speed>
  <fix>3d</fix>
</trkpt>
<trkpt lat="40.0728052" lon="-105.2306416">
  <ele>1595.48</ele>
  <time>2026-08-27T18:29:09Z</time>
  <course>14.32</course>
  <speed>0.0</speed>
  <fix>3d</fix>
</trkpt>
<trkpt lat="40.072805" lon="-105.2306414">
  <ele>1595.42</ele>
  <time>2026-08-27T18:29:09Z</time>
  <course>117.82</course>
  <speed>0.03</speed>
  <fix>3d</fix>
</trkpt>
<trkpt lat="40.0728051" lon="-105.2306415">
  <ele>1595.48</ele>
  <time>2026-08-27T18:29:09Z</time>
  <course>14.36</course>
  <speed>0.01</speed>
  <fix>3d</fix>
</trkpt>
<trkpt lat="40.072805" lon="-105.2306413">
  <ele>1595.42</ele>
  <time>2026-08-27T18:29:09Z</time>
  <course>113.91</course>
  <speed>0.03</speed>
  <fix>3d</fix>
</trkpt>
<trkpt lat="40.0728051" lon="-105.2306414">
  <ele>1595.48</ele>
  <time>2026-08-27T18:29:09Z</time>
  <course>14.22</course>
  <speed>0.0</speed>
  <fix>3d</fix>
</trkpt>
<trkpt lat="40.072805" lon="-105.2306413">
  <ele>1595.42</ele>
  <time>2026-08-27T18:29:09Z</time>
  <course>119.61</course>
  <speed>0.02</speed>
  <fix>3d</fix>
</trkpt>
<trkpt lat="40.0728051" lon="-105.2306414">
  <ele>1595.48</ele>
  <time>2026-08-27T18:29:09Z</time>
  <course>14.26</course>
  <speed>0.0</speed>
  <fix>3d</fix>
</trkpt>
<trkpt lat="40.072805" lon="-105.2306412">
  <ele>1595.42</ele>
  <time>2026-08-27T18:29:09Z</time>
  <course>124.0</course>
  <speed>0.02</speed>
  <fix>3d</fix>
</trkpt>
<trkpt lat="40.0728051" lon="-105.2306413">
  <ele>1595.49</ele>
  <time>2026-08-27T18:29:09Z</time>
  <course>14.36</course>
  <speed>0.01</speed>
  <fix>3d</fix>
</trkpt>
<trkpt lat="40.072805" lon="-105.2306411">
  <ele>1595.42</ele>
  <time>2026-08-27T18:29:09Z</time>
  <course>118.29</course>
  <speed>0.03</speed>
  <fix>3d</fix>
</trkpt>
<trkpt lat="40.0728051" lon="-105.2306413">
  <ele>1595.49</ele>
  <time>2026-08-27T18:29:09Z</time>
  <course>14.32</course>
  <speed>0.01</speed>
  <fix>3d</fix>
</trkpt>
<trkpt lat="40.0728049" lon="-105.2306411">
  <ele>1595.42</ele>
  <time>2026-08-27T18:29:09Z</time>
  <course>118.08</course>
  <speed>0.02</speed>
  <fix>3d</fix>
</trkpt>
<trkpt lat="40.072805" lon="-105.2306412">
  <ele>1595.48</ele>
  <time>2026-08-27T18:29:09Z</time>
  <course>14.22</course>
  <speed>0.0</speed>
  <fix>3d</fix>
</trkpt>
<trkpt lat="40.0728049" lon="-105.230641">
  <ele>1595.42</ele>
  <time>2026-08-27T18:29:09Z</time>
  <course>127.43</course>
  <speed>0.02</speed>
  <fix>3d</fix>
</trkpt>
<trkpt lat="40.072805" lon="-105.2306412">
  <ele>1595.47</ele>
  <time>2026-08-27T18:29:09Z</time>
  <course>14.31</course>
  <speed>0.0</speed>
  <fix>3d</fix>
</trkpt>
<trkpt lat="40.0728049" lon="-105.2306409">
  <ele>1595.41</ele>
  <time>2026-08-27T18:29:09Z</time>
  <course>125.06</course>
  <speed>0.02</speed>
  <fix>3d</fix>
</trkpt>
<trkpt lat="40.072805" lon="-105.2306411">
  <ele>1595.47</ele>
  <time>2026-08-27T18:29:09Z</time>
  <course>14.35</course>
  <speed>0.01</speed>
  <fix>3d</fix>
</trkpt>
<trkpt lat="40.0728049" lon="-105.2306409">
  <ele>1595.41</ele>
  <time>2026-08-27T18:29:09Z</time>
  <course>120.14</course>
  <speed>0.03</speed>
  <fix>3d</fix>
</trkpt>
<trkpt lat="40.0728049" lon="-105.230641">
  <ele>1595.46</ele>
  <time>2026-08-27T18:29:09Z</time>
  <course>14.13</course>
  <speed>0.022360679774997897</speed>
  <fix>3d</fix>
</trkpt>
<trkpt lat="40.0728049" lon="-105.2306409">
  <ele>1595.41</ele>
  <time>2026-08-27T18:29:09Z</time>
  <course>152.04</course>
  <speed>0.03</speed>
  <fix>3d</fix>
</trkpt>
<trkpt lat="40.0728049" lon="-105.230641">
  <ele>1595.46</ele>
  <time>2026-08-27T18:29:09Z</time>
  <course>14.11</course>
  <speed>0.02</speed>
  <fix>3d</fix>
</trkpt>
<trkpt lat="40.0728048" lon="-105.2306409">
  <ele>1595.41</ele>
  <time>2026-08-27T18:29:09Z</time>
  <course>165.49</course>
  <speed>0.04</speed>
  <fix>3d</fix>
</trkpt>
<trkpt lat="40.0728048" lon="-105.230641">
  <ele>1595.46</ele>
  <time>2026-08-27T18:29:09Z</time>
  <course>14.05</course>
  <speed>0.01</speed>
  <fix>3d</fix>
</trkpt>
<trkpt lat="40.0728047" lon="-105.2306408">
  <ele>1595.41</ele>
  <time>2026-08-27T18:29:09Z</time>
  <course>155.05</course>
  <speed>0.04</speed>
  <fix>3d</fix>
</trkpt>
<trkpt lat="40.0728048" lon="-105.2306409">
  <ele>1595.46</ele>
  <time>2026-08-27T18:29:09Z</time>
  <course>14.06</course>
  <speed>0.0</speed>
  <fix>3d</fix>
</trkpt>
<trkpt lat="40.0728047" lon="-105.2306407">
  <ele>1595.41</ele>
  <time>2026-08-27T18:29:09Z</time>
  <course>146.73</course>
  <speed>0.04</speed>
  <fix>3d</fix>
</trkpt>
<trkpt lat="40.0728047" lon="-105.2306409">
  <ele>1595.47</ele>
  <time>2026-08-27T18:29:09Z</time>
  <course>14.07</course>
  <speed>0.01</speed>
  <fix>3d</fix>
</trkpt>
<trkpt lat="40.0728046" lon="-105.2306407">
  <ele>1595.41</ele>
  <time>2026-08-27T18:29:09Z</time>
  <course>136.12</course>
  <speed>0.03</speed>
  <fix>3d</fix>
</trkpt>
<trkpt lat="40.0728047" lon="-105.2306408">
  <ele>1595.48</ele>
  <time>2026-08-27T18:29:09Z</time>
  <course>14.08</course>
  <speed>0.01</speed>
  <fix>3d</fix>
</trkpt>
<trkpt lat="40.0728046" lon="-105.2306406">
  <ele>1595.41</ele>
  <time>2026-08-27T18:29:09Z</time>
  <course>127.11</course>
  <speed>0.03</speed>
  <fix>3d</fix>
</trkpt>
<trkpt lat="40.0728047" lon="-105.2306407">
  <ele>1595.49</ele>
  <time>2026-08-27T18:29:10Z</time>
  <course>14.1</course>
  <speed>0.01</speed>
  <fix>3d</fix>
</trkpt>
<trkpt lat="40.0728045" lon="-105.2306406">
  <ele>1595.41</ele>
  <time>2026-08-27T18:29:10Z</time>
  <course>118.93</course>
  <speed>0.03</speed>
  <fix>3d</fix>
</trkpt>
<trkpt lat="40.0728047" lon="-105.2306407">
  <ele>1595.48</ele>
  <time>2026-08-27T18:29:10Z</time>
  <course>14.1</course>
  <speed>0.01414213562373095</speed>
  <fix>3d</fix>
</trkpt>
<trkpt lat="40.0728044" lon="-105.2306405">
  <ele>1595.41</ele>
  <time>2026-08-27T18:29:10Z</time>
  <course>111.9</course>
  <speed>0.03</speed>
  <fix>3d</fix>
</trkpt>
<trkpt lat="40.0728046" lon="-105.2306406">
  <ele>1595.48</ele>
  <time>2026-08-27T18:29:10Z</time>
  <course>14.11</course>
  <speed>0.01414213562373095</speed>
  <fix>3d</fix>
</trkpt>
<trkpt lat="40.0728044" lon="-105.2306404">
  <ele>1595.41</ele>
  <time>2026-08-27T18:29:10Z</time>
  <course>106.17</course>
  <speed>0.03</speed>
  <fix>3d</fix>
</trkpt>
<trkpt lat="40.0728046" lon="-105.2306405">
  <ele>1595.48</ele>
  <time>2026-08-27T18:29:10Z</time>
  <course>14.12</course>
  <speed>0.01414213562373095</speed>
  <fix>3d</fix>
</trkpt>
<trkpt lat="40.0728044" lon="-105.2306404">
  <ele>1595.41</ele>
  <time>2026-08-27T18:29:10Z</time>
  <course>101.16</course>
  <speed>0.03</speed>
  <fix>3d</fix>
</trkpt>
<trkpt lat="40.0728046" lon="-105.2306405">
  <ele>1595.48</ele>
  <time>2026-08-27T18:29:10Z</time>
  <course>14.1</course>
  <speed>0.01414213562373095</speed>
  <fix>3d</fix>
</trkpt>
<trkpt lat="40.0728044" lon="-105.2306403">
  <ele>1595.4</ele>
  <time>2026-08-27T18:29:10Z</time>
  <course>97.3</course>
  <speed>0.03</speed>
  <fix>3d</fix>
</trkpt>
<trkpt lat="40.0728046" lon="-105.2306404">
  <ele>1595.47</ele>
  <time>2026-08-27T18:29:10Z</time>
  <course>14.11</course>
  <speed>0.01414213562373095</speed>
  <fix>3d</fix>
</trkpt>
<trkpt lat="40.0728044" lon="-105.2306402">
  <ele>1595.4</ele>
  <time>2026-08-27T18:29:10Z</time>
  <course>94.13</course>
  <speed>0.03</speed>
  <fix>3d</fix>
</trkpt>
<trkpt lat="40.0728046" lon="-105.2306403">
  <ele>1595.47</ele>
  <time>2026-08-27T18:29:10Z</time>
  <course>14.1</course>
  <speed>0.01414213562373095</speed>
  <fix>3d</fix>
</trkpt>
<trkpt lat="40.0728044" lon="-105.2306401">
  <ele>1595.4</ele>
  <time>2026-08-27T18:29:10Z</time>
  <course>91.79</course>
  <speed>0.03</speed>
  <fix>3d</fix>
</trkpt>
<trkpt lat="40.0728046" lon="-105.2306402">
  <ele>1595.47</ele>
  <time>2026-08-27T18:29:10Z</time>
  <course>14.09</course>
  <speed>0.022360679774997897</speed>
  <fix>3d</fix>
</trkpt>
<trkpt lat="40.0728044" lon="-105.2306401">
  <ele>1595.4</ele>
  <time>2026-08-27T18:29:10Z</time>
  <course>90.37</course>
  <speed>0.03</speed>
  <fix>3d</fix>
</trkpt>
<trkpt lat="40.0728046" lon="-105.2306401">
  <ele>1595.47</ele>
  <time>2026-08-27T18:29:10Z</time>
  <course>14.09</course>
  <speed>0.022360679774997897</speed>
  <fix>3d</fix>
</trkpt>
<trkpt lat="40.0728044" lon="-105.23064">
  <ele>1595.4</ele>
  <time>2026-08-27T18:29:10Z</time>
  <course>89.02</course>
  <speed>0.03</speed>
  <fix>3d</fix>
</trkpt>
<trkpt lat="40.0728046" lon="-105.2306401">
  <ele>1595.47</ele>
  <time>2026-08-27T18:29:10Z</time>
  <course>14.09</course>
  <speed>0.022360679774997897</speed>
  <fix>3d</fix>
</trkpt>
<trkpt lat="40.0728044" lon="-105.2306399">
  <ele>1595.4</ele>
  <time>2026-08-27T18:29:10Z</time>
  <course>87.74</course>
  <speed>0.03</speed>
  <fix>3d</fix>
</trkpt>
<trkpt lat="40.0728046" lon="-105.23064">
  <ele>1595.47</ele>
  <time>2026-08-27T18:29:10Z</time>
  <course>14.08</course>
  <speed>0.044721359549995794</speed>
  <fix>3d</fix>
</trkpt>
<trkpt lat="40.0728044" lon="-105.2306398">
  <ele>1595.39</ele>
  <time>2026-08-27T18:29:10Z</time>
  <course>79.9</course>
  <speed>0.03</speed>
  <fix>3d</fix>
</trkpt>
<trkpt lat="40.0728046" lon="-105.2306399">
  <ele>1595.48</ele>
  <time>2026-08-27T18:29:10Z</time>
  <course>14.2</course>
  <speed>0.05</speed>
  <fix>3d</fix>
</trkpt>
<trkpt lat="40.0728044" lon="-105.2306397">
  <ele>1595.39</ele>
  <time>2026-08-27T18:29:10Z</time>
  <course>66.56</course>
  <speed>0.04</speed>
  <fix>3d</fix>
</trkpt>
<trkpt lat="40.0728046" lon="-105.2306398">
  <ele>1595.48</ele>
  <time>2026-08-27T18:29:10Z</time>
  <course>14.27</course>
  <speed>0.044721359549995794</speed>
  <fix>3d</fix>
</trkpt>
<trkpt lat="40.0728044" lon="-105.2306396">
  <ele>1595.39</ele>
  <time>2026-08-27T18:29:10Z</time>
  <course>55.54</course>
  <speed>0.05</speed>
  <fix>3d</fix>
</trkpt>
<trkpt lat="40.0728046" lon="-105.2306397">
  <ele>1595.48</ele>
  <time>2026-08-27T18:29:10Z</time>
  <course>14.21</course>
  <speed>0.04</speed>
  <fix>3d</fix>
</trkpt>
<trkpt lat="40.0728044" lon="-105.2306395">
  <ele>1595.39</ele>
  <time>2026-08-27T18:29:10Z</time>
  <course>47.41</course>
  <speed>0.03</speed>
  <fix>3d</fix>
</trkpt>
<trkpt lat="40.0728047" lon="-105.2306396">
  <ele>1595.48</ele>
  <time>2026-08-27T18:29:10Z</time>
  <course>14.29</course>
  <speed>0.02</speed>
  <fix>3d</fix>
</trkpt>
<trkpt lat="40.0728045" lon="-105.2306395">
  <ele>1595.39</ele>
  <time>2026-08-27T18:29:10Z</time>
  <course>60.96</course>
  <speed>0.03</speed>
  <fix>3d</fix>
</trkpt>
<trkpt lat="40.0728046" lon="-105.2306396">
  <ele>1595.48</ele>
  <time>2026-08-27T18:29:10Z</time>
  <course>14.35</course>
  <speed>0.01414213562373095</speed>
  <fix>3d</fix>
</trkpt>
<trkpt lat="40.0728046" lon="-105.2306394">
  <ele>1595.39</ele>
  <time>2026-08-27T18:29:10Z</time>
  <course>78.38</course>
  <speed>0.03</speed>
  <fix>3d</fix>
</trkpt>
<trkpt lat="40.0728046" lon="-105.2306395">
  <ele>1595.48</ele>
  <time>2026-08-27T18:29:10Z</time>
  <course>14.31</course>
  <speed>0.01414213562373095</speed>
  <fix>3d</fix>
</trkpt>
<trkpt lat="40.0728046" lon="-105.2306394">
  <ele>1595.38</ele>
  <time>2026-08-27T18:29:10Z</time>
  <course>87.01</course>
  <speed>0.02</speed>
  <fix>3d</fix>
</trkpt>
<trkpt lat="40.0728046" lon="-105.2306395">
  <ele>1595.48</ele>
  <time>2026-08-27T18:29:10Z</time>
  <course>14.2</course>
  <speed>0.01</speed>
  <fix>3d</fix>
</trkpt>
<trkpt lat="40.0728046" lon="-105.2306393">
  <ele>1595.38</ele>
  <time>2026-08-27T18:29:10Z</time>
  <course>100.37</course>
  <speed>0.01</speed>
  <fix>3d</fix>
</trkpt>
<trkpt lat="40.0728046" lon="-105.2306394">
  <ele>1595.47</ele>
  <time>2026-08-27T18:29:10Z</time>
  <course>14.27</course>
  <speed>0.0</speed>
  <fix>3d</fix>
</trkpt>
<trkpt lat="40.0728046" lon="-105.2306392">
  <ele>1595.38</ele>
  <time>2026-08-27T18:29:10Z</time>
  <course>109.78</course>
  <speed>0.02</speed>
  <fix>3d</fix>
</trkpt>
<trkpt lat="40.0728046" lon="-105.2306394">
  <ele>1595.47</ele>
  <time>2026-08-27T18:29:10Z</time>
  <course>14.32</course>
  <speed>0.01</speed>
  <fix>3d</fix>
</trkpt>
<trkpt lat="40.0728046" lon="-105.2306392">
  <ele>1595.37</ele>
  <time>2026-08-27T18:29:10Z</time>
  <course>110.29</course>
  <speed>0.03</speed>
  <fix>3d</fix>
</trkpt>
<trkpt lat="40.0728046" lon="-105.2306393">
  <ele>1595.46</ele>
  <time>2026-08-27T18:29:10Z</time>
  <course>14.27</course>
  <speed>0.01</speed>
  <fix>3d</fix>
</trkpt>
<trkpt lat="40.0728046" lon="-105.2306391">
  <ele>1595.37</ele>
  <time>2026-08-27T18:29:10Z</time>
  <course>112.6</course>
  <speed>0.02</speed>
  <fix>3d</fix>
</trkpt>
<trkpt lat="40.0728046" lon="-105.2306392">
  <ele>1595.46</ele>
  <time>2026-08-27T18:29:10Z</time>
  <course>14.15</course>
  <speed>0.0</speed>
  <fix>3d</fix>
</trkpt>
<trkpt lat="40.0728046" lon="-105.230639">
  <ele>1595.37</ele>
  <time>2026-08-27T18:29:10Z</time>
  <course>119.95</course>
  <speed>0.02</speed>
  <fix>3d</fix>
</trkpt>
<trkpt lat="40.0728046" lon="-105.2306392">
  <ele>1595.46</ele>
  <time>2026-08-27T18:29:10Z</time>
  <course>14.23</course>
  <speed>0.0</speed>
  <fix>3d</fix>
</trkpt>
<trkpt lat="40.0728046" lon="-105.230639">
  <ele>1595.37</ele>
  <time>2026-08-27T18:29:10Z</time>
  <course>120.18</course>
  <speed>0.02</speed>
  <fix>3d</fix>
</trkpt>
<trkpt lat="40.0728046" lon="-105.2306391">
  <ele>1595.46</ele>
  <time>2026-08-27T18:29:10Z</time>
  <course>14.29</course>
  <speed>0.01</speed>
  <fix>3d</fix>
</trkpt>
<trkpt lat="40.0728045" lon="-105.230639">
  <ele>1595.37</ele>
  <time>2026-08-27T18:29:10Z</time>
  <course>117.63</course>
  <speed>0.03</speed>
  <fix>3d</fix>
</trkpt>
<trkpt lat="40.0728046" lon="-105.2306391">
  <ele>1595.46</ele>
  <time>2026-08-27T18:29:10Z</time>
  <course>14.23</course>
  <speed>0.01</speed>
  <fix>3d</fix>
</trkpt>
<trkpt lat="40.0728044" lon="-105.2306389">
  <ele>1595.37</ele>
  <time>2026-08-27T18:29:10Z</time>
  <course>120.99</course>
  <speed>0.02</speed>
  <fix>3d</fix>
</trkpt>
<trkpt lat="40.0728046" lon="-105.230639">
  <ele>1595.46</ele>
  <time>2026-08-27T18:29:10Z</time>
  <course>14.15</course>
  <speed>0.0</speed>
  <fix>3d</fix>
</trkpt>
<trkpt lat="40.0728044" lon="-105.2306388">
  <ele>1595.37</ele>
  <time>2026-08-27T18:29:10Z</time>
  <course>129.33</course>
  <speed>0.02</speed>
  <fix>3d</fix>
</trkpt>
<trkpt lat="40.0728046" lon="-105.230639">
  <ele>1595.46</ele>
  <time>2026-08-27T18:29:10Z</time>
  <course>14.22</course>
  <speed>0.0</speed>
  <fix>3d</fix>
</trkpt>
<trkpt lat="40.0728044" lon="-105.2306388">
  <ele>1595.37</ele>
  <time>2026-08-27T18:29:10Z</time>
  <course>126.99</course>
  <speed>0.02</speed>
  <fix>3d</fix>
</trkpt>
<trkpt lat="40.0728045" lon="-105.2306389">
  <ele>1595.46</ele>
  <time>2026-08-27T18:29:10Z</time>
  <course>14.29</course>
  <speed>0.01</speed>
  <fix>3d</fix>
</trkpt>
<trkpt lat="40.0728044" lon="-105.2306387">
  <ele>1595.37</ele>
  <time>2026-08-27T18:29:10Z</time>
  <course>122.91</course>
  <speed>0.03</speed>
  <fix>3d</fix>
</trkpt>
<trkpt lat="40.0728045" lon="-105.2306389">
  <ele>1595.46</ele>
  <time>2026-08-27T18:29:10Z</time>
  <course>14.25</course>
  <speed>0.01</speed>
  <fix>3d</fix>
</trkpt>
<trkpt lat="40.0728043" lon="-105.2306387">
  <ele>1595.37</ele>
  <time>2026-08-27T18:29:10Z</time>
  <course>126.16</course>
  <speed>0.02</speed>
  <fix>3d</fix>
</trkpt>
<trkpt lat="40.0728045" lon="-105.2306388">
  <ele>1595.47</ele>
  <time>2026-08-27T18:29:10Z</time>
  <course>14.14</course>
  <speed>0.022360679774997897</speed>
  <fix>3d</fix>
</trkpt>
<trkpt lat="40.0728043" lon="-105.2306386">
  <ele>1595.38</ele>
  <time>2026-08-27T18:29:10Z</time>
  <course>152.3</course>
  <speed>0.03</speed>
  <fix>3d</fix>
</trkpt>
<trkpt lat="40.0728044" lon="-105.2306388">
  <ele>1595.47</ele>
  <time>2026-08-27T18:29:10Z</time>
  <course>14.13</course>
  <speed>0.02</speed>
  <fix>3d</fix>
</trkpt>
<trkpt lat="40.0728043" lon="-105.2306385">
  <ele>1595.38</ele>
  <time>2026-08-27T18:29:10Z</time>
  <course>162.24</course>
  <speed>0.04</speed>
  <fix>3d</fix>
</trkpt>
<trkpt lat="40.0728043" lon="-105.2306387">
  <ele>1595.47</ele>
  <time>2026-08-27T18:29:10Z</time>
  <course>14.08</course>
  <speed>0.01</speed>
  <fix>3d</fix>
</trkpt>
<trkpt lat="40.0728042" lon="-105.2306385">
  <ele>1595.38</ele>
  <time>2026-08-27T18:29:10Z</time>
  <course>159.15</course>
  <speed>0.04</speed>
  <fix>3d</fix>
</trkpt>
<trkpt lat="40.0728043" lon="-105.2306387">
  <ele>1595.47</ele>
  <time>2026-08-27T18:29:10Z</time>
  <course>14.08</course>
  <speed>0.0</speed>
  <fix>3d</fix>
</trkpt>
<trkpt lat="40.0728041" lon="-105.2306385">
  <ele>1595.38</ele>
  <time>2026-08-27T18:29:10Z</time>
  <course>150.02</course>
  <speed>0.04</speed>
  <fix>3d</fix>
</trkpt>
<trkpt lat="40.0728042" lon="-105.2306386">
  <ele>1595.46</ele>
  <time>2026-08-27T18:29:10Z</time>
  <course>14.08</course>
  <speed>0.01</speed>
  <fix>3d</fix>
</trkpt>
<trkpt lat="40.0728041" lon="-105.2306385">
  <ele>1595.38</ele>
  <time>2026-08-27T18:29:10Z</time>
  <course>138.78</course>
  <speed>0.03</speed>
  <fix>3d</fix>
</trkpt>
<trkpt lat="40.0728042" lon="-105.2306386">
  <ele>1595.46</ele>
  <time>2026-08-27T18:29:10Z</time>
  <course>14.07</course>
  <speed>0.01</speed>
  <fix>3d</fix>
</trkpt>
<trkpt lat="40.072804" lon="-105.2306384">
  <ele>1595.38</ele>
  <time>2026-08-27T18:29:10Z</time>
  <course>129.31</course>
  <speed>0.03</speed>
  <fix>3d</fix>
</trkpt>
<trkpt lat="40.0728042" lon="-105.2306385">
  <ele>1595.46</ele>
  <time>2026-08-27T18:29:10Z</time>
  <course>14.07</course>
  <speed>0.01</speed>
  <fix>3d</fix>
</trkpt>
<trkpt lat="40.072804" lon="-105.2306383">
  <ele>1595.38</ele>
  <time>2026-08-27T18:29:10Z</time>
  <course>119.71</course>
  <speed>0.03</speed>
  <fix>3d</fix>
</trkpt>
<trkpt lat="40.0728041" lon="-105.2306384">
  <ele>1595.47</ele>
  <time>2026-08-27T18:29:10Z</time>
  <course>14.07</course>
  <speed>0.01414213562373095</speed>
  <fix>3d</fix>
</trkpt>
<trkpt lat="40.072804" lon="-105.2306383">
  <ele>1595.38</ele>
  <time>2026-08-27T18:29:10Z</time>
  <course>110.61</course>
  <speed>0.02</speed>
  <fix>3d</fix>
</trkpt>
<trkpt lat="40.0728041" lon="-105.2306384">
  <ele>1595.47</ele>
  <time>2026-08-27T18:29:10Z</time>
  <course>14.08</course>
  <speed>0.01414213562373095</speed>
  <fix>3d</fix>
</trkpt>
<trkpt lat="40.072804" lon="-105.2306382">
  <ele>1595.38</ele>
  <time>2026-08-27T18:29:10Z</time>
  <course>101.68</course>
  <speed>0.02</speed>
  <fix>3d</fix>
</trkpt>
<trkpt lat="40.0728041" lon="-105.2306383">
  <ele>1595.46</ele>
  <time>2026-08-27T18:29:10Z</time>
  <course>14.08</course>
  <speed>0.022360679774997897</speed>
  <fix>3d</fix>
</trkpt>
<trkpt lat="40.072804" lon="-105.2306381">
  <ele>1595.38</ele>
  <time>2026-08-27T18:29:10Z</time>
  <course>93.57</course>
  <speed>0.02</speed>
  <fix>3d</fix>
</trkpt>
<trkpt lat="40.0728042" lon="-105.2306382">
  <ele>1595.45</ele>
  <time>2026-08-27T18:29:10Z</time>
  <course>14.07</course>
  <speed>0.022360679774997897</speed>
  <fix>3d</fix>
</trkpt>
<trkpt lat="40.072804" lon="-105.230638">
  <ele>1595.38</ele>
  <time>2026-08-27T18:29:10Z</time>
  <course>88.09</course>
  <speed>0.03</speed>
  <fix>3d</fix>
</trkpt>
<trkpt lat="40.0728041" lon="-105.2306382">
  <ele>1595.45</ele>
  <time>2026-08-27T18:29:10Z</time>
  <course>14.08</course>
  <speed>0.022360679774997897</speed>
  <fix>3d</fix>
</trkpt>
<trkpt lat="40.072804" lon="-105.230638">
  <ele>1595.38</ele>
  <time>2026-08-27T18:29:10Z</time>
  <course>85.46</course>
  <speed>0.03</speed>
  <fix>3d</fix>
</trkpt>
<trkpt lat="40.0728041" lon="-105.2306381">
  <ele>1595.46</ele>
  <time>2026-08-27T18:29:10Z</time>
  <course>14.05</course>
  <speed>0.022360679774997897</speed>
  <fix>3d</fix>
</trkpt>
<trkpt lat="40.072804" lon="-105.2306379">
  <ele>1595.38</ele>
  <time>2026-08-27T18:29:10Z</time>
  <course>84.44</course>
  <speed>0.03</speed>
  <fix>3d</fix>
</trkpt>
<trkpt lat="40.0728041" lon="-105.230638">
  <ele>1595.46</ele>
  <time>2026-08-27T18:29:10Z</time>
  <course>14.08</course>
  <speed>0.022360679774997897</speed>
  <fix>3d</fix>
</trkpt>
<trkpt lat="40.072804" lon="-105.2306378">
  <ele>1595.38</ele>
  <time>2026-08-27T18:29:10Z</time>
  <course>84.05</course>
  <speed>0.03</speed>
  <fix>3d</fix>
</trkpt>
<trkpt lat="40.0728041" lon="-105.2306379">
  <ele>1595.46</ele>
  <time>2026-08-27T18:29:10Z</time>
  <course>14.08</course>
  <speed>0.022360679774997897</speed>
  <fix>3d</fix>
</trkpt>
<trkpt lat="40.072804" lon="-105.2306378">
  <ele>1595.39</ele>
  <time>2026-08-27T18:29:10Z</time>
  <course>84.33</course>
  <speed>0.03</speed>
  <fix>3d</fix>
</trkpt>
<trkpt lat="40.0728041" lon="-105.2306379">
  <ele>1595.46</ele>
  <time>2026-08-27T18:29:10Z</time>
  <course>14.06</course>
  <speed>0.022360679774997897</speed>
  <fix>3d</fix>
</trkpt>
<trkpt lat="40.072804" lon="-105.2306377">
  <ele>1595.39</ele>
  <time>2026-08-27T18:29:10Z</time>
  <course>84.8</course>
  <speed>0.03</speed>
  <fix>3d</fix>
</trkpt>
<trkpt lat="40.0728041" lon="-105.2306378">
  <ele>1595.46</ele>
  <time>2026-08-27T18:29:10Z</time>
  <course>14.07</course>
  <speed>0.022360679774997897</speed>
  <fix>3d</fix>
</trkpt>
<trkpt lat="40.072804" lon="-105.2306376">
  <ele>1595.39</ele>
  <time>2026-08-27T18:29:10Z</time>
  <course>84.74</course>
  <speed>0.03</speed>
  <fix>3d</fix>
</trkpt>
<trkpt lat="40.0728041" lon="-105.2306377">
  <ele>1595.47</ele>
  <time>2026-08-27T18:29:10Z</time>
  <course>14.13</course>
  <speed>0.05</speed>
  <fix>3d</fix>
</trkpt>
<trkpt lat="40.072804" lon="-105.2306376">
  <ele>1595.4</ele>
  <time>2026-08-27T18:29:10Z</time>
  <course>66.31</course>
  <speed>0.03</speed>
  <fix>3d</fix>
</trkpt>
<trkpt lat="40.0728042" lon="-105.2306376">
  <ele>1595.47</ele>
  <time>2026-08-27T18:29:10Z</time>
  <course>14.12</course>
  <speed>0.05099019513592785</speed>
  <fix>3d</fix>
</trkpt>
<trkpt lat="40.072804" lon="-105.2306375">
  <ele>1595.4</ele>
  <time>2026-08-27T18:29:10Z</time>
  <course>51.63</course>
  <speed>0.04</speed>
  <fix>3d</fix>
</trkpt>
<trkpt lat="40.0728042" lon="-105.2306375">
  <ele>1595.47</ele>
  <time>2026-08-27T18:29:10Z</time>
  <course>14.26</course>
  <speed>0.0316227766016838</speed>
  <fix>3d</fix>
</trkpt>
<trkpt lat="40.072804" lon="-105.2306373">
  <ele>1595.4</ele>
  <time>2026-08-27T18:29:10Z</time>
  <course>54.78</course>
  <speed>0.04</speed>
  <fix>3d</fix>
</trkpt>
<trkpt lat="40.0728042" lon="-105.2306375">
  <ele>1595.47</ele>
  <time>2026-08-27T18:29:10Z</time>
  <course>14.35</course>
  <speed>0.022360679774997897</speed>
  <fix>3d</fix>
</trkpt>
<trkpt lat="40.072804" lon="-105.2306373">
  <ele>1595.4</ele>
  <time>2026-08-27T18:29:10Z</time>
  <course>62.56</course>
  <speed>0.03</speed>
  <fix>3d</fix>
</trkpt>
<trkpt lat="40.0728042" lon="-105.2306374">
  <ele>1595.47</ele>
  <time>2026-08-27T18:29:10Z</time>
  <course>14.26</course>
  <speed>0.02</speed>
  <fix>3d</fix>
</trkpt>
<trkpt lat="40.0728041" lon="-105.2306372">
  <ele>1595.4</ele>
  <time>2026-08-27T18:29:10Z</time>
  <course>63.24</course>
  <speed>0.02</speed>
  <fix>3d</fix>
</trkpt>
<trkpt lat="40.0728042" lon="-105.2306374">
  <ele>1595.48</ele>
  <time>2026-08-27T18:29:10Z</time>
  <course>14.21</course>
  <speed>0.01</speed>
  <fix>3d</fix>
</trkpt>
<trkpt lat="40.0728041" lon="-105.2306371">
  <ele>1595.41</ele>
  <time>2026-08-27T18:29:10Z</time>
  <course>84.11</course>
  <speed>0.01</speed>
  <fix>3d</fix>
</trkpt>
<trkpt lat="40.0728042" lon="-105.2306373">
  <ele>1595.47</ele>
  <time>2026-08-27T18:29:10Z</time>
  <course>14.32</course>
  <speed>0.0</speed>
  <fix>3d</fix>
</trkpt>
<trkpt lat="40.0728041" lon="-105.2306371">
  <ele>1595.41</ele>
  <time>2026-08-27T18:29:10Z</time>
  <course>103.96</course>
  <speed>0.02</speed>
  <fix>3d</fix>
</trkpt>
<trkpt lat="40.0728042" lon="-105.2306372">
  <ele>1595.47</ele>
  <time>2026-08-27T18:29:10Z</time>
  <course>14.35</course>
  <speed>0.01</speed>
  <fix>3d</fix>
</trkpt>
<trkpt lat="40.0728041" lon="-105.2306371">
  <ele>1595.41</ele>
  <time>2026-08-27T18:29:10Z</time>
  <course>107.28</course>
  <speed>0.03</speed>
  <fix>3d</fix>
</trkpt>
<trkpt lat="40.0728042" lon="-105.2306372">
  <ele>1595.47</ele>
  <time>2026-08-27T18:29:10Z</time>
  <course>14.22</course>
  <speed>0.0</speed>
  <fix>3d</fix>
</trkpt>
<trkpt lat="40.0728041" lon="-105.230637">
  <ele>1595.4</ele>
  <time>2026-08-27T18:29:10Z</time>
  <course>114.95</course>
  <speed>0.02</speed>
  <fix>3d</fix>
</trkpt>
<trkpt lat="40.0728042" lon="-105.2306371">
  <ele>1595.47</ele>
  <time>2026-08-27T18:29:10Z</time>
  <course>14.25</course>
  <speed>0.0</speed>
  <fix>3d</fix>
</trkpt>
<trkpt lat="40.0728041" lon="-105.230637">
  <ele>1595.4</ele>
  <time>2026-08-27T18:29:10Z</time>
  <course>121.2</course>
  <speed>0.02</speed>
  <fix>3d</fix>
</trkpt>
<trkpt lat="40.0728042" lon="-105.2306371">
  <ele>1595.47</ele>
  <time>2026-08-27T18:29:10Z</time>
  <course>14.32</course>
  <speed>0.01</speed>
  <fix>3d</fix>
</trkpt>
<trkpt lat="40.0728041" lon="-105.2306369">
  <ele>1595.4</ele>
  <time>2026-08-27T18:29:10Z</time>
  <course>116.91</course>
  <speed>0.03</speed>
  <fix>3d</fix>
</trkpt>
<trkpt lat="40.0728042" lon="-105.230637">
  <ele>1595.47</ele>
  <time>2026-08-27T18:29:10Z</time>
  <course>14.29</course>
  <speed>0.01</speed>
  <fix>3d</fix>
</trkpt>
<trkpt lat="40.0728041" lon="-105.2306368">
  <ele>1595.4</ele>
  <time>2026-08-27T18:29:10Z</time>
  <course>116.4</course>
  <speed>0.02</speed>
  <fix>3d</fix>
</trkpt>
<trkpt lat="40.0728042" lon="-105.230637">
  <ele>1595.47</ele>
  <time>2026-08-27T18:29:10Z</time>
  <course>14.18</course>
  <speed>0.0</speed>
  <fix>3d</fix>
</trkpt>
<trkpt lat="40.072804" lon="-105.2306368">
  <ele>1595.4</ele>
  <time>2026-08-27T18:29:10Z</time>
  <course>125.19</course>
  <speed>0.02</speed>
  <fix>3d</fix>
</trkpt>
<trkpt lat="40.0728042" lon="-105.2306369">
  <ele>1595.47</ele>
  <time>2026-08-27T18:29:10Z</time>
  <course>14.26</course>
  <speed>0.0</speed>
  <fix>3d</fix>
</trkpt>
<trkpt lat="40.072804" lon="-105.2306367">
  <ele>1595.4</ele>
  <time>2026-08-27T18:29:10Z</time>
  <course>125.03</course>
  <speed>0.02</speed>
  <fix>3d</fix>
</trkpt>
<trkpt lat="40.0728041" lon="-105.2306369">
  <ele>1595.48</ele>
  <time>2026-08-27T18:29:10Z</time>
  <course>14.33</course>
  <speed>0.01</speed>
  <fix>3d</fix>
</trkpt>
<trkpt lat="40.072804" lon="-105.2306366">
  <ele>1595.4</ele>
  <time>2026-08-27T18:29:10Z</time>
  <course>120.0</course>
  <speed>0.03</speed>
  <fix>3d</fix>
</trkpt>
<trkpt lat="40.0728041" lon="-105.2306368">
  <ele>1595.48</ele>
  <time>2026-08-27T18:29:10Z</time>
  <course>14.27</course>
  <speed>0.0</speed>
  <fix>3d</fix>
</trkpt>
<trkpt lat="40.072804" lon="-105.2306366">
  <ele>1595.4</ele>
  <time>2026-08-27T18:29:10Z</time>
  <course>123.39</course>
  <speed>0.02</speed>
  <fix>3d</fix>
</trkpt>
<trkpt lat="40.0728041" lon="-105.2306367">
  <ele>1595.47</ele>
  <time>2026-08-27T18:29:10Z</time>
  <course>14.21</course>
  <speed>0.0</speed>
  <fix>3d</fix>
</trkpt>
<trkpt lat="40.0728039" lon="-105.2306366">
  <ele>1595.4</ele>
  <time>2026-08-27T18:29:10Z</time>
  <course>131.68</course>
  <speed>0.02</speed>
  <fix>3d</fix>
</trkpt>
<trkpt lat="40.0728041" lon="-105.2306367">
  <ele>1595.47</ele>
  <time>2026-08-27T18:29:10Z</time>
  <course>14.31</course>
  <speed>0.0</speed>
  <fix>3d</fix>
</trkpt>
<trkpt lat="40.0728038" lon="-105.2306365">
  <ele>1595.4</ele>
  <time>2026-08-27T18:29:10Z</time>
  <course>125.52</course>
  <speed>0.03</speed>
  <fix>3d</fix>
</trkpt>
<trkpt lat="40.072804" lon="-105.2306366">
  <ele>1595.48</ele>
  <time>2026-08-27T18:29:10Z</time>
  <course>14.35</course>
  <speed>0.01</speed>
  <fix>3d</fix>
</trkpt>
<trkpt lat="40.0728038" lon="-105.2306364">
  <ele>1595.4</ele>
  <time>2026-08-27T18:29:10Z</time>
  <course>121.33</course>
  <speed>0.03</speed>
  <fix>3d</fix>
</trkpt>
<trkpt lat="40.0728039" lon="-105.2306366">
  <ele>1595.48</ele>
  <time>2026-08-27T18:29:10Z</time>
  <course>14.14</course>
  <speed>0.022360679774997897</speed>
  <fix>3d</fix>
</trkpt>
<trkpt lat="40.0728038" lon="-105.2306364">
  <ele>1595.4</ele>
  <time>2026-08-27T18:29:10Z</time>
  <course>153.56</course>
  <speed>0.03</speed>
  <fix>3d</fix>
</trkpt>
<trkpt lat="40.0728039" lon="-105.2306366">
  <ele>1595.49</ele>
  <time>2026-08-27T18:29:10Z</time>
  <course>14.14</course>
  <speed>0.02</speed>
  <fix>3d</fix>
</trkpt>
<trkpt lat="40.0728037" lon="-105.2306364">
  <ele>1595.4</ele>
  <time>2026-08-27T18:29:10Z</time>
  <course>165.98</course>
  <speed>0.04</speed>
  <fix>3d</fix>
</trkpt>
<trkpt lat="40.0728038" lon="-105.2306365">
  <ele>1595.49</ele>
  <time>2026-08-27T18:29:10Z</time>
  <course>14.1</course>
  <speed>0.01</speed>
  <fix>3d</fix>
</trkpt>
<trkpt lat="40.0728037" lon="-105.2306363">
  <ele>1595.4</ele>
  <time>2026-08-27T18:29:10Z</time>
  <course>156.98</course>
  <speed>0.04</speed>
  <fix>3d</fix>
</trkpt>
<trkpt lat="40.0728037" lon="-105.2306365">
  <ele>1595.49</ele>
  <time>2026-08-27T18:29:10Z</time>
  <course>14.09</course>
  <speed>0.01</speed>
  <fix>3d</fix>
</trkpt>
<trkpt lat="40.0728036" lon="-105.2306363">
  <ele>1595.39</ele>
  <time>2026-08-27T18:29:10Z</time>
  <course>148.44</course>
  <speed>0.04</speed>
  <fix>3d</fix>
</trkpt>
<trkpt lat="40.0728037" lon="-105.2306364">
  <ele>1595.49</ele>
  <time>2026-08-27T18:29:10Z</time>
  <course>14.11</course>
  <speed>0.01</speed>
  <fix>3d</fix>
</trkpt>
<trkpt lat="40.0728035" lon="-105.2306362">
  <ele>1595.39</ele>
  <time>2026-08-27T18:29:10Z</time>
  <course>137.02</course>
  <speed>0.03</speed>
  <fix>3d</fix>
</trkpt>
<trkpt lat="40.0728037" lon="-105.2306363">
  <ele>1595.48</ele>
  <time>2026-08-27T18:29:10Z</time>
  <course>14.09</course>
  <speed>0.01</speed>
  <fix>3d</fix>
</trkpt>
<trkpt lat="40.0728035" lon="-105.2306361">
  <ele>1595.39</ele>
  <time>2026-08-27T18:29:10Z</time>
  <course>126.92</course>
  <speed>0.03</speed>
  <fix>3d</fix>
</trkpt>
<trkpt lat="40.0728036" lon="-105.2306363">
  <ele>1595.48</ele>
  <time>2026-08-27T18:29:10Z</time>
  <course>14.11</course>
  <speed>0.01</speed>
  <fix>3d</fix>
</trkpt>
<trkpt lat="40.0728035" lon="-105.2306361">
  <ele>1595.38</ele>
  <time>2026-08-27T18:29:10Z</time>
  <course>117.6</course>
  <speed>0.03</speed>
  <fix>3d</fix>
</trkpt>
<trkpt lat="40.0728036" lon="-105.2306362">
  <ele>1595.47</ele>
  <time>2026-08-27T18:29:10Z</time>
  <course>14.09</course>
  <speed>0.01414213562373095</speed>
  <fix>3d</fix>
</trkpt>
<trkpt lat="40.0728035" lon="-105.230636">
  <ele>1595.38</ele>
  <time>2026-08-27T18:29:10Z</time>
  <course>110.4</course>
  <speed>0.03</speed>
  <fix>3d</fix>
</trkpt>
<trkpt lat="40.0728036" lon="-105.2306361">
  <ele>1595.47</ele>
  <time>2026-08-27T18:29:10Z</time>
  <course>14.08</course>
  <speed>0.01414213562373095</speed>
  <fix>3d</fix>
</trkpt>
<trkpt lat="40.0728034" lon="-105.2306359">
  <ele>1595.38</ele>
  <time>2026-08-27T18:29:10Z</time>
  <course>104.85</course>
  <speed>0.03</speed>
  <fix>3d</fix>
</trkpt>
<trkpt lat="40.0728036" lon="-105.230636">
  <ele>1595.47</ele>
  <time>2026-08-27T18:29:10Z</time>
  <course>14.08</course>
  <speed>0.01414213562373095</speed>
  <fix>3d</fix>
</trkpt>
<trkpt lat="40.0728034" lon="-105.2306359">
  <ele>1595.37</ele>
  <time>2026-08-27T18:29:10Z</time>
  <course>99.63</course>
  <speed>0.03</speed>
  <fix>3d</fix>
</trkpt>
<trkpt lat="40.0728036" lon="-105.230636">
  <ele>1595.46</ele>
  <time>2026-08-27T18:29:10Z</time>
  <course>14.08</course>
  <speed>0.01414213562373095</speed>
  <fix>3d</fix>
</trkpt>
<trkpt lat="40.0728034" lon="-105.2306358">
  <ele>1595.37</ele>
  <time>2026-08-27T18:29:10Z</time>
  <course>94.68</course>
  <speed>0.03</speed>
  <fix>3d</fix>
</trkpt>
<trkpt lat="40.0728036" lon="-105.2306359">
  <ele>1595.46</ele>
  <time>2026-08-27T18:29:10Z</time>
  <course>14.08</course>
  <speed>0.022360679774997897</speed>
  <fix>3d</fix>
</trkpt>
<trkpt lat="40.0728034" lon="-105.2306357">
  <ele>1595.37</ele>
  <time>2026-08-27T18:29:10Z</time>
  <course>90.01</course>
  <speed>0.03</speed>
  <fix>3d</fix>
</trkpt>
<trkpt lat="40.0728036" lon="-105.2306358">
  <ele>1595.46</ele>
  <time>2026-08-27T18:29:10Z</time>
  <course>14.06</course>
  <speed>0.022360679774997897</speed>
  <fix>3d</fix>
</trkpt>
<trkpt lat="40.0728034" lon="-105.2306356">
  <ele>1595.37</ele>
  <time>2026-08-27T18:29:10Z</time>
  <course>86.06</course>
  <speed>0.03</speed>
  <fix>3d</fix>
</trkpt>
<trkpt lat="40.0728036" lon="-105.2306357">
  <ele>1595.46</ele>
  <time>2026-08-27T18:29:10Z</time>
  <course>14.07</course>
  <speed>0.0282842712474619</speed>
  <fix>3d</fix>
</trkpt>
<trkpt lat="40.0728034" lon="-105.2306356">
  <ele>1595.37</ele>
  <time>2026-08-27T18:29:10Z</time>
  <course>83.36</course>
  <speed>0.03</speed>
  <fix>3d</fix>
</trkpt>
<trkpt lat="40.0728036" lon="-105.2306356">
  <ele>1595.47</ele>
  <time>2026-08-27T18:29:10Z</time>
  <course>14.08</course>
  <speed>0.0282842712474619</speed>
  <fix>3d</fix>
</trkpt>
<trkpt lat="40.0728034" lon="-105.2306355">
  <ele>1595.37</ele>
  <time>2026-08-27T18:29:10Z</time>
  <course>82.0</course>
  <speed>0.03</speed>
  <fix>3d</fix>
</trkpt>
<trkpt lat="40.0728036" lon="-105.2306355">
  <ele>1595.47</ele>
  <time>2026-08-27T18:29:10Z</time>
  <course>14.09</course>
  <speed>0.0282842712474619</speed>
  <fix>3d</fix>
</trkpt>
<trkpt lat="40.0728034" lon="-105.2306354">
  <ele>1595.38</ele>
  <time>2026-08-27T18:29:10Z</time>
  <course>81.34</course>
  <speed>0.03</speed>
  <fix>3d</fix>
</trkpt>
<trkpt lat="40.0728036" lon="-105.2306355">
  <ele>1595.48</ele>
  <time>2026-08-27T18:29:10Z</time>
  <course>14.08</course>
  <speed>0.044721359549995794</speed>
  <fix>3d</fix>
</trkpt>
<trkpt lat="40.0728034" lon="-105.2306353">
  <ele>1595.38</ele>
  <time>2026-08-27T18:29:10Z</time>
  <course>75.05</course>
  <speed>0.03</speed>
  <fix>3d</fix>
</trkpt>
<trkpt lat="40.0728036" lon="-105.2306353">
  <ele>1595.48</ele>
  <time>2026-08-27T18:29:10Z</time>
  <course>14.2</course>
  <speed>0.05</speed>
  <fix>3d</fix>
</trkpt>
<trkpt lat="40.0728034" lon="-105.2306352">
  <ele>1595.38</ele>
  <time>2026-08-27T18:29:10Z</time>
  <course>64.4</course>
  <speed>0.04</speed>
  <fix>3d</fix>
</trkpt>
<trkpt lat="40.0728036" lon="-105.2306353">
  <ele>1595.48</ele>
  <time>2026-08-27T18:29:10Z</time>
  <course>14.28</course>
  <speed>0.044721359549995794</speed>
  <fix>3d</fix>
</trkpt>
<trkpt lat="40.0728034" lon="-105.2306351">
  <ele>1595.38</ele>
  <time>2026-08-27T18:29:10Z</time>
  <course>54.55</course>
  <speed>0.05</speed>
  <fix>3d</fix>
</trkpt>
<trkpt lat="40.0728037" lon="-105.2306352">
  <ele>1595.47</ele>
  <time>2026-08-27T18:29:10Z</time>
  <course>14.21</course>
  <speed>0.03</speed>
  <fix>3d</fix>
</trkpt>
<trkpt lat="40.0728035" lon="-105.230635">
  <ele>1595.37</ele>
  <time>2026-08-27T18:29:10Z</time>
  <course>46.53</course>
  <speed>0.03</speed>
  <fix>3d</fix>
</trkpt>
<trkpt lat="40.0728037" lon="-105.2306351">
  <ele>1595.47</ele>
  <time>2026-08-27T18:29:10Z</time>
  <course>14.26</course>
  <speed>0.02</speed>
  <fix>3d</fix>
</trkpt>
<trkpt lat="40.0728035" lon="-105.2306349">
  <ele>1595.37</ele>
  <time>2026-08-27T18:29:10Z</time>
  <course>59.7</course>
  <speed>0.03</speed>
  <fix>3d</fix>
</trkpt>
<trkpt lat="40.0728037" lon="-105.2306351">
  <ele>1595.46</ele>
  <time>2026-08-27T18:29:10Z</time>
  <course>14.32</course>
  <speed>0.01414213562373095</speed>
  <fix>3d</fix>
</trkpt>
<trkpt lat="40.0728036" lon="-105.2306349">
  <ele>1595.37</ele>
  <time>2026-08-27T18:29:10Z</time>
  <course>78.62</course>
  <speed>0.03</speed>
  <fix>3d</fix>
</trkpt>
<trkpt lat="40.0728037" lon="-105.230635">
  <ele>1595.46</ele>
  <time>2026-08-27T18:29:10Z</time>
  <course>14.28</course>
  <speed>0.01414213562373095</speed>
  <fix>3d</fix>
</trkpt>
<trkpt lat="40.0728036" lon="-105.2306349">
  <ele>1595.37</ele>
  <time>2026-08-27T18:29:10Z</time>
  <course>88.36</course>
  <speed>0.02</speed>
  <fix>3d</fix>
</trkpt>
<trkpt lat="40.0728037" lon="-105.2306349">
  <ele>1595.46</ele>
  <time>2026-08-27T18:29:10Z</time>
  <course>14.17</course>
  <speed>0.01</speed>
  <fix>3d</fix>
</trkpt>
<trkpt lat="40.0728036" lon="-105.2306348">
  <ele>1595.37</ele>
  <time>2026-08-27T18:29:10Z</time>
  <course>101.72</course>
  <speed>0.01</speed>
  <fix>3d</fix>
</trkpt>
<trkpt lat="40.0728036" lon="-105.2306349">
  <ele>1595.46</ele>
  <time>2026-08-27T18:29:10Z</time>
  <course>14.21</course>
  <speed>0.0</speed>
  <fix>3d</fix>
</trkpt>
<trkpt lat="40.0728035" lon="-105.2306347">
  <ele>1595.37</ele>
  <time>2026-08-27T18:29:10Z</time>
  <course>112.13</course>
  <speed>0.02</speed>
  <fix>3d</fix>
</trkpt>
<trkpt lat="40.0728036" lon="-105.2306348">
  <ele>1595.46</ele>
  <time>2026-08-27T18:29:10Z</time>
  <course>14.27</course>
  <speed>0.01</speed>
  <fix>3d</fix>
</trkpt>
<trkpt lat="40.0728035" lon="-105.2306347">
  <ele>1595.37</ele>
  <time>2026-08-27T18:29:10Z</time>
  <course>113.32</course>
  <speed>0.03</speed>
  <fix>3d</fix>
</trkpt>
<trkpt lat="40.0728036" lon="-105.2306348">
  <ele>1595.45</ele>
  <time>2026-08-27T18:29:10Z</time>
  <course>14.26</course>
  <speed>0.01</speed>
  <fix>3d</fix>
</trkpt>
<trkpt lat="40.0728035" lon="-105.2306346">
  <ele>1595.37</ele>
  <time>2026-08-27T18:29:10Z</time>
  <course>116.29</course>
  <speed>0.02</speed>
  <fix>3d</fix>
</trkpt>
<trkpt lat="40.0728036" lon="-105.2306347">
  <ele>1595.45</ele>
  <time>2026-08-27T18:29:10Z</time>
  <course>14.15</course>
  <speed>0.0</speed>
  <fix>3d</fix>
</trkpt>
<trkpt lat="40.0728035" lon="-105.2306346">
  <ele>1595.38</ele>
  <time>2026-08-27T18:29:10Z</time>
  <course>124.84</course>
  <speed>0.02</speed>
  <fix>3d</fix>
</trkpt>
<trkpt lat="40.0728036" lon="-105.2306347">
  <ele>1595.46</ele>
  <time>2026-08-27T18:29:10Z</time>
  <course>14.19</course>
  <speed>0.0</speed>
  <fix>3d</fix>
</trkpt>
<trkpt lat="40.0728035" lon="-105.2306345">
  <ele>1595.38</ele>
  <time>2026-08-27T18:29:10Z</time>
  <course>125.65</course>
  <speed>0.02</speed>
  <fix>3d</fix>
</trkpt>
<trkpt lat="40.0728036" lon="-105.2306346">
  <ele>1595.46</ele>
  <time>2026-08-27T18:29:10Z</time>
  <course>14.26</course>
  <speed>0.01</speed>
  <fix>3d</fix>
</trkpt>
<trkpt lat="40.0728035" lon="-105.2306344">
  <ele>1595.38</ele>
  <time>2026-08-27T18:29:10Z</time>
  <course>121.48</course>
  <speed>0.03</speed>
  <fix>3d</fix>
</trkpt>
<trkpt lat="40.0728036" lon="-105.2306346">
  <ele>1595.46</ele>
  <time>2026-08-27T18:29:10Z</time>
  <course>14.26</course>
  <speed>0.01</speed>
  <fix>3d</fix>
</trkpt>
<trkpt lat="40.0728035" lon="-105.2306344">
  <ele>1595.38</ele>
  <time>2026-08-27T18:29:10Z</time>
  <course>123.02</course>
  <speed>0.03</speed>
  <fix>3d</fix>
</trkpt>
<trkpt lat="40.0728036" lon="-105.2306345">
  <ele>1595.47</ele>
  <time>2026-08-27T18:29:10Z</time>
  <course>14.17</course>
  <speed>0.0</speed>
  <fix>3d</fix>
</trkpt>
<trkpt lat="40.0728035" lon="-105.2306343">
  <ele>1595.39</ele>
  <time>2026-08-27T18:29:10Z</time>
  <course>131.49</course>
  <speed>0.02</speed>
  <fix>3d</fix>
</trkpt>
<trkpt lat="40.0728035" lon="-105.2306345">
  <ele>1595.47</ele>
  <time>2026-08-27T18:29:10Z</time>
  <course>14.21</course>
  <speed>0.0</speed>
  <fix>3d</fix>
</trkpt>
<trkpt lat="40.0728034" lon="-105.2306342">
  <ele>1595.39</ele>
  <time>2026-08-27T18:29:10Z</time>
  <course>130.87</course>
  <speed>0.02</speed>
  <fix>3d</fix>
</trkpt>
<trkpt lat="40.0728035" lon="-105.2306344">
  <ele>1595.47</ele>
  <time>2026-08-27T18:29:10Z</time>
  <course>14.29</course>
  <speed>0.0</speed>
  <fix>3d</fix>
</trkpt>
<trkpt lat="40.0728034" lon="-105.2306342">
  <ele>1595.39</ele>
  <time>2026-08-27T18:29:10Z</time>
  <course>124.84</course>
  <speed>0.03</speed>
  <fix>3d</fix>
</trkpt>
<trkpt lat="40.0728035" lon="-105.2306344">
  <ele>1595.46</ele>
  <time>2026-08-27T18:29:10Z</time>
  <course>14.3</course>
  <speed>0.01</speed>
  <fix>3d</fix>
</trkpt>
<trkpt lat="40.0728034" lon="-105.2306342">
  <ele>1595.39</ele>
  <time>2026-08-27T18:29:10Z</time>
  <course>125.24</course>
  <speed>0.03</speed>
  <fix>3d</fix>
</trkpt>
<trkpt lat="40.0728034" lon="-105.2306343">
  <ele>1595.46</ele>
  <time>2026-08-27T18:29:10Z</time>
  <course>14.13</course>
  <speed>0.022360679774997897</speed>
  <fix>3d</fix>
</trkpt>
<trkpt lat="40.0728033" lon="-105.2306341">
  <ele>1595.4</ele>
  <time>2026-08-27T18:29:10Z</time>
  <course>154.92</course>
  <speed>0.03</speed>
  <fix>3d</fix>
</trkpt>
<trkpt lat="40.0728034" lon="-105.2306343">
  <ele>1595.46</ele>
  <time>2026-08-27T18:29:10Z</time>
  <course>14.11</course>
  <speed>0.02</speed>
  <fix>3d</fix>
</trkpt>
<trkpt lat="40.0728032" lon="-105.230634">
  <ele>1595.4</ele>
  <time>2026-08-27T18:29:10Z</time>
  <course>164.71</course>
  <speed>0.04</speed>
  <fix>3d</fix>
</trkpt>
<trkpt lat="40.0728033" lon="-105.2306342">
  <ele>1595.47</ele>
  <time>2026-08-27T18:29:10Z</time>
  <course>14.06</course>
  <speed>0.01</speed>
  <fix>3d</fix>
</trkpt>
<trkpt lat="40.0728031" lon="-105.230634">
  <ele>1595.4</ele>
  <time>2026-08-27T18:29:10Z</time>
  <course>157.72</course>
  <speed>0.04</speed>
  <fix>3d</fix>
</trkpt>
<trkpt lat="40.0728032" lon="-105.2306342">
  <ele>1595.47</ele>
  <time>2026-08-27T18:29:10Z</time>
  <course>14.07</course>
  <speed>0.0</speed>
  <fix>3d</fix>
</trkpt>
<trkpt lat="40.0728031" lon="-105.230634">
  <ele>1595.4</ele>
  <time>2026-08-27T18:29:10Z</time>
  <course>149.42</course>
  <speed>0.04</speed>
  <fix>3d</fix>
</trkpt>
<trkpt lat="40.0728032" lon="-105.2306341">
  <ele>1595.47</ele>
  <time>2026-08-27T18:29:10Z</time>
  <course>14.09</course>
  <speed>0.01</speed>
  <fix>3d</fix>
</trkpt>
<trkpt lat="40.072803" lon="-105.230634">
  <ele>1595.4</ele>
  <time>2026-08-27T18:29:10Z</time>
  <course>138.69</course>
  <speed>0.03</speed>
  <fix>3d</fix>
</trkpt>
<trkpt lat="40.0728031" lon="-105.2306341">
  <ele>1595.47</ele>
  <time>2026-08-27T18:29:10Z</time>
  <course>14.08</course>
  <speed>0.01</speed>
  <fix>3d</fix>
</trkpt>
<trkpt lat="40.072803" lon="-105.2306339">
  <ele>1595.4</ele>
  <time>2026-08-27T18:29:10Z</time>
  <course>129.74</course>
  <speed>0.03</speed>
  <fix>3d</fix>
</trkpt>
<trkpt lat="40.0728031" lon="-105.230634">
  <ele>1595.48</ele>
  <time>2026-08-27T18:29:10Z</time>
  <course>14.09</course>
  <speed>0.01</speed>
  <fix>3d</fix>
</trkpt>
<trkpt lat="40.072803" lon="-105.2306338">
  <ele>1595.4</ele>
  <time>2026-08-27T18:29:10Z</time>
  <course>120.82</course>
  <speed>0.03</speed>
  <fix>3d</fix>
</trkpt>
<trkpt lat="40.0728031" lon="-105.2306339">
  <ele>1595.48</ele>
  <time>2026-08-27T18:29:10Z</time>
  <course>14.09</course>
  <speed>0.01414213562373095</speed>
  <fix>3d</fix>
</trkpt>
<trkpt lat="40.0728029" lon="-105.2306337">
  <ele>1595.4</ele>
  <time>2026-08-27T18:29:10Z</time>
  <course>112.19</course>
  <speed>0.03</speed>
  <fix>3d</fix>
</trkpt>
<trkpt lat="40.0728031" lon="-105.2306339">
  <ele>1595.47</ele>
  <time>2026-08-27T18:29:10Z</time>
  <course>14.1</course>
  <speed>0.01414213562373095</speed>
  <fix>3d</fix>
</trkpt>
<trkpt lat="40.0728029" lon="-105.2306337">
  <ele>1595.4</ele>
  <time>2026-08-27T18:29:10Z</time>
  <course>104.75</course>
  <speed>0.03</speed>
  <fix>3d</fix>
</trkpt>
<trkpt lat="40.0728031" lon="-105.2306338">
  <ele>1595.47</ele>
  <time>2026-08-27T18:29:10Z</time>
  <course>14.1</course>
  <speed>0.01414213562373095</speed>
  <fix>3d</fix>
</trkpt>
<trkpt lat="40.0728029" lon="-105.2306336">
  <ele>1595.4</ele>
  <time>2026-08-27T18:29:10Z</time>
  <course>99.31</course>
  <speed>0.02</speed>
  <fix>3d</fix>
</trkpt>
<trkpt lat="40.0728031" lon="-105.2306337">
  <ele>1595.47</ele>
  <time>2026-08-27T18:29:10Z</time>
  <course>14.09</course>
  <speed>0.01414213562373095</speed>
  <fix>3d</fix>
</trkpt>
<trkpt lat="40.0728029" lon="-105.2306335">
  <ele>1595.4</ele>
  <time>2026-08-27T18:29:10Z</time>
  <course>95.22</course>
  <speed>0.02</speed>
  <fix>3d</fix>
</trkpt>
<trkpt lat="40.0728031" lon="-105.2306336">
  <ele>1595.47</ele>
  <time>2026-08-27T18:29:10Z</time>
  <course>14.08</course>
  <speed>0.022360679774997897</speed>
  <fix>3d</fix>
</trkpt>
<trkpt lat="40.0728029" lon="-105.2306335">
  <ele>1595.4</ele>
  <time>2026-08-27T18:29:10Z</time>
  <course>91.52</course>
  <speed>0.02</speed>
  <fix>3d</fix>
</trkpt>
<trkpt lat="40.0728031" lon="-105.2306336">
  <ele>1595.47</ele>
  <time>2026-08-27T18:29:10Z</time>
  <course>14.09</course>
  <speed>0.022360679774997897</speed>
  <fix>3d</fix>
</trkpt>
<trkpt lat="40.0728029" lon="-105.2306334">
  <ele>1595.4</ele>
  <time>2026-08-27T18:29:10Z</time>
  <course>88.91</course>
  <speed>0.03</speed>
  <fix>3d</fix>
</trkpt>
<trkpt lat="40.0728031" lon="-105.2306335">
  <ele>1595.47</ele>
  <time>2026-08-27T18:29:10Z</time>
  <course>14.09</course>
  <speed>0.022360679774997897</speed>
  <fix>3d</fix>
</trkpt>
<trkpt lat="40.0728029" lon="-105.2306333">
  <ele>1595.4</ele>
  <time>2026-08-27T18:29:10Z</time>
  <course>87.08</course>
  <speed>0.03</speed>
  <fix>3d</fix>
</trkpt>
<trkpt lat="40.0728031" lon="-105.2306334">
  <ele>1595.47</ele>
  <time>2026-08-27T18:29:10Z</time>
  <course>14.09</course>
  <speed>0.022360679774997897</speed>
  <fix>3d</fix>
</trkpt>
<trkpt lat="40.0728029" lon="-105.2306332">
  <ele>1595.4</ele>
  <time>2026-08-27T18:29:10Z</time>
  <course>85.35</course>
  <speed>0.03</speed>
  <fix>3d</fix>
</trkpt>
<trkpt lat="40.0728031" lon="-105.2306333">
  <ele>1595.48</ele>
  <time>2026-08-27T18:29:10Z</time>
  <course>14.09</course>
  <speed>0.022360679774997897</speed>
  <fix>3d</fix>
</trkpt>
<trkpt lat="40.0728029" lon="-105.2306332">
  <ele>1595.4</ele>
  <time>2026-08-27T18:29:10Z</time>
  <course>83.74</course>
  <speed>0.03</speed>
  <fix>3d</fix>
</trkpt>
<trkpt lat="40.0728031" lon="-105.2306333">
  <ele>1595.47</ele>
  <time>2026-08-27T18:29:10Z</time>
  <course>14.1</course>
  <speed>0.0316227766016838</speed>
  <fix>3d</fix>
</trkpt>
<trkpt lat="40.0728029" lon="-105.2306331">
  <ele>1595.4</ele>
  <time>2026-08-27T18:29:10Z</time>
  <course>78.86</course>
  <speed>0.03</speed>
  <fix>3d</fix>
</trkpt>
<trkpt lat="40.0728031" lon="-105.2306332">
  <ele>1595.47</ele>
  <time>2026-08-27T18:29:10Z</time>
  <course>14.21</course>
  <speed>0.05</speed>
  <fix>3d</fix>
</trkpt>
<trkpt lat="40.0728029" lon="-105.230633">
  <ele>1595.4</ele>
  <time>2026-08-27T18:29:10Z</time>
  <course>64.77</course>
  <speed>0.04</speed>
  <fix>3d</fix>
</trkpt>
<trkpt lat="40.0728031" lon="-105.2306331">
  <ele>1595.48</ele>
  <time>2026-08-27T18:29:10Z</time>
  <course>14.21</course>
  <speed>0.044721359549995794</speed>
  <fix>3d</fix>
</trkpt>
<trkpt lat="40.0728029" lon="-105.2306329">
  <ele>1595.4</ele>
  <time>2026-08-27T18:29:10Z</time>
  <course>52.04</course>
  <speed>0.04</speed>
  <fix>3d</fix>
</trkpt>
<trkpt lat="40.0728031" lon="-105.230633">
  <ele>1595.48</ele>
  <time>2026-08-27T18:29:10Z</time>
  <course>14.2</course>
  <speed>0.03</speed>
  <fix>3d</fix>
</trkpt>
<trkpt lat="40.0728029" lon="-105.2306328">
  <ele>1595.4</ele>
  <time>2026-08-27T18:29:10Z</time>
  <course>47.87</course>
  <speed>0.03</speed>
  <fix>3d</fix>
</trkpt>
<trkpt lat="40.0728031" lon="-105.2306329">
  <ele>1595.48</ele>
  <time>2026-08-27T18:29:10Z</time>
  <course>14.3</course>
  <speed>0.02</speed>
  <fix>3d</fix>
</trkpt>
<trkpt lat="40.072803" lon="-105.2306328">
  <ele>1595.4</ele>
  <time>2026-08-27T18:29:10Z</time>
  <course>63.51</course>
  <speed>0.03</speed>
  <fix>3d</fix>
</trkpt>
<trkpt lat="40.0728031" lon="-105.2306329">
  <ele>1595.48</ele>
  <time>2026-08-27T18:29:10Z</time>
  <course>14.34</course>
  <speed>0.01414213562373095</speed>
  <fix>3d</fix>
</trkpt>
<trkpt lat="40.072803" lon="-105.2306327">
  <ele>1595.39</ele>
  <time>2026-08-27T18:29:10Z</time>
  <course>77.64</course>
  <speed>0.03</speed>
  <fix>3d</fix>
</trkpt>
<trkpt lat="40.0728031" lon="-105.2306328">
  <ele>1595.48</ele>
  <time>2026-08-27T18:29:10Z</time>
  <course>14.26</course>
  <speed>0.01</speed>
  <fix>3d</fix>
</trkpt>
<trkpt lat="40.072803" lon="-105.2306327">
  <ele>1595.39</ele>
  <time>2026-08-27T18:29:10Z</time>
  <course>88.08</course>
  <speed>0.02</speed>
  <fix>3d</fix>
</trkpt>
<trkpt lat="40.0728031" lon="-105.2306328">
  <ele>1595.48</ele>
  <time>2026-08-27T18:29:10Z</time>
  <course>14.2</course>
  <speed>0.01</speed>
  <fix>3d</fix>
</trkpt>
<trkpt lat="40.072803" lon="-105.2306326">
  <ele>1595.39</ele>
  <time>2026-08-27T18:29:10Z</time>
  <course>105.58</course>
  <speed>0.02</speed>
  <fix>3d</fix>
</trkpt>
<trkpt lat="40.0728031" lon="-105.2306327">
  <ele>1595.47</ele>
  <time>2026-08-27T18:29:10Z</time>
  <course>14.28</course>
  <speed>0.0</speed>
  <fix>3d</fix>
</trkpt>
<trkpt lat="40.072803" lon="-105.2306325">
  <ele>1595.39</ele>
  <time>2026-08-27T18:29:10Z</time>
  <course>112.29</course>
  <speed>0.02</speed>
  <fix>3d</fix>
</trkpt>
<trkpt lat="40.0728031" lon="-105.2306326">
  <ele>1595.47</ele>
  <time>2026-08-27T18:29:11Z</time>
  <course>14.32</course>
  <speed>0.01</speed>
  <fix>3d</fix>
</trkpt>
<trkpt lat="40.072803" lon="-105.2306325">
  <ele>1595.39</ele>
  <time>2026-08-27T18:29:11Z</time>
  <course>113.1</course>
  <speed>0.03</speed>
  <fix>3d</fix>
</trkpt>
<trkpt lat="40.0728031" lon="-105.2306326">
  <ele>1595.47</ele>
  <time>2026-08-27T18:29:11Z</time>
  <course>14.23</course>
  <speed>0.01</speed>
  <fix>3d</fix>
</trkpt>
<trkpt lat="40.072803" lon="-105.2306324">
  <ele>1595.38</ele>
  <time>2026-08-27T18:29:11Z</time>
  <course>117.82</course>
  <speed>0.02</speed>
  <fix>3d</fix>
</trkpt>
<trkpt lat="40.0728031" lon="-105.2306325">
  <ele>1595.47</ele>
  <time>2026-08-27T18:29:11Z</time>
  <course>14.16</course>
  <speed>0.0</speed>
  <fix>3d</fix>
</trkpt>
<trkpt lat="40.072803" lon="-105.2306323">
  <ele>1595.38</ele>
  <time>2026-08-27T18:29:11Z</time>
  <course>124.58</course>
  <speed>0.02</speed>
  <fix>3d</fix>
</trkpt>
<trkpt lat="40.0728031" lon="-105.2306325">
  <ele>1595.47</ele>
  <time>2026-08-27T18:29:11Z</time>
  <course>14.25</course>
  <speed>0.0</speed>
  <fix>3d</fix>
</trkpt>
<trkpt lat="40.072803" lon="-105.2306323">
  <ele>1595.38</ele>
  <time>2026-08-27T18:29:11Z</time>
  <course>122.21</course>
  <speed>0.03</speed>
  <fix>3d</fix>
</trkpt>
<trkpt lat="40.0728031" lon="-105.2306324">
  <ele>1595.47</ele>
  <time>2026-08-27T18:29:11Z</time>
  <course>14.32</course>
  <speed>0.01</speed>
  <fix>3d</fix>
</trkpt>
<trkpt lat="40.072803" lon="-105.2306323">
  <ele>1595.38</ele>
  <time>2026-08-27T18:29:11Z</time>
  <course>120.19</course>
  <speed>0.03</speed>
  <fix>3d</fix>
</trkpt>
<trkpt lat="40.072803" lon="-105.2306324">
  <ele>1595.47</ele>
  <time>2026-08-27T18:29:11Z</time>
  <course>14.25</course>
  <speed>0.0</speed>
  <fix>3d</fix>
</trkpt>
<trkpt lat="40.0728029" lon="-105.2306322">
  <ele>1595.38</ele>
  <time>2026-08-27T18:29:11Z</time>
  <course>124.58</course>
  <speed>0.02</speed>
  <fix>3d</fix>
</trkpt>
<trkpt lat="40.072803" lon="-105.2306323">
  <ele>1595.46</ele>
  <time>2026-08-27T18:29:11Z</time>
  <course>14.17</course>
  <speed>0.0</speed>
  <fix>3d</fix>
</trkpt>
<trkpt lat="40.0728029" lon="-105.2306321">
  <ele>1595.38</ele>
  <time>2026-08-27T18:29:11Z</time>
  <course>130.99</course>
  <speed>0.02</speed>
  <fix>3d</fix>
</trkpt>
<trkpt lat="40.072803" lon="-105.2306323">
  <ele>1595.46</ele>
  <time>2026-08-27T18:29:11Z</time>
  <course>14.24</course>
  <speed>0.0</speed>
  <fix>3d</fix>
</trkpt>
<trkpt lat="40.0728029" lon="-105.230632">
  <ele>1595.38</ele>
  <time>2026-08-27T18:29:11Z</time>
  <course>126.96</course>
  <speed>0.03</speed>
  <fix>3d</fix>
</trkpt>
<trkpt lat="40.072803" lon="-105.2306322">
  <ele>1595.46</ele>
  <time>2026-08-27T18:29:11Z</time>
  <course>14.29</course>
  <speed>0.01</speed>
  <fix>3d</fix>
</trkpt>
<trkpt lat="40.0728028" lon="-105.230632">
  <ele>1595.38</ele>
  <time>2026-08-27T18:29:11Z</time>
  <course>123.46</course>
  <speed>0.03</speed>
  <fix>3d</fix>
</trkpt>
<trkpt lat="40.072803" lon="-105.2306321">
  <ele>1595.46</ele>
  <time>2026-08-27T18:29:11Z</time>
  <course>14.25</course>
  <speed>0.0</speed>
  <fix>3d</fix>
</trkpt>
<trkpt lat="40.0728028" lon="-105.230632">
  <ele>1595.38</ele>
  <time>2026-08-27T18:29:11Z</time>
  <course>127.61</course>
  <speed>0.02</speed>
  <fix>3d</fix>
</trkpt>
<trkpt lat="40.0728029" lon="-105.2306321">
  <ele>1595.46</ele>
  <time>2026-08-27T18:29:11Z</time>
  <course>14.15</course>
  <speed>0.022360679774997897</speed>
  <fix>3d</fix>
</trkpt>
<trkpt lat="40.0728028" lon="-105.2306319">
  <ele>1595.38</ele>
  <time>2026-08-27T18:29:11Z</time>
  <course>152.62</course>
  <speed>0.03</speed>
  <fix>3d</fix>
</trkpt>
<trkpt lat="40.0728028" lon="-105.2306321">
  <ele>1595.47</ele>
  <time>2026-08-27T18:29:11Z</time>
  <course>14.12</course>
  <speed>0.02</speed>
  <fix>3d</fix>
</trkpt>
<trkpt lat="40.0728027" lon="-105.2306318">
  <ele>1595.38</ele>
  <time>2026-08-27T18:29:11Z</time>
  <course>162.53</course>
  <speed>0.04</speed>
  <fix>3d</fix>
</trkpt>
<trkpt lat="40.0728027" lon="-105.230632">
  <ele>1595.47</ele>
  <time>2026-08-27T18:29:11Z</time>
  <course>14.07</course>
  <speed>0.01</speed>
  <fix>3d</fix>
</trkpt>
<trkpt lat="40.0728026" lon="-105.2306318">
  <ele>1595.38</ele>
  <time>2026-08-27T18:29:11Z</time>
  <course>160.2</course>
  <speed>0.04</speed>
  <fix>3d</fix>
</trkpt>
<trkpt lat="40.0728027" lon="-105.230632">
  <ele>1595.47</ele>
  <time>2026-08-27T18:29:11Z</time>
  <course>14.07</course>
  <speed>0.01</speed>
  <fix>3d</fix>
</trkpt>
<trkpt lat="40.0728025" lon="-105.2306318">
  <ele>1595.38</ele>
  <time>2026-08-27T18:29:11Z</time>
  <course>151.57</course>
  <speed>0.04</speed>
  <fix>3d</fix>
</trkpt>
<trkpt lat="40.0728026" lon="-105.2306319">
  <ele>1595.47</ele>
  <time>2026-08-27T18:29:11Z</time>
  <course>14.08</course>
  <speed>0.01</speed>
  <fix>3d</fix>
</trkpt>
<trkpt lat="40.0728025" lon="-105.2306318">
  <ele>1595.38</ele>
  <time>2026-08-27T18:29:11Z</time>
  <course>140.97</course>
  <speed>0.03</speed>
  <fix>3d</fix>
</trkpt>
<trkpt lat="40.0728026" lon="-105.2306319">
  <ele>1595.47</ele>
  <time>2026-08-27T18:29:11Z</time>
  <course>14.08</course>
  <speed>0.01</speed>
  <fix>3d</fix>
</trkpt>
<trkpt lat="40.0728024" lon="-105.2306317">
  <ele>1595.38</ele>
  <time>2026-08-27T18:29:11Z</time>
  <course>131.98</course>
  <speed>0.03</speed>
  <fix>3d</fix>
</trkpt>
<trkpt lat="40.0728026" lon="-105.2306318">
  <ele>1595.47</ele>
  <time>2026-08-27T18:29:11Z</time>
  <course>14.08</course>
  <speed>0.01</speed>
  <fix>3d</fix>
</trkpt>
<trkpt lat="40.0728024" lon="-105.2306316">
  <ele>1595.38</ele>
  <time>2026-08-27T18:29:11Z</time>
  <course>122.87</course>
  <speed>0.03</speed>
  <fix>3d</fix>
</trkpt>
<trkpt lat="40.0728025" lon="-105.2306317">
  <ele>1595.47</ele>
  <time>2026-08-27T18:29:11Z</time>
  <course>14.08</course>
  <speed>0.01</speed>
  <fix>3d</fix>
</trkpt>
<trkpt lat="40.0728024" lon="-105.2306316">
  <ele>1595.38</ele>
  <time>2026-08-27T18:29:11Z</time>
  <course>114.34</course>
  <speed>0.02</speed>
  <fix>3d</fix>
</trkpt>
<trkpt lat="40.0728025" lon="-105.2306317">
  <ele>1595.47</ele>
  <time>2026-08-27T18:29:11Z</time>
  <course>14.08</course>
  <speed>0.01414213562373095</speed>
  <fix>3d</fix>
</trkpt>
<trkpt lat="40.0728024" lon="-105.2306315">
  <ele>1595.38</ele>
  <time>2026-08-27T18:29:11Z</time>
  <course>106.1</course>
  <speed>0.02</speed>
  <fix>3d</fix>
</trkpt>
<trkpt lat="40.0728025" lon="-105.2306316">
  <ele>1595.47</ele>
  <time>2026-08-27T18:29:11Z</time>
  <course>14.09</course>
  <speed>0.01414213562373095</speed>
  <fix>3d</fix>
</trkpt>
<trkpt lat="40.0728024" lon="-105.2306315">
  <ele>1595.38</ele>
  <time>2026-08-27T18:29:11Z</time>
  <course>98.08</course>
  <speed>0.02</speed>
  <fix>3d</fix>
</trkpt>
<trkpt lat="40.0728025" lon="-105.2306315">
  <ele>1595.47</ele>
  <time>2026-08-27T18:29:11Z</time>
  <course>14.08</course>
  <speed>0.01414213562373095</speed>
  <fix>3d</fix>
</trkpt>
<trkpt lat="40.0728024" lon="-105.2306314">
  <ele>1595.38</ele>
  <time>2026-08-27T18:29:11Z</time>
  <course>91.36</course>
  <speed>0.02</speed>
  <fix>3d</fix>
</trkpt>
<trkpt lat="40.0728025" lon="-105.2306315">
  <ele>1595.47</ele>
  <time>2026-08-27T18:29:11Z</time>
  <course>14.09</course>
  <speed>0.01414213562373095</speed>
  <fix>3d</fix>
</trkpt>
<trkpt lat="40.0728024" lon="-105.2306313">
  <ele>1595.38</ele>
  <time>2026-08-27T18:29:11Z</time>
  <course>86.28</course>
  <speed>0.02</speed>
  <fix>3d</fix>
</trkpt>
<trkpt lat="40.0728025" lon="-105.2306314">
  <ele>1595.46</ele>
  <time>2026-08-27T18:29:11Z</time>
  <course>14.09</course>
  <speed>0.022360679774997897</speed>
  <fix>3d</fix>
</trkpt>
<trkpt lat="40.0728024" lon="-105.2306313">
  <ele>1595.38</ele>
  <time>2026-08-27T18:29:11Z</time>
  <course>82.21</course>
  <speed>0.02</speed>
  <fix>3d</fix>
</trkpt>
<trkpt lat="40.0728025" lon="-105.2306313">
  <ele>1595.46</ele>
  <time>2026-08-27T18:29:11Z</time>
  <course>14.08</course>
  <speed>0.022360679774997897</speed>
  <fix>3d</fix>
</trkpt>
<trkpt lat="40.0728024" lon="-105.2306312">
  <ele>1595.38</ele>
  <time>2026-08-27T18:29:11Z</time>
  <course>78.66</course>
  <speed>0.02</speed>
  <fix>3d</fix>
</trkpt>
<trkpt lat="40.0728025" lon="-105.2306313">
  <ele>1595.45</ele>
  <time>2026-08-27T18:29:11Z</time>
  <course>14.07</course>
  <speed>0.022360679774997897</speed>
  <fix>3d</fix>
</trkpt>
<trkpt lat="40.0728024" lon="-105.2306311">
  <ele>1595.38</ele>
  <time>2026-08-27T18:29:11Z</time>
  <course>76.49</course>
  <speed>0.02</speed>
  <fix>3d</fix>
</trkpt>
<trkpt lat="40.0728025" lon="-105.2306312">
  <ele>1595.46</ele>
  <time>2026-08-27T18:29:11Z</time>
  <course>14.04</course>
  <speed>0.022360679774997897</speed>
  <fix>3d</fix>
</trkpt>
<trkpt lat="40.0728024" lon="-105.2306311">
  <ele>1595.38</ele>
  <time>2026-08-27T18:29:11Z</time>
  <course>76.11</course>
  <speed>0.02</speed>
  <fix>3d</fix>
</trkpt>
<trkpt lat="40.0728025" lon="-105.2306311">
  <ele>1595.46</ele>
  <time>2026-08-27T18:29:11Z</time>
  <course>14.05</course>
  <speed>0.022360679774997897</speed>
  <fix>3d</fix>
</trkpt>
<trkpt lat="40.0728024" lon="-105.230631">
  <ele>1595.39</ele>
  <time>2026-08-27T18:29:11Z</time>
  <course>75.03</course>
  <speed>0.02</speed>
  <fix>3d</fix>
</trkpt>
<trkpt lat="40.0728025" lon="-105.2306311">
  <ele>1595.46</ele>
  <time>2026-08-27T18:29:11Z</time>
  <course>14.14</course>
  <speed>0.05</speed>
  <fix>3d</fix>
</trkpt>
<trkpt lat="40.0728024" lon="-105.2306309">
  <ele>1595.39</ele>
  <time>2026-08-27T18:29:11Z</time>
  <course>58.2</course>
  <speed>0.03</speed>
  <fix>3d</fix>
</trkpt>
<trkpt lat="40.0728026" lon="-105.230631">
  <ele>1595.46</ele>
  <time>2026-08-27T18:29:11Z</time>
  <course>14.12</course>
  <speed>0.0412310562561766</speed>
  <fix>3d</fix>
</trkpt>
<trkpt lat="40.0728024" lon="-105.2306308">
  <ele>1595.39</ele>
  <time>2026-08-27T18:29:11Z</time>
  <course>43.72</course>
  <speed>0.04</speed>
  <fix>3d</fix>
</trkpt>
<trkpt lat="40.0728026" lon="-105.2306309">
  <ele>1595.47</ele>
  <time>2026-08-27T18:29:11Z</time>
  <course>14.22</course>
  <speed>0.03</speed>
  <fix>3d</fix>
</trkpt>
<trkpt lat="40.0728024" lon="-105.2306308">
  <ele>1595.4</ele>
  <time>2026-08-27T18:29:11Z</time>
  <course>43.54</course>
  <speed>0.04</speed>
  <fix>3d</fix>
</trkpt>
<trkpt lat="40.0728026" lon="-105.2306309">
  <ele>1595.47</ele>
  <time>2026-08-27T18:29:11Z</time>
  <course>14.32</course>
  <speed>0.022360679774997897</speed>
  <fix>3d</fix>
</trkpt>
<trkpt lat="40.0728025" lon="-105.2306307">
  <ele>1595.4</ele>
  <time>2026-08-27T18:29:11Z</time>
  <course>52.15</course>
  <speed>0.03</speed>
  <fix>3d</fix>
</trkpt>
<trkpt lat="40.0728027" lon="-105.2306308">
  <ele>1595.47</ele>
  <time>2026-08-27T18:29:11Z</time>
  <course>14.28</course>
  <speed>0.022360679774997897</speed>
  <fix>3d</fix>
</trkpt>
<trkpt lat="40.0728025" lon="-105.2306306">
  <ele>1595.4</ele>
  <time>2026-08-27T18:29:11Z</time>
  <course>47.67</course>
  <speed>0.02</speed>
  <fix>3d</fix>
</trkpt>
<trkpt lat="40.0728027" lon="-105.2306308">
  <ele>1595.47</ele>
  <time>2026-08-27T18:29:11Z</time>
  <course>14.2</course>
  <speed>0.01</speed>
  <fix>3d</fix>
</trkpt>
<trkpt lat="40.0728025" lon="-105.2306306">
  <ele>1595.4</ele>
  <time>2026-08-27T18:29:11Z</time>
  <course>52.61</course>
  <speed>0.01</speed>
  <fix>3d</fix>
</trkpt>
<trkpt lat="40.0728026" lon="-105.2306307">
  <ele>1595.47</ele>
  <time>2026-08-27T18:29:11Z</time>
  <course>14.3</course>
  <speed>0.0</speed>
  <fix>3d</fix>
</trkpt>
<trkpt lat="40.0728025" lon="-105.2306306">
  <ele>1595.4</ele>
  <time>2026-08-27T18:29:11Z</time>
  <course>85.81</course>
  <speed>0.02</speed>
  <fix>3d</fix>
</trkpt>
<trkpt lat="40.0728026" lon="-105.2306307">
  <ele>1595.47</ele>
  <time>2026-08-27T18:29:11Z</time>
  <course>14.35</course>
  <speed>0.01</speed>
  <fix>3d</fix>
</trkpt>
<trkpt lat="40.0728025" lon="-105.2306306">
  <ele>1595.4</ele>
  <time>2026-08-27T18:29:11Z</time>
  <course>90.79</course>
  <speed>0.02</speed>
  <fix>3d</fix>
</trkpt>
<trkpt lat="40.0728026" lon="-105.2306306">
  <ele>1595.47</ele>
  <time>2026-08-27T18:29:11Z</time>
  <course>14.23</course>
  <speed>0.0</speed>
  <fix>3d</fix>
</trkpt>
<trkpt lat="40.0728025" lon="-105.2306305">
  <ele>1595.41</ele>
  <time>2026-08-27T18:29:11Z</time>
  <course>88.13</course>
  <speed>0.01</speed>
  <fix>3d</fix>
</trkpt>
<trkpt lat="40.0728026" lon="-105.2306306">
  <ele>1595.47</ele>
  <time>2026-08-27T18:29:11Z</time>
  <course>14.22</course>
  <speed>0.0</speed>
  <fix>3d</fix>
</trkpt>
<trkpt lat="40.0728025" lon="-105.2306304">
  <ele>1595.41</ele>
  <time>2026-08-27T18:29:11Z</time>
  <course>99.01</course>
  <speed>0.01</speed>
  <fix>3d</fix>
</trkpt>
<trkpt lat="40.0728026" lon="-105.2306306">
  <ele>1595.46</ele>
  <time>2026-08-27T18:29:11Z</time>
  <course>14.3</course>
  <speed>0.01</speed>
  <fix>3d</fix>
</trkpt>
<trkpt lat="40.0728025" lon="-105.2306304">
  <ele>1595.41</ele>
  <time>2026-08-27T18:29:11Z</time>
  <course>101.15</course>
  <speed>0.02</speed>
  <fix>3d</fix>
</trkpt>
<trkpt lat="40.0728026" lon="-105.2306305">
  <ele>1595.46</ele>
  <time>2026-08-27T18:29:11Z</time>
  <course>14.31</course>
  <speed>0.01</speed>
  <fix>3d</fix>
</trkpt>
<trkpt lat="40.0728025" lon="-105.2306304">
  <ele>1595.41</ele>
  <time>2026-08-27T18:29:11Z</time>
  <course>95.22</course>
  <speed>0.02</speed>
  <fix>3d</fix>
</trkpt>
<trkpt lat="40.0728026" lon="-105.2306305">
  <ele>1595.47</ele>
  <time>2026-08-27T18:29:11Z</time>
  <course>14.17</course>
  <speed>0.0</speed>
  <fix>3d</fix>
</trkpt>
<trkpt lat="40.0728025" lon="-105.2306303">
  <ele>1595.41</ele>
  <time>2026-08-27T18:29:11Z</time>
  <course>91.59</course>
  <speed>0.01</speed>
  <fix>3d</fix>
</trkpt>
<trkpt lat="40.0728026" lon="-105.2306304">
  <ele>1595.47</ele>
  <time>2026-08-27T18:29:11Z</time>
  <course>14.24</course>
  <speed>0.0</speed>
  <fix>3d</fix>
</trkpt>
<trkpt lat="40.0728025" lon="-105.2306303">
  <ele>1595.41</ele>
  <time>2026-08-27T18:29:11Z</time>
  <course>102.05</course>
  <speed>0.01</speed>
  <fix>3d</fix>
</trkpt>
<trkpt lat="40.0728026" lon="-105.2306304">
  <ele>1595.47</ele>
  <time>2026-08-27T18:29:11Z</time>
  <course>14.33</course>
  <speed>0.01</speed>
  <fix>3d</fix>
</trkpt>
<trkpt lat="40.0728025" lon="-105.2306303">
  <ele>1595.41</ele>
  <time>2026-08-27T18:29:11Z</time>
  <course>99.45</course>
  <speed>0.02</speed>
  <fix>3d</fix>
</trkpt>
<trkpt lat="40.0728026" lon="-105.2306304">
  <ele>1595.47</ele>
  <time>2026-08-27T18:29:11Z</time>
  <course>14.28</course>
  <speed>0.0</speed>
  <fix>3d</fix>
</trkpt>
<trkpt lat="40.0728025" lon="-105.2306302">
  <ele>1595.41</ele>
  <time>2026-08-27T18:29:11Z</time>
  <course>90.76</course>
  <speed>0.01</speed>
  <fix>3d</fix>
</trkpt>
<trkpt lat="40.0728026" lon="-105.2306303">
  <ele>1595.47</ele>
  <time>2026-08-27T18:29:11Z</time>
  <course>14.18</course>
  <speed>0.0</speed>
  <fix>3d</fix>
</trkpt>
<trkpt lat="40.0728025" lon="-105.2306301">
  <ele>1595.41</ele>
  <time>2026-08-27T18:29:11Z</time>
  <course>89.36</course>
  <speed>0.0</speed>
  <fix>3d</fix>
</trkpt>
<trkpt lat="40.0728026" lon="-105.2306303">
  <ele>1595.48</ele>
  <time>2026-08-27T18:29:11Z</time>
  <course>14.29</course>
  <speed>0.0</speed>
  <fix>3d</fix>
</trkpt>
<trkpt lat="40.0728025" lon="-105.2306301">
  <ele>1595.41</ele>
  <time>2026-08-27T18:29:11Z</time>
  <course>99.93</course>
  <speed>0.01</speed>
  <fix>3d</fix>
</trkpt>
<trkpt lat="40.0728026" lon="-105.2306303">
  <ele>1595.48</ele>
  <time>2026-08-27T18:29:11Z</time>
  <course>14.36</course>
  <speed>0.01</speed>
  <fix>3d</fix>
</trkpt>
<trkpt lat="40.0728025" lon="-105.2306301">
  <ele>1595.41</ele>
  <time>2026-08-27T18:29:11Z</time>
  <course>95.1</course>
  <speed>0.01</speed>
  <fix>3d</fix>
</trkpt>
<trkpt lat="40.0728026" lon="-105.2306302">
  <ele>1595.48</ele>
  <time>2026-08-27T18:29:11Z</time>
  <course>14.14</course>
  <speed>0.022360679774997897</speed>
  <fix>3d</fix>
</trkpt>
<trkpt lat="40.0728025" lon="-105.2306301">
  <ele>1595.41</ele>
  <time>2026-08-27T18:29:11Z</time>
  <course>159.69</course>
  <speed>0.01</speed>
  <fix>3d</fix>
</trkpt>
<trkpt lat="40.0728025" lon="-105.2306302">
  <ele>1595.48</ele>
  <time>2026-08-27T18:29:11Z</time>
  <course>14.14</course>
  <speed>0.02</speed>
  <fix>3d</fix>
</trkpt>
<trkpt lat="40.0728025" lon="-105.2306301">
  <ele>1595.41</ele>
  <time>2026-08-27T18:29:11Z</time>
  <course>178.95</course>
  <speed>0.02</speed>
  <fix>3d</fix>
</trkpt>
<trkpt lat="40.0728025" lon="-105.2306302">
  <ele>1595.48</ele>
  <time>2026-08-27T18:29:11Z</time>
  <course>14.11</course>
  <speed>0.01</speed>
  <fix>3d</fix>
</trkpt>
<trkpt lat="40.0728025" lon="-105.2306301">
  <ele>1595.41</ele>
  <time>2026-08-27T18:29:11Z</time>
  <course>161.71</course>
  <speed>0.02</speed>
  <fix>3d</fix>
</trkpt>
<trkpt lat="40.0728025" lon="-105.2306302">
  <ele>1595.48</ele>
  <time>2026-08-27T18:29:11Z</time>
  <course>14.09</course>
  <speed>0.0</speed>
  <fix>3d</fix>
</trkpt>
<trkpt lat="40.0728025" lon="-105.2306301">
  <ele>1595.41</ele>
  <time>2026-08-27T18:29:11Z</time>
  <course>145.54</course>
  <speed>0.01</speed>
  <fix>3d</fix>
</trkpt>
<trkpt lat="40.0728025" lon="-105.2306301">
  <ele>1595.47</ele>
  <time>2026-08-27T18:29:11Z</time>
  <course>14.09</course>
  <speed>0.0</speed>
  <fix>3d</fix>
</trkpt>
<trkpt lat="40.0728025" lon="-105.2306301">
  <ele>1595.4</ele>
  <time>2026-08-27T18:29:11Z</time>
  <course>117.81</course>
  <speed>0.01</speed>
  <fix>3d</fix>
</trkpt>
<trkpt lat="40.0728025" lon="-105.2306301">
  <ele>1595.47</ele>
  <time>2026-08-27T18:29:11Z</time>
  <course>14.08</course>
  <speed>0.01414213562373095</speed>
  <fix>3d</fix>
</trkpt>
<trkpt lat="40.0728025" lon="-105.23063">
  <ele>1595.4</ele>
  <time>2026-08-27T18:29:11Z</time>
  <course>89.16</course>
  <speed>0.01</speed>
  <fix>3d</fix>
</trkpt>
<trkpt lat="40.0728025" lon="-105.2306301">
  <ele>1595.47</ele>
  <time>2026-08-27T18:29:11Z</time>
  <course>14.08</course>
  <speed>0.01414213562373095</speed>
  <fix>3d</fix>
</trkpt>
<trkpt lat="40.0728025" lon="-105.2306299">
  <ele>1595.4</ele>
  <time>2026-08-27T18:29:11Z</time>
  <course>67.19</course>
  <speed>0.01</speed>
  <fix>3d</fix>
</trkpt>
<trkpt lat="40.0728025" lon="-105.23063">
  <ele>1595.47</ele>
  <time>2026-08-27T18:29:11Z</time>
  <course>14.08</course>
  <speed>0.022360679774997897</speed>
  <fix>3d</fix>
</trkpt>
<trkpt lat="40.0728025" lon="-105.2306299">
  <ele>1595.4</ele>
  <time>2026-08-27T18:29:11Z</time>
  <course>53.48</course>
  <speed>0.02</speed>
  <fix>3d</fix>
</trkpt>
<trkpt lat="40.0728025" lon="-105.23063">
  <ele>1595.47</ele>
  <time>2026-08-27T18:29:11Z</time>
  <course>14.07</course>
  <speed>0.022360679774997897</speed>
  <fix>3d</fix>
</trkpt>
<trkpt lat="40.0728025" lon="-105.2306299">
  <ele>1595.4</ele>
  <time>2026-08-27T18:29:11Z</time>
  <course>44.73</course>
  <speed>0.02</speed>
  <fix>3d</fix>
</trkpt>
<trkpt lat="40.0728025" lon="-105.2306299">
  <ele>1595.47</ele>
  <time>2026-08-27T18:29:11Z</time>
  <course>14.09</course>
  <speed>0.0316227766016838</speed>
  <fix>3d</fix>
</trkpt>
<trkpt lat="40.0728025" lon="-105.2306299">
  <ele>1595.4</ele>
  <time>2026-08-27T18:29:11Z</time>
  <course>38.37</course>
  <speed>0.02</speed>
  <fix>3d</fix>
</trkpt>
<trkpt lat="40.0728026" lon="-105.2306299">
  <ele>1595.47</ele>
  <time>2026-08-27T18:29:11Z</time>
  <course>14.09</course>
  <speed>0.0316227766016838</speed>
  <fix>3d</fix>
</trkpt>
<trkpt lat="40.0728025" lon="-105.2306298">
  <ele>1595.4</ele>
  <time>2026-08-27T18:29:11Z</time>
  <course>33.65</course>
  <speed>0.03</speed>
  <fix>3d</fix>
</trkpt>
<trkpt lat="40.0728026" lon="-105.2306298">
  <ele>1595.47</ele>
  <time>2026-08-27T18:29:11Z</time>
  <course>14.09</course>
  <speed>0.0316227766016838</speed>
  <fix>3d</fix>
</trkpt>
<trkpt lat="40.0728025" lon="-105.2306297">
  <ele>1595.4</ele>
  <time>2026-08-27T18:29:11Z</time>
  <course>30.39</course>
  <speed>0.03</speed>
  <fix>3d</fix>
</trkpt>
<trkpt lat="40.0728027" lon="-105.2306298">
  <ele>1595.47</ele>
  <time>2026-08-27T18:29:11Z</time>
  <course>14.09</course>
  <speed>0.0316227766016838</speed>
  <fix>3d</fix>
</trkpt>
<trkpt lat="40.0728025" lon="-105.2306297">
  <ele>1595.4</ele>
  <time>2026-08-27T18:29:11Z</time>
  <course>27.86</course>
  <speed>0.03</speed>
  <fix>3d</fix>
</trkpt>
<trkpt lat="40.0728027" lon="-105.2306298">
  <ele>1595.47</ele>
  <time>2026-08-27T18:29:11Z</time>
  <course>14.09</course>
  <speed>0.0412310562561766</speed>
  <fix>3d</fix>
</trkpt>
<trkpt lat="40.0728026" lon="-105.2306297">
  <ele>1595.4</ele>
  <time>2026-08-27T18:29:11Z</time>
  <course>25.74</course>
  <speed>0.04</speed>
  <fix>3d</fix>
</trkpt>
<trkpt lat="40.0728028" lon="-105.2306297">
  <ele>1595.47</ele>
  <time>2026-08-27T18:29:11Z</time>
  <course>14.09</course>
  <speed>0.0412310562561766</speed>
  <fix>3d</fix>
</trkpt>
<trkpt lat="40.0728027" lon="-105.2306296">
  <ele>1595.4</ele>
  <time>2026-08-27T18:29:11Z</time>
  <course>24.12</course>
  <speed>0.04</speed>
  <fix>3d</fix>
</trkpt>
<trkpt lat="40.0728028" lon="-105.2306297">
  <ele>1595.47</ele>
  <time>2026-08-27T18:29:11Z</time>
  <course>14.09</course>
  <speed>0.0412310562561766</speed>
  <fix>3d</fix>
</trkpt>
<trkpt lat="40.0728028" lon="-105.2306296">
  <ele>1595.4</ele>
  <time>2026-08-27T18:29:11Z</time>
  <course>22.67</course>
  <speed>0.04</speed>
  <fix>3d</fix>
</trkpt>
<trkpt lat="40.0728029" lon="-105.2306296">
  <ele>1595.47</ele>
  <time>2026-08-27T18:29:11Z</time>
  <course>14.08</course>
  <speed>0.06082762530298219</speed>
  <fix>3d</fix>
</trkpt>
<trkpt lat="40.0728029" lon="-105.2306296">
  <ele>1595.4</ele>
  <time>2026-08-27T18:29:11Z</time>
  <course>19.75</course>
  <speed>0.05</speed>
  <fix>3d</fix>
</trkpt>
<trkpt lat="40.072803" lon="-105.2306296">
  <ele>1595.48</ele>
  <time>2026-08-27T18:29:11Z</time>
  <course>14.21</course>
  <speed>0.0632455532033676</speed>
  <fix>3d</fix>
</trkpt>
<trkpt lat="40.072803" lon="-105.2306295">
  <ele>1595.4</ele>
  <time>2026-08-27T18:29:11Z</time>
  <course>23.63</course>
  <speed>0.06</speed>
  <fix>3d</fix>
</trkpt>
<trkpt lat="40.0728031" lon="-105.2306295">
  <ele>1595.48</ele>
  <time>2026-08-27T18:29:11Z</time>
  <course>14.29</course>
  <speed>0.0632455532033676</speed>
  <fix>3d</fix>
</trkpt>
<trkpt lat="40.0728031" lon="-105.2306294">
  <ele>1595.4</ele>
  <time>2026-08-27T18:29:11Z</time>
  <course>20.39</course>
  <speed>0.07</speed>
  <fix>3d</fix>
</trkpt>
<trkpt lat="40.0728032" lon="-105.2306295">
  <ele>1595.48</ele>
  <time>2026-08-27T18:29:11Z</time>
  <course>14.22</course>
  <speed>0.05</speed>
  <fix>3d</fix>
</trkpt>
<trkpt lat="40.0728032" lon="-105.2306294">
  <ele>1595.4</ele>
  <time>2026-08-27T18:29:11Z</time>
  <course>9.91</course>
  <speed>0.06</speed>
  <fix>3d</fix>
</trkpt>
<trkpt lat="40.0728033" lon="-105.2306294">
  <ele>1595.48</ele>
  <time>2026-08-27T18:29:11Z</time>
  <course>14.32</course>
  <speed>0.03</speed>
  <fix>3d</fix>
</trkpt>
<trkpt lat="40.0728033" lon="-105.2306294">
  <ele>1595.4</ele>
  <time>2026-08-27T18:29:11Z</time>
  <course>14.41</course>
  <speed>0.04</speed>
  <fix>3d</fix>
</trkpt>
<trkpt lat="40.0728034" lon="-105.2306294">
  <ele>1595.48</ele>
  <time>2026-08-27T18:29:11Z</time>
  <course>14.39</course>
  <speed>0.022360679774997897</speed>
  <fix>3d</fix>
</trkpt>
<trkpt lat="40.0728034" lon="-105.2306294">
  <ele>1595.39</ele>
  <time>2026-08-27T18:29:11Z</time>
  <course>24.08</course>
  <speed>0.03</speed>
  <fix>3d</fix>
</trkpt>
<trkpt lat="40.0728034" lon="-105.2306294">
  <ele>1595.48</ele>
  <time>2026-08-27T18:29:11Z</time>
  <course>14.29</course>
  <speed>0.02</speed>
  <fix>3d</fix>
</trkpt>
<trkpt lat="40.0728034" lon="-105.2306293">
  <ele>1595.39</ele>
  <time>2026-08-27T18:29:11Z</time>
  <course>15.43</course>
  <speed>0.02</speed>
  <fix>3d</fix>
</trkpt>
<trkpt lat="40.0728034" lon="-105.2306294">
  <ele>1595.47</ele>
  <time>2026-08-27T18:29:11Z</time>
  <course>14.23</course>
  <speed>0.01</speed>
  <fix>3d</fix>
</trkpt>
<trkpt lat="40.0728035" lon="-105.2306292">
  <ele>1595.39</ele>
  <time>2026-08-27T18:29:11Z</time>
  <course>13.01</course>
  <speed>0.02</speed>
  <fix>3d</fix>
</trkpt>
<trkpt lat="40.0728035" lon="-105.2306294">
  <ele>1595.47</ele>
  <time>2026-08-27T18:29:11Z</time>
  <course>14.32</course>
  <speed>0.01</speed>
  <fix>3d</fix>
</trkpt>
<trkpt lat="40.0728035" lon="-105.2306292">
  <ele>1595.39</ele>
  <time>2026-08-27T18:29:11Z</time>
  <course>43.94</course>
  <speed>0.02</speed>
  <fix>3d</fix>
</trkpt>
<trkpt lat="40.0728035" lon="-105.2306293">
  <ele>1595.47</ele>
  <time>2026-08-27T18:29:11Z</time>
  <course>14.35</course>
  <speed>0.01</speed>
  <fix>3d</fix>
</trkpt>
<trkpt lat="40.0728035" lon="-105.2306292">
  <ele>1595.38</ele>
  <time>2026-08-27T18:29:11Z</time>
  <course>49.21</course>
  <speed>0.02</speed>
  <fix>3d</fix>
</trkpt>
<trkpt lat="40.0728035" lon="-105.2306293">
  <ele>1595.47</ele>
  <time>2026-08-27T18:29:11Z</time>
  <course>14.22</course>
  <speed>0.01</speed>
  <fix>3d</fix>
</trkpt>
<trkpt lat="40.0728036" lon="-105.2306292">
  <ele>1595.38</ele>
  <time>2026-08-27T18:29:11Z</time>
  <course>24.18</course>
  <speed>0.01</speed>
  <fix>3d</fix>
</trkpt>
<trkpt lat="40.0728035" lon="-105.2306293">
  <ele>1595.46</ele>
  <time>2026-08-27T18:29:11Z</time>
  <course>14.22</course>
  <speed>0.01</speed>
  <fix>3d</fix>
</trkpt>
<trkpt lat="40.0728036" lon="-105.2306292">
  <ele>1595.38</ele>
  <time>2026-08-27T18:29:11Z</time>
  <course>26.63</course>
  <speed>0.01</speed>
  <fix>3d</fix>
</trkpt>
<trkpt lat="40.0728036" lon="-105.2306292">
  <ele>1595.46</ele>
  <time>2026-08-27T18:29:11Z</time>
  <course>14.32</course>
  <speed>0.01</speed>
  <fix>3d</fix>
</trkpt>
<trkpt lat="40.0728036" lon="-105.2306292">
  <ele>1595.38</ele>
  <time>2026-08-27T18:29:11Z</time>
  <course>56.06</course>
  <speed>0.01</speed>
  <fix>3d</fix>
</trkpt>
<trkpt lat="40.0728036" lon="-105.2306292">
  <ele>1595.46</ele>
  <time>2026-08-27T18:29:11Z</time>
  <course>14.32</course>
  <speed>0.01</speed>
  <fix>3d</fix>
</trkpt>
<trkpt lat="40.0728036" lon="-105.2306292">
  <ele>1595.38</ele>
  <time>2026-08-27T18:29:11Z</time>
  <course>43.2</course>
  <speed>0.01</speed>
  <fix>3d</fix>
</trkpt>
<trkpt lat="40.0728036" lon="-105.2306292">
  <ele>1595.47</ele>
  <time>2026-08-27T18:29:11Z</time>
  <course>14.18</course>
  <speed>0.01</speed>
  <fix>3d</fix>
</trkpt>
<trkpt lat="40.0728036" lon="-105.2306292">
  <ele>1595.38</ele>
  <time>2026-08-27T18:29:11Z</time>
  <course>7.93</course>
  <speed>0.01</speed>
  <fix>3d</fix>
</trkpt>
<trkpt lat="40.0728036" lon="-105.2306292">
  <ele>1595.47</ele>
  <time>2026-08-27T18:29:11Z</time>
  <course>14.26</course>
  <speed>0.0</speed>
  <fix>3d</fix>
</trkpt>
<trkpt lat="40.0728037" lon="-105.2306291">
  <ele>1595.38</ele>
  <time>2026-08-27T18:29:11Z</time>
  <course>29.79</course>
  <speed>0.01</speed>
  <fix>3d</fix>
</trkpt>
<trkpt lat="40.0728036" lon="-105.2306292">
  <ele>1595.47</ele>
  <time>2026-08-27T18:29:11Z</time>
  <course>14.35</course>
  <speed>0.01</speed>
  <fix>3d</fix>
</trkpt>
<trkpt lat="40.0728037" lon="-105.2306291">
  <ele>1595.38</ele>
  <time>2026-08-27T18:29:11Z</time>
  <course>55.0</course>
  <speed>0.01</speed>
  <fix>3d</fix>
</trkpt>
<trkpt lat="40.0728036" lon="-105.2306292">
  <ele>1595.47</ele>
  <time>2026-08-27T18:29:11Z</time>
  <course>14.31</course>
  <speed>0.0</speed>
  <fix>3d</fix>
</trkpt>
<trkpt lat="40.0728037" lon="-105.2306291">
  <ele>1595.38</ele>
  <time>2026-08-27T18:29:11Z</time>
  <course>27.69</course>
  <speed>0.01</speed>
  <fix>3d</fix>
</trkpt>
<trkpt lat="40.0728037" lon="-105.2306292">
  <ele>1595.48</ele>
  <time>2026-08-27T18:29:11Z</time>
  <course>14.21</course>
  <speed>0.01</speed>
  <fix>3d</fix>
</trkpt>
<trkpt lat="40.0728037" lon="-105.2306291">
  <ele>1595.38</ele>
  <time>2026-08-27T18:29:11Z</time>
  <course>358.06</course>
  <speed>0.01</speed>
  <fix>3d</fix>
</trkpt>
<trkpt lat="40.0728037" lon="-105.2306291">
  <ele>1595.48</ele>
  <time>2026-08-27T18:29:11Z</time>
  <course>14.3</course>
  <speed>0.01</speed>
  <fix>3d</fix>
</trkpt>
<trkpt lat="40.0728037" lon="-105.2306291">
  <ele>1595.38</ele>
  <time>2026-08-27T18:29:11Z</time>
  <course>52.63</course>
  <speed>0.0</speed>
  <fix>3d</fix>
</trkpt>
<trkpt lat="40.0728037" lon="-105.2306292">
  <ele>1595.47</ele>
  <time>2026-08-27T18:29:11Z</time>
  <course>14.14</course>
  <speed>0.01</speed>
  <fix>3d</fix>
</trkpt>
<trkpt lat="40.0728037" lon="-105.2306291">
  <ele>1595.38</ele>
  <time>2026-08-27T18:29:11Z</time>
  <course>180.72</course>
  <speed>0.0</speed>
  <fix>3d</fix>
</trkpt>
<trkpt lat="40.0728037" lon="-105.2306292">
  <ele>1595.48</ele>
  <time>2026-08-27T18:29:11Z</time>
  <course>14.09</course>
  <speed>0.01</speed>
  <fix>3d</fix>
</trkpt>
<trkpt lat="40.0728037" lon="-105.2306291">
  <ele>1595.38</ele>
  <time>2026-08-27T18:29:11Z</time>
  <course>202.47</course>
  <speed>0.01</speed>
  <fix>3d</fix>
</trkpt>
<trkpt lat="40.0728037" lon="-105.2306292">
  <ele>1595.48</ele>
  <time>2026-08-27T18:29:11Z</time>
  <course>14.08</course>
  <speed>0.0</speed>
  <fix>3d</fix>
</trkpt>
<trkpt lat="40.0728037" lon="-105.2306291">
  <ele>1595.38</ele>
  <time>2026-08-27T18:29:11Z</time>
  <course>165.71</course>
  <speed>0.0</speed>
  <fix>3d</fix>
</trkpt>
<trkpt lat="40.0728037" lon="-105.2306291">
  <ele>1595.48</ele>
  <time>2026-08-27T18:29:11Z</time>
  <course>14.07</course>
  <speed>0.0</speed>
  <fix>3d</fix>
</trkpt>
<trkpt lat="40.0728037" lon="-105.2306291">
  <ele>1595.37</ele>
  <time>2026-08-27T18:29:11Z</time>
  <course>82.67</course>
  <speed>0.0</speed>
  <fix>3d</fix>
</trkpt>
<trkpt lat="40.0728037" lon="-105.2306291">
  <ele>1595.48</ele>
  <time>2026-08-27T18:29:11Z</time>
  <course>14.09</course>
  <speed>0.01</speed>
  <fix>3d</fix>
</trkpt>
<trkpt lat="40.0728037" lon="-105.2306291">
  <ele>1595.37</ele>
  <time>2026-08-27T18:29:11Z</time>
  <course>36.26</course>
  <speed>0.01</speed>
  <fix>3d</fix>
</trkpt>
<trkpt lat="40.0728037" lon="-105.2306291">
  <ele>1595.47</ele>
  <time>2026-08-27T18:29:11Z</time>
  <course>14.1</course>
  <speed>0.01</speed>
  <fix>3d</fix>
</trkpt>
<trkpt lat="40.0728037" lon="-105.2306291">
  <ele>1595.37</ele>
  <time>2026-08-27T18:29:11Z</time>
  <course>23.39</course>
  <speed>0.01</speed>
  <fix>3d</fix>
</trkpt>
<trkpt lat="40.0728037" lon="-105.2306291">
  <ele>1595.46</ele>
  <time>2026-08-27T18:29:11Z</time>
  <course>14.08</course>
  <speed>0.02</speed>
  <fix>3d</fix>
</trkpt>
<trkpt lat="40.0728037" lon="-105.230629">
  <ele>1595.37</ele>
  <time>2026-08-27T18:29:11Z</time>
  <course>18.45</course>
  <speed>0.02</speed>
  <fix>3d</fix>
</trkpt>
<trkpt lat="40.0728038" lon="-105.2306291">
  <ele>1595.46</ele>
  <time>2026-08-27T18:29:11Z</time>
  <course>14.07</course>
  <speed>0.02</speed>
  <fix>3d</fix>
</trkpt>
<trkpt lat="40.0728037" lon="-105.2306289">
  <ele>1595.37</ele>
  <time>2026-08-27T18:29:11Z</time>
  <course>16.11</course>
  <speed>0.03</speed>
  <fix>3d</fix>
</trkpt>
<trkpt lat="40.0728038" lon="-105.230629">
  <ele>1595.46</ele>
  <time>2026-08-27T18:29:11Z</time>
  <course>14.07</course>
  <speed>0.0316227766016838</speed>
  <fix>3d</fix>
</trkpt>
<trkpt lat="40.0728038" lon="-105.2306289">
  <ele>1595.37</ele>
  <time>2026-08-27T18:29:11Z</time>
  <course>14.0</course>
  <speed>0.03</speed>
  <fix>3d</fix>
</trkpt>
<trkpt lat="40.0728039" lon="-105.230629">
  <ele>1595.45</ele>
  <time>2026-08-27T18:29:11Z</time>
  <course>14.07</course>
  <speed>0.0316227766016838</speed>
  <fix>3d</fix>
</trkpt>
<trkpt lat="40.0728039" lon="-105.2306289">
  <ele>1595.37</ele>
  <time>2026-08-27T18:29:11Z</time>
  <course>12.76</course>
  <speed>0.04</speed>
  <fix>3d</fix>
</trkpt>
<trkpt lat="40.0728039" lon="-105.230629">
  <ele>1595.45</ele>
  <time>2026-08-27T18:29:11Z</time>
  <course>14.06</course>
  <speed>0.0316227766016838</speed>
  <fix>3d</fix>
</trkpt>
<trkpt lat="40.072804" lon="-105.2306289">
  <ele>1595.37</ele>
  <time>2026-08-27T18:29:11Z</time>
  <course>11.76</course>
  <speed>0.04</speed>
  <fix>3d</fix>
</trkpt>
<trkpt lat="40.072804" lon="-105.2306289">
  <ele>1595.46</ele>
  <time>2026-08-27T18:29:11Z</time>
  <course>14.05</course>
  <speed>0.0412310562561766</speed>
  <fix>3d</fix>
</trkpt>
<trkpt lat="40.072804" lon="-105.2306289">
  <ele>1595.37</ele>
  <time>2026-08-27T18:29:11Z</time>
  <course>10.56</course>
  <speed>0.04</speed>
  <fix>3d</fix>
</trkpt>
<trkpt lat="40.0728041" lon="-105.2306289">
  <ele>1595.46</ele>
  <time>2026-08-27T18:29:11Z</time>
  <course>14.06</course>
  <speed>0.0412310562561766</speed>
  <fix>3d</fix>
</trkpt>
<trkpt lat="40.0728041" lon="-105.2306289">
  <ele>1595.37</ele>
  <time>2026-08-27T18:29:11Z</time>
  <course>9.95</course>
  <speed>0.04</speed>
  <fix>3d</fix>
</trkpt>
<trkpt lat="40.0728042" lon="-105.2306289">
  <ele>1595.46</ele>
  <time>2026-08-27T18:29:11Z</time>
  <course>14.08</course>
  <speed>0.0412310562561766</speed>
  <fix>3d</fix>
</trkpt>
<trkpt lat="40.0728042" lon="-105.2306289">
  <ele>1595.37</ele>
  <time>2026-08-27T18:29:11Z</time>
  <course>9.39</course>
  <speed>0.05</speed>
  <fix>3d</fix>
</trkpt>
<trkpt lat="40.0728043" lon="-105.2306289">
  <ele>1595.47</ele>
  <time>2026-08-27T18:29:11Z</time>
  <course>14.08</course>
  <speed>0.0412310562561766</speed>
  <fix>3d</fix>
</trkpt>
<trkpt lat="40.0728043" lon="-105.2306289">
  <ele>1595.38</ele>
  <time>2026-08-27T18:29:11Z</time>
  <course>8.46</course>
  <speed>0.05</speed>
  <fix>3d</fix>
</trkpt>
<trkpt lat="40.0728044" lon="-105.2306289">
  <ele>1595.47</ele>
  <time>2026-08-27T18:29:11Z</time>
  <course>14.09</course>
  <speed>0.05099019513592785</speed>
  <fix>3d</fix>
</trkpt>
<trkpt lat="40.0728044" lon="-105.2306289">
  <ele>1595.38</ele>
  <time>2026-08-27T18:29:11Z</time>
  <course>7.78</course>
  <speed>0.05</speed>
  <fix>3d</fix>
</trkpt>
<trkpt lat="40.0728045" lon="-105.2306288">
  <ele>1595.47</ele>
  <time>2026-08-27T18:29:11Z</time>
  <course>14.1</course>
  <speed>0.07280109889280519</speed>
  <fix>3d</fix>
</trkpt>
<trkpt lat="40.0728045" lon="-105.2306288">
  <ele>1595.38</ele>
  <time>2026-08-27T18:29:11Z</time>
  <course>8.68</course>
  <speed>0.07</speed>
  <fix>3d</fix>
</trkpt>
<trkpt lat="40.0728047" lon="-105.2306288">
  <ele>1595.47</ele>
  <time>2026-08-27T18:29:11Z</time>
  <course>14.15</course>
  <speed>0.07</speed>
  <fix>3d</fix>
</trkpt>
<trkpt lat="40.0728047" lon="-105.2306287">
  <ele>1595.38</ele>
  <time>2026-08-27T18:29:11Z</time>
  <course>10.09</course>
  <speed>0.08</speed>
  <fix>3d</fix>
</trkpt>
<trkpt lat="40.0728048" lon="-105.2306288">
  <ele>1595.48</ele>
  <time>2026-08-27T18:29:11Z</time>
  <course>14.32</course>
  <speed>0.05099019513592785</speed>
  <fix>3d</fix>
</trkpt>
<trkpt lat="40.0728048" lon="-105.2306287">
  <ele>1595.38</ele>
  <time>2026-08-27T18:29:11Z</time>
  <course>12.36</course>
  <speed>0.07</speed>
  <fix>3d</fix>
</trkpt>
<trkpt lat="40.0728049" lon="-105.2306288">
  <ele>1595.47</ele>
  <time>2026-08-27T18:29:11Z</time>
  <course>14.33</course>
  <speed>0.05099019513592785</speed>
  <fix>3d</fix>
</trkpt>
<trkpt lat="40.0728049" lon="-105.2306287">
  <ele>1595.38</ele>
  <time>2026-08-27T18:29:11Z</time>
  <course>6.79</course>
  <speed>0.07</speed>
  <fix>3d</fix>
</trkpt>
<trkpt lat="40.072805" lon="-105.2306287">
  <ele>1595.48</ele>
  <time>2026-08-27T18:29:11Z</time>
  <course>14.22</course>
  <speed>0.04</speed>
  <fix>3d</fix>
</trkpt>
<trkpt lat="40.072805" lon="-105.2306287">
  <ele>1595.38</ele>
  <time>2026-08-27T18:29:11Z</time>
  <course>357.41</course>
  <speed>0.05</speed>
  <fix>3d</fix>
</trkpt>
<trkpt lat="40.0728051" lon="-105.2306287">
  <ele>1595.47</ele>
  <time>2026-08-27T18:29:11Z</time>
  <course>14.32</course>
  <speed>0.02</speed>
  <fix>3d</fix>
</trkpt>
<trkpt lat="40.0728051" lon="-105.2306287">
  <ele>1595.38</ele>
  <time>2026-08-27T18:29:11Z</time>
  <course>6.08</course>
  <speed>0.04</speed>
  <fix>3d</fix>
</trkpt>
<trkpt lat="40.0728051" lon="-105.2306287">
  <ele>1595.47</ele>
  <time>2026-08-27T18:29:11Z</time>
  <course>14.38</course>
  <speed>0.022360679774997897</speed>
  <fix>3d</fix>
</trkpt>
<trkpt lat="40.0728052" lon="-105.2306287">
  <ele>1595.38</ele>
  <time>2026-08-27T18:29:11Z</time>
  <course>13.48</course>
  <speed>0.04</speed>
  <fix>3d</fix>
</trkpt>
<trkpt lat="40.0728052" lon="-105.2306287">
  <ele>1595.46</ele>
  <time>2026-08-27T18:29:11Z</time>
  <course>14.22</course>
  <speed>0.02</speed>
  <fix>3d</fix>
</trkpt>
<trkpt lat="40.0728053" lon="-105.2306287">
  <ele>1595.38</ele>
  <time>2026-08-27T18:29:11Z</time>
  <course>0.42</course>
  <speed>0.03</speed>
  <fix>3d</fix>
</trkpt>
<trkpt lat="40.0728052" lon="-105.2306287">
  <ele>1595.46</ele>
  <time>2026-08-27T18:29:11Z</time>
  <course>14.26</course>
  <speed>0.01</speed>
  <fix>3d</fix>
</trkpt>
<trkpt lat="40.0728054" lon="-105.2306287">
  <ele>1595.38</ele>
  <time>2026-08-27T18:29:11Z</time>
  <course>4.58</course>
  <speed>0.02</speed>
  <fix>3d</fix>
</trkpt>
<trkpt lat="40.0728053" lon="-105.2306287">
  <ele>1595.46</ele>
  <time>2026-08-27T18:29:11Z</time>
  <course>14.35</course>
  <speed>0.01414213562373095</speed>
  <fix>3d</fix>
</trkpt>
<trkpt lat="40.0728054" lon="-105.2306287">
  <ele>1595.38</ele>
  <time>2026-08-27T18:29:11Z</time>
  <course>23.68</course>
  <speed>0.02</speed>
  <fix>3d</fix>
</trkpt>
<trkpt lat="40.0728054" lon="-105.2306287">
  <ele>1595.46</ele>
  <time>2026-08-27T18:29:11Z</time>
  <course>14.26</course>
  <speed>0.02</speed>
  <fix>3d</fix>
</trkpt>
<trkpt lat="40.0728055" lon="-105.2306287">
  <ele>1595.38</ele>
  <time>2026-08-27T18:29:11Z</time>
  <course>9.21</course>
  <speed>0.02</speed>
  <fix>3d</fix>
</trkpt>
<trkpt lat="40.0728054" lon="-105.2306287">
  <ele>1595.47</ele>
  <time>2026-08-27T18:29:11Z</time>
  <course>14.2</course>
  <speed>0.02</speed>
  <fix>3d</fix>
</trkpt>
<trkpt lat="40.0728055" lon="-105.2306287">
  <ele>1595.38</ele>
  <time>2026-08-27T18:29:11Z</time>
  <course>356.26</course>
  <speed>0.02</speed>
  <fix>3d</fix>
</trkpt>
<trkpt lat="40.0728055" lon="-105.2306287">
  <ele>1595.46</ele>
  <time>2026-08-27T18:29:11Z</time>
  <course>14.32</course>
  <speed>0.01</speed>
  <fix>3d</fix>
</trkpt>
<trkpt lat="40.0728055" lon="-105.2306287">
  <ele>1595.38</ele>
  <time>2026-08-27T18:29:11Z</time>
  <course>17.32</course>
  <speed>0.02</speed>
  <fix>3d</fix>
</trkpt>
<trkpt lat="40.0728055" lon="-105.2306287">
  <ele>1595.46</ele>
  <time>2026-08-27T18:29:11Z</time>
  <course>14.35</course>
  <speed>0.01414213562373095</speed>
  <fix>3d</fix>
</trkpt>
<trkpt lat="40.0728055" lon="-105.2306287">
  <ele>1595.38</ele>
  <time>2026-08-27T18:29:11Z</time>
  <course>15.84</course>
  <speed>0.02</speed>
  <fix>3d</fix>
</trkpt>
<trkpt lat="40.0728055" lon="-105.2306287">
  <ele>1595.46</ele>
  <time>2026-08-27T18:29:11Z</time>
  <course>14.19</course>
  <speed>0.01</speed>
  <fix>3d</fix>
</trkpt>
<trkpt lat="40.0728056" lon="-105.2306286">
  <ele>1595.38</ele>
  <time>2026-08-27T18:29:11Z</time>
  <course>353.34</course>
  <speed>0.02</speed>
  <fix>3d</fix>
</trkpt>
<trkpt lat="40.0728056" lon="-105.2306287">
  <ele>1595.46</ele>
  <time>2026-08-27T18:29:11Z</time>
  <course>14.27</course>
  <speed>0.01</speed>
  <fix>3d</fix>
</trkpt>
<trkpt lat="40.0728056" lon="-105.2306285">
  <ele>1595.38</ele>
  <time>2026-08-27T18:29:11Z</time>
  <course>2.77</course>
  <speed>0.02</speed>
  <fix>3d</fix>
</trkpt>
<trkpt lat="40.0728056" lon="-105.2306287">
  <ele>1595.46</ele>
  <time>2026-08-27T18:29:11Z</time>
  <course>14.34</course>
  <speed>0.01414213562373095</speed>
  <fix>3d</fix>
</trkpt>
<trkpt lat="40.0728057" lon="-105.2306285">
  <ele>1595.38</ele>
  <time>2026-08-27T18:29:11Z</time>
  <course>19.58</course>
  <speed>0.02</speed>
  <fix>3d</fix>
</trkpt>
<trkpt lat="40.0728057" lon="-105.2306286">
  <ele>1595.46</ele>
  <time>2026-08-27T18:29:11Z</time>
  <course>14.22</course>
  <speed>0.01</speed>
  <fix>3d</fix>
</trkpt>
<trkpt lat="40.0728058" lon="-105.2306285">
  <ele>1595.39</ele>
  <time>2026-08-27T18:29:11Z</time>
  <course>358.44</course>
  <speed>0.02</speed>
  <fix>3d</fix>
</trkpt>
<trkpt lat="40.0728057" lon="-105.2306286">
  <ele>1595.46</ele>
  <time>2026-08-27T18:29:11Z</time>
  <course>14.21</course>
  <speed>0.01</speed>
  <fix>3d</fix>
</trkpt>
<trkpt lat="40.0728058" lon="-105.2306285">
  <ele>1595.39</ele>
  <time>2026-08-27T18:29:11Z</time>
  <course>350.01</course>
  <speed>0.02</speed>
  <fix>3d</fix>
</trkpt>
<trkpt lat="40.0728057" lon="-105.2306286">
  <ele>1595.47</ele>
  <time>2026-08-27T18:29:11Z</time>
  <course>14.32</course>
  <speed>0.0</speed>
  <fix>3d</fix>
</trkpt>
<trkpt lat="40.0728059" lon="-105.2306285">
  <ele>1595.39</ele>
  <time>2026-08-27T18:29:11Z</time>
  <course>14.37</course>
  <speed>0.02</speed>
  <fix>3d</fix>
</trkpt>
<trkpt lat="40.0728057" lon="-105.2306286">
  <ele>1595.48</ele>
  <time>2026-08-27T18:29:11Z</time>
  <course>14.12</course>
  <speed>0.01414213562373095</speed>
  <fix>3d</fix>
</trkpt>
<trkpt lat="40.0728059" lon="-105.2306285">
  <ele>1595.39</ele>
  <time>2026-08-27T18:29:11Z</time>
  <course>325.17</course>
  <speed>0.0</speed>
  <fix>3d</fix>
</trkpt>
<trkpt lat="40.0728057" lon="-105.2306286">
  <ele>1595.48</ele>
  <time>2026-08-27T18:29:11Z</time>
  <course>14.1</course>
  <speed>0.0</speed>
  <fix>3d</fix>
</trkpt>
<trkpt lat="40.0728059" lon="-105.2306285">
  <ele>1595.4</ele>
  <time>2026-08-27T18:29:11Z</time>
  <course>260.5</course>
  <speed>0.01</speed>
  <fix>3d</fix>
</trkpt>
<trkpt lat="40.0728058" lon="-105.2306286">
  <ele>1595.49</ele>
  <time>2026-08-27T18:29:11Z</time>
  <course>14.1</course>
  <speed>0.0</speed>
  <fix>3d</fix>
</trkpt>
<trkpt lat="40.0728059" lon="-105.2306285">
  <ele>1595.4</ele>
  <time>2026-08-27T18:29:11Z</time>
  <course>323.11</course>
  <speed>0.0</speed>
  <fix>3d</fix>
</trkpt>
<trkpt lat="40.0728058" lon="-105.2306286">
  <ele>1595.49</ele>
  <time>2026-08-27T18:29:11Z</time>
  <course>14.08</course>
  <speed>0.01</speed>
  <fix>3d</fix>
</trkpt>
<trkpt lat="40.0728059" lon="-105.2306285">
  <ele>1595.39</ele>
  <time>2026-08-27T18:29:11Z</time>
  <course>358.11</course>
  <speed>0.01</speed>
  <fix>3d</fix>
</trkpt>
<trkpt lat="40.0728059" lon="-105.2306286">
  <ele>1595.48</ele>
  <time>2026-08-27T18:29:11Z</time>
  <course>14.09</course>
  <speed>0.022360679774997897</speed>
  <fix>3d</fix>
</trkpt>
<trkpt lat="40.0728059" lon="-105.2306285">
  <ele>1595.39</ele>
  <time>2026-08-27T18:29:11Z</time>
  <course>4.2</course>
  <speed>0.02</speed>
  <fix>3d</fix>
</trkpt>
<trkpt lat="40.0728059" lon="-105.2306286">
  <ele>1595.48</ele>
  <time>2026-08-27T18:29:11Z</time>
  <course>14.08</course>
  <speed>0.0316227766016838</speed>
  <fix>3d</fix>
</trkpt>
<trkpt lat="40.072806" lon="-105.2306285">
  <ele>1595.39</ele>
  <time>2026-08-27T18:29:11Z</time>
  <course>4.63</course>
  <speed>0.03</speed>
  <fix>3d</fix>
</trkpt>
<trkpt lat="40.072806" lon="-105.2306285">
  <ele>1595.48</ele>
  <time>2026-08-27T18:29:12Z</time>
  <course>14.08</course>
  <speed>0.0316227766016838</speed>
  <fix>3d</fix>
</trkpt>
<trkpt lat="40.0728061" lon="-105.2306285">
  <ele>1595.38</ele>
  <time>2026-08-27T18:29:12Z</time>
  <course>4.16</course>
  <speed>0.04</speed>
  <fix>3d</fix>
</trkpt>
<trkpt lat="40.0728061" lon="-105.2306285">
  <ele>1595.48</ele>
  <time>2026-08-27T18:29:12Z</time>
  <course>14.1</course>
  <speed>0.0412310562561766</speed>
  <fix>3d</fix>
</trkpt>
<trkpt lat="40.0728061" lon="-105.2306285">
  <ele>1595.38</ele>
  <time>2026-08-27T18:29:12Z</time>
  <course>4.09</course>
  <speed>0.04</speed>
  <fix>3d</fix>
</trkpt>
<trkpt lat="40.0728062" lon="-105.2306285">
  <ele>1595.48</ele>
  <time>2026-08-27T18:29:12Z</time>
  <course>14.1</course>
  <speed>0.0412310562561766</speed>
  <fix>3d</fix>
</trkpt>
<trkpt lat="40.0728062" lon="-105.2306285">
  <ele>1595.38</ele>
  <time>2026-08-27T18:29:12Z</time>
  <course>3.97</course>
  <speed>0.05</speed>
  <fix>3d</fix>
</trkpt>
<trkpt lat="40.0728063" lon="-105.2306285">
  <ele>1595.48</ele>
  <time>2026-08-27T18:29:12Z</time>
  <course>14.08</course>
  <speed>0.05099019513592785</speed>
  <fix>3d</fix>
</trkpt>
<trkpt lat="40.0728063" lon="-105.2306285">
  <ele>1595.38</ele>
  <time>2026-08-27T18:29:12Z</time>
  <course>4.16</course>
  <speed>0.06</speed>
  <fix>3d</fix>
</trkpt>
<trkpt lat="40.0728064" lon="-105.2306285">
  <ele>1595.47</ele>
  <time>2026-08-27T18:29:12Z</time>
  <course>14.08</course>
  <speed>0.05099019513592785</speed>
  <fix>3d</fix>
</trkpt>
<trkpt lat="40.0728064" lon="-105.2306285">
  <ele>1595.37</ele>
  <time>2026-08-27T18:29:12Z</time>
  <course>4.57</course>
  <speed>0.06</speed>
  <fix>3d</fix>
</trkpt>
<trkpt lat="40.0728065" lon="-105.2306285">
  <ele>1595.47</ele>
  <time>2026-08-27T18:29:12Z</time>
  <course>14.1</course>
  <speed>0.05099019513592785</speed>
  <fix>3d</fix>
</trkpt>
<trkpt lat="40.0728066" lon="-105.2306285">
  <ele>1595.37</ele>
  <time>2026-08-27T18:29:12Z</time>
  <course>4.66</course>
  <speed>0.06</speed>
  <fix>3d</fix>
</trkpt>
<trkpt lat="40.0728066" lon="-105.2306285">
  <ele>1595.47</ele>
  <time>2026-08-27T18:29:12Z</time>
  <course>14.09</course>
  <speed>0.06082762530298219</speed>
  <fix>3d</fix>
</trkpt>
<trkpt lat="40.0728067" lon="-105.2306285">
  <ele>1595.37</ele>
  <time>2026-08-27T18:29:12Z</time>
  <course>4.68</course>
  <speed>0.07</speed>
  <fix>3d</fix>
</trkpt>
<trkpt lat="40.0728068" lon="-105.2306284">
  <ele>1595.47</ele>
  <time>2026-08-27T18:29:12Z</time>
  <course>14.08</course>
  <speed>0.06082762530298219</speed>
  <fix>3d</fix>
</trkpt>
<trkpt lat="40.0728068" lon="-105.2306285">
  <ele>1595.37</ele>
  <time>2026-08-27T18:29:12Z</time>
  <course>4.5</course>
  <speed>0.07</speed>
  <fix>3d</fix>
</trkpt>
<trkpt lat="40.0728069" lon="-105.2306284">
  <ele>1595.47</ele>
  <time>2026-08-27T18:29:12Z</time>
  <course>14.09</course>
  <speed>0.06082762530298219</speed>
  <fix>3d</fix>
</trkpt>
<trkpt lat="40.072807" lon="-105.2306285">
  <ele>1595.37</ele>
  <time>2026-08-27T18:29:12Z</time>
  <course>4.19</course>
  <speed>0.07</speed>
  <fix>3d</fix>
</trkpt>
<trkpt lat="40.0728071" lon="-105.2306284">
  <ele>1595.47</ele>
  <time>2026-08-27T18:29:12Z</time>
  <course>14.09</course>
  <speed>0.06082762530298219</speed>
  <fix>3d</fix>
</trkpt>
<trkpt lat="40.0728071" lon="-105.2306285">
  <ele>1595.37</ele>
  <time>2026-08-27T18:29:12Z</time>
  <course>3.96</course>
  <speed>0.07</speed>
  <fix>3d</fix>
</trkpt>
<trkpt lat="40.0728072" lon="-105.2306284">
  <ele>1595.47</ele>
  <time>2026-08-27T18:29:12Z</time>
  <course>14.08</course>
  <speed>0.09219544457292887</speed>
  <fix>3d</fix>
</trkpt>
<trkpt lat="40.0728072" lon="-105.2306285">
  <ele>1595.37</ele>
  <time>2026-08-27T18:29:12Z</time>
  <course>4.33</course>
  <speed>0.08</speed>
  <fix>3d</fix>
</trkpt>
<trkpt lat="40.0728074" lon="-105.2306284">
  <ele>1595.46</ele>
  <time>2026-08-27T18:29:12Z</time>
  <course>14.18</course>
  <speed>0.08062257748298549</speed>
  <fix>3d</fix>
</trkpt>
<trkpt lat="40.0728074" lon="-105.2306285">
  <ele>1595.36</ele>
  <time>2026-08-27T18:29:12Z</time>
  <course>8.47</course>
  <speed>0.1</speed>
  <fix>3d</fix>
</trkpt>
<trkpt lat="40.0728076" lon="-105.2306284">
  <ele>1595.46</ele>
  <time>2026-08-27T18:29:12Z</time>
  <course>14.31</course>
  <speed>0.07280109889280519</speed>
  <fix>3d</fix>
</trkpt>
<trkpt lat="40.0728076" lon="-105.2306285">
  <ele>1595.36</ele>
  <time>2026-08-27T18:29:12Z</time>
  <course>9.34</course>
  <speed>0.09</speed>
  <fix>3d</fix>
</trkpt>
<trkpt lat="40.0728077" lon="-105.2306284">
  <ele>1595.46</ele>
  <time>2026-08-27T18:29:12Z</time>
  <course>14.2</course>
  <speed>0.06</speed>
  <fix>3d</fix>
</trkpt>
<trkpt lat="40.0728078" lon="-105.2306285">
  <ele>1595.36</ele>
  <time>2026-08-27T18:29:12Z</time>
  <course>1.02</course>
  <speed>0.09</speed>
  <fix>3d</fix>
</trkpt>
<trkpt lat="40.0728078" lon="-105.2306284">
  <ele>1595.46</ele>
  <time>2026-08-27T18:29:12Z</time>
  <course>14.21</course>
  <speed>0.05</speed>
  <fix>3d</fix>
</trkpt>
<trkpt lat="40.0728079" lon="-105.2306285">
  <ele>1595.36</ele>
  <time>2026-08-27T18:29:12Z</time>
  <course>357.19</course>
  <speed>0.07</speed>
  <fix>3d</fix>
</trkpt>
<trkpt lat="40.072808" lon="-105.2306284">
  <ele>1595.46</ele>
  <time>2026-08-27T18:29:12Z</time>
  <course>14.32</course>
  <speed>0.03</speed>
  <fix>3d</fix>
</trkpt>
<trkpt lat="40.072808" lon="-105.2306285">
  <ele>1595.36</ele>
  <time>2026-08-27T18:29:12Z</time>
  <course>5.02</course>
  <speed>0.05</speed>
  <fix>3d</fix>
</trkpt>
<trkpt lat="40.072808" lon="-105.2306284">
  <ele>1595.46</ele>
  <time>2026-08-27T18:29:12Z</time>
  <course>14.34</course>
  <speed>0.0316227766016838</speed>
  <fix>3d</fix>
</trkpt>
<trkpt lat="40.0728081" lon="-105.2306285">
  <ele>1595.37</ele>
  <time>2026-08-27T18:29:12Z</time>
  <course>5.22</course>
  <speed>0.05</speed>
  <fix>3d</fix>
</trkpt>
<trkpt lat="40.0728081" lon="-105.2306284">
  <ele>1595.46</ele>
  <time>2026-08-27T18:29:12Z</time>
  <course>14.19</course>
  <speed>0.03</speed>
  <fix>3d</fix>
</trkpt>
<trkpt lat="40.0728082" lon="-105.2306285">
  <ele>1595.37</ele>
  <time>2026-08-27T18:29:12Z</time>
  <course>355.93</course>
  <speed>0.04</speed>
  <fix>3d</fix>
</trkpt>
<trkpt lat="40.0728082" lon="-105.2306284">
  <ele>1595.46</ele>
  <time>2026-08-27T18:29:12Z</time>
  <course>14.25</course>
  <speed>0.02</speed>
  <fix>3d</fix>
</trkpt>
<trkpt lat="40.0728083" lon="-105.2306284">
  <ele>1595.37</ele>
  <time>2026-08-27T18:29:12Z</time>
  <course>1.66</course>
  <speed>0.03</speed>
  <fix>3d</fix>
</trkpt>
<trkpt lat="40.0728083" lon="-105.2306284">
  <ele>1595.46</ele>
  <time>2026-08-27T18:29:12Z</time>
  <course>14.34</course>
  <speed>0.01414213562373095</speed>
  <fix>3d</fix>
</trkpt>
<trkpt lat="40.0728084" lon="-105.2306284">
  <ele>1595.37</ele>
  <time>2026-08-27T18:29:12Z</time>
  <course>16.08</course>
  <speed>0.03</speed>
  <fix>3d</fix>
</trkpt>
<trkpt lat="40.0728083" lon="-105.2306284">
  <ele>1595.46</ele>
  <time>2026-08-27T18:29:12Z</time>
  <course>14.3</course>
  <speed>0.022360679774997897</speed>
  <fix>3d</fix>
</trkpt>
<trkpt lat="40.0728084" lon="-105.2306284">
  <ele>1595.37</ele>
  <time>2026-08-27T18:29:12Z</time>
  <course>7.44</course>
  <speed>0.03</speed>
  <fix>3d</fix>
</trkpt>
<trkpt lat="40.0728084" lon="-105.2306284">
  <ele>1595.45</ele>
  <time>2026-08-27T18:29:12Z</time>
  <course>14.17</course>
  <speed>0.02</speed>
  <fix>3d</fix>
</trkpt>
<trkpt lat="40.0728085" lon="-105.2306284">
  <ele>1595.37</ele>
  <time>2026-08-27T18:29:12Z</time>
  <course>355.31</course>
  <speed>0.03</speed>
  <fix>3d</fix>
</trkpt>
<trkpt lat="40.0728084" lon="-105.2306284">
  <ele>1595.45</ele>
  <time>2026-08-27T18:29:12Z</time>
  <course>14.26</course>
  <speed>0.01</speed>
  <fix>3d</fix>
</trkpt>
<trkpt lat="40.0728085" lon="-105.2306284">
  <ele>1595.38</ele>
  <time>2026-08-27T18:29:12Z</time>
  <course>6.03</course>
  <speed>0.03</speed>
  <fix>3d</fix>
</trkpt>
<trkpt lat="40.0728085" lon="-105.2306284">
  <ele>1595.45</ele>
  <time>2026-08-27T18:29:12Z</time>
  <course>14.32</course>
  <speed>0.01414213562373095</speed>
  <fix>3d</fix>
</trkpt>
<trkpt lat="40.0728086" lon="-105.2306284">
  <ele>1595.38</ele>
  <time>2026-08-27T18:29:12Z</time>
  <course>14.38</course>
  <speed>0.03</speed>
  <fix>3d</fix>
</trkpt>
<trkpt lat="40.0728086" lon="-105.2306284">
  <ele>1595.46</ele>
  <time>2026-08-27T18:29:12Z</time>
  <course>14.22</course>
  <speed>0.02</speed>
  <fix>3d</fix>
</trkpt>
<trkpt lat="40.0728086" lon="-105.2306284">
  <ele>1595.38</ele>
  <time>2026-08-27T18:29:12Z</time>
  <course>357.97</course>
  <speed>0.03</speed>
  <fix>3d</fix>
</trkpt>
<trkpt lat="40.0728086" lon="-105.2306284">
  <ele>1595.46</ele>
  <time>2026-08-27T18:29:12Z</time>
  <course>14.19</course>
  <speed>0.02</speed>
  <fix>3d</fix>
</trkpt>
<trkpt lat="40.0728087" lon="-105.2306284">
  <ele>1595.38</ele>
  <time>2026-08-27T18:29:12Z</time>
  <course>350.33</course>
  <speed>0.03</speed>
  <fix>3d</fix>
</trkpt>
<trkpt lat="40.0728087" lon="-105.2306284">
  <ele>1595.46</ele>
  <time>2026-08-27T18:29:12Z</time>
  <course>14.3</course>
  <speed>0.01</speed>
  <fix>3d</fix>
</trkpt>
<trkpt lat="40.0728088" lon="-105.2306284">
  <ele>1595.39</ele>
  <time>2026-08-27T18:29:12Z</time>
  <course>6.47</course>
  <speed>0.02</speed>
  <fix>3d</fix>
</trkpt>
<trkpt lat="40.0728087" lon="-105.2306284">
  <ele>1595.46</ele>
  <time>2026-08-27T18:29:12Z</time>
  <course>14.36</course>
  <speed>0.01414213562373095</speed>
  <fix>3d</fix>
</trkpt>
<trkpt lat="40.0728088" lon="-105.2306284">
  <ele>1595.39</ele>
  <time>2026-08-27T18:29:12Z</time>
  <course>7.76</course>
  <speed>0.03</speed>
  <fix>3d</fix>
</trkpt>
<trkpt lat="40.0728088" lon="-105.2306284">
  <ele>1595.46</ele>
  <time>2026-08-27T18:29:12Z</time>
  <course>14.21</course>
  <speed>0.02</speed>
  <fix>3d</fix>
</trkpt>
<trkpt lat="40.0728089" lon="-105.2306284">
  <ele>1595.4</ele>
  <time>2026-08-27T18:29:12Z</time>
  <course>350.19</course>
  <speed>0.03</speed>
  <fix>3d</fix>
</trkpt>
<trkpt lat="40.0728088" lon="-105.2306284">
  <ele>1595.47</ele>
  <time>2026-08-27T18:29:12Z</time>
  <course>14.22</course>
  <speed>0.01</speed>
  <fix>3d</fix>
</trkpt>
<trkpt lat="40.072809" lon="-105.2306284">
  <ele>1595.4</ele>
  <time>2026-08-27T18:29:12Z</time>
  <course>344.34</course>
  <speed>0.02</speed>
  <fix>3d</fix>
</trkpt>
<trkpt lat="40.0728088" lon="-105.2306284">
  <ele>1595.48</ele>
  <time>2026-08-27T18:29:12Z</time>
  <course>14.14</course>
  <speed>0.0</speed>
  <fix>3d</fix>
</trkpt>
<trkpt lat="40.072809" lon="-105.2306284">
  <ele>1595.4</ele>
  <time>2026-08-27T18:29:12Z</time>
  <course>314.99</course>
  <speed>0.01</speed>
  <fix>3d</fix>
</trkpt>
<trkpt lat="40.0728088" lon="-105.2306284">
  <ele>1595.48</ele>
  <time>2026-08-27T18:29:12Z</time>
  <course>14.08</course>
  <speed>0.0</speed>
  <fix>3d</fix>
</trkpt>
<trkpt lat="40.072809" lon="-105.2306284">
  <ele>1595.4</ele>
  <time>2026-08-27T18:29:12Z</time>
  <course>303.3</course>
  <speed>0.01</speed>
  <fix>3d</fix>
</trkpt>
<trkpt lat="40.0728089" lon="-105.2306284">
  <ele>1595.49</ele>
  <time>2026-08-27T18:29:12Z</time>
  <course>14.09</course>
  <speed>0.01</speed>
  <fix>3d</fix>
</trkpt>
<trkpt lat="40.072809" lon="-105.2306284">
  <ele>1595.4</ele>
  <time>2026-08-27T18:29:12Z</time>
  <course>343.88</course>
  <speed>0.01</speed>
  <fix>3d</fix>
</trkpt>
<trkpt lat="40.0728089" lon="-105.2306284">
  <ele>1595.49</ele>
  <time>2026-08-27T18:29:12Z</time>
  <course>14.11</course>
  <speed>0.02</speed>
  <fix>3d</fix>
</trkpt>
<trkpt lat="40.0728091" lon="-105.2306284">
  <ele>1595.4</ele>
  <time>2026-08-27T18:29:12Z</time>
  <course>357.54</course>
  <speed>0.02</speed>
  <fix>3d</fix>
</trkpt>
<trkpt lat="40.072809" lon="-105.2306284">
  <ele>1595.49</ele>
  <time>2026-08-27T18:29:12Z</time>
  <course>14.11</course>
  <speed>0.03</speed>
  <fix>3d</fix>
</trkpt>
<trkpt lat="40.0728091" lon="-105.2306284">
  <ele>1595.4</ele>
  <time>2026-08-27T18:29:12Z</time>
  <course>359.87</course>
  <speed>0.03</speed>
  <fix>3d</fix>
</trkpt>
<trkpt lat="40.0728091" lon="-105.2306284">
  <ele>1595.49</ele>
  <time>2026-08-27T18:29:12Z</time>
  <course>14.09</course>
  <speed>0.0412310562561766</speed>
  <fix>3d</fix>
</trkpt>
<trkpt lat="40.0728092" lon="-105.2306284">
  <ele>1595.39</ele>
  <time>2026-08-27T18:29:12Z</time>
  <course>1.21</course>
  <speed>0.04</speed>
  <fix>3d</fix>
</trkpt>
<trkpt lat="40.0728092" lon="-105.2306284">
  <ele>1595.48</ele>
  <time>2026-08-27T18:29:12Z</time>
  <course>14.13</course>
  <speed>0.0412310562561766</speed>
  <fix>3d</fix>
</trkpt>
<trkpt lat="40.0728093" lon="-105.2306284">
  <ele>1595.39</ele>
  <time>2026-08-27T18:29:12Z</time>
  <course>1.3</course>
  <speed>0.05</speed>
  <fix>3d</fix>
</trkpt>
<trkpt lat="40.0728093" lon="-105.2306284">
  <ele>1595.48</ele>
  <time>2026-08-27T18:29:12Z</time>
  <course>14.09</course>
  <speed>0.05099019513592785</speed>
  <fix>3d</fix>
</trkpt>
<trkpt lat="40.0728094" lon="-105.2306284">
  <ele>1595.39</ele>
  <time>2026-08-27T18:29:12Z</time>
  <course>1.32</course>
  <speed>0.06</speed>
  <fix>3d</fix>
</trkpt>
<trkpt lat="40.0728095" lon="-105.2306284">
  <ele>1595.48</ele>
  <time>2026-08-27T18:29:12Z</time>
  <course>14.08</course>
  <speed>0.05099019513592785</speed>
  <fix>3d</fix>
</trkpt>
<trkpt lat="40.0728095" lon="-105.2306284">
  <ele>1595.38</ele>
  <time>2026-08-27T18:29:12Z</time>
  <course>1.66</course>
  <speed>0.06</speed>
  <fix>3d</fix>
</trkpt>
<trkpt lat="40.0728096" lon="-105.2306284">
  <ele>1595.47</ele>
  <time>2026-08-27T18:29:12Z</time>
  <course>14.08</course>
  <speed>0.06082762530298219</speed>
  <fix>3d</fix>
</trkpt>
<trkpt lat="40.0728096" lon="-105.2306284">
  <ele>1595.38</ele>
  <time>2026-08-27T18:29:12Z</time>
  <course>1.78</course>
  <speed>0.07</speed>
  <fix>3d</fix>
</trkpt>
<trkpt lat="40.0728097" lon="-105.2306284">
  <ele>1595.47</ele>
  <time>2026-08-27T18:29:12Z</time>
  <course>14.09</course>
  <speed>0.06082762530298219</speed>
  <fix>3d</fix>
</trkpt>
<trkpt lat="40.0728098" lon="-105.2306284">
  <ele>1595.38</ele>
  <time>2026-08-27T18:29:12Z</time>
  <course>1.84</course>
  <speed>0.07</speed>
  <fix>3d</fix>
</trkpt>
<trkpt lat="40.0728099" lon="-105.2306284">
  <ele>1595.47</ele>
  <time>2026-08-27T18:29:12Z</time>
  <course>14.08</course>
  <speed>0.06082762530298219</speed>
  <fix>3d</fix>
</trkpt>
<trkpt lat="40.0728099" lon="-105.2306284">
  <ele>1595.38</ele>
  <time>2026-08-27T18:29:12Z</time>
  <course>1.88</course>
  <speed>0.08</speed>
  <fix>3d</fix>
</trkpt>
<trkpt lat="40.07281" lon="-105.2306284">
  <ele>1595.47</ele>
  <time>2026-08-27T18:29:12Z</time>
  <course>14.08</course>
  <speed>0.07071067811865475</speed>
  <fix>3d</fix>
</trkpt>
<trkpt lat="40.0728101" lon="-105.2306284">
  <ele>1595.38</ele>
  <time>2026-08-27T18:29:12Z</time>
  <course>1.84</course>
  <speed>0.08</speed>
  <fix>3d</fix>
</trkpt>
<trkpt lat="40.0728102" lon="-105.2306283">
  <ele>1595.47</ele>
  <time>2026-08-27T18:29:12Z</time>
  <course>14.08</course>
  <speed>0.07071067811865475</speed>
  <fix>3d</fix>
</trkpt>
<trkpt lat="40.0728102" lon="-105.2306284">
  <ele>1595.37</ele>
  <time>2026-08-27T18:29:12Z</time>
  <course>1.79</course>
  <speed>0.08</speed>
  <fix>3d</fix>
</trkpt>
<trkpt lat="40.0728103" lon="-105.2306283">
  <ele>1595.46</ele>
  <time>2026-08-27T18:29:12Z</time>
  <course>14.08</course>
  <speed>0.07071067811865475</speed>
  <fix>3d</fix>
</trkpt>
<trkpt lat="40.0728103" lon="-105.2306284">
  <ele>1595.37</ele>
  <time>2026-08-27T18:29:12Z</time>
  <course>1.54</course>
  <speed>0.09</speed>
  <fix>3d</fix>
</trkpt>
<trkpt lat="40.0728105" lon="-105.2306283">
  <ele>1595.46</ele>
  <time>2026-08-27T18:29:12Z</time>
  <course>14.09</course>
  <speed>0.08062257748298549</speed>
  <fix>3d</fix>
</trkpt>
<trkpt lat="40.0728105" lon="-105.2306284">
  <ele>1595.37</ele>
  <time>2026-08-27T18:29:12Z</time>
  <course>1.16</course>
  <speed>0.09</speed>
  <fix>3d</fix>
</trkpt>
<trkpt lat="40.0728107" lon="-105.2306283">
  <ele>1595.46</ele>
  <time>2026-08-27T18:29:12Z</time>
  <course>14.14</course>
  <speed>0.09219544457292887</speed>
  <fix>3d</fix>
</trkpt>
<trkpt lat="40.0728108" lon="-105.2306284">
  <ele>1595.37</ele>
  <time>2026-08-27T18:29:12Z</time>
  <course>3.39</course>
  <speed>0.1</speed>
  <fix>3d</fix>
</trkpt>
<trkpt lat="40.0728109" lon="-105.2306283">
  <ele>1595.46</ele>
  <time>2026-08-27T18:29:12Z</time>
  <course>14.1</course>
  <speed>0.09</speed>
  <fix>3d</fix>
</trkpt>
<trkpt lat="40.072811" lon="-105.2306284">
  <ele>1595.37</ele>
  <time>2026-08-27T18:29:12Z</time>
  <course>2.98</course>
  <speed>0.11</speed>
  <fix>3d</fix>
</trkpt>
<trkpt lat="40.0728111" lon="-105.2306283">
  <ele>1595.47</ele>
  <time>2026-08-27T18:29:12Z</time>
  <course>14.22</course>
  <speed>0.07</speed>
  <fix>3d</fix>
</trkpt>
<trkpt lat="40.0728111" lon="-105.2306284">
  <ele>1595.37</ele>
  <time>2026-08-27T18:29:12Z</time>
  <course>2.19</course>
  <speed>0.1</speed>
  <fix>3d</fix>
</trkpt>
<trkpt lat="40.0728112" lon="-105.2306283">
  <ele>1595.46</ele>
  <time>2026-08-27T18:29:12Z</time>
  <course>14.32</course>
  <speed>0.05099019513592785</speed>
  <fix>3d</fix>
</trkpt>
<trkpt lat="40.0728113" lon="-105.2306284">
  <ele>1595.38</ele>
  <time>2026-08-27T18:29:12Z</time>
  <course>2.98</course>
  <speed>0.08</speed>
  <fix>3d</fix>
</trkpt>
<trkpt lat="40.0728114" lon="-105.2306283">
  <ele>1595.47</ele>
  <time>2026-08-27T18:29:12Z</time>
  <course>14.28</course>
  <speed>0.04</speed>
  <fix>3d</fix>
</trkpt>
<trkpt lat="40.0728114" lon="-105.2306284">
  <ele>1595.38</ele>
  <time>2026-08-27T18:29:12Z</time>
  <course>357.12</course>
  <speed>0.07</speed>
  <fix>3d</fix>
</trkpt>
<trkpt lat="40.0728115" lon="-105.2306283">
  <ele>1595.47</ele>
  <time>2026-08-27T18:29:12Z</time>
  <course>14.17</course>
  <speed>0.04</speed>
  <fix>3d</fix>
</trkpt>
<trkpt lat="40.0728115" lon="-105.2306284">
  <ele>1595.38</ele>
  <time>2026-08-27T18:29:12Z</time>
  <course>351.99</course>
  <speed>0.06</speed>
  <fix>3d</fix>
</trkpt>
<trkpt lat="40.0728116" lon="-105.2306283">
  <ele>1595.47</ele>
  <time>2026-08-27T18:29:12Z</time>
  <course>14.25</course>
  <speed>0.03</speed>
  <fix>3d</fix>
</trkpt>
<trkpt lat="40.0728116" lon="-105.2306284">
  <ele>1595.38</ele>
  <time>2026-08-27T18:29:12Z</time>
  <course>358.35</course>
  <speed>0.05</speed>
  <fix>3d</fix>
</trkpt>
<trkpt lat="40.0728116" lon="-105.2306283">
  <ele>1595.47</ele>
  <time>2026-08-27T18:29:12Z</time>
  <course>14.32</course>
  <speed>0.022360679774997897</speed>
  <fix>3d</fix>
</trkpt>
<trkpt lat="40.0728117" lon="-105.2306284">
  <ele>1595.38</ele>
  <time>2026-08-27T18:29:12Z</time>
  <course>7.24</course>
  <speed>0.04</speed>
  <fix>3d</fix>
</trkpt>
<trkpt lat="40.0728117" lon="-105.2306283">
  <ele>1595.47</ele>
  <time>2026-08-27T18:29:12Z</time>
  <course>14.3</course>
  <speed>0.022360679774997897</speed>
  <fix>3d</fix>
</trkpt>
<trkpt lat="40.0728118" lon="-105.2306284">
  <ele>1595.38</ele>
  <time>2026-08-27T18:29:12Z</time>
  <course>1.13</course>
  <speed>0.04</speed>
  <fix>3d</fix>
</trkpt>
<trkpt lat="40.0728118" lon="-105.2306283">
  <ele>1595.47</ele>
  <time>2026-08-27T18:29:12Z</time>
  <course>14.18</course>
  <speed>0.02</speed>
  <fix>3d</fix>
</trkpt>
<trkpt lat="40.0728119" lon="-105.2306284">
  <ele>1595.38</ele>
  <time>2026-08-27T18:29:12Z</time>
  <course>352.41</course>
  <speed>0.04</speed>
  <fix>3d</fix>
</trkpt>
<trkpt lat="40.0728118" lon="-105.2306283">
  <ele>1595.47</ele>
  <time>2026-08-27T18:29:12Z</time>
  <course>14.24</course>
  <speed>0.02</speed>
  <fix>3d</fix>
</trkpt>
<trkpt lat="40.072812" lon="-105.2306284">
  <ele>1595.38</ele>
  <time>2026-08-27T18:29:12Z</time>
  <course>359.11</course>
  <speed>0.03</speed>
  <fix>3d</fix>
</trkpt>
<trkpt lat="40.0728119" lon="-105.2306283">
  <ele>1595.47</ele>
  <time>2026-08-27T18:29:12Z</time>
  <course>14.31</course>
  <speed>0.01414213562373095</speed>
  <fix>3d</fix>
</trkpt>
<trkpt lat="40.072812" lon="-105.2306284">
  <ele>1595.38</ele>
  <time>2026-08-27T18:29:12Z</time>
  <course>9.3</course>
  <speed>0.03</speed>
  <fix>3d</fix>
</trkpt>
<trkpt lat="40.072812" lon="-105.2306283">
  <ele>1595.48</ele>
  <time>2026-08-27T18:29:12Z</time>
  <course>14.32</course>
  <speed>0.01414213562373095</speed>
  <fix>3d</fix>
</trkpt>
<trkpt lat="40.0728121" lon="-105.2306284">
  <ele>1595.38</ele>
  <time>2026-08-27T18:29:12Z</time>
  <course>0.94</course>
  <speed>0.03</speed>
  <fix>3d</fix>
</trkpt>
<trkpt lat="40.072812" lon="-105.2306283">
  <ele>1595.48</ele>
  <time>2026-08-27T18:29:12Z</time>
  <course>14.19</course>
  <speed>0.02</speed>
  <fix>3d</fix>
</trkpt>
<trkpt lat="40.0728122" lon="-105.2306284">
  <ele>1595.38</ele>
  <time>2026-08-27T18:29:12Z</time>
  <course>349.06</course>
  <speed>0.03</speed>
  <fix>3d</fix>
</trkpt>
<trkpt lat="40.0728121" lon="-105.2306283">
  <ele>1595.48</ele>
  <time>2026-08-27T18:29:12Z</time>
  <course>14.25</course>
  <speed>0.02</speed>
  <fix>3d</fix>
</trkpt>
<trkpt lat="40.0728122" lon="-105.2306284">
  <ele>1595.38</ele>
  <time>2026-08-27T18:29:12Z</time>
  <course>353.74</course>
  <speed>0.03</speed>
  <fix>3d</fix>
</trkpt>
<trkpt lat="40.0728122" lon="-105.2306283">
  <ele>1595.47</ele>
  <time>2026-08-27T18:29:12Z</time>
  <course>14.33</course>
  <speed>0.01</speed>
  <fix>3d</fix>
</trkpt>
<trkpt lat="40.0728123" lon="-105.2306284">
  <ele>1595.38</ele>
  <time>2026-08-27T18:29:12Z</time>
  <course>5.67</course>
  <speed>0.03</speed>
  <fix>3d</fix>
</trkpt>
<trkpt lat="40.0728122" lon="-105.2306283">
  <ele>1595.47</ele>
  <time>2026-08-27T18:29:12Z</time>
  <course>14.32</course>
  <speed>0.01414213562373095</speed>
  <fix>3d</fix>
</trkpt>
<trkpt lat="40.0728123" lon="-105.2306284">
  <ele>1595.37</ele>
  <time>2026-08-27T18:29:12Z</time>
  <course>359.8</course>
  <speed>0.03</speed>
  <fix>3d</fix>
</trkpt>
<trkpt lat="40.0728123" lon="-105.2306283">
  <ele>1595.47</ele>
  <time>2026-08-27T18:29:12Z</time>
  <course>14.18</course>
  <speed>0.02</speed>
  <fix>3d</fix>
</trkpt>
<trkpt lat="40.0728124" lon="-105.2306284">
  <ele>1595.37</ele>
  <time>2026-08-27T18:29:12Z</time>
  <course>346.96</course>
  <speed>0.03</speed>
  <fix>3d</fix>
</trkpt>
<trkpt lat="40.0728123" lon="-105.2306283">
  <ele>1595.46</ele>
  <time>2026-08-27T18:29:12Z</time>
  <course>14.21</course>
  <speed>0.0</speed>
  <fix>3d</fix>
</trkpt>
<trkpt lat="40.0728125" lon="-105.2306284">
  <ele>1595.37</ele>
  <time>2026-08-27T18:29:12Z</time>
  <course>344.57</course>
  <speed>0.02</speed>
  <fix>3d</fix>
</trkpt>
<trkpt lat="40.0728123" lon="-105.2306284">
  <ele>1595.46</ele>
  <time>2026-08-27T18:29:12Z</time>
  <course>14.12</course>
  <speed>0.0</speed>
  <fix>3d</fix>
</trkpt>
<trkpt lat="40.0728125" lon="-105.2306284">
  <ele>1595.37</ele>
  <time>2026-08-27T18:29:12Z</time>
  <course>321.94</course>
  <speed>0.01</speed>
  <fix>3d</fix>
</trkpt>
<trkpt lat="40.0728124" lon="-105.2306284">
  <ele>1595.46</ele>
  <time>2026-08-27T18:29:12Z</time>
  <course>14.05</course>
  <speed>0.0</speed>
  <fix>3d</fix>
</trkpt>
<trkpt lat="40.0728126" lon="-105.2306284">
  <ele>1595.37</ele>
  <time>2026-08-27T18:29:12Z</time>
  <course>312.26</course>
  <speed>0.01</speed>
  <fix>3d</fix>
</trkpt>
<trkpt lat="40.0728124" lon="-105.2306284">
  <ele>1595.45</ele>
  <time>2026-08-27T18:29:12Z</time>
  <course>14.05</course>
  <speed>0.01</speed>
  <fix>3d</fix>
</trkpt>
<trkpt lat="40.0728126" lon="-105.2306284">
  <ele>1595.38</ele>
  <time>2026-08-27T18:29:12Z</time>
  <course>342.62</course>
  <speed>0.02</speed>
  <fix>3d</fix>
</trkpt>
<trkpt lat="40.0728125" lon="-105.2306284">
  <ele>1595.45</ele>
  <time>2026-08-27T18:29:12Z</time>
  <course>14.04</course>
  <speed>0.02</speed>
  <fix>3d</fix>
</trkpt>
<trkpt lat="40.0728126" lon="-105.2306284">
  <ele>1595.38</ele>
  <time>2026-08-27T18:29:12Z</time>
  <course>354.17</course>
  <speed>0.03</speed>
  <fix>3d</fix>
</trkpt>
<trkpt lat="40.0728126" lon="-105.2306284">
  <ele>1595.45</ele>
  <time>2026-08-27T18:29:12Z</time>
  <course>14.05</course>
  <speed>0.03</speed>
  <fix>3d</fix>
</trkpt>
<trkpt lat="40.0728127" lon="-105.2306284">
  <ele>1595.38</ele>
  <time>2026-08-27T18:29:12Z</time>
  <course>356.61</course>
  <speed>0.04</speed>
  <fix>3d</fix>
</trkpt>
<trkpt lat="40.0728127" lon="-105.2306284">
  <ele>1595.45</ele>
  <time>2026-08-27T18:29:12Z</time>
  <course>14.02</course>
  <speed>0.04</speed>
  <fix>3d</fix>
</trkpt>
<trkpt lat="40.0728128" lon="-105.2306284">
  <ele>1595.38</ele>
  <time>2026-08-27T18:29:12Z</time>
  <course>357.44</course>
  <speed>0.05</speed>
  <fix>3d</fix>
</trkpt>
<trkpt lat="40.0728128" lon="-105.2306284">
  <ele>1595.45</ele>
  <time>2026-08-27T18:29:12Z</time>
  <course>14.02</course>
  <speed>0.04</speed>
  <fix>3d</fix>
</trkpt>
<trkpt lat="40.0728128" lon="-105.2306284">
  <ele>1595.39</ele>
  <time>2026-08-27T18:29:12Z</time>
  <course>357.04</course>
  <speed>0.05</speed>
  <fix>3d</fix>
</trkpt>
<trkpt lat="40.0728129" lon="-105.2306284">
  <ele>1595.46</ele>
  <time>2026-08-27T18:29:12Z</time>
  <course>14.05</course>
  <speed>0.05</speed>
  <fix>3d</fix>
</trkpt>
<trkpt lat="40.0728129" lon="-105.2306284">
  <ele>1595.39</ele>
  <time>2026-08-27T18:29:12Z</time>
  <course>356.88</course>
  <speed>0.06</speed>
  <fix>3d</fix>
</trkpt>
<trkpt lat="40.072813" lon="-105.2306284">
  <ele>1595.46</ele>
  <time>2026-08-27T18:29:12Z</time>
  <course>14.07</course>
  <speed>0.05</speed>
  <fix>3d</fix>
</trkpt>
<trkpt lat="40.0728131" lon="-105.2306285">
  <ele>1595.4</ele>
  <time>2026-08-27T18:29:12Z</time>
  <course>356.9</course>
  <speed>0.06</speed>
  <fix>3d</fix>
</trkpt>
<trkpt lat="40.0728131" lon="-105.2306284">
  <ele>1595.47</ele>
  <time>2026-08-27T18:29:12Z</time>
  <course>14.08</course>
  <speed>0.06</speed>
  <fix>3d</fix>
</trkpt>
<trkpt lat="40.0728132" lon="-105.2306285">
  <ele>1595.4</ele>
  <time>2026-08-27T18:29:12Z</time>
  <course>356.81</course>
  <speed>0.07</speed>
  <fix>3d</fix>
</trkpt>
<trkpt lat="40.0728133" lon="-105.2306284">
  <ele>1595.48</ele>
  <time>2026-08-27T18:29:12Z</time>
  <course>14.08</course>
  <speed>0.06</speed>
  <fix>3d</fix>
</trkpt>
<trkpt lat="40.0728134" lon="-105.2306285">
  <ele>1595.41</ele>
  <time>2026-08-27T18:29:12Z</time>
  <course>356.89</course>
  <speed>0.07</speed>
  <fix>3d</fix>
</trkpt>
<trkpt lat="40.0728134" lon="-105.2306284">
  <ele>1595.48</ele>
  <time>2026-08-27T18:29:12Z</time>
  <course>14.08</course>
  <speed>0.06</speed>
  <fix>3d</fix>
</trkpt>
<trkpt lat="40.0728135" lon="-105.2306285">
  <ele>1595.41</ele>
  <time>2026-08-27T18:29:12Z</time>
  <course>357.01</course>
  <speed>0.08</speed>
  <fix>3d</fix>
</trkpt>
<trkpt lat="40.0728136" lon="-105.2306284">
  <ele>1595.48</ele>
  <time>2026-08-27T18:29:12Z</time>
  <course>14.08</course>
  <speed>0.07</speed>
  <fix>3d</fix>
</trkpt>
<trkpt lat="40.0728137" lon="-105.2306285">
  <ele>1595.41</ele>
  <time>2026-08-27T18:29:12Z</time>
  <course>357.14</course>
  <speed>0.08</speed>
  <fix>3d</fix>
</trkpt>
<trkpt lat="40.0728137" lon="-105.2306284">
  <ele>1595.47</ele>
  <time>2026-08-27T18:29:12Z</time>
  <course>14.09</course>
  <speed>0.07</speed>
  <fix>3d</fix>
</trkpt>
<trkpt lat="40.0728138" lon="-105.2306285">
  <ele>1595.41</ele>
  <time>2026-08-27T18:29:12Z</time>
  <course>357.27</course>
  <speed>0.08</speed>
  <fix>3d</fix>
</trkpt>
<trkpt lat="40.0728139" lon="-105.2306284">
  <ele>1595.47</ele>
  <time>2026-08-27T18:29:12Z</time>
  <course>14.08</course>
  <speed>0.07</speed>
  <fix>3d</fix>
</trkpt>
<trkpt lat="40.0728139" lon="-105.2306285">
  <ele>1595.41</ele>
  <time>2026-08-27T18:29:12Z</time>
  <course>357.53</course>
  <speed>0.09</speed>
  <fix>3d</fix>
</trkpt>
<trkpt lat="40.0728141" lon="-105.2306284">
  <ele>1595.47</ele>
  <time>2026-08-27T18:29:12Z</time>
  <course>14.1</course>
  <speed>0.08062257748298549</speed>
  <fix>3d</fix>
</trkpt>
<trkpt lat="40.0728141" lon="-105.2306285">
  <ele>1595.41</ele>
  <time>2026-08-27T18:29:12Z</time>
  <course>357.81</course>
  <speed>0.09</speed>
  <fix>3d</fix>
</trkpt>
<trkpt lat="40.0728143" lon="-105.2306284">
  <ele>1595.46</ele>
  <time>2026-08-27T18:29:12Z</time>
  <course>14.12</course>
  <speed>0.1019803902718557</speed>
  <fix>3d</fix>
</trkpt>
<trkpt lat="40.0728143" lon="-105.2306285">
  <ele>1595.41</ele>
  <time>2026-08-27T18:29:12Z</time>
  <course>0.23</course>
  <speed>0.1</speed>
  <fix>3d</fix>
</trkpt>
<trkpt lat="40.0728145" lon="-105.2306284">
  <ele>1595.46</ele>
  <time>2026-08-27T18:29:12Z</time>
  <course>14.11</course>
  <speed>0.09</speed>
  <fix>3d</fix>
</trkpt>
<trkpt lat="40.0728145" lon="-105.2306285">
  <ele>1595.41</ele>
  <time>2026-08-27T18:29:12Z</time>
  <course>0.95</course>
  <speed>0.11</speed>
  <fix>3d</fix>
</trkpt>
<trkpt lat="40.0728146" lon="-105.2306284">
  <ele>1595.47</ele>
  <time>2026-08-27T18:29:12Z</time>
  <course>14.27</course>
  <speed>0.07</speed>
  <fix>3d</fix>
</trkpt>
<trkpt lat="40.0728146" lon="-105.2306285">
  <ele>1595.41</ele>
  <time>2026-08-27T18:29:12Z</time>
  <course>1.68</course>
  <speed>0.1</speed>
  <fix>3d</fix>
</trkpt>
<trkpt lat="40.0728148" lon="-105.2306284">
  <ele>1595.47</ele>
  <time>2026-08-27T18:29:12Z</time>
  <course>14.36</course>
  <speed>0.06082762530298219</speed>
  <fix>3d</fix>
</trkpt>
<trkpt lat="40.0728149" lon="-105.2306285">
  <ele>1595.41</ele>
  <time>2026-08-27T18:29:12Z</time>
  <course>0.04</course>
  <speed>0.09</speed>
  <fix>3d</fix>
</trkpt>
<trkpt lat="40.0728149" lon="-105.2306284">
  <ele>1595.47</ele>
  <time>2026-08-27T18:29:12Z</time>
  <course>14.22</course>
  <speed>0.05</speed>
  <fix>3d</fix>
</trkpt>
<trkpt lat="40.0728151" lon="-105.2306285">
  <ele>1595.41</ele>
  <time>2026-08-27T18:29:12Z</time>
  <course>351.72</course>
  <speed>0.08</speed>
  <fix>3d</fix>
</trkpt>
<trkpt lat="40.0728151" lon="-105.2306284">
  <ele>1595.47</ele>
  <time>2026-08-27T18:29:12Z</time>
  <course>14.25</course>
  <speed>0.04</speed>
  <fix>3d</fix>
</trkpt>
<trkpt lat="40.0728152" lon="-105.2306285">
  <ele>1595.41</ele>
  <time>2026-08-27T18:29:12Z</time>
  <course>351.12</course>
  <speed>0.06</speed>
  <fix>3d</fix>
</trkpt>
<trkpt lat="40.0728152" lon="-105.2306284">
  <ele>1595.47</ele>
  <time>2026-08-27T18:29:12Z</time>
  <course>14.35</course>
  <speed>0.0316227766016838</speed>
  <fix>3d</fix>
</trkpt>
<trkpt lat="40.0728153" lon="-105.2306285">
  <ele>1595.41</ele>
  <time>2026-08-27T18:29:12Z</time>
  <course>1.02</course>
  <speed>0.05</speed>
  <fix>3d</fix>
</trkpt>
<trkpt lat="40.0728153" lon="-105.2306284">
  <ele>1595.47</ele>
  <time>2026-08-27T18:29:12Z</time>
  <course>14.34</course>
  <speed>0.0316227766016838</speed>
  <fix>3d</fix>
</trkpt>
<trkpt lat="40.0728154" lon="-105.2306285">
  <ele>1595.41</ele>
  <time>2026-08-27T18:29:12Z</time>
  <course>359.24</course>
  <speed>0.05</speed>
  <fix>3d</fix>
</trkpt>
<trkpt lat="40.0728153" lon="-105.2306284">
  <ele>1595.48</ele>
  <time>2026-08-27T18:29:12Z</time>
  <course>14.21</course>
  <speed>0.03</speed>
  <fix>3d</fix>
</trkpt>
<trkpt lat="40.0728155" lon="-105.2306285">
  <ele>1595.42</ele>
  <time>2026-08-27T18:29:12Z</time>
  <course>349.48</course>
  <speed>0.04</speed>
  <fix>3d</fix>
</trkpt>
<trkpt lat="40.0728154" lon="-105.2306284">
  <ele>1595.48</ele>
  <time>2026-08-27T18:29:12Z</time>
  <course>14.3</course>
  <speed>0.02</speed>
  <fix>3d</fix>
</trkpt>
<trkpt lat="40.0728155" lon="-105.2306285">
  <ele>1595.42</ele>
  <time>2026-08-27T18:29:12Z</time>
  <course>354.29</course>
  <speed>0.04</speed>
  <fix>3d</fix>
</trkpt>
<trkpt lat="40.0728155" lon="-105.2306284">
  <ele>1595.48</ele>
  <time>2026-08-27T18:29:12Z</time>
  <course>14.39</course>
  <speed>0.022360679774997897</speed>
  <fix>3d</fix>
</trkpt>
<trkpt lat="40.0728156" lon="-105.2306285">
  <ele>1595.42</ele>
  <time>2026-08-27T18:29:12Z</time>
  <course>5.03</course>
  <speed>0.04</speed>
  <fix>3d</fix>
</trkpt>
<trkpt lat="40.0728156" lon="-105.2306284">
  <ele>1595.48</ele>
  <time>2026-08-27T18:29:12Z</time>
  <course>14.34</course>
  <speed>0.022360679774997897</speed>
  <fix>3d</fix>
</trkpt>
<trkpt lat="40.0728157" lon="-105.2306285">
  <ele>1595.42</ele>
  <time>2026-08-27T18:29:12Z</time>
  <course>355.71</course>
  <speed>0.04</speed>
  <fix>3d</fix>
</trkpt>
<trkpt lat="40.0728156" lon="-105.2306284">
  <ele>1595.48</ele>
  <time>2026-08-27T18:29:12Z</time>
  <course>14.22</course>
  <speed>0.02</speed>
  <fix>3d</fix>
</trkpt>
<trkpt lat="40.0728158" lon="-105.2306285">
  <ele>1595.42</ele>
  <time>2026-08-27T18:29:12Z</time>
  <course>345.52</course>
  <speed>0.04</speed>
  <fix>3d</fix>
</trkpt>
<trkpt lat="40.0728157" lon="-105.2306284">
  <ele>1595.48</ele>
  <time>2026-08-27T18:29:12Z</time>
  <course>14.32</course>
  <speed>0.02</speed>
  <fix>3d</fix>
</trkpt>
<trkpt lat="40.0728158" lon="-105.2306285">
  <ele>1595.42</ele>
  <time>2026-08-27T18:29:12Z</time>
  <course>354.87</course>
  <speed>0.03</speed>
  <fix>3d</fix>
</trkpt>
<trkpt lat="40.0728158" lon="-105.2306284">
  <ele>1595.48</ele>
  <time>2026-08-27T18:29:12Z</time>
  <course>14.4</course>
  <speed>0.01414213562373095</speed>
  <fix>3d</fix>
</trkpt>
<trkpt lat="40.0728159" lon="-105.2306285">
  <ele>1595.41</ele>
  <time>2026-08-27T18:29:12Z</time>
  <course>2.67</course>
  <speed>0.03</speed>
  <fix>3d</fix>
</trkpt>
<trkpt lat="40.0728158" lon="-105.2306284">
  <ele>1595.49</ele>
  <time>2026-08-27T18:29:12Z</time>
  <course>14.3</course>
  <speed>0.02</speed>
  <fix>3d</fix>
</trkpt>
<trkpt lat="40.0728159" lon="-105.2306285">
  <ele>1595.41</ele>
  <time>2026-08-27T18:29:12Z</time>
  <course>349.43</course>
  <speed>0.04</speed>
  <fix>3d</fix>
</trkpt>
<trkpt lat="40.0728159" lon="-105.2306284">
  <ele>1595.49</ele>
  <time>2026-08-27T18:29:12Z</time>
  <course>14.26</course>
  <speed>0.02</speed>
  <fix>3d</fix>
</trkpt>
<trkpt lat="40.072816" lon="-105.2306286">
  <ele>1595.41</ele>
  <time>2026-08-27T18:29:12Z</time>
  <course>343.05</course>
  <speed>0.03</speed>
  <fix>3d</fix>
</trkpt>
<trkpt lat="40.072816" lon="-105.2306285">
  <ele>1595.49</ele>
  <time>2026-08-27T18:29:12Z</time>
  <course>14.37</course>
  <speed>0.01</speed>
  <fix>3d</fix>
</trkpt>
<trkpt lat="40.0728161" lon="-105.2306287">
  <ele>1595.41</ele>
  <time>2026-08-27T18:29:12Z</time>
  <course>355.59</course>
  <speed>0.03</speed>
  <fix>3d</fix>
</trkpt>
<trkpt lat="40.072816" lon="-105.2306285">
  <ele>1595.49</ele>
  <time>2026-08-27T18:29:12Z</time>
  <course>14.42</course>
  <speed>0.01414213562373095</speed>
  <fix>3d</fix>
</trkpt>
<trkpt lat="40.0728162" lon="-105.2306287">
  <ele>1595.4</ele>
  <time>2026-08-27T18:29:12Z</time>
  <course>358.06</course>
  <speed>0.03</speed>
  <fix>3d</fix>
</trkpt>
<trkpt lat="40.0728161" lon="-105.2306285">
  <ele>1595.48</ele>
  <time>2026-08-27T18:29:12Z</time>
  <course>14.19</course>
  <speed>0.01</speed>
  <fix>3d</fix>
</trkpt>
<trkpt lat="40.0728163" lon="-105.2306287">
  <ele>1595.4</ele>
  <time>2026-08-27T18:29:12Z</time>
  <course>326.11</course>
  <speed>0.02</speed>
  <fix>3d</fix>
</trkpt>
<trkpt lat="40.0728161" lon="-105.2306286">
  <ele>1595.48</ele>
  <time>2026-08-27T18:29:12Z</time>
  <course>14.14</course>
  <speed>0.0</speed>
  <fix>3d</fix>
</trkpt>
<trkpt lat="40.0728163" lon="-105.2306287">
  <ele>1595.4</ele>
  <time>2026-08-27T18:29:12Z</time>
  <course>297.06</course>
  <speed>0.02</speed>
  <fix>3d</fix>
</trkpt>
<trkpt lat="40.0728161" lon="-105.2306286">
  <ele>1595.48</ele>
  <time>2026-08-27T18:29:12Z</time>
  <course>14.08</course>
  <speed>0.0</speed>
  <fix>3d</fix>
</trkpt>
<trkpt lat="40.0728163" lon="-105.2306287">
  <ele>1595.39</ele>
  <time>2026-08-27T18:29:12Z</time>
  <course>324.44</course>
  <speed>0.01</speed>
  <fix>3d</fix>
</trkpt>
<trkpt lat="40.0728162" lon="-105.2306286">
  <ele>1595.47</ele>
  <time>2026-08-27T18:29:12Z</time>
  <course>14.07</course>
  <speed>0.01</speed>
  <fix>3d</fix>
</trkpt>
<trkpt lat="40.0728163" lon="-105.2306287">
  <ele>1595.39</ele>
  <time>2026-08-27T18:29:12Z</time>
  <course>343.92</course>
  <speed>0.02</speed>
  <fix>3d</fix>
</trkpt>
<trkpt lat="40.0728163" lon="-105.2306286">
  <ele>1595.47</ele>
  <time>2026-08-27T18:29:12Z</time>
  <course>14.08</course>
  <speed>0.03</speed>
  <fix>3d</fix>
</trkpt>
<trkpt lat="40.0728164" lon="-105.2306287">
  <ele>1595.39</ele>
  <time>2026-08-27T18:29:12Z</time>
  <course>353.65</course>
  <speed>0.03</speed>
  <fix>3d</fix>
</trkpt>
<trkpt lat="40.0728163" lon="-105.2306286">
  <ele>1595.47</ele>
  <time>2026-08-27T18:29:12Z</time>
  <course>14.06</course>
  <speed>0.04</speed>
  <fix>3d</fix>
</trkpt>
<trkpt lat="40.0728164" lon="-105.2306287">
  <ele>1595.38</ele>
  <time>2026-08-27T18:29:12Z</time>
  <course>355.94</course>
  <speed>0.05</speed>
  <fix>3d</fix>
</trkpt>
<trkpt lat="40.0728165" lon="-105.2306286">
  <ele>1595.47</ele>
  <time>2026-08-27T18:29:12Z</time>
  <course>14.06</course>
  <speed>0.0412310562561766</speed>
  <fix>3d</fix>
</trkpt>
<trkpt lat="40.0728165" lon="-105.2306287">
  <ele>1595.38</ele>
  <time>2026-08-27T18:29:12Z</time>
  <course>357.07</course>
  <speed>0.05</speed>
  <fix>3d</fix>
</trkpt>
<trkpt lat="40.0728166" lon="-105.2306286">
  <ele>1595.47</ele>
  <time>2026-08-27T18:29:12Z</time>
  <course>14.05</course>
  <speed>0.05099019513592785</speed>
  <fix>3d</fix>
</trkpt>
<trkpt lat="40.0728167" lon="-105.2306287">
  <ele>1595.38</ele>
  <time>2026-08-27T18:29:12Z</time>
  <course>357.77</course>
  <speed>0.06</speed>
  <fix>3d</fix>
</trkpt>
<trkpt lat="40.0728167" lon="-105.2306286">
  <ele>1595.47</ele>
  <time>2026-08-27T18:29:12Z</time>
  <course>14.07</course>
  <speed>0.06082762530298219</speed>
  <fix>3d</fix>
</trkpt>
<trkpt lat="40.0728168" lon="-105.2306287">
  <ele>1595.38</ele>
  <time>2026-08-27T18:29:12Z</time>
  <course>358.13</course>
  <speed>0.07</speed>
  <fix>3d</fix>
</trkpt>
<trkpt lat="40.0728169" lon="-105.2306286">
  <ele>1595.47</ele>
  <time>2026-08-27T18:29:12Z</time>
  <course>14.06</course>
  <speed>0.06082762530298219</speed>
  <fix>3d</fix>
</trkpt>
<trkpt lat="40.072817" lon="-105.2306287">
  <ele>1595.38</ele>
  <time>2026-08-27T18:29:12Z</time>
  <course>358.19</course>
  <speed>0.08</speed>
  <fix>3d</fix>
</trkpt>
<trkpt lat="40.072817" lon="-105.2306286">
  <ele>1595.47</ele>
  <time>2026-08-27T18:29:12Z</time>
  <course>14.07</course>
  <speed>0.07071067811865475</speed>
  <fix>3d</fix>
</trkpt>
<trkpt lat="40.0728171" lon="-105.2306288">
  <ele>1595.38</ele>
  <time>2026-08-27T18:29:12Z</time>
  <course>358.08</course>
  <speed>0.08</speed>
  <fix>3d</fix>
</trkpt>
<trkpt lat="40.0728172" lon="-105.2306286">
  <ele>1595.47</ele>
  <time>2026-08-27T18:29:12Z</time>
  <course>14.07</course>
  <speed>0.07</speed>
  <fix>3d</fix>
</trkpt>
<trkpt lat="40.0728172" lon="-105.2306289">
  <ele>1595.38</ele>
  <time>2026-08-27T18:29:12Z</time>
  <course>357.64</course>
  <speed>0.09</speed>
  <fix>3d</fix>
</trkpt>
<trkpt lat="40.0728174" lon="-105.2306286">
  <ele>1595.47</ele>
  <time>2026-08-27T18:29:12Z</time>
  <course>14.06</course>
  <speed>0.08</speed>
  <fix>3d</fix>
</trkpt>
<trkpt lat="40.0728175" lon="-105.2306289">
  <ele>1595.38</ele>
  <time>2026-08-27T18:29:12Z</time>
  <course>357.19</course>
  <speed>0.09</speed>
  <fix>3d</fix>
</trkpt>
<trkpt lat="40.0728176" lon="-105.2306287">
  <ele>1595.47</ele>
  <time>2026-08-27T18:29:12Z</time>
  <course>14.06</course>
  <speed>0.08</speed>
  <fix>3d</fix>
</trkpt>
<trkpt lat="40.0728176" lon="-105.2306289">
  <ele>1595.38</ele>
  <time>2026-08-27T18:29:12Z</time>
  <course>356.98</course>
  <speed>0.1</speed>
  <fix>3d</fix>
</trkpt>
<trkpt lat="40.0728177" lon="-105.2306287">
  <ele>1595.47</ele>
  <time>2026-08-27T18:29:12Z</time>
  <course>14.06</course>
  <speed>0.08</speed>
  <fix>3d</fix>
</trkpt>
<trkpt lat="40.0728177" lon="-105.2306289">
  <ele>1595.38</ele>
  <time>2026-08-27T18:29:12Z</time>
  <course>356.87</course>
  <speed>0.1</speed>
  <fix>3d</fix>
</trkpt>
<trkpt lat="40.0728179" lon="-105.2306287">
  <ele>1595.47</ele>
  <time>2026-08-27T18:29:12Z</time>
  <course>14.07</course>
  <speed>0.08</speed>
  <fix>3d</fix>
</trkpt>
<trkpt lat="40.072818" lon="-105.2306289">
  <ele>1595.38</ele>
  <time>2026-08-27T18:29:12Z</time>
  <course>356.85</course>
  <speed>0.1</speed>
  <fix>3d</fix>
</trkpt>
<trkpt lat="40.0728181" lon="-105.2306287">
  <ele>1595.48</ele>
  <time>2026-08-27T18:29:12Z</time>
  <course>14.07</course>
  <speed>0.11045361017187261</speed>
  <fix>3d</fix>
</trkpt>
<trkpt lat="40.0728182" lon="-105.2306289">
  <ele>1595.38</ele>
  <time>2026-08-27T18:29:12Z</time>
  <course>357.41</course>
  <speed>0.11</speed>
  <fix>3d</fix>
</trkpt>
<trkpt lat="40.0728184" lon="-105.2306287">
  <ele>1595.47</ele>
  <time>2026-08-27T18:29:12Z</time>
  <course>14.21</course>
  <speed>0.1019803902718557</speed>
  <fix>3d</fix>
</trkpt>
<trkpt lat="40.0728184" lon="-105.2306289">
  <ele>1595.38</ele>
  <time>2026-08-27T18:29:12Z</time>
  <course>2.43</course>
  <speed>0.12</speed>
  <fix>3d</fix>
</trkpt>
<trkpt lat="40.0728186" lon="-105.2306287">
  <ele>1595.47</ele>
  <time>2026-08-27T18:29:12Z</time>
  <course>14.29</course>
  <speed>0.09055385138137417</speed>
  <fix>3d</fix>
</trkpt>
<trkpt lat="40.0728187" lon="-105.2306289">
  <ele>1595.38</ele>
  <time>2026-08-27T18:29:12Z</time>
  <course>1.94</course>
  <speed>0.12</speed>
  <fix>3d</fix>
</trkpt>
<trkpt lat="40.0728188" lon="-105.2306287">
  <ele>1595.47</ele>
  <time>2026-08-27T18:29:12Z</time>
  <course>14.2</course>
  <speed>0.08</speed>
  <fix>3d</fix>
</trkpt>
<trkpt lat="40.0728189" lon="-105.2306289">
  <ele>1595.38</ele>
  <time>2026-08-27T18:29:12Z</time>
  <course>355.2</course>
  <speed>0.11</speed>
  <fix>3d</fix>
</trkpt>
<trkpt lat="40.0728189" lon="-105.2306287">
  <ele>1595.47</ele>
  <time>2026-08-27T18:29:12Z</time>
  <course>14.33</course>
  <speed>0.05</speed>
  <fix>3d</fix>
</trkpt>
<trkpt lat="40.072819" lon="-105.2306289">
  <ele>1595.38</ele>
  <time>2026-08-27T18:29:12Z</time>
  <course>357.41</course>
  <speed>0.08</speed>
  <fix>3d</fix>
</trkpt>
<trkpt lat="40.0728191" lon="-105.2306288">
  <ele>1595.47</ele>
  <time>2026-08-27T18:29:12Z</time>
  <course>14.41</course>
  <speed>0.0412310562561766</speed>
  <fix>3d</fix>
</trkpt>
<trkpt lat="40.0728192" lon="-105.2306289">
  <ele>1595.38</ele>
  <time>2026-08-27T18:29:12Z</time>
  <course>0.27</course>
  <speed>0.07</speed>
  <fix>3d</fix>
</trkpt>
<trkpt lat="40.0728192" lon="-105.2306288">
  <ele>1595.47</ele>
  <time>2026-08-27T18:29:12Z</time>
  <course>14.23</course>
  <speed>0.04</speed>
  <fix>3d</fix>
</trkpt>
<trkpt lat="40.0728193" lon="-105.2306289">
  <ele>1595.38</ele>
  <time>2026-08-27T18:29:12Z</time>
  <course>352.52</course>
  <speed>0.06</speed>
  <fix>3d</fix>
</trkpt>
<trkpt lat="40.0728193" lon="-105.2306288">
  <ele>1595.46</ele>
  <time>2026-08-27T18:29:12Z</time>
  <course>14.28</course>
  <speed>0.03</speed>
  <fix>3d</fix>
</trkpt>
<trkpt lat="40.0728194" lon="-105.2306289">
  <ele>1595.37</ele>
  <time>2026-08-27T18:29:12Z</time>
  <course>354.12</course>
  <speed>0.05</speed>
  <fix>3d</fix>
</trkpt>
<trkpt lat="40.0728194" lon="-105.2306288">
  <ele>1595.46</ele>
  <time>2026-08-27T18:29:12Z</time>
  <course>14.38</course>
  <speed>0.022360679774997897</speed>
  <fix>3d</fix>
</trkpt>
<trkpt lat="40.0728195" lon="-105.2306289">
  <ele>1595.37</ele>
  <time>2026-08-27T18:29:12Z</time>
  <course>6.63</course>
  <speed>0.04</speed>
  <fix>3d</fix>
</trkpt>
<trkpt lat="40.0728195" lon="-105.2306288">
  <ele>1595.47</ele>
  <time>2026-08-27T18:29:13Z</time>
  <course>14.31</course>
  <speed>0.022360679774997897</speed>
  <fix>3d</fix>
</trkpt>
<trkpt lat="40.0728196" lon="-105.2306289">
  <ele>1595.37</ele>
  <time>2026-08-27T18:29:13Z</time>
  <course>358.95</course>
  <speed>0.04</speed>
  <fix>3d</fix>
</trkpt>
<trkpt lat="40.0728195" lon="-105.2306288">
  <ele>1595.47</ele>
  <time>2026-08-27T18:29:13Z</time>
  <course>14.22</course>
  <speed>0.02</speed>
  <fix>3d</fix>
</trkpt>
<trkpt lat="40.0728196" lon="-105.2306289">
  <ele>1595.38</ele>
  <time>2026-08-27T18:29:13Z</time>
  <course>349.42</course>
  <speed>0.04</speed>
  <fix>3d</fix>
</trkpt>
<trkpt lat="40.0728196" lon="-105.2306288">
  <ele>1595.47</ele>
  <time>2026-08-27T18:29:13Z</time>
  <course>14.36</course>
  <speed>0.01</speed>
  <fix>3d</fix>
</trkpt>
<trkpt lat="40.0728197" lon="-105.2306289">
  <ele>1595.38</ele>
  <time>2026-08-27T18:29:13Z</time>
  <course>1.48</course>
  <speed>0.03</speed>
  <fix>3d</fix>
</trkpt>
<trkpt lat="40.0728197" lon="-105.2306288">
  <ele>1595.48</ele>
  <time>2026-08-27T18:29:13Z</time>
  <course>14.41</course>
  <speed>0.01414213562373095</speed>
  <fix>3d</fix>
</trkpt>
<trkpt lat="40.0728198" lon="-105.2306289">
  <ele>1595.38</ele>
  <time>2026-08-27T18:29:13Z</time>
  <course>2.6</course>
  <speed>0.04</speed>
  <fix>3d</fix>
</trkpt>
<trkpt lat="40.0728197" lon="-105.2306288">
  <ele>1595.48</ele>
  <time>2026-08-27T18:29:13Z</time>
  <course>14.24</course>
  <speed>0.02</speed>
  <fix>3d</fix>
</trkpt>
<trkpt lat="40.0728199" lon="-105.2306289">
  <ele>1595.38</ele>
  <time>2026-08-27T18:29:13Z</time>
  <course>346.52</course>
  <speed>0.04</speed>
  <fix>3d</fix>
</trkpt>
<trkpt lat="40.0728198" lon="-105.2306288">
  <ele>1595.48</ele>
  <time>2026-08-27T18:29:13Z</time>
  <course>14.33</course>
  <speed>0.01</speed>
  <fix>3d</fix>
</trkpt>
<trkpt lat="40.0728199" lon="-105.2306289">
  <ele>1595.37</ele>
  <time>2026-08-27T18:29:13Z</time>
  <course>349.67</course>
  <speed>0.03</speed>
  <fix>3d</fix>
</trkpt>
<trkpt lat="40.0728199" lon="-105.2306288">
  <ele>1595.48</ele>
  <time>2026-08-27T18:29:13Z</time>
  <course>14.43</course>
  <speed>0.01414213562373095</speed>
  <fix>3d</fix>
</trkpt>
<trkpt lat="40.07282" lon="-105.2306289">
  <ele>1595.37</ele>
  <time>2026-08-27T18:29:13Z</time>
  <course>3.06</course>
  <speed>0.03</speed>
  <fix>3d</fix>
</trkpt>
<trkpt lat="40.0728199" lon="-105.2306288">
  <ele>1595.48</ele>
  <time>2026-08-27T18:29:13Z</time>
  <course>14.33</course>
  <speed>0.02</speed>
  <fix>3d</fix>
</trkpt>
<trkpt lat="40.0728201" lon="-105.2306289">
  <ele>1595.37</ele>
  <time>2026-08-27T18:29:13Z</time>
  <course>349.79</course>
  <speed>0.03</speed>
  <fix>3d</fix>
</trkpt>
<trkpt lat="40.07282" lon="-105.2306288">
  <ele>1595.48</ele>
  <time>2026-08-27T18:29:13Z</time>
  <course>14.28</course>
  <speed>0.02</speed>
  <fix>3d</fix>
</trkpt>
<trkpt lat="40.0728201" lon="-105.2306289">
  <ele>1595.37</ele>
  <time>2026-08-27T18:29:13Z</time>
  <course>341.22</course>
  <speed>0.03</speed>
  <fix>3d</fix>
</trkpt>
<trkpt lat="40.0728201" lon="-105.2306288">
  <ele>1595.48</ele>
  <time>2026-08-27T18:29:13Z</time>
  <course>14.39</course>
  <speed>0.01</speed>
  <fix>3d</fix>
</trkpt>
<trkpt lat="40.0728202" lon="-105.230629">
  <ele>1595.36</ele>
  <time>2026-08-27T18:29:13Z</time>
  <course>356.36</course>
  <speed>0.03</speed>
  <fix>3d</fix>
</trkpt>
<trkpt lat="40.0728201" lon="-105.2306288">
  <ele>1595.47</ele>
  <time>2026-08-27T18:29:13Z</time>
  <course>14.41</course>
  <speed>0.01414213562373095</speed>
  <fix>3d</fix>
</trkpt>
<trkpt lat="40.0728202" lon="-105.2306291">
  <ele>1595.36</ele>
  <time>2026-08-27T18:29:13Z</time>
  <course>355.28</course>
  <speed>0.03</speed>
  <fix>3d</fix>
</trkpt>
<trkpt lat="40.0728201" lon="-105.2306289">
  <ele>1595.46</ele>
  <time>2026-08-27T18:29:13Z</time>
  <course>14.2</course>
  <speed>0.0282842712474619</speed>
  <fix>3d</fix>
</trkpt>
<trkpt lat="40.0728203" lon="-105.2306291">
  <ele>1595.36</ele>
  <time>2026-08-27T18:29:13Z</time>
  <course>318.69</course>
  <speed>0.02</speed>
  <fix>3d</fix>
</trkpt>
<trkpt lat="40.0728201" lon="-105.230629">
  <ele>1595.45</ele>
  <time>2026-08-27T18:29:13Z</time>
  <course>14.41</course>
  <speed>0.0316227766016838</speed>
  <fix>3d</fix>
</trkpt>
<trkpt lat="40.0728204" lon="-105.2306291">
  <ele>1595.35</ele>
  <time>2026-08-27T18:29:13Z</time>
  <course>255.01</course>
  <speed>0.02</speed>
  <fix>3d</fix>
</trkpt>
<trkpt lat="40.0728201" lon="-105.230629">
  <ele>1595.4</ele>
  <time>2026-08-27T18:29:13Z</time>
  <course>15.21</course>
  <speed>0.022360679774997897</speed>
  <fix>3d</fix>
</trkpt>
<trkpt lat="40.0728203" lon="-105.2306292">
  <ele>1595.33</ele>
  <time>2026-08-27T18:29:13Z</time>
  <course>245.51</course>
  <speed>0.03</speed>
  <fix>3d</fix>
</trkpt>
<trkpt lat="40.0728201" lon="-105.2306291">
  <ele>1595.27</ele>
  <time>2026-08-27T18:29:13Z</time>
  <course>16.57</course>
  <speed>0.0316227766016838</speed>
  <fix>3d</fix>
</trkpt>
<trkpt lat="40.0728202" lon="-105.2306292">
  <ele>1595.26</ele>
  <time>2026-08-27T18:29:13Z</time>
  <course>253.97</course>
  <speed>0.02</speed>
  <fix>3d</fix>
</trkpt>
<trkpt lat="40.0728201" lon="-105.2306293">
  <ele>1594.84</ele>
  <time>2026-08-27T18:29:13Z</time>
  <course>18.1</course>
  <speed>0.09055385138137417</speed>
  <fix>3d</fix>
</trkpt>
<trkpt lat="40.0728202" lon="-105.2306293">
  <ele>1595.04</ele>
  <time>2026-08-27T18:29:13Z</time>
  <course>276.52</course>
  <speed>0.05</speed>
  <fix>3d</fix>
</trkpt>
<trkpt lat="40.0728202" lon="-105.2306296">
  <ele>1594.12</ele>
  <time>2026-08-27T18:29:13Z</time>
  <course>19.62</course>
  <speed>0.13341664064126335</speed>
  <fix>3d</fix>
</trkpt>
<trkpt lat="40.0728203" lon="-105.2306295">
  <ele>1594.55</ele>
  <time>2026-08-27T18:29:13Z</time>
  <course>282.45</course>
  <speed>0.11</speed>
  <fix>3d</fix>
</trkpt>
<trkpt lat="40.0728203" lon="-105.2306299">
  <ele>1593.22</ele>
  <time>2026-08-27T18:29:13Z</time>
  <course>21.62</course>
  <speed>0.14866068747318506</speed>
  <fix>3d</fix>
</trkpt>
<trkpt lat="40.0728204" lon="-105.2306299">
  <ele>1593.78</ele>
  <time>2026-08-27T18:29:13Z</time>
  <course>287.57</course>
  <speed>0.15</speed>
  <fix>3d</fix>
</trkpt>
<trkpt lat="40.0728204" lon="-105.2306303">
  <ele>1592.2</ele>
  <time>2026-08-27T18:29:13Z</time>
  <course>24.29</course>
  <speed>0.147648230602334</speed>
  <fix>3d</fix>
</trkpt>
<trkpt lat="40.0728205" lon="-105.2306302">
  <ele>1592.85</ele>
  <time>2026-08-27T18:29:13Z</time>
  <course>293.97</course>
  <speed>0.16</speed>
  <fix>3d</fix>
</trkpt>
<trkpt lat="40.0728206" lon="-105.2306306">
  <ele>1591.1</ele>
  <time>2026-08-27T18:29:13Z</time>
  <course>26.8</course>
  <speed>0.14212670403551894</speed>
  <fix>3d</fix>
</trkpt>
<trkpt lat="40.0728206" lon="-105.2306305">
  <ele>1591.82</ele>
  <time>2026-08-27T18:29:13Z</time>
  <course>302.3</course>
  <speed>0.16</speed>
  <fix>3d</fix>
</trkpt>
<trkpt lat="40.0728208" lon="-105.2306308">
  <ele>1589.95</ele>
  <time>2026-08-27T18:29:13Z</time>
  <course>28.86</course>
  <speed>0.15</speed>
  <fix>3d</fix>
</trkpt>
<trkpt lat="40.0728208" lon="-105.2306308">
  <ele>1590.71</ele>
  <time>2026-08-27T18:29:13Z</time>
  <course>312.24</course>
  <speed>0.16</speed>
  <fix>3d</fix>
</trkpt>
<trkpt lat="40.0728211" lon="-105.2306311">
  <ele>1588.77</ele>
  <time>2026-08-27T18:29:13Z</time>
  <course>30.63</course>
  <speed>0.16124515496597097</speed>
  <fix>3d</fix>
</trkpt>
<trkpt lat="40.0728211" lon="-105.2306311">
  <ele>1589.57</ele>
  <time>2026-08-27T18:29:13Z</time>
  <course>322.13</course>
  <speed>0.17</speed>
  <fix>3d</fix>
</trkpt>
<trkpt lat="40.0728214" lon="-105.2306313">
  <ele>1587.57</ele>
  <time>2026-08-27T18:29:13Z</time>
  <course>32.19</course>
  <speed>0.18027756377319945</speed>
  <fix>3d</fix>
</trkpt>
<trkpt lat="40.0728213" lon="-105.2306313">
  <ele>1588.4</ele>
  <time>2026-08-27T18:29:13Z</time>
  <course>330.69</course>
  <speed>0.19</speed>
  <fix>3d</fix>
</trkpt>
<trkpt lat="40.0728217" lon="-105.2306315">
  <ele>1586.37</ele>
  <time>2026-08-27T18:29:13Z</time>
  <course>33.63</course>
  <speed>0.20615528128088303</speed>
  <fix>3d</fix>
</trkpt>
<trkpt lat="40.0728217" lon="-105.2306316">
  <ele>1587.21</ele>
  <time>2026-08-27T18:29:13Z</time>
  <course>337.39</course>
  <speed>0.21</speed>
  <fix>3d</fix>
</trkpt>
<trkpt lat="40.0728219" lon="-105.2306316">
  <ele>1585.89</ele>
  <time>2026-08-27T18:29:13Z</time>
  <course>33.82</course>
  <speed>0.06082762530298219</speed>
  <fix>3d</fix>
</trkpt>
<trkpt lat="40.072822" lon="-105.2306318">
  <ele>1586.19</ele>
  <time>2026-08-27T18:29:13Z</time>
  <course>337.08</course>
  <speed>0.12</speed>
  <fix>3d</fix>
</trkpt>
<trkpt lat="40.0728218" lon="-105.2306316">
  <ele>1586.2</ele>
  <time>2026-08-27T18:29:13Z</time>
  <course>33.85</course>
  <speed>0.0632455532033676</speed>
  <fix>3d</fix>
</trkpt>
<trkpt lat="40.0728221" lon="-105.2306318">
  <ele>1585.92</ele>
  <time>2026-08-27T18:29:13Z</time>
  <course>185.29</course>
  <speed>0.01</speed>
  <fix>3d</fix>
</trkpt>
<trkpt lat="40.0728218" lon="-105.2306316">
  <ele>1586.2</ele>
  <time>2026-08-27T18:29:13Z</time>
  <course>33.87</course>
  <speed>0.01</speed>
  <fix>3d</fix>
</trkpt>
<trkpt lat="40.072822" lon="-105.2306318">
  <ele>1586.11</ele>
  <time>2026-08-27T18:29:13Z</time>
  <course>158.65</course>
  <speed>0.02</speed>
  <fix>3d</fix>
</trkpt>
<trkpt lat="40.0728218" lon="-105.2306316">
  <ele>1586.16</ele>
  <time>2026-08-27T18:29:13Z</time>
  <course>33.87</course>
  <speed>0.01</speed>
  <fix>3d</fix>
</trkpt>
<trkpt lat="40.072822" lon="-105.2306318">
  <ele>1586.13</ele>
  <time>2026-08-27T18:29:13Z</time>
  <course>14.56</course>
  <speed>0.0</speed>
  <fix>3d</fix>
</trkpt>
<trkpt lat="40.0728218" lon="-105.2306316">
  <ele>1586.16</ele>
  <time>2026-08-27T18:29:13Z</time>
  <course>33.85</course>
  <speed>0.02</speed>
  <fix>3d</fix>
</trkpt>
<trkpt lat="40.072822" lon="-105.2306318">
  <ele>1586.1</ele>
  <time>2026-08-27T18:29:13Z</time>
  <course>7.86</course>
  <speed>0.0</speed>
  <fix>3d</fix>
</trkpt>
<trkpt lat="40.0728218" lon="-105.2306316">
  <ele>1586.17</ele>
  <time>2026-08-27T18:29:13Z</time>
  <course>33.84</course>
  <speed>0.01</speed>
  <fix>3d</fix>
</trkpt>
<trkpt lat="40.072822" lon="-105.2306318">
  <ele>1586.1</ele>
  <time>2026-08-27T18:29:13Z</time>
  <course>144.56</course>
  <speed>0.0</speed>
  <fix>3d</fix>
</trkpt>
<trkpt lat="40.0728218" lon="-105.2306316">
  <ele>1586.16</ele>
  <time>2026-08-27T18:29:13Z</time>
  <course>33.82</course>
  <speed>0.01</speed>
  <fix>3d</fix>
</trkpt>
<trkpt lat="40.072822" lon="-105.2306318">
  <ele>1586.11</ele>
  <time>2026-08-27T18:29:13Z</time>
  <course>130.75</course>
  <speed>0.0</speed>
  <fix>3d</fix>
</trkpt>
<trkpt lat="40.0728218" lon="-105.2306316">
  <ele>1586.16</ele>
  <time>2026-08-27T18:29:13Z</time>
  <course>33.81</course>
  <speed>0.01</speed>
  <fix>3d</fix>
</trkpt>
<trkpt lat="40.0728219" lon="-105.2306318">
  <ele>1586.11</ele>
  <time>2026-08-27T18:29:13Z</time>
  <course>111.61</course>
  <speed>0.0</speed>
  <fix>3d</fix>
</trkpt>
<trkpt lat="40.0728218" lon="-105.2306317">
  <ele>1586.16</ele>
  <time>2026-08-27T18:29:13Z</time>
  <course>33.79</course>
  <speed>0.01</speed>
  <fix>3d</fix>
</trkpt>
<trkpt lat="40.0728219" lon="-105.2306318">
  <ele>1586.11</ele>
  <time>2026-08-27T18:29:13Z</time>
  <course>125.84</course>
  <speed>0.0</speed>
  <fix>3d</fix>
</trkpt>
<trkpt lat="40.0728218" lon="-105.2306317">
  <ele>1586.16</ele>
  <time>2026-08-27T18:29:13Z</time>
  <course>33.77</course>
  <speed>0.01</speed>
  <fix>3d</fix>
</trkpt>
<trkpt lat="40.0728219" lon="-105.2306318">
  <ele>1586.11</ele>
  <time>2026-08-27T18:29:13Z</time>
  <course>126.08</course>
  <speed>0.0</speed>
  <fix>3d</fix>
</trkpt>
<trkpt lat="40.0728218" lon="-105.2306317">
  <ele>1586.16</ele>
  <time>2026-08-27T18:29:13Z</time>
  <course>33.74</course>
  <speed>0.01</speed>
  <fix>3d</fix>
</trkpt>
<trkpt lat="40.0728219" lon="-105.2306318">
  <ele>1586.11</ele>
  <time>2026-08-27T18:29:13Z</time>
  <course>123.85</course>
  <speed>0.0</speed>
  <fix>3d</fix>
</trkpt>
<trkpt lat="40.0728218" lon="-105.2306317">
  <ele>1586.17</ele>
  <time>2026-08-27T18:29:13Z</time>
  <course>33.71</course>
  <speed>0.01414213562373095</speed>
  <fix>3d</fix>
</trkpt>
<trkpt lat="40.0728219" lon="-105.2306318">
  <ele>1586.11</ele>
  <time>2026-08-27T18:29:13Z</time>
  <course>111.9</course>
  <speed>0.0</speed>
  <fix>3d</fix>
</trkpt>
<trkpt lat="40.0728218" lon="-105.2306317">
  <ele>1586.17</ele>
  <time>2026-08-27T18:29:13Z</time>
  <course>33.66</course>
  <speed>0.01</speed>
  <fix>3d</fix>
</trkpt>
<trkpt lat="40.0728219" lon="-105.2306318">
  <ele>1586.11</ele>
  <time>2026-08-27T18:29:13Z</time>
  <course>105.92</course>
  <speed>0.0</speed>
  <fix>3d</fix>
</trkpt>
<trkpt lat="40.0728218" lon="-105.2306317">
  <ele>1586.17</ele>
  <time>2026-08-27T18:29:13Z</time>
  <course>33.6</course>
  <speed>0.01</speed>
  <fix>3d</fix>
</trkpt>
<trkpt lat="40.0728219" lon="-105.2306318">
  <ele>1586.11</ele>
  <time>2026-08-27T18:29:13Z</time>
  <course>97.63</course>
  <speed>0.0</speed>
  <fix>3d</fix>
</trkpt>
<trkpt lat="40.0728218" lon="-105.2306317">
  <ele>1586.17</ele>
  <time>2026-08-27T18:29:13Z</time>
  <course>33.54</course>
  <speed>0.01</speed>
  <fix>3d</fix>
</trkpt>
<trkpt lat="40.0728219" lon="-105.2306318">
  <ele>1586.11</ele>
  <time>2026-08-27T18:29:13Z</time>
  <course>265.51</course>
  <speed>0.0</speed>
  <fix>3d</fix>
</trkpt>
<trkpt lat="40.0728218" lon="-105.2306317">
  <ele>1586.17</ele>
  <time>2026-08-27T18:29:13Z</time>
  <course>33.49</course>
  <speed>0.01</speed>
  <fix>3d</fix>
</trkpt>
<trkpt lat="40.0728219" lon="-105.2306318">
  <ele>1586.11</ele>
  <time>2026-08-27T18:29:13Z</time>
  <course>257.12</course>
  <speed>0.0</speed>
  <fix>3d</fix>
</trkpt>
<trkpt lat="40.0728218" lon="-105.2306317">
  <ele>1586.17</ele>
  <time>2026-08-27T18:29:13Z</time>
  <course>33.44</course>
  <speed>0.01</speed>
  <fix>3d</fix>
</trkpt>
<trkpt lat="40.0728219" lon="-105.2306318">
  <ele>1586.11</ele>
  <time>2026-08-27T18:29:13Z</time>
  <course>255.44</course>
  <speed>0.0</speed>
  <fix>3d</fix>
</trkpt>
<trkpt lat="40.0728218" lon="-105.2306317">
  <ele>1586.17</ele>
  <time>2026-08-27T18:29:13Z</time>
  <course>33.39</course>
  <speed>0.01</speed>
  <fix>3d</fix>
</trkpt>
<trkpt lat="40.0728219" lon="-105.2306318">
  <ele>1586.11</ele>
  <time>2026-08-27T18:29:13Z</time>
  <course>257.71</course>
  <speed>0.0</speed>
  <fix>3d</fix>
</trkpt>
<trkpt lat="40.0728218" lon="-105.2306317">
  <ele>1586.17</ele>
  <time>2026-08-27T18:29:13Z</time>
  <course>33.34</course>
  <speed>0.01</speed>
  <fix>3d</fix>
</trkpt>
<trkpt lat="40.0728219" lon="-105.2306318">
  <ele>1586.11</ele>
  <time>2026-08-27T18:29:13Z</time>
  <course>270.26</course>
  <speed>0.0</speed>
  <fix>3d</fix>
</trkpt>
<trkpt lat="40.0728218" lon="-105.2306317">
  <ele>1586.17</ele>
  <time>2026-08-27T18:29:13Z</time>
  <course>33.3</course>
  <speed>0.01</speed>
  <fix>3d</fix>
</trkpt>
<trkpt lat="40.0728219" lon="-105.2306318">
  <ele>1586.11</ele>
  <time>2026-08-27T18:29:13Z</time>
  <course>295.95</course>
  <speed>0.0</speed>
  <fix>3d</fix>
</trkpt>
<trkpt lat="40.0728218" lon="-105.2306317">
  <ele>1586.17</ele>
  <time>2026-08-27T18:29:13Z</time>
  <course>33.26</course>
  <speed>0.01</speed>
  <fix>3d</fix>
</trkpt>
<trkpt lat="40.0728219" lon="-105.2306318">
  <ele>1586.11</ele>
  <time>2026-08-27T18:29:13Z</time>
  <course>273.42</course>
  <speed>0.0</speed>
  <fix>3d</fix>
</trkpt>
<trkpt lat="40.0728218" lon="-105.2306317">
  <ele>1586.17</ele>
  <time>2026-08-27T18:29:13Z</time>
  <course>33.22</course>
  <speed>0.01</speed>
  <fix>3d</fix>
</trkpt>
<trkpt lat="40.0728219" lon="-105.2306318">
  <ele>1586.11</ele>
  <time>2026-08-27T18:29:13Z</time>
  <course>272.91</course>
  <speed>0.0</speed>
  <fix>3d</fix>
</trkpt>
<trkpt lat="40.0728218" lon="-105.2306317">
  <ele>1586.17</ele>
  <time>2026-08-27T18:29:13Z</time>
  <course>33.18</course>
  <speed>0.01</speed>
  <fix>3d</fix>
</trkpt>
<trkpt lat="40.0728219" lon="-105.2306318">
  <ele>1586.11</ele>
  <time>2026-08-27T18:29:13Z</time>
  <course>303.55</course>
  <speed>0.0</speed>
  <fix>3d</fix>
</trkpt>
<trkpt lat="40.0728218" lon="-105.2306317">
  <ele>1586.17</ele>
  <time>2026-08-27T18:29:13Z</time>
  <course>33.14</course>
  <speed>0.01</speed>
  <fix>3d</fix>
</trkpt>
<trkpt lat="40.0728219" lon="-105.2306318">
  <ele>1586.11</ele>
  <time>2026-08-27T18:29:13Z</time>
  <course>303.87</course>
  <speed>0.0</speed>
  <fix>3d</fix>
</trkpt>
<trkpt lat="40.0728218" lon="-105.2306317">
  <ele>1586.17</ele>
  <time>2026-08-27T18:29:13Z</time>
  <course>33.11</course>
  <speed>0.01</speed>
  <fix>3d</fix>
</trkpt>
<trkpt lat="40.0728219" lon="-105.2306318">
  <ele>1586.11</ele>
  <time>2026-08-27T18:29:13Z</time>
  <course>299.79</course>
  <speed>0.0</speed>
  <fix>3d</fix>
</trkpt>
<trkpt lat="40.0728218" lon="-105.2306317">
  <ele>1586.17</ele>
  <time>2026-08-27T18:29:13Z</time>
  <course>33.08</course>
  <speed>0.01</speed>
  <fix>3d</fix>
</trkpt>
<trkpt lat="40.0728219" lon="-105.2306318">
  <ele>1586.11</ele>
  <time>2026-08-27T18:29:13Z</time>
  <course>300.1</course>
  <speed>0.0</speed>
  <fix>3d</fix>
</trkpt>
<trkpt lat="40.0728218" lon="-105.2306317">
  <ele>1586.18</ele>
  <time>2026-08-27T18:29:13Z</time>
  <course>33.05</course>
  <speed>0.01</speed>
  <fix>3d</fix>
</trkpt>
<trkpt lat="40.0728219" lon="-105.2306318">
  <ele>1586.11</ele>
  <time>2026-08-27T18:29:13Z</time>
  <course>317.78</course>
  <speed>0.0</speed>
  <fix>3d</fix>
</trkpt>
<trkpt lat="40.0728218" lon="-105.2306317">
  <ele>1586.18</ele>
  <time>2026-08-27T18:29:13Z</time>
  <course>33.01</course>
  <speed>0.01</speed>
  <fix>3d</fix>
</trkpt>
<trkpt lat="40.0728219" lon="-105.2306318">
  <ele>1586.11</ele>
  <time>2026-08-27T18:29:13Z</time>
  <course>324.63</course>
  <speed>0.0</speed>
  <fix>3d</fix>
</trkpt>
<trkpt lat="40.0728218" lon="-105.2306317">
  <ele>1586.18</ele>
  <time>2026-08-27T18:29:13Z</time>
  <course>32.98</course>
  <speed>0.01</speed>
  <fix>3d</fix>
</trkpt>
<trkpt lat="40.0728219" lon="-105.2306318">
  <ele>1586.11</ele>
  <time>2026-08-27T18:29:13Z</time>
  <course>308.66</course>
  <speed>0.0</speed>
  <fix>3d</fix>
</trkpt>
<trkpt lat="40.0728218" lon="-105.2306317">
  <ele>1586.18</ele>
  <time>2026-08-27T18:29:13Z</time>
  <course>32.96</course>
  <speed>0.01</speed>
  <fix>3d</fix>
</trkpt>
<trkpt lat="40.0728219" lon="-105.2306318">
  <ele>1586.11</ele>
  <time>2026-08-27T18:29:13Z</time>
  <course>290.37</course>
  <speed>0.0</speed>
  <fix>3d</fix>
</trkpt>
<trkpt lat="40.0728218" lon="-105.2306317">
  <ele>1586.18</ele>
  <time>2026-08-27T18:29:13Z</time>
  <course>32.93</course>
  <speed>0.01</speed>
  <fix>3d</fix>
</trkpt>
<trkpt lat="40.0728219" lon="-105.2306318">
  <ele>1586.11</ele>
  <time>2026-08-27T18:29:13Z</time>
  <course>301.1</course>
  <speed>0.0</speed>
  <fix>3d</fix>
</trkpt>
<trkpt lat="40.0728218" lon="-105.2306317">
  <ele>1586.18</ele>
  <time>2026-08-27T18:29:13Z</time>
  <course>32.9</course>
  <speed>0.02</speed>
  <fix>3d</fix>
</trkpt>
<trkpt lat="40.0728219" lon="-105.2306318">
  <ele>1586.11</ele>
  <time>2026-08-27T18:29:13Z</time>
  <course>302.79</course>
  <speed>0.0</speed>
  <fix>3d</fix>
</trkpt>
<trkpt lat="40.0728218" lon="-105.2306317">
  <ele>1586.18</ele>
  <time>2026-08-27T18:29:13Z</time>
  <course>32.88</course>
  <speed>0.02</speed>
  <fix>3d</fix>
</trkpt>
<trkpt lat="40.0728219" lon="-105.2306318">
  <ele>1586.11</ele>
  <time>2026-08-27T18:29:13Z</time>
  <course>301.07</course>
  <speed>0.0</speed>
  <fix>3d</fix>
</trkpt>
<trkpt lat="40.0728218" lon="-105.2306317">
  <ele>1586.19</ele>
  <time>2026-08-27T18:29:13Z</time>
  <course>32.85</course>
  <speed>0.02</speed>
  <fix>3d</fix>
</trkpt>
<trkpt lat="40.0728219" lon="-105.2306318">
  <ele>1586.11</ele>
  <time>2026-08-27T18:29:13Z</time>
  <course>300.99</course>
  <speed>0.0</speed>
  <fix>3d</fix>
</trkpt>
<trkpt lat="40.0728218" lon="-105.2306317">
  <ele>1586.19</ele>
  <time>2026-08-27T18:29:13Z</time>
  <course>32.83</course>
  <speed>0.02</speed>
  <fix>3d</fix>
</trkpt>
<trkpt lat="40.0728219" lon="-105.2306318">
  <ele>1586.11</ele>
  <time>2026-08-27T18:29:13Z</time>
  <course>301.25</course>
  <speed>0.0</speed>
  <fix>3d</fix>
</trkpt>
<trkpt lat="40.0728218" lon="-105.2306317">
  <ele>1586.19</ele>
  <time>2026-08-27T18:29:13Z</time>
  <course>32.81</course>
  <speed>0.02</speed>
  <fix>3d</fix>
</trkpt>
<trkpt lat="40.0728219" lon="-105.2306318">
  <ele>1586.11</ele>
  <time>2026-08-27T18:29:13Z</time>
  <course>301.21</course>
  <speed>0.0</speed>
  <fix>3d</fix>
</trkpt>
<trkpt lat="40.0728218" lon="-105.2306317">
  <ele>1586.19</ele>
  <time>2026-08-27T18:29:13Z</time>
  <course>32.78</course>
  <speed>0.02</speed>
  <fix>3d</fix>
</trkpt>
<trkpt lat="40.0728219" lon="-105.2306318">
  <ele>1586.11</ele>
  <time>2026-08-27T18:29:13Z</time>
  <course>301.14</course>
  <speed>0.0</speed>
  <fix>3d</fix>
</trkpt>
<trkpt lat="40.0728218" lon="-105.2306317">
  <ele>1586.19</ele>
  <time>2026-08-27T18:29:13Z</time>
  <course>32.76</course>
  <speed>0.02</speed>
  <fix>3d</fix>
</trkpt>
<trkpt lat="40.0728219" lon="-105.2306318">
  <ele>1586.11</ele>
  <time>2026-08-27T18:29:13Z</time>
  <course>301.13</course>
  <speed>0.0</speed>
  <fix>3d</fix>
</trkpt>
<trkpt lat="40.0728218" lon="-105.2306317">
  <ele>1586.18</ele>
  <time>2026-08-27T18:29:13Z</time>
  <course>32.74</course>
  <speed>0.02</speed>
  <fix>3d</fix>
</trkpt>
<trkpt lat="40.0728219" lon="-105.2306318">
  <ele>1586.11</ele>
  <time>2026-08-27T18:29:13Z</time>
  <course>301.12</course>
  <speed>0.0</speed>
  <fix>3d</fix>
</trkpt>
<trkpt lat="40.0728218" lon="-105.2306317">
  <ele>1586.18</ele>
  <time>2026-08-27T18:29:13Z</time>
  <course>32.72</course>
  <speed>0.02</speed>
  <fix>3d</fix>
</trkpt>
<trkpt lat="40.0728219" lon="-105.2306318">
  <ele>1586.11</ele>
  <time>2026-08-27T18:29:13Z</time>
  <course>301.1</course>
  <speed>0.0</speed>
  <fix>3d</fix>
</trkpt>
<trkpt lat="40.0728218" lon="-105.2306317">
  <ele>1586.19</ele>
  <time>2026-08-27T18:29:13Z</time>
  <course>32.74</course>
  <speed>0.02</speed>
  <fix>3d</fix>
</trkpt>
<trkpt lat="40.0728219" lon="-105.2306318">
  <ele>1586.11</ele>
  <time>2026-08-27T18:29:13Z</time>
  <course>301.06</course>
  <speed>0.0</speed>
  <fix>3d</fix>
</trkpt>
<trkpt lat="40.0728218" lon="-105.2306317">
  <ele>1586.19</ele>
  <time>2026-08-27T18:29:13Z</time>
  <course>32.94</course>
  <speed>0.02</speed>
  <fix>3d</fix>
</trkpt>
<trkpt lat="40.0728219" lon="-105.2306318">
  <ele>1586.11</ele>
  <time>2026-08-27T18:29:13Z</time>
  <course>301.08</course>
  <speed>0.0</speed>
  <fix>3d</fix>
</trkpt>
<trkpt lat="40.0728218" lon="-105.2306317">
  <ele>1586.18</ele>
  <time>2026-08-27T18:29:13Z</time>
  <course>33.18</course>
  <speed>0.02</speed>
  <fix>3d</fix>
</trkpt>
<trkpt lat="40.0728219" lon="-105.2306318">
  <ele>1586.11</ele>
  <time>2026-08-27T18:29:13Z</time>
  <course>301.07</course>
  <speed>0.0</speed>
  <fix>3d</fix>
</trkpt>
<trkpt lat="40.0728218" lon="-105.2306317">
  <ele>1586.18</ele>
  <time>2026-08-27T18:29:13Z</time>
  <course>33.39</course>
  <speed>0.02</speed>
  <fix>3d</fix>
</trkpt>
<trkpt lat="40.0728219" lon="-105.2306318">
  <ele>1586.11</ele>
  <time>2026-08-27T18:29:13Z</time>
  <course>121.15</course>
  <speed>0.0</speed>
  <fix>3d</fix>
</trkpt>
<trkpt lat="40.0728218" lon="-105.2306317">
  <ele>1586.18</ele>
  <time>2026-08-27T18:29:13Z</time>
  <course>33.6</course>
  <speed>0.02</speed>
  <fix>3d</fix>
</trkpt>
<trkpt lat="40.0728219" lon="-105.2306318">
  <ele>1586.11</ele>
  <time>2026-08-27T18:29:13Z</time>
  <course>121.22</course>
  <speed>0.0</speed>
  <fix>3d</fix>
</trkpt>
<trkpt lat="40.0728218" lon="-105.2306317">
  <ele>1586.18</ele>
  <time>2026-08-27T18:29:13Z</time>
  <course>33.78</course>
  <speed>0.01</speed>
  <fix>3d</fix>
</trkpt>
<trkpt lat="40.0728219" lon="-105.2306318">
  <ele>1586.11</ele>
  <time>2026-08-27T18:29:13Z</time>
  <course>286.71</course>
  <speed>0.0</speed>
  <fix>3d</fix>
</trkpt>
<trkpt lat="40.0728218" lon="-105.2306317">
  <ele>1586.18</ele>
  <time>2026-08-27T18:29:13Z</time>
  <course>33.96</course>
  <speed>0.01</speed>
  <fix>3d</fix>
</trkpt>
<trkpt lat="40.0728219" lon="-105.2306318">
  <ele>1586.11</ele>
  <time>2026-08-27T18:29:13Z</time>
  <course>178.63</course>
  <speed>0.0</speed>
  <fix>3d</fix>
</trkpt>
<trkpt lat="40.0728218" lon="-105.2306317">
  <ele>1586.18</ele>
  <time>2026-08-27T18:29:13Z</time>
  <course>34.13</course>
  <speed>0.01</speed>
  <fix>3d</fix>
</trkpt>
<trkpt lat="40.0728219" lon="-105.2306318">
  <ele>1586.11</ele>
  <time>2026-08-27T18:29:13Z</time>
  <course>160.26</course>
  <speed>0.0</speed>
  <fix>3d</fix>
</trkpt>
<trkpt lat="40.0728218" lon="-105.2306317">
  <ele>1586.18</ele>
  <time>2026-08-27T18:29:13Z</time>
  <course>34.28</course>
  <speed>0.01</speed>
  <fix>3d</fix>
</trkpt>
<trkpt lat="40.0728219" lon="-105.2306318">
  <ele>1586.11</ele>
  <time>2026-08-27T18:29:13Z</time>
  <course>7.33</course>
  <speed>0.0</speed>
  <fix>3d</fix>
</trkpt>
<trkpt lat="40.0728218" lon="-105.2306317">
  <ele>1586.18</ele>
  <time>2026-08-27T18:29:13Z</time>
  <course>34.43</course>
  <speed>0.01</speed>
  <fix>3d</fix>
</trkpt>
<trkpt lat="40.0728219" lon="-105.2306318">
  <ele>1586.11</ele>
  <time>2026-08-27T18:29:13Z</time>
  <course>307.15</course>
  <speed>0.0</speed>
  <fix>3d</fix>
</trkpt>
<trkpt lat="40.0728218" lon="-105.2306317">
  <ele>1586.17</ele>
  <time>2026-08-27T18:29:13Z</time>
  <course>34.57</course>
  <speed>0.01</speed>
  <fix>3d</fix>
</trkpt>
<trkpt lat="40.0728219" lon="-105.2306318">
  <ele>1586.11</ele>
  <time>2026-08-27T18:29:13Z</time>
  <course>203.2</course>
  <speed>0.0</speed>
  <fix>3d</fix>
</trkpt>
<trkpt lat="40.0728218" lon="-105.2306317">
  <ele>1586.17</ele>
  <time>2026-08-27T18:29:13Z</time>
  <course>34.71</course>
  <speed>0.01</speed>
  <fix>3d</fix>
</trkpt>
<trkpt lat="40.0728219" lon="-105.2306318">
  <ele>1586.11</ele>
  <time>2026-08-27T18:29:13Z</time>
  <course>215.23</course>
  <speed>0.0</speed>
  <fix>3d</fix>
</trkpt>
<trkpt lat="40.0728218" lon="-105.2306317">
  <ele>1586.17</ele>
  <time>2026-08-27T18:29:13Z</time>
  <course>34.84</course>
  <speed>0.01</speed>
  <fix>3d</fix>
</trkpt>
<trkpt lat="40.0728219" lon="-105.2306318">
  <ele>1586.11</ele>
  <time>2026-08-27T18:29:13Z</time>
  <course>243.14</course>
  <speed>0.0</speed>
  <fix>3d</fix>
</trkpt>
<trkpt lat="40.0728218" lon="-105.2306317">
  <ele>1586.17</ele>
  <time>2026-08-27T18:29:13Z</time>
  <course>34.97</course>
  <speed>0.01</speed>
  <fix>3d</fix>
</trkpt>
<trkpt lat="40.0728219" lon="-105.2306318">
  <ele>1586.11</ele>
  <time>2026-08-27T18:29:13Z</time>
  <course>233.49</course>
  <speed>0.0</speed>
  <fix>3d</fix>
</trkpt>
<trkpt lat="40.0728218" lon="-105.2306317">
  <ele>1586.17</ele>
  <time>2026-08-27T18:29:13Z</time>
  <course>35.09</course>
  <speed>0.01</speed>
  <fix>3d</fix>
</trkpt>
<trkpt lat="40.0728219" lon="-105.2306318">
  <ele>1586.11</ele>
  <time>2026-08-27T18:29:13Z</time>
  <course>231.04</course>
  <speed>0.0</speed>
  <fix>3d</fix>
</trkpt>
<trkpt lat="40.0728218" lon="-105.2306317">
  <ele>1586.17</ele>
  <time>2026-08-27T18:29:13Z</time>
  <course>35.2</course>
  <speed>0.01</speed>
  <fix>3d</fix>
</trkpt>
<trkpt lat="40.0728219" lon="-105.2306318">
  <ele>1586.11</ele>
  <time>2026-08-27T18:29:13Z</time>
  <course>232.49</course>
  <speed>0.0</speed>
  <fix>3d</fix>
</trkpt>
<trkpt lat="40.0728218" lon="-105.2306317">
  <ele>1586.17</ele>
  <time>2026-08-27T18:29:13Z</time>
  <course>35.31</course>
  <speed>0.01</speed>
  <fix>3d</fix>
</trkpt>
<trkpt lat="40.0728219" lon="-105.2306318">
  <ele>1586.11</ele>
  <time>2026-08-27T18:29:13Z</time>
  <course>232.65</course>
  <speed>0.0</speed>
  <fix>3d</fix>
</trkpt>
<trkpt lat="40.0728218" lon="-105.2306317">
  <ele>1586.17</ele>
  <time>2026-08-27T18:29:13Z</time>
  <course>35.41</course>
  <speed>0.01</speed>
  <fix>3d</fix>
</trkpt>
<trkpt lat="40.0728219" lon="-105.2306318">
  <ele>1586.11</ele>
  <time>2026-08-27T18:29:13Z</time>
  <course>232.43</course>
  <speed>0.0</speed>
  <fix>3d</fix>
</trkpt>
<trkpt lat="40.0728218" lon="-105.2306317">
  <ele>1586.17</ele>
  <time>2026-08-27T18:29:13Z</time>
  <course>35.51</course>
  <speed>0.01</speed>
  <fix>3d</fix>
</trkpt>
<trkpt lat="40.0728219" lon="-105.2306318">
  <ele>1586.11</ele>
  <time>2026-08-27T18:29:13Z</time>
  <course>232.44</course>
  <speed>0.0</speed>
  <fix>3d</fix>
</trkpt>
<trkpt lat="40.0728218" lon="-105.2306317">
  <ele>1586.17</ele>
  <time>2026-08-27T18:29:13Z</time>
  <course>35.61</course>
  <speed>0.01</speed>
  <fix>3d</fix>
</trkpt>
<trkpt lat="40.0728219" lon="-105.2306318">
  <ele>1586.11</ele>
  <time>2026-08-27T18:29:13Z</time>
  <course>232.46</course>
  <speed>0.0</speed>
  <fix>3d</fix>
</trkpt>
<trkpt lat="40.0728218" lon="-105.2306317">
  <ele>1586.17</ele>
  <time>2026-08-27T18:29:13Z</time>
  <course>35.7</course>
  <speed>0.01</speed>
  <fix>3d</fix>
</trkpt>
<trkpt lat="40.0728219" lon="-105.2306318">
  <ele>1586.11</ele>
  <time>2026-08-27T18:29:13Z</time>
  <course>232.46</course>
  <speed>0.0</speed>
  <fix>3d</fix>
</trkpt>
<trkpt lat="40.0728218" lon="-105.2306317">
  <ele>1586.18</ele>
  <time>2026-08-27T18:29:13Z</time>
  <course>35.79</course>
  <speed>0.01</speed>
  <fix>3d</fix>
</trkpt>
<trkpt lat="40.0728219" lon="-105.2306318">
  <ele>1586.11</ele>
  <time>2026-08-27T18:29:13Z</time>
  <course>232.46</course>
  <speed>0.0</speed>
  <fix>3d</fix>
</trkpt>
<trkpt lat="40.0728218" lon="-105.2306317">
  <ele>1586.18</ele>
  <time>2026-08-27T18:29:13Z</time>
  <course>35.88</course>
  <speed>0.01</speed>
  <fix>3d</fix>
</trkpt>
<trkpt lat="40.0728219" lon="-105.2306318">
  <ele>1586.11</ele>
  <time>2026-08-27T18:29:13Z</time>
  <course>232.46</course>
  <speed>0.0</speed>
  <fix>3d</fix>
</trkpt>
<trkpt lat="40.0728218" lon="-105.2306317">
  <ele>1586.18</ele>
  <time>2026-08-27T18:29:13Z</time>
  <course>35.96</course>
  <speed>0.01</speed>
  <fix>3d</fix>
</trkpt>
<trkpt lat="40.0728219" lon="-105.2306318">
  <ele>1586.11</ele>
  <time>2026-08-27T18:29:13Z</time>
  <course>0.06</course>
  <speed>0.0</speed>
  <fix>3d</fix>
</trkpt>
<trkpt lat="40.0728218" lon="-105.2306317">
  <ele>1586.18</ele>
  <time>2026-08-27T18:29:13Z</time>
  <course>36.04</course>
  <speed>0.01</speed>
  <fix>3d</fix>
</trkpt>
<trkpt lat="40.0728219" lon="-105.2306318">
  <ele>1586.11</ele>
  <time>2026-08-27T18:29:13Z</time>
  <course>352.06</course>
  <speed>0.0</speed>
  <fix>3d</fix>
</trkpt>
<trkpt lat="40.0728218" lon="-105.2306317">
  <ele>1586.19</ele>
  <time>2026-08-27T18:29:13Z</time>
  <course>36.12</course>
  <speed>0.01</speed>
  <fix>3d</fix>
</trkpt>
<trkpt lat="40.0728219" lon="-105.2306318">
  <ele>1586.11</ele>
  <time>2026-08-27T18:29:13Z</time>
  <course>229.52</course>
  <speed>0.0</speed>
  <fix>3d</fix>
</trkpt>
<trkpt lat="40.0728218" lon="-105.2306317">
  <ele>1586.19</ele>
  <time>2026-08-27T18:29:13Z</time>
  <course>36.2</course>
  <speed>0.01</speed>
  <fix>3d</fix>
</trkpt>
<trkpt lat="40.0728219" lon="-105.2306318">
  <ele>1586.11</ele>
  <time>2026-08-27T18:29:13Z</time>
  <course>169.57</course>
  <speed>0.0</speed>
  <fix>3d</fix>
</trkpt>
<trkpt lat="40.0728218" lon="-105.2306317">
  <ele>1586.19</ele>
  <time>2026-08-27T18:29:13Z</time>
  <course>36.27</course>
  <speed>0.01</speed>
  <fix>3d</fix>
</trkpt>
<trkpt lat="40.0728219" lon="-105.2306318">
  <ele>1586.11</ele>
  <time>2026-08-27T18:29:13Z</time>
  <course>331.29</course>
  <speed>0.0</speed>
  <fix>3d</fix>
</trkpt>
<trkpt lat="40.0728218" lon="-105.2306317">
  <ele>1586.19</ele>
  <time>2026-08-27T18:29:13Z</time>
  <course>36.34</course>
  <speed>0.01</speed>
  <fix>3d</fix>
</trkpt>
<trkpt lat="40.0728219" lon="-105.2306318">
  <ele>1586.11</ele>
  <time>2026-08-27T18:29:13Z</time>
  <course>307.9</course>
  <speed>0.0</speed>
  <fix>3d</fix>
</trkpt>
<trkpt lat="40.0728218" lon="-105.2306317">
  <ele>1586.19</ele>
  <time>2026-08-27T18:29:13Z</time>
  <course>36.41</course>
  <speed>0.01</speed>
  <fix>3d</fix>
</trkpt>
<trkpt lat="40.0728219" lon="-105.2306318">
  <ele>1586.11</ele>
  <time>2026-08-27T18:29:13Z</time>
  <course>284.69</course>
  <speed>0.0</speed>
  <fix>3d</fix>
</trkpt>
<trkpt lat="40.0728218" lon="-105.2306317">
  <ele>1586.19</ele>
  <time>2026-08-27T18:29:13Z</time>
  <course>36.48</course>
  <speed>0.01</speed>
  <fix>3d</fix>
</trkpt>
<trkpt lat="40.0728219" lon="-105.2306318">
  <ele>1586.11</ele>
  <time>2026-08-27T18:29:13Z</time>
  <course>296.22</course>
  <speed>0.0</speed>
  <fix>3d</fix>
</trkpt>
<trkpt lat="40.0728218" lon="-105.2306317">
  <ele>1586.19</ele>
  <time>2026-08-27T18:29:13Z</time>
  <course>36.54</course>
  <speed>0.01</speed>
  <fix>3d</fix>
</trkpt>
<trkpt lat="40.0728219" lon="-105.2306318">
  <ele>1586.11</ele>
  <time>2026-08-27T18:29:13Z</time>
  <course>298.63</course>
  <speed>0.0</speed>
  <fix>3d</fix>
</trkpt>
<trkpt lat="40.0728218" lon="-105.2306317">
  <ele>1586.2</ele>
  <time>2026-08-27T18:29:13Z</time>
  <course>36.6</course>
  <speed>0.01</speed>
  <fix>3d</fix>
</trkpt>
<trkpt lat="40.0728219" lon="-105.2306318">
  <ele>1586.11</ele>
  <time>2026-08-27T18:29:13Z</time>
  <course>297.06</course>
  <speed>0.0</speed>
  <fix>3d</fix>
</trkpt>
<trkpt lat="40.0728218" lon="-105.2306317">
  <ele>1586.19</ele>
  <time>2026-08-27T18:29:13Z</time>
  <course>36.66</course>
  <speed>0.01</speed>
  <fix>3d</fix>
</trkpt>
<trkpt lat="40.0728219" lon="-105.2306318">
  <ele>1586.11</ele>
  <time>2026-08-27T18:29:13Z</time>
  <course>296.93</course>
  <speed>0.0</speed>
  <fix>3d</fix>
</trkpt>
<trkpt lat="40.0728218" lon="-105.2306317">
  <ele>1586.2</ele>
  <time>2026-08-27T18:29:13Z</time>
  <course>36.72</course>
  <speed>0.01</speed>
  <fix>3d</fix>
</trkpt>
<trkpt lat="40.0728219" lon="-105.2306318">
  <ele>1586.11</ele>
  <time>2026-08-27T18:29:13Z</time>
  <course>297.16</course>
  <speed>0.0</speed>
  <fix>3d</fix>
</trkpt>
<trkpt lat="40.0728218" lon="-105.2306317">
  <ele>1586.19</ele>
  <time>2026-08-27T18:29:13Z</time>
  <course>36.78</course>
  <speed>0.01</speed>
  <fix>3d</fix>
</trkpt>
<trkpt lat="40.0728219" lon="-105.2306318">
  <ele>1586.11</ele>
  <time>2026-08-27T18:29:13Z</time>
  <course>297.15</course>
  <speed>0.0</speed>
  <fix>3d</fix>
</trkpt>
<trkpt lat="40.0728218" lon="-105.2306317">
  <ele>1586.19</ele>
  <time>2026-08-27T18:29:13Z</time>
  <course>36.84</course>
  <speed>0.01</speed>
  <fix>3d</fix>
</trkpt>
<trkpt lat="40.0728219" lon="-105.2306318">
  <ele>1586.11</ele>
  <time>2026-08-27T18:29:13Z</time>
  <course>297.12</course>
  <speed>0.0</speed>
  <fix>3d</fix>
</trkpt>
<trkpt lat="40.0728218" lon="-105.2306317">
  <ele>1586.19</ele>
  <time>2026-08-27T18:29:13Z</time>
  <course>36.89</course>
  <speed>0.01</speed>
  <fix>3d</fix>
</trkpt>
<trkpt lat="40.0728219" lon="-105.2306318">
  <ele>1586.11</ele>
  <time>2026-08-27T18:29:13Z</time>
  <course>297.12</course>
  <speed>0.0</speed>
  <fix>3d</fix>
</trkpt>
<trkpt lat="40.0728218" lon="-105.2306317">
  <ele>1586.19</ele>
  <time>2026-08-27T18:29:13Z</time>
  <course>36.94</course>
  <speed>0.01</speed>
  <fix>3d</fix>
</trkpt>
<trkpt lat="40.0728219" lon="-105.2306318">
  <ele>1586.11</ele>
  <time>2026-08-27T18:29:13Z</time>
  <course>296.62</course>
  <speed>0.0</speed>
  <fix>3d</fix>
</trkpt>
<trkpt lat="40.0728218" lon="-105.2306317">
  <ele>1586.19</ele>
  <time>2026-08-27T18:29:13Z</time>
  <course>36.99</course>
  <speed>0.01</speed>
  <fix>3d</fix>
</trkpt>
<trkpt lat="40.0728219" lon="-105.2306318">
  <ele>1586.11</ele>
  <time>2026-08-27T18:29:13Z</time>
  <course>295.92</course>
  <speed>0.0</speed>
  <fix>3d</fix>
</trkpt>
<trkpt lat="40.0728218" lon="-105.2306317">
  <ele>1586.2</ele>
  <time>2026-08-27T18:29:13Z</time>
  <course>37.04</course>
  <speed>0.01</speed>
  <fix>3d</fix>
</trkpt>
<trkpt lat="40.0728219" lon="-105.2306318">
  <ele>1586.11</ele>
  <time>2026-08-27T18:29:13Z</time>
  <course>295.48</course>
  <speed>0.0</speed>
  <fix>3d</fix>
</trkpt>
<trkpt lat="40.0728218" lon="-105.2306317">
  <ele>1586.2</ele>
  <time>2026-08-27T18:29:13Z</time>
  <course>37.08</course>
  <speed>0.01</speed>
  <fix>3d</fix>
</trkpt>
<trkpt lat="40.0728219" lon="-105.2306318">
  <ele>1586.11</ele>
  <time>2026-08-27T18:29:13Z</time>
  <course>212.76</course>
  <speed>0.0</speed>
  <fix>3d</fix>
</trkpt>
<trkpt lat="40.0728218" lon="-105.2306317">
  <ele>1586.2</ele>
  <time>2026-08-27T18:29:13Z</time>
  <course>37.12</course>
  <speed>0.01</speed>
  <fix>3d</fix>
</trkpt>
<trkpt lat="40.0728219" lon="-105.2306318">
  <ele>1586.11</ele>
  <time>2026-08-27T18:29:13Z</time>
  <course>125.58</course>
  <speed>0.0</speed>
  <fix>3d</fix>
</trkpt>
<trkpt lat="40.0728218" lon="-105.2306317">
  <ele>1586.2</ele>
  <time>2026-08-27T18:29:13Z</time>
  <course>37.16</course>
  <speed>0.01</speed>
  <fix>3d</fix>
</trkpt>
<trkpt lat="40.0728219" lon="-105.2306318">
  <ele>1586.11</ele>
  <time>2026-08-27T18:29:13Z</time>
  <course>124.14</course>
  <speed>0.0</speed>
  <fix>3d</fix>
</trkpt>
<trkpt lat="40.0728218" lon="-105.2306317">
  <ele>1586.2</ele>
  <time>2026-08-27T18:29:13Z</time>
  <course>37.2</course>
  <speed>0.01</speed>
  <fix>3d</fix>
</trkpt>
<trkpt lat="40.0728219" lon="-105.2306318">
  <ele>1586.11</ele>
  <time>2026-08-27T18:29:13Z</time>
  <course>306.31</course>
  <speed>0.0</speed>
  <fix>3d</fix>
</trkpt>
<trkpt lat="40.0728218" lon="-105.2306317">
  <ele>1586.21</ele>
  <time>2026-08-27T18:29:13Z</time>
  <course>37.23</course>
  <speed>0.01</speed>
  <fix>3d</fix>
</trkpt>
<trkpt lat="40.0728219" lon="-105.2306318">
  <ele>1586.11</ele>
  <time>2026-08-27T18:29:13Z</time>
  <course>295.67</course>
  <speed>0.0</speed>
  <fix>3d</fix>
</trkpt>
<trkpt lat="40.0728218" lon="-105.2306317">
  <ele>1586.21</ele>
  <time>2026-08-27T18:29:13Z</time>
  <course>37.26</course>
  <speed>0.01</speed>
  <fix>3d</fix>
</trkpt>
<trkpt lat="40.0728219" lon="-105.2306318">
  <ele>1586.11</ele>
  <time>2026-08-27T18:29:13Z</time>
  <course>145.04</course>
  <speed>0.0</speed>
  <fix>3d</fix>
</trkpt>
<trkpt lat="40.0728218" lon="-105.2306317">
  <ele>1586.21</ele>
  <time>2026-08-27T18:29:13Z</time>
  <course>37.29</course>
  <speed>0.02</speed>
  <fix>3d</fix>
</trkpt>
<trkpt lat="40.0728219" lon="-105.2306318">
  <ele>1586.11</ele>
  <time>2026-08-27T18:29:13Z</time>
  <course>116.32</course>
  <speed>0.0</speed>
  <fix>3d</fix>
</trkpt>
<trkpt lat="40.0728218" lon="-105.2306317">
  <ele>1586.21</ele>
  <time>2026-08-27T18:29:13Z</time>
  <course>37.32</course>
  <speed>0.02</speed>
  <fix>3d</fix>
</trkpt>
<trkpt lat="40.0728219" lon="-105.2306318">
  <ele>1586.11</ele>
  <time>2026-08-27T18:29:13Z</time>
  <course>118.88</course>
  <speed>0.0</speed>
  <fix>3d</fix>
</trkpt>
<trkpt lat="40.0728218" lon="-105.2306317">
  <ele>1586.21</ele>
  <time>2026-08-27T18:29:13Z</time>
  <course>37.34</course>
  <speed>0.02</speed>
  <fix>3d</fix>
</trkpt>
<trkpt lat="40.0728219" lon="-105.2306318">
  <ele>1586.11</ele>
  <time>2026-08-27T18:29:13Z</time>
  <course>122.89</course>
  <speed>0.0</speed>
  <fix>3d</fix>
</trkpt>
<trkpt lat="40.0728218" lon="-105.2306317">
  <ele>1586.21</ele>
  <time>2026-08-27T18:29:13Z</time>
  <course>37.36</course>
  <speed>0.02</speed>
  <fix>3d</fix>
</trkpt>
<trkpt lat="40.0728219" lon="-105.2306318">
  <ele>1586.11</ele>
  <time>2026-08-27T18:29:13Z</time>
  <course>121.71</course>
  <speed>0.0</speed>
  <fix>3d</fix>
</trkpt>
<trkpt lat="40.0728218" lon="-105.2306317">
  <ele>1586.21</ele>
  <time>2026-08-27T18:29:13Z</time>
  <course>37.38</course>
  <speed>0.02</speed>
  <fix>3d</fix>
</trkpt>
<trkpt lat="40.0728219" lon="-105.2306318">
  <ele>1586.11</ele>
  <time>2026-08-27T18:29:13Z</time>
  <course>121.12</course>
  <speed>0.0</speed>
  <fix>3d</fix>
</trkpt>
<trkpt lat="40.0728218" lon="-105.2306317">
  <ele>1586.21</ele>
  <time>2026-08-27T18:29:13Z</time>
  <course>37.39</course>
  <speed>0.02</speed>
  <fix>3d</fix>
</trkpt>
<trkpt lat="40.0728219" lon="-105.2306318">
  <ele>1586.11</ele>
  <time>2026-08-27T18:29:13Z</time>
  <course>121.09</course>
  <speed>0.0</speed>
  <fix>3d</fix>
</trkpt>
<trkpt lat="40.0728218" lon="-105.2306317">
  <ele>1586.21</ele>
  <time>2026-08-27T18:29:13Z</time>
  <course>37.41</course>
  <speed>0.02</speed>
  <fix>3d</fix>
</trkpt>
<trkpt lat="40.0728219" lon="-105.2306318">
  <ele>1586.11</ele>
  <time>2026-08-27T18:29:13Z</time>
  <course>121.15</course>
  <speed>0.0</speed>
  <fix>3d</fix>
</trkpt>
<trkpt lat="40.0728218" lon="-105.2306317">
  <ele>1586.21</ele>
  <time>2026-08-27T18:29:13Z</time>
  <course>37.42</course>
  <speed>0.02</speed>
  <fix>3d</fix>
</trkpt>
<trkpt lat="40.0728219" lon="-105.2306318">
  <ele>1586.11</ele>
  <time>2026-08-27T18:29:13Z</time>
  <course>121.13</course>
  <speed>0.0</speed>
  <fix>3d</fix>
</trkpt>
<trkpt lat="40.0728218" lon="-105.2306317">
  <ele>1586.21</ele>
  <time>2026-08-27T18:29:13Z</time>
  <course>37.42</course>
  <speed>0.02</speed>
  <fix>3d</fix>
</trkpt>
<trkpt lat="40.0728219" lon="-105.2306318">
  <ele>1586.11</ele>
  <time>2026-08-27T18:29:13Z</time>
  <course>121.04</course>
  <speed>0.0</speed>
  <fix>3d</fix>
</trkpt>
<trkpt lat="40.0728218" lon="-105.2306317">
  <ele>1586.21</ele>
  <time>2026-08-27T18:29:13Z</time>
  <course>37.43</course>
  <speed>0.02</speed>
  <fix>3d</fix>
</trkpt>
<trkpt lat="40.0728219" lon="-105.2306318">
  <ele>1586.11</ele>
  <time>2026-08-27T18:29:13Z</time>
  <course>120.97</course>
  <speed>0.0</speed>
  <fix>3d</fix>
</trkpt>
<trkpt lat="40.0728218" lon="-105.2306317">
  <ele>1586.2</ele>
  <time>2026-08-27T18:29:13Z</time>
  <course>37.43</course>
  <speed>0.02</speed>
  <fix>3d</fix>
</trkpt>
<trkpt lat="40.0728219" lon="-105.2306318">
  <ele>1586.11</ele>
  <time>2026-08-27T18:29:13Z</time>
  <course>120.9</course>
  <speed>0.0</speed>
  <fix>3d</fix>
</trkpt>
<trkpt lat="40.0728218" lon="-105.2306317">
  <ele>1586.2</ele>
  <time>2026-08-27T18:29:13Z</time>
  <course>37.43</course>
  <speed>0.02</speed>
  <fix>3d</fix>
</trkpt>
<trkpt lat="40.0728219" lon="-105.2306318">
  <ele>1586.11</ele>
  <time>2026-08-27T18:29:13Z</time>
  <course>120.83</course>
  <speed>0.0</speed>
  <fix>3d</fix>
</trkpt>
<trkpt lat="40.0728218" lon="-105.2306317">
  <ele>1586.2</ele>
  <time>2026-08-27T18:29:13Z</time>
  <course>37.43</course>
  <speed>0.02</speed>
  <fix>3d</fix>
</trkpt>
<trkpt lat="40.0728219" lon="-105.2306318">
  <ele>1586.11</ele>
  <time>2026-08-27T18:29:13Z</time>
  <course>120.75</course>
  <speed>0.0</speed>
  <fix>3d</fix>
</trkpt>
<trkpt lat="40.0728218" lon="-105.2306317">
  <ele>1586.2</ele>
  <time>2026-08-27T18:29:14Z</time>
  <course>37.43</course>
  <speed>0.02</speed>
  <fix>3d</fix>
</trkpt>
<trkpt lat="40.0728219" lon="-105.2306318">
  <ele>1586.11</ele>
  <time>2026-08-27T18:29:14Z</time>
  <course>120.67</course>
  <speed>0.0</speed>
  <fix>3d</fix>
</trkpt>
<trkpt lat="40.0728218" lon="-105.2306317">
  <ele>1586.19</ele>
  <time>2026-08-27T18:29:14Z</time>
  <course>37.42</course>
  <speed>0.02</speed>
  <fix>3d</fix>
</trkpt>
<trkpt lat="40.0728219" lon="-105.2306318">
  <ele>1586.11</ele>
  <time>2026-08-27T18:29:14Z</time>
  <course>120.58</course>
  <speed>0.0</speed>
  <fix>3d</fix>
</trkpt>
<trkpt lat="40.0728218" lon="-105.2306317">
  <ele>1586.19</ele>
  <time>2026-08-27T18:29:14Z</time>
  <course>37.41</course>
  <speed>0.02</speed>
  <fix>3d</fix>
</trkpt>
<trkpt lat="40.0728219" lon="-105.2306318">
  <ele>1586.11</ele>
  <time>2026-08-27T18:29:14Z</time>
  <course>120.49</course>
  <speed>0.0</speed>
  <fix>3d</fix>
</trkpt>
<trkpt lat="40.0728218" lon="-105.2306317">
  <ele>1586.19</ele>
  <time>2026-08-27T18:29:14Z</time>
  <course>37.4</course>
  <speed>0.02</speed>
  <fix>3d</fix>
</trkpt>
<trkpt lat="40.0728219" lon="-105.2306318">
  <ele>1586.11</ele>
  <time>2026-08-27T18:29:14Z</time>
  <course>120.39</course>
  <speed>0.0</speed>
  <fix>3d</fix>
</trkpt>
<trkpt lat="40.0728218" lon="-105.2306317">
  <ele>1586.19</ele>
  <time>2026-08-27T18:29:14Z</time>
  <course>37.39</course>
  <speed>0.02</speed>
  <fix>3d</fix>
</trkpt>
<trkpt lat="40.0728219" lon="-105.2306318">
  <ele>1586.11</ele>
  <time>2026-08-27T18:29:14Z</time>
  <course>120.29</course>
  <speed>0.0</speed>
  <fix>3d</fix>
</trkpt>
<trkpt lat="40.0728218" lon="-105.2306317">
  <ele>1586.19</ele>
  <time>2026-08-27T18:29:14Z</time>
  <course>37.38</course>
  <speed>0.02</speed>
  <fix>3d</fix>
</trkpt>
<trkpt lat="40.0728219" lon="-105.2306318">
  <ele>1586.11</ele>
  <time>2026-08-27T18:29:14Z</time>
  <course>119.31</course>
  <speed>0.0</speed>
  <fix>3d</fix>
</trkpt>
<trkpt lat="40.0728218" lon="-105.2306317">
  <ele>1586.19</ele>
  <time>2026-08-27T18:29:14Z</time>
  <course>37.36</course>
  <speed>0.02</speed>
  <fix>3d</fix>
</trkpt>
<trkpt lat="40.0728219" lon="-105.2306318">
  <ele>1586.11</ele>
  <time>2026-08-27T18:29:14Z</time>
  <course>300.54</course>
  <speed>0.0</speed>
  <fix>3d</fix>
</trkpt>
<trkpt lat="40.0728218" lon="-105.2306317">
  <ele>1586.19</ele>
  <time>2026-08-27T18:29:14Z</time>
  <course>37.34</course>
  <speed>0.02</speed>
  <fix>3d</fix>
</trkpt>
<trkpt lat="40.0728219" lon="-105.2306318">
  <ele>1586.11</ele>
  <time>2026-08-27T18:29:14Z</time>
  <course>300.67</course>
  <speed>0.0</speed>
  <fix>3d</fix>
</trkpt>
<trkpt lat="40.0728218" lon="-105.2306317">
  <ele>1586.19</ele>
  <time>2026-08-27T18:29:14Z</time>
  <course>37.32</course>
  <speed>0.02</speed>
  <fix>3d</fix>
</trkpt>
<trkpt lat="40.0728219" lon="-105.2306318">
  <ele>1586.11</ele>
  <time>2026-08-27T18:29:14Z</time>
  <course>120.2</course>
  <speed>0.0</speed>
  <fix>3d</fix>
</trkpt>
<trkpt lat="40.0728218" lon="-105.2306317">
  <ele>1586.19</ele>
  <time>2026-08-27T18:29:14Z</time>
  <course>37.3</course>
  <speed>0.03</speed>
  <fix>3d</fix>
</trkpt>
<trkpt lat="40.0728219" lon="-105.2306318">
  <ele>1586.11</ele>
  <time>2026-08-27T18:29:14Z</time>
  <course>120.01</course>
  <speed>0.0</speed>
  <fix>3d</fix>
</trkpt>
<trkpt lat="40.0728218" lon="-105.2306317">
  <ele>1586.19</ele>
  <time>2026-08-27T18:29:14Z</time>
  <course>37.27</course>
  <speed>0.03</speed>
  <fix>3d</fix>
</trkpt>
<trkpt lat="40.0728219" lon="-105.2306318">
  <ele>1586.11</ele>
  <time>2026-08-27T18:29:14Z</time>
  <course>119.76</course>
  <speed>0.0</speed>
  <fix>3d</fix>
</trkpt>
<trkpt lat="40.0728217" lon="-105.2306317">
  <ele>1586.19</ele>
  <time>2026-08-27T18:29:14Z</time>
  <course>37.25</course>
  <speed>0.03</speed>
  <fix>3d</fix>
</trkpt>
<trkpt lat="40.0728219" lon="-105.2306318">
  <ele>1586.11</ele>
  <time>2026-08-27T18:29:14Z</time>
  <course>119.7</course>
  <speed>0.0</speed>
  <fix>3d</fix>
</trkpt>
<trkpt lat="40.0728217" lon="-105.2306317">
  <ele>1586.19</ele>
  <time>2026-08-27T18:29:14Z</time>
  <course>37.22</course>
  <speed>0.03</speed>
  <fix>3d</fix>
</trkpt>
<trkpt lat="40.0728219" lon="-105.2306318">
  <ele>1586.11</ele>
  <time>2026-08-27T18:29:14Z</time>
  <course>300.19</course>
  <speed>0.0</speed>
  <fix>3d</fix>
</trkpt>
<trkpt lat="40.0728217" lon="-105.2306317">
  <ele>1586.19</ele>
  <time>2026-08-27T18:29:14Z</time>
  <course>37.19</course>
  <speed>0.03</speed>
  <fix>3d</fix>
</trkpt>
<trkpt lat="40.0728219" lon="-105.2306318">
  <ele>1586.11</ele>
  <time>2026-08-27T18:29:14Z</time>
  <course>300.11</course>
  <speed>0.0</speed>
  <fix>3d</fix>
</trkpt>
<trkpt lat="40.0728217" lon="-105.2306317">
  <ele>1586.19</ele>
  <time>2026-08-27T18:29:14Z</time>
  <course>37.16</course>
  <speed>0.03</speed>
  <fix>3d</fix>
</trkpt>
<trkpt lat="40.0728219" lon="-105.2306318">
  <ele>1586.11</ele>
  <time>2026-08-27T18:29:14Z</time>
  <course>301.49</course>
  <speed>0.0</speed>
  <fix>3d</fix>
</trkpt>
<trkpt lat="40.0728217" lon="-105.2306317">
  <ele>1586.18</ele>
  <time>2026-08-27T18:29:14Z</time>
  <course>37.12</course>
  <speed>0.03</speed>
  <fix>3d</fix>
</trkpt>
<trkpt lat="40.0728219" lon="-105.2306318">
  <ele>1586.11</ele>
  <time>2026-08-27T18:29:14Z</time>
  <course>119.86</course>
  <speed>0.0</speed>
  <fix>3d</fix>
</trkpt>
<trkpt lat="40.0728217" lon="-105.2306317">
  <ele>1586.18</ele>
  <time>2026-08-27T18:29:14Z</time>
  <course>37.09</course>
  <speed>0.02</speed>
  <fix>3d</fix>
</trkpt>
<trkpt lat="40.0728219" lon="-105.2306318">
  <ele>1586.11</ele>
  <time>2026-08-27T18:29:14Z</time>
  <course>119.48</course>
  <speed>0.0</speed>
  <fix>3d</fix>
</trkpt>
<trkpt lat="40.0728217" lon="-105.2306317">
  <ele>1586.19</ele>
  <time>2026-08-27T18:29:14Z</time>
  <course>37.05</course>
  <speed>0.02</speed>
  <fix>3d</fix>
</trkpt>
<trkpt lat="40.0728219" lon="-105.2306318">
  <ele>1586.11</ele>
  <time>2026-08-27T18:29:14Z</time>
  <course>299.79</course>
  <speed>0.0</speed>
  <fix>3d</fix>
</trkpt>
<trkpt lat="40.0728217" lon="-105.2306317">
  <ele>1586.19</ele>
  <time>2026-08-27T18:29:14Z</time>
  <course>37.01</course>
  <speed>0.02</speed>
  <fix>3d</fix>
</trkpt>
<trkpt lat="40.0728219" lon="-105.2306318">
  <ele>1586.11</ele>
  <time>2026-08-27T18:29:14Z</time>
  <course>299.71</course>
  <speed>0.0</speed>
  <fix>3d</fix>
</trkpt>
<trkpt lat="40.0728217" lon="-105.2306317">
  <ele>1586.19</ele>
  <time>2026-08-27T18:29:14Z</time>
  <course>36.97</course>
  <speed>0.02</speed>
  <fix>3d</fix>
</trkpt>
<trkpt lat="40.0728219" lon="-105.2306318">
  <ele>1586.11</ele>
  <time>2026-08-27T18:29:14Z</time>
  <course>120.11</course>
  <speed>0.0</speed>
  <fix>3d</fix>
</trkpt>
<trkpt lat="40.0728217" lon="-105.2306317">
  <ele>1586.19</ele>
  <time>2026-08-27T18:29:14Z</time>
  <course>36.93</course>
  <speed>0.02</speed>
  <fix>3d</fix>
</trkpt>
<trkpt lat="40.0728219" lon="-105.2306318">
  <ele>1586.11</ele>
  <time>2026-08-27T18:29:14Z</time>
  <course>120.17</course>
  <speed>0.0</speed>
  <fix>3d</fix>
</trkpt>
<trkpt lat="40.0728217" lon="-105.2306317">
  <ele>1586.19</ele>
  <time>2026-08-27T18:29:14Z</time>
  <course>36.9</course>
  <speed>0.02</speed>
  <fix>3d</fix>
</trkpt>
<trkpt lat="40.0728219" lon="-105.2306318">
  <ele>1586.11</ele>
  <time>2026-08-27T18:29:14Z</time>
  <course>299.42</course>
  <speed>0.0</speed>
  <fix>3d</fix>
</trkpt>
<trkpt lat="40.0728217" lon="-105.2306317">
  <ele>1586.19</ele>
  <time>2026-08-27T18:29:14Z</time>
  <course>36.86</course>
  <speed>0.02</speed>
  <fix>3d</fix>
</trkpt>
<trkpt lat="40.0728219" lon="-105.2306318">
  <ele>1586.11</ele>
  <time>2026-08-27T18:29:14Z</time>
  <course>299.32</course>
  <speed>0.0</speed>
  <fix>3d</fix>
</trkpt>
<trkpt lat="40.0728217" lon="-105.2306317">
  <ele>1586.19</ele>
  <time>2026-08-27T18:29:14Z</time>
  <course>36.82</course>
  <speed>0.02</speed>
  <fix>3d</fix>
</trkpt>
<trkpt lat="40.0728219" lon="-105.2306318">
  <ele>1586.11</ele>
  <time>2026-08-27T18:29:14Z</time>
  <course>120.89</course>
  <speed>0.0</speed>
  <fix>3d</fix>
</trkpt>
<trkpt lat="40.0728217" lon="-105.2306317">
  <ele>1586.19</ele>
  <time>2026-08-27T18:29:14Z</time>
  <course>36.78</course>
  <speed>0.02</speed>
  <fix>3d</fix>
</trkpt>
<trkpt lat="40.0728219" lon="-105.2306318">
  <ele>1586.11</ele>
  <time>2026-08-27T18:29:14Z</time>
  <course>121.8</course>
  <speed>0.0</speed>
  <fix>3d</fix>
</trkpt>
<trkpt lat="40.0728217" lon="-105.2306317">
  <ele>1586.19</ele>
  <time>2026-08-27T18:29:14Z</time>
  <course>36.74</course>
  <speed>0.02</speed>
  <fix>3d</fix>
</trkpt>
<trkpt lat="40.0728219" lon="-105.2306318">
  <ele>1586.11</ele>
  <time>2026-08-27T18:29:14Z</time>
  <course>296.3</course>
  <speed>0.0</speed>
  <fix>3d</fix>
</trkpt>
<trkpt lat="40.0728217" lon="-105.2306317">
  <ele>1586.19</ele>
  <time>2026-08-27T18:29:14Z</time>
  <course>36.7</course>
  <speed>0.02</speed>
  <fix>3d</fix>
</trkpt>
<trkpt lat="40.0728219" lon="-105.2306318">
  <ele>1586.11</ele>
  <time>2026-08-27T18:29:14Z</time>
  <course>293.79</course>
  <speed>0.0</speed>
  <fix>3d</fix>
</trkpt>
<trkpt lat="40.0728217" lon="-105.2306317">
  <ele>1586.19</ele>
  <time>2026-08-27T18:29:14Z</time>
  <course>36.66</course>
  <speed>0.02</speed>
  <fix>3d</fix>
</trkpt>
<trkpt lat="40.0728219" lon="-105.2306318">
  <ele>1586.11</ele>
  <time>2026-08-27T18:29:14Z</time>
  <course>288.61</course>
  <speed>0.0</speed>
  <fix>3d</fix>
</trkpt>
<trkpt lat="40.0728217" lon="-105.2306317">
  <ele>1586.18</ele>
  <time>2026-08-27T18:29:14Z</time>
  <course>36.62</course>
  <speed>0.02</speed>
  <fix>3d</fix>
</trkpt>
<trkpt lat="40.0728219" lon="-105.2306318">
  <ele>1586.11</ele>
  <time>2026-08-27T18:29:14Z</time>
  <course>291.04</course>
  <speed>0.0</speed>
  <fix>3d</fix>
</trkpt>
<trkpt lat="40.0728217" lon="-105.2306317">
  <ele>1586.18</ele>
  <time>2026-08-27T18:29:14Z</time>
  <course>36.59</course>
  <speed>0.02</speed>
  <fix>3d</fix>
</trkpt>
<trkpt lat="40.0728219" lon="-105.2306318">
  <ele>1586.11</ele>
  <time>2026-08-27T18:29:14Z</time>
  <course>298.75</course>
  <speed>0.0</speed>
  <fix>3d</fix>
</trkpt>
<trkpt lat="40.0728217" lon="-105.2306317">
  <ele>1586.18</ele>
  <time>2026-08-27T18:29:14Z</time>
  <course>36.55</course>
  <speed>0.02</speed>
  <fix>3d</fix>
</trkpt>
<trkpt lat="40.0728219" lon="-105.2306318">
  <ele>1586.11</ele>
  <time>2026-08-27T18:29:14Z</time>
  <course>298.77</course>
  <speed>0.0</speed>
  <fix>3d</fix>
</trkpt>
<trkpt lat="40.0728217" lon="-105.2306317">
  <ele>1586.18</ele>
  <time>2026-08-27T18:29:14Z</time>
  <course>36.51</course>
  <speed>0.02</speed>
  <fix>3d</fix>
</trkpt>
<trkpt lat="40.0728219" lon="-105.2306318">
  <ele>1586.11</ele>
  <time>2026-08-27T18:29:14Z</time>
  <course>298.06</course>
  <speed>0.0</speed>
  <fix>3d</fix>
</trkpt>
<trkpt lat="40.0728217" lon="-105.2306317">
  <ele>1586.18</ele>
  <time>2026-08-27T18:29:14Z</time>
  <course>36.47</course>
  <speed>0.02</speed>
  <fix>3d</fix>
</trkpt>
<trkpt lat="40.0728219" lon="-105.2306318">
  <ele>1586.11</ele>
  <time>2026-08-27T18:29:14Z</time>
  <course>120.98</course>
  <speed>0.0</speed>
  <fix>3d</fix>
</trkpt>
<trkpt lat="40.0728217" lon="-105.2306317">
  <ele>1586.18</ele>
  <time>2026-08-27T18:29:14Z</time>
  <course>36.43</course>
  <speed>0.02</speed>
  <fix>3d</fix>
</trkpt>
<trkpt lat="40.0728219" lon="-105.2306318">
  <ele>1586.11</ele>
  <time>2026-08-27T18:29:14Z</time>
  <course>298.41</course>
  <speed>0.0</speed>
  <fix>3d</fix>
</trkpt>
<trkpt lat="40.0728217" lon="-105.2306317">
  <ele>1586.17</ele>
  <time>2026-08-27T18:29:14Z</time>
  <course>36.39</course>
  <speed>0.02</speed>
  <fix>3d</fix>
</trkpt>
<trkpt lat="40.0728219" lon="-105.2306318">
  <ele>1586.11</ele>
  <time>2026-08-27T18:29:14Z</time>
  <course>298.45</course>
  <speed>0.0</speed>
  <fix>3d</fix>
</trkpt>
<trkpt lat="40.0728217" lon="-105.2306317">
  <ele>1586.17</ele>
  <time>2026-08-27T18:29:14Z</time>
  <course>36.35</course>
  <speed>0.02</speed>
  <fix>3d</fix>
</trkpt>
<trkpt lat="40.0728219" lon="-105.2306318">
  <ele>1586.11</ele>
  <time>2026-08-27T18:29:14Z</time>
  <course>297.15</course>
  <speed>0.0</speed>
  <fix>3d</fix>
</trkpt>
<trkpt lat="40.0728217" lon="-105.2306317">
  <ele>1586.17</ele>
  <time>2026-08-27T18:29:14Z</time>
  <course>36.32</course>
  <speed>0.02</speed>
  <fix>3d</fix>
</trkpt>
<trkpt lat="40.0728219" lon="-105.2306318">
  <ele>1586.11</ele>
  <time>2026-08-27T18:29:14Z</time>
  <course>122.44</course>
  <speed>0.0</speed>
  <fix>3d</fix>
</trkpt>
<trkpt lat="40.0728218" lon="-105.2306317">
  <ele>1586.17</ele>
  <time>2026-08-27T18:29:14Z</time>
  <course>36.28</course>
  <speed>0.02</speed>
  <fix>3d</fix>
</trkpt>
<trkpt lat="40.0728219" lon="-105.2306318">
  <ele>1586.11</ele>
  <time>2026-08-27T18:29:14Z</time>
  <course>298.1</course>
  <speed>0.0</speed>
  <fix>3d</fix>
</trkpt>
<trkpt lat="40.0728218" lon="-105.2306317">
  <ele>1586.17</ele>
  <time>2026-08-27T18:29:14Z</time>
  <course>36.24</course>
  <speed>0.02</speed>
  <fix>3d</fix>
</trkpt>
<trkpt lat="40.0728219" lon="-105.2306318">
  <ele>1586.11</ele>
  <time>2026-08-27T18:29:14Z</time>
  <course>298.13</course>
  <speed>0.0</speed>
  <fix>3d</fix>
</trkpt>
<trkpt lat="40.0728218" lon="-105.2306317">
  <ele>1586.17</ele>
  <time>2026-08-27T18:29:14Z</time>
  <course>36.2</course>
  <speed>0.02</speed>
  <fix>3d</fix>
</trkpt>
<trkpt lat="40.0728219" lon="-105.2306318">
  <ele>1586.11</ele>
  <time>2026-08-27T18:29:14Z</time>
  <course>295.64</course>
  <speed>0.0</speed>
  <fix>3d</fix>
</trkpt>
<trkpt lat="40.0728218" lon="-105.2306317">
  <ele>1586.18</ele>
  <time>2026-08-27T18:29:14Z</time>
  <course>36.16</course>
  <speed>0.02</speed>
  <fix>3d</fix>
</trkpt>
<trkpt lat="40.0728219" lon="-105.2306318">
  <ele>1586.11</ele>
  <time>2026-08-27T18:29:14Z</time>
  <course>127.01</course>
  <speed>0.0</speed>
  <fix>3d</fix>
</trkpt>
<trkpt lat="40.0728218" lon="-105.2306317">
  <ele>1586.18</ele>
  <time>2026-08-27T18:29:14Z</time>
  <course>36.13</course>
  <speed>0.02</speed>
  <fix>3d</fix>
</trkpt>
<trkpt lat="40.0728219" lon="-105.2306318">
  <ele>1586.11</ele>
  <time>2026-08-27T18:29:14Z</time>
  <course>297.77</course>
  <speed>0.0</speed>
  <fix>3d</fix>
</trkpt>
<trkpt lat="40.0728218" lon="-105.2306317">
  <ele>1586.18</ele>
  <time>2026-08-27T18:29:14Z</time>
  <course>36.09</course>
  <speed>0.02</speed>
  <fix>3d</fix>
</trkpt>
<trkpt lat="40.0728219" lon="-105.2306318">
  <ele>1586.11</ele>
  <time>2026-08-27T18:29:14Z</time>
  <course>297.82</course>
  <speed>0.0</speed>
  <fix>3d</fix>
</trkpt>
<trkpt lat="40.0728218" lon="-105.2306317">
  <ele>1586.18</ele>
  <time>2026-08-27T18:29:14Z</time>
  <course>36.05</course>
  <speed>0.02</speed>
  <fix>3d</fix>
</trkpt>
<trkpt lat="40.0728219" lon="-105.2306318">
  <ele>1586.11</ele>
  <time>2026-08-27T18:29:14Z</time>
  <course>295.69</course>
  <speed>0.0</speed>
  <fix>3d</fix>
</trkpt>
<trkpt lat="40.0728218" lon="-105.2306317">
  <ele>1586.18</ele>
  <time>2026-08-27T18:29:14Z</time>
  <course>36.01</course>
  <speed>0.02</speed>
  <fix>3d</fix>
</trkpt>
<trkpt lat="40.0728219" lon="-105.2306318">
  <ele>1586.11</ele>
  <time>2026-08-27T18:29:14Z</time>
  <course>135.07</course>
  <speed>0.0</speed>
  <fix>3d</fix>
</trkpt>
<trkpt lat="40.0728218" lon="-105.2306317">
  <ele>1586.18</ele>
  <time>2026-08-27T18:29:14Z</time>
  <course>35.98</course>
  <speed>0.02</speed>
  <fix>3d</fix>
</trkpt>
<trkpt lat="40.0728219" lon="-105.2306318">
  <ele>1586.11</ele>
  <time>2026-08-27T18:29:14Z</time>
  <course>296.43</course>
  <speed>0.0</speed>
  <fix>3d</fix>
</trkpt>
<trkpt lat="40.0728218" lon="-105.2306317">
  <ele>1586.18</ele>
  <time>2026-08-27T18:29:14Z</time>
  <course>35.94</course>
  <speed>0.02</speed>
  <fix>3d</fix>
</trkpt>
<trkpt lat="40.0728219" lon="-105.2306318">
  <ele>1586.11</ele>
  <time>2026-08-27T18:29:14Z</time>
  <course>297.39</course>
  <speed>0.0</speed>
  <fix>3d</fix>
</trkpt>
<trkpt lat="40.0728218" lon="-105.2306317">
  <ele>1586.18</ele>
  <time>2026-08-27T18:29:14Z</time>
  <course>35.91</course>
  <speed>0.02</speed>
  <fix>3d</fix>
</trkpt>
<trkpt lat="40.0728219" lon="-105.2306318">
  <ele>1586.11</ele>
  <time>2026-08-27T18:29:14Z</time>
  <course>297.04</course>
  <speed>0.0</speed>
  <fix>3d</fix>
</trkpt>
<trkpt lat="40.0728218" lon="-105.2306317">
  <ele>1586.19</ele>
  <time>2026-08-27T18:29:14Z</time>
  <course>35.87</course>
  <speed>0.02</speed>
  <fix>3d</fix>
</trkpt>
<trkpt lat="40.0728219" lon="-105.2306318">
  <ele>1586.11</ele>
  <time>2026-08-27T18:29:14Z</time>
  <course>148.98</course>
  <speed>0.0</speed>
  <fix>3d</fix>
</trkpt>
<trkpt lat="40.0728218" lon="-105.2306317">
  <ele>1586.19</ele>
  <time>2026-08-27T18:29:14Z</time>
  <course>35.83</course>
  <speed>0.02</speed>
  <fix>3d</fix>
</trkpt>
<trkpt lat="40.0728219" lon="-105.2306318">
  <ele>1586.11</ele>
  <time>2026-08-27T18:29:14Z</time>
  <course>291.94</course>
  <speed>0.0</speed>
  <fix>3d</fix>
</trkpt>
<trkpt lat="40.0728218" lon="-105.2306317">
  <ele>1586.19</ele>
  <time>2026-08-27T18:29:14Z</time>
  <course>35.8</course>
  <speed>0.02</speed>
  <fix>3d</fix>
</trkpt>
<trkpt lat="40.0728219" lon="-105.2306318">
  <ele>1586.11</ele>
  <time>2026-08-27T18:29:14Z</time>
  <course>297.04</course>
  <speed>0.0</speed>
  <fix>3d</fix>
</trkpt>
<trkpt lat="40.0728218" lon="-105.2306317">
  <ele>1586.19</ele>
  <time>2026-08-27T18:29:14Z</time>
  <course>35.76</course>
  <speed>0.02</speed>
  <fix>3d</fix>
</trkpt>
<trkpt lat="40.0728219" lon="-105.2306318">
  <ele>1586.11</ele>
  <time>2026-08-27T18:29:14Z</time>
  <course>296.92</course>
  <speed>0.0</speed>
  <fix>3d</fix>
</trkpt>
<trkpt lat="40.0728218" lon="-105.2306317">
  <ele>1586.19</ele>
  <time>2026-08-27T18:29:14Z</time>
  <course>35.72</course>
  <speed>0.02</speed>
  <fix>3d</fix>
</trkpt>
<trkpt lat="40.0728219" lon="-105.2306318">
  <ele>1586.11</ele>
  <time>2026-08-27T18:29:14Z</time>
  <course>275.85</course>
  <speed>0.0</speed>
  <fix>3d</fix>
</trkpt>
<trkpt lat="40.0728218" lon="-105.2306317">
  <ele>1586.19</ele>
  <time>2026-08-27T18:29:14Z</time>
  <course>35.69</course>
  <speed>0.02</speed>
  <fix>3d</fix>
</trkpt>
<trkpt lat="40.0728219" lon="-105.2306318">
  <ele>1586.11</ele>
  <time>2026-08-27T18:29:14Z</time>
  <course>290.98</course>
  <speed>0.0</speed>
  <fix>3d</fix>
</trkpt>
<trkpt lat="40.0728218" lon="-105.2306317">
  <ele>1586.19</ele>
  <time>2026-08-27T18:29:14Z</time>
  <course>35.65</course>
  <speed>0.02</speed>
  <fix>3d</fix>
</trkpt>
<trkpt lat="40.0728219" lon="-105.2306318">
  <ele>1586.11</ele>
  <time>2026-08-27T18:29:14Z</time>
  <course>296.83</course>
  <speed>0.0</speed>
  <fix>3d</fix>
</trkpt>
<trkpt lat="40.0728218" lon="-105.2306317">
  <ele>1586.19</ele>
  <time>2026-08-27T18:29:14Z</time>
  <course>35.62</course>
  <speed>0.02</speed>
  <fix>3d</fix>
</trkpt>
<trkpt lat="40.0728219" lon="-105.2306318">
  <ele>1586.11</ele>
  <time>2026-08-27T18:29:14Z</time>
  <course>296.8</course>
  <speed>0.0</speed>
  <fix>3d</fix>
</trkpt>
<trkpt lat="40.0728218" lon="-105.2306317">
  <ele>1586.19</ele>
  <time>2026-08-27T18:29:14Z</time>
  <course>35.58</course>
  <speed>0.02</speed>
  <fix>3d</fix>
</trkpt>
<trkpt lat="40.0728219" lon="-105.2306318">
  <ele>1586.11</ele>
  <time>2026-08-27T18:29:14Z</time>
  <course>291.45</course>
  <speed>0.0</speed>
  <fix>3d</fix>
</trkpt>
<trkpt lat="40.0728218" lon="-105.2306317">
  <ele>1586.2</ele>
  <time>2026-08-27T18:29:14Z</time>
  <course>35.55</course>
  <speed>0.02</speed>
  <fix>3d</fix>
</trkpt>
<trkpt lat="40.0728219" lon="-105.2306318">
  <ele>1586.11</ele>
  <time>2026-08-27T18:29:14Z</time>
  <course>289.05</course>
  <speed>0.0</speed>
  <fix>3d</fix>
</trkpt>
<trkpt lat="40.0728218" lon="-105.2306317">
  <ele>1586.2</ele>
  <time>2026-08-27T18:29:14Z</time>
  <course>35.51</course>
  <speed>0.02</speed>
  <fix>3d</fix>
</trkpt>
<trkpt lat="40.0728219" lon="-105.2306318">
  <ele>1586.11</ele>
  <time>2026-08-27T18:29:14Z</time>
  <course>296.54</course>
  <speed>0.0</speed>
  <fix>3d</fix>
</trkpt>
<trkpt lat="40.0728218" lon="-105.2306317">
  <ele>1586.19</ele>
  <time>2026-08-27T18:29:14Z</time>
  <course>35.48</course>
  <speed>0.02</speed>
  <fix>3d</fix>
</trkpt>
<trkpt lat="40.0728219" lon="-105.2306318">
  <ele>1586.11</ele>
  <time>2026-08-27T18:29:14Z</time>
  <course>296.63</course>
  <speed>0.0</speed>
  <fix>3d</fix>
</trkpt>
<trkpt lat="40.0728218" lon="-105.2306317">
  <ele>1586.19</ele>
  <time>2026-08-27T18:29:14Z</time>
  <course>35.44</course>
  <speed>0.02</speed>
  <fix>3d</fix>
</trkpt>
<trkpt lat="40.0728219" lon="-105.2306318">
  <ele>1586.11</ele>
  <time>2026-08-27T18:29:14Z</time>
  <course>294.65</course>
  <speed>0.0</speed>
  <fix>3d</fix>
</trkpt>
<trkpt lat="40.0728218" lon="-105.2306317">
  <ele>1586.19</ele>
  <time>2026-08-27T18:29:14Z</time>
  <course>35.41</course>
  <speed>0.02</speed>
  <fix>3d</fix>
</trkpt>
<trkpt lat="40.0728219" lon="-105.2306318">
  <ele>1586.11</ele>
  <time>2026-08-27T18:29:14Z</time>
  <course>285.94</course>
  <speed>0.0</speed>
  <fix>3d</fix>
</trkpt>
<trkpt lat="40.0728218" lon="-105.2306317">
  <ele>1586.19</ele>
  <time>2026-08-27T18:29:14Z</time>
  <course>35.38</course>
  <speed>0.02</speed>
  <fix>3d</fix>
</trkpt>
<trkpt lat="40.0728219" lon="-105.2306318">
  <ele>1586.11</ele>
  <time>2026-08-27T18:29:14Z</time>
  <course>293.6</course>
  <speed>0.0</speed>
  <fix>3d</fix>
</trkpt>
<trkpt lat="40.0728218" lon="-105.2306317">
  <ele>1586.19</ele>
  <time>2026-08-27T18:29:14Z</time>
  <course>35.34</course>
  <speed>0.02</speed>
  <fix>3d</fix>
</trkpt>
<trkpt lat="40.0728219" lon="-105.2306318">
  <ele>1586.11</ele>
  <time>2026-08-27T18:29:14Z</time>
  <course>296.25</course>
  <speed>0.0</speed>
  <fix>3d</fix>
</trkpt>
<trkpt lat="40.0728218" lon="-105.2306317">
  <ele>1586.19</ele>
  <time>2026-08-27T18:29:14Z</time>
  <course>35.31</course>
  <speed>0.02</speed>
  <fix>3d</fix>
</trkpt>
<trkpt lat="40.0728219" lon="-105.2306318">
  <ele>1586.11</ele>
  <time>2026-08-27T18:29:14Z</time>
  <course>296.25</course>
  <speed>0.0</speed>
  <fix>3d</fix>
</trkpt>
<trkpt lat="40.0728218" lon="-105.2306317">
  <ele>1586.19</ele>
  <time>2026-08-27T18:29:14Z</time>
  <course>35.27</course>
  <speed>0.02</speed>
  <fix>3d</fix>
</trkpt>
<trkpt lat="40.0728219" lon="-105.2306318">
  <ele>1586.11</ele>
  <time>2026-08-27T18:29:14Z</time>
  <course>292.89</course>
  <speed>0.0</speed>
  <fix>3d</fix>
</trkpt>
<trkpt lat="40.0728218" lon="-105.2306317">
  <ele>1586.19</ele>
  <time>2026-08-27T18:29:14Z</time>
  <course>35.24</course>
  <speed>0.02</speed>
  <fix>3d</fix>
</trkpt>
<trkpt lat="40.0728219" lon="-105.2306318">
  <ele>1586.11</ele>
  <time>2026-08-27T18:29:14Z</time>
  <course>290.02</course>
  <speed>0.0</speed>
  <fix>3d</fix>
</trkpt>
<trkpt lat="40.0728218" lon="-105.2306317">
  <ele>1586.19</ele>
  <time>2026-08-27T18:29:14Z</time>
  <course>35.21</course>
  <speed>0.02</speed>
  <fix>3d</fix>
</trkpt>
<trkpt lat="40.0728219" lon="-105.2306318">
  <ele>1586.11</ele>
  <time>2026-08-27T18:29:14Z</time>
  <course>295.58</course>
  <speed>0.0</speed>
  <fix>3d</fix>
</trkpt>
<trkpt lat="40.0728218" lon="-105.2306317">
  <ele>1586.19</ele>
  <time>2026-08-27T18:29:14Z</time>
  <course>35.17</course>
  <speed>0.02</speed>
  <fix>3d</fix>
</trkpt>
<trkpt lat="40.0728219" lon="-105.2306318">
  <ele>1586.11</ele>
  <time>2026-08-27T18:29:14Z</time>
  <course>296.01</course>
  <speed>0.0</speed>
  <fix>3d</fix>
</trkpt>
<trkpt lat="40.0728218" lon="-105.2306317">
  <ele>1586.19</ele>
  <time>2026-08-27T18:29:14Z</time>
  <course>35.14</course>
  <speed>0.02</speed>
  <fix>3d</fix>
</trkpt>
<trkpt lat="40.0728219" lon="-105.2306318">
  <ele>1586.11</ele>
  <time>2026-08-27T18:29:14Z</time>
  <course>295.27</course>
  <speed>0.0</speed>
  <fix>3d</fix>
</trkpt>
<trkpt lat="40.0728218" lon="-105.2306317">
  <ele>1586.19</ele>
  <time>2026-08-27T18:29:14Z</time>
  <course>35.11</course>
  <speed>0.02</speed>
  <fix>3d</fix>
</trkpt>
<trkpt lat="40.0728219" lon="-105.2306318">
  <ele>1586.11</ele>
  <time>2026-08-27T18:29:14Z</time>
  <course>287.67</course>
  <speed>0.0</speed>
  <fix>3d</fix>
</trkpt>
<trkpt lat="40.0728218" lon="-105.2306317">
  <ele>1586.19</ele>
  <time>2026-08-27T18:29:14Z</time>
  <course>35.08</course>
  <speed>0.02</speed>
  <fix>3d</fix>
</trkpt>
<trkpt lat="40.0728219" lon="-105.2306318">
  <ele>1586.11</ele>
  <time>2026-08-27T18:29:14Z</time>
  <course>292.81</course>
  <speed>0.0</speed>
  <fix>3d</fix>
</trkpt>
<trkpt lat="40.0728218" lon="-105.2306317">
  <ele>1586.19</ele>
  <time>2026-08-27T18:29:14Z</time>
  <course>35.04</course>
  <speed>0.02</speed>
  <fix>3d</fix>
</trkpt>
<trkpt lat="40.0728219" lon="-105.2306318">
  <ele>1586.11</ele>
  <time>2026-08-27T18:29:14Z</time>
  <course>295.7</course>
  <speed>0.0</speed>
  <fix>3d</fix>
</trkpt>
<trkpt lat="40.0728218" lon="-105.2306317">
  <ele>1586.19</ele>
  <time>2026-08-27T18:29:14Z</time>
  <course>35.01</course>
  <speed>0.02</speed>
  <fix>3d</fix>
</trkpt>
<trkpt lat="40.0728219" lon="-105.2306318">
  <ele>1586.11</ele>
  <time>2026-08-27T18:29:14Z</time>
  <course>293.9</course>
  <speed>0.0</speed>
  <fix>3d</fix>
</trkpt>
<trkpt lat="40.0728218" lon="-105.2306317">
  <ele>1586.19</ele>
  <time>2026-08-27T18:29:14Z</time>
  <course>34.98</course>
  <speed>0.02</speed>
  <fix>3d</fix>
</trkpt>
<trkpt lat="40.0728219" lon="-105.2306318">
  <ele>1586.11</ele>
  <time>2026-08-27T18:29:14Z</time>
  <course>277.55</course>
  <speed>0.0</speed>
  <fix>3d</fix>
</trkpt>
<trkpt lat="40.0728218" lon="-105.2306317">
  <ele>1586.19</ele>
  <time>2026-08-27T18:29:14Z</time>
  <course>34.95</course>
  <speed>0.02</speed>
  <fix>3d</fix>
</trkpt>
<trkpt lat="40.0728219" lon="-105.2306318">
  <ele>1586.11</ele>
  <time>2026-08-27T18:29:14Z</time>
  <course>301.23</course>
  <speed>0.0</speed>
  <fix>3d</fix>
</trkpt>
<trkpt lat="40.0728218" lon="-105.2306317">
  <ele>1586.19</ele>
  <time>2026-08-27T18:29:14Z</time>
  <course>34.92</course>
  <speed>0.02</speed>
  <fix>3d</fix>
</trkpt>
<trkpt lat="40.0728219" lon="-105.2306318">
  <ele>1586.11</ele>
  <time>2026-08-27T18:29:14Z</time>
  <course>300.13</course>
  <speed>0.0</speed>
  <fix>3d</fix>
</trkpt>
<trkpt lat="40.0728218" lon="-105.2306317">
  <ele>1586.19</ele>
  <time>2026-08-27T18:29:14Z</time>
  <course>34.88</course>
  <speed>0.02</speed>
  <fix>3d</fix>
</trkpt>
<trkpt lat="40.0728219" lon="-105.2306318">
  <ele>1586.11</ele>
  <time>2026-08-27T18:29:14Z</time>
  <course>295.9</course>
  <speed>0.0</speed>
  <fix>3d</fix>
</trkpt>
<trkpt lat="40.0728218" lon="-105.2306317">
  <ele>1586.19</ele>
  <time>2026-08-27T18:29:14Z</time>
  <course>34.85</course>
  <speed>0.02</speed>
  <fix>3d</fix>
</trkpt>
<trkpt lat="40.0728219" lon="-105.2306318">
  <ele>1586.11</ele>
  <time>2026-08-27T18:29:14Z</time>
  <course>295.16</course>
  <speed>0.0</speed>
  <fix>3d</fix>
</trkpt>
<trkpt lat="40.0728218" lon="-105.2306317">
  <ele>1586.19</ele>
  <time>2026-08-27T18:29:14Z</time>
  <course>34.82</course>
  <speed>0.02</speed>
  <fix>3d</fix>
</trkpt>
<trkpt lat="40.0728219" lon="-105.2306318">
  <ele>1586.11</ele>
  <time>2026-08-27T18:29:14Z</time>
  <course>290.77</course>
  <speed>0.0</speed>
  <fix>3d</fix>
</trkpt>
<trkpt lat="40.0728218" lon="-105.2306317">
  <ele>1586.19</ele>
  <time>2026-08-27T18:29:14Z</time>
  <course>34.79</course>
  <speed>0.02</speed>
  <fix>3d</fix>
</trkpt>
<trkpt lat="40.0728219" lon="-105.2306318">
  <ele>1586.11</ele>
  <time>2026-08-27T18:29:14Z</time>
  <course>292.04</course>
  <speed>0.0</speed>
  <fix>3d</fix>
</trkpt>
<trkpt lat="40.0728218" lon="-105.2306317">
  <ele>1586.19</ele>
  <time>2026-08-27T18:29:14Z</time>
  <course>34.76</course>
  <speed>0.02</speed>
  <fix>3d</fix>
</trkpt>
<trkpt lat="40.0728219" lon="-105.2306318">
  <ele>1586.11</ele>
  <time>2026-08-27T18:29:14Z</time>
  <course>293.27</course>
  <speed>0.0</speed>
  <fix>3d</fix>
</trkpt>
<trkpt lat="40.0728218" lon="-105.2306317">
  <ele>1586.19</ele>
  <time>2026-08-27T18:29:14Z</time>
  <course>34.73</course>
  <speed>0.02</speed>
  <fix>3d</fix>
</trkpt>
<trkpt lat="40.0728219" lon="-105.2306318">
  <ele>1586.11</ele>
  <time>2026-08-27T18:29:14Z</time>
  <course>295.1</course>
  <speed>0.0</speed>
  <fix>3d</fix>
</trkpt>
<trkpt lat="40.0728218" lon="-105.2306317">
  <ele>1586.19</ele>
  <time>2026-08-27T18:29:14Z</time>
  <course>34.7</course>
  <speed>0.02</speed>
  <fix>3d</fix>
</trkpt>
<trkpt lat="40.0728219" lon="-105.2306318">
  <ele>1586.11</ele>
  <time>2026-08-27T18:29:14Z</time>
  <course>292.42</course>
  <speed>0.0</speed>
  <fix>3d</fix>
</trkpt>
<trkpt lat="40.0728218" lon="-105.2306317">
  <ele>1586.18</ele>
  <time>2026-08-27T18:29:14Z</time>
  <course>34.68</course>
  <speed>0.02</speed>
  <fix>3d</fix>
</trkpt>
<trkpt lat="40.0728219" lon="-105.2306318">
  <ele>1586.11</ele>
  <time>2026-08-27T18:29:14Z</time>
  <course>290.71</course>
  <speed>0.0</speed>
  <fix>3d</fix>
</trkpt>
<trkpt lat="40.0728218" lon="-105.2306317">
  <ele>1586.18</ele>
  <time>2026-08-27T18:29:14Z</time>
  <course>34.66</course>
  <speed>0.02</speed>
  <fix>3d</fix>
</trkpt>
<trkpt lat="40.0728219" lon="-105.2306318">
  <ele>1586.11</ele>
  <time>2026-08-27T18:29:14Z</time>
  <course>295.08</course>
  <speed>0.0</speed>
  <fix>3d</fix>
</trkpt>
<trkpt lat="40.0728218" lon="-105.2306317">
  <ele>1586.18</ele>
  <time>2026-08-27T18:29:14Z</time>
  <course>34.66</course>
  <speed>0.02</speed>
  <fix>3d</fix>
</trkpt>
<trkpt lat="40.0728218" lon="-105.2306317">
  <ele>1586.18</ele>
  <time>2026-08-27T18:29:14Z</time>
  <course>34.63</course>
  <speed>0.02</speed>
  <fix>3d</fix>
</trkpt>
<trkpt lat="40.0728219" lon="-105.2306318">
  <ele>1586.11</ele>
  <time>2026-08-27T18:29:14Z</time>
  <course>294.25</course>
  <speed>0.0</speed>
  <fix>3d</fix>
</trkpt>
<trkpt lat="40.0728218" lon="-105.2306317">
  <ele>1586.18</ele>
  <time>2026-08-27T18:29:14Z</time>
  <course>34.62</course>
  <speed>0.02</speed>
  <fix>3d</fix>
</trkpt>
<trkpt lat="40.0728218" lon="-105.2306317">
  <ele>1586.18</ele>
  <time>2026-08-27T18:29:14Z</time>
  <course>34.58</course>
  <speed>0.02</speed>
  <fix>3d</fix>
</trkpt>
<trkpt lat="40.0728219" lon="-105.2306318">
  <ele>1586.11</ele>
  <time>2026-08-27T18:29:14Z</time>
  <course>293.31</course>
  <speed>0.0</speed>
  <fix>3d</fix>
</trkpt>
<trkpt lat="40.0728218" lon="-105.2306317">
  <ele>1586.18</ele>
  <time>2026-08-27T18:29:14Z</time>
  <course>34.58</course>
  <speed>0.02</speed>
  <fix>3d</fix>
</trkpt>
<trkpt lat="40.0728218" lon="-105.2306317">
  <ele>1586.2</ele>
  <time>2026-08-27T18:29:14Z</time>
  <course>34.51</course>
  <speed>0.02</speed>
  <fix>3d</fix>
</trkpt>
<trkpt lat="40.0728219" lon="-105.2306318">
  <ele>1586.11</ele>
  <time>2026-08-27T18:29:14Z</time>
  <course>293.48</course>
  <speed>0.0</speed>
  <fix>3d</fix>
</trkpt>
<trkpt lat="40.0728218" lon="-105.2306317">
  <ele>1586.21</ele>
  <time>2026-08-27T18:29:14Z</time>
  <course>34.5</course>
  <speed>0.02</speed>
  <fix>3d</fix>
</trkpt>
<trkpt lat="40.0728218" lon="-105.2306317">
  <ele>1586.26</ele>
  <time>2026-08-27T18:29:14Z</time>
  <course>34.42</course>
  <speed>0.02</speed>
  <fix>3d</fix>
</trkpt>
<trkpt lat="40.0728219" lon="-105.2306318">
  <ele>1586.14</ele>
  <time>2026-08-27T18:29:14Z</time>
  <course>295.03</course>
  <speed>0.0</speed>
  <fix>3d</fix>
</trkpt>
<trkpt lat="40.0728218" lon="-105.2306317">
  <ele>1586.27</ele>
  <time>2026-08-27T18:29:14Z</time>
  <course>34.41</course>
  <speed>0.02</speed>
  <fix>3d</fix>
</trkpt>
<trkpt lat="40.0728218" lon="-105.2306317">
  <ele>1586.31</ele>
  <time>2026-08-27T18:29:14Z</time>
  <course>34.33</course>
  <speed>0.02</speed>
  <fix>3d</fix>
</trkpt>
<trkpt lat="40.0728219" lon="-105.2306318">
  <ele>1586.19</ele>
  <time>2026-08-27T18:29:14Z</time>
  <course>355.53</course>
  <speed>0.0</speed>
  <fix>3d</fix>
</trkpt>
<trkpt lat="40.0728218" lon="-105.2306317">
  <ele>1586.32</ele>
  <time>2026-08-27T18:29:14Z</time>
  <course>33.93</course>
  <speed>0.02</speed>
  <fix>3d</fix>
</trkpt>
<trkpt lat="40.0728218" lon="-105.2306318">
  <ele>1586.45</ele>
  <time>2026-08-27T18:29:14Z</time>
  <course>25.8</course>
  <speed>0.07071067811865475</speed>
  <fix>3d</fix>
</trkpt>
<trkpt lat="40.072822" lon="-105.2306318">
  <ele>1586.26</ele>
  <time>2026-08-27T18:29:14Z</time>
  <course>291.86</course>
  <speed>0.02</speed>
  <fix>3d</fix>
</trkpt>
<trkpt lat="40.0728218" lon="-105.2306318">
  <ele>1586.49</ele>
  <time>2026-08-27T18:29:14Z</time>
  <course>24.83</course>
  <speed>0.09219544457292887</speed>
  <fix>3d</fix>
</trkpt>
<trkpt lat="40.0728218" lon="-105.2306321">
  <ele>1586.69</ele>
  <time>2026-08-27T18:29:14Z</time>
  <course>23.57</course>
  <speed>0.1772004514666935</speed>
  <fix>3d</fix>
</trkpt>
<trkpt lat="40.072822" lon="-105.2306319">
  <ele>1586.43</ele>
  <time>2026-08-27T18:29:14Z</time>
  <course>287.37</course>
  <speed>0.11</speed>
  <fix>3d</fix>
</trkpt>
<trkpt lat="40.0728218" lon="-105.2306322">
  <ele>1586.71</ele>
  <time>2026-08-27T18:29:14Z</time>
  <course>23.58</course>
  <speed>0.18681541692269404</speed>
  <fix>3d</fix>
</trkpt>
<trkpt lat="40.072822" lon="-105.2306326">
  <ele>1586.82</ele>
  <time>2026-08-27T18:29:14Z</time>
  <course>23.15</course>
  <speed>0.215870331449229</speed>
  <fix>3d</fix>
</trkpt>
<trkpt lat="40.0728221" lon="-105.2306323">
  <ele>1586.63</ele>
  <time>2026-08-27T18:29:14Z</time>
  <course>284.35</course>
  <speed>0.2</speed>
  <fix>3d</fix>
</trkpt>
<trkpt lat="40.072822" lon="-105.2306326">
  <ele>1586.82</ele>
  <time>2026-08-27T18:29:14Z</time>
  <course>23.13</course>
  <speed>0.215870331449229</speed>
  <fix>3d</fix>
</trkpt>
<trkpt lat="40.0728221" lon="-105.2306331">
  <ele>1586.93</ele>
  <time>2026-08-27T18:29:14Z</time>
  <course>22.23</course>
  <speed>0.24331050121192876</speed>
  <fix>3d</fix>
</trkpt>
<trkpt lat="40.0728222" lon="-105.2306328">
  <ele>1586.77</ele>
  <time>2026-08-27T18:29:14Z</time>
  <course>280.36</course>
  <speed>0.24</speed>
  <fix>3d</fix>
</trkpt>
<trkpt lat="40.0728221" lon="-105.2306332">
  <ele>1586.95</ele>
  <time>2026-08-27T18:29:14Z</time>
  <course>22.15</course>
  <speed>0.25179356624028343</speed>
  <fix>3d</fix>
</trkpt>
<trkpt lat="40.0728221" lon="-105.2306337">
  <ele>1587.03</ele>
  <time>2026-08-27T18:29:14Z</time>
  <course>21.93</course>
  <speed>0.2601922366251538</speed>
  <fix>3d</fix>
</trkpt>
<trkpt lat="40.0728223" lon="-105.2306334">
  <ele>1586.87</ele>
  <time>2026-08-27T18:29:14Z</time>
  <course>275.67</course>
  <speed>0.26</speed>
  <fix>3d</fix>
</trkpt>
<trkpt lat="40.0728221" lon="-105.2306338">
  <ele>1587.05</ele>
  <time>2026-08-27T18:29:14Z</time>
  <course>21.93</course>
  <speed>0.2601922366251538</speed>
  <fix>3d</fix>
</trkpt>
<trkpt lat="40.0728221" lon="-105.2306344">
  <ele>1587.12</ele>
  <time>2026-08-27T18:29:14Z</time>
  <course>21.97</course>
  <speed>0.27</speed>
  <fix>3d</fix>
</trkpt>
<trkpt lat="40.0728223" lon="-105.2306341">
  <ele>1586.96</ele>
  <time>2026-08-27T18:29:14Z</time>
  <course>270.83</course>
  <speed>0.27</speed>
  <fix>3d</fix>
</trkpt>
<trkpt lat="40.0728221" lon="-105.2306345">
  <ele>1587.13</ele>
  <time>2026-08-27T18:29:14Z</time>
  <course>21.98</course>
  <speed>0.27018512172212594</speed>
  <fix>3d</fix>
</trkpt>
<trkpt lat="40.0728221" lon="-105.230635">
  <ele>1587.21</ele>
  <time>2026-08-27T18:29:14Z</time>
  <course>22.05</course>
  <speed>0.27166155414412246</speed>
  <fix>3d</fix>
</trkpt>
<trkpt lat="40.0728224" lon="-105.2306347">
  <ele>1587.05</ele>
  <time>2026-08-27T18:29:14Z</time>
  <course>266.01</course>
  <speed>0.28</speed>
  <fix>3d</fix>
</trkpt>
<trkpt lat="40.0728221" lon="-105.230635">
  <ele>1587.21</ele>
  <time>2026-08-27T18:29:14Z</time>
  <course>22.05</course>
  <speed>0.27166155414412246</speed>
  <fix>3d</fix>
</trkpt>
<trkpt lat="40.0728221" lon="-105.2306357">
  <ele>1587.3</ele>
  <time>2026-08-27T18:29:14Z</time>
  <course>22.21</course>
  <speed>0.2745906043549196</speed>
  <fix>3d</fix>
</trkpt>
<trkpt lat="40.0728223" lon="-105.2306354">
  <ele>1587.14</ele>
  <time>2026-08-27T18:29:14Z</time>
  <course>261.42</course>
  <speed>0.28</speed>
  <fix>3d</fix>
</trkpt>
<trkpt lat="40.0728221" lon="-105.2306358">
  <ele>1587.32</ele>
  <time>2026-08-27T18:29:14Z</time>
  <course>22.24</course>
  <speed>0.2765863337187866</speed>
  <fix>3d</fix>
</trkpt>
<trkpt lat="40.072822" lon="-105.2306364">
  <ele>1587.41</ele>
  <time>2026-08-27T18:29:14Z</time>
  <course>22.46</course>
  <speed>0.29120439557122074</speed>
  <fix>3d</fix>
</trkpt>
<trkpt lat="40.0728222" lon="-105.230636">
  <ele>1587.25</ele>
  <time>2026-08-27T18:29:14Z</time>
  <course>257.19</course>
  <speed>0.28</speed>
  <fix>3d</fix>
</trkpt>
<trkpt lat="40.072822" lon="-105.2306365">
  <ele>1587.42</ele>
  <time>2026-08-27T18:29:14Z</time>
  <course>22.5</course>
  <speed>0.29120439557122074</speed>
  <fix>3d</fix>
</trkpt>
<trkpt lat="40.0728219" lon="-105.230637">
  <ele>1587.52</ele>
  <time>2026-08-27T18:29:14Z</time>
  <course>22.76</course>
  <speed>0.2973213749463701</speed>
  <fix>3d</fix>
</trkpt>
<trkpt lat="40.0728221" lon="-105.2306366">
  <ele>1587.35</ele>
  <time>2026-08-27T18:29:14Z</time>
  <course>253.36</course>
  <speed>0.29</speed>
  <fix>3d</fix>
</trkpt>
<trkpt lat="40.0728219" lon="-105.230637">
  <ele>1587.52</ele>
  <time>2026-08-27T18:29:14Z</time>
  <course>22.77</course>
  <speed>0.2973213749463701</speed>
  <fix>3d</fix>
</trkpt>
<trkpt lat="40.0728217" lon="-105.2306377">
  <ele>1587.63</ele>
  <time>2026-08-27T18:29:14Z</time>
  <course>23.09</course>
  <speed>0.30463092423455634</speed>
  <fix>3d</fix>
</trkpt>
<trkpt lat="40.072822" lon="-105.2306373">
  <ele>1587.47</ele>
  <time>2026-08-27T18:29:14Z</time>
  <course>249.93</course>
  <speed>0.29</speed>
  <fix>3d</fix>
</trkpt>
<trkpt lat="40.0728217" lon="-105.2306378">
  <ele>1587.65</ele>
  <time>2026-08-27T18:29:14Z</time>
  <course>23.14</course>
  <speed>0.30463092423455634</speed>
  <fix>3d</fix>
</trkpt>
<trkpt lat="40.0728215" lon="-105.2306384">
  <ele>1587.75</ele>
  <time>2026-08-27T18:29:14Z</time>
  <course>23.49</course>
  <speed>0.31304951684997057</speed>
  <fix>3d</fix>
</trkpt>
<trkpt lat="40.0728218" lon="-105.230638">
  <ele>1587.59</ele>
  <time>2026-08-27T18:29:14Z</time>
  <course>246.91</course>
  <speed>0.3</speed>
  <fix>3d</fix>
</trkpt>
<trkpt lat="40.0728215" lon="-105.2306384">
  <ele>1587.75</ele>
  <time>2026-08-27T18:29:14Z</time>
  <course>23.49</course>
  <speed>0.31304951684997057</speed>
  <fix>3d</fix>
</trkpt>
<trkpt lat="40.0728212" lon="-105.230639">
  <ele>1587.87</ele>
  <time>2026-08-27T18:29:14Z</time>
  <course>23.89</course>
  <speed>0.3312099032335839</speed>
  <fix>3d</fix>
</trkpt>
<trkpt lat="40.0728215" lon="-105.2306386">
  <ele>1587.71</ele>
  <time>2026-08-27T18:29:14Z</time>
  <course>244.24</course>
  <speed>0.31</speed>
  <fix>3d</fix>
</trkpt>
<trkpt lat="40.0728212" lon="-105.2306391">
  <ele>1587.89</ele>
  <time>2026-08-27T18:29:14Z</time>
  <course>23.96</course>
  <speed>0.3312099032335839</speed>
  <fix>3d</fix>
</trkpt>
<trkpt lat="40.072821" lon="-105.2306397">
  <ele>1588.0</ele>
  <time>2026-08-27T18:29:14Z</time>
  <course>24.33</course>
  <speed>0.3361547262794322</speed>
  <fix>3d</fix>
</trkpt>
<trkpt lat="40.0728213" lon="-105.2306393">
  <ele>1587.83</ele>
  <time>2026-08-27T18:29:14Z</time>
  <course>241.89</course>
  <speed>0.32</speed>
  <fix>3d</fix>
</trkpt>
<trkpt lat="40.0728209" lon="-105.2306398">
  <ele>1588.02</ele>
  <time>2026-08-27T18:29:14Z</time>
  <course>24.39</course>
  <speed>0.3361547262794322</speed>
  <fix>3d</fix>
</trkpt>
<trkpt lat="40.0728207" lon="-105.2306404">
  <ele>1588.12</ele>
  <time>2026-08-27T18:29:14Z</time>
  <course>24.79</course>
  <speed>0.3466987164671943</speed>
  <fix>3d</fix>
</trkpt>
<trkpt lat="40.072821" lon="-105.23064">
  <ele>1587.95</ele>
  <time>2026-08-27T18:29:14Z</time>
  <course>239.91</course>
  <speed>0.33</speed>
  <fix>3d</fix>
</trkpt>
<trkpt lat="40.0728207" lon="-105.2306404">
  <ele>1588.13</ele>
  <time>2026-08-27T18:29:14Z</time>
  <course>24.79</course>
  <speed>0.3466987164671943</speed>
  <fix>3d</fix>
</trkpt>
<trkpt lat="40.0728204" lon="-105.2306411">
  <ele>1588.25</ele>
  <time>2026-08-27T18:29:14Z</time>
  <course>25.22</course>
  <speed>0.3522782990761707</speed>
  <fix>3d</fix>
</trkpt>
<trkpt lat="40.0728206" lon="-105.2306407">
  <ele>1588.08</ele>
  <time>2026-08-27T18:29:14Z</time>
  <course>238.21</course>
  <speed>0.34</speed>
  <fix>3d</fix>
</trkpt>
<trkpt lat="40.0728203" lon="-105.2306412">
  <ele>1588.27</ele>
  <time>2026-08-27T18:29:14Z</time>
  <course>25.29</course>
  <speed>0.3522782990761707</speed>
  <fix>3d</fix>
</trkpt>
<trkpt lat="40.07282" lon="-105.2306418">
  <ele>1588.39</ele>
  <time>2026-08-27T18:29:14Z</time>
  <course>25.65</course>
  <speed>0.3661966684720111</speed>
  <fix>3d</fix>
</trkpt>
<trkpt lat="40.0728203" lon="-105.2306414">
  <ele>1588.21</ele>
  <time>2026-08-27T18:29:14Z</time>
  <course>236.71</course>
  <speed>0.34</speed>
  <fix>3d</fix>
</trkpt>
<trkpt lat="40.07282" lon="-105.2306418">
  <ele>1588.39</ele>
  <time>2026-08-27T18:29:14Z</time>
  <course>25.66</course>
  <speed>0.3661966684720111</speed>
  <fix>3d</fix>
</trkpt>
<trkpt lat="40.0728196" lon="-105.2306425">
  <ele>1588.52</ele>
  <time>2026-08-27T18:29:14Z</time>
  <course>26.06</course>
  <speed>0.378021163428716</speed>
  <fix>3d</fix>
</trkpt>
<trkpt lat="40.0728199" lon="-105.230642">
  <ele>1588.33</ele>
  <time>2026-08-27T18:29:14Z</time>
  <course>235.4</course>
  <speed>0.35</speed>
  <fix>3d</fix>
</trkpt>
<trkpt lat="40.0728196" lon="-105.2306426">
  <ele>1588.54</ele>
  <time>2026-08-27T18:29:14Z</time>
  <course>26.12</course>
  <speed>0.378021163428716</speed>
  <fix>3d</fix>
</trkpt>
<trkpt lat="40.0728192" lon="-105.2306432">
  <ele>1588.66</ele>
  <time>2026-08-27T18:29:14Z</time>
  <course>26.45</course>
  <speed>0.3841874542459709</speed>
  <fix>3d</fix>
</trkpt>
<trkpt lat="40.0728196" lon="-105.2306427">
  <ele>1588.46</ele>
  <time>2026-08-27T18:29:14Z</time>
  <course>234.26</course>
  <speed>0.36</speed>
  <fix>3d</fix>
</trkpt>
<trkpt lat="40.0728192" lon="-105.2306433">
  <ele>1588.68</ele>
  <time>2026-08-27T18:29:14Z</time>
  <course>26.52</course>
  <speed>0.3841874542459709</speed>
  <fix>3d</fix>
</trkpt>
<trkpt lat="40.0728188" lon="-105.2306439">
  <ele>1588.79</ele>
  <time>2026-08-27T18:29:14Z</time>
  <course>27.09</course>
  <speed>0.3905124837953327</speed>
  <fix>3d</fix>
</trkpt>
<trkpt lat="40.0728192" lon="-105.2306434">
  <ele>1588.58</ele>
  <time>2026-08-27T18:29:14Z</time>
  <course>233.31</course>
  <speed>0.37</speed>
  <fix>3d</fix>
</trkpt>
<trkpt lat="40.0728188" lon="-105.230644">
  <ele>1588.81</ele>
  <time>2026-08-27T18:29:14Z</time>
  <course>27.15</course>
  <speed>0.3905124837953327</speed>
  <fix>3d</fix>
</trkpt>
<trkpt lat="40.0728184" lon="-105.2306446">
  <ele>1588.92</ele>
  <time>2026-08-27T18:29:14Z</time>
  <course>24.88</course>
  <speed>0.39698866482558415</speed>
  <fix>3d</fix>
</trkpt>
<trkpt lat="40.0728187" lon="-105.2306441">
  <ele>1588.71</ele>
  <time>2026-08-27T18:29:14Z</time>
  <course>232.5</course>
  <speed>0.37</speed>
  <fix>3d</fix>
</trkpt>
<trkpt lat="40.0728183" lon="-105.2306447">
  <ele>1588.94</ele>
  <time>2026-08-27T18:29:14Z</time>
  <course>24.59</course>
  <speed>0.39698866482558415</speed>
  <fix>3d</fix>
</trkpt>
<trkpt lat="40.072818" lon="-105.2306453">
  <ele>1589.04</ele>
  <time>2026-08-27T18:29:14Z</time>
  <course>24.75</course>
  <speed>0.41109609582188933</speed>
  <fix>3d</fix>
</trkpt>
<trkpt lat="40.0728184" lon="-105.2306448">
  <ele>1588.83</ele>
  <time>2026-08-27T18:29:14Z</time>
  <course>232.18</course>
  <speed>0.38</speed>
  <fix>3d</fix>
</trkpt>
<trkpt lat="40.072818" lon="-105.2306453">
  <ele>1589.05</ele>
  <time>2026-08-27T18:29:14Z</time>
  <course>24.77</course>
  <speed>0.41109609582188933</speed>
  <fix>3d</fix>
</trkpt>
<trkpt lat="40.0728175" lon="-105.230646">
  <ele>1589.17</ele>
  <time>2026-08-27T18:29:14Z</time>
  <course>26.56</course>
  <speed>0.41773197148410846</speed>
  <fix>3d</fix>
</trkpt>
<trkpt lat="40.072818" lon="-105.2306456">
  <ele>1588.95</ele>
  <time>2026-08-27T18:29:14Z</time>
  <course>231.98</course>
  <speed>0.39</speed>
  <fix>3d</fix>
</trkpt>
<trkpt lat="40.0728175" lon="-105.2306461">
  <ele>1589.18</ele>
  <time>2026-08-27T18:29:14Z</time>
  <course>26.8</course>
  <speed>0.41773197148410846</speed>
  <fix>3d</fix>
</trkpt>
<trkpt lat="40.0728171" lon="-105.2306467">
  <ele>1589.28</ele>
  <time>2026-08-27T18:29:14Z</time>
  <course>27.78</course>
  <speed>0.41036569057366384</speed>
  <fix>3d</fix>
</trkpt>
<trkpt lat="40.0728175" lon="-105.2306463">
  <ele>1589.06</ele>
  <time>2026-08-27T18:29:14Z</time>
  <course>231.44</course>
  <speed>0.39</speed>
  <fix>3d</fix>
</trkpt>
<trkpt lat="40.072817" lon="-105.2306468">
  <ele>1589.3</ele>
  <time>2026-08-27T18:29:14Z</time>
  <course>27.92</course>
  <speed>0.41036569057366384</speed>
  <fix>3d</fix>
</trkpt>
<trkpt lat="40.0728166" lon="-105.2306474">
  <ele>1589.4</ele>
  <time>2026-08-27T18:29:14Z</time>
  <course>28.43</course>
  <speed>0.40360872141221127</speed>
  <fix>3d</fix>
</trkpt>
<trkpt lat="40.072817" lon="-105.230647">
  <ele>1589.17</ele>
  <time>2026-08-27T18:29:14Z</time>
  <course>230.93</course>
  <speed>0.39</speed>
  <fix>3d</fix>
</trkpt>
<trkpt lat="40.0728166" lon="-105.2306474">
  <ele>1589.41</ele>
  <time>2026-08-27T18:29:14Z</time>
  <course>28.44</course>
  <speed>0.40360872141221127</speed>
  <fix>3d</fix>
</trkpt>
<trkpt lat="40.0728162" lon="-105.2306481">
  <ele>1589.52</ele>
  <time>2026-08-27T18:29:14Z</time>
  <course>28.8</course>
  <speed>0.40360872141221127</speed>
  <fix>3d</fix>
</trkpt>
<trkpt lat="40.0728166" lon="-105.2306477">
  <ele>1589.3</ele>
  <time>2026-08-27T18:29:14Z</time>
  <course>230.59</course>
  <speed>0.39</speed>
  <fix>3d</fix>
</trkpt>
<trkpt lat="40.0728161" lon="-105.2306482">
  <ele>1589.54</ele>
  <time>2026-08-27T18:29:14Z</time>
  <course>28.85</course>
  <speed>0.40360872141221127</speed>
  <fix>3d</fix>
</trkpt>
<trkpt lat="40.0728158" lon="-105.2306488">
  <ele>1589.64</ele>
  <time>2026-08-27T18:29:14Z</time>
  <course>29.06</course>
  <speed>0.40360872141221127</speed>
  <fix>3d</fix>
</trkpt>
<trkpt lat="40.0728162" lon="-105.2306485">
  <ele>1589.41</ele>
  <time>2026-08-27T18:29:14Z</time>
  <course>230.34</course>
  <speed>0.4</speed>
  <fix>3d</fix>
</trkpt>
<trkpt lat="40.0728157" lon="-105.2306488">
  <ele>1589.64</ele>
  <time>2026-08-27T18:29:14Z</time>
  <course>29.07</course>
  <speed>0.40360872141221127</speed>
  <fix>3d</fix>
</trkpt>
<trkpt lat="40.0728153" lon="-105.2306495">
  <ele>1589.76</ele>
  <time>2026-08-27T18:29:14Z</time>
  <course>29.27</course>
  <speed>0.40360872141221127</speed>
  <fix>3d</fix>
</trkpt>
<trkpt lat="40.0728157" lon="-105.2306492">
  <ele>1589.54</ele>
  <time>2026-08-27T18:29:14Z</time>
  <course>230.11</course>
  <speed>0.41</speed>
  <fix>3d</fix>
</trkpt>
<trkpt lat="40.0728152" lon="-105.2306497">
  <ele>1589.78</ele>
  <time>2026-08-27T18:29:14Z</time>
  <course>29.31</course>
  <speed>0.40360872141221127</speed>
  <fix>3d</fix>
</trkpt>
<trkpt lat="40.0728149" lon="-105.2306503">
  <ele>1589.89</ele>
  <time>2026-08-27T18:29:14Z</time>
  <course>29.49</course>
  <speed>0.40360872141221127</speed>
  <fix>3d</fix>
</trkpt>
<trkpt lat="40.0728152" lon="-105.2306499">
  <ele>1589.66</ele>
  <time>2026-08-27T18:29:14Z</time>
  <course>229.91</course>
  <speed>0.41</speed>
  <fix>3d</fix>
</trkpt>
<trkpt lat="40.0728148" lon="-105.2306504">
  <ele>1589.91</ele>
  <time>2026-08-27T18:29:14Z</time>
  <course>29.53</course>
  <speed>0.40360872141221127</speed>
  <fix>3d</fix>
</trkpt>
<trkpt lat="40.0728144" lon="-105.230651">
  <ele>1590.01</ele>
  <time>2026-08-27T18:29:14Z</time>
  <course>29.71</course>
  <speed>0.40360872141221127</speed>
  <fix>3d</fix>
</trkpt>
<trkpt lat="40.0728147" lon="-105.2306506">
  <ele>1589.79</ele>
  <time>2026-08-27T18:29:14Z</time>
  <course>229.65</course>
  <speed>0.42</speed>
  <fix>3d</fix>
</trkpt>
<trkpt lat="40.0728143" lon="-105.2306511">
  <ele>1590.03</ele>
  <time>2026-08-27T18:29:14Z</time>
  <course>29.74</course>
  <speed>0.41036569057366384</speed>
  <fix>3d</fix>
</trkpt>
<trkpt lat="40.0728139" lon="-105.2306518">
  <ele>1590.14</ele>
  <time>2026-08-27T18:29:15Z</time>
  <course>29.91</course>
  <speed>0.41036569057366384</speed>
  <fix>3d</fix>
</trkpt>
<trkpt lat="40.0728142" lon="-105.2306514">
  <ele>1589.9</ele>
  <time>2026-08-27T18:29:15Z</time>
  <course>229.39</course>
  <speed>0.42</speed>
  <fix>3d</fix>
</trkpt>
<trkpt lat="40.0728138" lon="-105.2306519">
  <ele>1590.15</ele>
  <time>2026-08-27T18:29:15Z</time>
  <course>29.94</course>
  <speed>0.41036569057366384</speed>
  <fix>3d</fix>
</trkpt>
<trkpt lat="40.0728134" lon="-105.2306525">
  <ele>1590.25</ele>
  <time>2026-08-27T18:29:15Z</time>
  <course>30.07</course>
  <speed>0.41036569057366384</speed>
  <fix>3d</fix>
</trkpt>
<trkpt lat="40.0728137" lon="-105.2306522">
  <ele>1590.03</ele>
  <time>2026-08-27T18:29:15Z</time>
  <course>229.14</course>
  <speed>0.43</speed>
  <fix>3d</fix>
</trkpt>
<trkpt lat="40.0728133" lon="-105.2306526">
  <ele>1590.28</ele>
  <time>2026-08-27T18:29:15Z</time>
  <course>30.1</course>
  <speed>0.41773197148410846</speed>
  <fix>3d</fix>
</trkpt>
<trkpt lat="40.0728129" lon="-105.2306533">
  <ele>1590.37</ele>
  <time>2026-08-27T18:29:15Z</time>
  <course>30.24</course>
  <speed>0.41773197148410846</speed>
  <fix>3d</fix>
</trkpt>
<trkpt lat="40.0728132" lon="-105.2306529">
  <ele>1590.15</ele>
  <time>2026-08-27T18:29:15Z</time>
  <course>228.91</course>
  <speed>0.43</speed>
  <fix>3d</fix>
</trkpt>
<trkpt lat="40.0728129" lon="-105.2306533">
  <ele>1590.38</ele>
  <time>2026-08-27T18:29:15Z</time>
  <course>30.24</course>
  <speed>0.41773197148410846</speed>
  <fix>3d</fix>
</trkpt>
<trkpt lat="40.0728124" lon="-105.230654">
  <ele>1590.49</ele>
  <time>2026-08-27T18:29:15Z</time>
  <course>30.39</course>
  <speed>0.42449970553582245</speed>
  <fix>3d</fix>
</trkpt>
<trkpt lat="40.0728127" lon="-105.2306538">
  <ele>1590.28</ele>
  <time>2026-08-27T18:29:15Z</time>
  <course>228.75</course>
  <speed>0.43</speed>
  <fix>3d</fix>
</trkpt>
<trkpt lat="40.0728123" lon="-105.2306542">
  <ele>1590.52</ele>
  <time>2026-08-27T18:29:15Z</time>
  <course>30.41</course>
  <speed>0.42449970553582245</speed>
  <fix>3d</fix>
</trkpt>
<trkpt lat="40.0728118" lon="-105.2306548">
  <ele>1590.62</ele>
  <time>2026-08-27T18:29:15Z</time>
  <course>30.51</course>
  <speed>0.42449970553582245</speed>
  <fix>3d</fix>
</trkpt>
<trkpt lat="40.0728122" lon="-105.2306545">
  <ele>1590.41</ele>
  <time>2026-08-27T18:29:15Z</time>
  <course>228.63</course>
  <speed>0.44</speed>
  <fix>3d</fix>
</trkpt>
<trkpt lat="40.0728118" lon="-105.230655">
  <ele>1590.64</ele>
  <time>2026-08-27T18:29:15Z</time>
  <course>30.53</course>
  <speed>0.42449970553582245</speed>
  <fix>3d</fix>
</trkpt>
<trkpt lat="40.0728113" lon="-105.2306556">
  <ele>1590.75</ele>
  <time>2026-08-27T18:29:15Z</time>
  <course>30.67</course>
  <speed>0.42449970553582245</speed>
  <fix>3d</fix>
</trkpt>
<trkpt lat="40.0728117" lon="-105.2306553">
  <ele>1590.54</ele>
  <time>2026-08-27T18:29:15Z</time>
  <course>228.55</course>
  <speed>0.44</speed>
  <fix>3d</fix>
</trkpt>
<trkpt lat="40.0728112" lon="-105.2306557">
  <ele>1590.77</ele>
  <time>2026-08-27T18:29:15Z</time>
  <course>30.7</course>
  <speed>0.42449970553582245</speed>
  <fix>3d</fix>
</trkpt>
<trkpt lat="40.0728108" lon="-105.2306564">
  <ele>1590.87</ele>
  <time>2026-08-27T18:29:15Z</time>
  <course>30.82</course>
  <speed>0.43185645763378366</speed>
  <fix>3d</fix>
</trkpt>
<trkpt lat="40.0728111" lon="-105.2306561">
  <ele>1590.67</ele>
  <time>2026-08-27T18:29:15Z</time>
  <course>228.53</course>
  <speed>0.44</speed>
  <fix>3d</fix>
</trkpt>
<trkpt lat="40.0728108" lon="-105.2306564">
  <ele>1590.88</ele>
  <time>2026-08-27T18:29:15Z</time>
  <course>30.83</course>
  <speed>0.43185645763378366</speed>
  <fix>3d</fix>
</trkpt>
<trkpt lat="40.0728103" lon="-105.2306572">
  <ele>1591.01</ele>
  <time>2026-08-27T18:29:15Z</time>
  <course>30.97</course>
  <speed>0.4386342439892262</speed>
  <fix>3d</fix>
</trkpt>
<trkpt lat="40.0728106" lon="-105.2306568">
  <ele>1590.8</ele>
  <time>2026-08-27T18:29:15Z</time>
  <course>228.57</course>
  <speed>0.45</speed>
  <fix>3d</fix>
</trkpt>
<trkpt lat="40.0728102" lon="-105.2306573">
  <ele>1591.03</ele>
  <time>2026-08-27T18:29:15Z</time>
  <course>30.99</course>
  <speed>0.4386342439892262</speed>
  <fix>3d</fix>
</trkpt>
<trkpt lat="40.0728097" lon="-105.230658">
  <ele>1591.13</ele>
  <time>2026-08-27T18:29:15Z</time>
  <course>31.14</course>
  <speed>0.4386342439892262</speed>
  <fix>3d</fix>
</trkpt>
<trkpt lat="40.0728101" lon="-105.2306577">
  <ele>1590.92</ele>
  <time>2026-08-27T18:29:15Z</time>
  <course>228.59</course>
  <speed>0.45</speed>
  <fix>3d</fix>
</trkpt>
<trkpt lat="40.0728097" lon="-105.230658">
  <ele>1591.14</ele>
  <time>2026-08-27T18:29:15Z</time>
  <course>31.14</course>
  <speed>0.4386342439892262</speed>
  <fix>3d</fix>
</trkpt>
<trkpt lat="40.0728092" lon="-105.2306588">
  <ele>1591.26</ele>
  <time>2026-08-27T18:29:15Z</time>
  <course>31.33</course>
  <speed>0.4386342439892262</speed>
  <fix>3d</fix>
</trkpt>
<trkpt lat="40.0728095" lon="-105.2306585">
  <ele>1591.05</ele>
  <time>2026-08-27T18:29:15Z</time>
  <course>228.63</course>
  <speed>0.45</speed>
  <fix>3d</fix>
</trkpt>
<trkpt lat="40.0728091" lon="-105.230659">
  <ele>1591.29</ele>
  <time>2026-08-27T18:29:15Z</time>
  <course>31.37</course>
  <speed>0.4386342439892262</speed>
  <fix>3d</fix>
</trkpt>
<trkpt lat="40.0728087" lon="-105.2306596">
  <ele>1591.39</ele>
  <time>2026-08-27T18:29:15Z</time>
  <course>31.47</course>
  <speed>0.4386342439892262</speed>
  <fix>3d</fix>
</trkpt>
<trkpt lat="40.0728089" lon="-105.2306592">
  <ele>1591.18</ele>
  <time>2026-08-27T18:29:15Z</time>
  <course>228.68</course>
  <speed>0.45</speed>
  <fix>3d</fix>
</trkpt>
<trkpt lat="40.0728086" lon="-105.2306597">
  <ele>1591.41</ele>
  <time>2026-08-27T18:29:15Z</time>
  <course>31.49</course>
  <speed>0.4386342439892262</speed>
  <fix>3d</fix>
</trkpt>
<trkpt lat="40.0728081" lon="-105.2306604">
  <ele>1591.52</ele>
  <time>2026-08-27T18:29:15Z</time>
  <course>31.62</course>
  <speed>0.4386342439892262</speed>
  <fix>3d</fix>
</trkpt>
<trkpt lat="40.0728084" lon="-105.2306601">
  <ele>1591.31</ele>
  <time>2026-08-27T18:29:15Z</time>
  <course>228.73</course>
  <speed>0.45</speed>
  <fix>3d</fix>
</trkpt>
<trkpt lat="40.0728081" lon="-105.2306604">
  <ele>1591.52</ele>
  <time>2026-08-27T18:29:15Z</time>
  <course>31.62</course>
  <speed>0.4386342439892262</speed>
  <fix>3d</fix>
</trkpt>
<trkpt lat="40.0728076" lon="-105.2306612">
  <ele>1591.64</ele>
  <time>2026-08-27T18:29:15Z</time>
  <course>31.74</course>
  <speed>0.4459820624195552</speed>
  <fix>3d</fix>
</trkpt>
<trkpt lat="40.0728079" lon="-105.2306609">
  <ele>1591.44</ele>
  <time>2026-08-27T18:29:15Z</time>
  <course>228.84</course>
  <speed>0.45</speed>
  <fix>3d</fix>
</trkpt>
<trkpt lat="40.0728075" lon="-105.2306614">
  <ele>1591.66</ele>
  <time>2026-08-27T18:29:15Z</time>
  <course>31.76</course>
  <speed>0.4459820624195552</speed>
  <fix>3d</fix>
</trkpt>
<trkpt lat="40.072807" lon="-105.230662">
  <ele>1591.77</ele>
  <time>2026-08-27T18:29:15Z</time>
  <course>31.86</course>
  <speed>0.4459820624195552</speed>
  <fix>3d</fix>
</trkpt>
<trkpt lat="40.0728074" lon="-105.2306616">
  <ele>1591.56</ele>
  <time>2026-08-27T18:29:15Z</time>
  <course>228.96</course>
  <speed>0.45</speed>
  <fix>3d</fix>
</trkpt>
<trkpt lat="40.0728069" lon="-105.2306622">
  <ele>1591.79</ele>
  <time>2026-08-27T18:29:15Z</time>
  <course>31.88</course>
  <speed>0.4459820624195552</speed>
  <fix>3d</fix>
</trkpt>
<trkpt lat="40.0728065" lon="-105.2306628">
  <ele>1591.89</ele>
  <time>2026-08-27T18:29:15Z</time>
  <course>31.97</course>
  <speed>0.4459820624195552</speed>
  <fix>3d</fix>
</trkpt>
<trkpt lat="40.0728068" lon="-105.2306624">
  <ele>1591.69</ele>
  <time>2026-08-27T18:29:15Z</time>
  <course>229.1</course>
  <speed>0.45</speed>
  <fix>3d</fix>
</trkpt>
<trkpt lat="40.0728065" lon="-105.2306629">
  <ele>1591.9</ele>
  <time>2026-08-27T18:29:15Z</time>
  <course>31.97</course>
  <speed>0.4459820624195552</speed>
  <fix>3d</fix>
</trkpt>
<trkpt lat="40.0728059" lon="-105.2306636">
  <ele>1592.02</ele>
  <time>2026-08-27T18:29:15Z</time>
  <course>32.1</course>
  <speed>0.4459820624195552</speed>
  <fix>3d</fix>
</trkpt>
<trkpt lat="40.0728063" lon="-105.2306633">
  <ele>1591.82</ele>
  <time>2026-08-27T18:29:15Z</time>
  <course>229.28</course>
  <speed>0.45</speed>
  <fix>3d</fix>
</trkpt>
<trkpt lat="40.0728059" lon="-105.2306638">
  <ele>1592.04</ele>
  <time>2026-08-27T18:29:15Z</time>
  <course>32.12</course>
  <speed>0.4459820624195552</speed>
  <fix>3d</fix>
</trkpt>
<trkpt lat="40.0728054" lon="-105.2306645">
  <ele>1592.15</ele>
  <time>2026-08-27T18:29:15Z</time>
  <course>32.22</course>
  <speed>0.4459820624195552</speed>
  <fix>3d</fix>
</trkpt>
<trkpt lat="40.0728058" lon="-105.2306642">
  <ele>1591.94</ele>
  <time>2026-08-27T18:29:15Z</time>
  <course>229.46</course>
  <speed>0.45</speed>
  <fix>3d</fix>
</trkpt>
<trkpt lat="40.0728054" lon="-105.2306645">
  <ele>1592.15</ele>
  <time>2026-08-27T18:29:15Z</time>
  <course>32.22</course>
  <speed>0.4459820624195552</speed>
  <fix>3d</fix>
</trkpt>
<trkpt lat="40.0728049" lon="-105.2306653">
  <ele>1592.27</ele>
  <time>2026-08-27T18:29:15Z</time>
  <course>32.31</course>
  <speed>0.4459820624195552</speed>
  <fix>3d</fix>
</trkpt>
<trkpt lat="40.0728052" lon="-105.2306649">
  <ele>1592.07</ele>
  <time>2026-08-27T18:29:15Z</time>
  <course>229.63</course>
  <speed>0.45</speed>
  <fix>3d</fix>
</trkpt>
<trkpt lat="40.0728048" lon="-105.2306654">
  <ele>1592.29</ele>
  <time>2026-08-27T18:29:15Z</time>
  <course>32.32</course>
  <speed>0.4459820624195552</speed>
  <fix>3d</fix>
</trkpt>
<trkpt lat="40.0728044" lon="-105.2306661">
  <ele>1592.39</ele>
  <time>2026-08-27T18:29:15Z</time>
  <course>32.42</course>
  <speed>0.4459820624195552</speed>
  <fix>3d</fix>
</trkpt>
<trkpt lat="40.0728047" lon="-105.2306658">
  <ele>1592.19</ele>
  <time>2026-08-27T18:29:15Z</time>
  <course>229.84</course>
  <speed>0.45</speed>
  <fix>3d</fix>
</trkpt>
<trkpt lat="40.0728043" lon="-105.2306662">
  <ele>1592.41</ele>
  <time>2026-08-27T18:29:15Z</time>
  <course>32.43</course>
  <speed>0.4459820624195552</speed>
  <fix>3d</fix>
</trkpt>
<trkpt lat="40.0728038" lon="-105.2306669">
  <ele>1592.52</ele>
  <time>2026-08-27T18:29:15Z</time>
  <course>32.5</course>
  <speed>0.4393176527297759</speed>
  <fix>3d</fix>
</trkpt>
<trkpt lat="40.0728042" lon="-105.2306666">
  <ele>1592.32</ele>
  <time>2026-08-27T18:29:15Z</time>
  <course>230.09</course>
  <speed>0.45</speed>
  <fix>3d</fix>
</trkpt>
<trkpt lat="40.0728038" lon="-105.230667">
  <ele>1592.54</ele>
  <time>2026-08-27T18:29:15Z</time>
  <course>32.51</course>
  <speed>0.4393176527297759</speed>
  <fix>3d</fix>
</trkpt>
<trkpt lat="40.0728033" lon="-105.2306677">
  <ele>1592.64</ele>
  <time>2026-08-27T18:29:15Z</time>
  <course>32.61</course>
  <speed>0.4393176527297759</speed>
  <fix>3d</fix>
</trkpt>
<trkpt lat="40.0728036" lon="-105.2306673">
  <ele>1592.45</ele>
  <time>2026-08-27T18:29:15Z</time>
  <course>230.33</course>
  <speed>0.44</speed>
  <fix>3d</fix>
</trkpt>
<trkpt lat="40.0728033" lon="-105.2306678">
  <ele>1592.66</ele>
  <time>2026-08-27T18:29:15Z</time>
  <course>32.63</course>
  <speed>0.4393176527297759</speed>
  <fix>3d</fix>
</trkpt>
<trkpt lat="40.0728028" lon="-105.2306685">
  <ele>1592.77</ele>
  <time>2026-08-27T18:29:15Z</time>
  <course>32.7</course>
  <speed>0.4393176527297759</speed>
  <fix>3d</fix>
</trkpt>
<trkpt lat="40.0728031" lon="-105.2306682">
  <ele>1592.57</ele>
  <time>2026-08-27T18:29:15Z</time>
  <course>230.56</course>
  <speed>0.44</speed>
  <fix>3d</fix>
</trkpt>
<trkpt lat="40.0728028" lon="-105.2306685">
  <ele>1592.77</ele>
  <time>2026-08-27T18:29:15Z</time>
  <course>32.7</course>
  <speed>0.4393176527297759</speed>
  <fix>3d</fix>
</trkpt>
<trkpt lat="40.0728023" lon="-105.2306693">
  <ele>1592.89</ele>
  <time>2026-08-27T18:29:15Z</time>
  <course>32.79</course>
  <speed>0.4393176527297759</speed>
  <fix>3d</fix>
</trkpt>
<trkpt lat="40.0728026" lon="-105.230669">
  <ele>1592.7</ele>
  <time>2026-08-27T18:29:15Z</time>
  <course>230.83</course>
  <speed>0.44</speed>
  <fix>3d</fix>
</trkpt>
<trkpt lat="40.0728022" lon="-105.2306694">
  <ele>1592.91</ele>
  <time>2026-08-27T18:29:15Z</time>
  <course>32.81</course>
  <speed>0.4393176527297759</speed>
  <fix>3d</fix>
</trkpt>
<trkpt lat="40.0728018" lon="-105.2306701">
  <ele>1593.01</ele>
  <time>2026-08-27T18:29:15Z</time>
  <course>32.9</course>
  <speed>0.43185645763378366</speed>
  <fix>3d</fix>
</trkpt>
<trkpt lat="40.0728021" lon="-105.2306698">
  <ele>1592.83</ele>
  <time>2026-08-27T18:29:15Z</time>
  <course>231.14</course>
  <speed>0.44</speed>
  <fix>3d</fix>
</trkpt>
<trkpt lat="40.0728017" lon="-105.2306703">
  <ele>1593.03</ele>
  <time>2026-08-27T18:29:15Z</time>
  <course>32.92</course>
  <speed>0.43185645763378366</speed>
  <fix>3d</fix>
</trkpt>
<trkpt lat="40.0728013" lon="-105.2306709">
  <ele>1593.14</ele>
  <time>2026-08-27T18:29:15Z</time>
  <course>32.96</course>
  <speed>0.43185645763378366</speed>
  <fix>3d</fix>
</trkpt>
<trkpt lat="40.0728016" lon="-105.2306706">
  <ele>1592.96</ele>
  <time>2026-08-27T18:29:15Z</time>
  <course>231.42</course>
  <speed>0.44</speed>
  <fix>3d</fix>
</trkpt>
<trkpt lat="40.0728012" lon="-105.2306711">
  <ele>1593.16</ele>
  <time>2026-08-27T18:29:15Z</time>
  <course>32.97</course>
  <speed>0.43185645763378366</speed>
  <fix>3d</fix>
</trkpt>
<trkpt lat="40.0728008" lon="-105.2306717">
  <ele>1593.26</ele>
  <time>2026-08-27T18:29:15Z</time>
  <course>33.05</course>
  <speed>0.425205832509386</speed>
  <fix>3d</fix>
</trkpt>
<trkpt lat="40.0728011" lon="-105.2306715">
  <ele>1593.08</ele>
  <time>2026-08-27T18:29:15Z</time>
  <course>231.71</course>
  <speed>0.43</speed>
  <fix>3d</fix>
</trkpt>
<trkpt lat="40.0728007" lon="-105.2306719">
  <ele>1593.28</ele>
  <time>2026-08-27T18:29:15Z</time>
  <course>33.06</course>
  <speed>0.425205832509386</speed>
  <fix>3d</fix>
</trkpt>
<trkpt lat="40.0728003" lon="-105.2306726">
  <ele>1593.39</ele>
  <time>2026-08-27T18:29:15Z</time>
  <course>33.14</course>
  <speed>0.425205832509386</speed>
  <fix>3d</fix>
</trkpt>
<trkpt lat="40.0728007" lon="-105.2306723">
  <ele>1593.21</ele>
  <time>2026-08-27T18:29:15Z</time>
  <course>232.06</course>
  <speed>0.43</speed>
  <fix>3d</fix>
</trkpt>
<trkpt lat="40.0728003" lon="-105.2306726">
  <ele>1593.39</ele>
  <time>2026-08-27T18:29:15Z</time>
  <course>33.14</course>
  <speed>0.425205832509386</speed>
  <fix>3d</fix>
</trkpt>
<trkpt lat="40.0727998" lon="-105.2306734">
  <ele>1593.52</ele>
  <time>2026-08-27T18:29:15Z</time>
  <course>33.23</course>
  <speed>0.425205832509386</speed>
  <fix>3d</fix>
</trkpt>
<trkpt lat="40.0728002" lon="-105.230673">
  <ele>1593.34</ele>
  <time>2026-08-27T18:29:15Z</time>
  <course>232.41</course>
  <speed>0.43</speed>
  <fix>3d</fix>
</trkpt>
<trkpt lat="40.0727997" lon="-105.2306735">
  <ele>1593.54</ele>
  <time>2026-08-27T18:29:15Z</time>
  <course>33.25</course>
  <speed>0.425205832509386</speed>
  <fix>3d</fix>
</trkpt>
<trkpt lat="40.0727993" lon="-105.2306742">
  <ele>1593.65</ele>
  <time>2026-08-27T18:29:15Z</time>
  <course>33.34</course>
  <speed>0.4186884283091664</speed>
  <fix>3d</fix>
</trkpt>
<trkpt lat="40.0727997" lon="-105.2306739">
  <ele>1593.47</ele>
  <time>2026-08-27T18:29:15Z</time>
  <course>232.75</course>
  <speed>0.43</speed>
  <fix>3d</fix>
</trkpt>
<trkpt lat="40.0727993" lon="-105.2306743">
  <ele>1593.67</ele>
  <time>2026-08-27T18:29:15Z</time>
  <course>33.36</course>
  <speed>0.4186884283091664</speed>
  <fix>3d</fix>
</trkpt>
<trkpt lat="40.0727989" lon="-105.230675">
  <ele>1593.78</ele>
  <time>2026-08-27T18:29:15Z</time>
  <course>33.42</course>
  <speed>0.4186884283091664</speed>
  <fix>3d</fix>
</trkpt>
<trkpt lat="40.0727992" lon="-105.2306747">
  <ele>1593.6</ele>
  <time>2026-08-27T18:29:15Z</time>
  <course>233.13</course>
  <speed>0.42</speed>
  <fix>3d</fix>
</trkpt>
<trkpt lat="40.0727988" lon="-105.2306751">
  <ele>1593.8</ele>
  <time>2026-08-27T18:29:15Z</time>
  <course>33.44</course>
  <speed>0.4186884283091664</speed>
  <fix>3d</fix>
</trkpt>
<trkpt lat="40.0727984" lon="-105.2306758">
  <ele>1593.9</ele>
  <time>2026-08-27T18:29:15Z</time>
  <course>33.52</course>
  <speed>0.4186884283091664</speed>
  <fix>3d</fix>
</trkpt>
<trkpt lat="40.0727988" lon="-105.2306754">
  <ele>1593.73</ele>
  <time>2026-08-27T18:29:15Z</time>
  <course>233.49</course>
  <speed>0.42</speed>
  <fix>3d</fix>
</trkpt>
<trkpt lat="40.0727984" lon="-105.2306759">
  <ele>1593.92</ele>
  <time>2026-08-27T18:29:15Z</time>
  <course>33.54</course>
  <speed>0.4186884283091664</speed>
  <fix>3d</fix>
</trkpt>
<trkpt lat="40.072798" lon="-105.2306766">
  <ele>1594.03</ele>
  <time>2026-08-27T18:29:15Z</time>
  <course>33.59</course>
  <speed>0.41231056256176607</speed>
  <fix>3d</fix>
</trkpt>
<trkpt lat="40.0727983" lon="-105.2306763">
  <ele>1593.86</ele>
  <time>2026-08-27T18:29:15Z</time>
  <course>233.83</course>
  <speed>0.42</speed>
  <fix>3d</fix>
</trkpt>
<trkpt lat="40.0727979" lon="-105.2306767">
  <ele>1594.05</ele>
  <time>2026-08-27T18:29:15Z</time>
  <course>33.6</course>
  <speed>0.41231056256176607</speed>
  <fix>3d</fix>
</trkpt>
<trkpt lat="40.0727975" lon="-105.2306774">
  <ele>1594.16</ele>
  <time>2026-08-27T18:29:15Z</time>
  <course>33.68</course>
  <speed>0.41231056256176607</speed>
  <fix>3d</fix>
</trkpt>
<trkpt lat="40.0727979" lon="-105.2306771">
  <ele>1593.99</ele>
  <time>2026-08-27T18:29:15Z</time>
  <course>234.23</course>
  <speed>0.41</speed>
  <fix>3d</fix>
</trkpt>
<trkpt lat="40.0727975" lon="-105.2306774">
  <ele>1594.16</ele>
  <time>2026-08-27T18:29:15Z</time>
  <course>33.68</course>
  <speed>0.41231056256176607</speed>
  <fix>3d</fix>
</trkpt>
<trkpt lat="40.0727971" lon="-105.2306782">
  <ele>1594.29</ele>
  <time>2026-08-27T18:29:15Z</time>
  <course>33.76</course>
  <speed>0.41231056256176607</speed>
  <fix>3d</fix>
</trkpt>
<trkpt lat="40.0727974" lon="-105.2306778">
  <ele>1594.11</ele>
  <time>2026-08-27T18:29:15Z</time>
  <course>234.66</course>
  <speed>0.41</speed>
  <fix>3d</fix>
</trkpt>
<trkpt lat="40.072797" lon="-105.2306783">
  <ele>1594.31</ele>
  <time>2026-08-27T18:29:15Z</time>
  <course>33.77</course>
  <speed>0.41231056256176607</speed>
  <fix>3d</fix>
</trkpt>
<trkpt lat="40.0727966" lon="-105.230679">
  <ele>1594.41</ele>
  <time>2026-08-27T18:29:15Z</time>
  <course>33.84</course>
  <speed>0.40607881008493907</speed>
  <fix>3d</fix>
</trkpt>
<trkpt lat="40.072797" lon="-105.2306787">
  <ele>1594.24</ele>
  <time>2026-08-27T18:29:15Z</time>
  <course>235.03</course>
  <speed>0.41</speed>
  <fix>3d</fix>
</trkpt>
<trkpt lat="40.0727966" lon="-105.2306791">
  <ele>1594.43</ele>
  <time>2026-08-27T18:29:15Z</time>
  <course>33.86</course>
  <speed>0.40607881008493907</speed>
  <fix>3d</fix>
</trkpt>
<trkpt lat="40.0727962" lon="-105.2306798">
  <ele>1594.54</ele>
  <time>2026-08-27T18:29:15Z</time>
  <course>33.91</course>
  <speed>0.40607881008493907</speed>
  <fix>3d</fix>
</trkpt>
<trkpt lat="40.0727966" lon="-105.2306794">
  <ele>1594.37</ele>
  <time>2026-08-27T18:29:15Z</time>
  <course>235.35</course>
  <speed>0.4</speed>
  <fix>3d</fix>
</trkpt>
<trkpt lat="40.0727962" lon="-105.2306799">
  <ele>1594.56</ele>
  <time>2026-08-27T18:29:15Z</time>
  <course>33.92</course>
  <speed>0.40607881008493907</speed>
  <fix>3d</fix>
</trkpt>
<trkpt lat="40.0727958" lon="-105.2306805">
  <ele>1594.66</ele>
  <time>2026-08-27T18:29:15Z</time>
  <course>33.98</course>
  <speed>0.39824615503479754</speed>
  <fix>3d</fix>
</trkpt>
<trkpt lat="40.0727962" lon="-105.2306802">
  <ele>1594.49</ele>
  <time>2026-08-27T18:29:15Z</time>
  <course>235.68</course>
  <speed>0.4</speed>
  <fix>3d</fix>
</trkpt>
<trkpt lat="40.0727958" lon="-105.2306806">
  <ele>1594.66</ele>
  <time>2026-08-27T18:29:15Z</time>
  <course>33.98</course>
  <speed>0.39824615503479754</speed>
  <fix>3d</fix>
</trkpt>
<trkpt lat="40.0727954" lon="-105.2306813">
  <ele>1594.79</ele>
  <time>2026-08-27T18:29:15Z</time>
  <course>34.05</course>
  <speed>0.3920459156782532</speed>
  <fix>3d</fix>
</trkpt>
<trkpt lat="40.0727957" lon="-105.2306811">
  <ele>1594.62</ele>
  <time>2026-08-27T18:29:15Z</time>
  <course>236.07</course>
  <speed>0.4</speed>
  <fix>3d</fix>
</trkpt>
<trkpt lat="40.0727953" lon="-105.2306815">
  <ele>1594.81</ele>
  <time>2026-08-27T18:29:15Z</time>
  <course>34.06</course>
  <speed>0.3920459156782532</speed>
  <fix>3d</fix>
</trkpt>
<trkpt lat="40.072795" lon="-105.2306821">
  <ele>1594.91</ele>
  <time>2026-08-27T18:29:15Z</time>
  <course>34.11</course>
  <speed>0.3920459156782532</speed>
  <fix>3d</fix>
</trkpt>
<trkpt lat="40.0727954" lon="-105.2306818">
  <ele>1594.74</ele>
  <time>2026-08-27T18:29:15Z</time>
  <course>236.43</course>
  <speed>0.39</speed>
  <fix>3d</fix>
</trkpt>
<trkpt lat="40.072795" lon="-105.2306821">
  <ele>1594.91</ele>
  <time>2026-08-27T18:29:15Z</time>
  <course>34.11</course>
  <speed>0.3920459156782532</speed>
  <fix>3d</fix>
</trkpt>
<trkpt lat="40.0727946" lon="-105.2306829">
  <ele>1595.04</ele>
  <time>2026-08-27T18:29:15Z</time>
  <course>34.18</course>
  <speed>0.3920459156782532</speed>
  <fix>3d</fix>
</trkpt>
<trkpt lat="40.072795" lon="-105.2306826">
  <ele>1594.87</ele>
  <time>2026-08-27T18:29:15Z</time>
  <course>236.79</course>
  <speed>0.39</speed>
  <fix>3d</fix>
</trkpt>
<trkpt lat="40.0727945" lon="-105.230683">
  <ele>1595.06</ele>
  <time>2026-08-27T18:29:15Z</time>
  <course>34.19</course>
  <speed>0.38600518131237566</speed>
  <fix>3d</fix>
</trkpt>
<trkpt lat="40.0727942" lon="-105.2306837">
  <ele>1595.16</ele>
  <time>2026-08-27T18:29:15Z</time>
  <course>34.24</course>
  <speed>0.38600518131237566</speed>
  <fix>3d</fix>
</trkpt>
<trkpt lat="40.0727945" lon="-105.2306834">
  <ele>1595.0</ele>
  <time>2026-08-27T18:29:15Z</time>
  <course>237.19</course>
  <speed>0.39</speed>
  <fix>3d</fix>
</trkpt>
<trkpt lat="40.0727942" lon="-105.2306838">
  <ele>1595.18</ele>
  <time>2026-08-27T18:29:15Z</time>
  <course>34.25</course>
  <speed>0.38600518131237566</speed>
  <fix>3d</fix>
</trkpt>
<trkpt lat="40.0727938" lon="-105.2306844">
  <ele>1595.29</ele>
  <time>2026-08-27T18:29:15Z</time>
  <course>34.3</course>
  <speed>0.38600518131237566</speed>
  <fix>3d</fix>
</trkpt>
<trkpt lat="40.0727942" lon="-105.2306841">
  <ele>1595.12</ele>
  <time>2026-08-27T18:29:15Z</time>
  <course>237.58</course>
  <speed>0.38</speed>
  <fix>3d</fix>
</trkpt>
<trkpt lat="40.0727935" lon="-105.2306852">
  <ele>1595.41</ele>
  <time>2026-08-27T18:29:15Z</time>
  <course>34.67</course>
  <speed>0.38013155617496425</speed>
  <fix>3d</fix>
</trkpt>
<trkpt lat="40.0727938" lon="-105.2306849">
  <ele>1595.25</ele>
  <time>2026-08-27T18:29:15Z</time>
  <course>238.09</course>
  <speed>0.38</speed>
  <fix>3d</fix>
</trkpt>
<trkpt lat="40.0727931" lon="-105.230686">
  <ele>1595.5</ele>
  <time>2026-08-27T18:29:15Z</time>
  <course>35.3</course>
  <speed>0.3720215047547655</speed>
  <fix>3d</fix>
</trkpt>
<trkpt lat="40.0727935" lon="-105.2306857">
  <ele>1595.36</ele>
  <time>2026-08-27T18:29:15Z</time>
  <course>238.67</course>
  <speed>0.38</speed>
  <fix>3d</fix>
</trkpt>
<trkpt lat="40.0727928" lon="-105.2306867">
  <ele>1595.56</ele>
  <time>2026-08-27T18:29:15Z</time>
  <course>35.62</course>
  <speed>0.3661966684720111</speed>
  <fix>3d</fix>
</trkpt>
<trkpt lat="40.0727931" lon="-105.2306864">
  <ele>1595.44</ele>
  <time>2026-08-27T18:29:15Z</time>
  <course>238.91</course>
  <speed>0.37</speed>
  <fix>3d</fix>
</trkpt>
<trkpt lat="40.0727924" lon="-105.2306875">
  <ele>1595.6</ele>
  <time>2026-08-27T18:29:15Z</time>
  <course>35.15</course>
  <speed>0.35805027579936316</speed>
  <fix>3d</fix>
</trkpt>
<trkpt lat="40.0727928" lon="-105.2306872">
  <ele>1595.5</ele>
  <time>2026-08-27T18:29:15Z</time>
  <course>238.68</course>
  <speed>0.36</speed>
  <fix>3d</fix>
</trkpt>
<trkpt lat="40.0727921" lon="-105.2306882">
  <ele>1595.62</ele>
  <time>2026-08-27T18:29:15Z</time>
  <course>34.66</course>
  <speed>0.35</speed>
  <fix>3d</fix>
</trkpt>
<trkpt lat="40.0727925" lon="-105.2306879">
  <ele>1595.53</ele>
  <time>2026-08-27T18:29:15Z</time>
  <course>238.4</course>
  <speed>0.35</speed>
  <fix>3d</fix>
</trkpt>
<trkpt lat="40.0727918" lon="-105.2306889">
  <ele>1595.64</ele>
  <time>2026-08-27T18:29:15Z</time>
  <course>34.47</course>
  <speed>0.33600595232822883</speed>
  <fix>3d</fix>
</trkpt>
<trkpt lat="40.0727921" lon="-105.2306886">
  <ele>1595.56</ele>
  <time>2026-08-27T18:29:15Z</time>
  <course>238.3</course>
  <speed>0.34</speed>
  <fix>3d</fix>
</trkpt>
<trkpt lat="40.0727914" lon="-105.2306895">
  <ele>1595.65</ele>
  <time>2026-08-27T18:29:15Z</time>
  <course>34.42</course>
  <speed>0.33600595232822883</speed>
  <fix>3d</fix>
</trkpt>
<trkpt lat="40.0727918" lon="-105.2306893">
  <ele>1595.57</ele>
  <time>2026-08-27T18:29:15Z</time>
  <course>238.04</course>
  <speed>0.34</speed>
  <fix>3d</fix>
</trkpt>
<trkpt lat="40.0727911" lon="-105.2306902">
  <ele>1595.66</ele>
  <time>2026-08-27T18:29:15Z</time>
  <course>34.42</course>
  <speed>0.3280243893371345</speed>
  <fix>3d</fix>
</trkpt>
<trkpt lat="40.0727915" lon="-105.23069">
  <ele>1595.58</ele>
  <time>2026-08-27T18:29:15Z</time>
  <course>237.65</course>
  <speed>0.33</speed>
  <fix>3d</fix>
</trkpt>
<trkpt lat="40.0727908" lon="-105.2306908">
  <ele>1595.67</ele>
  <time>2026-08-27T18:29:15Z</time>
  <course>34.43</course>
  <speed>0.32015621187164245</speed>
  <fix>3d</fix>
</trkpt>
<trkpt lat="40.0727912" lon="-105.2306906">
  <ele>1595.59</ele>
  <time>2026-08-27T18:29:15Z</time>
  <course>237.23</course>
  <speed>0.32</speed>
  <fix>3d</fix>
</trkpt>
<trkpt lat="40.0727905" lon="-105.2306915">
  <ele>1595.67</ele>
  <time>2026-08-27T18:29:15Z</time>
  <course>34.45</course>
  <speed>0.31240998703626616</speed>
  <fix>3d</fix>
</trkpt>
<trkpt lat="40.0727908" lon="-105.2306912">
  <ele>1595.6</ele>
  <time>2026-08-27T18:29:15Z</time>
  <course>236.8</course>
  <speed>0.31</speed>
  <fix>3d</fix>
</trkpt>
<trkpt lat="40.0727902" lon="-105.2306921">
  <ele>1595.67</ele>
  <time>2026-08-27T18:29:15Z</time>
  <course>34.47</course>
  <speed>0.30610455730027936</speed>
  <fix>3d</fix>
</trkpt>
<trkpt lat="40.0727905" lon="-105.2306919">
  <ele>1595.6</ele>
  <time>2026-08-27T18:29:15Z</time>
  <course>236.37</course>
  <speed>0.3</speed>
  <fix>3d</fix>
</trkpt>
<trkpt lat="40.0727899" lon="-105.2306926">
  <ele>1595.67</ele>
  <time>2026-08-27T18:29:15Z</time>
  <course>34.49</course>
  <speed>0.29832867780352595</speed>
  <fix>3d</fix>
</trkpt>
<trkpt lat="40.0727902" lon="-105.2306925">
  <ele>1595.6</ele>
  <time>2026-08-27T18:29:15Z</time>
  <course>235.96</course>
  <speed>0.3</speed>
  <fix>3d</fix>
</trkpt>
<trkpt lat="40.0727896" lon="-105.2306932">
  <ele>1595.67</ele>
  <time>2026-08-27T18:29:15Z</time>
  <course>34.51</course>
  <speed>0.2906888370749727</speed>
  <fix>3d</fix>
</trkpt>
<trkpt lat="40.0727899" lon="-105.230693">
  <ele>1595.61</ele>
  <time>2026-08-27T18:29:15Z</time>
  <course>235.58</course>
  <speed>0.29</speed>
  <fix>3d</fix>
</trkpt>
<trkpt lat="40.0727893" lon="-105.2306938">
  <ele>1595.67</ele>
  <time>2026-08-27T18:29:15Z</time>
  <course>34.52</course>
  <speed>0.2906888370749727</speed>
  <fix>3d</fix>
</trkpt>
<trkpt lat="40.0727896" lon="-105.2306936">
  <ele>1595.61</ele>
  <time>2026-08-27T18:29:15Z</time>
  <course>235.23</course>
  <speed>0.28</speed>
  <fix>3d</fix>
</trkpt>
<trkpt lat="40.072789" lon="-105.2306943">
  <ele>1595.67</ele>
  <time>2026-08-27T18:29:15Z</time>
  <course>34.53</course>
  <speed>0.2765863337187866</speed>
  <fix>3d</fix>
</trkpt>
<trkpt lat="40.0727893" lon="-105.2306941">
  <ele>1595.61</ele>
  <time>2026-08-27T18:29:15Z</time>
  <course>234.9</course>
  <speed>0.27</speed>
  <fix>3d</fix>
</trkpt>
<trkpt lat="40.0727887" lon="-105.2306948">
  <ele>1595.68</ele>
  <time>2026-08-27T18:29:15Z</time>
  <course>34.56</course>
  <speed>0.2690724809414742</speed>
  <fix>3d</fix>
</trkpt>
<trkpt lat="40.072789" lon="-105.2306946">
  <ele>1595.61</ele>
  <time>2026-08-27T18:29:15Z</time>
  <course>234.61</course>
  <speed>0.27</speed>
  <fix>3d</fix>
</trkpt>
<trkpt lat="40.0727884" lon="-105.2306953">
  <ele>1595.68</ele>
  <time>2026-08-27T18:29:15Z</time>
  <course>34.58</course>
  <speed>0.2690724809414742</speed>
  <fix>3d</fix>
</trkpt>
<trkpt lat="40.0727888" lon="-105.2306952">
  <ele>1595.62</ele>
  <time>2026-08-27T18:29:15Z</time>
  <course>234.4</course>
  <speed>0.26</speed>
  <fix>3d</fix>
</trkpt>
<trkpt lat="40.0727882" lon="-105.2306958">
  <ele>1595.68</ele>
  <time>2026-08-27T18:29:15Z</time>
  <course>34.6</course>
  <speed>0.25495097567963926</speed>
  <fix>3d</fix>
</trkpt>
<trkpt lat="40.0727885" lon="-105.2306957">
  <ele>1595.62</ele>
  <time>2026-08-27T18:29:15Z</time>
  <course>234.22</course>
  <speed>0.25</speed>
  <fix>3d</fix>
</trkpt>
<trkpt lat="40.0727879" lon="-105.2306963">
  <ele>1595.68</ele>
  <time>2026-08-27T18:29:15Z</time>
  <course>34.63</course>
  <speed>0.25495097567963926</speed>
  <fix>3d</fix>
</trkpt>
<trkpt lat="40.0727882" lon="-105.2306962">
  <ele>1595.62</ele>
  <time>2026-08-27T18:29:15Z</time>
  <course>234.09</course>
  <speed>0.25</speed>
  <fix>3d</fix>
</trkpt>
<trkpt lat="40.0727877" lon="-105.2306968">
  <ele>1595.68</ele>
  <time>2026-08-27T18:29:15Z</time>
  <course>34.65</course>
  <speed>0.24413111231467405</speed>
  <fix>3d</fix>
</trkpt>
<trkpt lat="40.072788" lon="-105.2306966">
  <ele>1595.62</ele>
  <time>2026-08-27T18:29:15Z</time>
  <course>235.76</course>
  <speed>0.24</speed>
  <fix>3d</fix>
</trkpt>
<trkpt lat="40.0727875" lon="-105.2306973">
  <ele>1595.68</ele>
  <time>2026-08-27T18:29:15Z</time>
  <course>34.68</course>
  <speed>0.22803508501982758</speed>
  <fix>3d</fix>
</trkpt>
<trkpt lat="40.0727878" lon="-105.2306972">
  <ele>1595.62</ele>
  <time>2026-08-27T18:29:15Z</time>
  <course>247.15</course>
  <speed>0.24</speed>
  <fix>3d</fix>
</trkpt>
<trkpt lat="40.0727875" lon="-105.2306978">
  <ele>1595.68</ele>
  <time>2026-08-27T18:29:15Z</time>
  <course>34.79</course>
  <speed>0.17492855684535902</speed>
  <fix>3d</fix>
</trkpt>
<trkpt lat="40.0727876" lon="-105.2306977">
  <ele>1595.62</ele>
  <time>2026-08-27T18:29:15Z</time>
  <course>255.7</course>
  <speed>0.22</speed>
  <fix>3d</fix>
</trkpt>
<trkpt lat="40.0727873" lon="-105.2306981">
  <ele>1595.68</ele>
  <time>2026-08-27T18:29:15Z</time>
  <course>34.62</course>
  <speed>0.12806248474865697</speed>
  <fix>3d</fix>
</trkpt>
<trkpt lat="40.0727875" lon="-105.2306981">
  <ele>1595.62</ele>
  <time>2026-08-27T18:29:15Z</time>
  <course>248.42</course>
  <speed>0.17</speed>
  <fix>3d</fix>
</trkpt>
<trkpt lat="40.0727873" lon="-105.2306984">
  <ele>1595.67</ele>
  <time>2026-08-27T18:29:15Z</time>
  <course>34.64</course>
  <speed>0.1004987562112089</speed>
  <fix>3d</fix>
</trkpt>
<trkpt lat="40.0727874" lon="-105.2306984">
  <ele>1595.62</ele>
  <time>2026-08-27T18:29:15Z</time>
  <course>253.54</course>
  <speed>0.13</speed>
  <fix>3d</fix>
</trkpt>
<trkpt lat="40.0727873" lon="-105.2306987">
  <ele>1595.67</ele>
  <time>2026-08-27T18:29:15Z</time>
  <course>34.75</course>
  <speed>0.0565685424949238</speed>
  <fix>3d</fix>
</trkpt>
<trkpt lat="40.0727873" lon="-105.2306987">
  <ele>1595.62</ele>
  <time>2026-08-27T18:29:15Z</time>
  <course>268.82</course>
  <speed>0.1</speed>
  <fix>3d</fix>
</trkpt>
<trkpt lat="40.0727872" lon="-105.2306988">
  <ele>1595.67</ele>
  <time>2026-08-27T18:29:15Z</time>
  <course>34.63</course>
  <speed>0.05</speed>
  <fix>3d</fix>
</trkpt>
<trkpt lat="40.0727873" lon="-105.2306989">
  <ele>1595.62</ele>
  <time>2026-08-27T18:29:15Z</time>
  <course>262.5</course>
  <speed>0.06</speed>
  <fix>3d</fix>
</trkpt>
<trkpt lat="40.0727873" lon="-105.2306989">
  <ele>1595.67</ele>
  <time>2026-08-27T18:29:15Z</time>
  <course>34.66</course>
  <speed>0.05099019513592785</speed>
  <fix>3d</fix>
</trkpt>
<trkpt lat="40.0727873" lon="-105.2306991">
  <ele>1595.63</ele>
  <time>2026-08-27T18:29:15Z</time>
  <course>282.6</course>
  <speed>0.06</speed>
  <fix>3d</fix>
</trkpt>
<trkpt lat="40.0727873" lon="-105.2306991">
  <ele>1595.67</ele>
  <time>2026-08-27T18:29:15Z</time>
  <course>34.76</course>
  <speed>0.022360679774997897</speed>
  <fix>3d</fix>
</trkpt>
<trkpt lat="40.0727873" lon="-105.2306992">
  <ele>1595.63</ele>
  <time>2026-08-27T18:29:15Z</time>
  <course>299.91</course>
  <speed>0.05</speed>
  <fix>3d</fix>
</trkpt>
<trkpt lat="40.0727873" lon="-105.2306991">
  <ele>1595.67</ele>
  <time>2026-08-27T18:29:15Z</time>
  <course>34.67</course>
  <speed>0.03</speed>
  <fix>3d</fix>
</trkpt>
<trkpt lat="40.0727873" lon="-105.2306993">
  <ele>1595.63</ele>
  <time>2026-08-27T18:29:15Z</time>
  <course>297.4</course>
  <speed>0.03</speed>
  <fix>3d</fix>
</trkpt>
<trkpt lat="40.0727873" lon="-105.2306993">
  <ele>1595.67</ele>
  <time>2026-08-27T18:29:15Z</time>
  <course>34.77</course>
  <speed>0.022360679774997897</speed>
  <fix>3d</fix>
</trkpt>
<trkpt lat="40.0727874" lon="-105.2306994">
  <ele>1595.63</ele>
  <time>2026-08-27T18:29:15Z</time>
  <course>310.77</course>
  <speed>0.05</speed>
  <fix>3d</fix>
</trkpt>
<trkpt lat="40.0727873" lon="-105.2306993">
  <ele>1595.67</ele>
  <time>2026-08-27T18:29:15Z</time>
  <course>34.77</course>
  <speed>0.02</speed>
  <fix>3d</fix>
</trkpt>
<trkpt lat="40.0727874" lon="-105.2306995">
  <ele>1595.63</ele>
  <time>2026-08-27T18:29:15Z</time>
  <course>316.96</course>
  <speed>0.04</speed>
  <fix>3d</fix>
</trkpt>
<trkpt lat="40.0727873" lon="-105.2306994">
  <ele>1595.67</ele>
  <time>2026-08-27T18:29:15Z</time>
  <course>34.75</course>
  <speed>0.03605551275463989</speed>
  <fix>3d</fix>
</trkpt>
<trkpt lat="40.0727875" lon="-105.2306995">
  <ele>1595.64</ele>
  <time>2026-08-27T18:29:15Z</time>
  <course>315.43</course>
  <speed>0.03</speed>
  <fix>3d</fix>
</trkpt>
<trkpt lat="40.0727874" lon="-105.2306995">
  <ele>1595.67</ele>
  <time>2026-08-27T18:29:15Z</time>
  <course>34.87</course>
  <speed>0.0</speed>
  <fix>3d</fix>
</trkpt>
<trkpt lat="40.0727876" lon="-105.2306996">
  <ele>1595.64</ele>
  <time>2026-08-27T18:29:15Z</time>
  <course>321.5</course>
  <speed>0.04</speed>
  <fix>3d</fix>
</trkpt>
<trkpt lat="40.0727874" lon="-105.2306995">
  <ele>1595.67</ele>
  <time>2026-08-27T18:29:15Z</time>
  <course>34.79</course>
  <speed>0.01</speed>
  <fix>3d</fix>
</trkpt>
<trkpt lat="40.0727877" lon="-105.2306996">
  <ele>1595.64</ele>
  <time>2026-08-27T18:29:15Z</time>
  <course>324.41</course>
  <speed>0.03</speed>
  <fix>3d</fix>
</trkpt>
<trkpt lat="40.0727875" lon="-105.2306996">
  <ele>1595.67</ele>
  <time>2026-08-27T18:29:15Z</time>
  <course>34.89</course>
  <speed>0.01414213562373095</speed>
  <fix>3d</fix>
</trkpt>
<trkpt lat="40.0727877" lon="-105.2306997">
  <ele>1595.64</ele>
  <time>2026-08-27T18:29:15Z</time>
  <course>322.89</course>
  <speed>0.04</speed>
  <fix>3d</fix>
</trkpt>
<trkpt lat="40.0727876" lon="-105.2306996">
  <ele>1595.67</ele>
  <time>2026-08-27T18:29:15Z</time>
  <course>34.87</course>
  <speed>0.01</speed>
  <fix>3d</fix>
</trkpt>
<trkpt lat="40.0727878" lon="-105.2306998">
  <ele>1595.65</ele>
  <time>2026-08-27T18:29:15Z</time>
  <course>328.58</course>
  <speed>0.03</speed>
  <fix>3d</fix>
</trkpt>
<trkpt lat="40.0727876" lon="-105.2306997">
  <ele>1595.67</ele>
  <time>2026-08-27T18:29:15Z</time>
  <course>34.87</course>
  <speed>0.0282842712474619</speed>
  <fix>3d</fix>
</trkpt>
<trkpt lat="40.0727878" lon="-105.2306998">
  <ele>1595.65</ele>
  <time>2026-08-27T18:29:15Z</time>
  <course>325.88</course>
  <speed>0.03</speed>
  <fix>3d</fix>
</trkpt>
<trkpt lat="40.0727877" lon="-105.2306997">
  <ele>1595.68</ele>
  <time>2026-08-27T18:29:15Z</time>
  <course>34.97</course>
  <speed>0.01</speed>
  <fix>3d</fix>
</trkpt>
<trkpt lat="40.0727879" lon="-105.2306998">
  <ele>1595.65</ele>
  <time>2026-08-27T18:29:15Z</time>
  <course>328.3</course>
  <speed>0.03</speed>
  <fix>3d</fix>
</trkpt>
<trkpt lat="40.0727877" lon="-105.2306997">
  <ele>1595.68</ele>
  <time>2026-08-27T18:29:15Z</time>
  <course>34.9</course>
  <speed>0.022360679774997897</speed>
  <fix>3d</fix>
</trkpt>
<trkpt lat="40.0727879" lon="-105.2306998">
  <ele>1595.65</ele>
  <time>2026-08-27T18:29:15Z</time>
  <course>329.28</course>
  <speed>0.02</speed>
  <fix>3d</fix>
</trkpt>
<trkpt lat="40.0727878" lon="-105.2306998">
  <ele>1595.68</ele>
  <time>2026-08-27T18:29:15Z</time>
  <course>35.05</course>
  <speed>0.0</speed>
  <fix>3d</fix>
</trkpt>
<trkpt lat="40.0727879" lon="-105.2306999">
  <ele>1595.66</ele>
  <time>2026-08-27T18:29:15Z</time>
  <course>327.53</course>
  <speed>0.03</speed>
  <fix>3d</fix>
</trkpt>
<trkpt lat="40.0727878" lon="-105.2306998">
  <ele>1595.69</ele>
  <time>2026-08-27T18:29:15Z</time>
  <course>34.94</course>
  <speed>0.01</speed>
  <fix>3d</fix>
</trkpt>
<trkpt lat="40.0727879" lon="-105.2307">
  <ele>1595.66</ele>
  <time>2026-08-27T18:29:15Z</time>
  <course>330.36</course>
  <speed>0.02</speed>
  <fix>3d</fix>
</trkpt>
<trkpt lat="40.0727879" lon="-105.2306999">
  <ele>1595.69</ele>
  <time>2026-08-27T18:29:15Z</time>
  <course>35.1</course>
  <speed>0.0</speed>
  <fix>3d</fix>
</trkpt>
<trkpt lat="40.072788" lon="-105.2307">
  <ele>1595.66</ele>
  <time>2026-08-27T18:29:15Z</time>
  <course>326.77</course>
  <speed>0.03</speed>
  <fix>3d</fix>
</trkpt>
<trkpt lat="40.0727879" lon="-105.2306999">
  <ele>1595.7</ele>
  <time>2026-08-27T18:29:15Z</time>
  <course>34.99</course>
  <speed>0.01</speed>
  <fix>3d</fix>
</trkpt>
<trkpt lat="40.072788" lon="-105.2307">
  <ele>1595.66</ele>
  <time>2026-08-27T18:29:15Z</time>
  <course>329.62</course>
  <speed>0.02</speed>
  <fix>3d</fix>
</trkpt>
<trkpt lat="40.0727879" lon="-105.2307">
  <ele>1595.7</ele>
  <time>2026-08-27T18:29:15Z</time>
  <course>35.11</course>
  <speed>0.0</speed>
  <fix>3d</fix>
</trkpt>
<trkpt lat="40.0727881" lon="-105.2307">
  <ele>1595.66</ele>
  <time>2026-08-27T18:29:15Z</time>
  <course>327.05</course>
  <speed>0.02</speed>
  <fix>3d</fix>
</trkpt>
<trkpt lat="40.072788" lon="-105.2307">
  <ele>1595.7</ele>
  <time>2026-08-27T18:29:15Z</time>
  <course>35.07</course>
  <speed>0.0</speed>
  <fix>3d</fix>
</trkpt>
<trkpt lat="40.0727882" lon="-105.2307">
  <ele>1595.66</ele>
  <time>2026-08-27T18:29:15Z</time>
  <course>328.51</course>
  <speed>0.02</speed>
  <fix>3d</fix>
</trkpt>
<trkpt lat="40.072788" lon="-105.2307">
  <ele>1595.7</ele>
  <time>2026-08-27T18:29:15Z</time>
  <course>35.14</course>
  <speed>0.0</speed>
  <fix>3d</fix>
</trkpt>
<trkpt lat="40.0727882" lon="-105.2307001">
  <ele>1595.65</ele>
  <time>2026-08-27T18:29:15Z</time>
  <course>327.13</course>
  <speed>0.02</speed>
  <fix>3d</fix>
</trkpt>
<trkpt lat="40.072788" lon="-105.2307">
  <ele>1595.7</ele>
  <time>2026-08-27T18:29:15Z</time>
  <course>35.08</course>
  <speed>0.0</speed>
  <fix>3d</fix>
</trkpt>
<trkpt lat="40.0727883" lon="-105.2307002">
  <ele>1595.65</ele>
  <time>2026-08-27T18:29:15Z</time>
  <course>327.4</course>
  <speed>0.02</speed>
  <fix>3d</fix>
</trkpt>
<trkpt lat="40.0727881" lon="-105.2307001">
  <ele>1595.7</ele>
  <time>2026-08-27T18:29:15Z</time>
  <course>35.17</course>
  <speed>0.0</speed>
  <fix>3d</fix>
</trkpt>
<trkpt lat="40.0727883" lon="-105.2307002">
  <ele>1595.65</ele>
  <time>2026-08-27T18:29:15Z</time>
  <course>327.23</course>
  <speed>0.02</speed>
  <fix>3d</fix>
</trkpt>
<trkpt lat="40.0727881" lon="-105.2307001">
  <ele>1595.7</ele>
  <time>2026-08-27T18:29:15Z</time>
  <course>35.13</course>
  <speed>0.01</speed>
  <fix>3d</fix>
</trkpt>
<trkpt lat="40.0727883" lon="-105.2307002">
  <ele>1595.64</ele>
  <time>2026-08-27T18:29:15Z</time>
  <course>325.38</course>
  <speed>0.02</speed>
  <fix>3d</fix>
</trkpt>
<trkpt lat="40.0727882" lon="-105.2307001">
  <ele>1595.7</ele>
  <time>2026-08-27T18:29:15Z</time>
  <course>35.25</course>
  <speed>0.0</speed>
  <fix>3d</fix>
</trkpt>
<trkpt lat="40.0727884" lon="-105.2307003">
  <ele>1595.64</ele>
  <time>2026-08-27T18:29:15Z</time>
  <course>326.57</course>
  <speed>0.02</speed>
  <fix>3d</fix>
</trkpt>
<trkpt lat="40.0727882" lon="-105.2307002">
  <ele>1595.7</ele>
  <time>2026-08-27T18:29:15Z</time>
  <course>35.14</course>
  <speed>0.01</speed>
  <fix>3d</fix>
</trkpt>
<trkpt lat="40.0727884" lon="-105.2307003">
  <ele>1595.63</ele>
  <time>2026-08-27T18:29:15Z</time>
  <course>323.39</course>
  <speed>0.02</speed>
  <fix>3d</fix>
</trkpt>
<trkpt lat="40.0727883" lon="-105.2307002">
  <ele>1595.7</ele>
  <time>2026-08-27T18:29:15Z</time>
  <course>35.23</course>
  <speed>0.0</speed>
  <fix>3d</fix>
</trkpt>
<trkpt lat="40.0727884" lon="-105.2307003">
  <ele>1595.63</ele>
  <time>2026-08-27T18:29:15Z</time>
  <course>326.1</course>
  <speed>0.02</speed>
  <fix>3d</fix>
</trkpt>
<trkpt lat="40.0727883" lon="-105.2307002">
  <ele>1595.69</ele>
  <time>2026-08-27T18:29:15Z</time>
  <course>35.1</course>
  <speed>0.022360679774997897</speed>
  <fix>3d</fix>
</trkpt>
<trkpt lat="40.0727885" lon="-105.2307003">
  <ele>1595.62</ele>
  <time>2026-08-27T18:29:15Z</time>
  <course>321.48</course>
  <speed>0.02</speed>
  <fix>3d</fix>
</trkpt>
<trkpt lat="40.0727883" lon="-105.2307003">
  <ele>1595.69</ele>
  <time>2026-08-27T18:29:15Z</time>
  <course>35.25</course>
  <speed>0.0</speed>
  <fix>3d</fix>
</trkpt>
<trkpt lat="40.0727885" lon="-105.2307004">
  <ele>1595.62</ele>
  <time>2026-08-27T18:29:15Z</time>
  <course>323.26</course>
  <speed>0.02</speed>
  <fix>3d</fix>
</trkpt>
<trkpt lat="40.0727884" lon="-105.2307003">
  <ele>1595.69</ele>
  <time>2026-08-27T18:29:15Z</time>
  <course>35.15</course>
  <speed>0.01414213562373095</speed>
  <fix>3d</fix>
</trkpt>
<trkpt lat="40.0727885" lon="-105.2307005">
  <ele>1595.61</ele>
  <time>2026-08-27T18:29:15Z</time>
  <course>321.12</course>
  <speed>0.02</speed>
  <fix>3d</fix>
</trkpt>
<trkpt lat="40.0727884" lon="-105.2307003">
  <ele>1595.68</ele>
  <time>2026-08-27T18:29:15Z</time>
  <course>35.19</course>
  <speed>0.0</speed>
  <fix>3d</fix>
</trkpt>
<trkpt lat="40.0727885" lon="-105.2307005">
  <ele>1595.61</ele>
  <time>2026-08-27T18:29:15Z</time>
  <course>318.88</course>
  <speed>0.02</speed>
  <fix>3d</fix>
</trkpt>
<trkpt lat="40.0727884" lon="-105.2307004">
  <ele>1595.68</ele>
  <time>2026-08-27T18:29:15Z</time>
  <course>35.21</course>
  <speed>0.0</speed>
  <fix>3d</fix>
</trkpt>
<trkpt lat="40.0727886" lon="-105.2307005">
  <ele>1595.61</ele>
  <time>2026-08-27T18:29:15Z</time>
  <course>323.32</course>
  <speed>0.02</speed>
  <fix>3d</fix>
</trkpt>
<trkpt lat="40.0727885" lon="-105.2307004">
  <ele>1595.68</ele>
  <time>2026-08-27T18:29:15Z</time>
  <course>35.13</course>
  <speed>0.01</speed>
  <fix>3d</fix>
</trkpt>
<trkpt lat="40.0727886" lon="-105.2307005">
  <ele>1595.61</ele>
  <time>2026-08-27T18:29:15Z</time>
  <course>316.15</course>
  <speed>0.02</speed>
  <fix>3d</fix>
</trkpt>
<trkpt lat="40.0727885" lon="-105.2307005">
  <ele>1595.68</ele>
  <time>2026-08-27T18:29:15Z</time>
  <course>35.25</course>
  <speed>0.0</speed>
  <fix>3d</fix>
</trkpt>
<trkpt lat="40.0727886" lon="-105.2307005">
  <ele>1595.6</ele>
  <time>2026-08-27T18:29:15Z</time>
  <course>322.84</course>
  <speed>0.02</speed>
  <fix>3d</fix>
</trkpt>
<trkpt lat="40.0727885" lon="-105.2307005">
  <ele>1595.68</ele>
  <time>2026-08-27T18:29:15Z</time>
  <course>35.13</course>
  <speed>0.01</speed>
  <fix>3d</fix>
</trkpt>
<trkpt lat="40.0727887" lon="-105.2307006">
  <ele>1595.6</ele>
  <time>2026-08-27T18:29:15Z</time>
  <course>318.12</course>
  <speed>0.03</speed>
  <fix>3d</fix>
</trkpt>
<trkpt lat="40.0727886" lon="-105.2307005">
  <ele>1595.69</ele>
  <time>2026-08-27T18:29:15Z</time>
  <course>35.19</course>
  <speed>0.0</speed>
  <fix>3d</fix>
</trkpt>
<trkpt lat="40.0727888" lon="-105.2307007">
  <ele>1595.6</ele>
  <time>2026-08-27T18:29:15Z</time>
  <course>315.53</course>
  <speed>0.02</speed>
  <fix>3d</fix>
</trkpt>
<trkpt lat="40.0727886" lon="-105.2307006">
  <ele>1595.69</ele>
  <time>2026-08-27T18:29:15Z</time>
  <course>35.29</course>
  <speed>0.0</speed>
  <fix>3d</fix>
</trkpt>
<trkpt lat="40.0727888" lon="-105.2307007">
  <ele>1595.6</ele>
  <time>2026-08-27T18:29:15Z</time>
  <course>323.24</course>
  <speed>0.02</speed>
  <fix>3d</fix>
</trkpt>
<trkpt lat="40.0727886" lon="-105.2307006">
  <ele>1595.69</ele>
  <time>2026-08-27T18:29:15Z</time>
  <course>35.19</course>
  <speed>0.01414213562373095</speed>
  <fix>3d</fix>
</trkpt>
<trkpt lat="40.0727888" lon="-105.2307007">
  <ele>1595.6</ele>
  <time>2026-08-27T18:29:15Z</time>
  <course>315.07</course>
  <speed>0.03</speed>
  <fix>3d</fix>
</trkpt>
<trkpt lat="40.0727887" lon="-105.2307007">
  <ele>1595.69</ele>
  <time>2026-08-27T18:29:15Z</time>
  <course>35.26</course>
  <speed>0.0</speed>
  <fix>3d</fix>
</trkpt>
<trkpt lat="40.0727889" lon="-105.2307008">
  <ele>1595.6</ele>
  <time>2026-08-27T18:29:15Z</time>
  <course>316.27</course>
  <speed>0.02</speed>
  <fix>3d</fix>
</trkpt>
<trkpt lat="40.0727887" lon="-105.2307007">
  <ele>1595.69</ele>
  <time>2026-08-27T18:29:15Z</time>
  <course>35.29</course>
  <speed>0.0</speed>
  <fix>3d</fix>
</trkpt>
<trkpt lat="40.0727889" lon="-105.2307009">
  <ele>1595.6</ele>
  <time>2026-08-27T18:29:15Z</time>
  <course>323.05</course>
  <speed>0.02</speed>
  <fix>3d</fix>
</trkpt>
<trkpt lat="40.0727888" lon="-105.2307007">
  <ele>1595.68</ele>
  <time>2026-08-27T18:29:15Z</time>
  <course>35.18</course>
  <speed>0.01</speed>
  <fix>3d</fix>
</trkpt>
<trkpt lat="40.072789" lon="-105.2307009">
  <ele>1595.59</ele>
  <time>2026-08-27T18:29:15Z</time>
  <course>315.04</course>
  <speed>0.03</speed>
  <fix>3d</fix>
</trkpt>
<trkpt lat="40.0727888" lon="-105.2307008">
  <ele>1595.68</ele>
  <time>2026-08-27T18:29:15Z</time>
  <course>35.26</course>
  <speed>0.01</speed>
  <fix>3d</fix>
</trkpt>
<trkpt lat="40.072789" lon="-105.2307009">
  <ele>1595.59</ele>
  <time>2026-08-27T18:29:15Z</time>
  <course>315.87</course>
  <speed>0.02</speed>
  <fix>3d</fix>
</trkpt>
<trkpt lat="40.0727889" lon="-105.2307008">
  <ele>1595.67</ele>
  <time>2026-08-27T18:29:15Z</time>
  <course>35.29</course>
  <speed>0.0</speed>
  <fix>3d</fix>
</trkpt>
<trkpt lat="40.072789" lon="-105.230701">
  <ele>1595.59</ele>
  <time>2026-08-27T18:29:15Z</time>
  <course>324.34</course>
  <speed>0.02</speed>
  <fix>3d</fix>
</trkpt>
<trkpt lat="40.0727889" lon="-105.2307009">
  <ele>1595.67</ele>
  <time>2026-08-27T18:29:15Z</time>
  <course>35.22</course>
  <speed>0.0</speed>
  <fix>3d</fix>
</trkpt>
<trkpt lat="40.0727891" lon="-105.230701">
  <ele>1595.59</ele>
  <time>2026-08-27T18:29:15Z</time>
  <course>317.13</course>
  <speed>0.03</speed>
  <fix>3d</fix>
</trkpt>
<trkpt lat="40.0727889" lon="-105.2307009">
  <ele>1595.67</ele>
  <time>2026-08-27T18:29:15Z</time>
  <course>35.2</course>
  <speed>0.01</speed>
  <fix>3d</fix>
</trkpt>
<trkpt lat="40.0727891" lon="-105.230701">
  <ele>1595.59</ele>
  <time>2026-08-27T18:29:15Z</time>
  <course>313.8</course>
  <speed>0.03</speed>
  <fix>3d</fix>
</trkpt>
<trkpt lat="40.072789" lon="-105.230701">
  <ele>1595.67</ele>
  <time>2026-08-27T18:29:15Z</time>
  <course>35.25</course>
  <speed>0.0</speed>
  <fix>3d</fix>
</trkpt>
<trkpt lat="40.0727891" lon="-105.2307011">
  <ele>1595.59</ele>
  <time>2026-08-27T18:29:15Z</time>
  <course>319.05</course>
  <speed>0.02</speed>
  <fix>3d</fix>
</trkpt>
<trkpt lat="40.072789" lon="-105.230701">
  <ele>1595.67</ele>
  <time>2026-08-27T18:29:15Z</time>
  <course>35.27</course>
  <speed>0.0</speed>
  <fix>3d</fix>
</trkpt>
<trkpt lat="40.0727891" lon="-105.2307012">
  <ele>1595.59</ele>
  <time>2026-08-27T18:29:15Z</time>
  <course>321.77</course>
  <speed>0.02</speed>
  <fix>3d</fix>
</trkpt>
<trkpt lat="40.072789" lon="-105.2307011">
  <ele>1595.67</ele>
  <time>2026-08-27T18:29:15Z</time>
  <course>35.22</course>
  <speed>0.0</speed>
  <fix>3d</fix>
</trkpt>
<trkpt lat="40.0727892" lon="-105.2307012">
  <ele>1595.59</ele>
  <time>2026-08-27T18:29:15Z</time>
  <course>315.78</course>
  <speed>0.03</speed>
  <fix>3d</fix>
</trkpt>
<trkpt lat="40.0727891" lon="-105.2307011">
  <ele>1595.68</ele>
  <time>2026-08-27T18:29:15Z</time>
  <course>35.2</course>
  <speed>0.01</speed>
  <fix>3d</fix>
</trkpt>
<trkpt lat="40.0727892" lon="-105.2307012">
  <ele>1595.59</ele>
  <time>2026-08-27T18:29:15Z</time>
  <course>313.7</course>
  <speed>0.03</speed>
  <fix>3d</fix>
</trkpt>
<trkpt lat="40.0727891" lon="-105.2307012">
  <ele>1595.68</ele>
  <time>2026-08-27T18:29:15Z</time>
  <course>35.23</course>
  <speed>0.01</speed>
  <fix>3d</fix>
</trkpt>
<trkpt lat="40.0727893" lon="-105.2307013">
  <ele>1595.59</ele>
  <time>2026-08-27T18:29:15Z</time>
  <course>316.29</course>
  <speed>0.03</speed>
  <fix>3d</fix>
</trkpt>
<trkpt lat="40.0727892" lon="-105.2307012">
  <ele>1595.68</ele>
  <time>2026-08-27T18:29:15Z</time>
  <course>35.25</course>
  <speed>0.0</speed>
  <fix>3d</fix>
</trkpt>
<trkpt lat="40.0727894" lon="-105.2307014">
  <ele>1595.59</ele>
  <time>2026-08-27T18:29:15Z</time>
  <course>320.42</course>
  <speed>0.02</speed>
  <fix>3d</fix>
</trkpt>
<trkpt lat="40.0727892" lon="-105.2307013">
  <ele>1595.68</ele>
  <time>2026-08-27T18:29:15Z</time>
  <course>35.26</course>
  <speed>0.0</speed>
  <fix>3d</fix>
</trkpt>
<trkpt lat="40.0727894" lon="-105.2307014">
  <ele>1595.6</ele>
  <time>2026-08-27T18:29:15Z</time>
  <course>320.57</course>
  <speed>0.02</speed>
  <fix>3d</fix>
</trkpt>
<trkpt lat="40.0727892" lon="-105.2307013">
  <ele>1595.68</ele>
  <time>2026-08-27T18:29:15Z</time>
  <course>35.25</course>
  <speed>0.0</speed>
  <fix>3d</fix>
</trkpt>
<trkpt lat="40.0727895" lon="-105.2307015">
  <ele>1595.6</ele>
  <time>2026-08-27T18:29:15Z</time>
  <course>318.01</course>
  <speed>0.03</speed>
  <fix>3d</fix>
</trkpt>
<trkpt lat="40.0727893" lon="-105.2307014">
  <ele>1595.68</ele>
  <time>2026-08-27T18:29:15Z</time>
  <course>35.23</course>
  <speed>0.0</speed>
  <fix>3d</fix>
</trkpt>
<trkpt lat="40.0727895" lon="-105.2307015">
  <ele>1595.6</ele>
  <time>2026-08-27T18:29:15Z</time>
  <course>316.54</course>
  <speed>0.03</speed>
  <fix>3d</fix>
</trkpt>
<trkpt lat="40.0727894" lon="-105.2307014">
  <ele>1595.68</ele>
  <time>2026-08-27T18:29:15Z</time>
  <course>35.23</course>
  <speed>0.01</speed>
  <fix>3d</fix>
</trkpt>
<trkpt lat="40.0727895" lon="-105.2307016">
  <ele>1595.6</ele>
  <time>2026-08-27T18:29:15Z</time>
  <course>316.72</course>
  <speed>0.03</speed>
  <fix>3d</fix>
</trkpt>
<trkpt lat="40.0727894" lon="-105.2307015">
  <ele>1595.69</ele>
  <time>2026-08-27T18:29:16Z</time>
  <course>35.23</course>
  <speed>0.01</speed>
  <fix>3d</fix>
</trkpt>
<trkpt lat="40.0727896" lon="-105.2307017">
  <ele>1595.59</ele>
  <time>2026-08-27T18:29:16Z</time>
  <course>317.74</course>
  <speed>0.03</speed>
  <fix>3d</fix>
</trkpt>
<trkpt lat="40.0727894" lon="-105.2307015">
  <ele>1595.69</ele>
  <time>2026-08-27T18:29:16Z</time>
  <course>35.25</course>
  <speed>0.01</speed>
  <fix>3d</fix>
</trkpt>
<trkpt lat="40.0727896" lon="-105.2307017">
  <ele>1595.59</ele>
  <time>2026-08-27T18:29:16Z</time>
  <course>318.88</course>
  <speed>0.03</speed>
  <fix>3d</fix>
</trkpt>
<trkpt lat="40.0727895" lon="-105.2307016">
  <ele>1595.68</ele>
  <time>2026-08-27T18:29:16Z</time>
  <course>35.26</course>
  <speed>0.01</speed>
  <fix>3d</fix>
</trkpt>
<trkpt lat="40.0727897" lon="-105.2307017">
  <ele>1595.59</ele>
  <time>2026-08-27T18:29:16Z</time>
  <course>319.82</course>
  <speed>0.03</speed>
  <fix>3d</fix>
</trkpt>
<trkpt lat="40.0727895" lon="-105.2307017">
  <ele>1595.68</ele>
  <time>2026-08-27T18:29:16Z</time>
  <course>35.27</course>
  <speed>0.01</speed>
  <fix>3d</fix>
</trkpt>
<trkpt lat="40.0727897" lon="-105.2307018">
  <ele>1595.59</ele>
  <time>2026-08-27T18:29:16Z</time>
  <course>320.5</course>
  <speed>0.03</speed>
  <fix>3d</fix>
</trkpt>
<trkpt lat="40.0727896" lon="-105.2307017">
  <ele>1595.68</ele>
  <time>2026-08-27T18:29:16Z</time>
  <course>35.27</course>
  <speed>0.01</speed>
  <fix>3d</fix>
</trkpt>
<trkpt lat="40.0727897" lon="-105.2307019">
  <ele>1595.59</ele>
  <time>2026-08-27T18:29:16Z</time>
  <course>321.11</course>
  <speed>0.03</speed>
  <fix>3d</fix>
</trkpt>
<trkpt lat="40.0727896" lon="-105.2307017">
  <ele>1595.68</ele>
  <time>2026-08-27T18:29:16Z</time>
  <course>35.26</course>
  <speed>0.01</speed>
  <fix>3d</fix>
</trkpt>
<trkpt lat="40.0727898" lon="-105.2307019">
  <ele>1595.59</ele>
  <time>2026-08-27T18:29:16Z</time>
  <course>321.81</course>
  <speed>0.02</speed>
  <fix>3d</fix>
</trkpt>
<trkpt lat="40.0727897" lon="-105.2307018">
  <ele>1595.67</ele>
  <time>2026-08-27T18:29:16Z</time>
  <course>35.26</course>
  <speed>0.0</speed>
  <fix>3d</fix>
</trkpt>
<trkpt lat="40.0727898" lon="-105.2307019">
  <ele>1595.59</ele>
  <time>2026-08-27T18:29:16Z</time>
  <course>322.37</course>
  <speed>0.02</speed>
  <fix>3d</fix>
</trkpt>
<trkpt lat="40.0727897" lon="-105.2307018">
  <ele>1595.67</ele>
  <time>2026-08-27T18:29:16Z</time>
  <course>35.26</course>
  <speed>0.0</speed>
  <fix>3d</fix>
</trkpt>
<trkpt lat="40.0727899" lon="-105.230702">
  <ele>1595.59</ele>
  <time>2026-08-27T18:29:16Z</time>
  <course>322.56</course>
  <speed>0.03</speed>
  <fix>3d</fix>
</trkpt>
<trkpt lat="40.0727897" lon="-105.2307019">
  <ele>1595.67</ele>
  <time>2026-08-27T18:29:16Z</time>
  <course>35.26</course>
  <speed>0.0</speed>
  <fix>3d</fix>
</trkpt>
<trkpt lat="40.07279" lon="-105.2307021">
  <ele>1595.59</ele>
  <time>2026-08-27T18:29:16Z</time>
  <course>322.57</course>
  <speed>0.03</speed>
  <fix>3d</fix>
</trkpt>
<trkpt lat="40.0727898" lon="-105.2307019">
  <ele>1595.68</ele>
  <time>2026-08-27T18:29:16Z</time>
  <course>35.26</course>
  <speed>0.0</speed>
  <fix>3d</fix>
</trkpt>
<trkpt lat="40.07279" lon="-105.2307021">
  <ele>1595.59</ele>
  <time>2026-08-27T18:29:16Z</time>
  <course>322.45</course>
  <speed>0.03</speed>
  <fix>3d</fix>
</trkpt>
<trkpt lat="40.0727898" lon="-105.230702">
  <ele>1595.68</ele>
  <time>2026-08-27T18:29:16Z</time>
  <course>35.26</course>
  <speed>0.01</speed>
  <fix>3d</fix>
</trkpt>
<trkpt lat="40.07279" lon="-105.2307022">
  <ele>1595.59</ele>
  <time>2026-08-27T18:29:16Z</time>
  <course>322.03</course>
  <speed>0.03</speed>
  <fix>3d</fix>
</trkpt>
<trkpt lat="40.0727899" lon="-105.230702">
  <ele>1595.68</ele>
  <time>2026-08-27T18:29:16Z</time>
  <course>35.26</course>
  <speed>0.01</speed>
  <fix>3d</fix>
</trkpt>
<trkpt lat="40.0727901" lon="-105.2307022">
  <ele>1595.59</ele>
  <time>2026-08-27T18:29:16Z</time>
  <course>321.5</course>
  <speed>0.03</speed>
  <fix>3d</fix>
</trkpt>
<trkpt lat="40.0727899" lon="-105.2307021">
  <ele>1595.67</ele>
  <time>2026-08-27T18:29:16Z</time>
  <course>35.26</course>
  <speed>0.0</speed>
  <fix>3d</fix>
</trkpt>
<trkpt lat="40.0727901" lon="-105.2307022">
  <ele>1595.59</ele>
  <time>2026-08-27T18:29:16Z</time>
  <course>321.05</course>
  <speed>0.03</speed>
  <fix>3d</fix>
</trkpt>
<trkpt lat="40.07279" lon="-105.2307021">
  <ele>1595.68</ele>
  <time>2026-08-27T18:29:16Z</time>
  <course>35.26</course>
  <speed>0.0</speed>
  <fix>3d</fix>
</trkpt>
<trkpt lat="40.0727902" lon="-105.2307023">
  <ele>1595.59</ele>
  <time>2026-08-27T18:29:16Z</time>
  <course>320.68</course>
  <speed>0.03</speed>
  <fix>3d</fix>
</trkpt>
<trkpt lat="40.07279" lon="-105.2307022">
  <ele>1595.68</ele>
  <time>2026-08-27T18:29:16Z</time>
  <course>35.27</course>
  <speed>0.0</speed>
  <fix>3d</fix>
</trkpt>
<trkpt lat="40.0727902" lon="-105.2307024">
  <ele>1595.59</ele>
  <time>2026-08-27T18:29:16Z</time>
  <course>320.56</course>
  <speed>0.03</speed>
  <fix>3d</fix>
</trkpt>
<trkpt lat="40.0727901" lon="-105.2307022">
  <ele>1595.69</ele>
  <time>2026-08-27T18:29:16Z</time>
  <course>35.29</course>
  <speed>0.0</speed>
  <fix>3d</fix>
</trkpt>
<trkpt lat="40.0727903" lon="-105.2307024">
  <ele>1595.59</ele>
  <time>2026-08-27T18:29:16Z</time>
  <course>320.77</course>
  <speed>0.03</speed>
  <fix>3d</fix>
</trkpt>
<trkpt lat="40.0727901" lon="-105.2307023">
  <ele>1595.69</ele>
  <time>2026-08-27T18:29:16Z</time>
  <course>35.31</course>
  <speed>0.01</speed>
  <fix>3d</fix>
</trkpt>
<trkpt lat="40.0727903" lon="-105.2307024">
  <ele>1595.59</ele>
  <time>2026-08-27T18:29:16Z</time>
  <course>321.09</course>
  <speed>0.03</speed>
  <fix>3d</fix>
</trkpt>
<trkpt lat="40.0727902" lon="-105.2307023">
  <ele>1595.68</ele>
  <time>2026-08-27T18:29:16Z</time>
  <course>35.29</course>
  <speed>0.01</speed>
  <fix>3d</fix>
</trkpt>
<trkpt lat="40.0727903" lon="-105.2307025">
  <ele>1595.59</ele>
  <time>2026-08-27T18:29:16Z</time>
  <course>321.24</course>
  <speed>0.03</speed>
  <fix>3d</fix>
</trkpt>
<trkpt lat="40.0727902" lon="-105.2307024">
  <ele>1595.68</ele>
  <time>2026-08-27T18:29:16Z</time>
  <course>35.28</course>
  <speed>0.0</speed>
  <fix>3d</fix>
</trkpt>
<trkpt lat="40.0727904" lon="-105.2307026">
  <ele>1595.59</ele>
  <time>2026-08-27T18:29:16Z</time>
  <course>321.04</course>
  <speed>0.03</speed>
  <fix>3d</fix>
</trkpt>
<trkpt lat="40.0727903" lon="-105.2307024">
  <ele>1595.68</ele>
  <time>2026-08-27T18:29:16Z</time>
  <course>35.28</course>
  <speed>0.0</speed>
  <fix>3d</fix>
</trkpt>
<trkpt lat="40.0727904" lon="-105.2307026">
  <ele>1595.59</ele>
  <time>2026-08-27T18:29:16Z</time>
  <course>320.96</course>
  <speed>0.03</speed>
  <fix>3d</fix>
</trkpt>
<trkpt lat="40.0727903" lon="-105.2307025">
  <ele>1595.68</ele>
  <time>2026-08-27T18:29:16Z</time>
  <course>35.28</course>
  <speed>0.0</speed>
  <fix>3d</fix>
</trkpt>
<trkpt lat="40.0727905" lon="-105.2307027">
  <ele>1595.59</ele>
  <time>2026-08-27T18:29:16Z</time>
  <course>321.48</course>
  <speed>0.03</speed>
  <fix>3d</fix>
</trkpt>
<trkpt lat="40.0727904" lon="-105.2307026">
  <ele>1595.68</ele>
  <time>2026-08-27T18:29:16Z</time>
  <course>35.29</course>
  <speed>0.01</speed>
  <fix>3d</fix>
</trkpt>
<trkpt lat="40.0727906" lon="-105.2307027">
  <ele>1595.59</ele>
  <time>2026-08-27T18:29:16Z</time>
  <course>321.89</course>
  <speed>0.03</speed>
  <fix>3d</fix>
</trkpt>
<trkpt lat="40.0727904" lon="-105.2307026">
  <ele>1595.68</ele>
  <time>2026-08-27T18:29:16Z</time>
  <course>35.29</course>
  <speed>0.0</speed>
  <fix>3d</fix>
</trkpt>
<trkpt lat="40.0727906" lon="-105.2307027">
  <ele>1595.59</ele>
  <time>2026-08-27T18:29:16Z</time>
  <course>321.93</course>
  <speed>0.03</speed>
  <fix>3d</fix>
</trkpt>
<trkpt lat="40.0727905" lon="-105.2307026">
  <ele>1595.67</ele>
  <time>2026-08-27T18:29:16Z</time>
  <course>35.29</course>
  <speed>0.0</speed>
  <fix>3d</fix>
</trkpt>
<trkpt lat="40.0727907" lon="-105.2307028">
  <ele>1595.59</ele>
  <time>2026-08-27T18:29:16Z</time>
  <course>322.39</course>
  <speed>0.03</speed>
  <fix>3d</fix>
</trkpt>
<trkpt lat="40.0727905" lon="-105.2307027">
  <ele>1595.68</ele>
  <time>2026-08-27T18:29:16Z</time>
  <course>35.29</course>
  <speed>0.0</speed>
  <fix>3d</fix>
</trkpt>
<trkpt lat="40.0727907" lon="-105.2307029">
  <ele>1595.59</ele>
  <time>2026-08-27T18:29:16Z</time>
  <course>322.7</course>
  <speed>0.03</speed>
  <fix>3d</fix>
</trkpt>
<trkpt lat="40.0727906" lon="-105.2307027">
  <ele>1595.68</ele>
  <time>2026-08-27T18:29:16Z</time>
  <course>35.29</course>
  <speed>0.0</speed>
  <fix>3d</fix>
</trkpt>
<trkpt lat="40.0727908" lon="-105.2307029">
  <ele>1595.59</ele>
  <time>2026-08-27T18:29:16Z</time>
  <course>322.62</course>
  <speed>0.03</speed>
  <fix>3d</fix>
</trkpt>
<trkpt lat="40.0727906" lon="-105.2307028">
  <ele>1595.68</ele>
  <time>2026-08-27T18:29:16Z</time>
  <course>35.3</course>
  <speed>0.0</speed>
  <fix>3d</fix>
</trkpt>
<trkpt lat="40.0727908" lon="-105.2307029">
  <ele>1595.59</ele>
  <time>2026-08-27T18:29:16Z</time>
  <course>322.74</course>
  <speed>0.03</speed>
  <fix>3d</fix>
</trkpt>
<trkpt lat="40.0727907" lon="-105.2307028">
  <ele>1595.68</ele>
  <time>2026-08-27T18:29:16Z</time>
  <course>35.31</course>
  <speed>0.0</speed>
  <fix>3d</fix>
</trkpt>
<trkpt lat="40.0727909" lon="-105.230703">
  <ele>1595.59</ele>
  <time>2026-08-27T18:29:16Z</time>
  <course>322.24</course>
  <speed>0.03</speed>
  <fix>3d</fix>
</trkpt>
<trkpt lat="40.0727907" lon="-105.2307029">
  <ele>1595.68</ele>
  <time>2026-08-27T18:29:16Z</time>
  <course>35.31</course>
  <speed>0.0</speed>
  <fix>3d</fix>
</trkpt>
<trkpt lat="40.0727909" lon="-105.2307031">
  <ele>1595.59</ele>
  <time>2026-08-27T18:29:16Z</time>
  <course>321.73</course>
  <speed>0.03</speed>
  <fix>3d</fix>
</trkpt>
<trkpt lat="40.0727908" lon="-105.2307029">
  <ele>1595.68</ele>
  <time>2026-08-27T18:29:16Z</time>
  <course>35.31</course>
  <speed>0.0</speed>
  <fix>3d</fix>
</trkpt>
<trkpt lat="40.0727909" lon="-105.2307031">
  <ele>1595.59</ele>
  <time>2026-08-27T18:29:16Z</time>
  <course>321.22</course>
  <speed>0.03</speed>
  <fix>3d</fix>
</trkpt>
<trkpt lat="40.0727908" lon="-105.230703">
  <ele>1595.68</ele>
  <time>2026-08-27T18:29:16Z</time>
  <course>35.31</course>
  <speed>0.0</speed>
  <fix>3d</fix>
</trkpt>
<trkpt lat="40.072791" lon="-105.2307031">
  <ele>1595.59</ele>
  <time>2026-08-27T18:29:16Z</time>
  <course>320.97</course>
  <speed>0.03</speed>
  <fix>3d</fix>
</trkpt>
<trkpt lat="40.0727909" lon="-105.230703">
  <ele>1595.68</ele>
  <time>2026-08-27T18:29:16Z</time>
  <course>35.31</course>
  <speed>0.0</speed>
  <fix>3d</fix>
</trkpt>
<trkpt lat="40.072791" lon="-105.2307032">
  <ele>1595.59</ele>
  <time>2026-08-27T18:29:16Z</time>
  <course>320.85</course>
  <speed>0.03</speed>
  <fix>3d</fix>
</trkpt>
<trkpt lat="40.0727909" lon="-105.2307031">
  <ele>1595.68</ele>
  <time>2026-08-27T18:29:16Z</time>
  <course>35.31</course>
  <speed>0.0</speed>
  <fix>3d</fix>
</trkpt>
<trkpt lat="40.0727911" lon="-105.2307033">
  <ele>1595.58</ele>
  <time>2026-08-27T18:29:16Z</time>
  <course>321.06</course>
  <speed>0.03</speed>
  <fix>3d</fix>
</trkpt>
<trkpt lat="40.072791" lon="-105.2307031">
  <ele>1595.68</ele>
  <time>2026-08-27T18:29:16Z</time>
  <course>35.3</course>
  <speed>0.0</speed>
  <fix>3d</fix>
</trkpt>
<trkpt lat="40.0727912" lon="-105.2307033">
  <ele>1595.58</ele>
  <time>2026-08-27T18:29:16Z</time>
  <course>321.27</course>
  <speed>0.03</speed>
  <fix>3d</fix>
</trkpt>
<trkpt lat="40.072791" lon="-105.2307032">
  <ele>1595.68</ele>
  <time>2026-08-27T18:29:16Z</time>
  <course>35.32</course>
  <speed>0.0</speed>
  <fix>3d</fix>
</trkpt>
<trkpt lat="40.0727912" lon="-105.2307034">
  <ele>1595.58</ele>
  <time>2026-08-27T18:29:16Z</time>
  <course>321.27</course>
  <speed>0.03</speed>
  <fix>3d</fix>
</trkpt>
<trkpt lat="40.0727911" lon="-105.2307032">
  <ele>1595.67</ele>
  <time>2026-08-27T18:29:16Z</time>
  <course>35.31</course>
  <speed>0.0</speed>
  <fix>3d</fix>
</trkpt>
<trkpt lat="40.0727913" lon="-105.2307034">
  <ele>1595.58</ele>
  <time>2026-08-27T18:29:16Z</time>
  <course>321.65</course>
  <speed>0.03</speed>
  <fix>3d</fix>
</trkpt>
<trkpt lat="40.0727911" lon="-105.2307033">
  <ele>1595.67</ele>
  <time>2026-08-27T18:29:16Z</time>
  <course>35.31</course>
  <speed>0.0</speed>
  <fix>3d</fix>
</trkpt>
<trkpt lat="40.0727913" lon="-105.2307034">
  <ele>1595.58</ele>
  <time>2026-08-27T18:29:16Z</time>
  <course>321.34</course>
  <speed>0.03</speed>
  <fix>3d</fix>
</trkpt>
<trkpt lat="40.0727912" lon="-105.2307033">
  <ele>1595.67</ele>
  <time>2026-08-27T18:29:16Z</time>
  <course>35.31</course>
  <speed>0.0</speed>
  <fix>3d</fix>
</trkpt>
<trkpt lat="40.0727914" lon="-105.2307035">
  <ele>1595.58</ele>
  <time>2026-08-27T18:29:16Z</time>
  <course>321.79</course>
  <speed>0.03</speed>
  <fix>3d</fix>
</trkpt>
<trkpt lat="40.0727912" lon="-105.2307034">
  <ele>1595.67</ele>
  <time>2026-08-27T18:29:16Z</time>
  <course>35.3</course>
  <speed>0.0</speed>
  <fix>3d</fix>
</trkpt>
<trkpt lat="40.0727914" lon="-105.2307036">
  <ele>1595.58</ele>
  <time>2026-08-27T18:29:16Z</time>
  <course>322.45</course>
  <speed>0.03</speed>
  <fix>3d</fix>
</trkpt>
<trkpt lat="40.0727913" lon="-105.2307034">
  <ele>1595.67</ele>
  <time>2026-08-27T18:29:16Z</time>
  <course>35.31</course>
  <speed>0.0</speed>
  <fix>3d</fix>
</trkpt>
<trkpt lat="40.0727915" lon="-105.2307036">
  <ele>1595.59</ele>
  <time>2026-08-27T18:29:16Z</time>
  <course>322.0</course>
  <speed>0.03</speed>
  <fix>3d</fix>
</trkpt>
<trkpt lat="40.0727913" lon="-105.2307035">
  <ele>1595.67</ele>
  <time>2026-08-27T18:29:16Z</time>
  <course>35.32</course>
  <speed>0.0</speed>
  <fix>3d</fix>
</trkpt>
<trkpt lat="40.0727915" lon="-105.2307036">
  <ele>1595.59</ele>
  <time>2026-08-27T18:29:16Z</time>
  <course>321.76</course>
  <speed>0.03</speed>
  <fix>3d</fix>
</trkpt>
<trkpt lat="40.0727914" lon="-105.2307035">
  <ele>1595.67</ele>
  <time>2026-08-27T18:29:16Z</time>
  <course>35.32</course>
  <speed>0.0</speed>
  <fix>3d</fix>
</trkpt>
<trkpt lat="40.0727915" lon="-105.2307037">
  <ele>1595.59</ele>
  <time>2026-08-27T18:29:16Z</time>
  <course>322.23</course>
  <speed>0.03</speed>
  <fix>3d</fix>
</trkpt>
<trkpt lat="40.0727914" lon="-105.2307036">
  <ele>1595.67</ele>
  <time>2026-08-27T18:29:16Z</time>
  <course>35.31</course>
  <speed>0.0</speed>
  <fix>3d</fix>
</trkpt>
<trkpt lat="40.0727916" lon="-105.2307038">
  <ele>1595.59</ele>
  <time>2026-08-27T18:29:16Z</time>
  <course>322.41</course>
  <speed>0.03</speed>
  <fix>3d</fix>
</trkpt>
<trkpt lat="40.0727915" lon="-105.2307036">
  <ele>1595.67</ele>
  <time>2026-08-27T18:29:16Z</time>
  <course>35.3</course>
  <speed>0.0</speed>
  <fix>3d</fix>
</trkpt>
<trkpt lat="40.0727916" lon="-105.2307038">
  <ele>1595.59</ele>
  <time>2026-08-27T18:29:16Z</time>
  <course>321.84</course>
  <speed>0.03</speed>
  <fix>3d</fix>
</trkpt>
<trkpt lat="40.0727915" lon="-105.2307037">
  <ele>1595.68</ele>
  <time>2026-08-27T18:29:16Z</time>
  <course>35.31</course>
  <speed>0.0</speed>
  <fix>3d</fix>
</trkpt>
<trkpt lat="40.0727917" lon="-105.2307039">
  <ele>1595.6</ele>
  <time>2026-08-27T18:29:16Z</time>
  <course>321.06</course>
  <speed>0.03</speed>
  <fix>3d</fix>
</trkpt>
<trkpt lat="40.0727916" lon="-105.2307038">
  <ele>1595.69</ele>
  <time>2026-08-27T18:29:16Z</time>
  <course>35.33</course>
  <speed>0.0</speed>
  <fix>3d</fix>
</trkpt>
<trkpt lat="40.0727918" lon="-105.2307039">
  <ele>1595.6</ele>
  <time>2026-08-27T18:29:16Z</time>
  <course>320.55</course>
  <speed>0.03</speed>
  <fix>3d</fix>
</trkpt>
<trkpt lat="40.0727916" lon="-105.2307038">
  <ele>1595.69</ele>
  <time>2026-08-27T18:29:16Z</time>
  <course>35.35</course>
  <speed>0.0</speed>
  <fix>3d</fix>
</trkpt>
<trkpt lat="40.0727918" lon="-105.2307039">
  <ele>1595.6</ele>
  <time>2026-08-27T18:29:16Z</time>
  <course>320.51</course>
  <speed>0.03</speed>
  <fix>3d</fix>
</trkpt>
<trkpt lat="40.0727917" lon="-105.2307038">
  <ele>1595.69</ele>
  <time>2026-08-27T18:29:16Z</time>
  <course>35.36</course>
  <speed>0.0</speed>
  <fix>3d</fix>
</trkpt>
<trkpt lat="40.0727919" lon="-105.230704">
  <ele>1595.6</ele>
  <time>2026-08-27T18:29:16Z</time>
  <course>320.78</course>
  <speed>0.03</speed>
  <fix>3d</fix>
</trkpt>
<trkpt lat="40.0727917" lon="-105.2307039">
  <ele>1595.68</ele>
  <time>2026-08-27T18:29:16Z</time>
  <course>35.35</course>
  <speed>0.0</speed>
  <fix>3d</fix>
</trkpt>
<trkpt lat="40.0727919" lon="-105.2307041">
  <ele>1595.6</ele>
  <time>2026-08-27T18:29:16Z</time>
  <course>321.12</course>
  <speed>0.03</speed>
  <fix>3d</fix>
</trkpt>
<trkpt lat="40.0727918" lon="-105.2307039">
  <ele>1595.68</ele>
  <time>2026-08-27T18:29:16Z</time>
  <course>35.35</course>
  <speed>0.0</speed>
  <fix>3d</fix>
</trkpt>
<trkpt lat="40.072792" lon="-105.2307041">
  <ele>1595.6</ele>
  <time>2026-08-27T18:29:16Z</time>
  <course>321.37</course>
  <speed>0.03</speed>
  <fix>3d</fix>
</trkpt>
<trkpt lat="40.0727918" lon="-105.230704">
  <ele>1595.67</ele>
  <time>2026-08-27T18:29:16Z</time>
  <course>35.34</course>
  <speed>0.0</speed>
  <fix>3d</fix>
</trkpt>
<trkpt lat="40.072792" lon="-105.2307041">
  <ele>1595.6</ele>
  <time>2026-08-27T18:29:16Z</time>
  <course>321.46</course>
  <speed>0.03</speed>
  <fix>3d</fix>
</trkpt>
<trkpt lat="40.0727919" lon="-105.230704">
  <ele>1595.67</ele>
  <time>2026-08-27T18:29:16Z</time>
  <course>35.33</course>
  <speed>0.0</speed>
  <fix>3d</fix>
</trkpt>
<trkpt lat="40.0727921" lon="-105.2307042">
  <ele>1595.6</ele>
  <time>2026-08-27T18:29:16Z</time>
  <course>321.47</course>
  <speed>0.03</speed>
  <fix>3d</fix>
</trkpt>
<trkpt lat="40.0727919" lon="-105.2307041">
  <ele>1595.67</ele>
  <time>2026-08-27T18:29:16Z</time>
  <course>35.33</course>
  <speed>0.0</speed>
  <fix>3d</fix>
</trkpt>
<trkpt lat="40.0727921" lon="-105.2307043">
  <ele>1595.6</ele>
  <time>2026-08-27T18:29:16Z</time>
  <course>321.21</course>
  <speed>0.03</speed>
  <fix>3d</fix>
</trkpt>
<trkpt lat="40.072792" lon="-105.2307041">
  <ele>1595.67</ele>
  <time>2026-08-27T18:29:16Z</time>
  <course>35.32</course>
  <speed>0.01</speed>
  <fix>3d</fix>
</trkpt>
<trkpt lat="40.0727921" lon="-105.2307043">
  <ele>1595.6</ele>
  <time>2026-08-27T18:29:16Z</time>
  <course>320.26</course>
  <speed>0.03</speed>
  <fix>3d</fix>
</trkpt>
<trkpt lat="40.072792" lon="-105.2307042">
  <ele>1595.68</ele>
  <time>2026-08-27T18:29:16Z</time>
  <course>35.32</course>
  <speed>0.01</speed>
  <fix>3d</fix>
</trkpt>
<trkpt lat="40.0727922" lon="-105.2307044">
  <ele>1595.6</ele>
  <time>2026-08-27T18:29:16Z</time>
  <course>318.58</course>
  <speed>0.03</speed>
  <fix>3d</fix>
</trkpt>
<trkpt lat="40.0727921" lon="-105.2307043">
  <ele>1595.68</ele>
  <time>2026-08-27T18:29:16Z</time>
  <course>35.33</course>
  <speed>0.01</speed>
  <fix>3d</fix>
</trkpt>
<trkpt lat="40.0727922" lon="-105.2307045">
  <ele>1595.6</ele>
  <time>2026-08-27T18:29:16Z</time>
  <course>316.83</course>
  <speed>0.03</speed>
  <fix>3d</fix>
</trkpt>
<trkpt lat="40.0727921" lon="-105.2307043">
  <ele>1595.68</ele>
  <time>2026-08-27T18:29:16Z</time>
  <course>35.33</course>
  <speed>0.01</speed>
  <fix>3d</fix>
</trkpt>
<trkpt lat="40.0727923" lon="-105.2307045">
  <ele>1595.61</ele>
  <time>2026-08-27T18:29:16Z</time>
  <course>315.65</course>
  <speed>0.04</speed>
  <fix>3d</fix>
</trkpt>
<trkpt lat="40.0727922" lon="-105.2307044">
  <ele>1595.69</ele>
  <time>2026-08-27T18:29:16Z</time>
  <course>35.34</course>
  <speed>0.01</speed>
  <fix>3d</fix>
</trkpt>
<trkpt lat="40.0727924" lon="-105.2307046">
  <ele>1595.61</ele>
  <time>2026-08-27T18:29:16Z</time>
  <course>314.88</course>
  <speed>0.04</speed>
  <fix>3d</fix>
</trkpt>
<trkpt lat="40.0727922" lon="-105.2307045">
  <ele>1595.69</ele>
  <time>2026-08-27T18:29:16Z</time>
  <course>35.34</course>
  <speed>0.01</speed>
  <fix>3d</fix>
</trkpt>
<trkpt lat="40.0727924" lon="-105.2307046">
  <ele>1595.61</ele>
  <time>2026-08-27T18:29:16Z</time>
  <course>314.33</course>
  <speed>0.04</speed>
  <fix>3d</fix>
</trkpt>
<trkpt lat="40.0727923" lon="-105.2307046">
  <ele>1595.69</ele>
  <time>2026-08-27T18:29:16Z</time>
  <course>35.35</course>
  <speed>0.02</speed>
  <fix>3d</fix>
</trkpt>
<trkpt lat="40.0727925" lon="-105.2307047">
  <ele>1595.61</ele>
  <time>2026-08-27T18:29:16Z</time>
  <course>313.69</course>
  <speed>0.04</speed>
  <fix>3d</fix>
</trkpt>
<trkpt lat="40.0727923" lon="-105.2307046">
  <ele>1595.7</ele>
  <time>2026-08-27T18:29:16Z</time>
  <course>35.37</course>
  <speed>0.02</speed>
  <fix>3d</fix>
</trkpt>
<trkpt lat="40.0727925" lon="-105.2307048">
  <ele>1595.61</ele>
  <time>2026-08-27T18:29:16Z</time>
  <course>312.98</course>
  <speed>0.04</speed>
  <fix>3d</fix>
</trkpt>
<trkpt lat="40.0727924" lon="-105.2307047">
  <ele>1595.69</ele>
  <time>2026-08-27T18:29:16Z</time>
  <course>35.37</course>
  <speed>0.02</speed>
  <fix>3d</fix>
</trkpt>
<trkpt lat="40.0727926" lon="-105.2307049">
  <ele>1595.61</ele>
  <time>2026-08-27T18:29:16Z</time>
  <course>312.45</course>
  <speed>0.04</speed>
  <fix>3d</fix>
</trkpt>
<trkpt lat="40.0727924" lon="-105.2307048">
  <ele>1595.69</ele>
  <time>2026-08-27T18:29:16Z</time>
  <course>35.35</course>
  <speed>0.02</speed>
  <fix>3d</fix>
</trkpt>
<trkpt lat="40.0727926" lon="-105.230705">
  <ele>1595.6</ele>
  <time>2026-08-27T18:29:16Z</time>
  <course>311.98</course>
  <speed>0.04</speed>
  <fix>3d</fix>
</trkpt>
<trkpt lat="40.0727925" lon="-105.2307049">
  <ele>1595.68</ele>
  <time>2026-08-27T18:29:16Z</time>
  <course>35.34</course>
  <speed>0.02</speed>
  <fix>3d</fix>
</trkpt>
<trkpt lat="40.0727927" lon="-105.230705">
  <ele>1595.6</ele>
  <time>2026-08-27T18:29:16Z</time>
  <course>311.68</course>
  <speed>0.04</speed>
  <fix>3d</fix>
</trkpt>
<trkpt lat="40.0727926" lon="-105.230705">
  <ele>1595.68</ele>
  <time>2026-08-27T18:29:16Z</time>
  <course>35.33</course>
  <speed>0.02</speed>
  <fix>3d</fix>
</trkpt>
<trkpt lat="40.0727927" lon="-105.2307051">
  <ele>1595.6</ele>
  <time>2026-08-27T18:29:16Z</time>
  <course>311.68</course>
  <speed>0.04</speed>
  <fix>3d</fix>
</trkpt>
<trkpt lat="40.0727926" lon="-105.2307051">
  <ele>1595.68</ele>
  <time>2026-08-27T18:29:16Z</time>
  <course>35.33</course>
  <speed>0.02</speed>
  <fix>3d</fix>
</trkpt>
<trkpt lat="40.0727928" lon="-105.2307052">
  <ele>1595.6</ele>
  <time>2026-08-27T18:29:16Z</time>
  <course>311.87</course>
  <speed>0.04</speed>
  <fix>3d</fix>
</trkpt>
<trkpt lat="40.0727927" lon="-105.2307051">
  <ele>1595.68</ele>
  <time>2026-08-27T18:29:16Z</time>
  <course>35.33</course>
  <speed>0.02</speed>
  <fix>3d</fix>
</trkpt>
<trkpt lat="40.0727928" lon="-105.2307053">
  <ele>1595.6</ele>
  <time>2026-08-27T18:29:16Z</time>
  <course>312.02</course>
  <speed>0.04</speed>
  <fix>3d</fix>
</trkpt>
<trkpt lat="40.0727927" lon="-105.2307052">
  <ele>1595.68</ele>
  <time>2026-08-27T18:29:16Z</time>
  <course>35.33</course>
  <speed>0.02</speed>
  <fix>3d</fix>
</trkpt>
<trkpt lat="40.0727929" lon="-105.2307054">
  <ele>1595.6</ele>
  <time>2026-08-27T18:29:16Z</time>
  <course>312.12</course>
  <speed>0.04</speed>
  <fix>3d</fix>
</trkpt>
<trkpt lat="40.0727928" lon="-105.2307053">
  <ele>1595.69</ele>
  <time>2026-08-27T18:29:16Z</time>
  <course>35.34</course>
  <speed>0.02</speed>
  <fix>3d</fix>
</trkpt>
<trkpt lat="40.072793" lon="-105.2307055">
  <ele>1595.6</ele>
  <time>2026-08-27T18:29:16Z</time>
  <course>312.21</course>
  <speed>0.04</speed>
  <fix>3d</fix>
</trkpt>
<trkpt lat="40.0727929" lon="-105.2307054">
  <ele>1595.69</ele>
  <time>2026-08-27T18:29:16Z</time>
  <course>35.34</course>
  <speed>0.03605551275463989</speed>
  <fix>3d</fix>
</trkpt>
<trkpt lat="40.072793" lon="-105.2307056">
  <ele>1595.6</ele>
  <time>2026-08-27T18:29:16Z</time>
  <course>311.84</course>
  <speed>0.05</speed>
  <fix>3d</fix>
</trkpt>
<trkpt lat="40.0727929" lon="-105.2307055">
  <ele>1595.69</ele>
  <time>2026-08-27T18:29:16Z</time>
  <course>35.36</course>
  <speed>0.03605551275463989</speed>
  <fix>3d</fix>
</trkpt>
<trkpt lat="40.0727931" lon="-105.2307057">
  <ele>1595.6</ele>
  <time>2026-08-27T18:29:16Z</time>
  <course>311.83</course>
  <speed>0.06</speed>
  <fix>3d</fix>
</trkpt>
<trkpt lat="40.072793" lon="-105.2307057">
  <ele>1595.69</ele>
  <time>2026-08-27T18:29:16Z</time>
  <course>35.36</course>
  <speed>0.0316227766016838</speed>
  <fix>3d</fix>
</trkpt>
<trkpt lat="40.0727932" lon="-105.2307058">
  <ele>1595.6</ele>
  <time>2026-08-27T18:29:16Z</time>
  <course>311.38</course>
  <speed>0.06</speed>
  <fix>3d</fix>
</trkpt>
<trkpt lat="40.0727931" lon="-105.2307058">
  <ele>1595.69</ele>
  <time>2026-08-27T18:29:16Z</time>
  <course>35.37</course>
  <speed>0.022360679774997897</speed>
  <fix>3d</fix>
</trkpt>
<trkpt lat="40.0727933" lon="-105.2307059">
  <ele>1595.59</ele>
  <time>2026-08-27T18:29:16Z</time>
  <course>310.63</course>
  <speed>0.06</speed>
  <fix>3d</fix>
</trkpt>
<trkpt lat="40.0727931" lon="-105.2307059">
  <ele>1595.68</ele>
  <time>2026-08-27T18:29:16Z</time>
  <course>35.36</course>
  <speed>0.02</speed>
  <fix>3d</fix>
</trkpt>
<trkpt lat="40.0727933" lon="-105.230706">
  <ele>1595.59</ele>
  <time>2026-08-27T18:29:16Z</time>
  <course>311.55</course>
  <speed>0.05</speed>
  <fix>3d</fix>
</trkpt>
<trkpt lat="40.0727932" lon="-105.230706">
  <ele>1595.68</ele>
  <time>2026-08-27T18:29:16Z</time>
  <course>35.36</course>
  <speed>0.01</speed>
  <fix>3d</fix>
</trkpt>
<trkpt lat="40.0727934" lon="-105.2307061">
  <ele>1595.59</ele>
  <time>2026-08-27T18:29:16Z</time>
  <course>314.11</course>
  <speed>0.04</speed>
  <fix>3d</fix>
</trkpt>
<trkpt lat="40.0727933" lon="-105.230706">
  <ele>1595.67</ele>
  <time>2026-08-27T18:29:16Z</time>
  <course>35.35</course>
  <speed>0.01</speed>
  <fix>3d</fix>
</trkpt>
<trkpt lat="40.0727934" lon="-105.2307062">
  <ele>1595.59</ele>
  <time>2026-08-27T18:29:16Z</time>
  <course>317.64</course>
  <speed>0.04</speed>
  <fix>3d</fix>
</trkpt>
<trkpt lat="40.0727933" lon="-105.2307061">
  <ele>1595.67</ele>
  <time>2026-08-27T18:29:16Z</time>
  <course>35.34</course>
  <speed>0.01</speed>
  <fix>3d</fix>
</trkpt>
<trkpt lat="40.0727935" lon="-105.2307062">
  <ele>1595.59</ele>
  <time>2026-08-27T18:29:16Z</time>
  <course>321.19</course>
  <speed>0.03</speed>
  <fix>3d</fix>
</trkpt>
<trkpt lat="40.0727934" lon="-105.2307061">
  <ele>1595.67</ele>
  <time>2026-08-27T18:29:16Z</time>
  <course>35.33</course>
  <speed>0.01</speed>
  <fix>3d</fix>
</trkpt>
<trkpt lat="40.0727936" lon="-105.2307063">
  <ele>1595.59</ele>
  <time>2026-08-27T18:29:16Z</time>
  <course>323.94</course>
  <speed>0.03</speed>
  <fix>3d</fix>
</trkpt>
<trkpt lat="40.0727934" lon="-105.2307062">
  <ele>1595.67</ele>
  <time>2026-08-27T18:29:16Z</time>
  <course>35.33</course>
  <speed>0.01</speed>
  <fix>3d</fix>
</trkpt>
<trkpt lat="40.0727936" lon="-105.2307063">
  <ele>1595.59</ele>
  <time>2026-08-27T18:29:16Z</time>
  <course>325.48</course>
  <speed>0.03</speed>
  <fix>3d</fix>
</trkpt>
<trkpt lat="40.0727935" lon="-105.2307062">
  <ele>1595.68</ele>
  <time>2026-08-27T18:29:16Z</time>
  <course>35.34</course>
  <speed>0.01</speed>
  <fix>3d</fix>
</trkpt>
<trkpt lat="40.0727937" lon="-105.2307063">
  <ele>1595.59</ele>
  <time>2026-08-27T18:29:16Z</time>
  <course>325.89</course>
  <speed>0.03</speed>
  <fix>3d</fix>
</trkpt>
<trkpt lat="40.0727935" lon="-105.2307063">
  <ele>1595.69</ele>
  <time>2026-08-27T18:29:16Z</time>
  <course>35.35</course>
  <speed>0.01</speed>
  <fix>3d</fix>
</trkpt>
<trkpt lat="40.0727937" lon="-105.2307064">
  <ele>1595.59</ele>
  <time>2026-08-27T18:29:16Z</time>
  <course>325.61</course>
  <speed>0.03</speed>
  <fix>3d</fix>
</trkpt>
<trkpt lat="40.0727936" lon="-105.2307063">
  <ele>1595.69</ele>
  <time>2026-08-27T18:29:16Z</time>
  <course>35.36</course>
  <speed>0.01</speed>
  <fix>3d</fix>
</trkpt>
<trkpt lat="40.0727938" lon="-105.2307065">
  <ele>1595.59</ele>
  <time>2026-08-27T18:29:16Z</time>
  <course>325.13</course>
  <speed>0.03</speed>
  <fix>3d</fix>
</trkpt>
<trkpt lat="40.0727936" lon="-105.2307063">
  <ele>1595.7</ele>
  <time>2026-08-27T18:29:16Z</time>
  <course>35.37</course>
  <speed>0.0</speed>
  <fix>3d</fix>
</trkpt>
<trkpt lat="40.0727938" lon="-105.2307065">
  <ele>1595.59</ele>
  <time>2026-08-27T18:29:16Z</time>
  <course>328.63</course>
  <speed>0.03</speed>
  <fix>3d</fix>
</trkpt>
<trkpt lat="40.0727937" lon="-105.2307064">
  <ele>1595.7</ele>
  <time>2026-08-27T18:29:16Z</time>
  <course>35.39</course>
  <speed>0.0</speed>
  <fix>3d</fix>
</trkpt>
<trkpt lat="40.0727939" lon="-105.2307065">
  <ele>1595.59</ele>
  <time>2026-08-27T18:29:16Z</time>
  <course>334.44</course>
  <speed>0.02</speed>
  <fix>3d</fix>
</trkpt>
<trkpt lat="40.0727937" lon="-105.2307064">
  <ele>1595.7</ele>
  <time>2026-08-27T18:29:16Z</time>
  <course>35.38</course>
  <speed>0.0</speed>
  <fix>3d</fix>
</trkpt>
<trkpt lat="40.0727939" lon="-105.2307065">
  <ele>1595.59</ele>
  <time>2026-08-27T18:29:16Z</time>
  <course>334.47</course>
  <speed>0.02</speed>
  <fix>3d</fix>
</trkpt>
<trkpt lat="40.0727938" lon="-105.2307064">
  <ele>1595.7</ele>
  <time>2026-08-27T18:29:16Z</time>
  <course>35.37</course>
  <speed>0.0</speed>
  <fix>3d</fix>
</trkpt>
<trkpt lat="40.0727939" lon="-105.2307066">
  <ele>1595.58</ele>
  <time>2026-08-27T18:29:16Z</time>
  <course>332.36</course>
  <speed>0.02</speed>
  <fix>3d</fix>
</trkpt>
<trkpt lat="40.0727938" lon="-105.2307065">
  <ele>1595.7</ele>
  <time>2026-08-27T18:29:16Z</time>
  <course>35.4</course>
  <speed>0.01</speed>
  <fix>3d</fix>
</trkpt>
<trkpt lat="40.072794" lon="-105.2307067">
  <ele>1595.58</ele>
  <time>2026-08-27T18:29:16Z</time>
  <course>327.76</course>
  <speed>0.03</speed>
  <fix>3d</fix>
</trkpt>
<trkpt lat="40.0727939" lon="-105.2307065">
  <ele>1595.69</ele>
  <time>2026-08-27T18:29:16Z</time>
  <course>35.38</course>
  <speed>0.01</speed>
  <fix>3d</fix>
</trkpt>
<trkpt lat="40.072794" lon="-105.2307067">
  <ele>1595.57</ele>
  <time>2026-08-27T18:29:16Z</time>
  <course>323.59</course>
  <speed>0.03</speed>
  <fix>3d</fix>
</trkpt>
<trkpt lat="40.0727939" lon="-105.2307066">
  <ele>1595.68</ele>
  <time>2026-08-27T18:29:16Z</time>
  <course>35.37</course>
  <speed>0.01414213562373095</speed>
  <fix>3d</fix>
</trkpt>
<trkpt lat="40.0727941" lon="-105.2307067">
  <ele>1595.57</ele>
  <time>2026-08-27T18:29:16Z</time>
  <course>320.66</course>
  <speed>0.04</speed>
  <fix>3d</fix>
</trkpt>
<trkpt lat="40.072794" lon="-105.2307067">
  <ele>1595.67</ele>
  <time>2026-08-27T18:29:16Z</time>
  <course>35.35</course>
  <speed>0.022360679774997897</speed>
  <fix>3d</fix>
</trkpt>
<trkpt lat="40.0727942" lon="-105.2307068">
  <ele>1595.57</ele>
  <time>2026-08-27T18:29:16Z</time>
  <course>318.23</course>
  <speed>0.04</speed>
  <fix>3d</fix>
</trkpt>
<trkpt lat="40.072794" lon="-105.2307067">
  <ele>1595.67</ele>
  <time>2026-08-27T18:29:16Z</time>
  <course>35.34</course>
  <speed>0.022360679774997897</speed>
  <fix>3d</fix>
</trkpt>
<trkpt lat="40.0727942" lon="-105.2307069">
  <ele>1595.56</ele>
  <time>2026-08-27T18:29:16Z</time>
  <course>316.1</course>
  <speed>0.04</speed>
  <fix>3d</fix>
</trkpt>
<trkpt lat="40.0727941" lon="-105.2307068">
  <ele>1595.67</ele>
  <time>2026-08-27T18:29:16Z</time>
  <course>35.32</course>
  <speed>0.022360679774997897</speed>
  <fix>3d</fix>
</trkpt>
<trkpt lat="40.0727943" lon="-105.230707">
  <ele>1595.56</ele>
  <time>2026-08-27T18:29:16Z</time>
  <course>314.55</course>
  <speed>0.05</speed>
  <fix>3d</fix>
</trkpt>
<trkpt lat="40.0727942" lon="-105.2307069">
  <ele>1595.66</ele>
  <time>2026-08-27T18:29:16Z</time>
  <course>35.31</course>
  <speed>0.022360679774997897</speed>
  <fix>3d</fix>
</trkpt>
<trkpt lat="40.0727944" lon="-105.230707">
  <ele>1595.57</ele>
  <time>2026-08-27T18:29:16Z</time>
  <course>313.37</course>
  <speed>0.05</speed>
  <fix>3d</fix>
</trkpt>
<trkpt lat="40.0727942" lon="-105.230707">
  <ele>1595.67</ele>
  <time>2026-08-27T18:29:16Z</time>
  <course>35.31</course>
  <speed>0.022360679774997897</speed>
  <fix>3d</fix>
</trkpt>
<trkpt lat="40.0727944" lon="-105.2307071">
  <ele>1595.57</ele>
  <time>2026-08-27T18:29:16Z</time>
  <course>312.31</course>
  <speed>0.05</speed>
  <fix>3d</fix>
</trkpt>
<trkpt lat="40.0727943" lon="-105.2307071">
  <ele>1595.67</ele>
  <time>2026-08-27T18:29:16Z</time>
  <course>35.34</course>
  <speed>0.0316227766016838</speed>
  <fix>3d</fix>
</trkpt>
<trkpt lat="40.0727945" lon="-105.2307072">
  <ele>1595.57</ele>
  <time>2026-08-27T18:29:16Z</time>
  <course>311.27</course>
  <speed>0.05</speed>
  <fix>3d</fix>
</trkpt>
<trkpt lat="40.0727944" lon="-105.2307072">
  <ele>1595.67</ele>
  <time>2026-08-27T18:29:16Z</time>
  <course>35.34</course>
  <speed>0.0316227766016838</speed>
  <fix>3d</fix>
</trkpt>
<trkpt lat="40.0727946" lon="-105.2307073">
  <ele>1595.57</ele>
  <time>2026-08-27T18:29:16Z</time>
  <course>310.5</course>
  <speed>0.05</speed>
  <fix>3d</fix>
</trkpt>
<trkpt lat="40.0727945" lon="-105.2307073">
  <ele>1595.67</ele>
  <time>2026-08-27T18:29:16Z</time>
  <course>35.35</course>
  <speed>0.0316227766016838</speed>
  <fix>3d</fix>
</trkpt>
<trkpt lat="40.0727946" lon="-105.2307074">
  <ele>1595.57</ele>
  <time>2026-08-27T18:29:16Z</time>
  <course>310.21</course>
  <speed>0.05</speed>
  <fix>3d</fix>
</trkpt>
<trkpt lat="40.0727945" lon="-105.2307074">
  <ele>1595.68</ele>
  <time>2026-08-27T18:29:16Z</time>
  <course>35.35</course>
  <speed>0.0316227766016838</speed>
  <fix>3d</fix>
</trkpt>
<trkpt lat="40.0727947" lon="-105.2307075">
  <ele>1595.58</ele>
  <time>2026-08-27T18:29:16Z</time>
  <course>310.16</course>
  <speed>0.06</speed>
  <fix>3d</fix>
</trkpt>
<trkpt lat="40.0727946" lon="-105.2307075">
  <ele>1595.68</ele>
  <time>2026-08-27T18:29:16Z</time>
  <course>35.35</course>
  <speed>0.044721359549995794</speed>
  <fix>3d</fix>
</trkpt>
<trkpt lat="40.0727947" lon="-105.2307077">
  <ele>1595.58</ele>
  <time>2026-08-27T18:29:16Z</time>
  <course>309.97</course>
  <speed>0.06</speed>
  <fix>3d</fix>
</trkpt>
<trkpt lat="40.0727947" lon="-105.2307077">
  <ele>1595.68</ele>
  <time>2026-08-27T18:29:16Z</time>
  <course>35.39</course>
  <speed>0.05</speed>
  <fix>3d</fix>
</trkpt>
<trkpt lat="40.0727948" lon="-105.2307078">
  <ele>1595.58</ele>
  <time>2026-08-27T18:29:16Z</time>
  <course>310.29</course>
  <speed>0.07</speed>
  <fix>3d</fix>
</trkpt>
<trkpt lat="40.0727948" lon="-105.2307078">
  <ele>1595.68</ele>
  <time>2026-08-27T18:29:16Z</time>
  <course>35.38</course>
  <speed>0.044721359549995794</speed>
  <fix>3d</fix>
</trkpt>
<trkpt lat="40.0727949" lon="-105.2307079">
  <ele>1595.58</ele>
  <time>2026-08-27T18:29:16Z</time>
  <course>309.39</course>
  <speed>0.07</speed>
  <fix>3d</fix>
</trkpt>
<trkpt lat="40.0727948" lon="-105.2307079">
  <ele>1595.68</ele>
  <time>2026-08-27T18:29:16Z</time>
  <course>35.37</course>
  <speed>0.0412310562561766</speed>
  <fix>3d</fix>
</trkpt>
<trkpt lat="40.072795" lon="-105.2307081">
  <ele>1595.58</ele>
  <time>2026-08-27T18:29:16Z</time>
  <course>307.81</course>
  <speed>0.06</speed>
  <fix>3d</fix>
</trkpt>
<trkpt lat="40.0727949" lon="-105.230708">
  <ele>1595.67</ele>
  <time>2026-08-27T18:29:16Z</time>
  <course>35.36</course>
  <speed>0.0316227766016838</speed>
  <fix>3d</fix>
</trkpt>
<trkpt lat="40.0727951" lon="-105.2307082">
  <ele>1595.58</ele>
  <time>2026-08-27T18:29:16Z</time>
  <course>308.31</course>
  <speed>0.06</speed>
  <fix>3d</fix>
</trkpt>
<trkpt lat="40.072795" lon="-105.2307081">
  <ele>1595.67</ele>
  <time>2026-08-27T18:29:16Z</time>
  <course>35.35</course>
  <speed>0.022360679774997897</speed>
  <fix>3d</fix>
</trkpt>
<trkpt lat="40.0727952" lon="-105.2307083">
  <ele>1595.58</ele>
  <time>2026-08-27T18:29:16Z</time>
  <course>310.64</course>
  <speed>0.05</speed>
  <fix>3d</fix>
</trkpt>
<trkpt lat="40.072795" lon="-105.2307082">
  <ele>1595.67</ele>
  <time>2026-08-27T18:29:16Z</time>
  <course>35.34</course>
  <speed>0.022360679774997897</speed>
  <fix>3d</fix>
</trkpt>
<trkpt lat="40.0727952" lon="-105.2307084">
  <ele>1595.58</ele>
  <time>2026-08-27T18:29:16Z</time>
  <course>314.01</course>
  <speed>0.04</speed>
  <fix>3d</fix>
</trkpt>
<trkpt lat="40.0727951" lon="-105.2307083">
  <ele>1595.67</ele>
  <time>2026-08-27T18:29:16Z</time>
  <course>35.34</course>
  <speed>0.022360679774997897</speed>
  <fix>3d</fix>
</trkpt>
<trkpt lat="40.0727953" lon="-105.2307085">
  <ele>1595.58</ele>
  <time>2026-08-27T18:29:16Z</time>
  <course>317.31</course>
  <speed>0.04</speed>
  <fix>3d</fix>
</trkpt>
<trkpt lat="40.0727951" lon="-105.2307084">
  <ele>1595.66</ele>
  <time>2026-08-27T18:29:16Z</time>
  <course>35.33</course>
  <speed>0.01414213562373095</speed>
  <fix>3d</fix>
</trkpt>
<trkpt lat="40.0727953" lon="-105.2307086">
  <ele>1595.59</ele>
  <time>2026-08-27T18:29:16Z</time>
  <course>319.81</course>
  <speed>0.04</speed>
  <fix>3d</fix>
</trkpt>
<trkpt lat="40.0727952" lon="-105.2307085">
  <ele>1595.66</ele>
  <time>2026-08-27T18:29:16Z</time>
  <course>35.33</course>
  <speed>0.01414213562373095</speed>
  <fix>3d</fix>
</trkpt>
<trkpt lat="40.0727954" lon="-105.2307086">
  <ele>1595.59</ele>
  <time>2026-08-27T18:29:16Z</time>
  <course>321.36</course>
  <speed>0.04</speed>
  <fix>3d</fix>
</trkpt>
<trkpt lat="40.0727953" lon="-105.2307085">
  <ele>1595.67</ele>
  <time>2026-08-27T18:29:16Z</time>
  <course>35.33</course>
  <speed>0.01414213562373095</speed>
  <fix>3d</fix>
</trkpt>
<trkpt lat="40.0727955" lon="-105.2307087">
  <ele>1595.59</ele>
  <time>2026-08-27T18:29:16Z</time>
  <course>322.13</course>
  <speed>0.04</speed>
  <fix>3d</fix>
</trkpt>
<trkpt lat="40.0727953" lon="-105.2307086">
  <ele>1595.67</ele>
  <time>2026-08-27T18:29:16Z</time>
  <course>35.32</course>
  <speed>0.01414213562373095</speed>
  <fix>3d</fix>
</trkpt>
<trkpt lat="40.0727955" lon="-105.2307088">
  <ele>1595.6</ele>
  <time>2026-08-27T18:29:16Z</time>
  <course>322.52</course>
  <speed>0.04</speed>
  <fix>3d</fix>
</trkpt>
<trkpt lat="40.0727954" lon="-105.2307087">
  <ele>1595.67</ele>
  <time>2026-08-27T18:29:16Z</time>
  <course>35.33</course>
  <speed>0.01414213562373095</speed>
  <fix>3d</fix>
</trkpt>
<trkpt lat="40.0727956" lon="-105.2307088">
  <ele>1595.6</ele>
  <time>2026-08-27T18:29:16Z</time>
  <course>322.8</course>
  <speed>0.04</speed>
  <fix>3d</fix>
</trkpt>
<trkpt lat="40.0727955" lon="-105.2307087">
  <ele>1595.68</ele>
  <time>2026-08-27T18:29:16Z</time>
  <course>35.33</course>
  <speed>0.01</speed>
  <fix>3d</fix>
</trkpt>
<trkpt lat="40.0727957" lon="-105.2307089">
  <ele>1595.6</ele>
  <time>2026-08-27T18:29:16Z</time>
  <course>322.86</course>
  <speed>0.04</speed>
  <fix>3d</fix>
</trkpt>
<trkpt lat="40.0727955" lon="-105.2307088">
  <ele>1595.68</ele>
  <time>2026-08-27T18:29:16Z</time>
  <course>35.35</course>
  <speed>0.0</speed>
  <fix>3d</fix>
</trkpt>
<trkpt lat="40.0727957" lon="-105.2307089">
  <ele>1595.61</ele>
  <time>2026-08-27T18:29:16Z</time>
  <course>325.82</course>
  <speed>0.03</speed>
  <fix>3d</fix>
</trkpt>
<trkpt lat="40.0727956" lon="-105.2307088">
  <ele>1595.68</ele>
  <time>2026-08-27T18:29:16Z</time>
  <course>35.35</course>
  <speed>0.0</speed>
  <fix>3d</fix>
</trkpt>
<trkpt lat="40.0727958" lon="-105.2307089">
  <ele>1595.61</ele>
  <time>2026-08-27T18:29:16Z</time>
  <course>330.68</course>
  <speed>0.02</speed>
  <fix>3d</fix>
</trkpt>
<trkpt lat="40.0727956" lon="-105.2307089">
  <ele>1595.68</ele>
  <time>2026-08-27T18:29:16Z</time>
  <course>35.36</course>
  <speed>0.0</speed>
  <fix>3d</fix>
</trkpt>
<trkpt lat="40.0727958" lon="-105.2307089">
  <ele>1595.61</ele>
  <time>2026-08-27T18:29:16Z</time>
  <course>330.71</course>
  <speed>0.02</speed>
  <fix>3d</fix>
</trkpt>
<trkpt lat="40.0727957" lon="-105.2307089">
  <ele>1595.69</ele>
  <time>2026-08-27T18:29:16Z</time>
  <course>35.36</course>
  <speed>0.01</speed>
  <fix>3d</fix>
</trkpt>
<trkpt lat="40.0727958" lon="-105.230709">
  <ele>1595.61</ele>
  <time>2026-08-27T18:29:16Z</time>
  <course>328.76</course>
  <speed>0.03</speed>
  <fix>3d</fix>
</trkpt>
<trkpt lat="40.0727957" lon="-105.2307089">
  <ele>1595.68</ele>
  <time>2026-08-27T18:29:16Z</time>
  <course>35.36</course>
  <speed>0.01414213562373095</speed>
  <fix>3d</fix>
</trkpt>
<trkpt lat="40.0727959" lon="-105.2307091">
  <ele>1595.61</ele>
  <time>2026-08-27T18:29:16Z</time>
  <course>325.17</course>
  <speed>0.04</speed>
  <fix>3d</fix>
</trkpt>
<trkpt lat="40.0727958" lon="-105.230709">
  <ele>1595.69</ele>
  <time>2026-08-27T18:29:16Z</time>
  <course>35.36</course>
  <speed>0.022360679774997897</speed>
  <fix>3d</fix>
</trkpt>
<trkpt lat="40.0727959" lon="-105.2307091">
  <ele>1595.62</ele>
  <time>2026-08-27T18:29:16Z</time>
  <course>321.84</course>
  <speed>0.04</speed>
  <fix>3d</fix>
</trkpt>
<trkpt lat="40.0727959" lon="-105.2307091">
  <ele>1595.69</ele>
  <time>2026-08-27T18:29:16Z</time>
  <course>35.36</course>
  <speed>0.022360679774997897</speed>
  <fix>3d</fix>
</trkpt>
<trkpt lat="40.072796" lon="-105.2307092">
  <ele>1595.62</ele>
  <time>2026-08-27T18:29:16Z</time>
  <course>319.28</course>
  <speed>0.04</speed>
  <fix>3d</fix>
</trkpt>
<trkpt lat="40.0727959" lon="-105.2307092">
  <ele>1595.69</ele>
  <time>2026-08-27T18:29:16Z</time>
  <course>35.38</course>
  <speed>0.022360679774997897</speed>
  <fix>3d</fix>
</trkpt>
<trkpt lat="40.0727961" lon="-105.2307093">
  <ele>1595.61</ele>
  <time>2026-08-27T18:29:16Z</time>
  <course>317.39</course>
  <speed>0.05</speed>
  <fix>3d</fix>
</trkpt>
<trkpt lat="40.072796" lon="-105.2307093">
  <ele>1595.69</ele>
  <time>2026-08-27T18:29:16Z</time>
  <course>35.38</course>
  <speed>0.0316227766016838</speed>
  <fix>3d</fix>
</trkpt>
<trkpt lat="40.0727962" lon="-105.2307094">
  <ele>1595.61</ele>
  <time>2026-08-27T18:29:16Z</time>
  <course>315.7</course>
  <speed>0.05</speed>
  <fix>3d</fix>
</trkpt>
<trkpt lat="40.0727961" lon="-105.2307094">
  <ele>1595.68</ele>
  <time>2026-08-27T18:29:16Z</time>
  <course>35.38</course>
  <speed>0.03605551275463989</speed>
  <fix>3d</fix>
</trkpt>
<trkpt lat="40.0727963" lon="-105.2307095">
  <ele>1595.61</ele>
  <time>2026-08-27T18:29:16Z</time>
  <course>314.54</course>
  <speed>0.05</speed>
  <fix>3d</fix>
</trkpt>
<trkpt lat="40.0727962" lon="-105.2307095">
  <ele>1595.68</ele>
  <time>2026-08-27T18:29:16Z</time>
  <course>35.37</course>
  <speed>0.03605551275463989</speed>
  <fix>3d</fix>
</trkpt>
<trkpt lat="40.0727963" lon="-105.2307096">
  <ele>1595.61</ele>
  <time>2026-08-27T18:29:16Z</time>
  <course>313.57</course>
  <speed>0.06</speed>
  <fix>3d</fix>
</trkpt>
<trkpt lat="40.0727962" lon="-105.2307096">
  <ele>1595.68</ele>
  <time>2026-08-27T18:29:16Z</time>
  <course>35.36</course>
  <speed>0.03605551275463989</speed>
  <fix>3d</fix>
</trkpt>
<trkpt lat="40.0727964" lon="-105.2307097">
  <ele>1595.61</ele>
  <time>2026-08-27T18:29:16Z</time>
  <course>312.73</course>
  <speed>0.06</speed>
  <fix>3d</fix>
</trkpt>
<trkpt lat="40.0727963" lon="-105.2307097">
  <ele>1595.68</ele>
  <time>2026-08-27T18:29:16Z</time>
  <course>35.36</course>
  <speed>0.03605551275463989</speed>
  <fix>3d</fix>
</trkpt>
<trkpt lat="40.0727965" lon="-105.2307098">
  <ele>1595.61</ele>
  <time>2026-08-27T18:29:16Z</time>
  <course>312.2</course>
  <speed>0.06</speed>
  <fix>3d</fix>
</trkpt>
<trkpt lat="40.0727964" lon="-105.2307098">
  <ele>1595.68</ele>
  <time>2026-08-27T18:29:17Z</time>
  <course>35.36</course>
  <speed>0.03605551275463989</speed>
  <fix>3d</fix>
</trkpt>
<trkpt lat="40.0727965" lon="-105.2307099">
  <ele>1595.61</ele>
  <time>2026-08-27T18:29:17Z</time>
  <course>311.67</course>
  <speed>0.06</speed>
  <fix>3d</fix>
</trkpt>
<trkpt lat="40.0727965" lon="-105.2307099">
  <ele>1595.68</ele>
  <time>2026-08-27T18:29:17Z</time>
  <course>35.36</course>
  <speed>0.044721359549995794</speed>
  <fix>3d</fix>
</trkpt>
<trkpt lat="40.0727966" lon="-105.23071">
  <ele>1595.61</ele>
  <time>2026-08-27T18:29:17Z</time>
  <course>311.19</course>
  <speed>0.06</speed>
  <fix>3d</fix>
</trkpt>
<trkpt lat="40.0727965" lon="-105.23071">
  <ele>1595.68</ele>
  <time>2026-08-27T18:29:17Z</time>
  <course>35.36</course>
  <speed>0.044721359549995794</speed>
  <fix>3d</fix>
</trkpt>
<trkpt lat="40.0727967" lon="-105.2307101">
  <ele>1595.61</ele>
  <time>2026-08-27T18:29:17Z</time>
  <course>310.76</course>
  <speed>0.06</speed>
  <fix>3d</fix>
</trkpt>
<trkpt lat="40.0727966" lon="-105.2307102">
  <ele>1595.68</ele>
  <time>2026-08-27T18:29:17Z</time>
  <course>35.35</course>
  <speed>0.05830951894845301</speed>
  <fix>3d</fix>
</trkpt>
<trkpt lat="40.0727968" lon="-105.2307102">
  <ele>1595.61</ele>
  <time>2026-08-27T18:29:17Z</time>
  <course>310.14</course>
  <speed>0.07</speed>
  <fix>3d</fix>
</trkpt>
<trkpt lat="40.0727967" lon="-105.2307103">
  <ele>1595.68</ele>
  <time>2026-08-27T18:29:17Z</time>
  <course>35.39</course>
  <speed>0.05830951894845301</speed>
  <fix>3d</fix>
</trkpt>
<trkpt lat="40.0727969" lon="-105.2307103">
  <ele>1595.61</ele>
  <time>2026-08-27T18:29:17Z</time>
  <course>310.24</course>
  <speed>0.07</speed>
  <fix>3d</fix>
</trkpt>
<trkpt lat="40.0727968" lon="-105.2307104">
  <ele>1595.68</ele>
  <time>2026-08-27T18:29:17Z</time>
  <course>35.38</course>
  <speed>0.044721359549995794</speed>
  <fix>3d</fix>
</trkpt>
<trkpt lat="40.072797" lon="-105.2307105">
  <ele>1595.61</ele>
  <time>2026-08-27T18:29:17Z</time>
  <course>309.52</course>
  <speed>0.07</speed>
  <fix>3d</fix>
</trkpt>
<trkpt lat="40.0727969" lon="-105.2307106">
  <ele>1595.68</ele>
  <time>2026-08-27T18:29:17Z</time>
  <course>35.38</course>
  <speed>0.0412310562561766</speed>
  <fix>3d</fix>
</trkpt>
<trkpt lat="40.072797" lon="-105.2307107">
  <ele>1595.61</ele>
  <time>2026-08-27T18:29:17Z</time>
  <course>308.27</course>
  <speed>0.06</speed>
  <fix>3d</fix>
</trkpt>
<trkpt lat="40.072797" lon="-105.2307107">
  <ele>1595.68</ele>
  <time>2026-08-27T18:29:17Z</time>
  <course>35.38</course>
  <speed>0.0316227766016838</speed>
  <fix>3d</fix>
</trkpt>
<trkpt lat="40.0727971" lon="-105.2307108">
  <ele>1595.61</ele>
  <time>2026-08-27T18:29:17Z</time>
  <course>309.34</course>
  <speed>0.05</speed>
  <fix>3d</fix>
</trkpt>
<trkpt lat="40.072797" lon="-105.2307108">
  <ele>1595.68</ele>
  <time>2026-08-27T18:29:17Z</time>
  <course>35.38</course>
  <speed>0.022360679774997897</speed>
  <fix>3d</fix>
</trkpt>
<trkpt lat="40.0727972" lon="-105.2307109">
  <ele>1595.61</ele>
  <time>2026-08-27T18:29:17Z</time>
  <course>312.39</course>
  <speed>0.05</speed>
  <fix>3d</fix>
</trkpt>
<trkpt lat="40.0727971" lon="-105.2307108">
  <ele>1595.68</ele>
  <time>2026-08-27T18:29:17Z</time>
  <course>35.37</course>
  <speed>0.022360679774997897</speed>
  <fix>3d</fix>
</trkpt>
<trkpt lat="40.0727973" lon="-105.230711">
  <ele>1595.61</ele>
  <time>2026-08-27T18:29:17Z</time>
  <course>316.52</course>
  <speed>0.04</speed>
  <fix>3d</fix>
</trkpt>
<trkpt lat="40.0727971" lon="-105.2307109">
  <ele>1595.68</ele>
  <time>2026-08-27T18:29:17Z</time>
  <course>35.37</course>
  <speed>0.01</speed>
  <fix>3d</fix>
</trkpt>
<trkpt lat="40.0727973" lon="-105.230711">
  <ele>1595.62</ele>
  <time>2026-08-27T18:29:17Z</time>
  <course>320.6</course>
  <speed>0.04</speed>
  <fix>3d</fix>
</trkpt>
<trkpt lat="40.0727972" lon="-105.230711">
  <ele>1595.68</ele>
  <time>2026-08-27T18:29:17Z</time>
  <course>35.37</course>
  <speed>0.01</speed>
  <fix>3d</fix>
</trkpt>
<trkpt lat="40.0727974" lon="-105.2307111">
  <ele>1595.62</ele>
  <time>2026-08-27T18:29:17Z</time>
  <course>323.71</course>
  <speed>0.04</speed>
  <fix>3d</fix>
</trkpt>
<trkpt lat="40.0727972" lon="-105.230711">
  <ele>1595.68</ele>
  <time>2026-08-27T18:29:17Z</time>
  <course>35.38</course>
  <speed>0.01</speed>
  <fix>3d</fix>
</trkpt>
<trkpt lat="40.0727975" lon="-105.2307112">
  <ele>1595.62</ele>
  <time>2026-08-27T18:29:17Z</time>
  <course>325.58</course>
  <speed>0.04</speed>
  <fix>3d</fix>
</trkpt>
<trkpt lat="40.0727973" lon="-105.2307111">
  <ele>1595.68</ele>
  <time>2026-08-27T18:29:17Z</time>
  <course>35.38</course>
  <speed>0.01</speed>
  <fix>3d</fix>
</trkpt>
<trkpt lat="40.0727975" lon="-105.2307113">
  <ele>1595.62</ele>
  <time>2026-08-27T18:29:17Z</time>
  <course>326.43</course>
  <speed>0.03</speed>
  <fix>3d</fix>
</trkpt>
<trkpt lat="40.0727974" lon="-105.2307111">
  <ele>1595.68</ele>
  <time>2026-08-27T18:29:17Z</time>
  <course>35.39</course>
  <speed>0.01</speed>
  <fix>3d</fix>
</trkpt>
<trkpt lat="40.0727976" lon="-105.2307113">
  <ele>1595.62</ele>
  <time>2026-08-27T18:29:17Z</time>
  <course>326.59</course>
  <speed>0.04</speed>
  <fix>3d</fix>
</trkpt>
<trkpt lat="40.0727974" lon="-105.2307112">
  <ele>1595.68</ele>
  <time>2026-08-27T18:29:17Z</time>
  <course>35.39</course>
  <speed>0.01</speed>
  <fix>3d</fix>
</trkpt>
<trkpt lat="40.0727976" lon="-105.2307113">
  <ele>1595.62</ele>
  <time>2026-08-27T18:29:17Z</time>
  <course>326.37</course>
  <speed>0.04</speed>
  <fix>3d</fix>
</trkpt>
<trkpt lat="40.0727975" lon="-105.2307112">
  <ele>1595.68</ele>
  <time>2026-08-27T18:29:17Z</time>
  <course>35.39</course>
  <speed>0.01</speed>
  <fix>3d</fix>
</trkpt>
<trkpt lat="40.0727977" lon="-105.2307114">
  <ele>1595.62</ele>
  <time>2026-08-27T18:29:17Z</time>
  <course>326.02</course>
  <speed>0.04</speed>
  <fix>3d</fix>
</trkpt>
<trkpt lat="40.0727975" lon="-105.2307113">
  <ele>1595.68</ele>
  <time>2026-08-27T18:29:17Z</time>
  <course>35.38</course>
  <speed>0.0</speed>
  <fix>3d</fix>
</trkpt>
<trkpt lat="40.0727977" lon="-105.2307115">
  <ele>1595.62</ele>
  <time>2026-08-27T18:29:17Z</time>
  <course>325.85</course>
  <speed>0.03</speed>
  <fix>3d</fix>
</trkpt>
<trkpt lat="40.0727976" lon="-105.2307113">
  <ele>1595.68</ele>
  <time>2026-08-27T18:29:17Z</time>
  <course>35.34</course>
  <speed>0.0</speed>
  <fix>3d</fix>
</trkpt>
<trkpt lat="40.0727978" lon="-105.2307115">
  <ele>1595.62</ele>
  <time>2026-08-27T18:29:17Z</time>
  <course>327.45</course>
  <speed>0.03</speed>
  <fix>3d</fix>
</trkpt>
<trkpt lat="40.0727976" lon="-105.2307113">
  <ele>1595.68</ele>
  <time>2026-08-27T18:29:17Z</time>
  <course>35.34</course>
  <speed>0.0</speed>
  <fix>3d</fix>
</trkpt>
<trkpt lat="40.0727979" lon="-105.2307115">
  <ele>1595.62</ele>
  <time>2026-08-27T18:29:17Z</time>
  <course>332.0</course>
  <speed>0.02</speed>
  <fix>3d</fix>
</trkpt>
<trkpt lat="40.0727977" lon="-105.2307114">
  <ele>1595.68</ele>
  <time>2026-08-27T18:29:17Z</time>
  <course>35.35</course>
  <speed>0.0</speed>
  <fix>3d</fix>
</trkpt>
<trkpt lat="40.0727979" lon="-105.2307116">
  <ele>1595.62</ele>
  <time>2026-08-27T18:29:17Z</time>
  <course>331.8</course>
  <speed>0.03</speed>
  <fix>3d</fix>
</trkpt>
<trkpt lat="40.0727977" lon="-105.2307114">
  <ele>1595.68</ele>
  <time>2026-08-27T18:29:17Z</time>
  <course>35.36</course>
  <speed>0.01414213562373095</speed>
  <fix>3d</fix>
</trkpt>
<trkpt lat="40.072798" lon="-105.2307117">
  <ele>1595.62</ele>
  <time>2026-08-27T18:29:17Z</time>
  <course>327.67</course>
  <speed>0.03</speed>
  <fix>3d</fix>
</trkpt>
<trkpt lat="40.0727978" lon="-105.2307115">
  <ele>1595.69</ele>
  <time>2026-08-27T18:29:17Z</time>
  <course>35.37</course>
  <speed>0.01414213562373095</speed>
  <fix>3d</fix>
</trkpt>
<trkpt lat="40.0727981" lon="-105.2307117">
  <ele>1595.62</ele>
  <time>2026-08-27T18:29:17Z</time>
  <course>323.91</course>
  <speed>0.04</speed>
  <fix>3d</fix>
</trkpt>
<trkpt lat="40.0727979" lon="-105.2307116">
  <ele>1595.69</ele>
  <time>2026-08-27T18:29:17Z</time>
  <course>35.36</course>
  <speed>0.022360679774997897</speed>
  <fix>3d</fix>
</trkpt>
<trkpt lat="40.0727981" lon="-105.2307118">
  <ele>1595.62</ele>
  <time>2026-08-27T18:29:17Z</time>
  <course>320.78</course>
  <speed>0.05</speed>
  <fix>3d</fix>
</trkpt>
<trkpt lat="40.072798" lon="-105.2307117">
  <ele>1595.69</ele>
  <time>2026-08-27T18:29:17Z</time>
  <course>35.38</course>
  <speed>0.022360679774997897</speed>
  <fix>3d</fix>
</trkpt>
<trkpt lat="40.0727982" lon="-105.2307118">
  <ele>1595.62</ele>
  <time>2026-08-27T18:29:17Z</time>
  <course>318.45</course>
  <speed>0.05</speed>
  <fix>3d</fix>
</trkpt>
<trkpt lat="40.0727981" lon="-105.2307118">
  <ele>1595.7</ele>
  <time>2026-08-27T18:29:17Z</time>
  <course>35.39</course>
  <speed>0.03605551275463989</speed>
  <fix>3d</fix>
</trkpt>
<trkpt lat="40.0727982" lon="-105.2307119">
  <ele>1595.62</ele>
  <time>2026-08-27T18:29:17Z</time>
  <course>316.58</course>
  <speed>0.05</speed>
  <fix>3d</fix>
</trkpt>
<trkpt lat="40.0727981" lon="-105.2307119">
  <ele>1595.7</ele>
  <time>2026-08-27T18:29:17Z</time>
  <course>35.4</course>
  <speed>0.03605551275463989</speed>
  <fix>3d</fix>
</trkpt>
<trkpt lat="40.0727983" lon="-105.230712">
  <ele>1595.62</ele>
  <time>2026-08-27T18:29:17Z</time>
  <course>315.11</course>
  <speed>0.06</speed>
  <fix>3d</fix>
</trkpt>
<trkpt lat="40.0727982" lon="-105.230712">
  <ele>1595.69</ele>
  <time>2026-08-27T18:29:17Z</time>
  <course>35.37</course>
  <speed>0.03605551275463989</speed>
  <fix>3d</fix>
</trkpt>
<trkpt lat="40.0727984" lon="-105.2307121">
  <ele>1595.61</ele>
  <time>2026-08-27T18:29:17Z</time>
  <course>314.04</course>
  <speed>0.06</speed>
  <fix>3d</fix>
</trkpt>
<trkpt lat="40.0727983" lon="-105.2307121">
  <ele>1595.69</ele>
  <time>2026-08-27T18:29:17Z</time>
  <course>35.4</course>
  <speed>0.03605551275463989</speed>
  <fix>3d</fix>
</trkpt>
<trkpt lat="40.0727985" lon="-105.2307122">
  <ele>1595.61</ele>
  <time>2026-08-27T18:29:17Z</time>
  <course>313.08</course>
  <speed>0.06</speed>
  <fix>3d</fix>
</trkpt>
<trkpt lat="40.0727984" lon="-105.2307122">
  <ele>1595.69</ele>
  <time>2026-08-27T18:29:17Z</time>
  <course>35.38</course>
  <speed>0.03605551275463989</speed>
  <fix>3d</fix>
</trkpt>
<trkpt lat="40.0727986" lon="-105.2307123">
  <ele>1595.61</ele>
  <time>2026-08-27T18:29:17Z</time>
  <course>312.21</course>
  <speed>0.06</speed>
  <fix>3d</fix>
</trkpt>
<trkpt lat="40.0727985" lon="-105.2307123">
  <ele>1595.69</ele>
  <time>2026-08-27T18:29:17Z</time>
  <course>35.37</course>
  <speed>0.03605551275463989</speed>
  <fix>3d</fix>
</trkpt>
<trkpt lat="40.0727987" lon="-105.2307125">
  <ele>1595.61</ele>
  <time>2026-08-27T18:29:17Z</time>
  <course>311.58</course>
  <speed>0.06</speed>
  <fix>3d</fix>
</trkpt>
<trkpt lat="40.0727986" lon="-105.2307125">
  <ele>1595.69</ele>
  <time>2026-08-27T18:29:17Z</time>
  <course>35.4</course>
  <speed>0.03605551275463989</speed>
  <fix>3d</fix>
</trkpt>
<trkpt lat="40.0727987" lon="-105.2307126">
  <ele>1595.6</ele>
  <time>2026-08-27T18:29:17Z</time>
  <course>311.05</course>
  <speed>0.06</speed>
  <fix>3d</fix>
</trkpt>
<trkpt lat="40.0727986" lon="-105.2307126">
  <ele>1595.69</ele>
  <time>2026-08-27T18:29:17Z</time>
  <course>35.38</course>
  <speed>0.044721359549995794</speed>
  <fix>3d</fix>
</trkpt>
<trkpt lat="40.0727988" lon="-105.2307127">
  <ele>1595.6</ele>
  <time>2026-08-27T18:29:17Z</time>
  <course>310.49</course>
  <speed>0.06</speed>
  <fix>3d</fix>
</trkpt>
<trkpt lat="40.0727987" lon="-105.2307127">
  <ele>1595.69</ele>
  <time>2026-08-27T18:29:17Z</time>
  <course>35.38</course>
  <speed>0.044721359549995794</speed>
  <fix>3d</fix>
</trkpt>
<trkpt lat="40.0727989" lon="-105.2307128">
  <ele>1595.6</ele>
  <time>2026-08-27T18:29:17Z</time>
  <course>310.02</course>
  <speed>0.06</speed>
  <fix>3d</fix>
</trkpt>
<trkpt lat="40.0727988" lon="-105.2307129">
  <ele>1595.69</ele>
  <time>2026-08-27T18:29:17Z</time>
  <course>35.39</course>
  <speed>0.05830951894845301</speed>
  <fix>3d</fix>
</trkpt>
<trkpt lat="40.072799" lon="-105.230713">
  <ele>1595.6</ele>
  <time>2026-08-27T18:29:17Z</time>
  <course>309.86</course>
  <speed>0.07</speed>
  <fix>3d</fix>
</trkpt>
<trkpt lat="40.0727989" lon="-105.230713">
  <ele>1595.69</ele>
  <time>2026-08-27T18:29:17Z</time>
  <course>35.39</course>
  <speed>0.05830951894845301</speed>
  <fix>3d</fix>
</trkpt>
<trkpt lat="40.0727991" lon="-105.2307131">
  <ele>1595.6</ele>
  <time>2026-08-27T18:29:17Z</time>
  <course>309.54</course>
  <speed>0.08</speed>
  <fix>3d</fix>
</trkpt>
<trkpt lat="40.072799" lon="-105.2307132">
  <ele>1595.69</ele>
  <time>2026-08-27T18:29:17Z</time>
  <course>35.38</course>
  <speed>0.044721359549995794</speed>
  <fix>3d</fix>
</trkpt>
<trkpt lat="40.0727992" lon="-105.2307132">
  <ele>1595.59</ele>
  <time>2026-08-27T18:29:17Z</time>
  <course>308.81</course>
  <speed>0.08</speed>
  <fix>3d</fix>
</trkpt>
<trkpt lat="40.0727991" lon="-105.2307133">
  <ele>1595.69</ele>
  <time>2026-08-27T18:29:17Z</time>
  <course>35.4</course>
  <speed>0.044721359549995794</speed>
  <fix>3d</fix>
</trkpt>
<trkpt lat="40.0727992" lon="-105.2307134">
  <ele>1595.59</ele>
  <time>2026-08-27T18:29:17Z</time>
  <course>308.66</course>
  <speed>0.07</speed>
  <fix>3d</fix>
</trkpt>
<trkpt lat="40.0727992" lon="-105.2307134">
  <ele>1595.69</ele>
  <time>2026-08-27T18:29:17Z</time>
  <course>35.39</course>
  <speed>0.0316227766016838</speed>
  <fix>3d</fix>
</trkpt>
<trkpt lat="40.0727993" lon="-105.2307135">
  <ele>1595.59</ele>
  <time>2026-08-27T18:29:17Z</time>
  <course>310.35</course>
  <speed>0.05</speed>
  <fix>3d</fix>
</trkpt>
<trkpt lat="40.0727992" lon="-105.2307135">
  <ele>1595.69</ele>
  <time>2026-08-27T18:29:17Z</time>
  <course>35.4</course>
  <speed>0.022360679774997897</speed>
  <fix>3d</fix>
</trkpt>
<trkpt lat="40.0727994" lon="-105.2307136">
  <ele>1595.59</ele>
  <time>2026-08-27T18:29:17Z</time>
  <course>314.04</course>
  <speed>0.04</speed>
  <fix>3d</fix>
</trkpt>
<trkpt lat="40.0727993" lon="-105.2307136">
  <ele>1595.69</ele>
  <time>2026-08-27T18:29:17Z</time>
  <course>35.4</course>
  <speed>0.022360679774997897</speed>
  <fix>3d</fix>
</trkpt>
<trkpt lat="40.0727994" lon="-105.2307137">
  <ele>1595.58</ele>
  <time>2026-08-27T18:29:17Z</time>
  <course>318.68</course>
  <speed>0.04</speed>
  <fix>3d</fix>
</trkpt>
<trkpt lat="40.0727993" lon="-105.2307136">
  <ele>1595.68</ele>
  <time>2026-08-27T18:29:17Z</time>
  <course>35.4</course>
  <speed>0.01414213562373095</speed>
  <fix>3d</fix>
</trkpt>
<trkpt lat="40.0727995" lon="-105.2307137">
  <ele>1595.58</ele>
  <time>2026-08-27T18:29:17Z</time>
  <course>323.09</course>
  <speed>0.03</speed>
  <fix>3d</fix>
</trkpt>
<trkpt lat="40.0727994" lon="-105.2307137">
  <ele>1595.68</ele>
  <time>2026-08-27T18:29:17Z</time>
  <course>35.39</course>
  <speed>0.01</speed>
  <fix>3d</fix>
</trkpt>
<trkpt lat="40.0727995" lon="-105.2307138">
  <ele>1595.58</ele>
  <time>2026-08-27T18:29:17Z</time>
  <course>326.14</course>
  <speed>0.03</speed>
  <fix>3d</fix>
</trkpt>
<trkpt lat="40.0727994" lon="-105.2307137">
  <ele>1595.67</ele>
  <time>2026-08-27T18:29:17Z</time>
  <course>35.38</course>
  <speed>0.01</speed>
  <fix>3d</fix>
</trkpt>
<trkpt lat="40.0727996" lon="-105.2307139">
  <ele>1595.57</ele>
  <time>2026-08-27T18:29:17Z</time>
  <course>327.51</course>
  <speed>0.03</speed>
  <fix>3d</fix>
</trkpt>
<trkpt lat="40.0727995" lon="-105.2307138">
  <ele>1595.67</ele>
  <time>2026-08-27T18:29:17Z</time>
  <course>35.38</course>
  <speed>0.0</speed>
  <fix>3d</fix>
</trkpt>
<trkpt lat="40.0727997" lon="-105.2307139">
  <ele>1595.57</ele>
  <time>2026-08-27T18:29:17Z</time>
  <course>327.58</course>
  <speed>0.03</speed>
  <fix>3d</fix>
</trkpt>
<trkpt lat="40.0727995" lon="-105.2307138">
  <ele>1595.67</ele>
  <time>2026-08-27T18:29:17Z</time>
  <course>35.37</course>
  <speed>0.0</speed>
  <fix>3d</fix>
</trkpt>
<trkpt lat="40.0727997" lon="-105.2307139">
  <ele>1595.57</ele>
  <time>2026-08-27T18:29:17Z</time>
  <course>326.86</course>
  <speed>0.03</speed>
  <fix>3d</fix>
</trkpt>
<trkpt lat="40.0727996" lon="-105.2307139">
  <ele>1595.67</ele>
  <time>2026-08-27T18:29:17Z</time>
  <course>35.37</course>
  <speed>0.0</speed>
  <fix>3d</fix>
</trkpt>
<trkpt lat="40.0727998" lon="-105.230714">
  <ele>1595.57</ele>
  <time>2026-08-27T18:29:17Z</time>
  <course>325.78</course>
  <speed>0.04</speed>
  <fix>3d</fix>
</trkpt>
<trkpt lat="40.0727996" lon="-105.2307139">
  <ele>1595.67</ele>
  <time>2026-08-27T18:29:17Z</time>
  <course>35.36</course>
  <speed>0.01</speed>
  <fix>3d</fix>
</trkpt>
<trkpt lat="40.0727999" lon="-105.2307141">
  <ele>1595.57</ele>
  <time>2026-08-27T18:29:17Z</time>
  <course>324.66</course>
  <speed>0.04</speed>
  <fix>3d</fix>
</trkpt>
<trkpt lat="40.0727997" lon="-105.230714">
  <ele>1595.67</ele>
  <time>2026-08-27T18:29:17Z</time>
  <course>35.35</course>
  <speed>0.01</speed>
  <fix>3d</fix>
</trkpt>
<trkpt lat="40.0727999" lon="-105.2307141">
  <ele>1595.57</ele>
  <time>2026-08-27T18:29:17Z</time>
  <course>323.76</course>
  <speed>0.04</speed>
  <fix>3d</fix>
</trkpt>
<trkpt lat="40.0727998" lon="-105.230714">
  <ele>1595.68</ele>
  <time>2026-08-27T18:29:17Z</time>
  <course>35.36</course>
  <speed>0.0</speed>
  <fix>3d</fix>
</trkpt>
<trkpt lat="40.0728" lon="-105.2307142">
  <ele>1595.58</ele>
  <time>2026-08-27T18:29:17Z</time>
  <course>326.82</course>
  <speed>0.03</speed>
  <fix>3d</fix>
</trkpt>
<trkpt lat="40.0727998" lon="-105.2307141">
  <ele>1595.68</ele>
  <time>2026-08-27T18:29:17Z</time>
  <course>35.35</course>
  <speed>0.0</speed>
  <fix>3d</fix>
</trkpt>
<trkpt lat="40.0728" lon="-105.2307142">
  <ele>1595.58</ele>
  <time>2026-08-27T18:29:17Z</time>
  <course>332.74</course>
  <speed>0.02</speed>
  <fix>3d</fix>
</trkpt>
<trkpt lat="40.0727999" lon="-105.2307141">
  <ele>1595.68</ele>
  <time>2026-08-27T18:29:17Z</time>
  <course>35.36</course>
  <speed>0.0</speed>
  <fix>3d</fix>
</trkpt>
<trkpt lat="40.0728" lon="-105.2307142">
  <ele>1595.58</ele>
  <time>2026-08-27T18:29:17Z</time>
  <course>331.54</course>
  <speed>0.02</speed>
  <fix>3d</fix>
</trkpt>
<trkpt lat="40.0727999" lon="-105.2307141">
  <ele>1595.69</ele>
  <time>2026-08-27T18:29:17Z</time>
  <course>35.36</course>
  <speed>0.01</speed>
  <fix>3d</fix>
</trkpt>
<trkpt lat="40.0728001" lon="-105.2307142">
  <ele>1595.58</ele>
  <time>2026-08-27T18:29:17Z</time>
  <course>328.32</course>
  <speed>0.03</speed>
  <fix>3d</fix>
</trkpt>
<trkpt lat="40.0728" lon="-105.2307142">
  <ele>1595.69</ele>
  <time>2026-08-27T18:29:17Z</time>
  <course>35.39</course>
  <speed>0.01414213562373095</speed>
  <fix>3d</fix>
</trkpt>
<trkpt lat="40.0728001" lon="-105.2307143">
  <ele>1595.58</ele>
  <time>2026-08-27T18:29:17Z</time>
  <course>324.04</course>
  <speed>0.04</speed>
  <fix>3d</fix>
</trkpt>
<trkpt lat="40.0728" lon="-105.2307143">
  <ele>1595.69</ele>
  <time>2026-08-27T18:29:17Z</time>
  <course>35.38</course>
  <speed>0.022360679774997897</speed>
  <fix>3d</fix>
</trkpt>
<trkpt lat="40.0728002" lon="-105.2307144">
  <ele>1595.58</ele>
  <time>2026-08-27T18:29:17Z</time>
  <course>320.35</course>
  <speed>0.04</speed>
  <fix>3d</fix>
</trkpt>
<trkpt lat="40.0728001" lon="-105.2307143">
  <ele>1595.69</ele>
  <time>2026-08-27T18:29:17Z</time>
  <course>35.39</course>
  <speed>0.022360679774997897</speed>
  <fix>3d</fix>
</trkpt>
<trkpt lat="40.0728003" lon="-105.2307144">
  <ele>1595.57</ele>
  <time>2026-08-27T18:29:17Z</time>
  <course>317.76</course>
  <speed>0.04</speed>
  <fix>3d</fix>
</trkpt>
<trkpt lat="40.0728002" lon="-105.2307144">
  <ele>1595.69</ele>
  <time>2026-08-27T18:29:17Z</time>
  <course>35.38</course>
  <speed>0.022360679774997897</speed>
  <fix>3d</fix>
</trkpt>
<trkpt lat="40.0728004" lon="-105.2307145">
  <ele>1595.57</ele>
  <time>2026-08-27T18:29:17Z</time>
  <course>315.91</course>
  <speed>0.05</speed>
  <fix>3d</fix>
</trkpt>
<trkpt lat="40.0728002" lon="-105.2307145">
  <ele>1595.69</ele>
  <time>2026-08-27T18:29:17Z</time>
  <course>35.38</course>
  <speed>0.0316227766016838</speed>
  <fix>3d</fix>
</trkpt>
<trkpt lat="40.0728004" lon="-105.2307146">
  <ele>1595.57</ele>
  <time>2026-08-27T18:29:17Z</time>
  <course>314.39</course>
  <speed>0.05</speed>
  <fix>3d</fix>
</trkpt>
<trkpt lat="40.0728003" lon="-105.2307146">
  <ele>1595.68</ele>
  <time>2026-08-27T18:29:17Z</time>
  <course>35.37</course>
  <speed>0.03605551275463989</speed>
  <fix>3d</fix>
</trkpt>
<trkpt lat="40.0728005" lon="-105.2307147">
  <ele>1595.57</ele>
  <time>2026-08-27T18:29:17Z</time>
  <course>313.3</course>
  <speed>0.05</speed>
  <fix>3d</fix>
</trkpt>
<trkpt lat="40.0728004" lon="-105.2307147">
  <ele>1595.67</ele>
  <time>2026-08-27T18:29:17Z</time>
  <course>35.36</course>
  <speed>0.03605551275463989</speed>
  <fix>3d</fix>
</trkpt>
<trkpt lat="40.0728006" lon="-105.2307148">
  <ele>1595.56</ele>
  <time>2026-08-27T18:29:17Z</time>
  <course>312.24</course>
  <speed>0.06</speed>
  <fix>3d</fix>
</trkpt>
<trkpt lat="40.0728005" lon="-105.2307148">
  <ele>1595.66</ele>
  <time>2026-08-27T18:29:17Z</time>
  <course>35.36</course>
  <speed>0.03605551275463989</speed>
  <fix>3d</fix>
</trkpt>
<trkpt lat="40.0728006" lon="-105.2307149">
  <ele>1595.56</ele>
  <time>2026-08-27T18:29:17Z</time>
  <course>311.11</course>
  <speed>0.06</speed>
  <fix>3d</fix>
</trkpt>
<trkpt lat="40.0728005" lon="-105.2307149">
  <ele>1595.66</ele>
  <time>2026-08-27T18:29:17Z</time>
  <course>35.34</course>
  <speed>0.03605551275463989</speed>
  <fix>3d</fix>
</trkpt>
<trkpt lat="40.0728007" lon="-105.230715">
  <ele>1595.56</ele>
  <time>2026-08-27T18:29:17Z</time>
  <course>310.29</course>
  <speed>0.06</speed>
  <fix>3d</fix>
</trkpt>
<trkpt lat="40.0728006" lon="-105.230715">
  <ele>1595.66</ele>
  <time>2026-08-27T18:29:17Z</time>
  <course>35.32</course>
  <speed>0.03605551275463989</speed>
  <fix>3d</fix>
</trkpt>
<trkpt lat="40.0728008" lon="-105.2307151">
  <ele>1595.56</ele>
  <time>2026-08-27T18:29:17Z</time>
  <course>309.72</course>
  <speed>0.06</speed>
  <fix>3d</fix>
</trkpt>
<trkpt lat="40.0728007" lon="-105.2307152">
  <ele>1595.66</ele>
  <time>2026-08-27T18:29:17Z</time>
  <course>35.35</course>
  <speed>0.044721359549995794</speed>
  <fix>3d</fix>
</trkpt>
<trkpt lat="40.0728009" lon="-105.2307152">
  <ele>1595.56</ele>
  <time>2026-08-27T18:29:17Z</time>
  <course>309.24</course>
  <speed>0.06</speed>
  <fix>3d</fix>
</trkpt>
<trkpt lat="40.0728008" lon="-105.2307153">
  <ele>1595.67</ele>
  <time>2026-08-27T18:29:17Z</time>
  <course>35.33</course>
  <speed>0.044721359549995794</speed>
  <fix>3d</fix>
</trkpt>
<trkpt lat="40.0728009" lon="-105.2307154">
  <ele>1595.57</ele>
  <time>2026-08-27T18:29:17Z</time>
  <course>308.79</course>
  <speed>0.06</speed>
  <fix>3d</fix>
</trkpt>
<trkpt lat="40.0728009" lon="-105.2307154">
  <ele>1595.67</ele>
  <time>2026-08-27T18:29:17Z</time>
  <course>35.33</course>
  <speed>0.05830951894845301</speed>
  <fix>3d</fix>
</trkpt>
<trkpt lat="40.072801" lon="-105.2307155">
  <ele>1595.57</ele>
  <time>2026-08-27T18:29:17Z</time>
  <course>308.4</course>
  <speed>0.07</speed>
  <fix>3d</fix>
</trkpt>
<trkpt lat="40.072801" lon="-105.2307156">
  <ele>1595.67</ele>
  <time>2026-08-27T18:29:17Z</time>
  <course>35.38</course>
  <speed>0.05830951894845301</speed>
  <fix>3d</fix>
</trkpt>
<trkpt lat="40.0728011" lon="-105.2307156">
  <ele>1595.57</ele>
  <time>2026-08-27T18:29:17Z</time>
  <course>308.68</course>
  <speed>0.08</speed>
  <fix>3d</fix>
</trkpt>
<trkpt lat="40.072801" lon="-105.2307157">
  <ele>1595.67</ele>
  <time>2026-08-27T18:29:17Z</time>
  <course>35.4</course>
  <speed>0.044721359549995794</speed>
  <fix>3d</fix>
</trkpt>
<trkpt lat="40.0728012" lon="-105.2307158">
  <ele>1595.58</ele>
  <time>2026-08-27T18:29:17Z</time>
  <course>308.02</course>
  <speed>0.07</speed>
  <fix>3d</fix>
</trkpt>
<trkpt lat="40.0728011" lon="-105.2307158">
  <ele>1595.67</ele>
  <time>2026-08-27T18:29:17Z</time>
  <course>35.4</course>
  <speed>0.0316227766016838</speed>
  <fix>3d</fix>
</trkpt>
<trkpt lat="40.0728013" lon="-105.230716">
  <ele>1595.58</ele>
  <time>2026-08-27T18:29:17Z</time>
  <course>306.58</course>
  <speed>0.07</speed>
  <fix>3d</fix>
</trkpt>
<trkpt lat="40.0728012" lon="-105.230716">
  <ele>1595.67</ele>
  <time>2026-08-27T18:29:17Z</time>
  <course>35.39</course>
  <speed>0.02</speed>
  <fix>3d</fix>
</trkpt>
<trkpt lat="40.0728013" lon="-105.2307161">
  <ele>1595.58</ele>
  <time>2026-08-27T18:29:17Z</time>
  <course>307.32</course>
  <speed>0.06</speed>
  <fix>3d</fix>
</trkpt>
<trkpt lat="40.0728012" lon="-105.2307161">
  <ele>1595.67</ele>
  <time>2026-08-27T18:29:17Z</time>
  <course>35.38</course>
  <speed>0.02</speed>
  <fix>3d</fix>
</trkpt>
<trkpt lat="40.0728014" lon="-105.2307162">
  <ele>1595.58</ele>
  <time>2026-08-27T18:29:17Z</time>
  <course>310.07</course>
  <speed>0.05</speed>
  <fix>3d</fix>
</trkpt>
<trkpt lat="40.0728013" lon="-105.2307161">
  <ele>1595.67</ele>
  <time>2026-08-27T18:29:17Z</time>
  <course>35.35</course>
  <speed>0.022360679774997897</speed>
  <fix>3d</fix>
</trkpt>
<trkpt lat="40.0728015" lon="-105.2307163">
  <ele>1595.58</ele>
  <time>2026-08-27T18:29:17Z</time>
  <course>313.58</course>
  <speed>0.05</speed>
  <fix>3d</fix>
</trkpt>
<trkpt lat="40.0728014" lon="-105.2307162">
  <ele>1595.67</ele>
  <time>2026-08-27T18:29:17Z</time>
  <course>35.35</course>
  <speed>0.022360679774997897</speed>
  <fix>3d</fix>
</trkpt>
<trkpt lat="40.0728016" lon="-105.2307163">
  <ele>1595.59</ele>
  <time>2026-08-27T18:29:17Z</time>
  <course>317.07</course>
  <speed>0.05</speed>
  <fix>3d</fix>
</trkpt>
<trkpt lat="40.0728014" lon="-105.2307163">
  <ele>1595.67</ele>
  <time>2026-08-27T18:29:17Z</time>
  <course>35.35</course>
  <speed>0.022360679774997897</speed>
  <fix>3d</fix>
</trkpt>
<trkpt lat="40.0728016" lon="-105.2307164">
  <ele>1595.59</ele>
  <time>2026-08-27T18:29:17Z</time>
  <course>320.57</course>
  <speed>0.04</speed>
  <fix>3d</fix>
</trkpt>
<trkpt lat="40.0728015" lon="-105.2307164">
  <ele>1595.67</ele>
  <time>2026-08-27T18:29:17Z</time>
  <course>35.37</course>
  <speed>0.022360679774997897</speed>
  <fix>3d</fix>
</trkpt>
<trkpt lat="40.0728017" lon="-105.2307165">
  <ele>1595.59</ele>
  <time>2026-08-27T18:29:17Z</time>
  <course>323.97</course>
  <speed>0.04</speed>
  <fix>3d</fix>
</trkpt>
<trkpt lat="40.0728016" lon="-105.2307164">
  <ele>1595.67</ele>
  <time>2026-08-27T18:29:17Z</time>
  <course>35.38</course>
  <speed>0.01414213562373095</speed>
  <fix>3d</fix>
</trkpt>
<trkpt lat="40.0728018" lon="-105.2307165">
  <ele>1595.59</ele>
  <time>2026-08-27T18:29:17Z</time>
  <course>326.55</course>
  <speed>0.03</speed>
  <fix>3d</fix>
</trkpt>
<trkpt lat="40.0728016" lon="-105.2307165">
  <ele>1595.67</ele>
  <time>2026-08-27T18:29:17Z</time>
  <course>35.39</course>
  <speed>0.01</speed>
  <fix>3d</fix>
</trkpt>
<trkpt lat="40.0728018" lon="-105.2307166">
  <ele>1595.6</ele>
  <time>2026-08-27T18:29:17Z</time>
  <course>327.4</course>
  <speed>0.03</speed>
  <fix>3d</fix>
</trkpt>
<trkpt lat="40.0728017" lon="-105.2307165">
  <ele>1595.68</ele>
  <time>2026-08-27T18:29:17Z</time>
  <course>35.39</course>
  <speed>0.01</speed>
  <fix>3d</fix>
</trkpt>
<trkpt lat="40.0728018" lon="-105.2307167">
  <ele>1595.6</ele>
  <time>2026-08-27T18:29:17Z</time>
  <course>326.38</course>
  <speed>0.04</speed>
  <fix>3d</fix>
</trkpt>
<trkpt lat="40.0728017" lon="-105.2307166">
  <ele>1595.69</ele>
  <time>2026-08-27T18:29:17Z</time>
  <course>35.39</course>
  <speed>0.01</speed>
  <fix>3d</fix>
</trkpt>
<trkpt lat="40.0728019" lon="-105.2307168">
  <ele>1595.6</ele>
  <time>2026-08-27T18:29:17Z</time>
  <course>324.55</course>
  <speed>0.04</speed>
  <fix>3d</fix>
</trkpt>
<trkpt lat="40.0728018" lon="-105.2307166">
  <ele>1595.69</ele>
  <time>2026-08-27T18:29:17Z</time>
  <course>35.38</course>
  <speed>0.01</speed>
  <fix>3d</fix>
</trkpt>
<trkpt lat="40.072802" lon="-105.2307168">
  <ele>1595.6</ele>
  <time>2026-08-27T18:29:17Z</time>
  <course>323.11</course>
  <speed>0.04</speed>
  <fix>3d</fix>
</trkpt>
<trkpt lat="40.0728019" lon="-105.2307167">
  <ele>1595.68</ele>
  <time>2026-08-27T18:29:17Z</time>
  <course>35.37</course>
  <speed>0.01414213562373095</speed>
  <fix>3d</fix>
</trkpt>
<trkpt lat="40.072802" lon="-105.2307168">
  <ele>1595.6</ele>
  <time>2026-08-27T18:29:17Z</time>
  <course>322.69</course>
  <speed>0.04</speed>
  <fix>3d</fix>
</trkpt>
<trkpt lat="40.0728019" lon="-105.2307168">
  <ele>1595.68</ele>
  <time>2026-08-27T18:29:17Z</time>
  <course>35.38</course>
  <speed>0.0</speed>
  <fix>3d</fix>
</trkpt>
<trkpt lat="40.0728021" lon="-105.2307169">
  <ele>1595.6</ele>
  <time>2026-08-27T18:29:17Z</time>
  <course>326.33</course>
  <speed>0.03</speed>
  <fix>3d</fix>
</trkpt>
<trkpt lat="40.0728019" lon="-105.2307168">
  <ele>1595.68</ele>
  <time>2026-08-27T18:29:17Z</time>
  <course>35.36</course>
  <speed>0.0</speed>
  <fix>3d</fix>
</trkpt>
<trkpt lat="40.0728022" lon="-105.230717">
  <ele>1595.6</ele>
  <time>2026-08-27T18:29:17Z</time>
  <course>331.33</course>
  <speed>0.02</speed>
  <fix>3d</fix>
</trkpt>
<trkpt lat="40.072802" lon="-105.2307168">
  <ele>1595.68</ele>
  <time>2026-08-27T18:29:17Z</time>
  <course>35.36</course>
  <speed>0.01</speed>
  <fix>3d</fix>
</trkpt>
<trkpt lat="40.0728022" lon="-105.230717">
  <ele>1595.6</ele>
  <time>2026-08-27T18:29:17Z</time>
  <course>330.25</course>
  <speed>0.03</speed>
  <fix>3d</fix>
</trkpt>
<trkpt lat="40.0728021" lon="-105.2307169">
  <ele>1595.68</ele>
  <time>2026-08-27T18:29:17Z</time>
  <course>35.36</course>
  <speed>0.01414213562373095</speed>
  <fix>3d</fix>
</trkpt>
<trkpt lat="40.0728023" lon="-105.230717">
  <ele>1595.6</ele>
  <time>2026-08-27T18:29:17Z</time>
  <course>328.29</course>
  <speed>0.03</speed>
  <fix>3d</fix>
</trkpt>
<trkpt lat="40.0728021" lon="-105.230717">
  <ele>1595.68</ele>
  <time>2026-08-27T18:29:17Z</time>
  <course>35.35</course>
  <speed>0.022360679774997897</speed>
  <fix>3d</fix>
</trkpt>
<trkpt lat="40.0728023" lon="-105.230717">
  <ele>1595.6</ele>
  <time>2026-08-27T18:29:17Z</time>
  <course>324.73</course>
  <speed>0.04</speed>
  <fix>3d</fix>
</trkpt>
<trkpt lat="40.0728022" lon="-105.230717">
  <ele>1595.68</ele>
  <time>2026-08-27T18:29:17Z</time>
  <course>35.36</course>
  <speed>0.022360679774997897</speed>
  <fix>3d</fix>
</trkpt>
<trkpt lat="40.0728024" lon="-105.2307171">
  <ele>1595.6</ele>
  <time>2026-08-27T18:29:17Z</time>
  <course>321.4</course>
  <speed>0.04</speed>
  <fix>3d</fix>
</trkpt>
<trkpt lat="40.0728023" lon="-105.2307171">
  <ele>1595.68</ele>
  <time>2026-08-27T18:29:17Z</time>
  <course>35.36</course>
  <speed>0.0282842712474619</speed>
  <fix>3d</fix>
</trkpt>
<trkpt lat="40.0728025" lon="-105.2307172">
  <ele>1595.6</ele>
  <time>2026-08-27T18:29:17Z</time>
  <course>319.17</course>
  <speed>0.05</speed>
  <fix>3d</fix>
</trkpt>
<trkpt lat="40.0728024" lon="-105.2307172">
  <ele>1595.69</ele>
  <time>2026-08-27T18:29:17Z</time>
  <course>35.38</course>
  <speed>0.03605551275463989</speed>
  <fix>3d</fix>
</trkpt>
<trkpt lat="40.0728025" lon="-105.2307173">
  <ele>1595.6</ele>
  <time>2026-08-27T18:29:17Z</time>
  <course>317.65</course>
  <speed>0.05</speed>
  <fix>3d</fix>
</trkpt>
<trkpt lat="40.0728025" lon="-105.2307173">
  <ele>1595.68</ele>
  <time>2026-08-27T18:29:17Z</time>
  <course>35.38</course>
  <speed>0.03605551275463989</speed>
  <fix>3d</fix>
</trkpt>
<trkpt lat="40.0728026" lon="-105.2307174">
  <ele>1595.6</ele>
  <time>2026-08-27T18:29:17Z</time>
  <course>316.2</course>
  <speed>0.06</speed>
  <fix>3d</fix>
</trkpt>
<trkpt lat="40.0728025" lon="-105.2307174">
  <ele>1595.68</ele>
  <time>2026-08-27T18:29:17Z</time>
  <course>35.37</course>
  <speed>0.03605551275463989</speed>
  <fix>3d</fix>
</trkpt>
<trkpt lat="40.0728027" lon="-105.2307175">
  <ele>1595.6</ele>
  <time>2026-08-27T18:29:17Z</time>
  <course>315.09</course>
  <speed>0.06</speed>
  <fix>3d</fix>
</trkpt>
<trkpt lat="40.0728026" lon="-105.2307175">
  <ele>1595.68</ele>
  <time>2026-08-27T18:29:17Z</time>
  <course>35.37</course>
  <speed>0.03605551275463989</speed>
  <fix>3d</fix>
</trkpt>
<trkpt lat="40.0728028" lon="-105.2307176">
  <ele>1595.6</ele>
  <time>2026-08-27T18:29:17Z</time>
  <course>314.33</course>
  <speed>0.06</speed>
  <fix>3d</fix>
</trkpt>
<trkpt lat="40.0728027" lon="-105.2307176">
  <ele>1595.68</ele>
  <time>2026-08-27T18:29:17Z</time>
  <course>35.37</course>
  <speed>0.044721359549995794</speed>
  <fix>3d</fix>
</trkpt>
<trkpt lat="40.0728029" lon="-105.2307177">
  <ele>1595.6</ele>
  <time>2026-08-27T18:29:17Z</time>
  <course>313.51</course>
  <speed>0.06</speed>
  <fix>3d</fix>
</trkpt>
<trkpt lat="40.0728028" lon="-105.2307177">
  <ele>1595.68</ele>
  <time>2026-08-27T18:29:17Z</time>
  <course>35.36</course>
  <speed>0.044721359549995794</speed>
  <fix>3d</fix>
</trkpt>
<trkpt lat="40.0728029" lon="-105.2307178">
  <ele>1595.6</ele>
  <time>2026-08-27T18:29:17Z</time>
  <course>312.52</course>
  <speed>0.06</speed>
  <fix>3d</fix>
</trkpt>
<trkpt lat="40.0728029" lon="-105.2307179">
  <ele>1595.68</ele>
  <time>2026-08-27T18:29:17Z</time>
  <course>35.37</course>
  <speed>0.044721359549995794</speed>
  <fix>3d</fix>
</trkpt>
<trkpt lat="40.072803" lon="-105.230718">
  <ele>1595.6</ele>
  <time>2026-08-27T18:29:17Z</time>
  <course>311.58</course>
  <speed>0.06</speed>
  <fix>3d</fix>
</trkpt>
<trkpt lat="40.072803" lon="-105.230718">
  <ele>1595.68</ele>
  <time>2026-08-27T18:29:17Z</time>
  <course>35.37</course>
  <speed>0.044721359549995794</speed>
  <fix>3d</fix>
</trkpt>
<trkpt lat="40.0728031" lon="-105.2307181">
  <ele>1595.6</ele>
  <time>2026-08-27T18:29:17Z</time>
  <course>310.98</course>
  <speed>0.06</speed>
  <fix>3d</fix>
</trkpt>
<trkpt lat="40.072803" lon="-105.2307181">
  <ele>1595.69</ele>
  <time>2026-08-27T18:29:17Z</time>
  <course>35.38</course>
  <speed>0.044721359549995794</speed>
  <fix>3d</fix>
</trkpt>
<trkpt lat="40.0728032" lon="-105.2307182">
  <ele>1595.6</ele>
  <time>2026-08-27T18:29:17Z</time>
  <course>310.67</course>
  <speed>0.07</speed>
  <fix>3d</fix>
</trkpt>
<trkpt lat="40.0728031" lon="-105.2307183">
  <ele>1595.69</ele>
  <time>2026-08-27T18:29:17Z</time>
  <course>35.38</course>
  <speed>0.053851648071345036</speed>
  <fix>3d</fix>
</trkpt>
<trkpt lat="40.0728033" lon="-105.2307183">
  <ele>1595.6</ele>
  <time>2026-08-27T18:29:17Z</time>
  <course>310.2</course>
  <speed>0.07</speed>
  <fix>3d</fix>
</trkpt>
<trkpt lat="40.0728032" lon="-105.2307184">
  <ele>1595.69</ele>
  <time>2026-08-27T18:29:17Z</time>
  <course>35.39</course>
  <speed>0.044721359549995794</speed>
  <fix>3d</fix>
</trkpt>
<trkpt lat="40.0728034" lon="-105.2307185">
  <ele>1595.6</ele>
  <time>2026-08-27T18:29:17Z</time>
  <course>309.9</course>
  <speed>0.07</speed>
  <fix>3d</fix>
</trkpt>
<trkpt lat="40.0728033" lon="-105.2307185">
  <ele>1595.69</ele>
  <time>2026-08-27T18:29:17Z</time>
  <course>35.37</course>
  <speed>0.044721359549995794</speed>
  <fix>3d</fix>
</trkpt>
<trkpt lat="40.0728035" lon="-105.2307186">
  <ele>1595.6</ele>
  <time>2026-08-27T18:29:17Z</time>
  <course>309.73</course>
  <speed>0.07</speed>
  <fix>3d</fix>
</trkpt>
<trkpt lat="40.0728034" lon="-105.2307186">
  <ele>1595.69</ele>
  <time>2026-08-27T18:29:17Z</time>
  <course>35.39</course>
  <speed>0.0316227766016838</speed>
  <fix>3d</fix>
</trkpt>
<trkpt lat="40.0728035" lon="-105.2307187">
  <ele>1595.6</ele>
  <time>2026-08-27T18:29:17Z</time>
  <course>310.32</course>
  <speed>0.06</speed>
  <fix>3d</fix>
</trkpt>
<trkpt lat="40.0728034" lon="-105.2307187">
  <ele>1595.69</ele>
  <time>2026-08-27T18:29:17Z</time>
  <course>35.38</course>
  <speed>0.022360679774997897</speed>
  <fix>3d</fix>
</trkpt>
<trkpt lat="40.0728036" lon="-105.2307188">
  <ele>1595.59</ele>
  <time>2026-08-27T18:29:17Z</time>
  <course>312.23</course>
  <speed>0.05</speed>
  <fix>3d</fix>
</trkpt>
<trkpt lat="40.0728035" lon="-105.2307188">
  <ele>1595.69</ele>
  <time>2026-08-27T18:29:17Z</time>
  <course>35.39</course>
  <speed>0.022360679774997897</speed>
  <fix>3d</fix>
</trkpt>
<trkpt lat="40.0728037" lon="-105.2307189">
  <ele>1595.59</ele>
  <time>2026-08-27T18:29:17Z</time>
  <course>315.03</course>
  <speed>0.05</speed>
  <fix>3d</fix>
</trkpt>
<trkpt lat="40.0728036" lon="-105.2307189">
  <ele>1595.68</ele>
  <time>2026-08-27T18:29:17Z</time>
  <course>35.36</course>
  <speed>0.01414213562373095</speed>
  <fix>3d</fix>
</trkpt>
<trkpt lat="40.0728037" lon="-105.230719">
  <ele>1595.59</ele>
  <time>2026-08-27T18:29:17Z</time>
  <course>319.01</course>
  <speed>0.04</speed>
  <fix>3d</fix>
</trkpt>
<trkpt lat="40.0728036" lon="-105.2307189">
  <ele>1595.68</ele>
  <time>2026-08-27T18:29:17Z</time>
  <course>35.36</course>
  <speed>0.01</speed>
  <fix>3d</fix>
</trkpt>
<trkpt lat="40.0728038" lon="-105.2307191">
  <ele>1595.59</ele>
  <time>2026-08-27T18:29:17Z</time>
  <course>322.26</course>
  <speed>0.04</speed>
  <fix>3d</fix>
</trkpt>
<trkpt lat="40.0728037" lon="-105.230719">
  <ele>1595.68</ele>
  <time>2026-08-27T18:29:17Z</time>
  <course>35.37</course>
  <speed>0.01414213562373095</speed>
  <fix>3d</fix>
</trkpt>
<trkpt lat="40.0728038" lon="-105.2307192">
  <ele>1595.58</ele>
  <time>2026-08-27T18:29:17Z</time>
  <course>323.87</course>
  <speed>0.04</speed>
  <fix>3d</fix>
</trkpt>
<trkpt lat="40.0728037" lon="-105.2307191">
  <ele>1595.68</ele>
  <time>2026-08-27T18:29:17Z</time>
  <course>35.36</course>
  <speed>0.022360679774997897</speed>
  <fix>3d</fix>
</trkpt>
<trkpt lat="40.0728039" lon="-105.2307192">
  <ele>1595.58</ele>
  <time>2026-08-27T18:29:17Z</time>
  <course>324.05</course>
  <speed>0.04</speed>
  <fix>3d</fix>
</trkpt>
<trkpt lat="40.0728038" lon="-105.2307192">
  <ele>1595.68</ele>
  <time>2026-08-27T18:29:17Z</time>
  <course>35.35</course>
  <speed>0.022360679774997897</speed>
  <fix>3d</fix>
</trkpt>
<trkpt lat="40.072804" lon="-105.2307192">
  <ele>1595.58</ele>
  <time>2026-08-27T18:29:17Z</time>
  <course>322.73</course>
  <speed>0.04</speed>
  <fix>3d</fix>
</trkpt>
<trkpt lat="40.0728039" lon="-105.2307192">
  <ele>1595.67</ele>
  <time>2026-08-27T18:29:17Z</time>
  <course>35.36</course>
  <speed>0.022360679774997897</speed>
  <fix>3d</fix>
</trkpt>
<trkpt lat="40.0728041" lon="-105.2307193">
  <ele>1595.58</ele>
  <time>2026-08-27T18:29:17Z</time>
  <course>320.75</course>
  <speed>0.05</speed>
  <fix>3d</fix>
</trkpt>
<trkpt lat="40.072804" lon="-105.2307193">
  <ele>1595.67</ele>
  <time>2026-08-27T18:29:17Z</time>
  <course>35.35</course>
  <speed>0.03605551275463989</speed>
  <fix>3d</fix>
</trkpt>
<trkpt lat="40.0728041" lon="-105.2307194">
  <ele>1595.58</ele>
  <time>2026-08-27T18:29:17Z</time>
  <course>318.78</course>
  <speed>0.05</speed>
  <fix>3d</fix>
</trkpt>
<trkpt lat="40.072804" lon="-105.2307194">
  <ele>1595.67</ele>
  <time>2026-08-27T18:29:17Z</time>
  <course>35.35</course>
  <speed>0.03605551275463989</speed>
  <fix>3d</fix>
</trkpt>
<trkpt lat="40.0728042" lon="-105.2307195">
  <ele>1595.58</ele>
  <time>2026-08-27T18:29:17Z</time>
  <course>316.94</course>
  <speed>0.06</speed>
  <fix>3d</fix>
</trkpt>
<trkpt lat="40.0728041" lon="-105.2307195">
  <ele>1595.67</ele>
  <time>2026-08-27T18:29:17Z</time>
  <course>35.34</course>
  <speed>0.03605551275463989</speed>
  <fix>3d</fix>
</trkpt>
<trkpt lat="40.0728043" lon="-105.2307196">
  <ele>1595.58</ele>
  <time>2026-08-27T18:29:17Z</time>
  <course>315.27</course>
  <speed>0.06</speed>
  <fix>3d</fix>
</trkpt>
<trkpt lat="40.0728042" lon="-105.2307196">
  <ele>1595.67</ele>
  <time>2026-08-27T18:29:17Z</time>
  <course>35.33</course>
  <speed>0.03605551275463989</speed>
  <fix>3d</fix>
</trkpt>
<trkpt lat="40.0728044" lon="-105.2307197">
  <ele>1595.59</ele>
  <time>2026-08-27T18:29:17Z</time>
  <course>314.18</course>
  <speed>0.06</speed>
  <fix>3d</fix>
</trkpt>
<trkpt lat="40.0728043" lon="-105.2307197">
  <ele>1595.67</ele>
  <time>2026-08-27T18:29:17Z</time>
  <course>35.34</course>
  <speed>0.044721359549995794</speed>
  <fix>3d</fix>
</trkpt>
<trkpt lat="40.0728044" lon="-105.2307198">
  <ele>1595.59</ele>
  <time>2026-08-27T18:29:17Z</time>
  <course>313.49</course>
  <speed>0.06</speed>
  <fix>3d</fix>
</trkpt>
<trkpt lat="40.0728044" lon="-105.2307199">
  <ele>1595.68</ele>
  <time>2026-08-27T18:29:17Z</time>
  <course>35.36</course>
  <speed>0.044721359549995794</speed>
  <fix>3d</fix>
</trkpt>
<trkpt lat="40.0728045" lon="-105.2307199">
  <ele>1595.59</ele>
  <time>2026-08-27T18:29:17Z</time>
  <course>312.77</course>
  <speed>0.06</speed>
  <fix>3d</fix>
</trkpt>
<trkpt lat="40.0728045" lon="-105.23072">
  <ele>1595.68</ele>
  <time>2026-08-27T18:29:17Z</time>
  <course>35.37</course>
  <speed>0.044721359549995794</speed>
  <fix>3d</fix>
</trkpt>
<trkpt lat="40.0728046" lon="-105.2307201">
  <ele>1595.59</ele>
  <time>2026-08-27T18:29:17Z</time>
  <course>312.08</course>
  <speed>0.06</speed>
  <fix>3d</fix>
</trkpt>
<trkpt lat="40.0728045" lon="-105.2307201">
  <ele>1595.69</ele>
  <time>2026-08-27T18:29:17Z</time>
  <course>35.37</course>
  <speed>0.044721359549995794</speed>
  <fix>3d</fix>
</trkpt>
<trkpt lat="40.0728047" lon="-105.2307202">
  <ele>1595.6</ele>
  <time>2026-08-27T18:29:17Z</time>
  <course>311.54</course>
  <speed>0.07</speed>
  <fix>3d</fix>
</trkpt>
<trkpt lat="40.0728046" lon="-105.2307202">
  <ele>1595.69</ele>
  <time>2026-08-27T18:29:17Z</time>
  <course>35.38</course>
  <speed>0.044721359549995794</speed>
  <fix>3d</fix>
</trkpt>
<trkpt lat="40.0728048" lon="-105.2307203">
  <ele>1595.6</ele>
  <time>2026-08-27T18:29:17Z</time>
  <course>311.13</course>
  <speed>0.07</speed>
  <fix>3d</fix>
</trkpt>
<trkpt lat="40.0728047" lon="-105.2307204">
  <ele>1595.69</ele>
  <time>2026-08-27T18:29:17Z</time>
  <course>35.38</course>
  <speed>0.044721359549995794</speed>
  <fix>3d</fix>
</trkpt>
<trkpt lat="40.0728049" lon="-105.2307204">
  <ele>1595.6</ele>
  <time>2026-08-27T18:29:17Z</time>
  <course>311.04</course>
  <speed>0.07</speed>
  <fix>3d</fix>
</trkpt>
<trkpt lat="40.0728048" lon="-105.2307205">
  <ele>1595.69</ele>
  <time>2026-08-27T18:29:17Z</time>
  <course>35.37</course>
  <speed>0.044721359549995794</speed>
  <fix>3d</fix>
</trkpt>
<trkpt lat="40.0728049" lon="-105.2307206">
  <ele>1595.6</ele>
  <time>2026-08-27T18:29:17Z</time>
  <course>310.83</course>
  <speed>0.07</speed>
  <fix>3d</fix>
</trkpt>
<trkpt lat="40.0728049" lon="-105.2307206">
  <ele>1595.68</ele>
  <time>2026-08-27T18:29:17Z</time>
  <course>35.37</course>
  <speed>0.044721359549995794</speed>
  <fix>3d</fix>
</trkpt>
<trkpt lat="40.072805" lon="-105.2307207">
  <ele>1595.6</ele>
  <time>2026-08-27T18:29:17Z</time>
  <course>310.62</course>
  <speed>0.07</speed>
  <fix>3d</fix>
</trkpt>
<trkpt lat="40.072805" lon="-105.2307207">
  <ele>1595.68</ele>
  <time>2026-08-27T18:29:17Z</time>
  <course>35.37</course>
  <speed>0.044721359549995794</speed>
  <fix>3d</fix>
</trkpt>
<trkpt lat="40.0728051" lon="-105.2307208">
  <ele>1595.6</ele>
  <time>2026-08-27T18:29:17Z</time>
  <course>310.61</course>
  <speed>0.07</speed>
  <fix>3d</fix>
</trkpt>
<trkpt lat="40.072805" lon="-105.2307209">
  <ele>1595.68</ele>
  <time>2026-08-27T18:29:17Z</time>
  <course>35.37</course>
  <speed>0.044721359549995794</speed>
  <fix>3d</fix>
</trkpt>
<trkpt lat="40.0728052" lon="-105.2307209">
  <ele>1595.6</ele>
  <time>2026-08-27T18:29:17Z</time>
  <course>310.68</course>
  <speed>0.07</speed>
  <fix>3d</fix>
</trkpt>
<trkpt lat="40.0728051" lon="-105.230721">
  <ele>1595.67</ele>
  <time>2026-08-27T18:29:17Z</time>
  <course>35.38</course>
  <speed>0.044721359549995794</speed>
  <fix>3d</fix>
</trkpt>
<trkpt lat="40.0728053" lon="-105.2307211">
  <ele>1595.6</ele>
  <time>2026-08-27T18:29:17Z</time>
  <course>311.06</course>
  <speed>0.07</speed>
  <fix>3d</fix>
</trkpt>
<trkpt lat="40.0728052" lon="-105.2307211">
  <ele>1595.67</ele>
  <time>2026-08-27T18:29:17Z</time>
  <course>35.37</course>
  <speed>0.0316227766016838</speed>
  <fix>3d</fix>
</trkpt>
<trkpt lat="40.0728054" lon="-105.2307212">
  <ele>1595.6</ele>
  <time>2026-08-27T18:29:17Z</time>
  <course>311.07</course>
  <speed>0.07</speed>
  <fix>3d</fix>
</trkpt>
<trkpt lat="40.0728053" lon="-105.2307212">
  <ele>1595.67</ele>
  <time>2026-08-27T18:29:18Z</time>
  <course>35.36</course>
  <speed>0.0316227766016838</speed>
  <fix>3d</fix>
</trkpt>
<trkpt lat="40.0728055" lon="-105.2307213">
  <ele>1595.6</ele>
  <time>2026-08-27T18:29:18Z</time>
  <course>311.56</course>
  <speed>0.06</speed>
  <fix>3d</fix>
</trkpt>
<trkpt lat="40.0728053" lon="-105.2307213">
  <ele>1595.68</ele>
  <time>2026-08-27T18:29:18Z</time>
  <course>35.35</course>
  <speed>0.022360679774997897</speed>
  <fix>3d</fix>
</trkpt>
<trkpt lat="40.0728055" lon="-105.2307214">
  <ele>1595.6</ele>
  <time>2026-08-27T18:29:18Z</time>
  <course>314.14</course>
  <speed>0.05</speed>
  <fix>3d</fix>
</trkpt>
<trkpt lat="40.0728054" lon="-105.2307214">
  <ele>1595.68</ele>
  <time>2026-08-27T18:29:18Z</time>
  <course>35.36</course>
  <speed>0.022360679774997897</speed>
  <fix>3d</fix>
</trkpt>
<trkpt lat="40.0728056" lon="-105.2307215">
  <ele>1595.6</ele>
  <time>2026-08-27T18:29:18Z</time>
  <course>317.47</course>
  <speed>0.04</speed>
  <fix>3d</fix>
</trkpt>
<trkpt lat="40.0728055" lon="-105.2307215">
  <ele>1595.68</ele>
  <time>2026-08-27T18:29:18Z</time>
  <course>35.36</course>
  <speed>0.01</speed>
  <fix>3d</fix>
</trkpt>
<trkpt lat="40.0728056" lon="-105.2307216">
  <ele>1595.6</ele>
  <time>2026-08-27T18:29:18Z</time>
  <course>321.05</course>
  <speed>0.04</speed>
  <fix>3d</fix>
</trkpt>
<trkpt lat="40.0728055" lon="-105.2307215">
  <ele>1595.68</ele>
  <time>2026-08-27T18:29:18Z</time>
  <course>35.35</course>
  <speed>0.01</speed>
  <fix>3d</fix>
</trkpt>
<trkpt lat="40.0728057" lon="-105.2307216">
  <ele>1595.6</ele>
  <time>2026-08-27T18:29:18Z</time>
  <course>324.27</course>
  <speed>0.04</speed>
  <fix>3d</fix>
</trkpt>
<trkpt lat="40.0728056" lon="-105.2307216">
  <ele>1595.68</ele>
  <time>2026-08-27T18:29:18Z</time>
  <course>35.37</course>
  <speed>0.01</speed>
  <fix>3d</fix>
</trkpt>
<trkpt lat="40.0728058" lon="-105.2307217">
  <ele>1595.6</ele>
  <time>2026-08-27T18:29:18Z</time>
  <course>326.18</course>
  <speed>0.03</speed>
  <fix>3d</fix>
</trkpt>
<trkpt lat="40.0728056" lon="-105.2307216">
  <ele>1595.67</ele>
  <time>2026-08-27T18:29:18Z</time>
  <course>35.35</course>
  <speed>0.01414213562373095</speed>
  <fix>3d</fix>
</trkpt>
<trkpt lat="40.0728059" lon="-105.2307218">
  <ele>1595.6</ele>
  <time>2026-08-27T18:29:18Z</time>
  <course>326.52</course>
  <speed>0.04</speed>
  <fix>3d</fix>
</trkpt>
<trkpt lat="40.0728057" lon="-105.2307217">
  <ele>1595.68</ele>
  <time>2026-08-27T18:29:18Z</time>
  <course>35.35</course>
  <speed>0.022360679774997897</speed>
  <fix>3d</fix>
</trkpt>
<trkpt lat="40.0728059" lon="-105.2307218">
  <ele>1595.6</ele>
  <time>2026-08-27T18:29:18Z</time>
  <course>325.42</course>
  <speed>0.04</speed>
  <fix>3d</fix>
</trkpt>
<trkpt lat="40.0728058" lon="-105.2307218">
  <ele>1595.68</ele>
  <time>2026-08-27T18:29:18Z</time>
  <course>35.35</course>
  <speed>0.022360679774997897</speed>
  <fix>3d</fix>
</trkpt>
<trkpt lat="40.072806" lon="-105.2307219">
  <ele>1595.6</ele>
  <time>2026-08-27T18:29:18Z</time>
  <course>323.96</course>
  <speed>0.04</speed>
  <fix>3d</fix>
</trkpt>
<trkpt lat="40.0728059" lon="-105.2307218">
  <ele>1595.68</ele>
  <time>2026-08-27T18:29:18Z</time>
  <course>35.36</course>
  <speed>0.0282842712474619</speed>
  <fix>3d</fix>
</trkpt>
<trkpt lat="40.0728061" lon="-105.230722">
  <ele>1595.61</ele>
  <time>2026-08-27T18:29:18Z</time>
  <course>322.45</course>
  <speed>0.05</speed>
  <fix>3d</fix>
</trkpt>
<trkpt lat="40.072806" lon="-105.2307219">
  <ele>1595.68</ele>
  <time>2026-08-27T18:29:18Z</time>
  <course>35.35</course>
  <speed>0.0282842712474619</speed>
  <fix>3d</fix>
</trkpt>
<trkpt lat="40.0728061" lon="-105.230722">
  <ele>1595.61</ele>
  <time>2026-08-27T18:29:18Z</time>
  <course>321.2</course>
  <speed>0.05</speed>
  <fix>3d</fix>
</trkpt>
<trkpt lat="40.072806" lon="-105.230722">
  <ele>1595.68</ele>
  <time>2026-08-27T18:29:18Z</time>
  <course>35.36</course>
  <speed>0.03605551275463989</speed>
  <fix>3d</fix>
</trkpt>
<trkpt lat="40.0728062" lon="-105.2307221">
  <ele>1595.61</ele>
  <time>2026-08-27T18:29:18Z</time>
  <course>320.0</course>
  <speed>0.05</speed>
  <fix>3d</fix>
</trkpt>
<trkpt lat="40.0728061" lon="-105.2307221">
  <ele>1595.69</ele>
  <time>2026-08-27T18:29:18Z</time>
  <course>35.37</course>
  <speed>0.03605551275463989</speed>
  <fix>3d</fix>
</trkpt>
<trkpt lat="40.0728063" lon="-105.2307222">
  <ele>1595.61</ele>
  <time>2026-08-27T18:29:18Z</time>
  <course>318.8</course>
  <speed>0.06</speed>
  <fix>3d</fix>
</trkpt>
<trkpt lat="40.0728062" lon="-105.2307222">
  <ele>1595.69</ele>
  <time>2026-08-27T18:29:18Z</time>
  <course>35.38</course>
  <speed>0.03605551275463989</speed>
  <fix>3d</fix>
</trkpt>
<trkpt lat="40.0728064" lon="-105.2307223">
  <ele>1595.61</ele>
  <time>2026-08-27T18:29:18Z</time>
  <course>317.87</course>
  <speed>0.06</speed>
  <fix>3d</fix>
</trkpt>
<trkpt lat="40.0728063" lon="-105.2307223">
  <ele>1595.69</ele>
  <time>2026-08-27T18:29:18Z</time>
  <course>35.41</course>
  <speed>0.03605551275463989</speed>
  <fix>3d</fix>
</trkpt>
<trkpt lat="40.0728065" lon="-105.2307224">
  <ele>1595.61</ele>
  <time>2026-08-27T18:29:18Z</time>
  <course>316.97</course>
  <speed>0.06</speed>
  <fix>3d</fix>
</trkpt>
<trkpt lat="40.0728064" lon="-105.2307224">
  <ele>1595.69</ele>
  <time>2026-08-27T18:29:18Z</time>
  <course>35.39</course>
  <speed>0.03605551275463989</speed>
  <fix>3d</fix>
</trkpt>
<trkpt lat="40.0728065" lon="-105.2307225">
  <ele>1595.61</ele>
  <time>2026-08-27T18:29:18Z</time>
  <course>316.21</course>
  <speed>0.06</speed>
  <fix>3d</fix>
</trkpt>
<trkpt lat="40.0728065" lon="-105.2307225">
  <ele>1595.7</ele>
  <time>2026-08-27T18:29:18Z</time>
  <course>35.4</course>
  <speed>0.03605551275463989</speed>
  <fix>3d</fix>
</trkpt>
<trkpt lat="40.0728066" lon="-105.2307226">
  <ele>1595.61</ele>
  <time>2026-08-27T18:29:18Z</time>
  <course>315.65</course>
  <speed>0.06</speed>
  <fix>3d</fix>
</trkpt>
<trkpt lat="40.0728066" lon="-105.2307226">
  <ele>1595.7</ele>
  <time>2026-08-27T18:29:18Z</time>
  <course>35.4</course>
  <speed>0.03605551275463989</speed>
  <fix>3d</fix>
</trkpt>
<trkpt lat="40.0728067" lon="-105.2307227">
  <ele>1595.6</ele>
  <time>2026-08-27T18:29:18Z</time>
  <course>315.21</course>
  <speed>0.06</speed>
  <fix>3d</fix>
</trkpt>
<trkpt lat="40.0728066" lon="-105.2307228">
  <ele>1595.69</ele>
  <time>2026-08-27T18:29:18Z</time>
  <course>35.37</course>
  <speed>0.03605551275463989</speed>
  <fix>3d</fix>
</trkpt>
<trkpt lat="40.0728068" lon="-105.2307228">
  <ele>1595.6</ele>
  <time>2026-08-27T18:29:18Z</time>
  <course>314.83</course>
  <speed>0.06</speed>
  <fix>3d</fix>
</trkpt>
<trkpt lat="40.0728067" lon="-105.2307229">
  <ele>1595.69</ele>
  <time>2026-08-27T18:29:18Z</time>
  <course>35.41</course>
  <speed>0.03605551275463989</speed>
  <fix>3d</fix>
</trkpt>
<trkpt lat="40.0728069" lon="-105.2307229">
  <ele>1595.6</ele>
  <time>2026-08-27T18:29:18Z</time>
  <course>314.39</course>
  <speed>0.06</speed>
  <fix>3d</fix>
</trkpt>
<trkpt lat="40.0728068" lon="-105.230723">
  <ele>1595.69</ele>
  <time>2026-08-27T18:29:18Z</time>
  <course>35.41</course>
  <speed>0.03605551275463989</speed>
  <fix>3d</fix>
</trkpt>
<trkpt lat="40.072807" lon="-105.2307231">
  <ele>1595.59</ele>
  <time>2026-08-27T18:29:18Z</time>
  <course>313.99</course>
  <speed>0.06</speed>
  <fix>3d</fix>
</trkpt>
<trkpt lat="40.0728069" lon="-105.2307231">
  <ele>1595.69</ele>
  <time>2026-08-27T18:29:18Z</time>
  <course>35.4</course>
  <speed>0.03605551275463989</speed>
  <fix>3d</fix>
</trkpt>
<trkpt lat="40.072807" lon="-105.2307232">
  <ele>1595.59</ele>
  <time>2026-08-27T18:29:18Z</time>
  <course>313.68</course>
  <speed>0.06</speed>
  <fix>3d</fix>
</trkpt>
<trkpt lat="40.072807" lon="-105.2307232">
  <ele>1595.68</ele>
  <time>2026-08-27T18:29:18Z</time>
  <course>35.39</course>
  <speed>0.044721359549995794</speed>
  <fix>3d</fix>
</trkpt>
<trkpt lat="40.0728071" lon="-105.2307233">
  <ele>1595.59</ele>
  <time>2026-08-27T18:29:18Z</time>
  <course>313.44</course>
  <speed>0.06</speed>
  <fix>3d</fix>
</trkpt>
<trkpt lat="40.0728071" lon="-105.2307233">
  <ele>1595.68</ele>
  <time>2026-08-27T18:29:18Z</time>
  <course>35.38</course>
  <speed>0.044721359549995794</speed>
  <fix>3d</fix>
</trkpt>
<trkpt lat="40.0728072" lon="-105.2307234">
  <ele>1595.58</ele>
  <time>2026-08-27T18:29:18Z</time>
  <course>313.29</course>
  <speed>0.07</speed>
  <fix>3d</fix>
</trkpt>
<trkpt lat="40.0728071" lon="-105.2307234">
  <ele>1595.68</ele>
  <time>2026-08-27T18:29:18Z</time>
  <course>35.38</course>
  <speed>0.0316227766016838</speed>
  <fix>3d</fix>
</trkpt>
<trkpt lat="40.0728073" lon="-105.2307235">
  <ele>1595.58</ele>
  <time>2026-08-27T18:29:18Z</time>
  <course>312.73</course>
  <speed>0.06</speed>
  <fix>3d</fix>
</trkpt>
<trkpt lat="40.0728072" lon="-105.2307235">
  <ele>1595.67</ele>
  <time>2026-08-27T18:29:18Z</time>
  <course>35.36</course>
  <speed>0.0316227766016838</speed>
  <fix>3d</fix>
</trkpt>
<trkpt lat="40.0728074" lon="-105.2307236">
  <ele>1595.58</ele>
  <time>2026-08-27T18:29:18Z</time>
  <course>312.98</course>
  <speed>0.05</speed>
  <fix>3d</fix>
</trkpt>
<trkpt lat="40.0728073" lon="-105.2307236">
  <ele>1595.67</ele>
  <time>2026-08-27T18:29:18Z</time>
  <course>35.36</course>
  <speed>0.022360679774997897</speed>
  <fix>3d</fix>
</trkpt>
<trkpt lat="40.0728074" lon="-105.2307237">
  <ele>1595.58</ele>
  <time>2026-08-27T18:29:18Z</time>
  <course>315.05</course>
  <speed>0.05</speed>
  <fix>3d</fix>
</trkpt>
<trkpt lat="40.0728073" lon="-105.2307237">
  <ele>1595.67</ele>
  <time>2026-08-27T18:29:18Z</time>
  <course>35.35</course>
  <speed>0.02</speed>
  <fix>3d</fix>
</trkpt>
<trkpt lat="40.0728075" lon="-105.2307238">
  <ele>1595.58</ele>
  <time>2026-08-27T18:29:18Z</time>
  <course>318.21</course>
  <speed>0.04</speed>
  <fix>3d</fix>
</trkpt>
<trkpt lat="40.0728074" lon="-105.2307237">
  <ele>1595.67</ele>
  <time>2026-08-27T18:29:18Z</time>
  <course>35.34</course>
  <speed>0.01</speed>
  <fix>3d</fix>
</trkpt>
<trkpt lat="40.0728076" lon="-105.2307239">
  <ele>1595.58</ele>
  <time>2026-08-27T18:29:18Z</time>
  <course>322.1</course>
  <speed>0.04</speed>
  <fix>3d</fix>
</trkpt>
<trkpt lat="40.0728074" lon="-105.2307238">
  <ele>1595.67</ele>
  <time>2026-08-27T18:29:18Z</time>
  <course>35.35</course>
  <speed>0.01</speed>
  <fix>3d</fix>
</trkpt>
<trkpt lat="40.0728076" lon="-105.2307239">
  <ele>1595.58</ele>
  <time>2026-08-27T18:29:18Z</time>
  <course>324.59</course>
  <speed>0.03</speed>
  <fix>3d</fix>
</trkpt>
<trkpt lat="40.0728075" lon="-105.2307239">
  <ele>1595.67</ele>
  <time>2026-08-27T18:29:18Z</time>
  <course>35.34</course>
  <speed>0.01</speed>
  <fix>3d</fix>
</trkpt>
<trkpt lat="40.0728077" lon="-105.230724">
  <ele>1595.59</ele>
  <time>2026-08-27T18:29:18Z</time>
  <course>326.43</course>
  <speed>0.03</speed>
  <fix>3d</fix>
</trkpt>
<trkpt lat="40.0728076" lon="-105.2307239">
  <ele>1595.67</ele>
  <time>2026-08-27T18:29:18Z</time>
  <course>35.35</course>
  <speed>0.01</speed>
  <fix>3d</fix>
</trkpt>
<trkpt lat="40.0728078" lon="-105.230724">
  <ele>1595.59</ele>
  <time>2026-08-27T18:29:18Z</time>
  <course>327.21</course>
  <speed>0.03</speed>
  <fix>3d</fix>
</trkpt>
<trkpt lat="40.0728076" lon="-105.230724">
  <ele>1595.67</ele>
  <time>2026-08-27T18:29:18Z</time>
  <course>35.36</course>
  <speed>0.01414213562373095</speed>
  <fix>3d</fix>
</trkpt>
<trkpt lat="40.0728078" lon="-105.230724">
  <ele>1595.59</ele>
  <time>2026-08-27T18:29:18Z</time>
  <course>326.29</course>
  <speed>0.03</speed>
  <fix>3d</fix>
</trkpt>
<trkpt lat="40.0728077" lon="-105.230724">
  <ele>1595.67</ele>
  <time>2026-08-27T18:29:18Z</time>
  <course>35.36</course>
  <speed>0.022360679774997897</speed>
  <fix>3d</fix>
</trkpt>
<trkpt lat="40.0728079" lon="-105.2307241">
  <ele>1595.59</ele>
  <time>2026-08-27T18:29:18Z</time>
  <course>324.71</course>
  <speed>0.04</speed>
  <fix>3d</fix>
</trkpt>
<trkpt lat="40.0728078" lon="-105.2307241">
  <ele>1595.67</ele>
  <time>2026-08-27T18:29:18Z</time>
  <course>35.35</course>
  <speed>0.022360679774997897</speed>
  <fix>3d</fix>
</trkpt>
<trkpt lat="40.0728079" lon="-105.2307242">
  <ele>1595.59</ele>
  <time>2026-08-27T18:29:18Z</time>
  <course>323.01</course>
  <speed>0.04</speed>
  <fix>3d</fix>
</trkpt>
<trkpt lat="40.0728078" lon="-105.2307242">
  <ele>1595.67</ele>
  <time>2026-08-27T18:29:18Z</time>
  <course>35.35</course>
  <speed>0.022360679774997897</speed>
  <fix>3d</fix>
</trkpt>
<trkpt lat="40.072808" lon="-105.2307242">
  <ele>1595.59</ele>
  <time>2026-08-27T18:29:18Z</time>
  <course>321.48</course>
  <speed>0.05</speed>
  <fix>3d</fix>
</trkpt>
<trkpt lat="40.0728079" lon="-105.2307242">
  <ele>1595.68</ele>
  <time>2026-08-27T18:29:18Z</time>
  <course>35.35</course>
  <speed>0.0282842712474619</speed>
  <fix>3d</fix>
</trkpt>
<trkpt lat="40.072808" lon="-105.2307243">
  <ele>1595.6</ele>
  <time>2026-08-27T18:29:18Z</time>
  <course>319.97</course>
  <speed>0.05</speed>
  <fix>3d</fix>
</trkpt>
<trkpt lat="40.072808" lon="-105.2307243">
  <ele>1595.68</ele>
  <time>2026-08-27T18:29:18Z</time>
  <course>35.36</course>
  <speed>0.03605551275463989</speed>
  <fix>3d</fix>
</trkpt>
<trkpt lat="40.0728081" lon="-105.2307244">
  <ele>1595.6</ele>
  <time>2026-08-27T18:29:18Z</time>
  <course>318.49</course>
  <speed>0.05</speed>
  <fix>3d</fix>
</trkpt>
<trkpt lat="40.0728081" lon="-105.2307244">
  <ele>1595.68</ele>
  <time>2026-08-27T18:29:18Z</time>
  <course>35.36</course>
  <speed>0.03605551275463989</speed>
  <fix>3d</fix>
</trkpt>
<trkpt lat="40.0728082" lon="-105.2307245">
  <ele>1595.6</ele>
  <time>2026-08-27T18:29:18Z</time>
  <course>316.98</course>
  <speed>0.05</speed>
  <fix>3d</fix>
</trkpt>
<trkpt lat="40.0728081" lon="-105.2307245">
  <ele>1595.68</ele>
  <time>2026-08-27T18:29:18Z</time>
  <course>35.36</course>
  <speed>0.03605551275463989</speed>
  <fix>3d</fix>
</trkpt>
<trkpt lat="40.0728083" lon="-105.2307246">
  <ele>1595.6</ele>
  <time>2026-08-27T18:29:18Z</time>
  <course>315.65</course>
  <speed>0.05</speed>
  <fix>3d</fix>
</trkpt>
<trkpt lat="40.0728082" lon="-105.2307246">
  <ele>1595.68</ele>
  <time>2026-08-27T18:29:18Z</time>
  <course>35.36</course>
  <speed>0.03605551275463989</speed>
  <fix>3d</fix>
</trkpt>
<trkpt lat="40.0728084" lon="-105.2307247">
  <ele>1595.6</ele>
  <time>2026-08-27T18:29:18Z</time>
  <course>314.47</course>
  <speed>0.06</speed>
  <fix>3d</fix>
</trkpt>
<trkpt lat="40.0728083" lon="-105.2307247">
  <ele>1595.67</ele>
  <time>2026-08-27T18:29:18Z</time>
  <course>35.37</course>
  <speed>0.03605551275463989</speed>
  <fix>3d</fix>
</trkpt>
<trkpt lat="40.0728085" lon="-105.2307248">
  <ele>1595.6</ele>
  <time>2026-08-27T18:29:18Z</time>
  <course>313.4</course>
  <speed>0.06</speed>
  <fix>3d</fix>
</trkpt>
<trkpt lat="40.0728084" lon="-105.2307248">
  <ele>1595.67</ele>
  <time>2026-08-27T18:29:18Z</time>
  <course>35.37</course>
  <speed>0.03605551275463989</speed>
  <fix>3d</fix>
</trkpt>
<trkpt lat="40.0728085" lon="-105.2307249">
  <ele>1595.6</ele>
  <time>2026-08-27T18:29:18Z</time>
  <course>312.43</course>
  <speed>0.06</speed>
  <fix>3d</fix>
</trkpt>
<trkpt lat="40.0728085" lon="-105.2307249">
  <ele>1595.67</ele>
  <time>2026-08-27T18:29:18Z</time>
  <course>35.36</course>
  <speed>0.044721359549995794</speed>
  <fix>3d</fix>
</trkpt>
<trkpt lat="40.0728086" lon="-105.230725">
  <ele>1595.61</ele>
  <time>2026-08-27T18:29:18Z</time>
  <course>311.56</course>
  <speed>0.06</speed>
  <fix>3d</fix>
</trkpt>
<trkpt lat="40.0728085" lon="-105.2307251">
  <ele>1595.68</ele>
  <time>2026-08-27T18:29:18Z</time>
  <course>35.37</course>
  <speed>0.044721359549995794</speed>
  <fix>3d</fix>
</trkpt>
<trkpt lat="40.0728087" lon="-105.2307252">
  <ele>1595.61</ele>
  <time>2026-08-27T18:29:18Z</time>
  <course>310.58</course>
  <speed>0.06</speed>
  <fix>3d</fix>
</trkpt>
<trkpt lat="40.0728086" lon="-105.2307252">
  <ele>1595.68</ele>
  <time>2026-08-27T18:29:18Z</time>
  <course>35.37</course>
  <speed>0.044721359549995794</speed>
  <fix>3d</fix>
</trkpt>
<trkpt lat="40.0728088" lon="-105.2307253">
  <ele>1595.61</ele>
  <time>2026-08-27T18:29:18Z</time>
  <course>309.4</course>
  <speed>0.06</speed>
  <fix>3d</fix>
</trkpt>
<trkpt lat="40.0728087" lon="-105.2307253">
  <ele>1595.69</ele>
  <time>2026-08-27T18:29:18Z</time>
  <course>35.38</course>
  <speed>0.044721359549995794</speed>
  <fix>3d</fix>
</trkpt>
<trkpt lat="40.0728088" lon="-105.2307254">
  <ele>1595.61</ele>
  <time>2026-08-27T18:29:18Z</time>
  <course>308.25</course>
  <speed>0.06</speed>
  <fix>3d</fix>
</trkpt>
<trkpt lat="40.0728088" lon="-105.2307255">
  <ele>1595.68</ele>
  <time>2026-08-27T18:29:18Z</time>
  <course>35.38</course>
  <speed>0.053851648071345036</speed>
  <fix>3d</fix>
</trkpt>
<trkpt lat="40.0728089" lon="-105.2307255">
  <ele>1595.61</ele>
  <time>2026-08-27T18:29:18Z</time>
  <course>307.81</course>
  <speed>0.07</speed>
  <fix>3d</fix>
</trkpt>
<trkpt lat="40.0728088" lon="-105.2307256">
  <ele>1595.68</ele>
  <time>2026-08-27T18:29:18Z</time>
  <course>35.39</course>
  <speed>0.044721359549995794</speed>
  <fix>3d</fix>
</trkpt>
<trkpt lat="40.072809" lon="-105.2307256">
  <ele>1595.61</ele>
  <time>2026-08-27T18:29:18Z</time>
  <course>307.91</course>
  <speed>0.07</speed>
  <fix>3d</fix>
</trkpt>
<trkpt lat="40.0728089" lon="-105.2307257">
  <ele>1595.68</ele>
  <time>2026-08-27T18:29:18Z</time>
  <course>35.37</course>
  <speed>0.0412310562561766</speed>
  <fix>3d</fix>
</trkpt>
<trkpt lat="40.0728091" lon="-105.2307258">
  <ele>1595.61</ele>
  <time>2026-08-27T18:29:18Z</time>
  <course>308.25</course>
  <speed>0.06</speed>
  <fix>3d</fix>
</trkpt>
<trkpt lat="40.072809" lon="-105.2307258">
  <ele>1595.68</ele>
  <time>2026-08-27T18:29:18Z</time>
  <course>35.37</course>
  <speed>0.0316227766016838</speed>
  <fix>3d</fix>
</trkpt>
<trkpt lat="40.0728091" lon="-105.2307259">
  <ele>1595.61</ele>
  <time>2026-08-27T18:29:18Z</time>
  <course>309.54</course>
  <speed>0.05</speed>
  <fix>3d</fix>
</trkpt>
<trkpt lat="40.072809" lon="-105.2307259">
  <ele>1595.69</ele>
  <time>2026-08-27T18:29:18Z</time>
  <course>35.37</course>
  <speed>0.022360679774997897</speed>
  <fix>3d</fix>
</trkpt>
<trkpt lat="40.0728092" lon="-105.230726">
  <ele>1595.61</ele>
  <time>2026-08-27T18:29:18Z</time>
  <course>312.61</course>
  <speed>0.05</speed>
  <fix>3d</fix>
</trkpt>
<trkpt lat="40.0728091" lon="-105.230726">
  <ele>1595.69</ele>
  <time>2026-08-27T18:29:18Z</time>
  <course>35.36</course>
  <speed>0.01</speed>
  <fix>3d</fix>
</trkpt>
<trkpt lat="40.0728092" lon="-105.2307261">
  <ele>1595.61</ele>
  <time>2026-08-27T18:29:18Z</time>
  <course>317.11</course>
  <speed>0.04</speed>
  <fix>3d</fix>
</trkpt>
<trkpt lat="40.0728091" lon="-105.230726">
  <ele>1595.69</ele>
  <time>2026-08-27T18:29:18Z</time>
  <course>35.37</course>
  <speed>0.01</speed>
  <fix>3d</fix>
</trkpt>
<trkpt lat="40.0728093" lon="-105.2307261">
  <ele>1595.61</ele>
  <time>2026-08-27T18:29:18Z</time>
  <course>321.22</course>
  <speed>0.04</speed>
  <fix>3d</fix>
</trkpt>
<trkpt lat="40.0728092" lon="-105.2307261">
  <ele>1595.7</ele>
  <time>2026-08-27T18:29:18Z</time>
  <course>35.38</course>
  <speed>0.01</speed>
  <fix>3d</fix>
</trkpt>
<trkpt lat="40.0728094" lon="-105.2307262">
  <ele>1595.61</ele>
  <time>2026-08-27T18:29:18Z</time>
  <course>325.1</course>
  <speed>0.03</speed>
  <fix>3d</fix>
</trkpt>
<trkpt lat="40.0728093" lon="-105.2307261">
  <ele>1595.7</ele>
  <time>2026-08-27T18:29:18Z</time>
  <course>35.39</course>
  <speed>0.01</speed>
  <fix>3d</fix>
</trkpt>
<trkpt lat="40.0728095" lon="-105.2307263">
  <ele>1595.61</ele>
  <time>2026-08-27T18:29:18Z</time>
  <course>327.8</course>
  <speed>0.03</speed>
  <fix>3d</fix>
</trkpt>
<trkpt lat="40.0728093" lon="-105.2307262">
  <ele>1595.7</ele>
  <time>2026-08-27T18:29:18Z</time>
  <course>35.38</course>
  <speed>0.0</speed>
  <fix>3d</fix>
</trkpt>
<trkpt lat="40.0728095" lon="-105.2307263">
  <ele>1595.6</ele>
  <time>2026-08-27T18:29:18Z</time>
  <course>330.38</course>
  <speed>0.03</speed>
  <fix>3d</fix>
</trkpt>
<trkpt lat="40.0728094" lon="-105.2307262">
  <ele>1595.7</ele>
  <time>2026-08-27T18:29:18Z</time>
  <course>35.39</course>
  <speed>0.01</speed>
  <fix>3d</fix>
</trkpt>
<trkpt lat="40.0728096" lon="-105.2307264">
  <ele>1595.6</ele>
  <time>2026-08-27T18:29:18Z</time>
  <course>331.76</course>
  <speed>0.03</speed>
  <fix>3d</fix>
</trkpt>
<trkpt lat="40.0728094" lon="-105.2307263">
  <ele>1595.69</ele>
  <time>2026-08-27T18:29:18Z</time>
  <course>35.37</course>
  <speed>0.01414213562373095</speed>
  <fix>3d</fix>
</trkpt>
<trkpt lat="40.0728096" lon="-105.2307264">
  <ele>1595.6</ele>
  <time>2026-08-27T18:29:18Z</time>
  <course>330.6</course>
  <speed>0.03</speed>
  <fix>3d</fix>
</trkpt>
<trkpt lat="40.0728095" lon="-105.2307263">
  <ele>1595.68</ele>
  <time>2026-08-27T18:29:18Z</time>
  <course>35.38</course>
  <speed>0.01414213562373095</speed>
  <fix>3d</fix>
</trkpt>
<trkpt lat="40.0728097" lon="-105.2307264">
  <ele>1595.59</ele>
  <time>2026-08-27T18:29:18Z</time>
  <course>328.36</course>
  <speed>0.04</speed>
  <fix>3d</fix>
</trkpt>
<trkpt lat="40.0728096" lon="-105.2307264">
  <ele>1595.68</ele>
  <time>2026-08-27T18:29:18Z</time>
  <course>35.37</course>
  <speed>0.022360679774997897</speed>
  <fix>3d</fix>
</trkpt>
<trkpt lat="40.0728098" lon="-105.2307265">
  <ele>1595.59</ele>
  <time>2026-08-27T18:29:18Z</time>
  <course>325.43</course>
  <speed>0.04</speed>
  <fix>3d</fix>
</trkpt>
<trkpt lat="40.0728096" lon="-105.2307265">
  <ele>1595.67</ele>
  <time>2026-08-27T18:29:18Z</time>
  <course>35.37</course>
  <speed>0.022360679774997897</speed>
  <fix>3d</fix>
</trkpt>
<trkpt lat="40.0728098" lon="-105.2307266">
  <ele>1595.59</ele>
  <time>2026-08-27T18:29:18Z</time>
  <course>322.98</course>
  <speed>0.04</speed>
  <fix>3d</fix>
</trkpt>
<trkpt lat="40.0728097" lon="-105.2307265">
  <ele>1595.67</ele>
  <time>2026-08-27T18:29:18Z</time>
  <course>35.37</course>
  <speed>0.022360679774997897</speed>
  <fix>3d</fix>
</trkpt>
<trkpt lat="40.0728099" lon="-105.2307266">
  <ele>1595.59</ele>
  <time>2026-08-27T18:29:18Z</time>
  <course>321.08</course>
  <speed>0.04</speed>
  <fix>3d</fix>
</trkpt>
<trkpt lat="40.0728098" lon="-105.2307266">
  <ele>1595.66</ele>
  <time>2026-08-27T18:29:18Z</time>
  <course>35.34</course>
  <speed>0.022360679774997897</speed>
  <fix>3d</fix>
</trkpt>
<trkpt lat="40.0728099" lon="-105.2307267">
  <ele>1595.59</ele>
  <time>2026-08-27T18:29:18Z</time>
  <course>319.56</course>
  <speed>0.05</speed>
  <fix>3d</fix>
</trkpt>
<trkpt lat="40.0728099" lon="-105.2307267">
  <ele>1595.67</ele>
  <time>2026-08-27T18:29:18Z</time>
  <course>35.34</course>
  <speed>0.022360679774997897</speed>
  <fix>3d</fix>
</trkpt>
<trkpt lat="40.07281" lon="-105.2307268">
  <ele>1595.59</ele>
  <time>2026-08-27T18:29:18Z</time>
  <course>318.52</course>
  <speed>0.05</speed>
  <fix>3d</fix>
</trkpt>
<trkpt lat="40.0728099" lon="-105.2307268">
  <ele>1595.67</ele>
  <time>2026-08-27T18:29:18Z</time>
  <course>35.33</course>
  <speed>0.0316227766016838</speed>
  <fix>3d</fix>
</trkpt>
<trkpt lat="40.0728101" lon="-105.2307269">
  <ele>1595.59</ele>
  <time>2026-08-27T18:29:18Z</time>
  <course>317.56</course>
  <speed>0.05</speed>
  <fix>3d</fix>
</trkpt>
<trkpt lat="40.07281" lon="-105.2307269">
  <ele>1595.68</ele>
  <time>2026-08-27T18:29:18Z</time>
  <course>35.35</course>
  <speed>0.03605551275463989</speed>
  <fix>3d</fix>
</trkpt>
<trkpt lat="40.0728102" lon="-105.230727">
  <ele>1595.59</ele>
  <time>2026-08-27T18:29:18Z</time>
  <course>316.65</course>
  <speed>0.05</speed>
  <fix>3d</fix>
</trkpt>
<trkpt lat="40.0728101" lon="-105.230727">
  <ele>1595.69</ele>
  <time>2026-08-27T18:29:18Z</time>
  <course>35.36</course>
  <speed>0.03605551275463989</speed>
  <fix>3d</fix>
</trkpt>
<trkpt lat="40.0728102" lon="-105.230727">
  <ele>1595.59</ele>
  <time>2026-08-27T18:29:18Z</time>
  <course>315.89</course>
  <speed>0.05</speed>
  <fix>3d</fix>
</trkpt>
<trkpt lat="40.0728102" lon="-105.2307271">
  <ele>1595.69</ele>
  <time>2026-08-27T18:29:18Z</time>
  <course>35.36</course>
  <speed>0.03605551275463989</speed>
  <fix>3d</fix>
</trkpt>
<trkpt lat="40.0728103" lon="-105.2307271">
  <ele>1595.6</ele>
  <time>2026-08-27T18:29:18Z</time>
  <course>315.24</course>
  <speed>0.05</speed>
  <fix>3d</fix>
</trkpt>
<trkpt lat="40.0728102" lon="-105.2307272">
  <ele>1595.69</ele>
  <time>2026-08-27T18:29:18Z</time>
  <course>35.38</course>
  <speed>0.03605551275463989</speed>
  <fix>3d</fix>
</trkpt>
<trkpt lat="40.0728104" lon="-105.2307272">
  <ele>1595.6</ele>
  <time>2026-08-27T18:29:18Z</time>
  <course>314.68</course>
  <speed>0.06</speed>
  <fix>3d</fix>
</trkpt>
<trkpt lat="40.0728103" lon="-105.2307273">
  <ele>1595.68</ele>
  <time>2026-08-27T18:29:18Z</time>
  <course>35.39</course>
  <speed>0.03605551275463989</speed>
  <fix>3d</fix>
</trkpt>
<trkpt lat="40.0728105" lon="-105.2307273">
  <ele>1595.6</ele>
  <time>2026-08-27T18:29:18Z</time>
  <course>314.24</course>
  <speed>0.06</speed>
  <fix>3d</fix>
</trkpt>
<trkpt lat="40.0728104" lon="-105.2307274">
  <ele>1595.68</ele>
  <time>2026-08-27T18:29:18Z</time>
  <course>35.38</course>
  <speed>0.03605551275463989</speed>
  <fix>3d</fix>
</trkpt>
<trkpt lat="40.0728105" lon="-105.2307274">
  <ele>1595.6</ele>
  <time>2026-08-27T18:29:18Z</time>
  <course>313.99</course>
  <speed>0.06</speed>
  <fix>3d</fix>
</trkpt>
<trkpt lat="40.0728105" lon="-105.2307275">
  <ele>1595.68</ele>
  <time>2026-08-27T18:29:18Z</time>
  <course>35.38</course>
  <speed>0.044721359549995794</speed>
  <fix>3d</fix>
</trkpt>
<trkpt lat="40.0728106" lon="-105.2307276">
  <ele>1595.6</ele>
  <time>2026-08-27T18:29:18Z</time>
  <course>313.46</course>
  <speed>0.06</speed>
  <fix>3d</fix>
</trkpt>
<trkpt lat="40.0728106" lon="-105.2307276">
  <ele>1595.68</ele>
  <time>2026-08-27T18:29:18Z</time>
  <course>35.41</course>
  <speed>0.044721359549995794</speed>
  <fix>3d</fix>
</trkpt>
<trkpt lat="40.0728107" lon="-105.2307277">
  <ele>1595.6</ele>
  <time>2026-08-27T18:29:18Z</time>
  <course>313.32</course>
  <speed>0.06</speed>
  <fix>3d</fix>
</trkpt>
<trkpt lat="40.0728106" lon="-105.2307277">
  <ele>1595.68</ele>
  <time>2026-08-27T18:29:18Z</time>
  <course>35.4</course>
  <speed>0.044721359549995794</speed>
  <fix>3d</fix>
</trkpt>
<trkpt lat="40.0728108" lon="-105.2307278">
  <ele>1595.6</ele>
  <time>2026-08-27T18:29:18Z</time>
  <course>312.33</course>
  <speed>0.07</speed>
  <fix>3d</fix>
</trkpt>
<trkpt lat="40.0728107" lon="-105.2307278">
  <ele>1595.69</ele>
  <time>2026-08-27T18:29:18Z</time>
  <course>35.4</course>
  <speed>0.0316227766016838</speed>
  <fix>3d</fix>
</trkpt>
<trkpt lat="40.0728109" lon="-105.2307279">
  <ele>1595.6</ele>
  <time>2026-08-27T18:29:18Z</time>
  <course>310.86</course>
  <speed>0.06</speed>
  <fix>3d</fix>
</trkpt>
<trkpt lat="40.0728108" lon="-105.2307279">
  <ele>1595.69</ele>
  <time>2026-08-27T18:29:18Z</time>
  <course>35.4</course>
  <speed>0.022360679774997897</speed>
  <fix>3d</fix>
</trkpt>
<trkpt lat="40.072811" lon="-105.230728">
  <ele>1595.6</ele>
  <time>2026-08-27T18:29:18Z</time>
  <course>311.39</course>
  <speed>0.05</speed>
  <fix>3d</fix>
</trkpt>
<trkpt lat="40.0728108" lon="-105.230728">
  <ele>1595.69</ele>
  <time>2026-08-27T18:29:18Z</time>
  <course>35.4</course>
  <speed>0.022360679774997897</speed>
  <fix>3d</fix>
</trkpt>
<trkpt lat="40.072811" lon="-105.2307281">
  <ele>1595.59</ele>
  <time>2026-08-27T18:29:18Z</time>
  <course>313.88</course>
  <speed>0.04</speed>
  <fix>3d</fix>
</trkpt>
<trkpt lat="40.0728109" lon="-105.2307281">
  <ele>1595.69</ele>
  <time>2026-08-27T18:29:18Z</time>
  <course>35.41</course>
  <speed>0.01</speed>
  <fix>3d</fix>
</trkpt>
<trkpt lat="40.0728111" lon="-105.2307282">
  <ele>1595.59</ele>
  <time>2026-08-27T18:29:18Z</time>
  <course>317.78</course>
  <speed>0.04</speed>
  <fix>3d</fix>
</trkpt>
<trkpt lat="40.0728109" lon="-105.2307281">
  <ele>1595.69</ele>
  <time>2026-08-27T18:29:18Z</time>
  <course>35.4</course>
  <speed>0.01</speed>
  <fix>3d</fix>
</trkpt>
<trkpt lat="40.0728111" lon="-105.2307283">
  <ele>1595.59</ele>
  <time>2026-08-27T18:29:18Z</time>
  <course>321.75</course>
  <speed>0.04</speed>
  <fix>3d</fix>
</trkpt>
<trkpt lat="40.072811" lon="-105.2307282">
  <ele>1595.68</ele>
  <time>2026-08-27T18:29:18Z</time>
  <course>35.39</course>
  <speed>0.01</speed>
  <fix>3d</fix>
</trkpt>
<trkpt lat="40.0728112" lon="-105.2307283">
  <ele>1595.58</ele>
  <time>2026-08-27T18:29:18Z</time>
  <course>324.84</course>
  <speed>0.03</speed>
  <fix>3d</fix>
</trkpt>
<trkpt lat="40.0728111" lon="-105.2307282">
  <ele>1595.67</ele>
  <time>2026-08-27T18:29:18Z</time>
  <course>35.38</course>
  <speed>0.01</speed>
  <fix>3d</fix>
</trkpt>
<trkpt lat="40.0728113" lon="-105.2307284">
  <ele>1595.58</ele>
  <time>2026-08-27T18:29:18Z</time>
  <course>326.94</course>
  <speed>0.03</speed>
  <fix>3d</fix>
</trkpt>
<trkpt lat="40.0728111" lon="-105.2307283">
  <ele>1595.67</ele>
  <time>2026-08-27T18:29:18Z</time>
  <course>35.38</course>
  <speed>0.01</speed>
  <fix>3d</fix>
</trkpt>
<trkpt lat="40.0728114" lon="-105.2307285">
  <ele>1595.58</ele>
  <time>2026-08-27T18:29:18Z</time>
  <course>328.24</course>
  <speed>0.03</speed>
  <fix>3d</fix>
</trkpt>
<trkpt lat="40.0728112" lon="-105.2307283">
  <ele>1595.67</ele>
  <time>2026-08-27T18:29:18Z</time>
  <course>35.37</course>
  <speed>0.01</speed>
  <fix>3d</fix>
</trkpt>
<trkpt lat="40.0728114" lon="-105.2307285">
  <ele>1595.58</ele>
  <time>2026-08-27T18:29:18Z</time>
  <course>328.75</course>
  <speed>0.03</speed>
  <fix>3d</fix>
</trkpt>
<trkpt lat="40.0728112" lon="-105.2307284">
  <ele>1595.67</ele>
  <time>2026-08-27T18:29:18Z</time>
  <course>35.36</course>
  <speed>0.01</speed>
  <fix>3d</fix>
</trkpt>
<trkpt lat="40.0728115" lon="-105.2307285">
  <ele>1595.58</ele>
  <time>2026-08-27T18:29:18Z</time>
  <course>328.54</course>
  <speed>0.03</speed>
  <fix>3d</fix>
</trkpt>
<trkpt lat="40.0728113" lon="-105.2307284">
  <ele>1595.67</ele>
  <time>2026-08-27T18:29:18Z</time>
  <course>35.36</course>
  <speed>0.01</speed>
  <fix>3d</fix>
</trkpt>
<trkpt lat="40.0728115" lon="-105.2307286">
  <ele>1595.58</ele>
  <time>2026-08-27T18:29:18Z</time>
  <course>327.82</course>
  <speed>0.03</speed>
  <fix>3d</fix>
</trkpt>
<trkpt lat="40.0728114" lon="-105.2307285">
  <ele>1595.67</ele>
  <time>2026-08-27T18:29:18Z</time>
  <course>35.37</course>
  <speed>0.0</speed>
  <fix>3d</fix>
</trkpt>
<trkpt lat="40.0728116" lon="-105.2307287">
  <ele>1595.59</ele>
  <time>2026-08-27T18:29:18Z</time>
  <course>328.73</course>
  <speed>0.03</speed>
  <fix>3d</fix>
</trkpt>
<trkpt lat="40.0728114" lon="-105.2307285">
  <ele>1595.67</ele>
  <time>2026-08-27T18:29:18Z</time>
  <course>35.35</course>
  <speed>0.0</speed>
  <fix>3d</fix>
</trkpt>
<trkpt lat="40.0728116" lon="-105.2307287">
  <ele>1595.59</ele>
  <time>2026-08-27T18:29:18Z</time>
  <course>329.82</course>
  <speed>0.02</speed>
  <fix>3d</fix>
</trkpt>
<trkpt lat="40.0728114" lon="-105.2307285">
  <ele>1595.68</ele>
  <time>2026-08-27T18:29:18Z</time>
  <course>35.35</course>
  <speed>0.0</speed>
  <fix>3d</fix>
</trkpt>
<trkpt lat="40.0728116" lon="-105.2307288">
  <ele>1595.59</ele>
  <time>2026-08-27T18:29:18Z</time>
  <course>331.33</course>
  <speed>0.02</speed>
  <fix>3d</fix>
</trkpt>
<trkpt lat="40.0728115" lon="-105.2307286">
  <ele>1595.68</ele>
  <time>2026-08-27T18:29:18Z</time>
  <course>35.37</course>
  <speed>0.0</speed>
  <fix>3d</fix>
</trkpt>
<trkpt lat="40.0728117" lon="-105.2307288">
  <ele>1595.59</ele>
  <time>2026-08-27T18:29:18Z</time>
  <course>331.33</course>
  <speed>0.03</speed>
  <fix>3d</fix>
</trkpt>
<trkpt lat="40.0728115" lon="-105.2307286">
  <ele>1595.69</ele>
  <time>2026-08-27T18:29:18Z</time>
  <course>35.37</course>
  <speed>0.01414213562373095</speed>
  <fix>3d</fix>
</trkpt>
<trkpt lat="40.0728117" lon="-105.2307288">
  <ele>1595.6</ele>
  <time>2026-08-27T18:29:18Z</time>
  <course>327.88</course>
  <speed>0.03</speed>
  <fix>3d</fix>
</trkpt>
<trkpt lat="40.0728116" lon="-105.2307287">
  <ele>1595.69</ele>
  <time>2026-08-27T18:29:18Z</time>
  <course>35.37</course>
  <speed>0.01414213562373095</speed>
  <fix>3d</fix>
</trkpt>
<trkpt lat="40.0728118" lon="-105.2307288">
  <ele>1595.6</ele>
  <time>2026-08-27T18:29:18Z</time>
  <course>324.59</course>
  <speed>0.04</speed>
  <fix>3d</fix>
</trkpt>
<trkpt lat="40.0728117" lon="-105.2307288">
  <ele>1595.69</ele>
  <time>2026-08-27T18:29:18Z</time>
  <course>35.38</course>
  <speed>0.022360679774997897</speed>
  <fix>3d</fix>
</trkpt>
<trkpt lat="40.0728119" lon="-105.2307289">
  <ele>1595.6</ele>
  <time>2026-08-27T18:29:18Z</time>
  <course>321.53</course>
  <speed>0.04</speed>
  <fix>3d</fix>
</trkpt>
<trkpt lat="40.0728117" lon="-105.2307289">
  <ele>1595.69</ele>
  <time>2026-08-27T18:29:18Z</time>
  <course>35.39</course>
  <speed>0.022360679774997897</speed>
  <fix>3d</fix>
</trkpt>
<trkpt lat="40.072812" lon="-105.230729">
  <ele>1595.6</ele>
  <time>2026-08-27T18:29:18Z</time>
  <course>319.35</course>
  <speed>0.05</speed>
  <fix>3d</fix>
</trkpt>
<trkpt lat="40.0728118" lon="-105.2307289">
  <ele>1595.68</ele>
  <time>2026-08-27T18:29:18Z</time>
  <course>35.38</course>
  <speed>0.022360679774997897</speed>
  <fix>3d</fix>
</trkpt>
<trkpt lat="40.072812" lon="-105.2307291">
  <ele>1595.59</ele>
  <time>2026-08-27T18:29:18Z</time>
  <course>317.97</course>
  <speed>0.05</speed>
  <fix>3d</fix>
</trkpt>
<trkpt lat="40.0728119" lon="-105.230729">
  <ele>1595.67</ele>
  <time>2026-08-27T18:29:18Z</time>
  <course>35.37</course>
  <speed>0.022360679774997897</speed>
  <fix>3d</fix>
</trkpt>
<trkpt lat="40.0728121" lon="-105.2307292">
  <ele>1595.59</ele>
  <time>2026-08-27T18:29:18Z</time>
  <course>316.7</course>
  <speed>0.05</speed>
  <fix>3d</fix>
</trkpt>
<trkpt lat="40.072812" lon="-105.2307291">
  <ele>1595.67</ele>
  <time>2026-08-27T18:29:18Z</time>
  <course>35.36</course>
  <speed>0.0316227766016838</speed>
  <fix>3d</fix>
</trkpt>
<trkpt lat="40.0728122" lon="-105.2307292">
  <ele>1595.59</ele>
  <time>2026-08-27T18:29:18Z</time>
  <course>315.67</course>
  <speed>0.05</speed>
  <fix>3d</fix>
</trkpt>
<trkpt lat="40.0728121" lon="-105.2307292">
  <ele>1595.66</ele>
  <time>2026-08-27T18:29:18Z</time>
  <course>35.33</course>
  <speed>0.03605551275463989</speed>
  <fix>3d</fix>
</trkpt>
<trkpt lat="40.0728122" lon="-105.2307293">
  <ele>1595.59</ele>
  <time>2026-08-27T18:29:18Z</time>
  <course>314.88</course>
  <speed>0.05</speed>
  <fix>3d</fix>
</trkpt>
<trkpt lat="40.0728121" lon="-105.2307293">
  <ele>1595.66</ele>
  <time>2026-08-27T18:29:18Z</time>
  <course>35.32</course>
  <speed>0.03605551275463989</speed>
  <fix>3d</fix>
</trkpt>
<trkpt lat="40.0728123" lon="-105.2307294">
  <ele>1595.59</ele>
  <time>2026-08-27T18:29:18Z</time>
  <course>314.11</course>
  <speed>0.05</speed>
  <fix>3d</fix>
</trkpt>
<trkpt lat="40.0728122" lon="-105.2307294">
  <ele>1595.67</ele>
  <time>2026-08-27T18:29:18Z</time>
  <course>35.35</course>
  <speed>0.03605551275463989</speed>
  <fix>3d</fix>
</trkpt>
<trkpt lat="40.0728124" lon="-105.2307295">
  <ele>1595.59</ele>
  <time>2026-08-27T18:29:18Z</time>
  <course>313.31</course>
  <speed>0.06</speed>
  <fix>3d</fix>
</trkpt>
<trkpt lat="40.0728123" lon="-105.2307295">
  <ele>1595.67</ele>
  <time>2026-08-27T18:29:18Z</time>
  <course>35.33</course>
  <speed>0.03605551275463989</speed>
  <fix>3d</fix>
</trkpt>
<trkpt lat="40.0728125" lon="-105.2307296">
  <ele>1595.6</ele>
  <time>2026-08-27T18:29:18Z</time>
  <course>312.67</course>
  <speed>0.06</speed>
  <fix>3d</fix>
</trkpt>
<trkpt lat="40.0728124" lon="-105.2307297">
  <ele>1595.67</ele>
  <time>2026-08-27T18:29:18Z</time>
  <course>35.36</course>
  <speed>0.03605551275463989</speed>
  <fix>3d</fix>
</trkpt>
<trkpt lat="40.0728125" lon="-105.2307298">
  <ele>1595.6</ele>
  <time>2026-08-27T18:29:18Z</time>
  <course>312.18</course>
  <speed>0.06</speed>
  <fix>3d</fix>
</trkpt>
<trkpt lat="40.0728124" lon="-105.2307298">
  <ele>1595.67</ele>
  <time>2026-08-27T18:29:18Z</time>
  <course>35.34</course>
  <speed>0.044721359549995794</speed>
  <fix>3d</fix>
</trkpt>
<trkpt lat="40.0728126" lon="-105.2307299">
  <ele>1595.6</ele>
  <time>2026-08-27T18:29:18Z</time>
  <course>311.73</course>
  <speed>0.06</speed>
  <fix>3d</fix>
</trkpt>
<trkpt lat="40.0728125" lon="-105.2307299">
  <ele>1595.68</ele>
  <time>2026-08-27T18:29:18Z</time>
  <course>35.39</course>
  <speed>0.05</speed>
  <fix>3d</fix>
</trkpt>
<trkpt lat="40.0728127" lon="-105.23073">
  <ele>1595.61</ele>
  <time>2026-08-27T18:29:18Z</time>
  <course>311.86</course>
  <speed>0.07</speed>
  <fix>3d</fix>
</trkpt>
<trkpt lat="40.0728126" lon="-105.23073">
  <ele>1595.69</ele>
  <time>2026-08-27T18:29:18Z</time>
  <course>35.4</course>
  <speed>0.044721359549995794</speed>
  <fix>3d</fix>
</trkpt>
<trkpt lat="40.0728128" lon="-105.2307301">
  <ele>1595.61</ele>
  <time>2026-08-27T18:29:18Z</time>
  <course>311.07</course>
  <speed>0.07</speed>
  <fix>3d</fix>
</trkpt>
<trkpt lat="40.0728127" lon="-105.2307302">
  <ele>1595.69</ele>
  <time>2026-08-27T18:29:18Z</time>
  <course>35.4</course>
  <speed>0.044721359549995794</speed>
  <fix>3d</fix>
</trkpt>
<trkpt lat="40.0728129" lon="-105.2307303">
  <ele>1595.61</ele>
  <time>2026-08-27T18:29:18Z</time>
  <course>309.65</course>
  <speed>0.07</speed>
  <fix>3d</fix>
</trkpt>
<trkpt lat="40.0728128" lon="-105.2307303">
  <ele>1595.69</ele>
  <time>2026-08-27T18:29:18Z</time>
  <course>35.41</course>
  <speed>0.0316227766016838</speed>
  <fix>3d</fix>
</trkpt>
<trkpt lat="40.0728129" lon="-105.2307304">
  <ele>1595.61</ele>
  <time>2026-08-27T18:29:18Z</time>
  <course>309.78</course>
  <speed>0.06</speed>
  <fix>3d</fix>
</trkpt>
<trkpt lat="40.0728128" lon="-105.2307304">
  <ele>1595.69</ele>
  <time>2026-08-27T18:29:18Z</time>
  <course>35.4</course>
  <speed>0.022360679774997897</speed>
  <fix>3d</fix>
</trkpt>
<trkpt lat="40.072813" lon="-105.2307305">
  <ele>1595.61</ele>
  <time>2026-08-27T18:29:18Z</time>
  <course>311.81</course>
  <speed>0.05</speed>
  <fix>3d</fix>
</trkpt>
<trkpt lat="40.0728129" lon="-105.2307304">
  <ele>1595.69</ele>
  <time>2026-08-27T18:29:18Z</time>
  <course>35.4</course>
  <speed>0.022360679774997897</speed>
  <fix>3d</fix>
</trkpt>
<trkpt lat="40.0728131" lon="-105.2307306">
  <ele>1595.61</ele>
  <time>2026-08-27T18:29:18Z</time>
  <course>315.5</course>
  <speed>0.04</speed>
  <fix>3d</fix>
</trkpt>
<trkpt lat="40.0728129" lon="-105.2307305">
  <ele>1595.69</ele>
  <time>2026-08-27T18:29:18Z</time>
  <course>35.39</course>
  <speed>0.01414213562373095</speed>
  <fix>3d</fix>
</trkpt>
<trkpt lat="40.0728132" lon="-105.2307307">
  <ele>1595.61</ele>
  <time>2026-08-27T18:29:18Z</time>
  <course>319.44</course>
  <speed>0.04</speed>
  <fix>3d</fix>
</trkpt>
<trkpt lat="40.072813" lon="-105.2307306">
  <ele>1595.7</ele>
  <time>2026-08-27T18:29:18Z</time>
  <course>35.41</course>
  <speed>0.01414213562373095</speed>
  <fix>3d</fix>
</trkpt>
<trkpt lat="40.0728132" lon="-105.2307307">
  <ele>1595.61</ele>
  <time>2026-08-27T18:29:18Z</time>
  <course>322.5</course>
  <speed>0.04</speed>
  <fix>3d</fix>
</trkpt>
<trkpt lat="40.0728131" lon="-105.2307306">
  <ele>1595.7</ele>
  <time>2026-08-27T18:29:18Z</time>
  <course>35.4</course>
  <speed>0.01414213562373095</speed>
  <fix>3d</fix>
</trkpt>
<trkpt lat="40.0728133" lon="-105.2307308">
  <ele>1595.61</ele>
  <time>2026-08-27T18:29:18Z</time>
  <course>324.34</course>
  <speed>0.04</speed>
  <fix>3d</fix>
</trkpt>
<trkpt lat="40.0728131" lon="-105.2307307">
  <ele>1595.7</ele>
  <time>2026-08-27T18:29:18Z</time>
  <course>35.39</course>
  <speed>0.01414213562373095</speed>
  <fix>3d</fix>
</trkpt>
<trkpt lat="40.0728134" lon="-105.2307309">
  <ele>1595.6</ele>
  <time>2026-08-27T18:29:18Z</time>
  <course>325.14</course>
  <speed>0.04</speed>
  <fix>3d</fix>
</trkpt>
<trkpt lat="40.0728132" lon="-105.2307308">
  <ele>1595.7</ele>
  <time>2026-08-27T18:29:18Z</time>
  <course>35.41</course>
  <speed>0.01414213562373095</speed>
  <fix>3d</fix>
</trkpt>
<trkpt lat="40.0728134" lon="-105.2307309">
  <ele>1595.6</ele>
  <time>2026-08-27T18:29:18Z</time>
  <course>325.33</course>
  <speed>0.04</speed>
  <fix>3d</fix>
</trkpt>
<trkpt lat="40.0728133" lon="-105.2307308">
  <ele>1595.7</ele>
  <time>2026-08-27T18:29:18Z</time>
  <course>35.42</course>
  <speed>0.01414213562373095</speed>
  <fix>3d</fix>
</trkpt>
<trkpt lat="40.0728134" lon="-105.2307309">
  <ele>1595.6</ele>
  <time>2026-08-27T18:29:18Z</time>
  <course>325.31</course>
  <speed>0.04</speed>
  <fix>3d</fix>
</trkpt>
<trkpt lat="40.0728133" lon="-105.2307309">
  <ele>1595.69</ele>
  <time>2026-08-27T18:29:18Z</time>
  <course>35.41</course>
  <speed>0.01</speed>
  <fix>3d</fix>
</trkpt>
<trkpt lat="40.0728135" lon="-105.230731">
  <ele>1595.59</ele>
  <time>2026-08-27T18:29:18Z</time>
  <course>325.37</course>
  <speed>0.04</speed>
  <fix>3d</fix>
</trkpt>
<trkpt lat="40.0728134" lon="-105.2307309">
  <ele>1595.69</ele>
  <time>2026-08-27T18:29:18Z</time>
  <course>35.39</course>
  <speed>0.0</speed>
  <fix>3d</fix>
</trkpt>
<trkpt lat="40.0728135" lon="-105.2307311">
  <ele>1595.59</ele>
  <time>2026-08-27T18:29:18Z</time>
  <course>328.82</course>
  <speed>0.03</speed>
  <fix>3d</fix>
</trkpt>
<trkpt lat="40.0728134" lon="-105.2307309">
  <ele>1595.68</ele>
  <time>2026-08-27T18:29:18Z</time>
  <course>35.36</course>
  <speed>0.0</speed>
  <fix>3d</fix>
</trkpt>
<trkpt lat="40.0728136" lon="-105.2307311">
  <ele>1595.58</ele>
  <time>2026-08-27T18:29:18Z</time>
  <course>334.35</course>
  <speed>0.02</speed>
  <fix>3d</fix>
</trkpt>
<trkpt lat="40.0728135" lon="-105.230731">
  <ele>1595.68</ele>
  <time>2026-08-27T18:29:18Z</time>
  <course>35.35</course>
  <speed>0.0</speed>
  <fix>3d</fix>
</trkpt>
<trkpt lat="40.0728137" lon="-105.2307311">
  <ele>1595.58</ele>
  <time>2026-08-27T18:29:18Z</time>
  <course>335.11</course>
  <speed>0.02</speed>
  <fix>3d</fix>
</trkpt>
<trkpt lat="40.0728135" lon="-105.230731">
  <ele>1595.68</ele>
  <time>2026-08-27T18:29:18Z</time>
  <course>35.36</course>
  <speed>0.0</speed>
  <fix>3d</fix>
</trkpt>
<trkpt lat="40.0728137" lon="-105.2307311">
  <ele>1595.58</ele>
  <time>2026-08-27T18:29:18Z</time>
  <course>333.73</course>
  <speed>0.03</speed>
  <fix>3d</fix>
</trkpt>
<trkpt lat="40.0728136" lon="-105.2307311">
  <ele>1595.68</ele>
  <time>2026-08-27T18:29:18Z</time>
  <course>35.36</course>
  <speed>0.01414213562373095</speed>
  <fix>3d</fix>
</trkpt>
<trkpt lat="40.0728138" lon="-105.2307311">
  <ele>1595.58</ele>
  <time>2026-08-27T18:29:18Z</time>
  <course>329.7</course>
  <speed>0.03</speed>
  <fix>3d</fix>
</trkpt>
<trkpt lat="40.0728136" lon="-105.2307311">
  <ele>1595.68</ele>
  <time>2026-08-27T18:29:18Z</time>
  <course>35.37</course>
  <speed>0.01414213562373095</speed>
  <fix>3d</fix>
</trkpt>
<trkpt lat="40.0728138" lon="-105.2307312">
  <ele>1595.58</ele>
  <time>2026-08-27T18:29:18Z</time>
  <course>326.1</course>
  <speed>0.04</speed>
  <fix>3d</fix>
</trkpt>
<trkpt lat="40.0728137" lon="-105.2307312">
  <ele>1595.68</ele>
  <time>2026-08-27T18:29:18Z</time>
  <course>35.37</course>
  <speed>0.0282842712474619</speed>
  <fix>3d</fix>
</trkpt>
<trkpt lat="40.0728139" lon="-105.2307313">
  <ele>1595.57</ele>
  <time>2026-08-27T18:29:18Z</time>
  <course>323.45</course>
  <speed>0.04</speed>
  <fix>3d</fix>
</trkpt>
<trkpt lat="40.0728138" lon="-105.2307313">
  <ele>1595.67</ele>
  <time>2026-08-27T18:29:18Z</time>
  <course>35.36</course>
  <speed>0.0282842712474619</speed>
  <fix>3d</fix>
</trkpt>
<trkpt lat="40.072814" lon="-105.2307314">
  <ele>1595.57</ele>
  <time>2026-08-27T18:29:18Z</time>
  <course>321.48</course>
  <speed>0.05</speed>
  <fix>3d</fix>
</trkpt>
<trkpt lat="40.0728139" lon="-105.2307313">
  <ele>1595.67</ele>
  <time>2026-08-27T18:29:19Z</time>
  <course>35.35</course>
  <speed>0.0282842712474619</speed>
  <fix>3d</fix>
</trkpt>
<trkpt lat="40.072814" lon="-105.2307314">
  <ele>1595.57</ele>
  <time>2026-08-27T18:29:19Z</time>
  <course>320.14</course>
  <speed>0.05</speed>
  <fix>3d</fix>
</trkpt>
<trkpt lat="40.072814" lon="-105.2307314">
  <ele>1595.67</ele>
  <time>2026-08-27T18:29:19Z</time>
  <course>35.36</course>
  <speed>0.03605551275463989</speed>
  <fix>3d</fix>
</trkpt>
<trkpt lat="40.0728141" lon="-105.2307315">
  <ele>1595.57</ele>
  <time>2026-08-27T18:29:19Z</time>
  <course>318.89</course>
  <speed>0.05</speed>
  <fix>3d</fix>
</trkpt>
<trkpt lat="40.072814" lon="-105.2307315">
  <ele>1595.67</ele>
  <time>2026-08-27T18:29:19Z</time>
  <course>35.36</course>
  <speed>0.03605551275463989</speed>
  <fix>3d</fix>
</trkpt>
<trkpt lat="40.0728142" lon="-105.2307316">
  <ele>1595.57</ele>
  <time>2026-08-27T18:29:19Z</time>
  <course>317.44</course>
  <speed>0.06</speed>
  <fix>3d</fix>
</trkpt>
<trkpt lat="40.0728141" lon="-105.2307316">
  <ele>1595.67</ele>
  <time>2026-08-27T18:29:19Z</time>
  <course>35.37</course>
  <speed>0.03605551275463989</speed>
  <fix>3d</fix>
</trkpt>
<trkpt lat="40.0728143" lon="-105.2307317">
  <ele>1595.58</ele>
  <time>2026-08-27T18:29:19Z</time>
  <course>315.85</course>
  <speed>0.06</speed>
  <fix>3d</fix>
</trkpt>
<trkpt lat="40.0728142" lon="-105.2307317">
  <ele>1595.67</ele>
  <time>2026-08-27T18:29:19Z</time>
  <course>35.36</course>
  <speed>0.03605551275463989</speed>
  <fix>3d</fix>
</trkpt>
<trkpt lat="40.0728144" lon="-105.2307318">
  <ele>1595.58</ele>
  <time>2026-08-27T18:29:19Z</time>
  <course>314.29</course>
  <speed>0.06</speed>
  <fix>3d</fix>
</trkpt>
<trkpt lat="40.0728143" lon="-105.2307319">
  <ele>1595.67</ele>
  <time>2026-08-27T18:29:19Z</time>
  <course>35.37</course>
  <speed>0.044721359549995794</speed>
  <fix>3d</fix>
</trkpt>
<trkpt lat="40.0728144" lon="-105.2307319">
  <ele>1595.58</ele>
  <time>2026-08-27T18:29:19Z</time>
  <course>313.19</course>
  <speed>0.06</speed>
  <fix>3d</fix>
</trkpt>
<trkpt lat="40.0728144" lon="-105.230732">
  <ele>1595.67</ele>
  <time>2026-08-27T18:29:19Z</time>
  <course>35.36</course>
  <speed>0.044721359549995794</speed>
  <fix>3d</fix>
</trkpt>
<trkpt lat="40.0728145" lon="-105.230732">
  <ele>1595.58</ele>
  <time>2026-08-27T18:29:19Z</time>
  <course>312.39</course>
  <speed>0.06</speed>
  <fix>3d</fix>
</trkpt>
<trkpt lat="40.0728145" lon="-105.2307321">
  <ele>1595.67</ele>
  <time>2026-08-27T18:29:19Z</time>
  <course>35.36</course>
  <speed>0.044721359549995794</speed>
  <fix>3d</fix>
</trkpt>
<trkpt lat="40.0728146" lon="-105.2307322">
  <ele>1595.58</ele>
  <time>2026-08-27T18:29:19Z</time>
  <course>311.92</course>
  <speed>0.06</speed>
  <fix>3d</fix>
</trkpt>
<trkpt lat="40.0728145" lon="-105.2307322">
  <ele>1595.68</ele>
  <time>2026-08-27T18:29:19Z</time>
  <course>35.34</course>
  <speed>0.05830951894845301</speed>
  <fix>3d</fix>
</trkpt>
<trkpt lat="40.0728147" lon="-105.2307323">
  <ele>1595.58</ele>
  <time>2026-08-27T18:29:19Z</time>
  <course>311.64</course>
  <speed>0.07</speed>
  <fix>3d</fix>
</trkpt>
<trkpt lat="40.0728146" lon="-105.2307323">
  <ele>1595.68</ele>
  <time>2026-08-27T18:29:19Z</time>
  <course>35.38</course>
  <speed>0.05830951894845301</speed>
  <fix>3d</fix>
</trkpt>
<trkpt lat="40.0728148" lon="-105.2307324">
  <ele>1595.59</ele>
  <time>2026-08-27T18:29:19Z</time>
  <course>311.83</course>
  <speed>0.07</speed>
  <fix>3d</fix>
</trkpt>
<trkpt lat="40.0728147" lon="-105.2307325">
  <ele>1595.68</ele>
  <time>2026-08-27T18:29:19Z</time>
  <course>35.37</course>
  <speed>0.044721359549995794</speed>
  <fix>3d</fix>
</trkpt>
<trkpt lat="40.0728149" lon="-105.2307326">
  <ele>1595.59</ele>
  <time>2026-08-27T18:29:19Z</time>
  <course>311.24</course>
  <speed>0.07</speed>
  <fix>3d</fix>
</trkpt>
<trkpt lat="40.0728148" lon="-105.2307326">
  <ele>1595.69</ele>
  <time>2026-08-27T18:29:19Z</time>
  <course>35.37</course>
  <speed>0.0412310562561766</speed>
  <fix>3d</fix>
</trkpt>
<trkpt lat="40.072815" lon="-105.2307327">
  <ele>1595.59</ele>
  <time>2026-08-27T18:29:19Z</time>
  <course>310.2</course>
  <speed>0.07</speed>
  <fix>3d</fix>
</trkpt>
<trkpt lat="40.0728149" lon="-105.2307327">
  <ele>1595.69</ele>
  <time>2026-08-27T18:29:19Z</time>
  <course>35.37</course>
  <speed>0.0316227766016838</speed>
  <fix>3d</fix>
</trkpt>
<trkpt lat="40.072815" lon="-105.2307328">
  <ele>1595.59</ele>
  <time>2026-08-27T18:29:19Z</time>
  <course>311.11</course>
  <speed>0.06</speed>
  <fix>3d</fix>
</trkpt>
<trkpt lat="40.0728149" lon="-105.2307328">
  <ele>1595.69</ele>
  <time>2026-08-27T18:29:19Z</time>
  <course>35.38</course>
  <speed>0.022360679774997897</speed>
  <fix>3d</fix>
</trkpt>
<trkpt lat="40.0728151" lon="-105.2307329">
  <ele>1595.59</ele>
  <time>2026-08-27T18:29:19Z</time>
  <course>313.75</course>
  <speed>0.05</speed>
  <fix>3d</fix>
</trkpt>
<trkpt lat="40.072815" lon="-105.2307329">
  <ele>1595.69</ele>
  <time>2026-08-27T18:29:19Z</time>
  <course>35.38</course>
  <speed>0.01</speed>
  <fix>3d</fix>
</trkpt>
<trkpt lat="40.0728152" lon="-105.230733">
  <ele>1595.59</ele>
  <time>2026-08-27T18:29:19Z</time>
  <course>317.32</course>
  <speed>0.04</speed>
  <fix>3d</fix>
</trkpt>
<trkpt lat="40.0728151" lon="-105.230733">
  <ele>1595.69</ele>
  <time>2026-08-27T18:29:19Z</time>
  <course>35.38</course>
  <speed>0.01</speed>
  <fix>3d</fix>
</trkpt>
<trkpt lat="40.0728152" lon="-105.2307331">
  <ele>1595.59</ele>
  <time>2026-08-27T18:29:19Z</time>
  <course>320.94</course>
  <speed>0.04</speed>
  <fix>3d</fix>
</trkpt>
<trkpt lat="40.0728151" lon="-105.230733">
  <ele>1595.69</ele>
  <time>2026-08-27T18:29:19Z</time>
  <course>35.38</course>
  <speed>0.01</speed>
  <fix>3d</fix>
</trkpt>
<trkpt lat="40.0728152" lon="-105.2307331">
  <ele>1595.58</ele>
  <time>2026-08-27T18:29:19Z</time>
  <course>324.06</course>
  <speed>0.04</speed>
  <fix>3d</fix>
</trkpt>
<trkpt lat="40.0728152" lon="-105.2307331">
  <ele>1595.7</ele>
  <time>2026-08-27T18:29:19Z</time>
  <course>35.4</course>
  <speed>0.01</speed>
  <fix>3d</fix>
</trkpt>
<trkpt lat="40.0728153" lon="-105.2307331">
  <ele>1595.58</ele>
  <time>2026-08-27T18:29:19Z</time>
  <course>326.4</course>
  <speed>0.03</speed>
  <fix>3d</fix>
</trkpt>
<trkpt lat="40.0728152" lon="-105.2307331">
  <ele>1595.7</ele>
  <time>2026-08-27T18:29:19Z</time>
  <course>35.41</course>
  <speed>0.01</speed>
  <fix>3d</fix>
</trkpt>
<trkpt lat="40.0728154" lon="-105.2307332">
  <ele>1595.58</ele>
  <time>2026-08-27T18:29:19Z</time>
  <course>328.12</course>
  <speed>0.03</speed>
  <fix>3d</fix>
</trkpt>
<trkpt lat="40.0728153" lon="-105.2307331">
  <ele>1595.69</ele>
  <time>2026-08-27T18:29:19Z</time>
  <course>35.41</course>
  <speed>0.01</speed>
  <fix>3d</fix>
</trkpt>
<trkpt lat="40.0728155" lon="-105.2307333">
  <ele>1595.57</ele>
  <time>2026-08-27T18:29:19Z</time>
  <course>329.67</course>
  <speed>0.03</speed>
  <fix>3d</fix>
</trkpt>
<trkpt lat="40.0728153" lon="-105.2307332">
  <ele>1595.69</ele>
  <time>2026-08-27T18:29:19Z</time>
  <course>35.4</course>
  <speed>0.01</speed>
  <fix>3d</fix>
</trkpt>
<trkpt lat="40.0728155" lon="-105.2307333">
  <ele>1595.57</ele>
  <time>2026-08-27T18:29:19Z</time>
  <course>330.83</course>
  <speed>0.03</speed>
  <fix>3d</fix>
</trkpt>
<trkpt lat="40.0728154" lon="-105.2307332">
  <ele>1595.69</ele>
  <time>2026-08-27T18:29:19Z</time>
  <course>35.4</course>
  <speed>0.0</speed>
  <fix>3d</fix>
</trkpt>
<trkpt lat="40.0728156" lon="-105.2307333">
  <ele>1595.57</ele>
  <time>2026-08-27T18:29:19Z</time>
  <course>332.77</course>
  <speed>0.02</speed>
  <fix>3d</fix>
</trkpt>
<trkpt lat="40.0728154" lon="-105.2307332">
  <ele>1595.69</ele>
  <time>2026-08-27T18:29:19Z</time>
  <course>35.37</course>
  <speed>0.0</speed>
  <fix>3d</fix>
</trkpt>
<trkpt lat="40.0728156" lon="-105.2307333">
  <ele>1595.56</ele>
  <time>2026-08-27T18:29:19Z</time>
  <course>336.47</course>
  <speed>0.02</speed>
  <fix>3d</fix>
</trkpt>
<trkpt lat="40.0728154" lon="-105.2307332">
  <ele>1595.68</ele>
  <time>2026-08-27T18:29:19Z</time>
  <course>35.37</course>
  <speed>0.0</speed>
  <fix>3d</fix>
</trkpt>
<trkpt lat="40.0728156" lon="-105.2307333">
  <ele>1595.56</ele>
  <time>2026-08-27T18:29:19Z</time>
  <course>341.63</course>
  <speed>0.02</speed>
  <fix>3d</fix>
</trkpt>
<trkpt lat="40.0728155" lon="-105.2307332">
  <ele>1595.68</ele>
  <time>2026-08-27T18:29:19Z</time>
  <course>35.38</course>
  <speed>0.0</speed>
  <fix>3d</fix>
</trkpt>
<trkpt lat="40.0728157" lon="-105.2307333">
  <ele>1595.56</ele>
  <time>2026-08-27T18:29:19Z</time>
  <course>340.38</course>
  <speed>0.02</speed>
  <fix>3d</fix>
</trkpt>
<trkpt lat="40.0728155" lon="-105.2307333">
  <ele>1595.67</ele>
  <time>2026-08-27T18:29:19Z</time>
  <course>35.37</course>
  <speed>0.0</speed>
  <fix>3d</fix>
</trkpt>
<trkpt lat="40.0728157" lon="-105.2307334">
  <ele>1595.56</ele>
  <time>2026-08-27T18:29:19Z</time>
  <course>334.52</course>
  <speed>0.03</speed>
  <fix>3d</fix>
</trkpt>
<trkpt lat="40.0728156" lon="-105.2307333">
  <ele>1595.67</ele>
  <time>2026-08-27T18:29:19Z</time>
  <course>35.36</course>
  <speed>0.01414213562373095</speed>
  <fix>3d</fix>
</trkpt>
<trkpt lat="40.0728158" lon="-105.2307335">
  <ele>1595.56</ele>
  <time>2026-08-27T18:29:19Z</time>
  <course>329.72</course>
  <speed>0.03</speed>
  <fix>3d</fix>
</trkpt>
<trkpt lat="40.0728157" lon="-105.2307334">
  <ele>1595.66</ele>
  <time>2026-08-27T18:29:19Z</time>
  <course>35.35</course>
  <speed>0.01414213562373095</speed>
  <fix>3d</fix>
</trkpt>
<trkpt lat="40.0728158" lon="-105.2307335">
  <ele>1595.56</ele>
  <time>2026-08-27T18:29:19Z</time>
  <course>326.25</course>
  <speed>0.04</speed>
  <fix>3d</fix>
</trkpt>
<trkpt lat="40.0728157" lon="-105.2307334">
  <ele>1595.66</ele>
  <time>2026-08-27T18:29:19Z</time>
  <course>35.31</course>
  <speed>0.022360679774997897</speed>
  <fix>3d</fix>
</trkpt>
<trkpt lat="40.0728159" lon="-105.2307335">
  <ele>1595.56</ele>
  <time>2026-08-27T18:29:19Z</time>
  <course>323.41</course>
  <speed>0.04</speed>
  <fix>3d</fix>
</trkpt>
<trkpt lat="40.0728158" lon="-105.2307335">
  <ele>1595.66</ele>
  <time>2026-08-27T18:29:19Z</time>
  <course>35.28</course>
  <speed>0.022360679774997897</speed>
  <fix>3d</fix>
</trkpt>
<trkpt lat="40.0728159" lon="-105.2307336">
  <ele>1595.56</ele>
  <time>2026-08-27T18:29:19Z</time>
  <course>320.94</course>
  <speed>0.04</speed>
  <fix>3d</fix>
</trkpt>
<trkpt lat="40.0728158" lon="-105.2307336">
  <ele>1595.67</ele>
  <time>2026-08-27T18:29:19Z</time>
  <course>35.28</course>
  <speed>0.022360679774997897</speed>
  <fix>3d</fix>
</trkpt>
<trkpt lat="40.072816" lon="-105.2307337">
  <ele>1595.56</ele>
  <time>2026-08-27T18:29:19Z</time>
  <course>318.85</course>
  <speed>0.04</speed>
  <fix>3d</fix>
</trkpt>
<trkpt lat="40.0728159" lon="-105.2307337">
  <ele>1595.67</ele>
  <time>2026-08-27T18:29:19Z</time>
  <course>35.35</course>
  <speed>0.022360679774997897</speed>
  <fix>3d</fix>
</trkpt>
<trkpt lat="40.0728161" lon="-105.2307338">
  <ele>1595.56</ele>
  <time>2026-08-27T18:29:19Z</time>
  <course>317.05</course>
  <speed>0.05</speed>
  <fix>3d</fix>
</trkpt>
<trkpt lat="40.072816" lon="-105.2307338">
  <ele>1595.67</ele>
  <time>2026-08-27T18:29:19Z</time>
  <course>35.37</course>
  <speed>0.0316227766016838</speed>
  <fix>3d</fix>
</trkpt>
<trkpt lat="40.0728162" lon="-105.2307338">
  <ele>1595.57</ele>
  <time>2026-08-27T18:29:19Z</time>
  <course>315.31</course>
  <speed>0.05</speed>
  <fix>3d</fix>
</trkpt>
<trkpt lat="40.0728161" lon="-105.2307339">
  <ele>1595.67</ele>
  <time>2026-08-27T18:29:19Z</time>
  <course>35.37</course>
  <speed>0.0316227766016838</speed>
  <fix>3d</fix>
</trkpt>
<trkpt lat="40.0728162" lon="-105.2307339">
  <ele>1595.57</ele>
  <time>2026-08-27T18:29:19Z</time>
  <course>313.67</course>
  <speed>0.05</speed>
  <fix>3d</fix>
</trkpt>
<trkpt lat="40.0728161" lon="-105.230734">
  <ele>1595.67</ele>
  <time>2026-08-27T18:29:19Z</time>
  <course>35.37</course>
  <speed>0.0316227766016838</speed>
  <fix>3d</fix>
</trkpt>
<trkpt lat="40.0728163" lon="-105.230734">
  <ele>1595.57</ele>
  <time>2026-08-27T18:29:19Z</time>
  <course>312.58</course>
  <speed>0.05</speed>
  <fix>3d</fix>
</trkpt>
<trkpt lat="40.0728162" lon="-105.2307341">
  <ele>1595.67</ele>
  <time>2026-08-27T18:29:19Z</time>
  <course>35.37</course>
  <speed>0.0316227766016838</speed>
  <fix>3d</fix>
</trkpt>
<trkpt lat="40.0728164" lon="-105.2307342">
  <ele>1595.58</ele>
  <time>2026-08-27T18:29:19Z</time>
  <course>311.85</course>
  <speed>0.06</speed>
  <fix>3d</fix>
</trkpt>
<trkpt lat="40.0728163" lon="-105.2307342">
  <ele>1595.67</ele>
  <time>2026-08-27T18:29:19Z</time>
  <course>35.36</course>
  <speed>0.03605551275463989</speed>
  <fix>3d</fix>
</trkpt>
<trkpt lat="40.0728164" lon="-105.2307343">
  <ele>1595.58</ele>
  <time>2026-08-27T18:29:19Z</time>
  <course>311.12</course>
  <speed>0.06</speed>
  <fix>3d</fix>
</trkpt>
<trkpt lat="40.0728164" lon="-105.2307343">
  <ele>1595.67</ele>
  <time>2026-08-27T18:29:19Z</time>
  <course>35.36</course>
  <speed>0.044721359549995794</speed>
  <fix>3d</fix>
</trkpt>
<trkpt lat="40.0728165" lon="-105.2307344">
  <ele>1595.58</ele>
  <time>2026-08-27T18:29:19Z</time>
  <course>310.65</course>
  <speed>0.06</speed>
  <fix>3d</fix>
</trkpt>
<trkpt lat="40.0728164" lon="-105.2307344">
  <ele>1595.67</ele>
  <time>2026-08-27T18:29:19Z</time>
  <course>35.39</course>
  <speed>0.044721359549995794</speed>
  <fix>3d</fix>
</trkpt>
<trkpt lat="40.0728166" lon="-105.2307345">
  <ele>1595.58</ele>
  <time>2026-08-27T18:29:19Z</time>
  <course>311.12</course>
  <speed>0.07</speed>
  <fix>3d</fix>
</trkpt>
<trkpt lat="40.0728165" lon="-105.2307346">
  <ele>1595.67</ele>
  <time>2026-08-27T18:29:19Z</time>
  <course>35.37</course>
  <speed>0.044721359549995794</speed>
  <fix>3d</fix>
</trkpt>
<trkpt lat="40.0728167" lon="-105.2307346">
  <ele>1595.59</ele>
  <time>2026-08-27T18:29:19Z</time>
  <course>310.82</course>
  <speed>0.07</speed>
  <fix>3d</fix>
</trkpt>
<trkpt lat="40.0728166" lon="-105.2307347">
  <ele>1595.67</ele>
  <time>2026-08-27T18:29:19Z</time>
  <course>35.37</course>
  <speed>0.0316227766016838</speed>
  <fix>3d</fix>
</trkpt>
<trkpt lat="40.0728168" lon="-105.2307347">
  <ele>1595.59</ele>
  <time>2026-08-27T18:29:19Z</time>
  <course>309.79</course>
  <speed>0.06</speed>
  <fix>3d</fix>
</trkpt>
<trkpt lat="40.0728167" lon="-105.2307348">
  <ele>1595.68</ele>
  <time>2026-08-27T18:29:19Z</time>
  <course>35.38</course>
  <speed>0.0316227766016838</speed>
  <fix>3d</fix>
</trkpt>
<trkpt lat="40.0728169" lon="-105.2307349">
  <ele>1595.59</ele>
  <time>2026-08-27T18:29:19Z</time>
  <course>310.15</course>
  <speed>0.05</speed>
  <fix>3d</fix>
</trkpt>
<trkpt lat="40.0728167" lon="-105.2307349">
  <ele>1595.68</ele>
  <time>2026-08-27T18:29:19Z</time>
  <course>35.39</course>
  <speed>0.022360679774997897</speed>
  <fix>3d</fix>
</trkpt>
<trkpt lat="40.0728169" lon="-105.230735">
  <ele>1595.6</ele>
  <time>2026-08-27T18:29:19Z</time>
  <course>312.3</course>
  <speed>0.05</speed>
  <fix>3d</fix>
</trkpt>
<trkpt lat="40.0728168" lon="-105.2307349">
  <ele>1595.68</ele>
  <time>2026-08-27T18:29:19Z</time>
  <course>35.39</course>
  <speed>0.022360679774997897</speed>
  <fix>3d</fix>
</trkpt>
<trkpt lat="40.072817" lon="-105.2307351">
  <ele>1595.6</ele>
  <time>2026-08-27T18:29:19Z</time>
  <course>315.94</course>
  <speed>0.04</speed>
  <fix>3d</fix>
</trkpt>
<trkpt lat="40.0728169" lon="-105.230735">
  <ele>1595.68</ele>
  <time>2026-08-27T18:29:19Z</time>
  <course>35.39</course>
  <speed>0.01414213562373095</speed>
  <fix>3d</fix>
</trkpt>
<trkpt lat="40.072817" lon="-105.2307352">
  <ele>1595.6</ele>
  <time>2026-08-27T18:29:19Z</time>
  <course>319.84</course>
  <speed>0.04</speed>
  <fix>3d</fix>
</trkpt>
<trkpt lat="40.0728169" lon="-105.2307351">
  <ele>1595.68</ele>
  <time>2026-08-27T18:29:19Z</time>
  <course>35.38</course>
  <speed>0.01414213562373095</speed>
  <fix>3d</fix>
</trkpt>
<trkpt lat="40.0728171" lon="-105.2307352">
  <ele>1595.6</ele>
  <time>2026-08-27T18:29:19Z</time>
  <course>323.1</course>
  <speed>0.04</speed>
  <fix>3d</fix>
</trkpt>
<trkpt lat="40.072817" lon="-105.2307351">
  <ele>1595.68</ele>
  <time>2026-08-27T18:29:19Z</time>
  <course>35.38</course>
  <speed>0.01414213562373095</speed>
  <fix>3d</fix>
</trkpt>
<trkpt lat="40.0728171" lon="-105.2307352">
  <ele>1595.6</ele>
  <time>2026-08-27T18:29:19Z</time>
  <course>325.39</course>
  <speed>0.03</speed>
  <fix>3d</fix>
</trkpt>
<trkpt lat="40.072817" lon="-105.2307352">
  <ele>1595.69</ele>
  <time>2026-08-27T18:29:19Z</time>
  <course>35.37</course>
  <speed>0.01414213562373095</speed>
  <fix>3d</fix>
</trkpt>
<trkpt lat="40.0728172" lon="-105.2307353">
  <ele>1595.6</ele>
  <time>2026-08-27T18:29:19Z</time>
  <course>326.73</course>
  <speed>0.03</speed>
  <fix>3d</fix>
</trkpt>
<trkpt lat="40.0728171" lon="-105.2307352">
  <ele>1595.69</ele>
  <time>2026-08-27T18:29:19Z</time>
  <course>35.38</course>
  <speed>0.01414213562373095</speed>
  <fix>3d</fix>
</trkpt>
<trkpt lat="40.0728173" lon="-105.2307354">
  <ele>1595.6</ele>
  <time>2026-08-27T18:29:19Z</time>
  <course>327.32</course>
  <speed>0.04</speed>
  <fix>3d</fix>
</trkpt>
<trkpt lat="40.0728171" lon="-105.2307353">
  <ele>1595.69</ele>
  <time>2026-08-27T18:29:19Z</time>
  <course>35.38</course>
  <speed>0.01414213562373095</speed>
  <fix>3d</fix>
</trkpt>
<trkpt lat="40.0728174" lon="-105.2307354">
  <ele>1595.6</ele>
  <time>2026-08-27T18:29:19Z</time>
  <course>327.37</course>
  <speed>0.04</speed>
  <fix>3d</fix>
</trkpt>
<trkpt lat="40.0728172" lon="-105.2307353">
  <ele>1595.69</ele>
  <time>2026-08-27T18:29:19Z</time>
  <course>35.38</course>
  <speed>0.01414213562373095</speed>
  <fix>3d</fix>
</trkpt>
<trkpt lat="40.0728174" lon="-105.2307355">
  <ele>1595.6</ele>
  <time>2026-08-27T18:29:19Z</time>
  <course>327.29</course>
  <speed>0.04</speed>
  <fix>3d</fix>
</trkpt>
<trkpt lat="40.0728173" lon="-105.2307354">
  <ele>1595.68</ele>
  <time>2026-08-27T18:29:19Z</time>
  <course>35.39</course>
  <speed>0.0</speed>
  <fix>3d</fix>
</trkpt>
<trkpt lat="40.0728175" lon="-105.2307355">
  <ele>1595.6</ele>
  <time>2026-08-27T18:29:19Z</time>
  <course>330.82</course>
  <speed>0.03</speed>
  <fix>3d</fix>
</trkpt>
<trkpt lat="40.0728173" lon="-105.2307354">
  <ele>1595.68</ele>
  <time>2026-08-27T18:29:19Z</time>
  <course>35.38</course>
  <speed>0.0</speed>
  <fix>3d</fix>
</trkpt>
<trkpt lat="40.0728175" lon="-105.2307355">
  <ele>1595.6</ele>
  <time>2026-08-27T18:29:19Z</time>
  <course>336.49</course>
  <speed>0.02</speed>
  <fix>3d</fix>
</trkpt>
<trkpt lat="40.0728174" lon="-105.2307354">
  <ele>1595.69</ele>
  <time>2026-08-27T18:29:19Z</time>
  <course>35.38</course>
  <speed>0.0</speed>
  <fix>3d</fix>
</trkpt>
<trkpt lat="40.0728176" lon="-105.2307355">
  <ele>1595.6</ele>
  <time>2026-08-27T18:29:19Z</time>
  <course>336.85</course>
  <speed>0.02</speed>
  <fix>3d</fix>
</trkpt>
<trkpt lat="40.0728174" lon="-105.2307355">
  <ele>1595.69</ele>
  <time>2026-08-27T18:29:19Z</time>
  <course>35.38</course>
  <speed>0.0</speed>
  <fix>3d</fix>
</trkpt>
<trkpt lat="40.0728176" lon="-105.2307356">
  <ele>1595.6</ele>
  <time>2026-08-27T18:29:19Z</time>
  <course>334.78</course>
  <speed>0.03</speed>
  <fix>3d</fix>
</trkpt>
<trkpt lat="40.0728175" lon="-105.2307355">
  <ele>1595.69</ele>
  <time>2026-08-27T18:29:19Z</time>
  <course>35.37</course>
  <speed>0.01414213562373095</speed>
  <fix>3d</fix>
</trkpt>
<trkpt lat="40.0728177" lon="-105.2307357">
  <ele>1595.6</ele>
  <time>2026-08-27T18:29:19Z</time>
  <course>330.42</course>
  <speed>0.03</speed>
  <fix>3d</fix>
</trkpt>
<trkpt lat="40.0728176" lon="-105.2307356">
  <ele>1595.69</ele>
  <time>2026-08-27T18:29:19Z</time>
  <course>35.37</course>
  <speed>0.01414213562373095</speed>
  <fix>3d</fix>
</trkpt>
<trkpt lat="40.0728177" lon="-105.2307357">
  <ele>1595.6</ele>
  <time>2026-08-27T18:29:19Z</time>
  <course>326.55</course>
  <speed>0.04</speed>
  <fix>3d</fix>
</trkpt>
<trkpt lat="40.0728176" lon="-105.2307356">
  <ele>1595.69</ele>
  <time>2026-08-27T18:29:19Z</time>
  <course>35.39</course>
  <speed>0.022360679774997897</speed>
  <fix>3d</fix>
</trkpt>
<trkpt lat="40.0728178" lon="-105.2307357">
  <ele>1595.6</ele>
  <time>2026-08-27T18:29:19Z</time>
  <course>323.41</course>
  <speed>0.04</speed>
  <fix>3d</fix>
</trkpt>
<trkpt lat="40.0728177" lon="-105.2307357">
  <ele>1595.68</ele>
  <time>2026-08-27T18:29:19Z</time>
  <course>35.38</course>
  <speed>0.022360679774997897</speed>
  <fix>3d</fix>
</trkpt>
<trkpt lat="40.0728178" lon="-105.2307358">
  <ele>1595.59</ele>
  <time>2026-08-27T18:29:19Z</time>
  <course>320.96</course>
  <speed>0.04</speed>
  <fix>3d</fix>
</trkpt>
<trkpt lat="40.0728178" lon="-105.2307358">
  <ele>1595.67</ele>
  <time>2026-08-27T18:29:19Z</time>
  <course>35.37</course>
  <speed>0.022360679774997897</speed>
  <fix>3d</fix>
</trkpt>
<trkpt lat="40.0728179" lon="-105.2307359">
  <ele>1595.59</ele>
  <time>2026-08-27T18:29:19Z</time>
  <course>319.13</course>
  <speed>0.05</speed>
  <fix>3d</fix>
</trkpt>
<trkpt lat="40.0728178" lon="-105.2307359">
  <ele>1595.67</ele>
  <time>2026-08-27T18:29:19Z</time>
  <course>35.37</course>
  <speed>0.03605551275463989</speed>
  <fix>3d</fix>
</trkpt>
<trkpt lat="40.072818" lon="-105.230736">
  <ele>1595.59</ele>
  <time>2026-08-27T18:29:19Z</time>
  <course>317.59</course>
  <speed>0.05</speed>
  <fix>3d</fix>
</trkpt>
<trkpt lat="40.0728179" lon="-105.230736">
  <ele>1595.67</ele>
  <time>2026-08-27T18:29:19Z</time>
  <course>35.35</course>
  <speed>0.03605551275463989</speed>
  <fix>3d</fix>
</trkpt>
<trkpt lat="40.0728181" lon="-105.2307361">
  <ele>1595.59</ele>
  <time>2026-08-27T18:29:19Z</time>
  <course>316.21</course>
  <speed>0.05</speed>
  <fix>3d</fix>
</trkpt>
<trkpt lat="40.072818" lon="-105.2307361">
  <ele>1595.67</ele>
  <time>2026-08-27T18:29:19Z</time>
  <course>35.35</course>
  <speed>0.03605551275463989</speed>
  <fix>3d</fix>
</trkpt>
<trkpt lat="40.0728181" lon="-105.2307362">
  <ele>1595.59</ele>
  <time>2026-08-27T18:29:19Z</time>
  <course>315.19</course>
  <speed>0.05</speed>
  <fix>3d</fix>
</trkpt>
<trkpt lat="40.0728181" lon="-105.2307362">
  <ele>1595.67</ele>
  <time>2026-08-27T18:29:19Z</time>
  <course>35.36</course>
  <speed>0.03605551275463989</speed>
  <fix>3d</fix>
</trkpt>
<trkpt lat="40.0728182" lon="-105.2307363">
  <ele>1595.6</ele>
  <time>2026-08-27T18:29:19Z</time>
  <course>314.45</course>
  <speed>0.05</speed>
  <fix>3d</fix>
</trkpt>
<trkpt lat="40.0728181" lon="-105.2307363">
  <ele>1595.68</ele>
  <time>2026-08-27T18:29:19Z</time>
  <course>35.36</course>
  <speed>0.03605551275463989</speed>
  <fix>3d</fix>
</trkpt>
<trkpt lat="40.0728183" lon="-105.2307364">
  <ele>1595.6</ele>
  <time>2026-08-27T18:29:19Z</time>
  <course>313.75</course>
  <speed>0.06</speed>
  <fix>3d</fix>
</trkpt>
<trkpt lat="40.0728182" lon="-105.2307364">
  <ele>1595.68</ele>
  <time>2026-08-27T18:29:19Z</time>
  <course>35.37</course>
  <speed>0.03605551275463989</speed>
  <fix>3d</fix>
</trkpt>
<trkpt lat="40.0728183" lon="-105.2307365">
  <ele>1595.6</ele>
  <time>2026-08-27T18:29:19Z</time>
  <course>313.12</course>
  <speed>0.06</speed>
  <fix>3d</fix>
</trkpt>
<trkpt lat="40.0728183" lon="-105.2307365">
  <ele>1595.68</ele>
  <time>2026-08-27T18:29:19Z</time>
  <course>35.37</course>
  <speed>0.03605551275463989</speed>
  <fix>3d</fix>
</trkpt>
<trkpt lat="40.0728184" lon="-105.2307366">
  <ele>1595.6</ele>
  <time>2026-08-27T18:29:19Z</time>
  <course>312.55</course>
  <speed>0.06</speed>
  <fix>3d</fix>
</trkpt>
<trkpt lat="40.0728184" lon="-105.2307366">
  <ele>1595.68</ele>
  <time>2026-08-27T18:29:19Z</time>
  <course>35.37</course>
  <speed>0.05830951894845301</speed>
  <fix>3d</fix>
</trkpt>
<trkpt lat="40.0728185" lon="-105.2307367">
  <ele>1595.61</ele>
  <time>2026-08-27T18:29:19Z</time>
  <course>311.92</course>
  <speed>0.06</speed>
  <fix>3d</fix>
</trkpt>
<trkpt lat="40.0728184" lon="-105.2307368">
  <ele>1595.68</ele>
  <time>2026-08-27T18:29:19Z</time>
  <course>35.41</course>
  <speed>0.05830951894845301</speed>
  <fix>3d</fix>
</trkpt>
<trkpt lat="40.0728186" lon="-105.2307368">
  <ele>1595.61</ele>
  <time>2026-08-27T18:29:19Z</time>
  <course>312.24</course>
  <speed>0.07</speed>
  <fix>3d</fix>
</trkpt>
<trkpt lat="40.0728185" lon="-105.2307369">
  <ele>1595.68</ele>
  <time>2026-08-27T18:29:19Z</time>
  <course>35.39</course>
  <speed>0.044721359549995794</speed>
  <fix>3d</fix>
</trkpt>
<trkpt lat="40.0728187" lon="-105.2307369">
  <ele>1595.61</ele>
  <time>2026-08-27T18:29:19Z</time>
  <course>311.7</course>
  <speed>0.07</speed>
  <fix>3d</fix>
</trkpt>
<trkpt lat="40.0728186" lon="-105.230737">
  <ele>1595.68</ele>
  <time>2026-08-27T18:29:19Z</time>
  <course>35.38</course>
  <speed>0.0412310562561766</speed>
  <fix>3d</fix>
</trkpt>
<trkpt lat="40.0728188" lon="-105.2307371">
  <ele>1595.61</ele>
  <time>2026-08-27T18:29:19Z</time>
  <course>310.45</course>
  <speed>0.06</speed>
  <fix>3d</fix>
</trkpt>
<trkpt lat="40.0728187" lon="-105.2307371">
  <ele>1595.68</ele>
  <time>2026-08-27T18:29:19Z</time>
  <course>35.37</course>
  <speed>0.0316227766016838</speed>
  <fix>3d</fix>
</trkpt>
<trkpt lat="40.0728188" lon="-105.2307372">
  <ele>1595.61</ele>
  <time>2026-08-27T18:29:19Z</time>
  <course>311.4</course>
  <speed>0.05</speed>
  <fix>3d</fix>
</trkpt>
<trkpt lat="40.0728187" lon="-105.2307372">
  <ele>1595.68</ele>
  <time>2026-08-27T18:29:19Z</time>
  <course>35.37</course>
  <speed>0.022360679774997897</speed>
  <fix>3d</fix>
</trkpt>
<trkpt lat="40.0728189" lon="-105.2307373">
  <ele>1595.61</ele>
  <time>2026-08-27T18:29:19Z</time>
  <course>314.26</course>
  <speed>0.04</speed>
  <fix>3d</fix>
</trkpt>
<trkpt lat="40.0728188" lon="-105.2307373">
  <ele>1595.68</ele>
  <time>2026-08-27T18:29:19Z</time>
  <course>35.37</course>
  <speed>0.022360679774997897</speed>
  <fix>3d</fix>
</trkpt>
<trkpt lat="40.0728189" lon="-105.2307374">
  <ele>1595.61</ele>
  <time>2026-08-27T18:29:19Z</time>
  <course>318.22</course>
  <speed>0.04</speed>
  <fix>3d</fix>
</trkpt>
<trkpt lat="40.0728188" lon="-105.2307373">
  <ele>1595.69</ele>
  <time>2026-08-27T18:29:19Z</time>
  <course>35.37</course>
  <speed>0.01414213562373095</speed>
  <fix>3d</fix>
</trkpt>
<trkpt lat="40.072819" lon="-105.2307374">
  <ele>1595.61</ele>
  <time>2026-08-27T18:29:19Z</time>
  <course>322.15</course>
  <speed>0.04</speed>
  <fix>3d</fix>
</trkpt>
<trkpt lat="40.0728189" lon="-105.2307374">
  <ele>1595.69</ele>
  <time>2026-08-27T18:29:19Z</time>
  <course>35.38</course>
  <speed>0.01414213562373095</speed>
  <fix>3d</fix>
</trkpt>
<trkpt lat="40.0728191" lon="-105.2307374">
  <ele>1595.61</ele>
  <time>2026-08-27T18:29:19Z</time>
  <course>325.0</course>
  <speed>0.04</speed>
  <fix>3d</fix>
</trkpt>
<trkpt lat="40.072819" lon="-105.2307374">
  <ele>1595.69</ele>
  <time>2026-08-27T18:29:19Z</time>
  <course>35.38</course>
  <speed>0.01414213562373095</speed>
  <fix>3d</fix>
</trkpt>
<trkpt lat="40.0728192" lon="-105.2307375">
  <ele>1595.61</ele>
  <time>2026-08-27T18:29:19Z</time>
  <course>326.58</course>
  <speed>0.03</speed>
  <fix>3d</fix>
</trkpt>
<trkpt lat="40.072819" lon="-105.2307375">
  <ele>1595.69</ele>
  <time>2026-08-27T18:29:19Z</time>
  <course>35.39</course>
  <speed>0.01414213562373095</speed>
  <fix>3d</fix>
</trkpt>
<trkpt lat="40.0728192" lon="-105.2307376">
  <ele>1595.61</ele>
  <time>2026-08-27T18:29:19Z</time>
  <course>327.33</course>
  <speed>0.03</speed>
  <fix>3d</fix>
</trkpt>
<trkpt lat="40.0728191" lon="-105.2307375">
  <ele>1595.68</ele>
  <time>2026-08-27T18:29:19Z</time>
  <course>35.38</course>
  <speed>0.01414213562373095</speed>
  <fix>3d</fix>
</trkpt>
<trkpt lat="40.0728193" lon="-105.2307376">
  <ele>1595.61</ele>
  <time>2026-08-27T18:29:19Z</time>
  <course>327.67</course>
  <speed>0.03</speed>
  <fix>3d</fix>
</trkpt>
<trkpt lat="40.0728191" lon="-105.2307376">
  <ele>1595.68</ele>
  <time>2026-08-27T18:29:19Z</time>
  <course>35.37</course>
  <speed>0.01414213562373095</speed>
  <fix>3d</fix>
</trkpt>
<trkpt lat="40.0728193" lon="-105.2307376">
  <ele>1595.61</ele>
  <time>2026-08-27T18:29:19Z</time>
  <course>327.8</course>
  <speed>0.03</speed>
  <fix>3d</fix>
</trkpt>
<trkpt lat="40.0728192" lon="-105.2307376">
  <ele>1595.68</ele>
  <time>2026-08-27T18:29:19Z</time>
  <course>35.37</course>
  <speed>0.01414213562373095</speed>
  <fix>3d</fix>
</trkpt>
<trkpt lat="40.0728194" lon="-105.2307377">
  <ele>1595.61</ele>
  <time>2026-08-27T18:29:19Z</time>
  <course>327.79</course>
  <speed>0.03</speed>
  <fix>3d</fix>
</trkpt>
<trkpt lat="40.0728193" lon="-105.2307376">
  <ele>1595.68</ele>
  <time>2026-08-27T18:29:19Z</time>
  <course>35.39</course>
  <speed>0.0</speed>
  <fix>3d</fix>
</trkpt>
<trkpt lat="40.0728195" lon="-105.2307378">
  <ele>1595.61</ele>
  <time>2026-08-27T18:29:19Z</time>
  <course>331.29</course>
  <speed>0.03</speed>
  <fix>3d</fix>
</trkpt>
<trkpt lat="40.0728193" lon="-105.2307377">
  <ele>1595.67</ele>
  <time>2026-08-27T18:29:19Z</time>
  <course>35.37</course>
  <speed>0.0</speed>
  <fix>3d</fix>
</trkpt>
<trkpt lat="40.0728195" lon="-105.2307378">
  <ele>1595.61</ele>
  <time>2026-08-27T18:29:19Z</time>
  <course>336.3</course>
  <speed>0.02</speed>
  <fix>3d</fix>
</trkpt>
<trkpt lat="40.0728194" lon="-105.2307377">
  <ele>1595.67</ele>
  <time>2026-08-27T18:29:19Z</time>
  <course>35.35</course>
  <speed>0.0</speed>
  <fix>3d</fix>
</trkpt>
<trkpt lat="40.0728195" lon="-105.2307379">
  <ele>1595.61</ele>
  <time>2026-08-27T18:29:19Z</time>
  <course>336.18</course>
  <speed>0.02</speed>
  <fix>3d</fix>
</trkpt>
<trkpt lat="40.0728194" lon="-105.2307377">
  <ele>1595.67</ele>
  <time>2026-08-27T18:29:19Z</time>
  <course>35.34</course>
  <speed>0.0</speed>
  <fix>3d</fix>
</trkpt>
<trkpt lat="40.0728195" lon="-105.2307379">
  <ele>1595.61</ele>
  <time>2026-08-27T18:29:19Z</time>
  <course>334.25</course>
  <speed>0.03</speed>
  <fix>3d</fix>
</trkpt>
<trkpt lat="40.0728195" lon="-105.2307378">
  <ele>1595.67</ele>
  <time>2026-08-27T18:29:19Z</time>
  <course>35.35</course>
  <speed>0.01414213562373095</speed>
  <fix>3d</fix>
</trkpt>
<trkpt lat="40.0728196" lon="-105.2307379">
  <ele>1595.61</ele>
  <time>2026-08-27T18:29:19Z</time>
  <course>329.78</course>
  <speed>0.03</speed>
  <fix>3d</fix>
</trkpt>
<trkpt lat="40.0728195" lon="-105.2307378">
  <ele>1595.68</ele>
  <time>2026-08-27T18:29:19Z</time>
  <course>35.36</course>
  <speed>0.01414213562373095</speed>
  <fix>3d</fix>
</trkpt>
<trkpt lat="40.0728197" lon="-105.230738">
  <ele>1595.61</ele>
  <time>2026-08-27T18:29:19Z</time>
  <course>325.54</course>
  <speed>0.04</speed>
  <fix>3d</fix>
</trkpt>
<trkpt lat="40.0728196" lon="-105.2307379">
  <ele>1595.69</ele>
  <time>2026-08-27T18:29:19Z</time>
  <course>35.37</course>
  <speed>0.022360679774997897</speed>
  <fix>3d</fix>
</trkpt>
<trkpt lat="40.0728198" lon="-105.230738">
  <ele>1595.61</ele>
  <time>2026-08-27T18:29:19Z</time>
  <course>322.0</course>
  <speed>0.04</speed>
  <fix>3d</fix>
</trkpt>
<trkpt lat="40.0728197" lon="-105.230738">
  <ele>1595.69</ele>
  <time>2026-08-27T18:29:19Z</time>
  <course>35.38</course>
  <speed>0.022360679774997897</speed>
  <fix>3d</fix>
</trkpt>
<trkpt lat="40.0728198" lon="-105.2307381">
  <ele>1595.62</ele>
  <time>2026-08-27T18:29:19Z</time>
  <course>318.9</course>
  <speed>0.04</speed>
  <fix>3d</fix>
</trkpt>
<trkpt lat="40.0728197" lon="-105.2307381">
  <ele>1595.7</ele>
  <time>2026-08-27T18:29:19Z</time>
  <course>35.38</course>
  <speed>0.0316227766016838</speed>
  <fix>3d</fix>
</trkpt>
<trkpt lat="40.0728199" lon="-105.2307381">
  <ele>1595.62</ele>
  <time>2026-08-27T18:29:19Z</time>
  <course>316.6</course>
  <speed>0.05</speed>
  <fix>3d</fix>
</trkpt>
<trkpt lat="40.0728198" lon="-105.2307382">
  <ele>1595.7</ele>
  <time>2026-08-27T18:29:19Z</time>
  <course>35.4</course>
  <speed>0.0316227766016838</speed>
  <fix>3d</fix>
</trkpt>
<trkpt lat="40.07282" lon="-105.2307382">
  <ele>1595.62</ele>
  <time>2026-08-27T18:29:19Z</time>
  <course>315.51</course>
  <speed>0.05</speed>
  <fix>3d</fix>
</trkpt>
<trkpt lat="40.0728199" lon="-105.2307383">
  <ele>1595.71</ele>
  <time>2026-08-27T18:29:19Z</time>
  <course>35.41</course>
  <speed>0.03605551275463989</speed>
  <fix>3d</fix>
</trkpt>
<trkpt lat="40.07282" lon="-105.2307383">
  <ele>1595.61</ele>
  <time>2026-08-27T18:29:19Z</time>
  <course>314.79</course>
  <speed>0.05</speed>
  <fix>3d</fix>
</trkpt>
<trkpt lat="40.0728199" lon="-105.2307384">
  <ele>1595.71</ele>
  <time>2026-08-27T18:29:19Z</time>
  <course>35.41</course>
  <speed>0.03605551275463989</speed>
  <fix>3d</fix>
</trkpt>
<trkpt lat="40.0728201" lon="-105.2307384">
  <ele>1595.61</ele>
  <time>2026-08-27T18:29:19Z</time>
  <course>313.9</course>
  <speed>0.05</speed>
  <fix>3d</fix>
</trkpt>
<trkpt lat="40.07282" lon="-105.2307385">
  <ele>1595.7</ele>
  <time>2026-08-27T18:29:19Z</time>
  <course>35.41</course>
  <speed>0.03605551275463989</speed>
  <fix>3d</fix>
</trkpt>
<trkpt lat="40.0728201" lon="-105.2307385">
  <ele>1595.6</ele>
  <time>2026-08-27T18:29:19Z</time>
  <course>313.43</course>
  <speed>0.05</speed>
  <fix>3d</fix>
</trkpt>
<trkpt lat="40.0728201" lon="-105.2307386">
  <ele>1595.7</ele>
  <time>2026-08-27T18:29:19Z</time>
  <course>35.4</course>
  <speed>0.03605551275463989</speed>
  <fix>3d</fix>
</trkpt>
<trkpt lat="40.0728202" lon="-105.2307386">
  <ele>1595.6</ele>
  <time>2026-08-27T18:29:19Z</time>
  <course>313.24</course>
  <speed>0.06</speed>
  <fix>3d</fix>
</trkpt>
<trkpt lat="40.0728202" lon="-105.2307387">
  <ele>1595.7</ele>
  <time>2026-08-27T18:29:19Z</time>
  <course>35.39</course>
  <speed>0.03605551275463989</speed>
  <fix>3d</fix>
</trkpt>
<trkpt lat="40.0728203" lon="-105.2307387">
  <ele>1595.59</ele>
  <time>2026-08-27T18:29:19Z</time>
  <course>312.76</course>
  <speed>0.06</speed>
  <fix>3d</fix>
</trkpt>
<trkpt lat="40.0728202" lon="-105.2307388">
  <ele>1595.69</ele>
  <time>2026-08-27T18:29:19Z</time>
  <course>35.39</course>
  <speed>0.0316227766016838</speed>
  <fix>3d</fix>
</trkpt>
<trkpt lat="40.0728204" lon="-105.2307388">
  <ele>1595.59</ele>
  <time>2026-08-27T18:29:19Z</time>
  <course>312.53</course>
  <speed>0.06</speed>
  <fix>3d</fix>
</trkpt>
<trkpt lat="40.0728203" lon="-105.2307389">
  <ele>1595.68</ele>
  <time>2026-08-27T18:29:19Z</time>
  <course>35.38</course>
  <speed>0.044721359549995794</speed>
  <fix>3d</fix>
</trkpt>
<trkpt lat="40.0728205" lon="-105.2307389">
  <ele>1595.58</ele>
  <time>2026-08-27T18:29:19Z</time>
  <course>312.25</course>
  <speed>0.06</speed>
  <fix>3d</fix>
</trkpt>
<trkpt lat="40.0728204" lon="-105.230739">
  <ele>1595.67</ele>
  <time>2026-08-27T18:29:19Z</time>
  <course>35.4</course>
  <speed>0.05</speed>
  <fix>3d</fix>
</trkpt>
<trkpt lat="40.0728205" lon="-105.230739">
  <ele>1595.58</ele>
  <time>2026-08-27T18:29:19Z</time>
  <course>312.5</course>
  <speed>0.06</speed>
  <fix>3d</fix>
</trkpt>
<trkpt lat="40.0728205" lon="-105.2307391">
  <ele>1595.67</ele>
  <time>2026-08-27T18:29:19Z</time>
  <course>35.38</course>
  <speed>0.044721359549995794</speed>
  <fix>3d</fix>
</trkpt>
<trkpt lat="40.0728206" lon="-105.2307392">
  <ele>1595.58</ele>
  <time>2026-08-27T18:29:19Z</time>
  <course>311.81</course>
  <speed>0.07</speed>
  <fix>3d</fix>
</trkpt>
<trkpt lat="40.0728206" lon="-105.2307392">
  <ele>1595.67</ele>
  <time>2026-08-27T18:29:19Z</time>
  <course>35.37</course>
  <speed>0.0316227766016838</speed>
  <fix>3d</fix>
</trkpt>
<trkpt lat="40.0728207" lon="-105.2307393">
  <ele>1595.58</ele>
  <time>2026-08-27T18:29:19Z</time>
  <course>310.37</course>
  <speed>0.06</speed>
  <fix>3d</fix>
</trkpt>
<trkpt lat="40.0728206" lon="-105.2307393">
  <ele>1595.68</ele>
  <time>2026-08-27T18:29:19Z</time>
  <course>35.37</course>
  <speed>0.0316227766016838</speed>
  <fix>3d</fix>
</trkpt>
<trkpt lat="40.0728208" lon="-105.2307394">
  <ele>1595.58</ele>
  <time>2026-08-27T18:29:19Z</time>
  <course>311.02</course>
  <speed>0.05</speed>
  <fix>3d</fix>
</trkpt>
<trkpt lat="40.0728207" lon="-105.2307394">
  <ele>1595.68</ele>
  <time>2026-08-27T18:29:19Z</time>
  <course>35.37</course>
  <speed>0.022360679774997897</speed>
  <fix>3d</fix>
</trkpt>
<trkpt lat="40.0728208" lon="-105.2307395">
  <ele>1595.58</ele>
  <time>2026-08-27T18:29:19Z</time>
  <course>313.48</course>
  <speed>0.05</speed>
  <fix>3d</fix>
</trkpt>
<trkpt lat="40.0728207" lon="-105.2307395">
  <ele>1595.68</ele>
  <time>2026-08-27T18:29:19Z</time>
  <course>35.37</course>
  <speed>0.022360679774997897</speed>
  <fix>3d</fix>
</trkpt>
<trkpt lat="40.0728209" lon="-105.2307396">
  <ele>1595.58</ele>
  <time>2026-08-27T18:29:19Z</time>
  <course>316.98</course>
  <speed>0.04</speed>
  <fix>3d</fix>
</trkpt>
<trkpt lat="40.0728208" lon="-105.2307395">
  <ele>1595.68</ele>
  <time>2026-08-27T18:29:19Z</time>
  <course>35.37</course>
  <speed>0.01414213562373095</speed>
  <fix>3d</fix>
</trkpt>
<trkpt lat="40.072821" lon="-105.2307397">
  <ele>1595.58</ele>
  <time>2026-08-27T18:29:19Z</time>
  <course>320.36</course>
  <speed>0.04</speed>
  <fix>3d</fix>
</trkpt>
<trkpt lat="40.0728209" lon="-105.2307396">
  <ele>1595.69</ele>
  <time>2026-08-27T18:29:19Z</time>
  <course>35.37</course>
  <speed>0.01414213562373095</speed>
  <fix>3d</fix>
</trkpt>
<trkpt lat="40.0728211" lon="-105.2307398">
  <ele>1595.58</ele>
  <time>2026-08-27T18:29:19Z</time>
  <course>322.87</course>
  <speed>0.04</speed>
  <fix>3d</fix>
</trkpt>
<trkpt lat="40.0728209" lon="-105.2307397">
  <ele>1595.69</ele>
  <time>2026-08-27T18:29:19Z</time>
  <course>35.37</course>
  <speed>0.01414213562373095</speed>
  <fix>3d</fix>
</trkpt>
<trkpt lat="40.0728211" lon="-105.2307398">
  <ele>1595.58</ele>
  <time>2026-08-27T18:29:19Z</time>
  <course>324.4</course>
  <speed>0.04</speed>
  <fix>3d</fix>
</trkpt>
<trkpt lat="40.072821" lon="-105.2307397">
  <ele>1595.68</ele>
  <time>2026-08-27T18:29:19Z</time>
  <course>35.37</course>
  <speed>0.01414213562373095</speed>
  <fix>3d</fix>
</trkpt>
<trkpt lat="40.0728212" lon="-105.2307398">
  <ele>1595.58</ele>
  <time>2026-08-27T18:29:19Z</time>
  <course>325.19</course>
  <speed>0.04</speed>
  <fix>3d</fix>
</trkpt>
<trkpt lat="40.0728211" lon="-105.2307398">
  <ele>1595.68</ele>
  <time>2026-08-27T18:29:19Z</time>
  <course>35.37</course>
  <speed>0.01414213562373095</speed>
  <fix>3d</fix>
</trkpt>
<trkpt lat="40.0728212" lon="-105.2307399">
  <ele>1595.58</ele>
  <time>2026-08-27T18:29:19Z</time>
  <course>325.57</course>
  <speed>0.04</speed>
  <fix>3d</fix>
</trkpt>
<trkpt lat="40.0728211" lon="-105.2307398">
  <ele>1595.68</ele>
  <time>2026-08-27T18:29:19Z</time>
  <course>35.36</course>
  <speed>0.01414213562373095</speed>
  <fix>3d</fix>
</trkpt>
<trkpt lat="40.0728213" lon="-105.23074">
  <ele>1595.58</ele>
  <time>2026-08-27T18:29:19Z</time>
  <course>325.73</course>
  <speed>0.04</speed>
  <fix>3d</fix>
</trkpt>
<trkpt lat="40.0728212" lon="-105.2307399">
  <ele>1595.68</ele>
  <time>2026-08-27T18:29:19Z</time>
  <course>35.36</course>
  <speed>0.01</speed>
  <fix>3d</fix>
</trkpt>
<trkpt lat="40.0728213" lon="-105.23074">
  <ele>1595.58</ele>
  <time>2026-08-27T18:29:19Z</time>
  <course>325.75</course>
  <speed>0.04</speed>
  <fix>3d</fix>
</trkpt>
<trkpt lat="40.0728212" lon="-105.2307399">
  <ele>1595.67</ele>
  <time>2026-08-27T18:29:19Z</time>
  <course>35.37</course>
  <speed>0.0</speed>
  <fix>3d</fix>
</trkpt>
<trkpt lat="40.0728214" lon="-105.23074">
  <ele>1595.58</ele>
  <time>2026-08-27T18:29:19Z</time>
  <course>329.03</course>
  <speed>0.03</speed>
  <fix>3d</fix>
</trkpt>
<trkpt lat="40.0728213" lon="-105.23074">
  <ele>1595.67</ele>
  <time>2026-08-27T18:29:19Z</time>
  <course>35.36</course>
  <speed>0.0</speed>
  <fix>3d</fix>
</trkpt>
<trkpt lat="40.0728214" lon="-105.23074">
  <ele>1595.58</ele>
  <time>2026-08-27T18:29:19Z</time>
  <course>335.41</course>
  <speed>0.02</speed>
  <fix>3d</fix>
</trkpt>
<trkpt lat="40.0728213" lon="-105.23074">
  <ele>1595.66</ele>
  <time>2026-08-27T18:29:19Z</time>
  <course>35.34</course>
  <speed>0.0</speed>
  <fix>3d</fix>
</trkpt>
<trkpt lat="40.0728214" lon="-105.2307401">
  <ele>1595.58</ele>
  <time>2026-08-27T18:29:19Z</time>
  <course>335.36</course>
  <speed>0.02</speed>
  <fix>3d</fix>
</trkpt>
<trkpt lat="40.0728214" lon="-105.23074">
  <ele>1595.66</ele>
  <time>2026-08-27T18:29:19Z</time>
  <course>35.34</course>
  <speed>0.01</speed>
  <fix>3d</fix>
</trkpt>
<trkpt lat="40.0728215" lon="-105.2307402">
  <ele>1595.58</ele>
  <time>2026-08-27T18:29:19Z</time>
  <course>332.64</course>
  <speed>0.03</speed>
  <fix>3d</fix>
</trkpt>
<trkpt lat="40.0728214" lon="-105.2307401">
  <ele>1595.66</ele>
  <time>2026-08-27T18:29:19Z</time>
  <course>35.35</course>
  <speed>0.01414213562373095</speed>
  <fix>3d</fix>
</trkpt>
<trkpt lat="40.0728216" lon="-105.2307402">
  <ele>1595.58</ele>
  <time>2026-08-27T18:29:19Z</time>
  <course>328.01</course>
  <speed>0.03</speed>
  <fix>3d</fix>
</trkpt>
<trkpt lat="40.0728215" lon="-105.2307401">
  <ele>1595.67</ele>
  <time>2026-08-27T18:29:19Z</time>
  <course>35.36</course>
  <speed>0.022360679774997897</speed>
  <fix>3d</fix>
</trkpt>
<trkpt lat="40.0728217" lon="-105.2307402">
  <ele>1595.58</ele>
  <time>2026-08-27T18:29:19Z</time>
  <course>323.9</course>
  <speed>0.04</speed>
  <fix>3d</fix>
</trkpt>
<trkpt lat="40.0728215" lon="-105.2307402">
  <ele>1595.67</ele>
  <time>2026-08-27T18:29:19Z</time>
  <course>35.36</course>
  <speed>0.022360679774997897</speed>
  <fix>3d</fix>
</trkpt>
<trkpt lat="40.0728217" lon="-105.2307403">
  <ele>1595.59</ele>
  <time>2026-08-27T18:29:19Z</time>
  <course>321.05</course>
  <speed>0.04</speed>
  <fix>3d</fix>
</trkpt>
<trkpt lat="40.0728216" lon="-105.2307403">
  <ele>1595.67</ele>
  <time>2026-08-27T18:29:19Z</time>
  <course>35.36</course>
  <speed>0.022360679774997897</speed>
  <fix>3d</fix>
</trkpt>
<trkpt lat="40.0728218" lon="-105.2307404">
  <ele>1595.59</ele>
  <time>2026-08-27T18:29:19Z</time>
  <course>318.58</course>
  <speed>0.04</speed>
  <fix>3d</fix>
</trkpt>
<trkpt lat="40.0728217" lon="-105.2307404">
  <ele>1595.67</ele>
  <time>2026-08-27T18:29:19Z</time>
  <course>35.35</course>
  <speed>0.0316227766016838</speed>
  <fix>3d</fix>
</trkpt>
<trkpt lat="40.0728218" lon="-105.2307405">
  <ele>1595.59</ele>
  <time>2026-08-27T18:29:19Z</time>
  <course>316.5</course>
  <speed>0.05</speed>
  <fix>3d</fix>
</trkpt>
<trkpt lat="40.0728217" lon="-105.2307405">
  <ele>1595.67</ele>
  <time>2026-08-27T18:29:19Z</time>
  <course>35.35</course>
  <speed>0.0316227766016838</speed>
  <fix>3d</fix>
</trkpt>
<trkpt lat="40.0728219" lon="-105.2307405">
  <ele>1595.59</ele>
  <time>2026-08-27T18:29:19Z</time>
  <course>315.17</course>
  <speed>0.05</speed>
  <fix>3d</fix>
</trkpt>
<trkpt lat="40.0728218" lon="-105.2307406">
  <ele>1595.67</ele>
  <time>2026-08-27T18:29:19Z</time>
  <course>35.34</course>
  <speed>0.03605551275463989</speed>
  <fix>3d</fix>
</trkpt>
<trkpt lat="40.072822" lon="-105.2307406">
  <ele>1595.6</ele>
  <time>2026-08-27T18:29:19Z</time>
  <course>314.2</course>
  <speed>0.05</speed>
  <fix>3d</fix>
</trkpt>
<trkpt lat="40.0728219" lon="-105.2307407">
  <ele>1595.68</ele>
  <time>2026-08-27T18:29:19Z</time>
  <course>35.36</course>
  <speed>0.03605551275463989</speed>
  <fix>3d</fix>
</trkpt>
<trkpt lat="40.072822" lon="-105.2307407">
  <ele>1595.6</ele>
  <time>2026-08-27T18:29:19Z</time>
  <course>313.35</course>
  <speed>0.05</speed>
  <fix>3d</fix>
</trkpt>
<trkpt lat="40.072822" lon="-105.2307408">
  <ele>1595.68</ele>
  <time>2026-08-27T18:29:19Z</time>
  <course>35.36</course>
  <speed>0.03605551275463989</speed>
  <fix>3d</fix>
</trkpt>
<trkpt lat="40.0728221" lon="-105.2307408">
  <ele>1595.6</ele>
  <time>2026-08-27T18:29:19Z</time>
  <course>312.55</course>
  <speed>0.06</speed>
  <fix>3d</fix>
</trkpt>
<trkpt lat="40.072822" lon="-105.2307409">
  <ele>1595.68</ele>
  <time>2026-08-27T18:29:19Z</time>
  <course>35.37</course>
  <speed>0.03605551275463989</speed>
  <fix>3d</fix>
</trkpt>
<trkpt lat="40.0728222" lon="-105.2307409">
  <ele>1595.6</ele>
  <time>2026-08-27T18:29:19Z</time>
  <course>311.76</course>
  <speed>0.06</speed>
  <fix>3d</fix>
</trkpt>
<trkpt lat="40.0728221" lon="-105.230741">
  <ele>1595.69</ele>
  <time>2026-08-27T18:29:20Z</time>
  <course>35.37</course>
  <speed>0.044721359549995794</speed>
  <fix>3d</fix>
</trkpt>
<trkpt lat="40.0728223" lon="-105.230741">
  <ele>1595.61</ele>
  <time>2026-08-27T18:29:20Z</time>
  <course>311.07</course>
  <speed>0.06</speed>
  <fix>3d</fix>
</trkpt>
<trkpt lat="40.0728222" lon="-105.2307411">
  <ele>1595.69</ele>
  <time>2026-08-27T18:29:20Z</time>
  <course>35.38</course>
  <speed>0.044721359549995794</speed>
  <fix>3d</fix>
</trkpt>
<trkpt lat="40.0728223" lon="-105.2307412">
  <ele>1595.61</ele>
  <time>2026-08-27T18:29:20Z</time>
  <course>310.65</course>
  <speed>0.06</speed>
  <fix>3d</fix>
</trkpt>
<trkpt lat="40.0728223" lon="-105.2307412">
  <ele>1595.69</ele>
  <time>2026-08-27T18:29:20Z</time>
  <course>35.38</course>
  <speed>0.05830951894845301</speed>
  <fix>3d</fix>
</trkpt>
<trkpt lat="40.0728224" lon="-105.2307413">
  <ele>1595.61</ele>
  <time>2026-08-27T18:29:20Z</time>
  <course>310.58</course>
  <speed>0.06</speed>
  <fix>3d</fix>
</trkpt>
<trkpt lat="40.0728224" lon="-105.2307413">
  <ele>1595.69</ele>
  <time>2026-08-27T18:29:20Z</time>
  <course>35.4</course>
  <speed>0.05830951894845301</speed>
  <fix>3d</fix>
</trkpt>
<trkpt lat="40.0728225" lon="-105.2307414">
  <ele>1595.61</ele>
  <time>2026-08-27T18:29:20Z</time>
  <course>311.25</course>
  <speed>0.07</speed>
  <fix>3d</fix>
</trkpt>
<trkpt lat="40.0728224" lon="-105.2307415">
  <ele>1595.69</ele>
  <time>2026-08-27T18:29:20Z</time>
  <course>35.39</course>
  <speed>0.044721359549995794</speed>
  <fix>3d</fix>
</trkpt>
<trkpt lat="40.0728226" lon="-105.2307415">
  <ele>1595.6</ele>
  <time>2026-08-27T18:29:20Z</time>
  <course>311.04</course>
  <speed>0.07</speed>
  <fix>3d</fix>
</trkpt>
<trkpt lat="40.0728225" lon="-105.2307416">
  <ele>1595.69</ele>
  <time>2026-08-27T18:29:20Z</time>
  <course>35.37</course>
  <speed>0.0316227766016838</speed>
  <fix>3d</fix>
</trkpt>
<trkpt lat="40.0728227" lon="-105.2307417">
  <ele>1595.6</ele>
  <time>2026-08-27T18:29:20Z</time>
  <course>310.24</course>
  <speed>0.06</speed>
  <fix>3d</fix>
</trkpt>
<trkpt lat="40.0728226" lon="-105.2307417">
  <ele>1595.69</ele>
  <time>2026-08-27T18:29:20Z</time>
  <course>35.37</course>
  <speed>0.0316227766016838</speed>
  <fix>3d</fix>
</trkpt>
<trkpt lat="40.0728228" lon="-105.2307418">
  <ele>1595.6</ele>
  <time>2026-08-27T18:29:20Z</time>
  <course>311.26</course>
  <speed>0.06</speed>
  <fix>3d</fix>
</trkpt>
<trkpt lat="40.0728227" lon="-105.2307418">
  <ele>1595.69</ele>
  <time>2026-08-27T18:29:20Z</time>
  <course>35.37</course>
  <speed>0.022360679774997897</speed>
  <fix>3d</fix>
</trkpt>
<trkpt lat="40.0728228" lon="-105.2307419">
  <ele>1595.6</ele>
  <time>2026-08-27T18:29:20Z</time>
  <course>313.86</course>
  <speed>0.05</speed>
  <fix>3d</fix>
</trkpt>
<trkpt lat="40.0728227" lon="-105.2307419">
  <ele>1595.7</ele>
  <time>2026-08-27T18:29:20Z</time>
  <course>35.39</course>
  <speed>0.01</speed>
  <fix>3d</fix>
</trkpt>
<trkpt lat="40.0728229" lon="-105.2307419">
  <ele>1595.6</ele>
  <time>2026-08-27T18:29:20Z</time>
  <course>317.32</course>
  <speed>0.04</speed>
  <fix>3d</fix>
</trkpt>
<trkpt lat="40.0728228" lon="-105.2307419">
  <ele>1595.7</ele>
  <time>2026-08-27T18:29:20Z</time>
  <course>35.39</course>
  <speed>0.01</speed>
  <fix>3d</fix>
</trkpt>
<trkpt lat="40.072823" lon="-105.230742">
  <ele>1595.6</ele>
  <time>2026-08-27T18:29:20Z</time>
  <course>320.72</course>
  <speed>0.04</speed>
  <fix>3d</fix>
</trkpt>
<trkpt lat="40.0728229" lon="-105.230742">
  <ele>1595.7</ele>
  <time>2026-08-27T18:29:20Z</time>
  <course>35.4</course>
  <speed>0.01</speed>
  <fix>3d</fix>
</trkpt>
<trkpt lat="40.072823" lon="-105.2307421">
  <ele>1595.59</ele>
  <time>2026-08-27T18:29:20Z</time>
  <course>323.61</course>
  <speed>0.04</speed>
  <fix>3d</fix>
</trkpt>
<trkpt lat="40.0728229" lon="-105.230742">
  <ele>1595.7</ele>
  <time>2026-08-27T18:29:20Z</time>
  <course>35.4</course>
  <speed>0.01</speed>
  <fix>3d</fix>
</trkpt>
<trkpt lat="40.0728231" lon="-105.2307422">
  <ele>1595.59</ele>
  <time>2026-08-27T18:29:20Z</time>
  <course>325.74</course>
  <speed>0.03</speed>
  <fix>3d</fix>
</trkpt>
<trkpt lat="40.072823" lon="-105.2307421">
  <ele>1595.7</ele>
  <time>2026-08-27T18:29:20Z</time>
  <course>35.39</course>
  <speed>0.01</speed>
  <fix>3d</fix>
</trkpt>
<trkpt lat="40.0728231" lon="-105.2307422">
  <ele>1595.59</ele>
  <time>2026-08-27T18:29:20Z</time>
  <course>327.27</course>
  <speed>0.03</speed>
  <fix>3d</fix>
</trkpt>
<trkpt lat="40.072823" lon="-105.2307421">
  <ele>1595.69</ele>
  <time>2026-08-27T18:29:20Z</time>
  <course>35.42</course>
  <speed>0.01</speed>
  <fix>3d</fix>
</trkpt>
<trkpt lat="40.0728231" lon="-105.2307422">
  <ele>1595.58</ele>
  <time>2026-08-27T18:29:20Z</time>
  <course>328.2</course>
  <speed>0.03</speed>
  <fix>3d</fix>
</trkpt>
<trkpt lat="40.0728231" lon="-105.2307422">
  <ele>1595.68</ele>
  <time>2026-08-27T18:29:20Z</time>
  <course>35.39</course>
  <speed>0.01</speed>
  <fix>3d</fix>
</trkpt>
<trkpt lat="40.0728232" lon="-105.2307422">
  <ele>1595.58</ele>
  <time>2026-08-27T18:29:20Z</time>
  <course>328.84</course>
  <speed>0.03</speed>
  <fix>3d</fix>
</trkpt>
<trkpt lat="40.0728231" lon="-105.2307422">
  <ele>1595.67</ele>
  <time>2026-08-27T18:29:20Z</time>
  <course>35.39</course>
  <speed>0.0</speed>
  <fix>3d</fix>
</trkpt>
<trkpt lat="40.0728232" lon="-105.2307423">
  <ele>1595.57</ele>
  <time>2026-08-27T18:29:20Z</time>
  <course>330.69</course>
  <speed>0.02</speed>
  <fix>3d</fix>
</trkpt>
<trkpt lat="40.0728231" lon="-105.2307422">
  <ele>1595.67</ele>
  <time>2026-08-27T18:29:20Z</time>
  <course>35.34</course>
  <speed>0.0</speed>
  <fix>3d</fix>
</trkpt>
<trkpt lat="40.0728233" lon="-105.2307424">
  <ele>1595.57</ele>
  <time>2026-08-27T18:29:20Z</time>
  <course>333.66</course>
  <speed>0.02</speed>
  <fix>3d</fix>
</trkpt>
<trkpt lat="40.0728231" lon="-105.2307422">
  <ele>1595.67</ele>
  <time>2026-08-27T18:29:20Z</time>
  <course>35.34</course>
  <speed>0.0</speed>
  <fix>3d</fix>
</trkpt>
<trkpt lat="40.0728234" lon="-105.2307424">
  <ele>1595.57</ele>
  <time>2026-08-27T18:29:20Z</time>
  <course>338.28</course>
  <speed>0.02</speed>
  <fix>3d</fix>
</trkpt>
<trkpt lat="40.0728232" lon="-105.2307423">
  <ele>1595.67</ele>
  <time>2026-08-27T18:29:20Z</time>
  <course>35.34</course>
  <speed>0.0</speed>
  <fix>3d</fix>
</trkpt>
<trkpt lat="40.0728234" lon="-105.2307424">
  <ele>1595.57</ele>
  <time>2026-08-27T18:29:20Z</time>
  <course>337.55</course>
  <speed>0.02</speed>
  <fix>3d</fix>
</trkpt>
<trkpt lat="40.0728232" lon="-105.2307423">
  <ele>1595.67</ele>
  <time>2026-08-27T18:29:20Z</time>
  <course>35.35</course>
  <speed>0.01</speed>
  <fix>3d</fix>
</trkpt>
<trkpt lat="40.0728235" lon="-105.2307424">
  <ele>1595.57</ele>
  <time>2026-08-27T18:29:20Z</time>
  <course>332.4</course>
  <speed>0.03</speed>
  <fix>3d</fix>
</trkpt>
<trkpt lat="40.0728233" lon="-105.2307423">
  <ele>1595.67</ele>
  <time>2026-08-27T18:29:20Z</time>
  <course>35.36</course>
  <speed>0.01414213562373095</speed>
  <fix>3d</fix>
</trkpt>
<trkpt lat="40.0728235" lon="-105.2307424">
  <ele>1595.58</ele>
  <time>2026-08-27T18:29:20Z</time>
  <course>328.25</course>
  <speed>0.03</speed>
  <fix>3d</fix>
</trkpt>
<trkpt lat="40.0728234" lon="-105.2307424">
  <ele>1595.67</ele>
  <time>2026-08-27T18:29:20Z</time>
  <course>35.37</course>
  <speed>0.01414213562373095</speed>
  <fix>3d</fix>
</trkpt>
<trkpt lat="40.0728236" lon="-105.2307425">
  <ele>1595.58</ele>
  <time>2026-08-27T18:29:20Z</time>
  <course>324.71</course>
  <speed>0.04</speed>
  <fix>3d</fix>
</trkpt>
<trkpt lat="40.0728235" lon="-105.2307425">
  <ele>1595.67</ele>
  <time>2026-08-27T18:29:20Z</time>
  <course>35.35</course>
  <speed>0.022360679774997897</speed>
  <fix>3d</fix>
</trkpt>
<trkpt lat="40.0728236" lon="-105.2307426">
  <ele>1595.58</ele>
  <time>2026-08-27T18:29:20Z</time>
  <course>321.85</course>
  <speed>0.04</speed>
  <fix>3d</fix>
</trkpt>
<trkpt lat="40.0728235" lon="-105.2307425">
  <ele>1595.67</ele>
  <time>2026-08-27T18:29:20Z</time>
  <course>35.35</course>
  <speed>0.022360679774997897</speed>
  <fix>3d</fix>
</trkpt>
<trkpt lat="40.0728237" lon="-105.2307426">
  <ele>1595.58</ele>
  <time>2026-08-27T18:29:20Z</time>
  <course>320.02</course>
  <speed>0.04</speed>
  <fix>3d</fix>
</trkpt>
<trkpt lat="40.0728236" lon="-105.2307426">
  <ele>1595.67</ele>
  <time>2026-08-27T18:29:20Z</time>
  <course>35.36</course>
  <speed>0.022360679774997897</speed>
  <fix>3d</fix>
</trkpt>
<trkpt lat="40.0728237" lon="-105.2307427">
  <ele>1595.59</ele>
  <time>2026-08-27T18:29:20Z</time>
  <course>318.4</course>
  <speed>0.05</speed>
  <fix>3d</fix>
</trkpt>
<trkpt lat="40.0728237" lon="-105.2307427">
  <ele>1595.67</ele>
  <time>2026-08-27T18:29:20Z</time>
  <course>35.35</course>
  <speed>0.0316227766016838</speed>
  <fix>3d</fix>
</trkpt>
<trkpt lat="40.0728238" lon="-105.2307428">
  <ele>1595.59</ele>
  <time>2026-08-27T18:29:20Z</time>
  <course>316.6</course>
  <speed>0.05</speed>
  <fix>3d</fix>
</trkpt>
<trkpt lat="40.0728237" lon="-105.2307428">
  <ele>1595.67</ele>
  <time>2026-08-27T18:29:20Z</time>
  <course>35.36</course>
  <speed>0.0316227766016838</speed>
  <fix>3d</fix>
</trkpt>
<trkpt lat="40.0728239" lon="-105.2307429">
  <ele>1595.59</ele>
  <time>2026-08-27T18:29:20Z</time>
  <course>315.41</course>
  <speed>0.05</speed>
  <fix>3d</fix>
</trkpt>
<trkpt lat="40.0728238" lon="-105.2307429">
  <ele>1595.67</ele>
  <time>2026-08-27T18:29:20Z</time>
  <course>35.37</course>
  <speed>0.03605551275463989</speed>
  <fix>3d</fix>
</trkpt>
<trkpt lat="40.072824" lon="-105.230743">
  <ele>1595.59</ele>
  <time>2026-08-27T18:29:20Z</time>
  <course>314.84</course>
  <speed>0.05</speed>
  <fix>3d</fix>
</trkpt>
<trkpt lat="40.0728239" lon="-105.230743">
  <ele>1595.67</ele>
  <time>2026-08-27T18:29:20Z</time>
  <course>35.36</course>
  <speed>0.03605551275463989</speed>
  <fix>3d</fix>
</trkpt>
<trkpt lat="40.0728241" lon="-105.2307431">
  <ele>1595.59</ele>
  <time>2026-08-27T18:29:20Z</time>
  <course>314.25</course>
  <speed>0.06</speed>
  <fix>3d</fix>
</trkpt>
<trkpt lat="40.072824" lon="-105.2307431">
  <ele>1595.67</ele>
  <time>2026-08-27T18:29:20Z</time>
  <course>35.35</course>
  <speed>0.03605551275463989</speed>
  <fix>3d</fix>
</trkpt>
<trkpt lat="40.0728241" lon="-105.2307432">
  <ele>1595.6</ele>
  <time>2026-08-27T18:29:20Z</time>
  <course>313.91</course>
  <speed>0.06</speed>
  <fix>3d</fix>
</trkpt>
<trkpt lat="40.072824" lon="-105.2307432">
  <ele>1595.67</ele>
  <time>2026-08-27T18:29:20Z</time>
  <course>35.35</course>
  <speed>0.03605551275463989</speed>
  <fix>3d</fix>
</trkpt>
<trkpt lat="40.0728242" lon="-105.2307433">
  <ele>1595.6</ele>
  <time>2026-08-27T18:29:20Z</time>
  <course>313.69</course>
  <speed>0.06</speed>
  <fix>3d</fix>
</trkpt>
<trkpt lat="40.0728241" lon="-105.2307433">
  <ele>1595.67</ele>
  <time>2026-08-27T18:29:20Z</time>
  <course>35.34</course>
  <speed>0.03605551275463989</speed>
  <fix>3d</fix>
</trkpt>
<trkpt lat="40.0728243" lon="-105.2307434">
  <ele>1595.6</ele>
  <time>2026-08-27T18:29:20Z</time>
  <course>313.1</course>
  <speed>0.06</speed>
  <fix>3d</fix>
</trkpt>
<trkpt lat="40.0728242" lon="-105.2307435">
  <ele>1595.68</ele>
  <time>2026-08-27T18:29:20Z</time>
  <course>35.37</course>
  <speed>0.05</speed>
  <fix>3d</fix>
</trkpt>
<trkpt lat="40.0728243" lon="-105.2307435">
  <ele>1595.6</ele>
  <time>2026-08-27T18:29:20Z</time>
  <course>313.23</course>
  <speed>0.07</speed>
  <fix>3d</fix>
</trkpt>
<trkpt lat="40.0728243" lon="-105.2307436">
  <ele>1595.68</ele>
  <time>2026-08-27T18:29:20Z</time>
  <course>35.38</course>
  <speed>0.044721359549995794</speed>
  <fix>3d</fix>
</trkpt>
<trkpt lat="40.0728244" lon="-105.2307437">
  <ele>1595.61</ele>
  <time>2026-08-27T18:29:20Z</time>
  <course>312.99</course>
  <speed>0.07</speed>
  <fix>3d</fix>
</trkpt>
<trkpt lat="40.0728244" lon="-105.2307437">
  <ele>1595.68</ele>
  <time>2026-08-27T18:29:20Z</time>
  <course>35.39</course>
  <speed>0.0316227766016838</speed>
  <fix>3d</fix>
</trkpt>
<trkpt lat="40.0728245" lon="-105.2307438">
  <ele>1595.61</ele>
  <time>2026-08-27T18:29:20Z</time>
  <course>311.84</course>
  <speed>0.07</speed>
  <fix>3d</fix>
</trkpt>
<trkpt lat="40.0728244" lon="-105.2307438">
  <ele>1595.68</ele>
  <time>2026-08-27T18:29:20Z</time>
  <course>35.4</course>
  <speed>0.0316227766016838</speed>
  <fix>3d</fix>
</trkpt>
<trkpt lat="40.0728246" lon="-105.2307439">
  <ele>1595.61</ele>
  <time>2026-08-27T18:29:20Z</time>
  <course>311.46</course>
  <speed>0.06</speed>
  <fix>3d</fix>
</trkpt>
<trkpt lat="40.0728245" lon="-105.2307439">
  <ele>1595.69</ele>
  <time>2026-08-27T18:29:20Z</time>
  <course>35.4</course>
  <speed>0.022360679774997897</speed>
  <fix>3d</fix>
</trkpt>
<trkpt lat="40.0728247" lon="-105.230744">
  <ele>1595.61</ele>
  <time>2026-08-27T18:29:20Z</time>
  <course>312.8</course>
  <speed>0.05</speed>
  <fix>3d</fix>
</trkpt>
<trkpt lat="40.0728246" lon="-105.230744">
  <ele>1595.69</ele>
  <time>2026-08-27T18:29:20Z</time>
  <course>35.39</course>
  <speed>0.022360679774997897</speed>
  <fix>3d</fix>
</trkpt>
<trkpt lat="40.0728248" lon="-105.2307441">
  <ele>1595.62</ele>
  <time>2026-08-27T18:29:20Z</time>
  <course>315.97</course>
  <speed>0.04</speed>
  <fix>3d</fix>
</trkpt>
<trkpt lat="40.0728246" lon="-105.230744">
  <ele>1595.69</ele>
  <time>2026-08-27T18:29:20Z</time>
  <course>35.39</course>
  <speed>0.01414213562373095</speed>
  <fix>3d</fix>
</trkpt>
<trkpt lat="40.0728248" lon="-105.2307441">
  <ele>1595.62</ele>
  <time>2026-08-27T18:29:20Z</time>
  <course>319.94</course>
  <speed>0.04</speed>
  <fix>3d</fix>
</trkpt>
<trkpt lat="40.0728247" lon="-105.2307441">
  <ele>1595.69</ele>
  <time>2026-08-27T18:29:20Z</time>
  <course>35.38</course>
  <speed>0.01414213562373095</speed>
  <fix>3d</fix>
</trkpt>
<trkpt lat="40.0728249" lon="-105.2307442">
  <ele>1595.61</ele>
  <time>2026-08-27T18:29:20Z</time>
  <course>323.28</course>
  <speed>0.04</speed>
  <fix>3d</fix>
</trkpt>
<trkpt lat="40.0728247" lon="-105.2307441">
  <ele>1595.68</ele>
  <time>2026-08-27T18:29:20Z</time>
  <course>35.37</course>
  <speed>0.01414213562373095</speed>
  <fix>3d</fix>
</trkpt>
<trkpt lat="40.072825" lon="-105.2307443">
  <ele>1595.61</ele>
  <time>2026-08-27T18:29:20Z</time>
  <course>325.3</course>
  <speed>0.03</speed>
  <fix>3d</fix>
</trkpt>
<trkpt lat="40.0728248" lon="-105.2307442">
  <ele>1595.67</ele>
  <time>2026-08-27T18:29:20Z</time>
  <course>35.37</course>
  <speed>0.01414213562373095</speed>
  <fix>3d</fix>
</trkpt>
<trkpt lat="40.072825" lon="-105.2307443">
  <ele>1595.61</ele>
  <time>2026-08-27T18:29:20Z</time>
  <course>326.24</course>
  <speed>0.03</speed>
  <fix>3d</fix>
</trkpt>
<trkpt lat="40.0728249" lon="-105.2307442">
  <ele>1595.67</ele>
  <time>2026-08-27T18:29:20Z</time>
  <course>35.36</course>
  <speed>0.01414213562373095</speed>
  <fix>3d</fix>
</trkpt>
<trkpt lat="40.072825" lon="-105.2307444">
  <ele>1595.61</ele>
  <time>2026-08-27T18:29:20Z</time>
  <course>326.43</course>
  <speed>0.04</speed>
  <fix>3d</fix>
</trkpt>
<trkpt lat="40.0728249" lon="-105.2307443">
  <ele>1595.67</ele>
  <time>2026-08-27T18:29:20Z</time>
  <course>35.36</course>
  <speed>0.01</speed>
  <fix>3d</fix>
</trkpt>
<trkpt lat="40.0728251" lon="-105.2307445">
  <ele>1595.61</ele>
  <time>2026-08-27T18:29:20Z</time>
  <course>325.97</course>
  <speed>0.04</speed>
  <fix>3d</fix>
</trkpt>
<trkpt lat="40.072825" lon="-105.2307444">
  <ele>1595.68</ele>
  <time>2026-08-27T18:29:20Z</time>
  <course>35.36</course>
  <speed>0.01</speed>
  <fix>3d</fix>
</trkpt>
<trkpt lat="40.0728252" lon="-105.2307445">
  <ele>1595.61</ele>
  <time>2026-08-27T18:29:20Z</time>
  <course>325.26</course>
  <speed>0.04</speed>
  <fix>3d</fix>
</trkpt>
<trkpt lat="40.072825" lon="-105.2307444">
  <ele>1595.68</ele>
  <time>2026-08-27T18:29:20Z</time>
  <course>35.37</course>
  <speed>0.0</speed>
  <fix>3d</fix>
</trkpt>
<trkpt lat="40.0728253" lon="-105.2307446">
  <ele>1595.61</ele>
  <time>2026-08-27T18:29:20Z</time>
  <course>327.41</course>
  <speed>0.03</speed>
  <fix>3d</fix>
</trkpt>
<trkpt lat="40.0728251" lon="-105.2307444">
  <ele>1595.69</ele>
  <time>2026-08-27T18:29:20Z</time>
  <course>35.37</course>
  <speed>0.0</speed>
  <fix>3d</fix>
</trkpt>
<trkpt lat="40.0728253" lon="-105.2307446">
  <ele>1595.62</ele>
  <time>2026-08-27T18:29:20Z</time>
  <course>331.71</course>
  <speed>0.02</speed>
  <fix>3d</fix>
</trkpt>
<trkpt lat="40.0728251" lon="-105.2307445">
  <ele>1595.68</ele>
  <time>2026-08-27T18:29:20Z</time>
  <course>35.37</course>
  <speed>0.0</speed>
  <fix>3d</fix>
</trkpt>
<trkpt lat="40.0728253" lon="-105.2307446">
  <ele>1595.62</ele>
  <time>2026-08-27T18:29:20Z</time>
  <course>332.4</course>
  <speed>0.02</speed>
  <fix>3d</fix>
</trkpt>
<trkpt lat="40.0728252" lon="-105.2307445">
  <ele>1595.68</ele>
  <time>2026-08-27T18:29:20Z</time>
  <course>35.37</course>
  <speed>0.01414213562373095</speed>
  <fix>3d</fix>
</trkpt>
<trkpt lat="40.0728254" lon="-105.2307446">
  <ele>1595.62</ele>
  <time>2026-08-27T18:29:20Z</time>
  <course>331.33</course>
  <speed>0.03</speed>
  <fix>3d</fix>
</trkpt>
<trkpt lat="40.0728253" lon="-105.2307446">
  <ele>1595.68</ele>
  <time>2026-08-27T18:29:20Z</time>
  <course>35.36</course>
  <speed>0.01414213562373095</speed>
  <fix>3d</fix>
</trkpt>
<trkpt lat="40.0728254" lon="-105.2307447">
  <ele>1595.62</ele>
  <time>2026-08-27T18:29:20Z</time>
  <course>327.99</course>
  <speed>0.03</speed>
  <fix>3d</fix>
</trkpt>
<trkpt lat="40.0728253" lon="-105.2307446">
  <ele>1595.69</ele>
  <time>2026-08-27T18:29:20Z</time>
  <course>35.37</course>
  <speed>0.022360679774997897</speed>
  <fix>3d</fix>
</trkpt>
<trkpt lat="40.0728255" lon="-105.2307448">
  <ele>1595.62</ele>
  <time>2026-08-27T18:29:20Z</time>
  <course>324.73</course>
  <speed>0.04</speed>
  <fix>3d</fix>
</trkpt>
<trkpt lat="40.0728254" lon="-105.2307447">
  <ele>1595.69</ele>
  <time>2026-08-27T18:29:20Z</time>
  <course>35.37</course>
  <speed>0.022360679774997897</speed>
  <fix>3d</fix>
</trkpt>
<trkpt lat="40.0728256" lon="-105.2307448">
  <ele>1595.62</ele>
  <time>2026-08-27T18:29:20Z</time>
  <course>322.42</course>
  <speed>0.04</speed>
  <fix>3d</fix>
</trkpt>
<trkpt lat="40.0728255" lon="-105.2307448">
  <ele>1595.69</ele>
  <time>2026-08-27T18:29:20Z</time>
  <course>35.39</course>
  <speed>0.022360679774997897</speed>
  <fix>3d</fix>
</trkpt>
<trkpt lat="40.0728256" lon="-105.2307449">
  <ele>1595.62</ele>
  <time>2026-08-27T18:29:20Z</time>
  <course>320.51</course>
  <speed>0.05</speed>
  <fix>3d</fix>
</trkpt>
<trkpt lat="40.0728255" lon="-105.2307449">
  <ele>1595.69</ele>
  <time>2026-08-27T18:29:20Z</time>
  <course>35.39</course>
  <speed>0.0282842712474619</speed>
  <fix>3d</fix>
</trkpt>
<trkpt lat="40.0728257" lon="-105.230745">
  <ele>1595.62</ele>
  <time>2026-08-27T18:29:20Z</time>
  <course>318.85</course>
  <speed>0.05</speed>
  <fix>3d</fix>
</trkpt>
<trkpt lat="40.0728256" lon="-105.230745">
  <ele>1595.68</ele>
  <time>2026-08-27T18:29:20Z</time>
  <course>35.38</course>
  <speed>0.03605551275463989</speed>
  <fix>3d</fix>
</trkpt>
<trkpt lat="40.0728258" lon="-105.230745">
  <ele>1595.61</ele>
  <time>2026-08-27T18:29:20Z</time>
  <course>317.8</course>
  <speed>0.05</speed>
  <fix>3d</fix>
</trkpt>
<trkpt lat="40.0728257" lon="-105.2307451">
  <ele>1595.68</ele>
  <time>2026-08-27T18:29:20Z</time>
  <course>35.38</course>
  <speed>0.03605551275463989</speed>
  <fix>3d</fix>
</trkpt>
<trkpt lat="40.0728259" lon="-105.2307451">
  <ele>1595.61</ele>
  <time>2026-08-27T18:29:20Z</time>
  <course>316.86</course>
  <speed>0.05</speed>
  <fix>3d</fix>
</trkpt>
<trkpt lat="40.0728258" lon="-105.2307452">
  <ele>1595.68</ele>
  <time>2026-08-27T18:29:20Z</time>
  <course>35.37</course>
  <speed>0.03605551275463989</speed>
  <fix>3d</fix>
</trkpt>
<trkpt lat="40.0728259" lon="-105.2307452">
  <ele>1595.61</ele>
  <time>2026-08-27T18:29:20Z</time>
  <course>315.95</course>
  <speed>0.05</speed>
  <fix>3d</fix>
</trkpt>
<trkpt lat="40.0728259" lon="-105.2307452">
  <ele>1595.67</ele>
  <time>2026-08-27T18:29:20Z</time>
  <course>35.37</course>
  <speed>0.03605551275463989</speed>
  <fix>3d</fix>
</trkpt>
<trkpt lat="40.072826" lon="-105.2307453">
  <ele>1595.61</ele>
  <time>2026-08-27T18:29:20Z</time>
  <course>315.34</course>
  <speed>0.06</speed>
  <fix>3d</fix>
</trkpt>
<trkpt lat="40.0728259" lon="-105.2307453">
  <ele>1595.67</ele>
  <time>2026-08-27T18:29:20Z</time>
  <course>35.37</course>
  <speed>0.03605551275463989</speed>
  <fix>3d</fix>
</trkpt>
<trkpt lat="40.0728261" lon="-105.2307454">
  <ele>1595.61</ele>
  <time>2026-08-27T18:29:20Z</time>
  <course>314.77</course>
  <speed>0.06</speed>
  <fix>3d</fix>
</trkpt>
<trkpt lat="40.072826" lon="-105.2307454">
  <ele>1595.67</ele>
  <time>2026-08-27T18:29:20Z</time>
  <course>35.33</course>
  <speed>0.03605551275463989</speed>
  <fix>3d</fix>
</trkpt>
<trkpt lat="40.0728262" lon="-105.2307455">
  <ele>1595.61</ele>
  <time>2026-08-27T18:29:20Z</time>
  <course>314.26</course>
  <speed>0.06</speed>
  <fix>3d</fix>
</trkpt>
<trkpt lat="40.0728261" lon="-105.2307456">
  <ele>1595.67</ele>
  <time>2026-08-27T18:29:20Z</time>
  <course>35.34</course>
  <speed>0.03605551275463989</speed>
  <fix>3d</fix>
</trkpt>
<trkpt lat="40.0728262" lon="-105.2307456">
  <ele>1595.61</ele>
  <time>2026-08-27T18:29:20Z</time>
  <course>313.66</course>
  <speed>0.06</speed>
  <fix>3d</fix>
</trkpt>
<trkpt lat="40.0728262" lon="-105.2307457">
  <ele>1595.67</ele>
  <time>2026-08-27T18:29:20Z</time>
  <course>35.33</course>
  <speed>0.05830951894845301</speed>
  <fix>3d</fix>
</trkpt>
<trkpt lat="40.0728263" lon="-105.2307457">
  <ele>1595.61</ele>
  <time>2026-08-27T18:29:20Z</time>
  <course>312.85</course>
  <speed>0.06</speed>
  <fix>3d</fix>
</trkpt>
<trkpt lat="40.0728263" lon="-105.2307458">
  <ele>1595.68</ele>
  <time>2026-08-27T18:29:20Z</time>
  <course>35.37</course>
  <speed>0.05830951894845301</speed>
  <fix>3d</fix>
</trkpt>
<trkpt lat="40.0728264" lon="-105.2307459">
  <ele>1595.62</ele>
  <time>2026-08-27T18:29:20Z</time>
  <course>312.84</course>
  <speed>0.07</speed>
  <fix>3d</fix>
</trkpt>
<trkpt lat="40.0728264" lon="-105.2307459">
  <ele>1595.68</ele>
  <time>2026-08-27T18:29:20Z</time>
  <course>35.37</course>
  <speed>0.044721359549995794</speed>
  <fix>3d</fix>
</trkpt>
<trkpt lat="40.0728265" lon="-105.230746">
  <ele>1595.62</ele>
  <time>2026-08-27T18:29:20Z</time>
  <course>312.04</course>
  <speed>0.07</speed>
  <fix>3d</fix>
</trkpt>
<trkpt lat="40.0728264" lon="-105.230746">
  <ele>1595.67</ele>
  <time>2026-08-27T18:29:20Z</time>
  <course>35.36</course>
  <speed>0.044721359549995794</speed>
  <fix>3d</fix>
</trkpt>
<trkpt lat="40.0728266" lon="-105.2307461">
  <ele>1595.62</ele>
  <time>2026-08-27T18:29:20Z</time>
  <course>310.71</course>
  <speed>0.06</speed>
  <fix>3d</fix>
</trkpt>
<trkpt lat="40.0728265" lon="-105.2307462">
  <ele>1595.67</ele>
  <time>2026-08-27T18:29:20Z</time>
  <course>35.36</course>
  <speed>0.0316227766016838</speed>
  <fix>3d</fix>
</trkpt>
<trkpt lat="40.0728267" lon="-105.2307462">
  <ele>1595.63</ele>
  <time>2026-08-27T18:29:20Z</time>
  <course>311.43</course>
  <speed>0.05</speed>
  <fix>3d</fix>
</trkpt>
<trkpt lat="40.0728266" lon="-105.2307462">
  <ele>1595.68</ele>
  <time>2026-08-27T18:29:20Z</time>
  <course>35.35</course>
  <speed>0.022360679774997897</speed>
  <fix>3d</fix>
</trkpt>
<trkpt lat="40.0728267" lon="-105.2307463">
  <ele>1595.63</ele>
  <time>2026-08-27T18:29:20Z</time>
  <course>313.84</course>
  <speed>0.05</speed>
  <fix>3d</fix>
</trkpt>
<trkpt lat="40.0728266" lon="-105.2307463">
  <ele>1595.68</ele>
  <time>2026-08-27T18:29:20Z</time>
  <course>35.35</course>
  <speed>0.022360679774997897</speed>
  <fix>3d</fix>
</trkpt>
<trkpt lat="40.0728268" lon="-105.2307464">
  <ele>1595.63</ele>
  <time>2026-08-27T18:29:20Z</time>
  <course>317.04</course>
  <speed>0.04</speed>
  <fix>3d</fix>
</trkpt>
<trkpt lat="40.0728267" lon="-105.2307464">
  <ele>1595.69</ele>
  <time>2026-08-27T18:29:20Z</time>
  <course>35.36</course>
  <speed>0.01414213562373095</speed>
  <fix>3d</fix>
</trkpt>
<trkpt lat="40.0728268" lon="-105.2307465">
  <ele>1595.63</ele>
  <time>2026-08-27T18:29:20Z</time>
  <course>320.2</course>
  <speed>0.04</speed>
  <fix>3d</fix>
</trkpt>
<trkpt lat="40.0728267" lon="-105.2307464">
  <ele>1595.68</ele>
  <time>2026-08-27T18:29:20Z</time>
  <course>35.37</course>
  <speed>0.01414213562373095</speed>
  <fix>3d</fix>
</trkpt>
<trkpt lat="40.0728269" lon="-105.2307465">
  <ele>1595.63</ele>
  <time>2026-08-27T18:29:20Z</time>
  <course>322.7</course>
  <speed>0.04</speed>
  <fix>3d</fix>
</trkpt>
<trkpt lat="40.0728268" lon="-105.2307465">
  <ele>1595.68</ele>
  <time>2026-08-27T18:29:20Z</time>
  <course>35.37</course>
  <speed>0.01414213562373095</speed>
  <fix>3d</fix>
</trkpt>
<trkpt lat="40.0728269" lon="-105.2307466">
  <ele>1595.63</ele>
  <time>2026-08-27T18:29:20Z</time>
  <course>324.3</course>
  <speed>0.04</speed>
  <fix>3d</fix>
</trkpt>
<trkpt lat="40.0728269" lon="-105.2307466">
  <ele>1595.68</ele>
  <time>2026-08-27T18:29:20Z</time>
  <course>35.37</course>
  <speed>0.01</speed>
  <fix>3d</fix>
</trkpt>
<trkpt lat="40.072827" lon="-105.2307467">
  <ele>1595.63</ele>
  <time>2026-08-27T18:29:20Z</time>
  <course>325.2</course>
  <speed>0.04</speed>
  <fix>3d</fix>
</trkpt>
<trkpt lat="40.0728269" lon="-105.2307466">
  <ele>1595.68</ele>
  <time>2026-08-27T18:29:20Z</time>
  <course>35.37</course>
  <speed>0.01</speed>
  <fix>3d</fix>
</trkpt>
<trkpt lat="40.0728271" lon="-105.2307467">
  <ele>1595.63</ele>
  <time>2026-08-27T18:29:20Z</time>
  <course>325.68</course>
  <speed>0.03</speed>
  <fix>3d</fix>
</trkpt>
<trkpt lat="40.072827" lon="-105.2307467">
  <ele>1595.68</ele>
  <time>2026-08-27T18:29:20Z</time>
  <course>35.37</course>
  <speed>0.01</speed>
  <fix>3d</fix>
</trkpt>
<trkpt lat="40.0728271" lon="-105.2307467">
  <ele>1595.63</ele>
  <time>2026-08-27T18:29:20Z</time>
  <course>325.92</course>
  <speed>0.03</speed>
  <fix>3d</fix>
</trkpt>
<trkpt lat="40.072827" lon="-105.2307467">
  <ele>1595.68</ele>
  <time>2026-08-27T18:29:20Z</time>
  <course>35.37</course>
  <speed>0.01</speed>
  <fix>3d</fix>
</trkpt>
<trkpt lat="40.0728272" lon="-105.2307468">
  <ele>1595.63</ele>
  <time>2026-08-27T18:29:20Z</time>
  <course>326.15</course>
  <speed>0.03</speed>
  <fix>3d</fix>
</trkpt>
<trkpt lat="40.0728271" lon="-105.2307467">
  <ele>1595.68</ele>
  <time>2026-08-27T18:29:20Z</time>
  <course>35.36</course>
  <speed>0.0</speed>
  <fix>3d</fix>
</trkpt>
<trkpt lat="40.0728273" lon="-105.2307469">
  <ele>1595.63</ele>
  <time>2026-08-27T18:29:20Z</time>
  <course>329.61</course>
  <speed>0.02</speed>
  <fix>3d</fix>
</trkpt>
<trkpt lat="40.0728271" lon="-105.2307468">
  <ele>1595.68</ele>
  <time>2026-08-27T18:29:20Z</time>
  <course>35.37</course>
  <speed>0.0</speed>
  <fix>3d</fix>
</trkpt>
<trkpt lat="40.0728273" lon="-105.2307469">
  <ele>1595.63</ele>
  <time>2026-08-27T18:29:20Z</time>
  <course>337.79</course>
  <speed>0.02</speed>
  <fix>3d</fix>
</trkpt>
<trkpt lat="40.0728272" lon="-105.2307468">
  <ele>1595.69</ele>
  <time>2026-08-27T18:29:20Z</time>
  <course>35.37</course>
  <speed>0.0</speed>
  <fix>3d</fix>
</trkpt>
<trkpt lat="40.0728273" lon="-105.2307469">
  <ele>1595.63</ele>
  <time>2026-08-27T18:29:20Z</time>
  <course>337.71</course>
  <speed>0.02</speed>
  <fix>3d</fix>
</trkpt>
<trkpt lat="40.0728272" lon="-105.2307468">
  <ele>1595.69</ele>
  <time>2026-08-27T18:29:20Z</time>
  <course>35.37</course>
  <speed>0.01</speed>
  <fix>3d</fix>
</trkpt>
<trkpt lat="40.0728274" lon="-105.2307469">
  <ele>1595.63</ele>
  <time>2026-08-27T18:29:20Z</time>
  <course>333.41</course>
  <speed>0.02</speed>
  <fix>3d</fix>
</trkpt>
<trkpt lat="40.0728273" lon="-105.2307469">
  <ele>1595.7</ele>
  <time>2026-08-27T18:29:20Z</time>
  <course>35.39</course>
  <speed>0.01414213562373095</speed>
  <fix>3d</fix>
</trkpt>
<trkpt lat="40.0728274" lon="-105.2307469">
  <ele>1595.63</ele>
  <time>2026-08-27T18:29:20Z</time>
  <course>328.65</course>
  <speed>0.03</speed>
  <fix>3d</fix>
</trkpt>
<trkpt lat="40.0728273" lon="-105.2307469">
  <ele>1595.7</ele>
  <time>2026-08-27T18:29:20Z</time>
  <course>35.38</course>
  <speed>0.022360679774997897</speed>
  <fix>3d</fix>
</trkpt>
<trkpt lat="40.0728274" lon="-105.230747">
  <ele>1595.63</ele>
  <time>2026-08-27T18:29:20Z</time>
  <course>324.63</course>
  <speed>0.03</speed>
  <fix>3d</fix>
</trkpt>
<trkpt lat="40.0728274" lon="-105.230747">
  <ele>1595.7</ele>
  <time>2026-08-27T18:29:20Z</time>
  <course>35.39</course>
  <speed>0.022360679774997897</speed>
  <fix>3d</fix>
</trkpt>
<trkpt lat="40.0728275" lon="-105.2307471">
  <ele>1595.63</ele>
  <time>2026-08-27T18:29:20Z</time>
  <course>321.56</course>
  <speed>0.04</speed>
  <fix>3d</fix>
</trkpt>
<trkpt lat="40.0728274" lon="-105.2307471">
  <ele>1595.7</ele>
  <time>2026-08-27T18:29:20Z</time>
  <course>35.4</course>
  <speed>0.022360679774997897</speed>
  <fix>3d</fix>
</trkpt>
<trkpt lat="40.0728276" lon="-105.2307471">
  <ele>1595.62</ele>
  <time>2026-08-27T18:29:20Z</time>
  <course>319.48</course>
  <speed>0.04</speed>
  <fix>3d</fix>
</trkpt>
<trkpt lat="40.0728275" lon="-105.2307471">
  <ele>1595.7</ele>
  <time>2026-08-27T18:29:20Z</time>
  <course>35.39</course>
  <speed>0.022360679774997897</speed>
  <fix>3d</fix>
</trkpt>
<trkpt lat="40.0728277" lon="-105.2307472">
  <ele>1595.62</ele>
  <time>2026-08-27T18:29:20Z</time>
  <course>317.92</course>
  <speed>0.04</speed>
  <fix>3d</fix>
</trkpt>
<trkpt lat="40.0728276" lon="-105.2307472">
  <ele>1595.7</ele>
  <time>2026-08-27T18:29:20Z</time>
  <course>35.41</course>
  <speed>0.0316227766016838</speed>
  <fix>3d</fix>
</trkpt>
<trkpt lat="40.0728277" lon="-105.2307473">
  <ele>1595.61</ele>
  <time>2026-08-27T18:29:20Z</time>
  <course>316.67</course>
  <speed>0.05</speed>
  <fix>3d</fix>
</trkpt>
<trkpt lat="40.0728276" lon="-105.2307473">
  <ele>1595.7</ele>
  <time>2026-08-27T18:29:20Z</time>
  <course>35.42</course>
  <speed>0.0316227766016838</speed>
  <fix>3d</fix>
</trkpt>
<trkpt lat="40.0728278" lon="-105.2307474">
  <ele>1595.61</ele>
  <time>2026-08-27T18:29:20Z</time>
  <course>316.0</course>
  <speed>0.05</speed>
  <fix>3d</fix>
</trkpt>
<trkpt lat="40.0728277" lon="-105.2307474">
  <ele>1595.69</ele>
  <time>2026-08-27T18:29:20Z</time>
  <course>35.38</course>
  <speed>0.0316227766016838</speed>
  <fix>3d</fix>
</trkpt>
<trkpt lat="40.0728279" lon="-105.2307474">
  <ele>1595.61</ele>
  <time>2026-08-27T18:29:20Z</time>
  <course>315.56</course>
  <speed>0.05</speed>
  <fix>3d</fix>
</trkpt>
<trkpt lat="40.0728278" lon="-105.2307475">
  <ele>1595.68</ele>
  <time>2026-08-27T18:29:20Z</time>
  <course>35.37</course>
  <speed>0.0316227766016838</speed>
  <fix>3d</fix>
</trkpt>
<trkpt lat="40.0728279" lon="-105.2307475">
  <ele>1595.6</ele>
  <time>2026-08-27T18:29:20Z</time>
  <course>315.14</course>
  <speed>0.05</speed>
  <fix>3d</fix>
</trkpt>
<trkpt lat="40.0728279" lon="-105.2307476">
  <ele>1595.68</ele>
  <time>2026-08-27T18:29:20Z</time>
  <course>35.36</course>
  <speed>0.0316227766016838</speed>
  <fix>3d</fix>
</trkpt>
<trkpt lat="40.072828" lon="-105.2307476">
  <ele>1595.6</ele>
  <time>2026-08-27T18:29:20Z</time>
  <course>314.57</course>
  <speed>0.05</speed>
  <fix>3d</fix>
</trkpt>
<trkpt lat="40.0728279" lon="-105.2307477">
  <ele>1595.68</ele>
  <time>2026-08-27T18:29:20Z</time>
  <course>35.36</course>
  <speed>0.0316227766016838</speed>
  <fix>3d</fix>
</trkpt>
<trkpt lat="40.072828" lon="-105.2307477">
  <ele>1595.6</ele>
  <time>2026-08-27T18:29:20Z</time>
  <course>313.77</course>
  <speed>0.05</speed>
  <fix>3d</fix>
</trkpt>
<trkpt lat="40.072828" lon="-105.2307478">
  <ele>1595.68</ele>
  <time>2026-08-27T18:29:20Z</time>
  <course>35.37</course>
  <speed>0.0316227766016838</speed>
  <fix>3d</fix>
</trkpt>
<trkpt lat="40.0728281" lon="-105.2307478">
  <ele>1595.6</ele>
  <time>2026-08-27T18:29:20Z</time>
  <course>313.26</course>
  <speed>0.05</speed>
  <fix>3d</fix>
</trkpt>
<trkpt lat="40.0728281" lon="-105.2307479">
  <ele>1595.69</ele>
  <time>2026-08-27T18:29:20Z</time>
  <course>35.37</course>
  <speed>0.05</speed>
  <fix>3d</fix>
</trkpt>
<trkpt lat="40.0728282" lon="-105.2307479">
  <ele>1595.6</ele>
  <time>2026-08-27T18:29:20Z</time>
  <course>313.26</course>
  <speed>0.06</speed>
  <fix>3d</fix>
</trkpt>
<trkpt lat="40.0728282" lon="-105.230748">
  <ele>1595.69</ele>
  <time>2026-08-27T18:29:20Z</time>
  <course>35.38</course>
  <speed>0.05</speed>
  <fix>3d</fix>
</trkpt>
<trkpt lat="40.0728283" lon="-105.2307481">
  <ele>1595.59</ele>
  <time>2026-08-27T18:29:20Z</time>
  <course>313.66</course>
  <speed>0.07</speed>
  <fix>3d</fix>
</trkpt>
<trkpt lat="40.0728282" lon="-105.2307481">
  <ele>1595.69</ele>
  <time>2026-08-27T18:29:20Z</time>
  <course>35.39</course>
  <speed>0.044721359549995794</speed>
  <fix>3d</fix>
</trkpt>
<trkpt lat="40.0728284" lon="-105.2307482">
  <ele>1595.59</ele>
  <time>2026-08-27T18:29:20Z</time>
  <course>313.06</course>
  <speed>0.07</speed>
  <fix>3d</fix>
</trkpt>
<trkpt lat="40.0728283" lon="-105.2307482">
  <ele>1595.69</ele>
  <time>2026-08-27T18:29:20Z</time>
  <course>35.39</course>
  <speed>0.0316227766016838</speed>
  <fix>3d</fix>
</trkpt>
<trkpt lat="40.0728285" lon="-105.2307483">
  <ele>1595.59</ele>
  <time>2026-08-27T18:29:20Z</time>
  <course>311.95</course>
  <speed>0.06</speed>
  <fix>3d</fix>
</trkpt>
<trkpt lat="40.0728284" lon="-105.2307483">
  <ele>1595.7</ele>
  <time>2026-08-27T18:29:20Z</time>
  <course>35.37</course>
  <speed>0.0316227766016838</speed>
  <fix>3d</fix>
</trkpt>
<trkpt lat="40.0728285" lon="-105.2307484">
  <ele>1595.59</ele>
  <time>2026-08-27T18:29:20Z</time>
  <course>312.63</course>
  <speed>0.05</speed>
  <fix>3d</fix>
</trkpt>
<trkpt lat="40.0728285" lon="-105.2307484">
  <ele>1595.7</ele>
  <time>2026-08-27T18:29:20Z</time>
  <course>35.41</course>
  <speed>0.022360679774997897</speed>
  <fix>3d</fix>
</trkpt>
<trkpt lat="40.0728286" lon="-105.2307485">
  <ele>1595.58</ele>
  <time>2026-08-27T18:29:20Z</time>
  <course>314.96</course>
  <speed>0.05</speed>
  <fix>3d</fix>
</trkpt>
<trkpt lat="40.0728285" lon="-105.2307485">
  <ele>1595.69</ele>
  <time>2026-08-27T18:29:20Z</time>
  <course>35.41</course>
  <speed>0.022360679774997897</speed>
  <fix>3d</fix>
</trkpt>
<trkpt lat="40.0728286" lon="-105.2307486">
  <ele>1595.58</ele>
  <time>2026-08-27T18:29:20Z</time>
  <course>318.09</course>
  <speed>0.04</speed>
  <fix>3d</fix>
</trkpt>
<trkpt lat="40.0728286" lon="-105.2307486">
  <ele>1595.68</ele>
  <time>2026-08-27T18:29:20Z</time>
  <course>35.37</course>
  <speed>0.01414213562373095</speed>
  <fix>3d</fix>
</trkpt>
<trkpt lat="40.0728287" lon="-105.2307486">
  <ele>1595.57</ele>
  <time>2026-08-27T18:29:20Z</time>
  <course>321.26</course>
  <speed>0.04</speed>
  <fix>3d</fix>
</trkpt>
<trkpt lat="40.0728286" lon="-105.2307486">
  <ele>1595.68</ele>
  <time>2026-08-27T18:29:20Z</time>
  <course>35.36</course>
  <speed>0.01414213562373095</speed>
  <fix>3d</fix>
</trkpt>
<trkpt lat="40.0728287" lon="-105.2307486">
  <ele>1595.57</ele>
  <time>2026-08-27T18:29:20Z</time>
  <course>323.78</course>
  <speed>0.04</speed>
  <fix>3d</fix>
</trkpt>
<trkpt lat="40.0728287" lon="-105.2307487">
  <ele>1595.68</ele>
  <time>2026-08-27T18:29:20Z</time>
  <course>35.36</course>
  <speed>0.01</speed>
  <fix>3d</fix>
</trkpt>
<trkpt lat="40.0728288" lon="-105.2307487">
  <ele>1595.57</ele>
  <time>2026-08-27T18:29:20Z</time>
  <course>325.59</course>
  <speed>0.03</speed>
  <fix>3d</fix>
</trkpt>
<trkpt lat="40.0728287" lon="-105.2307487">
  <ele>1595.68</ele>
  <time>2026-08-27T18:29:20Z</time>
  <course>35.36</course>
  <speed>0.01</speed>
  <fix>3d</fix>
</trkpt>
<trkpt lat="40.0728289" lon="-105.2307488">
  <ele>1595.57</ele>
  <time>2026-08-27T18:29:20Z</time>
  <course>326.73</course>
  <speed>0.03</speed>
  <fix>3d</fix>
</trkpt>
<trkpt lat="40.0728288" lon="-105.2307488">
  <ele>1595.68</ele>
  <time>2026-08-27T18:29:20Z</time>
  <course>35.35</course>
  <speed>0.01</speed>
  <fix>3d</fix>
</trkpt>
<trkpt lat="40.072829" lon="-105.2307488">
  <ele>1595.57</ele>
  <time>2026-08-27T18:29:20Z</time>
  <course>327.35</course>
  <speed>0.03</speed>
  <fix>3d</fix>
</trkpt>
<trkpt lat="40.0728288" lon="-105.2307488">
  <ele>1595.67</ele>
  <time>2026-08-27T18:29:20Z</time>
  <course>35.35</course>
  <speed>0.01</speed>
  <fix>3d</fix>
</trkpt>
<trkpt lat="40.072829" lon="-105.2307489">
  <ele>1595.57</ele>
  <time>2026-08-27T18:29:20Z</time>
  <course>327.71</course>
  <speed>0.03</speed>
  <fix>3d</fix>
</trkpt>
<trkpt lat="40.0728289" lon="-105.2307488">
  <ele>1595.67</ele>
  <time>2026-08-27T18:29:20Z</time>
  <course>35.34</course>
  <speed>0.01</speed>
  <fix>3d</fix>
</trkpt>
<trkpt lat="40.0728291" lon="-105.2307489">
  <ele>1595.57</ele>
  <time>2026-08-27T18:29:20Z</time>
  <course>327.79</course>
  <speed>0.03</speed>
  <fix>3d</fix>
</trkpt>
<trkpt lat="40.072829" lon="-105.2307489">
  <ele>1595.67</ele>
  <time>2026-08-27T18:29:20Z</time>
  <course>35.35</course>
  <speed>0.0</speed>
  <fix>3d</fix>
</trkpt>
<trkpt lat="40.0728291" lon="-105.2307489">
  <ele>1595.57</ele>
  <time>2026-08-27T18:29:20Z</time>
  <course>331.69</course>
  <speed>0.02</speed>
  <fix>3d</fix>
</trkpt>
<trkpt lat="40.072829" lon="-105.2307489">
  <ele>1595.67</ele>
  <time>2026-08-27T18:29:20Z</time>
  <course>35.35</course>
  <speed>0.0</speed>
  <fix>3d</fix>
</trkpt>
<trkpt lat="40.0728292" lon="-105.2307489">
  <ele>1595.57</ele>
  <time>2026-08-27T18:29:20Z</time>
  <course>339.32</course>
  <speed>0.02</speed>
  <fix>3d</fix>
</trkpt>
<trkpt lat="40.072829" lon="-105.2307489">
  <ele>1595.68</ele>
  <time>2026-08-27T18:29:20Z</time>
  <course>35.35</course>
  <speed>0.0</speed>
  <fix>3d</fix>
</trkpt>
<trkpt lat="40.0728292" lon="-105.2307489">
  <ele>1595.57</ele>
  <time>2026-08-27T18:29:20Z</time>
  <course>338.32</course>
  <speed>0.02</speed>
  <fix>3d</fix>
</trkpt>
<trkpt lat="40.0728291" lon="-105.2307489">
  <ele>1595.68</ele>
  <time>2026-08-27T18:29:20Z</time>
  <course>35.36</course>
  <speed>0.01</speed>
  <fix>3d</fix>
</trkpt>
<trkpt lat="40.0728292" lon="-105.230749">
  <ele>1595.57</ele>
  <time>2026-08-27T18:29:20Z</time>
  <course>334.99</course>
  <speed>0.02</speed>
  <fix>3d</fix>
</trkpt>
<trkpt lat="40.0728291" lon="-105.230749">
  <ele>1595.68</ele>
  <time>2026-08-27T18:29:20Z</time>
  <course>35.36</course>
  <speed>0.01414213562373095</speed>
  <fix>3d</fix>
</trkpt>
<trkpt lat="40.0728292" lon="-105.2307491">
  <ele>1595.57</ele>
  <time>2026-08-27T18:29:20Z</time>
  <course>330.76</course>
  <speed>0.03</speed>
  <fix>3d</fix>
</trkpt>
<trkpt lat="40.0728292" lon="-105.230749">
  <ele>1595.68</ele>
  <time>2026-08-27T18:29:20Z</time>
  <course>35.36</course>
  <speed>0.01414213562373095</speed>
  <fix>3d</fix>
</trkpt>
<trkpt lat="40.0728293" lon="-105.2307491">
  <ele>1595.57</ele>
  <time>2026-08-27T18:29:20Z</time>
  <course>327.01</course>
  <speed>0.03</speed>
  <fix>3d</fix>
</trkpt>
<trkpt lat="40.0728292" lon="-105.2307491">
  <ele>1595.68</ele>
  <time>2026-08-27T18:29:20Z</time>
  <course>35.36</course>
  <speed>0.022360679774997897</speed>
  <fix>3d</fix>
</trkpt>
<trkpt lat="40.0728294" lon="-105.2307491">
  <ele>1595.57</ele>
  <time>2026-08-27T18:29:20Z</time>
  <course>324.06</course>
  <speed>0.04</speed>
  <fix>3d</fix>
</trkpt>
<trkpt lat="40.0728293" lon="-105.2307491">
  <ele>1595.68</ele>
  <time>2026-08-27T18:29:20Z</time>
  <course>35.36</course>
  <speed>0.022360679774997897</speed>
  <fix>3d</fix>
</trkpt>
<trkpt lat="40.0728295" lon="-105.2307492">
  <ele>1595.57</ele>
  <time>2026-08-27T18:29:20Z</time>
  <course>322.05</course>
  <speed>0.04</speed>
  <fix>3d</fix>
</trkpt>
<trkpt lat="40.0728294" lon="-105.2307492">
  <ele>1595.67</ele>
  <time>2026-08-27T18:29:20Z</time>
  <course>35.36</course>
  <speed>0.0282842712474619</speed>
  <fix>3d</fix>
</trkpt>
<trkpt lat="40.0728295" lon="-105.2307493">
  <ele>1595.57</ele>
  <time>2026-08-27T18:29:20Z</time>
  <course>320.68</course>
  <speed>0.05</speed>
  <fix>3d</fix>
</trkpt>
<trkpt lat="40.0728295" lon="-105.2307493">
  <ele>1595.67</ele>
  <time>2026-08-27T18:29:20Z</time>
  <course>35.36</course>
  <speed>0.03605551275463989</speed>
  <fix>3d</fix>
</trkpt>
<trkpt lat="40.0728296" lon="-105.2307493">
  <ele>1595.57</ele>
  <time>2026-08-27T18:29:20Z</time>
  <course>319.56</course>
  <speed>0.05</speed>
  <fix>3d</fix>
</trkpt>
<trkpt lat="40.0728295" lon="-105.2307494">
  <ele>1595.67</ele>
  <time>2026-08-27T18:29:20Z</time>
  <course>35.36</course>
  <speed>0.03605551275463989</speed>
  <fix>3d</fix>
</trkpt>
<trkpt lat="40.0728297" lon="-105.2307494">
  <ele>1595.57</ele>
  <time>2026-08-27T18:29:20Z</time>
  <course>318.59</course>
  <speed>0.05</speed>
  <fix>3d</fix>
</trkpt>
<trkpt lat="40.0728296" lon="-105.2307495">
  <ele>1595.67</ele>
  <time>2026-08-27T18:29:20Z</time>
  <course>35.36</course>
  <speed>0.03605551275463989</speed>
  <fix>3d</fix>
</trkpt>
<trkpt lat="40.0728297" lon="-105.2307495">
  <ele>1595.57</ele>
  <time>2026-08-27T18:29:20Z</time>
  <course>317.46</course>
  <speed>0.06</speed>
  <fix>3d</fix>
</trkpt>
<trkpt lat="40.0728297" lon="-105.2307496">
  <ele>1595.67</ele>
  <time>2026-08-27T18:29:20Z</time>
  <course>35.35</course>
  <speed>0.03605551275463989</speed>
  <fix>3d</fix>
</trkpt>
<trkpt lat="40.0728298" lon="-105.2307496">
  <ele>1595.57</ele>
  <time>2026-08-27T18:29:20Z</time>
  <course>316.06</course>
  <speed>0.06</speed>
  <fix>3d</fix>
</trkpt>
<trkpt lat="40.0728298" lon="-105.2307497">
  <ele>1595.67</ele>
  <time>2026-08-27T18:29:20Z</time>
  <course>35.34</course>
  <speed>0.03605551275463989</speed>
  <fix>3d</fix>
</trkpt>
<trkpt lat="40.0728299" lon="-105.2307497">
  <ele>1595.57</ele>
  <time>2026-08-27T18:29:20Z</time>
  <course>314.92</course>
  <speed>0.06</speed>
  <fix>3d</fix>
</trkpt>
<trkpt lat="40.0728298" lon="-105.2307498">
  <ele>1595.67</ele>
  <time>2026-08-27T18:29:20Z</time>
  <course>35.34</course>
  <speed>0.03605551275463989</speed>
  <fix>3d</fix>
</trkpt>
<trkpt lat="40.07283" lon="-105.2307498">
  <ele>1595.57</ele>
  <time>2026-08-27T18:29:20Z</time>
  <course>314.22</course>
  <speed>0.06</speed>
  <fix>3d</fix>
</trkpt>
<trkpt lat="40.0728299" lon="-105.2307499">
  <ele>1595.66</ele>
  <time>2026-08-27T18:29:20Z</time>
  <course>35.36</course>
  <speed>0.03605551275463989</speed>
  <fix>3d</fix>
</trkpt>
<trkpt lat="40.0728301" lon="-105.2307499">
  <ele>1595.58</ele>
  <time>2026-08-27T18:29:20Z</time>
  <course>313.87</course>
  <speed>0.06</speed>
  <fix>3d</fix>
</trkpt>
<trkpt lat="40.07283" lon="-105.23075">
  <ele>1595.66</ele>
  <time>2026-08-27T18:29:20Z</time>
  <course>35.32</course>
  <speed>0.05830951894845301</speed>
  <fix>3d</fix>
</trkpt>
<trkpt lat="40.0728301" lon="-105.2307501">
  <ele>1595.58</ele>
  <time>2026-08-27T18:29:20Z</time>
  <course>313.36</course>
  <speed>0.06</speed>
  <fix>3d</fix>
</trkpt>
<trkpt lat="40.0728301" lon="-105.2307501">
  <ele>1595.67</ele>
  <time>2026-08-27T18:29:21Z</time>
  <course>35.35</course>
  <speed>0.05</speed>
  <fix>3d</fix>
</trkpt>
<trkpt lat="40.0728302" lon="-105.2307502">
  <ele>1595.58</ele>
  <time>2026-08-27T18:29:21Z</time>
  <course>313.33</course>
  <speed>0.07</speed>
  <fix>3d</fix>
</trkpt>
<trkpt lat="40.0728302" lon="-105.2307502">
  <ele>1595.67</ele>
  <time>2026-08-27T18:29:21Z</time>
  <course>35.35</course>
  <speed>0.044721359549995794</speed>
  <fix>3d</fix>
</trkpt>
<trkpt lat="40.0728303" lon="-105.2307503">
  <ele>1595.59</ele>
  <time>2026-08-27T18:29:21Z</time>
  <course>312.53</course>
  <speed>0.07</speed>
  <fix>3d</fix>
</trkpt>
<trkpt lat="40.0728303" lon="-105.2307504">
  <ele>1595.68</ele>
  <time>2026-08-27T18:29:21Z</time>
  <course>35.35</course>
  <speed>0.0316227766016838</speed>
  <fix>3d</fix>
</trkpt>
<trkpt lat="40.0728304" lon="-105.2307504">
  <ele>1595.59</ele>
  <time>2026-08-27T18:29:21Z</time>
  <course>311.08</course>
  <speed>0.06</speed>
  <fix>3d</fix>
</trkpt>
<trkpt lat="40.0728303" lon="-105.2307505">
  <ele>1595.68</ele>
  <time>2026-08-27T18:29:21Z</time>
  <course>35.36</course>
  <speed>0.0316227766016838</speed>
  <fix>3d</fix>
</trkpt>
<trkpt lat="40.0728305" lon="-105.2307505">
  <ele>1595.59</ele>
  <time>2026-08-27T18:29:21Z</time>
  <course>311.66</course>
  <speed>0.05</speed>
  <fix>3d</fix>
</trkpt>
<trkpt lat="40.0728304" lon="-105.2307505">
  <ele>1595.68</ele>
  <time>2026-08-27T18:29:21Z</time>
  <course>35.36</course>
  <speed>0.022360679774997897</speed>
  <fix>3d</fix>
</trkpt>
<trkpt lat="40.0728305" lon="-105.2307506">
  <ele>1595.6</ele>
  <time>2026-08-27T18:29:21Z</time>
  <course>314.04</course>
  <speed>0.05</speed>
  <fix>3d</fix>
</trkpt>
<trkpt lat="40.0728304" lon="-105.2307506">
  <ele>1595.68</ele>
  <time>2026-08-27T18:29:21Z</time>
  <course>35.36</course>
  <speed>0.022360679774997897</speed>
  <fix>3d</fix>
</trkpt>
<trkpt lat="40.0728306" lon="-105.2307507">
  <ele>1595.6</ele>
  <time>2026-08-27T18:29:21Z</time>
  <course>317.38</course>
  <speed>0.04</speed>
  <fix>3d</fix>
</trkpt>
<trkpt lat="40.0728305" lon="-105.2307507">
  <ele>1595.68</ele>
  <time>2026-08-27T18:29:21Z</time>
  <course>35.36</course>
  <speed>0.01414213562373095</speed>
  <fix>3d</fix>
</trkpt>
<trkpt lat="40.0728307" lon="-105.2307508">
  <ele>1595.6</ele>
  <time>2026-08-27T18:29:21Z</time>
  <course>320.62</course>
  <speed>0.04</speed>
  <fix>3d</fix>
</trkpt>
<trkpt lat="40.0728306" lon="-105.2307507">
  <ele>1595.69</ele>
  <time>2026-08-27T18:29:21Z</time>
  <course>35.36</course>
  <speed>0.01</speed>
  <fix>3d</fix>
</trkpt>
<trkpt lat="40.0728307" lon="-105.2307508">
  <ele>1595.6</ele>
  <time>2026-08-27T18:29:21Z</time>
  <course>323.07</course>
  <speed>0.04</speed>
  <fix>3d</fix>
</trkpt>
<trkpt lat="40.0728306" lon="-105.2307508">
  <ele>1595.69</ele>
  <time>2026-08-27T18:29:21Z</time>
  <course>35.37</course>
  <speed>0.01</speed>
  <fix>3d</fix>
</trkpt>
<trkpt lat="40.0728308" lon="-105.2307509">
  <ele>1595.6</ele>
  <time>2026-08-27T18:29:21Z</time>
  <course>324.75</course>
  <speed>0.04</speed>
  <fix>3d</fix>
</trkpt>
<trkpt lat="40.0728307" lon="-105.2307508">
  <ele>1595.68</ele>
  <time>2026-08-27T18:29:21Z</time>
  <course>35.37</course>
  <speed>0.01</speed>
  <fix>3d</fix>
</trkpt>
<trkpt lat="40.0728308" lon="-105.230751">
  <ele>1595.6</ele>
  <time>2026-08-27T18:29:21Z</time>
  <course>325.77</course>
  <speed>0.03</speed>
  <fix>3d</fix>
</trkpt>
<trkpt lat="40.0728307" lon="-105.2307509">
  <ele>1595.68</ele>
  <time>2026-08-27T18:29:21Z</time>
  <course>35.37</course>
  <speed>0.01</speed>
  <fix>3d</fix>
</trkpt>
<trkpt lat="40.0728309" lon="-105.230751">
  <ele>1595.59</ele>
  <time>2026-08-27T18:29:21Z</time>
  <course>326.45</course>
  <speed>0.03</speed>
  <fix>3d</fix>
</trkpt>
<trkpt lat="40.0728308" lon="-105.2307509">
  <ele>1595.68</ele>
  <time>2026-08-27T18:29:21Z</time>
  <course>35.37</course>
  <speed>0.01</speed>
  <fix>3d</fix>
</trkpt>
<trkpt lat="40.072831" lon="-105.230751">
  <ele>1595.59</ele>
  <time>2026-08-27T18:29:21Z</time>
  <course>326.98</course>
  <speed>0.03</speed>
  <fix>3d</fix>
</trkpt>
<trkpt lat="40.0728308" lon="-105.230751">
  <ele>1595.69</ele>
  <time>2026-08-27T18:29:21Z</time>
  <course>35.38</course>
  <speed>0.0</speed>
  <fix>3d</fix>
</trkpt>
<trkpt lat="40.072831" lon="-105.230751">
  <ele>1595.59</ele>
  <time>2026-08-27T18:29:21Z</time>
  <course>327.35</course>
  <speed>0.03</speed>
  <fix>3d</fix>
</trkpt>
<trkpt lat="40.0728309" lon="-105.230751">
  <ele>1595.69</ele>
  <time>2026-08-27T18:29:21Z</time>
  <course>35.38</course>
  <speed>0.0</speed>
  <fix>3d</fix>
</trkpt>
<trkpt lat="40.072831" lon="-105.2307511">
  <ele>1595.59</ele>
  <time>2026-08-27T18:29:21Z</time>
  <course>331.47</course>
  <speed>0.02</speed>
  <fix>3d</fix>
</trkpt>
<trkpt lat="40.0728309" lon="-105.230751">
  <ele>1595.69</ele>
  <time>2026-08-27T18:29:21Z</time>
  <course>35.39</course>
  <speed>0.0</speed>
  <fix>3d</fix>
</trkpt>
<trkpt lat="40.072831" lon="-105.2307512">
  <ele>1595.59</ele>
  <time>2026-08-27T18:29:21Z</time>
  <course>341.89</course>
  <speed>0.01</speed>
  <fix>3d</fix>
</trkpt>
<trkpt lat="40.0728309" lon="-105.230751">
  <ele>1595.69</ele>
  <time>2026-08-27T18:29:21Z</time>
  <course>35.37</course>
  <speed>0.0</speed>
  <fix>3d</fix>
</trkpt>
<trkpt lat="40.0728311" lon="-105.2307512">
  <ele>1595.59</ele>
  <time>2026-08-27T18:29:21Z</time>
  <course>341.42</course>
  <speed>0.02</speed>
  <fix>3d</fix>
</trkpt>
<trkpt lat="40.072831" lon="-105.2307511">
  <ele>1595.69</ele>
  <time>2026-08-27T18:29:21Z</time>
  <course>35.38</course>
  <speed>0.0</speed>
  <fix>3d</fix>
</trkpt>
<trkpt lat="40.0728311" lon="-105.2307512">
  <ele>1595.59</ele>
  <time>2026-08-27T18:29:21Z</time>
  <course>335.85</course>
  <speed>0.02</speed>
  <fix>3d</fix>
</trkpt>
<trkpt lat="40.072831" lon="-105.2307511">
  <ele>1595.69</ele>
  <time>2026-08-27T18:29:21Z</time>
  <course>35.39</course>
  <speed>0.01</speed>
  <fix>3d</fix>
</trkpt>
<trkpt lat="40.0728311" lon="-105.2307512">
  <ele>1595.59</ele>
  <time>2026-08-27T18:29:21Z</time>
  <course>330.06</course>
  <speed>0.03</speed>
  <fix>3d</fix>
</trkpt>
<trkpt lat="40.0728311" lon="-105.2307512">
  <ele>1595.69</ele>
  <time>2026-08-27T18:29:21Z</time>
  <course>35.38</course>
  <speed>0.01414213562373095</speed>
  <fix>3d</fix>
</trkpt>
<trkpt lat="40.0728312" lon="-105.2307512">
  <ele>1595.58</ele>
  <time>2026-08-27T18:29:21Z</time>
  <course>325.81</course>
  <speed>0.03</speed>
  <fix>3d</fix>
</trkpt>
<trkpt lat="40.0728311" lon="-105.2307512">
  <ele>1595.68</ele>
  <time>2026-08-27T18:29:21Z</time>
  <course>35.38</course>
  <speed>0.01414213562373095</speed>
  <fix>3d</fix>
</trkpt>
<trkpt lat="40.0728313" lon="-105.2307513">
  <ele>1595.58</ele>
  <time>2026-08-27T18:29:21Z</time>
  <course>323.21</course>
  <speed>0.03</speed>
  <fix>3d</fix>
</trkpt>
<trkpt lat="40.0728312" lon="-105.2307513">
  <ele>1595.68</ele>
  <time>2026-08-27T18:29:21Z</time>
  <course>35.37</course>
  <speed>0.022360679774997897</speed>
  <fix>3d</fix>
</trkpt>
<trkpt lat="40.0728314" lon="-105.2307513">
  <ele>1595.58</ele>
  <time>2026-08-27T18:29:21Z</time>
  <course>321.09</course>
  <speed>0.04</speed>
  <fix>3d</fix>
</trkpt>
<trkpt lat="40.0728312" lon="-105.2307513">
  <ele>1595.68</ele>
  <time>2026-08-27T18:29:21Z</time>
  <course>35.37</course>
  <speed>0.022360679774997897</speed>
  <fix>3d</fix>
</trkpt>
<trkpt lat="40.0728314" lon="-105.2307514">
  <ele>1595.58</ele>
  <time>2026-08-27T18:29:21Z</time>
  <course>319.29</course>
  <speed>0.04</speed>
  <fix>3d</fix>
</trkpt>
<trkpt lat="40.0728313" lon="-105.2307514">
  <ele>1595.68</ele>
  <time>2026-08-27T18:29:21Z</time>
  <course>35.36</course>
  <speed>0.022360679774997897</speed>
  <fix>3d</fix>
</trkpt>
<trkpt lat="40.0728315" lon="-105.2307515">
  <ele>1595.57</ele>
  <time>2026-08-27T18:29:21Z</time>
  <course>318.05</course>
  <speed>0.04</speed>
  <fix>3d</fix>
</trkpt>
<trkpt lat="40.0728314" lon="-105.2307515">
  <ele>1595.67</ele>
  <time>2026-08-27T18:29:21Z</time>
  <course>35.36</course>
  <speed>0.022360679774997897</speed>
  <fix>3d</fix>
</trkpt>
<trkpt lat="40.0728315" lon="-105.2307515">
  <ele>1595.57</ele>
  <time>2026-08-27T18:29:21Z</time>
  <course>316.97</course>
  <speed>0.04</speed>
  <fix>3d</fix>
</trkpt>
<trkpt lat="40.0728314" lon="-105.2307516">
  <ele>1595.66</ele>
  <time>2026-08-27T18:29:21Z</time>
  <course>35.36</course>
  <speed>0.022360679774997897</speed>
  <fix>3d</fix>
</trkpt>
<trkpt lat="40.0728316" lon="-105.2307516">
  <ele>1595.57</ele>
  <time>2026-08-27T18:29:21Z</time>
  <course>316.04</course>
  <speed>0.05</speed>
  <fix>3d</fix>
</trkpt>
<trkpt lat="40.0728315" lon="-105.2307516">
  <ele>1595.67</ele>
  <time>2026-08-27T18:29:21Z</time>
  <course>35.32</course>
  <speed>0.0316227766016838</speed>
  <fix>3d</fix>
</trkpt>
<trkpt lat="40.0728316" lon="-105.2307517">
  <ele>1595.58</ele>
  <time>2026-08-27T18:29:21Z</time>
  <course>315.33</course>
  <speed>0.05</speed>
  <fix>3d</fix>
</trkpt>
<trkpt lat="40.0728316" lon="-105.2307517">
  <ele>1595.67</ele>
  <time>2026-08-27T18:29:21Z</time>
  <course>35.33</course>
  <speed>0.0316227766016838</speed>
  <fix>3d</fix>
</trkpt>
<trkpt lat="40.0728317" lon="-105.2307518">
  <ele>1595.58</ele>
  <time>2026-08-27T18:29:21Z</time>
  <course>314.76</course>
  <speed>0.05</speed>
  <fix>3d</fix>
</trkpt>
<trkpt lat="40.0728316" lon="-105.2307518">
  <ele>1595.67</ele>
  <time>2026-08-27T18:29:21Z</time>
  <course>35.35</course>
  <speed>0.0316227766016838</speed>
  <fix>3d</fix>
</trkpt>
<trkpt lat="40.0728318" lon="-105.2307519">
  <ele>1595.58</ele>
  <time>2026-08-27T18:29:21Z</time>
  <course>314.22</course>
  <speed>0.05</speed>
  <fix>3d</fix>
</trkpt>
<trkpt lat="40.0728317" lon="-105.2307519">
  <ele>1595.68</ele>
  <time>2026-08-27T18:29:21Z</time>
  <course>35.36</course>
  <speed>0.0316227766016838</speed>
  <fix>3d</fix>
</trkpt>
<trkpt lat="40.0728319" lon="-105.230752">
  <ele>1595.58</ele>
  <time>2026-08-27T18:29:21Z</time>
  <course>313.79</course>
  <speed>0.05</speed>
  <fix>3d</fix>
</trkpt>
<trkpt lat="40.0728318" lon="-105.230752">
  <ele>1595.68</ele>
  <time>2026-08-27T18:29:21Z</time>
  <course>35.35</course>
  <speed>0.05</speed>
  <fix>3d</fix>
</trkpt>
<trkpt lat="40.072832" lon="-105.2307521">
  <ele>1595.58</ele>
  <time>2026-08-27T18:29:21Z</time>
  <course>313.66</course>
  <speed>0.06</speed>
  <fix>3d</fix>
</trkpt>
<trkpt lat="40.0728319" lon="-105.2307522">
  <ele>1595.69</ele>
  <time>2026-08-27T18:29:21Z</time>
  <course>35.37</course>
  <speed>0.044721359549995794</speed>
  <fix>3d</fix>
</trkpt>
<trkpt lat="40.072832" lon="-105.2307522">
  <ele>1595.59</ele>
  <time>2026-08-27T18:29:21Z</time>
  <course>313.82</course>
  <speed>0.07</speed>
  <fix>3d</fix>
</trkpt>
<trkpt lat="40.072832" lon="-105.2307523">
  <ele>1595.69</ele>
  <time>2026-08-27T18:29:21Z</time>
  <course>35.38</course>
  <speed>0.044721359549995794</speed>
  <fix>3d</fix>
</trkpt>
<trkpt lat="40.0728321" lon="-105.2307523">
  <ele>1595.59</ele>
  <time>2026-08-27T18:29:21Z</time>
  <course>313.11</course>
  <speed>0.07</speed>
  <fix>3d</fix>
</trkpt>
<trkpt lat="40.072832" lon="-105.2307524">
  <ele>1595.69</ele>
  <time>2026-08-27T18:29:21Z</time>
  <course>35.38</course>
  <speed>0.0316227766016838</speed>
  <fix>3d</fix>
</trkpt>
<trkpt lat="40.0728322" lon="-105.2307525">
  <ele>1595.59</ele>
  <time>2026-08-27T18:29:21Z</time>
  <course>312.08</course>
  <speed>0.06</speed>
  <fix>3d</fix>
</trkpt>
<trkpt lat="40.0728321" lon="-105.2307525">
  <ele>1595.69</ele>
  <time>2026-08-27T18:29:21Z</time>
  <course>35.37</course>
  <speed>0.022360679774997897</speed>
  <fix>3d</fix>
</trkpt>
<trkpt lat="40.0728323" lon="-105.2307526">
  <ele>1595.59</ele>
  <time>2026-08-27T18:29:21Z</time>
  <course>312.65</course>
  <speed>0.05</speed>
  <fix>3d</fix>
</trkpt>
<trkpt lat="40.0728322" lon="-105.2307526">
  <ele>1595.69</ele>
  <time>2026-08-27T18:29:21Z</time>
  <course>35.39</course>
  <speed>0.02</speed>
  <fix>3d</fix>
</trkpt>
<trkpt lat="40.0728323" lon="-105.2307527">
  <ele>1595.59</ele>
  <time>2026-08-27T18:29:21Z</time>
  <course>314.9</course>
  <speed>0.05</speed>
  <fix>3d</fix>
</trkpt>
<trkpt lat="40.0728322" lon="-105.2307526">
  <ele>1595.69</ele>
  <time>2026-08-27T18:29:21Z</time>
  <course>35.39</course>
  <speed>0.01</speed>
  <fix>3d</fix>
</trkpt>
<trkpt lat="40.0728324" lon="-105.2307527">
  <ele>1595.58</ele>
  <time>2026-08-27T18:29:21Z</time>
  <course>318.04</course>
  <speed>0.04</speed>
  <fix>3d</fix>
</trkpt>
<trkpt lat="40.0728323" lon="-105.2307527">
  <ele>1595.69</ele>
  <time>2026-08-27T18:29:21Z</time>
  <course>35.38</course>
  <speed>0.01</speed>
  <fix>3d</fix>
</trkpt>
<trkpt lat="40.0728324" lon="-105.2307528">
  <ele>1595.58</ele>
  <time>2026-08-27T18:29:21Z</time>
  <course>321.18</course>
  <speed>0.04</speed>
  <fix>3d</fix>
</trkpt>
<trkpt lat="40.0728323" lon="-105.2307528">
  <ele>1595.69</ele>
  <time>2026-08-27T18:29:21Z</time>
  <course>35.38</course>
  <speed>0.01</speed>
  <fix>3d</fix>
</trkpt>
<trkpt lat="40.0728325" lon="-105.2307529">
  <ele>1595.58</ele>
  <time>2026-08-27T18:29:21Z</time>
  <course>323.86</course>
  <speed>0.03</speed>
  <fix>3d</fix>
</trkpt>
<trkpt lat="40.0728324" lon="-105.2307528">
  <ele>1595.69</ele>
  <time>2026-08-27T18:29:21Z</time>
  <course>35.38</course>
  <speed>0.01</speed>
  <fix>3d</fix>
</trkpt>
<trkpt lat="40.0728326" lon="-105.2307529">
  <ele>1595.58</ele>
  <time>2026-08-27T18:29:21Z</time>
  <course>325.89</course>
  <speed>0.03</speed>
  <fix>3d</fix>
</trkpt>
<trkpt lat="40.0728324" lon="-105.2307528">
  <ele>1595.69</ele>
  <time>2026-08-27T18:29:21Z</time>
  <course>35.38</course>
  <speed>0.01</speed>
  <fix>3d</fix>
</trkpt>
<trkpt lat="40.0728326" lon="-105.2307529">
  <ele>1595.58</ele>
  <time>2026-08-27T18:29:21Z</time>
  <course>327.43</course>
  <speed>0.03</speed>
  <fix>3d</fix>
</trkpt>
<trkpt lat="40.0728325" lon="-105.2307529">
  <ele>1595.68</ele>
  <time>2026-08-27T18:29:21Z</time>
  <course>35.39</course>
  <speed>0.01</speed>
  <fix>3d</fix>
</trkpt>
<trkpt lat="40.0728327" lon="-105.230753">
  <ele>1595.57</ele>
  <time>2026-08-27T18:29:21Z</time>
  <course>328.44</course>
  <speed>0.03</speed>
  <fix>3d</fix>
</trkpt>
<trkpt lat="40.0728325" lon="-105.2307529">
  <ele>1595.68</ele>
  <time>2026-08-27T18:29:21Z</time>
  <course>35.39</course>
  <speed>0.01</speed>
  <fix>3d</fix>
</trkpt>
<trkpt lat="40.0728328" lon="-105.2307531">
  <ele>1595.57</ele>
  <time>2026-08-27T18:29:21Z</time>
  <course>328.93</course>
  <speed>0.03</speed>
  <fix>3d</fix>
</trkpt>
<trkpt lat="40.0728326" lon="-105.230753">
  <ele>1595.68</ele>
  <time>2026-08-27T18:29:21Z</time>
  <course>35.4</course>
  <speed>0.0</speed>
  <fix>3d</fix>
</trkpt>
<trkpt lat="40.0728328" lon="-105.2307531">
  <ele>1595.57</ele>
  <time>2026-08-27T18:29:21Z</time>
  <course>331.34</course>
  <speed>0.03</speed>
  <fix>3d</fix>
</trkpt>
<trkpt lat="40.0728326" lon="-105.230753">
  <ele>1595.68</ele>
  <time>2026-08-27T18:29:21Z</time>
  <course>35.36</course>
  <speed>0.0</speed>
  <fix>3d</fix>
</trkpt>
<trkpt lat="40.0728329" lon="-105.2307531">
  <ele>1595.57</ele>
  <time>2026-08-27T18:29:21Z</time>
  <course>334.24</course>
  <speed>0.02</speed>
  <fix>3d</fix>
</trkpt>
<trkpt lat="40.0728327" lon="-105.230753">
  <ele>1595.68</ele>
  <time>2026-08-27T18:29:21Z</time>
  <course>35.36</course>
  <speed>0.0</speed>
  <fix>3d</fix>
</trkpt>
<trkpt lat="40.0728329" lon="-105.2307532">
  <ele>1595.57</ele>
  <time>2026-08-27T18:29:21Z</time>
  <course>336.76</course>
  <speed>0.02</speed>
  <fix>3d</fix>
</trkpt>
<trkpt lat="40.0728327" lon="-105.230753">
  <ele>1595.68</ele>
  <time>2026-08-27T18:29:21Z</time>
  <course>35.37</course>
  <speed>0.0</speed>
  <fix>3d</fix>
</trkpt>
<trkpt lat="40.0728329" lon="-105.2307532">
  <ele>1595.57</ele>
  <time>2026-08-27T18:29:21Z</time>
  <course>336.4</course>
  <speed>0.02</speed>
  <fix>3d</fix>
</trkpt>
<trkpt lat="40.0728328" lon="-105.2307531">
  <ele>1595.67</ele>
  <time>2026-08-27T18:29:21Z</time>
  <course>35.36</course>
  <speed>0.01414213562373095</speed>
  <fix>3d</fix>
</trkpt>
<trkpt lat="40.0728329" lon="-105.2307532">
  <ele>1595.57</ele>
  <time>2026-08-27T18:29:21Z</time>
  <course>332.18</course>
  <speed>0.03</speed>
  <fix>3d</fix>
</trkpt>
<trkpt lat="40.0728328" lon="-105.2307531">
  <ele>1595.67</ele>
  <time>2026-08-27T18:29:21Z</time>
  <course>35.36</course>
  <speed>0.01414213562373095</speed>
  <fix>3d</fix>
</trkpt>
<trkpt lat="40.072833" lon="-105.2307532">
  <ele>1595.57</ele>
  <time>2026-08-27T18:29:21Z</time>
  <course>328.6</course>
  <speed>0.03</speed>
  <fix>3d</fix>
</trkpt>
<trkpt lat="40.0728329" lon="-105.2307532">
  <ele>1595.67</ele>
  <time>2026-08-27T18:29:21Z</time>
  <course>35.36</course>
  <speed>0.022360679774997897</speed>
  <fix>3d</fix>
</trkpt>
<trkpt lat="40.0728331" lon="-105.2307533">
  <ele>1595.57</ele>
  <time>2026-08-27T18:29:21Z</time>
  <course>325.66</course>
  <speed>0.04</speed>
  <fix>3d</fix>
</trkpt>
<trkpt lat="40.072833" lon="-105.2307533">
  <ele>1595.67</ele>
  <time>2026-08-27T18:29:21Z</time>
  <course>35.35</course>
  <speed>0.022360679774997897</speed>
  <fix>3d</fix>
</trkpt>
<trkpt lat="40.0728332" lon="-105.2307534">
  <ele>1595.57</ele>
  <time>2026-08-27T18:29:21Z</time>
  <course>323.28</course>
  <speed>0.04</speed>
  <fix>3d</fix>
</trkpt>
<trkpt lat="40.0728331" lon="-105.2307533">
  <ele>1595.67</ele>
  <time>2026-08-27T18:29:21Z</time>
  <course>35.35</course>
  <speed>0.022360679774997897</speed>
  <fix>3d</fix>
</trkpt>
<trkpt lat="40.0728332" lon="-105.2307534">
  <ele>1595.57</ele>
  <time>2026-08-27T18:29:21Z</time>
  <course>321.13</course>
  <speed>0.05</speed>
  <fix>3d</fix>
</trkpt>
<trkpt lat="40.0728331" lon="-105.2307534">
  <ele>1595.67</ele>
  <time>2026-08-27T18:29:21Z</time>
  <course>35.35</course>
  <speed>0.03605551275463989</speed>
  <fix>3d</fix>
</trkpt>
<trkpt lat="40.0728333" lon="-105.2307535">
  <ele>1595.57</ele>
  <time>2026-08-27T18:29:21Z</time>
  <course>319.13</course>
  <speed>0.05</speed>
  <fix>3d</fix>
</trkpt>
<trkpt lat="40.0728332" lon="-105.2307535">
  <ele>1595.66</ele>
  <time>2026-08-27T18:29:21Z</time>
  <course>35.35</course>
  <speed>0.03605551275463989</speed>
  <fix>3d</fix>
</trkpt>
<trkpt lat="40.0728334" lon="-105.2307536">
  <ele>1595.57</ele>
  <time>2026-08-27T18:29:21Z</time>
  <course>317.36</course>
  <speed>0.05</speed>
  <fix>3d</fix>
</trkpt>
<trkpt lat="40.0728333" lon="-105.2307536">
  <ele>1595.66</ele>
  <time>2026-08-27T18:29:21Z</time>
  <course>35.33</course>
  <speed>0.03605551275463989</speed>
  <fix>3d</fix>
</trkpt>
<trkpt lat="40.0728335" lon="-105.2307537">
  <ele>1595.57</ele>
  <time>2026-08-27T18:29:21Z</time>
  <course>316.22</course>
  <speed>0.05</speed>
  <fix>3d</fix>
</trkpt>
<trkpt lat="40.0728334" lon="-105.2307537">
  <ele>1595.66</ele>
  <time>2026-08-27T18:29:21Z</time>
  <course>35.34</course>
  <speed>0.03605551275463989</speed>
  <fix>3d</fix>
</trkpt>
<trkpt lat="40.0728335" lon="-105.2307538">
  <ele>1595.58</ele>
  <time>2026-08-27T18:29:21Z</time>
  <course>315.62</course>
  <speed>0.06</speed>
  <fix>3d</fix>
</trkpt>
<trkpt lat="40.0728335" lon="-105.2307538">
  <ele>1595.67</ele>
  <time>2026-08-27T18:29:21Z</time>
  <course>35.33</course>
  <speed>0.03605551275463989</speed>
  <fix>3d</fix>
</trkpt>
<trkpt lat="40.0728336" lon="-105.2307539">
  <ele>1595.58</ele>
  <time>2026-08-27T18:29:21Z</time>
  <course>315.06</course>
  <speed>0.06</speed>
  <fix>3d</fix>
</trkpt>
<trkpt lat="40.0728335" lon="-105.2307539">
  <ele>1595.67</ele>
  <time>2026-08-27T18:29:21Z</time>
  <course>35.35</course>
  <speed>0.03605551275463989</speed>
  <fix>3d</fix>
</trkpt>
<trkpt lat="40.0728337" lon="-105.230754">
  <ele>1595.59</ele>
  <time>2026-08-27T18:29:21Z</time>
  <course>314.62</course>
  <speed>0.06</speed>
  <fix>3d</fix>
</trkpt>
<trkpt lat="40.0728336" lon="-105.230754">
  <ele>1595.67</ele>
  <time>2026-08-27T18:29:21Z</time>
  <course>35.35</course>
  <speed>0.03605551275463989</speed>
  <fix>3d</fix>
</trkpt>
<trkpt lat="40.0728338" lon="-105.2307541">
  <ele>1595.59</ele>
  <time>2026-08-27T18:29:21Z</time>
  <course>314.32</course>
  <speed>0.06</speed>
  <fix>3d</fix>
</trkpt>
<trkpt lat="40.0728337" lon="-105.2307541">
  <ele>1595.68</ele>
  <time>2026-08-27T18:29:21Z</time>
  <course>35.34</course>
  <speed>0.044721359549995794</speed>
  <fix>3d</fix>
</trkpt>
<trkpt lat="40.0728339" lon="-105.2307542">
  <ele>1595.59</ele>
  <time>2026-08-27T18:29:21Z</time>
  <course>314.28</course>
  <speed>0.06</speed>
  <fix>3d</fix>
</trkpt>
<trkpt lat="40.0728338" lon="-105.2307543">
  <ele>1595.68</ele>
  <time>2026-08-27T18:29:21Z</time>
  <course>35.38</course>
  <speed>0.05</speed>
  <fix>3d</fix>
</trkpt>
<trkpt lat="40.0728339" lon="-105.2307543">
  <ele>1595.6</ele>
  <time>2026-08-27T18:29:21Z</time>
  <course>314.61</course>
  <speed>0.07</speed>
  <fix>3d</fix>
</trkpt>
<trkpt lat="40.0728339" lon="-105.2307544">
  <ele>1595.69</ele>
  <time>2026-08-27T18:29:21Z</time>
  <course>35.39</course>
  <speed>0.044721359549995794</speed>
  <fix>3d</fix>
</trkpt>
<trkpt lat="40.072834" lon="-105.2307544">
  <ele>1595.6</ele>
  <time>2026-08-27T18:29:21Z</time>
  <course>313.68</course>
  <speed>0.07</speed>
  <fix>3d</fix>
</trkpt>
<trkpt lat="40.072834" lon="-105.2307545">
  <ele>1595.69</ele>
  <time>2026-08-27T18:29:21Z</time>
  <course>35.39</course>
  <speed>0.0316227766016838</speed>
  <fix>3d</fix>
</trkpt>
<trkpt lat="40.0728341" lon="-105.2307546">
  <ele>1595.6</ele>
  <time>2026-08-27T18:29:21Z</time>
  <course>312.13</course>
  <speed>0.06</speed>
  <fix>3d</fix>
</trkpt>
<trkpt lat="40.072834" lon="-105.2307546">
  <ele>1595.68</ele>
  <time>2026-08-27T18:29:21Z</time>
  <course>35.39</course>
  <speed>0.0316227766016838</speed>
  <fix>3d</fix>
</trkpt>
<trkpt lat="40.0728342" lon="-105.2307547">
  <ele>1595.6</ele>
  <time>2026-08-27T18:29:21Z</time>
  <course>312.15</course>
  <speed>0.05</speed>
  <fix>3d</fix>
</trkpt>
<trkpt lat="40.0728341" lon="-105.2307547">
  <ele>1595.68</ele>
  <time>2026-08-27T18:29:21Z</time>
  <course>35.39</course>
  <speed>0.022360679774997897</speed>
  <fix>3d</fix>
</trkpt>
<trkpt lat="40.0728343" lon="-105.2307548">
  <ele>1595.6</ele>
  <time>2026-08-27T18:29:21Z</time>
  <course>313.95</course>
  <speed>0.05</speed>
  <fix>3d</fix>
</trkpt>
<trkpt lat="40.0728341" lon="-105.2307547">
  <ele>1595.68</ele>
  <time>2026-08-27T18:29:21Z</time>
  <course>35.38</course>
  <speed>0.01414213562373095</speed>
  <fix>3d</fix>
</trkpt>
<trkpt lat="40.0728344" lon="-105.2307549">
  <ele>1595.6</ele>
  <time>2026-08-27T18:29:21Z</time>
  <course>317.31</course>
  <speed>0.04</speed>
  <fix>3d</fix>
</trkpt>
<trkpt lat="40.0728342" lon="-105.2307548">
  <ele>1595.68</ele>
  <time>2026-08-27T18:29:21Z</time>
  <course>35.38</course>
  <speed>0.01414213562373095</speed>
  <fix>3d</fix>
</trkpt>
<trkpt lat="40.0728344" lon="-105.230755">
  <ele>1595.6</ele>
  <time>2026-08-27T18:29:21Z</time>
  <course>321.2</course>
  <speed>0.04</speed>
  <fix>3d</fix>
</trkpt>
<trkpt lat="40.0728343" lon="-105.2307549">
  <ele>1595.68</ele>
  <time>2026-08-27T18:29:21Z</time>
  <course>35.37</course>
  <speed>0.01414213562373095</speed>
  <fix>3d</fix>
</trkpt>
<trkpt lat="40.0728345" lon="-105.230755">
  <ele>1595.6</ele>
  <time>2026-08-27T18:29:21Z</time>
  <course>324.27</course>
  <speed>0.03</speed>
  <fix>3d</fix>
</trkpt>
<trkpt lat="40.0728343" lon="-105.2307549">
  <ele>1595.69</ele>
  <time>2026-08-27T18:29:21Z</time>
  <course>35.37</course>
  <speed>0.01414213562373095</speed>
  <fix>3d</fix>
</trkpt>
<trkpt lat="40.0728345" lon="-105.2307551">
  <ele>1595.6</ele>
  <time>2026-08-27T18:29:21Z</time>
  <course>326.04</course>
  <speed>0.03</speed>
  <fix>3d</fix>
</trkpt>
<trkpt lat="40.0728344" lon="-105.230755">
  <ele>1595.68</ele>
  <time>2026-08-27T18:29:21Z</time>
  <course>35.37</course>
  <speed>0.01414213562373095</speed>
  <fix>3d</fix>
</trkpt>
<trkpt lat="40.0728346" lon="-105.2307551">
  <ele>1595.6</ele>
  <time>2026-08-27T18:29:21Z</time>
  <course>326.89</course>
  <speed>0.03</speed>
  <fix>3d</fix>
</trkpt>
<trkpt lat="40.0728345" lon="-105.230755">
  <ele>1595.68</ele>
  <time>2026-08-27T18:29:21Z</time>
  <course>35.37</course>
  <speed>0.01414213562373095</speed>
  <fix>3d</fix>
</trkpt>
<trkpt lat="40.0728347" lon="-105.2307551">
  <ele>1595.6</ele>
  <time>2026-08-27T18:29:21Z</time>
  <course>327.12</course>
  <speed>0.03</speed>
  <fix>3d</fix>
</trkpt>
<trkpt lat="40.0728345" lon="-105.2307551">
  <ele>1595.68</ele>
  <time>2026-08-27T18:29:21Z</time>
  <course>35.36</course>
  <speed>0.01414213562373095</speed>
  <fix>3d</fix>
</trkpt>
<trkpt lat="40.0728347" lon="-105.2307552">
  <ele>1595.6</ele>
  <time>2026-08-27T18:29:21Z</time>
  <course>326.98</course>
  <speed>0.03</speed>
  <fix>3d</fix>
</trkpt>
<trkpt lat="40.0728346" lon="-105.2307551">
  <ele>1595.68</ele>
  <time>2026-08-27T18:29:21Z</time>
  <course>35.36</course>
  <speed>0.01</speed>
  <fix>3d</fix>
</trkpt>
<trkpt lat="40.0728347" lon="-105.2307553">
  <ele>1595.6</ele>
  <time>2026-08-27T18:29:21Z</time>
  <course>326.58</course>
  <speed>0.03</speed>
  <fix>3d</fix>
</trkpt>
<trkpt lat="40.0728346" lon="-105.2307552">
  <ele>1595.68</ele>
  <time>2026-08-27T18:29:21Z</time>
  <course>35.37</course>
  <speed>0.0</speed>
  <fix>3d</fix>
</trkpt>
<trkpt lat="40.0728348" lon="-105.2307553">
  <ele>1595.6</ele>
  <time>2026-08-27T18:29:21Z</time>
  <course>329.27</course>
  <speed>0.03</speed>
  <fix>3d</fix>
</trkpt>
<trkpt lat="40.0728347" lon="-105.2307552">
  <ele>1595.67</ele>
  <time>2026-08-27T18:29:21Z</time>
  <course>35.36</course>
  <speed>0.0</speed>
  <fix>3d</fix>
</trkpt>
<trkpt lat="40.0728348" lon="-105.2307553">
  <ele>1595.6</ele>
  <time>2026-08-27T18:29:21Z</time>
  <course>335.23</course>
  <speed>0.02</speed>
  <fix>3d</fix>
</trkpt>
<trkpt lat="40.0728347" lon="-105.2307552">
  <ele>1595.67</ele>
  <time>2026-08-27T18:29:21Z</time>
  <course>35.34</course>
  <speed>0.0</speed>
  <fix>3d</fix>
</trkpt>
<trkpt lat="40.0728348" lon="-105.2307553">
  <ele>1595.61</ele>
  <time>2026-08-27T18:29:21Z</time>
  <course>335.79</course>
  <speed>0.02</speed>
  <fix>3d</fix>
</trkpt>
<trkpt lat="40.0728347" lon="-105.2307552">
  <ele>1595.67</ele>
  <time>2026-08-27T18:29:21Z</time>
  <course>35.34</course>
  <speed>0.0</speed>
  <fix>3d</fix>
</trkpt>
<trkpt lat="40.0728349" lon="-105.2307553">
  <ele>1595.61</ele>
  <time>2026-08-27T18:29:21Z</time>
  <course>334.24</course>
  <speed>0.02</speed>
  <fix>3d</fix>
</trkpt>
<trkpt lat="40.0728348" lon="-105.2307553">
  <ele>1595.67</ele>
  <time>2026-08-27T18:29:21Z</time>
  <course>35.36</course>
  <speed>0.01414213562373095</speed>
  <fix>3d</fix>
</trkpt>
<trkpt lat="40.072835" lon="-105.2307554">
  <ele>1595.61</ele>
  <time>2026-08-27T18:29:21Z</time>
  <course>330.91</course>
  <speed>0.03</speed>
  <fix>3d</fix>
</trkpt>
<trkpt lat="40.0728349" lon="-105.2307553">
  <ele>1595.68</ele>
  <time>2026-08-27T18:29:21Z</time>
  <course>35.36</course>
  <speed>0.01414213562373095</speed>
  <fix>3d</fix>
</trkpt>
<trkpt lat="40.072835" lon="-105.2307555">
  <ele>1595.61</ele>
  <time>2026-08-27T18:29:21Z</time>
  <course>327.83</course>
  <speed>0.03</speed>
  <fix>3d</fix>
</trkpt>
<trkpt lat="40.0728349" lon="-105.2307554">
  <ele>1595.68</ele>
  <time>2026-08-27T18:29:21Z</time>
  <course>35.36</course>
  <speed>0.022360679774997897</speed>
  <fix>3d</fix>
</trkpt>
<trkpt lat="40.0728351" lon="-105.2307555">
  <ele>1595.61</ele>
  <time>2026-08-27T18:29:21Z</time>
  <course>325.14</course>
  <speed>0.04</speed>
  <fix>3d</fix>
</trkpt>
<trkpt lat="40.072835" lon="-105.2307555">
  <ele>1595.69</ele>
  <time>2026-08-27T18:29:21Z</time>
  <course>35.36</course>
  <speed>0.022360679774997897</speed>
  <fix>3d</fix>
</trkpt>
<trkpt lat="40.0728352" lon="-105.2307556">
  <ele>1595.61</ele>
  <time>2026-08-27T18:29:21Z</time>
  <course>322.75</course>
  <speed>0.04</speed>
  <fix>3d</fix>
</trkpt>
<trkpt lat="40.0728351" lon="-105.2307556">
  <ele>1595.69</ele>
  <time>2026-08-27T18:29:21Z</time>
  <course>35.36</course>
  <speed>0.022360679774997897</speed>
  <fix>3d</fix>
</trkpt>
<trkpt lat="40.0728352" lon="-105.2307556">
  <ele>1595.62</ele>
  <time>2026-08-27T18:29:21Z</time>
  <course>320.94</course>
  <speed>0.05</speed>
  <fix>3d</fix>
</trkpt>
<trkpt lat="40.0728351" lon="-105.2307556">
  <ele>1595.69</ele>
  <time>2026-08-27T18:29:21Z</time>
  <course>35.38</course>
  <speed>0.022360679774997897</speed>
  <fix>3d</fix>
</trkpt>
<trkpt lat="40.0728353" lon="-105.2307557">
  <ele>1595.62</ele>
  <time>2026-08-27T18:29:21Z</time>
  <course>319.66</course>
  <speed>0.05</speed>
  <fix>3d</fix>
</trkpt>
<trkpt lat="40.0728352" lon="-105.2307557">
  <ele>1595.69</ele>
  <time>2026-08-27T18:29:21Z</time>
  <course>35.38</course>
  <speed>0.03605551275463989</speed>
  <fix>3d</fix>
</trkpt>
<trkpt lat="40.0728354" lon="-105.2307558">
  <ele>1595.62</ele>
  <time>2026-08-27T18:29:21Z</time>
  <course>318.56</course>
  <speed>0.05</speed>
  <fix>3d</fix>
</trkpt>
<trkpt lat="40.0728353" lon="-105.2307558">
  <ele>1595.68</ele>
  <time>2026-08-27T18:29:21Z</time>
  <course>35.37</course>
  <speed>0.03605551275463989</speed>
  <fix>3d</fix>
</trkpt>
<trkpt lat="40.0728354" lon="-105.2307559">
  <ele>1595.62</ele>
  <time>2026-08-27T18:29:21Z</time>
  <course>317.76</course>
  <speed>0.05</speed>
  <fix>3d</fix>
</trkpt>
<trkpt lat="40.0728354" lon="-105.2307559">
  <ele>1595.68</ele>
  <time>2026-08-27T18:29:21Z</time>
  <course>35.36</course>
  <speed>0.03605551275463989</speed>
  <fix>3d</fix>
</trkpt>
<trkpt lat="40.0728355" lon="-105.230756">
  <ele>1595.62</ele>
  <time>2026-08-27T18:29:21Z</time>
  <course>317.45</course>
  <speed>0.05</speed>
  <fix>3d</fix>
</trkpt>
<trkpt lat="40.0728354" lon="-105.230756">
  <ele>1595.67</ele>
  <time>2026-08-27T18:29:21Z</time>
  <course>35.36</course>
  <speed>0.03605551275463989</speed>
  <fix>3d</fix>
</trkpt>
<trkpt lat="40.0728356" lon="-105.2307561">
  <ele>1595.62</ele>
  <time>2026-08-27T18:29:21Z</time>
  <course>317.42</course>
  <speed>0.05</speed>
  <fix>3d</fix>
</trkpt>
<trkpt lat="40.0728355" lon="-105.2307561">
  <ele>1595.68</ele>
  <time>2026-08-27T18:29:21Z</time>
  <course>35.36</course>
  <speed>0.03605551275463989</speed>
  <fix>3d</fix>
</trkpt>
<trkpt lat="40.0728357" lon="-105.2307562">
  <ele>1595.62</ele>
  <time>2026-08-27T18:29:21Z</time>
  <course>317.51</course>
  <speed>0.06</speed>
  <fix>3d</fix>
</trkpt>
<trkpt lat="40.0728356" lon="-105.2307562">
  <ele>1595.68</ele>
  <time>2026-08-27T18:29:21Z</time>
  <course>35.35</course>
  <speed>0.03605551275463989</speed>
  <fix>3d</fix>
</trkpt>
<trkpt lat="40.0728358" lon="-105.2307563">
  <ele>1595.62</ele>
  <time>2026-08-27T18:29:21Z</time>
  <course>317.48</course>
  <speed>0.06</speed>
  <fix>3d</fix>
</trkpt>
<trkpt lat="40.0728357" lon="-105.2307563">
  <ele>1595.68</ele>
  <time>2026-08-27T18:29:21Z</time>
  <course>35.34</course>
  <speed>0.05</speed>
  <fix>3d</fix>
</trkpt>
<trkpt lat="40.0728358" lon="-105.2307564">
  <ele>1595.62</ele>
  <time>2026-08-27T18:29:21Z</time>
  <course>316.86</course>
  <speed>0.06</speed>
  <fix>3d</fix>
</trkpt>
<trkpt lat="40.0728358" lon="-105.2307564">
  <ele>1595.69</ele>
  <time>2026-08-27T18:29:21Z</time>
  <course>35.38</course>
  <speed>0.05</speed>
  <fix>3d</fix>
</trkpt>
<trkpt lat="40.0728359" lon="-105.2307565">
  <ele>1595.62</ele>
  <time>2026-08-27T18:29:21Z</time>
  <course>316.59</course>
  <speed>0.07</speed>
  <fix>3d</fix>
</trkpt>
<trkpt lat="40.0728359" lon="-105.2307566">
  <ele>1595.69</ele>
  <time>2026-08-27T18:29:21Z</time>
  <course>35.37</course>
  <speed>0.044721359549995794</speed>
  <fix>3d</fix>
</trkpt>
<trkpt lat="40.072836" lon="-105.2307566">
  <ele>1595.62</ele>
  <time>2026-08-27T18:29:21Z</time>
  <course>315.49</course>
  <speed>0.07</speed>
  <fix>3d</fix>
</trkpt>
<trkpt lat="40.072836" lon="-105.2307567">
  <ele>1595.69</ele>
  <time>2026-08-27T18:29:21Z</time>
  <course>35.38</course>
  <speed>0.03605551275463989</speed>
  <fix>3d</fix>
</trkpt>
<trkpt lat="40.0728361" lon="-105.2307567">
  <ele>1595.62</ele>
  <time>2026-08-27T18:29:21Z</time>
  <course>313.71</course>
  <speed>0.06</speed>
  <fix>3d</fix>
</trkpt>
<trkpt lat="40.072836" lon="-105.2307568">
  <ele>1595.69</ele>
  <time>2026-08-27T18:29:21Z</time>
  <course>35.38</course>
  <speed>0.0316227766016838</speed>
  <fix>3d</fix>
</trkpt>
<trkpt lat="40.0728362" lon="-105.2307568">
  <ele>1595.62</ele>
  <time>2026-08-27T18:29:21Z</time>
  <course>313.83</course>
  <speed>0.05</speed>
  <fix>3d</fix>
</trkpt>
<trkpt lat="40.0728361" lon="-105.2307568">
  <ele>1595.69</ele>
  <time>2026-08-27T18:29:21Z</time>
  <course>35.38</course>
  <speed>0.022360679774997897</speed>
  <fix>3d</fix>
</trkpt>
<trkpt lat="40.0728363" lon="-105.2307569">
  <ele>1595.62</ele>
  <time>2026-08-27T18:29:21Z</time>
  <course>315.86</course>
  <speed>0.05</speed>
  <fix>3d</fix>
</trkpt>
<trkpt lat="40.0728362" lon="-105.2307569">
  <ele>1595.69</ele>
  <time>2026-08-27T18:29:21Z</time>
  <course>35.36</course>
  <speed>0.022360679774997897</speed>
  <fix>3d</fix>
</trkpt>
<trkpt lat="40.0728363" lon="-105.230757">
  <ele>1595.62</ele>
  <time>2026-08-27T18:29:21Z</time>
  <course>319.13</course>
  <speed>0.04</speed>
  <fix>3d</fix>
</trkpt>
<trkpt lat="40.0728362" lon="-105.230757">
  <ele>1595.69</ele>
  <time>2026-08-27T18:29:21Z</time>
  <course>35.37</course>
  <speed>0.01414213562373095</speed>
  <fix>3d</fix>
</trkpt>
<trkpt lat="40.0728364" lon="-105.230757">
  <ele>1595.61</ele>
  <time>2026-08-27T18:29:21Z</time>
  <course>322.33</course>
  <speed>0.04</speed>
  <fix>3d</fix>
</trkpt>
<trkpt lat="40.0728363" lon="-105.230757">
  <ele>1595.69</ele>
  <time>2026-08-27T18:29:21Z</time>
  <course>35.37</course>
  <speed>0.01414213562373095</speed>
  <fix>3d</fix>
</trkpt>
<trkpt lat="40.0728365" lon="-105.2307571">
  <ele>1595.61</ele>
  <time>2026-08-27T18:29:21Z</time>
  <course>324.54</course>
  <speed>0.04</speed>
  <fix>3d</fix>
</trkpt>
<trkpt lat="40.0728363" lon="-105.2307571">
  <ele>1595.69</ele>
  <time>2026-08-27T18:29:21Z</time>
  <course>35.37</course>
  <speed>0.01414213562373095</speed>
  <fix>3d</fix>
</trkpt>
<trkpt lat="40.0728365" lon="-105.2307572">
  <ele>1595.61</ele>
  <time>2026-08-27T18:29:21Z</time>
  <course>325.93</course>
  <speed>0.03</speed>
  <fix>3d</fix>
</trkpt>
<trkpt lat="40.0728364" lon="-105.2307571">
  <ele>1595.69</ele>
  <time>2026-08-27T18:29:21Z</time>
  <course>35.37</course>
  <speed>0.01</speed>
  <fix>3d</fix>
</trkpt>
<trkpt lat="40.0728365" lon="-105.2307572">
  <ele>1595.61</ele>
  <time>2026-08-27T18:29:21Z</time>
  <course>326.63</course>
  <speed>0.03</speed>
  <fix>3d</fix>
</trkpt>
<trkpt lat="40.0728365" lon="-105.2307572">
  <ele>1595.69</ele>
  <time>2026-08-27T18:29:21Z</time>
  <course>35.38</course>
  <speed>0.01</speed>
  <fix>3d</fix>
</trkpt>
<trkpt lat="40.0728366" lon="-105.2307572">
  <ele>1595.61</ele>
  <time>2026-08-27T18:29:21Z</time>
  <course>326.83</course>
  <speed>0.03</speed>
  <fix>3d</fix>
</trkpt>
<trkpt lat="40.0728365" lon="-105.2307572">
  <ele>1595.69</ele>
  <time>2026-08-27T18:29:21Z</time>
  <course>35.37</course>
  <speed>0.01</speed>
  <fix>3d</fix>
</trkpt>
<trkpt lat="40.0728366" lon="-105.2307572">
  <ele>1595.6</ele>
  <time>2026-08-27T18:29:21Z</time>
  <course>326.98</course>
  <speed>0.03</speed>
  <fix>3d</fix>
</trkpt>
<trkpt lat="40.0728366" lon="-105.2307573">
  <ele>1595.69</ele>
  <time>2026-08-27T18:29:21Z</time>
  <course>35.37</course>
  <speed>0.01</speed>
  <fix>3d</fix>
</trkpt>
<trkpt lat="40.0728367" lon="-105.2307573">
  <ele>1595.6</ele>
  <time>2026-08-27T18:29:21Z</time>
  <course>327.2</course>
  <speed>0.03</speed>
  <fix>3d</fix>
</trkpt>
<trkpt lat="40.0728366" lon="-105.2307573">
  <ele>1595.69</ele>
  <time>2026-08-27T18:29:21Z</time>
  <course>35.38</course>
  <speed>0.0</speed>
  <fix>3d</fix>
</trkpt>
<trkpt lat="40.0728368" lon="-105.2307574">
  <ele>1595.6</ele>
  <time>2026-08-27T18:29:21Z</time>
  <course>331.39</course>
  <speed>0.02</speed>
  <fix>3d</fix>
</trkpt>
<trkpt lat="40.0728366" lon="-105.2307573">
  <ele>1595.69</ele>
  <time>2026-08-27T18:29:21Z</time>
  <course>35.38</course>
  <speed>0.0</speed>
  <fix>3d</fix>
</trkpt>
<trkpt lat="40.0728368" lon="-105.2307574">
  <ele>1595.6</ele>
  <time>2026-08-27T18:29:21Z</time>
  <course>341.72</course>
  <speed>0.01</speed>
  <fix>3d</fix>
</trkpt>
<trkpt lat="40.0728367" lon="-105.2307573">
  <ele>1595.69</ele>
  <time>2026-08-27T18:29:21Z</time>
  <course>35.38</course>
  <speed>0.0</speed>
  <fix>3d</fix>
</trkpt>
<trkpt lat="40.0728368" lon="-105.2307574">
  <ele>1595.59</ele>
  <time>2026-08-27T18:29:21Z</time>
  <course>340.97</course>
  <speed>0.01</speed>
  <fix>3d</fix>
</trkpt>
<trkpt lat="40.0728367" lon="-105.2307573">
  <ele>1595.69</ele>
  <time>2026-08-27T18:29:21Z</time>
  <course>35.37</course>
  <speed>0.0</speed>
  <fix>3d</fix>
</trkpt>
<trkpt lat="40.0728369" lon="-105.2307574">
  <ele>1595.59</ele>
  <time>2026-08-27T18:29:21Z</time>
  <course>336.33</course>
  <speed>0.02</speed>
  <fix>3d</fix>
</trkpt>
<trkpt lat="40.0728368" lon="-105.2307574">
  <ele>1595.69</ele>
  <time>2026-08-27T18:29:21Z</time>
  <course>35.37</course>
  <speed>0.01</speed>
  <fix>3d</fix>
</trkpt>
<trkpt lat="40.0728369" lon="-105.2307575">
  <ele>1595.59</ele>
  <time>2026-08-27T18:29:21Z</time>
  <course>330.54</course>
  <speed>0.03</speed>
  <fix>3d</fix>
</trkpt>
<trkpt lat="40.0728368" lon="-105.2307574">
  <ele>1595.68</ele>
  <time>2026-08-27T18:29:21Z</time>
  <course>35.38</course>
  <speed>0.01414213562373095</speed>
  <fix>3d</fix>
</trkpt>
<trkpt lat="40.0728369" lon="-105.2307575">
  <ele>1595.59</ele>
  <time>2026-08-27T18:29:21Z</time>
  <course>326.2</course>
  <speed>0.03</speed>
  <fix>3d</fix>
</trkpt>
<trkpt lat="40.0728369" lon="-105.2307575">
  <ele>1595.68</ele>
  <time>2026-08-27T18:29:21Z</time>
  <course>35.37</course>
  <speed>0.022360679774997897</speed>
  <fix>3d</fix>
</trkpt>
<trkpt lat="40.072837" lon="-105.2307575">
  <ele>1595.58</ele>
  <time>2026-08-27T18:29:21Z</time>
  <course>323.37</course>
  <speed>0.03</speed>
  <fix>3d</fix>
</trkpt>
<trkpt lat="40.0728369" lon="-105.2307575">
  <ele>1595.68</ele>
  <time>2026-08-27T18:29:21Z</time>
  <course>35.36</course>
  <speed>0.022360679774997897</speed>
  <fix>3d</fix>
</trkpt>
<trkpt lat="40.0728371" lon="-105.2307575">
  <ele>1595.58</ele>
  <time>2026-08-27T18:29:21Z</time>
  <course>321.49</course>
  <speed>0.04</speed>
  <fix>3d</fix>
</trkpt>
<trkpt lat="40.072837" lon="-105.2307576">
  <ele>1595.68</ele>
  <time>2026-08-27T18:29:21Z</time>
  <course>35.38</course>
  <speed>0.022360679774997897</speed>
  <fix>3d</fix>
</trkpt>
<trkpt lat="40.0728371" lon="-105.2307576">
  <ele>1595.58</ele>
  <time>2026-08-27T18:29:21Z</time>
  <course>320.21</course>
  <speed>0.04</speed>
  <fix>3d</fix>
</trkpt>
<trkpt lat="40.072837" lon="-105.2307577">
  <ele>1595.68</ele>
  <time>2026-08-27T18:29:22Z</time>
  <course>35.37</course>
  <speed>0.022360679774997897</speed>
  <fix>3d</fix>
</trkpt>
<trkpt lat="40.0728371" lon="-105.2307577">
  <ele>1595.58</ele>
  <time>2026-08-27T18:29:22Z</time>
  <course>318.88</course>
  <speed>0.04</speed>
  <fix>3d</fix>
</trkpt>
<trkpt lat="40.0728371" lon="-105.2307577">
  <ele>1595.68</ele>
  <time>2026-08-27T18:29:22Z</time>
  <course>35.36</course>
  <speed>0.022360679774997897</speed>
  <fix>3d</fix>
</trkpt>
<trkpt lat="40.0728372" lon="-105.2307578">
  <ele>1595.58</ele>
  <time>2026-08-27T18:29:22Z</time>
  <course>317.82</course>
  <speed>0.05</speed>
  <fix>3d</fix>
</trkpt>
<trkpt lat="40.0728372" lon="-105.2307578">
  <ele>1595.68</ele>
  <time>2026-08-27T18:29:22Z</time>
  <course>35.35</course>
  <speed>0.0316227766016838</speed>
  <fix>3d</fix>
</trkpt>
<trkpt lat="40.0728373" lon="-105.2307579">
  <ele>1595.58</ele>
  <time>2026-08-27T18:29:22Z</time>
  <course>317.25</course>
  <speed>0.05</speed>
  <fix>3d</fix>
</trkpt>
<trkpt lat="40.0728372" lon="-105.2307579">
  <ele>1595.68</ele>
  <time>2026-08-27T18:29:22Z</time>
  <course>35.36</course>
  <speed>0.0316227766016838</speed>
  <fix>3d</fix>
</trkpt>
<trkpt lat="40.0728374" lon="-105.230758">
  <ele>1595.58</ele>
  <time>2026-08-27T18:29:22Z</time>
  <course>316.88</course>
  <speed>0.05</speed>
  <fix>3d</fix>
</trkpt>
<trkpt lat="40.0728373" lon="-105.230758">
  <ele>1595.67</ele>
  <time>2026-08-27T18:29:22Z</time>
  <course>35.36</course>
  <speed>0.0316227766016838</speed>
  <fix>3d</fix>
</trkpt>
<trkpt lat="40.0728375" lon="-105.230758">
  <ele>1595.58</ele>
  <time>2026-08-27T18:29:22Z</time>
  <course>316.26</course>
  <speed>0.05</speed>
  <fix>3d</fix>
</trkpt>
<trkpt lat="40.0728374" lon="-105.2307581">
  <ele>1595.67</ele>
  <time>2026-08-27T18:29:22Z</time>
  <course>35.36</course>
  <speed>0.0316227766016838</speed>
  <fix>3d</fix>
</trkpt>
<trkpt lat="40.0728375" lon="-105.2307581">
  <ele>1595.58</ele>
  <time>2026-08-27T18:29:22Z</time>
  <course>315.62</course>
  <speed>0.05</speed>
  <fix>3d</fix>
</trkpt>
<trkpt lat="40.0728374" lon="-105.2307582">
  <ele>1595.67</ele>
  <time>2026-08-27T18:29:22Z</time>
  <course>35.36</course>
  <speed>0.0316227766016838</speed>
  <fix>3d</fix>
</trkpt>
<trkpt lat="40.0728376" lon="-105.2307582">
  <ele>1595.58</ele>
  <time>2026-08-27T18:29:22Z</time>
  <course>315.23</course>
  <speed>0.05</speed>
  <fix>3d</fix>
</trkpt>
<trkpt lat="40.0728375" lon="-105.2307583">
  <ele>1595.67</ele>
  <time>2026-08-27T18:29:22Z</time>
  <course>35.34</course>
  <speed>0.05</speed>
  <fix>3d</fix>
</trkpt>
<trkpt lat="40.0728377" lon="-105.2307583">
  <ele>1595.58</ele>
  <time>2026-08-27T18:29:22Z</time>
  <course>314.92</course>
  <speed>0.06</speed>
  <fix>3d</fix>
</trkpt>
<trkpt lat="40.0728376" lon="-105.2307584">
  <ele>1595.67</ele>
  <time>2026-08-27T18:29:22Z</time>
  <course>35.35</course>
  <speed>0.05</speed>
  <fix>3d</fix>
</trkpt>
<trkpt lat="40.0728378" lon="-105.2307585">
  <ele>1595.58</ele>
  <time>2026-08-27T18:29:22Z</time>
  <course>315.16</course>
  <speed>0.07</speed>
  <fix>3d</fix>
</trkpt>
<trkpt lat="40.0728377" lon="-105.2307585">
  <ele>1595.67</ele>
  <time>2026-08-27T18:29:22Z</time>
  <course>35.35</course>
  <speed>0.044721359549995794</speed>
  <fix>3d</fix>
</trkpt>
<trkpt lat="40.0728378" lon="-105.2307586">
  <ele>1595.58</ele>
  <time>2026-08-27T18:29:22Z</time>
  <course>314.55</course>
  <speed>0.07</speed>
  <fix>3d</fix>
</trkpt>
<trkpt lat="40.0728378" lon="-105.2307586">
  <ele>1595.67</ele>
  <time>2026-08-27T18:29:22Z</time>
  <course>35.34</course>
  <speed>0.0316227766016838</speed>
  <fix>3d</fix>
</trkpt>
<trkpt lat="40.0728379" lon="-105.2307587">
  <ele>1595.58</ele>
  <time>2026-08-27T18:29:22Z</time>
  <course>313.48</course>
  <speed>0.06</speed>
  <fix>3d</fix>
</trkpt>
<trkpt lat="40.0728379" lon="-105.2307587">
  <ele>1595.67</ele>
  <time>2026-08-27T18:29:22Z</time>
  <course>35.34</course>
  <speed>0.022360679774997897</speed>
  <fix>3d</fix>
</trkpt>
<trkpt lat="40.072838" lon="-105.2307588">
  <ele>1595.59</ele>
  <time>2026-08-27T18:29:22Z</time>
  <course>314.18</course>
  <speed>0.05</speed>
  <fix>3d</fix>
</trkpt>
<trkpt lat="40.0728379" lon="-105.2307588">
  <ele>1595.67</ele>
  <time>2026-08-27T18:29:22Z</time>
  <course>35.34</course>
  <speed>0.022360679774997897</speed>
  <fix>3d</fix>
</trkpt>
<trkpt lat="40.0728381" lon="-105.2307589">
  <ele>1595.59</ele>
  <time>2026-08-27T18:29:22Z</time>
  <course>316.3</course>
  <speed>0.05</speed>
  <fix>3d</fix>
</trkpt>
<trkpt lat="40.072838" lon="-105.2307589">
  <ele>1595.67</ele>
  <time>2026-08-27T18:29:22Z</time>
  <course>35.34</course>
  <speed>0.01</speed>
  <fix>3d</fix>
</trkpt>
<trkpt lat="40.0728382" lon="-105.2307589">
  <ele>1595.59</ele>
  <time>2026-08-27T18:29:22Z</time>
  <course>319.06</course>
  <speed>0.04</speed>
  <fix>3d</fix>
</trkpt>
<trkpt lat="40.0728381" lon="-105.2307589">
  <ele>1595.67</ele>
  <time>2026-08-27T18:29:22Z</time>
  <course>35.34</course>
  <speed>0.01</speed>
  <fix>3d</fix>
</trkpt>
<trkpt lat="40.0728382" lon="-105.230759">
  <ele>1595.59</ele>
  <time>2026-08-27T18:29:22Z</time>
  <course>321.84</course>
  <speed>0.04</speed>
  <fix>3d</fix>
</trkpt>
<trkpt lat="40.0728381" lon="-105.230759">
  <ele>1595.67</ele>
  <time>2026-08-27T18:29:22Z</time>
  <course>35.36</course>
  <speed>0.01</speed>
  <fix>3d</fix>
</trkpt>
<trkpt lat="40.0728383" lon="-105.2307591">
  <ele>1595.59</ele>
  <time>2026-08-27T18:29:22Z</time>
  <course>324.08</course>
  <speed>0.04</speed>
  <fix>3d</fix>
</trkpt>
<trkpt lat="40.0728382" lon="-105.2307591">
  <ele>1595.68</ele>
  <time>2026-08-27T18:29:22Z</time>
  <course>35.36</course>
  <speed>0.01</speed>
  <fix>3d</fix>
</trkpt>
<trkpt lat="40.0728383" lon="-105.2307591">
  <ele>1595.59</ele>
  <time>2026-08-27T18:29:22Z</time>
  <course>325.53</course>
  <speed>0.03</speed>
  <fix>3d</fix>
</trkpt>
<trkpt lat="40.0728382" lon="-105.2307591">
  <ele>1595.68</ele>
  <time>2026-08-27T18:29:22Z</time>
  <course>35.37</course>
  <speed>0.01</speed>
  <fix>3d</fix>
</trkpt>
<trkpt lat="40.0728383" lon="-105.2307592">
  <ele>1595.6</ele>
  <time>2026-08-27T18:29:22Z</time>
  <course>326.35</course>
  <speed>0.03</speed>
  <fix>3d</fix>
</trkpt>
<trkpt lat="40.0728383" lon="-105.2307591">
  <ele>1595.68</ele>
  <time>2026-08-27T18:29:22Z</time>
  <course>35.38</course>
  <speed>0.01</speed>
  <fix>3d</fix>
</trkpt>
<trkpt lat="40.0728384" lon="-105.2307592">
  <ele>1595.6</ele>
  <time>2026-08-27T18:29:22Z</time>
  <course>326.97</course>
  <speed>0.03</speed>
  <fix>3d</fix>
</trkpt>
<trkpt lat="40.0728383" lon="-105.2307592">
  <ele>1595.68</ele>
  <time>2026-08-27T18:29:22Z</time>
  <course>35.38</course>
  <speed>0.0</speed>
  <fix>3d</fix>
</trkpt>
<trkpt lat="40.0728384" lon="-105.2307592">
  <ele>1595.6</ele>
  <time>2026-08-27T18:29:22Z</time>
  <course>327.72</course>
  <speed>0.03</speed>
  <fix>3d</fix>
</trkpt>
<trkpt lat="40.0728384" lon="-105.2307592">
  <ele>1595.68</ele>
  <time>2026-08-27T18:29:22Z</time>
  <course>35.39</course>
  <speed>0.0</speed>
  <fix>3d</fix>
</trkpt>
<trkpt lat="40.0728385" lon="-105.2307593">
  <ele>1595.6</ele>
  <time>2026-08-27T18:29:22Z</time>
  <course>328.79</course>
  <speed>0.03</speed>
  <fix>3d</fix>
</trkpt>
<trkpt lat="40.0728384" lon="-105.2307592">
  <ele>1595.67</ele>
  <time>2026-08-27T18:29:22Z</time>
  <course>35.35</course>
  <speed>0.0</speed>
  <fix>3d</fix>
</trkpt>
<trkpt lat="40.0728386" lon="-105.2307594">
  <ele>1595.6</ele>
  <time>2026-08-27T18:29:22Z</time>
  <course>332.21</course>
  <speed>0.02</speed>
  <fix>3d</fix>
</trkpt>
<trkpt lat="40.0728384" lon="-105.2307592">
  <ele>1595.67</ele>
  <time>2026-08-27T18:29:22Z</time>
  <course>35.35</course>
  <speed>0.0</speed>
  <fix>3d</fix>
</trkpt>
<trkpt lat="40.0728386" lon="-105.2307594">
  <ele>1595.6</ele>
  <time>2026-08-27T18:29:22Z</time>
  <course>341.49</course>
  <speed>0.01</speed>
  <fix>3d</fix>
</trkpt>
<trkpt lat="40.0728385" lon="-105.2307593">
  <ele>1595.66</ele>
  <time>2026-08-27T18:29:22Z</time>
  <course>35.32</course>
  <speed>0.0</speed>
  <fix>3d</fix>
</trkpt>
<trkpt lat="40.0728387" lon="-105.2307594">
  <ele>1595.6</ele>
  <time>2026-08-27T18:29:22Z</time>
  <course>342.19</course>
  <speed>0.02</speed>
  <fix>3d</fix>
</trkpt>
<trkpt lat="40.0728385" lon="-105.2307593">
  <ele>1595.66</ele>
  <time>2026-08-27T18:29:22Z</time>
  <course>35.33</course>
  <speed>0.0</speed>
  <fix>3d</fix>
</trkpt>
<trkpt lat="40.0728387" lon="-105.2307594">
  <ele>1595.6</ele>
  <time>2026-08-27T18:29:22Z</time>
  <course>336.45</course>
  <speed>0.02</speed>
  <fix>3d</fix>
</trkpt>
<trkpt lat="40.0728386" lon="-105.2307593">
  <ele>1595.66</ele>
  <time>2026-08-27T18:29:22Z</time>
  <course>35.31</course>
  <speed>0.01414213562373095</speed>
  <fix>3d</fix>
</trkpt>
<trkpt lat="40.0728388" lon="-105.2307594">
  <ele>1595.6</ele>
  <time>2026-08-27T18:29:22Z</time>
  <course>331.46</course>
  <speed>0.03</speed>
  <fix>3d</fix>
</trkpt>
<trkpt lat="40.0728386" lon="-105.2307594">
  <ele>1595.67</ele>
  <time>2026-08-27T18:29:22Z</time>
  <course>35.31</course>
  <speed>0.01414213562373095</speed>
  <fix>3d</fix>
</trkpt>
<trkpt lat="40.0728388" lon="-105.2307594">
  <ele>1595.61</ele>
  <time>2026-08-27T18:29:22Z</time>
  <course>327.18</course>
  <speed>0.04</speed>
  <fix>3d</fix>
</trkpt>
<trkpt lat="40.0728387" lon="-105.2307594">
  <ele>1595.67</ele>
  <time>2026-08-27T18:29:22Z</time>
  <course>35.34</course>
  <speed>0.022360679774997897</speed>
  <fix>3d</fix>
</trkpt>
<trkpt lat="40.0728389" lon="-105.2307595">
  <ele>1595.61</ele>
  <time>2026-08-27T18:29:22Z</time>
  <course>323.92</course>
  <speed>0.04</speed>
  <fix>3d</fix>
</trkpt>
<trkpt lat="40.0728388" lon="-105.2307595">
  <ele>1595.68</ele>
  <time>2026-08-27T18:29:22Z</time>
  <course>35.35</course>
  <speed>0.022360679774997897</speed>
  <fix>3d</fix>
</trkpt>
<trkpt lat="40.0728389" lon="-105.2307596">
  <ele>1595.62</ele>
  <time>2026-08-27T18:29:22Z</time>
  <course>321.91</course>
  <speed>0.04</speed>
  <fix>3d</fix>
</trkpt>
<trkpt lat="40.0728388" lon="-105.2307596">
  <ele>1595.68</ele>
  <time>2026-08-27T18:29:22Z</time>
  <course>35.35</course>
  <speed>0.022360679774997897</speed>
  <fix>3d</fix>
</trkpt>
<trkpt lat="40.072839" lon="-105.2307596">
  <ele>1595.62</ele>
  <time>2026-08-27T18:29:22Z</time>
  <course>320.53</course>
  <speed>0.05</speed>
  <fix>3d</fix>
</trkpt>
<trkpt lat="40.0728389" lon="-105.2307597">
  <ele>1595.68</ele>
  <time>2026-08-27T18:29:22Z</time>
  <course>35.36</course>
  <speed>0.03605551275463989</speed>
  <fix>3d</fix>
</trkpt>
<trkpt lat="40.0728391" lon="-105.2307597">
  <ele>1595.62</ele>
  <time>2026-08-27T18:29:22Z</time>
  <course>319.46</course>
  <speed>0.05</speed>
  <fix>3d</fix>
</trkpt>
<trkpt lat="40.072839" lon="-105.2307598">
  <ele>1595.68</ele>
  <time>2026-08-27T18:29:22Z</time>
  <course>35.36</course>
  <speed>0.03605551275463989</speed>
  <fix>3d</fix>
</trkpt>
<trkpt lat="40.0728392" lon="-105.2307598">
  <ele>1595.62</ele>
  <time>2026-08-27T18:29:22Z</time>
  <course>318.68</course>
  <speed>0.05</speed>
  <fix>3d</fix>
</trkpt>
<trkpt lat="40.0728391" lon="-105.2307598">
  <ele>1595.68</ele>
  <time>2026-08-27T18:29:22Z</time>
  <course>35.36</course>
  <speed>0.03605551275463989</speed>
  <fix>3d</fix>
</trkpt>
<trkpt lat="40.0728392" lon="-105.2307599">
  <ele>1595.63</ele>
  <time>2026-08-27T18:29:22Z</time>
  <course>318.3</course>
  <speed>0.05</speed>
  <fix>3d</fix>
</trkpt>
<trkpt lat="40.0728392" lon="-105.2307599">
  <ele>1595.68</ele>
  <time>2026-08-27T18:29:22Z</time>
  <course>35.36</course>
  <speed>0.03605551275463989</speed>
  <fix>3d</fix>
</trkpt>
<trkpt lat="40.0728393" lon="-105.23076">
  <ele>1595.63</ele>
  <time>2026-08-27T18:29:22Z</time>
  <course>318.16</course>
  <speed>0.06</speed>
  <fix>3d</fix>
</trkpt>
<trkpt lat="40.0728392" lon="-105.23076">
  <ele>1595.68</ele>
  <time>2026-08-27T18:29:22Z</time>
  <course>35.37</course>
  <speed>0.03605551275463989</speed>
  <fix>3d</fix>
</trkpt>
<trkpt lat="40.0728394" lon="-105.2307601">
  <ele>1595.63</ele>
  <time>2026-08-27T18:29:22Z</time>
  <course>317.91</course>
  <speed>0.06</speed>
  <fix>3d</fix>
</trkpt>
<trkpt lat="40.0728393" lon="-105.2307601">
  <ele>1595.68</ele>
  <time>2026-08-27T18:29:22Z</time>
  <course>35.36</course>
  <speed>0.03605551275463989</speed>
  <fix>3d</fix>
</trkpt>
<trkpt lat="40.0728395" lon="-105.2307602">
  <ele>1595.63</ele>
  <time>2026-08-27T18:29:22Z</time>
  <course>317.47</course>
  <speed>0.06</speed>
  <fix>3d</fix>
</trkpt>
<trkpt lat="40.0728394" lon="-105.2307602">
  <ele>1595.68</ele>
  <time>2026-08-27T18:29:22Z</time>
  <course>35.36</course>
  <speed>0.03605551275463989</speed>
  <fix>3d</fix>
</trkpt>
<trkpt lat="40.0728396" lon="-105.2307603">
  <ele>1595.63</ele>
  <time>2026-08-27T18:29:22Z</time>
  <course>317.11</course>
  <speed>0.06</speed>
  <fix>3d</fix>
</trkpt>
<trkpt lat="40.0728395" lon="-105.2307604">
  <ele>1595.68</ele>
  <time>2026-08-27T18:29:22Z</time>
  <course>35.38</course>
  <speed>0.05</speed>
  <fix>3d</fix>
</trkpt>
<trkpt lat="40.0728396" lon="-105.2307604">
  <ele>1595.63</ele>
  <time>2026-08-27T18:29:22Z</time>
  <course>317.13</course>
  <speed>0.07</speed>
  <fix>3d</fix>
</trkpt>
<trkpt lat="40.0728396" lon="-105.2307605">
  <ele>1595.68</ele>
  <time>2026-08-27T18:29:22Z</time>
  <course>35.38</course>
  <speed>0.044721359549995794</speed>
  <fix>3d</fix>
</trkpt>
<trkpt lat="40.0728397" lon="-105.2307606">
  <ele>1595.63</ele>
  <time>2026-08-27T18:29:22Z</time>
  <course>316.45</course>
  <speed>0.07</speed>
  <fix>3d</fix>
</trkpt>
<trkpt lat="40.0728397" lon="-105.2307606">
  <ele>1595.69</ele>
  <time>2026-08-27T18:29:22Z</time>
  <course>35.38</course>
  <speed>0.03605551275463989</speed>
  <fix>3d</fix>
</trkpt>
<trkpt lat="40.0728398" lon="-105.2307607">
  <ele>1595.63</ele>
  <time>2026-08-27T18:29:22Z</time>
  <course>315.0</course>
  <speed>0.07</speed>
  <fix>3d</fix>
</trkpt>
<trkpt lat="40.0728398" lon="-105.2307607">
  <ele>1595.69</ele>
  <time>2026-08-27T18:29:22Z</time>
  <course>35.39</course>
  <speed>0.0316227766016838</speed>
  <fix>3d</fix>
</trkpt>
<trkpt lat="40.0728399" lon="-105.2307608">
  <ele>1595.63</ele>
  <time>2026-08-27T18:29:22Z</time>
  <course>314.36</course>
  <speed>0.06</speed>
  <fix>3d</fix>
</trkpt>
<trkpt lat="40.0728398" lon="-105.2307608">
  <ele>1595.69</ele>
  <time>2026-08-27T18:29:22Z</time>
  <course>35.39</course>
  <speed>0.022360679774997897</speed>
  <fix>3d</fix>
</trkpt>
<trkpt lat="40.07284" lon="-105.2307609">
  <ele>1595.63</ele>
  <time>2026-08-27T18:29:22Z</time>
  <course>315.49</course>
  <speed>0.05</speed>
  <fix>3d</fix>
</trkpt>
<trkpt lat="40.0728399" lon="-105.2307609">
  <ele>1595.69</ele>
  <time>2026-08-27T18:29:22Z</time>
  <course>35.39</course>
  <speed>0.01414213562373095</speed>
  <fix>3d</fix>
</trkpt>
<trkpt lat="40.0728401" lon="-105.230761">
  <ele>1595.63</ele>
  <time>2026-08-27T18:29:22Z</time>
  <course>318.41</course>
  <speed>0.04</speed>
  <fix>3d</fix>
</trkpt>
<trkpt lat="40.0728399" lon="-105.2307609">
  <ele>1595.68</ele>
  <time>2026-08-27T18:29:22Z</time>
  <course>35.38</course>
  <speed>0.01414213562373095</speed>
  <fix>3d</fix>
</trkpt>
<trkpt lat="40.0728402" lon="-105.230761">
  <ele>1595.63</ele>
  <time>2026-08-27T18:29:22Z</time>
  <course>321.99</course>
  <speed>0.04</speed>
  <fix>3d</fix>
</trkpt>
<trkpt lat="40.07284" lon="-105.230761">
  <ele>1595.68</ele>
  <time>2026-08-27T18:29:22Z</time>
  <course>35.38</course>
  <speed>0.01414213562373095</speed>
  <fix>3d</fix>
</trkpt>
<trkpt lat="40.0728402" lon="-105.2307611">
  <ele>1595.63</ele>
  <time>2026-08-27T18:29:22Z</time>
  <course>325.06</course>
  <speed>0.03</speed>
  <fix>3d</fix>
</trkpt>
<trkpt lat="40.0728401" lon="-105.230761">
  <ele>1595.68</ele>
  <time>2026-08-27T18:29:22Z</time>
  <course>35.37</course>
  <speed>0.01414213562373095</speed>
  <fix>3d</fix>
</trkpt>
<trkpt lat="40.0728402" lon="-105.2307611">
  <ele>1595.63</ele>
  <time>2026-08-27T18:29:22Z</time>
  <course>327.19</course>
  <speed>0.03</speed>
  <fix>3d</fix>
</trkpt>
<trkpt lat="40.0728401" lon="-105.2307611">
  <ele>1595.68</ele>
  <time>2026-08-27T18:29:22Z</time>
  <course>35.36</course>
  <speed>0.01414213562373095</speed>
  <fix>3d</fix>
</trkpt>
<trkpt lat="40.0728403" lon="-105.2307612">
  <ele>1595.63</ele>
  <time>2026-08-27T18:29:22Z</time>
  <course>328.37</course>
  <speed>0.03</speed>
  <fix>3d</fix>
</trkpt>
<trkpt lat="40.0728402" lon="-105.2307611">
  <ele>1595.68</ele>
  <time>2026-08-27T18:29:22Z</time>
  <course>35.36</course>
  <speed>0.01414213562373095</speed>
  <fix>3d</fix>
</trkpt>
<trkpt lat="40.0728404" lon="-105.2307613">
  <ele>1595.63</ele>
  <time>2026-08-27T18:29:22Z</time>
  <course>328.84</course>
  <speed>0.03</speed>
  <fix>3d</fix>
</trkpt>
<trkpt lat="40.0728402" lon="-105.2307612">
  <ele>1595.68</ele>
  <time>2026-08-27T18:29:22Z</time>
  <course>35.35</course>
  <speed>0.01</speed>
  <fix>3d</fix>
</trkpt>
<trkpt lat="40.0728405" lon="-105.2307613">
  <ele>1595.63</ele>
  <time>2026-08-27T18:29:22Z</time>
  <course>328.81</course>
  <speed>0.03</speed>
  <fix>3d</fix>
</trkpt>
<trkpt lat="40.0728403" lon="-105.2307612">
  <ele>1595.68</ele>
  <time>2026-08-27T18:29:22Z</time>
  <course>35.35</course>
  <speed>0.01</speed>
  <fix>3d</fix>
</trkpt>
<trkpt lat="40.0728405" lon="-105.2307613">
  <ele>1595.63</ele>
  <time>2026-08-27T18:29:22Z</time>
  <course>328.38</course>
  <speed>0.04</speed>
  <fix>3d</fix>
</trkpt>
<trkpt lat="40.0728403" lon="-105.2307612">
  <ele>1595.68</ele>
  <time>2026-08-27T18:29:22Z</time>
  <course>35.37</course>
  <speed>0.0</speed>
  <fix>3d</fix>
</trkpt>
<trkpt lat="40.0728406" lon="-105.2307613">
  <ele>1595.63</ele>
  <time>2026-08-27T18:29:22Z</time>
  <course>331.19</course>
  <speed>0.03</speed>
  <fix>3d</fix>
</trkpt>
<trkpt lat="40.0728404" lon="-105.2307613">
  <ele>1595.68</ele>
  <time>2026-08-27T18:29:22Z</time>
  <course>35.35</course>
  <speed>0.0</speed>
  <fix>3d</fix>
</trkpt>
<trkpt lat="40.0728406" lon="-105.2307614">
  <ele>1595.63</ele>
  <time>2026-08-27T18:29:22Z</time>
  <course>337.65</course>
  <speed>0.02</speed>
  <fix>3d</fix>
</trkpt>
<trkpt lat="40.0728404" lon="-105.2307613">
  <ele>1595.68</ele>
  <time>2026-08-27T18:29:22Z</time>
  <course>35.35</course>
  <speed>0.0</speed>
  <fix>3d</fix>
</trkpt>
<trkpt lat="40.0728407" lon="-105.2307615">
  <ele>1595.63</ele>
  <time>2026-08-27T18:29:22Z</time>
  <course>338.45</course>
  <speed>0.02</speed>
  <fix>3d</fix>
</trkpt>
<trkpt lat="40.0728405" lon="-105.2307613">
  <ele>1595.68</ele>
  <time>2026-08-27T18:29:22Z</time>
  <course>35.36</course>
  <speed>0.0</speed>
  <fix>3d</fix>
</trkpt>
<trkpt lat="40.0728407" lon="-105.2307615">
  <ele>1595.63</ele>
  <time>2026-08-27T18:29:22Z</time>
  <course>336.46</course>
  <speed>0.02</speed>
  <fix>3d</fix>
</trkpt>
<trkpt lat="40.0728406" lon="-105.2307614">
  <ele>1595.69</ele>
  <time>2026-08-27T18:29:22Z</time>
  <course>35.36</course>
  <speed>0.01414213562373095</speed>
  <fix>3d</fix>
</trkpt>
<trkpt lat="40.0728407" lon="-105.2307615">
  <ele>1595.63</ele>
  <time>2026-08-27T18:29:22Z</time>
  <course>332.71</course>
  <speed>0.03</speed>
  <fix>3d</fix>
</trkpt>
<trkpt lat="40.0728406" lon="-105.2307614">
  <ele>1595.69</ele>
  <time>2026-08-27T18:29:22Z</time>
  <course>35.37</course>
  <speed>0.01414213562373095</speed>
  <fix>3d</fix>
</trkpt>
<trkpt lat="40.0728408" lon="-105.2307615">
  <ele>1595.63</ele>
  <time>2026-08-27T18:29:22Z</time>
  <course>329.5</course>
  <speed>0.04</speed>
  <fix>3d</fix>
</trkpt>
<trkpt lat="40.0728407" lon="-105.2307615">
  <ele>1595.69</ele>
  <time>2026-08-27T18:29:22Z</time>
  <course>35.37</course>
  <speed>0.022360679774997897</speed>
  <fix>3d</fix>
</trkpt>
<trkpt lat="40.0728408" lon="-105.2307616">
  <ele>1595.63</ele>
  <time>2026-08-27T18:29:22Z</time>
  <course>327.01</course>
  <speed>0.04</speed>
  <fix>3d</fix>
</trkpt>
<trkpt lat="40.0728408" lon="-105.2307616">
  <ele>1595.69</ele>
  <time>2026-08-27T18:29:22Z</time>
  <course>35.38</course>
  <speed>0.0282842712474619</speed>
  <fix>3d</fix>
</trkpt>
<trkpt lat="40.0728409" lon="-105.2307617">
  <ele>1595.63</ele>
  <time>2026-08-27T18:29:22Z</time>
  <course>325.1</course>
  <speed>0.05</speed>
  <fix>3d</fix>
</trkpt>
<trkpt lat="40.0728408" lon="-105.2307616">
  <ele>1595.69</ele>
  <time>2026-08-27T18:29:22Z</time>
  <course>35.39</course>
  <speed>0.0282842712474619</speed>
  <fix>3d</fix>
</trkpt>
<trkpt lat="40.072841" lon="-105.2307617">
  <ele>1595.62</ele>
  <time>2026-08-27T18:29:22Z</time>
  <course>323.45</course>
  <speed>0.05</speed>
  <fix>3d</fix>
</trkpt>
<trkpt lat="40.0728409" lon="-105.2307617">
  <ele>1595.69</ele>
  <time>2026-08-27T18:29:22Z</time>
  <course>35.37</course>
  <speed>0.0282842712474619</speed>
  <fix>3d</fix>
</trkpt>
<trkpt lat="40.0728411" lon="-105.2307618">
  <ele>1595.62</ele>
  <time>2026-08-27T18:29:22Z</time>
  <course>322.23</course>
  <speed>0.05</speed>
  <fix>3d</fix>
</trkpt>
<trkpt lat="40.072841" lon="-105.2307618">
  <ele>1595.69</ele>
  <time>2026-08-27T18:29:22Z</time>
  <course>35.37</course>
  <speed>0.0282842712474619</speed>
  <fix>3d</fix>
</trkpt>
<trkpt lat="40.0728412" lon="-105.2307619">
  <ele>1595.62</ele>
  <time>2026-08-27T18:29:22Z</time>
  <course>321.35</course>
  <speed>0.05</speed>
  <fix>3d</fix>
</trkpt>
<trkpt lat="40.0728411" lon="-105.2307619">
  <ele>1595.68</ele>
  <time>2026-08-27T18:29:22Z</time>
  <course>35.37</course>
  <speed>0.03605551275463989</speed>
  <fix>3d</fix>
</trkpt>
<trkpt lat="40.0728412" lon="-105.230762">
  <ele>1595.62</ele>
  <time>2026-08-27T18:29:22Z</time>
  <course>320.47</course>
  <speed>0.05</speed>
  <fix>3d</fix>
</trkpt>
<trkpt lat="40.0728412" lon="-105.230762">
  <ele>1595.68</ele>
  <time>2026-08-27T18:29:22Z</time>
  <course>35.36</course>
  <speed>0.03605551275463989</speed>
  <fix>3d</fix>
</trkpt>
<trkpt lat="40.0728413" lon="-105.230762">
  <ele>1595.62</ele>
  <time>2026-08-27T18:29:22Z</time>
  <course>319.7</course>
  <speed>0.05</speed>
  <fix>3d</fix>
</trkpt>
<trkpt lat="40.0728412" lon="-105.2307621">
  <ele>1595.68</ele>
  <time>2026-08-27T18:29:22Z</time>
  <course>35.37</course>
  <speed>0.03605551275463989</speed>
  <fix>3d</fix>
</trkpt>
<trkpt lat="40.0728414" lon="-105.2307621">
  <ele>1595.62</ele>
  <time>2026-08-27T18:29:22Z</time>
  <course>319.01</course>
  <speed>0.06</speed>
  <fix>3d</fix>
</trkpt>
<trkpt lat="40.0728413" lon="-105.2307622">
  <ele>1595.69</ele>
  <time>2026-08-27T18:29:22Z</time>
  <course>35.36</course>
  <speed>0.03605551275463989</speed>
  <fix>3d</fix>
</trkpt>
<trkpt lat="40.0728415" lon="-105.2307622">
  <ele>1595.62</ele>
  <time>2026-08-27T18:29:22Z</time>
  <course>318.59</course>
  <speed>0.06</speed>
  <fix>3d</fix>
</trkpt>
<trkpt lat="40.0728414" lon="-105.2307623">
  <ele>1595.69</ele>
  <time>2026-08-27T18:29:22Z</time>
  <course>35.37</course>
  <speed>0.03605551275463989</speed>
  <fix>3d</fix>
</trkpt>
<trkpt lat="40.0728416" lon="-105.2307623">
  <ele>1595.61</ele>
  <time>2026-08-27T18:29:22Z</time>
  <course>318.33</course>
  <speed>0.06</speed>
  <fix>3d</fix>
</trkpt>
<trkpt lat="40.0728415" lon="-105.2307624">
  <ele>1595.69</ele>
  <time>2026-08-27T18:29:22Z</time>
  <course>35.38</course>
  <speed>0.05</speed>
  <fix>3d</fix>
</trkpt>
<trkpt lat="40.0728417" lon="-105.2307624">
  <ele>1595.61</ele>
  <time>2026-08-27T18:29:22Z</time>
  <course>317.73</course>
  <speed>0.06</speed>
  <fix>3d</fix>
</trkpt>
<trkpt lat="40.0728416" lon="-105.2307625">
  <ele>1595.69</ele>
  <time>2026-08-27T18:29:22Z</time>
  <course>35.39</course>
  <speed>0.05</speed>
  <fix>3d</fix>
</trkpt>
<trkpt lat="40.0728417" lon="-105.2307625">
  <ele>1595.61</ele>
  <time>2026-08-27T18:29:22Z</time>
  <course>317.59</course>
  <speed>0.07</speed>
  <fix>3d</fix>
</trkpt>
<trkpt lat="40.0728417" lon="-105.2307626">
  <ele>1595.7</ele>
  <time>2026-08-27T18:29:22Z</time>
  <course>35.39</course>
  <speed>0.044721359549995794</speed>
  <fix>3d</fix>
</trkpt>
<trkpt lat="40.0728418" lon="-105.2307626">
  <ele>1595.61</ele>
  <time>2026-08-27T18:29:22Z</time>
  <course>316.63</course>
  <speed>0.07</speed>
  <fix>3d</fix>
</trkpt>
<trkpt lat="40.0728418" lon="-105.2307627">
  <ele>1595.7</ele>
  <time>2026-08-27T18:29:22Z</time>
  <course>35.38</course>
  <speed>0.03605551275463989</speed>
  <fix>3d</fix>
</trkpt>
<trkpt lat="40.0728419" lon="-105.2307628">
  <ele>1595.61</ele>
  <time>2026-08-27T18:29:22Z</time>
  <course>315.05</course>
  <speed>0.06</speed>
  <fix>3d</fix>
</trkpt>
<trkpt lat="40.0728418" lon="-105.2307628">
  <ele>1595.7</ele>
  <time>2026-08-27T18:29:22Z</time>
  <course>35.4</course>
  <speed>0.022360679774997897</speed>
  <fix>3d</fix>
</trkpt>
<trkpt lat="40.072842" lon="-105.2307629">
  <ele>1595.6</ele>
  <time>2026-08-27T18:29:22Z</time>
  <course>315.28</course>
  <speed>0.05</speed>
  <fix>3d</fix>
</trkpt>
<trkpt lat="40.0728419" lon="-105.2307629">
  <ele>1595.7</ele>
  <time>2026-08-27T18:29:22Z</time>
  <course>35.41</course>
  <speed>0.022360679774997897</speed>
  <fix>3d</fix>
</trkpt>
<trkpt lat="40.072842" lon="-105.230763">
  <ele>1595.6</ele>
  <time>2026-08-27T18:29:22Z</time>
  <course>317.31</course>
  <speed>0.05</speed>
  <fix>3d</fix>
</trkpt>
<trkpt lat="40.072842" lon="-105.2307629">
  <ele>1595.69</ele>
  <time>2026-08-27T18:29:22Z</time>
  <course>35.39</course>
  <speed>0.01</speed>
  <fix>3d</fix>
</trkpt>
<trkpt lat="40.0728421" lon="-105.230763">
  <ele>1595.59</ele>
  <time>2026-08-27T18:29:22Z</time>
  <course>320.26</course>
  <speed>0.04</speed>
  <fix>3d</fix>
</trkpt>
<trkpt lat="40.072842" lon="-105.230763">
  <ele>1595.69</ele>
  <time>2026-08-27T18:29:22Z</time>
  <course>35.38</course>
  <speed>0.01</speed>
  <fix>3d</fix>
</trkpt>
<trkpt lat="40.0728422" lon="-105.2307631">
  <ele>1595.59</ele>
  <time>2026-08-27T18:29:22Z</time>
  <course>323.03</course>
  <speed>0.04</speed>
  <fix>3d</fix>
</trkpt>
<trkpt lat="40.0728421" lon="-105.2307631">
  <ele>1595.69</ele>
  <time>2026-08-27T18:29:22Z</time>
  <course>35.37</course>
  <speed>0.01</speed>
  <fix>3d</fix>
</trkpt>
<trkpt lat="40.0728423" lon="-105.2307632">
  <ele>1595.58</ele>
  <time>2026-08-27T18:29:22Z</time>
  <course>325.25</course>
  <speed>0.03</speed>
  <fix>3d</fix>
</trkpt>
<trkpt lat="40.0728421" lon="-105.2307631">
  <ele>1595.69</ele>
  <time>2026-08-27T18:29:22Z</time>
  <course>35.38</course>
  <speed>0.01</speed>
  <fix>3d</fix>
</trkpt>
<trkpt lat="40.0728423" lon="-105.2307632">
  <ele>1595.58</ele>
  <time>2026-08-27T18:29:22Z</time>
  <course>326.89</course>
  <speed>0.03</speed>
  <fix>3d</fix>
</trkpt>
<trkpt lat="40.0728422" lon="-105.2307632">
  <ele>1595.69</ele>
  <time>2026-08-27T18:29:22Z</time>
  <course>35.38</course>
  <speed>0.0</speed>
  <fix>3d</fix>
</trkpt>
<trkpt lat="40.0728424" lon="-105.2307632">
  <ele>1595.57</ele>
  <time>2026-08-27T18:29:22Z</time>
  <course>328.06</course>
  <speed>0.03</speed>
  <fix>3d</fix>
</trkpt>
<trkpt lat="40.0728422" lon="-105.2307632">
  <ele>1595.68</ele>
  <time>2026-08-27T18:29:22Z</time>
  <course>35.39</course>
  <speed>0.0</speed>
  <fix>3d</fix>
</trkpt>
<trkpt lat="40.0728424" lon="-105.2307632">
  <ele>1595.57</ele>
  <time>2026-08-27T18:29:22Z</time>
  <course>329.16</course>
  <speed>0.03</speed>
  <fix>3d</fix>
</trkpt>
<trkpt lat="40.0728423" lon="-105.2307632">
  <ele>1595.68</ele>
  <time>2026-08-27T18:29:22Z</time>
  <course>35.37</course>
  <speed>0.0</speed>
  <fix>3d</fix>
</trkpt>
<trkpt lat="40.0728425" lon="-105.2307633">
  <ele>1595.57</ele>
  <time>2026-08-27T18:29:22Z</time>
  <course>330.38</course>
  <speed>0.03</speed>
  <fix>3d</fix>
</trkpt>
<trkpt lat="40.0728423" lon="-105.2307632">
  <ele>1595.67</ele>
  <time>2026-08-27T18:29:22Z</time>
  <course>35.38</course>
  <speed>0.0</speed>
  <fix>3d</fix>
</trkpt>
<trkpt lat="40.0728425" lon="-105.2307634">
  <ele>1595.57</ele>
  <time>2026-08-27T18:29:22Z</time>
  <course>331.8</course>
  <speed>0.02</speed>
  <fix>3d</fix>
</trkpt>
<trkpt lat="40.0728424" lon="-105.2307633">
  <ele>1595.67</ele>
  <time>2026-08-27T18:29:22Z</time>
  <course>35.34</course>
  <speed>0.0</speed>
  <fix>3d</fix>
</trkpt>
<trkpt lat="40.0728426" lon="-105.2307634">
  <ele>1595.56</ele>
  <time>2026-08-27T18:29:22Z</time>
  <course>335.55</course>
  <speed>0.02</speed>
  <fix>3d</fix>
</trkpt>
<trkpt lat="40.0728424" lon="-105.2307633">
  <ele>1595.67</ele>
  <time>2026-08-27T18:29:22Z</time>
  <course>35.34</course>
  <speed>0.0</speed>
  <fix>3d</fix>
</trkpt>
<trkpt lat="40.0728426" lon="-105.2307634">
  <ele>1595.56</ele>
  <time>2026-08-27T18:29:22Z</time>
  <course>346.17</course>
  <speed>0.01</speed>
  <fix>3d</fix>
</trkpt>
<trkpt lat="40.0728424" lon="-105.2307633">
  <ele>1595.67</ele>
  <time>2026-08-27T18:29:22Z</time>
  <course>35.35</course>
  <speed>0.0</speed>
  <fix>3d</fix>
</trkpt>
<trkpt lat="40.0728426" lon="-105.2307634">
  <ele>1595.56</ele>
  <time>2026-08-27T18:29:22Z</time>
  <course>346.19</course>
  <speed>0.02</speed>
  <fix>3d</fix>
</trkpt>
<trkpt lat="40.0728425" lon="-105.2307633">
  <ele>1595.66</ele>
  <time>2026-08-27T18:29:22Z</time>
  <course>35.33</course>
  <speed>0.0</speed>
  <fix>3d</fix>
</trkpt>
<trkpt lat="40.0728426" lon="-105.2307634">
  <ele>1595.56</ele>
  <time>2026-08-27T18:29:22Z</time>
  <course>339.15</course>
  <speed>0.02</speed>
  <fix>3d</fix>
</trkpt>
<trkpt lat="40.0728425" lon="-105.2307633">
  <ele>1595.67</ele>
  <time>2026-08-27T18:29:22Z</time>
  <course>35.34</course>
  <speed>0.01414213562373095</speed>
  <fix>3d</fix>
</trkpt>
<trkpt lat="40.0728427" lon="-105.2307635">
  <ele>1595.57</ele>
  <time>2026-08-27T18:29:22Z</time>
  <course>333.31</course>
  <speed>0.03</speed>
  <fix>3d</fix>
</trkpt>
<trkpt lat="40.0728426" lon="-105.2307634">
  <ele>1595.67</ele>
  <time>2026-08-27T18:29:22Z</time>
  <course>35.34</course>
  <speed>0.01414213562373095</speed>
  <fix>3d</fix>
</trkpt>
<trkpt lat="40.0728427" lon="-105.2307635">
  <ele>1595.57</ele>
  <time>2026-08-27T18:29:22Z</time>
  <course>328.93</course>
  <speed>0.03</speed>
  <fix>3d</fix>
</trkpt>
<trkpt lat="40.0728427" lon="-105.2307635">
  <ele>1595.67</ele>
  <time>2026-08-27T18:29:22Z</time>
  <course>35.35</course>
  <speed>0.022360679774997897</speed>
  <fix>3d</fix>
</trkpt>
<trkpt lat="40.0728428" lon="-105.2307635">
  <ele>1595.57</ele>
  <time>2026-08-27T18:29:22Z</time>
  <course>325.94</course>
  <speed>0.04</speed>
  <fix>3d</fix>
</trkpt>
<trkpt lat="40.0728427" lon="-105.2307635">
  <ele>1595.68</ele>
  <time>2026-08-27T18:29:22Z</time>
  <course>35.35</course>
  <speed>0.022360679774997897</speed>
  <fix>3d</fix>
</trkpt>
<trkpt lat="40.0728429" lon="-105.2307636">
  <ele>1595.57</ele>
  <time>2026-08-27T18:29:22Z</time>
  <course>323.81</course>
  <speed>0.04</speed>
  <fix>3d</fix>
</trkpt>
<trkpt lat="40.0728428" lon="-105.2307636">
  <ele>1595.68</ele>
  <time>2026-08-27T18:29:22Z</time>
  <course>35.35</course>
  <speed>0.022360679774997897</speed>
  <fix>3d</fix>
</trkpt>
<trkpt lat="40.072843" lon="-105.2307637">
  <ele>1595.57</ele>
  <time>2026-08-27T18:29:22Z</time>
  <course>322.13</course>
  <speed>0.05</speed>
  <fix>3d</fix>
</trkpt>
<trkpt lat="40.0728429" lon="-105.2307637">
  <ele>1595.68</ele>
  <time>2026-08-27T18:29:22Z</time>
  <course>35.35</course>
  <speed>0.022360679774997897</speed>
  <fix>3d</fix>
</trkpt>
<trkpt lat="40.072843" lon="-105.2307637">
  <ele>1595.57</ele>
  <time>2026-08-27T18:29:22Z</time>
  <course>320.9</course>
  <speed>0.05</speed>
  <fix>3d</fix>
</trkpt>
<trkpt lat="40.0728429" lon="-105.2307638">
  <ele>1595.68</ele>
  <time>2026-08-27T18:29:22Z</time>
  <course>35.37</course>
  <speed>0.03605551275463989</speed>
  <fix>3d</fix>
</trkpt>
<trkpt lat="40.0728431" lon="-105.2307638">
  <ele>1595.57</ele>
  <time>2026-08-27T18:29:22Z</time>
  <course>320.22</course>
  <speed>0.05</speed>
  <fix>3d</fix>
</trkpt>
<trkpt lat="40.072843" lon="-105.2307638">
  <ele>1595.68</ele>
  <time>2026-08-27T18:29:22Z</time>
  <course>35.36</course>
  <speed>0.03605551275463989</speed>
  <fix>3d</fix>
</trkpt>
<trkpt lat="40.0728432" lon="-105.2307639">
  <ele>1595.57</ele>
  <time>2026-08-27T18:29:22Z</time>
  <course>319.68</course>
  <speed>0.05</speed>
  <fix>3d</fix>
</trkpt>
<trkpt lat="40.0728431" lon="-105.2307639">
  <ele>1595.67</ele>
  <time>2026-08-27T18:29:22Z</time>
  <course>35.35</course>
  <speed>0.03605551275463989</speed>
  <fix>3d</fix>
</trkpt>
<trkpt lat="40.0728432" lon="-105.230764">
  <ele>1595.57</ele>
  <time>2026-08-27T18:29:22Z</time>
  <course>319.16</course>
  <speed>0.05</speed>
  <fix>3d</fix>
</trkpt>
<trkpt lat="40.0728432" lon="-105.230764">
  <ele>1595.67</ele>
  <time>2026-08-27T18:29:22Z</time>
  <course>35.35</course>
  <speed>0.03605551275463989</speed>
  <fix>3d</fix>
</trkpt>
<trkpt lat="40.0728433" lon="-105.2307641">
  <ele>1595.57</ele>
  <time>2026-08-27T18:29:22Z</time>
  <course>319.09</course>
  <speed>0.05</speed>
  <fix>3d</fix>
</trkpt>
<trkpt lat="40.0728433" lon="-105.2307641">
  <ele>1595.67</ele>
  <time>2026-08-27T18:29:22Z</time>
  <course>35.35</course>
  <speed>0.03605551275463989</speed>
  <fix>3d</fix>
</trkpt>
<trkpt lat="40.0728434" lon="-105.2307642">
  <ele>1595.57</ele>
  <time>2026-08-27T18:29:22Z</time>
  <course>319.3</course>
  <speed>0.05</speed>
  <fix>3d</fix>
</trkpt>
<trkpt lat="40.0728433" lon="-105.2307642">
  <ele>1595.67</ele>
  <time>2026-08-27T18:29:22Z</time>
  <course>35.34</course>
  <speed>0.03605551275463989</speed>
  <fix>3d</fix>
</trkpt>
<trkpt lat="40.0728435" lon="-105.2307642">
  <ele>1595.57</ele>
  <time>2026-08-27T18:29:22Z</time>
  <course>319.5</course>
  <speed>0.06</speed>
  <fix>3d</fix>
</trkpt>
<trkpt lat="40.0728434" lon="-105.2307643">
  <ele>1595.67</ele>
  <time>2026-08-27T18:29:22Z</time>
  <course>35.36</course>
  <speed>0.05</speed>
  <fix>3d</fix>
</trkpt>
<trkpt lat="40.0728436" lon="-105.2307644">
  <ele>1595.58</ele>
  <time>2026-08-27T18:29:22Z</time>
  <course>319.23</course>
  <speed>0.07</speed>
  <fix>3d</fix>
</trkpt>
<trkpt lat="40.0728435" lon="-105.2307644">
  <ele>1595.67</ele>
  <time>2026-08-27T18:29:22Z</time>
  <course>35.36</course>
  <speed>0.044721359549995794</speed>
  <fix>3d</fix>
</trkpt>
<trkpt lat="40.0728437" lon="-105.2307645">
  <ele>1595.58</ele>
  <time>2026-08-27T18:29:22Z</time>
  <course>317.98</course>
  <speed>0.07</speed>
  <fix>3d</fix>
</trkpt>
<trkpt lat="40.0728436" lon="-105.2307645">
  <ele>1595.67</ele>
  <time>2026-08-27T18:29:22Z</time>
  <course>35.36</course>
  <speed>0.0316227766016838</speed>
  <fix>3d</fix>
</trkpt>
<trkpt lat="40.0728438" lon="-105.2307646">
  <ele>1595.58</ele>
  <time>2026-08-27T18:29:22Z</time>
  <course>316.29</course>
  <speed>0.07</speed>
  <fix>3d</fix>
</trkpt>
<trkpt lat="40.0728437" lon="-105.2307646">
  <ele>1595.67</ele>
  <time>2026-08-27T18:29:22Z</time>
  <course>35.35</course>
  <speed>0.022360679774997897</speed>
  <fix>3d</fix>
</trkpt>
<trkpt lat="40.0728439" lon="-105.2307647">
  <ele>1595.58</ele>
  <time>2026-08-27T18:29:22Z</time>
  <course>315.52</course>
  <speed>0.06</speed>
  <fix>3d</fix>
</trkpt>
<trkpt lat="40.0728438" lon="-105.2307647">
  <ele>1595.67</ele>
  <time>2026-08-27T18:29:22Z</time>
  <course>35.36</course>
  <speed>0.022360679774997897</speed>
  <fix>3d</fix>
</trkpt>
<trkpt lat="40.0728439" lon="-105.2307648">
  <ele>1595.58</ele>
  <time>2026-08-27T18:29:22Z</time>
  <course>316.4</course>
  <speed>0.05</speed>
  <fix>3d</fix>
</trkpt>
<trkpt lat="40.0728438" lon="-105.2307648">
  <ele>1595.67</ele>
  <time>2026-08-27T18:29:22Z</time>
  <course>35.36</course>
  <speed>0.01</speed>
  <fix>3d</fix>
</trkpt>
<trkpt lat="40.072844" lon="-105.2307649">
  <ele>1595.59</ele>
  <time>2026-08-27T18:29:22Z</time>
  <course>318.81</course>
  <speed>0.04</speed>
  <fix>3d</fix>
</trkpt>
<trkpt lat="40.0728439" lon="-105.2307648">
  <ele>1595.67</ele>
  <time>2026-08-27T18:29:22Z</time>
  <course>35.35</course>
  <speed>0.01</speed>
  <fix>3d</fix>
</trkpt>
<trkpt lat="40.0728441" lon="-105.2307649">
  <ele>1595.59</ele>
  <time>2026-08-27T18:29:22Z</time>
  <course>321.89</course>
  <speed>0.04</speed>
  <fix>3d</fix>
</trkpt>
<trkpt lat="40.0728439" lon="-105.2307649">
  <ele>1595.66</ele>
  <time>2026-08-27T18:29:22Z</time>
  <course>35.36</course>
  <speed>0.01</speed>
  <fix>3d</fix>
</trkpt>
<trkpt lat="40.0728442" lon="-105.230765">
  <ele>1595.59</ele>
  <time>2026-08-27T18:29:22Z</time>
  <course>324.7</course>
  <speed>0.04</speed>
  <fix>3d</fix>
</trkpt>
<trkpt lat="40.072844" lon="-105.2307649">
  <ele>1595.66</ele>
  <time>2026-08-27T18:29:22Z</time>
  <course>35.37</course>
  <speed>0.0</speed>
  <fix>3d</fix>
</trkpt>
<trkpt lat="40.0728442" lon="-105.2307651">
  <ele>1595.59</ele>
  <time>2026-08-27T18:29:22Z</time>
  <course>326.63</course>
  <speed>0.03</speed>
  <fix>3d</fix>
</trkpt>
<trkpt lat="40.0728441" lon="-105.230765">
  <ele>1595.66</ele>
  <time>2026-08-27T18:29:22Z</time>
  <course>35.34</course>
  <speed>0.0</speed>
  <fix>3d</fix>
</trkpt>
<trkpt lat="40.0728443" lon="-105.2307651">
  <ele>1595.59</ele>
  <time>2026-08-27T18:29:22Z</time>
  <course>327.73</course>
  <speed>0.03</speed>
  <fix>3d</fix>
</trkpt>
<trkpt lat="40.0728441" lon="-105.230765">
  <ele>1595.66</ele>
  <time>2026-08-27T18:29:22Z</time>
  <course>35.35</course>
  <speed>0.0</speed>
  <fix>3d</fix>
</trkpt>
<trkpt lat="40.0728443" lon="-105.2307651">
  <ele>1595.6</ele>
  <time>2026-08-27T18:29:22Z</time>
  <course>328.35</course>
  <speed>0.03</speed>
  <fix>3d</fix>
</trkpt>
<trkpt lat="40.0728442" lon="-105.2307651">
  <ele>1595.67</ele>
  <time>2026-08-27T18:29:22Z</time>
  <course>35.37</course>
  <speed>0.0</speed>
  <fix>3d</fix>
</trkpt>
<trkpt lat="40.0728444" lon="-105.2307652">
  <ele>1595.6</ele>
  <time>2026-08-27T18:29:22Z</time>
  <course>328.5</course>
  <speed>0.03</speed>
  <fix>3d</fix>
</trkpt>
<trkpt lat="40.0728442" lon="-105.2307651">
  <ele>1595.67</ele>
  <time>2026-08-27T18:29:22Z</time>
  <course>35.37</course>
  <speed>0.0</speed>
  <fix>3d</fix>
</trkpt>
<trkpt lat="40.0728444" lon="-105.2307653">
  <ele>1595.61</ele>
  <time>2026-08-27T18:29:22Z</time>
  <course>328.4</course>
  <speed>0.03</speed>
  <fix>3d</fix>
</trkpt>
<trkpt lat="40.0728443" lon="-105.2307651">
  <ele>1595.68</ele>
  <time>2026-08-27T18:29:22Z</time>
  <course>35.38</course>
  <speed>0.0</speed>
  <fix>3d</fix>
</trkpt>
<trkpt lat="40.0728445" lon="-105.2307653">
  <ele>1595.61</ele>
  <time>2026-08-27T18:29:22Z</time>
  <course>328.85</course>
  <speed>0.03</speed>
  <fix>3d</fix>
</trkpt>
<trkpt lat="40.0728443" lon="-105.2307652">
  <ele>1595.68</ele>
  <time>2026-08-27T18:29:22Z</time>
  <course>35.35</course>
  <speed>0.0</speed>
  <fix>3d</fix>
</trkpt>
<trkpt lat="40.0728445" lon="-105.2307654">
  <ele>1595.61</ele>
  <time>2026-08-27T18:29:22Z</time>
  <course>329.94</course>
  <speed>0.02</speed>
  <fix>3d</fix>
</trkpt>
<trkpt lat="40.0728443" lon="-105.2307652">
  <ele>1595.68</ele>
  <time>2026-08-27T18:29:22Z</time>
  <course>35.35</course>
  <speed>0.0</speed>
  <fix>3d</fix>
</trkpt>
<trkpt lat="40.0728445" lon="-105.2307654">
  <ele>1595.62</ele>
  <time>2026-08-27T18:29:22Z</time>
  <course>335.44</course>
  <speed>0.02</speed>
  <fix>3d</fix>
</trkpt>
<trkpt lat="40.0728444" lon="-105.2307652">
  <ele>1595.67</ele>
  <time>2026-08-27T18:29:22Z</time>
  <course>35.35</course>
  <speed>0.0</speed>
  <fix>3d</fix>
</trkpt>
<trkpt lat="40.0728446" lon="-105.2307654">
  <ele>1595.62</ele>
  <time>2026-08-27T18:29:22Z</time>
  <course>337.8</course>
  <speed>0.02</speed>
  <fix>3d</fix>
</trkpt>
<trkpt lat="40.0728444" lon="-105.2307653">
  <ele>1595.67</ele>
  <time>2026-08-27T18:29:22Z</time>
  <course>35.33</course>
  <speed>0.01414213562373095</speed>
  <fix>3d</fix>
</trkpt>
<trkpt lat="40.0728447" lon="-105.2307654">
  <ele>1595.62</ele>
  <time>2026-08-27T18:29:22Z</time>
  <course>334.18</course>
  <speed>0.03</speed>
  <fix>3d</fix>
</trkpt>
<trkpt lat="40.0728445" lon="-105.2307653">
  <ele>1595.68</ele>
  <time>2026-08-27T18:29:22Z</time>
  <course>35.35</course>
  <speed>0.01414213562373095</speed>
  <fix>3d</fix>
</trkpt>
<trkpt lat="40.0728447" lon="-105.2307654">
  <ele>1595.62</ele>
  <time>2026-08-27T18:29:22Z</time>
  <course>330.27</course>
  <speed>0.04</speed>
  <fix>3d</fix>
</trkpt>
<trkpt lat="40.0728446" lon="-105.2307654">
  <ele>1595.68</ele>
  <time>2026-08-27T18:29:22Z</time>
  <course>35.36</course>
  <speed>0.022360679774997897</speed>
  <fix>3d</fix>
</trkpt>
<trkpt lat="40.0728448" lon="-105.2307655">
  <ele>1595.63</ele>
  <time>2026-08-27T18:29:22Z</time>
  <course>326.68</course>
  <speed>0.04</speed>
  <fix>3d</fix>
</trkpt>
<trkpt lat="40.0728447" lon="-105.2307655">
  <ele>1595.68</ele>
  <time>2026-08-27T18:29:22Z</time>
  <course>35.36</course>
  <speed>0.022360679774997897</speed>
  <fix>3d</fix>
</trkpt>
<trkpt lat="40.0728449" lon="-105.2307656">
  <ele>1595.63</ele>
  <time>2026-08-27T18:29:22Z</time>
  <course>323.65</course>
  <speed>0.05</speed>
  <fix>3d</fix>
</trkpt>
<trkpt lat="40.0728447" lon="-105.2307655">
  <ele>1595.68</ele>
  <time>2026-08-27T18:29:22Z</time>
  <course>35.36</course>
  <speed>0.022360679774997897</speed>
  <fix>3d</fix>
</trkpt>
<trkpt lat="40.0728449" lon="-105.2307656">
  <ele>1595.63</ele>
  <time>2026-08-27T18:29:22Z</time>
  <course>321.48</course>
  <speed>0.05</speed>
  <fix>3d</fix>
</trkpt>
<trkpt lat="40.0728448" lon="-105.2307656">
  <ele>1595.69</ele>
  <time>2026-08-27T18:29:22Z</time>
  <course>35.36</course>
  <speed>0.03605551275463989</speed>
  <fix>3d</fix>
</trkpt>
<trkpt lat="40.072845" lon="-105.2307657">
  <ele>1595.63</ele>
  <time>2026-08-27T18:29:22Z</time>
  <course>320.23</course>
  <speed>0.05</speed>
  <fix>3d</fix>
</trkpt>
<trkpt lat="40.0728449" lon="-105.2307657">
  <ele>1595.69</ele>
  <time>2026-08-27T18:29:22Z</time>
  <course>35.36</course>
  <speed>0.03605551275463989</speed>
  <fix>3d</fix>
</trkpt>
<trkpt lat="40.0728451" lon="-105.2307658">
  <ele>1595.63</ele>
  <time>2026-08-27T18:29:22Z</time>
  <course>319.48</course>
  <speed>0.06</speed>
  <fix>3d</fix>
</trkpt>
<trkpt lat="40.072845" lon="-105.2307658">
  <ele>1595.69</ele>
  <time>2026-08-27T18:29:22Z</time>
  <course>35.36</course>
  <speed>0.03605551275463989</speed>
  <fix>3d</fix>
</trkpt>
<trkpt lat="40.0728452" lon="-105.2307659">
  <ele>1595.63</ele>
  <time>2026-08-27T18:29:22Z</time>
  <course>319.13</course>
  <speed>0.06</speed>
  <fix>3d</fix>
</trkpt>
<trkpt lat="40.0728451" lon="-105.2307659">
  <ele>1595.69</ele>
  <time>2026-08-27T18:29:22Z</time>
  <course>35.39</course>
  <speed>0.03605551275463989</speed>
  <fix>3d</fix>
</trkpt>
<trkpt lat="40.0728453" lon="-105.230766">
  <ele>1595.63</ele>
  <time>2026-08-27T18:29:22Z</time>
  <course>319.06</course>
  <speed>0.06</speed>
  <fix>3d</fix>
</trkpt>
<trkpt lat="40.0728452" lon="-105.230766">
  <ele>1595.69</ele>
  <time>2026-08-27T18:29:22Z</time>
  <course>35.39</course>
  <speed>0.03605551275463989</speed>
  <fix>3d</fix>
</trkpt>
<trkpt lat="40.0728453" lon="-105.2307661">
  <ele>1595.63</ele>
  <time>2026-08-27T18:29:22Z</time>
  <course>319.03</course>
  <speed>0.06</speed>
  <fix>3d</fix>
</trkpt>
<trkpt lat="40.0728453" lon="-105.2307661">
  <ele>1595.69</ele>
  <time>2026-08-27T18:29:22Z</time>
  <course>35.37</course>
  <speed>0.03605551275463989</speed>
  <fix>3d</fix>
</trkpt>
<trkpt lat="40.0728454" lon="-105.2307662">
  <ele>1595.63</ele>
  <time>2026-08-27T18:29:22Z</time>
  <course>319.21</course>
  <speed>0.06</speed>
  <fix>3d</fix>
</trkpt>
<trkpt lat="40.0728453" lon="-105.2307662">
  <ele>1595.69</ele>
  <time>2026-08-27T18:29:23Z</time>
  <course>35.38</course>
  <speed>0.03605551275463989</speed>
  <fix>3d</fix>
</trkpt>
<trkpt lat="40.0728455" lon="-105.2307663">
  <ele>1595.63</ele>
  <time>2026-08-27T18:29:23Z</time>
  <course>319.44</course>
  <speed>0.06</speed>
  <fix>3d</fix>
</trkpt>
<trkpt lat="40.0728454" lon="-105.2307663">
  <ele>1595.69</ele>
  <time>2026-08-27T18:29:23Z</time>
  <course>35.39</course>
  <speed>0.03605551275463989</speed>
  <fix>3d</fix>
</trkpt>
<trkpt lat="40.0728456" lon="-105.2307664">
  <ele>1595.63</ele>
  <time>2026-08-27T18:29:23Z</time>
  <course>319.54</course>
  <speed>0.06</speed>
  <fix>3d</fix>
</trkpt>
<trkpt lat="40.0728455" lon="-105.2307664">
  <ele>1595.69</ele>
  <time>2026-08-27T18:29:23Z</time>
  <course>35.4</course>
  <speed>0.04242640687119285</speed>
  <fix>3d</fix>
</trkpt>
<trkpt lat="40.0728457" lon="-105.2307665">
  <ele>1595.63</ele>
  <time>2026-08-27T18:29:23Z</time>
  <course>319.82</course>
  <speed>0.07</speed>
  <fix>3d</fix>
</trkpt>
<trkpt lat="40.0728456" lon="-105.2307665">
  <ele>1595.69</ele>
  <time>2026-08-27T18:29:23Z</time>
  <course>35.38</course>
  <speed>0.03605551275463989</speed>
  <fix>3d</fix>
</trkpt>
<trkpt lat="40.0728458" lon="-105.2307666">
  <ele>1595.62</ele>
  <time>2026-08-27T18:29:23Z</time>
  <course>319.15</course>
  <speed>0.07</speed>
  <fix>3d</fix>
</trkpt>
<trkpt lat="40.0728457" lon="-105.2307667">
  <ele>1595.69</ele>
  <time>2026-08-27T18:29:23Z</time>
  <course>35.38</course>
  <speed>0.03605551275463989</speed>
  <fix>3d</fix>
</trkpt>
<trkpt lat="40.0728459" lon="-105.2307667">
  <ele>1595.62</ele>
  <time>2026-08-27T18:29:23Z</time>
  <course>317.78</course>
  <speed>0.07</speed>
  <fix>3d</fix>
</trkpt>
<trkpt lat="40.0728458" lon="-105.2307667">
  <ele>1595.69</ele>
  <time>2026-08-27T18:29:23Z</time>
  <course>35.38</course>
  <speed>0.022360679774997897</speed>
  <fix>3d</fix>
</trkpt>
<trkpt lat="40.072846" lon="-105.2307668">
  <ele>1595.62</ele>
  <time>2026-08-27T18:29:23Z</time>
  <course>317.36</course>
  <speed>0.06</speed>
  <fix>3d</fix>
</trkpt>
<trkpt lat="40.0728459" lon="-105.2307668">
  <ele>1595.69</ele>
  <time>2026-08-27T18:29:23Z</time>
  <course>35.4</course>
  <speed>0.01414213562373095</speed>
  <fix>3d</fix>
</trkpt>
<trkpt lat="40.0728461" lon="-105.2307669">
  <ele>1595.62</ele>
  <time>2026-08-27T18:29:23Z</time>
  <course>318.58</course>
  <speed>0.05</speed>
  <fix>3d</fix>
</trkpt>
<trkpt lat="40.0728459" lon="-105.2307669">
  <ele>1595.69</ele>
  <time>2026-08-27T18:29:23Z</time>
  <course>35.39</course>
  <speed>0.01414213562373095</speed>
  <fix>3d</fix>
</trkpt>
<trkpt lat="40.0728462" lon="-105.230767">
  <ele>1595.62</ele>
  <time>2026-08-27T18:29:23Z</time>
  <course>321.44</course>
  <speed>0.04</speed>
  <fix>3d</fix>
</trkpt>
<trkpt lat="40.072846" lon="-105.2307669">
  <ele>1595.69</ele>
  <time>2026-08-27T18:29:23Z</time>
  <course>35.39</course>
  <speed>0.01414213562373095</speed>
  <fix>3d</fix>
</trkpt>
<trkpt lat="40.0728462" lon="-105.2307671">
  <ele>1595.61</ele>
  <time>2026-08-27T18:29:23Z</time>
  <course>324.8</course>
  <speed>0.03</speed>
  <fix>3d</fix>
</trkpt>
<trkpt lat="40.0728461" lon="-105.230767">
  <ele>1595.69</ele>
  <time>2026-08-27T18:29:23Z</time>
  <course>35.39</course>
  <speed>0.01414213562373095</speed>
  <fix>3d</fix>
</trkpt>
<trkpt lat="40.0728462" lon="-105.2307671">
  <ele>1595.61</ele>
  <time>2026-08-27T18:29:23Z</time>
  <course>327.48</course>
  <speed>0.03</speed>
  <fix>3d</fix>
</trkpt>
<trkpt lat="40.0728461" lon="-105.230767">
  <ele>1595.69</ele>
  <time>2026-08-27T18:29:23Z</time>
  <course>35.38</course>
  <speed>0.01414213562373095</speed>
  <fix>3d</fix>
</trkpt>
<trkpt lat="40.0728463" lon="-105.2307671">
  <ele>1595.61</ele>
  <time>2026-08-27T18:29:23Z</time>
  <course>329.19</course>
  <speed>0.03</speed>
  <fix>3d</fix>
</trkpt>
<trkpt lat="40.0728462" lon="-105.230767">
  <ele>1595.69</ele>
  <time>2026-08-27T18:29:23Z</time>
  <course>35.4</course>
  <speed>0.01414213562373095</speed>
  <fix>3d</fix>
</trkpt>
<trkpt lat="40.0728464" lon="-105.2307672">
  <ele>1595.61</ele>
  <time>2026-08-27T18:29:23Z</time>
  <course>330.17</course>
  <speed>0.03</speed>
  <fix>3d</fix>
</trkpt>
<trkpt lat="40.0728462" lon="-105.2307671">
  <ele>1595.69</ele>
  <time>2026-08-27T18:29:23Z</time>
  <course>35.39</course>
  <speed>0.01414213562373095</speed>
  <fix>3d</fix>
</trkpt>
<trkpt lat="40.0728465" lon="-105.2307673">
  <ele>1595.6</ele>
  <time>2026-08-27T18:29:23Z</time>
  <course>330.61</course>
  <speed>0.03</speed>
  <fix>3d</fix>
</trkpt>
<trkpt lat="40.0728463" lon="-105.2307671">
  <ele>1595.68</ele>
  <time>2026-08-27T18:29:23Z</time>
  <course>35.38</course>
  <speed>0.01414213562373095</speed>
  <fix>3d</fix>
</trkpt>
<trkpt lat="40.0728465" lon="-105.2307673">
  <ele>1595.6</ele>
  <time>2026-08-27T18:29:23Z</time>
  <course>330.72</course>
  <speed>0.03</speed>
  <fix>3d</fix>
</trkpt>
<trkpt lat="40.0728463" lon="-105.2307672">
  <ele>1595.69</ele>
  <time>2026-08-27T18:29:23Z</time>
  <course>35.37</course>
  <speed>0.01414213562373095</speed>
  <fix>3d</fix>
</trkpt>
<trkpt lat="40.0728466" lon="-105.2307673">
  <ele>1595.6</ele>
  <time>2026-08-27T18:29:23Z</time>
  <course>330.71</course>
  <speed>0.03</speed>
  <fix>3d</fix>
</trkpt>
<trkpt lat="40.0728464" lon="-105.2307672">
  <ele>1595.69</ele>
  <time>2026-08-27T18:29:23Z</time>
  <course>35.39</course>
  <speed>0.0</speed>
  <fix>3d</fix>
</trkpt>
<trkpt lat="40.0728466" lon="-105.2307674">
  <ele>1595.6</ele>
  <time>2026-08-27T18:29:23Z</time>
  <course>333.92</course>
  <speed>0.02</speed>
  <fix>3d</fix>
</trkpt>
<trkpt lat="40.0728464" lon="-105.2307672">
  <ele>1595.69</ele>
  <time>2026-08-27T18:29:23Z</time>
  <course>35.36</course>
  <speed>0.0</speed>
  <fix>3d</fix>
</trkpt>
<trkpt lat="40.0728467" lon="-105.2307675">
  <ele>1595.6</ele>
  <time>2026-08-27T18:29:23Z</time>
  <course>338.97</course>
  <speed>0.02</speed>
  <fix>3d</fix>
</trkpt>
<trkpt lat="40.0728465" lon="-105.2307672">
  <ele>1595.69</ele>
  <time>2026-08-27T18:29:23Z</time>
  <course>35.36</course>
  <speed>0.0</speed>
  <fix>3d</fix>
</trkpt>
<trkpt lat="40.0728467" lon="-105.2307675">
  <ele>1595.6</ele>
  <time>2026-08-27T18:29:23Z</time>
  <course>342.38</course>
  <speed>0.02</speed>
  <fix>3d</fix>
</trkpt>
<trkpt lat="40.0728465" lon="-105.2307673">
  <ele>1595.69</ele>
  <time>2026-08-27T18:29:23Z</time>
  <course>35.36</course>
  <speed>0.0</speed>
  <fix>3d</fix>
</trkpt>
<trkpt lat="40.0728468" lon="-105.2307675">
  <ele>1595.59</ele>
  <time>2026-08-27T18:29:23Z</time>
  <course>342.2</course>
  <speed>0.02</speed>
  <fix>3d</fix>
</trkpt>
<trkpt lat="40.0728466" lon="-105.2307673">
  <ele>1595.68</ele>
  <time>2026-08-27T18:29:23Z</time>
  <course>35.36</course>
  <speed>0.01</speed>
  <fix>3d</fix>
</trkpt>
<trkpt lat="40.0728468" lon="-105.2307675">
  <ele>1595.59</ele>
  <time>2026-08-27T18:29:23Z</time>
  <course>336.83</course>
  <speed>0.03</speed>
  <fix>3d</fix>
</trkpt>
<trkpt lat="40.0728467" lon="-105.2307674">
  <ele>1595.67</ele>
  <time>2026-08-27T18:29:23Z</time>
  <course>35.35</course>
  <speed>0.01414213562373095</speed>
  <fix>3d</fix>
</trkpt>
<trkpt lat="40.0728468" lon="-105.2307675">
  <ele>1595.59</ele>
  <time>2026-08-27T18:29:23Z</time>
  <course>332.49</course>
  <speed>0.03</speed>
  <fix>3d</fix>
</trkpt>
<trkpt lat="40.0728467" lon="-105.2307674">
  <ele>1595.67</ele>
  <time>2026-08-27T18:29:23Z</time>
  <course>35.35</course>
  <speed>0.01414213562373095</speed>
  <fix>3d</fix>
</trkpt>
<trkpt lat="40.0728469" lon="-105.2307675">
  <ele>1595.59</ele>
  <time>2026-08-27T18:29:23Z</time>
  <course>329.76</course>
  <speed>0.04</speed>
  <fix>3d</fix>
</trkpt>
<trkpt lat="40.0728468" lon="-105.2307675">
  <ele>1595.67</ele>
  <time>2026-08-27T18:29:23Z</time>
  <course>35.33</course>
  <speed>0.022360679774997897</speed>
  <fix>3d</fix>
</trkpt>
<trkpt lat="40.072847" lon="-105.2307676">
  <ele>1595.59</ele>
  <time>2026-08-27T18:29:23Z</time>
  <course>327.7</course>
  <speed>0.04</speed>
  <fix>3d</fix>
</trkpt>
<trkpt lat="40.0728469" lon="-105.2307676">
  <ele>1595.67</ele>
  <time>2026-08-27T18:29:23Z</time>
  <course>35.34</course>
  <speed>0.022360679774997897</speed>
  <fix>3d</fix>
</trkpt>
<trkpt lat="40.0728471" lon="-105.2307677">
  <ele>1595.59</ele>
  <time>2026-08-27T18:29:23Z</time>
  <course>326.21</course>
  <speed>0.05</speed>
  <fix>3d</fix>
</trkpt>
<trkpt lat="40.072847" lon="-105.2307676">
  <ele>1595.67</ele>
  <time>2026-08-27T18:29:23Z</time>
  <course>35.32</course>
  <speed>0.0282842712474619</speed>
  <fix>3d</fix>
</trkpt>
<trkpt lat="40.0728471" lon="-105.2307678">
  <ele>1595.59</ele>
  <time>2026-08-27T18:29:23Z</time>
  <course>325.22</course>
  <speed>0.05</speed>
  <fix>3d</fix>
</trkpt>
<trkpt lat="40.072847" lon="-105.2307677">
  <ele>1595.67</ele>
  <time>2026-08-27T18:29:23Z</time>
  <course>35.35</course>
  <speed>0.0282842712474619</speed>
  <fix>3d</fix>
</trkpt>
<trkpt lat="40.0728472" lon="-105.2307678">
  <ele>1595.59</ele>
  <time>2026-08-27T18:29:23Z</time>
  <course>324.39</course>
  <speed>0.05</speed>
  <fix>3d</fix>
</trkpt>
<trkpt lat="40.0728471" lon="-105.2307678">
  <ele>1595.67</ele>
  <time>2026-08-27T18:29:23Z</time>
  <course>35.35</course>
  <speed>0.0282842712474619</speed>
  <fix>3d</fix>
</trkpt>
<trkpt lat="40.0728473" lon="-105.2307679">
  <ele>1595.6</ele>
  <time>2026-08-27T18:29:23Z</time>
  <course>323.54</course>
  <speed>0.05</speed>
  <fix>3d</fix>
</trkpt>
<trkpt lat="40.0728472" lon="-105.2307679">
  <ele>1595.67</ele>
  <time>2026-08-27T18:29:23Z</time>
  <course>35.35</course>
  <speed>0.03605551275463989</speed>
  <fix>3d</fix>
</trkpt>
<trkpt lat="40.0728474" lon="-105.230768">
  <ele>1595.6</ele>
  <time>2026-08-27T18:29:23Z</time>
  <course>323.08</course>
  <speed>0.05</speed>
  <fix>3d</fix>
</trkpt>
<trkpt lat="40.0728473" lon="-105.230768">
  <ele>1595.67</ele>
  <time>2026-08-27T18:29:23Z</time>
  <course>35.34</course>
  <speed>0.03605551275463989</speed>
  <fix>3d</fix>
</trkpt>
<trkpt lat="40.0728475" lon="-105.230768">
  <ele>1595.6</ele>
  <time>2026-08-27T18:29:23Z</time>
  <course>322.84</course>
  <speed>0.06</speed>
  <fix>3d</fix>
</trkpt>
<trkpt lat="40.0728474" lon="-105.2307681">
  <ele>1595.68</ele>
  <time>2026-08-27T18:29:23Z</time>
  <course>35.35</course>
  <speed>0.03605551275463989</speed>
  <fix>3d</fix>
</trkpt>
<trkpt lat="40.0728475" lon="-105.2307681">
  <ele>1595.6</ele>
  <time>2026-08-27T18:29:23Z</time>
  <course>322.38</course>
  <speed>0.06</speed>
  <fix>3d</fix>
</trkpt>
<trkpt lat="40.0728475" lon="-105.2307682">
  <ele>1595.68</ele>
  <time>2026-08-27T18:29:23Z</time>
  <course>35.35</course>
  <speed>0.03605551275463989</speed>
  <fix>3d</fix>
</trkpt>
<trkpt lat="40.0728476" lon="-105.2307682">
  <ele>1595.61</ele>
  <time>2026-08-27T18:29:23Z</time>
  <course>321.97</course>
  <speed>0.06</speed>
  <fix>3d</fix>
</trkpt>
<trkpt lat="40.0728476" lon="-105.2307683">
  <ele>1595.68</ele>
  <time>2026-08-27T18:29:23Z</time>
  <course>35.35</course>
  <speed>0.05</speed>
  <fix>3d</fix>
</trkpt>
<trkpt lat="40.0728477" lon="-105.2307683">
  <ele>1595.61</ele>
  <time>2026-08-27T18:29:23Z</time>
  <course>321.45</course>
  <speed>0.06</speed>
  <fix>3d</fix>
</trkpt>
<trkpt lat="40.0728477" lon="-105.2307684">
  <ele>1595.69</ele>
  <time>2026-08-27T18:29:23Z</time>
  <course>35.4</course>
  <speed>0.05</speed>
  <fix>3d</fix>
</trkpt>
<trkpt lat="40.0728478" lon="-105.2307684">
  <ele>1595.61</ele>
  <time>2026-08-27T18:29:23Z</time>
  <course>321.46</course>
  <speed>0.07</speed>
  <fix>3d</fix>
</trkpt>
<trkpt lat="40.0728478" lon="-105.2307685">
  <ele>1595.69</ele>
  <time>2026-08-27T18:29:23Z</time>
  <course>35.39</course>
  <speed>0.05</speed>
  <fix>3d</fix>
</trkpt>
<trkpt lat="40.0728479" lon="-105.2307685">
  <ele>1595.61</ele>
  <time>2026-08-27T18:29:23Z</time>
  <course>320.42</course>
  <speed>0.07</speed>
  <fix>3d</fix>
</trkpt>
<trkpt lat="40.0728478" lon="-105.2307686">
  <ele>1595.69</ele>
  <time>2026-08-27T18:29:23Z</time>
  <course>35.38</course>
  <speed>0.03605551275463989</speed>
  <fix>3d</fix>
</trkpt>
<trkpt lat="40.072848" lon="-105.2307687">
  <ele>1595.61</ele>
  <time>2026-08-27T18:29:23Z</time>
  <course>318.62</course>
  <speed>0.06</speed>
  <fix>3d</fix>
</trkpt>
<trkpt lat="40.0728479" lon="-105.2307687">
  <ele>1595.69</ele>
  <time>2026-08-27T18:29:23Z</time>
  <course>35.38</course>
  <speed>0.022360679774997897</speed>
  <fix>3d</fix>
</trkpt>
<trkpt lat="40.0728481" lon="-105.2307687">
  <ele>1595.61</ele>
  <time>2026-08-27T18:29:23Z</time>
  <course>318.64</course>
  <speed>0.05</speed>
  <fix>3d</fix>
</trkpt>
<trkpt lat="40.072848" lon="-105.2307687">
  <ele>1595.69</ele>
  <time>2026-08-27T18:29:23Z</time>
  <course>35.36</course>
  <speed>0.022360679774997897</speed>
  <fix>3d</fix>
</trkpt>
<trkpt lat="40.0728482" lon="-105.2307688">
  <ele>1595.61</ele>
  <time>2026-08-27T18:29:23Z</time>
  <course>320.31</course>
  <speed>0.05</speed>
  <fix>3d</fix>
</trkpt>
<trkpt lat="40.0728481" lon="-105.2307688">
  <ele>1595.68</ele>
  <time>2026-08-27T18:29:23Z</time>
  <course>35.36</course>
  <speed>0.01414213562373095</speed>
  <fix>3d</fix>
</trkpt>
<trkpt lat="40.0728482" lon="-105.2307689">
  <ele>1595.6</ele>
  <time>2026-08-27T18:29:23Z</time>
  <course>322.89</course>
  <speed>0.04</speed>
  <fix>3d</fix>
</trkpt>
<trkpt lat="40.0728481" lon="-105.2307689">
  <ele>1595.68</ele>
  <time>2026-08-27T18:29:23Z</time>
  <course>35.35</course>
  <speed>0.01414213562373095</speed>
  <fix>3d</fix>
</trkpt>
<trkpt lat="40.0728483" lon="-105.230769">
  <ele>1595.6</ele>
  <time>2026-08-27T18:29:23Z</time>
  <course>325.4</course>
  <speed>0.04</speed>
  <fix>3d</fix>
</trkpt>
<trkpt lat="40.0728482" lon="-105.2307689">
  <ele>1595.68</ele>
  <time>2026-08-27T18:29:23Z</time>
  <course>35.35</course>
  <speed>0.01414213562373095</speed>
  <fix>3d</fix>
</trkpt>
<trkpt lat="40.0728484" lon="-105.230769">
  <ele>1595.6</ele>
  <time>2026-08-27T18:29:23Z</time>
  <course>327.36</course>
  <speed>0.04</speed>
  <fix>3d</fix>
</trkpt>
<trkpt lat="40.0728483" lon="-105.230769">
  <ele>1595.67</ele>
  <time>2026-08-27T18:29:23Z</time>
  <course>35.36</course>
  <speed>0.0</speed>
  <fix>3d</fix>
</trkpt>
<trkpt lat="40.0728485" lon="-105.230769">
  <ele>1595.6</ele>
  <time>2026-08-27T18:29:23Z</time>
  <course>328.75</course>
  <speed>0.03</speed>
  <fix>3d</fix>
</trkpt>
<trkpt lat="40.0728483" lon="-105.230769">
  <ele>1595.67</ele>
  <time>2026-08-27T18:29:23Z</time>
  <course>35.36</course>
  <speed>0.0</speed>
  <fix>3d</fix>
</trkpt>
<trkpt lat="40.0728485" lon="-105.2307691">
  <ele>1595.6</ele>
  <time>2026-08-27T18:29:23Z</time>
  <course>329.53</course>
  <speed>0.03</speed>
  <fix>3d</fix>
</trkpt>
<trkpt lat="40.0728484" lon="-105.230769">
  <ele>1595.67</ele>
  <time>2026-08-27T18:29:23Z</time>
  <course>35.36</course>
  <speed>0.0</speed>
  <fix>3d</fix>
</trkpt>
<trkpt lat="40.0728486" lon="-105.2307692">
  <ele>1595.6</ele>
  <time>2026-08-27T18:29:23Z</time>
  <course>329.64</course>
  <speed>0.03</speed>
  <fix>3d</fix>
</trkpt>
<trkpt lat="40.0728484" lon="-105.2307691">
  <ele>1595.68</ele>
  <time>2026-08-27T18:29:23Z</time>
  <course>35.35</course>
  <speed>0.01</speed>
  <fix>3d</fix>
</trkpt>
<trkpt lat="40.0728486" lon="-105.2307692">
  <ele>1595.6</ele>
  <time>2026-08-27T18:29:23Z</time>
  <course>329.15</course>
  <speed>0.03</speed>
  <fix>3d</fix>
</trkpt>
<trkpt lat="40.0728485" lon="-105.2307691">
  <ele>1595.68</ele>
  <time>2026-08-27T18:29:23Z</time>
  <course>35.37</course>
  <speed>0.0</speed>
  <fix>3d</fix>
</trkpt>
<trkpt lat="40.0728487" lon="-105.2307692">
  <ele>1595.6</ele>
  <time>2026-08-27T18:29:23Z</time>
  <course>328.82</course>
  <speed>0.02</speed>
  <fix>3d</fix>
</trkpt>
<trkpt lat="40.0728485" lon="-105.2307691">
  <ele>1595.68</ele>
  <time>2026-08-27T18:29:23Z</time>
  <course>35.34</course>
  <speed>0.0</speed>
  <fix>3d</fix>
</trkpt>
<trkpt lat="40.0728487" lon="-105.2307692">
  <ele>1595.61</ele>
  <time>2026-08-27T18:29:23Z</time>
  <course>329.94</course>
  <speed>0.01</speed>
  <fix>3d</fix>
</trkpt>
<trkpt lat="40.0728485" lon="-105.2307691">
  <ele>1595.68</ele>
  <time>2026-08-27T18:29:23Z</time>
  <course>35.36</course>
  <speed>0.0</speed>
  <fix>3d</fix>
</trkpt>
<trkpt lat="40.0728487" lon="-105.2307692">
  <ele>1595.61</ele>
  <time>2026-08-27T18:29:23Z</time>
  <course>339.49</course>
  <speed>0.01</speed>
  <fix>3d</fix>
</trkpt>
<trkpt lat="40.0728486" lon="-105.2307692">
  <ele>1595.68</ele>
  <time>2026-08-27T18:29:23Z</time>
  <course>35.36</course>
  <speed>0.0</speed>
  <fix>3d</fix>
</trkpt>
<trkpt lat="40.0728487" lon="-105.2307692">
  <ele>1595.61</ele>
  <time>2026-08-27T18:29:23Z</time>
  <course>341.63</course>
  <speed>0.01</speed>
  <fix>3d</fix>
</trkpt>
<trkpt lat="40.0728486" lon="-105.2307692">
  <ele>1595.68</ele>
  <time>2026-08-27T18:29:23Z</time>
  <course>35.36</course>
  <speed>0.0</speed>
  <fix>3d</fix>
</trkpt>
<trkpt lat="40.0728487" lon="-105.2307692">
  <ele>1595.61</ele>
  <time>2026-08-27T18:29:23Z</time>
  <course>335.3</course>
  <speed>0.02</speed>
  <fix>3d</fix>
</trkpt>
<trkpt lat="40.0728487" lon="-105.2307692">
  <ele>1595.68</ele>
  <time>2026-08-27T18:29:23Z</time>
  <course>35.35</course>
  <speed>0.01414213562373095</speed>
  <fix>3d</fix>
</trkpt>
<trkpt lat="40.0728488" lon="-105.2307693">
  <ele>1595.61</ele>
  <time>2026-08-27T18:29:23Z</time>
  <course>330.69</course>
  <speed>0.03</speed>
  <fix>3d</fix>
</trkpt>
<trkpt lat="40.0728487" lon="-105.2307693">
  <ele>1595.68</ele>
  <time>2026-08-27T18:29:23Z</time>
  <course>35.35</course>
  <speed>0.01414213562373095</speed>
  <fix>3d</fix>
</trkpt>
<trkpt lat="40.0728488" lon="-105.2307694">
  <ele>1595.61</ele>
  <time>2026-08-27T18:29:23Z</time>
  <course>327.36</course>
  <speed>0.03</speed>
  <fix>3d</fix>
</trkpt>
<trkpt lat="40.0728488" lon="-105.2307693">
  <ele>1595.68</ele>
  <time>2026-08-27T18:29:23Z</time>
  <course>35.35</course>
  <speed>0.022360679774997897</speed>
  <fix>3d</fix>
</trkpt>
<trkpt lat="40.0728489" lon="-105.2307694">
  <ele>1595.61</ele>
  <time>2026-08-27T18:29:23Z</time>
  <course>324.89</course>
  <speed>0.04</speed>
  <fix>3d</fix>
</trkpt>
<trkpt lat="40.0728488" lon="-105.2307694">
  <ele>1595.69</ele>
  <time>2026-08-27T18:29:23Z</time>
  <course>35.35</course>
  <speed>0.0282842712474619</speed>
  <fix>3d</fix>
</trkpt>
<trkpt lat="40.072849" lon="-105.2307695">
  <ele>1595.61</ele>
  <time>2026-08-27T18:29:23Z</time>
  <course>323.43</course>
  <speed>0.04</speed>
  <fix>3d</fix>
</trkpt>
<trkpt lat="40.0728489" lon="-105.2307695">
  <ele>1595.69</ele>
  <time>2026-08-27T18:29:23Z</time>
  <course>35.37</course>
  <speed>0.0282842712474619</speed>
  <fix>3d</fix>
</trkpt>
<trkpt lat="40.0728491" lon="-105.2307696">
  <ele>1595.61</ele>
  <time>2026-08-27T18:29:23Z</time>
  <course>322.57</course>
  <speed>0.04</speed>
  <fix>3d</fix>
</trkpt>
<trkpt lat="40.072849" lon="-105.2307695">
  <ele>1595.69</ele>
  <time>2026-08-27T18:29:23Z</time>
  <course>35.37</course>
  <speed>0.0282842712474619</speed>
  <fix>3d</fix>
</trkpt>
<trkpt lat="40.0728491" lon="-105.2307696">
  <ele>1595.61</ele>
  <time>2026-08-27T18:29:23Z</time>
  <course>321.68</course>
  <speed>0.05</speed>
  <fix>3d</fix>
</trkpt>
<trkpt lat="40.0728491" lon="-105.2307696">
  <ele>1595.69</ele>
  <time>2026-08-27T18:29:23Z</time>
  <course>35.36</course>
  <speed>0.03605551275463989</speed>
  <fix>3d</fix>
</trkpt>
<trkpt lat="40.0728492" lon="-105.2307697">
  <ele>1595.61</ele>
  <time>2026-08-27T18:29:23Z</time>
  <course>320.75</course>
  <speed>0.05</speed>
  <fix>3d</fix>
</trkpt>
<trkpt lat="40.0728491" lon="-105.2307697">
  <ele>1595.69</ele>
  <time>2026-08-27T18:29:23Z</time>
  <course>35.39</course>
  <speed>0.03605551275463989</speed>
  <fix>3d</fix>
</trkpt>
<trkpt lat="40.0728493" lon="-105.2307698">
  <ele>1595.6</ele>
  <time>2026-08-27T18:29:23Z</time>
  <course>319.84</course>
  <speed>0.05</speed>
  <fix>3d</fix>
</trkpt>
<trkpt lat="40.0728492" lon="-105.2307698">
  <ele>1595.69</ele>
  <time>2026-08-27T18:29:23Z</time>
  <course>35.39</course>
  <speed>0.03605551275463989</speed>
  <fix>3d</fix>
</trkpt>
<trkpt lat="40.0728493" lon="-105.2307699">
  <ele>1595.6</ele>
  <time>2026-08-27T18:29:23Z</time>
  <course>318.97</course>
  <speed>0.05</speed>
  <fix>3d</fix>
</trkpt>
<trkpt lat="40.0728493" lon="-105.2307699">
  <ele>1595.69</ele>
  <time>2026-08-27T18:29:23Z</time>
  <course>35.38</course>
  <speed>0.03605551275463989</speed>
  <fix>3d</fix>
</trkpt>
<trkpt lat="40.0728494" lon="-105.2307699">
  <ele>1595.6</ele>
  <time>2026-08-27T18:29:23Z</time>
  <course>318.29</course>
  <speed>0.05</speed>
  <fix>3d</fix>
</trkpt>
<trkpt lat="40.0728494" lon="-105.23077">
  <ele>1595.68</ele>
  <time>2026-08-27T18:29:23Z</time>
  <course>35.36</course>
  <speed>0.03605551275463989</speed>
  <fix>3d</fix>
</trkpt>
<trkpt lat="40.0728495" lon="-105.23077">
  <ele>1595.6</ele>
  <time>2026-08-27T18:29:23Z</time>
  <course>317.63</course>
  <speed>0.05</speed>
  <fix>3d</fix>
</trkpt>
<trkpt lat="40.0728494" lon="-105.2307701">
  <ele>1595.68</ele>
  <time>2026-08-27T18:29:23Z</time>
  <course>35.35</course>
  <speed>0.03605551275463989</speed>
  <fix>3d</fix>
</trkpt>
<trkpt lat="40.0728496" lon="-105.2307701">
  <ele>1595.6</ele>
  <time>2026-08-27T18:29:23Z</time>
  <course>316.83</course>
  <speed>0.05</speed>
  <fix>3d</fix>
</trkpt>
<trkpt lat="40.0728495" lon="-105.2307702">
  <ele>1595.68</ele>
  <time>2026-08-27T18:29:23Z</time>
  <course>35.37</course>
  <speed>0.04242640687119285</speed>
  <fix>3d</fix>
</trkpt>
<trkpt lat="40.0728496" lon="-105.2307702">
  <ele>1595.6</ele>
  <time>2026-08-27T18:29:23Z</time>
  <course>316.83</course>
  <speed>0.06</speed>
  <fix>3d</fix>
</trkpt>
<trkpt lat="40.0728496" lon="-105.2307703">
  <ele>1595.68</ele>
  <time>2026-08-27T18:29:23Z</time>
  <course>35.37</course>
  <speed>0.03605551275463989</speed>
  <fix>3d</fix>
</trkpt>
<trkpt lat="40.0728497" lon="-105.2307703">
  <ele>1595.6</ele>
  <time>2026-08-27T18:29:23Z</time>
  <course>315.99</course>
  <speed>0.06</speed>
  <fix>3d</fix>
</trkpt>
<trkpt lat="40.0728497" lon="-105.2307704">
  <ele>1595.68</ele>
  <time>2026-08-27T18:29:23Z</time>
  <course>35.37</course>
  <speed>0.0316227766016838</speed>
  <fix>3d</fix>
</trkpt>
<trkpt lat="40.0728498" lon="-105.2307704">
  <ele>1595.59</ele>
  <time>2026-08-27T18:29:23Z</time>
  <course>313.42</course>
  <speed>0.06</speed>
  <fix>3d</fix>
</trkpt>
<trkpt lat="40.0728497" lon="-105.2307704">
  <ele>1595.67</ele>
  <time>2026-08-27T18:29:23Z</time>
  <course>35.37</course>
  <speed>0.022360679774997897</speed>
  <fix>3d</fix>
</trkpt>
<trkpt lat="40.0728499" lon="-105.2307705">
  <ele>1595.59</ele>
  <time>2026-08-27T18:29:23Z</time>
  <course>310.88</course>
  <speed>0.05</speed>
  <fix>3d</fix>
</trkpt>
<trkpt lat="40.0728498" lon="-105.2307705">
  <ele>1595.67</ele>
  <time>2026-08-27T18:29:23Z</time>
  <course>35.36</course>
  <speed>0.02</speed>
  <fix>3d</fix>
</trkpt>
<trkpt lat="40.0728499" lon="-105.2307706">
  <ele>1595.59</ele>
  <time>2026-08-27T18:29:23Z</time>
  <course>309.47</course>
  <speed>0.04</speed>
  <fix>3d</fix>
</trkpt>
<trkpt lat="40.0728498" lon="-105.2307706">
  <ele>1595.67</ele>
  <time>2026-08-27T18:29:23Z</time>
  <course>35.36</course>
  <speed>0.01</speed>
  <fix>3d</fix>
</trkpt>
<trkpt lat="40.0728499" lon="-105.2307706">
  <ele>1595.59</ele>
  <time>2026-08-27T18:29:23Z</time>
  <course>309.34</course>
  <speed>0.03</speed>
  <fix>3d</fix>
</trkpt>
<trkpt lat="40.0728499" lon="-105.2307706">
  <ele>1595.66</ele>
  <time>2026-08-27T18:29:23Z</time>
  <course>35.35</course>
  <speed>0.01</speed>
  <fix>3d</fix>
</trkpt>
<trkpt lat="40.07285" lon="-105.2307707">
  <ele>1595.6</ele>
  <time>2026-08-27T18:29:23Z</time>
  <course>309.78</course>
  <speed>0.02</speed>
  <fix>3d</fix>
</trkpt>
<trkpt lat="40.0728499" lon="-105.2307707">
  <ele>1595.66</ele>
  <time>2026-08-27T18:29:23Z</time>
  <course>35.37</course>
  <speed>0.01</speed>
  <fix>3d</fix>
</trkpt>
<trkpt lat="40.07285" lon="-105.2307708">
  <ele>1595.6</ele>
  <time>2026-08-27T18:29:23Z</time>
  <course>310.0</course>
  <speed>0.02</speed>
  <fix>3d</fix>
</trkpt>
<trkpt lat="40.0728499" lon="-105.2307707">
  <ele>1595.66</ele>
  <time>2026-08-27T18:29:23Z</time>
  <course>35.34</course>
  <speed>0.01</speed>
  <fix>3d</fix>
</trkpt>
<trkpt lat="40.07285" lon="-105.2307708">
  <ele>1595.6</ele>
  <time>2026-08-27T18:29:23Z</time>
  <course>309.77</course>
  <speed>0.02</speed>
  <fix>3d</fix>
</trkpt>
<trkpt lat="40.0728499" lon="-105.2307707">
  <ele>1595.66</ele>
  <time>2026-08-27T18:29:23Z</time>
  <course>35.36</course>
  <speed>0.01</speed>
  <fix>3d</fix>
</trkpt>
<trkpt lat="40.07285" lon="-105.2307709">
  <ele>1595.6</ele>
  <time>2026-08-27T18:29:23Z</time>
  <course>309.21</course>
  <speed>0.01</speed>
  <fix>3d</fix>
</trkpt>
<trkpt lat="40.0728499" lon="-105.2307708">
  <ele>1595.66</ele>
  <time>2026-08-27T18:29:23Z</time>
  <course>35.34</course>
  <speed>0.01</speed>
  <fix>3d</fix>
</trkpt>
<trkpt lat="40.0728501" lon="-105.2307709">
  <ele>1595.61</ele>
  <time>2026-08-27T18:29:23Z</time>
  <course>308.64</course>
  <speed>0.01</speed>
  <fix>3d</fix>
</trkpt>
<trkpt lat="40.07285" lon="-105.2307708">
  <ele>1595.67</ele>
  <time>2026-08-27T18:29:23Z</time>
  <course>35.36</course>
  <speed>0.01</speed>
  <fix>3d</fix>
</trkpt>
<trkpt lat="40.0728502" lon="-105.2307709">
  <ele>1595.61</ele>
  <time>2026-08-27T18:29:23Z</time>
  <course>308.3</course>
  <speed>0.01</speed>
  <fix>3d</fix>
</trkpt>
<trkpt lat="40.07285" lon="-105.2307708">
  <ele>1595.67</ele>
  <time>2026-08-27T18:29:23Z</time>
  <course>35.35</course>
  <speed>0.01</speed>
  <fix>3d</fix>
</trkpt>
<trkpt lat="40.0728502" lon="-105.2307709">
  <ele>1595.62</ele>
  <time>2026-08-27T18:29:23Z</time>
  <course>308.17</course>
  <speed>0.01</speed>
  <fix>3d</fix>
</trkpt>
<trkpt lat="40.07285" lon="-105.2307709">
  <ele>1595.68</ele>
  <time>2026-08-27T18:29:23Z</time>
  <course>35.37</course>
  <speed>0.01</speed>
  <fix>3d</fix>
</trkpt>
<trkpt lat="40.0728502" lon="-105.2307709">
  <ele>1595.62</ele>
  <time>2026-08-27T18:29:23Z</time>
  <course>304.32</course>
  <speed>0.01</speed>
  <fix>3d</fix>
</trkpt>
<trkpt lat="40.07285" lon="-105.2307708">
  <ele>1595.69</ele>
  <time>2026-08-27T18:29:23Z</time>
  <course>35.34</course>
  <speed>0.0</speed>
  <fix>3d</fix>
</trkpt>
<trkpt lat="40.0728502" lon="-105.230771">
  <ele>1595.62</ele>
  <time>2026-08-27T18:29:23Z</time>
  <course>273.67</course>
  <speed>0.0</speed>
  <fix>3d</fix>
</trkpt>
<trkpt lat="40.07285" lon="-105.2307709">
  <ele>1595.69</ele>
  <time>2026-08-27T18:29:23Z</time>
  <course>35.35</course>
  <speed>0.0</speed>
  <fix>3d</fix>
</trkpt>
<trkpt lat="40.0728502" lon="-105.2307711">
  <ele>1595.63</ele>
  <time>2026-08-27T18:29:23Z</time>
  <course>259.43</course>
  <speed>0.0</speed>
  <fix>3d</fix>
</trkpt>
<trkpt lat="40.07285" lon="-105.2307709">
  <ele>1595.69</ele>
  <time>2026-08-27T18:29:23Z</time>
  <course>35.36</course>
  <speed>0.0</speed>
  <fix>3d</fix>
</trkpt>
<trkpt lat="40.0728502" lon="-105.2307711">
  <ele>1595.63</ele>
  <time>2026-08-27T18:29:23Z</time>
  <course>300.09</course>
  <speed>0.0</speed>
  <fix>3d</fix>
</trkpt>
<trkpt lat="40.0728501" lon="-105.2307709">
  <ele>1595.69</ele>
  <time>2026-08-27T18:29:23Z</time>
  <course>35.38</course>
  <speed>0.01</speed>
  <fix>3d</fix>
</trkpt>
<trkpt lat="40.0728502" lon="-105.2307711">
  <ele>1595.63</ele>
  <time>2026-08-27T18:29:23Z</time>
  <course>305.41</course>
  <speed>0.01</speed>
  <fix>3d</fix>
</trkpt>
<trkpt lat="40.0728501" lon="-105.230771">
  <ele>1595.69</ele>
  <time>2026-08-27T18:29:23Z</time>
  <course>35.37</course>
  <speed>0.01</speed>
  <fix>3d</fix>
</trkpt>
<trkpt lat="40.0728502" lon="-105.2307711">
  <ele>1595.63</ele>
  <time>2026-08-27T18:29:23Z</time>
  <course>303.03</course>
  <speed>0.01</speed>
  <fix>3d</fix>
</trkpt>
<trkpt lat="40.0728501" lon="-105.230771">
  <ele>1595.68</ele>
  <time>2026-08-27T18:29:23Z</time>
  <course>35.36</course>
  <speed>0.01</speed>
  <fix>3d</fix>
</trkpt>
<trkpt lat="40.0728503" lon="-105.2307711">
  <ele>1595.63</ele>
  <time>2026-08-27T18:29:23Z</time>
  <course>300.85</course>
  <speed>0.02</speed>
  <fix>3d</fix>
</trkpt>
<trkpt lat="40.0728501" lon="-105.2307711">
  <ele>1595.68</ele>
  <time>2026-08-27T18:29:23Z</time>
  <course>35.35</course>
  <speed>0.02</speed>
  <fix>3d</fix>
</trkpt>
<trkpt lat="40.0728503" lon="-105.2307711">
  <ele>1595.63</ele>
  <time>2026-08-27T18:29:23Z</time>
  <course>299.51</course>
  <speed>0.02</speed>
  <fix>3d</fix>
</trkpt>
<trkpt lat="40.0728502" lon="-105.2307712">
  <ele>1595.68</ele>
  <time>2026-08-27T18:29:23Z</time>
  <course>35.35</course>
  <speed>0.02</speed>
  <fix>3d</fix>
</trkpt>
<trkpt lat="40.0728503" lon="-105.2307712">
  <ele>1595.63</ele>
  <time>2026-08-27T18:29:23Z</time>
  <course>298.52</course>
  <speed>0.02</speed>
  <fix>3d</fix>
</trkpt>
<trkpt lat="40.0728502" lon="-105.2307712">
  <ele>1595.68</ele>
  <time>2026-08-27T18:29:23Z</time>
  <course>35.35</course>
  <speed>0.022360679774997897</speed>
  <fix>3d</fix>
</trkpt>
<trkpt lat="40.0728503" lon="-105.2307713">
  <ele>1595.63</ele>
  <time>2026-08-27T18:29:23Z</time>
  <course>297.8</course>
  <speed>0.03</speed>
  <fix>3d</fix>
</trkpt>
<trkpt lat="40.0728502" lon="-105.2307713">
  <ele>1595.68</ele>
  <time>2026-08-27T18:29:23Z</time>
  <course>35.36</course>
  <speed>0.022360679774997897</speed>
  <fix>3d</fix>
</trkpt>
<trkpt lat="40.0728504" lon="-105.2307714">
  <ele>1595.63</ele>
  <time>2026-08-27T18:29:23Z</time>
  <course>297.23</course>
  <speed>0.03</speed>
  <fix>3d</fix>
</trkpt>
<trkpt lat="40.0728503" lon="-105.2307714">
  <ele>1595.68</ele>
  <time>2026-08-27T18:29:23Z</time>
  <course>35.36</course>
  <speed>0.0316227766016838</speed>
  <fix>3d</fix>
</trkpt>
<trkpt lat="40.0728504" lon="-105.2307714">
  <ele>1595.63</ele>
  <time>2026-08-27T18:29:23Z</time>
  <course>296.16</course>
  <speed>0.03</speed>
  <fix>3d</fix>
</trkpt>
<trkpt lat="40.0728503" lon="-105.2307715">
  <ele>1595.68</ele>
  <time>2026-08-27T18:29:23Z</time>
  <course>35.35</course>
  <speed>0.0316227766016838</speed>
  <fix>3d</fix>
</trkpt>
<trkpt lat="40.0728504" lon="-105.2307715">
  <ele>1595.63</ele>
  <time>2026-08-27T18:29:23Z</time>
  <course>294.7</course>
  <speed>0.03</speed>
  <fix>3d</fix>
</trkpt>
<trkpt lat="40.0728503" lon="-105.2307715">
  <ele>1595.68</ele>
  <time>2026-08-27T18:29:23Z</time>
  <course>35.35</course>
  <speed>0.0316227766016838</speed>
  <fix>3d</fix>
</trkpt>
<trkpt lat="40.0728505" lon="-105.2307716">
  <ele>1595.63</ele>
  <time>2026-08-27T18:29:23Z</time>
  <course>293.36</course>
  <speed>0.03</speed>
  <fix>3d</fix>
</trkpt>
<trkpt lat="40.0728504" lon="-105.2307716">
  <ele>1595.69</ele>
  <time>2026-08-27T18:29:23Z</time>
  <course>35.36</course>
  <speed>0.0316227766016838</speed>
  <fix>3d</fix>
</trkpt>
<trkpt lat="40.0728505" lon="-105.2307717">
  <ele>1595.63</ele>
  <time>2026-08-27T18:29:23Z</time>
  <course>292.07</course>
  <speed>0.03</speed>
  <fix>3d</fix>
</trkpt>
<trkpt lat="40.0728504" lon="-105.2307717">
  <ele>1595.69</ele>
  <time>2026-08-27T18:29:23Z</time>
  <course>35.37</course>
  <speed>0.0316227766016838</speed>
  <fix>3d</fix>
</trkpt>
<trkpt lat="40.0728505" lon="-105.2307718">
  <ele>1595.62</ele>
  <time>2026-08-27T18:29:23Z</time>
  <course>290.77</course>
  <speed>0.03</speed>
  <fix>3d</fix>
</trkpt>
<trkpt lat="40.0728504" lon="-105.2307718">
  <ele>1595.69</ele>
  <time>2026-08-27T18:29:23Z</time>
  <course>35.38</course>
  <speed>0.0412310562561766</speed>
  <fix>3d</fix>
</trkpt>
<trkpt lat="40.0728505" lon="-105.2307719">
  <ele>1595.62</ele>
  <time>2026-08-27T18:29:23Z</time>
  <course>290.02</course>
  <speed>0.04</speed>
  <fix>3d</fix>
</trkpt>
<trkpt lat="40.0728505" lon="-105.2307719">
  <ele>1595.69</ele>
  <time>2026-08-27T18:29:23Z</time>
  <course>35.41</course>
  <speed>0.044721359549995794</speed>
  <fix>3d</fix>
</trkpt>
<trkpt lat="40.0728505" lon="-105.230772">
  <ele>1595.62</ele>
  <time>2026-08-27T18:29:23Z</time>
  <course>292.98</course>
  <speed>0.04</speed>
  <fix>3d</fix>
</trkpt>
<trkpt lat="40.0728505" lon="-105.230772">
  <ele>1595.69</ele>
  <time>2026-08-27T18:29:23Z</time>
  <course>35.39</course>
  <speed>0.0412310562561766</speed>
  <fix>3d</fix>
</trkpt>
<trkpt lat="40.0728505" lon="-105.2307721">
  <ele>1595.62</ele>
  <time>2026-08-27T18:29:23Z</time>
  <course>293.57</course>
  <speed>0.04</speed>
  <fix>3d</fix>
</trkpt>
<trkpt lat="40.0728505" lon="-105.2307721">
  <ele>1595.69</ele>
  <time>2026-08-27T18:29:23Z</time>
  <course>35.39</course>
  <speed>0.0316227766016838</speed>
  <fix>3d</fix>
</trkpt>
<trkpt lat="40.0728506" lon="-105.2307722">
  <ele>1595.62</ele>
  <time>2026-08-27T18:29:23Z</time>
  <course>289.22</course>
  <speed>0.04</speed>
  <fix>3d</fix>
</trkpt>
<trkpt lat="40.0728506" lon="-105.2307722">
  <ele>1595.69</ele>
  <time>2026-08-27T18:29:23Z</time>
  <course>35.38</course>
  <speed>0.03</speed>
  <fix>3d</fix>
</trkpt>
<trkpt lat="40.0728506" lon="-105.2307723">
  <ele>1595.61</ele>
  <time>2026-08-27T18:29:23Z</time>
  <course>285.07</course>
  <speed>0.03</speed>
  <fix>3d</fix>
</trkpt>
<trkpt lat="40.0728506" lon="-105.2307723">
  <ele>1595.69</ele>
  <time>2026-08-27T18:29:23Z</time>
  <course>35.38</course>
  <speed>0.02</speed>
  <fix>3d</fix>
</trkpt>
<trkpt lat="40.0728506" lon="-105.2307723">
  <ele>1595.61</ele>
  <time>2026-08-27T18:29:23Z</time>
  <course>282.73</course>
  <speed>0.03</speed>
  <fix>3d</fix>
</trkpt>
<trkpt lat="40.0728506" lon="-105.2307723">
  <ele>1595.69</ele>
  <time>2026-08-27T18:29:23Z</time>
  <course>35.37</course>
  <speed>0.02</speed>
  <fix>3d</fix>
</trkpt>
<trkpt lat="40.0728506" lon="-105.2307724">
  <ele>1595.61</ele>
  <time>2026-08-27T18:29:23Z</time>
  <course>282.66</course>
  <speed>0.02</speed>
  <fix>3d</fix>
</trkpt>
<trkpt lat="40.0728506" lon="-105.2307724">
  <ele>1595.69</ele>
  <time>2026-08-27T18:29:23Z</time>
  <course>35.36</course>
  <speed>0.01</speed>
  <fix>3d</fix>
</trkpt>
<trkpt lat="40.0728506" lon="-105.2307725">
  <ele>1595.61</ele>
  <time>2026-08-27T18:29:23Z</time>
  <course>284.11</course>
  <speed>0.02</speed>
  <fix>3d</fix>
</trkpt>
<trkpt lat="40.0728506" lon="-105.2307724">
  <ele>1595.69</ele>
  <time>2026-08-27T18:29:23Z</time>
  <course>35.36</course>
  <speed>0.01</speed>
  <fix>3d</fix>
</trkpt>
<trkpt lat="40.0728506" lon="-105.2307725">
  <ele>1595.6</ele>
  <time>2026-08-27T18:29:23Z</time>
  <course>285.45</course>
  <speed>0.01</speed>
  <fix>3d</fix>
</trkpt>
<trkpt lat="40.0728506" lon="-105.2307725">
  <ele>1595.69</ele>
  <time>2026-08-27T18:29:23Z</time>
  <course>35.36</course>
  <speed>0.01</speed>
  <fix>3d</fix>
</trkpt>
<trkpt lat="40.0728506" lon="-105.2307726">
  <ele>1595.6</ele>
  <time>2026-08-27T18:29:23Z</time>
  <course>285.64</course>
  <speed>0.01</speed>
  <fix>3d</fix>
</trkpt>
<trkpt lat="40.0728506" lon="-105.2307725">
  <ele>1595.68</ele>
  <time>2026-08-27T18:29:23Z</time>
  <course>35.36</course>
  <speed>0.01</speed>
  <fix>3d</fix>
</trkpt>
<trkpt lat="40.0728506" lon="-105.2307726">
  <ele>1595.6</ele>
  <time>2026-08-27T18:29:23Z</time>
  <course>284.0</course>
  <speed>0.01</speed>
  <fix>3d</fix>
</trkpt>
<trkpt lat="40.0728506" lon="-105.2307726">
  <ele>1595.68</ele>
  <time>2026-08-27T18:29:23Z</time>
  <course>35.35</course>
  <speed>0.01</speed>
  <fix>3d</fix>
</trkpt>
<trkpt lat="40.0728506" lon="-105.2307726">
  <ele>1595.6</ele>
  <time>2026-08-27T18:29:23Z</time>
  <course>280.0</course>
  <speed>0.01</speed>
  <fix>3d</fix>
</trkpt>
<trkpt lat="40.0728506" lon="-105.2307726">
  <ele>1595.67</ele>
  <time>2026-08-27T18:29:23Z</time>
  <course>35.36</course>
  <speed>0.01</speed>
  <fix>3d</fix>
</trkpt>
<trkpt lat="40.0728506" lon="-105.2307726">
  <ele>1595.59</ele>
  <time>2026-08-27T18:29:23Z</time>
  <course>273.77</course>
  <speed>0.01</speed>
  <fix>3d</fix>
</trkpt>
<trkpt lat="40.0728506" lon="-105.2307726">
  <ele>1595.67</ele>
  <time>2026-08-27T18:29:23Z</time>
  <course>35.36</course>
  <speed>0.0</speed>
  <fix>3d</fix>
</trkpt>
<trkpt lat="40.0728506" lon="-105.2307726">
  <ele>1595.59</ele>
  <time>2026-08-27T18:29:23Z</time>
  <course>264.75</course>
  <speed>0.01</speed>
  <fix>3d</fix>
</trkpt>
<trkpt lat="40.0728506" lon="-105.2307726">
  <ele>1595.67</ele>
  <time>2026-08-27T18:29:23Z</time>
  <course>35.33</course>
  <speed>0.01</speed>
  <fix>3d</fix>
</trkpt>
<trkpt lat="40.0728506" lon="-105.2307726">
  <ele>1595.59</ele>
  <time>2026-08-27T18:29:23Z</time>
  <course>212.69</course>
  <speed>0.01</speed>
  <fix>3d</fix>
</trkpt>
<trkpt lat="40.0728506" lon="-105.2307726">
  <ele>1595.68</ele>
  <time>2026-08-27T18:29:23Z</time>
  <course>35.34</course>
  <speed>0.01</speed>
  <fix>3d</fix>
</trkpt>
<trkpt lat="40.0728506" lon="-105.2307726">
  <ele>1595.59</ele>
  <time>2026-08-27T18:29:23Z</time>
  <course>181.03</course>
  <speed>0.01</speed>
  <fix>3d</fix>
</trkpt>
<trkpt lat="40.0728506" lon="-105.2307726">
  <ele>1595.68</ele>
  <time>2026-08-27T18:29:23Z</time>
  <course>35.35</course>
  <speed>0.0</speed>
  <fix>3d</fix>
</trkpt>
<trkpt lat="40.0728506" lon="-105.2307726">
  <ele>1595.6</ele>
  <time>2026-08-27T18:29:23Z</time>
  <course>186.62</course>
  <speed>0.01</speed>
  <fix>3d</fix>
</trkpt>
<trkpt lat="40.0728506" lon="-105.2307726">
  <ele>1595.69</ele>
  <time>2026-08-27T18:29:23Z</time>
  <course>35.35</course>
  <speed>0.01</speed>
  <fix>3d</fix>
</trkpt>
<trkpt lat="40.0728506" lon="-105.2307727">
  <ele>1595.6</ele>
  <time>2026-08-27T18:29:23Z</time>
  <course>215.85</course>
  <speed>0.01</speed>
  <fix>3d</fix>
</trkpt>
<trkpt lat="40.0728506" lon="-105.2307727">
  <ele>1595.69</ele>
  <time>2026-08-27T18:29:23Z</time>
  <course>35.38</course>
  <speed>0.01</speed>
  <fix>3d</fix>
</trkpt>
<trkpt lat="40.0728506" lon="-105.2307728">
  <ele>1595.6</ele>
  <time>2026-08-27T18:29:23Z</time>
  <course>248.94</course>
  <speed>0.01</speed>
  <fix>3d</fix>
</trkpt>
<trkpt lat="40.0728506" lon="-105.2307727">
  <ele>1595.69</ele>
  <time>2026-08-27T18:29:23Z</time>
  <course>35.37</course>
  <speed>0.02</speed>
  <fix>3d</fix>
</trkpt>
<trkpt lat="40.0728506" lon="-105.2307728">
  <ele>1595.6</ele>
  <time>2026-08-27T18:29:23Z</time>
  <course>265.54</course>
  <speed>0.01</speed>
  <fix>3d</fix>
</trkpt>
<trkpt lat="40.0728506" lon="-105.2307728">
  <ele>1595.68</ele>
  <time>2026-08-27T18:29:23Z</time>
  <course>35.36</course>
  <speed>0.02</speed>
  <fix>3d</fix>
</trkpt>
<trkpt lat="40.0728506" lon="-105.2307728">
  <ele>1595.6</ele>
  <time>2026-08-27T18:29:23Z</time>
  <course>270.99</course>
  <speed>0.02</speed>
  <fix>3d</fix>
</trkpt>
<trkpt lat="40.0728506" lon="-105.2307728">
  <ele>1595.68</ele>
  <time>2026-08-27T18:29:23Z</time>
  <course>35.35</course>
  <speed>0.02</speed>
  <fix>3d</fix>
</trkpt>
<trkpt lat="40.0728506" lon="-105.2307728">
  <ele>1595.6</ele>
  <time>2026-08-27T18:29:23Z</time>
  <course>272.51</course>
  <speed>0.02</speed>
  <fix>3d</fix>
</trkpt>
<trkpt lat="40.0728506" lon="-105.2307729">
  <ele>1595.68</ele>
  <time>2026-08-27T18:29:23Z</time>
  <course>35.35</course>
  <speed>0.02</speed>
  <fix>3d</fix>
</trkpt>
<trkpt lat="40.0728506" lon="-105.2307729">
  <ele>1595.59</ele>
  <time>2026-08-27T18:29:23Z</time>
  <course>273.06</course>
  <speed>0.02</speed>
  <fix>3d</fix>
</trkpt>
<trkpt lat="40.0728506" lon="-105.230773">
  <ele>1595.68</ele>
  <time>2026-08-27T18:29:23Z</time>
  <course>35.35</course>
  <speed>0.03</speed>
  <fix>3d</fix>
</trkpt>
<trkpt lat="40.0728506" lon="-105.230773">
  <ele>1595.59</ele>
  <time>2026-08-27T18:29:23Z</time>
  <course>273.32</course>
  <speed>0.02</speed>
  <fix>3d</fix>
</trkpt>
<trkpt lat="40.0728506" lon="-105.230773">
  <ele>1595.68</ele>
  <time>2026-08-27T18:29:24Z</time>
  <course>35.38</course>
  <speed>0.03</speed>
  <fix>3d</fix>
</trkpt>
<trkpt lat="40.0728506" lon="-105.230773">
  <ele>1595.59</ele>
  <time>2026-08-27T18:29:24Z</time>
  <course>273.45</course>
  <speed>0.03</speed>
  <fix>3d</fix>
</trkpt>
<trkpt lat="40.0728506" lon="-105.2307731">
  <ele>1595.68</ele>
  <time>2026-08-27T18:29:24Z</time>
  <course>35.37</course>
  <speed>0.03</speed>
  <fix>3d</fix>
</trkpt>
<trkpt lat="40.0728506" lon="-105.2307731">
  <ele>1595.59</ele>
  <time>2026-08-27T18:29:24Z</time>
  <course>272.49</course>
  <speed>0.03</speed>
  <fix>3d</fix>
</trkpt>
<trkpt lat="40.0728506" lon="-105.2307732">
  <ele>1595.68</ele>
  <time>2026-08-27T18:29:24Z</time>
  <course>35.36</course>
  <speed>0.03</speed>
  <fix>3d</fix>
</trkpt>
<trkpt lat="40.0728506" lon="-105.2307732">
  <ele>1595.59</ele>
  <time>2026-08-27T18:29:24Z</time>
  <course>270.46</course>
  <speed>0.03</speed>
  <fix>3d</fix>
</trkpt>
<trkpt lat="40.0728506" lon="-105.2307733">
  <ele>1595.68</ele>
  <time>2026-08-27T18:29:24Z</time>
  <course>35.35</course>
  <speed>0.03</speed>
  <fix>3d</fix>
</trkpt>
<trkpt lat="40.0728506" lon="-105.2307733">
  <ele>1595.59</ele>
  <time>2026-08-27T18:29:24Z</time>
  <course>268.41</course>
  <speed>0.03</speed>
  <fix>3d</fix>
</trkpt>
<trkpt lat="40.0728506" lon="-105.2307734">
  <ele>1595.68</ele>
  <time>2026-08-27T18:29:24Z</time>
  <course>35.36</course>
  <speed>0.03</speed>
  <fix>3d</fix>
</trkpt>
<trkpt lat="40.0728506" lon="-105.2307734">
  <ele>1595.59</ele>
  <time>2026-08-27T18:29:24Z</time>
  <course>266.77</course>
  <speed>0.03</speed>
  <fix>3d</fix>
</trkpt>
<trkpt lat="40.0728506" lon="-105.2307735">
  <ele>1595.68</ele>
  <time>2026-08-27T18:29:24Z</time>
  <course>35.35</course>
  <speed>0.03</speed>
  <fix>3d</fix>
</trkpt>
<trkpt lat="40.0728506" lon="-105.2307735">
  <ele>1595.59</ele>
  <time>2026-08-27T18:29:24Z</time>
  <course>265.36</course>
  <speed>0.03</speed>
  <fix>3d</fix>
</trkpt>
<trkpt lat="40.0728506" lon="-105.2307736">
  <ele>1595.68</ele>
  <time>2026-08-27T18:29:24Z</time>
  <course>35.37</course>
  <speed>0.0412310562561766</speed>
  <fix>3d</fix>
</trkpt>
<trkpt lat="40.0728506" lon="-105.2307736">
  <ele>1595.59</ele>
  <time>2026-08-27T18:29:24Z</time>
  <course>274.78</course>
  <speed>0.04</speed>
  <fix>3d</fix>
</trkpt>
<trkpt lat="40.0728506" lon="-105.2307737">
  <ele>1595.68</ele>
  <time>2026-08-27T18:29:24Z</time>
  <course>35.36</course>
  <speed>0.04</speed>
  <fix>3d</fix>
</trkpt>
<trkpt lat="40.0728506" lon="-105.2307737">
  <ele>1595.59</ele>
  <time>2026-08-27T18:29:24Z</time>
  <course>281.86</course>
  <speed>0.05</speed>
  <fix>3d</fix>
</trkpt>
<trkpt lat="40.0728506" lon="-105.2307738">
  <ele>1595.68</ele>
  <time>2026-08-27T18:29:24Z</time>
  <course>35.37</course>
  <speed>0.03</speed>
  <fix>3d</fix>
</trkpt>
<trkpt lat="40.0728506" lon="-105.2307738">
  <ele>1595.59</ele>
  <time>2026-08-27T18:29:24Z</time>
  <course>278.88</course>
  <speed>0.04</speed>
  <fix>3d</fix>
</trkpt>
<trkpt lat="40.0728506" lon="-105.2307739">
  <ele>1595.68</ele>
  <time>2026-08-27T18:29:24Z</time>
  <course>35.36</course>
  <speed>0.03</speed>
  <fix>3d</fix>
</trkpt>
<trkpt lat="40.0728506" lon="-105.2307739">
  <ele>1595.59</ele>
  <time>2026-08-27T18:29:24Z</time>
  <course>272.77</course>
  <speed>0.04</speed>
  <fix>3d</fix>
</trkpt>
<trkpt lat="40.0728506" lon="-105.230774">
  <ele>1595.68</ele>
  <time>2026-08-27T18:29:24Z</time>
  <course>35.36</course>
  <speed>0.02</speed>
  <fix>3d</fix>
</trkpt>
<trkpt lat="40.0728506" lon="-105.230774">
  <ele>1595.59</ele>
  <time>2026-08-27T18:29:24Z</time>
  <course>264.81</course>
  <speed>0.03</speed>
  <fix>3d</fix>
</trkpt>
<trkpt lat="40.0728506" lon="-105.230774">
  <ele>1595.68</ele>
  <time>2026-08-27T18:29:24Z</time>
  <course>35.37</course>
  <speed>0.02</speed>
  <fix>3d</fix>
</trkpt>
<trkpt lat="40.0728506" lon="-105.230774">
  <ele>1595.59</ele>
  <time>2026-08-27T18:29:24Z</time>
  <course>255.29</course>
  <speed>0.02</speed>
  <fix>3d</fix>
</trkpt>
<trkpt lat="40.0728506" lon="-105.2307741">
  <ele>1595.68</ele>
  <time>2026-08-27T18:29:24Z</time>
  <course>35.38</course>
  <speed>0.01</speed>
  <fix>3d</fix>
</trkpt>
<trkpt lat="40.0728506" lon="-105.230774">
  <ele>1595.59</ele>
  <time>2026-08-27T18:29:24Z</time>
  <course>244.76</course>
  <speed>0.02</speed>
  <fix>3d</fix>
</trkpt>
<trkpt lat="40.0728506" lon="-105.2307741">
  <ele>1595.68</ele>
  <time>2026-08-27T18:29:24Z</time>
  <course>35.38</course>
  <speed>0.01</speed>
  <fix>3d</fix>
</trkpt>
<trkpt lat="40.0728506" lon="-105.2307741">
  <ele>1595.59</ele>
  <time>2026-08-27T18:29:24Z</time>
  <course>233.98</course>
  <speed>0.01</speed>
  <fix>3d</fix>
</trkpt>
<trkpt lat="40.0728506" lon="-105.2307741">
  <ele>1595.68</ele>
  <time>2026-08-27T18:29:24Z</time>
  <course>35.38</course>
  <speed>0.01</speed>
  <fix>3d</fix>
</trkpt>
<trkpt lat="40.0728506" lon="-105.2307742">
  <ele>1595.59</ele>
  <time>2026-08-27T18:29:24Z</time>
  <course>225.4</course>
  <speed>0.01</speed>
  <fix>3d</fix>
</trkpt>
<trkpt lat="40.0728506" lon="-105.2307741">
  <ele>1595.69</ele>
  <time>2026-08-27T18:29:24Z</time>
  <course>35.38</course>
  <speed>0.01</speed>
  <fix>3d</fix>
</trkpt>
<trkpt lat="40.0728506" lon="-105.2307742">
  <ele>1595.59</ele>
  <time>2026-08-27T18:29:24Z</time>
  <course>220.45</course>
  <speed>0.01</speed>
  <fix>3d</fix>
</trkpt>
<trkpt lat="40.0728506" lon="-105.2307742">
  <ele>1595.68</ele>
  <time>2026-08-27T18:29:24Z</time>
  <course>35.38</course>
  <speed>0.01</speed>
  <fix>3d</fix>
</trkpt>
<trkpt lat="40.0728506" lon="-105.2307742">
  <ele>1595.59</ele>
  <time>2026-08-27T18:29:24Z</time>
  <course>218.17</course>
  <speed>0.01</speed>
  <fix>3d</fix>
</trkpt>
<trkpt lat="40.0728506" lon="-105.2307742">
  <ele>1595.68</ele>
  <time>2026-08-27T18:29:24Z</time>
  <course>35.38</course>
  <speed>0.01</speed>
  <fix>3d</fix>
</trkpt>
<trkpt lat="40.0728505" lon="-105.2307742">
  <ele>1595.59</ele>
  <time>2026-08-27T18:29:24Z</time>
  <course>218.27</course>
  <speed>0.01</speed>
  <fix>3d</fix>
</trkpt>
<trkpt lat="40.0728506" lon="-105.2307742">
  <ele>1595.69</ele>
  <time>2026-08-27T18:29:24Z</time>
  <course>35.37</course>
  <speed>0.01</speed>
  <fix>3d</fix>
</trkpt>
<trkpt lat="40.0728505" lon="-105.2307742">
  <ele>1595.59</ele>
  <time>2026-08-27T18:29:24Z</time>
  <course>220.68</course>
  <speed>0.01</speed>
  <fix>3d</fix>
</trkpt>
<trkpt lat="40.0728505" lon="-105.2307742">
  <ele>1595.69</ele>
  <time>2026-08-27T18:29:24Z</time>
  <course>35.4</course>
  <speed>0.01</speed>
  <fix>3d</fix>
</trkpt>
<trkpt lat="40.0728505" lon="-105.2307743">
  <ele>1595.59</ele>
  <time>2026-08-27T18:29:24Z</time>
  <course>201.3</course>
  <speed>0.01</speed>
  <fix>3d</fix>
</trkpt>
<trkpt lat="40.0728505" lon="-105.2307742">
  <ele>1595.69</ele>
  <time>2026-08-27T18:29:24Z</time>
  <course>35.37</course>
  <speed>0.01</speed>
  <fix>3d</fix>
</trkpt>
<trkpt lat="40.0728505" lon="-105.2307744">
  <ele>1595.59</ele>
  <time>2026-08-27T18:29:24Z</time>
  <course>184.51</course>
  <speed>0.02</speed>
  <fix>3d</fix>
</trkpt>
<trkpt lat="40.0728505" lon="-105.2307742">
  <ele>1595.69</ele>
  <time>2026-08-27T18:29:24Z</time>
  <course>35.36</course>
  <speed>0.01</speed>
  <fix>3d</fix>
</trkpt>
<trkpt lat="40.0728505" lon="-105.2307744">
  <ele>1595.58</ele>
  <time>2026-08-27T18:29:24Z</time>
  <course>182.82</course>
  <speed>0.02</speed>
  <fix>3d</fix>
</trkpt>
<trkpt lat="40.0728504" lon="-105.2307742">
  <ele>1595.68</ele>
  <time>2026-08-27T18:29:24Z</time>
  <course>35.36</course>
  <speed>0.0</speed>
  <fix>3d</fix>
</trkpt>
<trkpt lat="40.0728505" lon="-105.2307744">
  <ele>1595.58</ele>
  <time>2026-08-27T18:29:24Z</time>
  <course>188.96</course>
  <speed>0.02</speed>
  <fix>3d</fix>
</trkpt>
<trkpt lat="40.0728504" lon="-105.2307743">
  <ele>1595.68</ele>
  <time>2026-08-27T18:29:24Z</time>
  <course>35.35</course>
  <speed>0.01</speed>
  <fix>3d</fix>
</trkpt>
<trkpt lat="40.0728504" lon="-105.2307744">
  <ele>1595.58</ele>
  <time>2026-08-27T18:29:24Z</time>
  <course>207.16</course>
  <speed>0.01</speed>
  <fix>3d</fix>
</trkpt>
<trkpt lat="40.0728504" lon="-105.2307743">
  <ele>1595.68</ele>
  <time>2026-08-27T18:29:24Z</time>
  <course>35.35</course>
  <speed>0.01</speed>
  <fix>3d</fix>
</trkpt>
<trkpt lat="40.0728504" lon="-105.2307744">
  <ele>1595.58</ele>
  <time>2026-08-27T18:29:24Z</time>
  <course>226.24</course>
  <speed>0.01</speed>
  <fix>3d</fix>
</trkpt>
<trkpt lat="40.0728504" lon="-105.2307744">
  <ele>1595.68</ele>
  <time>2026-08-27T18:29:24Z</time>
  <course>35.35</course>
  <speed>0.02</speed>
  <fix>3d</fix>
</trkpt>
<trkpt lat="40.0728504" lon="-105.2307744">
  <ele>1595.58</ele>
  <time>2026-08-27T18:29:24Z</time>
  <course>240.25</course>
  <speed>0.02</speed>
  <fix>3d</fix>
</trkpt>
<trkpt lat="40.0728504" lon="-105.2307744">
  <ele>1595.68</ele>
  <time>2026-08-27T18:29:24Z</time>
  <course>35.36</course>
  <speed>0.02</speed>
  <fix>3d</fix>
</trkpt>
<trkpt lat="40.0728504" lon="-105.2307745">
  <ele>1595.58</ele>
  <time>2026-08-27T18:29:24Z</time>
  <course>249.54</course>
  <speed>0.02</speed>
  <fix>3d</fix>
</trkpt>
<trkpt lat="40.0728504" lon="-105.2307745">
  <ele>1595.68</ele>
  <time>2026-08-27T18:29:24Z</time>
  <course>35.35</course>
  <speed>0.03</speed>
  <fix>3d</fix>
</trkpt>
<trkpt lat="40.0728504" lon="-105.2307745">
  <ele>1595.58</ele>
  <time>2026-08-27T18:29:24Z</time>
  <course>255.04</course>
  <speed>0.02</speed>
  <fix>3d</fix>
</trkpt>
<trkpt lat="40.0728504" lon="-105.2307746">
  <ele>1595.67</ele>
  <time>2026-08-27T18:29:24Z</time>
  <course>35.35</course>
  <speed>0.03</speed>
  <fix>3d</fix>
</trkpt>
<trkpt lat="40.0728503" lon="-105.2307746">
  <ele>1595.58</ele>
  <time>2026-08-27T18:29:24Z</time>
  <course>258.27</course>
  <speed>0.03</speed>
  <fix>3d</fix>
</trkpt>
<trkpt lat="40.0728504" lon="-105.2307747">
  <ele>1595.66</ele>
  <time>2026-08-27T18:29:24Z</time>
  <course>35.35</course>
  <speed>0.03</speed>
  <fix>3d</fix>
</trkpt>
<trkpt lat="40.0728503" lon="-105.2307747">
  <ele>1595.58</ele>
  <time>2026-08-27T18:29:24Z</time>
  <course>259.99</course>
  <speed>0.03</speed>
  <fix>3d</fix>
</trkpt>
<trkpt lat="40.0728504" lon="-105.2307748">
  <ele>1595.66</ele>
  <time>2026-08-27T18:29:24Z</time>
  <course>35.32</course>
  <speed>0.03</speed>
  <fix>3d</fix>
</trkpt>
<trkpt lat="40.0728503" lon="-105.2307747">
  <ele>1595.58</ele>
  <time>2026-08-27T18:29:24Z</time>
  <course>259.62</course>
  <speed>0.03</speed>
  <fix>3d</fix>
</trkpt>
<trkpt lat="40.0728504" lon="-105.2307748">
  <ele>1595.66</ele>
  <time>2026-08-27T18:29:24Z</time>
  <course>35.3</course>
  <speed>0.03</speed>
  <fix>3d</fix>
</trkpt>
<trkpt lat="40.0728503" lon="-105.2307748">
  <ele>1595.58</ele>
  <time>2026-08-27T18:29:24Z</time>
  <course>258.28</course>
  <speed>0.03</speed>
  <fix>3d</fix>
</trkpt>
<trkpt lat="40.0728504" lon="-105.2307749">
  <ele>1595.66</ele>
  <time>2026-08-27T18:29:24Z</time>
  <course>35.29</course>
  <speed>0.04</speed>
  <fix>3d</fix>
</trkpt>
<trkpt lat="40.0728503" lon="-105.2307749">
  <ele>1595.58</ele>
  <time>2026-08-27T18:29:24Z</time>
  <course>257.18</course>
  <speed>0.03</speed>
  <fix>3d</fix>
</trkpt>
<trkpt lat="40.0728503" lon="-105.230775">
  <ele>1595.67</ele>
  <time>2026-08-27T18:29:24Z</time>
  <course>35.33</course>
  <speed>0.04</speed>
  <fix>3d</fix>
</trkpt>
<trkpt lat="40.0728503" lon="-105.230775">
  <ele>1595.59</ele>
  <time>2026-08-27T18:29:24Z</time>
  <course>256.2</course>
  <speed>0.04</speed>
  <fix>3d</fix>
</trkpt>
<trkpt lat="40.0728503" lon="-105.2307751">
  <ele>1595.68</ele>
  <time>2026-08-27T18:29:24Z</time>
  <course>35.35</course>
  <speed>0.04</speed>
  <fix>3d</fix>
</trkpt>
<trkpt lat="40.0728503" lon="-105.2307751">
  <ele>1595.59</ele>
  <time>2026-08-27T18:29:24Z</time>
  <course>255.12</course>
  <speed>0.04</speed>
  <fix>3d</fix>
</trkpt>
<trkpt lat="40.0728503" lon="-105.2307752">
  <ele>1595.68</ele>
  <time>2026-08-27T18:29:24Z</time>
  <course>35.35</course>
  <speed>0.05</speed>
  <fix>3d</fix>
</trkpt>
<trkpt lat="40.0728502" lon="-105.2307752">
  <ele>1595.59</ele>
  <time>2026-08-27T18:29:24Z</time>
  <course>254.87</course>
  <speed>0.04</speed>
  <fix>3d</fix>
</trkpt>
<trkpt lat="40.0728503" lon="-105.2307753">
  <ele>1595.68</ele>
  <time>2026-08-27T18:29:24Z</time>
  <course>35.39</course>
  <speed>0.05</speed>
  <fix>3d</fix>
</trkpt>
<trkpt lat="40.0728502" lon="-105.2307753">
  <ele>1595.6</ele>
  <time>2026-08-27T18:29:24Z</time>
  <course>259.83</course>
  <speed>0.04</speed>
  <fix>3d</fix>
</trkpt>
<trkpt lat="40.0728503" lon="-105.2307754">
  <ele>1595.68</ele>
  <time>2026-08-27T18:29:24Z</time>
  <course>35.38</course>
  <speed>0.04</speed>
  <fix>3d</fix>
</trkpt>
<trkpt lat="40.0728502" lon="-105.2307754">
  <ele>1595.6</ele>
  <time>2026-08-27T18:29:24Z</time>
  <course>262.78</course>
  <speed>0.04</speed>
  <fix>3d</fix>
</trkpt>
<trkpt lat="40.0728503" lon="-105.2307755">
  <ele>1595.68</ele>
  <time>2026-08-27T18:29:24Z</time>
  <course>35.37</course>
  <speed>0.04</speed>
  <fix>3d</fix>
</trkpt>
<trkpt lat="40.0728502" lon="-105.2307755">
  <ele>1595.6</ele>
  <time>2026-08-27T18:29:24Z</time>
  <course>258.24</course>
  <speed>0.04</speed>
  <fix>3d</fix>
</trkpt>
<trkpt lat="40.0728503" lon="-105.2307756">
  <ele>1595.69</ele>
  <time>2026-08-27T18:29:24Z</time>
  <course>35.36</course>
  <speed>0.03</speed>
  <fix>3d</fix>
</trkpt>
<trkpt lat="40.0728502" lon="-105.2307756">
  <ele>1595.6</ele>
  <time>2026-08-27T18:29:24Z</time>
  <course>252.18</course>
  <speed>0.03</speed>
  <fix>3d</fix>
</trkpt>
<trkpt lat="40.0728503" lon="-105.2307757">
  <ele>1595.69</ele>
  <time>2026-08-27T18:29:24Z</time>
  <course>35.37</course>
  <speed>0.02</speed>
  <fix>3d</fix>
</trkpt>
<trkpt lat="40.0728502" lon="-105.2307757">
  <ele>1595.6</ele>
  <time>2026-08-27T18:29:24Z</time>
  <course>247.12</course>
  <speed>0.03</speed>
  <fix>3d</fix>
</trkpt>
<trkpt lat="40.0728502" lon="-105.2307757">
  <ele>1595.69</ele>
  <time>2026-08-27T18:29:24Z</time>
  <course>35.37</course>
  <speed>0.02</speed>
  <fix>3d</fix>
</trkpt>
<trkpt lat="40.0728501" lon="-105.2307757">
  <ele>1595.6</ele>
  <time>2026-08-27T18:29:24Z</time>
  <course>243.12</course>
  <speed>0.02</speed>
  <fix>3d</fix>
</trkpt>
<trkpt lat="40.0728502" lon="-105.2307758">
  <ele>1595.68</ele>
  <time>2026-08-27T18:29:24Z</time>
  <course>35.37</course>
  <speed>0.01</speed>
  <fix>3d</fix>
</trkpt>
<trkpt lat="40.07285" lon="-105.2307758">
  <ele>1595.6</ele>
  <time>2026-08-27T18:29:24Z</time>
  <course>239.44</course>
  <speed>0.02</speed>
  <fix>3d</fix>
</trkpt>
<trkpt lat="40.0728502" lon="-105.2307758">
  <ele>1595.68</ele>
  <time>2026-08-27T18:29:24Z</time>
  <course>35.36</course>
  <speed>0.01</speed>
  <fix>3d</fix>
</trkpt>
<trkpt lat="40.07285" lon="-105.2307759">
  <ele>1595.6</ele>
  <time>2026-08-27T18:29:24Z</time>
  <course>235.2</course>
  <speed>0.02</speed>
  <fix>3d</fix>
</trkpt>
<trkpt lat="40.0728502" lon="-105.2307759">
  <ele>1595.68</ele>
  <time>2026-08-27T18:29:24Z</time>
  <course>35.37</course>
  <speed>0.01</speed>
  <fix>3d</fix>
</trkpt>
<trkpt lat="40.07285" lon="-105.2307759">
  <ele>1595.6</ele>
  <time>2026-08-27T18:29:24Z</time>
  <course>229.55</course>
  <speed>0.02</speed>
  <fix>3d</fix>
</trkpt>
<trkpt lat="40.0728501" lon="-105.2307759">
  <ele>1595.69</ele>
  <time>2026-08-27T18:29:24Z</time>
  <course>35.37</course>
  <speed>0.01</speed>
  <fix>3d</fix>
</trkpt>
<trkpt lat="40.07285" lon="-105.2307759">
  <ele>1595.6</ele>
  <time>2026-08-27T18:29:24Z</time>
  <course>222.3</course>
  <speed>0.01</speed>
  <fix>3d</fix>
</trkpt>
<trkpt lat="40.0728501" lon="-105.2307759">
  <ele>1595.69</ele>
  <time>2026-08-27T18:29:24Z</time>
  <course>35.39</course>
  <speed>0.01</speed>
  <fix>3d</fix>
</trkpt>
<trkpt lat="40.0728499" lon="-105.2307759">
  <ele>1595.6</ele>
  <time>2026-08-27T18:29:24Z</time>
  <course>214.61</course>
  <speed>0.01</speed>
  <fix>3d</fix>
</trkpt>
<trkpt lat="40.0728501" lon="-105.2307759">
  <ele>1595.69</ele>
  <time>2026-08-27T18:29:24Z</time>
  <course>35.4</course>
  <speed>0.01</speed>
  <fix>3d</fix>
</trkpt>
<trkpt lat="40.0728499" lon="-105.2307759">
  <ele>1595.6</ele>
  <time>2026-08-27T18:29:24Z</time>
  <course>207.39</course>
  <speed>0.02</speed>
  <fix>3d</fix>
</trkpt>
<trkpt lat="40.07285" lon="-105.2307759">
  <ele>1595.68</ele>
  <time>2026-08-27T18:29:24Z</time>
  <course>35.4</course>
  <speed>0.01</speed>
  <fix>3d</fix>
</trkpt>
<trkpt lat="40.0728499" lon="-105.2307759">
  <ele>1595.6</ele>
  <time>2026-08-27T18:29:24Z</time>
  <course>198.35</course>
  <speed>0.02</speed>
  <fix>3d</fix>
</trkpt>
<trkpt lat="40.07285" lon="-105.2307759">
  <ele>1595.68</ele>
  <time>2026-08-27T18:29:24Z</time>
  <course>35.35</course>
  <speed>0.01</speed>
  <fix>3d</fix>
</trkpt>
<trkpt lat="40.0728499" lon="-105.2307759">
  <ele>1595.59</ele>
  <time>2026-08-27T18:29:24Z</time>
  <course>183.85</course>
  <speed>0.02</speed>
  <fix>3d</fix>
</trkpt>
<trkpt lat="40.0728499" lon="-105.2307759">
  <ele>1595.68</ele>
  <time>2026-08-27T18:29:24Z</time>
  <course>35.35</course>
  <speed>0.01</speed>
  <fix>3d</fix>
</trkpt>
<trkpt lat="40.0728498" lon="-105.2307759">
  <ele>1595.59</ele>
  <time>2026-08-27T18:29:24Z</time>
  <course>175.46</course>
  <speed>0.03</speed>
  <fix>3d</fix>
</trkpt>
<trkpt lat="40.0728499" lon="-105.2307759">
  <ele>1595.68</ele>
  <time>2026-08-27T18:29:24Z</time>
  <course>35.36</course>
  <speed>0.01</speed>
  <fix>3d</fix>
</trkpt>
<trkpt lat="40.0728498" lon="-105.2307759">
  <ele>1595.59</ele>
  <time>2026-08-27T18:29:24Z</time>
  <course>177.0</course>
  <speed>0.03</speed>
  <fix>3d</fix>
</trkpt>
<trkpt lat="40.0728498" lon="-105.2307759">
  <ele>1595.68</ele>
  <time>2026-08-27T18:29:24Z</time>
  <course>35.35</course>
  <speed>0.01</speed>
  <fix>3d</fix>
</trkpt>
<trkpt lat="40.0728497" lon="-105.2307759">
  <ele>1595.59</ele>
  <time>2026-08-27T18:29:24Z</time>
  <course>187.64</course>
  <speed>0.02</speed>
  <fix>3d</fix>
</trkpt>
<trkpt lat="40.0728498" lon="-105.2307759">
  <ele>1595.68</ele>
  <time>2026-08-27T18:29:24Z</time>
  <course>35.35</course>
  <speed>0.01</speed>
  <fix>3d</fix>
</trkpt>
<trkpt lat="40.0728497" lon="-105.230776">
  <ele>1595.59</ele>
  <time>2026-08-27T18:29:24Z</time>
  <course>201.84</course>
  <speed>0.02</speed>
  <fix>3d</fix>
</trkpt>
<trkpt lat="40.0728497" lon="-105.230776">
  <ele>1595.68</ele>
  <time>2026-08-27T18:29:24Z</time>
  <course>35.35</course>
  <speed>0.02</speed>
  <fix>3d</fix>
</trkpt>
<trkpt lat="40.0728497" lon="-105.2307761">
  <ele>1595.59</ele>
  <time>2026-08-27T18:29:24Z</time>
  <course>216.33</course>
  <speed>0.02</speed>
  <fix>3d</fix>
</trkpt>
<trkpt lat="40.0728497" lon="-105.230776">
  <ele>1595.68</ele>
  <time>2026-08-27T18:29:24Z</time>
  <course>35.36</course>
  <speed>0.02</speed>
  <fix>3d</fix>
</trkpt>
<trkpt lat="40.0728496" lon="-105.2307761">
  <ele>1595.59</ele>
  <time>2026-08-27T18:29:24Z</time>
  <course>228.63</course>
  <speed>0.02</speed>
  <fix>3d</fix>
</trkpt>
<trkpt lat="40.0728497" lon="-105.2307761">
  <ele>1595.68</ele>
  <time>2026-08-27T18:29:24Z</time>
  <course>35.36</course>
  <speed>0.02</speed>
  <fix>3d</fix>
</trkpt>
<trkpt lat="40.0728496" lon="-105.2307761">
  <ele>1595.59</ele>
  <time>2026-08-27T18:29:24Z</time>
  <course>236.4</course>
  <speed>0.02</speed>
  <fix>3d</fix>
</trkpt>
<trkpt lat="40.0728497" lon="-105.2307762">
  <ele>1595.68</ele>
  <time>2026-08-27T18:29:24Z</time>
  <course>35.36</course>
  <speed>0.03</speed>
  <fix>3d</fix>
</trkpt>
<trkpt lat="40.0728496" lon="-105.2307762">
  <ele>1595.59</ele>
  <time>2026-08-27T18:29:24Z</time>
  <course>241.03</course>
  <speed>0.03</speed>
  <fix>3d</fix>
</trkpt>
<trkpt lat="40.0728496" lon="-105.2307762">
  <ele>1595.68</ele>
  <time>2026-08-27T18:29:24Z</time>
  <course>35.36</course>
  <speed>0.03</speed>
  <fix>3d</fix>
</trkpt>
<trkpt lat="40.0728495" lon="-105.2307763">
  <ele>1595.6</ele>
  <time>2026-08-27T18:29:24Z</time>
  <course>243.98</course>
  <speed>0.03</speed>
  <fix>3d</fix>
</trkpt>
<trkpt lat="40.0728496" lon="-105.2307763">
  <ele>1595.68</ele>
  <time>2026-08-27T18:29:24Z</time>
  <course>35.36</course>
  <speed>0.03</speed>
  <fix>3d</fix>
</trkpt>
<trkpt lat="40.0728494" lon="-105.2307763">
  <ele>1595.6</ele>
  <time>2026-08-27T18:29:24Z</time>
  <course>245.61</course>
  <speed>0.03</speed>
  <fix>3d</fix>
</trkpt>
<trkpt lat="40.0728496" lon="-105.2307764">
  <ele>1595.68</ele>
  <time>2026-08-27T18:29:24Z</time>
  <course>35.36</course>
  <speed>0.03</speed>
  <fix>3d</fix>
</trkpt>
<trkpt lat="40.0728494" lon="-105.2307764">
  <ele>1595.6</ele>
  <time>2026-08-27T18:29:24Z</time>
  <course>246.88</course>
  <speed>0.03</speed>
  <fix>3d</fix>
</trkpt>
<trkpt lat="40.0728495" lon="-105.2307765">
  <ele>1595.69</ele>
  <time>2026-08-27T18:29:24Z</time>
  <course>35.36</course>
  <speed>0.04</speed>
  <fix>3d</fix>
</trkpt>
<trkpt lat="40.0728494" lon="-105.2307765">
  <ele>1595.6</ele>
  <time>2026-08-27T18:29:24Z</time>
  <course>247.41</course>
  <speed>0.03</speed>
  <fix>3d</fix>
</trkpt>
<trkpt lat="40.0728495" lon="-105.2307766">
  <ele>1595.69</ele>
  <time>2026-08-27T18:29:24Z</time>
  <course>35.38</course>
  <speed>0.04</speed>
  <fix>3d</fix>
</trkpt>
<trkpt lat="40.0728494" lon="-105.2307766">
  <ele>1595.6</ele>
  <time>2026-08-27T18:29:24Z</time>
  <course>247.09</course>
  <speed>0.04</speed>
  <fix>3d</fix>
</trkpt>
<trkpt lat="40.0728495" lon="-105.2307767">
  <ele>1595.69</ele>
  <time>2026-08-27T18:29:24Z</time>
  <course>35.39</course>
  <speed>0.04</speed>
  <fix>3d</fix>
</trkpt>
<trkpt lat="40.0728493" lon="-105.2307766">
  <ele>1595.59</ele>
  <time>2026-08-27T18:29:24Z</time>
  <course>246.0</course>
  <speed>0.04</speed>
  <fix>3d</fix>
</trkpt>
<trkpt lat="40.0728494" lon="-105.2307768">
  <ele>1595.68</ele>
  <time>2026-08-27T18:29:24Z</time>
  <course>35.37</course>
  <speed>0.04</speed>
  <fix>3d</fix>
</trkpt>
<trkpt lat="40.0728493" lon="-105.2307767">
  <ele>1595.59</ele>
  <time>2026-08-27T18:29:24Z</time>
  <course>244.2</course>
  <speed>0.04</speed>
  <fix>3d</fix>
</trkpt>
<trkpt lat="40.0728494" lon="-105.2307769">
  <ele>1595.68</ele>
  <time>2026-08-27T18:29:24Z</time>
  <course>35.41</course>
  <speed>0.04</speed>
  <fix>3d</fix>
</trkpt>
<trkpt lat="40.0728493" lon="-105.2307768">
  <ele>1595.59</ele>
  <time>2026-08-27T18:29:24Z</time>
  <course>250.56</course>
  <speed>0.04</speed>
  <fix>3d</fix>
</trkpt>
<trkpt lat="40.0728494" lon="-105.230777">
  <ele>1595.68</ele>
  <time>2026-08-27T18:29:24Z</time>
  <course>35.39</course>
  <speed>0.04</speed>
  <fix>3d</fix>
</trkpt>
<trkpt lat="40.0728493" lon="-105.2307769">
  <ele>1595.59</ele>
  <time>2026-08-27T18:29:24Z</time>
  <course>256.23</course>
  <speed>0.04</speed>
  <fix>3d</fix>
</trkpt>
<trkpt lat="40.0728494" lon="-105.230777">
  <ele>1595.67</ele>
  <time>2026-08-27T18:29:24Z</time>
  <course>35.39</course>
  <speed>0.03</speed>
  <fix>3d</fix>
</trkpt>
<trkpt lat="40.0728493" lon="-105.230777">
  <ele>1595.59</ele>
  <time>2026-08-27T18:29:24Z</time>
  <course>250.52</course>
  <speed>0.03</speed>
  <fix>3d</fix>
</trkpt>
<trkpt lat="40.0728493" lon="-105.2307771">
  <ele>1595.67</ele>
  <time>2026-08-27T18:29:24Z</time>
  <course>35.37</course>
  <speed>0.02</speed>
  <fix>3d</fix>
</trkpt>
<trkpt lat="40.0728493" lon="-105.2307771">
  <ele>1595.59</ele>
  <time>2026-08-27T18:29:24Z</time>
  <course>240.79</course>
  <speed>0.03</speed>
  <fix>3d</fix>
</trkpt>
<trkpt lat="40.0728493" lon="-105.2307772">
  <ele>1595.67</ele>
  <time>2026-08-27T18:29:24Z</time>
  <course>35.36</course>
  <speed>0.02</speed>
  <fix>3d</fix>
</trkpt>
<trkpt lat="40.0728493" lon="-105.2307772">
  <ele>1595.59</ele>
  <time>2026-08-27T18:29:24Z</time>
  <course>230.93</course>
  <speed>0.02</speed>
  <fix>3d</fix>
</trkpt>
<trkpt lat="40.0728493" lon="-105.2307772">
  <ele>1595.67</ele>
  <time>2026-08-27T18:29:24Z</time>
  <course>35.35</course>
  <speed>0.02</speed>
  <fix>3d</fix>
</trkpt>
<trkpt lat="40.0728492" lon="-105.2307773">
  <ele>1595.59</ele>
  <time>2026-08-27T18:29:24Z</time>
  <course>223.12</course>
  <speed>0.02</speed>
  <fix>3d</fix>
</trkpt>
<trkpt lat="40.0728493" lon="-105.2307772">
  <ele>1595.67</ele>
  <time>2026-08-27T18:29:24Z</time>
  <course>35.35</course>
  <speed>0.01</speed>
  <fix>3d</fix>
</trkpt>
<trkpt lat="40.0728492" lon="-105.2307773">
  <ele>1595.59</ele>
  <time>2026-08-27T18:29:24Z</time>
  <course>218.27</course>
  <speed>0.02</speed>
  <fix>3d</fix>
</trkpt>
<trkpt lat="40.0728492" lon="-105.2307773">
  <ele>1595.67</ele>
  <time>2026-08-27T18:29:24Z</time>
  <course>35.36</course>
  <speed>0.01</speed>
  <fix>3d</fix>
</trkpt>
<trkpt lat="40.0728492" lon="-105.2307773">
  <ele>1595.59</ele>
  <time>2026-08-27T18:29:24Z</time>
  <course>216.37</course>
  <speed>0.02</speed>
  <fix>3d</fix>
</trkpt>
<trkpt lat="40.0728492" lon="-105.2307773">
  <ele>1595.66</ele>
  <time>2026-08-27T18:29:24Z</time>
  <course>35.33</course>
  <speed>0.01</speed>
  <fix>3d</fix>
</trkpt>
<trkpt lat="40.0728491" lon="-105.2307773">
  <ele>1595.6</ele>
  <time>2026-08-27T18:29:24Z</time>
  <course>216.1</course>
  <speed>0.02</speed>
  <fix>3d</fix>
</trkpt>
<trkpt lat="40.0728492" lon="-105.2307773">
  <ele>1595.66</ele>
  <time>2026-08-27T18:29:24Z</time>
  <course>35.34</course>
  <speed>0.01</speed>
  <fix>3d</fix>
</trkpt>
<trkpt lat="40.0728491" lon="-105.2307773">
  <ele>1595.6</ele>
  <time>2026-08-27T18:29:24Z</time>
  <course>217.11</course>
  <speed>0.01</speed>
  <fix>3d</fix>
</trkpt>
<trkpt lat="40.0728492" lon="-105.2307774">
  <ele>1595.67</ele>
  <time>2026-08-27T18:29:24Z</time>
  <course>35.34</course>
  <speed>0.01</speed>
  <fix>3d</fix>
</trkpt>
<trkpt lat="40.0728491" lon="-105.2307774">
  <ele>1595.6</ele>
  <time>2026-08-27T18:29:24Z</time>
  <course>217.74</course>
  <speed>0.01</speed>
  <fix>3d</fix>
</trkpt>
<trkpt lat="40.0728492" lon="-105.2307774">
  <ele>1595.67</ele>
  <time>2026-08-27T18:29:24Z</time>
  <course>35.35</course>
  <speed>0.01</speed>
  <fix>3d</fix>
</trkpt>
<trkpt lat="40.072849" lon="-105.2307775">
  <ele>1595.61</ele>
  <time>2026-08-27T18:29:24Z</time>
  <course>216.84</course>
  <speed>0.01</speed>
  <fix>3d</fix>
</trkpt>
<trkpt lat="40.0728491" lon="-105.2307774">
  <ele>1595.67</ele>
  <time>2026-08-27T18:29:24Z</time>
  <course>35.34</course>
  <speed>0.0</speed>
  <fix>3d</fix>
</trkpt>
<trkpt lat="40.072849" lon="-105.2307775">
  <ele>1595.61</ele>
  <time>2026-08-27T18:29:24Z</time>
  <course>214.56</course>
  <speed>0.01</speed>
  <fix>3d</fix>
</trkpt>
<trkpt lat="40.0728491" lon="-105.2307774">
  <ele>1595.68</ele>
  <time>2026-08-27T18:29:24Z</time>
  <course>35.35</course>
  <speed>0.01</speed>
  <fix>3d</fix>
</trkpt>
<trkpt lat="40.072849" lon="-105.2307775">
  <ele>1595.61</ele>
  <time>2026-08-27T18:29:24Z</time>
  <course>186.93</course>
  <speed>0.02</speed>
  <fix>3d</fix>
</trkpt>
<trkpt lat="40.072849" lon="-105.2307774">
  <ele>1595.68</ele>
  <time>2026-08-27T18:29:24Z</time>
  <course>35.37</course>
  <speed>0.01</speed>
  <fix>3d</fix>
</trkpt>
<trkpt lat="40.0728489" lon="-105.2307775">
  <ele>1595.62</ele>
  <time>2026-08-27T18:29:24Z</time>
  <course>173.07</course>
  <speed>0.03</speed>
  <fix>3d</fix>
</trkpt>
<trkpt lat="40.072849" lon="-105.2307774">
  <ele>1595.69</ele>
  <time>2026-08-27T18:29:24Z</time>
  <course>35.37</course>
  <speed>0.01</speed>
  <fix>3d</fix>
</trkpt>
<trkpt lat="40.0728488" lon="-105.2307775">
  <ele>1595.62</ele>
  <time>2026-08-27T18:29:24Z</time>
  <course>174.25</course>
  <speed>0.03</speed>
  <fix>3d</fix>
</trkpt>
<trkpt lat="40.0728489" lon="-105.2307774">
  <ele>1595.69</ele>
  <time>2026-08-27T18:29:24Z</time>
  <course>35.37</course>
  <speed>0.0</speed>
  <fix>3d</fix>
</trkpt>
<trkpt lat="40.0728487" lon="-105.2307775">
  <ele>1595.62</ele>
  <time>2026-08-27T18:29:24Z</time>
  <course>180.55</course>
  <speed>0.03</speed>
  <fix>3d</fix>
</trkpt>
<trkpt lat="40.0728489" lon="-105.2307775">
  <ele>1595.69</ele>
  <time>2026-08-27T18:29:24Z</time>
  <course>35.38</course>
  <speed>0.01</speed>
  <fix>3d</fix>
</trkpt>
<trkpt lat="40.0728487" lon="-105.2307775">
  <ele>1595.62</ele>
  <time>2026-08-27T18:29:24Z</time>
  <course>191.39</course>
  <speed>0.02</speed>
  <fix>3d</fix>
</trkpt>
<trkpt lat="40.0728488" lon="-105.2307775">
  <ele>1595.69</ele>
  <time>2026-08-27T18:29:24Z</time>
  <course>35.37</course>
  <speed>0.02</speed>
  <fix>3d</fix>
</trkpt>
<trkpt lat="40.0728487" lon="-105.2307775">
  <ele>1595.62</ele>
  <time>2026-08-27T18:29:24Z</time>
  <course>203.76</course>
  <speed>0.02</speed>
  <fix>3d</fix>
</trkpt>
<trkpt lat="40.0728488" lon="-105.2307775">
  <ele>1595.69</ele>
  <time>2026-08-27T18:29:24Z</time>
  <course>35.37</course>
  <speed>0.02</speed>
  <fix>3d</fix>
</trkpt>
<trkpt lat="40.0728486" lon="-105.2307775">
  <ele>1595.62</ele>
  <time>2026-08-27T18:29:24Z</time>
  <course>213.51</course>
  <speed>0.02</speed>
  <fix>3d</fix>
</trkpt>
<trkpt lat="40.0728487" lon="-105.2307776">
  <ele>1595.69</ele>
  <time>2026-08-27T18:29:24Z</time>
  <course>35.38</course>
  <speed>0.02</speed>
  <fix>3d</fix>
</trkpt>
<trkpt lat="40.0728486" lon="-105.2307776">
  <ele>1595.62</ele>
  <time>2026-08-27T18:29:24Z</time>
  <course>220.67</course>
  <speed>0.02</speed>
  <fix>3d</fix>
</trkpt>
<trkpt lat="40.0728487" lon="-105.2307776">
  <ele>1595.69</ele>
  <time>2026-08-27T18:29:24Z</time>
  <course>35.37</course>
  <speed>0.02</speed>
  <fix>3d</fix>
</trkpt>
<trkpt lat="40.0728486" lon="-105.2307776">
  <ele>1595.62</ele>
  <time>2026-08-27T18:29:24Z</time>
  <course>225.92</course>
  <speed>0.02</speed>
  <fix>3d</fix>
</trkpt>
<trkpt lat="40.0728487" lon="-105.2307777">
  <ele>1595.69</ele>
  <time>2026-08-27T18:29:24Z</time>
  <course>35.38</course>
  <speed>0.03</speed>
  <fix>3d</fix>
</trkpt>
<trkpt lat="40.0728485" lon="-105.2307776">
  <ele>1595.62</ele>
  <time>2026-08-27T18:29:24Z</time>
  <course>229.73</course>
  <speed>0.03</speed>
  <fix>3d</fix>
</trkpt>
<trkpt lat="40.0728486" lon="-105.2307778">
  <ele>1595.69</ele>
  <time>2026-08-27T18:29:24Z</time>
  <course>35.37</course>
  <speed>0.03</speed>
  <fix>3d</fix>
</trkpt>
<trkpt lat="40.0728485" lon="-105.2307777">
  <ele>1595.61</ele>
  <time>2026-08-27T18:29:24Z</time>
  <course>232.46</course>
  <speed>0.03</speed>
  <fix>3d</fix>
</trkpt>
<trkpt lat="40.0728486" lon="-105.2307778">
  <ele>1595.69</ele>
  <time>2026-08-27T18:29:24Z</time>
  <course>35.38</course>
  <speed>0.03</speed>
  <fix>3d</fix>
</trkpt>
<trkpt lat="40.0728485" lon="-105.2307778">
  <ele>1595.61</ele>
  <time>2026-08-27T18:29:24Z</time>
  <course>234.2</course>
  <speed>0.03</speed>
  <fix>3d</fix>
</trkpt>
<trkpt lat="40.0728485" lon="-105.2307779">
  <ele>1595.7</ele>
  <time>2026-08-27T18:29:24Z</time>
  <course>35.39</course>
  <speed>0.03</speed>
  <fix>3d</fix>
</trkpt>
<trkpt lat="40.0728484" lon="-105.2307778">
  <ele>1595.61</ele>
  <time>2026-08-27T18:29:24Z</time>
  <course>235.29</course>
  <speed>0.03</speed>
  <fix>3d</fix>
</trkpt>
<trkpt lat="40.0728485" lon="-105.230778">
  <ele>1595.7</ele>
  <time>2026-08-27T18:29:24Z</time>
  <course>35.38</course>
  <speed>0.03</speed>
  <fix>3d</fix>
</trkpt>
<trkpt lat="40.0728484" lon="-105.2307779">
  <ele>1595.61</ele>
  <time>2026-08-27T18:29:24Z</time>
  <course>235.87</course>
  <speed>0.03</speed>
  <fix>3d</fix>
</trkpt>
<trkpt lat="40.0728485" lon="-105.230778">
  <ele>1595.69</ele>
  <time>2026-08-27T18:29:24Z</time>
  <course>35.38</course>
  <speed>0.03</speed>
  <fix>3d</fix>
</trkpt>
<trkpt lat="40.0728483" lon="-105.230778">
  <ele>1595.6</ele>
  <time>2026-08-27T18:29:24Z</time>
  <course>235.57</course>
  <speed>0.03</speed>
  <fix>3d</fix>
</trkpt>
<trkpt lat="40.0728484" lon="-105.2307781">
  <ele>1595.69</ele>
  <time>2026-08-27T18:29:24Z</time>
  <course>35.4</course>
  <speed>0.0316227766016838</speed>
  <fix>3d</fix>
</trkpt>
<trkpt lat="40.0728482" lon="-105.2307781">
  <ele>1595.6</ele>
  <time>2026-08-27T18:29:24Z</time>
  <course>234.94</course>
  <speed>0.04</speed>
  <fix>3d</fix>
</trkpt>
<trkpt lat="40.0728484" lon="-105.2307782">
  <ele>1595.69</ele>
  <time>2026-08-27T18:29:24Z</time>
  <course>35.39</course>
  <speed>0.04</speed>
  <fix>3d</fix>
</trkpt>
<trkpt lat="40.0728482" lon="-105.2307781">
  <ele>1595.6</ele>
  <time>2026-08-27T18:29:24Z</time>
  <course>248.64</course>
  <speed>0.04</speed>
  <fix>3d</fix>
</trkpt>
<trkpt lat="40.0728484" lon="-105.2307783">
  <ele>1595.68</ele>
  <time>2026-08-27T18:29:24Z</time>
  <course>35.38</course>
  <speed>0.04</speed>
  <fix>3d</fix>
</trkpt>
<trkpt lat="40.0728482" lon="-105.2307782">
  <ele>1595.59</ele>
  <time>2026-08-27T18:29:24Z</time>
  <course>261.03</course>
  <speed>0.04</speed>
  <fix>3d</fix>
</trkpt>
<trkpt lat="40.0728483" lon="-105.2307784">
  <ele>1595.68</ele>
  <time>2026-08-27T18:29:24Z</time>
  <course>35.37</course>
  <speed>0.03</speed>
  <fix>3d</fix>
</trkpt>
<trkpt lat="40.0728482" lon="-105.2307783">
  <ele>1595.59</ele>
  <time>2026-08-27T18:29:24Z</time>
  <course>258.16</course>
  <speed>0.04</speed>
  <fix>3d</fix>
</trkpt>
<trkpt lat="40.0728483" lon="-105.2307785">
  <ele>1595.68</ele>
  <time>2026-08-27T18:29:24Z</time>
  <course>35.36</course>
  <speed>0.03</speed>
  <fix>3d</fix>
</trkpt>
<trkpt lat="40.0728481" lon="-105.2307784">
  <ele>1595.59</ele>
  <time>2026-08-27T18:29:24Z</time>
  <course>250.72</course>
  <speed>0.03</speed>
  <fix>3d</fix>
</trkpt>
<trkpt lat="40.0728483" lon="-105.2307785">
  <ele>1595.67</ele>
  <time>2026-08-27T18:29:24Z</time>
  <course>35.36</course>
  <speed>0.02</speed>
  <fix>3d</fix>
</trkpt>
<trkpt lat="40.0728481" lon="-105.2307785">
  <ele>1595.59</ele>
  <time>2026-08-27T18:29:24Z</time>
  <course>241.2</course>
  <speed>0.03</speed>
  <fix>3d</fix>
</trkpt>
<trkpt lat="40.0728482" lon="-105.2307786">
  <ele>1595.67</ele>
  <time>2026-08-27T18:29:24Z</time>
  <course>35.36</course>
  <speed>0.01</speed>
  <fix>3d</fix>
</trkpt>
<trkpt lat="40.0728481" lon="-105.2307785">
  <ele>1595.59</ele>
  <time>2026-08-27T18:29:24Z</time>
  <course>230.48</course>
  <speed>0.02</speed>
  <fix>3d</fix>
</trkpt>
<trkpt lat="40.0728482" lon="-105.2307786">
  <ele>1595.67</ele>
  <time>2026-08-27T18:29:24Z</time>
  <course>35.36</course>
  <speed>0.01</speed>
  <fix>3d</fix>
</trkpt>
<trkpt lat="40.0728481" lon="-105.2307785">
  <ele>1595.59</ele>
  <time>2026-08-27T18:29:24Z</time>
  <course>220.08</course>
  <speed>0.02</speed>
  <fix>3d</fix>
</trkpt>
<trkpt lat="40.0728482" lon="-105.2307786">
  <ele>1595.67</ele>
  <time>2026-08-27T18:29:24Z</time>
  <course>35.37</course>
  <speed>0.01</speed>
  <fix>3d</fix>
</trkpt>
<trkpt lat="40.0728481" lon="-105.2307786">
  <ele>1595.59</ele>
  <time>2026-08-27T18:29:24Z</time>
  <course>211.43</course>
  <speed>0.02</speed>
  <fix>3d</fix>
</trkpt>
<trkpt lat="40.0728481" lon="-105.2307786">
  <ele>1595.68</ele>
  <time>2026-08-27T18:29:24Z</time>
  <course>35.37</course>
  <speed>0.01</speed>
  <fix>3d</fix>
</trkpt>
<trkpt lat="40.072848" lon="-105.2307787">
  <ele>1595.59</ele>
  <time>2026-08-27T18:29:24Z</time>
  <course>204.91</course>
  <speed>0.02</speed>
  <fix>3d</fix>
</trkpt>
<trkpt lat="40.0728481" lon="-105.2307787">
  <ele>1595.68</ele>
  <time>2026-08-27T18:29:24Z</time>
  <course>35.37</course>
  <speed>0.01</speed>
  <fix>3d</fix>
</trkpt>
<trkpt lat="40.072848" lon="-105.2307787">
  <ele>1595.6</ele>
  <time>2026-08-27T18:29:24Z</time>
  <course>200.08</course>
  <speed>0.02</speed>
  <fix>3d</fix>
</trkpt>
<trkpt lat="40.0728481" lon="-105.2307787">
  <ele>1595.67</ele>
  <time>2026-08-27T18:29:24Z</time>
  <course>35.37</course>
  <speed>0.0</speed>
  <fix>3d</fix>
</trkpt>
<trkpt lat="40.072848" lon="-105.2307787">
  <ele>1595.6</ele>
  <time>2026-08-27T18:29:24Z</time>
  <course>196.61</course>
  <speed>0.02</speed>
  <fix>3d</fix>
</trkpt>
<trkpt lat="40.072848" lon="-105.2307787">
  <ele>1595.68</ele>
  <time>2026-08-27T18:29:24Z</time>
  <course>35.38</course>
  <speed>0.0</speed>
  <fix>3d</fix>
</trkpt>
<trkpt lat="40.0728479" lon="-105.2307787">
  <ele>1595.6</ele>
  <time>2026-08-27T18:29:24Z</time>
  <course>194.24</course>
  <speed>0.02</speed>
  <fix>3d</fix>
</trkpt>
<trkpt lat="40.072848" lon="-105.2307787">
  <ele>1595.68</ele>
  <time>2026-08-27T18:29:24Z</time>
  <course>35.39</course>
  <speed>0.01</speed>
  <fix>3d</fix>
</trkpt>
<trkpt lat="40.0728479" lon="-105.2307787">
  <ele>1595.6</ele>
  <time>2026-08-27T18:29:24Z</time>
  <course>192.98</course>
  <speed>0.02</speed>
  <fix>3d</fix>
</trkpt>
<trkpt lat="40.0728479" lon="-105.2307787">
  <ele>1595.68</ele>
  <time>2026-08-27T18:29:24Z</time>
  <course>35.41</course>
  <speed>0.01</speed>
  <fix>3d</fix>
</trkpt>
<trkpt lat="40.0728478" lon="-105.2307788">
  <ele>1595.6</ele>
  <time>2026-08-27T18:29:24Z</time>
  <course>188.52</course>
  <speed>0.02</speed>
  <fix>3d</fix>
</trkpt>
<trkpt lat="40.0728479" lon="-105.2307787">
  <ele>1595.68</ele>
  <time>2026-08-27T18:29:24Z</time>
  <course>35.36</course>
  <speed>0.02</speed>
  <fix>3d</fix>
</trkpt>
<trkpt lat="40.0728478" lon="-105.2307788">
  <ele>1595.6</ele>
  <time>2026-08-27T18:29:24Z</time>
  <course>179.91</course>
  <speed>0.03</speed>
  <fix>3d</fix>
</trkpt>
<trkpt lat="40.0728478" lon="-105.2307787">
  <ele>1595.68</ele>
  <time>2026-08-27T18:29:24Z</time>
  <course>35.36</course>
  <speed>0.01</speed>
  <fix>3d</fix>
</trkpt>
<trkpt lat="40.0728477" lon="-105.2307788">
  <ele>1595.6</ele>
  <time>2026-08-27T18:29:24Z</time>
  <course>174.48</course>
  <speed>0.03</speed>
  <fix>3d</fix>
</trkpt>
<trkpt lat="40.0728478" lon="-105.2307787">
  <ele>1595.68</ele>
  <time>2026-08-27T18:29:25Z</time>
  <course>35.37</course>
  <speed>0.01</speed>
  <fix>3d</fix>
</trkpt>
<trkpt lat="40.0728476" lon="-105.2307788">
  <ele>1595.6</ele>
  <time>2026-08-27T18:29:25Z</time>
  <course>176.14</course>
  <speed>0.03</speed>
  <fix>3d</fix>
</trkpt>
<trkpt lat="40.0728477" lon="-105.2307787">
  <ele>1595.68</ele>
  <time>2026-08-27T18:29:25Z</time>
  <course>35.37</course>
  <speed>0.01</speed>
  <fix>3d</fix>
</trkpt>
<trkpt lat="40.0728476" lon="-105.2307788">
  <ele>1595.6</ele>
  <time>2026-08-27T18:29:25Z</time>
  <course>186.2</course>
  <speed>0.02</speed>
  <fix>3d</fix>
</trkpt>
<trkpt lat="40.0728477" lon="-105.2307787">
  <ele>1595.68</ele>
  <time>2026-08-27T18:29:25Z</time>
  <course>35.36</course>
  <speed>0.01</speed>
  <fix>3d</fix>
</trkpt>
<trkpt lat="40.0728475" lon="-105.2307788">
  <ele>1595.6</ele>
  <time>2026-08-27T18:29:25Z</time>
  <course>199.62</course>
  <speed>0.02</speed>
  <fix>3d</fix>
</trkpt>
<trkpt lat="40.0728476" lon="-105.2307788">
  <ele>1595.68</ele>
  <time>2026-08-27T18:29:25Z</time>
  <course>35.36</course>
  <speed>0.02</speed>
  <fix>3d</fix>
</trkpt>
<trkpt lat="40.0728475" lon="-105.2307788">
  <ele>1595.6</ele>
  <time>2026-08-27T18:29:25Z</time>
  <course>213.9</course>
  <speed>0.02</speed>
  <fix>3d</fix>
</trkpt>
<trkpt lat="40.0728476" lon="-105.2307788">
  <ele>1595.68</ele>
  <time>2026-08-27T18:29:25Z</time>
  <course>35.35</course>
  <speed>0.02</speed>
  <fix>3d</fix>
</trkpt>
<trkpt lat="40.0728475" lon="-105.2307788">
  <ele>1595.6</ele>
  <time>2026-08-27T18:29:25Z</time>
  <course>225.74</course>
  <speed>0.02</speed>
  <fix>3d</fix>
</trkpt>
<trkpt lat="40.0728476" lon="-105.2307789">
  <ele>1595.68</ele>
  <time>2026-08-27T18:29:25Z</time>
  <course>35.35</course>
  <speed>0.02</speed>
  <fix>3d</fix>
</trkpt>
<trkpt lat="40.0728475" lon="-105.2307788">
  <ele>1595.6</ele>
  <time>2026-08-27T18:29:25Z</time>
  <course>234.49</course>
  <speed>0.02</speed>
  <fix>3d</fix>
</trkpt>
<trkpt lat="40.0728475" lon="-105.230779">
  <ele>1595.68</ele>
  <time>2026-08-27T18:29:25Z</time>
  <course>35.36</course>
  <speed>0.03</speed>
  <fix>3d</fix>
</trkpt>
<trkpt lat="40.0728474" lon="-105.2307789">
  <ele>1595.6</ele>
  <time>2026-08-27T18:29:25Z</time>
  <course>241.51</course>
  <speed>0.02</speed>
  <fix>3d</fix>
</trkpt>
<trkpt lat="40.0728475" lon="-105.230779">
  <ele>1595.68</ele>
  <time>2026-08-27T18:29:25Z</time>
  <course>35.36</course>
  <speed>0.03</speed>
  <fix>3d</fix>
</trkpt>
<trkpt lat="40.0728474" lon="-105.230779">
  <ele>1595.6</ele>
  <time>2026-08-27T18:29:25Z</time>
  <course>246.89</course>
  <speed>0.02</speed>
  <fix>3d</fix>
</trkpt>
<trkpt lat="40.0728475" lon="-105.2307791">
  <ele>1595.68</ele>
  <time>2026-08-27T18:29:25Z</time>
  <course>35.37</course>
  <speed>0.03</speed>
  <fix>3d</fix>
</trkpt>
<trkpt lat="40.0728474" lon="-105.230779">
  <ele>1595.6</ele>
  <time>2026-08-27T18:29:25Z</time>
  <course>249.32</course>
  <speed>0.03</speed>
  <fix>3d</fix>
</trkpt>
<trkpt lat="40.0728475" lon="-105.2307792">
  <ele>1595.68</ele>
  <time>2026-08-27T18:29:25Z</time>
  <course>35.37</course>
  <speed>0.03</speed>
  <fix>3d</fix>
</trkpt>
<trkpt lat="40.0728474" lon="-105.2307791">
  <ele>1595.6</ele>
  <time>2026-08-27T18:29:25Z</time>
  <course>249.96</course>
  <speed>0.03</speed>
  <fix>3d</fix>
</trkpt>
<trkpt lat="40.0728475" lon="-105.2307792">
  <ele>1595.68</ele>
  <time>2026-08-27T18:29:25Z</time>
  <course>35.37</course>
  <speed>0.04</speed>
  <fix>3d</fix>
</trkpt>
<trkpt lat="40.0728474" lon="-105.2307792">
  <ele>1595.6</ele>
  <time>2026-08-27T18:29:25Z</time>
  <course>250.45</course>
  <speed>0.03</speed>
  <fix>3d</fix>
</trkpt>
<trkpt lat="40.0728474" lon="-105.2307793">
  <ele>1595.68</ele>
  <time>2026-08-27T18:29:25Z</time>
  <course>35.37</course>
  <speed>0.04</speed>
  <fix>3d</fix>
</trkpt>
<trkpt lat="40.0728473" lon="-105.2307793">
  <ele>1595.6</ele>
  <time>2026-08-27T18:29:25Z</time>
  <course>250.52</course>
  <speed>0.03</speed>
  <fix>3d</fix>
</trkpt>
<trkpt lat="40.0728474" lon="-105.2307794">
  <ele>1595.68</ele>
  <time>2026-08-27T18:29:25Z</time>
  <course>35.37</course>
  <speed>0.04</speed>
  <fix>3d</fix>
</trkpt>
<trkpt lat="40.0728473" lon="-105.2307793">
  <ele>1595.6</ele>
  <time>2026-08-27T18:29:25Z</time>
  <course>250.01</course>
  <speed>0.03</speed>
  <fix>3d</fix>
</trkpt>
<trkpt lat="40.0728474" lon="-105.2307795">
  <ele>1595.69</ele>
  <time>2026-08-27T18:29:25Z</time>
  <course>35.37</course>
  <speed>0.04</speed>
  <fix>3d</fix>
</trkpt>
<trkpt lat="40.0728473" lon="-105.2307794">
  <ele>1595.6</ele>
  <time>2026-08-27T18:29:25Z</time>
  <course>249.62</course>
  <speed>0.04</speed>
  <fix>3d</fix>
</trkpt>
<trkpt lat="40.0728474" lon="-105.2307796">
  <ele>1595.69</ele>
  <time>2026-08-27T18:29:25Z</time>
  <course>35.42</course>
  <speed>0.04</speed>
  <fix>3d</fix>
</trkpt>
<trkpt lat="40.0728473" lon="-105.2307795">
  <ele>1595.6</ele>
  <time>2026-08-27T18:29:25Z</time>
  <course>255.03</course>
  <speed>0.04</speed>
  <fix>3d</fix>
</trkpt>
<trkpt lat="40.0728474" lon="-105.2307797">
  <ele>1595.68</ele>
  <time>2026-08-27T18:29:25Z</time>
  <course>35.4</course>
  <speed>0.04</speed>
  <fix>3d</fix>
</trkpt>
<trkpt lat="40.0728473" lon="-105.2307796">
  <ele>1595.6</ele>
  <time>2026-08-27T18:29:25Z</time>
  <course>258.01</course>
  <speed>0.04</speed>
  <fix>3d</fix>
</trkpt>
<trkpt lat="40.0728474" lon="-105.2307798">
  <ele>1595.68</ele>
  <time>2026-08-27T18:29:25Z</time>
  <course>35.38</course>
  <speed>0.03</speed>
  <fix>3d</fix>
</trkpt>
<trkpt lat="40.0728473" lon="-105.2307797">
  <ele>1595.6</ele>
  <time>2026-08-27T18:29:25Z</time>
  <course>250.61</course>
  <speed>0.03</speed>
  <fix>3d</fix>
</trkpt>
<trkpt lat="40.0728473" lon="-105.2307798">
  <ele>1595.67</ele>
  <time>2026-08-27T18:29:25Z</time>
  <course>35.38</course>
  <speed>0.03</speed>
  <fix>3d</fix>
</trkpt>
<trkpt lat="40.0728472" lon="-105.2307798">
  <ele>1595.6</ele>
  <time>2026-08-27T18:29:25Z</time>
  <course>239.76</course>
  <speed>0.03</speed>
  <fix>3d</fix>
</trkpt>
<trkpt lat="40.0728473" lon="-105.2307799">
  <ele>1595.67</ele>
  <time>2026-08-27T18:29:25Z</time>
  <course>35.37</course>
  <speed>0.02</speed>
  <fix>3d</fix>
</trkpt>
<trkpt lat="40.0728472" lon="-105.2307799">
  <ele>1595.6</ele>
  <time>2026-08-27T18:29:25Z</time>
  <course>229.38</course>
  <speed>0.03</speed>
  <fix>3d</fix>
</trkpt>
<trkpt lat="40.0728473" lon="-105.2307799">
  <ele>1595.67</ele>
  <time>2026-08-27T18:29:25Z</time>
  <course>35.36</course>
  <speed>0.02</speed>
  <fix>3d</fix>
</trkpt>
<trkpt lat="40.0728472" lon="-105.2307799">
  <ele>1595.6</ele>
  <time>2026-08-27T18:29:25Z</time>
  <course>221.33</course>
  <speed>0.02</speed>
  <fix>3d</fix>
</trkpt>
<trkpt lat="40.0728472" lon="-105.2307799">
  <ele>1595.67</ele>
  <time>2026-08-27T18:29:25Z</time>
  <course>35.34</course>
  <speed>0.01</speed>
  <fix>3d</fix>
</trkpt>
<trkpt lat="40.0728471" lon="-105.23078">
  <ele>1595.6</ele>
  <time>2026-08-27T18:29:25Z</time>
  <course>216.17</course>
  <speed>0.02</speed>
  <fix>3d</fix>
</trkpt>
<trkpt lat="40.0728472" lon="-105.23078">
  <ele>1595.67</ele>
  <time>2026-08-27T18:29:25Z</time>
  <course>35.35</course>
  <speed>0.01</speed>
  <fix>3d</fix>
</trkpt>
<trkpt lat="40.0728471" lon="-105.23078">
  <ele>1595.6</ele>
  <time>2026-08-27T18:29:25Z</time>
  <course>213.77</course>
  <speed>0.02</speed>
  <fix>3d</fix>
</trkpt>
<trkpt lat="40.0728472" lon="-105.23078">
  <ele>1595.67</ele>
  <time>2026-08-27T18:29:25Z</time>
  <course>35.34</course>
  <speed>0.01</speed>
  <fix>3d</fix>
</trkpt>
<trkpt lat="40.072847" lon="-105.23078">
  <ele>1595.6</ele>
  <time>2026-08-27T18:29:25Z</time>
  <course>213.2</course>
  <speed>0.02</speed>
  <fix>3d</fix>
</trkpt>
<trkpt lat="40.0728472" lon="-105.23078">
  <ele>1595.68</ele>
  <time>2026-08-27T18:29:25Z</time>
  <course>35.35</course>
  <speed>0.01</speed>
  <fix>3d</fix>
</trkpt>
<trkpt lat="40.0728469" lon="-105.23078">
  <ele>1595.61</ele>
  <time>2026-08-27T18:29:25Z</time>
  <course>212.76</course>
  <speed>0.02</speed>
  <fix>3d</fix>
</trkpt>
<trkpt lat="40.0728471" lon="-105.2307801">
  <ele>1595.68</ele>
  <time>2026-08-27T18:29:25Z</time>
  <course>35.35</course>
  <speed>0.01</speed>
  <fix>3d</fix>
</trkpt>
<trkpt lat="40.0728469" lon="-105.23078">
  <ele>1595.61</ele>
  <time>2026-08-27T18:29:25Z</time>
  <course>211.9</course>
  <speed>0.02</speed>
  <fix>3d</fix>
</trkpt>
<trkpt lat="40.0728471" lon="-105.2307801">
  <ele>1595.69</ele>
  <time>2026-08-27T18:29:25Z</time>
  <course>35.36</course>
  <speed>0.01</speed>
  <fix>3d</fix>
</trkpt>
<trkpt lat="40.0728469" lon="-105.23078">
  <ele>1595.61</ele>
  <time>2026-08-27T18:29:25Z</time>
  <course>210.07</course>
  <speed>0.02</speed>
  <fix>3d</fix>
</trkpt>
<trkpt lat="40.072847" lon="-105.2307801">
  <ele>1595.69</ele>
  <time>2026-08-27T18:29:25Z</time>
  <course>35.37</course>
  <speed>0.0</speed>
  <fix>3d</fix>
</trkpt>
<trkpt lat="40.0728468" lon="-105.2307801">
  <ele>1595.61</ele>
  <time>2026-08-27T18:29:25Z</time>
  <course>206.66</course>
  <speed>0.02</speed>
  <fix>3d</fix>
</trkpt>
<trkpt lat="40.072847" lon="-105.2307801">
  <ele>1595.69</ele>
  <time>2026-08-27T18:29:25Z</time>
  <course>35.37</course>
  <speed>0.02</speed>
  <fix>3d</fix>
</trkpt>
<trkpt lat="40.0728468" lon="-105.2307802">
  <ele>1595.61</ele>
  <time>2026-08-27T18:29:25Z</time>
  <course>183.69</course>
  <speed>0.03</speed>
  <fix>3d</fix>
</trkpt>
<trkpt lat="40.0728469" lon="-105.2307801">
  <ele>1595.69</ele>
  <time>2026-08-27T18:29:25Z</time>
  <course>35.39</course>
  <speed>0.01</speed>
  <fix>3d</fix>
</trkpt>
<trkpt lat="40.0728468" lon="-105.2307802">
  <ele>1595.61</ele>
  <time>2026-08-27T18:29:25Z</time>
  <course>171.67</course>
  <speed>0.04</speed>
  <fix>3d</fix>
</trkpt>
<trkpt lat="40.0728468" lon="-105.2307801">
  <ele>1595.69</ele>
  <time>2026-08-27T18:29:25Z</time>
  <course>35.38</course>
  <speed>0.01</speed>
  <fix>3d</fix>
</trkpt>
<trkpt lat="40.0728467" lon="-105.2307802">
  <ele>1595.61</ele>
  <time>2026-08-27T18:29:25Z</time>
  <course>171.95</course>
  <speed>0.03</speed>
  <fix>3d</fix>
</trkpt>
<trkpt lat="40.0728468" lon="-105.2307801">
  <ele>1595.68</ele>
  <time>2026-08-27T18:29:25Z</time>
  <course>35.38</course>
  <speed>0.01</speed>
  <fix>3d</fix>
</trkpt>
<trkpt lat="40.0728466" lon="-105.2307802">
  <ele>1595.61</ele>
  <time>2026-08-27T18:29:25Z</time>
  <course>176.71</course>
  <speed>0.03</speed>
  <fix>3d</fix>
</trkpt>
<trkpt lat="40.0728467" lon="-105.2307801">
  <ele>1595.67</ele>
  <time>2026-08-27T18:29:25Z</time>
  <course>35.37</course>
  <speed>0.01</speed>
  <fix>3d</fix>
</trkpt>
<trkpt lat="40.0728466" lon="-105.2307802">
  <ele>1595.61</ele>
  <time>2026-08-27T18:29:25Z</time>
  <course>185.22</course>
  <speed>0.03</speed>
  <fix>3d</fix>
</trkpt>
<trkpt lat="40.0728467" lon="-105.2307802">
  <ele>1595.67</ele>
  <time>2026-08-27T18:29:25Z</time>
  <course>35.35</course>
  <speed>0.01</speed>
  <fix>3d</fix>
</trkpt>
<trkpt lat="40.0728465" lon="-105.2307802">
  <ele>1595.61</ele>
  <time>2026-08-27T18:29:25Z</time>
  <course>195.97</course>
  <speed>0.02</speed>
  <fix>3d</fix>
</trkpt>
<trkpt lat="40.0728466" lon="-105.2307802">
  <ele>1595.67</ele>
  <time>2026-08-27T18:29:25Z</time>
  <course>35.36</course>
  <speed>0.02</speed>
  <fix>3d</fix>
</trkpt>
<trkpt lat="40.0728465" lon="-105.2307802">
  <ele>1595.61</ele>
  <time>2026-08-27T18:29:25Z</time>
  <course>205.85</course>
  <speed>0.02</speed>
  <fix>3d</fix>
</trkpt>
<trkpt lat="40.0728466" lon="-105.2307803">
  <ele>1595.68</ele>
  <time>2026-08-27T18:29:25Z</time>
  <course>35.32</course>
  <speed>0.02</speed>
  <fix>3d</fix>
</trkpt>
<trkpt lat="40.0728464" lon="-105.2307802">
  <ele>1595.61</ele>
  <time>2026-08-27T18:29:25Z</time>
  <course>213.74</course>
  <speed>0.02</speed>
  <fix>3d</fix>
</trkpt>
<trkpt lat="40.0728465" lon="-105.2307803">
  <ele>1595.68</ele>
  <time>2026-08-27T18:29:25Z</time>
  <course>35.35</course>
  <speed>0.02</speed>
  <fix>3d</fix>
</trkpt>
<trkpt lat="40.0728463" lon="-105.2307802">
  <ele>1595.61</ele>
  <time>2026-08-27T18:29:25Z</time>
  <course>220.34</course>
  <speed>0.02</speed>
  <fix>3d</fix>
</trkpt>
<trkpt lat="40.0728465" lon="-105.2307804">
  <ele>1595.68</ele>
  <time>2026-08-27T18:29:25Z</time>
  <course>35.36</course>
  <speed>0.03</speed>
  <fix>3d</fix>
</trkpt>
<trkpt lat="40.0728463" lon="-105.2307802">
  <ele>1595.61</ele>
  <time>2026-08-27T18:29:25Z</time>
  <course>225.96</course>
  <speed>0.03</speed>
  <fix>3d</fix>
</trkpt>
<trkpt lat="40.0728464" lon="-105.2307804">
  <ele>1595.69</ele>
  <time>2026-08-27T18:29:25Z</time>
  <course>35.37</course>
  <speed>0.03</speed>
  <fix>3d</fix>
</trkpt>
<trkpt lat="40.0728463" lon="-105.2307803">
  <ele>1595.61</ele>
  <time>2026-08-27T18:29:25Z</time>
  <course>230.48</course>
  <speed>0.03</speed>
  <fix>3d</fix>
</trkpt>
<trkpt lat="40.0728464" lon="-105.2307805">
  <ele>1595.69</ele>
  <time>2026-08-27T18:29:25Z</time>
  <course>35.37</course>
  <speed>0.03</speed>
  <fix>3d</fix>
</trkpt>
<trkpt lat="40.0728462" lon="-105.2307804">
  <ele>1595.62</ele>
  <time>2026-08-27T18:29:25Z</time>
  <course>233.64</course>
  <speed>0.03</speed>
  <fix>3d</fix>
</trkpt>
<trkpt lat="40.0728464" lon="-105.2307805">
  <ele>1595.69</ele>
  <time>2026-08-27T18:29:25Z</time>
  <course>35.38</course>
  <speed>0.03</speed>
  <fix>3d</fix>
</trkpt>
<trkpt lat="40.0728462" lon="-105.2307804">
  <ele>1595.62</ele>
  <time>2026-08-27T18:29:25Z</time>
  <course>235.59</course>
  <speed>0.03</speed>
  <fix>3d</fix>
</trkpt>
<trkpt lat="40.0728463" lon="-105.2307806">
  <ele>1595.69</ele>
  <time>2026-08-27T18:29:25Z</time>
  <course>35.37</course>
  <speed>0.03</speed>
  <fix>3d</fix>
</trkpt>
<trkpt lat="40.0728462" lon="-105.2307805">
  <ele>1595.62</ele>
  <time>2026-08-27T18:29:25Z</time>
  <course>236.28</course>
  <speed>0.03</speed>
  <fix>3d</fix>
</trkpt>
<trkpt lat="40.0728463" lon="-105.2307807">
  <ele>1595.69</ele>
  <time>2026-08-27T18:29:25Z</time>
  <course>35.37</course>
  <speed>0.03</speed>
  <fix>3d</fix>
</trkpt>
<trkpt lat="40.0728462" lon="-105.2307805">
  <ele>1595.62</ele>
  <time>2026-08-27T18:29:25Z</time>
  <course>235.61</course>
  <speed>0.03</speed>
  <fix>3d</fix>
</trkpt>
<trkpt lat="40.0728462" lon="-105.2307807">
  <ele>1595.68</ele>
  <time>2026-08-27T18:29:25Z</time>
  <course>35.37</course>
  <speed>0.03</speed>
  <fix>3d</fix>
</trkpt>
<trkpt lat="40.0728461" lon="-105.2307806">
  <ele>1595.61</ele>
  <time>2026-08-27T18:29:25Z</time>
  <course>234.75</course>
  <speed>0.03</speed>
  <fix>3d</fix>
</trkpt>
<trkpt lat="40.0728462" lon="-105.2307808">
  <ele>1595.68</ele>
  <time>2026-08-27T18:29:25Z</time>
  <course>35.37</course>
  <speed>0.04</speed>
  <fix>3d</fix>
</trkpt>
<trkpt lat="40.0728461" lon="-105.2307807">
  <ele>1595.61</ele>
  <time>2026-08-27T18:29:25Z</time>
  <course>248.44</course>
  <speed>0.03</speed>
  <fix>3d</fix>
</trkpt>
<trkpt lat="40.0728462" lon="-105.2307809">
  <ele>1595.67</ele>
  <time>2026-08-27T18:29:25Z</time>
  <course>35.37</course>
  <speed>0.04</speed>
  <fix>3d</fix>
</trkpt>
<trkpt lat="40.0728461" lon="-105.2307808">
  <ele>1595.61</ele>
  <time>2026-08-27T18:29:25Z</time>
  <course>260.86</course>
  <speed>0.04</speed>
  <fix>3d</fix>
</trkpt>
<trkpt lat="40.0728462" lon="-105.230781">
  <ele>1595.67</ele>
  <time>2026-08-27T18:29:25Z</time>
  <course>35.36</course>
  <speed>0.03</speed>
  <fix>3d</fix>
</trkpt>
<trkpt lat="40.0728461" lon="-105.2307809">
  <ele>1595.61</ele>
  <time>2026-08-27T18:29:25Z</time>
  <course>257.04</course>
  <speed>0.03</speed>
  <fix>3d</fix>
</trkpt>
<trkpt lat="40.0728462" lon="-105.230781">
  <ele>1595.67</ele>
  <time>2026-08-27T18:29:25Z</time>
  <course>35.35</course>
  <speed>0.02</speed>
  <fix>3d</fix>
</trkpt>
<trkpt lat="40.072846" lon="-105.2307809">
  <ele>1595.61</ele>
  <time>2026-08-27T18:29:25Z</time>
  <course>246.69</course>
  <speed>0.03</speed>
  <fix>3d</fix>
</trkpt>
<trkpt lat="40.0728461" lon="-105.2307811">
  <ele>1595.67</ele>
  <time>2026-08-27T18:29:25Z</time>
  <course>35.38</course>
  <speed>0.02</speed>
  <fix>3d</fix>
</trkpt>
<trkpt lat="40.072846" lon="-105.230781">
  <ele>1595.61</ele>
  <time>2026-08-27T18:29:25Z</time>
  <course>232.75</course>
  <speed>0.02</speed>
  <fix>3d</fix>
</trkpt>
<trkpt lat="40.0728461" lon="-105.2307811">
  <ele>1595.68</ele>
  <time>2026-08-27T18:29:25Z</time>
  <course>35.37</course>
  <speed>0.01</speed>
  <fix>3d</fix>
</trkpt>
<trkpt lat="40.072846" lon="-105.2307811">
  <ele>1595.62</ele>
  <time>2026-08-27T18:29:25Z</time>
  <course>218.12</course>
  <speed>0.02</speed>
  <fix>3d</fix>
</trkpt>
<trkpt lat="40.0728461" lon="-105.2307811">
  <ele>1595.69</ele>
  <time>2026-08-27T18:29:25Z</time>
  <course>35.38</course>
  <speed>0.01</speed>
  <fix>3d</fix>
</trkpt>
<trkpt lat="40.0728459" lon="-105.2307811">
  <ele>1595.62</ele>
  <time>2026-08-27T18:29:25Z</time>
  <course>206.18</course>
  <speed>0.02</speed>
  <fix>3d</fix>
</trkpt>
<trkpt lat="40.072846" lon="-105.2307811">
  <ele>1595.69</ele>
  <time>2026-08-27T18:29:25Z</time>
  <course>35.39</course>
  <speed>0.01</speed>
  <fix>3d</fix>
</trkpt>
<trkpt lat="40.0728459" lon="-105.2307812">
  <ele>1595.62</ele>
  <time>2026-08-27T18:29:25Z</time>
  <course>198.85</course>
  <speed>0.02</speed>
  <fix>3d</fix>
</trkpt>
<trkpt lat="40.072846" lon="-105.2307812">
  <ele>1595.69</ele>
  <time>2026-08-27T18:29:25Z</time>
  <course>35.39</course>
  <speed>0.01</speed>
  <fix>3d</fix>
</trkpt>
<trkpt lat="40.0728459" lon="-105.2307812">
  <ele>1595.62</ele>
  <time>2026-08-27T18:29:25Z</time>
  <course>195.51</course>
  <speed>0.02</speed>
  <fix>3d</fix>
</trkpt>
<trkpt lat="40.072846" lon="-105.2307812">
  <ele>1595.69</ele>
  <time>2026-08-27T18:29:25Z</time>
  <course>35.38</course>
  <speed>0.01</speed>
  <fix>3d</fix>
</trkpt>
<trkpt lat="40.0728458" lon="-105.2307812">
  <ele>1595.62</ele>
  <time>2026-08-27T18:29:25Z</time>
  <course>195.13</course>
  <speed>0.02</speed>
  <fix>3d</fix>
</trkpt>
<trkpt lat="40.0728459" lon="-105.2307812">
  <ele>1595.69</ele>
  <time>2026-08-27T18:29:25Z</time>
  <course>35.38</course>
  <speed>0.01</speed>
  <fix>3d</fix>
</trkpt>
<trkpt lat="40.0728457" lon="-105.2307812">
  <ele>1595.62</ele>
  <time>2026-08-27T18:29:25Z</time>
  <course>196.74</course>
  <speed>0.02</speed>
  <fix>3d</fix>
</trkpt>
<trkpt lat="40.0728459" lon="-105.2307812">
  <ele>1595.69</ele>
  <time>2026-08-27T18:29:25Z</time>
  <course>35.38</course>
  <speed>0.01</speed>
  <fix>3d</fix>
</trkpt>
<trkpt lat="40.0728457" lon="-105.2307812">
  <ele>1595.62</ele>
  <time>2026-08-27T18:29:25Z</time>
  <course>199.27</course>
  <speed>0.02</speed>
  <fix>3d</fix>
</trkpt>
<trkpt lat="40.0728458" lon="-105.2307812">
  <ele>1595.69</ele>
  <time>2026-08-27T18:29:25Z</time>
  <course>35.38</course>
  <speed>0.0</speed>
  <fix>3d</fix>
</trkpt>
<trkpt lat="40.0728456" lon="-105.2307812">
  <ele>1595.62</ele>
  <time>2026-08-27T18:29:25Z</time>
  <course>200.99</course>
  <speed>0.01</speed>
  <fix>3d</fix>
</trkpt>
<trkpt lat="40.0728458" lon="-105.2307812">
  <ele>1595.69</ele>
  <time>2026-08-27T18:29:25Z</time>
  <course>35.4</course>
  <speed>0.02</speed>
  <fix>3d</fix>
</trkpt>
<trkpt lat="40.0728456" lon="-105.2307812">
  <ele>1595.62</ele>
  <time>2026-08-27T18:29:25Z</time>
  <course>177.49</course>
  <speed>0.02</speed>
  <fix>3d</fix>
</trkpt>
<trkpt lat="40.0728457" lon="-105.2307812">
  <ele>1595.68</ele>
  <time>2026-08-27T18:29:25Z</time>
  <course>35.74</course>
  <speed>0.02</speed>
  <fix>3d</fix>
</trkpt>
<trkpt lat="40.0728456" lon="-105.2307812">
  <ele>1595.61</ele>
  <time>2026-08-27T18:29:25Z</time>
  <course>166.21</course>
  <speed>0.04</speed>
  <fix>3d</fix>
</trkpt>
<trkpt lat="40.0728456" lon="-105.2307812">
  <ele>1595.62</ele>
  <time>2026-08-27T18:29:25Z</time>
  <course>36.68</course>
  <speed>0.01</speed>
  <fix>3d</fix>
</trkpt>
<trkpt lat="40.0728455" lon="-105.2307812">
  <ele>1595.59</ele>
  <time>2026-08-27T18:29:25Z</time>
  <course>165.01</course>
  <speed>0.04</speed>
  <fix>3d</fix>
</trkpt>
<trkpt lat="40.0728456" lon="-105.2307812">
  <ele>1595.48</ele>
  <time>2026-08-27T18:29:25Z</time>
  <course>38.02</course>
  <speed>0.01</speed>
  <fix>3d</fix>
</trkpt>
<trkpt lat="40.0728454" lon="-105.2307812">
  <ele>1595.51</ele>
  <time>2026-08-27T18:29:25Z</time>
  <course>164.67</course>
  <speed>0.03</speed>
  <fix>3d</fix>
</trkpt>
<trkpt lat="40.0728456" lon="-105.2307813">
  <ele>1595.03</ele>
  <time>2026-08-27T18:29:25Z</time>
  <course>39.37</course>
  <speed>0.07211102550927978</speed>
  <fix>3d</fix>
</trkpt>
<trkpt lat="40.0728454" lon="-105.2307812">
  <ele>1595.28</ele>
  <time>2026-08-27T18:29:25Z</time>
  <course>264.93</course>
  <speed>0.01</speed>
  <fix>3d</fix>
</trkpt>
<trkpt lat="40.0728456" lon="-105.2307814">
  <ele>1594.31</ele>
  <time>2026-08-27T18:29:25Z</time>
  <course>40.73</course>
  <speed>0.11401754250991379</speed>
  <fix>3d</fix>
</trkpt>
<trkpt lat="40.0728454" lon="-105.2307812">
  <ele>1594.77</ele>
  <time>2026-08-27T18:29:25Z</time>
  <course>308.23</course>
  <speed>0.07</speed>
  <fix>3d</fix>
</trkpt>
<trkpt lat="40.0728457" lon="-105.2307816">
  <ele>1593.41</ele>
  <time>2026-08-27T18:29:25Z</time>
  <course>42.59</course>
  <speed>0.12806248474865697</speed>
  <fix>3d</fix>
</trkpt>
<trkpt lat="40.0728455" lon="-105.2307815">
  <ele>1594.0</ele>
  <time>2026-08-27T18:29:25Z</time>
  <course>313.2</course>
  <speed>0.11</speed>
  <fix>3d</fix>
</trkpt>
<trkpt lat="40.0728458" lon="-105.2307819">
  <ele>1592.39</ele>
  <time>2026-08-27T18:29:25Z</time>
  <course>45.14</course>
  <speed>0.12041594578792296</speed>
  <fix>3d</fix>
</trkpt>
<trkpt lat="40.0728456" lon="-105.2307817">
  <ele>1593.07</ele>
  <time>2026-08-27T18:29:25Z</time>
  <course>315.84</course>
  <speed>0.12</speed>
  <fix>3d</fix>
</trkpt>
<trkpt lat="40.0728459" lon="-105.230782">
  <ele>1591.29</ele>
  <time>2026-08-27T18:29:25Z</time>
  <course>47.54</course>
  <speed>0.1063014581273465</speed>
  <fix>3d</fix>
</trkpt>
<trkpt lat="40.0728457" lon="-105.2307818">
  <ele>1592.03</ele>
  <time>2026-08-27T18:29:25Z</time>
  <course>318.56</course>
  <speed>0.11</speed>
  <fix>3d</fix>
</trkpt>
<trkpt lat="40.072846" lon="-105.2307822">
  <ele>1590.14</ele>
  <time>2026-08-27T18:29:25Z</time>
  <course>49.49</course>
  <speed>0.08602325267042626</speed>
  <fix>3d</fix>
</trkpt>
<trkpt lat="40.0728459" lon="-105.230782">
  <ele>1590.92</ele>
  <time>2026-08-27T18:29:25Z</time>
  <course>322.85</course>
  <speed>0.09</speed>
  <fix>3d</fix>
</trkpt>
<trkpt lat="40.0728462" lon="-105.2307822">
  <ele>1588.96</ele>
  <time>2026-08-27T18:29:25Z</time>
  <course>51.18</course>
  <speed>0.07615773105863909</speed>
  <fix>3d</fix>
</trkpt>
<trkpt lat="40.072846" lon="-105.2307821">
  <ele>1589.78</ele>
  <time>2026-08-27T18:29:25Z</time>
  <course>330.06</course>
  <speed>0.07</speed>
  <fix>3d</fix>
</trkpt>
<trkpt lat="40.0728463" lon="-105.2307823">
  <ele>1587.75</ele>
  <time>2026-08-27T18:29:25Z</time>
  <course>52.7</course>
  <speed>0.06082762530298219</speed>
  <fix>3d</fix>
</trkpt>
<trkpt lat="40.0728461" lon="-105.2307821">
  <ele>1588.6</ele>
  <time>2026-08-27T18:29:25Z</time>
  <course>341.93</course>
  <speed>0.06</speed>
  <fix>3d</fix>
</trkpt>
<trkpt lat="40.0728463" lon="-105.2307822">
  <ele>1586.52</ele>
  <time>2026-08-27T18:29:25Z</time>
  <course>54.1</course>
  <speed>0.06</speed>
  <fix>3d</fix>
</trkpt>
<trkpt lat="40.0728462" lon="-105.2307821">
  <ele>1587.41</ele>
  <time>2026-08-27T18:29:25Z</time>
  <course>0.76</course>
  <speed>0.05</speed>
  <fix>3d</fix>
</trkpt>
<trkpt lat="40.0728464" lon="-105.2307822">
  <ele>1585.65</ele>
  <time>2026-08-27T18:29:25Z</time>
  <course>54.75</course>
  <speed>0.0316227766016838</speed>
  <fix>3d</fix>
</trkpt>
<trkpt lat="40.0728463" lon="-105.2307821">
  <ele>1586.25</ele>
  <time>2026-08-27T18:29:25Z</time>
  <course>12.48</course>
  <speed>0.04</speed>
  <fix>3d</fix>
</trkpt>
<trkpt lat="40.0728464" lon="-105.2307822">
  <ele>1585.94</ele>
  <time>2026-08-27T18:29:25Z</time>
  <course>54.84</course>
  <speed>0.0</speed>
  <fix>3d</fix>
</trkpt>
<trkpt lat="40.0728463" lon="-105.2307821">
  <ele>1585.72</ele>
  <time>2026-08-27T18:29:25Z</time>
  <course>352.2</course>
  <speed>0.01</speed>
  <fix>3d</fix>
</trkpt>
<trkpt lat="40.0728464" lon="-105.2307822">
  <ele>1586.01</ele>
  <time>2026-08-27T18:29:25Z</time>
  <course>54.92</course>
  <speed>0.01</speed>
  <fix>3d</fix>
</trkpt>
<trkpt lat="40.0728463" lon="-105.2307821">
  <ele>1585.86</ele>
  <time>2026-08-27T18:29:25Z</time>
  <course>217.59</course>
  <speed>0.0</speed>
  <fix>3d</fix>
</trkpt>
<trkpt lat="40.0728464" lon="-105.2307822">
  <ele>1585.94</ele>
  <time>2026-08-27T18:29:25Z</time>
  <course>55.0</course>
  <speed>0.01</speed>
  <fix>3d</fix>
</trkpt>
<trkpt lat="40.0728463" lon="-105.2307821">
  <ele>1585.95</ele>
  <time>2026-08-27T18:29:25Z</time>
  <course>149.06</course>
  <speed>0.0</speed>
  <fix>3d</fix>
</trkpt>
<trkpt lat="40.0728464" lon="-105.2307822">
  <ele>1585.93</ele>
  <time>2026-08-27T18:29:25Z</time>
  <course>55.08</course>
  <speed>0.01</speed>
  <fix>3d</fix>
</trkpt>
<trkpt lat="40.0728463" lon="-105.2307821">
  <ele>1585.92</ele>
  <time>2026-08-27T18:29:25Z</time>
  <course>118.52</course>
  <speed>0.0</speed>
  <fix>3d</fix>
</trkpt>
<trkpt lat="40.0728464" lon="-105.2307822">
  <ele>1585.94</ele>
  <time>2026-08-27T18:29:25Z</time>
  <course>55.14</course>
  <speed>0.0</speed>
  <fix>3d</fix>
</trkpt>
<trkpt lat="40.0728463" lon="-105.2307821">
  <ele>1585.91</ele>
  <time>2026-08-27T18:29:25Z</time>
  <course>158.66</course>
  <speed>0.0</speed>
  <fix>3d</fix>
</trkpt>
<trkpt lat="40.0728464" lon="-105.2307822">
  <ele>1585.93</ele>
  <time>2026-08-27T18:29:25Z</time>
  <course>55.21</course>
  <speed>0.0</speed>
  <fix>3d</fix>
</trkpt>
<trkpt lat="40.0728463" lon="-105.2307821">
  <ele>1585.92</ele>
  <time>2026-08-27T18:29:25Z</time>
  <course>155.65</course>
  <speed>0.0</speed>
  <fix>3d</fix>
</trkpt>
<trkpt lat="40.0728464" lon="-105.2307822">
  <ele>1585.93</ele>
  <time>2026-08-27T18:29:25Z</time>
  <course>55.27</course>
  <speed>0.0</speed>
  <fix>3d</fix>
</trkpt>
<trkpt lat="40.0728463" lon="-105.2307821">
  <ele>1585.92</ele>
  <time>2026-08-27T18:29:25Z</time>
  <course>151.83</course>
  <speed>0.0</speed>
  <fix>3d</fix>
</trkpt>
<trkpt lat="40.0728464" lon="-105.2307822">
  <ele>1585.93</ele>
  <time>2026-08-27T18:29:25Z</time>
  <course>55.32</course>
  <speed>0.0</speed>
  <fix>3d</fix>
</trkpt>
<trkpt lat="40.0728463" lon="-105.2307821">
  <ele>1585.92</ele>
  <time>2026-08-27T18:29:25Z</time>
  <course>152.5</course>
  <speed>0.0</speed>
  <fix>3d</fix>
</trkpt>
<trkpt lat="40.0728464" lon="-105.2307822">
  <ele>1585.93</ele>
  <time>2026-08-27T18:29:25Z</time>
  <course>55.37</course>
  <speed>0.0</speed>
  <fix>3d</fix>
</trkpt>
<trkpt lat="40.0728463" lon="-105.2307821">
  <ele>1585.92</ele>
  <time>2026-08-27T18:29:25Z</time>
  <course>153.85</course>
  <speed>0.0</speed>
  <fix>3d</fix>
</trkpt>
<trkpt lat="40.0728464" lon="-105.2307822">
  <ele>1585.94</ele>
  <time>2026-08-27T18:29:25Z</time>
  <course>55.42</course>
  <speed>0.0</speed>
  <fix>3d</fix>
</trkpt>
<trkpt lat="40.0728463" lon="-105.2307821">
  <ele>1585.92</ele>
  <time>2026-08-27T18:29:25Z</time>
  <course>153.31</course>
  <speed>0.0</speed>
  <fix>3d</fix>
</trkpt>
<trkpt lat="40.0728464" lon="-105.2307822">
  <ele>1585.94</ele>
  <time>2026-08-27T18:29:25Z</time>
  <course>55.47</course>
  <speed>0.0</speed>
  <fix>3d</fix>
</trkpt>
<trkpt lat="40.0728463" lon="-105.2307821">
  <ele>1585.92</ele>
  <time>2026-08-27T18:29:25Z</time>
  <course>155.96</course>
  <speed>0.0</speed>
  <fix>3d</fix>
</trkpt>
<trkpt lat="40.0728463" lon="-105.2307822">
  <ele>1585.94</ele>
  <time>2026-08-27T18:29:25Z</time>
  <course>55.49</course>
  <speed>0.0</speed>
  <fix>3d</fix>
</trkpt>
<trkpt lat="40.0728463" lon="-105.2307821">
  <ele>1585.92</ele>
  <time>2026-08-27T18:29:25Z</time>
  <course>137.59</course>
  <speed>0.0</speed>
  <fix>3d</fix>
</trkpt>
<trkpt lat="40.0728463" lon="-105.2307822">
  <ele>1585.94</ele>
  <time>2026-08-27T18:29:25Z</time>
  <course>55.49</course>
  <speed>0.0</speed>
  <fix>3d</fix>
</trkpt>
<trkpt lat="40.0728463" lon="-105.2307821">
  <ele>1585.92</ele>
  <time>2026-08-27T18:29:25Z</time>
  <course>135.01</course>
  <speed>0.0</speed>
  <fix>3d</fix>
</trkpt>
<trkpt lat="40.0728463" lon="-105.2307822">
  <ele>1585.94</ele>
  <time>2026-08-27T18:29:25Z</time>
  <course>55.5</course>
  <speed>0.0</speed>
  <fix>3d</fix>
</trkpt>
<trkpt lat="40.0728463" lon="-105.2307821">
  <ele>1585.92</ele>
  <time>2026-08-27T18:29:25Z</time>
  <course>297.24</course>
  <speed>0.0</speed>
  <fix>3d</fix>
</trkpt>
<trkpt lat="40.0728463" lon="-105.2307822">
  <ele>1585.94</ele>
  <time>2026-08-27T18:29:25Z</time>
  <course>55.5</course>
  <speed>0.0</speed>
  <fix>3d</fix>
</trkpt>
<trkpt lat="40.0728463" lon="-105.2307821">
  <ele>1585.92</ele>
  <time>2026-08-27T18:29:25Z</time>
  <course>293.25</course>
  <speed>0.0</speed>
  <fix>3d</fix>
</trkpt>
<trkpt lat="40.0728463" lon="-105.2307822">
  <ele>1585.95</ele>
  <time>2026-08-27T18:29:25Z</time>
  <course>55.51</course>
  <speed>0.0</speed>
  <fix>3d</fix>
</trkpt>
<trkpt lat="40.0728463" lon="-105.2307821">
  <ele>1585.92</ele>
  <time>2026-08-27T18:29:25Z</time>
  <course>286.28</course>
  <speed>0.0</speed>
  <fix>3d</fix>
</trkpt>
<trkpt lat="40.0728463" lon="-105.2307822">
  <ele>1585.95</ele>
  <time>2026-08-27T18:29:25Z</time>
  <course>55.52</course>
  <speed>0.0</speed>
  <fix>3d</fix>
</trkpt>
<trkpt lat="40.0728463" lon="-105.2307821">
  <ele>1585.92</ele>
  <time>2026-08-27T18:29:25Z</time>
  <course>288.02</course>
  <speed>0.0</speed>
  <fix>3d</fix>
</trkpt>
<trkpt lat="40.0728463" lon="-105.2307822">
  <ele>1585.95</ele>
  <time>2026-08-27T18:29:25Z</time>
  <course>55.53</course>
  <speed>0.0</speed>
  <fix>3d</fix>
</trkpt>
<trkpt lat="40.0728463" lon="-105.2307821">
  <ele>1585.92</ele>
  <time>2026-08-27T18:29:25Z</time>
  <course>293.12</course>
  <speed>0.0</speed>
  <fix>3d</fix>
</trkpt>
<trkpt lat="40.0728463" lon="-105.2307822">
  <ele>1585.95</ele>
  <time>2026-08-27T18:29:25Z</time>
  <course>55.54</course>
  <speed>0.0</speed>
  <fix>3d</fix>
</trkpt>
<trkpt lat="40.0728463" lon="-105.2307821">
  <ele>1585.92</ele>
  <time>2026-08-27T18:29:25Z</time>
  <course>317.22</course>
  <speed>0.0</speed>
  <fix>3d</fix>
</trkpt>
<trkpt lat="40.0728463" lon="-105.2307822">
  <ele>1585.95</ele>
  <time>2026-08-27T18:29:25Z</time>
  <course>55.55</course>
  <speed>0.0</speed>
  <fix>3d</fix>
</trkpt>
<trkpt lat="40.0728463" lon="-105.2307821">
  <ele>1585.92</ele>
  <time>2026-08-27T18:29:25Z</time>
  <course>341.21</course>
  <speed>0.0</speed>
  <fix>3d</fix>
</trkpt>
<trkpt lat="40.0728463" lon="-105.2307822">
  <ele>1585.95</ele>
  <time>2026-08-27T18:29:25Z</time>
  <course>55.56</course>
  <speed>0.0</speed>
  <fix>3d</fix>
</trkpt>
<trkpt lat="40.0728463" lon="-105.2307821">
  <ele>1585.92</ele>
  <time>2026-08-27T18:29:25Z</time>
  <course>338.8</course>
  <speed>0.0</speed>
  <fix>3d</fix>
</trkpt>
<trkpt lat="40.0728463" lon="-105.2307821">
  <ele>1585.95</ele>
  <time>2026-08-27T18:29:25Z</time>
  <course>55.57</course>
  <speed>0.0</speed>
  <fix>3d</fix>
</trkpt>
<trkpt lat="40.0728463" lon="-105.2307821">
  <ele>1585.92</ele>
  <time>2026-08-27T18:29:25Z</time>
  <course>333.94</course>
  <speed>0.0</speed>
  <fix>3d</fix>
</trkpt>
<trkpt lat="40.0728463" lon="-105.2307821">
  <ele>1585.95</ele>
  <time>2026-08-27T18:29:25Z</time>
  <course>55.58</course>
  <speed>0.0</speed>
  <fix>3d</fix>
</trkpt>
<trkpt lat="40.0728463" lon="-105.2307821">
  <ele>1585.92</ele>
  <time>2026-08-27T18:29:25Z</time>
  <course>334.98</course>
  <speed>0.0</speed>
  <fix>3d</fix>
</trkpt>
<trkpt lat="40.0728463" lon="-105.2307821">
  <ele>1585.95</ele>
  <time>2026-08-27T18:29:25Z</time>
  <course>55.6</course>
  <speed>0.0</speed>
  <fix>3d</fix>
</trkpt>
<trkpt lat="40.0728463" lon="-105.2307821">
  <ele>1585.92</ele>
  <time>2026-08-27T18:29:25Z</time>
  <course>335.7</course>
  <speed>0.0</speed>
  <fix>3d</fix>
</trkpt>
<trkpt lat="40.0728463" lon="-105.2307821">
  <ele>1585.95</ele>
  <time>2026-08-27T18:29:25Z</time>
  <course>55.61</course>
  <speed>0.0</speed>
  <fix>3d</fix>
</trkpt>
<trkpt lat="40.0728463" lon="-105.2307821">
  <ele>1585.92</ele>
  <time>2026-08-27T18:29:25Z</time>
  <course>335.51</course>
  <speed>0.0</speed>
  <fix>3d</fix>
</trkpt>
<trkpt lat="40.0728463" lon="-105.2307821">
  <ele>1585.95</ele>
  <time>2026-08-27T18:29:25Z</time>
  <course>55.62</course>
  <speed>0.0</speed>
  <fix>3d</fix>
</trkpt>
<trkpt lat="40.0728463" lon="-105.2307821">
  <ele>1585.92</ele>
  <time>2026-08-27T18:29:25Z</time>
  <course>335.51</course>
  <speed>0.0</speed>
  <fix>3d</fix>
</trkpt>
<trkpt lat="40.0728463" lon="-105.2307822">
  <ele>1585.95</ele>
  <time>2026-08-27T18:29:25Z</time>
  <course>55.64</course>
  <speed>0.0</speed>
  <fix>3d</fix>
</trkpt>
<trkpt lat="40.0728463" lon="-105.2307821">
  <ele>1585.92</ele>
  <time>2026-08-27T18:29:25Z</time>
  <course>335.64</course>
  <speed>0.0</speed>
  <fix>3d</fix>
</trkpt>
<trkpt lat="40.0728463" lon="-105.2307822">
  <ele>1585.96</ele>
  <time>2026-08-27T18:29:25Z</time>
  <course>55.65</course>
  <speed>0.0</speed>
  <fix>3d</fix>
</trkpt>
<trkpt lat="40.0728463" lon="-105.2307821">
  <ele>1585.92</ele>
  <time>2026-08-27T18:29:25Z</time>
  <course>335.74</course>
  <speed>0.0</speed>
  <fix>3d</fix>
</trkpt>
<trkpt lat="40.0728463" lon="-105.2307822">
  <ele>1585.96</ele>
  <time>2026-08-27T18:29:25Z</time>
  <course>55.66</course>
  <speed>0.0</speed>
  <fix>3d</fix>
</trkpt>
<trkpt lat="40.0728463" lon="-105.2307821">
  <ele>1585.92</ele>
  <time>2026-08-27T18:29:25Z</time>
  <course>335.83</course>
  <speed>0.0</speed>
  <fix>3d</fix>
</trkpt>
<trkpt lat="40.0728463" lon="-105.2307822">
  <ele>1585.96</ele>
  <time>2026-08-27T18:29:25Z</time>
  <course>55.68</course>
  <speed>0.0</speed>
  <fix>3d</fix>
</trkpt>
<trkpt lat="40.0728463" lon="-105.2307821">
  <ele>1585.92</ele>
  <time>2026-08-27T18:29:25Z</time>
  <course>335.93</course>
  <speed>0.0</speed>
  <fix>3d</fix>
</trkpt>
<trkpt lat="40.0728463" lon="-105.2307822">
  <ele>1585.96</ele>
  <time>2026-08-27T18:29:25Z</time>
  <course>55.69</course>
  <speed>0.0</speed>
  <fix>3d</fix>
</trkpt>
<trkpt lat="40.0728463" lon="-105.2307821">
  <ele>1585.92</ele>
  <time>2026-08-27T18:29:25Z</time>
  <course>336.05</course>
  <speed>0.0</speed>
  <fix>3d</fix>
</trkpt>
<trkpt lat="40.0728463" lon="-105.2307822">
  <ele>1585.96</ele>
  <time>2026-08-27T18:29:25Z</time>
  <course>55.71</course>
  <speed>0.0</speed>
  <fix>3d</fix>
</trkpt>
<trkpt lat="40.0728463" lon="-105.2307821">
  <ele>1585.92</ele>
  <time>2026-08-27T18:29:25Z</time>
  <course>336.18</course>
  <speed>0.0</speed>
  <fix>3d</fix>
</trkpt>
<trkpt lat="40.0728463" lon="-105.2307822">
  <ele>1585.96</ele>
  <time>2026-08-27T18:29:25Z</time>
  <course>55.72</course>
  <speed>0.0</speed>
  <fix>3d</fix>
</trkpt>
<trkpt lat="40.0728463" lon="-105.2307821">
  <ele>1585.92</ele>
  <time>2026-08-27T18:29:25Z</time>
  <course>336.32</course>
  <speed>0.0</speed>
  <fix>3d</fix>
</trkpt>
<trkpt lat="40.0728463" lon="-105.2307822">
  <ele>1585.97</ele>
  <time>2026-08-27T18:29:25Z</time>
  <course>55.74</course>
  <speed>0.0</speed>
  <fix>3d</fix>
</trkpt>
<trkpt lat="40.0728463" lon="-105.2307821">
  <ele>1585.92</ele>
  <time>2026-08-27T18:29:25Z</time>
  <course>336.45</course>
  <speed>0.0</speed>
  <fix>3d</fix>
</trkpt>
<trkpt lat="40.0728463" lon="-105.2307822">
  <ele>1585.97</ele>
  <time>2026-08-27T18:29:25Z</time>
  <course>55.75</course>
  <speed>0.0</speed>
  <fix>3d</fix>
</trkpt>
<trkpt lat="40.0728463" lon="-105.2307821">
  <ele>1585.92</ele>
  <time>2026-08-27T18:29:25Z</time>
  <course>336.6</course>
  <speed>0.0</speed>
  <fix>3d</fix>
</trkpt>
<trkpt lat="40.0728463" lon="-105.2307822">
  <ele>1585.97</ele>
  <time>2026-08-27T18:29:25Z</time>
  <course>55.77</course>
  <speed>0.0</speed>
  <fix>3d</fix>
</trkpt>
<trkpt lat="40.0728463" lon="-105.2307821">
  <ele>1585.92</ele>
  <time>2026-08-27T18:29:25Z</time>
  <course>336.78</course>
  <speed>0.0</speed>
  <fix>3d</fix>
</trkpt>
<trkpt lat="40.0728463" lon="-105.2307822">
  <ele>1585.97</ele>
  <time>2026-08-27T18:29:25Z</time>
  <course>55.78</course>
  <speed>0.0</speed>
  <fix>3d</fix>
</trkpt>
<trkpt lat="40.0728463" lon="-105.2307821">
  <ele>1585.92</ele>
  <time>2026-08-27T18:29:25Z</time>
  <course>336.97</course>
  <speed>0.0</speed>
  <fix>3d</fix>
</trkpt>
<trkpt lat="40.0728463" lon="-105.2307822">
  <ele>1585.98</ele>
  <time>2026-08-27T18:29:25Z</time>
  <course>55.79</course>
  <speed>0.0</speed>
  <fix>3d</fix>
</trkpt>
<trkpt lat="40.0728463" lon="-105.2307821">
  <ele>1585.92</ele>
  <time>2026-08-27T18:29:25Z</time>
  <course>337.16</course>
  <speed>0.0</speed>
  <fix>3d</fix>
</trkpt>
<trkpt lat="40.0728463" lon="-105.2307822">
  <ele>1585.98</ele>
  <time>2026-08-27T18:29:25Z</time>
  <course>55.81</course>
  <speed>0.0</speed>
  <fix>3d</fix>
</trkpt>
<trkpt lat="40.0728463" lon="-105.2307821">
  <ele>1585.92</ele>
  <time>2026-08-27T18:29:25Z</time>
  <course>337.36</course>
  <speed>0.0</speed>
  <fix>3d</fix>
</trkpt>
<trkpt lat="40.0728463" lon="-105.2307822">
  <ele>1585.97</ele>
  <time>2026-08-27T18:29:25Z</time>
  <course>55.84</course>
  <speed>0.0</speed>
  <fix>3d</fix>
</trkpt>
<trkpt lat="40.0728463" lon="-105.2307821">
  <ele>1585.92</ele>
  <time>2026-08-27T18:29:25Z</time>
  <course>337.57</course>
  <speed>0.0</speed>
  <fix>3d</fix>
</trkpt>
<trkpt lat="40.0728463" lon="-105.2307822">
  <ele>1585.96</ele>
  <time>2026-08-27T18:29:25Z</time>
  <course>55.97</course>
  <speed>0.0</speed>
  <fix>3d</fix>
</trkpt>
<trkpt lat="40.0728463" lon="-105.2307821">
  <ele>1585.92</ele>
  <time>2026-08-27T18:29:25Z</time>
  <course>334.36</course>
  <speed>0.0</speed>
  <fix>3d</fix>
</trkpt>
<trkpt lat="40.0728463" lon="-105.2307822">
  <ele>1585.96</ele>
  <time>2026-08-27T18:29:25Z</time>
  <course>56.12</course>
  <speed>0.0</speed>
  <fix>3d</fix>
</trkpt>
<trkpt lat="40.0728463" lon="-105.2307821">
  <ele>1585.92</ele>
  <time>2026-08-27T18:29:25Z</time>
  <course>334.37</course>
  <speed>0.0</speed>
  <fix>3d</fix>
</trkpt>
<trkpt lat="40.0728463" lon="-105.2307822">
  <ele>1585.95</ele>
  <time>2026-08-27T18:29:25Z</time>
  <course>56.26</course>
  <speed>0.0</speed>
  <fix>3d</fix>
</trkpt>
<trkpt lat="40.0728463" lon="-105.2307821">
  <ele>1585.92</ele>
  <time>2026-08-27T18:29:25Z</time>
  <course>173.11</course>
  <speed>0.0</speed>
  <fix>3d</fix>
</trkpt>
<trkpt lat="40.0728463" lon="-105.2307822">
  <ele>1585.95</ele>
  <time>2026-08-27T18:29:25Z</time>
  <course>56.4</course>
  <speed>0.0</speed>
  <fix>3d</fix>
</trkpt>
<trkpt lat="40.0728463" lon="-105.2307821">
  <ele>1585.92</ele>
  <time>2026-08-27T18:29:25Z</time>
  <course>181.89</course>
  <speed>0.0</speed>
  <fix>3d</fix>
</trkpt>
<trkpt lat="40.0728463" lon="-105.2307822">
  <ele>1585.95</ele>
  <time>2026-08-27T18:29:25Z</time>
  <course>56.54</course>
  <speed>0.01</speed>
  <fix>3d</fix>
</trkpt>
<trkpt lat="40.0728463" lon="-105.2307821">
  <ele>1585.92</ele>
  <time>2026-08-27T18:29:25Z</time>
  <course>2.78</course>
  <speed>0.0</speed>
  <fix>3d</fix>
</trkpt>
<trkpt lat="40.0728463" lon="-105.2307822">
  <ele>1585.95</ele>
  <time>2026-08-27T18:29:25Z</time>
  <course>56.68</course>
  <speed>0.01</speed>
  <fix>3d</fix>
</trkpt>
<trkpt lat="40.0728463" lon="-105.2307821">
  <ele>1585.92</ele>
  <time>2026-08-27T18:29:25Z</time>
  <course>5.02</course>
  <speed>0.0</speed>
  <fix>3d</fix>
</trkpt>
<trkpt lat="40.0728463" lon="-105.2307821">
  <ele>1585.95</ele>
  <time>2026-08-27T18:29:25Z</time>
  <course>56.81</course>
  <speed>0.01</speed>
  <fix>3d</fix>
</trkpt>
<trkpt lat="40.0728463" lon="-105.2307821">
  <ele>1585.92</ele>
  <time>2026-08-27T18:29:25Z</time>
  <course>172.17</course>
  <speed>0.0</speed>
  <fix>3d</fix>
</trkpt>
<trkpt lat="40.0728463" lon="-105.2307821">
  <ele>1585.96</ele>
  <time>2026-08-27T18:29:25Z</time>
  <course>56.94</course>
  <speed>0.01</speed>
  <fix>3d</fix>
</trkpt>
<trkpt lat="40.0728463" lon="-105.2307821">
  <ele>1585.92</ele>
  <time>2026-08-27T18:29:25Z</time>
  <course>162.29</course>
  <speed>0.0</speed>
  <fix>3d</fix>
</trkpt>
<trkpt lat="40.0728463" lon="-105.2307821">
  <ele>1585.96</ele>
  <time>2026-08-27T18:29:25Z</time>
  <course>57.07</course>
  <speed>0.01</speed>
  <fix>3d</fix>
</trkpt>
<trkpt lat="40.0728463" lon="-105.2307821">
  <ele>1585.92</ele>
  <time>2026-08-27T18:29:25Z</time>
  <course>130.52</course>
  <speed>0.0</speed>
  <fix>3d</fix>
</trkpt>
<trkpt lat="40.0728463" lon="-105.2307821">
  <ele>1585.96</ele>
  <time>2026-08-27T18:29:25Z</time>
  <course>57.2</course>
  <speed>0.01</speed>
  <fix>3d</fix>
</trkpt>
<trkpt lat="40.0728463" lon="-105.2307821">
  <ele>1585.92</ele>
  <time>2026-08-27T18:29:25Z</time>
  <course>149.13</course>
  <speed>0.0</speed>
  <fix>3d</fix>
</trkpt>
<trkpt lat="40.0728463" lon="-105.2307821">
  <ele>1585.96</ele>
  <time>2026-08-27T18:29:25Z</time>
  <course>57.33</course>
  <speed>0.01</speed>
  <fix>3d</fix>
</trkpt>
<trkpt lat="40.0728463" lon="-105.2307821">
  <ele>1585.92</ele>
  <time>2026-08-27T18:29:25Z</time>
  <course>151.96</course>
  <speed>0.0</speed>
  <fix>3d</fix>
</trkpt>
<trkpt lat="40.0728463" lon="-105.2307821">
  <ele>1585.95</ele>
  <time>2026-08-27T18:29:25Z</time>
  <course>57.45</course>
  <speed>0.01</speed>
  <fix>3d</fix>
</trkpt>
<trkpt lat="40.0728463" lon="-105.2307821">
  <ele>1585.92</ele>
  <time>2026-08-27T18:29:25Z</time>
  <course>150.16</course>
  <speed>0.0</speed>
  <fix>3d</fix>
</trkpt>
<trkpt lat="40.0728463" lon="-105.2307821">
  <ele>1585.95</ele>
  <time>2026-08-27T18:29:25Z</time>
  <course>57.57</course>
  <speed>0.01</speed>
  <fix>3d</fix>
</trkpt>
<trkpt lat="40.0728463" lon="-105.2307821">
  <ele>1585.92</ele>
  <time>2026-08-27T18:29:25Z</time>
  <course>149.99</course>
  <speed>0.0</speed>
  <fix>3d</fix>
</trkpt>
<trkpt lat="40.0728463" lon="-105.2307821">
  <ele>1585.96</ele>
  <time>2026-08-27T18:29:25Z</time>
  <course>57.69</course>
  <speed>0.01</speed>
  <fix>3d</fix>
</trkpt>
<trkpt lat="40.0728463" lon="-105.2307821">
  <ele>1585.92</ele>
  <time>2026-08-27T18:29:25Z</time>
  <course>150.27</course>
  <speed>0.0</speed>
  <fix>3d</fix>
</trkpt>
<trkpt lat="40.0728463" lon="-105.2307821">
  <ele>1585.96</ele>
  <time>2026-08-27T18:29:25Z</time>
  <course>57.81</course>
  <speed>0.01</speed>
  <fix>3d</fix>
</trkpt>
<trkpt lat="40.0728463" lon="-105.2307821">
  <ele>1585.92</ele>
  <time>2026-08-27T18:29:25Z</time>
  <course>150.26</course>
  <speed>0.0</speed>
  <fix>3d</fix>
</trkpt>
<trkpt lat="40.0728463" lon="-105.2307821">
  <ele>1585.97</ele>
  <time>2026-08-27T18:29:26Z</time>
  <course>57.93</course>
  <speed>0.01</speed>
  <fix>3d</fix>
</trkpt>
<trkpt lat="40.0728463" lon="-105.2307821">
  <ele>1585.92</ele>
  <time>2026-08-27T18:29:26Z</time>
  <course>150.22</course>
  <speed>0.0</speed>
  <fix>3d</fix>
</trkpt>
<trkpt lat="40.0728463" lon="-105.2307821">
  <ele>1585.97</ele>
  <time>2026-08-27T18:29:26Z</time>
  <course>58.04</course>
  <speed>0.01</speed>
  <fix>3d</fix>
</trkpt>
<trkpt lat="40.0728463" lon="-105.2307821">
  <ele>1585.92</ele>
  <time>2026-08-27T18:29:26Z</time>
  <course>150.23</course>
  <speed>0.0</speed>
  <fix>3d</fix>
</trkpt>
<trkpt lat="40.0728463" lon="-105.2307821">
  <ele>1585.97</ele>
  <time>2026-08-27T18:29:26Z</time>
  <course>58.15</course>
  <speed>0.01</speed>
  <fix>3d</fix>
</trkpt>
<trkpt lat="40.0728463" lon="-105.2307821">
  <ele>1585.92</ele>
  <time>2026-08-27T18:29:26Z</time>
  <course>150.23</course>
  <speed>0.0</speed>
  <fix>3d</fix>
</trkpt>
<trkpt lat="40.0728463" lon="-105.2307821">
  <ele>1585.98</ele>
  <time>2026-08-27T18:29:26Z</time>
  <course>58.27</course>
  <speed>0.01</speed>
  <fix>3d</fix>
</trkpt>
<trkpt lat="40.0728463" lon="-105.2307821">
  <ele>1585.92</ele>
  <time>2026-08-27T18:29:26Z</time>
  <course>150.23</course>
  <speed>0.0</speed>
  <fix>3d</fix>
</trkpt>
<trkpt lat="40.0728463" lon="-105.2307821">
  <ele>1585.98</ele>
  <time>2026-08-27T18:29:26Z</time>
  <course>58.37</course>
  <speed>0.01</speed>
  <fix>3d</fix>
</trkpt>
<trkpt lat="40.0728463" lon="-105.2307821">
  <ele>1585.92</ele>
  <time>2026-08-27T18:29:26Z</time>
  <course>150.23</course>
  <speed>0.0</speed>
  <fix>3d</fix>
</trkpt>
<trkpt lat="40.0728463" lon="-105.2307821">
  <ele>1585.98</ele>
  <time>2026-08-27T18:29:26Z</time>
  <course>58.48</course>
  <speed>0.01</speed>
  <fix>3d</fix>
</trkpt>
<trkpt lat="40.0728463" lon="-105.2307821">
  <ele>1585.92</ele>
  <time>2026-08-27T18:29:26Z</time>
  <course>150.23</course>
  <speed>0.0</speed>
  <fix>3d</fix>
</trkpt>
<trkpt lat="40.0728464" lon="-105.2307821">
  <ele>1585.98</ele>
  <time>2026-08-27T18:29:26Z</time>
  <course>58.59</course>
  <speed>0.01</speed>
  <fix>3d</fix>
</trkpt>
<trkpt lat="40.0728463" lon="-105.2307821">
  <ele>1585.92</ele>
  <time>2026-08-27T18:29:26Z</time>
  <course>150.23</course>
  <speed>0.0</speed>
  <fix>3d</fix>
</trkpt>
<trkpt lat="40.0728464" lon="-105.2307821">
  <ele>1585.99</ele>
  <time>2026-08-27T18:29:26Z</time>
  <course>58.7</course>
  <speed>0.01</speed>
  <fix>3d</fix>
</trkpt>
<trkpt lat="40.0728463" lon="-105.2307821">
  <ele>1585.92</ele>
  <time>2026-08-27T18:29:26Z</time>
  <course>150.23</course>
  <speed>0.0</speed>
  <fix>3d</fix>
</trkpt>
<trkpt lat="40.0728464" lon="-105.2307821">
  <ele>1585.99</ele>
  <time>2026-08-27T18:29:26Z</time>
  <course>58.8</course>
  <speed>0.01</speed>
  <fix>3d</fix>
</trkpt>
<trkpt lat="40.0728463" lon="-105.2307821">
  <ele>1585.92</ele>
  <time>2026-08-27T18:29:26Z</time>
  <course>150.23</course>
  <speed>0.0</speed>
  <fix>3d</fix>
</trkpt>
<trkpt lat="40.0728464" lon="-105.2307821">
  <ele>1585.99</ele>
  <time>2026-08-27T18:29:26Z</time>
  <course>58.9</course>
  <speed>0.01</speed>
  <fix>3d</fix>
</trkpt>
<trkpt lat="40.0728463" lon="-105.2307821">
  <ele>1585.92</ele>
  <time>2026-08-27T18:29:26Z</time>
  <course>150.23</course>
  <speed>0.0</speed>
  <fix>3d</fix>
</trkpt>
<trkpt lat="40.0728464" lon="-105.2307821">
  <ele>1585.99</ele>
  <time>2026-08-27T18:29:26Z</time>
  <course>59.01</course>
  <speed>0.01</speed>
  <fix>3d</fix>
</trkpt>
<trkpt lat="40.0728463" lon="-105.2307821">
  <ele>1585.92</ele>
  <time>2026-08-27T18:29:26Z</time>
  <course>150.23</course>
  <speed>0.0</speed>
  <fix>3d</fix>
</trkpt>
<trkpt lat="40.0728464" lon="-105.2307821">
  <ele>1585.99</ele>
  <time>2026-08-27T18:29:26Z</time>
  <course>59.11</course>
  <speed>0.01</speed>
  <fix>3d</fix>
</trkpt>
<trkpt lat="40.0728463" lon="-105.2307821">
  <ele>1585.92</ele>
  <time>2026-08-27T18:29:26Z</time>
  <course>150.23</course>
  <speed>0.0</speed>
  <fix>3d</fix>
</trkpt>
<trkpt lat="40.0728464" lon="-105.2307821">
  <ele>1585.99</ele>
  <time>2026-08-27T18:29:26Z</time>
  <course>59.21</course>
  <speed>0.01</speed>
  <fix>3d</fix>
</trkpt>
<trkpt lat="40.0728463" lon="-105.2307821">
  <ele>1585.92</ele>
  <time>2026-08-27T18:29:26Z</time>
  <course>84.21</course>
  <speed>0.0</speed>
  <fix>3d</fix>
</trkpt>
<trkpt lat="40.0728464" lon="-105.2307821">
  <ele>1585.99</ele>
  <time>2026-08-27T18:29:26Z</time>
  <course>59.3</course>
  <speed>0.01</speed>
  <fix>3d</fix>
</trkpt>
<trkpt lat="40.0728463" lon="-105.2307821">
  <ele>1585.92</ele>
  <time>2026-08-27T18:29:26Z</time>
  <course>133.28</course>
  <speed>0.0</speed>
  <fix>3d</fix>
</trkpt>
<trkpt lat="40.0728464" lon="-105.2307821">
  <ele>1585.99</ele>
  <time>2026-08-27T18:29:26Z</time>
  <course>59.4</course>
  <speed>0.01</speed>
  <fix>3d</fix>
</trkpt>
<trkpt lat="40.0728463" lon="-105.2307821">
  <ele>1585.92</ele>
  <time>2026-08-27T18:29:26Z</time>
  <course>150.14</course>
  <speed>0.0</speed>
  <fix>3d</fix>
</trkpt>
<trkpt lat="40.0728464" lon="-105.2307821">
  <ele>1585.99</ele>
  <time>2026-08-27T18:29:26Z</time>
  <course>59.49</course>
  <speed>0.01</speed>
  <fix>3d</fix>
</trkpt>
<trkpt lat="40.0728463" lon="-105.2307821">
  <ele>1585.92</ele>
  <time>2026-08-27T18:29:26Z</time>
  <course>145.94</course>
  <speed>0.0</speed>
  <fix>3d</fix>
</trkpt>
<trkpt lat="40.0728464" lon="-105.2307821">
  <ele>1585.99</ele>
  <time>2026-08-27T18:29:26Z</time>
  <course>59.59</course>
  <speed>0.01</speed>
  <fix>3d</fix>
</trkpt>
<trkpt lat="40.0728463" lon="-105.2307821">
  <ele>1585.92</ele>
  <time>2026-08-27T18:29:26Z</time>
  <course>151.07</course>
  <speed>0.0</speed>
  <fix>3d</fix>
</trkpt>
<trkpt lat="40.0728464" lon="-105.2307821">
  <ele>1585.99</ele>
  <time>2026-08-27T18:29:26Z</time>
  <course>59.68</course>
  <speed>0.01</speed>
  <fix>3d</fix>
</trkpt>
<trkpt lat="40.0728463" lon="-105.2307821">
  <ele>1585.92</ele>
  <time>2026-08-27T18:29:26Z</time>
  <course>150.7</course>
  <speed>0.0</speed>
  <fix>3d</fix>
</trkpt>
<trkpt lat="40.0728464" lon="-105.2307821">
  <ele>1585.99</ele>
  <time>2026-08-27T18:29:26Z</time>
  <course>59.77</course>
  <speed>0.01</speed>
  <fix>3d</fix>
</trkpt>
<trkpt lat="40.0728463" lon="-105.2307821">
  <ele>1585.92</ele>
  <time>2026-08-27T18:29:26Z</time>
  <course>150.07</course>
  <speed>0.0</speed>
  <fix>3d</fix>
</trkpt>
<trkpt lat="40.0728464" lon="-105.2307821">
  <ele>1585.99</ele>
  <time>2026-08-27T18:29:26Z</time>
  <course>59.86</course>
  <speed>0.01</speed>
  <fix>3d</fix>
</trkpt>
<trkpt lat="40.0728463" lon="-105.2307821">
  <ele>1585.92</ele>
  <time>2026-08-27T18:29:26Z</time>
  <course>150.19</course>
  <speed>0.0</speed>
  <fix>3d</fix>
</trkpt>
<trkpt lat="40.0728464" lon="-105.2307821">
  <ele>1585.99</ele>
  <time>2026-08-27T18:29:26Z</time>
  <course>59.95</course>
  <speed>0.01</speed>
  <fix>3d</fix>
</trkpt>
<trkpt lat="40.0728463" lon="-105.2307821">
  <ele>1585.92</ele>
  <time>2026-08-27T18:29:26Z</time>
  <course>150.26</course>
  <speed>0.0</speed>
  <fix>3d</fix>
</trkpt>
<trkpt lat="40.0728464" lon="-105.2307821">
  <ele>1585.99</ele>
  <time>2026-08-27T18:29:26Z</time>
  <course>60.04</course>
  <speed>0.01</speed>
  <fix>3d</fix>
</trkpt>
<trkpt lat="40.0728463" lon="-105.2307821">
  <ele>1585.92</ele>
  <time>2026-08-27T18:29:26Z</time>
  <course>150.23</course>
  <speed>0.0</speed>
  <fix>3d</fix>
</trkpt>
<trkpt lat="40.0728464" lon="-105.2307821">
  <ele>1585.99</ele>
  <time>2026-08-27T18:29:26Z</time>
  <course>60.13</course>
  <speed>0.01</speed>
  <fix>3d</fix>
</trkpt>
<trkpt lat="40.0728463" lon="-105.2307821">
  <ele>1585.92</ele>
  <time>2026-08-27T18:29:26Z</time>
  <course>150.23</course>
  <speed>0.0</speed>
  <fix>3d</fix>
</trkpt>
<trkpt lat="40.0728464" lon="-105.2307821">
  <ele>1585.99</ele>
  <time>2026-08-27T18:29:26Z</time>
  <course>60.21</course>
  <speed>0.01</speed>
  <fix>3d</fix>
</trkpt>
<trkpt lat="40.0728463" lon="-105.2307821">
  <ele>1585.92</ele>
  <time>2026-08-27T18:29:26Z</time>
  <course>150.23</course>
  <speed>0.0</speed>
  <fix>3d</fix>
</trkpt>
<trkpt lat="40.0728464" lon="-105.2307821">
  <ele>1585.99</ele>
  <time>2026-08-27T18:29:26Z</time>
  <course>60.3</course>
  <speed>0.01</speed>
  <fix>3d</fix>
</trkpt>
<trkpt lat="40.0728463" lon="-105.2307821">
  <ele>1585.92</ele>
  <time>2026-08-27T18:29:26Z</time>
  <course>150.3</course>
  <speed>0.0</speed>
  <fix>3d</fix>
</trkpt>
<trkpt lat="40.0728464" lon="-105.2307821">
  <ele>1585.99</ele>
  <time>2026-08-27T18:29:26Z</time>
  <course>60.38</course>
  <speed>0.01</speed>
  <fix>3d</fix>
</trkpt>
<trkpt lat="40.0728463" lon="-105.2307821">
  <ele>1585.92</ele>
  <time>2026-08-27T18:29:26Z</time>
  <course>150.33</course>
  <speed>0.0</speed>
  <fix>3d</fix>
</trkpt>
<trkpt lat="40.0728464" lon="-105.2307821">
  <ele>1585.99</ele>
  <time>2026-08-27T18:29:26Z</time>
  <course>60.46</course>
  <speed>0.01</speed>
  <fix>3d</fix>
</trkpt>
<trkpt lat="40.0728463" lon="-105.2307821">
  <ele>1585.92</ele>
  <time>2026-08-27T18:29:26Z</time>
  <course>150.63</course>
  <speed>0.0</speed>
  <fix>3d</fix>
</trkpt>
<trkpt lat="40.0728464" lon="-105.2307821">
  <ele>1585.99</ele>
  <time>2026-08-27T18:29:26Z</time>
  <course>60.54</course>
  <speed>0.01</speed>
  <fix>3d</fix>
</trkpt>
<trkpt lat="40.0728463" lon="-105.2307821">
  <ele>1585.92</ele>
  <time>2026-08-27T18:29:26Z</time>
  <course>151.12</course>
  <speed>0.0</speed>
  <fix>3d</fix>
</trkpt>
<trkpt lat="40.0728464" lon="-105.2307821">
  <ele>1585.99</ele>
  <time>2026-08-27T18:29:26Z</time>
  <course>60.62</course>
  <speed>0.01</speed>
  <fix>3d</fix>
</trkpt>
<trkpt lat="40.0728463" lon="-105.2307821">
  <ele>1585.92</ele>
  <time>2026-08-27T18:29:26Z</time>
  <course>152.15</course>
  <speed>0.0</speed>
  <fix>3d</fix>
</trkpt>
<trkpt lat="40.0728464" lon="-105.2307821">
  <ele>1585.99</ele>
  <time>2026-08-27T18:29:26Z</time>
  <course>60.69</course>
  <speed>0.01</speed>
  <fix>3d</fix>
</trkpt>
<trkpt lat="40.0728463" lon="-105.2307821">
  <ele>1585.92</ele>
  <time>2026-08-27T18:29:26Z</time>
  <course>152.76</course>
  <speed>0.0</speed>
  <fix>3d</fix>
</trkpt>
<trkpt lat="40.0728464" lon="-105.2307821">
  <ele>1585.99</ele>
  <time>2026-08-27T18:29:26Z</time>
  <course>60.76</course>
  <speed>0.01</speed>
  <fix>3d</fix>
</trkpt>
<trkpt lat="40.0728463" lon="-105.2307821">
  <ele>1585.92</ele>
  <time>2026-08-27T18:29:26Z</time>
  <course>153.35</course>
  <speed>0.0</speed>
  <fix>3d</fix>
</trkpt>
<trkpt lat="40.0728464" lon="-105.2307821">
  <ele>1585.99</ele>
  <time>2026-08-27T18:29:26Z</time>
  <course>60.83</course>
  <speed>0.01</speed>
  <fix>3d</fix>
</trkpt>
<trkpt lat="40.0728463" lon="-105.2307821">
  <ele>1585.92</ele>
  <time>2026-08-27T18:29:26Z</time>
  <course>153.58</course>
  <speed>0.0</speed>
  <fix>3d</fix>
</trkpt>
<trkpt lat="40.0728464" lon="-105.2307821">
  <ele>1585.99</ele>
  <time>2026-08-27T18:29:26Z</time>
  <course>60.9</course>
  <speed>0.01</speed>
  <fix>3d</fix>
</trkpt>
<trkpt lat="40.0728463" lon="-105.2307821">
  <ele>1585.92</ele>
  <time>2026-08-27T18:29:26Z</time>
  <course>153.74</course>
  <speed>0.0</speed>
  <fix>3d</fix>
</trkpt>
<trkpt lat="40.0728464" lon="-105.2307821">
  <ele>1585.99</ele>
  <time>2026-08-27T18:29:26Z</time>
  <course>60.96</course>
  <speed>0.01</speed>
  <fix>3d</fix>
</trkpt>
<trkpt lat="40.0728463" lon="-105.2307821">
  <ele>1585.92</ele>
  <time>2026-08-27T18:29:26Z</time>
  <course>153.84</course>
  <speed>0.0</speed>
  <fix>3d</fix>
</trkpt>
<trkpt lat="40.0728464" lon="-105.2307821">
  <ele>1585.99</ele>
  <time>2026-08-27T18:29:26Z</time>
  <course>61.02</course>
  <speed>0.01</speed>
  <fix>3d</fix>
</trkpt>
<trkpt lat="40.0728463" lon="-105.2307821">
  <ele>1585.92</ele>
  <time>2026-08-27T18:29:26Z</time>
  <course>153.84</course>
  <speed>0.0</speed>
  <fix>3d</fix>
</trkpt>
<trkpt lat="40.0728464" lon="-105.2307821">
  <ele>1585.99</ele>
  <time>2026-08-27T18:29:26Z</time>
  <course>61.08</course>
  <speed>0.01</speed>
  <fix>3d</fix>
</trkpt>
<trkpt lat="40.0728463" lon="-105.2307821">
  <ele>1585.92</ele>
  <time>2026-08-27T18:29:26Z</time>
  <course>153.89</course>
  <speed>0.0</speed>
  <fix>3d</fix>
</trkpt>
<trkpt lat="40.0728464" lon="-105.2307821">
  <ele>1585.99</ele>
  <time>2026-08-27T18:29:26Z</time>
  <course>61.14</course>
  <speed>0.01</speed>
  <fix>3d</fix>
</trkpt>
<trkpt lat="40.0728463" lon="-105.2307821">
  <ele>1585.92</ele>
  <time>2026-08-27T18:29:26Z</time>
  <course>153.89</course>
  <speed>0.0</speed>
  <fix>3d</fix>
</trkpt>
<trkpt lat="40.0728464" lon="-105.2307821">
  <ele>1585.99</ele>
  <time>2026-08-27T18:29:26Z</time>
  <course>61.19</course>
  <speed>0.01</speed>
  <fix>3d</fix>
</trkpt>
<trkpt lat="40.0728463" lon="-105.2307821">
  <ele>1585.92</ele>
  <time>2026-08-27T18:29:26Z</time>
  <course>153.85</course>
  <speed>0.0</speed>
  <fix>3d</fix>
</trkpt>
<trkpt lat="40.0728464" lon="-105.2307821">
  <ele>1585.99</ele>
  <time>2026-08-27T18:29:26Z</time>
  <course>61.24</course>
  <speed>0.01</speed>
  <fix>3d</fix>
</trkpt>
<trkpt lat="40.0728463" lon="-105.2307821">
  <ele>1585.92</ele>
  <time>2026-08-27T18:29:26Z</time>
  <course>153.86</course>
  <speed>0.0</speed>
  <fix>3d</fix>
</trkpt>
<trkpt lat="40.0728464" lon="-105.2307821">
  <ele>1586.0</ele>
  <time>2026-08-27T18:29:26Z</time>
  <course>61.28</course>
  <speed>0.01</speed>
  <fix>3d</fix>
</trkpt>
<trkpt lat="40.0728463" lon="-105.2307821">
  <ele>1585.92</ele>
  <time>2026-08-27T18:29:26Z</time>
  <course>153.81</course>
  <speed>0.0</speed>
  <fix>3d</fix>
</trkpt>
<trkpt lat="40.0728464" lon="-105.2307821">
  <ele>1586.0</ele>
  <time>2026-08-27T18:29:26Z</time>
  <course>61.33</course>
  <speed>0.01</speed>
  <fix>3d</fix>
</trkpt>
<trkpt lat="40.0728463" lon="-105.2307821">
  <ele>1585.92</ele>
  <time>2026-08-27T18:29:26Z</time>
  <course>153.7</course>
  <speed>0.0</speed>
  <fix>3d</fix>
</trkpt>
<trkpt lat="40.0728464" lon="-105.2307821">
  <ele>1586.0</ele>
  <time>2026-08-27T18:29:26Z</time>
  <course>61.37</course>
  <speed>0.02</speed>
  <fix>3d</fix>
</trkpt>
<trkpt lat="40.0728463" lon="-105.2307821">
  <ele>1585.92</ele>
  <time>2026-08-27T18:29:26Z</time>
  <course>151.67</course>
  <speed>0.0</speed>
  <fix>3d</fix>
</trkpt>
<trkpt lat="40.0728464" lon="-105.2307821">
  <ele>1585.99</ele>
  <time>2026-08-27T18:29:26Z</time>
  <course>61.41</course>
  <speed>0.02</speed>
  <fix>3d</fix>
</trkpt>
<trkpt lat="40.0728463" lon="-105.2307821">
  <ele>1585.92</ele>
  <time>2026-08-27T18:29:26Z</time>
  <course>149.73</course>
  <speed>0.0</speed>
  <fix>3d</fix>
</trkpt>
<trkpt lat="40.0728464" lon="-105.2307821">
  <ele>1585.99</ele>
  <time>2026-08-27T18:29:26Z</time>
  <course>61.45</course>
  <speed>0.02</speed>
  <fix>3d</fix>
</trkpt>
<trkpt lat="40.0728463" lon="-105.2307821">
  <ele>1585.92</ele>
  <time>2026-08-27T18:29:26Z</time>
  <course>150.31</course>
  <speed>0.0</speed>
  <fix>3d</fix>
</trkpt>
<trkpt lat="40.0728464" lon="-105.2307821">
  <ele>1585.99</ele>
  <time>2026-08-27T18:29:26Z</time>
  <course>61.48</course>
  <speed>0.02</speed>
  <fix>3d</fix>
</trkpt>
<trkpt lat="40.0728463" lon="-105.2307821">
  <ele>1585.92</ele>
  <time>2026-08-27T18:29:26Z</time>
  <course>154.99</course>
  <speed>0.0</speed>
  <fix>3d</fix>
</trkpt>
<trkpt lat="40.0728464" lon="-105.2307821">
  <ele>1585.99</ele>
  <time>2026-08-27T18:29:26Z</time>
  <course>61.51</course>
  <speed>0.02</speed>
  <fix>3d</fix>
</trkpt>
<trkpt lat="40.0728463" lon="-105.2307821">
  <ele>1585.92</ele>
  <time>2026-08-27T18:29:26Z</time>
  <course>153.56</course>
  <speed>0.0</speed>
  <fix>3d</fix>
</trkpt>
<trkpt lat="40.0728464" lon="-105.2307821">
  <ele>1585.99</ele>
  <time>2026-08-27T18:29:26Z</time>
  <course>61.54</course>
  <speed>0.02</speed>
  <fix>3d</fix>
</trkpt>
<trkpt lat="40.0728463" lon="-105.2307821">
  <ele>1585.92</ele>
  <time>2026-08-27T18:29:26Z</time>
  <course>153.34</course>
  <speed>0.0</speed>
  <fix>3d</fix>
</trkpt>
<trkpt lat="40.0728464" lon="-105.2307821">
  <ele>1585.99</ele>
  <time>2026-08-27T18:29:26Z</time>
  <course>61.57</course>
  <speed>0.02</speed>
  <fix>3d</fix>
</trkpt>
<trkpt lat="40.0728463" lon="-105.2307821">
  <ele>1585.92</ele>
  <time>2026-08-27T18:29:26Z</time>
  <course>153.17</course>
  <speed>0.0</speed>
  <fix>3d</fix>
</trkpt>
<trkpt lat="40.0728464" lon="-105.2307821">
  <ele>1585.99</ele>
  <time>2026-08-27T18:29:26Z</time>
  <course>61.59</course>
  <speed>0.02</speed>
  <fix>3d</fix>
</trkpt>
<trkpt lat="40.0728463" lon="-105.2307821">
  <ele>1585.92</ele>
  <time>2026-08-27T18:29:26Z</time>
  <course>152.88</course>
  <speed>0.0</speed>
  <fix>3d</fix>
</trkpt>
<trkpt lat="40.0728464" lon="-105.2307821">
  <ele>1585.99</ele>
  <time>2026-08-27T18:29:26Z</time>
  <course>61.62</course>
  <speed>0.02</speed>
  <fix>3d</fix>
</trkpt>
<trkpt lat="40.0728463" lon="-105.2307821">
  <ele>1585.92</ele>
  <time>2026-08-27T18:29:26Z</time>
  <course>152.85</course>
  <speed>0.0</speed>
  <fix>3d</fix>
</trkpt>
<trkpt lat="40.0728464" lon="-105.2307821">
  <ele>1585.99</ele>
  <time>2026-08-27T18:29:26Z</time>
  <course>61.64</course>
  <speed>0.02</speed>
  <fix>3d</fix>
</trkpt>
<trkpt lat="40.0728463" lon="-105.2307821">
  <ele>1585.92</ele>
  <time>2026-08-27T18:29:26Z</time>
  <course>152.76</course>
  <speed>0.0</speed>
  <fix>3d</fix>
</trkpt>
<trkpt lat="40.0728464" lon="-105.2307821">
  <ele>1585.99</ele>
  <time>2026-08-27T18:29:26Z</time>
  <course>61.65</course>
  <speed>0.02</speed>
  <fix>3d</fix>
</trkpt>
<trkpt lat="40.0728463" lon="-105.2307821">
  <ele>1585.92</ele>
  <time>2026-08-27T18:29:26Z</time>
  <course>152.63</course>
  <speed>0.0</speed>
  <fix>3d</fix>
</trkpt>
<trkpt lat="40.0728464" lon="-105.2307821">
  <ele>1585.99</ele>
  <time>2026-08-27T18:29:26Z</time>
  <course>61.67</course>
  <speed>0.02</speed>
  <fix>3d</fix>
</trkpt>
<trkpt lat="40.0728463" lon="-105.2307821">
  <ele>1585.92</ele>
  <time>2026-08-27T18:29:26Z</time>
  <course>152.99</course>
  <speed>0.0</speed>
  <fix>3d</fix>
</trkpt>
<trkpt lat="40.0728464" lon="-105.2307821">
  <ele>1585.99</ele>
  <time>2026-08-27T18:29:26Z</time>
  <course>61.68</course>
  <speed>0.02</speed>
  <fix>3d</fix>
</trkpt>
<trkpt lat="40.0728463" lon="-105.2307821">
  <ele>1585.92</ele>
  <time>2026-08-27T18:29:26Z</time>
  <course>152.96</course>
  <speed>0.0</speed>
  <fix>3d</fix>
</trkpt>
<trkpt lat="40.0728464" lon="-105.2307821">
  <ele>1585.99</ele>
  <time>2026-08-27T18:29:26Z</time>
  <course>61.68</course>
  <speed>0.02</speed>
  <fix>3d</fix>
</trkpt>
<trkpt lat="40.0728463" lon="-105.2307821">
  <ele>1585.92</ele>
  <time>2026-08-27T18:29:26Z</time>
  <course>152.32</course>
  <speed>0.0</speed>
  <fix>3d</fix>
</trkpt>
<trkpt lat="40.0728464" lon="-105.2307821">
  <ele>1585.99</ele>
  <time>2026-08-27T18:29:26Z</time>
  <course>61.69</course>
  <speed>0.02</speed>
  <fix>3d</fix>
</trkpt>
<trkpt lat="40.0728463" lon="-105.2307821">
  <ele>1585.92</ele>
  <time>2026-08-27T18:29:26Z</time>
  <course>151.93</course>
  <speed>0.0</speed>
  <fix>3d</fix>
</trkpt>
<trkpt lat="40.0728464" lon="-105.2307821">
  <ele>1585.99</ele>
  <time>2026-08-27T18:29:26Z</time>
  <course>61.69</course>
  <speed>0.02</speed>
  <fix>3d</fix>
</trkpt>
<trkpt lat="40.0728463" lon="-105.2307821">
  <ele>1585.92</ele>
  <time>2026-08-27T18:29:26Z</time>
  <course>152.04</course>
  <speed>0.0</speed>
  <fix>3d</fix>
</trkpt>
<trkpt lat="40.0728464" lon="-105.2307821">
  <ele>1586.0</ele>
  <time>2026-08-27T18:29:26Z</time>
  <course>61.7</course>
  <speed>0.02</speed>
  <fix>3d</fix>
</trkpt>
<trkpt lat="40.0728463" lon="-105.2307821">
  <ele>1585.92</ele>
  <time>2026-08-27T18:29:26Z</time>
  <course>151.92</course>
  <speed>0.0</speed>
  <fix>3d</fix>
</trkpt>
<trkpt lat="40.0728464" lon="-105.2307821">
  <ele>1585.99</ele>
  <time>2026-08-27T18:29:26Z</time>
  <course>61.69</course>
  <speed>0.02</speed>
  <fix>3d</fix>
</trkpt>
<trkpt lat="40.0728463" lon="-105.2307821">
  <ele>1585.92</ele>
  <time>2026-08-27T18:29:26Z</time>
  <course>151.76</course>
  <speed>0.0</speed>
  <fix>3d</fix>
</trkpt>
<trkpt lat="40.0728464" lon="-105.2307821">
  <ele>1585.99</ele>
  <time>2026-08-27T18:29:26Z</time>
  <course>61.69</course>
  <speed>0.02</speed>
  <fix>3d</fix>
</trkpt>
<trkpt lat="40.0728463" lon="-105.2307821">
  <ele>1585.92</ele>
  <time>2026-08-27T18:29:26Z</time>
  <course>151.63</course>
  <speed>0.0</speed>
  <fix>3d</fix>
</trkpt>
<trkpt lat="40.0728464" lon="-105.2307821">
  <ele>1585.99</ele>
  <time>2026-08-27T18:29:26Z</time>
  <course>61.68</course>
  <speed>0.02</speed>
  <fix>3d</fix>
</trkpt>
<trkpt lat="40.0728463" lon="-105.2307821">
  <ele>1585.92</ele>
  <time>2026-08-27T18:29:26Z</time>
  <course>151.5</course>
  <speed>0.0</speed>
  <fix>3d</fix>
</trkpt>
<trkpt lat="40.0728464" lon="-105.2307821">
  <ele>1585.99</ele>
  <time>2026-08-27T18:29:26Z</time>
  <course>61.68</course>
  <speed>0.02</speed>
  <fix>3d</fix>
</trkpt>
<trkpt lat="40.0728463" lon="-105.2307821">
  <ele>1585.92</ele>
  <time>2026-08-27T18:29:26Z</time>
  <course>151.35</course>
  <speed>0.0</speed>
  <fix>3d</fix>
</trkpt>
<trkpt lat="40.0728464" lon="-105.2307821">
  <ele>1585.99</ele>
  <time>2026-08-27T18:29:26Z</time>
  <course>61.66</course>
  <speed>0.02</speed>
  <fix>3d</fix>
</trkpt>
<trkpt lat="40.0728463" lon="-105.2307821">
  <ele>1585.92</ele>
  <time>2026-08-27T18:29:26Z</time>
  <course>151.21</course>
  <speed>0.0</speed>
  <fix>3d</fix>
</trkpt>
<trkpt lat="40.0728464" lon="-105.2307821">
  <ele>1585.99</ele>
  <time>2026-08-27T18:29:26Z</time>
  <course>61.65</course>
  <speed>0.02</speed>
  <fix>3d</fix>
</trkpt>
<trkpt lat="40.0728463" lon="-105.2307821">
  <ele>1585.92</ele>
  <time>2026-08-27T18:29:26Z</time>
  <course>19.2</course>
  <speed>0.0</speed>
  <fix>3d</fix>
</trkpt>
<trkpt lat="40.0728464" lon="-105.2307821">
  <ele>1585.99</ele>
  <time>2026-08-27T18:29:26Z</time>
  <course>61.64</course>
  <speed>0.02</speed>
  <fix>3d</fix>
</trkpt>
<trkpt lat="40.0728463" lon="-105.2307821">
  <ele>1585.92</ele>
  <time>2026-08-27T18:29:26Z</time>
  <course>53.49</course>
  <speed>0.0</speed>
  <fix>3d</fix>
</trkpt>
<trkpt lat="40.0728464" lon="-105.2307821">
  <ele>1585.99</ele>
  <time>2026-08-27T18:29:26Z</time>
  <course>61.62</course>
  <speed>0.02</speed>
  <fix>3d</fix>
</trkpt>
<trkpt lat="40.0728463" lon="-105.2307821">
  <ele>1585.92</ele>
  <time>2026-08-27T18:29:26Z</time>
  <course>151.06</course>
  <speed>0.0</speed>
  <fix>3d</fix>
</trkpt>
<trkpt lat="40.0728464" lon="-105.2307821">
  <ele>1585.99</ele>
  <time>2026-08-27T18:29:26Z</time>
  <course>61.6</course>
  <speed>0.02</speed>
  <fix>3d</fix>
</trkpt>
<trkpt lat="40.0728463" lon="-105.2307821">
  <ele>1585.92</ele>
  <time>2026-08-27T18:29:26Z</time>
  <course>150.26</course>
  <speed>0.0</speed>
  <fix>3d</fix>
</trkpt>
<trkpt lat="40.0728464" lon="-105.2307821">
  <ele>1585.99</ele>
  <time>2026-08-27T18:29:26Z</time>
  <course>61.59</course>
  <speed>0.02</speed>
  <fix>3d</fix>
</trkpt>
<trkpt lat="40.0728463" lon="-105.2307821">
  <ele>1585.92</ele>
  <time>2026-08-27T18:29:26Z</time>
  <course>148.32</course>
  <speed>0.0</speed>
  <fix>3d</fix>
</trkpt>
<trkpt lat="40.0728464" lon="-105.2307821">
  <ele>1585.99</ele>
  <time>2026-08-27T18:29:26Z</time>
  <course>61.57</course>
  <speed>0.02</speed>
  <fix>3d</fix>
</trkpt>
<trkpt lat="40.0728463" lon="-105.2307821">
  <ele>1585.92</ele>
  <time>2026-08-27T18:29:26Z</time>
  <course>148.34</course>
  <speed>0.0</speed>
  <fix>3d</fix>
</trkpt>
<trkpt lat="40.0728464" lon="-105.2307821">
  <ele>1585.99</ele>
  <time>2026-08-27T18:29:26Z</time>
  <course>61.55</course>
  <speed>0.02</speed>
  <fix>3d</fix>
</trkpt>
<trkpt lat="40.0728463" lon="-105.2307821">
  <ele>1585.92</ele>
  <time>2026-08-27T18:29:26Z</time>
  <course>148.49</course>
  <speed>0.0</speed>
  <fix>3d</fix>
</trkpt>
<trkpt lat="40.0728464" lon="-105.2307821">
  <ele>1585.99</ele>
  <time>2026-08-27T18:29:26Z</time>
  <course>61.53</course>
  <speed>0.02</speed>
  <fix>3d</fix>
</trkpt>
<trkpt lat="40.0728463" lon="-105.2307821">
  <ele>1585.92</ele>
  <time>2026-08-27T18:29:26Z</time>
  <course>148.23</course>
  <speed>0.0</speed>
  <fix>3d</fix>
</trkpt>
<trkpt lat="40.0728464" lon="-105.2307821">
  <ele>1585.99</ele>
  <time>2026-08-27T18:29:26Z</time>
  <course>61.51</course>
  <speed>0.02</speed>
  <fix>3d</fix>
</trkpt>
<trkpt lat="40.0728463" lon="-105.2307821">
  <ele>1585.92</ele>
  <time>2026-08-27T18:29:26Z</time>
  <course>148.01</course>
  <speed>0.0</speed>
  <fix>3d</fix>
</trkpt>
<trkpt lat="40.0728464" lon="-105.2307821">
  <ele>1585.99</ele>
  <time>2026-08-27T18:29:26Z</time>
  <course>61.5</course>
  <speed>0.02</speed>
  <fix>3d</fix>
</trkpt>
<trkpt lat="40.0728463" lon="-105.2307821">
  <ele>1585.92</ele>
  <time>2026-08-27T18:29:26Z</time>
  <course>334.51</course>
  <speed>0.0</speed>
  <fix>3d</fix>
</trkpt>
<trkpt lat="40.0728464" lon="-105.2307821">
  <ele>1585.99</ele>
  <time>2026-08-27T18:29:26Z</time>
  <course>61.48</course>
  <speed>0.02</speed>
  <fix>3d</fix>
</trkpt>
<trkpt lat="40.0728463" lon="-105.2307821">
  <ele>1585.92</ele>
  <time>2026-08-27T18:29:26Z</time>
  <course>334.39</course>
  <speed>0.0</speed>
  <fix>3d</fix>
</trkpt>
<trkpt lat="40.0728464" lon="-105.2307821">
  <ele>1585.99</ele>
  <time>2026-08-27T18:29:26Z</time>
  <course>61.46</course>
  <speed>0.02</speed>
  <fix>3d</fix>
</trkpt>
<trkpt lat="40.0728463" lon="-105.2307821">
  <ele>1585.92</ele>
  <time>2026-08-27T18:29:26Z</time>
  <course>149.13</course>
  <speed>0.0</speed>
  <fix>3d</fix>
</trkpt>
<trkpt lat="40.0728464" lon="-105.2307821">
  <ele>1586.0</ele>
  <time>2026-08-27T18:29:26Z</time>
  <course>61.44</course>
  <speed>0.02</speed>
  <fix>3d</fix>
</trkpt>
<trkpt lat="40.0728463" lon="-105.2307821">
  <ele>1585.92</ele>
  <time>2026-08-27T18:29:26Z</time>
  <course>148.72</course>
  <speed>0.0</speed>
  <fix>3d</fix>
</trkpt>
<trkpt lat="40.0728464" lon="-105.2307821">
  <ele>1586.0</ele>
  <time>2026-08-27T18:29:26Z</time>
  <course>61.42</course>
  <speed>0.02</speed>
  <fix>3d</fix>
</trkpt>
<trkpt lat="40.0728463" lon="-105.2307821">
  <ele>1585.92</ele>
  <time>2026-08-27T18:29:26Z</time>
  <course>146.81</course>
  <speed>0.0</speed>
  <fix>3d</fix>
</trkpt>
<trkpt lat="40.0728464" lon="-105.2307821">
  <ele>1586.0</ele>
  <time>2026-08-27T18:29:26Z</time>
  <course>61.4</course>
  <speed>0.02</speed>
  <fix>3d</fix>
</trkpt>
<trkpt lat="40.0728463" lon="-105.2307821">
  <ele>1585.92</ele>
  <time>2026-08-27T18:29:26Z</time>
  <course>147.1</course>
  <speed>0.0</speed>
  <fix>3d</fix>
</trkpt>
<trkpt lat="40.0728464" lon="-105.2307821">
  <ele>1586.0</ele>
  <time>2026-08-27T18:29:26Z</time>
  <course>61.38</course>
  <speed>0.02</speed>
  <fix>3d</fix>
</trkpt>
<trkpt lat="40.0728463" lon="-105.2307821">
  <ele>1585.92</ele>
  <time>2026-08-27T18:29:26Z</time>
  <course>147.26</course>
  <speed>0.0</speed>
  <fix>3d</fix>
</trkpt>
<trkpt lat="40.0728464" lon="-105.2307821">
  <ele>1586.0</ele>
  <time>2026-08-27T18:29:26Z</time>
  <course>61.36</course>
  <speed>0.02</speed>
  <fix>3d</fix>
</trkpt>
<trkpt lat="40.0728463" lon="-105.2307821">
  <ele>1585.92</ele>
  <time>2026-08-27T18:29:26Z</time>
  <course>147.08</course>
  <speed>0.0</speed>
  <fix>3d</fix>
</trkpt>
<trkpt lat="40.0728464" lon="-105.2307821">
  <ele>1586.0</ele>
  <time>2026-08-27T18:29:26Z</time>
  <course>61.34</course>
  <speed>0.02</speed>
  <fix>3d</fix>
</trkpt>
<trkpt lat="40.0728463" lon="-105.2307821">
  <ele>1585.92</ele>
  <time>2026-08-27T18:29:26Z</time>
  <course>146.96</course>
  <speed>0.0</speed>
  <fix>3d</fix>
</trkpt>
<trkpt lat="40.0728464" lon="-105.2307821">
  <ele>1586.01</ele>
  <time>2026-08-27T18:29:26Z</time>
  <course>61.32</course>
  <speed>0.02</speed>
  <fix>3d</fix>
</trkpt>
<trkpt lat="40.0728463" lon="-105.2307821">
  <ele>1585.92</ele>
  <time>2026-08-27T18:29:26Z</time>
  <course>333.36</course>
  <speed>0.0</speed>
  <fix>3d</fix>
</trkpt>
<trkpt lat="40.0728464" lon="-105.2307821">
  <ele>1586.01</ele>
  <time>2026-08-27T18:29:26Z</time>
  <course>61.3</course>
  <speed>0.02</speed>
  <fix>3d</fix>
</trkpt>
<trkpt lat="40.0728463" lon="-105.2307821">
  <ele>1585.92</ele>
  <time>2026-08-27T18:29:26Z</time>
  <course>334.76</course>
  <speed>0.0</speed>
  <fix>3d</fix>
</trkpt>
<trkpt lat="40.0728464" lon="-105.2307821">
  <ele>1586.01</ele>
  <time>2026-08-27T18:29:26Z</time>
  <course>61.28</course>
  <speed>0.02</speed>
  <fix>3d</fix>
</trkpt>
<trkpt lat="40.0728463" lon="-105.2307821">
  <ele>1585.92</ele>
  <time>2026-08-27T18:29:26Z</time>
  <course>333.28</course>
  <speed>0.0</speed>
  <fix>3d</fix>
</trkpt>
<trkpt lat="40.0728464" lon="-105.2307821">
  <ele>1586.01</ele>
  <time>2026-08-27T18:29:26Z</time>
  <course>61.26</course>
  <speed>0.02</speed>
  <fix>3d</fix>
</trkpt>
<trkpt lat="40.0728463" lon="-105.2307821">
  <ele>1585.92</ele>
  <time>2026-08-27T18:29:26Z</time>
  <course>169.75</course>
  <speed>0.0</speed>
  <fix>3d</fix>
</trkpt>
<trkpt lat="40.0728464" lon="-105.2307821">
  <ele>1586.01</ele>
  <time>2026-08-27T18:29:26Z</time>
  <course>61.24</course>
  <speed>0.02</speed>
  <fix>3d</fix>
</trkpt>
<trkpt lat="40.0728463" lon="-105.2307821">
  <ele>1585.92</ele>
  <time>2026-08-27T18:29:26Z</time>
  <course>151.66</course>
  <speed>0.0</speed>
  <fix>3d</fix>
</trkpt>
<trkpt lat="40.0728464" lon="-105.2307821">
  <ele>1586.01</ele>
  <time>2026-08-27T18:29:26Z</time>
  <course>61.22</course>
  <speed>0.02</speed>
  <fix>3d</fix>
</trkpt>
<trkpt lat="40.0728463" lon="-105.2307821">
  <ele>1585.92</ele>
  <time>2026-08-27T18:29:26Z</time>
  <course>143.44</course>
  <speed>0.0</speed>
  <fix>3d</fix>
</trkpt>
<trkpt lat="40.0728464" lon="-105.2307821">
  <ele>1586.02</ele>
  <time>2026-08-27T18:29:26Z</time>
  <course>61.2</course>
  <speed>0.02</speed>
  <fix>3d</fix>
</trkpt>
<trkpt lat="40.0728463" lon="-105.2307821">
  <ele>1585.92</ele>
  <time>2026-08-27T18:29:26Z</time>
  <course>146.15</course>
  <speed>0.0</speed>
  <fix>3d</fix>
</trkpt>
<trkpt lat="40.0728464" lon="-105.2307821">
  <ele>1586.01</ele>
  <time>2026-08-27T18:29:26Z</time>
  <course>61.18</course>
  <speed>0.02</speed>
  <fix>3d</fix>
</trkpt>
<trkpt lat="40.0728463" lon="-105.2307821">
  <ele>1585.92</ele>
  <time>2026-08-27T18:29:26Z</time>
  <course>147.01</course>
  <speed>0.0</speed>
  <fix>3d</fix>
</trkpt>
<trkpt lat="40.0728464" lon="-105.2307821">
  <ele>1586.01</ele>
  <time>2026-08-27T18:29:26Z</time>
  <course>61.16</course>
  <speed>0.02</speed>
  <fix>3d</fix>
</trkpt>
<trkpt lat="40.0728463" lon="-105.2307821">
  <ele>1585.92</ele>
  <time>2026-08-27T18:29:26Z</time>
  <course>332.53</course>
  <speed>0.0</speed>
  <fix>3d</fix>
</trkpt>
<trkpt lat="40.0728464" lon="-105.2307821">
  <ele>1586.01</ele>
  <time>2026-08-27T18:29:26Z</time>
  <course>61.13</course>
  <speed>0.02</speed>
  <fix>3d</fix>
</trkpt>
<trkpt lat="40.0728463" lon="-105.2307821">
  <ele>1585.92</ele>
  <time>2026-08-27T18:29:26Z</time>
  <course>332.59</course>
  <speed>0.0</speed>
  <fix>3d</fix>
</trkpt>
<trkpt lat="40.0728464" lon="-105.2307821">
  <ele>1586.01</ele>
  <time>2026-08-27T18:29:26Z</time>
  <course>61.11</course>
  <speed>0.02</speed>
  <fix>3d</fix>
</trkpt>
<trkpt lat="40.0728463" lon="-105.2307821">
  <ele>1585.92</ele>
  <time>2026-08-27T18:29:26Z</time>
  <course>148.48</course>
  <speed>0.0</speed>
  <fix>3d</fix>
</trkpt>
<trkpt lat="40.0728464" lon="-105.2307821">
  <ele>1586.01</ele>
  <time>2026-08-27T18:29:26Z</time>
  <course>61.09</course>
  <speed>0.02</speed>
  <fix>3d</fix>
</trkpt>
<trkpt lat="40.0728463" lon="-105.2307821">
  <ele>1585.92</ele>
  <time>2026-08-27T18:29:26Z</time>
  <course>147.55</course>
  <speed>0.0</speed>
  <fix>3d</fix>
</trkpt>
<trkpt lat="40.0728464" lon="-105.2307821">
  <ele>1586.01</ele>
  <time>2026-08-27T18:29:26Z</time>
  <course>61.07</course>
  <speed>0.02</speed>
  <fix>3d</fix>
</trkpt>
<trkpt lat="40.0728463" lon="-105.2307821">
  <ele>1585.92</ele>
  <time>2026-08-27T18:29:26Z</time>
  <course>145.16</course>
  <speed>0.0</speed>
  <fix>3d</fix>
</trkpt>
<trkpt lat="40.0728464" lon="-105.2307821">
  <ele>1586.0</ele>
  <time>2026-08-27T18:29:26Z</time>
  <course>61.05</course>
  <speed>0.02</speed>
  <fix>3d</fix>
</trkpt>
<trkpt lat="40.0728463" lon="-105.2307821">
  <ele>1585.92</ele>
  <time>2026-08-27T18:29:26Z</time>
  <course>145.88</course>
  <speed>0.0</speed>
  <fix>3d</fix>
</trkpt>
<trkpt lat="40.0728464" lon="-105.2307821">
  <ele>1586.0</ele>
  <time>2026-08-27T18:29:26Z</time>
  <course>61.02</course>
  <speed>0.02</speed>
  <fix>3d</fix>
</trkpt>
<trkpt lat="40.0728463" lon="-105.2307821">
  <ele>1585.92</ele>
  <time>2026-08-27T18:29:26Z</time>
  <course>332.74</course>
  <speed>0.0</speed>
  <fix>3d</fix>
</trkpt>
<trkpt lat="40.0728464" lon="-105.2307821">
  <ele>1586.0</ele>
  <time>2026-08-27T18:29:26Z</time>
  <course>61.0</course>
  <speed>0.02</speed>
  <fix>3d</fix>
</trkpt>
<trkpt lat="40.0728463" lon="-105.2307821">
  <ele>1585.92</ele>
  <time>2026-08-27T18:29:26Z</time>
  <course>331.27</course>
  <speed>0.0</speed>
  <fix>3d</fix>
</trkpt>
<trkpt lat="40.0728464" lon="-105.2307821">
  <ele>1586.0</ele>
  <time>2026-08-27T18:29:26Z</time>
  <course>60.98</course>
  <speed>0.02</speed>
  <fix>3d</fix>
</trkpt>
<trkpt lat="40.0728463" lon="-105.2307821">
  <ele>1585.92</ele>
  <time>2026-08-27T18:29:26Z</time>
  <course>333.27</course>
  <speed>0.0</speed>
  <fix>3d</fix>
</trkpt>
<trkpt lat="40.0728464" lon="-105.2307821">
  <ele>1586.0</ele>
  <time>2026-08-27T18:29:26Z</time>
  <course>60.96</course>
  <speed>0.02</speed>
  <fix>3d</fix>
</trkpt>
<trkpt lat="40.0728463" lon="-105.2307821">
  <ele>1585.92</ele>
  <time>2026-08-27T18:29:26Z</time>
  <course>148.38</course>
  <speed>0.0</speed>
  <fix>3d</fix>
</trkpt>
<trkpt lat="40.0728464" lon="-105.2307821">
  <ele>1586.0</ele>
  <time>2026-08-27T18:29:26Z</time>
  <course>60.94</course>
  <speed>0.02</speed>
  <fix>3d</fix>
</trkpt>
<trkpt lat="40.0728463" lon="-105.2307821">
  <ele>1585.92</ele>
  <time>2026-08-27T18:29:26Z</time>
  <course>146.51</course>
  <speed>0.0</speed>
  <fix>3d</fix>
</trkpt>
<trkpt lat="40.0728464" lon="-105.2307821">
  <ele>1586.01</ele>
  <time>2026-08-27T18:29:26Z</time>
  <course>60.91</course>
  <speed>0.02</speed>
  <fix>3d</fix>
</trkpt>
<trkpt lat="40.0728463" lon="-105.2307821">
  <ele>1585.92</ele>
  <time>2026-08-27T18:29:26Z</time>
  <course>144.55</course>
  <speed>0.0</speed>
  <fix>3d</fix>
</trkpt>
<trkpt lat="40.0728464" lon="-105.2307821">
  <ele>1586.01</ele>
  <time>2026-08-27T18:29:26Z</time>
  <course>60.89</course>
  <speed>0.02</speed>
  <fix>3d</fix>
</trkpt>
<trkpt lat="40.0728463" lon="-105.2307821">
  <ele>1585.92</ele>
  <time>2026-08-27T18:29:26Z</time>
  <course>145.57</course>
  <speed>0.0</speed>
  <fix>3d</fix>
</trkpt>
<trkpt lat="40.0728464" lon="-105.2307821">
  <ele>1586.01</ele>
  <time>2026-08-27T18:29:26Z</time>
  <course>60.87</course>
  <speed>0.02</speed>
  <fix>3d</fix>
</trkpt>
<trkpt lat="40.0728463" lon="-105.2307821">
  <ele>1585.92</ele>
  <time>2026-08-27T18:29:26Z</time>
  <course>330.92</course>
  <speed>0.0</speed>
  <fix>3d</fix>
</trkpt>
<trkpt lat="40.0728464" lon="-105.2307821">
  <ele>1586.01</ele>
  <time>2026-08-27T18:29:26Z</time>
  <course>60.84</course>
  <speed>0.02</speed>
  <fix>3d</fix>
</trkpt>
<trkpt lat="40.0728463" lon="-105.2307821">
  <ele>1585.92</ele>
  <time>2026-08-27T18:29:26Z</time>
  <course>330.54</course>
  <speed>0.0</speed>
  <fix>3d</fix>
</trkpt>
<trkpt lat="40.0728464" lon="-105.2307821">
  <ele>1586.0</ele>
  <time>2026-08-27T18:29:26Z</time>
  <course>60.82</course>
  <speed>0.02</speed>
  <fix>3d</fix>
</trkpt>
<trkpt lat="40.0728463" lon="-105.2307821">
  <ele>1585.92</ele>
  <time>2026-08-27T18:29:26Z</time>
  <course>340.02</course>
  <speed>0.0</speed>
  <fix>3d</fix>
</trkpt>
<trkpt lat="40.0728464" lon="-105.2307821">
  <ele>1586.0</ele>
  <time>2026-08-27T18:29:26Z</time>
  <course>60.8</course>
  <speed>0.02</speed>
  <fix>3d</fix>
</trkpt>
<trkpt lat="40.0728463" lon="-105.2307821">
  <ele>1585.92</ele>
  <time>2026-08-27T18:29:26Z</time>
  <course>148.07</course>
  <speed>0.0</speed>
  <fix>3d</fix>
</trkpt>
<trkpt lat="40.0728464" lon="-105.2307821">
  <ele>1586.0</ele>
  <time>2026-08-27T18:29:26Z</time>
  <course>60.78</course>
  <speed>0.02</speed>
  <fix>3d</fix>
</trkpt>
<trkpt lat="40.0728463" lon="-105.2307821">
  <ele>1585.92</ele>
  <time>2026-08-27T18:29:26Z</time>
  <course>145.37</course>
  <speed>0.0</speed>
  <fix>3d</fix>
</trkpt>
<trkpt lat="40.0728464" lon="-105.2307821">
  <ele>1586.0</ele>
  <time>2026-08-27T18:29:26Z</time>
  <course>60.75</course>
  <speed>0.02</speed>
  <fix>3d</fix>
</trkpt>
<trkpt lat="40.0728463" lon="-105.2307821">
  <ele>1585.92</ele>
  <time>2026-08-27T18:29:26Z</time>
  <course>144.06</course>
  <speed>0.0</speed>
  <fix>3d</fix>
</trkpt>
<trkpt lat="40.0728464" lon="-105.2307821">
  <ele>1586.0</ele>
  <time>2026-08-27T18:29:26Z</time>
  <course>60.73</course>
  <speed>0.02</speed>
  <fix>3d</fix>
</trkpt>
<trkpt lat="40.0728463" lon="-105.2307821">
  <ele>1585.92</ele>
  <time>2026-08-27T18:29:26Z</time>
  <course>145.23</course>
  <speed>0.0</speed>
  <fix>3d</fix>
</trkpt>
<trkpt lat="40.0728464" lon="-105.2307821">
  <ele>1586.0</ele>
  <time>2026-08-27T18:29:26Z</time>
  <course>60.71</course>
  <speed>0.02</speed>
  <fix>3d</fix>
</trkpt>
<trkpt lat="40.0728463" lon="-105.2307821">
  <ele>1585.92</ele>
  <time>2026-08-27T18:29:26Z</time>
  <course>332.26</course>
  <speed>0.0</speed>
  <fix>3d</fix>
</trkpt>
<trkpt lat="40.0728464" lon="-105.2307821">
  <ele>1585.99</ele>
  <time>2026-08-27T18:29:26Z</time>
  <course>60.69</course>
  <speed>0.02</speed>
  <fix>3d</fix>
</trkpt>
<trkpt lat="40.0728463" lon="-105.2307821">
  <ele>1585.92</ele>
  <time>2026-08-27T18:29:26Z</time>
  <course>330.05</course>
  <speed>0.0</speed>
  <fix>3d</fix>
</trkpt>
<trkpt lat="40.0728464" lon="-105.2307821">
  <ele>1585.99</ele>
  <time>2026-08-27T18:29:26Z</time>
  <course>60.66</course>
  <speed>0.02</speed>
  <fix>3d</fix>
</trkpt>
<trkpt lat="40.0728463" lon="-105.2307821">
  <ele>1585.92</ele>
  <time>2026-08-27T18:29:26Z</time>
  <course>330.51</course>
  <speed>0.0</speed>
  <fix>3d</fix>
</trkpt>
<trkpt lat="40.0728464" lon="-105.2307821">
  <ele>1585.99</ele>
  <time>2026-08-27T18:29:26Z</time>
  <course>60.64</course>
  <speed>0.02</speed>
  <fix>3d</fix>
</trkpt>
<trkpt lat="40.0728463" lon="-105.2307821">
  <ele>1585.92</ele>
  <time>2026-08-27T18:29:26Z</time>
  <course>147.92</course>
  <speed>0.0</speed>
  <fix>3d</fix>
</trkpt>
<trkpt lat="40.0728464" lon="-105.2307821">
  <ele>1585.99</ele>
  <time>2026-08-27T18:29:26Z</time>
  <course>60.62</course>
  <speed>0.02</speed>
  <fix>3d</fix>
</trkpt>
<trkpt lat="40.0728463" lon="-105.2307821">
  <ele>1585.92</ele>
  <time>2026-08-27T18:29:26Z</time>
  <course>146.28</course>
  <speed>0.0</speed>
  <fix>3d</fix>
</trkpt>
<trkpt lat="40.0728464" lon="-105.2307821">
  <ele>1585.99</ele>
  <time>2026-08-27T18:29:26Z</time>
  <course>60.59</course>
  <speed>0.02</speed>
  <fix>3d</fix>
</trkpt>
<trkpt lat="40.0728463" lon="-105.2307821">
  <ele>1585.92</ele>
  <time>2026-08-27T18:29:26Z</time>
  <course>142.57</course>
  <speed>0.0</speed>
  <fix>3d</fix>
</trkpt>
<trkpt lat="40.0728464" lon="-105.2307821">
  <ele>1585.99</ele>
  <time>2026-08-27T18:29:26Z</time>
  <course>60.57</course>
  <speed>0.02</speed>
  <fix>3d</fix>
</trkpt>
<trkpt lat="40.0728463" lon="-105.2307821">
  <ele>1585.92</ele>
  <time>2026-08-27T18:29:26Z</time>
  <course>144.52</course>
  <speed>0.0</speed>
  <fix>3d</fix>
</trkpt>
<trkpt lat="40.0728464" lon="-105.2307821">
  <ele>1585.99</ele>
  <time>2026-08-27T18:29:26Z</time>
  <course>60.55</course>
  <speed>0.02</speed>
  <fix>3d</fix>
</trkpt>
<trkpt lat="40.0728463" lon="-105.2307821">
  <ele>1585.92</ele>
  <time>2026-08-27T18:29:26Z</time>
  <course>329.49</course>
  <speed>0.0</speed>
  <fix>3d</fix>
</trkpt>
<trkpt lat="40.0728464" lon="-105.2307821">
  <ele>1585.98</ele>
  <time>2026-08-27T18:29:26Z</time>
  <course>60.52</course>
  <speed>0.02</speed>
  <fix>3d</fix>
</trkpt>
<trkpt lat="40.0728463" lon="-105.2307821">
  <ele>1585.92</ele>
  <time>2026-08-27T18:29:26Z</time>
  <course>329.33</course>
  <speed>0.0</speed>
  <fix>3d</fix>
</trkpt>
<trkpt lat="40.0728464" lon="-105.2307821">
  <ele>1585.98</ele>
  <time>2026-08-27T18:29:26Z</time>
  <course>60.5</course>
  <speed>0.02</speed>
  <fix>3d</fix>
</trkpt>
<trkpt lat="40.0728463" lon="-105.2307821">
  <ele>1585.92</ele>
  <time>2026-08-27T18:29:26Z</time>
  <course>62.85</course>
  <speed>0.0</speed>
  <fix>3d</fix>
</trkpt>
<trkpt lat="40.0728464" lon="-105.2307821">
  <ele>1585.98</ele>
  <time>2026-08-27T18:29:26Z</time>
  <course>60.47</course>
  <speed>0.02</speed>
  <fix>3d</fix>
</trkpt>
<trkpt lat="40.0728463" lon="-105.2307821">
  <ele>1585.92</ele>
  <time>2026-08-27T18:29:26Z</time>
  <course>147.61</course>
  <speed>0.0</speed>
  <fix>3d</fix>
</trkpt>
<trkpt lat="40.0728464" lon="-105.2307821">
  <ele>1585.98</ele>
  <time>2026-08-27T18:29:26Z</time>
  <course>60.45</course>
  <speed>0.02</speed>
  <fix>3d</fix>
</trkpt>
<trkpt lat="40.0728463" lon="-105.2307821">
  <ele>1585.92</ele>
  <time>2026-08-27T18:29:26Z</time>
  <course>143.29</course>
  <speed>0.0</speed>
  <fix>3d</fix>
</trkpt>
<trkpt lat="40.0728464" lon="-105.2307821">
  <ele>1585.98</ele>
  <time>2026-08-27T18:29:26Z</time>
  <course>60.42</course>
  <speed>0.02</speed>
  <fix>3d</fix>
</trkpt>
<trkpt lat="40.0728463" lon="-105.2307821">
  <ele>1585.92</ele>
  <time>2026-08-27T18:29:26Z</time>
  <course>142.01</course>
  <speed>0.0</speed>
  <fix>3d</fix>
</trkpt>
<trkpt lat="40.0728464" lon="-105.2307821">
  <ele>1585.98</ele>
  <time>2026-08-27T18:29:27Z</time>
  <course>60.4</course>
  <speed>0.02</speed>
  <fix>3d</fix>
</trkpt>
<trkpt lat="40.0728463" lon="-105.2307821">
  <ele>1585.92</ele>
  <time>2026-08-27T18:29:27Z</time>
  <course>329.05</course>
  <speed>0.0</speed>
  <fix>3d</fix>
</trkpt>
<trkpt lat="40.0728464" lon="-105.2307821">
  <ele>1585.98</ele>
  <time>2026-08-27T18:29:27Z</time>
  <course>60.38</course>
  <speed>0.02</speed>
  <fix>3d</fix>
</trkpt>
<trkpt lat="40.0728463" lon="-105.2307821">
  <ele>1585.92</ele>
  <time>2026-08-27T18:29:27Z</time>
  <course>328.81</course>
  <speed>0.0</speed>
  <fix>3d</fix>
</trkpt>
<trkpt lat="40.0728464" lon="-105.2307821">
  <ele>1585.99</ele>
  <time>2026-08-27T18:29:27Z</time>
  <course>60.35</course>
  <speed>0.02</speed>
  <fix>3d</fix>
</trkpt>
<trkpt lat="40.0728463" lon="-105.2307821">
  <ele>1585.92</ele>
  <time>2026-08-27T18:29:27Z</time>
  <course>329.31</course>
  <speed>0.0</speed>
  <fix>3d</fix>
</trkpt>
<trkpt lat="40.0728464" lon="-105.2307821">
  <ele>1585.99</ele>
  <time>2026-08-27T18:29:27Z</time>
  <course>60.33</course>
  <speed>0.02</speed>
  <fix>3d</fix>
</trkpt>
<trkpt lat="40.0728463" lon="-105.2307821">
  <ele>1585.92</ele>
  <time>2026-08-27T18:29:27Z</time>
  <course>147.74</course>
  <speed>0.0</speed>
  <fix>3d</fix>
</trkpt>
<trkpt lat="40.0728464" lon="-105.2307821">
  <ele>1585.99</ele>
  <time>2026-08-27T18:29:27Z</time>
  <course>60.31</course>
  <speed>0.02</speed>
  <fix>3d</fix>
</trkpt>
<trkpt lat="40.0728463" lon="-105.2307821">
  <ele>1585.92</ele>
  <time>2026-08-27T18:29:27Z</time>
  <course>145.03</course>
  <speed>0.0</speed>
  <fix>3d</fix>
</trkpt>
<trkpt lat="40.0728464" lon="-105.2307821">
  <ele>1585.98</ele>
  <time>2026-08-27T18:29:27Z</time>
  <course>60.28</course>
  <speed>0.02</speed>
  <fix>3d</fix>
</trkpt>
<trkpt lat="40.0728463" lon="-105.2307821">
  <ele>1585.92</ele>
  <time>2026-08-27T18:29:27Z</time>
  <course>131.19</course>
  <speed>0.0</speed>
  <fix>3d</fix>
</trkpt>
<trkpt lat="40.0728464" lon="-105.2307821">
  <ele>1585.98</ele>
  <time>2026-08-27T18:29:27Z</time>
  <course>60.26</course>
  <speed>0.02</speed>
  <fix>3d</fix>
</trkpt>
<trkpt lat="40.0728463" lon="-105.2307821">
  <ele>1585.92</ele>
  <time>2026-08-27T18:29:27Z</time>
  <course>331.37</course>
  <speed>0.0</speed>
  <fix>3d</fix>
</trkpt>
<trkpt lat="40.0728464" lon="-105.2307821">
  <ele>1585.98</ele>
  <time>2026-08-27T18:29:27Z</time>
  <course>60.23</course>
  <speed>0.02</speed>
  <fix>3d</fix>
</trkpt>
<trkpt lat="40.0728463" lon="-105.2307821">
  <ele>1585.92</ele>
  <time>2026-08-27T18:29:27Z</time>
  <course>328.46</course>
  <speed>0.0</speed>
  <fix>3d</fix>
</trkpt>
<trkpt lat="40.0728464" lon="-105.2307821">
  <ele>1585.98</ele>
  <time>2026-08-27T18:29:27Z</time>
  <course>60.21</course>
  <speed>0.02</speed>
  <fix>3d</fix>
</trkpt>
<trkpt lat="40.0728463" lon="-105.2307821">
  <ele>1585.92</ele>
  <time>2026-08-27T18:29:27Z</time>
  <course>332.92</course>
  <speed>0.0</speed>
  <fix>3d</fix>
</trkpt>
<trkpt lat="40.0728464" lon="-105.2307821">
  <ele>1585.98</ele>
  <time>2026-08-27T18:29:27Z</time>
  <course>60.2</course>
  <speed>0.02</speed>
  <fix>3d</fix>
</trkpt>
<trkpt lat="40.0728463" lon="-105.2307821">
  <ele>1585.92</ele>
  <time>2026-08-27T18:29:27Z</time>
  <course>150.03</course>
  <speed>0.0</speed>
  <fix>3d</fix>
</trkpt>
<trkpt lat="40.0728464" lon="-105.2307821">
  <ele>1585.98</ele>
  <time>2026-08-27T18:29:27Z</time>
  <course>60.18</course>
  <speed>0.02</speed>
  <fix>3d</fix>
</trkpt>
<trkpt lat="40.0728463" lon="-105.2307821">
  <ele>1585.92</ele>
  <time>2026-08-27T18:29:27Z</time>
  <course>168.22</course>
  <speed>0.0</speed>
  <fix>3d</fix>
</trkpt>
<trkpt lat="40.0728464" lon="-105.2307821">
  <ele>1585.98</ele>
  <time>2026-08-27T18:29:27Z</time>
  <course>60.18</course>
  <speed>0.02</speed>
  <fix>3d</fix>
</trkpt>
<trkpt lat="40.0728464" lon="-105.2307821">
  <ele>1585.99</ele>
  <time>2026-08-27T18:29:27Z</time>
  <course>60.16</course>
  <speed>0.02</speed>
  <fix>3d</fix>
</trkpt>
<trkpt lat="40.0728463" lon="-105.2307821">
  <ele>1585.92</ele>
  <time>2026-08-27T18:29:27Z</time>
  <course>137.57</course>
  <speed>0.0</speed>
  <fix>3d</fix>
</trkpt>
<trkpt lat="40.0728464" lon="-105.2307821">
  <ele>1585.99</ele>
  <time>2026-08-27T18:29:27Z</time>
  <course>60.15</course>
  <speed>0.02</speed>
  <fix>3d</fix>
</trkpt>
<trkpt lat="40.0728464" lon="-105.2307821">
  <ele>1585.99</ele>
  <time>2026-08-27T18:29:27Z</time>
  <course>60.11</course>
  <speed>0.02</speed>
  <fix>3d</fix>
</trkpt>
<trkpt lat="40.0728463" lon="-105.2307821">
  <ele>1585.92</ele>
  <time>2026-08-27T18:29:27Z</time>
  <course>132.83</course>
  <speed>0.0</speed>
  <fix>3d</fix>
</trkpt>
<trkpt lat="40.0728464" lon="-105.2307821">
  <ele>1585.99</ele>
  <time>2026-08-27T18:29:27Z</time>
  <course>60.1</course>
  <speed>0.02</speed>
  <fix>3d</fix>
</trkpt>
<trkpt lat="40.0728464" lon="-105.2307821">
  <ele>1586.01</ele>
  <time>2026-08-27T18:29:27Z</time>
  <course>60.05</course>
  <speed>0.02</speed>
  <fix>3d</fix>
</trkpt>
<trkpt lat="40.0728463" lon="-105.2307821">
  <ele>1585.92</ele>
  <time>2026-08-27T18:29:27Z</time>
  <course>143.62</course>
  <speed>0.0</speed>
  <fix>3d</fix>
</trkpt>
<trkpt lat="40.0728464" lon="-105.2307821">
  <ele>1586.01</ele>
  <time>2026-08-27T18:29:27Z</time>
  <course>60.05</course>
  <speed>0.02</speed>
  <fix>3d</fix>
</trkpt>
<trkpt lat="40.0728464" lon="-105.2307821">
  <ele>1586.07</ele>
  <time>2026-08-27T18:29:27Z</time>
  <course>59.96</course>
  <speed>0.02</speed>
  <fix>3d</fix>
</trkpt>
<trkpt lat="40.0728463" lon="-105.2307821">
  <ele>1585.95</ele>
  <time>2026-08-27T18:29:27Z</time>
  <course>135.09</course>
  <speed>0.0</speed>
  <fix>3d</fix>
</trkpt>
<trkpt lat="40.0728464" lon="-105.2307821">
  <ele>1586.07</ele>
  <time>2026-08-27T18:29:27Z</time>
  <course>59.95</course>
  <speed>0.02</speed>
  <fix>3d</fix>
</trkpt>
<trkpt lat="40.0728464" lon="-105.2307821">
  <ele>1586.12</ele>
  <time>2026-08-27T18:29:27Z</time>
  <course>59.87</course>
  <speed>0.02</speed>
  <fix>3d</fix>
</trkpt>
<trkpt lat="40.0728463" lon="-105.2307821">
  <ele>1586.0</ele>
  <time>2026-08-27T18:29:27Z</time>
  <course>108.36</course>
  <speed>0.0</speed>
  <fix>3d</fix>
</trkpt>
<trkpt lat="40.0728464" lon="-105.2307821">
  <ele>1586.12</ele>
  <time>2026-08-27T18:29:27Z</time>
  <course>59.54</course>
  <speed>0.02</speed>
  <fix>3d</fix>
</trkpt>
<trkpt lat="40.0728464" lon="-105.2307821">
  <ele>1586.25</ele>
  <time>2026-08-27T18:29:27Z</time>
  <course>49.87</course>
  <speed>0.08944271909999159</speed>
  <fix>3d</fix>
</trkpt>
<trkpt lat="40.0728463" lon="-105.2307821">
  <ele>1586.07</ele>
  <time>2026-08-27T18:29:27Z</time>
  <course>321.78</course>
  <speed>0.01</speed>
  <fix>3d</fix>
</trkpt>
<trkpt lat="40.0728465" lon="-105.2307821">
  <ele>1586.29</ele>
  <time>2026-08-27T18:29:27Z</time>
  <course>48.73</course>
  <speed>0.11661903789690602</speed>
  <fix>3d</fix>
</trkpt>
<trkpt lat="40.0728466" lon="-105.2307823">
  <ele>1586.49</ele>
  <time>2026-08-27T18:29:27Z</time>
  <course>46.82</course>
  <speed>0.19209372712298545</speed>
  <fix>3d</fix>
</trkpt>
<trkpt lat="40.0728465" lon="-105.2307822">
  <ele>1586.24</ele>
  <time>2026-08-27T18:29:27Z</time>
  <course>315.99</course>
  <speed>0.1</speed>
  <fix>3d</fix>
</trkpt>
<trkpt lat="40.0728467" lon="-105.2307823">
  <ele>1586.52</ele>
  <time>2026-08-27T18:29:27Z</time>
  <course>46.78</course>
  <speed>0.19849433241279207</speed>
  <fix>3d</fix>
</trkpt>
<trkpt lat="40.0728469" lon="-105.2307826">
  <ele>1586.63</ele>
  <time>2026-08-27T18:29:27Z</time>
  <course>46.09</course>
  <speed>0.2262741699796952</speed>
  <fix>3d</fix>
</trkpt>
<trkpt lat="40.0728467" lon="-105.2307825">
  <ele>1586.44</ele>
  <time>2026-08-27T18:29:27Z</time>
  <course>312.04</course>
  <speed>0.19</speed>
  <fix>3d</fix>
</trkpt>
<trkpt lat="40.0728469" lon="-105.2307826">
  <ele>1586.63</ele>
  <time>2026-08-27T18:29:27Z</time>
  <course>46.08</course>
  <speed>0.2262741699796952</speed>
  <fix>3d</fix>
</trkpt>
<trkpt lat="40.0728471" lon="-105.2307831">
  <ele>1586.73</ele>
  <time>2026-08-27T18:29:27Z</time>
  <course>45.01</course>
  <speed>0.2420743687382041</speed>
  <fix>3d</fix>
</trkpt>
<trkpt lat="40.0728469" lon="-105.2307829">
  <ele>1586.58</ele>
  <time>2026-08-27T18:29:27Z</time>
  <course>306.57</course>
  <speed>0.22</speed>
  <fix>3d</fix>
</trkpt>
<trkpt lat="40.0728472" lon="-105.2307831">
  <ele>1586.75</ele>
  <time>2026-08-27T18:29:27Z</time>
  <course>44.91</course>
  <speed>0.2420743687382041</speed>
  <fix>3d</fix>
</trkpt>
<trkpt lat="40.0728474" lon="-105.2307836">
  <ele>1586.83</ele>
  <time>2026-08-27T18:29:27Z</time>
  <course>44.57</course>
  <speed>0.24698178070456936</speed>
  <fix>3d</fix>
</trkpt>
<trkpt lat="40.0728471" lon="-105.2307833">
  <ele>1586.67</ele>
  <time>2026-08-27T18:29:27Z</time>
  <course>300.18</course>
  <speed>0.24</speed>
  <fix>3d</fix>
</trkpt>
<trkpt lat="40.0728474" lon="-105.2307836">
  <ele>1586.84</ele>
  <time>2026-08-27T18:29:27Z</time>
  <course>44.56</course>
  <speed>0.25553864678361277</speed>
  <fix>3d</fix>
</trkpt>
<trkpt lat="40.0728475" lon="-105.2307841">
  <ele>1586.92</ele>
  <time>2026-08-27T18:29:27Z</time>
  <course>44.54</course>
  <speed>0.25495097567963926</speed>
  <fix>3d</fix>
</trkpt>
<trkpt lat="40.0728473" lon="-105.2307839">
  <ele>1586.77</ele>
  <time>2026-08-27T18:29:27Z</time>
  <course>293.52</course>
  <speed>0.25</speed>
  <fix>3d</fix>
</trkpt>
<trkpt lat="40.0728476" lon="-105.2307842">
  <ele>1586.94</ele>
  <time>2026-08-27T18:29:27Z</time>
  <course>44.55</course>
  <speed>0.25079872407968906</speed>
  <fix>3d</fix>
</trkpt>
<trkpt lat="40.0728477" lon="-105.2307847">
  <ele>1587.02</ele>
  <time>2026-08-27T18:29:27Z</time>
  <course>44.59</course>
  <speed>0.2529822128134704</speed>
  <fix>3d</fix>
</trkpt>
<trkpt lat="40.0728474" lon="-105.2307845">
  <ele>1586.86</ele>
  <time>2026-08-27T18:29:27Z</time>
  <course>286.81</course>
  <speed>0.25</speed>
  <fix>3d</fix>
</trkpt>
<trkpt lat="40.0728477" lon="-105.2307847">
  <ele>1587.02</ele>
  <time>2026-08-27T18:29:27Z</time>
  <course>44.59</course>
  <speed>0.26248809496813374</speed>
  <fix>3d</fix>
</trkpt>
<trkpt lat="40.0728477" lon="-105.2307853">
  <ele>1587.13</ele>
  <time>2026-08-27T18:29:27Z</time>
  <course>44.78</course>
  <speed>0.26476404589747454</speed>
  <fix>3d</fix>
</trkpt>
<trkpt lat="40.0728476" lon="-105.230785">
  <ele>1586.96</ele>
  <time>2026-08-27T18:29:27Z</time>
  <course>280.35</course>
  <speed>0.26</speed>
  <fix>3d</fix>
</trkpt>
<trkpt lat="40.0728477" lon="-105.2307854">
  <ele>1587.14</ele>
  <time>2026-08-27T18:29:27Z</time>
  <course>44.81</course>
  <speed>0.26476404589747454</speed>
  <fix>3d</fix>
</trkpt>
<trkpt lat="40.0728478" lon="-105.230786">
  <ele>1587.23</ele>
  <time>2026-08-27T18:29:27Z</time>
  <course>45.05</course>
  <speed>0.27166155414412246</speed>
  <fix>3d</fix>
</trkpt>
<trkpt lat="40.0728476" lon="-105.2307857">
  <ele>1587.06</ele>
  <time>2026-08-27T18:29:27Z</time>
  <course>274.48</course>
  <speed>0.26</speed>
  <fix>3d</fix>
</trkpt>
<trkpt lat="40.0728478" lon="-105.230786">
  <ele>1587.23</ele>
  <time>2026-08-27T18:29:27Z</time>
  <course>45.05</course>
  <speed>0.27166155414412246</speed>
  <fix>3d</fix>
</trkpt>
<trkpt lat="40.0728478" lon="-105.2307866">
  <ele>1587.34</ele>
  <time>2026-08-27T18:29:27Z</time>
  <course>45.41</course>
  <speed>0.280178514522438</speed>
  <fix>3d</fix>
</trkpt>
<trkpt lat="40.0728476" lon="-105.2307863">
  <ele>1587.16</ele>
  <time>2026-08-27T18:29:27Z</time>
  <course>269.33</course>
  <speed>0.27</speed>
  <fix>3d</fix>
</trkpt>
<trkpt lat="40.0728478" lon="-105.2307867">
  <ele>1587.36</ele>
  <time>2026-08-27T18:29:27Z</time>
  <course>45.46</course>
  <speed>0.28</speed>
  <fix>3d</fix>
</trkpt>
<trkpt lat="40.0728477" lon="-105.2307873">
  <ele>1587.46</ele>
  <time>2026-08-27T18:29:27Z</time>
  <course>45.8</course>
  <speed>0.29017236257093815</speed>
  <fix>3d</fix>
</trkpt>
<trkpt lat="40.0728476" lon="-105.2307869">
  <ele>1587.27</ele>
  <time>2026-08-27T18:29:27Z</time>
  <course>264.87</course>
  <speed>0.29</speed>
  <fix>3d</fix>
</trkpt>
<trkpt lat="40.0728477" lon="-105.2307874">
  <ele>1587.48</ele>
  <time>2026-08-27T18:29:27Z</time>
  <course>45.86</course>
  <speed>0.30016662039607267</speed>
  <fix>3d</fix>
</trkpt>
<trkpt lat="40.0728477" lon="-105.230788">
  <ele>1587.58</ele>
  <time>2026-08-27T18:29:27Z</time>
  <course>46.23</course>
  <speed>0.31144823004794875</speed>
  <fix>3d</fix>
</trkpt>
<trkpt lat="40.0728475" lon="-105.2307876">
  <ele>1587.38</ele>
  <time>2026-08-27T18:29:27Z</time>
  <course>261.1</course>
  <speed>0.3</speed>
  <fix>3d</fix>
</trkpt>
<trkpt lat="40.0728477" lon="-105.230788">
  <ele>1587.58</ele>
  <time>2026-08-27T18:29:27Z</time>
  <course>46.24</course>
  <speed>0.31144823004794875</speed>
  <fix>3d</fix>
</trkpt>
<trkpt lat="40.0728476" lon="-105.2307888">
  <ele>1587.69</ele>
  <time>2026-08-27T18:29:27Z</time>
  <course>46.65</course>
  <speed>0.32249030993194194</speed>
  <fix>3d</fix>
</trkpt>
<trkpt lat="40.0728475" lon="-105.2307884">
  <ele>1587.5</ele>
  <time>2026-08-27T18:29:27Z</time>
  <course>257.96</course>
  <speed>0.31</speed>
  <fix>3d</fix>
</trkpt>
<trkpt lat="40.0728476" lon="-105.2307888">
  <ele>1587.7</ele>
  <time>2026-08-27T18:29:27Z</time>
  <course>46.66</course>
  <speed>0.32249030993194194</speed>
  <fix>3d</fix>
</trkpt>
<trkpt lat="40.0728474" lon="-105.2307895">
  <ele>1587.82</ele>
  <time>2026-08-27T18:29:27Z</time>
  <course>47.07</course>
  <speed>0.33541019662496846</speed>
  <fix>3d</fix>
</trkpt>
<trkpt lat="40.0728474" lon="-105.2307891">
  <ele>1587.62</ele>
  <time>2026-08-27T18:29:27Z</time>
  <course>255.29</course>
  <speed>0.33</speed>
  <fix>3d</fix>
</trkpt>
<trkpt lat="40.0728474" lon="-105.2307896">
  <ele>1587.83</ele>
  <time>2026-08-27T18:29:27Z</time>
  <course>47.13</course>
  <speed>0.33541019662496846</speed>
  <fix>3d</fix>
</trkpt>
<trkpt lat="40.0728473" lon="-105.2307903">
  <ele>1587.94</ele>
  <time>2026-08-27T18:29:27Z</time>
  <course>47.53</course>
  <speed>0.34928498393145957</speed>
  <fix>3d</fix>
</trkpt>
<trkpt lat="40.0728473" lon="-105.2307898">
  <ele>1587.75</ele>
  <time>2026-08-27T18:29:27Z</time>
  <course>253.05</course>
  <speed>0.34</speed>
  <fix>3d</fix>
</trkpt>
<trkpt lat="40.0728473" lon="-105.2307903">
  <ele>1587.94</ele>
  <time>2026-08-27T18:29:27Z</time>
  <course>47.54</course>
  <speed>0.34928498393145957</speed>
  <fix>3d</fix>
</trkpt>
<trkpt lat="40.0728471" lon="-105.2307911">
  <ele>1588.07</ele>
  <time>2026-08-27T18:29:27Z</time>
  <course>47.97</course>
  <speed>0.36138621999185305</speed>
  <fix>3d</fix>
</trkpt>
<trkpt lat="40.0728471" lon="-105.2307907">
  <ele>1587.87</ele>
  <time>2026-08-27T18:29:27Z</time>
  <course>251.14</course>
  <speed>0.35</speed>
  <fix>3d</fix>
</trkpt>
<trkpt lat="40.072847" lon="-105.2307912">
  <ele>1588.08</ele>
  <time>2026-08-27T18:29:27Z</time>
  <course>48.02</course>
  <speed>0.36138621999185305</speed>
  <fix>3d</fix>
</trkpt>
<trkpt lat="40.0728469" lon="-105.2307919">
  <ele>1588.19</ele>
  <time>2026-08-27T18:29:27Z</time>
  <course>48.38</course>
  <speed>0.3640054944640259</speed>
  <fix>3d</fix>
</trkpt>
<trkpt lat="40.0728469" lon="-105.2307915">
  <ele>1587.99</ele>
  <time>2026-08-27T18:29:27Z</time>
  <course>249.5</course>
  <speed>0.37</speed>
  <fix>3d</fix>
</trkpt>
<trkpt lat="40.0728469" lon="-105.230792">
  <ele>1588.19</ele>
  <time>2026-08-27T18:29:27Z</time>
  <course>48.38</course>
  <speed>0.3640054944640259</speed>
  <fix>3d</fix>
</trkpt>
<trkpt lat="40.0728466" lon="-105.2307928">
  <ele>1588.32</ele>
  <time>2026-08-27T18:29:27Z</time>
  <course>48.81</course>
  <speed>0.37947331922020555</speed>
  <fix>3d</fix>
</trkpt>
<trkpt lat="40.0728466" lon="-105.2307923">
  <ele>1588.11</ele>
  <time>2026-08-27T18:29:27Z</time>
  <course>248.16</course>
  <speed>0.38</speed>
  <fix>3d</fix>
</trkpt>
<trkpt lat="40.0728466" lon="-105.2307929">
  <ele>1588.33</ele>
  <time>2026-08-27T18:29:27Z</time>
  <course>48.87</course>
  <speed>0.37947331922020555</speed>
  <fix>3d</fix>
</trkpt>
<trkpt lat="40.0728463" lon="-105.2307937">
  <ele>1588.44</ele>
  <time>2026-08-27T18:29:27Z</time>
  <course>49.23</course>
  <speed>0.3921734310225516</speed>
  <fix>3d</fix>
</trkpt>
<trkpt lat="40.0728463" lon="-105.2307931">
  <ele>1588.23</ele>
  <time>2026-08-27T18:29:27Z</time>
  <course>247.07</course>
  <speed>0.39</speed>
  <fix>3d</fix>
</trkpt>
<trkpt lat="40.0728463" lon="-105.2307938">
  <ele>1588.46</ele>
  <time>2026-08-27T18:29:27Z</time>
  <course>49.29</course>
  <speed>0.3921734310225516</speed>
  <fix>3d</fix>
</trkpt>
<trkpt lat="40.0728461" lon="-105.2307945">
  <ele>1588.56</ele>
  <time>2026-08-27T18:29:27Z</time>
  <course>49.63</course>
  <speed>0.4049691346263317</speed>
  <fix>3d</fix>
</trkpt>
<trkpt lat="40.072846" lon="-105.230794">
  <ele>1588.36</ele>
  <time>2026-08-27T18:29:27Z</time>
  <course>246.12</course>
  <speed>0.4</speed>
  <fix>3d</fix>
</trkpt>
<trkpt lat="40.072846" lon="-105.2307947">
  <ele>1588.58</ele>
  <time>2026-08-27T18:29:27Z</time>
  <course>49.68</course>
  <speed>0.4049691346263317</speed>
  <fix>3d</fix>
</trkpt>
<trkpt lat="40.0728457" lon="-105.2307954">
  <ele>1588.69</ele>
  <time>2026-08-27T18:29:27Z</time>
  <course>51.98</course>
  <speed>0.41785164831552357</speed>
  <fix>3d</fix>
</trkpt>
<trkpt lat="40.0728457" lon="-105.2307949">
  <ele>1588.48</ele>
  <time>2026-08-27T18:29:27Z</time>
  <course>245.33</course>
  <speed>0.42</speed>
  <fix>3d</fix>
</trkpt>
<trkpt lat="40.0728457" lon="-105.2307956">
  <ele>1588.71</ele>
  <time>2026-08-27T18:29:27Z</time>
  <course>51.04</course>
  <speed>0.41785164831552357</speed>
  <fix>3d</fix>
</trkpt>
<trkpt lat="40.0728454" lon="-105.2307964">
  <ele>1588.81</ele>
  <time>2026-08-27T18:29:27Z</time>
  <course>47.4</course>
  <speed>0.43657759905886145</speed>
  <fix>3d</fix>
</trkpt>
<trkpt lat="40.0728454" lon="-105.2307958">
  <ele>1588.61</ele>
  <time>2026-08-27T18:29:27Z</time>
  <course>245.12</course>
  <speed>0.43</speed>
  <fix>3d</fix>
</trkpt>
<trkpt lat="40.0728454" lon="-105.2307964">
  <ele>1588.82</ele>
  <time>2026-08-27T18:29:27Z</time>
  <course>47.41</course>
  <speed>0.43657759905886145</speed>
  <fix>3d</fix>
</trkpt>
<trkpt lat="40.0728451" lon="-105.2307974">
  <ele>1588.94</ele>
  <time>2026-08-27T18:29:27Z</time>
  <course>49.48</course>
  <speed>0.46238512086787564</speed>
  <fix>3d</fix>
</trkpt>
<trkpt lat="40.0728451" lon="-105.2307967">
  <ele>1588.73</ele>
  <time>2026-08-27T18:29:27Z</time>
  <course>245.4</course>
  <speed>0.44</speed>
  <fix>3d</fix>
</trkpt>
<trkpt lat="40.072845" lon="-105.2307975">
  <ele>1588.96</ele>
  <time>2026-08-27T18:29:27Z</time>
  <course>49.91</course>
  <speed>0.46238512086787564</speed>
  <fix>3d</fix>
</trkpt>
<trkpt lat="40.0728447" lon="-105.2307984">
  <ele>1589.07</ele>
  <time>2026-08-27T18:29:27Z</time>
  <course>52.12</course>
  <speed>0.4753945729601885</speed>
  <fix>3d</fix>
</trkpt>
<trkpt lat="40.0728448" lon="-105.2307977">
  <ele>1588.86</ele>
  <time>2026-08-27T18:29:27Z</time>
  <course>245.24</course>
  <speed>0.44</speed>
  <fix>3d</fix>
</trkpt>
<trkpt lat="40.0728447" lon="-105.2307985">
  <ele>1589.08</ele>
  <time>2026-08-27T18:29:27Z</time>
  <course>52.39</course>
  <speed>0.4753945729601885</speed>
  <fix>3d</fix>
</trkpt>
<trkpt lat="40.0728444" lon="-105.2307994">
  <ele>1589.19</ele>
  <time>2026-08-27T18:29:27Z</time>
  <course>53.71</course>
  <speed>0.4753945729601885</speed>
  <fix>3d</fix>
</trkpt>
<trkpt lat="40.0728444" lon="-105.2307986">
  <ele>1588.98</ele>
  <time>2026-08-27T18:29:27Z</time>
  <course>244.75</course>
  <speed>0.44</speed>
  <fix>3d</fix>
</trkpt>
<trkpt lat="40.0728443" lon="-105.2307995">
  <ele>1589.21</ele>
  <time>2026-08-27T18:29:27Z</time>
  <course>53.88</course>
  <speed>0.4753945729601885</speed>
  <fix>3d</fix>
</trkpt>
<trkpt lat="40.072844" lon="-105.2308004">
  <ele>1589.31</ele>
  <time>2026-08-27T18:29:27Z</time>
  <course>54.71</course>
  <speed>0.4753945729601885</speed>
  <fix>3d</fix>
</trkpt>
<trkpt lat="40.0728441" lon="-105.2307996">
  <ele>1589.11</ele>
  <time>2026-08-27T18:29:27Z</time>
  <course>244.5</course>
  <speed>0.44</speed>
  <fix>3d</fix>
</trkpt>
<trkpt lat="40.072844" lon="-105.2308005">
  <ele>1589.33</ele>
  <time>2026-08-27T18:29:27Z</time>
  <course>54.83</course>
  <speed>0.4753945729601885</speed>
  <fix>3d</fix>
</trkpt>
<trkpt lat="40.0728437" lon="-105.2308013">
  <ele>1589.44</ele>
  <time>2026-08-27T18:29:27Z</time>
  <course>55.39</course>
  <speed>0.4753945729601885</speed>
  <fix>3d</fix>
</trkpt>
<trkpt lat="40.0728437" lon="-105.2308006">
  <ele>1589.23</ele>
  <time>2026-08-27T18:29:27Z</time>
  <course>244.48</course>
  <speed>0.44</speed>
  <fix>3d</fix>
</trkpt>
<trkpt lat="40.0728437" lon="-105.2308013">
  <ele>1589.44</ele>
  <time>2026-08-27T18:29:27Z</time>
  <course>55.39</course>
  <speed>0.4753945729601885</speed>
  <fix>3d</fix>
</trkpt>
<trkpt lat="40.0728433" lon="-105.2308023">
  <ele>1589.56</ele>
  <time>2026-08-27T18:29:27Z</time>
  <course>55.84</course>
  <speed>0.4661544808322666</speed>
  <fix>3d</fix>
</trkpt>
<trkpt lat="40.0728433" lon="-105.2308015">
  <ele>1589.36</ele>
  <time>2026-08-27T18:29:27Z</time>
  <course>244.64</course>
  <speed>0.44</speed>
  <fix>3d</fix>
</trkpt>
<trkpt lat="40.0728433" lon="-105.2308024">
  <ele>1589.58</ele>
  <time>2026-08-27T18:29:27Z</time>
  <course>55.89</course>
  <speed>0.46238512086787564</speed>
  <fix>3d</fix>
</trkpt>
<trkpt lat="40.072843" lon="-105.2308032">
  <ele>1589.69</ele>
  <time>2026-08-27T18:29:27Z</time>
  <course>56.17</course>
  <speed>0.46238512086787564</speed>
  <fix>3d</fix>
</trkpt>
<trkpt lat="40.072843" lon="-105.2308024">
  <ele>1589.48</ele>
  <time>2026-08-27T18:29:27Z</time>
  <course>244.93</course>
  <speed>0.44</speed>
  <fix>3d</fix>
</trkpt>
<trkpt lat="40.0728429" lon="-105.2308033">
  <ele>1589.71</ele>
  <time>2026-08-27T18:29:27Z</time>
  <course>56.21</course>
  <speed>0.46238512086787564</speed>
  <fix>3d</fix>
</trkpt>
<trkpt lat="40.0728426" lon="-105.2308042">
  <ele>1589.82</ele>
  <time>2026-08-27T18:29:27Z</time>
  <course>56.43</course>
  <speed>0.46238512086787564</speed>
  <fix>3d</fix>
</trkpt>
<trkpt lat="40.0728427" lon="-105.2308034">
  <ele>1589.61</ele>
  <time>2026-08-27T18:29:27Z</time>
  <course>245.25</course>
  <speed>0.44</speed>
  <fix>3d</fix>
</trkpt>
<trkpt lat="40.0728426" lon="-105.2308042">
  <ele>1589.82</ele>
  <time>2026-08-27T18:29:27Z</time>
  <course>56.44</course>
  <speed>0.46238512086787564</speed>
  <fix>3d</fix>
</trkpt>
<trkpt lat="40.0728423" lon="-105.2308051">
  <ele>1589.95</ele>
  <time>2026-08-27T18:29:27Z</time>
  <course>56.67</course>
  <speed>0.46238512086787564</speed>
  <fix>3d</fix>
</trkpt>
<trkpt lat="40.0728424" lon="-105.2308043">
  <ele>1589.73</ele>
  <time>2026-08-27T18:29:27Z</time>
  <course>245.56</course>
  <speed>0.44</speed>
  <fix>3d</fix>
</trkpt>
<trkpt lat="40.0728423" lon="-105.2308052">
  <ele>1589.96</ele>
  <time>2026-08-27T18:29:27Z</time>
  <course>56.7</course>
  <speed>0.46238512086787564</speed>
  <fix>3d</fix>
</trkpt>
<trkpt lat="40.072842" lon="-105.230806">
  <ele>1590.08</ele>
  <time>2026-08-27T18:29:27Z</time>
  <course>56.87</course>
  <speed>0.46238512086787564</speed>
  <fix>3d</fix>
</trkpt>
<trkpt lat="40.072842" lon="-105.2308053">
  <ele>1589.86</ele>
  <time>2026-08-27T18:29:27Z</time>
  <course>245.86</course>
  <speed>0.44</speed>
  <fix>3d</fix>
</trkpt>
<trkpt lat="40.0728419" lon="-105.2308062">
  <ele>1590.09</ele>
  <time>2026-08-27T18:29:27Z</time>
  <course>56.9</course>
  <speed>0.45310043036836767</speed>
  <fix>3d</fix>
</trkpt>
<trkpt lat="40.0728417" lon="-105.230807">
  <ele>1590.2</ele>
  <time>2026-08-27T18:29:27Z</time>
  <course>57.07</course>
  <speed>0.44944410108488464</speed>
  <fix>3d</fix>
</trkpt>
<trkpt lat="40.0728417" lon="-105.2308062">
  <ele>1589.98</ele>
  <time>2026-08-27T18:29:27Z</time>
  <course>246.21</course>
  <speed>0.44</speed>
  <fix>3d</fix>
</trkpt>
<trkpt lat="40.0728417" lon="-105.230807">
  <ele>1590.2</ele>
  <time>2026-08-27T18:29:27Z</time>
  <course>57.07</course>
  <speed>0.44944410108488464</speed>
  <fix>3d</fix>
</trkpt>
<trkpt lat="40.0728413" lon="-105.2308079">
  <ele>1590.32</ele>
  <time>2026-08-27T18:29:27Z</time>
  <course>57.25</course>
  <speed>0.44944410108488464</speed>
  <fix>3d</fix>
</trkpt>
<trkpt lat="40.0728414" lon="-105.2308072">
  <ele>1590.11</ele>
  <time>2026-08-27T18:29:27Z</time>
  <course>246.6</course>
  <speed>0.44</speed>
  <fix>3d</fix>
</trkpt>
<trkpt lat="40.0728413" lon="-105.2308081">
  <ele>1590.34</ele>
  <time>2026-08-27T18:29:27Z</time>
  <course>57.28</course>
  <speed>0.44944410108488464</speed>
  <fix>3d</fix>
</trkpt>
<trkpt lat="40.072841" lon="-105.2308088">
  <ele>1590.45</ele>
  <time>2026-08-27T18:29:27Z</time>
  <course>57.41</course>
  <speed>0.44944410108488464</speed>
  <fix>3d</fix>
</trkpt>
<trkpt lat="40.0728411" lon="-105.2308081">
  <ele>1590.23</ele>
  <time>2026-08-27T18:29:27Z</time>
  <course>246.92</course>
  <speed>0.44</speed>
  <fix>3d</fix>
</trkpt>
<trkpt lat="40.072841" lon="-105.230809">
  <ele>1590.47</ele>
  <time>2026-08-27T18:29:27Z</time>
  <course>57.43</course>
  <speed>0.44944410108488464</speed>
  <fix>3d</fix>
</trkpt>
<trkpt lat="40.0728407" lon="-105.2308098">
  <ele>1590.58</ele>
  <time>2026-08-27T18:29:27Z</time>
  <course>57.58</course>
  <speed>0.44944410108488464</speed>
  <fix>3d</fix>
</trkpt>
<trkpt lat="40.0728408" lon="-105.230809">
  <ele>1590.36</ele>
  <time>2026-08-27T18:29:27Z</time>
  <course>247.24</course>
  <speed>0.44</speed>
  <fix>3d</fix>
</trkpt>
<trkpt lat="40.0728407" lon="-105.2308099">
  <ele>1590.59</ele>
  <time>2026-08-27T18:29:27Z</time>
  <course>57.61</course>
  <speed>0.44944410108488464</speed>
  <fix>3d</fix>
</trkpt>
<trkpt lat="40.0728404" lon="-105.2308107">
  <ele>1590.7</ele>
  <time>2026-08-27T18:29:27Z</time>
  <course>57.74</course>
  <speed>0.44944410108488464</speed>
  <fix>3d</fix>
</trkpt>
<trkpt lat="40.0728405" lon="-105.2308101">
  <ele>1590.48</ele>
  <time>2026-08-27T18:29:27Z</time>
  <course>247.54</course>
  <speed>0.44</speed>
  <fix>3d</fix>
</trkpt>
<trkpt lat="40.0728404" lon="-105.2308109">
  <ele>1590.72</ele>
  <time>2026-08-27T18:29:27Z</time>
  <course>57.76</course>
  <speed>0.44944410108488464</speed>
  <fix>3d</fix>
</trkpt>
<trkpt lat="40.0728401" lon="-105.2308117">
  <ele>1590.82</ele>
  <time>2026-08-27T18:29:27Z</time>
  <course>57.88</course>
  <speed>0.44944410108488464</speed>
  <fix>3d</fix>
</trkpt>
<trkpt lat="40.0728401" lon="-105.2308111">
  <ele>1590.6</ele>
  <time>2026-08-27T18:29:27Z</time>
  <course>247.8</course>
  <speed>0.44</speed>
  <fix>3d</fix>
</trkpt>
<trkpt lat="40.07284" lon="-105.2308118">
  <ele>1590.84</ele>
  <time>2026-08-27T18:29:27Z</time>
  <course>57.9</course>
  <speed>0.44944410108488464</speed>
  <fix>3d</fix>
</trkpt>
<trkpt lat="40.0728398" lon="-105.2308127">
  <ele>1590.94</ele>
  <time>2026-08-27T18:29:27Z</time>
  <course>58.01</course>
  <speed>0.44944410108488464</speed>
  <fix>3d</fix>
</trkpt>
<trkpt lat="40.0728398" lon="-105.230812">
  <ele>1590.73</ele>
  <time>2026-08-27T18:29:27Z</time>
  <course>248.05</course>
  <speed>0.44</speed>
  <fix>3d</fix>
</trkpt>
<trkpt lat="40.0728398" lon="-105.2308127">
  <ele>1590.94</ele>
  <time>2026-08-27T18:29:27Z</time>
  <course>58.01</course>
  <speed>0.44944410108488464</speed>
  <fix>3d</fix>
</trkpt>
<trkpt lat="40.0728395" lon="-105.2308136">
  <ele>1591.07</ele>
  <time>2026-08-27T18:29:27Z</time>
  <course>58.15</course>
  <speed>0.4459820624195552</speed>
  <fix>3d</fix>
</trkpt>
<trkpt lat="40.0728395" lon="-105.230813">
  <ele>1590.85</ele>
  <time>2026-08-27T18:29:27Z</time>
  <course>248.27</course>
  <speed>0.44</speed>
  <fix>3d</fix>
</trkpt>
<trkpt lat="40.0728394" lon="-105.2308138">
  <ele>1591.08</ele>
  <time>2026-08-27T18:29:27Z</time>
  <course>58.16</course>
  <speed>0.4459820624195552</speed>
  <fix>3d</fix>
</trkpt>
<trkpt lat="40.0728392" lon="-105.2308146">
  <ele>1591.19</ele>
  <time>2026-08-27T18:29:27Z</time>
  <course>58.25</course>
  <speed>0.4459820624195552</speed>
  <fix>3d</fix>
</trkpt>
<trkpt lat="40.0728392" lon="-105.230814">
  <ele>1590.98</ele>
  <time>2026-08-27T18:29:27Z</time>
  <course>248.51</course>
  <speed>0.44</speed>
  <fix>3d</fix>
</trkpt>
<trkpt lat="40.0728391" lon="-105.2308147">
  <ele>1591.21</ele>
  <time>2026-08-27T18:29:27Z</time>
  <course>58.26</course>
  <speed>0.4459820624195552</speed>
  <fix>3d</fix>
</trkpt>
<trkpt lat="40.0728389" lon="-105.2308156">
  <ele>1591.32</ele>
  <time>2026-08-27T18:29:27Z</time>
  <course>58.38</course>
  <speed>0.4459820624195552</speed>
  <fix>3d</fix>
</trkpt>
<trkpt lat="40.072839" lon="-105.2308149">
  <ele>1591.1</ele>
  <time>2026-08-27T18:29:27Z</time>
  <course>248.79</course>
  <speed>0.45</speed>
  <fix>3d</fix>
</trkpt>
<trkpt lat="40.0728389" lon="-105.2308156">
  <ele>1591.32</ele>
  <time>2026-08-27T18:29:27Z</time>
  <course>58.38</course>
  <speed>0.4459820624195552</speed>
  <fix>3d</fix>
</trkpt>
<trkpt lat="40.0728386" lon="-105.2308165">
  <ele>1591.44</ele>
  <time>2026-08-27T18:29:27Z</time>
  <course>58.54</course>
  <speed>0.4459820624195552</speed>
  <fix>3d</fix>
</trkpt>
<trkpt lat="40.0728387" lon="-105.2308159">
  <ele>1591.23</ele>
  <time>2026-08-27T18:29:27Z</time>
  <course>249.07</course>
  <speed>0.45</speed>
  <fix>3d</fix>
</trkpt>
<trkpt lat="40.0728385" lon="-105.2308167">
  <ele>1591.46</ele>
  <time>2026-08-27T18:29:27Z</time>
  <course>58.56</course>
  <speed>0.4459820624195552</speed>
  <fix>3d</fix>
</trkpt>
<trkpt lat="40.0728383" lon="-105.2308175">
  <ele>1591.57</ele>
  <time>2026-08-27T18:29:27Z</time>
  <course>58.64</course>
  <speed>0.4427188724235731</speed>
  <fix>3d</fix>
</trkpt>
<trkpt lat="40.0728384" lon="-105.230817">
  <ele>1591.36</ele>
  <time>2026-08-27T18:29:27Z</time>
  <course>249.31</course>
  <speed>0.45</speed>
  <fix>3d</fix>
</trkpt>
<trkpt lat="40.0728383" lon="-105.2308177">
  <ele>1591.59</ele>
  <time>2026-08-27T18:29:27Z</time>
  <course>58.66</course>
  <speed>0.4427188724235731</speed>
  <fix>3d</fix>
</trkpt>
<trkpt lat="40.072838" lon="-105.2308185">
  <ele>1591.7</ele>
  <time>2026-08-27T18:29:27Z</time>
  <course>58.77</course>
  <speed>0.4427188724235731</speed>
  <fix>3d</fix>
</trkpt>
<trkpt lat="40.0728381" lon="-105.2308179">
  <ele>1591.49</ele>
  <time>2026-08-27T18:29:27Z</time>
  <course>249.52</course>
  <speed>0.45</speed>
  <fix>3d</fix>
</trkpt>
<trkpt lat="40.072838" lon="-105.2308185">
  <ele>1591.7</ele>
  <time>2026-08-27T18:29:27Z</time>
  <course>58.77</course>
  <speed>0.4427188724235731</speed>
  <fix>3d</fix>
</trkpt>
<trkpt lat="40.0728377" lon="-105.2308195">
  <ele>1591.82</ele>
  <time>2026-08-27T18:29:27Z</time>
  <course>58.89</course>
  <speed>0.4427188724235731</speed>
  <fix>3d</fix>
</trkpt>
<trkpt lat="40.0728378" lon="-105.2308189">
  <ele>1591.61</ele>
  <time>2026-08-27T18:29:27Z</time>
  <course>249.74</course>
  <speed>0.45</speed>
  <fix>3d</fix>
</trkpt>
<trkpt lat="40.0728377" lon="-105.2308196">
  <ele>1591.84</ele>
  <time>2026-08-27T18:29:27Z</time>
  <course>58.91</course>
  <speed>0.4427188724235731</speed>
  <fix>3d</fix>
</trkpt>
<trkpt lat="40.0728375" lon="-105.2308205">
  <ele>1591.94</ele>
  <time>2026-08-27T18:29:27Z</time>
  <course>58.98</course>
  <speed>0.4427188724235731</speed>
  <fix>3d</fix>
</trkpt>
<trkpt lat="40.0728375" lon="-105.2308199">
  <ele>1591.74</ele>
  <time>2026-08-27T18:29:27Z</time>
  <course>249.95</course>
  <speed>0.45</speed>
  <fix>3d</fix>
</trkpt>
<trkpt lat="40.0728375" lon="-105.2308205">
  <ele>1591.94</ele>
  <time>2026-08-27T18:29:27Z</time>
  <course>58.98</course>
  <speed>0.4427188724235731</speed>
  <fix>3d</fix>
</trkpt>
<trkpt lat="40.0728372" lon="-105.2308215">
  <ele>1592.07</ele>
  <time>2026-08-27T18:29:27Z</time>
  <course>59.1</course>
  <speed>0.4427188724235731</speed>
  <fix>3d</fix>
</trkpt>
<trkpt lat="40.0728372" lon="-105.2308209">
  <ele>1591.87</ele>
  <time>2026-08-27T18:29:27Z</time>
  <course>250.14</course>
  <speed>0.45</speed>
  <fix>3d</fix>
</trkpt>
<trkpt lat="40.0728372" lon="-105.2308216">
  <ele>1592.08</ele>
  <time>2026-08-27T18:29:27Z</time>
  <course>59.12</course>
  <speed>0.4427188724235731</speed>
  <fix>3d</fix>
</trkpt>
<trkpt lat="40.0728369" lon="-105.2308225">
  <ele>1592.19</ele>
  <time>2026-08-27T18:29:27Z</time>
  <course>59.21</course>
  <speed>0.43965895873961214</speed>
  <fix>3d</fix>
</trkpt>
<trkpt lat="40.072837" lon="-105.2308219">
  <ele>1591.99</ele>
  <time>2026-08-27T18:29:27Z</time>
  <course>250.32</course>
  <speed>0.45</speed>
  <fix>3d</fix>
</trkpt>
<trkpt lat="40.0728369" lon="-105.2308226">
  <ele>1592.21</ele>
  <time>2026-08-27T18:29:27Z</time>
  <course>59.22</course>
  <speed>0.43965895873961214</speed>
  <fix>3d</fix>
</trkpt>
<trkpt lat="40.0728367" lon="-105.2308235">
  <ele>1592.32</ele>
  <time>2026-08-27T18:29:27Z</time>
  <course>59.31</course>
  <speed>0.43965895873961214</speed>
  <fix>3d</fix>
</trkpt>
<trkpt lat="40.0728367" lon="-105.2308228">
  <ele>1592.12</ele>
  <time>2026-08-27T18:29:27Z</time>
  <course>250.5</course>
  <speed>0.45</speed>
  <fix>3d</fix>
</trkpt>
<trkpt lat="40.0728366" lon="-105.2308236">
  <ele>1592.34</ele>
  <time>2026-08-27T18:29:27Z</time>
  <course>59.33</course>
  <speed>0.4301162633521314</speed>
  <fix>3d</fix>
</trkpt>
<trkpt lat="40.0728364" lon="-105.2308245">
  <ele>1592.45</ele>
  <time>2026-08-27T18:29:27Z</time>
  <course>59.45</course>
  <speed>0.4301162633521314</speed>
  <fix>3d</fix>
</trkpt>
<trkpt lat="40.0728364" lon="-105.2308238">
  <ele>1592.25</ele>
  <time>2026-08-27T18:29:27Z</time>
  <course>250.7</course>
  <speed>0.45</speed>
  <fix>3d</fix>
</trkpt>
<trkpt lat="40.0728364" lon="-105.2308246">
  <ele>1592.47</ele>
  <time>2026-08-27T18:29:27Z</time>
  <course>59.46</course>
  <speed>0.4301162633521314</speed>
  <fix>3d</fix>
</trkpt>
<trkpt lat="40.0728361" lon="-105.2308254">
  <ele>1592.58</ele>
  <time>2026-08-27T18:29:27Z</time>
  <course>59.54</course>
  <speed>0.4301162633521314</speed>
  <fix>3d</fix>
</trkpt>
<trkpt lat="40.0728362" lon="-105.2308248">
  <ele>1592.38</ele>
  <time>2026-08-27T18:29:27Z</time>
  <course>250.85</course>
  <speed>0.45</speed>
  <fix>3d</fix>
</trkpt>
<trkpt lat="40.0728361" lon="-105.2308255">
  <ele>1592.58</ele>
  <time>2026-08-27T18:29:27Z</time>
  <course>59.54</course>
  <speed>0.4301162633521314</speed>
  <fix>3d</fix>
</trkpt>
<trkpt lat="40.0728359" lon="-105.2308264">
  <ele>1592.71</ele>
  <time>2026-08-27T18:29:27Z</time>
  <course>59.65</course>
  <speed>0.42720018726587655</speed>
  <fix>3d</fix>
</trkpt>
<trkpt lat="40.0728359" lon="-105.2308259">
  <ele>1592.51</ele>
  <time>2026-08-27T18:29:27Z</time>
  <course>250.95</course>
  <speed>0.45</speed>
  <fix>3d</fix>
</trkpt>
<trkpt lat="40.0728358" lon="-105.2308266">
  <ele>1592.73</ele>
  <time>2026-08-27T18:29:27Z</time>
  <course>59.66</course>
  <speed>0.42720018726587655</speed>
  <fix>3d</fix>
</trkpt>
<trkpt lat="40.0728356" lon="-105.2308274">
  <ele>1592.84</ele>
  <time>2026-08-27T18:29:27Z</time>
  <course>59.77</course>
  <speed>0.42720018726587655</speed>
  <fix>3d</fix>
</trkpt>
<trkpt lat="40.0728357" lon="-105.2308269">
  <ele>1592.63</ele>
  <time>2026-08-27T18:29:27Z</time>
  <course>251.06</course>
  <speed>0.45</speed>
  <fix>3d</fix>
</trkpt>
<trkpt lat="40.0728356" lon="-105.2308276">
  <ele>1592.85</ele>
  <time>2026-08-27T18:29:27Z</time>
  <course>59.78</course>
  <speed>0.42720018726587655</speed>
  <fix>3d</fix>
</trkpt>
<trkpt lat="40.0728354" lon="-105.2308284">
  <ele>1592.96</ele>
  <time>2026-08-27T18:29:27Z</time>
  <course>59.87</course>
  <speed>0.42720018726587655</speed>
  <fix>3d</fix>
</trkpt>
<trkpt lat="40.0728354" lon="-105.2308279">
  <ele>1592.76</ele>
  <time>2026-08-27T18:29:27Z</time>
  <course>251.17</course>
  <speed>0.44</speed>
  <fix>3d</fix>
</trkpt>
<trkpt lat="40.0728353" lon="-105.2308286">
  <ele>1592.98</ele>
  <time>2026-08-27T18:29:27Z</time>
  <course>59.88</course>
  <speed>0.42720018726587655</speed>
  <fix>3d</fix>
</trkpt>
<trkpt lat="40.0728351" lon="-105.2308294">
  <ele>1593.09</ele>
  <time>2026-08-27T18:29:27Z</time>
  <course>59.96</course>
  <speed>0.42720018726587655</speed>
  <fix>3d</fix>
</trkpt>
<trkpt lat="40.0728351" lon="-105.2308288">
  <ele>1592.88</ele>
  <time>2026-08-27T18:29:27Z</time>
  <course>251.27</course>
  <speed>0.44</speed>
  <fix>3d</fix>
</trkpt>
<trkpt lat="40.0728351" lon="-105.2308296">
  <ele>1593.11</ele>
  <time>2026-08-27T18:29:27Z</time>
  <course>59.98</course>
  <speed>0.42720018726587655</speed>
  <fix>3d</fix>
</trkpt>
<trkpt lat="40.0728349" lon="-105.2308304">
  <ele>1593.21</ele>
  <time>2026-08-27T18:29:27Z</time>
  <course>60.05</course>
  <speed>0.42720018726587655</speed>
  <fix>3d</fix>
</trkpt>
<trkpt lat="40.0728348" lon="-105.2308299">
  <ele>1593.01</ele>
  <time>2026-08-27T18:29:27Z</time>
  <course>251.36</course>
  <speed>0.44</speed>
  <fix>3d</fix>
</trkpt>
<trkpt lat="40.0728349" lon="-105.2308304">
  <ele>1593.21</ele>
  <time>2026-08-27T18:29:27Z</time>
  <course>60.05</course>
  <speed>0.42720018726587655</speed>
  <fix>3d</fix>
</trkpt>
<trkpt lat="40.0728346" lon="-105.2308314">
  <ele>1593.34</ele>
  <time>2026-08-27T18:29:27Z</time>
  <course>60.11</course>
  <speed>0.42720018726587655</speed>
  <fix>3d</fix>
</trkpt>
<trkpt lat="40.0728346" lon="-105.2308309">
  <ele>1593.13</ele>
  <time>2026-08-27T18:29:27Z</time>
  <course>251.42</course>
  <speed>0.44</speed>
  <fix>3d</fix>
</trkpt>
<trkpt lat="40.0728346" lon="-105.2308316">
  <ele>1593.36</ele>
  <time>2026-08-27T18:29:27Z</time>
  <course>60.13</course>
  <speed>0.42449970553582245</speed>
  <fix>3d</fix>
</trkpt>
<trkpt lat="40.0728344" lon="-105.2308324">
  <ele>1593.47</ele>
  <time>2026-08-27T18:29:27Z</time>
  <course>60.22</course>
  <speed>0.42449970553582245</speed>
  <fix>3d</fix>
</trkpt>
<trkpt lat="40.0728344" lon="-105.2308319">
  <ele>1593.26</ele>
  <time>2026-08-27T18:29:27Z</time>
  <course>251.51</course>
  <speed>0.44</speed>
  <fix>3d</fix>
</trkpt>
<trkpt lat="40.0728343" lon="-105.2308326">
  <ele>1593.49</ele>
  <time>2026-08-27T18:29:27Z</time>
  <course>60.24</course>
  <speed>0.42449970553582245</speed>
  <fix>3d</fix>
</trkpt>
<trkpt lat="40.0728341" lon="-105.2308334">
  <ele>1593.59</ele>
  <time>2026-08-27T18:29:27Z</time>
  <course>60.3</course>
  <speed>0.41484937025383084</speed>
  <fix>3d</fix>
</trkpt>
<trkpt lat="40.0728341" lon="-105.2308329">
  <ele>1593.38</ele>
  <time>2026-08-27T18:29:27Z</time>
  <course>251.58</course>
  <speed>0.44</speed>
  <fix>3d</fix>
</trkpt>
<trkpt lat="40.0728341" lon="-105.2308336">
  <ele>1593.61</ele>
  <time>2026-08-27T18:29:27Z</time>
  <course>60.31</course>
  <speed>0.41484937025383084</speed>
  <fix>3d</fix>
</trkpt>
<trkpt lat="40.0728339" lon="-105.2308344">
  <ele>1593.71</ele>
  <time>2026-08-27T18:29:27Z</time>
  <course>60.4</course>
  <speed>0.41484937025383084</speed>
  <fix>3d</fix>
</trkpt>
<trkpt lat="40.0728339" lon="-105.2308338">
  <ele>1593.51</ele>
  <time>2026-08-27T18:29:27Z</time>
  <course>251.62</course>
  <speed>0.44</speed>
  <fix>3d</fix>
</trkpt>
<trkpt lat="40.0728338" lon="-105.2308345">
  <ele>1593.74</ele>
  <time>2026-08-27T18:29:27Z</time>
  <course>60.41</course>
  <speed>0.41484937025383084</speed>
  <fix>3d</fix>
</trkpt>
<trkpt lat="40.0728336" lon="-105.2308353">
  <ele>1593.84</ele>
  <time>2026-08-27T18:29:27Z</time>
  <course>60.47</course>
  <speed>0.41484937025383084</speed>
  <fix>3d</fix>
</trkpt>
<trkpt lat="40.0728336" lon="-105.2308348">
  <ele>1593.63</ele>
  <time>2026-08-27T18:29:27Z</time>
  <course>251.68</course>
  <speed>0.44</speed>
  <fix>3d</fix>
</trkpt>
<trkpt lat="40.0728336" lon="-105.2308355">
  <ele>1593.87</ele>
  <time>2026-08-27T18:29:27Z</time>
  <course>60.5</course>
  <speed>0.41484937025383084</speed>
  <fix>3d</fix>
</trkpt>
<trkpt lat="40.0728334" lon="-105.2308363">
  <ele>1593.97</ele>
  <time>2026-08-27T18:29:27Z</time>
  <course>60.55</course>
  <speed>0.41484937025383084</speed>
  <fix>3d</fix>
</trkpt>
<trkpt lat="40.0728334" lon="-105.2308358">
  <ele>1593.76</ele>
  <time>2026-08-27T18:29:27Z</time>
  <course>251.71</course>
  <speed>0.44</speed>
  <fix>3d</fix>
</trkpt>
<trkpt lat="40.0728334" lon="-105.2308363">
  <ele>1593.98</ele>
  <time>2026-08-27T18:29:27Z</time>
  <course>60.56</course>
  <speed>0.41484937025383084</speed>
  <fix>3d</fix>
</trkpt>
<trkpt lat="40.0728332" lon="-105.2308373">
  <ele>1594.1</ele>
  <time>2026-08-27T18:29:27Z</time>
  <course>60.63</course>
  <speed>0.41484937025383084</speed>
  <fix>3d</fix>
</trkpt>
<trkpt lat="40.0728331" lon="-105.2308368">
  <ele>1593.88</ele>
  <time>2026-08-27T18:29:27Z</time>
  <course>251.74</course>
  <speed>0.43</speed>
  <fix>3d</fix>
</trkpt>
<trkpt lat="40.0728331" lon="-105.2308375">
  <ele>1594.13</ele>
  <time>2026-08-27T18:29:27Z</time>
  <course>60.65</course>
  <speed>0.41484937025383084</speed>
  <fix>3d</fix>
</trkpt>
<trkpt lat="40.0728329" lon="-105.2308382">
  <ele>1594.23</ele>
  <time>2026-08-27T18:29:27Z</time>
  <course>60.71</course>
  <speed>0.41231056256176607</speed>
  <fix>3d</fix>
</trkpt>
<trkpt lat="40.0728328" lon="-105.2308377">
  <ele>1594.01</ele>
  <time>2026-08-27T18:29:27Z</time>
  <course>251.8</course>
  <speed>0.43</speed>
  <fix>3d</fix>
</trkpt>
<trkpt lat="40.0728329" lon="-105.2308384">
  <ele>1594.25</ele>
  <time>2026-08-27T18:29:27Z</time>
  <course>60.73</course>
  <speed>0.41231056256176607</speed>
  <fix>3d</fix>
</trkpt>
<trkpt lat="40.0728327" lon="-105.2308392">
  <ele>1594.35</ele>
  <time>2026-08-27T18:29:27Z</time>
  <course>60.78</course>
  <speed>0.4026164427839479</speed>
  <fix>3d</fix>
</trkpt>
<trkpt lat="40.0728326" lon="-105.2308388">
  <ele>1594.13</ele>
  <time>2026-08-27T18:29:27Z</time>
  <course>251.89</course>
  <speed>0.43</speed>
  <fix>3d</fix>
</trkpt>
<trkpt lat="40.0728326" lon="-105.2308394">
  <ele>1594.38</ele>
  <time>2026-08-27T18:29:27Z</time>
  <course>60.8</course>
  <speed>0.4026164427839479</speed>
  <fix>3d</fix>
</trkpt>
<trkpt lat="40.0728324" lon="-105.2308402">
  <ele>1594.48</ele>
  <time>2026-08-27T18:29:27Z</time>
  <course>60.86</course>
  <speed>0.4026164427839479</speed>
  <fix>3d</fix>
</trkpt>
<trkpt lat="40.0728323" lon="-105.2308397">
  <ele>1594.26</ele>
  <time>2026-08-27T18:29:27Z</time>
  <course>251.99</course>
  <speed>0.43</speed>
  <fix>3d</fix>
</trkpt>
<trkpt lat="40.0728324" lon="-105.2308402">
  <ele>1594.48</ele>
  <time>2026-08-27T18:29:27Z</time>
  <course>60.86</course>
  <speed>0.4026164427839479</speed>
  <fix>3d</fix>
</trkpt>
<trkpt lat="40.0728322" lon="-105.2308411">
  <ele>1594.6</ele>
  <time>2026-08-27T18:29:27Z</time>
  <course>60.93</course>
  <speed>0.4026164427839479</speed>
  <fix>3d</fix>
</trkpt>
<trkpt lat="40.0728322" lon="-105.2308406">
  <ele>1594.38</ele>
  <time>2026-08-27T18:29:27Z</time>
  <course>252.08</course>
  <speed>0.42</speed>
  <fix>3d</fix>
</trkpt>
<trkpt lat="40.0728321" lon="-105.2308413">
  <ele>1594.62</ele>
  <time>2026-08-27T18:29:27Z</time>
  <course>60.94</course>
  <speed>0.4026164427839479</speed>
  <fix>3d</fix>
</trkpt>
<trkpt lat="40.072832" lon="-105.2308421">
  <ele>1594.72</ele>
  <time>2026-08-27T18:29:27Z</time>
  <course>61.0</course>
  <speed>0.4026164427839479</speed>
  <fix>3d</fix>
</trkpt>
<trkpt lat="40.0728319" lon="-105.2308417">
  <ele>1594.51</ele>
  <time>2026-08-27T18:29:27Z</time>
  <course>252.18</course>
  <speed>0.42</speed>
  <fix>3d</fix>
</trkpt>
<trkpt lat="40.072832" lon="-105.2308421">
  <ele>1594.73</ele>
  <time>2026-08-27T18:29:27Z</time>
  <course>61.0</course>
  <speed>0.4026164427839479</speed>
  <fix>3d</fix>
</trkpt>
<trkpt lat="40.0728317" lon="-105.230843">
  <ele>1594.84</ele>
  <time>2026-08-27T18:29:27Z</time>
  <course>61.07</course>
  <speed>0.39293765408777</speed>
  <fix>3d</fix>
</trkpt>
<trkpt lat="40.0728316" lon="-105.2308426">
  <ele>1594.62</ele>
  <time>2026-08-27T18:29:27Z</time>
  <course>252.27</course>
  <speed>0.42</speed>
  <fix>3d</fix>
</trkpt>
<trkpt lat="40.0728317" lon="-105.2308432">
  <ele>1594.87</ele>
  <time>2026-08-27T18:29:27Z</time>
  <course>61.08</course>
  <speed>0.39293765408777</speed>
  <fix>3d</fix>
</trkpt>
<trkpt lat="40.0728315" lon="-105.230844">
  <ele>1594.96</ele>
  <time>2026-08-27T18:29:27Z</time>
  <course>61.12</course>
  <speed>0.3905124837953327</speed>
  <fix>3d</fix>
</trkpt>
<trkpt lat="40.0728315" lon="-105.2308436">
  <ele>1594.75</ele>
  <time>2026-08-27T18:29:27Z</time>
  <course>252.35</course>
  <speed>0.42</speed>
  <fix>3d</fix>
</trkpt>
<trkpt lat="40.0728315" lon="-105.2308441">
  <ele>1594.99</ele>
  <time>2026-08-27T18:29:27Z</time>
  <course>61.12</course>
  <speed>0.3905124837953327</speed>
  <fix>3d</fix>
</trkpt>
<trkpt lat="40.0728313" lon="-105.2308449">
  <ele>1595.09</ele>
  <time>2026-08-27T18:29:27Z</time>
  <course>61.17</course>
  <speed>0.3905124837953327</speed>
  <fix>3d</fix>
</trkpt>
<trkpt lat="40.0728312" lon="-105.2308445">
  <ele>1594.87</ele>
  <time>2026-08-27T18:29:27Z</time>
  <course>252.41</course>
  <speed>0.42</speed>
  <fix>3d</fix>
</trkpt>
<trkpt lat="40.0728311" lon="-105.2308459">
  <ele>1595.21</ele>
  <time>2026-08-27T18:29:27Z</time>
  <course>61.48</course>
  <speed>0.3905124837953327</speed>
  <fix>3d</fix>
</trkpt>
<trkpt lat="40.0728309" lon="-105.2308454">
  <ele>1595.0</ele>
  <time>2026-08-27T18:29:27Z</time>
  <course>252.61</course>
  <speed>0.41</speed>
  <fix>3d</fix>
</trkpt>
<trkpt lat="40.0728308" lon="-105.2308468">
  <ele>1595.3</ele>
  <time>2026-08-27T18:29:27Z</time>
  <course>62.13</course>
  <speed>0.3905124837953327</speed>
  <fix>3d</fix>
</trkpt>
<trkpt lat="40.0728308" lon="-105.2308463">
  <ele>1595.11</ele>
  <time>2026-08-27T18:29:27Z</time>
  <course>252.9</course>
  <speed>0.41</speed>
  <fix>3d</fix>
</trkpt>
<trkpt lat="40.0728306" lon="-105.2308477">
  <ele>1595.37</ele>
  <time>2026-08-27T18:29:27Z</time>
  <course>62.5</course>
  <speed>0.38078865529319544</speed>
  <fix>3d</fix>
</trkpt>
<trkpt lat="40.0728305" lon="-105.2308473">
  <ele>1595.2</ele>
  <time>2026-08-27T18:29:27Z</time>
  <course>252.86</course>
  <speed>0.41</speed>
  <fix>3d</fix>
</trkpt>
<trkpt lat="40.0728304" lon="-105.2308486">
  <ele>1595.41</ele>
  <time>2026-08-27T18:29:27Z</time>
  <course>62.04</course>
  <speed>0.37107950630558945</speed>
  <fix>3d</fix>
</trkpt>
<trkpt lat="40.0728303" lon="-105.2308482">
  <ele>1595.26</ele>
  <time>2026-08-27T18:29:27Z</time>
  <course>252.21</course>
  <speed>0.4</speed>
  <fix>3d</fix>
</trkpt>
<trkpt lat="40.0728302" lon="-105.2308495">
  <ele>1595.43</ele>
  <time>2026-08-27T18:29:27Z</time>
  <course>61.54</course>
  <speed>0.3736308338453881</speed>
  <fix>3d</fix>
</trkpt>
<trkpt lat="40.0728301" lon="-105.2308491">
  <ele>1595.29</ele>
  <time>2026-08-27T18:29:27Z</time>
  <course>251.45</course>
  <speed>0.4</speed>
  <fix>3d</fix>
</trkpt>
<trkpt lat="40.0728299" lon="-105.2308504">
  <ele>1595.45</ele>
  <time>2026-08-27T18:29:27Z</time>
  <course>61.33</course>
  <speed>0.3640054944640259</speed>
  <fix>3d</fix>
</trkpt>
<trkpt lat="40.0728299" lon="-105.23085">
  <ele>1595.32</ele>
  <time>2026-08-27T18:29:27Z</time>
  <course>250.85</course>
  <speed>0.39</speed>
  <fix>3d</fix>
</trkpt>
<trkpt lat="40.0728297" lon="-105.2308512">
  <ele>1595.46</ele>
  <time>2026-08-27T18:29:27Z</time>
  <course>61.25</course>
  <speed>0.354400902933387</speed>
  <fix>3d</fix>
</trkpt>
<trkpt lat="40.0728296" lon="-105.2308508">
  <ele>1595.34</ele>
  <time>2026-08-27T18:29:27Z</time>
  <course>250.11</course>
  <speed>0.38</speed>
  <fix>3d</fix>
</trkpt>
<trkpt lat="40.0728295" lon="-105.2308521">
  <ele>1595.46</ele>
  <time>2026-08-27T18:29:27Z</time>
  <course>61.23</course>
  <speed>0.34481879299133333</speed>
  <fix>3d</fix>
</trkpt>
<trkpt lat="40.0728293" lon="-105.2308517">
  <ele>1595.35</ele>
  <time>2026-08-27T18:29:27Z</time>
  <course>249.33</course>
  <speed>0.38</speed>
  <fix>3d</fix>
</trkpt>
<trkpt lat="40.0728292" lon="-105.2308529">
  <ele>1595.47</ele>
  <time>2026-08-27T18:29:27Z</time>
  <course>61.25</course>
  <speed>0.3478505426185217</speed>
  <fix>3d</fix>
</trkpt>
<trkpt lat="40.0728292" lon="-105.2308525">
  <ele>1595.36</ele>
  <time>2026-08-27T18:29:27Z</time>
  <course>248.58</course>
  <speed>0.37</speed>
  <fix>3d</fix>
</trkpt>
<trkpt lat="40.072829" lon="-105.2308537">
  <ele>1595.48</ele>
  <time>2026-08-27T18:29:27Z</time>
  <course>61.25</course>
  <speed>0.33837848631377265</speed>
  <fix>3d</fix>
</trkpt>
<trkpt lat="40.0728289" lon="-105.2308534">
  <ele>1595.36</ele>
  <time>2026-08-27T18:29:27Z</time>
  <course>247.79</course>
  <speed>0.37</speed>
  <fix>3d</fix>
</trkpt>
<trkpt lat="40.0728287" lon="-105.2308545">
  <ele>1595.48</ele>
  <time>2026-08-27T18:29:27Z</time>
  <course>61.29</course>
  <speed>0.3289376840679705</speed>
  <fix>3d</fix>
</trkpt>
<trkpt lat="40.0728286" lon="-105.2308542">
  <ele>1595.37</ele>
  <time>2026-08-27T18:29:27Z</time>
  <course>247.02</course>
  <speed>0.36</speed>
  <fix>3d</fix>
</trkpt>
<trkpt lat="40.0728284" lon="-105.2308553">
  <ele>1595.49</ele>
  <time>2026-08-27T18:29:27Z</time>
  <course>61.32</course>
  <speed>0.3289376840679705</speed>
  <fix>3d</fix>
</trkpt>
<trkpt lat="40.0728284" lon="-105.2308549">
  <ele>1595.38</ele>
  <time>2026-08-27T18:29:27Z</time>
  <course>246.32</course>
  <speed>0.36</speed>
  <fix>3d</fix>
</trkpt>
<trkpt lat="40.0728282" lon="-105.230856">
  <ele>1595.49</ele>
  <time>2026-08-27T18:29:27Z</time>
  <course>61.35</course>
  <speed>0.3231098884280702</speed>
  <fix>3d</fix>
</trkpt>
<trkpt lat="40.0728281" lon="-105.2308557">
  <ele>1595.38</ele>
  <time>2026-08-27T18:29:27Z</time>
  <course>245.66</course>
  <speed>0.35</speed>
  <fix>3d</fix>
</trkpt>
<trkpt lat="40.0728279" lon="-105.2308568">
  <ele>1595.49</ele>
  <time>2026-08-27T18:29:27Z</time>
  <course>61.37</course>
  <speed>0.3231098884280702</speed>
  <fix>3d</fix>
</trkpt>
<trkpt lat="40.0728279" lon="-105.2308564">
  <ele>1595.39</ele>
  <time>2026-08-27T18:29:27Z</time>
  <course>245.02</course>
  <speed>0.35</speed>
  <fix>3d</fix>
</trkpt>
<trkpt lat="40.0728277" lon="-105.2308575">
  <ele>1595.49</ele>
  <time>2026-08-27T18:29:27Z</time>
  <course>61.39</course>
  <speed>0.3138470965295043</speed>
  <fix>3d</fix>
</trkpt>
<trkpt lat="40.0728276" lon="-105.2308572">
  <ele>1595.39</ele>
  <time>2026-08-27T18:29:27Z</time>
  <course>244.4</course>
  <speed>0.34</speed>
  <fix>3d</fix>
</trkpt>
<trkpt lat="40.0728274" lon="-105.2308582">
  <ele>1595.49</ele>
  <time>2026-08-27T18:29:27Z</time>
  <course>61.41</course>
  <speed>0.30463092423455634</speed>
  <fix>3d</fix>
</trkpt>
<trkpt lat="40.0728273" lon="-105.2308579">
  <ele>1595.39</ele>
  <time>2026-08-27T18:29:27Z</time>
  <course>243.75</course>
  <speed>0.34</speed>
  <fix>3d</fix>
</trkpt>
<trkpt lat="40.0728271" lon="-105.2308589">
  <ele>1595.48</ele>
  <time>2026-08-27T18:29:27Z</time>
  <course>61.42</course>
  <speed>0.30463092423455634</speed>
  <fix>3d</fix>
</trkpt>
<trkpt lat="40.072827" lon="-105.2308586">
  <ele>1595.39</ele>
  <time>2026-08-27T18:29:27Z</time>
  <course>243.09</course>
  <speed>0.33</speed>
  <fix>3d</fix>
</trkpt>
<trkpt lat="40.0728268" lon="-105.2308596">
  <ele>1595.48</ele>
  <time>2026-08-27T18:29:27Z</time>
  <course>61.43</course>
  <speed>0.29546573405388316</speed>
  <fix>3d</fix>
</trkpt>
<trkpt lat="40.0728268" lon="-105.2308593">
  <ele>1595.39</ele>
  <time>2026-08-27T18:29:27Z</time>
  <course>242.43</course>
  <speed>0.33</speed>
  <fix>3d</fix>
</trkpt>
<trkpt lat="40.0728266" lon="-105.2308603">
  <ele>1595.48</ele>
  <time>2026-08-27T18:29:27Z</time>
  <course>61.44</course>
  <speed>0.29546573405388316</speed>
  <fix>3d</fix>
</trkpt>
<trkpt lat="40.0728265" lon="-105.23086">
  <ele>1595.4</ele>
  <time>2026-08-27T18:29:27Z</time>
  <course>241.85</course>
  <speed>0.32</speed>
  <fix>3d</fix>
</trkpt>
<trkpt lat="40.0728263" lon="-105.2308609">
  <ele>1595.47</ele>
  <time>2026-08-27T18:29:27Z</time>
  <course>61.46</course>
  <speed>0.2823118842698621</speed>
  <fix>3d</fix>
</trkpt>
<trkpt lat="40.0728262" lon="-105.2308607">
  <ele>1595.4</ele>
  <time>2026-08-27T18:29:27Z</time>
  <course>241.83</course>
  <speed>0.32</speed>
  <fix>3d</fix>
</trkpt>
<trkpt lat="40.0728261" lon="-105.2308616">
  <ele>1595.48</ele>
  <time>2026-08-27T18:29:27Z</time>
  <course>61.44</course>
  <speed>0.2601922366251538</speed>
  <fix>3d</fix>
</trkpt>
<trkpt lat="40.072826" lon="-105.2308614">
  <ele>1595.4</ele>
  <time>2026-08-27T18:29:27Z</time>
  <course>248.01</course>
  <speed>0.3</speed>
  <fix>3d</fix>
</trkpt>
<trkpt lat="40.0728261" lon="-105.2308622">
  <ele>1595.48</ele>
  <time>2026-08-27T18:29:27Z</time>
  <course>61.44</course>
  <speed>0.26570660511172844</speed>
  <fix>3d</fix>
</trkpt>
<trkpt lat="40.0728259" lon="-105.230862">
  <ele>1595.41</ele>
  <time>2026-08-27T18:29:27Z</time>
  <course>266.58</course>
  <speed>0.27</speed>
  <fix>3d</fix>
</trkpt>
<trkpt lat="40.0728262" lon="-105.2308629">
  <ele>1595.49</ele>
  <time>2026-08-27T18:29:27Z</time>
  <course>61.52</course>
  <speed>0.25942243542145693</speed>
  <fix>3d</fix>
</trkpt>
<trkpt lat="40.0728259" lon="-105.2308626">
  <ele>1595.41</ele>
  <time>2026-08-27T18:29:27Z</time>
  <course>285.63</course>
  <speed>0.27</speed>
  <fix>3d</fix>
</trkpt>
<trkpt lat="40.0728263" lon="-105.2308634">
  <ele>1595.49</ele>
  <time>2026-08-27T18:29:27Z</time>
  <course>61.65</course>
  <speed>0.18110770276274835</speed>
  <fix>3d</fix>
</trkpt>
<trkpt lat="40.0728261" lon="-105.2308633">
  <ele>1595.42</ele>
  <time>2026-08-27T18:29:27Z</time>
  <course>286.73</course>
  <speed>0.24</speed>
  <fix>3d</fix>
</trkpt>
<trkpt lat="40.0728261" lon="-105.2308638">
  <ele>1595.49</ele>
  <time>2026-08-27T18:29:27Z</time>
  <course>61.54</course>
  <speed>0.1414213562373095</speed>
  <fix>3d</fix>
</trkpt>
<trkpt lat="40.0728261" lon="-105.2308638">
  <ele>1595.42</ele>
  <time>2026-08-27T18:29:27Z</time>
  <course>260.03</course>
  <speed>0.18</speed>
  <fix>3d</fix>
</trkpt>
<trkpt lat="40.072826" lon="-105.230864">
  <ele>1595.5</ele>
  <time>2026-08-27T18:29:27Z</time>
  <course>61.48</course>
  <speed>0.13601470508735444</speed>
  <fix>3d</fix>
</trkpt>
<trkpt lat="40.0728259" lon="-105.2308641">
  <ele>1595.43</ele>
  <time>2026-08-27T18:29:27Z</time>
  <course>217.86</course>
  <speed>0.16</speed>
  <fix>3d</fix>
</trkpt>
<trkpt lat="40.0728258" lon="-105.2308641">
  <ele>1595.5</ele>
  <time>2026-08-27T18:29:27Z</time>
  <course>61.58</course>
  <speed>0.022360679774997897</speed>
  <fix>3d</fix>
</trkpt>
<trkpt lat="40.0728256" lon="-105.2308643">
  <ele>1595.43</ele>
  <time>2026-08-27T18:29:27Z</time>
  <course>200.61</course>
  <speed>0.13</speed>
  <fix>3d</fix>
</trkpt>
<trkpt lat="40.0728258" lon="-105.2308642">
  <ele>1595.5</ele>
  <time>2026-08-27T18:29:27Z</time>
  <course>61.67</course>
  <speed>0.0854400374531753</speed>
  <fix>3d</fix>
</trkpt>
<trkpt lat="40.0728256" lon="-105.2308644">
  <ele>1595.43</ele>
  <time>2026-08-27T18:29:27Z</time>
  <course>232.34</course>
  <speed>0.04</speed>
  <fix>3d</fix>
</trkpt>
<trkpt lat="40.0728259" lon="-105.2308643">
  <ele>1595.5</ele>
  <time>2026-08-27T18:29:27Z</time>
  <course>61.79</course>
  <speed>0.07615773105863909</speed>
  <fix>3d</fix>
</trkpt>
<trkpt lat="40.0728256" lon="-105.2308644">
  <ele>1595.43</ele>
  <time>2026-08-27T18:29:27Z</time>
  <course>321.66</course>
  <speed>0.06</speed>
  <fix>3d</fix>
</trkpt>
<trkpt lat="40.0728259" lon="-105.2308644">
  <ele>1595.5</ele>
  <time>2026-08-27T18:29:27Z</time>
  <course>61.81</course>
  <speed>0.044721359549995794</speed>
  <fix>3d</fix>
</trkpt>
<trkpt lat="40.0728256" lon="-105.2308645">
  <ele>1595.43</ele>
  <time>2026-08-27T18:29:27Z</time>
  <course>294.64</course>
  <speed>0.04</speed>
  <fix>3d</fix>
</trkpt>
<trkpt lat="40.0728257" lon="-105.2308645">
  <ele>1595.5</ele>
  <time>2026-08-27T18:29:27Z</time>
  <course>61.65</course>
  <speed>0.1</speed>
  <fix>3d</fix>
</trkpt>
<trkpt lat="40.0728256" lon="-105.2308646">
  <ele>1595.43</ele>
  <time>2026-08-27T18:29:27Z</time>
  <course>196.43</course>
  <speed>0.07</speed>
  <fix>3d</fix>
</trkpt>
<trkpt lat="40.0728255" lon="-105.2308645">
  <ele>1595.5</ele>
  <time>2026-08-27T18:29:27Z</time>
  <course>61.65</course>
  <speed>0.03</speed>
  <fix>3d</fix>
</trkpt>
<trkpt lat="40.0728255" lon="-105.2308647">
  <ele>1595.43</ele>
  <time>2026-08-27T18:29:27Z</time>
  <course>180.75</course>
  <speed>0.1</speed>
  <fix>3d</fix>
</trkpt>
<trkpt lat="40.0728255" lon="-105.2308645">
  <ele>1595.5</ele>
  <time>2026-08-27T18:29:27Z</time>
  <course>61.7</course>
  <speed>0.06</speed>
  <fix>3d</fix>
</trkpt>
<trkpt lat="40.0728253" lon="-105.2308647">
  <ele>1595.43</ele>
  <time>2026-08-27T18:29:27Z</time>
  <course>186.17</course>
  <speed>0.03</speed>
  <fix>3d</fix>
</trkpt>
<trkpt lat="40.0728256" lon="-105.2308646">
  <ele>1595.5</ele>
  <time>2026-08-27T18:29:27Z</time>
  <course>61.81</course>
  <speed>0.053851648071345036</speed>
  <fix>3d</fix>
</trkpt>
<trkpt lat="40.0728253" lon="-105.2308647">
  <ele>1595.43</ele>
  <time>2026-08-27T18:29:27Z</time>
  <course>330.53</course>
  <speed>0.04</speed>
  <fix>3d</fix>
</trkpt>
<trkpt lat="40.0728256" lon="-105.2308646">
  <ele>1595.5</ele>
  <time>2026-08-27T18:29:27Z</time>
  <course>61.81</course>
  <speed>0.05099019513592785</speed>
  <fix>3d</fix>
</trkpt>
<trkpt lat="40.0728254" lon="-105.2308647">
  <ele>1595.43</ele>
  <time>2026-08-27T18:29:27Z</time>
  <course>277.59</course>
  <speed>0.02</speed>
  <fix>3d</fix>
</trkpt>
<trkpt lat="40.0728254" lon="-105.2308646">
  <ele>1595.51</ele>
  <time>2026-08-27T18:29:28Z</time>
  <course>61.66</course>
  <speed>0.08</speed>
  <fix>3d</fix>
</trkpt>
<trkpt lat="40.0728253" lon="-105.2308647">
  <ele>1595.43</ele>
  <time>2026-08-27T18:29:28Z</time>
  <course>189.39</course>
  <speed>0.08</speed>
  <fix>3d</fix>
</trkpt>
<trkpt lat="40.0728253" lon="-105.2308646">
  <ele>1595.51</ele>
  <time>2026-08-27T18:29:28Z</time>
  <course>61.73</course>
  <speed>0.0</speed>
  <fix>3d</fix>
</trkpt>
<trkpt lat="40.0728251" lon="-105.2308647">
  <ele>1595.43</ele>
  <time>2026-08-27T18:29:28Z</time>
  <course>182.1</course>
  <speed>0.08</speed>
  <fix>3d</fix>
</trkpt>
<trkpt lat="40.0728253" lon="-105.2308647">
  <ele>1595.51</ele>
  <time>2026-08-27T18:29:28Z</time>
  <course>61.77</course>
  <speed>0.06082762530298219</speed>
  <fix>3d</fix>
</trkpt>
<trkpt lat="40.072825" lon="-105.2308648">
  <ele>1595.43</ele>
  <time>2026-08-27T18:29:28Z</time>
  <course>234.24</course>
  <speed>0.01</speed>
  <fix>3d</fix>
</trkpt>
<trkpt lat="40.0728253" lon="-105.2308647">
  <ele>1595.51</ele>
  <time>2026-08-27T18:29:28Z</time>
  <course>61.86</course>
  <speed>0.01</speed>
  <fix>3d</fix>
</trkpt>
<trkpt lat="40.072825" lon="-105.2308649">
  <ele>1595.43</ele>
  <time>2026-08-27T18:29:28Z</time>
  <course>308.29</course>
  <speed>0.02</speed>
  <fix>3d</fix>
</trkpt>
<trkpt lat="40.0728252" lon="-105.2308648">
  <ele>1595.51</ele>
  <time>2026-08-27T18:29:28Z</time>
  <course>61.73</course>
  <speed>0.08</speed>
  <fix>3d</fix>
</trkpt>
<trkpt lat="40.072825" lon="-105.2308649">
  <ele>1595.42</ele>
  <time>2026-08-27T18:29:28Z</time>
  <course>200.0</course>
  <speed>0.05</speed>
  <fix>3d</fix>
</trkpt>
<trkpt lat="40.072825" lon="-105.2308648">
  <ele>1595.51</ele>
  <time>2026-08-27T18:29:28Z</time>
  <course>61.75</course>
  <speed>0.02</speed>
  <fix>3d</fix>
</trkpt>
<trkpt lat="40.0728249" lon="-105.230865">
  <ele>1595.42</ele>
  <time>2026-08-27T18:29:28Z</time>
  <course>185.07</course>
  <speed>0.08</speed>
  <fix>3d</fix>
</trkpt>
<trkpt lat="40.072825" lon="-105.2308648">
  <ele>1595.5</ele>
  <time>2026-08-27T18:29:28Z</time>
  <course>61.81</course>
  <speed>0.05099019513592785</speed>
  <fix>3d</fix>
</trkpt>
<trkpt lat="40.0728248" lon="-105.230865">
  <ele>1595.42</ele>
  <time>2026-08-27T18:29:28Z</time>
  <course>201.08</course>
  <speed>0.03</speed>
  <fix>3d</fix>
</trkpt>
<trkpt lat="40.072825" lon="-105.2308649">
  <ele>1595.5</ele>
  <time>2026-08-27T18:29:28Z</time>
  <course>61.86</course>
  <speed>0.01</speed>
  <fix>3d</fix>
</trkpt>
<trkpt lat="40.0728248" lon="-105.230865">
  <ele>1595.42</ele>
  <time>2026-08-27T18:29:28Z</time>
  <course>295.13</course>
  <speed>0.02</speed>
  <fix>3d</fix>
</trkpt>
<trkpt lat="40.0728249" lon="-105.2308649">
  <ele>1595.49</ele>
  <time>2026-08-27T18:29:28Z</time>
  <course>61.73</course>
  <speed>0.07</speed>
  <fix>3d</fix>
</trkpt>
<trkpt lat="40.0728248" lon="-105.230865">
  <ele>1595.42</ele>
  <time>2026-08-27T18:29:28Z</time>
  <course>201.41</course>
  <speed>0.04</speed>
  <fix>3d</fix>
</trkpt>
<trkpt lat="40.0728248" lon="-105.2308649">
  <ele>1595.49</ele>
  <time>2026-08-27T18:29:28Z</time>
  <course>61.74</course>
  <speed>0.01</speed>
  <fix>3d</fix>
</trkpt>
<trkpt lat="40.0728247" lon="-105.230865">
  <ele>1595.42</ele>
  <time>2026-08-27T18:29:28Z</time>
  <course>187.56</course>
  <speed>0.07</speed>
  <fix>3d</fix>
</trkpt>
<trkpt lat="40.0728248" lon="-105.230865">
  <ele>1595.5</ele>
  <time>2026-08-27T18:29:28Z</time>
  <course>61.81</course>
  <speed>0.0412310562561766</speed>
  <fix>3d</fix>
</trkpt>
<trkpt lat="40.0728245" lon="-105.230865">
  <ele>1595.42</ele>
  <time>2026-08-27T18:29:28Z</time>
  <course>210.68</course>
  <speed>0.02</speed>
  <fix>3d</fix>
</trkpt>
<trkpt lat="40.0728248" lon="-105.230865">
  <ele>1595.5</ele>
  <time>2026-08-27T18:29:28Z</time>
  <course>61.86</course>
  <speed>0.02</speed>
  <fix>3d</fix>
</trkpt>
<trkpt lat="40.0728245" lon="-105.2308651">
  <ele>1595.42</ele>
  <time>2026-08-27T18:29:28Z</time>
  <course>264.4</course>
  <speed>0.01</speed>
  <fix>3d</fix>
</trkpt>
<trkpt lat="40.0728246" lon="-105.230865">
  <ele>1595.5</ele>
  <time>2026-08-27T18:29:28Z</time>
  <course>61.74</course>
  <speed>0.05</speed>
  <fix>3d</fix>
</trkpt>
<trkpt lat="40.0728245" lon="-105.2308652">
  <ele>1595.42</ele>
  <time>2026-08-27T18:29:28Z</time>
  <course>194.54</course>
  <speed>0.05</speed>
  <fix>3d</fix>
</trkpt>
<trkpt lat="40.0728245" lon="-105.230865">
  <ele>1595.51</ele>
  <time>2026-08-27T18:29:28Z</time>
  <course>61.83</course>
  <speed>0.01</speed>
  <fix>3d</fix>
</trkpt>
<trkpt lat="40.0728244" lon="-105.2308652">
  <ele>1595.42</ele>
  <time>2026-08-27T18:29:28Z</time>
  <course>192.49</course>
  <speed>0.05</speed>
  <fix>3d</fix>
</trkpt>
<trkpt lat="40.0728246" lon="-105.2308651">
  <ele>1595.51</ele>
  <time>2026-08-27T18:29:28Z</time>
  <course>61.92</course>
  <speed>0.02</speed>
  <fix>3d</fix>
</trkpt>
<trkpt lat="40.0728243" lon="-105.2308652">
  <ele>1595.41</ele>
  <time>2026-08-27T18:29:28Z</time>
  <course>242.97</course>
  <speed>0.02</speed>
  <fix>3d</fix>
</trkpt>
<trkpt lat="40.0728245" lon="-105.2308651">
  <ele>1595.5</ele>
  <time>2026-08-27T18:29:28Z</time>
  <course>61.86</course>
  <speed>0.05</speed>
  <fix>3d</fix>
</trkpt>
<trkpt lat="40.0728243" lon="-105.2308652">
  <ele>1595.41</ele>
  <time>2026-08-27T18:29:28Z</time>
  <course>211.66</course>
  <speed>0.03</speed>
  <fix>3d</fix>
</trkpt>
<trkpt lat="40.0728243" lon="-105.2308651">
  <ele>1595.5</ele>
  <time>2026-08-27T18:29:28Z</time>
  <course>61.82</course>
  <speed>0.01</speed>
  <fix>3d</fix>
</trkpt>
<trkpt lat="40.0728242" lon="-105.2308653">
  <ele>1595.41</ele>
  <time>2026-08-27T18:29:28Z</time>
  <course>192.15</course>
  <speed>0.06</speed>
  <fix>3d</fix>
</trkpt>
<trkpt lat="40.0728243" lon="-105.2308652">
  <ele>1595.5</ele>
  <time>2026-08-27T18:29:28Z</time>
  <course>61.91</course>
  <speed>0.03</speed>
  <fix>3d</fix>
</trkpt>
<trkpt lat="40.0728242" lon="-105.2308654">
  <ele>1595.41</ele>
  <time>2026-08-27T18:29:28Z</time>
  <course>213.83</course>
  <speed>0.03</speed>
  <fix>3d</fix>
</trkpt>
<trkpt lat="40.0728243" lon="-105.2308652">
  <ele>1595.49</ele>
  <time>2026-08-27T18:29:28Z</time>
  <course>61.93</course>
  <speed>0.03</speed>
  <fix>3d</fix>
</trkpt>
<trkpt lat="40.0728241" lon="-105.2308654">
  <ele>1595.41</ele>
  <time>2026-08-27T18:29:28Z</time>
  <course>226.01</course>
  <speed>0.02</speed>
  <fix>3d</fix>
</trkpt>
<trkpt lat="40.0728242" lon="-105.2308653">
  <ele>1595.49</ele>
  <time>2026-08-27T18:29:28Z</time>
  <course>61.8</course>
  <speed>0.02</speed>
  <fix>3d</fix>
</trkpt>
<trkpt lat="40.072824" lon="-105.2308654">
  <ele>1595.41</ele>
  <time>2026-08-27T18:29:28Z</time>
  <course>194.46</course>
  <speed>0.05</speed>
  <fix>3d</fix>
</trkpt>
<trkpt lat="40.0728242" lon="-105.2308653">
  <ele>1595.5</ele>
  <time>2026-08-27T18:29:28Z</time>
  <course>61.89</course>
  <speed>0.02</speed>
  <fix>3d</fix>
</trkpt>
<trkpt lat="40.072824" lon="-105.2308654">
  <ele>1595.41</ele>
  <time>2026-08-27T18:29:28Z</time>
  <course>208.43</course>
  <speed>0.03</speed>
  <fix>3d</fix>
</trkpt>
<trkpt lat="40.0728241" lon="-105.2308653">
  <ele>1595.5</ele>
  <time>2026-08-27T18:29:28Z</time>
  <course>61.95</course>
  <speed>0.03</speed>
  <fix>3d</fix>
</trkpt>
<trkpt lat="40.072824" lon="-105.2308655">
  <ele>1595.41</ele>
  <time>2026-08-27T18:29:28Z</time>
  <course>226.42</course>
  <speed>0.02</speed>
  <fix>3d</fix>
</trkpt>
<trkpt lat="40.072824" lon="-105.2308654">
  <ele>1595.5</ele>
  <time>2026-08-27T18:29:28Z</time>
  <course>61.85</course>
  <speed>0.02</speed>
  <fix>3d</fix>
</trkpt>
<trkpt lat="40.0728239" lon="-105.2308656">
  <ele>1595.41</ele>
  <time>2026-08-27T18:29:28Z</time>
  <course>196.52</course>
  <speed>0.05</speed>
  <fix>3d</fix>
</trkpt>
<trkpt lat="40.072824" lon="-105.2308654">
  <ele>1595.5</ele>
  <time>2026-08-27T18:29:28Z</time>
  <course>61.95</course>
  <speed>0.02</speed>
  <fix>3d</fix>
</trkpt>
<trkpt lat="40.0728238" lon="-105.2308656">
  <ele>1595.41</ele>
  <time>2026-08-27T18:29:28Z</time>
  <course>210.62</course>
  <speed>0.03</speed>
  <fix>3d</fix>
</trkpt>
<trkpt lat="40.0728239" lon="-105.2308655">
  <ele>1595.5</ele>
  <time>2026-08-27T18:29:28Z</time>
  <course>62.0</course>
  <speed>0.03</speed>
  <fix>3d</fix>
</trkpt>
<trkpt lat="40.0728237" lon="-105.2308656">
  <ele>1595.41</ele>
  <time>2026-08-27T18:29:28Z</time>
  <course>217.85</course>
  <speed>0.02</speed>
  <fix>3d</fix>
</trkpt>
<trkpt lat="40.0728238" lon="-105.2308655">
  <ele>1595.5</ele>
  <time>2026-08-27T18:29:28Z</time>
  <course>61.88</course>
  <speed>0.0</speed>
  <fix>3d</fix>
</trkpt>
<trkpt lat="40.0728237" lon="-105.2308657">
  <ele>1595.41</ele>
  <time>2026-08-27T18:29:28Z</time>
  <course>197.61</course>
  <speed>0.04</speed>
  <fix>3d</fix>
</trkpt>
<trkpt lat="40.0728238" lon="-105.2308656">
  <ele>1595.49</ele>
  <time>2026-08-27T18:29:28Z</time>
  <course>61.99</course>
  <speed>0.01</speed>
  <fix>3d</fix>
</trkpt>
<trkpt lat="40.0728236" lon="-105.2308657">
  <ele>1595.4</ele>
  <time>2026-08-27T18:29:28Z</time>
  <course>215.49</course>
  <speed>0.03</speed>
  <fix>3d</fix>
</trkpt>
<trkpt lat="40.0728237" lon="-105.2308656">
  <ele>1595.49</ele>
  <time>2026-08-27T18:29:28Z</time>
  <course>61.95</course>
  <speed>0.04</speed>
  <fix>3d</fix>
</trkpt>
<trkpt lat="40.0728236" lon="-105.2308657">
  <ele>1595.4</ele>
  <time>2026-08-27T18:29:28Z</time>
  <course>206.0</course>
  <speed>0.03</speed>
  <fix>3d</fix>
</trkpt>
<trkpt lat="40.0728237" lon="-105.2308656">
  <ele>1595.48</ele>
  <time>2026-08-27T18:29:28Z</time>
  <course>61.9</course>
  <speed>0.01414213562373095</speed>
  <fix>3d</fix>
</trkpt>
<trkpt lat="40.0728235" lon="-105.2308657">
  <ele>1595.4</ele>
  <time>2026-08-27T18:29:28Z</time>
  <course>200.75</course>
  <speed>0.04</speed>
  <fix>3d</fix>
</trkpt>
<trkpt lat="40.0728237" lon="-105.2308657">
  <ele>1595.48</ele>
  <time>2026-08-27T18:29:28Z</time>
  <course>62.02</course>
  <speed>0.01</speed>
  <fix>3d</fix>
</trkpt>
<trkpt lat="40.0728235" lon="-105.2308658">
  <ele>1595.4</ele>
  <time>2026-08-27T18:29:28Z</time>
  <course>216.86</course>
  <speed>0.02</speed>
  <fix>3d</fix>
</trkpt>
<trkpt lat="40.0728236" lon="-105.2308657">
  <ele>1595.48</ele>
  <time>2026-08-27T18:29:28Z</time>
  <course>61.89</course>
  <speed>0.01</speed>
  <fix>3d</fix>
</trkpt>
<trkpt lat="40.0728234" lon="-105.2308659">
  <ele>1595.41</ele>
  <time>2026-08-27T18:29:28Z</time>
  <course>199.72</course>
  <speed>0.04</speed>
  <fix>3d</fix>
</trkpt>
<trkpt lat="40.0728235" lon="-105.2308657">
  <ele>1595.48</ele>
  <time>2026-08-27T18:29:28Z</time>
  <course>61.96</course>
  <speed>0.01</speed>
  <fix>3d</fix>
</trkpt>
<trkpt lat="40.0728233" lon="-105.2308659">
  <ele>1595.41</ele>
  <time>2026-08-27T18:29:28Z</time>
  <course>209.83</course>
  <speed>0.03</speed>
  <fix>3d</fix>
</trkpt>
<trkpt lat="40.0728235" lon="-105.2308658">
  <ele>1595.48</ele>
  <time>2026-08-27T18:29:28Z</time>
  <course>61.98</course>
  <speed>0.03</speed>
  <fix>3d</fix>
</trkpt>
<trkpt lat="40.0728232" lon="-105.2308659">
  <ele>1595.41</ele>
  <time>2026-08-27T18:29:28Z</time>
  <course>207.43</course>
  <speed>0.03</speed>
  <fix>3d</fix>
</trkpt>
<trkpt lat="40.0728234" lon="-105.2308658">
  <ele>1595.49</ele>
  <time>2026-08-27T18:29:28Z</time>
  <course>61.92</course>
  <speed>0.01414213562373095</speed>
  <fix>3d</fix>
</trkpt>
<trkpt lat="40.0728232" lon="-105.2308659">
  <ele>1595.41</ele>
  <time>2026-08-27T18:29:28Z</time>
  <course>204.36</course>
  <speed>0.03</speed>
  <fix>3d</fix>
</trkpt>
<trkpt lat="40.0728233" lon="-105.2308658">
  <ele>1595.5</ele>
  <time>2026-08-27T18:29:28Z</time>
  <course>62.06</course>
  <speed>0.02</speed>
  <fix>3d</fix>
</trkpt>
<trkpt lat="40.0728231" lon="-105.230866">
  <ele>1595.42</ele>
  <time>2026-08-27T18:29:28Z</time>
  <course>212.46</course>
  <speed>0.03</speed>
  <fix>3d</fix>
</trkpt>
<trkpt lat="40.0728233" lon="-105.2308659">
  <ele>1595.5</ele>
  <time>2026-08-27T18:29:28Z</time>
  <course>61.97</course>
  <speed>0.01</speed>
  <fix>3d</fix>
</trkpt>
<trkpt lat="40.0728231" lon="-105.2308661">
  <ele>1595.42</ele>
  <time>2026-08-27T18:29:28Z</time>
  <course>203.47</course>
  <speed>0.03</speed>
  <fix>3d</fix>
</trkpt>
<trkpt lat="40.0728232" lon="-105.2308659">
  <ele>1595.5</ele>
  <time>2026-08-27T18:29:28Z</time>
  <course>62.12</course>
  <speed>0.01</speed>
  <fix>3d</fix>
</trkpt>
<trkpt lat="40.0728231" lon="-105.2308661">
  <ele>1595.42</ele>
  <time>2026-08-27T18:29:28Z</time>
  <course>211.76</course>
  <speed>0.03</speed>
  <fix>3d</fix>
</trkpt>
<trkpt lat="40.0728232" lon="-105.230866">
  <ele>1595.5</ele>
  <time>2026-08-27T18:29:28Z</time>
  <course>62.01</course>
  <speed>0.01</speed>
  <fix>3d</fix>
</trkpt>
<trkpt lat="40.072823" lon="-105.2308661">
  <ele>1595.42</ele>
  <time>2026-08-27T18:29:28Z</time>
  <course>204.69</course>
  <speed>0.03</speed>
  <fix>3d</fix>
</trkpt>
<trkpt lat="40.0728231" lon="-105.230866">
  <ele>1595.5</ele>
  <time>2026-08-27T18:29:28Z</time>
  <course>62.12</course>
  <speed>0.0</speed>
  <fix>3d</fix>
</trkpt>
<trkpt lat="40.072823" lon="-105.2308662">
  <ele>1595.42</ele>
  <time>2026-08-27T18:29:28Z</time>
  <course>209.38</course>
  <speed>0.03</speed>
  <fix>3d</fix>
</trkpt>
<trkpt lat="40.0728231" lon="-105.230866">
  <ele>1595.5</ele>
  <time>2026-08-27T18:29:28Z</time>
  <course>62.03</course>
  <speed>0.01</speed>
  <fix>3d</fix>
</trkpt>
<trkpt lat="40.0728229" lon="-105.2308662">
  <ele>1595.42</ele>
  <time>2026-08-27T18:29:28Z</time>
  <course>205.99</course>
  <speed>0.03</speed>
  <fix>3d</fix>
</trkpt>
<trkpt lat="40.072823" lon="-105.2308661">
  <ele>1595.5</ele>
  <time>2026-08-27T18:29:28Z</time>
  <course>62.1</course>
  <speed>0.0</speed>
  <fix>3d</fix>
</trkpt>
<trkpt lat="40.0728229" lon="-105.2308662">
  <ele>1595.42</ele>
  <time>2026-08-27T18:29:28Z</time>
  <course>207.28</course>
  <speed>0.03</speed>
  <fix>3d</fix>
</trkpt>
<trkpt lat="40.072823" lon="-105.2308661">
  <ele>1595.5</ele>
  <time>2026-08-27T18:29:28Z</time>
  <course>62.05</course>
  <speed>0.01</speed>
  <fix>3d</fix>
</trkpt>
<trkpt lat="40.0728228" lon="-105.2308662">
  <ele>1595.42</ele>
  <time>2026-08-27T18:29:28Z</time>
  <course>206.25</course>
  <speed>0.03</speed>
  <fix>3d</fix>
</trkpt>
<trkpt lat="40.0728229" lon="-105.2308661">
  <ele>1595.5</ele>
  <time>2026-08-27T18:29:28Z</time>
  <course>62.12</course>
  <speed>0.0</speed>
  <fix>3d</fix>
</trkpt>
<trkpt lat="40.0728228" lon="-105.2308662">
  <ele>1595.42</ele>
  <time>2026-08-27T18:29:28Z</time>
  <course>205.3</course>
  <speed>0.03</speed>
  <fix>3d</fix>
</trkpt>
<trkpt lat="40.0728229" lon="-105.2308662">
  <ele>1595.5</ele>
  <time>2026-08-27T18:29:28Z</time>
  <course>62.07</course>
  <speed>0.0</speed>
  <fix>3d</fix>
</trkpt>
<trkpt lat="40.0728227" lon="-105.2308663">
  <ele>1595.42</ele>
  <time>2026-08-27T18:29:28Z</time>
  <course>206.78</course>
  <speed>0.03</speed>
  <fix>3d</fix>
</trkpt>
<trkpt lat="40.0728228" lon="-105.2308662">
  <ele>1595.49</ele>
  <time>2026-08-27T18:29:28Z</time>
  <course>62.16</course>
  <speed>0.0</speed>
  <fix>3d</fix>
</trkpt>
<trkpt lat="40.0728226" lon="-105.2308664">
  <ele>1595.42</ele>
  <time>2026-08-27T18:29:28Z</time>
  <course>203.64</course>
  <speed>0.03</speed>
  <fix>3d</fix>
</trkpt>
<trkpt lat="40.0728228" lon="-105.2308662">
  <ele>1595.49</ele>
  <time>2026-08-27T18:29:28Z</time>
  <course>62.07</course>
  <speed>0.0</speed>
  <fix>3d</fix>
</trkpt>
<trkpt lat="40.0728225" lon="-105.2308664">
  <ele>1595.42</ele>
  <time>2026-08-27T18:29:28Z</time>
  <course>207.93</course>
  <speed>0.03</speed>
  <fix>3d</fix>
</trkpt>
<trkpt lat="40.0728227" lon="-105.2308663">
  <ele>1595.48</ele>
  <time>2026-08-27T18:29:28Z</time>
  <course>62.17</course>
  <speed>0.01</speed>
  <fix>3d</fix>
</trkpt>
<trkpt lat="40.0728225" lon="-105.2308664">
  <ele>1595.42</ele>
  <time>2026-08-27T18:29:28Z</time>
  <course>201.29</course>
  <speed>0.03</speed>
  <fix>3d</fix>
</trkpt>
<trkpt lat="40.0728226" lon="-105.2308663">
  <ele>1595.48</ele>
  <time>2026-08-27T18:29:28Z</time>
  <course>62.04</course>
  <speed>0.01</speed>
  <fix>3d</fix>
</trkpt>
<trkpt lat="40.0728225" lon="-105.2308664">
  <ele>1595.42</ele>
  <time>2026-08-27T18:29:28Z</time>
  <course>209.76</course>
  <speed>0.03</speed>
  <fix>3d</fix>
</trkpt>
<trkpt lat="40.0728226" lon="-105.2308663">
  <ele>1595.48</ele>
  <time>2026-08-27T18:29:28Z</time>
  <course>62.18</course>
  <speed>0.02</speed>
  <fix>3d</fix>
</trkpt>
<trkpt lat="40.0728224" lon="-105.2308664">
  <ele>1595.42</ele>
  <time>2026-08-27T18:29:28Z</time>
  <course>201.62</course>
  <speed>0.03</speed>
  <fix>3d</fix>
</trkpt>
<trkpt lat="40.0728225" lon="-105.2308664">
  <ele>1595.48</ele>
  <time>2026-08-27T18:29:28Z</time>
  <course>62.07</course>
  <speed>0.0</speed>
  <fix>3d</fix>
</trkpt>
<trkpt lat="40.0728224" lon="-105.2308665">
  <ele>1595.43</ele>
  <time>2026-08-27T18:29:28Z</time>
  <course>208.93</course>
  <speed>0.03</speed>
  <fix>3d</fix>
</trkpt>
<trkpt lat="40.0728225" lon="-105.2308664">
  <ele>1595.49</ele>
  <time>2026-08-27T18:29:28Z</time>
  <course>62.15</course>
  <speed>0.01</speed>
  <fix>3d</fix>
</trkpt>
<trkpt lat="40.0728223" lon="-105.2308666">
  <ele>1595.43</ele>
  <time>2026-08-27T18:29:28Z</time>
  <course>206.75</course>
  <speed>0.03</speed>
  <fix>3d</fix>
</trkpt>
<trkpt lat="40.0728224" lon="-105.2308664">
  <ele>1595.49</ele>
  <time>2026-08-27T18:29:28Z</time>
  <course>62.19</course>
  <speed>0.01</speed>
  <fix>3d</fix>
</trkpt>
<trkpt lat="40.0728223" lon="-105.2308666">
  <ele>1595.43</ele>
  <time>2026-08-27T18:29:28Z</time>
  <course>201.3</course>
  <speed>0.03</speed>
  <fix>3d</fix>
</trkpt>
<trkpt lat="40.0728224" lon="-105.2308665">
  <ele>1595.5</ele>
  <time>2026-08-27T18:29:28Z</time>
  <course>62.11</course>
  <speed>0.01</speed>
  <fix>3d</fix>
</trkpt>
<trkpt lat="40.0728222" lon="-105.2308666">
  <ele>1595.44</ele>
  <time>2026-08-27T18:29:28Z</time>
  <course>216.58</course>
  <speed>0.02</speed>
  <fix>3d</fix>
</trkpt>
<trkpt lat="40.0728223" lon="-105.2308665">
  <ele>1595.5</ele>
  <time>2026-08-27T18:29:28Z</time>
  <course>62.24</course>
  <speed>0.02</speed>
  <fix>3d</fix>
</trkpt>
<trkpt lat="40.0728222" lon="-105.2308666">
  <ele>1595.44</ele>
  <time>2026-08-27T18:29:28Z</time>
  <course>199.65</course>
  <speed>0.03</speed>
  <fix>3d</fix>
</trkpt>
<trkpt lat="40.0728223" lon="-105.2308665">
  <ele>1595.51</ele>
  <time>2026-08-27T18:29:28Z</time>
  <course>62.19</course>
  <speed>0.0</speed>
  <fix>3d</fix>
</trkpt>
<trkpt lat="40.0728221" lon="-105.2308666">
  <ele>1595.44</ele>
  <time>2026-08-27T18:29:28Z</time>
  <course>208.28</course>
  <speed>0.02</speed>
  <fix>3d</fix>
</trkpt>
<trkpt lat="40.0728222" lon="-105.2308666">
  <ele>1595.51</ele>
  <time>2026-08-27T18:29:28Z</time>
  <course>62.19</course>
  <speed>0.01</speed>
  <fix>3d</fix>
</trkpt>
<trkpt lat="40.072822" lon="-105.2308667">
  <ele>1595.44</ele>
  <time>2026-08-27T18:29:28Z</time>
  <course>215.37</course>
  <speed>0.03</speed>
  <fix>3d</fix>
</trkpt>
<trkpt lat="40.0728222" lon="-105.2308666">
  <ele>1595.5</ele>
  <time>2026-08-27T18:29:28Z</time>
  <course>62.3</course>
  <speed>0.02</speed>
  <fix>3d</fix>
</trkpt>
<trkpt lat="40.072822" lon="-105.2308668">
  <ele>1595.44</ele>
  <time>2026-08-27T18:29:28Z</time>
  <course>195.13</course>
  <speed>0.03</speed>
  <fix>3d</fix>
</trkpt>
<trkpt lat="40.0728221" lon="-105.2308666">
  <ele>1595.5</ele>
  <time>2026-08-27T18:29:28Z</time>
  <course>62.2</course>
  <speed>0.0</speed>
  <fix>3d</fix>
</trkpt>
<trkpt lat="40.0728219" lon="-105.2308668">
  <ele>1595.44</ele>
  <time>2026-08-27T18:29:28Z</time>
  <course>207.86</course>
  <speed>0.02</speed>
  <fix>3d</fix>
</trkpt>
<trkpt lat="40.0728221" lon="-105.2308667">
  <ele>1595.5</ele>
  <time>2026-08-27T18:29:28Z</time>
  <course>62.19</course>
  <speed>0.0</speed>
  <fix>3d</fix>
</trkpt>
<trkpt lat="40.0728219" lon="-105.2308668">
  <ele>1595.44</ele>
  <time>2026-08-27T18:29:28Z</time>
  <course>216.32</course>
  <speed>0.02</speed>
  <fix>3d</fix>
</trkpt>
<trkpt lat="40.072822" lon="-105.2308667">
  <ele>1595.49</ele>
  <time>2026-08-27T18:29:28Z</time>
  <course>62.27</course>
  <speed>0.01</speed>
  <fix>3d</fix>
</trkpt>
<trkpt lat="40.0728219" lon="-105.2308669">
  <ele>1595.44</ele>
  <time>2026-08-27T18:29:28Z</time>
  <course>194.33</course>
  <speed>0.03</speed>
  <fix>3d</fix>
</trkpt>
<trkpt lat="40.072822" lon="-105.2308667">
  <ele>1595.49</ele>
  <time>2026-08-27T18:29:28Z</time>
  <course>62.25</course>
  <speed>0.01</speed>
  <fix>3d</fix>
</trkpt>
<trkpt lat="40.0728218" lon="-105.2308669">
  <ele>1595.44</ele>
  <time>2026-08-27T18:29:28Z</time>
  <course>199.33</course>
  <speed>0.03</speed>
  <fix>3d</fix>
</trkpt>
<trkpt lat="40.0728219" lon="-105.2308668">
  <ele>1595.5</ele>
  <time>2026-08-27T18:29:28Z</time>
  <course>62.17</course>
  <speed>0.0</speed>
  <fix>3d</fix>
</trkpt>
<trkpt lat="40.0728217" lon="-105.2308669">
  <ele>1595.44</ele>
  <time>2026-08-27T18:29:28Z</time>
  <course>222.31</course>
  <speed>0.02</speed>
  <fix>3d</fix>
</trkpt>
<trkpt lat="40.0728219" lon="-105.2308668">
  <ele>1595.5</ele>
  <time>2026-08-27T18:29:28Z</time>
  <course>62.23</course>
  <speed>0.0</speed>
  <fix>3d</fix>
</trkpt>
<trkpt lat="40.0728217" lon="-105.2308669">
  <ele>1595.44</ele>
  <time>2026-08-27T18:29:28Z</time>
  <course>207.1</course>
  <speed>0.03</speed>
  <fix>3d</fix>
</trkpt>
<trkpt lat="40.0728218" lon="-105.2308668">
  <ele>1595.5</ele>
  <time>2026-08-27T18:29:28Z</time>
  <course>62.28</course>
  <speed>0.01</speed>
  <fix>3d</fix>
</trkpt>
<trkpt lat="40.0728216" lon="-105.2308669">
  <ele>1595.44</ele>
  <time>2026-08-27T18:29:28Z</time>
  <course>192.54</course>
  <speed>0.03</speed>
  <fix>3d</fix>
</trkpt>
<trkpt lat="40.0728218" lon="-105.2308668">
  <ele>1595.49</ele>
  <time>2026-08-27T18:29:28Z</time>
  <course>62.26</course>
  <speed>0.01</speed>
  <fix>3d</fix>
</trkpt>
<trkpt lat="40.0728216" lon="-105.230867">
  <ele>1595.44</ele>
  <time>2026-08-27T18:29:28Z</time>
  <course>200.05</course>
  <speed>0.03</speed>
  <fix>3d</fix>
</trkpt>
<trkpt lat="40.0728217" lon="-105.2308669">
  <ele>1595.49</ele>
  <time>2026-08-27T18:29:28Z</time>
  <course>62.18</course>
  <speed>0.0</speed>
  <fix>3d</fix>
</trkpt>
<trkpt lat="40.0728215" lon="-105.2308671">
  <ele>1595.44</ele>
  <time>2026-08-27T18:29:28Z</time>
  <course>218.72</course>
  <speed>0.02</speed>
  <fix>3d</fix>
</trkpt>
<trkpt lat="40.0728217" lon="-105.2308669">
  <ele>1595.48</ele>
  <time>2026-08-27T18:29:28Z</time>
  <course>62.19</course>
  <speed>0.0</speed>
  <fix>3d</fix>
</trkpt>
<trkpt lat="40.0728214" lon="-105.2308671">
  <ele>1595.44</ele>
  <time>2026-08-27T18:29:28Z</time>
  <course>217.44</course>
  <speed>0.02</speed>
  <fix>3d</fix>
</trkpt>
<trkpt lat="40.0728216" lon="-105.2308669">
  <ele>1595.48</ele>
  <time>2026-08-27T18:29:28Z</time>
  <course>62.21</course>
  <speed>0.0</speed>
  <fix>3d</fix>
</trkpt>
<trkpt lat="40.0728214" lon="-105.2308671">
  <ele>1595.44</ele>
  <time>2026-08-27T18:29:28Z</time>
  <course>202.23</course>
  <speed>0.03</speed>
  <fix>3d</fix>
</trkpt>
<trkpt lat="40.0728216" lon="-105.230867">
  <ele>1595.48</ele>
  <time>2026-08-27T18:29:28Z</time>
  <course>62.21</course>
  <speed>0.0</speed>
  <fix>3d</fix>
</trkpt>
<trkpt lat="40.0728213" lon="-105.2308671">
  <ele>1595.44</ele>
  <time>2026-08-27T18:29:28Z</time>
  <course>195.19</course>
  <speed>0.03</speed>
  <fix>3d</fix>
</trkpt>
<trkpt lat="40.0728215" lon="-105.230867">
  <ele>1595.48</ele>
  <time>2026-08-27T18:29:28Z</time>
  <course>62.21</course>
  <speed>0.01</speed>
  <fix>3d</fix>
</trkpt>
<trkpt lat="40.0728213" lon="-105.2308671">
  <ele>1595.44</ele>
  <time>2026-08-27T18:29:28Z</time>
  <course>197.1</course>
  <speed>0.03</speed>
  <fix>3d</fix>
</trkpt>
<trkpt lat="40.0728214" lon="-105.230867">
  <ele>1595.48</ele>
  <time>2026-08-27T18:29:28Z</time>
  <course>62.21</course>
  <speed>0.01</speed>
  <fix>3d</fix>
</trkpt>
<trkpt lat="40.0728213" lon="-105.2308671">
  <ele>1595.45</ele>
  <time>2026-08-27T18:29:28Z</time>
  <course>204.01</course>
  <speed>0.03</speed>
  <fix>3d</fix>
</trkpt>
<trkpt lat="40.0728214" lon="-105.2308671">
  <ele>1595.49</ele>
  <time>2026-08-27T18:29:28Z</time>
  <course>62.18</course>
  <speed>0.01</speed>
  <fix>3d</fix>
</trkpt>
<trkpt lat="40.0728212" lon="-105.2308672">
  <ele>1595.45</ele>
  <time>2026-08-27T18:29:28Z</time>
  <course>211.45</course>
  <speed>0.02</speed>
  <fix>3d</fix>
</trkpt>
<trkpt lat="40.0728213" lon="-105.2308671">
  <ele>1595.49</ele>
  <time>2026-08-27T18:29:28Z</time>
  <course>62.17</course>
  <speed>0.01</speed>
  <fix>3d</fix>
</trkpt>
<trkpt lat="40.0728212" lon="-105.2308673">
  <ele>1595.46</ele>
  <time>2026-08-27T18:29:28Z</time>
  <course>216.24</course>
  <speed>0.02</speed>
  <fix>3d</fix>
</trkpt>
<trkpt lat="40.0728213" lon="-105.2308671">
  <ele>1595.5</ele>
  <time>2026-08-27T18:29:28Z</time>
  <course>62.17</course>
  <speed>0.0</speed>
  <fix>3d</fix>
</trkpt>
<trkpt lat="40.0728211" lon="-105.2308673">
  <ele>1595.46</ele>
  <time>2026-08-27T18:29:28Z</time>
  <course>218.04</course>
  <speed>0.02</speed>
  <fix>3d</fix>
</trkpt>
<trkpt lat="40.0728212" lon="-105.2308672">
  <ele>1595.5</ele>
  <time>2026-08-27T18:29:28Z</time>
  <course>62.17</course>
  <speed>0.0</speed>
  <fix>3d</fix>
</trkpt>
<trkpt lat="40.0728211" lon="-105.2308673">
  <ele>1595.46</ele>
  <time>2026-08-27T18:29:28Z</time>
  <course>217.53</course>
  <speed>0.02</speed>
  <fix>3d</fix>
</trkpt>
<trkpt lat="40.0728212" lon="-105.2308672">
  <ele>1595.5</ele>
  <time>2026-08-27T18:29:28Z</time>
  <course>62.17</course>
  <speed>0.0</speed>
  <fix>3d</fix>
</trkpt>
<trkpt lat="40.0728211" lon="-105.2308673">
  <ele>1595.47</ele>
  <time>2026-08-27T18:29:28Z</time>
  <course>216.46</course>
  <speed>0.02</speed>
  <fix>3d</fix>
</trkpt>
<trkpt lat="40.0728212" lon="-105.2308672">
  <ele>1595.51</ele>
  <time>2026-08-27T18:29:28Z</time>
  <course>62.18</course>
  <speed>0.0</speed>
  <fix>3d</fix>
</trkpt>
<trkpt lat="40.072821" lon="-105.2308673">
  <ele>1595.47</ele>
  <time>2026-08-27T18:29:28Z</time>
  <course>215.69</course>
  <speed>0.02</speed>
  <fix>3d</fix>
</trkpt>
<trkpt lat="40.0728211" lon="-105.2308673">
  <ele>1595.51</ele>
  <time>2026-08-27T18:29:28Z</time>
  <course>62.19</course>
  <speed>0.0</speed>
  <fix>3d</fix>
</trkpt>
<trkpt lat="40.072821" lon="-105.2308674">
  <ele>1595.47</ele>
  <time>2026-08-27T18:29:28Z</time>
  <course>214.76</course>
  <speed>0.02</speed>
  <fix>3d</fix>
</trkpt>
<trkpt lat="40.0728211" lon="-105.2308673">
  <ele>1595.51</ele>
  <time>2026-08-27T18:29:28Z</time>
  <course>62.2</course>
  <speed>0.0</speed>
  <fix>3d</fix>
</trkpt>
<trkpt lat="40.0728209" lon="-105.2308675">
  <ele>1595.47</ele>
  <time>2026-08-27T18:29:28Z</time>
  <course>213.2</course>
  <speed>0.02</speed>
  <fix>3d</fix>
</trkpt>
<trkpt lat="40.0728211" lon="-105.2308673">
  <ele>1595.51</ele>
  <time>2026-08-27T18:29:28Z</time>
  <course>62.2</course>
  <speed>0.0</speed>
  <fix>3d</fix>
</trkpt>
<trkpt lat="40.0728208" lon="-105.2308675">
  <ele>1595.46</ele>
  <time>2026-08-27T18:29:28Z</time>
  <course>210.91</course>
  <speed>0.02</speed>
  <fix>3d</fix>
</trkpt>
<trkpt lat="40.072821" lon="-105.2308674">
  <ele>1595.51</ele>
  <time>2026-08-27T18:29:28Z</time>
  <course>62.2</course>
  <speed>0.0</speed>
  <fix>3d</fix>
</trkpt>
<trkpt lat="40.0728208" lon="-105.2308675">
  <ele>1595.46</ele>
  <time>2026-08-27T18:29:28Z</time>
  <course>207.46</course>
  <speed>0.02</speed>
  <fix>3d</fix>
</trkpt>
<trkpt lat="40.072821" lon="-105.2308674">
  <ele>1595.51</ele>
  <time>2026-08-27T18:29:28Z</time>
  <course>62.2</course>
  <speed>0.0</speed>
  <fix>3d</fix>
</trkpt>
<trkpt lat="40.0728207" lon="-105.2308676">
  <ele>1595.46</ele>
  <time>2026-08-27T18:29:28Z</time>
  <course>203.38</course>
  <speed>0.03</speed>
  <fix>3d</fix>
</trkpt>
<trkpt lat="40.0728209" lon="-105.2308674">
  <ele>1595.51</ele>
  <time>2026-08-27T18:29:28Z</time>
  <course>62.2</course>
  <speed>0.0</speed>
  <fix>3d</fix>
</trkpt>
<trkpt lat="40.0728207" lon="-105.2308676">
  <ele>1595.46</ele>
  <time>2026-08-27T18:29:28Z</time>
  <course>200.11</course>
  <speed>0.03</speed>
  <fix>3d</fix>
</trkpt>
<trkpt lat="40.0728208" lon="-105.2308675">
  <ele>1595.51</ele>
  <time>2026-08-27T18:29:28Z</time>
  <course>62.21</course>
  <speed>0.0</speed>
  <fix>3d</fix>
</trkpt>
<trkpt lat="40.0728206" lon="-105.2308676">
  <ele>1595.45</ele>
  <time>2026-08-27T18:29:28Z</time>
  <course>198.72</course>
  <speed>0.03</speed>
  <fix>3d</fix>
</trkpt>
<trkpt lat="40.0728208" lon="-105.2308675">
  <ele>1595.51</ele>
  <time>2026-08-27T18:29:28Z</time>
  <course>62.2</course>
  <speed>0.0</speed>
  <fix>3d</fix>
</trkpt>
<trkpt lat="40.0728206" lon="-105.2308676">
  <ele>1595.45</ele>
  <time>2026-08-27T18:29:28Z</time>
  <course>199.78</course>
  <speed>0.03</speed>
  <fix>3d</fix>
</trkpt>
<trkpt lat="40.0728207" lon="-105.2308675">
  <ele>1595.51</ele>
  <time>2026-08-27T18:29:28Z</time>
  <course>62.19</course>
  <speed>0.0</speed>
  <fix>3d</fix>
</trkpt>
<trkpt lat="40.0728205" lon="-105.2308676">
  <ele>1595.45</ele>
  <time>2026-08-27T18:29:28Z</time>
  <course>201.72</course>
  <speed>0.03</speed>
  <fix>3d</fix>
</trkpt>
<trkpt lat="40.0728207" lon="-105.2308675">
  <ele>1595.5</ele>
  <time>2026-08-27T18:29:28Z</time>
  <course>62.2</course>
  <speed>0.0</speed>
  <fix>3d</fix>
</trkpt>
<trkpt lat="40.0728205" lon="-105.2308676">
  <ele>1595.44</ele>
  <time>2026-08-27T18:29:28Z</time>
  <course>200.95</course>
  <speed>0.03</speed>
  <fix>3d</fix>
</trkpt>
<trkpt lat="40.0728206" lon="-105.2308676">
  <ele>1595.5</ele>
  <time>2026-08-27T18:29:28Z</time>
  <course>62.2</course>
  <speed>0.0</speed>
  <fix>3d</fix>
</trkpt>
<trkpt lat="40.0728204" lon="-105.2308677">
  <ele>1595.44</ele>
  <time>2026-08-27T18:29:28Z</time>
  <course>198.28</course>
  <speed>0.03</speed>
  <fix>3d</fix>
</trkpt>
<trkpt lat="40.0728206" lon="-105.2308676">
  <ele>1595.5</ele>
  <time>2026-08-27T18:29:28Z</time>
  <course>62.19</course>
  <speed>0.0</speed>
  <fix>3d</fix>
</trkpt>
<trkpt lat="40.0728204" lon="-105.2308678">
  <ele>1595.44</ele>
  <time>2026-08-27T18:29:28Z</time>
  <course>198.41</course>
  <speed>0.03</speed>
  <fix>3d</fix>
</trkpt>
<trkpt lat="40.0728205" lon="-105.2308676">
  <ele>1595.5</ele>
  <time>2026-08-27T18:29:28Z</time>
  <course>62.19</course>
  <speed>0.0</speed>
  <fix>3d</fix>
</trkpt>
<trkpt lat="40.0728203" lon="-105.2308678">
  <ele>1595.44</ele>
  <time>2026-08-27T18:29:28Z</time>
  <course>200.82</course>
  <speed>0.03</speed>
  <fix>3d</fix>
</trkpt>
<trkpt lat="40.0728204" lon="-105.2308676">
  <ele>1595.51</ele>
  <time>2026-08-27T18:29:28Z</time>
  <course>62.21</course>
  <speed>0.0</speed>
  <fix>3d</fix>
</trkpt>
<trkpt lat="40.0728202" lon="-105.2308678">
  <ele>1595.44</ele>
  <time>2026-08-27T18:29:28Z</time>
  <course>200.73</course>
  <speed>0.03</speed>
  <fix>3d</fix>
</trkpt>
<trkpt lat="40.0728204" lon="-105.2308677">
  <ele>1595.51</ele>
  <time>2026-08-27T18:29:28Z</time>
  <course>62.21</course>
  <speed>0.0</speed>
  <fix>3d</fix>
</trkpt>
<trkpt lat="40.0728202" lon="-105.2308678">
  <ele>1595.43</ele>
  <time>2026-08-27T18:29:28Z</time>
  <course>200.53</course>
  <speed>0.03</speed>
  <fix>3d</fix>
</trkpt>
<trkpt lat="40.0728203" lon="-105.2308677">
  <ele>1595.5</ele>
  <time>2026-08-27T18:29:28Z</time>
  <course>62.22</course>
  <speed>0.0</speed>
  <fix>3d</fix>
</trkpt>
<trkpt lat="40.0728201" lon="-105.2308678">
  <ele>1595.43</ele>
  <time>2026-08-27T18:29:28Z</time>
  <course>202.23</course>
  <speed>0.03</speed>
  <fix>3d</fix>
</trkpt>
<trkpt lat="40.0728203" lon="-105.2308677">
  <ele>1595.5</ele>
  <time>2026-08-27T18:29:28Z</time>
  <course>62.21</course>
  <speed>0.0</speed>
  <fix>3d</fix>
</trkpt>
<trkpt lat="40.0728201" lon="-105.2308678">
  <ele>1595.43</ele>
  <time>2026-08-27T18:29:28Z</time>
  <course>202.43</course>
  <speed>0.03</speed>
  <fix>3d</fix>
</trkpt>
<trkpt lat="40.0728202" lon="-105.2308678">
  <ele>1595.49</ele>
  <time>2026-08-27T18:29:28Z</time>
  <course>62.2</course>
  <speed>0.0</speed>
  <fix>3d</fix>
</trkpt>
<trkpt lat="40.07282" lon="-105.2308679">
  <ele>1595.43</ele>
  <time>2026-08-27T18:29:28Z</time>
  <course>202.65</course>
  <speed>0.03</speed>
  <fix>3d</fix>
</trkpt>
<trkpt lat="40.0728202" lon="-105.2308678">
  <ele>1595.48</ele>
  <time>2026-08-27T18:29:28Z</time>
  <course>62.19</course>
  <speed>0.0</speed>
  <fix>3d</fix>
</trkpt>
<trkpt lat="40.07282" lon="-105.230868">
  <ele>1595.43</ele>
  <time>2026-08-27T18:29:28Z</time>
  <course>203.14</course>
  <speed>0.03</speed>
  <fix>3d</fix>
</trkpt>
<trkpt lat="40.0728201" lon="-105.2308678">
  <ele>1595.49</ele>
  <time>2026-08-27T18:29:28Z</time>
  <course>62.18</course>
  <speed>0.0</speed>
  <fix>3d</fix>
</trkpt>
<trkpt lat="40.0728199" lon="-105.230868">
  <ele>1595.43</ele>
  <time>2026-08-27T18:29:28Z</time>
  <course>203.13</course>
  <speed>0.03</speed>
  <fix>3d</fix>
</trkpt>
<trkpt lat="40.0728201" lon="-105.2308678">
  <ele>1595.49</ele>
  <time>2026-08-27T18:29:28Z</time>
  <course>62.2</course>
  <speed>0.0</speed>
  <fix>3d</fix>
</trkpt>
<trkpt lat="40.0728199" lon="-105.230868">
  <ele>1595.43</ele>
  <time>2026-08-27T18:29:28Z</time>
  <course>203.82</course>
  <speed>0.03</speed>
  <fix>3d</fix>
</trkpt>
<trkpt lat="40.07282" lon="-105.2308679">
  <ele>1595.49</ele>
  <time>2026-08-27T18:29:28Z</time>
  <course>62.19</course>
  <speed>0.0</speed>
  <fix>3d</fix>
</trkpt>
<trkpt lat="40.0728198" lon="-105.230868">
  <ele>1595.43</ele>
  <time>2026-08-27T18:29:28Z</time>
  <course>205.92</course>
  <speed>0.03</speed>
  <fix>3d</fix>
</trkpt>
<trkpt lat="40.07282" lon="-105.2308679">
  <ele>1595.49</ele>
  <time>2026-08-27T18:29:28Z</time>
  <course>62.18</course>
  <speed>0.0</speed>
  <fix>3d</fix>
</trkpt>
<trkpt lat="40.0728198" lon="-105.2308681">
  <ele>1595.43</ele>
  <time>2026-08-27T18:29:28Z</time>
  <course>209.34</course>
  <speed>0.03</speed>
  <fix>3d</fix>
</trkpt>
<trkpt lat="40.0728199" lon="-105.230868">
  <ele>1595.49</ele>
  <time>2026-08-27T18:29:28Z</time>
  <course>62.19</course>
  <speed>0.0</speed>
  <fix>3d</fix>
</trkpt>
<trkpt lat="40.0728197" lon="-105.2308681">
  <ele>1595.43</ele>
  <time>2026-08-27T18:29:28Z</time>
  <course>212.46</course>
  <speed>0.03</speed>
  <fix>3d</fix>
</trkpt>
<trkpt lat="40.0728199" lon="-105.230868">
  <ele>1595.49</ele>
  <time>2026-08-27T18:29:28Z</time>
  <course>62.18</course>
  <speed>0.01</speed>
  <fix>3d</fix>
</trkpt>
<trkpt lat="40.0728196" lon="-105.2308681">
  <ele>1595.43</ele>
  <time>2026-08-27T18:29:28Z</time>
  <course>214.51</course>
  <speed>0.03</speed>
  <fix>3d</fix>
</trkpt>
<trkpt lat="40.0728198" lon="-105.2308681">
  <ele>1595.49</ele>
  <time>2026-08-27T18:29:28Z</time>
  <course>62.18</course>
  <speed>0.01</speed>
  <fix>3d</fix>
</trkpt>
<trkpt lat="40.0728196" lon="-105.2308681">
  <ele>1595.43</ele>
  <time>2026-08-27T18:29:28Z</time>
  <course>215.07</course>
  <speed>0.03</speed>
  <fix>3d</fix>
</trkpt>
<trkpt lat="40.0728197" lon="-105.2308681">
  <ele>1595.49</ele>
  <time>2026-08-27T18:29:28Z</time>
  <course>62.18</course>
  <speed>0.01</speed>
  <fix>3d</fix>
</trkpt>
<trkpt lat="40.0728195" lon="-105.2308682">
  <ele>1595.44</ele>
  <time>2026-08-27T18:29:28Z</time>
  <course>214.86</course>
  <speed>0.03</speed>
  <fix>3d</fix>
</trkpt>
<trkpt lat="40.0728197" lon="-105.2308681">
  <ele>1595.5</ele>
  <time>2026-08-27T18:29:28Z</time>
  <course>62.18</course>
  <speed>0.01</speed>
  <fix>3d</fix>
</trkpt>
<trkpt lat="40.0728195" lon="-105.2308683">
  <ele>1595.44</ele>
  <time>2026-08-27T18:29:28Z</time>
  <course>214.6</course>
  <speed>0.03</speed>
  <fix>3d</fix>
</trkpt>
<trkpt lat="40.0728196" lon="-105.2308682">
  <ele>1595.5</ele>
  <time>2026-08-27T18:29:28Z</time>
  <course>62.19</course>
  <speed>0.01</speed>
  <fix>3d</fix>
</trkpt>
<trkpt lat="40.0728195" lon="-105.2308683">
  <ele>1595.44</ele>
  <time>2026-08-27T18:29:28Z</time>
  <course>214.33</course>
  <speed>0.03</speed>
  <fix>3d</fix>
</trkpt>
<trkpt lat="40.0728196" lon="-105.2308682">
  <ele>1595.5</ele>
  <time>2026-08-27T18:29:28Z</time>
  <course>62.19</course>
  <speed>0.01414213562373095</speed>
  <fix>3d</fix>
</trkpt>
<trkpt lat="40.0728194" lon="-105.2308683">
  <ele>1595.44</ele>
  <time>2026-08-27T18:29:28Z</time>
  <course>214.1</course>
  <speed>0.03</speed>
  <fix>3d</fix>
</trkpt>
<trkpt lat="40.0728195" lon="-105.2308683">
  <ele>1595.5</ele>
  <time>2026-08-27T18:29:28Z</time>
  <course>62.19</course>
  <speed>0.01414213562373095</speed>
  <fix>3d</fix>
</trkpt>
<trkpt lat="40.0728194" lon="-105.2308684">
  <ele>1595.44</ele>
  <time>2026-08-27T18:29:28Z</time>
  <course>213.9</course>
  <speed>0.03</speed>
  <fix>3d</fix>
</trkpt>
<trkpt lat="40.0728195" lon="-105.2308683">
  <ele>1595.5</ele>
  <time>2026-08-27T18:29:28Z</time>
  <course>62.19</course>
  <speed>0.01414213562373095</speed>
  <fix>3d</fix>
</trkpt>
<trkpt lat="40.0728193" lon="-105.2308685">
  <ele>1595.44</ele>
  <time>2026-08-27T18:29:28Z</time>
  <course>213.76</course>
  <speed>0.03</speed>
  <fix>3d</fix>
</trkpt>
<trkpt lat="40.0728194" lon="-105.2308684">
  <ele>1595.5</ele>
  <time>2026-08-27T18:29:28Z</time>
  <course>62.2</course>
  <speed>0.01414213562373095</speed>
  <fix>3d</fix>
</trkpt>
<trkpt lat="40.0728193" lon="-105.2308685">
  <ele>1595.44</ele>
  <time>2026-08-27T18:29:28Z</time>
  <course>213.68</course>
  <speed>0.04</speed>
  <fix>3d</fix>
</trkpt>
<trkpt lat="40.0728193" lon="-105.2308684">
  <ele>1595.51</ele>
  <time>2026-08-27T18:29:28Z</time>
  <course>62.21</course>
  <speed>0.01414213562373095</speed>
  <fix>3d</fix>
</trkpt>
<trkpt lat="40.0728192" lon="-105.2308685">
  <ele>1595.44</ele>
  <time>2026-08-27T18:29:28Z</time>
  <course>213.23</course>
  <speed>0.04</speed>
  <fix>3d</fix>
</trkpt>
<trkpt lat="40.0728193" lon="-105.2308685">
  <ele>1595.51</ele>
  <time>2026-08-27T18:29:28Z</time>
  <course>62.22</course>
  <speed>0.01414213562373095</speed>
  <fix>3d</fix>
</trkpt>
<trkpt lat="40.0728191" lon="-105.2308686">
  <ele>1595.44</ele>
  <time>2026-08-27T18:29:28Z</time>
  <course>212.58</course>
  <speed>0.04</speed>
  <fix>3d</fix>
</trkpt>
<trkpt lat="40.0728192" lon="-105.2308685">
  <ele>1595.51</ele>
  <time>2026-08-27T18:29:28Z</time>
  <course>62.21</course>
  <speed>0.01414213562373095</speed>
  <fix>3d</fix>
</trkpt>
<trkpt lat="40.072819" lon="-105.2308687">
  <ele>1595.44</ele>
  <time>2026-08-27T18:29:28Z</time>
  <course>211.49</course>
  <speed>0.04</speed>
  <fix>3d</fix>
</trkpt>
<trkpt lat="40.0728192" lon="-105.2308686">
  <ele>1595.5</ele>
  <time>2026-08-27T18:29:28Z</time>
  <course>62.21</course>
  <speed>0.01414213562373095</speed>
  <fix>3d</fix>
</trkpt>
<trkpt lat="40.072819" lon="-105.2308687">
  <ele>1595.43</ele>
  <time>2026-08-27T18:29:28Z</time>
  <course>210.42</course>
  <speed>0.04</speed>
  <fix>3d</fix>
</trkpt>
<trkpt lat="40.0728191" lon="-105.2308686">
  <ele>1595.5</ele>
  <time>2026-08-27T18:29:28Z</time>
  <course>62.2</course>
  <speed>0.02</speed>
  <fix>3d</fix>
</trkpt>
<trkpt lat="40.0728189" lon="-105.2308688">
  <ele>1595.43</ele>
  <time>2026-08-27T18:29:28Z</time>
  <course>214.97</course>
  <speed>0.04</speed>
  <fix>3d</fix>
</trkpt>
<trkpt lat="40.0728191" lon="-105.2308687">
  <ele>1595.49</ele>
  <time>2026-08-27T18:29:28Z</time>
  <course>62.3</course>
  <speed>0.01</speed>
  <fix>3d</fix>
</trkpt>
<trkpt lat="40.0728189" lon="-105.2308688">
  <ele>1595.43</ele>
  <time>2026-08-27T18:29:28Z</time>
  <course>225.27</course>
  <speed>0.03</speed>
  <fix>3d</fix>
</trkpt>
<trkpt lat="40.072819" lon="-105.2308688">
  <ele>1595.5</ele>
  <time>2026-08-27T18:29:28Z</time>
  <course>62.27</course>
  <speed>0.01</speed>
  <fix>3d</fix>
</trkpt>
<trkpt lat="40.0728189" lon="-105.2308689">
  <ele>1595.43</ele>
  <time>2026-08-27T18:29:28Z</time>
  <course>251.08</course>
  <speed>0.03</speed>
  <fix>3d</fix>
</trkpt>
<trkpt lat="40.072819" lon="-105.2308688">
  <ele>1595.5</ele>
  <time>2026-08-27T18:29:28Z</time>
  <course>62.23</course>
  <speed>0.022360679774997897</speed>
  <fix>3d</fix>
</trkpt>
<trkpt lat="40.0728189" lon="-105.230869">
  <ele>1595.43</ele>
  <time>2026-08-27T18:29:28Z</time>
  <course>261.24</course>
  <speed>0.03</speed>
  <fix>3d</fix>
</trkpt>
<trkpt lat="40.072819" lon="-105.2308689">
  <ele>1595.5</ele>
  <time>2026-08-27T18:29:28Z</time>
  <course>62.29</course>
  <speed>0.01</speed>
  <fix>3d</fix>
</trkpt>
<trkpt lat="40.0728188" lon="-105.230869">
  <ele>1595.43</ele>
  <time>2026-08-27T18:29:28Z</time>
  <course>232.75</course>
  <speed>0.03</speed>
  <fix>3d</fix>
</trkpt>
<trkpt lat="40.072819" lon="-105.230869">
  <ele>1595.5</ele>
  <time>2026-08-27T18:29:28Z</time>
  <course>62.36</course>
  <speed>0.01</speed>
  <fix>3d</fix>
</trkpt>
<trkpt lat="40.0728188" lon="-105.2308691">
  <ele>1595.42</ele>
  <time>2026-08-27T18:29:28Z</time>
  <course>211.76</course>
  <speed>0.03</speed>
  <fix>3d</fix>
</trkpt>
<trkpt lat="40.0728189" lon="-105.230869">
  <ele>1595.5</ele>
  <time>2026-08-27T18:29:28Z</time>
  <course>62.31</course>
  <speed>0.0</speed>
  <fix>3d</fix>
</trkpt>
<trkpt lat="40.0728188" lon="-105.2308692">
  <ele>1595.42</ele>
  <time>2026-08-27T18:29:28Z</time>
  <course>224.8</course>
  <speed>0.02</speed>
  <fix>3d</fix>
</trkpt>
<trkpt lat="40.0728189" lon="-105.230869">
  <ele>1595.49</ele>
  <time>2026-08-27T18:29:28Z</time>
  <course>62.25</course>
  <speed>0.01</speed>
  <fix>3d</fix>
</trkpt>
<trkpt lat="40.0728187" lon="-105.2308692">
  <ele>1595.42</ele>
  <time>2026-08-27T18:29:28Z</time>
  <course>233.33</course>
  <speed>0.02</speed>
  <fix>3d</fix>
</trkpt>
<trkpt lat="40.0728188" lon="-105.2308691">
  <ele>1595.48</ele>
  <time>2026-08-27T18:29:28Z</time>
  <course>62.3</course>
  <speed>0.0</speed>
  <fix>3d</fix>
</trkpt>
<trkpt lat="40.0728187" lon="-105.2308692">
  <ele>1595.42</ele>
  <time>2026-08-27T18:29:28Z</time>
  <course>205.33</course>
  <speed>0.03</speed>
  <fix>3d</fix>
</trkpt>
<trkpt lat="40.0728188" lon="-105.2308691">
  <ele>1595.48</ele>
  <time>2026-08-27T18:29:28Z</time>
  <course>62.35</course>
  <speed>0.01</speed>
  <fix>3d</fix>
</trkpt>
<trkpt lat="40.0728186" lon="-105.2308693">
  <ele>1595.42</ele>
  <time>2026-08-27T18:29:28Z</time>
  <course>192.81</course>
  <speed>0.03</speed>
  <fix>3d</fix>
</trkpt>
<trkpt lat="40.0728187" lon="-105.2308692">
  <ele>1595.48</ele>
  <time>2026-08-27T18:29:28Z</time>
  <course>62.28</course>
  <speed>0.0</speed>
  <fix>3d</fix>
</trkpt>
<trkpt lat="40.0728186" lon="-105.2308693">
  <ele>1595.42</ele>
  <time>2026-08-27T18:29:28Z</time>
  <course>208.47</course>
  <speed>0.02</speed>
  <fix>3d</fix>
</trkpt>
<trkpt lat="40.0728187" lon="-105.2308692">
  <ele>1595.48</ele>
  <time>2026-08-27T18:29:28Z</time>
  <course>62.24</course>
  <speed>0.0</speed>
  <fix>3d</fix>
</trkpt>
<trkpt lat="40.0728185" lon="-105.2308693">
  <ele>1595.42</ele>
  <time>2026-08-27T18:29:28Z</time>
  <course>221.45</course>
  <speed>0.02</speed>
  <fix>3d</fix>
</trkpt>
<trkpt lat="40.0728186" lon="-105.2308692">
  <ele>1595.48</ele>
  <time>2026-08-27T18:29:29Z</time>
  <course>62.32</course>
  <speed>0.0</speed>
  <fix>3d</fix>
</trkpt>
<trkpt lat="40.0728184" lon="-105.2308693">
  <ele>1595.43</ele>
  <time>2026-08-27T18:29:29Z</time>
  <course>198.33</course>
  <speed>0.03</speed>
  <fix>3d</fix>
</trkpt>
<trkpt lat="40.0728186" lon="-105.2308692">
  <ele>1595.49</ele>
  <time>2026-08-27T18:29:29Z</time>
  <course>62.35</course>
  <speed>0.01</speed>
  <fix>3d</fix>
</trkpt>
<trkpt lat="40.0728184" lon="-105.2308693">
  <ele>1595.43</ele>
  <time>2026-08-27T18:29:29Z</time>
  <course>189.18</course>
  <speed>0.03</speed>
  <fix>3d</fix>
</trkpt>
<trkpt lat="40.0728185" lon="-105.2308692">
  <ele>1595.49</ele>
  <time>2026-08-27T18:29:29Z</time>
  <course>62.29</course>
  <speed>0.0</speed>
  <fix>3d</fix>
</trkpt>
<trkpt lat="40.0728183" lon="-105.2308693">
  <ele>1595.43</ele>
  <time>2026-08-27T18:29:29Z</time>
  <course>205.46</course>
  <speed>0.02</speed>
  <fix>3d</fix>
</trkpt>
<trkpt lat="40.0728185" lon="-105.2308693">
  <ele>1595.49</ele>
  <time>2026-08-27T18:29:29Z</time>
  <course>62.25</course>
  <speed>0.0</speed>
  <fix>3d</fix>
</trkpt>
<trkpt lat="40.0728183" lon="-105.2308694">
  <ele>1595.44</ele>
  <time>2026-08-27T18:29:29Z</time>
  <course>219.47</course>
  <speed>0.02</speed>
  <fix>3d</fix>
</trkpt>
<trkpt lat="40.0728184" lon="-105.2308693">
  <ele>1595.49</ele>
  <time>2026-08-27T18:29:29Z</time>
  <course>62.31</course>
  <speed>0.0</speed>
  <fix>3d</fix>
</trkpt>
<trkpt lat="40.0728183" lon="-105.2308695">
  <ele>1595.44</ele>
  <time>2026-08-27T18:29:29Z</time>
  <course>197.12</course>
  <speed>0.03</speed>
  <fix>3d</fix>
</trkpt>
<trkpt lat="40.0728184" lon="-105.2308693">
  <ele>1595.5</ele>
  <time>2026-08-27T18:29:29Z</time>
  <course>62.36</course>
  <speed>0.01</speed>
  <fix>3d</fix>
</trkpt>
<trkpt lat="40.0728182" lon="-105.2308695">
  <ele>1595.44</ele>
  <time>2026-08-27T18:29:29Z</time>
  <course>188.97</course>
  <speed>0.03</speed>
  <fix>3d</fix>
</trkpt>
<trkpt lat="40.0728183" lon="-105.2308693">
  <ele>1595.5</ele>
  <time>2026-08-27T18:29:29Z</time>
  <course>62.3</course>
  <speed>0.0</speed>
  <fix>3d</fix>
</trkpt>
<trkpt lat="40.0728182" lon="-105.2308695">
  <ele>1595.44</ele>
  <time>2026-08-27T18:29:29Z</time>
  <course>206.14</course>
  <speed>0.02</speed>
  <fix>3d</fix>
</trkpt>
<trkpt lat="40.0728183" lon="-105.2308694">
  <ele>1595.5</ele>
  <time>2026-08-27T18:29:29Z</time>
  <course>62.27</course>
  <speed>0.022360679774997897</speed>
  <fix>3d</fix>
</trkpt>
<trkpt lat="40.0728181" lon="-105.2308695">
  <ele>1595.44</ele>
  <time>2026-08-27T18:29:29Z</time>
  <course>222.53</course>
  <speed>0.02</speed>
  <fix>3d</fix>
</trkpt>
<trkpt lat="40.0728183" lon="-105.2308694">
  <ele>1595.5</ele>
  <time>2026-08-27T18:29:29Z</time>
  <course>62.25</course>
  <speed>0.07280109889280519</speed>
  <fix>3d</fix>
</trkpt>
<trkpt lat="40.0728181" lon="-105.2308695">
  <ele>1595.44</ele>
  <time>2026-08-27T18:29:29Z</time>
  <course>296.2</course>
  <speed>0.02</speed>
  <fix>3d</fix>
</trkpt>
<trkpt lat="40.0728184" lon="-105.2308695">
  <ele>1595.5</ele>
  <time>2026-08-27T18:29:29Z</time>
  <course>62.23</course>
  <speed>0.10770329614269007</speed>
  <fix>3d</fix>
</trkpt>
<trkpt lat="40.0728181" lon="-105.2308696">
  <ele>1595.44</ele>
  <time>2026-08-27T18:29:29Z</time>
  <course>326.14</course>
  <speed>0.07</speed>
  <fix>3d</fix>
</trkpt>
<trkpt lat="40.0728185" lon="-105.2308697">
  <ele>1595.51</ele>
  <time>2026-08-27T18:29:29Z</time>
  <course>62.22</course>
  <speed>0.1118033988749895</speed>
  <fix>3d</fix>
</trkpt>
<trkpt lat="40.0728182" lon="-105.2308697">
  <ele>1595.44</ele>
  <time>2026-08-27T18:29:29Z</time>
  <course>324.76</course>
  <speed>0.1</speed>
  <fix>3d</fix>
</trkpt>
<trkpt lat="40.0728187" lon="-105.2308698">
  <ele>1595.51</ele>
  <time>2026-08-27T18:29:29Z</time>
  <course>62.23</course>
  <speed>0.11661903789690602</speed>
  <fix>3d</fix>
</trkpt>
<trkpt lat="40.0728184" lon="-105.2308699">
  <ele>1595.44</ele>
  <time>2026-08-27T18:29:29Z</time>
  <course>321.05</course>
  <speed>0.1</speed>
  <fix>3d</fix>
</trkpt>
<trkpt lat="40.0728188" lon="-105.23087">
  <ele>1595.52</ele>
  <time>2026-08-27T18:29:29Z</time>
  <course>62.23</course>
  <speed>0.10816653826391968</speed>
  <fix>3d</fix>
</trkpt>
<trkpt lat="40.0728185" lon="-105.2308701">
  <ele>1595.44</ele>
  <time>2026-08-27T18:29:29Z</time>
  <course>317.58</course>
  <speed>0.1</speed>
  <fix>3d</fix>
</trkpt>
<trkpt lat="40.0728189" lon="-105.2308702">
  <ele>1595.52</ele>
  <time>2026-08-27T18:29:29Z</time>
  <course>62.25</course>
  <speed>0.09433981132056603</speed>
  <fix>3d</fix>
</trkpt>
<trkpt lat="40.0728186" lon="-105.2308702">
  <ele>1595.44</ele>
  <time>2026-08-27T18:29:29Z</time>
  <course>314.78</course>
  <speed>0.1</speed>
  <fix>3d</fix>
</trkpt>
<trkpt lat="40.072819" lon="-105.2308703">
  <ele>1595.52</ele>
  <time>2026-08-27T18:29:29Z</time>
  <course>62.26</course>
  <speed>0.08602325267042626</speed>
  <fix>3d</fix>
</trkpt>
<trkpt lat="40.0728188" lon="-105.2308704">
  <ele>1595.43</ele>
  <time>2026-08-27T18:29:29Z</time>
  <course>312.43</course>
  <speed>0.09</speed>
  <fix>3d</fix>
</trkpt>
<trkpt lat="40.0728191" lon="-105.2308705">
  <ele>1595.52</ele>
  <time>2026-08-27T18:29:29Z</time>
  <course>62.28</course>
  <speed>0.07810249675906654</speed>
  <fix>3d</fix>
</trkpt>
<trkpt lat="40.0728189" lon="-105.2308706">
  <ele>1595.43</ele>
  <time>2026-08-27T18:29:29Z</time>
  <course>310.1</course>
  <speed>0.08</speed>
  <fix>3d</fix>
</trkpt>
<trkpt lat="40.0728192" lon="-105.2308706">
  <ele>1595.51</ele>
  <time>2026-08-27T18:29:29Z</time>
  <course>62.28</course>
  <speed>0.07211102550927978</speed>
  <fix>3d</fix>
</trkpt>
<trkpt lat="40.0728189" lon="-105.2308707">
  <ele>1595.42</ele>
  <time>2026-08-27T18:29:29Z</time>
  <course>307.52</course>
  <speed>0.07</speed>
  <fix>3d</fix>
</trkpt>
<trkpt lat="40.0728192" lon="-105.2308708">
  <ele>1595.51</ele>
  <time>2026-08-27T18:29:29Z</time>
  <course>62.24</course>
  <speed>0.06403124237432849</speed>
  <fix>3d</fix>
</trkpt>
<trkpt lat="40.072819" lon="-105.2308708">
  <ele>1595.42</ele>
  <time>2026-08-27T18:29:29Z</time>
  <course>304.59</course>
  <speed>0.07</speed>
  <fix>3d</fix>
</trkpt>
<trkpt lat="40.0728193" lon="-105.2308709">
  <ele>1595.5</ele>
  <time>2026-08-27T18:29:29Z</time>
  <course>62.23</course>
  <speed>0.0565685424949238</speed>
  <fix>3d</fix>
</trkpt>
<trkpt lat="40.0728191" lon="-105.230871">
  <ele>1595.41</ele>
  <time>2026-08-27T18:29:29Z</time>
  <course>301.38</course>
  <speed>0.06</speed>
  <fix>3d</fix>
</trkpt>
<trkpt lat="40.0728193" lon="-105.230871">
  <ele>1595.49</ele>
  <time>2026-08-27T18:29:29Z</time>
  <course>62.24</course>
  <speed>0.0565685424949238</speed>
  <fix>3d</fix>
</trkpt>
<trkpt lat="40.0728192" lon="-105.2308711">
  <ele>1595.41</ele>
  <time>2026-08-27T18:29:29Z</time>
  <course>298.01</course>
  <speed>0.05</speed>
  <fix>3d</fix>
</trkpt>
<trkpt lat="40.0728193" lon="-105.2308711">
  <ele>1595.49</ele>
  <time>2026-08-27T18:29:29Z</time>
  <course>62.22</course>
  <speed>0.04242640687119285</speed>
  <fix>3d</fix>
</trkpt>
<trkpt lat="40.0728192" lon="-105.2308712">
  <ele>1595.41</ele>
  <time>2026-08-27T18:29:29Z</time>
  <course>294.35</course>
  <speed>0.05</speed>
  <fix>3d</fix>
</trkpt>
<trkpt lat="40.0728194" lon="-105.2308712">
  <ele>1595.49</ele>
  <time>2026-08-27T18:29:29Z</time>
  <course>62.22</course>
  <speed>0.04242640687119285</speed>
  <fix>3d</fix>
</trkpt>
<trkpt lat="40.0728193" lon="-105.2308713">
  <ele>1595.4</ele>
  <time>2026-08-27T18:29:29Z</time>
  <course>290.35</course>
  <speed>0.04</speed>
  <fix>3d</fix>
</trkpt>
<trkpt lat="40.0728194" lon="-105.2308713">
  <ele>1595.49</ele>
  <time>2026-08-27T18:29:29Z</time>
  <course>62.22</course>
  <speed>0.03605551275463989</speed>
  <fix>3d</fix>
</trkpt>
<trkpt lat="40.0728193" lon="-105.2308714">
  <ele>1595.4</ele>
  <time>2026-08-27T18:29:29Z</time>
  <course>286.11</course>
  <speed>0.04</speed>
  <fix>3d</fix>
</trkpt>
<trkpt lat="40.0728194" lon="-105.2308714">
  <ele>1595.49</ele>
  <time>2026-08-27T18:29:29Z</time>
  <course>62.22</course>
  <speed>0.03605551275463989</speed>
  <fix>3d</fix>
</trkpt>
<trkpt lat="40.0728193" lon="-105.2308715">
  <ele>1595.4</ele>
  <time>2026-08-27T18:29:29Z</time>
  <course>281.63</course>
  <speed>0.04</speed>
  <fix>3d</fix>
</trkpt>
<trkpt lat="40.0728194" lon="-105.2308716">
  <ele>1595.48</ele>
  <time>2026-08-27T18:29:29Z</time>
  <course>62.21</course>
  <speed>0.05830951894845301</speed>
  <fix>3d</fix>
</trkpt>
<trkpt lat="40.0728193" lon="-105.2308716">
  <ele>1595.4</ele>
  <time>2026-08-27T18:29:29Z</time>
  <course>295.14</course>
  <speed>0.05</speed>
  <fix>3d</fix>
</trkpt>
<trkpt lat="40.0728195" lon="-105.2308717">
  <ele>1595.48</ele>
  <time>2026-08-27T18:29:29Z</time>
  <course>62.27</course>
  <speed>0.0565685424949238</speed>
  <fix>3d</fix>
</trkpt>
<trkpt lat="40.0728194" lon="-105.2308717">
  <ele>1595.4</ele>
  <time>2026-08-27T18:29:29Z</time>
  <course>298.04</course>
  <speed>0.05</speed>
  <fix>3d</fix>
</trkpt>
<trkpt lat="40.0728195" lon="-105.2308717">
  <ele>1595.48</ele>
  <time>2026-08-27T18:29:29Z</time>
  <course>62.37</course>
  <speed>0.022360679774997897</speed>
  <fix>3d</fix>
</trkpt>
<trkpt lat="40.0728194" lon="-105.2308718">
  <ele>1595.4</ele>
  <time>2026-08-27T18:29:29Z</time>
  <course>276.96</course>
  <speed>0.03</speed>
  <fix>3d</fix>
</trkpt>
<trkpt lat="40.0728195" lon="-105.2308718">
  <ele>1595.48</ele>
  <time>2026-08-27T18:29:29Z</time>
  <course>62.35</course>
  <speed>0.01</speed>
  <fix>3d</fix>
</trkpt>
<trkpt lat="40.0728194" lon="-105.2308719">
  <ele>1595.41</ele>
  <time>2026-08-27T18:29:29Z</time>
  <course>272.61</course>
  <speed>0.03</speed>
  <fix>3d</fix>
</trkpt>
<trkpt lat="40.0728195" lon="-105.2308719">
  <ele>1595.49</ele>
  <time>2026-08-27T18:29:29Z</time>
  <course>62.27</course>
  <speed>0.0282842712474619</speed>
  <fix>3d</fix>
</trkpt>
<trkpt lat="40.0728194" lon="-105.230872">
  <ele>1595.41</ele>
  <time>2026-08-27T18:29:29Z</time>
  <course>275.88</course>
  <speed>0.03</speed>
  <fix>3d</fix>
</trkpt>
<trkpt lat="40.0728195" lon="-105.2308719">
  <ele>1595.49</ele>
  <time>2026-08-27T18:29:29Z</time>
  <course>62.34</course>
  <speed>0.01414213562373095</speed>
  <fix>3d</fix>
</trkpt>
<trkpt lat="40.0728194" lon="-105.2308721">
  <ele>1595.41</ele>
  <time>2026-08-27T18:29:29Z</time>
  <course>242.67</course>
  <speed>0.02</speed>
  <fix>3d</fix>
</trkpt>
<trkpt lat="40.0728195" lon="-105.230872">
  <ele>1595.49</ele>
  <time>2026-08-27T18:29:29Z</time>
  <course>62.41</course>
  <speed>0.0</speed>
  <fix>3d</fix>
</trkpt>
<trkpt lat="40.0728194" lon="-105.2308721">
  <ele>1595.41</ele>
  <time>2026-08-27T18:29:29Z</time>
  <course>203.54</course>
  <speed>0.03</speed>
  <fix>3d</fix>
</trkpt>
<trkpt lat="40.0728195" lon="-105.230872">
  <ele>1595.48</ele>
  <time>2026-08-27T18:29:29Z</time>
  <course>62.37</course>
  <speed>0.0</speed>
  <fix>3d</fix>
</trkpt>
<trkpt lat="40.0728194" lon="-105.2308721">
  <ele>1595.41</ele>
  <time>2026-08-27T18:29:29Z</time>
  <course>213.33</course>
  <speed>0.02</speed>
  <fix>3d</fix>
</trkpt>
<trkpt lat="40.0728195" lon="-105.230872">
  <ele>1595.49</ele>
  <time>2026-08-27T18:29:29Z</time>
  <course>62.28</course>
  <speed>0.01</speed>
  <fix>3d</fix>
</trkpt>
<trkpt lat="40.0728194" lon="-105.2308721">
  <ele>1595.42</ele>
  <time>2026-08-27T18:29:29Z</time>
  <course>239.43</course>
  <speed>0.02</speed>
  <fix>3d</fix>
</trkpt>
<trkpt lat="40.0728194" lon="-105.2308721">
  <ele>1595.49</ele>
  <time>2026-08-27T18:29:29Z</time>
  <course>62.35</course>
  <speed>0.0</speed>
  <fix>3d</fix>
</trkpt>
<trkpt lat="40.0728193" lon="-105.2308722">
  <ele>1595.42</ele>
  <time>2026-08-27T18:29:29Z</time>
  <course>207.86</course>
  <speed>0.02</speed>
  <fix>3d</fix>
</trkpt>
<trkpt lat="40.0728194" lon="-105.2308721">
  <ele>1595.5</ele>
  <time>2026-08-27T18:29:29Z</time>
  <course>62.41</course>
  <speed>0.01</speed>
  <fix>3d</fix>
</trkpt>
<trkpt lat="40.0728193" lon="-105.2308723">
  <ele>1595.42</ele>
  <time>2026-08-27T18:29:29Z</time>
  <course>186.57</course>
  <speed>0.03</speed>
  <fix>3d</fix>
</trkpt>
<trkpt lat="40.0728194" lon="-105.2308721">
  <ele>1595.5</ele>
  <time>2026-08-27T18:29:29Z</time>
  <course>62.39</course>
  <speed>0.01</speed>
  <fix>3d</fix>
</trkpt>
<trkpt lat="40.0728193" lon="-105.2308723">
  <ele>1595.42</ele>
  <time>2026-08-27T18:29:29Z</time>
  <course>198.37</course>
  <speed>0.02</speed>
  <fix>3d</fix>
</trkpt>
<trkpt lat="40.0728193" lon="-105.2308721">
  <ele>1595.5</ele>
  <time>2026-08-27T18:29:29Z</time>
  <course>62.31</course>
  <speed>0.0</speed>
  <fix>3d</fix>
</trkpt>
<trkpt lat="40.0728192" lon="-105.2308723">
  <ele>1595.42</ele>
  <time>2026-08-27T18:29:29Z</time>
  <course>224.93</course>
  <speed>0.02</speed>
  <fix>3d</fix>
</trkpt>
<trkpt lat="40.0728193" lon="-105.2308722">
  <ele>1595.5</ele>
  <time>2026-08-27T18:29:29Z</time>
  <course>62.38</course>
  <speed>0.0</speed>
  <fix>3d</fix>
</trkpt>
<trkpt lat="40.0728192" lon="-105.2308723">
  <ele>1595.42</ele>
  <time>2026-08-27T18:29:29Z</time>
  <course>201.09</course>
  <speed>0.02</speed>
  <fix>3d</fix>
</trkpt>
<trkpt lat="40.0728193" lon="-105.2308722">
  <ele>1595.5</ele>
  <time>2026-08-27T18:29:29Z</time>
  <course>62.44</course>
  <speed>0.01</speed>
  <fix>3d</fix>
</trkpt>
<trkpt lat="40.0728191" lon="-105.2308724">
  <ele>1595.42</ele>
  <time>2026-08-27T18:29:29Z</time>
  <course>184.98</course>
  <speed>0.03</speed>
  <fix>3d</fix>
</trkpt>
<trkpt lat="40.0728192" lon="-105.2308722">
  <ele>1595.5</ele>
  <time>2026-08-27T18:29:29Z</time>
  <course>62.4</course>
  <speed>0.01</speed>
  <fix>3d</fix>
</trkpt>
<trkpt lat="40.072819" lon="-105.2308724">
  <ele>1595.42</ele>
  <time>2026-08-27T18:29:29Z</time>
  <course>196.44</course>
  <speed>0.02</speed>
  <fix>3d</fix>
</trkpt>
<trkpt lat="40.0728192" lon="-105.2308722">
  <ele>1595.51</ele>
  <time>2026-08-27T18:29:29Z</time>
  <course>62.31</course>
  <speed>0.0</speed>
  <fix>3d</fix>
</trkpt>
<trkpt lat="40.072819" lon="-105.2308724">
  <ele>1595.42</ele>
  <time>2026-08-27T18:29:29Z</time>
  <course>220.05</course>
  <speed>0.02</speed>
  <fix>3d</fix>
</trkpt>
<trkpt lat="40.0728191" lon="-105.2308723">
  <ele>1595.51</ele>
  <time>2026-08-27T18:29:29Z</time>
  <course>62.41</course>
  <speed>0.0</speed>
  <fix>3d</fix>
</trkpt>
<trkpt lat="40.0728189" lon="-105.2308724">
  <ele>1595.42</ele>
  <time>2026-08-27T18:29:29Z</time>
  <course>198.63</course>
  <speed>0.02</speed>
  <fix>3d</fix>
</trkpt>
<trkpt lat="40.0728191" lon="-105.2308723">
  <ele>1595.51</ele>
  <time>2026-08-27T18:29:29Z</time>
  <course>62.47</course>
  <speed>0.01</speed>
  <fix>3d</fix>
</trkpt>
<trkpt lat="40.0728189" lon="-105.2308724">
  <ele>1595.42</ele>
  <time>2026-08-27T18:29:29Z</time>
  <course>184.31</course>
  <speed>0.03</speed>
  <fix>3d</fix>
</trkpt>
<trkpt lat="40.0728191" lon="-105.2308723">
  <ele>1595.5</ele>
  <time>2026-08-27T18:29:29Z</time>
  <course>62.33</course>
  <speed>0.0412310562561766</speed>
  <fix>3d</fix>
</trkpt>
<trkpt lat="40.0728189" lon="-105.2308724">
  <ele>1595.41</ele>
  <time>2026-08-27T18:29:29Z</time>
  <course>221.4</course>
  <speed>0.01</speed>
  <fix>3d</fix>
</trkpt>
<trkpt lat="40.0728191" lon="-105.2308724">
  <ele>1595.5</ele>
  <time>2026-08-27T18:29:29Z</time>
  <course>62.26</course>
  <speed>0.09486832980505139</speed>
  <fix>3d</fix>
</trkpt>
<trkpt lat="40.0728189" lon="-105.2308725">
  <ele>1595.41</ele>
  <time>2026-08-27T18:29:29Z</time>
  <course>318.76</course>
  <speed>0.04</speed>
  <fix>3d</fix>
</trkpt>
<trkpt lat="40.0728192" lon="-105.2308725">
  <ele>1595.49</ele>
  <time>2026-08-27T18:29:29Z</time>
  <course>62.24</course>
  <speed>0.10770329614269007</speed>
  <fix>3d</fix>
</trkpt>
<trkpt lat="40.0728189" lon="-105.2308726">
  <ele>1595.41</ele>
  <time>2026-08-27T18:29:29Z</time>
  <course>327.13</course>
  <speed>0.08</speed>
  <fix>3d</fix>
</trkpt>
<trkpt lat="40.0728193" lon="-105.2308727">
  <ele>1595.49</ele>
  <time>2026-08-27T18:29:29Z</time>
  <course>62.21</course>
  <speed>0.1118033988749895</speed>
  <fix>3d</fix>
</trkpt>
<trkpt lat="40.072819" lon="-105.2308727">
  <ele>1595.41</ele>
  <time>2026-08-27T18:29:29Z</time>
  <course>323.93</course>
  <speed>0.1</speed>
  <fix>3d</fix>
</trkpt>
<trkpt lat="40.0728194" lon="-105.2308728">
  <ele>1595.49</ele>
  <time>2026-08-27T18:29:29Z</time>
  <course>62.21</course>
  <speed>0.10816653826391968</speed>
  <fix>3d</fix>
</trkpt>
<trkpt lat="40.0728192" lon="-105.2308729">
  <ele>1595.41</ele>
  <time>2026-08-27T18:29:29Z</time>
  <course>320.0</course>
  <speed>0.1</speed>
  <fix>3d</fix>
</trkpt>
<trkpt lat="40.0728196" lon="-105.230873">
  <ele>1595.5</ele>
  <time>2026-08-27T18:29:29Z</time>
  <course>62.2</course>
  <speed>0.09433981132056603</speed>
  <fix>3d</fix>
</trkpt>
<trkpt lat="40.0728193" lon="-105.230873">
  <ele>1595.41</ele>
  <time>2026-08-27T18:29:29Z</time>
  <course>316.66</course>
  <speed>0.1</speed>
  <fix>3d</fix>
</trkpt>
<trkpt lat="40.0728197" lon="-105.2308731">
  <ele>1595.5</ele>
  <time>2026-08-27T18:29:29Z</time>
  <course>62.21</course>
  <speed>0.08602325267042626</speed>
  <fix>3d</fix>
</trkpt>
<trkpt lat="40.0728194" lon="-105.2308731">
  <ele>1595.41</ele>
  <time>2026-08-27T18:29:29Z</time>
  <course>313.82</course>
  <speed>0.09</speed>
  <fix>3d</fix>
</trkpt>
<trkpt lat="40.0728198" lon="-105.2308733">
  <ele>1595.5</ele>
  <time>2026-08-27T18:29:29Z</time>
  <course>62.21</course>
  <speed>0.08602325267042626</speed>
  <fix>3d</fix>
</trkpt>
<trkpt lat="40.0728195" lon="-105.2308733">
  <ele>1595.41</ele>
  <time>2026-08-27T18:29:29Z</time>
  <course>311.3</course>
  <speed>0.08</speed>
  <fix>3d</fix>
</trkpt>
<trkpt lat="40.0728198" lon="-105.2308734">
  <ele>1595.49</ele>
  <time>2026-08-27T18:29:29Z</time>
  <course>62.22</course>
  <speed>0.07211102550927978</speed>
  <fix>3d</fix>
</trkpt>
<trkpt lat="40.0728196" lon="-105.2308735">
  <ele>1595.41</ele>
  <time>2026-08-27T18:29:29Z</time>
  <course>309.01</course>
  <speed>0.07</speed>
  <fix>3d</fix>
</trkpt>
<trkpt lat="40.0728199" lon="-105.2308736">
  <ele>1595.49</ele>
  <time>2026-08-27T18:29:29Z</time>
  <course>62.22</course>
  <speed>0.06403124237432849</speed>
  <fix>3d</fix>
</trkpt>
<trkpt lat="40.0728197" lon="-105.2308736">
  <ele>1595.41</ele>
  <time>2026-08-27T18:29:29Z</time>
  <course>306.47</course>
  <speed>0.07</speed>
  <fix>3d</fix>
</trkpt>
<trkpt lat="40.0728199" lon="-105.2308737">
  <ele>1595.49</ele>
  <time>2026-08-27T18:29:29Z</time>
  <course>62.22</course>
  <speed>0.06403124237432849</speed>
  <fix>3d</fix>
</trkpt>
<trkpt lat="40.0728198" lon="-105.2308737">
  <ele>1595.41</ele>
  <time>2026-08-27T18:29:29Z</time>
  <course>303.33</course>
  <speed>0.06</speed>
  <fix>3d</fix>
</trkpt>
<trkpt lat="40.07282" lon="-105.2308738">
  <ele>1595.49</ele>
  <time>2026-08-27T18:29:29Z</time>
  <course>62.22</course>
  <speed>0.0565685424949238</speed>
  <fix>3d</fix>
</trkpt>
<trkpt lat="40.0728199" lon="-105.2308739">
  <ele>1595.41</ele>
  <time>2026-08-27T18:29:29Z</time>
  <course>299.76</course>
  <speed>0.06</speed>
  <fix>3d</fix>
</trkpt>
<trkpt lat="40.07282" lon="-105.2308739">
  <ele>1595.49</ele>
  <time>2026-08-27T18:29:29Z</time>
  <course>62.22</course>
  <speed>0.04242640687119285</speed>
  <fix>3d</fix>
</trkpt>
<trkpt lat="40.0728199" lon="-105.230874">
  <ele>1595.41</ele>
  <time>2026-08-27T18:29:29Z</time>
  <course>295.84</course>
  <speed>0.05</speed>
  <fix>3d</fix>
</trkpt>
<trkpt lat="40.0728201" lon="-105.230874">
  <ele>1595.48</ele>
  <time>2026-08-27T18:29:29Z</time>
  <course>62.22</course>
  <speed>0.04242640687119285</speed>
  <fix>3d</fix>
</trkpt>
<trkpt lat="40.07282" lon="-105.2308741">
  <ele>1595.41</ele>
  <time>2026-08-27T18:29:29Z</time>
  <course>291.54</course>
  <speed>0.05</speed>
  <fix>3d</fix>
</trkpt>
<trkpt lat="40.0728201" lon="-105.2308741">
  <ele>1595.49</ele>
  <time>2026-08-27T18:29:29Z</time>
  <course>62.21</course>
  <speed>0.04242640687119285</speed>
  <fix>3d</fix>
</trkpt>
<trkpt lat="40.07282" lon="-105.2308742">
  <ele>1595.41</ele>
  <time>2026-08-27T18:29:29Z</time>
  <course>286.87</course>
  <speed>0.04</speed>
  <fix>3d</fix>
</trkpt>
<trkpt lat="40.0728201" lon="-105.2308742">
  <ele>1595.49</ele>
  <time>2026-08-27T18:29:29Z</time>
  <course>62.22</course>
  <speed>0.03605551275463989</speed>
  <fix>3d</fix>
</trkpt>
<trkpt lat="40.07282" lon="-105.2308743">
  <ele>1595.41</ele>
  <time>2026-08-27T18:29:29Z</time>
  <course>282.21</course>
  <speed>0.04</speed>
  <fix>3d</fix>
</trkpt>
<trkpt lat="40.0728201" lon="-105.2308743">
  <ele>1595.49</ele>
  <time>2026-08-27T18:29:29Z</time>
  <course>62.21</course>
  <speed>0.04242640687119285</speed>
  <fix>3d</fix>
</trkpt>
<trkpt lat="40.07282" lon="-105.2308744">
  <ele>1595.41</ele>
  <time>2026-08-27T18:29:29Z</time>
  <course>278.58</course>
  <speed>0.04</speed>
  <fix>3d</fix>
</trkpt>
<trkpt lat="40.0728202" lon="-105.2308745">
  <ele>1595.5</ele>
  <time>2026-08-27T18:29:29Z</time>
  <course>62.32</course>
  <speed>0.04242640687119285</speed>
  <fix>3d</fix>
</trkpt>
<trkpt lat="40.07282" lon="-105.2308745">
  <ele>1595.41</ele>
  <time>2026-08-27T18:29:29Z</time>
  <course>292.7</course>
  <speed>0.04</speed>
  <fix>3d</fix>
</trkpt>
<trkpt lat="40.0728202" lon="-105.2308746">
  <ele>1595.5</ele>
  <time>2026-08-27T18:29:29Z</time>
  <course>62.27</course>
  <speed>0.0565685424949238</speed>
  <fix>3d</fix>
</trkpt>
<trkpt lat="40.0728201" lon="-105.2308746">
  <ele>1595.41</ele>
  <time>2026-08-27T18:29:29Z</time>
  <course>301.75</course>
  <speed>0.05</speed>
  <fix>3d</fix>
</trkpt>
<trkpt lat="40.0728202" lon="-105.2308747">
  <ele>1595.5</ele>
  <time>2026-08-27T18:29:29Z</time>
  <course>62.4</course>
  <speed>0.04242640687119285</speed>
  <fix>3d</fix>
</trkpt>
<trkpt lat="40.0728201" lon="-105.2308747">
  <ele>1595.41</ele>
  <time>2026-08-27T18:29:29Z</time>
  <course>284.89</course>
  <speed>0.04</speed>
  <fix>3d</fix>
</trkpt>
<trkpt lat="40.0728202" lon="-105.2308747">
  <ele>1595.5</ele>
  <time>2026-08-27T18:29:29Z</time>
  <course>62.5</course>
  <speed>0.01</speed>
  <fix>3d</fix>
</trkpt>
<trkpt lat="40.0728201" lon="-105.2308748">
  <ele>1595.41</ele>
  <time>2026-08-27T18:29:29Z</time>
  <course>245.03</course>
  <speed>0.03</speed>
  <fix>3d</fix>
</trkpt>
<trkpt lat="40.0728202" lon="-105.2308748">
  <ele>1595.5</ele>
  <time>2026-08-27T18:29:29Z</time>
  <course>62.48</course>
  <speed>0.0</speed>
  <fix>3d</fix>
</trkpt>
<trkpt lat="40.0728201" lon="-105.2308749">
  <ele>1595.41</ele>
  <time>2026-08-27T18:29:29Z</time>
  <course>247.22</course>
  <speed>0.02</speed>
  <fix>3d</fix>
</trkpt>
<trkpt lat="40.0728202" lon="-105.2308748">
  <ele>1595.49</ele>
  <time>2026-08-27T18:29:29Z</time>
  <course>62.34</course>
  <speed>0.01414213562373095</speed>
  <fix>3d</fix>
</trkpt>
<trkpt lat="40.0728201" lon="-105.230875">
  <ele>1595.41</ele>
  <time>2026-08-27T18:29:29Z</time>
  <course>266.2</course>
  <speed>0.02</speed>
  <fix>3d</fix>
</trkpt>
<trkpt lat="40.0728202" lon="-105.2308749">
  <ele>1595.5</ele>
  <time>2026-08-27T18:29:29Z</time>
  <course>62.41</course>
  <speed>0.01414213562373095</speed>
  <fix>3d</fix>
</trkpt>
<trkpt lat="40.0728201" lon="-105.230875">
  <ele>1595.41</ele>
  <time>2026-08-27T18:29:29Z</time>
  <course>227.28</course>
  <speed>0.02</speed>
  <fix>3d</fix>
</trkpt>
<trkpt lat="40.0728202" lon="-105.2308749">
  <ele>1595.5</ele>
  <time>2026-08-27T18:29:29Z</time>
  <course>62.48</course>
  <speed>0.01</speed>
  <fix>3d</fix>
</trkpt>
<trkpt lat="40.0728201" lon="-105.230875">
  <ele>1595.41</ele>
  <time>2026-08-27T18:29:29Z</time>
  <course>190.54</course>
  <speed>0.03</speed>
  <fix>3d</fix>
</trkpt>
<trkpt lat="40.0728202" lon="-105.2308749">
  <ele>1595.5</ele>
  <time>2026-08-27T18:29:29Z</time>
  <course>62.47</course>
  <speed>0.0</speed>
  <fix>3d</fix>
</trkpt>
<trkpt lat="40.0728201" lon="-105.230875">
  <ele>1595.41</ele>
  <time>2026-08-27T18:29:29Z</time>
  <course>203.06</course>
  <speed>0.02</speed>
  <fix>3d</fix>
</trkpt>
<trkpt lat="40.0728201" lon="-105.2308749">
  <ele>1595.5</ele>
  <time>2026-08-27T18:29:29Z</time>
  <course>62.35</course>
  <speed>0.01</speed>
  <fix>3d</fix>
</trkpt>
<trkpt lat="40.0728201" lon="-105.230875">
  <ele>1595.41</ele>
  <time>2026-08-27T18:29:29Z</time>
  <course>240.62</course>
  <speed>0.01</speed>
  <fix>3d</fix>
</trkpt>
<trkpt lat="40.0728201" lon="-105.230875">
  <ele>1595.5</ele>
  <time>2026-08-27T18:29:29Z</time>
  <course>62.42</course>
  <speed>0.0</speed>
  <fix>3d</fix>
</trkpt>
<trkpt lat="40.07282" lon="-105.2308751">
  <ele>1595.41</ele>
  <time>2026-08-27T18:29:29Z</time>
  <course>204.19</course>
  <speed>0.02</speed>
  <fix>3d</fix>
</trkpt>
<trkpt lat="40.0728201" lon="-105.230875">
  <ele>1595.49</ele>
  <time>2026-08-27T18:29:29Z</time>
  <course>62.49</course>
  <speed>0.01</speed>
  <fix>3d</fix>
</trkpt>
<trkpt lat="40.07282" lon="-105.2308752">
  <ele>1595.41</ele>
  <time>2026-08-27T18:29:29Z</time>
  <course>182.06</course>
  <speed>0.03</speed>
  <fix>3d</fix>
</trkpt>
<trkpt lat="40.0728201" lon="-105.230875">
  <ele>1595.49</ele>
  <time>2026-08-27T18:29:29Z</time>
  <course>62.45</course>
  <speed>0.01</speed>
  <fix>3d</fix>
</trkpt>
<trkpt lat="40.0728199" lon="-105.2308752">
  <ele>1595.4</ele>
  <time>2026-08-27T18:29:29Z</time>
  <course>194.35</course>
  <speed>0.02</speed>
  <fix>3d</fix>
</trkpt>
<trkpt lat="40.07282" lon="-105.230875">
  <ele>1595.49</ele>
  <time>2026-08-27T18:29:29Z</time>
  <course>62.34</course>
  <speed>0.01</speed>
  <fix>3d</fix>
</trkpt>
<trkpt lat="40.0728199" lon="-105.2308752">
  <ele>1595.4</ele>
  <time>2026-08-27T18:29:29Z</time>
  <course>227.08</course>
  <speed>0.01</speed>
  <fix>3d</fix>
</trkpt>
<trkpt lat="40.07282" lon="-105.2308751">
  <ele>1595.48</ele>
  <time>2026-08-27T18:29:29Z</time>
  <course>62.39</course>
  <speed>0.0</speed>
  <fix>3d</fix>
</trkpt>
<trkpt lat="40.0728198" lon="-105.2308752">
  <ele>1595.4</ele>
  <time>2026-08-27T18:29:29Z</time>
  <course>198.18</course>
  <speed>0.02</speed>
  <fix>3d</fix>
</trkpt>
<trkpt lat="40.0728199" lon="-105.2308751">
  <ele>1595.48</ele>
  <time>2026-08-27T18:29:29Z</time>
  <course>62.46</course>
  <speed>0.01</speed>
  <fix>3d</fix>
</trkpt>
<trkpt lat="40.0728198" lon="-105.2308752">
  <ele>1595.4</ele>
  <time>2026-08-27T18:29:29Z</time>
  <course>180.68</course>
  <speed>0.03</speed>
  <fix>3d</fix>
</trkpt>
<trkpt lat="40.0728199" lon="-105.2308751">
  <ele>1595.48</ele>
  <time>2026-08-27T18:29:29Z</time>
  <course>62.41</course>
  <speed>0.01</speed>
  <fix>3d</fix>
</trkpt>
<trkpt lat="40.0728198" lon="-105.2308752">
  <ele>1595.4</ele>
  <time>2026-08-27T18:29:29Z</time>
  <course>192.2</course>
  <speed>0.02</speed>
  <fix>3d</fix>
</trkpt>
<trkpt lat="40.0728199" lon="-105.2308751">
  <ele>1595.48</ele>
  <time>2026-08-27T18:29:29Z</time>
  <course>62.3</course>
  <speed>0.01</speed>
  <fix>3d</fix>
</trkpt>
<trkpt lat="40.0728197" lon="-105.2308752">
  <ele>1595.41</ele>
  <time>2026-08-27T18:29:29Z</time>
  <course>222.82</course>
  <speed>0.02</speed>
  <fix>3d</fix>
</trkpt>
<trkpt lat="40.0728198" lon="-105.2308751">
  <ele>1595.48</ele>
  <time>2026-08-27T18:29:29Z</time>
  <course>62.38</course>
  <speed>0.0</speed>
  <fix>3d</fix>
</trkpt>
<trkpt lat="40.0728196" lon="-105.2308752">
  <ele>1595.41</ele>
  <time>2026-08-27T18:29:29Z</time>
  <course>196.49</course>
  <speed>0.02</speed>
  <fix>3d</fix>
</trkpt>
<trkpt lat="40.0728199" lon="-105.2308752">
  <ele>1595.48</ele>
  <time>2026-08-27T18:29:29Z</time>
  <course>62.28</course>
  <speed>0.06082762530298219</speed>
  <fix>3d</fix>
</trkpt>
<trkpt lat="40.0728195" lon="-105.2308752">
  <ele>1595.41</ele>
  <time>2026-08-27T18:29:29Z</time>
  <course>244.57</course>
  <speed>0.01</speed>
  <fix>3d</fix>
</trkpt>
<trkpt lat="40.0728199" lon="-105.2308753">
  <ele>1595.49</ele>
  <time>2026-08-27T18:29:29Z</time>
  <course>62.25</course>
  <speed>0.10770329614269007</speed>
  <fix>3d</fix>
</trkpt>
<trkpt lat="40.0728196" lon="-105.2308753">
  <ele>1595.42</ele>
  <time>2026-08-27T18:29:29Z</time>
  <course>326.77</course>
  <speed>0.06</speed>
  <fix>3d</fix>
</trkpt>
<trkpt lat="40.07282" lon="-105.2308754">
  <ele>1595.5</ele>
  <time>2026-08-27T18:29:29Z</time>
  <course>62.23</course>
  <speed>0.12083045973594572</speed>
  <fix>3d</fix>
</trkpt>
<trkpt lat="40.0728197" lon="-105.2308754">
  <ele>1595.42</ele>
  <time>2026-08-27T18:29:29Z</time>
  <course>327.11</course>
  <speed>0.09</speed>
  <fix>3d</fix>
</trkpt>
<trkpt lat="40.0728201" lon="-105.2308755">
  <ele>1595.5</ele>
  <time>2026-08-27T18:29:29Z</time>
  <course>62.23</course>
  <speed>0.11661903789690602</speed>
  <fix>3d</fix>
</trkpt>
<trkpt lat="40.0728198" lon="-105.2308755">
  <ele>1595.42</ele>
  <time>2026-08-27T18:29:29Z</time>
  <course>323.36</course>
  <speed>0.1</speed>
  <fix>3d</fix>
</trkpt>
<trkpt lat="40.0728203" lon="-105.2308757">
  <ele>1595.5</ele>
  <time>2026-08-27T18:29:29Z</time>
  <course>62.22</course>
  <speed>0.10816653826391968</speed>
  <fix>3d</fix>
</trkpt>
<trkpt lat="40.07282" lon="-105.2308757">
  <ele>1595.43</ele>
  <time>2026-08-27T18:29:29Z</time>
  <course>319.68</course>
  <speed>0.1</speed>
  <fix>3d</fix>
</trkpt>
<trkpt lat="40.0728204" lon="-105.2308758">
  <ele>1595.5</ele>
  <time>2026-08-27T18:29:29Z</time>
  <course>62.22</course>
  <speed>0.09433981132056603</speed>
  <fix>3d</fix>
</trkpt>
<trkpt lat="40.0728201" lon="-105.2308759">
  <ele>1595.43</ele>
  <time>2026-08-27T18:29:29Z</time>
  <course>316.77</course>
  <speed>0.1</speed>
  <fix>3d</fix>
</trkpt>
<trkpt lat="40.0728205" lon="-105.230876">
  <ele>1595.51</ele>
  <time>2026-08-27T18:29:29Z</time>
  <course>62.22</course>
  <speed>0.08602325267042626</speed>
  <fix>3d</fix>
</trkpt>
<trkpt lat="40.0728202" lon="-105.230876">
  <ele>1595.43</ele>
  <time>2026-08-27T18:29:29Z</time>
  <course>314.32</course>
  <speed>0.09</speed>
  <fix>3d</fix>
</trkpt>
<trkpt lat="40.0728206" lon="-105.2308761">
  <ele>1595.51</ele>
  <time>2026-08-27T18:29:29Z</time>
  <course>62.24</course>
  <speed>0.08602325267042626</speed>
  <fix>3d</fix>
</trkpt>
<trkpt lat="40.0728203" lon="-105.2308762">
  <ele>1595.43</ele>
  <time>2026-08-27T18:29:29Z</time>
  <course>312.15</course>
  <speed>0.08</speed>
  <fix>3d</fix>
</trkpt>
<trkpt lat="40.0728206" lon="-105.2308763">
  <ele>1595.51</ele>
  <time>2026-08-27T18:29:29Z</time>
  <course>62.23</course>
  <speed>0.07211102550927978</speed>
  <fix>3d</fix>
</trkpt>
<trkpt lat="40.0728204" lon="-105.2308764">
  <ele>1595.43</ele>
  <time>2026-08-27T18:29:29Z</time>
  <course>309.96</course>
  <speed>0.07</speed>
  <fix>3d</fix>
</trkpt>
<trkpt lat="40.0728207" lon="-105.2308764">
  <ele>1595.51</ele>
  <time>2026-08-27T18:29:29Z</time>
  <course>62.24</course>
  <speed>0.06403124237432849</speed>
  <fix>3d</fix>
</trkpt>
<trkpt lat="40.0728205" lon="-105.2308765">
  <ele>1595.42</ele>
  <time>2026-08-27T18:29:29Z</time>
  <course>307.34</course>
  <speed>0.07</speed>
  <fix>3d</fix>
</trkpt>
<trkpt lat="40.0728208" lon="-105.2308766">
  <ele>1595.5</ele>
  <time>2026-08-27T18:29:29Z</time>
  <course>62.26</course>
  <speed>0.06403124237432849</speed>
  <fix>3d</fix>
</trkpt>
<trkpt lat="40.0728206" lon="-105.2308766">
  <ele>1595.42</ele>
  <time>2026-08-27T18:29:29Z</time>
  <course>304.57</course>
  <speed>0.06</speed>
  <fix>3d</fix>
</trkpt>
<trkpt lat="40.0728208" lon="-105.2308767">
  <ele>1595.5</ele>
  <time>2026-08-27T18:29:29Z</time>
  <course>62.24</course>
  <speed>0.0565685424949238</speed>
  <fix>3d</fix>
</trkpt>
<trkpt lat="40.0728207" lon="-105.2308767">
  <ele>1595.42</ele>
  <time>2026-08-27T18:29:29Z</time>
  <course>301.67</course>
  <speed>0.05</speed>
  <fix>3d</fix>
</trkpt>
<trkpt lat="40.0728209" lon="-105.2308768">
  <ele>1595.5</ele>
  <time>2026-08-27T18:29:29Z</time>
  <course>62.23</course>
  <speed>0.05</speed>
  <fix>3d</fix>
</trkpt>
<trkpt lat="40.0728207" lon="-105.2308768">
  <ele>1595.42</ele>
  <time>2026-08-27T18:29:29Z</time>
  <course>298.38</course>
  <speed>0.05</speed>
  <fix>3d</fix>
</trkpt>
<trkpt lat="40.0728209" lon="-105.2308769">
  <ele>1595.5</ele>
  <time>2026-08-27T18:29:29Z</time>
  <course>62.23</course>
  <speed>0.04242640687119285</speed>
  <fix>3d</fix>
</trkpt>
<trkpt lat="40.0728207" lon="-105.2308769">
  <ele>1595.41</ele>
  <time>2026-08-27T18:29:29Z</time>
  <course>294.77</course>
  <speed>0.04</speed>
  <fix>3d</fix>
</trkpt>
<trkpt lat="40.0728209" lon="-105.230877">
  <ele>1595.5</ele>
  <time>2026-08-27T18:29:29Z</time>
  <course>62.24</course>
  <speed>0.04242640687119285</speed>
  <fix>3d</fix>
</trkpt>
<trkpt lat="40.0728207" lon="-105.2308771">
  <ele>1595.41</ele>
  <time>2026-08-27T18:29:29Z</time>
  <course>290.77</course>
  <speed>0.04</speed>
  <fix>3d</fix>
</trkpt>
<trkpt lat="40.0728209" lon="-105.2308771">
  <ele>1595.5</ele>
  <time>2026-08-27T18:29:29Z</time>
  <course>62.24</course>
  <speed>0.03605551275463989</speed>
  <fix>3d</fix>
</trkpt>
<trkpt lat="40.0728208" lon="-105.2308772">
  <ele>1595.41</ele>
  <time>2026-08-27T18:29:29Z</time>
  <course>286.22</course>
  <speed>0.04</speed>
  <fix>3d</fix>
</trkpt>
<trkpt lat="40.0728209" lon="-105.2308772">
  <ele>1595.49</ele>
  <time>2026-08-27T18:29:29Z</time>
  <course>62.23</course>
  <speed>0.022360679774997897</speed>
  <fix>3d</fix>
</trkpt>
<trkpt lat="40.0728208" lon="-105.2308772">
  <ele>1595.41</ele>
  <time>2026-08-27T18:29:29Z</time>
  <course>283.36</course>
  <speed>0.03</speed>
  <fix>3d</fix>
</trkpt>
<trkpt lat="40.072821" lon="-105.2308771">
  <ele>1595.48</ele>
  <time>2026-08-27T18:29:29Z</time>
  <course>62.19</course>
  <speed>0.07810249675906654</speed>
  <fix>3d</fix>
</trkpt>
<trkpt lat="40.0728208" lon="-105.2308773">
  <ele>1595.41</ele>
  <time>2026-08-27T18:29:29Z</time>
  <course>348.63</course>
  <speed>0.01</speed>
  <fix>3d</fix>
</trkpt>
<trkpt lat="40.072821" lon="-105.2308769">
  <ele>1595.48</ele>
  <time>2026-08-27T18:29:29Z</time>
  <course>62.19</course>
  <speed>0.20615528128088303</speed>
  <fix>3d</fix>
</trkpt>
<trkpt lat="40.0728209" lon="-105.2308772">
  <ele>1595.41</ele>
  <time>2026-08-27T18:29:29Z</time>
  <course>65.58</course>
  <speed>0.1</speed>
  <fix>3d</fix>
</trkpt>
<trkpt lat="40.0728212" lon="-105.2308764">
  <ele>1595.48</ele>
  <time>2026-08-27T18:29:29Z</time>
  <course>62.2</course>
  <speed>0.25495097567963926</speed>
  <fix>3d</fix>
</trkpt>
<trkpt lat="40.072821" lon="-105.2308769">
  <ele>1595.41</ele>
  <time>2026-08-27T18:29:29Z</time>
  <course>69.23</course>
  <speed>0.21</speed>
  <fix>3d</fix>
</trkpt>
<trkpt lat="40.0728213" lon="-105.230876">
  <ele>1595.48</ele>
  <time>2026-08-27T18:29:29Z</time>
  <course>62.21</course>
  <speed>0.15</speed>
  <fix>3d</fix>
</trkpt>
<trkpt lat="40.0728212" lon="-105.2308765">
  <ele>1595.41</ele>
  <time>2026-08-27T18:29:29Z</time>
  <course>66.19</course>
  <speed>0.21</speed>
  <fix>3d</fix>
</trkpt>
<trkpt lat="40.0728214" lon="-105.230876">
  <ele>1595.48</ele>
  <time>2026-08-27T18:29:29Z</time>
  <course>62.24</course>
  <speed>0.0565685424949238</speed>
  <fix>3d</fix>
</trkpt>
<trkpt lat="40.0728213" lon="-105.2308761">
  <ele>1595.42</ele>
  <time>2026-08-27T18:29:29Z</time>
  <course>51.55</course>
  <speed>0.1</speed>
  <fix>3d</fix>
</trkpt>
<trkpt lat="40.0728214" lon="-105.2308762">
  <ele>1595.48</ele>
  <time>2026-08-27T18:29:29Z</time>
  <course>62.17</course>
  <speed>0.11</speed>
  <fix>3d</fix>
</trkpt>
<trkpt lat="40.0728213" lon="-105.2308761">
  <ele>1595.42</ele>
  <time>2026-08-27T18:29:29Z</time>
  <course>282.2</course>
  <speed>0.06</speed>
  <fix>3d</fix>
</trkpt>
<trkpt lat="40.0728214" lon="-105.2308763">
  <ele>1595.49</ele>
  <time>2026-08-27T18:29:29Z</time>
  <course>62.1</course>
  <speed>0.022360679774997897</speed>
  <fix>3d</fix>
</trkpt>
<trkpt lat="40.0728213" lon="-105.2308763">
  <ele>1595.42</ele>
  <time>2026-08-27T18:29:29Z</time>
  <course>254.01</course>
  <speed>0.09</speed>
  <fix>3d</fix>
</trkpt>
<trkpt lat="40.0728214" lon="-105.2308763">
  <ele>1595.49</ele>
  <time>2026-08-27T18:29:29Z</time>
  <course>62.14</course>
  <speed>0.1</speed>
  <fix>3d</fix>
</trkpt>
<trkpt lat="40.0728213" lon="-105.2308764">
  <ele>1595.43</ele>
  <time>2026-08-27T18:29:29Z</time>
  <course>180.9</course>
  <speed>0.03</speed>
  <fix>3d</fix>
</trkpt>
<trkpt lat="40.0728214" lon="-105.230876">
  <ele>1595.5</ele>
  <time>2026-08-27T18:29:29Z</time>
  <course>62.19</course>
  <speed>0.11045361017187261</speed>
  <fix>3d</fix>
</trkpt>
<trkpt lat="40.0728213" lon="-105.2308763">
  <ele>1595.43</ele>
  <time>2026-08-27T18:29:29Z</time>
  <course>98.01</course>
  <speed>0.09</speed>
  <fix>3d</fix>
</trkpt>
<trkpt lat="40.0728214" lon="-105.2308759">
  <ele>1595.5</ele>
  <time>2026-08-27T18:29:29Z</time>
  <course>62.26</course>
  <speed>0.0</speed>
  <fix>3d</fix>
</trkpt>
<trkpt lat="40.0728213" lon="-105.230876">
  <ele>1595.43</ele>
  <time>2026-08-27T18:29:29Z</time>
  <course>94.26</course>
  <speed>0.07</speed>
  <fix>3d</fix>
</trkpt>
<trkpt lat="40.0728214" lon="-105.2308761">
  <ele>1595.5</ele>
  <time>2026-08-27T18:29:29Z</time>
  <course>62.25</course>
  <speed>0.1019803902718557</speed>
  <fix>3d</fix>
</trkpt>
<trkpt lat="40.0728213" lon="-105.230876">
  <ele>1595.44</ele>
  <time>2026-08-27T18:29:29Z</time>
  <course>236.75</course>
  <speed>0.04</speed>
  <fix>3d</fix>
</trkpt>
<trkpt lat="40.0728213" lon="-105.2308762">
  <ele>1595.5</ele>
  <time>2026-08-27T18:29:29Z</time>
  <course>62.16</course>
  <speed>0.053851648071345036</speed>
  <fix>3d</fix>
</trkpt>
<trkpt lat="40.0728213" lon="-105.2308762">
  <ele>1595.44</ele>
  <time>2026-08-27T18:29:29Z</time>
  <course>244.79</course>
  <speed>0.1</speed>
  <fix>3d</fix>
</trkpt>
<trkpt lat="40.0728212" lon="-105.2308762">
  <ele>1595.5</ele>
  <time>2026-08-27T18:29:29Z</time>
  <course>62.18</course>
  <speed>0.07</speed>
  <fix>3d</fix>
</trkpt>
<trkpt lat="40.0728212" lon="-105.2308764">
  <ele>1595.43</ele>
  <time>2026-08-27T18:29:29Z</time>
  <course>210.36</course>
  <speed>0.04</speed>
  <fix>3d</fix>
</trkpt>
<trkpt lat="40.0728212" lon="-105.2308761">
  <ele>1595.5</ele>
  <time>2026-08-27T18:29:29Z</time>
  <course>62.19</course>
  <speed>0.09055385138137417</speed>
  <fix>3d</fix>
</trkpt>
<trkpt lat="40.0728211" lon="-105.2308763">
  <ele>1595.43</ele>
  <time>2026-08-27T18:29:29Z</time>
  <course>109.5</course>
  <speed>0.07</speed>
  <fix>3d</fix>
</trkpt>
<trkpt lat="40.0728212" lon="-105.230876">
  <ele>1595.5</ele>
  <time>2026-08-27T18:29:29Z</time>
  <course>62.23</course>
  <speed>0.02</speed>
  <fix>3d</fix>
</trkpt>
<trkpt lat="40.0728211" lon="-105.2308761">
  <ele>1595.43</ele>
  <time>2026-08-27T18:29:29Z</time>
  <course>107.47</course>
  <speed>0.05</speed>
  <fix>3d</fix>
</trkpt>
<trkpt lat="40.0728212" lon="-105.2308762">
  <ele>1595.5</ele>
  <time>2026-08-27T18:29:29Z</time>
  <course>62.21</course>
  <speed>0.09055385138137417</speed>
  <fix>3d</fix>
</trkpt>
<trkpt lat="40.0728211" lon="-105.2308761">
  <ele>1595.43</ele>
  <time>2026-08-27T18:29:29Z</time>
  <course>237.83</course>
  <speed>0.05</speed>
  <fix>3d</fix>
</trkpt>
<trkpt lat="40.0728211" lon="-105.2308763">
  <ele>1595.5</ele>
  <time>2026-08-27T18:29:29Z</time>
  <course>62.16</course>
  <speed>0.01414213562373095</speed>
  <fix>3d</fix>
</trkpt>
<trkpt lat="40.072821" lon="-105.2308763">
  <ele>1595.43</ele>
  <time>2026-08-27T18:29:29Z</time>
  <course>241.4</course>
  <speed>0.08</speed>
  <fix>3d</fix>
</trkpt>
<trkpt lat="40.0728211" lon="-105.2308762">
  <ele>1595.5</ele>
  <time>2026-08-27T18:29:29Z</time>
  <course>62.19</course>
  <speed>0.08</speed>
  <fix>3d</fix>
</trkpt>
<trkpt lat="40.0728209" lon="-105.2308764">
  <ele>1595.43</ele>
  <time>2026-08-27T18:29:29Z</time>
  <course>169.11</course>
  <speed>0.03</speed>
  <fix>3d</fix>
</trkpt>
<trkpt lat="40.072821" lon="-105.2308761">
  <ele>1595.5</ele>
  <time>2026-08-27T18:29:29Z</time>
  <course>62.19</course>
  <speed>0.02</speed>
  <fix>3d</fix>
</trkpt>
<trkpt lat="40.0728208" lon="-105.2308763">
  <ele>1595.43</ele>
  <time>2026-08-27T18:29:29Z</time>
  <course>111.54</course>
  <speed>0.06</speed>
  <fix>3d</fix>
</trkpt>
<trkpt lat="40.072821" lon="-105.2308762">
  <ele>1595.5</ele>
  <time>2026-08-27T18:29:29Z</time>
  <course>62.25</course>
  <speed>0.07071067811865475</speed>
  <fix>3d</fix>
</trkpt>
<trkpt lat="40.0728208" lon="-105.2308762">
  <ele>1595.43</ele>
  <time>2026-08-27T18:29:29Z</time>
  <course>188.58</course>
  <speed>0.02</speed>
  <fix>3d</fix>
</trkpt>
<trkpt lat="40.0728209" lon="-105.2308763">
  <ele>1595.49</ele>
  <time>2026-08-27T18:29:29Z</time>
  <course>62.17</course>
  <speed>0.0316227766016838</speed>
  <fix>3d</fix>
</trkpt>
<trkpt lat="40.0728207" lon="-105.2308763">
  <ele>1595.43</ele>
  <time>2026-08-27T18:29:29Z</time>
  <course>241.18</course>
  <speed>0.07</speed>
  <fix>3d</fix>
</trkpt>
<trkpt lat="40.0728208" lon="-105.2308763">
  <ele>1595.49</ele>
  <time>2026-08-27T18:29:29Z</time>
  <course>62.21</course>
  <speed>0.06</speed>
  <fix>3d</fix>
</trkpt>
<trkpt lat="40.0728207" lon="-105.2308764">
  <ele>1595.43</ele>
  <time>2026-08-27T18:29:29Z</time>
  <course>205.73</course>
  <speed>0.03</speed>
  <fix>3d</fix>
</trkpt>
<trkpt lat="40.0728208" lon="-105.2308762">
  <ele>1595.49</ele>
  <time>2026-08-27T18:29:29Z</time>
  <course>62.2</course>
  <speed>0.03</speed>
  <fix>3d</fix>
</trkpt>
<trkpt lat="40.0728207" lon="-105.2308763">
  <ele>1595.43</ele>
  <time>2026-08-27T18:29:29Z</time>
  <course>120.34</course>
  <speed>0.05</speed>
  <fix>3d</fix>
</trkpt>
<trkpt lat="40.0728208" lon="-105.2308763">
  <ele>1595.49</ele>
  <time>2026-08-27T18:29:29Z</time>
  <course>62.25</course>
  <speed>0.06082762530298219</speed>
  <fix>3d</fix>
</trkpt>
<trkpt lat="40.0728206" lon="-105.2308762">
  <ele>1595.43</ele>
  <time>2026-08-27T18:29:29Z</time>
  <course>175.21</course>
  <speed>0.02</speed>
  <fix>3d</fix>
</trkpt>
<trkpt lat="40.0728207" lon="-105.2308763">
  <ele>1595.49</ele>
  <time>2026-08-27T18:29:29Z</time>
  <course>62.17</course>
  <speed>0.02</speed>
  <fix>3d</fix>
</trkpt>
<trkpt lat="40.0728205" lon="-105.2308763">
  <ele>1595.43</ele>
  <time>2026-08-27T18:29:29Z</time>
  <course>237.85</course>
  <speed>0.06</speed>
  <fix>3d</fix>
</trkpt>
<trkpt lat="40.0728207" lon="-105.2308763">
  <ele>1595.49</ele>
  <time>2026-08-27T18:29:29Z</time>
  <course>62.22</course>
  <speed>0.06</speed>
  <fix>3d</fix>
</trkpt>
<trkpt lat="40.0728205" lon="-105.2308764">
  <ele>1595.43</ele>
  <time>2026-08-27T18:29:29Z</time>
  <course>196.4</course>
  <speed>0.03</speed>
  <fix>3d</fix>
</trkpt>
<trkpt lat="40.0728206" lon="-105.2308763">
  <ele>1595.49</ele>
  <time>2026-08-27T18:29:29Z</time>
  <course>62.2</course>
  <speed>0.01</speed>
  <fix>3d</fix>
</trkpt>
<trkpt lat="40.0728204" lon="-105.2308764">
  <ele>1595.44</ele>
  <time>2026-08-27T18:29:29Z</time>
  <course>127.87</course>
  <speed>0.04</speed>
  <fix>3d</fix>
</trkpt>
<trkpt lat="40.0728205" lon="-105.2308763">
  <ele>1595.49</ele>
  <time>2026-08-27T18:29:29Z</time>
  <course>62.2</course>
  <speed>0.06</speed>
  <fix>3d</fix>
</trkpt>
<trkpt lat="40.0728204" lon="-105.2308764">
  <ele>1595.44</ele>
  <time>2026-08-27T18:29:29Z</time>
  <course>207.17</course>
  <speed>0.03</speed>
  <fix>3d</fix>
</trkpt>
<trkpt lat="40.0728205" lon="-105.2308764">
  <ele>1595.49</ele>
  <time>2026-08-27T18:29:30Z</time>
  <course>62.18</course>
  <speed>0.01</speed>
  <fix>3d</fix>
</trkpt>
<trkpt lat="40.0728203" lon="-105.2308764">
  <ele>1595.44</ele>
  <time>2026-08-27T18:29:30Z</time>
  <course>233.54</course>
  <speed>0.05</speed>
  <fix>3d</fix>
</trkpt>
<trkpt lat="40.0728204" lon="-105.2308763">
  <ele>1595.5</ele>
  <time>2026-08-27T18:29:30Z</time>
  <course>62.24</course>
  <speed>0.04</speed>
  <fix>3d</fix>
</trkpt>
<trkpt lat="40.0728202" lon="-105.2308764">
  <ele>1595.44</ele>
  <time>2026-08-27T18:29:30Z</time>
  <course>156.77</course>
  <speed>0.03</speed>
  <fix>3d</fix>
</trkpt>
<trkpt lat="40.0728204" lon="-105.2308763">
  <ele>1595.51</ele>
  <time>2026-08-27T18:29:30Z</time>
  <course>62.23</course>
  <speed>0.03</speed>
  <fix>3d</fix>
</trkpt>
<trkpt lat="40.0728202" lon="-105.2308764">
  <ele>1595.44</ele>
  <time>2026-08-27T18:29:30Z</time>
  <course>155.1</course>
  <speed>0.03</speed>
  <fix>3d</fix>
</trkpt>
<trkpt lat="40.0728203" lon="-105.2308764">
  <ele>1595.51</ele>
  <time>2026-08-27T18:29:30Z</time>
  <course>62.21</course>
  <speed>0.02</speed>
  <fix>3d</fix>
</trkpt>
<trkpt lat="40.0728201" lon="-105.2308764">
  <ele>1595.44</ele>
  <time>2026-08-27T18:29:30Z</time>
  <course>229.74</course>
  <speed>0.04</speed>
  <fix>3d</fix>
</trkpt>
<trkpt lat="40.0728203" lon="-105.2308764">
  <ele>1595.51</ele>
  <time>2026-08-27T18:29:30Z</time>
  <course>62.28</course>
  <speed>0.04</speed>
  <fix>3d</fix>
</trkpt>
<trkpt lat="40.0728201" lon="-105.2308764">
  <ele>1595.44</ele>
  <time>2026-08-27T18:29:30Z</time>
  <course>199.89</course>
  <speed>0.03</speed>
  <fix>3d</fix>
</trkpt>
<trkpt lat="40.0728202" lon="-105.2308763">
  <ele>1595.51</ele>
  <time>2026-08-27T18:29:30Z</time>
  <course>62.28</course>
  <speed>0.01414213562373095</speed>
  <fix>3d</fix>
</trkpt>
<trkpt lat="40.0728201" lon="-105.2308764">
  <ele>1595.44</ele>
  <time>2026-08-27T18:29:30Z</time>
  <course>147.48</course>
  <speed>0.03</speed>
  <fix>3d</fix>
</trkpt>
<trkpt lat="40.0728202" lon="-105.2308764">
  <ele>1595.51</ele>
  <time>2026-08-27T18:29:30Z</time>
  <course>62.27</course>
  <speed>0.03</speed>
  <fix>3d</fix>
</trkpt>
<trkpt lat="40.07282" lon="-105.2308764">
  <ele>1595.44</ele>
  <time>2026-08-27T18:29:30Z</time>
  <course>217.65</course>
  <speed>0.03</speed>
  <fix>3d</fix>
</trkpt>
<trkpt lat="40.0728201" lon="-105.2308764">
  <ele>1595.5</ele>
  <time>2026-08-27T18:29:30Z</time>
  <course>62.29</course>
  <speed>0.04</speed>
  <fix>3d</fix>
</trkpt>
<trkpt lat="40.07282" lon="-105.2308765">
  <ele>1595.43</ele>
  <time>2026-08-27T18:29:30Z</time>
  <course>211.5</course>
  <speed>0.03</speed>
  <fix>3d</fix>
</trkpt>
<trkpt lat="40.0728201" lon="-105.2308764">
  <ele>1595.5</ele>
  <time>2026-08-27T18:29:30Z</time>
  <course>62.25</course>
  <speed>0.01</speed>
  <fix>3d</fix>
</trkpt>
<trkpt lat="40.0728199" lon="-105.2308765">
  <ele>1595.43</ele>
  <time>2026-08-27T18:29:30Z</time>
  <course>151.97</course>
  <speed>0.03</speed>
  <fix>3d</fix>
</trkpt>
<trkpt lat="40.07282" lon="-105.2308765">
  <ele>1595.5</ele>
  <time>2026-08-27T18:29:30Z</time>
  <course>62.22</course>
  <speed>0.03</speed>
  <fix>3d</fix>
</trkpt>
<trkpt lat="40.0728198" lon="-105.2308765">
  <ele>1595.43</ele>
  <time>2026-08-27T18:29:30Z</time>
  <course>211.02</course>
  <speed>0.03</speed>
  <fix>3d</fix>
</trkpt>
<trkpt lat="40.07282" lon="-105.2308764">
  <ele>1595.49</ele>
  <time>2026-08-27T18:29:30Z</time>
  <course>62.26</course>
  <speed>0.03</speed>
  <fix>3d</fix>
</trkpt>
<trkpt lat="40.0728198" lon="-105.2308766">
  <ele>1595.42</ele>
  <time>2026-08-27T18:29:30Z</time>
  <course>208.93</course>
  <speed>0.03</speed>
  <fix>3d</fix>
</trkpt>
<trkpt lat="40.0728199" lon="-105.2308764">
  <ele>1595.49</ele>
  <time>2026-08-27T18:29:30Z</time>
  <course>62.22</course>
  <speed>0.01414213562373095</speed>
  <fix>3d</fix>
</trkpt>
<trkpt lat="40.0728197" lon="-105.2308766">
  <ele>1595.42</ele>
  <time>2026-08-27T18:29:30Z</time>
  <course>161.39</course>
  <speed>0.03</speed>
  <fix>3d</fix>
</trkpt>
<trkpt lat="40.0728199" lon="-105.2308765">
  <ele>1595.49</ele>
  <time>2026-08-27T18:29:30Z</time>
  <course>62.18</course>
  <speed>0.01</speed>
  <fix>3d</fix>
</trkpt>
<trkpt lat="40.0728196" lon="-105.2308766">
  <ele>1595.42</ele>
  <time>2026-08-27T18:29:30Z</time>
  <course>213.7</course>
  <speed>0.03</speed>
  <fix>3d</fix>
</trkpt>
<trkpt lat="40.0728198" lon="-105.2308765">
  <ele>1595.49</ele>
  <time>2026-08-27T18:29:30Z</time>
  <course>62.26</course>
  <speed>0.0316227766016838</speed>
  <fix>3d</fix>
</trkpt>
<trkpt lat="40.0728196" lon="-105.2308766">
  <ele>1595.42</ele>
  <time>2026-08-27T18:29:30Z</time>
  <course>196.19</course>
  <speed>0.02</speed>
  <fix>3d</fix>
</trkpt>
<trkpt lat="40.0728197" lon="-105.2308765">
  <ele>1595.5</ele>
  <time>2026-08-27T18:29:30Z</time>
  <course>62.22</course>
  <speed>0.03</speed>
  <fix>3d</fix>
</trkpt>
<trkpt lat="40.0728195" lon="-105.2308766">
  <ele>1595.42</ele>
  <time>2026-08-27T18:29:30Z</time>
  <course>175.97</course>
  <speed>0.03</speed>
  <fix>3d</fix>
</trkpt>
<trkpt lat="40.0728197" lon="-105.2308766">
  <ele>1595.5</ele>
  <time>2026-08-27T18:29:30Z</time>
  <course>62.22</course>
  <speed>0.0</speed>
  <fix>3d</fix>
</trkpt>
<trkpt lat="40.0728195" lon="-105.2308766">
  <ele>1595.43</ele>
  <time>2026-08-27T18:29:30Z</time>
  <course>216.19</course>
  <speed>0.03</speed>
  <fix>3d</fix>
</trkpt>
<trkpt lat="40.0728196" lon="-105.2308765">
  <ele>1595.5</ele>
  <time>2026-08-27T18:29:30Z</time>
  <course>62.29</course>
  <speed>0.01</speed>
  <fix>3d</fix>
</trkpt>
<trkpt lat="40.0728195" lon="-105.2308767">
  <ele>1595.43</ele>
  <time>2026-08-27T18:29:30Z</time>
  <course>180.33</course>
  <speed>0.02</speed>
  <fix>3d</fix>
</trkpt>
<trkpt lat="40.0728196" lon="-105.2308766">
  <ele>1595.5</ele>
  <time>2026-08-27T18:29:30Z</time>
  <course>62.25</course>
  <speed>0.02</speed>
  <fix>3d</fix>
</trkpt>
<trkpt lat="40.0728194" lon="-105.2308767">
  <ele>1595.43</ele>
  <time>2026-08-27T18:29:30Z</time>
  <course>197.84</course>
  <speed>0.03</speed>
  <fix>3d</fix>
</trkpt>
<trkpt lat="40.0728195" lon="-105.2308766">
  <ele>1595.5</ele>
  <time>2026-08-27T18:29:30Z</time>
  <course>62.33</course>
  <speed>0.02</speed>
  <fix>3d</fix>
</trkpt>
<trkpt lat="40.0728194" lon="-105.2308767">
  <ele>1595.43</ele>
  <time>2026-08-27T18:29:30Z</time>
  <course>205.63</course>
  <speed>0.02</speed>
  <fix>3d</fix>
</trkpt>
<trkpt lat="40.0728195" lon="-105.2308766">
  <ele>1595.51</ele>
  <time>2026-08-27T18:29:30Z</time>
  <course>62.29</course>
  <speed>0.02</speed>
  <fix>3d</fix>
</trkpt>
<trkpt lat="40.0728193" lon="-105.2308767">
  <ele>1595.42</ele>
  <time>2026-08-27T18:29:30Z</time>
  <course>182.44</course>
  <speed>0.02</speed>
  <fix>3d</fix>
</trkpt>
<trkpt lat="40.0728194" lon="-105.2308767">
  <ele>1595.51</ele>
  <time>2026-08-27T18:29:30Z</time>
  <course>62.28</course>
  <speed>0.01</speed>
  <fix>3d</fix>
</trkpt>
<trkpt lat="40.0728193" lon="-105.2308767">
  <ele>1595.42</ele>
  <time>2026-08-27T18:29:30Z</time>
  <course>208.65</course>
  <speed>0.03</speed>
  <fix>3d</fix>
</trkpt>
<trkpt lat="40.0728194" lon="-105.2308766">
  <ele>1595.5</ele>
  <time>2026-08-27T18:29:30Z</time>
  <course>62.33</course>
  <speed>0.01</speed>
  <fix>3d</fix>
</trkpt>
<trkpt lat="40.0728192" lon="-105.2308767">
  <ele>1595.42</ele>
  <time>2026-08-27T18:29:30Z</time>
  <course>184.94</course>
  <speed>0.02</speed>
  <fix>3d</fix>
</trkpt>
<trkpt lat="40.0728193" lon="-105.2308767">
  <ele>1595.49</ele>
  <time>2026-08-27T18:29:30Z</time>
  <course>62.24</course>
  <speed>0.0</speed>
  <fix>3d</fix>
</trkpt>
<trkpt lat="40.0728192" lon="-105.2308767">
  <ele>1595.42</ele>
  <time>2026-08-27T18:29:30Z</time>
  <course>199.38</course>
  <speed>0.03</speed>
  <fix>3d</fix>
</trkpt>
<trkpt lat="40.0728193" lon="-105.2308767">
  <ele>1595.49</ele>
  <time>2026-08-27T18:29:30Z</time>
  <course>62.33</course>
  <speed>0.01414213562373095</speed>
  <fix>3d</fix>
</trkpt>
<trkpt lat="40.0728191" lon="-105.2308767">
  <ele>1595.42</ele>
  <time>2026-08-27T18:29:30Z</time>
  <course>192.14</course>
  <speed>0.02</speed>
  <fix>3d</fix>
</trkpt>
<trkpt lat="40.0728192" lon="-105.2308767">
  <ele>1595.5</ele>
  <time>2026-08-27T18:29:30Z</time>
  <course>62.22</course>
  <speed>0.01</speed>
  <fix>3d</fix>
</trkpt>
<trkpt lat="40.072819" lon="-105.2308767">
  <ele>1595.41</ele>
  <time>2026-08-27T18:29:30Z</time>
  <course>192.88</course>
  <speed>0.02</speed>
  <fix>3d</fix>
</trkpt>
<trkpt lat="40.0728192" lon="-105.2308767">
  <ele>1595.5</ele>
  <time>2026-08-27T18:29:30Z</time>
  <course>62.34</course>
  <speed>0.01414213562373095</speed>
  <fix>3d</fix>
</trkpt>
<trkpt lat="40.072819" lon="-105.2308768">
  <ele>1595.41</ele>
  <time>2026-08-27T18:29:30Z</time>
  <course>196.58</course>
  <speed>0.02</speed>
  <fix>3d</fix>
</trkpt>
<trkpt lat="40.0728191" lon="-105.2308767">
  <ele>1595.5</ele>
  <time>2026-08-27T18:29:30Z</time>
  <course>62.26</course>
  <speed>0.01</speed>
  <fix>3d</fix>
</trkpt>
<trkpt lat="40.0728189" lon="-105.2308769">
  <ele>1595.41</ele>
  <time>2026-08-27T18:29:30Z</time>
  <course>191.97</course>
  <speed>0.02</speed>
  <fix>3d</fix>
</trkpt>
<trkpt lat="40.0728191" lon="-105.2308767">
  <ele>1595.49</ele>
  <time>2026-08-27T18:29:30Z</time>
  <course>62.36</course>
  <speed>0.01414213562373095</speed>
  <fix>3d</fix>
</trkpt>
<trkpt lat="40.0728189" lon="-105.2308769">
  <ele>1595.41</ele>
  <time>2026-08-27T18:29:30Z</time>
  <course>196.3</course>
  <speed>0.02</speed>
  <fix>3d</fix>
</trkpt>
<trkpt lat="40.072819" lon="-105.2308767">
  <ele>1595.49</ele>
  <time>2026-08-27T18:29:30Z</time>
  <course>62.28</course>
  <speed>0.01</speed>
  <fix>3d</fix>
</trkpt>
<trkpt lat="40.0728189" lon="-105.2308769">
  <ele>1595.41</ele>
  <time>2026-08-27T18:29:30Z</time>
  <course>192.76</course>
  <speed>0.02</speed>
  <fix>3d</fix>
</trkpt>
<trkpt lat="40.072819" lon="-105.2308768">
  <ele>1595.49</ele>
  <time>2026-08-27T18:29:30Z</time>
  <course>62.36</course>
  <speed>0.01414213562373095</speed>
  <fix>3d</fix>
</trkpt>
<trkpt lat="40.0728188" lon="-105.2308769">
  <ele>1595.41</ele>
  <time>2026-08-27T18:29:30Z</time>
  <course>194.39</course>
  <speed>0.02</speed>
  <fix>3d</fix>
</trkpt>
<trkpt lat="40.0728189" lon="-105.2308768">
  <ele>1595.49</ele>
  <time>2026-08-27T18:29:30Z</time>
  <course>62.26</course>
  <speed>0.01</speed>
  <fix>3d</fix>
</trkpt>
<trkpt lat="40.0728188" lon="-105.2308769">
  <ele>1595.41</ele>
  <time>2026-08-27T18:29:30Z</time>
  <course>194.38</course>
  <speed>0.02</speed>
  <fix>3d</fix>
</trkpt>
<trkpt lat="40.0728189" lon="-105.2308768">
  <ele>1595.5</ele>
  <time>2026-08-27T18:29:30Z</time>
  <course>62.37</course>
  <speed>0.01414213562373095</speed>
  <fix>3d</fix>
</trkpt>
<trkpt lat="40.0728187" lon="-105.2308769">
  <ele>1595.41</ele>
  <time>2026-08-27T18:29:30Z</time>
  <course>193.52</course>
  <speed>0.02</speed>
  <fix>3d</fix>
</trkpt>
<trkpt lat="40.0728188" lon="-105.2308768">
  <ele>1595.5</ele>
  <time>2026-08-27T18:29:30Z</time>
  <course>62.26</course>
  <speed>0.01</speed>
  <fix>3d</fix>
</trkpt>
<trkpt lat="40.0728187" lon="-105.2308769">
  <ele>1595.41</ele>
  <time>2026-08-27T18:29:30Z</time>
  <course>195.0</course>
  <speed>0.02</speed>
  <fix>3d</fix>
</trkpt>
<trkpt lat="40.0728188" lon="-105.2308768">
  <ele>1595.5</ele>
  <time>2026-08-27T18:29:30Z</time>
  <course>62.42</course>
  <speed>0.01</speed>
  <fix>3d</fix>
</trkpt>
<trkpt lat="40.0728186" lon="-105.2308769">
  <ele>1595.41</ele>
  <time>2026-08-27T18:29:30Z</time>
  <course>193.89</course>
  <speed>0.02</speed>
  <fix>3d</fix>
</trkpt>
<trkpt lat="40.0728187" lon="-105.2308769">
  <ele>1595.5</ele>
  <time>2026-08-27T18:29:30Z</time>
  <course>62.3</course>
  <speed>0.0</speed>
  <fix>3d</fix>
</trkpt>
<trkpt lat="40.0728186" lon="-105.2308769">
  <ele>1595.41</ele>
  <time>2026-08-27T18:29:30Z</time>
  <course>192.31</course>
  <speed>0.02</speed>
  <fix>3d</fix>
</trkpt>
<trkpt lat="40.0728187" lon="-105.2308769">
  <ele>1595.5</ele>
  <time>2026-08-27T18:29:30Z</time>
  <course>62.42</course>
  <speed>0.01</speed>
  <fix>3d</fix>
</trkpt>
<trkpt lat="40.0728185" lon="-105.2308769">
  <ele>1595.41</ele>
  <time>2026-08-27T18:29:30Z</time>
  <course>196.75</course>
  <speed>0.02</speed>
  <fix>3d</fix>
</trkpt>
<trkpt lat="40.0728187" lon="-105.2308769">
  <ele>1595.5</ele>
  <time>2026-08-27T18:29:30Z</time>
  <course>62.36</course>
  <speed>0.0</speed>
  <fix>3d</fix>
</trkpt>
<trkpt lat="40.0728184" lon="-105.2308769">
  <ele>1595.41</ele>
  <time>2026-08-27T18:29:30Z</time>
  <course>186.33</course>
  <speed>0.02</speed>
  <fix>3d</fix>
</trkpt>
<trkpt lat="40.0728186" lon="-105.2308769">
  <ele>1595.5</ele>
  <time>2026-08-27T18:29:30Z</time>
  <course>62.38</course>
  <speed>0.01</speed>
  <fix>3d</fix>
</trkpt>
<trkpt lat="40.0728184" lon="-105.2308769">
  <ele>1595.41</ele>
  <time>2026-08-27T18:29:30Z</time>
  <course>199.98</course>
  <speed>0.02</speed>
  <fix>3d</fix>
</trkpt>
<trkpt lat="40.0728185" lon="-105.2308769">
  <ele>1595.5</ele>
  <time>2026-08-27T18:29:30Z</time>
  <course>62.47</course>
  <speed>0.01414213562373095</speed>
  <fix>3d</fix>
</trkpt>
<trkpt lat="40.0728183" lon="-105.230877">
  <ele>1595.4</ele>
  <time>2026-08-27T18:29:30Z</time>
  <course>185.23</course>
  <speed>0.03</speed>
  <fix>3d</fix>
</trkpt>
<trkpt lat="40.0728185" lon="-105.2308769">
  <ele>1595.5</ele>
  <time>2026-08-27T18:29:30Z</time>
  <course>62.32</course>
  <speed>0.0</speed>
  <fix>3d</fix>
</trkpt>
<trkpt lat="40.0728183" lon="-105.2308771">
  <ele>1595.4</ele>
  <time>2026-08-27T18:29:30Z</time>
  <course>195.7</course>
  <speed>0.02</speed>
  <fix>3d</fix>
</trkpt>
<trkpt lat="40.0728184" lon="-105.2308769">
  <ele>1595.5</ele>
  <time>2026-08-27T18:29:30Z</time>
  <course>62.47</course>
  <speed>0.01</speed>
  <fix>3d</fix>
</trkpt>
<trkpt lat="40.0728183" lon="-105.2308771">
  <ele>1595.4</ele>
  <time>2026-08-27T18:29:30Z</time>
  <course>194.09</course>
  <speed>0.03</speed>
  <fix>3d</fix>
</trkpt>
<trkpt lat="40.0728184" lon="-105.2308769">
  <ele>1595.5</ele>
  <time>2026-08-27T18:29:30Z</time>
  <course>62.46</course>
  <speed>0.0</speed>
  <fix>3d</fix>
</trkpt>
<trkpt lat="40.0728182" lon="-105.2308771">
  <ele>1595.4</ele>
  <time>2026-08-27T18:29:30Z</time>
  <course>183.67</course>
  <speed>0.02</speed>
  <fix>3d</fix>
</trkpt>
<trkpt lat="40.0728183" lon="-105.230877">
  <ele>1595.5</ele>
  <time>2026-08-27T18:29:30Z</time>
  <course>62.4</course>
  <speed>0.0</speed>
  <fix>3d</fix>
</trkpt>
<trkpt lat="40.0728182" lon="-105.2308771">
  <ele>1595.4</ele>
  <time>2026-08-27T18:29:30Z</time>
  <course>202.34</course>
  <speed>0.02</speed>
  <fix>3d</fix>
</trkpt>
<trkpt lat="40.0728183" lon="-105.230877">
  <ele>1595.49</ele>
  <time>2026-08-27T18:29:30Z</time>
  <course>62.53</course>
  <speed>0.01</speed>
  <fix>3d</fix>
</trkpt>
<trkpt lat="40.0728181" lon="-105.2308771">
  <ele>1595.4</ele>
  <time>2026-08-27T18:29:30Z</time>
  <course>188.53</course>
  <speed>0.03</speed>
  <fix>3d</fix>
</trkpt>
<trkpt lat="40.0728182" lon="-105.230877">
  <ele>1595.49</ele>
  <time>2026-08-27T18:29:30Z</time>
  <course>62.46</course>
  <speed>0.0</speed>
  <fix>3d</fix>
</trkpt>
<trkpt lat="40.0728181" lon="-105.2308771">
  <ele>1595.4</ele>
  <time>2026-08-27T18:29:30Z</time>
  <course>183.63</course>
  <speed>0.02</speed>
  <fix>3d</fix>
</trkpt>
<trkpt lat="40.0728182" lon="-105.230877">
  <ele>1595.48</ele>
  <time>2026-08-27T18:29:30Z</time>
  <course>62.39</course>
  <speed>0.0</speed>
  <fix>3d</fix>
</trkpt>
<trkpt lat="40.072818" lon="-105.2308771">
  <ele>1595.4</ele>
  <time>2026-08-27T18:29:30Z</time>
  <course>201.86</course>
  <speed>0.02</speed>
  <fix>3d</fix>
</trkpt>
<trkpt lat="40.0728181" lon="-105.230877">
  <ele>1595.48</ele>
  <time>2026-08-27T18:29:30Z</time>
  <course>62.52</course>
  <speed>0.0</speed>
  <fix>3d</fix>
</trkpt>
<trkpt lat="40.072818" lon="-105.2308771">
  <ele>1595.4</ele>
  <time>2026-08-27T18:29:30Z</time>
  <course>188.0</course>
  <speed>0.03</speed>
  <fix>3d</fix>
</trkpt>
<trkpt lat="40.0728181" lon="-105.230877">
  <ele>1595.48</ele>
  <time>2026-08-27T18:29:30Z</time>
  <course>62.52</course>
  <speed>0.01</speed>
  <fix>3d</fix>
</trkpt>
<trkpt lat="40.0728179" lon="-105.2308772">
  <ele>1595.4</ele>
  <time>2026-08-27T18:29:30Z</time>
  <course>181.16</course>
  <speed>0.03</speed>
  <fix>3d</fix>
</trkpt>
<trkpt lat="40.072818" lon="-105.230877">
  <ele>1595.48</ele>
  <time>2026-08-27T18:29:30Z</time>
  <course>62.35</course>
  <speed>0.0</speed>
  <fix>3d</fix>
</trkpt>
<trkpt lat="40.0728178" lon="-105.2308772">
  <ele>1595.4</ele>
  <time>2026-08-27T18:29:30Z</time>
  <course>197.37</course>
  <speed>0.02</speed>
  <fix>3d</fix>
</trkpt>
<trkpt lat="40.072818" lon="-105.2308771">
  <ele>1595.48</ele>
  <time>2026-08-27T18:29:30Z</time>
  <course>62.42</course>
  <speed>0.0</speed>
  <fix>3d</fix>
</trkpt>
<trkpt lat="40.0728178" lon="-105.2308772">
  <ele>1595.4</ele>
  <time>2026-08-27T18:29:30Z</time>
  <course>195.55</course>
  <speed>0.02</speed>
  <fix>3d</fix>
</trkpt>
<trkpt lat="40.0728179" lon="-105.2308771">
  <ele>1595.48</ele>
  <time>2026-08-27T18:29:30Z</time>
  <course>62.5</course>
  <speed>0.01</speed>
  <fix>3d</fix>
</trkpt>
<trkpt lat="40.0728177" lon="-105.2308772">
  <ele>1595.4</ele>
  <time>2026-08-27T18:29:30Z</time>
  <course>182.95</course>
  <speed>0.03</speed>
  <fix>3d</fix>
</trkpt>
<trkpt lat="40.0728179" lon="-105.2308771">
  <ele>1595.48</ele>
  <time>2026-08-27T18:29:30Z</time>
  <course>62.49</course>
  <speed>0.01</speed>
  <fix>3d</fix>
</trkpt>
<trkpt lat="40.0728177" lon="-105.2308772">
  <ele>1595.41</ele>
  <time>2026-08-27T18:29:30Z</time>
  <course>185.43</course>
  <speed>0.03</speed>
  <fix>3d</fix>
</trkpt>
<trkpt lat="40.0728178" lon="-105.2308771">
  <ele>1595.49</ele>
  <time>2026-08-27T18:29:30Z</time>
  <course>62.37</course>
  <speed>0.0</speed>
  <fix>3d</fix>
</trkpt>
<trkpt lat="40.0728177" lon="-105.2308772">
  <ele>1595.41</ele>
  <time>2026-08-27T18:29:30Z</time>
  <course>198.18</course>
  <speed>0.02</speed>
  <fix>3d</fix>
</trkpt>
<trkpt lat="40.0728178" lon="-105.2308771">
  <ele>1595.49</ele>
  <time>2026-08-27T18:29:30Z</time>
  <course>62.35</course>
  <speed>0.0</speed>
  <fix>3d</fix>
</trkpt>
<trkpt lat="40.0728176" lon="-105.2308772">
  <ele>1595.41</ele>
  <time>2026-08-27T18:29:30Z</time>
  <course>197.96</course>
  <speed>0.02</speed>
  <fix>3d</fix>
</trkpt>
<trkpt lat="40.0728177" lon="-105.2308771">
  <ele>1595.49</ele>
  <time>2026-08-27T18:29:30Z</time>
  <course>62.39</course>
  <speed>0.0</speed>
  <fix>3d</fix>
</trkpt>
<trkpt lat="40.0728176" lon="-105.2308772">
  <ele>1595.42</ele>
  <time>2026-08-27T18:29:30Z</time>
  <course>187.52</course>
  <speed>0.02</speed>
  <fix>3d</fix>
</trkpt>
<trkpt lat="40.0728177" lon="-105.2308771">
  <ele>1595.49</ele>
  <time>2026-08-27T18:29:30Z</time>
  <course>62.41</course>
  <speed>0.0</speed>
  <fix>3d</fix>
</trkpt>
<trkpt lat="40.0728176" lon="-105.2308772">
  <ele>1595.42</ele>
  <time>2026-08-27T18:29:30Z</time>
  <course>183.76</course>
  <speed>0.03</speed>
  <fix>3d</fix>
</trkpt>
<trkpt lat="40.0728177" lon="-105.2308772">
  <ele>1595.49</ele>
  <time>2026-08-27T18:29:30Z</time>
  <course>62.4</course>
  <speed>0.0</speed>
  <fix>3d</fix>
</trkpt>
<trkpt lat="40.0728175" lon="-105.2308772">
  <ele>1595.42</ele>
  <time>2026-08-27T18:29:30Z</time>
  <course>186.91</course>
  <speed>0.03</speed>
  <fix>3d</fix>
</trkpt>
<trkpt lat="40.0728176" lon="-105.2308772">
  <ele>1595.5</ele>
  <time>2026-08-27T18:29:30Z</time>
  <course>62.38</course>
  <speed>0.0</speed>
  <fix>3d</fix>
</trkpt>
<trkpt lat="40.0728175" lon="-105.2308772">
  <ele>1595.42</ele>
  <time>2026-08-27T18:29:30Z</time>
  <course>192.62</course>
  <speed>0.02</speed>
  <fix>3d</fix>
</trkpt>
<trkpt lat="40.0728176" lon="-105.2308772">
  <ele>1595.5</ele>
  <time>2026-08-27T18:29:30Z</time>
  <course>62.36</course>
  <speed>0.0</speed>
  <fix>3d</fix>
</trkpt>
<trkpt lat="40.0728174" lon="-105.2308772">
  <ele>1595.43</ele>
  <time>2026-08-27T18:29:30Z</time>
  <course>196.85</course>
  <speed>0.02</speed>
  <fix>3d</fix>
</trkpt>
<trkpt lat="40.0728175" lon="-105.2308772">
  <ele>1595.5</ele>
  <time>2026-08-27T18:29:30Z</time>
  <course>62.32</course>
  <speed>0.0</speed>
  <fix>3d</fix>
</trkpt>
<trkpt lat="40.0728174" lon="-105.2308772">
  <ele>1595.43</ele>
  <time>2026-08-27T18:29:30Z</time>
  <course>197.81</course>
  <speed>0.02</speed>
  <fix>3d</fix>
</trkpt>
<trkpt lat="40.0728175" lon="-105.2308772">
  <ele>1595.5</ele>
  <time>2026-08-27T18:29:30Z</time>
  <course>62.3</course>
  <speed>0.0</speed>
  <fix>3d</fix>
</trkpt>
<trkpt lat="40.0728173" lon="-105.2308772">
  <ele>1595.43</ele>
  <time>2026-08-27T18:29:30Z</time>
  <course>196.48</course>
  <speed>0.02</speed>
  <fix>3d</fix>
</trkpt>
<trkpt lat="40.0728174" lon="-105.2308772">
  <ele>1595.5</ele>
  <time>2026-08-27T18:29:30Z</time>
  <course>62.29</course>
  <speed>0.0</speed>
  <fix>3d</fix>
</trkpt>
<trkpt lat="40.0728172" lon="-105.2308772">
  <ele>1595.43</ele>
  <time>2026-08-27T18:29:30Z</time>
  <course>194.59</course>
  <speed>0.02</speed>
  <fix>3d</fix>
</trkpt>
<trkpt lat="40.0728174" lon="-105.2308772">
  <ele>1595.5</ele>
  <time>2026-08-27T18:29:30Z</time>
  <course>62.28</course>
  <speed>0.0</speed>
  <fix>3d</fix>
</trkpt>
<trkpt lat="40.0728172" lon="-105.2308772">
  <ele>1595.43</ele>
  <time>2026-08-27T18:29:30Z</time>
  <course>193.0</course>
  <speed>0.02</speed>
  <fix>3d</fix>
</trkpt>
<trkpt lat="40.0728173" lon="-105.2308772">
  <ele>1595.5</ele>
  <time>2026-08-27T18:29:30Z</time>
  <course>62.27</course>
  <speed>0.0</speed>
  <fix>3d</fix>
</trkpt>
<trkpt lat="40.0728171" lon="-105.2308773">
  <ele>1595.43</ele>
  <time>2026-08-27T18:29:30Z</time>
  <course>192.06</course>
  <speed>0.02</speed>
  <fix>3d</fix>
</trkpt>
<trkpt lat="40.0728173" lon="-105.2308772">
  <ele>1595.49</ele>
  <time>2026-08-27T18:29:30Z</time>
  <course>62.27</course>
  <speed>0.0</speed>
  <fix>3d</fix>
</trkpt>
<trkpt lat="40.0728171" lon="-105.2308774">
  <ele>1595.43</ele>
  <time>2026-08-27T18:29:30Z</time>
  <course>191.7</course>
  <speed>0.02</speed>
  <fix>3d</fix>
</trkpt>
<trkpt lat="40.0728172" lon="-105.2308772">
  <ele>1595.49</ele>
  <time>2026-08-27T18:29:30Z</time>
  <course>62.26</course>
  <speed>0.0</speed>
  <fix>3d</fix>
</trkpt>
<trkpt lat="40.072817" lon="-105.2308774">
  <ele>1595.43</ele>
  <time>2026-08-27T18:29:30Z</time>
  <course>191.87</course>
  <speed>0.02</speed>
  <fix>3d</fix>
</trkpt>
<trkpt lat="40.0728172" lon="-105.2308773">
  <ele>1595.5</ele>
  <time>2026-08-27T18:29:30Z</time>
  <course>62.26</course>
  <speed>0.0</speed>
  <fix>3d</fix>
</trkpt>
<trkpt lat="40.072817" lon="-105.2308774">
  <ele>1595.43</ele>
  <time>2026-08-27T18:29:30Z</time>
  <course>192.69</course>
  <speed>0.02</speed>
  <fix>3d</fix>
</trkpt>
<trkpt lat="40.0728172" lon="-105.2308773">
  <ele>1595.5</ele>
  <time>2026-08-27T18:29:30Z</time>
  <course>62.27</course>
  <speed>0.0</speed>
  <fix>3d</fix>
</trkpt>
<trkpt lat="40.072817" lon="-105.2308774">
  <ele>1595.43</ele>
  <time>2026-08-27T18:29:30Z</time>
  <course>193.58</course>
  <speed>0.02</speed>
  <fix>3d</fix>
</trkpt>
<trkpt lat="40.0728171" lon="-105.2308773">
  <ele>1595.5</ele>
  <time>2026-08-27T18:29:30Z</time>
  <course>62.28</course>
  <speed>0.0</speed>
  <fix>3d</fix>
</trkpt>
<trkpt lat="40.0728169" lon="-105.2308774">
  <ele>1595.43</ele>
  <time>2026-08-27T18:29:30Z</time>
  <course>193.38</course>
  <speed>0.02</speed>
  <fix>3d</fix>
</trkpt>
<trkpt lat="40.0728171" lon="-105.2308773">
  <ele>1595.5</ele>
  <time>2026-08-27T18:29:30Z</time>
  <course>62.28</course>
  <speed>0.0</speed>
  <fix>3d</fix>
</trkpt>
<trkpt lat="40.0728169" lon="-105.2308774">
  <ele>1595.43</ele>
  <time>2026-08-27T18:29:30Z</time>
  <course>191.31</course>
  <speed>0.02</speed>
  <fix>3d</fix>
</trkpt>
<trkpt lat="40.072817" lon="-105.2308773">
  <ele>1595.51</ele>
  <time>2026-08-27T18:29:30Z</time>
  <course>62.28</course>
  <speed>0.0</speed>
  <fix>3d</fix>
</trkpt>
<trkpt lat="40.0728168" lon="-105.2308774">
  <ele>1595.43</ele>
  <time>2026-08-27T18:29:30Z</time>
  <course>187.66</course>
  <speed>0.03</speed>
  <fix>3d</fix>
</trkpt>
<trkpt lat="40.0728169" lon="-105.2308774">
  <ele>1595.51</ele>
  <time>2026-08-27T18:29:30Z</time>
  <course>62.28</course>
  <speed>0.0</speed>
  <fix>3d</fix>
</trkpt>
<trkpt lat="40.0728167" lon="-105.2308774">
  <ele>1595.43</ele>
  <time>2026-08-27T18:29:30Z</time>
  <course>184.49</course>
  <speed>0.03</speed>
  <fix>3d</fix>
</trkpt>
<trkpt lat="40.0728169" lon="-105.2308774">
  <ele>1595.5</ele>
  <time>2026-08-27T18:29:30Z</time>
  <course>62.28</course>
  <speed>0.0</speed>
  <fix>3d</fix>
</trkpt>
<trkpt lat="40.0728167" lon="-105.2308774">
  <ele>1595.42</ele>
  <time>2026-08-27T18:29:30Z</time>
  <course>184.76</course>
  <speed>0.02</speed>
  <fix>3d</fix>
</trkpt>
<trkpt lat="40.0728168" lon="-105.2308774">
  <ele>1595.5</ele>
  <time>2026-08-27T18:29:30Z</time>
  <course>62.29</course>
  <speed>0.0</speed>
  <fix>3d</fix>
</trkpt>
<trkpt lat="40.0728166" lon="-105.2308774">
  <ele>1595.42</ele>
  <time>2026-08-27T18:29:30Z</time>
  <course>187.96</course>
  <speed>0.02</speed>
  <fix>3d</fix>
</trkpt>
<trkpt lat="40.0728168" lon="-105.2308774">
  <ele>1595.5</ele>
  <time>2026-08-27T18:29:30Z</time>
  <course>62.28</course>
  <speed>0.0</speed>
  <fix>3d</fix>
</trkpt>
<trkpt lat="40.0728165" lon="-105.2308774">
  <ele>1595.42</ele>
  <time>2026-08-27T18:29:30Z</time>
  <course>188.81</course>
  <speed>0.02</speed>
  <fix>3d</fix>
</trkpt>
<trkpt lat="40.0728167" lon="-105.2308774">
  <ele>1595.49</ele>
  <time>2026-08-27T18:29:30Z</time>
  <course>62.25</course>
  <speed>0.0</speed>
  <fix>3d</fix>
</trkpt>
<trkpt lat="40.0728165" lon="-105.2308774">
  <ele>1595.42</ele>
  <time>2026-08-27T18:29:30Z</time>
  <course>186.05</course>
  <speed>0.02</speed>
  <fix>3d</fix>
</trkpt>
<trkpt lat="40.0728167" lon="-105.2308774">
  <ele>1595.49</ele>
  <time>2026-08-27T18:29:30Z</time>
  <course>62.24</course>
  <speed>0.0</speed>
  <fix>3d</fix>
</trkpt>
<trkpt lat="40.0728164" lon="-105.2308774">
  <ele>1595.42</ele>
  <time>2026-08-27T18:29:30Z</time>
  <course>186.3</course>
  <speed>0.02</speed>
  <fix>3d</fix>
</trkpt>
<trkpt lat="40.0728166" lon="-105.2308774">
  <ele>1595.5</ele>
  <time>2026-08-27T18:29:30Z</time>
  <course>62.25</course>
  <speed>0.0</speed>
  <fix>3d</fix>
</trkpt>
<trkpt lat="40.0728164" lon="-105.2308774">
  <ele>1595.42</ele>
  <time>2026-08-27T18:29:30Z</time>
  <course>189.39</course>
  <speed>0.02</speed>
  <fix>3d</fix>
</trkpt>
<trkpt lat="40.0728165" lon="-105.2308774">
  <ele>1595.5</ele>
  <time>2026-08-27T18:29:30Z</time>
  <course>62.24</course>
  <speed>0.0</speed>
  <fix>3d</fix>
</trkpt>
<trkpt lat="40.0728164" lon="-105.2308774">
  <ele>1595.42</ele>
  <time>2026-08-27T18:29:30Z</time>
  <course>188.73</course>
  <speed>0.02</speed>
  <fix>3d</fix>
</trkpt>
<trkpt lat="40.0728165" lon="-105.2308774">
  <ele>1595.49</ele>
  <time>2026-08-27T18:29:30Z</time>
  <course>62.26</course>
  <speed>0.0</speed>
  <fix>3d</fix>
</trkpt>
<trkpt lat="40.0728163" lon="-105.2308774">
  <ele>1595.42</ele>
  <time>2026-08-27T18:29:30Z</time>
  <course>188.89</course>
  <speed>0.02</speed>
  <fix>3d</fix>
</trkpt>
<trkpt lat="40.0728164" lon="-105.2308774">
  <ele>1595.49</ele>
  <time>2026-08-27T18:29:30Z</time>
  <course>62.27</course>
  <speed>0.0</speed>
  <fix>3d</fix>
</trkpt>
<trkpt lat="40.0728163" lon="-105.2308774">
  <ele>1595.42</ele>
  <time>2026-08-27T18:29:30Z</time>
  <course>190.5</course>
  <speed>0.02</speed>
  <fix>3d</fix>
</trkpt>
<trkpt lat="40.0728164" lon="-105.2308774">
  <ele>1595.5</ele>
  <time>2026-08-27T18:29:30Z</time>
  <course>62.25</course>
  <speed>0.0</speed>
  <fix>3d</fix>
</trkpt>
<trkpt lat="40.0728162" lon="-105.2308774">
  <ele>1595.42</ele>
  <time>2026-08-27T18:29:30Z</time>
  <course>190.35</course>
  <speed>0.02</speed>
  <fix>3d</fix>
</trkpt>
<trkpt lat="40.0728163" lon="-105.2308774">
  <ele>1595.5</ele>
  <time>2026-08-27T18:29:30Z</time>
  <course>62.26</course>
  <speed>0.0</speed>
  <fix>3d</fix>
</trkpt>
<trkpt lat="40.0728162" lon="-105.2308774">
  <ele>1595.42</ele>
  <time>2026-08-27T18:29:30Z</time>
  <course>191.31</course>
  <speed>0.02</speed>
  <fix>3d</fix>
</trkpt>
<trkpt lat="40.0728163" lon="-105.2308774">
  <ele>1595.5</ele>
  <time>2026-08-27T18:29:30Z</time>
  <course>62.26</course>
  <speed>0.0</speed>
  <fix>3d</fix>
</trkpt>
<trkpt lat="40.0728161" lon="-105.2308775">
  <ele>1595.42</ele>
  <time>2026-08-27T18:29:30Z</time>
  <course>192.4</course>
  <speed>0.02</speed>
  <fix>3d</fix>
</trkpt>
<trkpt lat="40.0728162" lon="-105.2308774">
  <ele>1595.51</ele>
  <time>2026-08-27T18:29:30Z</time>
  <course>62.27</course>
  <speed>0.0</speed>
  <fix>3d</fix>
</trkpt>
<trkpt lat="40.0728161" lon="-105.2308776">
  <ele>1595.42</ele>
  <time>2026-08-27T18:29:30Z</time>
  <course>192.98</course>
  <speed>0.02</speed>
  <fix>3d</fix>
</trkpt>
<trkpt lat="40.0728162" lon="-105.2308774">
  <ele>1595.5</ele>
  <time>2026-08-27T18:29:30Z</time>
  <course>62.27</course>
  <speed>0.0</speed>
  <fix>3d</fix>
</trkpt>
<trkpt lat="40.072816" lon="-105.2308776">
  <ele>1595.42</ele>
  <time>2026-08-27T18:29:30Z</time>
  <course>191.94</course>
  <speed>0.02</speed>
  <fix>3d</fix>
</trkpt>
<trkpt lat="40.0728162" lon="-105.2308774">
  <ele>1595.5</ele>
  <time>2026-08-27T18:29:30Z</time>
  <course>62.26</course>
  <speed>0.0</speed>
  <fix>3d</fix>
</trkpt>
<trkpt lat="40.0728159" lon="-105.2308776">
  <ele>1595.42</ele>
  <time>2026-08-27T18:29:30Z</time>
  <course>188.55</course>
  <speed>0.02</speed>
  <fix>3d</fix>
</trkpt>
<trkpt lat="40.0728161" lon="-105.2308775">
  <ele>1595.5</ele>
  <time>2026-08-27T18:29:30Z</time>
  <course>62.25</course>
  <speed>0.0</speed>
  <fix>3d</fix>
</trkpt>
<trkpt lat="40.0728159" lon="-105.2308776">
  <ele>1595.42</ele>
  <time>2026-08-27T18:29:30Z</time>
  <course>185.82</course>
  <speed>0.02</speed>
  <fix>3d</fix>
</trkpt>
<trkpt lat="40.072816" lon="-105.2308775">
  <ele>1595.5</ele>
  <time>2026-08-27T18:29:30Z</time>
  <course>62.24</course>
  <speed>0.0</speed>
  <fix>3d</fix>
</trkpt>
<trkpt lat="40.0728158" lon="-105.2308776">
  <ele>1595.41</ele>
  <time>2026-08-27T18:29:30Z</time>
  <course>184.85</course>
  <speed>0.02</speed>
  <fix>3d</fix>
</trkpt>
<trkpt lat="40.072816" lon="-105.2308775">
  <ele>1595.5</ele>
  <time>2026-08-27T18:29:30Z</time>
  <course>62.24</course>
  <speed>0.0</speed>
  <fix>3d</fix>
</trkpt>
<trkpt lat="40.0728158" lon="-105.2308776">
  <ele>1595.41</ele>
  <time>2026-08-27T18:29:30Z</time>
  <course>184.7</course>
  <speed>0.02</speed>
  <fix>3d</fix>
</trkpt>
<trkpt lat="40.0728159" lon="-105.2308775">
  <ele>1595.5</ele>
  <time>2026-08-27T18:29:30Z</time>
  <course>62.24</course>
  <speed>0.0</speed>
  <fix>3d</fix>
</trkpt>
<trkpt lat="40.0728158" lon="-105.2308776">
  <ele>1595.41</ele>
  <time>2026-08-27T18:29:30Z</time>
  <course>184.85</course>
  <speed>0.02</speed>
  <fix>3d</fix>
</trkpt>
<trkpt lat="40.0728159" lon="-105.2308775">
  <ele>1595.51</ele>
  <time>2026-08-27T18:29:30Z</time>
  <course>62.26</course>
  <speed>0.0</speed>
  <fix>3d</fix>
</trkpt>
<trkpt lat="40.0728157" lon="-105.2308776">
  <ele>1595.41</ele>
  <time>2026-08-27T18:29:30Z</time>
  <course>185.14</course>
  <speed>0.02</speed>
  <fix>3d</fix>
</trkpt>
<trkpt lat="40.0728158" lon="-105.2308775">
  <ele>1595.51</ele>
  <time>2026-08-27T18:29:30Z</time>
  <course>62.26</course>
  <speed>0.0</speed>
  <fix>3d</fix>
</trkpt>
<trkpt lat="40.0728157" lon="-105.2308776">
  <ele>1595.41</ele>
  <time>2026-08-27T18:29:30Z</time>
  <course>185.64</course>
  <speed>0.02</speed>
  <fix>3d</fix>
</trkpt>
<trkpt lat="40.0728158" lon="-105.2308775">
  <ele>1595.51</ele>
  <time>2026-08-27T18:29:30Z</time>
  <course>62.28</course>
  <speed>0.0</speed>
  <fix>3d</fix>
</trkpt>
<trkpt lat="40.0728156" lon="-105.2308776">
  <ele>1595.41</ele>
  <time>2026-08-27T18:29:30Z</time>
  <course>186.13</course>
  <speed>0.02</speed>
  <fix>3d</fix>
</trkpt>
<trkpt lat="40.0728157" lon="-105.2308775">
  <ele>1595.5</ele>
  <time>2026-08-27T18:29:30Z</time>
  <course>62.26</course>
  <speed>0.0</speed>
  <fix>3d</fix>
</trkpt>
<trkpt lat="40.0728156" lon="-105.2308776">
  <ele>1595.41</ele>
  <time>2026-08-27T18:29:30Z</time>
  <course>186.48</course>
  <speed>0.03</speed>
  <fix>3d</fix>
</trkpt>
<trkpt lat="40.0728157" lon="-105.2308775">
  <ele>1595.5</ele>
  <time>2026-08-27T18:29:30Z</time>
  <course>62.25</course>
  <speed>0.0</speed>
  <fix>3d</fix>
</trkpt>
<trkpt lat="40.0728155" lon="-105.2308776">
  <ele>1595.4</ele>
  <time>2026-08-27T18:29:30Z</time>
  <course>186.78</course>
  <speed>0.03</speed>
  <fix>3d</fix>
</trkpt>
<trkpt lat="40.0728156" lon="-105.2308775">
  <ele>1595.5</ele>
  <time>2026-08-27T18:29:30Z</time>
  <course>62.25</course>
  <speed>0.01</speed>
  <fix>3d</fix>
</trkpt>
<trkpt lat="40.0728155" lon="-105.2308776">
  <ele>1595.4</ele>
  <time>2026-08-27T18:29:30Z</time>
  <course>186.89</course>
  <speed>0.03</speed>
  <fix>3d</fix>
</trkpt>
<trkpt lat="40.0728156" lon="-105.2308775">
  <ele>1595.5</ele>
  <time>2026-08-27T18:29:30Z</time>
  <course>62.24</course>
  <speed>0.01</speed>
  <fix>3d</fix>
</trkpt>
<trkpt lat="40.0728154" lon="-105.2308776">
  <ele>1595.4</ele>
  <time>2026-08-27T18:29:30Z</time>
  <course>187.08</course>
  <speed>0.03</speed>
  <fix>3d</fix>
</trkpt>
<trkpt lat="40.0728155" lon="-105.2308776">
  <ele>1595.5</ele>
  <time>2026-08-27T18:29:30Z</time>
  <course>62.25</course>
  <speed>0.01</speed>
  <fix>3d</fix>
</trkpt>
<trkpt lat="40.0728153" lon="-105.2308776">
  <ele>1595.4</ele>
  <time>2026-08-27T18:29:30Z</time>
  <course>187.42</course>
  <speed>0.03</speed>
  <fix>3d</fix>
</trkpt>
<trkpt lat="40.0728154" lon="-105.2308776">
  <ele>1595.5</ele>
  <time>2026-08-27T18:29:30Z</time>
  <course>62.26</course>
  <speed>0.01</speed>
  <fix>3d</fix>
</trkpt>
<trkpt lat="40.0728152" lon="-105.2308776">
  <ele>1595.4</ele>
  <time>2026-08-27T18:29:30Z</time>
  <course>187.84</course>
  <speed>0.03</speed>
  <fix>3d</fix>
</trkpt>
<trkpt lat="40.0728154" lon="-105.2308776">
  <ele>1595.5</ele>
  <time>2026-08-27T18:29:30Z</time>
  <course>62.25</course>
  <speed>0.01</speed>
  <fix>3d</fix>
</trkpt>
<trkpt lat="40.0728152" lon="-105.2308776">
  <ele>1595.39</ele>
  <time>2026-08-27T18:29:30Z</time>
  <course>188.68</course>
  <speed>0.03</speed>
  <fix>3d</fix>
</trkpt>
<trkpt lat="40.0728153" lon="-105.2308776">
  <ele>1595.49</ele>
  <time>2026-08-27T18:29:30Z</time>
  <course>62.24</course>
  <speed>0.01</speed>
  <fix>3d</fix>
</trkpt>
<trkpt lat="40.0728152" lon="-105.2308776">
  <ele>1595.39</ele>
  <time>2026-08-27T18:29:30Z</time>
  <course>184.0</course>
  <speed>0.03</speed>
  <fix>3d</fix>
</trkpt>
<trkpt lat="40.0728153" lon="-105.2308776">
  <ele>1595.49</ele>
  <time>2026-08-27T18:29:30Z</time>
  <course>62.35</course>
  <speed>0.05</speed>
  <fix>3d</fix>
</trkpt>
<trkpt lat="40.0728151" lon="-105.2308776">
  <ele>1595.39</ele>
  <time>2026-08-27T18:29:30Z</time>
  <course>135.67</course>
  <speed>0.03</speed>
  <fix>3d</fix>
</trkpt>
<trkpt lat="40.0728153" lon="-105.2308775">
  <ele>1595.48</ele>
  <time>2026-08-27T18:29:30Z</time>
  <course>62.25</course>
  <speed>0.022360679774997897</speed>
  <fix>3d</fix>
</trkpt>
<trkpt lat="40.0728151" lon="-105.2308776">
  <ele>1595.39</ele>
  <time>2026-08-27T18:29:30Z</time>
  <course>115.12</course>
  <speed>0.03</speed>
  <fix>3d</fix>
</trkpt>
<trkpt lat="40.0728152" lon="-105.2308774">
  <ele>1595.48</ele>
  <time>2026-08-27T18:29:30Z</time>
  <course>62.37</course>
  <speed>0.03</speed>
  <fix>3d</fix>
</trkpt>
<trkpt lat="40.0728151" lon="-105.2308776">
  <ele>1595.39</ele>
  <time>2026-08-27T18:29:30Z</time>
  <course>115.95</course>
  <speed>0.03</speed>
  <fix>3d</fix>
</trkpt>
<trkpt lat="40.0728152" lon="-105.2308774">
  <ele>1595.48</ele>
  <time>2026-08-27T18:29:30Z</time>
  <course>62.23</course>
  <speed>0.01414213562373095</speed>
  <fix>3d</fix>
</trkpt>
<trkpt lat="40.072815" lon="-105.2308776">
  <ele>1595.39</ele>
  <time>2026-08-27T18:29:30Z</time>
  <course>119.87</course>
  <speed>0.02</speed>
  <fix>3d</fix>
</trkpt>
<trkpt lat="40.0728152" lon="-105.2308774">
  <ele>1595.48</ele>
  <time>2026-08-27T18:29:30Z</time>
  <course>62.32</course>
  <speed>0.0</speed>
  <fix>3d</fix>
</trkpt>
<trkpt lat="40.072815" lon="-105.2308775">
  <ele>1595.39</ele>
  <time>2026-08-27T18:29:30Z</time>
  <course>147.8</course>
  <speed>0.01</speed>
  <fix>3d</fix>
</trkpt>
<trkpt lat="40.0728152" lon="-105.2308774">
  <ele>1595.48</ele>
  <time>2026-08-27T18:29:30Z</time>
  <course>62.22</course>
  <speed>0.01</speed>
  <fix>3d</fix>
</trkpt>
<trkpt lat="40.072815" lon="-105.2308774">
  <ele>1595.39</ele>
  <time>2026-08-27T18:29:30Z</time>
  <course>158.58</course>
  <speed>0.02</speed>
  <fix>3d</fix>
</trkpt>
<trkpt lat="40.0728151" lon="-105.2308774">
  <ele>1595.49</ele>
  <time>2026-08-27T18:29:30Z</time>
  <course>62.31</course>
  <speed>0.0</speed>
  <fix>3d</fix>
</trkpt>
<trkpt lat="40.0728149" lon="-105.2308774">
  <ele>1595.4</ele>
  <time>2026-08-27T18:29:30Z</time>
  <course>180.25</course>
  <speed>0.02</speed>
  <fix>3d</fix>
</trkpt>
<trkpt lat="40.0728151" lon="-105.2308774">
  <ele>1595.5</ele>
  <time>2026-08-27T18:29:30Z</time>
  <course>62.31</course>
  <speed>0.01</speed>
  <fix>3d</fix>
</trkpt>
<trkpt lat="40.0728149" lon="-105.2308774">
  <ele>1595.4</ele>
  <time>2026-08-27T18:29:30Z</time>
  <course>174.96</course>
  <speed>0.02</speed>
  <fix>3d</fix>
</trkpt>
<trkpt lat="40.072815" lon="-105.2308774">
  <ele>1595.5</ele>
  <time>2026-08-27T18:29:30Z</time>
  <course>62.33</course>
  <speed>0.01</speed>
  <fix>3d</fix>
</trkpt>
<trkpt lat="40.0728148" lon="-105.2308774">
  <ele>1595.4</ele>
  <time>2026-08-27T18:29:30Z</time>
  <course>187.65</course>
  <speed>0.02</speed>
  <fix>3d</fix>
</trkpt>
<trkpt lat="40.072815" lon="-105.2308774">
  <ele>1595.5</ele>
  <time>2026-08-27T18:29:30Z</time>
  <course>62.39</course>
  <speed>0.01</speed>
  <fix>3d</fix>
</trkpt>
<trkpt lat="40.0728147" lon="-105.2308774">
  <ele>1595.4</ele>
  <time>2026-08-27T18:29:30Z</time>
  <course>179.85</course>
  <speed>0.02</speed>
  <fix>3d</fix>
</trkpt>
<trkpt lat="40.0728149" lon="-105.2308774">
  <ele>1595.49</ele>
  <time>2026-08-27T18:29:30Z</time>
  <course>62.31</course>
  <speed>0.01</speed>
  <fix>3d</fix>
</trkpt>
<trkpt lat="40.0728147" lon="-105.2308774">
  <ele>1595.4</ele>
  <time>2026-08-27T18:29:30Z</time>
  <course>188.87</course>
  <speed>0.02</speed>
  <fix>3d</fix>
</trkpt>
<trkpt lat="40.0728149" lon="-105.2308774">
  <ele>1595.49</ele>
  <time>2026-08-27T18:29:30Z</time>
  <course>62.4</course>
  <speed>0.01414213562373095</speed>
  <fix>3d</fix>
</trkpt>
<trkpt lat="40.0728146" lon="-105.2308774">
  <ele>1595.4</ele>
  <time>2026-08-27T18:29:30Z</time>
  <course>182.71</course>
  <speed>0.02</speed>
  <fix>3d</fix>
</trkpt>
<trkpt lat="40.0728148" lon="-105.2308774">
  <ele>1595.49</ele>
  <time>2026-08-27T18:29:30Z</time>
  <course>62.25</course>
  <speed>0.01</speed>
  <fix>3d</fix>
</trkpt>
<trkpt lat="40.0728146" lon="-105.2308774">
  <ele>1595.4</ele>
  <time>2026-08-27T18:29:30Z</time>
  <course>187.6</course>
  <speed>0.02</speed>
  <fix>3d</fix>
</trkpt>
<trkpt lat="40.0728147" lon="-105.2308774">
  <ele>1595.49</ele>
  <time>2026-08-27T18:29:30Z</time>
  <course>62.37</course>
  <speed>0.01</speed>
  <fix>3d</fix>
</trkpt>
<trkpt lat="40.0728146" lon="-105.2308774">
  <ele>1595.4</ele>
  <time>2026-08-27T18:29:30Z</time>
  <course>186.03</course>
  <speed>0.02</speed>
  <fix>3d</fix>
</trkpt>
<trkpt lat="40.0728147" lon="-105.2308774">
  <ele>1595.49</ele>
  <time>2026-08-27T18:29:30Z</time>
  <course>62.23</course>
  <speed>0.0</speed>
  <fix>3d</fix>
</trkpt>
<trkpt lat="40.0728145" lon="-105.2308774">
  <ele>1595.4</ele>
  <time>2026-08-27T18:29:30Z</time>
  <course>186.44</course>
  <speed>0.02</speed>
  <fix>3d</fix>
</trkpt>
<trkpt lat="40.0728146" lon="-105.2308774">
  <ele>1595.49</ele>
  <time>2026-08-27T18:29:30Z</time>
  <course>62.35</course>
  <speed>0.01</speed>
  <fix>3d</fix>
</trkpt>
<trkpt lat="40.0728145" lon="-105.2308774">
  <ele>1595.4</ele>
  <time>2026-08-27T18:29:30Z</time>
  <course>190.11</course>
  <speed>0.02</speed>
  <fix>3d</fix>
</trkpt>
<trkpt lat="40.0728146" lon="-105.2308774">
  <ele>1595.49</ele>
  <time>2026-08-27T18:29:30Z</time>
  <course>62.24</course>
  <speed>0.0</speed>
  <fix>3d</fix>
</trkpt>
<trkpt lat="40.0728144" lon="-105.2308774">
  <ele>1595.41</ele>
  <time>2026-08-27T18:29:30Z</time>
  <course>185.49</course>
  <speed>0.02</speed>
  <fix>3d</fix>
</trkpt>
<trkpt lat="40.0728145" lon="-105.2308774">
  <ele>1595.49</ele>
  <time>2026-08-27T18:29:30Z</time>
  <course>62.33</course>
  <speed>0.01</speed>
  <fix>3d</fix>
</trkpt>
<trkpt lat="40.0728144" lon="-105.2308774">
  <ele>1595.41</ele>
  <time>2026-08-27T18:29:30Z</time>
  <course>193.16</course>
  <speed>0.02</speed>
  <fix>3d</fix>
</trkpt>
<trkpt lat="40.0728145" lon="-105.2308774">
  <ele>1595.49</ele>
  <time>2026-08-27T18:29:30Z</time>
  <course>62.29</course>
  <speed>0.01</speed>
  <fix>3d</fix>
</trkpt>
<trkpt lat="40.0728143" lon="-105.2308774">
  <ele>1595.41</ele>
  <time>2026-08-27T18:29:30Z</time>
  <course>184.95</course>
  <speed>0.02</speed>
  <fix>3d</fix>
</trkpt>
<trkpt lat="40.0728144" lon="-105.2308774">
  <ele>1595.5</ele>
  <time>2026-08-27T18:29:30Z</time>
  <course>62.32</course>
  <speed>0.01</speed>
  <fix>3d</fix>
</trkpt>
<trkpt lat="40.0728143" lon="-105.2308774">
  <ele>1595.41</ele>
  <time>2026-08-27T18:29:30Z</time>
  <course>194.69</course>
  <speed>0.02</speed>
  <fix>3d</fix>
</trkpt>
<trkpt lat="40.0728144" lon="-105.2308774">
  <ele>1595.5</ele>
  <time>2026-08-27T18:29:30Z</time>
  <course>62.36</course>
  <speed>0.01</speed>
  <fix>3d</fix>
</trkpt>
<trkpt lat="40.0728143" lon="-105.2308774">
  <ele>1595.41</ele>
  <time>2026-08-27T18:29:30Z</time>
  <course>185.75</course>
  <speed>0.02</speed>
  <fix>3d</fix>
</trkpt>
<trkpt lat="40.0728144" lon="-105.2308774">
  <ele>1595.51</ele>
  <time>2026-08-27T18:29:31Z</time>
  <course>62.32</course>
  <speed>0.01</speed>
  <fix>3d</fix>
</trkpt>
<trkpt lat="40.0728142" lon="-105.2308774">
  <ele>1595.42</ele>
  <time>2026-08-27T18:29:31Z</time>
  <course>195.18</course>
  <speed>0.02</speed>
  <fix>3d</fix>
</trkpt>
<trkpt lat="40.0728143" lon="-105.2308774">
  <ele>1595.51</ele>
  <time>2026-08-27T18:29:31Z</time>
  <course>62.42</course>
  <speed>0.01414213562373095</speed>
  <fix>3d</fix>
</trkpt>
<trkpt lat="40.0728141" lon="-105.2308774">
  <ele>1595.41</ele>
  <time>2026-08-27T18:29:31Z</time>
  <course>187.55</course>
  <speed>0.02</speed>
  <fix>3d</fix>
</trkpt>
<trkpt lat="40.0728143" lon="-105.2308774">
  <ele>1595.51</ele>
  <time>2026-08-27T18:29:31Z</time>
  <course>62.32</course>
  <speed>0.01</speed>
  <fix>3d</fix>
</trkpt>
<trkpt lat="40.0728141" lon="-105.2308775">
  <ele>1595.41</ele>
  <time>2026-08-27T18:29:31Z</time>
  <course>193.54</course>
  <speed>0.02</speed>
  <fix>3d</fix>
</trkpt>
<trkpt lat="40.0728142" lon="-105.2308774">
  <ele>1595.51</ele>
  <time>2026-08-27T18:29:31Z</time>
  <course>62.44</course>
  <speed>0.01414213562373095</speed>
  <fix>3d</fix>
</trkpt>
<trkpt lat="40.072814" lon="-105.2308776">
  <ele>1595.41</ele>
  <time>2026-08-27T18:29:31Z</time>
  <course>189.23</course>
  <speed>0.02</speed>
  <fix>3d</fix>
</trkpt>
<trkpt lat="40.0728142" lon="-105.2308774">
  <ele>1595.5</ele>
  <time>2026-08-27T18:29:31Z</time>
  <course>62.29</course>
  <speed>0.0</speed>
  <fix>3d</fix>
</trkpt>
<trkpt lat="40.072814" lon="-105.2308776">
  <ele>1595.41</ele>
  <time>2026-08-27T18:29:31Z</time>
  <course>189.96</course>
  <speed>0.02</speed>
  <fix>3d</fix>
</trkpt>
<trkpt lat="40.0728141" lon="-105.2308774">
  <ele>1595.5</ele>
  <time>2026-08-27T18:29:31Z</time>
  <course>62.28</course>
  <speed>0.07071067811865475</speed>
  <fix>3d</fix>
</trkpt>
<trkpt lat="40.072814" lon="-105.2308776">
  <ele>1595.4</ele>
  <time>2026-08-27T18:29:31Z</time>
  <course>138.47</course>
  <speed>0.02</speed>
  <fix>3d</fix>
</trkpt>
<trkpt lat="40.0728142" lon="-105.2308773">
  <ele>1595.49</ele>
  <time>2026-08-27T18:29:31Z</time>
  <course>62.25</course>
  <speed>0.11401754250991379</speed>
  <fix>3d</fix>
</trkpt>
<trkpt lat="40.072814" lon="-105.2308775">
  <ele>1595.4</ele>
  <time>2026-08-27T18:29:31Z</time>
  <course>91.21</course>
  <speed>0.07</speed>
  <fix>3d</fix>
</trkpt>
<trkpt lat="40.0728141" lon="-105.230877">
  <ele>1595.48</ele>
  <time>2026-08-27T18:29:31Z</time>
  <course>62.25</course>
  <speed>0.13</speed>
  <fix>3d</fix>
</trkpt>
<trkpt lat="40.072814" lon="-105.2308773">
  <ele>1595.4</ele>
  <time>2026-08-27T18:29:31Z</time>
  <course>80.21</course>
  <speed>0.11</speed>
  <fix>3d</fix>
</trkpt>
<trkpt lat="40.0728142" lon="-105.2308767">
  <ele>1595.48</ele>
  <time>2026-08-27T18:29:31Z</time>
  <course>62.24</course>
  <speed>0.1341640786499874</speed>
  <fix>3d</fix>
</trkpt>
<trkpt lat="40.072814" lon="-105.230877">
  <ele>1595.4</ele>
  <time>2026-08-27T18:29:31Z</time>
  <course>75.0</course>
  <speed>0.12</speed>
  <fix>3d</fix>
</trkpt>
<trkpt lat="40.0728142" lon="-105.2308765">
  <ele>1595.48</ele>
  <time>2026-08-27T18:29:31Z</time>
  <course>62.25</course>
  <speed>0.1341640786499874</speed>
  <fix>3d</fix>
</trkpt>
<trkpt lat="40.072814" lon="-105.2308767">
  <ele>1595.4</ele>
  <time>2026-08-27T18:29:31Z</time>
  <course>72.46</course>
  <speed>0.12</speed>
  <fix>3d</fix>
</trkpt>
<trkpt lat="40.0728143" lon="-105.2308762">
  <ele>1595.49</ele>
  <time>2026-08-27T18:29:31Z</time>
  <course>62.25</course>
  <speed>0.12529964086141668</speed>
  <fix>3d</fix>
</trkpt>
<trkpt lat="40.072814" lon="-105.2308764">
  <ele>1595.4</ele>
  <time>2026-08-27T18:29:31Z</time>
  <course>71.49</course>
  <speed>0.12</speed>
  <fix>3d</fix>
</trkpt>
<trkpt lat="40.0728144" lon="-105.230876">
  <ele>1595.5</ele>
  <time>2026-08-27T18:29:31Z</time>
  <course>62.26</course>
  <speed>0.12083045973594572</speed>
  <fix>3d</fix>
</trkpt>
<trkpt lat="40.0728141" lon="-105.2308761">
  <ele>1595.4</ele>
  <time>2026-08-27T18:29:31Z</time>
  <course>71.51</course>
  <speed>0.12</speed>
  <fix>3d</fix>
</trkpt>
<trkpt lat="40.0728144" lon="-105.2308757">
  <ele>1595.5</ele>
  <time>2026-08-27T18:29:31Z</time>
  <course>62.25</course>
  <speed>0.1118033988749895</speed>
  <fix>3d</fix>
</trkpt>
<trkpt lat="40.0728141" lon="-105.2308759">
  <ele>1595.41</ele>
  <time>2026-08-27T18:29:31Z</time>
  <course>72.07</course>
  <speed>0.11</speed>
  <fix>3d</fix>
</trkpt>
<trkpt lat="40.0728144" lon="-105.2308755">
  <ele>1595.51</ele>
  <time>2026-08-27T18:29:31Z</time>
  <course>62.27</course>
  <speed>0.1118033988749895</speed>
  <fix>3d</fix>
</trkpt>
<trkpt lat="40.0728142" lon="-105.2308756">
  <ele>1595.41</ele>
  <time>2026-08-27T18:29:31Z</time>
  <course>72.73</course>
  <speed>0.11</speed>
  <fix>3d</fix>
</trkpt>
<trkpt lat="40.0728145" lon="-105.2308752">
  <ele>1595.51</ele>
  <time>2026-08-27T18:29:31Z</time>
  <course>62.27</course>
  <speed>0.10770329614269007</speed>
  <fix>3d</fix>
</trkpt>
<trkpt lat="40.0728143" lon="-105.2308754">
  <ele>1595.41</ele>
  <time>2026-08-27T18:29:31Z</time>
  <course>73.53</course>
  <speed>0.1</speed>
  <fix>3d</fix>
</trkpt>
<trkpt lat="40.0728145" lon="-105.230875">
  <ele>1595.51</ele>
  <time>2026-08-27T18:29:31Z</time>
  <course>62.26</course>
  <speed>0.10770329614269007</speed>
  <fix>3d</fix>
</trkpt>
<trkpt lat="40.0728143" lon="-105.2308751">
  <ele>1595.41</ele>
  <time>2026-08-27T18:29:31Z</time>
  <course>74.48</course>
  <speed>0.1</speed>
  <fix>3d</fix>
</trkpt>
<trkpt lat="40.0728146" lon="-105.2308748">
  <ele>1595.51</ele>
  <time>2026-08-27T18:29:31Z</time>
  <course>62.28</course>
  <speed>0.09848857801796104</speed>
  <fix>3d</fix>
</trkpt>
<trkpt lat="40.0728144" lon="-105.230875">
  <ele>1595.4</ele>
  <time>2026-08-27T18:29:31Z</time>
  <course>75.49</course>
  <speed>0.1</speed>
  <fix>3d</fix>
</trkpt>
<trkpt lat="40.0728146" lon="-105.2308746">
  <ele>1595.51</ele>
  <time>2026-08-27T18:29:31Z</time>
  <course>62.26</course>
  <speed>0.09848857801796104</speed>
  <fix>3d</fix>
</trkpt>
<trkpt lat="40.0728144" lon="-105.2308747">
  <ele>1595.4</ele>
  <time>2026-08-27T18:29:31Z</time>
  <course>76.52</course>
  <speed>0.09</speed>
  <fix>3d</fix>
</trkpt>
<trkpt lat="40.0728146" lon="-105.2308743">
  <ele>1595.51</ele>
  <time>2026-08-27T18:29:31Z</time>
  <course>62.27</course>
  <speed>0.09486832980505139</speed>
  <fix>3d</fix>
</trkpt>
<trkpt lat="40.0728145" lon="-105.2308745">
  <ele>1595.4</ele>
  <time>2026-08-27T18:29:31Z</time>
  <course>77.54</course>
  <speed>0.09</speed>
  <fix>3d</fix>
</trkpt>
<trkpt lat="40.0728146" lon="-105.2308741">
  <ele>1595.51</ele>
  <time>2026-08-27T18:29:31Z</time>
  <course>62.27</course>
  <speed>0.09486832980505139</speed>
  <fix>3d</fix>
</trkpt>
<trkpt lat="40.0728145" lon="-105.2308742">
  <ele>1595.39</ele>
  <time>2026-08-27T18:29:31Z</time>
  <course>78.41</course>
  <speed>0.09</speed>
  <fix>3d</fix>
</trkpt>
<trkpt lat="40.0728147" lon="-105.2308739">
  <ele>1595.51</ele>
  <time>2026-08-27T18:29:31Z</time>
  <course>62.25</course>
  <speed>0.0854400374531753</speed>
  <fix>3d</fix>
</trkpt>
<trkpt lat="40.0728146" lon="-105.2308741">
  <ele>1595.39</ele>
  <time>2026-08-27T18:29:31Z</time>
  <course>79.4</course>
  <speed>0.08</speed>
  <fix>3d</fix>
</trkpt>
<trkpt lat="40.0728147" lon="-105.2308737">
  <ele>1595.5</ele>
  <time>2026-08-27T18:29:31Z</time>
  <course>62.23</course>
  <speed>0.11704699910719625</speed>
  <fix>3d</fix>
</trkpt>
<trkpt lat="40.0728146" lon="-105.2308739">
  <ele>1595.39</ele>
  <time>2026-08-27T18:29:31Z</time>
  <course>78.2</course>
  <speed>0.09</speed>
  <fix>3d</fix>
</trkpt>
<trkpt lat="40.0728147" lon="-105.2308734">
  <ele>1595.5</ele>
  <time>2026-08-27T18:29:31Z</time>
  <course>62.39</course>
  <speed>0.11401754250991379</speed>
  <fix>3d</fix>
</trkpt>
<trkpt lat="40.0728146" lon="-105.2308736">
  <ele>1595.38</ele>
  <time>2026-08-27T18:29:31Z</time>
  <course>80.35</course>
  <speed>0.11</speed>
  <fix>3d</fix>
</trkpt>
<trkpt lat="40.0728148" lon="-105.2308732">
  <ele>1595.49</ele>
  <time>2026-08-27T18:29:31Z</time>
  <course>62.27</course>
  <speed>0.08944271909999159</speed>
  <fix>3d</fix>
</trkpt>
<trkpt lat="40.0728146" lon="-105.2308734">
  <ele>1595.38</ele>
  <time>2026-08-27T18:29:31Z</time>
  <course>76.65</course>
  <speed>0.1</speed>
  <fix>3d</fix>
</trkpt>
<trkpt lat="40.0728148" lon="-105.2308731">
  <ele>1595.49</ele>
  <time>2026-08-27T18:29:31Z</time>
  <course>62.4</course>
  <speed>0.053851648071345036</speed>
  <fix>3d</fix>
</trkpt>
<trkpt lat="40.0728146" lon="-105.2308731">
  <ele>1595.38</ele>
  <time>2026-08-27T18:29:31Z</time>
  <course>76.88</course>
  <speed>0.07</speed>
  <fix>3d</fix>
</trkpt>
<trkpt lat="40.0728148" lon="-105.230873">
  <ele>1595.49</ele>
  <time>2026-08-27T18:29:31Z</time>
  <course>62.29</course>
  <speed>0.053851648071345036</speed>
  <fix>3d</fix>
</trkpt>
<trkpt lat="40.0728146" lon="-105.230873">
  <ele>1595.38</ele>
  <time>2026-08-27T18:29:31Z</time>
  <course>82.12</course>
  <speed>0.05</speed>
  <fix>3d</fix>
</trkpt>
<trkpt lat="40.0728148" lon="-105.2308729">
  <ele>1595.49</ele>
  <time>2026-08-27T18:29:31Z</time>
  <course>62.35</course>
  <speed>0.01</speed>
  <fix>3d</fix>
</trkpt>
<trkpt lat="40.0728146" lon="-105.2308729">
  <ele>1595.38</ele>
  <time>2026-08-27T18:29:31Z</time>
  <course>92.52</course>
  <speed>0.03</speed>
  <fix>3d</fix>
</trkpt>
<trkpt lat="40.0728148" lon="-105.2308728">
  <ele>1595.49</ele>
  <time>2026-08-27T18:29:31Z</time>
  <course>62.35</course>
  <speed>0.04</speed>
  <fix>3d</fix>
</trkpt>
<trkpt lat="40.0728146" lon="-105.2308728">
  <ele>1595.38</ele>
  <time>2026-08-27T18:29:31Z</time>
  <course>111.24</course>
  <speed>0.03</speed>
  <fix>3d</fix>
</trkpt>
<trkpt lat="40.0728148" lon="-105.2308728">
  <ele>1595.49</ele>
  <time>2026-08-27T18:29:31Z</time>
  <course>62.3</course>
  <speed>0.0</speed>
  <fix>3d</fix>
</trkpt>
<trkpt lat="40.0728146" lon="-105.2308727">
  <ele>1595.38</ele>
  <time>2026-08-27T18:29:31Z</time>
  <course>131.11</course>
  <speed>0.02</speed>
  <fix>3d</fix>
</trkpt>
<trkpt lat="40.0728148" lon="-105.2308727">
  <ele>1595.49</ele>
  <time>2026-08-27T18:29:31Z</time>
  <course>62.42</course>
  <speed>0.0316227766016838</speed>
  <fix>3d</fix>
</trkpt>
<trkpt lat="40.0728146" lon="-105.2308726">
  <ele>1595.38</ele>
  <time>2026-08-27T18:29:31Z</time>
  <course>142.41</course>
  <speed>0.02</speed>
  <fix>3d</fix>
</trkpt>
<trkpt lat="40.0728147" lon="-105.2308727">
  <ele>1595.49</ele>
  <time>2026-08-27T18:29:31Z</time>
  <course>62.28</course>
  <speed>0.0</speed>
  <fix>3d</fix>
</trkpt>
<trkpt lat="40.0728146" lon="-105.2308726">
  <ele>1595.38</ele>
  <time>2026-08-27T18:29:31Z</time>
  <course>155.86</course>
  <speed>0.02</speed>
  <fix>3d</fix>
</trkpt>
<trkpt lat="40.0728147" lon="-105.2308727">
  <ele>1595.49</ele>
  <time>2026-08-27T18:29:31Z</time>
  <course>62.44</course>
  <speed>0.022360679774997897</speed>
  <fix>3d</fix>
</trkpt>
<trkpt lat="40.0728146" lon="-105.2308726">
  <ele>1595.38</ele>
  <time>2026-08-27T18:29:31Z</time>
  <course>161.69</course>
  <speed>0.02</speed>
  <fix>3d</fix>
</trkpt>
<trkpt lat="40.0728147" lon="-105.2308727">
  <ele>1595.49</ele>
  <time>2026-08-27T18:29:31Z</time>
  <course>62.25</course>
  <speed>0.0</speed>
  <fix>3d</fix>
</trkpt>
<trkpt lat="40.0728146" lon="-105.2308726">
  <ele>1595.38</ele>
  <time>2026-08-27T18:29:31Z</time>
  <course>168.91</course>
  <speed>0.02</speed>
  <fix>3d</fix>
</trkpt>
<trkpt lat="40.0728146" lon="-105.2308726">
  <ele>1595.49</ele>
  <time>2026-08-27T18:29:31Z</time>
  <course>62.41</course>
  <speed>0.01414213562373095</speed>
  <fix>3d</fix>
</trkpt>
<trkpt lat="40.0728146" lon="-105.2308726">
  <ele>1595.38</ele>
  <time>2026-08-27T18:29:31Z</time>
  <course>176.14</course>
  <speed>0.02</speed>
  <fix>3d</fix>
</trkpt>
<trkpt lat="40.0728146" lon="-105.2308726">
  <ele>1595.49</ele>
  <time>2026-08-27T18:29:31Z</time>
  <course>62.22</course>
  <speed>0.0</speed>
  <fix>3d</fix>
</trkpt>
<trkpt lat="40.0728145" lon="-105.2308726">
  <ele>1595.38</ele>
  <time>2026-08-27T18:29:31Z</time>
  <course>175.91</course>
  <speed>0.02</speed>
  <fix>3d</fix>
</trkpt>
<trkpt lat="40.0728146" lon="-105.2308726">
  <ele>1595.49</ele>
  <time>2026-08-27T18:29:31Z</time>
  <course>62.37</course>
  <speed>0.01</speed>
  <fix>3d</fix>
</trkpt>
<trkpt lat="40.0728145" lon="-105.2308726">
  <ele>1595.38</ele>
  <time>2026-08-27T18:29:31Z</time>
  <course>185.75</course>
  <speed>0.02</speed>
  <fix>3d</fix>
</trkpt>
<trkpt lat="40.0728145" lon="-105.2308727">
  <ele>1595.49</ele>
  <time>2026-08-27T18:29:31Z</time>
  <course>62.27</course>
  <speed>0.01</speed>
  <fix>3d</fix>
</trkpt>
<trkpt lat="40.0728144" lon="-105.2308726">
  <ele>1595.39</ele>
  <time>2026-08-27T18:29:31Z</time>
  <course>179.58</course>
  <speed>0.02</speed>
  <fix>3d</fix>
</trkpt>
<trkpt lat="40.0728145" lon="-105.2308726">
  <ele>1595.49</ele>
  <time>2026-08-27T18:29:31Z</time>
  <course>62.36</course>
  <speed>0.01</speed>
  <fix>3d</fix>
</trkpt>
<trkpt lat="40.0728144" lon="-105.2308726">
  <ele>1595.39</ele>
  <time>2026-08-27T18:29:31Z</time>
  <course>191.99</course>
  <speed>0.02</speed>
  <fix>3d</fix>
</trkpt>
<trkpt lat="40.0728145" lon="-105.2308726">
  <ele>1595.49</ele>
  <time>2026-08-27T18:29:31Z</time>
  <course>62.35</course>
  <speed>0.01</speed>
  <fix>3d</fix>
</trkpt>
<trkpt lat="40.0728143" lon="-105.2308726">
  <ele>1595.39</ele>
  <time>2026-08-27T18:29:31Z</time>
  <course>182.46</course>
  <speed>0.02</speed>
  <fix>3d</fix>
</trkpt>
<trkpt lat="40.0728144" lon="-105.2308726">
  <ele>1595.49</ele>
  <time>2026-08-27T18:29:31Z</time>
  <course>62.33</course>
  <speed>0.01</speed>
  <fix>3d</fix>
</trkpt>
<trkpt lat="40.0728143" lon="-105.2308726">
  <ele>1595.39</ele>
  <time>2026-08-27T18:29:31Z</time>
  <course>194.19</course>
  <speed>0.02</speed>
  <fix>3d</fix>
</trkpt>
<trkpt lat="40.0728144" lon="-105.2308726">
  <ele>1595.49</ele>
  <time>2026-08-27T18:29:31Z</time>
  <course>62.42</course>
  <speed>0.01414213562373095</speed>
  <fix>3d</fix>
</trkpt>
<trkpt lat="40.0728142" lon="-105.2308726">
  <ele>1595.39</ele>
  <time>2026-08-27T18:29:31Z</time>
  <course>184.9</course>
  <speed>0.03</speed>
  <fix>3d</fix>
</trkpt>
<trkpt lat="40.0728143" lon="-105.2308726">
  <ele>1595.49</ele>
  <time>2026-08-27T18:29:31Z</time>
  <course>62.3</course>
  <speed>0.01</speed>
  <fix>3d</fix>
</trkpt>
<trkpt lat="40.0728141" lon="-105.2308726">
  <ele>1595.39</ele>
  <time>2026-08-27T18:29:31Z</time>
  <course>193.61</course>
  <speed>0.02</speed>
  <fix>3d</fix>
</trkpt>
<trkpt lat="40.0728143" lon="-105.2308726">
  <ele>1595.49</ele>
  <time>2026-08-27T18:29:31Z</time>
  <course>62.44</course>
  <speed>0.01414213562373095</speed>
  <fix>3d</fix>
</trkpt>
<trkpt lat="40.0728141" lon="-105.2308726">
  <ele>1595.39</ele>
  <time>2026-08-27T18:29:31Z</time>
  <course>186.87</course>
  <speed>0.03</speed>
  <fix>3d</fix>
</trkpt>
<trkpt lat="40.0728142" lon="-105.2308726">
  <ele>1595.49</ele>
  <time>2026-08-27T18:29:31Z</time>
  <course>62.25</course>
  <speed>0.01</speed>
  <fix>3d</fix>
</trkpt>
<trkpt lat="40.072814" lon="-105.2308726">
  <ele>1595.39</ele>
  <time>2026-08-27T18:29:31Z</time>
  <course>190.95</course>
  <speed>0.02</speed>
  <fix>3d</fix>
</trkpt>
<trkpt lat="40.0728142" lon="-105.2308726">
  <ele>1595.48</ele>
  <time>2026-08-27T18:29:31Z</time>
  <course>62.42</course>
  <speed>0.01</speed>
  <fix>3d</fix>
</trkpt>
<trkpt lat="40.072814" lon="-105.2308726">
  <ele>1595.39</ele>
  <time>2026-08-27T18:29:31Z</time>
  <course>189.88</course>
  <speed>0.03</speed>
  <fix>3d</fix>
</trkpt>
<trkpt lat="40.0728141" lon="-105.2308726">
  <ele>1595.48</ele>
  <time>2026-08-27T18:29:31Z</time>
  <course>62.22</course>
  <speed>0.0</speed>
  <fix>3d</fix>
</trkpt>
<trkpt lat="40.072814" lon="-105.2308726">
  <ele>1595.4</ele>
  <time>2026-08-27T18:29:31Z</time>
  <course>189.13</course>
  <speed>0.02</speed>
  <fix>3d</fix>
</trkpt>
<trkpt lat="40.0728141" lon="-105.2308726">
  <ele>1595.49</ele>
  <time>2026-08-27T18:29:31Z</time>
  <course>62.38</course>
  <speed>0.01</speed>
  <fix>3d</fix>
</trkpt>
<trkpt lat="40.0728139" lon="-105.2308726">
  <ele>1595.4</ele>
  <time>2026-08-27T18:29:31Z</time>
  <course>193.46</course>
  <speed>0.03</speed>
  <fix>3d</fix>
</trkpt>
<trkpt lat="40.072814" lon="-105.2308726">
  <ele>1595.48</ele>
  <time>2026-08-27T18:29:31Z</time>
  <course>62.25</course>
  <speed>0.01</speed>
  <fix>3d</fix>
</trkpt>
<trkpt lat="40.0728139" lon="-105.2308726">
  <ele>1595.4</ele>
  <time>2026-08-27T18:29:31Z</time>
  <course>187.41</course>
  <speed>0.03</speed>
  <fix>3d</fix>
</trkpt>
<trkpt lat="40.072814" lon="-105.2308726">
  <ele>1595.48</ele>
  <time>2026-08-27T18:29:31Z</time>
  <course>62.23</course>
  <speed>0.0824621125123532</speed>
  <fix>3d</fix>
</trkpt>
<trkpt lat="40.0728138" lon="-105.2308726">
  <ele>1595.4</ele>
  <time>2026-08-27T18:29:31Z</time>
  <course>119.13</course>
  <speed>0.02</speed>
  <fix>3d</fix>
</trkpt>
<trkpt lat="40.072814" lon="-105.2308723">
  <ele>1595.48</ele>
  <time>2026-08-27T18:29:31Z</time>
  <course>62.22</course>
  <speed>0.1264911064067352</speed>
  <fix>3d</fix>
</trkpt>
<trkpt lat="40.0728138" lon="-105.2308726">
  <ele>1595.41</ele>
  <time>2026-08-27T18:29:31Z</time>
  <course>88.64</course>
  <speed>0.08</speed>
  <fix>3d</fix>
</trkpt>
<trkpt lat="40.072814" lon="-105.2308721">
  <ele>1595.48</ele>
  <time>2026-08-27T18:29:31Z</time>
  <course>62.25</course>
  <speed>0.13</speed>
  <fix>3d</fix>
</trkpt>
<trkpt lat="40.0728138" lon="-105.2308724">
  <ele>1595.41</ele>
  <time>2026-08-27T18:29:31Z</time>
  <course>79.04</course>
  <speed>0.11</speed>
  <fix>3d</fix>
</trkpt>
<trkpt lat="40.072814" lon="-105.2308718">
  <ele>1595.48</ele>
  <time>2026-08-27T18:29:31Z</time>
  <course>62.26</course>
  <speed>0.1341640786499874</speed>
  <fix>3d</fix>
</trkpt>
<trkpt lat="40.0728139" lon="-105.2308721">
  <ele>1595.41</ele>
  <time>2026-08-27T18:29:31Z</time>
  <course>74.1</course>
  <speed>0.12</speed>
  <fix>3d</fix>
</trkpt>
<trkpt lat="40.0728141" lon="-105.2308715">
  <ele>1595.48</ele>
  <time>2026-08-27T18:29:31Z</time>
  <course>62.25</course>
  <speed>0.1341640786499874</speed>
  <fix>3d</fix>
</trkpt>
<trkpt lat="40.0728139" lon="-105.2308718">
  <ele>1595.42</ele>
  <time>2026-08-27T18:29:31Z</time>
  <course>71.92</course>
  <speed>0.12</speed>
  <fix>3d</fix>
</trkpt>
<trkpt lat="40.0728142" lon="-105.2308713">
  <ele>1595.48</ele>
  <time>2026-08-27T18:29:31Z</time>
  <course>62.24</course>
  <speed>0.12529964086141668</speed>
  <fix>3d</fix>
</trkpt>
<trkpt lat="40.0728139" lon="-105.2308715">
  <ele>1595.42</ele>
  <time>2026-08-27T18:29:31Z</time>
  <course>71.2</course>
  <speed>0.12</speed>
  <fix>3d</fix>
</trkpt>
<trkpt lat="40.0728142" lon="-105.230871">
  <ele>1595.49</ele>
  <time>2026-08-27T18:29:31Z</time>
  <course>62.25</course>
  <speed>0.12083045973594572</speed>
  <fix>3d</fix>
</trkpt>
<trkpt lat="40.072814" lon="-105.2308712">
  <ele>1595.43</ele>
  <time>2026-08-27T18:29:31Z</time>
  <course>71.2</course>
  <speed>0.11</speed>
  <fix>3d</fix>
</trkpt>
<trkpt lat="40.0728143" lon="-105.2308708">
  <ele>1595.5</ele>
  <time>2026-08-27T18:29:31Z</time>
  <course>62.26</course>
  <speed>0.1118033988749895</speed>
  <fix>3d</fix>
</trkpt>
<trkpt lat="40.072814" lon="-105.230871">
  <ele>1595.43</ele>
  <time>2026-08-27T18:29:31Z</time>
  <course>71.67</course>
  <speed>0.11</speed>
  <fix>3d</fix>
</trkpt>
<trkpt lat="40.0728143" lon="-105.2308706">
  <ele>1595.5</ele>
  <time>2026-08-27T18:29:31Z</time>
  <course>62.26</course>
  <speed>0.1118033988749895</speed>
  <fix>3d</fix>
</trkpt>
<trkpt lat="40.0728141" lon="-105.2308707">
  <ele>1595.43</ele>
  <time>2026-08-27T18:29:31Z</time>
  <course>72.43</course>
  <speed>0.11</speed>
  <fix>3d</fix>
</trkpt>
<trkpt lat="40.0728144" lon="-105.2308703">
  <ele>1595.51</ele>
  <time>2026-08-27T18:29:31Z</time>
  <course>62.26</course>
  <speed>0.10770329614269007</speed>
  <fix>3d</fix>
</trkpt>
<trkpt lat="40.0728141" lon="-105.2308705">
  <ele>1595.44</ele>
  <time>2026-08-27T18:29:31Z</time>
  <course>73.33</course>
  <speed>0.1</speed>
  <fix>3d</fix>
</trkpt>
<trkpt lat="40.0728144" lon="-105.2308701">
  <ele>1595.5</ele>
  <time>2026-08-27T18:29:31Z</time>
  <course>62.26</course>
  <speed>0.10770329614269007</speed>
  <fix>3d</fix>
</trkpt>
<trkpt lat="40.0728142" lon="-105.2308702">
  <ele>1595.44</ele>
  <time>2026-08-27T18:29:31Z</time>
  <course>74.19</course>
  <speed>0.1</speed>
  <fix>3d</fix>
</trkpt>
<trkpt lat="40.0728144" lon="-105.2308699">
  <ele>1595.5</ele>
  <time>2026-08-27T18:29:31Z</time>
  <course>62.25</course>
  <speed>0.09848857801796104</speed>
  <fix>3d</fix>
</trkpt>
<trkpt lat="40.0728143" lon="-105.23087">
  <ele>1595.44</ele>
  <time>2026-08-27T18:29:31Z</time>
  <course>75.03</course>
  <speed>0.1</speed>
  <fix>3d</fix>
</trkpt>
<trkpt lat="40.0728145" lon="-105.2308696">
  <ele>1595.5</ele>
  <time>2026-08-27T18:29:31Z</time>
  <course>62.25</course>
  <speed>0.09848857801796104</speed>
  <fix>3d</fix>
</trkpt>
<trkpt lat="40.0728143" lon="-105.2308697">
  <ele>1595.44</ele>
  <time>2026-08-27T18:29:31Z</time>
  <course>75.95</course>
  <speed>0.09</speed>
  <fix>3d</fix>
</trkpt>
<trkpt lat="40.0728145" lon="-105.2308694">
  <ele>1595.5</ele>
  <time>2026-08-27T18:29:31Z</time>
  <course>62.25</course>
  <speed>0.09486832980505139</speed>
  <fix>3d</fix>
</trkpt>
<trkpt lat="40.0728144" lon="-105.2308696">
  <ele>1595.44</ele>
  <time>2026-08-27T18:29:31Z</time>
  <course>76.89</course>
  <speed>0.09</speed>
  <fix>3d</fix>
</trkpt>
<trkpt lat="40.0728145" lon="-105.2308692">
  <ele>1595.5</ele>
  <time>2026-08-27T18:29:31Z</time>
  <course>62.25</course>
  <speed>0.09486832980505139</speed>
  <fix>3d</fix>
</trkpt>
<trkpt lat="40.0728144" lon="-105.2308693">
  <ele>1595.44</ele>
  <time>2026-08-27T18:29:31Z</time>
  <course>77.81</course>
  <speed>0.09</speed>
  <fix>3d</fix>
</trkpt>
<trkpt lat="40.0728146" lon="-105.230869">
  <ele>1595.49</ele>
  <time>2026-08-27T18:29:31Z</time>
  <course>62.25</course>
  <speed>0.09486832980505139</speed>
  <fix>3d</fix>
</trkpt>
<trkpt lat="40.0728145" lon="-105.2308692">
  <ele>1595.44</ele>
  <time>2026-08-27T18:29:31Z</time>
  <course>78.71</course>
  <speed>0.09</speed>
  <fix>3d</fix>
</trkpt>
<trkpt lat="40.0728146" lon="-105.2308688">
  <ele>1595.49</ele>
  <time>2026-08-27T18:29:31Z</time>
  <course>62.19</course>
  <speed>0.1392838827718412</speed>
  <fix>3d</fix>
</trkpt>
<trkpt lat="40.0728145" lon="-105.2308689">
  <ele>1595.44</ele>
  <time>2026-08-27T18:29:31Z</time>
  <course>76.51</course>
  <speed>0.1</speed>
  <fix>3d</fix>
</trkpt>
<trkpt lat="40.0728146" lon="-105.2308685">
  <ele>1595.5</ele>
  <time>2026-08-27T18:29:31Z</time>
  <course>62.38</course>
  <speed>0.09486832980505139</speed>
  <fix>3d</fix>
</trkpt>
<trkpt lat="40.0728145" lon="-105.2308686">
  <ele>1595.44</ele>
  <time>2026-08-27T18:29:31Z</time>
  <course>79.06</course>
  <speed>0.11</speed>
  <fix>3d</fix>
</trkpt>
<trkpt lat="40.0728147" lon="-105.2308683">
  <ele>1595.5</ele>
  <time>2026-08-27T18:29:31Z</time>
  <course>62.37</course>
  <speed>0.09848857801796104</speed>
  <fix>3d</fix>
</trkpt>
<trkpt lat="40.0728146" lon="-105.2308683">
  <ele>1595.44</ele>
  <time>2026-08-27T18:29:31Z</time>
  <course>76.3</course>
  <speed>0.09</speed>
  <fix>3d</fix>
</trkpt>
<trkpt lat="40.0728147" lon="-105.2308681">
  <ele>1595.5</ele>
  <time>2026-08-27T18:29:31Z</time>
  <course>62.43</course>
  <speed>0.03605551275463989</speed>
  <fix>3d</fix>
</trkpt>
<trkpt lat="40.0728146" lon="-105.2308682">
  <ele>1595.44</ele>
  <time>2026-08-27T18:29:31Z</time>
  <course>74.95</course>
  <speed>0.06</speed>
  <fix>3d</fix>
</trkpt>
<trkpt lat="40.0728147" lon="-105.2308681">
  <ele>1595.5</ele>
  <time>2026-08-27T18:29:31Z</time>
  <course>62.47</course>
  <speed>0.06082762530298219</speed>
  <fix>3d</fix>
</trkpt>
<trkpt lat="40.0728146" lon="-105.2308681">
  <ele>1595.44</ele>
  <time>2026-08-27T18:29:31Z</time>
  <course>85.28</course>
  <speed>0.05</speed>
  <fix>3d</fix>
</trkpt>
<trkpt lat="40.0728147" lon="-105.230868">
  <ele>1595.49</ele>
  <time>2026-08-27T18:29:31Z</time>
  <course>62.37</course>
  <speed>0.01</speed>
  <fix>3d</fix>
</trkpt>
<trkpt lat="40.0728146" lon="-105.230868">
  <ele>1595.44</ele>
  <time>2026-08-27T18:29:31Z</time>
  <course>94.93</course>
  <speed>0.03</speed>
  <fix>3d</fix>
</trkpt>
<trkpt lat="40.0728147" lon="-105.2308679">
  <ele>1595.49</ele>
  <time>2026-08-27T18:29:31Z</time>
  <course>62.51</course>
  <speed>0.04</speed>
  <fix>3d</fix>
</trkpt>
<trkpt lat="40.0728146" lon="-105.2308679">
  <ele>1595.44</ele>
  <time>2026-08-27T18:29:31Z</time>
  <course>117.56</course>
  <speed>0.03</speed>
  <fix>3d</fix>
</trkpt>
<trkpt lat="40.0728147" lon="-105.2308679">
  <ele>1595.49</ele>
  <time>2026-08-27T18:29:31Z</time>
  <course>62.28</course>
  <speed>0.01</speed>
  <fix>3d</fix>
</trkpt>
<trkpt lat="40.0728146" lon="-105.2308678">
  <ele>1595.44</ele>
  <time>2026-08-27T18:29:31Z</time>
  <course>132.36</course>
  <speed>0.02</speed>
  <fix>3d</fix>
</trkpt>
<trkpt lat="40.0728147" lon="-105.2308678">
  <ele>1595.49</ele>
  <time>2026-08-27T18:29:31Z</time>
  <course>62.49</course>
  <speed>0.022360679774997897</speed>
  <fix>3d</fix>
</trkpt>
<trkpt lat="40.0728146" lon="-105.2308678">
  <ele>1595.44</ele>
  <time>2026-08-27T18:29:31Z</time>
  <course>148.52</course>
  <speed>0.02</speed>
  <fix>3d</fix>
</trkpt>
<trkpt lat="40.0728147" lon="-105.2308678">
  <ele>1595.49</ele>
  <time>2026-08-27T18:29:31Z</time>
  <course>62.22</course>
  <speed>0.01</speed>
  <fix>3d</fix>
</trkpt>
<trkpt lat="40.0728146" lon="-105.2308678">
  <ele>1595.44</ele>
  <time>2026-08-27T18:29:31Z</time>
  <course>154.76</course>
  <speed>0.02</speed>
  <fix>3d</fix>
</trkpt>
<trkpt lat="40.0728146" lon="-105.2308678">
  <ele>1595.49</ele>
  <time>2026-08-27T18:29:31Z</time>
  <course>62.45</course>
  <speed>0.01414213562373095</speed>
  <fix>3d</fix>
</trkpt>
<trkpt lat="40.0728146" lon="-105.2308678">
  <ele>1595.44</ele>
  <time>2026-08-27T18:29:31Z</time>
  <course>167.88</course>
  <speed>0.02</speed>
  <fix>3d</fix>
</trkpt>
<trkpt lat="40.0728146" lon="-105.2308678">
  <ele>1595.5</ele>
  <time>2026-08-27T18:29:31Z</time>
  <course>62.25</course>
  <speed>0.01</speed>
  <fix>3d</fix>
</trkpt>
<trkpt lat="40.0728145" lon="-105.2308678">
  <ele>1595.45</ele>
  <time>2026-08-27T18:29:31Z</time>
  <course>166.03</course>
  <speed>0.02</speed>
  <fix>3d</fix>
</trkpt>
<trkpt lat="40.0728146" lon="-105.2308678">
  <ele>1595.5</ele>
  <time>2026-08-27T18:29:31Z</time>
  <course>62.44</course>
  <speed>0.01</speed>
  <fix>3d</fix>
</trkpt>
<trkpt lat="40.0728145" lon="-105.2308678">
  <ele>1595.45</ele>
  <time>2026-08-27T18:29:31Z</time>
  <course>181.21</course>
  <speed>0.02</speed>
  <fix>3d</fix>
</trkpt>
<trkpt lat="40.0728146" lon="-105.2308678">
  <ele>1595.51</ele>
  <time>2026-08-27T18:29:31Z</time>
  <course>62.35</course>
  <speed>0.01</speed>
  <fix>3d</fix>
</trkpt>
<trkpt lat="40.0728144" lon="-105.2308678">
  <ele>1595.45</ele>
  <time>2026-08-27T18:29:31Z</time>
  <course>172.53</course>
  <speed>0.02</speed>
  <fix>3d</fix>
</trkpt>
<trkpt lat="40.0728145" lon="-105.2308678">
  <ele>1595.51</ele>
  <time>2026-08-27T18:29:31Z</time>
  <course>62.44</course>
  <speed>0.01</speed>
  <fix>3d</fix>
</trkpt>
<trkpt lat="40.0728144" lon="-105.2308678">
  <ele>1595.45</ele>
  <time>2026-08-27T18:29:31Z</time>
  <course>187.55</course>
  <speed>0.02</speed>
  <fix>3d</fix>
</trkpt>
<trkpt lat="40.0728145" lon="-105.2308678">
  <ele>1595.51</ele>
  <time>2026-08-27T18:29:31Z</time>
  <course>62.47</course>
  <speed>0.02</speed>
  <fix>3d</fix>
</trkpt>
<trkpt lat="40.0728143" lon="-105.2308678">
  <ele>1595.45</ele>
  <time>2026-08-27T18:29:31Z</time>
  <course>176.44</course>
  <speed>0.02</speed>
  <fix>3d</fix>
</trkpt>
<trkpt lat="40.0728144" lon="-105.2308678">
  <ele>1595.51</ele>
  <time>2026-08-27T18:29:31Z</time>
  <course>62.41</course>
  <speed>0.02</speed>
  <fix>3d</fix>
</trkpt>
<trkpt lat="40.0728143" lon="-105.2308678">
  <ele>1595.45</ele>
  <time>2026-08-27T18:29:31Z</time>
  <course>189.54</course>
  <speed>0.02</speed>
  <fix>3d</fix>
</trkpt>
<trkpt lat="40.0728144" lon="-105.2308678">
  <ele>1595.51</ele>
  <time>2026-08-27T18:29:31Z</time>
  <course>62.53</course>
  <speed>0.022360679774997897</speed>
  <fix>3d</fix>
</trkpt>
<trkpt lat="40.0728142" lon="-105.2308678">
  <ele>1595.45</ele>
  <time>2026-08-27T18:29:31Z</time>
  <course>179.31</course>
  <speed>0.03</speed>
  <fix>3d</fix>
</trkpt>
<trkpt lat="40.0728143" lon="-105.2308678">
  <ele>1595.51</ele>
  <time>2026-08-27T18:29:31Z</time>
  <course>62.35</course>
  <speed>0.01</speed>
  <fix>3d</fix>
</trkpt>
<trkpt lat="40.0728141" lon="-105.2308678">
  <ele>1595.45</ele>
  <time>2026-08-27T18:29:31Z</time>
  <course>186.58</course>
  <speed>0.02</speed>
  <fix>3d</fix>
</trkpt>
<trkpt lat="40.0728143" lon="-105.2308678">
  <ele>1595.51</ele>
  <time>2026-08-27T18:29:31Z</time>
  <course>62.55</course>
  <speed>0.01414213562373095</speed>
  <fix>3d</fix>
</trkpt>
<trkpt lat="40.0728141" lon="-105.2308678">
  <ele>1595.44</ele>
  <time>2026-08-27T18:29:31Z</time>
  <course>181.35</course>
  <speed>0.03</speed>
  <fix>3d</fix>
</trkpt>
<trkpt lat="40.0728142" lon="-105.2308678">
  <ele>1595.51</ele>
  <time>2026-08-27T18:29:31Z</time>
  <course>62.32</course>
  <speed>0.0</speed>
  <fix>3d</fix>
</trkpt>
<trkpt lat="40.072814" lon="-105.2308678">
  <ele>1595.44</ele>
  <time>2026-08-27T18:29:31Z</time>
  <course>183.53</course>
  <speed>0.02</speed>
  <fix>3d</fix>
</trkpt>
<trkpt lat="40.0728142" lon="-105.2308678">
  <ele>1595.51</ele>
  <time>2026-08-27T18:29:31Z</time>
  <course>62.53</course>
  <speed>0.01</speed>
  <fix>3d</fix>
</trkpt>
<trkpt lat="40.072814" lon="-105.2308678">
  <ele>1595.44</ele>
  <time>2026-08-27T18:29:31Z</time>
  <course>184.76</course>
  <speed>0.03</speed>
  <fix>3d</fix>
</trkpt>
<trkpt lat="40.0728141" lon="-105.2308678">
  <ele>1595.5</ele>
  <time>2026-08-27T18:29:31Z</time>
  <course>62.3</course>
  <speed>0.0</speed>
  <fix>3d</fix>
</trkpt>
<trkpt lat="40.0728139" lon="-105.2308678">
  <ele>1595.43</ele>
  <time>2026-08-27T18:29:31Z</time>
  <course>180.25</course>
  <speed>0.02</speed>
  <fix>3d</fix>
</trkpt>
<trkpt lat="40.0728141" lon="-105.2308678">
  <ele>1595.49</ele>
  <time>2026-08-27T18:29:31Z</time>
  <course>62.47</course>
  <speed>0.01</speed>
  <fix>3d</fix>
</trkpt>
<trkpt lat="40.0728139" lon="-105.2308678">
  <ele>1595.43</ele>
  <time>2026-08-27T18:29:31Z</time>
  <course>187.39</course>
  <speed>0.03</speed>
  <fix>3d</fix>
</trkpt>
<trkpt lat="40.072814" lon="-105.2308678">
  <ele>1595.49</ele>
  <time>2026-08-27T18:29:31Z</time>
  <course>62.32</course>
  <speed>0.01</speed>
  <fix>3d</fix>
</trkpt>
<trkpt lat="40.0728138" lon="-105.2308678">
  <ele>1595.43</ele>
  <time>2026-08-27T18:29:31Z</time>
  <course>178.4</course>
  <speed>0.03</speed>
  <fix>3d</fix>
</trkpt>
<trkpt lat="40.0728139" lon="-105.2308678">
  <ele>1595.49</ele>
  <time>2026-08-27T18:29:31Z</time>
  <course>62.42</course>
  <speed>0.01</speed>
  <fix>3d</fix>
</trkpt>
<trkpt lat="40.0728138" lon="-105.2308678">
  <ele>1595.43</ele>
  <time>2026-08-27T18:29:31Z</time>
  <course>189.96</course>
  <speed>0.02</speed>
  <fix>3d</fix>
</trkpt>
<trkpt lat="40.0728139" lon="-105.2308678">
  <ele>1595.5</ele>
  <time>2026-08-27T18:29:31Z</time>
  <course>62.33</course>
  <speed>0.03</speed>
  <fix>3d</fix>
</trkpt>
<trkpt lat="40.0728137" lon="-105.2308678">
  <ele>1595.43</ele>
  <time>2026-08-27T18:29:31Z</time>
  <course>178.12</course>
  <speed>0.03</speed>
  <fix>3d</fix>
</trkpt>
<trkpt lat="40.0728139" lon="-105.2308677">
  <ele>1595.49</ele>
  <time>2026-08-27T18:29:31Z</time>
  <course>62.53</course>
  <speed>0.09219544457292887</speed>
  <fix>3d</fix>
</trkpt>
<trkpt lat="40.0728137" lon="-105.2308677">
  <ele>1595.43</ele>
  <time>2026-08-27T18:29:31Z</time>
  <course>103.41</course>
  <speed>0.04</speed>
  <fix>3d</fix>
</trkpt>
<trkpt lat="40.0728139" lon="-105.2308675">
  <ele>1595.44</ele>
  <time>2026-08-27T18:29:31Z</time>
  <course>63.43</course>
  <speed>0.12083045973594572</speed>
  <fix>3d</fix>
</trkpt>
<trkpt lat="40.0728137" lon="-105.2308676">
  <ele>1595.41</ele>
  <time>2026-08-27T18:29:31Z</time>
  <course>83.5</course>
  <speed>0.09</speed>
  <fix>3d</fix>
</trkpt>
<trkpt lat="40.0728139" lon="-105.2308672">
  <ele>1595.31</ele>
  <time>2026-08-27T18:29:31Z</time>
  <course>64.81</course>
  <speed>0.12206555615733702</speed>
  <fix>3d</fix>
</trkpt>
<trkpt lat="40.0728137" lon="-105.2308673">
  <ele>1595.34</ele>
  <time>2026-08-27T18:29:31Z</time>
  <course>75.09</course>
  <speed>0.11</speed>
  <fix>3d</fix>
</trkpt>
<trkpt lat="40.072814" lon="-105.230867">
  <ele>1594.88</ele>
  <time>2026-08-27T18:29:31Z</time>
  <course>66.33</course>
  <speed>0.147648230602334</speed>
  <fix>3d</fix>
</trkpt>
<trkpt lat="40.0728137" lon="-105.2308671">
  <ele>1595.12</ele>
  <time>2026-08-27T18:29:31Z</time>
  <course>54.1</course>
  <speed>0.12</speed>
  <fix>3d</fix>
</trkpt>
<trkpt lat="40.0728143" lon="-105.2308668">
  <ele>1594.17</ele>
  <time>2026-08-27T18:29:31Z</time>
  <course>67.86</course>
  <speed>0.1772004514666935</speed>
  <fix>3d</fix>
</trkpt>
<trkpt lat="40.0728139" lon="-105.2308669">
  <ele>1594.62</ele>
  <time>2026-08-27T18:29:31Z</time>
  <course>29.32</course>
  <speed>0.14</speed>
  <fix>3d</fix>
</trkpt>
<trkpt lat="40.0728145" lon="-105.2308667">
  <ele>1593.27</ele>
  <time>2026-08-27T18:29:31Z</time>
  <course>69.88</course>
  <speed>0.17464249196572978</speed>
  <fix>3d</fix>
</trkpt>
<trkpt lat="40.0728141" lon="-105.2308668">
  <ele>1593.86</ele>
  <time>2026-08-27T18:29:31Z</time>
  <course>19.14</course>
  <speed>0.16</speed>
  <fix>3d</fix>
</trkpt>
<trkpt lat="40.0728148" lon="-105.2308666">
  <ele>1592.25</ele>
  <time>2026-08-27T18:29:31Z</time>
  <course>72.56</course>
  <speed>0.15297058540778355</speed>
  <fix>3d</fix>
</trkpt>
<trkpt lat="40.0728144" lon="-105.2308666">
  <ele>1592.93</ele>
  <time>2026-08-27T18:29:31Z</time>
  <course>15.25</course>
  <speed>0.16</speed>
  <fix>3d</fix>
</trkpt>
<trkpt lat="40.072815" lon="-105.2308665">
  <ele>1591.15</ele>
  <time>2026-08-27T18:29:31Z</time>
  <course>75.08</course>
  <speed>0.12165525060596438</speed>
  <fix>3d</fix>
</trkpt>
<trkpt lat="40.0728147" lon="-105.2308666">
  <ele>1591.89</ele>
  <time>2026-08-27T18:29:31Z</time>
  <course>13.9</course>
  <speed>0.13</speed>
  <fix>3d</fix>
</trkpt>
<trkpt lat="40.0728151" lon="-105.2308665">
  <ele>1589.99</ele>
  <time>2026-08-27T18:29:31Z</time>
  <course>77.17</course>
  <speed>0.08062257748298549</speed>
  <fix>3d</fix>
</trkpt>
<trkpt lat="40.0728149" lon="-105.2308665">
  <ele>1590.78</ele>
  <time>2026-08-27T18:29:31Z</time>
  <course>11.86</course>
  <speed>0.1</speed>
  <fix>3d</fix>
</trkpt>
<trkpt lat="40.0728152" lon="-105.2308665">
  <ele>1588.8</ele>
  <time>2026-08-27T18:29:31Z</time>
  <course>78.99</course>
  <speed>0.0412310562561766</speed>
  <fix>3d</fix>
</trkpt>
<trkpt lat="40.0728151" lon="-105.2308664">
  <ele>1589.64</ele>
  <time>2026-08-27T18:29:31Z</time>
  <course>2.71</course>
  <speed>0.06</speed>
  <fix>3d</fix>
</trkpt>
<trkpt lat="40.0728152" lon="-105.2308666">
  <ele>1587.59</ele>
  <time>2026-08-27T18:29:31Z</time>
  <course>80.64</course>
  <speed>0.04</speed>
  <fix>3d</fix>
</trkpt>
<trkpt lat="40.0728152" lon="-105.2308664">
  <ele>1588.47</ele>
  <time>2026-08-27T18:29:31Z</time>
  <course>313.07</course>
  <speed>0.02</speed>
  <fix>3d</fix>
</trkpt>
<trkpt lat="40.0728152" lon="-105.2308666">
  <ele>1586.37</ele>
  <time>2026-08-27T18:29:31Z</time>
  <course>82.16</course>
  <speed>0.08062257748298549</speed>
  <fix>3d</fix>
</trkpt>
<trkpt lat="40.0728152" lon="-105.2308665">
  <ele>1587.28</ele>
  <time>2026-08-27T18:29:31Z</time>
  <course>246.15</course>
  <speed>0.05</speed>
  <fix>3d</fix>
</trkpt>
<trkpt lat="40.0728152" lon="-105.2308667">
  <ele>1585.64</ele>
  <time>2026-08-27T18:29:31Z</time>
  <course>82.63</course>
  <speed>0.05</speed>
  <fix>3d</fix>
</trkpt>
<trkpt lat="40.0728152" lon="-105.2308667">
  <ele>1586.16</ele>
  <time>2026-08-27T18:29:31Z</time>
  <course>243.79</course>
  <speed>0.05</speed>
  <fix>3d</fix>
</trkpt>
<trkpt lat="40.0728153" lon="-105.2308666">
  <ele>1585.99</ele>
  <time>2026-08-27T18:29:31Z</time>
  <course>82.3</course>
  <speed>0.053851648071345036</speed>
  <fix>3d</fix>
</trkpt>
<trkpt lat="40.0728152" lon="-105.2308667">
  <ele>1585.74</ele>
  <time>2026-08-27T18:29:31Z</time>
  <course>351.66</course>
  <speed>0.01</speed>
  <fix>3d</fix>
</trkpt>
<trkpt lat="40.0728153" lon="-105.2308666">
  <ele>1586.05</ele>
  <time>2026-08-27T18:29:31Z</time>
  <course>82.11</course>
  <speed>0.02</speed>
  <fix>3d</fix>
</trkpt>
<trkpt lat="40.0728152" lon="-105.2308666">
  <ele>1585.91</ele>
  <time>2026-08-27T18:29:31Z</time>
  <course>54.35</course>
  <speed>0.01</speed>
  <fix>3d</fix>
</trkpt>
<trkpt lat="40.0728153" lon="-105.2308666">
  <ele>1586.01</ele>
  <time>2026-08-27T18:29:31Z</time>
  <course>82.12</course>
  <speed>0.02</speed>
  <fix>3d</fix>
</trkpt>
<trkpt lat="40.0728152" lon="-105.2308666">
  <ele>1585.97</ele>
  <time>2026-08-27T18:29:31Z</time>
  <course>194.01</course>
  <speed>0.0</speed>
  <fix>3d</fix>
</trkpt>
<trkpt lat="40.0728153" lon="-105.2308666">
  <ele>1586.01</ele>
  <time>2026-08-27T18:29:31Z</time>
  <course>82.15</course>
  <speed>0.03</speed>
  <fix>3d</fix>
</trkpt>
<trkpt lat="40.0728152" lon="-105.2308666">
  <ele>1585.94</ele>
  <time>2026-08-27T18:29:31Z</time>
  <course>208.03</course>
  <speed>0.0</speed>
  <fix>3d</fix>
</trkpt>
<trkpt lat="40.0728153" lon="-105.2308666">
  <ele>1586.02</ele>
  <time>2026-08-27T18:29:31Z</time>
  <course>82.17</course>
  <speed>0.02</speed>
  <fix>3d</fix>
</trkpt>
<trkpt lat="40.0728152" lon="-105.2308666">
  <ele>1585.94</ele>
  <time>2026-08-27T18:29:31Z</time>
  <course>142.03</course>
  <speed>0.0</speed>
  <fix>3d</fix>
</trkpt>
<trkpt lat="40.0728153" lon="-105.2308666">
  <ele>1586.02</ele>
  <time>2026-08-27T18:29:31Z</time>
  <course>82.18</course>
  <speed>0.02</speed>
  <fix>3d</fix>
</trkpt>
<trkpt lat="40.0728152" lon="-105.2308666">
  <ele>1585.94</ele>
  <time>2026-08-27T18:29:31Z</time>
  <course>160.71</course>
  <speed>0.0</speed>
  <fix>3d</fix>
</trkpt>
<trkpt lat="40.0728153" lon="-105.2308666">
  <ele>1586.02</ele>
  <time>2026-08-27T18:29:31Z</time>
  <course>82.19</course>
  <speed>0.02</speed>
  <fix>3d</fix>
</trkpt>
<trkpt lat="40.0728152" lon="-105.2308666">
  <ele>1585.94</ele>
  <time>2026-08-27T18:29:31Z</time>
  <course>178.07</course>
  <speed>0.0</speed>
  <fix>3d</fix>
</trkpt>
<trkpt lat="40.0728153" lon="-105.2308666">
  <ele>1586.02</ele>
  <time>2026-08-27T18:29:31Z</time>
  <course>82.19</course>
  <speed>0.02</speed>
  <fix>3d</fix>
</trkpt>
<trkpt lat="40.0728152" lon="-105.2308666">
  <ele>1585.94</ele>
  <time>2026-08-27T18:29:31Z</time>
  <course>177.15</course>
  <speed>0.0</speed>
  <fix>3d</fix>
</trkpt>
<trkpt lat="40.0728153" lon="-105.2308666">
  <ele>1586.02</ele>
  <time>2026-08-27T18:29:31Z</time>
  <course>82.2</course>
  <speed>0.02</speed>
  <fix>3d</fix>
</trkpt>
<trkpt lat="40.0728152" lon="-105.2308666">
  <ele>1585.94</ele>
  <time>2026-08-27T18:29:31Z</time>
  <course>173.36</course>
  <speed>0.0</speed>
  <fix>3d</fix>
</trkpt>
<trkpt lat="40.0728153" lon="-105.2308666">
  <ele>1586.02</ele>
  <time>2026-08-27T18:29:31Z</time>
  <course>82.2</course>
  <speed>0.02</speed>
  <fix>3d</fix>
</trkpt>
<trkpt lat="40.0728152" lon="-105.2308666">
  <ele>1585.94</ele>
  <time>2026-08-27T18:29:31Z</time>
  <course>173.04</course>
  <speed>0.0</speed>
  <fix>3d</fix>
</trkpt>
<trkpt lat="40.0728153" lon="-105.2308666">
  <ele>1586.03</ele>
  <time>2026-08-27T18:29:31Z</time>
  <course>82.2</course>
  <speed>0.02</speed>
  <fix>3d</fix>
</trkpt>
<trkpt lat="40.0728152" lon="-105.2308666">
  <ele>1585.94</ele>
  <time>2026-08-27T18:29:31Z</time>
  <course>177.32</course>
  <speed>0.0</speed>
  <fix>3d</fix>
</trkpt>
<trkpt lat="40.0728153" lon="-105.2308666">
  <ele>1586.03</ele>
  <time>2026-08-27T18:29:31Z</time>
  <course>82.2</course>
  <speed>0.02</speed>
  <fix>3d</fix>
</trkpt>
<trkpt lat="40.0728152" lon="-105.2308666">
  <ele>1585.94</ele>
  <time>2026-08-27T18:29:31Z</time>
  <course>179.39</course>
  <speed>0.0</speed>
  <fix>3d</fix>
</trkpt>
<trkpt lat="40.0728153" lon="-105.2308666">
  <ele>1586.04</ele>
  <time>2026-08-27T18:29:31Z</time>
  <course>82.2</course>
  <speed>0.02</speed>
  <fix>3d</fix>
</trkpt>
<trkpt lat="40.0728152" lon="-105.2308666">
  <ele>1585.94</ele>
  <time>2026-08-27T18:29:31Z</time>
  <course>174.88</course>
  <speed>0.0</speed>
  <fix>3d</fix>
</trkpt>
<trkpt lat="40.0728153" lon="-105.2308666">
  <ele>1586.04</ele>
  <time>2026-08-27T18:29:31Z</time>
  <course>82.2</course>
  <speed>0.01</speed>
  <fix>3d</fix>
</trkpt>
<trkpt lat="40.0728152" lon="-105.2308666">
  <ele>1585.94</ele>
  <time>2026-08-27T18:29:31Z</time>
  <course>170.98</course>
  <speed>0.0</speed>
  <fix>3d</fix>
</trkpt>
<trkpt lat="40.0728153" lon="-105.2308666">
  <ele>1586.04</ele>
  <time>2026-08-27T18:29:31Z</time>
  <course>82.2</course>
  <speed>0.01</speed>
  <fix>3d</fix>
</trkpt>
<trkpt lat="40.0728152" lon="-105.2308666">
  <ele>1585.94</ele>
  <time>2026-08-27T18:29:31Z</time>
  <course>181.32</course>
  <speed>0.0</speed>
  <fix>3d</fix>
</trkpt>
<trkpt lat="40.0728153" lon="-105.2308666">
  <ele>1586.04</ele>
  <time>2026-08-27T18:29:31Z</time>
  <course>82.19</course>
  <speed>0.01414213562373095</speed>
  <fix>3d</fix>
</trkpt>
<trkpt lat="40.0728152" lon="-105.2308666">
  <ele>1585.94</ele>
  <time>2026-08-27T18:29:31Z</time>
  <course>175.23</course>
  <speed>0.0</speed>
  <fix>3d</fix>
</trkpt>
<trkpt lat="40.0728153" lon="-105.2308666">
  <ele>1586.04</ele>
  <time>2026-08-27T18:29:31Z</time>
  <course>82.18</course>
  <speed>0.01</speed>
  <fix>3d</fix>
</trkpt>
<trkpt lat="40.0728152" lon="-105.2308666">
  <ele>1585.94</ele>
  <time>2026-08-27T18:29:31Z</time>
  <course>173.37</course>
  <speed>0.0</speed>
  <fix>3d</fix>
</trkpt>
<trkpt lat="40.0728153" lon="-105.2308666">
  <ele>1586.03</ele>
  <time>2026-08-27T18:29:31Z</time>
  <course>82.16</course>
  <speed>0.01</speed>
  <fix>3d</fix>
</trkpt>
<trkpt lat="40.0728152" lon="-105.2308666">
  <ele>1585.94</ele>
  <time>2026-08-27T18:29:31Z</time>
  <course>172.39</course>
  <speed>0.0</speed>
  <fix>3d</fix>
</trkpt>
<trkpt lat="40.0728153" lon="-105.2308666">
  <ele>1586.03</ele>
  <time>2026-08-27T18:29:31Z</time>
  <course>82.15</course>
  <speed>0.01</speed>
  <fix>3d</fix>
</trkpt>
<trkpt lat="40.0728152" lon="-105.2308666">
  <ele>1585.94</ele>
  <time>2026-08-27T18:29:31Z</time>
  <course>327.56</course>
  <speed>0.0</speed>
  <fix>3d</fix>
</trkpt>
<trkpt lat="40.0728153" lon="-105.2308666">
  <ele>1586.03</ele>
  <time>2026-08-27T18:29:31Z</time>
  <course>82.13</course>
  <speed>0.01414213562373095</speed>
  <fix>3d</fix>
</trkpt>
<trkpt lat="40.0728152" lon="-105.2308666">
  <ele>1585.94</ele>
  <time>2026-08-27T18:29:31Z</time>
  <course>237.12</course>
  <speed>0.0</speed>
  <fix>3d</fix>
</trkpt>
<trkpt lat="40.0728153" lon="-105.2308666">
  <ele>1586.03</ele>
  <time>2026-08-27T18:29:31Z</time>
  <course>82.12</course>
  <speed>0.01414213562373095</speed>
  <fix>3d</fix>
</trkpt>
<trkpt lat="40.0728152" lon="-105.2308666">
  <ele>1585.94</ele>
  <time>2026-08-27T18:29:31Z</time>
  <course>169.25</course>
  <speed>0.0</speed>
  <fix>3d</fix>
</trkpt>
<trkpt lat="40.0728153" lon="-105.2308666">
  <ele>1586.03</ele>
  <time>2026-08-27T18:29:31Z</time>
  <course>82.1</course>
  <speed>0.01414213562373095</speed>
  <fix>3d</fix>
</trkpt>
<trkpt lat="40.0728152" lon="-105.2308666">
  <ele>1585.94</ele>
  <time>2026-08-27T18:29:31Z</time>
  <course>158.31</course>
  <speed>0.0</speed>
  <fix>3d</fix>
</trkpt>
<trkpt lat="40.0728153" lon="-105.2308666">
  <ele>1586.04</ele>
  <time>2026-08-27T18:29:31Z</time>
  <course>82.09</course>
  <speed>0.01414213562373095</speed>
  <fix>3d</fix>
</trkpt>
<trkpt lat="40.0728152" lon="-105.2308666">
  <ele>1585.94</ele>
  <time>2026-08-27T18:29:31Z</time>
  <course>220.18</course>
  <speed>0.0</speed>
  <fix>3d</fix>
</trkpt>
<trkpt lat="40.0728153" lon="-105.2308666">
  <ele>1586.04</ele>
  <time>2026-08-27T18:29:31Z</time>
  <course>82.07</course>
  <speed>0.01414213562373095</speed>
  <fix>3d</fix>
</trkpt>
<trkpt lat="40.0728152" lon="-105.2308666">
  <ele>1585.94</ele>
  <time>2026-08-27T18:29:32Z</time>
  <course>194.09</course>
  <speed>0.0</speed>
  <fix>3d</fix>
</trkpt>
<trkpt lat="40.0728153" lon="-105.2308666">
  <ele>1586.04</ele>
  <time>2026-08-27T18:29:32Z</time>
  <course>82.06</course>
  <speed>0.01414213562373095</speed>
  <fix>3d</fix>
</trkpt>
<trkpt lat="40.0728152" lon="-105.2308666">
  <ele>1585.94</ele>
  <time>2026-08-27T18:29:32Z</time>
  <course>163.94</course>
  <speed>0.0</speed>
  <fix>3d</fix>
</trkpt>
<trkpt lat="40.0728153" lon="-105.2308666">
  <ele>1586.04</ele>
  <time>2026-08-27T18:29:32Z</time>
  <course>82.05</course>
  <speed>0.01414213562373095</speed>
  <fix>3d</fix>
</trkpt>
<trkpt lat="40.0728152" lon="-105.2308666">
  <ele>1585.94</ele>
  <time>2026-08-27T18:29:32Z</time>
  <course>226.28</course>
  <speed>0.0</speed>
  <fix>3d</fix>
</trkpt>
<trkpt lat="40.0728153" lon="-105.2308666">
  <ele>1586.04</ele>
  <time>2026-08-27T18:29:32Z</time>
  <course>82.04</course>
  <speed>0.01414213562373095</speed>
  <fix>3d</fix>
</trkpt>
<trkpt lat="40.0728152" lon="-105.2308666">
  <ele>1585.94</ele>
  <time>2026-08-27T18:29:32Z</time>
  <course>213.8</course>
  <speed>0.0</speed>
  <fix>3d</fix>
</trkpt>
<trkpt lat="40.0728153" lon="-105.2308666">
  <ele>1586.04</ele>
  <time>2026-08-27T18:29:32Z</time>
  <course>82.02</course>
  <speed>0.01414213562373095</speed>
  <fix>3d</fix>
</trkpt>
<trkpt lat="40.0728152" lon="-105.2308666">
  <ele>1585.94</ele>
  <time>2026-08-27T18:29:32Z</time>
  <course>185.14</course>
  <speed>0.0</speed>
  <fix>3d</fix>
</trkpt>
<trkpt lat="40.0728153" lon="-105.2308666">
  <ele>1586.04</ele>
  <time>2026-08-27T18:29:32Z</time>
  <course>82.01</course>
  <speed>0.01414213562373095</speed>
  <fix>3d</fix>
</trkpt>
<trkpt lat="40.0728152" lon="-105.2308666">
  <ele>1585.94</ele>
  <time>2026-08-27T18:29:32Z</time>
  <course>149.16</course>
  <speed>0.0</speed>
  <fix>3d</fix>
</trkpt>
<trkpt lat="40.0728153" lon="-105.2308666">
  <ele>1586.04</ele>
  <time>2026-08-27T18:29:32Z</time>
  <course>82.0</course>
  <speed>0.01414213562373095</speed>
  <fix>3d</fix>
</trkpt>
<trkpt lat="40.0728152" lon="-105.2308666">
  <ele>1585.94</ele>
  <time>2026-08-27T18:29:32Z</time>
  <course>232.85</course>
  <speed>0.0</speed>
  <fix>3d</fix>
</trkpt>
<trkpt lat="40.0728153" lon="-105.2308666">
  <ele>1586.04</ele>
  <time>2026-08-27T18:29:32Z</time>
  <course>81.99</course>
  <speed>0.01414213562373095</speed>
  <fix>3d</fix>
</trkpt>
<trkpt lat="40.0728152" lon="-105.2308666">
  <ele>1585.94</ele>
  <time>2026-08-27T18:29:32Z</time>
  <course>200.74</course>
  <speed>0.0</speed>
  <fix>3d</fix>
</trkpt>
<trkpt lat="40.0728153" lon="-105.2308666">
  <ele>1586.04</ele>
  <time>2026-08-27T18:29:32Z</time>
  <course>81.98</course>
  <speed>0.01414213562373095</speed>
  <fix>3d</fix>
</trkpt>
<trkpt lat="40.0728152" lon="-105.2308666">
  <ele>1585.94</ele>
  <time>2026-08-27T18:29:32Z</time>
  <course>171.31</course>
  <speed>0.0</speed>
  <fix>3d</fix>
</trkpt>
<trkpt lat="40.0728153" lon="-105.2308666">
  <ele>1586.05</ele>
  <time>2026-08-27T18:29:32Z</time>
  <course>81.97</course>
  <speed>0.01414213562373095</speed>
  <fix>3d</fix>
</trkpt>
<trkpt lat="40.0728152" lon="-105.2308666">
  <ele>1585.94</ele>
  <time>2026-08-27T18:29:32Z</time>
  <course>160.7</course>
  <speed>0.0</speed>
  <fix>3d</fix>
</trkpt>
<trkpt lat="40.0728153" lon="-105.2308666">
  <ele>1586.05</ele>
  <time>2026-08-27T18:29:32Z</time>
  <course>81.96</course>
  <speed>0.01414213562373095</speed>
  <fix>3d</fix>
</trkpt>
<trkpt lat="40.0728152" lon="-105.2308666">
  <ele>1585.94</ele>
  <time>2026-08-27T18:29:32Z</time>
  <course>199.0</course>
  <speed>0.0</speed>
  <fix>3d</fix>
</trkpt>
<trkpt lat="40.0728153" lon="-105.2308666">
  <ele>1586.04</ele>
  <time>2026-08-27T18:29:32Z</time>
  <course>81.95</course>
  <speed>0.01414213562373095</speed>
  <fix>3d</fix>
</trkpt>
<trkpt lat="40.0728152" lon="-105.2308666">
  <ele>1585.94</ele>
  <time>2026-08-27T18:29:32Z</time>
  <course>177.43</course>
  <speed>0.0</speed>
  <fix>3d</fix>
</trkpt>
<trkpt lat="40.0728153" lon="-105.2308665">
  <ele>1586.04</ele>
  <time>2026-08-27T18:29:32Z</time>
  <course>81.94</course>
  <speed>0.01414213562373095</speed>
  <fix>3d</fix>
</trkpt>
<trkpt lat="40.0728152" lon="-105.2308666">
  <ele>1585.94</ele>
  <time>2026-08-27T18:29:32Z</time>
  <course>132.3</course>
  <speed>0.0</speed>
  <fix>3d</fix>
</trkpt>
<trkpt lat="40.0728153" lon="-105.2308665">
  <ele>1586.03</ele>
  <time>2026-08-27T18:29:32Z</time>
  <course>81.93</course>
  <speed>0.01414213562373095</speed>
  <fix>3d</fix>
</trkpt>
<trkpt lat="40.0728152" lon="-105.2308666">
  <ele>1585.94</ele>
  <time>2026-08-27T18:29:32Z</time>
  <course>205.92</course>
  <speed>0.0</speed>
  <fix>3d</fix>
</trkpt>
<trkpt lat="40.0728153" lon="-105.2308665">
  <ele>1586.03</ele>
  <time>2026-08-27T18:29:32Z</time>
  <course>81.92</course>
  <speed>0.01414213562373095</speed>
  <fix>3d</fix>
</trkpt>
<trkpt lat="40.0728152" lon="-105.2308666">
  <ele>1585.94</ele>
  <time>2026-08-27T18:29:32Z</time>
  <course>197.62</course>
  <speed>0.0</speed>
  <fix>3d</fix>
</trkpt>
<trkpt lat="40.0728153" lon="-105.2308665">
  <ele>1586.02</ele>
  <time>2026-08-27T18:29:32Z</time>
  <course>81.92</course>
  <speed>0.01414213562373095</speed>
  <fix>3d</fix>
</trkpt>
<trkpt lat="40.0728152" lon="-105.2308666">
  <ele>1585.94</ele>
  <time>2026-08-27T18:29:32Z</time>
  <course>190.64</course>
  <speed>0.0</speed>
  <fix>3d</fix>
</trkpt>
<trkpt lat="40.0728153" lon="-105.2308665">
  <ele>1586.02</ele>
  <time>2026-08-27T18:29:32Z</time>
  <course>81.91</course>
  <speed>0.01414213562373095</speed>
  <fix>3d</fix>
</trkpt>
<trkpt lat="40.0728152" lon="-105.2308666">
  <ele>1585.94</ele>
  <time>2026-08-27T18:29:32Z</time>
  <course>169.59</course>
  <speed>0.0</speed>
  <fix>3d</fix>
</trkpt>
<trkpt lat="40.0728153" lon="-105.2308665">
  <ele>1586.02</ele>
  <time>2026-08-27T18:29:32Z</time>
  <course>81.9</course>
  <speed>0.01414213562373095</speed>
  <fix>3d</fix>
</trkpt>
<trkpt lat="40.0728152" lon="-105.2308666">
  <ele>1585.94</ele>
  <time>2026-08-27T18:29:32Z</time>
  <course>184.48</course>
  <speed>0.0</speed>
  <fix>3d</fix>
</trkpt>
<trkpt lat="40.0728153" lon="-105.2308665">
  <ele>1586.02</ele>
  <time>2026-08-27T18:29:32Z</time>
  <course>81.89</course>
  <speed>0.01414213562373095</speed>
  <fix>3d</fix>
</trkpt>
<trkpt lat="40.0728152" lon="-105.2308666">
  <ele>1585.94</ele>
  <time>2026-08-27T18:29:32Z</time>
  <course>192.35</course>
  <speed>0.0</speed>
  <fix>3d</fix>
</trkpt>
<trkpt lat="40.0728153" lon="-105.2308665">
  <ele>1586.03</ele>
  <time>2026-08-27T18:29:32Z</time>
  <course>81.88</course>
  <speed>0.01414213562373095</speed>
  <fix>3d</fix>
</trkpt>
<trkpt lat="40.0728152" lon="-105.2308666">
  <ele>1585.94</ele>
  <time>2026-08-27T18:29:32Z</time>
  <course>194.62</course>
  <speed>0.0</speed>
  <fix>3d</fix>
</trkpt>
<trkpt lat="40.0728153" lon="-105.2308665">
  <ele>1586.03</ele>
  <time>2026-08-27T18:29:32Z</time>
  <course>81.88</course>
  <speed>0.01414213562373095</speed>
  <fix>3d</fix>
</trkpt>
<trkpt lat="40.0728152" lon="-105.2308666">
  <ele>1585.94</ele>
  <time>2026-08-27T18:29:32Z</time>
  <course>182.43</course>
  <speed>0.0</speed>
  <fix>3d</fix>
</trkpt>
<trkpt lat="40.0728153" lon="-105.2308665">
  <ele>1586.03</ele>
  <time>2026-08-27T18:29:32Z</time>
  <course>81.87</course>
  <speed>0.01414213562373095</speed>
  <fix>3d</fix>
</trkpt>
<trkpt lat="40.0728152" lon="-105.2308666">
  <ele>1585.94</ele>
  <time>2026-08-27T18:29:32Z</time>
  <course>197.21</course>
  <speed>0.0</speed>
  <fix>3d</fix>
</trkpt>
<trkpt lat="40.0728153" lon="-105.2308665">
  <ele>1586.03</ele>
  <time>2026-08-27T18:29:32Z</time>
  <course>81.86</course>
  <speed>0.01414213562373095</speed>
  <fix>3d</fix>
</trkpt>
<trkpt lat="40.0728152" lon="-105.2308666">
  <ele>1585.94</ele>
  <time>2026-08-27T18:29:32Z</time>
  <course>206.47</course>
  <speed>0.0</speed>
  <fix>3d</fix>
</trkpt>
<trkpt lat="40.0728153" lon="-105.2308665">
  <ele>1586.02</ele>
  <time>2026-08-27T18:29:32Z</time>
  <course>81.85</course>
  <speed>0.01414213562373095</speed>
  <fix>3d</fix>
</trkpt>
<trkpt lat="40.0728152" lon="-105.2308666">
  <ele>1585.94</ele>
  <time>2026-08-27T18:29:32Z</time>
  <course>194.86</course>
  <speed>0.0</speed>
  <fix>3d</fix>
</trkpt>
<trkpt lat="40.0728153" lon="-105.2308665">
  <ele>1586.02</ele>
  <time>2026-08-27T18:29:32Z</time>
  <course>81.84</course>
  <speed>0.01414213562373095</speed>
  <fix>3d</fix>
</trkpt>
<trkpt lat="40.0728152" lon="-105.2308666">
  <ele>1585.94</ele>
  <time>2026-08-27T18:29:32Z</time>
  <course>172.86</course>
  <speed>0.0</speed>
  <fix>3d</fix>
</trkpt>
<trkpt lat="40.0728153" lon="-105.2308665">
  <ele>1586.02</ele>
  <time>2026-08-27T18:29:32Z</time>
  <course>81.84</course>
  <speed>0.01414213562373095</speed>
  <fix>3d</fix>
</trkpt>
<trkpt lat="40.0728152" lon="-105.2308666">
  <ele>1585.94</ele>
  <time>2026-08-27T18:29:32Z</time>
  <course>199.93</course>
  <speed>0.0</speed>
  <fix>3d</fix>
</trkpt>
<trkpt lat="40.0728153" lon="-105.2308665">
  <ele>1586.02</ele>
  <time>2026-08-27T18:29:32Z</time>
  <course>81.83</course>
  <speed>0.01414213562373095</speed>
  <fix>3d</fix>
</trkpt>
<trkpt lat="40.0728152" lon="-105.2308666">
  <ele>1585.94</ele>
  <time>2026-08-27T18:29:32Z</time>
  <course>215.64</course>
  <speed>0.0</speed>
  <fix>3d</fix>
</trkpt>
<trkpt lat="40.0728153" lon="-105.2308665">
  <ele>1586.02</ele>
  <time>2026-08-27T18:29:32Z</time>
  <course>81.82</course>
  <speed>0.01414213562373095</speed>
  <fix>3d</fix>
</trkpt>
<trkpt lat="40.0728152" lon="-105.2308666">
  <ele>1585.94</ele>
  <time>2026-08-27T18:29:32Z</time>
  <course>179.63</course>
  <speed>0.0</speed>
  <fix>3d</fix>
</trkpt>
<trkpt lat="40.0728153" lon="-105.2308665">
  <ele>1586.02</ele>
  <time>2026-08-27T18:29:32Z</time>
  <course>81.82</course>
  <speed>0.01414213562373095</speed>
  <fix>3d</fix>
</trkpt>
<trkpt lat="40.0728152" lon="-105.2308666">
  <ele>1585.94</ele>
  <time>2026-08-27T18:29:32Z</time>
  <course>172.53</course>
  <speed>0.0</speed>
  <fix>3d</fix>
</trkpt>
<trkpt lat="40.0728153" lon="-105.2308665">
  <ele>1586.02</ele>
  <time>2026-08-27T18:29:32Z</time>
  <course>81.81</course>
  <speed>0.01414213562373095</speed>
  <fix>3d</fix>
</trkpt>
<trkpt lat="40.0728152" lon="-105.2308666">
  <ele>1585.94</ele>
  <time>2026-08-27T18:29:32Z</time>
  <course>209.27</course>
  <speed>0.0</speed>
  <fix>3d</fix>
</trkpt>
<trkpt lat="40.0728153" lon="-105.2308665">
  <ele>1586.02</ele>
  <time>2026-08-27T18:29:32Z</time>
  <course>81.8</course>
  <speed>0.01414213562373095</speed>
  <fix>3d</fix>
</trkpt>
<trkpt lat="40.0728152" lon="-105.2308666">
  <ele>1585.94</ele>
  <time>2026-08-27T18:29:32Z</time>
  <course>205.86</course>
  <speed>0.0</speed>
  <fix>3d</fix>
</trkpt>
<trkpt lat="40.0728153" lon="-105.2308665">
  <ele>1586.02</ele>
  <time>2026-08-27T18:29:32Z</time>
  <course>81.79</course>
  <speed>0.01414213562373095</speed>
  <fix>3d</fix>
</trkpt>
<trkpt lat="40.0728152" lon="-105.2308666">
  <ele>1585.94</ele>
  <time>2026-08-27T18:29:32Z</time>
  <course>176.43</course>
  <speed>0.0</speed>
  <fix>3d</fix>
</trkpt>
<trkpt lat="40.0728153" lon="-105.2308665">
  <ele>1586.02</ele>
  <time>2026-08-27T18:29:32Z</time>
  <course>81.79</course>
  <speed>0.01414213562373095</speed>
  <fix>3d</fix>
</trkpt>
<trkpt lat="40.0728152" lon="-105.2308666">
  <ele>1585.94</ele>
  <time>2026-08-27T18:29:32Z</time>
  <course>173.75</course>
  <speed>0.0</speed>
  <fix>3d</fix>
</trkpt>
<trkpt lat="40.0728153" lon="-105.2308665">
  <ele>1586.02</ele>
  <time>2026-08-27T18:29:32Z</time>
  <course>81.78</course>
  <speed>0.01414213562373095</speed>
  <fix>3d</fix>
</trkpt>
<trkpt lat="40.0728152" lon="-105.2308666">
  <ele>1585.94</ele>
  <time>2026-08-27T18:29:32Z</time>
  <course>210.48</course>
  <speed>0.0</speed>
  <fix>3d</fix>
</trkpt>
<trkpt lat="40.0728153" lon="-105.2308665">
  <ele>1586.02</ele>
  <time>2026-08-27T18:29:32Z</time>
  <course>81.77</course>
  <speed>0.01414213562373095</speed>
  <fix>3d</fix>
</trkpt>
<trkpt lat="40.0728152" lon="-105.2308666">
  <ele>1585.94</ele>
  <time>2026-08-27T18:29:32Z</time>
  <course>189.01</course>
  <speed>0.0</speed>
  <fix>3d</fix>
</trkpt>
<trkpt lat="40.0728153" lon="-105.2308665">
  <ele>1586.02</ele>
  <time>2026-08-27T18:29:32Z</time>
  <course>81.77</course>
  <speed>0.01414213562373095</speed>
  <fix>3d</fix>
</trkpt>
<trkpt lat="40.0728152" lon="-105.2308666">
  <ele>1585.94</ele>
  <time>2026-08-27T18:29:32Z</time>
  <course>167.72</course>
  <speed>0.0</speed>
  <fix>3d</fix>
</trkpt>
<trkpt lat="40.0728153" lon="-105.2308665">
  <ele>1586.02</ele>
  <time>2026-08-27T18:29:32Z</time>
  <course>81.76</course>
  <speed>0.01414213562373095</speed>
  <fix>3d</fix>
</trkpt>
<trkpt lat="40.0728152" lon="-105.2308666">
  <ele>1585.94</ele>
  <time>2026-08-27T18:29:32Z</time>
  <course>215.27</course>
  <speed>0.0</speed>
  <fix>3d</fix>
</trkpt>
<trkpt lat="40.0728153" lon="-105.2308665">
  <ele>1586.02</ele>
  <time>2026-08-27T18:29:32Z</time>
  <course>81.76</course>
  <speed>0.01414213562373095</speed>
  <fix>3d</fix>
</trkpt>
<trkpt lat="40.0728152" lon="-105.2308666">
  <ele>1585.94</ele>
  <time>2026-08-27T18:29:32Z</time>
  <course>203.17</course>
  <speed>0.0</speed>
  <fix>3d</fix>
</trkpt>
<trkpt lat="40.0728153" lon="-105.2308665">
  <ele>1586.02</ele>
  <time>2026-08-27T18:29:32Z</time>
  <course>81.75</course>
  <speed>0.01414213562373095</speed>
  <fix>3d</fix>
</trkpt>
<trkpt lat="40.0728152" lon="-105.2308666">
  <ele>1585.94</ele>
  <time>2026-08-27T18:29:32Z</time>
  <course>182.96</course>
  <speed>0.0</speed>
  <fix>3d</fix>
</trkpt>
<trkpt lat="40.0728153" lon="-105.2308665">
  <ele>1586.02</ele>
  <time>2026-08-27T18:29:32Z</time>
  <course>81.74</course>
  <speed>0.01414213562373095</speed>
  <fix>3d</fix>
</trkpt>
<trkpt lat="40.0728152" lon="-105.2308666">
  <ele>1585.94</ele>
  <time>2026-08-27T18:29:32Z</time>
  <course>169.42</course>
  <speed>0.0</speed>
  <fix>3d</fix>
</trkpt>
<trkpt lat="40.0728153" lon="-105.2308665">
  <ele>1586.02</ele>
  <time>2026-08-27T18:29:32Z</time>
  <course>81.74</course>
  <speed>0.01414213562373095</speed>
  <fix>3d</fix>
</trkpt>
<trkpt lat="40.0728152" lon="-105.2308666">
  <ele>1585.94</ele>
  <time>2026-08-27T18:29:32Z</time>
  <course>216.64</course>
  <speed>0.0</speed>
  <fix>3d</fix>
</trkpt>
<trkpt lat="40.0728153" lon="-105.2308665">
  <ele>1586.02</ele>
  <time>2026-08-27T18:29:32Z</time>
  <course>81.73</course>
  <speed>0.01414213562373095</speed>
  <fix>3d</fix>
</trkpt>
<trkpt lat="40.0728152" lon="-105.2308666">
  <ele>1585.94</ele>
  <time>2026-08-27T18:29:32Z</time>
  <course>200.36</course>
  <speed>0.0</speed>
  <fix>3d</fix>
</trkpt>
<trkpt lat="40.0728153" lon="-105.2308665">
  <ele>1586.02</ele>
  <time>2026-08-27T18:29:32Z</time>
  <course>81.72</course>
  <speed>0.01414213562373095</speed>
  <fix>3d</fix>
</trkpt>
<trkpt lat="40.0728152" lon="-105.2308666">
  <ele>1585.94</ele>
  <time>2026-08-27T18:29:32Z</time>
  <course>174.61</course>
  <speed>0.0</speed>
  <fix>3d</fix>
</trkpt>
<trkpt lat="40.0728153" lon="-105.2308665">
  <ele>1586.02</ele>
  <time>2026-08-27T18:29:32Z</time>
  <course>81.72</course>
  <speed>0.01414213562373095</speed>
  <fix>3d</fix>
</trkpt>
<trkpt lat="40.0728152" lon="-105.2308666">
  <ele>1585.94</ele>
  <time>2026-08-27T18:29:32Z</time>
  <course>139.65</course>
  <speed>0.0</speed>
  <fix>3d</fix>
</trkpt>
<trkpt lat="40.0728153" lon="-105.2308665">
  <ele>1586.03</ele>
  <time>2026-08-27T18:29:32Z</time>
  <course>81.71</course>
  <speed>0.01414213562373095</speed>
  <fix>3d</fix>
</trkpt>
<trkpt lat="40.0728152" lon="-105.2308666">
  <ele>1585.94</ele>
  <time>2026-08-27T18:29:32Z</time>
  <course>181.39</course>
  <speed>0.0</speed>
  <fix>3d</fix>
</trkpt>
<trkpt lat="40.0728153" lon="-105.2308665">
  <ele>1586.03</ele>
  <time>2026-08-27T18:29:32Z</time>
  <course>81.71</course>
  <speed>0.01414213562373095</speed>
  <fix>3d</fix>
</trkpt>
<trkpt lat="40.0728152" lon="-105.2308666">
  <ele>1585.94</ele>
  <time>2026-08-27T18:29:32Z</time>
  <course>197.07</course>
  <speed>0.0</speed>
  <fix>3d</fix>
</trkpt>
<trkpt lat="40.0728153" lon="-105.2308665">
  <ele>1586.03</ele>
  <time>2026-08-27T18:29:32Z</time>
  <course>81.7</course>
  <speed>0.01414213562373095</speed>
  <fix>3d</fix>
</trkpt>
<trkpt lat="40.0728152" lon="-105.2308666">
  <ele>1585.94</ele>
  <time>2026-08-27T18:29:32Z</time>
  <course>181.94</course>
  <speed>0.0</speed>
  <fix>3d</fix>
</trkpt>
<trkpt lat="40.0728153" lon="-105.2308665">
  <ele>1586.04</ele>
  <time>2026-08-27T18:29:32Z</time>
  <course>81.69</course>
  <speed>0.01414213562373095</speed>
  <fix>3d</fix>
</trkpt>
<trkpt lat="40.0728152" lon="-105.2308666">
  <ele>1585.94</ele>
  <time>2026-08-27T18:29:32Z</time>
  <course>187.22</course>
  <speed>0.0</speed>
  <fix>3d</fix>
</trkpt>
<trkpt lat="40.0728153" lon="-105.2308665">
  <ele>1586.04</ele>
  <time>2026-08-27T18:29:32Z</time>
  <course>81.69</course>
  <speed>0.01414213562373095</speed>
  <fix>3d</fix>
</trkpt>
<trkpt lat="40.0728152" lon="-105.2308666">
  <ele>1585.94</ele>
  <time>2026-08-27T18:29:32Z</time>
  <course>194.02</course>
  <speed>0.0</speed>
  <fix>3d</fix>
</trkpt>
<trkpt lat="40.0728153" lon="-105.2308665">
  <ele>1586.04</ele>
  <time>2026-08-27T18:29:32Z</time>
  <course>81.68</course>
  <speed>0.01414213562373095</speed>
  <fix>3d</fix>
</trkpt>
<trkpt lat="40.0728152" lon="-105.2308666">
  <ele>1585.94</ele>
  <time>2026-08-27T18:29:32Z</time>
  <course>193.92</course>
  <speed>0.0</speed>
  <fix>3d</fix>
</trkpt>
<trkpt lat="40.0728153" lon="-105.2308665">
  <ele>1586.04</ele>
  <time>2026-08-27T18:29:32Z</time>
  <course>81.68</course>
  <speed>0.01414213562373095</speed>
  <fix>3d</fix>
</trkpt>
<trkpt lat="40.0728152" lon="-105.2308666">
  <ele>1585.94</ele>
  <time>2026-08-27T18:29:32Z</time>
  <course>186.33</course>
  <speed>0.0</speed>
  <fix>3d</fix>
</trkpt>
<trkpt lat="40.0728153" lon="-105.2308665">
  <ele>1586.03</ele>
  <time>2026-08-27T18:29:32Z</time>
  <course>81.67</course>
  <speed>0.01414213562373095</speed>
  <fix>3d</fix>
</trkpt>
<trkpt lat="40.0728152" lon="-105.2308666">
  <ele>1585.94</ele>
  <time>2026-08-27T18:29:32Z</time>
  <course>188.9</course>
  <speed>0.0</speed>
  <fix>3d</fix>
</trkpt>
<trkpt lat="40.0728153" lon="-105.2308665">
  <ele>1586.03</ele>
  <time>2026-08-27T18:29:32Z</time>
  <course>81.67</course>
  <speed>0.01414213562373095</speed>
  <fix>3d</fix>
</trkpt>
<trkpt lat="40.0728152" lon="-105.2308666">
  <ele>1585.94</ele>
  <time>2026-08-27T18:29:32Z</time>
  <course>194.33</course>
  <speed>0.0</speed>
  <fix>3d</fix>
</trkpt>
<trkpt lat="40.0728153" lon="-105.2308665">
  <ele>1586.03</ele>
  <time>2026-08-27T18:29:32Z</time>
  <course>81.66</course>
  <speed>0.01414213562373095</speed>
  <fix>3d</fix>
</trkpt>
<trkpt lat="40.0728152" lon="-105.2308666">
  <ele>1585.94</ele>
  <time>2026-08-27T18:29:32Z</time>
  <course>195.28</course>
  <speed>0.0</speed>
  <fix>3d</fix>
</trkpt>
<trkpt lat="40.0728153" lon="-105.2308665">
  <ele>1586.03</ele>
  <time>2026-08-27T18:29:32Z</time>
  <course>81.66</course>
  <speed>0.01414213562373095</speed>
  <fix>3d</fix>
</trkpt>
<trkpt lat="40.0728152" lon="-105.2308666">
  <ele>1585.94</ele>
  <time>2026-08-27T18:29:32Z</time>
  <course>179.62</course>
  <speed>0.0</speed>
  <fix>3d</fix>
</trkpt>
<trkpt lat="40.0728153" lon="-105.2308665">
  <ele>1586.02</ele>
  <time>2026-08-27T18:29:32Z</time>
  <course>81.65</course>
  <speed>0.01414213562373095</speed>
  <fix>3d</fix>
</trkpt>
<trkpt lat="40.0728152" lon="-105.2308666">
  <ele>1585.94</ele>
  <time>2026-08-27T18:29:32Z</time>
  <course>195.46</course>
  <speed>0.0</speed>
  <fix>3d</fix>
</trkpt>
<trkpt lat="40.0728153" lon="-105.2308665">
  <ele>1586.02</ele>
  <time>2026-08-27T18:29:32Z</time>
  <course>81.65</course>
  <speed>0.01414213562373095</speed>
  <fix>3d</fix>
</trkpt>
<trkpt lat="40.0728152" lon="-105.2308666">
  <ele>1585.94</ele>
  <time>2026-08-27T18:29:32Z</time>
  <course>207.63</course>
  <speed>0.0</speed>
  <fix>3d</fix>
</trkpt>
<trkpt lat="40.0728153" lon="-105.2308665">
  <ele>1586.02</ele>
  <time>2026-08-27T18:29:32Z</time>
  <course>81.64</course>
  <speed>0.01414213562373095</speed>
  <fix>3d</fix>
</trkpt>
<trkpt lat="40.0728152" lon="-105.2308666">
  <ele>1585.94</ele>
  <time>2026-08-27T18:29:32Z</time>
  <course>191.95</course>
  <speed>0.0</speed>
  <fix>3d</fix>
</trkpt>
<trkpt lat="40.0728153" lon="-105.2308665">
  <ele>1586.01</ele>
  <time>2026-08-27T18:29:32Z</time>
  <course>81.64</course>
  <speed>0.01414213562373095</speed>
  <fix>3d</fix>
</trkpt>
<trkpt lat="40.0728152" lon="-105.2308666">
  <ele>1585.94</ele>
  <time>2026-08-27T18:29:32Z</time>
  <course>179.44</course>
  <speed>0.0</speed>
  <fix>3d</fix>
</trkpt>
<trkpt lat="40.0728153" lon="-105.2308665">
  <ele>1586.01</ele>
  <time>2026-08-27T18:29:32Z</time>
  <course>81.63</course>
  <speed>0.01414213562373095</speed>
  <fix>3d</fix>
</trkpt>
<trkpt lat="40.0728152" lon="-105.2308666">
  <ele>1585.94</ele>
  <time>2026-08-27T18:29:32Z</time>
  <course>201.42</course>
  <speed>0.0</speed>
  <fix>3d</fix>
</trkpt>
<trkpt lat="40.0728153" lon="-105.2308665">
  <ele>1586.01</ele>
  <time>2026-08-27T18:29:32Z</time>
  <course>81.63</course>
  <speed>0.01414213562373095</speed>
  <fix>3d</fix>
</trkpt>
<trkpt lat="40.0728152" lon="-105.2308666">
  <ele>1585.94</ele>
  <time>2026-08-27T18:29:32Z</time>
  <course>210.2</course>
  <speed>0.0</speed>
  <fix>3d</fix>
</trkpt>
<trkpt lat="40.0728153" lon="-105.2308665">
  <ele>1586.01</ele>
  <time>2026-08-27T18:29:32Z</time>
  <course>81.62</course>
  <speed>0.01414213562373095</speed>
  <fix>3d</fix>
</trkpt>
<trkpt lat="40.0728152" lon="-105.2308666">
  <ele>1585.94</ele>
  <time>2026-08-27T18:29:32Z</time>
  <course>178.12</course>
  <speed>0.0</speed>
  <fix>3d</fix>
</trkpt>
<trkpt lat="40.0728153" lon="-105.2308666">
  <ele>1586.01</ele>
  <time>2026-08-27T18:29:32Z</time>
  <course>81.62</course>
  <speed>0.01414213562373095</speed>
  <fix>3d</fix>
</trkpt>
<trkpt lat="40.0728152" lon="-105.2308666">
  <ele>1585.94</ele>
  <time>2026-08-27T18:29:32Z</time>
  <course>174.67</course>
  <speed>0.0</speed>
  <fix>3d</fix>
</trkpt>
<trkpt lat="40.0728153" lon="-105.2308665">
  <ele>1586.01</ele>
  <time>2026-08-27T18:29:32Z</time>
  <course>81.66</course>
  <speed>0.01414213562373095</speed>
  <fix>3d</fix>
</trkpt>
<trkpt lat="40.0728152" lon="-105.2308666">
  <ele>1585.94</ele>
  <time>2026-08-27T18:29:32Z</time>
  <course>146.76</course>
  <speed>0.0</speed>
  <fix>3d</fix>
</trkpt>
<trkpt lat="40.0728153" lon="-105.2308665">
  <ele>1586.01</ele>
  <time>2026-08-27T18:29:32Z</time>
  <course>81.74</course>
  <speed>0.022360679774997897</speed>
  <fix>3d</fix>
</trkpt>
<trkpt lat="40.0728152" lon="-105.2308666">
  <ele>1585.94</ele>
  <time>2026-08-27T18:29:32Z</time>
  <course>95.96</course>
  <speed>0.0</speed>
  <fix>3d</fix>
</trkpt>
<trkpt lat="40.0728153" lon="-105.2308665">
  <ele>1586.01</ele>
  <time>2026-08-27T18:29:32Z</time>
  <course>81.83</course>
  <speed>0.022360679774997897</speed>
  <fix>3d</fix>
</trkpt>
<trkpt lat="40.0728152" lon="-105.2308666">
  <ele>1585.94</ele>
  <time>2026-08-27T18:29:32Z</time>
  <course>22.58</course>
  <speed>0.0</speed>
  <fix>3d</fix>
</trkpt>
<trkpt lat="40.0728153" lon="-105.2308665">
  <ele>1586.0</ele>
  <time>2026-08-27T18:29:32Z</time>
  <course>81.9</course>
  <speed>0.01414213562373095</speed>
  <fix>3d</fix>
</trkpt>
<trkpt lat="40.0728152" lon="-105.2308666">
  <ele>1585.94</ele>
  <time>2026-08-27T18:29:32Z</time>
  <course>319.13</course>
  <speed>0.0</speed>
  <fix>3d</fix>
</trkpt>
<trkpt lat="40.0728153" lon="-105.2308665">
  <ele>1586.0</ele>
  <time>2026-08-27T18:29:32Z</time>
  <course>81.97</course>
  <speed>0.022360679774997897</speed>
  <fix>3d</fix>
</trkpt>
<trkpt lat="40.0728152" lon="-105.2308666">
  <ele>1585.94</ele>
  <time>2026-08-27T18:29:32Z</time>
  <course>308.86</course>
  <speed>0.0</speed>
  <fix>3d</fix>
</trkpt>
<trkpt lat="40.0728153" lon="-105.2308665">
  <ele>1586.0</ele>
  <time>2026-08-27T18:29:32Z</time>
  <course>82.04</course>
  <speed>0.01414213562373095</speed>
  <fix>3d</fix>
</trkpt>
<trkpt lat="40.0728152" lon="-105.2308666">
  <ele>1585.94</ele>
  <time>2026-08-27T18:29:32Z</time>
  <course>317.29</course>
  <speed>0.0</speed>
  <fix>3d</fix>
</trkpt>
<trkpt lat="40.0728153" lon="-105.2308665">
  <ele>1586.0</ele>
  <time>2026-08-27T18:29:32Z</time>
  <course>82.11</course>
  <speed>0.01414213562373095</speed>
  <fix>3d</fix>
</trkpt>
<trkpt lat="40.0728152" lon="-105.2308666">
  <ele>1585.94</ele>
  <time>2026-08-27T18:29:32Z</time>
  <course>311.65</course>
  <speed>0.0</speed>
  <fix>3d</fix>
</trkpt>
<trkpt lat="40.0728153" lon="-105.2308665">
  <ele>1586.0</ele>
  <time>2026-08-27T18:29:32Z</time>
  <course>82.17</course>
  <speed>0.01414213562373095</speed>
  <fix>3d</fix>
</trkpt>
<trkpt lat="40.0728152" lon="-105.2308666">
  <ele>1585.94</ele>
  <time>2026-08-27T18:29:32Z</time>
  <course>302.45</course>
  <speed>0.0</speed>
  <fix>3d</fix>
</trkpt>
<trkpt lat="40.0728153" lon="-105.2308665">
  <ele>1586.0</ele>
  <time>2026-08-27T18:29:32Z</time>
  <course>82.23</course>
  <speed>0.01414213562373095</speed>
  <fix>3d</fix>
</trkpt>
<trkpt lat="40.0728152" lon="-105.2308666">
  <ele>1585.94</ele>
  <time>2026-08-27T18:29:32Z</time>
  <course>300.31</course>
  <speed>0.0</speed>
  <fix>3d</fix>
</trkpt>
<trkpt lat="40.0728153" lon="-105.2308665">
  <ele>1586.0</ele>
  <time>2026-08-27T18:29:32Z</time>
  <course>82.29</course>
  <speed>0.01414213562373095</speed>
  <fix>3d</fix>
</trkpt>
<trkpt lat="40.0728152" lon="-105.2308666">
  <ele>1585.94</ele>
  <time>2026-08-27T18:29:32Z</time>
  <course>316.23</course>
  <speed>0.0</speed>
  <fix>3d</fix>
</trkpt>
<trkpt lat="40.0728153" lon="-105.2308665">
  <ele>1586.0</ele>
  <time>2026-08-27T18:29:32Z</time>
  <course>82.34</course>
  <speed>0.01414213562373095</speed>
  <fix>3d</fix>
</trkpt>
<trkpt lat="40.0728152" lon="-105.2308666">
  <ele>1585.94</ele>
  <time>2026-08-27T18:29:32Z</time>
  <course>311.97</course>
  <speed>0.0</speed>
  <fix>3d</fix>
</trkpt>
<trkpt lat="40.0728153" lon="-105.2308665">
  <ele>1586.0</ele>
  <time>2026-08-27T18:29:32Z</time>
  <course>82.39</course>
  <speed>0.01414213562373095</speed>
  <fix>3d</fix>
</trkpt>
<trkpt lat="40.0728152" lon="-105.2308666">
  <ele>1585.94</ele>
  <time>2026-08-27T18:29:32Z</time>
  <course>148.96</course>
  <speed>0.0</speed>
  <fix>3d</fix>
</trkpt>
<trkpt lat="40.0728153" lon="-105.2308665">
  <ele>1586.0</ele>
  <time>2026-08-27T18:29:32Z</time>
  <course>82.44</course>
  <speed>0.01414213562373095</speed>
  <fix>3d</fix>
</trkpt>
<trkpt lat="40.0728152" lon="-105.2308666">
  <ele>1585.94</ele>
  <time>2026-08-27T18:29:32Z</time>
  <course>145.3</course>
  <speed>0.0</speed>
  <fix>3d</fix>
</trkpt>
<trkpt lat="40.0728153" lon="-105.2308665">
  <ele>1586.0</ele>
  <time>2026-08-27T18:29:32Z</time>
  <course>82.49</course>
  <speed>0.01414213562373095</speed>
  <fix>3d</fix>
</trkpt>
<trkpt lat="40.0728152" lon="-105.2308666">
  <ele>1585.94</ele>
  <time>2026-08-27T18:29:32Z</time>
  <course>259.83</course>
  <speed>0.0</speed>
  <fix>3d</fix>
</trkpt>
<trkpt lat="40.0728153" lon="-105.2308665">
  <ele>1586.0</ele>
  <time>2026-08-27T18:29:32Z</time>
  <course>82.54</course>
  <speed>0.01414213562373095</speed>
  <fix>3d</fix>
</trkpt>
<trkpt lat="40.0728152" lon="-105.2308666">
  <ele>1585.94</ele>
  <time>2026-08-27T18:29:32Z</time>
  <course>171.14</course>
  <speed>0.0</speed>
  <fix>3d</fix>
</trkpt>
<trkpt lat="40.0728153" lon="-105.2308665">
  <ele>1586.0</ele>
  <time>2026-08-27T18:29:32Z</time>
  <course>82.59</course>
  <speed>0.01414213562373095</speed>
  <fix>3d</fix>
</trkpt>
<trkpt lat="40.0728152" lon="-105.2308666">
  <ele>1585.94</ele>
  <time>2026-08-27T18:29:32Z</time>
  <course>165.45</course>
  <speed>0.0</speed>
  <fix>3d</fix>
</trkpt>
<trkpt lat="40.0728153" lon="-105.2308665">
  <ele>1586.0</ele>
  <time>2026-08-27T18:29:32Z</time>
  <course>82.63</course>
  <speed>0.01414213562373095</speed>
  <fix>3d</fix>
</trkpt>
<trkpt lat="40.0728152" lon="-105.2308666">
  <ele>1585.94</ele>
  <time>2026-08-27T18:29:32Z</time>
  <course>169.06</course>
  <speed>0.0</speed>
  <fix>3d</fix>
</trkpt>
<trkpt lat="40.0728153" lon="-105.2308665">
  <ele>1586.0</ele>
  <time>2026-08-27T18:29:32Z</time>
  <course>82.67</course>
  <speed>0.01414213562373095</speed>
  <fix>3d</fix>
</trkpt>
<trkpt lat="40.0728152" lon="-105.2308666">
  <ele>1585.94</ele>
  <time>2026-08-27T18:29:32Z</time>
  <course>169.42</course>
  <speed>0.0</speed>
  <fix>3d</fix>
</trkpt>
<trkpt lat="40.0728153" lon="-105.2308665">
  <ele>1586.01</ele>
  <time>2026-08-27T18:29:32Z</time>
  <course>82.71</course>
  <speed>0.01414213562373095</speed>
  <fix>3d</fix>
</trkpt>
<trkpt lat="40.0728152" lon="-105.2308666">
  <ele>1585.94</ele>
  <time>2026-08-27T18:29:32Z</time>
  <course>168.82</course>
  <speed>0.0</speed>
  <fix>3d</fix>
</trkpt>
<trkpt lat="40.0728153" lon="-105.2308665">
  <ele>1586.01</ele>
  <time>2026-08-27T18:29:32Z</time>
  <course>82.75</course>
  <speed>0.01414213562373095</speed>
  <fix>3d</fix>
</trkpt>
<trkpt lat="40.0728152" lon="-105.2308666">
  <ele>1585.94</ele>
  <time>2026-08-27T18:29:32Z</time>
  <course>168.84</course>
  <speed>0.0</speed>
  <fix>3d</fix>
</trkpt>
<trkpt lat="40.0728153" lon="-105.2308665">
  <ele>1586.01</ele>
  <time>2026-08-27T18:29:32Z</time>
  <course>82.79</course>
  <speed>0.01414213562373095</speed>
  <fix>3d</fix>
</trkpt>
<trkpt lat="40.0728152" lon="-105.2308666">
  <ele>1585.94</ele>
  <time>2026-08-27T18:29:32Z</time>
  <course>168.92</course>
  <speed>0.0</speed>
  <fix>3d</fix>
</trkpt>
<trkpt lat="40.0728153" lon="-105.2308665">
  <ele>1586.0</ele>
  <time>2026-08-27T18:29:32Z</time>
  <course>82.83</course>
  <speed>0.01414213562373095</speed>
  <fix>3d</fix>
</trkpt>
<trkpt lat="40.0728152" lon="-105.2308666">
  <ele>1585.94</ele>
  <time>2026-08-27T18:29:32Z</time>
  <course>168.91</course>
  <speed>0.0</speed>
  <fix>3d</fix>
</trkpt>
<trkpt lat="40.0728153" lon="-105.2308665">
  <ele>1586.01</ele>
  <time>2026-08-27T18:29:32Z</time>
  <course>82.87</course>
  <speed>0.01414213562373095</speed>
  <fix>3d</fix>
</trkpt>
<trkpt lat="40.0728152" lon="-105.2308666">
  <ele>1585.94</ele>
  <time>2026-08-27T18:29:32Z</time>
  <course>168.9</course>
  <speed>0.0</speed>
  <fix>3d</fix>
</trkpt>
<trkpt lat="40.0728153" lon="-105.2308665">
  <ele>1586.01</ele>
  <time>2026-08-27T18:29:32Z</time>
  <course>82.9</course>
  <speed>0.01414213562373095</speed>
  <fix>3d</fix>
</trkpt>
<trkpt lat="40.0728152" lon="-105.2308666">
  <ele>1585.94</ele>
  <time>2026-08-27T18:29:32Z</time>
  <course>168.9</course>
  <speed>0.0</speed>
  <fix>3d</fix>
</trkpt>
<trkpt lat="40.0728153" lon="-105.2308665">
  <ele>1586.01</ele>
  <time>2026-08-27T18:29:32Z</time>
  <course>82.93</course>
  <speed>0.01414213562373095</speed>
  <fix>3d</fix>
</trkpt>
<trkpt lat="40.0728152" lon="-105.2308666">
  <ele>1585.94</ele>
  <time>2026-08-27T18:29:32Z</time>
  <course>104.63</course>
  <speed>0.0</speed>
  <fix>3d</fix>
</trkpt>
<trkpt lat="40.0728153" lon="-105.2308665">
  <ele>1586.01</ele>
  <time>2026-08-27T18:29:32Z</time>
  <course>82.97</course>
  <speed>0.01414213562373095</speed>
  <fix>3d</fix>
</trkpt>
<trkpt lat="40.0728152" lon="-105.2308666">
  <ele>1585.94</ele>
  <time>2026-08-27T18:29:32Z</time>
  <course>153.31</course>
  <speed>0.0</speed>
  <fix>3d</fix>
</trkpt>
<trkpt lat="40.0728153" lon="-105.2308665">
  <ele>1586.01</ele>
  <time>2026-08-27T18:29:32Z</time>
  <course>83.0</course>
  <speed>0.01414213562373095</speed>
  <fix>3d</fix>
</trkpt>
<trkpt lat="40.0728152" lon="-105.2308666">
  <ele>1585.94</ele>
  <time>2026-08-27T18:29:32Z</time>
  <course>168.57</course>
  <speed>0.0</speed>
  <fix>3d</fix>
</trkpt>
<trkpt lat="40.0728153" lon="-105.2308665">
  <ele>1586.01</ele>
  <time>2026-08-27T18:29:32Z</time>
  <course>83.03</course>
  <speed>0.01414213562373095</speed>
  <fix>3d</fix>
</trkpt>
<trkpt lat="40.0728152" lon="-105.2308666">
  <ele>1585.94</ele>
  <time>2026-08-27T18:29:32Z</time>
  <course>164.69</course>
  <speed>0.0</speed>
  <fix>3d</fix>
</trkpt>
<trkpt lat="40.0728153" lon="-105.2308665">
  <ele>1586.01</ele>
  <time>2026-08-27T18:29:32Z</time>
  <course>83.06</course>
  <speed>0.01414213562373095</speed>
  <fix>3d</fix>
</trkpt>
<trkpt lat="40.0728152" lon="-105.2308666">
  <ele>1585.94</ele>
  <time>2026-08-27T18:29:32Z</time>
  <course>169.77</course>
  <speed>0.0</speed>
  <fix>3d</fix>
</trkpt>
<trkpt lat="40.0728153" lon="-105.2308665">
  <ele>1586.01</ele>
  <time>2026-08-27T18:29:32Z</time>
  <course>83.09</course>
  <speed>0.01414213562373095</speed>
  <fix>3d</fix>
</trkpt>
<trkpt lat="40.0728152" lon="-105.2308666">
  <ele>1585.94</ele>
  <time>2026-08-27T18:29:32Z</time>
  <course>169.36</course>
  <speed>0.0</speed>
  <fix>3d</fix>
</trkpt>
<trkpt lat="40.0728153" lon="-105.2308665">
  <ele>1586.01</ele>
  <time>2026-08-27T18:29:32Z</time>
  <course>83.12</course>
  <speed>0.01414213562373095</speed>
  <fix>3d</fix>
</trkpt>
<trkpt lat="40.0728152" lon="-105.2308666">
  <ele>1585.94</ele>
  <time>2026-08-27T18:29:32Z</time>
  <course>168.74</course>
  <speed>0.0</speed>
  <fix>3d</fix>
</trkpt>
<trkpt lat="40.0728153" lon="-105.2308665">
  <ele>1586.01</ele>
  <time>2026-08-27T18:29:32Z</time>
  <course>83.14</course>
  <speed>0.01414213562373095</speed>
  <fix>3d</fix>
</trkpt>
<trkpt lat="40.0728152" lon="-105.2308666">
  <ele>1585.94</ele>
  <time>2026-08-27T18:29:32Z</time>
  <course>168.86</course>
  <speed>0.0</speed>
  <fix>3d</fix>
</trkpt>
<trkpt lat="40.0728153" lon="-105.2308665">
  <ele>1586.01</ele>
  <time>2026-08-27T18:29:32Z</time>
  <course>83.17</course>
  <speed>0.01414213562373095</speed>
  <fix>3d</fix>
</trkpt>
<trkpt lat="40.0728152" lon="-105.2308666">
  <ele>1585.94</ele>
  <time>2026-08-27T18:29:32Z</time>
  <course>168.93</course>
  <speed>0.0</speed>
  <fix>3d</fix>
</trkpt>
<trkpt lat="40.0728153" lon="-105.2308665">
  <ele>1586.01</ele>
  <time>2026-08-27T18:29:32Z</time>
  <course>83.2</course>
  <speed>0.01414213562373095</speed>
  <fix>3d</fix>
</trkpt>
<trkpt lat="40.0728152" lon="-105.2308666">
  <ele>1585.94</ele>
  <time>2026-08-27T18:29:32Z</time>
  <course>168.91</course>
  <speed>0.0</speed>
  <fix>3d</fix>
</trkpt>
<trkpt lat="40.0728153" lon="-105.2308665">
  <ele>1586.01</ele>
  <time>2026-08-27T18:29:32Z</time>
  <course>83.22</course>
  <speed>0.01414213562373095</speed>
  <fix>3d</fix>
</trkpt>
<trkpt lat="40.0728152" lon="-105.2308666">
  <ele>1585.94</ele>
  <time>2026-08-27T18:29:32Z</time>
  <course>168.9</course>
  <speed>0.0</speed>
  <fix>3d</fix>
</trkpt>
<trkpt lat="40.0728153" lon="-105.2308665">
  <ele>1586.01</ele>
  <time>2026-08-27T18:29:32Z</time>
  <course>83.25</course>
  <speed>0.01414213562373095</speed>
  <fix>3d</fix>
</trkpt>
<trkpt lat="40.0728152" lon="-105.2308666">
  <ele>1585.94</ele>
  <time>2026-08-27T18:29:32Z</time>
  <course>168.9</course>
  <speed>0.0</speed>
  <fix>3d</fix>
</trkpt>
<trkpt lat="40.0728153" lon="-105.2308665">
  <ele>1586.01</ele>
  <time>2026-08-27T18:29:32Z</time>
  <course>83.27</course>
  <speed>0.01414213562373095</speed>
  <fix>3d</fix>
</trkpt>
<trkpt lat="40.0728152" lon="-105.2308666">
  <ele>1585.94</ele>
  <time>2026-08-27T18:29:32Z</time>
  <course>168.9</course>
  <speed>0.0</speed>
  <fix>3d</fix>
</trkpt>
<trkpt lat="40.0728153" lon="-105.2308665">
  <ele>1586.01</ele>
  <time>2026-08-27T18:29:32Z</time>
  <course>83.29</course>
  <speed>0.01414213562373095</speed>
  <fix>3d</fix>
</trkpt>
<trkpt lat="40.0728152" lon="-105.2308666">
  <ele>1585.94</ele>
  <time>2026-08-27T18:29:32Z</time>
  <course>168.86</course>
  <speed>0.0</speed>
  <fix>3d</fix>
</trkpt>
<trkpt lat="40.0728153" lon="-105.2308665">
  <ele>1586.01</ele>
  <time>2026-08-27T18:29:32Z</time>
  <course>83.31</course>
  <speed>0.01414213562373095</speed>
  <fix>3d</fix>
</trkpt>
<trkpt lat="40.0728152" lon="-105.2308666">
  <ele>1585.94</ele>
  <time>2026-08-27T18:29:32Z</time>
  <course>168.75</course>
  <speed>0.0</speed>
  <fix>3d</fix>
</trkpt>
<trkpt lat="40.0728153" lon="-105.2308665">
  <ele>1586.01</ele>
  <time>2026-08-27T18:29:32Z</time>
  <course>83.33</course>
  <speed>0.01414213562373095</speed>
  <fix>3d</fix>
</trkpt>
<trkpt lat="40.0728152" lon="-105.2308666">
  <ele>1585.94</ele>
  <time>2026-08-27T18:29:32Z</time>
  <course>168.64</course>
  <speed>0.0</speed>
  <fix>3d</fix>
</trkpt>
<trkpt lat="40.0728153" lon="-105.2308665">
  <ele>1586.01</ele>
  <time>2026-08-27T18:29:32Z</time>
  <course>83.34</course>
  <speed>0.01414213562373095</speed>
  <fix>3d</fix>
</trkpt>
<trkpt lat="40.0728152" lon="-105.2308666">
  <ele>1585.94</ele>
  <time>2026-08-27T18:29:32Z</time>
  <course>168.54</course>
  <speed>0.0</speed>
  <fix>3d</fix>
</trkpt>
<trkpt lat="40.0728153" lon="-105.2308665">
  <ele>1586.01</ele>
  <time>2026-08-27T18:29:32Z</time>
  <course>83.36</course>
  <speed>0.01414213562373095</speed>
  <fix>3d</fix>
</trkpt>
<trkpt lat="40.0728152" lon="-105.2308666">
  <ele>1585.94</ele>
  <time>2026-08-27T18:29:32Z</time>
  <course>168.44</course>
  <speed>0.0</speed>
  <fix>3d</fix>
</trkpt>
<trkpt lat="40.0728153" lon="-105.2308665">
  <ele>1586.01</ele>
  <time>2026-08-27T18:29:32Z</time>
  <course>83.37</course>
  <speed>0.01414213562373095</speed>
  <fix>3d</fix>
</trkpt>
<trkpt lat="40.0728152" lon="-105.2308666">
  <ele>1585.94</ele>
  <time>2026-08-27T18:29:32Z</time>
  <course>168.33</course>
  <speed>0.0</speed>
  <fix>3d</fix>
</trkpt>
<trkpt lat="40.0728153" lon="-105.2308665">
  <ele>1586.01</ele>
  <time>2026-08-27T18:29:32Z</time>
  <course>83.38</course>
  <speed>0.01414213562373095</speed>
  <fix>3d</fix>
</trkpt>
<trkpt lat="40.0728152" lon="-105.2308666">
  <ele>1585.94</ele>
  <time>2026-08-27T18:29:32Z</time>
  <course>173.57</course>
  <speed>0.0</speed>
  <fix>3d</fix>
</trkpt>
<trkpt lat="40.0728153" lon="-105.2308665">
  <ele>1586.01</ele>
  <time>2026-08-27T18:29:32Z</time>
  <course>83.38</course>
  <speed>0.01414213562373095</speed>
  <fix>3d</fix>
</trkpt>
<trkpt lat="40.0728152" lon="-105.2308666">
  <ele>1585.94</ele>
  <time>2026-08-27T18:29:32Z</time>
  <course>165.61</course>
  <speed>0.0</speed>
  <fix>3d</fix>
</trkpt>
<trkpt lat="40.0728153" lon="-105.2308665">
  <ele>1586.02</ele>
  <time>2026-08-27T18:29:32Z</time>
  <course>83.39</course>
  <speed>0.01414213562373095</speed>
  <fix>3d</fix>
</trkpt>
<trkpt lat="40.0728152" lon="-105.2308666">
  <ele>1585.94</ele>
  <time>2026-08-27T18:29:32Z</time>
  <course>63.27</course>
  <speed>0.0</speed>
  <fix>3d</fix>
</trkpt>
<trkpt lat="40.0728153" lon="-105.2308665">
  <ele>1586.01</ele>
  <time>2026-08-27T18:29:32Z</time>
  <course>83.39</course>
  <speed>0.01414213562373095</speed>
  <fix>3d</fix>
</trkpt>
<trkpt lat="40.0728152" lon="-105.2308666">
  <ele>1585.94</ele>
  <time>2026-08-27T18:29:32Z</time>
  <course>235.69</course>
  <speed>0.0</speed>
  <fix>3d</fix>
</trkpt>
<trkpt lat="40.0728153" lon="-105.2308665">
  <ele>1586.01</ele>
  <time>2026-08-27T18:29:32Z</time>
  <course>83.39</course>
  <speed>0.01414213562373095</speed>
  <fix>3d</fix>
</trkpt>
<trkpt lat="40.0728152" lon="-105.2308666">
  <ele>1585.94</ele>
  <time>2026-08-27T18:29:32Z</time>
  <course>174.19</course>
  <speed>0.0</speed>
  <fix>3d</fix>
</trkpt>
<trkpt lat="40.0728153" lon="-105.2308665">
  <ele>1586.01</ele>
  <time>2026-08-27T18:29:32Z</time>
  <course>83.39</course>
  <speed>0.01414213562373095</speed>
  <fix>3d</fix>
</trkpt>
<trkpt lat="40.0728152" lon="-105.2308666">
  <ele>1585.94</ele>
  <time>2026-08-27T18:29:32Z</time>
  <course>7.85</course>
  <speed>0.0</speed>
  <fix>3d</fix>
</trkpt>
<trkpt lat="40.0728153" lon="-105.2308665">
  <ele>1586.01</ele>
  <time>2026-08-27T18:29:32Z</time>
  <course>83.39</course>
  <speed>0.01414213562373095</speed>
  <fix>3d</fix>
</trkpt>
<trkpt lat="40.0728152" lon="-105.2308666">
  <ele>1585.94</ele>
  <time>2026-08-27T18:29:32Z</time>
  <course>354.49</course>
  <speed>0.0</speed>
  <fix>3d</fix>
</trkpt>
<trkpt lat="40.0728153" lon="-105.2308665">
  <ele>1586.02</ele>
  <time>2026-08-27T18:29:32Z</time>
  <course>83.38</course>
  <speed>0.01414213562373095</speed>
  <fix>3d</fix>
</trkpt>
<trkpt lat="40.0728152" lon="-105.2308666">
  <ele>1585.94</ele>
  <time>2026-08-27T18:29:32Z</time>
  <course>163.45</course>
  <speed>0.0</speed>
  <fix>3d</fix>
</trkpt>
<trkpt lat="40.0728153" lon="-105.2308665">
  <ele>1586.02</ele>
  <time>2026-08-27T18:29:32Z</time>
  <course>83.37</course>
  <speed>0.01414213562373095</speed>
  <fix>3d</fix>
</trkpt>
<trkpt lat="40.0728152" lon="-105.2308666">
  <ele>1585.94</ele>
  <time>2026-08-27T18:29:32Z</time>
  <course>169.44</course>
  <speed>0.0</speed>
  <fix>3d</fix>
</trkpt>
<trkpt lat="40.0728153" lon="-105.2308665">
  <ele>1586.02</ele>
  <time>2026-08-27T18:29:32Z</time>
  <course>83.36</course>
  <speed>0.01414213562373095</speed>
  <fix>3d</fix>
</trkpt>
<trkpt lat="40.0728152" lon="-105.2308666">
  <ele>1585.94</ele>
  <time>2026-08-27T18:29:32Z</time>
  <course>167.04</course>
  <speed>0.0</speed>
  <fix>3d</fix>
</trkpt>
<trkpt lat="40.0728153" lon="-105.2308665">
  <ele>1586.02</ele>
  <time>2026-08-27T18:29:32Z</time>
  <course>83.35</course>
  <speed>0.01414213562373095</speed>
  <fix>3d</fix>
</trkpt>
<trkpt lat="40.0728152" lon="-105.2308666">
  <ele>1585.94</ele>
  <time>2026-08-27T18:29:32Z</time>
  <course>166.57</course>
  <speed>0.0</speed>
  <fix>3d</fix>
</trkpt>
<trkpt lat="40.0728153" lon="-105.2308665">
  <ele>1586.02</ele>
  <time>2026-08-27T18:29:32Z</time>
  <course>83.34</course>
  <speed>0.01414213562373095</speed>
  <fix>3d</fix>
</trkpt>
<trkpt lat="40.0728152" lon="-105.2308666">
  <ele>1585.94</ele>
  <time>2026-08-27T18:29:32Z</time>
  <course>167.04</course>
  <speed>0.0</speed>
  <fix>3d</fix>
</trkpt>
<trkpt lat="40.0728153" lon="-105.2308665">
  <ele>1586.02</ele>
  <time>2026-08-27T18:29:32Z</time>
  <course>83.33</course>
  <speed>0.01414213562373095</speed>
  <fix>3d</fix>
</trkpt>
<trkpt lat="40.0728152" lon="-105.2308666">
  <ele>1585.94</ele>
  <time>2026-08-27T18:29:32Z</time>
  <course>166.89</course>
  <speed>0.0</speed>
  <fix>3d</fix>
</trkpt>
<trkpt lat="40.0728153" lon="-105.2308665">
  <ele>1586.01</ele>
  <time>2026-08-27T18:29:32Z</time>
  <course>83.31</course>
  <speed>0.01414213562373095</speed>
  <fix>3d</fix>
</trkpt>
<trkpt lat="40.0728152" lon="-105.2308666">
  <ele>1585.94</ele>
  <time>2026-08-27T18:29:32Z</time>
  <course>166.7</course>
  <speed>0.0</speed>
  <fix>3d</fix>
</trkpt>
<trkpt lat="40.0728153" lon="-105.2308665">
  <ele>1586.02</ele>
  <time>2026-08-27T18:29:32Z</time>
  <course>83.29</course>
  <speed>0.01414213562373095</speed>
  <fix>3d</fix>
</trkpt>
<trkpt lat="40.0728152" lon="-105.2308666">
  <ele>1585.94</ele>
  <time>2026-08-27T18:29:32Z</time>
  <course>166.58</course>
  <speed>0.0</speed>
  <fix>3d</fix>
</trkpt>
<trkpt lat="40.0728153" lon="-105.2308665">
  <ele>1586.02</ele>
  <time>2026-08-27T18:29:32Z</time>
  <course>83.27</course>
  <speed>0.01414213562373095</speed>
  <fix>3d</fix>
</trkpt>
<trkpt lat="40.0728152" lon="-105.2308666">
  <ele>1585.94</ele>
  <time>2026-08-27T18:29:32Z</time>
  <course>166.46</course>
  <speed>0.0</speed>
  <fix>3d</fix>
</trkpt>
<trkpt lat="40.0728153" lon="-105.2308665">
  <ele>1586.01</ele>
  <time>2026-08-27T18:29:32Z</time>
  <course>83.25</course>
  <speed>0.01414213562373095</speed>
  <fix>3d</fix>
</trkpt>
<trkpt lat="40.0728152" lon="-105.2308666">
  <ele>1585.94</ele>
  <time>2026-08-27T18:29:32Z</time>
  <course>166.33</course>
  <speed>0.0</speed>
  <fix>3d</fix>
</trkpt>
<trkpt lat="40.0728153" lon="-105.2308665">
  <ele>1586.01</ele>
  <time>2026-08-27T18:29:32Z</time>
  <course>83.22</course>
  <speed>0.022360679774997897</speed>
  <fix>3d</fix>
</trkpt>
<trkpt lat="40.0728152" lon="-105.2308666">
  <ele>1585.94</ele>
  <time>2026-08-27T18:29:32Z</time>
  <course>166.2</course>
  <speed>0.0</speed>
  <fix>3d</fix>
</trkpt>
<trkpt lat="40.0728153" lon="-105.2308665">
  <ele>1586.01</ele>
  <time>2026-08-27T18:29:32Z</time>
  <course>83.2</course>
  <speed>0.022360679774997897</speed>
  <fix>3d</fix>
</trkpt>
<trkpt lat="40.0728152" lon="-105.2308666">
  <ele>1585.94</ele>
  <time>2026-08-27T18:29:32Z</time>
  <course>166.07</course>
  <speed>0.0</speed>
  <fix>3d</fix>
</trkpt>
<trkpt lat="40.0728153" lon="-105.2308665">
  <ele>1586.01</ele>
  <time>2026-08-27T18:29:32Z</time>
  <course>83.17</course>
  <speed>0.022360679774997897</speed>
  <fix>3d</fix>
</trkpt>
<trkpt lat="40.0728152" lon="-105.2308666">
  <ele>1585.94</ele>
  <time>2026-08-27T18:29:32Z</time>
  <course>165.93</course>
  <speed>0.0</speed>
  <fix>3d</fix>
</trkpt>
<trkpt lat="40.0728153" lon="-105.2308665">
  <ele>1586.01</ele>
  <time>2026-08-27T18:29:33Z</time>
  <course>83.14</course>
  <speed>0.022360679774997897</speed>
  <fix>3d</fix>
</trkpt>
<trkpt lat="40.0728152" lon="-105.2308666">
  <ele>1585.94</ele>
  <time>2026-08-27T18:29:33Z</time>
  <course>165.8</course>
  <speed>0.0</speed>
  <fix>3d</fix>
</trkpt>
<trkpt lat="40.0728153" lon="-105.2308665">
  <ele>1586.01</ele>
  <time>2026-08-27T18:29:33Z</time>
  <course>83.11</course>
  <speed>0.022360679774997897</speed>
  <fix>3d</fix>
</trkpt>
<trkpt lat="40.0728152" lon="-105.2308666">
  <ele>1585.94</ele>
  <time>2026-08-27T18:29:33Z</time>
  <course>165.66</course>
  <speed>0.0</speed>
  <fix>3d</fix>
</trkpt>
<trkpt lat="40.0728153" lon="-105.2308665">
  <ele>1586.01</ele>
  <time>2026-08-27T18:29:33Z</time>
  <course>83.07</course>
  <speed>0.022360679774997897</speed>
  <fix>3d</fix>
</trkpt>
<trkpt lat="40.0728152" lon="-105.2308666">
  <ele>1585.94</ele>
  <time>2026-08-27T18:29:33Z</time>
  <course>165.52</course>
  <speed>0.0</speed>
  <fix>3d</fix>
</trkpt>
<trkpt lat="40.0728153" lon="-105.2308665">
  <ele>1586.01</ele>
  <time>2026-08-27T18:29:33Z</time>
  <course>83.04</course>
  <speed>0.022360679774997897</speed>
  <fix>3d</fix>
</trkpt>
<trkpt lat="40.0728152" lon="-105.2308666">
  <ele>1585.94</ele>
  <time>2026-08-27T18:29:33Z</time>
  <course>352.37</course>
  <speed>0.0</speed>
  <fix>3d</fix>
</trkpt>
<trkpt lat="40.0728153" lon="-105.2308665">
  <ele>1586.01</ele>
  <time>2026-08-27T18:29:33Z</time>
  <course>83.0</course>
  <speed>0.022360679774997897</speed>
  <fix>3d</fix>
</trkpt>
<trkpt lat="40.0728152" lon="-105.2308666">
  <ele>1585.94</ele>
  <time>2026-08-27T18:29:33Z</time>
  <course>352.3</course>
  <speed>0.0</speed>
  <fix>3d</fix>
</trkpt>
<trkpt lat="40.0728153" lon="-105.2308665">
  <ele>1586.01</ele>
  <time>2026-08-27T18:29:33Z</time>
  <course>82.96</course>
  <speed>0.022360679774997897</speed>
  <fix>3d</fix>
</trkpt>
<trkpt lat="40.0728152" lon="-105.2308666">
  <ele>1585.94</ele>
  <time>2026-08-27T18:29:33Z</time>
  <course>170.74</course>
  <speed>0.0</speed>
  <fix>3d</fix>
</trkpt>
<trkpt lat="40.0728153" lon="-105.2308665">
  <ele>1586.01</ele>
  <time>2026-08-27T18:29:33Z</time>
  <course>82.92</course>
  <speed>0.022360679774997897</speed>
  <fix>3d</fix>
</trkpt>
<trkpt lat="40.0728152" lon="-105.2308666">
  <ele>1585.94</ele>
  <time>2026-08-27T18:29:33Z</time>
  <course>164.67</course>
  <speed>0.0</speed>
  <fix>3d</fix>
</trkpt>
<trkpt lat="40.0728153" lon="-105.2308665">
  <ele>1586.01</ele>
  <time>2026-08-27T18:29:33Z</time>
  <course>82.88</course>
  <speed>0.022360679774997897</speed>
  <fix>3d</fix>
</trkpt>
<trkpt lat="40.0728152" lon="-105.2308666">
  <ele>1585.94</ele>
  <time>2026-08-27T18:29:33Z</time>
  <course>352.03</course>
  <speed>0.0</speed>
  <fix>3d</fix>
</trkpt>
<trkpt lat="40.0728153" lon="-105.2308665">
  <ele>1586.01</ele>
  <time>2026-08-27T18:29:33Z</time>
  <course>82.84</course>
  <speed>0.022360679774997897</speed>
  <fix>3d</fix>
</trkpt>
<trkpt lat="40.0728152" lon="-105.2308666">
  <ele>1585.94</ele>
  <time>2026-08-27T18:29:33Z</time>
  <course>351.95</course>
  <speed>0.0</speed>
  <fix>3d</fix>
</trkpt>
<trkpt lat="40.0728153" lon="-105.2308665">
  <ele>1586.01</ele>
  <time>2026-08-27T18:29:33Z</time>
  <course>82.8</course>
  <speed>0.022360679774997897</speed>
  <fix>3d</fix>
</trkpt>
<trkpt lat="40.0728152" lon="-105.2308666">
  <ele>1585.94</ele>
  <time>2026-08-27T18:29:33Z</time>
  <course>345.64</course>
  <speed>0.0</speed>
  <fix>3d</fix>
</trkpt>
<trkpt lat="40.0728153" lon="-105.2308665">
  <ele>1586.01</ele>
  <time>2026-08-27T18:29:33Z</time>
  <course>82.75</course>
  <speed>0.022360679774997897</speed>
  <fix>3d</fix>
</trkpt>
<trkpt lat="40.0728152" lon="-105.2308666">
  <ele>1585.94</ele>
  <time>2026-08-27T18:29:33Z</time>
  <course>351.72</course>
  <speed>0.0</speed>
  <fix>3d</fix>
</trkpt>
<trkpt lat="40.0728153" lon="-105.2308665">
  <ele>1586.01</ele>
  <time>2026-08-27T18:29:33Z</time>
  <course>82.71</course>
  <speed>0.022360679774997897</speed>
  <fix>3d</fix>
</trkpt>
<trkpt lat="40.0728152" lon="-105.2308666">
  <ele>1585.94</ele>
  <time>2026-08-27T18:29:33Z</time>
  <course>351.7</course>
  <speed>0.0</speed>
  <fix>3d</fix>
</trkpt>
<trkpt lat="40.0728153" lon="-105.2308665">
  <ele>1586.01</ele>
  <time>2026-08-27T18:29:33Z</time>
  <course>82.66</course>
  <speed>0.022360679774997897</speed>
  <fix>3d</fix>
</trkpt>
<trkpt lat="40.0728152" lon="-105.2308666">
  <ele>1585.94</ele>
  <time>2026-08-27T18:29:33Z</time>
  <course>351.34</course>
  <speed>0.0</speed>
  <fix>3d</fix>
</trkpt>
<trkpt lat="40.0728153" lon="-105.2308665">
  <ele>1586.01</ele>
  <time>2026-08-27T18:29:33Z</time>
  <course>82.61</course>
  <speed>0.022360679774997897</speed>
  <fix>3d</fix>
</trkpt>
<trkpt lat="40.0728152" lon="-105.2308666">
  <ele>1585.94</ele>
  <time>2026-08-27T18:29:33Z</time>
  <course>351.34</course>
  <speed>0.0</speed>
  <fix>3d</fix>
</trkpt>
<trkpt lat="40.0728153" lon="-105.2308665">
  <ele>1586.01</ele>
  <time>2026-08-27T18:29:33Z</time>
  <course>82.56</course>
  <speed>0.022360679774997897</speed>
  <fix>3d</fix>
</trkpt>
<trkpt lat="40.0728152" lon="-105.2308666">
  <ele>1585.94</ele>
  <time>2026-08-27T18:29:33Z</time>
  <course>351.43</course>
  <speed>0.0</speed>
  <fix>3d</fix>
</trkpt>
<trkpt lat="40.0728153" lon="-105.2308665">
  <ele>1586.01</ele>
  <time>2026-08-27T18:29:33Z</time>
  <course>82.51</course>
  <speed>0.022360679774997897</speed>
  <fix>3d</fix>
</trkpt>
<trkpt lat="40.0728152" lon="-105.2308666">
  <ele>1585.94</ele>
  <time>2026-08-27T18:29:33Z</time>
  <course>351.07</course>
  <speed>0.0</speed>
  <fix>3d</fix>
</trkpt>
<trkpt lat="40.0728153" lon="-105.2308665">
  <ele>1586.01</ele>
  <time>2026-08-27T18:29:33Z</time>
  <course>82.46</course>
  <speed>0.022360679774997897</speed>
  <fix>3d</fix>
</trkpt>
<trkpt lat="40.0728152" lon="-105.2308666">
  <ele>1585.94</ele>
  <time>2026-08-27T18:29:33Z</time>
  <course>176.39</course>
  <speed>0.0</speed>
  <fix>3d</fix>
</trkpt>
<trkpt lat="40.0728153" lon="-105.2308665">
  <ele>1586.01</ele>
  <time>2026-08-27T18:29:33Z</time>
  <course>82.42</course>
  <speed>0.022360679774997897</speed>
  <fix>3d</fix>
</trkpt>
<trkpt lat="40.0728152" lon="-105.2308666">
  <ele>1585.94</ele>
  <time>2026-08-27T18:29:33Z</time>
  <course>351.08</course>
  <speed>0.0</speed>
  <fix>3d</fix>
</trkpt>
<trkpt lat="40.0728153" lon="-105.2308665">
  <ele>1586.02</ele>
  <time>2026-08-27T18:29:33Z</time>
  <course>82.37</course>
  <speed>0.022360679774997897</speed>
  <fix>3d</fix>
</trkpt>
<trkpt lat="40.0728152" lon="-105.2308666">
  <ele>1585.94</ele>
  <time>2026-08-27T18:29:33Z</time>
  <course>351.04</course>
  <speed>0.0</speed>
  <fix>3d</fix>
</trkpt>
<trkpt lat="40.0728153" lon="-105.2308665">
  <ele>1586.02</ele>
  <time>2026-08-27T18:29:33Z</time>
  <course>82.32</course>
  <speed>0.022360679774997897</speed>
  <fix>3d</fix>
</trkpt>
<trkpt lat="40.0728152" lon="-105.2308666">
  <ele>1585.94</ele>
  <time>2026-08-27T18:29:33Z</time>
  <course>333.76</course>
  <speed>0.0</speed>
  <fix>3d</fix>
</trkpt>
<trkpt lat="40.0728153" lon="-105.2308665">
  <ele>1586.02</ele>
  <time>2026-08-27T18:29:33Z</time>
  <course>82.27</course>
  <speed>0.022360679774997897</speed>
  <fix>3d</fix>
</trkpt>
<trkpt lat="40.0728152" lon="-105.2308666">
  <ele>1585.94</ele>
  <time>2026-08-27T18:29:33Z</time>
  <course>350.81</course>
  <speed>0.0</speed>
  <fix>3d</fix>
</trkpt>
<trkpt lat="40.0728153" lon="-105.2308665">
  <ele>1586.02</ele>
  <time>2026-08-27T18:29:33Z</time>
  <course>82.22</course>
  <speed>0.022360679774997897</speed>
  <fix>3d</fix>
</trkpt>
<trkpt lat="40.0728152" lon="-105.2308666">
  <ele>1585.94</ele>
  <time>2026-08-27T18:29:33Z</time>
  <course>350.85</course>
  <speed>0.0</speed>
  <fix>3d</fix>
</trkpt>
<trkpt lat="40.0728153" lon="-105.2308665">
  <ele>1586.01</ele>
  <time>2026-08-27T18:29:33Z</time>
  <course>82.18</course>
  <speed>0.022360679774997897</speed>
  <fix>3d</fix>
</trkpt>
<trkpt lat="40.0728152" lon="-105.2308666">
  <ele>1585.94</ele>
  <time>2026-08-27T18:29:33Z</time>
  <course>347.58</course>
  <speed>0.0</speed>
  <fix>3d</fix>
</trkpt>
<trkpt lat="40.0728153" lon="-105.2308665">
  <ele>1586.02</ele>
  <time>2026-08-27T18:29:33Z</time>
  <course>82.13</course>
  <speed>0.022360679774997897</speed>
  <fix>3d</fix>
</trkpt>
<trkpt lat="40.0728152" lon="-105.2308666">
  <ele>1585.94</ele>
  <time>2026-08-27T18:29:33Z</time>
  <course>350.52</course>
  <speed>0.0</speed>
  <fix>3d</fix>
</trkpt>
<trkpt lat="40.0728153" lon="-105.2308665">
  <ele>1586.02</ele>
  <time>2026-08-27T18:29:33Z</time>
  <course>82.08</course>
  <speed>0.022360679774997897</speed>
  <fix>3d</fix>
</trkpt>
<trkpt lat="40.0728152" lon="-105.2308666">
  <ele>1585.94</ele>
  <time>2026-08-27T18:29:33Z</time>
  <course>350.59</course>
  <speed>0.0</speed>
  <fix>3d</fix>
</trkpt>
<trkpt lat="40.0728153" lon="-105.2308665">
  <ele>1586.02</ele>
  <time>2026-08-27T18:29:33Z</time>
  <course>82.03</course>
  <speed>0.022360679774997897</speed>
  <fix>3d</fix>
</trkpt>
<trkpt lat="40.0728152" lon="-105.2308666">
  <ele>1585.94</ele>
  <time>2026-08-27T18:29:33Z</time>
  <course>346.9</course>
  <speed>0.0</speed>
  <fix>3d</fix>
</trkpt>
<trkpt lat="40.0728153" lon="-105.2308665">
  <ele>1586.02</ele>
  <time>2026-08-27T18:29:33Z</time>
  <course>81.99</course>
  <speed>0.022360679774997897</speed>
  <fix>3d</fix>
</trkpt>
<trkpt lat="40.0728152" lon="-105.2308666">
  <ele>1585.94</ele>
  <time>2026-08-27T18:29:33Z</time>
  <course>350.3</course>
  <speed>0.0</speed>
  <fix>3d</fix>
</trkpt>
<trkpt lat="40.0728153" lon="-105.2308665">
  <ele>1586.02</ele>
  <time>2026-08-27T18:29:33Z</time>
  <course>81.94</course>
  <speed>0.022360679774997897</speed>
  <fix>3d</fix>
</trkpt>
<trkpt lat="40.0728152" lon="-105.2308666">
  <ele>1585.94</ele>
  <time>2026-08-27T18:29:33Z</time>
  <course>350.43</course>
  <speed>0.0</speed>
  <fix>3d</fix>
</trkpt>
<trkpt lat="40.0728153" lon="-105.2308665">
  <ele>1586.02</ele>
  <time>2026-08-27T18:29:33Z</time>
  <course>81.9</course>
  <speed>0.022360679774997897</speed>
  <fix>3d</fix>
</trkpt>
<trkpt lat="40.0728152" lon="-105.2308666">
  <ele>1585.94</ele>
  <time>2026-08-27T18:29:33Z</time>
  <course>348.68</course>
  <speed>0.0</speed>
  <fix>3d</fix>
</trkpt>
<trkpt lat="40.0728153" lon="-105.2308665">
  <ele>1586.02</ele>
  <time>2026-08-27T18:29:33Z</time>
  <course>81.85</course>
  <speed>0.022360679774997897</speed>
  <fix>3d</fix>
</trkpt>
<trkpt lat="40.0728152" lon="-105.2308666">
  <ele>1585.94</ele>
  <time>2026-08-27T18:29:33Z</time>
  <course>339.3</course>
  <speed>0.0</speed>
  <fix>3d</fix>
</trkpt>
<trkpt lat="40.0728153" lon="-105.2308665">
  <ele>1586.02</ele>
  <time>2026-08-27T18:29:33Z</time>
  <course>81.81</course>
  <speed>0.022360679774997897</speed>
  <fix>3d</fix>
</trkpt>
<trkpt lat="40.0728152" lon="-105.2308666">
  <ele>1585.94</ele>
  <time>2026-08-27T18:29:33Z</time>
  <course>350.03</course>
  <speed>0.0</speed>
  <fix>3d</fix>
</trkpt>
<trkpt lat="40.0728153" lon="-105.2308665">
  <ele>1586.02</ele>
  <time>2026-08-27T18:29:33Z</time>
  <course>81.76</course>
  <speed>0.022360679774997897</speed>
  <fix>3d</fix>
</trkpt>
<trkpt lat="40.0728152" lon="-105.2308666">
  <ele>1585.94</ele>
  <time>2026-08-27T18:29:33Z</time>
  <course>349.95</course>
  <speed>0.0</speed>
  <fix>3d</fix>
</trkpt>
<trkpt lat="40.0728153" lon="-105.2308665">
  <ele>1586.02</ele>
  <time>2026-08-27T18:29:33Z</time>
  <course>81.72</course>
  <speed>0.022360679774997897</speed>
  <fix>3d</fix>
</trkpt>
<trkpt lat="40.0728152" lon="-105.2308666">
  <ele>1585.94</ele>
  <time>2026-08-27T18:29:33Z</time>
  <course>341.88</course>
  <speed>0.0</speed>
  <fix>3d</fix>
</trkpt>
<trkpt lat="40.0728153" lon="-105.2308665">
  <ele>1586.02</ele>
  <time>2026-08-27T18:29:33Z</time>
  <course>81.68</course>
  <speed>0.022360679774997897</speed>
  <fix>3d</fix>
</trkpt>
<trkpt lat="40.0728152" lon="-105.2308666">
  <ele>1585.94</ele>
  <time>2026-08-27T18:29:33Z</time>
  <course>349.84</course>
  <speed>0.0</speed>
  <fix>3d</fix>
</trkpt>
<trkpt lat="40.0728153" lon="-105.2308665">
  <ele>1586.02</ele>
  <time>2026-08-27T18:29:33Z</time>
  <course>81.63</course>
  <speed>0.022360679774997897</speed>
  <fix>3d</fix>
</trkpt>
<trkpt lat="40.0728152" lon="-105.2308666">
  <ele>1585.94</ele>
  <time>2026-08-27T18:29:33Z</time>
  <course>349.96</course>
  <speed>0.0</speed>
  <fix>3d</fix>
</trkpt>
<trkpt lat="40.0728153" lon="-105.2308665">
  <ele>1586.03</ele>
  <time>2026-08-27T18:29:33Z</time>
  <course>81.59</course>
  <speed>0.022360679774997897</speed>
  <fix>3d</fix>
</trkpt>
<trkpt lat="40.0728152" lon="-105.2308666">
  <ele>1585.94</ele>
  <time>2026-08-27T18:29:33Z</time>
  <course>348.17</course>
  <speed>0.0</speed>
  <fix>3d</fix>
</trkpt>
<trkpt lat="40.0728153" lon="-105.2308665">
  <ele>1586.03</ele>
  <time>2026-08-27T18:29:33Z</time>
  <course>81.54</course>
  <speed>0.022360679774997897</speed>
  <fix>3d</fix>
</trkpt>
<trkpt lat="40.0728152" lon="-105.2308666">
  <ele>1585.94</ele>
  <time>2026-08-27T18:29:33Z</time>
  <course>348.59</course>
  <speed>0.0</speed>
  <fix>3d</fix>
</trkpt>
<trkpt lat="40.0728153" lon="-105.2308665">
  <ele>1586.03</ele>
  <time>2026-08-27T18:29:33Z</time>
  <course>81.5</course>
  <speed>0.022360679774997897</speed>
  <fix>3d</fix>
</trkpt>
<trkpt lat="40.0728152" lon="-105.2308666">
  <ele>1585.94</ele>
  <time>2026-08-27T18:29:33Z</time>
  <course>349.67</course>
  <speed>0.0</speed>
  <fix>3d</fix>
</trkpt>
<trkpt lat="40.0728153" lon="-105.2308665">
  <ele>1586.02</ele>
  <time>2026-08-27T18:29:33Z</time>
  <course>81.46</course>
  <speed>0.022360679774997897</speed>
  <fix>3d</fix>
</trkpt>
<trkpt lat="40.0728152" lon="-105.2308666">
  <ele>1585.94</ele>
  <time>2026-08-27T18:29:33Z</time>
  <course>349.26</course>
  <speed>0.0</speed>
  <fix>3d</fix>
</trkpt>
<trkpt lat="40.0728153" lon="-105.2308665">
  <ele>1586.02</ele>
  <time>2026-08-27T18:29:33Z</time>
  <course>81.41</course>
  <speed>0.022360679774997897</speed>
  <fix>3d</fix>
</trkpt>
<trkpt lat="40.0728152" lon="-105.2308666">
  <ele>1585.94</ele>
  <time>2026-08-27T18:29:33Z</time>
  <course>342.42</course>
  <speed>0.0</speed>
  <fix>3d</fix>
</trkpt>
<trkpt lat="40.0728153" lon="-105.2308665">
  <ele>1586.02</ele>
  <time>2026-08-27T18:29:33Z</time>
  <course>81.37</course>
  <speed>0.022360679774997897</speed>
  <fix>3d</fix>
</trkpt>
<trkpt lat="40.0728152" lon="-105.2308666">
  <ele>1585.94</ele>
  <time>2026-08-27T18:29:33Z</time>
  <course>349.42</course>
  <speed>0.0</speed>
  <fix>3d</fix>
</trkpt>
<trkpt lat="40.0728153" lon="-105.2308665">
  <ele>1586.02</ele>
  <time>2026-08-27T18:29:33Z</time>
  <course>81.33</course>
  <speed>0.022360679774997897</speed>
  <fix>3d</fix>
</trkpt>
<trkpt lat="40.0728152" lon="-105.2308666">
  <ele>1585.94</ele>
  <time>2026-08-27T18:29:33Z</time>
  <course>349.5</course>
  <speed>0.0</speed>
  <fix>3d</fix>
</trkpt>
<trkpt lat="40.0728153" lon="-105.2308665">
  <ele>1586.02</ele>
  <time>2026-08-27T18:29:33Z</time>
  <course>81.29</course>
  <speed>0.022360679774997897</speed>
  <fix>3d</fix>
</trkpt>
<trkpt lat="40.0728152" lon="-105.2308666">
  <ele>1585.94</ele>
  <time>2026-08-27T18:29:33Z</time>
  <course>347.04</course>
  <speed>0.0</speed>
  <fix>3d</fix>
</trkpt>
<trkpt lat="40.0728153" lon="-105.2308665">
  <ele>1586.03</ele>
  <time>2026-08-27T18:29:33Z</time>
  <course>81.25</course>
  <speed>0.022360679774997897</speed>
  <fix>3d</fix>
</trkpt>
<trkpt lat="40.0728152" lon="-105.2308666">
  <ele>1585.94</ele>
  <time>2026-08-27T18:29:33Z</time>
  <course>345.19</course>
  <speed>0.0</speed>
  <fix>3d</fix>
</trkpt>
<trkpt lat="40.0728153" lon="-105.2308665">
  <ele>1586.03</ele>
  <time>2026-08-27T18:29:33Z</time>
  <course>81.2</course>
  <speed>0.022360679774997897</speed>
  <fix>3d</fix>
</trkpt>
<trkpt lat="40.0728152" lon="-105.2308666">
  <ele>1585.94</ele>
  <time>2026-08-27T18:29:33Z</time>
  <course>349.24</course>
  <speed>0.0</speed>
  <fix>3d</fix>
</trkpt>
<trkpt lat="40.0728153" lon="-105.2308665">
  <ele>1586.03</ele>
  <time>2026-08-27T18:29:33Z</time>
  <course>81.16</course>
  <speed>0.022360679774997897</speed>
  <fix>3d</fix>
</trkpt>
<trkpt lat="40.0728152" lon="-105.2308666">
  <ele>1585.94</ele>
  <time>2026-08-27T18:29:33Z</time>
  <course>349.23</course>
  <speed>0.0</speed>
  <fix>3d</fix>
</trkpt>
<trkpt lat="40.0728153" lon="-105.2308665">
  <ele>1586.03</ele>
  <time>2026-08-27T18:29:33Z</time>
  <course>81.12</course>
  <speed>0.022360679774997897</speed>
  <fix>3d</fix>
</trkpt>
<trkpt lat="40.0728152" lon="-105.2308666">
  <ele>1585.94</ele>
  <time>2026-08-27T18:29:33Z</time>
  <course>346.45</course>
  <speed>0.0</speed>
  <fix>3d</fix>
</trkpt>
<trkpt lat="40.0728153" lon="-105.2308665">
  <ele>1586.03</ele>
  <time>2026-08-27T18:29:33Z</time>
  <course>81.08</course>
  <speed>0.022360679774997897</speed>
  <fix>3d</fix>
</trkpt>
<trkpt lat="40.0728152" lon="-105.2308666">
  <ele>1585.94</ele>
  <time>2026-08-27T18:29:33Z</time>
  <course>346.45</course>
  <speed>0.0</speed>
  <fix>3d</fix>
</trkpt>
<trkpt lat="40.0728153" lon="-105.2308665">
  <ele>1586.02</ele>
  <time>2026-08-27T18:29:33Z</time>
  <course>81.04</course>
  <speed>0.022360679774997897</speed>
  <fix>3d</fix>
</trkpt>
<trkpt lat="40.0728152" lon="-105.2308666">
  <ele>1585.94</ele>
  <time>2026-08-27T18:29:33Z</time>
  <course>348.92</course>
  <speed>0.0</speed>
  <fix>3d</fix>
</trkpt>
<trkpt lat="40.0728153" lon="-105.2308665">
  <ele>1586.03</ele>
  <time>2026-08-27T18:29:33Z</time>
  <course>81.0</course>
  <speed>0.022360679774997897</speed>
  <fix>3d</fix>
</trkpt>
<trkpt lat="40.0728152" lon="-105.2308666">
  <ele>1585.94</ele>
  <time>2026-08-27T18:29:33Z</time>
  <course>348.74</course>
  <speed>0.0</speed>
  <fix>3d</fix>
</trkpt>
<trkpt lat="40.0728153" lon="-105.2308665">
  <ele>1586.03</ele>
  <time>2026-08-27T18:29:33Z</time>
  <course>80.96</course>
  <speed>0.022360679774997897</speed>
  <fix>3d</fix>
</trkpt>
<trkpt lat="40.0728152" lon="-105.2308666">
  <ele>1585.94</ele>
  <time>2026-08-27T18:29:33Z</time>
  <course>344.59</course>
  <speed>0.0</speed>
  <fix>3d</fix>
</trkpt>
<trkpt lat="40.0728153" lon="-105.2308665">
  <ele>1586.02</ele>
  <time>2026-08-27T18:29:33Z</time>
  <course>80.92</course>
  <speed>0.022360679774997897</speed>
  <fix>3d</fix>
</trkpt>
<trkpt lat="40.0728152" lon="-105.2308666">
  <ele>1585.94</ele>
  <time>2026-08-27T18:29:33Z</time>
  <course>348.65</course>
  <speed>0.0</speed>
  <fix>3d</fix>
</trkpt>
<trkpt lat="40.0728153" lon="-105.2308665">
  <ele>1586.02</ele>
  <time>2026-08-27T18:29:33Z</time>
  <course>80.88</course>
  <speed>0.022360679774997897</speed>
  <fix>3d</fix>
</trkpt>
<trkpt lat="40.0728152" lon="-105.2308666">
  <ele>1585.94</ele>
  <time>2026-08-27T18:29:33Z</time>
  <course>348.93</course>
  <speed>0.0</speed>
  <fix>3d</fix>
</trkpt>
<trkpt lat="40.0728153" lon="-105.2308665">
  <ele>1586.02</ele>
  <time>2026-08-27T18:29:33Z</time>
  <course>80.84</course>
  <speed>0.022360679774997897</speed>
  <fix>3d</fix>
</trkpt>
<trkpt lat="40.0728152" lon="-105.2308666">
  <ele>1585.94</ele>
  <time>2026-08-27T18:29:33Z</time>
  <course>347.92</course>
  <speed>0.0</speed>
  <fix>3d</fix>
</trkpt>
<trkpt lat="40.0728153" lon="-105.2308665">
  <ele>1586.02</ele>
  <time>2026-08-27T18:29:33Z</time>
  <course>80.8</course>
  <speed>0.022360679774997897</speed>
  <fix>3d</fix>
</trkpt>
<trkpt lat="40.0728152" lon="-105.2308666">
  <ele>1585.94</ele>
  <time>2026-08-27T18:29:33Z</time>
  <course>344.65</course>
  <speed>0.0</speed>
  <fix>3d</fix>
</trkpt>
<trkpt lat="40.0728153" lon="-105.2308665">
  <ele>1586.02</ele>
  <time>2026-08-27T18:29:33Z</time>
  <course>80.76</course>
  <speed>0.022360679774997897</speed>
  <fix>3d</fix>
</trkpt>
<trkpt lat="40.0728152" lon="-105.2308666">
  <ele>1585.94</ele>
  <time>2026-08-27T18:29:33Z</time>
  <course>348.6</course>
  <speed>0.0</speed>
  <fix>3d</fix>
</trkpt>
<trkpt lat="40.0728153" lon="-105.2308665">
  <ele>1586.03</ele>
  <time>2026-08-27T18:29:33Z</time>
  <course>80.73</course>
  <speed>0.022360679774997897</speed>
  <fix>3d</fix>
</trkpt>
<trkpt lat="40.0728152" lon="-105.2308666">
  <ele>1585.94</ele>
  <time>2026-08-27T18:29:33Z</time>
  <course>348.73</course>
  <speed>0.0</speed>
  <fix>3d</fix>
</trkpt>
<trkpt lat="40.0728153" lon="-105.2308665">
  <ele>1586.03</ele>
  <time>2026-08-27T18:29:33Z</time>
  <course>80.69</course>
  <speed>0.022360679774997897</speed>
  <fix>3d</fix>
</trkpt>
<trkpt lat="40.0728152" lon="-105.2308666">
  <ele>1585.94</ele>
  <time>2026-08-27T18:29:33Z</time>
  <course>347.35</course>
  <speed>0.0</speed>
  <fix>3d</fix>
</trkpt>
<trkpt lat="40.0728153" lon="-105.2308665">
  <ele>1586.02</ele>
  <time>2026-08-27T18:29:33Z</time>
  <course>80.65</course>
  <speed>0.022360679774997897</speed>
  <fix>3d</fix>
</trkpt>
<trkpt lat="40.0728152" lon="-105.2308666">
  <ele>1585.94</ele>
  <time>2026-08-27T18:29:33Z</time>
  <course>345.16</course>
  <speed>0.0</speed>
  <fix>3d</fix>
</trkpt>
<trkpt lat="40.0728153" lon="-105.2308665">
  <ele>1586.02</ele>
  <time>2026-08-27T18:29:33Z</time>
  <course>80.61</course>
  <speed>0.022360679774997897</speed>
  <fix>3d</fix>
</trkpt>
<trkpt lat="40.0728152" lon="-105.2308666">
  <ele>1585.94</ele>
  <time>2026-08-27T18:29:33Z</time>
  <course>347.82</course>
  <speed>0.0</speed>
  <fix>3d</fix>
</trkpt>
<trkpt lat="40.0728153" lon="-105.2308665">
  <ele>1586.02</ele>
  <time>2026-08-27T18:29:33Z</time>
  <course>80.58</course>
  <speed>0.022360679774997897</speed>
  <fix>3d</fix>
</trkpt>
<trkpt lat="40.0728152" lon="-105.2308666">
  <ele>1585.94</ele>
  <time>2026-08-27T18:29:33Z</time>
  <course>348.43</course>
  <speed>0.0</speed>
  <fix>3d</fix>
</trkpt>
<trkpt lat="40.0728153" lon="-105.2308665">
  <ele>1586.03</ele>
  <time>2026-08-27T18:29:33Z</time>
  <course>80.54</course>
  <speed>0.01414213562373095</speed>
  <fix>3d</fix>
</trkpt>
<trkpt lat="40.0728152" lon="-105.2308666">
  <ele>1585.94</ele>
  <time>2026-08-27T18:29:33Z</time>
  <course>348.01</course>
  <speed>0.0</speed>
  <fix>3d</fix>
</trkpt>
<trkpt lat="40.0728153" lon="-105.2308665">
  <ele>1586.02</ele>
  <time>2026-08-27T18:29:33Z</time>
  <course>80.5</course>
  <speed>0.01414213562373095</speed>
  <fix>3d</fix>
</trkpt>
<trkpt lat="40.0728152" lon="-105.2308666">
  <ele>1585.94</ele>
  <time>2026-08-27T18:29:33Z</time>
  <course>345.01</course>
  <speed>0.0</speed>
  <fix>3d</fix>
</trkpt>
<trkpt lat="40.0728153" lon="-105.2308665">
  <ele>1586.02</ele>
  <time>2026-08-27T18:29:33Z</time>
  <course>80.47</course>
  <speed>0.022360679774997897</speed>
  <fix>3d</fix>
</trkpt>
<trkpt lat="40.0728152" lon="-105.2308666">
  <ele>1585.94</ele>
  <time>2026-08-27T18:29:33Z</time>
  <course>346.38</course>
  <speed>0.0</speed>
  <fix>3d</fix>
</trkpt>
<trkpt lat="40.0728153" lon="-105.2308665">
  <ele>1586.02</ele>
  <time>2026-08-27T18:29:33Z</time>
  <course>80.43</course>
  <speed>0.022360679774997897</speed>
  <fix>3d</fix>
</trkpt>
<trkpt lat="40.0728152" lon="-105.2308666">
  <ele>1585.94</ele>
  <time>2026-08-27T18:29:33Z</time>
  <course>348.11</course>
  <speed>0.0</speed>
  <fix>3d</fix>
</trkpt>
<trkpt lat="40.0728153" lon="-105.2308665">
  <ele>1586.02</ele>
  <time>2026-08-27T18:29:33Z</time>
  <course>80.4</course>
  <speed>0.01414213562373095</speed>
  <fix>3d</fix>
</trkpt>
<trkpt lat="40.0728152" lon="-105.2308666">
  <ele>1585.94</ele>
  <time>2026-08-27T18:29:33Z</time>
  <course>347.99</course>
  <speed>0.0</speed>
  <fix>3d</fix>
</trkpt>
<trkpt lat="40.0728153" lon="-105.2308665">
  <ele>1586.02</ele>
  <time>2026-08-27T18:29:33Z</time>
  <course>80.36</course>
  <speed>0.022360679774997897</speed>
  <fix>3d</fix>
</trkpt>
<trkpt lat="40.0728152" lon="-105.2308666">
  <ele>1585.94</ele>
  <time>2026-08-27T18:29:33Z</time>
  <course>345.23</course>
  <speed>0.0</speed>
  <fix>3d</fix>
</trkpt>
<trkpt lat="40.0728153" lon="-105.2308665">
  <ele>1586.02</ele>
  <time>2026-08-27T18:29:33Z</time>
  <course>80.32</course>
  <speed>0.022360679774997897</speed>
  <fix>3d</fix>
</trkpt>
<trkpt lat="40.0728152" lon="-105.2308666">
  <ele>1585.94</ele>
  <time>2026-08-27T18:29:33Z</time>
  <course>346.1</course>
  <speed>0.0</speed>
  <fix>3d</fix>
</trkpt>
<trkpt lat="40.0728153" lon="-105.2308665">
  <ele>1586.02</ele>
  <time>2026-08-27T18:29:33Z</time>
  <course>80.29</course>
  <speed>0.022360679774997897</speed>
  <fix>3d</fix>
</trkpt>
<trkpt lat="40.0728152" lon="-105.2308666">
  <ele>1585.94</ele>
  <time>2026-08-27T18:29:33Z</time>
  <course>347.98</course>
  <speed>0.0</speed>
  <fix>3d</fix>
</trkpt>
<trkpt lat="40.0728153" lon="-105.2308665">
  <ele>1586.02</ele>
  <time>2026-08-27T18:29:33Z</time>
  <course>80.25</course>
  <speed>0.01414213562373095</speed>
  <fix>3d</fix>
</trkpt>
<trkpt lat="40.0728152" lon="-105.2308666">
  <ele>1585.94</ele>
  <time>2026-08-27T18:29:33Z</time>
  <course>347.91</course>
  <speed>0.0</speed>
  <fix>3d</fix>
</trkpt>
<trkpt lat="40.0728153" lon="-105.2308665">
  <ele>1586.02</ele>
  <time>2026-08-27T18:29:33Z</time>
  <course>80.22</course>
  <speed>0.01414213562373095</speed>
  <fix>3d</fix>
</trkpt>
<trkpt lat="40.0728152" lon="-105.2308666">
  <ele>1585.94</ele>
  <time>2026-08-27T18:29:33Z</time>
  <course>345.53</course>
  <speed>0.0</speed>
  <fix>3d</fix>
</trkpt>
<trkpt lat="40.0728153" lon="-105.2308665">
  <ele>1586.02</ele>
  <time>2026-08-27T18:29:33Z</time>
  <course>80.18</course>
  <speed>0.01414213562373095</speed>
  <fix>3d</fix>
</trkpt>
<trkpt lat="40.0728152" lon="-105.2308666">
  <ele>1585.94</ele>
  <time>2026-08-27T18:29:33Z</time>
  <course>345.95</course>
  <speed>0.0</speed>
  <fix>3d</fix>
</trkpt>
<trkpt lat="40.0728153" lon="-105.2308665">
  <ele>1586.02</ele>
  <time>2026-08-27T18:29:33Z</time>
  <course>80.15</course>
  <speed>0.022360679774997897</speed>
  <fix>3d</fix>
</trkpt>
<trkpt lat="40.0728152" lon="-105.2308666">
  <ele>1585.94</ele>
  <time>2026-08-27T18:29:33Z</time>
  <course>347.87</course>
  <speed>0.0</speed>
  <fix>3d</fix>
</trkpt>
<trkpt lat="40.0728153" lon="-105.2308665">
  <ele>1586.02</ele>
  <time>2026-08-27T18:29:33Z</time>
  <course>80.12</course>
  <speed>0.01414213562373095</speed>
  <fix>3d</fix>
</trkpt>
<trkpt lat="40.0728152" lon="-105.2308666">
  <ele>1585.94</ele>
  <time>2026-08-27T18:29:33Z</time>
  <course>347.94</course>
  <speed>0.0</speed>
  <fix>3d</fix>
</trkpt>
<trkpt lat="40.0728153" lon="-105.2308665">
  <ele>1586.02</ele>
  <time>2026-08-27T18:29:33Z</time>
  <course>80.08</course>
  <speed>0.01414213562373095</speed>
  <fix>3d</fix>
</trkpt>
<trkpt lat="40.0728152" lon="-105.2308666">
  <ele>1585.94</ele>
  <time>2026-08-27T18:29:33Z</time>
  <course>346.58</course>
  <speed>0.0</speed>
  <fix>3d</fix>
</trkpt>
<trkpt lat="40.0728153" lon="-105.2308665">
  <ele>1586.03</ele>
  <time>2026-08-27T18:29:33Z</time>
  <course>80.05</course>
  <speed>0.01414213562373095</speed>
  <fix>3d</fix>
</trkpt>
<trkpt lat="40.0728152" lon="-105.2308666">
  <ele>1585.94</ele>
  <time>2026-08-27T18:29:33Z</time>
  <course>345.44</course>
  <speed>0.0</speed>
  <fix>3d</fix>
</trkpt>
<trkpt lat="40.0728153" lon="-105.2308665">
  <ele>1586.03</ele>
  <time>2026-08-27T18:29:33Z</time>
  <course>80.02</course>
  <speed>0.01414213562373095</speed>
  <fix>3d</fix>
</trkpt>
<trkpt lat="40.0728152" lon="-105.2308666">
  <ele>1585.94</ele>
  <time>2026-08-27T18:29:33Z</time>
  <course>346.37</course>
  <speed>0.0</speed>
  <fix>3d</fix>
</trkpt>
<trkpt lat="40.0728153" lon="-105.2308665">
  <ele>1586.02</ele>
  <time>2026-08-27T18:29:33Z</time>
  <course>79.98</course>
  <speed>0.022360679774997897</speed>
  <fix>3d</fix>
</trkpt>
<trkpt lat="40.0728152" lon="-105.2308666">
  <ele>1585.94</ele>
  <time>2026-08-27T18:29:33Z</time>
  <course>347.68</course>
  <speed>0.0</speed>
  <fix>3d</fix>
</trkpt>
<trkpt lat="40.0728153" lon="-105.2308665">
  <ele>1586.02</ele>
  <time>2026-08-27T18:29:33Z</time>
  <course>79.95</course>
  <speed>0.01414213562373095</speed>
  <fix>3d</fix>
</trkpt>
<trkpt lat="40.0728152" lon="-105.2308666">
  <ele>1585.94</ele>
  <time>2026-08-27T18:29:33Z</time>
  <course>349.16</course>
  <speed>0.0</speed>
  <fix>3d</fix>
</trkpt>
<trkpt lat="40.0728153" lon="-105.2308665">
  <ele>1586.02</ele>
  <time>2026-08-27T18:29:33Z</time>
  <course>79.92</course>
  <speed>0.022360679774997897</speed>
  <fix>3d</fix>
</trkpt>
<trkpt lat="40.0728152" lon="-105.2308666">
  <ele>1585.94</ele>
  <time>2026-08-27T18:29:33Z</time>
  <course>348.97</course>
  <speed>0.0</speed>
  <fix>3d</fix>
</trkpt>
<trkpt lat="40.0728153" lon="-105.2308665">
  <ele>1586.02</ele>
  <time>2026-08-27T18:29:33Z</time>
  <course>79.9</course>
  <speed>0.022360679774997897</speed>
  <fix>3d</fix>
</trkpt>
<trkpt lat="40.0728152" lon="-105.2308666">
  <ele>1585.94</ele>
  <time>2026-08-27T18:29:33Z</time>
  <course>347.79</course>
  <speed>0.0</speed>
  <fix>3d</fix>
</trkpt>
<trkpt lat="40.0728153" lon="-105.2308665">
  <ele>1586.02</ele>
  <time>2026-08-27T18:29:33Z</time>
  <course>79.88</course>
  <speed>0.022360679774997897</speed>
  <fix>3d</fix>
</trkpt>
<trkpt lat="40.0728152" lon="-105.2308666">
  <ele>1585.94</ele>
  <time>2026-08-27T18:29:33Z</time>
  <course>348.33</course>
  <speed>0.0</speed>
  <fix>3d</fix>
</trkpt>
<trkpt lat="40.0728153" lon="-105.2308665">
  <ele>1586.02</ele>
  <time>2026-08-27T18:29:33Z</time>
  <course>79.87</course>
  <speed>0.022360679774997897</speed>
  <fix>3d</fix>
</trkpt>
<trkpt lat="40.0728153" lon="-105.2308665">
  <ele>1586.02</ele>
  <time>2026-08-27T18:29:33Z</time>
  <course>79.84</course>
  <speed>0.022360679774997897</speed>
  <fix>3d</fix>
</trkpt>
<trkpt lat="40.0728152" lon="-105.2308666">
  <ele>1585.94</ele>
  <time>2026-08-27T18:29:33Z</time>
  <course>348.34</course>
  <speed>0.0</speed>
  <fix>3d</fix>
</trkpt>
<trkpt lat="40.0728153" lon="-105.2308665">
  <ele>1586.02</ele>
  <time>2026-08-27T18:29:33Z</time>
  <course>79.84</course>
  <speed>0.022360679774997897</speed>
  <fix>3d</fix>
</trkpt>
<trkpt lat="40.0728153" lon="-105.2308665">
  <ele>1586.02</ele>
  <time>2026-08-27T18:29:33Z</time>
  <course>79.79</course>
  <speed>0.022360679774997897</speed>
  <fix>3d</fix>
</trkpt>
<trkpt lat="40.0728152" lon="-105.2308666">
  <ele>1585.94</ele>
  <time>2026-08-27T18:29:33Z</time>
  <course>347.78</course>
  <speed>0.0</speed>
  <fix>3d</fix>
</trkpt>
<trkpt lat="40.0728153" lon="-105.2308665">
  <ele>1586.02</ele>
  <time>2026-08-27T18:29:33Z</time>
  <course>79.79</course>
  <speed>0.01414213562373095</speed>
  <fix>3d</fix>
</trkpt>
<trkpt lat="40.0728153" lon="-105.2308665">
  <ele>1586.04</ele>
  <time>2026-08-27T18:29:33Z</time>
  <course>79.72</course>
  <speed>0.022360679774997897</speed>
  <fix>3d</fix>
</trkpt>
<trkpt lat="40.0728152" lon="-105.2308666">
  <ele>1585.94</ele>
  <time>2026-08-27T18:29:33Z</time>
  <course>347.07</course>
  <speed>0.0</speed>
  <fix>3d</fix>
</trkpt>
<trkpt lat="40.0728153" lon="-105.2308665">
  <ele>1586.05</ele>
  <time>2026-08-27T18:29:33Z</time>
  <course>79.71</course>
  <speed>0.022360679774997897</speed>
  <fix>3d</fix>
</trkpt>
<trkpt lat="40.0728153" lon="-105.2308665">
  <ele>1586.1</ele>
  <time>2026-08-27T18:29:33Z</time>
  <course>79.64</course>
  <speed>0.022360679774997897</speed>
  <fix>3d</fix>
</trkpt>
<trkpt lat="40.0728152" lon="-105.2308666">
  <ele>1585.97</ele>
  <time>2026-08-27T18:29:33Z</time>
  <course>347.82</course>
  <speed>0.0</speed>
  <fix>3d</fix>
</trkpt>
<trkpt lat="40.0728153" lon="-105.2308665">
  <ele>1586.11</ele>
  <time>2026-08-27T18:29:33Z</time>
  <course>79.61</course>
  <speed>0.01414213562373095</speed>
  <fix>3d</fix>
</trkpt>
<trkpt lat="40.0728153" lon="-105.2308665">
  <ele>1586.14</ele>
  <time>2026-08-27T18:29:33Z</time>
  <course>79.54</course>
  <speed>0.01414213562373095</speed>
  <fix>3d</fix>
</trkpt>
<trkpt lat="40.0728152" lon="-105.2308666">
  <ele>1586.02</ele>
  <time>2026-08-27T18:29:33Z</time>
  <course>49.28</course>
  <speed>0.0</speed>
  <fix>3d</fix>
</trkpt>
<trkpt lat="40.0728153" lon="-105.2308665">
  <ele>1586.15</ele>
  <time>2026-08-27T18:29:33Z</time>
  <course>79.25</course>
  <speed>0.022360679774997897</speed>
  <fix>3d</fix>
</trkpt>
<trkpt lat="40.0728153" lon="-105.2308665">
  <ele>1586.28</ele>
  <time>2026-08-27T18:29:33Z</time>
  <course>71.77</course>
  <speed>0.1004987562112089</speed>
  <fix>3d</fix>
</trkpt>
<trkpt lat="40.0728152" lon="-105.2308666">
  <ele>1586.1</ele>
  <time>2026-08-27T18:29:33Z</time>
  <course>342.69</course>
  <speed>0.02</speed>
  <fix>3d</fix>
</trkpt>
<trkpt lat="40.0728154" lon="-105.2308665">
  <ele>1586.32</ele>
  <time>2026-08-27T18:29:33Z</time>
  <course>70.99</course>
  <speed>0.12165525060596438</speed>
  <fix>3d</fix>
</trkpt>
<trkpt lat="40.0728156" lon="-105.2308666">
  <ele>1586.52</ele>
  <time>2026-08-27T18:29:33Z</time>
  <course>70.06</course>
  <speed>0.196468827043885</speed>
  <fix>3d</fix>
</trkpt>
<trkpt lat="40.0728152" lon="-105.2308667">
  <ele>1586.27</ele>
  <time>2026-08-27T18:29:33Z</time>
  <course>338.48</course>
  <speed>0.1</speed>
  <fix>3d</fix>
</trkpt>
<trkpt lat="40.0728156" lon="-105.2308666">
  <ele>1586.54</ele>
  <time>2026-08-27T18:29:33Z</time>
  <course>70.1</course>
  <speed>0.19924858845171275</speed>
  <fix>3d</fix>
</trkpt>
<trkpt lat="40.0728159" lon="-105.2308668">
  <ele>1586.66</ele>
  <time>2026-08-27T18:29:33Z</time>
  <course>69.83</course>
  <speed>0.22472205054244232</speed>
  <fix>3d</fix>
</trkpt>
<trkpt lat="40.0728154" lon="-105.2308669">
  <ele>1586.47</ele>
  <time>2026-08-27T18:29:33Z</time>
  <course>335.02</course>
  <speed>0.19</speed>
  <fix>3d</fix>
</trkpt>
<trkpt lat="40.0728159" lon="-105.2308668">
  <ele>1586.67</ele>
  <time>2026-08-27T18:29:33Z</time>
  <course>69.71</course>
  <speed>0.22847319317591727</speed>
  <fix>3d</fix>
</trkpt>
<trkpt lat="40.0728162" lon="-105.230867">
  <ele>1586.77</ele>
  <time>2026-08-27T18:29:33Z</time>
  <course>69.05</course>
  <speed>0.23706539182259395</speed>
  <fix>3d</fix>
</trkpt>
<trkpt lat="40.0728158" lon="-105.2308671">
  <ele>1586.61</ele>
  <time>2026-08-27T18:29:33Z</time>
  <course>329.89</course>
  <speed>0.22</speed>
  <fix>3d</fix>
</trkpt>
<trkpt lat="40.0728163" lon="-105.2308671">
  <ele>1586.78</ele>
  <time>2026-08-27T18:29:33Z</time>
  <course>68.97</course>
  <speed>0.24186773244895649</speed>
  <fix>3d</fix>
</trkpt>
<trkpt lat="40.0728165" lon="-105.2308674">
  <ele>1586.87</ele>
  <time>2026-08-27T18:29:33Z</time>
  <course>68.81</course>
  <speed>0.24413111231467405</speed>
  <fix>3d</fix>
</trkpt>
<trkpt lat="40.0728161" lon="-105.2308674">
  <ele>1586.71</ele>
  <time>2026-08-27T18:29:33Z</time>
  <course>323.84</course>
  <speed>0.23</speed>
  <fix>3d</fix>
</trkpt>
<trkpt lat="40.0728166" lon="-105.2308674">
  <ele>1586.88</ele>
  <time>2026-08-27T18:29:33Z</time>
  <course>68.81</course>
  <speed>0.24413111231467405</speed>
  <fix>3d</fix>
</trkpt>
<trkpt lat="40.0728169" lon="-105.2308678">
  <ele>1586.96</ele>
  <time>2026-08-27T18:29:33Z</time>
  <course>68.9</course>
  <speed>0.24083189157584592</speed>
  <fix>3d</fix>
</trkpt>
<trkpt lat="40.0728165" lon="-105.2308678">
  <ele>1586.8</ele>
  <time>2026-08-27T18:29:33Z</time>
  <course>317.55</course>
  <speed>0.24</speed>
  <fix>3d</fix>
</trkpt>
<trkpt lat="40.0728169" lon="-105.2308679">
  <ele>1586.98</ele>
  <time>2026-08-27T18:29:33Z</time>
  <course>68.92</course>
  <speed>0.24758836806279894</speed>
  <fix>3d</fix>
</trkpt>
<trkpt lat="40.0728171" lon="-105.2308683">
  <ele>1587.05</ele>
  <time>2026-08-27T18:29:33Z</time>
  <course>69.0</course>
  <speed>0.24758836806279894</speed>
  <fix>3d</fix>
</trkpt>
<trkpt lat="40.0728168" lon="-105.2308682">
  <ele>1586.89</ele>
  <time>2026-08-27T18:29:33Z</time>
  <course>311.15</course>
  <speed>0.25</speed>
  <fix>3d</fix>
</trkpt>
<trkpt lat="40.0728171" lon="-105.2308683">
  <ele>1587.06</ele>
  <time>2026-08-27T18:29:33Z</time>
  <course>69.0</course>
  <speed>0.24083189157584592</speed>
  <fix>3d</fix>
</trkpt>
<trkpt lat="40.0728174" lon="-105.2308688">
  <ele>1587.16</ele>
  <time>2026-08-27T18:29:33Z</time>
  <course>69.18</course>
  <speed>0.25</speed>
  <fix>3d</fix>
</trkpt>
<trkpt lat="40.072817" lon="-105.2308686">
  <ele>1586.99</ele>
  <time>2026-08-27T18:29:33Z</time>
  <course>304.96</course>
  <speed>0.25</speed>
  <fix>3d</fix>
</trkpt>
<trkpt lat="40.0728174" lon="-105.2308688">
  <ele>1587.17</ele>
  <time>2026-08-27T18:29:33Z</time>
  <course>69.21</course>
  <speed>0.25238858928247926</speed>
  <fix>3d</fix>
</trkpt>
<trkpt lat="40.0728176" lon="-105.2308693">
  <ele>1587.26</ele>
  <time>2026-08-27T18:29:33Z</time>
  <course>69.44</course>
  <speed>0.25553864678361277</speed>
  <fix>3d</fix>
</trkpt>
<trkpt lat="40.0728172" lon="-105.2308692">
  <ele>1587.09</ele>
  <time>2026-08-27T18:29:33Z</time>
  <course>299.3</course>
  <speed>0.26</speed>
  <fix>3d</fix>
</trkpt>
<trkpt lat="40.0728176" lon="-105.2308693">
  <ele>1587.27</ele>
  <time>2026-08-27T18:29:33Z</time>
  <course>69.45</course>
  <speed>0.25553864678361277</speed>
  <fix>3d</fix>
</trkpt>
<trkpt lat="40.0728178" lon="-105.2308699">
  <ele>1587.37</ele>
  <time>2026-08-27T18:29:33Z</time>
  <course>69.77</course>
  <speed>0.2640075756488817</speed>
  <fix>3d</fix>
</trkpt>
<trkpt lat="40.0728175" lon="-105.2308697">
  <ele>1587.2</ele>
  <time>2026-08-27T18:29:33Z</time>
  <course>294.27</course>
  <speed>0.26</speed>
  <fix>3d</fix>
</trkpt>
<trkpt lat="40.0728178" lon="-105.23087">
  <ele>1587.39</ele>
  <time>2026-08-27T18:29:33Z</time>
  <course>69.82</course>
  <speed>0.2640075756488817</speed>
  <fix>3d</fix>
</trkpt>
<trkpt lat="40.0728179" lon="-105.2308705">
  <ele>1587.48</ele>
  <time>2026-08-27T18:29:33Z</time>
  <course>70.12</course>
  <speed>0.2785677655436824</speed>
  <fix>3d</fix>
</trkpt>
<trkpt lat="40.0728177" lon="-105.2308703">
  <ele>1587.31</ele>
  <time>2026-08-27T18:29:33Z</time>
  <course>289.92</course>
  <speed>0.27</speed>
  <fix>3d</fix>
</trkpt>
<trkpt lat="40.0728179" lon="-105.2308706">
  <ele>1587.5</ele>
  <time>2026-08-27T18:29:33Z</time>
  <course>70.17</course>
  <speed>0.2785677655436824</speed>
  <fix>3d</fix>
</trkpt>
<trkpt lat="40.0728181" lon="-105.2308712">
  <ele>1587.6</ele>
  <time>2026-08-27T18:29:33Z</time>
  <course>70.48</course>
  <speed>0.28460498941515416</speed>
  <fix>3d</fix>
</trkpt>
<trkpt lat="40.0728178" lon="-105.2308709">
  <ele>1587.42</ele>
  <time>2026-08-27T18:29:33Z</time>
  <course>286.21</course>
  <speed>0.29</speed>
  <fix>3d</fix>
</trkpt>
<trkpt lat="40.0728181" lon="-105.2308712">
  <ele>1587.6</ele>
  <time>2026-08-27T18:29:33Z</time>
  <course>70.48</course>
  <speed>0.28460498941515416</speed>
  <fix>3d</fix>
</trkpt>
<trkpt lat="40.0728182" lon="-105.2308719">
  <ele>1587.73</ele>
  <time>2026-08-27T18:29:33Z</time>
  <course>70.86</course>
  <speed>0.30083217912982646</speed>
  <fix>3d</fix>
</trkpt>
<trkpt lat="40.072818" lon="-105.2308716">
  <ele>1587.54</ele>
  <time>2026-08-27T18:29:33Z</time>
  <course>283.07</course>
  <speed>0.3</speed>
  <fix>3d</fix>
</trkpt>
<trkpt lat="40.0728182" lon="-105.230872">
  <ele>1587.74</ele>
  <time>2026-08-27T18:29:33Z</time>
  <course>70.92</course>
  <speed>0.29832867780352595</speed>
  <fix>3d</fix>
</trkpt>
<trkpt lat="40.0728183" lon="-105.2308726">
  <ele>1587.85</ele>
  <time>2026-08-27T18:29:33Z</time>
  <course>71.28</course>
  <speed>0.3178049716414141</speed>
  <fix>3d</fix>
</trkpt>
<trkpt lat="40.0728181" lon="-105.2308723">
  <ele>1587.66</ele>
  <time>2026-08-27T18:29:33Z</time>
  <course>280.48</course>
  <speed>0.31</speed>
  <fix>3d</fix>
</trkpt>
<trkpt lat="40.0728183" lon="-105.2308727">
  <ele>1587.87</ele>
  <time>2026-08-27T18:29:33Z</time>
  <course>71.34</course>
  <speed>0.3178049716414141</speed>
  <fix>3d</fix>
</trkpt>
<trkpt lat="40.0728184" lon="-105.2308734">
  <ele>1587.98</ele>
  <time>2026-08-27T18:29:33Z</time>
  <course>71.69</course>
  <speed>0.3255764119219941</speed>
  <fix>3d</fix>
</trkpt>
<trkpt lat="40.0728182" lon="-105.2308731">
  <ele>1587.79</ele>
  <time>2026-08-27T18:29:33Z</time>
  <course>278.31</course>
  <speed>0.32</speed>
  <fix>3d</fix>
</trkpt>
<trkpt lat="40.0728184" lon="-105.2308734">
  <ele>1587.98</ele>
  <time>2026-08-27T18:29:33Z</time>
  <course>71.7</course>
  <speed>0.3255764119219941</speed>
  <fix>3d</fix>
</trkpt>
<trkpt lat="40.0728184" lon="-105.2308742">
  <ele>1588.11</ele>
  <time>2026-08-27T18:29:33Z</time>
  <course>72.08</course>
  <speed>0.33376638536557274</speed>
  <fix>3d</fix>
</trkpt>
<trkpt lat="40.0728183" lon="-105.2308739">
  <ele>1587.9</ele>
  <time>2026-08-27T18:29:33Z</time>
  <course>276.47</course>
  <speed>0.33</speed>
  <fix>3d</fix>
</trkpt>
<trkpt lat="40.0728184" lon="-105.2308743">
  <ele>1588.12</ele>
  <time>2026-08-27T18:29:33Z</time>
  <course>72.14</course>
  <speed>0.33376638536557274</speed>
  <fix>3d</fix>
</trkpt>
<trkpt lat="40.0728185" lon="-105.230875">
  <ele>1588.23</ele>
  <time>2026-08-27T18:29:33Z</time>
  <course>72.46</course>
  <speed>0.3423448553724738</speed>
  <fix>3d</fix>
</trkpt>
<trkpt lat="40.0728183" lon="-105.2308746">
  <ele>1588.03</ele>
  <time>2026-08-27T18:29:33Z</time>
  <course>274.92</course>
  <speed>0.35</speed>
  <fix>3d</fix>
</trkpt>
<trkpt lat="40.0728185" lon="-105.2308751">
  <ele>1588.24</ele>
  <time>2026-08-27T18:29:33Z</time>
  <course>72.51</course>
  <speed>0.3522782990761707</speed>
  <fix>3d</fix>
</trkpt>
<trkpt lat="40.0728185" lon="-105.2308759">
  <ele>1588.35</ele>
  <time>2026-08-27T18:29:33Z</time>
  <course>72.83</course>
  <speed>0.3522782990761707</speed>
  <fix>3d</fix>
</trkpt>
<trkpt lat="40.0728183" lon="-105.2308755">
  <ele>1588.15</ele>
  <time>2026-08-27T18:29:33Z</time>
  <course>273.59</course>
  <speed>0.36</speed>
  <fix>3d</fix>
</trkpt>
<trkpt lat="40.0728185" lon="-105.2308759">
  <ele>1588.35</ele>
  <time>2026-08-27T18:29:33Z</time>
  <course>72.84</course>
  <speed>0.3522782990761707</speed>
  <fix>3d</fix>
</trkpt>
<trkpt lat="40.0728185" lon="-105.2308768">
  <ele>1588.48</ele>
  <time>2026-08-27T18:29:33Z</time>
  <course>73.2</course>
  <speed>0.36124783736376886</speed>
  <fix>3d</fix>
</trkpt>
<trkpt lat="40.0728184" lon="-105.2308763">
  <ele>1588.28</ele>
  <time>2026-08-27T18:29:33Z</time>
  <course>272.44</course>
  <speed>0.37</speed>
  <fix>3d</fix>
</trkpt>
<trkpt lat="40.0728185" lon="-105.2308769">
  <ele>1588.5</ele>
  <time>2026-08-27T18:29:33Z</time>
  <course>73.26</course>
  <speed>0.3712142238654117</speed>
  <fix>3d</fix>
</trkpt>
<trkpt lat="40.0728185" lon="-105.2308777">
  <ele>1588.6</ele>
  <time>2026-08-27T18:29:33Z</time>
  <course>75.86</course>
  <speed>0.3705401462729781</speed>
  <fix>3d</fix>
</trkpt>
<trkpt lat="40.0728184" lon="-105.2308772">
  <ele>1588.4</ele>
  <time>2026-08-27T18:29:33Z</time>
  <course>271.47</course>
  <speed>0.38</speed>
  <fix>3d</fix>
</trkpt>
<trkpt lat="40.0728185" lon="-105.2308777">
  <ele>1588.61</ele>
  <time>2026-08-27T18:29:33Z</time>
  <course>75.86</course>
  <speed>0.3705401462729781</speed>
  <fix>3d</fix>
</trkpt>
<trkpt lat="40.0728186" lon="-105.2308786">
  <ele>1588.73</ele>
  <time>2026-08-27T18:29:33Z</time>
  <course>74.63</course>
  <speed>0.38052595180880894</speed>
  <fix>3d</fix>
</trkpt>
<trkpt lat="40.0728184" lon="-105.2308781">
  <ele>1588.53</ele>
  <time>2026-08-27T18:29:33Z</time>
  <course>270.68</course>
  <speed>0.38</speed>
  <fix>3d</fix>
</trkpt>
<trkpt lat="40.0728186" lon="-105.2308787">
  <ele>1588.75</ele>
  <time>2026-08-27T18:29:33Z</time>
  <course>74.49</course>
  <speed>0.3905124837953327</speed>
  <fix>3d</fix>
</trkpt>
<trkpt lat="40.0728186" lon="-105.2308795">
  <ele>1588.86</ele>
  <time>2026-08-27T18:29:33Z</time>
  <course>74.65</course>
  <speed>0.4004996878900158</speed>
  <fix>3d</fix>
</trkpt>
<trkpt lat="40.0728184" lon="-105.2308791">
  <ele>1588.64</ele>
  <time>2026-08-27T18:29:33Z</time>
  <course>270.26</course>
  <speed>0.39</speed>
  <fix>3d</fix>
</trkpt>
<trkpt lat="40.0728185" lon="-105.2308797">
  <ele>1588.88</ele>
  <time>2026-08-27T18:29:33Z</time>
  <course>74.79</course>
  <speed>0.4004996878900158</speed>
  <fix>3d</fix>
</trkpt>
<trkpt lat="40.0728185" lon="-105.2308805">
  <ele>1588.99</ele>
  <time>2026-08-27T18:29:33Z</time>
  <course>75.76</course>
  <speed>0.41012193308819755</speed>
  <fix>3d</fix>
</trkpt>
<trkpt lat="40.0728184" lon="-105.23088">
  <ele>1588.77</ele>
  <time>2026-08-27T18:29:33Z</time>
  <course>269.9</course>
  <speed>0.4</speed>
  <fix>3d</fix>
</trkpt>
<trkpt lat="40.0728185" lon="-105.2308805">
  <ele>1588.99</ele>
  <time>2026-08-27T18:29:33Z</time>
  <course>75.78</course>
  <speed>0.41012193308819755</speed>
  <fix>3d</fix>
</trkpt>
<trkpt lat="40.0728185" lon="-105.2308815">
  <ele>1589.11</ele>
  <time>2026-08-27T18:29:33Z</time>
  <course>76.6</course>
  <speed>0.4201190307520001</speed>
  <fix>3d</fix>
</trkpt>
<trkpt lat="40.0728184" lon="-105.230881">
  <ele>1588.89</ele>
  <time>2026-08-27T18:29:33Z</time>
  <course>269.34</course>
  <speed>0.41</speed>
  <fix>3d</fix>
</trkpt>
<trkpt lat="40.0728185" lon="-105.2308816">
  <ele>1589.12</ele>
  <time>2026-08-27T18:29:33Z</time>
  <course>76.68</course>
  <speed>0.4201190307520001</speed>
  <fix>3d</fix>
</trkpt>
<trkpt lat="40.0728185" lon="-105.2308825">
  <ele>1589.23</ele>
  <time>2026-08-27T18:29:33Z</time>
  <course>77.14</course>
  <speed>0.4201190307520001</speed>
  <fix>3d</fix>
</trkpt>
<trkpt lat="40.0728184" lon="-105.2308819">
  <ele>1589.02</ele>
  <time>2026-08-27T18:29:33Z</time>
  <course>268.9</course>
  <speed>0.41</speed>
  <fix>3d</fix>
</trkpt>
<trkpt lat="40.0728185" lon="-105.2308826">
  <ele>1589.25</ele>
  <time>2026-08-27T18:29:33Z</time>
  <course>77.2</course>
  <speed>0.4201190307520001</speed>
  <fix>3d</fix>
</trkpt>
<trkpt lat="40.0728185" lon="-105.2308835">
  <ele>1589.36</ele>
  <time>2026-08-27T18:29:33Z</time>
  <course>77.54</course>
  <speed>0.4301162633521314</speed>
  <fix>3d</fix>
</trkpt>
<trkpt lat="40.0728184" lon="-105.2308829">
  <ele>1589.14</ele>
  <time>2026-08-27T18:29:33Z</time>
  <course>268.61</course>
  <speed>0.41</speed>
  <fix>3d</fix>
</trkpt>
<trkpt lat="40.0728185" lon="-105.2308836">
  <ele>1589.37</ele>
  <time>2026-08-27T18:29:33Z</time>
  <course>77.59</course>
  <speed>0.43</speed>
  <fix>3d</fix>
</trkpt>
<trkpt lat="40.0728185" lon="-105.2308845">
  <ele>1589.48</ele>
  <time>2026-08-27T18:29:33Z</time>
  <course>77.86</course>
  <speed>0.43</speed>
  <fix>3d</fix>
</trkpt>
<trkpt lat="40.0728184" lon="-105.2308839">
  <ele>1589.27</ele>
  <time>2026-08-27T18:29:33Z</time>
  <course>268.4</course>
  <speed>0.42</speed>
  <fix>3d</fix>
</trkpt>
<trkpt lat="40.0728185" lon="-105.2308845">
  <ele>1589.49</ele>
  <time>2026-08-27T18:29:33Z</time>
  <course>77.86</course>
  <speed>0.43</speed>
  <fix>3d</fix>
</trkpt>
<trkpt lat="40.0728185" lon="-105.2308855">
  <ele>1589.61</ele>
  <time>2026-08-27T18:29:33Z</time>
  <course>78.14</course>
  <speed>0.43</speed>
  <fix>3d</fix>
</trkpt>
<trkpt lat="40.0728184" lon="-105.2308848">
  <ele>1589.38</ele>
  <time>2026-08-27T18:29:33Z</time>
  <course>268.3</course>
  <speed>0.42</speed>
  <fix>3d</fix>
</trkpt>
<trkpt lat="40.0728185" lon="-105.2308856">
  <ele>1589.63</ele>
  <time>2026-08-27T18:29:33Z</time>
  <course>78.17</course>
  <speed>0.43</speed>
  <fix>3d</fix>
</trkpt>
<trkpt lat="40.0728185" lon="-105.2308865">
  <ele>1589.73</ele>
  <time>2026-08-27T18:29:33Z</time>
  <course>78.37</course>
  <speed>0.43</speed>
  <fix>3d</fix>
</trkpt>
<trkpt lat="40.0728184" lon="-105.2308858">
  <ele>1589.51</ele>
  <time>2026-08-27T18:29:33Z</time>
  <course>268.31</course>
  <speed>0.42</speed>
  <fix>3d</fix>
</trkpt>
<trkpt lat="40.0728185" lon="-105.2308866">
  <ele>1589.75</ele>
  <time>2026-08-27T18:29:33Z</time>
  <course>78.4</course>
  <speed>0.43</speed>
  <fix>3d</fix>
</trkpt>
<trkpt lat="40.0728185" lon="-105.2308875">
  <ele>1589.86</ele>
  <time>2026-08-27T18:29:33Z</time>
  <course>78.57</course>
  <speed>0.43</speed>
  <fix>3d</fix>
</trkpt>
<trkpt lat="40.0728184" lon="-105.2308869">
  <ele>1589.63</ele>
  <time>2026-08-27T18:29:33Z</time>
  <course>268.33</course>
  <speed>0.42</speed>
  <fix>3d</fix>
</trkpt>
<trkpt lat="40.0728185" lon="-105.2308876">
  <ele>1589.88</ele>
  <time>2026-08-27T18:29:33Z</time>
  <course>78.6</course>
  <speed>0.43</speed>
  <fix>3d</fix>
</trkpt>
<trkpt lat="40.0728185" lon="-105.2308885">
  <ele>1589.98</ele>
  <time>2026-08-27T18:29:33Z</time>
  <course>78.77</course>
  <speed>0.43</speed>
  <fix>3d</fix>
</trkpt>
<trkpt lat="40.0728184" lon="-105.2308879">
  <ele>1589.76</ele>
  <time>2026-08-27T18:29:33Z</time>
  <course>268.38</course>
  <speed>0.42</speed>
  <fix>3d</fix>
</trkpt>
<trkpt lat="40.0728185" lon="-105.2308886">
  <ele>1590.0</ele>
  <time>2026-08-27T18:29:33Z</time>
  <course>78.8</course>
  <speed>0.43</speed>
  <fix>3d</fix>
</trkpt>
<trkpt lat="40.0728185" lon="-105.2308895">
  <ele>1590.11</ele>
  <time>2026-08-27T18:29:33Z</time>
  <course>78.93</course>
  <speed>0.43</speed>
  <fix>3d</fix>
</trkpt>
<trkpt lat="40.0728183" lon="-105.2308889">
  <ele>1589.88</ele>
  <time>2026-08-27T18:29:33Z</time>
  <course>268.44</course>
  <speed>0.42</speed>
  <fix>3d</fix>
</trkpt>
<trkpt lat="40.0728185" lon="-105.2308896">
  <ele>1590.12</ele>
  <time>2026-08-27T18:29:33Z</time>
  <course>78.95</course>
  <speed>0.43</speed>
  <fix>3d</fix>
</trkpt>
<trkpt lat="40.0728185" lon="-105.2308905">
  <ele>1590.23</ele>
  <time>2026-08-27T18:29:33Z</time>
  <course>79.12</course>
  <speed>0.43</speed>
  <fix>3d</fix>
</trkpt>
<trkpt lat="40.0728183" lon="-105.2308898">
  <ele>1590.01</ele>
  <time>2026-08-27T18:29:33Z</time>
  <course>268.53</course>
  <speed>0.42</speed>
  <fix>3d</fix>
</trkpt>
<trkpt lat="40.0728185" lon="-105.2308905">
  <ele>1590.23</ele>
  <time>2026-08-27T18:29:33Z</time>
  <course>79.12</course>
  <speed>0.43</speed>
  <fix>3d</fix>
</trkpt>
<trkpt lat="40.0728184" lon="-105.2308915">
  <ele>1590.36</ele>
  <time>2026-08-27T18:29:33Z</time>
  <course>79.29</course>
  <speed>0.43</speed>
  <fix>3d</fix>
</trkpt>
<trkpt lat="40.0728183" lon="-105.2308908">
  <ele>1590.13</ele>
  <time>2026-08-27T18:29:33Z</time>
  <course>268.66</course>
  <speed>0.43</speed>
  <fix>3d</fix>
</trkpt>
<trkpt lat="40.0728184" lon="-105.2308917">
  <ele>1590.38</ele>
  <time>2026-08-27T18:29:33Z</time>
  <course>79.32</course>
  <speed>0.43</speed>
  <fix>3d</fix>
</trkpt>
<trkpt lat="40.0728184" lon="-105.2308925">
  <ele>1590.49</ele>
  <time>2026-08-27T18:29:33Z</time>
  <course>79.44</course>
  <speed>0.43</speed>
  <fix>3d</fix>
</trkpt>
<trkpt lat="40.0728183" lon="-105.2308919">
  <ele>1590.26</ele>
  <time>2026-08-27T18:29:33Z</time>
  <course>268.78</course>
  <speed>0.43</speed>
  <fix>3d</fix>
</trkpt>
<trkpt lat="40.0728184" lon="-105.2308928">
  <ele>1590.53</ele>
  <time>2026-08-27T18:29:33Z</time>
  <course>79.49</course>
  <speed>0.43</speed>
  <fix>3d</fix>
</trkpt>
<trkpt lat="40.0728184" lon="-105.2308935">
  <ele>1590.62</ele>
  <time>2026-08-27T18:29:34Z</time>
  <course>79.59</course>
  <speed>0.43</speed>
  <fix>3d</fix>
</trkpt>
<trkpt lat="40.0728183" lon="-105.230893">
  <ele>1590.38</ele>
  <time>2026-08-27T18:29:34Z</time>
  <course>268.87</course>
  <speed>0.43</speed>
  <fix>3d</fix>
</trkpt>
<trkpt lat="40.0728184" lon="-105.2308937">
  <ele>1590.64</ele>
  <time>2026-08-27T18:29:34Z</time>
  <course>79.61</course>
  <speed>0.43</speed>
  <fix>3d</fix>
</trkpt>
<trkpt lat="40.0728184" lon="-105.2308945">
  <ele>1590.75</ele>
  <time>2026-08-27T18:29:34Z</time>
  <course>79.73</course>
  <speed>0.43</speed>
  <fix>3d</fix>
</trkpt>
<trkpt lat="40.0728183" lon="-105.2308939">
  <ele>1590.51</ele>
  <time>2026-08-27T18:29:34Z</time>
  <course>268.94</course>
  <speed>0.43</speed>
  <fix>3d</fix>
</trkpt>
<trkpt lat="40.0728184" lon="-105.2308945">
  <ele>1590.75</ele>
  <time>2026-08-27T18:29:34Z</time>
  <course>79.73</course>
  <speed>0.43</speed>
  <fix>3d</fix>
</trkpt>
<trkpt lat="40.0728184" lon="-105.2308956">
  <ele>1590.87</ele>
  <time>2026-08-27T18:29:34Z</time>
  <course>79.88</course>
  <speed>0.43</speed>
  <fix>3d</fix>
</trkpt>
<trkpt lat="40.0728183" lon="-105.2308949">
  <ele>1590.63</ele>
  <time>2026-08-27T18:29:34Z</time>
  <course>269.03</course>
  <speed>0.43</speed>
  <fix>3d</fix>
</trkpt>
<trkpt lat="40.0728184" lon="-105.2308957">
  <ele>1590.89</ele>
  <time>2026-08-27T18:29:34Z</time>
  <course>79.9</course>
  <speed>0.43</speed>
  <fix>3d</fix>
</trkpt>
<trkpt lat="40.0728184" lon="-105.2308966">
  <ele>1590.99</ele>
  <time>2026-08-27T18:29:34Z</time>
  <course>80.0</course>
  <speed>0.43</speed>
  <fix>3d</fix>
</trkpt>
<trkpt lat="40.0728183" lon="-105.230896">
  <ele>1590.76</ele>
  <time>2026-08-27T18:29:34Z</time>
  <course>269.12</course>
  <speed>0.43</speed>
  <fix>3d</fix>
</trkpt>
<trkpt lat="40.0728184" lon="-105.2308966">
  <ele>1590.99</ele>
  <time>2026-08-27T18:29:34Z</time>
  <course>80.0</course>
  <speed>0.43</speed>
  <fix>3d</fix>
</trkpt>
<trkpt lat="40.0728184" lon="-105.2308976">
  <ele>1591.11</ele>
  <time>2026-08-27T18:29:34Z</time>
  <course>80.13</course>
  <speed>0.43</speed>
  <fix>3d</fix>
</trkpt>
<trkpt lat="40.0728183" lon="-105.230897">
  <ele>1590.87</ele>
  <time>2026-08-27T18:29:34Z</time>
  <course>269.22</course>
  <speed>0.43</speed>
  <fix>3d</fix>
</trkpt>
<trkpt lat="40.0728184" lon="-105.2308977">
  <ele>1591.13</ele>
  <time>2026-08-27T18:29:34Z</time>
  <course>80.15</course>
  <speed>0.43</speed>
  <fix>3d</fix>
</trkpt>
<trkpt lat="40.0728183" lon="-105.2308986">
  <ele>1591.24</ele>
  <time>2026-08-27T18:29:34Z</time>
  <course>80.25</course>
  <speed>0.43</speed>
  <fix>3d</fix>
</trkpt>
<trkpt lat="40.0728183" lon="-105.230898">
  <ele>1591.0</ele>
  <time>2026-08-27T18:29:34Z</time>
  <course>269.32</course>
  <speed>0.43</speed>
  <fix>3d</fix>
</trkpt>
<trkpt lat="40.0728183" lon="-105.2308987">
  <ele>1591.25</ele>
  <time>2026-08-27T18:29:34Z</time>
  <course>80.27</course>
  <speed>0.43</speed>
  <fix>3d</fix>
</trkpt>
<trkpt lat="40.0728183" lon="-105.2308996">
  <ele>1591.36</ele>
  <time>2026-08-27T18:29:34Z</time>
  <course>80.36</course>
  <speed>0.43</speed>
  <fix>3d</fix>
</trkpt>
<trkpt lat="40.0728183" lon="-105.230899">
  <ele>1591.12</ele>
  <time>2026-08-27T18:29:34Z</time>
  <course>269.45</course>
  <speed>0.43</speed>
  <fix>3d</fix>
</trkpt>
<trkpt lat="40.0728183" lon="-105.2308996">
  <ele>1591.36</ele>
  <time>2026-08-27T18:29:34Z</time>
  <course>80.36</course>
  <speed>0.43</speed>
  <fix>3d</fix>
</trkpt>
<trkpt lat="40.0728184" lon="-105.2309006">
  <ele>1591.49</ele>
  <time>2026-08-27T18:29:34Z</time>
  <course>80.46</course>
  <speed>0.43</speed>
  <fix>3d</fix>
</trkpt>
<trkpt lat="40.0728183" lon="-105.2309001">
  <ele>1591.25</ele>
  <time>2026-08-27T18:29:34Z</time>
  <course>269.59</course>
  <speed>0.43</speed>
  <fix>3d</fix>
</trkpt>
<trkpt lat="40.0728184" lon="-105.2309008">
  <ele>1591.5</ele>
  <time>2026-08-27T18:29:34Z</time>
  <course>80.48</course>
  <speed>0.43</speed>
  <fix>3d</fix>
</trkpt>
<trkpt lat="40.0728184" lon="-105.2309017">
  <ele>1591.61</ele>
  <time>2026-08-27T18:29:34Z</time>
  <course>80.6</course>
  <speed>0.4301162633521314</speed>
  <fix>3d</fix>
</trkpt>
<trkpt lat="40.0728183" lon="-105.2309011">
  <ele>1591.37</ele>
  <time>2026-08-27T18:29:34Z</time>
  <course>269.72</course>
  <speed>0.43</speed>
  <fix>3d</fix>
</trkpt>
<trkpt lat="40.0728184" lon="-105.2309018">
  <ele>1591.63</ele>
  <time>2026-08-27T18:29:34Z</time>
  <course>80.61</course>
  <speed>0.4301162633521314</speed>
  <fix>3d</fix>
</trkpt>
<trkpt lat="40.0728184" lon="-105.2309027">
  <ele>1591.73</ele>
  <time>2026-08-27T18:29:34Z</time>
  <course>80.7</course>
  <speed>0.4301162633521314</speed>
  <fix>3d</fix>
</trkpt>
<trkpt lat="40.0728183" lon="-105.2309021">
  <ele>1591.5</ele>
  <time>2026-08-27T18:29:34Z</time>
  <course>269.87</course>
  <speed>0.43</speed>
  <fix>3d</fix>
</trkpt>
<trkpt lat="40.0728184" lon="-105.2309027">
  <ele>1591.74</ele>
  <time>2026-08-27T18:29:34Z</time>
  <course>80.7</course>
  <speed>0.4301162633521314</speed>
  <fix>3d</fix>
</trkpt>
<trkpt lat="40.0728184" lon="-105.2309037">
  <ele>1591.86</ele>
  <time>2026-08-27T18:29:34Z</time>
  <course>80.81</course>
  <speed>0.4201190307520001</speed>
  <fix>3d</fix>
</trkpt>
<trkpt lat="40.0728183" lon="-105.230903">
  <ele>1591.62</ele>
  <time>2026-08-27T18:29:34Z</time>
  <course>269.98</course>
  <speed>0.43</speed>
  <fix>3d</fix>
</trkpt>
<trkpt lat="40.0728184" lon="-105.2309038">
  <ele>1591.88</ele>
  <time>2026-08-27T18:29:34Z</time>
  <course>80.82</course>
  <speed>0.4201190307520001</speed>
  <fix>3d</fix>
</trkpt>
<trkpt lat="40.0728184" lon="-105.2309047">
  <ele>1591.98</ele>
  <time>2026-08-27T18:29:34Z</time>
  <course>80.93</course>
  <speed>0.4201190307520001</speed>
  <fix>3d</fix>
</trkpt>
<trkpt lat="40.0728183" lon="-105.230904">
  <ele>1591.75</ele>
  <time>2026-08-27T18:29:34Z</time>
  <course>270.13</course>
  <speed>0.43</speed>
  <fix>3d</fix>
</trkpt>
<trkpt lat="40.0728184" lon="-105.2309047">
  <ele>1591.99</ele>
  <time>2026-08-27T18:29:34Z</time>
  <course>80.93</course>
  <speed>0.4201190307520001</speed>
  <fix>3d</fix>
</trkpt>
<trkpt lat="40.0728184" lon="-105.2309057">
  <ele>1592.11</ele>
  <time>2026-08-27T18:29:34Z</time>
  <course>81.02</course>
  <speed>0.4201190307520001</speed>
  <fix>3d</fix>
</trkpt>
<trkpt lat="40.0728183" lon="-105.2309051">
  <ele>1591.87</ele>
  <time>2026-08-27T18:29:34Z</time>
  <course>270.28</course>
  <speed>0.43</speed>
  <fix>3d</fix>
</trkpt>
<trkpt lat="40.0728184" lon="-105.2309058">
  <ele>1592.12</ele>
  <time>2026-08-27T18:29:34Z</time>
  <course>81.04</course>
  <speed>0.4201190307520001</speed>
  <fix>3d</fix>
</trkpt>
<trkpt lat="40.0728184" lon="-105.2309067">
  <ele>1592.23</ele>
  <time>2026-08-27T18:29:34Z</time>
  <course>81.13</course>
  <speed>0.4201190307520001</speed>
  <fix>3d</fix>
</trkpt>
<trkpt lat="40.0728183" lon="-105.2309061">
  <ele>1592.0</ele>
  <time>2026-08-27T18:29:34Z</time>
  <course>270.37</course>
  <speed>0.43</speed>
  <fix>3d</fix>
</trkpt>
<trkpt lat="40.0728184" lon="-105.2309068">
  <ele>1592.24</ele>
  <time>2026-08-27T18:29:34Z</time>
  <course>81.13</course>
  <speed>0.4201190307520001</speed>
  <fix>3d</fix>
</trkpt>
<trkpt lat="40.0728184" lon="-105.2309077">
  <ele>1592.35</ele>
  <time>2026-08-27T18:29:34Z</time>
  <course>81.19</course>
  <speed>0.4201190307520001</speed>
  <fix>3d</fix>
</trkpt>
<trkpt lat="40.0728183" lon="-105.2309071">
  <ele>1592.13</ele>
  <time>2026-08-27T18:29:34Z</time>
  <course>270.49</course>
  <speed>0.42</speed>
  <fix>3d</fix>
</trkpt>
<trkpt lat="40.0728184" lon="-105.2309078">
  <ele>1592.37</ele>
  <time>2026-08-27T18:29:34Z</time>
  <course>81.21</course>
  <speed>0.4201190307520001</speed>
  <fix>3d</fix>
</trkpt>
<trkpt lat="40.0728184" lon="-105.2309087">
  <ele>1592.48</ele>
  <time>2026-08-27T18:29:34Z</time>
  <course>81.29</course>
  <speed>0.41048751503547587</speed>
  <fix>3d</fix>
</trkpt>
<trkpt lat="40.0728183" lon="-105.2309081">
  <ele>1592.26</ele>
  <time>2026-08-27T18:29:34Z</time>
  <course>270.64</course>
  <speed>0.42</speed>
  <fix>3d</fix>
</trkpt>
<trkpt lat="40.0728184" lon="-105.2309088">
  <ele>1592.5</ele>
  <time>2026-08-27T18:29:34Z</time>
  <course>81.3</course>
  <speed>0.41048751503547587</speed>
  <fix>3d</fix>
</trkpt>
<trkpt lat="40.0728184" lon="-105.2309097">
  <ele>1592.61</ele>
  <time>2026-08-27T18:29:34Z</time>
  <course>81.4</course>
  <speed>0.41048751503547587</speed>
  <fix>3d</fix>
</trkpt>
<trkpt lat="40.0728183" lon="-105.2309092">
  <ele>1592.38</ele>
  <time>2026-08-27T18:29:34Z</time>
  <course>270.75</course>
  <speed>0.42</speed>
  <fix>3d</fix>
</trkpt>
<trkpt lat="40.0728184" lon="-105.2309097">
  <ele>1592.61</ele>
  <time>2026-08-27T18:29:34Z</time>
  <course>81.4</course>
  <speed>0.41048751503547587</speed>
  <fix>3d</fix>
</trkpt>
<trkpt lat="40.0728184" lon="-105.2309107">
  <ele>1592.74</ele>
  <time>2026-08-27T18:29:34Z</time>
  <course>81.54</course>
  <speed>0.41048751503547587</speed>
  <fix>3d</fix>
</trkpt>
<trkpt lat="40.0728183" lon="-105.2309102">
  <ele>1592.51</ele>
  <time>2026-08-27T18:29:34Z</time>
  <course>270.9</course>
  <speed>0.42</speed>
  <fix>3d</fix>
</trkpt>
<trkpt lat="40.0728184" lon="-105.2309109">
  <ele>1592.76</ele>
  <time>2026-08-27T18:29:34Z</time>
  <course>81.56</course>
  <speed>0.41048751503547587</speed>
  <fix>3d</fix>
</trkpt>
<trkpt lat="40.0728184" lon="-105.2309117">
  <ele>1592.87</ele>
  <time>2026-08-27T18:29:34Z</time>
  <course>81.64</course>
  <speed>0.41048751503547587</speed>
  <fix>3d</fix>
</trkpt>
<trkpt lat="40.0728183" lon="-105.2309112">
  <ele>1592.64</ele>
  <time>2026-08-27T18:29:34Z</time>
  <course>271.05</course>
  <speed>0.42</speed>
  <fix>3d</fix>
</trkpt>
<trkpt lat="40.0728184" lon="-105.2309118">
  <ele>1592.89</ele>
  <time>2026-08-27T18:29:34Z</time>
  <course>81.65</course>
  <speed>0.41048751503547587</speed>
  <fix>3d</fix>
</trkpt>
<trkpt lat="40.0728184" lon="-105.2309126">
  <ele>1593.0</ele>
  <time>2026-08-27T18:29:34Z</time>
  <course>81.74</course>
  <speed>0.41048751503547587</speed>
  <fix>3d</fix>
</trkpt>
<trkpt lat="40.0728183" lon="-105.2309121">
  <ele>1592.77</ele>
  <time>2026-08-27T18:29:34Z</time>
  <course>271.14</course>
  <speed>0.42</speed>
  <fix>3d</fix>
</trkpt>
<trkpt lat="40.0728184" lon="-105.2309127">
  <ele>1593.0</ele>
  <time>2026-08-27T18:29:34Z</time>
  <course>81.74</course>
  <speed>0.41048751503547587</speed>
  <fix>3d</fix>
</trkpt>
<trkpt lat="40.0728184" lon="-105.2309136">
  <ele>1593.12</ele>
  <time>2026-08-27T18:29:34Z</time>
  <course>81.83</course>
  <speed>0.4004996878900158</speed>
  <fix>3d</fix>
</trkpt>
<trkpt lat="40.0728183" lon="-105.2309132">
  <ele>1592.89</ele>
  <time>2026-08-27T18:29:34Z</time>
  <course>271.2</course>
  <speed>0.42</speed>
  <fix>3d</fix>
</trkpt>
<trkpt lat="40.0728184" lon="-105.2309138">
  <ele>1593.14</ele>
  <time>2026-08-27T18:29:34Z</time>
  <course>81.84</course>
  <speed>0.4004996878900158</speed>
  <fix>3d</fix>
</trkpt>
<trkpt lat="40.0728184" lon="-105.2309146">
  <ele>1593.25</ele>
  <time>2026-08-27T18:29:34Z</time>
  <course>81.9</course>
  <speed>0.4004996878900158</speed>
  <fix>3d</fix>
</trkpt>
<trkpt lat="40.0728183" lon="-105.2309141">
  <ele>1593.02</ele>
  <time>2026-08-27T18:29:34Z</time>
  <course>271.24</course>
  <speed>0.41</speed>
  <fix>3d</fix>
</trkpt>
<trkpt lat="40.0728184" lon="-105.2309146">
  <ele>1593.25</ele>
  <time>2026-08-27T18:29:34Z</time>
  <course>81.9</course>
  <speed>0.4004996878900158</speed>
  <fix>3d</fix>
</trkpt>
<trkpt lat="40.0728184" lon="-105.2309156">
  <ele>1593.38</ele>
  <time>2026-08-27T18:29:34Z</time>
  <course>81.99</course>
  <speed>0.4004996878900158</speed>
  <fix>3d</fix>
</trkpt>
<trkpt lat="40.0728183" lon="-105.230915">
  <ele>1593.14</ele>
  <time>2026-08-27T18:29:34Z</time>
  <course>271.33</course>
  <speed>0.41</speed>
  <fix>3d</fix>
</trkpt>
<trkpt lat="40.0728184" lon="-105.2309157">
  <ele>1593.4</ele>
  <time>2026-08-27T18:29:34Z</time>
  <course>82.0</course>
  <speed>0.4004996878900158</speed>
  <fix>3d</fix>
</trkpt>
<trkpt lat="40.0728184" lon="-105.2309166">
  <ele>1593.5</ele>
  <time>2026-08-27T18:29:34Z</time>
  <course>82.07</course>
  <speed>0.4004996878900158</speed>
  <fix>3d</fix>
</trkpt>
<trkpt lat="40.0728183" lon="-105.2309161">
  <ele>1593.27</ele>
  <time>2026-08-27T18:29:34Z</time>
  <course>271.43</course>
  <speed>0.41</speed>
  <fix>3d</fix>
</trkpt>
<trkpt lat="40.0728184" lon="-105.2309167">
  <ele>1593.52</ele>
  <time>2026-08-27T18:29:34Z</time>
  <course>82.08</course>
  <speed>0.4004996878900158</speed>
  <fix>3d</fix>
</trkpt>
<trkpt lat="40.0728185" lon="-105.2309175">
  <ele>1593.63</ele>
  <time>2026-08-27T18:29:34Z</time>
  <course>82.16</course>
  <speed>0.3905124837953327</speed>
  <fix>3d</fix>
</trkpt>
<trkpt lat="40.0728183" lon="-105.2309171">
  <ele>1593.39</ele>
  <time>2026-08-27T18:29:34Z</time>
  <course>271.49</course>
  <speed>0.41</speed>
  <fix>3d</fix>
</trkpt>
<trkpt lat="40.0728185" lon="-105.2309177">
  <ele>1593.64</ele>
  <time>2026-08-27T18:29:34Z</time>
  <course>82.17</course>
  <speed>0.3905124837953327</speed>
  <fix>3d</fix>
</trkpt>
<trkpt lat="40.0728185" lon="-105.2309185">
  <ele>1593.75</ele>
  <time>2026-08-27T18:29:34Z</time>
  <course>82.23</course>
  <speed>0.3905124837953327</speed>
  <fix>3d</fix>
</trkpt>
<trkpt lat="40.0728183" lon="-105.230918">
  <ele>1593.52</ele>
  <time>2026-08-27T18:29:34Z</time>
  <course>271.58</course>
  <speed>0.41</speed>
  <fix>3d</fix>
</trkpt>
<trkpt lat="40.0728185" lon="-105.2309186">
  <ele>1593.77</ele>
  <time>2026-08-27T18:29:34Z</time>
  <course>82.24</course>
  <speed>0.3905124837953327</speed>
  <fix>3d</fix>
</trkpt>
<trkpt lat="40.0728185" lon="-105.2309194">
  <ele>1593.88</ele>
  <time>2026-08-27T18:29:34Z</time>
  <course>82.31</course>
  <speed>0.3905124837953327</speed>
  <fix>3d</fix>
</trkpt>
<trkpt lat="40.0728183" lon="-105.230919">
  <ele>1593.64</ele>
  <time>2026-08-27T18:29:34Z</time>
  <course>271.7</course>
  <speed>0.41</speed>
  <fix>3d</fix>
</trkpt>
<trkpt lat="40.0728185" lon="-105.2309196">
  <ele>1593.89</ele>
  <time>2026-08-27T18:29:34Z</time>
  <course>82.32</course>
  <speed>0.3905124837953327</speed>
  <fix>3d</fix>
</trkpt>
<trkpt lat="40.0728185" lon="-105.2309204">
  <ele>1594.0</ele>
  <time>2026-08-27T18:29:34Z</time>
  <course>82.38</course>
  <speed>0.3911521443121589</speed>
  <fix>3d</fix>
</trkpt>
<trkpt lat="40.0728183" lon="-105.23092">
  <ele>1593.77</ele>
  <time>2026-08-27T18:29:34Z</time>
  <course>271.81</course>
  <speed>0.4</speed>
  <fix>3d</fix>
</trkpt>
<trkpt lat="40.0728185" lon="-105.2309204">
  <ele>1594.0</ele>
  <time>2026-08-27T18:29:34Z</time>
  <course>82.38</course>
  <speed>0.3911521443121589</speed>
  <fix>3d</fix>
</trkpt>
<trkpt lat="40.0728185" lon="-105.2309213">
  <ele>1594.13</ele>
  <time>2026-08-27T18:29:34Z</time>
  <course>82.46</course>
  <speed>0.38118237105091834</speed>
  <fix>3d</fix>
</trkpt>
<trkpt lat="40.0728183" lon="-105.2309209">
  <ele>1593.89</ele>
  <time>2026-08-27T18:29:34Z</time>
  <course>271.9</course>
  <speed>0.4</speed>
  <fix>3d</fix>
</trkpt>
<trkpt lat="40.0728185" lon="-105.2309215">
  <ele>1594.14</ele>
  <time>2026-08-27T18:29:34Z</time>
  <course>82.47</course>
  <speed>0.38118237105091834</speed>
  <fix>3d</fix>
</trkpt>
<trkpt lat="40.0728185" lon="-105.2309223">
  <ele>1594.25</ele>
  <time>2026-08-27T18:29:34Z</time>
  <course>82.52</course>
  <speed>0.38118237105091834</speed>
  <fix>3d</fix>
</trkpt>
<trkpt lat="40.0728183" lon="-105.2309219">
  <ele>1594.02</ele>
  <time>2026-08-27T18:29:34Z</time>
  <course>271.98</course>
  <speed>0.4</speed>
  <fix>3d</fix>
</trkpt>
<trkpt lat="40.0728185" lon="-105.2309224">
  <ele>1594.27</ele>
  <time>2026-08-27T18:29:34Z</time>
  <course>82.54</course>
  <speed>0.38118237105091834</speed>
  <fix>3d</fix>
</trkpt>
<trkpt lat="40.0728185" lon="-105.2309232">
  <ele>1594.37</ele>
  <time>2026-08-27T18:29:34Z</time>
  <course>82.59</course>
  <speed>0.38118237105091834</speed>
  <fix>3d</fix>
</trkpt>
<trkpt lat="40.0728184" lon="-105.2309228">
  <ele>1594.14</ele>
  <time>2026-08-27T18:29:34Z</time>
  <course>272.05</course>
  <speed>0.4</speed>
  <fix>3d</fix>
</trkpt>
<trkpt lat="40.0728185" lon="-105.2309234">
  <ele>1594.39</ele>
  <time>2026-08-27T18:29:34Z</time>
  <course>82.6</course>
  <speed>0.38118237105091834</speed>
  <fix>3d</fix>
</trkpt>
<trkpt lat="40.0728186" lon="-105.2309242">
  <ele>1594.5</ele>
  <time>2026-08-27T18:29:34Z</time>
  <course>82.67</course>
  <speed>0.38118237105091834</speed>
  <fix>3d</fix>
</trkpt>
<trkpt lat="40.0728184" lon="-105.2309237">
  <ele>1594.27</ele>
  <time>2026-08-27T18:29:34Z</time>
  <course>272.13</course>
  <speed>0.39</speed>
  <fix>3d</fix>
</trkpt>
<trkpt lat="40.0728186" lon="-105.2309243">
  <ele>1594.51</ele>
  <time>2026-08-27T18:29:34Z</time>
  <course>82.67</course>
  <speed>0.38118237105091834</speed>
  <fix>3d</fix>
</trkpt>
<trkpt lat="40.0728186" lon="-105.2309251">
  <ele>1594.62</ele>
  <time>2026-08-27T18:29:34Z</time>
  <course>82.71</course>
  <speed>0.3712142238654117</speed>
  <fix>3d</fix>
</trkpt>
<trkpt lat="40.0728184" lon="-105.2309247">
  <ele>1594.39</ele>
  <time>2026-08-27T18:29:34Z</time>
  <course>272.25</course>
  <speed>0.39</speed>
  <fix>3d</fix>
</trkpt>
<trkpt lat="40.0728186" lon="-105.2309252">
  <ele>1594.64</ele>
  <time>2026-08-27T18:29:34Z</time>
  <course>82.73</course>
  <speed>0.3712142238654117</speed>
  <fix>3d</fix>
</trkpt>
<trkpt lat="40.0728186" lon="-105.230926">
  <ele>1594.75</ele>
  <time>2026-08-27T18:29:34Z</time>
  <course>82.76</course>
  <speed>0.3712142238654117</speed>
  <fix>3d</fix>
</trkpt>
<trkpt lat="40.0728185" lon="-105.2309256">
  <ele>1594.52</ele>
  <time>2026-08-27T18:29:34Z</time>
  <course>272.37</course>
  <speed>0.39</speed>
  <fix>3d</fix>
</trkpt>
<trkpt lat="40.0728186" lon="-105.230926">
  <ele>1594.75</ele>
  <time>2026-08-27T18:29:34Z</time>
  <course>82.76</course>
  <speed>0.3712142238654117</speed>
  <fix>3d</fix>
</trkpt>
<trkpt lat="40.0728186" lon="-105.2309269">
  <ele>1594.87</ele>
  <time>2026-08-27T18:29:34Z</time>
  <course>82.84</course>
  <speed>0.3712142238654117</speed>
  <fix>3d</fix>
</trkpt>
<trkpt lat="40.0728186" lon="-105.2309265">
  <ele>1594.65</ele>
  <time>2026-08-27T18:29:34Z</time>
  <course>272.49</course>
  <speed>0.38</speed>
  <fix>3d</fix>
</trkpt>
<trkpt lat="40.0728186" lon="-105.2309271">
  <ele>1594.89</ele>
  <time>2026-08-27T18:29:34Z</time>
  <course>82.85</course>
  <speed>0.3712142238654117</speed>
  <fix>3d</fix>
</trkpt>
<trkpt lat="40.0728187" lon="-105.2309278">
  <ele>1595.0</ele>
  <time>2026-08-27T18:29:34Z</time>
  <course>82.91</course>
  <speed>0.36124783736376886</speed>
  <fix>3d</fix>
</trkpt>
<trkpt lat="40.0728186" lon="-105.2309274">
  <ele>1594.78</ele>
  <time>2026-08-27T18:29:34Z</time>
  <course>272.62</course>
  <speed>0.38</speed>
  <fix>3d</fix>
</trkpt>
<trkpt lat="40.0728187" lon="-105.2309282">
  <ele>1595.05</ele>
  <time>2026-08-27T18:29:34Z</time>
  <course>82.93</course>
  <speed>0.36124783736376886</speed>
  <fix>3d</fix>
</trkpt>
<trkpt lat="40.0728187" lon="-105.2309287">
  <ele>1595.13</ele>
  <time>2026-08-27T18:29:34Z</time>
  <course>82.96</course>
  <speed>0.36124783736376886</speed>
  <fix>3d</fix>
</trkpt>
<trkpt lat="40.0728186" lon="-105.2309283">
  <ele>1594.9</ele>
  <time>2026-08-27T18:29:34Z</time>
  <course>272.73</course>
  <speed>0.38</speed>
  <fix>3d</fix>
</trkpt>
<trkpt lat="40.0728187" lon="-105.2309296">
  <ele>1595.25</ele>
  <time>2026-08-27T18:29:34Z</time>
  <course>83.18</course>
  <speed>0.3622154055254967</speed>
  <fix>3d</fix>
</trkpt>
<trkpt lat="40.0728186" lon="-105.2309292">
  <ele>1595.03</ele>
  <time>2026-08-27T18:29:34Z</time>
  <course>272.93</course>
  <speed>0.38</speed>
  <fix>3d</fix>
</trkpt>
<trkpt lat="40.0728188" lon="-105.2309305">
  <ele>1595.35</ele>
  <time>2026-08-27T18:29:34Z</time>
  <course>83.82</course>
  <speed>0.3522782990761707</speed>
  <fix>3d</fix>
</trkpt>
<trkpt lat="40.0728187" lon="-105.2309301">
  <ele>1595.14</ele>
  <time>2026-08-27T18:29:34Z</time>
  <course>273.32</course>
  <speed>0.37</speed>
  <fix>3d</fix>
</trkpt>
<trkpt lat="40.0728188" lon="-105.2309314">
  <ele>1595.42</ele>
  <time>2026-08-27T18:29:34Z</time>
  <course>84.21</course>
  <speed>0.35128336140500593</speed>
  <fix>3d</fix>
</trkpt>
<trkpt lat="40.0728187" lon="-105.230931">
  <ele>1595.24</ele>
  <time>2026-08-27T18:29:34Z</time>
  <course>273.43</course>
  <speed>0.37</speed>
  <fix>3d</fix>
</trkpt>
<trkpt lat="40.0728188" lon="-105.2309322">
  <ele>1595.47</ele>
  <time>2026-08-27T18:29:34Z</time>
  <course>83.76</course>
  <speed>0.34132096331752027</speed>
  <fix>3d</fix>
</trkpt>
<trkpt lat="40.0728188" lon="-105.2309319">
  <ele>1595.3</ele>
  <time>2026-08-27T18:29:34Z</time>
  <course>272.82</course>
  <speed>0.36</speed>
  <fix>3d</fix>
</trkpt>
<trkpt lat="40.0728189" lon="-105.2309331">
  <ele>1595.5</ele>
  <time>2026-08-27T18:29:34Z</time>
  <course>83.28</course>
  <speed>0.34132096331752027</speed>
  <fix>3d</fix>
</trkpt>
<trkpt lat="40.0728188" lon="-105.2309327">
  <ele>1595.34</ele>
  <time>2026-08-27T18:29:34Z</time>
  <course>272.1</course>
  <speed>0.36</speed>
  <fix>3d</fix>
</trkpt>
<trkpt lat="40.0728189" lon="-105.2309339">
  <ele>1595.53</ele>
  <time>2026-08-27T18:29:34Z</time>
  <course>83.1</course>
  <speed>0.3306055050963308</speed>
  <fix>3d</fix>
</trkpt>
<trkpt lat="40.0728188" lon="-105.2309335">
  <ele>1595.37</ele>
  <time>2026-08-27T18:29:34Z</time>
  <course>271.58</course>
  <speed>0.35</speed>
  <fix>3d</fix>
</trkpt>
<trkpt lat="40.0728189" lon="-105.2309347">
  <ele>1595.54</ele>
  <time>2026-08-27T18:29:34Z</time>
  <course>83.04</course>
  <speed>0.32062439083762795</speed>
  <fix>3d</fix>
</trkpt>
<trkpt lat="40.0728188" lon="-105.2309344">
  <ele>1595.39</ele>
  <time>2026-08-27T18:29:34Z</time>
  <course>270.9</course>
  <speed>0.34</speed>
  <fix>3d</fix>
</trkpt>
<trkpt lat="40.0728189" lon="-105.2309355">
  <ele>1595.55</ele>
  <time>2026-08-27T18:29:34Z</time>
  <course>83.03</course>
  <speed>0.32015621187164245</speed>
  <fix>3d</fix>
</trkpt>
<trkpt lat="40.0728188" lon="-105.2309352">
  <ele>1595.4</ele>
  <time>2026-08-27T18:29:34Z</time>
  <course>270.04</course>
  <speed>0.34</speed>
  <fix>3d</fix>
</trkpt>
<trkpt lat="40.0728189" lon="-105.2309363">
  <ele>1595.56</ele>
  <time>2026-08-27T18:29:34Z</time>
  <course>83.03</course>
  <speed>0.3101612483854165</speed>
  <fix>3d</fix>
</trkpt>
<trkpt lat="40.0728188" lon="-105.2309359">
  <ele>1595.41</ele>
  <time>2026-08-27T18:29:34Z</time>
  <course>269.12</course>
  <speed>0.33</speed>
  <fix>3d</fix>
</trkpt>
<trkpt lat="40.0728189" lon="-105.2309371">
  <ele>1595.55</ele>
  <time>2026-08-27T18:29:34Z</time>
  <course>83.06</course>
  <speed>0.31</speed>
  <fix>3d</fix>
</trkpt>
<trkpt lat="40.0728188" lon="-105.2309368">
  <ele>1595.42</ele>
  <time>2026-08-27T18:29:34Z</time>
  <course>268.17</course>
  <speed>0.32</speed>
  <fix>3d</fix>
</trkpt>
<trkpt lat="40.0728189" lon="-105.2309378">
  <ele>1595.55</ele>
  <time>2026-08-27T18:29:34Z</time>
  <course>83.07</course>
  <speed>0.3</speed>
  <fix>3d</fix>
</trkpt>
<trkpt lat="40.0728188" lon="-105.2309375">
  <ele>1595.42</ele>
  <time>2026-08-27T18:29:34Z</time>
  <course>267.22</course>
  <speed>0.32</speed>
  <fix>3d</fix>
</trkpt>
<trkpt lat="40.0728189" lon="-105.2309386">
  <ele>1595.55</ele>
  <time>2026-08-27T18:29:34Z</time>
  <course>83.08</course>
  <speed>0.29</speed>
  <fix>3d</fix>
</trkpt>
<trkpt lat="40.0728188" lon="-105.2309382">
  <ele>1595.42</ele>
  <time>2026-08-27T18:29:34Z</time>
  <course>266.26</course>
  <speed>0.31</speed>
  <fix>3d</fix>
</trkpt>
<trkpt lat="40.0728189" lon="-105.2309393">
  <ele>1595.55</ele>
  <time>2026-08-27T18:29:34Z</time>
  <course>83.09</course>
  <speed>0.29</speed>
  <fix>3d</fix>
</trkpt>
<trkpt lat="40.0728188" lon="-105.230939">
  <ele>1595.43</ele>
  <time>2026-08-27T18:29:34Z</time>
  <course>265.32</course>
  <speed>0.31</speed>
  <fix>3d</fix>
</trkpt>
<trkpt lat="40.0728188" lon="-105.23094">
  <ele>1595.55</ele>
  <time>2026-08-27T18:29:34Z</time>
  <course>83.1</course>
  <speed>0.280178514522438</speed>
  <fix>3d</fix>
</trkpt>
<trkpt lat="40.0728188" lon="-105.2309397">
  <ele>1595.43</ele>
  <time>2026-08-27T18:29:34Z</time>
  <course>264.4</course>
  <speed>0.3</speed>
  <fix>3d</fix>
</trkpt>
<trkpt lat="40.0728188" lon="-105.2309407">
  <ele>1595.56</ele>
  <time>2026-08-27T18:29:34Z</time>
  <course>83.12</course>
  <speed>0.280178514522438</speed>
  <fix>3d</fix>
</trkpt>
<trkpt lat="40.0728187" lon="-105.2309405">
  <ele>1595.43</ele>
  <time>2026-08-27T18:29:34Z</time>
  <course>263.56</course>
  <speed>0.3</speed>
  <fix>3d</fix>
</trkpt>
<trkpt lat="40.0728187" lon="-105.2309414">
  <ele>1595.56</ele>
  <time>2026-08-27T18:29:34Z</time>
  <course>83.13</course>
  <speed>0.27018512172212594</speed>
  <fix>3d</fix>
</trkpt>
<trkpt lat="40.0728186" lon="-105.2309412">
  <ele>1595.43</ele>
  <time>2026-08-27T18:29:34Z</time>
  <course>262.75</course>
  <speed>0.29</speed>
  <fix>3d</fix>
</trkpt>
<trkpt lat="40.0728187" lon="-105.2309421">
  <ele>1595.56</ele>
  <time>2026-08-27T18:29:34Z</time>
  <course>83.15</course>
  <speed>0.27018512172212594</speed>
  <fix>3d</fix>
</trkpt>
<trkpt lat="40.0728186" lon="-105.2309419">
  <ele>1595.43</ele>
  <time>2026-08-27T18:29:34Z</time>
  <course>261.96</course>
  <speed>0.29</speed>
  <fix>3d</fix>
</trkpt>
<trkpt lat="40.0728186" lon="-105.2309428">
  <ele>1595.56</ele>
  <time>2026-08-27T18:29:34Z</time>
  <course>83.15</course>
  <speed>0.260768096208106</speed>
  <fix>3d</fix>
</trkpt>
<trkpt lat="40.0728185" lon="-105.2309425">
  <ele>1595.43</ele>
  <time>2026-08-27T18:29:34Z</time>
  <course>261.21</course>
  <speed>0.29</speed>
  <fix>3d</fix>
</trkpt>
<trkpt lat="40.0728185" lon="-105.2309434">
  <ele>1595.56</ele>
  <time>2026-08-27T18:29:34Z</time>
  <course>83.15</course>
  <speed>0.260768096208106</speed>
  <fix>3d</fix>
</trkpt>
<trkpt lat="40.0728184" lon="-105.2309432">
  <ele>1595.43</ele>
  <time>2026-08-27T18:29:34Z</time>
  <course>260.49</course>
  <speed>0.28</speed>
  <fix>3d</fix>
</trkpt>
<trkpt lat="40.0728184" lon="-105.2309441">
  <ele>1595.55</ele>
  <time>2026-08-27T18:29:34Z</time>
  <course>82.8</course>
  <speed>0.25179356624028343</speed>
  <fix>3d</fix>
</trkpt>
<trkpt lat="40.0728183" lon="-105.2309439">
  <ele>1595.43</ele>
  <time>2026-08-27T18:29:34Z</time>
  <course>259.53</course>
  <speed>0.28</speed>
  <fix>3d</fix>
</trkpt>
<trkpt lat="40.0728183" lon="-105.2309447">
  <ele>1595.55</ele>
  <time>2026-08-27T18:29:34Z</time>
  <course>81.61</course>
  <speed>0.24186773244895649</speed>
  <fix>3d</fix>
</trkpt>
<trkpt lat="40.0728182" lon="-105.2309445">
  <ele>1595.43</ele>
  <time>2026-08-27T18:29:34Z</time>
  <course>258.09</course>
  <speed>0.27</speed>
  <fix>3d</fix>
</trkpt>
<trkpt lat="40.0728182" lon="-105.2309453">
  <ele>1595.55</ele>
  <time>2026-08-27T18:29:34Z</time>
  <course>80.28</course>
  <speed>0.21213203435596426</speed>
  <fix>3d</fix>
</trkpt>
<trkpt lat="40.0728181" lon="-105.2309451">
  <ele>1595.43</ele>
  <time>2026-08-27T18:29:34Z</time>
  <course>256.4</course>
  <speed>0.25</speed>
  <fix>3d</fix>
</trkpt>
<trkpt lat="40.0728181" lon="-105.2309458">
  <ele>1595.55</ele>
  <time>2026-08-27T18:29:34Z</time>
  <course>79.19</course>
  <speed>0.17262676501632068</speed>
  <fix>3d</fix>
</trkpt>
<trkpt lat="40.072818" lon="-105.2309456">
  <ele>1595.44</ele>
  <time>2026-08-27T18:29:34Z</time>
  <course>254.64</course>
  <speed>0.22</speed>
  <fix>3d</fix>
</trkpt>
<trkpt lat="40.072818" lon="-105.2309462">
  <ele>1595.56</ele>
  <time>2026-08-27T18:29:34Z</time>
  <course>78.49</course>
  <speed>0.13152946437965907</speed>
  <fix>3d</fix>
</trkpt>
<trkpt lat="40.0728179" lon="-105.2309461">
  <ele>1595.44</ele>
  <time>2026-08-27T18:29:34Z</time>
  <course>252.91</course>
  <speed>0.18</speed>
  <fix>3d</fix>
</trkpt>
<trkpt lat="40.0728179" lon="-105.2309465">
  <ele>1595.56</ele>
  <time>2026-08-27T18:29:34Z</time>
  <course>78.26</course>
  <speed>0.1019803902718557</speed>
  <fix>3d</fix>
</trkpt>
<trkpt lat="40.0728178" lon="-105.2309465">
  <ele>1595.44</ele>
  <time>2026-08-27T18:29:34Z</time>
  <course>251.28</course>
  <speed>0.15</speed>
  <fix>3d</fix>
</trkpt>
<trkpt lat="40.0728179" lon="-105.2309467">
  <ele>1595.57</ele>
  <time>2026-08-27T18:29:34Z</time>
  <course>78.49</course>
  <speed>0.07071067811865475</speed>
  <fix>3d</fix>
</trkpt>
<trkpt lat="40.0728177" lon="-105.2309468">
  <ele>1595.45</ele>
  <time>2026-08-27T18:29:34Z</time>
  <course>249.46</course>
  <speed>0.11</speed>
  <fix>3d</fix>
</trkpt>
<trkpt lat="40.0728178" lon="-105.2309469">
  <ele>1595.57</ele>
  <time>2026-08-27T18:29:34Z</time>
  <course>79.16</course>
  <speed>0.04</speed>
  <fix>3d</fix>
</trkpt>
<trkpt lat="40.0728177" lon="-105.2309471">
  <ele>1595.45</ele>
  <time>2026-08-27T18:29:34Z</time>
  <course>246.87</course>
  <speed>0.08</speed>
  <fix>3d</fix>
</trkpt>
<trkpt lat="40.0728178" lon="-105.2309471">
  <ele>1595.57</ele>
  <time>2026-08-27T18:29:34Z</time>
  <course>80.26</course>
  <speed>0.02</speed>
  <fix>3d</fix>
</trkpt>
<trkpt lat="40.0728176" lon="-105.2309472">
  <ele>1595.45</ele>
  <time>2026-08-27T18:29:34Z</time>
  <course>242.98</course>
  <speed>0.06</speed>
  <fix>3d</fix>
</trkpt>
<trkpt lat="40.0728177" lon="-105.2309471">
  <ele>1595.57</ele>
  <time>2026-08-27T18:29:34Z</time>
  <course>81.63</course>
  <speed>0.0</speed>
  <fix>3d</fix>
</trkpt>
<trkpt lat="40.0728176" lon="-105.2309473">
  <ele>1595.45</ele>
  <time>2026-08-27T18:29:34Z</time>
  <course>236.35</course>
  <speed>0.04</speed>
  <fix>3d</fix>
</trkpt>
<trkpt lat="40.0728177" lon="-105.2309472">
  <ele>1595.56</ele>
  <time>2026-08-27T18:29:34Z</time>
  <course>83.12</course>
  <speed>0.0</speed>
  <fix>3d</fix>
</trkpt>
<trkpt lat="40.0728175" lon="-105.2309473">
  <ele>1595.45</ele>
  <time>2026-08-27T18:29:34Z</time>
  <course>222.7</course>
  <speed>0.02</speed>
  <fix>3d</fix>
</trkpt>
<trkpt lat="40.0728177" lon="-105.2309472">
  <ele>1595.56</ele>
  <time>2026-08-27T18:29:34Z</time>
  <course>84.62</course>
  <speed>0.01</speed>
  <fix>3d</fix>
</trkpt>
<trkpt lat="40.0728175" lon="-105.2309473">
  <ele>1595.45</ele>
  <time>2026-08-27T18:29:34Z</time>
  <course>200.06</course>
  <speed>0.02</speed>
  <fix>3d</fix>
</trkpt>
<trkpt lat="40.0728176" lon="-105.2309472">
  <ele>1595.56</ele>
  <time>2026-08-27T18:29:34Z</time>
  <course>86.01</course>
  <speed>0.01</speed>
  <fix>3d</fix>
</trkpt>
<trkpt lat="40.0728175" lon="-105.2309473">
  <ele>1595.45</ele>
  <time>2026-08-27T18:29:34Z</time>
  <course>179.98</course>
  <speed>0.01</speed>
  <fix>3d</fix>
</trkpt>
<trkpt lat="40.0728176" lon="-105.2309472">
  <ele>1595.56</ele>
  <time>2026-08-27T18:29:34Z</time>
  <course>87.09</course>
  <speed>0.01</speed>
  <fix>3d</fix>
</trkpt>
<trkpt lat="40.0728174" lon="-105.2309473">
  <ele>1595.44</ele>
  <time>2026-08-27T18:29:34Z</time>
  <course>171.26</course>
  <speed>0.02</speed>
  <fix>3d</fix>
</trkpt>
<trkpt lat="40.0728175" lon="-105.2309472">
  <ele>1595.55</ele>
  <time>2026-08-27T18:29:34Z</time>
  <course>87.78</course>
  <speed>0.01</speed>
  <fix>3d</fix>
</trkpt>
<trkpt lat="40.0728174" lon="-105.2309473">
  <ele>1595.44</ele>
  <time>2026-08-27T18:29:34Z</time>
  <course>170.59</course>
  <speed>0.02</speed>
  <fix>3d</fix>
</trkpt>
<trkpt lat="40.0728175" lon="-105.2309472">
  <ele>1595.55</ele>
  <time>2026-08-27T18:29:34Z</time>
  <course>88.02</course>
  <speed>0.01</speed>
  <fix>3d</fix>
</trkpt>
<trkpt lat="40.0728173" lon="-105.2309473">
  <ele>1595.44</ele>
  <time>2026-08-27T18:29:34Z</time>
  <course>174.08</course>
  <speed>0.02</speed>
  <fix>3d</fix>
</trkpt>
<trkpt lat="40.0728174" lon="-105.2309472">
  <ele>1595.55</ele>
  <time>2026-08-27T18:29:34Z</time>
  <course>87.79</course>
  <speed>0.01</speed>
  <fix>3d</fix>
</trkpt>
<trkpt lat="40.0728172" lon="-105.2309473">
  <ele>1595.45</ele>
  <time>2026-08-27T18:29:34Z</time>
  <course>179.22</course>
  <speed>0.03</speed>
  <fix>3d</fix>
</trkpt>
<trkpt lat="40.0728174" lon="-105.2309472">
  <ele>1595.55</ele>
  <time>2026-08-27T18:29:34Z</time>
  <course>87.09</course>
  <speed>0.01</speed>
  <fix>3d</fix>
</trkpt>
<trkpt lat="40.0728172" lon="-105.2309473">
  <ele>1595.45</ele>
  <time>2026-08-27T18:29:34Z</time>
  <course>184.67</course>
  <speed>0.03</speed>
  <fix>3d</fix>
</trkpt>
<trkpt lat="40.0728173" lon="-105.2309472">
  <ele>1595.55</ele>
  <time>2026-08-27T18:29:34Z</time>
  <course>86.02</course>
  <speed>0.01</speed>
  <fix>3d</fix>
</trkpt>
<trkpt lat="40.0728171" lon="-105.2309473">
  <ele>1595.45</ele>
  <time>2026-08-27T18:29:34Z</time>
  <course>189.1</course>
  <speed>0.03</speed>
  <fix>3d</fix>
</trkpt>
<trkpt lat="40.0728172" lon="-105.2309472">
  <ele>1595.55</ele>
  <time>2026-08-27T18:29:34Z</time>
  <course>84.66</course>
  <speed>0.01</speed>
  <fix>3d</fix>
</trkpt>
<trkpt lat="40.0728171" lon="-105.2309473">
  <ele>1595.45</ele>
  <time>2026-08-27T18:29:34Z</time>
  <course>192.79</course>
  <speed>0.03</speed>
  <fix>3d</fix>
</trkpt>
<trkpt lat="40.0728172" lon="-105.2309472">
  <ele>1595.55</ele>
  <time>2026-08-27T18:29:34Z</time>
  <course>83.17</course>
  <speed>0.01</speed>
  <fix>3d</fix>
</trkpt>
<trkpt lat="40.072817" lon="-105.2309474">
  <ele>1595.46</ele>
  <time>2026-08-27T18:29:34Z</time>
  <course>196.95</course>
  <speed>0.03</speed>
  <fix>3d</fix>
</trkpt>
<trkpt lat="40.0728171" lon="-105.2309473">
  <ele>1595.55</ele>
  <time>2026-08-27T18:29:34Z</time>
  <course>81.64</course>
  <speed>0.01</speed>
  <fix>3d</fix>
</trkpt>
<trkpt lat="40.0728169" lon="-105.2309475">
  <ele>1595.46</ele>
  <time>2026-08-27T18:29:34Z</time>
  <course>201.05</course>
  <speed>0.04</speed>
  <fix>3d</fix>
</trkpt>
<trkpt lat="40.072817" lon="-105.2309473">
  <ele>1595.56</ele>
  <time>2026-08-27T18:29:34Z</time>
  <course>80.25</course>
  <speed>0.01</speed>
  <fix>3d</fix>
</trkpt>
<trkpt lat="40.0728169" lon="-105.2309475">
  <ele>1595.46</ele>
  <time>2026-08-27T18:29:34Z</time>
  <course>204.54</course>
  <speed>0.04</speed>
  <fix>3d</fix>
</trkpt>
<trkpt lat="40.072817" lon="-105.2309474">
  <ele>1595.56</ele>
  <time>2026-08-27T18:29:34Z</time>
  <course>79.16</course>
  <speed>0.01</speed>
  <fix>3d</fix>
</trkpt>
<trkpt lat="40.0728168" lon="-105.2309475">
  <ele>1595.47</ele>
  <time>2026-08-27T18:29:34Z</time>
  <course>207.91</course>
  <speed>0.04</speed>
  <fix>3d</fix>
</trkpt>
<trkpt lat="40.0728169" lon="-105.2309474">
  <ele>1595.56</ele>
  <time>2026-08-27T18:29:34Z</time>
  <course>78.45</course>
  <speed>0.0</speed>
  <fix>3d</fix>
</trkpt>
<trkpt lat="40.0728168" lon="-105.2309475">
  <ele>1595.47</ele>
  <time>2026-08-27T18:29:34Z</time>
  <course>211.09</course>
  <speed>0.04</speed>
  <fix>3d</fix>
</trkpt>
<trkpt lat="40.0728169" lon="-105.2309475">
  <ele>1595.56</ele>
  <time>2026-08-27T18:29:34Z</time>
  <course>78.18</course>
  <speed>0.01</speed>
  <fix>3d</fix>
</trkpt>
<trkpt lat="40.0728167" lon="-105.2309476">
  <ele>1595.47</ele>
  <time>2026-08-27T18:29:34Z</time>
  <course>214.88</course>
  <speed>0.03</speed>
  <fix>3d</fix>
</trkpt>
<trkpt lat="40.0728168" lon="-105.2309475">
  <ele>1595.56</ele>
  <time>2026-08-27T18:29:34Z</time>
  <course>78.38</course>
  <speed>0.01</speed>
  <fix>3d</fix>
</trkpt>
<trkpt lat="40.0728166" lon="-105.2309477">
  <ele>1595.47</ele>
  <time>2026-08-27T18:29:34Z</time>
  <course>219.18</course>
  <speed>0.03</speed>
  <fix>3d</fix>
</trkpt>
<trkpt lat="40.0728168" lon="-105.2309476">
  <ele>1595.56</ele>
  <time>2026-08-27T18:29:34Z</time>
  <course>79.04</course>
  <speed>0.01</speed>
  <fix>3d</fix>
</trkpt>
<trkpt lat="40.0728165" lon="-105.2309477">
  <ele>1595.47</ele>
  <time>2026-08-27T18:29:34Z</time>
  <course>222.54</course>
  <speed>0.03</speed>
  <fix>3d</fix>
</trkpt>
<trkpt lat="40.0728167" lon="-105.2309476">
  <ele>1595.56</ele>
  <time>2026-08-27T18:29:34Z</time>
  <course>80.12</course>
  <speed>0.01</speed>
  <fix>3d</fix>
</trkpt>
<trkpt lat="40.0728165" lon="-105.2309478">
  <ele>1595.48</ele>
  <time>2026-08-27T18:29:34Z</time>
  <course>225.17</course>
  <speed>0.03</speed>
  <fix>3d</fix>
</trkpt>
<trkpt lat="40.0728166" lon="-105.2309477">
  <ele>1595.56</ele>
  <time>2026-08-27T18:29:34Z</time>
  <course>81.46</course>
  <speed>0.01</speed>
  <fix>3d</fix>
</trkpt>
<trkpt lat="40.0728164" lon="-105.2309478">
  <ele>1595.48</ele>
  <time>2026-08-27T18:29:34Z</time>
  <course>227.49</course>
  <speed>0.03</speed>
  <fix>3d</fix>
</trkpt>
<trkpt lat="40.0728166" lon="-105.2309478">
  <ele>1595.56</ele>
  <time>2026-08-27T18:29:34Z</time>
  <course>83.02</course>
  <speed>0.01</speed>
  <fix>3d</fix>
</trkpt>
<trkpt lat="40.0728164" lon="-105.2309479">
  <ele>1595.48</ele>
  <time>2026-08-27T18:29:34Z</time>
  <course>228.92</course>
  <speed>0.03</speed>
  <fix>3d</fix>
</trkpt>
<trkpt lat="40.0728166" lon="-105.2309478">
  <ele>1595.56</ele>
  <time>2026-08-27T18:29:34Z</time>
  <course>84.52</course>
  <speed>0.01</speed>
  <fix>3d</fix>
</trkpt>
<trkpt lat="40.0728164" lon="-105.230948">
  <ele>1595.48</ele>
  <time>2026-08-27T18:29:34Z</time>
  <course>228.84</course>
  <speed>0.03</speed>
  <fix>3d</fix>
</trkpt>
<trkpt lat="40.0728165" lon="-105.2309479">
  <ele>1595.56</ele>
  <time>2026-08-27T18:29:34Z</time>
  <course>85.89</course>
  <speed>0.01</speed>
  <fix>3d</fix>
</trkpt>
<trkpt lat="40.0728164" lon="-105.230948">
  <ele>1595.48</ele>
  <time>2026-08-27T18:29:34Z</time>
  <course>227.37</course>
  <speed>0.03</speed>
  <fix>3d</fix>
</trkpt>
<trkpt lat="40.0728165" lon="-105.230948">
  <ele>1595.56</ele>
  <time>2026-08-27T18:29:34Z</time>
  <course>87.0</course>
  <speed>0.01</speed>
  <fix>3d</fix>
</trkpt>
<trkpt lat="40.0728163" lon="-105.2309481">
  <ele>1595.48</ele>
  <time>2026-08-27T18:29:34Z</time>
  <course>225.07</course>
  <speed>0.03</speed>
  <fix>3d</fix>
</trkpt>
<trkpt lat="40.0728164" lon="-105.230948">
  <ele>1595.56</ele>
  <time>2026-08-27T18:29:34Z</time>
  <course>87.73</course>
  <speed>0.01</speed>
  <fix>3d</fix>
</trkpt>
<trkpt lat="40.0728163" lon="-105.2309482">
  <ele>1595.48</ele>
  <time>2026-08-27T18:29:34Z</time>
  <course>222.14</course>
  <speed>0.03</speed>
  <fix>3d</fix>
</trkpt>
<trkpt lat="40.0728164" lon="-105.2309481">
  <ele>1595.56</ele>
  <time>2026-08-27T18:29:34Z</time>
  <course>88.0</course>
  <speed>0.01414213562373095</speed>
  <fix>3d</fix>
</trkpt>
<trkpt lat="40.0728162" lon="-105.2309482">
  <ele>1595.48</ele>
  <time>2026-08-27T18:29:34Z</time>
  <course>218.55</course>
  <speed>0.03</speed>
  <fix>3d</fix>
</trkpt>
<trkpt lat="40.0728163" lon="-105.2309481">
  <ele>1595.56</ele>
  <time>2026-08-27T18:29:34Z</time>
  <course>87.78</course>
  <speed>0.01</speed>
  <fix>3d</fix>
</trkpt>
<trkpt lat="40.0728162" lon="-105.2309483">
  <ele>1595.48</ele>
  <time>2026-08-27T18:29:34Z</time>
  <course>214.65</course>
  <speed>0.04</speed>
  <fix>3d</fix>
</trkpt>
<trkpt lat="40.0728162" lon="-105.2309482">
  <ele>1595.56</ele>
  <time>2026-08-27T18:29:34Z</time>
  <course>87.12</course>
  <speed>0.01</speed>
  <fix>3d</fix>
</trkpt>
<trkpt lat="40.0728161" lon="-105.2309483">
  <ele>1595.48</ele>
  <time>2026-08-27T18:29:34Z</time>
  <course>211.17</course>
  <speed>0.04</speed>
  <fix>3d</fix>
</trkpt>
<trkpt lat="40.0728162" lon="-105.2309482">
  <ele>1595.56</ele>
  <time>2026-08-27T18:29:34Z</time>
  <course>86.04</course>
  <speed>0.01</speed>
  <fix>3d</fix>
</trkpt>
<trkpt lat="40.072816" lon="-105.2309484">
  <ele>1595.48</ele>
  <time>2026-08-27T18:29:34Z</time>
  <course>208.78</course>
  <speed>0.04</speed>
  <fix>3d</fix>
</trkpt>
<trkpt lat="40.0728161" lon="-105.2309483">
  <ele>1595.56</ele>
  <time>2026-08-27T18:29:34Z</time>
  <course>84.69</course>
  <speed>0.01</speed>
  <fix>3d</fix>
</trkpt>
<trkpt lat="40.0728159" lon="-105.2309485">
  <ele>1595.49</ele>
  <time>2026-08-27T18:29:34Z</time>
  <course>206.94</course>
  <speed>0.04</speed>
  <fix>3d</fix>
</trkpt>
<trkpt lat="40.072816" lon="-105.2309483">
  <ele>1595.56</ele>
  <time>2026-08-27T18:29:34Z</time>
  <course>83.17</course>
  <speed>0.01</speed>
  <fix>3d</fix>
</trkpt>
<trkpt lat="40.0728159" lon="-105.2309485">
  <ele>1595.49</ele>
  <time>2026-08-27T18:29:34Z</time>
  <course>205.59</course>
  <speed>0.04</speed>
  <fix>3d</fix>
</trkpt>
<trkpt lat="40.072816" lon="-105.2309484">
  <ele>1595.56</ele>
  <time>2026-08-27T18:29:34Z</time>
  <course>81.67</course>
  <speed>0.01</speed>
  <fix>3d</fix>
</trkpt>
<trkpt lat="40.0728158" lon="-105.2309485">
  <ele>1595.49</ele>
  <time>2026-08-27T18:29:34Z</time>
  <course>204.82</course>
  <speed>0.03</speed>
  <fix>3d</fix>
</trkpt>
<trkpt lat="40.0728159" lon="-105.2309484">
  <ele>1595.56</ele>
  <time>2026-08-27T18:29:34Z</time>
  <course>80.29</course>
  <speed>0.01</speed>
  <fix>3d</fix>
</trkpt>
<trkpt lat="40.0728158" lon="-105.2309485">
  <ele>1595.49</ele>
  <time>2026-08-27T18:29:34Z</time>
  <course>204.64</course>
  <speed>0.03</speed>
  <fix>3d</fix>
</trkpt>
<trkpt lat="40.0728159" lon="-105.2309484">
  <ele>1595.56</ele>
  <time>2026-08-27T18:29:34Z</time>
  <course>79.21</course>
  <speed>0.01</speed>
  <fix>3d</fix>
</trkpt>
<trkpt lat="40.0728157" lon="-105.2309485">
  <ele>1595.49</ele>
  <time>2026-08-27T18:29:34Z</time>
  <course>205.8</course>
  <speed>0.03</speed>
  <fix>3d</fix>
</trkpt>
<trkpt lat="40.0728158" lon="-105.2309485">
  <ele>1595.56</ele>
  <time>2026-08-27T18:29:34Z</time>
  <course>78.49</course>
  <speed>0.0</speed>
  <fix>3d</fix>
</trkpt>
<trkpt lat="40.0728157" lon="-105.2309486">
  <ele>1595.49</ele>
  <time>2026-08-27T18:29:34Z</time>
  <course>208.26</course>
  <speed>0.03</speed>
  <fix>3d</fix>
</trkpt>
<trkpt lat="40.0728158" lon="-105.2309485">
  <ele>1595.56</ele>
  <time>2026-08-27T18:29:34Z</time>
  <course>78.22</course>
  <speed>0.0</speed>
  <fix>3d</fix>
</trkpt>
<trkpt lat="40.0728156" lon="-105.2309487">
  <ele>1595.49</ele>
  <time>2026-08-27T18:29:34Z</time>
  <course>211.92</course>
  <speed>0.03</speed>
  <fix>3d</fix>
</trkpt>
<trkpt lat="40.0728157" lon="-105.2309486">
  <ele>1595.56</ele>
  <time>2026-08-27T18:29:34Z</time>
  <course>78.43</course>
  <speed>0.0</speed>
  <fix>3d</fix>
</trkpt>
<trkpt lat="40.0728156" lon="-105.2309487">
  <ele>1595.49</ele>
  <time>2026-08-27T18:29:34Z</time>
  <course>216.9</course>
  <speed>0.02</speed>
  <fix>3d</fix>
</trkpt>
<trkpt lat="40.0728157" lon="-105.2309486">
  <ele>1595.56</ele>
  <time>2026-08-27T18:29:34Z</time>
  <course>79.1</course>
  <speed>0.0</speed>
  <fix>3d</fix>
</trkpt>
<trkpt lat="40.0728155" lon="-105.2309487">
  <ele>1595.49</ele>
  <time>2026-08-27T18:29:34Z</time>
  <course>221.79</course>
  <speed>0.02</speed>
  <fix>3d</fix>
</trkpt>
<trkpt lat="40.0728157" lon="-105.2309487">
  <ele>1595.57</ele>
  <time>2026-08-27T18:29:34Z</time>
  <course>80.2</course>
  <speed>0.0</speed>
  <fix>3d</fix>
</trkpt>
<trkpt lat="40.0728155" lon="-105.2309488">
  <ele>1595.49</ele>
  <time>2026-08-27T18:29:34Z</time>
  <course>225.88</course>
  <speed>0.02</speed>
  <fix>3d</fix>
</trkpt>
<trkpt lat="40.0728156" lon="-105.2309487">
  <ele>1595.57</ele>
  <time>2026-08-27T18:29:34Z</time>
  <course>81.59</course>
  <speed>0.01</speed>
  <fix>3d</fix>
</trkpt>
<trkpt lat="40.0728155" lon="-105.2309489">
  <ele>1595.49</ele>
  <time>2026-08-27T18:29:34Z</time>
  <course>229.17</course>
  <speed>0.02</speed>
  <fix>3d</fix>
</trkpt>
<trkpt lat="40.0728156" lon="-105.2309488">
  <ele>1595.57</ele>
  <time>2026-08-27T18:29:34Z</time>
  <course>83.09</course>
  <speed>0.01</speed>
  <fix>3d</fix>
</trkpt>
<trkpt lat="40.0728154" lon="-105.2309489">
  <ele>1595.49</ele>
  <time>2026-08-27T18:29:34Z</time>
  <course>230.94</course>
  <speed>0.03</speed>
  <fix>3d</fix>
</trkpt>
<trkpt lat="40.0728156" lon="-105.2309488">
  <ele>1595.57</ele>
  <time>2026-08-27T18:29:34Z</time>
  <course>84.59</course>
  <speed>0.01</speed>
  <fix>3d</fix>
</trkpt>
<trkpt lat="40.0728153" lon="-105.230949">
  <ele>1595.49</ele>
  <time>2026-08-27T18:29:34Z</time>
  <course>231.71</course>
  <speed>0.03</speed>
  <fix>3d</fix>
</trkpt>
<trkpt lat="40.0728155" lon="-105.2309489">
  <ele>1595.57</ele>
  <time>2026-08-27T18:29:34Z</time>
  <course>85.96</course>
  <speed>0.01</speed>
  <fix>3d</fix>
</trkpt>
<trkpt lat="40.0728153" lon="-105.230949">
  <ele>1595.49</ele>
  <time>2026-08-27T18:29:34Z</time>
  <course>231.24</course>
  <speed>0.03</speed>
  <fix>3d</fix>
</trkpt>
<trkpt lat="40.0728155" lon="-105.230949">
  <ele>1595.57</ele>
  <time>2026-08-27T18:29:34Z</time>
  <course>87.07</course>
  <speed>0.01</speed>
  <fix>3d</fix>
</trkpt>
<trkpt lat="40.0728153" lon="-105.230949">
  <ele>1595.49</ele>
  <time>2026-08-27T18:29:34Z</time>
  <course>229.4</course>
  <speed>0.03</speed>
  <fix>3d</fix>
</trkpt>
<trkpt lat="40.0728154" lon="-105.230949">
  <ele>1595.56</ele>
  <time>2026-08-27T18:29:34Z</time>
  <course>87.8</course>
  <speed>0.01</speed>
  <fix>3d</fix>
</trkpt>
<trkpt lat="40.0728152" lon="-105.2309491">
  <ele>1595.49</ele>
  <time>2026-08-27T18:29:34Z</time>
  <course>226.67</course>
  <speed>0.03</speed>
  <fix>3d</fix>
</trkpt>
<trkpt lat="40.0728154" lon="-105.2309491">
  <ele>1595.56</ele>
  <time>2026-08-27T18:29:34Z</time>
  <course>88.03</course>
  <speed>0.01414213562373095</speed>
  <fix>3d</fix>
</trkpt>
<trkpt lat="40.0728152" lon="-105.2309492">
  <ele>1595.49</ele>
  <time>2026-08-27T18:29:34Z</time>
  <course>222.56</course>
  <speed>0.03</speed>
  <fix>3d</fix>
</trkpt>
<trkpt lat="40.0728153" lon="-105.2309491">
  <ele>1595.56</ele>
  <time>2026-08-27T18:29:34Z</time>
  <course>87.81</course>
  <speed>0.01414213562373095</speed>
  <fix>3d</fix>
</trkpt>
<trkpt lat="40.0728152" lon="-105.2309492">
  <ele>1595.49</ele>
  <time>2026-08-27T18:29:34Z</time>
  <course>218.17</course>
  <speed>0.03</speed>
  <fix>3d</fix>
</trkpt>
<trkpt lat="40.0728153" lon="-105.2309492">
  <ele>1595.55</ele>
  <time>2026-08-27T18:29:34Z</time>
  <course>87.13</course>
  <speed>0.01</speed>
  <fix>3d</fix>
</trkpt>
<trkpt lat="40.0728151" lon="-105.2309493">
  <ele>1595.49</ele>
  <time>2026-08-27T18:29:34Z</time>
  <course>214.2</course>
  <speed>0.03</speed>
  <fix>3d</fix>
</trkpt>
<trkpt lat="40.0728152" lon="-105.2309492">
  <ele>1595.55</ele>
  <time>2026-08-27T18:29:34Z</time>
  <course>86.06</course>
  <speed>0.01</speed>
  <fix>3d</fix>
</trkpt>
<trkpt lat="40.0728151" lon="-105.2309494">
  <ele>1595.49</ele>
  <time>2026-08-27T18:29:34Z</time>
  <course>210.06</course>
  <speed>0.03</speed>
  <fix>3d</fix>
</trkpt>
<trkpt lat="40.0728151" lon="-105.2309493">
  <ele>1595.54</ele>
  <time>2026-08-27T18:29:34Z</time>
  <course>84.69</course>
  <speed>0.01</speed>
  <fix>3d</fix>
</trkpt>
<trkpt lat="40.072815" lon="-105.2309494">
  <ele>1595.49</ele>
  <time>2026-08-27T18:29:34Z</time>
  <course>206.4</course>
  <speed>0.03</speed>
  <fix>3d</fix>
</trkpt>
<trkpt lat="40.0728151" lon="-105.2309493">
  <ele>1595.55</ele>
  <time>2026-08-27T18:29:34Z</time>
  <course>83.18</course>
  <speed>0.01</speed>
  <fix>3d</fix>
</trkpt>
<trkpt lat="40.0728149" lon="-105.2309495">
  <ele>1595.49</ele>
  <time>2026-08-27T18:29:34Z</time>
  <course>204.23</course>
  <speed>0.03</speed>
  <fix>3d</fix>
</trkpt>
<trkpt lat="40.072815" lon="-105.2309493">
  <ele>1595.55</ele>
  <time>2026-08-27T18:29:34Z</time>
  <course>81.7</course>
  <speed>0.01</speed>
  <fix>3d</fix>
</trkpt>
<trkpt lat="40.0728149" lon="-105.2309495">
  <ele>1595.49</ele>
  <time>2026-08-27T18:29:34Z</time>
  <course>203.98</course>
  <speed>0.03</speed>
  <fix>3d</fix>
</trkpt>
<trkpt lat="40.072815" lon="-105.2309494">
  <ele>1595.55</ele>
  <time>2026-08-27T18:29:34Z</time>
  <course>80.31</course>
  <speed>0.01</speed>
  <fix>3d</fix>
</trkpt>
<trkpt lat="40.0728148" lon="-105.2309495">
  <ele>1595.5</ele>
  <time>2026-08-27T18:29:34Z</time>
  <course>205.36</course>
  <speed>0.03</speed>
  <fix>3d</fix>
</trkpt>
<trkpt lat="40.0728149" lon="-105.2309494">
  <ele>1595.56</ele>
  <time>2026-08-27T18:29:34Z</time>
  <course>79.21</course>
  <speed>0.0</speed>
  <fix>3d</fix>
</trkpt>
<trkpt lat="40.0728147" lon="-105.2309495">
  <ele>1595.5</ele>
  <time>2026-08-27T18:29:34Z</time>
  <course>207.79</course>
  <speed>0.03</speed>
  <fix>3d</fix>
</trkpt>
<trkpt lat="40.0728149" lon="-105.2309495">
  <ele>1595.57</ele>
  <time>2026-08-27T18:29:34Z</time>
  <course>78.52</course>
  <speed>0.0</speed>
  <fix>3d</fix>
</trkpt>
<trkpt lat="40.0728147" lon="-105.2309495">
  <ele>1595.51</ele>
  <time>2026-08-27T18:29:34Z</time>
  <course>210.51</course>
  <speed>0.03</speed>
  <fix>3d</fix>
</trkpt>
<trkpt lat="40.0728148" lon="-105.2309495">
  <ele>1595.58</ele>
  <time>2026-08-27T18:29:34Z</time>
  <course>78.27</course>
  <speed>0.0</speed>
  <fix>3d</fix>
</trkpt>
<trkpt lat="40.0728146" lon="-105.2309496">
  <ele>1595.51</ele>
  <time>2026-08-27T18:29:34Z</time>
  <course>213.49</course>
  <speed>0.03</speed>
  <fix>3d</fix>
</trkpt>
<trkpt lat="40.0728148" lon="-105.2309495">
  <ele>1595.58</ele>
  <time>2026-08-27T18:29:34Z</time>
  <course>78.5</course>
  <speed>0.0</speed>
  <fix>3d</fix>
</trkpt>
<trkpt lat="40.0728146" lon="-105.2309497">
  <ele>1595.51</ele>
  <time>2026-08-27T18:29:34Z</time>
  <course>217.76</course>
  <speed>0.02</speed>
  <fix>3d</fix>
</trkpt>
<trkpt lat="40.0728147" lon="-105.2309496">
  <ele>1595.59</ele>
  <time>2026-08-27T18:29:34Z</time>
  <course>79.21</course>
  <speed>0.0</speed>
  <fix>3d</fix>
</trkpt>
<trkpt lat="40.0728146" lon="-105.2309497">
  <ele>1595.51</ele>
  <time>2026-08-27T18:29:34Z</time>
  <course>223.04</course>
  <speed>0.02</speed>
  <fix>3d</fix>
</trkpt>
<trkpt lat="40.0728147" lon="-105.2309496">
  <ele>1595.58</ele>
  <time>2026-08-27T18:29:34Z</time>
  <course>80.26</course>
  <speed>0.0</speed>
  <fix>3d</fix>
</trkpt>
<trkpt lat="40.0728146" lon="-105.2309497">
  <ele>1595.5</ele>
  <time>2026-08-27T18:29:34Z</time>
  <course>226.74</course>
  <speed>0.02</speed>
  <fix>3d</fix>
</trkpt>
<trkpt lat="40.0728147" lon="-105.2309497">
  <ele>1595.58</ele>
  <time>2026-08-27T18:29:35Z</time>
  <course>81.61</course>
  <speed>0.01</speed>
  <fix>3d</fix>
</trkpt>
<trkpt lat="40.0728145" lon="-105.2309498">
  <ele>1595.5</ele>
  <time>2026-08-27T18:29:35Z</time>
  <course>228.39</course>
  <speed>0.02</speed>
  <fix>3d</fix>
</trkpt>
<trkpt lat="40.0728146" lon="-105.2309497">
  <ele>1595.58</ele>
  <time>2026-08-27T18:29:35Z</time>
  <course>83.12</course>
  <speed>0.01</speed>
  <fix>3d</fix>
</trkpt>
<trkpt lat="40.0728145" lon="-105.2309499">
  <ele>1595.5</ele>
  <time>2026-08-27T18:29:35Z</time>
  <course>229.25</course>
  <speed>0.02</speed>
  <fix>3d</fix>
</trkpt>
<trkpt lat="40.0728146" lon="-105.2309498">
  <ele>1595.57</ele>
  <time>2026-08-27T18:29:35Z</time>
  <course>84.59</course>
  <speed>0.01</speed>
  <fix>3d</fix>
</trkpt>
<trkpt lat="40.0728145" lon="-105.2309499">
  <ele>1595.49</ele>
  <time>2026-08-27T18:29:35Z</time>
  <course>228.54</course>
  <speed>0.02</speed>
  <fix>3d</fix>
</trkpt>
<trkpt lat="40.0728146" lon="-105.2309498">
  <ele>1595.57</ele>
  <time>2026-08-27T18:29:35Z</time>
  <course>85.98</course>
  <speed>0.01</speed>
  <fix>3d</fix>
</trkpt>
<trkpt lat="40.0728144" lon="-105.2309499">
  <ele>1595.49</ele>
  <time>2026-08-27T18:29:35Z</time>
  <course>226.8</course>
  <speed>0.03</speed>
  <fix>3d</fix>
</trkpt>
<trkpt lat="40.0728145" lon="-105.2309499">
  <ele>1595.57</ele>
  <time>2026-08-27T18:29:35Z</time>
  <course>87.07</course>
  <speed>0.01</speed>
  <fix>3d</fix>
</trkpt>
<trkpt lat="40.0728144" lon="-105.23095">
  <ele>1595.48</ele>
  <time>2026-08-27T18:29:35Z</time>
  <course>224.4</course>
  <speed>0.03</speed>
  <fix>3d</fix>
</trkpt>
<trkpt lat="40.0728145" lon="-105.2309499">
  <ele>1595.56</ele>
  <time>2026-08-27T18:29:35Z</time>
  <course>87.78</course>
  <speed>0.01</speed>
  <fix>3d</fix>
</trkpt>
<trkpt lat="40.0728143" lon="-105.2309501">
  <ele>1595.48</ele>
  <time>2026-08-27T18:29:35Z</time>
  <course>221.65</course>
  <speed>0.03</speed>
  <fix>3d</fix>
</trkpt>
<trkpt lat="40.0728144" lon="-105.23095">
  <ele>1595.57</ele>
  <time>2026-08-27T18:29:35Z</time>
  <course>88.05</course>
  <speed>0.01</speed>
  <fix>3d</fix>
</trkpt>
<trkpt lat="40.0728143" lon="-105.2309501">
  <ele>1595.48</ele>
  <time>2026-08-27T18:29:35Z</time>
  <course>218.83</course>
  <speed>0.03</speed>
  <fix>3d</fix>
</trkpt>
<trkpt lat="40.0728144" lon="-105.23095">
  <ele>1595.57</ele>
  <time>2026-08-27T18:29:35Z</time>
  <course>87.84</course>
  <speed>0.01</speed>
  <fix>3d</fix>
</trkpt>
<trkpt lat="40.0728142" lon="-105.2309502">
  <ele>1595.48</ele>
  <time>2026-08-27T18:29:35Z</time>
  <course>215.62</course>
  <speed>0.03</speed>
  <fix>3d</fix>
</trkpt>
<trkpt lat="40.0728143" lon="-105.2309501">
  <ele>1595.56</ele>
  <time>2026-08-27T18:29:35Z</time>
  <course>87.18</course>
  <speed>0.01</speed>
  <fix>3d</fix>
</trkpt>
<trkpt lat="40.0728141" lon="-105.2309502">
  <ele>1595.48</ele>
  <time>2026-08-27T18:29:35Z</time>
  <course>212.5</course>
  <speed>0.03</speed>
  <fix>3d</fix>
</trkpt>
<trkpt lat="40.0728143" lon="-105.2309501">
  <ele>1595.56</ele>
  <time>2026-08-27T18:29:35Z</time>
  <course>86.09</course>
  <speed>0.01</speed>
  <fix>3d</fix>
</trkpt>
<trkpt lat="40.0728141" lon="-105.2309502">
  <ele>1595.48</ele>
  <time>2026-08-27T18:29:35Z</time>
  <course>210.23</course>
  <speed>0.03</speed>
  <fix>3d</fix>
</trkpt>
<trkpt lat="40.0728142" lon="-105.2309502">
  <ele>1595.56</ele>
  <time>2026-08-27T18:29:35Z</time>
  <course>84.72</course>
  <speed>0.01</speed>
  <fix>3d</fix>
</trkpt>
<trkpt lat="40.072814" lon="-105.2309503">
  <ele>1595.48</ele>
  <time>2026-08-27T18:29:35Z</time>
  <course>208.49</course>
  <speed>0.03</speed>
  <fix>3d</fix>
</trkpt>
<trkpt lat="40.0728141" lon="-105.2309502">
  <ele>1595.56</ele>
  <time>2026-08-27T18:29:35Z</time>
  <course>83.22</course>
  <speed>0.01</speed>
  <fix>3d</fix>
</trkpt>
<trkpt lat="40.072814" lon="-105.2309504">
  <ele>1595.47</ele>
  <time>2026-08-27T18:29:35Z</time>
  <course>207.06</course>
  <speed>0.03</speed>
  <fix>3d</fix>
</trkpt>
<trkpt lat="40.0728141" lon="-105.2309503">
  <ele>1595.57</ele>
  <time>2026-08-27T18:29:35Z</time>
  <course>81.72</course>
  <speed>0.01</speed>
  <fix>3d</fix>
</trkpt>
<trkpt lat="40.0728139" lon="-105.2309504">
  <ele>1595.47</ele>
  <time>2026-08-27T18:29:35Z</time>
  <course>206.17</course>
  <speed>0.03</speed>
  <fix>3d</fix>
</trkpt>
<trkpt lat="40.072814" lon="-105.2309503">
  <ele>1595.57</ele>
  <time>2026-08-27T18:29:35Z</time>
  <course>80.36</course>
  <speed>0.01</speed>
  <fix>3d</fix>
</trkpt>
<trkpt lat="40.0728139" lon="-105.2309504">
  <ele>1595.47</ele>
  <time>2026-08-27T18:29:35Z</time>
  <course>206.38</course>
  <speed>0.03</speed>
  <fix>3d</fix>
</trkpt>
<trkpt lat="40.072814" lon="-105.2309503">
  <ele>1595.57</ele>
  <time>2026-08-27T18:29:35Z</time>
  <course>79.29</course>
  <speed>0.0</speed>
  <fix>3d</fix>
</trkpt>
<trkpt lat="40.0728138" lon="-105.2309504">
  <ele>1595.47</ele>
  <time>2026-08-27T18:29:35Z</time>
  <course>208.24</course>
  <speed>0.03</speed>
  <fix>3d</fix>
</trkpt>
<trkpt lat="40.0728139" lon="-105.2309504">
  <ele>1595.57</ele>
  <time>2026-08-27T18:29:35Z</time>
  <course>78.56</course>
  <speed>0.0</speed>
  <fix>3d</fix>
</trkpt>
<trkpt lat="40.0728138" lon="-105.2309504">
  <ele>1595.47</ele>
  <time>2026-08-27T18:29:35Z</time>
  <course>211.07</course>
  <speed>0.03</speed>
  <fix>3d</fix>
</trkpt>
<trkpt lat="40.0728139" lon="-105.2309504">
  <ele>1595.57</ele>
  <time>2026-08-27T18:29:35Z</time>
  <course>78.28</course>
  <speed>0.0</speed>
  <fix>3d</fix>
</trkpt>
<trkpt lat="40.0728137" lon="-105.2309505">
  <ele>1595.47</ele>
  <time>2026-08-27T18:29:35Z</time>
  <course>214.51</course>
  <speed>0.02</speed>
  <fix>3d</fix>
</trkpt>
<trkpt lat="40.0728138" lon="-105.2309504">
  <ele>1595.57</ele>
  <time>2026-08-27T18:29:35Z</time>
  <course>78.5</course>
  <speed>0.0</speed>
  <fix>3d</fix>
</trkpt>
<trkpt lat="40.0728137" lon="-105.2309506">
  <ele>1595.46</ele>
  <time>2026-08-27T18:29:35Z</time>
  <course>218.07</course>
  <speed>0.02</speed>
  <fix>3d</fix>
</trkpt>
<trkpt lat="40.0728138" lon="-105.2309505">
  <ele>1595.57</ele>
  <time>2026-08-27T18:29:35Z</time>
  <course>79.22</course>
  <speed>0.0</speed>
  <fix>3d</fix>
</trkpt>
<trkpt lat="40.0728137" lon="-105.2309506">
  <ele>1595.46</ele>
  <time>2026-08-27T18:29:35Z</time>
  <course>221.6</course>
  <speed>0.02</speed>
  <fix>3d</fix>
</trkpt>
<trkpt lat="40.0728138" lon="-105.2309505">
  <ele>1595.57</ele>
  <time>2026-08-27T18:29:35Z</time>
  <course>80.26</course>
  <speed>0.0</speed>
  <fix>3d</fix>
</trkpt>
<trkpt lat="40.0728136" lon="-105.2309506">
  <ele>1595.46</ele>
  <time>2026-08-27T18:29:35Z</time>
  <course>224.6</course>
  <speed>0.02</speed>
  <fix>3d</fix>
</trkpt>
<trkpt lat="40.0728137" lon="-105.2309506">
  <ele>1595.57</ele>
  <time>2026-08-27T18:29:35Z</time>
  <course>81.62</course>
  <speed>0.01</speed>
  <fix>3d</fix>
</trkpt>
<trkpt lat="40.0728135" lon="-105.2309507">
  <ele>1595.45</ele>
  <time>2026-08-27T18:29:35Z</time>
  <course>227.45</course>
  <speed>0.02</speed>
  <fix>3d</fix>
</trkpt>
<trkpt lat="40.0728137" lon="-105.2309506">
  <ele>1595.56</ele>
  <time>2026-08-27T18:29:35Z</time>
  <course>83.11</course>
  <speed>0.01</speed>
  <fix>3d</fix>
</trkpt>
<trkpt lat="40.0728135" lon="-105.2309508">
  <ele>1595.45</ele>
  <time>2026-08-27T18:29:35Z</time>
  <course>229.2</course>
  <speed>0.02</speed>
  <fix>3d</fix>
</trkpt>
<trkpt lat="40.0728137" lon="-105.2309507">
  <ele>1595.56</ele>
  <time>2026-08-27T18:29:35Z</time>
  <course>84.61</course>
  <speed>0.01</speed>
  <fix>3d</fix>
</trkpt>
<trkpt lat="40.0728134" lon="-105.2309508">
  <ele>1595.45</ele>
  <time>2026-08-27T18:29:35Z</time>
  <course>229.1</course>
  <speed>0.03</speed>
  <fix>3d</fix>
</trkpt>
<trkpt lat="40.0728136" lon="-105.2309507">
  <ele>1595.55</ele>
  <time>2026-08-27T18:29:35Z</time>
  <course>85.97</course>
  <speed>0.01</speed>
  <fix>3d</fix>
</trkpt>
<trkpt lat="40.0728134" lon="-105.2309509">
  <ele>1595.45</ele>
  <time>2026-08-27T18:29:35Z</time>
  <course>228.21</course>
  <speed>0.03</speed>
  <fix>3d</fix>
</trkpt>
<trkpt lat="40.0728136" lon="-105.2309508">
  <ele>1595.55</ele>
  <time>2026-08-27T18:29:35Z</time>
  <course>87.06</course>
  <speed>0.01</speed>
  <fix>3d</fix>
</trkpt>
<trkpt lat="40.0728134" lon="-105.2309509">
  <ele>1595.45</ele>
  <time>2026-08-27T18:29:35Z</time>
  <course>225.73</course>
  <speed>0.03</speed>
  <fix>3d</fix>
</trkpt>
<trkpt lat="40.0728135" lon="-105.2309509">
  <ele>1595.55</ele>
  <time>2026-08-27T18:29:35Z</time>
  <course>87.76</course>
  <speed>0.01</speed>
  <fix>3d</fix>
</trkpt>
<trkpt lat="40.0728134" lon="-105.2309509">
  <ele>1595.45</ele>
  <time>2026-08-27T18:29:35Z</time>
  <course>221.67</course>
  <speed>0.03</speed>
  <fix>3d</fix>
</trkpt>
<trkpt lat="40.0728135" lon="-105.2309509">
  <ele>1595.55</ele>
  <time>2026-08-27T18:29:35Z</time>
  <course>88.03</course>
  <speed>0.01414213562373095</speed>
  <fix>3d</fix>
</trkpt>
<trkpt lat="40.0728133" lon="-105.230951">
  <ele>1595.45</ele>
  <time>2026-08-27T18:29:35Z</time>
  <course>217.61</course>
  <speed>0.03</speed>
  <fix>3d</fix>
</trkpt>
<trkpt lat="40.0728134" lon="-105.2309509">
  <ele>1595.55</ele>
  <time>2026-08-27T18:29:35Z</time>
  <course>87.81</course>
  <speed>0.01</speed>
  <fix>3d</fix>
</trkpt>
<trkpt lat="40.0728133" lon="-105.2309511">
  <ele>1595.45</ele>
  <time>2026-08-27T18:29:35Z</time>
  <course>214.05</course>
  <speed>0.03</speed>
  <fix>3d</fix>
</trkpt>
<trkpt lat="40.0728134" lon="-105.230951">
  <ele>1595.55</ele>
  <time>2026-08-27T18:29:35Z</time>
  <course>87.13</course>
  <speed>0.01</speed>
  <fix>3d</fix>
</trkpt>
<trkpt lat="40.0728132" lon="-105.2309511">
  <ele>1595.45</ele>
  <time>2026-08-27T18:29:35Z</time>
  <course>210.25</course>
  <speed>0.03</speed>
  <fix>3d</fix>
</trkpt>
<trkpt lat="40.0728133" lon="-105.230951">
  <ele>1595.55</ele>
  <time>2026-08-27T18:29:35Z</time>
  <course>86.07</course>
  <speed>0.01</speed>
  <fix>3d</fix>
</trkpt>
<trkpt lat="40.0728132" lon="-105.2309511">
  <ele>1595.46</ele>
  <time>2026-08-27T18:29:35Z</time>
  <course>206.73</course>
  <speed>0.03</speed>
  <fix>3d</fix>
</trkpt>
<trkpt lat="40.0728132" lon="-105.2309511">
  <ele>1595.56</ele>
  <time>2026-08-27T18:29:35Z</time>
  <course>84.72</course>
  <speed>0.01</speed>
  <fix>3d</fix>
</trkpt>
<trkpt lat="40.0728131" lon="-105.2309512">
  <ele>1595.46</ele>
  <time>2026-08-27T18:29:35Z</time>
  <course>203.63</course>
  <speed>0.03</speed>
  <fix>3d</fix>
</trkpt>
<trkpt lat="40.0728132" lon="-105.2309511">
  <ele>1595.56</ele>
  <time>2026-08-27T18:29:35Z</time>
  <course>83.22</course>
  <speed>0.01</speed>
  <fix>3d</fix>
</trkpt>
<trkpt lat="40.072813" lon="-105.2309513">
  <ele>1595.46</ele>
  <time>2026-08-27T18:29:35Z</time>
  <course>201.21</course>
  <speed>0.03</speed>
  <fix>3d</fix>
</trkpt>
<trkpt lat="40.0728131" lon="-105.2309511">
  <ele>1595.56</ele>
  <time>2026-08-27T18:29:35Z</time>
  <course>81.74</course>
  <speed>0.01</speed>
  <fix>3d</fix>
</trkpt>
<trkpt lat="40.0728129" lon="-105.2309513">
  <ele>1595.46</ele>
  <time>2026-08-27T18:29:35Z</time>
  <course>200.72</course>
  <speed>0.03</speed>
  <fix>3d</fix>
</trkpt>
<trkpt lat="40.0728131" lon="-105.2309512">
  <ele>1595.55</ele>
  <time>2026-08-27T18:29:35Z</time>
  <course>80.37</course>
  <speed>0.01</speed>
  <fix>3d</fix>
</trkpt>
<trkpt lat="40.0728129" lon="-105.2309513">
  <ele>1595.46</ele>
  <time>2026-08-27T18:29:35Z</time>
  <course>201.86</course>
  <speed>0.03</speed>
  <fix>3d</fix>
</trkpt>
<trkpt lat="40.072813" lon="-105.2309512">
  <ele>1595.55</ele>
  <time>2026-08-27T18:29:35Z</time>
  <course>79.24</course>
  <speed>0.0</speed>
  <fix>3d</fix>
</trkpt>
<trkpt lat="40.0728128" lon="-105.2309513">
  <ele>1595.46</ele>
  <time>2026-08-27T18:29:35Z</time>
  <course>204.25</course>
  <speed>0.03</speed>
  <fix>3d</fix>
</trkpt>
<trkpt lat="40.072813" lon="-105.2309512">
  <ele>1595.55</ele>
  <time>2026-08-27T18:29:35Z</time>
  <course>78.52</course>
  <speed>0.0</speed>
  <fix>3d</fix>
</trkpt>
<trkpt lat="40.0728128" lon="-105.2309514">
  <ele>1595.47</ele>
  <time>2026-08-27T18:29:35Z</time>
  <course>207.77</course>
  <speed>0.02</speed>
  <fix>3d</fix>
</trkpt>
<trkpt lat="40.0728129" lon="-105.2309513">
  <ele>1595.55</ele>
  <time>2026-08-27T18:29:35Z</time>
  <course>78.24</course>
  <speed>0.0</speed>
  <fix>3d</fix>
</trkpt>
<trkpt lat="40.0728128" lon="-105.2309514">
  <ele>1595.47</ele>
  <time>2026-08-27T18:29:35Z</time>
  <course>212.31</course>
  <speed>0.02</speed>
  <fix>3d</fix>
</trkpt>
<trkpt lat="40.0728129" lon="-105.2309513">
  <ele>1595.55</ele>
  <time>2026-08-27T18:29:35Z</time>
  <course>78.05</course>
  <speed>0.0</speed>
  <fix>3d</fix>
</trkpt>
<trkpt lat="40.0728127" lon="-105.2309514">
  <ele>1595.47</ele>
  <time>2026-08-27T18:29:35Z</time>
  <course>215.04</course>
  <speed>0.02</speed>
  <fix>3d</fix>
</trkpt>
<trkpt lat="40.0728128" lon="-105.2309513">
  <ele>1595.55</ele>
  <time>2026-08-27T18:29:35Z</time>
  <course>77.76</course>
  <speed>0.0</speed>
  <fix>3d</fix>
</trkpt>
<trkpt lat="40.0728127" lon="-105.2309514">
  <ele>1595.47</ele>
  <time>2026-08-27T18:29:35Z</time>
  <course>216.2</course>
  <speed>0.02</speed>
  <fix>3d</fix>
</trkpt>
<trkpt lat="40.0728128" lon="-105.2309514">
  <ele>1595.56</ele>
  <time>2026-08-27T18:29:35Z</time>
  <course>77.64</course>
  <speed>0.0</speed>
  <fix>3d</fix>
</trkpt>
<trkpt lat="40.0728127" lon="-105.2309515">
  <ele>1595.47</ele>
  <time>2026-08-27T18:29:35Z</time>
  <course>218.12</course>
  <speed>0.03</speed>
  <fix>3d</fix>
</trkpt>
<trkpt lat="40.0728128" lon="-105.2309514">
  <ele>1595.56</ele>
  <time>2026-08-27T18:29:35Z</time>
  <course>77.6</course>
  <speed>0.01</speed>
  <fix>3d</fix>
</trkpt>
<trkpt lat="40.0728126" lon="-105.2309516">
  <ele>1595.47</ele>
  <time>2026-08-27T18:29:35Z</time>
  <course>219.64</course>
  <speed>0.03</speed>
  <fix>3d</fix>
</trkpt>
<trkpt lat="40.0728127" lon="-105.2309515">
  <ele>1595.56</ele>
  <time>2026-08-27T18:29:35Z</time>
  <course>77.59</course>
  <speed>0.01</speed>
  <fix>3d</fix>
</trkpt>
<trkpt lat="40.0728126" lon="-105.2309516">
  <ele>1595.47</ele>
  <time>2026-08-27T18:29:35Z</time>
  <course>220.64</course>
  <speed>0.03</speed>
  <fix>3d</fix>
</trkpt>
<trkpt lat="40.0728127" lon="-105.2309515">
  <ele>1595.57</ele>
  <time>2026-08-27T18:29:35Z</time>
  <course>77.59</course>
  <speed>0.01</speed>
  <fix>3d</fix>
</trkpt>
<trkpt lat="40.0728125" lon="-105.2309516">
  <ele>1595.48</ele>
  <time>2026-08-27T18:29:35Z</time>
  <course>221.27</course>
  <speed>0.03</speed>
  <fix>3d</fix>
</trkpt>
<trkpt lat="40.0728126" lon="-105.2309516">
  <ele>1595.57</ele>
  <time>2026-08-27T18:29:35Z</time>
  <course>77.6</course>
  <speed>0.01</speed>
  <fix>3d</fix>
</trkpt>
<trkpt lat="40.0728125" lon="-105.2309517">
  <ele>1595.48</ele>
  <time>2026-08-27T18:29:35Z</time>
  <course>221.74</course>
  <speed>0.03</speed>
  <fix>3d</fix>
</trkpt>
<trkpt lat="40.0728126" lon="-105.2309517">
  <ele>1595.57</ele>
  <time>2026-08-27T18:29:35Z</time>
  <course>77.61</course>
  <speed>0.01</speed>
  <fix>3d</fix>
</trkpt>
<trkpt lat="40.0728124" lon="-105.2309518">
  <ele>1595.48</ele>
  <time>2026-08-27T18:29:35Z</time>
  <course>221.72</course>
  <speed>0.03</speed>
  <fix>3d</fix>
</trkpt>
<trkpt lat="40.0728125" lon="-105.2309517">
  <ele>1595.57</ele>
  <time>2026-08-27T18:29:35Z</time>
  <course>77.64</course>
  <speed>0.01414213562373095</speed>
  <fix>3d</fix>
</trkpt>
<trkpt lat="40.0728123" lon="-105.2309518">
  <ele>1595.48</ele>
  <time>2026-08-27T18:29:35Z</time>
  <course>221.27</course>
  <speed>0.04</speed>
  <fix>3d</fix>
</trkpt>
<trkpt lat="40.0728125" lon="-105.2309518">
  <ele>1595.57</ele>
  <time>2026-08-27T18:29:35Z</time>
  <course>77.65</course>
  <speed>0.01414213562373095</speed>
  <fix>3d</fix>
</trkpt>
<trkpt lat="40.0728123" lon="-105.2309519">
  <ele>1595.47</ele>
  <time>2026-08-27T18:29:35Z</time>
  <course>220.98</course>
  <speed>0.04</speed>
  <fix>3d</fix>
</trkpt>
<trkpt lat="40.0728124" lon="-105.2309519">
  <ele>1595.56</ele>
  <time>2026-08-27T18:29:35Z</time>
  <course>77.64</course>
  <speed>0.01414213562373095</speed>
  <fix>3d</fix>
</trkpt>
<trkpt lat="40.0728122" lon="-105.230952">
  <ele>1595.47</ele>
  <time>2026-08-27T18:29:35Z</time>
  <course>220.56</course>
  <speed>0.04</speed>
  <fix>3d</fix>
</trkpt>
<trkpt lat="40.0728123" lon="-105.2309519">
  <ele>1595.55</ele>
  <time>2026-08-27T18:29:35Z</time>
  <course>77.65</course>
  <speed>0.01414213562373095</speed>
  <fix>3d</fix>
</trkpt>
<trkpt lat="40.0728122" lon="-105.230952">
  <ele>1595.47</ele>
  <time>2026-08-27T18:29:35Z</time>
  <course>220.21</course>
  <speed>0.04</speed>
  <fix>3d</fix>
</trkpt>
<trkpt lat="40.0728123" lon="-105.230952">
  <ele>1595.55</ele>
  <time>2026-08-27T18:29:35Z</time>
  <course>77.66</course>
  <speed>0.022360679774997897</speed>
  <fix>3d</fix>
</trkpt>
<trkpt lat="40.0728121" lon="-105.2309521">
  <ele>1595.47</ele>
  <time>2026-08-27T18:29:35Z</time>
  <course>220.26</course>
  <speed>0.04</speed>
  <fix>3d</fix>
</trkpt>
<trkpt lat="40.0728122" lon="-105.2309521">
  <ele>1595.55</ele>
  <time>2026-08-27T18:29:35Z</time>
  <course>77.68</course>
  <speed>0.022360679774997897</speed>
  <fix>3d</fix>
</trkpt>
<trkpt lat="40.0728121" lon="-105.2309521">
  <ele>1595.47</ele>
  <time>2026-08-27T18:29:35Z</time>
  <course>220.45</course>
  <speed>0.04</speed>
  <fix>3d</fix>
</trkpt>
<trkpt lat="40.0728121" lon="-105.2309521">
  <ele>1595.55</ele>
  <time>2026-08-27T18:29:35Z</time>
  <course>77.66</course>
  <speed>0.022360679774997897</speed>
  <fix>3d</fix>
</trkpt>
<trkpt lat="40.072812" lon="-105.2309522">
  <ele>1595.47</ele>
  <time>2026-08-27T18:29:35Z</time>
  <course>220.64</course>
  <speed>0.04</speed>
  <fix>3d</fix>
</trkpt>
<trkpt lat="40.0728121" lon="-105.2309522">
  <ele>1595.55</ele>
  <time>2026-08-27T18:29:35Z</time>
  <course>77.68</course>
  <speed>0.022360679774997897</speed>
  <fix>3d</fix>
</trkpt>
<trkpt lat="40.0728119" lon="-105.2309523">
  <ele>1595.47</ele>
  <time>2026-08-27T18:29:35Z</time>
  <course>220.89</course>
  <speed>0.04</speed>
  <fix>3d</fix>
</trkpt>
<trkpt lat="40.072812" lon="-105.2309523">
  <ele>1595.55</ele>
  <time>2026-08-27T18:29:35Z</time>
  <course>77.58</course>
  <speed>0.0282842712474619</speed>
  <fix>3d</fix>
</trkpt>
<trkpt lat="40.0728119" lon="-105.2309524">
  <ele>1595.47</ele>
  <time>2026-08-27T18:29:35Z</time>
  <course>220.85</course>
  <speed>0.05</speed>
  <fix>3d</fix>
</trkpt>
<trkpt lat="40.0728119" lon="-105.2309524">
  <ele>1595.56</ele>
  <time>2026-08-27T18:29:35Z</time>
  <course>76.74</course>
  <speed>0.0282842712474619</speed>
  <fix>3d</fix>
</trkpt>
<trkpt lat="40.0728118" lon="-105.2309525">
  <ele>1595.47</ele>
  <time>2026-08-27T18:29:35Z</time>
  <course>218.79</course>
  <speed>0.05</speed>
  <fix>3d</fix>
</trkpt>
<trkpt lat="40.0728119" lon="-105.2309525">
  <ele>1595.56</ele>
  <time>2026-08-27T18:29:35Z</time>
  <course>75.44</course>
  <speed>0.0282842712474619</speed>
  <fix>3d</fix>
</trkpt>
<trkpt lat="40.0728117" lon="-105.2309525">
  <ele>1595.48</ele>
  <time>2026-08-27T18:29:35Z</time>
  <course>216.44</course>
  <speed>0.05</speed>
  <fix>3d</fix>
</trkpt>
<trkpt lat="40.0728118" lon="-105.2309525">
  <ele>1595.56</ele>
  <time>2026-08-27T18:29:35Z</time>
  <course>74.21</course>
  <speed>0.022360679774997897</speed>
  <fix>3d</fix>
</trkpt>
<trkpt lat="40.0728116" lon="-105.2309526">
  <ele>1595.48</ele>
  <time>2026-08-27T18:29:35Z</time>
  <course>215.64</course>
  <speed>0.05</speed>
  <fix>3d</fix>
</trkpt>
<trkpt lat="40.0728117" lon="-105.2309526">
  <ele>1595.57</ele>
  <time>2026-08-27T18:29:35Z</time>
  <course>73.31</course>
  <speed>0.01414213562373095</speed>
  <fix>3d</fix>
</trkpt>
<trkpt lat="40.0728115" lon="-105.2309527">
  <ele>1595.48</ele>
  <time>2026-08-27T18:29:35Z</time>
  <course>215.36</course>
  <speed>0.04</speed>
  <fix>3d</fix>
</trkpt>
<trkpt lat="40.0728116" lon="-105.2309526">
  <ele>1595.57</ele>
  <time>2026-08-27T18:29:35Z</time>
  <course>72.85</course>
  <speed>0.01414213562373095</speed>
  <fix>3d</fix>
</trkpt>
<trkpt lat="40.0728115" lon="-105.2309528">
  <ele>1595.48</ele>
  <time>2026-08-27T18:29:35Z</time>
  <course>215.4</course>
  <speed>0.04</speed>
  <fix>3d</fix>
</trkpt>
<trkpt lat="40.0728116" lon="-105.2309527">
  <ele>1595.57</ele>
  <time>2026-08-27T18:29:35Z</time>
  <course>72.85</course>
  <speed>0.01</speed>
  <fix>3d</fix>
</trkpt>
<trkpt lat="40.0728114" lon="-105.2309528">
  <ele>1595.48</ele>
  <time>2026-08-27T18:29:35Z</time>
  <course>216.13</course>
  <speed>0.04</speed>
  <fix>3d</fix>
</trkpt>
<trkpt lat="40.0728115" lon="-105.2309528">
  <ele>1595.56</ele>
  <time>2026-08-27T18:29:35Z</time>
  <course>73.34</course>
  <speed>0.01</speed>
  <fix>3d</fix>
</trkpt>
<trkpt lat="40.0728114" lon="-105.2309528">
  <ele>1595.48</ele>
  <time>2026-08-27T18:29:35Z</time>
  <course>217.49</course>
  <speed>0.03</speed>
  <fix>3d</fix>
</trkpt>
<trkpt lat="40.0728115" lon="-105.2309528">
  <ele>1595.56</ele>
  <time>2026-08-27T18:29:35Z</time>
  <course>74.21</course>
  <speed>0.01</speed>
  <fix>3d</fix>
</trkpt>
<trkpt lat="40.0728113" lon="-105.2309529">
  <ele>1595.48</ele>
  <time>2026-08-27T18:29:35Z</time>
  <course>219.27</course>
  <speed>0.03</speed>
  <fix>3d</fix>
</trkpt>
<trkpt lat="40.0728115" lon="-105.2309528">
  <ele>1595.56</ele>
  <time>2026-08-27T18:29:35Z</time>
  <course>75.47</course>
  <speed>0.01</speed>
  <fix>3d</fix>
</trkpt>
<trkpt lat="40.0728113" lon="-105.230953">
  <ele>1595.48</ele>
  <time>2026-08-27T18:29:35Z</time>
  <course>221.37</course>
  <speed>0.02</speed>
  <fix>3d</fix>
</trkpt>
<trkpt lat="40.0728114" lon="-105.2309529">
  <ele>1595.56</ele>
  <time>2026-08-27T18:29:35Z</time>
  <course>76.92</course>
  <speed>0.01</speed>
  <fix>3d</fix>
</trkpt>
<trkpt lat="40.0728112" lon="-105.230953">
  <ele>1595.48</ele>
  <time>2026-08-27T18:29:35Z</time>
  <course>222.78</course>
  <speed>0.02</speed>
  <fix>3d</fix>
</trkpt>
<trkpt lat="40.0728114" lon="-105.2309529">
  <ele>1595.56</ele>
  <time>2026-08-27T18:29:35Z</time>
  <course>78.45</course>
  <speed>0.01</speed>
  <fix>3d</fix>
</trkpt>
<trkpt lat="40.0728111" lon="-105.230953">
  <ele>1595.48</ele>
  <time>2026-08-27T18:29:35Z</time>
  <course>222.38</course>
  <speed>0.02</speed>
  <fix>3d</fix>
</trkpt>
<trkpt lat="40.0728113" lon="-105.230953">
  <ele>1595.56</ele>
  <time>2026-08-27T18:29:35Z</time>
  <course>79.85</course>
  <speed>0.0</speed>
  <fix>3d</fix>
</trkpt>
<trkpt lat="40.0728111" lon="-105.2309531">
  <ele>1595.48</ele>
  <time>2026-08-27T18:29:35Z</time>
  <course>220.32</course>
  <speed>0.02</speed>
  <fix>3d</fix>
</trkpt>
<trkpt lat="40.0728113" lon="-105.230953">
  <ele>1595.56</ele>
  <time>2026-08-27T18:29:35Z</time>
  <course>81.11</course>
  <speed>0.0</speed>
  <fix>3d</fix>
</trkpt>
<trkpt lat="40.0728111" lon="-105.2309532">
  <ele>1595.48</ele>
  <time>2026-08-27T18:29:35Z</time>
  <course>217.03</course>
  <speed>0.02</speed>
  <fix>3d</fix>
</trkpt>
<trkpt lat="40.0728112" lon="-105.2309531">
  <ele>1595.57</ele>
  <time>2026-08-27T18:29:35Z</time>
  <course>82.05</course>
  <speed>0.0</speed>
  <fix>3d</fix>
</trkpt>
<trkpt lat="40.072811" lon="-105.2309532">
  <ele>1595.48</ele>
  <time>2026-08-27T18:29:35Z</time>
  <course>213.29</course>
  <speed>0.02</speed>
  <fix>3d</fix>
</trkpt>
<trkpt lat="40.0728112" lon="-105.2309531">
  <ele>1595.57</ele>
  <time>2026-08-27T18:29:35Z</time>
  <course>82.53</course>
  <speed>0.0</speed>
  <fix>3d</fix>
</trkpt>
<trkpt lat="40.072811" lon="-105.2309532">
  <ele>1595.48</ele>
  <time>2026-08-27T18:29:35Z</time>
  <course>209.52</course>
  <speed>0.03</speed>
  <fix>3d</fix>
</trkpt>
<trkpt lat="40.0728111" lon="-105.2309531">
  <ele>1595.57</ele>
  <time>2026-08-27T18:29:35Z</time>
  <course>82.55</course>
  <speed>0.01</speed>
  <fix>3d</fix>
</trkpt>
<trkpt lat="40.072811" lon="-105.2309533">
  <ele>1595.48</ele>
  <time>2026-08-27T18:29:35Z</time>
  <course>205.74</course>
  <speed>0.03</speed>
  <fix>3d</fix>
</trkpt>
<trkpt lat="40.0728111" lon="-105.2309532">
  <ele>1595.57</ele>
  <time>2026-08-27T18:29:35Z</time>
  <course>82.1</course>
  <speed>0.01</speed>
  <fix>3d</fix>
</trkpt>
<trkpt lat="40.0728109" lon="-105.2309533">
  <ele>1595.48</ele>
  <time>2026-08-27T18:29:35Z</time>
  <course>202.22</course>
  <speed>0.03</speed>
  <fix>3d</fix>
</trkpt>
<trkpt lat="40.072811" lon="-105.2309532">
  <ele>1595.57</ele>
  <time>2026-08-27T18:29:35Z</time>
  <course>81.17</course>
  <speed>0.01</speed>
  <fix>3d</fix>
</trkpt>
<trkpt lat="40.0728109" lon="-105.2309533">
  <ele>1595.48</ele>
  <time>2026-08-27T18:29:35Z</time>
  <course>198.66</course>
  <speed>0.03</speed>
  <fix>3d</fix>
</trkpt>
<trkpt lat="40.072811" lon="-105.2309532">
  <ele>1595.57</ele>
  <time>2026-08-27T18:29:35Z</time>
  <course>79.94</course>
  <speed>0.01</speed>
  <fix>3d</fix>
</trkpt>
<trkpt lat="40.0728108" lon="-105.2309533">
  <ele>1595.47</ele>
  <time>2026-08-27T18:29:35Z</time>
  <course>195.74</course>
  <speed>0.03</speed>
  <fix>3d</fix>
</trkpt>
<trkpt lat="40.0728109" lon="-105.2309532">
  <ele>1595.57</ele>
  <time>2026-08-27T18:29:35Z</time>
  <course>78.53</course>
  <speed>0.01</speed>
  <fix>3d</fix>
</trkpt>
<trkpt lat="40.0728108" lon="-105.2309533">
  <ele>1595.47</ele>
  <time>2026-08-27T18:29:35Z</time>
  <course>194.11</course>
  <speed>0.03</speed>
  <fix>3d</fix>
</trkpt>
<trkpt lat="40.0728108" lon="-105.2309533">
  <ele>1595.57</ele>
  <time>2026-08-27T18:29:35Z</time>
  <course>77.01</course>
  <speed>0.01</speed>
  <fix>3d</fix>
</trkpt>
<trkpt lat="40.0728107" lon="-105.2309533">
  <ele>1595.47</ele>
  <time>2026-08-27T18:29:35Z</time>
  <course>192.92</course>
  <speed>0.03</speed>
  <fix>3d</fix>
</trkpt>
<trkpt lat="40.0728108" lon="-105.2309533">
  <ele>1595.57</ele>
  <time>2026-08-27T18:29:35Z</time>
  <course>75.53</course>
  <speed>0.01</speed>
  <fix>3d</fix>
</trkpt>
<trkpt lat="40.0728106" lon="-105.2309533">
  <ele>1595.47</ele>
  <time>2026-08-27T18:29:35Z</time>
  <course>192.7</course>
  <speed>0.03</speed>
  <fix>3d</fix>
</trkpt>
<trkpt lat="40.0728107" lon="-105.2309533">
  <ele>1595.57</ele>
  <time>2026-08-27T18:29:35Z</time>
  <course>74.28</course>
  <speed>0.0</speed>
  <fix>3d</fix>
</trkpt>
<trkpt lat="40.0728105" lon="-105.2309533">
  <ele>1595.46</ele>
  <time>2026-08-27T18:29:35Z</time>
  <course>193.73</course>
  <speed>0.02</speed>
  <fix>3d</fix>
</trkpt>
<trkpt lat="40.0728107" lon="-105.2309533">
  <ele>1595.56</ele>
  <time>2026-08-27T18:29:35Z</time>
  <course>73.34</course>
  <speed>0.0</speed>
  <fix>3d</fix>
</trkpt>
<trkpt lat="40.0728105" lon="-105.2309534">
  <ele>1595.46</ele>
  <time>2026-08-27T18:29:35Z</time>
  <course>195.97</course>
  <speed>0.02</speed>
  <fix>3d</fix>
</trkpt>
<trkpt lat="40.0728106" lon="-105.2309533">
  <ele>1595.56</ele>
  <time>2026-08-27T18:29:35Z</time>
  <course>72.86</course>
  <speed>0.0</speed>
  <fix>3d</fix>
</trkpt>
<trkpt lat="40.0728105" lon="-105.2309535">
  <ele>1595.46</ele>
  <time>2026-08-27T18:29:35Z</time>
  <course>200.92</course>
  <speed>0.02</speed>
  <fix>3d</fix>
</trkpt>
<trkpt lat="40.0728106" lon="-105.2309533">
  <ele>1595.55</ele>
  <time>2026-08-27T18:29:35Z</time>
  <course>72.84</course>
  <speed>0.0</speed>
  <fix>3d</fix>
</trkpt>
<trkpt lat="40.0728104" lon="-105.2309535">
  <ele>1595.46</ele>
  <time>2026-08-27T18:29:35Z</time>
  <course>206.92</course>
  <speed>0.02</speed>
  <fix>3d</fix>
</trkpt>
<trkpt lat="40.0728106" lon="-105.2309534">
  <ele>1595.55</ele>
  <time>2026-08-27T18:29:35Z</time>
  <course>73.29</course>
  <speed>0.0</speed>
  <fix>3d</fix>
</trkpt>
<trkpt lat="40.0728104" lon="-105.2309535">
  <ele>1595.46</ele>
  <time>2026-08-27T18:29:35Z</time>
  <course>212.1</course>
  <speed>0.02</speed>
  <fix>3d</fix>
</trkpt>
<trkpt lat="40.0728105" lon="-105.2309534">
  <ele>1595.55</ele>
  <time>2026-08-27T18:29:35Z</time>
  <course>74.17</course>
  <speed>0.0</speed>
  <fix>3d</fix>
</trkpt>
<trkpt lat="40.0728104" lon="-105.2309535">
  <ele>1595.46</ele>
  <time>2026-08-27T18:29:35Z</time>
  <course>217.22</course>
  <speed>0.02</speed>
  <fix>3d</fix>
</trkpt>
<trkpt lat="40.0728105" lon="-105.2309534">
  <ele>1595.55</ele>
  <time>2026-08-27T18:29:35Z</time>
  <course>75.38</course>
  <speed>0.0</speed>
  <fix>3d</fix>
</trkpt>
<trkpt lat="40.0728104" lon="-105.2309535">
  <ele>1595.46</ele>
  <time>2026-08-27T18:29:35Z</time>
  <course>220.66</course>
  <speed>0.02</speed>
  <fix>3d</fix>
</trkpt>
<trkpt lat="40.0728105" lon="-105.2309535">
  <ele>1595.55</ele>
  <time>2026-08-27T18:29:35Z</time>
  <course>76.86</course>
  <speed>0.0</speed>
  <fix>3d</fix>
</trkpt>
<trkpt lat="40.0728104" lon="-105.2309535">
  <ele>1595.46</ele>
  <time>2026-08-27T18:29:35Z</time>
  <course>222.85</course>
  <speed>0.01</speed>
  <fix>3d</fix>
</trkpt>
<trkpt lat="40.0728105" lon="-105.2309535">
  <ele>1595.55</ele>
  <time>2026-08-27T18:29:35Z</time>
  <course>78.42</course>
  <speed>0.0</speed>
  <fix>3d</fix>
</trkpt>
<trkpt lat="40.0728103" lon="-105.2309536">
  <ele>1595.46</ele>
  <time>2026-08-27T18:29:35Z</time>
  <course>224.53</course>
  <speed>0.02</speed>
  <fix>3d</fix>
</trkpt>
<trkpt lat="40.0728104" lon="-105.2309535">
  <ele>1595.55</ele>
  <time>2026-08-27T18:29:35Z</time>
  <course>79.88</course>
  <speed>0.0</speed>
  <fix>3d</fix>
</trkpt>
<trkpt lat="40.0728103" lon="-105.2309537">
  <ele>1595.47</ele>
  <time>2026-08-27T18:29:35Z</time>
  <course>223.62</course>
  <speed>0.02</speed>
  <fix>3d</fix>
</trkpt>
<trkpt lat="40.0728104" lon="-105.2309536">
  <ele>1595.55</ele>
  <time>2026-08-27T18:29:35Z</time>
  <course>81.12</course>
  <speed>0.0</speed>
  <fix>3d</fix>
</trkpt>
<trkpt lat="40.0728103" lon="-105.2309537">
  <ele>1595.47</ele>
  <time>2026-08-27T18:29:35Z</time>
  <course>219.66</course>
  <speed>0.02</speed>
  <fix>3d</fix>
</trkpt>
<trkpt lat="40.0728104" lon="-105.2309536">
  <ele>1595.56</ele>
  <time>2026-08-27T18:29:35Z</time>
  <course>82.02</course>
  <speed>0.0</speed>
  <fix>3d</fix>
</trkpt>
<trkpt lat="40.0728102" lon="-105.2309537">
  <ele>1595.47</ele>
  <time>2026-08-27T18:29:35Z</time>
  <course>214.82</course>
  <speed>0.02</speed>
  <fix>3d</fix>
</trkpt>
<trkpt lat="40.0728103" lon="-105.2309536">
  <ele>1595.56</ele>
  <time>2026-08-27T18:29:35Z</time>
  <course>82.51</course>
  <speed>0.0</speed>
  <fix>3d</fix>
</trkpt>
<trkpt lat="40.0728102" lon="-105.2309538">
  <ele>1595.47</ele>
  <time>2026-08-27T18:29:35Z</time>
  <course>209.98</course>
  <speed>0.02</speed>
  <fix>3d</fix>
</trkpt>
<trkpt lat="40.0728103" lon="-105.2309537">
  <ele>1595.57</ele>
  <time>2026-08-27T18:29:35Z</time>
  <course>82.53</course>
  <speed>0.01</speed>
  <fix>3d</fix>
</trkpt>
<trkpt lat="40.0728102" lon="-105.2309538">
  <ele>1595.47</ele>
  <time>2026-08-27T18:29:35Z</time>
  <course>204.32</course>
  <speed>0.02</speed>
  <fix>3d</fix>
</trkpt>
<trkpt lat="40.0728102" lon="-105.2309537">
  <ele>1595.57</ele>
  <time>2026-08-27T18:29:35Z</time>
  <course>82.06</course>
  <speed>0.01</speed>
  <fix>3d</fix>
</trkpt>
<trkpt lat="40.0728101" lon="-105.2309538">
  <ele>1595.48</ele>
  <time>2026-08-27T18:29:35Z</time>
  <course>198.7</course>
  <speed>0.02</speed>
  <fix>3d</fix>
</trkpt>
<trkpt lat="40.0728102" lon="-105.2309537">
  <ele>1595.56</ele>
  <time>2026-08-27T18:29:35Z</time>
  <course>81.19</course>
  <speed>0.01</speed>
  <fix>3d</fix>
</trkpt>
<trkpt lat="40.0728101" lon="-105.2309538">
  <ele>1595.48</ele>
  <time>2026-08-27T18:29:35Z</time>
  <course>193.89</course>
  <speed>0.02</speed>
  <fix>3d</fix>
</trkpt>
<trkpt lat="40.0728102" lon="-105.2309537">
  <ele>1595.56</ele>
  <time>2026-08-27T18:29:35Z</time>
  <course>79.96</course>
  <speed>0.01</speed>
  <fix>3d</fix>
</trkpt>
<trkpt lat="40.07281" lon="-105.2309538">
  <ele>1595.48</ele>
  <time>2026-08-27T18:29:35Z</time>
  <course>190.19</course>
  <speed>0.02</speed>
  <fix>3d</fix>
</trkpt>
<trkpt lat="40.0728101" lon="-105.2309537">
  <ele>1595.56</ele>
  <time>2026-08-27T18:29:35Z</time>
  <course>78.5</course>
  <speed>0.01</speed>
  <fix>3d</fix>
</trkpt>
<trkpt lat="40.0728099" lon="-105.2309538">
  <ele>1595.48</ele>
  <time>2026-08-27T18:29:35Z</time>
  <course>187.0</course>
  <speed>0.02</speed>
  <fix>3d</fix>
</trkpt>
<trkpt lat="40.0728101" lon="-105.2309537">
  <ele>1595.57</ele>
  <time>2026-08-27T18:29:35Z</time>
  <course>76.95</course>
  <speed>0.01</speed>
  <fix>3d</fix>
</trkpt>
<trkpt lat="40.0728099" lon="-105.2309538">
  <ele>1595.47</ele>
  <time>2026-08-27T18:29:35Z</time>
  <course>183.87</course>
  <speed>0.02</speed>
  <fix>3d</fix>
</trkpt>
<trkpt lat="40.07281" lon="-105.2309537">
  <ele>1595.57</ele>
  <time>2026-08-27T18:29:35Z</time>
  <course>75.54</course>
  <speed>0.0</speed>
  <fix>3d</fix>
</trkpt>
<trkpt lat="40.0728099" lon="-105.2309538">
  <ele>1595.47</ele>
  <time>2026-08-27T18:29:35Z</time>
  <course>181.97</course>
  <speed>0.02</speed>
  <fix>3d</fix>
</trkpt>
<trkpt lat="40.07281" lon="-105.2309537">
  <ele>1595.57</ele>
  <time>2026-08-27T18:29:35Z</time>
  <course>74.3</course>
  <speed>0.0</speed>
  <fix>3d</fix>
</trkpt>
<trkpt lat="40.0728098" lon="-105.2309538">
  <ele>1595.47</ele>
  <time>2026-08-27T18:29:35Z</time>
  <course>181.15</course>
  <speed>0.01</speed>
  <fix>3d</fix>
</trkpt>
<trkpt lat="40.0728099" lon="-105.2309537">
  <ele>1595.57</ele>
  <time>2026-08-27T18:29:35Z</time>
  <course>73.36</course>
  <speed>0.0</speed>
  <fix>3d</fix>
</trkpt>
<trkpt lat="40.0728098" lon="-105.2309538">
  <ele>1595.47</ele>
  <time>2026-08-27T18:29:35Z</time>
  <course>181.54</course>
  <speed>0.01</speed>
  <fix>3d</fix>
</trkpt>
<trkpt lat="40.0728099" lon="-105.2309538">
  <ele>1595.57</ele>
  <time>2026-08-27T18:29:35Z</time>
  <course>72.9</course>
  <speed>0.0</speed>
  <fix>3d</fix>
</trkpt>
<trkpt lat="40.0728098" lon="-105.2309538">
  <ele>1595.47</ele>
  <time>2026-08-27T18:29:35Z</time>
  <course>184.85</course>
  <speed>0.01</speed>
  <fix>3d</fix>
</trkpt>
<trkpt lat="40.0728099" lon="-105.2309538">
  <ele>1595.57</ele>
  <time>2026-08-27T18:29:35Z</time>
  <course>72.9</course>
  <speed>0.0</speed>
  <fix>3d</fix>
</trkpt>
<trkpt lat="40.0728098" lon="-105.2309538">
  <ele>1595.46</ele>
  <time>2026-08-27T18:29:35Z</time>
  <course>190.44</course>
  <speed>0.01</speed>
  <fix>3d</fix>
</trkpt>
<trkpt lat="40.0728099" lon="-105.2309538">
  <ele>1595.57</ele>
  <time>2026-08-27T18:29:35Z</time>
  <course>73.35</course>
  <speed>0.0</speed>
  <fix>3d</fix>
</trkpt>
<trkpt lat="40.0728098" lon="-105.2309538">
  <ele>1595.46</ele>
  <time>2026-08-27T18:29:35Z</time>
  <course>199.95</course>
  <speed>0.0</speed>
  <fix>3d</fix>
</trkpt>
<trkpt lat="40.0728099" lon="-105.2309538">
  <ele>1595.56</ele>
  <time>2026-08-27T18:29:35Z</time>
  <course>74.24</course>
  <speed>0.0</speed>
  <fix>3d</fix>
</trkpt>
<trkpt lat="40.0728098" lon="-105.2309538">
  <ele>1595.46</ele>
  <time>2026-08-27T18:29:35Z</time>
  <course>213.62</course>
  <speed>0.0</speed>
  <fix>3d</fix>
</trkpt>
<trkpt lat="40.0728099" lon="-105.2309538">
  <ele>1595.56</ele>
  <time>2026-08-27T18:29:35Z</time>
  <course>75.47</course>
  <speed>0.0</speed>
  <fix>3d</fix>
</trkpt>
<trkpt lat="40.0728098" lon="-105.2309538">
  <ele>1595.46</ele>
  <time>2026-08-27T18:29:35Z</time>
  <course>224.46</course>
  <speed>0.0</speed>
  <fix>3d</fix>
</trkpt>
<trkpt lat="40.0728099" lon="-105.2309538">
  <ele>1595.56</ele>
  <time>2026-08-27T18:29:35Z</time>
  <course>76.91</course>
  <speed>0.0</speed>
  <fix>3d</fix>
</trkpt>
<trkpt lat="40.0728098" lon="-105.2309538">
  <ele>1595.45</ele>
  <time>2026-08-27T18:29:35Z</time>
  <course>229.64</course>
  <speed>0.0</speed>
  <fix>3d</fix>
</trkpt>
<trkpt lat="40.0728098" lon="-105.2309538">
  <ele>1595.55</ele>
  <time>2026-08-27T18:29:35Z</time>
  <course>78.44</course>
  <speed>0.0</speed>
  <fix>3d</fix>
</trkpt>
<trkpt lat="40.0728097" lon="-105.2309538">
  <ele>1595.45</ele>
  <time>2026-08-27T18:29:35Z</time>
  <course>229.98</course>
  <speed>0.0</speed>
  <fix>3d</fix>
</trkpt>
<trkpt lat="40.0728098" lon="-105.2309538">
  <ele>1595.55</ele>
  <time>2026-08-27T18:29:35Z</time>
  <course>79.85</course>
  <speed>0.0</speed>
  <fix>3d</fix>
</trkpt>
<trkpt lat="40.0728097" lon="-105.2309539">
  <ele>1595.45</ele>
  <time>2026-08-27T18:29:35Z</time>
  <course>227.54</course>
  <speed>0.01</speed>
  <fix>3d</fix>
</trkpt>
<trkpt lat="40.0728098" lon="-105.2309538">
  <ele>1595.55</ele>
  <time>2026-08-27T18:29:35Z</time>
  <course>81.11</course>
  <speed>0.0</speed>
  <fix>3d</fix>
</trkpt>
<trkpt lat="40.0728097" lon="-105.230954">
  <ele>1595.46</ele>
  <time>2026-08-27T18:29:35Z</time>
  <course>222.59</course>
  <speed>0.01</speed>
  <fix>3d</fix>
</trkpt>
<trkpt lat="40.0728098" lon="-105.2309539">
  <ele>1595.55</ele>
  <time>2026-08-27T18:29:35Z</time>
  <course>82.03</course>
  <speed>0.0</speed>
  <fix>3d</fix>
</trkpt>
<trkpt lat="40.0728097" lon="-105.230954">
  <ele>1595.46</ele>
  <time>2026-08-27T18:29:35Z</time>
  <course>215.14</course>
  <speed>0.01</speed>
  <fix>3d</fix>
</trkpt>
<trkpt lat="40.0728098" lon="-105.2309539">
  <ele>1595.55</ele>
  <time>2026-08-27T18:29:35Z</time>
  <course>82.52</course>
  <speed>0.0</speed>
  <fix>3d</fix>
</trkpt>
<trkpt lat="40.0728097" lon="-105.230954">
  <ele>1595.46</ele>
  <time>2026-08-27T18:29:35Z</time>
  <course>204.64</course>
  <speed>0.01</speed>
  <fix>3d</fix>
</trkpt>
<trkpt lat="40.0728097" lon="-105.2309539">
  <ele>1595.55</ele>
  <time>2026-08-27T18:29:35Z</time>
  <course>82.51</course>
  <speed>0.0</speed>
  <fix>3d</fix>
</trkpt>
<trkpt lat="40.0728097" lon="-105.230954">
  <ele>1595.46</ele>
  <time>2026-08-27T18:29:35Z</time>
  <course>193.57</course>
  <speed>0.01</speed>
  <fix>3d</fix>
</trkpt>
<trkpt lat="40.0728097" lon="-105.2309539">
  <ele>1595.55</ele>
  <time>2026-08-27T18:29:35Z</time>
  <course>82.03</course>
  <speed>0.01</speed>
  <fix>3d</fix>
</trkpt>
<trkpt lat="40.0728096" lon="-105.230954">
  <ele>1595.46</ele>
  <time>2026-08-27T18:29:35Z</time>
  <course>184.92</course>
  <speed>0.01</speed>
  <fix>3d</fix>
</trkpt>
<trkpt lat="40.0728097" lon="-105.2309539">
  <ele>1595.54</ele>
  <time>2026-08-27T18:29:35Z</time>
  <course>81.13</course>
  <speed>0.01</speed>
  <fix>3d</fix>
</trkpt>
<trkpt lat="40.0728096" lon="-105.230954">
  <ele>1595.46</ele>
  <time>2026-08-27T18:29:35Z</time>
  <course>178.27</course>
  <speed>0.01</speed>
  <fix>3d</fix>
</trkpt>
<trkpt lat="40.0728097" lon="-105.2309539">
  <ele>1595.54</ele>
  <time>2026-08-27T18:29:35Z</time>
  <course>79.89</course>
  <speed>0.01</speed>
  <fix>3d</fix>
</trkpt>
<trkpt lat="40.0728096" lon="-105.230954">
  <ele>1595.46</ele>
  <time>2026-08-27T18:29:35Z</time>
  <course>171.52</course>
  <speed>0.01</speed>
  <fix>3d</fix>
</trkpt>
<trkpt lat="40.0728096" lon="-105.2309539">
  <ele>1595.55</ele>
  <time>2026-08-27T18:29:35Z</time>
  <course>78.42</course>
  <speed>0.01</speed>
  <fix>3d</fix>
</trkpt>
<trkpt lat="40.0728095" lon="-105.230954">
  <ele>1595.47</ele>
  <time>2026-08-27T18:29:35Z</time>
  <course>165.27</course>
  <speed>0.01</speed>
  <fix>3d</fix>
</trkpt>
<trkpt lat="40.0728096" lon="-105.2309539">
  <ele>1595.55</ele>
  <time>2026-08-27T18:29:35Z</time>
  <course>76.92</course>
  <speed>0.0</speed>
  <fix>3d</fix>
</trkpt>
<trkpt lat="40.0728095" lon="-105.230954">
  <ele>1595.47</ele>
  <time>2026-08-27T18:29:35Z</time>
  <course>160.95</course>
  <speed>0.01</speed>
  <fix>3d</fix>
</trkpt>
<trkpt lat="40.0728096" lon="-105.2309539">
  <ele>1595.56</ele>
  <time>2026-08-27T18:29:35Z</time>
  <course>75.46</course>
  <speed>0.0</speed>
  <fix>3d</fix>
</trkpt>
<trkpt lat="40.0728095" lon="-105.230954">
  <ele>1595.47</ele>
  <time>2026-08-27T18:29:35Z</time>
  <course>158.15</course>
  <speed>0.01</speed>
  <fix>3d</fix>
</trkpt>
<trkpt lat="40.0728095" lon="-105.2309539">
  <ele>1595.57</ele>
  <time>2026-08-27T18:29:35Z</time>
  <course>74.23</course>
  <speed>0.0</speed>
  <fix>3d</fix>
</trkpt>
<trkpt lat="40.0728095" lon="-105.230954">
  <ele>1595.48</ele>
  <time>2026-08-27T18:29:35Z</time>
  <course>154.69</course>
  <speed>0.01</speed>
  <fix>3d</fix>
</trkpt>
<trkpt lat="40.0728095" lon="-105.2309539">
  <ele>1595.56</ele>
  <time>2026-08-27T18:29:35Z</time>
  <course>73.34</course>
  <speed>0.0</speed>
  <fix>3d</fix>
</trkpt>
<trkpt lat="40.0728095" lon="-105.230954">
  <ele>1595.48</ele>
  <time>2026-08-27T18:29:35Z</time>
  <course>149.68</course>
  <speed>0.01</speed>
  <fix>3d</fix>
</trkpt>
<trkpt lat="40.0728095" lon="-105.2309539">
  <ele>1595.56</ele>
  <time>2026-08-27T18:29:35Z</time>
  <course>72.88</course>
  <speed>0.0</speed>
  <fix>3d</fix>
</trkpt>
<trkpt lat="40.0728094" lon="-105.230954">
  <ele>1595.48</ele>
  <time>2026-08-27T18:29:35Z</time>
  <course>144.46</course>
  <speed>0.0</speed>
  <fix>3d</fix>
</trkpt>
<trkpt lat="40.0728095" lon="-105.2309539">
  <ele>1595.55</ele>
  <time>2026-08-27T18:29:35Z</time>
  <course>72.86</course>
  <speed>0.0</speed>
  <fix>3d</fix>
</trkpt>
<trkpt lat="40.0728094" lon="-105.230954">
  <ele>1595.48</ele>
  <time>2026-08-27T18:29:35Z</time>
  <course>137.3</course>
  <speed>0.0</speed>
  <fix>3d</fix>
</trkpt>
<trkpt lat="40.0728095" lon="-105.2309539">
  <ele>1595.55</ele>
  <time>2026-08-27T18:29:35Z</time>
  <course>73.31</course>
  <speed>0.0</speed>
  <fix>3d</fix>
</trkpt>
<trkpt lat="40.0728094" lon="-105.230954">
  <ele>1595.48</ele>
  <time>2026-08-27T18:29:35Z</time>
  <course>101.44</course>
  <speed>0.0</speed>
  <fix>3d</fix>
</trkpt>
<trkpt lat="40.0728095" lon="-105.2309539">
  <ele>1595.55</ele>
  <time>2026-08-27T18:29:35Z</time>
  <course>74.22</course>
  <speed>0.0</speed>
  <fix>3d</fix>
</trkpt>
<trkpt lat="40.0728094" lon="-105.230954">
  <ele>1595.48</ele>
  <time>2026-08-27T18:29:35Z</time>
  <course>344.71</course>
  <speed>0.0</speed>
  <fix>3d</fix>
</trkpt>
<trkpt lat="40.0728095" lon="-105.2309539">
  <ele>1595.56</ele>
  <time>2026-08-27T18:29:36Z</time>
  <course>75.43</course>
  <speed>0.0</speed>
  <fix>3d</fix>
</trkpt>
<trkpt lat="40.0728094" lon="-105.230954">
  <ele>1595.48</ele>
  <time>2026-08-27T18:29:36Z</time>
  <course>334.55</course>
  <speed>0.0</speed>
  <fix>3d</fix>
</trkpt>
<trkpt lat="40.0728095" lon="-105.2309539">
  <ele>1595.56</ele>
  <time>2026-08-27T18:29:36Z</time>
  <course>76.86</course>
  <speed>0.0</speed>
  <fix>3d</fix>
</trkpt>
<trkpt lat="40.0728094" lon="-105.230954">
  <ele>1595.49</ele>
  <time>2026-08-27T18:29:36Z</time>
  <course>331.3</course>
  <speed>0.0</speed>
  <fix>3d</fix>
</trkpt>
<trkpt lat="40.0728095" lon="-105.230954">
  <ele>1595.56</ele>
  <time>2026-08-27T18:29:36Z</time>
  <course>78.4</course>
  <speed>0.0</speed>
  <fix>3d</fix>
</trkpt>
<trkpt lat="40.0728094" lon="-105.230954">
  <ele>1595.49</ele>
  <time>2026-08-27T18:29:36Z</time>
  <course>326.93</course>
  <speed>0.0</speed>
  <fix>3d</fix>
</trkpt>
<trkpt lat="40.0728095" lon="-105.230954">
  <ele>1595.57</ele>
  <time>2026-08-27T18:29:36Z</time>
  <course>79.9</course>
  <speed>0.0</speed>
  <fix>3d</fix>
</trkpt>
<trkpt lat="40.0728094" lon="-105.230954">
  <ele>1595.49</ele>
  <time>2026-08-27T18:29:36Z</time>
  <course>317.89</course>
  <speed>0.0</speed>
  <fix>3d</fix>
</trkpt>
<trkpt lat="40.0728095" lon="-105.230954">
  <ele>1595.57</ele>
  <time>2026-08-27T18:29:36Z</time>
  <course>81.14</course>
  <speed>0.0</speed>
  <fix>3d</fix>
</trkpt>
<trkpt lat="40.0728094" lon="-105.230954">
  <ele>1595.49</ele>
  <time>2026-08-27T18:29:36Z</time>
  <course>294.02</course>
  <speed>0.0</speed>
  <fix>3d</fix>
</trkpt>
<trkpt lat="40.0728095" lon="-105.230954">
  <ele>1595.57</ele>
  <time>2026-08-27T18:29:36Z</time>
  <course>82.06</course>
  <speed>0.0</speed>
  <fix>3d</fix>
</trkpt>
<trkpt lat="40.0728094" lon="-105.230954">
  <ele>1595.49</ele>
  <time>2026-08-27T18:29:36Z</time>
  <course>223.15</course>
  <speed>0.0</speed>
  <fix>3d</fix>
</trkpt>
<trkpt lat="40.0728095" lon="-105.230954">
  <ele>1595.56</ele>
  <time>2026-08-27T18:29:36Z</time>
  <course>82.55</course>
  <speed>0.0</speed>
  <fix>3d</fix>
</trkpt>
<trkpt lat="40.0728094" lon="-105.230954">
  <ele>1595.49</ele>
  <time>2026-08-27T18:29:36Z</time>
  <course>170.28</course>
  <speed>0.0</speed>
  <fix>3d</fix>
</trkpt>
<trkpt lat="40.0728095" lon="-105.230954">
  <ele>1595.56</ele>
  <time>2026-08-27T18:29:36Z</time>
  <course>82.54</course>
  <speed>0.0</speed>
  <fix>3d</fix>
</trkpt>
<trkpt lat="40.0728094" lon="-105.230954">
  <ele>1595.49</ele>
  <time>2026-08-27T18:29:36Z</time>
  <course>152.95</course>
  <speed>0.0</speed>
  <fix>3d</fix>
</trkpt>
<trkpt lat="40.0728094" lon="-105.230954">
  <ele>1595.56</ele>
  <time>2026-08-27T18:29:36Z</time>
  <course>82.05</course>
  <speed>0.0</speed>
  <fix>3d</fix>
</trkpt>
<trkpt lat="40.0728094" lon="-105.230954">
  <ele>1595.49</ele>
  <time>2026-08-27T18:29:36Z</time>
  <course>147.51</course>
  <speed>0.0</speed>
  <fix>3d</fix>
</trkpt>
<trkpt lat="40.0728094" lon="-105.230954">
  <ele>1595.56</ele>
  <time>2026-08-27T18:29:36Z</time>
  <course>81.15</course>
  <speed>0.01</speed>
  <fix>3d</fix>
</trkpt>
<trkpt lat="40.0728094" lon="-105.230954">
  <ele>1595.49</ele>
  <time>2026-08-27T18:29:36Z</time>
  <course>145.2</course>
  <speed>0.0</speed>
  <fix>3d</fix>
</trkpt>
<trkpt lat="40.0728094" lon="-105.230954">
  <ele>1595.56</ele>
  <time>2026-08-27T18:29:36Z</time>
  <course>79.89</course>
  <speed>0.01</speed>
  <fix>3d</fix>
</trkpt>
<trkpt lat="40.0728094" lon="-105.230954">
  <ele>1595.49</ele>
  <time>2026-08-27T18:29:36Z</time>
  <course>140.35</course>
  <speed>0.01</speed>
  <fix>3d</fix>
</trkpt>
<trkpt lat="40.0728094" lon="-105.230954">
  <ele>1595.56</ele>
  <time>2026-08-27T18:29:36Z</time>
  <course>78.44</course>
  <speed>0.01</speed>
  <fix>3d</fix>
</trkpt>
<trkpt lat="40.0728094" lon="-105.230954">
  <ele>1595.49</ele>
  <time>2026-08-27T18:29:36Z</time>
  <course>133.66</course>
  <speed>0.01</speed>
  <fix>3d</fix>
</trkpt>
<trkpt lat="40.0728094" lon="-105.230954">
  <ele>1595.56</ele>
  <time>2026-08-27T18:29:36Z</time>
  <course>76.93</course>
  <speed>0.0</speed>
  <fix>3d</fix>
</trkpt>
<trkpt lat="40.0728094" lon="-105.230954">
  <ele>1595.49</ele>
  <time>2026-08-27T18:29:36Z</time>
  <course>126.31</course>
  <speed>0.01</speed>
  <fix>3d</fix>
</trkpt>
<trkpt lat="40.0728094" lon="-105.230954">
  <ele>1595.56</ele>
  <time>2026-08-27T18:29:36Z</time>
  <course>75.47</course>
  <speed>0.0</speed>
  <fix>3d</fix>
</trkpt>
<trkpt lat="40.0728094" lon="-105.2309539">
  <ele>1595.49</ele>
  <time>2026-08-27T18:29:36Z</time>
  <course>117.36</course>
  <speed>0.01</speed>
  <fix>3d</fix>
</trkpt>
<trkpt lat="40.0728094" lon="-105.230954">
  <ele>1595.56</ele>
  <time>2026-08-27T18:29:36Z</time>
  <course>74.22</course>
  <speed>0.0</speed>
  <fix>3d</fix>
</trkpt>
<trkpt lat="40.0728094" lon="-105.2309538">
  <ele>1595.49</ele>
  <time>2026-08-27T18:29:36Z</time>
  <course>107.53</course>
  <speed>0.01</speed>
  <fix>3d</fix>
</trkpt>
<trkpt lat="40.0728094" lon="-105.2309539">
  <ele>1595.56</ele>
  <time>2026-08-27T18:29:36Z</time>
  <course>73.35</course>
  <speed>0.0</speed>
  <fix>3d</fix>
</trkpt>
<trkpt lat="40.0728094" lon="-105.2309538">
  <ele>1595.5</ele>
  <time>2026-08-27T18:29:36Z</time>
  <course>96.79</course>
  <speed>0.01</speed>
  <fix>3d</fix>
</trkpt>
<trkpt lat="40.0728094" lon="-105.2309539">
  <ele>1595.56</ele>
  <time>2026-08-27T18:29:36Z</time>
  <course>72.86</course>
  <speed>0.0</speed>
  <fix>3d</fix>
</trkpt>
<trkpt lat="40.0728094" lon="-105.2309538">
  <ele>1595.5</ele>
  <time>2026-08-27T18:29:36Z</time>
  <course>85.52</course>
  <speed>0.01</speed>
  <fix>3d</fix>
</trkpt>
<trkpt lat="40.0728094" lon="-105.2309539">
  <ele>1595.56</ele>
  <time>2026-08-27T18:29:36Z</time>
  <course>72.85</course>
  <speed>0.0</speed>
  <fix>3d</fix>
</trkpt>
<trkpt lat="40.0728094" lon="-105.2309538">
  <ele>1595.5</ele>
  <time>2026-08-27T18:29:36Z</time>
  <course>72.04</course>
  <speed>0.01</speed>
  <fix>3d</fix>
</trkpt>
<trkpt lat="40.0728094" lon="-105.2309538">
  <ele>1595.56</ele>
  <time>2026-08-27T18:29:36Z</time>
  <course>73.32</course>
  <speed>0.0</speed>
  <fix>3d</fix>
</trkpt>
<trkpt lat="40.0728094" lon="-105.2309538">
  <ele>1595.5</ele>
  <time>2026-08-27T18:29:36Z</time>
  <course>55.85</course>
  <speed>0.01</speed>
  <fix>3d</fix>
</trkpt>
<trkpt lat="40.0728094" lon="-105.2309538">
  <ele>1595.56</ele>
  <time>2026-08-27T18:29:36Z</time>
  <course>74.24</course>
  <speed>0.0</speed>
  <fix>3d</fix>
</trkpt>
<trkpt lat="40.0728094" lon="-105.2309538">
  <ele>1595.5</ele>
  <time>2026-08-27T18:29:36Z</time>
  <course>43.26</course>
  <speed>0.01</speed>
  <fix>3d</fix>
</trkpt>
<trkpt lat="40.0728094" lon="-105.2309538">
  <ele>1595.56</ele>
  <time>2026-08-27T18:29:36Z</time>
  <course>75.47</course>
  <speed>0.0</speed>
  <fix>3d</fix>
</trkpt>
<trkpt lat="40.0728094" lon="-105.2309538">
  <ele>1595.5</ele>
  <time>2026-08-27T18:29:36Z</time>
  <course>35.13</course>
  <speed>0.01</speed>
  <fix>3d</fix>
</trkpt>
<trkpt lat="40.0728094" lon="-105.2309538">
  <ele>1595.57</ele>
  <time>2026-08-27T18:29:36Z</time>
  <course>76.92</course>
  <speed>0.0</speed>
  <fix>3d</fix>
</trkpt>
<trkpt lat="40.0728094" lon="-105.2309537">
  <ele>1595.5</ele>
  <time>2026-08-27T18:29:36Z</time>
  <course>27.98</course>
  <speed>0.01</speed>
  <fix>3d</fix>
</trkpt>
<trkpt lat="40.0728094" lon="-105.2309538">
  <ele>1595.57</ele>
  <time>2026-08-27T18:29:36Z</time>
  <course>78.47</course>
  <speed>0.0</speed>
  <fix>3d</fix>
</trkpt>
<trkpt lat="40.0728094" lon="-105.2309537">
  <ele>1595.5</ele>
  <time>2026-08-27T18:29:36Z</time>
  <course>18.9</course>
  <speed>0.01</speed>
  <fix>3d</fix>
</trkpt>
<trkpt lat="40.0728094" lon="-105.2309538">
  <ele>1595.58</ele>
  <time>2026-08-27T18:29:36Z</time>
  <course>79.94</course>
  <speed>0.0</speed>
  <fix>3d</fix>
</trkpt>
<trkpt lat="40.0728094" lon="-105.2309537">
  <ele>1595.5</ele>
  <time>2026-08-27T18:29:36Z</time>
  <course>10.17</course>
  <speed>0.0</speed>
  <fix>3d</fix>
</trkpt>
<trkpt lat="40.0728094" lon="-105.2309538">
  <ele>1595.58</ele>
  <time>2026-08-27T18:29:36Z</time>
  <course>81.19</course>
  <speed>0.0</speed>
  <fix>3d</fix>
</trkpt>
<trkpt lat="40.0728094" lon="-105.2309537">
  <ele>1595.5</ele>
  <time>2026-08-27T18:29:36Z</time>
  <course>3.79</course>
  <speed>0.0</speed>
  <fix>3d</fix>
</trkpt>
<trkpt lat="40.0728094" lon="-105.2309538">
  <ele>1595.58</ele>
  <time>2026-08-27T18:29:36Z</time>
  <course>82.12</course>
  <speed>0.0</speed>
  <fix>3d</fix>
</trkpt>
<trkpt lat="40.0728094" lon="-105.2309537">
  <ele>1595.5</ele>
  <time>2026-08-27T18:29:36Z</time>
  <course>359.27</course>
  <speed>0.0</speed>
  <fix>3d</fix>
</trkpt>
<trkpt lat="40.0728094" lon="-105.2309538">
  <ele>1595.58</ele>
  <time>2026-08-27T18:29:36Z</time>
  <course>82.6</course>
  <speed>0.0</speed>
  <fix>3d</fix>
</trkpt>
<trkpt lat="40.0728094" lon="-105.2309537">
  <ele>1595.49</ele>
  <time>2026-08-27T18:29:36Z</time>
  <course>16.38</course>
  <speed>0.0</speed>
  <fix>3d</fix>
</trkpt>
<trkpt lat="40.0728094" lon="-105.2309538">
  <ele>1595.57</ele>
  <time>2026-08-27T18:29:36Z</time>
  <course>82.58</course>
  <speed>0.0</speed>
  <fix>3d</fix>
</trkpt>
<trkpt lat="40.0728094" lon="-105.2309537">
  <ele>1595.49</ele>
  <time>2026-08-27T18:29:36Z</time>
  <course>118.85</course>
  <speed>0.0</speed>
  <fix>3d</fix>
</trkpt>
<trkpt lat="40.0728094" lon="-105.2309538">
  <ele>1595.57</ele>
  <time>2026-08-27T18:29:36Z</time>
  <course>82.08</course>
  <speed>0.01</speed>
  <fix>3d</fix>
</trkpt>
<trkpt lat="40.0728094" lon="-105.2309537">
  <ele>1595.49</ele>
  <time>2026-08-27T18:29:36Z</time>
  <course>125.47</course>
  <speed>0.0</speed>
  <fix>3d</fix>
</trkpt>
<trkpt lat="40.0728094" lon="-105.2309538">
  <ele>1595.57</ele>
  <time>2026-08-27T18:29:36Z</time>
  <course>81.17</course>
  <speed>0.01</speed>
  <fix>3d</fix>
</trkpt>
<trkpt lat="40.0728094" lon="-105.2309537">
  <ele>1595.48</ele>
  <time>2026-08-27T18:29:36Z</time>
  <course>121.34</course>
  <speed>0.0</speed>
  <fix>3d</fix>
</trkpt>
<trkpt lat="40.0728094" lon="-105.2309538">
  <ele>1595.57</ele>
  <time>2026-08-27T18:29:36Z</time>
  <course>79.93</course>
  <speed>0.01</speed>
  <fix>3d</fix>
</trkpt>
<trkpt lat="40.0728094" lon="-105.2309537">
  <ele>1595.48</ele>
  <time>2026-08-27T18:29:36Z</time>
  <course>116.56</course>
  <speed>0.01</speed>
  <fix>3d</fix>
</trkpt>
<trkpt lat="40.0728094" lon="-105.2309537">
  <ele>1595.57</ele>
  <time>2026-08-27T18:29:36Z</time>
  <course>78.49</course>
  <speed>0.01</speed>
  <fix>3d</fix>
</trkpt>
<trkpt lat="40.0728094" lon="-105.2309536">
  <ele>1595.48</ele>
  <time>2026-08-27T18:29:36Z</time>
  <course>109.98</course>
  <speed>0.01</speed>
  <fix>3d</fix>
</trkpt>
<trkpt lat="40.0728094" lon="-105.2309537">
  <ele>1595.57</ele>
  <time>2026-08-27T18:29:36Z</time>
  <course>76.98</course>
  <speed>0.0</speed>
  <fix>3d</fix>
</trkpt>
<trkpt lat="40.0728094" lon="-105.2309535">
  <ele>1595.48</ele>
  <time>2026-08-27T18:29:36Z</time>
  <course>102.04</course>
  <speed>0.01</speed>
  <fix>3d</fix>
</trkpt>
<trkpt lat="40.0728094" lon="-105.2309537">
  <ele>1595.57</ele>
  <time>2026-08-27T18:29:36Z</time>
  <course>75.54</course>
  <speed>0.0</speed>
  <fix>3d</fix>
</trkpt>
<trkpt lat="40.0728094" lon="-105.2309535">
  <ele>1595.47</ele>
  <time>2026-08-27T18:29:36Z</time>
  <course>93.29</course>
  <speed>0.01</speed>
  <fix>3d</fix>
</trkpt>
<trkpt lat="40.0728094" lon="-105.2309536">
  <ele>1595.57</ele>
  <time>2026-08-27T18:29:36Z</time>
  <course>74.3</course>
  <speed>0.0</speed>
  <fix>3d</fix>
</trkpt>
<trkpt lat="40.0728094" lon="-105.2309535">
  <ele>1595.47</ele>
  <time>2026-08-27T18:29:36Z</time>
  <course>83.21</course>
  <speed>0.01</speed>
  <fix>3d</fix>
</trkpt>
<trkpt lat="40.0728094" lon="-105.2309536">
  <ele>1595.57</ele>
  <time>2026-08-27T18:29:36Z</time>
  <course>73.37</course>
  <speed>0.0</speed>
  <fix>3d</fix>
</trkpt>
<trkpt lat="40.0728094" lon="-105.2309535">
  <ele>1595.47</ele>
  <time>2026-08-27T18:29:36Z</time>
  <course>73.01</course>
  <speed>0.01</speed>
  <fix>3d</fix>
</trkpt>
<trkpt lat="40.0728094" lon="-105.2309536">
  <ele>1595.56</ele>
  <time>2026-08-27T18:29:36Z</time>
  <course>72.9</course>
  <speed>0.0</speed>
  <fix>3d</fix>
</trkpt>
<trkpt lat="40.0728094" lon="-105.2309535">
  <ele>1595.47</ele>
  <time>2026-08-27T18:29:36Z</time>
  <course>62.16</course>
  <speed>0.01</speed>
  <fix>3d</fix>
</trkpt>
<trkpt lat="40.0728094" lon="-105.2309535">
  <ele>1595.56</ele>
  <time>2026-08-27T18:29:36Z</time>
  <course>72.77</course>
  <speed>0.0</speed>
  <fix>3d</fix>
</trkpt>
<trkpt lat="40.0728094" lon="-105.2309534">
  <ele>1595.46</ele>
  <time>2026-08-27T18:29:36Z</time>
  <course>54.78</course>
  <speed>0.01</speed>
  <fix>3d</fix>
</trkpt>
<trkpt lat="40.0728094" lon="-105.2309535">
  <ele>1595.55</ele>
  <time>2026-08-27T18:29:36Z</time>
  <course>72.55</course>
  <speed>0.0</speed>
  <fix>3d</fix>
</trkpt>
<trkpt lat="40.0728094" lon="-105.2309533">
  <ele>1595.46</ele>
  <time>2026-08-27T18:29:36Z</time>
  <course>55.32</course>
  <speed>0.01</speed>
  <fix>3d</fix>
</trkpt>
<trkpt lat="40.0728094" lon="-105.2309534">
  <ele>1595.54</ele>
  <time>2026-08-27T18:29:36Z</time>
  <course>72.42</course>
  <speed>0.0</speed>
  <fix>3d</fix>
</trkpt>
<trkpt lat="40.0728094" lon="-105.2309533">
  <ele>1595.46</ele>
  <time>2026-08-27T18:29:36Z</time>
  <course>57.99</course>
  <speed>0.01</speed>
  <fix>3d</fix>
</trkpt>
<trkpt lat="40.0728094" lon="-105.2309534">
  <ele>1595.54</ele>
  <time>2026-08-27T18:29:36Z</time>
  <course>72.34</course>
  <speed>0.0</speed>
  <fix>3d</fix>
</trkpt>
<trkpt lat="40.0728094" lon="-105.2309533">
  <ele>1595.46</ele>
  <time>2026-08-27T18:29:36Z</time>
  <course>59.83</course>
  <speed>0.01</speed>
  <fix>3d</fix>
</trkpt>
<trkpt lat="40.0728094" lon="-105.2309534">
  <ele>1595.54</ele>
  <time>2026-08-27T18:29:36Z</time>
  <course>72.32</course>
  <speed>0.01</speed>
  <fix>3d</fix>
</trkpt>
<trkpt lat="40.0728094" lon="-105.2309533">
  <ele>1595.46</ele>
  <time>2026-08-27T18:29:36Z</time>
  <course>60.82</course>
  <speed>0.01</speed>
  <fix>3d</fix>
</trkpt>
<trkpt lat="40.0728094" lon="-105.2309533">
  <ele>1595.54</ele>
  <time>2026-08-27T18:29:36Z</time>
  <course>72.33</course>
  <speed>0.01</speed>
  <fix>3d</fix>
</trkpt>
<trkpt lat="40.0728095" lon="-105.2309533">
  <ele>1595.46</ele>
  <time>2026-08-27T18:29:36Z</time>
  <course>60.0</course>
  <speed>0.01</speed>
  <fix>3d</fix>
</trkpt>
<trkpt lat="40.0728094" lon="-105.2309533">
  <ele>1595.54</ele>
  <time>2026-08-27T18:29:36Z</time>
  <course>72.32</course>
  <speed>0.01</speed>
  <fix>3d</fix>
</trkpt>
<trkpt lat="40.0728095" lon="-105.2309532">
  <ele>1595.47</ele>
  <time>2026-08-27T18:29:36Z</time>
  <course>60.12</course>
  <speed>0.01</speed>
  <fix>3d</fix>
</trkpt>
<trkpt lat="40.0728094" lon="-105.2309533">
  <ele>1595.55</ele>
  <time>2026-08-27T18:29:36Z</time>
  <course>72.34</course>
  <speed>0.01</speed>
  <fix>3d</fix>
</trkpt>
<trkpt lat="40.0728095" lon="-105.2309532">
  <ele>1595.47</ele>
  <time>2026-08-27T18:29:36Z</time>
  <course>60.06</course>
  <speed>0.02</speed>
  <fix>3d</fix>
</trkpt>
<trkpt lat="40.0728094" lon="-105.2309532">
  <ele>1595.55</ele>
  <time>2026-08-27T18:29:36Z</time>
  <course>72.36</course>
  <speed>0.01</speed>
  <fix>3d</fix>
</trkpt>
<trkpt lat="40.0728095" lon="-105.2309531">
  <ele>1595.48</ele>
  <time>2026-08-27T18:29:36Z</time>
  <course>59.66</course>
  <speed>0.02</speed>
  <fix>3d</fix>
</trkpt>
<trkpt lat="40.0728095" lon="-105.2309532">
  <ele>1595.55</ele>
  <time>2026-08-27T18:29:36Z</time>
  <course>72.38</course>
  <speed>0.01</speed>
  <fix>3d</fix>
</trkpt>
<trkpt lat="40.0728095" lon="-105.230953">
  <ele>1595.48</ele>
  <time>2026-08-27T18:29:36Z</time>
  <course>60.19</course>
  <speed>0.02</speed>
  <fix>3d</fix>
</trkpt>
<trkpt lat="40.0728095" lon="-105.2309531">
  <ele>1595.56</ele>
  <time>2026-08-27T18:29:36Z</time>
  <course>72.39</course>
  <speed>0.01</speed>
  <fix>3d</fix>
</trkpt>
<trkpt lat="40.0728096" lon="-105.230953">
  <ele>1595.48</ele>
  <time>2026-08-27T18:29:36Z</time>
  <course>60.72</course>
  <speed>0.02</speed>
  <fix>3d</fix>
</trkpt>
<trkpt lat="40.0728095" lon="-105.2309531">
  <ele>1595.56</ele>
  <time>2026-08-27T18:29:36Z</time>
  <course>72.4</course>
  <speed>0.01</speed>
  <fix>3d</fix>
</trkpt>
<trkpt lat="40.0728096" lon="-105.230953">
  <ele>1595.49</ele>
  <time>2026-08-27T18:29:36Z</time>
  <course>60.39</course>
  <speed>0.02</speed>
  <fix>3d</fix>
</trkpt>
<trkpt lat="40.0728095" lon="-105.230953">
  <ele>1595.56</ele>
  <time>2026-08-27T18:29:36Z</time>
  <course>72.41</course>
  <speed>0.01</speed>
  <fix>3d</fix>
</trkpt>
<trkpt lat="40.0728096" lon="-105.2309529">
  <ele>1595.49</ele>
  <time>2026-08-27T18:29:36Z</time>
  <course>59.62</course>
  <speed>0.02</speed>
  <fix>3d</fix>
</trkpt>
<trkpt lat="40.0728095" lon="-105.230953">
  <ele>1595.56</ele>
  <time>2026-08-27T18:29:36Z</time>
  <course>72.42</course>
  <speed>0.01</speed>
  <fix>3d</fix>
</trkpt>
<trkpt lat="40.0728096" lon="-105.2309528">
  <ele>1595.49</ele>
  <time>2026-08-27T18:29:36Z</time>
  <course>59.1</course>
  <speed>0.02</speed>
  <fix>3d</fix>
</trkpt>
<trkpt lat="40.0728096" lon="-105.2309529">
  <ele>1595.56</ele>
  <time>2026-08-27T18:29:36Z</time>
  <course>72.43</course>
  <speed>0.01</speed>
  <fix>3d</fix>
</trkpt>
<trkpt lat="40.0728096" lon="-105.2309528">
  <ele>1595.49</ele>
  <time>2026-08-27T18:29:36Z</time>
  <course>58.72</course>
  <speed>0.02</speed>
  <fix>3d</fix>
</trkpt>
<trkpt lat="40.0728096" lon="-105.2309528">
  <ele>1595.56</ele>
  <time>2026-08-27T18:29:36Z</time>
  <course>72.43</course>
  <speed>0.01</speed>
  <fix>3d</fix>
</trkpt>
<trkpt lat="40.0728097" lon="-105.2309528">
  <ele>1595.49</ele>
  <time>2026-08-27T18:29:36Z</time>
  <course>58.45</course>
  <speed>0.02</speed>
  <fix>3d</fix>
</trkpt>
<trkpt lat="40.0728096" lon="-105.2309528">
  <ele>1595.57</ele>
  <time>2026-08-27T18:29:36Z</time>
  <course>72.43</course>
  <speed>0.01</speed>
  <fix>3d</fix>
</trkpt>
<trkpt lat="40.0728097" lon="-105.2309527">
  <ele>1595.49</ele>
  <time>2026-08-27T18:29:36Z</time>
  <course>58.27</course>
  <speed>0.02</speed>
  <fix>3d</fix>
</trkpt>
<trkpt lat="40.0728096" lon="-105.2309527">
  <ele>1595.57</ele>
  <time>2026-08-27T18:29:36Z</time>
  <course>71.94</course>
  <speed>0.01</speed>
  <fix>3d</fix>
</trkpt>
<trkpt lat="40.0728097" lon="-105.2309526">
  <ele>1595.49</ele>
  <time>2026-08-27T18:29:36Z</time>
  <course>61.64</course>
  <speed>0.02</speed>
  <fix>3d</fix>
</trkpt>
<trkpt lat="40.0728096" lon="-105.2309527">
  <ele>1595.57</ele>
  <time>2026-08-27T18:29:36Z</time>
  <course>70.71</course>
  <speed>0.01</speed>
  <fix>3d</fix>
</trkpt>
<trkpt lat="40.0728097" lon="-105.2309526">
  <ele>1595.49</ele>
  <time>2026-08-27T18:29:36Z</time>
  <course>67.77</course>
  <speed>0.02</speed>
  <fix>3d</fix>
</trkpt>
<trkpt lat="40.0728096" lon="-105.2309526">
  <ele>1595.56</ele>
  <time>2026-08-27T18:29:36Z</time>
  <course>69.43</course>
  <speed>0.01</speed>
  <fix>3d</fix>
</trkpt>
<trkpt lat="40.0728098" lon="-105.2309526">
  <ele>1595.49</ele>
  <time>2026-08-27T18:29:36Z</time>
  <course>70.1</course>
  <speed>0.02</speed>
  <fix>3d</fix>
</trkpt>
<trkpt lat="40.0728097" lon="-105.2309526">
  <ele>1595.56</ele>
  <time>2026-08-27T18:29:36Z</time>
  <course>68.38</course>
  <speed>0.01</speed>
  <fix>3d</fix>
</trkpt>
<trkpt lat="40.0728098" lon="-105.2309525">
  <ele>1595.49</ele>
  <time>2026-08-27T18:29:36Z</time>
  <course>67.7</course>
  <speed>0.02</speed>
  <fix>3d</fix>
</trkpt>
<trkpt lat="40.0728097" lon="-105.2309525">
  <ele>1595.57</ele>
  <time>2026-08-27T18:29:36Z</time>
  <course>67.73</course>
  <speed>0.01</speed>
  <fix>3d</fix>
</trkpt>
<trkpt lat="40.0728098" lon="-105.2309524">
  <ele>1595.49</ele>
  <time>2026-08-27T18:29:36Z</time>
  <course>62.71</course>
  <speed>0.02</speed>
  <fix>3d</fix>
</trkpt>
<trkpt lat="40.0728097" lon="-105.2309525">
  <ele>1595.56</ele>
  <time>2026-08-27T18:29:36Z</time>
  <course>67.56</course>
  <speed>0.01</speed>
  <fix>3d</fix>
</trkpt>
<trkpt lat="40.0728098" lon="-105.2309523">
  <ele>1595.49</ele>
  <time>2026-08-27T18:29:36Z</time>
  <course>56.9</course>
  <speed>0.02</speed>
  <fix>3d</fix>
</trkpt>
<trkpt lat="40.0728097" lon="-105.2309524">
  <ele>1595.57</ele>
  <time>2026-08-27T18:29:36Z</time>
  <course>67.85</course>
  <speed>0.01</speed>
  <fix>3d</fix>
</trkpt>
<trkpt lat="40.0728098" lon="-105.2309523">
  <ele>1595.49</ele>
  <time>2026-08-27T18:29:36Z</time>
  <course>50.91</course>
  <speed>0.02</speed>
  <fix>3d</fix>
</trkpt>
<trkpt lat="40.0728098" lon="-105.2309524">
  <ele>1595.57</ele>
  <time>2026-08-27T18:29:36Z</time>
  <course>68.59</course>
  <speed>0.0</speed>
  <fix>3d</fix>
</trkpt>
<trkpt lat="40.0728098" lon="-105.2309523">
  <ele>1595.49</ele>
  <time>2026-08-27T18:29:36Z</time>
  <course>44.65</course>
  <speed>0.02</speed>
  <fix>3d</fix>
</trkpt>
<trkpt lat="40.0728098" lon="-105.2309523">
  <ele>1595.57</ele>
  <time>2026-08-27T18:29:36Z</time>
  <course>69.75</course>
  <speed>0.0</speed>
  <fix>3d</fix>
</trkpt>
<trkpt lat="40.0728098" lon="-105.2309523">
  <ele>1595.49</ele>
  <time>2026-08-27T18:29:36Z</time>
  <course>37.61</course>
  <speed>0.02</speed>
  <fix>3d</fix>
</trkpt>
<trkpt lat="40.0728098" lon="-105.2309523">
  <ele>1595.57</ele>
  <time>2026-08-27T18:29:36Z</time>
  <course>71.14</course>
  <speed>0.0</speed>
  <fix>3d</fix>
</trkpt>
<trkpt lat="40.0728099" lon="-105.2309523">
  <ele>1595.49</ele>
  <time>2026-08-27T18:29:36Z</time>
  <course>31.14</course>
  <speed>0.02</speed>
  <fix>3d</fix>
</trkpt>
<trkpt lat="40.0728098" lon="-105.2309523">
  <ele>1595.57</ele>
  <time>2026-08-27T18:29:36Z</time>
  <course>72.64</course>
  <speed>0.0</speed>
  <fix>3d</fix>
</trkpt>
<trkpt lat="40.0728099" lon="-105.2309522">
  <ele>1595.48</ele>
  <time>2026-08-27T18:29:36Z</time>
  <course>26.46</course>
  <speed>0.02</speed>
  <fix>3d</fix>
</trkpt>
<trkpt lat="40.0728099" lon="-105.2309523">
  <ele>1595.56</ele>
  <time>2026-08-27T18:29:36Z</time>
  <course>74.14</course>
  <speed>0.0</speed>
  <fix>3d</fix>
</trkpt>
<trkpt lat="40.0728099" lon="-105.2309521">
  <ele>1595.48</ele>
  <time>2026-08-27T18:29:36Z</time>
  <course>23.46</course>
  <speed>0.01</speed>
  <fix>3d</fix>
</trkpt>
<trkpt lat="40.0728099" lon="-105.2309523">
  <ele>1595.56</ele>
  <time>2026-08-27T18:29:36Z</time>
  <course>75.44</course>
  <speed>0.0</speed>
  <fix>3d</fix>
</trkpt>
<trkpt lat="40.07281" lon="-105.2309521">
  <ele>1595.48</ele>
  <time>2026-08-27T18:29:36Z</time>
  <course>22.68</course>
  <speed>0.01</speed>
  <fix>3d</fix>
</trkpt>
<trkpt lat="40.0728099" lon="-105.2309523">
  <ele>1595.55</ele>
  <time>2026-08-27T18:29:36Z</time>
  <course>76.49</course>
  <speed>0.0</speed>
  <fix>3d</fix>
</trkpt>
<trkpt lat="40.0728101" lon="-105.2309521">
  <ele>1595.48</ele>
  <time>2026-08-27T18:29:36Z</time>
  <course>25.07</course>
  <speed>0.01</speed>
  <fix>3d</fix>
</trkpt>
<trkpt lat="40.0728099" lon="-105.2309522">
  <ele>1595.55</ele>
  <time>2026-08-27T18:29:36Z</time>
  <course>77.13</course>
  <speed>0.0</speed>
  <fix>3d</fix>
</trkpt>
<trkpt lat="40.0728101" lon="-105.2309521">
  <ele>1595.48</ele>
  <time>2026-08-27T18:29:36Z</time>
  <course>31.62</course>
  <speed>0.01</speed>
  <fix>3d</fix>
</trkpt>
<trkpt lat="40.07281" lon="-105.2309522">
  <ele>1595.55</ele>
  <time>2026-08-27T18:29:36Z</time>
  <course>77.3</course>
  <speed>0.0</speed>
  <fix>3d</fix>
</trkpt>
<trkpt lat="40.0728101" lon="-105.2309521">
  <ele>1595.48</ele>
  <time>2026-08-27T18:29:36Z</time>
  <course>42.74</course>
  <speed>0.01</speed>
  <fix>3d</fix>
</trkpt>
<trkpt lat="40.07281" lon="-105.2309522">
  <ele>1595.55</ele>
  <time>2026-08-27T18:29:36Z</time>
  <course>77.01</course>
  <speed>0.0</speed>
  <fix>3d</fix>
</trkpt>
<trkpt lat="40.0728101" lon="-105.2309521">
  <ele>1595.48</ele>
  <time>2026-08-27T18:29:36Z</time>
  <course>54.97</course>
  <speed>0.01</speed>
  <fix>3d</fix>
</trkpt>
<trkpt lat="40.07281" lon="-105.2309522">
  <ele>1595.56</ele>
  <time>2026-08-27T18:29:36Z</time>
  <course>76.26</course>
  <speed>0.0</speed>
  <fix>3d</fix>
</trkpt>
<trkpt lat="40.0728101" lon="-105.2309521">
  <ele>1595.48</ele>
  <time>2026-08-27T18:29:36Z</time>
  <course>65.04</course>
  <speed>0.01</speed>
  <fix>3d</fix>
</trkpt>
<trkpt lat="40.07281" lon="-105.2309521">
  <ele>1595.56</ele>
  <time>2026-08-27T18:29:36Z</time>
  <course>75.14</course>
  <speed>0.0</speed>
  <fix>3d</fix>
</trkpt>
<trkpt lat="40.0728102" lon="-105.2309521">
  <ele>1595.48</ele>
  <time>2026-08-27T18:29:36Z</time>
  <course>72.14</course>
  <speed>0.01</speed>
  <fix>3d</fix>
</trkpt>
<trkpt lat="40.07281" lon="-105.2309521">
  <ele>1595.56</ele>
  <time>2026-08-27T18:29:36Z</time>
  <course>73.74</course>
  <speed>0.01</speed>
  <fix>3d</fix>
</trkpt>
<trkpt lat="40.0728102" lon="-105.230952">
  <ele>1595.49</ele>
  <time>2026-08-27T18:29:36Z</time>
  <course>74.67</course>
  <speed>0.01</speed>
  <fix>3d</fix>
</trkpt>
<trkpt lat="40.07281" lon="-105.2309521">
  <ele>1595.56</ele>
  <time>2026-08-27T18:29:36Z</time>
  <course>72.24</course>
  <speed>0.01</speed>
  <fix>3d</fix>
</trkpt>
<trkpt lat="40.0728102" lon="-105.230952">
  <ele>1595.49</ele>
  <time>2026-08-27T18:29:36Z</time>
  <course>73.2</course>
  <speed>0.01</speed>
  <fix>3d</fix>
</trkpt>
<trkpt lat="40.0728101" lon="-105.230952">
  <ele>1595.56</ele>
  <time>2026-08-27T18:29:36Z</time>
  <course>70.78</course>
  <speed>0.01</speed>
  <fix>3d</fix>
</trkpt>
<trkpt lat="40.0728102" lon="-105.2309519">
  <ele>1595.49</ele>
  <time>2026-08-27T18:29:36Z</time>
  <course>69.71</course>
  <speed>0.01</speed>
  <fix>3d</fix>
</trkpt>
<trkpt lat="40.0728101" lon="-105.230952">
  <ele>1595.56</ele>
  <time>2026-08-27T18:29:36Z</time>
  <course>69.43</course>
  <speed>0.01</speed>
  <fix>3d</fix>
</trkpt>
<trkpt lat="40.0728102" lon="-105.2309518">
  <ele>1595.49</ele>
  <time>2026-08-27T18:29:36Z</time>
  <course>65.22</course>
  <speed>0.02</speed>
  <fix>3d</fix>
</trkpt>
<trkpt lat="40.0728101" lon="-105.2309519">
  <ele>1595.56</ele>
  <time>2026-08-27T18:29:36Z</time>
  <course>68.37</course>
  <speed>0.01</speed>
  <fix>3d</fix>
</trkpt>
<trkpt lat="40.0728102" lon="-105.2309518">
  <ele>1595.49</ele>
  <time>2026-08-27T18:29:36Z</time>
  <course>59.46</course>
  <speed>0.02</speed>
  <fix>3d</fix>
</trkpt>
<trkpt lat="40.0728101" lon="-105.2309519">
  <ele>1595.57</ele>
  <time>2026-08-27T18:29:36Z</time>
  <course>67.73</course>
  <speed>0.0</speed>
  <fix>3d</fix>
</trkpt>
<trkpt lat="40.0728102" lon="-105.2309518">
  <ele>1595.48</ele>
  <time>2026-08-27T18:29:36Z</time>
  <course>52.6</course>
  <speed>0.02</speed>
  <fix>3d</fix>
</trkpt>
<trkpt lat="40.0728101" lon="-105.2309518">
  <ele>1595.57</ele>
  <time>2026-08-27T18:29:36Z</time>
  <course>67.56</course>
  <speed>0.0</speed>
  <fix>3d</fix>
</trkpt>
<trkpt lat="40.0728103" lon="-105.2309518">
  <ele>1595.48</ele>
  <time>2026-08-27T18:29:36Z</time>
  <course>45.83</course>
  <speed>0.02</speed>
  <fix>3d</fix>
</trkpt>
<trkpt lat="40.0728102" lon="-105.2309518">
  <ele>1595.56</ele>
  <time>2026-08-27T18:29:36Z</time>
  <course>67.87</course>
  <speed>0.0</speed>
  <fix>3d</fix>
</trkpt>
<trkpt lat="40.0728103" lon="-105.2309517">
  <ele>1595.48</ele>
  <time>2026-08-27T18:29:36Z</time>
  <course>39.93</course>
  <speed>0.02</speed>
  <fix>3d</fix>
</trkpt>
<trkpt lat="40.0728102" lon="-105.2309518">
  <ele>1595.56</ele>
  <time>2026-08-27T18:29:36Z</time>
  <course>68.6</course>
  <speed>0.0</speed>
  <fix>3d</fix>
</trkpt>
<trkpt lat="40.0728103" lon="-105.2309516">
  <ele>1595.48</ele>
  <time>2026-08-27T18:29:36Z</time>
  <course>34.67</course>
  <speed>0.02</speed>
  <fix>3d</fix>
</trkpt>
<trkpt lat="40.0728102" lon="-105.2309517">
  <ele>1595.56</ele>
  <time>2026-08-27T18:29:36Z</time>
  <course>69.75</course>
  <speed>0.01</speed>
  <fix>3d</fix>
</trkpt>
<trkpt lat="40.0728103" lon="-105.2309516">
  <ele>1595.48</ele>
  <time>2026-08-27T18:29:36Z</time>
  <course>29.95</course>
  <speed>0.02</speed>
  <fix>3d</fix>
</trkpt>
<trkpt lat="40.0728103" lon="-105.2309517">
  <ele>1595.57</ele>
  <time>2026-08-27T18:29:36Z</time>
  <course>71.14</course>
  <speed>0.0</speed>
  <fix>3d</fix>
</trkpt>
<trkpt lat="40.0728104" lon="-105.2309516">
  <ele>1595.48</ele>
  <time>2026-08-27T18:29:36Z</time>
  <course>26.46</course>
  <speed>0.02</speed>
  <fix>3d</fix>
</trkpt>
<trkpt lat="40.0728103" lon="-105.2309517">
  <ele>1595.57</ele>
  <time>2026-08-27T18:29:36Z</time>
  <course>72.64</course>
  <speed>0.0</speed>
  <fix>3d</fix>
</trkpt>
<trkpt lat="40.0728104" lon="-105.2309516">
  <ele>1595.48</ele>
  <time>2026-08-27T18:29:36Z</time>
  <course>24.79</course>
  <speed>0.02</speed>
  <fix>3d</fix>
</trkpt>
<trkpt lat="40.0728104" lon="-105.2309517">
  <ele>1595.57</ele>
  <time>2026-08-27T18:29:36Z</time>
  <course>74.14</course>
  <speed>0.0</speed>
  <fix>3d</fix>
</trkpt>
<trkpt lat="40.0728104" lon="-105.2309516">
  <ele>1595.48</ele>
  <time>2026-08-27T18:29:36Z</time>
  <course>24.11</course>
  <speed>0.02</speed>
  <fix>3d</fix>
</trkpt>
<trkpt lat="40.0728104" lon="-105.2309517">
  <ele>1595.57</ele>
  <time>2026-08-27T18:29:36Z</time>
  <course>75.49</course>
  <speed>0.0</speed>
  <fix>3d</fix>
</trkpt>
<trkpt lat="40.0728104" lon="-105.2309516">
  <ele>1595.48</ele>
  <time>2026-08-27T18:29:36Z</time>
  <course>24.93</course>
  <speed>0.02</speed>
  <fix>3d</fix>
</trkpt>
<trkpt lat="40.0728104" lon="-105.2309516">
  <ele>1595.57</ele>
  <time>2026-08-27T18:29:36Z</time>
  <course>76.55</course>
  <speed>0.0</speed>
  <fix>3d</fix>
</trkpt>
<trkpt lat="40.0728105" lon="-105.2309515">
  <ele>1595.48</ele>
  <time>2026-08-27T18:29:36Z</time>
  <course>28.05</course>
  <speed>0.01</speed>
  <fix>3d</fix>
</trkpt>
<trkpt lat="40.0728104" lon="-105.2309516">
  <ele>1595.57</ele>
  <time>2026-08-27T18:29:36Z</time>
  <course>77.16</course>
  <speed>0.0</speed>
  <fix>3d</fix>
</trkpt>
<trkpt lat="40.0728105" lon="-105.2309514">
  <ele>1595.47</ele>
  <time>2026-08-27T18:29:36Z</time>
  <course>33.38</course>
  <speed>0.01</speed>
  <fix>3d</fix>
</trkpt>
<trkpt lat="40.0728104" lon="-105.2309516">
  <ele>1595.56</ele>
  <time>2026-08-27T18:29:36Z</time>
  <course>77.33</course>
  <speed>0.0</speed>
  <fix>3d</fix>
</trkpt>
<trkpt lat="40.0728105" lon="-105.2309514">
  <ele>1595.47</ele>
  <time>2026-08-27T18:29:36Z</time>
  <course>42.47</course>
  <speed>0.01</speed>
  <fix>3d</fix>
</trkpt>
<trkpt lat="40.0728104" lon="-105.2309515">
  <ele>1595.56</ele>
  <time>2026-08-27T18:29:36Z</time>
  <course>77.03</course>
  <speed>0.0</speed>
  <fix>3d</fix>
</trkpt>
<trkpt lat="40.0728105" lon="-105.2309514">
  <ele>1595.47</ele>
  <time>2026-08-27T18:29:36Z</time>
  <course>53.34</course>
  <speed>0.01</speed>
  <fix>3d</fix>
</trkpt>
<trkpt lat="40.0728104" lon="-105.2309515">
  <ele>1595.56</ele>
  <time>2026-08-27T18:29:36Z</time>
  <course>76.29</course>
  <speed>0.0</speed>
  <fix>3d</fix>
</trkpt>
<trkpt lat="40.0728106" lon="-105.2309514">
  <ele>1595.47</ele>
  <time>2026-08-27T18:29:36Z</time>
  <course>61.7</course>
  <speed>0.01</speed>
  <fix>3d</fix>
</trkpt>
<trkpt lat="40.0728105" lon="-105.2309515">
  <ele>1595.56</ele>
  <time>2026-08-27T18:29:36Z</time>
  <course>75.15</course>
  <speed>0.01</speed>
  <fix>3d</fix>
</trkpt>
<trkpt lat="40.0728107" lon="-105.2309514">
  <ele>1595.47</ele>
  <time>2026-08-27T18:29:36Z</time>
  <course>66.69</course>
  <speed>0.01</speed>
  <fix>3d</fix>
</trkpt>
<trkpt lat="40.0728105" lon="-105.2309514">
  <ele>1595.55</ele>
  <time>2026-08-27T18:29:36Z</time>
  <course>73.77</course>
  <speed>0.01</speed>
  <fix>3d</fix>
</trkpt>
<trkpt lat="40.0728107" lon="-105.2309513">
  <ele>1595.47</ele>
  <time>2026-08-27T18:29:36Z</time>
  <course>69.02</course>
  <speed>0.01</speed>
  <fix>3d</fix>
</trkpt>
<trkpt lat="40.0728105" lon="-105.2309514">
  <ele>1595.55</ele>
  <time>2026-08-27T18:29:36Z</time>
  <course>72.23</course>
  <speed>0.01</speed>
  <fix>3d</fix>
</trkpt>
<trkpt lat="40.0728107" lon="-105.2309513">
  <ele>1595.47</ele>
  <time>2026-08-27T18:29:36Z</time>
  <course>68.75</course>
  <speed>0.02</speed>
  <fix>3d</fix>
</trkpt>
<trkpt lat="40.0728105" lon="-105.2309513">
  <ele>1595.55</ele>
  <time>2026-08-27T18:29:36Z</time>
  <course>70.78</course>
  <speed>0.01</speed>
  <fix>3d</fix>
</trkpt>
<trkpt lat="40.0728107" lon="-105.2309513">
  <ele>1595.47</ele>
  <time>2026-08-27T18:29:36Z</time>
  <course>66.13</course>
  <speed>0.02</speed>
  <fix>3d</fix>
</trkpt>
<trkpt lat="40.0728105" lon="-105.2309513">
  <ele>1595.56</ele>
  <time>2026-08-27T18:29:36Z</time>
  <course>69.42</course>
  <speed>0.01</speed>
  <fix>3d</fix>
</trkpt>
<trkpt lat="40.0728107" lon="-105.2309512">
  <ele>1595.47</ele>
  <time>2026-08-27T18:29:36Z</time>
  <course>62.64</course>
  <speed>0.02</speed>
  <fix>3d</fix>
</trkpt>
<trkpt lat="40.0728106" lon="-105.2309512">
  <ele>1595.56</ele>
  <time>2026-08-27T18:29:36Z</time>
  <course>68.38</course>
  <speed>0.01</speed>
  <fix>3d</fix>
</trkpt>
<trkpt lat="40.0728107" lon="-105.2309511">
  <ele>1595.47</ele>
  <time>2026-08-27T18:29:36Z</time>
  <course>57.31</course>
  <speed>0.02</speed>
  <fix>3d</fix>
</trkpt>
<trkpt lat="40.0728106" lon="-105.2309512">
  <ele>1595.55</ele>
  <time>2026-08-27T18:29:36Z</time>
  <course>67.72</course>
  <speed>0.01</speed>
  <fix>3d</fix>
</trkpt>
<trkpt lat="40.0728108" lon="-105.2309511">
  <ele>1595.48</ele>
  <time>2026-08-27T18:29:36Z</time>
  <course>50.22</course>
  <speed>0.02</speed>
  <fix>3d</fix>
</trkpt>
<trkpt lat="40.0728106" lon="-105.2309511">
  <ele>1595.56</ele>
  <time>2026-08-27T18:29:36Z</time>
  <course>67.55</course>
  <speed>0.0</speed>
  <fix>3d</fix>
</trkpt>
<trkpt lat="40.0728108" lon="-105.230951">
  <ele>1595.48</ele>
  <time>2026-08-27T18:29:36Z</time>
  <course>43.14</course>
  <speed>0.02</speed>
  <fix>3d</fix>
</trkpt>
<trkpt lat="40.0728107" lon="-105.2309511">
  <ele>1595.56</ele>
  <time>2026-08-27T18:29:36Z</time>
  <course>67.84</course>
  <speed>0.01</speed>
  <fix>3d</fix>
</trkpt>
<trkpt lat="40.0728108" lon="-105.2309509">
  <ele>1595.48</ele>
  <time>2026-08-27T18:29:36Z</time>
  <course>36.6</course>
  <speed>0.02</speed>
  <fix>3d</fix>
</trkpt>
<trkpt lat="40.0728107" lon="-105.2309511">
  <ele>1595.56</ele>
  <time>2026-08-27T18:29:36Z</time>
  <course>68.59</course>
  <speed>0.01</speed>
  <fix>3d</fix>
</trkpt>
<trkpt lat="40.0728109" lon="-105.2309509">
  <ele>1595.48</ele>
  <time>2026-08-27T18:29:36Z</time>
  <course>31.3</course>
  <speed>0.02</speed>
  <fix>3d</fix>
</trkpt>
<trkpt lat="40.0728108" lon="-105.230951">
  <ele>1595.55</ele>
  <time>2026-08-27T18:29:36Z</time>
  <course>69.72</course>
  <speed>0.01</speed>
  <fix>3d</fix>
</trkpt>
<trkpt lat="40.0728109" lon="-105.2309509">
  <ele>1595.48</ele>
  <time>2026-08-27T18:29:36Z</time>
  <course>27.18</course>
  <speed>0.02</speed>
  <fix>3d</fix>
</trkpt>
<trkpt lat="40.0728108" lon="-105.230951">
  <ele>1595.55</ele>
  <time>2026-08-27T18:29:36Z</time>
  <course>71.08</course>
  <speed>0.01</speed>
  <fix>3d</fix>
</trkpt>
<trkpt lat="40.072811" lon="-105.2309509">
  <ele>1595.48</ele>
  <time>2026-08-27T18:29:36Z</time>
  <course>24.02</course>
  <speed>0.02</speed>
  <fix>3d</fix>
</trkpt>
<trkpt lat="40.0728109" lon="-105.230951">
  <ele>1595.56</ele>
  <time>2026-08-27T18:29:36Z</time>
  <course>72.58</course>
  <speed>0.01</speed>
  <fix>3d</fix>
</trkpt>
<trkpt lat="40.072811" lon="-105.2309509">
  <ele>1595.48</ele>
  <time>2026-08-27T18:29:36Z</time>
  <course>22.42</course>
  <speed>0.02</speed>
  <fix>3d</fix>
</trkpt>
<trkpt lat="40.0728109" lon="-105.2309509">
  <ele>1595.56</ele>
  <time>2026-08-27T18:29:36Z</time>
  <course>74.11</course>
  <speed>0.0</speed>
  <fix>3d</fix>
</trkpt>
<trkpt lat="40.072811" lon="-105.2309509">
  <ele>1595.48</ele>
  <time>2026-08-27T18:29:36Z</time>
  <course>21.97</course>
  <speed>0.02</speed>
  <fix>3d</fix>
</trkpt>
<trkpt lat="40.072811" lon="-105.2309509">
  <ele>1595.56</ele>
  <time>2026-08-27T18:29:36Z</time>
  <course>75.46</course>
  <speed>0.0</speed>
  <fix>3d</fix>
</trkpt>
<trkpt lat="40.072811" lon="-105.2309508">
  <ele>1595.48</ele>
  <time>2026-08-27T18:29:36Z</time>
  <course>22.61</course>
  <speed>0.02</speed>
  <fix>3d</fix>
</trkpt>
<trkpt lat="40.072811" lon="-105.2309509">
  <ele>1595.56</ele>
  <time>2026-08-27T18:29:36Z</time>
  <course>76.52</course>
  <speed>0.0</speed>
  <fix>3d</fix>
</trkpt>
<trkpt lat="40.0728111" lon="-105.2309508">
  <ele>1595.48</ele>
  <time>2026-08-27T18:29:36Z</time>
  <course>25.05</course>
  <speed>0.02</speed>
  <fix>3d</fix>
</trkpt>
<trkpt lat="40.072811" lon="-105.2309509">
  <ele>1595.56</ele>
  <time>2026-08-27T18:29:36Z</time>
  <course>77.16</course>
  <speed>0.0</speed>
  <fix>3d</fix>
</trkpt>
<trkpt lat="40.0728111" lon="-105.2309508">
  <ele>1595.48</ele>
  <time>2026-08-27T18:29:36Z</time>
  <course>29.44</course>
  <speed>0.02</speed>
  <fix>3d</fix>
</trkpt>
<trkpt lat="40.072811" lon="-105.2309509">
  <ele>1595.56</ele>
  <time>2026-08-27T18:29:36Z</time>
  <course>77.33</course>
  <speed>0.0</speed>
  <fix>3d</fix>
</trkpt>
<trkpt lat="40.0728111" lon="-105.2309508">
  <ele>1595.48</ele>
  <time>2026-08-27T18:29:36Z</time>
  <course>35.47</course>
  <speed>0.01</speed>
  <fix>3d</fix>
</trkpt>
<trkpt lat="40.072811" lon="-105.2309508">
  <ele>1595.56</ele>
  <time>2026-08-27T18:29:36Z</time>
  <course>77.02</course>
  <speed>0.0</speed>
  <fix>3d</fix>
</trkpt>
<trkpt lat="40.0728112" lon="-105.2309507">
  <ele>1595.49</ele>
  <time>2026-08-27T18:29:36Z</time>
  <course>42.13</course>
  <speed>0.01</speed>
  <fix>3d</fix>
</trkpt>
<trkpt lat="40.0728111" lon="-105.2309508">
  <ele>1595.56</ele>
  <time>2026-08-27T18:29:36Z</time>
  <course>76.27</course>
  <speed>0.0</speed>
  <fix>3d</fix>
</trkpt>
<trkpt lat="40.0728113" lon="-105.2309506">
  <ele>1595.49</ele>
  <time>2026-08-27T18:29:36Z</time>
  <course>48.76</course>
  <speed>0.01</speed>
  <fix>3d</fix>
</trkpt>
<trkpt lat="40.0728111" lon="-105.2309508">
  <ele>1595.56</ele>
  <time>2026-08-27T18:29:36Z</time>
  <course>75.14</course>
  <speed>0.0</speed>
  <fix>3d</fix>
</trkpt>
<trkpt lat="40.0728113" lon="-105.2309506">
  <ele>1595.49</ele>
  <time>2026-08-27T18:29:36Z</time>
  <course>55.04</course>
  <speed>0.01</speed>
  <fix>3d</fix>
</trkpt>
<trkpt lat="40.0728111" lon="-105.2309507">
  <ele>1595.56</ele>
  <time>2026-08-27T18:29:36Z</time>
  <course>73.75</course>
  <speed>0.01</speed>
  <fix>3d</fix>
</trkpt>
<trkpt lat="40.0728113" lon="-105.2309506">
  <ele>1595.49</ele>
  <time>2026-08-27T18:29:36Z</time>
  <course>59.48</course>
  <speed>0.02</speed>
  <fix>3d</fix>
</trkpt>
<trkpt lat="40.0728111" lon="-105.2309507">
  <ele>1595.57</ele>
  <time>2026-08-27T18:29:36Z</time>
  <course>72.24</course>
  <speed>0.01</speed>
  <fix>3d</fix>
</trkpt>
<trkpt lat="40.0728113" lon="-105.2309506">
  <ele>1595.49</ele>
  <time>2026-08-27T18:29:36Z</time>
  <course>61.43</course>
  <speed>0.02</speed>
  <fix>3d</fix>
</trkpt>
<trkpt lat="40.0728112" lon="-105.2309506">
  <ele>1595.57</ele>
  <time>2026-08-27T18:29:36Z</time>
  <course>70.79</course>
  <speed>0.01</speed>
  <fix>3d</fix>
</trkpt>
<trkpt lat="40.0728113" lon="-105.2309505">
  <ele>1595.49</ele>
  <time>2026-08-27T18:29:36Z</time>
  <course>60.15</course>
  <speed>0.02</speed>
  <fix>3d</fix>
</trkpt>
<trkpt lat="40.0728112" lon="-105.2309506">
  <ele>1595.57</ele>
  <time>2026-08-27T18:29:36Z</time>
  <course>69.47</course>
  <speed>0.01</speed>
  <fix>3d</fix>
</trkpt>
<trkpt lat="40.0728114" lon="-105.2309504">
  <ele>1595.49</ele>
  <time>2026-08-27T18:29:36Z</time>
  <course>56.97</course>
  <speed>0.02</speed>
  <fix>3d</fix>
</trkpt>
<trkpt lat="40.0728112" lon="-105.2309505">
  <ele>1595.56</ele>
  <time>2026-08-27T18:29:36Z</time>
  <course>68.41</course>
  <speed>0.01</speed>
  <fix>3d</fix>
</trkpt>
<trkpt lat="40.0728114" lon="-105.2309504">
  <ele>1595.49</ele>
  <time>2026-08-27T18:29:36Z</time>
  <course>52.95</course>
  <speed>0.02</speed>
  <fix>3d</fix>
</trkpt>
<trkpt lat="40.0728113" lon="-105.2309505">
  <ele>1595.56</ele>
  <time>2026-08-27T18:29:36Z</time>
  <course>67.75</course>
  <speed>0.01</speed>
  <fix>3d</fix>
</trkpt>
<trkpt lat="40.0728114" lon="-105.2309504">
  <ele>1595.49</ele>
  <time>2026-08-27T18:29:36Z</time>
  <course>47.16</course>
  <speed>0.02</speed>
  <fix>3d</fix>
</trkpt>
<trkpt lat="40.0728113" lon="-105.2309504">
  <ele>1595.56</ele>
  <time>2026-08-27T18:29:36Z</time>
  <course>67.55</course>
  <speed>0.0</speed>
  <fix>3d</fix>
</trkpt>
<trkpt lat="40.0728114" lon="-105.2309503">
  <ele>1595.49</ele>
  <time>2026-08-27T18:29:36Z</time>
  <course>40.89</course>
  <speed>0.02</speed>
  <fix>3d</fix>
</trkpt>
<trkpt lat="40.0728113" lon="-105.2309504">
  <ele>1595.56</ele>
  <time>2026-08-27T18:29:36Z</time>
  <course>67.84</course>
  <speed>0.0</speed>
  <fix>3d</fix>
</trkpt>
<trkpt lat="40.0728115" lon="-105.2309502">
  <ele>1595.49</ele>
  <time>2026-08-27T18:29:36Z</time>
  <course>34.74</course>
  <speed>0.02</speed>
  <fix>3d</fix>
</trkpt>
<trkpt lat="40.0728114" lon="-105.2309503">
  <ele>1595.56</ele>
  <time>2026-08-27T18:29:36Z</time>
  <course>68.6</course>
  <speed>0.01</speed>
  <fix>3d</fix>
</trkpt>
<trkpt lat="40.0728115" lon="-105.2309502">
  <ele>1595.49</ele>
  <time>2026-08-27T18:29:36Z</time>
  <course>29.26</course>
  <speed>0.02</speed>
  <fix>3d</fix>
</trkpt>
<trkpt lat="40.0728114" lon="-105.2309503">
  <ele>1595.56</ele>
  <time>2026-08-27T18:29:36Z</time>
  <course>69.72</course>
  <speed>0.01</speed>
  <fix>3d</fix>
</trkpt>
<trkpt lat="40.0728116" lon="-105.2309502">
  <ele>1595.49</ele>
  <time>2026-08-27T18:29:36Z</time>
  <course>25.23</course>
  <speed>0.02</speed>
  <fix>3d</fix>
</trkpt>
<trkpt lat="40.0728115" lon="-105.2309503">
  <ele>1595.56</ele>
  <time>2026-08-27T18:29:37Z</time>
  <course>71.12</course>
  <speed>0.01</speed>
  <fix>3d</fix>
</trkpt>
<trkpt lat="40.0728116" lon="-105.2309502">
  <ele>1595.49</ele>
  <time>2026-08-27T18:29:37Z</time>
  <course>22.18</course>
  <speed>0.02</speed>
  <fix>3d</fix>
</trkpt>
<trkpt lat="40.0728115" lon="-105.2309503">
  <ele>1595.57</ele>
  <time>2026-08-27T18:29:37Z</time>
  <course>72.65</course>
  <speed>0.01</speed>
  <fix>3d</fix>
</trkpt>
<trkpt lat="40.0728116" lon="-105.2309502">
  <ele>1595.49</ele>
  <time>2026-08-27T18:29:37Z</time>
  <course>19.64</course>
  <speed>0.02</speed>
  <fix>3d</fix>
</trkpt>
<trkpt lat="40.0728116" lon="-105.2309503">
  <ele>1595.56</ele>
  <time>2026-08-27T18:29:37Z</time>
  <course>74.13</course>
  <speed>0.0</speed>
  <fix>3d</fix>
</trkpt>
<trkpt lat="40.0728117" lon="-105.2309502">
  <ele>1595.49</ele>
  <time>2026-08-27T18:29:37Z</time>
  <course>18.05</course>
  <speed>0.02</speed>
  <fix>3d</fix>
</trkpt>
<trkpt lat="40.0728116" lon="-105.2309502">
  <ele>1595.56</ele>
  <time>2026-08-27T18:29:37Z</time>
  <course>75.46</course>
  <speed>0.0</speed>
  <fix>3d</fix>
</trkpt>
<trkpt lat="40.0728117" lon="-105.2309502">
  <ele>1595.49</ele>
  <time>2026-08-27T18:29:37Z</time>
  <course>18.14</course>
  <speed>0.02</speed>
  <fix>3d</fix>
</trkpt>
<trkpt lat="40.0728116" lon="-105.2309502">
  <ele>1595.55</ele>
  <time>2026-08-27T18:29:37Z</time>
  <course>76.51</course>
  <speed>0.0</speed>
  <fix>3d</fix>
</trkpt>
<trkpt lat="40.0728117" lon="-105.2309501">
  <ele>1595.48</ele>
  <time>2026-08-27T18:29:37Z</time>
  <course>20.66</course>
  <speed>0.02</speed>
  <fix>3d</fix>
</trkpt>
<trkpt lat="40.0728117" lon="-105.2309502">
  <ele>1595.55</ele>
  <time>2026-08-27T18:29:37Z</time>
  <course>77.13</course>
  <speed>0.0</speed>
  <fix>3d</fix>
</trkpt>
<trkpt lat="40.0728118" lon="-105.2309501">
  <ele>1595.48</ele>
  <time>2026-08-27T18:29:37Z</time>
  <course>25.74</course>
  <speed>0.02</speed>
  <fix>3d</fix>
</trkpt>
<trkpt lat="40.0728117" lon="-105.2309502">
  <ele>1595.55</ele>
  <time>2026-08-27T18:29:37Z</time>
  <course>77.31</course>
  <speed>0.0</speed>
  <fix>3d</fix>
</trkpt>
<trkpt lat="40.0728119" lon="-105.2309501">
  <ele>1595.48</ele>
  <time>2026-08-27T18:29:37Z</time>
  <course>33.31</course>
  <speed>0.01</speed>
  <fix>3d</fix>
</trkpt>
<trkpt lat="40.0728117" lon="-105.2309502">
  <ele>1595.55</ele>
  <time>2026-08-27T18:29:37Z</time>
  <course>77.01</course>
  <speed>0.0</speed>
  <fix>3d</fix>
</trkpt>
<trkpt lat="40.0728119" lon="-105.2309501">
  <ele>1595.49</ele>
  <time>2026-08-27T18:29:37Z</time>
  <course>42.6</course>
  <speed>0.01</speed>
  <fix>3d</fix>
</trkpt>
<trkpt lat="40.0728117" lon="-105.2309501">
  <ele>1595.55</ele>
  <time>2026-08-27T18:29:37Z</time>
  <course>76.26</course>
  <speed>0.0</speed>
  <fix>3d</fix>
</trkpt>
<trkpt lat="40.0728119" lon="-105.23095">
  <ele>1595.49</ele>
  <time>2026-08-27T18:29:37Z</time>
  <course>50.69</course>
  <speed>0.01</speed>
  <fix>3d</fix>
</trkpt>
<trkpt lat="40.0728118" lon="-105.2309501">
  <ele>1595.55</ele>
  <time>2026-08-27T18:29:37Z</time>
  <course>75.12</course>
  <speed>0.01</speed>
  <fix>3d</fix>
</trkpt>
<trkpt lat="40.072812" lon="-105.2309499">
  <ele>1595.49</ele>
  <time>2026-08-27T18:29:37Z</time>
  <course>57.02</course>
  <speed>0.02</speed>
  <fix>3d</fix>
</trkpt>
<trkpt lat="40.0728118" lon="-105.23095">
  <ele>1595.56</ele>
  <time>2026-08-27T18:29:37Z</time>
  <course>73.73</course>
  <speed>0.01</speed>
  <fix>3d</fix>
</trkpt>
<trkpt lat="40.072812" lon="-105.2309499">
  <ele>1595.49</ele>
  <time>2026-08-27T18:29:37Z</time>
  <course>60.94</course>
  <speed>0.02</speed>
  <fix>3d</fix>
</trkpt>
<trkpt lat="40.0728118" lon="-105.23095">
  <ele>1595.56</ele>
  <time>2026-08-27T18:29:37Z</time>
  <course>72.23</course>
  <speed>0.01</speed>
  <fix>3d</fix>
</trkpt>
<trkpt lat="40.072812" lon="-105.2309499">
  <ele>1595.5</ele>
  <time>2026-08-27T18:29:37Z</time>
  <course>62.04</course>
  <speed>0.02</speed>
  <fix>3d</fix>
</trkpt>
<trkpt lat="40.0728118" lon="-105.2309499">
  <ele>1595.57</ele>
  <time>2026-08-27T18:29:37Z</time>
  <course>70.78</course>
  <speed>0.01</speed>
  <fix>3d</fix>
</trkpt>
<trkpt lat="40.072812" lon="-105.2309498">
  <ele>1595.5</ele>
  <time>2026-08-27T18:29:37Z</time>
  <course>61.22</course>
  <speed>0.02</speed>
  <fix>3d</fix>
</trkpt>
<trkpt lat="40.0728119" lon="-105.2309499">
  <ele>1595.57</ele>
  <time>2026-08-27T18:29:37Z</time>
  <course>69.44</course>
  <speed>0.01</speed>
  <fix>3d</fix>
</trkpt>
<trkpt lat="40.072812" lon="-105.2309497">
  <ele>1595.5</ele>
  <time>2026-08-27T18:29:37Z</time>
  <course>58.19</course>
  <speed>0.02</speed>
  <fix>3d</fix>
</trkpt>
<trkpt lat="40.0728119" lon="-105.2309498">
  <ele>1595.57</ele>
  <time>2026-08-27T18:29:37Z</time>
  <course>68.4</course>
  <speed>0.01</speed>
  <fix>3d</fix>
</trkpt>
<trkpt lat="40.0728121" lon="-105.2309497">
  <ele>1595.5</ele>
  <time>2026-08-27T18:29:37Z</time>
  <course>52.92</course>
  <speed>0.03</speed>
  <fix>3d</fix>
</trkpt>
<trkpt lat="40.0728119" lon="-105.2309498">
  <ele>1595.57</ele>
  <time>2026-08-27T18:29:37Z</time>
  <course>67.76</course>
  <speed>0.01</speed>
  <fix>3d</fix>
</trkpt>
<trkpt lat="40.0728121" lon="-105.2309497">
  <ele>1595.5</ele>
  <time>2026-08-27T18:29:37Z</time>
  <course>47.05</course>
  <speed>0.03</speed>
  <fix>3d</fix>
</trkpt>
<trkpt lat="40.072812" lon="-105.2309497">
  <ele>1595.57</ele>
  <time>2026-08-27T18:29:37Z</time>
  <course>67.59</course>
  <speed>0.01</speed>
  <fix>3d</fix>
</trkpt>
<trkpt lat="40.0728121" lon="-105.2309496">
  <ele>1595.5</ele>
  <time>2026-08-27T18:29:37Z</time>
  <course>42.0</course>
  <speed>0.03</speed>
  <fix>3d</fix>
</trkpt>
<trkpt lat="40.072812" lon="-105.2309497">
  <ele>1595.56</ele>
  <time>2026-08-27T18:29:37Z</time>
  <course>67.87</course>
  <speed>0.01</speed>
  <fix>3d</fix>
</trkpt>
<trkpt lat="40.0728122" lon="-105.2309495">
  <ele>1595.5</ele>
  <time>2026-08-27T18:29:37Z</time>
  <course>37.17</course>
  <speed>0.03</speed>
  <fix>3d</fix>
</trkpt>
<trkpt lat="40.0728121" lon="-105.2309496">
  <ele>1595.56</ele>
  <time>2026-08-27T18:29:37Z</time>
  <course>68.6</course>
  <speed>0.01</speed>
  <fix>3d</fix>
</trkpt>
<trkpt lat="40.0728122" lon="-105.2309495">
  <ele>1595.49</ele>
  <time>2026-08-27T18:29:37Z</time>
  <course>32.24</course>
  <speed>0.03</speed>
  <fix>3d</fix>
</trkpt>
<trkpt lat="40.0728121" lon="-105.2309496">
  <ele>1595.57</ele>
  <time>2026-08-27T18:29:37Z</time>
  <course>69.74</course>
  <speed>0.01</speed>
  <fix>3d</fix>
</trkpt>
<trkpt lat="40.0728122" lon="-105.2309495">
  <ele>1595.49</ele>
  <time>2026-08-27T18:29:37Z</time>
  <course>28.18</course>
  <speed>0.03</speed>
  <fix>3d</fix>
</trkpt>
<trkpt lat="40.0728122" lon="-105.2309496">
  <ele>1595.57</ele>
  <time>2026-08-27T18:29:37Z</time>
  <course>71.15</course>
  <speed>0.01</speed>
  <fix>3d</fix>
</trkpt>
<trkpt lat="40.0728123" lon="-105.2309495">
  <ele>1595.49</ele>
  <time>2026-08-27T18:29:37Z</time>
  <course>25.34</course>
  <speed>0.03</speed>
  <fix>3d</fix>
</trkpt>
<trkpt lat="40.0728122" lon="-105.2309495">
  <ele>1595.58</ele>
  <time>2026-08-27T18:29:37Z</time>
  <course>72.66</course>
  <speed>0.01</speed>
  <fix>3d</fix>
</trkpt>
<trkpt lat="40.0728123" lon="-105.2309494">
  <ele>1595.49</ele>
  <time>2026-08-27T18:29:37Z</time>
  <course>22.92</course>
  <speed>0.03</speed>
  <fix>3d</fix>
</trkpt>
<trkpt lat="40.0728123" lon="-105.2309495">
  <ele>1595.58</ele>
  <time>2026-08-27T18:29:37Z</time>
  <course>74.13</course>
  <speed>0.0</speed>
  <fix>3d</fix>
</trkpt>
<trkpt lat="40.0728124" lon="-105.2309494">
  <ele>1595.49</ele>
  <time>2026-08-27T18:29:37Z</time>
  <course>21.48</course>
  <speed>0.02</speed>
  <fix>3d</fix>
</trkpt>
<trkpt lat="40.0728123" lon="-105.2309495">
  <ele>1595.58</ele>
  <time>2026-08-27T18:29:37Z</time>
  <course>75.5</course>
  <speed>0.0</speed>
  <fix>3d</fix>
</trkpt>
<trkpt lat="40.0728125" lon="-105.2309494">
  <ele>1595.49</ele>
  <time>2026-08-27T18:29:37Z</time>
  <course>22.35</course>
  <speed>0.02</speed>
  <fix>3d</fix>
</trkpt>
<trkpt lat="40.0728123" lon="-105.2309495">
  <ele>1595.57</ele>
  <time>2026-08-27T18:29:37Z</time>
  <course>76.58</course>
  <speed>0.0</speed>
  <fix>3d</fix>
</trkpt>
<trkpt lat="40.0728125" lon="-105.2309494">
  <ele>1595.48</ele>
  <time>2026-08-27T18:29:37Z</time>
  <course>25.59</course>
  <speed>0.02</speed>
  <fix>3d</fix>
</trkpt>
<trkpt lat="40.0728124" lon="-105.2309494">
  <ele>1595.57</ele>
  <time>2026-08-27T18:29:37Z</time>
  <course>77.2</course>
  <speed>0.0</speed>
  <fix>3d</fix>
</trkpt>
<trkpt lat="40.0728126" lon="-105.2309493">
  <ele>1595.48</ele>
  <time>2026-08-27T18:29:37Z</time>
  <course>30.42</course>
  <speed>0.02</speed>
  <fix>3d</fix>
</trkpt>
<trkpt lat="40.0728124" lon="-105.2309494">
  <ele>1595.56</ele>
  <time>2026-08-27T18:29:37Z</time>
  <course>77.35</course>
  <speed>0.0</speed>
  <fix>3d</fix>
</trkpt>
<trkpt lat="40.0728126" lon="-105.2309492">
  <ele>1595.47</ele>
  <time>2026-08-27T18:29:37Z</time>
  <course>36.09</course>
  <speed>0.02</speed>
  <fix>3d</fix>
</trkpt>
<trkpt lat="40.0728124" lon="-105.2309494">
  <ele>1595.56</ele>
  <time>2026-08-27T18:29:37Z</time>
  <course>77.04</course>
  <speed>0.0</speed>
  <fix>3d</fix>
</trkpt>
<trkpt lat="40.0728126" lon="-105.2309492">
  <ele>1595.47</ele>
  <time>2026-08-27T18:29:37Z</time>
  <course>43.36</course>
  <speed>0.02</speed>
  <fix>3d</fix>
</trkpt>
<trkpt lat="40.0728125" lon="-105.2309493">
  <ele>1595.56</ele>
  <time>2026-08-27T18:29:37Z</time>
  <course>76.3</course>
  <speed>0.0</speed>
  <fix>3d</fix>
</trkpt>
<trkpt lat="40.0728127" lon="-105.2309492">
  <ele>1595.47</ele>
  <time>2026-08-27T18:29:37Z</time>
  <course>50.7</course>
  <speed>0.01</speed>
  <fix>3d</fix>
</trkpt>
<trkpt lat="40.0728125" lon="-105.2309493">
  <ele>1595.55</ele>
  <time>2026-08-27T18:29:37Z</time>
  <course>75.14</course>
  <speed>0.0</speed>
  <fix>3d</fix>
</trkpt>
<trkpt lat="40.0728127" lon="-105.2309492">
  <ele>1595.47</ele>
  <time>2026-08-27T18:29:37Z</time>
  <course>55.68</course>
  <speed>0.02</speed>
  <fix>3d</fix>
</trkpt>
<trkpt lat="40.0728125" lon="-105.2309492">
  <ele>1595.55</ele>
  <time>2026-08-27T18:29:37Z</time>
  <course>73.74</course>
  <speed>0.01</speed>
  <fix>3d</fix>
</trkpt>
<trkpt lat="40.0728127" lon="-105.2309491">
  <ele>1595.47</ele>
  <time>2026-08-27T18:29:37Z</time>
  <course>58.59</course>
  <speed>0.02</speed>
  <fix>3d</fix>
</trkpt>
<trkpt lat="40.0728125" lon="-105.2309492">
  <ele>1595.55</ele>
  <time>2026-08-27T18:29:37Z</time>
  <course>72.24</course>
  <speed>0.01</speed>
  <fix>3d</fix>
</trkpt>
<trkpt lat="40.0728127" lon="-105.230949">
  <ele>1595.47</ele>
  <time>2026-08-27T18:29:37Z</time>
  <course>59.55</course>
  <speed>0.02</speed>
  <fix>3d</fix>
</trkpt>
<trkpt lat="40.0728126" lon="-105.2309491">
  <ele>1595.56</ele>
  <time>2026-08-27T18:29:37Z</time>
  <course>70.75</course>
  <speed>0.01</speed>
  <fix>3d</fix>
</trkpt>
<trkpt lat="40.0728127" lon="-105.230949">
  <ele>1595.47</ele>
  <time>2026-08-27T18:29:37Z</time>
  <course>58.44</course>
  <speed>0.02</speed>
  <fix>3d</fix>
</trkpt>
<trkpt lat="40.0728126" lon="-105.2309491">
  <ele>1595.56</ele>
  <time>2026-08-27T18:29:37Z</time>
  <course>69.42</course>
  <speed>0.01</speed>
  <fix>3d</fix>
</trkpt>
<trkpt lat="40.0728128" lon="-105.230949">
  <ele>1595.47</ele>
  <time>2026-08-27T18:29:37Z</time>
  <course>55.87</course>
  <speed>0.02</speed>
  <fix>3d</fix>
</trkpt>
<trkpt lat="40.0728126" lon="-105.230949">
  <ele>1595.57</ele>
  <time>2026-08-27T18:29:37Z</time>
  <course>68.38</course>
  <speed>0.01</speed>
  <fix>3d</fix>
</trkpt>
<trkpt lat="40.0728128" lon="-105.2309489">
  <ele>1595.47</ele>
  <time>2026-08-27T18:29:37Z</time>
  <course>51.58</course>
  <speed>0.02</speed>
  <fix>3d</fix>
</trkpt>
<trkpt lat="40.0728127" lon="-105.230949">
  <ele>1595.57</ele>
  <time>2026-08-27T18:29:37Z</time>
  <course>67.75</course>
  <speed>0.01</speed>
  <fix>3d</fix>
</trkpt>
<trkpt lat="40.0728128" lon="-105.2309489">
  <ele>1595.47</ele>
  <time>2026-08-27T18:29:37Z</time>
  <course>45.83</course>
  <speed>0.02</speed>
  <fix>3d</fix>
</trkpt>
<trkpt lat="40.0728127" lon="-105.2309489">
  <ele>1595.57</ele>
  <time>2026-08-27T18:29:37Z</time>
  <course>67.58</course>
  <speed>0.01</speed>
  <fix>3d</fix>
</trkpt>
<trkpt lat="40.0728128" lon="-105.2309488">
  <ele>1595.47</ele>
  <time>2026-08-27T18:29:37Z</time>
  <course>39.83</course>
  <speed>0.03</speed>
  <fix>3d</fix>
</trkpt>
<trkpt lat="40.0728127" lon="-105.2309489">
  <ele>1595.57</ele>
  <time>2026-08-27T18:29:37Z</time>
  <course>67.43</course>
  <speed>0.01</speed>
  <fix>3d</fix>
</trkpt>
<trkpt lat="40.0728129" lon="-105.2309487">
  <ele>1595.47</ele>
  <time>2026-08-27T18:29:37Z</time>
  <course>36.86</course>
  <speed>0.03</speed>
  <fix>3d</fix>
</trkpt>
<trkpt lat="40.0728128" lon="-105.2309488">
  <ele>1595.57</ele>
  <time>2026-08-27T18:29:37Z</time>
  <course>67.3</course>
  <speed>0.01</speed>
  <fix>3d</fix>
</trkpt>
<trkpt lat="40.0728129" lon="-105.2309487">
  <ele>1595.47</ele>
  <time>2026-08-27T18:29:37Z</time>
  <course>37.51</course>
  <speed>0.03</speed>
  <fix>3d</fix>
</trkpt>
<trkpt lat="40.0728128" lon="-105.2309488">
  <ele>1595.57</ele>
  <time>2026-08-27T18:29:37Z</time>
  <course>67.24</course>
  <speed>0.01</speed>
  <fix>3d</fix>
</trkpt>
<trkpt lat="40.0728129" lon="-105.2309487">
  <ele>1595.47</ele>
  <time>2026-08-27T18:29:37Z</time>
  <course>38.79</course>
  <speed>0.03</speed>
  <fix>3d</fix>
</trkpt>
<trkpt lat="40.0728129" lon="-105.2309487">
  <ele>1595.57</ele>
  <time>2026-08-27T18:29:37Z</time>
  <course>67.22</course>
  <speed>0.01</speed>
  <fix>3d</fix>
</trkpt>
<trkpt lat="40.072813" lon="-105.2309487">
  <ele>1595.46</ele>
  <time>2026-08-27T18:29:37Z</time>
  <course>40.01</course>
  <speed>0.03</speed>
  <fix>3d</fix>
</trkpt>
<trkpt lat="40.0728129" lon="-105.2309487">
  <ele>1595.56</ele>
  <time>2026-08-27T18:29:37Z</time>
  <course>67.22</course>
  <speed>0.01</speed>
  <fix>3d</fix>
</trkpt>
<trkpt lat="40.0728131" lon="-105.2309486">
  <ele>1595.46</ele>
  <time>2026-08-27T18:29:37Z</time>
  <course>41.2</course>
  <speed>0.03</speed>
  <fix>3d</fix>
</trkpt>
<trkpt lat="40.072813" lon="-105.2309486">
  <ele>1595.56</ele>
  <time>2026-08-27T18:29:37Z</time>
  <course>67.21</course>
  <speed>0.01414213562373095</speed>
  <fix>3d</fix>
</trkpt>
<trkpt lat="40.0728131" lon="-105.2309485">
  <ele>1595.46</ele>
  <time>2026-08-27T18:29:37Z</time>
  <course>42.07</course>
  <speed>0.03</speed>
  <fix>3d</fix>
</trkpt>
<trkpt lat="40.072813" lon="-105.2309485">
  <ele>1595.55</ele>
  <time>2026-08-27T18:29:37Z</time>
  <course>67.21</course>
  <speed>0.01414213562373095</speed>
  <fix>3d</fix>
</trkpt>
<trkpt lat="40.0728132" lon="-105.2309485">
  <ele>1595.46</ele>
  <time>2026-08-27T18:29:37Z</time>
  <course>42.73</course>
  <speed>0.03</speed>
  <fix>3d</fix>
</trkpt>
<trkpt lat="40.0728131" lon="-105.2309485">
  <ele>1595.55</ele>
  <time>2026-08-27T18:29:37Z</time>
  <course>67.22</course>
  <speed>0.022360679774997897</speed>
  <fix>3d</fix>
</trkpt>
<trkpt lat="40.0728132" lon="-105.2309484">
  <ele>1595.46</ele>
  <time>2026-08-27T18:29:37Z</time>
  <course>43.36</course>
  <speed>0.04</speed>
  <fix>3d</fix>
</trkpt>
<trkpt lat="40.0728131" lon="-105.2309484">
  <ele>1595.56</ele>
  <time>2026-08-27T18:29:37Z</time>
  <course>67.23</course>
  <speed>0.022360679774997897</speed>
  <fix>3d</fix>
</trkpt>
<trkpt lat="40.0728133" lon="-105.2309483">
  <ele>1595.46</ele>
  <time>2026-08-27T18:29:37Z</time>
  <course>43.91</course>
  <speed>0.04</speed>
  <fix>3d</fix>
</trkpt>
<trkpt lat="40.0728132" lon="-105.2309483">
  <ele>1595.55</ele>
  <time>2026-08-27T18:29:37Z</time>
  <course>67.23</course>
  <speed>0.022360679774997897</speed>
  <fix>3d</fix>
</trkpt>
<trkpt lat="40.0728133" lon="-105.2309483">
  <ele>1595.46</ele>
  <time>2026-08-27T18:29:37Z</time>
  <course>44.39</course>
  <speed>0.04</speed>
  <fix>3d</fix>
</trkpt>
<trkpt lat="40.0728132" lon="-105.2309483">
  <ele>1595.55</ele>
  <time>2026-08-27T18:29:37Z</time>
  <course>67.24</course>
  <speed>0.022360679774997897</speed>
  <fix>3d</fix>
</trkpt>
<trkpt lat="40.0728134" lon="-105.2309482">
  <ele>1595.46</ele>
  <time>2026-08-27T18:29:37Z</time>
  <course>44.81</course>
  <speed>0.04</speed>
  <fix>3d</fix>
</trkpt>
<trkpt lat="40.0728133" lon="-105.2309482">
  <ele>1595.56</ele>
  <time>2026-08-27T18:29:37Z</time>
  <course>67.25</course>
  <speed>0.022360679774997897</speed>
  <fix>3d</fix>
</trkpt>
<trkpt lat="40.0728134" lon="-105.2309481">
  <ele>1595.46</ele>
  <time>2026-08-27T18:29:37Z</time>
  <course>45.2</course>
  <speed>0.04</speed>
  <fix>3d</fix>
</trkpt>
<trkpt lat="40.0728134" lon="-105.2309481">
  <ele>1595.56</ele>
  <time>2026-08-27T18:29:37Z</time>
  <course>67.26</course>
  <speed>0.022360679774997897</speed>
  <fix>3d</fix>
</trkpt>
<trkpt lat="40.0728135" lon="-105.230948">
  <ele>1595.46</ele>
  <time>2026-08-27T18:29:37Z</time>
  <course>45.58</course>
  <speed>0.04</speed>
  <fix>3d</fix>
</trkpt>
<trkpt lat="40.0728134" lon="-105.230948">
  <ele>1595.56</ele>
  <time>2026-08-27T18:29:37Z</time>
  <course>67.26</course>
  <speed>0.022360679774997897</speed>
  <fix>3d</fix>
</trkpt>
<trkpt lat="40.0728135" lon="-105.230948">
  <ele>1595.46</ele>
  <time>2026-08-27T18:29:37Z</time>
  <course>45.91</course>
  <speed>0.04</speed>
  <fix>3d</fix>
</trkpt>
<trkpt lat="40.0728135" lon="-105.2309479">
  <ele>1595.56</ele>
  <time>2026-08-27T18:29:37Z</time>
  <course>67.27</course>
  <speed>0.022360679774997897</speed>
  <fix>3d</fix>
</trkpt>
<trkpt lat="40.0728136" lon="-105.2309479">
  <ele>1595.46</ele>
  <time>2026-08-27T18:29:37Z</time>
  <course>46.23</course>
  <speed>0.04</speed>
  <fix>3d</fix>
</trkpt>
<trkpt lat="40.0728135" lon="-105.2309479">
  <ele>1595.56</ele>
  <time>2026-08-27T18:29:37Z</time>
  <course>67.27</course>
  <speed>0.0316227766016838</speed>
  <fix>3d</fix>
</trkpt>
<trkpt lat="40.0728137" lon="-105.2309478">
  <ele>1595.46</ele>
  <time>2026-08-27T18:29:37Z</time>
  <course>46.56</course>
  <speed>0.05</speed>
  <fix>3d</fix>
</trkpt>
<trkpt lat="40.0728136" lon="-105.2309478">
  <ele>1595.56</ele>
  <time>2026-08-27T18:29:37Z</time>
  <course>67.08</course>
  <speed>0.0316227766016838</speed>
  <fix>3d</fix>
</trkpt>
<trkpt lat="40.0728138" lon="-105.2309477">
  <ele>1595.46</ele>
  <time>2026-08-27T18:29:37Z</time>
  <course>47.63</course>
  <speed>0.05</speed>
  <fix>3d</fix>
</trkpt>
<trkpt lat="40.0728136" lon="-105.2309477">
  <ele>1595.56</ele>
  <time>2026-08-27T18:29:37Z</time>
  <course>66.04</course>
  <speed>0.0316227766016838</speed>
  <fix>3d</fix>
</trkpt>
<trkpt lat="40.0728138" lon="-105.2309476">
  <ele>1595.46</ele>
  <time>2026-08-27T18:29:37Z</time>
  <course>50.55</course>
  <speed>0.05</speed>
  <fix>3d</fix>
</trkpt>
<trkpt lat="40.0728137" lon="-105.2309476">
  <ele>1595.55</ele>
  <time>2026-08-27T18:29:37Z</time>
  <course>64.72</course>
  <speed>0.0316227766016838</speed>
  <fix>3d</fix>
</trkpt>
<trkpt lat="40.0728139" lon="-105.2309475">
  <ele>1595.46</ele>
  <time>2026-08-27T18:29:37Z</time>
  <course>52.53</course>
  <speed>0.05</speed>
  <fix>3d</fix>
</trkpt>
<trkpt lat="40.0728138" lon="-105.2309475">
  <ele>1595.55</ele>
  <time>2026-08-27T18:29:37Z</time>
  <course>63.54</course>
  <speed>0.022360679774997897</speed>
  <fix>3d</fix>
</trkpt>
<trkpt lat="40.0728139" lon="-105.2309474">
  <ele>1595.46</ele>
  <time>2026-08-27T18:29:37Z</time>
  <course>51.38</course>
  <speed>0.04</speed>
  <fix>3d</fix>
</trkpt>
<trkpt lat="40.0728138" lon="-105.2309474">
  <ele>1595.56</ele>
  <time>2026-08-27T18:29:37Z</time>
  <course>62.74</course>
  <speed>0.022360679774997897</speed>
  <fix>3d</fix>
</trkpt>
<trkpt lat="40.072814" lon="-105.2309473">
  <ele>1595.47</ele>
  <time>2026-08-27T18:29:37Z</time>
  <course>48.75</course>
  <speed>0.04</speed>
  <fix>3d</fix>
</trkpt>
<trkpt lat="40.0728139" lon="-105.2309473">
  <ele>1595.56</ele>
  <time>2026-08-27T18:29:37Z</time>
  <course>62.38</course>
  <speed>0.022360679774997897</speed>
  <fix>3d</fix>
</trkpt>
<trkpt lat="40.072814" lon="-105.2309473">
  <ele>1595.47</ele>
  <time>2026-08-27T18:29:37Z</time>
  <course>45.12</course>
  <speed>0.04</speed>
  <fix>3d</fix>
</trkpt>
<trkpt lat="40.0728139" lon="-105.2309473">
  <ele>1595.56</ele>
  <time>2026-08-27T18:29:37Z</time>
  <course>62.52</course>
  <speed>0.01414213562373095</speed>
  <fix>3d</fix>
</trkpt>
<trkpt lat="40.0728141" lon="-105.2309472">
  <ele>1595.47</ele>
  <time>2026-08-27T18:29:37Z</time>
  <course>40.67</course>
  <speed>0.04</speed>
  <fix>3d</fix>
</trkpt>
<trkpt lat="40.072814" lon="-105.2309472">
  <ele>1595.56</ele>
  <time>2026-08-27T18:29:37Z</time>
  <course>63.08</course>
  <speed>0.01414213562373095</speed>
  <fix>3d</fix>
</trkpt>
<trkpt lat="40.0728141" lon="-105.2309471">
  <ele>1595.47</ele>
  <time>2026-08-27T18:29:37Z</time>
  <course>36.07</course>
  <speed>0.03</speed>
  <fix>3d</fix>
</trkpt>
<trkpt lat="40.072814" lon="-105.2309472">
  <ele>1595.55</ele>
  <time>2026-08-27T18:29:37Z</time>
  <course>64.08</course>
  <speed>0.01414213562373095</speed>
  <fix>3d</fix>
</trkpt>
<trkpt lat="40.0728142" lon="-105.2309471">
  <ele>1595.47</ele>
  <time>2026-08-27T18:29:37Z</time>
  <course>31.34</course>
  <speed>0.03</speed>
  <fix>3d</fix>
</trkpt>
<trkpt lat="40.0728141" lon="-105.2309471">
  <ele>1595.55</ele>
  <time>2026-08-27T18:29:37Z</time>
  <course>65.36</course>
  <speed>0.01</speed>
  <fix>3d</fix>
</trkpt>
<trkpt lat="40.0728143" lon="-105.2309471">
  <ele>1595.47</ele>
  <time>2026-08-27T18:29:37Z</time>
  <course>27.18</course>
  <speed>0.03</speed>
  <fix>3d</fix>
</trkpt>
<trkpt lat="40.0728141" lon="-105.2309471">
  <ele>1595.55</ele>
  <time>2026-08-27T18:29:37Z</time>
  <course>66.79</course>
  <speed>0.01</speed>
  <fix>3d</fix>
</trkpt>
<trkpt lat="40.0728143" lon="-105.230947">
  <ele>1595.47</ele>
  <time>2026-08-27T18:29:37Z</time>
  <course>23.64</course>
  <speed>0.03</speed>
  <fix>3d</fix>
</trkpt>
<trkpt lat="40.0728142" lon="-105.2309471">
  <ele>1595.55</ele>
  <time>2026-08-27T18:29:37Z</time>
  <course>68.3</course>
  <speed>0.0</speed>
  <fix>3d</fix>
</trkpt>
<trkpt lat="40.0728144" lon="-105.230947">
  <ele>1595.47</ele>
  <time>2026-08-27T18:29:37Z</time>
  <course>20.28</course>
  <speed>0.03</speed>
  <fix>3d</fix>
</trkpt>
<trkpt lat="40.0728143" lon="-105.2309471">
  <ele>1595.55</ele>
  <time>2026-08-27T18:29:37Z</time>
  <course>69.77</course>
  <speed>0.0</speed>
  <fix>3d</fix>
</trkpt>
<trkpt lat="40.0728144" lon="-105.230947">
  <ele>1595.47</ele>
  <time>2026-08-27T18:29:37Z</time>
  <course>18.14</course>
  <speed>0.02</speed>
  <fix>3d</fix>
</trkpt>
<trkpt lat="40.0728143" lon="-105.2309471">
  <ele>1595.56</ele>
  <time>2026-08-27T18:29:37Z</time>
  <course>70.92</course>
  <speed>0.0</speed>
  <fix>3d</fix>
</trkpt>
<trkpt lat="40.0728145" lon="-105.230947">
  <ele>1595.47</ele>
  <time>2026-08-27T18:29:37Z</time>
  <course>18.02</course>
  <speed>0.02</speed>
  <fix>3d</fix>
</trkpt>
<trkpt lat="40.0728143" lon="-105.230947">
  <ele>1595.57</ele>
  <time>2026-08-27T18:29:37Z</time>
  <course>71.77</course>
  <speed>0.0</speed>
  <fix>3d</fix>
</trkpt>
<trkpt lat="40.0728145" lon="-105.230947">
  <ele>1595.48</ele>
  <time>2026-08-27T18:29:37Z</time>
  <course>20.19</course>
  <speed>0.02</speed>
  <fix>3d</fix>
</trkpt>
<trkpt lat="40.0728144" lon="-105.230947">
  <ele>1595.57</ele>
  <time>2026-08-27T18:29:37Z</time>
  <course>72.15</course>
  <speed>0.0</speed>
  <fix>3d</fix>
</trkpt>
<trkpt lat="40.0728146" lon="-105.2309469">
  <ele>1595.48</ele>
  <time>2026-08-27T18:29:37Z</time>
  <course>24.66</course>
  <speed>0.02</speed>
  <fix>3d</fix>
</trkpt>
<trkpt lat="40.0728144" lon="-105.230947">
  <ele>1595.57</ele>
  <time>2026-08-27T18:29:37Z</time>
  <course>72.04</course>
  <speed>0.0</speed>
  <fix>3d</fix>
</trkpt>
<trkpt lat="40.0728146" lon="-105.2309468">
  <ele>1595.48</ele>
  <time>2026-08-27T18:29:37Z</time>
  <course>30.46</course>
  <speed>0.02</speed>
  <fix>3d</fix>
</trkpt>
<trkpt lat="40.0728145" lon="-105.2309469">
  <ele>1595.57</ele>
  <time>2026-08-27T18:29:37Z</time>
  <course>71.48</course>
  <speed>0.0</speed>
  <fix>3d</fix>
</trkpt>
<trkpt lat="40.0728146" lon="-105.2309468">
  <ele>1595.48</ele>
  <time>2026-08-27T18:29:37Z</time>
  <course>36.79</course>
  <speed>0.02</speed>
  <fix>3d</fix>
</trkpt>
<trkpt lat="40.0728145" lon="-105.2309469">
  <ele>1595.56</ele>
  <time>2026-08-27T18:29:37Z</time>
  <course>70.48</course>
  <speed>0.01</speed>
  <fix>3d</fix>
</trkpt>
<trkpt lat="40.0728146" lon="-105.2309468">
  <ele>1595.48</ele>
  <time>2026-08-27T18:29:37Z</time>
  <course>42.86</course>
  <speed>0.02</speed>
  <fix>3d</fix>
</trkpt>
<trkpt lat="40.0728145" lon="-105.2309469">
  <ele>1595.55</ele>
  <time>2026-08-27T18:29:37Z</time>
  <course>69.17</course>
  <speed>0.01</speed>
  <fix>3d</fix>
</trkpt>
<trkpt lat="40.0728146" lon="-105.2309468">
  <ele>1595.48</ele>
  <time>2026-08-27T18:29:37Z</time>
  <course>46.98</course>
  <speed>0.02</speed>
  <fix>3d</fix>
</trkpt>
<trkpt lat="40.0728145" lon="-105.2309468">
  <ele>1595.55</ele>
  <time>2026-08-27T18:29:37Z</time>
  <course>67.65</course>
  <speed>0.01</speed>
  <fix>3d</fix>
</trkpt>
<trkpt lat="40.0728147" lon="-105.2309468">
  <ele>1595.48</ele>
  <time>2026-08-27T18:29:37Z</time>
  <course>48.89</course>
  <speed>0.02</speed>
  <fix>3d</fix>
</trkpt>
<trkpt lat="40.0728146" lon="-105.2309468">
  <ele>1595.55</ele>
  <time>2026-08-27T18:29:37Z</time>
  <course>66.14</course>
  <speed>0.01</speed>
  <fix>3d</fix>
</trkpt>
<trkpt lat="40.0728147" lon="-105.2309467">
  <ele>1595.48</ele>
  <time>2026-08-27T18:29:37Z</time>
  <course>48.89</course>
  <speed>0.02</speed>
  <fix>3d</fix>
</trkpt>
<trkpt lat="40.0728146" lon="-105.2309467">
  <ele>1595.55</ele>
  <time>2026-08-27T18:29:37Z</time>
  <course>64.71</course>
  <speed>0.01</speed>
  <fix>3d</fix>
</trkpt>
<trkpt lat="40.0728147" lon="-105.2309466">
  <ele>1595.48</ele>
  <time>2026-08-27T18:29:37Z</time>
  <course>47.79</course>
  <speed>0.02</speed>
  <fix>3d</fix>
</trkpt>
<trkpt lat="40.0728146" lon="-105.2309467">
  <ele>1595.55</ele>
  <time>2026-08-27T18:29:37Z</time>
  <course>63.54</course>
  <speed>0.01</speed>
  <fix>3d</fix>
</trkpt>
<trkpt lat="40.0728148" lon="-105.2309466">
  <ele>1595.48</ele>
  <time>2026-08-27T18:29:37Z</time>
  <course>45.18</course>
  <speed>0.02</speed>
  <fix>3d</fix>
</trkpt>
<trkpt lat="40.0728147" lon="-105.2309466">
  <ele>1595.55</ele>
  <time>2026-08-27T18:29:37Z</time>
  <course>62.74</course>
  <speed>0.01</speed>
  <fix>3d</fix>
</trkpt>
<trkpt lat="40.0728149" lon="-105.2309466">
  <ele>1595.48</ele>
  <time>2026-08-27T18:29:37Z</time>
  <course>40.9</course>
  <speed>0.03</speed>
  <fix>3d</fix>
</trkpt>
<trkpt lat="40.0728147" lon="-105.2309466">
  <ele>1595.56</ele>
  <time>2026-08-27T18:29:37Z</time>
  <course>62.38</course>
  <speed>0.01</speed>
  <fix>3d</fix>
</trkpt>
<trkpt lat="40.0728149" lon="-105.2309465">
  <ele>1595.48</ele>
  <time>2026-08-27T18:29:37Z</time>
  <course>36.04</course>
  <speed>0.03</speed>
  <fix>3d</fix>
</trkpt>
<trkpt lat="40.0728148" lon="-105.2309466">
  <ele>1595.56</ele>
  <time>2026-08-27T18:29:37Z</time>
  <course>62.49</course>
  <speed>0.0</speed>
  <fix>3d</fix>
</trkpt>
<trkpt lat="40.072815" lon="-105.2309465">
  <ele>1595.48</ele>
  <time>2026-08-27T18:29:37Z</time>
  <course>31.33</course>
  <speed>0.03</speed>
  <fix>3d</fix>
</trkpt>
<trkpt lat="40.0728148" lon="-105.2309465">
  <ele>1595.57</ele>
  <time>2026-08-27T18:29:37Z</time>
  <course>63.07</course>
  <speed>0.01</speed>
  <fix>3d</fix>
</trkpt>
<trkpt lat="40.072815" lon="-105.2309464">
  <ele>1595.49</ele>
  <time>2026-08-27T18:29:37Z</time>
  <course>26.96</course>
  <speed>0.03</speed>
  <fix>3d</fix>
</trkpt>
<trkpt lat="40.0728149" lon="-105.2309465">
  <ele>1595.57</ele>
  <time>2026-08-27T18:29:37Z</time>
  <course>64.09</course>
  <speed>0.01</speed>
  <fix>3d</fix>
</trkpt>
<trkpt lat="40.0728151" lon="-105.2309463">
  <ele>1595.49</ele>
  <time>2026-08-27T18:29:37Z</time>
  <course>23.1</course>
  <speed>0.03</speed>
  <fix>3d</fix>
</trkpt>
<trkpt lat="40.072815" lon="-105.2309465">
  <ele>1595.57</ele>
  <time>2026-08-27T18:29:37Z</time>
  <course>65.43</course>
  <speed>0.01</speed>
  <fix>3d</fix>
</trkpt>
<trkpt lat="40.0728151" lon="-105.2309463">
  <ele>1595.49</ele>
  <time>2026-08-27T18:29:37Z</time>
  <course>19.6</course>
  <speed>0.03</speed>
  <fix>3d</fix>
</trkpt>
<trkpt lat="40.072815" lon="-105.2309464">
  <ele>1595.57</ele>
  <time>2026-08-27T18:29:37Z</time>
  <course>66.91</course>
  <speed>0.01</speed>
  <fix>3d</fix>
</trkpt>
<trkpt lat="40.0728152" lon="-105.2309463">
  <ele>1595.49</ele>
  <time>2026-08-27T18:29:37Z</time>
  <course>16.69</course>
  <speed>0.03</speed>
  <fix>3d</fix>
</trkpt>
<trkpt lat="40.0728151" lon="-105.2309464">
  <ele>1595.57</ele>
  <time>2026-08-27T18:29:37Z</time>
  <course>68.41</course>
  <speed>0.01</speed>
  <fix>3d</fix>
</trkpt>
<trkpt lat="40.0728152" lon="-105.2309463">
  <ele>1595.49</ele>
  <time>2026-08-27T18:29:37Z</time>
  <course>15.19</course>
  <speed>0.03</speed>
  <fix>3d</fix>
</trkpt>
<trkpt lat="40.0728151" lon="-105.2309464">
  <ele>1595.57</ele>
  <time>2026-08-27T18:29:37Z</time>
  <course>69.82</course>
  <speed>0.0</speed>
  <fix>3d</fix>
</trkpt>
<trkpt lat="40.0728153" lon="-105.2309463">
  <ele>1595.48</ele>
  <time>2026-08-27T18:29:37Z</time>
  <course>15.1</course>
  <speed>0.03</speed>
  <fix>3d</fix>
</trkpt>
<trkpt lat="40.0728152" lon="-105.2309464">
  <ele>1595.57</ele>
  <time>2026-08-27T18:29:37Z</time>
  <course>70.98</course>
  <speed>0.0</speed>
  <fix>3d</fix>
</trkpt>
<trkpt lat="40.0728153" lon="-105.2309463">
  <ele>1595.48</ele>
  <time>2026-08-27T18:29:37Z</time>
  <course>15.65</course>
  <speed>0.03</speed>
  <fix>3d</fix>
</trkpt>
<trkpt lat="40.0728152" lon="-105.2309463">
  <ele>1595.57</ele>
  <time>2026-08-27T18:29:37Z</time>
  <course>71.78</course>
  <speed>0.0</speed>
  <fix>3d</fix>
</trkpt>
<trkpt lat="40.0728154" lon="-105.2309463">
  <ele>1595.48</ele>
  <time>2026-08-27T18:29:37Z</time>
  <course>16.7</course>
  <speed>0.02</speed>
  <fix>3d</fix>
</trkpt>
<trkpt lat="40.0728153" lon="-105.2309463">
  <ele>1595.57</ele>
  <time>2026-08-27T18:29:37Z</time>
  <course>72.17</course>
  <speed>0.0</speed>
  <fix>3d</fix>
</trkpt>
<trkpt lat="40.0728155" lon="-105.2309463">
  <ele>1595.48</ele>
  <time>2026-08-27T18:29:37Z</time>
  <course>20.44</course>
  <speed>0.02</speed>
  <fix>3d</fix>
</trkpt>
<trkpt lat="40.0728153" lon="-105.2309463">
  <ele>1595.56</ele>
  <time>2026-08-27T18:29:37Z</time>
  <course>72.06</course>
  <speed>0.0</speed>
  <fix>3d</fix>
</trkpt>
<trkpt lat="40.0728155" lon="-105.2309462">
  <ele>1595.48</ele>
  <time>2026-08-27T18:29:37Z</time>
  <course>26.48</course>
  <speed>0.02</speed>
  <fix>3d</fix>
</trkpt>
<trkpt lat="40.0728153" lon="-105.2309463">
  <ele>1595.56</ele>
  <time>2026-08-27T18:29:37Z</time>
  <course>71.48</course>
  <speed>0.0</speed>
  <fix>3d</fix>
</trkpt>
<trkpt lat="40.0728155" lon="-105.2309461">
  <ele>1595.48</ele>
  <time>2026-08-27T18:29:37Z</time>
  <course>33.17</course>
  <speed>0.02</speed>
  <fix>3d</fix>
</trkpt>
<trkpt lat="40.0728154" lon="-105.2309462">
  <ele>1595.56</ele>
  <time>2026-08-27T18:29:37Z</time>
  <course>70.47</course>
  <speed>0.0</speed>
  <fix>3d</fix>
</trkpt>
<trkpt lat="40.0728156" lon="-105.2309461">
  <ele>1595.48</ele>
  <time>2026-08-27T18:29:37Z</time>
  <course>40.0</course>
  <speed>0.02</speed>
  <fix>3d</fix>
</trkpt>
<trkpt lat="40.0728154" lon="-105.2309462">
  <ele>1595.56</ele>
  <time>2026-08-27T18:29:37Z</time>
  <course>69.15</course>
  <speed>0.01</speed>
  <fix>3d</fix>
</trkpt>
<trkpt lat="40.0728156" lon="-105.2309461">
  <ele>1595.48</ele>
  <time>2026-08-27T18:29:37Z</time>
  <course>45.26</course>
  <speed>0.02</speed>
  <fix>3d</fix>
</trkpt>
<trkpt lat="40.0728154" lon="-105.2309462">
  <ele>1595.56</ele>
  <time>2026-08-27T18:29:37Z</time>
  <course>67.64</course>
  <speed>0.01</speed>
  <fix>3d</fix>
</trkpt>
<trkpt lat="40.0728156" lon="-105.2309461">
  <ele>1595.48</ele>
  <time>2026-08-27T18:29:37Z</time>
  <course>48.3</course>
  <speed>0.02</speed>
  <fix>3d</fix>
</trkpt>
<trkpt lat="40.0728155" lon="-105.2309461">
  <ele>1595.57</ele>
  <time>2026-08-27T18:29:37Z</time>
  <course>66.15</course>
  <speed>0.01</speed>
  <fix>3d</fix>
</trkpt>
<trkpt lat="40.0728156" lon="-105.2309461">
  <ele>1595.48</ele>
  <time>2026-08-27T18:29:37Z</time>
  <course>48.65</course>
  <speed>0.02</speed>
  <fix>3d</fix>
</trkpt>
<trkpt lat="40.0728155" lon="-105.2309461">
  <ele>1595.57</ele>
  <time>2026-08-27T18:29:37Z</time>
  <course>64.77</course>
  <speed>0.01</speed>
  <fix>3d</fix>
</trkpt>
<trkpt lat="40.0728157" lon="-105.230946">
  <ele>1595.48</ele>
  <time>2026-08-27T18:29:37Z</time>
  <course>46.93</course>
  <speed>0.02</speed>
  <fix>3d</fix>
</trkpt>
<trkpt lat="40.0728155" lon="-105.230946">
  <ele>1595.57</ele>
  <time>2026-08-27T18:29:37Z</time>
  <course>63.6</course>
  <speed>0.01</speed>
  <fix>3d</fix>
</trkpt>
<trkpt lat="40.0728157" lon="-105.2309459">
  <ele>1595.48</ele>
  <time>2026-08-27T18:29:37Z</time>
  <course>43.35</course>
  <speed>0.02</speed>
  <fix>3d</fix>
</trkpt>
<trkpt lat="40.0728156" lon="-105.230946">
  <ele>1595.57</ele>
  <time>2026-08-27T18:29:37Z</time>
  <course>62.77</course>
  <speed>0.01</speed>
  <fix>3d</fix>
</trkpt>
<trkpt lat="40.0728157" lon="-105.2309459">
  <ele>1595.48</ele>
  <time>2026-08-27T18:29:37Z</time>
  <course>38.52</course>
  <speed>0.02</speed>
  <fix>3d</fix>
</trkpt>
<trkpt lat="40.0728156" lon="-105.2309459">
  <ele>1595.57</ele>
  <time>2026-08-27T18:29:37Z</time>
  <course>62.41</course>
  <speed>0.0</speed>
  <fix>3d</fix>
</trkpt>
<trkpt lat="40.0728158" lon="-105.2309459">
  <ele>1595.47</ele>
  <time>2026-08-27T18:29:37Z</time>
  <course>33.59</course>
  <speed>0.03</speed>
  <fix>3d</fix>
</trkpt>
<trkpt lat="40.0728157" lon="-105.2309459">
  <ele>1595.57</ele>
  <time>2026-08-27T18:29:37Z</time>
  <course>62.51</course>
  <speed>0.0</speed>
  <fix>3d</fix>
</trkpt>
<trkpt lat="40.0728158" lon="-105.2309458">
  <ele>1595.47</ele>
  <time>2026-08-27T18:29:37Z</time>
  <course>29.15</course>
  <speed>0.03</speed>
  <fix>3d</fix>
</trkpt>
<trkpt lat="40.0728157" lon="-105.2309459">
  <ele>1595.57</ele>
  <time>2026-08-27T18:29:37Z</time>
  <course>63.12</course>
  <speed>0.01</speed>
  <fix>3d</fix>
</trkpt>
<trkpt lat="40.0728158" lon="-105.2309458">
  <ele>1595.47</ele>
  <time>2026-08-27T18:29:37Z</time>
  <course>24.86</course>
  <speed>0.03</speed>
  <fix>3d</fix>
</trkpt>
<trkpt lat="40.0728158" lon="-105.2309459">
  <ele>1595.57</ele>
  <time>2026-08-27T18:29:37Z</time>
  <course>64.11</course>
  <speed>0.01</speed>
  <fix>3d</fix>
</trkpt>
<trkpt lat="40.0728159" lon="-105.2309458">
  <ele>1595.47</ele>
  <time>2026-08-27T18:29:37Z</time>
  <course>21.19</course>
  <speed>0.03</speed>
  <fix>3d</fix>
</trkpt>
<trkpt lat="40.0728158" lon="-105.2309458">
  <ele>1595.57</ele>
  <time>2026-08-27T18:29:37Z</time>
  <course>65.42</course>
  <speed>0.01</speed>
  <fix>3d</fix>
</trkpt>
<trkpt lat="40.0728159" lon="-105.2309458">
  <ele>1595.47</ele>
  <time>2026-08-27T18:29:37Z</time>
  <course>18.57</course>
  <speed>0.03</speed>
  <fix>3d</fix>
</trkpt>
<trkpt lat="40.0728159" lon="-105.2309458">
  <ele>1595.57</ele>
  <time>2026-08-27T18:29:37Z</time>
  <course>66.91</course>
  <speed>0.0</speed>
  <fix>3d</fix>
</trkpt>
<trkpt lat="40.072816" lon="-105.2309457">
  <ele>1595.46</ele>
  <time>2026-08-27T18:29:37Z</time>
  <course>16.62</course>
  <speed>0.03</speed>
  <fix>3d</fix>
</trkpt>
<trkpt lat="40.0728159" lon="-105.2309458">
  <ele>1595.56</ele>
  <time>2026-08-27T18:29:37Z</time>
  <course>68.39</course>
  <speed>0.0</speed>
  <fix>3d</fix>
</trkpt>
<trkpt lat="40.0728161" lon="-105.2309456">
  <ele>1595.46</ele>
  <time>2026-08-27T18:29:37Z</time>
  <course>15.71</course>
  <speed>0.03</speed>
  <fix>3d</fix>
</trkpt>
<trkpt lat="40.072816" lon="-105.2309458">
  <ele>1595.56</ele>
  <time>2026-08-27T18:29:37Z</time>
  <course>69.81</course>
  <speed>0.0</speed>
  <fix>3d</fix>
</trkpt>
<trkpt lat="40.0728162" lon="-105.2309456">
  <ele>1595.46</ele>
  <time>2026-08-27T18:29:37Z</time>
  <course>15.28</course>
  <speed>0.03</speed>
  <fix>3d</fix>
</trkpt>
<trkpt lat="40.072816" lon="-105.2309457">
  <ele>1595.57</ele>
  <time>2026-08-27T18:29:37Z</time>
  <course>70.98</course>
  <speed>0.0</speed>
  <fix>3d</fix>
</trkpt>
<trkpt lat="40.0728162" lon="-105.2309456">
  <ele>1595.46</ele>
  <time>2026-08-27T18:29:37Z</time>
  <course>16.02</course>
  <speed>0.02</speed>
  <fix>3d</fix>
</trkpt>
<trkpt lat="40.0728161" lon="-105.2309457">
  <ele>1595.56</ele>
  <time>2026-08-27T18:29:37Z</time>
  <course>71.8</course>
  <speed>0.0</speed>
  <fix>3d</fix>
</trkpt>
<trkpt lat="40.0728163" lon="-105.2309456">
  <ele>1595.46</ele>
  <time>2026-08-27T18:29:37Z</time>
  <course>18.91</course>
  <speed>0.02</speed>
  <fix>3d</fix>
</trkpt>
<trkpt lat="40.0728161" lon="-105.2309457">
  <ele>1595.56</ele>
  <time>2026-08-27T18:29:37Z</time>
  <course>72.15</course>
  <speed>0.0</speed>
  <fix>3d</fix>
</trkpt>
<trkpt lat="40.0728163" lon="-105.2309456">
  <ele>1595.46</ele>
  <time>2026-08-27T18:29:37Z</time>
  <course>23.45</course>
  <speed>0.02</speed>
  <fix>3d</fix>
</trkpt>
<trkpt lat="40.0728162" lon="-105.2309457">
  <ele>1595.56</ele>
  <time>2026-08-27T18:29:37Z</time>
  <course>72.04</course>
  <speed>0.0</speed>
  <fix>3d</fix>
</trkpt>
<trkpt lat="40.0728163" lon="-105.2309456">
  <ele>1595.45</ele>
  <time>2026-08-27T18:29:37Z</time>
  <course>29.81</course>
  <speed>0.02</speed>
  <fix>3d</fix>
</trkpt>
<trkpt lat="40.0728162" lon="-105.2309456">
  <ele>1595.55</ele>
  <time>2026-08-27T18:29:37Z</time>
  <course>71.46</course>
  <speed>0.0</speed>
  <fix>3d</fix>
</trkpt>
<trkpt lat="40.0728164" lon="-105.2309456">
  <ele>1595.45</ele>
  <time>2026-08-27T18:29:37Z</time>
  <course>36.38</course>
  <speed>0.02</speed>
  <fix>3d</fix>
</trkpt>
<trkpt lat="40.0728162" lon="-105.2309456">
  <ele>1595.54</ele>
  <time>2026-08-27T18:29:37Z</time>
  <course>70.44</course>
  <speed>0.01</speed>
  <fix>3d</fix>
</trkpt>
<trkpt lat="40.0728164" lon="-105.2309455">
  <ele>1595.45</ele>
  <time>2026-08-27T18:29:37Z</time>
  <course>41.51</course>
  <speed>0.02</speed>
  <fix>3d</fix>
</trkpt>
<trkpt lat="40.0728162" lon="-105.2309455">
  <ele>1595.54</ele>
  <time>2026-08-27T18:29:37Z</time>
  <course>69.12</course>
  <speed>0.01</speed>
  <fix>3d</fix>
</trkpt>
<trkpt lat="40.0728164" lon="-105.2309454">
  <ele>1595.45</ele>
  <time>2026-08-27T18:29:37Z</time>
  <course>45.42</course>
  <speed>0.02</speed>
  <fix>3d</fix>
</trkpt>
<trkpt lat="40.0728163" lon="-105.2309455">
  <ele>1595.54</ele>
  <time>2026-08-27T18:29:37Z</time>
  <course>67.63</course>
  <speed>0.01</speed>
  <fix>3d</fix>
</trkpt>
<trkpt lat="40.0728164" lon="-105.2309454">
  <ele>1595.45</ele>
  <time>2026-08-27T18:29:37Z</time>
  <course>47.86</course>
  <speed>0.02</speed>
  <fix>3d</fix>
</trkpt>
<trkpt lat="40.0728163" lon="-105.2309455">
  <ele>1595.54</ele>
  <time>2026-08-27T18:29:37Z</time>
  <course>66.12</course>
  <speed>0.01</speed>
  <fix>3d</fix>
</trkpt>
<trkpt lat="40.0728164" lon="-105.2309454">
  <ele>1595.46</ele>
  <time>2026-08-27T18:29:37Z</time>
  <course>48.22</course>
  <speed>0.02</speed>
  <fix>3d</fix>
</trkpt>
<trkpt lat="40.0728163" lon="-105.2309454">
  <ele>1595.53</ele>
  <time>2026-08-27T18:29:37Z</time>
  <course>64.68</course>
  <speed>0.01</speed>
  <fix>3d</fix>
</trkpt>
<trkpt lat="40.0728165" lon="-105.2309454">
  <ele>1595.46</ele>
  <time>2026-08-27T18:29:37Z</time>
  <course>46.18</course>
  <speed>0.02</speed>
  <fix>3d</fix>
</trkpt>
<trkpt lat="40.0728164" lon="-105.2309454">
  <ele>1595.54</ele>
  <time>2026-08-27T18:29:37Z</time>
  <course>63.5</course>
  <speed>0.01</speed>
  <fix>3d</fix>
</trkpt>
<trkpt lat="40.0728165" lon="-105.2309453">
  <ele>1595.46</ele>
  <time>2026-08-27T18:29:37Z</time>
  <course>42.55</course>
  <speed>0.02</speed>
  <fix>3d</fix>
</trkpt>
<trkpt lat="40.0728164" lon="-105.2309453">
  <ele>1595.54</ele>
  <time>2026-08-27T18:29:37Z</time>
  <course>62.69</course>
  <speed>0.01</speed>
  <fix>3d</fix>
</trkpt>
<trkpt lat="40.0728166" lon="-105.2309453">
  <ele>1595.47</ele>
  <time>2026-08-27T18:29:37Z</time>
  <course>37.7</course>
  <speed>0.03</speed>
  <fix>3d</fix>
</trkpt>
<trkpt lat="40.0728165" lon="-105.2309453">
  <ele>1595.54</ele>
  <time>2026-08-27T18:29:37Z</time>
  <course>62.32</course>
  <speed>0.0</speed>
  <fix>3d</fix>
</trkpt>
<trkpt lat="40.0728167" lon="-105.2309452">
  <ele>1595.48</ele>
  <time>2026-08-27T18:29:37Z</time>
  <course>32.15</course>
  <speed>0.03</speed>
  <fix>3d</fix>
</trkpt>
<trkpt lat="40.0728165" lon="-105.2309453">
  <ele>1595.54</ele>
  <time>2026-08-27T18:29:37Z</time>
  <course>62.44</course>
  <speed>0.01</speed>
  <fix>3d</fix>
</trkpt>
<trkpt lat="40.0728167" lon="-105.2309451">
  <ele>1595.48</ele>
  <time>2026-08-27T18:29:37Z</time>
  <course>27.27</course>
  <speed>0.03</speed>
  <fix>3d</fix>
</trkpt>
<trkpt lat="40.0728166" lon="-105.2309452">
  <ele>1595.54</ele>
  <time>2026-08-27T18:29:37Z</time>
  <course>63.02</course>
  <speed>0.01</speed>
  <fix>3d</fix>
</trkpt>
<trkpt lat="40.0728168" lon="-105.2309451">
  <ele>1595.49</ele>
  <time>2026-08-27T18:29:37Z</time>
  <course>23.11</course>
  <speed>0.03</speed>
  <fix>3d</fix>
</trkpt>
<trkpt lat="40.0728166" lon="-105.2309452">
  <ele>1595.54</ele>
  <time>2026-08-27T18:29:37Z</time>
  <course>64.05</course>
  <speed>0.01</speed>
  <fix>3d</fix>
</trkpt>
<trkpt lat="40.0728168" lon="-105.2309451">
  <ele>1595.49</ele>
  <time>2026-08-27T18:29:37Z</time>
  <course>19.41</course>
  <speed>0.03</speed>
  <fix>3d</fix>
</trkpt>
<trkpt lat="40.0728167" lon="-105.2309452">
  <ele>1595.54</ele>
  <time>2026-08-27T18:29:37Z</time>
  <course>65.32</course>
  <speed>0.01</speed>
  <fix>3d</fix>
</trkpt>
<trkpt lat="40.0728169" lon="-105.2309451">
  <ele>1595.5</ele>
  <time>2026-08-27T18:29:37Z</time>
  <course>16.46</course>
  <speed>0.03</speed>
  <fix>3d</fix>
</trkpt>
<trkpt lat="40.0728168" lon="-105.2309451">
  <ele>1595.55</ele>
  <time>2026-08-27T18:29:38Z</time>
  <course>66.8</course>
  <speed>0.01</speed>
  <fix>3d</fix>
</trkpt>
<trkpt lat="40.0728169" lon="-105.2309451">
  <ele>1595.5</ele>
  <time>2026-08-27T18:29:38Z</time>
  <course>14.52</course>
  <speed>0.03</speed>
  <fix>3d</fix>
</trkpt>
<trkpt lat="40.0728168" lon="-105.2309451">
  <ele>1595.55</ele>
  <time>2026-08-27T18:29:38Z</time>
  <course>68.35</course>
  <speed>0.01</speed>
  <fix>3d</fix>
</trkpt>
<trkpt lat="40.072817" lon="-105.2309451">
  <ele>1595.51</ele>
  <time>2026-08-27T18:29:38Z</time>
  <course>13.91</course>
  <speed>0.03</speed>
  <fix>3d</fix>
</trkpt>
<trkpt lat="40.0728169" lon="-105.2309451">
  <ele>1595.56</ele>
  <time>2026-08-27T18:29:38Z</time>
  <course>69.79</course>
  <speed>0.0</speed>
  <fix>3d</fix>
</trkpt>
<trkpt lat="40.072817" lon="-105.2309451">
  <ele>1595.51</ele>
  <time>2026-08-27T18:29:38Z</time>
  <course>14.52</course>
  <speed>0.03</speed>
  <fix>3d</fix>
</trkpt>
<trkpt lat="40.0728169" lon="-105.2309451">
  <ele>1595.56</ele>
  <time>2026-08-27T18:29:38Z</time>
  <course>70.97</course>
  <speed>0.0</speed>
  <fix>3d</fix>
</trkpt>
<trkpt lat="40.0728171" lon="-105.230945">
  <ele>1595.52</ele>
  <time>2026-08-27T18:29:38Z</time>
  <course>16.85</course>
  <speed>0.03</speed>
  <fix>3d</fix>
</trkpt>
<trkpt lat="40.072817" lon="-105.2309451">
  <ele>1595.56</ele>
  <time>2026-08-27T18:29:38Z</time>
  <course>71.76</course>
  <speed>0.0</speed>
  <fix>3d</fix>
</trkpt>
<trkpt lat="40.0728171" lon="-105.2309449">
  <ele>1595.52</ele>
  <time>2026-08-27T18:29:38Z</time>
  <course>20.63</course>
  <speed>0.02</speed>
  <fix>3d</fix>
</trkpt>
<trkpt lat="40.072817" lon="-105.230945">
  <ele>1595.57</ele>
  <time>2026-08-27T18:29:38Z</time>
  <course>72.15</course>
  <speed>0.0</speed>
  <fix>3d</fix>
</trkpt>
<trkpt lat="40.0728172" lon="-105.2309449">
  <ele>1595.52</ele>
  <time>2026-08-27T18:29:38Z</time>
  <course>25.26</course>
  <speed>0.02</speed>
  <fix>3d</fix>
</trkpt>
<trkpt lat="40.0728171" lon="-105.230945">
  <ele>1595.57</ele>
  <time>2026-08-27T18:29:38Z</time>
  <course>72.04</course>
  <speed>0.0</speed>
  <fix>3d</fix>
</trkpt>
<trkpt lat="40.0728172" lon="-105.2309449">
  <ele>1595.53</ele>
  <time>2026-08-27T18:29:38Z</time>
  <course>30.55</course>
  <speed>0.02</speed>
  <fix>3d</fix>
</trkpt>
<trkpt lat="40.0728171" lon="-105.230945">
  <ele>1595.58</ele>
  <time>2026-08-27T18:29:38Z</time>
  <course>71.49</course>
  <speed>0.0</speed>
  <fix>3d</fix>
</trkpt>
<trkpt lat="40.0728173" lon="-105.2309449">
  <ele>1595.53</ele>
  <time>2026-08-27T18:29:38Z</time>
  <course>35.18</course>
  <speed>0.02</speed>
  <fix>3d</fix>
</trkpt>
<trkpt lat="40.0728171" lon="-105.2309449">
  <ele>1595.58</ele>
  <time>2026-08-27T18:29:38Z</time>
  <course>70.52</course>
  <speed>0.01</speed>
  <fix>3d</fix>
</trkpt>
<trkpt lat="40.0728174" lon="-105.2309449">
  <ele>1595.53</ele>
  <time>2026-08-27T18:29:38Z</time>
  <course>40.02</course>
  <speed>0.02</speed>
  <fix>3d</fix>
</trkpt>
<trkpt lat="40.0728172" lon="-105.2309449">
  <ele>1595.58</ele>
  <time>2026-08-27T18:29:38Z</time>
  <course>69.22</course>
  <speed>0.01</speed>
  <fix>3d</fix>
</trkpt>
<trkpt lat="40.0728174" lon="-105.2309448">
  <ele>1595.52</ele>
  <time>2026-08-27T18:29:38Z</time>
  <course>44.87</course>
  <speed>0.02</speed>
  <fix>3d</fix>
</trkpt>
<trkpt lat="40.0728172" lon="-105.2309448">
  <ele>1595.57</ele>
  <time>2026-08-27T18:29:38Z</time>
  <course>67.75</course>
  <speed>0.01</speed>
  <fix>3d</fix>
</trkpt>
<trkpt lat="40.0728174" lon="-105.2309447">
  <ele>1595.52</ele>
  <time>2026-08-27T18:29:38Z</time>
  <course>47.26</course>
  <speed>0.02</speed>
  <fix>3d</fix>
</trkpt>
<trkpt lat="40.0728172" lon="-105.2309448">
  <ele>1595.57</ele>
  <time>2026-08-27T18:29:38Z</time>
  <course>66.21</course>
  <speed>0.01</speed>
  <fix>3d</fix>
</trkpt>
<trkpt lat="40.0728175" lon="-105.2309447">
  <ele>1595.52</ele>
  <time>2026-08-27T18:29:38Z</time>
  <course>47.5</course>
  <speed>0.02</speed>
  <fix>3d</fix>
</trkpt>
<trkpt lat="40.0728173" lon="-105.2309447">
  <ele>1595.57</ele>
  <time>2026-08-27T18:29:38Z</time>
  <course>64.75</course>
  <speed>0.01</speed>
  <fix>3d</fix>
</trkpt>
<trkpt lat="40.0728175" lon="-105.2309447">
  <ele>1595.52</ele>
  <time>2026-08-27T18:29:38Z</time>
  <course>46.47</course>
  <speed>0.02</speed>
  <fix>3d</fix>
</trkpt>
<trkpt lat="40.0728173" lon="-105.2309447">
  <ele>1595.57</ele>
  <time>2026-08-27T18:29:38Z</time>
  <course>63.58</course>
  <speed>0.01</speed>
  <fix>3d</fix>
</trkpt>
<trkpt lat="40.0728175" lon="-105.2309446">
  <ele>1595.51</ele>
  <time>2026-08-27T18:29:38Z</time>
  <course>43.4</course>
  <speed>0.03</speed>
  <fix>3d</fix>
</trkpt>
<trkpt lat="40.0728174" lon="-105.2309446">
  <ele>1595.57</ele>
  <time>2026-08-27T18:29:38Z</time>
  <course>62.78</course>
  <speed>0.01</speed>
  <fix>3d</fix>
</trkpt>
<trkpt lat="40.0728176" lon="-105.2309446">
  <ele>1595.51</ele>
  <time>2026-08-27T18:29:38Z</time>
  <course>38.65</course>
  <speed>0.03</speed>
  <fix>3d</fix>
</trkpt>
<trkpt lat="40.0728174" lon="-105.2309446">
  <ele>1595.57</ele>
  <time>2026-08-27T18:29:38Z</time>
  <course>62.41</course>
  <speed>0.01</speed>
  <fix>3d</fix>
</trkpt>
<trkpt lat="40.0728176" lon="-105.2309445">
  <ele>1595.51</ele>
  <time>2026-08-27T18:29:38Z</time>
  <course>33.61</course>
  <speed>0.03</speed>
  <fix>3d</fix>
</trkpt>
<trkpt lat="40.0728175" lon="-105.2309446">
  <ele>1595.57</ele>
  <time>2026-08-27T18:29:38Z</time>
  <course>62.51</course>
  <speed>0.01</speed>
  <fix>3d</fix>
</trkpt>
<trkpt lat="40.0728177" lon="-105.2309444">
  <ele>1595.51</ele>
  <time>2026-08-27T18:29:38Z</time>
  <course>29.19</course>
  <speed>0.03</speed>
  <fix>3d</fix>
</trkpt>
<trkpt lat="40.0728175" lon="-105.2309445">
  <ele>1595.57</ele>
  <time>2026-08-27T18:29:38Z</time>
  <course>63.11</course>
  <speed>0.01</speed>
  <fix>3d</fix>
</trkpt>
<trkpt lat="40.0728177" lon="-105.2309444">
  <ele>1595.51</ele>
  <time>2026-08-27T18:29:38Z</time>
  <course>24.89</course>
  <speed>0.03</speed>
  <fix>3d</fix>
</trkpt>
<trkpt lat="40.0728176" lon="-105.2309445">
  <ele>1595.57</ele>
  <time>2026-08-27T18:29:38Z</time>
  <course>64.09</course>
  <speed>0.01</speed>
  <fix>3d</fix>
</trkpt>
<trkpt lat="40.0728177" lon="-105.2309444">
  <ele>1595.5</ele>
  <time>2026-08-27T18:29:38Z</time>
  <course>20.7</course>
  <speed>0.03</speed>
  <fix>3d</fix>
</trkpt>
<trkpt lat="40.0728177" lon="-105.2309445">
  <ele>1595.57</ele>
  <time>2026-08-27T18:29:38Z</time>
  <course>65.42</course>
  <speed>0.01</speed>
  <fix>3d</fix>
</trkpt>
<trkpt lat="40.0728178" lon="-105.2309444">
  <ele>1595.5</ele>
  <time>2026-08-27T18:29:38Z</time>
  <course>17.64</course>
  <speed>0.03</speed>
  <fix>3d</fix>
</trkpt>
<trkpt lat="40.0728177" lon="-105.2309444">
  <ele>1595.57</ele>
  <time>2026-08-27T18:29:38Z</time>
  <course>66.89</course>
  <speed>0.01</speed>
  <fix>3d</fix>
</trkpt>
<trkpt lat="40.0728178" lon="-105.2309444">
  <ele>1595.5</ele>
  <time>2026-08-27T18:29:38Z</time>
  <course>15.78</course>
  <speed>0.03</speed>
  <fix>3d</fix>
</trkpt>
<trkpt lat="40.0728178" lon="-105.2309444">
  <ele>1595.57</ele>
  <time>2026-08-27T18:29:38Z</time>
  <course>68.41</course>
  <speed>0.01</speed>
  <fix>3d</fix>
</trkpt>
<trkpt lat="40.0728179" lon="-105.2309444">
  <ele>1595.5</ele>
  <time>2026-08-27T18:29:38Z</time>
  <course>14.66</course>
  <speed>0.03</speed>
  <fix>3d</fix>
</trkpt>
<trkpt lat="40.0728178" lon="-105.2309444">
  <ele>1595.57</ele>
  <time>2026-08-27T18:29:38Z</time>
  <course>69.83</course>
  <speed>0.0</speed>
  <fix>3d</fix>
</trkpt>
<trkpt lat="40.072818" lon="-105.2309444">
  <ele>1595.5</ele>
  <time>2026-08-27T18:29:38Z</time>
  <course>14.39</course>
  <speed>0.03</speed>
  <fix>3d</fix>
</trkpt>
<trkpt lat="40.0728179" lon="-105.2309444">
  <ele>1595.57</ele>
  <time>2026-08-27T18:29:38Z</time>
  <course>71.01</course>
  <speed>0.0</speed>
  <fix>3d</fix>
</trkpt>
<trkpt lat="40.0728181" lon="-105.2309443">
  <ele>1595.49</ele>
  <time>2026-08-27T18:29:38Z</time>
  <course>15.65</course>
  <speed>0.03</speed>
  <fix>3d</fix>
</trkpt>
<trkpt lat="40.0728179" lon="-105.2309444">
  <ele>1595.56</ele>
  <time>2026-08-27T18:29:38Z</time>
  <course>71.81</course>
  <speed>0.0</speed>
  <fix>3d</fix>
</trkpt>
<trkpt lat="40.0728181" lon="-105.2309442">
  <ele>1595.49</ele>
  <time>2026-08-27T18:29:38Z</time>
  <course>18.27</course>
  <speed>0.02</speed>
  <fix>3d</fix>
</trkpt>
<trkpt lat="40.072818" lon="-105.2309444">
  <ele>1595.56</ele>
  <time>2026-08-27T18:29:38Z</time>
  <course>72.15</course>
  <speed>0.0</speed>
  <fix>3d</fix>
</trkpt>
<trkpt lat="40.0728182" lon="-105.2309442">
  <ele>1595.49</ele>
  <time>2026-08-27T18:29:38Z</time>
  <course>22.14</course>
  <speed>0.02</speed>
  <fix>3d</fix>
</trkpt>
<trkpt lat="40.072818" lon="-105.2309443">
  <ele>1595.56</ele>
  <time>2026-08-27T18:29:38Z</time>
  <course>72.04</course>
  <speed>0.0</speed>
  <fix>3d</fix>
</trkpt>
<trkpt lat="40.0728182" lon="-105.2309442">
  <ele>1595.49</ele>
  <time>2026-08-27T18:29:38Z</time>
  <course>27.59</course>
  <speed>0.02</speed>
  <fix>3d</fix>
</trkpt>
<trkpt lat="40.072818" lon="-105.2309443">
  <ele>1595.56</ele>
  <time>2026-08-27T18:29:38Z</time>
  <course>71.44</course>
  <speed>0.0</speed>
  <fix>3d</fix>
</trkpt>
<trkpt lat="40.0728182" lon="-105.2309442">
  <ele>1595.49</ele>
  <time>2026-08-27T18:29:38Z</time>
  <course>33.69</course>
  <speed>0.02</speed>
  <fix>3d</fix>
</trkpt>
<trkpt lat="40.0728181" lon="-105.2309442">
  <ele>1595.56</ele>
  <time>2026-08-27T18:29:38Z</time>
  <course>70.47</course>
  <speed>0.01</speed>
  <fix>3d</fix>
</trkpt>
<trkpt lat="40.0728183" lon="-105.2309442">
  <ele>1595.49</ele>
  <time>2026-08-27T18:29:38Z</time>
  <course>39.47</course>
  <speed>0.02</speed>
  <fix>3d</fix>
</trkpt>
<trkpt lat="40.0728181" lon="-105.2309442">
  <ele>1595.56</ele>
  <time>2026-08-27T18:29:38Z</time>
  <course>69.13</course>
  <speed>0.01</speed>
  <fix>3d</fix>
</trkpt>
<trkpt lat="40.0728183" lon="-105.2309442">
  <ele>1595.49</ele>
  <time>2026-08-27T18:29:38Z</time>
  <course>43.96</course>
  <speed>0.02</speed>
  <fix>3d</fix>
</trkpt>
<trkpt lat="40.0728181" lon="-105.2309442">
  <ele>1595.56</ele>
  <time>2026-08-27T18:29:38Z</time>
  <course>67.65</course>
  <speed>0.01</speed>
  <fix>3d</fix>
</trkpt>
<trkpt lat="40.0728183" lon="-105.2309441">
  <ele>1595.49</ele>
  <time>2026-08-27T18:29:38Z</time>
  <course>45.71</course>
  <speed>0.02</speed>
  <fix>3d</fix>
</trkpt>
<trkpt lat="40.0728182" lon="-105.2309441">
  <ele>1595.56</ele>
  <time>2026-08-27T18:29:38Z</time>
  <course>66.16</course>
  <speed>0.01</speed>
  <fix>3d</fix>
</trkpt>
<trkpt lat="40.0728183" lon="-105.2309441">
  <ele>1595.49</ele>
  <time>2026-08-27T18:29:38Z</time>
  <course>45.54</course>
  <speed>0.02</speed>
  <fix>3d</fix>
</trkpt>
<trkpt lat="40.0728182" lon="-105.2309441">
  <ele>1595.56</ele>
  <time>2026-08-27T18:29:38Z</time>
  <course>64.74</course>
  <speed>0.01</speed>
  <fix>3d</fix>
</trkpt>
<trkpt lat="40.0728183" lon="-105.230944">
  <ele>1595.49</ele>
  <time>2026-08-27T18:29:38Z</time>
  <course>44.08</course>
  <speed>0.02</speed>
  <fix>3d</fix>
</trkpt>
<trkpt lat="40.0728182" lon="-105.230944">
  <ele>1595.56</ele>
  <time>2026-08-27T18:29:38Z</time>
  <course>63.56</course>
  <speed>0.01</speed>
  <fix>3d</fix>
</trkpt>
<trkpt lat="40.0728184" lon="-105.2309439">
  <ele>1595.49</ele>
  <time>2026-08-27T18:29:38Z</time>
  <course>41.18</course>
  <speed>0.03</speed>
  <fix>3d</fix>
</trkpt>
<trkpt lat="40.0728183" lon="-105.230944">
  <ele>1595.56</ele>
  <time>2026-08-27T18:29:38Z</time>
  <course>62.76</course>
  <speed>0.01</speed>
  <fix>3d</fix>
</trkpt>
<trkpt lat="40.0728184" lon="-105.2309439">
  <ele>1595.49</ele>
  <time>2026-08-27T18:29:38Z</time>
  <course>37.3</course>
  <speed>0.03</speed>
  <fix>3d</fix>
</trkpt>
<trkpt lat="40.0728183" lon="-105.230944">
  <ele>1595.55</ele>
  <time>2026-08-27T18:29:38Z</time>
  <course>62.39</course>
  <speed>0.0</speed>
  <fix>3d</fix>
</trkpt>
<trkpt lat="40.0728185" lon="-105.2309439">
  <ele>1595.49</ele>
  <time>2026-08-27T18:29:38Z</time>
  <course>32.46</course>
  <speed>0.03</speed>
  <fix>3d</fix>
</trkpt>
<trkpt lat="40.0728184" lon="-105.2309439">
  <ele>1595.55</ele>
  <time>2026-08-27T18:29:38Z</time>
  <course>62.31</course>
  <speed>0.0</speed>
  <fix>3d</fix>
</trkpt>
<trkpt lat="40.0728186" lon="-105.2309439">
  <ele>1595.49</ele>
  <time>2026-08-27T18:29:38Z</time>
  <course>28.46</course>
  <speed>0.03</speed>
  <fix>3d</fix>
</trkpt>
<trkpt lat="40.0728184" lon="-105.2309439">
  <ele>1595.55</ele>
  <time>2026-08-27T18:29:38Z</time>
  <course>62.17</course>
  <speed>0.01</speed>
  <fix>3d</fix>
</trkpt>
<trkpt lat="40.0728186" lon="-105.2309438">
  <ele>1595.49</ele>
  <time>2026-08-27T18:29:38Z</time>
  <course>27.23</course>
  <speed>0.03</speed>
  <fix>3d</fix>
</trkpt>
<trkpt lat="40.0728185" lon="-105.2309438">
  <ele>1595.55</ele>
  <time>2026-08-27T18:29:38Z</time>
  <course>62.1</course>
  <speed>0.01414213562373095</speed>
  <fix>3d</fix>
</trkpt>
<trkpt lat="40.0728187" lon="-105.2309437">
  <ele>1595.49</ele>
  <time>2026-08-27T18:29:38Z</time>
  <course>28.47</course>
  <speed>0.03</speed>
  <fix>3d</fix>
</trkpt>
<trkpt lat="40.0728185" lon="-105.2309438">
  <ele>1595.54</ele>
  <time>2026-08-27T18:29:38Z</time>
  <course>62.08</course>
  <speed>0.01414213562373095</speed>
  <fix>3d</fix>
</trkpt>
<trkpt lat="40.0728187" lon="-105.2309437">
  <ele>1595.49</ele>
  <time>2026-08-27T18:29:38Z</time>
  <course>29.8</course>
  <speed>0.03</speed>
  <fix>3d</fix>
</trkpt>
<trkpt lat="40.0728186" lon="-105.2309437">
  <ele>1595.55</ele>
  <time>2026-08-27T18:29:38Z</time>
  <course>62.05</course>
  <speed>0.01414213562373095</speed>
  <fix>3d</fix>
</trkpt>
<trkpt lat="40.0728188" lon="-105.2309437">
  <ele>1595.49</ele>
  <time>2026-08-27T18:29:38Z</time>
  <course>31.01</course>
  <speed>0.03</speed>
  <fix>3d</fix>
</trkpt>
<trkpt lat="40.0728187" lon="-105.2309437">
  <ele>1595.55</ele>
  <time>2026-08-27T18:29:38Z</time>
  <course>62.08</course>
  <speed>0.01414213562373095</speed>
  <fix>3d</fix>
</trkpt>
<trkpt lat="40.0728189" lon="-105.2309437">
  <ele>1595.5</ele>
  <time>2026-08-27T18:29:38Z</time>
  <course>32.2</course>
  <speed>0.04</speed>
  <fix>3d</fix>
</trkpt>
<trkpt lat="40.0728187" lon="-105.2309436">
  <ele>1595.56</ele>
  <time>2026-08-27T18:29:38Z</time>
  <course>62.1</course>
  <speed>0.01414213562373095</speed>
  <fix>3d</fix>
</trkpt>
<trkpt lat="40.0728189" lon="-105.2309436">
  <ele>1595.5</ele>
  <time>2026-08-27T18:29:38Z</time>
  <course>32.95</course>
  <speed>0.04</speed>
  <fix>3d</fix>
</trkpt>
<trkpt lat="40.0728188" lon="-105.2309436">
  <ele>1595.57</ele>
  <time>2026-08-27T18:29:38Z</time>
  <course>62.1</course>
  <speed>0.01414213562373095</speed>
  <fix>3d</fix>
</trkpt>
<trkpt lat="40.0728189" lon="-105.2309435">
  <ele>1595.51</ele>
  <time>2026-08-27T18:29:38Z</time>
  <course>33.78</course>
  <speed>0.04</speed>
  <fix>3d</fix>
</trkpt>
<trkpt lat="40.0728189" lon="-105.2309435">
  <ele>1595.57</ele>
  <time>2026-08-27T18:29:38Z</time>
  <course>62.12</course>
  <speed>0.022360679774997897</speed>
  <fix>3d</fix>
</trkpt>
<trkpt lat="40.072819" lon="-105.2309435">
  <ele>1595.51</ele>
  <time>2026-08-27T18:29:38Z</time>
  <course>34.53</course>
  <speed>0.04</speed>
  <fix>3d</fix>
</trkpt>
<trkpt lat="40.0728189" lon="-105.2309435">
  <ele>1595.57</ele>
  <time>2026-08-27T18:29:38Z</time>
  <course>62.13</course>
  <speed>0.022360679774997897</speed>
  <fix>3d</fix>
</trkpt>
<trkpt lat="40.0728191" lon="-105.2309434">
  <ele>1595.51</ele>
  <time>2026-08-27T18:29:38Z</time>
  <course>35.38</course>
  <speed>0.04</speed>
  <fix>3d</fix>
</trkpt>
<trkpt lat="40.072819" lon="-105.2309434">
  <ele>1595.57</ele>
  <time>2026-08-27T18:29:38Z</time>
  <course>62.13</course>
  <speed>0.022360679774997897</speed>
  <fix>3d</fix>
</trkpt>
<trkpt lat="40.0728192" lon="-105.2309433">
  <ele>1595.51</ele>
  <time>2026-08-27T18:29:38Z</time>
  <course>36.59</course>
  <speed>0.04</speed>
  <fix>3d</fix>
</trkpt>
<trkpt lat="40.0728191" lon="-105.2309433">
  <ele>1595.57</ele>
  <time>2026-08-27T18:29:38Z</time>
  <course>62.13</course>
  <speed>0.022360679774997897</speed>
  <fix>3d</fix>
</trkpt>
<trkpt lat="40.0728192" lon="-105.2309432">
  <ele>1595.51</ele>
  <time>2026-08-27T18:29:38Z</time>
  <course>37.74</course>
  <speed>0.04</speed>
  <fix>3d</fix>
</trkpt>
<trkpt lat="40.0728191" lon="-105.2309432">
  <ele>1595.57</ele>
  <time>2026-08-27T18:29:38Z</time>
  <course>62.13</course>
  <speed>0.022360679774997897</speed>
  <fix>3d</fix>
</trkpt>
<trkpt lat="40.0728193" lon="-105.2309432">
  <ele>1595.5</ele>
  <time>2026-08-27T18:29:38Z</time>
  <course>38.52</course>
  <speed>0.05</speed>
  <fix>3d</fix>
</trkpt>
<trkpt lat="40.0728192" lon="-105.2309432">
  <ele>1595.57</ele>
  <time>2026-08-27T18:29:38Z</time>
  <course>62.16</course>
  <speed>0.022360679774997897</speed>
  <fix>3d</fix>
</trkpt>
<trkpt lat="40.0728194" lon="-105.2309431">
  <ele>1595.5</ele>
  <time>2026-08-27T18:29:38Z</time>
  <course>39.39</course>
  <speed>0.05</speed>
  <fix>3d</fix>
</trkpt>
<trkpt lat="40.0728193" lon="-105.2309431">
  <ele>1595.57</ele>
  <time>2026-08-27T18:29:38Z</time>
  <course>62.16</course>
  <speed>0.03605551275463989</speed>
  <fix>3d</fix>
</trkpt>
<trkpt lat="40.0728195" lon="-105.230943">
  <ele>1595.5</ele>
  <time>2026-08-27T18:29:38Z</time>
  <course>40.13</course>
  <speed>0.05</speed>
  <fix>3d</fix>
</trkpt>
<trkpt lat="40.0728194" lon="-105.230943">
  <ele>1595.57</ele>
  <time>2026-08-27T18:29:38Z</time>
  <course>62.15</course>
  <speed>0.03605551275463989</speed>
  <fix>3d</fix>
</trkpt>
<trkpt lat="40.0728195" lon="-105.230943">
  <ele>1595.5</ele>
  <time>2026-08-27T18:29:38Z</time>
  <course>40.7</course>
  <speed>0.05</speed>
  <fix>3d</fix>
</trkpt>
<trkpt lat="40.0728195" lon="-105.2309429">
  <ele>1595.57</ele>
  <time>2026-08-27T18:29:38Z</time>
  <course>62.13</course>
  <speed>0.03605551275463989</speed>
  <fix>3d</fix>
</trkpt>
<trkpt lat="40.0728196" lon="-105.2309429">
  <ele>1595.5</ele>
  <time>2026-08-27T18:29:38Z</time>
  <course>41.49</course>
  <speed>0.05</speed>
  <fix>3d</fix>
</trkpt>
<trkpt lat="40.0728195" lon="-105.2309428">
  <ele>1595.57</ele>
  <time>2026-08-27T18:29:38Z</time>
  <course>61.36</course>
  <speed>0.0316227766016838</speed>
  <fix>3d</fix>
</trkpt>
<trkpt lat="40.0728197" lon="-105.2309428">
  <ele>1595.49</ele>
  <time>2026-08-27T18:29:38Z</time>
  <course>44.1</course>
  <speed>0.05</speed>
  <fix>3d</fix>
</trkpt>
<trkpt lat="40.0728196" lon="-105.2309427">
  <ele>1595.56</ele>
  <time>2026-08-27T18:29:38Z</time>
  <course>60.04</course>
  <speed>0.0316227766016838</speed>
  <fix>3d</fix>
</trkpt>
<trkpt lat="40.0728198" lon="-105.2309427">
  <ele>1595.49</ele>
  <time>2026-08-27T18:29:38Z</time>
  <course>46.9</course>
  <speed>0.05</speed>
  <fix>3d</fix>
</trkpt>
<trkpt lat="40.0728197" lon="-105.2309426">
  <ele>1595.56</ele>
  <time>2026-08-27T18:29:38Z</time>
  <course>58.79</course>
  <speed>0.0316227766016838</speed>
  <fix>3d</fix>
</trkpt>
<trkpt lat="40.0728198" lon="-105.2309426">
  <ele>1595.49</ele>
  <time>2026-08-27T18:29:38Z</time>
  <course>46.9</course>
  <speed>0.05</speed>
  <fix>3d</fix>
</trkpt>
<trkpt lat="40.0728197" lon="-105.2309425">
  <ele>1595.56</ele>
  <time>2026-08-27T18:29:38Z</time>
  <course>57.84</course>
  <speed>0.022360679774997897</speed>
  <fix>3d</fix>
</trkpt>
<trkpt lat="40.0728199" lon="-105.2309425">
  <ele>1595.49</ele>
  <time>2026-08-27T18:29:38Z</time>
  <course>44.85</course>
  <speed>0.05</speed>
  <fix>3d</fix>
</trkpt>
<trkpt lat="40.0728198" lon="-105.2309425">
  <ele>1595.55</ele>
  <time>2026-08-27T18:29:38Z</time>
  <course>57.31</course>
  <speed>0.022360679774997897</speed>
  <fix>3d</fix>
</trkpt>
<trkpt lat="40.07282" lon="-105.2309424">
  <ele>1595.49</ele>
  <time>2026-08-27T18:29:38Z</time>
  <course>41.44</course>
  <speed>0.04</speed>
  <fix>3d</fix>
</trkpt>
<trkpt lat="40.0728199" lon="-105.2309424">
  <ele>1595.55</ele>
  <time>2026-08-27T18:29:38Z</time>
  <course>57.28</course>
  <speed>0.01414213562373095</speed>
  <fix>3d</fix>
</trkpt>
<trkpt lat="40.07282" lon="-105.2309423">
  <ele>1595.49</ele>
  <time>2026-08-27T18:29:38Z</time>
  <course>37.11</course>
  <speed>0.04</speed>
  <fix>3d</fix>
</trkpt>
<trkpt lat="40.0728199" lon="-105.2309423">
  <ele>1595.55</ele>
  <time>2026-08-27T18:29:38Z</time>
  <course>57.69</course>
  <speed>0.01414213562373095</speed>
  <fix>3d</fix>
</trkpt>
<trkpt lat="40.0728201" lon="-105.2309423">
  <ele>1595.49</ele>
  <time>2026-08-27T18:29:38Z</time>
  <course>32.15</course>
  <speed>0.04</speed>
  <fix>3d</fix>
</trkpt>
<trkpt lat="40.07282" lon="-105.2309423">
  <ele>1595.55</ele>
  <time>2026-08-27T18:29:38Z</time>
  <course>58.57</course>
  <speed>0.01</speed>
  <fix>3d</fix>
</trkpt>
<trkpt lat="40.0728201" lon="-105.2309423">
  <ele>1595.49</ele>
  <time>2026-08-27T18:29:38Z</time>
  <course>26.46</course>
  <speed>0.03</speed>
  <fix>3d</fix>
</trkpt>
<trkpt lat="40.07282" lon="-105.2309423">
  <ele>1595.55</ele>
  <time>2026-08-27T18:29:38Z</time>
  <course>59.8</course>
  <speed>0.01</speed>
  <fix>3d</fix>
</trkpt>
<trkpt lat="40.0728202" lon="-105.2309422">
  <ele>1595.49</ele>
  <time>2026-08-27T18:29:38Z</time>
  <course>21.08</course>
  <speed>0.03</speed>
  <fix>3d</fix>
</trkpt>
<trkpt lat="40.0728201" lon="-105.2309423">
  <ele>1595.55</ele>
  <time>2026-08-27T18:29:38Z</time>
  <course>61.23</course>
  <speed>0.01</speed>
  <fix>3d</fix>
</trkpt>
<trkpt lat="40.0728202" lon="-105.2309422">
  <ele>1595.49</ele>
  <time>2026-08-27T18:29:38Z</time>
  <course>16.92</course>
  <speed>0.03</speed>
  <fix>3d</fix>
</trkpt>
<trkpt lat="40.0728202" lon="-105.2309422">
  <ele>1595.55</ele>
  <time>2026-08-27T18:29:38Z</time>
  <course>62.77</course>
  <speed>0.0</speed>
  <fix>3d</fix>
</trkpt>
<trkpt lat="40.0728203" lon="-105.2309422">
  <ele>1595.49</ele>
  <time>2026-08-27T18:29:38Z</time>
  <course>13.33</course>
  <speed>0.03</speed>
  <fix>3d</fix>
</trkpt>
<trkpt lat="40.0728202" lon="-105.2309422">
  <ele>1595.56</ele>
  <time>2026-08-27T18:29:38Z</time>
  <course>64.2</course>
  <speed>0.0</speed>
  <fix>3d</fix>
</trkpt>
<trkpt lat="40.0728204" lon="-105.2309422">
  <ele>1595.49</ele>
  <time>2026-08-27T18:29:38Z</time>
  <course>10.86</course>
  <speed>0.03</speed>
  <fix>3d</fix>
</trkpt>
<trkpt lat="40.0728203" lon="-105.2309422">
  <ele>1595.56</ele>
  <time>2026-08-27T18:29:38Z</time>
  <course>65.48</course>
  <speed>0.0</speed>
  <fix>3d</fix>
</trkpt>
<trkpt lat="40.0728204" lon="-105.2309422">
  <ele>1595.5</ele>
  <time>2026-08-27T18:29:38Z</time>
  <course>10.25</course>
  <speed>0.02</speed>
  <fix>3d</fix>
</trkpt>
<trkpt lat="40.0728203" lon="-105.2309422">
  <ele>1595.56</ele>
  <time>2026-08-27T18:29:38Z</time>
  <course>66.42</course>
  <speed>0.0</speed>
  <fix>3d</fix>
</trkpt>
<trkpt lat="40.0728205" lon="-105.2309422">
  <ele>1595.5</ele>
  <time>2026-08-27T18:29:38Z</time>
  <course>12.01</course>
  <speed>0.02</speed>
  <fix>3d</fix>
</trkpt>
<trkpt lat="40.0728203" lon="-105.2309422">
  <ele>1595.56</ele>
  <time>2026-08-27T18:29:38Z</time>
  <course>66.95</course>
  <speed>0.0</speed>
  <fix>3d</fix>
</trkpt>
<trkpt lat="40.0728205" lon="-105.2309421">
  <ele>1595.5</ele>
  <time>2026-08-27T18:29:38Z</time>
  <course>15.88</course>
  <speed>0.02</speed>
  <fix>3d</fix>
</trkpt>
<trkpt lat="40.0728204" lon="-105.2309422">
  <ele>1595.56</ele>
  <time>2026-08-27T18:29:38Z</time>
  <course>67.0</course>
  <speed>0.0</speed>
  <fix>3d</fix>
</trkpt>
<trkpt lat="40.0728206" lon="-105.230942">
  <ele>1595.5</ele>
  <time>2026-08-27T18:29:38Z</time>
  <course>21.27</course>
  <speed>0.02</speed>
  <fix>3d</fix>
</trkpt>
<trkpt lat="40.0728204" lon="-105.2309421">
  <ele>1595.56</ele>
  <time>2026-08-27T18:29:38Z</time>
  <course>66.57</course>
  <speed>0.0</speed>
  <fix>3d</fix>
</trkpt>
<trkpt lat="40.0728206" lon="-105.230942">
  <ele>1595.5</ele>
  <time>2026-08-27T18:29:38Z</time>
  <course>27.43</course>
  <speed>0.02</speed>
  <fix>3d</fix>
</trkpt>
<trkpt lat="40.0728204" lon="-105.2309421">
  <ele>1595.56</ele>
  <time>2026-08-27T18:29:38Z</time>
  <course>65.73</course>
  <speed>0.0</speed>
  <fix>3d</fix>
</trkpt>
<trkpt lat="40.0728207" lon="-105.230942">
  <ele>1595.5</ele>
  <time>2026-08-27T18:29:38Z</time>
  <course>32.38</course>
  <speed>0.02</speed>
  <fix>3d</fix>
</trkpt>
<trkpt lat="40.0728205" lon="-105.2309421">
  <ele>1595.56</ele>
  <time>2026-08-27T18:29:38Z</time>
  <course>64.5</course>
  <speed>0.01</speed>
  <fix>3d</fix>
</trkpt>
<trkpt lat="40.0728207" lon="-105.230942">
  <ele>1595.5</ele>
  <time>2026-08-27T18:29:38Z</time>
  <course>35.85</course>
  <speed>0.02</speed>
  <fix>3d</fix>
</trkpt>
<trkpt lat="40.0728205" lon="-105.230942">
  <ele>1595.56</ele>
  <time>2026-08-27T18:29:38Z</time>
  <course>63.06</course>
  <speed>0.01</speed>
  <fix>3d</fix>
</trkpt>
<trkpt lat="40.0728207" lon="-105.230942">
  <ele>1595.5</ele>
  <time>2026-08-27T18:29:38Z</time>
  <course>38.52</course>
  <speed>0.02</speed>
  <fix>3d</fix>
</trkpt>
<trkpt lat="40.0728206" lon="-105.230942">
  <ele>1595.56</ele>
  <time>2026-08-27T18:29:38Z</time>
  <course>61.53</course>
  <speed>0.01</speed>
  <fix>3d</fix>
</trkpt>
<trkpt lat="40.0728207" lon="-105.230942">
  <ele>1595.5</ele>
  <time>2026-08-27T18:29:38Z</time>
  <course>39.47</course>
  <speed>0.02</speed>
  <fix>3d</fix>
</trkpt>
<trkpt lat="40.0728206" lon="-105.230942">
  <ele>1595.57</ele>
  <time>2026-08-27T18:29:38Z</time>
  <course>60.07</course>
  <speed>0.01</speed>
  <fix>3d</fix>
</trkpt>
<trkpt lat="40.0728207" lon="-105.2309419">
  <ele>1595.5</ele>
  <time>2026-08-27T18:29:38Z</time>
  <course>37.92</course>
  <speed>0.02</speed>
  <fix>3d</fix>
</trkpt>
<trkpt lat="40.0728206" lon="-105.2309419">
  <ele>1595.56</ele>
  <time>2026-08-27T18:29:38Z</time>
  <course>58.8</course>
  <speed>0.01</speed>
  <fix>3d</fix>
</trkpt>
<trkpt lat="40.0728208" lon="-105.2309418">
  <ele>1595.5</ele>
  <time>2026-08-27T18:29:38Z</time>
  <course>34.8</course>
  <speed>0.03</speed>
  <fix>3d</fix>
</trkpt>
<trkpt lat="40.0728207" lon="-105.2309419">
  <ele>1595.56</ele>
  <time>2026-08-27T18:29:38Z</time>
  <course>57.87</course>
  <speed>0.01</speed>
  <fix>3d</fix>
</trkpt>
<trkpt lat="40.0728208" lon="-105.2309418">
  <ele>1595.5</ele>
  <time>2026-08-27T18:29:38Z</time>
  <course>31.08</course>
  <speed>0.03</speed>
  <fix>3d</fix>
</trkpt>
<trkpt lat="40.0728207" lon="-105.2309418">
  <ele>1595.56</ele>
  <time>2026-08-27T18:29:38Z</time>
  <course>57.33</course>
  <speed>0.01</speed>
  <fix>3d</fix>
</trkpt>
<trkpt lat="40.0728209" lon="-105.2309418">
  <ele>1595.5</ele>
  <time>2026-08-27T18:29:38Z</time>
  <course>26.96</course>
  <speed>0.03</speed>
  <fix>3d</fix>
</trkpt>
<trkpt lat="40.0728208" lon="-105.2309418">
  <ele>1595.56</ele>
  <time>2026-08-27T18:29:38Z</time>
  <course>57.28</course>
  <speed>0.01</speed>
  <fix>3d</fix>
</trkpt>
<trkpt lat="40.072821" lon="-105.2309418">
  <ele>1595.5</ele>
  <time>2026-08-27T18:29:38Z</time>
  <course>22.18</course>
  <speed>0.03</speed>
  <fix>3d</fix>
</trkpt>
<trkpt lat="40.0728208" lon="-105.2309418">
  <ele>1595.56</ele>
  <time>2026-08-27T18:29:38Z</time>
  <course>57.7</course>
  <speed>0.01</speed>
  <fix>3d</fix>
</trkpt>
<trkpt lat="40.072821" lon="-105.2309418">
  <ele>1595.5</ele>
  <time>2026-08-27T18:29:38Z</time>
  <course>17.32</course>
  <speed>0.03</speed>
  <fix>3d</fix>
</trkpt>
<trkpt lat="40.0728209" lon="-105.2309418">
  <ele>1595.56</ele>
  <time>2026-08-27T18:29:38Z</time>
  <course>58.58</course>
  <speed>0.01</speed>
  <fix>3d</fix>
</trkpt>
<trkpt lat="40.0728211" lon="-105.2309417">
  <ele>1595.5</ele>
  <time>2026-08-27T18:29:38Z</time>
  <course>13.37</course>
  <speed>0.03</speed>
  <fix>3d</fix>
</trkpt>
<trkpt lat="40.072821" lon="-105.2309418">
  <ele>1595.56</ele>
  <time>2026-08-27T18:29:38Z</time>
  <course>59.79</course>
  <speed>0.01</speed>
  <fix>3d</fix>
</trkpt>
<trkpt lat="40.0728212" lon="-105.2309416">
  <ele>1595.5</ele>
  <time>2026-08-27T18:29:38Z</time>
  <course>10.56</course>
  <speed>0.03</speed>
  <fix>3d</fix>
</trkpt>
<trkpt lat="40.072821" lon="-105.2309417">
  <ele>1595.56</ele>
  <time>2026-08-27T18:29:38Z</time>
  <course>61.22</course>
  <speed>0.01</speed>
  <fix>3d</fix>
</trkpt>
<trkpt lat="40.0728212" lon="-105.2309416">
  <ele>1595.5</ele>
  <time>2026-08-27T18:29:38Z</time>
  <course>8.56</course>
  <speed>0.03</speed>
  <fix>3d</fix>
</trkpt>
<trkpt lat="40.0728211" lon="-105.2309417">
  <ele>1595.55</ele>
  <time>2026-08-27T18:29:38Z</time>
  <course>62.75</course>
  <speed>0.01</speed>
  <fix>3d</fix>
</trkpt>
<trkpt lat="40.0728213" lon="-105.2309416">
  <ele>1595.5</ele>
  <time>2026-08-27T18:29:38Z</time>
  <course>7.52</course>
  <speed>0.03</speed>
  <fix>3d</fix>
</trkpt>
<trkpt lat="40.0728212" lon="-105.2309417">
  <ele>1595.56</ele>
  <time>2026-08-27T18:29:38Z</time>
  <course>64.21</course>
  <speed>0.01</speed>
  <fix>3d</fix>
</trkpt>
<trkpt lat="40.0728213" lon="-105.2309416">
  <ele>1595.5</ele>
  <time>2026-08-27T18:29:38Z</time>
  <course>8.08</course>
  <speed>0.03</speed>
  <fix>3d</fix>
</trkpt>
<trkpt lat="40.0728212" lon="-105.2309417">
  <ele>1595.55</ele>
  <time>2026-08-27T18:29:38Z</time>
  <course>65.47</course>
  <speed>0.0</speed>
  <fix>3d</fix>
</trkpt>
<trkpt lat="40.0728214" lon="-105.2309416">
  <ele>1595.5</ele>
  <time>2026-08-27T18:29:38Z</time>
  <course>9.74</course>
  <speed>0.03</speed>
  <fix>3d</fix>
</trkpt>
<trkpt lat="40.0728213" lon="-105.2309417">
  <ele>1595.55</ele>
  <time>2026-08-27T18:29:38Z</time>
  <course>66.42</course>
  <speed>0.0</speed>
  <fix>3d</fix>
</trkpt>
<trkpt lat="40.0728214" lon="-105.2309416">
  <ele>1595.5</ele>
  <time>2026-08-27T18:29:38Z</time>
  <course>12.31</course>
  <speed>0.02</speed>
  <fix>3d</fix>
</trkpt>
<trkpt lat="40.0728213" lon="-105.2309416">
  <ele>1595.56</ele>
  <time>2026-08-27T18:29:38Z</time>
  <course>66.94</course>
  <speed>0.0</speed>
  <fix>3d</fix>
</trkpt>
<trkpt lat="40.0728215" lon="-105.2309416">
  <ele>1595.5</ele>
  <time>2026-08-27T18:29:38Z</time>
  <course>16.69</course>
  <speed>0.02</speed>
  <fix>3d</fix>
</trkpt>
<trkpt lat="40.0728214" lon="-105.2309416">
  <ele>1595.56</ele>
  <time>2026-08-27T18:29:38Z</time>
  <course>66.99</course>
  <speed>0.0</speed>
  <fix>3d</fix>
</trkpt>
<trkpt lat="40.0728216" lon="-105.2309416">
  <ele>1595.5</ele>
  <time>2026-08-27T18:29:38Z</time>
  <course>22.19</course>
  <speed>0.02</speed>
  <fix>3d</fix>
</trkpt>
<trkpt lat="40.0728214" lon="-105.2309416">
  <ele>1595.57</ele>
  <time>2026-08-27T18:29:38Z</time>
  <course>66.57</course>
  <speed>0.0</speed>
  <fix>3d</fix>
</trkpt>
<trkpt lat="40.0728216" lon="-105.2309416">
  <ele>1595.5</ele>
  <time>2026-08-27T18:29:38Z</time>
  <course>27.71</course>
  <speed>0.02</speed>
  <fix>3d</fix>
</trkpt>
<trkpt lat="40.0728214" lon="-105.2309416">
  <ele>1595.57</ele>
  <time>2026-08-27T18:29:38Z</time>
  <course>65.74</course>
  <speed>0.01</speed>
  <fix>3d</fix>
</trkpt>
<trkpt lat="40.0728217" lon="-105.2309416">
  <ele>1595.5</ele>
  <time>2026-08-27T18:29:38Z</time>
  <course>32.32</course>
  <speed>0.02</speed>
  <fix>3d</fix>
</trkpt>
<trkpt lat="40.0728215" lon="-105.2309415">
  <ele>1595.57</ele>
  <time>2026-08-27T18:29:38Z</time>
  <course>64.53</course>
  <speed>0.01</speed>
  <fix>3d</fix>
</trkpt>
<trkpt lat="40.0728217" lon="-105.2309415">
  <ele>1595.5</ele>
  <time>2026-08-27T18:29:38Z</time>
  <course>35.51</course>
  <speed>0.02</speed>
  <fix>3d</fix>
</trkpt>
<trkpt lat="40.0728215" lon="-105.2309415">
  <ele>1595.57</ele>
  <time>2026-08-27T18:29:38Z</time>
  <course>63.1</course>
  <speed>0.01</speed>
  <fix>3d</fix>
</trkpt>
<trkpt lat="40.0728217" lon="-105.2309415">
  <ele>1595.5</ele>
  <time>2026-08-27T18:29:38Z</time>
  <course>38.47</course>
  <speed>0.02</speed>
  <fix>3d</fix>
</trkpt>
<trkpt lat="40.0728216" lon="-105.2309415">
  <ele>1595.57</ele>
  <time>2026-08-27T18:29:38Z</time>
  <course>61.56</course>
  <speed>0.01</speed>
  <fix>3d</fix>
</trkpt>
<trkpt lat="40.0728218" lon="-105.2309414">
  <ele>1595.5</ele>
  <time>2026-08-27T18:29:38Z</time>
  <course>39.56</course>
  <speed>0.02</speed>
  <fix>3d</fix>
</trkpt>
<trkpt lat="40.0728216" lon="-105.2309414">
  <ele>1595.57</ele>
  <time>2026-08-27T18:29:38Z</time>
  <course>60.11</course>
  <speed>0.01</speed>
  <fix>3d</fix>
</trkpt>
<trkpt lat="40.0728218" lon="-105.2309413">
  <ele>1595.5</ele>
  <time>2026-08-27T18:29:38Z</time>
  <course>38.77</course>
  <speed>0.02</speed>
  <fix>3d</fix>
</trkpt>
<trkpt lat="40.0728216" lon="-105.2309414">
  <ele>1595.57</ele>
  <time>2026-08-27T18:29:38Z</time>
  <course>58.83</course>
  <speed>0.01</speed>
  <fix>3d</fix>
</trkpt>
<trkpt lat="40.0728218" lon="-105.2309413">
  <ele>1595.49</ele>
  <time>2026-08-27T18:29:38Z</time>
  <course>37.01</course>
  <speed>0.02</speed>
  <fix>3d</fix>
</trkpt>
<trkpt lat="40.0728217" lon="-105.2309413">
  <ele>1595.57</ele>
  <time>2026-08-27T18:29:38Z</time>
  <course>57.88</course>
  <speed>0.01</speed>
  <fix>3d</fix>
</trkpt>
<trkpt lat="40.0728219" lon="-105.2309413">
  <ele>1595.49</ele>
  <time>2026-08-27T18:29:38Z</time>
  <course>33.46</course>
  <speed>0.03</speed>
  <fix>3d</fix>
</trkpt>
<trkpt lat="40.0728217" lon="-105.2309413">
  <ele>1595.57</ele>
  <time>2026-08-27T18:29:38Z</time>
  <course>57.34</course>
  <speed>0.01</speed>
  <fix>3d</fix>
</trkpt>
<trkpt lat="40.0728219" lon="-105.2309413">
  <ele>1595.49</ele>
  <time>2026-08-27T18:29:38Z</time>
  <course>29.46</course>
  <speed>0.03</speed>
  <fix>3d</fix>
</trkpt>
<trkpt lat="40.0728218" lon="-105.2309413">
  <ele>1595.56</ele>
  <time>2026-08-27T18:29:38Z</time>
  <course>57.32</course>
  <speed>0.01</speed>
  <fix>3d</fix>
</trkpt>
<trkpt lat="40.0728219" lon="-105.2309413">
  <ele>1595.49</ele>
  <time>2026-08-27T18:29:38Z</time>
  <course>25.14</course>
  <speed>0.03</speed>
  <fix>3d</fix>
</trkpt>
<trkpt lat="40.0728219" lon="-105.2309413">
  <ele>1595.56</ele>
  <time>2026-08-27T18:29:38Z</time>
  <course>57.73</course>
  <speed>0.01</speed>
  <fix>3d</fix>
</trkpt>
<trkpt lat="40.072822" lon="-105.2309412">
  <ele>1595.49</ele>
  <time>2026-08-27T18:29:38Z</time>
  <course>21.2</course>
  <speed>0.03</speed>
  <fix>3d</fix>
</trkpt>
<trkpt lat="40.0728219" lon="-105.2309412">
  <ele>1595.56</ele>
  <time>2026-08-27T18:29:38Z</time>
  <course>58.6</course>
  <speed>0.01</speed>
  <fix>3d</fix>
</trkpt>
<trkpt lat="40.0728221" lon="-105.2309411">
  <ele>1595.49</ele>
  <time>2026-08-27T18:29:38Z</time>
  <course>17.53</course>
  <speed>0.03</speed>
  <fix>3d</fix>
</trkpt>
<trkpt lat="40.072822" lon="-105.2309412">
  <ele>1595.56</ele>
  <time>2026-08-27T18:29:38Z</time>
  <course>59.77</course>
  <speed>0.01</speed>
  <fix>3d</fix>
</trkpt>
<trkpt lat="40.0728222" lon="-105.2309411">
  <ele>1595.48</ele>
  <time>2026-08-27T18:29:38Z</time>
  <course>14.14</course>
  <speed>0.03</speed>
  <fix>3d</fix>
</trkpt>
<trkpt lat="40.072822" lon="-105.2309412">
  <ele>1595.56</ele>
  <time>2026-08-27T18:29:38Z</time>
  <course>61.2</course>
  <speed>0.01</speed>
  <fix>3d</fix>
</trkpt>
<trkpt lat="40.0728222" lon="-105.2309411">
  <ele>1595.48</ele>
  <time>2026-08-27T18:29:38Z</time>
  <course>11.62</course>
  <speed>0.03</speed>
  <fix>3d</fix>
</trkpt>
<trkpt lat="40.0728221" lon="-105.2309412">
  <ele>1595.56</ele>
  <time>2026-08-27T18:29:38Z</time>
  <course>62.75</course>
  <speed>0.01</speed>
  <fix>3d</fix>
</trkpt>
<trkpt lat="40.0728223" lon="-105.2309411">
  <ele>1595.48</ele>
  <time>2026-08-27T18:29:38Z</time>
  <course>9.92</course>
  <speed>0.03</speed>
  <fix>3d</fix>
</trkpt>
<trkpt lat="40.0728222" lon="-105.2309412">
  <ele>1595.56</ele>
  <time>2026-08-27T18:29:38Z</time>
  <course>64.23</course>
  <speed>0.01</speed>
  <fix>3d</fix>
</trkpt>
<trkpt lat="40.0728223" lon="-105.2309411">
  <ele>1595.48</ele>
  <time>2026-08-27T18:29:38Z</time>
  <course>9.8</course>
  <speed>0.03</speed>
  <fix>3d</fix>
</trkpt>
<trkpt lat="40.0728222" lon="-105.2309411">
  <ele>1595.57</ele>
  <time>2026-08-27T18:29:38Z</time>
  <course>65.51</course>
  <speed>0.0</speed>
  <fix>3d</fix>
</trkpt>
<trkpt lat="40.0728224" lon="-105.2309411">
  <ele>1595.48</ele>
  <time>2026-08-27T18:29:38Z</time>
  <course>11.16</course>
  <speed>0.03</speed>
  <fix>3d</fix>
</trkpt>
<trkpt lat="40.0728223" lon="-105.2309411">
  <ele>1595.57</ele>
  <time>2026-08-27T18:29:38Z</time>
  <course>66.44</course>
  <speed>0.0</speed>
  <fix>3d</fix>
</trkpt>
<trkpt lat="40.0728225" lon="-105.2309411">
  <ele>1595.49</ele>
  <time>2026-08-27T18:29:38Z</time>
  <course>13.78</course>
  <speed>0.02</speed>
  <fix>3d</fix>
</trkpt>
<trkpt lat="40.0728223" lon="-105.2309411">
  <ele>1595.58</ele>
  <time>2026-08-27T18:29:38Z</time>
  <course>66.99</course>
  <speed>0.0</speed>
  <fix>3d</fix>
</trkpt>
<trkpt lat="40.0728225" lon="-105.2309411">
  <ele>1595.48</ele>
  <time>2026-08-27T18:29:38Z</time>
  <course>16.93</course>
  <speed>0.02</speed>
  <fix>3d</fix>
</trkpt>
<trkpt lat="40.0728224" lon="-105.2309411">
  <ele>1595.57</ele>
  <time>2026-08-27T18:29:38Z</time>
  <course>67.04</course>
  <speed>0.0</speed>
  <fix>3d</fix>
</trkpt>
<trkpt lat="40.0728225" lon="-105.2309411">
  <ele>1595.48</ele>
  <time>2026-08-27T18:29:38Z</time>
  <course>21.5</course>
  <speed>0.02</speed>
  <fix>3d</fix>
</trkpt>
<trkpt lat="40.0728224" lon="-105.2309411">
  <ele>1595.57</ele>
  <time>2026-08-27T18:29:38Z</time>
  <course>66.62</course>
  <speed>0.0</speed>
  <fix>3d</fix>
</trkpt>
<trkpt lat="40.0728225" lon="-105.230941">
  <ele>1595.48</ele>
  <time>2026-08-27T18:29:38Z</time>
  <course>28.17</course>
  <speed>0.02</speed>
  <fix>3d</fix>
</trkpt>
<trkpt lat="40.0728224" lon="-105.230941">
  <ele>1595.57</ele>
  <time>2026-08-27T18:29:38Z</time>
  <course>65.74</course>
  <speed>0.01</speed>
  <fix>3d</fix>
</trkpt>
<trkpt lat="40.0728226" lon="-105.230941">
  <ele>1595.48</ele>
  <time>2026-08-27T18:29:38Z</time>
  <course>34.43</course>
  <speed>0.02</speed>
  <fix>3d</fix>
</trkpt>
<trkpt lat="40.0728225" lon="-105.230941">
  <ele>1595.56</ele>
  <time>2026-08-27T18:29:38Z</time>
  <course>64.51</course>
  <speed>0.01</speed>
  <fix>3d</fix>
</trkpt>
<trkpt lat="40.0728226" lon="-105.230941">
  <ele>1595.47</ele>
  <time>2026-08-27T18:29:38Z</time>
  <course>38.86</course>
  <speed>0.02</speed>
  <fix>3d</fix>
</trkpt>
<trkpt lat="40.0728225" lon="-105.230941">
  <ele>1595.56</ele>
  <time>2026-08-27T18:29:38Z</time>
  <course>63.07</course>
  <speed>0.01</speed>
  <fix>3d</fix>
</trkpt>
<trkpt lat="40.0728227" lon="-105.2309409">
  <ele>1595.47</ele>
  <time>2026-08-27T18:29:38Z</time>
  <course>40.81</course>
  <speed>0.02</speed>
  <fix>3d</fix>
</trkpt>
<trkpt lat="40.0728225" lon="-105.2309409">
  <ele>1595.55</ele>
  <time>2026-08-27T18:29:38Z</time>
  <course>61.51</course>
  <speed>0.01</speed>
  <fix>3d</fix>
</trkpt>
<trkpt lat="40.0728228" lon="-105.2309408">
  <ele>1595.47</ele>
  <time>2026-08-27T18:29:38Z</time>
  <course>40.98</course>
  <speed>0.02</speed>
  <fix>3d</fix>
</trkpt>
<trkpt lat="40.0728226" lon="-105.2309409">
  <ele>1595.54</ele>
  <time>2026-08-27T18:29:38Z</time>
  <course>60.07</course>
  <speed>0.01</speed>
  <fix>3d</fix>
</trkpt>
<trkpt lat="40.0728228" lon="-105.2309408">
  <ele>1595.47</ele>
  <time>2026-08-27T18:29:38Z</time>
  <course>40.03</course>
  <speed>0.03</speed>
  <fix>3d</fix>
</trkpt>
<trkpt lat="40.0728226" lon="-105.2309408">
  <ele>1595.55</ele>
  <time>2026-08-27T18:29:38Z</time>
  <course>58.75</course>
  <speed>0.01</speed>
  <fix>3d</fix>
</trkpt>
<trkpt lat="40.0728228" lon="-105.2309408">
  <ele>1595.47</ele>
  <time>2026-08-27T18:29:38Z</time>
  <course>38.25</course>
  <speed>0.03</speed>
  <fix>3d</fix>
</trkpt>
<trkpt lat="40.0728227" lon="-105.2309408">
  <ele>1595.55</ele>
  <time>2026-08-27T18:29:38Z</time>
  <course>57.81</course>
  <speed>0.01</speed>
  <fix>3d</fix>
</trkpt>
<trkpt lat="40.0728229" lon="-105.2309407">
  <ele>1595.47</ele>
  <time>2026-08-27T18:29:38Z</time>
  <course>35.06</course>
  <speed>0.03</speed>
  <fix>3d</fix>
</trkpt>
<trkpt lat="40.0728227" lon="-105.2309407">
  <ele>1595.55</ele>
  <time>2026-08-27T18:29:38Z</time>
  <course>57.31</course>
  <speed>0.01</speed>
  <fix>3d</fix>
</trkpt>
<trkpt lat="40.0728229" lon="-105.2309406">
  <ele>1595.47</ele>
  <time>2026-08-27T18:29:38Z</time>
  <course>30.53</course>
  <speed>0.03</speed>
  <fix>3d</fix>
</trkpt>
<trkpt lat="40.0728228" lon="-105.2309407">
  <ele>1595.55</ele>
  <time>2026-08-27T18:29:38Z</time>
  <course>57.27</course>
  <speed>0.01</speed>
  <fix>3d</fix>
</trkpt>
<trkpt lat="40.072823" lon="-105.2309406">
  <ele>1595.47</ele>
  <time>2026-08-27T18:29:38Z</time>
  <course>25.38</course>
  <speed>0.03</speed>
  <fix>3d</fix>
</trkpt>
<trkpt lat="40.0728229" lon="-105.2309407">
  <ele>1595.55</ele>
  <time>2026-08-27T18:29:38Z</time>
  <course>57.69</course>
  <speed>0.01</speed>
  <fix>3d</fix>
</trkpt>
<trkpt lat="40.072823" lon="-105.2309406">
  <ele>1595.48</ele>
  <time>2026-08-27T18:29:38Z</time>
  <course>20.74</course>
  <speed>0.03</speed>
  <fix>3d</fix>
</trkpt>
<trkpt lat="40.0728229" lon="-105.2309406">
  <ele>1595.55</ele>
  <time>2026-08-27T18:29:38Z</time>
  <course>58.56</course>
  <speed>0.01</speed>
  <fix>3d</fix>
</trkpt>
<trkpt lat="40.0728231" lon="-105.2309406">
  <ele>1595.48</ele>
  <time>2026-08-27T18:29:38Z</time>
  <course>16.97</course>
  <speed>0.03</speed>
  <fix>3d</fix>
</trkpt>
<trkpt lat="40.072823" lon="-105.2309406">
  <ele>1595.56</ele>
  <time>2026-08-27T18:29:38Z</time>
  <course>59.79</course>
  <speed>0.01</speed>
  <fix>3d</fix>
</trkpt>
<trkpt lat="40.0728231" lon="-105.2309406">
  <ele>1595.48</ele>
  <time>2026-08-27T18:29:38Z</time>
  <course>13.69</course>
  <speed>0.03</speed>
  <fix>3d</fix>
</trkpt>
<trkpt lat="40.072823" lon="-105.2309406">
  <ele>1595.56</ele>
  <time>2026-08-27T18:29:38Z</time>
  <course>61.24</course>
  <speed>0.01</speed>
  <fix>3d</fix>
</trkpt>
<trkpt lat="40.0728232" lon="-105.2309406">
  <ele>1595.48</ele>
  <time>2026-08-27T18:29:38Z</time>
  <course>11.06</course>
  <speed>0.03</speed>
  <fix>3d</fix>
</trkpt>
<trkpt lat="40.0728231" lon="-105.2309406">
  <ele>1595.56</ele>
  <time>2026-08-27T18:29:38Z</time>
  <course>62.77</course>
  <speed>0.01</speed>
  <fix>3d</fix>
</trkpt>
<trkpt lat="40.0728233" lon="-105.2309406">
  <ele>1595.48</ele>
  <time>2026-08-27T18:29:38Z</time>
  <course>8.94</course>
  <speed>0.03</speed>
  <fix>3d</fix>
</trkpt>
<trkpt lat="40.0728232" lon="-105.2309406">
  <ele>1595.56</ele>
  <time>2026-08-27T18:29:38Z</time>
  <course>64.24</course>
  <speed>0.01</speed>
  <fix>3d</fix>
</trkpt>
<trkpt lat="40.0728234" lon="-105.2309406">
  <ele>1595.48</ele>
  <time>2026-08-27T18:29:38Z</time>
  <course>7.18</course>
  <speed>0.03</speed>
  <fix>3d</fix>
</trkpt>
<trkpt lat="40.0728232" lon="-105.2309406">
  <ele>1595.56</ele>
  <time>2026-08-27T18:29:38Z</time>
  <course>65.51</course>
  <speed>0.0</speed>
  <fix>3d</fix>
</trkpt>
<trkpt lat="40.0728234" lon="-105.2309405">
  <ele>1595.49</ele>
  <time>2026-08-27T18:29:38Z</time>
  <course>6.43</course>
  <speed>0.03</speed>
  <fix>3d</fix>
</trkpt>
<trkpt lat="40.0728233" lon="-105.2309406">
  <ele>1595.56</ele>
  <time>2026-08-27T18:29:39Z</time>
  <course>66.42</course>
  <speed>0.0</speed>
  <fix>3d</fix>
</trkpt>
<trkpt lat="40.0728235" lon="-105.2309404">
  <ele>1595.49</ele>
  <time>2026-08-27T18:29:39Z</time>
  <course>7.74</course>
  <speed>0.02</speed>
  <fix>3d</fix>
</trkpt>
<trkpt lat="40.0728233" lon="-105.2309406">
  <ele>1595.56</ele>
  <time>2026-08-27T18:29:39Z</time>
  <course>66.95</course>
  <speed>0.0</speed>
  <fix>3d</fix>
</trkpt>
<trkpt lat="40.0728235" lon="-105.2309404">
  <ele>1595.49</ele>
  <time>2026-08-27T18:29:39Z</time>
  <course>11.39</course>
  <speed>0.02</speed>
  <fix>3d</fix>
</trkpt>
<trkpt lat="40.0728234" lon="-105.2309405">
  <ele>1595.57</ele>
  <time>2026-08-27T18:29:39Z</time>
  <course>67.0</course>
  <speed>0.0</speed>
  <fix>3d</fix>
</trkpt>
<trkpt lat="40.0728236" lon="-105.2309404">
  <ele>1595.49</ele>
  <time>2026-08-27T18:29:39Z</time>
  <course>17.27</course>
  <speed>0.02</speed>
  <fix>3d</fix>
</trkpt>
<trkpt lat="40.0728234" lon="-105.2309405">
  <ele>1595.57</ele>
  <time>2026-08-27T18:29:39Z</time>
  <course>66.57</course>
  <speed>0.0</speed>
  <fix>3d</fix>
</trkpt>
<trkpt lat="40.0728236" lon="-105.2309404">
  <ele>1595.49</ele>
  <time>2026-08-27T18:29:39Z</time>
  <course>24.12</course>
  <speed>0.02</speed>
  <fix>3d</fix>
</trkpt>
<trkpt lat="40.0728235" lon="-105.2309405">
  <ele>1595.57</ele>
  <time>2026-08-27T18:29:39Z</time>
  <course>65.75</course>
  <speed>0.01</speed>
  <fix>3d</fix>
</trkpt>
<trkpt lat="40.0728237" lon="-105.2309404">
  <ele>1595.49</ele>
  <time>2026-08-27T18:29:39Z</time>
  <course>30.26</course>
  <speed>0.02</speed>
  <fix>3d</fix>
</trkpt>
<trkpt lat="40.0728235" lon="-105.2309404">
  <ele>1595.57</ele>
  <time>2026-08-27T18:29:39Z</time>
  <course>64.58</course>
  <speed>0.01</speed>
  <fix>3d</fix>
</trkpt>
<trkpt lat="40.0728237" lon="-105.2309404">
  <ele>1595.49</ele>
  <time>2026-08-27T18:29:39Z</time>
  <course>35.05</course>
  <speed>0.02</speed>
  <fix>3d</fix>
</trkpt>
<trkpt lat="40.0728235" lon="-105.2309404">
  <ele>1595.57</ele>
  <time>2026-08-27T18:29:39Z</time>
  <course>63.12</course>
  <speed>0.01</speed>
  <fix>3d</fix>
</trkpt>
<trkpt lat="40.0728237" lon="-105.2309404">
  <ele>1595.48</ele>
  <time>2026-08-27T18:29:39Z</time>
  <course>38.11</course>
  <speed>0.02</speed>
  <fix>3d</fix>
</trkpt>
<trkpt lat="40.0728236" lon="-105.2309403">
  <ele>1595.56</ele>
  <time>2026-08-27T18:29:39Z</time>
  <course>61.54</course>
  <speed>0.01</speed>
  <fix>3d</fix>
</trkpt>
<trkpt lat="40.0728237" lon="-105.2309403">
  <ele>1595.48</ele>
  <time>2026-08-27T18:29:39Z</time>
  <course>39.14</course>
  <speed>0.02</speed>
  <fix>3d</fix>
</trkpt>
<trkpt lat="40.0728236" lon="-105.2309403">
  <ele>1595.56</ele>
  <time>2026-08-27T18:29:39Z</time>
  <course>60.05</course>
  <speed>0.01</speed>
  <fix>3d</fix>
</trkpt>
<trkpt lat="40.0728238" lon="-105.2309403">
  <ele>1595.48</ele>
  <time>2026-08-27T18:29:39Z</time>
  <course>37.97</course>
  <speed>0.02</speed>
  <fix>3d</fix>
</trkpt>
<trkpt lat="40.0728237" lon="-105.2309403">
  <ele>1595.56</ele>
  <time>2026-08-27T18:29:39Z</time>
  <course>58.77</course>
  <speed>0.01</speed>
  <fix>3d</fix>
</trkpt>
<trkpt lat="40.0728238" lon="-105.2309402">
  <ele>1595.48</ele>
  <time>2026-08-27T18:29:39Z</time>
  <course>34.98</course>
  <speed>0.03</speed>
  <fix>3d</fix>
</trkpt>
<trkpt lat="40.0728237" lon="-105.2309402">
  <ele>1595.56</ele>
  <time>2026-08-27T18:29:39Z</time>
  <course>57.88</course>
  <speed>0.01</speed>
  <fix>3d</fix>
</trkpt>
<trkpt lat="40.0728239" lon="-105.2309401">
  <ele>1595.48</ele>
  <time>2026-08-27T18:29:39Z</time>
  <course>30.41</course>
  <speed>0.03</speed>
  <fix>3d</fix>
</trkpt>
<trkpt lat="40.0728238" lon="-105.2309402">
  <ele>1595.56</ele>
  <time>2026-08-27T18:29:39Z</time>
  <course>57.35</course>
  <speed>0.0</speed>
  <fix>3d</fix>
</trkpt>
<trkpt lat="40.072824" lon="-105.2309401">
  <ele>1595.48</ele>
  <time>2026-08-27T18:29:39Z</time>
  <course>25.32</course>
  <speed>0.03</speed>
  <fix>3d</fix>
</trkpt>
<trkpt lat="40.0728238" lon="-105.2309402">
  <ele>1595.56</ele>
  <time>2026-08-27T18:29:39Z</time>
  <course>57.29</course>
  <speed>0.0</speed>
  <fix>3d</fix>
</trkpt>
<trkpt lat="40.072824" lon="-105.2309401">
  <ele>1595.48</ele>
  <time>2026-08-27T18:29:39Z</time>
  <course>20.1</course>
  <speed>0.03</speed>
  <fix>3d</fix>
</trkpt>
<trkpt lat="40.0728239" lon="-105.2309401">
  <ele>1595.56</ele>
  <time>2026-08-27T18:29:39Z</time>
  <course>57.71</course>
  <speed>0.01</speed>
  <fix>3d</fix>
</trkpt>
<trkpt lat="40.0728241" lon="-105.2309401">
  <ele>1595.48</ele>
  <time>2026-08-27T18:29:39Z</time>
  <course>14.68</course>
  <speed>0.03</speed>
  <fix>3d</fix>
</trkpt>
<trkpt lat="40.0728239" lon="-105.2309401">
  <ele>1595.55</ele>
  <time>2026-08-27T18:29:39Z</time>
  <course>58.57</course>
  <speed>0.01</speed>
  <fix>3d</fix>
</trkpt>
<trkpt lat="40.0728241" lon="-105.2309401">
  <ele>1595.48</ele>
  <time>2026-08-27T18:29:39Z</time>
  <course>10.57</course>
  <speed>0.03</speed>
  <fix>3d</fix>
</trkpt>
<trkpt lat="40.072824" lon="-105.2309401">
  <ele>1595.55</ele>
  <time>2026-08-27T18:29:39Z</time>
  <course>59.8</course>
  <speed>0.01</speed>
  <fix>3d</fix>
</trkpt>
<trkpt lat="40.0728242" lon="-105.2309401">
  <ele>1595.48</ele>
  <time>2026-08-27T18:29:39Z</time>
  <course>8.38</course>
  <speed>0.03</speed>
  <fix>3d</fix>
</trkpt>
<trkpt lat="40.0728241" lon="-105.2309401">
  <ele>1595.55</ele>
  <time>2026-08-27T18:29:39Z</time>
  <course>61.22</course>
  <speed>0.01</speed>
  <fix>3d</fix>
</trkpt>
<trkpt lat="40.0728242" lon="-105.2309401">
  <ele>1595.48</ele>
  <time>2026-08-27T18:29:39Z</time>
  <course>7.77</course>
  <speed>0.03</speed>
  <fix>3d</fix>
</trkpt>
<trkpt lat="40.0728241" lon="-105.2309401">
  <ele>1595.55</ele>
  <time>2026-08-27T18:29:39Z</time>
  <course>62.75</course>
  <speed>0.01</speed>
  <fix>3d</fix>
</trkpt>
<trkpt lat="40.0728243" lon="-105.2309401">
  <ele>1595.48</ele>
  <time>2026-08-27T18:29:39Z</time>
  <course>7.54</course>
  <speed>0.03</speed>
  <fix>3d</fix>
</trkpt>
<trkpt lat="40.0728242" lon="-105.2309401">
  <ele>1595.55</ele>
  <time>2026-08-27T18:29:39Z</time>
  <course>64.2</course>
  <speed>0.0</speed>
  <fix>3d</fix>
</trkpt>
<trkpt lat="40.0728243" lon="-105.2309401">
  <ele>1595.48</ele>
  <time>2026-08-27T18:29:39Z</time>
  <course>7.82</course>
  <speed>0.03</speed>
  <fix>3d</fix>
</trkpt>
<trkpt lat="40.0728242" lon="-105.2309401">
  <ele>1595.55</ele>
  <time>2026-08-27T18:29:39Z</time>
  <course>65.48</course>
  <speed>0.0</speed>
  <fix>3d</fix>
</trkpt>
<trkpt lat="40.0728244" lon="-105.2309401">
  <ele>1595.49</ele>
  <time>2026-08-27T18:29:39Z</time>
  <course>9.48</course>
  <speed>0.02</speed>
  <fix>3d</fix>
</trkpt>
<trkpt lat="40.0728243" lon="-105.2309401">
  <ele>1595.55</ele>
  <time>2026-08-27T18:29:39Z</time>
  <course>66.42</course>
  <speed>0.0</speed>
  <fix>3d</fix>
</trkpt>
<trkpt lat="40.0728244" lon="-105.23094">
  <ele>1595.49</ele>
  <time>2026-08-27T18:29:39Z</time>
  <course>12.12</course>
  <speed>0.02</speed>
  <fix>3d</fix>
</trkpt>
<trkpt lat="40.0728243" lon="-105.2309401">
  <ele>1595.55</ele>
  <time>2026-08-27T18:29:39Z</time>
  <course>66.95</course>
  <speed>0.0</speed>
  <fix>3d</fix>
</trkpt>
<trkpt lat="40.0728245" lon="-105.2309399">
  <ele>1595.49</ele>
  <time>2026-08-27T18:29:39Z</time>
  <course>16.44</course>
  <speed>0.02</speed>
  <fix>3d</fix>
</trkpt>
<trkpt lat="40.0728244" lon="-105.23094">
  <ele>1595.55</ele>
  <time>2026-08-27T18:29:39Z</time>
  <course>66.99</course>
  <speed>0.0</speed>
  <fix>3d</fix>
</trkpt>
<trkpt lat="40.0728245" lon="-105.2309399">
  <ele>1595.49</ele>
  <time>2026-08-27T18:29:39Z</time>
  <course>22.9</course>
  <speed>0.02</speed>
  <fix>3d</fix>
</trkpt>
<trkpt lat="40.0728244" lon="-105.23094">
  <ele>1595.55</ele>
  <time>2026-08-27T18:29:39Z</time>
  <course>66.55</course>
  <speed>0.01</speed>
  <fix>3d</fix>
</trkpt>
<trkpt lat="40.0728245" lon="-105.2309399">
  <ele>1595.49</ele>
  <time>2026-08-27T18:29:39Z</time>
  <course>29.07</course>
  <speed>0.02</speed>
  <fix>3d</fix>
</trkpt>
<trkpt lat="40.0728244" lon="-105.23094">
  <ele>1595.55</ele>
  <time>2026-08-27T18:29:39Z</time>
  <course>65.69</course>
  <speed>0.01</speed>
  <fix>3d</fix>
</trkpt>
<trkpt lat="40.0728246" lon="-105.2309399">
  <ele>1595.49</ele>
  <time>2026-08-27T18:29:39Z</time>
  <course>33.76</course>
  <speed>0.02</speed>
  <fix>3d</fix>
</trkpt>
<trkpt lat="40.0728245" lon="-105.2309399">
  <ele>1595.55</ele>
  <time>2026-08-27T18:29:39Z</time>
  <course>64.47</course>
  <speed>0.01</speed>
  <fix>3d</fix>
</trkpt>
<trkpt lat="40.0728247" lon="-105.2309399">
  <ele>1595.5</ele>
  <time>2026-08-27T18:29:39Z</time>
  <course>37.48</course>
  <speed>0.02</speed>
  <fix>3d</fix>
</trkpt>
<trkpt lat="40.0728245" lon="-105.2309399">
  <ele>1595.55</ele>
  <time>2026-08-27T18:29:39Z</time>
  <course>63.02</course>
  <speed>0.01</speed>
  <fix>3d</fix>
</trkpt>
<trkpt lat="40.0728247" lon="-105.2309399">
  <ele>1595.5</ele>
  <time>2026-08-27T18:29:39Z</time>
  <course>39.68</course>
  <speed>0.02</speed>
  <fix>3d</fix>
</trkpt>
<trkpt lat="40.0728245" lon="-105.2309398">
  <ele>1595.55</ele>
  <time>2026-08-27T18:29:39Z</time>
  <course>61.5</course>
  <speed>0.01</speed>
  <fix>3d</fix>
</trkpt>
<trkpt lat="40.0728248" lon="-105.2309398">
  <ele>1595.5</ele>
  <time>2026-08-27T18:29:39Z</time>
  <course>40.08</course>
  <speed>0.02</speed>
  <fix>3d</fix>
</trkpt>
<trkpt lat="40.0728246" lon="-105.2309398">
  <ele>1595.56</ele>
  <time>2026-08-27T18:29:39Z</time>
  <course>60.03</course>
  <speed>0.01</speed>
  <fix>3d</fix>
</trkpt>
<trkpt lat="40.0728248" lon="-105.2309398">
  <ele>1595.51</ele>
  <time>2026-08-27T18:29:39Z</time>
  <course>38.66</course>
  <speed>0.03</speed>
  <fix>3d</fix>
</trkpt>
<trkpt lat="40.0728246" lon="-105.2309398">
  <ele>1595.56</ele>
  <time>2026-08-27T18:29:39Z</time>
  <course>58.78</course>
  <speed>0.01</speed>
  <fix>3d</fix>
</trkpt>
<trkpt lat="40.0728248" lon="-105.2309397">
  <ele>1595.51</ele>
  <time>2026-08-27T18:29:39Z</time>
  <course>35.8</course>
  <speed>0.03</speed>
  <fix>3d</fix>
</trkpt>
<trkpt lat="40.0728247" lon="-105.2309397">
  <ele>1595.57</ele>
  <time>2026-08-27T18:29:39Z</time>
  <course>57.86</course>
  <speed>0.01</speed>
  <fix>3d</fix>
</trkpt>
<trkpt lat="40.0728249" lon="-105.2309396">
  <ele>1595.51</ele>
  <time>2026-08-27T18:29:39Z</time>
  <course>31.72</course>
  <speed>0.03</speed>
  <fix>3d</fix>
</trkpt>
<trkpt lat="40.0728247" lon="-105.2309397">
  <ele>1595.57</ele>
  <time>2026-08-27T18:29:39Z</time>
  <course>57.36</course>
  <speed>0.0</speed>
  <fix>3d</fix>
</trkpt>
<trkpt lat="40.0728249" lon="-105.2309396">
  <ele>1595.51</ele>
  <time>2026-08-27T18:29:39Z</time>
  <course>26.53</course>
  <speed>0.03</speed>
  <fix>3d</fix>
</trkpt>
<trkpt lat="40.0728248" lon="-105.2309396">
  <ele>1595.58</ele>
  <time>2026-08-27T18:29:39Z</time>
  <course>57.26</course>
  <speed>0.01</speed>
  <fix>3d</fix>
</trkpt>
<trkpt lat="40.072825" lon="-105.2309396">
  <ele>1595.51</ele>
  <time>2026-08-27T18:29:39Z</time>
  <course>21.9</course>
  <speed>0.03</speed>
  <fix>3d</fix>
</trkpt>
<trkpt lat="40.0728249" lon="-105.2309396">
  <ele>1595.57</ele>
  <time>2026-08-27T18:29:39Z</time>
  <course>57.2</course>
  <speed>0.01414213562373095</speed>
  <fix>3d</fix>
</trkpt>
<trkpt lat="40.072825" lon="-105.2309396">
  <ele>1595.51</ele>
  <time>2026-08-27T18:29:39Z</time>
  <course>20.85</course>
  <speed>0.03</speed>
  <fix>3d</fix>
</trkpt>
<trkpt lat="40.0728249" lon="-105.2309396">
  <ele>1595.57</ele>
  <time>2026-08-27T18:29:39Z</time>
  <course>57.14</course>
  <speed>0.01414213562373095</speed>
  <fix>3d</fix>
</trkpt>
<trkpt lat="40.0728251" lon="-105.2309396">
  <ele>1595.51</ele>
  <time>2026-08-27T18:29:39Z</time>
  <course>22.6</course>
  <speed>0.03</speed>
  <fix>3d</fix>
</trkpt>
<trkpt lat="40.072825" lon="-105.2309396">
  <ele>1595.57</ele>
  <time>2026-08-27T18:29:39Z</time>
  <course>57.09</course>
  <speed>0.01414213562373095</speed>
  <fix>3d</fix>
</trkpt>
<trkpt lat="40.0728251" lon="-105.2309395">
  <ele>1595.51</ele>
  <time>2026-08-27T18:29:39Z</time>
  <course>24.39</course>
  <speed>0.03</speed>
  <fix>3d</fix>
</trkpt>
<trkpt lat="40.072825" lon="-105.2309395">
  <ele>1595.57</ele>
  <time>2026-08-27T18:29:39Z</time>
  <course>57.09</course>
  <speed>0.01414213562373095</speed>
  <fix>3d</fix>
</trkpt>
<trkpt lat="40.0728252" lon="-105.2309394">
  <ele>1595.51</ele>
  <time>2026-08-27T18:29:39Z</time>
  <course>25.74</course>
  <speed>0.03</speed>
  <fix>3d</fix>
</trkpt>
<trkpt lat="40.0728251" lon="-105.2309395">
  <ele>1595.57</ele>
  <time>2026-08-27T18:29:39Z</time>
  <course>57.09</course>
  <speed>0.01414213562373095</speed>
  <fix>3d</fix>
</trkpt>
<trkpt lat="40.0728253" lon="-105.2309394">
  <ele>1595.5</ele>
  <time>2026-08-27T18:29:39Z</time>
  <course>27.13</course>
  <speed>0.04</speed>
  <fix>3d</fix>
</trkpt>
<trkpt lat="40.0728252" lon="-105.2309394">
  <ele>1595.57</ele>
  <time>2026-08-27T18:29:39Z</time>
  <course>57.09</course>
  <speed>0.01414213562373095</speed>
  <fix>3d</fix>
</trkpt>
<trkpt lat="40.0728254" lon="-105.2309394">
  <ele>1595.5</ele>
  <time>2026-08-27T18:29:39Z</time>
  <course>28.58</course>
  <speed>0.04</speed>
  <fix>3d</fix>
</trkpt>
<trkpt lat="40.0728252" lon="-105.2309394">
  <ele>1595.58</ele>
  <time>2026-08-27T18:29:39Z</time>
  <course>57.09</course>
  <speed>0.01414213562373095</speed>
  <fix>3d</fix>
</trkpt>
<trkpt lat="40.0728254" lon="-105.2309393">
  <ele>1595.5</ele>
  <time>2026-08-27T18:29:39Z</time>
  <course>29.77</course>
  <speed>0.04</speed>
  <fix>3d</fix>
</trkpt>
<trkpt lat="40.0728253" lon="-105.2309393">
  <ele>1595.58</ele>
  <time>2026-08-27T18:29:39Z</time>
  <course>57.11</course>
  <speed>0.022360679774997897</speed>
  <fix>3d</fix>
</trkpt>
<trkpt lat="40.0728255" lon="-105.2309392">
  <ele>1595.5</ele>
  <time>2026-08-27T18:29:39Z</time>
  <course>30.81</course>
  <speed>0.04</speed>
  <fix>3d</fix>
</trkpt>
<trkpt lat="40.0728254" lon="-105.2309392">
  <ele>1595.58</ele>
  <time>2026-08-27T18:29:39Z</time>
  <course>57.14</course>
  <speed>0.022360679774997897</speed>
  <fix>3d</fix>
</trkpt>
<trkpt lat="40.0728256" lon="-105.2309392">
  <ele>1595.5</ele>
  <time>2026-08-27T18:29:39Z</time>
  <course>31.42</course>
  <speed>0.04</speed>
  <fix>3d</fix>
</trkpt>
<trkpt lat="40.0728255" lon="-105.2309392">
  <ele>1595.58</ele>
  <time>2026-08-27T18:29:39Z</time>
  <course>57.14</course>
  <speed>0.0282842712474619</speed>
  <fix>3d</fix>
</trkpt>
<trkpt lat="40.0728256" lon="-105.2309392">
  <ele>1595.49</ele>
  <time>2026-08-27T18:29:39Z</time>
  <course>32.08</course>
  <speed>0.04</speed>
  <fix>3d</fix>
</trkpt>
<trkpt lat="40.0728255" lon="-105.2309391">
  <ele>1595.57</ele>
  <time>2026-08-27T18:29:39Z</time>
  <course>57.13</course>
  <speed>0.0282842712474619</speed>
  <fix>3d</fix>
</trkpt>
<trkpt lat="40.0728257" lon="-105.2309391">
  <ele>1595.49</ele>
  <time>2026-08-27T18:29:39Z</time>
  <course>33.13</course>
  <speed>0.04</speed>
  <fix>3d</fix>
</trkpt>
<trkpt lat="40.0728256" lon="-105.230939">
  <ele>1595.56</ele>
  <time>2026-08-27T18:29:39Z</time>
  <course>57.11</course>
  <speed>0.0282842712474619</speed>
  <fix>3d</fix>
</trkpt>
<trkpt lat="40.0728258" lon="-105.230939">
  <ele>1595.48</ele>
  <time>2026-08-27T18:29:39Z</time>
  <course>34.12</course>
  <speed>0.05</speed>
  <fix>3d</fix>
</trkpt>
<trkpt lat="40.0728257" lon="-105.230939">
  <ele>1595.55</ele>
  <time>2026-08-27T18:29:39Z</time>
  <course>57.1</course>
  <speed>0.0282842712474619</speed>
  <fix>3d</fix>
</trkpt>
<trkpt lat="40.0728259" lon="-105.2309389">
  <ele>1595.48</ele>
  <time>2026-08-27T18:29:39Z</time>
  <course>35.1</course>
  <speed>0.05</speed>
  <fix>3d</fix>
</trkpt>
<trkpt lat="40.0728258" lon="-105.2309389">
  <ele>1595.55</ele>
  <time>2026-08-27T18:29:39Z</time>
  <course>57.1</course>
  <speed>0.03605551275463989</speed>
  <fix>3d</fix>
</trkpt>
<trkpt lat="40.0728259" lon="-105.2309389">
  <ele>1595.48</ele>
  <time>2026-08-27T18:29:39Z</time>
  <course>36.11</course>
  <speed>0.05</speed>
  <fix>3d</fix>
</trkpt>
<trkpt lat="40.0728259" lon="-105.2309388">
  <ele>1595.55</ele>
  <time>2026-08-27T18:29:39Z</time>
  <course>57.09</course>
  <speed>0.03605551275463989</speed>
  <fix>3d</fix>
</trkpt>
<trkpt lat="40.072826" lon="-105.2309388">
  <ele>1595.48</ele>
  <time>2026-08-27T18:29:39Z</time>
  <course>36.99</course>
  <speed>0.05</speed>
  <fix>3d</fix>
</trkpt>
<trkpt lat="40.0728259" lon="-105.2309387">
  <ele>1595.55</ele>
  <time>2026-08-27T18:29:39Z</time>
  <course>57.09</course>
  <speed>0.03605551275463989</speed>
  <fix>3d</fix>
</trkpt>
<trkpt lat="40.0728261" lon="-105.2309387">
  <ele>1595.48</ele>
  <time>2026-08-27T18:29:39Z</time>
  <course>37.36</course>
  <speed>0.05</speed>
  <fix>3d</fix>
</trkpt>
<trkpt lat="40.072826" lon="-105.2309386">
  <ele>1595.56</ele>
  <time>2026-08-27T18:29:39Z</time>
  <course>56.72</course>
  <speed>0.03605551275463989</speed>
  <fix>3d</fix>
</trkpt>
<trkpt lat="40.0728262" lon="-105.2309386">
  <ele>1595.48</ele>
  <time>2026-08-27T18:29:39Z</time>
  <course>38.72</course>
  <speed>0.05</speed>
  <fix>3d</fix>
</trkpt>
<trkpt lat="40.0728261" lon="-105.2309385">
  <ele>1595.56</ele>
  <time>2026-08-27T18:29:39Z</time>
  <course>55.57</course>
  <speed>0.03605551275463989</speed>
  <fix>3d</fix>
</trkpt>
<trkpt lat="40.0728262" lon="-105.2309386">
  <ele>1595.48</ele>
  <time>2026-08-27T18:29:39Z</time>
  <course>41.17</course>
  <speed>0.05</speed>
  <fix>3d</fix>
</trkpt>
<trkpt lat="40.0728262" lon="-105.2309385">
  <ele>1595.55</ele>
  <time>2026-08-27T18:29:39Z</time>
  <course>54.24</course>
  <speed>0.03605551275463989</speed>
  <fix>3d</fix>
</trkpt>
<trkpt lat="40.0728263" lon="-105.2309385">
  <ele>1595.48</ele>
  <time>2026-08-27T18:29:39Z</time>
  <course>41.71</course>
  <speed>0.05</speed>
  <fix>3d</fix>
</trkpt>
<trkpt lat="40.0728263" lon="-105.2309384">
  <ele>1595.55</ele>
  <time>2026-08-27T18:29:39Z</time>
  <course>53.15</course>
  <speed>0.0282842712474619</speed>
  <fix>3d</fix>
</trkpt>
<trkpt lat="40.0728264" lon="-105.2309384">
  <ele>1595.49</ele>
  <time>2026-08-27T18:29:39Z</time>
  <course>39.59</course>
  <speed>0.05</speed>
  <fix>3d</fix>
</trkpt>
<trkpt lat="40.0728263" lon="-105.2309383">
  <ele>1595.56</ele>
  <time>2026-08-27T18:29:39Z</time>
  <course>52.44</course>
  <speed>0.022360679774997897</speed>
  <fix>3d</fix>
</trkpt>
<trkpt lat="40.0728265" lon="-105.2309383">
  <ele>1595.49</ele>
  <time>2026-08-27T18:29:39Z</time>
  <course>36.1</course>
  <speed>0.05</speed>
  <fix>3d</fix>
</trkpt>
<trkpt lat="40.0728264" lon="-105.2309383">
  <ele>1595.56</ele>
  <time>2026-08-27T18:29:39Z</time>
  <course>52.21</course>
  <speed>0.01414213562373095</speed>
  <fix>3d</fix>
</trkpt>
<trkpt lat="40.0728266" lon="-105.2309382">
  <ele>1595.49</ele>
  <time>2026-08-27T18:29:39Z</time>
  <course>31.91</course>
  <speed>0.04</speed>
  <fix>3d</fix>
</trkpt>
<trkpt lat="40.0728265" lon="-105.2309382">
  <ele>1595.56</ele>
  <time>2026-08-27T18:29:39Z</time>
  <course>52.44</course>
  <speed>0.01414213562373095</speed>
  <fix>3d</fix>
</trkpt>
<trkpt lat="40.0728266" lon="-105.2309382">
  <ele>1595.49</ele>
  <time>2026-08-27T18:29:39Z</time>
  <course>27.1</course>
  <speed>0.04</speed>
  <fix>3d</fix>
</trkpt>
<trkpt lat="40.0728265" lon="-105.2309382">
  <ele>1595.56</ele>
  <time>2026-08-27T18:29:39Z</time>
  <course>53.12</course>
  <speed>0.01</speed>
  <fix>3d</fix>
</trkpt>
<trkpt lat="40.0728267" lon="-105.2309382">
  <ele>1595.49</ele>
  <time>2026-08-27T18:29:39Z</time>
  <course>21.92</course>
  <speed>0.04</speed>
  <fix>3d</fix>
</trkpt>
<trkpt lat="40.0728266" lon="-105.2309382">
  <ele>1595.56</ele>
  <time>2026-08-27T18:29:39Z</time>
  <course>54.22</course>
  <speed>0.01</speed>
  <fix>3d</fix>
</trkpt>
<trkpt lat="40.0728268" lon="-105.2309381">
  <ele>1595.49</ele>
  <time>2026-08-27T18:29:39Z</time>
  <course>16.74</course>
  <speed>0.03</speed>
  <fix>3d</fix>
</trkpt>
<trkpt lat="40.0728267" lon="-105.2309381">
  <ele>1595.57</ele>
  <time>2026-08-27T18:29:39Z</time>
  <course>55.6</course>
  <speed>0.01</speed>
  <fix>3d</fix>
</trkpt>
<trkpt lat="40.0728268" lon="-105.230938">
  <ele>1595.49</ele>
  <time>2026-08-27T18:29:39Z</time>
  <course>11.73</course>
  <speed>0.03</speed>
  <fix>3d</fix>
</trkpt>
<trkpt lat="40.0728267" lon="-105.2309381">
  <ele>1595.57</ele>
  <time>2026-08-27T18:29:39Z</time>
  <course>57.1</course>
  <speed>0.01</speed>
  <fix>3d</fix>
</trkpt>
<trkpt lat="40.0728269" lon="-105.230938">
  <ele>1595.49</ele>
  <time>2026-08-27T18:29:39Z</time>
  <course>7.65</course>
  <speed>0.03</speed>
  <fix>3d</fix>
</trkpt>
<trkpt lat="40.0728268" lon="-105.2309381">
  <ele>1595.57</ele>
  <time>2026-08-27T18:29:39Z</time>
  <course>58.63</course>
  <speed>0.0</speed>
  <fix>3d</fix>
</trkpt>
<trkpt lat="40.0728269" lon="-105.230938">
  <ele>1595.49</ele>
  <time>2026-08-27T18:29:39Z</time>
  <course>4.36</course>
  <speed>0.03</speed>
  <fix>3d</fix>
</trkpt>
<trkpt lat="40.0728268" lon="-105.2309381">
  <ele>1595.57</ele>
  <time>2026-08-27T18:29:39Z</time>
  <course>59.98</course>
  <speed>0.0</speed>
  <fix>3d</fix>
</trkpt>
<trkpt lat="40.072827" lon="-105.230938">
  <ele>1595.49</ele>
  <time>2026-08-27T18:29:39Z</time>
  <course>2.39</course>
  <speed>0.03</speed>
  <fix>3d</fix>
</trkpt>
<trkpt lat="40.0728269" lon="-105.2309381">
  <ele>1595.57</ele>
  <time>2026-08-27T18:29:39Z</time>
  <course>61.06</course>
  <speed>0.0</speed>
  <fix>3d</fix>
</trkpt>
<trkpt lat="40.0728271" lon="-105.230938">
  <ele>1595.49</ele>
  <time>2026-08-27T18:29:39Z</time>
  <course>2.14</course>
  <speed>0.02</speed>
  <fix>3d</fix>
</trkpt>
<trkpt lat="40.0728269" lon="-105.2309381">
  <ele>1595.57</ele>
  <time>2026-08-27T18:29:39Z</time>
  <course>61.77</course>
  <speed>0.0</speed>
  <fix>3d</fix>
</trkpt>
<trkpt lat="40.0728271" lon="-105.230938">
  <ele>1595.48</ele>
  <time>2026-08-27T18:29:39Z</time>
  <course>3.69</course>
  <speed>0.02</speed>
  <fix>3d</fix>
</trkpt>
<trkpt lat="40.072827" lon="-105.2309381">
  <ele>1595.57</ele>
  <time>2026-08-27T18:29:39Z</time>
  <course>62.02</course>
  <speed>0.0</speed>
  <fix>3d</fix>
</trkpt>
<trkpt lat="40.0728272" lon="-105.230938">
  <ele>1595.48</ele>
  <time>2026-08-27T18:29:39Z</time>
  <course>7.44</course>
  <speed>0.02</speed>
  <fix>3d</fix>
</trkpt>
<trkpt lat="40.072827" lon="-105.230938">
  <ele>1595.57</ele>
  <time>2026-08-27T18:29:39Z</time>
  <course>61.8</course>
  <speed>0.0</speed>
  <fix>3d</fix>
</trkpt>
<trkpt lat="40.0728272" lon="-105.230938">
  <ele>1595.48</ele>
  <time>2026-08-27T18:29:39Z</time>
  <course>13.18</course>
  <speed>0.02</speed>
  <fix>3d</fix>
</trkpt>
<trkpt lat="40.0728271" lon="-105.230938">
  <ele>1595.57</ele>
  <time>2026-08-27T18:29:39Z</time>
  <course>61.12</course>
  <speed>0.01</speed>
  <fix>3d</fix>
</trkpt>
<trkpt lat="40.0728273" lon="-105.230938">
  <ele>1595.48</ele>
  <time>2026-08-27T18:29:39Z</time>
  <course>20.92</course>
  <speed>0.02</speed>
  <fix>3d</fix>
</trkpt>
<trkpt lat="40.0728271" lon="-105.230938">
  <ele>1595.56</ele>
  <time>2026-08-27T18:29:39Z</time>
  <course>60.03</course>
  <speed>0.01</speed>
  <fix>3d</fix>
</trkpt>
<trkpt lat="40.0728273" lon="-105.230938">
  <ele>1595.48</ele>
  <time>2026-08-27T18:29:39Z</time>
  <course>28.0</course>
  <speed>0.02</speed>
  <fix>3d</fix>
</trkpt>
<trkpt lat="40.0728271" lon="-105.230938">
  <ele>1595.56</ele>
  <time>2026-08-27T18:29:39Z</time>
  <course>58.67</course>
  <speed>0.01</speed>
  <fix>3d</fix>
</trkpt>
<trkpt lat="40.0728273" lon="-105.230938">
  <ele>1595.48</ele>
  <time>2026-08-27T18:29:39Z</time>
  <course>31.81</course>
  <speed>0.02</speed>
  <fix>3d</fix>
</trkpt>
<trkpt lat="40.0728272" lon="-105.2309379">
  <ele>1595.56</ele>
  <time>2026-08-27T18:29:39Z</time>
  <course>57.16</course>
  <speed>0.01</speed>
  <fix>3d</fix>
</trkpt>
<trkpt lat="40.0728274" lon="-105.230938">
  <ele>1595.47</ele>
  <time>2026-08-27T18:29:39Z</time>
  <course>33.73</course>
  <speed>0.02</speed>
  <fix>3d</fix>
</trkpt>
<trkpt lat="40.0728272" lon="-105.2309379">
  <ele>1595.56</ele>
  <time>2026-08-27T18:29:39Z</time>
  <course>55.62</course>
  <speed>0.01</speed>
  <fix>3d</fix>
</trkpt>
<trkpt lat="40.0728274" lon="-105.2309379">
  <ele>1595.47</ele>
  <time>2026-08-27T18:29:39Z</time>
  <course>34.0</course>
  <speed>0.02</speed>
  <fix>3d</fix>
</trkpt>
<trkpt lat="40.0728273" lon="-105.2309379">
  <ele>1595.55</ele>
  <time>2026-08-27T18:29:39Z</time>
  <course>54.24</course>
  <speed>0.01</speed>
  <fix>3d</fix>
</trkpt>
<trkpt lat="40.0728274" lon="-105.2309379">
  <ele>1595.47</ele>
  <time>2026-08-27T18:29:39Z</time>
  <course>32.13</course>
  <speed>0.02</speed>
  <fix>3d</fix>
</trkpt>
<trkpt lat="40.0728273" lon="-105.2309379">
  <ele>1595.55</ele>
  <time>2026-08-27T18:29:39Z</time>
  <course>53.15</course>
  <speed>0.01</speed>
  <fix>3d</fix>
</trkpt>
<trkpt lat="40.0728275" lon="-105.2309379">
  <ele>1595.47</ele>
  <time>2026-08-27T18:29:39Z</time>
  <course>29.19</course>
  <speed>0.03</speed>
  <fix>3d</fix>
</trkpt>
<trkpt lat="40.0728274" lon="-105.2309378">
  <ele>1595.55</ele>
  <time>2026-08-27T18:29:39Z</time>
  <course>52.43</course>
  <speed>0.01</speed>
  <fix>3d</fix>
</trkpt>
<trkpt lat="40.0728275" lon="-105.2309378">
  <ele>1595.47</ele>
  <time>2026-08-27T18:29:39Z</time>
  <course>26.04</course>
  <speed>0.03</speed>
  <fix>3d</fix>
</trkpt>
<trkpt lat="40.0728274" lon="-105.2309378">
  <ele>1595.56</ele>
  <time>2026-08-27T18:29:39Z</time>
  <course>52.21</course>
  <speed>0.01</speed>
  <fix>3d</fix>
</trkpt>
<trkpt lat="40.0728276" lon="-105.2309377">
  <ele>1595.47</ele>
  <time>2026-08-27T18:29:39Z</time>
  <course>22.18</course>
  <speed>0.03</speed>
  <fix>3d</fix>
</trkpt>
<trkpt lat="40.0728275" lon="-105.2309378">
  <ele>1595.56</ele>
  <time>2026-08-27T18:29:39Z</time>
  <course>52.43</course>
  <speed>0.01</speed>
  <fix>3d</fix>
</trkpt>
<trkpt lat="40.0728277" lon="-105.2309377">
  <ele>1595.48</ele>
  <time>2026-08-27T18:29:39Z</time>
  <course>18.09</course>
  <speed>0.03</speed>
  <fix>3d</fix>
</trkpt>
<trkpt lat="40.0728275" lon="-105.2309377">
  <ele>1595.56</ele>
  <time>2026-08-27T18:29:39Z</time>
  <course>53.13</course>
  <speed>0.01</speed>
  <fix>3d</fix>
</trkpt>
<trkpt lat="40.0728277" lon="-105.2309377">
  <ele>1595.48</ele>
  <time>2026-08-27T18:29:39Z</time>
  <course>14.66</course>
  <speed>0.03</speed>
  <fix>3d</fix>
</trkpt>
<trkpt lat="40.0728276" lon="-105.2309377">
  <ele>1595.56</ele>
  <time>2026-08-27T18:29:39Z</time>
  <course>54.22</course>
  <speed>0.01</speed>
  <fix>3d</fix>
</trkpt>
<trkpt lat="40.0728278" lon="-105.2309377">
  <ele>1595.48</ele>
  <time>2026-08-27T18:29:39Z</time>
  <course>11.77</course>
  <speed>0.03</speed>
  <fix>3d</fix>
</trkpt>
<trkpt lat="40.0728277" lon="-105.2309377">
  <ele>1595.56</ele>
  <time>2026-08-27T18:29:39Z</time>
  <course>55.6</course>
  <speed>0.01</speed>
  <fix>3d</fix>
</trkpt>
<trkpt lat="40.0728279" lon="-105.2309377">
  <ele>1595.48</ele>
  <time>2026-08-27T18:29:39Z</time>
  <course>9.25</course>
  <speed>0.03</speed>
  <fix>3d</fix>
</trkpt>
<trkpt lat="40.0728277" lon="-105.2309377">
  <ele>1595.56</ele>
  <time>2026-08-27T18:29:39Z</time>
  <course>57.11</course>
  <speed>0.01</speed>
  <fix>3d</fix>
</trkpt>
<trkpt lat="40.0728279" lon="-105.2309377">
  <ele>1595.48</ele>
  <time>2026-08-27T18:29:39Z</time>
  <course>6.86</course>
  <speed>0.03</speed>
  <fix>3d</fix>
</trkpt>
<trkpt lat="40.0728278" lon="-105.2309377">
  <ele>1595.56</ele>
  <time>2026-08-27T18:29:39Z</time>
  <course>58.59</course>
  <speed>0.01</speed>
  <fix>3d</fix>
</trkpt>
<trkpt lat="40.072828" lon="-105.2309377">
  <ele>1595.48</ele>
  <time>2026-08-27T18:29:39Z</time>
  <course>4.79</course>
  <speed>0.03</speed>
  <fix>3d</fix>
</trkpt>
<trkpt lat="40.0728279" lon="-105.2309377">
  <ele>1595.56</ele>
  <time>2026-08-27T18:29:39Z</time>
  <course>59.96</course>
  <speed>0.01</speed>
  <fix>3d</fix>
</trkpt>
<trkpt lat="40.072828" lon="-105.2309377">
  <ele>1595.48</ele>
  <time>2026-08-27T18:29:39Z</time>
  <course>3.12</course>
  <speed>0.03</speed>
  <fix>3d</fix>
</trkpt>
<trkpt lat="40.0728279" lon="-105.2309377">
  <ele>1595.56</ele>
  <time>2026-08-27T18:29:39Z</time>
  <course>61.07</course>
  <speed>0.0</speed>
  <fix>3d</fix>
</trkpt>
<trkpt lat="40.0728281" lon="-105.2309377">
  <ele>1595.48</ele>
  <time>2026-08-27T18:29:39Z</time>
  <course>3.36</course>
  <speed>0.03</speed>
  <fix>3d</fix>
</trkpt>
<trkpt lat="40.072828" lon="-105.2309377">
  <ele>1595.56</ele>
  <time>2026-08-27T18:29:39Z</time>
  <course>61.76</course>
  <speed>0.0</speed>
  <fix>3d</fix>
</trkpt>
<trkpt lat="40.0728281" lon="-105.2309377">
  <ele>1595.48</ele>
  <time>2026-08-27T18:29:39Z</time>
  <course>6.2</course>
  <speed>0.02</speed>
  <fix>3d</fix>
</trkpt>
<trkpt lat="40.072828" lon="-105.2309377">
  <ele>1595.56</ele>
  <time>2026-08-27T18:29:39Z</time>
  <course>62.0</course>
  <speed>0.0</speed>
  <fix>3d</fix>
</trkpt>
<trkpt lat="40.0728282" lon="-105.2309377">
  <ele>1595.48</ele>
  <time>2026-08-27T18:29:39Z</time>
  <course>11.01</course>
  <speed>0.02</speed>
  <fix>3d</fix>
</trkpt>
<trkpt lat="40.0728281" lon="-105.2309377">
  <ele>1595.56</ele>
  <time>2026-08-27T18:29:39Z</time>
  <course>61.77</course>
  <speed>0.0</speed>
  <fix>3d</fix>
</trkpt>
<trkpt lat="40.0728283" lon="-105.2309377">
  <ele>1595.48</ele>
  <time>2026-08-27T18:29:39Z</time>
  <course>17.16</course>
  <speed>0.02</speed>
  <fix>3d</fix>
</trkpt>
<trkpt lat="40.0728281" lon="-105.2309377">
  <ele>1595.56</ele>
  <time>2026-08-27T18:29:39Z</time>
  <course>61.1</course>
  <speed>0.0</speed>
  <fix>3d</fix>
</trkpt>
<trkpt lat="40.0728283" lon="-105.2309376">
  <ele>1595.48</ele>
  <time>2026-08-27T18:29:39Z</time>
  <course>22.6</course>
  <speed>0.02</speed>
  <fix>3d</fix>
</trkpt>
<trkpt lat="40.0728281" lon="-105.2309376">
  <ele>1595.56</ele>
  <time>2026-08-27T18:29:39Z</time>
  <course>60.0</course>
  <speed>0.01</speed>
  <fix>3d</fix>
</trkpt>
<trkpt lat="40.0728284" lon="-105.2309375">
  <ele>1595.48</ele>
  <time>2026-08-27T18:29:39Z</time>
  <course>27.01</course>
  <speed>0.02</speed>
  <fix>3d</fix>
</trkpt>
<trkpt lat="40.0728282" lon="-105.2309376">
  <ele>1595.55</ele>
  <time>2026-08-27T18:29:39Z</time>
  <course>58.62</course>
  <speed>0.01</speed>
  <fix>3d</fix>
</trkpt>
<trkpt lat="40.0728284" lon="-105.2309375">
  <ele>1595.48</ele>
  <time>2026-08-27T18:29:39Z</time>
  <course>31.23</course>
  <speed>0.02</speed>
  <fix>3d</fix>
</trkpt>
<trkpt lat="40.0728282" lon="-105.2309376">
  <ele>1595.55</ele>
  <time>2026-08-27T18:29:39Z</time>
  <course>57.12</course>
  <speed>0.01</speed>
  <fix>3d</fix>
</trkpt>
<trkpt lat="40.0728284" lon="-105.2309375">
  <ele>1595.48</ele>
  <time>2026-08-27T18:29:39Z</time>
  <course>34.04</course>
  <speed>0.02</speed>
  <fix>3d</fix>
</trkpt>
<trkpt lat="40.0728283" lon="-105.2309375">
  <ele>1595.55</ele>
  <time>2026-08-27T18:29:39Z</time>
  <course>55.61</course>
  <speed>0.01</speed>
  <fix>3d</fix>
</trkpt>
<trkpt lat="40.0728285" lon="-105.2309375">
  <ele>1595.48</ele>
  <time>2026-08-27T18:29:39Z</time>
  <course>34.59</course>
  <speed>0.02</speed>
  <fix>3d</fix>
</trkpt>
<trkpt lat="40.0728283" lon="-105.2309375">
  <ele>1595.55</ele>
  <time>2026-08-27T18:29:39Z</time>
  <course>54.23</course>
  <speed>0.01</speed>
  <fix>3d</fix>
</trkpt>
<trkpt lat="40.0728285" lon="-105.2309375">
  <ele>1595.48</ele>
  <time>2026-08-27T18:29:39Z</time>
  <course>33.89</course>
  <speed>0.03</speed>
  <fix>3d</fix>
</trkpt>
<trkpt lat="40.0728284" lon="-105.2309374">
  <ele>1595.56</ele>
  <time>2026-08-27T18:29:39Z</time>
  <course>53.13</course>
  <speed>0.01</speed>
  <fix>3d</fix>
</trkpt>
<trkpt lat="40.0728286" lon="-105.2309374">
  <ele>1595.48</ele>
  <time>2026-08-27T18:29:39Z</time>
  <course>31.43</course>
  <speed>0.03</speed>
  <fix>3d</fix>
</trkpt>
<trkpt lat="40.0728284" lon="-105.2309374">
  <ele>1595.56</ele>
  <time>2026-08-27T18:29:39Z</time>
  <course>52.45</course>
  <speed>0.01</speed>
  <fix>3d</fix>
</trkpt>
<trkpt lat="40.0728286" lon="-105.2309374">
  <ele>1595.48</ele>
  <time>2026-08-27T18:29:39Z</time>
  <course>27.3</course>
  <speed>0.03</speed>
  <fix>3d</fix>
</trkpt>
<trkpt lat="40.0728285" lon="-105.2309374">
  <ele>1595.56</ele>
  <time>2026-08-27T18:29:39Z</time>
  <course>52.22</course>
  <speed>0.01414213562373095</speed>
  <fix>3d</fix>
</trkpt>
<trkpt lat="40.0728286" lon="-105.2309373">
  <ele>1595.49</ele>
  <time>2026-08-27T18:29:39Z</time>
  <course>23.01</course>
  <speed>0.03</speed>
  <fix>3d</fix>
</trkpt>
<trkpt lat="40.0728285" lon="-105.2309373">
  <ele>1595.56</ele>
  <time>2026-08-27T18:29:39Z</time>
  <course>52.44</course>
  <speed>0.01</speed>
  <fix>3d</fix>
</trkpt>
<trkpt lat="40.0728287" lon="-105.2309372">
  <ele>1595.49</ele>
  <time>2026-08-27T18:29:39Z</time>
  <course>18.71</course>
  <speed>0.03</speed>
  <fix>3d</fix>
</trkpt>
<trkpt lat="40.0728286" lon="-105.2309373">
  <ele>1595.56</ele>
  <time>2026-08-27T18:29:39Z</time>
  <course>53.13</course>
  <speed>0.01</speed>
  <fix>3d</fix>
</trkpt>
<trkpt lat="40.0728287" lon="-105.2309372">
  <ele>1595.49</ele>
  <time>2026-08-27T18:29:39Z</time>
  <course>14.6</course>
  <speed>0.03</speed>
  <fix>3d</fix>
</trkpt>
<trkpt lat="40.0728287" lon="-105.2309373">
  <ele>1595.56</ele>
  <time>2026-08-27T18:29:39Z</time>
  <course>54.24</course>
  <speed>0.01</speed>
  <fix>3d</fix>
</trkpt>
<trkpt lat="40.0728288" lon="-105.2309372">
  <ele>1595.49</ele>
  <time>2026-08-27T18:29:39Z</time>
  <course>10.36</course>
  <speed>0.03</speed>
  <fix>3d</fix>
</trkpt>
<trkpt lat="40.0728287" lon="-105.2309373">
  <ele>1595.57</ele>
  <time>2026-08-27T18:29:39Z</time>
  <course>55.6</course>
  <speed>0.01</speed>
  <fix>3d</fix>
</trkpt>
<trkpt lat="40.0728289" lon="-105.2309372">
  <ele>1595.49</ele>
  <time>2026-08-27T18:29:39Z</time>
  <course>6.64</course>
  <speed>0.03</speed>
  <fix>3d</fix>
</trkpt>
<trkpt lat="40.0728288" lon="-105.2309373">
  <ele>1595.57</ele>
  <time>2026-08-27T18:29:39Z</time>
  <course>57.1</course>
  <speed>0.01</speed>
  <fix>3d</fix>
</trkpt>
<trkpt lat="40.072829" lon="-105.2309372">
  <ele>1595.49</ele>
  <time>2026-08-27T18:29:39Z</time>
  <course>3.91</course>
  <speed>0.03</speed>
  <fix>3d</fix>
</trkpt>
<trkpt lat="40.0728288" lon="-105.2309373">
  <ele>1595.58</ele>
  <time>2026-08-27T18:29:39Z</time>
  <course>58.62</course>
  <speed>0.01</speed>
  <fix>3d</fix>
</trkpt>
<trkpt lat="40.072829" lon="-105.2309372">
  <ele>1595.49</ele>
  <time>2026-08-27T18:29:39Z</time>
  <course>1.85</course>
  <speed>0.03</speed>
  <fix>3d</fix>
</trkpt>
<trkpt lat="40.0728289" lon="-105.2309373">
  <ele>1595.58</ele>
  <time>2026-08-27T18:29:39Z</time>
  <course>60.0</course>
  <speed>0.0</speed>
  <fix>3d</fix>
</trkpt>
<trkpt lat="40.0728291" lon="-105.2309372">
  <ele>1595.48</ele>
  <time>2026-08-27T18:29:39Z</time>
  <course>1.36</course>
  <speed>0.03</speed>
  <fix>3d</fix>
</trkpt>
<trkpt lat="40.072829" lon="-105.2309372">
  <ele>1595.58</ele>
  <time>2026-08-27T18:29:39Z</time>
  <course>61.1</course>
  <speed>0.0</speed>
  <fix>3d</fix>
</trkpt>
<trkpt lat="40.0728292" lon="-105.2309372">
  <ele>1595.48</ele>
  <time>2026-08-27T18:29:39Z</time>
  <course>3.06</course>
  <speed>0.03</speed>
  <fix>3d</fix>
</trkpt>
<trkpt lat="40.072829" lon="-105.2309372">
  <ele>1595.57</ele>
  <time>2026-08-27T18:29:39Z</time>
  <course>61.82</course>
  <speed>0.0</speed>
  <fix>3d</fix>
</trkpt>
<trkpt lat="40.0728292" lon="-105.2309372">
  <ele>1595.48</ele>
  <time>2026-08-27T18:29:39Z</time>
  <course>6.49</course>
  <speed>0.02</speed>
  <fix>3d</fix>
</trkpt>
<trkpt lat="40.0728291" lon="-105.2309372">
  <ele>1595.56</ele>
  <time>2026-08-27T18:29:39Z</time>
  <course>62.02</course>
  <speed>0.0</speed>
  <fix>3d</fix>
</trkpt>
<trkpt lat="40.0728292" lon="-105.2309372">
  <ele>1595.47</ele>
  <time>2026-08-27T18:29:39Z</time>
  <course>11.37</course>
  <speed>0.02</speed>
  <fix>3d</fix>
</trkpt>
<trkpt lat="40.0728291" lon="-105.2309372">
  <ele>1595.55</ele>
  <time>2026-08-27T18:29:39Z</time>
  <course>61.78</course>
  <speed>0.0</speed>
  <fix>3d</fix>
</trkpt>
<trkpt lat="40.0728293" lon="-105.2309372">
  <ele>1595.47</ele>
  <time>2026-08-27T18:29:39Z</time>
  <course>17.13</course>
  <speed>0.02</speed>
  <fix>3d</fix>
</trkpt>
<trkpt lat="40.0728291" lon="-105.2309372">
  <ele>1595.55</ele>
  <time>2026-08-27T18:29:39Z</time>
  <course>61.08</course>
  <speed>0.01</speed>
  <fix>3d</fix>
</trkpt>
<trkpt lat="40.0728293" lon="-105.2309372">
  <ele>1595.47</ele>
  <time>2026-08-27T18:29:39Z</time>
  <course>22.8</course>
  <speed>0.02</speed>
  <fix>3d</fix>
</trkpt>
<trkpt lat="40.0728292" lon="-105.2309372">
  <ele>1595.54</ele>
  <time>2026-08-27T18:29:39Z</time>
  <course>59.98</course>
  <speed>0.01</speed>
  <fix>3d</fix>
</trkpt>
<trkpt lat="40.0728293" lon="-105.2309372">
  <ele>1595.47</ele>
  <time>2026-08-27T18:29:39Z</time>
  <course>28.89</course>
  <speed>0.02</speed>
  <fix>3d</fix>
</trkpt>
<trkpt lat="40.0728292" lon="-105.2309371">
  <ele>1595.54</ele>
  <time>2026-08-27T18:29:39Z</time>
  <course>58.6</course>
  <speed>0.01</speed>
  <fix>3d</fix>
</trkpt>
<trkpt lat="40.0728294" lon="-105.2309371">
  <ele>1595.47</ele>
  <time>2026-08-27T18:29:39Z</time>
  <course>33.25</course>
  <speed>0.02</speed>
  <fix>3d</fix>
</trkpt>
<trkpt lat="40.0728292" lon="-105.2309371">
  <ele>1595.54</ele>
  <time>2026-08-27T18:29:39Z</time>
  <course>57.09</course>
  <speed>0.01</speed>
  <fix>3d</fix>
</trkpt>
<trkpt lat="40.0728295" lon="-105.230937">
  <ele>1595.47</ele>
  <time>2026-08-27T18:29:39Z</time>
  <course>33.54</course>
  <speed>0.02</speed>
  <fix>3d</fix>
</trkpt>
<trkpt lat="40.0728293" lon="-105.2309371">
  <ele>1595.54</ele>
  <time>2026-08-27T18:29:39Z</time>
  <course>55.6</course>
  <speed>0.01</speed>
  <fix>3d</fix>
</trkpt>
<trkpt lat="40.0728295" lon="-105.230937">
  <ele>1595.47</ele>
  <time>2026-08-27T18:29:39Z</time>
  <course>31.78</course>
  <speed>0.02</speed>
  <fix>3d</fix>
</trkpt>
<trkpt lat="40.0728293" lon="-105.230937">
  <ele>1595.54</ele>
  <time>2026-08-27T18:29:39Z</time>
  <course>54.22</course>
  <speed>0.01</speed>
  <fix>3d</fix>
</trkpt>
<trkpt lat="40.0728296" lon="-105.230937">
  <ele>1595.48</ele>
  <time>2026-08-27T18:29:39Z</time>
  <course>28.56</course>
  <speed>0.02</speed>
  <fix>3d</fix>
</trkpt>
<trkpt lat="40.0728294" lon="-105.230937">
  <ele>1595.54</ele>
  <time>2026-08-27T18:29:39Z</time>
  <course>53.12</course>
  <speed>0.01</speed>
  <fix>3d</fix>
</trkpt>
<trkpt lat="40.0728296" lon="-105.230937">
  <ele>1595.48</ele>
  <time>2026-08-27T18:29:39Z</time>
  <course>23.83</course>
  <speed>0.03</speed>
  <fix>3d</fix>
</trkpt>
<trkpt lat="40.0728294" lon="-105.230937">
  <ele>1595.54</ele>
  <time>2026-08-27T18:29:39Z</time>
  <course>52.41</course>
  <speed>0.0</speed>
  <fix>3d</fix>
</trkpt>
<trkpt lat="40.0728296" lon="-105.230937">
  <ele>1595.49</ele>
  <time>2026-08-27T18:29:39Z</time>
  <course>19.29</course>
  <speed>0.03</speed>
  <fix>3d</fix>
</trkpt>
<trkpt lat="40.0728295" lon="-105.230937">
  <ele>1595.55</ele>
  <time>2026-08-27T18:29:39Z</time>
  <course>52.18</course>
  <speed>0.01</speed>
  <fix>3d</fix>
</trkpt>
<trkpt lat="40.0728297" lon="-105.230937">
  <ele>1595.49</ele>
  <time>2026-08-27T18:29:39Z</time>
  <course>15.34</course>
  <speed>0.03</speed>
  <fix>3d</fix>
</trkpt>
<trkpt lat="40.0728296" lon="-105.230937">
  <ele>1595.55</ele>
  <time>2026-08-27T18:29:39Z</time>
  <course>52.42</course>
  <speed>0.01</speed>
  <fix>3d</fix>
</trkpt>
<trkpt lat="40.0728298" lon="-105.230937">
  <ele>1595.49</ele>
  <time>2026-08-27T18:29:39Z</time>
  <course>11.41</course>
  <speed>0.03</speed>
  <fix>3d</fix>
</trkpt>
<trkpt lat="40.0728296" lon="-105.230937">
  <ele>1595.55</ele>
  <time>2026-08-27T18:29:39Z</time>
  <course>53.1</course>
  <speed>0.01</speed>
  <fix>3d</fix>
</trkpt>
<trkpt lat="40.0728298" lon="-105.2309369">
  <ele>1595.5</ele>
  <time>2026-08-27T18:29:39Z</time>
  <course>7.58</course>
  <speed>0.03</speed>
  <fix>3d</fix>
</trkpt>
<trkpt lat="40.0728297" lon="-105.2309369">
  <ele>1595.56</ele>
  <time>2026-08-27T18:29:39Z</time>
  <course>54.2</course>
  <speed>0.01</speed>
  <fix>3d</fix>
</trkpt>
<trkpt lat="40.0728299" lon="-105.2309368">
  <ele>1595.5</ele>
  <time>2026-08-27T18:29:39Z</time>
  <course>4.65</course>
  <speed>0.03</speed>
  <fix>3d</fix>
</trkpt>
<trkpt lat="40.0728298" lon="-105.2309369">
  <ele>1595.57</ele>
  <time>2026-08-27T18:29:40Z</time>
  <course>55.59</course>
  <speed>0.01</speed>
  <fix>3d</fix>
</trkpt>
<trkpt lat="40.0728299" lon="-105.2309368">
  <ele>1595.51</ele>
  <time>2026-08-27T18:29:40Z</time>
  <course>3.21</course>
  <speed>0.03</speed>
  <fix>3d</fix>
</trkpt>
<trkpt lat="40.0728298" lon="-105.2309369">
  <ele>1595.57</ele>
  <time>2026-08-27T18:29:40Z</time>
  <course>57.09</course>
  <speed>0.01</speed>
  <fix>3d</fix>
</trkpt>
<trkpt lat="40.07283" lon="-105.2309368">
  <ele>1595.51</ele>
  <time>2026-08-27T18:29:40Z</time>
  <course>2.54</course>
  <speed>0.03</speed>
  <fix>3d</fix>
</trkpt>
<trkpt lat="40.0728299" lon="-105.2309369">
  <ele>1595.57</ele>
  <time>2026-08-27T18:29:40Z</time>
  <course>58.62</course>
  <speed>0.01</speed>
  <fix>3d</fix>
</trkpt>
<trkpt lat="40.0728301" lon="-105.2309368">
  <ele>1595.51</ele>
  <time>2026-08-27T18:29:40Z</time>
  <course>1.73</course>
  <speed>0.03</speed>
  <fix>3d</fix>
</trkpt>
<trkpt lat="40.07283" lon="-105.2309369">
  <ele>1595.57</ele>
  <time>2026-08-27T18:29:40Z</time>
  <course>59.97</course>
  <speed>0.01</speed>
  <fix>3d</fix>
</trkpt>
<trkpt lat="40.0728302" lon="-105.2309368">
  <ele>1595.51</ele>
  <time>2026-08-27T18:29:40Z</time>
  <course>2.14</course>
  <speed>0.03</speed>
  <fix>3d</fix>
</trkpt>
<trkpt lat="40.07283" lon="-105.2309369">
  <ele>1595.58</ele>
  <time>2026-08-27T18:29:40Z</time>
  <course>61.08</course>
  <speed>0.0</speed>
  <fix>3d</fix>
</trkpt>
<trkpt lat="40.0728302" lon="-105.2309368">
  <ele>1595.51</ele>
  <time>2026-08-27T18:29:40Z</time>
  <course>3.97</course>
  <speed>0.03</speed>
  <fix>3d</fix>
</trkpt>
<trkpt lat="40.0728301" lon="-105.2309369">
  <ele>1595.58</ele>
  <time>2026-08-27T18:29:40Z</time>
  <course>61.81</course>
  <speed>0.0</speed>
  <fix>3d</fix>
</trkpt>
<trkpt lat="40.0728303" lon="-105.2309368">
  <ele>1595.51</ele>
  <time>2026-08-27T18:29:40Z</time>
  <course>6.5</course>
  <speed>0.03</speed>
  <fix>3d</fix>
</trkpt>
<trkpt lat="40.0728301" lon="-105.2309369">
  <ele>1595.58</ele>
  <time>2026-08-27T18:29:40Z</time>
  <course>62.04</course>
  <speed>0.0</speed>
  <fix>3d</fix>
</trkpt>
<trkpt lat="40.0728303" lon="-105.2309368">
  <ele>1595.5</ele>
  <time>2026-08-27T18:29:40Z</time>
  <course>10.45</course>
  <speed>0.02</speed>
  <fix>3d</fix>
</trkpt>
<trkpt lat="40.0728302" lon="-105.2309368">
  <ele>1595.58</ele>
  <time>2026-08-27T18:29:40Z</time>
  <course>61.79</course>
  <speed>0.0</speed>
  <fix>3d</fix>
</trkpt>
<trkpt lat="40.0728304" lon="-105.2309368">
  <ele>1595.5</ele>
  <time>2026-08-27T18:29:40Z</time>
  <course>16.17</course>
  <speed>0.02</speed>
  <fix>3d</fix>
</trkpt>
<trkpt lat="40.0728302" lon="-105.2309368">
  <ele>1595.57</ele>
  <time>2026-08-27T18:29:40Z</time>
  <course>61.12</course>
  <speed>0.01</speed>
  <fix>3d</fix>
</trkpt>
<trkpt lat="40.0728304" lon="-105.2309368">
  <ele>1595.5</ele>
  <time>2026-08-27T18:29:40Z</time>
  <course>23.07</course>
  <speed>0.02</speed>
  <fix>3d</fix>
</trkpt>
<trkpt lat="40.0728303" lon="-105.2309368">
  <ele>1595.57</ele>
  <time>2026-08-27T18:29:40Z</time>
  <course>60.02</course>
  <speed>0.01</speed>
  <fix>3d</fix>
</trkpt>
<trkpt lat="40.0728304" lon="-105.2309368">
  <ele>1595.49</ele>
  <time>2026-08-27T18:29:40Z</time>
  <course>29.23</course>
  <speed>0.02</speed>
  <fix>3d</fix>
</trkpt>
<trkpt lat="40.0728303" lon="-105.2309367">
  <ele>1595.56</ele>
  <time>2026-08-27T18:29:40Z</time>
  <course>58.67</course>
  <speed>0.01</speed>
  <fix>3d</fix>
</trkpt>
<trkpt lat="40.0728304" lon="-105.2309368">
  <ele>1595.49</ele>
  <time>2026-08-27T18:29:40Z</time>
  <course>32.88</course>
  <speed>0.02</speed>
  <fix>3d</fix>
</trkpt>
<trkpt lat="40.0728303" lon="-105.2309367">
  <ele>1595.56</ele>
  <time>2026-08-27T18:29:40Z</time>
  <course>57.16</course>
  <speed>0.01</speed>
  <fix>3d</fix>
</trkpt>
<trkpt lat="40.0728305" lon="-105.2309368">
  <ele>1595.49</ele>
  <time>2026-08-27T18:29:40Z</time>
  <course>34.48</course>
  <speed>0.02</speed>
  <fix>3d</fix>
</trkpt>
<trkpt lat="40.0728304" lon="-105.2309367">
  <ele>1595.56</ele>
  <time>2026-08-27T18:29:40Z</time>
  <course>55.64</course>
  <speed>0.01</speed>
  <fix>3d</fix>
</trkpt>
<trkpt lat="40.0728305" lon="-105.2309367">
  <ele>1595.49</ele>
  <time>2026-08-27T18:29:40Z</time>
  <course>34.31</course>
  <speed>0.02</speed>
  <fix>3d</fix>
</trkpt>
<trkpt lat="40.0728304" lon="-105.2309367">
  <ele>1595.55</ele>
  <time>2026-08-27T18:29:40Z</time>
  <course>54.25</course>
  <speed>0.01</speed>
  <fix>3d</fix>
</trkpt>
<trkpt lat="40.0728306" lon="-105.2309367">
  <ele>1595.49</ele>
  <time>2026-08-27T18:29:40Z</time>
  <course>32.4</course>
  <speed>0.02</speed>
  <fix>3d</fix>
</trkpt>
<trkpt lat="40.0728305" lon="-105.2309366">
  <ele>1595.55</ele>
  <time>2026-08-27T18:29:40Z</time>
  <course>53.14</course>
  <speed>0.01</speed>
  <fix>3d</fix>
</trkpt>
<trkpt lat="40.0728307" lon="-105.2309366">
  <ele>1595.49</ele>
  <time>2026-08-27T18:29:40Z</time>
  <course>29.3</course>
  <speed>0.03</speed>
  <fix>3d</fix>
</trkpt>
<trkpt lat="40.0728305" lon="-105.2309366">
  <ele>1595.55</ele>
  <time>2026-08-27T18:29:40Z</time>
  <course>52.43</course>
  <speed>0.01</speed>
  <fix>3d</fix>
</trkpt>
<trkpt lat="40.0728307" lon="-105.2309365">
  <ele>1595.49</ele>
  <time>2026-08-27T18:29:40Z</time>
  <course>25.59</course>
  <speed>0.03</speed>
  <fix>3d</fix>
</trkpt>
<trkpt lat="40.0728306" lon="-105.2309366">
  <ele>1595.55</ele>
  <time>2026-08-27T18:29:40Z</time>
  <course>52.21</course>
  <speed>0.01</speed>
  <fix>3d</fix>
</trkpt>
<trkpt lat="40.0728308" lon="-105.2309365">
  <ele>1595.49</ele>
  <time>2026-08-27T18:29:40Z</time>
  <course>21.36</course>
  <speed>0.03</speed>
  <fix>3d</fix>
</trkpt>
<trkpt lat="40.0728306" lon="-105.2309366">
  <ele>1595.55</ele>
  <time>2026-08-27T18:29:40Z</time>
  <course>52.44</course>
  <speed>0.01</speed>
  <fix>3d</fix>
</trkpt>
<trkpt lat="40.0728308" lon="-105.2309365">
  <ele>1595.49</ele>
  <time>2026-08-27T18:29:40Z</time>
  <course>16.84</course>
  <speed>0.03</speed>
  <fix>3d</fix>
</trkpt>
<trkpt lat="40.0728307" lon="-105.2309365">
  <ele>1595.55</ele>
  <time>2026-08-27T18:29:40Z</time>
  <course>53.11</course>
  <speed>0.01</speed>
  <fix>3d</fix>
</trkpt>
<trkpt lat="40.0728309" lon="-105.2309365">
  <ele>1595.49</ele>
  <time>2026-08-27T18:29:40Z</time>
  <course>12.54</course>
  <speed>0.03</speed>
  <fix>3d</fix>
</trkpt>
<trkpt lat="40.0728308" lon="-105.2309365">
  <ele>1595.56</ele>
  <time>2026-08-27T18:29:40Z</time>
  <course>54.23</course>
  <speed>0.01</speed>
  <fix>3d</fix>
</trkpt>
<trkpt lat="40.072831" lon="-105.2309365">
  <ele>1595.49</ele>
  <time>2026-08-27T18:29:40Z</time>
  <course>9.2</course>
  <speed>0.03</speed>
  <fix>3d</fix>
</trkpt>
<trkpt lat="40.0728308" lon="-105.2309365">
  <ele>1595.56</ele>
  <time>2026-08-27T18:29:40Z</time>
  <course>55.61</course>
  <speed>0.01</speed>
  <fix>3d</fix>
</trkpt>
<trkpt lat="40.072831" lon="-105.2309365">
  <ele>1595.5</ele>
  <time>2026-08-27T18:29:40Z</time>
  <course>6.74</course>
  <speed>0.03</speed>
  <fix>3d</fix>
</trkpt>
<trkpt lat="40.0728309" lon="-105.2309365">
  <ele>1595.56</ele>
  <time>2026-08-27T18:29:40Z</time>
  <course>57.11</course>
  <speed>0.01</speed>
  <fix>3d</fix>
</trkpt>
<trkpt lat="40.072831" lon="-105.2309365">
  <ele>1595.5</ele>
  <time>2026-08-27T18:29:40Z</time>
  <course>4.4</course>
  <speed>0.03</speed>
  <fix>3d</fix>
</trkpt>
<trkpt lat="40.072831" lon="-105.2309365">
  <ele>1595.56</ele>
  <time>2026-08-27T18:29:40Z</time>
  <course>58.59</course>
  <speed>0.01</speed>
  <fix>3d</fix>
</trkpt>
<trkpt lat="40.0728311" lon="-105.2309365">
  <ele>1595.5</ele>
  <time>2026-08-27T18:29:40Z</time>
  <course>2.95</course>
  <speed>0.03</speed>
  <fix>3d</fix>
</trkpt>
<trkpt lat="40.072831" lon="-105.2309365">
  <ele>1595.56</ele>
  <time>2026-08-27T18:29:40Z</time>
  <course>59.96</course>
  <speed>0.0</speed>
  <fix>3d</fix>
</trkpt>
<trkpt lat="40.0728312" lon="-105.2309365">
  <ele>1595.5</ele>
  <time>2026-08-27T18:29:40Z</time>
  <course>2.85</course>
  <speed>0.03</speed>
  <fix>3d</fix>
</trkpt>
<trkpt lat="40.0728311" lon="-105.2309365">
  <ele>1595.56</ele>
  <time>2026-08-27T18:29:40Z</time>
  <course>61.05</course>
  <speed>0.0</speed>
  <fix>3d</fix>
</trkpt>
<trkpt lat="40.0728313" lon="-105.2309365">
  <ele>1595.5</ele>
  <time>2026-08-27T18:29:40Z</time>
  <course>4.22</course>
  <speed>0.03</speed>
  <fix>3d</fix>
</trkpt>
<trkpt lat="40.0728311" lon="-105.2309365">
  <ele>1595.56</ele>
  <time>2026-08-27T18:29:40Z</time>
  <course>61.75</course>
  <speed>0.0</speed>
  <fix>3d</fix>
</trkpt>
<trkpt lat="40.0728313" lon="-105.2309365">
  <ele>1595.5</ele>
  <time>2026-08-27T18:29:40Z</time>
  <course>7.66</course>
  <speed>0.02</speed>
  <fix>3d</fix>
</trkpt>
<trkpt lat="40.0728312" lon="-105.2309365">
  <ele>1595.56</ele>
  <time>2026-08-27T18:29:40Z</time>
  <course>61.99</course>
  <speed>0.0</speed>
  <fix>3d</fix>
</trkpt>
<trkpt lat="40.0728314" lon="-105.2309365">
  <ele>1595.5</ele>
  <time>2026-08-27T18:29:40Z</time>
  <course>13.44</course>
  <speed>0.02</speed>
  <fix>3d</fix>
</trkpt>
<trkpt lat="40.0728312" lon="-105.2309365">
  <ele>1595.56</ele>
  <time>2026-08-27T18:29:40Z</time>
  <course>61.76</course>
  <speed>0.0</speed>
  <fix>3d</fix>
</trkpt>
<trkpt lat="40.0728314" lon="-105.2309365">
  <ele>1595.5</ele>
  <time>2026-08-27T18:29:40Z</time>
  <course>19.69</course>
  <speed>0.02</speed>
  <fix>3d</fix>
</trkpt>
<trkpt lat="40.0728313" lon="-105.2309365">
  <ele>1595.56</ele>
  <time>2026-08-27T18:29:40Z</time>
  <course>61.09</course>
  <speed>0.0</speed>
  <fix>3d</fix>
</trkpt>
<trkpt lat="40.0728315" lon="-105.2309364">
  <ele>1595.51</ele>
  <time>2026-08-27T18:29:40Z</time>
  <course>24.59</course>
  <speed>0.02</speed>
  <fix>3d</fix>
</trkpt>
<trkpt lat="40.0728313" lon="-105.2309364">
  <ele>1595.56</ele>
  <time>2026-08-27T18:29:40Z</time>
  <course>60.0</course>
  <speed>0.01</speed>
  <fix>3d</fix>
</trkpt>
<trkpt lat="40.0728315" lon="-105.2309363">
  <ele>1595.51</ele>
  <time>2026-08-27T18:29:40Z</time>
  <course>28.27</course>
  <speed>0.02</speed>
  <fix>3d</fix>
</trkpt>
<trkpt lat="40.0728314" lon="-105.2309364">
  <ele>1595.56</ele>
  <time>2026-08-27T18:29:40Z</time>
  <course>58.66</course>
  <speed>0.01</speed>
  <fix>3d</fix>
</trkpt>
<trkpt lat="40.0728316" lon="-105.2309363">
  <ele>1595.51</ele>
  <time>2026-08-27T18:29:40Z</time>
  <course>31.39</course>
  <speed>0.02</speed>
  <fix>3d</fix>
</trkpt>
<trkpt lat="40.0728314" lon="-105.2309364">
  <ele>1595.56</ele>
  <time>2026-08-27T18:29:40Z</time>
  <course>57.14</course>
  <speed>0.01</speed>
  <fix>3d</fix>
</trkpt>
<trkpt lat="40.0728316" lon="-105.2309363">
  <ele>1595.51</ele>
  <time>2026-08-27T18:29:40Z</time>
  <course>33.63</course>
  <speed>0.02</speed>
  <fix>3d</fix>
</trkpt>
<trkpt lat="40.0728314" lon="-105.2309363">
  <ele>1595.56</ele>
  <time>2026-08-27T18:29:40Z</time>
  <course>55.63</course>
  <speed>0.01</speed>
  <fix>3d</fix>
</trkpt>
<trkpt lat="40.0728316" lon="-105.2309363">
  <ele>1595.51</ele>
  <time>2026-08-27T18:29:40Z</time>
  <course>33.54</course>
  <speed>0.02</speed>
  <fix>3d</fix>
</trkpt>
<trkpt lat="40.0728315" lon="-105.2309363">
  <ele>1595.56</ele>
  <time>2026-08-27T18:29:40Z</time>
  <course>54.26</course>
  <speed>0.01</speed>
  <fix>3d</fix>
</trkpt>
<trkpt lat="40.0728316" lon="-105.2309363">
  <ele>1595.51</ele>
  <time>2026-08-27T18:29:40Z</time>
  <course>31.38</course>
  <speed>0.03</speed>
  <fix>3d</fix>
</trkpt>
<trkpt lat="40.0728315" lon="-105.2309362">
  <ele>1595.57</ele>
  <time>2026-08-27T18:29:40Z</time>
  <course>53.17</course>
  <speed>0.01</speed>
  <fix>3d</fix>
</trkpt>
<trkpt lat="40.0728317" lon="-105.2309362">
  <ele>1595.51</ele>
  <time>2026-08-27T18:29:40Z</time>
  <course>27.64</course>
  <speed>0.03</speed>
  <fix>3d</fix>
</trkpt>
<trkpt lat="40.0728316" lon="-105.2309362">
  <ele>1595.57</ele>
  <time>2026-08-27T18:29:40Z</time>
  <course>52.49</course>
  <speed>0.0</speed>
  <fix>3d</fix>
</trkpt>
<trkpt lat="40.0728317" lon="-105.2309362">
  <ele>1595.51</ele>
  <time>2026-08-27T18:29:40Z</time>
  <course>23.1</course>
  <speed>0.03</speed>
  <fix>3d</fix>
</trkpt>
<trkpt lat="40.0728316" lon="-105.2309362">
  <ele>1595.58</ele>
  <time>2026-08-27T18:29:40Z</time>
  <course>52.24</course>
  <speed>0.01</speed>
  <fix>3d</fix>
</trkpt>
<trkpt lat="40.0728318" lon="-105.2309362">
  <ele>1595.51</ele>
  <time>2026-08-27T18:29:40Z</time>
  <course>18.57</course>
  <speed>0.03</speed>
  <fix>3d</fix>
</trkpt>
<trkpt lat="40.0728317" lon="-105.2309362">
  <ele>1595.58</ele>
  <time>2026-08-27T18:29:40Z</time>
  <course>52.21</course>
  <speed>0.01</speed>
  <fix>3d</fix>
</trkpt>
<trkpt lat="40.0728319" lon="-105.2309361">
  <ele>1595.51</ele>
  <time>2026-08-27T18:29:40Z</time>
  <course>16.13</course>
  <speed>0.03</speed>
  <fix>3d</fix>
</trkpt>
<trkpt lat="40.0728318" lon="-105.2309361">
  <ele>1595.57</ele>
  <time>2026-08-27T18:29:40Z</time>
  <course>52.15</course>
  <speed>0.01414213562373095</speed>
  <fix>3d</fix>
</trkpt>
<trkpt lat="40.072832" lon="-105.230936">
  <ele>1595.51</ele>
  <time>2026-08-27T18:29:40Z</time>
  <course>17.24</course>
  <speed>0.03</speed>
  <fix>3d</fix>
</trkpt>
<trkpt lat="40.0728318" lon="-105.2309361">
  <ele>1595.57</ele>
  <time>2026-08-27T18:29:40Z</time>
  <course>52.11</course>
  <speed>0.01414213562373095</speed>
  <fix>3d</fix>
</trkpt>
<trkpt lat="40.072832" lon="-105.230936">
  <ele>1595.5</ele>
  <time>2026-08-27T18:29:40Z</time>
  <course>19.07</course>
  <speed>0.03</speed>
  <fix>3d</fix>
</trkpt>
<trkpt lat="40.0728319" lon="-105.2309361">
  <ele>1595.57</ele>
  <time>2026-08-27T18:29:40Z</time>
  <course>52.09</course>
  <speed>0.01414213562373095</speed>
  <fix>3d</fix>
</trkpt>
<trkpt lat="40.0728321" lon="-105.230936">
  <ele>1595.5</ele>
  <time>2026-08-27T18:29:40Z</time>
  <course>20.25</course>
  <speed>0.03</speed>
  <fix>3d</fix>
</trkpt>
<trkpt lat="40.072832" lon="-105.230936">
  <ele>1595.57</ele>
  <time>2026-08-27T18:29:40Z</time>
  <course>52.1</course>
  <speed>0.01414213562373095</speed>
  <fix>3d</fix>
</trkpt>
<trkpt lat="40.0728321" lon="-105.230936">
  <ele>1595.5</ele>
  <time>2026-08-27T18:29:40Z</time>
  <course>21.52</course>
  <speed>0.04</speed>
  <fix>3d</fix>
</trkpt>
<trkpt lat="40.072832" lon="-105.230936">
  <ele>1595.57</ele>
  <time>2026-08-27T18:29:40Z</time>
  <course>52.09</course>
  <speed>0.01414213562373095</speed>
  <fix>3d</fix>
</trkpt>
<trkpt lat="40.0728322" lon="-105.230936">
  <ele>1595.5</ele>
  <time>2026-08-27T18:29:40Z</time>
  <course>22.96</course>
  <speed>0.04</speed>
  <fix>3d</fix>
</trkpt>
<trkpt lat="40.0728321" lon="-105.2309359">
  <ele>1595.56</ele>
  <time>2026-08-27T18:29:40Z</time>
  <course>52.09</course>
  <speed>0.01414213562373095</speed>
  <fix>3d</fix>
</trkpt>
<trkpt lat="40.0728323" lon="-105.2309359">
  <ele>1595.5</ele>
  <time>2026-08-27T18:29:40Z</time>
  <course>24.6</course>
  <speed>0.04</speed>
  <fix>3d</fix>
</trkpt>
<trkpt lat="40.0728322" lon="-105.2309359">
  <ele>1595.56</ele>
  <time>2026-08-27T18:29:40Z</time>
  <course>52.09</course>
  <speed>0.0282842712474619</speed>
  <fix>3d</fix>
</trkpt>
<trkpt lat="40.0728323" lon="-105.2309358">
  <ele>1595.5</ele>
  <time>2026-08-27T18:29:40Z</time>
  <course>26.12</course>
  <speed>0.04</speed>
  <fix>3d</fix>
</trkpt>
<trkpt lat="40.0728323" lon="-105.2309358">
  <ele>1595.55</ele>
  <time>2026-08-27T18:29:40Z</time>
  <course>52.09</course>
  <speed>0.0282842712474619</speed>
  <fix>3d</fix>
</trkpt>
<trkpt lat="40.0728324" lon="-105.2309358">
  <ele>1595.5</ele>
  <time>2026-08-27T18:29:40Z</time>
  <course>27.28</course>
  <speed>0.04</speed>
  <fix>3d</fix>
</trkpt>
<trkpt lat="40.0728323" lon="-105.2309358">
  <ele>1595.55</ele>
  <time>2026-08-27T18:29:40Z</time>
  <course>52.09</course>
  <speed>0.0282842712474619</speed>
  <fix>3d</fix>
</trkpt>
<trkpt lat="40.0728325" lon="-105.2309358">
  <ele>1595.49</ele>
  <time>2026-08-27T18:29:40Z</time>
  <course>28.13</course>
  <speed>0.04</speed>
  <fix>3d</fix>
</trkpt>
<trkpt lat="40.0728324" lon="-105.2309357">
  <ele>1595.55</ele>
  <time>2026-08-27T18:29:40Z</time>
  <course>52.08</course>
  <speed>0.0282842712474619</speed>
  <fix>3d</fix>
</trkpt>
<trkpt lat="40.0728326" lon="-105.2309357">
  <ele>1595.49</ele>
  <time>2026-08-27T18:29:40Z</time>
  <course>28.92</course>
  <speed>0.05</speed>
  <fix>3d</fix>
</trkpt>
<trkpt lat="40.0728325" lon="-105.2309357">
  <ele>1595.56</ele>
  <time>2026-08-27T18:29:40Z</time>
  <course>52.09</course>
  <speed>0.0282842712474619</speed>
  <fix>3d</fix>
</trkpt>
<trkpt lat="40.0728327" lon="-105.2309356">
  <ele>1595.5</ele>
  <time>2026-08-27T18:29:40Z</time>
  <course>29.22</course>
  <speed>0.05</speed>
  <fix>3d</fix>
</trkpt>
<trkpt lat="40.0728326" lon="-105.2309356">
  <ele>1595.56</ele>
  <time>2026-08-27T18:29:40Z</time>
  <course>52.1</course>
  <speed>0.0282842712474619</speed>
  <fix>3d</fix>
</trkpt>
<trkpt lat="40.0728327" lon="-105.2309356">
  <ele>1595.5</ele>
  <time>2026-08-27T18:29:40Z</time>
  <course>29.34</course>
  <speed>0.05</speed>
  <fix>3d</fix>
</trkpt>
<trkpt lat="40.0728327" lon="-105.2309355">
  <ele>1595.56</ele>
  <time>2026-08-27T18:29:40Z</time>
  <course>52.1</course>
  <speed>0.0282842712474619</speed>
  <fix>3d</fix>
</trkpt>
<trkpt lat="40.0728328" lon="-105.2309355">
  <ele>1595.5</ele>
  <time>2026-08-27T18:29:40Z</time>
  <course>29.74</course>
  <speed>0.05</speed>
  <fix>3d</fix>
</trkpt>
<trkpt lat="40.0728328" lon="-105.2309355">
  <ele>1595.57</ele>
  <time>2026-08-27T18:29:40Z</time>
  <course>52.11</course>
  <speed>0.0282842712474619</speed>
  <fix>3d</fix>
</trkpt>
<trkpt lat="40.0728329" lon="-105.2309355">
  <ele>1595.5</ele>
  <time>2026-08-27T18:29:40Z</time>
  <course>30.11</course>
  <speed>0.05</speed>
  <fix>3d</fix>
</trkpt>
<trkpt lat="40.0728328" lon="-105.2309354">
  <ele>1595.58</ele>
  <time>2026-08-27T18:29:40Z</time>
  <course>52.13</course>
  <speed>0.0282842712474619</speed>
  <fix>3d</fix>
</trkpt>
<trkpt lat="40.072833" lon="-105.2309354">
  <ele>1595.5</ele>
  <time>2026-08-27T18:29:40Z</time>
  <course>30.24</course>
  <speed>0.05</speed>
  <fix>3d</fix>
</trkpt>
<trkpt lat="40.0728329" lon="-105.2309353">
  <ele>1595.58</ele>
  <time>2026-08-27T18:29:40Z</time>
  <course>52.06</course>
  <speed>0.03605551275463989</speed>
  <fix>3d</fix>
</trkpt>
<trkpt lat="40.0728331" lon="-105.2309353">
  <ele>1595.5</ele>
  <time>2026-08-27T18:29:40Z</time>
  <course>30.76</course>
  <speed>0.05</speed>
  <fix>3d</fix>
</trkpt>
<trkpt lat="40.072833" lon="-105.2309352">
  <ele>1595.58</ele>
  <time>2026-08-27T18:29:40Z</time>
  <course>51.18</course>
  <speed>0.03605551275463989</speed>
  <fix>3d</fix>
</trkpt>
<trkpt lat="40.0728332" lon="-105.2309353">
  <ele>1595.5</ele>
  <time>2026-08-27T18:29:40Z</time>
  <course>33.31</course>
  <speed>0.05</speed>
  <fix>3d</fix>
</trkpt>
<trkpt lat="40.0728331" lon="-105.2309352">
  <ele>1595.58</ele>
  <time>2026-08-27T18:29:40Z</time>
  <course>49.86</course>
  <speed>0.03605551275463989</speed>
  <fix>3d</fix>
</trkpt>
<trkpt lat="40.0728333" lon="-105.2309352">
  <ele>1595.49</ele>
  <time>2026-08-27T18:29:40Z</time>
  <course>35.69</course>
  <speed>0.05</speed>
  <fix>3d</fix>
</trkpt>
<trkpt lat="40.0728332" lon="-105.2309351">
  <ele>1595.58</ele>
  <time>2026-08-27T18:29:40Z</time>
  <course>48.64</course>
  <speed>0.03605551275463989</speed>
  <fix>3d</fix>
</trkpt>
<trkpt lat="40.0728334" lon="-105.2309351">
  <ele>1595.49</ele>
  <time>2026-08-27T18:29:40Z</time>
  <course>35.52</course>
  <speed>0.05</speed>
  <fix>3d</fix>
</trkpt>
<trkpt lat="40.0728333" lon="-105.230935">
  <ele>1595.57</ele>
  <time>2026-08-27T18:29:40Z</time>
  <course>47.75</course>
  <speed>0.0282842712474619</speed>
  <fix>3d</fix>
</trkpt>
<trkpt lat="40.0728334" lon="-105.230935">
  <ele>1595.48</ele>
  <time>2026-08-27T18:29:40Z</time>
  <course>33.6</course>
  <speed>0.05</speed>
  <fix>3d</fix>
</trkpt>
<trkpt lat="40.0728334" lon="-105.230935">
  <ele>1595.57</ele>
  <time>2026-08-27T18:29:40Z</time>
  <course>47.3</course>
  <speed>0.0282842712474619</speed>
  <fix>3d</fix>
</trkpt>
<trkpt lat="40.0728335" lon="-105.230935">
  <ele>1595.48</ele>
  <time>2026-08-27T18:29:40Z</time>
  <course>30.19</course>
  <speed>0.05</speed>
  <fix>3d</fix>
</trkpt>
<trkpt lat="40.0728334" lon="-105.2309349">
  <ele>1595.57</ele>
  <time>2026-08-27T18:29:40Z</time>
  <course>47.33</course>
  <speed>0.022360679774997897</speed>
  <fix>3d</fix>
</trkpt>
<trkpt lat="40.0728336" lon="-105.2309349">
  <ele>1595.48</ele>
  <time>2026-08-27T18:29:40Z</time>
  <course>25.98</course>
  <speed>0.04</speed>
  <fix>3d</fix>
</trkpt>
<trkpt lat="40.0728335" lon="-105.2309349">
  <ele>1595.57</ele>
  <time>2026-08-27T18:29:40Z</time>
  <course>47.83</course>
  <speed>0.01414213562373095</speed>
  <fix>3d</fix>
</trkpt>
<trkpt lat="40.0728337" lon="-105.2309349">
  <ele>1595.47</ele>
  <time>2026-08-27T18:29:40Z</time>
  <course>21.15</course>
  <speed>0.04</speed>
  <fix>3d</fix>
</trkpt>
<trkpt lat="40.0728336" lon="-105.2309349">
  <ele>1595.56</ele>
  <time>2026-08-27T18:29:40Z</time>
  <course>48.72</course>
  <speed>0.01</speed>
  <fix>3d</fix>
</trkpt>
<trkpt lat="40.0728338" lon="-105.2309349">
  <ele>1595.47</ele>
  <time>2026-08-27T18:29:40Z</time>
  <course>15.89</course>
  <speed>0.04</speed>
  <fix>3d</fix>
</trkpt>
<trkpt lat="40.0728337" lon="-105.2309348">
  <ele>1595.56</ele>
  <time>2026-08-27T18:29:40Z</time>
  <course>50.01</course>
  <speed>0.01</speed>
  <fix>3d</fix>
</trkpt>
<trkpt lat="40.0728338" lon="-105.2309348">
  <ele>1595.47</ele>
  <time>2026-08-27T18:29:40Z</time>
  <course>10.5</course>
  <speed>0.03</speed>
  <fix>3d</fix>
</trkpt>
<trkpt lat="40.0728337" lon="-105.2309348">
  <ele>1595.56</ele>
  <time>2026-08-27T18:29:40Z</time>
  <course>51.47</course>
  <speed>0.01</speed>
  <fix>3d</fix>
</trkpt>
<trkpt lat="40.0728339" lon="-105.2309348">
  <ele>1595.46</ele>
  <time>2026-08-27T18:29:40Z</time>
  <course>5.49</course>
  <speed>0.03</speed>
  <fix>3d</fix>
</trkpt>
<trkpt lat="40.0728338" lon="-105.2309348">
  <ele>1595.56</ele>
  <time>2026-08-27T18:29:40Z</time>
  <course>52.97</course>
  <speed>0.01</speed>
  <fix>3d</fix>
</trkpt>
<trkpt lat="40.072834" lon="-105.2309348">
  <ele>1595.46</ele>
  <time>2026-08-27T18:29:40Z</time>
  <course>1.94</course>
  <speed>0.03</speed>
  <fix>3d</fix>
</trkpt>
<trkpt lat="40.0728338" lon="-105.2309348">
  <ele>1595.56</ele>
  <time>2026-08-27T18:29:40Z</time>
  <course>54.39</course>
  <speed>0.0</speed>
  <fix>3d</fix>
</trkpt>
<trkpt lat="40.072834" lon="-105.2309348">
  <ele>1595.46</ele>
  <time>2026-08-27T18:29:40Z</time>
  <course>0.08</course>
  <speed>0.03</speed>
  <fix>3d</fix>
</trkpt>
<trkpt lat="40.0728339" lon="-105.2309348">
  <ele>1595.56</ele>
  <time>2026-08-27T18:29:40Z</time>
  <course>55.64</course>
  <speed>0.0</speed>
  <fix>3d</fix>
</trkpt>
<trkpt lat="40.0728341" lon="-105.2309348">
  <ele>1595.46</ele>
  <time>2026-08-27T18:29:40Z</time>
  <course>359.65</course>
  <speed>0.02</speed>
  <fix>3d</fix>
</trkpt>
<trkpt lat="40.0728339" lon="-105.2309348">
  <ele>1595.56</ele>
  <time>2026-08-27T18:29:40Z</time>
  <course>56.53</course>
  <speed>0.0</speed>
  <fix>3d</fix>
</trkpt>
<trkpt lat="40.0728341" lon="-105.2309348">
  <ele>1595.46</ele>
  <time>2026-08-27T18:29:40Z</time>
  <course>1.04</course>
  <speed>0.02</speed>
  <fix>3d</fix>
</trkpt>
<trkpt lat="40.072834" lon="-105.2309348">
  <ele>1595.56</ele>
  <time>2026-08-27T18:29:40Z</time>
  <course>56.95</course>
  <speed>0.0</speed>
  <fix>3d</fix>
</trkpt>
<trkpt lat="40.0728341" lon="-105.2309348">
  <ele>1595.46</ele>
  <time>2026-08-27T18:29:40Z</time>
  <course>3.99</course>
  <speed>0.02</speed>
  <fix>3d</fix>
</trkpt>
<trkpt lat="40.072834" lon="-105.2309348">
  <ele>1595.55</ele>
  <time>2026-08-27T18:29:40Z</time>
  <course>56.94</course>
  <speed>0.0</speed>
  <fix>3d</fix>
</trkpt>
<trkpt lat="40.0728342" lon="-105.2309348">
  <ele>1595.46</ele>
  <time>2026-08-27T18:29:40Z</time>
  <course>7.98</course>
  <speed>0.02</speed>
  <fix>3d</fix>
</trkpt>
<trkpt lat="40.0728341" lon="-105.2309348">
  <ele>1595.55</ele>
  <time>2026-08-27T18:29:40Z</time>
  <course>56.44</course>
  <speed>0.0</speed>
  <fix>3d</fix>
</trkpt>
<trkpt lat="40.0728342" lon="-105.2309348">
  <ele>1595.46</ele>
  <time>2026-08-27T18:29:40Z</time>
  <course>13.4</course>
  <speed>0.02</speed>
  <fix>3d</fix>
</trkpt>
<trkpt lat="40.0728341" lon="-105.2309348">
  <ele>1595.54</ele>
  <time>2026-08-27T18:29:40Z</time>
  <course>55.49</course>
  <speed>0.01</speed>
  <fix>3d</fix>
</trkpt>
<trkpt lat="40.0728342" lon="-105.2309348">
  <ele>1595.46</ele>
  <time>2026-08-27T18:29:40Z</time>
  <course>19.51</course>
  <speed>0.02</speed>
  <fix>3d</fix>
</trkpt>
<trkpt lat="40.0728341" lon="-105.2309348">
  <ele>1595.54</ele>
  <time>2026-08-27T18:29:40Z</time>
  <course>54.21</course>
  <speed>0.01</speed>
  <fix>3d</fix>
</trkpt>
<trkpt lat="40.0728343" lon="-105.2309348">
  <ele>1595.46</ele>
  <time>2026-08-27T18:29:40Z</time>
  <course>24.95</course>
  <speed>0.02</speed>
  <fix>3d</fix>
</trkpt>
<trkpt lat="40.0728342" lon="-105.2309347">
  <ele>1595.54</ele>
  <time>2026-08-27T18:29:40Z</time>
  <course>52.73</course>
  <speed>0.01</speed>
  <fix>3d</fix>
</trkpt>
<trkpt lat="40.0728344" lon="-105.2309347">
  <ele>1595.46</ele>
  <time>2026-08-27T18:29:40Z</time>
  <course>28.28</course>
  <speed>0.02</speed>
  <fix>3d</fix>
</trkpt>
<trkpt lat="40.0728342" lon="-105.2309347">
  <ele>1595.54</ele>
  <time>2026-08-27T18:29:40Z</time>
  <course>51.24</course>
  <speed>0.01</speed>
  <fix>3d</fix>
</trkpt>
<trkpt lat="40.0728344" lon="-105.2309346">
  <ele>1595.46</ele>
  <time>2026-08-27T18:29:40Z</time>
  <course>28.44</course>
  <speed>0.02</speed>
  <fix>3d</fix>
</trkpt>
<trkpt lat="40.0728342" lon="-105.2309347">
  <ele>1595.55</ele>
  <time>2026-08-27T18:29:40Z</time>
  <course>49.78</course>
  <speed>0.01</speed>
  <fix>3d</fix>
</trkpt>
<trkpt lat="40.0728345" lon="-105.2309346">
  <ele>1595.47</ele>
  <time>2026-08-27T18:29:40Z</time>
  <course>26.49</course>
  <speed>0.02</speed>
  <fix>3d</fix>
</trkpt>
<trkpt lat="40.0728343" lon="-105.2309346">
  <ele>1595.55</ele>
  <time>2026-08-27T18:29:40Z</time>
  <course>48.55</course>
  <speed>0.01</speed>
  <fix>3d</fix>
</trkpt>
<trkpt lat="40.0728345" lon="-105.2309346">
  <ele>1595.47</ele>
  <time>2026-08-27T18:29:40Z</time>
  <course>23.28</course>
  <speed>0.02</speed>
  <fix>3d</fix>
</trkpt>
<trkpt lat="40.0728343" lon="-105.2309346">
  <ele>1595.55</ele>
  <time>2026-08-27T18:29:40Z</time>
  <course>47.66</course>
  <speed>0.01</speed>
  <fix>3d</fix>
</trkpt>
<trkpt lat="40.0728345" lon="-105.2309346">
  <ele>1595.48</ele>
  <time>2026-08-27T18:29:40Z</time>
  <course>19.23</course>
  <speed>0.02</speed>
  <fix>3d</fix>
</trkpt>
<trkpt lat="40.0728344" lon="-105.2309346">
  <ele>1595.55</ele>
  <time>2026-08-27T18:29:40Z</time>
  <course>47.23</course>
  <speed>0.01</speed>
  <fix>3d</fix>
</trkpt>
<trkpt lat="40.0728346" lon="-105.2309346">
  <ele>1595.48</ele>
  <time>2026-08-27T18:29:40Z</time>
  <course>15.25</course>
  <speed>0.03</speed>
  <fix>3d</fix>
</trkpt>
<trkpt lat="40.0728345" lon="-105.2309346">
  <ele>1595.55</ele>
  <time>2026-08-27T18:29:40Z</time>
  <course>47.28</course>
  <speed>0.01</speed>
  <fix>3d</fix>
</trkpt>
<trkpt lat="40.0728346" lon="-105.2309346">
  <ele>1595.49</ele>
  <time>2026-08-27T18:29:40Z</time>
  <course>11.38</course>
  <speed>0.03</speed>
  <fix>3d</fix>
</trkpt>
<trkpt lat="40.0728345" lon="-105.2309346">
  <ele>1595.56</ele>
  <time>2026-08-27T18:29:40Z</time>
  <course>47.76</course>
  <speed>0.01</speed>
  <fix>3d</fix>
</trkpt>
<trkpt lat="40.0728347" lon="-105.2309346">
  <ele>1595.49</ele>
  <time>2026-08-27T18:29:40Z</time>
  <course>7.63</course>
  <speed>0.03</speed>
  <fix>3d</fix>
</trkpt>
<trkpt lat="40.0728346" lon="-105.2309346">
  <ele>1595.56</ele>
  <time>2026-08-27T18:29:40Z</time>
  <course>48.7</course>
  <speed>0.01</speed>
  <fix>3d</fix>
</trkpt>
<trkpt lat="40.0728347" lon="-105.2309346">
  <ele>1595.49</ele>
  <time>2026-08-27T18:29:40Z</time>
  <course>4.73</course>
  <speed>0.03</speed>
  <fix>3d</fix>
</trkpt>
<trkpt lat="40.0728347" lon="-105.2309346">
  <ele>1595.56</ele>
  <time>2026-08-27T18:29:40Z</time>
  <course>49.99</course>
  <speed>0.01</speed>
  <fix>3d</fix>
</trkpt>
<trkpt lat="40.0728348" lon="-105.2309346">
  <ele>1595.49</ele>
  <time>2026-08-27T18:29:40Z</time>
  <course>2.53</course>
  <speed>0.03</speed>
  <fix>3d</fix>
</trkpt>
<trkpt lat="40.0728347" lon="-105.2309346">
  <ele>1595.56</ele>
  <time>2026-08-27T18:29:40Z</time>
  <course>51.45</course>
  <speed>0.01</speed>
  <fix>3d</fix>
</trkpt>
<trkpt lat="40.0728349" lon="-105.2309346">
  <ele>1595.5</ele>
  <time>2026-08-27T18:29:40Z</time>
  <course>0.61</course>
  <speed>0.03</speed>
  <fix>3d</fix>
</trkpt>
<trkpt lat="40.0728348" lon="-105.2309346">
  <ele>1595.56</ele>
  <time>2026-08-27T18:29:40Z</time>
  <course>52.97</course>
  <speed>0.01</speed>
  <fix>3d</fix>
</trkpt>
<trkpt lat="40.072835" lon="-105.2309346">
  <ele>1595.5</ele>
  <time>2026-08-27T18:29:40Z</time>
  <course>359.2</course>
  <speed>0.03</speed>
  <fix>3d</fix>
</trkpt>
<trkpt lat="40.0728349" lon="-105.2309346">
  <ele>1595.56</ele>
  <time>2026-08-27T18:29:40Z</time>
  <course>54.4</course>
  <speed>0.01</speed>
  <fix>3d</fix>
</trkpt>
<trkpt lat="40.0728351" lon="-105.2309346">
  <ele>1595.5</ele>
  <time>2026-08-27T18:29:40Z</time>
  <course>358.6</course>
  <speed>0.03</speed>
  <fix>3d</fix>
</trkpt>
<trkpt lat="40.0728349" lon="-105.2309346">
  <ele>1595.56</ele>
  <time>2026-08-27T18:29:40Z</time>
  <course>55.62</course>
  <speed>0.0</speed>
  <fix>3d</fix>
</trkpt>
<trkpt lat="40.0728351" lon="-105.2309346">
  <ele>1595.5</ele>
  <time>2026-08-27T18:29:40Z</time>
  <course>359.18</course>
  <speed>0.03</speed>
  <fix>3d</fix>
</trkpt>
<trkpt lat="40.072835" lon="-105.2309346">
  <ele>1595.56</ele>
  <time>2026-08-27T18:29:40Z</time>
  <course>56.53</course>
  <speed>0.0</speed>
  <fix>3d</fix>
</trkpt>
<trkpt lat="40.0728352" lon="-105.2309346">
  <ele>1595.5</ele>
  <time>2026-08-27T18:29:40Z</time>
  <course>0.77</course>
  <speed>0.03</speed>
  <fix>3d</fix>
</trkpt>
<trkpt lat="40.072835" lon="-105.2309346">
  <ele>1595.57</ele>
  <time>2026-08-27T18:29:40Z</time>
  <course>56.97</course>
  <speed>0.0</speed>
  <fix>3d</fix>
</trkpt>
<trkpt lat="40.0728352" lon="-105.2309346">
  <ele>1595.5</ele>
  <time>2026-08-27T18:29:40Z</time>
  <course>4.2</course>
  <speed>0.03</speed>
  <fix>3d</fix>
</trkpt>
<trkpt lat="40.0728351" lon="-105.2309346">
  <ele>1595.57</ele>
  <time>2026-08-27T18:29:40Z</time>
  <course>56.93</course>
  <speed>0.0</speed>
  <fix>3d</fix>
</trkpt>
<trkpt lat="40.0728353" lon="-105.2309346">
  <ele>1595.5</ele>
  <time>2026-08-27T18:29:40Z</time>
  <course>9.88</course>
  <speed>0.02</speed>
  <fix>3d</fix>
</trkpt>
<trkpt lat="40.0728351" lon="-105.2309346">
  <ele>1595.57</ele>
  <time>2026-08-27T18:29:40Z</time>
  <course>56.44</course>
  <speed>0.01</speed>
  <fix>3d</fix>
</trkpt>
<trkpt lat="40.0728353" lon="-105.2309345">
  <ele>1595.5</ele>
  <time>2026-08-27T18:29:40Z</time>
  <course>15.8</course>
  <speed>0.02</speed>
  <fix>3d</fix>
</trkpt>
<trkpt lat="40.0728352" lon="-105.2309345">
  <ele>1595.57</ele>
  <time>2026-08-27T18:29:40Z</time>
  <course>55.51</course>
  <speed>0.01</speed>
  <fix>3d</fix>
</trkpt>
<trkpt lat="40.0728353" lon="-105.2309344">
  <ele>1595.5</ele>
  <time>2026-08-27T18:29:40Z</time>
  <course>21.42</course>
  <speed>0.02</speed>
  <fix>3d</fix>
</trkpt>
<trkpt lat="40.0728352" lon="-105.2309345">
  <ele>1595.57</ele>
  <time>2026-08-27T18:29:40Z</time>
  <course>54.28</course>
  <speed>0.01</speed>
  <fix>3d</fix>
</trkpt>
<trkpt lat="40.0728354" lon="-105.2309344">
  <ele>1595.5</ele>
  <time>2026-08-27T18:29:40Z</time>
  <course>25.51</course>
  <speed>0.02</speed>
  <fix>3d</fix>
</trkpt>
<trkpt lat="40.0728353" lon="-105.2309345">
  <ele>1595.57</ele>
  <time>2026-08-27T18:29:40Z</time>
  <course>52.85</course>
  <speed>0.01</speed>
  <fix>3d</fix>
</trkpt>
<trkpt lat="40.0728354" lon="-105.2309344">
  <ele>1595.49</ele>
  <time>2026-08-27T18:29:40Z</time>
  <course>27.15</course>
  <speed>0.02</speed>
  <fix>3d</fix>
</trkpt>
<trkpt lat="40.0728353" lon="-105.2309344">
  <ele>1595.56</ele>
  <time>2026-08-27T18:29:40Z</time>
  <course>51.29</course>
  <speed>0.01</speed>
  <fix>3d</fix>
</trkpt>
<trkpt lat="40.0728355" lon="-105.2309344">
  <ele>1595.49</ele>
  <time>2026-08-27T18:29:40Z</time>
  <course>27.88</course>
  <speed>0.03</speed>
  <fix>3d</fix>
</trkpt>
<trkpt lat="40.0728354" lon="-105.2309344">
  <ele>1595.56</ele>
  <time>2026-08-27T18:29:40Z</time>
  <course>49.85</course>
  <speed>0.01</speed>
  <fix>3d</fix>
</trkpt>
<trkpt lat="40.0728356" lon="-105.2309344">
  <ele>1595.49</ele>
  <time>2026-08-27T18:29:40Z</time>
  <course>27.13</course>
  <speed>0.03</speed>
  <fix>3d</fix>
</trkpt>
<trkpt lat="40.0728354" lon="-105.2309344">
  <ele>1595.57</ele>
  <time>2026-08-27T18:29:40Z</time>
  <course>48.58</course>
  <speed>0.01</speed>
  <fix>3d</fix>
</trkpt>
<trkpt lat="40.0728356" lon="-105.2309344">
  <ele>1595.49</ele>
  <time>2026-08-27T18:29:40Z</time>
  <course>24.76</course>
  <speed>0.03</speed>
  <fix>3d</fix>
</trkpt>
<trkpt lat="40.0728355" lon="-105.2309343">
  <ele>1595.57</ele>
  <time>2026-08-27T18:29:40Z</time>
  <course>47.72</course>
  <speed>0.01414213562373095</speed>
  <fix>3d</fix>
</trkpt>
<trkpt lat="40.0728357" lon="-105.2309343">
  <ele>1595.49</ele>
  <time>2026-08-27T18:29:40Z</time>
  <course>20.83</course>
  <speed>0.03</speed>
  <fix>3d</fix>
</trkpt>
<trkpt lat="40.0728355" lon="-105.2309343">
  <ele>1595.57</ele>
  <time>2026-08-27T18:29:40Z</time>
  <course>47.28</course>
  <speed>0.01</speed>
  <fix>3d</fix>
</trkpt>
<trkpt lat="40.0728357" lon="-105.2309343">
  <ele>1595.49</ele>
  <time>2026-08-27T18:29:40Z</time>
  <course>15.6</course>
  <speed>0.03</speed>
  <fix>3d</fix>
</trkpt>
<trkpt lat="40.0728356" lon="-105.2309343">
  <ele>1595.57</ele>
  <time>2026-08-27T18:29:40Z</time>
  <course>47.29</course>
  <speed>0.01</speed>
  <fix>3d</fix>
</trkpt>
<trkpt lat="40.0728358" lon="-105.2309343">
  <ele>1595.49</ele>
  <time>2026-08-27T18:29:40Z</time>
  <course>11.0</course>
  <speed>0.03</speed>
  <fix>3d</fix>
</trkpt>
<trkpt lat="40.0728357" lon="-105.2309343">
  <ele>1595.57</ele>
  <time>2026-08-27T18:29:40Z</time>
  <course>47.82</course>
  <speed>0.01</speed>
  <fix>3d</fix>
</trkpt>
<trkpt lat="40.0728359" lon="-105.2309343">
  <ele>1595.49</ele>
  <time>2026-08-27T18:29:40Z</time>
  <course>7.44</course>
  <speed>0.03</speed>
  <fix>3d</fix>
</trkpt>
<trkpt lat="40.0728357" lon="-105.2309343">
  <ele>1595.58</ele>
  <time>2026-08-27T18:29:40Z</time>
  <course>48.75</course>
  <speed>0.01</speed>
  <fix>3d</fix>
</trkpt>
<trkpt lat="40.0728359" lon="-105.2309343">
  <ele>1595.49</ele>
  <time>2026-08-27T18:29:40Z</time>
  <course>4.21</course>
  <speed>0.03</speed>
  <fix>3d</fix>
</trkpt>
<trkpt lat="40.0728358" lon="-105.2309343">
  <ele>1595.58</ele>
  <time>2026-08-27T18:29:40Z</time>
  <course>50.02</course>
  <speed>0.01</speed>
  <fix>3d</fix>
</trkpt>
<trkpt lat="40.072836" lon="-105.2309343">
  <ele>1595.48</ele>
  <time>2026-08-27T18:29:40Z</time>
  <course>1.49</course>
  <speed>0.03</speed>
  <fix>3d</fix>
</trkpt>
<trkpt lat="40.0728359" lon="-105.2309343">
  <ele>1595.57</ele>
  <time>2026-08-27T18:29:40Z</time>
  <course>51.47</course>
  <speed>0.01</speed>
  <fix>3d</fix>
</trkpt>
<trkpt lat="40.072836" lon="-105.2309343">
  <ele>1595.48</ele>
  <time>2026-08-27T18:29:40Z</time>
  <course>0.41</course>
  <speed>0.03</speed>
  <fix>3d</fix>
</trkpt>
<trkpt lat="40.0728359" lon="-105.2309343">
  <ele>1595.57</ele>
  <time>2026-08-27T18:29:40Z</time>
  <course>52.98</course>
  <speed>0.01</speed>
  <fix>3d</fix>
</trkpt>
<trkpt lat="40.0728361" lon="-105.2309343">
  <ele>1595.48</ele>
  <time>2026-08-27T18:29:40Z</time>
  <course>0.67</course>
  <speed>0.03</speed>
  <fix>3d</fix>
</trkpt>
<trkpt lat="40.072836" lon="-105.2309343">
  <ele>1595.57</ele>
  <time>2026-08-27T18:29:40Z</time>
  <course>54.39</course>
  <speed>0.01</speed>
  <fix>3d</fix>
</trkpt>
<trkpt lat="40.0728362" lon="-105.2309343">
  <ele>1595.47</ele>
  <time>2026-08-27T18:29:40Z</time>
  <course>0.97</course>
  <speed>0.03</speed>
  <fix>3d</fix>
</trkpt>
<trkpt lat="40.072836" lon="-105.2309343">
  <ele>1595.57</ele>
  <time>2026-08-27T18:29:40Z</time>
  <course>55.65</course>
  <speed>0.0</speed>
  <fix>3d</fix>
</trkpt>
<trkpt lat="40.0728362" lon="-105.2309343">
  <ele>1595.47</ele>
  <time>2026-08-27T18:29:40Z</time>
  <course>1.27</course>
  <speed>0.03</speed>
  <fix>3d</fix>
</trkpt>
<trkpt lat="40.0728361" lon="-105.2309343">
  <ele>1595.57</ele>
  <time>2026-08-27T18:29:40Z</time>
  <course>56.54</course>
  <speed>0.0</speed>
  <fix>3d</fix>
</trkpt>
<trkpt lat="40.0728363" lon="-105.2309343">
  <ele>1595.47</ele>
  <time>2026-08-27T18:29:40Z</time>
  <course>2.48</course>
  <speed>0.03</speed>
  <fix>3d</fix>
</trkpt>
<trkpt lat="40.0728362" lon="-105.2309343">
  <ele>1595.57</ele>
  <time>2026-08-27T18:29:40Z</time>
  <course>56.98</course>
  <speed>0.0</speed>
  <fix>3d</fix>
</trkpt>
<trkpt lat="40.0728364" lon="-105.2309343">
  <ele>1595.47</ele>
  <time>2026-08-27T18:29:40Z</time>
  <course>5.99</course>
  <speed>0.02</speed>
  <fix>3d</fix>
</trkpt>
<trkpt lat="40.0728362" lon="-105.2309343">
  <ele>1595.56</ele>
  <time>2026-08-27T18:29:40Z</time>
  <course>56.94</course>
  <speed>0.0</speed>
  <fix>3d</fix>
</trkpt>
<trkpt lat="40.0728364" lon="-105.2309342">
  <ele>1595.47</ele>
  <time>2026-08-27T18:29:40Z</time>
  <course>11.6</course>
  <speed>0.02</speed>
  <fix>3d</fix>
</trkpt>
<trkpt lat="40.0728362" lon="-105.2309343">
  <ele>1595.56</ele>
  <time>2026-08-27T18:29:40Z</time>
  <course>56.44</course>
  <speed>0.01</speed>
  <fix>3d</fix>
</trkpt>
<trkpt lat="40.0728365" lon="-105.2309341">
  <ele>1595.46</ele>
  <time>2026-08-27T18:29:40Z</time>
  <course>18.14</course>
  <speed>0.02</speed>
  <fix>3d</fix>
</trkpt>
<trkpt lat="40.0728363" lon="-105.2309342">
  <ele>1595.56</ele>
  <time>2026-08-27T18:29:40Z</time>
  <course>55.53</course>
  <speed>0.01</speed>
  <fix>3d</fix>
</trkpt>
<trkpt lat="40.0728365" lon="-105.2309341">
  <ele>1595.46</ele>
  <time>2026-08-27T18:29:40Z</time>
  <course>24.14</course>
  <speed>0.02</speed>
  <fix>3d</fix>
</trkpt>
<trkpt lat="40.0728363" lon="-105.2309342">
  <ele>1595.56</ele>
  <time>2026-08-27T18:29:40Z</time>
  <course>54.28</course>
  <speed>0.01</speed>
  <fix>3d</fix>
</trkpt>
<trkpt lat="40.0728365" lon="-105.2309341">
  <ele>1595.46</ele>
  <time>2026-08-27T18:29:40Z</time>
  <course>27.78</course>
  <speed>0.02</speed>
  <fix>3d</fix>
</trkpt>
<trkpt lat="40.0728364" lon="-105.2309341">
  <ele>1595.56</ele>
  <time>2026-08-27T18:29:40Z</time>
  <course>52.84</course>
  <speed>0.01</speed>
  <fix>3d</fix>
</trkpt>
<trkpt lat="40.0728365" lon="-105.2309341">
  <ele>1595.46</ele>
  <time>2026-08-27T18:29:40Z</time>
  <course>29.61</course>
  <speed>0.02</speed>
  <fix>3d</fix>
</trkpt>
<trkpt lat="40.0728364" lon="-105.2309341">
  <ele>1595.56</ele>
  <time>2026-08-27T18:29:40Z</time>
  <course>51.27</course>
  <speed>0.01</speed>
  <fix>3d</fix>
</trkpt>
<trkpt lat="40.0728366" lon="-105.2309341">
  <ele>1595.46</ele>
  <time>2026-08-27T18:29:40Z</time>
  <course>30.08</course>
  <speed>0.02</speed>
  <fix>3d</fix>
</trkpt>
<trkpt lat="40.0728365" lon="-105.2309341">
  <ele>1595.56</ele>
  <time>2026-08-27T18:29:40Z</time>
  <course>49.8</course>
  <speed>0.01</speed>
  <fix>3d</fix>
</trkpt>
<trkpt lat="40.0728366" lon="-105.2309341">
  <ele>1595.46</ele>
  <time>2026-08-27T18:29:40Z</time>
  <course>28.48</course>
  <speed>0.03</speed>
  <fix>3d</fix>
</trkpt>
<trkpt lat="40.0728365" lon="-105.230934">
  <ele>1595.56</ele>
  <time>2026-08-27T18:29:40Z</time>
  <course>48.57</course>
  <speed>0.01</speed>
  <fix>3d</fix>
</trkpt>
<trkpt lat="40.0728367" lon="-105.230934">
  <ele>1595.46</ele>
  <time>2026-08-27T18:29:40Z</time>
  <course>25.21</course>
  <speed>0.03</speed>
  <fix>3d</fix>
</trkpt>
<trkpt lat="40.0728366" lon="-105.230934">
  <ele>1595.56</ele>
  <time>2026-08-27T18:29:40Z</time>
  <course>47.69</course>
  <speed>0.01</speed>
  <fix>3d</fix>
</trkpt>
<trkpt lat="40.0728368" lon="-105.2309339">
  <ele>1595.46</ele>
  <time>2026-08-27T18:29:40Z</time>
  <course>21.14</course>
  <speed>0.03</speed>
  <fix>3d</fix>
</trkpt>
<trkpt lat="40.0728366" lon="-105.230934">
  <ele>1595.56</ele>
  <time>2026-08-27T18:29:40Z</time>
  <course>47.27</course>
  <speed>0.01</speed>
  <fix>3d</fix>
</trkpt>
<trkpt lat="40.0728368" lon="-105.2309339">
  <ele>1595.46</ele>
  <time>2026-08-27T18:29:40Z</time>
  <course>16.41</course>
  <speed>0.03</speed>
  <fix>3d</fix>
</trkpt>
<trkpt lat="40.0728367" lon="-105.230934">
  <ele>1595.56</ele>
  <time>2026-08-27T18:29:41Z</time>
  <course>47.28</course>
  <speed>0.01</speed>
  <fix>3d</fix>
</trkpt>
<trkpt lat="40.0728369" lon="-105.2309339">
  <ele>1595.46</ele>
  <time>2026-08-27T18:29:41Z</time>
  <course>11.53</course>
  <speed>0.03</speed>
  <fix>3d</fix>
</trkpt>
<trkpt lat="40.0728368" lon="-105.2309339">
  <ele>1595.56</ele>
  <time>2026-08-27T18:29:41Z</time>
  <course>47.79</course>
  <speed>0.01</speed>
  <fix>3d</fix>
</trkpt>
<trkpt lat="40.072837" lon="-105.2309339">
  <ele>1595.46</ele>
  <time>2026-08-27T18:29:41Z</time>
  <course>6.9</course>
  <speed>0.03</speed>
  <fix>3d</fix>
</trkpt>
<trkpt lat="40.0728368" lon="-105.2309339">
  <ele>1595.57</ele>
  <time>2026-08-27T18:29:41Z</time>
  <course>48.73</course>
  <speed>0.01</speed>
  <fix>3d</fix>
</trkpt>
<trkpt lat="40.072837" lon="-105.2309339">
  <ele>1595.46</ele>
  <time>2026-08-27T18:29:41Z</time>
  <course>2.39</course>
  <speed>0.03</speed>
  <fix>3d</fix>
</trkpt>
<trkpt lat="40.0728369" lon="-105.2309339">
  <ele>1595.57</ele>
  <time>2026-08-27T18:29:41Z</time>
  <course>50.0</course>
  <speed>0.01</speed>
  <fix>3d</fix>
</trkpt>
<trkpt lat="40.0728371" lon="-105.2309339">
  <ele>1595.46</ele>
  <time>2026-08-27T18:29:41Z</time>
  <course>358.74</course>
  <speed>0.03</speed>
  <fix>3d</fix>
</trkpt>
<trkpt lat="40.072837" lon="-105.2309339">
  <ele>1595.56</ele>
  <time>2026-08-27T18:29:41Z</time>
  <course>51.46</course>
  <speed>0.01</speed>
  <fix>3d</fix>
</trkpt>
<trkpt lat="40.0728371" lon="-105.2309339">
  <ele>1595.46</ele>
  <time>2026-08-27T18:29:41Z</time>
  <course>356.3</course>
  <speed>0.03</speed>
  <fix>3d</fix>
</trkpt>
<trkpt lat="40.072837" lon="-105.2309339">
  <ele>1595.56</ele>
  <time>2026-08-27T18:29:41Z</time>
  <course>52.98</course>
  <speed>0.01</speed>
  <fix>3d</fix>
</trkpt>
<trkpt lat="40.0728372" lon="-105.2309339">
  <ele>1595.46</ele>
  <time>2026-08-27T18:29:41Z</time>
  <course>354.51</course>
  <speed>0.03</speed>
  <fix>3d</fix>
</trkpt>
<trkpt lat="40.0728371" lon="-105.2309339">
  <ele>1595.56</ele>
  <time>2026-08-27T18:29:41Z</time>
  <course>54.4</course>
  <speed>0.0</speed>
  <fix>3d</fix>
</trkpt>
<trkpt lat="40.0728372" lon="-105.2309339">
  <ele>1595.45</ele>
  <time>2026-08-27T18:29:41Z</time>
  <course>353.11</course>
  <speed>0.03</speed>
  <fix>3d</fix>
</trkpt>
<trkpt lat="40.0728371" lon="-105.2309339">
  <ele>1595.56</ele>
  <time>2026-08-27T18:29:41Z</time>
  <course>55.64</course>
  <speed>0.0</speed>
  <fix>3d</fix>
</trkpt>
<trkpt lat="40.0728373" lon="-105.2309339">
  <ele>1595.45</ele>
  <time>2026-08-27T18:29:41Z</time>
  <course>353.63</course>
  <speed>0.03</speed>
  <fix>3d</fix>
</trkpt>
<trkpt lat="40.0728372" lon="-105.2309339">
  <ele>1595.56</ele>
  <time>2026-08-27T18:29:41Z</time>
  <course>56.51</course>
  <speed>0.0</speed>
  <fix>3d</fix>
</trkpt>
<trkpt lat="40.0728374" lon="-105.2309339">
  <ele>1595.45</ele>
  <time>2026-08-27T18:29:41Z</time>
  <course>356.66</course>
  <speed>0.02</speed>
  <fix>3d</fix>
</trkpt>
<trkpt lat="40.0728372" lon="-105.2309339">
  <ele>1595.56</ele>
  <time>2026-08-27T18:29:41Z</time>
  <course>56.97</course>
  <speed>0.0</speed>
  <fix>3d</fix>
</trkpt>
<trkpt lat="40.0728375" lon="-105.2309339">
  <ele>1595.45</ele>
  <time>2026-08-27T18:29:41Z</time>
  <course>1.34</course>
  <speed>0.02</speed>
  <fix>3d</fix>
</trkpt>
<trkpt lat="40.0728373" lon="-105.2309339">
  <ele>1595.56</ele>
  <time>2026-08-27T18:29:41Z</time>
  <course>56.93</course>
  <speed>0.0</speed>
  <fix>3d</fix>
</trkpt>
<trkpt lat="40.0728375" lon="-105.2309339">
  <ele>1595.45</ele>
  <time>2026-08-27T18:29:41Z</time>
  <course>7.14</course>
  <speed>0.02</speed>
  <fix>3d</fix>
</trkpt>
<trkpt lat="40.0728373" lon="-105.2309339">
  <ele>1595.56</ele>
  <time>2026-08-27T18:29:41Z</time>
  <course>56.45</course>
  <speed>0.0</speed>
  <fix>3d</fix>
</trkpt>
<trkpt lat="40.0728375" lon="-105.2309339">
  <ele>1595.45</ele>
  <time>2026-08-27T18:29:41Z</time>
  <course>12.95</course>
  <speed>0.02</speed>
  <fix>3d</fix>
</trkpt>
<trkpt lat="40.0728374" lon="-105.2309339">
  <ele>1595.56</ele>
  <time>2026-08-27T18:29:41Z</time>
  <course>55.52</course>
  <speed>0.01</speed>
  <fix>3d</fix>
</trkpt>
<trkpt lat="40.0728376" lon="-105.2309339">
  <ele>1595.45</ele>
  <time>2026-08-27T18:29:41Z</time>
  <course>18.9</course>
  <speed>0.02</speed>
  <fix>3d</fix>
</trkpt>
<trkpt lat="40.0728374" lon="-105.2309339">
  <ele>1595.56</ele>
  <time>2026-08-27T18:29:41Z</time>
  <course>54.24</course>
  <speed>0.01</speed>
  <fix>3d</fix>
</trkpt>
<trkpt lat="40.0728376" lon="-105.2309339">
  <ele>1595.45</ele>
  <time>2026-08-27T18:29:41Z</time>
  <course>24.1</course>
  <speed>0.02</speed>
  <fix>3d</fix>
</trkpt>
<trkpt lat="40.0728375" lon="-105.2309338">
  <ele>1595.56</ele>
  <time>2026-08-27T18:29:41Z</time>
  <course>52.76</course>
  <speed>0.01</speed>
  <fix>3d</fix>
</trkpt>
<trkpt lat="40.0728377" lon="-105.2309339">
  <ele>1595.45</ele>
  <time>2026-08-27T18:29:41Z</time>
  <course>27.04</course>
  <speed>0.02</speed>
  <fix>3d</fix>
</trkpt>
<trkpt lat="40.0728375" lon="-105.2309338">
  <ele>1595.56</ele>
  <time>2026-08-27T18:29:41Z</time>
  <course>51.25</course>
  <speed>0.01</speed>
  <fix>3d</fix>
</trkpt>
<trkpt lat="40.0728377" lon="-105.2309339">
  <ele>1595.45</ele>
  <time>2026-08-27T18:29:41Z</time>
  <course>27.63</course>
  <speed>0.02</speed>
  <fix>3d</fix>
</trkpt>
<trkpt lat="40.0728376" lon="-105.2309338">
  <ele>1595.56</ele>
  <time>2026-08-27T18:29:41Z</time>
  <course>49.81</course>
  <speed>0.01</speed>
  <fix>3d</fix>
</trkpt>
<trkpt lat="40.0728377" lon="-105.2309338">
  <ele>1595.45</ele>
  <time>2026-08-27T18:29:41Z</time>
  <course>26.35</course>
  <speed>0.02</speed>
  <fix>3d</fix>
</trkpt>
<trkpt lat="40.0728376" lon="-105.2309338">
  <ele>1595.56</ele>
  <time>2026-08-27T18:29:41Z</time>
  <course>48.57</course>
  <speed>0.01</speed>
  <fix>3d</fix>
</trkpt>
<trkpt lat="40.0728378" lon="-105.2309337">
  <ele>1595.45</ele>
  <time>2026-08-27T18:29:41Z</time>
  <course>24.3</course>
  <speed>0.03</speed>
  <fix>3d</fix>
</trkpt>
<trkpt lat="40.0728377" lon="-105.2309337">
  <ele>1595.56</ele>
  <time>2026-08-27T18:29:41Z</time>
  <course>47.72</course>
  <speed>0.01</speed>
  <fix>3d</fix>
</trkpt>
<trkpt lat="40.0728378" lon="-105.2309337">
  <ele>1595.45</ele>
  <time>2026-08-27T18:29:41Z</time>
  <course>21.33</course>
  <speed>0.03</speed>
  <fix>3d</fix>
</trkpt>
<trkpt lat="40.0728377" lon="-105.2309337">
  <ele>1595.55</ele>
  <time>2026-08-27T18:29:41Z</time>
  <course>47.26</course>
  <speed>0.01</speed>
  <fix>3d</fix>
</trkpt>
<trkpt lat="40.0728379" lon="-105.2309337">
  <ele>1595.45</ele>
  <time>2026-08-27T18:29:41Z</time>
  <course>17.45</course>
  <speed>0.03</speed>
  <fix>3d</fix>
</trkpt>
<trkpt lat="40.0728378" lon="-105.2309337">
  <ele>1595.55</ele>
  <time>2026-08-27T18:29:41Z</time>
  <course>47.28</course>
  <speed>0.01</speed>
  <fix>3d</fix>
</trkpt>
<trkpt lat="40.072838" lon="-105.2309337">
  <ele>1595.45</ele>
  <time>2026-08-27T18:29:41Z</time>
  <course>13.02</course>
  <speed>0.03</speed>
  <fix>3d</fix>
</trkpt>
<trkpt lat="40.0728379" lon="-105.2309337">
  <ele>1595.55</ele>
  <time>2026-08-27T18:29:41Z</time>
  <course>47.77</course>
  <speed>0.01</speed>
  <fix>3d</fix>
</trkpt>
<trkpt lat="40.072838" lon="-105.2309337">
  <ele>1595.45</ele>
  <time>2026-08-27T18:29:41Z</time>
  <course>8.76</course>
  <speed>0.03</speed>
  <fix>3d</fix>
</trkpt>
<trkpt lat="40.0728379" lon="-105.2309337">
  <ele>1595.55</ele>
  <time>2026-08-27T18:29:41Z</time>
  <course>48.69</course>
  <speed>0.01</speed>
  <fix>3d</fix>
</trkpt>
<trkpt lat="40.0728381" lon="-105.2309337">
  <ele>1595.45</ele>
  <time>2026-08-27T18:29:41Z</time>
  <course>5.64</course>
  <speed>0.03</speed>
  <fix>3d</fix>
</trkpt>
<trkpt lat="40.072838" lon="-105.2309337">
  <ele>1595.55</ele>
  <time>2026-08-27T18:29:41Z</time>
  <course>49.94</course>
  <speed>0.01</speed>
  <fix>3d</fix>
</trkpt>
<trkpt lat="40.0728382" lon="-105.2309337">
  <ele>1595.45</ele>
  <time>2026-08-27T18:29:41Z</time>
  <course>3.68</course>
  <speed>0.03</speed>
  <fix>3d</fix>
</trkpt>
<trkpt lat="40.0728381" lon="-105.2309337">
  <ele>1595.55</ele>
  <time>2026-08-27T18:29:41Z</time>
  <course>51.4</course>
  <speed>0.01</speed>
  <fix>3d</fix>
</trkpt>
<trkpt lat="40.0728382" lon="-105.2309337">
  <ele>1595.45</ele>
  <time>2026-08-27T18:29:41Z</time>
  <course>1.91</course>
  <speed>0.03</speed>
  <fix>3d</fix>
</trkpt>
<trkpt lat="40.0728381" lon="-105.2309337">
  <ele>1595.56</ele>
  <time>2026-08-27T18:29:41Z</time>
  <course>52.94</course>
  <speed>0.01</speed>
  <fix>3d</fix>
</trkpt>
<trkpt lat="40.0728383" lon="-105.2309337">
  <ele>1595.45</ele>
  <time>2026-08-27T18:29:41Z</time>
  <course>0.63</course>
  <speed>0.03</speed>
  <fix>3d</fix>
</trkpt>
<trkpt lat="40.0728382" lon="-105.2309337">
  <ele>1595.56</ele>
  <time>2026-08-27T18:29:41Z</time>
  <course>54.4</course>
  <speed>0.01</speed>
  <fix>3d</fix>
</trkpt>
<trkpt lat="40.0728383" lon="-105.2309337">
  <ele>1595.45</ele>
  <time>2026-08-27T18:29:41Z</time>
  <course>0.86</course>
  <speed>0.03</speed>
  <fix>3d</fix>
</trkpt>
<trkpt lat="40.0728382" lon="-105.2309337">
  <ele>1595.56</ele>
  <time>2026-08-27T18:29:41Z</time>
  <course>55.62</course>
  <speed>0.0</speed>
  <fix>3d</fix>
</trkpt>
<trkpt lat="40.0728384" lon="-105.2309337">
  <ele>1595.46</ele>
  <time>2026-08-27T18:29:41Z</time>
  <course>2.08</course>
  <speed>0.03</speed>
  <fix>3d</fix>
</trkpt>
<trkpt lat="40.0728383" lon="-105.2309337">
  <ele>1595.56</ele>
  <time>2026-08-27T18:29:41Z</time>
  <course>56.5</course>
  <speed>0.0</speed>
  <fix>3d</fix>
</trkpt>
<trkpt lat="40.0728384" lon="-105.2309337">
  <ele>1595.46</ele>
  <time>2026-08-27T18:29:41Z</time>
  <course>4.24</course>
  <speed>0.03</speed>
  <fix>3d</fix>
</trkpt>
<trkpt lat="40.0728383" lon="-105.2309337">
  <ele>1595.55</ele>
  <time>2026-08-27T18:29:41Z</time>
  <course>56.97</course>
  <speed>0.0</speed>
  <fix>3d</fix>
</trkpt>
<trkpt lat="40.0728385" lon="-105.2309337">
  <ele>1595.46</ele>
  <time>2026-08-27T18:29:41Z</time>
  <course>7.48</course>
  <speed>0.02</speed>
  <fix>3d</fix>
</trkpt>
<trkpt lat="40.0728384" lon="-105.2309337">
  <ele>1595.55</ele>
  <time>2026-08-27T18:29:41Z</time>
  <course>56.93</course>
  <speed>0.0</speed>
  <fix>3d</fix>
</trkpt>
<trkpt lat="40.0728386" lon="-105.2309337">
  <ele>1595.46</ele>
  <time>2026-08-27T18:29:41Z</time>
  <course>11.72</course>
  <speed>0.02</speed>
  <fix>3d</fix>
</trkpt>
<trkpt lat="40.0728384" lon="-105.2309337">
  <ele>1595.55</ele>
  <time>2026-08-27T18:29:41Z</time>
  <course>56.4</course>
  <speed>0.0</speed>
  <fix>3d</fix>
</trkpt>
<trkpt lat="40.0728386" lon="-105.2309337">
  <ele>1595.46</ele>
  <time>2026-08-27T18:29:41Z</time>
  <course>16.7</course>
  <speed>0.02</speed>
  <fix>3d</fix>
</trkpt>
<trkpt lat="40.0728385" lon="-105.2309337">
  <ele>1595.55</ele>
  <time>2026-08-27T18:29:41Z</time>
  <course>55.48</course>
  <speed>0.01</speed>
  <fix>3d</fix>
</trkpt>
<trkpt lat="40.0728387" lon="-105.2309336">
  <ele>1595.46</ele>
  <time>2026-08-27T18:29:41Z</time>
  <course>22.02</course>
  <speed>0.02</speed>
  <fix>3d</fix>
</trkpt>
<trkpt lat="40.0728385" lon="-105.2309336">
  <ele>1595.56</ele>
  <time>2026-08-27T18:29:41Z</time>
  <course>54.23</course>
  <speed>0.01</speed>
  <fix>3d</fix>
</trkpt>
<trkpt lat="40.0728387" lon="-105.2309336">
  <ele>1595.46</ele>
  <time>2026-08-27T18:29:41Z</time>
  <course>26.42</course>
  <speed>0.02</speed>
  <fix>3d</fix>
</trkpt>
<trkpt lat="40.0728386" lon="-105.2309336">
  <ele>1595.56</ele>
  <time>2026-08-27T18:29:41Z</time>
  <course>52.76</course>
  <speed>0.01</speed>
  <fix>3d</fix>
</trkpt>
<trkpt lat="40.0728388" lon="-105.2309336">
  <ele>1595.46</ele>
  <time>2026-08-27T18:29:41Z</time>
  <course>29.53</course>
  <speed>0.02</speed>
  <fix>3d</fix>
</trkpt>
<trkpt lat="40.0728386" lon="-105.2309336">
  <ele>1595.56</ele>
  <time>2026-08-27T18:29:41Z</time>
  <course>51.25</course>
  <speed>0.01</speed>
  <fix>3d</fix>
</trkpt>
<trkpt lat="40.0728388" lon="-105.2309335">
  <ele>1595.47</ele>
  <time>2026-08-27T18:29:41Z</time>
  <course>30.66</course>
  <speed>0.02</speed>
  <fix>3d</fix>
</trkpt>
<trkpt lat="40.0728387" lon="-105.2309335">
  <ele>1595.56</ele>
  <time>2026-08-27T18:29:41Z</time>
  <course>49.8</course>
  <speed>0.01</speed>
  <fix>3d</fix>
</trkpt>
<trkpt lat="40.0728389" lon="-105.2309334">
  <ele>1595.47</ele>
  <time>2026-08-27T18:29:41Z</time>
  <course>29.77</course>
  <speed>0.03</speed>
  <fix>3d</fix>
</trkpt>
<trkpt lat="40.0728387" lon="-105.2309335">
  <ele>1595.56</ele>
  <time>2026-08-27T18:29:41Z</time>
  <course>48.56</course>
  <speed>0.01</speed>
  <fix>3d</fix>
</trkpt>
<trkpt lat="40.0728389" lon="-105.2309334">
  <ele>1595.47</ele>
  <time>2026-08-27T18:29:41Z</time>
  <course>27.61</course>
  <speed>0.03</speed>
  <fix>3d</fix>
</trkpt>
<trkpt lat="40.0728388" lon="-105.2309334">
  <ele>1595.56</ele>
  <time>2026-08-27T18:29:41Z</time>
  <course>47.72</course>
  <speed>0.01414213562373095</speed>
  <fix>3d</fix>
</trkpt>
<trkpt lat="40.0728389" lon="-105.2309334">
  <ele>1595.47</ele>
  <time>2026-08-27T18:29:41Z</time>
  <course>24.01</course>
  <speed>0.03</speed>
  <fix>3d</fix>
</trkpt>
<trkpt lat="40.0728388" lon="-105.2309334">
  <ele>1595.57</ele>
  <time>2026-08-27T18:29:41Z</time>
  <course>47.26</course>
  <speed>0.01414213562373095</speed>
  <fix>3d</fix>
</trkpt>
<trkpt lat="40.072839" lon="-105.2309334">
  <ele>1595.47</ele>
  <time>2026-08-27T18:29:41Z</time>
  <course>20.04</course>
  <speed>0.03</speed>
  <fix>3d</fix>
</trkpt>
<trkpt lat="40.0728389" lon="-105.2309334">
  <ele>1595.56</ele>
  <time>2026-08-27T18:29:41Z</time>
  <course>47.21</course>
  <speed>0.01414213562373095</speed>
  <fix>3d</fix>
</trkpt>
<trkpt lat="40.072839" lon="-105.2309334">
  <ele>1595.47</ele>
  <time>2026-08-27T18:29:41Z</time>
  <course>16.41</course>
  <speed>0.03</speed>
  <fix>3d</fix>
</trkpt>
<trkpt lat="40.072839" lon="-105.2309334">
  <ele>1595.56</ele>
  <time>2026-08-27T18:29:41Z</time>
  <course>47.14</course>
  <speed>0.01414213562373095</speed>
  <fix>3d</fix>
</trkpt>
<trkpt lat="40.0728391" lon="-105.2309334">
  <ele>1595.47</ele>
  <time>2026-08-27T18:29:41Z</time>
  <course>14.74</course>
  <speed>0.03</speed>
  <fix>3d</fix>
</trkpt>
<trkpt lat="40.072839" lon="-105.2309333">
  <ele>1595.55</ele>
  <time>2026-08-27T18:29:41Z</time>
  <course>47.11</course>
  <speed>0.01414213562373095</speed>
  <fix>3d</fix>
</trkpt>
<trkpt lat="40.0728392" lon="-105.2309333">
  <ele>1595.47</ele>
  <time>2026-08-27T18:29:41Z</time>
  <course>14.83</course>
  <speed>0.03</speed>
  <fix>3d</fix>
</trkpt>
<trkpt lat="40.0728391" lon="-105.2309333">
  <ele>1595.55</ele>
  <time>2026-08-27T18:29:41Z</time>
  <course>47.09</course>
  <speed>0.01414213562373095</speed>
  <fix>3d</fix>
</trkpt>
<trkpt lat="40.0728393" lon="-105.2309332">
  <ele>1595.47</ele>
  <time>2026-08-27T18:29:41Z</time>
  <course>15.05</course>
  <speed>0.03</speed>
  <fix>3d</fix>
</trkpt>
<trkpt lat="40.0728392" lon="-105.2309333">
  <ele>1595.55</ele>
  <time>2026-08-27T18:29:41Z</time>
  <course>47.09</course>
  <speed>0.01414213562373095</speed>
  <fix>3d</fix>
</trkpt>
<trkpt lat="40.0728393" lon="-105.2309332">
  <ele>1595.47</ele>
  <time>2026-08-27T18:29:41Z</time>
  <course>15.9</course>
  <speed>0.04</speed>
  <fix>3d</fix>
</trkpt>
<trkpt lat="40.0728392" lon="-105.2309332">
  <ele>1595.55</ele>
  <time>2026-08-27T18:29:41Z</time>
  <course>47.08</course>
  <speed>0.01414213562373095</speed>
  <fix>3d</fix>
</trkpt>
<trkpt lat="40.0728394" lon="-105.2309332">
  <ele>1595.47</ele>
  <time>2026-08-27T18:29:41Z</time>
  <course>16.9</course>
  <speed>0.04</speed>
  <fix>3d</fix>
</trkpt>
<trkpt lat="40.0728393" lon="-105.2309332">
  <ele>1595.56</ele>
  <time>2026-08-27T18:29:41Z</time>
  <course>47.1</course>
  <speed>0.022360679774997897</speed>
  <fix>3d</fix>
</trkpt>
<trkpt lat="40.0728395" lon="-105.2309332">
  <ele>1595.47</ele>
  <time>2026-08-27T18:29:41Z</time>
  <course>17.63</course>
  <speed>0.04</speed>
  <fix>3d</fix>
</trkpt>
<trkpt lat="40.0728394" lon="-105.2309332">
  <ele>1595.57</ele>
  <time>2026-08-27T18:29:41Z</time>
  <course>47.11</course>
  <speed>0.022360679774997897</speed>
  <fix>3d</fix>
</trkpt>
<trkpt lat="40.0728395" lon="-105.2309332">
  <ele>1595.48</ele>
  <time>2026-08-27T18:29:41Z</time>
  <course>18.39</course>
  <speed>0.04</speed>
  <fix>3d</fix>
</trkpt>
<trkpt lat="40.0728395" lon="-105.2309331">
  <ele>1595.57</ele>
  <time>2026-08-27T18:29:41Z</time>
  <course>47.12</course>
  <speed>0.022360679774997897</speed>
  <fix>3d</fix>
</trkpt>
<trkpt lat="40.0728396" lon="-105.2309332">
  <ele>1595.48</ele>
  <time>2026-08-27T18:29:41Z</time>
  <course>19.21</course>
  <speed>0.04</speed>
  <fix>3d</fix>
</trkpt>
<trkpt lat="40.0728395" lon="-105.2309331">
  <ele>1595.57</ele>
  <time>2026-08-27T18:29:41Z</time>
  <course>47.15</course>
  <speed>0.022360679774997897</speed>
  <fix>3d</fix>
</trkpt>
<trkpt lat="40.0728397" lon="-105.2309331">
  <ele>1595.48</ele>
  <time>2026-08-27T18:29:41Z</time>
  <course>19.75</course>
  <speed>0.04</speed>
  <fix>3d</fix>
</trkpt>
<trkpt lat="40.0728396" lon="-105.2309331">
  <ele>1595.57</ele>
  <time>2026-08-27T18:29:41Z</time>
  <course>47.13</course>
  <speed>0.0282842712474619</speed>
  <fix>3d</fix>
</trkpt>
<trkpt lat="40.0728398" lon="-105.2309331">
  <ele>1595.48</ele>
  <time>2026-08-27T18:29:41Z</time>
  <course>20.43</course>
  <speed>0.05</speed>
  <fix>3d</fix>
</trkpt>
<trkpt lat="40.0728397" lon="-105.230933">
  <ele>1595.57</ele>
  <time>2026-08-27T18:29:41Z</time>
  <course>47.14</course>
  <speed>0.0282842712474619</speed>
  <fix>3d</fix>
</trkpt>
<trkpt lat="40.0728399" lon="-105.230933">
  <ele>1595.48</ele>
  <time>2026-08-27T18:29:41Z</time>
  <course>21.44</course>
  <speed>0.05</speed>
  <fix>3d</fix>
</trkpt>
<trkpt lat="40.0728398" lon="-105.230933">
  <ele>1595.57</ele>
  <time>2026-08-27T18:29:41Z</time>
  <course>47.13</course>
  <speed>0.0282842712474619</speed>
  <fix>3d</fix>
</trkpt>
<trkpt lat="40.07284" lon="-105.2309329">
  <ele>1595.48</ele>
  <time>2026-08-27T18:29:41Z</time>
  <course>22.2</course>
  <speed>0.05</speed>
  <fix>3d</fix>
</trkpt>
<trkpt lat="40.0728399" lon="-105.2309329">
  <ele>1595.57</ele>
  <time>2026-08-27T18:29:41Z</time>
  <course>47.14</course>
  <speed>0.03605551275463989</speed>
  <fix>3d</fix>
</trkpt>
<trkpt lat="40.0728401" lon="-105.2309329">
  <ele>1595.47</ele>
  <time>2026-08-27T18:29:41Z</time>
  <course>22.87</course>
  <speed>0.05</speed>
  <fix>3d</fix>
</trkpt>
<trkpt lat="40.07284" lon="-105.2309328">
  <ele>1595.57</ele>
  <time>2026-08-27T18:29:41Z</time>
  <course>47.13</course>
  <speed>0.03605551275463989</speed>
  <fix>3d</fix>
</trkpt>
<trkpt lat="40.0728402" lon="-105.2309329">
  <ele>1595.47</ele>
  <time>2026-08-27T18:29:41Z</time>
  <course>23.76</course>
  <speed>0.05</speed>
  <fix>3d</fix>
</trkpt>
<trkpt lat="40.0728401" lon="-105.2309328">
  <ele>1595.57</ele>
  <time>2026-08-27T18:29:41Z</time>
  <course>47.14</course>
  <speed>0.03605551275463989</speed>
  <fix>3d</fix>
</trkpt>
<trkpt lat="40.0728403" lon="-105.2309328">
  <ele>1595.47</ele>
  <time>2026-08-27T18:29:41Z</time>
  <course>24.59</course>
  <speed>0.06</speed>
  <fix>3d</fix>
</trkpt>
<trkpt lat="40.0728402" lon="-105.2309327">
  <ele>1595.57</ele>
  <time>2026-08-27T18:29:41Z</time>
  <course>47.13</course>
  <speed>0.03605551275463989</speed>
  <fix>3d</fix>
</trkpt>
<trkpt lat="40.0728404" lon="-105.2309327">
  <ele>1595.47</ele>
  <time>2026-08-27T18:29:41Z</time>
  <course>25.18</course>
  <speed>0.06</speed>
  <fix>3d</fix>
</trkpt>
<trkpt lat="40.0728403" lon="-105.2309327">
  <ele>1595.56</ele>
  <time>2026-08-27T18:29:41Z</time>
  <course>46.69</course>
  <speed>0.04242640687119285</speed>
  <fix>3d</fix>
</trkpt>
<trkpt lat="40.0728405" lon="-105.2309327">
  <ele>1595.47</ele>
  <time>2026-08-27T18:29:41Z</time>
  <course>27.11</course>
  <speed>0.06</speed>
  <fix>3d</fix>
</trkpt>
<trkpt lat="40.0728404" lon="-105.2309326">
  <ele>1595.56</ele>
  <time>2026-08-27T18:29:41Z</time>
  <course>45.46</course>
  <speed>0.04242640687119285</speed>
  <fix>3d</fix>
</trkpt>
<trkpt lat="40.0728406" lon="-105.2309326">
  <ele>1595.47</ele>
  <time>2026-08-27T18:29:41Z</time>
  <course>29.91</course>
  <speed>0.06</speed>
  <fix>3d</fix>
</trkpt>
<trkpt lat="40.0728405" lon="-105.2309325">
  <ele>1595.55</ele>
  <time>2026-08-27T18:29:41Z</time>
  <course>44.15</course>
  <speed>0.04242640687119285</speed>
  <fix>3d</fix>
</trkpt>
<trkpt lat="40.0728407" lon="-105.2309325">
  <ele>1595.47</ele>
  <time>2026-08-27T18:29:41Z</time>
  <course>30.58</course>
  <speed>0.06</speed>
  <fix>3d</fix>
</trkpt>
<trkpt lat="40.0728406" lon="-105.2309324">
  <ele>1595.55</ele>
  <time>2026-08-27T18:29:41Z</time>
  <course>43.08</course>
  <speed>0.0282842712474619</speed>
  <fix>3d</fix>
</trkpt>
<trkpt lat="40.0728408" lon="-105.2309325">
  <ele>1595.47</ele>
  <time>2026-08-27T18:29:41Z</time>
  <course>28.74</course>
  <speed>0.05</speed>
  <fix>3d</fix>
</trkpt>
<trkpt lat="40.0728407" lon="-105.2309324">
  <ele>1595.55</ele>
  <time>2026-08-27T18:29:41Z</time>
  <course>42.41</course>
  <speed>0.0282842712474619</speed>
  <fix>3d</fix>
</trkpt>
<trkpt lat="40.0728408" lon="-105.2309324">
  <ele>1595.47</ele>
  <time>2026-08-27T18:29:41Z</time>
  <course>25.65</course>
  <speed>0.05</speed>
  <fix>3d</fix>
</trkpt>
<trkpt lat="40.0728408" lon="-105.2309323">
  <ele>1595.55</ele>
  <time>2026-08-27T18:29:41Z</time>
  <course>42.21</course>
  <speed>0.022360679774997897</speed>
  <fix>3d</fix>
</trkpt>
<trkpt lat="40.0728409" lon="-105.2309324">
  <ele>1595.47</ele>
  <time>2026-08-27T18:29:41Z</time>
  <course>21.66</course>
  <speed>0.05</speed>
  <fix>3d</fix>
</trkpt>
<trkpt lat="40.0728409" lon="-105.2309323">
  <ele>1595.55</ele>
  <time>2026-08-27T18:29:41Z</time>
  <course>42.48</course>
  <speed>0.022360679774997897</speed>
  <fix>3d</fix>
</trkpt>
<trkpt lat="40.072841" lon="-105.2309323">
  <ele>1595.47</ele>
  <time>2026-08-27T18:29:41Z</time>
  <course>16.6</course>
  <speed>0.04</speed>
  <fix>3d</fix>
</trkpt>
<trkpt lat="40.0728409" lon="-105.2309323">
  <ele>1595.55</ele>
  <time>2026-08-27T18:29:41Z</time>
  <course>43.21</course>
  <speed>0.01</speed>
  <fix>3d</fix>
</trkpt>
<trkpt lat="40.0728411" lon="-105.2309322">
  <ele>1595.47</ele>
  <time>2026-08-27T18:29:41Z</time>
  <course>10.74</course>
  <speed>0.04</speed>
  <fix>3d</fix>
</trkpt>
<trkpt lat="40.072841" lon="-105.2309323">
  <ele>1595.55</ele>
  <time>2026-08-27T18:29:41Z</time>
  <course>44.33</course>
  <speed>0.01</speed>
  <fix>3d</fix>
</trkpt>
<trkpt lat="40.0728412" lon="-105.2309322">
  <ele>1595.47</ele>
  <time>2026-08-27T18:29:41Z</time>
  <course>4.86</course>
  <speed>0.03</speed>
  <fix>3d</fix>
</trkpt>
<trkpt lat="40.0728411" lon="-105.2309323">
  <ele>1595.55</ele>
  <time>2026-08-27T18:29:41Z</time>
  <course>45.69</course>
  <speed>0.01</speed>
  <fix>3d</fix>
</trkpt>
<trkpt lat="40.0728413" lon="-105.2309322">
  <ele>1595.48</ele>
  <time>2026-08-27T18:29:41Z</time>
  <course>359.95</course>
  <speed>0.03</speed>
  <fix>3d</fix>
</trkpt>
<trkpt lat="40.0728411" lon="-105.2309323">
  <ele>1595.55</ele>
  <time>2026-08-27T18:29:41Z</time>
  <course>47.2</course>
  <speed>0.01</speed>
  <fix>3d</fix>
</trkpt>
<trkpt lat="40.0728413" lon="-105.2309322">
  <ele>1595.48</ele>
  <time>2026-08-27T18:29:41Z</time>
  <course>356.36</course>
  <speed>0.03</speed>
  <fix>3d</fix>
</trkpt>
<trkpt lat="40.0728412" lon="-105.2309323">
  <ele>1595.56</ele>
  <time>2026-08-27T18:29:41Z</time>
  <course>48.71</course>
  <speed>0.0</speed>
  <fix>3d</fix>
</trkpt>
<trkpt lat="40.0728414" lon="-105.2309322">
  <ele>1595.48</ele>
  <time>2026-08-27T18:29:41Z</time>
  <course>353.65</course>
  <speed>0.03</speed>
  <fix>3d</fix>
</trkpt>
<trkpt lat="40.0728413" lon="-105.2309323">
  <ele>1595.56</ele>
  <time>2026-08-27T18:29:41Z</time>
  <course>50.07</course>
  <speed>0.0</speed>
  <fix>3d</fix>
</trkpt>
<trkpt lat="40.0728414" lon="-105.2309322">
  <ele>1595.48</ele>
  <time>2026-08-27T18:29:41Z</time>
  <course>352.1</course>
  <speed>0.03</speed>
  <fix>3d</fix>
</trkpt>
<trkpt lat="40.0728413" lon="-105.2309323">
  <ele>1595.57</ele>
  <time>2026-08-27T18:29:41Z</time>
  <course>51.15</course>
  <speed>0.0</speed>
  <fix>3d</fix>
</trkpt>
<trkpt lat="40.0728415" lon="-105.2309322">
  <ele>1595.49</ele>
  <time>2026-08-27T18:29:41Z</time>
  <course>352.41</course>
  <speed>0.02</speed>
  <fix>3d</fix>
</trkpt>
<trkpt lat="40.0728413" lon="-105.2309323">
  <ele>1595.57</ele>
  <time>2026-08-27T18:29:41Z</time>
  <course>51.83</course>
  <speed>0.0</speed>
  <fix>3d</fix>
</trkpt>
<trkpt lat="40.0728415" lon="-105.2309322">
  <ele>1595.49</ele>
  <time>2026-08-27T18:29:41Z</time>
  <course>354.29</course>
  <speed>0.02</speed>
  <fix>3d</fix>
</trkpt>
<trkpt lat="40.0728414" lon="-105.2309323">
  <ele>1595.57</ele>
  <time>2026-08-27T18:29:41Z</time>
  <course>52.04</course>
  <speed>0.0</speed>
  <fix>3d</fix>
</trkpt>
<trkpt lat="40.0728415" lon="-105.2309322">
  <ele>1595.49</ele>
  <time>2026-08-27T18:29:41Z</time>
  <course>357.89</course>
  <speed>0.02</speed>
  <fix>3d</fix>
</trkpt>
<trkpt lat="40.0728414" lon="-105.2309322">
  <ele>1595.57</ele>
  <time>2026-08-27T18:29:41Z</time>
  <course>51.77</course>
  <speed>0.0</speed>
  <fix>3d</fix>
</trkpt>
<trkpt lat="40.0728416" lon="-105.2309322">
  <ele>1595.49</ele>
  <time>2026-08-27T18:29:41Z</time>
  <course>3.46</course>
  <speed>0.02</speed>
  <fix>3d</fix>
</trkpt>
<trkpt lat="40.0728415" lon="-105.2309322">
  <ele>1595.57</ele>
  <time>2026-08-27T18:29:41Z</time>
  <course>51.05</course>
  <speed>0.01</speed>
  <fix>3d</fix>
</trkpt>
<trkpt lat="40.0728417" lon="-105.2309322">
  <ele>1595.49</ele>
  <time>2026-08-27T18:29:41Z</time>
  <course>9.28</course>
  <speed>0.02</speed>
  <fix>3d</fix>
</trkpt>
<trkpt lat="40.0728415" lon="-105.2309322">
  <ele>1595.57</ele>
  <time>2026-08-27T18:29:41Z</time>
  <course>49.93</course>
  <speed>0.01</speed>
  <fix>3d</fix>
</trkpt>
<trkpt lat="40.0728417" lon="-105.2309322">
  <ele>1595.48</ele>
  <time>2026-08-27T18:29:41Z</time>
  <course>13.86</course>
  <speed>0.02</speed>
  <fix>3d</fix>
</trkpt>
<trkpt lat="40.0728416" lon="-105.2309322">
  <ele>1595.57</ele>
  <time>2026-08-27T18:29:41Z</time>
  <course>48.57</course>
  <speed>0.01</speed>
  <fix>3d</fix>
</trkpt>
<trkpt lat="40.0728418" lon="-105.2309322">
  <ele>1595.48</ele>
  <time>2026-08-27T18:29:41Z</time>
  <course>16.97</course>
  <speed>0.02</speed>
  <fix>3d</fix>
</trkpt>
<trkpt lat="40.0728416" lon="-105.2309322">
  <ele>1595.57</ele>
  <time>2026-08-27T18:29:41Z</time>
  <course>47.07</course>
  <speed>0.01</speed>
  <fix>3d</fix>
</trkpt>
<trkpt lat="40.0728418" lon="-105.2309322">
  <ele>1595.48</ele>
  <time>2026-08-27T18:29:41Z</time>
  <course>18.43</course>
  <speed>0.02</speed>
  <fix>3d</fix>
</trkpt>
<trkpt lat="40.0728416" lon="-105.2309321">
  <ele>1595.56</ele>
  <time>2026-08-27T18:29:41Z</time>
  <course>45.52</course>
  <speed>0.01</speed>
  <fix>3d</fix>
</trkpt>
<trkpt lat="40.0728418" lon="-105.2309322">
  <ele>1595.48</ele>
  <time>2026-08-27T18:29:41Z</time>
  <course>18.27</course>
  <speed>0.02</speed>
  <fix>3d</fix>
</trkpt>
<trkpt lat="40.0728417" lon="-105.2309321">
  <ele>1595.56</ele>
  <time>2026-08-27T18:29:41Z</time>
  <course>44.15</course>
  <speed>0.01</speed>
  <fix>3d</fix>
</trkpt>
<trkpt lat="40.0728419" lon="-105.2309322">
  <ele>1595.48</ele>
  <time>2026-08-27T18:29:41Z</time>
  <course>16.56</course>
  <speed>0.02</speed>
  <fix>3d</fix>
</trkpt>
<trkpt lat="40.0728418" lon="-105.2309321">
  <ele>1595.56</ele>
  <time>2026-08-27T18:29:41Z</time>
  <course>43.11</course>
  <speed>0.01414213562373095</speed>
  <fix>3d</fix>
</trkpt>
<trkpt lat="40.0728419" lon="-105.2309322">
  <ele>1595.48</ele>
  <time>2026-08-27T18:29:41Z</time>
  <course>13.5</course>
  <speed>0.03</speed>
  <fix>3d</fix>
</trkpt>
<trkpt lat="40.0728418" lon="-105.2309321">
  <ele>1595.57</ele>
  <time>2026-08-27T18:29:41Z</time>
  <course>42.45</course>
  <speed>0.01</speed>
  <fix>3d</fix>
</trkpt>
<trkpt lat="40.072842" lon="-105.2309322">
  <ele>1595.48</ele>
  <time>2026-08-27T18:29:41Z</time>
  <course>9.72</course>
  <speed>0.03</speed>
  <fix>3d</fix>
</trkpt>
<trkpt lat="40.0728419" lon="-105.2309321">
  <ele>1595.57</ele>
  <time>2026-08-27T18:29:41Z</time>
  <course>42.26</course>
  <speed>0.01</speed>
  <fix>3d</fix>
</trkpt>
<trkpt lat="40.072842" lon="-105.2309322">
  <ele>1595.48</ele>
  <time>2026-08-27T18:29:41Z</time>
  <course>5.43</course>
  <speed>0.03</speed>
  <fix>3d</fix>
</trkpt>
<trkpt lat="40.0728419" lon="-105.2309321">
  <ele>1595.57</ele>
  <time>2026-08-27T18:29:41Z</time>
  <course>42.53</course>
  <speed>0.01</speed>
  <fix>3d</fix>
</trkpt>
<trkpt lat="40.0728421" lon="-105.2309322">
  <ele>1595.48</ele>
  <time>2026-08-27T18:29:41Z</time>
  <course>1.8</course>
  <speed>0.03</speed>
  <fix>3d</fix>
</trkpt>
<trkpt lat="40.072842" lon="-105.2309321">
  <ele>1595.57</ele>
  <time>2026-08-27T18:29:41Z</time>
  <course>43.25</course>
  <speed>0.01</speed>
  <fix>3d</fix>
</trkpt>
<trkpt lat="40.0728422" lon="-105.2309322">
  <ele>1595.47</ele>
  <time>2026-08-27T18:29:41Z</time>
  <course>359.16</course>
  <speed>0.03</speed>
  <fix>3d</fix>
</trkpt>
<trkpt lat="40.0728421" lon="-105.2309321">
  <ele>1595.57</ele>
  <time>2026-08-27T18:29:41Z</time>
  <course>44.37</course>
  <speed>0.01</speed>
  <fix>3d</fix>
</trkpt>
<trkpt lat="40.0728423" lon="-105.2309322">
  <ele>1595.47</ele>
  <time>2026-08-27T18:29:41Z</time>
  <course>356.85</course>
  <speed>0.03</speed>
  <fix>3d</fix>
</trkpt>
<trkpt lat="40.0728421" lon="-105.2309321">
  <ele>1595.56</ele>
  <time>2026-08-27T18:29:41Z</time>
  <course>45.76</course>
  <speed>0.01</speed>
  <fix>3d</fix>
</trkpt>
<trkpt lat="40.0728423" lon="-105.2309322">
  <ele>1595.47</ele>
  <time>2026-08-27T18:29:41Z</time>
  <course>355.11</course>
  <speed>0.03</speed>
  <fix>3d</fix>
</trkpt>
<trkpt lat="40.0728422" lon="-105.2309321">
  <ele>1595.56</ele>
  <time>2026-08-27T18:29:41Z</time>
  <course>47.26</course>
  <speed>0.01</speed>
  <fix>3d</fix>
</trkpt>
<trkpt lat="40.0728424" lon="-105.2309322">
  <ele>1595.47</ele>
  <time>2026-08-27T18:29:41Z</time>
  <course>354.05</course>
  <speed>0.03</speed>
  <fix>3d</fix>
</trkpt>
<trkpt lat="40.0728423" lon="-105.2309321">
  <ele>1595.56</ele>
  <time>2026-08-27T18:29:41Z</time>
  <course>48.73</course>
  <speed>0.01</speed>
  <fix>3d</fix>
</trkpt>
<trkpt lat="40.0728425" lon="-105.2309322">
  <ele>1595.47</ele>
  <time>2026-08-27T18:29:41Z</time>
  <course>353.83</course>
  <speed>0.03</speed>
  <fix>3d</fix>
</trkpt>
<trkpt lat="40.0728423" lon="-105.2309321">
  <ele>1595.55</ele>
  <time>2026-08-27T18:29:41Z</time>
  <course>50.07</course>
  <speed>0.0</speed>
  <fix>3d</fix>
</trkpt>
<trkpt lat="40.0728425" lon="-105.2309322">
  <ele>1595.47</ele>
  <time>2026-08-27T18:29:41Z</time>
  <course>354.94</course>
  <speed>0.03</speed>
  <fix>3d</fix>
</trkpt>
<trkpt lat="40.0728424" lon="-105.2309321">
  <ele>1595.55</ele>
  <time>2026-08-27T18:29:41Z</time>
  <course>51.11</course>
  <speed>0.0</speed>
  <fix>3d</fix>
</trkpt>
<trkpt lat="40.0728426" lon="-105.2309322">
  <ele>1595.47</ele>
  <time>2026-08-27T18:29:41Z</time>
  <course>358.04</course>
  <speed>0.03</speed>
  <fix>3d</fix>
</trkpt>
<trkpt lat="40.0728424" lon="-105.2309321">
  <ele>1595.55</ele>
  <time>2026-08-27T18:29:41Z</time>
  <course>51.79</course>
  <speed>0.0</speed>
  <fix>3d</fix>
</trkpt>
<trkpt lat="40.0728426" lon="-105.2309322">
  <ele>1595.47</ele>
  <time>2026-08-27T18:29:41Z</time>
  <course>3.13</course>
  <speed>0.03</speed>
  <fix>3d</fix>
</trkpt>
<trkpt lat="40.0728425" lon="-105.2309321">
  <ele>1595.55</ele>
  <time>2026-08-27T18:29:41Z</time>
  <course>51.99</course>
  <speed>0.0</speed>
  <fix>3d</fix>
</trkpt>
<trkpt lat="40.0728426" lon="-105.2309322">
  <ele>1595.47</ele>
  <time>2026-08-27T18:29:41Z</time>
  <course>9.68</course>
  <speed>0.02</speed>
  <fix>3d</fix>
</trkpt>
<trkpt lat="40.0728425" lon="-105.2309321">
  <ele>1595.56</ele>
  <time>2026-08-27T18:29:41Z</time>
  <course>51.73</course>
  <speed>0.01</speed>
  <fix>3d</fix>
</trkpt>
<trkpt lat="40.0728427" lon="-105.2309322">
  <ele>1595.47</ele>
  <time>2026-08-27T18:29:41Z</time>
  <course>15.4</course>
  <speed>0.02</speed>
  <fix>3d</fix>
</trkpt>
<trkpt lat="40.0728426" lon="-105.2309321">
  <ele>1595.56</ele>
  <time>2026-08-27T18:29:41Z</time>
  <course>51.01</course>
  <speed>0.01</speed>
  <fix>3d</fix>
</trkpt>
<trkpt lat="40.0728427" lon="-105.2309322">
  <ele>1595.47</ele>
  <time>2026-08-27T18:29:41Z</time>
  <course>19.45</course>
  <speed>0.02</speed>
  <fix>3d</fix>
</trkpt>
<trkpt lat="40.0728426" lon="-105.2309321">
  <ele>1595.56</ele>
  <time>2026-08-27T18:29:41Z</time>
  <course>49.9</course>
  <speed>0.01</speed>
  <fix>3d</fix>
</trkpt>
<trkpt lat="40.0728428" lon="-105.2309322">
  <ele>1595.48</ele>
  <time>2026-08-27T18:29:41Z</time>
  <course>22.49</course>
  <speed>0.02</speed>
  <fix>3d</fix>
</trkpt>
<trkpt lat="40.0728427" lon="-105.2309321">
  <ele>1595.57</ele>
  <time>2026-08-27T18:29:41Z</time>
  <course>48.53</course>
  <speed>0.01</speed>
  <fix>3d</fix>
</trkpt>
<trkpt lat="40.0728429" lon="-105.2309321">
  <ele>1595.48</ele>
  <time>2026-08-27T18:29:41Z</time>
  <course>23.78</course>
  <speed>0.02</speed>
  <fix>3d</fix>
</trkpt>
<trkpt lat="40.0728427" lon="-105.2309321">
  <ele>1595.57</ele>
  <time>2026-08-27T18:29:41Z</time>
  <course>47.04</course>
  <speed>0.01</speed>
  <fix>3d</fix>
</trkpt>
<trkpt lat="40.0728429" lon="-105.230932">
  <ele>1595.48</ele>
  <time>2026-08-27T18:29:41Z</time>
  <course>24.09</course>
  <speed>0.03</speed>
  <fix>3d</fix>
</trkpt>
<trkpt lat="40.0728428" lon="-105.2309321">
  <ele>1595.57</ele>
  <time>2026-08-27T18:29:41Z</time>
  <course>45.55</course>
  <speed>0.01</speed>
  <fix>3d</fix>
</trkpt>
<trkpt lat="40.072843" lon="-105.230932">
  <ele>1595.48</ele>
  <time>2026-08-27T18:29:41Z</time>
  <course>23.07</course>
  <speed>0.03</speed>
  <fix>3d</fix>
</trkpt>
<trkpt lat="40.0728428" lon="-105.230932">
  <ele>1595.57</ele>
  <time>2026-08-27T18:29:41Z</time>
  <course>44.19</course>
  <speed>0.01</speed>
  <fix>3d</fix>
</trkpt>
<trkpt lat="40.072843" lon="-105.230932">
  <ele>1595.47</ele>
  <time>2026-08-27T18:29:41Z</time>
  <course>20.72</course>
  <speed>0.03</speed>
  <fix>3d</fix>
</trkpt>
<trkpt lat="40.0728429" lon="-105.230932">
  <ele>1595.57</ele>
  <time>2026-08-27T18:29:41Z</time>
  <course>43.12</course>
  <speed>0.01414213562373095</speed>
  <fix>3d</fix>
</trkpt>
<trkpt lat="40.0728431" lon="-105.230932">
  <ele>1595.47</ele>
  <time>2026-08-27T18:29:41Z</time>
  <course>17.77</course>
  <speed>0.03</speed>
  <fix>3d</fix>
</trkpt>
<trkpt lat="40.0728429" lon="-105.230932">
  <ele>1595.57</ele>
  <time>2026-08-27T18:29:41Z</time>
  <course>42.46</course>
  <speed>0.01</speed>
  <fix>3d</fix>
</trkpt>
<trkpt lat="40.0728431" lon="-105.230932">
  <ele>1595.47</ele>
  <time>2026-08-27T18:29:41Z</time>
  <course>13.6</course>
  <speed>0.03</speed>
  <fix>3d</fix>
</trkpt>
<trkpt lat="40.072843" lon="-105.230932">
  <ele>1595.57</ele>
  <time>2026-08-27T18:29:41Z</time>
  <course>42.25</course>
  <speed>0.01</speed>
  <fix>3d</fix>
</trkpt>
<trkpt lat="40.0728432" lon="-105.230932">
  <ele>1595.47</ele>
  <time>2026-08-27T18:29:41Z</time>
  <course>9.31</course>
  <speed>0.03</speed>
  <fix>3d</fix>
</trkpt>
<trkpt lat="40.0728431" lon="-105.230932">
  <ele>1595.56</ele>
  <time>2026-08-27T18:29:41Z</time>
  <course>42.53</course>
  <speed>0.01</speed>
  <fix>3d</fix>
</trkpt>
<trkpt lat="40.0728432" lon="-105.230932">
  <ele>1595.47</ele>
  <time>2026-08-27T18:29:41Z</time>
  <course>5.78</course>
  <speed>0.03</speed>
  <fix>3d</fix>
</trkpt>
<trkpt lat="40.0728432" lon="-105.230932">
  <ele>1595.56</ele>
  <time>2026-08-27T18:29:41Z</time>
  <course>43.25</course>
  <speed>0.01</speed>
  <fix>3d</fix>
</trkpt>
<trkpt lat="40.0728433" lon="-105.230932">
  <ele>1595.47</ele>
  <time>2026-08-27T18:29:41Z</time>
  <course>2.9</course>
  <speed>0.03</speed>
  <fix>3d</fix>
</trkpt>
<trkpt lat="40.0728432" lon="-105.230932">
  <ele>1595.55</ele>
  <time>2026-08-27T18:29:41Z</time>
  <course>44.36</course>
  <speed>0.01</speed>
  <fix>3d</fix>
</trkpt>
<trkpt lat="40.0728434" lon="-105.230932">
  <ele>1595.47</ele>
  <time>2026-08-27T18:29:41Z</time>
  <course>0.46</course>
  <speed>0.03</speed>
  <fix>3d</fix>
</trkpt>
<trkpt lat="40.0728433" lon="-105.230932">
  <ele>1595.55</ele>
  <time>2026-08-27T18:29:41Z</time>
  <course>45.72</course>
  <speed>0.01</speed>
  <fix>3d</fix>
</trkpt>
<trkpt lat="40.0728435" lon="-105.230932">
  <ele>1595.47</ele>
  <time>2026-08-27T18:29:41Z</time>
  <course>358.72</course>
  <speed>0.03</speed>
  <fix>3d</fix>
</trkpt>
<trkpt lat="40.0728434" lon="-105.230932">
  <ele>1595.55</ele>
  <time>2026-08-27T18:29:41Z</time>
  <course>47.19</course>
  <speed>0.01</speed>
  <fix>3d</fix>
</trkpt>
<trkpt lat="40.0728435" lon="-105.230932">
  <ele>1595.47</ele>
  <time>2026-08-27T18:29:41Z</time>
  <course>357.96</course>
  <speed>0.03</speed>
  <fix>3d</fix>
</trkpt>
<trkpt lat="40.0728434" lon="-105.230932">
  <ele>1595.55</ele>
  <time>2026-08-27T18:29:41Z</time>
  <course>48.72</course>
  <speed>0.01</speed>
  <fix>3d</fix>
</trkpt>
<trkpt lat="40.0728436" lon="-105.230932">
  <ele>1595.47</ele>
  <time>2026-08-27T18:29:41Z</time>
  <course>357.42</course>
  <speed>0.03</speed>
  <fix>3d</fix>
</trkpt>
<trkpt lat="40.0728435" lon="-105.230932">
  <ele>1595.55</ele>
  <time>2026-08-27T18:29:41Z</time>
  <course>50.06</course>
  <speed>0.0</speed>
  <fix>3d</fix>
</trkpt>
<trkpt lat="40.0728437" lon="-105.230932">
  <ele>1595.47</ele>
  <time>2026-08-27T18:29:41Z</time>
  <course>357.77</course>
  <speed>0.03</speed>
  <fix>3d</fix>
</trkpt>
<trkpt lat="40.0728435" lon="-105.230932">
  <ele>1595.55</ele>
  <time>2026-08-27T18:29:41Z</time>
  <course>51.11</course>
  <speed>0.0</speed>
  <fix>3d</fix>
</trkpt>
<trkpt lat="40.0728437" lon="-105.230932">
  <ele>1595.47</ele>
  <time>2026-08-27T18:29:41Z</time>
  <course>359.62</course>
  <speed>0.03</speed>
  <fix>3d</fix>
</trkpt>
<trkpt lat="40.0728436" lon="-105.230932">
  <ele>1595.56</ele>
  <time>2026-08-27T18:29:41Z</time>
  <course>51.8</course>
  <speed>0.0</speed>
  <fix>3d</fix>
</trkpt>
<trkpt lat="40.0728438" lon="-105.230932">
  <ele>1595.47</ele>
  <time>2026-08-27T18:29:41Z</time>
  <course>2.48</course>
  <speed>0.03</speed>
  <fix>3d</fix>
</trkpt>
<trkpt lat="40.0728436" lon="-105.230932">
  <ele>1595.56</ele>
  <time>2026-08-27T18:29:41Z</time>
  <course>52.02</course>
  <speed>0.0</speed>
  <fix>3d</fix>
</trkpt>
<trkpt lat="40.0728438" lon="-105.230932">
  <ele>1595.47</ele>
  <time>2026-08-27T18:29:41Z</time>
  <course>6.88</course>
  <speed>0.02</speed>
  <fix>3d</fix>
</trkpt>
<trkpt lat="40.0728437" lon="-105.230932">
  <ele>1595.57</ele>
  <time>2026-08-27T18:29:41Z</time>
  <course>51.75</course>
  <speed>0.01</speed>
  <fix>3d</fix>
</trkpt>
<trkpt lat="40.0728439" lon="-105.230932">
  <ele>1595.48</ele>
  <time>2026-08-27T18:29:41Z</time>
  <course>12.44</course>
  <speed>0.02</speed>
  <fix>3d</fix>
</trkpt>
<trkpt lat="40.0728437" lon="-105.230932">
  <ele>1595.57</ele>
  <time>2026-08-27T18:29:41Z</time>
  <course>51.04</course>
  <speed>0.01</speed>
  <fix>3d</fix>
</trkpt>
<trkpt lat="40.0728439" lon="-105.230932">
  <ele>1595.48</ele>
  <time>2026-08-27T18:29:41Z</time>
  <course>17.02</course>
  <speed>0.02</speed>
  <fix>3d</fix>
</trkpt>
<trkpt lat="40.0728438" lon="-105.2309319">
  <ele>1595.58</ele>
  <time>2026-08-27T18:29:41Z</time>
  <course>49.97</course>
  <speed>0.01</speed>
  <fix>3d</fix>
</trkpt>
<trkpt lat="40.0728439" lon="-105.2309319">
  <ele>1595.48</ele>
  <time>2026-08-27T18:29:41Z</time>
  <course>20.1</course>
  <speed>0.02</speed>
  <fix>3d</fix>
</trkpt>
<trkpt lat="40.0728438" lon="-105.2309319">
  <ele>1595.57</ele>
  <time>2026-08-27T18:29:41Z</time>
  <course>48.6</course>
  <speed>0.01</speed>
  <fix>3d</fix>
</trkpt>
<trkpt lat="40.072844" lon="-105.2309319">
  <ele>1595.47</ele>
  <time>2026-08-27T18:29:41Z</time>
  <course>22.43</course>
  <speed>0.02</speed>
  <fix>3d</fix>
</trkpt>
<trkpt lat="40.0728439" lon="-105.2309319">
  <ele>1595.57</ele>
  <time>2026-08-27T18:29:41Z</time>
  <course>47.09</course>
  <speed>0.01</speed>
  <fix>3d</fix>
</trkpt>
<trkpt lat="40.0728441" lon="-105.2309319">
  <ele>1595.47</ele>
  <time>2026-08-27T18:29:41Z</time>
  <course>23.36</course>
  <speed>0.02</speed>
  <fix>3d</fix>
</trkpt>
<trkpt lat="40.0728439" lon="-105.2309319">
  <ele>1595.57</ele>
  <time>2026-08-27T18:29:41Z</time>
  <course>45.55</course>
  <speed>0.01</speed>
  <fix>3d</fix>
</trkpt>
<trkpt lat="40.0728441" lon="-105.2309319">
  <ele>1595.47</ele>
  <time>2026-08-27T18:29:41Z</time>
  <course>23.5</course>
  <speed>0.02</speed>
  <fix>3d</fix>
</trkpt>
<trkpt lat="40.072844" lon="-105.2309318">
  <ele>1595.58</ele>
  <time>2026-08-27T18:29:41Z</time>
  <course>44.19</course>
  <speed>0.01</speed>
  <fix>3d</fix>
</trkpt>
<trkpt lat="40.0728442" lon="-105.2309318">
  <ele>1595.47</ele>
  <time>2026-08-27T18:29:41Z</time>
  <course>22.09</course>
  <speed>0.03</speed>
  <fix>3d</fix>
</trkpt>
<trkpt lat="40.072844" lon="-105.2309318">
  <ele>1595.57</ele>
  <time>2026-08-27T18:29:41Z</time>
  <course>43.14</course>
  <speed>0.01</speed>
  <fix>3d</fix>
</trkpt>
<trkpt lat="40.0728442" lon="-105.2309317">
  <ele>1595.46</ele>
  <time>2026-08-27T18:29:41Z</time>
  <course>18.87</course>
  <speed>0.03</speed>
  <fix>3d</fix>
</trkpt>
<trkpt lat="40.0728441" lon="-105.2309318">
  <ele>1595.56</ele>
  <time>2026-08-27T18:29:41Z</time>
  <course>42.46</course>
  <speed>0.01414213562373095</speed>
  <fix>3d</fix>
</trkpt>
<trkpt lat="40.0728443" lon="-105.2309317">
  <ele>1595.46</ele>
  <time>2026-08-27T18:29:41Z</time>
  <course>15.6</course>
  <speed>0.03</speed>
  <fix>3d</fix>
</trkpt>
<trkpt lat="40.0728442" lon="-105.2309318">
  <ele>1595.56</ele>
  <time>2026-08-27T18:29:41Z</time>
  <course>42.24</course>
  <speed>0.01</speed>
  <fix>3d</fix>
</trkpt>
<trkpt lat="40.0728444" lon="-105.2309317">
  <ele>1595.46</ele>
  <time>2026-08-27T18:29:41Z</time>
  <course>12.03</course>
  <speed>0.03</speed>
  <fix>3d</fix>
</trkpt>
<trkpt lat="40.0728442" lon="-105.2309317">
  <ele>1595.55</ele>
  <time>2026-08-27T18:29:41Z</time>
  <course>42.51</course>
  <speed>0.01</speed>
  <fix>3d</fix>
</trkpt>
<trkpt lat="40.0728444" lon="-105.2309317">
  <ele>1595.46</ele>
  <time>2026-08-27T18:29:42Z</time>
  <course>8.18</course>
  <speed>0.03</speed>
  <fix>3d</fix>
</trkpt>
<trkpt lat="40.0728443" lon="-105.2309317">
  <ele>1595.56</ele>
  <time>2026-08-27T18:29:42Z</time>
  <course>43.23</course>
  <speed>0.01</speed>
  <fix>3d</fix>
</trkpt>
<trkpt lat="40.0728445" lon="-105.2309317">
  <ele>1595.45</ele>
  <time>2026-08-27T18:29:42Z</time>
  <course>4.79</course>
  <speed>0.03</speed>
  <fix>3d</fix>
</trkpt>
<trkpt lat="40.0728444" lon="-105.2309317">
  <ele>1595.56</ele>
  <time>2026-08-27T18:29:42Z</time>
  <course>44.35</course>
  <speed>0.01</speed>
  <fix>3d</fix>
</trkpt>
<trkpt lat="40.0728445" lon="-105.2309317">
  <ele>1595.45</ele>
  <time>2026-08-27T18:29:42Z</time>
  <course>1.74</course>
  <speed>0.03</speed>
  <fix>3d</fix>
</trkpt>
<trkpt lat="40.0728444" lon="-105.2309317">
  <ele>1595.56</ele>
  <time>2026-08-27T18:29:42Z</time>
  <course>45.75</course>
  <speed>0.01</speed>
  <fix>3d</fix>
</trkpt>
<trkpt lat="40.0728446" lon="-105.2309317">
  <ele>1595.45</ele>
  <time>2026-08-27T18:29:42Z</time>
  <course>358.93</course>
  <speed>0.03</speed>
  <fix>3d</fix>
</trkpt>
<trkpt lat="40.0728445" lon="-105.2309317">
  <ele>1595.56</ele>
  <time>2026-08-27T18:29:42Z</time>
  <course>47.27</course>
  <speed>0.01</speed>
  <fix>3d</fix>
</trkpt>
<trkpt lat="40.0728447" lon="-105.2309317">
  <ele>1595.46</ele>
  <time>2026-08-27T18:29:42Z</time>
  <course>356.54</course>
  <speed>0.03</speed>
  <fix>3d</fix>
</trkpt>
<trkpt lat="40.0728446" lon="-105.2309317">
  <ele>1595.57</ele>
  <time>2026-08-27T18:29:42Z</time>
  <course>48.73</course>
  <speed>0.01</speed>
  <fix>3d</fix>
</trkpt>
<trkpt lat="40.0728448" lon="-105.2309317">
  <ele>1595.46</ele>
  <time>2026-08-27T18:29:42Z</time>
  <course>354.49</course>
  <speed>0.03</speed>
  <fix>3d</fix>
</trkpt>
<trkpt lat="40.0728446" lon="-105.2309317">
  <ele>1595.57</ele>
  <time>2026-08-27T18:29:42Z</time>
  <course>50.11</course>
  <speed>0.01</speed>
  <fix>3d</fix>
</trkpt>
<trkpt lat="40.0728448" lon="-105.2309317">
  <ele>1595.46</ele>
  <time>2026-08-27T18:29:42Z</time>
  <course>352.83</course>
  <speed>0.03</speed>
  <fix>3d</fix>
</trkpt>
<trkpt lat="40.0728447" lon="-105.2309317">
  <ele>1595.56</ele>
  <time>2026-08-27T18:29:42Z</time>
  <course>51.17</course>
  <speed>0.0</speed>
  <fix>3d</fix>
</trkpt>
<trkpt lat="40.0728449" lon="-105.2309317">
  <ele>1595.45</ele>
  <time>2026-08-27T18:29:42Z</time>
  <course>352.61</course>
  <speed>0.03</speed>
  <fix>3d</fix>
</trkpt>
<trkpt lat="40.0728448" lon="-105.2309317">
  <ele>1595.56</ele>
  <time>2026-08-27T18:29:42Z</time>
  <course>51.83</course>
  <speed>0.0</speed>
  <fix>3d</fix>
</trkpt>
<trkpt lat="40.0728449" lon="-105.2309317">
  <ele>1595.45</ele>
  <time>2026-08-27T18:29:42Z</time>
  <course>354.6</course>
  <speed>0.03</speed>
  <fix>3d</fix>
</trkpt>
<trkpt lat="40.0728448" lon="-105.2309317">
  <ele>1595.55</ele>
  <time>2026-08-27T18:29:42Z</time>
  <course>52.02</course>
  <speed>0.0</speed>
  <fix>3d</fix>
</trkpt>
<trkpt lat="40.072845" lon="-105.2309317">
  <ele>1595.45</ele>
  <time>2026-08-27T18:29:42Z</time>
  <course>358.26</course>
  <speed>0.02</speed>
  <fix>3d</fix>
</trkpt>
<trkpt lat="40.0728448" lon="-105.2309317">
  <ele>1595.55</ele>
  <time>2026-08-27T18:29:42Z</time>
  <course>51.74</course>
  <speed>0.0</speed>
  <fix>3d</fix>
</trkpt>
<trkpt lat="40.072845" lon="-105.2309317">
  <ele>1595.45</ele>
  <time>2026-08-27T18:29:42Z</time>
  <course>2.89</course>
  <speed>0.02</speed>
  <fix>3d</fix>
</trkpt>
<trkpt lat="40.0728449" lon="-105.2309317">
  <ele>1595.56</ele>
  <time>2026-08-27T18:29:42Z</time>
  <course>51.0</course>
  <speed>0.01</speed>
  <fix>3d</fix>
</trkpt>
<trkpt lat="40.072845" lon="-105.2309317">
  <ele>1595.45</ele>
  <time>2026-08-27T18:29:42Z</time>
  <course>7.98</course>
  <speed>0.02</speed>
  <fix>3d</fix>
</trkpt>
<trkpt lat="40.0728449" lon="-105.2309317">
  <ele>1595.55</ele>
  <time>2026-08-27T18:29:42Z</time>
  <course>49.89</course>
  <speed>0.01</speed>
  <fix>3d</fix>
</trkpt>
<trkpt lat="40.0728451" lon="-105.2309317">
  <ele>1595.45</ele>
  <time>2026-08-27T18:29:42Z</time>
  <course>13.17</course>
  <speed>0.02</speed>
  <fix>3d</fix>
</trkpt>
<trkpt lat="40.072845" lon="-105.2309317">
  <ele>1595.55</ele>
  <time>2026-08-27T18:29:42Z</time>
  <course>48.5</course>
  <speed>0.01</speed>
  <fix>3d</fix>
</trkpt>
<trkpt lat="40.0728451" lon="-105.2309317">
  <ele>1595.45</ele>
  <time>2026-08-27T18:29:42Z</time>
  <course>17.43</course>
  <speed>0.02</speed>
  <fix>3d</fix>
</trkpt>
<trkpt lat="40.072845" lon="-105.2309317">
  <ele>1595.56</ele>
  <time>2026-08-27T18:29:42Z</time>
  <course>46.99</course>
  <speed>0.01</speed>
  <fix>3d</fix>
</trkpt>
<trkpt lat="40.0728452" lon="-105.2309317">
  <ele>1595.45</ele>
  <time>2026-08-27T18:29:42Z</time>
  <course>19.88</course>
  <speed>0.02</speed>
  <fix>3d</fix>
</trkpt>
<trkpt lat="40.0728451" lon="-105.2309316">
  <ele>1595.56</ele>
  <time>2026-08-27T18:29:42Z</time>
  <course>45.52</course>
  <speed>0.01</speed>
  <fix>3d</fix>
</trkpt>
<trkpt lat="40.0728453" lon="-105.2309317">
  <ele>1595.45</ele>
  <time>2026-08-27T18:29:42Z</time>
  <course>20.38</course>
  <speed>0.02</speed>
  <fix>3d</fix>
</trkpt>
<trkpt lat="40.0728451" lon="-105.2309316">
  <ele>1595.56</ele>
  <time>2026-08-27T18:29:42Z</time>
  <course>44.17</course>
  <speed>0.01</speed>
  <fix>3d</fix>
</trkpt>
<trkpt lat="40.0728453" lon="-105.2309317">
  <ele>1595.46</ele>
  <time>2026-08-27T18:29:42Z</time>
  <course>18.91</course>
  <speed>0.03</speed>
  <fix>3d</fix>
</trkpt>
<trkpt lat="40.0728452" lon="-105.2309316">
  <ele>1595.56</ele>
  <time>2026-08-27T18:29:42Z</time>
  <course>43.1</course>
  <speed>0.01</speed>
  <fix>3d</fix>
</trkpt>
<trkpt lat="40.0728454" lon="-105.2309317">
  <ele>1595.46</ele>
  <time>2026-08-27T18:29:42Z</time>
  <course>15.68</course>
  <speed>0.03</speed>
  <fix>3d</fix>
</trkpt>
<trkpt lat="40.0728452" lon="-105.2309316">
  <ele>1595.55</ele>
  <time>2026-08-27T18:29:42Z</time>
  <course>42.45</course>
  <speed>0.01</speed>
  <fix>3d</fix>
</trkpt>
<trkpt lat="40.0728454" lon="-105.2309316">
  <ele>1595.46</ele>
  <time>2026-08-27T18:29:42Z</time>
  <course>11.42</course>
  <speed>0.03</speed>
  <fix>3d</fix>
</trkpt>
<trkpt lat="40.0728453" lon="-105.2309316">
  <ele>1595.55</ele>
  <time>2026-08-27T18:29:42Z</time>
  <course>42.24</course>
  <speed>0.01</speed>
  <fix>3d</fix>
</trkpt>
<trkpt lat="40.0728455" lon="-105.2309315">
  <ele>1595.46</ele>
  <time>2026-08-27T18:29:42Z</time>
  <course>7.36</course>
  <speed>0.03</speed>
  <fix>3d</fix>
</trkpt>
<trkpt lat="40.0728454" lon="-105.2309316">
  <ele>1595.55</ele>
  <time>2026-08-27T18:29:42Z</time>
  <course>42.49</course>
  <speed>0.01</speed>
  <fix>3d</fix>
</trkpt>
<trkpt lat="40.0728456" lon="-105.2309315">
  <ele>1595.46</ele>
  <time>2026-08-27T18:29:42Z</time>
  <course>3.66</course>
  <speed>0.03</speed>
  <fix>3d</fix>
</trkpt>
<trkpt lat="40.0728454" lon="-105.2309316">
  <ele>1595.54</ele>
  <time>2026-08-27T18:29:42Z</time>
  <course>43.2</course>
  <speed>0.01</speed>
  <fix>3d</fix>
</trkpt>
<trkpt lat="40.0728456" lon="-105.2309315">
  <ele>1595.46</ele>
  <time>2026-08-27T18:29:42Z</time>
  <course>0.09</course>
  <speed>0.03</speed>
  <fix>3d</fix>
</trkpt>
<trkpt lat="40.0728455" lon="-105.2309316">
  <ele>1595.54</ele>
  <time>2026-08-27T18:29:42Z</time>
  <course>44.3</course>
  <speed>0.01</speed>
  <fix>3d</fix>
</trkpt>
<trkpt lat="40.0728456" lon="-105.2309315">
  <ele>1595.46</ele>
  <time>2026-08-27T18:29:42Z</time>
  <course>357.18</course>
  <speed>0.03</speed>
  <fix>3d</fix>
</trkpt>
<trkpt lat="40.0728456" lon="-105.2309316">
  <ele>1595.55</ele>
  <time>2026-08-27T18:29:42Z</time>
  <course>45.66</course>
  <speed>0.01</speed>
  <fix>3d</fix>
</trkpt>
<trkpt lat="40.0728457" lon="-105.2309315">
  <ele>1595.46</ele>
  <time>2026-08-27T18:29:42Z</time>
  <course>354.85</course>
  <speed>0.03</speed>
  <fix>3d</fix>
</trkpt>
<trkpt lat="40.0728456" lon="-105.2309316">
  <ele>1595.55</ele>
  <time>2026-08-27T18:29:42Z</time>
  <course>47.18</course>
  <speed>0.01</speed>
  <fix>3d</fix>
</trkpt>
<trkpt lat="40.0728458" lon="-105.2309315">
  <ele>1595.47</ele>
  <time>2026-08-27T18:29:42Z</time>
  <course>353.13</course>
  <speed>0.03</speed>
  <fix>3d</fix>
</trkpt>
<trkpt lat="40.0728457" lon="-105.2309316">
  <ele>1595.56</ele>
  <time>2026-08-27T18:29:42Z</time>
  <course>48.69</course>
  <speed>0.01</speed>
  <fix>3d</fix>
</trkpt>
<trkpt lat="40.0728459" lon="-105.2309315">
  <ele>1595.47</ele>
  <time>2026-08-27T18:29:42Z</time>
  <course>352.42</course>
  <speed>0.03</speed>
  <fix>3d</fix>
</trkpt>
<trkpt lat="40.0728458" lon="-105.2309316">
  <ele>1595.56</ele>
  <time>2026-08-27T18:29:42Z</time>
  <course>50.06</course>
  <speed>0.01</speed>
  <fix>3d</fix>
</trkpt>
<trkpt lat="40.0728459" lon="-105.2309315">
  <ele>1595.47</ele>
  <time>2026-08-27T18:29:42Z</time>
  <course>352.4</course>
  <speed>0.03</speed>
  <fix>3d</fix>
</trkpt>
<trkpt lat="40.0728458" lon="-105.2309316">
  <ele>1595.57</ele>
  <time>2026-08-27T18:29:42Z</time>
  <course>51.16</course>
  <speed>0.0</speed>
  <fix>3d</fix>
</trkpt>
<trkpt lat="40.072846" lon="-105.2309315">
  <ele>1595.48</ele>
  <time>2026-08-27T18:29:42Z</time>
  <course>353.23</course>
  <speed>0.03</speed>
  <fix>3d</fix>
</trkpt>
<trkpt lat="40.0728459" lon="-105.2309316">
  <ele>1595.56</ele>
  <time>2026-08-27T18:29:42Z</time>
  <course>51.83</course>
  <speed>0.0</speed>
  <fix>3d</fix>
</trkpt>
<trkpt lat="40.0728461" lon="-105.2309315">
  <ele>1595.48</ele>
  <time>2026-08-27T18:29:42Z</time>
  <course>355.17</course>
  <speed>0.03</speed>
  <fix>3d</fix>
</trkpt>
<trkpt lat="40.0728459" lon="-105.2309316">
  <ele>1595.56</ele>
  <time>2026-08-27T18:29:42Z</time>
  <course>52.02</course>
  <speed>0.0</speed>
  <fix>3d</fix>
</trkpt>
<trkpt lat="40.0728461" lon="-105.2309315">
  <ele>1595.48</ele>
  <time>2026-08-27T18:29:42Z</time>
  <course>358.99</course>
  <speed>0.02</speed>
  <fix>3d</fix>
</trkpt>
<trkpt lat="40.072846" lon="-105.2309315">
  <ele>1595.57</ele>
  <time>2026-08-27T18:29:42Z</time>
  <course>51.75</course>
  <speed>0.0</speed>
  <fix>3d</fix>
</trkpt>
<trkpt lat="40.0728462" lon="-105.2309315">
  <ele>1595.48</ele>
  <time>2026-08-27T18:29:42Z</time>
  <course>4.51</course>
  <speed>0.02</speed>
  <fix>3d</fix>
</trkpt>
<trkpt lat="40.072846" lon="-105.2309315">
  <ele>1595.57</ele>
  <time>2026-08-27T18:29:42Z</time>
  <course>51.05</course>
  <speed>0.01</speed>
  <fix>3d</fix>
</trkpt>
<trkpt lat="40.0728462" lon="-105.2309315">
  <ele>1595.48</ele>
  <time>2026-08-27T18:29:42Z</time>
  <course>9.84</course>
  <speed>0.02</speed>
  <fix>3d</fix>
</trkpt>
<trkpt lat="40.0728461" lon="-105.2309315">
  <ele>1595.56</ele>
  <time>2026-08-27T18:29:42Z</time>
  <course>49.95</course>
  <speed>0.01</speed>
  <fix>3d</fix>
</trkpt>
<trkpt lat="40.0728462" lon="-105.2309315">
  <ele>1595.48</ele>
  <time>2026-08-27T18:29:42Z</time>
  <course>14.29</course>
  <speed>0.02</speed>
  <fix>3d</fix>
</trkpt>
<trkpt lat="40.0728461" lon="-105.2309315">
  <ele>1595.56</ele>
  <time>2026-08-27T18:29:42Z</time>
  <course>48.58</course>
  <speed>0.01</speed>
  <fix>3d</fix>
</trkpt>
<trkpt lat="40.0728463" lon="-105.2309315">
  <ele>1595.48</ele>
  <time>2026-08-27T18:29:42Z</time>
  <course>17.87</course>
  <speed>0.02</speed>
  <fix>3d</fix>
</trkpt>
<trkpt lat="40.0728462" lon="-105.2309315">
  <ele>1595.56</ele>
  <time>2026-08-27T18:29:42Z</time>
  <course>47.03</course>
  <speed>0.01</speed>
  <fix>3d</fix>
</trkpt>
<trkpt lat="40.0728463" lon="-105.2309315">
  <ele>1595.48</ele>
  <time>2026-08-27T18:29:42Z</time>
  <course>20.06</course>
  <speed>0.02</speed>
  <fix>3d</fix>
</trkpt>
<trkpt lat="40.0728462" lon="-105.2309314">
  <ele>1595.56</ele>
  <time>2026-08-27T18:29:42Z</time>
  <course>45.51</course>
  <speed>0.01</speed>
  <fix>3d</fix>
</trkpt>
<trkpt lat="40.0728464" lon="-105.2309315">
  <ele>1595.48</ele>
  <time>2026-08-27T18:29:42Z</time>
  <course>20.31</course>
  <speed>0.02</speed>
  <fix>3d</fix>
</trkpt>
<trkpt lat="40.0728463" lon="-105.2309314">
  <ele>1595.56</ele>
  <time>2026-08-27T18:29:42Z</time>
  <course>44.16</course>
  <speed>0.01</speed>
  <fix>3d</fix>
</trkpt>
<trkpt lat="40.0728465" lon="-105.2309315">
  <ele>1595.48</ele>
  <time>2026-08-27T18:29:42Z</time>
  <course>19.06</course>
  <speed>0.03</speed>
  <fix>3d</fix>
</trkpt>
<trkpt lat="40.0728463" lon="-105.2309314">
  <ele>1595.56</ele>
  <time>2026-08-27T18:29:42Z</time>
  <course>43.09</course>
  <speed>0.01</speed>
  <fix>3d</fix>
</trkpt>
<trkpt lat="40.0728465" lon="-105.2309315">
  <ele>1595.48</ele>
  <time>2026-08-27T18:29:42Z</time>
  <course>16.7</course>
  <speed>0.03</speed>
  <fix>3d</fix>
</trkpt>
<trkpt lat="40.0728464" lon="-105.2309314">
  <ele>1595.56</ele>
  <time>2026-08-27T18:29:42Z</time>
  <course>42.42</course>
  <speed>0.01</speed>
  <fix>3d</fix>
</trkpt>
<trkpt lat="40.0728466" lon="-105.2309315">
  <ele>1595.48</ele>
  <time>2026-08-27T18:29:42Z</time>
  <course>13.21</course>
  <speed>0.03</speed>
  <fix>3d</fix>
</trkpt>
<trkpt lat="40.0728464" lon="-105.2309314">
  <ele>1595.56</ele>
  <time>2026-08-27T18:29:42Z</time>
  <course>42.21</course>
  <speed>0.01</speed>
  <fix>3d</fix>
</trkpt>
<trkpt lat="40.0728466" lon="-105.2309315">
  <ele>1595.48</ele>
  <time>2026-08-27T18:29:42Z</time>
  <course>9.31</course>
  <speed>0.03</speed>
  <fix>3d</fix>
</trkpt>
<trkpt lat="40.0728465" lon="-105.2309314">
  <ele>1595.57</ele>
  <time>2026-08-27T18:29:42Z</time>
  <course>42.18</course>
  <speed>0.01</speed>
  <fix>3d</fix>
</trkpt>
<trkpt lat="40.0728467" lon="-105.2309315">
  <ele>1595.48</ele>
  <time>2026-08-27T18:29:42Z</time>
  <course>6.97</course>
  <speed>0.03</speed>
  <fix>3d</fix>
</trkpt>
<trkpt lat="40.0728466" lon="-105.2309314">
  <ele>1595.57</ele>
  <time>2026-08-27T18:29:42Z</time>
  <course>42.15</course>
  <speed>0.01</speed>
  <fix>3d</fix>
</trkpt>
<trkpt lat="40.0728467" lon="-105.2309315">
  <ele>1595.48</ele>
  <time>2026-08-27T18:29:42Z</time>
  <course>7.48</course>
  <speed>0.03</speed>
  <fix>3d</fix>
</trkpt>
<trkpt lat="40.0728466" lon="-105.2309314">
  <ele>1595.57</ele>
  <time>2026-08-27T18:29:42Z</time>
  <course>42.16</course>
  <speed>0.01</speed>
  <fix>3d</fix>
</trkpt>
<trkpt lat="40.0728468" lon="-105.2309315">
  <ele>1595.48</ele>
  <time>2026-08-27T18:29:42Z</time>
  <course>8.86</course>
  <speed>0.03</speed>
  <fix>3d</fix>
</trkpt>
<trkpt lat="40.0728467" lon="-105.2309314">
  <ele>1595.57</ele>
  <time>2026-08-27T18:29:42Z</time>
  <course>42.15</course>
  <speed>0.01</speed>
  <fix>3d</fix>
</trkpt>
<trkpt lat="40.0728468" lon="-105.2309315">
  <ele>1595.48</ele>
  <time>2026-08-27T18:29:42Z</time>
  <course>10.09</course>
  <speed>0.03</speed>
  <fix>3d</fix>
</trkpt>
<trkpt lat="40.0728468" lon="-105.2309314">
  <ele>1595.57</ele>
  <time>2026-08-27T18:29:42Z</time>
  <course>42.14</course>
  <speed>0.01414213562373095</speed>
  <fix>3d</fix>
</trkpt>
<trkpt lat="40.0728469" lon="-105.2309314">
  <ele>1595.48</ele>
  <time>2026-08-27T18:29:42Z</time>
  <course>11.81</course>
  <speed>0.04</speed>
  <fix>3d</fix>
</trkpt>
<trkpt lat="40.0728468" lon="-105.2309314">
  <ele>1595.57</ele>
  <time>2026-08-27T18:29:42Z</time>
  <course>42.15</course>
  <speed>0.022360679774997897</speed>
  <fix>3d</fix>
</trkpt>
<trkpt lat="40.072847" lon="-105.2309313">
  <ele>1595.48</ele>
  <time>2026-08-27T18:29:42Z</time>
  <course>13.32</course>
  <speed>0.04</speed>
  <fix>3d</fix>
</trkpt>
<trkpt lat="40.0728469" lon="-105.2309313">
  <ele>1595.56</ele>
  <time>2026-08-27T18:29:42Z</time>
  <course>42.15</course>
  <speed>0.022360679774997897</speed>
  <fix>3d</fix>
</trkpt>
<trkpt lat="40.0728471" lon="-105.2309313">
  <ele>1595.48</ele>
  <time>2026-08-27T18:29:42Z</time>
  <course>14.19</course>
  <speed>0.04</speed>
  <fix>3d</fix>
</trkpt>
<trkpt lat="40.072847" lon="-105.2309313">
  <ele>1595.55</ele>
  <time>2026-08-27T18:29:42Z</time>
  <course>42.14</course>
  <speed>0.022360679774997897</speed>
  <fix>3d</fix>
</trkpt>
<trkpt lat="40.0728472" lon="-105.2309313">
  <ele>1595.48</ele>
  <time>2026-08-27T18:29:42Z</time>
  <course>15.38</course>
  <speed>0.04</speed>
  <fix>3d</fix>
</trkpt>
<trkpt lat="40.0728471" lon="-105.2309313">
  <ele>1595.55</ele>
  <time>2026-08-27T18:29:42Z</time>
  <course>42.14</course>
  <speed>0.022360679774997897</speed>
  <fix>3d</fix>
</trkpt>
<trkpt lat="40.0728473" lon="-105.2309313">
  <ele>1595.47</ele>
  <time>2026-08-27T18:29:42Z</time>
  <course>16.95</course>
  <speed>0.04</speed>
  <fix>3d</fix>
</trkpt>
<trkpt lat="40.0728472" lon="-105.2309312">
  <ele>1595.55</ele>
  <time>2026-08-27T18:29:42Z</time>
  <course>42.12</course>
  <speed>0.022360679774997897</speed>
  <fix>3d</fix>
</trkpt>
<trkpt lat="40.0728473" lon="-105.2309313">
  <ele>1595.47</ele>
  <time>2026-08-27T18:29:42Z</time>
  <course>18.04</course>
  <speed>0.05</speed>
  <fix>3d</fix>
</trkpt>
<trkpt lat="40.0728473" lon="-105.2309312">
  <ele>1595.55</ele>
  <time>2026-08-27T18:29:42Z</time>
  <course>42.13</course>
  <speed>0.022360679774997897</speed>
  <fix>3d</fix>
</trkpt>
<trkpt lat="40.0728474" lon="-105.2309313">
  <ele>1595.48</ele>
  <time>2026-08-27T18:29:42Z</time>
  <course>18.45</course>
  <speed>0.05</speed>
  <fix>3d</fix>
</trkpt>
<trkpt lat="40.0728474" lon="-105.2309312">
  <ele>1595.56</ele>
  <time>2026-08-27T18:29:42Z</time>
  <course>42.14</course>
  <speed>0.022360679774997897</speed>
  <fix>3d</fix>
</trkpt>
<trkpt lat="40.0728475" lon="-105.2309312">
  <ele>1595.48</ele>
  <time>2026-08-27T18:29:42Z</time>
  <course>18.55</course>
  <speed>0.05</speed>
  <fix>3d</fix>
</trkpt>
<trkpt lat="40.0728474" lon="-105.2309311">
  <ele>1595.56</ele>
  <time>2026-08-27T18:29:42Z</time>
  <course>42.15</course>
  <speed>0.03605551275463989</speed>
  <fix>3d</fix>
</trkpt>
<trkpt lat="40.0728476" lon="-105.2309312">
  <ele>1595.48</ele>
  <time>2026-08-27T18:29:42Z</time>
  <course>18.86</course>
  <speed>0.05</speed>
  <fix>3d</fix>
</trkpt>
<trkpt lat="40.0728475" lon="-105.2309311">
  <ele>1595.56</ele>
  <time>2026-08-27T18:29:42Z</time>
  <course>42.15</course>
  <speed>0.03605551275463989</speed>
  <fix>3d</fix>
</trkpt>
<trkpt lat="40.0728477" lon="-105.2309311">
  <ele>1595.48</ele>
  <time>2026-08-27T18:29:42Z</time>
  <course>19.34</course>
  <speed>0.05</speed>
  <fix>3d</fix>
</trkpt>
<trkpt lat="40.0728476" lon="-105.2309311">
  <ele>1595.56</ele>
  <time>2026-08-27T18:29:42Z</time>
  <course>42.15</course>
  <speed>0.03605551275463989</speed>
  <fix>3d</fix>
</trkpt>
<trkpt lat="40.0728478" lon="-105.230931">
  <ele>1595.48</ele>
  <time>2026-08-27T18:29:42Z</time>
  <course>19.83</course>
  <speed>0.05</speed>
  <fix>3d</fix>
</trkpt>
<trkpt lat="40.0728477" lon="-105.230931">
  <ele>1595.56</ele>
  <time>2026-08-27T18:29:42Z</time>
  <course>42.15</course>
  <speed>0.03605551275463989</speed>
  <fix>3d</fix>
</trkpt>
<trkpt lat="40.0728479" lon="-105.230931">
  <ele>1595.48</ele>
  <time>2026-08-27T18:29:42Z</time>
  <course>19.99</course>
  <speed>0.05</speed>
  <fix>3d</fix>
</trkpt>
<trkpt lat="40.0728479" lon="-105.230931">
  <ele>1595.56</ele>
  <time>2026-08-27T18:29:42Z</time>
  <course>42.01</course>
  <speed>0.03605551275463989</speed>
  <fix>3d</fix>
</trkpt>
<trkpt lat="40.072848" lon="-105.230931">
  <ele>1595.48</ele>
  <time>2026-08-27T18:29:42Z</time>
  <course>20.34</course>
  <speed>0.06</speed>
  <fix>3d</fix>
</trkpt>
<trkpt lat="40.072848" lon="-105.2309309">
  <ele>1595.56</ele>
  <time>2026-08-27T18:29:42Z</time>
  <course>41.01</course>
  <speed>0.03605551275463989</speed>
  <fix>3d</fix>
</trkpt>
<trkpt lat="40.0728481" lon="-105.2309309">
  <ele>1595.48</ele>
  <time>2026-08-27T18:29:42Z</time>
  <course>22.49</course>
  <speed>0.06</speed>
  <fix>3d</fix>
</trkpt>
<trkpt lat="40.072848" lon="-105.2309308">
  <ele>1595.56</ele>
  <time>2026-08-27T18:29:42Z</time>
  <course>39.67</course>
  <speed>0.03605551275463989</speed>
  <fix>3d</fix>
</trkpt>
<trkpt lat="40.0728482" lon="-105.2309308">
  <ele>1595.49</ele>
  <time>2026-08-27T18:29:42Z</time>
  <course>24.0</course>
  <speed>0.05</speed>
  <fix>3d</fix>
</trkpt>
<trkpt lat="40.0728481" lon="-105.2309308">
  <ele>1595.56</ele>
  <time>2026-08-27T18:29:42Z</time>
  <course>38.48</course>
  <speed>0.03605551275463989</speed>
  <fix>3d</fix>
</trkpt>
<trkpt lat="40.0728483" lon="-105.2309308">
  <ele>1595.49</ele>
  <time>2026-08-27T18:29:42Z</time>
  <course>22.87</course>
  <speed>0.05</speed>
  <fix>3d</fix>
</trkpt>
<trkpt lat="40.0728482" lon="-105.2309307">
  <ele>1595.56</ele>
  <time>2026-08-27T18:29:42Z</time>
  <course>37.66</course>
  <speed>0.022360679774997897</speed>
  <fix>3d</fix>
</trkpt>
<trkpt lat="40.0728484" lon="-105.2309308">
  <ele>1595.49</ele>
  <time>2026-08-27T18:29:42Z</time>
  <course>20.54</course>
  <speed>0.05</speed>
  <fix>3d</fix>
</trkpt>
<trkpt lat="40.0728483" lon="-105.2309307">
  <ele>1595.57</ele>
  <time>2026-08-27T18:29:42Z</time>
  <course>37.27</course>
  <speed>0.022360679774997897</speed>
  <fix>3d</fix>
</trkpt>
<trkpt lat="40.0728485" lon="-105.2309307">
  <ele>1595.49</ele>
  <time>2026-08-27T18:29:42Z</time>
  <course>17.24</course>
  <speed>0.05</speed>
  <fix>3d</fix>
</trkpt>
<trkpt lat="40.0728484" lon="-105.2309307">
  <ele>1595.56</ele>
  <time>2026-08-27T18:29:42Z</time>
  <course>37.35</course>
  <speed>0.022360679774997897</speed>
  <fix>3d</fix>
</trkpt>
<trkpt lat="40.0728486" lon="-105.2309307">
  <ele>1595.49</ele>
  <time>2026-08-27T18:29:42Z</time>
  <course>13.12</course>
  <speed>0.04</speed>
  <fix>3d</fix>
</trkpt>
<trkpt lat="40.0728485" lon="-105.2309307">
  <ele>1595.56</ele>
  <time>2026-08-27T18:29:42Z</time>
  <course>37.92</course>
  <speed>0.02</speed>
  <fix>3d</fix>
</trkpt>
<trkpt lat="40.0728487" lon="-105.2309307">
  <ele>1595.49</ele>
  <time>2026-08-27T18:29:42Z</time>
  <course>8.45</course>
  <speed>0.04</speed>
  <fix>3d</fix>
</trkpt>
<trkpt lat="40.0728486" lon="-105.2309307">
  <ele>1595.55</ele>
  <time>2026-08-27T18:29:42Z</time>
  <course>38.88</course>
  <speed>0.01</speed>
  <fix>3d</fix>
</trkpt>
<trkpt lat="40.0728487" lon="-105.2309307">
  <ele>1595.49</ele>
  <time>2026-08-27T18:29:42Z</time>
  <course>3.6</course>
  <speed>0.04</speed>
  <fix>3d</fix>
</trkpt>
<trkpt lat="40.0728486" lon="-105.2309307">
  <ele>1595.55</ele>
  <time>2026-08-27T18:29:42Z</time>
  <course>40.17</course>
  <speed>0.01</speed>
  <fix>3d</fix>
</trkpt>
<trkpt lat="40.0728488" lon="-105.2309307">
  <ele>1595.49</ele>
  <time>2026-08-27T18:29:42Z</time>
  <course>359.43</course>
  <speed>0.03</speed>
  <fix>3d</fix>
</trkpt>
<trkpt lat="40.0728487" lon="-105.2309307">
  <ele>1595.55</ele>
  <time>2026-08-27T18:29:42Z</time>
  <course>41.6</course>
  <speed>0.01</speed>
  <fix>3d</fix>
</trkpt>
<trkpt lat="40.0728489" lon="-105.2309307">
  <ele>1595.49</ele>
  <time>2026-08-27T18:29:42Z</time>
  <course>356.25</course>
  <speed>0.03</speed>
  <fix>3d</fix>
</trkpt>
<trkpt lat="40.0728488" lon="-105.2309307">
  <ele>1595.55</ele>
  <time>2026-08-27T18:29:42Z</time>
  <course>43.11</course>
  <speed>0.01</speed>
  <fix>3d</fix>
</trkpt>
<trkpt lat="40.072849" lon="-105.2309307">
  <ele>1595.49</ele>
  <time>2026-08-27T18:29:42Z</time>
  <course>353.95</course>
  <speed>0.03</speed>
  <fix>3d</fix>
</trkpt>
<trkpt lat="40.0728488" lon="-105.2309307">
  <ele>1595.56</ele>
  <time>2026-08-27T18:29:42Z</time>
  <course>44.56</course>
  <speed>0.0</speed>
  <fix>3d</fix>
</trkpt>
<trkpt lat="40.072849" lon="-105.2309307">
  <ele>1595.5</ele>
  <time>2026-08-27T18:29:42Z</time>
  <course>352.57</course>
  <speed>0.03</speed>
  <fix>3d</fix>
</trkpt>
<trkpt lat="40.0728489" lon="-105.2309307">
  <ele>1595.56</ele>
  <time>2026-08-27T18:29:42Z</time>
  <course>45.78</course>
  <speed>0.0</speed>
  <fix>3d</fix>
</trkpt>
<trkpt lat="40.0728491" lon="-105.2309307">
  <ele>1595.5</ele>
  <time>2026-08-27T18:29:42Z</time>
  <course>352.72</course>
  <speed>0.03</speed>
  <fix>3d</fix>
</trkpt>
<trkpt lat="40.0728489" lon="-105.2309307">
  <ele>1595.56</ele>
  <time>2026-08-27T18:29:42Z</time>
  <course>46.62</course>
  <speed>0.0</speed>
  <fix>3d</fix>
</trkpt>
<trkpt lat="40.0728491" lon="-105.2309307">
  <ele>1595.5</ele>
  <time>2026-08-27T18:29:42Z</time>
  <course>355.05</course>
  <speed>0.02</speed>
  <fix>3d</fix>
</trkpt>
<trkpt lat="40.072849" lon="-105.2309307">
  <ele>1595.55</ele>
  <time>2026-08-27T18:29:42Z</time>
  <course>47.02</course>
  <speed>0.0</speed>
  <fix>3d</fix>
</trkpt>
<trkpt lat="40.0728492" lon="-105.2309307">
  <ele>1595.5</ele>
  <time>2026-08-27T18:29:42Z</time>
  <course>359.42</course>
  <speed>0.02</speed>
  <fix>3d</fix>
</trkpt>
<trkpt lat="40.072849" lon="-105.2309307">
  <ele>1595.56</ele>
  <time>2026-08-27T18:29:42Z</time>
  <course>46.94</course>
  <speed>0.0</speed>
  <fix>3d</fix>
</trkpt>
<trkpt lat="40.0728492" lon="-105.2309307">
  <ele>1595.51</ele>
  <time>2026-08-27T18:29:42Z</time>
  <course>5.28</course>
  <speed>0.02</speed>
  <fix>3d</fix>
</trkpt>
<trkpt lat="40.0728491" lon="-105.2309307">
  <ele>1595.56</ele>
  <time>2026-08-27T18:29:42Z</time>
  <course>46.35</course>
  <speed>0.01</speed>
  <fix>3d</fix>
</trkpt>
<trkpt lat="40.0728493" lon="-105.2309307">
  <ele>1595.51</ele>
  <time>2026-08-27T18:29:42Z</time>
  <course>10.76</course>
  <speed>0.02</speed>
  <fix>3d</fix>
</trkpt>
<trkpt lat="40.0728491" lon="-105.2309307">
  <ele>1595.55</ele>
  <time>2026-08-27T18:29:42Z</time>
  <course>45.41</course>
  <speed>0.01</speed>
  <fix>3d</fix>
</trkpt>
<trkpt lat="40.0728493" lon="-105.2309307">
  <ele>1595.51</ele>
  <time>2026-08-27T18:29:42Z</time>
  <course>14.93</course>
  <speed>0.02</speed>
  <fix>3d</fix>
</trkpt>
<trkpt lat="40.0728492" lon="-105.2309306">
  <ele>1595.56</ele>
  <time>2026-08-27T18:29:42Z</time>
  <course>44.12</course>
  <speed>0.01</speed>
  <fix>3d</fix>
</trkpt>
<trkpt lat="40.0728493" lon="-105.2309307">
  <ele>1595.51</ele>
  <time>2026-08-27T18:29:42Z</time>
  <course>18.21</course>
  <speed>0.02</speed>
  <fix>3d</fix>
</trkpt>
<trkpt lat="40.0728492" lon="-105.2309306">
  <ele>1595.56</ele>
  <time>2026-08-27T18:29:42Z</time>
  <course>42.63</course>
  <speed>0.01</speed>
  <fix>3d</fix>
</trkpt>
<trkpt lat="40.0728493" lon="-105.2309307">
  <ele>1595.51</ele>
  <time>2026-08-27T18:29:42Z</time>
  <course>19.95</course>
  <speed>0.02</speed>
  <fix>3d</fix>
</trkpt>
<trkpt lat="40.0728492" lon="-105.2309306">
  <ele>1595.57</ele>
  <time>2026-08-27T18:29:42Z</time>
  <course>41.14</course>
  <speed>0.01</speed>
  <fix>3d</fix>
</trkpt>
<trkpt lat="40.0728494" lon="-105.2309306">
  <ele>1595.51</ele>
  <time>2026-08-27T18:29:42Z</time>
  <course>19.42</course>
  <speed>0.02</speed>
  <fix>3d</fix>
</trkpt>
<trkpt lat="40.0728493" lon="-105.2309306">
  <ele>1595.57</ele>
  <time>2026-08-27T18:29:42Z</time>
  <course>39.7</course>
  <speed>0.01</speed>
  <fix>3d</fix>
</trkpt>
<trkpt lat="40.0728494" lon="-105.2309305">
  <ele>1595.52</ele>
  <time>2026-08-27T18:29:42Z</time>
  <course>17.25</course>
  <speed>0.03</speed>
  <fix>3d</fix>
</trkpt>
<trkpt lat="40.0728493" lon="-105.2309306">
  <ele>1595.57</ele>
  <time>2026-08-27T18:29:42Z</time>
  <course>38.56</course>
  <speed>0.01</speed>
  <fix>3d</fix>
</trkpt>
<trkpt lat="40.0728495" lon="-105.2309305">
  <ele>1595.52</ele>
  <time>2026-08-27T18:29:42Z</time>
  <course>13.09</course>
  <speed>0.03</speed>
  <fix>3d</fix>
</trkpt>
<trkpt lat="40.0728494" lon="-105.2309305">
  <ele>1595.57</ele>
  <time>2026-08-27T18:29:42Z</time>
  <course>37.71</course>
  <speed>0.01</speed>
  <fix>3d</fix>
</trkpt>
<trkpt lat="40.0728496" lon="-105.2309305">
  <ele>1595.52</ele>
  <time>2026-08-27T18:29:42Z</time>
  <course>8.14</course>
  <speed>0.03</speed>
  <fix>3d</fix>
</trkpt>
<trkpt lat="40.0728495" lon="-105.2309305">
  <ele>1595.57</ele>
  <time>2026-08-27T18:29:42Z</time>
  <course>37.3</course>
  <speed>0.01</speed>
  <fix>3d</fix>
</trkpt>
<trkpt lat="40.0728497" lon="-105.2309305">
  <ele>1595.52</ele>
  <time>2026-08-27T18:29:42Z</time>
  <course>3.75</course>
  <speed>0.03</speed>
  <fix>3d</fix>
</trkpt>
<trkpt lat="40.0728495" lon="-105.2309305">
  <ele>1595.58</ele>
  <time>2026-08-27T18:29:42Z</time>
  <course>37.38</course>
  <speed>0.01</speed>
  <fix>3d</fix>
</trkpt>
<trkpt lat="40.0728497" lon="-105.2309305">
  <ele>1595.51</ele>
  <time>2026-08-27T18:29:42Z</time>
  <course>359.7</course>
  <speed>0.03</speed>
  <fix>3d</fix>
</trkpt>
<trkpt lat="40.0728496" lon="-105.2309305">
  <ele>1595.58</ele>
  <time>2026-08-27T18:29:42Z</time>
  <course>37.95</course>
  <speed>0.01</speed>
  <fix>3d</fix>
</trkpt>
<trkpt lat="40.0728498" lon="-105.2309305">
  <ele>1595.51</ele>
  <time>2026-08-27T18:29:42Z</time>
  <course>355.98</course>
  <speed>0.03</speed>
  <fix>3d</fix>
</trkpt>
<trkpt lat="40.0728497" lon="-105.2309305">
  <ele>1595.58</ele>
  <time>2026-08-27T18:29:42Z</time>
  <course>38.92</course>
  <speed>0.01</speed>
  <fix>3d</fix>
</trkpt>
<trkpt lat="40.0728498" lon="-105.2309305">
  <ele>1595.51</ele>
  <time>2026-08-27T18:29:42Z</time>
  <course>352.85</course>
  <speed>0.03</speed>
  <fix>3d</fix>
</trkpt>
<trkpt lat="40.0728497" lon="-105.2309305">
  <ele>1595.58</ele>
  <time>2026-08-27T18:29:42Z</time>
  <course>40.2</course>
  <speed>0.01</speed>
  <fix>3d</fix>
</trkpt>
<trkpt lat="40.0728499" lon="-105.2309305">
  <ele>1595.51</ele>
  <time>2026-08-27T18:29:42Z</time>
  <course>350.93</course>
  <speed>0.03</speed>
  <fix>3d</fix>
</trkpt>
<trkpt lat="40.0728498" lon="-105.2309305">
  <ele>1595.58</ele>
  <time>2026-08-27T18:29:42Z</time>
  <course>41.7</course>
  <speed>0.01</speed>
  <fix>3d</fix>
</trkpt>
<trkpt lat="40.0728499" lon="-105.2309305">
  <ele>1595.5</ele>
  <time>2026-08-27T18:29:42Z</time>
  <course>350.12</course>
  <speed>0.03</speed>
  <fix>3d</fix>
</trkpt>
<trkpt lat="40.0728499" lon="-105.2309305">
  <ele>1595.58</ele>
  <time>2026-08-27T18:29:42Z</time>
  <course>43.23</course>
  <speed>0.01</speed>
  <fix>3d</fix>
</trkpt>
<trkpt lat="40.07285" lon="-105.2309305">
  <ele>1595.5</ele>
  <time>2026-08-27T18:29:42Z</time>
  <course>349.93</course>
  <speed>0.03</speed>
  <fix>3d</fix>
</trkpt>
<trkpt lat="40.0728499" lon="-105.2309305">
  <ele>1595.58</ele>
  <time>2026-08-27T18:29:42Z</time>
  <course>44.64</course>
  <speed>0.0</speed>
  <fix>3d</fix>
</trkpt>
<trkpt lat="40.0728501" lon="-105.2309305">
  <ele>1595.49</ele>
  <time>2026-08-27T18:29:42Z</time>
  <course>350.61</course>
  <speed>0.03</speed>
  <fix>3d</fix>
</trkpt>
<trkpt lat="40.07285" lon="-105.2309305">
  <ele>1595.57</ele>
  <time>2026-08-27T18:29:42Z</time>
  <course>45.83</course>
  <speed>0.0</speed>
  <fix>3d</fix>
</trkpt>
<trkpt lat="40.0728502" lon="-105.2309305">
  <ele>1595.49</ele>
  <time>2026-08-27T18:29:42Z</time>
  <course>352.73</course>
  <speed>0.03</speed>
  <fix>3d</fix>
</trkpt>
<trkpt lat="40.07285" lon="-105.2309305">
  <ele>1595.57</ele>
  <time>2026-08-27T18:29:42Z</time>
  <course>46.67</course>
  <speed>0.0</speed>
  <fix>3d</fix>
</trkpt>
<trkpt lat="40.0728502" lon="-105.2309305">
  <ele>1595.48</ele>
  <time>2026-08-27T18:29:42Z</time>
  <course>356.55</course>
  <speed>0.03</speed>
  <fix>3d</fix>
</trkpt>
<trkpt lat="40.0728501" lon="-105.2309305">
  <ele>1595.57</ele>
  <time>2026-08-27T18:29:42Z</time>
  <course>47.07</course>
  <speed>0.0</speed>
  <fix>3d</fix>
</trkpt>
<trkpt lat="40.0728503" lon="-105.2309305">
  <ele>1595.48</ele>
  <time>2026-08-27T18:29:42Z</time>
  <course>0.64</course>
  <speed>0.02</speed>
  <fix>3d</fix>
</trkpt>
<trkpt lat="40.0728501" lon="-105.2309305">
  <ele>1595.56</ele>
  <time>2026-08-27T18:29:42Z</time>
  <course>46.98</course>
  <speed>0.01</speed>
  <fix>3d</fix>
</trkpt>
<trkpt lat="40.0728503" lon="-105.2309305">
  <ele>1595.48</ele>
  <time>2026-08-27T18:29:42Z</time>
  <course>4.5</course>
  <speed>0.02</speed>
  <fix>3d</fix>
</trkpt>
<trkpt lat="40.0728502" lon="-105.2309305">
  <ele>1595.56</ele>
  <time>2026-08-27T18:29:42Z</time>
  <course>46.41</course>
  <speed>0.01</speed>
  <fix>3d</fix>
</trkpt>
<trkpt lat="40.0728504" lon="-105.2309305">
  <ele>1595.47</ele>
  <time>2026-08-27T18:29:42Z</time>
  <course>8.75</course>
  <speed>0.02</speed>
  <fix>3d</fix>
</trkpt>
<trkpt lat="40.0728502" lon="-105.2309305">
  <ele>1595.55</ele>
  <time>2026-08-27T18:29:42Z</time>
  <course>45.42</course>
  <speed>0.01</speed>
  <fix>3d</fix>
</trkpt>
<trkpt lat="40.0728504" lon="-105.2309305">
  <ele>1595.47</ele>
  <time>2026-08-27T18:29:42Z</time>
  <course>12.21</course>
  <speed>0.02</speed>
  <fix>3d</fix>
</trkpt>
<trkpt lat="40.0728503" lon="-105.2309305">
  <ele>1595.56</ele>
  <time>2026-08-27T18:29:42Z</time>
  <course>44.12</course>
  <speed>0.01</speed>
  <fix>3d</fix>
</trkpt>
<trkpt lat="40.0728505" lon="-105.2309305">
  <ele>1595.47</ele>
  <time>2026-08-27T18:29:42Z</time>
  <course>14.14</course>
  <speed>0.02</speed>
  <fix>3d</fix>
</trkpt>
<trkpt lat="40.0728503" lon="-105.2309304">
  <ele>1595.56</ele>
  <time>2026-08-27T18:29:42Z</time>
  <course>42.64</course>
  <speed>0.01</speed>
  <fix>3d</fix>
</trkpt>
<trkpt lat="40.0728505" lon="-105.2309305">
  <ele>1595.47</ele>
  <time>2026-08-27T18:29:42Z</time>
  <course>14.94</course>
  <speed>0.02</speed>
  <fix>3d</fix>
</trkpt>
<trkpt lat="40.0728504" lon="-105.2309304">
  <ele>1595.56</ele>
  <time>2026-08-27T18:29:42Z</time>
  <course>41.11</course>
  <speed>0.01</speed>
  <fix>3d</fix>
</trkpt>
<trkpt lat="40.0728505" lon="-105.2309305">
  <ele>1595.47</ele>
  <time>2026-08-27T18:29:42Z</time>
  <course>14.24</course>
  <speed>0.02</speed>
  <fix>3d</fix>
</trkpt>
<trkpt lat="40.0728504" lon="-105.2309304">
  <ele>1595.55</ele>
  <time>2026-08-27T18:29:42Z</time>
  <course>39.68</course>
  <speed>0.01</speed>
  <fix>3d</fix>
</trkpt>
<trkpt lat="40.0728506" lon="-105.2309305">
  <ele>1595.47</ele>
  <time>2026-08-27T18:29:42Z</time>
  <course>11.89</course>
  <speed>0.03</speed>
  <fix>3d</fix>
</trkpt>
<trkpt lat="40.0728505" lon="-105.2309304">
  <ele>1595.55</ele>
  <time>2026-08-27T18:29:42Z</time>
  <course>38.49</course>
  <speed>0.01</speed>
  <fix>3d</fix>
</trkpt>
<trkpt lat="40.0728506" lon="-105.2309305">
  <ele>1595.47</ele>
  <time>2026-08-27T18:29:42Z</time>
  <course>8.66</course>
  <speed>0.03</speed>
  <fix>3d</fix>
</trkpt>
<trkpt lat="40.0728505" lon="-105.2309304">
  <ele>1595.54</ele>
  <time>2026-08-27T18:29:42Z</time>
  <course>37.66</course>
  <speed>0.01</speed>
  <fix>3d</fix>
</trkpt>
<trkpt lat="40.0728507" lon="-105.2309305">
  <ele>1595.47</ele>
  <time>2026-08-27T18:29:42Z</time>
  <course>5.01</course>
  <speed>0.03</speed>
  <fix>3d</fix>
</trkpt>
<trkpt lat="40.0728506" lon="-105.2309304">
  <ele>1595.54</ele>
  <time>2026-08-27T18:29:42Z</time>
  <course>37.25</course>
  <speed>0.01</speed>
  <fix>3d</fix>
</trkpt>
<trkpt lat="40.0728508" lon="-105.2309305">
  <ele>1595.48</ele>
  <time>2026-08-27T18:29:42Z</time>
  <course>1.7</course>
  <speed>0.03</speed>
  <fix>3d</fix>
</trkpt>
<trkpt lat="40.0728507" lon="-105.2309304">
  <ele>1595.54</ele>
  <time>2026-08-27T18:29:42Z</time>
  <course>37.32</course>
  <speed>0.01</speed>
  <fix>3d</fix>
</trkpt>
<trkpt lat="40.0728509" lon="-105.2309305">
  <ele>1595.48</ele>
  <time>2026-08-27T18:29:42Z</time>
  <course>358.52</course>
  <speed>0.03</speed>
  <fix>3d</fix>
</trkpt>
<trkpt lat="40.0728507" lon="-105.2309304">
  <ele>1595.55</ele>
  <time>2026-08-27T18:29:42Z</time>
  <course>37.86</course>
  <speed>0.01</speed>
  <fix>3d</fix>
</trkpt>
<trkpt lat="40.0728509" lon="-105.2309305">
  <ele>1595.48</ele>
  <time>2026-08-27T18:29:42Z</time>
  <course>355.25</course>
  <speed>0.03</speed>
  <fix>3d</fix>
</trkpt>
<trkpt lat="40.0728508" lon="-105.2309304">
  <ele>1595.55</ele>
  <time>2026-08-27T18:29:42Z</time>
  <course>38.83</course>
  <speed>0.01</speed>
  <fix>3d</fix>
</trkpt>
<trkpt lat="40.072851" lon="-105.2309305">
  <ele>1595.48</ele>
  <time>2026-08-27T18:29:42Z</time>
  <course>352.32</course>
  <speed>0.03</speed>
  <fix>3d</fix>
</trkpt>
<trkpt lat="40.0728509" lon="-105.2309304">
  <ele>1595.55</ele>
  <time>2026-08-27T18:29:42Z</time>
  <course>40.12</course>
  <speed>0.01</speed>
  <fix>3d</fix>
</trkpt>
<trkpt lat="40.0728511" lon="-105.2309305">
  <ele>1595.49</ele>
  <time>2026-08-27T18:29:42Z</time>
  <course>350.47</course>
  <speed>0.03</speed>
  <fix>3d</fix>
</trkpt>
<trkpt lat="40.072851" lon="-105.2309304">
  <ele>1595.55</ele>
  <time>2026-08-27T18:29:42Z</time>
  <course>41.58</course>
  <speed>0.01</speed>
  <fix>3d</fix>
</trkpt>
<trkpt lat="40.0728511" lon="-105.2309305">
  <ele>1595.49</ele>
  <time>2026-08-27T18:29:42Z</time>
  <course>349.48</course>
  <speed>0.03</speed>
  <fix>3d</fix>
</trkpt>
<trkpt lat="40.072851" lon="-105.2309304">
  <ele>1595.55</ele>
  <time>2026-08-27T18:29:42Z</time>
  <course>43.14</course>
  <speed>0.01</speed>
  <fix>3d</fix>
</trkpt>
<trkpt lat="40.0728512" lon="-105.2309305">
  <ele>1595.49</ele>
  <time>2026-08-27T18:29:42Z</time>
  <course>348.6</course>
  <speed>0.03</speed>
  <fix>3d</fix>
</trkpt>
<trkpt lat="40.0728511" lon="-105.2309304">
  <ele>1595.56</ele>
  <time>2026-08-27T18:29:42Z</time>
  <course>44.59</course>
  <speed>0.01</speed>
  <fix>3d</fix>
</trkpt>
<trkpt lat="40.0728512" lon="-105.2309305">
  <ele>1595.5</ele>
  <time>2026-08-27T18:29:42Z</time>
  <course>348.83</course>
  <speed>0.03</speed>
  <fix>3d</fix>
</trkpt>
<trkpt lat="40.0728511" lon="-105.2309304">
  <ele>1595.56</ele>
  <time>2026-08-27T18:29:42Z</time>
  <course>45.78</course>
  <speed>0.0</speed>
  <fix>3d</fix>
</trkpt>
<trkpt lat="40.0728513" lon="-105.2309305">
  <ele>1595.5</ele>
  <time>2026-08-27T18:29:42Z</time>
  <course>350.98</course>
  <speed>0.03</speed>
  <fix>3d</fix>
</trkpt>
<trkpt lat="40.0728512" lon="-105.2309304">
  <ele>1595.57</ele>
  <time>2026-08-27T18:29:42Z</time>
  <course>46.63</course>
  <speed>0.0</speed>
  <fix>3d</fix>
</trkpt>
<trkpt lat="40.0728514" lon="-105.2309305">
  <ele>1595.5</ele>
  <time>2026-08-27T18:29:42Z</time>
  <course>354.05</course>
  <speed>0.03</speed>
  <fix>3d</fix>
</trkpt>
<trkpt lat="40.0728512" lon="-105.2309304">
  <ele>1595.57</ele>
  <time>2026-08-27T18:29:42Z</time>
  <course>47.04</course>
  <speed>0.0</speed>
  <fix>3d</fix>
</trkpt>
<trkpt lat="40.0728515" lon="-105.2309305">
  <ele>1595.5</ele>
  <time>2026-08-27T18:29:42Z</time>
  <course>357.59</course>
  <speed>0.02</speed>
  <fix>3d</fix>
</trkpt>
<trkpt lat="40.0728513" lon="-105.2309304">
  <ele>1595.57</ele>
  <time>2026-08-27T18:29:42Z</time>
  <course>46.96</course>
  <speed>0.0</speed>
  <fix>3d</fix>
</trkpt>
<trkpt lat="40.0728515" lon="-105.2309305">
  <ele>1595.5</ele>
  <time>2026-08-27T18:29:42Z</time>
  <course>2.48</course>
  <speed>0.02</speed>
  <fix>3d</fix>
</trkpt>
<trkpt lat="40.0728514" lon="-105.2309304">
  <ele>1595.57</ele>
  <time>2026-08-27T18:29:42Z</time>
  <course>46.42</course>
  <speed>0.01</speed>
  <fix>3d</fix>
</trkpt>
<trkpt lat="40.0728516" lon="-105.2309305">
  <ele>1595.5</ele>
  <time>2026-08-27T18:29:42Z</time>
  <course>7.96</course>
  <speed>0.02</speed>
  <fix>3d</fix>
</trkpt>
<trkpt lat="40.0728514" lon="-105.2309304">
  <ele>1595.58</ele>
  <time>2026-08-27T18:29:42Z</time>
  <course>45.49</course>
  <speed>0.01</speed>
  <fix>3d</fix>
</trkpt>
<trkpt lat="40.0728516" lon="-105.2309305">
  <ele>1595.5</ele>
  <time>2026-08-27T18:29:42Z</time>
  <course>12.74</course>
  <speed>0.02</speed>
  <fix>3d</fix>
</trkpt>
<trkpt lat="40.0728515" lon="-105.2309304">
  <ele>1595.58</ele>
  <time>2026-08-27T18:29:42Z</time>
  <course>44.21</course>
  <speed>0.01</speed>
  <fix>3d</fix>
</trkpt>
<trkpt lat="40.0728517" lon="-105.2309305">
  <ele>1595.5</ele>
  <time>2026-08-27T18:29:42Z</time>
  <course>16.66</course>
  <speed>0.02</speed>
  <fix>3d</fix>
</trkpt>
<trkpt lat="40.0728515" lon="-105.2309304">
  <ele>1595.58</ele>
  <time>2026-08-27T18:29:42Z</time>
  <course>42.74</course>
  <speed>0.01</speed>
  <fix>3d</fix>
</trkpt>
<trkpt lat="40.0728517" lon="-105.2309305">
  <ele>1595.49</ele>
  <time>2026-08-27T18:29:42Z</time>
  <course>18.84</course>
  <speed>0.02</speed>
  <fix>3d</fix>
</trkpt>
<trkpt lat="40.0728516" lon="-105.2309304">
  <ele>1595.58</ele>
  <time>2026-08-27T18:29:42Z</time>
  <course>41.24</course>
  <speed>0.01</speed>
  <fix>3d</fix>
</trkpt>
<trkpt lat="40.0728517" lon="-105.2309305">
  <ele>1595.49</ele>
  <time>2026-08-27T18:29:42Z</time>
  <course>19.64</course>
  <speed>0.03</speed>
  <fix>3d</fix>
</trkpt>
<trkpt lat="40.0728516" lon="-105.2309304">
  <ele>1595.58</ele>
  <time>2026-08-27T18:29:42Z</time>
  <course>39.78</course>
  <speed>0.01</speed>
  <fix>3d</fix>
</trkpt>
<trkpt lat="40.0728518" lon="-105.2309305">
  <ele>1595.49</ele>
  <time>2026-08-27T18:29:42Z</time>
  <course>19.13</course>
  <speed>0.03</speed>
  <fix>3d</fix>
</trkpt>
<trkpt lat="40.0728517" lon="-105.2309304">
  <ele>1595.58</ele>
  <time>2026-08-27T18:29:42Z</time>
  <course>38.55</course>
  <speed>0.01</speed>
  <fix>3d</fix>
</trkpt>
<trkpt lat="40.0728518" lon="-105.2309305">
  <ele>1595.48</ele>
  <time>2026-08-27T18:29:42Z</time>
  <course>17.1</course>
  <speed>0.03</speed>
  <fix>3d</fix>
</trkpt>
<trkpt lat="40.0728517" lon="-105.2309304">
  <ele>1595.58</ele>
  <time>2026-08-27T18:29:42Z</time>
  <course>37.73</course>
  <speed>0.01414213562373095</speed>
  <fix>3d</fix>
</trkpt>
<trkpt lat="40.0728519" lon="-105.2309305">
  <ele>1595.48</ele>
  <time>2026-08-27T18:29:42Z</time>
  <course>14.12</course>
  <speed>0.03</speed>
  <fix>3d</fix>
</trkpt>
<trkpt lat="40.0728518" lon="-105.2309304">
  <ele>1595.57</ele>
  <time>2026-08-27T18:29:42Z</time>
  <course>37.33</course>
  <speed>0.01</speed>
  <fix>3d</fix>
</trkpt>
<trkpt lat="40.072852" lon="-105.2309305">
  <ele>1595.47</ele>
  <time>2026-08-27T18:29:42Z</time>
  <course>10.12</course>
  <speed>0.03</speed>
  <fix>3d</fix>
</trkpt>
<trkpt lat="40.0728519" lon="-105.2309304">
  <ele>1595.57</ele>
  <time>2026-08-27T18:29:42Z</time>
  <course>37.41</course>
  <speed>0.01</speed>
  <fix>3d</fix>
</trkpt>
<trkpt lat="40.072852" lon="-105.2309305">
  <ele>1595.47</ele>
  <time>2026-08-27T18:29:42Z</time>
  <course>5.79</course>
  <speed>0.03</speed>
  <fix>3d</fix>
</trkpt>
<trkpt lat="40.0728519" lon="-105.2309304">
  <ele>1595.56</ele>
  <time>2026-08-27T18:29:42Z</time>
  <course>37.93</course>
  <speed>0.01</speed>
  <fix>3d</fix>
</trkpt>
<trkpt lat="40.0728521" lon="-105.2309305">
  <ele>1595.46</ele>
  <time>2026-08-27T18:29:42Z</time>
  <course>1.42</course>
  <speed>0.03</speed>
  <fix>3d</fix>
</trkpt>
<trkpt lat="40.072852" lon="-105.2309304">
  <ele>1595.56</ele>
  <time>2026-08-27T18:29:43Z</time>
  <course>38.89</course>
  <speed>0.01</speed>
  <fix>3d</fix>
</trkpt>
<trkpt lat="40.0728522" lon="-105.2309305">
  <ele>1595.46</ele>
  <time>2026-08-27T18:29:43Z</time>
  <course>357.07</course>
  <speed>0.03</speed>
  <fix>3d</fix>
</trkpt>
<trkpt lat="40.0728521" lon="-105.2309304">
  <ele>1595.56</ele>
  <time>2026-08-27T18:29:43Z</time>
  <course>40.2</course>
  <speed>0.01</speed>
  <fix>3d</fix>
</trkpt>
<trkpt lat="40.0728522" lon="-105.2309305">
  <ele>1595.46</ele>
  <time>2026-08-27T18:29:43Z</time>
  <course>353.4</course>
  <speed>0.03</speed>
  <fix>3d</fix>
</trkpt>
<trkpt lat="40.0728521" lon="-105.2309304">
  <ele>1595.56</ele>
  <time>2026-08-27T18:29:43Z</time>
  <course>41.67</course>
  <speed>0.01</speed>
  <fix>3d</fix>
</trkpt>
<trkpt lat="40.0728523" lon="-105.2309305">
  <ele>1595.46</ele>
  <time>2026-08-27T18:29:43Z</time>
  <course>350.61</course>
  <speed>0.03</speed>
  <fix>3d</fix>
</trkpt>
<trkpt lat="40.0728522" lon="-105.2309304">
  <ele>1595.56</ele>
  <time>2026-08-27T18:29:43Z</time>
  <course>43.19</course>
  <speed>0.01</speed>
  <fix>3d</fix>
</trkpt>
<trkpt lat="40.0728523" lon="-105.2309305">
  <ele>1595.46</ele>
  <time>2026-08-27T18:29:43Z</time>
  <course>348.7</course>
  <speed>0.03</speed>
  <fix>3d</fix>
</trkpt>
<trkpt lat="40.0728522" lon="-105.2309304">
  <ele>1595.56</ele>
  <time>2026-08-27T18:29:43Z</time>
  <course>44.6</course>
  <speed>0.0</speed>
  <fix>3d</fix>
</trkpt>
<trkpt lat="40.0728524" lon="-105.2309305">
  <ele>1595.45</ele>
  <time>2026-08-27T18:29:43Z</time>
  <course>347.65</course>
  <speed>0.03</speed>
  <fix>3d</fix>
</trkpt>
<trkpt lat="40.0728523" lon="-105.2309304">
  <ele>1595.56</ele>
  <time>2026-08-27T18:29:43Z</time>
  <course>45.81</course>
  <speed>0.0</speed>
  <fix>3d</fix>
</trkpt>
<trkpt lat="40.0728524" lon="-105.2309305">
  <ele>1595.45</ele>
  <time>2026-08-27T18:29:43Z</time>
  <course>348.51</course>
  <speed>0.03</speed>
  <fix>3d</fix>
</trkpt>
<trkpt lat="40.0728523" lon="-105.2309304">
  <ele>1595.56</ele>
  <time>2026-08-27T18:29:43Z</time>
  <course>46.64</course>
  <speed>0.0</speed>
  <fix>3d</fix>
</trkpt>
<trkpt lat="40.0728525" lon="-105.2309305">
  <ele>1595.45</ele>
  <time>2026-08-27T18:29:43Z</time>
  <course>351.75</course>
  <speed>0.03</speed>
  <fix>3d</fix>
</trkpt>
<trkpt lat="40.0728524" lon="-105.2309304">
  <ele>1595.56</ele>
  <time>2026-08-27T18:29:43Z</time>
  <course>47.04</course>
  <speed>0.0</speed>
  <fix>3d</fix>
</trkpt>
<trkpt lat="40.0728526" lon="-105.2309305">
  <ele>1595.45</ele>
  <time>2026-08-27T18:29:43Z</time>
  <course>356.58</course>
  <speed>0.02</speed>
  <fix>3d</fix>
</trkpt>
<trkpt lat="40.0728524" lon="-105.2309304">
  <ele>1595.56</ele>
  <time>2026-08-27T18:29:43Z</time>
  <course>46.95</course>
  <speed>0.0</speed>
  <fix>3d</fix>
</trkpt>
<trkpt lat="40.0728527" lon="-105.2309305">
  <ele>1595.45</ele>
  <time>2026-08-27T18:29:43Z</time>
  <course>2.66</course>
  <speed>0.02</speed>
  <fix>3d</fix>
</trkpt>
<trkpt lat="40.0728525" lon="-105.2309304">
  <ele>1595.56</ele>
  <time>2026-08-27T18:29:43Z</time>
  <course>46.42</course>
  <speed>0.01</speed>
  <fix>3d</fix>
</trkpt>
<trkpt lat="40.0728527" lon="-105.2309305">
  <ele>1595.45</ele>
  <time>2026-08-27T18:29:43Z</time>
  <course>9.04</course>
  <speed>0.02</speed>
  <fix>3d</fix>
</trkpt>
<trkpt lat="40.0728525" lon="-105.2309304">
  <ele>1595.57</ele>
  <time>2026-08-27T18:29:43Z</time>
  <course>45.45</course>
  <speed>0.01</speed>
  <fix>3d</fix>
</trkpt>
<trkpt lat="40.0728528" lon="-105.2309305">
  <ele>1595.45</ele>
  <time>2026-08-27T18:29:43Z</time>
  <course>15.21</course>
  <speed>0.02</speed>
  <fix>3d</fix>
</trkpt>
<trkpt lat="40.0728526" lon="-105.2309304">
  <ele>1595.57</ele>
  <time>2026-08-27T18:29:43Z</time>
  <course>44.19</course>
  <speed>0.01</speed>
  <fix>3d</fix>
</trkpt>
<trkpt lat="40.0728528" lon="-105.2309305">
  <ele>1595.44</ele>
  <time>2026-08-27T18:29:43Z</time>
  <course>19.4</course>
  <speed>0.02</speed>
  <fix>3d</fix>
</trkpt>
<trkpt lat="40.0728526" lon="-105.2309304">
  <ele>1595.56</ele>
  <time>2026-08-27T18:29:43Z</time>
  <course>42.72</course>
  <speed>0.01</speed>
  <fix>3d</fix>
</trkpt>
<trkpt lat="40.0728528" lon="-105.2309305">
  <ele>1595.44</ele>
  <time>2026-08-27T18:29:43Z</time>
  <course>20.68</course>
  <speed>0.02</speed>
  <fix>3d</fix>
</trkpt>
<trkpt lat="40.0728527" lon="-105.2309304">
  <ele>1595.56</ele>
  <time>2026-08-27T18:29:43Z</time>
  <course>41.17</course>
  <speed>0.01</speed>
  <fix>3d</fix>
</trkpt>
<trkpt lat="40.0728529" lon="-105.2309305">
  <ele>1595.44</ele>
  <time>2026-08-27T18:29:43Z</time>
  <course>20.09</course>
  <speed>0.03</speed>
  <fix>3d</fix>
</trkpt>
<trkpt lat="40.0728528" lon="-105.2309304">
  <ele>1595.56</ele>
  <time>2026-08-27T18:29:43Z</time>
  <course>39.76</course>
  <speed>0.01</speed>
  <fix>3d</fix>
</trkpt>
<trkpt lat="40.0728529" lon="-105.2309304">
  <ele>1595.44</ele>
  <time>2026-08-27T18:29:43Z</time>
  <course>18.13</course>
  <speed>0.03</speed>
  <fix>3d</fix>
</trkpt>
<trkpt lat="40.0728528" lon="-105.2309304">
  <ele>1595.56</ele>
  <time>2026-08-27T18:29:43Z</time>
  <course>38.53</course>
  <speed>0.01414213562373095</speed>
  <fix>3d</fix>
</trkpt>
<trkpt lat="40.072853" lon="-105.2309303">
  <ele>1595.44</ele>
  <time>2026-08-27T18:29:43Z</time>
  <course>15.79</course>
  <speed>0.03</speed>
  <fix>3d</fix>
</trkpt>
<trkpt lat="40.0728529" lon="-105.2309304">
  <ele>1595.55</ele>
  <time>2026-08-27T18:29:43Z</time>
  <course>37.67</course>
  <speed>0.01414213562373095</speed>
  <fix>3d</fix>
</trkpt>
<trkpt lat="40.072853" lon="-105.2309303">
  <ele>1595.43</ele>
  <time>2026-08-27T18:29:43Z</time>
  <course>12.41</course>
  <speed>0.03</speed>
  <fix>3d</fix>
</trkpt>
<trkpt lat="40.0728529" lon="-105.2309303">
  <ele>1595.55</ele>
  <time>2026-08-27T18:29:43Z</time>
  <course>37.29</course>
  <speed>0.01</speed>
  <fix>3d</fix>
</trkpt>
<trkpt lat="40.0728531" lon="-105.2309303">
  <ele>1595.43</ele>
  <time>2026-08-27T18:29:43Z</time>
  <course>7.73</course>
  <speed>0.03</speed>
  <fix>3d</fix>
</trkpt>
<trkpt lat="40.072853" lon="-105.2309303">
  <ele>1595.55</ele>
  <time>2026-08-27T18:29:43Z</time>
  <course>37.35</course>
  <speed>0.01</speed>
  <fix>3d</fix>
</trkpt>
<trkpt lat="40.0728532" lon="-105.2309303">
  <ele>1595.43</ele>
  <time>2026-08-27T18:29:43Z</time>
  <course>2.89</course>
  <speed>0.03</speed>
  <fix>3d</fix>
</trkpt>
<trkpt lat="40.0728531" lon="-105.2309303">
  <ele>1595.54</ele>
  <time>2026-08-27T18:29:43Z</time>
  <course>37.87</course>
  <speed>0.01</speed>
  <fix>3d</fix>
</trkpt>
<trkpt lat="40.0728533" lon="-105.2309303">
  <ele>1595.43</ele>
  <time>2026-08-27T18:29:43Z</time>
  <course>358.61</course>
  <speed>0.03</speed>
  <fix>3d</fix>
</trkpt>
<trkpt lat="40.0728531" lon="-105.2309303">
  <ele>1595.54</ele>
  <time>2026-08-27T18:29:43Z</time>
  <course>38.84</course>
  <speed>0.01</speed>
  <fix>3d</fix>
</trkpt>
<trkpt lat="40.0728533" lon="-105.2309303">
  <ele>1595.43</ele>
  <time>2026-08-27T18:29:43Z</time>
  <course>354.76</course>
  <speed>0.03</speed>
  <fix>3d</fix>
</trkpt>
<trkpt lat="40.0728532" lon="-105.2309303">
  <ele>1595.55</ele>
  <time>2026-08-27T18:29:43Z</time>
  <course>40.1</course>
  <speed>0.01</speed>
  <fix>3d</fix>
</trkpt>
<trkpt lat="40.0728534" lon="-105.2309303">
  <ele>1595.44</ele>
  <time>2026-08-27T18:29:43Z</time>
  <course>351.76</course>
  <speed>0.03</speed>
  <fix>3d</fix>
</trkpt>
<trkpt lat="40.0728533" lon="-105.2309303">
  <ele>1595.55</ele>
  <time>2026-08-27T18:29:43Z</time>
  <course>41.59</course>
  <speed>0.01</speed>
  <fix>3d</fix>
</trkpt>
<trkpt lat="40.0728534" lon="-105.2309303">
  <ele>1595.44</ele>
  <time>2026-08-27T18:29:43Z</time>
  <course>350.0</course>
  <speed>0.03</speed>
  <fix>3d</fix>
</trkpt>
<trkpt lat="40.0728533" lon="-105.2309303">
  <ele>1595.55</ele>
  <time>2026-08-27T18:29:43Z</time>
  <course>43.15</course>
  <speed>0.01</speed>
  <fix>3d</fix>
</trkpt>
<trkpt lat="40.0728535" lon="-105.2309303">
  <ele>1595.44</ele>
  <time>2026-08-27T18:29:43Z</time>
  <course>348.82</course>
  <speed>0.03</speed>
  <fix>3d</fix>
</trkpt>
<trkpt lat="40.0728534" lon="-105.2309303">
  <ele>1595.55</ele>
  <time>2026-08-27T18:29:43Z</time>
  <course>44.58</course>
  <speed>0.01</speed>
  <fix>3d</fix>
</trkpt>
<trkpt lat="40.0728535" lon="-105.2309303">
  <ele>1595.45</ele>
  <time>2026-08-27T18:29:43Z</time>
  <course>348.59</course>
  <speed>0.03</speed>
  <fix>3d</fix>
</trkpt>
<trkpt lat="40.0728534" lon="-105.2309303">
  <ele>1595.55</ele>
  <time>2026-08-27T18:29:43Z</time>
  <course>45.77</course>
  <speed>0.0</speed>
  <fix>3d</fix>
</trkpt>
<trkpt lat="40.0728536" lon="-105.2309303">
  <ele>1595.45</ele>
  <time>2026-08-27T18:29:43Z</time>
  <course>349.84</course>
  <speed>0.03</speed>
  <fix>3d</fix>
</trkpt>
<trkpt lat="40.0728535" lon="-105.2309303">
  <ele>1595.55</ele>
  <time>2026-08-27T18:29:43Z</time>
  <course>46.6</course>
  <speed>0.0</speed>
  <fix>3d</fix>
</trkpt>
<trkpt lat="40.0728537" lon="-105.2309303">
  <ele>1595.45</ele>
  <time>2026-08-27T18:29:43Z</time>
  <course>351.94</course>
  <speed>0.03</speed>
  <fix>3d</fix>
</trkpt>
<trkpt lat="40.0728535" lon="-105.2309303">
  <ele>1595.55</ele>
  <time>2026-08-27T18:29:43Z</time>
  <course>47.01</course>
  <speed>0.0</speed>
  <fix>3d</fix>
</trkpt>
<trkpt lat="40.0728538" lon="-105.2309303">
  <ele>1595.45</ele>
  <time>2026-08-27T18:29:43Z</time>
  <course>355.03</course>
  <speed>0.02</speed>
  <fix>3d</fix>
</trkpt>
<trkpt lat="40.0728536" lon="-105.2309303">
  <ele>1595.55</ele>
  <time>2026-08-27T18:29:43Z</time>
  <course>46.92</course>
  <speed>0.0</speed>
  <fix>3d</fix>
</trkpt>
<trkpt lat="40.0728538" lon="-105.2309303">
  <ele>1595.46</ele>
  <time>2026-08-27T18:29:43Z</time>
  <course>359.05</course>
  <speed>0.02</speed>
  <fix>3d</fix>
</trkpt>
<trkpt lat="40.0728536" lon="-105.2309303">
  <ele>1595.55</ele>
  <time>2026-08-27T18:29:43Z</time>
  <course>46.36</course>
  <speed>0.01</speed>
  <fix>3d</fix>
</trkpt>
<trkpt lat="40.0728539" lon="-105.2309303">
  <ele>1595.46</ele>
  <time>2026-08-27T18:29:43Z</time>
  <course>3.58</course>
  <speed>0.02</speed>
  <fix>3d</fix>
</trkpt>
<trkpt lat="40.0728537" lon="-105.2309303">
  <ele>1595.55</ele>
  <time>2026-08-27T18:29:43Z</time>
  <course>45.4</course>
  <speed>0.01</speed>
  <fix>3d</fix>
</trkpt>
<trkpt lat="40.0728539" lon="-105.2309303">
  <ele>1595.46</ele>
  <time>2026-08-27T18:29:43Z</time>
  <course>8.24</course>
  <speed>0.02</speed>
  <fix>3d</fix>
</trkpt>
<trkpt lat="40.0728537" lon="-105.2309303">
  <ele>1595.55</ele>
  <time>2026-08-27T18:29:43Z</time>
  <course>44.11</course>
  <speed>0.01</speed>
  <fix>3d</fix>
</trkpt>
<trkpt lat="40.0728539" lon="-105.2309303">
  <ele>1595.46</ele>
  <time>2026-08-27T18:29:43Z</time>
  <course>11.88</course>
  <speed>0.02</speed>
  <fix>3d</fix>
</trkpt>
<trkpt lat="40.0728538" lon="-105.2309303">
  <ele>1595.55</ele>
  <time>2026-08-27T18:29:43Z</time>
  <course>42.64</course>
  <speed>0.01</speed>
  <fix>3d</fix>
</trkpt>
<trkpt lat="40.072854" lon="-105.2309303">
  <ele>1595.47</ele>
  <time>2026-08-27T18:29:43Z</time>
  <course>13.93</course>
  <speed>0.02</speed>
  <fix>3d</fix>
</trkpt>
<trkpt lat="40.0728538" lon="-105.2309303">
  <ele>1595.55</ele>
  <time>2026-08-27T18:29:43Z</time>
  <course>41.13</course>
  <speed>0.01</speed>
  <fix>3d</fix>
</trkpt>
<trkpt lat="40.072854" lon="-105.2309303">
  <ele>1595.47</ele>
  <time>2026-08-27T18:29:43Z</time>
  <course>14.95</course>
  <speed>0.02</speed>
  <fix>3d</fix>
</trkpt>
<trkpt lat="40.0728539" lon="-105.2309302">
  <ele>1595.55</ele>
  <time>2026-08-27T18:29:43Z</time>
  <course>39.7</course>
  <speed>0.01</speed>
  <fix>3d</fix>
</trkpt>
<trkpt lat="40.0728541" lon="-105.2309303">
  <ele>1595.47</ele>
  <time>2026-08-27T18:29:43Z</time>
  <course>14.47</course>
  <speed>0.03</speed>
  <fix>3d</fix>
</trkpt>
<trkpt lat="40.072854" lon="-105.2309302">
  <ele>1595.55</ele>
  <time>2026-08-27T18:29:43Z</time>
  <course>38.48</course>
  <speed>0.01414213562373095</speed>
  <fix>3d</fix>
</trkpt>
<trkpt lat="40.0728541" lon="-105.2309303">
  <ele>1595.47</ele>
  <time>2026-08-27T18:29:43Z</time>
  <course>11.95</course>
  <speed>0.03</speed>
  <fix>3d</fix>
</trkpt>
<trkpt lat="40.072854" lon="-105.2309302">
  <ele>1595.55</ele>
  <time>2026-08-27T18:29:43Z</time>
  <course>37.64</course>
  <speed>0.01</speed>
  <fix>3d</fix>
</trkpt>
<trkpt lat="40.0728542" lon="-105.2309303">
  <ele>1595.48</ele>
  <time>2026-08-27T18:29:43Z</time>
  <course>8.29</course>
  <speed>0.03</speed>
  <fix>3d</fix>
</trkpt>
<trkpt lat="40.0728541" lon="-105.2309302">
  <ele>1595.56</ele>
  <time>2026-08-27T18:29:43Z</time>
  <course>37.26</course>
  <speed>0.01</speed>
  <fix>3d</fix>
</trkpt>
<trkpt lat="40.0728542" lon="-105.2309303">
  <ele>1595.48</ele>
  <time>2026-08-27T18:29:43Z</time>
  <course>3.86</course>
  <speed>0.03</speed>
  <fix>3d</fix>
</trkpt>
<trkpt lat="40.0728541" lon="-105.2309302">
  <ele>1595.56</ele>
  <time>2026-08-27T18:29:43Z</time>
  <course>37.2</course>
  <speed>0.01</speed>
  <fix>3d</fix>
</trkpt>
<trkpt lat="40.0728543" lon="-105.2309303">
  <ele>1595.48</ele>
  <time>2026-08-27T18:29:43Z</time>
  <course>0.29</course>
  <speed>0.03</speed>
  <fix>3d</fix>
</trkpt>
<trkpt lat="40.0728542" lon="-105.2309302">
  <ele>1595.57</ele>
  <time>2026-08-27T18:29:43Z</time>
  <course>37.19</course>
  <speed>0.01</speed>
  <fix>3d</fix>
</trkpt>
<trkpt lat="40.0728544" lon="-105.2309303">
  <ele>1595.48</ele>
  <time>2026-08-27T18:29:43Z</time>
  <course>359.17</course>
  <speed>0.03</speed>
  <fix>3d</fix>
</trkpt>
<trkpt lat="40.0728543" lon="-105.2309302">
  <ele>1595.57</ele>
  <time>2026-08-27T18:29:43Z</time>
  <course>37.2</course>
  <speed>0.01</speed>
  <fix>3d</fix>
</trkpt>
<trkpt lat="40.0728545" lon="-105.2309303">
  <ele>1595.49</ele>
  <time>2026-08-27T18:29:43Z</time>
  <course>359.8</course>
  <speed>0.03</speed>
  <fix>3d</fix>
</trkpt>
<trkpt lat="40.0728544" lon="-105.2309302">
  <ele>1595.57</ele>
  <time>2026-08-27T18:29:43Z</time>
  <course>37.2</course>
  <speed>0.01</speed>
  <fix>3d</fix>
</trkpt>
<trkpt lat="40.0728545" lon="-105.2309303">
  <ele>1595.49</ele>
  <time>2026-08-27T18:29:43Z</time>
  <course>1.14</course>
  <speed>0.04</speed>
  <fix>3d</fix>
</trkpt>
<trkpt lat="40.0728544" lon="-105.2309302">
  <ele>1595.57</ele>
  <time>2026-08-27T18:29:43Z</time>
  <course>37.21</course>
  <speed>0.02</speed>
  <fix>3d</fix>
</trkpt>
<trkpt lat="40.0728546" lon="-105.2309303">
  <ele>1595.48</ele>
  <time>2026-08-27T18:29:43Z</time>
  <course>2.55</course>
  <speed>0.04</speed>
  <fix>3d</fix>
</trkpt>
<trkpt lat="40.0728545" lon="-105.2309302">
  <ele>1595.57</ele>
  <time>2026-08-27T18:29:43Z</time>
  <course>37.21</course>
  <speed>0.02</speed>
  <fix>3d</fix>
</trkpt>
<trkpt lat="40.0728547" lon="-105.2309303">
  <ele>1595.48</ele>
  <time>2026-08-27T18:29:43Z</time>
  <course>3.86</course>
  <speed>0.04</speed>
  <fix>3d</fix>
</trkpt>
<trkpt lat="40.0728546" lon="-105.2309302">
  <ele>1595.56</ele>
  <time>2026-08-27T18:29:43Z</time>
  <course>37.19</course>
  <speed>0.02</speed>
  <fix>3d</fix>
</trkpt>
<trkpt lat="40.0728547" lon="-105.2309303">
  <ele>1595.48</ele>
  <time>2026-08-27T18:29:43Z</time>
  <course>5.33</course>
  <speed>0.04</speed>
  <fix>3d</fix>
</trkpt>
<trkpt lat="40.0728547" lon="-105.2309302">
  <ele>1595.56</ele>
  <time>2026-08-27T18:29:43Z</time>
  <course>37.19</course>
  <speed>0.022360679774997897</speed>
  <fix>3d</fix>
</trkpt>
<trkpt lat="40.0728548" lon="-105.2309303">
  <ele>1595.48</ele>
  <time>2026-08-27T18:29:43Z</time>
  <course>7.15</course>
  <speed>0.04</speed>
  <fix>3d</fix>
</trkpt>
<trkpt lat="40.0728548" lon="-105.2309302">
  <ele>1595.55</ele>
  <time>2026-08-27T18:29:43Z</time>
  <course>37.18</course>
  <speed>0.022360679774997897</speed>
  <fix>3d</fix>
</trkpt>
<trkpt lat="40.0728549" lon="-105.2309303">
  <ele>1595.48</ele>
  <time>2026-08-27T18:29:43Z</time>
  <course>9.03</course>
  <speed>0.04</speed>
  <fix>3d</fix>
</trkpt>
<trkpt lat="40.0728549" lon="-105.2309302">
  <ele>1595.55</ele>
  <time>2026-08-27T18:29:43Z</time>
  <course>37.18</course>
  <speed>0.022360679774997897</speed>
  <fix>3d</fix>
</trkpt>
<trkpt lat="40.072855" lon="-105.2309303">
  <ele>1595.48</ele>
  <time>2026-08-27T18:29:43Z</time>
  <course>10.63</course>
  <speed>0.05</speed>
  <fix>3d</fix>
</trkpt>
<trkpt lat="40.0728549" lon="-105.2309302">
  <ele>1595.55</ele>
  <time>2026-08-27T18:29:43Z</time>
  <course>37.17</course>
  <speed>0.0316227766016838</speed>
  <fix>3d</fix>
</trkpt>
<trkpt lat="40.0728551" lon="-105.2309303">
  <ele>1595.48</ele>
  <time>2026-08-27T18:29:43Z</time>
  <course>11.74</course>
  <speed>0.05</speed>
  <fix>3d</fix>
</trkpt>
<trkpt lat="40.072855" lon="-105.2309302">
  <ele>1595.56</ele>
  <time>2026-08-27T18:29:43Z</time>
  <course>37.17</course>
  <speed>0.0316227766016838</speed>
  <fix>3d</fix>
</trkpt>
<trkpt lat="40.0728552" lon="-105.2309303">
  <ele>1595.48</ele>
  <time>2026-08-27T18:29:43Z</time>
  <course>12.07</course>
  <speed>0.05</speed>
  <fix>3d</fix>
</trkpt>
<trkpt lat="40.0728551" lon="-105.2309302">
  <ele>1595.55</ele>
  <time>2026-08-27T18:29:43Z</time>
  <course>37.19</course>
  <speed>0.0316227766016838</speed>
  <fix>3d</fix>
</trkpt>
<trkpt lat="40.0728553" lon="-105.2309302">
  <ele>1595.48</ele>
  <time>2026-08-27T18:29:43Z</time>
  <course>12.27</course>
  <speed>0.05</speed>
  <fix>3d</fix>
</trkpt>
<trkpt lat="40.0728552" lon="-105.2309301">
  <ele>1595.55</ele>
  <time>2026-08-27T18:29:43Z</time>
  <course>37.18</course>
  <speed>0.0316227766016838</speed>
  <fix>3d</fix>
</trkpt>
<trkpt lat="40.0728554" lon="-105.2309301">
  <ele>1595.48</ele>
  <time>2026-08-27T18:29:43Z</time>
  <course>12.93</course>
  <speed>0.05</speed>
  <fix>3d</fix>
</trkpt>
<trkpt lat="40.0728553" lon="-105.2309301">
  <ele>1595.55</ele>
  <time>2026-08-27T18:29:43Z</time>
  <course>37.18</course>
  <speed>0.0316227766016838</speed>
  <fix>3d</fix>
</trkpt>
<trkpt lat="40.0728555" lon="-105.2309301">
  <ele>1595.48</ele>
  <time>2026-08-27T18:29:43Z</time>
  <course>13.28</course>
  <speed>0.05</speed>
  <fix>3d</fix>
</trkpt>
<trkpt lat="40.0728555" lon="-105.2309301">
  <ele>1595.54</ele>
  <time>2026-08-27T18:29:43Z</time>
  <course>37.18</course>
  <speed>0.0316227766016838</speed>
  <fix>3d</fix>
</trkpt>
<trkpt lat="40.0728556" lon="-105.2309301">
  <ele>1595.48</ele>
  <time>2026-08-27T18:29:43Z</time>
  <course>13.49</course>
  <speed>0.06</speed>
  <fix>3d</fix>
</trkpt>
<trkpt lat="40.0728556" lon="-105.23093">
  <ele>1595.54</ele>
  <time>2026-08-27T18:29:43Z</time>
  <course>37.14</course>
  <speed>0.03605551275463989</speed>
  <fix>3d</fix>
</trkpt>
<trkpt lat="40.0728557" lon="-105.2309301">
  <ele>1595.49</ele>
  <time>2026-08-27T18:29:43Z</time>
  <course>14.04</course>
  <speed>0.06</speed>
  <fix>3d</fix>
</trkpt>
<trkpt lat="40.0728557" lon="-105.23093">
  <ele>1595.54</ele>
  <time>2026-08-27T18:29:43Z</time>
  <course>36.48</course>
  <speed>0.03605551275463989</speed>
  <fix>3d</fix>
</trkpt>
<trkpt lat="40.0728558" lon="-105.2309301">
  <ele>1595.49</ele>
  <time>2026-08-27T18:29:43Z</time>
  <course>16.08</course>
  <speed>0.06</speed>
  <fix>3d</fix>
</trkpt>
<trkpt lat="40.0728558" lon="-105.2309299">
  <ele>1595.54</ele>
  <time>2026-08-27T18:29:43Z</time>
  <course>35.17</course>
  <speed>0.03605551275463989</speed>
  <fix>3d</fix>
</trkpt>
<trkpt lat="40.0728559" lon="-105.23093">
  <ele>1595.49</ele>
  <time>2026-08-27T18:29:43Z</time>
  <course>18.65</course>
  <speed>0.06</speed>
  <fix>3d</fix>
</trkpt>
<trkpt lat="40.0728559" lon="-105.2309299">
  <ele>1595.54</ele>
  <time>2026-08-27T18:29:43Z</time>
  <course>33.89</course>
  <speed>0.03605551275463989</speed>
  <fix>3d</fix>
</trkpt>
<trkpt lat="40.072856" lon="-105.23093">
  <ele>1595.5</ele>
  <time>2026-08-27T18:29:43Z</time>
  <course>18.97</course>
  <speed>0.06</speed>
  <fix>3d</fix>
</trkpt>
<trkpt lat="40.072856" lon="-105.2309299">
  <ele>1595.55</ele>
  <time>2026-08-27T18:29:43Z</time>
  <course>32.92</course>
  <speed>0.0316227766016838</speed>
  <fix>3d</fix>
</trkpt>
<trkpt lat="40.0728561" lon="-105.2309299">
  <ele>1595.5</ele>
  <time>2026-08-27T18:29:43Z</time>
  <course>17.27</course>
  <speed>0.05</speed>
  <fix>3d</fix>
</trkpt>
<trkpt lat="40.0728561" lon="-105.2309298">
  <ele>1595.56</ele>
  <time>2026-08-27T18:29:43Z</time>
  <course>32.4</course>
  <speed>0.022360679774997897</speed>
  <fix>3d</fix>
</trkpt>
<trkpt lat="40.0728562" lon="-105.2309298">
  <ele>1595.51</ele>
  <time>2026-08-27T18:29:43Z</time>
  <course>14.17</course>
  <speed>0.05</speed>
  <fix>3d</fix>
</trkpt>
<trkpt lat="40.0728562" lon="-105.2309298">
  <ele>1595.57</ele>
  <time>2026-08-27T18:29:43Z</time>
  <course>32.31</course>
  <speed>0.022360679774997897</speed>
  <fix>3d</fix>
</trkpt>
<trkpt lat="40.0728563" lon="-105.2309298">
  <ele>1595.52</ele>
  <time>2026-08-27T18:29:43Z</time>
  <course>10.06</course>
  <speed>0.05</speed>
  <fix>3d</fix>
</trkpt>
<trkpt lat="40.0728562" lon="-105.2309298">
  <ele>1595.57</ele>
  <time>2026-08-27T18:29:43Z</time>
  <course>32.68</course>
  <speed>0.02</speed>
  <fix>3d</fix>
</trkpt>
<trkpt lat="40.0728564" lon="-105.2309298">
  <ele>1595.52</ele>
  <time>2026-08-27T18:29:43Z</time>
  <course>5.36</course>
  <speed>0.04</speed>
  <fix>3d</fix>
</trkpt>
<trkpt lat="40.0728563" lon="-105.2309298">
  <ele>1595.57</ele>
  <time>2026-08-27T18:29:43Z</time>
  <course>33.51</course>
  <speed>0.02</speed>
  <fix>3d</fix>
</trkpt>
<trkpt lat="40.0728565" lon="-105.2309298">
  <ele>1595.52</ele>
  <time>2026-08-27T18:29:43Z</time>
  <course>0.3</course>
  <speed>0.04</speed>
  <fix>3d</fix>
</trkpt>
<trkpt lat="40.0728564" lon="-105.2309298">
  <ele>1595.57</ele>
  <time>2026-08-27T18:29:43Z</time>
  <course>34.7</course>
  <speed>0.01</speed>
  <fix>3d</fix>
</trkpt>
<trkpt lat="40.0728566" lon="-105.2309298">
  <ele>1595.52</ele>
  <time>2026-08-27T18:29:43Z</time>
  <course>355.01</course>
  <speed>0.04</speed>
  <fix>3d</fix>
</trkpt>
<trkpt lat="40.0728565" lon="-105.2309298">
  <ele>1595.57</ele>
  <time>2026-08-27T18:29:43Z</time>
  <course>36.13</course>
  <speed>0.01</speed>
  <fix>3d</fix>
</trkpt>
<trkpt lat="40.0728566" lon="-105.2309298">
  <ele>1595.52</ele>
  <time>2026-08-27T18:29:43Z</time>
  <course>350.71</course>
  <speed>0.03</speed>
  <fix>3d</fix>
</trkpt>
<trkpt lat="40.0728565" lon="-105.2309298">
  <ele>1595.57</ele>
  <time>2026-08-27T18:29:43Z</time>
  <course>37.65</course>
  <speed>0.01</speed>
  <fix>3d</fix>
</trkpt>
<trkpt lat="40.0728567" lon="-105.2309298">
  <ele>1595.52</ele>
  <time>2026-08-27T18:29:43Z</time>
  <course>347.39</course>
  <speed>0.03</speed>
  <fix>3d</fix>
</trkpt>
<trkpt lat="40.0728566" lon="-105.2309298">
  <ele>1595.58</ele>
  <time>2026-08-27T18:29:43Z</time>
  <course>39.13</course>
  <speed>0.0</speed>
  <fix>3d</fix>
</trkpt>
<trkpt lat="40.0728568" lon="-105.2309298">
  <ele>1595.52</ele>
  <time>2026-08-27T18:29:43Z</time>
  <course>344.91</course>
  <speed>0.03</speed>
  <fix>3d</fix>
</trkpt>
<trkpt lat="40.0728566" lon="-105.2309298">
  <ele>1595.58</ele>
  <time>2026-08-27T18:29:43Z</time>
  <course>40.45</course>
  <speed>0.0</speed>
  <fix>3d</fix>
</trkpt>
<trkpt lat="40.0728569" lon="-105.2309298">
  <ele>1595.52</ele>
  <time>2026-08-27T18:29:43Z</time>
  <course>344.08</course>
  <speed>0.03</speed>
  <fix>3d</fix>
</trkpt>
<trkpt lat="40.0728567" lon="-105.2309298">
  <ele>1595.58</ele>
  <time>2026-08-27T18:29:43Z</time>
  <course>41.47</course>
  <speed>0.0</speed>
  <fix>3d</fix>
</trkpt>
<trkpt lat="40.0728569" lon="-105.2309298">
  <ele>1595.52</ele>
  <time>2026-08-27T18:29:43Z</time>
  <course>344.71</course>
  <speed>0.02</speed>
  <fix>3d</fix>
</trkpt>
<trkpt lat="40.0728568" lon="-105.2309298">
  <ele>1595.58</ele>
  <time>2026-08-27T18:29:43Z</time>
  <course>42.02</course>
  <speed>0.0</speed>
  <fix>3d</fix>
</trkpt>
<trkpt lat="40.072857" lon="-105.2309298">
  <ele>1595.51</ele>
  <time>2026-08-27T18:29:43Z</time>
  <course>347.77</course>
  <speed>0.02</speed>
  <fix>3d</fix>
</trkpt>
<trkpt lat="40.0728568" lon="-105.2309298">
  <ele>1595.57</ele>
  <time>2026-08-27T18:29:43Z</time>
  <course>42.13</course>
  <speed>0.0</speed>
  <fix>3d</fix>
</trkpt>
<trkpt lat="40.072857" lon="-105.2309298">
  <ele>1595.51</ele>
  <time>2026-08-27T18:29:43Z</time>
  <course>353.28</course>
  <speed>0.02</speed>
  <fix>3d</fix>
</trkpt>
<trkpt lat="40.0728569" lon="-105.2309298">
  <ele>1595.57</ele>
  <time>2026-08-27T18:29:43Z</time>
  <course>41.73</course>
  <speed>0.01</speed>
  <fix>3d</fix>
</trkpt>
<trkpt lat="40.0728571" lon="-105.2309298">
  <ele>1595.51</ele>
  <time>2026-08-27T18:29:43Z</time>
  <course>0.42</course>
  <speed>0.02</speed>
  <fix>3d</fix>
</trkpt>
<trkpt lat="40.0728569" lon="-105.2309298">
  <ele>1595.57</ele>
  <time>2026-08-27T18:29:43Z</time>
  <course>40.92</course>
  <speed>0.01</speed>
  <fix>3d</fix>
</trkpt>
<trkpt lat="40.0728571" lon="-105.2309298">
  <ele>1595.5</ele>
  <time>2026-08-27T18:29:43Z</time>
  <course>7.56</course>
  <speed>0.02</speed>
  <fix>3d</fix>
</trkpt>
<trkpt lat="40.0728569" lon="-105.2309298">
  <ele>1595.56</ele>
  <time>2026-08-27T18:29:43Z</time>
  <course>39.73</course>
  <speed>0.01</speed>
  <fix>3d</fix>
</trkpt>
<trkpt lat="40.0728571" lon="-105.2309298">
  <ele>1595.5</ele>
  <time>2026-08-27T18:29:43Z</time>
  <course>12.22</course>
  <speed>0.02</speed>
  <fix>3d</fix>
</trkpt>
<trkpt lat="40.072857" lon="-105.2309298">
  <ele>1595.56</ele>
  <time>2026-08-27T18:29:43Z</time>
  <course>38.3</course>
  <speed>0.01</speed>
  <fix>3d</fix>
</trkpt>
<trkpt lat="40.0728572" lon="-105.2309298">
  <ele>1595.5</ele>
  <time>2026-08-27T18:29:43Z</time>
  <course>14.02</course>
  <speed>0.02</speed>
  <fix>3d</fix>
</trkpt>
<trkpt lat="40.072857" lon="-105.2309298">
  <ele>1595.56</ele>
  <time>2026-08-27T18:29:43Z</time>
  <course>36.74</course>
  <speed>0.01</speed>
  <fix>3d</fix>
</trkpt>
<trkpt lat="40.0728572" lon="-105.2309298">
  <ele>1595.5</ele>
  <time>2026-08-27T18:29:43Z</time>
  <course>13.4</course>
  <speed>0.02</speed>
  <fix>3d</fix>
</trkpt>
<trkpt lat="40.0728571" lon="-105.2309297">
  <ele>1595.56</ele>
  <time>2026-08-27T18:29:43Z</time>
  <course>35.29</course>
  <speed>0.01</speed>
  <fix>3d</fix>
</trkpt>
<trkpt lat="40.0728572" lon="-105.2309298">
  <ele>1595.5</ele>
  <time>2026-08-27T18:29:43Z</time>
  <course>11.04</course>
  <speed>0.02</speed>
  <fix>3d</fix>
</trkpt>
<trkpt lat="40.0728571" lon="-105.2309297">
  <ele>1595.56</ele>
  <time>2026-08-27T18:29:43Z</time>
  <course>33.96</course>
  <speed>0.01414213562373095</speed>
  <fix>3d</fix>
</trkpt>
<trkpt lat="40.0728573" lon="-105.2309298">
  <ele>1595.5</ele>
  <time>2026-08-27T18:29:43Z</time>
  <course>7.97</course>
  <speed>0.03</speed>
  <fix>3d</fix>
</trkpt>
<trkpt lat="40.0728572" lon="-105.2309297">
  <ele>1595.56</ele>
  <time>2026-08-27T18:29:43Z</time>
  <course>32.99</course>
  <speed>0.01</speed>
  <fix>3d</fix>
</trkpt>
<trkpt lat="40.0728573" lon="-105.2309298">
  <ele>1595.5</ele>
  <time>2026-08-27T18:29:43Z</time>
  <course>4.23</course>
  <speed>0.03</speed>
  <fix>3d</fix>
</trkpt>
<trkpt lat="40.0728573" lon="-105.2309297">
  <ele>1595.57</ele>
  <time>2026-08-27T18:29:43Z</time>
  <course>32.4</course>
  <speed>0.01</speed>
  <fix>3d</fix>
</trkpt>
<trkpt lat="40.0728574" lon="-105.2309298">
  <ele>1595.5</ele>
  <time>2026-08-27T18:29:43Z</time>
  <course>359.73</course>
  <speed>0.03</speed>
  <fix>3d</fix>
</trkpt>
<trkpt lat="40.0728573" lon="-105.2309297">
  <ele>1595.57</ele>
  <time>2026-08-27T18:29:43Z</time>
  <course>32.34</course>
  <speed>0.01</speed>
  <fix>3d</fix>
</trkpt>
<trkpt lat="40.0728575" lon="-105.2309298">
  <ele>1595.5</ele>
  <time>2026-08-27T18:29:43Z</time>
  <course>355.0</course>
  <speed>0.03</speed>
  <fix>3d</fix>
</trkpt>
<trkpt lat="40.0728574" lon="-105.2309298">
  <ele>1595.58</ele>
  <time>2026-08-27T18:29:43Z</time>
  <course>32.72</course>
  <speed>0.01</speed>
  <fix>3d</fix>
</trkpt>
<trkpt lat="40.0728576" lon="-105.2309298">
  <ele>1595.5</ele>
  <time>2026-08-27T18:29:43Z</time>
  <course>351.47</course>
  <speed>0.03</speed>
  <fix>3d</fix>
</trkpt>
<trkpt lat="40.0728574" lon="-105.2309298">
  <ele>1595.57</ele>
  <time>2026-08-27T18:29:43Z</time>
  <course>33.53</course>
  <speed>0.01</speed>
  <fix>3d</fix>
</trkpt>
<trkpt lat="40.0728576" lon="-105.2309298">
  <ele>1595.5</ele>
  <time>2026-08-27T18:29:43Z</time>
  <course>348.67</course>
  <speed>0.03</speed>
  <fix>3d</fix>
</trkpt>
<trkpt lat="40.0728575" lon="-105.2309298">
  <ele>1595.57</ele>
  <time>2026-08-27T18:29:43Z</time>
  <course>34.72</course>
  <speed>0.01</speed>
  <fix>3d</fix>
</trkpt>
<trkpt lat="40.0728577" lon="-105.2309298">
  <ele>1595.5</ele>
  <time>2026-08-27T18:29:43Z</time>
  <course>346.05</course>
  <speed>0.03</speed>
  <fix>3d</fix>
</trkpt>
<trkpt lat="40.0728576" lon="-105.2309298">
  <ele>1595.57</ele>
  <time>2026-08-27T18:29:43Z</time>
  <course>36.14</course>
  <speed>0.01</speed>
  <fix>3d</fix>
</trkpt>
<trkpt lat="40.0728578" lon="-105.2309298">
  <ele>1595.5</ele>
  <time>2026-08-27T18:29:43Z</time>
  <course>344.72</course>
  <speed>0.03</speed>
  <fix>3d</fix>
</trkpt>
<trkpt lat="40.0728576" lon="-105.2309298">
  <ele>1595.56</ele>
  <time>2026-08-27T18:29:43Z</time>
  <course>37.65</course>
  <speed>0.01</speed>
  <fix>3d</fix>
</trkpt>
<trkpt lat="40.0728578" lon="-105.2309298">
  <ele>1595.49</ele>
  <time>2026-08-27T18:29:43Z</time>
  <course>344.26</course>
  <speed>0.03</speed>
  <fix>3d</fix>
</trkpt>
<trkpt lat="40.0728577" lon="-105.2309298">
  <ele>1595.56</ele>
  <time>2026-08-27T18:29:43Z</time>
  <course>39.12</course>
  <speed>0.01</speed>
  <fix>3d</fix>
</trkpt>
<trkpt lat="40.0728578" lon="-105.2309298">
  <ele>1595.49</ele>
  <time>2026-08-27T18:29:43Z</time>
  <course>344.11</course>
  <speed>0.03</speed>
  <fix>3d</fix>
</trkpt>
<trkpt lat="40.0728578" lon="-105.2309298">
  <ele>1595.56</ele>
  <time>2026-08-27T18:29:43Z</time>
  <course>40.41</course>
  <speed>0.0</speed>
  <fix>3d</fix>
</trkpt>
<trkpt lat="40.0728579" lon="-105.2309299">
  <ele>1595.49</ele>
  <time>2026-08-27T18:29:43Z</time>
  <course>344.74</course>
  <speed>0.03</speed>
  <fix>3d</fix>
</trkpt>
<trkpt lat="40.0728578" lon="-105.2309298">
  <ele>1595.55</ele>
  <time>2026-08-27T18:29:43Z</time>
  <course>41.41</course>
  <speed>0.0</speed>
  <fix>3d</fix>
</trkpt>
<trkpt lat="40.072858" lon="-105.23093">
  <ele>1595.49</ele>
  <time>2026-08-27T18:29:43Z</time>
  <course>346.71</course>
  <speed>0.03</speed>
  <fix>3d</fix>
</trkpt>
<trkpt lat="40.0728579" lon="-105.2309298">
  <ele>1595.55</ele>
  <time>2026-08-27T18:29:43Z</time>
  <course>41.96</course>
  <speed>0.0</speed>
  <fix>3d</fix>
</trkpt>
<trkpt lat="40.0728581" lon="-105.23093">
  <ele>1595.49</ele>
  <time>2026-08-27T18:29:43Z</time>
  <course>350.33</course>
  <speed>0.03</speed>
  <fix>3d</fix>
</trkpt>
<trkpt lat="40.0728579" lon="-105.2309298">
  <ele>1595.55</ele>
  <time>2026-08-27T18:29:43Z</time>
  <course>42.05</course>
  <speed>0.0</speed>
  <fix>3d</fix>
</trkpt>
<trkpt lat="40.0728581" lon="-105.23093">
  <ele>1595.49</ele>
  <time>2026-08-27T18:29:43Z</time>
  <course>355.06</course>
  <speed>0.02</speed>
  <fix>3d</fix>
</trkpt>
<trkpt lat="40.072858" lon="-105.2309298">
  <ele>1595.55</ele>
  <time>2026-08-27T18:29:43Z</time>
  <course>41.65</course>
  <speed>0.01</speed>
  <fix>3d</fix>
</trkpt>
<trkpt lat="40.0728582" lon="-105.23093">
  <ele>1595.49</ele>
  <time>2026-08-27T18:29:43Z</time>
  <course>0.47</course>
  <speed>0.02</speed>
  <fix>3d</fix>
</trkpt>
<trkpt lat="40.072858" lon="-105.2309298">
  <ele>1595.56</ele>
  <time>2026-08-27T18:29:43Z</time>
  <course>40.82</course>
  <speed>0.01</speed>
  <fix>3d</fix>
</trkpt>
<trkpt lat="40.0728582" lon="-105.23093">
  <ele>1595.49</ele>
  <time>2026-08-27T18:29:43Z</time>
  <course>5.87</course>
  <speed>0.02</speed>
  <fix>3d</fix>
</trkpt>
<trkpt lat="40.0728581" lon="-105.2309298">
  <ele>1595.56</ele>
  <time>2026-08-27T18:29:43Z</time>
  <course>39.69</course>
  <speed>0.01</speed>
  <fix>3d</fix>
</trkpt>
<trkpt lat="40.0728583" lon="-105.23093">
  <ele>1595.49</ele>
  <time>2026-08-27T18:29:43Z</time>
  <course>10.04</course>
  <speed>0.02</speed>
  <fix>3d</fix>
</trkpt>
<trkpt lat="40.0728581" lon="-105.2309298">
  <ele>1595.56</ele>
  <time>2026-08-27T18:29:43Z</time>
  <course>38.31</course>
  <speed>0.01</speed>
  <fix>3d</fix>
</trkpt>
<trkpt lat="40.0728583" lon="-105.23093">
  <ele>1595.5</ele>
  <time>2026-08-27T18:29:43Z</time>
  <course>12.93</course>
  <speed>0.02</speed>
  <fix>3d</fix>
</trkpt>
<trkpt lat="40.0728582" lon="-105.2309298">
  <ele>1595.56</ele>
  <time>2026-08-27T18:29:43Z</time>
  <course>36.78</course>
  <speed>0.01</speed>
  <fix>3d</fix>
</trkpt>
<trkpt lat="40.0728584" lon="-105.23093">
  <ele>1595.5</ele>
  <time>2026-08-27T18:29:43Z</time>
  <course>13.88</course>
  <speed>0.02</speed>
  <fix>3d</fix>
</trkpt>
<trkpt lat="40.0728582" lon="-105.2309298">
  <ele>1595.56</ele>
  <time>2026-08-27T18:29:43Z</time>
  <course>35.3</course>
  <speed>0.01</speed>
  <fix>3d</fix>
</trkpt>
<trkpt lat="40.0728584" lon="-105.23093">
  <ele>1595.5</ele>
  <time>2026-08-27T18:29:43Z</time>
  <course>12.4</course>
  <speed>0.03</speed>
  <fix>3d</fix>
</trkpt>
<trkpt lat="40.0728583" lon="-105.2309298">
  <ele>1595.56</ele>
  <time>2026-08-27T18:29:43Z</time>
  <course>33.98</course>
  <speed>0.01414213562373095</speed>
  <fix>3d</fix>
</trkpt>
<trkpt lat="40.0728584" lon="-105.23093">
  <ele>1595.5</ele>
  <time>2026-08-27T18:29:43Z</time>
  <course>10.09</course>
  <speed>0.03</speed>
  <fix>3d</fix>
</trkpt>
<trkpt lat="40.0728583" lon="-105.2309298">
  <ele>1595.56</ele>
  <time>2026-08-27T18:29:43Z</time>
  <course>32.98</course>
  <speed>0.01</speed>
  <fix>3d</fix>
</trkpt>
<trkpt lat="40.0728585" lon="-105.23093">
  <ele>1595.5</ele>
  <time>2026-08-27T18:29:43Z</time>
  <course>7.38</course>
  <speed>0.03</speed>
  <fix>3d</fix>
</trkpt>
<trkpt lat="40.0728584" lon="-105.2309298">
  <ele>1595.56</ele>
  <time>2026-08-27T18:29:43Z</time>
  <course>32.43</course>
  <speed>0.01</speed>
  <fix>3d</fix>
</trkpt>
<trkpt lat="40.0728585" lon="-105.23093">
  <ele>1595.5</ele>
  <time>2026-08-27T18:29:43Z</time>
  <course>3.47</course>
  <speed>0.03</speed>
  <fix>3d</fix>
</trkpt>
<trkpt lat="40.0728585" lon="-105.2309298">
  <ele>1595.57</ele>
  <time>2026-08-27T18:29:43Z</time>
  <course>32.32</course>
  <speed>0.01</speed>
  <fix>3d</fix>
</trkpt>
<trkpt lat="40.0728586" lon="-105.23093">
  <ele>1595.5</ele>
  <time>2026-08-27T18:29:43Z</time>
  <course>359.12</course>
  <speed>0.03</speed>
  <fix>3d</fix>
</trkpt>
<trkpt lat="40.0728585" lon="-105.2309298">
  <ele>1595.57</ele>
  <time>2026-08-27T18:29:43Z</time>
  <course>32.69</course>
  <speed>0.01</speed>
  <fix>3d</fix>
</trkpt>
<trkpt lat="40.0728587" lon="-105.23093">
  <ele>1595.5</ele>
  <time>2026-08-27T18:29:43Z</time>
  <course>354.86</course>
  <speed>0.03</speed>
  <fix>3d</fix>
</trkpt>
<trkpt lat="40.0728586" lon="-105.2309298">
  <ele>1595.56</ele>
  <time>2026-08-27T18:29:43Z</time>
  <course>33.51</course>
  <speed>0.01</speed>
  <fix>3d</fix>
</trkpt>
<trkpt lat="40.0728588" lon="-105.23093">
  <ele>1595.5</ele>
  <time>2026-08-27T18:29:43Z</time>
  <course>351.47</course>
  <speed>0.03</speed>
  <fix>3d</fix>
</trkpt>
<trkpt lat="40.0728587" lon="-105.2309299">
  <ele>1595.56</ele>
  <time>2026-08-27T18:29:43Z</time>
  <course>34.71</course>
  <speed>0.01</speed>
  <fix>3d</fix>
</trkpt>
<trkpt lat="40.0728588" lon="-105.23093">
  <ele>1595.5</ele>
  <time>2026-08-27T18:29:43Z</time>
  <course>348.74</course>
  <speed>0.03</speed>
  <fix>3d</fix>
</trkpt>
<trkpt lat="40.0728587" lon="-105.2309299">
  <ele>1595.56</ele>
  <time>2026-08-27T18:29:43Z</time>
  <course>36.13</course>
  <speed>0.01</speed>
  <fix>3d</fix>
</trkpt>
<trkpt lat="40.0728589" lon="-105.23093">
  <ele>1595.5</ele>
  <time>2026-08-27T18:29:43Z</time>
  <course>346.82</course>
  <speed>0.03</speed>
  <fix>3d</fix>
</trkpt>
<trkpt lat="40.0728588" lon="-105.2309299">
  <ele>1595.56</ele>
  <time>2026-08-27T18:29:43Z</time>
  <course>37.64</course>
  <speed>0.01</speed>
  <fix>3d</fix>
</trkpt>
<trkpt lat="40.072859" lon="-105.23093">
  <ele>1595.5</ele>
  <time>2026-08-27T18:29:43Z</time>
  <course>346.44</course>
  <speed>0.03</speed>
  <fix>3d</fix>
</trkpt>
<trkpt lat="40.0728589" lon="-105.2309299">
  <ele>1595.56</ele>
  <time>2026-08-27T18:29:43Z</time>
  <course>39.08</course>
  <speed>0.01</speed>
  <fix>3d</fix>
</trkpt>
<trkpt lat="40.072859" lon="-105.23093">
  <ele>1595.5</ele>
  <time>2026-08-27T18:29:43Z</time>
  <course>347.08</course>
  <speed>0.03</speed>
  <fix>3d</fix>
</trkpt>
<trkpt lat="40.0728589" lon="-105.2309299">
  <ele>1595.57</ele>
  <time>2026-08-27T18:29:43Z</time>
  <course>40.41</course>
  <speed>0.0</speed>
  <fix>3d</fix>
</trkpt>
<trkpt lat="40.0728591" lon="-105.23093">
  <ele>1595.5</ele>
  <time>2026-08-27T18:29:43Z</time>
  <course>348.2</course>
  <speed>0.03</speed>
  <fix>3d</fix>
</trkpt>
<trkpt lat="40.072859" lon="-105.23093">
  <ele>1595.57</ele>
  <time>2026-08-27T18:29:43Z</time>
  <course>41.43</course>
  <speed>0.0</speed>
  <fix>3d</fix>
</trkpt>
<trkpt lat="40.0728591" lon="-105.23093">
  <ele>1595.5</ele>
  <time>2026-08-27T18:29:43Z</time>
  <course>349.85</course>
  <speed>0.03</speed>
  <fix>3d</fix>
</trkpt>
<trkpt lat="40.072859" lon="-105.23093">
  <ele>1595.57</ele>
  <time>2026-08-27T18:29:43Z</time>
  <course>42.0</course>
  <speed>0.0</speed>
  <fix>3d</fix>
</trkpt>
<trkpt lat="40.0728592" lon="-105.23093">
  <ele>1595.5</ele>
  <time>2026-08-27T18:29:43Z</time>
  <course>353.03</course>
  <speed>0.03</speed>
  <fix>3d</fix>
</trkpt>
<trkpt lat="40.0728591" lon="-105.2309299">
  <ele>1595.57</ele>
  <time>2026-08-27T18:29:43Z</time>
  <course>42.1</course>
  <speed>0.0</speed>
  <fix>3d</fix>
</trkpt>
<trkpt lat="40.0728593" lon="-105.23093">
  <ele>1595.5</ele>
  <time>2026-08-27T18:29:43Z</time>
  <course>357.63</course>
  <speed>0.02</speed>
  <fix>3d</fix>
</trkpt>
<trkpt lat="40.0728591" lon="-105.2309299">
  <ele>1595.56</ele>
  <time>2026-08-27T18:29:43Z</time>
  <course>41.72</course>
  <speed>0.01</speed>
  <fix>3d</fix>
</trkpt>
<trkpt lat="40.0728593" lon="-105.23093">
  <ele>1595.49</ele>
  <time>2026-08-27T18:29:43Z</time>
  <course>3.46</course>
  <speed>0.02</speed>
  <fix>3d</fix>
</trkpt>
<trkpt lat="40.0728592" lon="-105.2309299">
  <ele>1595.56</ele>
  <time>2026-08-27T18:29:43Z</time>
  <course>40.91</course>
  <speed>0.01</speed>
  <fix>3d</fix>
</trkpt>
<trkpt lat="40.0728594" lon="-105.23093">
  <ele>1595.49</ele>
  <time>2026-08-27T18:29:43Z</time>
  <course>9.24</course>
  <speed>0.02</speed>
  <fix>3d</fix>
</trkpt>
<trkpt lat="40.0728592" lon="-105.2309299">
  <ele>1595.56</ele>
  <time>2026-08-27T18:29:43Z</time>
  <course>39.7</course>
  <speed>0.01</speed>
  <fix>3d</fix>
</trkpt>
<trkpt lat="40.0728594" lon="-105.23093">
  <ele>1595.49</ele>
  <time>2026-08-27T18:29:43Z</time>
  <course>12.97</course>
  <speed>0.02</speed>
  <fix>3d</fix>
</trkpt>
<trkpt lat="40.0728593" lon="-105.2309299">
  <ele>1595.56</ele>
  <time>2026-08-27T18:29:43Z</time>
  <course>38.26</course>
  <speed>0.01</speed>
  <fix>3d</fix>
</trkpt>
<trkpt lat="40.0728595" lon="-105.23093">
  <ele>1595.49</ele>
  <time>2026-08-27T18:29:43Z</time>
  <course>14.79</course>
  <speed>0.02</speed>
  <fix>3d</fix>
</trkpt>
<trkpt lat="40.0728593" lon="-105.2309299">
  <ele>1595.56</ele>
  <time>2026-08-27T18:29:43Z</time>
  <course>36.74</course>
  <speed>0.01</speed>
  <fix>3d</fix>
</trkpt>
<trkpt lat="40.0728595" lon="-105.23093">
  <ele>1595.49</ele>
  <time>2026-08-27T18:29:43Z</time>
  <course>14.48</course>
  <speed>0.03</speed>
  <fix>3d</fix>
</trkpt>
<trkpt lat="40.0728594" lon="-105.2309299">
  <ele>1595.56</ele>
  <time>2026-08-27T18:29:43Z</time>
  <course>35.3</course>
  <speed>0.01</speed>
  <fix>3d</fix>
</trkpt>
<trkpt lat="40.0728596" lon="-105.23093">
  <ele>1595.49</ele>
  <time>2026-08-27T18:29:43Z</time>
  <course>12.83</course>
  <speed>0.03</speed>
  <fix>3d</fix>
</trkpt>
<trkpt lat="40.0728595" lon="-105.2309299">
  <ele>1595.57</ele>
  <time>2026-08-27T18:29:43Z</time>
  <course>33.99</course>
  <speed>0.01414213562373095</speed>
  <fix>3d</fix>
</trkpt>
<trkpt lat="40.0728596" lon="-105.23093">
  <ele>1595.49</ele>
  <time>2026-08-27T18:29:43Z</time>
  <course>10.49</course>
  <speed>0.03</speed>
  <fix>3d</fix>
</trkpt>
<trkpt lat="40.0728595" lon="-105.2309299">
  <ele>1595.56</ele>
  <time>2026-08-27T18:29:43Z</time>
  <course>33.03</course>
  <speed>0.01</speed>
  <fix>3d</fix>
</trkpt>
<trkpt lat="40.0728597" lon="-105.23093">
  <ele>1595.49</ele>
  <time>2026-08-27T18:29:43Z</time>
  <course>6.41</course>
  <speed>0.03</speed>
  <fix>3d</fix>
</trkpt>
<trkpt lat="40.0728596" lon="-105.2309299">
  <ele>1595.56</ele>
  <time>2026-08-27T18:29:43Z</time>
  <course>32.44</course>
  <speed>0.01</speed>
  <fix>3d</fix>
</trkpt>
<trkpt lat="40.0728597" lon="-105.23093">
  <ele>1595.49</ele>
  <time>2026-08-27T18:29:43Z</time>
  <course>1.73</course>
  <speed>0.03</speed>
  <fix>3d</fix>
</trkpt>
<trkpt lat="40.0728596" lon="-105.2309299">
  <ele>1595.55</ele>
  <time>2026-08-27T18:29:43Z</time>
  <course>32.33</course>
  <speed>0.01</speed>
  <fix>3d</fix>
</trkpt>
<trkpt lat="40.0728598" lon="-105.23093">
  <ele>1595.49</ele>
  <time>2026-08-27T18:29:43Z</time>
  <course>357.61</course>
  <speed>0.03</speed>
  <fix>3d</fix>
</trkpt>
<trkpt lat="40.0728597" lon="-105.2309299">
  <ele>1595.55</ele>
  <time>2026-08-27T18:29:43Z</time>
  <course>32.68</course>
  <speed>0.01</speed>
  <fix>3d</fix>
</trkpt>
<trkpt lat="40.0728599" lon="-105.23093">
  <ele>1595.49</ele>
  <time>2026-08-27T18:29:43Z</time>
  <course>353.96</course>
  <speed>0.03</speed>
  <fix>3d</fix>
</trkpt>
<trkpt lat="40.0728598" lon="-105.2309299">
  <ele>1595.55</ele>
  <time>2026-08-27T18:29:43Z</time>
  <course>33.46</course>
  <speed>0.01</speed>
  <fix>3d</fix>
</trkpt>
<trkpt lat="40.07286" lon="-105.23093">
  <ele>1595.49</ele>
  <time>2026-08-27T18:29:43Z</time>
  <course>351.4</course>
  <speed>0.03</speed>
  <fix>3d</fix>
</trkpt>
<trkpt lat="40.0728598" lon="-105.2309299">
  <ele>1595.55</ele>
  <time>2026-08-27T18:29:43Z</time>
  <course>34.62</course>
  <speed>0.01</speed>
  <fix>3d</fix>
</trkpt>
<trkpt lat="40.07286" lon="-105.23093">
  <ele>1595.49</ele>
  <time>2026-08-27T18:29:43Z</time>
  <course>349.64</course>
  <speed>0.03</speed>
  <fix>3d</fix>
</trkpt>
<trkpt lat="40.0728599" lon="-105.2309299">
  <ele>1595.55</ele>
  <time>2026-08-27T18:29:44Z</time>
  <course>36.04</course>
  <speed>0.01</speed>
  <fix>3d</fix>
</trkpt>
<trkpt lat="40.0728601" lon="-105.23093">
  <ele>1595.49</ele>
  <time>2026-08-27T18:29:44Z</time>
  <course>347.67</course>
  <speed>0.03</speed>
  <fix>3d</fix>
</trkpt>
<trkpt lat="40.07286" lon="-105.2309299">
  <ele>1595.56</ele>
  <time>2026-08-27T18:29:44Z</time>
  <course>37.58</course>
  <speed>0.01</speed>
  <fix>3d</fix>
</trkpt>
<trkpt lat="40.0728602" lon="-105.23093">
  <ele>1595.49</ele>
  <time>2026-08-27T18:29:44Z</time>
  <course>346.12</course>
  <speed>0.03</speed>
  <fix>3d</fix>
</trkpt>
<trkpt lat="40.07286" lon="-105.2309299">
  <ele>1595.57</ele>
  <time>2026-08-27T18:29:44Z</time>
  <course>39.08</course>
  <speed>0.01</speed>
  <fix>3d</fix>
</trkpt>
<trkpt lat="40.0728602" lon="-105.23093">
  <ele>1595.5</ele>
  <time>2026-08-27T18:29:44Z</time>
  <course>345.49</course>
  <speed>0.03</speed>
  <fix>3d</fix>
</trkpt>
<trkpt lat="40.0728601" lon="-105.23093">
  <ele>1595.57</ele>
  <time>2026-08-27T18:29:44Z</time>
  <course>40.44</course>
  <speed>0.01</speed>
  <fix>3d</fix>
</trkpt>
<trkpt lat="40.0728603" lon="-105.23093">
  <ele>1595.5</ele>
  <time>2026-08-27T18:29:44Z</time>
  <course>345.31</course>
  <speed>0.03</speed>
  <fix>3d</fix>
</trkpt>
<trkpt lat="40.0728602" lon="-105.23093">
  <ele>1595.57</ele>
  <time>2026-08-27T18:29:44Z</time>
  <course>41.45</course>
  <speed>0.0</speed>
  <fix>3d</fix>
</trkpt>
<trkpt lat="40.0728603" lon="-105.2309301">
  <ele>1595.5</ele>
  <time>2026-08-27T18:29:44Z</time>
  <course>346.19</course>
  <speed>0.03</speed>
  <fix>3d</fix>
</trkpt>
<trkpt lat="40.0728602" lon="-105.23093">
  <ele>1595.57</ele>
  <time>2026-08-27T18:29:44Z</time>
  <course>42.0</course>
  <speed>0.0</speed>
  <fix>3d</fix>
</trkpt>
<trkpt lat="40.0728604" lon="-105.2309301">
  <ele>1595.5</ele>
  <time>2026-08-27T18:29:44Z</time>
  <course>348.71</course>
  <speed>0.03</speed>
  <fix>3d</fix>
</trkpt>
<trkpt lat="40.0728603" lon="-105.23093">
  <ele>1595.57</ele>
  <time>2026-08-27T18:29:44Z</time>
  <course>42.11</course>
  <speed>0.0</speed>
  <fix>3d</fix>
</trkpt>
<trkpt lat="40.0728605" lon="-105.2309301">
  <ele>1595.5</ele>
  <time>2026-08-27T18:29:44Z</time>
  <course>353.28</course>
  <speed>0.02</speed>
  <fix>3d</fix>
</trkpt>
<trkpt lat="40.0728603" lon="-105.23093">
  <ele>1595.57</ele>
  <time>2026-08-27T18:29:44Z</time>
  <course>41.7</course>
  <speed>0.0</speed>
  <fix>3d</fix>
</trkpt>
<trkpt lat="40.0728605" lon="-105.2309301">
  <ele>1595.49</ele>
  <time>2026-08-27T18:29:44Z</time>
  <course>359.24</course>
  <speed>0.02</speed>
  <fix>3d</fix>
</trkpt>
<trkpt lat="40.0728604" lon="-105.23093">
  <ele>1595.56</ele>
  <time>2026-08-27T18:29:44Z</time>
  <course>40.91</course>
  <speed>0.01</speed>
  <fix>3d</fix>
</trkpt>
<trkpt lat="40.0728606" lon="-105.2309301">
  <ele>1595.49</ele>
  <time>2026-08-27T18:29:44Z</time>
  <course>5.04</course>
  <speed>0.02</speed>
  <fix>3d</fix>
</trkpt>
<trkpt lat="40.0728604" lon="-105.23093">
  <ele>1595.56</ele>
  <time>2026-08-27T18:29:44Z</time>
  <course>39.75</course>
  <speed>0.01</speed>
  <fix>3d</fix>
</trkpt>
<trkpt lat="40.0728606" lon="-105.2309301">
  <ele>1595.49</ele>
  <time>2026-08-27T18:29:44Z</time>
  <course>9.93</course>
  <speed>0.02</speed>
  <fix>3d</fix>
</trkpt>
<trkpt lat="40.0728605" lon="-105.23093">
  <ele>1595.56</ele>
  <time>2026-08-27T18:29:44Z</time>
  <course>38.32</course>
  <speed>0.01</speed>
  <fix>3d</fix>
</trkpt>
<trkpt lat="40.0728607" lon="-105.2309301">
  <ele>1595.49</ele>
  <time>2026-08-27T18:29:44Z</time>
  <course>12.82</course>
  <speed>0.02</speed>
  <fix>3d</fix>
</trkpt>
<trkpt lat="40.0728605" lon="-105.23093">
  <ele>1595.56</ele>
  <time>2026-08-27T18:29:44Z</time>
  <course>36.77</course>
  <speed>0.01</speed>
  <fix>3d</fix>
</trkpt>
<trkpt lat="40.0728607" lon="-105.2309301">
  <ele>1595.49</ele>
  <time>2026-08-27T18:29:44Z</time>
  <course>13.31</course>
  <speed>0.02</speed>
  <fix>3d</fix>
</trkpt>
<trkpt lat="40.0728606" lon="-105.23093">
  <ele>1595.57</ele>
  <time>2026-08-27T18:29:44Z</time>
  <course>35.31</course>
  <speed>0.01</speed>
  <fix>3d</fix>
</trkpt>
<trkpt lat="40.0728608" lon="-105.2309301">
  <ele>1595.49</ele>
  <time>2026-08-27T18:29:44Z</time>
  <course>11.77</course>
  <speed>0.03</speed>
  <fix>3d</fix>
</trkpt>
<trkpt lat="40.0728606" lon="-105.23093">
  <ele>1595.58</ele>
  <time>2026-08-27T18:29:44Z</time>
  <course>34.01</course>
  <speed>0.01414213562373095</speed>
  <fix>3d</fix>
</trkpt>
<trkpt lat="40.0728608" lon="-105.2309301">
  <ele>1595.49</ele>
  <time>2026-08-27T18:29:44Z</time>
  <course>9.24</course>
  <speed>0.03</speed>
  <fix>3d</fix>
</trkpt>
<trkpt lat="40.0728607" lon="-105.23093">
  <ele>1595.58</ele>
  <time>2026-08-27T18:29:44Z</time>
  <course>33.03</course>
  <speed>0.01</speed>
  <fix>3d</fix>
</trkpt>
<trkpt lat="40.0728608" lon="-105.2309301">
  <ele>1595.48</ele>
  <time>2026-08-27T18:29:44Z</time>
  <course>6.15</course>
  <speed>0.03</speed>
  <fix>3d</fix>
</trkpt>
<trkpt lat="40.0728608" lon="-105.23093">
  <ele>1595.58</ele>
  <time>2026-08-27T18:29:44Z</time>
  <course>32.47</course>
  <speed>0.01</speed>
  <fix>3d</fix>
</trkpt>
<trkpt lat="40.0728609" lon="-105.2309301">
  <ele>1595.48</ele>
  <time>2026-08-27T18:29:44Z</time>
  <course>2.91</course>
  <speed>0.03</speed>
  <fix>3d</fix>
</trkpt>
<trkpt lat="40.0728608" lon="-105.23093">
  <ele>1595.58</ele>
  <time>2026-08-27T18:29:44Z</time>
  <course>32.37</course>
  <speed>0.01</speed>
  <fix>3d</fix>
</trkpt>
<trkpt lat="40.072861" lon="-105.2309301">
  <ele>1595.48</ele>
  <time>2026-08-27T18:29:44Z</time>
  <course>359.74</course>
  <speed>0.03</speed>
  <fix>3d</fix>
</trkpt>
<trkpt lat="40.0728609" lon="-105.23093">
  <ele>1595.57</ele>
  <time>2026-08-27T18:29:44Z</time>
  <course>32.74</course>
  <speed>0.01</speed>
  <fix>3d</fix>
</trkpt>
<trkpt lat="40.0728611" lon="-105.2309301">
  <ele>1595.47</ele>
  <time>2026-08-27T18:29:44Z</time>
  <course>356.07</course>
  <speed>0.03</speed>
  <fix>3d</fix>
</trkpt>
<trkpt lat="40.072861" lon="-105.23093">
  <ele>1595.56</ele>
  <time>2026-08-27T18:29:44Z</time>
  <course>33.53</course>
  <speed>0.01</speed>
  <fix>3d</fix>
</trkpt>
<trkpt lat="40.0728611" lon="-105.2309301">
  <ele>1595.47</ele>
  <time>2026-08-27T18:29:44Z</time>
  <course>352.5</course>
  <speed>0.03</speed>
  <fix>3d</fix>
</trkpt>
<trkpt lat="40.072861" lon="-105.23093">
  <ele>1595.56</ele>
  <time>2026-08-27T18:29:44Z</time>
  <course>34.72</course>
  <speed>0.01</speed>
  <fix>3d</fix>
</trkpt>
<trkpt lat="40.0728612" lon="-105.2309301">
  <ele>1595.47</ele>
  <time>2026-08-27T18:29:44Z</time>
  <course>349.18</course>
  <speed>0.03</speed>
  <fix>3d</fix>
</trkpt>
<trkpt lat="40.0728611" lon="-105.23093">
  <ele>1595.55</ele>
  <time>2026-08-27T18:29:44Z</time>
  <course>36.13</course>
  <speed>0.01</speed>
  <fix>3d</fix>
</trkpt>
<trkpt lat="40.0728613" lon="-105.2309301">
  <ele>1595.46</ele>
  <time>2026-08-27T18:29:44Z</time>
  <course>347.02</course>
  <speed>0.03</speed>
  <fix>3d</fix>
</trkpt>
<trkpt lat="40.0728612" lon="-105.23093">
  <ele>1595.54</ele>
  <time>2026-08-27T18:29:44Z</time>
  <course>37.64</course>
  <speed>0.01</speed>
  <fix>3d</fix>
</trkpt>
<trkpt lat="40.0728613" lon="-105.2309301">
  <ele>1595.46</ele>
  <time>2026-08-27T18:29:44Z</time>
  <course>346.7</course>
  <speed>0.03</speed>
  <fix>3d</fix>
</trkpt>
<trkpt lat="40.0728612" lon="-105.23093">
  <ele>1595.55</ele>
  <time>2026-08-27T18:29:44Z</time>
  <course>39.08</course>
  <speed>0.01</speed>
  <fix>3d</fix>
</trkpt>
<trkpt lat="40.0728614" lon="-105.2309301">
  <ele>1595.46</ele>
  <time>2026-08-27T18:29:44Z</time>
  <course>346.9</course>
  <speed>0.03</speed>
  <fix>3d</fix>
</trkpt>
<trkpt lat="40.0728613" lon="-105.23093">
  <ele>1595.55</ele>
  <time>2026-08-27T18:29:44Z</time>
  <course>40.37</course>
  <speed>0.0</speed>
  <fix>3d</fix>
</trkpt>
<trkpt lat="40.0728614" lon="-105.2309301">
  <ele>1595.46</ele>
  <time>2026-08-27T18:29:44Z</time>
  <course>348.01</course>
  <speed>0.03</speed>
  <fix>3d</fix>
</trkpt>
<trkpt lat="40.0728613" lon="-105.23093">
  <ele>1595.55</ele>
  <time>2026-08-27T18:29:44Z</time>
  <course>41.36</course>
  <speed>0.0</speed>
  <fix>3d</fix>
</trkpt>
<trkpt lat="40.0728615" lon="-105.2309301">
  <ele>1595.47</ele>
  <time>2026-08-27T18:29:44Z</time>
  <course>350.86</course>
  <speed>0.03</speed>
  <fix>3d</fix>
</trkpt>
<trkpt lat="40.0728614" lon="-105.23093">
  <ele>1595.55</ele>
  <time>2026-08-27T18:29:44Z</time>
  <course>41.95</course>
  <speed>0.0</speed>
  <fix>3d</fix>
</trkpt>
<trkpt lat="40.0728615" lon="-105.2309301">
  <ele>1595.47</ele>
  <time>2026-08-27T18:29:44Z</time>
  <course>354.37</course>
  <speed>0.02</speed>
  <fix>3d</fix>
</trkpt>
<trkpt lat="40.0728614" lon="-105.23093">
  <ele>1595.55</ele>
  <time>2026-08-27T18:29:44Z</time>
  <course>42.05</course>
  <speed>0.0</speed>
  <fix>3d</fix>
</trkpt>
<trkpt lat="40.0728616" lon="-105.2309301">
  <ele>1595.47</ele>
  <time>2026-08-27T18:29:44Z</time>
  <course>358.69</course>
  <speed>0.02</speed>
  <fix>3d</fix>
</trkpt>
<trkpt lat="40.0728615" lon="-105.23093">
  <ele>1595.56</ele>
  <time>2026-08-27T18:29:44Z</time>
  <course>41.69</course>
  <speed>0.01</speed>
  <fix>3d</fix>
</trkpt>
<trkpt lat="40.0728617" lon="-105.2309301">
  <ele>1595.48</ele>
  <time>2026-08-27T18:29:44Z</time>
  <course>2.87</course>
  <speed>0.02</speed>
  <fix>3d</fix>
</trkpt>
<trkpt lat="40.0728615" lon="-105.23093">
  <ele>1595.57</ele>
  <time>2026-08-27T18:29:44Z</time>
  <course>40.9</course>
  <speed>0.01</speed>
  <fix>3d</fix>
</trkpt>
<trkpt lat="40.0728617" lon="-105.2309301">
  <ele>1595.48</ele>
  <time>2026-08-27T18:29:44Z</time>
  <course>5.63</course>
  <speed>0.02</speed>
  <fix>3d</fix>
</trkpt>
<trkpt lat="40.0728616" lon="-105.23093">
  <ele>1595.57</ele>
  <time>2026-08-27T18:29:44Z</time>
  <course>39.75</course>
  <speed>0.01</speed>
  <fix>3d</fix>
</trkpt>
<trkpt lat="40.0728618" lon="-105.2309301">
  <ele>1595.48</ele>
  <time>2026-08-27T18:29:44Z</time>
  <course>7.78</course>
  <speed>0.02</speed>
  <fix>3d</fix>
</trkpt>
<trkpt lat="40.0728616" lon="-105.23093">
  <ele>1595.57</ele>
  <time>2026-08-27T18:29:44Z</time>
  <course>38.34</course>
  <speed>0.01</speed>
  <fix>3d</fix>
</trkpt>
<trkpt lat="40.0728618" lon="-105.2309301">
  <ele>1595.48</ele>
  <time>2026-08-27T18:29:44Z</time>
  <course>9.65</course>
  <speed>0.02</speed>
  <fix>3d</fix>
</trkpt>
<trkpt lat="40.0728617" lon="-105.23093">
  <ele>1595.57</ele>
  <time>2026-08-27T18:29:44Z</time>
  <course>36.79</course>
  <speed>0.01</speed>
  <fix>3d</fix>
</trkpt>
<trkpt lat="40.0728619" lon="-105.2309301">
  <ele>1595.48</ele>
  <time>2026-08-27T18:29:44Z</time>
  <course>10.09</course>
  <speed>0.02</speed>
  <fix>3d</fix>
</trkpt>
<trkpt lat="40.0728617" lon="-105.23093">
  <ele>1595.57</ele>
  <time>2026-08-27T18:29:44Z</time>
  <course>35.31</course>
  <speed>0.01</speed>
  <fix>3d</fix>
</trkpt>
<trkpt lat="40.0728619" lon="-105.2309301">
  <ele>1595.48</ele>
  <time>2026-08-27T18:29:44Z</time>
  <course>8.93</course>
  <speed>0.03</speed>
  <fix>3d</fix>
</trkpt>
<trkpt lat="40.0728618" lon="-105.23093">
  <ele>1595.57</ele>
  <time>2026-08-27T18:29:44Z</time>
  <course>34.0</course>
  <speed>0.01414213562373095</speed>
  <fix>3d</fix>
</trkpt>
<trkpt lat="40.072862" lon="-105.2309301">
  <ele>1595.47</ele>
  <time>2026-08-27T18:29:44Z</time>
  <course>6.61</course>
  <speed>0.03</speed>
  <fix>3d</fix>
</trkpt>
<trkpt lat="40.0728618" lon="-105.23093">
  <ele>1595.57</ele>
  <time>2026-08-27T18:29:44Z</time>
  <course>33.01</course>
  <speed>0.01</speed>
  <fix>3d</fix>
</trkpt>
<trkpt lat="40.072862" lon="-105.2309301">
  <ele>1595.47</ele>
  <time>2026-08-27T18:29:44Z</time>
  <course>3.13</course>
  <speed>0.03</speed>
  <fix>3d</fix>
</trkpt>
<trkpt lat="40.0728619" lon="-105.23093">
  <ele>1595.57</ele>
  <time>2026-08-27T18:29:44Z</time>
  <course>32.44</course>
  <speed>0.01</speed>
  <fix>3d</fix>
</trkpt>
<trkpt lat="40.0728621" lon="-105.2309301">
  <ele>1595.47</ele>
  <time>2026-08-27T18:29:44Z</time>
  <course>359.21</course>
  <speed>0.03</speed>
  <fix>3d</fix>
</trkpt>
<trkpt lat="40.072862" lon="-105.23093">
  <ele>1595.57</ele>
  <time>2026-08-27T18:29:44Z</time>
  <course>32.32</course>
  <speed>0.01</speed>
  <fix>3d</fix>
</trkpt>
<trkpt lat="40.0728621" lon="-105.2309301">
  <ele>1595.47</ele>
  <time>2026-08-27T18:29:44Z</time>
  <course>355.8</course>
  <speed>0.03</speed>
  <fix>3d</fix>
</trkpt>
<trkpt lat="40.072862" lon="-105.23093">
  <ele>1595.56</ele>
  <time>2026-08-27T18:29:44Z</time>
  <course>32.3</course>
  <speed>0.01</speed>
  <fix>3d</fix>
</trkpt>
<trkpt lat="40.0728622" lon="-105.2309301">
  <ele>1595.47</ele>
  <time>2026-08-27T18:29:44Z</time>
  <course>355.04</course>
  <speed>0.03</speed>
  <fix>3d</fix>
</trkpt>
<trkpt lat="40.0728621" lon="-105.23093">
  <ele>1595.56</ele>
  <time>2026-08-27T18:29:44Z</time>
  <course>32.29</course>
  <speed>0.01</speed>
  <fix>3d</fix>
</trkpt>
<trkpt lat="40.0728623" lon="-105.2309301">
  <ele>1595.47</ele>
  <time>2026-08-27T18:29:44Z</time>
  <course>356.42</course>
  <speed>0.03</speed>
  <fix>3d</fix>
</trkpt>
<trkpt lat="40.0728622" lon="-105.23093">
  <ele>1595.56</ele>
  <time>2026-08-27T18:29:44Z</time>
  <course>32.29</course>
  <speed>0.01</speed>
  <fix>3d</fix>
</trkpt>
<trkpt lat="40.0728624" lon="-105.2309301">
  <ele>1595.46</ele>
  <time>2026-08-27T18:29:44Z</time>
  <course>357.88</course>
  <speed>0.03</speed>
  <fix>3d</fix>
</trkpt>
<trkpt lat="40.0728623" lon="-105.23093">
  <ele>1595.56</ele>
  <time>2026-08-27T18:29:44Z</time>
  <course>32.29</course>
  <speed>0.01</speed>
  <fix>3d</fix>
</trkpt>
<trkpt lat="40.0728624" lon="-105.2309301">
  <ele>1595.46</ele>
  <time>2026-08-27T18:29:44Z</time>
  <course>359.13</course>
  <speed>0.04</speed>
  <fix>3d</fix>
</trkpt>
<trkpt lat="40.0728623" lon="-105.23093">
  <ele>1595.56</ele>
  <time>2026-08-27T18:29:44Z</time>
  <course>32.28</course>
  <speed>0.02</speed>
  <fix>3d</fix>
</trkpt>
<trkpt lat="40.0728625" lon="-105.2309301">
  <ele>1595.46</ele>
  <time>2026-08-27T18:29:44Z</time>
  <course>0.8</course>
  <speed>0.04</speed>
  <fix>3d</fix>
</trkpt>
<trkpt lat="40.0728624" lon="-105.23093">
  <ele>1595.56</ele>
  <time>2026-08-27T18:29:44Z</time>
  <course>32.28</course>
  <speed>0.022360679774997897</speed>
  <fix>3d</fix>
</trkpt>
<trkpt lat="40.0728626" lon="-105.2309301">
  <ele>1595.46</ele>
  <time>2026-08-27T18:29:44Z</time>
  <course>2.87</course>
  <speed>0.04</speed>
  <fix>3d</fix>
</trkpt>
<trkpt lat="40.0728625" lon="-105.23093">
  <ele>1595.57</ele>
  <time>2026-08-27T18:29:44Z</time>
  <course>32.28</course>
  <speed>0.022360679774997897</speed>
  <fix>3d</fix>
</trkpt>
<trkpt lat="40.0728627" lon="-105.2309301">
  <ele>1595.46</ele>
  <time>2026-08-27T18:29:44Z</time>
  <course>4.69</course>
  <speed>0.04</speed>
  <fix>3d</fix>
</trkpt>
<trkpt lat="40.0728626" lon="-105.23093">
  <ele>1595.57</ele>
  <time>2026-08-27T18:29:44Z</time>
  <course>32.3</course>
  <speed>0.022360679774997897</speed>
  <fix>3d</fix>
</trkpt>
<trkpt lat="40.0728627" lon="-105.2309301">
  <ele>1595.46</ele>
  <time>2026-08-27T18:29:44Z</time>
  <course>5.91</course>
  <speed>0.04</speed>
  <fix>3d</fix>
</trkpt>
<trkpt lat="40.0728627" lon="-105.23093">
  <ele>1595.57</ele>
  <time>2026-08-27T18:29:44Z</time>
  <course>32.32</course>
  <speed>0.022360679774997897</speed>
  <fix>3d</fix>
</trkpt>
<trkpt lat="40.0728628" lon="-105.2309301">
  <ele>1595.46</ele>
  <time>2026-08-27T18:29:44Z</time>
  <course>6.44</course>
  <speed>0.05</speed>
  <fix>3d</fix>
</trkpt>
<trkpt lat="40.0728628" lon="-105.23093">
  <ele>1595.57</ele>
  <time>2026-08-27T18:29:44Z</time>
  <course>32.31</course>
  <speed>0.0316227766016838</speed>
  <fix>3d</fix>
</trkpt>
<trkpt lat="40.0728629" lon="-105.2309301">
  <ele>1595.46</ele>
  <time>2026-08-27T18:29:44Z</time>
  <course>7.07</course>
  <speed>0.05</speed>
  <fix>3d</fix>
</trkpt>
<trkpt lat="40.0728629" lon="-105.23093">
  <ele>1595.57</ele>
  <time>2026-08-27T18:29:44Z</time>
  <course>32.33</course>
  <speed>0.0316227766016838</speed>
  <fix>3d</fix>
</trkpt>
<trkpt lat="40.072863" lon="-105.2309301">
  <ele>1595.46</ele>
  <time>2026-08-27T18:29:44Z</time>
  <course>7.95</course>
  <speed>0.05</speed>
  <fix>3d</fix>
</trkpt>
<trkpt lat="40.072863" lon="-105.23093">
  <ele>1595.56</ele>
  <time>2026-08-27T18:29:44Z</time>
  <course>32.32</course>
  <speed>0.0316227766016838</speed>
  <fix>3d</fix>
</trkpt>
<trkpt lat="40.0728631" lon="-105.2309301">
  <ele>1595.45</ele>
  <time>2026-08-27T18:29:44Z</time>
  <course>8.9</course>
  <speed>0.05</speed>
  <fix>3d</fix>
</trkpt>
<trkpt lat="40.0728631" lon="-105.23093">
  <ele>1595.56</ele>
  <time>2026-08-27T18:29:44Z</time>
  <course>32.3</course>
  <speed>0.0316227766016838</speed>
  <fix>3d</fix>
</trkpt>
<trkpt lat="40.0728632" lon="-105.2309301">
  <ele>1595.45</ele>
  <time>2026-08-27T18:29:44Z</time>
  <course>9.85</course>
  <speed>0.05</speed>
  <fix>3d</fix>
</trkpt>
<trkpt lat="40.0728632" lon="-105.23093">
  <ele>1595.55</ele>
  <time>2026-08-27T18:29:44Z</time>
  <course>32.29</course>
  <speed>0.0316227766016838</speed>
  <fix>3d</fix>
</trkpt>
<trkpt lat="40.0728633" lon="-105.2309301">
  <ele>1595.45</ele>
  <time>2026-08-27T18:29:44Z</time>
  <course>10.58</course>
  <speed>0.05</speed>
  <fix>3d</fix>
</trkpt>
<trkpt lat="40.0728633" lon="-105.2309299">
  <ele>1595.54</ele>
  <time>2026-08-27T18:29:44Z</time>
  <course>32.29</course>
  <speed>0.0316227766016838</speed>
  <fix>3d</fix>
</trkpt>
<trkpt lat="40.0728634" lon="-105.23093">
  <ele>1595.45</ele>
  <time>2026-08-27T18:29:44Z</time>
  <course>11.14</course>
  <speed>0.06</speed>
  <fix>3d</fix>
</trkpt>
<trkpt lat="40.0728634" lon="-105.2309299">
  <ele>1595.54</ele>
  <time>2026-08-27T18:29:44Z</time>
  <course>32.26</course>
  <speed>0.0412310562561766</speed>
  <fix>3d</fix>
</trkpt>
<trkpt lat="40.0728635" lon="-105.23093">
  <ele>1595.45</ele>
  <time>2026-08-27T18:29:44Z</time>
  <course>11.74</course>
  <speed>0.06</speed>
  <fix>3d</fix>
</trkpt>
<trkpt lat="40.0728635" lon="-105.2309299">
  <ele>1595.54</ele>
  <time>2026-08-27T18:29:44Z</time>
  <course>31.98</course>
  <speed>0.044721359549995794</speed>
  <fix>3d</fix>
</trkpt>
<trkpt lat="40.0728637" lon="-105.23093">
  <ele>1595.45</ele>
  <time>2026-08-27T18:29:44Z</time>
  <course>13.05</course>
  <speed>0.06</speed>
  <fix>3d</fix>
</trkpt>
<trkpt lat="40.0728636" lon="-105.2309299">
  <ele>1595.55</ele>
  <time>2026-08-27T18:29:44Z</time>
  <course>30.84</course>
  <speed>0.03605551275463989</speed>
  <fix>3d</fix>
</trkpt>
<trkpt lat="40.0728638" lon="-105.2309299">
  <ele>1595.45</ele>
  <time>2026-08-27T18:29:44Z</time>
  <course>15.41</course>
  <speed>0.06</speed>
  <fix>3d</fix>
</trkpt>
<trkpt lat="40.0728637" lon="-105.2309298">
  <ele>1595.55</ele>
  <time>2026-08-27T18:29:44Z</time>
  <course>29.51</course>
  <speed>0.03605551275463989</speed>
  <fix>3d</fix>
</trkpt>
<trkpt lat="40.0728639" lon="-105.2309298">
  <ele>1595.46</ele>
  <time>2026-08-27T18:29:44Z</time>
  <course>16.68</course>
  <speed>0.06</speed>
  <fix>3d</fix>
</trkpt>
<trkpt lat="40.0728638" lon="-105.2309298">
  <ele>1595.55</ele>
  <time>2026-08-27T18:29:44Z</time>
  <course>28.41</course>
  <speed>0.0316227766016838</speed>
  <fix>3d</fix>
</trkpt>
<trkpt lat="40.072864" lon="-105.2309298">
  <ele>1595.46</ele>
  <time>2026-08-27T18:29:44Z</time>
  <course>15.27</course>
  <speed>0.06</speed>
  <fix>3d</fix>
</trkpt>
<trkpt lat="40.0728639" lon="-105.2309297">
  <ele>1595.55</ele>
  <time>2026-08-27T18:29:44Z</time>
  <course>27.68</course>
  <speed>0.0316227766016838</speed>
  <fix>3d</fix>
</trkpt>
<trkpt lat="40.0728641" lon="-105.2309298">
  <ele>1595.46</ele>
  <time>2026-08-27T18:29:44Z</time>
  <course>12.31</course>
  <speed>0.05</speed>
  <fix>3d</fix>
</trkpt>
<trkpt lat="40.072864" lon="-105.2309297">
  <ele>1595.56</ele>
  <time>2026-08-27T18:29:44Z</time>
  <course>27.38</course>
  <speed>0.0316227766016838</speed>
  <fix>3d</fix>
</trkpt>
<trkpt lat="40.0728642" lon="-105.2309298">
  <ele>1595.46</ele>
  <time>2026-08-27T18:29:44Z</time>
  <course>8.49</course>
  <speed>0.05</speed>
  <fix>3d</fix>
</trkpt>
<trkpt lat="40.0728641" lon="-105.2309297">
  <ele>1595.56</ele>
  <time>2026-08-27T18:29:44Z</time>
  <course>27.57</course>
  <speed>0.02</speed>
  <fix>3d</fix>
</trkpt>
<trkpt lat="40.0728643" lon="-105.2309298">
  <ele>1595.47</ele>
  <time>2026-08-27T18:29:44Z</time>
  <course>3.95</course>
  <speed>0.05</speed>
  <fix>3d</fix>
</trkpt>
<trkpt lat="40.0728642" lon="-105.2309297">
  <ele>1595.55</ele>
  <time>2026-08-27T18:29:44Z</time>
  <course>28.21</course>
  <speed>0.02</speed>
  <fix>3d</fix>
</trkpt>
<trkpt lat="40.0728644" lon="-105.2309298">
  <ele>1595.47</ele>
  <time>2026-08-27T18:29:44Z</time>
  <course>359.34</course>
  <speed>0.04</speed>
  <fix>3d</fix>
</trkpt>
<trkpt lat="40.0728643" lon="-105.2309297">
  <ele>1595.55</ele>
  <time>2026-08-27T18:29:44Z</time>
  <course>29.28</course>
  <speed>0.02</speed>
  <fix>3d</fix>
</trkpt>
<trkpt lat="40.0728645" lon="-105.2309298">
  <ele>1595.47</ele>
  <time>2026-08-27T18:29:44Z</time>
  <course>354.99</course>
  <speed>0.04</speed>
  <fix>3d</fix>
</trkpt>
<trkpt lat="40.0728644" lon="-105.2309298">
  <ele>1595.55</ele>
  <time>2026-08-27T18:29:44Z</time>
  <course>30.61</course>
  <speed>0.01</speed>
  <fix>3d</fix>
</trkpt>
<trkpt lat="40.0728645" lon="-105.2309298">
  <ele>1595.47</ele>
  <time>2026-08-27T18:29:44Z</time>
  <course>351.0</course>
  <speed>0.04</speed>
  <fix>3d</fix>
</trkpt>
<trkpt lat="40.0728644" lon="-105.2309298">
  <ele>1595.55</ele>
  <time>2026-08-27T18:29:44Z</time>
  <course>32.09</course>
  <speed>0.01</speed>
  <fix>3d</fix>
</trkpt>
<trkpt lat="40.0728646" lon="-105.2309298">
  <ele>1595.47</ele>
  <time>2026-08-27T18:29:44Z</time>
  <course>347.58</course>
  <speed>0.03</speed>
  <fix>3d</fix>
</trkpt>
<trkpt lat="40.0728645" lon="-105.2309298">
  <ele>1595.56</ele>
  <time>2026-08-27T18:29:44Z</time>
  <course>33.62</course>
  <speed>0.01</speed>
  <fix>3d</fix>
</trkpt>
<trkpt lat="40.0728646" lon="-105.2309298">
  <ele>1595.47</ele>
  <time>2026-08-27T18:29:44Z</time>
  <course>344.55</course>
  <speed>0.03</speed>
  <fix>3d</fix>
</trkpt>
<trkpt lat="40.0728645" lon="-105.2309298">
  <ele>1595.56</ele>
  <time>2026-08-27T18:29:44Z</time>
  <course>35.01</course>
  <speed>0.0</speed>
  <fix>3d</fix>
</trkpt>
<trkpt lat="40.0728647" lon="-105.2309298">
  <ele>1595.48</ele>
  <time>2026-08-27T18:29:44Z</time>
  <course>342.56</course>
  <speed>0.03</speed>
  <fix>3d</fix>
</trkpt>
<trkpt lat="40.0728646" lon="-105.2309298">
  <ele>1595.56</ele>
  <time>2026-08-27T18:29:44Z</time>
  <course>36.14</course>
  <speed>0.0</speed>
  <fix>3d</fix>
</trkpt>
<trkpt lat="40.0728648" lon="-105.2309298">
  <ele>1595.48</ele>
  <time>2026-08-27T18:29:44Z</time>
  <course>342.58</course>
  <speed>0.02</speed>
  <fix>3d</fix>
</trkpt>
<trkpt lat="40.0728646" lon="-105.2309298">
  <ele>1595.56</ele>
  <time>2026-08-27T18:29:44Z</time>
  <course>36.89</course>
  <speed>0.0</speed>
  <fix>3d</fix>
</trkpt>
<trkpt lat="40.0728648" lon="-105.2309298">
  <ele>1595.48</ele>
  <time>2026-08-27T18:29:44Z</time>
  <course>345.02</course>
  <speed>0.02</speed>
  <fix>3d</fix>
</trkpt>
<trkpt lat="40.0728647" lon="-105.2309298">
  <ele>1595.56</ele>
  <time>2026-08-27T18:29:44Z</time>
  <course>37.17</course>
  <speed>0.0</speed>
  <fix>3d</fix>
</trkpt>
<trkpt lat="40.0728649" lon="-105.2309298">
  <ele>1595.48</ele>
  <time>2026-08-27T18:29:44Z</time>
  <course>349.29</course>
  <speed>0.02</speed>
  <fix>3d</fix>
</trkpt>
<trkpt lat="40.0728647" lon="-105.2309298">
  <ele>1595.55</ele>
  <time>2026-08-27T18:29:44Z</time>
  <course>37.0</course>
  <speed>0.0</speed>
  <fix>3d</fix>
</trkpt>
<trkpt lat="40.0728649" lon="-105.2309298">
  <ele>1595.48</ele>
  <time>2026-08-27T18:29:44Z</time>
  <course>354.2</course>
  <speed>0.02</speed>
  <fix>3d</fix>
</trkpt>
<trkpt lat="40.0728648" lon="-105.2309298">
  <ele>1595.55</ele>
  <time>2026-08-27T18:29:44Z</time>
  <course>36.34</course>
  <speed>0.01</speed>
  <fix>3d</fix>
</trkpt>
<trkpt lat="40.072865" lon="-105.2309298">
  <ele>1595.48</ele>
  <time>2026-08-27T18:29:44Z</time>
  <course>359.18</course>
  <speed>0.02</speed>
  <fix>3d</fix>
</trkpt>
<trkpt lat="40.0728648" lon="-105.2309298">
  <ele>1595.56</ele>
  <time>2026-08-27T18:29:44Z</time>
  <course>35.3</course>
  <speed>0.01</speed>
  <fix>3d</fix>
</trkpt>
<trkpt lat="40.072865" lon="-105.2309298">
  <ele>1595.49</ele>
  <time>2026-08-27T18:29:44Z</time>
  <course>4.05</course>
  <speed>0.02</speed>
  <fix>3d</fix>
</trkpt>
<trkpt lat="40.0728649" lon="-105.2309298">
  <ele>1595.56</ele>
  <time>2026-08-27T18:29:44Z</time>
  <course>33.95</course>
  <speed>0.01</speed>
  <fix>3d</fix>
</trkpt>
<trkpt lat="40.0728651" lon="-105.2309298">
  <ele>1595.49</ele>
  <time>2026-08-27T18:29:44Z</time>
  <course>7.64</course>
  <speed>0.02</speed>
  <fix>3d</fix>
</trkpt>
<trkpt lat="40.0728649" lon="-105.2309298">
  <ele>1595.56</ele>
  <time>2026-08-27T18:29:44Z</time>
  <course>32.45</course>
  <speed>0.01</speed>
  <fix>3d</fix>
</trkpt>
<trkpt lat="40.0728651" lon="-105.2309298">
  <ele>1595.49</ele>
  <time>2026-08-27T18:29:44Z</time>
  <course>8.8</course>
  <speed>0.02</speed>
  <fix>3d</fix>
</trkpt>
<trkpt lat="40.072865" lon="-105.2309298">
  <ele>1595.56</ele>
  <time>2026-08-27T18:29:44Z</time>
  <course>30.96</course>
  <speed>0.01</speed>
  <fix>3d</fix>
</trkpt>
<trkpt lat="40.0728651" lon="-105.2309298">
  <ele>1595.49</ele>
  <time>2026-08-27T18:29:44Z</time>
  <course>7.94</course>
  <speed>0.02</speed>
  <fix>3d</fix>
</trkpt>
<trkpt lat="40.072865" lon="-105.2309297">
  <ele>1595.57</ele>
  <time>2026-08-27T18:29:44Z</time>
  <course>29.56</course>
  <speed>0.01414213562373095</speed>
  <fix>3d</fix>
</trkpt>
<trkpt lat="40.0728652" lon="-105.2309298">
  <ele>1595.49</ele>
  <time>2026-08-27T18:29:44Z</time>
  <course>5.56</course>
  <speed>0.03</speed>
  <fix>3d</fix>
</trkpt>
<trkpt lat="40.0728651" lon="-105.2309297">
  <ele>1595.57</ele>
  <time>2026-08-27T18:29:44Z</time>
  <course>28.43</course>
  <speed>0.01</speed>
  <fix>3d</fix>
</trkpt>
<trkpt lat="40.0728652" lon="-105.2309298">
  <ele>1595.49</ele>
  <time>2026-08-27T18:29:44Z</time>
  <course>1.63</course>
  <speed>0.03</speed>
  <fix>3d</fix>
</trkpt>
<trkpt lat="40.0728651" lon="-105.2309298">
  <ele>1595.57</ele>
  <time>2026-08-27T18:29:44Z</time>
  <course>27.71</course>
  <speed>0.01</speed>
  <fix>3d</fix>
</trkpt>
<trkpt lat="40.0728653" lon="-105.2309298">
  <ele>1595.49</ele>
  <time>2026-08-27T18:29:44Z</time>
  <course>356.6</course>
  <speed>0.03</speed>
  <fix>3d</fix>
</trkpt>
<trkpt lat="40.0728652" lon="-105.2309298">
  <ele>1595.57</ele>
  <time>2026-08-27T18:29:44Z</time>
  <course>27.43</course>
  <speed>0.01</speed>
  <fix>3d</fix>
</trkpt>
<trkpt lat="40.0728654" lon="-105.2309298">
  <ele>1595.49</ele>
  <time>2026-08-27T18:29:44Z</time>
  <course>352.06</course>
  <speed>0.03</speed>
  <fix>3d</fix>
</trkpt>
<trkpt lat="40.0728653" lon="-105.2309298">
  <ele>1595.57</ele>
  <time>2026-08-27T18:29:44Z</time>
  <course>27.6</course>
  <speed>0.01</speed>
  <fix>3d</fix>
</trkpt>
<trkpt lat="40.0728655" lon="-105.2309298">
  <ele>1595.49</ele>
  <time>2026-08-27T18:29:44Z</time>
  <course>348.42</course>
  <speed>0.03</speed>
  <fix>3d</fix>
</trkpt>
<trkpt lat="40.0728653" lon="-105.2309298">
  <ele>1595.56</ele>
  <time>2026-08-27T18:29:44Z</time>
  <course>28.24</course>
  <speed>0.01</speed>
  <fix>3d</fix>
</trkpt>
<trkpt lat="40.0728655" lon="-105.2309298">
  <ele>1595.49</ele>
  <time>2026-08-27T18:29:44Z</time>
  <course>344.74</course>
  <speed>0.03</speed>
  <fix>3d</fix>
</trkpt>
<trkpt lat="40.0728654" lon="-105.2309298">
  <ele>1595.56</ele>
  <time>2026-08-27T18:29:44Z</time>
  <course>29.28</course>
  <speed>0.01</speed>
  <fix>3d</fix>
</trkpt>
<trkpt lat="40.0728656" lon="-105.2309298">
  <ele>1595.49</ele>
  <time>2026-08-27T18:29:44Z</time>
  <course>341.23</course>
  <speed>0.03</speed>
  <fix>3d</fix>
</trkpt>
<trkpt lat="40.0728655" lon="-105.2309298">
  <ele>1595.57</ele>
  <time>2026-08-27T18:29:44Z</time>
  <course>30.64</course>
  <speed>0.01</speed>
  <fix>3d</fix>
</trkpt>
<trkpt lat="40.0728657" lon="-105.2309298">
  <ele>1595.49</ele>
  <time>2026-08-27T18:29:44Z</time>
  <course>338.43</course>
  <speed>0.03</speed>
  <fix>3d</fix>
</trkpt>
<trkpt lat="40.0728655" lon="-105.2309298">
  <ele>1595.57</ele>
  <time>2026-08-27T18:29:44Z</time>
  <course>32.14</course>
  <speed>0.01</speed>
  <fix>3d</fix>
</trkpt>
<trkpt lat="40.0728657" lon="-105.2309298">
  <ele>1595.49</ele>
  <time>2026-08-27T18:29:44Z</time>
  <course>336.32</course>
  <speed>0.03</speed>
  <fix>3d</fix>
</trkpt>
<trkpt lat="40.0728656" lon="-105.2309298">
  <ele>1595.57</ele>
  <time>2026-08-27T18:29:44Z</time>
  <course>33.65</course>
  <speed>0.01</speed>
  <fix>3d</fix>
</trkpt>
<trkpt lat="40.0728657" lon="-105.2309299">
  <ele>1595.49</ele>
  <time>2026-08-27T18:29:44Z</time>
  <course>334.61</course>
  <speed>0.03</speed>
  <fix>3d</fix>
</trkpt>
<trkpt lat="40.0728657" lon="-105.2309298">
  <ele>1595.56</ele>
  <time>2026-08-27T18:29:44Z</time>
  <course>35.03</course>
  <speed>0.0</speed>
  <fix>3d</fix>
</trkpt>
<trkpt lat="40.0728658" lon="-105.23093">
  <ele>1595.49</ele>
  <time>2026-08-27T18:29:44Z</time>
  <course>333.82</course>
  <speed>0.03</speed>
  <fix>3d</fix>
</trkpt>
<trkpt lat="40.0728657" lon="-105.2309299">
  <ele>1595.56</ele>
  <time>2026-08-27T18:29:44Z</time>
  <course>36.15</course>
  <speed>0.0</speed>
  <fix>3d</fix>
</trkpt>
<trkpt lat="40.0728659" lon="-105.23093">
  <ele>1595.48</ele>
  <time>2026-08-27T18:29:44Z</time>
  <course>334.59</course>
  <speed>0.03</speed>
  <fix>3d</fix>
</trkpt>
<trkpt lat="40.0728658" lon="-105.2309299">
  <ele>1595.55</ele>
  <time>2026-08-27T18:29:44Z</time>
  <course>36.89</course>
  <speed>0.0</speed>
  <fix>3d</fix>
</trkpt>
<trkpt lat="40.072866" lon="-105.2309301">
  <ele>1595.48</ele>
  <time>2026-08-27T18:29:44Z</time>
  <course>337.19</course>
  <speed>0.03</speed>
  <fix>3d</fix>
</trkpt>
<trkpt lat="40.0728658" lon="-105.2309299">
  <ele>1595.55</ele>
  <time>2026-08-27T18:29:44Z</time>
  <course>37.18</course>
  <speed>0.0</speed>
  <fix>3d</fix>
</trkpt>
<trkpt lat="40.072866" lon="-105.2309301">
  <ele>1595.48</ele>
  <time>2026-08-27T18:29:44Z</time>
  <course>342.18</course>
  <speed>0.02</speed>
  <fix>3d</fix>
</trkpt>
<trkpt lat="40.0728659" lon="-105.2309299">
  <ele>1595.55</ele>
  <time>2026-08-27T18:29:44Z</time>
  <course>36.97</course>
  <speed>0.0</speed>
  <fix>3d</fix>
</trkpt>
<trkpt lat="40.0728661" lon="-105.2309301">
  <ele>1595.48</ele>
  <time>2026-08-27T18:29:44Z</time>
  <course>348.21</course>
  <speed>0.02</speed>
  <fix>3d</fix>
</trkpt>
<trkpt lat="40.0728659" lon="-105.2309299">
  <ele>1595.56</ele>
  <time>2026-08-27T18:29:44Z</time>
  <course>36.34</course>
  <speed>0.01</speed>
  <fix>3d</fix>
</trkpt>
<trkpt lat="40.0728661" lon="-105.2309301">
  <ele>1595.49</ele>
  <time>2026-08-27T18:29:44Z</time>
  <course>354.36</course>
  <speed>0.02</speed>
  <fix>3d</fix>
</trkpt>
<trkpt lat="40.072866" lon="-105.2309299">
  <ele>1595.56</ele>
  <time>2026-08-27T18:29:44Z</time>
  <course>35.29</course>
  <speed>0.01</speed>
  <fix>3d</fix>
</trkpt>
<trkpt lat="40.0728662" lon="-105.2309301">
  <ele>1595.49</ele>
  <time>2026-08-27T18:29:44Z</time>
  <course>359.89</course>
  <speed>0.02</speed>
  <fix>3d</fix>
</trkpt>
<trkpt lat="40.072866" lon="-105.2309299">
  <ele>1595.56</ele>
  <time>2026-08-27T18:29:44Z</time>
  <course>33.97</course>
  <speed>0.01</speed>
  <fix>3d</fix>
</trkpt>
<trkpt lat="40.0728662" lon="-105.2309301">
  <ele>1595.49</ele>
  <time>2026-08-27T18:29:44Z</time>
  <course>3.73</course>
  <speed>0.02</speed>
  <fix>3d</fix>
</trkpt>
<trkpt lat="40.0728661" lon="-105.2309299">
  <ele>1595.57</ele>
  <time>2026-08-27T18:29:44Z</time>
  <course>32.46</course>
  <speed>0.01</speed>
  <fix>3d</fix>
</trkpt>
<trkpt lat="40.0728663" lon="-105.2309301">
  <ele>1595.49</ele>
  <time>2026-08-27T18:29:44Z</time>
  <course>5.7</course>
  <speed>0.02</speed>
  <fix>3d</fix>
</trkpt>
<trkpt lat="40.0728661" lon="-105.2309299">
  <ele>1595.57</ele>
  <time>2026-08-27T18:29:44Z</time>
  <course>30.97</course>
  <speed>0.01414213562373095</speed>
  <fix>3d</fix>
</trkpt>
<trkpt lat="40.0728663" lon="-105.2309301">
  <ele>1595.49</ele>
  <time>2026-08-27T18:29:44Z</time>
  <course>5.18</course>
  <speed>0.03</speed>
  <fix>3d</fix>
</trkpt>
<trkpt lat="40.0728662" lon="-105.2309299">
  <ele>1595.57</ele>
  <time>2026-08-27T18:29:44Z</time>
  <course>29.58</course>
  <speed>0.01414213562373095</speed>
  <fix>3d</fix>
</trkpt>
<trkpt lat="40.0728663" lon="-105.2309301">
  <ele>1595.49</ele>
  <time>2026-08-27T18:29:44Z</time>
  <course>3.74</course>
  <speed>0.03</speed>
  <fix>3d</fix>
</trkpt>
<trkpt lat="40.0728663" lon="-105.2309299">
  <ele>1595.57</ele>
  <time>2026-08-27T18:29:44Z</time>
  <course>28.46</course>
  <speed>0.01</speed>
  <fix>3d</fix>
</trkpt>
<trkpt lat="40.0728664" lon="-105.2309301">
  <ele>1595.49</ele>
  <time>2026-08-27T18:29:44Z</time>
  <course>1.35</course>
  <speed>0.03</speed>
  <fix>3d</fix>
</trkpt>
<trkpt lat="40.0728663" lon="-105.2309299">
  <ele>1595.56</ele>
  <time>2026-08-27T18:29:44Z</time>
  <course>27.69</course>
  <speed>0.01</speed>
  <fix>3d</fix>
</trkpt>
<trkpt lat="40.0728664" lon="-105.2309301">
  <ele>1595.49</ele>
  <time>2026-08-27T18:29:44Z</time>
  <course>357.38</course>
  <speed>0.03</speed>
  <fix>3d</fix>
</trkpt>
<trkpt lat="40.0728664" lon="-105.2309299">
  <ele>1595.56</ele>
  <time>2026-08-27T18:29:44Z</time>
  <course>27.4</course>
  <speed>0.01</speed>
  <fix>3d</fix>
</trkpt>
<trkpt lat="40.0728665" lon="-105.2309301">
  <ele>1595.49</ele>
  <time>2026-08-27T18:29:44Z</time>
  <course>353.83</course>
  <speed>0.03</speed>
  <fix>3d</fix>
</trkpt>
<trkpt lat="40.0728664" lon="-105.23093">
  <ele>1595.56</ele>
  <time>2026-08-27T18:29:44Z</time>
  <course>27.57</course>
  <speed>0.01</speed>
  <fix>3d</fix>
</trkpt>
<trkpt lat="40.0728666" lon="-105.2309301">
  <ele>1595.49</ele>
  <time>2026-08-27T18:29:44Z</time>
  <course>350.82</course>
  <speed>0.03</speed>
  <fix>3d</fix>
</trkpt>
<trkpt lat="40.0728665" lon="-105.23093">
  <ele>1595.57</ele>
  <time>2026-08-27T18:29:44Z</time>
  <course>28.21</course>
  <speed>0.01</speed>
  <fix>3d</fix>
</trkpt>
<trkpt lat="40.0728667" lon="-105.2309301">
  <ele>1595.49</ele>
  <time>2026-08-27T18:29:44Z</time>
  <course>348.3</course>
  <speed>0.03</speed>
  <fix>3d</fix>
</trkpt>
<trkpt lat="40.0728666" lon="-105.23093">
  <ele>1595.57</ele>
  <time>2026-08-27T18:29:44Z</time>
  <course>29.29</course>
  <speed>0.01</speed>
  <fix>3d</fix>
</trkpt>
<trkpt lat="40.0728667" lon="-105.2309301">
  <ele>1595.49</ele>
  <time>2026-08-27T18:29:44Z</time>
  <course>346.54</course>
  <speed>0.03</speed>
  <fix>3d</fix>
</trkpt>
<trkpt lat="40.0728666" lon="-105.23093">
  <ele>1595.57</ele>
  <time>2026-08-27T18:29:44Z</time>
  <course>30.64</course>
  <speed>0.01</speed>
  <fix>3d</fix>
</trkpt>
<trkpt lat="40.0728668" lon="-105.2309301">
  <ele>1595.49</ele>
  <time>2026-08-27T18:29:44Z</time>
  <course>345.01</course>
  <speed>0.03</speed>
  <fix>3d</fix>
</trkpt>
<trkpt lat="40.0728667" lon="-105.23093">
  <ele>1595.58</ele>
  <time>2026-08-27T18:29:44Z</time>
  <course>32.15</course>
  <speed>0.01</speed>
  <fix>3d</fix>
</trkpt>
<trkpt lat="40.0728669" lon="-105.2309301">
  <ele>1595.49</ele>
  <time>2026-08-27T18:29:44Z</time>
  <course>343.62</course>
  <speed>0.03</speed>
  <fix>3d</fix>
</trkpt>
<trkpt lat="40.0728668" lon="-105.2309301">
  <ele>1595.58</ele>
  <time>2026-08-27T18:29:44Z</time>
  <course>33.68</course>
  <speed>0.01</speed>
  <fix>3d</fix>
</trkpt>
<trkpt lat="40.0728669" lon="-105.2309301">
  <ele>1595.49</ele>
  <time>2026-08-27T18:29:44Z</time>
  <course>343.07</course>
  <speed>0.03</speed>
  <fix>3d</fix>
</trkpt>
<trkpt lat="40.0728668" lon="-105.2309301">
  <ele>1595.57</ele>
  <time>2026-08-27T18:29:44Z</time>
  <course>35.04</course>
  <speed>0.01</speed>
  <fix>3d</fix>
</trkpt>
<trkpt lat="40.072867" lon="-105.2309302">
  <ele>1595.48</ele>
  <time>2026-08-27T18:29:44Z</time>
  <course>343.7</course>
  <speed>0.03</speed>
  <fix>3d</fix>
</trkpt>
<trkpt lat="40.0728669" lon="-105.2309301">
  <ele>1595.56</ele>
  <time>2026-08-27T18:29:44Z</time>
  <course>36.16</course>
  <speed>0.01</speed>
  <fix>3d</fix>
</trkpt>
<trkpt lat="40.072867" lon="-105.2309303">
  <ele>1595.48</ele>
  <time>2026-08-27T18:29:44Z</time>
  <course>345.13</course>
  <speed>0.03</speed>
  <fix>3d</fix>
</trkpt>
<trkpt lat="40.0728669" lon="-105.2309301">
  <ele>1595.56</ele>
  <time>2026-08-27T18:29:44Z</time>
  <course>36.9</course>
  <speed>0.0</speed>
  <fix>3d</fix>
</trkpt>
<trkpt lat="40.0728671" lon="-105.2309303">
  <ele>1595.48</ele>
  <time>2026-08-27T18:29:44Z</time>
  <course>347.02</course>
  <speed>0.03</speed>
  <fix>3d</fix>
</trkpt>
<trkpt lat="40.072867" lon="-105.2309301">
  <ele>1595.56</ele>
  <time>2026-08-27T18:29:44Z</time>
  <course>37.18</course>
  <speed>0.0</speed>
  <fix>3d</fix>
</trkpt>
<trkpt lat="40.0728672" lon="-105.2309303">
  <ele>1595.48</ele>
  <time>2026-08-27T18:29:44Z</time>
  <course>349.61</course>
  <speed>0.03</speed>
  <fix>3d</fix>
</trkpt>
<trkpt lat="40.072867" lon="-105.2309301">
  <ele>1595.56</ele>
  <time>2026-08-27T18:29:44Z</time>
  <course>37.0</course>
  <speed>0.0</speed>
  <fix>3d</fix>
</trkpt>
<trkpt lat="40.0728673" lon="-105.2309303">
  <ele>1595.48</ele>
  <time>2026-08-27T18:29:44Z</time>
  <course>353.06</course>
  <speed>0.02</speed>
  <fix>3d</fix>
</trkpt>
<trkpt lat="40.0728671" lon="-105.2309301">
  <ele>1595.56</ele>
  <time>2026-08-27T18:29:44Z</time>
  <course>36.33</course>
  <speed>0.0</speed>
  <fix>3d</fix>
</trkpt>
<trkpt lat="40.0728673" lon="-105.2309303">
  <ele>1595.48</ele>
  <time>2026-08-27T18:29:44Z</time>
  <course>357.11</course>
  <speed>0.02</speed>
  <fix>3d</fix>
</trkpt>
<trkpt lat="40.0728671" lon="-105.2309301">
  <ele>1595.56</ele>
  <time>2026-08-27T18:29:44Z</time>
  <course>35.29</course>
  <speed>0.01</speed>
  <fix>3d</fix>
</trkpt>
<trkpt lat="40.0728674" lon="-105.2309303">
  <ele>1595.48</ele>
  <time>2026-08-27T18:29:44Z</time>
  <course>1.15</course>
  <speed>0.02</speed>
  <fix>3d</fix>
</trkpt>
<trkpt lat="40.0728672" lon="-105.2309301">
  <ele>1595.56</ele>
  <time>2026-08-27T18:29:44Z</time>
  <course>33.94</course>
  <speed>0.01</speed>
  <fix>3d</fix>
</trkpt>
<trkpt lat="40.0728674" lon="-105.2309303">
  <ele>1595.48</ele>
  <time>2026-08-27T18:29:44Z</time>
  <course>4.17</course>
  <speed>0.02</speed>
  <fix>3d</fix>
</trkpt>
<trkpt lat="40.0728673" lon="-105.2309301">
  <ele>1595.56</ele>
  <time>2026-08-27T18:29:44Z</time>
  <course>32.45</course>
  <speed>0.01</speed>
  <fix>3d</fix>
</trkpt>
<trkpt lat="40.0728675" lon="-105.2309303">
  <ele>1595.48</ele>
  <time>2026-08-27T18:29:44Z</time>
  <course>5.54</course>
  <speed>0.02</speed>
  <fix>3d</fix>
</trkpt>
<trkpt lat="40.0728673" lon="-105.2309301">
  <ele>1595.56</ele>
  <time>2026-08-27T18:29:44Z</time>
  <course>30.96</course>
  <speed>0.01</speed>
  <fix>3d</fix>
</trkpt>
<trkpt lat="40.0728675" lon="-105.2309303">
  <ele>1595.48</ele>
  <time>2026-08-27T18:29:44Z</time>
  <course>5.55</course>
  <speed>0.02</speed>
  <fix>3d</fix>
</trkpt>
<trkpt lat="40.0728674" lon="-105.2309301">
  <ele>1595.57</ele>
  <time>2026-08-27T18:29:44Z</time>
  <course>29.6</course>
  <speed>0.01414213562373095</speed>
  <fix>3d</fix>
</trkpt>
<trkpt lat="40.0728675" lon="-105.2309303">
  <ele>1595.48</ele>
  <time>2026-08-27T18:29:44Z</time>
  <course>4.75</course>
  <speed>0.03</speed>
  <fix>3d</fix>
</trkpt>
<trkpt lat="40.0728674" lon="-105.2309301">
  <ele>1595.57</ele>
  <time>2026-08-27T18:29:44Z</time>
  <course>28.46</course>
  <speed>0.01</speed>
  <fix>3d</fix>
</trkpt>
<trkpt lat="40.0728676" lon="-105.2309303">
  <ele>1595.48</ele>
  <time>2026-08-27T18:29:44Z</time>
  <course>2.27</course>
  <speed>0.03</speed>
  <fix>3d</fix>
</trkpt>
<trkpt lat="40.0728675" lon="-105.2309301">
  <ele>1595.58</ele>
  <time>2026-08-27T18:29:44Z</time>
  <course>27.72</course>
  <speed>0.01</speed>
  <fix>3d</fix>
</trkpt>
<trkpt lat="40.0728676" lon="-105.2309303">
  <ele>1595.48</ele>
  <time>2026-08-27T18:29:44Z</time>
  <course>358.5</course>
  <speed>0.03</speed>
  <fix>3d</fix>
</trkpt>
<trkpt lat="40.0728676" lon="-105.2309301">
  <ele>1595.58</ele>
  <time>2026-08-27T18:29:44Z</time>
  <course>27.44</course>
  <speed>0.01</speed>
  <fix>3d</fix>
</trkpt>
<trkpt lat="40.0728677" lon="-105.2309303">
  <ele>1595.47</ele>
  <time>2026-08-27T18:29:44Z</time>
  <course>354.95</course>
  <speed>0.03</speed>
  <fix>3d</fix>
</trkpt>
<trkpt lat="40.0728676" lon="-105.2309302">
  <ele>1595.58</ele>
  <time>2026-08-27T18:29:44Z</time>
  <course>27.63</course>
  <speed>0.01</speed>
  <fix>3d</fix>
</trkpt>
<trkpt lat="40.0728678" lon="-105.2309303">
  <ele>1595.47</ele>
  <time>2026-08-27T18:29:44Z</time>
  <course>352.15</course>
  <speed>0.03</speed>
  <fix>3d</fix>
</trkpt>
<trkpt lat="40.0728677" lon="-105.2309302">
  <ele>1595.58</ele>
  <time>2026-08-27T18:29:44Z</time>
  <course>28.29</course>
  <speed>0.01</speed>
  <fix>3d</fix>
</trkpt>
<trkpt lat="40.0728679" lon="-105.2309303">
  <ele>1595.47</ele>
  <time>2026-08-27T18:29:44Z</time>
  <course>350.06</course>
  <speed>0.03</speed>
  <fix>3d</fix>
</trkpt>
<trkpt lat="40.0728678" lon="-105.2309302">
  <ele>1595.57</ele>
  <time>2026-08-27T18:29:44Z</time>
  <course>29.33</course>
  <speed>0.01</speed>
  <fix>3d</fix>
</trkpt>
<trkpt lat="40.0728679" lon="-105.2309303">
  <ele>1595.46</ele>
  <time>2026-08-27T18:29:44Z</time>
  <course>348.35</course>
  <speed>0.03</speed>
  <fix>3d</fix>
</trkpt>
<trkpt lat="40.0728678" lon="-105.2309302">
  <ele>1595.57</ele>
  <time>2026-08-27T18:29:44Z</time>
  <course>30.65</course>
  <speed>0.01</speed>
  <fix>3d</fix>
</trkpt>
<trkpt lat="40.072868" lon="-105.2309303">
  <ele>1595.46</ele>
  <time>2026-08-27T18:29:44Z</time>
  <course>347.12</course>
  <speed>0.03</speed>
  <fix>3d</fix>
</trkpt>
<trkpt lat="40.0728679" lon="-105.2309302">
  <ele>1595.57</ele>
  <time>2026-08-27T18:29:44Z</time>
  <course>32.16</course>
  <speed>0.01</speed>
  <fix>3d</fix>
</trkpt>
<trkpt lat="40.0728681" lon="-105.2309303">
  <ele>1595.45</ele>
  <time>2026-08-27T18:29:44Z</time>
  <course>345.93</course>
  <speed>0.03</speed>
  <fix>3d</fix>
</trkpt>
<trkpt lat="40.072868" lon="-105.2309302">
  <ele>1595.57</ele>
  <time>2026-08-27T18:29:44Z</time>
  <course>33.63</course>
  <speed>0.01</speed>
  <fix>3d</fix>
</trkpt>
<trkpt lat="40.0728681" lon="-105.2309303">
  <ele>1595.45</ele>
  <time>2026-08-27T18:29:44Z</time>
  <course>345.02</course>
  <speed>0.03</speed>
  <fix>3d</fix>
</trkpt>
<trkpt lat="40.072868" lon="-105.2309303">
  <ele>1595.57</ele>
  <time>2026-08-27T18:29:45Z</time>
  <course>35.02</course>
  <speed>0.01</speed>
  <fix>3d</fix>
</trkpt>
<trkpt lat="40.0728682" lon="-105.2309303">
  <ele>1595.45</ele>
  <time>2026-08-27T18:29:45Z</time>
  <course>344.52</course>
  <speed>0.03</speed>
  <fix>3d</fix>
</trkpt>
<trkpt lat="40.0728681" lon="-105.2309303">
  <ele>1595.57</ele>
  <time>2026-08-27T18:29:45Z</time>
  <course>36.17</course>
  <speed>0.0</speed>
  <fix>3d</fix>
</trkpt>
<trkpt lat="40.0728682" lon="-105.2309304">
  <ele>1595.45</ele>
  <time>2026-08-27T18:29:45Z</time>
  <course>344.78</course>
  <speed>0.03</speed>
  <fix>3d</fix>
</trkpt>
<trkpt lat="40.0728681" lon="-105.2309303">
  <ele>1595.57</ele>
  <time>2026-08-27T18:29:45Z</time>
  <course>36.92</course>
  <speed>0.0</speed>
  <fix>3d</fix>
</trkpt>
<trkpt lat="40.0728683" lon="-105.2309305">
  <ele>1595.44</ele>
  <time>2026-08-27T18:29:45Z</time>
  <course>346.39</course>
  <speed>0.03</speed>
  <fix>3d</fix>
</trkpt>
<trkpt lat="40.0728682" lon="-105.2309303">
  <ele>1595.57</ele>
  <time>2026-08-27T18:29:45Z</time>
  <course>37.21</course>
  <speed>0.0</speed>
  <fix>3d</fix>
</trkpt>
<trkpt lat="40.0728684" lon="-105.2309305">
  <ele>1595.44</ele>
  <time>2026-08-27T18:29:45Z</time>
  <course>349.49</course>
  <speed>0.02</speed>
  <fix>3d</fix>
</trkpt>
<trkpt lat="40.0728682" lon="-105.2309303">
  <ele>1595.56</ele>
  <time>2026-08-27T18:29:45Z</time>
  <course>37.03</course>
  <speed>0.0</speed>
  <fix>3d</fix>
</trkpt>
<trkpt lat="40.0728684" lon="-105.2309305">
  <ele>1595.44</ele>
  <time>2026-08-27T18:29:45Z</time>
  <course>354.55</course>
  <speed>0.02</speed>
  <fix>3d</fix>
</trkpt>
<trkpt lat="40.0728683" lon="-105.2309303">
  <ele>1595.56</ele>
  <time>2026-08-27T18:29:45Z</time>
  <course>36.38</course>
  <speed>0.01</speed>
  <fix>3d</fix>
</trkpt>
<trkpt lat="40.0728685" lon="-105.2309305">
  <ele>1595.44</ele>
  <time>2026-08-27T18:29:45Z</time>
  <course>0.19</course>
  <speed>0.02</speed>
  <fix>3d</fix>
</trkpt>
<trkpt lat="40.0728683" lon="-105.2309303">
  <ele>1595.55</ele>
  <time>2026-08-27T18:29:45Z</time>
  <course>35.28</course>
  <speed>0.01</speed>
  <fix>3d</fix>
</trkpt>
<trkpt lat="40.0728685" lon="-105.2309305">
  <ele>1595.44</ele>
  <time>2026-08-27T18:29:45Z</time>
  <course>4.89</course>
  <speed>0.02</speed>
  <fix>3d</fix>
</trkpt>
<trkpt lat="40.0728684" lon="-105.2309303">
  <ele>1595.55</ele>
  <time>2026-08-27T18:29:45Z</time>
  <course>33.95</course>
  <speed>0.01</speed>
  <fix>3d</fix>
</trkpt>
<trkpt lat="40.0728686" lon="-105.2309305">
  <ele>1595.43</ele>
  <time>2026-08-27T18:29:45Z</time>
  <course>7.36</course>
  <speed>0.02</speed>
  <fix>3d</fix>
</trkpt>
<trkpt lat="40.0728684" lon="-105.2309303">
  <ele>1595.55</ele>
  <time>2026-08-27T18:29:45Z</time>
  <course>32.44</course>
  <speed>0.01</speed>
  <fix>3d</fix>
</trkpt>
<trkpt lat="40.0728686" lon="-105.2309305">
  <ele>1595.43</ele>
  <time>2026-08-27T18:29:45Z</time>
  <course>8.3</course>
  <speed>0.02</speed>
  <fix>3d</fix>
</trkpt>
<trkpt lat="40.0728685" lon="-105.2309303">
  <ele>1595.55</ele>
  <time>2026-08-27T18:29:45Z</time>
  <course>30.92</course>
  <speed>0.01</speed>
  <fix>3d</fix>
</trkpt>
<trkpt lat="40.0728687" lon="-105.2309305">
  <ele>1595.44</ele>
  <time>2026-08-27T18:29:45Z</time>
  <course>8.7</course>
  <speed>0.03</speed>
  <fix>3d</fix>
</trkpt>
<trkpt lat="40.0728685" lon="-105.2309303">
  <ele>1595.55</ele>
  <time>2026-08-27T18:29:45Z</time>
  <course>29.52</course>
  <speed>0.01414213562373095</speed>
  <fix>3d</fix>
</trkpt>
<trkpt lat="40.0728687" lon="-105.2309305">
  <ele>1595.44</ele>
  <time>2026-08-27T18:29:45Z</time>
  <course>7.28</course>
  <speed>0.03</speed>
  <fix>3d</fix>
</trkpt>
<trkpt lat="40.0728686" lon="-105.2309303">
  <ele>1595.56</ele>
  <time>2026-08-27T18:29:45Z</time>
  <course>28.42</course>
  <speed>0.01</speed>
  <fix>3d</fix>
</trkpt>
<trkpt lat="40.0728687" lon="-105.2309305">
  <ele>1595.44</ele>
  <time>2026-08-27T18:29:45Z</time>
  <course>4.57</course>
  <speed>0.03</speed>
  <fix>3d</fix>
</trkpt>
<trkpt lat="40.0728687" lon="-105.2309303">
  <ele>1595.56</ele>
  <time>2026-08-27T18:29:45Z</time>
  <course>27.68</course>
  <speed>0.01</speed>
  <fix>3d</fix>
</trkpt>
<trkpt lat="40.0728688" lon="-105.2309305">
  <ele>1595.44</ele>
  <time>2026-08-27T18:29:45Z</time>
  <course>1.14</course>
  <speed>0.03</speed>
  <fix>3d</fix>
</trkpt>
<trkpt lat="40.0728687" lon="-105.2309303">
  <ele>1595.56</ele>
  <time>2026-08-27T18:29:45Z</time>
  <course>27.4</course>
  <speed>0.01</speed>
  <fix>3d</fix>
</trkpt>
<trkpt lat="40.0728689" lon="-105.2309305">
  <ele>1595.44</ele>
  <time>2026-08-27T18:29:45Z</time>
  <course>357.0</course>
  <speed>0.03</speed>
  <fix>3d</fix>
</trkpt>
<trkpt lat="40.0728688" lon="-105.2309303">
  <ele>1595.55</ele>
  <time>2026-08-27T18:29:45Z</time>
  <course>27.58</course>
  <speed>0.01</speed>
  <fix>3d</fix>
</trkpt>
<trkpt lat="40.072869" lon="-105.2309305">
  <ele>1595.44</ele>
  <time>2026-08-27T18:29:45Z</time>
  <course>352.93</course>
  <speed>0.03</speed>
  <fix>3d</fix>
</trkpt>
<trkpt lat="40.0728689" lon="-105.2309304">
  <ele>1595.55</ele>
  <time>2026-08-27T18:29:45Z</time>
  <course>28.22</course>
  <speed>0.01</speed>
  <fix>3d</fix>
</trkpt>
<trkpt lat="40.072869" lon="-105.2309305">
  <ele>1595.44</ele>
  <time>2026-08-27T18:29:45Z</time>
  <course>349.24</course>
  <speed>0.03</speed>
  <fix>3d</fix>
</trkpt>
<trkpt lat="40.0728689" lon="-105.2309304">
  <ele>1595.55</ele>
  <time>2026-08-27T18:29:45Z</time>
  <course>29.27</course>
  <speed>0.01</speed>
  <fix>3d</fix>
</trkpt>
<trkpt lat="40.0728691" lon="-105.2309305">
  <ele>1595.44</ele>
  <time>2026-08-27T18:29:45Z</time>
  <course>346.11</course>
  <speed>0.03</speed>
  <fix>3d</fix>
</trkpt>
<trkpt lat="40.072869" lon="-105.2309304">
  <ele>1595.55</ele>
  <time>2026-08-27T18:29:45Z</time>
  <course>30.6</course>
  <speed>0.01</speed>
  <fix>3d</fix>
</trkpt>
<trkpt lat="40.0728692" lon="-105.2309305">
  <ele>1595.44</ele>
  <time>2026-08-27T18:29:45Z</time>
  <course>344.13</course>
  <speed>0.03</speed>
  <fix>3d</fix>
</trkpt>
<trkpt lat="40.0728691" lon="-105.2309304">
  <ele>1595.54</ele>
  <time>2026-08-27T18:29:45Z</time>
  <course>32.06</course>
  <speed>0.01</speed>
  <fix>3d</fix>
</trkpt>
<trkpt lat="40.0728692" lon="-105.2309305">
  <ele>1595.45</ele>
  <time>2026-08-27T18:29:45Z</time>
  <course>342.99</course>
  <speed>0.03</speed>
  <fix>3d</fix>
</trkpt>
<trkpt lat="40.0728691" lon="-105.2309305">
  <ele>1595.54</ele>
  <time>2026-08-27T18:29:45Z</time>
  <course>33.58</course>
  <speed>0.01</speed>
  <fix>3d</fix>
</trkpt>
<trkpt lat="40.0728693" lon="-105.2309305">
  <ele>1595.45</ele>
  <time>2026-08-27T18:29:45Z</time>
  <course>342.18</course>
  <speed>0.03</speed>
  <fix>3d</fix>
</trkpt>
<trkpt lat="40.0728692" lon="-105.2309305">
  <ele>1595.54</ele>
  <time>2026-08-27T18:29:45Z</time>
  <course>34.98</course>
  <speed>0.0</speed>
  <fix>3d</fix>
</trkpt>
<trkpt lat="40.0728693" lon="-105.2309305">
  <ele>1595.45</ele>
  <time>2026-08-27T18:29:45Z</time>
  <course>342.16</course>
  <speed>0.03</speed>
  <fix>3d</fix>
</trkpt>
<trkpt lat="40.0728692" lon="-105.2309305">
  <ele>1595.55</ele>
  <time>2026-08-27T18:29:45Z</time>
  <course>36.12</course>
  <speed>0.0</speed>
  <fix>3d</fix>
</trkpt>
<trkpt lat="40.0728694" lon="-105.2309305">
  <ele>1595.45</ele>
  <time>2026-08-27T18:29:45Z</time>
  <course>343.24</course>
  <speed>0.03</speed>
  <fix>3d</fix>
</trkpt>
<trkpt lat="40.0728693" lon="-105.2309305">
  <ele>1595.55</ele>
  <time>2026-08-27T18:29:45Z</time>
  <course>36.87</course>
  <speed>0.0</speed>
  <fix>3d</fix>
</trkpt>
<trkpt lat="40.0728694" lon="-105.2309306">
  <ele>1595.46</ele>
  <time>2026-08-27T18:29:45Z</time>
  <course>345.7</course>
  <speed>0.03</speed>
  <fix>3d</fix>
</trkpt>
<trkpt lat="40.0728693" lon="-105.2309305">
  <ele>1595.55</ele>
  <time>2026-08-27T18:29:45Z</time>
  <course>37.17</course>
  <speed>0.0</speed>
  <fix>3d</fix>
</trkpt>
<trkpt lat="40.0728695" lon="-105.2309307">
  <ele>1595.46</ele>
  <time>2026-08-27T18:29:45Z</time>
  <course>349.27</course>
  <speed>0.02</speed>
  <fix>3d</fix>
</trkpt>
<trkpt lat="40.0728694" lon="-105.2309305">
  <ele>1595.55</ele>
  <time>2026-08-27T18:29:45Z</time>
  <course>36.98</course>
  <speed>0.0</speed>
  <fix>3d</fix>
</trkpt>
<trkpt lat="40.0728696" lon="-105.2309307">
  <ele>1595.46</ele>
  <time>2026-08-27T18:29:45Z</time>
  <course>353.16</course>
  <speed>0.02</speed>
  <fix>3d</fix>
</trkpt>
<trkpt lat="40.0728694" lon="-105.2309305">
  <ele>1595.56</ele>
  <time>2026-08-27T18:29:45Z</time>
  <course>36.33</course>
  <speed>0.0</speed>
  <fix>3d</fix>
</trkpt>
<trkpt lat="40.0728696" lon="-105.2309307">
  <ele>1595.47</ele>
  <time>2026-08-27T18:29:45Z</time>
  <course>356.95</course>
  <speed>0.02</speed>
  <fix>3d</fix>
</trkpt>
<trkpt lat="40.0728695" lon="-105.2309305">
  <ele>1595.56</ele>
  <time>2026-08-27T18:29:45Z</time>
  <course>35.28</course>
  <speed>0.01</speed>
  <fix>3d</fix>
</trkpt>
<trkpt lat="40.0728697" lon="-105.2309307">
  <ele>1595.47</ele>
  <time>2026-08-27T18:29:45Z</time>
  <course>0.5</course>
  <speed>0.02</speed>
  <fix>3d</fix>
</trkpt>
<trkpt lat="40.0728695" lon="-105.2309305">
  <ele>1595.56</ele>
  <time>2026-08-27T18:29:45Z</time>
  <course>33.96</course>
  <speed>0.01</speed>
  <fix>3d</fix>
</trkpt>
<trkpt lat="40.0728697" lon="-105.2309307">
  <ele>1595.47</ele>
  <time>2026-08-27T18:29:45Z</time>
  <course>3.14</course>
  <speed>0.02</speed>
  <fix>3d</fix>
</trkpt>
<trkpt lat="40.0728696" lon="-105.2309305">
  <ele>1595.57</ele>
  <time>2026-08-27T18:29:45Z</time>
  <course>32.46</course>
  <speed>0.01</speed>
  <fix>3d</fix>
</trkpt>
<trkpt lat="40.0728698" lon="-105.2309307">
  <ele>1595.47</ele>
  <time>2026-08-27T18:29:45Z</time>
  <course>4.3</course>
  <speed>0.02</speed>
  <fix>3d</fix>
</trkpt>
<trkpt lat="40.0728696" lon="-105.2309305">
  <ele>1595.57</ele>
  <time>2026-08-27T18:29:45Z</time>
  <course>30.97</course>
  <speed>0.01</speed>
  <fix>3d</fix>
</trkpt>
<trkpt lat="40.0728698" lon="-105.2309307">
  <ele>1595.47</ele>
  <time>2026-08-27T18:29:45Z</time>
  <course>3.48</course>
  <speed>0.03</speed>
  <fix>3d</fix>
</trkpt>
<trkpt lat="40.0728697" lon="-105.2309305">
  <ele>1595.57</ele>
  <time>2026-08-27T18:29:45Z</time>
  <course>29.58</course>
  <speed>0.01</speed>
  <fix>3d</fix>
</trkpt>
<trkpt lat="40.0728699" lon="-105.2309307">
  <ele>1595.48</ele>
  <time>2026-08-27T18:29:45Z</time>
  <course>1.54</course>
  <speed>0.03</speed>
  <fix>3d</fix>
</trkpt>
<trkpt lat="40.0728698" lon="-105.2309305">
  <ele>1595.56</ele>
  <time>2026-08-27T18:29:45Z</time>
  <course>28.45</course>
  <speed>0.01</speed>
  <fix>3d</fix>
</trkpt>
<trkpt lat="40.0728699" lon="-105.2309307">
  <ele>1595.47</ele>
  <time>2026-08-27T18:29:45Z</time>
  <course>359.05</course>
  <speed>0.03</speed>
  <fix>3d</fix>
</trkpt>
<trkpt lat="40.0728698" lon="-105.2309305">
  <ele>1595.56</ele>
  <time>2026-08-27T18:29:45Z</time>
  <course>27.7</course>
  <speed>0.01</speed>
  <fix>3d</fix>
</trkpt>
<trkpt lat="40.07287" lon="-105.2309307">
  <ele>1595.47</ele>
  <time>2026-08-27T18:29:45Z</time>
  <course>355.44</course>
  <speed>0.03</speed>
  <fix>3d</fix>
</trkpt>
<trkpt lat="40.0728699" lon="-105.2309306">
  <ele>1595.56</ele>
  <time>2026-08-27T18:29:45Z</time>
  <course>27.39</course>
  <speed>0.01</speed>
  <fix>3d</fix>
</trkpt>
<trkpt lat="40.07287" lon="-105.2309307">
  <ele>1595.47</ele>
  <time>2026-08-27T18:29:45Z</time>
  <course>351.44</course>
  <speed>0.03</speed>
  <fix>3d</fix>
</trkpt>
<trkpt lat="40.0728699" lon="-105.2309306">
  <ele>1595.56</ele>
  <time>2026-08-27T18:29:45Z</time>
  <course>27.37</course>
  <speed>0.01</speed>
  <fix>3d</fix>
</trkpt>
<trkpt lat="40.0728701" lon="-105.2309307">
  <ele>1595.47</ele>
  <time>2026-08-27T18:29:45Z</time>
  <course>348.81</course>
  <speed>0.03</speed>
  <fix>3d</fix>
</trkpt>
<trkpt lat="40.07287" lon="-105.2309306">
  <ele>1595.56</ele>
  <time>2026-08-27T18:29:45Z</time>
  <course>27.37</course>
  <speed>0.01</speed>
  <fix>3d</fix>
</trkpt>
<trkpt lat="40.0728702" lon="-105.2309307">
  <ele>1595.47</ele>
  <time>2026-08-27T18:29:45Z</time>
  <course>349.27</course>
  <speed>0.03</speed>
  <fix>3d</fix>
</trkpt>
<trkpt lat="40.0728701" lon="-105.2309306">
  <ele>1595.56</ele>
  <time>2026-08-27T18:29:45Z</time>
  <course>27.36</course>
  <speed>0.01</speed>
  <fix>3d</fix>
</trkpt>
<trkpt lat="40.0728703" lon="-105.2309307">
  <ele>1595.47</ele>
  <time>2026-08-27T18:29:45Z</time>
  <course>351.5</course>
  <speed>0.03</speed>
  <fix>3d</fix>
</trkpt>
<trkpt lat="40.0728702" lon="-105.2309306">
  <ele>1595.56</ele>
  <time>2026-08-27T18:29:45Z</time>
  <course>27.36</course>
  <speed>0.02</speed>
  <fix>3d</fix>
</trkpt>
<trkpt lat="40.0728703" lon="-105.2309307">
  <ele>1595.47</ele>
  <time>2026-08-27T18:29:45Z</time>
  <course>353.71</course>
  <speed>0.04</speed>
  <fix>3d</fix>
</trkpt>
<trkpt lat="40.0728702" lon="-105.2309306">
  <ele>1595.56</ele>
  <time>2026-08-27T18:29:45Z</time>
  <course>27.36</course>
  <speed>0.02</speed>
  <fix>3d</fix>
</trkpt>
<trkpt lat="40.0728704" lon="-105.2309307">
  <ele>1595.47</ele>
  <time>2026-08-27T18:29:45Z</time>
  <course>355.72</course>
  <speed>0.04</speed>
  <fix>3d</fix>
</trkpt>
<trkpt lat="40.0728703" lon="-105.2309306">
  <ele>1595.56</ele>
  <time>2026-08-27T18:29:45Z</time>
  <course>27.36</course>
  <speed>0.02</speed>
  <fix>3d</fix>
</trkpt>
<trkpt lat="40.0728705" lon="-105.2309307">
  <ele>1595.47</ele>
  <time>2026-08-27T18:29:45Z</time>
  <course>357.24</course>
  <speed>0.04</speed>
  <fix>3d</fix>
</trkpt>
<trkpt lat="40.0728704" lon="-105.2309306">
  <ele>1595.56</ele>
  <time>2026-08-27T18:29:45Z</time>
  <course>27.36</course>
  <speed>0.02</speed>
  <fix>3d</fix>
</trkpt>
<trkpt lat="40.0728706" lon="-105.2309307">
  <ele>1595.47</ele>
  <time>2026-08-27T18:29:45Z</time>
  <course>358.18</course>
  <speed>0.04</speed>
  <fix>3d</fix>
</trkpt>
<trkpt lat="40.0728705" lon="-105.2309306">
  <ele>1595.56</ele>
  <time>2026-08-27T18:29:45Z</time>
  <course>27.36</course>
  <speed>0.02</speed>
  <fix>3d</fix>
</trkpt>
<trkpt lat="40.0728706" lon="-105.2309308">
  <ele>1595.47</ele>
  <time>2026-08-27T18:29:45Z</time>
  <course>358.91</course>
  <speed>0.04</speed>
  <fix>3d</fix>
</trkpt>
<trkpt lat="40.0728706" lon="-105.2309306">
  <ele>1595.56</ele>
  <time>2026-08-27T18:29:45Z</time>
  <course>27.36</course>
  <speed>0.03</speed>
  <fix>3d</fix>
</trkpt>
<trkpt lat="40.0728707" lon="-105.2309308">
  <ele>1595.48</ele>
  <time>2026-08-27T18:29:45Z</time>
  <course>359.6</course>
  <speed>0.05</speed>
  <fix>3d</fix>
</trkpt>
<trkpt lat="40.0728707" lon="-105.2309306">
  <ele>1595.55</ele>
  <time>2026-08-27T18:29:45Z</time>
  <course>27.36</course>
  <speed>0.0316227766016838</speed>
  <fix>3d</fix>
</trkpt>
<trkpt lat="40.0728708" lon="-105.2309308">
  <ele>1595.48</ele>
  <time>2026-08-27T18:29:45Z</time>
  <course>0.22</course>
  <speed>0.05</speed>
  <fix>3d</fix>
</trkpt>
<trkpt lat="40.0728708" lon="-105.2309306">
  <ele>1595.55</ele>
  <time>2026-08-27T18:29:45Z</time>
  <course>27.34</course>
  <speed>0.0316227766016838</speed>
  <fix>3d</fix>
</trkpt>
<trkpt lat="40.0728709" lon="-105.2309308">
  <ele>1595.48</ele>
  <time>2026-08-27T18:29:45Z</time>
  <course>0.78</course>
  <speed>0.05</speed>
  <fix>3d</fix>
</trkpt>
<trkpt lat="40.0728709" lon="-105.2309306">
  <ele>1595.55</ele>
  <time>2026-08-27T18:29:45Z</time>
  <course>27.34</course>
  <speed>0.0316227766016838</speed>
  <fix>3d</fix>
</trkpt>
<trkpt lat="40.072871" lon="-105.2309308">
  <ele>1595.48</ele>
  <time>2026-08-27T18:29:45Z</time>
  <course>1.24</course>
  <speed>0.05</speed>
  <fix>3d</fix>
</trkpt>
<trkpt lat="40.072871" lon="-105.2309306">
  <ele>1595.56</ele>
  <time>2026-08-27T18:29:45Z</time>
  <course>27.36</course>
  <speed>0.0316227766016838</speed>
  <fix>3d</fix>
</trkpt>
<trkpt lat="40.0728711" lon="-105.2309308">
  <ele>1595.48</ele>
  <time>2026-08-27T18:29:45Z</time>
  <course>1.6</course>
  <speed>0.05</speed>
  <fix>3d</fix>
</trkpt>
<trkpt lat="40.0728711" lon="-105.2309306">
  <ele>1595.56</ele>
  <time>2026-08-27T18:29:45Z</time>
  <course>27.37</course>
  <speed>0.0316227766016838</speed>
  <fix>3d</fix>
</trkpt>
<trkpt lat="40.0728712" lon="-105.2309308">
  <ele>1595.48</ele>
  <time>2026-08-27T18:29:45Z</time>
  <course>2.13</course>
  <speed>0.05</speed>
  <fix>3d</fix>
</trkpt>
<trkpt lat="40.0728712" lon="-105.2309306">
  <ele>1595.57</ele>
  <time>2026-08-27T18:29:45Z</time>
  <course>27.37</course>
  <speed>0.0316227766016838</speed>
  <fix>3d</fix>
</trkpt>
<trkpt lat="40.0728713" lon="-105.2309308">
  <ele>1595.48</ele>
  <time>2026-08-27T18:29:45Z</time>
  <course>2.85</course>
  <speed>0.05</speed>
  <fix>3d</fix>
</trkpt>
<trkpt lat="40.0728713" lon="-105.2309306">
  <ele>1595.57</ele>
  <time>2026-08-27T18:29:45Z</time>
  <course>27.37</course>
  <speed>0.0412310562561766</speed>
  <fix>3d</fix>
</trkpt>
<trkpt lat="40.0728714" lon="-105.2309308">
  <ele>1595.49</ele>
  <time>2026-08-27T18:29:45Z</time>
  <course>3.53</course>
  <speed>0.06</speed>
  <fix>3d</fix>
</trkpt>
<trkpt lat="40.0728714" lon="-105.2309306">
  <ele>1595.57</ele>
  <time>2026-08-27T18:29:45Z</time>
  <course>27.35</course>
  <speed>0.0412310562561766</speed>
  <fix>3d</fix>
</trkpt>
<trkpt lat="40.0728716" lon="-105.2309308">
  <ele>1595.49</ele>
  <time>2026-08-27T18:29:45Z</time>
  <course>4.15</course>
  <speed>0.06</speed>
  <fix>3d</fix>
</trkpt>
<trkpt lat="40.0728715" lon="-105.2309306">
  <ele>1595.57</ele>
  <time>2026-08-27T18:29:45Z</time>
  <course>26.62</course>
  <speed>0.0412310562561766</speed>
  <fix>3d</fix>
</trkpt>
<trkpt lat="40.0728717" lon="-105.2309308">
  <ele>1595.49</ele>
  <time>2026-08-27T18:29:45Z</time>
  <course>6.54</course>
  <speed>0.06</speed>
  <fix>3d</fix>
</trkpt>
<trkpt lat="40.0728716" lon="-105.2309306">
  <ele>1595.57</ele>
  <time>2026-08-27T18:29:45Z</time>
  <course>25.3</course>
  <speed>0.0412310562561766</speed>
  <fix>3d</fix>
</trkpt>
<trkpt lat="40.0728718" lon="-105.2309308">
  <ele>1595.49</ele>
  <time>2026-08-27T18:29:45Z</time>
  <course>9.28</course>
  <speed>0.06</speed>
  <fix>3d</fix>
</trkpt>
<trkpt lat="40.0728717" lon="-105.2309306">
  <ele>1595.57</ele>
  <time>2026-08-27T18:29:45Z</time>
  <course>24.05</course>
  <speed>0.0316227766016838</speed>
  <fix>3d</fix>
</trkpt>
<trkpt lat="40.0728719" lon="-105.2309307">
  <ele>1595.49</ele>
  <time>2026-08-27T18:29:45Z</time>
  <course>9.48</course>
  <speed>0.06</speed>
  <fix>3d</fix>
</trkpt>
<trkpt lat="40.0728719" lon="-105.2309306">
  <ele>1595.57</ele>
  <time>2026-08-27T18:29:45Z</time>
  <course>23.11</course>
  <speed>0.0316227766016838</speed>
  <fix>3d</fix>
</trkpt>
<trkpt lat="40.072872" lon="-105.2309307">
  <ele>1595.49</ele>
  <time>2026-08-27T18:29:45Z</time>
  <course>7.68</course>
  <speed>0.05</speed>
  <fix>3d</fix>
</trkpt>
<trkpt lat="40.072872" lon="-105.2309306">
  <ele>1595.57</ele>
  <time>2026-08-27T18:29:45Z</time>
  <course>22.56</course>
  <speed>0.0316227766016838</speed>
  <fix>3d</fix>
</trkpt>
<trkpt lat="40.0728721" lon="-105.2309307">
  <ele>1595.48</ele>
  <time>2026-08-27T18:29:45Z</time>
  <course>4.96</course>
  <speed>0.05</speed>
  <fix>3d</fix>
</trkpt>
<trkpt lat="40.0728721" lon="-105.2309306">
  <ele>1595.57</ele>
  <time>2026-08-27T18:29:45Z</time>
  <course>22.55</course>
  <speed>0.02</speed>
  <fix>3d</fix>
</trkpt>
<trkpt lat="40.0728722" lon="-105.2309307">
  <ele>1595.48</ele>
  <time>2026-08-27T18:29:45Z</time>
  <course>1.51</course>
  <speed>0.05</speed>
  <fix>3d</fix>
</trkpt>
<trkpt lat="40.0728721" lon="-105.2309306">
  <ele>1595.58</ele>
  <time>2026-08-27T18:29:45Z</time>
  <course>22.97</course>
  <speed>0.02</speed>
  <fix>3d</fix>
</trkpt>
<trkpt lat="40.0728723" lon="-105.2309307">
  <ele>1595.48</ele>
  <time>2026-08-27T18:29:45Z</time>
  <course>357.2</course>
  <speed>0.04</speed>
  <fix>3d</fix>
</trkpt>
<trkpt lat="40.0728722" lon="-105.2309306">
  <ele>1595.58</ele>
  <time>2026-08-27T18:29:45Z</time>
  <course>23.82</course>
  <speed>0.02</speed>
  <fix>3d</fix>
</trkpt>
<trkpt lat="40.0728724" lon="-105.2309307">
  <ele>1595.48</ele>
  <time>2026-08-27T18:29:45Z</time>
  <course>352.76</course>
  <speed>0.04</speed>
  <fix>3d</fix>
</trkpt>
<trkpt lat="40.0728723" lon="-105.2309306">
  <ele>1595.58</ele>
  <time>2026-08-27T18:29:45Z</time>
  <course>25.03</course>
  <speed>0.01</speed>
  <fix>3d</fix>
</trkpt>
<trkpt lat="40.0728724" lon="-105.2309307">
  <ele>1595.48</ele>
  <time>2026-08-27T18:29:45Z</time>
  <course>348.28</course>
  <speed>0.04</speed>
  <fix>3d</fix>
</trkpt>
<trkpt lat="40.0728724" lon="-105.2309306">
  <ele>1595.57</ele>
  <time>2026-08-27T18:29:45Z</time>
  <course>26.47</course>
  <speed>0.01</speed>
  <fix>3d</fix>
</trkpt>
<trkpt lat="40.0728725" lon="-105.2309307">
  <ele>1595.47</ele>
  <time>2026-08-27T18:29:45Z</time>
  <course>344.14</course>
  <speed>0.03</speed>
  <fix>3d</fix>
</trkpt>
<trkpt lat="40.0728724" lon="-105.2309306">
  <ele>1595.56</ele>
  <time>2026-08-27T18:29:45Z</time>
  <course>27.99</course>
  <speed>0.0</speed>
  <fix>3d</fix>
</trkpt>
<trkpt lat="40.0728726" lon="-105.2309307">
  <ele>1595.47</ele>
  <time>2026-08-27T18:29:45Z</time>
  <course>340.69</course>
  <speed>0.03</speed>
  <fix>3d</fix>
</trkpt>
<trkpt lat="40.0728725" lon="-105.2309306">
  <ele>1595.56</ele>
  <time>2026-08-27T18:29:45Z</time>
  <course>29.44</course>
  <speed>0.0</speed>
  <fix>3d</fix>
</trkpt>
<trkpt lat="40.0728727" lon="-105.2309307">
  <ele>1595.47</ele>
  <time>2026-08-27T18:29:45Z</time>
  <course>337.72</course>
  <speed>0.03</speed>
  <fix>3d</fix>
</trkpt>
<trkpt lat="40.0728725" lon="-105.2309307">
  <ele>1595.56</ele>
  <time>2026-08-27T18:29:45Z</time>
  <course>30.7</course>
  <speed>0.0</speed>
  <fix>3d</fix>
</trkpt>
<trkpt lat="40.0728727" lon="-105.2309307">
  <ele>1595.46</ele>
  <time>2026-08-27T18:29:45Z</time>
  <course>335.86</course>
  <speed>0.02</speed>
  <fix>3d</fix>
</trkpt>
<trkpt lat="40.0728726" lon="-105.2309307">
  <ele>1595.56</ele>
  <time>2026-08-27T18:29:45Z</time>
  <course>31.66</course>
  <speed>0.0</speed>
  <fix>3d</fix>
</trkpt>
<trkpt lat="40.0728728" lon="-105.2309308">
  <ele>1595.46</ele>
  <time>2026-08-27T18:29:45Z</time>
  <course>335.89</course>
  <speed>0.02</speed>
  <fix>3d</fix>
</trkpt>
<trkpt lat="40.0728726" lon="-105.2309307">
  <ele>1595.56</ele>
  <time>2026-08-27T18:29:45Z</time>
  <course>32.19</course>
  <speed>0.0</speed>
  <fix>3d</fix>
</trkpt>
<trkpt lat="40.0728728" lon="-105.2309308">
  <ele>1595.46</ele>
  <time>2026-08-27T18:29:45Z</time>
  <course>338.51</course>
  <speed>0.02</speed>
  <fix>3d</fix>
</trkpt>
<trkpt lat="40.0728727" lon="-105.2309307">
  <ele>1595.56</ele>
  <time>2026-08-27T18:29:45Z</time>
  <course>32.24</course>
  <speed>0.0</speed>
  <fix>3d</fix>
</trkpt>
<trkpt lat="40.0728728" lon="-105.2309308">
  <ele>1595.46</ele>
  <time>2026-08-27T18:29:45Z</time>
  <course>343.72</course>
  <speed>0.02</speed>
  <fix>3d</fix>
</trkpt>
<trkpt lat="40.0728727" lon="-105.2309307">
  <ele>1595.56</ele>
  <time>2026-08-27T18:29:45Z</time>
  <course>31.8</course>
  <speed>0.0</speed>
  <fix>3d</fix>
</trkpt>
<trkpt lat="40.0728729" lon="-105.2309308">
  <ele>1595.46</ele>
  <time>2026-08-27T18:29:45Z</time>
  <course>349.72</course>
  <speed>0.02</speed>
  <fix>3d</fix>
</trkpt>
<trkpt lat="40.0728727" lon="-105.2309307">
  <ele>1595.56</ele>
  <time>2026-08-27T18:29:45Z</time>
  <course>30.96</course>
  <speed>0.01</speed>
  <fix>3d</fix>
</trkpt>
<trkpt lat="40.0728729" lon="-105.2309308">
  <ele>1595.46</ele>
  <time>2026-08-27T18:29:45Z</time>
  <course>355.22</course>
  <speed>0.02</speed>
  <fix>3d</fix>
</trkpt>
<trkpt lat="40.0728728" lon="-105.2309307">
  <ele>1595.56</ele>
  <time>2026-08-27T18:29:45Z</time>
  <course>29.73</course>
  <speed>0.01</speed>
  <fix>3d</fix>
</trkpt>
<trkpt lat="40.072873" lon="-105.2309308">
  <ele>1595.46</ele>
  <time>2026-08-27T18:29:45Z</time>
  <course>359.51</course>
  <speed>0.02</speed>
  <fix>3d</fix>
</trkpt>
<trkpt lat="40.0728728" lon="-105.2309307">
  <ele>1595.56</ele>
  <time>2026-08-27T18:29:45Z</time>
  <course>28.27</course>
  <speed>0.01</speed>
  <fix>3d</fix>
</trkpt>
<trkpt lat="40.072873" lon="-105.2309308">
  <ele>1595.46</ele>
  <time>2026-08-27T18:29:45Z</time>
  <course>2.01</course>
  <speed>0.02</speed>
  <fix>3d</fix>
</trkpt>
<trkpt lat="40.0728729" lon="-105.2309307">
  <ele>1595.56</ele>
  <time>2026-08-27T18:29:45Z</time>
  <course>26.77</course>
  <speed>0.01</speed>
  <fix>3d</fix>
</trkpt>
<trkpt lat="40.072873" lon="-105.2309308">
  <ele>1595.46</ele>
  <time>2026-08-27T18:29:45Z</time>
  <course>2.07</course>
  <speed>0.02</speed>
  <fix>3d</fix>
</trkpt>
<trkpt lat="40.0728729" lon="-105.2309307">
  <ele>1595.56</ele>
  <time>2026-08-27T18:29:45Z</time>
  <course>25.31</course>
  <speed>0.01414213562373095</speed>
  <fix>3d</fix>
</trkpt>
<trkpt lat="40.0728731" lon="-105.2309308">
  <ele>1595.46</ele>
  <time>2026-08-27T18:29:45Z</time>
  <course>0.4</course>
  <speed>0.03</speed>
  <fix>3d</fix>
</trkpt>
<trkpt lat="40.072873" lon="-105.2309307">
  <ele>1595.56</ele>
  <time>2026-08-27T18:29:45Z</time>
  <course>24.05</course>
  <speed>0.01</speed>
  <fix>3d</fix>
</trkpt>
<trkpt lat="40.0728731" lon="-105.2309308">
  <ele>1595.47</ele>
  <time>2026-08-27T18:29:45Z</time>
  <course>357.13</course>
  <speed>0.03</speed>
  <fix>3d</fix>
</trkpt>
<trkpt lat="40.0728731" lon="-105.2309307">
  <ele>1595.56</ele>
  <time>2026-08-27T18:29:45Z</time>
  <course>23.11</course>
  <speed>0.01</speed>
  <fix>3d</fix>
</trkpt>
<trkpt lat="40.0728732" lon="-105.2309308">
  <ele>1595.47</ele>
  <time>2026-08-27T18:29:45Z</time>
  <course>353.16</course>
  <speed>0.03</speed>
  <fix>3d</fix>
</trkpt>
<trkpt lat="40.0728731" lon="-105.2309307">
  <ele>1595.56</ele>
  <time>2026-08-27T18:29:45Z</time>
  <course>22.57</course>
  <speed>0.01</speed>
  <fix>3d</fix>
</trkpt>
<trkpt lat="40.0728733" lon="-105.2309308">
  <ele>1595.47</ele>
  <time>2026-08-27T18:29:45Z</time>
  <course>349.21</course>
  <speed>0.03</speed>
  <fix>3d</fix>
</trkpt>
<trkpt lat="40.0728732" lon="-105.2309307">
  <ele>1595.56</ele>
  <time>2026-08-27T18:29:45Z</time>
  <course>22.51</course>
  <speed>0.01</speed>
  <fix>3d</fix>
</trkpt>
<trkpt lat="40.0728734" lon="-105.2309308">
  <ele>1595.46</ele>
  <time>2026-08-27T18:29:45Z</time>
  <course>345.11</course>
  <speed>0.03</speed>
  <fix>3d</fix>
</trkpt>
<trkpt lat="40.0728733" lon="-105.2309307">
  <ele>1595.57</ele>
  <time>2026-08-27T18:29:45Z</time>
  <course>22.93</course>
  <speed>0.01</speed>
  <fix>3d</fix>
</trkpt>
<trkpt lat="40.0728734" lon="-105.2309308">
  <ele>1595.46</ele>
  <time>2026-08-27T18:29:45Z</time>
  <course>341.58</course>
  <speed>0.03</speed>
  <fix>3d</fix>
</trkpt>
<trkpt lat="40.0728733" lon="-105.2309307">
  <ele>1595.57</ele>
  <time>2026-08-27T18:29:45Z</time>
  <course>23.8</course>
  <speed>0.01</speed>
  <fix>3d</fix>
</trkpt>
<trkpt lat="40.0728735" lon="-105.2309309">
  <ele>1595.46</ele>
  <time>2026-08-27T18:29:45Z</time>
  <course>338.28</course>
  <speed>0.04</speed>
  <fix>3d</fix>
</trkpt>
<trkpt lat="40.0728734" lon="-105.2309308">
  <ele>1595.56</ele>
  <time>2026-08-27T18:29:45Z</time>
  <course>25.01</course>
  <speed>0.01</speed>
  <fix>3d</fix>
</trkpt>
<trkpt lat="40.0728736" lon="-105.230931">
  <ele>1595.46</ele>
  <time>2026-08-27T18:29:45Z</time>
  <course>335.46</course>
  <speed>0.04</speed>
  <fix>3d</fix>
</trkpt>
<trkpt lat="40.0728735" lon="-105.2309308">
  <ele>1595.57</ele>
  <time>2026-08-27T18:29:45Z</time>
  <course>26.45</course>
  <speed>0.01</speed>
  <fix>3d</fix>
</trkpt>
<trkpt lat="40.0728736" lon="-105.230931">
  <ele>1595.46</ele>
  <time>2026-08-27T18:29:45Z</time>
  <course>333.22</course>
  <speed>0.04</speed>
  <fix>3d</fix>
</trkpt>
<trkpt lat="40.0728735" lon="-105.2309309">
  <ele>1595.56</ele>
  <time>2026-08-27T18:29:45Z</time>
  <course>27.97</course>
  <speed>0.01</speed>
  <fix>3d</fix>
</trkpt>
<trkpt lat="40.0728737" lon="-105.230931">
  <ele>1595.46</ele>
  <time>2026-08-27T18:29:45Z</time>
  <course>332.2</course>
  <speed>0.03</speed>
  <fix>3d</fix>
</trkpt>
<trkpt lat="40.0728736" lon="-105.2309309">
  <ele>1595.56</ele>
  <time>2026-08-27T18:29:45Z</time>
  <course>29.4</course>
  <speed>0.01</speed>
  <fix>3d</fix>
</trkpt>
<trkpt lat="40.0728737" lon="-105.230931">
  <ele>1595.46</ele>
  <time>2026-08-27T18:29:45Z</time>
  <course>332.61</course>
  <speed>0.03</speed>
  <fix>3d</fix>
</trkpt>
<trkpt lat="40.0728736" lon="-105.2309309">
  <ele>1595.55</ele>
  <time>2026-08-27T18:29:45Z</time>
  <course>30.68</course>
  <speed>0.0</speed>
  <fix>3d</fix>
</trkpt>
<trkpt lat="40.0728738" lon="-105.2309311">
  <ele>1595.46</ele>
  <time>2026-08-27T18:29:45Z</time>
  <course>333.34</course>
  <speed>0.03</speed>
  <fix>3d</fix>
</trkpt>
<trkpt lat="40.0728737" lon="-105.230931">
  <ele>1595.55</ele>
  <time>2026-08-27T18:29:45Z</time>
  <course>31.65</course>
  <speed>0.0</speed>
  <fix>3d</fix>
</trkpt>
<trkpt lat="40.0728739" lon="-105.2309312">
  <ele>1595.46</ele>
  <time>2026-08-27T18:29:45Z</time>
  <course>335.01</course>
  <speed>0.03</speed>
  <fix>3d</fix>
</trkpt>
<trkpt lat="40.0728737" lon="-105.230931">
  <ele>1595.55</ele>
  <time>2026-08-27T18:29:45Z</time>
  <course>32.16</course>
  <speed>0.0</speed>
  <fix>3d</fix>
</trkpt>
<trkpt lat="40.0728739" lon="-105.2309312">
  <ele>1595.46</ele>
  <time>2026-08-27T18:29:45Z</time>
  <course>338.55</course>
  <speed>0.03</speed>
  <fix>3d</fix>
</trkpt>
<trkpt lat="40.0728738" lon="-105.230931">
  <ele>1595.55</ele>
  <time>2026-08-27T18:29:45Z</time>
  <course>32.19</course>
  <speed>0.0</speed>
  <fix>3d</fix>
</trkpt>
<trkpt lat="40.072874" lon="-105.2309312">
  <ele>1595.46</ele>
  <time>2026-08-27T18:29:45Z</time>
  <course>344.14</course>
  <speed>0.02</speed>
  <fix>3d</fix>
</trkpt>
<trkpt lat="40.0728738" lon="-105.230931">
  <ele>1595.55</ele>
  <time>2026-08-27T18:29:45Z</time>
  <course>31.77</course>
  <speed>0.0</speed>
  <fix>3d</fix>
</trkpt>
<trkpt lat="40.072874" lon="-105.2309312">
  <ele>1595.46</ele>
  <time>2026-08-27T18:29:45Z</time>
  <course>350.45</course>
  <speed>0.02</speed>
  <fix>3d</fix>
</trkpt>
<trkpt lat="40.0728739" lon="-105.230931">
  <ele>1595.56</ele>
  <time>2026-08-27T18:29:45Z</time>
  <course>30.95</course>
  <speed>0.01</speed>
  <fix>3d</fix>
</trkpt>
<trkpt lat="40.0728741" lon="-105.2309312">
  <ele>1595.46</ele>
  <time>2026-08-27T18:29:45Z</time>
  <course>356.75</course>
  <speed>0.02</speed>
  <fix>3d</fix>
</trkpt>
<trkpt lat="40.0728739" lon="-105.230931">
  <ele>1595.56</ele>
  <time>2026-08-27T18:29:45Z</time>
  <course>29.72</course>
  <speed>0.01</speed>
  <fix>3d</fix>
</trkpt>
<trkpt lat="40.0728741" lon="-105.2309313">
  <ele>1595.46</ele>
  <time>2026-08-27T18:29:45Z</time>
  <course>2.01</course>
  <speed>0.02</speed>
  <fix>3d</fix>
</trkpt>
<trkpt lat="40.072874" lon="-105.2309311">
  <ele>1595.56</ele>
  <time>2026-08-27T18:29:45Z</time>
  <course>28.27</course>
  <speed>0.01</speed>
  <fix>3d</fix>
</trkpt>
<trkpt lat="40.0728742" lon="-105.2309313">
  <ele>1595.47</ele>
  <time>2026-08-27T18:29:45Z</time>
  <course>4.45</course>
  <speed>0.02</speed>
  <fix>3d</fix>
</trkpt>
<trkpt lat="40.072874" lon="-105.2309311">
  <ele>1595.56</ele>
  <time>2026-08-27T18:29:45Z</time>
  <course>26.77</course>
  <speed>0.01414213562373095</speed>
  <fix>3d</fix>
</trkpt>
<trkpt lat="40.0728742" lon="-105.2309313">
  <ele>1595.47</ele>
  <time>2026-08-27T18:29:45Z</time>
  <course>4.32</course>
  <speed>0.03</speed>
  <fix>3d</fix>
</trkpt>
<trkpt lat="40.0728741" lon="-105.2309311">
  <ele>1595.56</ele>
  <time>2026-08-27T18:29:45Z</time>
  <course>25.29</course>
  <speed>0.01414213562373095</speed>
  <fix>3d</fix>
</trkpt>
<trkpt lat="40.0728742" lon="-105.2309313">
  <ele>1595.47</ele>
  <time>2026-08-27T18:29:45Z</time>
  <course>2.75</course>
  <speed>0.03</speed>
  <fix>3d</fix>
</trkpt>
<trkpt lat="40.0728742" lon="-105.2309311">
  <ele>1595.56</ele>
  <time>2026-08-27T18:29:45Z</time>
  <course>24.02</course>
  <speed>0.01</speed>
  <fix>3d</fix>
</trkpt>
<trkpt lat="40.0728743" lon="-105.2309313">
  <ele>1595.47</ele>
  <time>2026-08-27T18:29:45Z</time>
  <course>359.89</course>
  <speed>0.03</speed>
  <fix>3d</fix>
</trkpt>
<trkpt lat="40.0728742" lon="-105.2309311">
  <ele>1595.57</ele>
  <time>2026-08-27T18:29:45Z</time>
  <course>23.1</course>
  <speed>0.01</speed>
  <fix>3d</fix>
</trkpt>
<trkpt lat="40.0728744" lon="-105.2309313">
  <ele>1595.47</ele>
  <time>2026-08-27T18:29:45Z</time>
  <course>356.08</course>
  <speed>0.03</speed>
  <fix>3d</fix>
</trkpt>
<trkpt lat="40.0728743" lon="-105.2309311">
  <ele>1595.57</ele>
  <time>2026-08-27T18:29:45Z</time>
  <course>22.57</course>
  <speed>0.01</speed>
  <fix>3d</fix>
</trkpt>
<trkpt lat="40.0728745" lon="-105.2309313">
  <ele>1595.47</ele>
  <time>2026-08-27T18:29:45Z</time>
  <course>352.04</course>
  <speed>0.03</speed>
  <fix>3d</fix>
</trkpt>
<trkpt lat="40.0728744" lon="-105.2309311">
  <ele>1595.57</ele>
  <time>2026-08-27T18:29:45Z</time>
  <course>22.52</course>
  <speed>0.01</speed>
  <fix>3d</fix>
</trkpt>
<trkpt lat="40.0728745" lon="-105.2309313">
  <ele>1595.47</ele>
  <time>2026-08-27T18:29:45Z</time>
  <course>348.32</course>
  <speed>0.03</speed>
  <fix>3d</fix>
</trkpt>
<trkpt lat="40.0728744" lon="-105.2309312">
  <ele>1595.57</ele>
  <time>2026-08-27T18:29:45Z</time>
  <course>22.96</course>
  <speed>0.01</speed>
  <fix>3d</fix>
</trkpt>
<trkpt lat="40.0728746" lon="-105.2309313">
  <ele>1595.47</ele>
  <time>2026-08-27T18:29:45Z</time>
  <course>345.4</course>
  <speed>0.03</speed>
  <fix>3d</fix>
</trkpt>
<trkpt lat="40.0728745" lon="-105.2309312">
  <ele>1595.57</ele>
  <time>2026-08-27T18:29:45Z</time>
  <course>23.81</course>
  <speed>0.01</speed>
  <fix>3d</fix>
</trkpt>
<trkpt lat="40.0728747" lon="-105.2309313">
  <ele>1595.46</ele>
  <time>2026-08-27T18:29:45Z</time>
  <course>342.78</course>
  <speed>0.03</speed>
  <fix>3d</fix>
</trkpt>
<trkpt lat="40.0728746" lon="-105.2309312">
  <ele>1595.57</ele>
  <time>2026-08-27T18:29:45Z</time>
  <course>25.04</course>
  <speed>0.01</speed>
  <fix>3d</fix>
</trkpt>
<trkpt lat="40.0728747" lon="-105.2309313">
  <ele>1595.46</ele>
  <time>2026-08-27T18:29:45Z</time>
  <course>340.09</course>
  <speed>0.03</speed>
  <fix>3d</fix>
</trkpt>
<trkpt lat="40.0728746" lon="-105.2309312">
  <ele>1595.57</ele>
  <time>2026-08-27T18:29:45Z</time>
  <course>26.48</course>
  <speed>0.01</speed>
  <fix>3d</fix>
</trkpt>
<trkpt lat="40.0728748" lon="-105.2309313">
  <ele>1595.46</ele>
  <time>2026-08-27T18:29:45Z</time>
  <course>338.13</course>
  <speed>0.03</speed>
  <fix>3d</fix>
</trkpt>
<trkpt lat="40.0728747" lon="-105.2309313">
  <ele>1595.56</ele>
  <time>2026-08-27T18:29:45Z</time>
  <course>27.98</course>
  <speed>0.01</speed>
  <fix>3d</fix>
</trkpt>
<trkpt lat="40.0728748" lon="-105.2309313">
  <ele>1595.46</ele>
  <time>2026-08-27T18:29:45Z</time>
  <course>337.83</course>
  <speed>0.03</speed>
  <fix>3d</fix>
</trkpt>
<trkpt lat="40.0728747" lon="-105.2309313">
  <ele>1595.56</ele>
  <time>2026-08-27T18:29:45Z</time>
  <course>29.46</course>
  <speed>0.01</speed>
  <fix>3d</fix>
</trkpt>
<trkpt lat="40.0728749" lon="-105.2309313">
  <ele>1595.45</ele>
  <time>2026-08-27T18:29:45Z</time>
  <course>338.43</course>
  <speed>0.03</speed>
  <fix>3d</fix>
</trkpt>
<trkpt lat="40.0728748" lon="-105.2309313">
  <ele>1595.56</ele>
  <time>2026-08-27T18:29:45Z</time>
  <course>30.7</course>
  <speed>0.0</speed>
  <fix>3d</fix>
</trkpt>
<trkpt lat="40.0728749" lon="-105.2309314">
  <ele>1595.45</ele>
  <time>2026-08-27T18:29:45Z</time>
  <course>339.39</course>
  <speed>0.03</speed>
  <fix>3d</fix>
</trkpt>
<trkpt lat="40.0728748" lon="-105.2309313">
  <ele>1595.55</ele>
  <time>2026-08-27T18:29:45Z</time>
  <course>31.65</course>
  <speed>0.0</speed>
  <fix>3d</fix>
</trkpt>
<trkpt lat="40.072875" lon="-105.2309315">
  <ele>1595.45</ele>
  <time>2026-08-27T18:29:45Z</time>
  <course>341.08</course>
  <speed>0.03</speed>
  <fix>3d</fix>
</trkpt>
<trkpt lat="40.0728749" lon="-105.2309313">
  <ele>1595.55</ele>
  <time>2026-08-27T18:29:45Z</time>
  <course>32.17</course>
  <speed>0.0</speed>
  <fix>3d</fix>
</trkpt>
<trkpt lat="40.0728751" lon="-105.2309315">
  <ele>1595.45</ele>
  <time>2026-08-27T18:29:45Z</time>
  <course>343.85</course>
  <speed>0.03</speed>
  <fix>3d</fix>
</trkpt>
<trkpt lat="40.0728749" lon="-105.2309313">
  <ele>1595.55</ele>
  <time>2026-08-27T18:29:45Z</time>
  <course>32.23</course>
  <speed>0.0</speed>
  <fix>3d</fix>
</trkpt>
<trkpt lat="40.0728752" lon="-105.2309315">
  <ele>1595.45</ele>
  <time>2026-08-27T18:29:45Z</time>
  <course>348.02</course>
  <speed>0.02</speed>
  <fix>3d</fix>
</trkpt>
<trkpt lat="40.072875" lon="-105.2309313">
  <ele>1595.56</ele>
  <time>2026-08-27T18:29:45Z</time>
  <course>31.79</course>
  <speed>0.01</speed>
  <fix>3d</fix>
</trkpt>
<trkpt lat="40.0728752" lon="-105.2309315">
  <ele>1595.45</ele>
  <time>2026-08-27T18:29:45Z</time>
  <course>353.46</course>
  <speed>0.02</speed>
  <fix>3d</fix>
</trkpt>
<trkpt lat="40.0728751" lon="-105.2309313">
  <ele>1595.56</ele>
  <time>2026-08-27T18:29:45Z</time>
  <course>30.94</course>
  <speed>0.01</speed>
  <fix>3d</fix>
</trkpt>
<trkpt lat="40.0728753" lon="-105.2309315">
  <ele>1595.45</ele>
  <time>2026-08-27T18:29:45Z</time>
  <course>358.76</course>
  <speed>0.02</speed>
  <fix>3d</fix>
</trkpt>
<trkpt lat="40.0728751" lon="-105.2309313">
  <ele>1595.56</ele>
  <time>2026-08-27T18:29:45Z</time>
  <course>29.75</course>
  <speed>0.01</speed>
  <fix>3d</fix>
</trkpt>
<trkpt lat="40.0728753" lon="-105.2309315">
  <ele>1595.45</ele>
  <time>2026-08-27T18:29:45Z</time>
  <course>2.62</course>
  <speed>0.02</speed>
  <fix>3d</fix>
</trkpt>
<trkpt lat="40.0728752" lon="-105.2309314">
  <ele>1595.56</ele>
  <time>2026-08-27T18:29:45Z</time>
  <course>28.32</course>
  <speed>0.01</speed>
  <fix>3d</fix>
</trkpt>
<trkpt lat="40.0728754" lon="-105.2309315">
  <ele>1595.46</ele>
  <time>2026-08-27T18:29:45Z</time>
  <course>4.15</course>
  <speed>0.02</speed>
  <fix>3d</fix>
</trkpt>
<trkpt lat="40.0728752" lon="-105.2309314">
  <ele>1595.56</ele>
  <time>2026-08-27T18:29:45Z</time>
  <course>26.79</course>
  <speed>0.01414213562373095</speed>
  <fix>3d</fix>
</trkpt>
<trkpt lat="40.0728754" lon="-105.2309315">
  <ele>1595.46</ele>
  <time>2026-08-27T18:29:45Z</time>
  <course>4.09</course>
  <speed>0.03</speed>
  <fix>3d</fix>
</trkpt>
<trkpt lat="40.0728753" lon="-105.2309314">
  <ele>1595.56</ele>
  <time>2026-08-27T18:29:45Z</time>
  <course>25.32</course>
  <speed>0.01414213562373095</speed>
  <fix>3d</fix>
</trkpt>
<trkpt lat="40.0728754" lon="-105.2309315">
  <ele>1595.46</ele>
  <time>2026-08-27T18:29:45Z</time>
  <course>2.9</course>
  <speed>0.03</speed>
  <fix>3d</fix>
</trkpt>
<trkpt lat="40.0728753" lon="-105.2309314">
  <ele>1595.56</ele>
  <time>2026-08-27T18:29:45Z</time>
  <course>24.01</course>
  <speed>0.01</speed>
  <fix>3d</fix>
</trkpt>
<trkpt lat="40.0728755" lon="-105.2309315">
  <ele>1595.46</ele>
  <time>2026-08-27T18:29:45Z</time>
  <course>0.21</course>
  <speed>0.03</speed>
  <fix>3d</fix>
</trkpt>
<trkpt lat="40.0728754" lon="-105.2309314">
  <ele>1595.56</ele>
  <time>2026-08-27T18:29:45Z</time>
  <course>23.11</course>
  <speed>0.01</speed>
  <fix>3d</fix>
</trkpt>
<trkpt lat="40.0728756" lon="-105.2309315">
  <ele>1595.46</ele>
  <time>2026-08-27T18:29:45Z</time>
  <course>356.34</course>
  <speed>0.03</speed>
  <fix>3d</fix>
</trkpt>
<trkpt lat="40.0728755" lon="-105.2309314">
  <ele>1595.56</ele>
  <time>2026-08-27T18:29:45Z</time>
  <course>22.56</course>
  <speed>0.01</speed>
  <fix>3d</fix>
</trkpt>
<trkpt lat="40.0728757" lon="-105.2309315">
  <ele>1595.46</ele>
  <time>2026-08-27T18:29:45Z</time>
  <course>351.81</course>
  <speed>0.03</speed>
  <fix>3d</fix>
</trkpt>
<trkpt lat="40.0728755" lon="-105.2309314">
  <ele>1595.56</ele>
  <time>2026-08-27T18:29:45Z</time>
  <course>22.5</course>
  <speed>0.01</speed>
  <fix>3d</fix>
</trkpt>
<trkpt lat="40.0728757" lon="-105.2309315">
  <ele>1595.46</ele>
  <time>2026-08-27T18:29:45Z</time>
  <course>346.82</course>
  <speed>0.03</speed>
  <fix>3d</fix>
</trkpt>
<trkpt lat="40.0728756" lon="-105.2309314">
  <ele>1595.57</ele>
  <time>2026-08-27T18:29:45Z</time>
  <course>22.92</course>
  <speed>0.01</speed>
  <fix>3d</fix>
</trkpt>
<trkpt lat="40.0728758" lon="-105.2309315">
  <ele>1595.46</ele>
  <time>2026-08-27T18:29:45Z</time>
  <course>342.32</course>
  <speed>0.03</speed>
  <fix>3d</fix>
</trkpt>
<trkpt lat="40.0728757" lon="-105.2309314">
  <ele>1595.57</ele>
  <time>2026-08-27T18:29:45Z</time>
  <course>23.8</course>
  <speed>0.01</speed>
  <fix>3d</fix>
</trkpt>
<trkpt lat="40.0728759" lon="-105.2309315">
  <ele>1595.46</ele>
  <time>2026-08-27T18:29:45Z</time>
  <course>338.95</course>
  <speed>0.03</speed>
  <fix>3d</fix>
</trkpt>
<trkpt lat="40.0728757" lon="-105.2309315">
  <ele>1595.57</ele>
  <time>2026-08-27T18:29:45Z</time>
  <course>25.03</course>
  <speed>0.01</speed>
  <fix>3d</fix>
</trkpt>
<trkpt lat="40.0728759" lon="-105.2309316">
  <ele>1595.45</ele>
  <time>2026-08-27T18:29:45Z</time>
  <course>336.1</course>
  <speed>0.03</speed>
  <fix>3d</fix>
</trkpt>
<trkpt lat="40.0728758" lon="-105.2309315">
  <ele>1595.57</ele>
  <time>2026-08-27T18:29:45Z</time>
  <course>26.47</course>
  <speed>0.01</speed>
  <fix>3d</fix>
</trkpt>
<trkpt lat="40.072876" lon="-105.2309317">
  <ele>1595.45</ele>
  <time>2026-08-27T18:29:45Z</time>
  <course>334.03</course>
  <speed>0.03</speed>
  <fix>3d</fix>
</trkpt>
<trkpt lat="40.0728759" lon="-105.2309315">
  <ele>1595.56</ele>
  <time>2026-08-27T18:29:45Z</time>
  <course>27.98</course>
  <speed>0.01</speed>
  <fix>3d</fix>
</trkpt>
<trkpt lat="40.072876" lon="-105.2309317">
  <ele>1595.45</ele>
  <time>2026-08-27T18:29:45Z</time>
  <course>332.82</course>
  <speed>0.03</speed>
  <fix>3d</fix>
</trkpt>
<trkpt lat="40.0728759" lon="-105.2309316">
  <ele>1595.56</ele>
  <time>2026-08-27T18:29:45Z</time>
  <course>29.43</course>
  <speed>0.0</speed>
  <fix>3d</fix>
</trkpt>
<trkpt lat="40.0728761" lon="-105.2309317">
  <ele>1595.45</ele>
  <time>2026-08-27T18:29:45Z</time>
  <course>332.47</course>
  <speed>0.03</speed>
  <fix>3d</fix>
</trkpt>
<trkpt lat="40.072876" lon="-105.2309316">
  <ele>1595.56</ele>
  <time>2026-08-27T18:29:45Z</time>
  <course>30.72</course>
  <speed>0.0</speed>
  <fix>3d</fix>
</trkpt>
<trkpt lat="40.0728761" lon="-105.2309317">
  <ele>1595.45</ele>
  <time>2026-08-27T18:29:45Z</time>
  <course>333.32</course>
  <speed>0.03</speed>
  <fix>3d</fix>
</trkpt>
<trkpt lat="40.072876" lon="-105.2309316">
  <ele>1595.56</ele>
  <time>2026-08-27T18:29:45Z</time>
  <course>31.65</course>
  <speed>0.0</speed>
  <fix>3d</fix>
</trkpt>
<trkpt lat="40.0728762" lon="-105.2309318">
  <ele>1595.45</ele>
  <time>2026-08-27T18:29:45Z</time>
  <course>335.75</course>
  <speed>0.03</speed>
  <fix>3d</fix>
</trkpt>
<trkpt lat="40.0728761" lon="-105.2309317">
  <ele>1595.55</ele>
  <time>2026-08-27T18:29:45Z</time>
  <course>32.18</course>
  <speed>0.0</speed>
  <fix>3d</fix>
</trkpt>
<trkpt lat="40.0728763" lon="-105.2309319">
  <ele>1595.45</ele>
  <time>2026-08-27T18:29:46Z</time>
  <course>339.35</course>
  <speed>0.03</speed>
  <fix>3d</fix>
</trkpt>
<trkpt lat="40.0728761" lon="-105.2309317">
  <ele>1595.55</ele>
  <time>2026-08-27T18:29:46Z</time>
  <course>32.24</course>
  <speed>0.0</speed>
  <fix>3d</fix>
</trkpt>
<trkpt lat="40.0728763" lon="-105.2309319">
  <ele>1595.45</ele>
  <time>2026-08-27T18:29:46Z</time>
  <course>343.92</course>
  <speed>0.02</speed>
  <fix>3d</fix>
</trkpt>
<trkpt lat="40.0728762" lon="-105.2309317">
  <ele>1595.54</ele>
  <time>2026-08-27T18:29:46Z</time>
  <course>31.79</course>
  <speed>0.0</speed>
  <fix>3d</fix>
</trkpt>
<trkpt lat="40.0728764" lon="-105.2309319">
  <ele>1595.45</ele>
  <time>2026-08-27T18:29:46Z</time>
  <course>349.33</course>
  <speed>0.02</speed>
  <fix>3d</fix>
</trkpt>
<trkpt lat="40.0728762" lon="-105.2309317">
  <ele>1595.54</ele>
  <time>2026-08-27T18:29:46Z</time>
  <course>30.92</course>
  <speed>0.01</speed>
  <fix>3d</fix>
</trkpt>
<trkpt lat="40.0728764" lon="-105.2309319">
  <ele>1595.45</ele>
  <time>2026-08-27T18:29:46Z</time>
  <course>354.91</course>
  <speed>0.02</speed>
  <fix>3d</fix>
</trkpt>
<trkpt lat="40.0728763" lon="-105.2309317">
  <ele>1595.54</ele>
  <time>2026-08-27T18:29:46Z</time>
  <course>29.69</course>
  <speed>0.01</speed>
  <fix>3d</fix>
</trkpt>
<trkpt lat="40.0728765" lon="-105.2309319">
  <ele>1595.45</ele>
  <time>2026-08-27T18:29:46Z</time>
  <course>359.85</course>
  <speed>0.02</speed>
  <fix>3d</fix>
</trkpt>
<trkpt lat="40.0728763" lon="-105.2309317">
  <ele>1595.54</ele>
  <time>2026-08-27T18:29:46Z</time>
  <course>28.25</course>
  <speed>0.01414213562373095</speed>
  <fix>3d</fix>
</trkpt>
<trkpt lat="40.0728765" lon="-105.2309319">
  <ele>1595.45</ele>
  <time>2026-08-27T18:29:46Z</time>
  <course>2.41</course>
  <speed>0.03</speed>
  <fix>3d</fix>
</trkpt>
<trkpt lat="40.0728764" lon="-105.2309317">
  <ele>1595.54</ele>
  <time>2026-08-27T18:29:46Z</time>
  <course>26.75</course>
  <speed>0.01414213562373095</speed>
  <fix>3d</fix>
</trkpt>
<trkpt lat="40.0728766" lon="-105.2309319">
  <ele>1595.46</ele>
  <time>2026-08-27T18:29:46Z</time>
  <course>2.08</course>
  <speed>0.03</speed>
  <fix>3d</fix>
</trkpt>
<trkpt lat="40.0728765" lon="-105.2309317">
  <ele>1595.55</ele>
  <time>2026-08-27T18:29:46Z</time>
  <course>25.28</course>
  <speed>0.01414213562373095</speed>
  <fix>3d</fix>
</trkpt>
<trkpt lat="40.0728766" lon="-105.2309319">
  <ele>1595.46</ele>
  <time>2026-08-27T18:29:46Z</time>
  <course>0.78</course>
  <speed>0.03</speed>
  <fix>3d</fix>
</trkpt>
<trkpt lat="40.0728765" lon="-105.2309317">
  <ele>1595.56</ele>
  <time>2026-08-27T18:29:46Z</time>
  <course>23.98</course>
  <speed>0.01</speed>
  <fix>3d</fix>
</trkpt>
<trkpt lat="40.0728767" lon="-105.2309319">
  <ele>1595.46</ele>
  <time>2026-08-27T18:29:46Z</time>
  <course>359.13</course>
  <speed>0.03</speed>
  <fix>3d</fix>
</trkpt>
<trkpt lat="40.0728766" lon="-105.2309317">
  <ele>1595.56</ele>
  <time>2026-08-27T18:29:46Z</time>
  <course>23.06</course>
  <speed>0.01</speed>
  <fix>3d</fix>
</trkpt>
<trkpt lat="40.0728767" lon="-105.2309319">
  <ele>1595.47</ele>
  <time>2026-08-27T18:29:46Z</time>
  <course>356.55</course>
  <speed>0.03</speed>
  <fix>3d</fix>
</trkpt>
<trkpt lat="40.0728767" lon="-105.2309317">
  <ele>1595.57</ele>
  <time>2026-08-27T18:29:46Z</time>
  <course>22.57</course>
  <speed>0.01</speed>
  <fix>3d</fix>
</trkpt>
<trkpt lat="40.0728768" lon="-105.2309319">
  <ele>1595.47</ele>
  <time>2026-08-27T18:29:46Z</time>
  <course>353.37</course>
  <speed>0.03</speed>
  <fix>3d</fix>
</trkpt>
<trkpt lat="40.0728767" lon="-105.2309318">
  <ele>1595.57</ele>
  <time>2026-08-27T18:29:46Z</time>
  <course>22.52</course>
  <speed>0.01</speed>
  <fix>3d</fix>
</trkpt>
<trkpt lat="40.0728769" lon="-105.2309319">
  <ele>1595.48</ele>
  <time>2026-08-27T18:29:46Z</time>
  <course>349.88</course>
  <speed>0.03</speed>
  <fix>3d</fix>
</trkpt>
<trkpt lat="40.0728768" lon="-105.2309318">
  <ele>1595.57</ele>
  <time>2026-08-27T18:29:46Z</time>
  <course>22.94</course>
  <speed>0.01</speed>
  <fix>3d</fix>
</trkpt>
<trkpt lat="40.072877" lon="-105.2309319">
  <ele>1595.48</ele>
  <time>2026-08-27T18:29:46Z</time>
  <course>346.72</course>
  <speed>0.03</speed>
  <fix>3d</fix>
</trkpt>
<trkpt lat="40.0728769" lon="-105.2309318">
  <ele>1595.57</ele>
  <time>2026-08-27T18:29:46Z</time>
  <course>23.8</course>
  <speed>0.01</speed>
  <fix>3d</fix>
</trkpt>
<trkpt lat="40.072877" lon="-105.230932">
  <ele>1595.48</ele>
  <time>2026-08-27T18:29:46Z</time>
  <course>343.65</course>
  <speed>0.03</speed>
  <fix>3d</fix>
</trkpt>
<trkpt lat="40.0728769" lon="-105.2309318">
  <ele>1595.57</ele>
  <time>2026-08-27T18:29:46Z</time>
  <course>25.03</course>
  <speed>0.01</speed>
  <fix>3d</fix>
</trkpt>
<trkpt lat="40.0728771" lon="-105.230932">
  <ele>1595.47</ele>
  <time>2026-08-27T18:29:46Z</time>
  <course>340.67</course>
  <speed>0.03</speed>
  <fix>3d</fix>
</trkpt>
<trkpt lat="40.072877" lon="-105.2309319">
  <ele>1595.57</ele>
  <time>2026-08-27T18:29:46Z</time>
  <course>26.47</course>
  <speed>0.01</speed>
  <fix>3d</fix>
</trkpt>
<trkpt lat="40.0728772" lon="-105.230932">
  <ele>1595.47</ele>
  <time>2026-08-27T18:29:46Z</time>
  <course>338.67</course>
  <speed>0.03</speed>
  <fix>3d</fix>
</trkpt>
<trkpt lat="40.0728771" lon="-105.2309319">
  <ele>1595.57</ele>
  <time>2026-08-27T18:29:46Z</time>
  <course>27.99</course>
  <speed>0.01</speed>
  <fix>3d</fix>
</trkpt>
<trkpt lat="40.0728772" lon="-105.230932">
  <ele>1595.47</ele>
  <time>2026-08-27T18:29:46Z</time>
  <course>337.53</course>
  <speed>0.03</speed>
  <fix>3d</fix>
</trkpt>
<trkpt lat="40.0728771" lon="-105.2309319">
  <ele>1595.57</ele>
  <time>2026-08-27T18:29:46Z</time>
  <course>29.45</course>
  <speed>0.01</speed>
  <fix>3d</fix>
</trkpt>
<trkpt lat="40.0728773" lon="-105.230932">
  <ele>1595.47</ele>
  <time>2026-08-27T18:29:46Z</time>
  <course>337.51</course>
  <speed>0.03</speed>
  <fix>3d</fix>
</trkpt>
<trkpt lat="40.0728772" lon="-105.230932">
  <ele>1595.57</ele>
  <time>2026-08-27T18:29:46Z</time>
  <course>30.73</course>
  <speed>0.01</speed>
  <fix>3d</fix>
</trkpt>
<trkpt lat="40.0728773" lon="-105.230932">
  <ele>1595.46</ele>
  <time>2026-08-27T18:29:46Z</time>
  <course>338.4</course>
  <speed>0.03</speed>
  <fix>3d</fix>
</trkpt>
<trkpt lat="40.0728772" lon="-105.230932">
  <ele>1595.56</ele>
  <time>2026-08-27T18:29:46Z</time>
  <course>31.69</course>
  <speed>0.0</speed>
  <fix>3d</fix>
</trkpt>
<trkpt lat="40.0728774" lon="-105.2309321">
  <ele>1595.46</ele>
  <time>2026-08-27T18:29:46Z</time>
  <course>339.84</course>
  <speed>0.03</speed>
  <fix>3d</fix>
</trkpt>
<trkpt lat="40.0728773" lon="-105.230932">
  <ele>1595.56</ele>
  <time>2026-08-27T18:29:46Z</time>
  <course>32.19</course>
  <speed>0.0</speed>
  <fix>3d</fix>
</trkpt>
<trkpt lat="40.0728775" lon="-105.2309322">
  <ele>1595.46</ele>
  <time>2026-08-27T18:29:46Z</time>
  <course>342.38</course>
  <speed>0.03</speed>
  <fix>3d</fix>
</trkpt>
<trkpt lat="40.0728773" lon="-105.230932">
  <ele>1595.56</ele>
  <time>2026-08-27T18:29:46Z</time>
  <course>32.24</course>
  <speed>0.0</speed>
  <fix>3d</fix>
</trkpt>
<trkpt lat="40.0728775" lon="-105.2309322">
  <ele>1595.46</ele>
  <time>2026-08-27T18:29:46Z</time>
  <course>346.6</course>
  <speed>0.03</speed>
  <fix>3d</fix>
</trkpt>
<trkpt lat="40.0728774" lon="-105.230932">
  <ele>1595.56</ele>
  <time>2026-08-27T18:29:46Z</time>
  <course>31.81</course>
  <speed>0.0</speed>
  <fix>3d</fix>
</trkpt>
<trkpt lat="40.0728776" lon="-105.2309322">
  <ele>1595.46</ele>
  <time>2026-08-27T18:29:46Z</time>
  <course>351.81</course>
  <speed>0.02</speed>
  <fix>3d</fix>
</trkpt>
<trkpt lat="40.0728774" lon="-105.230932">
  <ele>1595.56</ele>
  <time>2026-08-27T18:29:46Z</time>
  <course>30.95</course>
  <speed>0.01</speed>
  <fix>3d</fix>
</trkpt>
<trkpt lat="40.0728776" lon="-105.2309322">
  <ele>1595.46</ele>
  <time>2026-08-27T18:29:46Z</time>
  <course>356.38</course>
  <speed>0.02</speed>
  <fix>3d</fix>
</trkpt>
<trkpt lat="40.0728775" lon="-105.230932">
  <ele>1595.57</ele>
  <time>2026-08-27T18:29:46Z</time>
  <course>29.76</course>
  <speed>0.01</speed>
  <fix>3d</fix>
</trkpt>
<trkpt lat="40.0728777" lon="-105.2309322">
  <ele>1595.46</ele>
  <time>2026-08-27T18:29:46Z</time>
  <course>359.46</course>
  <speed>0.02</speed>
  <fix>3d</fix>
</trkpt>
<trkpt lat="40.0728775" lon="-105.230932">
  <ele>1595.57</ele>
  <time>2026-08-27T18:29:46Z</time>
  <course>28.37</course>
  <speed>0.01</speed>
  <fix>3d</fix>
</trkpt>
<trkpt lat="40.0728777" lon="-105.2309322">
  <ele>1595.46</ele>
  <time>2026-08-27T18:29:46Z</time>
  <course>0.94</course>
  <speed>0.02</speed>
  <fix>3d</fix>
</trkpt>
<trkpt lat="40.0728776" lon="-105.230932">
  <ele>1595.57</ele>
  <time>2026-08-27T18:29:46Z</time>
  <course>26.82</course>
  <speed>0.01</speed>
  <fix>3d</fix>
</trkpt>
<trkpt lat="40.0728778" lon="-105.2309322">
  <ele>1595.46</ele>
  <time>2026-08-27T18:29:46Z</time>
  <course>1.39</course>
  <speed>0.03</speed>
  <fix>3d</fix>
</trkpt>
<trkpt lat="40.0728777" lon="-105.230932">
  <ele>1595.57</ele>
  <time>2026-08-27T18:29:46Z</time>
  <course>25.36</course>
  <speed>0.01414213562373095</speed>
  <fix>3d</fix>
</trkpt>
<trkpt lat="40.0728778" lon="-105.2309322">
  <ele>1595.46</ele>
  <time>2026-08-27T18:29:46Z</time>
  <course>0.62</course>
  <speed>0.03</speed>
  <fix>3d</fix>
</trkpt>
<trkpt lat="40.0728777" lon="-105.230932">
  <ele>1595.57</ele>
  <time>2026-08-27T18:29:46Z</time>
  <course>24.08</course>
  <speed>0.01</speed>
  <fix>3d</fix>
</trkpt>
<trkpt lat="40.0728779" lon="-105.2309322">
  <ele>1595.45</ele>
  <time>2026-08-27T18:29:46Z</time>
  <course>358.62</course>
  <speed>0.03</speed>
  <fix>3d</fix>
</trkpt>
<trkpt lat="40.0728778" lon="-105.230932">
  <ele>1595.57</ele>
  <time>2026-08-27T18:29:46Z</time>
  <course>23.12</course>
  <speed>0.01</speed>
  <fix>3d</fix>
</trkpt>
<trkpt lat="40.0728779" lon="-105.2309322">
  <ele>1595.45</ele>
  <time>2026-08-27T18:29:46Z</time>
  <course>355.43</course>
  <speed>0.03</speed>
  <fix>3d</fix>
</trkpt>
<trkpt lat="40.0728778" lon="-105.230932">
  <ele>1595.57</ele>
  <time>2026-08-27T18:29:46Z</time>
  <course>22.57</course>
  <speed>0.01</speed>
  <fix>3d</fix>
</trkpt>
<trkpt lat="40.072878" lon="-105.2309322">
  <ele>1595.45</ele>
  <time>2026-08-27T18:29:46Z</time>
  <course>351.76</course>
  <speed>0.03</speed>
  <fix>3d</fix>
</trkpt>
<trkpt lat="40.0728779" lon="-105.2309321">
  <ele>1595.56</ele>
  <time>2026-08-27T18:29:46Z</time>
  <course>22.49</course>
  <speed>0.01</speed>
  <fix>3d</fix>
</trkpt>
<trkpt lat="40.072878" lon="-105.2309322">
  <ele>1595.45</ele>
  <time>2026-08-27T18:29:46Z</time>
  <course>347.98</course>
  <speed>0.03</speed>
  <fix>3d</fix>
</trkpt>
<trkpt lat="40.072878" lon="-105.2309321">
  <ele>1595.56</ele>
  <time>2026-08-27T18:29:46Z</time>
  <course>22.47</course>
  <speed>0.01</speed>
  <fix>3d</fix>
</trkpt>
<trkpt lat="40.0728781" lon="-105.2309322">
  <ele>1595.44</ele>
  <time>2026-08-27T18:29:46Z</time>
  <course>346.67</course>
  <speed>0.03</speed>
  <fix>3d</fix>
</trkpt>
<trkpt lat="40.072878" lon="-105.2309321">
  <ele>1595.55</ele>
  <time>2026-08-27T18:29:46Z</time>
  <course>22.46</course>
  <speed>0.01</speed>
  <fix>3d</fix>
</trkpt>
<trkpt lat="40.0728782" lon="-105.2309322">
  <ele>1595.44</ele>
  <time>2026-08-27T18:29:46Z</time>
  <course>348.05</course>
  <speed>0.03</speed>
  <fix>3d</fix>
</trkpt>
<trkpt lat="40.0728781" lon="-105.2309321">
  <ele>1595.55</ele>
  <time>2026-08-27T18:29:46Z</time>
  <course>22.45</course>
  <speed>0.01</speed>
  <fix>3d</fix>
</trkpt>
<trkpt lat="40.0728783" lon="-105.2309322">
  <ele>1595.44</ele>
  <time>2026-08-27T18:29:46Z</time>
  <course>349.53</course>
  <speed>0.03</speed>
  <fix>3d</fix>
</trkpt>
<trkpt lat="40.0728782" lon="-105.2309321">
  <ele>1595.55</ele>
  <time>2026-08-27T18:29:46Z</time>
  <course>22.45</course>
  <speed>0.02</speed>
  <fix>3d</fix>
</trkpt>
<trkpt lat="40.0728783" lon="-105.2309322">
  <ele>1595.44</ele>
  <time>2026-08-27T18:29:46Z</time>
  <course>351.26</course>
  <speed>0.04</speed>
  <fix>3d</fix>
</trkpt>
<trkpt lat="40.0728782" lon="-105.2309321">
  <ele>1595.55</ele>
  <time>2026-08-27T18:29:46Z</time>
  <course>22.44</course>
  <speed>0.02</speed>
  <fix>3d</fix>
</trkpt>
<trkpt lat="40.0728784" lon="-105.2309322">
  <ele>1595.44</ele>
  <time>2026-08-27T18:29:46Z</time>
  <course>352.65</course>
  <speed>0.04</speed>
  <fix>3d</fix>
</trkpt>
<trkpt lat="40.0728783" lon="-105.2309321">
  <ele>1595.56</ele>
  <time>2026-08-27T18:29:46Z</time>
  <course>22.46</course>
  <speed>0.02</speed>
  <fix>3d</fix>
</trkpt>
<trkpt lat="40.0728785" lon="-105.2309323">
  <ele>1595.44</ele>
  <time>2026-08-27T18:29:46Z</time>
  <course>353.52</course>
  <speed>0.04</speed>
  <fix>3d</fix>
</trkpt>
<trkpt lat="40.0728784" lon="-105.2309321">
  <ele>1595.55</ele>
  <time>2026-08-27T18:29:46Z</time>
  <course>22.46</course>
  <speed>0.02</speed>
  <fix>3d</fix>
</trkpt>
<trkpt lat="40.0728786" lon="-105.2309324">
  <ele>1595.44</ele>
  <time>2026-08-27T18:29:46Z</time>
  <course>354.63</course>
  <speed>0.04</speed>
  <fix>3d</fix>
</trkpt>
<trkpt lat="40.0728785" lon="-105.2309321">
  <ele>1595.56</ele>
  <time>2026-08-27T18:29:46Z</time>
  <course>22.46</course>
  <speed>0.02</speed>
  <fix>3d</fix>
</trkpt>
<trkpt lat="40.0728786" lon="-105.2309324">
  <ele>1595.45</ele>
  <time>2026-08-27T18:29:46Z</time>
  <course>355.84</course>
  <speed>0.04</speed>
  <fix>3d</fix>
</trkpt>
<trkpt lat="40.0728786" lon="-105.2309322">
  <ele>1595.56</ele>
  <time>2026-08-27T18:29:46Z</time>
  <course>22.46</course>
  <speed>0.02</speed>
  <fix>3d</fix>
</trkpt>
<trkpt lat="40.0728787" lon="-105.2309324">
  <ele>1595.45</ele>
  <time>2026-08-27T18:29:46Z</time>
  <course>356.94</course>
  <speed>0.04</speed>
  <fix>3d</fix>
</trkpt>
<trkpt lat="40.0728787" lon="-105.2309322">
  <ele>1595.55</ele>
  <time>2026-08-27T18:29:46Z</time>
  <course>22.47</course>
  <speed>0.0316227766016838</speed>
  <fix>3d</fix>
</trkpt>
<trkpt lat="40.0728788" lon="-105.2309324">
  <ele>1595.45</ele>
  <time>2026-08-27T18:29:46Z</time>
  <course>357.88</course>
  <speed>0.05</speed>
  <fix>3d</fix>
</trkpt>
<trkpt lat="40.0728788" lon="-105.2309322">
  <ele>1595.55</ele>
  <time>2026-08-27T18:29:46Z</time>
  <course>22.46</course>
  <speed>0.0316227766016838</speed>
  <fix>3d</fix>
</trkpt>
<trkpt lat="40.0728789" lon="-105.2309324">
  <ele>1595.45</ele>
  <time>2026-08-27T18:29:46Z</time>
  <course>358.75</course>
  <speed>0.05</speed>
  <fix>3d</fix>
</trkpt>
<trkpt lat="40.0728789" lon="-105.2309322">
  <ele>1595.55</ele>
  <time>2026-08-27T18:29:46Z</time>
  <course>22.44</course>
  <speed>0.0316227766016838</speed>
  <fix>3d</fix>
</trkpt>
<trkpt lat="40.072879" lon="-105.2309324">
  <ele>1595.45</ele>
  <time>2026-08-27T18:29:46Z</time>
  <course>359.63</course>
  <speed>0.05</speed>
  <fix>3d</fix>
</trkpt>
<trkpt lat="40.072879" lon="-105.2309322">
  <ele>1595.56</ele>
  <time>2026-08-27T18:29:46Z</time>
  <course>22.45</course>
  <speed>0.0316227766016838</speed>
  <fix>3d</fix>
</trkpt>
<trkpt lat="40.0728791" lon="-105.2309324">
  <ele>1595.45</ele>
  <time>2026-08-27T18:29:46Z</time>
  <course>0.15</course>
  <speed>0.05</speed>
  <fix>3d</fix>
</trkpt>
<trkpt lat="40.0728791" lon="-105.2309322">
  <ele>1595.56</ele>
  <time>2026-08-27T18:29:46Z</time>
  <course>22.46</course>
  <speed>0.0316227766016838</speed>
  <fix>3d</fix>
</trkpt>
<trkpt lat="40.0728792" lon="-105.2309324">
  <ele>1595.45</ele>
  <time>2026-08-27T18:29:46Z</time>
  <course>0.45</course>
  <speed>0.05</speed>
  <fix>3d</fix>
</trkpt>
<trkpt lat="40.0728792" lon="-105.2309322">
  <ele>1595.56</ele>
  <time>2026-08-27T18:29:46Z</time>
  <course>22.47</course>
  <speed>0.0412310562561766</speed>
  <fix>3d</fix>
</trkpt>
<trkpt lat="40.0728793" lon="-105.2309324">
  <ele>1595.46</ele>
  <time>2026-08-27T18:29:46Z</time>
  <course>0.97</course>
  <speed>0.06</speed>
  <fix>3d</fix>
</trkpt>
<trkpt lat="40.0728793" lon="-105.2309322">
  <ele>1595.56</ele>
  <time>2026-08-27T18:29:46Z</time>
  <course>22.47</course>
  <speed>0.0412310562561766</speed>
  <fix>3d</fix>
</trkpt>
<trkpt lat="40.0728794" lon="-105.2309324">
  <ele>1595.46</ele>
  <time>2026-08-27T18:29:46Z</time>
  <course>1.6</course>
  <speed>0.06</speed>
  <fix>3d</fix>
</trkpt>
<trkpt lat="40.0728794" lon="-105.2309322">
  <ele>1595.55</ele>
  <time>2026-08-27T18:29:46Z</time>
  <course>22.17</course>
  <speed>0.0412310562561766</speed>
  <fix>3d</fix>
</trkpt>
<trkpt lat="40.0728796" lon="-105.2309324">
  <ele>1595.46</ele>
  <time>2026-08-27T18:29:46Z</time>
  <course>3.11</course>
  <speed>0.06</speed>
  <fix>3d</fix>
</trkpt>
<trkpt lat="40.0728795" lon="-105.2309322">
  <ele>1595.55</ele>
  <time>2026-08-27T18:29:46Z</time>
  <course>21.02</course>
  <speed>0.0412310562561766</speed>
  <fix>3d</fix>
</trkpt>
<trkpt lat="40.0728797" lon="-105.2309324">
  <ele>1595.46</ele>
  <time>2026-08-27T18:29:46Z</time>
  <course>5.77</course>
  <speed>0.06</speed>
  <fix>3d</fix>
</trkpt>
<trkpt lat="40.0728796" lon="-105.2309322">
  <ele>1595.55</ele>
  <time>2026-08-27T18:29:46Z</time>
  <course>19.69</course>
  <speed>0.0412310562561766</speed>
  <fix>3d</fix>
</trkpt>
<trkpt lat="40.0728798" lon="-105.2309324">
  <ele>1595.46</ele>
  <time>2026-08-27T18:29:46Z</time>
  <course>7.05</course>
  <speed>0.06</speed>
  <fix>3d</fix>
</trkpt>
<trkpt lat="40.0728798" lon="-105.2309322">
  <ele>1595.55</ele>
  <time>2026-08-27T18:29:46Z</time>
  <course>18.57</course>
  <speed>0.0316227766016838</speed>
  <fix>3d</fix>
</trkpt>
<trkpt lat="40.0728799" lon="-105.2309324">
  <ele>1595.46</ele>
  <time>2026-08-27T18:29:46Z</time>
  <course>5.76</course>
  <speed>0.06</speed>
  <fix>3d</fix>
</trkpt>
<trkpt lat="40.0728799" lon="-105.2309322">
  <ele>1595.55</ele>
  <time>2026-08-27T18:29:46Z</time>
  <course>17.82</course>
  <speed>0.03</speed>
  <fix>3d</fix>
</trkpt>
<trkpt lat="40.07288" lon="-105.2309324">
  <ele>1595.46</ele>
  <time>2026-08-27T18:29:46Z</time>
  <course>2.96</course>
  <speed>0.05</speed>
  <fix>3d</fix>
</trkpt>
<trkpt lat="40.07288" lon="-105.2309322">
  <ele>1595.55</ele>
  <time>2026-08-27T18:29:46Z</time>
  <course>17.52</course>
  <speed>0.03</speed>
  <fix>3d</fix>
</trkpt>
<trkpt lat="40.0728801" lon="-105.2309324">
  <ele>1595.46</ele>
  <time>2026-08-27T18:29:46Z</time>
  <course>359.27</course>
  <speed>0.05</speed>
  <fix>3d</fix>
</trkpt>
<trkpt lat="40.0728801" lon="-105.2309322">
  <ele>1595.55</ele>
  <time>2026-08-27T18:29:46Z</time>
  <course>17.72</course>
  <speed>0.02</speed>
  <fix>3d</fix>
</trkpt>
<trkpt lat="40.0728802" lon="-105.2309324">
  <ele>1595.47</ele>
  <time>2026-08-27T18:29:46Z</time>
  <course>354.92</course>
  <speed>0.05</speed>
  <fix>3d</fix>
</trkpt>
<trkpt lat="40.0728801" lon="-105.2309322">
  <ele>1595.55</ele>
  <time>2026-08-27T18:29:46Z</time>
  <course>18.39</course>
  <speed>0.02</speed>
  <fix>3d</fix>
</trkpt>
<trkpt lat="40.0728803" lon="-105.2309324">
  <ele>1595.47</ele>
  <time>2026-08-27T18:29:46Z</time>
  <course>349.92</course>
  <speed>0.04</speed>
  <fix>3d</fix>
</trkpt>
<trkpt lat="40.0728802" lon="-105.2309323">
  <ele>1595.56</ele>
  <time>2026-08-27T18:29:46Z</time>
  <course>19.46</course>
  <speed>0.02</speed>
  <fix>3d</fix>
</trkpt>
<trkpt lat="40.0728804" lon="-105.2309324">
  <ele>1595.47</ele>
  <time>2026-08-27T18:29:46Z</time>
  <course>345.09</course>
  <speed>0.04</speed>
  <fix>3d</fix>
</trkpt>
<trkpt lat="40.0728803" lon="-105.2309323">
  <ele>1595.56</ele>
  <time>2026-08-27T18:29:46Z</time>
  <course>20.8</course>
  <speed>0.01</speed>
  <fix>3d</fix>
</trkpt>
<trkpt lat="40.0728804" lon="-105.2309324">
  <ele>1595.48</ele>
  <time>2026-08-27T18:29:46Z</time>
  <course>340.93</course>
  <speed>0.04</speed>
  <fix>3d</fix>
</trkpt>
<trkpt lat="40.0728804" lon="-105.2309323">
  <ele>1595.56</ele>
  <time>2026-08-27T18:29:46Z</time>
  <course>22.3</course>
  <speed>0.01</speed>
  <fix>3d</fix>
</trkpt>
<trkpt lat="40.0728805" lon="-105.2309324">
  <ele>1595.48</ele>
  <time>2026-08-27T18:29:46Z</time>
  <course>337.37</course>
  <speed>0.03</speed>
  <fix>3d</fix>
</trkpt>
<trkpt lat="40.0728804" lon="-105.2309324">
  <ele>1595.56</ele>
  <time>2026-08-27T18:29:46Z</time>
  <course>23.83</course>
  <speed>0.01</speed>
  <fix>3d</fix>
</trkpt>
<trkpt lat="40.0728806" lon="-105.2309324">
  <ele>1595.48</ele>
  <time>2026-08-27T18:29:46Z</time>
  <course>334.88</course>
  <speed>0.03</speed>
  <fix>3d</fix>
</trkpt>
<trkpt lat="40.0728805" lon="-105.2309324">
  <ele>1595.56</ele>
  <time>2026-08-27T18:29:46Z</time>
  <course>25.22</course>
  <speed>0.0</speed>
  <fix>3d</fix>
</trkpt>
<trkpt lat="40.0728807" lon="-105.2309325">
  <ele>1595.48</ele>
  <time>2026-08-27T18:29:46Z</time>
  <course>333.08</course>
  <speed>0.03</speed>
  <fix>3d</fix>
</trkpt>
<trkpt lat="40.0728805" lon="-105.2309324">
  <ele>1595.55</ele>
  <time>2026-08-27T18:29:46Z</time>
  <course>26.34</course>
  <speed>0.0</speed>
  <fix>3d</fix>
</trkpt>
<trkpt lat="40.0728807" lon="-105.2309325">
  <ele>1595.48</ele>
  <time>2026-08-27T18:29:46Z</time>
  <course>332.22</course>
  <speed>0.03</speed>
  <fix>3d</fix>
</trkpt>
<trkpt lat="40.0728806" lon="-105.2309324">
  <ele>1595.56</ele>
  <time>2026-08-27T18:29:46Z</time>
  <course>27.07</course>
  <speed>0.0</speed>
  <fix>3d</fix>
</trkpt>
<trkpt lat="40.0728808" lon="-105.2309325">
  <ele>1595.48</ele>
  <time>2026-08-27T18:29:46Z</time>
  <course>333.77</course>
  <speed>0.02</speed>
  <fix>3d</fix>
</trkpt>
<trkpt lat="40.0728806" lon="-105.2309324">
  <ele>1595.56</ele>
  <time>2026-08-27T18:29:46Z</time>
  <course>27.36</course>
  <speed>0.0</speed>
  <fix>3d</fix>
</trkpt>
<trkpt lat="40.0728808" lon="-105.2309325">
  <ele>1595.49</ele>
  <time>2026-08-27T18:29:46Z</time>
  <course>337.92</course>
  <speed>0.02</speed>
  <fix>3d</fix>
</trkpt>
<trkpt lat="40.0728807" lon="-105.2309324">
  <ele>1595.57</ele>
  <time>2026-08-27T18:29:46Z</time>
  <course>27.17</course>
  <speed>0.0</speed>
  <fix>3d</fix>
</trkpt>
<trkpt lat="40.0728808" lon="-105.2309325">
  <ele>1595.49</ele>
  <time>2026-08-27T18:29:46Z</time>
  <course>342.89</course>
  <speed>0.02</speed>
  <fix>3d</fix>
</trkpt>
<trkpt lat="40.0728807" lon="-105.2309324">
  <ele>1595.58</ele>
  <time>2026-08-27T18:29:46Z</time>
  <course>26.54</course>
  <speed>0.0</speed>
  <fix>3d</fix>
</trkpt>
<trkpt lat="40.0728809" lon="-105.2309325">
  <ele>1595.49</ele>
  <time>2026-08-27T18:29:46Z</time>
  <course>346.57</course>
  <speed>0.02</speed>
  <fix>3d</fix>
</trkpt>
<trkpt lat="40.0728808" lon="-105.2309324">
  <ele>1595.58</ele>
  <time>2026-08-27T18:29:46Z</time>
  <course>25.53</course>
  <speed>0.01</speed>
  <fix>3d</fix>
</trkpt>
<trkpt lat="40.0728809" lon="-105.2309325">
  <ele>1595.49</ele>
  <time>2026-08-27T18:29:46Z</time>
  <course>349.51</course>
  <speed>0.02</speed>
  <fix>3d</fix>
</trkpt>
<trkpt lat="40.0728808" lon="-105.2309324">
  <ele>1595.58</ele>
  <time>2026-08-27T18:29:46Z</time>
  <course>24.19</course>
  <speed>0.01</speed>
  <fix>3d</fix>
</trkpt>
<trkpt lat="40.0728809" lon="-105.2309326">
  <ele>1595.49</ele>
  <time>2026-08-27T18:29:46Z</time>
  <course>351.97</course>
  <speed>0.02</speed>
  <fix>3d</fix>
</trkpt>
<trkpt lat="40.0728808" lon="-105.2309324">
  <ele>1595.58</ele>
  <time>2026-08-27T18:29:46Z</time>
  <course>22.68</course>
  <speed>0.01</speed>
  <fix>3d</fix>
</trkpt>
<trkpt lat="40.072881" lon="-105.2309327">
  <ele>1595.48</ele>
  <time>2026-08-27T18:29:46Z</time>
  <course>354.09</course>
  <speed>0.02</speed>
  <fix>3d</fix>
</trkpt>
<trkpt lat="40.0728809" lon="-105.2309324">
  <ele>1595.58</ele>
  <time>2026-08-27T18:29:46Z</time>
  <course>21.15</course>
  <speed>0.01</speed>
  <fix>3d</fix>
</trkpt>
<trkpt lat="40.072881" lon="-105.2309327">
  <ele>1595.48</ele>
  <time>2026-08-27T18:29:46Z</time>
  <course>355.15</course>
  <speed>0.02</speed>
  <fix>3d</fix>
</trkpt>
<trkpt lat="40.0728809" lon="-105.2309324">
  <ele>1595.57</ele>
  <time>2026-08-27T18:29:46Z</time>
  <course>19.74</course>
  <speed>0.01</speed>
  <fix>3d</fix>
</trkpt>
<trkpt lat="40.0728811" lon="-105.2309327">
  <ele>1595.48</ele>
  <time>2026-08-27T18:29:46Z</time>
  <course>353.81</course>
  <speed>0.02</speed>
  <fix>3d</fix>
</trkpt>
<trkpt lat="40.072881" lon="-105.2309325">
  <ele>1595.57</ele>
  <time>2026-08-27T18:29:46Z</time>
  <course>18.61</course>
  <speed>0.01</speed>
  <fix>3d</fix>
</trkpt>
<trkpt lat="40.0728812" lon="-105.2309327">
  <ele>1595.47</ele>
  <time>2026-08-27T18:29:46Z</time>
  <course>350.93</course>
  <speed>0.03</speed>
  <fix>3d</fix>
</trkpt>
<trkpt lat="40.072881" lon="-105.2309325">
  <ele>1595.56</ele>
  <time>2026-08-27T18:29:46Z</time>
  <course>17.87</course>
  <speed>0.01</speed>
  <fix>3d</fix>
</trkpt>
<trkpt lat="40.0728812" lon="-105.2309327">
  <ele>1595.47</ele>
  <time>2026-08-27T18:29:46Z</time>
  <course>347.51</course>
  <speed>0.03</speed>
  <fix>3d</fix>
</trkpt>
<trkpt lat="40.0728811" lon="-105.2309325">
  <ele>1595.56</ele>
  <time>2026-08-27T18:29:46Z</time>
  <course>17.57</course>
  <speed>0.01</speed>
  <fix>3d</fix>
</trkpt>
<trkpt lat="40.0728813" lon="-105.2309327">
  <ele>1595.47</ele>
  <time>2026-08-27T18:29:46Z</time>
  <course>343.57</course>
  <speed>0.03</speed>
  <fix>3d</fix>
</trkpt>
<trkpt lat="40.0728812" lon="-105.2309325">
  <ele>1595.56</ele>
  <time>2026-08-27T18:29:46Z</time>
  <course>17.75</course>
  <speed>0.01</speed>
  <fix>3d</fix>
</trkpt>
<trkpt lat="40.0728813" lon="-105.2309327">
  <ele>1595.47</ele>
  <time>2026-08-27T18:29:46Z</time>
  <course>339.49</course>
  <speed>0.03</speed>
  <fix>3d</fix>
</trkpt>
<trkpt lat="40.0728812" lon="-105.2309326">
  <ele>1595.57</ele>
  <time>2026-08-27T18:29:46Z</time>
  <course>18.41</course>
  <speed>0.01</speed>
  <fix>3d</fix>
</trkpt>
<trkpt lat="40.0728814" lon="-105.2309327">
  <ele>1595.47</ele>
  <time>2026-08-27T18:29:46Z</time>
  <course>335.92</course>
  <speed>0.03</speed>
  <fix>3d</fix>
</trkpt>
<trkpt lat="40.0728813" lon="-105.2309326">
  <ele>1595.56</ele>
  <time>2026-08-27T18:29:46Z</time>
  <course>19.49</course>
  <speed>0.01</speed>
  <fix>3d</fix>
</trkpt>
<trkpt lat="40.0728815" lon="-105.2309327">
  <ele>1595.46</ele>
  <time>2026-08-27T18:29:46Z</time>
  <course>332.78</course>
  <speed>0.04</speed>
  <fix>3d</fix>
</trkpt>
<trkpt lat="40.0728814" lon="-105.2309327">
  <ele>1595.56</ele>
  <time>2026-08-27T18:29:46Z</time>
  <course>20.82</course>
  <speed>0.01</speed>
  <fix>3d</fix>
</trkpt>
<trkpt lat="40.0728815" lon="-105.2309328">
  <ele>1595.46</ele>
  <time>2026-08-27T18:29:46Z</time>
  <course>330.24</course>
  <speed>0.04</speed>
  <fix>3d</fix>
</trkpt>
<trkpt lat="40.0728814" lon="-105.2309327">
  <ele>1595.55</ele>
  <time>2026-08-27T18:29:46Z</time>
  <course>22.32</course>
  <speed>0.01</speed>
  <fix>3d</fix>
</trkpt>
<trkpt lat="40.0728816" lon="-105.2309329">
  <ele>1595.46</ele>
  <time>2026-08-27T18:29:46Z</time>
  <course>328.72</course>
  <speed>0.04</speed>
  <fix>3d</fix>
</trkpt>
<trkpt lat="40.0728815" lon="-105.2309328">
  <ele>1595.55</ele>
  <time>2026-08-27T18:29:46Z</time>
  <course>23.82</course>
  <speed>0.01</speed>
  <fix>3d</fix>
</trkpt>
<trkpt lat="40.0728816" lon="-105.2309329">
  <ele>1595.46</ele>
  <time>2026-08-27T18:29:46Z</time>
  <course>328.56</course>
  <speed>0.03</speed>
  <fix>3d</fix>
</trkpt>
<trkpt lat="40.0728815" lon="-105.2309328">
  <ele>1595.54</ele>
  <time>2026-08-27T18:29:46Z</time>
  <course>25.19</course>
  <speed>0.01</speed>
  <fix>3d</fix>
</trkpt>
<trkpt lat="40.0728817" lon="-105.2309329">
  <ele>1595.46</ele>
  <time>2026-08-27T18:29:46Z</time>
  <course>329.63</course>
  <speed>0.03</speed>
  <fix>3d</fix>
</trkpt>
<trkpt lat="40.0728816" lon="-105.2309328">
  <ele>1595.54</ele>
  <time>2026-08-27T18:29:46Z</time>
  <course>26.31</course>
  <speed>0.0</speed>
  <fix>3d</fix>
</trkpt>
<trkpt lat="40.0728818" lon="-105.230933">
  <ele>1595.46</ele>
  <time>2026-08-27T18:29:46Z</time>
  <course>331.79</course>
  <speed>0.03</speed>
  <fix>3d</fix>
</trkpt>
<trkpt lat="40.0728816" lon="-105.2309329">
  <ele>1595.55</ele>
  <time>2026-08-27T18:29:46Z</time>
  <course>27.05</course>
  <speed>0.0</speed>
  <fix>3d</fix>
</trkpt>
<trkpt lat="40.0728818" lon="-105.2309331">
  <ele>1595.47</ele>
  <time>2026-08-27T18:29:46Z</time>
  <course>335.15</course>
  <speed>0.03</speed>
  <fix>3d</fix>
</trkpt>
<trkpt lat="40.0728817" lon="-105.2309329">
  <ele>1595.55</ele>
  <time>2026-08-27T18:29:46Z</time>
  <course>27.35</course>
  <speed>0.0</speed>
  <fix>3d</fix>
</trkpt>
<trkpt lat="40.0728819" lon="-105.2309331">
  <ele>1595.47</ele>
  <time>2026-08-27T18:29:46Z</time>
  <course>338.94</course>
  <speed>0.03</speed>
  <fix>3d</fix>
</trkpt>
<trkpt lat="40.0728818" lon="-105.2309329">
  <ele>1595.55</ele>
  <time>2026-08-27T18:29:46Z</time>
  <course>27.15</course>
  <speed>0.0</speed>
  <fix>3d</fix>
</trkpt>
<trkpt lat="40.0728819" lon="-105.2309331">
  <ele>1595.47</ele>
  <time>2026-08-27T18:29:46Z</time>
  <course>343.03</course>
  <speed>0.02</speed>
  <fix>3d</fix>
</trkpt>
<trkpt lat="40.0728818" lon="-105.2309329">
  <ele>1595.56</ele>
  <time>2026-08-27T18:29:46Z</time>
  <course>26.51</course>
  <speed>0.0</speed>
  <fix>3d</fix>
</trkpt>
<trkpt lat="40.072882" lon="-105.2309331">
  <ele>1595.48</ele>
  <time>2026-08-27T18:29:46Z</time>
  <course>347.95</course>
  <speed>0.02</speed>
  <fix>3d</fix>
</trkpt>
<trkpt lat="40.0728819" lon="-105.2309329">
  <ele>1595.56</ele>
  <time>2026-08-27T18:29:46Z</time>
  <course>25.46</course>
  <speed>0.01</speed>
  <fix>3d</fix>
</trkpt>
<trkpt lat="40.072882" lon="-105.2309332">
  <ele>1595.48</ele>
  <time>2026-08-27T18:29:46Z</time>
  <course>352.67</course>
  <speed>0.02</speed>
  <fix>3d</fix>
</trkpt>
<trkpt lat="40.0728819" lon="-105.2309329">
  <ele>1595.56</ele>
  <time>2026-08-27T18:29:46Z</time>
  <course>24.09</course>
  <speed>0.01</speed>
  <fix>3d</fix>
</trkpt>
<trkpt lat="40.0728821" lon="-105.2309332">
  <ele>1595.48</ele>
  <time>2026-08-27T18:29:46Z</time>
  <course>355.77</course>
  <speed>0.02</speed>
  <fix>3d</fix>
</trkpt>
<trkpt lat="40.072882" lon="-105.230933">
  <ele>1595.56</ele>
  <time>2026-08-27T18:29:46Z</time>
  <course>22.6</course>
  <speed>0.01414213562373095</speed>
  <fix>3d</fix>
</trkpt>
<trkpt lat="40.0728821" lon="-105.2309332">
  <ele>1595.48</ele>
  <time>2026-08-27T18:29:46Z</time>
  <course>356.79</course>
  <speed>0.03</speed>
  <fix>3d</fix>
</trkpt>
<trkpt lat="40.072882" lon="-105.230933">
  <ele>1595.56</ele>
  <time>2026-08-27T18:29:46Z</time>
  <course>21.09</course>
  <speed>0.01</speed>
  <fix>3d</fix>
</trkpt>
<trkpt lat="40.0728822" lon="-105.2309332">
  <ele>1595.48</ele>
  <time>2026-08-27T18:29:46Z</time>
  <course>355.81</course>
  <speed>0.03</speed>
  <fix>3d</fix>
</trkpt>
<trkpt lat="40.0728821" lon="-105.230933">
  <ele>1595.56</ele>
  <time>2026-08-27T18:29:46Z</time>
  <course>19.7</course>
  <speed>0.01</speed>
  <fix>3d</fix>
</trkpt>
<trkpt lat="40.0728822" lon="-105.2309332">
  <ele>1595.49</ele>
  <time>2026-08-27T18:29:46Z</time>
  <course>354.49</course>
  <speed>0.03</speed>
  <fix>3d</fix>
</trkpt>
<trkpt lat="40.0728821" lon="-105.230933">
  <ele>1595.56</ele>
  <time>2026-08-27T18:29:46Z</time>
  <course>18.59</course>
  <speed>0.01</speed>
  <fix>3d</fix>
</trkpt>
<trkpt lat="40.0728823" lon="-105.2309332">
  <ele>1595.49</ele>
  <time>2026-08-27T18:29:46Z</time>
  <course>352.5</course>
  <speed>0.03</speed>
  <fix>3d</fix>
</trkpt>
<trkpt lat="40.0728822" lon="-105.230933">
  <ele>1595.57</ele>
  <time>2026-08-27T18:29:46Z</time>
  <course>17.87</course>
  <speed>0.01</speed>
  <fix>3d</fix>
</trkpt>
<trkpt lat="40.0728824" lon="-105.2309332">
  <ele>1595.49</ele>
  <time>2026-08-27T18:29:46Z</time>
  <course>349.28</course>
  <speed>0.03</speed>
  <fix>3d</fix>
</trkpt>
<trkpt lat="40.0728823" lon="-105.230933">
  <ele>1595.57</ele>
  <time>2026-08-27T18:29:46Z</time>
  <course>17.58</course>
  <speed>0.01</speed>
  <fix>3d</fix>
</trkpt>
<trkpt lat="40.0728824" lon="-105.2309332">
  <ele>1595.49</ele>
  <time>2026-08-27T18:29:46Z</time>
  <course>345.29</course>
  <speed>0.03</speed>
  <fix>3d</fix>
</trkpt>
<trkpt lat="40.0728823" lon="-105.2309331">
  <ele>1595.57</ele>
  <time>2026-08-27T18:29:46Z</time>
  <course>17.76</course>
  <speed>0.01</speed>
  <fix>3d</fix>
</trkpt>
<trkpt lat="40.0728825" lon="-105.2309332">
  <ele>1595.49</ele>
  <time>2026-08-27T18:29:46Z</time>
  <course>341.21</course>
  <speed>0.03</speed>
  <fix>3d</fix>
</trkpt>
<trkpt lat="40.0728824" lon="-105.2309331">
  <ele>1595.57</ele>
  <time>2026-08-27T18:29:46Z</time>
  <course>18.46</course>
  <speed>0.01</speed>
  <fix>3d</fix>
</trkpt>
<trkpt lat="40.0728826" lon="-105.2309332">
  <ele>1595.49</ele>
  <time>2026-08-27T18:29:46Z</time>
  <course>338.07</course>
  <speed>0.03</speed>
  <fix>3d</fix>
</trkpt>
<trkpt lat="40.0728825" lon="-105.2309331">
  <ele>1595.57</ele>
  <time>2026-08-27T18:29:46Z</time>
  <course>19.51</course>
  <speed>0.01</speed>
  <fix>3d</fix>
</trkpt>
<trkpt lat="40.0728826" lon="-105.2309332">
  <ele>1595.48</ele>
  <time>2026-08-27T18:29:46Z</time>
  <course>335.56</course>
  <speed>0.03</speed>
  <fix>3d</fix>
</trkpt>
<trkpt lat="40.0728825" lon="-105.2309332">
  <ele>1595.56</ele>
  <time>2026-08-27T18:29:46Z</time>
  <course>20.85</course>
  <speed>0.01</speed>
  <fix>3d</fix>
</trkpt>
<trkpt lat="40.0728827" lon="-105.2309333">
  <ele>1595.48</ele>
  <time>2026-08-27T18:29:46Z</time>
  <course>333.68</course>
  <speed>0.03</speed>
  <fix>3d</fix>
</trkpt>
<trkpt lat="40.0728826" lon="-105.2309332">
  <ele>1595.56</ele>
  <time>2026-08-27T18:29:46Z</time>
  <course>22.35</course>
  <speed>0.01</speed>
  <fix>3d</fix>
</trkpt>
<trkpt lat="40.0728827" lon="-105.2309334">
  <ele>1595.48</ele>
  <time>2026-08-27T18:29:46Z</time>
  <course>332.39</course>
  <speed>0.03</speed>
  <fix>3d</fix>
</trkpt>
<trkpt lat="40.0728826" lon="-105.2309332">
  <ele>1595.56</ele>
  <time>2026-08-27T18:29:46Z</time>
  <course>23.84</course>
  <speed>0.01</speed>
  <fix>3d</fix>
</trkpt>
<trkpt lat="40.0728828" lon="-105.2309334">
  <ele>1595.48</ele>
  <time>2026-08-27T18:29:46Z</time>
  <course>331.43</course>
  <speed>0.03</speed>
  <fix>3d</fix>
</trkpt>
<trkpt lat="40.0728827" lon="-105.2309333">
  <ele>1595.56</ele>
  <time>2026-08-27T18:29:46Z</time>
  <course>25.22</course>
  <speed>0.0</speed>
  <fix>3d</fix>
</trkpt>
<trkpt lat="40.0728829" lon="-105.2309334">
  <ele>1595.48</ele>
  <time>2026-08-27T18:29:46Z</time>
  <course>331.05</course>
  <speed>0.03</speed>
  <fix>3d</fix>
</trkpt>
<trkpt lat="40.0728828" lon="-105.2309333">
  <ele>1595.56</ele>
  <time>2026-08-27T18:29:46Z</time>
  <course>26.35</course>
  <speed>0.0</speed>
  <fix>3d</fix>
</trkpt>
<trkpt lat="40.072883" lon="-105.2309334">
  <ele>1595.48</ele>
  <time>2026-08-27T18:29:46Z</time>
  <course>331.57</course>
  <speed>0.03</speed>
  <fix>3d</fix>
</trkpt>
<trkpt lat="40.0728828" lon="-105.2309333">
  <ele>1595.56</ele>
  <time>2026-08-27T18:29:46Z</time>
  <course>27.1</course>
  <speed>0.0</speed>
  <fix>3d</fix>
</trkpt>
<trkpt lat="40.072883" lon="-105.2309335">
  <ele>1595.48</ele>
  <time>2026-08-27T18:29:46Z</time>
  <course>333.37</course>
  <speed>0.03</speed>
  <fix>3d</fix>
</trkpt>
<trkpt lat="40.0728829" lon="-105.2309334">
  <ele>1595.55</ele>
  <time>2026-08-27T18:29:46Z</time>
  <course>27.37</course>
  <speed>0.0</speed>
  <fix>3d</fix>
</trkpt>
<trkpt lat="40.0728831" lon="-105.2309336">
  <ele>1595.48</ele>
  <time>2026-08-27T18:29:46Z</time>
  <course>337.39</course>
  <speed>0.03</speed>
  <fix>3d</fix>
</trkpt>
<trkpt lat="40.0728829" lon="-105.2309334">
  <ele>1595.56</ele>
  <time>2026-08-27T18:29:46Z</time>
  <course>27.17</course>
  <speed>0.0</speed>
  <fix>3d</fix>
</trkpt>
<trkpt lat="40.0728831" lon="-105.2309336">
  <ele>1595.48</ele>
  <time>2026-08-27T18:29:46Z</time>
  <course>343.2</course>
  <speed>0.03</speed>
  <fix>3d</fix>
</trkpt>
<trkpt lat="40.072883" lon="-105.2309334">
  <ele>1595.56</ele>
  <time>2026-08-27T18:29:46Z</time>
  <course>26.5</course>
  <speed>0.0</speed>
  <fix>3d</fix>
</trkpt>
<trkpt lat="40.0728832" lon="-105.2309336">
  <ele>1595.48</ele>
  <time>2026-08-27T18:29:46Z</time>
  <course>348.74</course>
  <speed>0.02</speed>
  <fix>3d</fix>
</trkpt>
<trkpt lat="40.072883" lon="-105.2309334">
  <ele>1595.57</ele>
  <time>2026-08-27T18:29:46Z</time>
  <course>25.47</course>
  <speed>0.01</speed>
  <fix>3d</fix>
</trkpt>
<trkpt lat="40.0728832" lon="-105.2309336">
  <ele>1595.48</ele>
  <time>2026-08-27T18:29:46Z</time>
  <course>353.52</course>
  <speed>0.02</speed>
  <fix>3d</fix>
</trkpt>
<trkpt lat="40.0728831" lon="-105.2309334">
  <ele>1595.57</ele>
  <time>2026-08-27T18:29:46Z</time>
  <course>24.15</course>
  <speed>0.01</speed>
  <fix>3d</fix>
</trkpt>
<trkpt lat="40.0728833" lon="-105.2309337">
  <ele>1595.48</ele>
  <time>2026-08-27T18:29:46Z</time>
  <course>356.83</course>
  <speed>0.02</speed>
  <fix>3d</fix>
</trkpt>
<trkpt lat="40.0728832" lon="-105.2309334">
  <ele>1595.57</ele>
  <time>2026-08-27T18:29:46Z</time>
  <course>22.69</course>
  <speed>0.01414213562373095</speed>
  <fix>3d</fix>
</trkpt>
<trkpt lat="40.0728833" lon="-105.2309337">
  <ele>1595.48</ele>
  <time>2026-08-27T18:29:46Z</time>
  <course>357.91</course>
  <speed>0.03</speed>
  <fix>3d</fix>
</trkpt>
<trkpt lat="40.0728832" lon="-105.2309334">
  <ele>1595.57</ele>
  <time>2026-08-27T18:29:46Z</time>
  <course>21.16</course>
  <speed>0.01414213562373095</speed>
  <fix>3d</fix>
</trkpt>
<trkpt lat="40.0728833" lon="-105.2309337">
  <ele>1595.48</ele>
  <time>2026-08-27T18:29:46Z</time>
  <course>357.77</course>
  <speed>0.03</speed>
  <fix>3d</fix>
</trkpt>
<trkpt lat="40.0728833" lon="-105.2309335">
  <ele>1595.57</ele>
  <time>2026-08-27T18:29:46Z</time>
  <course>19.75</course>
  <speed>0.01</speed>
  <fix>3d</fix>
</trkpt>
<trkpt lat="40.0728834" lon="-105.2309337">
  <ele>1595.47</ele>
  <time>2026-08-27T18:29:46Z</time>
  <course>356.44</course>
  <speed>0.03</speed>
  <fix>3d</fix>
</trkpt>
<trkpt lat="40.0728833" lon="-105.2309335">
  <ele>1595.57</ele>
  <time>2026-08-27T18:29:46Z</time>
  <course>18.63</course>
  <speed>0.01</speed>
  <fix>3d</fix>
</trkpt>
<trkpt lat="40.0728835" lon="-105.2309337">
  <ele>1595.47</ele>
  <time>2026-08-27T18:29:46Z</time>
  <course>353.32</course>
  <speed>0.03</speed>
  <fix>3d</fix>
</trkpt>
<trkpt lat="40.0728834" lon="-105.2309335">
  <ele>1595.57</ele>
  <time>2026-08-27T18:29:46Z</time>
  <course>17.88</course>
  <speed>0.01</speed>
  <fix>3d</fix>
</trkpt>
<trkpt lat="40.0728836" lon="-105.2309337">
  <ele>1595.47</ele>
  <time>2026-08-27T18:29:46Z</time>
  <course>349.58</course>
  <speed>0.03</speed>
  <fix>3d</fix>
</trkpt>
<trkpt lat="40.0728834" lon="-105.2309335">
  <ele>1595.57</ele>
  <time>2026-08-27T18:29:46Z</time>
  <course>17.59</course>
  <speed>0.01</speed>
  <fix>3d</fix>
</trkpt>
<trkpt lat="40.0728836" lon="-105.2309337">
  <ele>1595.47</ele>
  <time>2026-08-27T18:29:46Z</time>
  <course>346.1</course>
  <speed>0.03</speed>
  <fix>3d</fix>
</trkpt>
<trkpt lat="40.0728835" lon="-105.2309336">
  <ele>1595.56</ele>
  <time>2026-08-27T18:29:46Z</time>
  <course>17.77</course>
  <speed>0.01</speed>
  <fix>3d</fix>
</trkpt>
<trkpt lat="40.0728837" lon="-105.2309337">
  <ele>1595.46</ele>
  <time>2026-08-27T18:29:46Z</time>
  <course>342.79</course>
  <speed>0.03</speed>
  <fix>3d</fix>
</trkpt>
<trkpt lat="40.0728836" lon="-105.2309336">
  <ele>1595.56</ele>
  <time>2026-08-27T18:29:46Z</time>
  <course>18.41</course>
  <speed>0.01</speed>
  <fix>3d</fix>
</trkpt>
<trkpt lat="40.0728837" lon="-105.2309337">
  <ele>1595.46</ele>
  <time>2026-08-27T18:29:46Z</time>
  <course>339.24</course>
  <speed>0.03</speed>
  <fix>3d</fix>
</trkpt>
<trkpt lat="40.0728836" lon="-105.2309336">
  <ele>1595.57</ele>
  <time>2026-08-27T18:29:46Z</time>
  <course>19.47</course>
  <speed>0.01</speed>
  <fix>3d</fix>
</trkpt>
<trkpt lat="40.0728838" lon="-105.2309337">
  <ele>1595.46</ele>
  <time>2026-08-27T18:29:46Z</time>
  <course>336.22</course>
  <speed>0.03</speed>
  <fix>3d</fix>
</trkpt>
<trkpt lat="40.0728837" lon="-105.2309337">
  <ele>1595.57</ele>
  <time>2026-08-27T18:29:46Z</time>
  <course>20.82</course>
  <speed>0.01</speed>
  <fix>3d</fix>
</trkpt>
<trkpt lat="40.0728839" lon="-105.2309337">
  <ele>1595.46</ele>
  <time>2026-08-27T18:29:46Z</time>
  <course>333.67</course>
  <speed>0.03</speed>
  <fix>3d</fix>
</trkpt>
<trkpt lat="40.0728838" lon="-105.2309337">
  <ele>1595.57</ele>
  <time>2026-08-27T18:29:46Z</time>
  <course>22.35</course>
  <speed>0.01</speed>
  <fix>3d</fix>
</trkpt>
<trkpt lat="40.0728839" lon="-105.2309338">
  <ele>1595.46</ele>
  <time>2026-08-27T18:29:46Z</time>
  <course>331.03</course>
  <speed>0.03</speed>
  <fix>3d</fix>
</trkpt>
<trkpt lat="40.0728838" lon="-105.2309337">
  <ele>1595.57</ele>
  <time>2026-08-27T18:29:46Z</time>
  <course>23.84</course>
  <speed>0.0</speed>
  <fix>3d</fix>
</trkpt>
<trkpt lat="40.072884" lon="-105.2309339">
  <ele>1595.46</ele>
  <time>2026-08-27T18:29:46Z</time>
  <course>329.44</course>
  <speed>0.03</speed>
  <fix>3d</fix>
</trkpt>
<trkpt lat="40.0728839" lon="-105.2309338">
  <ele>1595.56</ele>
  <time>2026-08-27T18:29:46Z</time>
  <course>25.23</course>
  <speed>0.0</speed>
  <fix>3d</fix>
</trkpt>
<trkpt lat="40.072884" lon="-105.2309339">
  <ele>1595.45</ele>
  <time>2026-08-27T18:29:46Z</time>
  <course>328.83</course>
  <speed>0.03</speed>
  <fix>3d</fix>
</trkpt>
<trkpt lat="40.0728839" lon="-105.2309338">
  <ele>1595.56</ele>
  <time>2026-08-27T18:29:46Z</time>
  <course>26.37</course>
  <speed>0.0</speed>
  <fix>3d</fix>
</trkpt>
<trkpt lat="40.0728841" lon="-105.2309339">
  <ele>1595.45</ele>
  <time>2026-08-27T18:29:46Z</time>
  <course>329.99</course>
  <speed>0.03</speed>
  <fix>3d</fix>
</trkpt>
<trkpt lat="40.072884" lon="-105.2309338">
  <ele>1595.56</ele>
  <time>2026-08-27T18:29:46Z</time>
  <course>27.09</course>
  <speed>0.0</speed>
  <fix>3d</fix>
</trkpt>
<trkpt lat="40.0728842" lon="-105.2309339">
  <ele>1595.45</ele>
  <time>2026-08-27T18:29:46Z</time>
  <course>333.63</course>
  <speed>0.03</speed>
  <fix>3d</fix>
</trkpt>
<trkpt lat="40.072884" lon="-105.2309338">
  <ele>1595.56</ele>
  <time>2026-08-27T18:29:46Z</time>
  <course>27.37</course>
  <speed>0.0</speed>
  <fix>3d</fix>
</trkpt>
<trkpt lat="40.0728842" lon="-105.230934">
  <ele>1595.45</ele>
  <time>2026-08-27T18:29:46Z</time>
  <course>338.51</course>
  <speed>0.02</speed>
  <fix>3d</fix>
</trkpt>
<trkpt lat="40.0728841" lon="-105.2309338">
  <ele>1595.56</ele>
  <time>2026-08-27T18:29:46Z</time>
  <course>27.17</course>
  <speed>0.0</speed>
  <fix>3d</fix>
</trkpt>
<trkpt lat="40.0728843" lon="-105.2309341">
  <ele>1595.45</ele>
  <time>2026-08-27T18:29:46Z</time>
  <course>344.02</course>
  <speed>0.02</speed>
  <fix>3d</fix>
</trkpt>
<trkpt lat="40.0728841" lon="-105.2309339">
  <ele>1595.56</ele>
  <time>2026-08-27T18:29:47Z</time>
  <course>26.53</course>
  <speed>0.0</speed>
  <fix>3d</fix>
</trkpt>
<trkpt lat="40.0728843" lon="-105.2309341">
  <ele>1595.45</ele>
  <time>2026-08-27T18:29:47Z</time>
  <course>348.86</course>
  <speed>0.02</speed>
  <fix>3d</fix>
</trkpt>
<trkpt lat="40.0728842" lon="-105.2309339">
  <ele>1595.56</ele>
  <time>2026-08-27T18:29:47Z</time>
  <course>25.49</course>
  <speed>0.01</speed>
  <fix>3d</fix>
</trkpt>
<trkpt lat="40.0728844" lon="-105.2309341">
  <ele>1595.45</ele>
  <time>2026-08-27T18:29:47Z</time>
  <course>352.67</course>
  <speed>0.02</speed>
  <fix>3d</fix>
</trkpt>
<trkpt lat="40.0728842" lon="-105.2309339">
  <ele>1595.56</ele>
  <time>2026-08-27T18:29:47Z</time>
  <course>24.16</course>
  <speed>0.01</speed>
  <fix>3d</fix>
</trkpt>
<trkpt lat="40.0728844" lon="-105.2309341">
  <ele>1595.45</ele>
  <time>2026-08-27T18:29:47Z</time>
  <course>355.57</course>
  <speed>0.02</speed>
  <fix>3d</fix>
</trkpt>
<trkpt lat="40.0728843" lon="-105.2309339">
  <ele>1595.56</ele>
  <time>2026-08-27T18:29:47Z</time>
  <course>22.68</course>
  <speed>0.01414213562373095</speed>
  <fix>3d</fix>
</trkpt>
<trkpt lat="40.0728845" lon="-105.2309341">
  <ele>1595.45</ele>
  <time>2026-08-27T18:29:47Z</time>
  <course>357.27</course>
  <speed>0.02</speed>
  <fix>3d</fix>
</trkpt>
<trkpt lat="40.0728843" lon="-105.2309339">
  <ele>1595.56</ele>
  <time>2026-08-27T18:29:47Z</time>
  <course>21.12</course>
  <speed>0.01414213562373095</speed>
  <fix>3d</fix>
</trkpt>
<trkpt lat="40.0728845" lon="-105.2309341">
  <ele>1595.45</ele>
  <time>2026-08-27T18:29:47Z</time>
  <course>357.66</course>
  <speed>0.03</speed>
  <fix>3d</fix>
</trkpt>
<trkpt lat="40.0728844" lon="-105.2309339">
  <ele>1595.55</ele>
  <time>2026-08-27T18:29:47Z</time>
  <course>19.7</course>
  <speed>0.01</speed>
  <fix>3d</fix>
</trkpt>
<trkpt lat="40.0728845" lon="-105.2309341">
  <ele>1595.45</ele>
  <time>2026-08-27T18:29:47Z</time>
  <course>356.53</course>
  <speed>0.03</speed>
  <fix>3d</fix>
</trkpt>
<trkpt lat="40.0728845" lon="-105.2309339">
  <ele>1595.55</ele>
  <time>2026-08-27T18:29:47Z</time>
  <course>18.58</course>
  <speed>0.01</speed>
  <fix>3d</fix>
</trkpt>
<trkpt lat="40.0728846" lon="-105.2309341">
  <ele>1595.45</ele>
  <time>2026-08-27T18:29:47Z</time>
  <course>353.89</course>
  <speed>0.03</speed>
  <fix>3d</fix>
</trkpt>
<trkpt lat="40.0728845" lon="-105.2309339">
  <ele>1595.55</ele>
  <time>2026-08-27T18:29:47Z</time>
  <course>17.84</course>
  <speed>0.01</speed>
  <fix>3d</fix>
</trkpt>
<trkpt lat="40.0728846" lon="-105.2309341">
  <ele>1595.45</ele>
  <time>2026-08-27T18:29:47Z</time>
  <course>350.51</course>
  <speed>0.03</speed>
  <fix>3d</fix>
</trkpt>
<trkpt lat="40.0728846" lon="-105.230934">
  <ele>1595.55</ele>
  <time>2026-08-27T18:29:47Z</time>
  <course>17.55</course>
  <speed>0.01</speed>
  <fix>3d</fix>
</trkpt>
<trkpt lat="40.0728847" lon="-105.2309341">
  <ele>1595.45</ele>
  <time>2026-08-27T18:29:47Z</time>
  <course>347.04</course>
  <speed>0.03</speed>
  <fix>3d</fix>
</trkpt>
<trkpt lat="40.0728846" lon="-105.230934">
  <ele>1595.55</ele>
  <time>2026-08-27T18:29:47Z</time>
  <course>17.74</course>
  <speed>0.01</speed>
  <fix>3d</fix>
</trkpt>
<trkpt lat="40.0728848" lon="-105.2309341">
  <ele>1595.45</ele>
  <time>2026-08-27T18:29:47Z</time>
  <course>343.05</course>
  <speed>0.03</speed>
  <fix>3d</fix>
</trkpt>
<trkpt lat="40.0728847" lon="-105.230934">
  <ele>1595.55</ele>
  <time>2026-08-27T18:29:47Z</time>
  <course>18.38</course>
  <speed>0.01</speed>
  <fix>3d</fix>
</trkpt>
<trkpt lat="40.0728849" lon="-105.2309341">
  <ele>1595.45</ele>
  <time>2026-08-27T18:29:47Z</time>
  <course>339.55</course>
  <speed>0.03</speed>
  <fix>3d</fix>
</trkpt>
<trkpt lat="40.0728848" lon="-105.230934">
  <ele>1595.55</ele>
  <time>2026-08-27T18:29:47Z</time>
  <course>19.45</course>
  <speed>0.01</speed>
  <fix>3d</fix>
</trkpt>
<trkpt lat="40.0728849" lon="-105.2309342">
  <ele>1595.45</ele>
  <time>2026-08-27T18:29:47Z</time>
  <course>336.91</course>
  <speed>0.04</speed>
  <fix>3d</fix>
</trkpt>
<trkpt lat="40.0728848" lon="-105.2309341">
  <ele>1595.55</ele>
  <time>2026-08-27T18:29:47Z</time>
  <course>20.76</course>
  <speed>0.01</speed>
  <fix>3d</fix>
</trkpt>
<trkpt lat="40.072885" lon="-105.2309343">
  <ele>1595.45</ele>
  <time>2026-08-27T18:29:47Z</time>
  <course>334.46</course>
  <speed>0.04</speed>
  <fix>3d</fix>
</trkpt>
<trkpt lat="40.0728849" lon="-105.2309341">
  <ele>1595.55</ele>
  <time>2026-08-27T18:29:47Z</time>
  <course>22.25</course>
  <speed>0.01</speed>
  <fix>3d</fix>
</trkpt>
<trkpt lat="40.0728851" lon="-105.2309343">
  <ele>1595.45</ele>
  <time>2026-08-27T18:29:47Z</time>
  <course>332.49</course>
  <speed>0.03</speed>
  <fix>3d</fix>
</trkpt>
<trkpt lat="40.072885" lon="-105.2309342">
  <ele>1595.55</ele>
  <time>2026-08-27T18:29:47Z</time>
  <course>23.82</course>
  <speed>0.01</speed>
  <fix>3d</fix>
</trkpt>
<trkpt lat="40.0728851" lon="-105.2309344">
  <ele>1595.46</ele>
  <time>2026-08-27T18:29:47Z</time>
  <course>331.02</course>
  <speed>0.03</speed>
  <fix>3d</fix>
</trkpt>
<trkpt lat="40.072885" lon="-105.2309342">
  <ele>1595.55</ele>
  <time>2026-08-27T18:29:47Z</time>
  <course>25.22</course>
  <speed>0.01</speed>
  <fix>3d</fix>
</trkpt>
<trkpt lat="40.0728852" lon="-105.2309344">
  <ele>1595.46</ele>
  <time>2026-08-27T18:29:47Z</time>
  <course>330.85</course>
  <speed>0.03</speed>
  <fix>3d</fix>
</trkpt>
<trkpt lat="40.0728851" lon="-105.2309343">
  <ele>1595.55</ele>
  <time>2026-08-27T18:29:47Z</time>
  <course>26.33</course>
  <speed>0.0</speed>
  <fix>3d</fix>
</trkpt>
<trkpt lat="40.0728852" lon="-105.2309344">
  <ele>1595.46</ele>
  <time>2026-08-27T18:29:47Z</time>
  <course>332.34</course>
  <speed>0.03</speed>
  <fix>3d</fix>
</trkpt>
<trkpt lat="40.0728851" lon="-105.2309343">
  <ele>1595.56</ele>
  <time>2026-08-27T18:29:47Z</time>
  <course>27.08</course>
  <speed>0.0</speed>
  <fix>3d</fix>
</trkpt>
<trkpt lat="40.0728853" lon="-105.2309344">
  <ele>1595.46</ele>
  <time>2026-08-27T18:29:47Z</time>
  <course>335.19</course>
  <speed>0.03</speed>
  <fix>3d</fix>
</trkpt>
<trkpt lat="40.0728852" lon="-105.2309343">
  <ele>1595.56</ele>
  <time>2026-08-27T18:29:47Z</time>
  <course>27.36</course>
  <speed>0.0</speed>
  <fix>3d</fix>
</trkpt>
<trkpt lat="40.0728853" lon="-105.2309344">
  <ele>1595.46</ele>
  <time>2026-08-27T18:29:47Z</time>
  <course>339.62</course>
  <speed>0.03</speed>
  <fix>3d</fix>
</trkpt>
<trkpt lat="40.0728852" lon="-105.2309343">
  <ele>1595.56</ele>
  <time>2026-08-27T18:29:47Z</time>
  <course>27.17</course>
  <speed>0.0</speed>
  <fix>3d</fix>
</trkpt>
<trkpt lat="40.0728854" lon="-105.2309344">
  <ele>1595.47</ele>
  <time>2026-08-27T18:29:47Z</time>
  <course>345.16</course>
  <speed>0.02</speed>
  <fix>3d</fix>
</trkpt>
<trkpt lat="40.0728853" lon="-105.2309343">
  <ele>1595.56</ele>
  <time>2026-08-27T18:29:47Z</time>
  <course>26.53</course>
  <speed>0.01</speed>
  <fix>3d</fix>
</trkpt>
<trkpt lat="40.0728855" lon="-105.2309345">
  <ele>1595.47</ele>
  <time>2026-08-27T18:29:47Z</time>
  <course>350.29</course>
  <speed>0.02</speed>
  <fix>3d</fix>
</trkpt>
<trkpt lat="40.0728853" lon="-105.2309343">
  <ele>1595.55</ele>
  <time>2026-08-27T18:29:47Z</time>
  <course>25.47</course>
  <speed>0.01</speed>
  <fix>3d</fix>
</trkpt>
<trkpt lat="40.0728855" lon="-105.2309346">
  <ele>1595.47</ele>
  <time>2026-08-27T18:29:47Z</time>
  <course>354.34</course>
  <speed>0.02</speed>
  <fix>3d</fix>
</trkpt>
<trkpt lat="40.0728854" lon="-105.2309343">
  <ele>1595.55</ele>
  <time>2026-08-27T18:29:47Z</time>
  <course>24.1</course>
  <speed>0.01</speed>
  <fix>3d</fix>
</trkpt>
<trkpt lat="40.0728856" lon="-105.2309346">
  <ele>1595.47</ele>
  <time>2026-08-27T18:29:47Z</time>
  <course>357.53</course>
  <speed>0.02</speed>
  <fix>3d</fix>
</trkpt>
<trkpt lat="40.0728854" lon="-105.2309343">
  <ele>1595.56</ele>
  <time>2026-08-27T18:29:47Z</time>
  <course>22.59</course>
  <speed>0.01</speed>
  <fix>3d</fix>
</trkpt>
<trkpt lat="40.0728856" lon="-105.2309346">
  <ele>1595.47</ele>
  <time>2026-08-27T18:29:47Z</time>
  <course>359.16</course>
  <speed>0.02</speed>
  <fix>3d</fix>
</trkpt>
<trkpt lat="40.0728855" lon="-105.2309343">
  <ele>1595.56</ele>
  <time>2026-08-27T18:29:47Z</time>
  <course>21.08</course>
  <speed>0.01414213562373095</speed>
  <fix>3d</fix>
</trkpt>
<trkpt lat="40.0728857" lon="-105.2309346">
  <ele>1595.47</ele>
  <time>2026-08-27T18:29:47Z</time>
  <course>358.61</course>
  <speed>0.03</speed>
  <fix>3d</fix>
</trkpt>
<trkpt lat="40.0728856" lon="-105.2309344">
  <ele>1595.55</ele>
  <time>2026-08-27T18:29:47Z</time>
  <course>19.7</course>
  <speed>0.01</speed>
  <fix>3d</fix>
</trkpt>
<trkpt lat="40.0728857" lon="-105.2309346">
  <ele>1595.47</ele>
  <time>2026-08-27T18:29:47Z</time>
  <course>356.51</course>
  <speed>0.03</speed>
  <fix>3d</fix>
</trkpt>
<trkpt lat="40.0728856" lon="-105.2309344">
  <ele>1595.55</ele>
  <time>2026-08-27T18:29:47Z</time>
  <course>18.58</course>
  <speed>0.01</speed>
  <fix>3d</fix>
</trkpt>
<trkpt lat="40.0728858" lon="-105.2309346">
  <ele>1595.47</ele>
  <time>2026-08-27T18:29:47Z</time>
  <course>353.19</course>
  <speed>0.03</speed>
  <fix>3d</fix>
</trkpt>
<trkpt lat="40.0728857" lon="-105.2309344">
  <ele>1595.55</ele>
  <time>2026-08-27T18:29:47Z</time>
  <course>17.84</course>
  <speed>0.01</speed>
  <fix>3d</fix>
</trkpt>
<trkpt lat="40.0728858" lon="-105.2309346">
  <ele>1595.48</ele>
  <time>2026-08-27T18:29:47Z</time>
  <course>349.29</course>
  <speed>0.03</speed>
  <fix>3d</fix>
</trkpt>
<trkpt lat="40.0728857" lon="-105.2309344">
  <ele>1595.55</ele>
  <time>2026-08-27T18:29:47Z</time>
  <course>17.54</course>
  <speed>0.01</speed>
  <fix>3d</fix>
</trkpt>
<trkpt lat="40.0728859" lon="-105.2309346">
  <ele>1595.48</ele>
  <time>2026-08-27T18:29:47Z</time>
  <course>345.36</course>
  <speed>0.03</speed>
  <fix>3d</fix>
</trkpt>
<trkpt lat="40.0728858" lon="-105.2309345">
  <ele>1595.55</ele>
  <time>2026-08-27T18:29:47Z</time>
  <course>17.54</course>
  <speed>0.01</speed>
  <fix>3d</fix>
</trkpt>
<trkpt lat="40.0728859" lon="-105.2309346">
  <ele>1595.48</ele>
  <time>2026-08-27T18:29:47Z</time>
  <course>341.85</course>
  <speed>0.03</speed>
  <fix>3d</fix>
</trkpt>
<trkpt lat="40.0728859" lon="-105.2309345">
  <ele>1595.56</ele>
  <time>2026-08-27T18:29:47Z</time>
  <course>17.53</course>
  <speed>0.01</speed>
  <fix>3d</fix>
</trkpt>
<trkpt lat="40.072886" lon="-105.2309346">
  <ele>1595.48</ele>
  <time>2026-08-27T18:29:47Z</time>
  <course>340.74</course>
  <speed>0.03</speed>
  <fix>3d</fix>
</trkpt>
<trkpt lat="40.0728859" lon="-105.2309345">
  <ele>1595.56</ele>
  <time>2026-08-27T18:29:47Z</time>
  <course>17.54</course>
  <speed>0.01</speed>
  <fix>3d</fix>
</trkpt>
<trkpt lat="40.0728861" lon="-105.2309346">
  <ele>1595.48</ele>
  <time>2026-08-27T18:29:47Z</time>
  <course>342.0</course>
  <speed>0.04</speed>
  <fix>3d</fix>
</trkpt>
<trkpt lat="40.072886" lon="-105.2309345">
  <ele>1595.57</ele>
  <time>2026-08-27T18:29:47Z</time>
  <course>17.54</course>
  <speed>0.02</speed>
  <fix>3d</fix>
</trkpt>
<trkpt lat="40.0728862" lon="-105.2309346">
  <ele>1595.49</ele>
  <time>2026-08-27T18:29:47Z</time>
  <course>343.71</course>
  <speed>0.04</speed>
  <fix>3d</fix>
</trkpt>
<trkpt lat="40.0728861" lon="-105.2309345">
  <ele>1595.57</ele>
  <time>2026-08-27T18:29:47Z</time>
  <course>17.54</course>
  <speed>0.02</speed>
  <fix>3d</fix>
</trkpt>
<trkpt lat="40.0728862" lon="-105.2309347">
  <ele>1595.49</ele>
  <time>2026-08-27T18:29:47Z</time>
  <course>345.22</course>
  <speed>0.04</speed>
  <fix>3d</fix>
</trkpt>
<trkpt lat="40.0728862" lon="-105.2309346">
  <ele>1595.57</ele>
  <time>2026-08-27T18:29:47Z</time>
  <course>17.54</course>
  <speed>0.02</speed>
  <fix>3d</fix>
</trkpt>
<trkpt lat="40.0728863" lon="-105.2309348">
  <ele>1595.49</ele>
  <time>2026-08-27T18:29:47Z</time>
  <course>346.41</course>
  <speed>0.04</speed>
  <fix>3d</fix>
</trkpt>
<trkpt lat="40.0728862" lon="-105.2309346">
  <ele>1595.57</ele>
  <time>2026-08-27T18:29:47Z</time>
  <course>17.56</course>
  <speed>0.02</speed>
  <fix>3d</fix>
</trkpt>
<trkpt lat="40.0728864" lon="-105.2309348">
  <ele>1595.49</ele>
  <time>2026-08-27T18:29:47Z</time>
  <course>347.24</course>
  <speed>0.04</speed>
  <fix>3d</fix>
</trkpt>
<trkpt lat="40.0728863" lon="-105.2309346">
  <ele>1595.57</ele>
  <time>2026-08-27T18:29:47Z</time>
  <course>17.55</course>
  <speed>0.02</speed>
  <fix>3d</fix>
</trkpt>
<trkpt lat="40.0728865" lon="-105.2309348">
  <ele>1595.49</ele>
  <time>2026-08-27T18:29:47Z</time>
  <course>348.35</course>
  <speed>0.04</speed>
  <fix>3d</fix>
</trkpt>
<trkpt lat="40.0728864" lon="-105.2309346">
  <ele>1595.57</ele>
  <time>2026-08-27T18:29:47Z</time>
  <course>17.56</course>
  <speed>0.03</speed>
  <fix>3d</fix>
</trkpt>
<trkpt lat="40.0728866" lon="-105.2309348">
  <ele>1595.48</ele>
  <time>2026-08-27T18:29:47Z</time>
  <course>349.44</course>
  <speed>0.05</speed>
  <fix>3d</fix>
</trkpt>
<trkpt lat="40.0728865" lon="-105.2309347">
  <ele>1595.57</ele>
  <time>2026-08-27T18:29:47Z</time>
  <course>17.55</course>
  <speed>0.03</speed>
  <fix>3d</fix>
</trkpt>
<trkpt lat="40.0728867" lon="-105.2309349">
  <ele>1595.48</ele>
  <time>2026-08-27T18:29:47Z</time>
  <course>350.04</course>
  <speed>0.05</speed>
  <fix>3d</fix>
</trkpt>
<trkpt lat="40.0728866" lon="-105.2309347">
  <ele>1595.57</ele>
  <time>2026-08-27T18:29:47Z</time>
  <course>17.55</course>
  <speed>0.03</speed>
  <fix>3d</fix>
</trkpt>
<trkpt lat="40.0728868" lon="-105.2309349">
  <ele>1595.48</ele>
  <time>2026-08-27T18:29:47Z</time>
  <course>350.92</course>
  <speed>0.05</speed>
  <fix>3d</fix>
</trkpt>
<trkpt lat="40.0728867" lon="-105.2309347">
  <ele>1595.57</ele>
  <time>2026-08-27T18:29:47Z</time>
  <course>17.56</course>
  <speed>0.03</speed>
  <fix>3d</fix>
</trkpt>
<trkpt lat="40.0728869" lon="-105.2309349">
  <ele>1595.48</ele>
  <time>2026-08-27T18:29:47Z</time>
  <course>351.9</course>
  <speed>0.05</speed>
  <fix>3d</fix>
</trkpt>
<trkpt lat="40.0728868" lon="-105.2309347">
  <ele>1595.57</ele>
  <time>2026-08-27T18:29:47Z</time>
  <course>17.55</course>
  <speed>0.03</speed>
  <fix>3d</fix>
</trkpt>
<trkpt lat="40.072887" lon="-105.2309349">
  <ele>1595.48</ele>
  <time>2026-08-27T18:29:47Z</time>
  <course>352.54</course>
  <speed>0.05</speed>
  <fix>3d</fix>
</trkpt>
<trkpt lat="40.072887" lon="-105.2309347">
  <ele>1595.57</ele>
  <time>2026-08-27T18:29:47Z</time>
  <course>17.56</course>
  <speed>0.04</speed>
  <fix>3d</fix>
</trkpt>
<trkpt lat="40.0728871" lon="-105.2309349">
  <ele>1595.47</ele>
  <time>2026-08-27T18:29:47Z</time>
  <course>353.3</course>
  <speed>0.05</speed>
  <fix>3d</fix>
</trkpt>
<trkpt lat="40.0728871" lon="-105.2309348">
  <ele>1595.57</ele>
  <time>2026-08-27T18:29:47Z</time>
  <course>17.55</course>
  <speed>0.04</speed>
  <fix>3d</fix>
</trkpt>
<trkpt lat="40.0728872" lon="-105.230935">
  <ele>1595.47</ele>
  <time>2026-08-27T18:29:47Z</time>
  <course>354.01</course>
  <speed>0.06</speed>
  <fix>3d</fix>
</trkpt>
<trkpt lat="40.0728872" lon="-105.2309348">
  <ele>1595.56</ele>
  <time>2026-08-27T18:29:47Z</time>
  <course>17.55</course>
  <speed>0.04</speed>
  <fix>3d</fix>
</trkpt>
<trkpt lat="40.0728873" lon="-105.230935">
  <ele>1595.47</ele>
  <time>2026-08-27T18:29:47Z</time>
  <course>354.73</course>
  <speed>0.06</speed>
  <fix>3d</fix>
</trkpt>
<trkpt lat="40.0728873" lon="-105.2309348">
  <ele>1595.56</ele>
  <time>2026-08-27T18:29:47Z</time>
  <course>17.46</course>
  <speed>0.0412310562561766</speed>
  <fix>3d</fix>
</trkpt>
<trkpt lat="40.0728874" lon="-105.230935">
  <ele>1595.47</ele>
  <time>2026-08-27T18:29:47Z</time>
  <course>355.67</course>
  <speed>0.06</speed>
  <fix>3d</fix>
</trkpt>
<trkpt lat="40.0728874" lon="-105.2309348">
  <ele>1595.56</ele>
  <time>2026-08-27T18:29:47Z</time>
  <course>16.51</course>
  <speed>0.0412310562561766</speed>
  <fix>3d</fix>
</trkpt>
<trkpt lat="40.0728875" lon="-105.230935">
  <ele>1595.47</ele>
  <time>2026-08-27T18:29:47Z</time>
  <course>358.05</course>
  <speed>0.06</speed>
  <fix>3d</fix>
</trkpt>
<trkpt lat="40.0728875" lon="-105.2309348">
  <ele>1595.57</ele>
  <time>2026-08-27T18:29:47Z</time>
  <course>15.17</course>
  <speed>0.0412310562561766</speed>
  <fix>3d</fix>
</trkpt>
<trkpt lat="40.0728876" lon="-105.230935">
  <ele>1595.47</ele>
  <time>2026-08-27T18:29:47Z</time>
  <course>0.21</course>
  <speed>0.06</speed>
  <fix>3d</fix>
</trkpt>
<trkpt lat="40.0728876" lon="-105.2309348">
  <ele>1595.57</ele>
  <time>2026-08-27T18:29:47Z</time>
  <course>13.99</course>
  <speed>0.0412310562561766</speed>
  <fix>3d</fix>
</trkpt>
<trkpt lat="40.0728877" lon="-105.230935">
  <ele>1595.47</ele>
  <time>2026-08-27T18:29:47Z</time>
  <course>359.56</course>
  <speed>0.06</speed>
  <fix>3d</fix>
</trkpt>
<trkpt lat="40.0728877" lon="-105.2309348">
  <ele>1595.56</ele>
  <time>2026-08-27T18:29:47Z</time>
  <course>13.12</course>
  <speed>0.03</speed>
  <fix>3d</fix>
</trkpt>
<trkpt lat="40.0728879" lon="-105.230935">
  <ele>1595.46</ele>
  <time>2026-08-27T18:29:47Z</time>
  <course>357.3</course>
  <speed>0.05</speed>
  <fix>3d</fix>
</trkpt>
<trkpt lat="40.0728878" lon="-105.2309348">
  <ele>1595.55</ele>
  <time>2026-08-27T18:29:47Z</time>
  <course>12.68</course>
  <speed>0.03</speed>
  <fix>3d</fix>
</trkpt>
<trkpt lat="40.072888" lon="-105.230935">
  <ele>1595.46</ele>
  <time>2026-08-27T18:29:47Z</time>
  <course>354.56</course>
  <speed>0.05</speed>
  <fix>3d</fix>
</trkpt>
<trkpt lat="40.0728879" lon="-105.2309349">
  <ele>1595.54</ele>
  <time>2026-08-27T18:29:47Z</time>
  <course>12.71</course>
  <speed>0.02</speed>
  <fix>3d</fix>
</trkpt>
<trkpt lat="40.0728881" lon="-105.230935">
  <ele>1595.46</ele>
  <time>2026-08-27T18:29:47Z</time>
  <course>351.35</course>
  <speed>0.05</speed>
  <fix>3d</fix>
</trkpt>
<trkpt lat="40.072888" lon="-105.2309349">
  <ele>1595.54</ele>
  <time>2026-08-27T18:29:47Z</time>
  <course>13.18</course>
  <speed>0.02</speed>
  <fix>3d</fix>
</trkpt>
<trkpt lat="40.0728881" lon="-105.230935">
  <ele>1595.46</ele>
  <time>2026-08-27T18:29:47Z</time>
  <course>347.04</course>
  <speed>0.04</speed>
  <fix>3d</fix>
</trkpt>
<trkpt lat="40.0728881" lon="-105.2309349">
  <ele>1595.54</ele>
  <time>2026-08-27T18:29:47Z</time>
  <course>14.1</course>
  <speed>0.01</speed>
  <fix>3d</fix>
</trkpt>
<trkpt lat="40.0728882" lon="-105.2309351">
  <ele>1595.46</ele>
  <time>2026-08-27T18:29:47Z</time>
  <course>341.34</course>
  <speed>0.04</speed>
  <fix>3d</fix>
</trkpt>
<trkpt lat="40.0728881" lon="-105.2309349">
  <ele>1595.54</ele>
  <time>2026-08-27T18:29:47Z</time>
  <course>15.37</course>
  <speed>0.01</speed>
  <fix>3d</fix>
</trkpt>
<trkpt lat="40.0728883" lon="-105.2309351">
  <ele>1595.47</ele>
  <time>2026-08-27T18:29:47Z</time>
  <course>335.17</course>
  <speed>0.04</speed>
  <fix>3d</fix>
</trkpt>
<trkpt lat="40.0728882" lon="-105.230935">
  <ele>1595.55</ele>
  <time>2026-08-27T18:29:47Z</time>
  <course>16.87</course>
  <speed>0.01</speed>
  <fix>3d</fix>
</trkpt>
<trkpt lat="40.0728883" lon="-105.2309351">
  <ele>1595.47</ele>
  <time>2026-08-27T18:29:47Z</time>
  <course>329.61</course>
  <speed>0.03</speed>
  <fix>3d</fix>
</trkpt>
<trkpt lat="40.0728883" lon="-105.230935">
  <ele>1595.55</ele>
  <time>2026-08-27T18:29:47Z</time>
  <course>18.42</course>
  <speed>0.0</speed>
  <fix>3d</fix>
</trkpt>
<trkpt lat="40.0728884" lon="-105.2309351">
  <ele>1595.48</ele>
  <time>2026-08-27T18:29:47Z</time>
  <course>325.26</course>
  <speed>0.03</speed>
  <fix>3d</fix>
</trkpt>
<trkpt lat="40.0728883" lon="-105.2309351">
  <ele>1595.55</ele>
  <time>2026-08-27T18:29:47Z</time>
  <course>19.88</course>
  <speed>0.0</speed>
  <fix>3d</fix>
</trkpt>
<trkpt lat="40.0728885" lon="-105.2309352">
  <ele>1595.48</ele>
  <time>2026-08-27T18:29:47Z</time>
  <course>323.4</course>
  <speed>0.03</speed>
  <fix>3d</fix>
</trkpt>
<trkpt lat="40.0728884" lon="-105.2309351">
  <ele>1595.55</ele>
  <time>2026-08-27T18:29:47Z</time>
  <course>21.09</course>
  <speed>0.0</speed>
  <fix>3d</fix>
</trkpt>
<trkpt lat="40.0728885" lon="-105.2309353">
  <ele>1595.49</ele>
  <time>2026-08-27T18:29:47Z</time>
  <course>323.77</course>
  <speed>0.03</speed>
  <fix>3d</fix>
</trkpt>
<trkpt lat="40.0728884" lon="-105.2309351">
  <ele>1595.56</ele>
  <time>2026-08-27T18:29:47Z</time>
  <course>21.97</course>
  <speed>0.0</speed>
  <fix>3d</fix>
</trkpt>
<trkpt lat="40.0728886" lon="-105.2309353">
  <ele>1595.49</ele>
  <time>2026-08-27T18:29:47Z</time>
  <course>325.61</course>
  <speed>0.02</speed>
  <fix>3d</fix>
</trkpt>
<trkpt lat="40.0728884" lon="-105.2309352">
  <ele>1595.56</ele>
  <time>2026-08-27T18:29:47Z</time>
  <course>22.41</course>
  <speed>0.0</speed>
  <fix>3d</fix>
</trkpt>
<trkpt lat="40.0728886" lon="-105.2309353">
  <ele>1595.49</ele>
  <time>2026-08-27T18:29:47Z</time>
  <course>329.84</course>
  <speed>0.02</speed>
  <fix>3d</fix>
</trkpt>
<trkpt lat="40.0728885" lon="-105.2309352">
  <ele>1595.56</ele>
  <time>2026-08-27T18:29:47Z</time>
  <course>22.36</course>
  <speed>0.0</speed>
  <fix>3d</fix>
</trkpt>
<trkpt lat="40.0728887" lon="-105.2309353">
  <ele>1595.49</ele>
  <time>2026-08-27T18:29:47Z</time>
  <course>336.24</course>
  <speed>0.02</speed>
  <fix>3d</fix>
</trkpt>
<trkpt lat="40.0728885" lon="-105.2309352">
  <ele>1595.56</ele>
  <time>2026-08-27T18:29:47Z</time>
  <course>21.84</course>
  <speed>0.01</speed>
  <fix>3d</fix>
</trkpt>
<trkpt lat="40.0728887" lon="-105.2309353">
  <ele>1595.5</ele>
  <time>2026-08-27T18:29:47Z</time>
  <course>342.99</course>
  <speed>0.02</speed>
  <fix>3d</fix>
</trkpt>
<trkpt lat="40.0728886" lon="-105.2309352">
  <ele>1595.56</ele>
  <time>2026-08-27T18:29:47Z</time>
  <course>20.9</course>
  <speed>0.01</speed>
  <fix>3d</fix>
</trkpt>
<trkpt lat="40.0728888" lon="-105.2309354">
  <ele>1595.5</ele>
  <time>2026-08-27T18:29:47Z</time>
  <course>348.32</course>
  <speed>0.02</speed>
  <fix>3d</fix>
</trkpt>
<trkpt lat="40.0728886" lon="-105.2309352">
  <ele>1595.57</ele>
  <time>2026-08-27T18:29:47Z</time>
  <course>19.61</course>
  <speed>0.01</speed>
  <fix>3d</fix>
</trkpt>
<trkpt lat="40.0728888" lon="-105.2309355">
  <ele>1595.5</ele>
  <time>2026-08-27T18:29:47Z</time>
  <course>351.43</course>
  <speed>0.02</speed>
  <fix>3d</fix>
</trkpt>
<trkpt lat="40.0728887" lon="-105.2309352">
  <ele>1595.57</ele>
  <time>2026-08-27T18:29:47Z</time>
  <course>18.15</course>
  <speed>0.01414213562373095</speed>
  <fix>3d</fix>
</trkpt>
<trkpt lat="40.0728888" lon="-105.2309355">
  <ele>1595.5</ele>
  <time>2026-08-27T18:29:47Z</time>
  <course>352.03</course>
  <speed>0.02</speed>
  <fix>3d</fix>
</trkpt>
<trkpt lat="40.0728887" lon="-105.2309352">
  <ele>1595.57</ele>
  <time>2026-08-27T18:29:47Z</time>
  <course>16.66</course>
  <speed>0.01414213562373095</speed>
  <fix>3d</fix>
</trkpt>
<trkpt lat="40.0728889" lon="-105.2309355">
  <ele>1595.5</ele>
  <time>2026-08-27T18:29:47Z</time>
  <course>350.73</course>
  <speed>0.03</speed>
  <fix>3d</fix>
</trkpt>
<trkpt lat="40.0728888" lon="-105.2309353">
  <ele>1595.57</ele>
  <time>2026-08-27T18:29:47Z</time>
  <course>15.22</course>
  <speed>0.01</speed>
  <fix>3d</fix>
</trkpt>
<trkpt lat="40.0728889" lon="-105.2309355">
  <ele>1595.5</ele>
  <time>2026-08-27T18:29:47Z</time>
  <course>348.85</course>
  <speed>0.03</speed>
  <fix>3d</fix>
</trkpt>
<trkpt lat="40.0728888" lon="-105.2309353">
  <ele>1595.57</ele>
  <time>2026-08-27T18:29:47Z</time>
  <course>14.0</course>
  <speed>0.01</speed>
  <fix>3d</fix>
</trkpt>
<trkpt lat="40.072889" lon="-105.2309355">
  <ele>1595.49</ele>
  <time>2026-08-27T18:29:47Z</time>
  <course>346.18</course>
  <speed>0.03</speed>
  <fix>3d</fix>
</trkpt>
<trkpt lat="40.0728889" lon="-105.2309353">
  <ele>1595.57</ele>
  <time>2026-08-27T18:29:47Z</time>
  <course>13.12</course>
  <speed>0.01</speed>
  <fix>3d</fix>
</trkpt>
<trkpt lat="40.0728891" lon="-105.2309355">
  <ele>1595.49</ele>
  <time>2026-08-27T18:29:47Z</time>
  <course>342.51</course>
  <speed>0.03</speed>
  <fix>3d</fix>
</trkpt>
<trkpt lat="40.072889" lon="-105.2309353">
  <ele>1595.57</ele>
  <time>2026-08-27T18:29:47Z</time>
  <course>12.7</course>
  <speed>0.01</speed>
  <fix>3d</fix>
</trkpt>
<trkpt lat="40.0728891" lon="-105.2309355">
  <ele>1595.49</ele>
  <time>2026-08-27T18:29:47Z</time>
  <course>338.08</course>
  <speed>0.03</speed>
  <fix>3d</fix>
</trkpt>
<trkpt lat="40.072889" lon="-105.2309354">
  <ele>1595.57</ele>
  <time>2026-08-27T18:29:47Z</time>
  <course>12.72</course>
  <speed>0.01</speed>
  <fix>3d</fix>
</trkpt>
<trkpt lat="40.0728892" lon="-105.2309356">
  <ele>1595.49</ele>
  <time>2026-08-27T18:29:47Z</time>
  <course>334.2</course>
  <speed>0.03</speed>
  <fix>3d</fix>
</trkpt>
<trkpt lat="40.0728891" lon="-105.2309354">
  <ele>1595.57</ele>
  <time>2026-08-27T18:29:47Z</time>
  <course>13.27</course>
  <speed>0.01</speed>
  <fix>3d</fix>
</trkpt>
<trkpt lat="40.0728893" lon="-105.2309356">
  <ele>1595.49</ele>
  <time>2026-08-27T18:29:47Z</time>
  <course>331.41</course>
  <speed>0.03</speed>
  <fix>3d</fix>
</trkpt>
<trkpt lat="40.0728891" lon="-105.2309355">
  <ele>1595.57</ele>
  <time>2026-08-27T18:29:47Z</time>
  <course>14.21</course>
  <speed>0.01</speed>
  <fix>3d</fix>
</trkpt>
<trkpt lat="40.0728893" lon="-105.2309356">
  <ele>1595.48</ele>
  <time>2026-08-27T18:29:47Z</time>
  <course>329.09</course>
  <speed>0.03</speed>
  <fix>3d</fix>
</trkpt>
<trkpt lat="40.0728892" lon="-105.2309355">
  <ele>1595.57</ele>
  <time>2026-08-27T18:29:47Z</time>
  <course>15.49</course>
  <speed>0.01</speed>
  <fix>3d</fix>
</trkpt>
<trkpt lat="40.0728894" lon="-105.2309356">
  <ele>1595.48</ele>
  <time>2026-08-27T18:29:47Z</time>
  <course>327.24</course>
  <speed>0.03</speed>
  <fix>3d</fix>
</trkpt>
<trkpt lat="40.0728893" lon="-105.2309356">
  <ele>1595.57</ele>
  <time>2026-08-27T18:29:47Z</time>
  <course>16.95</course>
  <speed>0.01</speed>
  <fix>3d</fix>
</trkpt>
<trkpt lat="40.0728894" lon="-105.2309357">
  <ele>1595.48</ele>
  <time>2026-08-27T18:29:47Z</time>
  <course>326.1</course>
  <speed>0.03</speed>
  <fix>3d</fix>
</trkpt>
<trkpt lat="40.0728893" lon="-105.2309356">
  <ele>1595.57</ele>
  <time>2026-08-27T18:29:47Z</time>
  <course>18.46</course>
  <speed>0.01</speed>
  <fix>3d</fix>
</trkpt>
<trkpt lat="40.0728894" lon="-105.2309358">
  <ele>1595.48</ele>
  <time>2026-08-27T18:29:47Z</time>
  <course>326.04</course>
  <speed>0.03</speed>
  <fix>3d</fix>
</trkpt>
<trkpt lat="40.0728894" lon="-105.2309357">
  <ele>1595.57</ele>
  <time>2026-08-27T18:29:47Z</time>
  <course>19.89</course>
  <speed>0.01</speed>
  <fix>3d</fix>
</trkpt>
<trkpt lat="40.0728895" lon="-105.2309358">
  <ele>1595.47</ele>
  <time>2026-08-27T18:29:47Z</time>
  <course>326.78</course>
  <speed>0.03</speed>
  <fix>3d</fix>
</trkpt>
<trkpt lat="40.0728894" lon="-105.2309357">
  <ele>1595.57</ele>
  <time>2026-08-27T18:29:47Z</time>
  <course>21.14</course>
  <speed>0.01</speed>
  <fix>3d</fix>
</trkpt>
<trkpt lat="40.0728896" lon="-105.2309358">
  <ele>1595.47</ele>
  <time>2026-08-27T18:29:47Z</time>
  <course>328.11</course>
  <speed>0.03</speed>
  <fix>3d</fix>
</trkpt>
<trkpt lat="40.0728895" lon="-105.2309357">
  <ele>1595.57</ele>
  <time>2026-08-27T18:29:47Z</time>
  <course>22.01</course>
  <speed>0.0</speed>
  <fix>3d</fix>
</trkpt>
<trkpt lat="40.0728897" lon="-105.2309359">
  <ele>1595.47</ele>
  <time>2026-08-27T18:29:47Z</time>
  <course>330.36</course>
  <speed>0.03</speed>
  <fix>3d</fix>
</trkpt>
<trkpt lat="40.0728895" lon="-105.2309358">
  <ele>1595.56</ele>
  <time>2026-08-27T18:29:47Z</time>
  <course>22.42</course>
  <speed>0.0</speed>
  <fix>3d</fix>
</trkpt>
<trkpt lat="40.0728897" lon="-105.230936">
  <ele>1595.47</ele>
  <time>2026-08-27T18:29:47Z</time>
  <course>333.46</course>
  <speed>0.03</speed>
  <fix>3d</fix>
</trkpt>
<trkpt lat="40.0728896" lon="-105.2309358">
  <ele>1595.56</ele>
  <time>2026-08-27T18:29:47Z</time>
  <course>22.37</course>
  <speed>0.0</speed>
  <fix>3d</fix>
</trkpt>
<trkpt lat="40.0728898" lon="-105.230936">
  <ele>1595.46</ele>
  <time>2026-08-27T18:29:47Z</time>
  <course>337.37</course>
  <speed>0.03</speed>
  <fix>3d</fix>
</trkpt>
<trkpt lat="40.0728896" lon="-105.2309358">
  <ele>1595.56</ele>
  <time>2026-08-27T18:29:47Z</time>
  <course>21.85</course>
  <speed>0.0</speed>
  <fix>3d</fix>
</trkpt>
<trkpt lat="40.0728898" lon="-105.230936">
  <ele>1595.46</ele>
  <time>2026-08-27T18:29:47Z</time>
  <course>341.71</course>
  <speed>0.03</speed>
  <fix>3d</fix>
</trkpt>
<trkpt lat="40.0728897" lon="-105.2309358">
  <ele>1595.55</ele>
  <time>2026-08-27T18:29:47Z</time>
  <course>20.89</course>
  <speed>0.01</speed>
  <fix>3d</fix>
</trkpt>
<trkpt lat="40.0728899" lon="-105.230936">
  <ele>1595.46</ele>
  <time>2026-08-27T18:29:47Z</time>
  <course>345.82</course>
  <speed>0.02</speed>
  <fix>3d</fix>
</trkpt>
<trkpt lat="40.0728898" lon="-105.2309358">
  <ele>1595.55</ele>
  <time>2026-08-27T18:29:47Z</time>
  <course>19.6</course>
  <speed>0.01</speed>
  <fix>3d</fix>
</trkpt>
<trkpt lat="40.0728899" lon="-105.230936">
  <ele>1595.46</ele>
  <time>2026-08-27T18:29:47Z</time>
  <course>349.74</course>
  <speed>0.02</speed>
  <fix>3d</fix>
</trkpt>
<trkpt lat="40.0728898" lon="-105.2309358">
  <ele>1595.55</ele>
  <time>2026-08-27T18:29:47Z</time>
  <course>18.13</course>
  <speed>0.01414213562373095</speed>
  <fix>3d</fix>
</trkpt>
<trkpt lat="40.07289" lon="-105.230936">
  <ele>1595.46</ele>
  <time>2026-08-27T18:29:47Z</time>
  <course>352.95</course>
  <speed>0.03</speed>
  <fix>3d</fix>
</trkpt>
<trkpt lat="40.0728899" lon="-105.2309358">
  <ele>1595.56</ele>
  <time>2026-08-27T18:29:47Z</time>
  <course>16.6</course>
  <speed>0.01414213562373095</speed>
  <fix>3d</fix>
</trkpt>
<trkpt lat="40.07289" lon="-105.230936">
  <ele>1595.46</ele>
  <time>2026-08-27T18:29:47Z</time>
  <course>354.53</course>
  <speed>0.03</speed>
  <fix>3d</fix>
</trkpt>
<trkpt lat="40.0728899" lon="-105.2309359">
  <ele>1595.56</ele>
  <time>2026-08-27T18:29:47Z</time>
  <course>15.18</course>
  <speed>0.01414213562373095</speed>
  <fix>3d</fix>
</trkpt>
<trkpt lat="40.0728901" lon="-105.230936">
  <ele>1595.46</ele>
  <time>2026-08-27T18:29:47Z</time>
  <course>353.71</course>
  <speed>0.03</speed>
  <fix>3d</fix>
</trkpt>
<trkpt lat="40.07289" lon="-105.2309359">
  <ele>1595.56</ele>
  <time>2026-08-27T18:29:47Z</time>
  <course>13.95</course>
  <speed>0.01</speed>
  <fix>3d</fix>
</trkpt>
<trkpt lat="40.0728901" lon="-105.230936">
  <ele>1595.47</ele>
  <time>2026-08-27T18:29:47Z</time>
  <course>350.99</course>
  <speed>0.03</speed>
  <fix>3d</fix>
</trkpt>
<trkpt lat="40.0728901" lon="-105.2309359">
  <ele>1595.56</ele>
  <time>2026-08-27T18:29:47Z</time>
  <course>13.1</course>
  <speed>0.01</speed>
  <fix>3d</fix>
</trkpt>
<trkpt lat="40.0728902" lon="-105.2309361">
  <ele>1595.47</ele>
  <time>2026-08-27T18:29:47Z</time>
  <course>346.79</course>
  <speed>0.03</speed>
  <fix>3d</fix>
</trkpt>
<trkpt lat="40.0728901" lon="-105.2309359">
  <ele>1595.56</ele>
  <time>2026-08-27T18:29:47Z</time>
  <course>12.69</course>
  <speed>0.01</speed>
  <fix>3d</fix>
</trkpt>
<trkpt lat="40.0728903" lon="-105.2309362">
  <ele>1595.47</ele>
  <time>2026-08-27T18:29:47Z</time>
  <course>341.51</course>
  <speed>0.03</speed>
  <fix>3d</fix>
</trkpt>
<trkpt lat="40.0728902" lon="-105.2309359">
  <ele>1595.56</ele>
  <time>2026-08-27T18:29:47Z</time>
  <course>12.71</course>
  <speed>0.01</speed>
  <fix>3d</fix>
</trkpt>
<trkpt lat="40.0728903" lon="-105.2309362">
  <ele>1595.47</ele>
  <time>2026-08-27T18:29:47Z</time>
  <course>336.85</course>
  <speed>0.03</speed>
  <fix>3d</fix>
</trkpt>
<trkpt lat="40.0728902" lon="-105.230936">
  <ele>1595.57</ele>
  <time>2026-08-27T18:29:47Z</time>
  <course>13.24</course>
  <speed>0.01</speed>
  <fix>3d</fix>
</trkpt>
<trkpt lat="40.0728904" lon="-105.2309362">
  <ele>1595.47</ele>
  <time>2026-08-27T18:29:47Z</time>
  <course>332.84</course>
  <speed>0.03</speed>
  <fix>3d</fix>
</trkpt>
<trkpt lat="40.0728903" lon="-105.230936">
  <ele>1595.56</ele>
  <time>2026-08-27T18:29:47Z</time>
  <course>14.2</course>
  <speed>0.01</speed>
  <fix>3d</fix>
</trkpt>
<trkpt lat="40.0728905" lon="-105.2309363">
  <ele>1595.46</ele>
  <time>2026-08-27T18:29:47Z</time>
  <course>328.72</course>
  <speed>0.03</speed>
  <fix>3d</fix>
</trkpt>
<trkpt lat="40.0728904" lon="-105.2309361">
  <ele>1595.56</ele>
  <time>2026-08-27T18:29:47Z</time>
  <course>15.46</course>
  <speed>0.01</speed>
  <fix>3d</fix>
</trkpt>
<trkpt lat="40.0728905" lon="-105.2309363">
  <ele>1595.46</ele>
  <time>2026-08-27T18:29:47Z</time>
  <course>325.56</course>
  <speed>0.03</speed>
  <fix>3d</fix>
</trkpt>
<trkpt lat="40.0728904" lon="-105.2309362">
  <ele>1595.56</ele>
  <time>2026-08-27T18:29:47Z</time>
  <course>16.95</course>
  <speed>0.01</speed>
  <fix>3d</fix>
</trkpt>
<trkpt lat="40.0728906" lon="-105.2309363">
  <ele>1595.46</ele>
  <time>2026-08-27T18:29:47Z</time>
  <course>323.63</course>
  <speed>0.03</speed>
  <fix>3d</fix>
</trkpt>
<trkpt lat="40.0728905" lon="-105.2309362">
  <ele>1595.56</ele>
  <time>2026-08-27T18:29:47Z</time>
  <course>18.47</course>
  <speed>0.01</speed>
  <fix>3d</fix>
</trkpt>
<trkpt lat="40.0728906" lon="-105.2309364">
  <ele>1595.46</ele>
  <time>2026-08-27T18:29:47Z</time>
  <course>322.65</course>
  <speed>0.03</speed>
  <fix>3d</fix>
</trkpt>
<trkpt lat="40.0728905" lon="-105.2309363">
  <ele>1595.56</ele>
  <time>2026-08-27T18:29:47Z</time>
  <course>19.91</course>
  <speed>0.0</speed>
  <fix>3d</fix>
</trkpt>
<trkpt lat="40.0728906" lon="-105.2309365">
  <ele>1595.46</ele>
  <time>2026-08-27T18:29:47Z</time>
  <course>322.6</course>
  <speed>0.03</speed>
  <fix>3d</fix>
</trkpt>
<trkpt lat="40.0728906" lon="-105.2309363">
  <ele>1595.56</ele>
  <time>2026-08-27T18:29:47Z</time>
  <course>21.12</course>
  <speed>0.0</speed>
  <fix>3d</fix>
</trkpt>
<trkpt lat="40.0728907" lon="-105.2309365">
  <ele>1595.46</ele>
  <time>2026-08-27T18:29:47Z</time>
  <course>323.42</course>
  <speed>0.03</speed>
  <fix>3d</fix>
</trkpt>
<trkpt lat="40.0728906" lon="-105.2309364">
  <ele>1595.56</ele>
  <time>2026-08-27T18:29:47Z</time>
  <course>21.98</course>
  <speed>0.0</speed>
  <fix>3d</fix>
</trkpt>
<trkpt lat="40.0728907" lon="-105.2309365">
  <ele>1595.46</ele>
  <time>2026-08-27T18:29:47Z</time>
  <course>325.78</course>
  <speed>0.03</speed>
  <fix>3d</fix>
</trkpt>
<trkpt lat="40.0728906" lon="-105.2309364">
  <ele>1595.56</ele>
  <time>2026-08-27T18:29:47Z</time>
  <course>22.41</course>
  <speed>0.0</speed>
  <fix>3d</fix>
</trkpt>
<trkpt lat="40.0728908" lon="-105.2309365">
  <ele>1595.46</ele>
  <time>2026-08-27T18:29:47Z</time>
  <course>330.08</course>
  <speed>0.02</speed>
  <fix>3d</fix>
</trkpt>
<trkpt lat="40.0728907" lon="-105.2309364">
  <ele>1595.56</ele>
  <time>2026-08-27T18:29:47Z</time>
  <course>22.36</course>
  <speed>0.0</speed>
  <fix>3d</fix>
</trkpt>
<trkpt lat="40.0728909" lon="-105.2309366">
  <ele>1595.46</ele>
  <time>2026-08-27T18:29:47Z</time>
  <course>336.07</course>
  <speed>0.02</speed>
  <fix>3d</fix>
</trkpt>
<trkpt lat="40.0728907" lon="-105.2309364">
  <ele>1595.55</ele>
  <time>2026-08-27T18:29:47Z</time>
  <course>21.83</course>
  <speed>0.0</speed>
  <fix>3d</fix>
</trkpt>
<trkpt lat="40.0728909" lon="-105.2309367">
  <ele>1595.46</ele>
  <time>2026-08-27T18:29:47Z</time>
  <course>342.72</course>
  <speed>0.02</speed>
  <fix>3d</fix>
</trkpt>
<trkpt lat="40.0728908" lon="-105.2309364">
  <ele>1595.55</ele>
  <time>2026-08-27T18:29:47Z</time>
  <course>20.9</course>
  <speed>0.0</speed>
  <fix>3d</fix>
</trkpt>
<trkpt lat="40.072891" lon="-105.2309367">
  <ele>1595.46</ele>
  <time>2026-08-27T18:29:47Z</time>
  <course>348.27</course>
  <speed>0.02</speed>
  <fix>3d</fix>
</trkpt>
<trkpt lat="40.0728908" lon="-105.2309365">
  <ele>1595.54</ele>
  <time>2026-08-27T18:29:47Z</time>
  <course>19.61</course>
  <speed>0.01</speed>
  <fix>3d</fix>
</trkpt>
<trkpt lat="40.072891" lon="-105.2309367">
  <ele>1595.46</ele>
  <time>2026-08-27T18:29:47Z</time>
  <course>353.59</course>
  <speed>0.02</speed>
  <fix>3d</fix>
</trkpt>
<trkpt lat="40.0728909" lon="-105.2309365">
  <ele>1595.54</ele>
  <time>2026-08-27T18:29:47Z</time>
  <course>18.12</course>
  <speed>0.01</speed>
  <fix>3d</fix>
</trkpt>
<trkpt lat="40.072891" lon="-105.2309367">
  <ele>1595.46</ele>
  <time>2026-08-27T18:29:47Z</time>
  <course>358.76</course>
  <speed>0.02</speed>
  <fix>3d</fix>
</trkpt>
<trkpt lat="40.0728909" lon="-105.2309365">
  <ele>1595.54</ele>
  <time>2026-08-27T18:29:47Z</time>
  <course>16.6</course>
  <speed>0.01</speed>
  <fix>3d</fix>
</trkpt>
<trkpt lat="40.0728911" lon="-105.2309367">
  <ele>1595.46</ele>
  <time>2026-08-27T18:29:47Z</time>
  <course>0.47</course>
  <speed>0.02</speed>
  <fix>3d</fix>
</trkpt>
<trkpt lat="40.072891" lon="-105.2309365">
  <ele>1595.54</ele>
  <time>2026-08-27T18:29:47Z</time>
  <course>15.12</course>
  <speed>0.01</speed>
  <fix>3d</fix>
</trkpt>
<trkpt lat="40.0728911" lon="-105.2309367">
  <ele>1595.46</ele>
  <time>2026-08-27T18:29:47Z</time>
  <course>359.11</course>
  <speed>0.02</speed>
  <fix>3d</fix>
</trkpt>
<trkpt lat="40.072891" lon="-105.2309365">
  <ele>1595.54</ele>
  <time>2026-08-27T18:29:47Z</time>
  <course>13.9</course>
  <speed>0.01</speed>
  <fix>3d</fix>
</trkpt>
<trkpt lat="40.0728912" lon="-105.2309367">
  <ele>1595.47</ele>
  <time>2026-08-27T18:29:47Z</time>
  <course>355.25</course>
  <speed>0.02</speed>
  <fix>3d</fix>
</trkpt>
<trkpt lat="40.0728911" lon="-105.2309365">
  <ele>1595.54</ele>
  <time>2026-08-27T18:29:47Z</time>
  <course>13.04</course>
  <speed>0.01</speed>
  <fix>3d</fix>
</trkpt>
<trkpt lat="40.0728912" lon="-105.2309367">
  <ele>1595.47</ele>
  <time>2026-08-27T18:29:47Z</time>
  <course>349.27</course>
  <speed>0.02</speed>
  <fix>3d</fix>
</trkpt>
<trkpt lat="40.0728911" lon="-105.2309365">
  <ele>1595.55</ele>
  <time>2026-08-27T18:29:47Z</time>
  <course>12.62</course>
  <speed>0.01</speed>
  <fix>3d</fix>
</trkpt>
<trkpt lat="40.0728912" lon="-105.2309367">
  <ele>1595.48</ele>
  <time>2026-08-27T18:29:47Z</time>
  <course>343.59</course>
  <speed>0.02</speed>
  <fix>3d</fix>
</trkpt>
<trkpt lat="40.0728912" lon="-105.2309366">
  <ele>1595.56</ele>
  <time>2026-08-27T18:29:47Z</time>
  <course>12.68</course>
  <speed>0.01</speed>
  <fix>3d</fix>
</trkpt>
<trkpt lat="40.0728913" lon="-105.2309367">
  <ele>1595.48</ele>
  <time>2026-08-27T18:29:47Z</time>
  <course>338.49</course>
  <speed>0.02</speed>
  <fix>3d</fix>
</trkpt>
<trkpt lat="40.0728912" lon="-105.2309366">
  <ele>1595.57</ele>
  <time>2026-08-27T18:29:47Z</time>
  <course>13.26</course>
  <speed>0.01</speed>
  <fix>3d</fix>
</trkpt>
<trkpt lat="40.0728913" lon="-105.2309367">
  <ele>1595.49</ele>
  <time>2026-08-27T18:29:47Z</time>
  <course>334.02</course>
  <speed>0.03</speed>
  <fix>3d</fix>
</trkpt>
<trkpt lat="40.0728913" lon="-105.2309366">
  <ele>1595.57</ele>
  <time>2026-08-27T18:29:47Z</time>
  <course>14.2</course>
  <speed>0.01</speed>
  <fix>3d</fix>
</trkpt>
<trkpt lat="40.0728914" lon="-105.2309368">
  <ele>1595.49</ele>
  <time>2026-08-27T18:29:47Z</time>
  <course>330.42</course>
  <speed>0.03</speed>
  <fix>3d</fix>
</trkpt>
<trkpt lat="40.0728913" lon="-105.2309367">
  <ele>1595.58</ele>
  <time>2026-08-27T18:29:47Z</time>
  <course>15.49</course>
  <speed>0.01</speed>
  <fix>3d</fix>
</trkpt>
<trkpt lat="40.0728915" lon="-105.2309368">
  <ele>1595.49</ele>
  <time>2026-08-27T18:29:47Z</time>
  <course>327.44</course>
  <speed>0.03</speed>
  <fix>3d</fix>
</trkpt>
<trkpt lat="40.0728914" lon="-105.2309367">
  <ele>1595.58</ele>
  <time>2026-08-27T18:29:47Z</time>
  <course>16.95</course>
  <speed>0.01</speed>
  <fix>3d</fix>
</trkpt>
<trkpt lat="40.0728915" lon="-105.2309368">
  <ele>1595.49</ele>
  <time>2026-08-27T18:29:47Z</time>
  <course>325.95</course>
  <speed>0.03</speed>
  <fix>3d</fix>
</trkpt>
<trkpt lat="40.0728914" lon="-105.2309368">
  <ele>1595.57</ele>
  <time>2026-08-27T18:29:47Z</time>
  <course>18.49</course>
  <speed>0.01</speed>
  <fix>3d</fix>
</trkpt>
<trkpt lat="40.0728916" lon="-105.2309368">
  <ele>1595.49</ele>
  <time>2026-08-27T18:29:47Z</time>
  <course>325.85</course>
  <speed>0.02</speed>
  <fix>3d</fix>
</trkpt>
<trkpt lat="40.0728915" lon="-105.2309368">
  <ele>1595.57</ele>
  <time>2026-08-27T18:29:47Z</time>
  <course>19.93</course>
  <speed>0.01</speed>
  <fix>3d</fix>
</trkpt>
<trkpt lat="40.0728916" lon="-105.2309369">
  <ele>1595.49</ele>
  <time>2026-08-27T18:29:47Z</time>
  <course>326.38</course>
  <speed>0.02</speed>
  <fix>3d</fix>
</trkpt>
<trkpt lat="40.0728915" lon="-105.2309368">
  <ele>1595.58</ele>
  <time>2026-08-27T18:29:47Z</time>
  <course>21.15</course>
  <speed>0.0</speed>
  <fix>3d</fix>
</trkpt>
<trkpt lat="40.0728916" lon="-105.230937">
  <ele>1595.48</ele>
  <time>2026-08-27T18:29:47Z</time>
  <course>328.15</course>
  <speed>0.02</speed>
  <fix>3d</fix>
</trkpt>
<trkpt lat="40.0728915" lon="-105.2309368">
  <ele>1595.58</ele>
  <time>2026-08-27T18:29:47Z</time>
  <course>22.02</course>
  <speed>0.0</speed>
  <fix>3d</fix>
</trkpt>
<trkpt lat="40.0728917" lon="-105.230937">
  <ele>1595.48</ele>
  <time>2026-08-27T18:29:47Z</time>
  <course>331.4</course>
  <speed>0.02</speed>
  <fix>3d</fix>
</trkpt>
<trkpt lat="40.0728916" lon="-105.2309369">
  <ele>1595.57</ele>
  <time>2026-08-27T18:29:47Z</time>
  <course>22.44</course>
  <speed>0.0</speed>
  <fix>3d</fix>
</trkpt>
<trkpt lat="40.0728917" lon="-105.230937">
  <ele>1595.48</ele>
  <time>2026-08-27T18:29:47Z</time>
  <course>336.49</course>
  <speed>0.01</speed>
  <fix>3d</fix>
</trkpt>
<trkpt lat="40.0728916" lon="-105.2309369">
  <ele>1595.56</ele>
  <time>2026-08-27T18:29:47Z</time>
  <course>22.38</course>
  <speed>0.0</speed>
  <fix>3d</fix>
</trkpt>
<trkpt lat="40.0728917" lon="-105.230937">
  <ele>1595.47</ele>
  <time>2026-08-27T18:29:47Z</time>
  <course>345.32</course>
  <speed>0.01</speed>
  <fix>3d</fix>
</trkpt>
<trkpt lat="40.0728916" lon="-105.2309369">
  <ele>1595.56</ele>
  <time>2026-08-27T18:29:47Z</time>
  <course>21.83</course>
  <speed>0.01</speed>
  <fix>3d</fix>
</trkpt>
<trkpt lat="40.0728918" lon="-105.230937">
  <ele>1595.47</ele>
  <time>2026-08-27T18:29:47Z</time>
  <course>357.71</course>
  <speed>0.01</speed>
  <fix>3d</fix>
</trkpt>
<trkpt lat="40.0728917" lon="-105.2309369">
  <ele>1595.55</ele>
  <time>2026-08-27T18:29:47Z</time>
  <course>20.88</course>
  <speed>0.01</speed>
  <fix>3d</fix>
</trkpt>
<trkpt lat="40.0728918" lon="-105.230937">
  <ele>1595.47</ele>
  <time>2026-08-27T18:29:47Z</time>
  <course>10.07</course>
  <speed>0.01</speed>
  <fix>3d</fix>
</trkpt>
<trkpt lat="40.0728917" lon="-105.2309369">
  <ele>1595.56</ele>
  <time>2026-08-27T18:29:48Z</time>
  <course>19.6</course>
  <speed>0.01</speed>
  <fix>3d</fix>
</trkpt>
<trkpt lat="40.0728918" lon="-105.230937">
  <ele>1595.47</ele>
  <time>2026-08-27T18:29:48Z</time>
  <course>19.29</course>
  <speed>0.01</speed>
  <fix>3d</fix>
</trkpt>
<trkpt lat="40.0728917" lon="-105.2309369">
  <ele>1595.56</ele>
  <time>2026-08-27T18:29:48Z</time>
  <course>18.12</course>
  <speed>0.01</speed>
  <fix>3d</fix>
</trkpt>
<trkpt lat="40.0728918" lon="-105.230937">
  <ele>1595.47</ele>
  <time>2026-08-27T18:29:48Z</time>
  <course>24.31</course>
  <speed>0.01</speed>
  <fix>3d</fix>
</trkpt>
<trkpt lat="40.0728917" lon="-105.2309369">
  <ele>1595.56</ele>
  <time>2026-08-27T18:29:48Z</time>
  <course>16.63</course>
  <speed>0.01</speed>
  <fix>3d</fix>
</trkpt>
<trkpt lat="40.0728918" lon="-105.230937">
  <ele>1595.47</ele>
  <time>2026-08-27T18:29:48Z</time>
  <course>23.47</course>
  <speed>0.01</speed>
  <fix>3d</fix>
</trkpt>
<trkpt lat="40.0728918" lon="-105.2309369">
  <ele>1595.56</ele>
  <time>2026-08-27T18:29:48Z</time>
  <course>15.23</course>
  <speed>0.01</speed>
  <fix>3d</fix>
</trkpt>
<trkpt lat="40.0728918" lon="-105.230937">
  <ele>1595.47</ele>
  <time>2026-08-27T18:29:48Z</time>
  <course>17.6</course>
  <speed>0.01</speed>
  <fix>3d</fix>
</trkpt>
<trkpt lat="40.0728918" lon="-105.2309369">
  <ele>1595.56</ele>
  <time>2026-08-27T18:29:48Z</time>
  <course>13.98</course>
  <speed>0.0</speed>
  <fix>3d</fix>
</trkpt>
<trkpt lat="40.0728918" lon="-105.230937">
  <ele>1595.47</ele>
  <time>2026-08-27T18:29:48Z</time>
  <course>9.7</course>
  <speed>0.01</speed>
  <fix>3d</fix>
</trkpt>
<trkpt lat="40.0728918" lon="-105.2309369">
  <ele>1595.56</ele>
  <time>2026-08-27T18:29:48Z</time>
  <course>13.11</course>
  <speed>0.0</speed>
  <fix>3d</fix>
</trkpt>
<trkpt lat="40.0728919" lon="-105.230937">
  <ele>1595.47</ele>
  <time>2026-08-27T18:29:48Z</time>
  <course>359.63</course>
  <speed>0.01</speed>
  <fix>3d</fix>
</trkpt>
<trkpt lat="40.0728918" lon="-105.2309369">
  <ele>1595.55</ele>
  <time>2026-08-27T18:29:48Z</time>
  <course>12.67</course>
  <speed>0.0</speed>
  <fix>3d</fix>
</trkpt>
<trkpt lat="40.0728919" lon="-105.230937">
  <ele>1595.47</ele>
  <time>2026-08-27T18:29:48Z</time>
  <course>347.67</course>
  <speed>0.01</speed>
  <fix>3d</fix>
</trkpt>
<trkpt lat="40.0728919" lon="-105.2309369">
  <ele>1595.55</ele>
  <time>2026-08-27T18:29:48Z</time>
  <course>12.7</course>
  <speed>0.0</speed>
  <fix>3d</fix>
</trkpt>
<trkpt lat="40.0728919" lon="-105.230937">
  <ele>1595.47</ele>
  <time>2026-08-27T18:29:48Z</time>
  <course>334.99</course>
  <speed>0.01</speed>
  <fix>3d</fix>
</trkpt>
<trkpt lat="40.0728919" lon="-105.2309369">
  <ele>1595.54</ele>
  <time>2026-08-27T18:29:48Z</time>
  <course>13.21</course>
  <speed>0.0</speed>
  <fix>3d</fix>
</trkpt>
<trkpt lat="40.0728919" lon="-105.230937">
  <ele>1595.47</ele>
  <time>2026-08-27T18:29:48Z</time>
  <course>324.8</course>
  <speed>0.01</speed>
  <fix>3d</fix>
</trkpt>
<trkpt lat="40.0728919" lon="-105.2309369">
  <ele>1595.54</ele>
  <time>2026-08-27T18:29:48Z</time>
  <course>14.12</course>
  <speed>0.0</speed>
  <fix>3d</fix>
</trkpt>
<trkpt lat="40.072892" lon="-105.230937">
  <ele>1595.47</ele>
  <time>2026-08-27T18:29:48Z</time>
  <course>317.45</course>
  <speed>0.01</speed>
  <fix>3d</fix>
</trkpt>
<trkpt lat="40.0728919" lon="-105.230937">
  <ele>1595.54</ele>
  <time>2026-08-27T18:29:48Z</time>
  <course>15.38</course>
  <speed>0.0</speed>
  <fix>3d</fix>
</trkpt>
<trkpt lat="40.0728921" lon="-105.230937">
  <ele>1595.48</ele>
  <time>2026-08-27T18:29:48Z</time>
  <course>310.8</course>
  <speed>0.01</speed>
  <fix>3d</fix>
</trkpt>
<trkpt lat="40.0728919" lon="-105.230937">
  <ele>1595.55</ele>
  <time>2026-08-27T18:29:48Z</time>
  <course>16.84</course>
  <speed>0.0</speed>
  <fix>3d</fix>
</trkpt>
<trkpt lat="40.0728921" lon="-105.230937">
  <ele>1595.48</ele>
  <time>2026-08-27T18:29:48Z</time>
  <course>306.01</course>
  <speed>0.01</speed>
  <fix>3d</fix>
</trkpt>
<trkpt lat="40.072892" lon="-105.230937">
  <ele>1595.55</ele>
  <time>2026-08-27T18:29:48Z</time>
  <course>18.4</course>
  <speed>0.0</speed>
  <fix>3d</fix>
</trkpt>
<trkpt lat="40.0728921" lon="-105.2309371">
  <ele>1595.48</ele>
  <time>2026-08-27T18:29:48Z</time>
  <course>304.07</course>
  <speed>0.01</speed>
  <fix>3d</fix>
</trkpt>
<trkpt lat="40.072892" lon="-105.230937">
  <ele>1595.56</ele>
  <time>2026-08-27T18:29:48Z</time>
  <course>19.85</course>
  <speed>0.0</speed>
  <fix>3d</fix>
</trkpt>
<trkpt lat="40.0728921" lon="-105.2309372">
  <ele>1595.49</ele>
  <time>2026-08-27T18:29:48Z</time>
  <course>305.1</course>
  <speed>0.01</speed>
  <fix>3d</fix>
</trkpt>
<trkpt lat="40.072892" lon="-105.230937">
  <ele>1595.56</ele>
  <time>2026-08-27T18:29:48Z</time>
  <course>21.09</course>
  <speed>0.0</speed>
  <fix>3d</fix>
</trkpt>
<trkpt lat="40.0728921" lon="-105.2309372">
  <ele>1595.49</ele>
  <time>2026-08-27T18:29:48Z</time>
  <course>308.45</course>
  <speed>0.01</speed>
  <fix>3d</fix>
</trkpt>
<trkpt lat="40.072892" lon="-105.2309371">
  <ele>1595.56</ele>
  <time>2026-08-27T18:29:48Z</time>
  <course>21.99</course>
  <speed>0.0</speed>
  <fix>3d</fix>
</trkpt>
<trkpt lat="40.0728921" lon="-105.2309372">
  <ele>1595.49</ele>
  <time>2026-08-27T18:29:48Z</time>
  <course>316.03</course>
  <speed>0.0</speed>
  <fix>3d</fix>
</trkpt>
<trkpt lat="40.072892" lon="-105.2309371">
  <ele>1595.57</ele>
  <time>2026-08-27T18:29:48Z</time>
  <course>22.4</course>
  <speed>0.0</speed>
  <fix>3d</fix>
</trkpt>
<trkpt lat="40.0728922" lon="-105.2309372">
  <ele>1595.5</ele>
  <time>2026-08-27T18:29:48Z</time>
  <course>334.99</course>
  <speed>0.0</speed>
  <fix>3d</fix>
</trkpt>
<trkpt lat="40.0728921" lon="-105.2309371">
  <ele>1595.56</ele>
  <time>2026-08-27T18:29:48Z</time>
  <course>22.37</course>
  <speed>0.0</speed>
  <fix>3d</fix>
</trkpt>
<trkpt lat="40.0728922" lon="-105.2309372">
  <ele>1595.5</ele>
  <time>2026-08-27T18:29:48Z</time>
  <course>3.06</course>
  <speed>0.0</speed>
  <fix>3d</fix>
</trkpt>
<trkpt lat="40.0728921" lon="-105.2309371">
  <ele>1595.56</ele>
  <time>2026-08-27T18:29:48Z</time>
  <course>21.83</course>
  <speed>0.0</speed>
  <fix>3d</fix>
</trkpt>
<trkpt lat="40.0728922" lon="-105.2309372">
  <ele>1595.5</ele>
  <time>2026-08-27T18:29:48Z</time>
  <course>26.47</course>
  <speed>0.0</speed>
  <fix>3d</fix>
</trkpt>
<trkpt lat="40.0728921" lon="-105.2309371">
  <ele>1595.56</ele>
  <time>2026-08-27T18:29:48Z</time>
  <course>20.91</course>
  <speed>0.01</speed>
  <fix>3d</fix>
</trkpt>
<trkpt lat="40.0728922" lon="-105.2309372">
  <ele>1595.5</ele>
  <time>2026-08-27T18:29:48Z</time>
  <course>40.79</course>
  <speed>0.0</speed>
  <fix>3d</fix>
</trkpt>
<trkpt lat="40.0728921" lon="-105.2309371">
  <ele>1595.56</ele>
  <time>2026-08-27T18:29:48Z</time>
  <course>19.62</course>
  <speed>0.01</speed>
  <fix>3d</fix>
</trkpt>
<trkpt lat="40.0728922" lon="-105.2309372">
  <ele>1595.5</ele>
  <time>2026-08-27T18:29:48Z</time>
  <course>49.51</course>
  <speed>0.0</speed>
  <fix>3d</fix>
</trkpt>
<trkpt lat="40.0728921" lon="-105.2309371">
  <ele>1595.56</ele>
  <time>2026-08-27T18:29:48Z</time>
  <course>18.13</course>
  <speed>0.01</speed>
  <fix>3d</fix>
</trkpt>
<trkpt lat="40.0728922" lon="-105.2309372">
  <ele>1595.5</ele>
  <time>2026-08-27T18:29:48Z</time>
  <course>52.94</course>
  <speed>0.0</speed>
  <fix>3d</fix>
</trkpt>
<trkpt lat="40.0728921" lon="-105.2309371">
  <ele>1595.56</ele>
  <time>2026-08-27T18:29:48Z</time>
  <course>16.62</course>
  <speed>0.01</speed>
  <fix>3d</fix>
</trkpt>
<trkpt lat="40.0728922" lon="-105.2309372">
  <ele>1595.5</ele>
  <time>2026-08-27T18:29:48Z</time>
  <course>51.08</course>
  <speed>0.0</speed>
  <fix>3d</fix>
</trkpt>
<trkpt lat="40.0728922" lon="-105.2309371">
  <ele>1595.56</ele>
  <time>2026-08-27T18:29:48Z</time>
  <course>15.18</course>
  <speed>0.0</speed>
  <fix>3d</fix>
</trkpt>
<trkpt lat="40.0728922" lon="-105.2309372">
  <ele>1595.5</ele>
  <time>2026-08-27T18:29:48Z</time>
  <course>45.67</course>
  <speed>0.0</speed>
  <fix>3d</fix>
</trkpt>
<trkpt lat="40.0728922" lon="-105.2309371">
  <ele>1595.55</ele>
  <time>2026-08-27T18:29:48Z</time>
  <course>13.95</course>
  <speed>0.0</speed>
  <fix>3d</fix>
</trkpt>
<trkpt lat="40.0728922" lon="-105.2309372">
  <ele>1595.5</ele>
  <time>2026-08-27T18:29:48Z</time>
  <course>38.66</course>
  <speed>0.0</speed>
  <fix>3d</fix>
</trkpt>
<trkpt lat="40.0728922" lon="-105.2309371">
  <ele>1595.56</ele>
  <time>2026-08-27T18:29:48Z</time>
  <course>13.07</course>
  <speed>0.0</speed>
  <fix>3d</fix>
</trkpt>
<trkpt lat="40.0728923" lon="-105.2309372">
  <ele>1595.5</ele>
  <time>2026-08-27T18:29:48Z</time>
  <course>28.68</course>
  <speed>0.0</speed>
  <fix>3d</fix>
</trkpt>
<trkpt lat="40.0728922" lon="-105.2309371">
  <ele>1595.56</ele>
  <time>2026-08-27T18:29:48Z</time>
  <course>12.66</course>
  <speed>0.0</speed>
  <fix>3d</fix>
</trkpt>
<trkpt lat="40.0728923" lon="-105.2309372">
  <ele>1595.5</ele>
  <time>2026-08-27T18:29:48Z</time>
  <course>13.05</course>
  <speed>0.0</speed>
  <fix>3d</fix>
</trkpt>
<trkpt lat="40.0728922" lon="-105.2309371">
  <ele>1595.57</ele>
  <time>2026-08-27T18:29:48Z</time>
  <course>12.63</course>
  <speed>0.0</speed>
  <fix>3d</fix>
</trkpt>
<trkpt lat="40.0728923" lon="-105.2309372">
  <ele>1595.5</ele>
  <time>2026-08-27T18:29:48Z</time>
  <course>352.42</course>
  <speed>0.0</speed>
  <fix>3d</fix>
</trkpt>
<trkpt lat="40.0728922" lon="-105.2309371">
  <ele>1595.57</ele>
  <time>2026-08-27T18:29:48Z</time>
  <course>12.64</course>
  <speed>0.0</speed>
  <fix>3d</fix>
</trkpt>
<trkpt lat="40.0728923" lon="-105.2309372">
  <ele>1595.5</ele>
  <time>2026-08-27T18:29:48Z</time>
  <course>345.1</course>
  <speed>0.0</speed>
  <fix>3d</fix>
</trkpt>
<trkpt lat="40.0728922" lon="-105.2309371">
  <ele>1595.57</ele>
  <time>2026-08-27T18:29:48Z</time>
  <course>12.63</course>
  <speed>0.0</speed>
  <fix>3d</fix>
</trkpt>
<trkpt lat="40.0728923" lon="-105.2309372">
  <ele>1595.5</ele>
  <time>2026-08-27T18:29:48Z</time>
  <course>354.77</course>
  <speed>0.0</speed>
  <fix>3d</fix>
</trkpt>
<trkpt lat="40.0728923" lon="-105.2309371">
  <ele>1595.57</ele>
  <time>2026-08-27T18:29:48Z</time>
  <course>12.64</course>
  <speed>0.0</speed>
  <fix>3d</fix>
</trkpt>
<trkpt lat="40.0728923" lon="-105.2309372">
  <ele>1595.5</ele>
  <time>2026-08-27T18:29:48Z</time>
  <course>2.3</course>
  <speed>0.0</speed>
  <fix>3d</fix>
</trkpt>
<trkpt lat="40.0728923" lon="-105.2309371">
  <ele>1595.57</ele>
  <time>2026-08-27T18:29:48Z</time>
  <course>12.64</course>
  <speed>0.0</speed>
  <fix>3d</fix>
</trkpt>
<trkpt lat="40.0728923" lon="-105.2309372">
  <ele>1595.5</ele>
  <time>2026-08-27T18:29:48Z</time>
  <course>9.05</course>
  <speed>0.0</speed>
  <fix>3d</fix>
</trkpt>
<trkpt lat="40.0728923" lon="-105.2309371">
  <ele>1595.57</ele>
  <time>2026-08-27T18:29:48Z</time>
  <course>12.64</course>
  <speed>0.01</speed>
  <fix>3d</fix>
</trkpt>
<trkpt lat="40.0728923" lon="-105.2309372">
  <ele>1595.5</ele>
  <time>2026-08-27T18:29:48Z</time>
  <course>15.38</course>
  <speed>0.0</speed>
  <fix>3d</fix>
</trkpt>
<trkpt lat="40.0728923" lon="-105.2309371">
  <ele>1595.57</ele>
  <time>2026-08-27T18:29:48Z</time>
  <course>12.64</course>
  <speed>0.01</speed>
  <fix>3d</fix>
</trkpt>
<trkpt lat="40.0728923" lon="-105.2309372">
  <ele>1595.5</ele>
  <time>2026-08-27T18:29:48Z</time>
  <course>18.46</course>
  <speed>0.0</speed>
  <fix>3d</fix>
</trkpt>
<trkpt lat="40.0728923" lon="-105.2309371">
  <ele>1595.57</ele>
  <time>2026-08-27T18:29:48Z</time>
  <course>12.63</course>
  <speed>0.01</speed>
  <fix>3d</fix>
</trkpt>
<trkpt lat="40.0728924" lon="-105.2309372">
  <ele>1595.5</ele>
  <time>2026-08-27T18:29:48Z</time>
  <course>22.15</course>
  <speed>0.0</speed>
  <fix>3d</fix>
</trkpt>
<trkpt lat="40.0728923" lon="-105.2309371">
  <ele>1595.57</ele>
  <time>2026-08-27T18:29:48Z</time>
  <course>12.64</course>
  <speed>0.01</speed>
  <fix>3d</fix>
</trkpt>
<trkpt lat="40.0728924" lon="-105.2309372">
  <ele>1595.5</ele>
  <time>2026-08-27T18:29:48Z</time>
  <course>25.92</course>
  <speed>0.0</speed>
  <fix>3d</fix>
</trkpt>
<trkpt lat="40.0728924" lon="-105.2309371">
  <ele>1595.57</ele>
  <time>2026-08-27T18:29:48Z</time>
  <course>12.64</course>
  <speed>0.01</speed>
  <fix>3d</fix>
</trkpt>
<trkpt lat="40.0728924" lon="-105.2309372">
  <ele>1595.5</ele>
  <time>2026-08-27T18:29:48Z</time>
  <course>27.02</course>
  <speed>0.01</speed>
  <fix>3d</fix>
</trkpt>
<trkpt lat="40.0728924" lon="-105.2309371">
  <ele>1595.57</ele>
  <time>2026-08-27T18:29:48Z</time>
  <course>12.64</course>
  <speed>0.01</speed>
  <fix>3d</fix>
</trkpt>
<trkpt lat="40.0728924" lon="-105.2309372">
  <ele>1595.49</ele>
  <time>2026-08-27T18:29:48Z</time>
  <course>29.06</course>
  <speed>0.01</speed>
  <fix>3d</fix>
</trkpt>
<trkpt lat="40.0728924" lon="-105.2309371">
  <ele>1595.57</ele>
  <time>2026-08-27T18:29:48Z</time>
  <course>12.65</course>
  <speed>0.01</speed>
  <fix>3d</fix>
</trkpt>
<trkpt lat="40.0728924" lon="-105.2309371">
  <ele>1595.49</ele>
  <time>2026-08-27T18:29:48Z</time>
  <course>31.58</course>
  <speed>0.01</speed>
  <fix>3d</fix>
</trkpt>
<trkpt lat="40.0728924" lon="-105.2309371">
  <ele>1595.57</ele>
  <time>2026-08-27T18:29:48Z</time>
  <course>12.64</course>
  <speed>0.01</speed>
  <fix>3d</fix>
</trkpt>
<trkpt lat="40.0728924" lon="-105.230937">
  <ele>1595.49</ele>
  <time>2026-08-27T18:29:48Z</time>
  <course>32.26</course>
  <speed>0.01</speed>
  <fix>3d</fix>
</trkpt>
<trkpt lat="40.0728924" lon="-105.2309371">
  <ele>1595.57</ele>
  <time>2026-08-27T18:29:48Z</time>
  <course>12.65</course>
  <speed>0.01</speed>
  <fix>3d</fix>
</trkpt>
<trkpt lat="40.0728924" lon="-105.230937">
  <ele>1595.49</ele>
  <time>2026-08-27T18:29:48Z</time>
  <course>33.95</course>
  <speed>0.01</speed>
  <fix>3d</fix>
</trkpt>
<trkpt lat="40.0728924" lon="-105.2309371">
  <ele>1595.57</ele>
  <time>2026-08-27T18:29:48Z</time>
  <course>12.65</course>
  <speed>0.01</speed>
  <fix>3d</fix>
</trkpt>
<trkpt lat="40.0728924" lon="-105.230937">
  <ele>1595.48</ele>
  <time>2026-08-27T18:29:48Z</time>
  <course>35.58</course>
  <speed>0.01</speed>
  <fix>3d</fix>
</trkpt>
<trkpt lat="40.0728925" lon="-105.2309371">
  <ele>1595.57</ele>
  <time>2026-08-27T18:29:48Z</time>
  <course>12.64</course>
  <speed>0.01</speed>
  <fix>3d</fix>
</trkpt>
<trkpt lat="40.0728924" lon="-105.230937">
  <ele>1595.48</ele>
  <time>2026-08-27T18:29:48Z</time>
  <course>37.19</course>
  <speed>0.01</speed>
  <fix>3d</fix>
</trkpt>
<trkpt lat="40.0728925" lon="-105.2309371">
  <ele>1595.57</ele>
  <time>2026-08-27T18:29:48Z</time>
  <course>12.65</course>
  <speed>0.01</speed>
  <fix>3d</fix>
</trkpt>
<trkpt lat="40.0728924" lon="-105.230937">
  <ele>1595.48</ele>
  <time>2026-08-27T18:29:48Z</time>
  <course>39.14</course>
  <speed>0.01</speed>
  <fix>3d</fix>
</trkpt>
<trkpt lat="40.0728925" lon="-105.230937">
  <ele>1595.57</ele>
  <time>2026-08-27T18:29:48Z</time>
  <course>12.13</course>
  <speed>0.01414213562373095</speed>
  <fix>3d</fix>
</trkpt>
<trkpt lat="40.0728925" lon="-105.230937">
  <ele>1595.48</ele>
  <time>2026-08-27T18:29:48Z</time>
  <course>46.11</course>
  <speed>0.01</speed>
  <fix>3d</fix>
</trkpt>
<trkpt lat="40.0728925" lon="-105.230937">
  <ele>1595.57</ele>
  <time>2026-08-27T18:29:48Z</time>
  <course>10.86</course>
  <speed>0.01414213562373095</speed>
  <fix>3d</fix>
</trkpt>
<trkpt lat="40.0728925" lon="-105.230937">
  <ele>1595.47</ele>
  <time>2026-08-27T18:29:48Z</time>
  <course>54.66</course>
  <speed>0.01</speed>
  <fix>3d</fix>
</trkpt>
<trkpt lat="40.0728925" lon="-105.230937">
  <ele>1595.57</ele>
  <time>2026-08-27T18:29:48Z</time>
  <course>9.55</course>
  <speed>0.01414213562373095</speed>
  <fix>3d</fix>
</trkpt>
<trkpt lat="40.0728925" lon="-105.230937">
  <ele>1595.47</ele>
  <time>2026-08-27T18:29:48Z</time>
  <course>57.86</course>
  <speed>0.01</speed>
  <fix>3d</fix>
</trkpt>
<trkpt lat="40.0728925" lon="-105.2309369">
  <ele>1595.56</ele>
  <time>2026-08-27T18:29:48Z</time>
  <course>8.53</course>
  <speed>0.01</speed>
  <fix>3d</fix>
</trkpt>
<trkpt lat="40.0728925" lon="-105.2309369">
  <ele>1595.47</ele>
  <time>2026-08-27T18:29:48Z</time>
  <course>57.64</course>
  <speed>0.01</speed>
  <fix>3d</fix>
</trkpt>
<trkpt lat="40.0728925" lon="-105.2309369">
  <ele>1595.56</ele>
  <time>2026-08-27T18:29:48Z</time>
  <course>7.9</course>
  <speed>0.0</speed>
  <fix>3d</fix>
</trkpt>
<trkpt lat="40.0728925" lon="-105.2309368">
  <ele>1595.47</ele>
  <time>2026-08-27T18:29:48Z</time>
  <course>56.28</course>
  <speed>0.01</speed>
  <fix>3d</fix>
</trkpt>
<trkpt lat="40.0728925" lon="-105.2309369">
  <ele>1595.56</ele>
  <time>2026-08-27T18:29:48Z</time>
  <course>7.74</course>
  <speed>0.0</speed>
  <fix>3d</fix>
</trkpt>
<trkpt lat="40.0728925" lon="-105.2309368">
  <ele>1595.47</ele>
  <time>2026-08-27T18:29:48Z</time>
  <course>53.53</course>
  <speed>0.0</speed>
  <fix>3d</fix>
</trkpt>
<trkpt lat="40.0728925" lon="-105.2309369">
  <ele>1595.56</ele>
  <time>2026-08-27T18:29:48Z</time>
  <course>8.04</course>
  <speed>0.0</speed>
  <fix>3d</fix>
</trkpt>
<trkpt lat="40.0728925" lon="-105.2309368">
  <ele>1595.47</ele>
  <time>2026-08-27T18:29:48Z</time>
  <course>49.03</course>
  <speed>0.0</speed>
  <fix>3d</fix>
</trkpt>
<trkpt lat="40.0728925" lon="-105.2309369">
  <ele>1595.56</ele>
  <time>2026-08-27T18:29:48Z</time>
  <course>8.81</course>
  <speed>0.0</speed>
  <fix>3d</fix>
</trkpt>
<trkpt lat="40.0728925" lon="-105.2309368">
  <ele>1595.47</ele>
  <time>2026-08-27T18:29:48Z</time>
  <course>31.75</course>
  <speed>0.0</speed>
  <fix>3d</fix>
</trkpt>
<trkpt lat="40.0728925" lon="-105.2309369">
  <ele>1595.56</ele>
  <time>2026-08-27T18:29:48Z</time>
  <course>9.96</course>
  <speed>0.0</speed>
  <fix>3d</fix>
</trkpt>
<trkpt lat="40.0728925" lon="-105.2309368">
  <ele>1595.47</ele>
  <time>2026-08-27T18:29:48Z</time>
  <course>266.21</course>
  <speed>0.0</speed>
  <fix>3d</fix>
</trkpt>
<trkpt lat="40.0728925" lon="-105.2309369">
  <ele>1595.55</ele>
  <time>2026-08-27T18:29:48Z</time>
  <course>11.37</course>
  <speed>0.0</speed>
  <fix>3d</fix>
</trkpt>
<trkpt lat="40.0728925" lon="-105.2309368">
  <ele>1595.47</ele>
  <time>2026-08-27T18:29:48Z</time>
  <course>237.09</course>
  <speed>0.0</speed>
  <fix>3d</fix>
</trkpt>
<trkpt lat="40.0728925" lon="-105.2309369">
  <ele>1595.55</ele>
  <time>2026-08-27T18:29:48Z</time>
  <course>12.89</course>
  <speed>0.0</speed>
  <fix>3d</fix>
</trkpt>
<trkpt lat="40.0728925" lon="-105.2309368">
  <ele>1595.47</ele>
  <time>2026-08-27T18:29:48Z</time>
  <course>220.55</course>
  <speed>0.0</speed>
  <fix>3d</fix>
</trkpt>
<trkpt lat="40.0728925" lon="-105.2309369">
  <ele>1595.55</ele>
  <time>2026-08-27T18:29:48Z</time>
  <course>14.35</course>
  <speed>0.0</speed>
  <fix>3d</fix>
</trkpt>
<trkpt lat="40.0728925" lon="-105.2309368">
  <ele>1595.47</ele>
  <time>2026-08-27T18:29:48Z</time>
  <course>202.44</course>
  <speed>0.0</speed>
  <fix>3d</fix>
</trkpt>
<trkpt lat="40.0728925" lon="-105.2309369">
  <ele>1595.55</ele>
  <time>2026-08-27T18:29:48Z</time>
  <course>15.68</course>
  <speed>0.0</speed>
  <fix>3d</fix>
</trkpt>
<trkpt lat="40.0728925" lon="-105.2309368">
  <ele>1595.47</ele>
  <time>2026-08-27T18:29:48Z</time>
  <course>185.0</course>
  <speed>0.0</speed>
  <fix>3d</fix>
</trkpt>
<trkpt lat="40.0728925" lon="-105.2309369">
  <ele>1595.55</ele>
  <time>2026-08-27T18:29:48Z</time>
  <course>16.71</course>
  <speed>0.0</speed>
  <fix>3d</fix>
</trkpt>
<trkpt lat="40.0728925" lon="-105.2309368">
  <ele>1595.47</ele>
  <time>2026-08-27T18:29:48Z</time>
  <course>169.6</course>
  <speed>0.0</speed>
  <fix>3d</fix>
</trkpt>
<trkpt lat="40.0728925" lon="-105.2309369">
  <ele>1595.56</ele>
  <time>2026-08-27T18:29:48Z</time>
  <course>17.35</course>
  <speed>0.0</speed>
  <fix>3d</fix>
</trkpt>
<trkpt lat="40.0728925" lon="-105.2309368">
  <ele>1595.47</ele>
  <time>2026-08-27T18:29:48Z</time>
  <course>154.47</course>
  <speed>0.0</speed>
  <fix>3d</fix>
</trkpt>
<trkpt lat="40.0728925" lon="-105.2309368">
  <ele>1595.56</ele>
  <time>2026-08-27T18:29:48Z</time>
  <course>17.53</course>
  <speed>0.0</speed>
  <fix>3d</fix>
</trkpt>
<trkpt lat="40.0728925" lon="-105.2309368">
  <ele>1595.47</ele>
  <time>2026-08-27T18:29:48Z</time>
  <course>140.16</course>
  <speed>0.01</speed>
  <fix>3d</fix>
</trkpt>
<trkpt lat="40.0728925" lon="-105.2309368">
  <ele>1595.56</ele>
  <time>2026-08-27T18:29:48Z</time>
  <course>17.21</course>
  <speed>0.01</speed>
  <fix>3d</fix>
</trkpt>
<trkpt lat="40.0728925" lon="-105.2309368">
  <ele>1595.47</ele>
  <time>2026-08-27T18:29:48Z</time>
  <course>128.13</course>
  <speed>0.01</speed>
  <fix>3d</fix>
</trkpt>
<trkpt lat="40.0728925" lon="-105.2309368">
  <ele>1595.56</ele>
  <time>2026-08-27T18:29:48Z</time>
  <course>16.45</course>
  <speed>0.01</speed>
  <fix>3d</fix>
</trkpt>
<trkpt lat="40.0728925" lon="-105.2309368">
  <ele>1595.48</ele>
  <time>2026-08-27T18:29:48Z</time>
  <course>121.1</course>
  <speed>0.01</speed>
  <fix>3d</fix>
</trkpt>
<trkpt lat="40.0728925" lon="-105.2309368">
  <ele>1595.55</ele>
  <time>2026-08-27T18:29:48Z</time>
  <course>15.28</course>
  <speed>0.01</speed>
  <fix>3d</fix>
</trkpt>
<trkpt lat="40.0728925" lon="-105.2309368">
  <ele>1595.48</ele>
  <time>2026-08-27T18:29:48Z</time>
  <course>117.59</course>
  <speed>0.01</speed>
  <fix>3d</fix>
</trkpt>
<trkpt lat="40.0728925" lon="-105.2309367">
  <ele>1595.56</ele>
  <time>2026-08-27T18:29:48Z</time>
  <course>13.88</course>
  <speed>0.01</speed>
  <fix>3d</fix>
</trkpt>
<trkpt lat="40.0728925" lon="-105.2309368">
  <ele>1595.48</ele>
  <time>2026-08-27T18:29:48Z</time>
  <course>114.65</course>
  <speed>0.01</speed>
  <fix>3d</fix>
</trkpt>
<trkpt lat="40.0728925" lon="-105.2309367">
  <ele>1595.56</ele>
  <time>2026-08-27T18:29:48Z</time>
  <course>12.38</course>
  <speed>0.01</speed>
  <fix>3d</fix>
</trkpt>
<trkpt lat="40.0728925" lon="-105.2309367">
  <ele>1595.48</ele>
  <time>2026-08-27T18:29:48Z</time>
  <course>112.16</course>
  <speed>0.01</speed>
  <fix>3d</fix>
</trkpt>
<trkpt lat="40.0728925" lon="-105.2309367">
  <ele>1595.56</ele>
  <time>2026-08-27T18:29:48Z</time>
  <course>10.9</course>
  <speed>0.01</speed>
  <fix>3d</fix>
</trkpt>
<trkpt lat="40.0728925" lon="-105.2309367">
  <ele>1595.48</ele>
  <time>2026-08-27T18:29:48Z</time>
  <course>110.06</course>
  <speed>0.01</speed>
  <fix>3d</fix>
</trkpt>
<trkpt lat="40.0728925" lon="-105.2309367">
  <ele>1595.57</ele>
  <time>2026-08-27T18:29:48Z</time>
  <course>9.55</course>
  <speed>0.0</speed>
  <fix>3d</fix>
</trkpt>
<trkpt lat="40.0728925" lon="-105.2309367">
  <ele>1595.48</ele>
  <time>2026-08-27T18:29:48Z</time>
  <course>109.79</course>
  <speed>0.01</speed>
  <fix>3d</fix>
</trkpt>
<trkpt lat="40.0728925" lon="-105.2309367">
  <ele>1595.57</ele>
  <time>2026-08-27T18:29:48Z</time>
  <course>8.53</course>
  <speed>0.0</speed>
  <fix>3d</fix>
</trkpt>
<trkpt lat="40.0728925" lon="-105.2309366">
  <ele>1595.48</ele>
  <time>2026-08-27T18:29:48Z</time>
  <course>114.29</course>
  <speed>0.01</speed>
  <fix>3d</fix>
</trkpt>
<trkpt lat="40.0728925" lon="-105.2309366">
  <ele>1595.56</ele>
  <time>2026-08-27T18:29:48Z</time>
  <course>7.91</course>
  <speed>0.0</speed>
  <fix>3d</fix>
</trkpt>
<trkpt lat="40.0728925" lon="-105.2309365">
  <ele>1595.48</ele>
  <time>2026-08-27T18:29:48Z</time>
  <course>125.89</course>
  <speed>0.0</speed>
  <fix>3d</fix>
</trkpt>
<trkpt lat="40.0728925" lon="-105.2309366">
  <ele>1595.56</ele>
  <time>2026-08-27T18:29:48Z</time>
  <course>7.73</course>
  <speed>0.0</speed>
  <fix>3d</fix>
</trkpt>
<trkpt lat="40.0728925" lon="-105.2309365">
  <ele>1595.48</ele>
  <time>2026-08-27T18:29:48Z</time>
  <course>145.06</course>
  <speed>0.0</speed>
  <fix>3d</fix>
</trkpt>
<trkpt lat="40.0728925" lon="-105.2309366">
  <ele>1595.56</ele>
  <time>2026-08-27T18:29:48Z</time>
  <course>8.04</course>
  <speed>0.0</speed>
  <fix>3d</fix>
</trkpt>
<trkpt lat="40.0728924" lon="-105.2309365">
  <ele>1595.48</ele>
  <time>2026-08-27T18:29:48Z</time>
  <course>167.18</course>
  <speed>0.0</speed>
  <fix>3d</fix>
</trkpt>
<trkpt lat="40.0728925" lon="-105.2309366">
  <ele>1595.56</ele>
  <time>2026-08-27T18:29:48Z</time>
  <course>8.81</course>
  <speed>0.0</speed>
  <fix>3d</fix>
</trkpt>
<trkpt lat="40.0728924" lon="-105.2309365">
  <ele>1595.48</ele>
  <time>2026-08-27T18:29:48Z</time>
  <course>184.28</course>
  <speed>0.0</speed>
  <fix>3d</fix>
</trkpt>
<trkpt lat="40.0728925" lon="-105.2309366">
  <ele>1595.56</ele>
  <time>2026-08-27T18:29:48Z</time>
  <course>9.98</course>
  <speed>0.0</speed>
  <fix>3d</fix>
</trkpt>
<trkpt lat="40.0728924" lon="-105.2309365">
  <ele>1595.48</ele>
  <time>2026-08-27T18:29:48Z</time>
  <course>193.29</course>
  <speed>0.01</speed>
  <fix>3d</fix>
</trkpt>
<trkpt lat="40.0728925" lon="-105.2309366">
  <ele>1595.56</ele>
  <time>2026-08-27T18:29:48Z</time>
  <course>11.4</course>
  <speed>0.0</speed>
  <fix>3d</fix>
</trkpt>
<trkpt lat="40.0728924" lon="-105.2309365">
  <ele>1595.48</ele>
  <time>2026-08-27T18:29:48Z</time>
  <course>194.53</course>
  <speed>0.01</speed>
  <fix>3d</fix>
</trkpt>
<trkpt lat="40.0728925" lon="-105.2309366">
  <ele>1595.56</ele>
  <time>2026-08-27T18:29:48Z</time>
  <course>12.88</course>
  <speed>0.0</speed>
  <fix>3d</fix>
</trkpt>
<trkpt lat="40.0728924" lon="-105.2309365">
  <ele>1595.48</ele>
  <time>2026-08-27T18:29:48Z</time>
  <course>191.17</course>
  <speed>0.01</speed>
  <fix>3d</fix>
</trkpt>
<trkpt lat="40.0728924" lon="-105.2309366">
  <ele>1595.56</ele>
  <time>2026-08-27T18:29:48Z</time>
  <course>14.37</course>
  <speed>0.0</speed>
  <fix>3d</fix>
</trkpt>
<trkpt lat="40.0728924" lon="-105.2309365">
  <ele>1595.48</ele>
  <time>2026-08-27T18:29:48Z</time>
  <course>185.62</course>
  <speed>0.01</speed>
  <fix>3d</fix>
</trkpt>
<trkpt lat="40.0728924" lon="-105.2309366">
  <ele>1595.56</ele>
  <time>2026-08-27T18:29:48Z</time>
  <course>15.7</course>
  <speed>0.0</speed>
  <fix>3d</fix>
</trkpt>
<trkpt lat="40.0728924" lon="-105.2309365">
  <ele>1595.48</ele>
  <time>2026-08-27T18:29:48Z</time>
  <course>179.46</course>
  <speed>0.01</speed>
  <fix>3d</fix>
</trkpt>
<trkpt lat="40.0728924" lon="-105.2309366">
  <ele>1595.56</ele>
  <time>2026-08-27T18:29:48Z</time>
  <course>16.75</course>
  <speed>0.0</speed>
  <fix>3d</fix>
</trkpt>
<trkpt lat="40.0728924" lon="-105.2309365">
  <ele>1595.48</ele>
  <time>2026-08-27T18:29:48Z</time>
  <course>172.84</course>
  <speed>0.01</speed>
  <fix>3d</fix>
</trkpt>
<trkpt lat="40.0728924" lon="-105.2309366">
  <ele>1595.56</ele>
  <time>2026-08-27T18:29:48Z</time>
  <course>17.37</course>
  <speed>0.0</speed>
  <fix>3d</fix>
</trkpt>
<trkpt lat="40.0728923" lon="-105.2309365">
  <ele>1595.48</ele>
  <time>2026-08-27T18:29:48Z</time>
  <course>165.54</course>
  <speed>0.01</speed>
  <fix>3d</fix>
</trkpt>
<trkpt lat="40.0728924" lon="-105.2309366">
  <ele>1595.56</ele>
  <time>2026-08-27T18:29:48Z</time>
  <course>17.53</course>
  <speed>0.0</speed>
  <fix>3d</fix>
</trkpt>
<trkpt lat="40.0728923" lon="-105.2309365">
  <ele>1595.48</ele>
  <time>2026-08-27T18:29:48Z</time>
  <course>157.63</course>
  <speed>0.01</speed>
  <fix>3d</fix>
</trkpt>
<trkpt lat="40.0728923" lon="-105.2309365">
  <ele>1595.56</ele>
  <time>2026-08-27T18:29:48Z</time>
  <course>17.21</course>
  <speed>0.0</speed>
  <fix>3d</fix>
</trkpt>
<trkpt lat="40.0728923" lon="-105.2309365">
  <ele>1595.48</ele>
  <time>2026-08-27T18:29:48Z</time>
  <course>149.43</course>
  <speed>0.01</speed>
  <fix>3d</fix>
</trkpt>
<trkpt lat="40.0728923" lon="-105.2309365">
  <ele>1595.56</ele>
  <time>2026-08-27T18:29:48Z</time>
  <course>16.46</course>
  <speed>0.0</speed>
  <fix>3d</fix>
</trkpt>
<trkpt lat="40.0728923" lon="-105.2309365">
  <ele>1595.48</ele>
  <time>2026-08-27T18:29:48Z</time>
  <course>143.29</course>
  <speed>0.02</speed>
  <fix>3d</fix>
</trkpt>
<trkpt lat="40.0728923" lon="-105.2309365">
  <ele>1595.56</ele>
  <time>2026-08-27T18:29:48Z</time>
  <course>15.3</course>
  <speed>0.01</speed>
  <fix>3d</fix>
</trkpt>
<trkpt lat="40.0728922" lon="-105.2309365">
  <ele>1595.48</ele>
  <time>2026-08-27T18:29:48Z</time>
  <course>139.57</course>
  <speed>0.02</speed>
  <fix>3d</fix>
</trkpt>
<trkpt lat="40.0728923" lon="-105.2309365">
  <ele>1595.56</ele>
  <time>2026-08-27T18:29:48Z</time>
  <course>13.87</course>
  <speed>0.01</speed>
  <fix>3d</fix>
</trkpt>
<trkpt lat="40.0728922" lon="-105.2309365">
  <ele>1595.48</ele>
  <time>2026-08-27T18:29:48Z</time>
  <course>135.95</course>
  <speed>0.02</speed>
  <fix>3d</fix>
</trkpt>
<trkpt lat="40.0728923" lon="-105.2309364">
  <ele>1595.56</ele>
  <time>2026-08-27T18:29:48Z</time>
  <course>12.39</course>
  <speed>0.01</speed>
  <fix>3d</fix>
</trkpt>
<trkpt lat="40.0728922" lon="-105.2309364">
  <ele>1595.48</ele>
  <time>2026-08-27T18:29:48Z</time>
  <course>132.57</course>
  <speed>0.02</speed>
  <fix>3d</fix>
</trkpt>
<trkpt lat="40.0728922" lon="-105.2309364">
  <ele>1595.56</ele>
  <time>2026-08-27T18:29:48Z</time>
  <course>10.89</course>
  <speed>0.0</speed>
  <fix>3d</fix>
</trkpt>
<trkpt lat="40.0728921" lon="-105.2309363">
  <ele>1595.48</ele>
  <time>2026-08-27T18:29:48Z</time>
  <course>131.03</course>
  <speed>0.02</speed>
  <fix>3d</fix>
</trkpt>
<trkpt lat="40.0728922" lon="-105.2309364">
  <ele>1595.56</ele>
  <time>2026-08-27T18:29:48Z</time>
  <course>9.54</course>
  <speed>0.0</speed>
  <fix>3d</fix>
</trkpt>
<trkpt lat="40.0728921" lon="-105.2309363">
  <ele>1595.48</ele>
  <time>2026-08-27T18:29:48Z</time>
  <course>131.73</course>
  <speed>0.01</speed>
  <fix>3d</fix>
</trkpt>
<trkpt lat="40.0728922" lon="-105.2309364">
  <ele>1595.56</ele>
  <time>2026-08-27T18:29:48Z</time>
  <course>8.51</course>
  <speed>0.0</speed>
  <fix>3d</fix>
</trkpt>
<trkpt lat="40.0728921" lon="-105.2309363">
  <ele>1595.48</ele>
  <time>2026-08-27T18:29:48Z</time>
  <course>135.55</course>
  <speed>0.01</speed>
  <fix>3d</fix>
</trkpt>
<trkpt lat="40.0728922" lon="-105.2309363">
  <ele>1595.56</ele>
  <time>2026-08-27T18:29:48Z</time>
  <course>7.91</course>
  <speed>0.0</speed>
  <fix>3d</fix>
</trkpt>
<trkpt lat="40.0728921" lon="-105.2309363">
  <ele>1595.48</ele>
  <time>2026-08-27T18:29:48Z</time>
  <course>142.69</course>
  <speed>0.01</speed>
  <fix>3d</fix>
</trkpt>
<trkpt lat="40.0728922" lon="-105.2309363">
  <ele>1595.56</ele>
  <time>2026-08-27T18:29:48Z</time>
  <course>7.74</course>
  <speed>0.0</speed>
  <fix>3d</fix>
</trkpt>
<trkpt lat="40.0728921" lon="-105.2309363">
  <ele>1595.48</ele>
  <time>2026-08-27T18:29:48Z</time>
  <course>151.21</course>
  <speed>0.01</speed>
  <fix>3d</fix>
</trkpt>
<trkpt lat="40.0728921" lon="-105.2309363">
  <ele>1595.57</ele>
  <time>2026-08-27T18:29:48Z</time>
  <course>8.06</course>
  <speed>0.0</speed>
  <fix>3d</fix>
</trkpt>
<trkpt lat="40.072892" lon="-105.2309363">
  <ele>1595.48</ele>
  <time>2026-08-27T18:29:48Z</time>
  <course>159.97</course>
  <speed>0.01</speed>
  <fix>3d</fix>
</trkpt>
<trkpt lat="40.0728921" lon="-105.2309363">
  <ele>1595.57</ele>
  <time>2026-08-27T18:29:48Z</time>
  <course>8.83</course>
  <speed>0.0</speed>
  <fix>3d</fix>
</trkpt>
<trkpt lat="40.0728919" lon="-105.2309363">
  <ele>1595.48</ele>
  <time>2026-08-27T18:29:48Z</time>
  <course>166.6</course>
  <speed>0.01</speed>
  <fix>3d</fix>
</trkpt>
<trkpt lat="40.0728921" lon="-105.2309363">
  <ele>1595.56</ele>
  <time>2026-08-27T18:29:48Z</time>
  <course>9.99</course>
  <speed>0.0</speed>
  <fix>3d</fix>
</trkpt>
<trkpt lat="40.0728919" lon="-105.2309363">
  <ele>1595.48</ele>
  <time>2026-08-27T18:29:48Z</time>
  <course>171.98</course>
  <speed>0.01</speed>
  <fix>3d</fix>
</trkpt>
<trkpt lat="40.0728921" lon="-105.2309363">
  <ele>1595.56</ele>
  <time>2026-08-27T18:29:48Z</time>
  <course>11.37</course>
  <speed>0.0</speed>
  <fix>3d</fix>
</trkpt>
<trkpt lat="40.0728919" lon="-105.2309363">
  <ele>1595.47</ele>
  <time>2026-08-27T18:29:48Z</time>
  <course>174.63</course>
  <speed>0.01</speed>
  <fix>3d</fix>
</trkpt>
<trkpt lat="40.072892" lon="-105.2309363">
  <ele>1595.56</ele>
  <time>2026-08-27T18:29:48Z</time>
  <course>12.88</course>
  <speed>0.0</speed>
  <fix>3d</fix>
</trkpt>
<trkpt lat="40.0728919" lon="-105.2309363">
  <ele>1595.47</ele>
  <time>2026-08-27T18:29:48Z</time>
  <course>173.43</course>
  <speed>0.01</speed>
  <fix>3d</fix>
</trkpt>
<trkpt lat="40.072892" lon="-105.2309363">
  <ele>1595.56</ele>
  <time>2026-08-27T18:29:48Z</time>
  <course>14.38</course>
  <speed>0.0</speed>
  <fix>3d</fix>
</trkpt>
<trkpt lat="40.0728918" lon="-105.2309363">
  <ele>1595.47</ele>
  <time>2026-08-27T18:29:48Z</time>
  <course>170.98</course>
  <speed>0.01</speed>
  <fix>3d</fix>
</trkpt>
<trkpt lat="40.072892" lon="-105.2309363">
  <ele>1595.56</ele>
  <time>2026-08-27T18:29:48Z</time>
  <course>15.71</course>
  <speed>0.0</speed>
  <fix>3d</fix>
</trkpt>
<trkpt lat="40.0728918" lon="-105.2309363">
  <ele>1595.47</ele>
  <time>2026-08-27T18:29:48Z</time>
  <course>166.36</course>
  <speed>0.01</speed>
  <fix>3d</fix>
</trkpt>
<trkpt lat="40.0728919" lon="-105.2309363">
  <ele>1595.56</ele>
  <time>2026-08-27T18:29:48Z</time>
  <course>16.75</course>
  <speed>0.0</speed>
  <fix>3d</fix>
</trkpt>
<trkpt lat="40.0728918" lon="-105.2309362">
  <ele>1595.47</ele>
  <time>2026-08-27T18:29:48Z</time>
  <course>159.89</course>
  <speed>0.01</speed>
  <fix>3d</fix>
</trkpt>
<trkpt lat="40.0728919" lon="-105.2309363">
  <ele>1595.56</ele>
  <time>2026-08-27T18:29:48Z</time>
  <course>17.37</course>
  <speed>0.0</speed>
  <fix>3d</fix>
</trkpt>
<trkpt lat="40.0728918" lon="-105.2309362">
  <ele>1595.47</ele>
  <time>2026-08-27T18:29:48Z</time>
  <course>151.17</course>
  <speed>0.02</speed>
  <fix>3d</fix>
</trkpt>
<trkpt lat="40.0728919" lon="-105.2309363">
  <ele>1595.56</ele>
  <time>2026-08-27T18:29:48Z</time>
  <course>17.51</course>
  <speed>0.0</speed>
  <fix>3d</fix>
</trkpt>
<trkpt lat="40.0728918" lon="-105.2309362">
  <ele>1595.47</ele>
  <time>2026-08-27T18:29:48Z</time>
  <course>141.88</course>
  <speed>0.02</speed>
  <fix>3d</fix>
</trkpt>
<trkpt lat="40.0728918" lon="-105.2309362">
  <ele>1595.55</ele>
  <time>2026-08-27T18:29:48Z</time>
  <course>17.21</course>
  <speed>0.01</speed>
  <fix>3d</fix>
</trkpt>
<trkpt lat="40.0728917" lon="-105.2309362">
  <ele>1595.47</ele>
  <time>2026-08-27T18:29:48Z</time>
  <course>134.73</course>
  <speed>0.02</speed>
  <fix>3d</fix>
</trkpt>
<trkpt lat="40.0728918" lon="-105.2309362">
  <ele>1595.55</ele>
  <time>2026-08-27T18:29:48Z</time>
  <course>16.44</course>
  <speed>0.01</speed>
  <fix>3d</fix>
</trkpt>
<trkpt lat="40.0728917" lon="-105.2309361">
  <ele>1595.47</ele>
  <time>2026-08-27T18:29:48Z</time>
  <course>129.55</course>
  <speed>0.02</speed>
  <fix>3d</fix>
</trkpt>
<trkpt lat="40.0728918" lon="-105.2309361">
  <ele>1595.55</ele>
  <time>2026-08-27T18:29:48Z</time>
  <course>15.28</course>
  <speed>0.01</speed>
  <fix>3d</fix>
</trkpt>
<trkpt lat="40.0728917" lon="-105.230936">
  <ele>1595.47</ele>
  <time>2026-08-27T18:29:48Z</time>
  <course>124.81</course>
  <speed>0.02</speed>
  <fix>3d</fix>
</trkpt>
<trkpt lat="40.0728918" lon="-105.2309361">
  <ele>1595.55</ele>
  <time>2026-08-27T18:29:48Z</time>
  <course>13.87</course>
  <speed>0.01</speed>
  <fix>3d</fix>
</trkpt>
<trkpt lat="40.0728917" lon="-105.230936">
  <ele>1595.47</ele>
  <time>2026-08-27T18:29:48Z</time>
  <course>120.5</course>
  <speed>0.02</speed>
  <fix>3d</fix>
</trkpt>
<trkpt lat="40.0728917" lon="-105.230936">
  <ele>1595.55</ele>
  <time>2026-08-27T18:29:48Z</time>
  <course>12.36</course>
  <speed>0.01</speed>
  <fix>3d</fix>
</trkpt>
<trkpt lat="40.0728916" lon="-105.2309359">
  <ele>1595.47</ele>
  <time>2026-08-27T18:29:48Z</time>
  <course>117.59</course>
  <speed>0.02</speed>
  <fix>3d</fix>
</trkpt>
<trkpt lat="40.0728917" lon="-105.230936">
  <ele>1595.55</ele>
  <time>2026-08-27T18:29:48Z</time>
  <course>10.87</course>
  <speed>0.01</speed>
  <fix>3d</fix>
</trkpt>
<trkpt lat="40.0728916" lon="-105.2309358">
  <ele>1595.48</ele>
  <time>2026-08-27T18:29:48Z</time>
  <course>116.06</course>
  <speed>0.02</speed>
  <fix>3d</fix>
</trkpt>
<trkpt lat="40.0728917" lon="-105.2309359">
  <ele>1595.56</ele>
  <time>2026-08-27T18:29:48Z</time>
  <course>9.55</course>
  <speed>0.01</speed>
  <fix>3d</fix>
</trkpt>
<trkpt lat="40.0728916" lon="-105.2309358">
  <ele>1595.48</ele>
  <time>2026-08-27T18:29:48Z</time>
  <course>115.26</course>
  <speed>0.02</speed>
  <fix>3d</fix>
</trkpt>
<trkpt lat="40.0728917" lon="-105.2309359">
  <ele>1595.56</ele>
  <time>2026-08-27T18:29:48Z</time>
  <course>8.52</course>
  <speed>0.0</speed>
  <fix>3d</fix>
</trkpt>
<trkpt lat="40.0728916" lon="-105.2309358">
  <ele>1595.48</ele>
  <time>2026-08-27T18:29:48Z</time>
  <course>116.63</course>
  <speed>0.02</speed>
  <fix>3d</fix>
</trkpt>
<trkpt lat="40.0728917" lon="-105.2309358">
  <ele>1595.57</ele>
  <time>2026-08-27T18:29:48Z</time>
  <course>7.89</course>
  <speed>0.0</speed>
  <fix>3d</fix>
</trkpt>
<trkpt lat="40.0728916" lon="-105.2309358">
  <ele>1595.48</ele>
  <time>2026-08-27T18:29:48Z</time>
  <course>121.75</course>
  <speed>0.01</speed>
  <fix>3d</fix>
</trkpt>
<trkpt lat="40.0728917" lon="-105.2309358">
  <ele>1595.56</ele>
  <time>2026-08-27T18:29:48Z</time>
  <course>7.74</course>
  <speed>0.0</speed>
  <fix>3d</fix>
</trkpt>
<trkpt lat="40.0728916" lon="-105.2309357">
  <ele>1595.49</ele>
  <time>2026-08-27T18:29:48Z</time>
  <course>130.77</course>
  <speed>0.01</speed>
  <fix>3d</fix>
</trkpt>
<trkpt lat="40.0728917" lon="-105.2309358">
  <ele>1595.56</ele>
  <time>2026-08-27T18:29:48Z</time>
  <course>8.06</course>
  <speed>0.0</speed>
  <fix>3d</fix>
</trkpt>
<trkpt lat="40.0728915" lon="-105.2309356">
  <ele>1595.49</ele>
  <time>2026-08-27T18:29:48Z</time>
  <course>142.0</course>
  <speed>0.01</speed>
  <fix>3d</fix>
</trkpt>
<trkpt lat="40.0728916" lon="-105.2309358">
  <ele>1595.56</ele>
  <time>2026-08-27T18:29:48Z</time>
  <course>8.81</course>
  <speed>0.0</speed>
  <fix>3d</fix>
</trkpt>
<trkpt lat="40.0728915" lon="-105.2309356">
  <ele>1595.49</ele>
  <time>2026-08-27T18:29:48Z</time>
  <course>153.92</course>
  <speed>0.01</speed>
  <fix>3d</fix>
</trkpt>
<trkpt lat="40.0728916" lon="-105.2309358">
  <ele>1595.56</ele>
  <time>2026-08-27T18:29:48Z</time>
  <course>9.97</course>
  <speed>0.0</speed>
  <fix>3d</fix>
</trkpt>
<trkpt lat="40.0728915" lon="-105.2309356">
  <ele>1595.48</ele>
  <time>2026-08-27T18:29:48Z</time>
  <course>165.67</course>
  <speed>0.01</speed>
  <fix>3d</fix>
</trkpt>
<trkpt lat="40.0728916" lon="-105.2309358">
  <ele>1595.56</ele>
  <time>2026-08-27T18:29:48Z</time>
  <course>11.39</course>
  <speed>0.0</speed>
  <fix>3d</fix>
</trkpt>
<trkpt lat="40.0728915" lon="-105.2309356">
  <ele>1595.48</ele>
  <time>2026-08-27T18:29:48Z</time>
  <course>172.91</course>
  <speed>0.01</speed>
  <fix>3d</fix>
</trkpt>
<trkpt lat="40.0728916" lon="-105.2309358">
  <ele>1595.56</ele>
  <time>2026-08-27T18:29:48Z</time>
  <course>12.9</course>
  <speed>0.0</speed>
  <fix>3d</fix>
</trkpt>
<trkpt lat="40.0728914" lon="-105.2309356">
  <ele>1595.48</ele>
  <time>2026-08-27T18:29:48Z</time>
  <course>175.12</course>
  <speed>0.01</speed>
  <fix>3d</fix>
</trkpt>
<trkpt lat="40.0728915" lon="-105.2309357">
  <ele>1595.56</ele>
  <time>2026-08-27T18:29:48Z</time>
  <course>14.37</course>
  <speed>0.0</speed>
  <fix>3d</fix>
</trkpt>
<trkpt lat="40.0728913" lon="-105.2309356">
  <ele>1595.48</ele>
  <time>2026-08-27T18:29:48Z</time>
  <course>174.07</course>
  <speed>0.01</speed>
  <fix>3d</fix>
</trkpt>
<trkpt lat="40.0728915" lon="-105.2309357">
  <ele>1595.56</ele>
  <time>2026-08-27T18:29:48Z</time>
  <course>15.69</course>
  <speed>0.0</speed>
  <fix>3d</fix>
</trkpt>
<trkpt lat="40.0728913" lon="-105.2309356">
  <ele>1595.48</ele>
  <time>2026-08-27T18:29:48Z</time>
  <course>169.89</course>
  <speed>0.01</speed>
  <fix>3d</fix>
</trkpt>
<trkpt lat="40.0728915" lon="-105.2309357">
  <ele>1595.57</ele>
  <time>2026-08-27T18:29:48Z</time>
  <course>16.74</course>
  <speed>0.0</speed>
  <fix>3d</fix>
</trkpt>
<trkpt lat="40.0728913" lon="-105.2309356">
  <ele>1595.48</ele>
  <time>2026-08-27T18:29:48Z</time>
  <course>163.21</course>
  <speed>0.02</speed>
  <fix>3d</fix>
</trkpt>
<trkpt lat="40.0728914" lon="-105.2309357">
  <ele>1595.57</ele>
  <time>2026-08-27T18:29:48Z</time>
  <course>17.38</course>
  <speed>0.0</speed>
  <fix>3d</fix>
</trkpt>
<trkpt lat="40.0728912" lon="-105.2309356">
  <ele>1595.48</ele>
  <time>2026-08-27T18:29:48Z</time>
  <course>155.74</course>
  <speed>0.02</speed>
  <fix>3d</fix>
</trkpt>
<trkpt lat="40.0728914" lon="-105.2309357">
  <ele>1595.58</ele>
  <time>2026-08-27T18:29:48Z</time>
  <course>17.56</course>
  <speed>0.0</speed>
  <fix>3d</fix>
</trkpt>
<trkpt lat="40.0728912" lon="-105.2309356">
  <ele>1595.48</ele>
  <time>2026-08-27T18:29:48Z</time>
  <course>148.97</course>
  <speed>0.02</speed>
  <fix>3d</fix>
</trkpt>
<trkpt lat="40.0728913" lon="-105.2309356">
  <ele>1595.58</ele>
  <time>2026-08-27T18:29:48Z</time>
  <course>17.27</course>
  <speed>0.0</speed>
  <fix>3d</fix>
</trkpt>
<trkpt lat="40.0728912" lon="-105.2309356">
  <ele>1595.48</ele>
  <time>2026-08-27T18:29:48Z</time>
  <course>142.41</course>
  <speed>0.02</speed>
  <fix>3d</fix>
</trkpt>
<trkpt lat="40.0728913" lon="-105.2309356">
  <ele>1595.58</ele>
  <time>2026-08-27T18:29:48Z</time>
  <course>16.51</course>
  <speed>0.01</speed>
  <fix>3d</fix>
</trkpt>
<trkpt lat="40.0728912" lon="-105.2309355">
  <ele>1595.48</ele>
  <time>2026-08-27T18:29:48Z</time>
  <course>135.67</course>
  <speed>0.02</speed>
  <fix>3d</fix>
</trkpt>
<trkpt lat="40.0728913" lon="-105.2309356">
  <ele>1595.58</ele>
  <time>2026-08-27T18:29:48Z</time>
  <course>15.39</course>
  <speed>0.01</speed>
  <fix>3d</fix>
</trkpt>
<trkpt lat="40.0728912" lon="-105.2309355">
  <ele>1595.47</ele>
  <time>2026-08-27T18:29:48Z</time>
  <course>130.36</course>
  <speed>0.02</speed>
  <fix>3d</fix>
</trkpt>
<trkpt lat="40.0728912" lon="-105.2309355">
  <ele>1595.57</ele>
  <time>2026-08-27T18:29:48Z</time>
  <course>13.97</course>
  <speed>0.01</speed>
  <fix>3d</fix>
</trkpt>
<trkpt lat="40.0728911" lon="-105.2309355">
  <ele>1595.47</ele>
  <time>2026-08-27T18:29:48Z</time>
  <course>126.22</course>
  <speed>0.02</speed>
  <fix>3d</fix>
</trkpt>
<trkpt lat="40.0728912" lon="-105.2309355">
  <ele>1595.57</ele>
  <time>2026-08-27T18:29:48Z</time>
  <course>12.48</course>
  <speed>0.01</speed>
  <fix>3d</fix>
</trkpt>
<trkpt lat="40.0728911" lon="-105.2309354">
  <ele>1595.46</ele>
  <time>2026-08-27T18:29:48Z</time>
  <course>123.54</course>
  <speed>0.02</speed>
  <fix>3d</fix>
</trkpt>
<trkpt lat="40.0728912" lon="-105.2309354">
  <ele>1595.57</ele>
  <time>2026-08-27T18:29:49Z</time>
  <course>10.94</course>
  <speed>0.01</speed>
  <fix>3d</fix>
</trkpt>
<trkpt lat="40.0728911" lon="-105.2309353">
  <ele>1595.46</ele>
  <time>2026-08-27T18:29:49Z</time>
  <course>122.67</course>
  <speed>0.02</speed>
  <fix>3d</fix>
</trkpt>
<trkpt lat="40.0728912" lon="-105.2309354">
  <ele>1595.57</ele>
  <time>2026-08-27T18:29:49Z</time>
  <course>9.58</course>
  <speed>0.0</speed>
  <fix>3d</fix>
</trkpt>
<trkpt lat="40.0728911" lon="-105.2309353">
  <ele>1595.46</ele>
  <time>2026-08-27T18:29:49Z</time>
  <course>122.84</course>
  <speed>0.02</speed>
  <fix>3d</fix>
</trkpt>
<trkpt lat="40.0728912" lon="-105.2309353">
  <ele>1595.56</ele>
  <time>2026-08-27T18:29:49Z</time>
  <course>8.54</course>
  <speed>0.0</speed>
  <fix>3d</fix>
</trkpt>
<trkpt lat="40.0728911" lon="-105.2309353">
  <ele>1595.45</ele>
  <time>2026-08-27T18:29:49Z</time>
  <course>125.24</course>
  <speed>0.02</speed>
  <fix>3d</fix>
</trkpt>
<trkpt lat="40.0728911" lon="-105.2309353">
  <ele>1595.56</ele>
  <time>2026-08-27T18:29:49Z</time>
  <course>7.9</course>
  <speed>0.0</speed>
  <fix>3d</fix>
</trkpt>
<trkpt lat="40.072891" lon="-105.2309352">
  <ele>1595.45</ele>
  <time>2026-08-27T18:29:49Z</time>
  <course>130.34</course>
  <speed>0.01</speed>
  <fix>3d</fix>
</trkpt>
<trkpt lat="40.0728911" lon="-105.2309353">
  <ele>1595.57</ele>
  <time>2026-08-27T18:29:49Z</time>
  <course>7.73</course>
  <speed>0.0</speed>
  <fix>3d</fix>
</trkpt>
<trkpt lat="40.072891" lon="-105.2309351">
  <ele>1595.45</ele>
  <time>2026-08-27T18:29:49Z</time>
  <course>136.73</course>
  <speed>0.01</speed>
  <fix>3d</fix>
</trkpt>
<trkpt lat="40.0728911" lon="-105.2309353">
  <ele>1595.57</ele>
  <time>2026-08-27T18:29:49Z</time>
  <course>8.05</course>
  <speed>0.0</speed>
  <fix>3d</fix>
</trkpt>
<trkpt lat="40.072891" lon="-105.2309351">
  <ele>1595.45</ele>
  <time>2026-08-27T18:29:49Z</time>
  <course>144.1</course>
  <speed>0.01</speed>
  <fix>3d</fix>
</trkpt>
<trkpt lat="40.0728911" lon="-105.2309352">
  <ele>1595.56</ele>
  <time>2026-08-27T18:29:49Z</time>
  <course>8.82</course>
  <speed>0.0</speed>
  <fix>3d</fix>
</trkpt>
<trkpt lat="40.072891" lon="-105.2309351">
  <ele>1595.45</ele>
  <time>2026-08-27T18:29:49Z</time>
  <course>151.24</course>
  <speed>0.01</speed>
  <fix>3d</fix>
</trkpt>
<trkpt lat="40.0728911" lon="-105.2309352">
  <ele>1595.56</ele>
  <time>2026-08-27T18:29:49Z</time>
  <course>9.99</course>
  <speed>0.0</speed>
  <fix>3d</fix>
</trkpt>
<trkpt lat="40.0728909" lon="-105.2309351">
  <ele>1595.45</ele>
  <time>2026-08-27T18:29:49Z</time>
  <course>157.31</course>
  <speed>0.01</speed>
  <fix>3d</fix>
</trkpt>
<trkpt lat="40.072891" lon="-105.2309352">
  <ele>1595.56</ele>
  <time>2026-08-27T18:29:49Z</time>
  <course>11.37</course>
  <speed>0.0</speed>
  <fix>3d</fix>
</trkpt>
<trkpt lat="40.0728909" lon="-105.2309351">
  <ele>1595.44</ele>
  <time>2026-08-27T18:29:49Z</time>
  <course>161.35</course>
  <speed>0.01</speed>
  <fix>3d</fix>
</trkpt>
<trkpt lat="40.072891" lon="-105.2309352">
  <ele>1595.56</ele>
  <time>2026-08-27T18:29:49Z</time>
  <course>12.88</course>
  <speed>0.0</speed>
  <fix>3d</fix>
</trkpt>
<trkpt lat="40.0728909" lon="-105.2309351">
  <ele>1595.44</ele>
  <time>2026-08-27T18:29:49Z</time>
  <course>162.67</course>
  <speed>0.01</speed>
  <fix>3d</fix>
</trkpt>
<trkpt lat="40.072891" lon="-105.2309352">
  <ele>1595.56</ele>
  <time>2026-08-27T18:29:49Z</time>
  <course>14.38</course>
  <speed>0.0</speed>
  <fix>3d</fix>
</trkpt>
<trkpt lat="40.0728908" lon="-105.2309351">
  <ele>1595.44</ele>
  <time>2026-08-27T18:29:49Z</time>
  <course>161.19</course>
  <speed>0.02</speed>
  <fix>3d</fix>
</trkpt>
<trkpt lat="40.0728909" lon="-105.2309352">
  <ele>1595.56</ele>
  <time>2026-08-27T18:29:49Z</time>
  <course>15.71</course>
  <speed>0.0</speed>
  <fix>3d</fix>
</trkpt>
<trkpt lat="40.0728907" lon="-105.2309351">
  <ele>1595.44</ele>
  <time>2026-08-27T18:29:49Z</time>
  <course>157.26</course>
  <speed>0.02</speed>
  <fix>3d</fix>
</trkpt>
<trkpt lat="40.0728909" lon="-105.2309352">
  <ele>1595.56</ele>
  <time>2026-08-27T18:29:49Z</time>
  <course>16.73</course>
  <speed>0.0</speed>
  <fix>3d</fix>
</trkpt>
<trkpt lat="40.0728907" lon="-105.230935">
  <ele>1595.44</ele>
  <time>2026-08-27T18:29:49Z</time>
  <course>152.5</course>
  <speed>0.02</speed>
  <fix>3d</fix>
</trkpt>
<trkpt lat="40.0728908" lon="-105.2309351">
  <ele>1595.55</ele>
  <time>2026-08-27T18:29:49Z</time>
  <course>17.36</course>
  <speed>0.0</speed>
  <fix>3d</fix>
</trkpt>
<trkpt lat="40.0728907" lon="-105.230935">
  <ele>1595.44</ele>
  <time>2026-08-27T18:29:49Z</time>
  <course>146.78</course>
  <speed>0.02</speed>
  <fix>3d</fix>
</trkpt>
<trkpt lat="40.0728908" lon="-105.2309351">
  <ele>1595.55</ele>
  <time>2026-08-27T18:29:49Z</time>
  <course>17.52</course>
  <speed>0.0</speed>
  <fix>3d</fix>
</trkpt>
<trkpt lat="40.0728906" lon="-105.230935">
  <ele>1595.44</ele>
  <time>2026-08-27T18:29:49Z</time>
  <course>140.25</course>
  <speed>0.02</speed>
  <fix>3d</fix>
</trkpt>
<trkpt lat="40.0728908" lon="-105.230935">
  <ele>1595.55</ele>
  <time>2026-08-27T18:29:49Z</time>
  <course>17.21</course>
  <speed>0.01</speed>
  <fix>3d</fix>
</trkpt>
<trkpt lat="40.0728906" lon="-105.2309349">
  <ele>1595.44</ele>
  <time>2026-08-27T18:29:49Z</time>
  <course>134.51</course>
  <speed>0.02</speed>
  <fix>3d</fix>
</trkpt>
<trkpt lat="40.0728907" lon="-105.230935">
  <ele>1595.55</ele>
  <time>2026-08-27T18:29:49Z</time>
  <course>16.45</course>
  <speed>0.01</speed>
  <fix>3d</fix>
</trkpt>
<trkpt lat="40.0728906" lon="-105.2309349">
  <ele>1595.44</ele>
  <time>2026-08-27T18:29:49Z</time>
  <course>130.24</course>
  <speed>0.02</speed>
  <fix>3d</fix>
</trkpt>
<trkpt lat="40.0728907" lon="-105.2309349">
  <ele>1595.55</ele>
  <time>2026-08-27T18:29:49Z</time>
  <course>15.29</course>
  <speed>0.01</speed>
  <fix>3d</fix>
</trkpt>
<trkpt lat="40.0728906" lon="-105.2309348">
  <ele>1595.44</ele>
  <time>2026-08-27T18:29:49Z</time>
  <course>126.53</course>
  <speed>0.02</speed>
  <fix>3d</fix>
</trkpt>
<trkpt lat="40.0728907" lon="-105.2309349">
  <ele>1595.55</ele>
  <time>2026-08-27T18:29:49Z</time>
  <course>13.87</course>
  <speed>0.01</speed>
  <fix>3d</fix>
</trkpt>
<trkpt lat="40.0728906" lon="-105.2309348">
  <ele>1595.45</ele>
  <time>2026-08-27T18:29:49Z</time>
  <course>124.11</course>
  <speed>0.02</speed>
  <fix>3d</fix>
</trkpt>
<trkpt lat="40.0728906" lon="-105.2309348">
  <ele>1595.55</ele>
  <time>2026-08-27T18:29:49Z</time>
  <course>12.36</course>
  <speed>0.01</speed>
  <fix>3d</fix>
</trkpt>
<trkpt lat="40.0728905" lon="-105.2309347">
  <ele>1595.45</ele>
  <time>2026-08-27T18:29:49Z</time>
  <course>123.68</course>
  <speed>0.02</speed>
  <fix>3d</fix>
</trkpt>
<trkpt lat="40.0728906" lon="-105.2309348">
  <ele>1595.56</ele>
  <time>2026-08-27T18:29:49Z</time>
  <course>10.86</course>
  <speed>0.01</speed>
  <fix>3d</fix>
</trkpt>
<trkpt lat="40.0728905" lon="-105.2309346">
  <ele>1595.45</ele>
  <time>2026-08-27T18:29:49Z</time>
  <course>124.08</course>
  <speed>0.02</speed>
  <fix>3d</fix>
</trkpt>
<trkpt lat="40.0728906" lon="-105.2309347">
  <ele>1595.56</ele>
  <time>2026-08-27T18:29:49Z</time>
  <course>9.53</course>
  <speed>0.0</speed>
  <fix>3d</fix>
</trkpt>
<trkpt lat="40.0728905" lon="-105.2309346">
  <ele>1595.45</ele>
  <time>2026-08-27T18:29:49Z</time>
  <course>125.27</course>
  <speed>0.02</speed>
  <fix>3d</fix>
</trkpt>
<trkpt lat="40.0728906" lon="-105.2309347">
  <ele>1595.56</ele>
  <time>2026-08-27T18:29:49Z</time>
  <course>8.5</course>
  <speed>0.0</speed>
  <fix>3d</fix>
</trkpt>
<trkpt lat="40.0728904" lon="-105.2309346">
  <ele>1595.46</ele>
  <time>2026-08-27T18:29:49Z</time>
  <course>128.19</course>
  <speed>0.02</speed>
  <fix>3d</fix>
</trkpt>
<trkpt lat="40.0728905" lon="-105.2309346">
  <ele>1595.56</ele>
  <time>2026-08-27T18:29:49Z</time>
  <course>7.91</course>
  <speed>0.0</speed>
  <fix>3d</fix>
</trkpt>
<trkpt lat="40.0728904" lon="-105.2309345">
  <ele>1595.46</ele>
  <time>2026-08-27T18:29:49Z</time>
  <course>133.44</course>
  <speed>0.02</speed>
  <fix>3d</fix>
</trkpt>
<trkpt lat="40.0728905" lon="-105.2309346">
  <ele>1595.56</ele>
  <time>2026-08-27T18:29:49Z</time>
  <course>7.73</course>
  <speed>0.0</speed>
  <fix>3d</fix>
</trkpt>
<trkpt lat="40.0728904" lon="-105.2309344">
  <ele>1595.46</ele>
  <time>2026-08-27T18:29:49Z</time>
  <course>141.03</course>
  <speed>0.02</speed>
  <fix>3d</fix>
</trkpt>
<trkpt lat="40.0728905" lon="-105.2309346">
  <ele>1595.56</ele>
  <time>2026-08-27T18:29:49Z</time>
  <course>7.76</course>
  <speed>0.0</speed>
  <fix>3d</fix>
</trkpt>
<trkpt lat="40.0728904" lon="-105.2309344">
  <ele>1595.46</ele>
  <time>2026-08-27T18:29:49Z</time>
  <course>146.95</course>
  <speed>0.02</speed>
  <fix>3d</fix>
</trkpt>
<trkpt lat="40.0728905" lon="-105.2309345">
  <ele>1595.55</ele>
  <time>2026-08-27T18:29:49Z</time>
  <course>7.76</course>
  <speed>0.0</speed>
  <fix>3d</fix>
</trkpt>
<trkpt lat="40.0728903" lon="-105.2309344">
  <ele>1595.46</ele>
  <time>2026-08-27T18:29:49Z</time>
  <course>148.92</course>
  <speed>0.02</speed>
  <fix>3d</fix>
</trkpt>
<trkpt lat="40.0728904" lon="-105.2309345">
  <ele>1595.56</ele>
  <time>2026-08-27T18:29:49Z</time>
  <course>7.76</course>
  <speed>0.0</speed>
  <fix>3d</fix>
</trkpt>
<trkpt lat="40.0728903" lon="-105.2309344">
  <ele>1595.46</ele>
  <time>2026-08-27T18:29:49Z</time>
  <course>149.33</course>
  <speed>0.02</speed>
  <fix>3d</fix>
</trkpt>
<trkpt lat="40.0728904" lon="-105.2309345">
  <ele>1595.56</ele>
  <time>2026-08-27T18:29:49Z</time>
  <course>7.77</course>
  <speed>0.0</speed>
  <fix>3d</fix>
</trkpt>
<trkpt lat="40.0728902" lon="-105.2309344">
  <ele>1595.46</ele>
  <time>2026-08-27T18:29:49Z</time>
  <course>148.9</course>
  <speed>0.02</speed>
  <fix>3d</fix>
</trkpt>
<trkpt lat="40.0728904" lon="-105.2309345">
  <ele>1595.56</ele>
  <time>2026-08-27T18:29:49Z</time>
  <course>7.77</course>
  <speed>0.0</speed>
  <fix>3d</fix>
</trkpt>
<trkpt lat="40.0728901" lon="-105.2309344">
  <ele>1595.46</ele>
  <time>2026-08-27T18:29:49Z</time>
  <course>148.17</course>
  <speed>0.02</speed>
  <fix>3d</fix>
</trkpt>
<trkpt lat="40.0728903" lon="-105.2309344">
  <ele>1595.57</ele>
  <time>2026-08-27T18:29:49Z</time>
  <course>7.77</course>
  <speed>0.0</speed>
  <fix>3d</fix>
</trkpt>
<trkpt lat="40.0728901" lon="-105.2309343">
  <ele>1595.46</ele>
  <time>2026-08-27T18:29:49Z</time>
  <course>147.65</course>
  <speed>0.02</speed>
  <fix>3d</fix>
</trkpt>
<trkpt lat="40.0728903" lon="-105.2309344">
  <ele>1595.56</ele>
  <time>2026-08-27T18:29:49Z</time>
  <course>7.78</course>
  <speed>0.0</speed>
  <fix>3d</fix>
</trkpt>
<trkpt lat="40.0728901" lon="-105.2309343">
  <ele>1595.46</ele>
  <time>2026-08-27T18:29:49Z</time>
  <course>147.26</course>
  <speed>0.02</speed>
  <fix>3d</fix>
</trkpt>
<trkpt lat="40.0728902" lon="-105.2309344">
  <ele>1595.56</ele>
  <time>2026-08-27T18:29:49Z</time>
  <course>7.77</course>
  <speed>0.0</speed>
  <fix>3d</fix>
</trkpt>
<trkpt lat="40.07289" lon="-105.2309342">
  <ele>1595.46</ele>
  <time>2026-08-27T18:29:49Z</time>
  <course>146.28</course>
  <speed>0.02</speed>
  <fix>3d</fix>
</trkpt>
<trkpt lat="40.0728902" lon="-105.2309343">
  <ele>1595.55</ele>
  <time>2026-08-27T18:29:49Z</time>
  <course>7.76</course>
  <speed>0.0</speed>
  <fix>3d</fix>
</trkpt>
<trkpt lat="40.07289" lon="-105.2309341">
  <ele>1595.46</ele>
  <time>2026-08-27T18:29:49Z</time>
  <course>144.71</course>
  <speed>0.02</speed>
  <fix>3d</fix>
</trkpt>
<trkpt lat="40.0728901" lon="-105.2309343">
  <ele>1595.55</ele>
  <time>2026-08-27T18:29:49Z</time>
  <course>7.76</course>
  <speed>0.0</speed>
  <fix>3d</fix>
</trkpt>
<trkpt lat="40.07289" lon="-105.2309341">
  <ele>1595.46</ele>
  <time>2026-08-27T18:29:49Z</time>
  <course>143.27</course>
  <speed>0.02</speed>
  <fix>3d</fix>
</trkpt>
<trkpt lat="40.0728901" lon="-105.2309342">
  <ele>1595.54</ele>
  <time>2026-08-27T18:29:49Z</time>
  <course>7.73</course>
  <speed>0.0</speed>
  <fix>3d</fix>
</trkpt>
<trkpt lat="40.07289" lon="-105.2309341">
  <ele>1595.46</ele>
  <time>2026-08-27T18:29:49Z</time>
  <course>142.18</course>
  <speed>0.03</speed>
  <fix>3d</fix>
</trkpt>
<trkpt lat="40.07289" lon="-105.2309342">
  <ele>1595.54</ele>
  <time>2026-08-27T18:29:49Z</time>
  <course>7.72</course>
  <speed>0.0</speed>
  <fix>3d</fix>
</trkpt>
<trkpt lat="40.0728899" lon="-105.2309341">
  <ele>1595.46</ele>
  <time>2026-08-27T18:29:49Z</time>
  <course>141.82</course>
  <speed>0.03</speed>
  <fix>3d</fix>
</trkpt>
<trkpt lat="40.07289" lon="-105.2309341">
  <ele>1595.54</ele>
  <time>2026-08-27T18:29:49Z</time>
  <course>7.74</course>
  <speed>0.0</speed>
  <fix>3d</fix>
</trkpt>
<trkpt lat="40.0728899" lon="-105.230934">
  <ele>1595.46</ele>
  <time>2026-08-27T18:29:49Z</time>
  <course>141.64</course>
  <speed>0.03</speed>
  <fix>3d</fix>
</trkpt>
<trkpt lat="40.07289" lon="-105.2309341">
  <ele>1595.54</ele>
  <time>2026-08-27T18:29:49Z</time>
  <course>7.72</course>
  <speed>0.0</speed>
  <fix>3d</fix>
</trkpt>
<trkpt lat="40.0728898" lon="-105.2309339">
  <ele>1595.47</ele>
  <time>2026-08-27T18:29:49Z</time>
  <course>141.23</course>
  <speed>0.03</speed>
  <fix>3d</fix>
</trkpt>
<trkpt lat="40.0728899" lon="-105.230934">
  <ele>1595.54</ele>
  <time>2026-08-27T18:29:49Z</time>
  <course>7.73</course>
  <speed>0.0</speed>
  <fix>3d</fix>
</trkpt>
<trkpt lat="40.0728898" lon="-105.2309339">
  <ele>1595.47</ele>
  <time>2026-08-27T18:29:49Z</time>
  <course>141.0</course>
  <speed>0.03</speed>
  <fix>3d</fix>
</trkpt>
<trkpt lat="40.0728899" lon="-105.230934">
  <ele>1595.55</ele>
  <time>2026-08-27T18:29:49Z</time>
  <course>7.76</course>
  <speed>0.0</speed>
  <fix>3d</fix>
</trkpt>
<trkpt lat="40.0728897" lon="-105.2309339">
  <ele>1595.48</ele>
  <time>2026-08-27T18:29:49Z</time>
  <course>140.94</course>
  <speed>0.03</speed>
  <fix>3d</fix>
</trkpt>
<trkpt lat="40.0728898" lon="-105.2309339">
  <ele>1595.55</ele>
  <time>2026-08-27T18:29:49Z</time>
  <course>7.49</course>
  <speed>0.01</speed>
  <fix>3d</fix>
</trkpt>
<trkpt lat="40.0728897" lon="-105.2309338">
  <ele>1595.48</ele>
  <time>2026-08-27T18:29:49Z</time>
  <course>139.67</course>
  <speed>0.03</speed>
  <fix>3d</fix>
</trkpt>
<trkpt lat="40.0728898" lon="-105.2309339">
  <ele>1595.56</ele>
  <time>2026-08-27T18:29:49Z</time>
  <course>6.37</course>
  <speed>0.01</speed>
  <fix>3d</fix>
</trkpt>
<trkpt lat="40.0728896" lon="-105.2309337">
  <ele>1595.49</ele>
  <time>2026-08-27T18:29:49Z</time>
  <course>136.44</course>
  <speed>0.03</speed>
  <fix>3d</fix>
</trkpt>
<trkpt lat="40.0728897" lon="-105.2309338">
  <ele>1595.56</ele>
  <time>2026-08-27T18:29:49Z</time>
  <course>5.05</course>
  <speed>0.01</speed>
  <fix>3d</fix>
</trkpt>
<trkpt lat="40.0728895" lon="-105.2309337">
  <ele>1595.49</ele>
  <time>2026-08-27T18:29:49Z</time>
  <course>133.93</course>
  <speed>0.03</speed>
  <fix>3d</fix>
</trkpt>
<trkpt lat="40.0728897" lon="-105.2309338">
  <ele>1595.56</ele>
  <time>2026-08-27T18:29:49Z</time>
  <course>3.92</course>
  <speed>0.01</speed>
  <fix>3d</fix>
</trkpt>
<trkpt lat="40.0728895" lon="-105.2309337">
  <ele>1595.49</ele>
  <time>2026-08-27T18:29:49Z</time>
  <course>132.82</course>
  <speed>0.03</speed>
  <fix>3d</fix>
</trkpt>
<trkpt lat="40.0728896" lon="-105.2309337">
  <ele>1595.56</ele>
  <time>2026-08-27T18:29:49Z</time>
  <course>3.16</course>
  <speed>0.0</speed>
  <fix>3d</fix>
</trkpt>
<trkpt lat="40.0728895" lon="-105.2309336">
  <ele>1595.49</ele>
  <time>2026-08-27T18:29:49Z</time>
  <course>133.62</course>
  <speed>0.03</speed>
  <fix>3d</fix>
</trkpt>
<trkpt lat="40.0728896" lon="-105.2309337">
  <ele>1595.56</ele>
  <time>2026-08-27T18:29:49Z</time>
  <course>2.85</course>
  <speed>0.0</speed>
  <fix>3d</fix>
</trkpt>
<trkpt lat="40.0728894" lon="-105.2309335">
  <ele>1595.5</ele>
  <time>2026-08-27T18:29:49Z</time>
  <course>137.05</course>
  <speed>0.03</speed>
  <fix>3d</fix>
</trkpt>
<trkpt lat="40.0728895" lon="-105.2309336">
  <ele>1595.56</ele>
  <time>2026-08-27T18:29:49Z</time>
  <course>3.02</course>
  <speed>0.0</speed>
  <fix>3d</fix>
</trkpt>
<trkpt lat="40.0728894" lon="-105.2309334">
  <ele>1595.5</ele>
  <time>2026-08-27T18:29:49Z</time>
  <course>141.2</course>
  <speed>0.02</speed>
  <fix>3d</fix>
</trkpt>
<trkpt lat="40.0728895" lon="-105.2309336">
  <ele>1595.57</ele>
  <time>2026-08-27T18:29:49Z</time>
  <course>3.66</course>
  <speed>0.0</speed>
  <fix>3d</fix>
</trkpt>
<trkpt lat="40.0728894" lon="-105.2309334">
  <ele>1595.5</ele>
  <time>2026-08-27T18:29:49Z</time>
  <course>144.68</course>
  <speed>0.02</speed>
  <fix>3d</fix>
</trkpt>
<trkpt lat="40.0728895" lon="-105.2309335">
  <ele>1595.57</ele>
  <time>2026-08-27T18:29:49Z</time>
  <course>4.74</course>
  <speed>0.0</speed>
  <fix>3d</fix>
</trkpt>
<trkpt lat="40.0728894" lon="-105.2309334">
  <ele>1595.5</ele>
  <time>2026-08-27T18:29:49Z</time>
  <course>147.92</course>
  <speed>0.02</speed>
  <fix>3d</fix>
</trkpt>
<trkpt lat="40.0728894" lon="-105.2309335">
  <ele>1595.57</ele>
  <time>2026-08-27T18:29:49Z</time>
  <course>6.07</course>
  <speed>0.0</speed>
  <fix>3d</fix>
</trkpt>
<trkpt lat="40.0728893" lon="-105.2309334">
  <ele>1595.5</ele>
  <time>2026-08-27T18:29:49Z</time>
  <course>151.51</course>
  <speed>0.02</speed>
  <fix>3d</fix>
</trkpt>
<trkpt lat="40.0728894" lon="-105.2309335">
  <ele>1595.57</ele>
  <time>2026-08-27T18:29:49Z</time>
  <course>7.59</course>
  <speed>0.0</speed>
  <fix>3d</fix>
</trkpt>
<trkpt lat="40.0728893" lon="-105.2309334">
  <ele>1595.5</ele>
  <time>2026-08-27T18:29:49Z</time>
  <course>155.0</course>
  <speed>0.02</speed>
  <fix>3d</fix>
</trkpt>
<trkpt lat="40.0728894" lon="-105.2309335">
  <ele>1595.56</ele>
  <time>2026-08-27T18:29:49Z</time>
  <course>9.09</course>
  <speed>0.0</speed>
  <fix>3d</fix>
</trkpt>
<trkpt lat="40.0728892" lon="-105.2309334">
  <ele>1595.5</ele>
  <time>2026-08-27T18:29:49Z</time>
  <course>157.3</course>
  <speed>0.02</speed>
  <fix>3d</fix>
</trkpt>
<trkpt lat="40.0728893" lon="-105.2309335">
  <ele>1595.56</ele>
  <time>2026-08-27T18:29:49Z</time>
  <course>10.46</course>
  <speed>0.0</speed>
  <fix>3d</fix>
</trkpt>
<trkpt lat="40.0728892" lon="-105.2309333">
  <ele>1595.5</ele>
  <time>2026-08-27T18:29:49Z</time>
  <course>156.79</course>
  <speed>0.02</speed>
  <fix>3d</fix>
</trkpt>
<trkpt lat="40.0728893" lon="-105.2309334">
  <ele>1595.56</ele>
  <time>2026-08-27T18:29:49Z</time>
  <course>11.61</course>
  <speed>0.0</speed>
  <fix>3d</fix>
</trkpt>
<trkpt lat="40.0728892" lon="-105.2309332">
  <ele>1595.5</ele>
  <time>2026-08-27T18:29:49Z</time>
  <course>153.55</course>
  <speed>0.02</speed>
  <fix>3d</fix>
</trkpt>
<trkpt lat="40.0728893" lon="-105.2309334">
  <ele>1595.56</ele>
  <time>2026-08-27T18:29:49Z</time>
  <course>12.37</course>
  <speed>0.0</speed>
  <fix>3d</fix>
</trkpt>
<trkpt lat="40.0728891" lon="-105.2309332">
  <ele>1595.5</ele>
  <time>2026-08-27T18:29:49Z</time>
  <course>148.62</course>
  <speed>0.02</speed>
  <fix>3d</fix>
</trkpt>
<trkpt lat="40.0728892" lon="-105.2309334">
  <ele>1595.56</ele>
  <time>2026-08-27T18:29:49Z</time>
  <course>12.68</course>
  <speed>0.0</speed>
  <fix>3d</fix>
</trkpt>
<trkpt lat="40.0728891" lon="-105.2309332">
  <ele>1595.5</ele>
  <time>2026-08-27T18:29:49Z</time>
  <course>142.89</course>
  <speed>0.02</speed>
  <fix>3d</fix>
</trkpt>
<trkpt lat="40.0728892" lon="-105.2309333">
  <ele>1595.56</ele>
  <time>2026-08-27T18:29:49Z</time>
  <course>12.5</course>
  <speed>0.01</speed>
  <fix>3d</fix>
</trkpt>
<trkpt lat="40.072889" lon="-105.2309332">
  <ele>1595.5</ele>
  <time>2026-08-27T18:29:49Z</time>
  <course>136.94</course>
  <speed>0.03</speed>
  <fix>3d</fix>
</trkpt>
<trkpt lat="40.0728891" lon="-105.2309333">
  <ele>1595.56</ele>
  <time>2026-08-27T18:29:49Z</time>
  <course>11.85</course>
  <speed>0.01</speed>
  <fix>3d</fix>
</trkpt>
<trkpt lat="40.0728889" lon="-105.2309331">
  <ele>1595.5</ele>
  <time>2026-08-27T18:29:49Z</time>
  <course>132.25</course>
  <speed>0.03</speed>
  <fix>3d</fix>
</trkpt>
<trkpt lat="40.0728891" lon="-105.2309332">
  <ele>1595.56</ele>
  <time>2026-08-27T18:29:49Z</time>
  <course>10.81</course>
  <speed>0.01</speed>
  <fix>3d</fix>
</trkpt>
<trkpt lat="40.0728889" lon="-105.2309331">
  <ele>1595.5</ele>
  <time>2026-08-27T18:29:49Z</time>
  <course>129.37</course>
  <speed>0.03</speed>
  <fix>3d</fix>
</trkpt>
<trkpt lat="40.0728891" lon="-105.2309331">
  <ele>1595.56</ele>
  <time>2026-08-27T18:29:49Z</time>
  <course>9.45</course>
  <speed>0.01</speed>
  <fix>3d</fix>
</trkpt>
<trkpt lat="40.0728889" lon="-105.230933">
  <ele>1595.5</ele>
  <time>2026-08-27T18:29:49Z</time>
  <course>127.35</course>
  <speed>0.03</speed>
  <fix>3d</fix>
</trkpt>
<trkpt lat="40.072889" lon="-105.2309331">
  <ele>1595.56</ele>
  <time>2026-08-27T18:29:49Z</time>
  <course>7.95</course>
  <speed>0.01</speed>
  <fix>3d</fix>
</trkpt>
<trkpt lat="40.0728888" lon="-105.2309329">
  <ele>1595.5</ele>
  <time>2026-08-27T18:29:49Z</time>
  <course>126.01</course>
  <speed>0.03</speed>
  <fix>3d</fix>
</trkpt>
<trkpt lat="40.072889" lon="-105.230933">
  <ele>1595.56</ele>
  <time>2026-08-27T18:29:49Z</time>
  <course>6.45</course>
  <speed>0.01</speed>
  <fix>3d</fix>
</trkpt>
<trkpt lat="40.0728888" lon="-105.2309329">
  <ele>1595.5</ele>
  <time>2026-08-27T18:29:49Z</time>
  <course>125.67</course>
  <speed>0.03</speed>
  <fix>3d</fix>
</trkpt>
<trkpt lat="40.0728889" lon="-105.230933">
  <ele>1595.56</ele>
  <time>2026-08-27T18:29:49Z</time>
  <course>5.05</course>
  <speed>0.0</speed>
  <fix>3d</fix>
</trkpt>
<trkpt lat="40.0728888" lon="-105.2309328">
  <ele>1595.5</ele>
  <time>2026-08-27T18:29:49Z</time>
  <course>126.35</course>
  <speed>0.03</speed>
  <fix>3d</fix>
</trkpt>
<trkpt lat="40.0728889" lon="-105.2309329">
  <ele>1595.56</ele>
  <time>2026-08-27T18:29:49Z</time>
  <course>3.92</course>
  <speed>0.0</speed>
  <fix>3d</fix>
</trkpt>
<trkpt lat="40.0728888" lon="-105.2309327">
  <ele>1595.5</ele>
  <time>2026-08-27T18:29:49Z</time>
  <course>128.5</course>
  <speed>0.02</speed>
  <fix>3d</fix>
</trkpt>
<trkpt lat="40.0728889" lon="-105.2309329">
  <ele>1595.57</ele>
  <time>2026-08-27T18:29:49Z</time>
  <course>3.17</course>
  <speed>0.0</speed>
  <fix>3d</fix>
</trkpt>
<trkpt lat="40.0728888" lon="-105.2309327">
  <ele>1595.5</ele>
  <time>2026-08-27T18:29:49Z</time>
  <course>132.9</course>
  <speed>0.02</speed>
  <fix>3d</fix>
</trkpt>
<trkpt lat="40.0728889" lon="-105.2309328">
  <ele>1595.57</ele>
  <time>2026-08-27T18:29:49Z</time>
  <course>2.88</course>
  <speed>0.0</speed>
  <fix>3d</fix>
</trkpt>
<trkpt lat="40.0728887" lon="-105.2309327">
  <ele>1595.5</ele>
  <time>2026-08-27T18:29:49Z</time>
  <course>138.94</course>
  <speed>0.02</speed>
  <fix>3d</fix>
</trkpt>
<trkpt lat="40.0728888" lon="-105.2309328">
  <ele>1595.57</ele>
  <time>2026-08-27T18:29:49Z</time>
  <course>3.06</course>
  <speed>0.0</speed>
  <fix>3d</fix>
</trkpt>
<trkpt lat="40.0728887" lon="-105.2309327">
  <ele>1595.5</ele>
  <time>2026-08-27T18:29:49Z</time>
  <course>145.32</course>
  <speed>0.02</speed>
  <fix>3d</fix>
</trkpt>
<trkpt lat="40.0728888" lon="-105.2309328">
  <ele>1595.57</ele>
  <time>2026-08-27T18:29:49Z</time>
  <course>3.73</course>
  <speed>0.0</speed>
  <fix>3d</fix>
</trkpt>
<trkpt lat="40.0728887" lon="-105.2309326">
  <ele>1595.5</ele>
  <time>2026-08-27T18:29:49Z</time>
  <course>150.57</course>
  <speed>0.02</speed>
  <fix>3d</fix>
</trkpt>
<trkpt lat="40.0728888" lon="-105.2309328">
  <ele>1595.57</ele>
  <time>2026-08-27T18:29:49Z</time>
  <course>4.76</course>
  <speed>0.0</speed>
  <fix>3d</fix>
</trkpt>
<trkpt lat="40.0728886" lon="-105.2309325">
  <ele>1595.5</ele>
  <time>2026-08-27T18:29:49Z</time>
  <course>154.39</course>
  <speed>0.02</speed>
  <fix>3d</fix>
</trkpt>
<trkpt lat="40.0728887" lon="-105.2309327">
  <ele>1595.57</ele>
  <time>2026-08-27T18:29:49Z</time>
  <course>6.1</course>
  <speed>0.0</speed>
  <fix>3d</fix>
</trkpt>
<trkpt lat="40.0728886" lon="-105.2309325">
  <ele>1595.5</ele>
  <time>2026-08-27T18:29:49Z</time>
  <course>157.26</course>
  <speed>0.02</speed>
  <fix>3d</fix>
</trkpt>
<trkpt lat="40.0728887" lon="-105.2309327">
  <ele>1595.56</ele>
  <time>2026-08-27T18:29:49Z</time>
  <course>7.58</course>
  <speed>0.0</speed>
  <fix>3d</fix>
</trkpt>
<trkpt lat="40.0728885" lon="-105.2309325">
  <ele>1595.5</ele>
  <time>2026-08-27T18:29:49Z</time>
  <course>158.54</course>
  <speed>0.02</speed>
  <fix>3d</fix>
</trkpt>
<trkpt lat="40.0728886" lon="-105.2309327">
  <ele>1595.56</ele>
  <time>2026-08-27T18:29:49Z</time>
  <course>9.07</course>
  <speed>0.0</speed>
  <fix>3d</fix>
</trkpt>
<trkpt lat="40.0728885" lon="-105.2309325">
  <ele>1595.49</ele>
  <time>2026-08-27T18:29:49Z</time>
  <course>158.08</course>
  <speed>0.02</speed>
  <fix>3d</fix>
</trkpt>
<trkpt lat="40.0728886" lon="-105.2309326">
  <ele>1595.56</ele>
  <time>2026-08-27T18:29:49Z</time>
  <course>10.45</course>
  <speed>0.0</speed>
  <fix>3d</fix>
</trkpt>
<trkpt lat="40.0728884" lon="-105.2309325">
  <ele>1595.49</ele>
  <time>2026-08-27T18:29:49Z</time>
  <course>156.32</course>
  <speed>0.02</speed>
  <fix>3d</fix>
</trkpt>
<trkpt lat="40.0728885" lon="-105.2309326">
  <ele>1595.56</ele>
  <time>2026-08-27T18:29:49Z</time>
  <course>11.6</course>
  <speed>0.0</speed>
  <fix>3d</fix>
</trkpt>
<trkpt lat="40.0728883" lon="-105.2309325">
  <ele>1595.49</ele>
  <time>2026-08-27T18:29:49Z</time>
  <course>153.12</course>
  <speed>0.02</speed>
  <fix>3d</fix>
</trkpt>
<trkpt lat="40.0728885" lon="-105.2309326">
  <ele>1595.56</ele>
  <time>2026-08-27T18:29:49Z</time>
  <course>12.36</course>
  <speed>0.0</speed>
  <fix>3d</fix>
</trkpt>
<trkpt lat="40.0728883" lon="-105.2309325">
  <ele>1595.49</ele>
  <time>2026-08-27T18:29:49Z</time>
  <course>147.86</course>
  <speed>0.02</speed>
  <fix>3d</fix>
</trkpt>
<trkpt lat="40.0728884" lon="-105.2309325">
  <ele>1595.55</ele>
  <time>2026-08-27T18:29:49Z</time>
  <course>12.66</course>
  <speed>0.0</speed>
  <fix>3d</fix>
</trkpt>
<trkpt lat="40.0728883" lon="-105.2309324">
  <ele>1595.49</ele>
  <time>2026-08-27T18:29:49Z</time>
  <course>141.42</course>
  <speed>0.03</speed>
  <fix>3d</fix>
</trkpt>
<trkpt lat="40.0728884" lon="-105.2309325">
  <ele>1595.55</ele>
  <time>2026-08-27T18:29:49Z</time>
  <course>12.5</course>
  <speed>0.0</speed>
  <fix>3d</fix>
</trkpt>
<trkpt lat="40.0728882" lon="-105.2309324">
  <ele>1595.49</ele>
  <time>2026-08-27T18:29:49Z</time>
  <course>135.75</course>
  <speed>0.03</speed>
  <fix>3d</fix>
</trkpt>
<trkpt lat="40.0728884" lon="-105.2309324">
  <ele>1595.55</ele>
  <time>2026-08-27T18:29:49Z</time>
  <course>11.85</course>
  <speed>0.01</speed>
  <fix>3d</fix>
</trkpt>
<trkpt lat="40.0728882" lon="-105.2309323">
  <ele>1595.5</ele>
  <time>2026-08-27T18:29:49Z</time>
  <course>131.25</course>
  <speed>0.03</speed>
  <fix>3d</fix>
</trkpt>
<trkpt lat="40.0728883" lon="-105.2309324">
  <ele>1595.56</ele>
  <time>2026-08-27T18:29:49Z</time>
  <course>10.8</course>
  <speed>0.01</speed>
  <fix>3d</fix>
</trkpt>
<trkpt lat="40.0728882" lon="-105.2309322">
  <ele>1595.5</ele>
  <time>2026-08-27T18:29:49Z</time>
  <course>127.05</course>
  <speed>0.03</speed>
  <fix>3d</fix>
</trkpt>
<trkpt lat="40.0728883" lon="-105.2309323">
  <ele>1595.56</ele>
  <time>2026-08-27T18:29:49Z</time>
  <course>9.48</course>
  <speed>0.01</speed>
  <fix>3d</fix>
</trkpt>
<trkpt lat="40.0728882" lon="-105.2309322">
  <ele>1595.5</ele>
  <time>2026-08-27T18:29:49Z</time>
  <course>124.15</course>
  <speed>0.03</speed>
  <fix>3d</fix>
</trkpt>
<trkpt lat="40.0728883" lon="-105.2309323">
  <ele>1595.57</ele>
  <time>2026-08-27T18:29:49Z</time>
  <course>7.98</course>
  <speed>0.01</speed>
  <fix>3d</fix>
</trkpt>
<trkpt lat="40.0728881" lon="-105.2309321">
  <ele>1595.5</ele>
  <time>2026-08-27T18:29:49Z</time>
  <course>122.7</course>
  <speed>0.03</speed>
  <fix>3d</fix>
</trkpt>
<trkpt lat="40.0728882" lon="-105.2309322">
  <ele>1595.57</ele>
  <time>2026-08-27T18:29:49Z</time>
  <course>6.48</course>
  <speed>0.01</speed>
  <fix>3d</fix>
</trkpt>
<trkpt lat="40.0728881" lon="-105.230932">
  <ele>1595.5</ele>
  <time>2026-08-27T18:29:49Z</time>
  <course>122.25</course>
  <speed>0.03</speed>
  <fix>3d</fix>
</trkpt>
<trkpt lat="40.0728882" lon="-105.2309321">
  <ele>1595.57</ele>
  <time>2026-08-27T18:29:49Z</time>
  <course>5.08</course>
  <speed>0.0</speed>
  <fix>3d</fix>
</trkpt>
<trkpt lat="40.0728881" lon="-105.230932">
  <ele>1595.5</ele>
  <time>2026-08-27T18:29:49Z</time>
  <course>122.93</course>
  <speed>0.03</speed>
  <fix>3d</fix>
</trkpt>
<trkpt lat="40.0728882" lon="-105.2309321">
  <ele>1595.57</ele>
  <time>2026-08-27T18:29:49Z</time>
  <course>3.95</course>
  <speed>0.0</speed>
  <fix>3d</fix>
</trkpt>
<trkpt lat="40.072888" lon="-105.2309319">
  <ele>1595.5</ele>
  <time>2026-08-27T18:29:49Z</time>
  <course>124.48</course>
  <speed>0.02</speed>
  <fix>3d</fix>
</trkpt>
<trkpt lat="40.0728881" lon="-105.230932">
  <ele>1595.56</ele>
  <time>2026-08-27T18:29:49Z</time>
  <course>3.19</course>
  <speed>0.0</speed>
  <fix>3d</fix>
</trkpt>
<trkpt lat="40.072888" lon="-105.2309319">
  <ele>1595.5</ele>
  <time>2026-08-27T18:29:49Z</time>
  <course>128.06</course>
  <speed>0.02</speed>
  <fix>3d</fix>
</trkpt>
<trkpt lat="40.0728881" lon="-105.230932">
  <ele>1595.56</ele>
  <time>2026-08-27T18:29:49Z</time>
  <course>2.87</course>
  <speed>0.0</speed>
  <fix>3d</fix>
</trkpt>
<trkpt lat="40.072888" lon="-105.2309318">
  <ele>1595.5</ele>
  <time>2026-08-27T18:29:49Z</time>
  <course>134.26</course>
  <speed>0.02</speed>
  <fix>3d</fix>
</trkpt>
<trkpt lat="40.0728881" lon="-105.230932">
  <ele>1595.56</ele>
  <time>2026-08-27T18:29:49Z</time>
  <course>3.03</course>
  <speed>0.0</speed>
  <fix>3d</fix>
</trkpt>
<trkpt lat="40.072888" lon="-105.2309317">
  <ele>1595.5</ele>
  <time>2026-08-27T18:29:49Z</time>
  <course>141.93</course>
  <speed>0.02</speed>
  <fix>3d</fix>
</trkpt>
<trkpt lat="40.0728881" lon="-105.2309319">
  <ele>1595.56</ele>
  <time>2026-08-27T18:29:49Z</time>
  <course>3.66</course>
  <speed>0.0</speed>
  <fix>3d</fix>
</trkpt>
<trkpt lat="40.0728879" lon="-105.2309317">
  <ele>1595.5</ele>
  <time>2026-08-27T18:29:49Z</time>
  <course>149.21</course>
  <speed>0.02</speed>
  <fix>3d</fix>
</trkpt>
<trkpt lat="40.072888" lon="-105.2309319">
  <ele>1595.55</ele>
  <time>2026-08-27T18:29:49Z</time>
  <course>4.74</course>
  <speed>0.0</speed>
  <fix>3d</fix>
</trkpt>
<trkpt lat="40.0728879" lon="-105.2309317">
  <ele>1595.5</ele>
  <time>2026-08-27T18:29:49Z</time>
  <course>154.78</course>
  <speed>0.02</speed>
  <fix>3d</fix>
</trkpt>
<trkpt lat="40.072888" lon="-105.2309319">
  <ele>1595.55</ele>
  <time>2026-08-27T18:29:49Z</time>
  <course>6.08</course>
  <speed>0.0</speed>
  <fix>3d</fix>
</trkpt>
<trkpt lat="40.0728878" lon="-105.2309317">
  <ele>1595.5</ele>
  <time>2026-08-27T18:29:49Z</time>
  <course>157.39</course>
  <speed>0.02</speed>
  <fix>3d</fix>
</trkpt>
<trkpt lat="40.0728879" lon="-105.2309318">
  <ele>1595.55</ele>
  <time>2026-08-27T18:29:49Z</time>
  <course>7.56</course>
  <speed>0.0</speed>
  <fix>3d</fix>
</trkpt>
<trkpt lat="40.0728877" lon="-105.2309317">
  <ele>1595.5</ele>
  <time>2026-08-27T18:29:49Z</time>
  <course>156.7</course>
  <speed>0.02</speed>
  <fix>3d</fix>
</trkpt>
<trkpt lat="40.0728879" lon="-105.2309318">
  <ele>1595.55</ele>
  <time>2026-08-27T18:29:49Z</time>
  <course>9.08</course>
  <speed>0.0</speed>
  <fix>3d</fix>
</trkpt>
<trkpt lat="40.0728877" lon="-105.2309317">
  <ele>1595.5</ele>
  <time>2026-08-27T18:29:49Z</time>
  <course>154.4</course>
  <speed>0.02</speed>
  <fix>3d</fix>
</trkpt>
<trkpt lat="40.0728878" lon="-105.2309318">
  <ele>1595.56</ele>
  <time>2026-08-27T18:29:49Z</time>
  <course>10.45</course>
  <speed>0.0</speed>
  <fix>3d</fix>
</trkpt>
<trkpt lat="40.0728877" lon="-105.2309317">
  <ele>1595.5</ele>
  <time>2026-08-27T18:29:49Z</time>
  <course>151.49</course>
  <speed>0.02</speed>
  <fix>3d</fix>
</trkpt>
<trkpt lat="40.0728878" lon="-105.2309318">
  <ele>1595.56</ele>
  <time>2026-08-27T18:29:49Z</time>
  <course>11.61</course>
  <speed>0.0</speed>
  <fix>3d</fix>
</trkpt>
<trkpt lat="40.0728876" lon="-105.2309316">
  <ele>1595.5</ele>
  <time>2026-08-27T18:29:49Z</time>
  <course>147.73</course>
  <speed>0.02</speed>
  <fix>3d</fix>
</trkpt>
<trkpt lat="40.0728878" lon="-105.2309317">
  <ele>1595.57</ele>
  <time>2026-08-27T18:29:49Z</time>
  <course>12.38</course>
  <speed>0.0</speed>
  <fix>3d</fix>
</trkpt>
<trkpt lat="40.0728876" lon="-105.2309315">
  <ele>1595.5</ele>
  <time>2026-08-27T18:29:49Z</time>
  <course>143.7</course>
  <speed>0.02</speed>
  <fix>3d</fix>
</trkpt>
<trkpt lat="40.0728877" lon="-105.2309317">
  <ele>1595.57</ele>
  <time>2026-08-27T18:29:49Z</time>
  <course>12.7</course>
  <speed>0.0</speed>
  <fix>3d</fix>
</trkpt>
<trkpt lat="40.0728876" lon="-105.2309315">
  <ele>1595.51</ele>
  <time>2026-08-27T18:29:49Z</time>
  <course>139.93</course>
  <speed>0.03</speed>
  <fix>3d</fix>
</trkpt>
<trkpt lat="40.0728877" lon="-105.2309316">
  <ele>1595.57</ele>
  <time>2026-08-27T18:29:49Z</time>
  <course>12.53</course>
  <speed>0.0</speed>
  <fix>3d</fix>
</trkpt>
<trkpt lat="40.0728875" lon="-105.2309315">
  <ele>1595.51</ele>
  <time>2026-08-27T18:29:49Z</time>
  <course>136.08</course>
  <speed>0.03</speed>
  <fix>3d</fix>
</trkpt>
<trkpt lat="40.0728876" lon="-105.2309316">
  <ele>1595.57</ele>
  <time>2026-08-27T18:29:49Z</time>
  <course>11.9</course>
  <speed>0.01</speed>
  <fix>3d</fix>
</trkpt>
<trkpt lat="40.0728875" lon="-105.2309314">
  <ele>1595.5</ele>
  <time>2026-08-27T18:29:49Z</time>
  <course>132.01</course>
  <speed>0.03</speed>
  <fix>3d</fix>
</trkpt>
<trkpt lat="40.0728876" lon="-105.2309315">
  <ele>1595.57</ele>
  <time>2026-08-27T18:29:49Z</time>
  <course>10.87</course>
  <speed>0.01</speed>
  <fix>3d</fix>
</trkpt>
<trkpt lat="40.0728875" lon="-105.2309313">
  <ele>1595.5</ele>
  <time>2026-08-27T18:29:49Z</time>
  <course>127.99</course>
  <speed>0.03</speed>
  <fix>3d</fix>
</trkpt>
<trkpt lat="40.0728876" lon="-105.2309314">
  <ele>1595.57</ele>
  <time>2026-08-27T18:29:49Z</time>
  <course>9.55</course>
  <speed>0.01</speed>
  <fix>3d</fix>
</trkpt>
<trkpt lat="40.0728874" lon="-105.2309313">
  <ele>1595.5</ele>
  <time>2026-08-27T18:29:49Z</time>
  <course>124.86</course>
  <speed>0.03</speed>
  <fix>3d</fix>
</trkpt>
<trkpt lat="40.0728875" lon="-105.2309314">
  <ele>1595.57</ele>
  <time>2026-08-27T18:29:49Z</time>
  <course>8.0</course>
  <speed>0.01</speed>
  <fix>3d</fix>
</trkpt>
<trkpt lat="40.0728874" lon="-105.2309312">
  <ele>1595.5</ele>
  <time>2026-08-27T18:29:49Z</time>
  <course>123.31</course>
  <speed>0.03</speed>
  <fix>3d</fix>
</trkpt>
<trkpt lat="40.0728875" lon="-105.2309313">
  <ele>1595.56</ele>
  <time>2026-08-27T18:29:49Z</time>
  <course>6.49</course>
  <speed>0.01</speed>
  <fix>3d</fix>
</trkpt>
<trkpt lat="40.0728874" lon="-105.2309312">
  <ele>1595.49</ele>
  <time>2026-08-27T18:29:49Z</time>
  <course>122.92</course>
  <speed>0.03</speed>
  <fix>3d</fix>
</trkpt>
<trkpt lat="40.0728875" lon="-105.2309312">
  <ele>1595.56</ele>
  <time>2026-08-27T18:29:49Z</time>
  <course>5.06</course>
  <speed>0.01</speed>
  <fix>3d</fix>
</trkpt>
<trkpt lat="40.0728873" lon="-105.2309311">
  <ele>1595.49</ele>
  <time>2026-08-27T18:29:49Z</time>
  <course>123.37</course>
  <speed>0.03</speed>
  <fix>3d</fix>
</trkpt>
<trkpt lat="40.0728874" lon="-105.2309312">
  <ele>1595.55</ele>
  <time>2026-08-27T18:29:49Z</time>
  <course>3.92</course>
  <speed>0.0</speed>
  <fix>3d</fix>
</trkpt>
<trkpt lat="40.0728873" lon="-105.230931">
  <ele>1595.49</ele>
  <time>2026-08-27T18:29:49Z</time>
  <course>125.43</course>
  <speed>0.02</speed>
  <fix>3d</fix>
</trkpt>
<trkpt lat="40.0728874" lon="-105.2309311">
  <ele>1595.56</ele>
  <time>2026-08-27T18:29:49Z</time>
  <course>3.16</course>
  <speed>0.0</speed>
  <fix>3d</fix>
</trkpt>
<trkpt lat="40.0728873" lon="-105.230931">
  <ele>1595.49</ele>
  <time>2026-08-27T18:29:49Z</time>
  <course>129.38</course>
  <speed>0.02</speed>
  <fix>3d</fix>
</trkpt>
<trkpt lat="40.0728874" lon="-105.2309311">
  <ele>1595.56</ele>
  <time>2026-08-27T18:29:49Z</time>
  <course>2.86</course>
  <speed>0.0</speed>
  <fix>3d</fix>
</trkpt>
<trkpt lat="40.0728872" lon="-105.230931">
  <ele>1595.49</ele>
  <time>2026-08-27T18:29:49Z</time>
  <course>134.62</course>
  <speed>0.02</speed>
  <fix>3d</fix>
</trkpt>
<trkpt lat="40.0728874" lon="-105.2309311">
  <ele>1595.56</ele>
  <time>2026-08-27T18:29:49Z</time>
  <course>3.03</course>
  <speed>0.0</speed>
  <fix>3d</fix>
</trkpt>
<trkpt lat="40.0728871" lon="-105.2309309">
  <ele>1595.49</ele>
  <time>2026-08-27T18:29:49Z</time>
  <course>139.94</course>
  <speed>0.02</speed>
  <fix>3d</fix>
</trkpt>
<trkpt lat="40.0728873" lon="-105.230931">
  <ele>1595.56</ele>
  <time>2026-08-27T18:29:49Z</time>
  <course>3.67</course>
  <speed>0.0</speed>
  <fix>3d</fix>
</trkpt>
<trkpt lat="40.0728871" lon="-105.2309308">
  <ele>1595.49</ele>
  <time>2026-08-27T18:29:49Z</time>
  <course>144.58</course>
  <speed>0.02</speed>
  <fix>3d</fix>
</trkpt>
<trkpt lat="40.0728873" lon="-105.230931">
  <ele>1595.56</ele>
  <time>2026-08-27T18:29:49Z</time>
  <course>4.74</course>
  <speed>0.0</speed>
  <fix>3d</fix>
</trkpt>
<trkpt lat="40.0728871" lon="-105.2309308">
  <ele>1595.49</ele>
  <time>2026-08-27T18:29:49Z</time>
  <course>148.65</course>
  <speed>0.02</speed>
  <fix>3d</fix>
</trkpt>
<trkpt lat="40.0728872" lon="-105.230931">
  <ele>1595.56</ele>
  <time>2026-08-27T18:29:49Z</time>
  <course>6.09</course>
  <speed>0.0</speed>
  <fix>3d</fix>
</trkpt>
<trkpt lat="40.072887" lon="-105.2309308">
  <ele>1595.49</ele>
  <time>2026-08-27T18:29:49Z</time>
  <course>151.19</course>
  <speed>0.02</speed>
  <fix>3d</fix>
</trkpt>
<trkpt lat="40.0728872" lon="-105.230931">
  <ele>1595.56</ele>
  <time>2026-08-27T18:29:49Z</time>
  <course>7.6</course>
  <speed>0.0</speed>
  <fix>3d</fix>
</trkpt>
<trkpt lat="40.072887" lon="-105.2309308">
  <ele>1595.49</ele>
  <time>2026-08-27T18:29:49Z</time>
  <course>152.04</course>
  <speed>0.02</speed>
  <fix>3d</fix>
</trkpt>
<trkpt lat="40.0728871" lon="-105.2309309">
  <ele>1595.56</ele>
  <time>2026-08-27T18:29:49Z</time>
  <course>9.08</course>
  <speed>0.0</speed>
  <fix>3d</fix>
</trkpt>
<trkpt lat="40.072887" lon="-105.2309308">
  <ele>1595.49</ele>
  <time>2026-08-27T18:29:49Z</time>
  <course>151.13</course>
  <speed>0.02</speed>
  <fix>3d</fix>
</trkpt>
<trkpt lat="40.0728871" lon="-105.2309309">
  <ele>1595.56</ele>
  <time>2026-08-27T18:29:49Z</time>
  <course>10.48</course>
  <speed>0.0</speed>
  <fix>3d</fix>
</trkpt>
<trkpt lat="40.072887" lon="-105.2309307">
  <ele>1595.49</ele>
  <time>2026-08-27T18:29:49Z</time>
  <course>149.08</course>
  <speed>0.02</speed>
  <fix>3d</fix>
</trkpt>
<trkpt lat="40.0728871" lon="-105.2309309">
  <ele>1595.55</ele>
  <time>2026-08-27T18:29:49Z</time>
  <course>11.62</course>
  <speed>0.0</speed>
  <fix>3d</fix>
</trkpt>
<trkpt lat="40.0728869" lon="-105.2309307">
  <ele>1595.49</ele>
  <time>2026-08-27T18:29:49Z</time>
  <course>146.17</course>
  <speed>0.02</speed>
  <fix>3d</fix>
</trkpt>
<trkpt lat="40.072887" lon="-105.2309308">
  <ele>1595.55</ele>
  <time>2026-08-27T18:29:49Z</time>
  <course>12.37</course>
  <speed>0.0</speed>
  <fix>3d</fix>
</trkpt>
<trkpt lat="40.0728869" lon="-105.2309307">
  <ele>1595.5</ele>
  <time>2026-08-27T18:29:49Z</time>
  <course>141.9</course>
  <speed>0.03</speed>
  <fix>3d</fix>
</trkpt>
<trkpt lat="40.072887" lon="-105.2309308">
  <ele>1595.55</ele>
  <time>2026-08-27T18:29:49Z</time>
  <course>12.65</course>
  <speed>0.0</speed>
  <fix>3d</fix>
</trkpt>
<trkpt lat="40.0728868" lon="-105.2309306">
  <ele>1595.5</ele>
  <time>2026-08-27T18:29:49Z</time>
  <course>137.64</course>
  <speed>0.03</speed>
  <fix>3d</fix>
</trkpt>
<trkpt lat="40.0728869" lon="-105.2309307">
  <ele>1595.55</ele>
  <time>2026-08-27T18:29:49Z</time>
  <course>12.49</course>
  <speed>0.01</speed>
  <fix>3d</fix>
</trkpt>
<trkpt lat="40.0728868" lon="-105.2309305">
  <ele>1595.5</ele>
  <time>2026-08-27T18:29:49Z</time>
  <course>134.03</course>
  <speed>0.03</speed>
  <fix>3d</fix>
</trkpt>
<trkpt lat="40.0728869" lon="-105.2309307">
  <ele>1595.55</ele>
  <time>2026-08-27T18:29:49Z</time>
  <course>11.83</course>
  <speed>0.01</speed>
  <fix>3d</fix>
</trkpt>
<trkpt lat="40.0728868" lon="-105.2309305">
  <ele>1595.5</ele>
  <time>2026-08-27T18:29:49Z</time>
  <course>131.0</course>
  <speed>0.03</speed>
  <fix>3d</fix>
</trkpt>
<trkpt lat="40.0728869" lon="-105.2309306">
  <ele>1595.55</ele>
  <time>2026-08-27T18:29:49Z</time>
  <course>10.79</course>
  <speed>0.01</speed>
  <fix>3d</fix>
</trkpt>
<trkpt lat="40.0728867" lon="-105.2309304">
  <ele>1595.5</ele>
  <time>2026-08-27T18:29:49Z</time>
  <course>128.49</course>
  <speed>0.03</speed>
  <fix>3d</fix>
</trkpt>
<trkpt lat="40.0728868" lon="-105.2309305">
  <ele>1595.55</ele>
  <time>2026-08-27T18:29:49Z</time>
  <course>9.45</course>
  <speed>0.01</speed>
  <fix>3d</fix>
</trkpt>
<trkpt lat="40.0728867" lon="-105.2309303">
  <ele>1595.5</ele>
  <time>2026-08-27T18:29:49Z</time>
  <course>126.28</course>
  <speed>0.03</speed>
  <fix>3d</fix>
</trkpt>
<trkpt lat="40.0728868" lon="-105.2309304">
  <ele>1595.55</ele>
  <time>2026-08-27T18:29:49Z</time>
  <course>7.96</course>
  <speed>0.01</speed>
  <fix>3d</fix>
</trkpt>
<trkpt lat="40.0728867" lon="-105.2309303">
  <ele>1595.5</ele>
  <time>2026-08-27T18:29:49Z</time>
  <course>124.53</course>
  <speed>0.03</speed>
  <fix>3d</fix>
</trkpt>
<trkpt lat="40.0728868" lon="-105.2309304">
  <ele>1595.55</ele>
  <time>2026-08-27T18:29:49Z</time>
  <course>6.43</course>
  <speed>0.01</speed>
  <fix>3d</fix>
</trkpt>
<trkpt lat="40.0728866" lon="-105.2309302">
  <ele>1595.51</ele>
  <time>2026-08-27T18:29:49Z</time>
  <course>123.15</course>
  <speed>0.03</speed>
  <fix>3d</fix>
</trkpt>
<trkpt lat="40.0728867" lon="-105.2309303">
  <ele>1595.55</ele>
  <time>2026-08-27T18:29:49Z</time>
  <course>5.03</course>
  <speed>0.01</speed>
  <fix>3d</fix>
</trkpt>
<trkpt lat="40.0728865" lon="-105.2309301">
  <ele>1595.51</ele>
  <time>2026-08-27T18:29:49Z</time>
  <course>122.61</course>
  <speed>0.03</speed>
  <fix>3d</fix>
</trkpt>
<trkpt lat="40.0728867" lon="-105.2309302">
  <ele>1595.56</ele>
  <time>2026-08-27T18:29:49Z</time>
  <course>3.9</course>
  <speed>0.0</speed>
  <fix>3d</fix>
</trkpt>
<trkpt lat="40.0728865" lon="-105.2309301">
  <ele>1595.51</ele>
  <time>2026-08-27T18:29:49Z</time>
  <course>123.78</course>
  <speed>0.03</speed>
  <fix>3d</fix>
</trkpt>
<trkpt lat="40.0728867" lon="-105.2309302">
  <ele>1595.56</ele>
  <time>2026-08-27T18:29:50Z</time>
  <course>3.17</course>
  <speed>0.0</speed>
  <fix>3d</fix>
</trkpt>
<trkpt lat="40.0728865" lon="-105.23093">
  <ele>1595.51</ele>
  <time>2026-08-27T18:29:50Z</time>
  <course>127.81</course>
  <speed>0.02</speed>
  <fix>3d</fix>
</trkpt>
<trkpt lat="40.0728866" lon="-105.2309302">
  <ele>1595.56</ele>
  <time>2026-08-27T18:29:50Z</time>
  <course>2.88</course>
  <speed>0.0</speed>
  <fix>3d</fix>
</trkpt>
<trkpt lat="40.0728864" lon="-105.23093">
  <ele>1595.51</ele>
  <time>2026-08-27T18:29:50Z</time>
  <course>134.67</course>
  <speed>0.02</speed>
  <fix>3d</fix>
</trkpt>
<trkpt lat="40.0728866" lon="-105.2309301">
  <ele>1595.57</ele>
  <time>2026-08-27T18:29:50Z</time>
  <course>3.04</course>
  <speed>0.0</speed>
  <fix>3d</fix>
</trkpt>
<trkpt lat="40.0728864" lon="-105.23093">
  <ele>1595.52</ele>
  <time>2026-08-27T18:29:50Z</time>
  <course>142.62</course>
  <speed>0.02</speed>
  <fix>3d</fix>
</trkpt>
<trkpt lat="40.0728865" lon="-105.2309301">
  <ele>1595.57</ele>
  <time>2026-08-27T18:29:50Z</time>
  <course>3.68</course>
  <speed>0.0</speed>
  <fix>3d</fix>
</trkpt>
<trkpt lat="40.0728864" lon="-105.2309299">
  <ele>1595.52</ele>
  <time>2026-08-27T18:29:50Z</time>
  <course>149.42</course>
  <speed>0.02</speed>
  <fix>3d</fix>
</trkpt>
<trkpt lat="40.0728865" lon="-105.2309301">
  <ele>1595.57</ele>
  <time>2026-08-27T18:29:50Z</time>
  <course>4.76</course>
  <speed>0.0</speed>
  <fix>3d</fix>
</trkpt>
<trkpt lat="40.0728864" lon="-105.2309298">
  <ele>1595.52</ele>
  <time>2026-08-27T18:29:50Z</time>
  <course>154.48</course>
  <speed>0.02</speed>
  <fix>3d</fix>
</trkpt>
<trkpt lat="40.0728865" lon="-105.23093">
  <ele>1595.56</ele>
  <time>2026-08-27T18:29:50Z</time>
  <course>6.09</course>
  <speed>0.0</speed>
  <fix>3d</fix>
</trkpt>
<trkpt lat="40.0728863" lon="-105.2309298">
  <ele>1595.51</ele>
  <time>2026-08-27T18:29:50Z</time>
  <course>157.82</course>
  <speed>0.02</speed>
  <fix>3d</fix>
</trkpt>
<trkpt lat="40.0728864" lon="-105.23093">
  <ele>1595.56</ele>
  <time>2026-08-27T18:29:50Z</time>
  <course>7.59</course>
  <speed>0.0</speed>
  <fix>3d</fix>
</trkpt>
<trkpt lat="40.0728863" lon="-105.2309298">
  <ele>1595.51</ele>
  <time>2026-08-27T18:29:50Z</time>
  <course>159.09</course>
  <speed>0.02</speed>
  <fix>3d</fix>
</trkpt>
<trkpt lat="40.0728864" lon="-105.23093">
  <ele>1595.56</ele>
  <time>2026-08-27T18:29:50Z</time>
  <course>9.11</course>
  <speed>0.0</speed>
  <fix>3d</fix>
</trkpt>
<trkpt lat="40.0728862" lon="-105.2309298">
  <ele>1595.51</ele>
  <time>2026-08-27T18:29:50Z</time>
  <course>158.59</course>
  <speed>0.02</speed>
  <fix>3d</fix>
</trkpt>
<trkpt lat="40.0728863" lon="-105.23093">
  <ele>1595.56</ele>
  <time>2026-08-27T18:29:50Z</time>
  <course>10.48</course>
  <speed>0.0</speed>
  <fix>3d</fix>
</trkpt>
<trkpt lat="40.0728862" lon="-105.2309298">
  <ele>1595.51</ele>
  <time>2026-08-27T18:29:50Z</time>
  <course>155.81</course>
  <speed>0.02</speed>
  <fix>3d</fix>
</trkpt>
<trkpt lat="40.0728863" lon="-105.2309299">
  <ele>1595.56</ele>
  <time>2026-08-27T18:29:50Z</time>
  <course>11.62</course>
  <speed>0.0</speed>
  <fix>3d</fix>
</trkpt>
<trkpt lat="40.0728861" lon="-105.2309298">
  <ele>1595.51</ele>
  <time>2026-08-27T18:29:50Z</time>
  <course>151.17</course>
  <speed>0.02</speed>
  <fix>3d</fix>
</trkpt>
<trkpt lat="40.0728862" lon="-105.2309299">
  <ele>1595.56</ele>
  <time>2026-08-27T18:29:50Z</time>
  <course>12.36</course>
  <speed>0.0</speed>
  <fix>3d</fix>
</trkpt>
<trkpt lat="40.0728861" lon="-105.2309297">
  <ele>1595.51</ele>
  <time>2026-08-27T18:29:50Z</time>
  <course>145.31</course>
  <speed>0.03</speed>
  <fix>3d</fix>
</trkpt>
<trkpt lat="40.0728862" lon="-105.2309298">
  <ele>1595.56</ele>
  <time>2026-08-27T18:29:50Z</time>
  <course>12.69</course>
  <speed>0.0</speed>
  <fix>3d</fix>
</trkpt>
<trkpt lat="40.0728861" lon="-105.2309296">
  <ele>1595.51</ele>
  <time>2026-08-27T18:29:50Z</time>
  <course>139.16</course>
  <speed>0.03</speed>
  <fix>3d</fix>
</trkpt>
<trkpt lat="40.0728862" lon="-105.2309298">
  <ele>1595.56</ele>
  <time>2026-08-27T18:29:50Z</time>
  <course>12.51</course>
  <speed>0.01</speed>
  <fix>3d</fix>
</trkpt>
<trkpt lat="40.072886" lon="-105.2309296">
  <ele>1595.51</ele>
  <time>2026-08-27T18:29:50Z</time>
  <course>133.44</course>
  <speed>0.03</speed>
  <fix>3d</fix>
</trkpt>
<trkpt lat="40.0728861" lon="-105.2309297">
  <ele>1595.56</ele>
  <time>2026-08-27T18:29:50Z</time>
  <course>11.87</course>
  <speed>0.01</speed>
  <fix>3d</fix>
</trkpt>
<trkpt lat="40.0728859" lon="-105.2309296">
  <ele>1595.51</ele>
  <time>2026-08-27T18:29:50Z</time>
  <course>129.06</course>
  <speed>0.03</speed>
  <fix>3d</fix>
</trkpt>
<trkpt lat="40.0728861" lon="-105.2309296">
  <ele>1595.56</ele>
  <time>2026-08-27T18:29:50Z</time>
  <course>10.82</course>
  <speed>0.01</speed>
  <fix>3d</fix>
</trkpt>
<trkpt lat="40.0728859" lon="-105.2309295">
  <ele>1595.52</ele>
  <time>2026-08-27T18:29:50Z</time>
  <course>125.96</course>
  <speed>0.03</speed>
  <fix>3d</fix>
</trkpt>
<trkpt lat="40.072886" lon="-105.2309296">
  <ele>1595.57</ele>
  <time>2026-08-27T18:29:50Z</time>
  <course>9.5</course>
  <speed>0.01</speed>
  <fix>3d</fix>
</trkpt>
<trkpt lat="40.0728858" lon="-105.2309294">
  <ele>1595.52</ele>
  <time>2026-08-27T18:29:50Z</time>
  <course>123.78</course>
  <speed>0.03</speed>
  <fix>3d</fix>
</trkpt>
<trkpt lat="40.072886" lon="-105.2309295">
  <ele>1595.57</ele>
  <time>2026-08-27T18:29:50Z</time>
  <course>8.02</course>
  <speed>0.01</speed>
  <fix>3d</fix>
</trkpt>
<trkpt lat="40.0728858" lon="-105.2309293">
  <ele>1595.52</ele>
  <time>2026-08-27T18:29:50Z</time>
  <course>122.61</course>
  <speed>0.03</speed>
  <fix>3d</fix>
</trkpt>
<trkpt lat="40.072886" lon="-105.2309294">
  <ele>1595.58</ele>
  <time>2026-08-27T18:29:50Z</time>
  <course>6.5</course>
  <speed>0.01</speed>
  <fix>3d</fix>
</trkpt>
<trkpt lat="40.0728858" lon="-105.2309293">
  <ele>1595.52</ele>
  <time>2026-08-27T18:29:50Z</time>
  <course>122.6</course>
  <speed>0.03</speed>
  <fix>3d</fix>
</trkpt>
<trkpt lat="40.0728859" lon="-105.2309294">
  <ele>1595.58</ele>
  <time>2026-08-27T18:29:50Z</time>
  <course>5.13</course>
  <speed>0.01</speed>
  <fix>3d</fix>
</trkpt>
<trkpt lat="40.0728858" lon="-105.2309292">
  <ele>1595.51</ele>
  <time>2026-08-27T18:29:50Z</time>
  <course>123.65</course>
  <speed>0.03</speed>
  <fix>3d</fix>
</trkpt>
<trkpt lat="40.0728859" lon="-105.2309293">
  <ele>1595.58</ele>
  <time>2026-08-27T18:29:50Z</time>
  <course>3.98</course>
  <speed>0.0</speed>
  <fix>3d</fix>
</trkpt>
<trkpt lat="40.0728858" lon="-105.2309291">
  <ele>1595.51</ele>
  <time>2026-08-27T18:29:50Z</time>
  <course>125.73</course>
  <speed>0.03</speed>
  <fix>3d</fix>
</trkpt>
<trkpt lat="40.0728859" lon="-105.2309293">
  <ele>1595.59</ele>
  <time>2026-08-27T18:29:50Z</time>
  <course>3.22</course>
  <speed>0.0</speed>
  <fix>3d</fix>
</trkpt>
<trkpt lat="40.0728857" lon="-105.2309291">
  <ele>1595.51</ele>
  <time>2026-08-27T18:29:50Z</time>
  <course>128.79</course>
  <speed>0.03</speed>
  <fix>3d</fix>
</trkpt>
<trkpt lat="40.0728858" lon="-105.2309292">
  <ele>1595.58</ele>
  <time>2026-08-27T18:29:50Z</time>
  <course>2.93</course>
  <speed>0.0</speed>
  <fix>3d</fix>
</trkpt>
<trkpt lat="40.0728857" lon="-105.2309291">
  <ele>1595.5</ele>
  <time>2026-08-27T18:29:50Z</time>
  <course>131.93</course>
  <speed>0.02</speed>
  <fix>3d</fix>
</trkpt>
<trkpt lat="40.0728858" lon="-105.2309292">
  <ele>1595.58</ele>
  <time>2026-08-27T18:29:50Z</time>
  <course>2.98</course>
  <speed>0.0</speed>
  <fix>3d</fix>
</trkpt>
<trkpt lat="40.0728857" lon="-105.230929">
  <ele>1595.5</ele>
  <time>2026-08-27T18:29:50Z</time>
  <course>134.85</course>
  <speed>0.02</speed>
  <fix>3d</fix>
</trkpt>
<trkpt lat="40.0728858" lon="-105.2309291">
  <ele>1595.58</ele>
  <time>2026-08-27T18:29:50Z</time>
  <course>3.0</course>
  <speed>0.0</speed>
  <fix>3d</fix>
</trkpt>
<trkpt lat="40.0728856" lon="-105.2309289">
  <ele>1595.49</ele>
  <time>2026-08-27T18:29:50Z</time>
  <course>136.56</course>
  <speed>0.02</speed>
  <fix>3d</fix>
</trkpt>
<trkpt lat="40.0728857" lon="-105.2309291">
  <ele>1595.58</ele>
  <time>2026-08-27T18:29:50Z</time>
  <course>2.99</course>
  <speed>0.0</speed>
  <fix>3d</fix>
</trkpt>
<trkpt lat="40.0728856" lon="-105.2309289">
  <ele>1595.49</ele>
  <time>2026-08-27T18:29:50Z</time>
  <course>136.02</course>
  <speed>0.02</speed>
  <fix>3d</fix>
</trkpt>
<trkpt lat="40.0728857" lon="-105.230929">
  <ele>1595.58</ele>
  <time>2026-08-27T18:29:50Z</time>
  <course>2.99</course>
  <speed>0.0</speed>
  <fix>3d</fix>
</trkpt>
<trkpt lat="40.0728856" lon="-105.2309289">
  <ele>1595.48</ele>
  <time>2026-08-27T18:29:50Z</time>
  <course>135.28</course>
  <speed>0.03</speed>
  <fix>3d</fix>
</trkpt>
<trkpt lat="40.0728857" lon="-105.230929">
  <ele>1595.58</ele>
  <time>2026-08-27T18:29:50Z</time>
  <course>3.01</course>
  <speed>0.0</speed>
  <fix>3d</fix>
</trkpt>
<trkpt lat="40.0728855" lon="-105.2309288">
  <ele>1595.47</ele>
  <time>2026-08-27T18:29:50Z</time>
  <course>134.93</course>
  <speed>0.03</speed>
  <fix>3d</fix>
</trkpt>
<trkpt lat="40.0728856" lon="-105.2309289">
  <ele>1595.57</ele>
  <time>2026-08-27T18:29:50Z</time>
  <course>2.99</course>
  <speed>0.0</speed>
  <fix>3d</fix>
</trkpt>
<trkpt lat="40.0728855" lon="-105.2309288">
  <ele>1595.47</ele>
  <time>2026-08-27T18:29:50Z</time>
  <course>133.94</course>
  <speed>0.03</speed>
  <fix>3d</fix>
</trkpt>
<trkpt lat="40.0728856" lon="-105.2309289">
  <ele>1595.56</ele>
  <time>2026-08-27T18:29:50Z</time>
  <course>2.98</course>
  <speed>0.01</speed>
  <fix>3d</fix>
</trkpt>
<trkpt lat="40.0728854" lon="-105.2309287">
  <ele>1595.46</ele>
  <time>2026-08-27T18:29:50Z</time>
  <course>132.94</course>
  <speed>0.03</speed>
  <fix>3d</fix>
</trkpt>
<trkpt lat="40.0728855" lon="-105.2309288">
  <ele>1595.55</ele>
  <time>2026-08-27T18:29:50Z</time>
  <course>2.96</course>
  <speed>0.01</speed>
  <fix>3d</fix>
</trkpt>
<trkpt lat="40.0728853" lon="-105.2309286">
  <ele>1595.46</ele>
  <time>2026-08-27T18:29:50Z</time>
  <course>131.84</course>
  <speed>0.03</speed>
  <fix>3d</fix>
</trkpt>
<trkpt lat="40.0728855" lon="-105.2309287">
  <ele>1595.55</ele>
  <time>2026-08-27T18:29:50Z</time>
  <course>2.95</course>
  <speed>0.01</speed>
  <fix>3d</fix>
</trkpt>
<trkpt lat="40.0728853" lon="-105.2309286">
  <ele>1595.46</ele>
  <time>2026-08-27T18:29:50Z</time>
  <course>130.52</course>
  <speed>0.03</speed>
  <fix>3d</fix>
</trkpt>
<trkpt lat="40.0728854" lon="-105.2309287">
  <ele>1595.55</ele>
  <time>2026-08-27T18:29:50Z</time>
  <course>2.95</course>
  <speed>0.01</speed>
  <fix>3d</fix>
</trkpt>
<trkpt lat="40.0728852" lon="-105.2309285">
  <ele>1595.46</ele>
  <time>2026-08-27T18:29:50Z</time>
  <course>130.25</course>
  <speed>0.03</speed>
  <fix>3d</fix>
</trkpt>
<trkpt lat="40.0728854" lon="-105.2309286">
  <ele>1595.55</ele>
  <time>2026-08-27T18:29:50Z</time>
  <course>2.96</course>
  <speed>0.01</speed>
  <fix>3d</fix>
</trkpt>
<trkpt lat="40.0728852" lon="-105.2309284">
  <ele>1595.46</ele>
  <time>2026-08-27T18:29:50Z</time>
  <course>130.68</course>
  <speed>0.03</speed>
  <fix>3d</fix>
</trkpt>
<trkpt lat="40.0728853" lon="-105.2309285">
  <ele>1595.55</ele>
  <time>2026-08-27T18:29:50Z</time>
  <course>2.96</course>
  <speed>0.01</speed>
  <fix>3d</fix>
</trkpt>
<trkpt lat="40.0728852" lon="-105.2309284">
  <ele>1595.46</ele>
  <time>2026-08-27T18:29:50Z</time>
  <course>131.05</course>
  <speed>0.03</speed>
  <fix>3d</fix>
</trkpt>
<trkpt lat="40.0728853" lon="-105.2309285">
  <ele>1595.55</ele>
  <time>2026-08-27T18:29:50Z</time>
  <course>2.96</course>
  <speed>0.01414213562373095</speed>
  <fix>3d</fix>
</trkpt>
<trkpt lat="40.0728851" lon="-105.2309283">
  <ele>1595.46</ele>
  <time>2026-08-27T18:29:50Z</time>
  <course>131.37</course>
  <speed>0.04</speed>
  <fix>3d</fix>
</trkpt>
<trkpt lat="40.0728852" lon="-105.2309284">
  <ele>1595.55</ele>
  <time>2026-08-27T18:29:50Z</time>
  <course>2.95</course>
  <speed>0.01414213562373095</speed>
  <fix>3d</fix>
</trkpt>
<trkpt lat="40.0728851" lon="-105.2309282">
  <ele>1595.46</ele>
  <time>2026-08-27T18:29:50Z</time>
  <course>131.54</course>
  <speed>0.04</speed>
  <fix>3d</fix>
</trkpt>
<trkpt lat="40.0728852" lon="-105.2309283">
  <ele>1595.55</ele>
  <time>2026-08-27T18:29:50Z</time>
  <course>2.95</course>
  <speed>0.01414213562373095</speed>
  <fix>3d</fix>
</trkpt>
<trkpt lat="40.0728851" lon="-105.2309281">
  <ele>1595.46</ele>
  <time>2026-08-27T18:29:50Z</time>
  <course>131.74</course>
  <speed>0.04</speed>
  <fix>3d</fix>
</trkpt>
<trkpt lat="40.0728851" lon="-105.2309282">
  <ele>1595.55</ele>
  <time>2026-08-27T18:29:50Z</time>
  <course>2.94</course>
  <speed>0.01414213562373095</speed>
  <fix>3d</fix>
</trkpt>
<trkpt lat="40.072885" lon="-105.2309281">
  <ele>1595.46</ele>
  <time>2026-08-27T18:29:50Z</time>
  <course>132.31</course>
  <speed>0.04</speed>
  <fix>3d</fix>
</trkpt>
<trkpt lat="40.0728851" lon="-105.2309282">
  <ele>1595.55</ele>
  <time>2026-08-27T18:29:50Z</time>
  <course>2.91</course>
  <speed>0.01414213562373095</speed>
  <fix>3d</fix>
</trkpt>
<trkpt lat="40.072885" lon="-105.230928">
  <ele>1595.47</ele>
  <time>2026-08-27T18:29:50Z</time>
  <course>132.73</course>
  <speed>0.04</speed>
  <fix>3d</fix>
</trkpt>
<trkpt lat="40.072885" lon="-105.2309281">
  <ele>1595.55</ele>
  <time>2026-08-27T18:29:50Z</time>
  <course>2.07</course>
  <speed>0.01414213562373095</speed>
  <fix>3d</fix>
</trkpt>
<trkpt lat="40.0728849" lon="-105.2309279">
  <ele>1595.47</ele>
  <time>2026-08-27T18:29:50Z</time>
  <course>130.76</course>
  <speed>0.04</speed>
  <fix>3d</fix>
</trkpt>
<trkpt lat="40.072885" lon="-105.230928">
  <ele>1595.55</ele>
  <time>2026-08-27T18:29:50Z</time>
  <course>0.74</course>
  <speed>0.01</speed>
  <fix>3d</fix>
</trkpt>
<trkpt lat="40.0728848" lon="-105.2309278">
  <ele>1595.47</ele>
  <time>2026-08-27T18:29:50Z</time>
  <course>128.01</course>
  <speed>0.04</speed>
  <fix>3d</fix>
</trkpt>
<trkpt lat="40.0728849" lon="-105.2309279">
  <ele>1595.55</ele>
  <time>2026-08-27T18:29:50Z</time>
  <course>359.49</course>
  <speed>0.01</speed>
  <fix>3d</fix>
</trkpt>
<trkpt lat="40.0728848" lon="-105.2309277">
  <ele>1595.47</ele>
  <time>2026-08-27T18:29:50Z</time>
  <course>126.87</course>
  <speed>0.04</speed>
  <fix>3d</fix>
</trkpt>
<trkpt lat="40.0728849" lon="-105.2309278">
  <ele>1595.55</ele>
  <time>2026-08-27T18:29:50Z</time>
  <course>358.59</course>
  <speed>0.01</speed>
  <fix>3d</fix>
</trkpt>
<trkpt lat="40.0728848" lon="-105.2309277">
  <ele>1595.47</ele>
  <time>2026-08-27T18:29:50Z</time>
  <course>126.98</course>
  <speed>0.04</speed>
  <fix>3d</fix>
</trkpt>
<trkpt lat="40.0728849" lon="-105.2309278">
  <ele>1595.55</ele>
  <time>2026-08-27T18:29:50Z</time>
  <course>358.11</course>
  <speed>0.0</speed>
  <fix>3d</fix>
</trkpt>
<trkpt lat="40.0728847" lon="-105.2309276">
  <ele>1595.48</ele>
  <time>2026-08-27T18:29:50Z</time>
  <course>128.71</course>
  <speed>0.03</speed>
  <fix>3d</fix>
</trkpt>
<trkpt lat="40.0728848" lon="-105.2309277">
  <ele>1595.56</ele>
  <time>2026-08-27T18:29:50Z</time>
  <course>358.1</course>
  <speed>0.0</speed>
  <fix>3d</fix>
</trkpt>
<trkpt lat="40.0728846" lon="-105.2309275">
  <ele>1595.48</ele>
  <time>2026-08-27T18:29:50Z</time>
  <course>132.16</course>
  <speed>0.03</speed>
  <fix>3d</fix>
</trkpt>
<trkpt lat="40.0728848" lon="-105.2309277">
  <ele>1595.56</ele>
  <time>2026-08-27T18:29:50Z</time>
  <course>358.56</course>
  <speed>0.0</speed>
  <fix>3d</fix>
</trkpt>
<trkpt lat="40.0728846" lon="-105.2309274">
  <ele>1595.48</ele>
  <time>2026-08-27T18:29:50Z</time>
  <course>136.62</course>
  <speed>0.03</speed>
  <fix>3d</fix>
</trkpt>
<trkpt lat="40.0728847" lon="-105.2309276">
  <ele>1595.55</ele>
  <time>2026-08-27T18:29:50Z</time>
  <course>359.48</course>
  <speed>0.0</speed>
  <fix>3d</fix>
</trkpt>
<trkpt lat="40.0728845" lon="-105.2309274">
  <ele>1595.48</ele>
  <time>2026-08-27T18:29:50Z</time>
  <course>141.09</course>
  <speed>0.02</speed>
  <fix>3d</fix>
</trkpt>
<trkpt lat="40.0728847" lon="-105.2309276">
  <ele>1595.55</ele>
  <time>2026-08-27T18:29:50Z</time>
  <course>0.69</course>
  <speed>0.0</speed>
  <fix>3d</fix>
</trkpt>
<trkpt lat="40.0728845" lon="-105.2309274">
  <ele>1595.48</ele>
  <time>2026-08-27T18:29:50Z</time>
  <course>144.44</course>
  <speed>0.02</speed>
  <fix>3d</fix>
</trkpt>
<trkpt lat="40.0728846" lon="-105.2309275">
  <ele>1595.56</ele>
  <time>2026-08-27T18:29:50Z</time>
  <course>2.12</course>
  <speed>0.0</speed>
  <fix>3d</fix>
</trkpt>
<trkpt lat="40.0728845" lon="-105.2309274">
  <ele>1595.48</ele>
  <time>2026-08-27T18:29:50Z</time>
  <course>146.84</course>
  <speed>0.02</speed>
  <fix>3d</fix>
</trkpt>
<trkpt lat="40.0728846" lon="-105.2309275">
  <ele>1595.56</ele>
  <time>2026-08-27T18:29:50Z</time>
  <course>3.67</course>
  <speed>0.0</speed>
  <fix>3d</fix>
</trkpt>
<trkpt lat="40.0728845" lon="-105.2309273">
  <ele>1595.49</ele>
  <time>2026-08-27T18:29:50Z</time>
  <course>148.12</course>
  <speed>0.02</speed>
  <fix>3d</fix>
</trkpt>
<trkpt lat="40.0728845" lon="-105.2309275">
  <ele>1595.56</ele>
  <time>2026-08-27T18:29:50Z</time>
  <course>5.15</course>
  <speed>0.0</speed>
  <fix>3d</fix>
</trkpt>
<trkpt lat="40.0728844" lon="-105.2309272">
  <ele>1595.49</ele>
  <time>2026-08-27T18:29:50Z</time>
  <course>147.9</course>
  <speed>0.02</speed>
  <fix>3d</fix>
</trkpt>
<trkpt lat="40.0728845" lon="-105.2309274">
  <ele>1595.55</ele>
  <time>2026-08-27T18:29:50Z</time>
  <course>6.4</course>
  <speed>0.0</speed>
  <fix>3d</fix>
</trkpt>
<trkpt lat="40.0728844" lon="-105.2309272">
  <ele>1595.49</ele>
  <time>2026-08-27T18:29:50Z</time>
  <course>146.32</course>
  <speed>0.02</speed>
  <fix>3d</fix>
</trkpt>
<trkpt lat="40.0728845" lon="-105.2309274">
  <ele>1595.55</ele>
  <time>2026-08-27T18:29:50Z</time>
  <course>7.32</course>
  <speed>0.0</speed>
  <fix>3d</fix>
</trkpt>
<trkpt lat="40.0728843" lon="-105.2309272">
  <ele>1595.49</ele>
  <time>2026-08-27T18:29:50Z</time>
  <course>142.91</course>
  <speed>0.03</speed>
  <fix>3d</fix>
</trkpt>
<trkpt lat="40.0728844" lon="-105.2309273">
  <ele>1595.56</ele>
  <time>2026-08-27T18:29:50Z</time>
  <course>7.79</course>
  <speed>0.0</speed>
  <fix>3d</fix>
</trkpt>
<trkpt lat="40.0728843" lon="-105.2309272">
  <ele>1595.49</ele>
  <time>2026-08-27T18:29:50Z</time>
  <course>137.92</course>
  <speed>0.03</speed>
  <fix>3d</fix>
</trkpt>
<trkpt lat="40.0728844" lon="-105.2309273">
  <ele>1595.56</ele>
  <time>2026-08-27T18:29:50Z</time>
  <course>7.82</course>
  <speed>0.0</speed>
  <fix>3d</fix>
</trkpt>
<trkpt lat="40.0728842" lon="-105.2309271">
  <ele>1595.49</ele>
  <time>2026-08-27T18:29:50Z</time>
  <course>133.14</course>
  <speed>0.03</speed>
  <fix>3d</fix>
</trkpt>
<trkpt lat="40.0728843" lon="-105.2309272">
  <ele>1595.56</ele>
  <time>2026-08-27T18:29:50Z</time>
  <course>7.36</course>
  <speed>0.0</speed>
  <fix>3d</fix>
</trkpt>
<trkpt lat="40.0728842" lon="-105.230927">
  <ele>1595.49</ele>
  <time>2026-08-27T18:29:50Z</time>
  <course>129.03</course>
  <speed>0.03</speed>
  <fix>3d</fix>
</trkpt>
<trkpt lat="40.0728843" lon="-105.2309272">
  <ele>1595.57</ele>
  <time>2026-08-27T18:29:50Z</time>
  <course>6.48</course>
  <speed>0.01</speed>
  <fix>3d</fix>
</trkpt>
<trkpt lat="40.0728842" lon="-105.230927">
  <ele>1595.49</ele>
  <time>2026-08-27T18:29:50Z</time>
  <course>126.14</course>
  <speed>0.03</speed>
  <fix>3d</fix>
</trkpt>
<trkpt lat="40.0728843" lon="-105.2309271">
  <ele>1595.57</ele>
  <time>2026-08-27T18:29:50Z</time>
  <course>5.23</course>
  <speed>0.01</speed>
  <fix>3d</fix>
</trkpt>
<trkpt lat="40.0728841" lon="-105.2309269">
  <ele>1595.5</ele>
  <time>2026-08-27T18:29:50Z</time>
  <course>124.93</course>
  <speed>0.03</speed>
  <fix>3d</fix>
</trkpt>
<trkpt lat="40.0728842" lon="-105.230927">
  <ele>1595.57</ele>
  <time>2026-08-27T18:29:50Z</time>
  <course>3.81</course>
  <speed>0.01</speed>
  <fix>3d</fix>
</trkpt>
<trkpt lat="40.072884" lon="-105.2309268">
  <ele>1595.49</ele>
  <time>2026-08-27T18:29:50Z</time>
  <course>124.66</course>
  <speed>0.03</speed>
  <fix>3d</fix>
</trkpt>
<trkpt lat="40.0728842" lon="-105.2309269">
  <ele>1595.57</ele>
  <time>2026-08-27T18:29:50Z</time>
  <course>2.28</course>
  <speed>0.01</speed>
  <fix>3d</fix>
</trkpt>
<trkpt lat="40.072884" lon="-105.2309267">
  <ele>1595.49</ele>
  <time>2026-08-27T18:29:50Z</time>
  <course>124.42</course>
  <speed>0.03</speed>
  <fix>3d</fix>
</trkpt>
<trkpt lat="40.0728842" lon="-105.2309269">
  <ele>1595.56</ele>
  <time>2026-08-27T18:29:50Z</time>
  <course>0.78</course>
  <speed>0.0</speed>
  <fix>3d</fix>
</trkpt>
<trkpt lat="40.072884" lon="-105.2309267">
  <ele>1595.49</ele>
  <time>2026-08-27T18:29:50Z</time>
  <course>124.5</course>
  <speed>0.03</speed>
  <fix>3d</fix>
</trkpt>
<trkpt lat="40.0728841" lon="-105.2309268">
  <ele>1595.56</ele>
  <time>2026-08-27T18:29:50Z</time>
  <course>359.54</course>
  <speed>0.0</speed>
  <fix>3d</fix>
</trkpt>
<trkpt lat="40.0728839" lon="-105.2309266">
  <ele>1595.49</ele>
  <time>2026-08-27T18:29:50Z</time>
  <course>125.73</course>
  <speed>0.03</speed>
  <fix>3d</fix>
</trkpt>
<trkpt lat="40.0728841" lon="-105.2309268">
  <ele>1595.55</ele>
  <time>2026-08-27T18:29:50Z</time>
  <course>358.6</course>
  <speed>0.0</speed>
  <fix>3d</fix>
</trkpt>
<trkpt lat="40.0728839" lon="-105.2309265">
  <ele>1595.49</ele>
  <time>2026-08-27T18:29:50Z</time>
  <course>127.94</course>
  <speed>0.03</speed>
  <fix>3d</fix>
</trkpt>
<trkpt lat="40.072884" lon="-105.2309267">
  <ele>1595.55</ele>
  <time>2026-08-27T18:29:50Z</time>
  <course>358.11</course>
  <speed>0.0</speed>
  <fix>3d</fix>
</trkpt>
<trkpt lat="40.0728839" lon="-105.2309265">
  <ele>1595.49</ele>
  <time>2026-08-27T18:29:50Z</time>
  <course>131.05</course>
  <speed>0.02</speed>
  <fix>3d</fix>
</trkpt>
<trkpt lat="40.072884" lon="-105.2309267">
  <ele>1595.55</ele>
  <time>2026-08-27T18:29:50Z</time>
  <course>358.09</course>
  <speed>0.0</speed>
  <fix>3d</fix>
</trkpt>
<trkpt lat="40.0728839" lon="-105.2309265">
  <ele>1595.49</ele>
  <time>2026-08-27T18:29:50Z</time>
  <course>134.77</course>
  <speed>0.02</speed>
  <fix>3d</fix>
</trkpt>
<trkpt lat="40.072884" lon="-105.2309266">
  <ele>1595.55</ele>
  <time>2026-08-27T18:29:50Z</time>
  <course>358.53</course>
  <speed>0.0</speed>
  <fix>3d</fix>
</trkpt>
<trkpt lat="40.0728838" lon="-105.2309264">
  <ele>1595.49</ele>
  <time>2026-08-27T18:29:50Z</time>
  <course>139.24</course>
  <speed>0.02</speed>
  <fix>3d</fix>
</trkpt>
<trkpt lat="40.0728839" lon="-105.2309266">
  <ele>1595.55</ele>
  <time>2026-08-27T18:29:50Z</time>
  <course>359.45</course>
  <speed>0.0</speed>
  <fix>3d</fix>
</trkpt>
<trkpt lat="40.0728838" lon="-105.2309264">
  <ele>1595.49</ele>
  <time>2026-08-27T18:29:50Z</time>
  <course>144.51</course>
  <speed>0.02</speed>
  <fix>3d</fix>
</trkpt>
<trkpt lat="40.0728839" lon="-105.2309265">
  <ele>1595.55</ele>
  <time>2026-08-27T18:29:50Z</time>
  <course>0.69</course>
  <speed>0.0</speed>
  <fix>3d</fix>
</trkpt>
<trkpt lat="40.0728838" lon="-105.2309264">
  <ele>1595.5</ele>
  <time>2026-08-27T18:29:50Z</time>
  <course>147.88</course>
  <speed>0.02</speed>
  <fix>3d</fix>
</trkpt>
<trkpt lat="40.0728838" lon="-105.2309265">
  <ele>1595.55</ele>
  <time>2026-08-27T18:29:50Z</time>
  <course>2.13</course>
  <speed>0.0</speed>
  <fix>3d</fix>
</trkpt>
<trkpt lat="40.0728837" lon="-105.2309263">
  <ele>1595.5</ele>
  <time>2026-08-27T18:29:50Z</time>
  <course>148.74</course>
  <speed>0.02</speed>
  <fix>3d</fix>
</trkpt>
<trkpt lat="40.0728838" lon="-105.2309265">
  <ele>1595.56</ele>
  <time>2026-08-27T18:29:50Z</time>
  <course>3.66</course>
  <speed>0.0</speed>
  <fix>3d</fix>
</trkpt>
<trkpt lat="40.0728837" lon="-105.2309262">
  <ele>1595.5</ele>
  <time>2026-08-27T18:29:50Z</time>
  <course>148.48</course>
  <speed>0.02</speed>
  <fix>3d</fix>
</trkpt>
<trkpt lat="40.0728838" lon="-105.2309264">
  <ele>1595.56</ele>
  <time>2026-08-27T18:29:50Z</time>
  <course>5.13</course>
  <speed>0.0</speed>
  <fix>3d</fix>
</trkpt>
<trkpt lat="40.0728836" lon="-105.2309262">
  <ele>1595.5</ele>
  <time>2026-08-27T18:29:50Z</time>
  <course>147.03</course>
  <speed>0.02</speed>
  <fix>3d</fix>
</trkpt>
<trkpt lat="40.0728837" lon="-105.2309264">
  <ele>1595.56</ele>
  <time>2026-08-27T18:29:50Z</time>
  <course>6.41</course>
  <speed>0.0</speed>
  <fix>3d</fix>
</trkpt>
<trkpt lat="40.0728836" lon="-105.2309262">
  <ele>1595.51</ele>
  <time>2026-08-27T18:29:50Z</time>
  <course>144.53</course>
  <speed>0.03</speed>
  <fix>3d</fix>
</trkpt>
<trkpt lat="40.0728837" lon="-105.2309263">
  <ele>1595.57</ele>
  <time>2026-08-27T18:29:50Z</time>
  <course>7.34</course>
  <speed>0.0</speed>
  <fix>3d</fix>
</trkpt>
<trkpt lat="40.0728835" lon="-105.2309262">
  <ele>1595.51</ele>
  <time>2026-08-27T18:29:50Z</time>
  <course>140.83</course>
  <speed>0.03</speed>
  <fix>3d</fix>
</trkpt>
<trkpt lat="40.0728836" lon="-105.2309263">
  <ele>1595.57</ele>
  <time>2026-08-27T18:29:50Z</time>
  <course>7.83</course>
  <speed>0.0</speed>
  <fix>3d</fix>
</trkpt>
<trkpt lat="40.0728834" lon="-105.2309261">
  <ele>1595.51</ele>
  <time>2026-08-27T18:29:50Z</time>
  <course>136.32</course>
  <speed>0.03</speed>
  <fix>3d</fix>
</trkpt>
<trkpt lat="40.0728836" lon="-105.2309262">
  <ele>1595.56</ele>
  <time>2026-08-27T18:29:50Z</time>
  <course>7.82</course>
  <speed>0.0</speed>
  <fix>3d</fix>
</trkpt>
<trkpt lat="40.0728834" lon="-105.230926">
  <ele>1595.51</ele>
  <time>2026-08-27T18:29:50Z</time>
  <course>131.75</course>
  <speed>0.03</speed>
  <fix>3d</fix>
</trkpt>
<trkpt lat="40.0728835" lon="-105.2309262">
  <ele>1595.56</ele>
  <time>2026-08-27T18:29:50Z</time>
  <course>7.36</course>
  <speed>0.01</speed>
  <fix>3d</fix>
</trkpt>
<trkpt lat="40.0728834" lon="-105.230926">
  <ele>1595.51</ele>
  <time>2026-08-27T18:29:50Z</time>
  <course>127.77</course>
  <speed>0.03</speed>
  <fix>3d</fix>
</trkpt>
<trkpt lat="40.0728835" lon="-105.2309261">
  <ele>1595.57</ele>
  <time>2026-08-27T18:29:50Z</time>
  <course>6.48</course>
  <speed>0.01</speed>
  <fix>3d</fix>
</trkpt>
<trkpt lat="40.0728833" lon="-105.2309259">
  <ele>1595.51</ele>
  <time>2026-08-27T18:29:50Z</time>
  <course>125.19</course>
  <speed>0.03</speed>
  <fix>3d</fix>
</trkpt>
<trkpt lat="40.0728835" lon="-105.230926">
  <ele>1595.57</ele>
  <time>2026-08-27T18:29:50Z</time>
  <course>5.22</course>
  <speed>0.01</speed>
  <fix>3d</fix>
</trkpt>
<trkpt lat="40.0728833" lon="-105.2309258">
  <ele>1595.51</ele>
  <time>2026-08-27T18:29:50Z</time>
  <course>123.94</course>
  <speed>0.03</speed>
  <fix>3d</fix>
</trkpt>
<trkpt lat="40.0728834" lon="-105.230926">
  <ele>1595.57</ele>
  <time>2026-08-27T18:29:50Z</time>
  <course>3.77</course>
  <speed>0.01</speed>
  <fix>3d</fix>
</trkpt>
<trkpt lat="40.0728833" lon="-105.2309258">
  <ele>1595.51</ele>
  <time>2026-08-27T18:29:50Z</time>
  <course>123.24</course>
  <speed>0.03</speed>
  <fix>3d</fix>
</trkpt>
<trkpt lat="40.0728834" lon="-105.2309259">
  <ele>1595.57</ele>
  <time>2026-08-27T18:29:50Z</time>
  <course>2.24</course>
  <speed>0.01</speed>
  <fix>3d</fix>
</trkpt>
<trkpt lat="40.0728833" lon="-105.2309257">
  <ele>1595.51</ele>
  <time>2026-08-27T18:29:50Z</time>
  <course>122.59</course>
  <speed>0.03</speed>
  <fix>3d</fix>
</trkpt>
<trkpt lat="40.0728834" lon="-105.2309258">
  <ele>1595.57</ele>
  <time>2026-08-27T18:29:50Z</time>
  <course>0.78</course>
  <speed>0.0</speed>
  <fix>3d</fix>
</trkpt>
<trkpt lat="40.0728832" lon="-105.2309256">
  <ele>1595.51</ele>
  <time>2026-08-27T18:29:50Z</time>
  <course>122.48</course>
  <speed>0.03</speed>
  <fix>3d</fix>
</trkpt>
<trkpt lat="40.0728833" lon="-105.2309258">
  <ele>1595.57</ele>
  <time>2026-08-27T18:29:50Z</time>
  <course>359.53</course>
  <speed>0.0</speed>
  <fix>3d</fix>
</trkpt>
<trkpt lat="40.0728832" lon="-105.2309255">
  <ele>1595.5</ele>
  <time>2026-08-27T18:29:50Z</time>
  <course>123.65</course>
  <speed>0.03</speed>
  <fix>3d</fix>
</trkpt>
<trkpt lat="40.0728833" lon="-105.2309257">
  <ele>1595.57</ele>
  <time>2026-08-27T18:29:50Z</time>
  <course>358.65</course>
  <speed>0.0</speed>
  <fix>3d</fix>
</trkpt>
<trkpt lat="40.0728832" lon="-105.2309255">
  <ele>1595.5</ele>
  <time>2026-08-27T18:29:50Z</time>
  <course>125.98</course>
  <speed>0.03</speed>
  <fix>3d</fix>
</trkpt>
<trkpt lat="40.0728833" lon="-105.2309256">
  <ele>1595.58</ele>
  <time>2026-08-27T18:29:50Z</time>
  <course>358.16</course>
  <speed>0.0</speed>
  <fix>3d</fix>
</trkpt>
<trkpt lat="40.0728831" lon="-105.2309255">
  <ele>1595.5</ele>
  <time>2026-08-27T18:29:50Z</time>
  <course>129.29</course>
  <speed>0.02</speed>
  <fix>3d</fix>
</trkpt>
<trkpt lat="40.0728832" lon="-105.2309256">
  <ele>1595.58</ele>
  <time>2026-08-27T18:29:50Z</time>
  <course>358.17</course>
  <speed>0.0</speed>
  <fix>3d</fix>
</trkpt>
<trkpt lat="40.0728831" lon="-105.2309254">
  <ele>1595.5</ele>
  <time>2026-08-27T18:29:50Z</time>
  <course>133.38</course>
  <speed>0.02</speed>
  <fix>3d</fix>
</trkpt>
<trkpt lat="40.0728832" lon="-105.2309256">
  <ele>1595.58</ele>
  <time>2026-08-27T18:29:50Z</time>
  <course>358.62</course>
  <speed>0.0</speed>
  <fix>3d</fix>
</trkpt>
<trkpt lat="40.0728831" lon="-105.2309253">
  <ele>1595.5</ele>
  <time>2026-08-27T18:29:50Z</time>
  <course>137.96</course>
  <speed>0.02</speed>
  <fix>3d</fix>
</trkpt>
<trkpt lat="40.0728832" lon="-105.2309255">
  <ele>1595.57</ele>
  <time>2026-08-27T18:29:50Z</time>
  <course>359.51</course>
  <speed>0.0</speed>
  <fix>3d</fix>
</trkpt>
<trkpt lat="40.072883" lon="-105.2309253">
  <ele>1595.49</ele>
  <time>2026-08-27T18:29:50Z</time>
  <course>141.78</course>
  <speed>0.02</speed>
  <fix>3d</fix>
</trkpt>
<trkpt lat="40.0728831" lon="-105.2309255">
  <ele>1595.57</ele>
  <time>2026-08-27T18:29:50Z</time>
  <course>0.74</course>
  <speed>0.0</speed>
  <fix>3d</fix>
</trkpt>
<trkpt lat="40.072883" lon="-105.2309253">
  <ele>1595.49</ele>
  <time>2026-08-27T18:29:50Z</time>
  <course>144.12</course>
  <speed>0.02</speed>
  <fix>3d</fix>
</trkpt>
<trkpt lat="40.0728831" lon="-105.2309254">
  <ele>1595.57</ele>
  <time>2026-08-27T18:29:50Z</time>
  <course>2.21</course>
  <speed>0.0</speed>
  <fix>3d</fix>
</trkpt>
<trkpt lat="40.072883" lon="-105.2309253">
  <ele>1595.48</ele>
  <time>2026-08-27T18:29:50Z</time>
  <course>145.76</course>
  <speed>0.02</speed>
  <fix>3d</fix>
</trkpt>
<trkpt lat="40.0728831" lon="-105.2309254">
  <ele>1595.57</ele>
  <time>2026-08-27T18:29:50Z</time>
  <course>3.72</course>
  <speed>0.0</speed>
  <fix>3d</fix>
</trkpt>
<trkpt lat="40.0728829" lon="-105.2309252">
  <ele>1595.48</ele>
  <time>2026-08-27T18:29:50Z</time>
  <course>145.83</course>
  <speed>0.02</speed>
  <fix>3d</fix>
</trkpt>
<trkpt lat="40.072883" lon="-105.2309254">
  <ele>1595.57</ele>
  <time>2026-08-27T18:29:50Z</time>
  <course>5.2</course>
  <speed>0.0</speed>
  <fix>3d</fix>
</trkpt>
<trkpt lat="40.0728828" lon="-105.2309252">
  <ele>1595.48</ele>
  <time>2026-08-27T18:29:50Z</time>
  <course>143.99</course>
  <speed>0.02</speed>
  <fix>3d</fix>
</trkpt>
<trkpt lat="40.072883" lon="-105.2309253">
  <ele>1595.58</ele>
  <time>2026-08-27T18:29:50Z</time>
  <course>6.44</course>
  <speed>0.0</speed>
  <fix>3d</fix>
</trkpt>
<trkpt lat="40.0728828" lon="-105.2309251">
  <ele>1595.48</ele>
  <time>2026-08-27T18:29:50Z</time>
  <course>140.98</course>
  <speed>0.02</speed>
  <fix>3d</fix>
</trkpt>
<trkpt lat="40.0728829" lon="-105.2309253">
  <ele>1595.58</ele>
  <time>2026-08-27T18:29:50Z</time>
  <course>7.38</course>
  <speed>0.0</speed>
  <fix>3d</fix>
</trkpt>
<trkpt lat="40.0728827" lon="-105.230925">
  <ele>1595.47</ele>
  <time>2026-08-27T18:29:50Z</time>
  <course>136.86</course>
  <speed>0.03</speed>
  <fix>3d</fix>
</trkpt>
<trkpt lat="40.0728829" lon="-105.2309252">
  <ele>1595.57</ele>
  <time>2026-08-27T18:29:50Z</time>
  <course>7.87</course>
  <speed>0.0</speed>
  <fix>3d</fix>
</trkpt>
<trkpt lat="40.0728827" lon="-105.230925">
  <ele>1595.47</ele>
  <time>2026-08-27T18:29:50Z</time>
  <course>132.27</course>
  <speed>0.03</speed>
  <fix>3d</fix>
</trkpt>
<trkpt lat="40.0728828" lon="-105.2309252">
  <ele>1595.57</ele>
  <time>2026-08-27T18:29:50Z</time>
  <course>7.86</course>
  <speed>0.01</speed>
  <fix>3d</fix>
</trkpt>
<trkpt lat="40.0728827" lon="-105.230925">
  <ele>1595.46</ele>
  <time>2026-08-27T18:29:50Z</time>
  <course>128.63</course>
  <speed>0.03</speed>
  <fix>3d</fix>
</trkpt>
<trkpt lat="40.0728828" lon="-105.2309251">
  <ele>1595.56</ele>
  <time>2026-08-27T18:29:50Z</time>
  <course>7.36</course>
  <speed>0.01</speed>
  <fix>3d</fix>
</trkpt>
<trkpt lat="40.0728827" lon="-105.2309249">
  <ele>1595.46</ele>
  <time>2026-08-27T18:29:50Z</time>
  <course>126.21</course>
  <speed>0.03</speed>
  <fix>3d</fix>
</trkpt>
<trkpt lat="40.0728828" lon="-105.230925">
  <ele>1595.57</ele>
  <time>2026-08-27T18:29:50Z</time>
  <course>6.48</course>
  <speed>0.01</speed>
  <fix>3d</fix>
</trkpt>
<trkpt lat="40.0728826" lon="-105.2309248">
  <ele>1595.46</ele>
  <time>2026-08-27T18:29:50Z</time>
  <course>124.47</course>
  <speed>0.03</speed>
  <fix>3d</fix>
</trkpt>
<trkpt lat="40.0728827" lon="-105.2309249">
  <ele>1595.57</ele>
  <time>2026-08-27T18:29:50Z</time>
  <course>5.24</course>
  <speed>0.01</speed>
  <fix>3d</fix>
</trkpt>
<trkpt lat="40.0728826" lon="-105.2309247">
  <ele>1595.45</ele>
  <time>2026-08-27T18:29:50Z</time>
  <course>123.44</course>
  <speed>0.03</speed>
  <fix>3d</fix>
</trkpt>
<trkpt lat="40.0728827" lon="-105.2309248">
  <ele>1595.57</ele>
  <time>2026-08-27T18:29:50Z</time>
  <course>3.82</course>
  <speed>0.01</speed>
  <fix>3d</fix>
</trkpt>
<trkpt lat="40.0728826" lon="-105.2309246">
  <ele>1595.45</ele>
  <time>2026-08-27T18:29:50Z</time>
  <course>122.77</course>
  <speed>0.03</speed>
  <fix>3d</fix>
</trkpt>
<trkpt lat="40.0728827" lon="-105.2309248">
  <ele>1595.57</ele>
  <time>2026-08-27T18:29:50Z</time>
  <course>2.29</course>
  <speed>0.01</speed>
  <fix>3d</fix>
</trkpt>
<trkpt lat="40.0728825" lon="-105.2309246">
  <ele>1595.45</ele>
  <time>2026-08-27T18:29:50Z</time>
  <course>122.27</course>
  <speed>0.03</speed>
  <fix>3d</fix>
</trkpt>
<trkpt lat="40.0728826" lon="-105.2309247">
  <ele>1595.56</ele>
  <time>2026-08-27T18:29:50Z</time>
  <course>0.81</course>
  <speed>0.01</speed>
  <fix>3d</fix>
</trkpt>
<trkpt lat="40.0728825" lon="-105.2309245">
  <ele>1595.45</ele>
  <time>2026-08-27T18:29:50Z</time>
  <course>122.34</course>
  <speed>0.03</speed>
  <fix>3d</fix>
</trkpt>
<trkpt lat="40.0728826" lon="-105.2309246">
  <ele>1595.56</ele>
  <time>2026-08-27T18:29:50Z</time>
  <course>359.55</course>
  <speed>0.0</speed>
  <fix>3d</fix>
</trkpt>
<trkpt lat="40.0728824" lon="-105.2309244">
  <ele>1595.44</ele>
  <time>2026-08-27T18:29:50Z</time>
  <course>123.37</course>
  <speed>0.03</speed>
  <fix>3d</fix>
</trkpt>
<trkpt lat="40.0728826" lon="-105.2309246">
  <ele>1595.56</ele>
  <time>2026-08-27T18:29:50Z</time>
  <course>358.62</course>
  <speed>0.0</speed>
  <fix>3d</fix>
</trkpt>
<trkpt lat="40.0728824" lon="-105.2309243">
  <ele>1595.44</ele>
  <time>2026-08-27T18:29:50Z</time>
  <course>125.62</course>
  <speed>0.03</speed>
  <fix>3d</fix>
</trkpt>
<trkpt lat="40.0728825" lon="-105.2309245">
  <ele>1595.56</ele>
  <time>2026-08-27T18:29:50Z</time>
  <course>358.13</course>
  <speed>0.0</speed>
  <fix>3d</fix>
</trkpt>
<trkpt lat="40.0728824" lon="-105.2309243">
  <ele>1595.44</ele>
  <time>2026-08-27T18:29:50Z</time>
  <course>129.28</course>
  <speed>0.03</speed>
  <fix>3d</fix>
</trkpt>
<trkpt lat="40.0728825" lon="-105.2309244">
  <ele>1595.56</ele>
  <time>2026-08-27T18:29:50Z</time>
  <course>358.14</course>
  <speed>0.0</speed>
  <fix>3d</fix>
</trkpt>
<trkpt lat="40.0728823" lon="-105.2309243">
  <ele>1595.44</ele>
  <time>2026-08-27T18:29:50Z</time>
  <course>133.83</course>
  <speed>0.02</speed>
  <fix>3d</fix>
</trkpt>
<trkpt lat="40.0728824" lon="-105.2309244">
  <ele>1595.56</ele>
  <time>2026-08-27T18:29:50Z</time>
  <course>358.58</course>
  <speed>0.0</speed>
  <fix>3d</fix>
</trkpt>
<trkpt lat="40.0728822" lon="-105.2309242">
  <ele>1595.44</ele>
  <time>2026-08-27T18:29:50Z</time>
  <course>137.89</course>
  <speed>0.02</speed>
  <fix>3d</fix>
</trkpt>
<trkpt lat="40.0728824" lon="-105.2309244">
  <ele>1595.56</ele>
  <time>2026-08-27T18:29:50Z</time>
  <course>359.5</course>
  <speed>0.0</speed>
  <fix>3d</fix>
</trkpt>
<trkpt lat="40.0728822" lon="-105.2309241">
  <ele>1595.44</ele>
  <time>2026-08-27T18:29:50Z</time>
  <course>141.97</course>
  <speed>0.02</speed>
  <fix>3d</fix>
</trkpt>
<trkpt lat="40.0728824" lon="-105.2309243">
  <ele>1595.56</ele>
  <time>2026-08-27T18:29:50Z</time>
  <course>0.71</course>
  <speed>0.0</speed>
  <fix>3d</fix>
</trkpt>
<trkpt lat="40.0728822" lon="-105.2309241">
  <ele>1595.43</ele>
  <time>2026-08-27T18:29:50Z</time>
  <course>145.47</course>
  <speed>0.02</speed>
  <fix>3d</fix>
</trkpt>
<trkpt lat="40.0728823" lon="-105.2309243">
  <ele>1595.56</ele>
  <time>2026-08-27T18:29:50Z</time>
  <course>2.17</course>
  <speed>0.0</speed>
  <fix>3d</fix>
</trkpt>
<trkpt lat="40.0728821" lon="-105.2309241">
  <ele>1595.43</ele>
  <time>2026-08-27T18:29:50Z</time>
  <course>147.11</course>
  <speed>0.02</speed>
  <fix>3d</fix>
</trkpt>
<trkpt lat="40.0728823" lon="-105.2309243">
  <ele>1595.55</ele>
  <time>2026-08-27T18:29:50Z</time>
  <course>3.69</course>
  <speed>0.0</speed>
  <fix>3d</fix>
</trkpt>
<trkpt lat="40.0728821" lon="-105.2309241">
  <ele>1595.43</ele>
  <time>2026-08-27T18:29:50Z</time>
  <course>147.23</course>
  <speed>0.02</speed>
  <fix>3d</fix>
</trkpt>
<trkpt lat="40.0728822" lon="-105.2309242">
  <ele>1595.55</ele>
  <time>2026-08-27T18:29:50Z</time>
  <course>5.17</course>
  <speed>0.0</speed>
  <fix>3d</fix>
</trkpt>
<trkpt lat="40.0728821" lon="-105.230924">
  <ele>1595.43</ele>
  <time>2026-08-27T18:29:50Z</time>
  <course>145.51</course>
  <speed>0.02</speed>
  <fix>3d</fix>
</trkpt>
<trkpt lat="40.0728822" lon="-105.2309242">
  <ele>1595.55</ele>
  <time>2026-08-27T18:29:50Z</time>
  <course>6.38</course>
  <speed>0.0</speed>
  <fix>3d</fix>
</trkpt>
<trkpt lat="40.072882" lon="-105.230924">
  <ele>1595.43</ele>
  <time>2026-08-27T18:29:50Z</time>
  <course>141.79</course>
  <speed>0.03</speed>
  <fix>3d</fix>
</trkpt>
<trkpt lat="40.0728821" lon="-105.2309241">
  <ele>1595.55</ele>
  <time>2026-08-27T18:29:50Z</time>
  <course>7.31</course>
  <speed>0.0</speed>
  <fix>3d</fix>
</trkpt>
<trkpt lat="40.072882" lon="-105.2309239">
  <ele>1595.43</ele>
  <time>2026-08-27T18:29:50Z</time>
  <course>137.41</course>
  <speed>0.03</speed>
  <fix>3d</fix>
</trkpt>
<trkpt lat="40.0728821" lon="-105.2309241">
  <ele>1595.56</ele>
  <time>2026-08-27T18:29:50Z</time>
  <course>7.82</course>
  <speed>0.0</speed>
  <fix>3d</fix>
</trkpt>
<trkpt lat="40.072882" lon="-105.2309238">
  <ele>1595.43</ele>
  <time>2026-08-27T18:29:50Z</time>
  <course>132.92</course>
  <speed>0.03</speed>
  <fix>3d</fix>
</trkpt>
<trkpt lat="40.0728821" lon="-105.230924">
  <ele>1595.56</ele>
  <time>2026-08-27T18:29:50Z</time>
  <course>7.83</course>
  <speed>0.01</speed>
  <fix>3d</fix>
</trkpt>
<trkpt lat="40.0728819" lon="-105.2309238">
  <ele>1595.43</ele>
  <time>2026-08-27T18:29:50Z</time>
  <course>127.72</course>
  <speed>0.03</speed>
  <fix>3d</fix>
</trkpt>
<trkpt lat="40.072882" lon="-105.2309239">
  <ele>1595.57</ele>
  <time>2026-08-27T18:29:50Z</time>
  <course>7.36</course>
  <speed>0.01</speed>
  <fix>3d</fix>
</trkpt>
<trkpt lat="40.0728819" lon="-105.2309238">
  <ele>1595.43</ele>
  <time>2026-08-27T18:29:50Z</time>
  <course>122.68</course>
  <speed>0.03</speed>
  <fix>3d</fix>
</trkpt>
<trkpt lat="40.072882" lon="-105.2309239">
  <ele>1595.57</ele>
  <time>2026-08-27T18:29:50Z</time>
  <course>6.49</course>
  <speed>0.01</speed>
  <fix>3d</fix>
</trkpt>
<trkpt lat="40.0728819" lon="-105.2309237">
  <ele>1595.43</ele>
  <time>2026-08-27T18:29:50Z</time>
  <course>118.92</course>
  <speed>0.03</speed>
  <fix>3d</fix>
</trkpt>
<trkpt lat="40.072882" lon="-105.2309238">
  <ele>1595.57</ele>
  <time>2026-08-27T18:29:50Z</time>
  <course>5.28</course>
  <speed>0.01</speed>
  <fix>3d</fix>
</trkpt>
<trkpt lat="40.0728818" lon="-105.2309236">
  <ele>1595.43</ele>
  <time>2026-08-27T18:29:50Z</time>
  <course>116.66</course>
  <speed>0.03</speed>
  <fix>3d</fix>
</trkpt>
<trkpt lat="40.0728819" lon="-105.2309237">
  <ele>1595.57</ele>
  <time>2026-08-27T18:29:50Z</time>
  <course>3.82</course>
  <speed>0.01</speed>
  <fix>3d</fix>
</trkpt>
<trkpt lat="40.0728818" lon="-105.2309235">
  <ele>1595.43</ele>
  <time>2026-08-27T18:29:50Z</time>
  <course>115.39</course>
  <speed>0.03</speed>
  <fix>3d</fix>
</trkpt>
<trkpt lat="40.0728819" lon="-105.2309236">
  <ele>1595.57</ele>
  <time>2026-08-27T18:29:50Z</time>
  <course>2.28</course>
  <speed>0.01</speed>
  <fix>3d</fix>
</trkpt>
<trkpt lat="40.0728818" lon="-105.2309234">
  <ele>1595.43</ele>
  <time>2026-08-27T18:29:50Z</time>
  <course>115.27</course>
  <speed>0.03</speed>
  <fix>3d</fix>
</trkpt>
<trkpt lat="40.0728819" lon="-105.2309236">
  <ele>1595.56</ele>
  <time>2026-08-27T18:29:50Z</time>
  <course>0.83</course>
  <speed>0.01</speed>
  <fix>3d</fix>
</trkpt>
<trkpt lat="40.0728817" lon="-105.2309234">
  <ele>1595.42</ele>
  <time>2026-08-27T18:29:50Z</time>
  <course>116.54</course>
  <speed>0.03</speed>
  <fix>3d</fix>
</trkpt>
<trkpt lat="40.0728819" lon="-105.2309235">
  <ele>1595.56</ele>
  <time>2026-08-27T18:29:50Z</time>
  <course>359.54</course>
  <speed>0.0</speed>
  <fix>3d</fix>
</trkpt>
<trkpt lat="40.0728816" lon="-105.2309233">
  <ele>1595.42</ele>
  <time>2026-08-27T18:29:50Z</time>
  <course>118.77</course>
  <speed>0.03</speed>
  <fix>3d</fix>
</trkpt>
<trkpt lat="40.0728818" lon="-105.2309234">
  <ele>1595.55</ele>
  <time>2026-08-27T18:29:50Z</time>
  <course>358.62</course>
  <speed>0.0</speed>
  <fix>3d</fix>
</trkpt>
<trkpt lat="40.0728816" lon="-105.2309232">
  <ele>1595.42</ele>
  <time>2026-08-27T18:29:50Z</time>
  <course>121.91</course>
  <speed>0.03</speed>
  <fix>3d</fix>
</trkpt>
<trkpt lat="40.0728818" lon="-105.2309234">
  <ele>1595.54</ele>
  <time>2026-08-27T18:29:51Z</time>
  <course>358.11</course>
  <speed>0.0</speed>
  <fix>3d</fix>
</trkpt>
<trkpt lat="40.0728816" lon="-105.2309231">
  <ele>1595.42</ele>
  <time>2026-08-27T18:29:51Z</time>
  <course>125.58</course>
  <speed>0.03</speed>
  <fix>3d</fix>
</trkpt>
<trkpt lat="40.0728817" lon="-105.2309233">
  <ele>1595.54</ele>
  <time>2026-08-27T18:29:51Z</time>
  <course>358.08</course>
  <speed>0.0</speed>
  <fix>3d</fix>
</trkpt>
<trkpt lat="40.0728816" lon="-105.2309231">
  <ele>1595.42</ele>
  <time>2026-08-27T18:29:51Z</time>
  <course>129.96</course>
  <speed>0.02</speed>
  <fix>3d</fix>
</trkpt>
<trkpt lat="40.0728817" lon="-105.2309233">
  <ele>1595.54</ele>
  <time>2026-08-27T18:29:51Z</time>
  <course>358.52</course>
  <speed>0.0</speed>
  <fix>3d</fix>
</trkpt>
<trkpt lat="40.0728815" lon="-105.2309231">
  <ele>1595.42</ele>
  <time>2026-08-27T18:29:51Z</time>
  <course>135.01</course>
  <speed>0.02</speed>
  <fix>3d</fix>
</trkpt>
<trkpt lat="40.0728817" lon="-105.2309232">
  <ele>1595.54</ele>
  <time>2026-08-27T18:29:51Z</time>
  <course>359.41</course>
  <speed>0.0</speed>
  <fix>3d</fix>
</trkpt>
<trkpt lat="40.0728815" lon="-105.230923">
  <ele>1595.42</ele>
  <time>2026-08-27T18:29:51Z</time>
  <course>140.12</course>
  <speed>0.02</speed>
  <fix>3d</fix>
</trkpt>
<trkpt lat="40.0728816" lon="-105.2309232">
  <ele>1595.54</ele>
  <time>2026-08-27T18:29:51Z</time>
  <course>0.64</course>
  <speed>0.0</speed>
  <fix>3d</fix>
</trkpt>
<trkpt lat="40.0728815" lon="-105.2309229">
  <ele>1595.43</ele>
  <time>2026-08-27T18:29:51Z</time>
  <course>145.1</course>
  <speed>0.02</speed>
  <fix>3d</fix>
</trkpt>
<trkpt lat="40.0728816" lon="-105.2309232">
  <ele>1595.54</ele>
  <time>2026-08-27T18:29:51Z</time>
  <course>2.1</course>
  <speed>0.0</speed>
  <fix>3d</fix>
</trkpt>
<trkpt lat="40.0728815" lon="-105.2309229">
  <ele>1595.43</ele>
  <time>2026-08-27T18:29:51Z</time>
  <course>148.36</course>
  <speed>0.02</speed>
  <fix>3d</fix>
</trkpt>
<trkpt lat="40.0728815" lon="-105.2309231">
  <ele>1595.55</ele>
  <time>2026-08-27T18:29:51Z</time>
  <course>3.67</course>
  <speed>0.0</speed>
  <fix>3d</fix>
</trkpt>
<trkpt lat="40.0728814" lon="-105.2309229">
  <ele>1595.44</ele>
  <time>2026-08-27T18:29:51Z</time>
  <course>148.93</course>
  <speed>0.02</speed>
  <fix>3d</fix>
</trkpt>
<trkpt lat="40.0728815" lon="-105.2309231">
  <ele>1595.55</ele>
  <time>2026-08-27T18:29:51Z</time>
  <course>5.12</course>
  <speed>0.0</speed>
  <fix>3d</fix>
</trkpt>
<trkpt lat="40.0728814" lon="-105.2309229">
  <ele>1595.44</ele>
  <time>2026-08-27T18:29:51Z</time>
  <course>147.16</course>
  <speed>0.02</speed>
  <fix>3d</fix>
</trkpt>
<trkpt lat="40.0728815" lon="-105.230923">
  <ele>1595.56</ele>
  <time>2026-08-27T18:29:51Z</time>
  <course>6.4</course>
  <speed>0.0</speed>
  <fix>3d</fix>
</trkpt>
<trkpt lat="40.0728813" lon="-105.2309229">
  <ele>1595.44</ele>
  <time>2026-08-27T18:29:51Z</time>
  <course>144.31</course>
  <speed>0.03</speed>
  <fix>3d</fix>
</trkpt>
<trkpt lat="40.0728814" lon="-105.230923">
  <ele>1595.56</ele>
  <time>2026-08-27T18:29:51Z</time>
  <course>7.32</course>
  <speed>0.0</speed>
  <fix>3d</fix>
</trkpt>
<trkpt lat="40.0728813" lon="-105.2309228">
  <ele>1595.45</ele>
  <time>2026-08-27T18:29:51Z</time>
  <course>140.7</course>
  <speed>0.03</speed>
  <fix>3d</fix>
</trkpt>
<trkpt lat="40.0728814" lon="-105.2309229">
  <ele>1595.56</ele>
  <time>2026-08-27T18:29:51Z</time>
  <course>7.83</course>
  <speed>0.0</speed>
  <fix>3d</fix>
</trkpt>
<trkpt lat="40.0728812" lon="-105.2309228">
  <ele>1595.45</ele>
  <time>2026-08-27T18:29:51Z</time>
  <course>136.37</course>
  <speed>0.03</speed>
  <fix>3d</fix>
</trkpt>
<trkpt lat="40.0728813" lon="-105.2309229">
  <ele>1595.57</ele>
  <time>2026-08-27T18:29:51Z</time>
  <course>7.83</course>
  <speed>0.0</speed>
  <fix>3d</fix>
</trkpt>
<trkpt lat="40.0728812" lon="-105.2309227">
  <ele>1595.45</ele>
  <time>2026-08-27T18:29:51Z</time>
  <course>132.03</course>
  <speed>0.03</speed>
  <fix>3d</fix>
</trkpt>
<trkpt lat="40.0728813" lon="-105.2309228">
  <ele>1595.56</ele>
  <time>2026-08-27T18:29:51Z</time>
  <course>7.39</course>
  <speed>0.01</speed>
  <fix>3d</fix>
</trkpt>
<trkpt lat="40.0728812" lon="-105.2309226">
  <ele>1595.45</ele>
  <time>2026-08-27T18:29:51Z</time>
  <course>128.21</course>
  <speed>0.03</speed>
  <fix>3d</fix>
</trkpt>
<trkpt lat="40.0728813" lon="-105.2309227">
  <ele>1595.56</ele>
  <time>2026-08-27T18:29:51Z</time>
  <course>6.48</course>
  <speed>0.01</speed>
  <fix>3d</fix>
</trkpt>
<trkpt lat="40.0728811" lon="-105.2309225">
  <ele>1595.45</ele>
  <time>2026-08-27T18:29:51Z</time>
  <course>124.9</course>
  <speed>0.03</speed>
  <fix>3d</fix>
</trkpt>
<trkpt lat="40.0728812" lon="-105.2309227">
  <ele>1595.56</ele>
  <time>2026-08-27T18:29:51Z</time>
  <course>5.2</course>
  <speed>0.01</speed>
  <fix>3d</fix>
</trkpt>
<trkpt lat="40.072881" lon="-105.2309224">
  <ele>1595.45</ele>
  <time>2026-08-27T18:29:51Z</time>
  <course>122.73</course>
  <speed>0.03</speed>
  <fix>3d</fix>
</trkpt>
<trkpt lat="40.0728812" lon="-105.2309226">
  <ele>1595.55</ele>
  <time>2026-08-27T18:29:51Z</time>
  <course>3.76</course>
  <speed>0.01</speed>
  <fix>3d</fix>
</trkpt>
<trkpt lat="40.072881" lon="-105.2309224">
  <ele>1595.45</ele>
  <time>2026-08-27T18:29:51Z</time>
  <course>121.84</course>
  <speed>0.03</speed>
  <fix>3d</fix>
</trkpt>
<trkpt lat="40.0728811" lon="-105.2309225">
  <ele>1595.55</ele>
  <time>2026-08-27T18:29:51Z</time>
  <course>2.21</course>
  <speed>0.01</speed>
  <fix>3d</fix>
</trkpt>
<trkpt lat="40.0728809" lon="-105.2309223">
  <ele>1595.45</ele>
  <time>2026-08-27T18:29:51Z</time>
  <course>121.25</course>
  <speed>0.03</speed>
  <fix>3d</fix>
</trkpt>
<trkpt lat="40.0728811" lon="-105.2309224">
  <ele>1595.56</ele>
  <time>2026-08-27T18:29:51Z</time>
  <course>0.77</course>
  <speed>0.01</speed>
  <fix>3d</fix>
</trkpt>
<trkpt lat="40.0728809" lon="-105.2309222">
  <ele>1595.45</ele>
  <time>2026-08-27T18:29:51Z</time>
  <course>120.74</course>
  <speed>0.03</speed>
  <fix>3d</fix>
</trkpt>
<trkpt lat="40.0728811" lon="-105.2309224">
  <ele>1595.56</ele>
  <time>2026-08-27T18:29:51Z</time>
  <course>359.52</course>
  <speed>0.01</speed>
  <fix>3d</fix>
</trkpt>
<trkpt lat="40.0728809" lon="-105.2309222">
  <ele>1595.45</ele>
  <time>2026-08-27T18:29:51Z</time>
  <course>120.55</course>
  <speed>0.03</speed>
  <fix>3d</fix>
</trkpt>
<trkpt lat="40.072881" lon="-105.2309223">
  <ele>1595.55</ele>
  <time>2026-08-27T18:29:51Z</time>
  <course>358.59</course>
  <speed>0.0</speed>
  <fix>3d</fix>
</trkpt>
<trkpt lat="40.0728809" lon="-105.2309221">
  <ele>1595.45</ele>
  <time>2026-08-27T18:29:51Z</time>
  <course>121.14</course>
  <speed>0.03</speed>
  <fix>3d</fix>
</trkpt>
<trkpt lat="40.072881" lon="-105.2309222">
  <ele>1595.55</ele>
  <time>2026-08-27T18:29:51Z</time>
  <course>358.1</course>
  <speed>0.0</speed>
  <fix>3d</fix>
</trkpt>
<trkpt lat="40.0728809" lon="-105.230922">
  <ele>1595.46</ele>
  <time>2026-08-27T18:29:51Z</time>
  <course>123.87</course>
  <speed>0.03</speed>
  <fix>3d</fix>
</trkpt>
<trkpt lat="40.072881" lon="-105.2309222">
  <ele>1595.55</ele>
  <time>2026-08-27T18:29:51Z</time>
  <course>358.05</course>
  <speed>0.0</speed>
  <fix>3d</fix>
</trkpt>
<trkpt lat="40.0728808" lon="-105.2309219">
  <ele>1595.46</ele>
  <time>2026-08-27T18:29:51Z</time>
  <course>127.79</course>
  <speed>0.03</speed>
  <fix>3d</fix>
</trkpt>
<trkpt lat="40.0728809" lon="-105.2309221">
  <ele>1595.55</ele>
  <time>2026-08-27T18:29:51Z</time>
  <course>358.06</course>
  <speed>0.0</speed>
  <fix>3d</fix>
</trkpt>
<trkpt lat="40.0728808" lon="-105.2309219">
  <ele>1595.46</ele>
  <time>2026-08-27T18:29:51Z</time>
  <course>130.06</course>
  <speed>0.03</speed>
  <fix>3d</fix>
</trkpt>
<trkpt lat="40.0728809" lon="-105.2309221">
  <ele>1595.55</ele>
  <time>2026-08-27T18:29:51Z</time>
  <course>358.05</course>
  <speed>0.0</speed>
  <fix>3d</fix>
</trkpt>
<trkpt lat="40.0728808" lon="-105.2309219">
  <ele>1595.46</ele>
  <time>2026-08-27T18:29:51Z</time>
  <course>130.35</course>
  <speed>0.03</speed>
  <fix>3d</fix>
</trkpt>
<trkpt lat="40.0728809" lon="-105.230922">
  <ele>1595.55</ele>
  <time>2026-08-27T18:29:51Z</time>
  <course>358.04</course>
  <speed>0.0</speed>
  <fix>3d</fix>
</trkpt>
<trkpt lat="40.0728807" lon="-105.2309218">
  <ele>1595.46</ele>
  <time>2026-08-27T18:29:51Z</time>
  <course>130.75</course>
  <speed>0.03</speed>
  <fix>3d</fix>
</trkpt>
<trkpt lat="40.0728808" lon="-105.2309219">
  <ele>1595.55</ele>
  <time>2026-08-27T18:29:51Z</time>
  <course>358.05</course>
  <speed>0.0</speed>
  <fix>3d</fix>
</trkpt>
<trkpt lat="40.0728807" lon="-105.2309217">
  <ele>1595.47</ele>
  <time>2026-08-27T18:29:51Z</time>
  <course>131.48</course>
  <speed>0.03</speed>
  <fix>3d</fix>
</trkpt>
<trkpt lat="40.0728808" lon="-105.2309219">
  <ele>1595.55</ele>
  <time>2026-08-27T18:29:51Z</time>
  <course>358.06</course>
  <speed>0.0</speed>
  <fix>3d</fix>
</trkpt>
<trkpt lat="40.0728807" lon="-105.2309217">
  <ele>1595.47</ele>
  <time>2026-08-27T18:29:51Z</time>
  <course>131.51</course>
  <speed>0.03</speed>
  <fix>3d</fix>
</trkpt>
<trkpt lat="40.0728807" lon="-105.2309218">
  <ele>1595.56</ele>
  <time>2026-08-27T18:29:51Z</time>
  <course>358.06</course>
  <speed>0.0</speed>
  <fix>3d</fix>
</trkpt>
<trkpt lat="40.0728806" lon="-105.2309216">
  <ele>1595.48</ele>
  <time>2026-08-27T18:29:51Z</time>
  <course>131.94</course>
  <speed>0.03</speed>
  <fix>3d</fix>
</trkpt>
<trkpt lat="40.0728807" lon="-105.2309218">
  <ele>1595.56</ele>
  <time>2026-08-27T18:29:51Z</time>
  <course>358.06</course>
  <speed>0.0</speed>
  <fix>3d</fix>
</trkpt>
<trkpt lat="40.0728806" lon="-105.2309216">
  <ele>1595.48</ele>
  <time>2026-08-27T18:29:51Z</time>
  <course>132.83</course>
  <speed>0.03</speed>
  <fix>3d</fix>
</trkpt>
<trkpt lat="40.0728807" lon="-105.2309217">
  <ele>1595.56</ele>
  <time>2026-08-27T18:29:51Z</time>
  <course>358.07</course>
  <speed>0.0</speed>
  <fix>3d</fix>
</trkpt>
<trkpt lat="40.0728805" lon="-105.2309215">
  <ele>1595.48</ele>
  <time>2026-08-27T18:29:51Z</time>
  <course>133.07</course>
  <speed>0.03</speed>
  <fix>3d</fix>
</trkpt>
<trkpt lat="40.0728806" lon="-105.2309216">
  <ele>1595.56</ele>
  <time>2026-08-27T18:29:51Z</time>
  <course>358.07</course>
  <speed>0.0</speed>
  <fix>3d</fix>
</trkpt>
<trkpt lat="40.0728804" lon="-105.2309214">
  <ele>1595.48</ele>
  <time>2026-08-27T18:29:51Z</time>
  <course>132.84</course>
  <speed>0.03</speed>
  <fix>3d</fix>
</trkpt>
<trkpt lat="40.0728806" lon="-105.2309216">
  <ele>1595.55</ele>
  <time>2026-08-27T18:29:51Z</time>
  <course>358.07</course>
  <speed>0.01414213562373095</speed>
  <fix>3d</fix>
</trkpt>
<trkpt lat="40.0728804" lon="-105.2309214">
  <ele>1595.48</ele>
  <time>2026-08-27T18:29:51Z</time>
  <course>132.73</course>
  <speed>0.03</speed>
  <fix>3d</fix>
</trkpt>
<trkpt lat="40.0728805" lon="-105.2309215">
  <ele>1595.55</ele>
  <time>2026-08-27T18:29:51Z</time>
  <course>358.05</course>
  <speed>0.01414213562373095</speed>
  <fix>3d</fix>
</trkpt>
<trkpt lat="40.0728803" lon="-105.2309213">
  <ele>1595.49</ele>
  <time>2026-08-27T18:29:51Z</time>
  <course>132.78</course>
  <speed>0.04</speed>
  <fix>3d</fix>
</trkpt>
<trkpt lat="40.0728805" lon="-105.2309214">
  <ele>1595.55</ele>
  <time>2026-08-27T18:29:51Z</time>
  <course>358.03</course>
  <speed>0.01414213562373095</speed>
  <fix>3d</fix>
</trkpt>
<trkpt lat="40.0728803" lon="-105.2309212">
  <ele>1595.49</ele>
  <time>2026-08-27T18:29:51Z</time>
  <course>132.66</course>
  <speed>0.04</speed>
  <fix>3d</fix>
</trkpt>
<trkpt lat="40.0728804" lon="-105.2309214">
  <ele>1595.56</ele>
  <time>2026-08-27T18:29:51Z</time>
  <course>358.05</course>
  <speed>0.01414213562373095</speed>
  <fix>3d</fix>
</trkpt>
<trkpt lat="40.0728803" lon="-105.2309212">
  <ele>1595.49</ele>
  <time>2026-08-27T18:29:51Z</time>
  <course>132.88</course>
  <speed>0.04</speed>
  <fix>3d</fix>
</trkpt>
<trkpt lat="40.0728803" lon="-105.2309213">
  <ele>1595.56</ele>
  <time>2026-08-27T18:29:51Z</time>
  <course>358.06</course>
  <speed>0.01414213562373095</speed>
  <fix>3d</fix>
</trkpt>
<trkpt lat="40.0728802" lon="-105.2309211">
  <ele>1595.49</ele>
  <time>2026-08-27T18:29:51Z</time>
  <course>133.51</course>
  <speed>0.04</speed>
  <fix>3d</fix>
</trkpt>
<trkpt lat="40.0728803" lon="-105.2309212">
  <ele>1595.56</ele>
  <time>2026-08-27T18:29:51Z</time>
  <course>358.07</course>
  <speed>0.01414213562373095</speed>
  <fix>3d</fix>
</trkpt>
<trkpt lat="40.0728802" lon="-105.230921">
  <ele>1595.5</ele>
  <time>2026-08-27T18:29:51Z</time>
  <course>133.75</course>
  <speed>0.04</speed>
  <fix>3d</fix>
</trkpt>
<trkpt lat="40.0728802" lon="-105.2309211">
  <ele>1595.57</ele>
  <time>2026-08-27T18:29:51Z</time>
  <course>358.07</course>
  <speed>0.01414213562373095</speed>
  <fix>3d</fix>
</trkpt>
<trkpt lat="40.0728801" lon="-105.2309209">
  <ele>1595.5</ele>
  <time>2026-08-27T18:29:51Z</time>
  <course>133.91</course>
  <speed>0.04</speed>
  <fix>3d</fix>
</trkpt>
<trkpt lat="40.0728802" lon="-105.2309211">
  <ele>1595.57</ele>
  <time>2026-08-27T18:29:51Z</time>
  <course>357.62</course>
  <speed>0.01414213562373095</speed>
  <fix>3d</fix>
</trkpt>
<trkpt lat="40.0728801" lon="-105.2309209">
  <ele>1595.5</ele>
  <time>2026-08-27T18:29:51Z</time>
  <course>132.85</course>
  <speed>0.04</speed>
  <fix>3d</fix>
</trkpt>
<trkpt lat="40.0728801" lon="-105.230921">
  <ele>1595.56</ele>
  <time>2026-08-27T18:29:51Z</time>
  <course>356.39</course>
  <speed>0.01414213562373095</speed>
  <fix>3d</fix>
</trkpt>
<trkpt lat="40.07288" lon="-105.2309208">
  <ele>1595.5</ele>
  <time>2026-08-27T18:29:51Z</time>
  <course>130.58</course>
  <speed>0.04</speed>
  <fix>3d</fix>
</trkpt>
<trkpt lat="40.0728801" lon="-105.2309209">
  <ele>1595.57</ele>
  <time>2026-08-27T18:29:51Z</time>
  <course>355.08</course>
  <speed>0.01414213562373095</speed>
  <fix>3d</fix>
</trkpt>
<trkpt lat="40.0728799" lon="-105.2309207">
  <ele>1595.5</ele>
  <time>2026-08-27T18:29:51Z</time>
  <course>128.86</course>
  <speed>0.04</speed>
  <fix>3d</fix>
</trkpt>
<trkpt lat="40.07288" lon="-105.2309208">
  <ele>1595.57</ele>
  <time>2026-08-27T18:29:51Z</time>
  <course>354.02</course>
  <speed>0.01</speed>
  <fix>3d</fix>
</trkpt>
<trkpt lat="40.0728798" lon="-105.2309206">
  <ele>1595.5</ele>
  <time>2026-08-27T18:29:51Z</time>
  <course>128.11</course>
  <speed>0.04</speed>
  <fix>3d</fix>
</trkpt>
<trkpt lat="40.07288" lon="-105.2309207">
  <ele>1595.56</ele>
  <time>2026-08-27T18:29:51Z</time>
  <course>353.36</course>
  <speed>0.0</speed>
  <fix>3d</fix>
</trkpt>
<trkpt lat="40.0728798" lon="-105.2309205">
  <ele>1595.5</ele>
  <time>2026-08-27T18:29:51Z</time>
  <course>128.55</course>
  <speed>0.04</speed>
  <fix>3d</fix>
</trkpt>
<trkpt lat="40.0728799" lon="-105.2309207">
  <ele>1595.56</ele>
  <time>2026-08-27T18:29:51Z</time>
  <course>353.16</course>
  <speed>0.0</speed>
  <fix>3d</fix>
</trkpt>
<trkpt lat="40.0728798" lon="-105.2309205">
  <ele>1595.5</ele>
  <time>2026-08-27T18:29:51Z</time>
  <course>129.87</course>
  <speed>0.03</speed>
  <fix>3d</fix>
</trkpt>
<trkpt lat="40.0728799" lon="-105.2309206">
  <ele>1595.56</ele>
  <time>2026-08-27T18:29:51Z</time>
  <course>353.41</course>
  <speed>0.0</speed>
  <fix>3d</fix>
</trkpt>
<trkpt lat="40.0728797" lon="-105.2309204">
  <ele>1595.5</ele>
  <time>2026-08-27T18:29:51Z</time>
  <course>131.81</course>
  <speed>0.03</speed>
  <fix>3d</fix>
</trkpt>
<trkpt lat="40.0728798" lon="-105.2309206">
  <ele>1595.56</ele>
  <time>2026-08-27T18:29:51Z</time>
  <course>354.15</course>
  <speed>0.0</speed>
  <fix>3d</fix>
</trkpt>
<trkpt lat="40.0728797" lon="-105.2309203">
  <ele>1595.5</ele>
  <time>2026-08-27T18:29:51Z</time>
  <course>134.37</course>
  <speed>0.03</speed>
  <fix>3d</fix>
</trkpt>
<trkpt lat="40.0728798" lon="-105.2309205">
  <ele>1595.57</ele>
  <time>2026-08-27T18:29:51Z</time>
  <course>355.31</course>
  <speed>0.0</speed>
  <fix>3d</fix>
</trkpt>
<trkpt lat="40.0728797" lon="-105.2309202">
  <ele>1595.5</ele>
  <time>2026-08-27T18:29:51Z</time>
  <course>136.71</course>
  <speed>0.03</speed>
  <fix>3d</fix>
</trkpt>
<trkpt lat="40.0728798" lon="-105.2309205">
  <ele>1595.57</ele>
  <time>2026-08-27T18:29:51Z</time>
  <course>356.73</course>
  <speed>0.0</speed>
  <fix>3d</fix>
</trkpt>
<trkpt lat="40.0728796" lon="-105.2309202">
  <ele>1595.5</ele>
  <time>2026-08-27T18:29:51Z</time>
  <course>139.11</course>
  <speed>0.02</speed>
  <fix>3d</fix>
</trkpt>
<trkpt lat="40.0728797" lon="-105.2309204">
  <ele>1595.57</ele>
  <time>2026-08-27T18:29:51Z</time>
  <course>358.24</course>
  <speed>0.0</speed>
  <fix>3d</fix>
</trkpt>
<trkpt lat="40.0728796" lon="-105.2309202">
  <ele>1595.5</ele>
  <time>2026-08-27T18:29:51Z</time>
  <course>141.61</course>
  <speed>0.02</speed>
  <fix>3d</fix>
</trkpt>
<trkpt lat="40.0728797" lon="-105.2309204">
  <ele>1595.57</ele>
  <time>2026-08-27T18:29:51Z</time>
  <course>359.73</course>
  <speed>0.0</speed>
  <fix>3d</fix>
</trkpt>
<trkpt lat="40.0728796" lon="-105.2309202">
  <ele>1595.5</ele>
  <time>2026-08-27T18:29:51Z</time>
  <course>142.54</course>
  <speed>0.02</speed>
  <fix>3d</fix>
</trkpt>
<trkpt lat="40.0728796" lon="-105.2309203">
  <ele>1595.57</ele>
  <time>2026-08-27T18:29:51Z</time>
  <course>1.07</course>
  <speed>0.0</speed>
  <fix>3d</fix>
</trkpt>
<trkpt lat="40.0728795" lon="-105.2309201">
  <ele>1595.5</ele>
  <time>2026-08-27T18:29:51Z</time>
  <course>141.49</course>
  <speed>0.03</speed>
  <fix>3d</fix>
</trkpt>
<trkpt lat="40.0728796" lon="-105.2309203">
  <ele>1595.57</ele>
  <time>2026-08-27T18:29:51Z</time>
  <course>2.15</course>
  <speed>0.0</speed>
  <fix>3d</fix>
</trkpt>
<trkpt lat="40.0728795" lon="-105.23092">
  <ele>1595.5</ele>
  <time>2026-08-27T18:29:51Z</time>
  <course>139.53</course>
  <speed>0.03</speed>
  <fix>3d</fix>
</trkpt>
<trkpt lat="40.0728796" lon="-105.2309202">
  <ele>1595.58</ele>
  <time>2026-08-27T18:29:51Z</time>
  <course>2.79</course>
  <speed>0.0</speed>
  <fix>3d</fix>
</trkpt>
<trkpt lat="40.0728794" lon="-105.23092">
  <ele>1595.5</ele>
  <time>2026-08-27T18:29:51Z</time>
  <course>136.41</course>
  <speed>0.03</speed>
  <fix>3d</fix>
</trkpt>
<trkpt lat="40.0728795" lon="-105.2309202">
  <ele>1595.58</ele>
  <time>2026-08-27T18:29:51Z</time>
  <course>2.99</course>
  <speed>0.0</speed>
  <fix>3d</fix>
</trkpt>
<trkpt lat="40.0728794" lon="-105.23092">
  <ele>1595.49</ele>
  <time>2026-08-27T18:29:51Z</time>
  <course>132.27</course>
  <speed>0.03</speed>
  <fix>3d</fix>
</trkpt>
<trkpt lat="40.0728795" lon="-105.2309201">
  <ele>1595.58</ele>
  <time>2026-08-27T18:29:51Z</time>
  <course>2.75</course>
  <speed>0.01</speed>
  <fix>3d</fix>
</trkpt>
<trkpt lat="40.0728794" lon="-105.2309199">
  <ele>1595.49</ele>
  <time>2026-08-27T18:29:51Z</time>
  <course>128.26</course>
  <speed>0.03</speed>
  <fix>3d</fix>
</trkpt>
<trkpt lat="40.0728795" lon="-105.23092">
  <ele>1595.57</ele>
  <time>2026-08-27T18:29:51Z</time>
  <course>1.99</course>
  <speed>0.01</speed>
  <fix>3d</fix>
</trkpt>
<trkpt lat="40.0728793" lon="-105.2309198">
  <ele>1595.49</ele>
  <time>2026-08-27T18:29:51Z</time>
  <course>124.0</course>
  <speed>0.03</speed>
  <fix>3d</fix>
</trkpt>
<trkpt lat="40.0728794" lon="-105.2309199">
  <ele>1595.57</ele>
  <time>2026-08-27T18:29:51Z</time>
  <course>0.85</course>
  <speed>0.01</speed>
  <fix>3d</fix>
</trkpt>
<trkpt lat="40.0728792" lon="-105.2309197">
  <ele>1595.48</ele>
  <time>2026-08-27T18:29:51Z</time>
  <course>119.91</course>
  <speed>0.03</speed>
  <fix>3d</fix>
</trkpt>
<trkpt lat="40.0728794" lon="-105.2309199">
  <ele>1595.56</ele>
  <time>2026-08-27T18:29:51Z</time>
  <course>359.47</course>
  <speed>0.01</speed>
  <fix>3d</fix>
</trkpt>
<trkpt lat="40.0728792" lon="-105.2309197">
  <ele>1595.48</ele>
  <time>2026-08-27T18:29:51Z</time>
  <course>117.58</course>
  <speed>0.03</speed>
  <fix>3d</fix>
</trkpt>
<trkpt lat="40.0728793" lon="-105.2309198">
  <ele>1595.56</ele>
  <time>2026-08-27T18:29:51Z</time>
  <course>357.92</course>
  <speed>0.01</speed>
  <fix>3d</fix>
</trkpt>
<trkpt lat="40.0728791" lon="-105.2309196">
  <ele>1595.48</ele>
  <time>2026-08-27T18:29:51Z</time>
  <course>117.0</course>
  <speed>0.03</speed>
  <fix>3d</fix>
</trkpt>
<trkpt lat="40.0728793" lon="-105.2309197">
  <ele>1595.56</ele>
  <time>2026-08-27T18:29:51Z</time>
  <course>356.47</course>
  <speed>0.01</speed>
  <fix>3d</fix>
</trkpt>
<trkpt lat="40.0728791" lon="-105.2309195">
  <ele>1595.48</ele>
  <time>2026-08-27T18:29:51Z</time>
  <course>116.98</course>
  <speed>0.03</speed>
  <fix>3d</fix>
</trkpt>
<trkpt lat="40.0728793" lon="-105.2309196">
  <ele>1595.56</ele>
  <time>2026-08-27T18:29:51Z</time>
  <course>355.1</course>
  <speed>0.0</speed>
  <fix>3d</fix>
</trkpt>
<trkpt lat="40.0728791" lon="-105.2309194">
  <ele>1595.48</ele>
  <time>2026-08-27T18:29:51Z</time>
  <course>117.49</course>
  <speed>0.03</speed>
  <fix>3d</fix>
</trkpt>
<trkpt lat="40.0728792" lon="-105.2309196">
  <ele>1595.57</ele>
  <time>2026-08-27T18:29:51Z</time>
  <course>354.02</course>
  <speed>0.0</speed>
  <fix>3d</fix>
</trkpt>
<trkpt lat="40.0728791" lon="-105.2309193">
  <ele>1595.48</ele>
  <time>2026-08-27T18:29:51Z</time>
  <course>119.51</course>
  <speed>0.03</speed>
  <fix>3d</fix>
</trkpt>
<trkpt lat="40.0728792" lon="-105.2309195">
  <ele>1595.57</ele>
  <time>2026-08-27T18:29:51Z</time>
  <course>353.38</course>
  <speed>0.0</speed>
  <fix>3d</fix>
</trkpt>
<trkpt lat="40.0728791" lon="-105.2309193">
  <ele>1595.48</ele>
  <time>2026-08-27T18:29:51Z</time>
  <course>123.86</course>
  <speed>0.03</speed>
  <fix>3d</fix>
</trkpt>
<trkpt lat="40.0728792" lon="-105.2309195">
  <ele>1595.57</ele>
  <time>2026-08-27T18:29:51Z</time>
  <course>353.19</course>
  <speed>0.0</speed>
  <fix>3d</fix>
</trkpt>
<trkpt lat="40.0728791" lon="-105.2309192">
  <ele>1595.47</ele>
  <time>2026-08-27T18:29:51Z</time>
  <course>128.99</course>
  <speed>0.03</speed>
  <fix>3d</fix>
</trkpt>
<trkpt lat="40.0728791" lon="-105.2309194">
  <ele>1595.57</ele>
  <time>2026-08-27T18:29:51Z</time>
  <course>353.45</course>
  <speed>0.0</speed>
  <fix>3d</fix>
</trkpt>
<trkpt lat="40.072879" lon="-105.2309191">
  <ele>1595.47</ele>
  <time>2026-08-27T18:29:51Z</time>
  <course>132.98</course>
  <speed>0.02</speed>
  <fix>3d</fix>
</trkpt>
<trkpt lat="40.0728791" lon="-105.2309193">
  <ele>1595.56</ele>
  <time>2026-08-27T18:29:51Z</time>
  <course>354.17</course>
  <speed>0.0</speed>
  <fix>3d</fix>
</trkpt>
<trkpt lat="40.072879" lon="-105.2309191">
  <ele>1595.47</ele>
  <time>2026-08-27T18:29:51Z</time>
  <course>136.36</course>
  <speed>0.02</speed>
  <fix>3d</fix>
</trkpt>
<trkpt lat="40.0728791" lon="-105.2309193">
  <ele>1595.56</ele>
  <time>2026-08-27T18:29:51Z</time>
  <course>355.32</course>
  <speed>0.0</speed>
  <fix>3d</fix>
</trkpt>
<trkpt lat="40.0728789" lon="-105.2309191">
  <ele>1595.47</ele>
  <time>2026-08-27T18:29:51Z</time>
  <course>140.06</course>
  <speed>0.02</speed>
  <fix>3d</fix>
</trkpt>
<trkpt lat="40.072879" lon="-105.2309193">
  <ele>1595.56</ele>
  <time>2026-08-27T18:29:51Z</time>
  <course>356.69</course>
  <speed>0.0</speed>
  <fix>3d</fix>
</trkpt>
<trkpt lat="40.0728789" lon="-105.2309191">
  <ele>1595.47</ele>
  <time>2026-08-27T18:29:51Z</time>
  <course>142.78</course>
  <speed>0.02</speed>
  <fix>3d</fix>
</trkpt>
<trkpt lat="40.072879" lon="-105.2309192">
  <ele>1595.56</ele>
  <time>2026-08-27T18:29:51Z</time>
  <course>358.22</course>
  <speed>0.0</speed>
  <fix>3d</fix>
</trkpt>
<trkpt lat="40.0728789" lon="-105.230919">
  <ele>1595.47</ele>
  <time>2026-08-27T18:29:51Z</time>
  <course>143.62</course>
  <speed>0.02</speed>
  <fix>3d</fix>
</trkpt>
<trkpt lat="40.0728789" lon="-105.2309192">
  <ele>1595.56</ele>
  <time>2026-08-27T18:29:51Z</time>
  <course>359.72</course>
  <speed>0.0</speed>
  <fix>3d</fix>
</trkpt>
<trkpt lat="40.0728788" lon="-105.230919">
  <ele>1595.47</ele>
  <time>2026-08-27T18:29:51Z</time>
  <course>142.96</course>
  <speed>0.03</speed>
  <fix>3d</fix>
</trkpt>
<trkpt lat="40.0728789" lon="-105.2309191">
  <ele>1595.56</ele>
  <time>2026-08-27T18:29:51Z</time>
  <course>1.06</course>
  <speed>0.0</speed>
  <fix>3d</fix>
</trkpt>
<trkpt lat="40.0728788" lon="-105.2309189">
  <ele>1595.47</ele>
  <time>2026-08-27T18:29:51Z</time>
  <course>140.73</course>
  <speed>0.03</speed>
  <fix>3d</fix>
</trkpt>
<trkpt lat="40.0728789" lon="-105.2309191">
  <ele>1595.56</ele>
  <time>2026-08-27T18:29:51Z</time>
  <course>2.12</course>
  <speed>0.0</speed>
  <fix>3d</fix>
</trkpt>
<trkpt lat="40.0728787" lon="-105.2309188">
  <ele>1595.47</ele>
  <time>2026-08-27T18:29:51Z</time>
  <course>137.76</course>
  <speed>0.03</speed>
  <fix>3d</fix>
</trkpt>
<trkpt lat="40.0728788" lon="-105.230919">
  <ele>1595.56</ele>
  <time>2026-08-27T18:29:51Z</time>
  <course>2.78</course>
  <speed>0.0</speed>
  <fix>3d</fix>
</trkpt>
<trkpt lat="40.0728786" lon="-105.2309188">
  <ele>1595.47</ele>
  <time>2026-08-27T18:29:51Z</time>
  <course>134.39</course>
  <speed>0.03</speed>
  <fix>3d</fix>
</trkpt>
<trkpt lat="40.0728788" lon="-105.230919">
  <ele>1595.55</ele>
  <time>2026-08-27T18:29:51Z</time>
  <course>2.97</course>
  <speed>0.0</speed>
  <fix>3d</fix>
</trkpt>
<trkpt lat="40.0728786" lon="-105.2309188">
  <ele>1595.47</ele>
  <time>2026-08-27T18:29:51Z</time>
  <course>130.44</course>
  <speed>0.03</speed>
  <fix>3d</fix>
</trkpt>
<trkpt lat="40.0728787" lon="-105.2309189">
  <ele>1595.55</ele>
  <time>2026-08-27T18:29:51Z</time>
  <course>2.69</course>
  <speed>0.01</speed>
  <fix>3d</fix>
</trkpt>
<trkpt lat="40.0728785" lon="-105.2309187">
  <ele>1595.47</ele>
  <time>2026-08-27T18:29:51Z</time>
  <course>126.13</course>
  <speed>0.03</speed>
  <fix>3d</fix>
</trkpt>
<trkpt lat="40.0728787" lon="-105.2309188">
  <ele>1595.55</ele>
  <time>2026-08-27T18:29:51Z</time>
  <course>1.95</course>
  <speed>0.01</speed>
  <fix>3d</fix>
</trkpt>
<trkpt lat="40.0728785" lon="-105.2309186">
  <ele>1595.47</ele>
  <time>2026-08-27T18:29:51Z</time>
  <course>122.42</course>
  <speed>0.03</speed>
  <fix>3d</fix>
</trkpt>
<trkpt lat="40.0728787" lon="-105.2309187">
  <ele>1595.55</ele>
  <time>2026-08-27T18:29:51Z</time>
  <course>0.82</course>
  <speed>0.01</speed>
  <fix>3d</fix>
</trkpt>
<trkpt lat="40.0728785" lon="-105.2309185">
  <ele>1595.47</ele>
  <time>2026-08-27T18:29:51Z</time>
  <course>119.03</course>
  <speed>0.03</speed>
  <fix>3d</fix>
</trkpt>
<trkpt lat="40.0728786" lon="-105.2309187">
  <ele>1595.55</ele>
  <time>2026-08-27T18:29:51Z</time>
  <course>359.43</course>
  <speed>0.01</speed>
  <fix>3d</fix>
</trkpt>
<trkpt lat="40.0728785" lon="-105.2309185">
  <ele>1595.47</ele>
  <time>2026-08-27T18:29:51Z</time>
  <course>116.04</course>
  <speed>0.03</speed>
  <fix>3d</fix>
</trkpt>
<trkpt lat="40.0728786" lon="-105.2309186">
  <ele>1595.56</ele>
  <time>2026-08-27T18:29:51Z</time>
  <course>357.92</course>
  <speed>0.01</speed>
  <fix>3d</fix>
</trkpt>
<trkpt lat="40.0728785" lon="-105.2309184">
  <ele>1595.47</ele>
  <time>2026-08-27T18:29:51Z</time>
  <course>114.3</course>
  <speed>0.03</speed>
  <fix>3d</fix>
</trkpt>
<trkpt lat="40.0728786" lon="-105.2309185">
  <ele>1595.56</ele>
  <time>2026-08-27T18:29:51Z</time>
  <course>356.46</course>
  <speed>0.01</speed>
  <fix>3d</fix>
</trkpt>
<trkpt lat="40.0728785" lon="-105.2309183">
  <ele>1595.47</ele>
  <time>2026-08-27T18:29:51Z</time>
  <course>113.83</course>
  <speed>0.03</speed>
  <fix>3d</fix>
</trkpt>
<trkpt lat="40.0728785" lon="-105.2309184">
  <ele>1595.57</ele>
  <time>2026-08-27T18:29:51Z</time>
  <course>355.11</course>
  <speed>0.0</speed>
  <fix>3d</fix>
</trkpt>
<trkpt lat="40.0728784" lon="-105.2309182">
  <ele>1595.47</ele>
  <time>2026-08-27T18:29:51Z</time>
  <course>114.65</course>
  <speed>0.03</speed>
  <fix>3d</fix>
</trkpt>
<trkpt lat="40.0728785" lon="-105.2309184">
  <ele>1595.57</ele>
  <time>2026-08-27T18:29:51Z</time>
  <course>354.04</course>
  <speed>0.0</speed>
  <fix>3d</fix>
</trkpt>
<trkpt lat="40.0728784" lon="-105.2309181">
  <ele>1595.47</ele>
  <time>2026-08-27T18:29:51Z</time>
  <course>117.41</course>
  <speed>0.03</speed>
  <fix>3d</fix>
</trkpt>
<trkpt lat="40.0728785" lon="-105.2309183">
  <ele>1595.57</ele>
  <time>2026-08-27T18:29:51Z</time>
  <course>353.38</course>
  <speed>0.0</speed>
  <fix>3d</fix>
</trkpt>
<trkpt lat="40.0728784" lon="-105.2309181">
  <ele>1595.47</ele>
  <time>2026-08-27T18:29:51Z</time>
  <course>122.24</course>
  <speed>0.03</speed>
  <fix>3d</fix>
</trkpt>
<trkpt lat="40.0728785" lon="-105.2309183">
  <ele>1595.57</ele>
  <time>2026-08-27T18:29:51Z</time>
  <course>353.18</course>
  <speed>0.0</speed>
  <fix>3d</fix>
</trkpt>
<trkpt lat="40.0728783" lon="-105.230918">
  <ele>1595.47</ele>
  <time>2026-08-27T18:29:51Z</time>
  <course>127.62</course>
  <speed>0.02</speed>
  <fix>3d</fix>
</trkpt>
<trkpt lat="40.0728784" lon="-105.2309182">
  <ele>1595.56</ele>
  <time>2026-08-27T18:29:51Z</time>
  <course>353.45</course>
  <speed>0.0</speed>
  <fix>3d</fix>
</trkpt>
<trkpt lat="40.0728783" lon="-105.2309179">
  <ele>1595.47</ele>
  <time>2026-08-27T18:29:51Z</time>
  <course>132.08</course>
  <speed>0.02</speed>
  <fix>3d</fix>
</trkpt>
<trkpt lat="40.0728784" lon="-105.2309181">
  <ele>1595.56</ele>
  <time>2026-08-27T18:29:51Z</time>
  <course>354.17</course>
  <speed>0.0</speed>
  <fix>3d</fix>
</trkpt>
<trkpt lat="40.0728783" lon="-105.2309179">
  <ele>1595.47</ele>
  <time>2026-08-27T18:29:51Z</time>
  <course>135.67</course>
  <speed>0.02</speed>
  <fix>3d</fix>
</trkpt>
<trkpt lat="40.0728784" lon="-105.2309181">
  <ele>1595.55</ele>
  <time>2026-08-27T18:29:51Z</time>
  <course>355.29</course>
  <speed>0.0</speed>
  <fix>3d</fix>
</trkpt>
<trkpt lat="40.0728782" lon="-105.2309179">
  <ele>1595.47</ele>
  <time>2026-08-27T18:29:51Z</time>
  <course>138.58</course>
  <speed>0.02</speed>
  <fix>3d</fix>
</trkpt>
<trkpt lat="40.0728783" lon="-105.2309181">
  <ele>1595.55</ele>
  <time>2026-08-27T18:29:51Z</time>
  <course>356.65</course>
  <speed>0.0</speed>
  <fix>3d</fix>
</trkpt>
<trkpt lat="40.0728782" lon="-105.2309179">
  <ele>1595.47</ele>
  <time>2026-08-27T18:29:51Z</time>
  <course>140.45</course>
  <speed>0.02</speed>
  <fix>3d</fix>
</trkpt>
<trkpt lat="40.0728783" lon="-105.230918">
  <ele>1595.55</ele>
  <time>2026-08-27T18:29:51Z</time>
  <course>358.13</course>
  <speed>0.0</speed>
  <fix>3d</fix>
</trkpt>
<trkpt lat="40.0728782" lon="-105.2309178">
  <ele>1595.47</ele>
  <time>2026-08-27T18:29:51Z</time>
  <course>141.03</course>
  <speed>0.02</speed>
  <fix>3d</fix>
</trkpt>
<trkpt lat="40.0728783" lon="-105.230918">
  <ele>1595.55</ele>
  <time>2026-08-27T18:29:51Z</time>
  <course>359.67</course>
  <speed>0.0</speed>
  <fix>3d</fix>
</trkpt>
<trkpt lat="40.0728781" lon="-105.2309178">
  <ele>1595.47</ele>
  <time>2026-08-27T18:29:51Z</time>
  <course>140.74</course>
  <speed>0.02</speed>
  <fix>3d</fix>
</trkpt>
<trkpt lat="40.0728782" lon="-105.2309179">
  <ele>1595.55</ele>
  <time>2026-08-27T18:29:51Z</time>
  <course>1.02</course>
  <speed>0.0</speed>
  <fix>3d</fix>
</trkpt>
<trkpt lat="40.072878" lon="-105.2309177">
  <ele>1595.47</ele>
  <time>2026-08-27T18:29:51Z</time>
  <course>139.4</course>
  <speed>0.03</speed>
  <fix>3d</fix>
</trkpt>
<trkpt lat="40.0728782" lon="-105.2309179">
  <ele>1595.55</ele>
  <time>2026-08-27T18:29:51Z</time>
  <course>2.09</course>
  <speed>0.0</speed>
  <fix>3d</fix>
</trkpt>
<trkpt lat="40.072878" lon="-105.2309176">
  <ele>1595.47</ele>
  <time>2026-08-27T18:29:51Z</time>
  <course>136.27</course>
  <speed>0.03</speed>
  <fix>3d</fix>
</trkpt>
<trkpt lat="40.0728781" lon="-105.2309178">
  <ele>1595.55</ele>
  <time>2026-08-27T18:29:51Z</time>
  <course>2.75</course>
  <speed>0.0</speed>
  <fix>3d</fix>
</trkpt>
<trkpt lat="40.0728779" lon="-105.2309176">
  <ele>1595.48</ele>
  <time>2026-08-27T18:29:51Z</time>
  <course>132.09</course>
  <speed>0.03</speed>
  <fix>3d</fix>
</trkpt>
<trkpt lat="40.0728781" lon="-105.2309178">
  <ele>1595.56</ele>
  <time>2026-08-27T18:29:51Z</time>
  <course>2.96</course>
  <speed>0.0</speed>
  <fix>3d</fix>
</trkpt>
<trkpt lat="40.0728779" lon="-105.2309176">
  <ele>1595.48</ele>
  <time>2026-08-27T18:29:51Z</time>
  <course>127.97</course>
  <speed>0.03</speed>
  <fix>3d</fix>
</trkpt>
<trkpt lat="40.072878" lon="-105.2309177">
  <ele>1595.56</ele>
  <time>2026-08-27T18:29:51Z</time>
  <course>2.69</course>
  <speed>0.01</speed>
  <fix>3d</fix>
</trkpt>
<trkpt lat="40.0728779" lon="-105.2309175">
  <ele>1595.48</ele>
  <time>2026-08-27T18:29:51Z</time>
  <course>124.44</course>
  <speed>0.03</speed>
  <fix>3d</fix>
</trkpt>
<trkpt lat="40.072878" lon="-105.2309176">
  <ele>1595.56</ele>
  <time>2026-08-27T18:29:51Z</time>
  <course>1.96</course>
  <speed>0.01</speed>
  <fix>3d</fix>
</trkpt>
<trkpt lat="40.0728779" lon="-105.2309174">
  <ele>1595.49</ele>
  <time>2026-08-27T18:29:51Z</time>
  <course>121.82</course>
  <speed>0.03</speed>
  <fix>3d</fix>
</trkpt>
<trkpt lat="40.072878" lon="-105.2309175">
  <ele>1595.56</ele>
  <time>2026-08-27T18:29:51Z</time>
  <course>0.83</course>
  <speed>0.01</speed>
  <fix>3d</fix>
</trkpt>
<trkpt lat="40.0728778" lon="-105.2309173">
  <ele>1595.49</ele>
  <time>2026-08-27T18:29:51Z</time>
  <course>119.92</course>
  <speed>0.03</speed>
  <fix>3d</fix>
</trkpt>
<trkpt lat="40.0728779" lon="-105.2309175">
  <ele>1595.56</ele>
  <time>2026-08-27T18:29:51Z</time>
  <course>359.45</course>
  <speed>0.01</speed>
  <fix>3d</fix>
</trkpt>
<trkpt lat="40.0728778" lon="-105.2309172">
  <ele>1595.49</ele>
  <time>2026-08-27T18:29:51Z</time>
  <course>118.61</course>
  <speed>0.03</speed>
  <fix>3d</fix>
</trkpt>
<trkpt lat="40.0728779" lon="-105.2309174">
  <ele>1595.57</ele>
  <time>2026-08-27T18:29:51Z</time>
  <course>357.95</course>
  <speed>0.01</speed>
  <fix>3d</fix>
</trkpt>
<trkpt lat="40.0728778" lon="-105.2309171">
  <ele>1595.49</ele>
  <time>2026-08-27T18:29:51Z</time>
  <course>118.05</course>
  <speed>0.03</speed>
  <fix>3d</fix>
</trkpt>
<trkpt lat="40.0728779" lon="-105.2309173">
  <ele>1595.57</ele>
  <time>2026-08-27T18:29:51Z</time>
  <course>356.47</course>
  <speed>0.01</speed>
  <fix>3d</fix>
</trkpt>
<trkpt lat="40.0728777" lon="-105.2309171">
  <ele>1595.49</ele>
  <time>2026-08-27T18:29:51Z</time>
  <course>118.23</course>
  <speed>0.03</speed>
  <fix>3d</fix>
</trkpt>
<trkpt lat="40.0728778" lon="-105.2309172">
  <ele>1595.57</ele>
  <time>2026-08-27T18:29:51Z</time>
  <course>355.14</course>
  <speed>0.0</speed>
  <fix>3d</fix>
</trkpt>
<trkpt lat="40.0728777" lon="-105.230917">
  <ele>1595.49</ele>
  <time>2026-08-27T18:29:51Z</time>
  <course>119.37</course>
  <speed>0.03</speed>
  <fix>3d</fix>
</trkpt>
<trkpt lat="40.0728778" lon="-105.2309172">
  <ele>1595.57</ele>
  <time>2026-08-27T18:29:51Z</time>
  <course>354.06</course>
  <speed>0.0</speed>
  <fix>3d</fix>
</trkpt>
<trkpt lat="40.0728777" lon="-105.2309169">
  <ele>1595.49</ele>
  <time>2026-08-27T18:29:51Z</time>
  <course>121.78</course>
  <speed>0.03</speed>
  <fix>3d</fix>
</trkpt>
<trkpt lat="40.0728778" lon="-105.2309171">
  <ele>1595.57</ele>
  <time>2026-08-27T18:29:51Z</time>
  <course>353.39</course>
  <speed>0.0</speed>
  <fix>3d</fix>
</trkpt>
<trkpt lat="40.0728776" lon="-105.2309169">
  <ele>1595.48</ele>
  <time>2026-08-27T18:29:51Z</time>
  <course>125.52</course>
  <speed>0.03</speed>
  <fix>3d</fix>
</trkpt>
<trkpt lat="40.0728777" lon="-105.230917">
  <ele>1595.57</ele>
  <time>2026-08-27T18:29:51Z</time>
  <course>353.18</course>
  <speed>0.0</speed>
  <fix>3d</fix>
</trkpt>
<trkpt lat="40.0728776" lon="-105.2309168">
  <ele>1595.48</ele>
  <time>2026-08-27T18:29:51Z</time>
  <course>130.03</course>
  <speed>0.03</speed>
  <fix>3d</fix>
</trkpt>
<trkpt lat="40.0728777" lon="-105.230917">
  <ele>1595.57</ele>
  <time>2026-08-27T18:29:51Z</time>
  <course>353.44</course>
  <speed>0.0</speed>
  <fix>3d</fix>
</trkpt>
<trkpt lat="40.0728776" lon="-105.2309167">
  <ele>1595.48</ele>
  <time>2026-08-27T18:29:51Z</time>
  <course>133.98</course>
  <speed>0.02</speed>
  <fix>3d</fix>
</trkpt>
<trkpt lat="40.0728777" lon="-105.2309169">
  <ele>1595.56</ele>
  <time>2026-08-27T18:29:51Z</time>
  <course>354.18</course>
  <speed>0.0</speed>
  <fix>3d</fix>
</trkpt>
<trkpt lat="40.0728775" lon="-105.2309167">
  <ele>1595.48</ele>
  <time>2026-08-27T18:29:51Z</time>
  <course>137.23</course>
  <speed>0.02</speed>
  <fix>3d</fix>
</trkpt>
<trkpt lat="40.0728776" lon="-105.2309169">
  <ele>1595.56</ele>
  <time>2026-08-27T18:29:51Z</time>
  <course>355.32</course>
  <speed>0.0</speed>
  <fix>3d</fix>
</trkpt>
<trkpt lat="40.0728775" lon="-105.2309167">
  <ele>1595.48</ele>
  <time>2026-08-27T18:29:51Z</time>
  <course>140.91</course>
  <speed>0.02</speed>
  <fix>3d</fix>
</trkpt>
<trkpt lat="40.0728776" lon="-105.2309169">
  <ele>1595.56</ele>
  <time>2026-08-27T18:29:51Z</time>
  <course>356.71</course>
  <speed>0.0</speed>
  <fix>3d</fix>
</trkpt>
<trkpt lat="40.0728775" lon="-105.2309167">
  <ele>1595.47</ele>
  <time>2026-08-27T18:29:51Z</time>
  <course>143.19</course>
  <speed>0.02</speed>
  <fix>3d</fix>
</trkpt>
<trkpt lat="40.0728776" lon="-105.2309168">
  <ele>1595.56</ele>
  <time>2026-08-27T18:29:51Z</time>
  <course>358.22</course>
  <speed>0.0</speed>
  <fix>3d</fix>
</trkpt>
<trkpt lat="40.0728774" lon="-105.2309166">
  <ele>1595.47</ele>
  <time>2026-08-27T18:29:51Z</time>
  <course>143.04</course>
  <speed>0.02</speed>
  <fix>3d</fix>
</trkpt>
<trkpt lat="40.0728775" lon="-105.2309168">
  <ele>1595.57</ele>
  <time>2026-08-27T18:29:51Z</time>
  <course>359.71</course>
  <speed>0.0</speed>
  <fix>3d</fix>
</trkpt>
<trkpt lat="40.0728773" lon="-105.2309166">
  <ele>1595.47</ele>
  <time>2026-08-27T18:29:51Z</time>
  <course>141.38</course>
  <speed>0.03</speed>
  <fix>3d</fix>
</trkpt>
<trkpt lat="40.0728775" lon="-105.2309167">
  <ele>1595.57</ele>
  <time>2026-08-27T18:29:51Z</time>
  <course>1.05</course>
  <speed>0.0</speed>
  <fix>3d</fix>
</trkpt>
<trkpt lat="40.0728773" lon="-105.2309165">
  <ele>1595.47</ele>
  <time>2026-08-27T18:29:51Z</time>
  <course>139.09</course>
  <speed>0.03</speed>
  <fix>3d</fix>
</trkpt>
<trkpt lat="40.0728774" lon="-105.2309167">
  <ele>1595.57</ele>
  <time>2026-08-27T18:29:51Z</time>
  <course>2.13</course>
  <speed>0.0</speed>
  <fix>3d</fix>
</trkpt>
<trkpt lat="40.0728772" lon="-105.2309164">
  <ele>1595.47</ele>
  <time>2026-08-27T18:29:51Z</time>
  <course>136.45</course>
  <speed>0.03</speed>
  <fix>3d</fix>
</trkpt>
<trkpt lat="40.0728774" lon="-105.2309166">
  <ele>1595.57</ele>
  <time>2026-08-27T18:29:51Z</time>
  <course>2.81</course>
  <speed>0.0</speed>
  <fix>3d</fix>
</trkpt>
<trkpt lat="40.0728772" lon="-105.2309164">
  <ele>1595.47</ele>
  <time>2026-08-27T18:29:51Z</time>
  <course>133.26</course>
  <speed>0.03</speed>
  <fix>3d</fix>
</trkpt>
<trkpt lat="40.0728773" lon="-105.2309165">
  <ele>1595.57</ele>
  <time>2026-08-27T18:29:51Z</time>
  <course>2.98</course>
  <speed>0.0</speed>
  <fix>3d</fix>
</trkpt>
<trkpt lat="40.0728772" lon="-105.2309163">
  <ele>1595.47</ele>
  <time>2026-08-27T18:29:51Z</time>
  <course>129.44</course>
  <speed>0.03</speed>
  <fix>3d</fix>
</trkpt>
<trkpt lat="40.0728773" lon="-105.2309165">
  <ele>1595.56</ele>
  <time>2026-08-27T18:29:51Z</time>
  <course>2.71</course>
  <speed>0.01</speed>
  <fix>3d</fix>
</trkpt>
<trkpt lat="40.0728772" lon="-105.2309162">
  <ele>1595.47</ele>
  <time>2026-08-27T18:29:51Z</time>
  <course>125.18</course>
  <speed>0.03</speed>
  <fix>3d</fix>
</trkpt>
<trkpt lat="40.0728773" lon="-105.2309164">
  <ele>1595.56</ele>
  <time>2026-08-27T18:29:51Z</time>
  <course>1.99</course>
  <speed>0.01</speed>
  <fix>3d</fix>
</trkpt>
<trkpt lat="40.0728771" lon="-105.2309162">
  <ele>1595.46</ele>
  <time>2026-08-27T18:29:51Z</time>
  <course>121.15</course>
  <speed>0.03</speed>
  <fix>3d</fix>
</trkpt>
<trkpt lat="40.0728772" lon="-105.2309163">
  <ele>1595.55</ele>
  <time>2026-08-27T18:29:51Z</time>
  <course>0.83</course>
  <speed>0.01</speed>
  <fix>3d</fix>
</trkpt>
<trkpt lat="40.0728771" lon="-105.2309161">
  <ele>1595.46</ele>
  <time>2026-08-27T18:29:51Z</time>
  <course>118.13</course>
  <speed>0.03</speed>
  <fix>3d</fix>
</trkpt>
<trkpt lat="40.0728772" lon="-105.2309162">
  <ele>1595.55</ele>
  <time>2026-08-27T18:29:51Z</time>
  <course>359.43</course>
  <speed>0.01</speed>
  <fix>3d</fix>
</trkpt>
<trkpt lat="40.0728771" lon="-105.230916">
  <ele>1595.46</ele>
  <time>2026-08-27T18:29:51Z</time>
  <course>116.22</course>
  <speed>0.03</speed>
  <fix>3d</fix>
</trkpt>
<trkpt lat="40.0728772" lon="-105.2309161">
  <ele>1595.55</ele>
  <time>2026-08-27T18:29:51Z</time>
  <course>357.92</course>
  <speed>0.01</speed>
  <fix>3d</fix>
</trkpt>
<trkpt lat="40.072877" lon="-105.2309159">
  <ele>1595.46</ele>
  <time>2026-08-27T18:29:51Z</time>
  <course>114.62</course>
  <speed>0.03</speed>
  <fix>3d</fix>
</trkpt>
<trkpt lat="40.0728771" lon="-105.2309161">
  <ele>1595.55</ele>
  <time>2026-08-27T18:29:51Z</time>
  <course>356.4</course>
  <speed>0.01</speed>
  <fix>3d</fix>
</trkpt>
<trkpt lat="40.072877" lon="-105.2309159">
  <ele>1595.46</ele>
  <time>2026-08-27T18:29:51Z</time>
  <course>113.3</course>
  <speed>0.03</speed>
  <fix>3d</fix>
</trkpt>
<trkpt lat="40.0728771" lon="-105.230916">
  <ele>1595.55</ele>
  <time>2026-08-27T18:29:51Z</time>
  <course>355.05</course>
  <speed>0.01</speed>
  <fix>3d</fix>
</trkpt>
<trkpt lat="40.072877" lon="-105.2309158">
  <ele>1595.47</ele>
  <time>2026-08-27T18:29:51Z</time>
  <course>113.27</course>
  <speed>0.03</speed>
  <fix>3d</fix>
</trkpt>
<trkpt lat="40.0728771" lon="-105.2309159">
  <ele>1595.55</ele>
  <time>2026-08-27T18:29:51Z</time>
  <course>353.99</course>
  <speed>0.0</speed>
  <fix>3d</fix>
</trkpt>
<trkpt lat="40.0728769" lon="-105.2309157">
  <ele>1595.47</ele>
  <time>2026-08-27T18:29:51Z</time>
  <course>114.66</course>
  <speed>0.03</speed>
  <fix>3d</fix>
</trkpt>
<trkpt lat="40.0728771" lon="-105.2309159">
  <ele>1595.55</ele>
  <time>2026-08-27T18:29:51Z</time>
  <course>353.32</course>
  <speed>0.0</speed>
  <fix>3d</fix>
</trkpt>
<trkpt lat="40.0728769" lon="-105.2309156">
  <ele>1595.47</ele>
  <time>2026-08-27T18:29:51Z</time>
  <course>117.71</course>
  <speed>0.03</speed>
  <fix>3d</fix>
</trkpt>
<trkpt lat="40.072877" lon="-105.2309158">
  <ele>1595.55</ele>
  <time>2026-08-27T18:29:51Z</time>
  <course>353.14</course>
  <speed>0.0</speed>
  <fix>3d</fix>
</trkpt>
<trkpt lat="40.0728769" lon="-105.2309155">
  <ele>1595.47</ele>
  <time>2026-08-27T18:29:51Z</time>
  <course>122.6</course>
  <speed>0.02</speed>
  <fix>3d</fix>
</trkpt>
<trkpt lat="40.072877" lon="-105.2309157">
  <ele>1595.56</ele>
  <time>2026-08-27T18:29:51Z</time>
  <course>353.42</course>
  <speed>0.0</speed>
  <fix>3d</fix>
</trkpt>
<trkpt lat="40.0728769" lon="-105.2309155">
  <ele>1595.48</ele>
  <time>2026-08-27T18:29:51Z</time>
  <course>129.12</course>
  <speed>0.02</speed>
  <fix>3d</fix>
</trkpt>
<trkpt lat="40.072877" lon="-105.2309157">
  <ele>1595.56</ele>
  <time>2026-08-27T18:29:51Z</time>
  <course>354.15</course>
  <speed>0.0</speed>
  <fix>3d</fix>
</trkpt>
<trkpt lat="40.0728768" lon="-105.2309155">
  <ele>1595.48</ele>
  <time>2026-08-27T18:29:51Z</time>
  <course>136.06</course>
  <speed>0.02</speed>
  <fix>3d</fix>
</trkpt>
<trkpt lat="40.0728769" lon="-105.2309157">
  <ele>1595.56</ele>
  <time>2026-08-27T18:29:52Z</time>
  <course>355.31</course>
  <speed>0.0</speed>
  <fix>3d</fix>
</trkpt>
<trkpt lat="40.0728767" lon="-105.2309155">
  <ele>1595.48</ele>
  <time>2026-08-27T18:29:52Z</time>
  <course>140.98</course>
  <speed>0.02</speed>
  <fix>3d</fix>
</trkpt>
<trkpt lat="40.0728769" lon="-105.2309156">
  <ele>1595.56</ele>
  <time>2026-08-27T18:29:52Z</time>
  <course>356.71</course>
  <speed>0.0</speed>
  <fix>3d</fix>
</trkpt>
<trkpt lat="40.0728767" lon="-105.2309154">
  <ele>1595.48</ele>
  <time>2026-08-27T18:29:52Z</time>
  <course>143.26</course>
  <speed>0.02</speed>
  <fix>3d</fix>
</trkpt>
<trkpt lat="40.0728768" lon="-105.2309156">
  <ele>1595.56</ele>
  <time>2026-08-27T18:29:52Z</time>
  <course>358.23</course>
  <speed>0.0</speed>
  <fix>3d</fix>
</trkpt>
<trkpt lat="40.0728767" lon="-105.2309154">
  <ele>1595.48</ele>
  <time>2026-08-27T18:29:52Z</time>
  <course>143.63</course>
  <speed>0.02</speed>
  <fix>3d</fix>
</trkpt>
<trkpt lat="40.0728768" lon="-105.2309156">
  <ele>1595.56</ele>
  <time>2026-08-27T18:29:52Z</time>
  <course>359.69</course>
  <speed>0.0</speed>
  <fix>3d</fix>
</trkpt>
<trkpt lat="40.0728766" lon="-105.2309153">
  <ele>1595.48</ele>
  <time>2026-08-27T18:29:52Z</time>
  <course>142.3</course>
  <speed>0.02</speed>
  <fix>3d</fix>
</trkpt>
<trkpt lat="40.0728768" lon="-105.2309155">
  <ele>1595.56</ele>
  <time>2026-08-27T18:29:52Z</time>
  <course>1.03</course>
  <speed>0.0</speed>
  <fix>3d</fix>
</trkpt>
<trkpt lat="40.0728766" lon="-105.2309152">
  <ele>1595.49</ele>
  <time>2026-08-27T18:29:52Z</time>
  <course>139.56</course>
  <speed>0.03</speed>
  <fix>3d</fix>
</trkpt>
<trkpt lat="40.0728767" lon="-105.2309154">
  <ele>1595.56</ele>
  <time>2026-08-27T18:29:52Z</time>
  <course>2.1</course>
  <speed>0.0</speed>
  <fix>3d</fix>
</trkpt>
<trkpt lat="40.0728766" lon="-105.2309152">
  <ele>1595.49</ele>
  <time>2026-08-27T18:29:52Z</time>
  <course>136.15</course>
  <speed>0.03</speed>
  <fix>3d</fix>
</trkpt>
<trkpt lat="40.0728767" lon="-105.2309154">
  <ele>1595.56</ele>
  <time>2026-08-27T18:29:52Z</time>
  <course>2.77</course>
  <speed>0.0</speed>
  <fix>3d</fix>
</trkpt>
<trkpt lat="40.0728765" lon="-105.2309152">
  <ele>1595.49</ele>
  <time>2026-08-27T18:29:52Z</time>
  <course>131.96</course>
  <speed>0.03</speed>
  <fix>3d</fix>
</trkpt>
<trkpt lat="40.0728766" lon="-105.2309153">
  <ele>1595.56</ele>
  <time>2026-08-27T18:29:52Z</time>
  <course>2.97</course>
  <speed>0.01</speed>
  <fix>3d</fix>
</trkpt>
<trkpt lat="40.0728765" lon="-105.2309151">
  <ele>1595.49</ele>
  <time>2026-08-27T18:29:52Z</time>
  <course>127.18</course>
  <speed>0.03</speed>
  <fix>3d</fix>
</trkpt>
<trkpt lat="40.0728766" lon="-105.2309152">
  <ele>1595.56</ele>
  <time>2026-08-27T18:29:52Z</time>
  <course>2.69</course>
  <speed>0.01</speed>
  <fix>3d</fix>
</trkpt>
<trkpt lat="40.0728765" lon="-105.230915">
  <ele>1595.49</ele>
  <time>2026-08-27T18:29:52Z</time>
  <course>123.1</course>
  <speed>0.03</speed>
  <fix>3d</fix>
</trkpt>
<trkpt lat="40.0728766" lon="-105.2309152">
  <ele>1595.56</ele>
  <time>2026-08-27T18:29:52Z</time>
  <course>1.96</course>
  <speed>0.01</speed>
  <fix>3d</fix>
</trkpt>
<trkpt lat="40.0728764" lon="-105.230915">
  <ele>1595.49</ele>
  <time>2026-08-27T18:29:52Z</time>
  <course>120.11</course>
  <speed>0.03</speed>
  <fix>3d</fix>
</trkpt>
<trkpt lat="40.0728765" lon="-105.2309151">
  <ele>1595.57</ele>
  <time>2026-08-27T18:29:52Z</time>
  <course>0.84</course>
  <speed>0.01</speed>
  <fix>3d</fix>
</trkpt>
<trkpt lat="40.0728764" lon="-105.2309149">
  <ele>1595.49</ele>
  <time>2026-08-27T18:29:52Z</time>
  <course>117.71</course>
  <speed>0.03</speed>
  <fix>3d</fix>
</trkpt>
<trkpt lat="40.0728765" lon="-105.230915">
  <ele>1595.57</ele>
  <time>2026-08-27T18:29:52Z</time>
  <course>359.45</course>
  <speed>0.01</speed>
  <fix>3d</fix>
</trkpt>
<trkpt lat="40.0728764" lon="-105.2309148">
  <ele>1595.49</ele>
  <time>2026-08-27T18:29:52Z</time>
  <course>116.27</course>
  <speed>0.03</speed>
  <fix>3d</fix>
</trkpt>
<trkpt lat="40.0728765" lon="-105.2309149">
  <ele>1595.57</ele>
  <time>2026-08-27T18:29:52Z</time>
  <course>357.94</course>
  <speed>0.01</speed>
  <fix>3d</fix>
</trkpt>
<trkpt lat="40.0728763" lon="-105.2309147">
  <ele>1595.49</ele>
  <time>2026-08-27T18:29:52Z</time>
  <course>115.93</course>
  <speed>0.03</speed>
  <fix>3d</fix>
</trkpt>
<trkpt lat="40.0728764" lon="-105.2309149">
  <ele>1595.57</ele>
  <time>2026-08-27T18:29:52Z</time>
  <course>356.47</course>
  <speed>0.01</speed>
  <fix>3d</fix>
</trkpt>
<trkpt lat="40.0728763" lon="-105.2309146">
  <ele>1595.49</ele>
  <time>2026-08-27T18:29:52Z</time>
  <course>116.2</course>
  <speed>0.03</speed>
  <fix>3d</fix>
</trkpt>
<trkpt lat="40.0728764" lon="-105.2309148">
  <ele>1595.57</ele>
  <time>2026-08-27T18:29:52Z</time>
  <course>355.12</course>
  <speed>0.0</speed>
  <fix>3d</fix>
</trkpt>
<trkpt lat="40.0728763" lon="-105.2309145">
  <ele>1595.49</ele>
  <time>2026-08-27T18:29:52Z</time>
  <course>117.3</course>
  <speed>0.03</speed>
  <fix>3d</fix>
</trkpt>
<trkpt lat="40.0728764" lon="-105.2309147">
  <ele>1595.57</ele>
  <time>2026-08-27T18:29:52Z</time>
  <course>354.05</course>
  <speed>0.0</speed>
  <fix>3d</fix>
</trkpt>
<trkpt lat="40.0728763" lon="-105.2309145">
  <ele>1595.49</ele>
  <time>2026-08-27T18:29:52Z</time>
  <course>119.32</course>
  <speed>0.03</speed>
  <fix>3d</fix>
</trkpt>
<trkpt lat="40.0728764" lon="-105.2309146">
  <ele>1595.57</ele>
  <time>2026-08-27T18:29:52Z</time>
  <course>353.38</course>
  <speed>0.0</speed>
  <fix>3d</fix>
</trkpt>
<trkpt lat="40.0728762" lon="-105.2309144">
  <ele>1595.48</ele>
  <time>2026-08-27T18:29:52Z</time>
  <course>122.41</course>
  <speed>0.03</speed>
  <fix>3d</fix>
</trkpt>
<trkpt lat="40.0728763" lon="-105.2309146">
  <ele>1595.56</ele>
  <time>2026-08-27T18:29:52Z</time>
  <course>353.17</course>
  <speed>0.0</speed>
  <fix>3d</fix>
</trkpt>
<trkpt lat="40.0728761" lon="-105.2309143">
  <ele>1595.48</ele>
  <time>2026-08-27T18:29:52Z</time>
  <course>126.94</course>
  <speed>0.03</speed>
  <fix>3d</fix>
</trkpt>
<trkpt lat="40.0728763" lon="-105.2309145">
  <ele>1595.56</ele>
  <time>2026-08-27T18:29:52Z</time>
  <course>353.2</course>
  <speed>0.0</speed>
  <fix>3d</fix>
</trkpt>
<trkpt lat="40.0728761" lon="-105.2309143">
  <ele>1595.48</ele>
  <time>2026-08-27T18:29:52Z</time>
  <course>130.38</course>
  <speed>0.03</speed>
  <fix>3d</fix>
</trkpt>
<trkpt lat="40.0728762" lon="-105.2309145">
  <ele>1595.55</ele>
  <time>2026-08-27T18:29:52Z</time>
  <course>353.21</course>
  <speed>0.0</speed>
  <fix>3d</fix>
</trkpt>
<trkpt lat="40.0728761" lon="-105.2309143">
  <ele>1595.48</ele>
  <time>2026-08-27T18:29:52Z</time>
  <course>131.15</course>
  <speed>0.03</speed>
  <fix>3d</fix>
</trkpt>
<trkpt lat="40.0728762" lon="-105.2309144">
  <ele>1595.55</ele>
  <time>2026-08-27T18:29:52Z</time>
  <course>353.2</course>
  <speed>0.0</speed>
  <fix>3d</fix>
</trkpt>
<trkpt lat="40.072876" lon="-105.2309142">
  <ele>1595.48</ele>
  <time>2026-08-27T18:29:52Z</time>
  <course>130.95</course>
  <speed>0.03</speed>
  <fix>3d</fix>
</trkpt>
<trkpt lat="40.0728762" lon="-105.2309144">
  <ele>1595.55</ele>
  <time>2026-08-27T18:29:52Z</time>
  <course>353.19</course>
  <speed>0.0</speed>
  <fix>3d</fix>
</trkpt>
<trkpt lat="40.072876" lon="-105.2309142">
  <ele>1595.48</ele>
  <time>2026-08-27T18:29:52Z</time>
  <course>130.43</course>
  <speed>0.03</speed>
  <fix>3d</fix>
</trkpt>
<trkpt lat="40.0728761" lon="-105.2309143">
  <ele>1595.55</ele>
  <time>2026-08-27T18:29:52Z</time>
  <course>353.18</course>
  <speed>0.0</speed>
  <fix>3d</fix>
</trkpt>
<trkpt lat="40.072876" lon="-105.2309141">
  <ele>1595.48</ele>
  <time>2026-08-27T18:29:52Z</time>
  <course>129.13</course>
  <speed>0.03</speed>
  <fix>3d</fix>
</trkpt>
<trkpt lat="40.0728761" lon="-105.2309142">
  <ele>1595.55</ele>
  <time>2026-08-27T18:29:52Z</time>
  <course>353.19</course>
  <speed>0.0</speed>
  <fix>3d</fix>
</trkpt>
<trkpt lat="40.072876" lon="-105.230914">
  <ele>1595.48</ele>
  <time>2026-08-27T18:29:52Z</time>
  <course>128.43</course>
  <speed>0.03</speed>
  <fix>3d</fix>
</trkpt>
<trkpt lat="40.072876" lon="-105.2309142">
  <ele>1595.55</ele>
  <time>2026-08-27T18:29:52Z</time>
  <course>353.18</course>
  <speed>0.0</speed>
  <fix>3d</fix>
</trkpt>
<trkpt lat="40.0728759" lon="-105.230914">
  <ele>1595.48</ele>
  <time>2026-08-27T18:29:52Z</time>
  <course>128.37</course>
  <speed>0.03</speed>
  <fix>3d</fix>
</trkpt>
<trkpt lat="40.072876" lon="-105.2309141">
  <ele>1595.56</ele>
  <time>2026-08-27T18:29:52Z</time>
  <course>353.19</course>
  <speed>0.0</speed>
  <fix>3d</fix>
</trkpt>
<trkpt lat="40.0728759" lon="-105.2309139">
  <ele>1595.49</ele>
  <time>2026-08-27T18:29:52Z</time>
  <course>127.94</course>
  <speed>0.03</speed>
  <fix>3d</fix>
</trkpt>
<trkpt lat="40.072876" lon="-105.230914">
  <ele>1595.56</ele>
  <time>2026-08-27T18:29:52Z</time>
  <course>353.2</course>
  <speed>0.0</speed>
  <fix>3d</fix>
</trkpt>
<trkpt lat="40.0728758" lon="-105.2309138">
  <ele>1595.49</ele>
  <time>2026-08-27T18:29:52Z</time>
  <course>128.14</course>
  <speed>0.03</speed>
  <fix>3d</fix>
</trkpt>
<trkpt lat="40.0728759" lon="-105.230914">
  <ele>1595.57</ele>
  <time>2026-08-27T18:29:52Z</time>
  <course>353.21</course>
  <speed>0.01</speed>
  <fix>3d</fix>
</trkpt>
<trkpt lat="40.0728758" lon="-105.2309137">
  <ele>1595.49</ele>
  <time>2026-08-27T18:29:52Z</time>
  <course>128.97</course>
  <speed>0.03</speed>
  <fix>3d</fix>
</trkpt>
<trkpt lat="40.0728759" lon="-105.2309139">
  <ele>1595.58</ele>
  <time>2026-08-27T18:29:52Z</time>
  <course>353.23</course>
  <speed>0.01414213562373095</speed>
  <fix>3d</fix>
</trkpt>
<trkpt lat="40.0728757" lon="-105.2309137">
  <ele>1595.49</ele>
  <time>2026-08-27T18:29:52Z</time>
  <course>129.65</course>
  <speed>0.04</speed>
  <fix>3d</fix>
</trkpt>
<trkpt lat="40.0728758" lon="-105.2309138">
  <ele>1595.58</ele>
  <time>2026-08-27T18:29:52Z</time>
  <course>353.23</course>
  <speed>0.01414213562373095</speed>
  <fix>3d</fix>
</trkpt>
<trkpt lat="40.0728757" lon="-105.2309136">
  <ele>1595.49</ele>
  <time>2026-08-27T18:29:52Z</time>
  <course>129.17</course>
  <speed>0.04</speed>
  <fix>3d</fix>
</trkpt>
<trkpt lat="40.0728758" lon="-105.2309137">
  <ele>1595.58</ele>
  <time>2026-08-27T18:29:52Z</time>
  <course>353.25</course>
  <speed>0.01414213562373095</speed>
  <fix>3d</fix>
</trkpt>
<trkpt lat="40.0728757" lon="-105.2309135">
  <ele>1595.49</ele>
  <time>2026-08-27T18:29:52Z</time>
  <course>128.59</course>
  <speed>0.04</speed>
  <fix>3d</fix>
</trkpt>
<trkpt lat="40.0728757" lon="-105.2309137">
  <ele>1595.58</ele>
  <time>2026-08-27T18:29:52Z</time>
  <course>353.26</course>
  <speed>0.01414213562373095</speed>
  <fix>3d</fix>
</trkpt>
<trkpt lat="40.0728756" lon="-105.2309134">
  <ele>1595.49</ele>
  <time>2026-08-27T18:29:52Z</time>
  <course>128.61</course>
  <speed>0.04</speed>
  <fix>3d</fix>
</trkpt>
<trkpt lat="40.0728757" lon="-105.2309136">
  <ele>1595.57</ele>
  <time>2026-08-27T18:29:52Z</time>
  <course>353.24</course>
  <speed>0.01414213562373095</speed>
  <fix>3d</fix>
</trkpt>
<trkpt lat="40.0728755" lon="-105.2309133">
  <ele>1595.48</ele>
  <time>2026-08-27T18:29:52Z</time>
  <course>127.73</course>
  <speed>0.04</speed>
  <fix>3d</fix>
</trkpt>
<trkpt lat="40.0728756" lon="-105.2309135">
  <ele>1595.56</ele>
  <time>2026-08-27T18:29:52Z</time>
  <course>353.22</course>
  <speed>0.01414213562373095</speed>
  <fix>3d</fix>
</trkpt>
<trkpt lat="40.0728755" lon="-105.2309133">
  <ele>1595.48</ele>
  <time>2026-08-27T18:29:52Z</time>
  <course>126.98</course>
  <speed>0.04</speed>
  <fix>3d</fix>
</trkpt>
<trkpt lat="40.0728756" lon="-105.2309134">
  <ele>1595.55</ele>
  <time>2026-08-27T18:29:52Z</time>
  <course>353.05</course>
  <speed>0.01414213562373095</speed>
  <fix>3d</fix>
</trkpt>
<trkpt lat="40.0728754" lon="-105.2309132">
  <ele>1595.47</ele>
  <time>2026-08-27T18:29:52Z</time>
  <course>126.03</course>
  <speed>0.04</speed>
  <fix>3d</fix>
</trkpt>
<trkpt lat="40.0728755" lon="-105.2309133">
  <ele>1595.55</ele>
  <time>2026-08-27T18:29:52Z</time>
  <course>351.98</course>
  <speed>0.022360679774997897</speed>
  <fix>3d</fix>
</trkpt>
<trkpt lat="40.0728754" lon="-105.2309131">
  <ele>1595.47</ele>
  <time>2026-08-27T18:29:52Z</time>
  <course>123.16</course>
  <speed>0.04</speed>
  <fix>3d</fix>
</trkpt>
<trkpt lat="40.0728755" lon="-105.2309132">
  <ele>1595.55</ele>
  <time>2026-08-27T18:29:52Z</time>
  <course>350.61</course>
  <speed>0.02</speed>
  <fix>3d</fix>
</trkpt>
<trkpt lat="40.0728754" lon="-105.230913">
  <ele>1595.47</ele>
  <time>2026-08-27T18:29:52Z</time>
  <course>120.87</course>
  <speed>0.05</speed>
  <fix>3d</fix>
</trkpt>
<trkpt lat="40.0728754" lon="-105.2309131">
  <ele>1595.55</ele>
  <time>2026-08-27T18:29:52Z</time>
  <course>349.44</course>
  <speed>0.01</speed>
  <fix>3d</fix>
</trkpt>
<trkpt lat="40.0728753" lon="-105.2309129">
  <ele>1595.47</ele>
  <time>2026-08-27T18:29:52Z</time>
  <course>120.76</course>
  <speed>0.04</speed>
  <fix>3d</fix>
</trkpt>
<trkpt lat="40.0728754" lon="-105.230913">
  <ele>1595.55</ele>
  <time>2026-08-27T18:29:52Z</time>
  <course>348.64</course>
  <speed>0.01</speed>
  <fix>3d</fix>
</trkpt>
<trkpt lat="40.0728753" lon="-105.2309128">
  <ele>1595.47</ele>
  <time>2026-08-27T18:29:52Z</time>
  <course>121.61</course>
  <speed>0.04</speed>
  <fix>3d</fix>
</trkpt>
<trkpt lat="40.0728754" lon="-105.2309129">
  <ele>1595.55</ele>
  <time>2026-08-27T18:29:52Z</time>
  <course>348.28</course>
  <speed>0.0</speed>
  <fix>3d</fix>
</trkpt>
<trkpt lat="40.0728752" lon="-105.2309127">
  <ele>1595.48</ele>
  <time>2026-08-27T18:29:52Z</time>
  <course>123.23</course>
  <speed>0.04</speed>
  <fix>3d</fix>
</trkpt>
<trkpt lat="40.0728753" lon="-105.2309129">
  <ele>1595.55</ele>
  <time>2026-08-27T18:29:52Z</time>
  <course>348.38</course>
  <speed>0.0</speed>
  <fix>3d</fix>
</trkpt>
<trkpt lat="40.0728752" lon="-105.2309126">
  <ele>1595.48</ele>
  <time>2026-08-27T18:29:52Z</time>
  <course>125.9</course>
  <speed>0.03</speed>
  <fix>3d</fix>
</trkpt>
<trkpt lat="40.0728753" lon="-105.2309128">
  <ele>1595.55</ele>
  <time>2026-08-27T18:29:52Z</time>
  <course>348.96</course>
  <speed>0.0</speed>
  <fix>3d</fix>
</trkpt>
<trkpt lat="40.0728752" lon="-105.2309126">
  <ele>1595.48</ele>
  <time>2026-08-27T18:29:52Z</time>
  <course>129.79</course>
  <speed>0.03</speed>
  <fix>3d</fix>
</trkpt>
<trkpt lat="40.0728752" lon="-105.2309128">
  <ele>1595.55</ele>
  <time>2026-08-27T18:29:52Z</time>
  <course>349.99</course>
  <speed>0.0</speed>
  <fix>3d</fix>
</trkpt>
<trkpt lat="40.0728751" lon="-105.2309125">
  <ele>1595.48</ele>
  <time>2026-08-27T18:29:52Z</time>
  <course>133.99</course>
  <speed>0.03</speed>
  <fix>3d</fix>
</trkpt>
<trkpt lat="40.0728752" lon="-105.2309127">
  <ele>1595.56</ele>
  <time>2026-08-27T18:29:52Z</time>
  <course>351.31</course>
  <speed>0.0</speed>
  <fix>3d</fix>
</trkpt>
<trkpt lat="40.0728751" lon="-105.2309125">
  <ele>1595.49</ele>
  <time>2026-08-27T18:29:52Z</time>
  <course>136.53</course>
  <speed>0.03</speed>
  <fix>3d</fix>
</trkpt>
<trkpt lat="40.0728752" lon="-105.2309127">
  <ele>1595.57</ele>
  <time>2026-08-27T18:29:52Z</time>
  <course>352.79</course>
  <speed>0.0</speed>
  <fix>3d</fix>
</trkpt>
<trkpt lat="40.072875" lon="-105.2309124">
  <ele>1595.49</ele>
  <time>2026-08-27T18:29:52Z</time>
  <course>138.54</course>
  <speed>0.03</speed>
  <fix>3d</fix>
</trkpt>
<trkpt lat="40.0728751" lon="-105.2309126">
  <ele>1595.57</ele>
  <time>2026-08-27T18:29:52Z</time>
  <course>354.34</course>
  <speed>0.0</speed>
  <fix>3d</fix>
</trkpt>
<trkpt lat="40.0728749" lon="-105.2309123">
  <ele>1595.49</ele>
  <time>2026-08-27T18:29:52Z</time>
  <course>139.79</course>
  <speed>0.03</speed>
  <fix>3d</fix>
</trkpt>
<trkpt lat="40.0728751" lon="-105.2309126">
  <ele>1595.57</ele>
  <time>2026-08-27T18:29:52Z</time>
  <course>355.79</course>
  <speed>0.0</speed>
  <fix>3d</fix>
</trkpt>
<trkpt lat="40.0728749" lon="-105.2309123">
  <ele>1595.49</ele>
  <time>2026-08-27T18:29:52Z</time>
  <course>139.15</course>
  <speed>0.03</speed>
  <fix>3d</fix>
</trkpt>
<trkpt lat="40.072875" lon="-105.2309125">
  <ele>1595.57</ele>
  <time>2026-08-27T18:29:52Z</time>
  <course>356.98</course>
  <speed>0.0</speed>
  <fix>3d</fix>
</trkpt>
<trkpt lat="40.0728748" lon="-105.2309123">
  <ele>1595.49</ele>
  <time>2026-08-27T18:29:52Z</time>
  <course>136.97</course>
  <speed>0.03</speed>
  <fix>3d</fix>
</trkpt>
<trkpt lat="40.072875" lon="-105.2309125">
  <ele>1595.57</ele>
  <time>2026-08-27T18:29:52Z</time>
  <course>357.76</course>
  <speed>0.0</speed>
  <fix>3d</fix>
</trkpt>
<trkpt lat="40.0728748" lon="-105.2309122">
  <ele>1595.49</ele>
  <time>2026-08-27T18:29:52Z</time>
  <course>133.31</course>
  <speed>0.03</speed>
  <fix>3d</fix>
</trkpt>
<trkpt lat="40.0728749" lon="-105.2309124">
  <ele>1595.57</ele>
  <time>2026-08-27T18:29:52Z</time>
  <course>358.11</course>
  <speed>0.0</speed>
  <fix>3d</fix>
</trkpt>
<trkpt lat="40.0728748" lon="-105.2309121">
  <ele>1595.48</ele>
  <time>2026-08-27T18:29:52Z</time>
  <course>129.23</course>
  <speed>0.03</speed>
  <fix>3d</fix>
</trkpt>
<trkpt lat="40.0728749" lon="-105.2309123">
  <ele>1595.56</ele>
  <time>2026-08-27T18:29:52Z</time>
  <course>358.01</course>
  <speed>0.0</speed>
  <fix>3d</fix>
</trkpt>
<trkpt lat="40.0728748" lon="-105.2309121">
  <ele>1595.48</ele>
  <time>2026-08-27T18:29:52Z</time>
  <course>125.14</course>
  <speed>0.03</speed>
  <fix>3d</fix>
</trkpt>
<trkpt lat="40.0728749" lon="-105.2309122">
  <ele>1595.56</ele>
  <time>2026-08-27T18:29:52Z</time>
  <course>357.43</course>
  <speed>0.01</speed>
  <fix>3d</fix>
</trkpt>
<trkpt lat="40.0728748" lon="-105.230912">
  <ele>1595.48</ele>
  <time>2026-08-27T18:29:52Z</time>
  <course>121.12</course>
  <speed>0.03</speed>
  <fix>3d</fix>
</trkpt>
<trkpt lat="40.0728748" lon="-105.2309122">
  <ele>1595.56</ele>
  <time>2026-08-27T18:29:52Z</time>
  <course>356.4</course>
  <speed>0.01</speed>
  <fix>3d</fix>
</trkpt>
<trkpt lat="40.0728747" lon="-105.2309119">
  <ele>1595.48</ele>
  <time>2026-08-27T18:29:52Z</time>
  <course>117.88</course>
  <speed>0.03</speed>
  <fix>3d</fix>
</trkpt>
<trkpt lat="40.0728748" lon="-105.2309121">
  <ele>1595.56</ele>
  <time>2026-08-27T18:29:52Z</time>
  <course>355.08</course>
  <speed>0.01</speed>
  <fix>3d</fix>
</trkpt>
<trkpt lat="40.0728747" lon="-105.2309118">
  <ele>1595.48</ele>
  <time>2026-08-27T18:29:52Z</time>
  <course>115.52</course>
  <speed>0.03</speed>
  <fix>3d</fix>
</trkpt>
<trkpt lat="40.0728748" lon="-105.230912">
  <ele>1595.55</ele>
  <time>2026-08-27T18:29:52Z</time>
  <course>353.6</course>
  <speed>0.01</speed>
  <fix>3d</fix>
</trkpt>
<trkpt lat="40.0728747" lon="-105.2309118">
  <ele>1595.48</ele>
  <time>2026-08-27T18:29:52Z</time>
  <course>113.41</course>
  <speed>0.03</speed>
  <fix>3d</fix>
</trkpt>
<trkpt lat="40.0728748" lon="-105.2309119">
  <ele>1595.55</ele>
  <time>2026-08-27T18:29:52Z</time>
  <course>352.06</course>
  <speed>0.01</speed>
  <fix>3d</fix>
</trkpt>
<trkpt lat="40.0728746" lon="-105.2309117">
  <ele>1595.48</ele>
  <time>2026-08-27T18:29:52Z</time>
  <course>111.66</course>
  <speed>0.03</speed>
  <fix>3d</fix>
</trkpt>
<trkpt lat="40.0728747" lon="-105.2309118">
  <ele>1595.54</ele>
  <time>2026-08-27T18:29:52Z</time>
  <course>350.62</course>
  <speed>0.01</speed>
  <fix>3d</fix>
</trkpt>
<trkpt lat="40.0728746" lon="-105.2309116">
  <ele>1595.48</ele>
  <time>2026-08-27T18:29:52Z</time>
  <course>111.02</course>
  <speed>0.03</speed>
  <fix>3d</fix>
</trkpt>
<trkpt lat="40.0728747" lon="-105.2309117">
  <ele>1595.54</ele>
  <time>2026-08-27T18:29:52Z</time>
  <course>349.43</course>
  <speed>0.0</speed>
  <fix>3d</fix>
</trkpt>
<trkpt lat="40.0728746" lon="-105.2309115">
  <ele>1595.48</ele>
  <time>2026-08-27T18:29:52Z</time>
  <course>111.97</course>
  <speed>0.03</speed>
  <fix>3d</fix>
</trkpt>
<trkpt lat="40.0728747" lon="-105.2309117">
  <ele>1595.54</ele>
  <time>2026-08-27T18:29:52Z</time>
  <course>348.63</course>
  <speed>0.0</speed>
  <fix>3d</fix>
</trkpt>
<trkpt lat="40.0728746" lon="-105.2309114">
  <ele>1595.48</ele>
  <time>2026-08-27T18:29:52Z</time>
  <course>114.39</course>
  <speed>0.03</speed>
  <fix>3d</fix>
</trkpt>
<trkpt lat="40.0728747" lon="-105.2309116">
  <ele>1595.54</ele>
  <time>2026-08-27T18:29:52Z</time>
  <course>348.25</course>
  <speed>0.0</speed>
  <fix>3d</fix>
</trkpt>
<trkpt lat="40.0728745" lon="-105.2309114">
  <ele>1595.49</ele>
  <time>2026-08-27T18:29:52Z</time>
  <course>118.5</course>
  <speed>0.02</speed>
  <fix>3d</fix>
</trkpt>
<trkpt lat="40.0728746" lon="-105.2309116">
  <ele>1595.54</ele>
  <time>2026-08-27T18:29:52Z</time>
  <course>348.36</course>
  <speed>0.0</speed>
  <fix>3d</fix>
</trkpt>
<trkpt lat="40.0728745" lon="-105.2309113">
  <ele>1595.49</ele>
  <time>2026-08-27T18:29:52Z</time>
  <course>124.26</course>
  <speed>0.02</speed>
  <fix>3d</fix>
</trkpt>
<trkpt lat="40.0728746" lon="-105.2309115">
  <ele>1595.54</ele>
  <time>2026-08-27T18:29:52Z</time>
  <course>348.96</course>
  <speed>0.0</speed>
  <fix>3d</fix>
</trkpt>
<trkpt lat="40.0728745" lon="-105.2309112">
  <ele>1595.49</ele>
  <time>2026-08-27T18:29:52Z</time>
  <course>130.64</course>
  <speed>0.02</speed>
  <fix>3d</fix>
</trkpt>
<trkpt lat="40.0728746" lon="-105.2309115">
  <ele>1595.55</ele>
  <time>2026-08-27T18:29:52Z</time>
  <course>349.99</course>
  <speed>0.0</speed>
  <fix>3d</fix>
</trkpt>
<trkpt lat="40.0728744" lon="-105.2309112">
  <ele>1595.5</ele>
  <time>2026-08-27T18:29:52Z</time>
  <course>136.38</course>
  <speed>0.02</speed>
  <fix>3d</fix>
</trkpt>
<trkpt lat="40.0728745" lon="-105.2309114">
  <ele>1595.55</ele>
  <time>2026-08-27T18:29:52Z</time>
  <course>351.27</course>
  <speed>0.0</speed>
  <fix>3d</fix>
</trkpt>
<trkpt lat="40.0728743" lon="-105.2309112">
  <ele>1595.5</ele>
  <time>2026-08-27T18:29:52Z</time>
  <course>140.24</course>
  <speed>0.02</speed>
  <fix>3d</fix>
</trkpt>
<trkpt lat="40.0728745" lon="-105.2309114">
  <ele>1595.55</ele>
  <time>2026-08-27T18:29:52Z</time>
  <course>352.75</course>
  <speed>0.01</speed>
  <fix>3d</fix>
</trkpt>
<trkpt lat="40.0728743" lon="-105.2309112">
  <ele>1595.51</ele>
  <time>2026-08-27T18:29:52Z</time>
  <course>142.1</course>
  <speed>0.03</speed>
  <fix>3d</fix>
</trkpt>
<trkpt lat="40.0728744" lon="-105.2309113">
  <ele>1595.55</ele>
  <time>2026-08-27T18:29:52Z</time>
  <course>354.29</course>
  <speed>0.01</speed>
  <fix>3d</fix>
</trkpt>
<trkpt lat="40.0728743" lon="-105.2309111">
  <ele>1595.51</ele>
  <time>2026-08-27T18:29:52Z</time>
  <course>142.0</course>
  <speed>0.03</speed>
  <fix>3d</fix>
</trkpt>
<trkpt lat="40.0728744" lon="-105.2309113">
  <ele>1595.55</ele>
  <time>2026-08-27T18:29:52Z</time>
  <course>355.72</course>
  <speed>0.01</speed>
  <fix>3d</fix>
</trkpt>
<trkpt lat="40.0728742" lon="-105.2309111">
  <ele>1595.52</ele>
  <time>2026-08-27T18:29:52Z</time>
  <course>139.94</course>
  <speed>0.03</speed>
  <fix>3d</fix>
</trkpt>
<trkpt lat="40.0728743" lon="-105.2309112">
  <ele>1595.55</ele>
  <time>2026-08-27T18:29:52Z</time>
  <course>356.87</course>
  <speed>0.01</speed>
  <fix>3d</fix>
</trkpt>
<trkpt lat="40.0728742" lon="-105.230911">
  <ele>1595.52</ele>
  <time>2026-08-27T18:29:52Z</time>
  <course>136.49</course>
  <speed>0.03</speed>
  <fix>3d</fix>
</trkpt>
<trkpt lat="40.0728743" lon="-105.2309112">
  <ele>1595.55</ele>
  <time>2026-08-27T18:29:52Z</time>
  <course>357.71</course>
  <speed>0.0</speed>
  <fix>3d</fix>
</trkpt>
<trkpt lat="40.0728742" lon="-105.2309109">
  <ele>1595.53</ele>
  <time>2026-08-27T18:29:52Z</time>
  <course>132.6</course>
  <speed>0.03</speed>
  <fix>3d</fix>
</trkpt>
<trkpt lat="40.0728742" lon="-105.2309111">
  <ele>1595.56</ele>
  <time>2026-08-27T18:29:52Z</time>
  <course>358.08</course>
  <speed>0.0</speed>
  <fix>3d</fix>
</trkpt>
<trkpt lat="40.0728741" lon="-105.2309109">
  <ele>1595.53</ele>
  <time>2026-08-27T18:29:52Z</time>
  <course>128.66</course>
  <speed>0.03</speed>
  <fix>3d</fix>
</trkpt>
<trkpt lat="40.0728742" lon="-105.230911">
  <ele>1595.57</ele>
  <time>2026-08-27T18:29:52Z</time>
  <course>357.98</course>
  <speed>0.0</speed>
  <fix>3d</fix>
</trkpt>
<trkpt lat="40.0728741" lon="-105.2309108">
  <ele>1595.53</ele>
  <time>2026-08-27T18:29:52Z</time>
  <course>124.97</course>
  <speed>0.03</speed>
  <fix>3d</fix>
</trkpt>
<trkpt lat="40.0728742" lon="-105.230911">
  <ele>1595.57</ele>
  <time>2026-08-27T18:29:52Z</time>
  <course>357.38</course>
  <speed>0.01</speed>
  <fix>3d</fix>
</trkpt>
<trkpt lat="40.0728741" lon="-105.2309107">
  <ele>1595.54</ele>
  <time>2026-08-27T18:29:52Z</time>
  <course>121.69</course>
  <speed>0.03</speed>
  <fix>3d</fix>
</trkpt>
<trkpt lat="40.0728741" lon="-105.2309109">
  <ele>1595.58</ele>
  <time>2026-08-27T18:29:52Z</time>
  <course>356.45</course>
  <speed>0.01</speed>
  <fix>3d</fix>
</trkpt>
<trkpt lat="40.072874" lon="-105.2309107">
  <ele>1595.54</ele>
  <time>2026-08-27T18:29:52Z</time>
  <course>119.05</course>
  <speed>0.03</speed>
  <fix>3d</fix>
</trkpt>
<trkpt lat="40.0728741" lon="-105.2309108">
  <ele>1595.58</ele>
  <time>2026-08-27T18:29:52Z</time>
  <course>355.15</course>
  <speed>0.01</speed>
  <fix>3d</fix>
</trkpt>
<trkpt lat="40.072874" lon="-105.2309106">
  <ele>1595.54</ele>
  <time>2026-08-27T18:29:52Z</time>
  <course>117.2</course>
  <speed>0.03</speed>
  <fix>3d</fix>
</trkpt>
<trkpt lat="40.0728741" lon="-105.2309107">
  <ele>1595.58</ele>
  <time>2026-08-27T18:29:52Z</time>
  <course>353.66</course>
  <speed>0.01</speed>
  <fix>3d</fix>
</trkpt>
<trkpt lat="40.072874" lon="-105.2309105">
  <ele>1595.54</ele>
  <time>2026-08-27T18:29:52Z</time>
  <course>115.78</course>
  <speed>0.03</speed>
  <fix>3d</fix>
</trkpt>
<trkpt lat="40.0728741" lon="-105.2309106">
  <ele>1595.58</ele>
  <time>2026-08-27T18:29:52Z</time>
  <course>352.12</course>
  <speed>0.01</speed>
  <fix>3d</fix>
</trkpt>
<trkpt lat="40.0728739" lon="-105.2309104">
  <ele>1595.53</ele>
  <time>2026-08-27T18:29:52Z</time>
  <course>114.96</course>
  <speed>0.03</speed>
  <fix>3d</fix>
</trkpt>
<trkpt lat="40.072874" lon="-105.2309106">
  <ele>1595.59</ele>
  <time>2026-08-27T18:29:52Z</time>
  <course>350.74</course>
  <speed>0.01</speed>
  <fix>3d</fix>
</trkpt>
<trkpt lat="40.0728739" lon="-105.2309103">
  <ele>1595.53</ele>
  <time>2026-08-27T18:29:52Z</time>
  <course>115.46</course>
  <speed>0.03</speed>
  <fix>3d</fix>
</trkpt>
<trkpt lat="40.072874" lon="-105.2309105">
  <ele>1595.59</ele>
  <time>2026-08-27T18:29:52Z</time>
  <course>349.55</course>
  <speed>0.0</speed>
  <fix>3d</fix>
</trkpt>
<trkpt lat="40.0728739" lon="-105.2309102">
  <ele>1595.53</ele>
  <time>2026-08-27T18:29:52Z</time>
  <course>116.97</course>
  <speed>0.03</speed>
  <fix>3d</fix>
</trkpt>
<trkpt lat="40.072874" lon="-105.2309104">
  <ele>1595.59</ele>
  <time>2026-08-27T18:29:52Z</time>
  <course>348.72</course>
  <speed>0.0</speed>
  <fix>3d</fix>
</trkpt>
<trkpt lat="40.0728739" lon="-105.2309102">
  <ele>1595.52</ele>
  <time>2026-08-27T18:29:52Z</time>
  <course>118.51</course>
  <speed>0.03</speed>
  <fix>3d</fix>
</trkpt>
<trkpt lat="40.072874" lon="-105.2309104">
  <ele>1595.58</ele>
  <time>2026-08-27T18:29:52Z</time>
  <course>348.38</course>
  <speed>0.0</speed>
  <fix>3d</fix>
</trkpt>
<trkpt lat="40.0728738" lon="-105.2309101">
  <ele>1595.52</ele>
  <time>2026-08-27T18:29:52Z</time>
  <course>120.44</course>
  <speed>0.03</speed>
  <fix>3d</fix>
</trkpt>
<trkpt lat="40.0728739" lon="-105.2309103">
  <ele>1595.58</ele>
  <time>2026-08-27T18:29:52Z</time>
  <course>348.5</course>
  <speed>0.0</speed>
  <fix>3d</fix>
</trkpt>
<trkpt lat="40.0728737" lon="-105.23091">
  <ele>1595.51</ele>
  <time>2026-08-27T18:29:52Z</time>
  <course>123.24</course>
  <speed>0.03</speed>
  <fix>3d</fix>
</trkpt>
<trkpt lat="40.0728739" lon="-105.2309102">
  <ele>1595.58</ele>
  <time>2026-08-27T18:29:52Z</time>
  <course>349.05</course>
  <speed>0.0</speed>
  <fix>3d</fix>
</trkpt>
<trkpt lat="40.0728737" lon="-105.23091">
  <ele>1595.51</ele>
  <time>2026-08-27T18:29:52Z</time>
  <course>127.18</course>
  <speed>0.02</speed>
  <fix>3d</fix>
</trkpt>
<trkpt lat="40.0728738" lon="-105.2309102">
  <ele>1595.58</ele>
  <time>2026-08-27T18:29:52Z</time>
  <course>350.03</course>
  <speed>0.0</speed>
  <fix>3d</fix>
</trkpt>
<trkpt lat="40.0728737" lon="-105.23091">
  <ele>1595.5</ele>
  <time>2026-08-27T18:29:52Z</time>
  <course>131.49</course>
  <speed>0.02</speed>
  <fix>3d</fix>
</trkpt>
<trkpt lat="40.0728738" lon="-105.2309101">
  <ele>1595.57</ele>
  <time>2026-08-27T18:29:52Z</time>
  <course>351.35</course>
  <speed>0.0</speed>
  <fix>3d</fix>
</trkpt>
<trkpt lat="40.0728736" lon="-105.2309099">
  <ele>1595.5</ele>
  <time>2026-08-27T18:29:52Z</time>
  <course>135.41</course>
  <speed>0.02</speed>
  <fix>3d</fix>
</trkpt>
<trkpt lat="40.0728738" lon="-105.2309101">
  <ele>1595.57</ele>
  <time>2026-08-27T18:29:52Z</time>
  <course>352.84</course>
  <speed>0.0</speed>
  <fix>3d</fix>
</trkpt>
<trkpt lat="40.0728736" lon="-105.2309099">
  <ele>1595.49</ele>
  <time>2026-08-27T18:29:52Z</time>
  <course>138.02</course>
  <speed>0.02</speed>
  <fix>3d</fix>
</trkpt>
<trkpt lat="40.0728737" lon="-105.23091">
  <ele>1595.56</ele>
  <time>2026-08-27T18:29:52Z</time>
  <course>354.32</course>
  <speed>0.0</speed>
  <fix>3d</fix>
</trkpt>
<trkpt lat="40.0728736" lon="-105.2309098">
  <ele>1595.49</ele>
  <time>2026-08-27T18:29:52Z</time>
  <course>138.68</course>
  <speed>0.03</speed>
  <fix>3d</fix>
</trkpt>
<trkpt lat="40.0728737" lon="-105.23091">
  <ele>1595.56</ele>
  <time>2026-08-27T18:29:52Z</time>
  <course>355.75</course>
  <speed>0.0</speed>
  <fix>3d</fix>
</trkpt>
<trkpt lat="40.0728736" lon="-105.2309097">
  <ele>1595.49</ele>
  <time>2026-08-27T18:29:52Z</time>
  <course>137.51</course>
  <speed>0.03</speed>
  <fix>3d</fix>
</trkpt>
<trkpt lat="40.0728736" lon="-105.2309099">
  <ele>1595.56</ele>
  <time>2026-08-27T18:29:52Z</time>
  <course>356.92</course>
  <speed>0.0</speed>
  <fix>3d</fix>
</trkpt>
<trkpt lat="40.0728735" lon="-105.2309097">
  <ele>1595.49</ele>
  <time>2026-08-27T18:29:52Z</time>
  <course>134.71</course>
  <speed>0.03</speed>
  <fix>3d</fix>
</trkpt>
<trkpt lat="40.0728736" lon="-105.2309099">
  <ele>1595.56</ele>
  <time>2026-08-27T18:29:52Z</time>
  <course>357.74</course>
  <speed>0.0</speed>
  <fix>3d</fix>
</trkpt>
<trkpt lat="40.0728735" lon="-105.2309097">
  <ele>1595.48</ele>
  <time>2026-08-27T18:29:52Z</time>
  <course>130.91</course>
  <speed>0.03</speed>
  <fix>3d</fix>
</trkpt>
<trkpt lat="40.0728736" lon="-105.2309098">
  <ele>1595.57</ele>
  <time>2026-08-27T18:29:52Z</time>
  <course>358.11</course>
  <speed>0.0</speed>
  <fix>3d</fix>
</trkpt>
<trkpt lat="40.0728735" lon="-105.2309096">
  <ele>1595.48</ele>
  <time>2026-08-27T18:29:52Z</time>
  <course>126.58</course>
  <speed>0.03</speed>
  <fix>3d</fix>
</trkpt>
<trkpt lat="40.0728735" lon="-105.2309097">
  <ele>1595.57</ele>
  <time>2026-08-27T18:29:52Z</time>
  <course>358.0</course>
  <speed>0.0</speed>
  <fix>3d</fix>
</trkpt>
<trkpt lat="40.0728734" lon="-105.2309095">
  <ele>1595.48</ele>
  <time>2026-08-27T18:29:52Z</time>
  <course>122.32</course>
  <speed>0.03</speed>
  <fix>3d</fix>
</trkpt>
<trkpt lat="40.0728735" lon="-105.2309097">
  <ele>1595.57</ele>
  <time>2026-08-27T18:29:52Z</time>
  <course>357.43</course>
  <speed>0.01</speed>
  <fix>3d</fix>
</trkpt>
<trkpt lat="40.0728734" lon="-105.2309094">
  <ele>1595.48</ele>
  <time>2026-08-27T18:29:52Z</time>
  <course>118.4</course>
  <speed>0.03</speed>
  <fix>3d</fix>
</trkpt>
<trkpt lat="40.0728735" lon="-105.2309096">
  <ele>1595.57</ele>
  <time>2026-08-27T18:29:52Z</time>
  <course>356.45</course>
  <speed>0.01</speed>
  <fix>3d</fix>
</trkpt>
<trkpt lat="40.0728734" lon="-105.2309094">
  <ele>1595.48</ele>
  <time>2026-08-27T18:29:52Z</time>
  <course>114.32</course>
  <speed>0.03</speed>
  <fix>3d</fix>
</trkpt>
<trkpt lat="40.0728735" lon="-105.2309095">
  <ele>1595.57</ele>
  <time>2026-08-27T18:29:52Z</time>
  <course>355.15</course>
  <speed>0.01</speed>
  <fix>3d</fix>
</trkpt>
<trkpt lat="40.0728733" lon="-105.2309093">
  <ele>1595.48</ele>
  <time>2026-08-27T18:29:52Z</time>
  <course>110.46</course>
  <speed>0.03</speed>
  <fix>3d</fix>
</trkpt>
<trkpt lat="40.0728735" lon="-105.2309094">
  <ele>1595.56</ele>
  <time>2026-08-27T18:29:52Z</time>
  <course>353.68</course>
  <speed>0.01</speed>
  <fix>3d</fix>
</trkpt>
<trkpt lat="40.0728733" lon="-105.2309092">
  <ele>1595.47</ele>
  <time>2026-08-27T18:29:52Z</time>
  <course>107.87</course>
  <speed>0.03</speed>
  <fix>3d</fix>
</trkpt>
<trkpt lat="40.0728734" lon="-105.2309093">
  <ele>1595.55</ele>
  <time>2026-08-27T18:29:52Z</time>
  <course>352.13</course>
  <speed>0.01</speed>
  <fix>3d</fix>
</trkpt>
<trkpt lat="40.0728733" lon="-105.2309091">
  <ele>1595.47</ele>
  <time>2026-08-27T18:29:52Z</time>
  <course>107.1</course>
  <speed>0.03</speed>
  <fix>3d</fix>
</trkpt>
<trkpt lat="40.0728734" lon="-105.2309093">
  <ele>1595.55</ele>
  <time>2026-08-27T18:29:52Z</time>
  <course>350.65</course>
  <speed>0.01</speed>
  <fix>3d</fix>
</trkpt>
<trkpt lat="40.0728733" lon="-105.230909">
  <ele>1595.47</ele>
  <time>2026-08-27T18:29:52Z</time>
  <course>108.11</course>
  <speed>0.03</speed>
  <fix>3d</fix>
</trkpt>
<trkpt lat="40.0728734" lon="-105.2309092">
  <ele>1595.55</ele>
  <time>2026-08-27T18:29:52Z</time>
  <course>349.45</course>
  <speed>0.0</speed>
  <fix>3d</fix>
</trkpt>
<trkpt lat="40.0728733" lon="-105.230909">
  <ele>1595.47</ele>
  <time>2026-08-27T18:29:52Z</time>
  <course>110.08</course>
  <speed>0.03</speed>
  <fix>3d</fix>
</trkpt>
<trkpt lat="40.0728734" lon="-105.2309091">
  <ele>1595.55</ele>
  <time>2026-08-27T18:29:52Z</time>
  <course>348.65</course>
  <speed>0.0</speed>
  <fix>3d</fix>
</trkpt>
<trkpt lat="40.0728732" lon="-105.2309089">
  <ele>1595.47</ele>
  <time>2026-08-27T18:29:52Z</time>
  <course>112.76</course>
  <speed>0.03</speed>
  <fix>3d</fix>
</trkpt>
<trkpt lat="40.0728733" lon="-105.2309091">
  <ele>1595.55</ele>
  <time>2026-08-27T18:29:52Z</time>
  <course>348.29</course>
  <speed>0.0</speed>
  <fix>3d</fix>
</trkpt>
<trkpt lat="40.0728731" lon="-105.2309088">
  <ele>1595.47</ele>
  <time>2026-08-27T18:29:52Z</time>
  <course>117.0</course>
  <speed>0.03</speed>
  <fix>3d</fix>
</trkpt>
<trkpt lat="40.0728733" lon="-105.230909">
  <ele>1595.56</ele>
  <time>2026-08-27T18:29:52Z</time>
  <course>348.42</course>
  <speed>0.0</speed>
  <fix>3d</fix>
</trkpt>
<trkpt lat="40.0728731" lon="-105.2309088">
  <ele>1595.47</ele>
  <time>2026-08-27T18:29:52Z</time>
  <course>122.18</course>
  <speed>0.02</speed>
  <fix>3d</fix>
</trkpt>
<trkpt lat="40.0728733" lon="-105.2309089">
  <ele>1595.56</ele>
  <time>2026-08-27T18:29:52Z</time>
  <course>348.98</course>
  <speed>0.0</speed>
  <fix>3d</fix>
</trkpt>
<trkpt lat="40.0728731" lon="-105.2309087">
  <ele>1595.47</ele>
  <time>2026-08-27T18:29:52Z</time>
  <course>126.72</course>
  <speed>0.02</speed>
  <fix>3d</fix>
</trkpt>
<trkpt lat="40.0728732" lon="-105.2309089">
  <ele>1595.56</ele>
  <time>2026-08-27T18:29:52Z</time>
  <course>350.01</course>
  <speed>0.0</speed>
  <fix>3d</fix>
</trkpt>
<trkpt lat="40.0728731" lon="-105.2309087">
  <ele>1595.47</ele>
  <time>2026-08-27T18:29:52Z</time>
  <course>130.77</course>
  <speed>0.02</speed>
  <fix>3d</fix>
</trkpt>
<trkpt lat="40.0728732" lon="-105.2309089">
  <ele>1595.56</ele>
  <time>2026-08-27T18:29:52Z</time>
  <course>351.34</course>
  <speed>0.0</speed>
  <fix>3d</fix>
</trkpt>
<trkpt lat="40.072873" lon="-105.2309086">
  <ele>1595.47</ele>
  <time>2026-08-27T18:29:52Z</time>
  <course>134.32</course>
  <speed>0.02</speed>
  <fix>3d</fix>
</trkpt>
<trkpt lat="40.0728732" lon="-105.2309088">
  <ele>1595.56</ele>
  <time>2026-08-27T18:29:52Z</time>
  <course>352.83</course>
  <speed>0.0</speed>
  <fix>3d</fix>
</trkpt>
<trkpt lat="40.072873" lon="-105.2309085">
  <ele>1595.47</ele>
  <time>2026-08-27T18:29:52Z</time>
  <course>136.37</course>
  <speed>0.02</speed>
  <fix>3d</fix>
</trkpt>
<trkpt lat="40.0728731" lon="-105.2309088">
  <ele>1595.56</ele>
  <time>2026-08-27T18:29:52Z</time>
  <course>354.33</course>
  <speed>0.0</speed>
  <fix>3d</fix>
</trkpt>
<trkpt lat="40.072873" lon="-105.2309085">
  <ele>1595.47</ele>
  <time>2026-08-27T18:29:52Z</time>
  <course>136.77</course>
  <speed>0.03</speed>
  <fix>3d</fix>
</trkpt>
<trkpt lat="40.0728731" lon="-105.2309087">
  <ele>1595.56</ele>
  <time>2026-08-27T18:29:52Z</time>
  <course>355.73</course>
  <speed>0.0</speed>
  <fix>3d</fix>
</trkpt>
<trkpt lat="40.072873" lon="-105.2309085">
  <ele>1595.47</ele>
  <time>2026-08-27T18:29:52Z</time>
  <course>135.69</course>
  <speed>0.03</speed>
  <fix>3d</fix>
</trkpt>
<trkpt lat="40.072873" lon="-105.2309086">
  <ele>1595.55</ele>
  <time>2026-08-27T18:29:52Z</time>
  <course>356.92</course>
  <speed>0.0</speed>
  <fix>3d</fix>
</trkpt>
<trkpt lat="40.0728729" lon="-105.2309084">
  <ele>1595.47</ele>
  <time>2026-08-27T18:29:52Z</time>
  <course>133.44</course>
  <speed>0.03</speed>
  <fix>3d</fix>
</trkpt>
<trkpt lat="40.072873" lon="-105.2309086">
  <ele>1595.56</ele>
  <time>2026-08-27T18:29:52Z</time>
  <course>357.73</course>
  <speed>0.0</speed>
  <fix>3d</fix>
</trkpt>
<trkpt lat="40.0728729" lon="-105.2309083">
  <ele>1595.47</ele>
  <time>2026-08-27T18:29:52Z</time>
  <course>130.29</course>
  <speed>0.03</speed>
  <fix>3d</fix>
</trkpt>
<trkpt lat="40.072873" lon="-105.2309085">
  <ele>1595.56</ele>
  <time>2026-08-27T18:29:52Z</time>
  <course>358.11</course>
  <speed>0.0</speed>
  <fix>3d</fix>
</trkpt>
<trkpt lat="40.0728729" lon="-105.2309083">
  <ele>1595.47</ele>
  <time>2026-08-27T18:29:52Z</time>
  <course>126.12</course>
  <speed>0.03</speed>
  <fix>3d</fix>
</trkpt>
<trkpt lat="40.0728729" lon="-105.2309084">
  <ele>1595.56</ele>
  <time>2026-08-27T18:29:52Z</time>
  <course>357.99</course>
  <speed>0.01</speed>
  <fix>3d</fix>
</trkpt>
<trkpt lat="40.0728728" lon="-105.2309082">
  <ele>1595.47</ele>
  <time>2026-08-27T18:29:52Z</time>
  <course>121.43</course>
  <speed>0.03</speed>
  <fix>3d</fix>
</trkpt>
<trkpt lat="40.0728729" lon="-105.2309084">
  <ele>1595.56</ele>
  <time>2026-08-27T18:29:52Z</time>
  <course>357.41</course>
  <speed>0.01</speed>
  <fix>3d</fix>
</trkpt>
<trkpt lat="40.0728728" lon="-105.2309081">
  <ele>1595.47</ele>
  <time>2026-08-27T18:29:52Z</time>
  <course>117.2</course>
  <speed>0.03</speed>
  <fix>3d</fix>
</trkpt>
<trkpt lat="40.0728729" lon="-105.2309083">
  <ele>1595.56</ele>
  <time>2026-08-27T18:29:52Z</time>
  <course>356.41</course>
  <speed>0.01</speed>
  <fix>3d</fix>
</trkpt>
<trkpt lat="40.0728728" lon="-105.230908">
  <ele>1595.47</ele>
  <time>2026-08-27T18:29:52Z</time>
  <course>114.44</course>
  <speed>0.03</speed>
  <fix>3d</fix>
</trkpt>
<trkpt lat="40.0728729" lon="-105.2309082">
  <ele>1595.57</ele>
  <time>2026-08-27T18:29:52Z</time>
  <course>355.09</course>
  <speed>0.01</speed>
  <fix>3d</fix>
</trkpt>
<trkpt lat="40.0728727" lon="-105.230908">
  <ele>1595.47</ele>
  <time>2026-08-27T18:29:52Z</time>
  <course>112.96</course>
  <speed>0.03</speed>
  <fix>3d</fix>
</trkpt>
<trkpt lat="40.0728728" lon="-105.2309081">
  <ele>1595.57</ele>
  <time>2026-08-27T18:29:52Z</time>
  <course>353.6</course>
  <speed>0.01</speed>
  <fix>3d</fix>
</trkpt>
<trkpt lat="40.0728727" lon="-105.2309079">
  <ele>1595.47</ele>
  <time>2026-08-27T18:29:52Z</time>
  <course>112.34</course>
  <speed>0.03</speed>
  <fix>3d</fix>
</trkpt>
<trkpt lat="40.0728728" lon="-105.230908">
  <ele>1595.57</ele>
  <time>2026-08-27T18:29:52Z</time>
  <course>352.09</course>
  <speed>0.01</speed>
  <fix>3d</fix>
</trkpt>
<trkpt lat="40.0728727" lon="-105.2309078">
  <ele>1595.47</ele>
  <time>2026-08-27T18:29:52Z</time>
  <course>112.79</course>
  <speed>0.03</speed>
  <fix>3d</fix>
</trkpt>
<trkpt lat="40.0728728" lon="-105.2309079">
  <ele>1595.57</ele>
  <time>2026-08-27T18:29:52Z</time>
  <course>350.69</course>
  <speed>0.0</speed>
  <fix>3d</fix>
</trkpt>
<trkpt lat="40.0728727" lon="-105.2309077">
  <ele>1595.47</ele>
  <time>2026-08-27T18:29:52Z</time>
  <course>113.99</course>
  <speed>0.03</speed>
  <fix>3d</fix>
</trkpt>
<trkpt lat="40.0728728" lon="-105.2309079">
  <ele>1595.57</ele>
  <time>2026-08-27T18:29:52Z</time>
  <course>349.49</course>
  <speed>0.0</speed>
  <fix>3d</fix>
</trkpt>
<trkpt lat="40.0728726" lon="-105.2309076">
  <ele>1595.47</ele>
  <time>2026-08-27T18:29:52Z</time>
  <course>116.17</course>
  <speed>0.03</speed>
  <fix>3d</fix>
</trkpt>
<trkpt lat="40.0728727" lon="-105.2309078">
  <ele>1595.56</ele>
  <time>2026-08-27T18:29:52Z</time>
  <course>348.69</course>
  <speed>0.0</speed>
  <fix>3d</fix>
</trkpt>
<trkpt lat="40.0728725" lon="-105.2309076">
  <ele>1595.47</ele>
  <time>2026-08-27T18:29:52Z</time>
  <course>119.9</course>
  <speed>0.03</speed>
  <fix>3d</fix>
</trkpt>
<trkpt lat="40.0728727" lon="-105.2309077">
  <ele>1595.56</ele>
  <time>2026-08-27T18:29:52Z</time>
  <course>348.32</course>
  <speed>0.0</speed>
  <fix>3d</fix>
</trkpt>
<trkpt lat="40.0728725" lon="-105.2309075">
  <ele>1595.46</ele>
  <time>2026-08-27T18:29:52Z</time>
  <course>124.93</course>
  <speed>0.03</speed>
  <fix>3d</fix>
</trkpt>
<trkpt lat="40.0728727" lon="-105.2309077">
  <ele>1595.56</ele>
  <time>2026-08-27T18:29:52Z</time>
  <course>348.42</course>
  <speed>0.0</speed>
  <fix>3d</fix>
</trkpt>
<trkpt lat="40.0728725" lon="-105.2309075">
  <ele>1595.46</ele>
  <time>2026-08-27T18:29:52Z</time>
  <course>130.03</course>
  <speed>0.03</speed>
  <fix>3d</fix>
</trkpt>
<trkpt lat="40.0728726" lon="-105.2309076">
  <ele>1595.57</ele>
  <time>2026-08-27T18:29:52Z</time>
  <course>348.99</course>
  <speed>0.0</speed>
  <fix>3d</fix>
</trkpt>
<trkpt lat="40.0728724" lon="-105.2309074">
  <ele>1595.46</ele>
  <time>2026-08-27T18:29:52Z</time>
  <course>134.25</course>
  <speed>0.03</speed>
  <fix>3d</fix>
</trkpt>
<trkpt lat="40.0728726" lon="-105.2309076">
  <ele>1595.57</ele>
  <time>2026-08-27T18:29:52Z</time>
  <course>350.02</course>
  <speed>0.0</speed>
  <fix>3d</fix>
</trkpt>
<trkpt lat="40.0728724" lon="-105.2309073">
  <ele>1595.46</ele>
  <time>2026-08-27T18:29:52Z</time>
  <course>137.92</course>
  <speed>0.03</speed>
  <fix>3d</fix>
</trkpt>
<trkpt lat="40.0728725" lon="-105.2309076">
  <ele>1595.57</ele>
  <time>2026-08-27T18:29:52Z</time>
  <course>351.35</course>
  <speed>0.0</speed>
  <fix>3d</fix>
</trkpt>
<trkpt lat="40.0728724" lon="-105.2309073">
  <ele>1595.46</ele>
  <time>2026-08-27T18:29:52Z</time>
  <course>140.36</course>
  <speed>0.03</speed>
  <fix>3d</fix>
</trkpt>
<trkpt lat="40.0728725" lon="-105.2309075">
  <ele>1595.57</ele>
  <time>2026-08-27T18:29:52Z</time>
  <course>352.85</course>
  <speed>0.0</speed>
  <fix>3d</fix>
</trkpt>
<trkpt lat="40.0728724" lon="-105.2309073">
  <ele>1595.46</ele>
  <time>2026-08-27T18:29:52Z</time>
  <course>141.27</course>
  <speed>0.03</speed>
  <fix>3d</fix>
</trkpt>
<trkpt lat="40.0728724" lon="-105.2309075">
  <ele>1595.57</ele>
  <time>2026-08-27T18:29:53Z</time>
  <course>354.36</course>
  <speed>0.0</speed>
  <fix>3d</fix>
</trkpt>
<trkpt lat="40.0728723" lon="-105.2309072">
  <ele>1595.45</ele>
  <time>2026-08-27T18:29:53Z</time>
  <course>140.35</course>
  <speed>0.03</speed>
  <fix>3d</fix>
</trkpt>
<trkpt lat="40.0728724" lon="-105.2309074">
  <ele>1595.57</ele>
  <time>2026-08-27T18:29:53Z</time>
  <course>355.78</course>
  <speed>0.0</speed>
  <fix>3d</fix>
</trkpt>
<trkpt lat="40.0728723" lon="-105.2309071">
  <ele>1595.45</ele>
  <time>2026-08-27T18:29:53Z</time>
  <course>137.44</course>
  <speed>0.03</speed>
  <fix>3d</fix>
</trkpt>
<trkpt lat="40.0728724" lon="-105.2309074">
  <ele>1595.56</ele>
  <time>2026-08-27T18:29:53Z</time>
  <course>356.94</course>
  <speed>0.0</speed>
  <fix>3d</fix>
</trkpt>
<trkpt lat="40.0728722" lon="-105.2309071">
  <ele>1595.45</ele>
  <time>2026-08-27T18:29:53Z</time>
  <course>133.58</course>
  <speed>0.03</speed>
  <fix>3d</fix>
</trkpt>
<trkpt lat="40.0728723" lon="-105.2309073">
  <ele>1595.55</ele>
  <time>2026-08-27T18:29:53Z</time>
  <course>357.75</course>
  <speed>0.0</speed>
  <fix>3d</fix>
</trkpt>
<trkpt lat="40.0728722" lon="-105.2309071">
  <ele>1595.45</ele>
  <time>2026-08-27T18:29:53Z</time>
  <course>129.71</course>
  <speed>0.03</speed>
  <fix>3d</fix>
</trkpt>
<trkpt lat="40.0728723" lon="-105.2309072">
  <ele>1595.54</ele>
  <time>2026-08-27T18:29:53Z</time>
  <course>358.1</course>
  <speed>0.0</speed>
  <fix>3d</fix>
</trkpt>
<trkpt lat="40.0728722" lon="-105.230907">
  <ele>1595.45</ele>
  <time>2026-08-27T18:29:53Z</time>
  <course>125.8</course>
  <speed>0.03</speed>
  <fix>3d</fix>
</trkpt>
<trkpt lat="40.0728723" lon="-105.2309072">
  <ele>1595.54</ele>
  <time>2026-08-27T18:29:53Z</time>
  <course>357.97</course>
  <speed>0.01</speed>
  <fix>3d</fix>
</trkpt>
<trkpt lat="40.0728721" lon="-105.2309069">
  <ele>1595.45</ele>
  <time>2026-08-27T18:29:53Z</time>
  <course>121.62</course>
  <speed>0.03</speed>
  <fix>3d</fix>
</trkpt>
<trkpt lat="40.0728722" lon="-105.2309071">
  <ele>1595.54</ele>
  <time>2026-08-27T18:29:53Z</time>
  <course>357.34</course>
  <speed>0.01</speed>
  <fix>3d</fix>
</trkpt>
<trkpt lat="40.0728721" lon="-105.2309068">
  <ele>1595.45</ele>
  <time>2026-08-27T18:29:53Z</time>
  <course>117.71</course>
  <speed>0.03</speed>
  <fix>3d</fix>
</trkpt>
<trkpt lat="40.0728722" lon="-105.230907">
  <ele>1595.54</ele>
  <time>2026-08-27T18:29:53Z</time>
  <course>356.36</course>
  <speed>0.01</speed>
  <fix>3d</fix>
</trkpt>
<trkpt lat="40.0728721" lon="-105.2309068">
  <ele>1595.45</ele>
  <time>2026-08-27T18:29:53Z</time>
  <course>114.34</course>
  <speed>0.03</speed>
  <fix>3d</fix>
</trkpt>
<trkpt lat="40.0728722" lon="-105.2309069">
  <ele>1595.54</ele>
  <time>2026-08-27T18:29:53Z</time>
  <course>355.05</course>
  <speed>0.01</speed>
  <fix>3d</fix>
</trkpt>
<trkpt lat="40.072872" lon="-105.2309067">
  <ele>1595.45</ele>
  <time>2026-08-27T18:29:53Z</time>
  <course>111.71</course>
  <speed>0.03</speed>
  <fix>3d</fix>
</trkpt>
<trkpt lat="40.0728722" lon="-105.2309068">
  <ele>1595.55</ele>
  <time>2026-08-27T18:29:53Z</time>
  <course>353.57</course>
  <speed>0.01</speed>
  <fix>3d</fix>
</trkpt>
<trkpt lat="40.0728719" lon="-105.2309066">
  <ele>1595.46</ele>
  <time>2026-08-27T18:29:53Z</time>
  <course>110.15</course>
  <speed>0.03</speed>
  <fix>3d</fix>
</trkpt>
<trkpt lat="40.0728721" lon="-105.2309067">
  <ele>1595.55</ele>
  <time>2026-08-27T18:29:53Z</time>
  <course>352.05</course>
  <speed>0.01</speed>
  <fix>3d</fix>
</trkpt>
<trkpt lat="40.0728719" lon="-105.2309065">
  <ele>1595.46</ele>
  <time>2026-08-27T18:29:53Z</time>
  <course>109.69</course>
  <speed>0.03</speed>
  <fix>3d</fix>
</trkpt>
<trkpt lat="40.0728721" lon="-105.2309067">
  <ele>1595.55</ele>
  <time>2026-08-27T18:29:53Z</time>
  <course>350.62</course>
  <speed>0.01</speed>
  <fix>3d</fix>
</trkpt>
<trkpt lat="40.0728719" lon="-105.2309064">
  <ele>1595.46</ele>
  <time>2026-08-27T18:29:53Z</time>
  <course>110.3</course>
  <speed>0.03</speed>
  <fix>3d</fix>
</trkpt>
<trkpt lat="40.0728721" lon="-105.2309066">
  <ele>1595.55</ele>
  <time>2026-08-27T18:29:53Z</time>
  <course>349.44</course>
  <speed>0.0</speed>
  <fix>3d</fix>
</trkpt>
<trkpt lat="40.0728719" lon="-105.2309064">
  <ele>1595.47</ele>
  <time>2026-08-27T18:29:53Z</time>
  <course>111.82</course>
  <speed>0.03</speed>
  <fix>3d</fix>
</trkpt>
<trkpt lat="40.072872" lon="-105.2309065">
  <ele>1595.55</ele>
  <time>2026-08-27T18:29:53Z</time>
  <course>348.66</course>
  <speed>0.0</speed>
  <fix>3d</fix>
</trkpt>
<trkpt lat="40.0728719" lon="-105.2309063">
  <ele>1595.47</ele>
  <time>2026-08-27T18:29:53Z</time>
  <course>114.15</course>
  <speed>0.03</speed>
  <fix>3d</fix>
</trkpt>
<trkpt lat="40.072872" lon="-105.2309065">
  <ele>1595.55</ele>
  <time>2026-08-27T18:29:53Z</time>
  <course>348.3</course>
  <speed>0.0</speed>
  <fix>3d</fix>
</trkpt>
<trkpt lat="40.0728718" lon="-105.2309062">
  <ele>1595.47</ele>
  <time>2026-08-27T18:29:53Z</time>
  <course>117.27</course>
  <speed>0.03</speed>
  <fix>3d</fix>
</trkpt>
<trkpt lat="40.072872" lon="-105.2309064">
  <ele>1595.55</ele>
  <time>2026-08-27T18:29:53Z</time>
  <course>348.3</course>
  <speed>0.0</speed>
  <fix>3d</fix>
</trkpt>
<trkpt lat="40.0728718" lon="-105.2309061">
  <ele>1595.48</ele>
  <time>2026-08-27T18:29:53Z</time>
  <course>120.7</course>
  <speed>0.03</speed>
  <fix>3d</fix>
</trkpt>
<trkpt lat="40.0728719" lon="-105.2309063">
  <ele>1595.55</ele>
  <time>2026-08-27T18:29:53Z</time>
  <course>348.31</course>
  <speed>0.0</speed>
  <fix>3d</fix>
</trkpt>
<trkpt lat="40.0728718" lon="-105.2309061">
  <ele>1595.48</ele>
  <time>2026-08-27T18:29:53Z</time>
  <course>122.82</course>
  <speed>0.03</speed>
  <fix>3d</fix>
</trkpt>
<trkpt lat="40.0728719" lon="-105.2309063">
  <ele>1595.55</ele>
  <time>2026-08-27T18:29:53Z</time>
  <course>348.32</course>
  <speed>0.0</speed>
  <fix>3d</fix>
</trkpt>
<trkpt lat="40.0728718" lon="-105.2309061">
  <ele>1595.48</ele>
  <time>2026-08-27T18:29:53Z</time>
  <course>122.9</course>
  <speed>0.03</speed>
  <fix>3d</fix>
</trkpt>
<trkpt lat="40.0728719" lon="-105.2309062">
  <ele>1595.56</ele>
  <time>2026-08-27T18:29:53Z</time>
  <course>348.33</course>
  <speed>0.0</speed>
  <fix>3d</fix>
</trkpt>
<trkpt lat="40.0728718" lon="-105.230906">
  <ele>1595.48</ele>
  <time>2026-08-27T18:29:53Z</time>
  <course>122.95</course>
  <speed>0.03</speed>
  <fix>3d</fix>
</trkpt>
<trkpt lat="40.0728718" lon="-105.2309061">
  <ele>1595.56</ele>
  <time>2026-08-27T18:29:53Z</time>
  <course>348.33</course>
  <speed>0.0</speed>
  <fix>3d</fix>
</trkpt>
<trkpt lat="40.0728718" lon="-105.2309059">
  <ele>1595.49</ele>
  <time>2026-08-27T18:29:53Z</time>
  <course>123.06</course>
  <speed>0.03</speed>
  <fix>3d</fix>
</trkpt>
<trkpt lat="40.0728718" lon="-105.2309061">
  <ele>1595.56</ele>
  <time>2026-08-27T18:29:53Z</time>
  <course>348.33</course>
  <speed>0.0</speed>
  <fix>3d</fix>
</trkpt>
<trkpt lat="40.0728717" lon="-105.2309059">
  <ele>1595.49</ele>
  <time>2026-08-27T18:29:53Z</time>
  <course>123.11</course>
  <speed>0.03</speed>
  <fix>3d</fix>
</trkpt>
<trkpt lat="40.0728718" lon="-105.230906">
  <ele>1595.56</ele>
  <time>2026-08-27T18:29:53Z</time>
  <course>348.33</course>
  <speed>0.0</speed>
  <fix>3d</fix>
</trkpt>
<trkpt lat="40.0728717" lon="-105.2309058">
  <ele>1595.49</ele>
  <time>2026-08-27T18:29:53Z</time>
  <course>123.54</course>
  <speed>0.03</speed>
  <fix>3d</fix>
</trkpt>
<trkpt lat="40.0728717" lon="-105.2309059">
  <ele>1595.56</ele>
  <time>2026-08-27T18:29:53Z</time>
  <course>348.33</course>
  <speed>0.0</speed>
  <fix>3d</fix>
</trkpt>
<trkpt lat="40.0728716" lon="-105.2309057">
  <ele>1595.49</ele>
  <time>2026-08-27T18:29:53Z</time>
  <course>123.91</course>
  <speed>0.03</speed>
  <fix>3d</fix>
</trkpt>
<trkpt lat="40.0728717" lon="-105.2309059">
  <ele>1595.57</ele>
  <time>2026-08-27T18:29:53Z</time>
  <course>348.33</course>
  <speed>0.0</speed>
  <fix>3d</fix>
</trkpt>
<trkpt lat="40.0728716" lon="-105.2309056">
  <ele>1595.49</ele>
  <time>2026-08-27T18:29:53Z</time>
  <course>124.25</course>
  <speed>0.03</speed>
  <fix>3d</fix>
</trkpt>
<trkpt lat="40.0728717" lon="-105.2309058">
  <ele>1595.57</ele>
  <time>2026-08-27T18:29:53Z</time>
  <course>348.33</course>
  <speed>0.0</speed>
  <fix>3d</fix>
</trkpt>
<trkpt lat="40.0728716" lon="-105.2309056">
  <ele>1595.49</ele>
  <time>2026-08-27T18:29:53Z</time>
  <course>124.56</course>
  <speed>0.03</speed>
  <fix>3d</fix>
</trkpt>
<trkpt lat="40.0728716" lon="-105.2309057">
  <ele>1595.57</ele>
  <time>2026-08-27T18:29:53Z</time>
  <course>348.35</course>
  <speed>0.01</speed>
  <fix>3d</fix>
</trkpt>
<trkpt lat="40.0728715" lon="-105.2309055">
  <ele>1595.49</ele>
  <time>2026-08-27T18:29:53Z</time>
  <course>124.9</course>
  <speed>0.04</speed>
  <fix>3d</fix>
</trkpt>
<trkpt lat="40.0728716" lon="-105.2309056">
  <ele>1595.57</ele>
  <time>2026-08-27T18:29:53Z</time>
  <course>348.36</course>
  <speed>0.01</speed>
  <fix>3d</fix>
</trkpt>
<trkpt lat="40.0728715" lon="-105.2309054">
  <ele>1595.49</ele>
  <time>2026-08-27T18:29:53Z</time>
  <course>125.05</course>
  <speed>0.04</speed>
  <fix>3d</fix>
</trkpt>
<trkpt lat="40.0728716" lon="-105.2309056">
  <ele>1595.57</ele>
  <time>2026-08-27T18:29:53Z</time>
  <course>348.34</course>
  <speed>0.01</speed>
  <fix>3d</fix>
</trkpt>
<trkpt lat="40.0728714" lon="-105.2309053">
  <ele>1595.49</ele>
  <time>2026-08-27T18:29:53Z</time>
  <course>124.91</course>
  <speed>0.04</speed>
  <fix>3d</fix>
</trkpt>
<trkpt lat="40.0728715" lon="-105.2309055">
  <ele>1595.56</ele>
  <time>2026-08-27T18:29:53Z</time>
  <course>348.33</course>
  <speed>0.01414213562373095</speed>
  <fix>3d</fix>
</trkpt>
<trkpt lat="40.0728713" lon="-105.2309052">
  <ele>1595.49</ele>
  <time>2026-08-27T18:29:53Z</time>
  <course>124.81</course>
  <speed>0.04</speed>
  <fix>3d</fix>
</trkpt>
<trkpt lat="40.0728715" lon="-105.2309054">
  <ele>1595.56</ele>
  <time>2026-08-27T18:29:53Z</time>
  <course>348.33</course>
  <speed>0.01414213562373095</speed>
  <fix>3d</fix>
</trkpt>
<trkpt lat="40.0728713" lon="-105.2309051">
  <ele>1595.49</ele>
  <time>2026-08-27T18:29:53Z</time>
  <course>124.85</course>
  <speed>0.04</speed>
  <fix>3d</fix>
</trkpt>
<trkpt lat="40.0728714" lon="-105.2309053">
  <ele>1595.56</ele>
  <time>2026-08-27T18:29:53Z</time>
  <course>348.33</course>
  <speed>0.01414213562373095</speed>
  <fix>3d</fix>
</trkpt>
<trkpt lat="40.0728712" lon="-105.2309051">
  <ele>1595.49</ele>
  <time>2026-08-27T18:29:53Z</time>
  <course>124.93</course>
  <speed>0.04</speed>
  <fix>3d</fix>
</trkpt>
<trkpt lat="40.0728714" lon="-105.2309052">
  <ele>1595.56</ele>
  <time>2026-08-27T18:29:53Z</time>
  <course>348.31</course>
  <speed>0.01414213562373095</speed>
  <fix>3d</fix>
</trkpt>
<trkpt lat="40.0728712" lon="-105.230905">
  <ele>1595.49</ele>
  <time>2026-08-27T18:29:53Z</time>
  <course>125.05</course>
  <speed>0.04</speed>
  <fix>3d</fix>
</trkpt>
<trkpt lat="40.0728713" lon="-105.2309051">
  <ele>1595.56</ele>
  <time>2026-08-27T18:29:53Z</time>
  <course>347.55</course>
  <speed>0.01414213562373095</speed>
  <fix>3d</fix>
</trkpt>
<trkpt lat="40.0728712" lon="-105.2309049">
  <ele>1595.49</ele>
  <time>2026-08-27T18:29:53Z</time>
  <course>123.28</course>
  <speed>0.04</speed>
  <fix>3d</fix>
</trkpt>
<trkpt lat="40.0728713" lon="-105.230905">
  <ele>1595.56</ele>
  <time>2026-08-27T18:29:53Z</time>
  <course>346.23</course>
  <speed>0.01414213562373095</speed>
  <fix>3d</fix>
</trkpt>
<trkpt lat="40.0728712" lon="-105.2309048">
  <ele>1595.49</ele>
  <time>2026-08-27T18:29:53Z</time>
  <course>120.99</course>
  <speed>0.04</speed>
  <fix>3d</fix>
</trkpt>
<trkpt lat="40.0728712" lon="-105.2309049">
  <ele>1595.56</ele>
  <time>2026-08-27T18:29:53Z</time>
  <course>344.97</course>
  <speed>0.01414213562373095</speed>
  <fix>3d</fix>
</trkpt>
<trkpt lat="40.0728711" lon="-105.2309047">
  <ele>1595.49</ele>
  <time>2026-08-27T18:29:53Z</time>
  <course>120.55</course>
  <speed>0.04</speed>
  <fix>3d</fix>
</trkpt>
<trkpt lat="40.0728712" lon="-105.2309048">
  <ele>1595.56</ele>
  <time>2026-08-27T18:29:53Z</time>
  <course>344.03</course>
  <speed>0.01</speed>
  <fix>3d</fix>
</trkpt>
<trkpt lat="40.0728711" lon="-105.2309046">
  <ele>1595.49</ele>
  <time>2026-08-27T18:29:53Z</time>
  <course>120.75</course>
  <speed>0.04</speed>
  <fix>3d</fix>
</trkpt>
<trkpt lat="40.0728711" lon="-105.2309047">
  <ele>1595.56</ele>
  <time>2026-08-27T18:29:53Z</time>
  <course>343.49</course>
  <speed>0.01</speed>
  <fix>3d</fix>
</trkpt>
<trkpt lat="40.072871" lon="-105.2309045">
  <ele>1595.49</ele>
  <time>2026-08-27T18:29:53Z</time>
  <course>121.28</course>
  <speed>0.04</speed>
  <fix>3d</fix>
</trkpt>
<trkpt lat="40.0728711" lon="-105.2309047">
  <ele>1595.56</ele>
  <time>2026-08-27T18:29:53Z</time>
  <course>343.46</course>
  <speed>0.0</speed>
  <fix>3d</fix>
</trkpt>
<trkpt lat="40.072871" lon="-105.2309044">
  <ele>1595.49</ele>
  <time>2026-08-27T18:29:53Z</time>
  <course>123.26</course>
  <speed>0.04</speed>
  <fix>3d</fix>
</trkpt>
<trkpt lat="40.0728711" lon="-105.2309046">
  <ele>1595.56</ele>
  <time>2026-08-27T18:29:53Z</time>
  <course>343.87</course>
  <speed>0.0</speed>
  <fix>3d</fix>
</trkpt>
<trkpt lat="40.072871" lon="-105.2309044">
  <ele>1595.49</ele>
  <time>2026-08-27T18:29:53Z</time>
  <course>126.15</course>
  <speed>0.03</speed>
  <fix>3d</fix>
</trkpt>
<trkpt lat="40.072871" lon="-105.2309045">
  <ele>1595.56</ele>
  <time>2026-08-27T18:29:53Z</time>
  <course>344.74</course>
  <speed>0.0</speed>
  <fix>3d</fix>
</trkpt>
<trkpt lat="40.0728709" lon="-105.2309043">
  <ele>1595.49</ele>
  <time>2026-08-27T18:29:53Z</time>
  <course>128.48</course>
  <speed>0.03</speed>
  <fix>3d</fix>
</trkpt>
<trkpt lat="40.072871" lon="-105.2309045">
  <ele>1595.56</ele>
  <time>2026-08-27T18:29:53Z</time>
  <course>345.96</course>
  <speed>0.0</speed>
  <fix>3d</fix>
</trkpt>
<trkpt lat="40.0728709" lon="-105.2309042">
  <ele>1595.49</ele>
  <time>2026-08-27T18:29:53Z</time>
  <course>130.37</course>
  <speed>0.03</speed>
  <fix>3d</fix>
</trkpt>
<trkpt lat="40.072871" lon="-105.2309044">
  <ele>1595.56</ele>
  <time>2026-08-27T18:29:53Z</time>
  <course>347.38</course>
  <speed>0.0</speed>
  <fix>3d</fix>
</trkpt>
<trkpt lat="40.0728708" lon="-105.2309042">
  <ele>1595.49</ele>
  <time>2026-08-27T18:29:53Z</time>
  <course>132.17</course>
  <speed>0.03</speed>
  <fix>3d</fix>
</trkpt>
<trkpt lat="40.0728709" lon="-105.2309044">
  <ele>1595.56</ele>
  <time>2026-08-27T18:29:53Z</time>
  <course>348.92</course>
  <speed>0.0</speed>
  <fix>3d</fix>
</trkpt>
<trkpt lat="40.0728707" lon="-105.2309041">
  <ele>1595.49</ele>
  <time>2026-08-27T18:29:53Z</time>
  <course>133.08</course>
  <speed>0.03</speed>
  <fix>3d</fix>
</trkpt>
<trkpt lat="40.0728709" lon="-105.2309043">
  <ele>1595.56</ele>
  <time>2026-08-27T18:29:53Z</time>
  <course>350.41</course>
  <speed>0.0</speed>
  <fix>3d</fix>
</trkpt>
<trkpt lat="40.0728707" lon="-105.230904">
  <ele>1595.49</ele>
  <time>2026-08-27T18:29:53Z</time>
  <course>132.03</course>
  <speed>0.03</speed>
  <fix>3d</fix>
</trkpt>
<trkpt lat="40.0728708" lon="-105.2309042">
  <ele>1595.57</ele>
  <time>2026-08-27T18:29:53Z</time>
  <course>351.66</course>
  <speed>0.0</speed>
  <fix>3d</fix>
</trkpt>
<trkpt lat="40.0728707" lon="-105.230904">
  <ele>1595.49</ele>
  <time>2026-08-27T18:29:53Z</time>
  <course>129.97</course>
  <speed>0.03</speed>
  <fix>3d</fix>
</trkpt>
<trkpt lat="40.0728708" lon="-105.2309042">
  <ele>1595.57</ele>
  <time>2026-08-27T18:29:53Z</time>
  <course>352.63</course>
  <speed>0.0</speed>
  <fix>3d</fix>
</trkpt>
<trkpt lat="40.0728706" lon="-105.230904">
  <ele>1595.5</ele>
  <time>2026-08-27T18:29:53Z</time>
  <course>127.9</course>
  <speed>0.03</speed>
  <fix>3d</fix>
</trkpt>
<trkpt lat="40.0728707" lon="-105.2309041">
  <ele>1595.56</ele>
  <time>2026-08-27T18:29:53Z</time>
  <course>353.18</course>
  <speed>0.0</speed>
  <fix>3d</fix>
</trkpt>
<trkpt lat="40.0728706" lon="-105.2309039">
  <ele>1595.5</ele>
  <time>2026-08-27T18:29:53Z</time>
  <course>125.31</course>
  <speed>0.03</speed>
  <fix>3d</fix>
</trkpt>
<trkpt lat="40.0728707" lon="-105.2309041">
  <ele>1595.56</ele>
  <time>2026-08-27T18:29:53Z</time>
  <course>353.23</course>
  <speed>0.0</speed>
  <fix>3d</fix>
</trkpt>
<trkpt lat="40.0728706" lon="-105.2309038">
  <ele>1595.5</ele>
  <time>2026-08-27T18:29:53Z</time>
  <course>122.38</course>
  <speed>0.03</speed>
  <fix>3d</fix>
</trkpt>
<trkpt lat="40.0728707" lon="-105.230904">
  <ele>1595.56</ele>
  <time>2026-08-27T18:29:53Z</time>
  <course>352.77</course>
  <speed>0.01</speed>
  <fix>3d</fix>
</trkpt>
<trkpt lat="40.0728706" lon="-105.2309037">
  <ele>1595.5</ele>
  <time>2026-08-27T18:29:53Z</time>
  <course>119.13</course>
  <speed>0.03</speed>
  <fix>3d</fix>
</trkpt>
<trkpt lat="40.0728707" lon="-105.2309039">
  <ele>1595.56</ele>
  <time>2026-08-27T18:29:53Z</time>
  <course>351.91</course>
  <speed>0.01</speed>
  <fix>3d</fix>
</trkpt>
<trkpt lat="40.0728706" lon="-105.2309037">
  <ele>1595.5</ele>
  <time>2026-08-27T18:29:53Z</time>
  <course>115.69</course>
  <speed>0.03</speed>
  <fix>3d</fix>
</trkpt>
<trkpt lat="40.0728706" lon="-105.2309038">
  <ele>1595.56</ele>
  <time>2026-08-27T18:29:53Z</time>
  <course>350.69</course>
  <speed>0.01</speed>
  <fix>3d</fix>
</trkpt>
<trkpt lat="40.0728705" lon="-105.2309036">
  <ele>1595.5</ele>
  <time>2026-08-27T18:29:53Z</time>
  <course>112.46</course>
  <speed>0.03</speed>
  <fix>3d</fix>
</trkpt>
<trkpt lat="40.0728706" lon="-105.2309037">
  <ele>1595.56</ele>
  <time>2026-08-27T18:29:53Z</time>
  <course>349.26</course>
  <speed>0.01</speed>
  <fix>3d</fix>
</trkpt>
<trkpt lat="40.0728705" lon="-105.2309035">
  <ele>1595.5</ele>
  <time>2026-08-27T18:29:53Z</time>
  <course>110.15</course>
  <speed>0.03</speed>
  <fix>3d</fix>
</trkpt>
<trkpt lat="40.0728706" lon="-105.2309037">
  <ele>1595.56</ele>
  <time>2026-08-27T18:29:53Z</time>
  <course>347.73</course>
  <speed>0.01</speed>
  <fix>3d</fix>
</trkpt>
<trkpt lat="40.0728705" lon="-105.2309034">
  <ele>1595.5</ele>
  <time>2026-08-27T18:29:53Z</time>
  <course>108.91</course>
  <speed>0.03</speed>
  <fix>3d</fix>
</trkpt>
<trkpt lat="40.0728706" lon="-105.2309036">
  <ele>1595.56</ele>
  <time>2026-08-27T18:29:53Z</time>
  <course>346.3</course>
  <speed>0.01</speed>
  <fix>3d</fix>
</trkpt>
<trkpt lat="40.0728705" lon="-105.2309033">
  <ele>1595.5</ele>
  <time>2026-08-27T18:29:53Z</time>
  <course>108.35</course>
  <speed>0.03</speed>
  <fix>3d</fix>
</trkpt>
<trkpt lat="40.0728706" lon="-105.2309035">
  <ele>1595.57</ele>
  <time>2026-08-27T18:29:53Z</time>
  <course>345.0</course>
  <speed>0.0</speed>
  <fix>3d</fix>
</trkpt>
<trkpt lat="40.0728705" lon="-105.2309033">
  <ele>1595.5</ele>
  <time>2026-08-27T18:29:53Z</time>
  <course>108.87</course>
  <speed>0.03</speed>
  <fix>3d</fix>
</trkpt>
<trkpt lat="40.0728705" lon="-105.2309034">
  <ele>1595.57</ele>
  <time>2026-08-27T18:29:53Z</time>
  <course>344.06</course>
  <speed>0.0</speed>
  <fix>3d</fix>
</trkpt>
<trkpt lat="40.0728704" lon="-105.2309032">
  <ele>1595.5</ele>
  <time>2026-08-27T18:29:53Z</time>
  <course>111.51</course>
  <speed>0.03</speed>
  <fix>3d</fix>
</trkpt>
<trkpt lat="40.0728705" lon="-105.2309034">
  <ele>1595.57</ele>
  <time>2026-08-27T18:29:53Z</time>
  <course>343.52</course>
  <speed>0.0</speed>
  <fix>3d</fix>
</trkpt>
<trkpt lat="40.0728704" lon="-105.2309031">
  <ele>1595.5</ele>
  <time>2026-08-27T18:29:53Z</time>
  <course>116.45</course>
  <speed>0.03</speed>
  <fix>3d</fix>
</trkpt>
<trkpt lat="40.0728705" lon="-105.2309033">
  <ele>1595.58</ele>
  <time>2026-08-27T18:29:53Z</time>
  <course>343.48</course>
  <speed>0.0</speed>
  <fix>3d</fix>
</trkpt>
<trkpt lat="40.0728704" lon="-105.230903">
  <ele>1595.5</ele>
  <time>2026-08-27T18:29:53Z</time>
  <course>122.28</course>
  <speed>0.02</speed>
  <fix>3d</fix>
</trkpt>
<trkpt lat="40.0728705" lon="-105.2309033">
  <ele>1595.58</ele>
  <time>2026-08-27T18:29:53Z</time>
  <course>343.93</course>
  <speed>0.0</speed>
  <fix>3d</fix>
</trkpt>
<trkpt lat="40.0728703" lon="-105.230903">
  <ele>1595.5</ele>
  <time>2026-08-27T18:29:53Z</time>
  <course>127.95</course>
  <speed>0.02</speed>
  <fix>3d</fix>
</trkpt>
<trkpt lat="40.0728704" lon="-105.2309032">
  <ele>1595.58</ele>
  <time>2026-08-27T18:29:53Z</time>
  <course>344.8</course>
  <speed>0.0</speed>
  <fix>3d</fix>
</trkpt>
<trkpt lat="40.0728703" lon="-105.230903">
  <ele>1595.5</ele>
  <time>2026-08-27T18:29:53Z</time>
  <course>132.39</course>
  <speed>0.02</speed>
  <fix>3d</fix>
</trkpt>
<trkpt lat="40.0728704" lon="-105.2309032">
  <ele>1595.58</ele>
  <time>2026-08-27T18:29:53Z</time>
  <course>346.02</course>
  <speed>0.0</speed>
  <fix>3d</fix>
</trkpt>
<trkpt lat="40.0728703" lon="-105.2309029">
  <ele>1595.49</ele>
  <time>2026-08-27T18:29:53Z</time>
  <course>134.93</course>
  <speed>0.02</speed>
  <fix>3d</fix>
</trkpt>
<trkpt lat="40.0728704" lon="-105.2309031">
  <ele>1595.58</ele>
  <time>2026-08-27T18:29:53Z</time>
  <course>347.46</course>
  <speed>0.0</speed>
  <fix>3d</fix>
</trkpt>
<trkpt lat="40.0728702" lon="-105.2309028">
  <ele>1595.49</ele>
  <time>2026-08-27T18:29:53Z</time>
  <course>135.49</course>
  <speed>0.02</speed>
  <fix>3d</fix>
</trkpt>
<trkpt lat="40.0728703" lon="-105.2309031">
  <ele>1595.57</ele>
  <time>2026-08-27T18:29:53Z</time>
  <course>348.98</course>
  <speed>0.0</speed>
  <fix>3d</fix>
</trkpt>
<trkpt lat="40.0728701" lon="-105.2309028">
  <ele>1595.48</ele>
  <time>2026-08-27T18:29:53Z</time>
  <course>134.78</course>
  <speed>0.03</speed>
  <fix>3d</fix>
</trkpt>
<trkpt lat="40.0728703" lon="-105.230903">
  <ele>1595.56</ele>
  <time>2026-08-27T18:29:53Z</time>
  <course>350.44</course>
  <speed>0.0</speed>
  <fix>3d</fix>
</trkpt>
<trkpt lat="40.0728701" lon="-105.2309028">
  <ele>1595.48</ele>
  <time>2026-08-27T18:29:53Z</time>
  <course>132.99</course>
  <speed>0.03</speed>
  <fix>3d</fix>
</trkpt>
<trkpt lat="40.0728702" lon="-105.2309029">
  <ele>1595.56</ele>
  <time>2026-08-27T18:29:53Z</time>
  <course>351.68</course>
  <speed>0.0</speed>
  <fix>3d</fix>
</trkpt>
<trkpt lat="40.0728701" lon="-105.2309027">
  <ele>1595.48</ele>
  <time>2026-08-27T18:29:53Z</time>
  <course>130.06</course>
  <speed>0.03</speed>
  <fix>3d</fix>
</trkpt>
<trkpt lat="40.0728702" lon="-105.2309029">
  <ele>1595.55</ele>
  <time>2026-08-27T18:29:53Z</time>
  <course>352.62</course>
  <speed>0.0</speed>
  <fix>3d</fix>
</trkpt>
<trkpt lat="40.07287" lon="-105.2309026">
  <ele>1595.47</ele>
  <time>2026-08-27T18:29:53Z</time>
  <course>127.11</course>
  <speed>0.03</speed>
  <fix>3d</fix>
</trkpt>
<trkpt lat="40.0728702" lon="-105.2309028">
  <ele>1595.54</ele>
  <time>2026-08-27T18:29:53Z</time>
  <course>353.14</course>
  <speed>0.0</speed>
  <fix>3d</fix>
</trkpt>
<trkpt lat="40.07287" lon="-105.2309025">
  <ele>1595.47</ele>
  <time>2026-08-27T18:29:53Z</time>
  <course>123.66</course>
  <speed>0.03</speed>
  <fix>3d</fix>
</trkpt>
<trkpt lat="40.0728701" lon="-105.2309027">
  <ele>1595.54</ele>
  <time>2026-08-27T18:29:53Z</time>
  <course>353.17</course>
  <speed>0.01</speed>
  <fix>3d</fix>
</trkpt>
<trkpt lat="40.07287" lon="-105.2309025">
  <ele>1595.47</ele>
  <time>2026-08-27T18:29:53Z</time>
  <course>120.37</course>
  <speed>0.03</speed>
  <fix>3d</fix>
</trkpt>
<trkpt lat="40.0728701" lon="-105.2309026">
  <ele>1595.54</ele>
  <time>2026-08-27T18:29:53Z</time>
  <course>352.74</course>
  <speed>0.01</speed>
  <fix>3d</fix>
</trkpt>
<trkpt lat="40.0728699" lon="-105.2309024">
  <ele>1595.47</ele>
  <time>2026-08-27T18:29:53Z</time>
  <course>117.73</course>
  <speed>0.03</speed>
  <fix>3d</fix>
</trkpt>
<trkpt lat="40.07287" lon="-105.2309026">
  <ele>1595.55</ele>
  <time>2026-08-27T18:29:53Z</time>
  <course>351.89</course>
  <speed>0.01</speed>
  <fix>3d</fix>
</trkpt>
<trkpt lat="40.0728699" lon="-105.2309023">
  <ele>1595.48</ele>
  <time>2026-08-27T18:29:53Z</time>
  <course>115.03</course>
  <speed>0.03</speed>
  <fix>3d</fix>
</trkpt>
<trkpt lat="40.07287" lon="-105.2309025">
  <ele>1595.55</ele>
  <time>2026-08-27T18:29:53Z</time>
  <course>350.67</course>
  <speed>0.01</speed>
  <fix>3d</fix>
</trkpt>
<trkpt lat="40.0728699" lon="-105.2309023">
  <ele>1595.48</ele>
  <time>2026-08-27T18:29:53Z</time>
  <course>112.32</course>
  <speed>0.03</speed>
  <fix>3d</fix>
</trkpt>
<trkpt lat="40.07287" lon="-105.2309024">
  <ele>1595.56</ele>
  <time>2026-08-27T18:29:53Z</time>
  <course>349.24</course>
  <speed>0.01</speed>
  <fix>3d</fix>
</trkpt>
<trkpt lat="40.0728699" lon="-105.2309022">
  <ele>1595.48</ele>
  <time>2026-08-27T18:29:53Z</time>
  <course>110.24</course>
  <speed>0.03</speed>
  <fix>3d</fix>
</trkpt>
<trkpt lat="40.07287" lon="-105.2309023">
  <ele>1595.57</ele>
  <time>2026-08-27T18:29:53Z</time>
  <course>347.73</course>
  <speed>0.01</speed>
  <fix>3d</fix>
</trkpt>
<trkpt lat="40.0728699" lon="-105.2309021">
  <ele>1595.49</ele>
  <time>2026-08-27T18:29:53Z</time>
  <course>109.29</course>
  <speed>0.03</speed>
  <fix>3d</fix>
</trkpt>
<trkpt lat="40.07287" lon="-105.2309022">
  <ele>1595.57</ele>
  <time>2026-08-27T18:29:53Z</time>
  <course>346.31</course>
  <speed>0.0</speed>
  <fix>3d</fix>
</trkpt>
<trkpt lat="40.0728699" lon="-105.230902">
  <ele>1595.49</ele>
  <time>2026-08-27T18:29:53Z</time>
  <course>109.76</course>
  <speed>0.03</speed>
  <fix>3d</fix>
</trkpt>
<trkpt lat="40.0728699" lon="-105.2309022">
  <ele>1595.57</ele>
  <time>2026-08-27T18:29:53Z</time>
  <course>345.03</course>
  <speed>0.0</speed>
  <fix>3d</fix>
</trkpt>
<trkpt lat="40.0728698" lon="-105.2309019">
  <ele>1595.49</ele>
  <time>2026-08-27T18:29:53Z</time>
  <course>111.63</course>
  <speed>0.03</speed>
  <fix>3d</fix>
</trkpt>
<trkpt lat="40.0728699" lon="-105.2309021">
  <ele>1595.56</ele>
  <time>2026-08-27T18:29:53Z</time>
  <course>344.07</course>
  <speed>0.0</speed>
  <fix>3d</fix>
</trkpt>
<trkpt lat="40.0728698" lon="-105.2309018">
  <ele>1595.49</ele>
  <time>2026-08-27T18:29:53Z</time>
  <course>114.28</course>
  <speed>0.03</speed>
  <fix>3d</fix>
</trkpt>
<trkpt lat="40.0728699" lon="-105.230902">
  <ele>1595.56</ele>
  <time>2026-08-27T18:29:53Z</time>
  <course>343.51</course>
  <speed>0.0</speed>
  <fix>3d</fix>
</trkpt>
<trkpt lat="40.0728698" lon="-105.2309018">
  <ele>1595.49</ele>
  <time>2026-08-27T18:29:53Z</time>
  <course>118.12</course>
  <speed>0.03</speed>
  <fix>3d</fix>
</trkpt>
<trkpt lat="40.0728699" lon="-105.230902">
  <ele>1595.56</ele>
  <time>2026-08-27T18:29:53Z</time>
  <course>343.45</course>
  <speed>0.0</speed>
  <fix>3d</fix>
</trkpt>
<trkpt lat="40.0728698" lon="-105.2309017">
  <ele>1595.49</ele>
  <time>2026-08-27T18:29:53Z</time>
  <course>123.68</course>
  <speed>0.03</speed>
  <fix>3d</fix>
</trkpt>
<trkpt lat="40.0728698" lon="-105.2309019">
  <ele>1595.56</ele>
  <time>2026-08-27T18:29:53Z</time>
  <course>343.87</course>
  <speed>0.0</speed>
  <fix>3d</fix>
</trkpt>
<trkpt lat="40.0728697" lon="-105.2309016">
  <ele>1595.49</ele>
  <time>2026-08-27T18:29:53Z</time>
  <course>129.69</course>
  <speed>0.02</speed>
  <fix>3d</fix>
</trkpt>
<trkpt lat="40.0728698" lon="-105.2309019">
  <ele>1595.56</ele>
  <time>2026-08-27T18:29:53Z</time>
  <course>344.73</course>
  <speed>0.0</speed>
  <fix>3d</fix>
</trkpt>
<trkpt lat="40.0728697" lon="-105.2309016">
  <ele>1595.49</ele>
  <time>2026-08-27T18:29:53Z</time>
  <course>134.33</course>
  <speed>0.02</speed>
  <fix>3d</fix>
</trkpt>
<trkpt lat="40.0728698" lon="-105.2309018">
  <ele>1595.57</ele>
  <time>2026-08-27T18:29:53Z</time>
  <course>345.99</course>
  <speed>0.0</speed>
  <fix>3d</fix>
</trkpt>
<trkpt lat="40.0728696" lon="-105.2309016">
  <ele>1595.49</ele>
  <time>2026-08-27T18:29:53Z</time>
  <course>137.27</course>
  <speed>0.03</speed>
  <fix>3d</fix>
</trkpt>
<trkpt lat="40.0728697" lon="-105.2309018">
  <ele>1595.57</ele>
  <time>2026-08-27T18:29:53Z</time>
  <course>347.43</course>
  <speed>0.01</speed>
  <fix>3d</fix>
</trkpt>
<trkpt lat="40.0728696" lon="-105.2309015">
  <ele>1595.49</ele>
  <time>2026-08-27T18:29:53Z</time>
  <course>138.67</course>
  <speed>0.03</speed>
  <fix>3d</fix>
</trkpt>
<trkpt lat="40.0728697" lon="-105.2309017">
  <ele>1595.57</ele>
  <time>2026-08-27T18:29:53Z</time>
  <course>348.96</course>
  <speed>0.01</speed>
  <fix>3d</fix>
</trkpt>
<trkpt lat="40.0728696" lon="-105.2309015">
  <ele>1595.48</ele>
  <time>2026-08-27T18:29:53Z</time>
  <course>138.27</course>
  <speed>0.03</speed>
  <fix>3d</fix>
</trkpt>
<trkpt lat="40.0728696" lon="-105.2309017">
  <ele>1595.57</ele>
  <time>2026-08-27T18:29:53Z</time>
  <course>350.39</course>
  <speed>0.01</speed>
  <fix>3d</fix>
</trkpt>
<trkpt lat="40.0728695" lon="-105.2309014">
  <ele>1595.48</ele>
  <time>2026-08-27T18:29:53Z</time>
  <course>136.39</course>
  <speed>0.03</speed>
  <fix>3d</fix>
</trkpt>
<trkpt lat="40.0728696" lon="-105.2309016">
  <ele>1595.56</ele>
  <time>2026-08-27T18:29:53Z</time>
  <course>351.68</course>
  <speed>0.0</speed>
  <fix>3d</fix>
</trkpt>
<trkpt lat="40.0728694" lon="-105.2309013">
  <ele>1595.48</ele>
  <time>2026-08-27T18:29:53Z</time>
  <course>134.08</course>
  <speed>0.03</speed>
  <fix>3d</fix>
</trkpt>
<trkpt lat="40.0728696" lon="-105.2309015">
  <ele>1595.57</ele>
  <time>2026-08-27T18:29:53Z</time>
  <course>352.65</course>
  <speed>0.0</speed>
  <fix>3d</fix>
</trkpt>
<trkpt lat="40.0728694" lon="-105.2309013">
  <ele>1595.48</ele>
  <time>2026-08-27T18:29:53Z</time>
  <course>131.13</course>
  <speed>0.03</speed>
  <fix>3d</fix>
</trkpt>
<trkpt lat="40.0728695" lon="-105.2309015">
  <ele>1595.56</ele>
  <time>2026-08-27T18:29:53Z</time>
  <course>353.19</course>
  <speed>0.0</speed>
  <fix>3d</fix>
</trkpt>
<trkpt lat="40.0728693" lon="-105.2309013">
  <ele>1595.48</ele>
  <time>2026-08-27T18:29:53Z</time>
  <course>127.0</course>
  <speed>0.03</speed>
  <fix>3d</fix>
</trkpt>
<trkpt lat="40.0728695" lon="-105.2309014">
  <ele>1595.56</ele>
  <time>2026-08-27T18:29:53Z</time>
  <course>353.21</course>
  <speed>0.01</speed>
  <fix>3d</fix>
</trkpt>
<trkpt lat="40.0728693" lon="-105.2309012">
  <ele>1595.48</ele>
  <time>2026-08-27T18:29:53Z</time>
  <course>122.14</course>
  <speed>0.03</speed>
  <fix>3d</fix>
</trkpt>
<trkpt lat="40.0728694" lon="-105.2309013">
  <ele>1595.56</ele>
  <time>2026-08-27T18:29:53Z</time>
  <course>352.79</course>
  <speed>0.01</speed>
  <fix>3d</fix>
</trkpt>
<trkpt lat="40.0728693" lon="-105.2309011">
  <ele>1595.48</ele>
  <time>2026-08-27T18:29:53Z</time>
  <course>117.64</course>
  <speed>0.03</speed>
  <fix>3d</fix>
</trkpt>
<trkpt lat="40.0728694" lon="-105.2309012">
  <ele>1595.55</ele>
  <time>2026-08-27T18:29:53Z</time>
  <course>351.92</course>
  <speed>0.01</speed>
  <fix>3d</fix>
</trkpt>
<trkpt lat="40.0728693" lon="-105.230901">
  <ele>1595.48</ele>
  <time>2026-08-27T18:29:53Z</time>
  <course>114.06</course>
  <speed>0.04</speed>
  <fix>3d</fix>
</trkpt>
<trkpt lat="40.0728694" lon="-105.2309011">
  <ele>1595.55</ele>
  <time>2026-08-27T18:29:53Z</time>
  <course>350.68</course>
  <speed>0.01</speed>
  <fix>3d</fix>
</trkpt>
<trkpt lat="40.0728693" lon="-105.2309009">
  <ele>1595.48</ele>
  <time>2026-08-27T18:29:53Z</time>
  <course>110.63</course>
  <speed>0.04</speed>
  <fix>3d</fix>
</trkpt>
<trkpt lat="40.0728694" lon="-105.2309011">
  <ele>1595.55</ele>
  <time>2026-08-27T18:29:53Z</time>
  <course>349.24</course>
  <speed>0.01</speed>
  <fix>3d</fix>
</trkpt>
<trkpt lat="40.0728693" lon="-105.2309008">
  <ele>1595.48</ele>
  <time>2026-08-27T18:29:53Z</time>
  <course>107.41</course>
  <speed>0.04</speed>
  <fix>3d</fix>
</trkpt>
<trkpt lat="40.0728693" lon="-105.230901">
  <ele>1595.55</ele>
  <time>2026-08-27T18:29:53Z</time>
  <course>347.72</course>
  <speed>0.01</speed>
  <fix>3d</fix>
</trkpt>
<trkpt lat="40.0728692" lon="-105.2309007">
  <ele>1595.48</ele>
  <time>2026-08-27T18:29:53Z</time>
  <course>105.17</course>
  <speed>0.03</speed>
  <fix>3d</fix>
</trkpt>
<trkpt lat="40.0728693" lon="-105.2309009">
  <ele>1595.55</ele>
  <time>2026-08-27T18:29:53Z</time>
  <course>346.25</course>
  <speed>0.01</speed>
  <fix>3d</fix>
</trkpt>
<trkpt lat="40.0728692" lon="-105.2309006">
  <ele>1595.48</ele>
  <time>2026-08-27T18:29:53Z</time>
  <course>104.03</course>
  <speed>0.03</speed>
  <fix>3d</fix>
</trkpt>
<trkpt lat="40.0728693" lon="-105.2309008">
  <ele>1595.56</ele>
  <time>2026-08-27T18:29:53Z</time>
  <course>344.96</course>
  <speed>0.0</speed>
  <fix>3d</fix>
</trkpt>
<trkpt lat="40.0728692" lon="-105.2309006">
  <ele>1595.49</ele>
  <time>2026-08-27T18:29:53Z</time>
  <course>104.57</course>
  <speed>0.03</speed>
  <fix>3d</fix>
</trkpt>
<trkpt lat="40.0728693" lon="-105.2309007">
  <ele>1595.56</ele>
  <time>2026-08-27T18:29:53Z</time>
  <course>344.03</course>
  <speed>0.0</speed>
  <fix>3d</fix>
</trkpt>
<trkpt lat="40.0728692" lon="-105.2309005">
  <ele>1595.49</ele>
  <time>2026-08-27T18:29:53Z</time>
  <course>107.09</course>
  <speed>0.03</speed>
  <fix>3d</fix>
</trkpt>
<trkpt lat="40.0728693" lon="-105.2309007">
  <ele>1595.56</ele>
  <time>2026-08-27T18:29:53Z</time>
  <course>343.5</course>
  <speed>0.0</speed>
  <fix>3d</fix>
</trkpt>
<trkpt lat="40.0728692" lon="-105.2309004">
  <ele>1595.49</ele>
  <time>2026-08-27T18:29:53Z</time>
  <course>110.81</course>
  <speed>0.03</speed>
  <fix>3d</fix>
</trkpt>
<trkpt lat="40.0728693" lon="-105.2309006">
  <ele>1595.56</ele>
  <time>2026-08-27T18:29:53Z</time>
  <course>343.45</course>
  <speed>0.0</speed>
  <fix>3d</fix>
</trkpt>
<trkpt lat="40.0728691" lon="-105.2309004">
  <ele>1595.49</ele>
  <time>2026-08-27T18:29:53Z</time>
  <course>115.77</course>
  <speed>0.02</speed>
  <fix>3d</fix>
</trkpt>
<trkpt lat="40.0728692" lon="-105.2309005">
  <ele>1595.56</ele>
  <time>2026-08-27T18:29:53Z</time>
  <course>343.87</course>
  <speed>0.0</speed>
  <fix>3d</fix>
</trkpt>
<trkpt lat="40.0728691" lon="-105.2309003">
  <ele>1595.49</ele>
  <time>2026-08-27T18:29:53Z</time>
  <course>121.48</course>
  <speed>0.02</speed>
  <fix>3d</fix>
</trkpt>
<trkpt lat="40.0728692" lon="-105.2309005">
  <ele>1595.56</ele>
  <time>2026-08-27T18:29:53Z</time>
  <course>344.75</course>
  <speed>0.0</speed>
  <fix>3d</fix>
</trkpt>
<trkpt lat="40.0728691" lon="-105.2309003">
  <ele>1595.49</ele>
  <time>2026-08-27T18:29:53Z</time>
  <course>126.47</course>
  <speed>0.02</speed>
  <fix>3d</fix>
</trkpt>
<trkpt lat="40.0728692" lon="-105.2309004">
  <ele>1595.56</ele>
  <time>2026-08-27T18:29:53Z</time>
  <course>345.93</course>
  <speed>0.0</speed>
  <fix>3d</fix>
</trkpt>
<trkpt lat="40.0728691" lon="-105.2309002">
  <ele>1595.49</ele>
  <time>2026-08-27T18:29:53Z</time>
  <course>130.17</course>
  <speed>0.02</speed>
  <fix>3d</fix>
</trkpt>
<trkpt lat="40.0728691" lon="-105.2309004">
  <ele>1595.56</ele>
  <time>2026-08-27T18:29:53Z</time>
  <course>347.35</course>
  <speed>0.0</speed>
  <fix>3d</fix>
</trkpt>
<trkpt lat="40.072869" lon="-105.2309001">
  <ele>1595.5</ele>
  <time>2026-08-27T18:29:53Z</time>
  <course>132.91</course>
  <speed>0.02</speed>
  <fix>3d</fix>
</trkpt>
<trkpt lat="40.0728691" lon="-105.2309003">
  <ele>1595.57</ele>
  <time>2026-08-27T18:29:53Z</time>
  <course>348.9</course>
  <speed>0.0</speed>
  <fix>3d</fix>
</trkpt>
<trkpt lat="40.072869" lon="-105.2309001">
  <ele>1595.5</ele>
  <time>2026-08-27T18:29:53Z</time>
  <course>134.31</course>
  <speed>0.03</speed>
  <fix>3d</fix>
</trkpt>
<trkpt lat="40.0728691" lon="-105.2309003">
  <ele>1595.57</ele>
  <time>2026-08-27T18:29:53Z</time>
  <course>350.42</course>
  <speed>0.0</speed>
  <fix>3d</fix>
</trkpt>
<trkpt lat="40.0728689" lon="-105.2309001">
  <ele>1595.5</ele>
  <time>2026-08-27T18:29:53Z</time>
  <course>133.79</course>
  <speed>0.03</speed>
  <fix>3d</fix>
</trkpt>
<trkpt lat="40.072869" lon="-105.2309002">
  <ele>1595.57</ele>
  <time>2026-08-27T18:29:53Z</time>
  <course>351.7</course>
  <speed>0.0</speed>
  <fix>3d</fix>
</trkpt>
<trkpt lat="40.0728688" lon="-105.2309">
  <ele>1595.5</ele>
  <time>2026-08-27T18:29:53Z</time>
  <course>132.22</course>
  <speed>0.03</speed>
  <fix>3d</fix>
</trkpt>
<trkpt lat="40.072869" lon="-105.2309002">
  <ele>1595.56</ele>
  <time>2026-08-27T18:29:53Z</time>
  <course>352.66</course>
  <speed>0.0</speed>
  <fix>3d</fix>
</trkpt>
<trkpt lat="40.0728688" lon="-105.2308999">
  <ele>1595.5</ele>
  <time>2026-08-27T18:29:53Z</time>
  <course>129.93</course>
  <speed>0.03</speed>
  <fix>3d</fix>
</trkpt>
<trkpt lat="40.0728689" lon="-105.2309001">
  <ele>1595.56</ele>
  <time>2026-08-27T18:29:53Z</time>
  <course>353.16</course>
  <speed>0.0</speed>
  <fix>3d</fix>
</trkpt>
<trkpt lat="40.0728688" lon="-105.2308999">
  <ele>1595.5</ele>
  <time>2026-08-27T18:29:53Z</time>
  <course>126.93</course>
  <speed>0.03</speed>
  <fix>3d</fix>
</trkpt>
<trkpt lat="40.0728689" lon="-105.2309">
  <ele>1595.57</ele>
  <time>2026-08-27T18:29:53Z</time>
  <course>353.22</course>
  <speed>0.0</speed>
  <fix>3d</fix>
</trkpt>
<trkpt lat="40.0728687" lon="-105.2308998">
  <ele>1595.49</ele>
  <time>2026-08-27T18:29:53Z</time>
  <course>123.33</course>
  <speed>0.03</speed>
  <fix>3d</fix>
</trkpt>
<trkpt lat="40.0728689" lon="-105.2309">
  <ele>1595.57</ele>
  <time>2026-08-27T18:29:53Z</time>
  <course>352.8</course>
  <speed>0.01</speed>
  <fix>3d</fix>
</trkpt>
<trkpt lat="40.0728687" lon="-105.2308997">
  <ele>1595.49</ele>
  <time>2026-08-27T18:29:53Z</time>
  <course>119.53</course>
  <speed>0.03</speed>
  <fix>3d</fix>
</trkpt>
<trkpt lat="40.0728688" lon="-105.2308999">
  <ele>1595.57</ele>
  <time>2026-08-27T18:29:53Z</time>
  <course>351.96</course>
  <speed>0.01</speed>
  <fix>3d</fix>
</trkpt>
<trkpt lat="40.0728687" lon="-105.2308996">
  <ele>1595.49</ele>
  <time>2026-08-27T18:29:53Z</time>
  <course>116.17</course>
  <speed>0.03</speed>
  <fix>3d</fix>
</trkpt>
<trkpt lat="40.0728688" lon="-105.2308998">
  <ele>1595.57</ele>
  <time>2026-08-27T18:29:53Z</time>
  <course>350.78</course>
  <speed>0.01</speed>
  <fix>3d</fix>
</trkpt>
<trkpt lat="40.0728687" lon="-105.2308996">
  <ele>1595.49</ele>
  <time>2026-08-27T18:29:53Z</time>
  <course>113.49</course>
  <speed>0.03</speed>
  <fix>3d</fix>
</trkpt>
<trkpt lat="40.0728688" lon="-105.2308997">
  <ele>1595.56</ele>
  <time>2026-08-27T18:29:53Z</time>
  <course>349.29</course>
  <speed>0.01</speed>
  <fix>3d</fix>
</trkpt>
<trkpt lat="40.0728687" lon="-105.2308995">
  <ele>1595.49</ele>
  <time>2026-08-27T18:29:53Z</time>
  <course>111.24</course>
  <speed>0.03</speed>
  <fix>3d</fix>
</trkpt>
<trkpt lat="40.0728688" lon="-105.2308996">
  <ele>1595.56</ele>
  <time>2026-08-27T18:29:53Z</time>
  <course>347.74</course>
  <speed>0.01</speed>
  <fix>3d</fix>
</trkpt>
<trkpt lat="40.0728686" lon="-105.2308994">
  <ele>1595.49</ele>
  <time>2026-08-27T18:29:53Z</time>
  <course>109.77</course>
  <speed>0.03</speed>
  <fix>3d</fix>
</trkpt>
<trkpt lat="40.0728687" lon="-105.2308996">
  <ele>1595.56</ele>
  <time>2026-08-27T18:29:53Z</time>
  <course>346.25</course>
  <speed>0.01</speed>
  <fix>3d</fix>
</trkpt>
<trkpt lat="40.0728686" lon="-105.2308993">
  <ele>1595.49</ele>
  <time>2026-08-27T18:29:53Z</time>
  <course>109.47</course>
  <speed>0.03</speed>
  <fix>3d</fix>
</trkpt>
<trkpt lat="40.0728687" lon="-105.2308995">
  <ele>1595.56</ele>
  <time>2026-08-27T18:29:53Z</time>
  <course>344.97</course>
  <speed>0.0</speed>
  <fix>3d</fix>
</trkpt>
<trkpt lat="40.0728686" lon="-105.2308992">
  <ele>1595.49</ele>
  <time>2026-08-27T18:29:53Z</time>
  <course>109.88</course>
  <speed>0.03</speed>
  <fix>3d</fix>
</trkpt>
<trkpt lat="40.0728687" lon="-105.2308994">
  <ele>1595.56</ele>
  <time>2026-08-27T18:29:53Z</time>
  <course>344.03</course>
  <speed>0.0</speed>
  <fix>3d</fix>
</trkpt>
<trkpt lat="40.0728686" lon="-105.2308992">
  <ele>1595.49</ele>
  <time>2026-08-27T18:29:53Z</time>
  <course>111.39</course>
  <speed>0.03</speed>
  <fix>3d</fix>
</trkpt>
<trkpt lat="40.0728687" lon="-105.2308993">
  <ele>1595.56</ele>
  <time>2026-08-27T18:29:53Z</time>
  <course>343.51</course>
  <speed>0.0</speed>
  <fix>3d</fix>
</trkpt>
<trkpt lat="40.0728686" lon="-105.2308991">
  <ele>1595.49</ele>
  <time>2026-08-27T18:29:53Z</time>
  <course>114.38</course>
  <speed>0.03</speed>
  <fix>3d</fix>
</trkpt>
<trkpt lat="40.0728686" lon="-105.2308993">
  <ele>1595.57</ele>
  <time>2026-08-27T18:29:53Z</time>
  <course>343.45</course>
  <speed>0.0</speed>
  <fix>3d</fix>
</trkpt>
<trkpt lat="40.0728685" lon="-105.230899">
  <ele>1595.49</ele>
  <time>2026-08-27T18:29:53Z</time>
  <course>118.64</course>
  <speed>0.03</speed>
  <fix>3d</fix>
</trkpt>
<trkpt lat="40.0728686" lon="-105.2308992">
  <ele>1595.57</ele>
  <time>2026-08-27T18:29:53Z</time>
  <course>343.91</course>
  <speed>0.0</speed>
  <fix>3d</fix>
</trkpt>
<trkpt lat="40.0728685" lon="-105.2308989">
  <ele>1595.49</ele>
  <time>2026-08-27T18:29:53Z</time>
  <course>123.57</course>
  <speed>0.02</speed>
  <fix>3d</fix>
</trkpt>
<trkpt lat="40.0728686" lon="-105.2308992">
  <ele>1595.58</ele>
  <time>2026-08-27T18:29:53Z</time>
  <course>344.79</course>
  <speed>0.0</speed>
  <fix>3d</fix>
</trkpt>
<trkpt lat="40.0728685" lon="-105.2308989">
  <ele>1595.49</ele>
  <time>2026-08-27T18:29:53Z</time>
  <course>127.61</course>
  <speed>0.02</speed>
  <fix>3d</fix>
</trkpt>
<trkpt lat="40.0728686" lon="-105.2308991">
  <ele>1595.57</ele>
  <time>2026-08-27T18:29:53Z</time>
  <course>346.01</course>
  <speed>0.0</speed>
  <fix>3d</fix>
</trkpt>
<trkpt lat="40.0728684" lon="-105.2308989">
  <ele>1595.48</ele>
  <time>2026-08-27T18:29:53Z</time>
  <course>130.51</course>
  <speed>0.02</speed>
  <fix>3d</fix>
</trkpt>
<trkpt lat="40.0728685" lon="-105.2308991">
  <ele>1595.57</ele>
  <time>2026-08-27T18:29:53Z</time>
  <course>347.44</course>
  <speed>0.0</speed>
  <fix>3d</fix>
</trkpt>
<trkpt lat="40.0728684" lon="-105.2308988">
  <ele>1595.48</ele>
  <time>2026-08-27T18:29:53Z</time>
  <course>131.87</course>
  <speed>0.03</speed>
  <fix>3d</fix>
</trkpt>
<trkpt lat="40.0728685" lon="-105.230899">
  <ele>1595.57</ele>
  <time>2026-08-27T18:29:54Z</time>
  <course>348.96</course>
  <speed>0.0</speed>
  <fix>3d</fix>
</trkpt>
<trkpt lat="40.0728684" lon="-105.2308987">
  <ele>1595.48</ele>
  <time>2026-08-27T18:29:54Z</time>
  <course>131.52</course>
  <speed>0.03</speed>
  <fix>3d</fix>
</trkpt>
<trkpt lat="40.0728684" lon="-105.2308989">
  <ele>1595.56</ele>
  <time>2026-08-27T18:29:54Z</time>
  <course>350.43</course>
  <speed>0.0</speed>
  <fix>3d</fix>
</trkpt>
<trkpt lat="40.0728683" lon="-105.2308987">
  <ele>1595.47</ele>
  <time>2026-08-27T18:29:54Z</time>
  <course>129.81</course>
  <speed>0.03</speed>
  <fix>3d</fix>
</trkpt>
<trkpt lat="40.0728684" lon="-105.2308989">
  <ele>1595.56</ele>
  <time>2026-08-27T18:29:54Z</time>
  <course>351.71</course>
  <speed>0.0</speed>
  <fix>3d</fix>
</trkpt>
<trkpt lat="40.0728682" lon="-105.2308986">
  <ele>1595.47</ele>
  <time>2026-08-27T18:29:54Z</time>
  <course>127.11</course>
  <speed>0.03</speed>
  <fix>3d</fix>
</trkpt>
<trkpt lat="40.0728684" lon="-105.2308988">
  <ele>1595.56</ele>
  <time>2026-08-27T18:29:54Z</time>
  <course>352.64</course>
  <speed>0.0</speed>
  <fix>3d</fix>
</trkpt>
<trkpt lat="40.0728682" lon="-105.2308985">
  <ele>1595.47</ele>
  <time>2026-08-27T18:29:54Z</time>
  <course>124.47</course>
  <speed>0.03</speed>
  <fix>3d</fix>
</trkpt>
<trkpt lat="40.0728683" lon="-105.2308987">
  <ele>1595.57</ele>
  <time>2026-08-27T18:29:54Z</time>
  <course>353.16</course>
  <speed>0.0</speed>
  <fix>3d</fix>
</trkpt>
<trkpt lat="40.0728682" lon="-105.2308985">
  <ele>1595.47</ele>
  <time>2026-08-27T18:29:54Z</time>
  <course>121.46</course>
  <speed>0.03</speed>
  <fix>3d</fix>
</trkpt>
<trkpt lat="40.0728683" lon="-105.2308987">
  <ele>1595.57</ele>
  <time>2026-08-27T18:29:54Z</time>
  <course>353.23</course>
  <speed>0.01</speed>
  <fix>3d</fix>
</trkpt>
<trkpt lat="40.0728681" lon="-105.2308984">
  <ele>1595.47</ele>
  <time>2026-08-27T18:29:54Z</time>
  <course>118.07</course>
  <speed>0.03</speed>
  <fix>3d</fix>
</trkpt>
<trkpt lat="40.0728683" lon="-105.2308986">
  <ele>1595.57</ele>
  <time>2026-08-27T18:29:54Z</time>
  <course>352.83</course>
  <speed>0.01</speed>
  <fix>3d</fix>
</trkpt>
<trkpt lat="40.0728681" lon="-105.2308984">
  <ele>1595.47</ele>
  <time>2026-08-27T18:29:54Z</time>
  <course>114.54</course>
  <speed>0.03</speed>
  <fix>3d</fix>
</trkpt>
<trkpt lat="40.0728682" lon="-105.2308985">
  <ele>1595.57</ele>
  <time>2026-08-27T18:29:54Z</time>
  <course>351.97</course>
  <speed>0.01</speed>
  <fix>3d</fix>
</trkpt>
<trkpt lat="40.0728681" lon="-105.2308983">
  <ele>1595.46</ele>
  <time>2026-08-27T18:29:54Z</time>
  <course>110.59</course>
  <speed>0.03</speed>
  <fix>3d</fix>
</trkpt>
<trkpt lat="40.0728682" lon="-105.2308984">
  <ele>1595.57</ele>
  <time>2026-08-27T18:29:54Z</time>
  <course>350.77</course>
  <speed>0.01</speed>
  <fix>3d</fix>
</trkpt>
<trkpt lat="40.0728681" lon="-105.2308982">
  <ele>1595.46</ele>
  <time>2026-08-27T18:29:54Z</time>
  <course>106.99</course>
  <speed>0.03</speed>
  <fix>3d</fix>
</trkpt>
<trkpt lat="40.0728682" lon="-105.2308983">
  <ele>1595.56</ele>
  <time>2026-08-27T18:29:54Z</time>
  <course>349.33</course>
  <speed>0.01</speed>
  <fix>3d</fix>
</trkpt>
<trkpt lat="40.0728681" lon="-105.2308981">
  <ele>1595.46</ele>
  <time>2026-08-27T18:29:54Z</time>
  <course>104.35</course>
  <speed>0.03</speed>
  <fix>3d</fix>
</trkpt>
<trkpt lat="40.0728682" lon="-105.2308982">
  <ele>1595.56</ele>
  <time>2026-08-27T18:29:54Z</time>
  <course>347.76</course>
  <speed>0.01</speed>
  <fix>3d</fix>
</trkpt>
<trkpt lat="40.0728681" lon="-105.230898">
  <ele>1595.46</ele>
  <time>2026-08-27T18:29:54Z</time>
  <course>103.29</course>
  <speed>0.03</speed>
  <fix>3d</fix>
</trkpt>
<trkpt lat="40.0728682" lon="-105.2308982">
  <ele>1595.56</ele>
  <time>2026-08-27T18:29:54Z</time>
  <course>346.3</course>
  <speed>0.01</speed>
  <fix>3d</fix>
</trkpt>
<trkpt lat="40.0728681" lon="-105.2308979">
  <ele>1595.45</ele>
  <time>2026-08-27T18:29:54Z</time>
  <course>104.01</course>
  <speed>0.03</speed>
  <fix>3d</fix>
</trkpt>
<trkpt lat="40.0728682" lon="-105.2308981">
  <ele>1595.56</ele>
  <time>2026-08-27T18:29:54Z</time>
  <course>345.01</course>
  <speed>0.0</speed>
  <fix>3d</fix>
</trkpt>
<trkpt lat="40.0728681" lon="-105.2308979">
  <ele>1595.45</ele>
  <time>2026-08-27T18:29:54Z</time>
  <course>105.53</course>
  <speed>0.03</speed>
  <fix>3d</fix>
</trkpt>
<trkpt lat="40.0728681" lon="-105.230898">
  <ele>1595.56</ele>
  <time>2026-08-27T18:29:54Z</time>
  <course>344.02</course>
  <speed>0.0</speed>
  <fix>3d</fix>
</trkpt>
<trkpt lat="40.072868" lon="-105.2308978">
  <ele>1595.45</ele>
  <time>2026-08-27T18:29:54Z</time>
  <course>108.07</course>
  <speed>0.03</speed>
  <fix>3d</fix>
</trkpt>
<trkpt lat="40.0728681" lon="-105.230898">
  <ele>1595.55</ele>
  <time>2026-08-27T18:29:54Z</time>
  <course>343.5</course>
  <speed>0.0</speed>
  <fix>3d</fix>
</trkpt>
<trkpt lat="40.072868" lon="-105.2308977">
  <ele>1595.45</ele>
  <time>2026-08-27T18:29:54Z</time>
  <course>112.41</course>
  <speed>0.03</speed>
  <fix>3d</fix>
</trkpt>
<trkpt lat="40.0728681" lon="-105.2308979">
  <ele>1595.55</ele>
  <time>2026-08-27T18:29:54Z</time>
  <course>343.41</course>
  <speed>0.0</speed>
  <fix>3d</fix>
</trkpt>
<trkpt lat="40.072868" lon="-105.2308977">
  <ele>1595.45</ele>
  <time>2026-08-27T18:29:54Z</time>
  <course>117.37</course>
  <speed>0.03</speed>
  <fix>3d</fix>
</trkpt>
<trkpt lat="40.0728681" lon="-105.2308978">
  <ele>1595.55</ele>
  <time>2026-08-27T18:29:54Z</time>
  <course>343.43</course>
  <speed>0.0</speed>
  <fix>3d</fix>
</trkpt>
<trkpt lat="40.072868" lon="-105.2308976">
  <ele>1595.45</ele>
  <time>2026-08-27T18:29:54Z</time>
  <course>120.57</course>
  <speed>0.03</speed>
  <fix>3d</fix>
</trkpt>
<trkpt lat="40.0728681" lon="-105.2308978">
  <ele>1595.55</ele>
  <time>2026-08-27T18:29:54Z</time>
  <course>343.43</course>
  <speed>0.0</speed>
  <fix>3d</fix>
</trkpt>
<trkpt lat="40.0728679" lon="-105.2308975">
  <ele>1595.45</ele>
  <time>2026-08-27T18:29:54Z</time>
  <course>121.8</course>
  <speed>0.03</speed>
  <fix>3d</fix>
</trkpt>
<trkpt lat="40.072868" lon="-105.2308977">
  <ele>1595.55</ele>
  <time>2026-08-27T18:29:54Z</time>
  <course>343.44</course>
  <speed>0.0</speed>
  <fix>3d</fix>
</trkpt>
<trkpt lat="40.0728679" lon="-105.2308975">
  <ele>1595.45</ele>
  <time>2026-08-27T18:29:54Z</time>
  <course>121.7</course>
  <speed>0.03</speed>
  <fix>3d</fix>
</trkpt>
<trkpt lat="40.072868" lon="-105.2308976">
  <ele>1595.55</ele>
  <time>2026-08-27T18:29:54Z</time>
  <course>343.44</course>
  <speed>0.0</speed>
  <fix>3d</fix>
</trkpt>
<trkpt lat="40.0728679" lon="-105.2308974">
  <ele>1595.46</ele>
  <time>2026-08-27T18:29:54Z</time>
  <course>121.15</course>
  <speed>0.03</speed>
  <fix>3d</fix>
</trkpt>
<trkpt lat="40.072868" lon="-105.2308976">
  <ele>1595.55</ele>
  <time>2026-08-27T18:29:54Z</time>
  <course>343.44</course>
  <speed>0.0</speed>
  <fix>3d</fix>
</trkpt>
<trkpt lat="40.0728678" lon="-105.2308973">
  <ele>1595.46</ele>
  <time>2026-08-27T18:29:54Z</time>
  <course>121.01</course>
  <speed>0.03</speed>
  <fix>3d</fix>
</trkpt>
<trkpt lat="40.0728679" lon="-105.2308975">
  <ele>1595.55</ele>
  <time>2026-08-27T18:29:54Z</time>
  <course>343.45</course>
  <speed>0.0</speed>
  <fix>3d</fix>
</trkpt>
<trkpt lat="40.0728678" lon="-105.2308972">
  <ele>1595.46</ele>
  <time>2026-08-27T18:29:54Z</time>
  <course>121.01</course>
  <speed>0.03</speed>
  <fix>3d</fix>
</trkpt>
<trkpt lat="40.0728679" lon="-105.2308974">
  <ele>1595.55</ele>
  <time>2026-08-27T18:29:54Z</time>
  <course>343.44</course>
  <speed>0.0</speed>
  <fix>3d</fix>
</trkpt>
<trkpt lat="40.0728678" lon="-105.2308972">
  <ele>1595.46</ele>
  <time>2026-08-27T18:29:54Z</time>
  <course>121.23</course>
  <speed>0.03</speed>
  <fix>3d</fix>
</trkpt>
<trkpt lat="40.0728678" lon="-105.2308973">
  <ele>1595.55</ele>
  <time>2026-08-27T18:29:54Z</time>
  <course>343.43</course>
  <speed>0.01</speed>
  <fix>3d</fix>
</trkpt>
<trkpt lat="40.0728677" lon="-105.2308971">
  <ele>1595.46</ele>
  <time>2026-08-27T18:29:54Z</time>
  <course>121.01</course>
  <speed>0.03</speed>
  <fix>3d</fix>
</trkpt>
<trkpt lat="40.0728678" lon="-105.2308972">
  <ele>1595.56</ele>
  <time>2026-08-27T18:29:54Z</time>
  <course>343.43</course>
  <speed>0.01</speed>
  <fix>3d</fix>
</trkpt>
<trkpt lat="40.0728676" lon="-105.230897">
  <ele>1595.46</ele>
  <time>2026-08-27T18:29:54Z</time>
  <course>120.77</course>
  <speed>0.04</speed>
  <fix>3d</fix>
</trkpt>
<trkpt lat="40.0728678" lon="-105.2308972">
  <ele>1595.56</ele>
  <time>2026-08-27T18:29:54Z</time>
  <course>343.44</course>
  <speed>0.01</speed>
  <fix>3d</fix>
</trkpt>
<trkpt lat="40.0728676" lon="-105.2308969">
  <ele>1595.47</ele>
  <time>2026-08-27T18:29:54Z</time>
  <course>120.92</course>
  <speed>0.04</speed>
  <fix>3d</fix>
</trkpt>
<trkpt lat="40.0728677" lon="-105.2308971">
  <ele>1595.56</ele>
  <time>2026-08-27T18:29:54Z</time>
  <course>343.45</course>
  <speed>0.01414213562373095</speed>
  <fix>3d</fix>
</trkpt>
<trkpt lat="40.0728676" lon="-105.2308968">
  <ele>1595.47</ele>
  <time>2026-08-27T18:29:54Z</time>
  <course>120.8</course>
  <speed>0.04</speed>
  <fix>3d</fix>
</trkpt>
<trkpt lat="40.0728677" lon="-105.230897">
  <ele>1595.57</ele>
  <time>2026-08-27T18:29:54Z</time>
  <course>343.45</course>
  <speed>0.01414213562373095</speed>
  <fix>3d</fix>
</trkpt>
<trkpt lat="40.0728675" lon="-105.2308967">
  <ele>1595.47</ele>
  <time>2026-08-27T18:29:54Z</time>
  <course>120.41</course>
  <speed>0.04</speed>
  <fix>3d</fix>
</trkpt>
<trkpt lat="40.0728676" lon="-105.2308969">
  <ele>1595.57</ele>
  <time>2026-08-27T18:29:54Z</time>
  <course>343.46</course>
  <speed>0.01414213562373095</speed>
  <fix>3d</fix>
</trkpt>
<trkpt lat="40.0728675" lon="-105.2308966">
  <ele>1595.47</ele>
  <time>2026-08-27T18:29:54Z</time>
  <course>120.24</course>
  <speed>0.04</speed>
  <fix>3d</fix>
</trkpt>
<trkpt lat="40.0728676" lon="-105.2308968">
  <ele>1595.57</ele>
  <time>2026-08-27T18:29:54Z</time>
  <course>343.46</course>
  <speed>0.01414213562373095</speed>
  <fix>3d</fix>
</trkpt>
<trkpt lat="40.0728675" lon="-105.2308966">
  <ele>1595.47</ele>
  <time>2026-08-27T18:29:54Z</time>
  <course>120.09</course>
  <speed>0.04</speed>
  <fix>3d</fix>
</trkpt>
<trkpt lat="40.0728675" lon="-105.2308967">
  <ele>1595.56</ele>
  <time>2026-08-27T18:29:54Z</time>
  <course>343.45</course>
  <speed>0.01414213562373095</speed>
  <fix>3d</fix>
</trkpt>
<trkpt lat="40.0728675" lon="-105.2308965">
  <ele>1595.47</ele>
  <time>2026-08-27T18:29:54Z</time>
  <course>119.78</course>
  <speed>0.04</speed>
  <fix>3d</fix>
</trkpt>
<trkpt lat="40.0728675" lon="-105.2308966">
  <ele>1595.56</ele>
  <time>2026-08-27T18:29:54Z</time>
  <course>343.44</course>
  <speed>0.01414213562373095</speed>
  <fix>3d</fix>
</trkpt>
<trkpt lat="40.0728674" lon="-105.2308964">
  <ele>1595.47</ele>
  <time>2026-08-27T18:29:54Z</time>
  <course>119.36</course>
  <speed>0.04</speed>
  <fix>3d</fix>
</trkpt>
<trkpt lat="40.0728675" lon="-105.2308965">
  <ele>1595.56</ele>
  <time>2026-08-27T18:29:54Z</time>
  <course>343.18</course>
  <speed>0.022360679774997897</speed>
  <fix>3d</fix>
</trkpt>
<trkpt lat="40.0728674" lon="-105.2308963">
  <ele>1595.46</ele>
  <time>2026-08-27T18:29:54Z</time>
  <course>118.21</course>
  <speed>0.04</speed>
  <fix>3d</fix>
</trkpt>
<trkpt lat="40.0728674" lon="-105.2308964">
  <ele>1595.56</ele>
  <time>2026-08-27T18:29:54Z</time>
  <course>342.01</course>
  <speed>0.02</speed>
  <fix>3d</fix>
</trkpt>
<trkpt lat="40.0728673" lon="-105.2308962">
  <ele>1595.46</ele>
  <time>2026-08-27T18:29:54Z</time>
  <course>115.94</course>
  <speed>0.04</speed>
  <fix>3d</fix>
</trkpt>
<trkpt lat="40.0728674" lon="-105.2308963">
  <ele>1595.56</ele>
  <time>2026-08-27T18:29:54Z</time>
  <course>340.65</course>
  <speed>0.01</speed>
  <fix>3d</fix>
</trkpt>
<trkpt lat="40.0728673" lon="-105.2308961">
  <ele>1595.46</ele>
  <time>2026-08-27T18:29:54Z</time>
  <course>114.25</course>
  <speed>0.04</speed>
  <fix>3d</fix>
</trkpt>
<trkpt lat="40.0728674" lon="-105.2308962">
  <ele>1595.56</ele>
  <time>2026-08-27T18:29:54Z</time>
  <course>339.53</course>
  <speed>0.01</speed>
  <fix>3d</fix>
</trkpt>
<trkpt lat="40.0728673" lon="-105.230896">
  <ele>1595.46</ele>
  <time>2026-08-27T18:29:54Z</time>
  <course>114.12</course>
  <speed>0.04</speed>
  <fix>3d</fix>
</trkpt>
<trkpt lat="40.0728673" lon="-105.2308961">
  <ele>1595.56</ele>
  <time>2026-08-27T18:29:54Z</time>
  <course>338.82</course>
  <speed>0.01</speed>
  <fix>3d</fix>
</trkpt>
<trkpt lat="40.0728672" lon="-105.2308959">
  <ele>1595.46</ele>
  <time>2026-08-27T18:29:54Z</time>
  <course>114.88</course>
  <speed>0.04</speed>
  <fix>3d</fix>
</trkpt>
<trkpt lat="40.0728673" lon="-105.230896">
  <ele>1595.56</ele>
  <time>2026-08-27T18:29:54Z</time>
  <course>338.54</course>
  <speed>0.0</speed>
  <fix>3d</fix>
</trkpt>
<trkpt lat="40.0728672" lon="-105.2308958">
  <ele>1595.46</ele>
  <time>2026-08-27T18:29:54Z</time>
  <course>116.32</course>
  <speed>0.04</speed>
  <fix>3d</fix>
</trkpt>
<trkpt lat="40.0728673" lon="-105.230896">
  <ele>1595.56</ele>
  <time>2026-08-27T18:29:54Z</time>
  <course>338.71</course>
  <speed>0.0</speed>
  <fix>3d</fix>
</trkpt>
<trkpt lat="40.0728672" lon="-105.2308957">
  <ele>1595.46</ele>
  <time>2026-08-27T18:29:54Z</time>
  <course>118.44</course>
  <speed>0.03</speed>
  <fix>3d</fix>
</trkpt>
<trkpt lat="40.0728672" lon="-105.2308959">
  <ele>1595.55</ele>
  <time>2026-08-27T18:29:54Z</time>
  <course>339.37</course>
  <speed>0.0</speed>
  <fix>3d</fix>
</trkpt>
<trkpt lat="40.0728671" lon="-105.2308956">
  <ele>1595.46</ele>
  <time>2026-08-27T18:29:54Z</time>
  <course>121.31</course>
  <speed>0.03</speed>
  <fix>3d</fix>
</trkpt>
<trkpt lat="40.0728672" lon="-105.2308958">
  <ele>1595.55</ele>
  <time>2026-08-27T18:29:54Z</time>
  <course>340.46</course>
  <speed>0.0</speed>
  <fix>3d</fix>
</trkpt>
<trkpt lat="40.072867" lon="-105.2308956">
  <ele>1595.46</ele>
  <time>2026-08-27T18:29:54Z</time>
  <course>124.49</course>
  <speed>0.03</speed>
  <fix>3d</fix>
</trkpt>
<trkpt lat="40.0728672" lon="-105.2308958">
  <ele>1595.55</ele>
  <time>2026-08-27T18:29:54Z</time>
  <course>341.81</course>
  <speed>0.0</speed>
  <fix>3d</fix>
</trkpt>
<trkpt lat="40.072867" lon="-105.2308955">
  <ele>1595.46</ele>
  <time>2026-08-27T18:29:54Z</time>
  <course>126.96</course>
  <speed>0.03</speed>
  <fix>3d</fix>
</trkpt>
<trkpt lat="40.0728671" lon="-105.2308957">
  <ele>1595.55</ele>
  <time>2026-08-27T18:29:54Z</time>
  <course>343.3</course>
  <speed>0.0</speed>
  <fix>3d</fix>
</trkpt>
<trkpt lat="40.072867" lon="-105.2308954">
  <ele>1595.47</ele>
  <time>2026-08-27T18:29:54Z</time>
  <course>128.73</course>
  <speed>0.03</speed>
  <fix>3d</fix>
</trkpt>
<trkpt lat="40.0728671" lon="-105.2308957">
  <ele>1595.55</ele>
  <time>2026-08-27T18:29:54Z</time>
  <course>344.83</course>
  <speed>0.0</speed>
  <fix>3d</fix>
</trkpt>
<trkpt lat="40.0728669" lon="-105.2308954">
  <ele>1595.47</ele>
  <time>2026-08-27T18:29:54Z</time>
  <course>129.34</course>
  <speed>0.03</speed>
  <fix>3d</fix>
</trkpt>
<trkpt lat="40.072867" lon="-105.2308956">
  <ele>1595.55</ele>
  <time>2026-08-27T18:29:54Z</time>
  <course>346.22</course>
  <speed>0.0</speed>
  <fix>3d</fix>
</trkpt>
<trkpt lat="40.0728669" lon="-105.2308953">
  <ele>1595.47</ele>
  <time>2026-08-27T18:29:54Z</time>
  <course>128.03</course>
  <speed>0.03</speed>
  <fix>3d</fix>
</trkpt>
<trkpt lat="40.072867" lon="-105.2308955">
  <ele>1595.56</ele>
  <time>2026-08-27T18:29:54Z</time>
  <course>347.34</course>
  <speed>0.0</speed>
  <fix>3d</fix>
</trkpt>
<trkpt lat="40.0728669" lon="-105.2308953">
  <ele>1595.47</ele>
  <time>2026-08-27T18:29:54Z</time>
  <course>125.62</course>
  <speed>0.03</speed>
  <fix>3d</fix>
</trkpt>
<trkpt lat="40.072867" lon="-105.2308955">
  <ele>1595.55</ele>
  <time>2026-08-27T18:29:54Z</time>
  <course>348.07</course>
  <speed>0.0</speed>
  <fix>3d</fix>
</trkpt>
<trkpt lat="40.0728669" lon="-105.2308952">
  <ele>1595.47</ele>
  <time>2026-08-27T18:29:54Z</time>
  <course>122.12</course>
  <speed>0.03</speed>
  <fix>3d</fix>
</trkpt>
<trkpt lat="40.0728669" lon="-105.2308954">
  <ele>1595.55</ele>
  <time>2026-08-27T18:29:54Z</time>
  <course>348.35</course>
  <speed>0.0</speed>
  <fix>3d</fix>
</trkpt>
<trkpt lat="40.0728669" lon="-105.2308951">
  <ele>1595.47</ele>
  <time>2026-08-27T18:29:54Z</time>
  <course>117.76</course>
  <speed>0.03</speed>
  <fix>3d</fix>
</trkpt>
<trkpt lat="40.0728669" lon="-105.2308953">
  <ele>1595.55</ele>
  <time>2026-08-27T18:29:54Z</time>
  <course>348.15</course>
  <speed>0.01</speed>
  <fix>3d</fix>
</trkpt>
<trkpt lat="40.0728668" lon="-105.2308951">
  <ele>1595.48</ele>
  <time>2026-08-27T18:29:54Z</time>
  <course>113.8</course>
  <speed>0.03</speed>
  <fix>3d</fix>
</trkpt>
<trkpt lat="40.0728669" lon="-105.2308952">
  <ele>1595.55</ele>
  <time>2026-08-27T18:29:54Z</time>
  <course>347.45</course>
  <speed>0.01</speed>
  <fix>3d</fix>
</trkpt>
<trkpt lat="40.0728668" lon="-105.230895">
  <ele>1595.48</ele>
  <time>2026-08-27T18:29:54Z</time>
  <course>111.06</course>
  <speed>0.03</speed>
  <fix>3d</fix>
</trkpt>
<trkpt lat="40.0728669" lon="-105.2308951">
  <ele>1595.55</ele>
  <time>2026-08-27T18:29:54Z</time>
  <course>346.4</course>
  <speed>0.01</speed>
  <fix>3d</fix>
</trkpt>
<trkpt lat="40.0728668" lon="-105.2308949">
  <ele>1595.48</ele>
  <time>2026-08-27T18:29:54Z</time>
  <course>108.75</course>
  <speed>0.03</speed>
  <fix>3d</fix>
</trkpt>
<trkpt lat="40.0728669" lon="-105.2308951">
  <ele>1595.55</ele>
  <time>2026-08-27T18:29:54Z</time>
  <course>345.03</course>
  <speed>0.01</speed>
  <fix>3d</fix>
</trkpt>
<trkpt lat="40.0728668" lon="-105.2308948">
  <ele>1595.48</ele>
  <time>2026-08-27T18:29:54Z</time>
  <course>106.5</course>
  <speed>0.03</speed>
  <fix>3d</fix>
</trkpt>
<trkpt lat="40.0728669" lon="-105.230895">
  <ele>1595.55</ele>
  <time>2026-08-27T18:29:54Z</time>
  <course>343.54</course>
  <speed>0.01</speed>
  <fix>3d</fix>
</trkpt>
<trkpt lat="40.0728668" lon="-105.2308947">
  <ele>1595.49</ele>
  <time>2026-08-27T18:29:54Z</time>
  <course>105.3</course>
  <speed>0.03</speed>
  <fix>3d</fix>
</trkpt>
<trkpt lat="40.0728668" lon="-105.2308949">
  <ele>1595.56</ele>
  <time>2026-08-27T18:29:54Z</time>
  <course>342.05</course>
  <speed>0.0</speed>
  <fix>3d</fix>
</trkpt>
<trkpt lat="40.0728667" lon="-105.2308946">
  <ele>1595.49</ele>
  <time>2026-08-27T18:29:54Z</time>
  <course>105.34</course>
  <speed>0.03</speed>
  <fix>3d</fix>
</trkpt>
<trkpt lat="40.0728668" lon="-105.2308948">
  <ele>1595.56</ele>
  <time>2026-08-27T18:29:54Z</time>
  <course>340.68</course>
  <speed>0.0</speed>
  <fix>3d</fix>
</trkpt>
<trkpt lat="40.0728667" lon="-105.2308946">
  <ele>1595.49</ele>
  <time>2026-08-27T18:29:54Z</time>
  <course>105.93</course>
  <speed>0.03</speed>
  <fix>3d</fix>
</trkpt>
<trkpt lat="40.0728668" lon="-105.2308947">
  <ele>1595.56</ele>
  <time>2026-08-27T18:29:54Z</time>
  <course>339.54</course>
  <speed>0.0</speed>
  <fix>3d</fix>
</trkpt>
<trkpt lat="40.0728667" lon="-105.2308945">
  <ele>1595.49</ele>
  <time>2026-08-27T18:29:54Z</time>
  <course>107.54</course>
  <speed>0.03</speed>
  <fix>3d</fix>
</trkpt>
<trkpt lat="40.0728668" lon="-105.2308947">
  <ele>1595.56</ele>
  <time>2026-08-27T18:29:54Z</time>
  <course>338.81</course>
  <speed>0.0</speed>
  <fix>3d</fix>
</trkpt>
<trkpt lat="40.0728667" lon="-105.2308944">
  <ele>1595.5</ele>
  <time>2026-08-27T18:29:54Z</time>
  <course>110.88</course>
  <speed>0.03</speed>
  <fix>3d</fix>
</trkpt>
<trkpt lat="40.0728668" lon="-105.2308946">
  <ele>1595.56</ele>
  <time>2026-08-27T18:29:54Z</time>
  <course>338.53</course>
  <speed>0.0</speed>
  <fix>3d</fix>
</trkpt>
<trkpt lat="40.0728667" lon="-105.2308944">
  <ele>1595.5</ele>
  <time>2026-08-27T18:29:54Z</time>
  <course>115.47</course>
  <speed>0.03</speed>
  <fix>3d</fix>
</trkpt>
<trkpt lat="40.0728667" lon="-105.2308946">
  <ele>1595.56</ele>
  <time>2026-08-27T18:29:54Z</time>
  <course>338.72</course>
  <speed>0.0</speed>
  <fix>3d</fix>
</trkpt>
<trkpt lat="40.0728666" lon="-105.2308943">
  <ele>1595.5</ele>
  <time>2026-08-27T18:29:54Z</time>
  <course>120.66</course>
  <speed>0.02</speed>
  <fix>3d</fix>
</trkpt>
<trkpt lat="40.0728667" lon="-105.2308945">
  <ele>1595.56</ele>
  <time>2026-08-27T18:29:54Z</time>
  <course>339.38</course>
  <speed>0.0</speed>
  <fix>3d</fix>
</trkpt>
<trkpt lat="40.0728666" lon="-105.2308942">
  <ele>1595.5</ele>
  <time>2026-08-27T18:29:54Z</time>
  <course>125.23</course>
  <speed>0.02</speed>
  <fix>3d</fix>
</trkpt>
<trkpt lat="40.0728667" lon="-105.2308944">
  <ele>1595.57</ele>
  <time>2026-08-27T18:29:54Z</time>
  <course>340.47</course>
  <speed>0.0</speed>
  <fix>3d</fix>
</trkpt>
<trkpt lat="40.0728666" lon="-105.2308942">
  <ele>1595.5</ele>
  <time>2026-08-27T18:29:54Z</time>
  <course>128.66</course>
  <speed>0.02</speed>
  <fix>3d</fix>
</trkpt>
<trkpt lat="40.0728666" lon="-105.2308944">
  <ele>1595.57</ele>
  <time>2026-08-27T18:29:54Z</time>
  <course>341.84</course>
  <speed>0.0</speed>
  <fix>3d</fix>
</trkpt>
<trkpt lat="40.0728665" lon="-105.2308942">
  <ele>1595.5</ele>
  <time>2026-08-27T18:29:54Z</time>
  <course>131.46</course>
  <speed>0.02</speed>
  <fix>3d</fix>
</trkpt>
<trkpt lat="40.0728666" lon="-105.2308943">
  <ele>1595.57</ele>
  <time>2026-08-27T18:29:54Z</time>
  <course>343.35</course>
  <speed>0.01</speed>
  <fix>3d</fix>
</trkpt>
<trkpt lat="40.0728664" lon="-105.2308941">
  <ele>1595.5</ele>
  <time>2026-08-27T18:29:54Z</time>
  <course>133.51</course>
  <speed>0.03</speed>
  <fix>3d</fix>
</trkpt>
<trkpt lat="40.0728666" lon="-105.2308943">
  <ele>1595.57</ele>
  <time>2026-08-27T18:29:54Z</time>
  <course>344.85</course>
  <speed>0.01</speed>
  <fix>3d</fix>
</trkpt>
<trkpt lat="40.0728664" lon="-105.230894">
  <ele>1595.5</ele>
  <time>2026-08-27T18:29:54Z</time>
  <course>134.48</course>
  <speed>0.03</speed>
  <fix>3d</fix>
</trkpt>
<trkpt lat="40.0728665" lon="-105.2308942">
  <ele>1595.57</ele>
  <time>2026-08-27T18:29:54Z</time>
  <course>346.25</course>
  <speed>0.01</speed>
  <fix>3d</fix>
</trkpt>
<trkpt lat="40.0728664" lon="-105.2308939">
  <ele>1595.5</ele>
  <time>2026-08-27T18:29:54Z</time>
  <course>133.68</course>
  <speed>0.03</speed>
  <fix>3d</fix>
</trkpt>
<trkpt lat="40.0728665" lon="-105.2308942">
  <ele>1595.57</ele>
  <time>2026-08-27T18:29:54Z</time>
  <course>347.36</course>
  <speed>0.01</speed>
  <fix>3d</fix>
</trkpt>
<trkpt lat="40.0728663" lon="-105.2308939">
  <ele>1595.5</ele>
  <time>2026-08-27T18:29:54Z</time>
  <course>130.75</course>
  <speed>0.03</speed>
  <fix>3d</fix>
</trkpt>
<trkpt lat="40.0728664" lon="-105.2308941">
  <ele>1595.56</ele>
  <time>2026-08-27T18:29:54Z</time>
  <course>348.1</course>
  <speed>0.0</speed>
  <fix>3d</fix>
</trkpt>
<trkpt lat="40.0728663" lon="-105.2308939">
  <ele>1595.49</ele>
  <time>2026-08-27T18:29:54Z</time>
  <course>126.71</course>
  <speed>0.03</speed>
  <fix>3d</fix>
</trkpt>
<trkpt lat="40.0728664" lon="-105.230894">
  <ele>1595.56</ele>
  <time>2026-08-27T18:29:54Z</time>
  <course>348.37</course>
  <speed>0.0</speed>
  <fix>3d</fix>
</trkpt>
<trkpt lat="40.0728663" lon="-105.2308938">
  <ele>1595.49</ele>
  <time>2026-08-27T18:29:54Z</time>
  <course>122.37</course>
  <speed>0.03</speed>
  <fix>3d</fix>
</trkpt>
<trkpt lat="40.0728664" lon="-105.2308939">
  <ele>1595.56</ele>
  <time>2026-08-27T18:29:54Z</time>
  <course>348.17</course>
  <speed>0.01</speed>
  <fix>3d</fix>
</trkpt>
<trkpt lat="40.0728663" lon="-105.2308937">
  <ele>1595.49</ele>
  <time>2026-08-27T18:29:54Z</time>
  <course>118.18</course>
  <speed>0.03</speed>
  <fix>3d</fix>
</trkpt>
<trkpt lat="40.0728663" lon="-105.2308939">
  <ele>1595.56</ele>
  <time>2026-08-27T18:29:54Z</time>
  <course>347.51</course>
  <speed>0.01</speed>
  <fix>3d</fix>
</trkpt>
<trkpt lat="40.0728662" lon="-105.2308936">
  <ele>1595.49</ele>
  <time>2026-08-27T18:29:54Z</time>
  <course>114.67</course>
  <speed>0.03</speed>
  <fix>3d</fix>
</trkpt>
<trkpt lat="40.0728663" lon="-105.2308938">
  <ele>1595.56</ele>
  <time>2026-08-27T18:29:54Z</time>
  <course>346.42</course>
  <speed>0.01</speed>
  <fix>3d</fix>
</trkpt>
<trkpt lat="40.0728662" lon="-105.2308935">
  <ele>1595.49</ele>
  <time>2026-08-27T18:29:54Z</time>
  <course>111.9</course>
  <speed>0.03</speed>
  <fix>3d</fix>
</trkpt>
<trkpt lat="40.0728663" lon="-105.2308937">
  <ele>1595.55</ele>
  <time>2026-08-27T18:29:54Z</time>
  <course>345.04</course>
  <speed>0.01</speed>
  <fix>3d</fix>
</trkpt>
<trkpt lat="40.0728662" lon="-105.2308934">
  <ele>1595.49</ele>
  <time>2026-08-27T18:29:54Z</time>
  <course>109.57</course>
  <speed>0.03</speed>
  <fix>3d</fix>
</trkpt>
<trkpt lat="40.0728663" lon="-105.2308936">
  <ele>1595.56</ele>
  <time>2026-08-27T18:29:54Z</time>
  <course>343.55</course>
  <speed>0.01</speed>
  <fix>3d</fix>
</trkpt>
<trkpt lat="40.0728662" lon="-105.2308934">
  <ele>1595.49</ele>
  <time>2026-08-27T18:29:54Z</time>
  <course>107.89</course>
  <speed>0.03</speed>
  <fix>3d</fix>
</trkpt>
<trkpt lat="40.0728663" lon="-105.2308935">
  <ele>1595.56</ele>
  <time>2026-08-27T18:29:54Z</time>
  <course>342.04</course>
  <speed>0.01</speed>
  <fix>3d</fix>
</trkpt>
<trkpt lat="40.0728661" lon="-105.2308933">
  <ele>1595.49</ele>
  <time>2026-08-27T18:29:54Z</time>
  <course>106.63</course>
  <speed>0.03</speed>
  <fix>3d</fix>
</trkpt>
<trkpt lat="40.0728662" lon="-105.2308934">
  <ele>1595.56</ele>
  <time>2026-08-27T18:29:54Z</time>
  <course>340.66</course>
  <speed>0.0</speed>
  <fix>3d</fix>
</trkpt>
<trkpt lat="40.0728661" lon="-105.2308932">
  <ele>1595.5</ele>
  <time>2026-08-27T18:29:54Z</time>
  <course>105.7</course>
  <speed>0.03</speed>
  <fix>3d</fix>
</trkpt>
<trkpt lat="40.0728662" lon="-105.2308934">
  <ele>1595.57</ele>
  <time>2026-08-27T18:29:54Z</time>
  <course>339.54</course>
  <speed>0.0</speed>
  <fix>3d</fix>
</trkpt>
<trkpt lat="40.0728661" lon="-105.2308931">
  <ele>1595.5</ele>
  <time>2026-08-27T18:29:54Z</time>
  <course>106.18</course>
  <speed>0.03</speed>
  <fix>3d</fix>
</trkpt>
<trkpt lat="40.0728662" lon="-105.2308933">
  <ele>1595.57</ele>
  <time>2026-08-27T18:29:54Z</time>
  <course>338.82</course>
  <speed>0.0</speed>
  <fix>3d</fix>
</trkpt>
<trkpt lat="40.0728661" lon="-105.230893">
  <ele>1595.5</ele>
  <time>2026-08-27T18:29:54Z</time>
  <course>108.88</course>
  <speed>0.03</speed>
  <fix>3d</fix>
</trkpt>
<trkpt lat="40.0728662" lon="-105.2308932">
  <ele>1595.57</ele>
  <time>2026-08-27T18:29:54Z</time>
  <course>338.56</course>
  <speed>0.0</speed>
  <fix>3d</fix>
</trkpt>
<trkpt lat="40.0728661" lon="-105.230893">
  <ele>1595.5</ele>
  <time>2026-08-27T18:29:54Z</time>
  <course>112.72</course>
  <speed>0.03</speed>
  <fix>3d</fix>
</trkpt>
<trkpt lat="40.0728662" lon="-105.2308932">
  <ele>1595.57</ele>
  <time>2026-08-27T18:29:54Z</time>
  <course>338.75</course>
  <speed>0.0</speed>
  <fix>3d</fix>
</trkpt>
<trkpt lat="40.072866" lon="-105.2308929">
  <ele>1595.5</ele>
  <time>2026-08-27T18:29:54Z</time>
  <course>117.09</course>
  <speed>0.02</speed>
  <fix>3d</fix>
</trkpt>
<trkpt lat="40.0728661" lon="-105.2308931">
  <ele>1595.57</ele>
  <time>2026-08-27T18:29:54Z</time>
  <course>339.41</course>
  <speed>0.0</speed>
  <fix>3d</fix>
</trkpt>
<trkpt lat="40.072866" lon="-105.2308929">
  <ele>1595.49</ele>
  <time>2026-08-27T18:29:54Z</time>
  <course>122.6</course>
  <speed>0.02</speed>
  <fix>3d</fix>
</trkpt>
<trkpt lat="40.0728661" lon="-105.2308931">
  <ele>1595.56</ele>
  <time>2026-08-27T18:29:54Z</time>
  <course>340.49</course>
  <speed>0.0</speed>
  <fix>3d</fix>
</trkpt>
<trkpt lat="40.072866" lon="-105.2308928">
  <ele>1595.49</ele>
  <time>2026-08-27T18:29:54Z</time>
  <course>127.76</course>
  <speed>0.02</speed>
  <fix>3d</fix>
</trkpt>
<trkpt lat="40.0728661" lon="-105.230893">
  <ele>1595.56</ele>
  <time>2026-08-27T18:29:54Z</time>
  <course>341.81</course>
  <speed>0.0</speed>
  <fix>3d</fix>
</trkpt>
<trkpt lat="40.072866" lon="-105.2308927">
  <ele>1595.49</ele>
  <time>2026-08-27T18:29:54Z</time>
  <course>130.98</course>
  <speed>0.02</speed>
  <fix>3d</fix>
</trkpt>
<trkpt lat="40.072866" lon="-105.230893">
  <ele>1595.55</ele>
  <time>2026-08-27T18:29:54Z</time>
  <course>343.28</course>
  <speed>0.0</speed>
  <fix>3d</fix>
</trkpt>
<trkpt lat="40.0728659" lon="-105.2308927">
  <ele>1595.49</ele>
  <time>2026-08-27T18:29:54Z</time>
  <course>132.56</course>
  <speed>0.02</speed>
  <fix>3d</fix>
</trkpt>
<trkpt lat="40.072866" lon="-105.2308929">
  <ele>1595.55</ele>
  <time>2026-08-27T18:29:54Z</time>
  <course>344.81</course>
  <speed>0.0</speed>
  <fix>3d</fix>
</trkpt>
<trkpt lat="40.0728658" lon="-105.2308927">
  <ele>1595.49</ele>
  <time>2026-08-27T18:29:54Z</time>
  <course>132.28</course>
  <speed>0.03</speed>
  <fix>3d</fix>
</trkpt>
<trkpt lat="40.072866" lon="-105.2308928">
  <ele>1595.55</ele>
  <time>2026-08-27T18:29:54Z</time>
  <course>346.19</course>
  <speed>0.0</speed>
  <fix>3d</fix>
</trkpt>
<trkpt lat="40.0728658" lon="-105.2308926">
  <ele>1595.49</ele>
  <time>2026-08-27T18:29:54Z</time>
  <course>129.73</course>
  <speed>0.03</speed>
  <fix>3d</fix>
</trkpt>
<trkpt lat="40.0728659" lon="-105.2308928">
  <ele>1595.56</ele>
  <time>2026-08-27T18:29:54Z</time>
  <course>347.33</course>
  <speed>0.0</speed>
  <fix>3d</fix>
</trkpt>
<trkpt lat="40.0728657" lon="-105.2308925">
  <ele>1595.49</ele>
  <time>2026-08-27T18:29:54Z</time>
  <course>126.07</course>
  <speed>0.03</speed>
  <fix>3d</fix>
</trkpt>
<trkpt lat="40.0728659" lon="-105.2308927">
  <ele>1595.56</ele>
  <time>2026-08-27T18:29:54Z</time>
  <course>348.09</course>
  <speed>0.0</speed>
  <fix>3d</fix>
</trkpt>
<trkpt lat="40.0728657" lon="-105.2308925">
  <ele>1595.49</ele>
  <time>2026-08-27T18:29:54Z</time>
  <course>122.22</course>
  <speed>0.03</speed>
  <fix>3d</fix>
</trkpt>
<trkpt lat="40.0728658" lon="-105.2308926">
  <ele>1595.57</ele>
  <time>2026-08-27T18:29:54Z</time>
  <course>348.36</course>
  <speed>0.0</speed>
  <fix>3d</fix>
</trkpt>
<trkpt lat="40.0728657" lon="-105.2308924">
  <ele>1595.5</ele>
  <time>2026-08-27T18:29:54Z</time>
  <course>118.14</course>
  <speed>0.03</speed>
  <fix>3d</fix>
</trkpt>
<trkpt lat="40.0728658" lon="-105.2308926">
  <ele>1595.58</ele>
  <time>2026-08-27T18:29:54Z</time>
  <course>348.19</course>
  <speed>0.01</speed>
  <fix>3d</fix>
</trkpt>
<trkpt lat="40.0728657" lon="-105.2308923">
  <ele>1595.5</ele>
  <time>2026-08-27T18:29:54Z</time>
  <course>114.49</course>
  <speed>0.03</speed>
  <fix>3d</fix>
</trkpt>
<trkpt lat="40.0728658" lon="-105.2308925">
  <ele>1595.58</ele>
  <time>2026-08-27T18:29:54Z</time>
  <course>347.55</course>
  <speed>0.01</speed>
  <fix>3d</fix>
</trkpt>
<trkpt lat="40.0728657" lon="-105.2308922">
  <ele>1595.5</ele>
  <time>2026-08-27T18:29:54Z</time>
  <course>111.37</course>
  <speed>0.03</speed>
  <fix>3d</fix>
</trkpt>
<trkpt lat="40.0728658" lon="-105.2308924">
  <ele>1595.58</ele>
  <time>2026-08-27T18:29:54Z</time>
  <course>346.52</course>
  <speed>0.01</speed>
  <fix>3d</fix>
</trkpt>
<trkpt lat="40.0728657" lon="-105.2308921">
  <ele>1595.49</ele>
  <time>2026-08-27T18:29:54Z</time>
  <course>108.2</course>
  <speed>0.03</speed>
  <fix>3d</fix>
</trkpt>
<trkpt lat="40.0728657" lon="-105.2308923">
  <ele>1595.58</ele>
  <time>2026-08-27T18:29:54Z</time>
  <course>345.16</course>
  <speed>0.01</speed>
  <fix>3d</fix>
</trkpt>
<trkpt lat="40.0728657" lon="-105.230892">
  <ele>1595.49</ele>
  <time>2026-08-27T18:29:54Z</time>
  <course>105.52</course>
  <speed>0.03</speed>
  <fix>3d</fix>
</trkpt>
<trkpt lat="40.0728657" lon="-105.2308922">
  <ele>1595.57</ele>
  <time>2026-08-27T18:29:54Z</time>
  <course>343.62</course>
  <speed>0.01</speed>
  <fix>3d</fix>
</trkpt>
<trkpt lat="40.0728656" lon="-105.230892">
  <ele>1595.48</ele>
  <time>2026-08-27T18:29:54Z</time>
  <course>103.64</course>
  <speed>0.04</speed>
  <fix>3d</fix>
</trkpt>
<trkpt lat="40.0728657" lon="-105.2308921">
  <ele>1595.57</ele>
  <time>2026-08-27T18:29:54Z</time>
  <course>342.07</course>
  <speed>0.01</speed>
  <fix>3d</fix>
</trkpt>
<trkpt lat="40.0728656" lon="-105.2308919">
  <ele>1595.48</ele>
  <time>2026-08-27T18:29:54Z</time>
  <course>103.15</course>
  <speed>0.03</speed>
  <fix>3d</fix>
</trkpt>
<trkpt lat="40.0728657" lon="-105.230892">
  <ele>1595.56</ele>
  <time>2026-08-27T18:29:54Z</time>
  <course>340.67</course>
  <speed>0.01</speed>
  <fix>3d</fix>
</trkpt>
<trkpt lat="40.0728656" lon="-105.2308918">
  <ele>1595.48</ele>
  <time>2026-08-27T18:29:54Z</time>
  <course>104.33</course>
  <speed>0.03</speed>
  <fix>3d</fix>
</trkpt>
<trkpt lat="40.0728657" lon="-105.2308919">
  <ele>1595.56</ele>
  <time>2026-08-27T18:29:54Z</time>
  <course>339.54</course>
  <speed>0.0</speed>
  <fix>3d</fix>
</trkpt>
<trkpt lat="40.0728656" lon="-105.2308917">
  <ele>1595.47</ele>
  <time>2026-08-27T18:29:54Z</time>
  <course>106.74</course>
  <speed>0.03</speed>
  <fix>3d</fix>
</trkpt>
<trkpt lat="40.0728657" lon="-105.2308919">
  <ele>1595.56</ele>
  <time>2026-08-27T18:29:54Z</time>
  <course>338.8</course>
  <speed>0.0</speed>
  <fix>3d</fix>
</trkpt>
<trkpt lat="40.0728656" lon="-105.2308916">
  <ele>1595.47</ele>
  <time>2026-08-27T18:29:54Z</time>
  <course>110.73</course>
  <speed>0.03</speed>
  <fix>3d</fix>
</trkpt>
<trkpt lat="40.0728656" lon="-105.2308918">
  <ele>1595.55</ele>
  <time>2026-08-27T18:29:54Z</time>
  <course>338.53</course>
  <speed>0.0</speed>
  <fix>3d</fix>
</trkpt>
<trkpt lat="40.0728655" lon="-105.2308915">
  <ele>1595.47</ele>
  <time>2026-08-27T18:29:54Z</time>
  <course>115.94</course>
  <speed>0.03</speed>
  <fix>3d</fix>
</trkpt>
<trkpt lat="40.0728656" lon="-105.2308917">
  <ele>1595.55</ele>
  <time>2026-08-27T18:29:54Z</time>
  <course>338.72</course>
  <speed>0.0</speed>
  <fix>3d</fix>
</trkpt>
<trkpt lat="40.0728655" lon="-105.2308915">
  <ele>1595.47</ele>
  <time>2026-08-27T18:29:54Z</time>
  <course>121.42</course>
  <speed>0.03</speed>
  <fix>3d</fix>
</trkpt>
<trkpt lat="40.0728656" lon="-105.2308917">
  <ele>1595.55</ele>
  <time>2026-08-27T18:29:54Z</time>
  <course>339.37</course>
  <speed>0.0</speed>
  <fix>3d</fix>
</trkpt>
<trkpt lat="40.0728655" lon="-105.2308914">
  <ele>1595.47</ele>
  <time>2026-08-27T18:29:54Z</time>
  <course>126.36</course>
  <speed>0.02</speed>
  <fix>3d</fix>
</trkpt>
<trkpt lat="40.0728656" lon="-105.2308916">
  <ele>1595.55</ele>
  <time>2026-08-27T18:29:54Z</time>
  <course>340.45</course>
  <speed>0.0</speed>
  <fix>3d</fix>
</trkpt>
<trkpt lat="40.0728654" lon="-105.2308913">
  <ele>1595.47</ele>
  <time>2026-08-27T18:29:54Z</time>
  <course>129.46</course>
  <speed>0.02</speed>
  <fix>3d</fix>
</trkpt>
<trkpt lat="40.0728655" lon="-105.2308916">
  <ele>1595.55</ele>
  <time>2026-08-27T18:29:54Z</time>
  <course>341.82</course>
  <speed>0.0</speed>
  <fix>3d</fix>
</trkpt>
<trkpt lat="40.0728654" lon="-105.2308913">
  <ele>1595.47</ele>
  <time>2026-08-27T18:29:54Z</time>
  <course>130.45</course>
  <speed>0.02</speed>
  <fix>3d</fix>
</trkpt>
<trkpt lat="40.0728655" lon="-105.2308915">
  <ele>1595.56</ele>
  <time>2026-08-27T18:29:54Z</time>
  <course>343.33</course>
  <speed>0.0</speed>
  <fix>3d</fix>
</trkpt>
<trkpt lat="40.0728654" lon="-105.2308913">
  <ele>1595.48</ele>
  <time>2026-08-27T18:29:54Z</time>
  <course>130.64</course>
  <speed>0.02</speed>
  <fix>3d</fix>
</trkpt>
<trkpt lat="40.0728655" lon="-105.2308915">
  <ele>1595.56</ele>
  <time>2026-08-27T18:29:54Z</time>
  <course>344.84</course>
  <speed>0.0</speed>
  <fix>3d</fix>
</trkpt>
<trkpt lat="40.0728653" lon="-105.2308912">
  <ele>1595.48</ele>
  <time>2026-08-27T18:29:54Z</time>
  <course>129.73</course>
  <speed>0.03</speed>
  <fix>3d</fix>
</trkpt>
<trkpt lat="40.0728654" lon="-105.2308914">
  <ele>1595.56</ele>
  <time>2026-08-27T18:29:54Z</time>
  <course>346.23</course>
  <speed>0.0</speed>
  <fix>3d</fix>
</trkpt>
<trkpt lat="40.0728652" lon="-105.2308912">
  <ele>1595.48</ele>
  <time>2026-08-27T18:29:54Z</time>
  <course>127.57</course>
  <speed>0.03</speed>
  <fix>3d</fix>
</trkpt>
<trkpt lat="40.0728654" lon="-105.2308913">
  <ele>1595.56</ele>
  <time>2026-08-27T18:29:54Z</time>
  <course>347.36</course>
  <speed>0.0</speed>
  <fix>3d</fix>
</trkpt>
<trkpt lat="40.0728652" lon="-105.2308911">
  <ele>1595.48</ele>
  <time>2026-08-27T18:29:54Z</time>
  <course>124.62</course>
  <speed>0.03</speed>
  <fix>3d</fix>
</trkpt>
<trkpt lat="40.0728653" lon="-105.2308913">
  <ele>1595.56</ele>
  <time>2026-08-27T18:29:54Z</time>
  <course>348.09</course>
  <speed>0.0</speed>
  <fix>3d</fix>
</trkpt>
<trkpt lat="40.0728652" lon="-105.230891">
  <ele>1595.48</ele>
  <time>2026-08-27T18:29:54Z</time>
  <course>121.16</course>
  <speed>0.03</speed>
  <fix>3d</fix>
</trkpt>
<trkpt lat="40.0728653" lon="-105.2308912">
  <ele>1595.56</ele>
  <time>2026-08-27T18:29:54Z</time>
  <course>348.37</course>
  <speed>0.0</speed>
  <fix>3d</fix>
</trkpt>
<trkpt lat="40.0728651" lon="-105.230891">
  <ele>1595.48</ele>
  <time>2026-08-27T18:29:54Z</time>
  <course>117.53</course>
  <speed>0.03</speed>
  <fix>3d</fix>
</trkpt>
<trkpt lat="40.0728653" lon="-105.2308911">
  <ele>1595.56</ele>
  <time>2026-08-27T18:29:54Z</time>
  <course>348.16</course>
  <speed>0.01</speed>
  <fix>3d</fix>
</trkpt>
<trkpt lat="40.0728651" lon="-105.2308909">
  <ele>1595.48</ele>
  <time>2026-08-27T18:29:54Z</time>
  <course>113.75</course>
  <speed>0.03</speed>
  <fix>3d</fix>
</trkpt>
<trkpt lat="40.0728652" lon="-105.230891">
  <ele>1595.57</ele>
  <time>2026-08-27T18:29:54Z</time>
  <course>347.52</course>
  <speed>0.01</speed>
  <fix>3d</fix>
</trkpt>
<trkpt lat="40.0728651" lon="-105.2308908">
  <ele>1595.48</ele>
  <time>2026-08-27T18:29:54Z</time>
  <course>110.65</course>
  <speed>0.03</speed>
  <fix>3d</fix>
</trkpt>
<trkpt lat="40.0728652" lon="-105.230891">
  <ele>1595.57</ele>
  <time>2026-08-27T18:29:54Z</time>
  <course>346.5</course>
  <speed>0.01</speed>
  <fix>3d</fix>
</trkpt>
<trkpt lat="40.0728651" lon="-105.2308907">
  <ele>1595.48</ele>
  <time>2026-08-27T18:29:54Z</time>
  <course>108.63</course>
  <speed>0.03</speed>
  <fix>3d</fix>
</trkpt>
<trkpt lat="40.0728652" lon="-105.2308909">
  <ele>1595.56</ele>
  <time>2026-08-27T18:29:54Z</time>
  <course>345.14</course>
  <speed>0.01</speed>
  <fix>3d</fix>
</trkpt>
<trkpt lat="40.0728651" lon="-105.2308906">
  <ele>1595.48</ele>
  <time>2026-08-27T18:29:54Z</time>
  <course>106.62</course>
  <speed>0.03</speed>
  <fix>3d</fix>
</trkpt>
<trkpt lat="40.0728652" lon="-105.2308908">
  <ele>1595.56</ele>
  <time>2026-08-27T18:29:54Z</time>
  <course>343.58</course>
  <speed>0.01</speed>
  <fix>3d</fix>
</trkpt>
<trkpt lat="40.0728651" lon="-105.2308905">
  <ele>1595.47</ele>
  <time>2026-08-27T18:29:54Z</time>
  <course>104.77</course>
  <speed>0.03</speed>
  <fix>3d</fix>
</trkpt>
<trkpt lat="40.0728652" lon="-105.2308907">
  <ele>1595.56</ele>
  <time>2026-08-27T18:29:54Z</time>
  <course>342.05</course>
  <speed>0.01</speed>
  <fix>3d</fix>
</trkpt>
<trkpt lat="40.0728651" lon="-105.2308905">
  <ele>1595.47</ele>
  <time>2026-08-27T18:29:54Z</time>
  <course>104.21</course>
  <speed>0.03</speed>
  <fix>3d</fix>
</trkpt>
<trkpt lat="40.0728652" lon="-105.2308906">
  <ele>1595.56</ele>
  <time>2026-08-27T18:29:54Z</time>
  <course>340.65</course>
  <speed>0.0</speed>
  <fix>3d</fix>
</trkpt>
<trkpt lat="40.0728651" lon="-105.2308904">
  <ele>1595.47</ele>
  <time>2026-08-27T18:29:54Z</time>
  <course>104.84</course>
  <speed>0.03</speed>
  <fix>3d</fix>
</trkpt>
<trkpt lat="40.0728651" lon="-105.2308905">
  <ele>1595.56</ele>
  <time>2026-08-27T18:29:54Z</time>
  <course>339.54</course>
  <speed>0.0</speed>
  <fix>3d</fix>
</trkpt>
<trkpt lat="40.072865" lon="-105.2308903">
  <ele>1595.47</ele>
  <time>2026-08-27T18:29:54Z</time>
  <course>106.74</course>
  <speed>0.03</speed>
  <fix>3d</fix>
</trkpt>
<trkpt lat="40.0728651" lon="-105.2308905">
  <ele>1595.56</ele>
  <time>2026-08-27T18:29:54Z</time>
  <course>338.82</course>
  <speed>0.0</speed>
  <fix>3d</fix>
</trkpt>
<trkpt lat="40.072865" lon="-105.2308902">
  <ele>1595.47</ele>
  <time>2026-08-27T18:29:54Z</time>
  <course>109.63</course>
  <speed>0.03</speed>
  <fix>3d</fix>
</trkpt>
<trkpt lat="40.0728651" lon="-105.2308904">
  <ele>1595.56</ele>
  <time>2026-08-27T18:29:54Z</time>
  <course>338.53</course>
  <speed>0.0</speed>
  <fix>3d</fix>
</trkpt>
<trkpt lat="40.072865" lon="-105.2308901">
  <ele>1595.47</ele>
  <time>2026-08-27T18:29:54Z</time>
  <course>113.33</course>
  <speed>0.03</speed>
  <fix>3d</fix>
</trkpt>
<trkpt lat="40.0728651" lon="-105.2308903">
  <ele>1595.56</ele>
  <time>2026-08-27T18:29:54Z</time>
  <course>338.72</course>
  <speed>0.0</speed>
  <fix>3d</fix>
</trkpt>
<trkpt lat="40.072865" lon="-105.2308901">
  <ele>1595.47</ele>
  <time>2026-08-27T18:29:54Z</time>
  <course>118.03</course>
  <speed>0.02</speed>
  <fix>3d</fix>
</trkpt>
<trkpt lat="40.0728651" lon="-105.2308903">
  <ele>1595.56</ele>
  <time>2026-08-27T18:29:54Z</time>
  <course>339.39</course>
  <speed>0.0</speed>
  <fix>3d</fix>
</trkpt>
<trkpt lat="40.072865" lon="-105.23089">
  <ele>1595.47</ele>
  <time>2026-08-27T18:29:54Z</time>
  <course>122.73</course>
  <speed>0.02</speed>
  <fix>3d</fix>
</trkpt>
<trkpt lat="40.072865" lon="-105.2308902">
  <ele>1595.56</ele>
  <time>2026-08-27T18:29:55Z</time>
  <course>340.45</course>
  <speed>0.0</speed>
  <fix>3d</fix>
</trkpt>
<trkpt lat="40.0728649" lon="-105.23089">
  <ele>1595.47</ele>
  <time>2026-08-27T18:29:55Z</time>
  <course>126.86</course>
  <speed>0.02</speed>
  <fix>3d</fix>
</trkpt>
<trkpt lat="40.072865" lon="-105.2308902">
  <ele>1595.56</ele>
  <time>2026-08-27T18:29:55Z</time>
  <course>341.8</course>
  <speed>0.0</speed>
  <fix>3d</fix>
</trkpt>
<trkpt lat="40.0728649" lon="-105.2308899">
  <ele>1595.47</ele>
  <time>2026-08-27T18:29:55Z</time>
  <course>129.55</course>
  <speed>0.02</speed>
  <fix>3d</fix>
</trkpt>
<trkpt lat="40.072865" lon="-105.2308901">
  <ele>1595.56</ele>
  <time>2026-08-27T18:29:55Z</time>
  <course>343.34</course>
  <speed>0.0</speed>
  <fix>3d</fix>
</trkpt>
<trkpt lat="40.0728649" lon="-105.2308898">
  <ele>1595.47</ele>
  <time>2026-08-27T18:29:55Z</time>
  <course>130.14</course>
  <speed>0.02</speed>
  <fix>3d</fix>
</trkpt>
<trkpt lat="40.0728649" lon="-105.2308901">
  <ele>1595.56</ele>
  <time>2026-08-27T18:29:55Z</time>
  <course>344.85</course>
  <speed>0.0</speed>
  <fix>3d</fix>
</trkpt>
<trkpt lat="40.0728648" lon="-105.2308898">
  <ele>1595.47</ele>
  <time>2026-08-27T18:29:55Z</time>
  <course>128.92</course>
  <speed>0.03</speed>
  <fix>3d</fix>
</trkpt>
<trkpt lat="40.0728649" lon="-105.23089">
  <ele>1595.56</ele>
  <time>2026-08-27T18:29:55Z</time>
  <course>346.22</course>
  <speed>0.0</speed>
  <fix>3d</fix>
</trkpt>
<trkpt lat="40.0728648" lon="-105.2308898">
  <ele>1595.47</ele>
  <time>2026-08-27T18:29:55Z</time>
  <course>125.97</course>
  <speed>0.03</speed>
  <fix>3d</fix>
</trkpt>
<trkpt lat="40.0728649" lon="-105.2308899">
  <ele>1595.56</ele>
  <time>2026-08-27T18:29:55Z</time>
  <course>347.33</course>
  <speed>0.0</speed>
  <fix>3d</fix>
</trkpt>
<trkpt lat="40.0728648" lon="-105.2308897">
  <ele>1595.47</ele>
  <time>2026-08-27T18:29:55Z</time>
  <course>122.11</course>
  <speed>0.03</speed>
  <fix>3d</fix>
</trkpt>
<trkpt lat="40.0728648" lon="-105.2308899">
  <ele>1595.56</ele>
  <time>2026-08-27T18:29:55Z</time>
  <course>348.08</course>
  <speed>0.0</speed>
  <fix>3d</fix>
</trkpt>
<trkpt lat="40.0728647" lon="-105.2308896">
  <ele>1595.47</ele>
  <time>2026-08-27T18:29:55Z</time>
  <course>118.36</course>
  <speed>0.03</speed>
  <fix>3d</fix>
</trkpt>
<trkpt lat="40.0728648" lon="-105.2308898">
  <ele>1595.56</ele>
  <time>2026-08-27T18:29:55Z</time>
  <course>348.37</course>
  <speed>0.01</speed>
  <fix>3d</fix>
</trkpt>
<trkpt lat="40.0728646" lon="-105.2308895">
  <ele>1595.47</ele>
  <time>2026-08-27T18:29:55Z</time>
  <course>114.44</course>
  <speed>0.03</speed>
  <fix>3d</fix>
</trkpt>
<trkpt lat="40.0728648" lon="-105.2308897">
  <ele>1595.56</ele>
  <time>2026-08-27T18:29:55Z</time>
  <course>348.17</course>
  <speed>0.01</speed>
  <fix>3d</fix>
</trkpt>
<trkpt lat="40.0728646" lon="-105.2308894">
  <ele>1595.47</ele>
  <time>2026-08-27T18:29:55Z</time>
  <course>110.58</course>
  <speed>0.03</speed>
  <fix>3d</fix>
</trkpt>
<trkpt lat="40.0728648" lon="-105.2308896">
  <ele>1595.56</ele>
  <time>2026-08-27T18:29:55Z</time>
  <course>347.51</course>
  <speed>0.01</speed>
  <fix>3d</fix>
</trkpt>
<trkpt lat="40.0728646" lon="-105.2308894">
  <ele>1595.47</ele>
  <time>2026-08-27T18:29:55Z</time>
  <course>107.7</course>
  <speed>0.03</speed>
  <fix>3d</fix>
</trkpt>
<trkpt lat="40.0728647" lon="-105.2308895">
  <ele>1595.56</ele>
  <time>2026-08-27T18:29:55Z</time>
  <course>346.43</course>
  <speed>0.01</speed>
  <fix>3d</fix>
</trkpt>
<trkpt lat="40.0728646" lon="-105.2308893">
  <ele>1595.47</ele>
  <time>2026-08-27T18:29:55Z</time>
  <course>105.66</course>
  <speed>0.04</speed>
  <fix>3d</fix>
</trkpt>
<trkpt lat="40.0728647" lon="-105.2308894">
  <ele>1595.56</ele>
  <time>2026-08-27T18:29:55Z</time>
  <course>345.09</course>
  <speed>0.01</speed>
  <fix>3d</fix>
</trkpt>
<trkpt lat="40.0728645" lon="-105.2308892">
  <ele>1595.47</ele>
  <time>2026-08-27T18:29:55Z</time>
  <course>104.32</course>
  <speed>0.04</speed>
  <fix>3d</fix>
</trkpt>
<trkpt lat="40.0728647" lon="-105.2308893">
  <ele>1595.56</ele>
  <time>2026-08-27T18:29:55Z</time>
  <course>343.56</course>
  <speed>0.01</speed>
  <fix>3d</fix>
</trkpt>
<trkpt lat="40.0728645" lon="-105.2308891">
  <ele>1595.47</ele>
  <time>2026-08-27T18:29:55Z</time>
  <course>103.74</course>
  <speed>0.03</speed>
  <fix>3d</fix>
</trkpt>
<trkpt lat="40.0728647" lon="-105.2308892">
  <ele>1595.56</ele>
  <time>2026-08-27T18:29:55Z</time>
  <course>342.07</course>
  <speed>0.01</speed>
  <fix>3d</fix>
</trkpt>
<trkpt lat="40.0728645" lon="-105.230889">
  <ele>1595.47</ele>
  <time>2026-08-27T18:29:55Z</time>
  <course>104.17</course>
  <speed>0.03</speed>
  <fix>3d</fix>
</trkpt>
<trkpt lat="40.0728646" lon="-105.2308892">
  <ele>1595.56</ele>
  <time>2026-08-27T18:29:55Z</time>
  <course>340.69</course>
  <speed>0.0</speed>
  <fix>3d</fix>
</trkpt>
<trkpt lat="40.0728645" lon="-105.2308889">
  <ele>1595.47</ele>
  <time>2026-08-27T18:29:55Z</time>
  <course>105.19</course>
  <speed>0.03</speed>
  <fix>3d</fix>
</trkpt>
<trkpt lat="40.0728646" lon="-105.2308891">
  <ele>1595.56</ele>
  <time>2026-08-27T18:29:55Z</time>
  <course>339.55</course>
  <speed>0.0</speed>
  <fix>3d</fix>
</trkpt>
<trkpt lat="40.0728645" lon="-105.2308889">
  <ele>1595.47</ele>
  <time>2026-08-27T18:29:55Z</time>
  <course>106.88</course>
  <speed>0.03</speed>
  <fix>3d</fix>
</trkpt>
<trkpt lat="40.0728646" lon="-105.230889">
  <ele>1595.56</ele>
  <time>2026-08-27T18:29:55Z</time>
  <course>338.81</course>
  <speed>0.0</speed>
  <fix>3d</fix>
</trkpt>
<trkpt lat="40.0728645" lon="-105.2308888">
  <ele>1595.47</ele>
  <time>2026-08-27T18:29:55Z</time>
  <course>110.35</course>
  <speed>0.03</speed>
  <fix>3d</fix>
</trkpt>
<trkpt lat="40.0728646" lon="-105.230889">
  <ele>1595.55</ele>
  <time>2026-08-27T18:29:55Z</time>
  <course>338.53</course>
  <speed>0.0</speed>
  <fix>3d</fix>
</trkpt>
<trkpt lat="40.0728645" lon="-105.2308887">
  <ele>1595.47</ele>
  <time>2026-08-27T18:29:55Z</time>
  <course>115.32</course>
  <speed>0.02</speed>
  <fix>3d</fix>
</trkpt>
<trkpt lat="40.0728645" lon="-105.2308889">
  <ele>1595.55</ele>
  <time>2026-08-27T18:29:55Z</time>
  <course>338.55</course>
  <speed>0.0</speed>
  <fix>3d</fix>
</trkpt>
<trkpt lat="40.0728645" lon="-105.2308887">
  <ele>1595.47</ele>
  <time>2026-08-27T18:29:55Z</time>
  <course>119.81</course>
  <speed>0.02</speed>
  <fix>3d</fix>
</trkpt>
<trkpt lat="40.0728645" lon="-105.2308888">
  <ele>1595.55</ele>
  <time>2026-08-27T18:29:55Z</time>
  <course>338.55</course>
  <speed>0.0</speed>
  <fix>3d</fix>
</trkpt>
<trkpt lat="40.0728644" lon="-105.2308886">
  <ele>1595.47</ele>
  <time>2026-08-27T18:29:55Z</time>
  <course>121.4</course>
  <speed>0.03</speed>
  <fix>3d</fix>
</trkpt>
<trkpt lat="40.0728645" lon="-105.2308888">
  <ele>1595.55</ele>
  <time>2026-08-27T18:29:55Z</time>
  <course>338.54</course>
  <speed>0.0</speed>
  <fix>3d</fix>
</trkpt>
<trkpt lat="40.0728644" lon="-105.2308885">
  <ele>1595.47</ele>
  <time>2026-08-27T18:29:55Z</time>
  <course>120.68</course>
  <speed>0.03</speed>
  <fix>3d</fix>
</trkpt>
<trkpt lat="40.0728645" lon="-105.2308887">
  <ele>1595.55</ele>
  <time>2026-08-27T18:29:55Z</time>
  <course>338.55</course>
  <speed>0.0</speed>
  <fix>3d</fix>
</trkpt>
<trkpt lat="40.0728644" lon="-105.2308884">
  <ele>1595.48</ele>
  <time>2026-08-27T18:29:55Z</time>
  <course>119.76</course>
  <speed>0.03</speed>
  <fix>3d</fix>
</trkpt>
<trkpt lat="40.0728644" lon="-105.2308886">
  <ele>1595.55</ele>
  <time>2026-08-27T18:29:55Z</time>
  <course>338.55</course>
  <speed>0.0</speed>
  <fix>3d</fix>
</trkpt>
<trkpt lat="40.0728644" lon="-105.2308884">
  <ele>1595.48</ele>
  <time>2026-08-27T18:29:55Z</time>
  <course>119.53</course>
  <speed>0.03</speed>
  <fix>3d</fix>
</trkpt>
<trkpt lat="40.0728644" lon="-105.2308886">
  <ele>1595.56</ele>
  <time>2026-08-27T18:29:55Z</time>
  <course>338.55</course>
  <speed>0.0</speed>
  <fix>3d</fix>
</trkpt>
<trkpt lat="40.0728643" lon="-105.2308883">
  <ele>1595.48</ele>
  <time>2026-08-27T18:29:55Z</time>
  <course>118.97</course>
  <speed>0.03</speed>
  <fix>3d</fix>
</trkpt>
<trkpt lat="40.0728644" lon="-105.2308885">
  <ele>1595.56</ele>
  <time>2026-08-27T18:29:55Z</time>
  <course>338.56</course>
  <speed>0.0</speed>
  <fix>3d</fix>
</trkpt>
<trkpt lat="40.0728643" lon="-105.2308882">
  <ele>1595.48</ele>
  <time>2026-08-27T18:29:55Z</time>
  <course>118.75</course>
  <speed>0.03</speed>
  <fix>3d</fix>
</trkpt>
<trkpt lat="40.0728644" lon="-105.2308884">
  <ele>1595.56</ele>
  <time>2026-08-27T18:29:55Z</time>
  <course>338.56</course>
  <speed>0.0</speed>
  <fix>3d</fix>
</trkpt>
<trkpt lat="40.0728643" lon="-105.2308882">
  <ele>1595.49</ele>
  <time>2026-08-27T18:29:55Z</time>
  <course>119.27</course>
  <speed>0.03</speed>
  <fix>3d</fix>
</trkpt>
<trkpt lat="40.0728643" lon="-105.2308883">
  <ele>1595.56</ele>
  <time>2026-08-27T18:29:55Z</time>
  <course>338.57</course>
  <speed>0.01</speed>
  <fix>3d</fix>
</trkpt>
<trkpt lat="40.0728642" lon="-105.2308881">
  <ele>1595.49</ele>
  <time>2026-08-27T18:29:55Z</time>
  <course>119.69</course>
  <speed>0.03</speed>
  <fix>3d</fix>
</trkpt>
<trkpt lat="40.0728643" lon="-105.2308882">
  <ele>1595.56</ele>
  <time>2026-08-27T18:29:55Z</time>
  <course>338.56</course>
  <speed>0.01</speed>
  <fix>3d</fix>
</trkpt>
<trkpt lat="40.0728642" lon="-105.230888">
  <ele>1595.49</ele>
  <time>2026-08-27T18:29:55Z</time>
  <course>120.02</course>
  <speed>0.04</speed>
  <fix>3d</fix>
</trkpt>
<trkpt lat="40.0728643" lon="-105.2308882">
  <ele>1595.57</ele>
  <time>2026-08-27T18:29:55Z</time>
  <course>338.57</course>
  <speed>0.01414213562373095</speed>
  <fix>3d</fix>
</trkpt>
<trkpt lat="40.0728642" lon="-105.2308879">
  <ele>1595.49</ele>
  <time>2026-08-27T18:29:55Z</time>
  <course>120.18</course>
  <speed>0.04</speed>
  <fix>3d</fix>
</trkpt>
<trkpt lat="40.0728642" lon="-105.2308881">
  <ele>1595.56</ele>
  <time>2026-08-27T18:29:55Z</time>
  <course>338.57</course>
  <speed>0.01414213562373095</speed>
  <fix>3d</fix>
</trkpt>
<trkpt lat="40.0728641" lon="-105.2308878">
  <ele>1595.49</ele>
  <time>2026-08-27T18:29:55Z</time>
  <course>120.23</course>
  <speed>0.04</speed>
  <fix>3d</fix>
</trkpt>
<trkpt lat="40.0728642" lon="-105.230888">
  <ele>1595.56</ele>
  <time>2026-08-27T18:29:55Z</time>
  <course>338.57</course>
  <speed>0.01414213562373095</speed>
  <fix>3d</fix>
</trkpt>
<trkpt lat="40.072864" lon="-105.2308877">
  <ele>1595.49</ele>
  <time>2026-08-27T18:29:55Z</time>
  <course>120.31</course>
  <speed>0.04</speed>
  <fix>3d</fix>
</trkpt>
<trkpt lat="40.0728641" lon="-105.2308879">
  <ele>1595.56</ele>
  <time>2026-08-27T18:29:55Z</time>
  <course>338.57</course>
  <speed>0.01414213562373095</speed>
  <fix>3d</fix>
</trkpt>
<trkpt lat="40.072864" lon="-105.2308876">
  <ele>1595.49</ele>
  <time>2026-08-27T18:29:55Z</time>
  <course>120.41</course>
  <speed>0.04</speed>
  <fix>3d</fix>
</trkpt>
<trkpt lat="40.0728641" lon="-105.2308878">
  <ele>1595.55</ele>
  <time>2026-08-27T18:29:55Z</time>
  <course>338.57</course>
  <speed>0.01414213562373095</speed>
  <fix>3d</fix>
</trkpt>
<trkpt lat="40.0728639" lon="-105.2308875">
  <ele>1595.49</ele>
  <time>2026-08-27T18:29:55Z</time>
  <course>120.52</course>
  <speed>0.04</speed>
  <fix>3d</fix>
</trkpt>
<trkpt lat="40.072864" lon="-105.2308877">
  <ele>1595.55</ele>
  <time>2026-08-27T18:29:55Z</time>
  <course>338.56</course>
  <speed>0.01414213562373095</speed>
  <fix>3d</fix>
</trkpt>
<trkpt lat="40.0728639" lon="-105.2308875">
  <ele>1595.49</ele>
  <time>2026-08-27T18:29:55Z</time>
  <course>120.48</course>
  <speed>0.04</speed>
  <fix>3d</fix>
</trkpt>
<trkpt lat="40.072864" lon="-105.2308876">
  <ele>1595.56</ele>
  <time>2026-08-27T18:29:55Z</time>
  <course>338.49</course>
  <speed>0.01414213562373095</speed>
  <fix>3d</fix>
</trkpt>
<trkpt lat="40.0728639" lon="-105.2308874">
  <ele>1595.49</ele>
  <time>2026-08-27T18:29:55Z</time>
  <course>119.78</course>
  <speed>0.04</speed>
  <fix>3d</fix>
</trkpt>
<trkpt lat="40.0728639" lon="-105.2308875">
  <ele>1595.57</ele>
  <time>2026-08-27T18:29:55Z</time>
  <course>337.65</course>
  <speed>0.022360679774997897</speed>
  <fix>3d</fix>
</trkpt>
<trkpt lat="40.0728639" lon="-105.2308873">
  <ele>1595.49</ele>
  <time>2026-08-27T18:29:55Z</time>
  <course>117.36</course>
  <speed>0.04</speed>
  <fix>3d</fix>
</trkpt>
<trkpt lat="40.0728639" lon="-105.2308874">
  <ele>1595.57</ele>
  <time>2026-08-27T18:29:55Z</time>
  <course>336.33</course>
  <speed>0.022360679774997897</speed>
  <fix>3d</fix>
</trkpt>
<trkpt lat="40.0728638" lon="-105.2308871">
  <ele>1595.5</ele>
  <time>2026-08-27T18:29:55Z</time>
  <course>114.83</course>
  <speed>0.05</speed>
  <fix>3d</fix>
</trkpt>
<trkpt lat="40.0728639" lon="-105.2308873">
  <ele>1595.57</ele>
  <time>2026-08-27T18:29:55Z</time>
  <course>335.11</course>
  <speed>0.01</speed>
  <fix>3d</fix>
</trkpt>
<trkpt lat="40.0728638" lon="-105.230887">
  <ele>1595.5</ele>
  <time>2026-08-27T18:29:55Z</time>
  <course>113.87</course>
  <speed>0.04</speed>
  <fix>3d</fix>
</trkpt>
<trkpt lat="40.0728638" lon="-105.2308872">
  <ele>1595.56</ele>
  <time>2026-08-27T18:29:55Z</time>
  <course>334.21</course>
  <speed>0.01</speed>
  <fix>3d</fix>
</trkpt>
<trkpt lat="40.0728638" lon="-105.2308869">
  <ele>1595.5</ele>
  <time>2026-08-27T18:29:55Z</time>
  <course>114.45</course>
  <speed>0.04</speed>
  <fix>3d</fix>
</trkpt>
<trkpt lat="40.0728638" lon="-105.2308871">
  <ele>1595.56</ele>
  <time>2026-08-27T18:29:55Z</time>
  <course>333.71</course>
  <speed>0.01</speed>
  <fix>3d</fix>
</trkpt>
<trkpt lat="40.0728637" lon="-105.2308868">
  <ele>1595.5</ele>
  <time>2026-08-27T18:29:55Z</time>
  <course>115.9</course>
  <speed>0.04</speed>
  <fix>3d</fix>
</trkpt>
<trkpt lat="40.0728638" lon="-105.230887">
  <ele>1595.56</ele>
  <time>2026-08-27T18:29:55Z</time>
  <course>333.7</course>
  <speed>0.0</speed>
  <fix>3d</fix>
</trkpt>
<trkpt lat="40.0728637" lon="-105.2308867">
  <ele>1595.5</ele>
  <time>2026-08-27T18:29:55Z</time>
  <course>117.53</course>
  <speed>0.03</speed>
  <fix>3d</fix>
</trkpt>
<trkpt lat="40.0728638" lon="-105.2308869">
  <ele>1595.56</ele>
  <time>2026-08-27T18:29:55Z</time>
  <course>334.15</course>
  <speed>0.0</speed>
  <fix>3d</fix>
</trkpt>
<trkpt lat="40.0728637" lon="-105.2308867">
  <ele>1595.5</ele>
  <time>2026-08-27T18:29:55Z</time>
  <course>119.33</course>
  <speed>0.03</speed>
  <fix>3d</fix>
</trkpt>
<trkpt lat="40.0728637" lon="-105.2308869">
  <ele>1595.56</ele>
  <time>2026-08-27T18:29:55Z</time>
  <course>335.06</course>
  <speed>0.0</speed>
  <fix>3d</fix>
</trkpt>
<trkpt lat="40.0728636" lon="-105.2308866">
  <ele>1595.5</ele>
  <time>2026-08-27T18:29:55Z</time>
  <course>121.05</course>
  <speed>0.03</speed>
  <fix>3d</fix>
</trkpt>
<trkpt lat="40.0728637" lon="-105.2308868">
  <ele>1595.56</ele>
  <time>2026-08-27T18:29:55Z</time>
  <course>336.3</course>
  <speed>0.0</speed>
  <fix>3d</fix>
</trkpt>
<trkpt lat="40.0728636" lon="-105.2308865">
  <ele>1595.5</ele>
  <time>2026-08-27T18:29:55Z</time>
  <course>122.62</course>
  <speed>0.03</speed>
  <fix>3d</fix>
</trkpt>
<trkpt lat="40.0728637" lon="-105.2308867">
  <ele>1595.56</ele>
  <time>2026-08-27T18:29:55Z</time>
  <course>337.75</course>
  <speed>0.0</speed>
  <fix>3d</fix>
</trkpt>
<trkpt lat="40.0728636" lon="-105.2308865">
  <ele>1595.5</ele>
  <time>2026-08-27T18:29:55Z</time>
  <course>123.59</course>
  <speed>0.02</speed>
  <fix>3d</fix>
</trkpt>
<trkpt lat="40.0728636" lon="-105.2308867">
  <ele>1595.56</ele>
  <time>2026-08-27T18:29:55Z</time>
  <course>339.3</course>
  <speed>0.0</speed>
  <fix>3d</fix>
</trkpt>
<trkpt lat="40.0728635" lon="-105.2308864">
  <ele>1595.5</ele>
  <time>2026-08-27T18:29:55Z</time>
  <course>123.44</course>
  <speed>0.02</speed>
  <fix>3d</fix>
</trkpt>
<trkpt lat="40.0728636" lon="-105.2308866">
  <ele>1595.56</ele>
  <time>2026-08-27T18:29:55Z</time>
  <course>340.76</course>
  <speed>0.0</speed>
  <fix>3d</fix>
</trkpt>
<trkpt lat="40.0728634" lon="-105.2308863">
  <ele>1595.5</ele>
  <time>2026-08-27T18:29:55Z</time>
  <course>122.15</course>
  <speed>0.03</speed>
  <fix>3d</fix>
</trkpt>
<trkpt lat="40.0728636" lon="-105.2308865">
  <ele>1595.56</ele>
  <time>2026-08-27T18:29:55Z</time>
  <course>342.03</course>
  <speed>0.0</speed>
  <fix>3d</fix>
</trkpt>
<trkpt lat="40.0728634" lon="-105.2308863">
  <ele>1595.5</ele>
  <time>2026-08-27T18:29:55Z</time>
  <course>119.89</course>
  <speed>0.03</speed>
  <fix>3d</fix>
</trkpt>
<trkpt lat="40.0728635" lon="-105.2308865">
  <ele>1595.56</ele>
  <time>2026-08-27T18:29:55Z</time>
  <course>342.94</course>
  <speed>0.0</speed>
  <fix>3d</fix>
</trkpt>
<trkpt lat="40.0728634" lon="-105.2308863">
  <ele>1595.5</ele>
  <time>2026-08-27T18:29:55Z</time>
  <course>116.45</course>
  <speed>0.03</speed>
  <fix>3d</fix>
</trkpt>
<trkpt lat="40.0728635" lon="-105.2308864">
  <ele>1595.56</ele>
  <time>2026-08-27T18:29:55Z</time>
  <course>343.4</course>
  <speed>0.0</speed>
  <fix>3d</fix>
</trkpt>
<trkpt lat="40.0728634" lon="-105.2308862">
  <ele>1595.5</ele>
  <time>2026-08-27T18:29:55Z</time>
  <course>112.67</course>
  <speed>0.03</speed>
  <fix>3d</fix>
</trkpt>
<trkpt lat="40.0728635" lon="-105.2308863">
  <ele>1595.56</ele>
  <time>2026-08-27T18:29:55Z</time>
  <course>343.42</course>
  <speed>0.0</speed>
  <fix>3d</fix>
</trkpt>
<trkpt lat="40.0728633" lon="-105.2308861">
  <ele>1595.51</ele>
  <time>2026-08-27T18:29:55Z</time>
  <course>109.33</course>
  <speed>0.03</speed>
  <fix>3d</fix>
</trkpt>
<trkpt lat="40.0728635" lon="-105.2308863">
  <ele>1595.56</ele>
  <time>2026-08-27T18:29:55Z</time>
  <course>342.95</course>
  <speed>0.01</speed>
  <fix>3d</fix>
</trkpt>
<trkpt lat="40.0728633" lon="-105.230886">
  <ele>1595.51</ele>
  <time>2026-08-27T18:29:55Z</time>
  <course>106.27</course>
  <speed>0.03</speed>
  <fix>3d</fix>
</trkpt>
<trkpt lat="40.0728634" lon="-105.2308862">
  <ele>1595.56</ele>
  <time>2026-08-27T18:29:55Z</time>
  <course>342.05</course>
  <speed>0.01</speed>
  <fix>3d</fix>
</trkpt>
<trkpt lat="40.0728633" lon="-105.2308859">
  <ele>1595.51</ele>
  <time>2026-08-27T18:29:55Z</time>
  <course>104.23</course>
  <speed>0.03</speed>
  <fix>3d</fix>
</trkpt>
<trkpt lat="40.0728634" lon="-105.2308861">
  <ele>1595.56</ele>
  <time>2026-08-27T18:29:55Z</time>
  <course>340.8</course>
  <speed>0.01</speed>
  <fix>3d</fix>
</trkpt>
<trkpt lat="40.0728633" lon="-105.2308858">
  <ele>1595.51</ele>
  <time>2026-08-27T18:29:55Z</time>
  <course>103.16</course>
  <speed>0.03</speed>
  <fix>3d</fix>
</trkpt>
<trkpt lat="40.0728634" lon="-105.230886">
  <ele>1595.56</ele>
  <time>2026-08-27T18:29:55Z</time>
  <course>339.35</course>
  <speed>0.01</speed>
  <fix>3d</fix>
</trkpt>
<trkpt lat="40.0728633" lon="-105.2308858">
  <ele>1595.51</ele>
  <time>2026-08-27T18:29:55Z</time>
  <course>102.17</course>
  <speed>0.03</speed>
  <fix>3d</fix>
</trkpt>
<trkpt lat="40.0728634" lon="-105.2308859">
  <ele>1595.56</ele>
  <time>2026-08-27T18:29:55Z</time>
  <course>337.79</course>
  <speed>0.01</speed>
  <fix>3d</fix>
</trkpt>
<trkpt lat="40.0728633" lon="-105.2308857">
  <ele>1595.51</ele>
  <time>2026-08-27T18:29:55Z</time>
  <course>101.81</course>
  <speed>0.03</speed>
  <fix>3d</fix>
</trkpt>
<trkpt lat="40.0728634" lon="-105.2308858">
  <ele>1595.56</ele>
  <time>2026-08-27T18:29:55Z</time>
  <course>336.34</course>
  <speed>0.0</speed>
  <fix>3d</fix>
</trkpt>
<trkpt lat="40.0728633" lon="-105.2308856">
  <ele>1595.51</ele>
  <time>2026-08-27T18:29:55Z</time>
  <course>102.4</course>
  <speed>0.03</speed>
  <fix>3d</fix>
</trkpt>
<trkpt lat="40.0728634" lon="-105.2308858">
  <ele>1595.56</ele>
  <time>2026-08-27T18:29:55Z</time>
  <course>335.09</course>
  <speed>0.0</speed>
  <fix>3d</fix>
</trkpt>
<trkpt lat="40.0728633" lon="-105.2308855">
  <ele>1595.51</ele>
  <time>2026-08-27T18:29:55Z</time>
  <course>103.69</course>
  <speed>0.03</speed>
  <fix>3d</fix>
</trkpt>
<trkpt lat="40.0728634" lon="-105.2308857">
  <ele>1595.56</ele>
  <time>2026-08-27T18:29:55Z</time>
  <course>334.18</course>
  <speed>0.0</speed>
  <fix>3d</fix>
</trkpt>
<trkpt lat="40.0728633" lon="-105.2308855">
  <ele>1595.51</ele>
  <time>2026-08-27T18:29:55Z</time>
  <course>106.3</course>
  <speed>0.03</speed>
  <fix>3d</fix>
</trkpt>
<trkpt lat="40.0728633" lon="-105.2308856">
  <ele>1595.57</ele>
  <time>2026-08-27T18:29:55Z</time>
  <course>333.7</course>
  <speed>0.0</speed>
  <fix>3d</fix>
</trkpt>
<trkpt lat="40.0728633" lon="-105.2308854">
  <ele>1595.51</ele>
  <time>2026-08-27T18:29:55Z</time>
  <course>110.71</course>
  <speed>0.03</speed>
  <fix>3d</fix>
</trkpt>
<trkpt lat="40.0728633" lon="-105.2308856">
  <ele>1595.57</ele>
  <time>2026-08-27T18:29:55Z</time>
  <course>333.71</course>
  <speed>0.0</speed>
  <fix>3d</fix>
</trkpt>
<trkpt lat="40.0728632" lon="-105.2308853">
  <ele>1595.51</ele>
  <time>2026-08-27T18:29:55Z</time>
  <course>116.16</course>
  <speed>0.02</speed>
  <fix>3d</fix>
</trkpt>
<trkpt lat="40.0728633" lon="-105.2308855">
  <ele>1595.58</ele>
  <time>2026-08-27T18:29:55Z</time>
  <course>334.19</course>
  <speed>0.0</speed>
  <fix>3d</fix>
</trkpt>
<trkpt lat="40.0728632" lon="-105.2308853">
  <ele>1595.51</ele>
  <time>2026-08-27T18:29:55Z</time>
  <course>121.1</course>
  <speed>0.02</speed>
  <fix>3d</fix>
</trkpt>
<trkpt lat="40.0728633" lon="-105.2308855">
  <ele>1595.58</ele>
  <time>2026-08-27T18:29:55Z</time>
  <course>335.09</course>
  <speed>0.0</speed>
  <fix>3d</fix>
</trkpt>
<trkpt lat="40.0728632" lon="-105.2308852">
  <ele>1595.51</ele>
  <time>2026-08-27T18:29:55Z</time>
  <course>124.52</course>
  <speed>0.02</speed>
  <fix>3d</fix>
</trkpt>
<trkpt lat="40.0728632" lon="-105.2308854">
  <ele>1595.58</ele>
  <time>2026-08-27T18:29:55Z</time>
  <course>336.35</course>
  <speed>0.0</speed>
  <fix>3d</fix>
</trkpt>
<trkpt lat="40.0728632" lon="-105.2308851">
  <ele>1595.51</ele>
  <time>2026-08-27T18:29:55Z</time>
  <course>126.54</course>
  <speed>0.03</speed>
  <fix>3d</fix>
</trkpt>
<trkpt lat="40.0728632" lon="-105.2308853">
  <ele>1595.58</ele>
  <time>2026-08-27T18:29:55Z</time>
  <course>337.84</course>
  <speed>0.0</speed>
  <fix>3d</fix>
</trkpt>
<trkpt lat="40.0728631" lon="-105.2308851">
  <ele>1595.51</ele>
  <time>2026-08-27T18:29:55Z</time>
  <course>127.2</course>
  <speed>0.03</speed>
  <fix>3d</fix>
</trkpt>
<trkpt lat="40.0728632" lon="-105.2308853">
  <ele>1595.58</ele>
  <time>2026-08-27T18:29:55Z</time>
  <course>339.36</course>
  <speed>0.0</speed>
  <fix>3d</fix>
</trkpt>
<trkpt lat="40.0728631" lon="-105.230885">
  <ele>1595.5</ele>
  <time>2026-08-27T18:29:55Z</time>
  <course>126.09</course>
  <speed>0.03</speed>
  <fix>3d</fix>
</trkpt>
<trkpt lat="40.0728632" lon="-105.2308852">
  <ele>1595.58</ele>
  <time>2026-08-27T18:29:55Z</time>
  <course>340.83</course>
  <speed>0.0</speed>
  <fix>3d</fix>
</trkpt>
<trkpt lat="40.0728631" lon="-105.230885">
  <ele>1595.5</ele>
  <time>2026-08-27T18:29:55Z</time>
  <course>123.94</course>
  <speed>0.03</speed>
  <fix>3d</fix>
</trkpt>
<trkpt lat="40.0728631" lon="-105.2308852">
  <ele>1595.57</ele>
  <time>2026-08-27T18:29:55Z</time>
  <course>342.05</course>
  <speed>0.0</speed>
  <fix>3d</fix>
</trkpt>
<trkpt lat="40.072863" lon="-105.2308849">
  <ele>1595.49</ele>
  <time>2026-08-27T18:29:55Z</time>
  <course>121.03</course>
  <speed>0.03</speed>
  <fix>3d</fix>
</trkpt>
<trkpt lat="40.0728631" lon="-105.2308851">
  <ele>1595.57</ele>
  <time>2026-08-27T18:29:55Z</time>
  <course>342.98</course>
  <speed>0.0</speed>
  <fix>3d</fix>
</trkpt>
<trkpt lat="40.072863" lon="-105.2308848">
  <ele>1595.49</ele>
  <time>2026-08-27T18:29:55Z</time>
  <course>117.31</course>
  <speed>0.03</speed>
  <fix>3d</fix>
</trkpt>
<trkpt lat="40.0728631" lon="-105.230885">
  <ele>1595.57</ele>
  <time>2026-08-27T18:29:55Z</time>
  <course>343.46</course>
  <speed>0.01</speed>
  <fix>3d</fix>
</trkpt>
<trkpt lat="40.072863" lon="-105.2308848">
  <ele>1595.49</ele>
  <time>2026-08-27T18:29:55Z</time>
  <course>113.89</course>
  <speed>0.03</speed>
  <fix>3d</fix>
</trkpt>
<trkpt lat="40.0728631" lon="-105.2308849">
  <ele>1595.57</ele>
  <time>2026-08-27T18:29:55Z</time>
  <course>343.44</course>
  <speed>0.01</speed>
  <fix>3d</fix>
</trkpt>
<trkpt lat="40.0728629" lon="-105.2308847">
  <ele>1595.48</ele>
  <time>2026-08-27T18:29:55Z</time>
  <course>111.06</course>
  <speed>0.03</speed>
  <fix>3d</fix>
</trkpt>
<trkpt lat="40.072863" lon="-105.2308848">
  <ele>1595.57</ele>
  <time>2026-08-27T18:29:55Z</time>
  <course>342.97</course>
  <speed>0.01</speed>
  <fix>3d</fix>
</trkpt>
<trkpt lat="40.0728628" lon="-105.2308846">
  <ele>1595.48</ele>
  <time>2026-08-27T18:29:55Z</time>
  <course>108.01</course>
  <speed>0.03</speed>
  <fix>3d</fix>
</trkpt>
<trkpt lat="40.072863" lon="-105.2308847">
  <ele>1595.57</ele>
  <time>2026-08-27T18:29:55Z</time>
  <course>342.1</course>
  <speed>0.01</speed>
  <fix>3d</fix>
</trkpt>
<trkpt lat="40.0728628" lon="-105.2308845">
  <ele>1595.48</ele>
  <time>2026-08-27T18:29:55Z</time>
  <course>104.92</course>
  <speed>0.03</speed>
  <fix>3d</fix>
</trkpt>
<trkpt lat="40.072863" lon="-105.2308847">
  <ele>1595.57</ele>
  <time>2026-08-27T18:29:55Z</time>
  <course>340.88</course>
  <speed>0.01</speed>
  <fix>3d</fix>
</trkpt>
<trkpt lat="40.0728628" lon="-105.2308844">
  <ele>1595.48</ele>
  <time>2026-08-27T18:29:55Z</time>
  <course>102.57</course>
  <speed>0.03</speed>
  <fix>3d</fix>
</trkpt>
<trkpt lat="40.072863" lon="-105.2308846">
  <ele>1595.56</ele>
  <time>2026-08-27T18:29:55Z</time>
  <course>339.37</course>
  <speed>0.01</speed>
  <fix>3d</fix>
</trkpt>
<trkpt lat="40.0728628" lon="-105.2308843">
  <ele>1595.47</ele>
  <time>2026-08-27T18:29:55Z</time>
  <course>101.12</course>
  <speed>0.03</speed>
  <fix>3d</fix>
</trkpt>
<trkpt lat="40.0728629" lon="-105.2308845">
  <ele>1595.56</ele>
  <time>2026-08-27T18:29:55Z</time>
  <course>337.8</course>
  <speed>0.01</speed>
  <fix>3d</fix>
</trkpt>
<trkpt lat="40.0728628" lon="-105.2308842">
  <ele>1595.47</ele>
  <time>2026-08-27T18:29:55Z</time>
  <course>100.98</course>
  <speed>0.03</speed>
  <fix>3d</fix>
</trkpt>
<trkpt lat="40.0728629" lon="-105.2308844">
  <ele>1595.55</ele>
  <time>2026-08-27T18:29:55Z</time>
  <course>336.32</course>
  <speed>0.0</speed>
  <fix>3d</fix>
</trkpt>
<trkpt lat="40.0728628" lon="-105.2308841">
  <ele>1595.47</ele>
  <time>2026-08-27T18:29:55Z</time>
  <course>101.66</course>
  <speed>0.03</speed>
  <fix>3d</fix>
</trkpt>
<trkpt lat="40.0728629" lon="-105.2308843">
  <ele>1595.55</ele>
  <time>2026-08-27T18:29:55Z</time>
  <course>335.08</course>
  <speed>0.0</speed>
  <fix>3d</fix>
</trkpt>
<trkpt lat="40.0728627" lon="-105.2308841">
  <ele>1595.47</ele>
  <time>2026-08-27T18:29:55Z</time>
  <course>102.66</course>
  <speed>0.03</speed>
  <fix>3d</fix>
</trkpt>
<trkpt lat="40.0728629" lon="-105.2308842">
  <ele>1595.56</ele>
  <time>2026-08-27T18:29:55Z</time>
  <course>334.15</course>
  <speed>0.0</speed>
  <fix>3d</fix>
</trkpt>
<trkpt lat="40.0728627" lon="-105.230884">
  <ele>1595.47</ele>
  <time>2026-08-27T18:29:55Z</time>
  <course>104.76</course>
  <speed>0.03</speed>
  <fix>3d</fix>
</trkpt>
<trkpt lat="40.0728628" lon="-105.2308842">
  <ele>1595.56</ele>
  <time>2026-08-27T18:29:55Z</time>
  <course>333.7</course>
  <speed>0.0</speed>
  <fix>3d</fix>
</trkpt>
<trkpt lat="40.0728627" lon="-105.2308839">
  <ele>1595.47</ele>
  <time>2026-08-27T18:29:55Z</time>
  <course>107.86</course>
  <speed>0.03</speed>
  <fix>3d</fix>
</trkpt>
<trkpt lat="40.0728628" lon="-105.2308841">
  <ele>1595.56</ele>
  <time>2026-08-27T18:29:55Z</time>
  <course>333.7</course>
  <speed>0.0</speed>
  <fix>3d</fix>
</trkpt>
<trkpt lat="40.0728627" lon="-105.2308839">
  <ele>1595.47</ele>
  <time>2026-08-27T18:29:55Z</time>
  <course>111.51</course>
  <speed>0.03</speed>
  <fix>3d</fix>
</trkpt>
<trkpt lat="40.0728628" lon="-105.230884">
  <ele>1595.56</ele>
  <time>2026-08-27T18:29:55Z</time>
  <course>334.17</course>
  <speed>0.0</speed>
  <fix>3d</fix>
</trkpt>
<trkpt lat="40.0728627" lon="-105.2308838">
  <ele>1595.47</ele>
  <time>2026-08-27T18:29:55Z</time>
  <course>115.28</course>
  <speed>0.02</speed>
  <fix>3d</fix>
</trkpt>
<trkpt lat="40.0728628" lon="-105.230884">
  <ele>1595.56</ele>
  <time>2026-08-27T18:29:55Z</time>
  <course>335.09</course>
  <speed>0.0</speed>
  <fix>3d</fix>
</trkpt>
<trkpt lat="40.0728627" lon="-105.2308837">
  <ele>1595.47</ele>
  <time>2026-08-27T18:29:55Z</time>
  <course>118.79</course>
  <speed>0.02</speed>
  <fix>3d</fix>
</trkpt>
<trkpt lat="40.0728627" lon="-105.2308839">
  <ele>1595.56</ele>
  <time>2026-08-27T18:29:55Z</time>
  <course>336.32</course>
  <speed>0.0</speed>
  <fix>3d</fix>
</trkpt>
<trkpt lat="40.0728627" lon="-105.2308836">
  <ele>1595.47</ele>
  <time>2026-08-27T18:29:55Z</time>
  <course>121.51</course>
  <speed>0.02</speed>
  <fix>3d</fix>
</trkpt>
<trkpt lat="40.0728627" lon="-105.2308839">
  <ele>1595.57</ele>
  <time>2026-08-27T18:29:55Z</time>
  <course>337.8</course>
  <speed>0.0</speed>
  <fix>3d</fix>
</trkpt>
<trkpt lat="40.0728627" lon="-105.2308836">
  <ele>1595.47</ele>
  <time>2026-08-27T18:29:55Z</time>
  <course>123.2</course>
  <speed>0.02</speed>
  <fix>3d</fix>
</trkpt>
<trkpt lat="40.0728627" lon="-105.2308838">
  <ele>1595.56</ele>
  <time>2026-08-27T18:29:55Z</time>
  <course>339.33</course>
  <speed>0.0</speed>
  <fix>3d</fix>
</trkpt>
<trkpt lat="40.0728627" lon="-105.2308836">
  <ele>1595.47</ele>
  <time>2026-08-27T18:29:55Z</time>
  <course>123.93</course>
  <speed>0.02</speed>
  <fix>3d</fix>
</trkpt>
<trkpt lat="40.0728627" lon="-105.2308838">
  <ele>1595.56</ele>
  <time>2026-08-27T18:29:55Z</time>
  <course>340.8</course>
  <speed>0.0</speed>
  <fix>3d</fix>
</trkpt>
<trkpt lat="40.0728626" lon="-105.2308835">
  <ele>1595.47</ele>
  <time>2026-08-27T18:29:55Z</time>
  <course>124.09</course>
  <speed>0.03</speed>
  <fix>3d</fix>
</trkpt>
<trkpt lat="40.0728627" lon="-105.2308837">
  <ele>1595.56</ele>
  <time>2026-08-27T18:29:55Z</time>
  <course>342.02</course>
  <speed>0.0</speed>
  <fix>3d</fix>
</trkpt>
<trkpt lat="40.0728626" lon="-105.2308834">
  <ele>1595.47</ele>
  <time>2026-08-27T18:29:55Z</time>
  <course>123.39</course>
  <speed>0.03</speed>
  <fix>3d</fix>
</trkpt>
<trkpt lat="40.0728626" lon="-105.2308836">
  <ele>1595.56</ele>
  <time>2026-08-27T18:29:55Z</time>
  <course>342.95</course>
  <speed>0.0</speed>
  <fix>3d</fix>
</trkpt>
<trkpt lat="40.0728626" lon="-105.2308834">
  <ele>1595.47</ele>
  <time>2026-08-27T18:29:55Z</time>
  <course>121.04</course>
  <speed>0.03</speed>
  <fix>3d</fix>
</trkpt>
<trkpt lat="40.0728626" lon="-105.2308836">
  <ele>1595.56</ele>
  <time>2026-08-27T18:29:55Z</time>
  <course>343.41</course>
  <speed>0.0</speed>
  <fix>3d</fix>
</trkpt>
<trkpt lat="40.0728625" lon="-105.2308833">
  <ele>1595.47</ele>
  <time>2026-08-27T18:29:55Z</time>
  <course>117.33</course>
  <speed>0.03</speed>
  <fix>3d</fix>
</trkpt>
<trkpt lat="40.0728626" lon="-105.2308835">
  <ele>1595.55</ele>
  <time>2026-08-27T18:29:55Z</time>
  <course>343.43</course>
  <speed>0.01</speed>
  <fix>3d</fix>
</trkpt>
<trkpt lat="40.0728625" lon="-105.2308832">
  <ele>1595.47</ele>
  <time>2026-08-27T18:29:55Z</time>
  <course>113.28</course>
  <speed>0.03</speed>
  <fix>3d</fix>
</trkpt>
<trkpt lat="40.0728626" lon="-105.2308834">
  <ele>1595.55</ele>
  <time>2026-08-27T18:29:55Z</time>
  <course>342.95</course>
  <speed>0.01</speed>
  <fix>3d</fix>
</trkpt>
<trkpt lat="40.0728625" lon="-105.2308831">
  <ele>1595.47</ele>
  <time>2026-08-27T18:29:55Z</time>
  <course>109.59</course>
  <speed>0.03</speed>
  <fix>3d</fix>
</trkpt>
<trkpt lat="40.0728626" lon="-105.2308833">
  <ele>1595.55</ele>
  <time>2026-08-27T18:29:55Z</time>
  <course>342.04</course>
  <speed>0.01</speed>
  <fix>3d</fix>
</trkpt>
<trkpt lat="40.0728625" lon="-105.2308831">
  <ele>1595.47</ele>
  <time>2026-08-27T18:29:55Z</time>
  <course>106.62</course>
  <speed>0.03</speed>
  <fix>3d</fix>
</trkpt>
<trkpt lat="40.0728625" lon="-105.2308832">
  <ele>1595.55</ele>
  <time>2026-08-27T18:29:55Z</time>
  <course>340.78</course>
  <speed>0.01</speed>
  <fix>3d</fix>
</trkpt>
<trkpt lat="40.0728624" lon="-105.230883">
  <ele>1595.47</ele>
  <time>2026-08-27T18:29:55Z</time>
  <course>103.96</course>
  <speed>0.03</speed>
  <fix>3d</fix>
</trkpt>
<trkpt lat="40.0728625" lon="-105.2308831">
  <ele>1595.55</ele>
  <time>2026-08-27T18:29:55Z</time>
  <course>339.31</course>
  <speed>0.01</speed>
  <fix>3d</fix>
</trkpt>
<trkpt lat="40.0728624" lon="-105.2308829">
  <ele>1595.47</ele>
  <time>2026-08-27T18:29:55Z</time>
  <course>101.65</course>
  <speed>0.03</speed>
  <fix>3d</fix>
</trkpt>
<trkpt lat="40.0728625" lon="-105.230883">
  <ele>1595.56</ele>
  <time>2026-08-27T18:29:55Z</time>
  <course>337.8</course>
  <speed>0.01</speed>
  <fix>3d</fix>
</trkpt>
<trkpt lat="40.0728624" lon="-105.2308828">
  <ele>1595.47</ele>
  <time>2026-08-27T18:29:55Z</time>
  <course>100.56</course>
  <speed>0.03</speed>
  <fix>3d</fix>
</trkpt>
<trkpt lat="40.0728625" lon="-105.230883">
  <ele>1595.55</ele>
  <time>2026-08-27T18:29:55Z</time>
  <course>336.32</course>
  <speed>0.01</speed>
  <fix>3d</fix>
</trkpt>
<trkpt lat="40.0728624" lon="-105.2308827">
  <ele>1595.47</ele>
  <time>2026-08-27T18:29:55Z</time>
  <course>100.27</course>
  <speed>0.03</speed>
  <fix>3d</fix>
</trkpt>
<trkpt lat="40.0728625" lon="-105.2308829">
  <ele>1595.55</ele>
  <time>2026-08-27T18:29:55Z</time>
  <course>335.06</course>
  <speed>0.0</speed>
  <fix>3d</fix>
</trkpt>
<trkpt lat="40.0728624" lon="-105.2308826">
  <ele>1595.47</ele>
  <time>2026-08-27T18:29:55Z</time>
  <course>100.89</course>
  <speed>0.03</speed>
  <fix>3d</fix>
</trkpt>
<trkpt lat="40.0728625" lon="-105.2308828">
  <ele>1595.55</ele>
  <time>2026-08-27T18:29:55Z</time>
  <course>334.16</course>
  <speed>0.0</speed>
  <fix>3d</fix>
</trkpt>
<trkpt lat="40.0728624" lon="-105.2308825">
  <ele>1595.47</ele>
  <time>2026-08-27T18:29:55Z</time>
  <course>103.12</course>
  <speed>0.03</speed>
  <fix>3d</fix>
</trkpt>
<trkpt lat="40.0728625" lon="-105.2308827">
  <ele>1595.56</ele>
  <time>2026-08-27T18:29:55Z</time>
  <course>333.69</course>
  <speed>0.0</speed>
  <fix>3d</fix>
</trkpt>
<trkpt lat="40.0728624" lon="-105.2308824">
  <ele>1595.47</ele>
  <time>2026-08-27T18:29:55Z</time>
  <course>107.14</course>
  <speed>0.03</speed>
  <fix>3d</fix>
</trkpt>
<trkpt lat="40.0728625" lon="-105.2308827">
  <ele>1595.56</ele>
  <time>2026-08-27T18:29:55Z</time>
  <course>333.7</course>
  <speed>0.0</speed>
  <fix>3d</fix>
</trkpt>
<trkpt lat="40.0728623" lon="-105.2308824">
  <ele>1595.48</ele>
  <time>2026-08-27T18:29:55Z</time>
  <course>112.47</course>
  <speed>0.03</speed>
  <fix>3d</fix>
</trkpt>
<trkpt lat="40.0728624" lon="-105.2308826">
  <ele>1595.56</ele>
  <time>2026-08-27T18:29:55Z</time>
  <course>334.17</course>
  <speed>0.0</speed>
  <fix>3d</fix>
</trkpt>
<trkpt lat="40.0728623" lon="-105.2308824">
  <ele>1595.48</ele>
  <time>2026-08-27T18:29:55Z</time>
  <course>117.69</course>
  <speed>0.02</speed>
  <fix>3d</fix>
</trkpt>
<trkpt lat="40.0728624" lon="-105.2308825">
  <ele>1595.57</ele>
  <time>2026-08-27T18:29:55Z</time>
  <course>335.09</course>
  <speed>0.0</speed>
  <fix>3d</fix>
</trkpt>
<trkpt lat="40.0728623" lon="-105.2308823">
  <ele>1595.48</ele>
  <time>2026-08-27T18:29:55Z</time>
  <course>122.14</course>
  <speed>0.02</speed>
  <fix>3d</fix>
</trkpt>
<trkpt lat="40.0728624" lon="-105.2308825">
  <ele>1595.58</ele>
  <time>2026-08-27T18:29:55Z</time>
  <course>336.36</course>
  <speed>0.0</speed>
  <fix>3d</fix>
</trkpt>
<trkpt lat="40.0728623" lon="-105.2308822">
  <ele>1595.48</ele>
  <time>2026-08-27T18:29:55Z</time>
  <course>125.68</course>
  <speed>0.02</speed>
  <fix>3d</fix>
</trkpt>
<trkpt lat="40.0728623" lon="-105.2308824">
  <ele>1595.58</ele>
  <time>2026-08-27T18:29:55Z</time>
  <course>337.82</course>
  <speed>0.0</speed>
  <fix>3d</fix>
</trkpt>
<trkpt lat="40.0728622" lon="-105.2308822">
  <ele>1595.48</ele>
  <time>2026-08-27T18:29:55Z</time>
  <course>127.96</course>
  <speed>0.02</speed>
  <fix>3d</fix>
</trkpt>
<trkpt lat="40.0728623" lon="-105.2308824">
  <ele>1595.57</ele>
  <time>2026-08-27T18:29:55Z</time>
  <course>339.36</course>
  <speed>0.0</speed>
  <fix>3d</fix>
</trkpt>
<trkpt lat="40.0728621" lon="-105.2308821">
  <ele>1595.48</ele>
  <time>2026-08-27T18:29:55Z</time>
  <course>128.13</course>
  <speed>0.02</speed>
  <fix>3d</fix>
</trkpt>
<trkpt lat="40.0728623" lon="-105.2308823">
  <ele>1595.57</ele>
  <time>2026-08-27T18:29:55Z</time>
  <course>340.82</course>
  <speed>0.0</speed>
  <fix>3d</fix>
</trkpt>
<trkpt lat="40.0728621" lon="-105.2308821">
  <ele>1595.47</ele>
  <time>2026-08-27T18:29:55Z</time>
  <course>126.66</course>
  <speed>0.02</speed>
  <fix>3d</fix>
</trkpt>
<trkpt lat="40.0728622" lon="-105.2308823">
  <ele>1595.56</ele>
  <time>2026-08-27T18:29:55Z</time>
  <course>342.06</course>
  <speed>0.0</speed>
  <fix>3d</fix>
</trkpt>
<trkpt lat="40.0728621" lon="-105.230882">
  <ele>1595.47</ele>
  <time>2026-08-27T18:29:55Z</time>
  <course>124.13</course>
  <speed>0.03</speed>
  <fix>3d</fix>
</trkpt>
<trkpt lat="40.0728622" lon="-105.2308822">
  <ele>1595.56</ele>
  <time>2026-08-27T18:29:55Z</time>
  <course>342.96</course>
  <speed>0.0</speed>
  <fix>3d</fix>
</trkpt>
<trkpt lat="40.072862" lon="-105.2308819">
  <ele>1595.47</ele>
  <time>2026-08-27T18:29:55Z</time>
  <course>121.14</course>
  <speed>0.03</speed>
  <fix>3d</fix>
</trkpt>
<trkpt lat="40.0728622" lon="-105.2308821">
  <ele>1595.55</ele>
  <time>2026-08-27T18:29:55Z</time>
  <course>343.41</course>
  <speed>0.0</speed>
  <fix>3d</fix>
</trkpt>
<trkpt lat="40.072862" lon="-105.2308819">
  <ele>1595.47</ele>
  <time>2026-08-27T18:29:55Z</time>
  <course>117.92</course>
  <speed>0.03</speed>
  <fix>3d</fix>
</trkpt>
<trkpt lat="40.0728621" lon="-105.230882">
  <ele>1595.55</ele>
  <time>2026-08-27T18:29:55Z</time>
  <course>343.42</course>
  <speed>0.01</speed>
  <fix>3d</fix>
</trkpt>
<trkpt lat="40.072862" lon="-105.2308818">
  <ele>1595.47</ele>
  <time>2026-08-27T18:29:55Z</time>
  <course>114.38</course>
  <speed>0.03</speed>
  <fix>3d</fix>
</trkpt>
<trkpt lat="40.0728621" lon="-105.230882">
  <ele>1595.56</ele>
  <time>2026-08-27T18:29:55Z</time>
  <course>342.92</course>
  <speed>0.01</speed>
  <fix>3d</fix>
</trkpt>
<trkpt lat="40.072862" lon="-105.2308817">
  <ele>1595.47</ele>
  <time>2026-08-27T18:29:55Z</time>
  <course>110.44</course>
  <speed>0.03</speed>
  <fix>3d</fix>
</trkpt>
<trkpt lat="40.0728621" lon="-105.2308819">
  <ele>1595.56</ele>
  <time>2026-08-27T18:29:55Z</time>
  <course>342.04</course>
  <speed>0.01</speed>
  <fix>3d</fix>
</trkpt>
<trkpt lat="40.072862" lon="-105.2308816">
  <ele>1595.47</ele>
  <time>2026-08-27T18:29:55Z</time>
  <course>106.94</course>
  <speed>0.03</speed>
  <fix>3d</fix>
</trkpt>
<trkpt lat="40.0728621" lon="-105.2308818">
  <ele>1595.57</ele>
  <time>2026-08-27T18:29:55Z</time>
  <course>340.81</course>
  <speed>0.01</speed>
  <fix>3d</fix>
</trkpt>
<trkpt lat="40.072862" lon="-105.2308815">
  <ele>1595.47</ele>
  <time>2026-08-27T18:29:55Z</time>
  <course>104.82</course>
  <speed>0.03</speed>
  <fix>3d</fix>
</trkpt>
<trkpt lat="40.072862" lon="-105.2308817">
  <ele>1595.57</ele>
  <time>2026-08-27T18:29:55Z</time>
  <course>339.4</course>
  <speed>0.01</speed>
  <fix>3d</fix>
</trkpt>
<trkpt lat="40.072862" lon="-105.2308815">
  <ele>1595.47</ele>
  <time>2026-08-27T18:29:55Z</time>
  <course>103.51</course>
  <speed>0.03</speed>
  <fix>3d</fix>
</trkpt>
<trkpt lat="40.072862" lon="-105.2308816">
  <ele>1595.57</ele>
  <time>2026-08-27T18:29:55Z</time>
  <course>337.87</course>
  <speed>0.01</speed>
  <fix>3d</fix>
</trkpt>
<trkpt lat="40.072862" lon="-105.2308814">
  <ele>1595.47</ele>
  <time>2026-08-27T18:29:55Z</time>
  <course>102.63</course>
  <speed>0.03</speed>
  <fix>3d</fix>
</trkpt>
<trkpt lat="40.072862" lon="-105.2308815">
  <ele>1595.57</ele>
  <time>2026-08-27T18:29:55Z</time>
  <course>336.39</course>
  <speed>0.0</speed>
  <fix>3d</fix>
</trkpt>
<trkpt lat="40.0728619" lon="-105.2308813">
  <ele>1595.47</ele>
  <time>2026-08-27T18:29:55Z</time>
  <course>102.31</course>
  <speed>0.03</speed>
  <fix>3d</fix>
</trkpt>
<trkpt lat="40.072862" lon="-105.2308814">
  <ele>1595.56</ele>
  <time>2026-08-27T18:29:55Z</time>
  <course>335.11</course>
  <speed>0.0</speed>
  <fix>3d</fix>
</trkpt>
<trkpt lat="40.0728619" lon="-105.2308812">
  <ele>1595.46</ele>
  <time>2026-08-27T18:29:55Z</time>
  <course>103.43</course>
  <speed>0.03</speed>
  <fix>3d</fix>
</trkpt>
<trkpt lat="40.072862" lon="-105.2308814">
  <ele>1595.56</ele>
  <time>2026-08-27T18:29:55Z</time>
  <course>334.19</course>
  <speed>0.0</speed>
  <fix>3d</fix>
</trkpt>
<trkpt lat="40.0728619" lon="-105.2308811">
  <ele>1595.46</ele>
  <time>2026-08-27T18:29:55Z</time>
  <course>106.26</course>
  <speed>0.03</speed>
  <fix>3d</fix>
</trkpt>
<trkpt lat="40.072862" lon="-105.2308813">
  <ele>1595.56</ele>
  <time>2026-08-27T18:29:55Z</time>
  <course>333.69</course>
  <speed>0.0</speed>
  <fix>3d</fix>
</trkpt>
<trkpt lat="40.0728619" lon="-105.230881">
  <ele>1595.46</ele>
  <time>2026-08-27T18:29:55Z</time>
  <course>110.47</course>
  <speed>0.03</speed>
  <fix>3d</fix>
</trkpt>
<trkpt lat="40.072862" lon="-105.2308812">
  <ele>1595.55</ele>
  <time>2026-08-27T18:29:55Z</time>
  <course>333.7</course>
  <speed>0.0</speed>
  <fix>3d</fix>
</trkpt>
<trkpt lat="40.0728619" lon="-105.230881">
  <ele>1595.46</ele>
  <time>2026-08-27T18:29:55Z</time>
  <course>115.25</course>
  <speed>0.03</speed>
  <fix>3d</fix>
</trkpt>
<trkpt lat="40.0728619" lon="-105.2308812">
  <ele>1595.55</ele>
  <time>2026-08-27T18:29:55Z</time>
  <course>334.16</course>
  <speed>0.0</speed>
  <fix>3d</fix>
</trkpt>
<trkpt lat="40.0728618" lon="-105.2308809">
  <ele>1595.46</ele>
  <time>2026-08-27T18:29:55Z</time>
  <course>119.61</course>
  <speed>0.02</speed>
  <fix>3d</fix>
</trkpt>
<trkpt lat="40.0728619" lon="-105.2308811">
  <ele>1595.54</ele>
  <time>2026-08-27T18:29:55Z</time>
  <course>335.04</course>
  <speed>0.0</speed>
  <fix>3d</fix>
</trkpt>
<trkpt lat="40.0728618" lon="-105.2308808">
  <ele>1595.46</ele>
  <time>2026-08-27T18:29:55Z</time>
  <course>122.8</course>
  <speed>0.02</speed>
  <fix>3d</fix>
</trkpt>
<trkpt lat="40.0728619" lon="-105.2308811">
  <ele>1595.54</ele>
  <time>2026-08-27T18:29:55Z</time>
  <course>336.26</course>
  <speed>0.0</speed>
  <fix>3d</fix>
</trkpt>
<trkpt lat="40.0728618" lon="-105.2308808">
  <ele>1595.46</ele>
  <time>2026-08-27T18:29:55Z</time>
  <course>124.67</course>
  <speed>0.02</speed>
  <fix>3d</fix>
</trkpt>
<trkpt lat="40.0728618" lon="-105.230881">
  <ele>1595.54</ele>
  <time>2026-08-27T18:29:55Z</time>
  <course>337.71</course>
  <speed>0.0</speed>
  <fix>3d</fix>
</trkpt>
<trkpt lat="40.0728618" lon="-105.2308808">
  <ele>1595.46</ele>
  <time>2026-08-27T18:29:55Z</time>
  <course>125.46</course>
  <speed>0.03</speed>
  <fix>3d</fix>
</trkpt>
<trkpt lat="40.0728618" lon="-105.2308809">
  <ele>1595.55</ele>
  <time>2026-08-27T18:29:56Z</time>
  <course>339.27</course>
  <speed>0.0</speed>
  <fix>3d</fix>
</trkpt>
<trkpt lat="40.0728617" lon="-105.2308807">
  <ele>1595.47</ele>
  <time>2026-08-27T18:29:56Z</time>
  <course>125.2</course>
  <speed>0.03</speed>
  <fix>3d</fix>
</trkpt>
<trkpt lat="40.0728618" lon="-105.2308809">
  <ele>1595.55</ele>
  <time>2026-08-27T18:29:56Z</time>
  <course>340.72</course>
  <speed>0.0</speed>
  <fix>3d</fix>
</trkpt>
<trkpt lat="40.0728617" lon="-105.2308807">
  <ele>1595.47</ele>
  <time>2026-08-27T18:29:56Z</time>
  <course>123.86</course>
  <speed>0.03</speed>
  <fix>3d</fix>
</trkpt>
<trkpt lat="40.0728618" lon="-105.2308808">
  <ele>1595.55</ele>
  <time>2026-08-27T18:29:56Z</time>
  <course>341.99</course>
  <speed>0.0</speed>
  <fix>3d</fix>
</trkpt>
<trkpt lat="40.0728617" lon="-105.2308806">
  <ele>1595.48</ele>
  <time>2026-08-27T18:29:56Z</time>
  <course>121.21</course>
  <speed>0.03</speed>
  <fix>3d</fix>
</trkpt>
<trkpt lat="40.0728617" lon="-105.2308808">
  <ele>1595.55</ele>
  <time>2026-08-27T18:29:56Z</time>
  <course>342.92</course>
  <speed>0.0</speed>
  <fix>3d</fix>
</trkpt>
<trkpt lat="40.0728616" lon="-105.2308805">
  <ele>1595.48</ele>
  <time>2026-08-27T18:29:56Z</time>
  <course>117.92</course>
  <speed>0.03</speed>
  <fix>3d</fix>
</trkpt>
<trkpt lat="40.0728617" lon="-105.2308807">
  <ele>1595.55</ele>
  <time>2026-08-27T18:29:56Z</time>
  <course>343.4</course>
  <speed>0.0</speed>
  <fix>3d</fix>
</trkpt>
<trkpt lat="40.0728615" lon="-105.2308804">
  <ele>1595.48</ele>
  <time>2026-08-27T18:29:56Z</time>
  <course>114.11</course>
  <speed>0.03</speed>
  <fix>3d</fix>
</trkpt>
<trkpt lat="40.0728617" lon="-105.2308806">
  <ele>1595.55</ele>
  <time>2026-08-27T18:29:56Z</time>
  <course>343.41</course>
  <speed>0.01</speed>
  <fix>3d</fix>
</trkpt>
<trkpt lat="40.0728615" lon="-105.2308803">
  <ele>1595.49</ele>
  <time>2026-08-27T18:29:56Z</time>
  <course>110.23</course>
  <speed>0.03</speed>
  <fix>3d</fix>
</trkpt>
<trkpt lat="40.0728617" lon="-105.2308805">
  <ele>1595.54</ele>
  <time>2026-08-27T18:29:56Z</time>
  <course>342.89</course>
  <speed>0.01</speed>
  <fix>3d</fix>
</trkpt>
<trkpt lat="40.0728615" lon="-105.2308803">
  <ele>1595.49</ele>
  <time>2026-08-27T18:29:56Z</time>
  <course>107.19</course>
  <speed>0.03</speed>
  <fix>3d</fix>
</trkpt>
<trkpt lat="40.0728616" lon="-105.2308804">
  <ele>1595.54</ele>
  <time>2026-08-27T18:29:56Z</time>
  <course>341.99</course>
  <speed>0.01</speed>
  <fix>3d</fix>
</trkpt>
<trkpt lat="40.0728615" lon="-105.2308802">
  <ele>1595.49</ele>
  <time>2026-08-27T18:29:56Z</time>
  <course>104.65</course>
  <speed>0.03</speed>
  <fix>3d</fix>
</trkpt>
<trkpt lat="40.0728616" lon="-105.2308803">
  <ele>1595.55</ele>
  <time>2026-08-27T18:29:56Z</time>
  <course>340.75</course>
  <speed>0.01</speed>
  <fix>3d</fix>
</trkpt>
<trkpt lat="40.0728614" lon="-105.2308801">
  <ele>1595.49</ele>
  <time>2026-08-27T18:29:56Z</time>
  <course>102.35</course>
  <speed>0.03</speed>
  <fix>3d</fix>
</trkpt>
<trkpt lat="40.0728616" lon="-105.2308803">
  <ele>1595.56</ele>
  <time>2026-08-27T18:29:56Z</time>
  <course>339.31</course>
  <speed>0.01</speed>
  <fix>3d</fix>
</trkpt>
<trkpt lat="40.0728614" lon="-105.23088">
  <ele>1595.5</ele>
  <time>2026-08-27T18:29:56Z</time>
  <course>100.95</course>
  <speed>0.03</speed>
  <fix>3d</fix>
</trkpt>
<trkpt lat="40.0728616" lon="-105.2308802">
  <ele>1595.57</ele>
  <time>2026-08-27T18:29:56Z</time>
  <course>337.8</course>
  <speed>0.01</speed>
  <fix>3d</fix>
</trkpt>
<trkpt lat="40.0728614" lon="-105.2308799">
  <ele>1595.5</ele>
  <time>2026-08-27T18:29:56Z</time>
  <course>100.67</course>
  <speed>0.03</speed>
  <fix>3d</fix>
</trkpt>
<trkpt lat="40.0728616" lon="-105.2308801">
  <ele>1595.58</ele>
  <time>2026-08-27T18:29:56Z</time>
  <course>336.35</course>
  <speed>0.0</speed>
  <fix>3d</fix>
</trkpt>
<trkpt lat="40.0728614" lon="-105.2308798">
  <ele>1595.51</ele>
  <time>2026-08-27T18:29:56Z</time>
  <course>100.88</course>
  <speed>0.03</speed>
  <fix>3d</fix>
</trkpt>
<trkpt lat="40.0728615" lon="-105.23088">
  <ele>1595.58</ele>
  <time>2026-08-27T18:29:56Z</time>
  <course>335.14</course>
  <speed>0.0</speed>
  <fix>3d</fix>
</trkpt>
<trkpt lat="40.0728614" lon="-105.2308798">
  <ele>1595.51</ele>
  <time>2026-08-27T18:29:56Z</time>
  <course>102.48</course>
  <speed>0.03</speed>
  <fix>3d</fix>
</trkpt>
<trkpt lat="40.0728615" lon="-105.2308799">
  <ele>1595.58</ele>
  <time>2026-08-27T18:29:56Z</time>
  <course>334.23</course>
  <speed>0.0</speed>
  <fix>3d</fix>
</trkpt>
<trkpt lat="40.0728614" lon="-105.2308797">
  <ele>1595.51</ele>
  <time>2026-08-27T18:29:56Z</time>
  <course>105.01</course>
  <speed>0.03</speed>
  <fix>3d</fix>
</trkpt>
<trkpt lat="40.0728615" lon="-105.2308799">
  <ele>1595.58</ele>
  <time>2026-08-27T18:29:56Z</time>
  <course>333.75</course>
  <speed>0.0</speed>
  <fix>3d</fix>
</trkpt>
<trkpt lat="40.0728614" lon="-105.2308796">
  <ele>1595.5</ele>
  <time>2026-08-27T18:29:56Z</time>
  <course>107.43</course>
  <speed>0.02</speed>
  <fix>3d</fix>
</trkpt>
<trkpt lat="40.0728615" lon="-105.2308798">
  <ele>1595.58</ele>
  <time>2026-08-27T18:29:56Z</time>
  <course>333.72</course>
  <speed>0.0</speed>
  <fix>3d</fix>
</trkpt>
<trkpt lat="40.0728614" lon="-105.2308796">
  <ele>1595.5</ele>
  <time>2026-08-27T18:29:56Z</time>
  <course>110.9</course>
  <speed>0.02</speed>
  <fix>3d</fix>
</trkpt>
<trkpt lat="40.0728615" lon="-105.2308798">
  <ele>1595.57</ele>
  <time>2026-08-27T18:29:56Z</time>
  <course>333.75</course>
  <speed>0.0</speed>
  <fix>3d</fix>
</trkpt>
<trkpt lat="40.0728614" lon="-105.2308795">
  <ele>1595.5</ele>
  <time>2026-08-27T18:29:56Z</time>
  <course>112.91</course>
  <speed>0.02</speed>
  <fix>3d</fix>
</trkpt>
<trkpt lat="40.0728614" lon="-105.2308797">
  <ele>1595.57</ele>
  <time>2026-08-27T18:29:56Z</time>
  <course>333.75</course>
  <speed>0.0</speed>
  <fix>3d</fix>
</trkpt>
<trkpt lat="40.0728614" lon="-105.2308795">
  <ele>1595.49</ele>
  <time>2026-08-27T18:29:56Z</time>
  <course>112.25</course>
  <speed>0.03</speed>
  <fix>3d</fix>
</trkpt>
<trkpt lat="40.0728614" lon="-105.2308796">
  <ele>1595.57</ele>
  <time>2026-08-27T18:29:56Z</time>
  <course>333.73</course>
  <speed>0.0</speed>
  <fix>3d</fix>
</trkpt>
<trkpt lat="40.0728614" lon="-105.2308794">
  <ele>1595.49</ele>
  <time>2026-08-27T18:29:56Z</time>
  <course>110.8</course>
  <speed>0.03</speed>
  <fix>3d</fix>
</trkpt>
<trkpt lat="40.0728614" lon="-105.2308796">
  <ele>1595.57</ele>
  <time>2026-08-27T18:29:56Z</time>
  <course>333.73</course>
  <speed>0.0</speed>
  <fix>3d</fix>
</trkpt>
<trkpt lat="40.0728614" lon="-105.2308793">
  <ele>1595.49</ele>
  <time>2026-08-27T18:29:56Z</time>
  <course>109.66</course>
  <speed>0.03</speed>
  <fix>3d</fix>
</trkpt>
<trkpt lat="40.0728614" lon="-105.2308795">
  <ele>1595.57</ele>
  <time>2026-08-27T18:29:56Z</time>
  <course>333.74</course>
  <speed>0.0</speed>
  <fix>3d</fix>
</trkpt>
<trkpt lat="40.0728613" lon="-105.2308792">
  <ele>1595.49</ele>
  <time>2026-08-27T18:29:56Z</time>
  <course>109.43</course>
  <speed>0.03</speed>
  <fix>3d</fix>
</trkpt>
<trkpt lat="40.0728614" lon="-105.2308794">
  <ele>1595.57</ele>
  <time>2026-08-27T18:29:56Z</time>
  <course>333.75</course>
  <speed>0.0</speed>
  <fix>3d</fix>
</trkpt>
<trkpt lat="40.0728613" lon="-105.2308791">
  <ele>1595.48</ele>
  <time>2026-08-27T18:29:56Z</time>
  <course>109.61</course>
  <speed>0.03</speed>
  <fix>3d</fix>
</trkpt>
<trkpt lat="40.0728614" lon="-105.2308793">
  <ele>1595.57</ele>
  <time>2026-08-27T18:29:56Z</time>
  <course>333.76</course>
  <speed>0.01</speed>
  <fix>3d</fix>
</trkpt>
<trkpt lat="40.0728613" lon="-105.2308791">
  <ele>1595.48</ele>
  <time>2026-08-27T18:29:56Z</time>
  <course>109.45</course>
  <speed>0.03</speed>
  <fix>3d</fix>
</trkpt>
<trkpt lat="40.0728613" lon="-105.2308792">
  <ele>1595.56</ele>
  <time>2026-08-27T18:29:56Z</time>
  <course>333.74</course>
  <speed>0.01</speed>
  <fix>3d</fix>
</trkpt>
<trkpt lat="40.0728613" lon="-105.230879">
  <ele>1595.48</ele>
  <time>2026-08-27T18:29:56Z</time>
  <course>109.29</course>
  <speed>0.03</speed>
  <fix>3d</fix>
</trkpt>
<trkpt lat="40.0728613" lon="-105.2308791">
  <ele>1595.56</ele>
  <time>2026-08-27T18:29:56Z</time>
  <course>333.74</course>
  <speed>0.01</speed>
  <fix>3d</fix>
</trkpt>
<trkpt lat="40.0728612" lon="-105.2308789">
  <ele>1595.48</ele>
  <time>2026-08-27T18:29:56Z</time>
  <course>109.41</course>
  <speed>0.03</speed>
  <fix>3d</fix>
</trkpt>
<trkpt lat="40.0728613" lon="-105.2308791">
  <ele>1595.56</ele>
  <time>2026-08-27T18:29:56Z</time>
  <course>333.74</course>
  <speed>0.01</speed>
  <fix>3d</fix>
</trkpt>
<trkpt lat="40.0728612" lon="-105.2308788">
  <ele>1595.48</ele>
  <time>2026-08-27T18:29:56Z</time>
  <course>109.46</course>
  <speed>0.04</speed>
  <fix>3d</fix>
</trkpt>
<trkpt lat="40.0728613" lon="-105.230879">
  <ele>1595.56</ele>
  <time>2026-08-27T18:29:56Z</time>
  <course>333.74</course>
  <speed>0.01</speed>
  <fix>3d</fix>
</trkpt>
<trkpt lat="40.0728612" lon="-105.2308787">
  <ele>1595.48</ele>
  <time>2026-08-27T18:29:56Z</time>
  <course>109.59</course>
  <speed>0.04</speed>
  <fix>3d</fix>
</trkpt>
<trkpt lat="40.0728613" lon="-105.2308789">
  <ele>1595.56</ele>
  <time>2026-08-27T18:29:56Z</time>
  <course>333.75</course>
  <speed>0.01</speed>
  <fix>3d</fix>
</trkpt>
<trkpt lat="40.0728612" lon="-105.2308786">
  <ele>1595.48</ele>
  <time>2026-08-27T18:29:56Z</time>
  <course>109.94</course>
  <speed>0.04</speed>
  <fix>3d</fix>
</trkpt>
<trkpt lat="40.0728612" lon="-105.2308788">
  <ele>1595.56</ele>
  <time>2026-08-27T18:29:56Z</time>
  <course>333.75</course>
  <speed>0.01</speed>
  <fix>3d</fix>
</trkpt>
<trkpt lat="40.0728611" lon="-105.2308785">
  <ele>1595.47</ele>
  <time>2026-08-27T18:29:56Z</time>
  <course>110.6</course>
  <speed>0.04</speed>
  <fix>3d</fix>
</trkpt>
<trkpt lat="40.0728612" lon="-105.2308787">
  <ele>1595.55</ele>
  <time>2026-08-27T18:29:56Z</time>
  <course>333.74</course>
  <speed>0.01</speed>
  <fix>3d</fix>
</trkpt>
<trkpt lat="40.0728611" lon="-105.2308784">
  <ele>1595.47</ele>
  <time>2026-08-27T18:29:56Z</time>
  <course>110.83</course>
  <speed>0.04</speed>
  <fix>3d</fix>
</trkpt>
<trkpt lat="40.0728612" lon="-105.2308786">
  <ele>1595.55</ele>
  <time>2026-08-27T18:29:56Z</time>
  <course>333.74</course>
  <speed>0.01</speed>
  <fix>3d</fix>
</trkpt>
<trkpt lat="40.0728611" lon="-105.2308783">
  <ele>1595.47</ele>
  <time>2026-08-27T18:29:56Z</time>
  <course>110.62</course>
  <speed>0.04</speed>
  <fix>3d</fix>
</trkpt>
<trkpt lat="40.0728611" lon="-105.2308785">
  <ele>1595.55</ele>
  <time>2026-08-27T18:29:56Z</time>
  <course>333.72</course>
  <speed>0.01</speed>
  <fix>3d</fix>
</trkpt>
<trkpt lat="40.0728611" lon="-105.2308782">
  <ele>1595.47</ele>
  <time>2026-08-27T18:29:56Z</time>
  <course>110.79</course>
  <speed>0.04</speed>
  <fix>3d</fix>
</trkpt>
<trkpt lat="40.0728611" lon="-105.2308783">
  <ele>1595.55</ele>
  <time>2026-08-27T18:29:56Z</time>
  <course>333.24</course>
  <speed>0.02</speed>
  <fix>3d</fix>
</trkpt>
<trkpt lat="40.072861" lon="-105.2308781">
  <ele>1595.47</ele>
  <time>2026-08-27T18:29:56Z</time>
  <course>109.65</course>
  <speed>0.04</speed>
  <fix>3d</fix>
</trkpt>
<trkpt lat="40.0728611" lon="-105.2308782">
  <ele>1595.55</ele>
  <time>2026-08-27T18:29:56Z</time>
  <course>331.97</course>
  <speed>0.02</speed>
  <fix>3d</fix>
</trkpt>
<trkpt lat="40.0728609" lon="-105.230878">
  <ele>1595.47</ele>
  <time>2026-08-27T18:29:56Z</time>
  <course>107.24</course>
  <speed>0.05</speed>
  <fix>3d</fix>
</trkpt>
<trkpt lat="40.0728611" lon="-105.2308781">
  <ele>1595.55</ele>
  <time>2026-08-27T18:29:56Z</time>
  <course>330.64</course>
  <speed>0.02</speed>
  <fix>3d</fix>
</trkpt>
<trkpt lat="40.0728609" lon="-105.2308779">
  <ele>1595.48</ele>
  <time>2026-08-27T18:29:56Z</time>
  <course>106.42</course>
  <speed>0.05</speed>
  <fix>3d</fix>
</trkpt>
<trkpt lat="40.072861" lon="-105.230878">
  <ele>1595.55</ele>
  <time>2026-08-27T18:29:56Z</time>
  <course>329.59</course>
  <speed>0.01</speed>
  <fix>3d</fix>
</trkpt>
<trkpt lat="40.0728609" lon="-105.2308778">
  <ele>1595.48</ele>
  <time>2026-08-27T18:29:56Z</time>
  <course>107.6</course>
  <speed>0.04</speed>
  <fix>3d</fix>
</trkpt>
<trkpt lat="40.072861" lon="-105.2308779">
  <ele>1595.56</ele>
  <time>2026-08-27T18:29:56Z</time>
  <course>328.97</course>
  <speed>0.01</speed>
  <fix>3d</fix>
</trkpt>
<trkpt lat="40.0728608" lon="-105.2308777">
  <ele>1595.48</ele>
  <time>2026-08-27T18:29:56Z</time>
  <course>109.79</course>
  <speed>0.04</speed>
  <fix>3d</fix>
</trkpt>
<trkpt lat="40.072861" lon="-105.2308778">
  <ele>1595.56</ele>
  <time>2026-08-27T18:29:56Z</time>
  <course>328.82</course>
  <speed>0.01</speed>
  <fix>3d</fix>
</trkpt>
<trkpt lat="40.0728608" lon="-105.2308776">
  <ele>1595.48</ele>
  <time>2026-08-27T18:29:56Z</time>
  <course>112.28</course>
  <speed>0.04</speed>
  <fix>3d</fix>
</trkpt>
<trkpt lat="40.0728609" lon="-105.2308777">
  <ele>1595.57</ele>
  <time>2026-08-27T18:29:56Z</time>
  <course>329.12</course>
  <speed>0.0</speed>
  <fix>3d</fix>
</trkpt>
<trkpt lat="40.0728608" lon="-105.2308775">
  <ele>1595.49</ele>
  <time>2026-08-27T18:29:56Z</time>
  <course>114.5</course>
  <speed>0.03</speed>
  <fix>3d</fix>
</trkpt>
<trkpt lat="40.0728609" lon="-105.2308777">
  <ele>1595.56</ele>
  <time>2026-08-27T18:29:56Z</time>
  <course>329.88</course>
  <speed>0.01</speed>
  <fix>3d</fix>
</trkpt>
<trkpt lat="40.0728608" lon="-105.2308774">
  <ele>1595.49</ele>
  <time>2026-08-27T18:29:56Z</time>
  <course>116.98</course>
  <speed>0.03</speed>
  <fix>3d</fix>
</trkpt>
<trkpt lat="40.0728608" lon="-105.2308776">
  <ele>1595.56</ele>
  <time>2026-08-27T18:29:56Z</time>
  <course>331.01</course>
  <speed>0.01</speed>
  <fix>3d</fix>
</trkpt>
<trkpt lat="40.0728608" lon="-105.2308773">
  <ele>1595.49</ele>
  <time>2026-08-27T18:29:56Z</time>
  <course>120.11</course>
  <speed>0.03</speed>
  <fix>3d</fix>
</trkpt>
<trkpt lat="40.0728608" lon="-105.2308775">
  <ele>1595.56</ele>
  <time>2026-08-27T18:29:56Z</time>
  <course>332.41</course>
  <speed>0.01</speed>
  <fix>3d</fix>
</trkpt>
<trkpt lat="40.0728608" lon="-105.2308772">
  <ele>1595.49</ele>
  <time>2026-08-27T18:29:56Z</time>
  <course>122.93</course>
  <speed>0.03</speed>
  <fix>3d</fix>
</trkpt>
<trkpt lat="40.0728608" lon="-105.2308775">
  <ele>1595.56</ele>
  <time>2026-08-27T18:29:56Z</time>
  <course>333.94</course>
  <speed>0.01</speed>
  <fix>3d</fix>
</trkpt>
<trkpt lat="40.0728607" lon="-105.2308772">
  <ele>1595.49</ele>
  <time>2026-08-27T18:29:56Z</time>
  <course>124.28</course>
  <speed>0.03</speed>
  <fix>3d</fix>
</trkpt>
<trkpt lat="40.0728608" lon="-105.2308774">
  <ele>1595.56</ele>
  <time>2026-08-27T18:29:56Z</time>
  <course>335.43</course>
  <speed>0.01</speed>
  <fix>3d</fix>
</trkpt>
<trkpt lat="40.0728607" lon="-105.2308772">
  <ele>1595.49</ele>
  <time>2026-08-27T18:29:56Z</time>
  <course>123.44</course>
  <speed>0.03</speed>
  <fix>3d</fix>
</trkpt>
<trkpt lat="40.0728607" lon="-105.2308773">
  <ele>1595.56</ele>
  <time>2026-08-27T18:29:56Z</time>
  <course>336.78</course>
  <speed>0.0</speed>
  <fix>3d</fix>
</trkpt>
<trkpt lat="40.0728607" lon="-105.2308771">
  <ele>1595.49</ele>
  <time>2026-08-27T18:29:56Z</time>
  <course>120.96</course>
  <speed>0.03</speed>
  <fix>3d</fix>
</trkpt>
<trkpt lat="40.0728607" lon="-105.2308773">
  <ele>1595.56</ele>
  <time>2026-08-27T18:29:56Z</time>
  <course>337.82</course>
  <speed>0.0</speed>
  <fix>3d</fix>
</trkpt>
<trkpt lat="40.0728606" lon="-105.230877">
  <ele>1595.49</ele>
  <time>2026-08-27T18:29:56Z</time>
  <course>117.28</course>
  <speed>0.03</speed>
  <fix>3d</fix>
</trkpt>
<trkpt lat="40.0728607" lon="-105.2308772">
  <ele>1595.56</ele>
  <time>2026-08-27T18:29:56Z</time>
  <course>338.47</course>
  <speed>0.0</speed>
  <fix>3d</fix>
</trkpt>
<trkpt lat="40.0728606" lon="-105.2308769">
  <ele>1595.49</ele>
  <time>2026-08-27T18:29:56Z</time>
  <course>113.05</course>
  <speed>0.03</speed>
  <fix>3d</fix>
</trkpt>
<trkpt lat="40.0728607" lon="-105.2308771">
  <ele>1595.56</ele>
  <time>2026-08-27T18:29:56Z</time>
  <course>338.65</course>
  <speed>0.0</speed>
  <fix>3d</fix>
</trkpt>
<trkpt lat="40.0728606" lon="-105.2308769">
  <ele>1595.49</ele>
  <time>2026-08-27T18:29:56Z</time>
  <course>108.67</course>
  <speed>0.03</speed>
  <fix>3d</fix>
</trkpt>
<trkpt lat="40.0728607" lon="-105.230877">
  <ele>1595.56</ele>
  <time>2026-08-27T18:29:56Z</time>
  <course>338.34</course>
  <speed>0.0</speed>
  <fix>3d</fix>
</trkpt>
<trkpt lat="40.0728606" lon="-105.2308768">
  <ele>1595.49</ele>
  <time>2026-08-27T18:29:56Z</time>
  <course>104.11</course>
  <speed>0.03</speed>
  <fix>3d</fix>
</trkpt>
<trkpt lat="40.0728607" lon="-105.230877">
  <ele>1595.56</ele>
  <time>2026-08-27T18:29:56Z</time>
  <course>337.6</course>
  <speed>0.01</speed>
  <fix>3d</fix>
</trkpt>
<trkpt lat="40.0728606" lon="-105.2308767">
  <ele>1595.49</ele>
  <time>2026-08-27T18:29:56Z</time>
  <course>100.56</course>
  <speed>0.03</speed>
  <fix>3d</fix>
</trkpt>
<trkpt lat="40.0728606" lon="-105.2308769">
  <ele>1595.56</ele>
  <time>2026-08-27T18:29:56Z</time>
  <course>336.47</course>
  <speed>0.01</speed>
  <fix>3d</fix>
</trkpt>
<trkpt lat="40.0728606" lon="-105.2308766">
  <ele>1595.49</ele>
  <time>2026-08-27T18:29:56Z</time>
  <course>98.58</course>
  <speed>0.03</speed>
  <fix>3d</fix>
</trkpt>
<trkpt lat="40.0728606" lon="-105.2308768">
  <ele>1595.57</ele>
  <time>2026-08-27T18:29:56Z</time>
  <course>335.09</course>
  <speed>0.01</speed>
  <fix>3d</fix>
</trkpt>
<trkpt lat="40.0728606" lon="-105.2308765">
  <ele>1595.49</ele>
  <time>2026-08-27T18:29:56Z</time>
  <course>97.5</course>
  <speed>0.03</speed>
  <fix>3d</fix>
</trkpt>
<trkpt lat="40.0728606" lon="-105.2308767">
  <ele>1595.57</ele>
  <time>2026-08-27T18:29:56Z</time>
  <course>333.58</course>
  <speed>0.01</speed>
  <fix>3d</fix>
</trkpt>
<trkpt lat="40.0728606" lon="-105.2308764">
  <ele>1595.48</ele>
  <time>2026-08-27T18:29:56Z</time>
  <course>96.7</course>
  <speed>0.03</speed>
  <fix>3d</fix>
</trkpt>
<trkpt lat="40.0728606" lon="-105.2308766">
  <ele>1595.56</ele>
  <time>2026-08-27T18:29:56Z</time>
  <course>332.06</course>
  <speed>0.0</speed>
  <fix>3d</fix>
</trkpt>
<trkpt lat="40.0728605" lon="-105.2308764">
  <ele>1595.48</ele>
  <time>2026-08-27T18:29:56Z</time>
  <course>96.6</course>
  <speed>0.03</speed>
  <fix>3d</fix>
</trkpt>
<trkpt lat="40.0728606" lon="-105.2308765">
  <ele>1595.56</ele>
  <time>2026-08-27T18:29:56Z</time>
  <course>330.69</course>
  <speed>0.0</speed>
  <fix>3d</fix>
</trkpt>
<trkpt lat="40.0728605" lon="-105.2308763">
  <ele>1595.48</ele>
  <time>2026-08-27T18:29:56Z</time>
  <course>97.87</course>
  <speed>0.03</speed>
  <fix>3d</fix>
</trkpt>
<trkpt lat="40.0728606" lon="-105.2308765">
  <ele>1595.56</ele>
  <time>2026-08-27T18:29:56Z</time>
  <course>329.62</course>
  <speed>0.0</speed>
  <fix>3d</fix>
</trkpt>
<trkpt lat="40.0728605" lon="-105.2308762">
  <ele>1595.48</ele>
  <time>2026-08-27T18:29:56Z</time>
  <course>100.28</course>
  <speed>0.03</speed>
  <fix>3d</fix>
</trkpt>
<trkpt lat="40.0728606" lon="-105.2308764">
  <ele>1595.56</ele>
  <time>2026-08-27T18:29:56Z</time>
  <course>328.99</course>
  <speed>0.0</speed>
  <fix>3d</fix>
</trkpt>
<trkpt lat="40.0728605" lon="-105.2308761">
  <ele>1595.48</ele>
  <time>2026-08-27T18:29:56Z</time>
  <course>103.52</course>
  <speed>0.03</speed>
  <fix>3d</fix>
</trkpt>
<trkpt lat="40.0728606" lon="-105.2308763">
  <ele>1595.56</ele>
  <time>2026-08-27T18:29:56Z</time>
  <course>328.8</course>
  <speed>0.0</speed>
  <fix>3d</fix>
</trkpt>
<trkpt lat="40.0728605" lon="-105.230876">
  <ele>1595.48</ele>
  <time>2026-08-27T18:29:56Z</time>
  <course>107.32</course>
  <speed>0.03</speed>
  <fix>3d</fix>
</trkpt>
<trkpt lat="40.0728606" lon="-105.2308762">
  <ele>1595.56</ele>
  <time>2026-08-27T18:29:56Z</time>
  <course>329.09</course>
  <speed>0.0</speed>
  <fix>3d</fix>
</trkpt>
<trkpt lat="40.0728605" lon="-105.230876">
  <ele>1595.48</ele>
  <time>2026-08-27T18:29:56Z</time>
  <course>111.35</course>
  <speed>0.03</speed>
  <fix>3d</fix>
</trkpt>
<trkpt lat="40.0728605" lon="-105.2308762">
  <ele>1595.56</ele>
  <time>2026-08-27T18:29:56Z</time>
  <course>329.84</course>
  <speed>0.0</speed>
  <fix>3d</fix>
</trkpt>
<trkpt lat="40.0728605" lon="-105.2308759">
  <ele>1595.48</ele>
  <time>2026-08-27T18:29:56Z</time>
  <course>115.36</course>
  <speed>0.02</speed>
  <fix>3d</fix>
</trkpt>
<trkpt lat="40.0728605" lon="-105.2308761">
  <ele>1595.55</ele>
  <time>2026-08-27T18:29:56Z</time>
  <course>331.01</course>
  <speed>0.0</speed>
  <fix>3d</fix>
</trkpt>
<trkpt lat="40.0728604" lon="-105.2308759">
  <ele>1595.48</ele>
  <time>2026-08-27T18:29:56Z</time>
  <course>119.06</course>
  <speed>0.02</speed>
  <fix>3d</fix>
</trkpt>
<trkpt lat="40.0728605" lon="-105.2308761">
  <ele>1595.55</ele>
  <time>2026-08-27T18:29:56Z</time>
  <course>332.41</course>
  <speed>0.0</speed>
  <fix>3d</fix>
</trkpt>
<trkpt lat="40.0728603" lon="-105.2308758">
  <ele>1595.48</ele>
  <time>2026-08-27T18:29:56Z</time>
  <course>121.46</course>
  <speed>0.02</speed>
  <fix>3d</fix>
</trkpt>
<trkpt lat="40.0728605" lon="-105.230876">
  <ele>1595.56</ele>
  <time>2026-08-27T18:29:56Z</time>
  <course>333.91</course>
  <speed>0.0</speed>
  <fix>3d</fix>
</trkpt>
<trkpt lat="40.0728603" lon="-105.2308757">
  <ele>1595.48</ele>
  <time>2026-08-27T18:29:56Z</time>
  <course>122.27</course>
  <speed>0.03</speed>
  <fix>3d</fix>
</trkpt>
<trkpt lat="40.0728604" lon="-105.2308759">
  <ele>1595.56</ele>
  <time>2026-08-27T18:29:56Z</time>
  <course>335.4</course>
  <speed>0.0</speed>
  <fix>3d</fix>
</trkpt>
<trkpt lat="40.0728603" lon="-105.2308757">
  <ele>1595.49</ele>
  <time>2026-08-27T18:29:56Z</time>
  <course>121.92</course>
  <speed>0.03</speed>
  <fix>3d</fix>
</trkpt>
<trkpt lat="40.0728604" lon="-105.2308759">
  <ele>1595.56</ele>
  <time>2026-08-27T18:29:56Z</time>
  <course>336.78</course>
  <speed>0.0</speed>
  <fix>3d</fix>
</trkpt>
<trkpt lat="40.0728602" lon="-105.2308756">
  <ele>1595.49</ele>
  <time>2026-08-27T18:29:56Z</time>
  <course>120.96</course>
  <speed>0.03</speed>
  <fix>3d</fix>
</trkpt>
<trkpt lat="40.0728603" lon="-105.2308758">
  <ele>1595.56</ele>
  <time>2026-08-27T18:29:56Z</time>
  <course>337.83</course>
  <speed>0.0</speed>
  <fix>3d</fix>
</trkpt>
<trkpt lat="40.0728602" lon="-105.2308755">
  <ele>1595.49</ele>
  <time>2026-08-27T18:29:56Z</time>
  <course>119.41</course>
  <speed>0.03</speed>
  <fix>3d</fix>
</trkpt>
<trkpt lat="40.0728603" lon="-105.2308757">
  <ele>1595.55</ele>
  <time>2026-08-27T18:29:56Z</time>
  <course>338.47</course>
  <speed>0.0</speed>
  <fix>3d</fix>
</trkpt>
<trkpt lat="40.0728602" lon="-105.2308755">
  <ele>1595.49</ele>
  <time>2026-08-27T18:29:56Z</time>
  <course>116.36</course>
  <speed>0.03</speed>
  <fix>3d</fix>
</trkpt>
<trkpt lat="40.0728603" lon="-105.2308756">
  <ele>1595.55</ele>
  <time>2026-08-27T18:29:56Z</time>
  <course>338.65</course>
  <speed>0.01</speed>
  <fix>3d</fix>
</trkpt>
<trkpt lat="40.0728602" lon="-105.2308754">
  <ele>1595.49</ele>
  <time>2026-08-27T18:29:56Z</time>
  <course>112.52</course>
  <speed>0.03</speed>
  <fix>3d</fix>
</trkpt>
<trkpt lat="40.0728603" lon="-105.2308756">
  <ele>1595.55</ele>
  <time>2026-08-27T18:29:56Z</time>
  <course>338.32</course>
  <speed>0.01</speed>
  <fix>3d</fix>
</trkpt>
<trkpt lat="40.0728602" lon="-105.2308753">
  <ele>1595.49</ele>
  <time>2026-08-27T18:29:56Z</time>
  <course>108.45</course>
  <speed>0.03</speed>
  <fix>3d</fix>
</trkpt>
<trkpt lat="40.0728602" lon="-105.2308755">
  <ele>1595.55</ele>
  <time>2026-08-27T18:29:56Z</time>
  <course>337.54</course>
  <speed>0.01</speed>
  <fix>3d</fix>
</trkpt>
<trkpt lat="40.0728602" lon="-105.2308752">
  <ele>1595.49</ele>
  <time>2026-08-27T18:29:56Z</time>
  <course>104.28</course>
  <speed>0.03</speed>
  <fix>3d</fix>
</trkpt>
<trkpt lat="40.0728602" lon="-105.2308754">
  <ele>1595.55</ele>
  <time>2026-08-27T18:29:56Z</time>
  <course>336.42</course>
  <speed>0.01</speed>
  <fix>3d</fix>
</trkpt>
<trkpt lat="40.0728602" lon="-105.2308752">
  <ele>1595.49</ele>
  <time>2026-08-27T18:29:56Z</time>
  <course>100.8</course>
  <speed>0.03</speed>
  <fix>3d</fix>
</trkpt>
<trkpt lat="40.0728602" lon="-105.2308753">
  <ele>1595.55</ele>
  <time>2026-08-27T18:29:56Z</time>
  <course>335.03</course>
  <speed>0.01</speed>
  <fix>3d</fix>
</trkpt>
<trkpt lat="40.0728602" lon="-105.2308751">
  <ele>1595.49</ele>
  <time>2026-08-27T18:29:56Z</time>
  <course>98.08</course>
  <speed>0.03</speed>
  <fix>3d</fix>
</trkpt>
<trkpt lat="40.0728602" lon="-105.2308752">
  <ele>1595.55</ele>
  <time>2026-08-27T18:29:56Z</time>
  <course>333.52</course>
  <speed>0.01</speed>
  <fix>3d</fix>
</trkpt>
<trkpt lat="40.0728602" lon="-105.230875">
  <ele>1595.5</ele>
  <time>2026-08-27T18:29:56Z</time>
  <course>96.03</course>
  <speed>0.03</speed>
  <fix>3d</fix>
</trkpt>
<trkpt lat="40.0728602" lon="-105.2308751">
  <ele>1595.56</ele>
  <time>2026-08-27T18:29:56Z</time>
  <course>332.03</course>
  <speed>0.01</speed>
  <fix>3d</fix>
</trkpt>
<trkpt lat="40.0728602" lon="-105.2308749">
  <ele>1595.5</ele>
  <time>2026-08-27T18:29:56Z</time>
  <course>95.19</course>
  <speed>0.03</speed>
  <fix>3d</fix>
</trkpt>
<trkpt lat="40.0728602" lon="-105.2308751">
  <ele>1595.56</ele>
  <time>2026-08-27T18:29:56Z</time>
  <course>330.68</course>
  <speed>0.0</speed>
  <fix>3d</fix>
</trkpt>
<trkpt lat="40.0728601" lon="-105.2308748">
  <ele>1595.5</ele>
  <time>2026-08-27T18:29:56Z</time>
  <course>95.5</course>
  <speed>0.03</speed>
  <fix>3d</fix>
</trkpt>
<trkpt lat="40.0728602" lon="-105.230875">
  <ele>1595.56</ele>
  <time>2026-08-27T18:29:56Z</time>
  <course>329.62</course>
  <speed>0.0</speed>
  <fix>3d</fix>
</trkpt>
<trkpt lat="40.0728601" lon="-105.2308747">
  <ele>1595.5</ele>
  <time>2026-08-27T18:29:56Z</time>
  <course>97.53</course>
  <speed>0.03</speed>
  <fix>3d</fix>
</trkpt>
<trkpt lat="40.0728602" lon="-105.2308749">
  <ele>1595.57</ele>
  <time>2026-08-27T18:29:56Z</time>
  <course>328.99</course>
  <speed>0.0</speed>
  <fix>3d</fix>
</trkpt>
<trkpt lat="40.0728601" lon="-105.2308747">
  <ele>1595.5</ele>
  <time>2026-08-27T18:29:56Z</time>
  <course>101.85</course>
  <speed>0.03</speed>
  <fix>3d</fix>
</trkpt>
<trkpt lat="40.0728602" lon="-105.2308749">
  <ele>1595.58</ele>
  <time>2026-08-27T18:29:56Z</time>
  <course>328.83</course>
  <speed>0.0</speed>
  <fix>3d</fix>
</trkpt>
<trkpt lat="40.0728601" lon="-105.2308746">
  <ele>1595.51</ele>
  <time>2026-08-27T18:29:56Z</time>
  <course>108.07</course>
  <speed>0.03</speed>
  <fix>3d</fix>
</trkpt>
<trkpt lat="40.0728602" lon="-105.2308748">
  <ele>1595.58</ele>
  <time>2026-08-27T18:29:56Z</time>
  <course>329.15</course>
  <speed>0.0</speed>
  <fix>3d</fix>
</trkpt>
<trkpt lat="40.0728601" lon="-105.2308745">
  <ele>1595.51</ele>
  <time>2026-08-27T18:29:56Z</time>
  <course>113.72</course>
  <speed>0.02</speed>
  <fix>3d</fix>
</trkpt>
<trkpt lat="40.0728602" lon="-105.2308747">
  <ele>1595.58</ele>
  <time>2026-08-27T18:29:56Z</time>
  <course>329.92</course>
  <speed>0.0</speed>
  <fix>3d</fix>
</trkpt>
<trkpt lat="40.0728601" lon="-105.2308745">
  <ele>1595.5</ele>
  <time>2026-08-27T18:29:56Z</time>
  <course>117.85</course>
  <speed>0.02</speed>
  <fix>3d</fix>
</trkpt>
<trkpt lat="40.0728601" lon="-105.2308747">
  <ele>1595.58</ele>
  <time>2026-08-27T18:29:56Z</time>
  <course>331.06</course>
  <speed>0.0</speed>
  <fix>3d</fix>
</trkpt>
<trkpt lat="40.07286" lon="-105.2308744">
  <ele>1595.5</ele>
  <time>2026-08-27T18:29:56Z</time>
  <course>121.37</course>
  <speed>0.02</speed>
  <fix>3d</fix>
</trkpt>
<trkpt lat="40.0728601" lon="-105.2308746">
  <ele>1595.58</ele>
  <time>2026-08-27T18:29:56Z</time>
  <course>332.45</course>
  <speed>0.0</speed>
  <fix>3d</fix>
</trkpt>
<trkpt lat="40.07286" lon="-105.2308743">
  <ele>1595.5</ele>
  <time>2026-08-27T18:29:56Z</time>
  <course>122.94</course>
  <speed>0.03</speed>
  <fix>3d</fix>
</trkpt>
<trkpt lat="40.0728601" lon="-105.2308745">
  <ele>1595.58</ele>
  <time>2026-08-27T18:29:56Z</time>
  <course>333.98</course>
  <speed>0.0</speed>
  <fix>3d</fix>
</trkpt>
<trkpt lat="40.07286" lon="-105.2308743">
  <ele>1595.49</ele>
  <time>2026-08-27T18:29:56Z</time>
  <course>122.32</course>
  <speed>0.03</speed>
  <fix>3d</fix>
</trkpt>
<trkpt lat="40.07286" lon="-105.2308745">
  <ele>1595.57</ele>
  <time>2026-08-27T18:29:56Z</time>
  <course>335.48</course>
  <speed>0.0</speed>
  <fix>3d</fix>
</trkpt>
<trkpt lat="40.0728599" lon="-105.2308742">
  <ele>1595.49</ele>
  <time>2026-08-27T18:29:56Z</time>
  <course>120.58</course>
  <speed>0.03</speed>
  <fix>3d</fix>
</trkpt>
<trkpt lat="40.07286" lon="-105.2308744">
  <ele>1595.57</ele>
  <time>2026-08-27T18:29:56Z</time>
  <course>336.79</course>
  <speed>0.0</speed>
  <fix>3d</fix>
</trkpt>
<trkpt lat="40.0728599" lon="-105.2308741">
  <ele>1595.48</ele>
  <time>2026-08-27T18:29:56Z</time>
  <course>117.75</course>
  <speed>0.03</speed>
  <fix>3d</fix>
</trkpt>
<trkpt lat="40.07286" lon="-105.2308743">
  <ele>1595.57</ele>
  <time>2026-08-27T18:29:56Z</time>
  <course>337.85</course>
  <speed>0.0</speed>
  <fix>3d</fix>
</trkpt>
<trkpt lat="40.0728599" lon="-105.2308741">
  <ele>1595.48</ele>
  <time>2026-08-27T18:29:56Z</time>
  <course>114.81</course>
  <speed>0.03</speed>
  <fix>3d</fix>
</trkpt>
<trkpt lat="40.07286" lon="-105.2308742">
  <ele>1595.56</ele>
  <time>2026-08-27T18:29:56Z</time>
  <course>338.48</course>
  <speed>0.0</speed>
  <fix>3d</fix>
</trkpt>
<trkpt lat="40.0728599" lon="-105.230874">
  <ele>1595.48</ele>
  <time>2026-08-27T18:29:56Z</time>
  <course>112.41</course>
  <speed>0.03</speed>
  <fix>3d</fix>
</trkpt>
<trkpt lat="40.0728599" lon="-105.2308742">
  <ele>1595.56</ele>
  <time>2026-08-27T18:29:56Z</time>
  <course>338.65</course>
  <speed>0.01</speed>
  <fix>3d</fix>
</trkpt>
<trkpt lat="40.0728598" lon="-105.2308739">
  <ele>1595.48</ele>
  <time>2026-08-27T18:29:56Z</time>
  <course>109.22</course>
  <speed>0.03</speed>
  <fix>3d</fix>
</trkpt>
<trkpt lat="40.0728599" lon="-105.2308741">
  <ele>1595.56</ele>
  <time>2026-08-27T18:29:56Z</time>
  <course>338.34</course>
  <speed>0.01</speed>
  <fix>3d</fix>
</trkpt>
<trkpt lat="40.0728597" lon="-105.2308738">
  <ele>1595.47</ele>
  <time>2026-08-27T18:29:56Z</time>
  <course>105.33</course>
  <speed>0.03</speed>
  <fix>3d</fix>
</trkpt>
<trkpt lat="40.0728599" lon="-105.230874">
  <ele>1595.56</ele>
  <time>2026-08-27T18:29:56Z</time>
  <course>337.6</course>
  <speed>0.01</speed>
  <fix>3d</fix>
</trkpt>
<trkpt lat="40.0728597" lon="-105.2308737">
  <ele>1595.47</ele>
  <time>2026-08-27T18:29:56Z</time>
  <course>102.26</course>
  <speed>0.03</speed>
  <fix>3d</fix>
</trkpt>
<trkpt lat="40.0728599" lon="-105.2308739">
  <ele>1595.55</ele>
  <time>2026-08-27T18:29:56Z</time>
  <course>336.43</course>
  <speed>0.01</speed>
  <fix>3d</fix>
</trkpt>
<trkpt lat="40.0728597" lon="-105.2308736">
  <ele>1595.47</ele>
  <time>2026-08-27T18:29:56Z</time>
  <course>100.44</course>
  <speed>0.03</speed>
  <fix>3d</fix>
</trkpt>
<trkpt lat="40.0728599" lon="-105.2308738">
  <ele>1595.55</ele>
  <time>2026-08-27T18:29:56Z</time>
  <course>335.01</course>
  <speed>0.01</speed>
  <fix>3d</fix>
</trkpt>
<trkpt lat="40.0728597" lon="-105.2308736">
  <ele>1595.47</ele>
  <time>2026-08-27T18:29:56Z</time>
  <course>98.99</course>
  <speed>0.03</speed>
  <fix>3d</fix>
</trkpt>
<trkpt lat="40.0728598" lon="-105.2308737">
  <ele>1595.55</ele>
  <time>2026-08-27T18:29:56Z</time>
  <course>333.51</course>
  <speed>0.01</speed>
  <fix>3d</fix>
</trkpt>
<trkpt lat="40.0728597" lon="-105.2308735">
  <ele>1595.47</ele>
  <time>2026-08-27T18:29:56Z</time>
  <course>97.75</course>
  <speed>0.03</speed>
  <fix>3d</fix>
</trkpt>
<trkpt lat="40.0728598" lon="-105.2308736">
  <ele>1595.54</ele>
  <time>2026-08-27T18:29:56Z</time>
  <course>332.01</course>
  <speed>0.01</speed>
  <fix>3d</fix>
</trkpt>
<trkpt lat="40.0728597" lon="-105.2308734">
  <ele>1595.47</ele>
  <time>2026-08-27T18:29:56Z</time>
  <course>97.24</course>
  <speed>0.03</speed>
  <fix>3d</fix>
</trkpt>
<trkpt lat="40.0728598" lon="-105.2308735">
  <ele>1595.54</ele>
  <time>2026-08-27T18:29:56Z</time>
  <course>330.64</course>
  <speed>0.0</speed>
  <fix>3d</fix>
</trkpt>
<trkpt lat="40.0728597" lon="-105.2308733">
  <ele>1595.48</ele>
  <time>2026-08-27T18:29:56Z</time>
  <course>97.86</course>
  <speed>0.03</speed>
  <fix>3d</fix>
</trkpt>
<trkpt lat="40.0728598" lon="-105.2308735">
  <ele>1595.54</ele>
  <time>2026-08-27T18:29:56Z</time>
  <course>329.58</course>
  <speed>0.0</speed>
  <fix>3d</fix>
</trkpt>
<trkpt lat="40.0728597" lon="-105.2308732">
  <ele>1595.48</ele>
  <time>2026-08-27T18:29:56Z</time>
  <course>99.98</course>
  <speed>0.03</speed>
  <fix>3d</fix>
</trkpt>
<trkpt lat="40.0728598" lon="-105.2308734">
  <ele>1595.54</ele>
  <time>2026-08-27T18:29:56Z</time>
  <course>328.93</course>
  <speed>0.0</speed>
  <fix>3d</fix>
</trkpt>
<trkpt lat="40.0728596" lon="-105.2308731">
  <ele>1595.48</ele>
  <time>2026-08-27T18:29:56Z</time>
  <course>103.58</course>
  <speed>0.03</speed>
  <fix>3d</fix>
</trkpt>
<trkpt lat="40.0728598" lon="-105.2308733">
  <ele>1595.54</ele>
  <time>2026-08-27T18:29:56Z</time>
  <course>328.75</course>
  <speed>0.0</speed>
  <fix>3d</fix>
</trkpt>
<trkpt lat="40.0728596" lon="-105.2308731">
  <ele>1595.49</ele>
  <time>2026-08-27T18:29:56Z</time>
  <course>108.15</course>
  <speed>0.03</speed>
  <fix>3d</fix>
</trkpt>
<trkpt lat="40.0728597" lon="-105.2308733">
  <ele>1595.54</ele>
  <time>2026-08-27T18:29:56Z</time>
  <course>329.05</course>
  <speed>0.0</speed>
  <fix>3d</fix>
</trkpt>
<trkpt lat="40.0728596" lon="-105.230873">
  <ele>1595.49</ele>
  <time>2026-08-27T18:29:56Z</time>
  <course>112.99</course>
  <speed>0.02</speed>
  <fix>3d</fix>
</trkpt>
<trkpt lat="40.0728597" lon="-105.2308732">
  <ele>1595.54</ele>
  <time>2026-08-27T18:29:56Z</time>
  <course>329.82</course>
  <speed>0.0</speed>
  <fix>3d</fix>
</trkpt>
<trkpt lat="40.0728596" lon="-105.2308729">
  <ele>1595.5</ele>
  <time>2026-08-27T18:29:56Z</time>
  <course>117.75</course>
  <speed>0.02</speed>
  <fix>3d</fix>
</trkpt>
<trkpt lat="40.0728597" lon="-105.2308732">
  <ele>1595.55</ele>
  <time>2026-08-27T18:29:56Z</time>
  <course>330.94</course>
  <speed>0.0</speed>
  <fix>3d</fix>
</trkpt>
<trkpt lat="40.0728596" lon="-105.2308729">
  <ele>1595.5</ele>
  <time>2026-08-27T18:29:56Z</time>
  <course>122.05</course>
  <speed>0.02</speed>
  <fix>3d</fix>
</trkpt>
<trkpt lat="40.0728596" lon="-105.2308731">
  <ele>1595.55</ele>
  <time>2026-08-27T18:29:56Z</time>
  <course>332.34</course>
  <speed>0.01</speed>
  <fix>3d</fix>
</trkpt>
<trkpt lat="40.0728596" lon="-105.2308728">
  <ele>1595.51</ele>
  <time>2026-08-27T18:29:56Z</time>
  <course>125.08</course>
  <speed>0.02</speed>
  <fix>3d</fix>
</trkpt>
<trkpt lat="40.0728596" lon="-105.230873">
  <ele>1595.56</ele>
  <time>2026-08-27T18:29:56Z</time>
  <course>333.88</course>
  <speed>0.0</speed>
  <fix>3d</fix>
</trkpt>
<trkpt lat="40.0728596" lon="-105.2308728">
  <ele>1595.51</ele>
  <time>2026-08-27T18:29:56Z</time>
  <course>125.61</course>
  <speed>0.02</speed>
  <fix>3d</fix>
</trkpt>
<trkpt lat="40.0728596" lon="-105.230873">
  <ele>1595.57</ele>
  <time>2026-08-27T18:29:56Z</time>
  <course>335.41</course>
  <speed>0.0</speed>
  <fix>3d</fix>
</trkpt>
<trkpt lat="40.0728596" lon="-105.2308727">
  <ele>1595.52</ele>
  <time>2026-08-27T18:29:56Z</time>
  <course>124.15</course>
  <speed>0.02</speed>
  <fix>3d</fix>
</trkpt>
<trkpt lat="40.0728596" lon="-105.2308729">
  <ele>1595.57</ele>
  <time>2026-08-27T18:29:56Z</time>
  <course>336.78</course>
  <speed>0.0</speed>
  <fix>3d</fix>
</trkpt>
<trkpt lat="40.0728595" lon="-105.2308726">
  <ele>1595.52</ele>
  <time>2026-08-27T18:29:56Z</time>
  <course>122.2</course>
  <speed>0.03</speed>
  <fix>3d</fix>
</trkpt>
<trkpt lat="40.0728595" lon="-105.2308728">
  <ele>1595.57</ele>
  <time>2026-08-27T18:29:56Z</time>
  <course>337.87</course>
  <speed>0.0</speed>
  <fix>3d</fix>
</trkpt>
<trkpt lat="40.0728595" lon="-105.2308726">
  <ele>1595.52</ele>
  <time>2026-08-27T18:29:56Z</time>
  <course>119.65</course>
  <speed>0.03</speed>
  <fix>3d</fix>
</trkpt>
<trkpt lat="40.0728595" lon="-105.2308728">
  <ele>1595.58</ele>
  <time>2026-08-27T18:29:56Z</time>
  <course>338.49</course>
  <speed>0.0</speed>
  <fix>3d</fix>
</trkpt>
<trkpt lat="40.0728595" lon="-105.2308725">
  <ele>1595.52</ele>
  <time>2026-08-27T18:29:56Z</time>
  <course>115.98</course>
  <speed>0.03</speed>
  <fix>3d</fix>
</trkpt>
<trkpt lat="40.0728595" lon="-105.2308727">
  <ele>1595.58</ele>
  <time>2026-08-27T18:29:56Z</time>
  <course>338.67</course>
  <speed>0.01</speed>
  <fix>3d</fix>
</trkpt>
<trkpt lat="40.0728594" lon="-105.2308724">
  <ele>1595.52</ele>
  <time>2026-08-27T18:29:56Z</time>
  <course>111.69</course>
  <speed>0.03</speed>
  <fix>3d</fix>
</trkpt>
<trkpt lat="40.0728595" lon="-105.2308726">
  <ele>1595.59</ele>
  <time>2026-08-27T18:29:56Z</time>
  <course>338.41</course>
  <speed>0.01</speed>
  <fix>3d</fix>
</trkpt>
<trkpt lat="40.0728594" lon="-105.2308724">
  <ele>1595.52</ele>
  <time>2026-08-27T18:29:56Z</time>
  <course>107.5</course>
  <speed>0.03</speed>
  <fix>3d</fix>
</trkpt>
<trkpt lat="40.0728595" lon="-105.2308725">
  <ele>1595.59</ele>
  <time>2026-08-27T18:29:56Z</time>
  <course>337.63</course>
  <speed>0.01</speed>
  <fix>3d</fix>
</trkpt>
<trkpt lat="40.0728594" lon="-105.2308723">
  <ele>1595.51</ele>
  <time>2026-08-27T18:29:56Z</time>
  <course>103.55</course>
  <speed>0.03</speed>
  <fix>3d</fix>
</trkpt>
<trkpt lat="40.0728595" lon="-105.2308724">
  <ele>1595.59</ele>
  <time>2026-08-27T18:29:56Z</time>
  <course>336.53</course>
  <speed>0.01</speed>
  <fix>3d</fix>
</trkpt>
<trkpt lat="40.0728594" lon="-105.2308722">
  <ele>1595.51</ele>
  <time>2026-08-27T18:29:56Z</time>
  <course>100.58</course>
  <speed>0.03</speed>
  <fix>3d</fix>
</trkpt>
<trkpt lat="40.0728595" lon="-105.2308723">
  <ele>1595.58</ele>
  <time>2026-08-27T18:29:56Z</time>
  <course>335.13</course>
  <speed>0.01</speed>
  <fix>3d</fix>
</trkpt>
<trkpt lat="40.0728594" lon="-105.2308721">
  <ele>1595.5</ele>
  <time>2026-08-27T18:29:56Z</time>
  <course>98.11</course>
  <speed>0.04</speed>
  <fix>3d</fix>
</trkpt>
<trkpt lat="40.0728595" lon="-105.2308722">
  <ele>1595.57</ele>
  <time>2026-08-27T18:29:56Z</time>
  <course>333.59</course>
  <speed>0.01</speed>
  <fix>3d</fix>
</trkpt>
<trkpt lat="40.0728594" lon="-105.230872">
  <ele>1595.5</ele>
  <time>2026-08-27T18:29:56Z</time>
  <course>96.17</course>
  <speed>0.04</speed>
  <fix>3d</fix>
</trkpt>
<trkpt lat="40.0728595" lon="-105.2308722">
  <ele>1595.57</ele>
  <time>2026-08-27T18:29:56Z</time>
  <course>332.06</course>
  <speed>0.01</speed>
  <fix>3d</fix>
</trkpt>
<trkpt lat="40.0728594" lon="-105.2308719">
  <ele>1595.49</ele>
  <time>2026-08-27T18:29:56Z</time>
  <course>95.97</course>
  <speed>0.03</speed>
  <fix>3d</fix>
</trkpt>
<trkpt lat="40.0728595" lon="-105.2308721">
  <ele>1595.57</ele>
  <time>2026-08-27T18:29:56Z</time>
  <course>330.71</course>
  <speed>0.0</speed>
  <fix>3d</fix>
</trkpt>
<trkpt lat="40.0728594" lon="-105.2308718">
  <ele>1595.49</ele>
  <time>2026-08-27T18:29:56Z</time>
  <course>97.06</course>
  <speed>0.03</speed>
  <fix>3d</fix>
</trkpt>
<trkpt lat="40.0728595" lon="-105.230872">
  <ele>1595.57</ele>
  <time>2026-08-27T18:29:56Z</time>
  <course>329.65</course>
  <speed>0.0</speed>
  <fix>3d</fix>
</trkpt>
<trkpt lat="40.0728594" lon="-105.2308717">
  <ele>1595.49</ele>
  <time>2026-08-27T18:29:56Z</time>
  <course>99.39</course>
  <speed>0.03</speed>
  <fix>3d</fix>
</trkpt>
<trkpt lat="40.0728594" lon="-105.2308719">
  <ele>1595.57</ele>
  <time>2026-08-27T18:29:56Z</time>
  <course>329.0</course>
  <speed>0.0</speed>
  <fix>3d</fix>
</trkpt>
<trkpt lat="40.0728593" lon="-105.2308717">
  <ele>1595.48</ele>
  <time>2026-08-27T18:29:56Z</time>
  <course>103.57</course>
  <speed>0.03</speed>
  <fix>3d</fix>
</trkpt>
<trkpt lat="40.0728594" lon="-105.2308718">
  <ele>1595.56</ele>
  <time>2026-08-27T18:29:56Z</time>
  <course>328.84</course>
  <speed>0.0</speed>
  <fix>3d</fix>
</trkpt>
<trkpt lat="40.0728593" lon="-105.2308716">
  <ele>1595.48</ele>
  <time>2026-08-27T18:29:56Z</time>
  <course>109.15</course>
  <speed>0.03</speed>
  <fix>3d</fix>
</trkpt>
<trkpt lat="40.0728594" lon="-105.2308718">
  <ele>1595.56</ele>
  <time>2026-08-27T18:29:56Z</time>
  <course>329.12</course>
  <speed>0.0</speed>
  <fix>3d</fix>
</trkpt>
<trkpt lat="40.0728593" lon="-105.2308715">
  <ele>1595.48</ele>
  <time>2026-08-27T18:29:56Z</time>
  <course>114.16</course>
  <speed>0.03</speed>
  <fix>3d</fix>
</trkpt>
<trkpt lat="40.0728594" lon="-105.2308717">
  <ele>1595.56</ele>
  <time>2026-08-27T18:29:56Z</time>
  <course>329.87</course>
  <speed>0.0</speed>
  <fix>3d</fix>
</trkpt>
<trkpt lat="40.0728593" lon="-105.2308714">
  <ele>1595.48</ele>
  <time>2026-08-27T18:29:56Z</time>
  <course>117.8</course>
  <speed>0.03</speed>
  <fix>3d</fix>
</trkpt>
<trkpt lat="40.0728593" lon="-105.2308717">
  <ele>1595.56</ele>
  <time>2026-08-27T18:29:56Z</time>
  <course>331.03</course>
  <speed>0.0</speed>
  <fix>3d</fix>
</trkpt>
<trkpt lat="40.0728592" lon="-105.2308714">
  <ele>1595.48</ele>
  <time>2026-08-27T18:29:56Z</time>
  <course>120.5</course>
  <speed>0.02</speed>
  <fix>3d</fix>
</trkpt>
<trkpt lat="40.0728593" lon="-105.2308716">
  <ele>1595.56</ele>
  <time>2026-08-27T18:29:56Z</time>
  <course>332.39</course>
  <speed>0.0</speed>
  <fix>3d</fix>
</trkpt>
<trkpt lat="40.0728591" lon="-105.2308713">
  <ele>1595.48</ele>
  <time>2026-08-27T18:29:56Z</time>
  <course>121.52</course>
  <speed>0.02</speed>
  <fix>3d</fix>
</trkpt>
<trkpt lat="40.0728593" lon="-105.2308715">
  <ele>1595.56</ele>
  <time>2026-08-27T18:29:56Z</time>
  <course>333.93</course>
  <speed>0.0</speed>
  <fix>3d</fix>
</trkpt>
<trkpt lat="40.0728591" lon="-105.2308712">
  <ele>1595.48</ele>
  <time>2026-08-27T18:29:56Z</time>
  <course>121.64</course>
  <speed>0.03</speed>
  <fix>3d</fix>
</trkpt>
<trkpt lat="40.0728592" lon="-105.2308715">
  <ele>1595.56</ele>
  <time>2026-08-27T18:29:57Z</time>
  <course>335.41</course>
  <speed>0.0</speed>
  <fix>3d</fix>
</trkpt>
<trkpt lat="40.0728591" lon="-105.2308712">
  <ele>1595.48</ele>
  <time>2026-08-27T18:29:57Z</time>
  <course>120.27</course>
  <speed>0.03</speed>
  <fix>3d</fix>
</trkpt>
<trkpt lat="40.0728592" lon="-105.2308714">
  <ele>1595.57</ele>
  <time>2026-08-27T18:29:57Z</time>
  <course>336.76</course>
  <speed>0.0</speed>
  <fix>3d</fix>
</trkpt>
<trkpt lat="40.0728591" lon="-105.2308712">
  <ele>1595.48</ele>
  <time>2026-08-27T18:29:57Z</time>
  <course>117.45</course>
  <speed>0.03</speed>
  <fix>3d</fix>
</trkpt>
<trkpt lat="40.0728592" lon="-105.2308713">
  <ele>1595.57</ele>
  <time>2026-08-27T18:29:57Z</time>
  <course>337.83</course>
  <speed>0.0</speed>
  <fix>3d</fix>
</trkpt>
<trkpt lat="40.072859" lon="-105.2308711">
  <ele>1595.47</ele>
  <time>2026-08-27T18:29:57Z</time>
  <course>114.75</course>
  <speed>0.03</speed>
  <fix>3d</fix>
</trkpt>
<trkpt lat="40.0728591" lon="-105.2308713">
  <ele>1595.57</ele>
  <time>2026-08-27T18:29:57Z</time>
  <course>338.5</course>
  <speed>0.0</speed>
  <fix>3d</fix>
</trkpt>
<trkpt lat="40.072859" lon="-105.230871">
  <ele>1595.47</ele>
  <time>2026-08-27T18:29:57Z</time>
  <course>112.23</course>
  <speed>0.03</speed>
  <fix>3d</fix>
</trkpt>
<trkpt lat="40.0728591" lon="-105.2308712">
  <ele>1595.57</ele>
  <time>2026-08-27T18:29:57Z</time>
  <course>338.67</course>
  <speed>0.01</speed>
  <fix>3d</fix>
</trkpt>
<trkpt lat="40.072859" lon="-105.2308709">
  <ele>1595.47</ele>
  <time>2026-08-27T18:29:57Z</time>
  <course>108.97</course>
  <speed>0.03</speed>
  <fix>3d</fix>
</trkpt>
<trkpt lat="40.0728591" lon="-105.2308711">
  <ele>1595.56</ele>
  <time>2026-08-27T18:29:57Z</time>
  <course>338.36</course>
  <speed>0.01</speed>
  <fix>3d</fix>
</trkpt>
<trkpt lat="40.072859" lon="-105.2308708">
  <ele>1595.47</ele>
  <time>2026-08-27T18:29:57Z</time>
  <course>105.1</course>
  <speed>0.03</speed>
  <fix>3d</fix>
</trkpt>
<trkpt lat="40.0728591" lon="-105.230871">
  <ele>1595.56</ele>
  <time>2026-08-27T18:29:57Z</time>
  <course>337.62</course>
  <speed>0.01</speed>
  <fix>3d</fix>
</trkpt>
<trkpt lat="40.072859" lon="-105.2308707">
  <ele>1595.47</ele>
  <time>2026-08-27T18:29:57Z</time>
  <course>101.24</course>
  <speed>0.03</speed>
  <fix>3d</fix>
</trkpt>
<trkpt lat="40.0728591" lon="-105.2308709">
  <ele>1595.56</ele>
  <time>2026-08-27T18:29:57Z</time>
  <course>336.46</course>
  <speed>0.01</speed>
  <fix>3d</fix>
</trkpt>
<trkpt lat="40.072859" lon="-105.2308707">
  <ele>1595.47</ele>
  <time>2026-08-27T18:29:57Z</time>
  <course>98.08</course>
  <speed>0.03</speed>
  <fix>3d</fix>
</trkpt>
<trkpt lat="40.0728591" lon="-105.2308708">
  <ele>1595.55</ele>
  <time>2026-08-27T18:29:57Z</time>
  <course>335.02</course>
  <speed>0.01</speed>
  <fix>3d</fix>
</trkpt>
<trkpt lat="40.072859" lon="-105.2308706">
  <ele>1595.47</ele>
  <time>2026-08-27T18:29:57Z</time>
  <course>95.85</course>
  <speed>0.03</speed>
  <fix>3d</fix>
</trkpt>
<trkpt lat="40.0728591" lon="-105.2308707">
  <ele>1595.55</ele>
  <time>2026-08-27T18:29:57Z</time>
  <course>333.52</course>
  <speed>0.01</speed>
  <fix>3d</fix>
</trkpt>
<trkpt lat="40.072859" lon="-105.2308705">
  <ele>1595.47</ele>
  <time>2026-08-27T18:29:57Z</time>
  <course>94.48</course>
  <speed>0.03</speed>
  <fix>3d</fix>
</trkpt>
<trkpt lat="40.0728591" lon="-105.2308706">
  <ele>1595.55</ele>
  <time>2026-08-27T18:29:57Z</time>
  <course>332.01</course>
  <speed>0.01</speed>
  <fix>3d</fix>
</trkpt>
<trkpt lat="40.072859" lon="-105.2308704">
  <ele>1595.47</ele>
  <time>2026-08-27T18:29:57Z</time>
  <course>94.06</course>
  <speed>0.03</speed>
  <fix>3d</fix>
</trkpt>
<trkpt lat="40.0728591" lon="-105.2308706">
  <ele>1595.55</ele>
  <time>2026-08-27T18:29:57Z</time>
  <course>330.65</course>
  <speed>0.0</speed>
  <fix>3d</fix>
</trkpt>
<trkpt lat="40.072859" lon="-105.2308703">
  <ele>1595.47</ele>
  <time>2026-08-27T18:29:57Z</time>
  <course>94.41</course>
  <speed>0.03</speed>
  <fix>3d</fix>
</trkpt>
<trkpt lat="40.0728591" lon="-105.2308705">
  <ele>1595.55</ele>
  <time>2026-08-27T18:29:57Z</time>
  <course>329.62</course>
  <speed>0.0</speed>
  <fix>3d</fix>
</trkpt>
<trkpt lat="40.072859" lon="-105.2308702">
  <ele>1595.47</ele>
  <time>2026-08-27T18:29:57Z</time>
  <course>95.86</course>
  <speed>0.03</speed>
  <fix>3d</fix>
</trkpt>
<trkpt lat="40.0728591" lon="-105.2308704">
  <ele>1595.56</ele>
  <time>2026-08-27T18:29:57Z</time>
  <course>328.98</course>
  <speed>0.0</speed>
  <fix>3d</fix>
</trkpt>
<trkpt lat="40.072859" lon="-105.2308701">
  <ele>1595.47</ele>
  <time>2026-08-27T18:29:57Z</time>
  <course>98.84</course>
  <speed>0.03</speed>
  <fix>3d</fix>
</trkpt>
<trkpt lat="40.0728591" lon="-105.2308703">
  <ele>1595.56</ele>
  <time>2026-08-27T18:29:57Z</time>
  <course>328.8</course>
  <speed>0.0</speed>
  <fix>3d</fix>
</trkpt>
<trkpt lat="40.072859" lon="-105.23087">
  <ele>1595.47</ele>
  <time>2026-08-27T18:29:57Z</time>
  <course>103.7</course>
  <speed>0.02</speed>
  <fix>3d</fix>
</trkpt>
<trkpt lat="40.072859" lon="-105.2308703">
  <ele>1595.56</ele>
  <time>2026-08-27T18:29:57Z</time>
  <course>328.83</course>
  <speed>0.0</speed>
  <fix>3d</fix>
</trkpt>
<trkpt lat="40.072859" lon="-105.23087">
  <ele>1595.47</ele>
  <time>2026-08-27T18:29:57Z</time>
  <course>108.48</course>
  <speed>0.02</speed>
  <fix>3d</fix>
</trkpt>
<trkpt lat="40.072859" lon="-105.2308702">
  <ele>1595.56</ele>
  <time>2026-08-27T18:29:57Z</time>
  <course>328.85</course>
  <speed>0.0</speed>
  <fix>3d</fix>
</trkpt>
<trkpt lat="40.0728589" lon="-105.2308699">
  <ele>1595.47</ele>
  <time>2026-08-27T18:29:57Z</time>
  <course>110.59</course>
  <speed>0.03</speed>
  <fix>3d</fix>
</trkpt>
<trkpt lat="40.072859" lon="-105.2308701">
  <ele>1595.56</ele>
  <time>2026-08-27T18:29:57Z</time>
  <course>328.85</course>
  <speed>0.0</speed>
  <fix>3d</fix>
</trkpt>
<trkpt lat="40.0728589" lon="-105.2308699">
  <ele>1595.47</ele>
  <time>2026-08-27T18:29:57Z</time>
  <course>111.21</course>
  <speed>0.03</speed>
  <fix>3d</fix>
</trkpt>
<trkpt lat="40.072859" lon="-105.23087">
  <ele>1595.57</ele>
  <time>2026-08-27T18:29:57Z</time>
  <course>328.86</course>
  <speed>0.0</speed>
  <fix>3d</fix>
</trkpt>
<trkpt lat="40.0728589" lon="-105.2308698">
  <ele>1595.47</ele>
  <time>2026-08-27T18:29:57Z</time>
  <course>111.2</course>
  <speed>0.03</speed>
  <fix>3d</fix>
</trkpt>
<trkpt lat="40.072859" lon="-105.23087">
  <ele>1595.57</ele>
  <time>2026-08-27T18:29:57Z</time>
  <course>328.87</course>
  <speed>0.0</speed>
  <fix>3d</fix>
</trkpt>
<trkpt lat="40.0728589" lon="-105.2308697">
  <ele>1595.47</ele>
  <time>2026-08-27T18:29:57Z</time>
  <course>110.68</course>
  <speed>0.03</speed>
  <fix>3d</fix>
</trkpt>
<trkpt lat="40.0728589" lon="-105.2308699">
  <ele>1595.57</ele>
  <time>2026-08-27T18:29:57Z</time>
  <course>328.86</course>
  <speed>0.0</speed>
  <fix>3d</fix>
</trkpt>
<trkpt lat="40.0728588" lon="-105.2308696">
  <ele>1595.47</ele>
  <time>2026-08-27T18:29:57Z</time>
  <course>110.35</course>
  <speed>0.03</speed>
  <fix>3d</fix>
</trkpt>
<trkpt lat="40.0728589" lon="-105.2308698">
  <ele>1595.57</ele>
  <time>2026-08-27T18:29:57Z</time>
  <course>328.86</course>
  <speed>0.01</speed>
  <fix>3d</fix>
</trkpt>
<trkpt lat="40.0728588" lon="-105.2308695">
  <ele>1595.47</ele>
  <time>2026-08-27T18:29:57Z</time>
  <course>109.77</course>
  <speed>0.03</speed>
  <fix>3d</fix>
</trkpt>
<trkpt lat="40.0728589" lon="-105.2308697">
  <ele>1595.57</ele>
  <time>2026-08-27T18:29:57Z</time>
  <course>328.86</course>
  <speed>0.01</speed>
  <fix>3d</fix>
</trkpt>
<trkpt lat="40.0728588" lon="-105.2308695">
  <ele>1595.47</ele>
  <time>2026-08-27T18:29:57Z</time>
  <course>109.05</course>
  <speed>0.03</speed>
  <fix>3d</fix>
</trkpt>
<trkpt lat="40.0728589" lon="-105.2308696">
  <ele>1595.56</ele>
  <time>2026-08-27T18:29:57Z</time>
  <course>328.86</course>
  <speed>0.01</speed>
  <fix>3d</fix>
</trkpt>
<trkpt lat="40.0728588" lon="-105.2308694">
  <ele>1595.46</ele>
  <time>2026-08-27T18:29:57Z</time>
  <course>108.65</course>
  <speed>0.03</speed>
  <fix>3d</fix>
</trkpt>
<trkpt lat="40.0728588" lon="-105.2308695">
  <ele>1595.56</ele>
  <time>2026-08-27T18:29:57Z</time>
  <course>328.85</course>
  <speed>0.01</speed>
  <fix>3d</fix>
</trkpt>
<trkpt lat="40.0728588" lon="-105.2308693">
  <ele>1595.46</ele>
  <time>2026-08-27T18:29:57Z</time>
  <course>108.32</course>
  <speed>0.04</speed>
  <fix>3d</fix>
</trkpt>
<trkpt lat="40.0728588" lon="-105.2308694">
  <ele>1595.56</ele>
  <time>2026-08-27T18:29:57Z</time>
  <course>328.84</course>
  <speed>0.01</speed>
  <fix>3d</fix>
</trkpt>
<trkpt lat="40.0728587" lon="-105.2308692">
  <ele>1595.46</ele>
  <time>2026-08-27T18:29:57Z</time>
  <course>107.92</course>
  <speed>0.04</speed>
  <fix>3d</fix>
</trkpt>
<trkpt lat="40.0728588" lon="-105.2308693">
  <ele>1595.55</ele>
  <time>2026-08-27T18:29:57Z</time>
  <course>328.84</course>
  <speed>0.01</speed>
  <fix>3d</fix>
</trkpt>
<trkpt lat="40.0728587" lon="-105.2308691">
  <ele>1595.46</ele>
  <time>2026-08-27T18:29:57Z</time>
  <course>107.34</course>
  <speed>0.04</speed>
  <fix>3d</fix>
</trkpt>
<trkpt lat="40.0728588" lon="-105.2308692">
  <ele>1595.55</ele>
  <time>2026-08-27T18:29:57Z</time>
  <course>328.83</course>
  <speed>0.01</speed>
  <fix>3d</fix>
</trkpt>
<trkpt lat="40.0728587" lon="-105.230869">
  <ele>1595.46</ele>
  <time>2026-08-27T18:29:57Z</time>
  <course>106.92</course>
  <speed>0.04</speed>
  <fix>3d</fix>
</trkpt>
<trkpt lat="40.0728588" lon="-105.2308692">
  <ele>1595.54</ele>
  <time>2026-08-27T18:29:57Z</time>
  <course>328.82</course>
  <speed>0.01</speed>
  <fix>3d</fix>
</trkpt>
<trkpt lat="40.0728587" lon="-105.2308689">
  <ele>1595.46</ele>
  <time>2026-08-27T18:29:57Z</time>
  <course>107.01</course>
  <speed>0.04</speed>
  <fix>3d</fix>
</trkpt>
<trkpt lat="40.0728587" lon="-105.2308691">
  <ele>1595.54</ele>
  <time>2026-08-27T18:29:57Z</time>
  <course>328.8</course>
  <speed>0.01</speed>
  <fix>3d</fix>
</trkpt>
<trkpt lat="40.0728586" lon="-105.2308688">
  <ele>1595.46</ele>
  <time>2026-08-27T18:29:57Z</time>
  <course>107.74</course>
  <speed>0.04</speed>
  <fix>3d</fix>
</trkpt>
<trkpt lat="40.0728587" lon="-105.2308689">
  <ele>1595.54</ele>
  <time>2026-08-27T18:29:57Z</time>
  <course>328.82</course>
  <speed>0.01</speed>
  <fix>3d</fix>
</trkpt>
<trkpt lat="40.0728585" lon="-105.2308687">
  <ele>1595.46</ele>
  <time>2026-08-27T18:29:57Z</time>
  <course>108.65</course>
  <speed>0.04</speed>
  <fix>3d</fix>
</trkpt>
<trkpt lat="40.0728587" lon="-105.2308688">
  <ele>1595.54</ele>
  <time>2026-08-27T18:29:57Z</time>
  <course>328.69</course>
  <speed>0.02</speed>
  <fix>3d</fix>
</trkpt>
<trkpt lat="40.0728585" lon="-105.2308686">
  <ele>1595.47</ele>
  <time>2026-08-27T18:29:57Z</time>
  <course>108.68</course>
  <speed>0.04</speed>
  <fix>3d</fix>
</trkpt>
<trkpt lat="40.0728586" lon="-105.2308687">
  <ele>1595.54</ele>
  <time>2026-08-27T18:29:57Z</time>
  <course>327.63</course>
  <speed>0.02</speed>
  <fix>3d</fix>
</trkpt>
<trkpt lat="40.0728585" lon="-105.2308685">
  <ele>1595.47</ele>
  <time>2026-08-27T18:29:57Z</time>
  <course>106.47</course>
  <speed>0.04</speed>
  <fix>3d</fix>
</trkpt>
<trkpt lat="40.0728586" lon="-105.2308686">
  <ele>1595.54</ele>
  <time>2026-08-27T18:29:57Z</time>
  <course>326.26</course>
  <speed>0.02</speed>
  <fix>3d</fix>
</trkpt>
<trkpt lat="40.0728585" lon="-105.2308684">
  <ele>1595.48</ele>
  <time>2026-08-27T18:29:57Z</time>
  <course>104.35</course>
  <speed>0.05</speed>
  <fix>3d</fix>
</trkpt>
<trkpt lat="40.0728586" lon="-105.2308685">
  <ele>1595.55</ele>
  <time>2026-08-27T18:29:57Z</time>
  <course>325.08</course>
  <speed>0.01</speed>
  <fix>3d</fix>
</trkpt>
<trkpt lat="40.0728584" lon="-105.2308683">
  <ele>1595.48</ele>
  <time>2026-08-27T18:29:57Z</time>
  <course>104.65</course>
  <speed>0.04</speed>
  <fix>3d</fix>
</trkpt>
<trkpt lat="40.0728585" lon="-105.2308684">
  <ele>1595.56</ele>
  <time>2026-08-27T18:29:57Z</time>
  <course>324.28</course>
  <speed>0.01</speed>
  <fix>3d</fix>
</trkpt>
<trkpt lat="40.0728584" lon="-105.2308682">
  <ele>1595.49</ele>
  <time>2026-08-27T18:29:57Z</time>
  <course>106.32</course>
  <speed>0.04</speed>
  <fix>3d</fix>
</trkpt>
<trkpt lat="40.0728585" lon="-105.2308683">
  <ele>1595.56</ele>
  <time>2026-08-27T18:29:57Z</time>
  <course>323.92</course>
  <speed>0.01</speed>
  <fix>3d</fix>
</trkpt>
<trkpt lat="40.0728584" lon="-105.2308681">
  <ele>1595.49</ele>
  <time>2026-08-27T18:29:57Z</time>
  <course>108.22</course>
  <speed>0.04</speed>
  <fix>3d</fix>
</trkpt>
<trkpt lat="40.0728585" lon="-105.2308682">
  <ele>1595.56</ele>
  <time>2026-08-27T18:29:57Z</time>
  <course>324.06</course>
  <speed>0.0</speed>
  <fix>3d</fix>
</trkpt>
<trkpt lat="40.0728584" lon="-105.230868">
  <ele>1595.49</ele>
  <time>2026-08-27T18:29:57Z</time>
  <course>110.08</course>
  <speed>0.04</speed>
  <fix>3d</fix>
</trkpt>
<trkpt lat="40.0728585" lon="-105.2308682">
  <ele>1595.57</ele>
  <time>2026-08-27T18:29:57Z</time>
  <course>324.62</course>
  <speed>0.0</speed>
  <fix>3d</fix>
</trkpt>
<trkpt lat="40.0728584" lon="-105.2308679">
  <ele>1595.5</ele>
  <time>2026-08-27T18:29:57Z</time>
  <course>111.89</course>
  <speed>0.03</speed>
  <fix>3d</fix>
</trkpt>
<trkpt lat="40.0728584" lon="-105.2308681">
  <ele>1595.57</ele>
  <time>2026-08-27T18:29:57Z</time>
  <course>325.64</course>
  <speed>0.01</speed>
  <fix>3d</fix>
</trkpt>
<trkpt lat="40.0728584" lon="-105.2308678">
  <ele>1595.5</ele>
  <time>2026-08-27T18:29:57Z</time>
  <course>114.26</course>
  <speed>0.03</speed>
  <fix>3d</fix>
</trkpt>
<trkpt lat="40.0728584" lon="-105.230868">
  <ele>1595.57</ele>
  <time>2026-08-27T18:29:57Z</time>
  <course>326.94</course>
  <speed>0.01</speed>
  <fix>3d</fix>
</trkpt>
<trkpt lat="40.0728584" lon="-105.2308677">
  <ele>1595.5</ele>
  <time>2026-08-27T18:29:57Z</time>
  <course>116.92</course>
  <speed>0.03</speed>
  <fix>3d</fix>
</trkpt>
<trkpt lat="40.0728584" lon="-105.230868">
  <ele>1595.58</ele>
  <time>2026-08-27T18:29:57Z</time>
  <course>328.45</course>
  <speed>0.01</speed>
  <fix>3d</fix>
</trkpt>
<trkpt lat="40.0728583" lon="-105.2308676">
  <ele>1595.5</ele>
  <time>2026-08-27T18:29:57Z</time>
  <course>118.83</course>
  <speed>0.03</speed>
  <fix>3d</fix>
</trkpt>
<trkpt lat="40.0728584" lon="-105.2308679">
  <ele>1595.58</ele>
  <time>2026-08-27T18:29:57Z</time>
  <course>329.95</course>
  <speed>0.0</speed>
  <fix>3d</fix>
</trkpt>
<trkpt lat="40.0728583" lon="-105.2308676">
  <ele>1595.5</ele>
  <time>2026-08-27T18:29:57Z</time>
  <course>118.66</course>
  <speed>0.03</speed>
  <fix>3d</fix>
</trkpt>
<trkpt lat="40.0728583" lon="-105.2308678">
  <ele>1595.58</ele>
  <time>2026-08-27T18:29:57Z</time>
  <course>331.38</course>
  <speed>0.0</speed>
  <fix>3d</fix>
</trkpt>
<trkpt lat="40.0728583" lon="-105.2308676">
  <ele>1595.49</ele>
  <time>2026-08-27T18:29:57Z</time>
  <course>116.65</course>
  <speed>0.03</speed>
  <fix>3d</fix>
</trkpt>
<trkpt lat="40.0728583" lon="-105.2308678">
  <ele>1595.58</ele>
  <time>2026-08-27T18:29:57Z</time>
  <course>332.59</course>
  <speed>0.0</speed>
  <fix>3d</fix>
</trkpt>
<trkpt lat="40.0728583" lon="-105.2308675">
  <ele>1595.49</ele>
  <time>2026-08-27T18:29:57Z</time>
  <course>113.46</course>
  <speed>0.03</speed>
  <fix>3d</fix>
</trkpt>
<trkpt lat="40.0728583" lon="-105.2308677">
  <ele>1595.57</ele>
  <time>2026-08-27T18:29:57Z</time>
  <course>333.41</course>
  <speed>0.0</speed>
  <fix>3d</fix>
</trkpt>
<trkpt lat="40.0728582" lon="-105.2308674">
  <ele>1595.48</ele>
  <time>2026-08-27T18:29:57Z</time>
  <course>108.36</course>
  <speed>0.03</speed>
  <fix>3d</fix>
</trkpt>
<trkpt lat="40.0728583" lon="-105.2308676">
  <ele>1595.57</ele>
  <time>2026-08-27T18:29:57Z</time>
  <course>333.78</course>
  <speed>0.0</speed>
  <fix>3d</fix>
</trkpt>
<trkpt lat="40.0728582" lon="-105.2308673">
  <ele>1595.48</ele>
  <time>2026-08-27T18:29:57Z</time>
  <course>103.62</course>
  <speed>0.03</speed>
  <fix>3d</fix>
</trkpt>
<trkpt lat="40.0728583" lon="-105.2308675">
  <ele>1595.56</ele>
  <time>2026-08-27T18:29:57Z</time>
  <course>333.66</course>
  <speed>0.0</speed>
  <fix>3d</fix>
</trkpt>
<trkpt lat="40.0728582" lon="-105.2308673">
  <ele>1595.48</ele>
  <time>2026-08-27T18:29:57Z</time>
  <course>100.23</course>
  <speed>0.03</speed>
  <fix>3d</fix>
</trkpt>
<trkpt lat="40.0728583" lon="-105.2308674">
  <ele>1595.56</ele>
  <time>2026-08-27T18:29:57Z</time>
  <course>333.05</course>
  <speed>0.01</speed>
  <fix>3d</fix>
</trkpt>
<trkpt lat="40.0728582" lon="-105.2308672">
  <ele>1595.48</ele>
  <time>2026-08-27T18:29:57Z</time>
  <course>97.77</course>
  <speed>0.03</speed>
  <fix>3d</fix>
</trkpt>
<trkpt lat="40.0728583" lon="-105.2308674">
  <ele>1595.56</ele>
  <time>2026-08-27T18:29:57Z</time>
  <course>332.06</course>
  <speed>0.01</speed>
  <fix>3d</fix>
</trkpt>
<trkpt lat="40.0728582" lon="-105.2308671">
  <ele>1595.48</ele>
  <time>2026-08-27T18:29:57Z</time>
  <course>96.74</course>
  <speed>0.03</speed>
  <fix>3d</fix>
</trkpt>
<trkpt lat="40.0728583" lon="-105.2308673">
  <ele>1595.56</ele>
  <time>2026-08-27T18:29:57Z</time>
  <course>330.73</course>
  <speed>0.01</speed>
  <fix>3d</fix>
</trkpt>
<trkpt lat="40.0728582" lon="-105.230867">
  <ele>1595.48</ele>
  <time>2026-08-27T18:29:57Z</time>
  <course>95.7</course>
  <speed>0.03</speed>
  <fix>3d</fix>
</trkpt>
<trkpt lat="40.0728583" lon="-105.2308672">
  <ele>1595.56</ele>
  <time>2026-08-27T18:29:57Z</time>
  <course>329.26</course>
  <speed>0.01</speed>
  <fix>3d</fix>
</trkpt>
<trkpt lat="40.0728582" lon="-105.2308669">
  <ele>1595.48</ele>
  <time>2026-08-27T18:29:57Z</time>
  <course>94.15</course>
  <speed>0.03</speed>
  <fix>3d</fix>
</trkpt>
<trkpt lat="40.0728583" lon="-105.2308671">
  <ele>1595.57</ele>
  <time>2026-08-27T18:29:57Z</time>
  <course>327.74</course>
  <speed>0.01</speed>
  <fix>3d</fix>
</trkpt>
<trkpt lat="40.0728582" lon="-105.2308668">
  <ele>1595.48</ele>
  <time>2026-08-27T18:29:57Z</time>
  <course>93.23</course>
  <speed>0.03</speed>
  <fix>3d</fix>
</trkpt>
<trkpt lat="40.0728583" lon="-105.230867">
  <ele>1595.57</ele>
  <time>2026-08-27T18:29:57Z</time>
  <course>326.35</course>
  <speed>0.0</speed>
  <fix>3d</fix>
</trkpt>
<trkpt lat="40.0728582" lon="-105.2308667">
  <ele>1595.47</ele>
  <time>2026-08-27T18:29:57Z</time>
  <course>93.46</course>
  <speed>0.03</speed>
  <fix>3d</fix>
</trkpt>
<trkpt lat="40.0728583" lon="-105.2308669">
  <ele>1595.57</ele>
  <time>2026-08-27T18:29:57Z</time>
  <course>325.16</course>
  <speed>0.0</speed>
  <fix>3d</fix>
</trkpt>
<trkpt lat="40.0728582" lon="-105.2308666">
  <ele>1595.47</ele>
  <time>2026-08-27T18:29:57Z</time>
  <course>95.54</course>
  <speed>0.03</speed>
  <fix>3d</fix>
</trkpt>
<trkpt lat="40.0728583" lon="-105.2308668">
  <ele>1595.57</ele>
  <time>2026-08-27T18:29:57Z</time>
  <course>324.34</course>
  <speed>0.0</speed>
  <fix>3d</fix>
</trkpt>
<trkpt lat="40.0728582" lon="-105.2308666">
  <ele>1595.47</ele>
  <time>2026-08-27T18:29:57Z</time>
  <course>99.68</course>
  <speed>0.03</speed>
  <fix>3d</fix>
</trkpt>
<trkpt lat="40.0728582" lon="-105.2308668">
  <ele>1595.57</ele>
  <time>2026-08-27T18:29:57Z</time>
  <course>323.96</course>
  <speed>0.0</speed>
  <fix>3d</fix>
</trkpt>
<trkpt lat="40.0728582" lon="-105.2308665">
  <ele>1595.47</ele>
  <time>2026-08-27T18:29:57Z</time>
  <course>104.69</course>
  <speed>0.03</speed>
  <fix>3d</fix>
</trkpt>
<trkpt lat="40.0728582" lon="-105.2308667">
  <ele>1595.56</ele>
  <time>2026-08-27T18:29:57Z</time>
  <course>324.05</course>
  <speed>0.0</speed>
  <fix>3d</fix>
</trkpt>
<trkpt lat="40.0728581" lon="-105.2308664">
  <ele>1595.47</ele>
  <time>2026-08-27T18:29:57Z</time>
  <course>109.03</course>
  <speed>0.03</speed>
  <fix>3d</fix>
</trkpt>
<trkpt lat="40.0728582" lon="-105.2308666">
  <ele>1595.56</ele>
  <time>2026-08-27T18:29:57Z</time>
  <course>324.61</course>
  <speed>0.0</speed>
  <fix>3d</fix>
</trkpt>
<trkpt lat="40.0728581" lon="-105.2308664">
  <ele>1595.47</ele>
  <time>2026-08-27T18:29:57Z</time>
  <course>112.84</course>
  <speed>0.03</speed>
  <fix>3d</fix>
</trkpt>
<trkpt lat="40.0728582" lon="-105.2308666">
  <ele>1595.55</ele>
  <time>2026-08-27T18:29:57Z</time>
  <course>325.6</course>
  <speed>0.0</speed>
  <fix>3d</fix>
</trkpt>
<trkpt lat="40.0728581" lon="-105.2308663">
  <ele>1595.46</ele>
  <time>2026-08-27T18:29:57Z</time>
  <course>116.4</course>
  <speed>0.03</speed>
  <fix>3d</fix>
</trkpt>
<trkpt lat="40.0728582" lon="-105.2308665">
  <ele>1595.55</ele>
  <time>2026-08-27T18:29:57Z</time>
  <course>326.9</course>
  <speed>0.0</speed>
  <fix>3d</fix>
</trkpt>
<trkpt lat="40.0728581" lon="-105.2308662">
  <ele>1595.46</ele>
  <time>2026-08-27T18:29:57Z</time>
  <course>118.58</course>
  <speed>0.03</speed>
  <fix>3d</fix>
</trkpt>
<trkpt lat="40.0728581" lon="-105.2308664">
  <ele>1595.55</ele>
  <time>2026-08-27T18:29:57Z</time>
  <course>328.36</course>
  <speed>0.0</speed>
  <fix>3d</fix>
</trkpt>
<trkpt lat="40.072858" lon="-105.2308662">
  <ele>1595.46</ele>
  <time>2026-08-27T18:29:57Z</time>
  <course>118.79</course>
  <speed>0.03</speed>
  <fix>3d</fix>
</trkpt>
<trkpt lat="40.0728581" lon="-105.2308664">
  <ele>1595.56</ele>
  <time>2026-08-27T18:29:57Z</time>
  <course>329.91</course>
  <speed>0.0</speed>
  <fix>3d</fix>
</trkpt>
<trkpt lat="40.0728579" lon="-105.2308661">
  <ele>1595.47</ele>
  <time>2026-08-27T18:29:57Z</time>
  <course>118.42</course>
  <speed>0.03</speed>
  <fix>3d</fix>
</trkpt>
<trkpt lat="40.0728581" lon="-105.2308663">
  <ele>1595.56</ele>
  <time>2026-08-27T18:29:57Z</time>
  <course>331.36</course>
  <speed>0.0</speed>
  <fix>3d</fix>
</trkpt>
<trkpt lat="40.0728579" lon="-105.2308661">
  <ele>1595.47</ele>
  <time>2026-08-27T18:29:57Z</time>
  <course>117.0</course>
  <speed>0.03</speed>
  <fix>3d</fix>
</trkpt>
<trkpt lat="40.072858" lon="-105.2308662">
  <ele>1595.56</ele>
  <time>2026-08-27T18:29:57Z</time>
  <course>332.54</course>
  <speed>0.0</speed>
  <fix>3d</fix>
</trkpt>
<trkpt lat="40.0728579" lon="-105.230866">
  <ele>1595.47</ele>
  <time>2026-08-27T18:29:57Z</time>
  <course>114.04</course>
  <speed>0.03</speed>
  <fix>3d</fix>
</trkpt>
<trkpt lat="40.072858" lon="-105.2308662">
  <ele>1595.56</ele>
  <time>2026-08-27T18:29:57Z</time>
  <course>333.36</course>
  <speed>0.0</speed>
  <fix>3d</fix>
</trkpt>
<trkpt lat="40.0728579" lon="-105.2308659">
  <ele>1595.47</ele>
  <time>2026-08-27T18:29:57Z</time>
  <course>110.36</course>
  <speed>0.03</speed>
  <fix>3d</fix>
</trkpt>
<trkpt lat="40.072858" lon="-105.2308661">
  <ele>1595.56</ele>
  <time>2026-08-27T18:29:57Z</time>
  <course>333.75</course>
  <speed>0.01</speed>
  <fix>3d</fix>
</trkpt>
<trkpt lat="40.0728578" lon="-105.2308658">
  <ele>1595.47</ele>
  <time>2026-08-27T18:29:57Z</time>
  <course>105.78</course>
  <speed>0.03</speed>
  <fix>3d</fix>
</trkpt>
<trkpt lat="40.072858" lon="-105.230866">
  <ele>1595.56</ele>
  <time>2026-08-27T18:29:57Z</time>
  <course>333.64</course>
  <speed>0.01</speed>
  <fix>3d</fix>
</trkpt>
<trkpt lat="40.0728578" lon="-105.2308657">
  <ele>1595.47</ele>
  <time>2026-08-27T18:29:57Z</time>
  <course>100.74</course>
  <speed>0.03</speed>
  <fix>3d</fix>
</trkpt>
<trkpt lat="40.0728579" lon="-105.2308659">
  <ele>1595.57</ele>
  <time>2026-08-27T18:29:57Z</time>
  <course>333.07</course>
  <speed>0.01</speed>
  <fix>3d</fix>
</trkpt>
<trkpt lat="40.0728578" lon="-105.2308656">
  <ele>1595.47</ele>
  <time>2026-08-27T18:29:57Z</time>
  <course>96.15</course>
  <speed>0.03</speed>
  <fix>3d</fix>
</trkpt>
<trkpt lat="40.0728579" lon="-105.2308658">
  <ele>1595.57</ele>
  <time>2026-08-27T18:29:57Z</time>
  <course>332.09</course>
  <speed>0.01</speed>
  <fix>3d</fix>
</trkpt>
<trkpt lat="40.0728578" lon="-105.2308655">
  <ele>1595.47</ele>
  <time>2026-08-27T18:29:57Z</time>
  <course>92.97</course>
  <speed>0.03</speed>
  <fix>3d</fix>
</trkpt>
<trkpt lat="40.0728579" lon="-105.2308657">
  <ele>1595.57</ele>
  <time>2026-08-27T18:29:57Z</time>
  <course>330.8</course>
  <speed>0.01</speed>
  <fix>3d</fix>
</trkpt>
<trkpt lat="40.0728578" lon="-105.2308654">
  <ele>1595.47</ele>
  <time>2026-08-27T18:29:57Z</time>
  <course>91.78</course>
  <speed>0.03</speed>
  <fix>3d</fix>
</trkpt>
<trkpt lat="40.0728579" lon="-105.2308656">
  <ele>1595.57</ele>
  <time>2026-08-27T18:29:57Z</time>
  <course>329.34</course>
  <speed>0.01</speed>
  <fix>3d</fix>
</trkpt>
<trkpt lat="40.0728578" lon="-105.2308654">
  <ele>1595.47</ele>
  <time>2026-08-27T18:29:57Z</time>
  <course>91.65</course>
  <speed>0.03</speed>
  <fix>3d</fix>
</trkpt>
<trkpt lat="40.0728579" lon="-105.2308655">
  <ele>1595.57</ele>
  <time>2026-08-27T18:29:57Z</time>
  <course>327.78</course>
  <speed>0.01</speed>
  <fix>3d</fix>
</trkpt>
<trkpt lat="40.0728578" lon="-105.2308653">
  <ele>1595.46</ele>
  <time>2026-08-27T18:29:57Z</time>
  <course>91.98</course>
  <speed>0.03</speed>
  <fix>3d</fix>
</trkpt>
<trkpt lat="40.0728579" lon="-105.2308654">
  <ele>1595.57</ele>
  <time>2026-08-27T18:29:57Z</time>
  <course>326.35</course>
  <speed>0.0</speed>
  <fix>3d</fix>
</trkpt>
<trkpt lat="40.0728578" lon="-105.2308652">
  <ele>1595.46</ele>
  <time>2026-08-27T18:29:57Z</time>
  <course>93.49</course>
  <speed>0.03</speed>
  <fix>3d</fix>
</trkpt>
<trkpt lat="40.0728579" lon="-105.2308654">
  <ele>1595.56</ele>
  <time>2026-08-27T18:29:57Z</time>
  <course>325.17</course>
  <speed>0.0</speed>
  <fix>3d</fix>
</trkpt>
<trkpt lat="40.0728578" lon="-105.2308651">
  <ele>1595.46</ele>
  <time>2026-08-27T18:29:57Z</time>
  <course>95.84</course>
  <speed>0.03</speed>
  <fix>3d</fix>
</trkpt>
<trkpt lat="40.0728579" lon="-105.2308653">
  <ele>1595.56</ele>
  <time>2026-08-27T18:29:57Z</time>
  <course>324.33</course>
  <speed>0.0</speed>
  <fix>3d</fix>
</trkpt>
<trkpt lat="40.0728578" lon="-105.230865">
  <ele>1595.46</ele>
  <time>2026-08-27T18:29:57Z</time>
  <course>99.09</course>
  <speed>0.03</speed>
  <fix>3d</fix>
</trkpt>
<trkpt lat="40.0728579" lon="-105.2308652">
  <ele>1595.56</ele>
  <time>2026-08-27T18:29:57Z</time>
  <course>323.94</course>
  <speed>0.0</speed>
  <fix>3d</fix>
</trkpt>
<trkpt lat="40.0728578" lon="-105.230865">
  <ele>1595.46</ele>
  <time>2026-08-27T18:29:57Z</time>
  <course>103.31</course>
  <speed>0.03</speed>
  <fix>3d</fix>
</trkpt>
<trkpt lat="40.0728578" lon="-105.2308652">
  <ele>1595.56</ele>
  <time>2026-08-27T18:29:57Z</time>
  <course>324.04</course>
  <speed>0.0</speed>
  <fix>3d</fix>
</trkpt>
<trkpt lat="40.0728578" lon="-105.2308649">
  <ele>1595.46</ele>
  <time>2026-08-27T18:29:57Z</time>
  <course>108.06</course>
  <speed>0.03</speed>
  <fix>3d</fix>
</trkpt>
<trkpt lat="40.0728578" lon="-105.2308651">
  <ele>1595.57</ele>
  <time>2026-08-27T18:29:57Z</time>
  <course>324.6</course>
  <speed>0.0</speed>
  <fix>3d</fix>
</trkpt>
<trkpt lat="40.0728578" lon="-105.2308648">
  <ele>1595.46</ele>
  <time>2026-08-27T18:29:57Z</time>
  <course>112.67</course>
  <speed>0.03</speed>
  <fix>3d</fix>
</trkpt>
<trkpt lat="40.0728578" lon="-105.230865">
  <ele>1595.57</ele>
  <time>2026-08-27T18:29:57Z</time>
  <course>325.63</course>
  <speed>0.01</speed>
  <fix>3d</fix>
</trkpt>
<trkpt lat="40.0728578" lon="-105.2308647">
  <ele>1595.46</ele>
  <time>2026-08-27T18:29:57Z</time>
  <course>116.48</course>
  <speed>0.03</speed>
  <fix>3d</fix>
</trkpt>
<trkpt lat="40.0728578" lon="-105.230865">
  <ele>1595.57</ele>
  <time>2026-08-27T18:29:57Z</time>
  <course>326.95</course>
  <speed>0.01</speed>
  <fix>3d</fix>
</trkpt>
<trkpt lat="40.0728578" lon="-105.2308647">
  <ele>1595.45</ele>
  <time>2026-08-27T18:29:57Z</time>
  <course>119.13</course>
  <speed>0.03</speed>
  <fix>3d</fix>
</trkpt>
<trkpt lat="40.0728578" lon="-105.2308649">
  <ele>1595.57</ele>
  <time>2026-08-27T18:29:57Z</time>
  <course>328.44</course>
  <speed>0.01</speed>
  <fix>3d</fix>
</trkpt>
<trkpt lat="40.0728577" lon="-105.2308646">
  <ele>1595.45</ele>
  <time>2026-08-27T18:29:57Z</time>
  <course>120.23</course>
  <speed>0.03</speed>
  <fix>3d</fix>
</trkpt>
<trkpt lat="40.0728577" lon="-105.2308648">
  <ele>1595.56</ele>
  <time>2026-08-27T18:29:57Z</time>
  <course>329.96</course>
  <speed>0.0</speed>
  <fix>3d</fix>
</trkpt>
<trkpt lat="40.0728577" lon="-105.2308645">
  <ele>1595.45</ele>
  <time>2026-08-27T18:29:57Z</time>
  <course>119.34</course>
  <speed>0.03</speed>
  <fix>3d</fix>
</trkpt>
<trkpt lat="40.0728577" lon="-105.2308648">
  <ele>1595.56</ele>
  <time>2026-08-27T18:29:57Z</time>
  <course>331.37</course>
  <speed>0.0</speed>
  <fix>3d</fix>
</trkpt>
<trkpt lat="40.0728577" lon="-105.2308645">
  <ele>1595.45</ele>
  <time>2026-08-27T18:29:57Z</time>
  <course>117.16</course>
  <speed>0.03</speed>
  <fix>3d</fix>
</trkpt>
<trkpt lat="40.0728577" lon="-105.2308647">
  <ele>1595.55</ele>
  <time>2026-08-27T18:29:57Z</time>
  <course>332.55</course>
  <speed>0.0</speed>
  <fix>3d</fix>
</trkpt>
<trkpt lat="40.0728577" lon="-105.2308644">
  <ele>1595.45</ele>
  <time>2026-08-27T18:29:57Z</time>
  <course>114.56</course>
  <speed>0.03</speed>
  <fix>3d</fix>
</trkpt>
<trkpt lat="40.0728577" lon="-105.2308646">
  <ele>1595.55</ele>
  <time>2026-08-27T18:29:57Z</time>
  <course>333.35</course>
  <speed>0.0</speed>
  <fix>3d</fix>
</trkpt>
<trkpt lat="40.0728576" lon="-105.2308644">
  <ele>1595.45</ele>
  <time>2026-08-27T18:29:57Z</time>
  <course>111.14</course>
  <speed>0.03</speed>
  <fix>3d</fix>
</trkpt>
<trkpt lat="40.0728577" lon="-105.2308645">
  <ele>1595.55</ele>
  <time>2026-08-27T18:29:57Z</time>
  <course>333.73</course>
  <speed>0.01</speed>
  <fix>3d</fix>
</trkpt>
<trkpt lat="40.0728576" lon="-105.2308643">
  <ele>1595.45</ele>
  <time>2026-08-27T18:29:57Z</time>
  <course>106.89</course>
  <speed>0.03</speed>
  <fix>3d</fix>
</trkpt>
<trkpt lat="40.0728577" lon="-105.2308644">
  <ele>1595.55</ele>
  <time>2026-08-27T18:29:57Z</time>
  <course>333.6</course>
  <speed>0.01</speed>
  <fix>3d</fix>
</trkpt>
<trkpt lat="40.0728576" lon="-105.2308642">
  <ele>1595.45</ele>
  <time>2026-08-27T18:29:57Z</time>
  <course>103.11</course>
  <speed>0.03</speed>
  <fix>3d</fix>
</trkpt>
<trkpt lat="40.0728577" lon="-105.2308644">
  <ele>1595.55</ele>
  <time>2026-08-27T18:29:57Z</time>
  <course>333.03</course>
  <speed>0.01</speed>
  <fix>3d</fix>
</trkpt>
<trkpt lat="40.0728576" lon="-105.2308641">
  <ele>1595.45</ele>
  <time>2026-08-27T18:29:57Z</time>
  <course>99.97</course>
  <speed>0.03</speed>
  <fix>3d</fix>
</trkpt>
<trkpt lat="40.0728577" lon="-105.2308643">
  <ele>1595.55</ele>
  <time>2026-08-27T18:29:57Z</time>
  <course>332.07</course>
  <speed>0.01</speed>
  <fix>3d</fix>
</trkpt>
<trkpt lat="40.0728576" lon="-105.230864">
  <ele>1595.45</ele>
  <time>2026-08-27T18:29:57Z</time>
  <course>97.17</course>
  <speed>0.03</speed>
  <fix>3d</fix>
</trkpt>
<trkpt lat="40.0728577" lon="-105.2308642">
  <ele>1595.56</ele>
  <time>2026-08-27T18:29:57Z</time>
  <course>330.75</course>
  <speed>0.01</speed>
  <fix>3d</fix>
</trkpt>
<trkpt lat="40.0728576" lon="-105.2308639">
  <ele>1595.45</ele>
  <time>2026-08-27T18:29:57Z</time>
  <course>95.1</course>
  <speed>0.04</speed>
  <fix>3d</fix>
</trkpt>
<trkpt lat="40.0728577" lon="-105.2308641">
  <ele>1595.56</ele>
  <time>2026-08-27T18:29:57Z</time>
  <course>329.25</course>
  <speed>0.01</speed>
  <fix>3d</fix>
</trkpt>
<trkpt lat="40.0728576" lon="-105.2308638">
  <ele>1595.46</ele>
  <time>2026-08-27T18:29:57Z</time>
  <course>93.58</course>
  <speed>0.03</speed>
  <fix>3d</fix>
</trkpt>
<trkpt lat="40.0728577" lon="-105.230864">
  <ele>1595.56</ele>
  <time>2026-08-27T18:29:57Z</time>
  <course>327.76</course>
  <speed>0.01</speed>
  <fix>3d</fix>
</trkpt>
<trkpt lat="40.0728576" lon="-105.2308637">
  <ele>1595.46</ele>
  <time>2026-08-27T18:29:57Z</time>
  <course>92.88</course>
  <speed>0.03</speed>
  <fix>3d</fix>
</trkpt>
<trkpt lat="40.0728577" lon="-105.2308639">
  <ele>1595.56</ele>
  <time>2026-08-27T18:29:57Z</time>
  <course>326.3</course>
  <speed>0.0</speed>
  <fix>3d</fix>
</trkpt>
<trkpt lat="40.0728576" lon="-105.2308637">
  <ele>1595.46</ele>
  <time>2026-08-27T18:29:57Z</time>
  <course>93.06</course>
  <speed>0.03</speed>
  <fix>3d</fix>
</trkpt>
<trkpt lat="40.0728577" lon="-105.2308638">
  <ele>1595.56</ele>
  <time>2026-08-27T18:29:57Z</time>
  <course>325.12</course>
  <speed>0.0</speed>
  <fix>3d</fix>
</trkpt>
<trkpt lat="40.0728576" lon="-105.2308636">
  <ele>1595.46</ele>
  <time>2026-08-27T18:29:57Z</time>
  <course>94.46</course>
  <speed>0.03</speed>
  <fix>3d</fix>
</trkpt>
<trkpt lat="40.0728577" lon="-105.2308638">
  <ele>1595.56</ele>
  <time>2026-08-27T18:29:57Z</time>
  <course>324.31</course>
  <speed>0.0</speed>
  <fix>3d</fix>
</trkpt>
<trkpt lat="40.0728576" lon="-105.2308635">
  <ele>1595.46</ele>
  <time>2026-08-27T18:29:57Z</time>
  <course>97.58</course>
  <speed>0.03</speed>
  <fix>3d</fix>
</trkpt>
<trkpt lat="40.0728576" lon="-105.2308637">
  <ele>1595.56</ele>
  <time>2026-08-27T18:29:57Z</time>
  <course>323.95</course>
  <speed>0.0</speed>
  <fix>3d</fix>
</trkpt>
<trkpt lat="40.0728575" lon="-105.2308634">
  <ele>1595.46</ele>
  <time>2026-08-27T18:29:57Z</time>
  <course>102.19</course>
  <speed>0.03</speed>
  <fix>3d</fix>
</trkpt>
<trkpt lat="40.0728576" lon="-105.2308636">
  <ele>1595.56</ele>
  <time>2026-08-27T18:29:57Z</time>
  <course>324.04</course>
  <speed>0.0</speed>
  <fix>3d</fix>
</trkpt>
<trkpt lat="40.0728575" lon="-105.2308633">
  <ele>1595.46</ele>
  <time>2026-08-27T18:29:57Z</time>
  <course>107.91</course>
  <speed>0.03</speed>
  <fix>3d</fix>
</trkpt>
<trkpt lat="40.0728576" lon="-105.2308635">
  <ele>1595.56</ele>
  <time>2026-08-27T18:29:57Z</time>
  <course>324.61</course>
  <speed>0.0</speed>
  <fix>3d</fix>
</trkpt>
<trkpt lat="40.0728575" lon="-105.2308633">
  <ele>1595.46</ele>
  <time>2026-08-27T18:29:57Z</time>
  <course>113.7</course>
  <speed>0.03</speed>
  <fix>3d</fix>
</trkpt>
<trkpt lat="40.0728576" lon="-105.2308635">
  <ele>1595.56</ele>
  <time>2026-08-27T18:29:57Z</time>
  <course>325.61</course>
  <speed>0.0</speed>
  <fix>3d</fix>
</trkpt>
<trkpt lat="40.0728575" lon="-105.2308632">
  <ele>1595.46</ele>
  <time>2026-08-27T18:29:57Z</time>
  <course>118.73</course>
  <speed>0.02</speed>
  <fix>3d</fix>
</trkpt>
<trkpt lat="40.0728575" lon="-105.2308634">
  <ele>1595.56</ele>
  <time>2026-08-27T18:29:57Z</time>
  <course>326.93</course>
  <speed>0.01</speed>
  <fix>3d</fix>
</trkpt>
<trkpt lat="40.0728574" lon="-105.2308632">
  <ele>1595.46</ele>
  <time>2026-08-27T18:29:57Z</time>
  <course>122.59</course>
  <speed>0.03</speed>
  <fix>3d</fix>
</trkpt>
<trkpt lat="40.0728575" lon="-105.2308634">
  <ele>1595.56</ele>
  <time>2026-08-27T18:29:57Z</time>
  <course>328.42</course>
  <speed>0.01</speed>
  <fix>3d</fix>
</trkpt>
<trkpt lat="40.0728573" lon="-105.2308631">
  <ele>1595.46</ele>
  <time>2026-08-27T18:29:57Z</time>
  <course>124.68</course>
  <speed>0.03</speed>
  <fix>3d</fix>
</trkpt>
<trkpt lat="40.0728575" lon="-105.2308633">
  <ele>1595.56</ele>
  <time>2026-08-27T18:29:57Z</time>
  <course>329.95</course>
  <speed>0.01</speed>
  <fix>3d</fix>
</trkpt>
<trkpt lat="40.0728573" lon="-105.230863">
  <ele>1595.46</ele>
  <time>2026-08-27T18:29:57Z</time>
  <course>124.22</course>
  <speed>0.03</speed>
  <fix>3d</fix>
</trkpt>
<trkpt lat="40.0728574" lon="-105.2308632">
  <ele>1595.56</ele>
  <time>2026-08-27T18:29:57Z</time>
  <course>331.34</course>
  <speed>0.01</speed>
  <fix>3d</fix>
</trkpt>
<trkpt lat="40.0728573" lon="-105.230863">
  <ele>1595.46</ele>
  <time>2026-08-27T18:29:57Z</time>
  <course>121.32</course>
  <speed>0.03</speed>
  <fix>3d</fix>
</trkpt>
<trkpt lat="40.0728574" lon="-105.2308632">
  <ele>1595.56</ele>
  <time>2026-08-27T18:29:57Z</time>
  <course>332.54</course>
  <speed>0.0</speed>
  <fix>3d</fix>
</trkpt>
<trkpt lat="40.0728573" lon="-105.2308629">
  <ele>1595.46</ele>
  <time>2026-08-27T18:29:57Z</time>
  <course>117.06</course>
  <speed>0.03</speed>
  <fix>3d</fix>
</trkpt>
<trkpt lat="40.0728574" lon="-105.2308631">
  <ele>1595.56</ele>
  <time>2026-08-27T18:29:57Z</time>
  <course>333.38</course>
  <speed>0.0</speed>
  <fix>3d</fix>
</trkpt>
<trkpt lat="40.0728572" lon="-105.2308628">
  <ele>1595.46</ele>
  <time>2026-08-27T18:29:57Z</time>
  <course>112.45</course>
  <speed>0.03</speed>
  <fix>3d</fix>
</trkpt>
<trkpt lat="40.0728573" lon="-105.230863">
  <ele>1595.56</ele>
  <time>2026-08-27T18:29:57Z</time>
  <course>333.74</course>
  <speed>0.01</speed>
  <fix>3d</fix>
</trkpt>
<trkpt lat="40.0728572" lon="-105.2308628">
  <ele>1595.46</ele>
  <time>2026-08-27T18:29:57Z</time>
  <course>107.85</course>
  <speed>0.03</speed>
  <fix>3d</fix>
</trkpt>
<trkpt lat="40.0728573" lon="-105.2308629">
  <ele>1595.56</ele>
  <time>2026-08-27T18:29:57Z</time>
  <course>333.64</course>
  <speed>0.01</speed>
  <fix>3d</fix>
</trkpt>
<trkpt lat="40.0728572" lon="-105.2308627">
  <ele>1595.46</ele>
  <time>2026-08-27T18:29:57Z</time>
  <course>103.29</course>
  <speed>0.03</speed>
  <fix>3d</fix>
</trkpt>
<trkpt lat="40.0728573" lon="-105.2308628">
  <ele>1595.56</ele>
  <time>2026-08-27T18:29:57Z</time>
  <course>333.04</course>
  <speed>0.01</speed>
  <fix>3d</fix>
</trkpt>
<trkpt lat="40.0728572" lon="-105.2308626">
  <ele>1595.46</ele>
  <time>2026-08-27T18:29:57Z</time>
  <course>98.93</course>
  <speed>0.03</speed>
  <fix>3d</fix>
</trkpt>
<trkpt lat="40.0728573" lon="-105.2308627">
  <ele>1595.56</ele>
  <time>2026-08-27T18:29:57Z</time>
  <course>332.06</course>
  <speed>0.01</speed>
  <fix>3d</fix>
</trkpt>
<trkpt lat="40.0728572" lon="-105.2308625">
  <ele>1595.46</ele>
  <time>2026-08-27T18:29:57Z</time>
  <course>95.11</course>
  <speed>0.04</speed>
  <fix>3d</fix>
</trkpt>
<trkpt lat="40.0728573" lon="-105.2308627">
  <ele>1595.56</ele>
  <time>2026-08-27T18:29:57Z</time>
  <course>330.75</course>
  <speed>0.01</speed>
  <fix>3d</fix>
</trkpt>
<trkpt lat="40.0728572" lon="-105.2308624">
  <ele>1595.46</ele>
  <time>2026-08-27T18:29:57Z</time>
  <course>92.39</course>
  <speed>0.04</speed>
  <fix>3d</fix>
</trkpt>
<trkpt lat="40.0728573" lon="-105.2308626">
  <ele>1595.56</ele>
  <time>2026-08-27T18:29:57Z</time>
  <course>329.26</course>
  <speed>0.01</speed>
  <fix>3d</fix>
</trkpt>
<trkpt lat="40.0728572" lon="-105.2308623">
  <ele>1595.46</ele>
  <time>2026-08-27T18:29:57Z</time>
  <course>90.73</course>
  <speed>0.03</speed>
  <fix>3d</fix>
</trkpt>
<trkpt lat="40.0728573" lon="-105.2308625">
  <ele>1595.56</ele>
  <time>2026-08-27T18:29:57Z</time>
  <course>327.74</course>
  <speed>0.01</speed>
  <fix>3d</fix>
</trkpt>
<trkpt lat="40.0728572" lon="-105.2308622">
  <ele>1595.46</ele>
  <time>2026-08-27T18:29:57Z</time>
  <course>90.0</course>
  <speed>0.03</speed>
  <fix>3d</fix>
</trkpt>
<trkpt lat="40.0728573" lon="-105.2308624">
  <ele>1595.56</ele>
  <time>2026-08-27T18:29:57Z</time>
  <course>326.31</course>
  <speed>0.0</speed>
  <fix>3d</fix>
</trkpt>
<trkpt lat="40.0728572" lon="-105.2308621">
  <ele>1595.47</ele>
  <time>2026-08-27T18:29:57Z</time>
  <course>90.44</course>
  <speed>0.03</speed>
  <fix>3d</fix>
</trkpt>
<trkpt lat="40.0728573" lon="-105.2308623">
  <ele>1595.56</ele>
  <time>2026-08-27T18:29:57Z</time>
  <course>325.14</course>
  <speed>0.0</speed>
  <fix>3d</fix>
</trkpt>
<trkpt lat="40.0728572" lon="-105.230862">
  <ele>1595.47</ele>
  <time>2026-08-27T18:29:57Z</time>
  <course>92.3</course>
  <speed>0.03</speed>
  <fix>3d</fix>
</trkpt>
<trkpt lat="40.0728573" lon="-105.2308622">
  <ele>1595.56</ele>
  <time>2026-08-27T18:29:57Z</time>
  <course>324.32</course>
  <speed>0.0</speed>
  <fix>3d</fix>
</trkpt>
<trkpt lat="40.0728572" lon="-105.230862">
  <ele>1595.47</ele>
  <time>2026-08-27T18:29:57Z</time>
  <course>95.79</course>
  <speed>0.03</speed>
  <fix>3d</fix>
</trkpt>
<trkpt lat="40.0728573" lon="-105.2308622">
  <ele>1595.56</ele>
  <time>2026-08-27T18:29:57Z</time>
  <course>323.93</course>
  <speed>0.0</speed>
  <fix>3d</fix>
</trkpt>
<trkpt lat="40.0728572" lon="-105.2308619">
  <ele>1595.47</ele>
  <time>2026-08-27T18:29:57Z</time>
  <course>100.91</course>
  <speed>0.03</speed>
  <fix>3d</fix>
</trkpt>
<trkpt lat="40.0728572" lon="-105.2308621">
  <ele>1595.57</ele>
  <time>2026-08-27T18:29:57Z</time>
  <course>324.04</course>
  <speed>0.0</speed>
  <fix>3d</fix>
</trkpt>
<trkpt lat="40.0728572" lon="-105.2308618">
  <ele>1595.47</ele>
  <time>2026-08-27T18:29:57Z</time>
  <course>106.59</course>
  <speed>0.02</speed>
  <fix>3d</fix>
</trkpt>
<trkpt lat="40.0728572" lon="-105.230862">
  <ele>1595.57</ele>
  <time>2026-08-27T18:29:57Z</time>
  <course>324.61</course>
  <speed>0.0</speed>
  <fix>3d</fix>
</trkpt>
<trkpt lat="40.0728572" lon="-105.2308618">
  <ele>1595.47</ele>
  <time>2026-08-27T18:29:57Z</time>
  <course>111.2</course>
  <speed>0.02</speed>
  <fix>3d</fix>
</trkpt>
<trkpt lat="40.0728572" lon="-105.230862">
  <ele>1595.56</ele>
  <time>2026-08-27T18:29:57Z</time>
  <course>325.63</course>
  <speed>0.0</speed>
  <fix>3d</fix>
</trkpt>
<trkpt lat="40.0728572" lon="-105.2308617">
  <ele>1595.47</ele>
  <time>2026-08-27T18:29:57Z</time>
  <course>115.03</course>
  <speed>0.02</speed>
  <fix>3d</fix>
</trkpt>
<trkpt lat="40.0728572" lon="-105.2308619">
  <ele>1595.56</ele>
  <time>2026-08-27T18:29:57Z</time>
  <course>326.93</course>
  <speed>0.0</speed>
  <fix>3d</fix>
</trkpt>
<trkpt lat="40.0728571" lon="-105.2308616">
  <ele>1595.46</ele>
  <time>2026-08-27T18:29:57Z</time>
  <course>117.61</course>
  <speed>0.02</speed>
  <fix>3d</fix>
</trkpt>
<trkpt lat="40.0728572" lon="-105.2308618">
  <ele>1595.55</ele>
  <time>2026-08-27T18:29:57Z</time>
  <course>328.42</course>
  <speed>0.0</speed>
  <fix>3d</fix>
</trkpt>
<trkpt lat="40.0728571" lon="-105.2308616">
  <ele>1595.46</ele>
  <time>2026-08-27T18:29:57Z</time>
  <course>117.96</course>
  <speed>0.02</speed>
  <fix>3d</fix>
</trkpt>
<trkpt lat="40.0728572" lon="-105.2308618">
  <ele>1595.55</ele>
  <time>2026-08-27T18:29:58Z</time>
  <course>329.93</course>
  <speed>0.0</speed>
  <fix>3d</fix>
</trkpt>
<trkpt lat="40.0728571" lon="-105.2308615">
  <ele>1595.46</ele>
  <time>2026-08-27T18:29:58Z</time>
  <course>116.08</course>
  <speed>0.03</speed>
  <fix>3d</fix>
</trkpt>
<trkpt lat="40.0728571" lon="-105.2308617">
  <ele>1595.54</ele>
  <time>2026-08-27T18:29:58Z</time>
  <course>331.31</course>
  <speed>0.0</speed>
  <fix>3d</fix>
</trkpt>
<trkpt lat="40.0728571" lon="-105.2308614">
  <ele>1595.46</ele>
  <time>2026-08-27T18:29:58Z</time>
  <course>113.38</course>
  <speed>0.03</speed>
  <fix>3d</fix>
</trkpt>
<trkpt lat="40.0728571" lon="-105.2308616">
  <ele>1595.54</ele>
  <time>2026-08-27T18:29:58Z</time>
  <course>332.49</course>
  <speed>0.0</speed>
  <fix>3d</fix>
</trkpt>
<trkpt lat="40.0728571" lon="-105.2308614">
  <ele>1595.47</ele>
  <time>2026-08-27T18:29:58Z</time>
  <course>110.56</course>
  <speed>0.03</speed>
  <fix>3d</fix>
</trkpt>
<trkpt lat="40.0728571" lon="-105.2308616">
  <ele>1595.55</ele>
  <time>2026-08-27T18:29:58Z</time>
  <course>333.33</course>
  <speed>0.0</speed>
  <fix>3d</fix>
</trkpt>
<trkpt lat="40.072857" lon="-105.2308613">
  <ele>1595.47</ele>
  <time>2026-08-27T18:29:58Z</time>
  <course>107.24</course>
  <speed>0.03</speed>
  <fix>3d</fix>
</trkpt>
<trkpt lat="40.0728571" lon="-105.2308615">
  <ele>1595.55</ele>
  <time>2026-08-27T18:29:58Z</time>
  <course>333.72</course>
  <speed>0.01</speed>
  <fix>3d</fix>
</trkpt>
<trkpt lat="40.072857" lon="-105.2308612">
  <ele>1595.47</ele>
  <time>2026-08-27T18:29:58Z</time>
  <course>104.25</course>
  <speed>0.03</speed>
  <fix>3d</fix>
</trkpt>
<trkpt lat="40.0728571" lon="-105.2308614">
  <ele>1595.55</ele>
  <time>2026-08-27T18:29:58Z</time>
  <course>333.62</course>
  <speed>0.01</speed>
  <fix>3d</fix>
</trkpt>
<trkpt lat="40.072857" lon="-105.2308611">
  <ele>1595.48</ele>
  <time>2026-08-27T18:29:58Z</time>
  <course>101.15</course>
  <speed>0.03</speed>
  <fix>3d</fix>
</trkpt>
<trkpt lat="40.0728571" lon="-105.2308613">
  <ele>1595.56</ele>
  <time>2026-08-27T18:29:58Z</time>
  <course>333.05</course>
  <speed>0.01</speed>
  <fix>3d</fix>
</trkpt>
<trkpt lat="40.072857" lon="-105.230861">
  <ele>1595.48</ele>
  <time>2026-08-27T18:29:58Z</time>
  <course>98.09</course>
  <speed>0.03</speed>
  <fix>3d</fix>
</trkpt>
<trkpt lat="40.0728571" lon="-105.2308612">
  <ele>1595.56</ele>
  <time>2026-08-27T18:29:58Z</time>
  <course>332.06</course>
  <speed>0.01</speed>
  <fix>3d</fix>
</trkpt>
<trkpt lat="40.072857" lon="-105.2308609">
  <ele>1595.48</ele>
  <time>2026-08-27T18:29:58Z</time>
  <course>95.24</course>
  <speed>0.03</speed>
  <fix>3d</fix>
</trkpt>
<trkpt lat="40.0728571" lon="-105.2308611">
  <ele>1595.57</ele>
  <time>2026-08-27T18:29:58Z</time>
  <course>330.75</course>
  <speed>0.01</speed>
  <fix>3d</fix>
</trkpt>
<trkpt lat="40.072857" lon="-105.2308609">
  <ele>1595.48</ele>
  <time>2026-08-27T18:29:58Z</time>
  <course>92.9</course>
  <speed>0.03</speed>
  <fix>3d</fix>
</trkpt>
<trkpt lat="40.0728571" lon="-105.230861">
  <ele>1595.57</ele>
  <time>2026-08-27T18:29:58Z</time>
  <course>329.28</course>
  <speed>0.01</speed>
  <fix>3d</fix>
</trkpt>
<trkpt lat="40.072857" lon="-105.2308608">
  <ele>1595.49</ele>
  <time>2026-08-27T18:29:58Z</time>
  <course>91.9</course>
  <speed>0.03</speed>
  <fix>3d</fix>
</trkpt>
<trkpt lat="40.0728571" lon="-105.2308609">
  <ele>1595.56</ele>
  <time>2026-08-27T18:29:58Z</time>
  <course>327.74</course>
  <speed>0.01</speed>
  <fix>3d</fix>
</trkpt>
<trkpt lat="40.072857" lon="-105.2308607">
  <ele>1595.49</ele>
  <time>2026-08-27T18:29:58Z</time>
  <course>91.75</course>
  <speed>0.03</speed>
  <fix>3d</fix>
</trkpt>
<trkpt lat="40.0728571" lon="-105.2308608">
  <ele>1595.56</ele>
  <time>2026-08-27T18:29:58Z</time>
  <course>326.3</course>
  <speed>0.0</speed>
  <fix>3d</fix>
</trkpt>
<trkpt lat="40.072857" lon="-105.2308606">
  <ele>1595.49</ele>
  <time>2026-08-27T18:29:58Z</time>
  <course>92.42</course>
  <speed>0.03</speed>
  <fix>3d</fix>
</trkpt>
<trkpt lat="40.0728571" lon="-105.2308608">
  <ele>1595.56</ele>
  <time>2026-08-27T18:29:58Z</time>
  <course>325.13</course>
  <speed>0.0</speed>
  <fix>3d</fix>
</trkpt>
<trkpt lat="40.072857" lon="-105.2308605">
  <ele>1595.49</ele>
  <time>2026-08-27T18:29:58Z</time>
  <course>94.31</course>
  <speed>0.03</speed>
  <fix>3d</fix>
</trkpt>
<trkpt lat="40.0728571" lon="-105.2308607">
  <ele>1595.56</ele>
  <time>2026-08-27T18:29:58Z</time>
  <course>324.3</course>
  <speed>0.0</speed>
  <fix>3d</fix>
</trkpt>
<trkpt lat="40.072857" lon="-105.2308604">
  <ele>1595.49</ele>
  <time>2026-08-27T18:29:58Z</time>
  <course>97.48</course>
  <speed>0.03</speed>
  <fix>3d</fix>
</trkpt>
<trkpt lat="40.0728571" lon="-105.2308606">
  <ele>1595.56</ele>
  <time>2026-08-27T18:29:58Z</time>
  <course>323.93</course>
  <speed>0.0</speed>
  <fix>3d</fix>
</trkpt>
<trkpt lat="40.072857" lon="-105.2308604">
  <ele>1595.49</ele>
  <time>2026-08-27T18:29:58Z</time>
  <course>101.96</course>
  <speed>0.03</speed>
  <fix>3d</fix>
</trkpt>
<trkpt lat="40.072857" lon="-105.2308606">
  <ele>1595.56</ele>
  <time>2026-08-27T18:29:58Z</time>
  <course>323.94</course>
  <speed>0.0</speed>
  <fix>3d</fix>
</trkpt>
<trkpt lat="40.0728569" lon="-105.2308603">
  <ele>1595.49</ele>
  <time>2026-08-27T18:29:58Z</time>
  <course>106.21</course>
  <speed>0.02</speed>
  <fix>3d</fix>
</trkpt>
<trkpt lat="40.072857" lon="-105.2308605">
  <ele>1595.56</ele>
  <time>2026-08-27T18:29:58Z</time>
  <course>323.95</course>
  <speed>0.0</speed>
  <fix>3d</fix>
</trkpt>
<trkpt lat="40.0728569" lon="-105.2308602">
  <ele>1595.49</ele>
  <time>2026-08-27T18:29:58Z</time>
  <course>108.42</course>
  <speed>0.03</speed>
  <fix>3d</fix>
</trkpt>
<trkpt lat="40.072857" lon="-105.2308604">
  <ele>1595.56</ele>
  <time>2026-08-27T18:29:58Z</time>
  <course>323.95</course>
  <speed>0.0</speed>
  <fix>3d</fix>
</trkpt>
<trkpt lat="40.0728569" lon="-105.2308602">
  <ele>1595.49</ele>
  <time>2026-08-27T18:29:58Z</time>
  <course>109.53</course>
  <speed>0.03</speed>
  <fix>3d</fix>
</trkpt>
<trkpt lat="40.072857" lon="-105.2308603">
  <ele>1595.56</ele>
  <time>2026-08-27T18:29:58Z</time>
  <course>323.95</course>
  <speed>0.0</speed>
  <fix>3d</fix>
</trkpt>
<trkpt lat="40.0728569" lon="-105.2308601">
  <ele>1595.49</ele>
  <time>2026-08-27T18:29:58Z</time>
  <course>110.63</course>
  <speed>0.03</speed>
  <fix>3d</fix>
</trkpt>
<trkpt lat="40.0728569" lon="-105.2308603">
  <ele>1595.56</ele>
  <time>2026-08-27T18:29:58Z</time>
  <course>323.95</course>
  <speed>0.0</speed>
  <fix>3d</fix>
</trkpt>
<trkpt lat="40.0728569" lon="-105.23086">
  <ele>1595.49</ele>
  <time>2026-08-27T18:29:58Z</time>
  <course>111.65</course>
  <speed>0.03</speed>
  <fix>3d</fix>
</trkpt>
<trkpt lat="40.0728569" lon="-105.2308602">
  <ele>1595.56</ele>
  <time>2026-08-27T18:29:58Z</time>
  <course>323.94</course>
  <speed>0.0</speed>
  <fix>3d</fix>
</trkpt>
<trkpt lat="40.0728568" lon="-105.2308599">
  <ele>1595.49</ele>
  <time>2026-08-27T18:29:58Z</time>
  <course>112.44</course>
  <speed>0.03</speed>
  <fix>3d</fix>
</trkpt>
<trkpt lat="40.0728569" lon="-105.2308601">
  <ele>1595.56</ele>
  <time>2026-08-27T18:29:58Z</time>
  <course>323.95</course>
  <speed>0.0</speed>
  <fix>3d</fix>
</trkpt>
<trkpt lat="40.0728567" lon="-105.2308598">
  <ele>1595.49</ele>
  <time>2026-08-27T18:29:58Z</time>
  <course>112.64</course>
  <speed>0.03</speed>
  <fix>3d</fix>
</trkpt>
<trkpt lat="40.0728569" lon="-105.23086">
  <ele>1595.56</ele>
  <time>2026-08-27T18:29:58Z</time>
  <course>323.95</course>
  <speed>0.01414213562373095</speed>
  <fix>3d</fix>
</trkpt>
<trkpt lat="40.0728567" lon="-105.2308597">
  <ele>1595.49</ele>
  <time>2026-08-27T18:29:58Z</time>
  <course>112.51</course>
  <speed>0.03</speed>
  <fix>3d</fix>
</trkpt>
<trkpt lat="40.0728568" lon="-105.2308599">
  <ele>1595.56</ele>
  <time>2026-08-27T18:29:58Z</time>
  <course>323.95</course>
  <speed>0.01414213562373095</speed>
  <fix>3d</fix>
</trkpt>
<trkpt lat="40.0728567" lon="-105.2308597">
  <ele>1595.49</ele>
  <time>2026-08-27T18:29:58Z</time>
  <course>112.47</course>
  <speed>0.04</speed>
  <fix>3d</fix>
</trkpt>
<trkpt lat="40.0728568" lon="-105.2308598">
  <ele>1595.56</ele>
  <time>2026-08-27T18:29:58Z</time>
  <course>323.95</course>
  <speed>0.01414213562373095</speed>
  <fix>3d</fix>
</trkpt>
<trkpt lat="40.0728567" lon="-105.2308596">
  <ele>1595.49</ele>
  <time>2026-08-27T18:29:58Z</time>
  <course>112.46</course>
  <speed>0.04</speed>
  <fix>3d</fix>
</trkpt>
<trkpt lat="40.0728567" lon="-105.2308597">
  <ele>1595.56</ele>
  <time>2026-08-27T18:29:58Z</time>
  <course>323.94</course>
  <speed>0.01414213562373095</speed>
  <fix>3d</fix>
</trkpt>
<trkpt lat="40.0728566" lon="-105.2308595">
  <ele>1595.5</ele>
  <time>2026-08-27T18:29:58Z</time>
  <course>112.37</course>
  <speed>0.04</speed>
  <fix>3d</fix>
</trkpt>
<trkpt lat="40.0728567" lon="-105.2308596">
  <ele>1595.57</ele>
  <time>2026-08-27T18:29:58Z</time>
  <course>323.95</course>
  <speed>0.01414213562373095</speed>
  <fix>3d</fix>
</trkpt>
<trkpt lat="40.0728566" lon="-105.2308594">
  <ele>1595.5</ele>
  <time>2026-08-27T18:29:58Z</time>
  <course>112.23</course>
  <speed>0.04</speed>
  <fix>3d</fix>
</trkpt>
<trkpt lat="40.0728567" lon="-105.2308596">
  <ele>1595.57</ele>
  <time>2026-08-27T18:29:58Z</time>
  <course>323.95</course>
  <speed>0.01414213562373095</speed>
  <fix>3d</fix>
</trkpt>
<trkpt lat="40.0728566" lon="-105.2308593">
  <ele>1595.5</ele>
  <time>2026-08-27T18:29:58Z</time>
  <course>112.19</course>
  <speed>0.04</speed>
  <fix>3d</fix>
</trkpt>
<trkpt lat="40.0728566" lon="-105.2308594">
  <ele>1595.58</ele>
  <time>2026-08-27T18:29:58Z</time>
  <course>323.96</course>
  <speed>0.01414213562373095</speed>
  <fix>3d</fix>
</trkpt>
<trkpt lat="40.0728566" lon="-105.2308592">
  <ele>1595.5</ele>
  <time>2026-08-27T18:29:58Z</time>
  <course>111.79</course>
  <speed>0.04</speed>
  <fix>3d</fix>
</trkpt>
<trkpt lat="40.0728566" lon="-105.2308593">
  <ele>1595.58</ele>
  <time>2026-08-27T18:29:58Z</time>
  <course>323.99</course>
  <speed>0.01414213562373095</speed>
  <fix>3d</fix>
</trkpt>
<trkpt lat="40.0728566" lon="-105.2308591">
  <ele>1595.49</ele>
  <time>2026-08-27T18:29:58Z</time>
  <course>110.79</course>
  <speed>0.04</speed>
  <fix>3d</fix>
</trkpt>
<trkpt lat="40.0728566" lon="-105.2308592">
  <ele>1595.58</ele>
  <time>2026-08-27T18:29:58Z</time>
  <course>323.97</course>
  <speed>0.01414213562373095</speed>
  <fix>3d</fix>
</trkpt>
<trkpt lat="40.0728565" lon="-105.230859">
  <ele>1595.49</ele>
  <time>2026-08-27T18:29:58Z</time>
  <course>109.67</course>
  <speed>0.04</speed>
  <fix>3d</fix>
</trkpt>
<trkpt lat="40.0728566" lon="-105.2308591">
  <ele>1595.57</ele>
  <time>2026-08-27T18:29:58Z</time>
  <course>323.97</course>
  <speed>0.022360679774997897</speed>
  <fix>3d</fix>
</trkpt>
<trkpt lat="40.0728565" lon="-105.2308589">
  <ele>1595.49</ele>
  <time>2026-08-27T18:29:58Z</time>
  <course>108.8</course>
  <speed>0.04</speed>
  <fix>3d</fix>
</trkpt>
<trkpt lat="40.0728565" lon="-105.230859">
  <ele>1595.56</ele>
  <time>2026-08-27T18:29:58Z</time>
  <course>323.27</course>
  <speed>0.02</speed>
  <fix>3d</fix>
</trkpt>
<trkpt lat="40.0728565" lon="-105.2308588">
  <ele>1595.49</ele>
  <time>2026-08-27T18:29:58Z</time>
  <course>106.2</course>
  <speed>0.05</speed>
  <fix>3d</fix>
</trkpt>
<trkpt lat="40.0728565" lon="-105.2308589">
  <ele>1595.55</ele>
  <time>2026-08-27T18:29:58Z</time>
  <course>321.9</course>
  <speed>0.02</speed>
  <fix>3d</fix>
</trkpt>
<trkpt lat="40.0728565" lon="-105.2308587">
  <ele>1595.48</ele>
  <time>2026-08-27T18:29:58Z</time>
  <course>102.51</course>
  <speed>0.05</speed>
  <fix>3d</fix>
</trkpt>
<trkpt lat="40.0728565" lon="-105.2308588">
  <ele>1595.55</ele>
  <time>2026-08-27T18:29:58Z</time>
  <course>320.6</course>
  <speed>0.02</speed>
  <fix>3d</fix>
</trkpt>
<trkpt lat="40.0728565" lon="-105.2308586">
  <ele>1595.48</ele>
  <time>2026-08-27T18:29:58Z</time>
  <course>100.39</course>
  <speed>0.05</speed>
  <fix>3d</fix>
</trkpt>
<trkpt lat="40.0728565" lon="-105.2308587">
  <ele>1595.56</ele>
  <time>2026-08-27T18:29:58Z</time>
  <course>319.62</course>
  <speed>0.01</speed>
  <fix>3d</fix>
</trkpt>
<trkpt lat="40.0728564" lon="-105.2308584">
  <ele>1595.48</ele>
  <time>2026-08-27T18:29:58Z</time>
  <course>99.6</course>
  <speed>0.04</speed>
  <fix>3d</fix>
</trkpt>
<trkpt lat="40.0728565" lon="-105.2308586">
  <ele>1595.56</ele>
  <time>2026-08-27T18:29:58Z</time>
  <course>319.11</course>
  <speed>0.01</speed>
  <fix>3d</fix>
</trkpt>
<trkpt lat="40.0728564" lon="-105.2308583">
  <ele>1595.48</ele>
  <time>2026-08-27T18:29:58Z</time>
  <course>99.9</course>
  <speed>0.04</speed>
  <fix>3d</fix>
</trkpt>
<trkpt lat="40.0728565" lon="-105.2308585">
  <ele>1595.56</ele>
  <time>2026-08-27T18:29:58Z</time>
  <course>319.05</course>
  <speed>0.01</speed>
  <fix>3d</fix>
</trkpt>
<trkpt lat="40.0728564" lon="-105.2308582">
  <ele>1595.49</ele>
  <time>2026-08-27T18:29:58Z</time>
  <course>101.08</course>
  <speed>0.04</speed>
  <fix>3d</fix>
</trkpt>
<trkpt lat="40.0728565" lon="-105.2308584">
  <ele>1595.56</ele>
  <time>2026-08-27T18:29:58Z</time>
  <course>319.44</course>
  <speed>0.0</speed>
  <fix>3d</fix>
</trkpt>
<trkpt lat="40.0728564" lon="-105.2308581">
  <ele>1595.49</ele>
  <time>2026-08-27T18:29:58Z</time>
  <course>102.59</course>
  <speed>0.03</speed>
  <fix>3d</fix>
</trkpt>
<trkpt lat="40.0728564" lon="-105.2308583">
  <ele>1595.56</ele>
  <time>2026-08-27T18:29:58Z</time>
  <course>320.32</course>
  <speed>0.0</speed>
  <fix>3d</fix>
</trkpt>
<trkpt lat="40.0728564" lon="-105.230858">
  <ele>1595.49</ele>
  <time>2026-08-27T18:29:58Z</time>
  <course>104.43</course>
  <speed>0.03</speed>
  <fix>3d</fix>
</trkpt>
<trkpt lat="40.0728564" lon="-105.2308582">
  <ele>1595.56</ele>
  <time>2026-08-27T18:29:58Z</time>
  <course>321.53</course>
  <speed>0.0</speed>
  <fix>3d</fix>
</trkpt>
<trkpt lat="40.0728564" lon="-105.230858">
  <ele>1595.49</ele>
  <time>2026-08-27T18:29:58Z</time>
  <course>106.96</course>
  <speed>0.03</speed>
  <fix>3d</fix>
</trkpt>
<trkpt lat="40.0728564" lon="-105.2308582">
  <ele>1595.56</ele>
  <time>2026-08-27T18:29:58Z</time>
  <course>322.99</course>
  <speed>0.0</speed>
  <fix>3d</fix>
</trkpt>
<trkpt lat="40.0728563" lon="-105.2308579">
  <ele>1595.49</ele>
  <time>2026-08-27T18:29:58Z</time>
  <course>109.45</course>
  <speed>0.03</speed>
  <fix>3d</fix>
</trkpt>
<trkpt lat="40.0728564" lon="-105.2308581">
  <ele>1595.56</ele>
  <time>2026-08-27T18:29:58Z</time>
  <course>324.51</course>
  <speed>0.0</speed>
  <fix>3d</fix>
</trkpt>
<trkpt lat="40.0728563" lon="-105.2308578">
  <ele>1595.49</ele>
  <time>2026-08-27T18:29:58Z</time>
  <course>110.52</course>
  <speed>0.03</speed>
  <fix>3d</fix>
</trkpt>
<trkpt lat="40.0728564" lon="-105.230858">
  <ele>1595.56</ele>
  <time>2026-08-27T18:29:58Z</time>
  <course>325.97</course>
  <speed>0.0</speed>
  <fix>3d</fix>
</trkpt>
<trkpt lat="40.0728563" lon="-105.2308578">
  <ele>1595.49</ele>
  <time>2026-08-27T18:29:58Z</time>
  <course>110.41</course>
  <speed>0.03</speed>
  <fix>3d</fix>
</trkpt>
<trkpt lat="40.0728564" lon="-105.230858">
  <ele>1595.56</ele>
  <time>2026-08-27T18:29:58Z</time>
  <course>327.27</course>
  <speed>0.0</speed>
  <fix>3d</fix>
</trkpt>
<trkpt lat="40.0728563" lon="-105.2308577">
  <ele>1595.49</ele>
  <time>2026-08-27T18:29:58Z</time>
  <course>108.8</course>
  <speed>0.03</speed>
  <fix>3d</fix>
</trkpt>
<trkpt lat="40.0728563" lon="-105.2308579">
  <ele>1595.57</ele>
  <time>2026-08-27T18:29:58Z</time>
  <course>328.25</course>
  <speed>0.0</speed>
  <fix>3d</fix>
</trkpt>
<trkpt lat="40.0728563" lon="-105.2308576">
  <ele>1595.49</ele>
  <time>2026-08-27T18:29:58Z</time>
  <course>105.82</course>
  <speed>0.03</speed>
  <fix>3d</fix>
</trkpt>
<trkpt lat="40.0728563" lon="-105.2308578">
  <ele>1595.57</ele>
  <time>2026-08-27T18:29:58Z</time>
  <course>328.78</course>
  <speed>0.0</speed>
  <fix>3d</fix>
</trkpt>
<trkpt lat="40.0728563" lon="-105.2308575">
  <ele>1595.49</ele>
  <time>2026-08-27T18:29:58Z</time>
  <course>102.57</course>
  <speed>0.03</speed>
  <fix>3d</fix>
</trkpt>
<trkpt lat="40.0728563" lon="-105.2308577">
  <ele>1595.57</ele>
  <time>2026-08-27T18:29:58Z</time>
  <course>328.87</course>
  <speed>0.0</speed>
  <fix>3d</fix>
</trkpt>
<trkpt lat="40.0728562" lon="-105.2308575">
  <ele>1595.49</ele>
  <time>2026-08-27T18:29:58Z</time>
  <course>99.64</course>
  <speed>0.03</speed>
  <fix>3d</fix>
</trkpt>
<trkpt lat="40.0728563" lon="-105.2308576">
  <ele>1595.57</ele>
  <time>2026-08-27T18:29:58Z</time>
  <course>328.47</course>
  <speed>0.01</speed>
  <fix>3d</fix>
</trkpt>
<trkpt lat="40.0728561" lon="-105.2308574">
  <ele>1595.49</ele>
  <time>2026-08-27T18:29:58Z</time>
  <course>97.03</course>
  <speed>0.03</speed>
  <fix>3d</fix>
</trkpt>
<trkpt lat="40.0728563" lon="-105.2308575">
  <ele>1595.56</ele>
  <time>2026-08-27T18:29:58Z</time>
  <course>327.6</course>
  <speed>0.01</speed>
  <fix>3d</fix>
</trkpt>
<trkpt lat="40.0728561" lon="-105.2308573">
  <ele>1595.49</ele>
  <time>2026-08-27T18:29:58Z</time>
  <course>94.46</course>
  <speed>0.03</speed>
  <fix>3d</fix>
</trkpt>
<trkpt lat="40.0728563" lon="-105.2308575">
  <ele>1595.56</ele>
  <time>2026-08-27T18:29:58Z</time>
  <course>326.36</course>
  <speed>0.01</speed>
  <fix>3d</fix>
</trkpt>
<trkpt lat="40.0728561" lon="-105.2308572">
  <ele>1595.48</ele>
  <time>2026-08-27T18:29:58Z</time>
  <course>92.62</course>
  <speed>0.03</speed>
  <fix>3d</fix>
</trkpt>
<trkpt lat="40.0728563" lon="-105.2308574">
  <ele>1595.56</ele>
  <time>2026-08-27T18:29:58Z</time>
  <course>324.91</course>
  <speed>0.01</speed>
  <fix>3d</fix>
</trkpt>
<trkpt lat="40.0728561" lon="-105.2308571">
  <ele>1595.48</ele>
  <time>2026-08-27T18:29:58Z</time>
  <course>91.63</course>
  <speed>0.03</speed>
  <fix>3d</fix>
</trkpt>
<trkpt lat="40.0728563" lon="-105.2308573">
  <ele>1595.57</ele>
  <time>2026-08-27T18:29:58Z</time>
  <course>323.4</course>
  <speed>0.01</speed>
  <fix>3d</fix>
</trkpt>
<trkpt lat="40.0728561" lon="-105.230857">
  <ele>1595.48</ele>
  <time>2026-08-27T18:29:58Z</time>
  <course>91.26</course>
  <speed>0.03</speed>
  <fix>3d</fix>
</trkpt>
<trkpt lat="40.0728562" lon="-105.2308572">
  <ele>1595.57</ele>
  <time>2026-08-27T18:29:58Z</time>
  <course>321.93</course>
  <speed>0.0</speed>
  <fix>3d</fix>
</trkpt>
<trkpt lat="40.0728561" lon="-105.2308569">
  <ele>1595.48</ele>
  <time>2026-08-27T18:29:58Z</time>
  <course>91.93</course>
  <speed>0.03</speed>
  <fix>3d</fix>
</trkpt>
<trkpt lat="40.0728562" lon="-105.2308571">
  <ele>1595.56</ele>
  <time>2026-08-27T18:29:58Z</time>
  <course>320.65</course>
  <speed>0.0</speed>
  <fix>3d</fix>
</trkpt>
<trkpt lat="40.0728561" lon="-105.2308568">
  <ele>1595.48</ele>
  <time>2026-08-27T18:29:58Z</time>
  <course>93.14</course>
  <speed>0.03</speed>
  <fix>3d</fix>
</trkpt>
<trkpt lat="40.0728562" lon="-105.230857">
  <ele>1595.56</ele>
  <time>2026-08-27T18:29:58Z</time>
  <course>319.67</course>
  <speed>0.0</speed>
  <fix>3d</fix>
</trkpt>
<trkpt lat="40.0728561" lon="-105.2308568">
  <ele>1595.48</ele>
  <time>2026-08-27T18:29:58Z</time>
  <course>95.38</course>
  <speed>0.03</speed>
  <fix>3d</fix>
</trkpt>
<trkpt lat="40.0728562" lon="-105.230857">
  <ele>1595.55</ele>
  <time>2026-08-27T18:29:58Z</time>
  <course>319.11</course>
  <speed>0.0</speed>
  <fix>3d</fix>
</trkpt>
<trkpt lat="40.0728561" lon="-105.2308567">
  <ele>1595.48</ele>
  <time>2026-08-27T18:29:58Z</time>
  <course>99.05</course>
  <speed>0.03</speed>
  <fix>3d</fix>
</trkpt>
<trkpt lat="40.0728562" lon="-105.2308569">
  <ele>1595.55</ele>
  <time>2026-08-27T18:29:58Z</time>
  <course>319.05</course>
  <speed>0.0</speed>
  <fix>3d</fix>
</trkpt>
<trkpt lat="40.0728561" lon="-105.2308566">
  <ele>1595.48</ele>
  <time>2026-08-27T18:29:58Z</time>
  <course>103.18</course>
  <speed>0.03</speed>
  <fix>3d</fix>
</trkpt>
<trkpt lat="40.0728562" lon="-105.2308568">
  <ele>1595.56</ele>
  <time>2026-08-27T18:29:58Z</time>
  <course>319.45</course>
  <speed>0.0</speed>
  <fix>3d</fix>
</trkpt>
<trkpt lat="40.0728561" lon="-105.2308566">
  <ele>1595.48</ele>
  <time>2026-08-27T18:29:58Z</time>
  <course>107.12</course>
  <speed>0.03</speed>
  <fix>3d</fix>
</trkpt>
<trkpt lat="40.0728561" lon="-105.2308568">
  <ele>1595.56</ele>
  <time>2026-08-27T18:29:58Z</time>
  <course>320.31</course>
  <speed>0.0</speed>
  <fix>3d</fix>
</trkpt>
<trkpt lat="40.0728561" lon="-105.2308565">
  <ele>1595.48</ele>
  <time>2026-08-27T18:29:58Z</time>
  <course>109.95</course>
  <speed>0.02</speed>
  <fix>3d</fix>
</trkpt>
<trkpt lat="40.0728561" lon="-105.2308567">
  <ele>1595.56</ele>
  <time>2026-08-27T18:29:58Z</time>
  <course>321.54</course>
  <speed>0.0</speed>
  <fix>3d</fix>
</trkpt>
<trkpt lat="40.0728561" lon="-105.2308564">
  <ele>1595.48</ele>
  <time>2026-08-27T18:29:58Z</time>
  <course>110.93</course>
  <speed>0.02</speed>
  <fix>3d</fix>
</trkpt>
<trkpt lat="40.0728561" lon="-105.2308566">
  <ele>1595.56</ele>
  <time>2026-08-27T18:29:58Z</time>
  <course>322.99</course>
  <speed>0.0</speed>
  <fix>3d</fix>
</trkpt>
<trkpt lat="40.072856" lon="-105.2308563">
  <ele>1595.48</ele>
  <time>2026-08-27T18:29:58Z</time>
  <course>111.42</course>
  <speed>0.02</speed>
  <fix>3d</fix>
</trkpt>
<trkpt lat="40.0728561" lon="-105.2308566">
  <ele>1595.56</ele>
  <time>2026-08-27T18:29:58Z</time>
  <course>324.51</course>
  <speed>0.0</speed>
  <fix>3d</fix>
</trkpt>
<trkpt lat="40.072856" lon="-105.2308563">
  <ele>1595.48</ele>
  <time>2026-08-27T18:29:58Z</time>
  <course>111.74</course>
  <speed>0.03</speed>
  <fix>3d</fix>
</trkpt>
<trkpt lat="40.0728561" lon="-105.2308565">
  <ele>1595.56</ele>
  <time>2026-08-27T18:29:58Z</time>
  <course>326.0</course>
  <speed>0.0</speed>
  <fix>3d</fix>
</trkpt>
<trkpt lat="40.072856" lon="-105.2308562">
  <ele>1595.48</ele>
  <time>2026-08-27T18:29:58Z</time>
  <course>110.94</course>
  <speed>0.03</speed>
  <fix>3d</fix>
</trkpt>
<trkpt lat="40.072856" lon="-105.2308564">
  <ele>1595.57</ele>
  <time>2026-08-27T18:29:58Z</time>
  <course>327.26</course>
  <speed>0.0</speed>
  <fix>3d</fix>
</trkpt>
<trkpt lat="40.072856" lon="-105.2308561">
  <ele>1595.48</ele>
  <time>2026-08-27T18:29:58Z</time>
  <course>108.79</course>
  <speed>0.03</speed>
  <fix>3d</fix>
</trkpt>
<trkpt lat="40.072856" lon="-105.2308563">
  <ele>1595.57</ele>
  <time>2026-08-27T18:29:58Z</time>
  <course>328.24</course>
  <speed>0.0</speed>
  <fix>3d</fix>
</trkpt>
<trkpt lat="40.072856" lon="-105.2308561">
  <ele>1595.48</ele>
  <time>2026-08-27T18:29:58Z</time>
  <course>105.88</course>
  <speed>0.03</speed>
  <fix>3d</fix>
</trkpt>
<trkpt lat="40.072856" lon="-105.2308563">
  <ele>1595.57</ele>
  <time>2026-08-27T18:29:58Z</time>
  <course>328.81</course>
  <speed>0.0</speed>
  <fix>3d</fix>
</trkpt>
<trkpt lat="40.072856" lon="-105.230856">
  <ele>1595.48</ele>
  <time>2026-08-27T18:29:58Z</time>
  <course>102.94</course>
  <speed>0.03</speed>
  <fix>3d</fix>
</trkpt>
<trkpt lat="40.072856" lon="-105.2308562">
  <ele>1595.58</ele>
  <time>2026-08-27T18:29:58Z</time>
  <course>328.87</course>
  <speed>0.01</speed>
  <fix>3d</fix>
</trkpt>
<trkpt lat="40.072856" lon="-105.2308559">
  <ele>1595.47</ele>
  <time>2026-08-27T18:29:58Z</time>
  <course>99.44</course>
  <speed>0.03</speed>
  <fix>3d</fix>
</trkpt>
<trkpt lat="40.072856" lon="-105.2308561">
  <ele>1595.58</ele>
  <time>2026-08-27T18:29:58Z</time>
  <course>328.49</course>
  <speed>0.01</speed>
  <fix>3d</fix>
</trkpt>
<trkpt lat="40.072856" lon="-105.2308558">
  <ele>1595.47</ele>
  <time>2026-08-27T18:29:58Z</time>
  <course>95.78</course>
  <speed>0.03</speed>
  <fix>3d</fix>
</trkpt>
<trkpt lat="40.072856" lon="-105.230856">
  <ele>1595.58</ele>
  <time>2026-08-27T18:29:58Z</time>
  <course>327.62</course>
  <speed>0.01</speed>
  <fix>3d</fix>
</trkpt>
<trkpt lat="40.072856" lon="-105.2308558">
  <ele>1595.47</ele>
  <time>2026-08-27T18:29:58Z</time>
  <course>92.04</course>
  <speed>0.03</speed>
  <fix>3d</fix>
</trkpt>
<trkpt lat="40.072856" lon="-105.2308559">
  <ele>1595.58</ele>
  <time>2026-08-27T18:29:58Z</time>
  <course>326.43</course>
  <speed>0.01</speed>
  <fix>3d</fix>
</trkpt>
<trkpt lat="40.072856" lon="-105.2308557">
  <ele>1595.47</ele>
  <time>2026-08-27T18:29:58Z</time>
  <course>88.56</course>
  <speed>0.03</speed>
  <fix>3d</fix>
</trkpt>
<trkpt lat="40.072856" lon="-105.2308558">
  <ele>1595.57</ele>
  <time>2026-08-27T18:29:58Z</time>
  <course>325.0</course>
  <speed>0.01</speed>
  <fix>3d</fix>
</trkpt>
<trkpt lat="40.072856" lon="-105.2308556">
  <ele>1595.46</ele>
  <time>2026-08-27T18:29:58Z</time>
  <course>86.05</course>
  <speed>0.03</speed>
  <fix>3d</fix>
</trkpt>
<trkpt lat="40.072856" lon="-105.2308557">
  <ele>1595.57</ele>
  <time>2026-08-27T18:29:58Z</time>
  <course>323.49</course>
  <speed>0.01</speed>
  <fix>3d</fix>
</trkpt>
<trkpt lat="40.072856" lon="-105.2308555">
  <ele>1595.46</ele>
  <time>2026-08-27T18:29:58Z</time>
  <course>84.96</course>
  <speed>0.03</speed>
  <fix>3d</fix>
</trkpt>
<trkpt lat="40.072856" lon="-105.2308557">
  <ele>1595.56</ele>
  <time>2026-08-27T18:29:58Z</time>
  <course>321.97</course>
  <speed>0.0</speed>
  <fix>3d</fix>
</trkpt>
<trkpt lat="40.072856" lon="-105.2308554">
  <ele>1595.45</ele>
  <time>2026-08-27T18:29:58Z</time>
  <course>85.78</course>
  <speed>0.03</speed>
  <fix>3d</fix>
</trkpt>
<trkpt lat="40.072856" lon="-105.2308556">
  <ele>1595.56</ele>
  <time>2026-08-27T18:29:58Z</time>
  <course>320.63</course>
  <speed>0.0</speed>
  <fix>3d</fix>
</trkpt>
<trkpt lat="40.072856" lon="-105.2308553">
  <ele>1595.45</ele>
  <time>2026-08-27T18:29:58Z</time>
  <course>88.17</course>
  <speed>0.03</speed>
  <fix>3d</fix>
</trkpt>
<trkpt lat="40.072856" lon="-105.2308555">
  <ele>1595.56</ele>
  <time>2026-08-27T18:29:58Z</time>
  <course>319.69</course>
  <speed>0.0</speed>
  <fix>3d</fix>
</trkpt>
<trkpt lat="40.072856" lon="-105.2308552">
  <ele>1595.45</ele>
  <time>2026-08-27T18:29:58Z</time>
  <course>92.33</course>
  <speed>0.03</speed>
  <fix>3d</fix>
</trkpt>
<trkpt lat="40.072856" lon="-105.2308554">
  <ele>1595.56</ele>
  <time>2026-08-27T18:29:58Z</time>
  <course>319.14</course>
  <speed>0.0</speed>
  <fix>3d</fix>
</trkpt>
<trkpt lat="40.072856" lon="-105.2308551">
  <ele>1595.45</ele>
  <time>2026-08-27T18:29:58Z</time>
  <course>97.9</course>
  <speed>0.03</speed>
  <fix>3d</fix>
</trkpt>
<trkpt lat="40.072856" lon="-105.2308553">
  <ele>1595.56</ele>
  <time>2026-08-27T18:29:58Z</time>
  <course>319.07</course>
  <speed>0.0</speed>
  <fix>3d</fix>
</trkpt>
<trkpt lat="40.072856" lon="-105.2308551">
  <ele>1595.45</ele>
  <time>2026-08-27T18:29:58Z</time>
  <course>103.89</course>
  <speed>0.03</speed>
  <fix>3d</fix>
</trkpt>
<trkpt lat="40.072856" lon="-105.2308553">
  <ele>1595.56</ele>
  <time>2026-08-27T18:29:58Z</time>
  <course>319.46</course>
  <speed>0.0</speed>
  <fix>3d</fix>
</trkpt>
<trkpt lat="40.072856" lon="-105.230855">
  <ele>1595.44</ele>
  <time>2026-08-27T18:29:58Z</time>
  <course>109.27</course>
  <speed>0.03</speed>
  <fix>3d</fix>
</trkpt>
<trkpt lat="40.072856" lon="-105.2308552">
  <ele>1595.56</ele>
  <time>2026-08-27T18:29:58Z</time>
  <course>320.33</course>
  <speed>0.0</speed>
  <fix>3d</fix>
</trkpt>
<trkpt lat="40.072856" lon="-105.2308549">
  <ele>1595.44</ele>
  <time>2026-08-27T18:29:58Z</time>
  <course>113.66</course>
  <speed>0.03</speed>
  <fix>3d</fix>
</trkpt>
<trkpt lat="40.072856" lon="-105.2308551">
  <ele>1595.55</ele>
  <time>2026-08-27T18:29:58Z</time>
  <course>321.52</course>
  <speed>0.01</speed>
  <fix>3d</fix>
</trkpt>
<trkpt lat="40.0728559" lon="-105.2308549">
  <ele>1595.44</ele>
  <time>2026-08-27T18:29:58Z</time>
  <course>117.11</course>
  <speed>0.03</speed>
  <fix>3d</fix>
</trkpt>
<trkpt lat="40.072856" lon="-105.2308551">
  <ele>1595.55</ele>
  <time>2026-08-27T18:29:58Z</time>
  <course>322.94</course>
  <speed>0.01</speed>
  <fix>3d</fix>
</trkpt>
<trkpt lat="40.0728559" lon="-105.2308548">
  <ele>1595.44</ele>
  <time>2026-08-27T18:29:58Z</time>
  <course>118.75</course>
  <speed>0.03</speed>
  <fix>3d</fix>
</trkpt>
<trkpt lat="40.0728559" lon="-105.230855">
  <ele>1595.55</ele>
  <time>2026-08-27T18:29:58Z</time>
  <course>324.46</course>
  <speed>0.01</speed>
  <fix>3d</fix>
</trkpt>
<trkpt lat="40.0728559" lon="-105.2308547">
  <ele>1595.44</ele>
  <time>2026-08-27T18:29:58Z</time>
  <course>118.21</course>
  <speed>0.03</speed>
  <fix>3d</fix>
</trkpt>
<trkpt lat="40.0728559" lon="-105.2308549">
  <ele>1595.55</ele>
  <time>2026-08-27T18:29:58Z</time>
  <course>325.95</course>
  <speed>0.0</speed>
  <fix>3d</fix>
</trkpt>
<trkpt lat="40.0728559" lon="-105.2308547">
  <ele>1595.44</ele>
  <time>2026-08-27T18:29:58Z</time>
  <course>116.18</course>
  <speed>0.03</speed>
  <fix>3d</fix>
</trkpt>
<trkpt lat="40.0728559" lon="-105.2308549">
  <ele>1595.55</ele>
  <time>2026-08-27T18:29:58Z</time>
  <course>327.23</course>
  <speed>0.0</speed>
  <fix>3d</fix>
</trkpt>
<trkpt lat="40.0728558" lon="-105.2308546">
  <ele>1595.44</ele>
  <time>2026-08-27T18:29:58Z</time>
  <course>112.81</course>
  <speed>0.03</speed>
  <fix>3d</fix>
</trkpt>
<trkpt lat="40.0728559" lon="-105.2308548">
  <ele>1595.55</ele>
  <time>2026-08-27T18:29:58Z</time>
  <course>328.2</course>
  <speed>0.0</speed>
  <fix>3d</fix>
</trkpt>
<trkpt lat="40.0728558" lon="-105.2308545">
  <ele>1595.45</ele>
  <time>2026-08-27T18:29:58Z</time>
  <course>108.97</course>
  <speed>0.03</speed>
  <fix>3d</fix>
</trkpt>
<trkpt lat="40.0728559" lon="-105.2308547">
  <ele>1595.55</ele>
  <time>2026-08-27T18:29:58Z</time>
  <course>328.75</course>
  <speed>0.01</speed>
  <fix>3d</fix>
</trkpt>
<trkpt lat="40.0728558" lon="-105.2308544">
  <ele>1595.45</ele>
  <time>2026-08-27T18:29:58Z</time>
  <course>105.03</course>
  <speed>0.03</speed>
  <fix>3d</fix>
</trkpt>
<trkpt lat="40.0728559" lon="-105.2308546">
  <ele>1595.55</ele>
  <time>2026-08-27T18:29:58Z</time>
  <course>328.84</course>
  <speed>0.01</speed>
  <fix>3d</fix>
</trkpt>
<trkpt lat="40.0728558" lon="-105.2308544">
  <ele>1595.45</ele>
  <time>2026-08-27T18:29:58Z</time>
  <course>100.68</course>
  <speed>0.03</speed>
  <fix>3d</fix>
</trkpt>
<trkpt lat="40.0728558" lon="-105.2308545">
  <ele>1595.55</ele>
  <time>2026-08-27T18:29:58Z</time>
  <course>328.41</course>
  <speed>0.01</speed>
  <fix>3d</fix>
</trkpt>
<trkpt lat="40.0728558" lon="-105.2308543">
  <ele>1595.45</ele>
  <time>2026-08-27T18:29:58Z</time>
  <course>96.82</course>
  <speed>0.03</speed>
  <fix>3d</fix>
</trkpt>
<trkpt lat="40.0728558" lon="-105.2308544">
  <ele>1595.55</ele>
  <time>2026-08-27T18:29:58Z</time>
  <course>327.57</course>
  <speed>0.01</speed>
  <fix>3d</fix>
</trkpt>
<trkpt lat="40.0728558" lon="-105.2308542">
  <ele>1595.46</ele>
  <time>2026-08-27T18:29:58Z</time>
  <course>93.6</course>
  <speed>0.03</speed>
  <fix>3d</fix>
</trkpt>
<trkpt lat="40.0728559" lon="-105.2308543">
  <ele>1595.55</ele>
  <time>2026-08-27T18:29:58Z</time>
  <course>326.35</course>
  <speed>0.01</speed>
  <fix>3d</fix>
</trkpt>
<trkpt lat="40.0728558" lon="-105.2308541">
  <ele>1595.46</ele>
  <time>2026-08-27T18:29:58Z</time>
  <course>91.32</course>
  <speed>0.03</speed>
  <fix>3d</fix>
</trkpt>
<trkpt lat="40.0728559" lon="-105.2308543">
  <ele>1595.54</ele>
  <time>2026-08-27T18:29:58Z</time>
  <course>324.89</course>
  <speed>0.01</speed>
  <fix>3d</fix>
</trkpt>
<trkpt lat="40.0728558" lon="-105.230854">
  <ele>1595.46</ele>
  <time>2026-08-27T18:29:58Z</time>
  <course>89.84</course>
  <speed>0.03</speed>
  <fix>3d</fix>
</trkpt>
<trkpt lat="40.0728559" lon="-105.2308542">
  <ele>1595.54</ele>
  <time>2026-08-27T18:29:58Z</time>
  <course>323.36</course>
  <speed>0.01</speed>
  <fix>3d</fix>
</trkpt>
<trkpt lat="40.0728558" lon="-105.2308539">
  <ele>1595.46</ele>
  <time>2026-08-27T18:29:58Z</time>
  <course>89.47</course>
  <speed>0.03</speed>
  <fix>3d</fix>
</trkpt>
<trkpt lat="40.0728559" lon="-105.2308541">
  <ele>1595.54</ele>
  <time>2026-08-27T18:29:58Z</time>
  <course>321.86</course>
  <speed>0.01</speed>
  <fix>3d</fix>
</trkpt>
<trkpt lat="40.0728558" lon="-105.2308538">
  <ele>1595.47</ele>
  <time>2026-08-27T18:29:58Z</time>
  <course>90.85</course>
  <speed>0.03</speed>
  <fix>3d</fix>
</trkpt>
<trkpt lat="40.0728559" lon="-105.230854">
  <ele>1595.55</ele>
  <time>2026-08-27T18:29:58Z</time>
  <course>320.56</course>
  <speed>0.01</speed>
  <fix>3d</fix>
</trkpt>
<trkpt lat="40.0728558" lon="-105.2308537">
  <ele>1595.47</ele>
  <time>2026-08-27T18:29:58Z</time>
  <course>93.26</course>
  <speed>0.03</speed>
  <fix>3d</fix>
</trkpt>
<trkpt lat="40.0728559" lon="-105.2308539">
  <ele>1595.56</ele>
  <time>2026-08-27T18:29:58Z</time>
  <course>319.61</course>
  <speed>0.0</speed>
  <fix>3d</fix>
</trkpt>
<trkpt lat="40.0728558" lon="-105.2308537">
  <ele>1595.48</ele>
  <time>2026-08-27T18:29:58Z</time>
  <course>96.48</course>
  <speed>0.03</speed>
  <fix>3d</fix>
</trkpt>
<trkpt lat="40.0728558" lon="-105.2308538">
  <ele>1595.56</ele>
  <time>2026-08-27T18:29:58Z</time>
  <course>319.1</course>
  <speed>0.0</speed>
  <fix>3d</fix>
</trkpt>
<trkpt lat="40.0728557" lon="-105.2308536">
  <ele>1595.48</ele>
  <time>2026-08-27T18:29:58Z</time>
  <course>100.22</course>
  <speed>0.03</speed>
  <fix>3d</fix>
</trkpt>
<trkpt lat="40.0728558" lon="-105.2308538">
  <ele>1595.57</ele>
  <time>2026-08-27T18:29:58Z</time>
  <course>319.07</course>
  <speed>0.0</speed>
  <fix>3d</fix>
</trkpt>
<trkpt lat="40.0728557" lon="-105.2308535">
  <ele>1595.48</ele>
  <time>2026-08-27T18:29:58Z</time>
  <course>103.94</course>
  <speed>0.03</speed>
  <fix>3d</fix>
</trkpt>
<trkpt lat="40.0728558" lon="-105.2308537">
  <ele>1595.57</ele>
  <time>2026-08-27T18:29:58Z</time>
  <course>319.48</course>
  <speed>0.0</speed>
  <fix>3d</fix>
</trkpt>
<trkpt lat="40.0728557" lon="-105.2308534">
  <ele>1595.49</ele>
  <time>2026-08-27T18:29:58Z</time>
  <course>107.58</course>
  <speed>0.03</speed>
  <fix>3d</fix>
</trkpt>
<trkpt lat="40.0728558" lon="-105.2308536">
  <ele>1595.57</ele>
  <time>2026-08-27T18:29:58Z</time>
  <course>320.32</course>
  <speed>0.0</speed>
  <fix>3d</fix>
</trkpt>
<trkpt lat="40.0728557" lon="-105.2308534">
  <ele>1595.49</ele>
  <time>2026-08-27T18:29:58Z</time>
  <course>111.63</course>
  <speed>0.03</speed>
  <fix>3d</fix>
</trkpt>
<trkpt lat="40.0728558" lon="-105.2308536">
  <ele>1595.57</ele>
  <time>2026-08-27T18:29:58Z</time>
  <course>321.55</course>
  <speed>0.01</speed>
  <fix>3d</fix>
</trkpt>
<trkpt lat="40.0728557" lon="-105.2308533">
  <ele>1595.49</ele>
  <time>2026-08-27T18:29:58Z</time>
  <course>115.14</course>
  <speed>0.03</speed>
  <fix>3d</fix>
</trkpt>
<trkpt lat="40.0728557" lon="-105.2308535">
  <ele>1595.58</ele>
  <time>2026-08-27T18:29:58Z</time>
  <course>323.0</course>
  <speed>0.01</speed>
  <fix>3d</fix>
</trkpt>
<trkpt lat="40.0728556" lon="-105.2308532">
  <ele>1595.49</ele>
  <time>2026-08-27T18:29:58Z</time>
  <course>117.12</course>
  <speed>0.03</speed>
  <fix>3d</fix>
</trkpt>
<trkpt lat="40.0728557" lon="-105.2308534">
  <ele>1595.58</ele>
  <time>2026-08-27T18:29:58Z</time>
  <course>324.54</course>
  <speed>0.01</speed>
  <fix>3d</fix>
</trkpt>
<trkpt lat="40.0728555" lon="-105.2308532">
  <ele>1595.48</ele>
  <time>2026-08-27T18:29:58Z</time>
  <course>117.39</course>
  <speed>0.03</speed>
  <fix>3d</fix>
</trkpt>
<trkpt lat="40.0728557" lon="-105.2308534">
  <ele>1595.58</ele>
  <time>2026-08-27T18:29:58Z</time>
  <course>326.03</course>
  <speed>0.0</speed>
  <fix>3d</fix>
</trkpt>
<trkpt lat="40.0728555" lon="-105.2308531">
  <ele>1595.48</ele>
  <time>2026-08-27T18:29:58Z</time>
  <course>115.3</course>
  <speed>0.03</speed>
  <fix>3d</fix>
</trkpt>
<trkpt lat="40.0728556" lon="-105.2308533">
  <ele>1595.58</ele>
  <time>2026-08-27T18:29:58Z</time>
  <course>327.33</course>
  <speed>0.0</speed>
  <fix>3d</fix>
</trkpt>
<trkpt lat="40.0728555" lon="-105.230853">
  <ele>1595.48</ele>
  <time>2026-08-27T18:29:58Z</time>
  <course>111.5</course>
  <speed>0.03</speed>
  <fix>3d</fix>
</trkpt>
<trkpt lat="40.0728556" lon="-105.2308532">
  <ele>1595.58</ele>
  <time>2026-08-27T18:29:58Z</time>
  <course>328.29</course>
  <speed>0.0</speed>
  <fix>3d</fix>
</trkpt>
<trkpt lat="40.0728555" lon="-105.230853">
  <ele>1595.47</ele>
  <time>2026-08-27T18:29:58Z</time>
  <course>106.82</course>
  <speed>0.03</speed>
  <fix>3d</fix>
</trkpt>
<trkpt lat="40.0728556" lon="-105.2308532">
  <ele>1595.57</ele>
  <time>2026-08-27T18:29:58Z</time>
  <course>328.81</course>
  <speed>0.0</speed>
  <fix>3d</fix>
</trkpt>
<trkpt lat="40.0728555" lon="-105.2308529">
  <ele>1595.47</ele>
  <time>2026-08-27T18:29:58Z</time>
  <course>102.18</course>
  <speed>0.03</speed>
  <fix>3d</fix>
</trkpt>
<trkpt lat="40.0728556" lon="-105.2308531">
  <ele>1595.57</ele>
  <time>2026-08-27T18:29:58Z</time>
  <course>328.87</course>
  <speed>0.0</speed>
  <fix>3d</fix>
</trkpt>
<trkpt lat="40.0728554" lon="-105.2308528">
  <ele>1595.47</ele>
  <time>2026-08-27T18:29:58Z</time>
  <course>98.02</course>
  <speed>0.03</speed>
  <fix>3d</fix>
</trkpt>
<trkpt lat="40.0728556" lon="-105.230853">
  <ele>1595.57</ele>
  <time>2026-08-27T18:29:58Z</time>
  <course>328.47</course>
  <speed>0.01</speed>
  <fix>3d</fix>
</trkpt>
<trkpt lat="40.0728554" lon="-105.2308527">
  <ele>1595.46</ele>
  <time>2026-08-27T18:29:58Z</time>
  <course>94.03</course>
  <speed>0.03</speed>
  <fix>3d</fix>
</trkpt>
<trkpt lat="40.0728556" lon="-105.2308529">
  <ele>1595.57</ele>
  <time>2026-08-27T18:29:58Z</time>
  <course>327.61</course>
  <speed>0.01</speed>
  <fix>3d</fix>
</trkpt>
<trkpt lat="40.0728554" lon="-105.2308526">
  <ele>1595.46</ele>
  <time>2026-08-27T18:29:58Z</time>
  <course>89.91</course>
  <speed>0.03</speed>
  <fix>3d</fix>
</trkpt>
<trkpt lat="40.0728555" lon="-105.2308528">
  <ele>1595.56</ele>
  <time>2026-08-27T18:29:58Z</time>
  <course>326.38</course>
  <speed>0.01</speed>
  <fix>3d</fix>
</trkpt>
<trkpt lat="40.0728554" lon="-105.2308525">
  <ele>1595.46</ele>
  <time>2026-08-27T18:29:58Z</time>
  <course>87.02</course>
  <speed>0.03</speed>
  <fix>3d</fix>
</trkpt>
<trkpt lat="40.0728555" lon="-105.2308527">
  <ele>1595.56</ele>
  <time>2026-08-27T18:29:58Z</time>
  <course>324.91</course>
  <speed>0.01</speed>
  <fix>3d</fix>
</trkpt>
<trkpt lat="40.0728554" lon="-105.2308525">
  <ele>1595.46</ele>
  <time>2026-08-27T18:29:58Z</time>
  <course>85.68</course>
  <speed>0.03</speed>
  <fix>3d</fix>
</trkpt>
<trkpt lat="40.0728555" lon="-105.2308526">
  <ele>1595.56</ele>
  <time>2026-08-27T18:29:58Z</time>
  <course>323.39</course>
  <speed>0.01</speed>
  <fix>3d</fix>
</trkpt>
<trkpt lat="40.0728554" lon="-105.2308524">
  <ele>1595.45</ele>
  <time>2026-08-27T18:29:58Z</time>
  <course>85.05</course>
  <speed>0.03</speed>
  <fix>3d</fix>
</trkpt>
<trkpt lat="40.0728555" lon="-105.2308525">
  <ele>1595.56</ele>
  <time>2026-08-27T18:29:58Z</time>
  <course>321.97</course>
  <speed>0.01</speed>
  <fix>3d</fix>
</trkpt>
<trkpt lat="40.0728554" lon="-105.2308523">
  <ele>1595.45</ele>
  <time>2026-08-27T18:29:58Z</time>
  <course>85.28</course>
  <speed>0.03</speed>
  <fix>3d</fix>
</trkpt>
<trkpt lat="40.0728555" lon="-105.2308525">
  <ele>1595.56</ele>
  <time>2026-08-27T18:29:58Z</time>
  <course>320.65</course>
  <speed>0.0</speed>
  <fix>3d</fix>
</trkpt>
<trkpt lat="40.0728554" lon="-105.2308522">
  <ele>1595.45</ele>
  <time>2026-08-27T18:29:58Z</time>
  <course>86.49</course>
  <speed>0.03</speed>
  <fix>3d</fix>
</trkpt>
<trkpt lat="40.0728555" lon="-105.2308524">
  <ele>1595.56</ele>
  <time>2026-08-27T18:29:58Z</time>
  <course>319.67</course>
  <speed>0.0</speed>
  <fix>3d</fix>
</trkpt>
<trkpt lat="40.0728554" lon="-105.2308521">
  <ele>1595.45</ele>
  <time>2026-08-27T18:29:58Z</time>
  <course>88.69</course>
  <speed>0.03</speed>
  <fix>3d</fix>
</trkpt>
<trkpt lat="40.0728555" lon="-105.2308523">
  <ele>1595.56</ele>
  <time>2026-08-27T18:29:58Z</time>
  <course>319.12</course>
  <speed>0.0</speed>
  <fix>3d</fix>
</trkpt>
<trkpt lat="40.0728554" lon="-105.230852">
  <ele>1595.45</ele>
  <time>2026-08-27T18:29:58Z</time>
  <course>91.92</course>
  <speed>0.03</speed>
  <fix>3d</fix>
</trkpt>
<trkpt lat="40.0728555" lon="-105.2308522">
  <ele>1595.55</ele>
  <time>2026-08-27T18:29:58Z</time>
  <course>319.05</course>
  <speed>0.0</speed>
  <fix>3d</fix>
</trkpt>
<trkpt lat="40.0728554" lon="-105.230852">
  <ele>1595.45</ele>
  <time>2026-08-27T18:29:58Z</time>
  <course>96.3</course>
  <speed>0.03</speed>
  <fix>3d</fix>
</trkpt>
<trkpt lat="40.0728555" lon="-105.2308522">
  <ele>1595.55</ele>
  <time>2026-08-27T18:29:58Z</time>
  <course>319.45</course>
  <speed>0.0</speed>
  <fix>3d</fix>
</trkpt>
<trkpt lat="40.0728554" lon="-105.2308519">
  <ele>1595.45</ele>
  <time>2026-08-27T18:29:58Z</time>
  <course>101.11</course>
  <speed>0.03</speed>
  <fix>3d</fix>
</trkpt>
<trkpt lat="40.0728555" lon="-105.2308521">
  <ele>1595.55</ele>
  <time>2026-08-27T18:29:58Z</time>
  <course>320.28</course>
  <speed>0.0</speed>
  <fix>3d</fix>
</trkpt>
<trkpt lat="40.0728554" lon="-105.2308518">
  <ele>1595.45</ele>
  <time>2026-08-27T18:29:58Z</time>
  <course>104.84</course>
  <speed>0.03</speed>
  <fix>3d</fix>
</trkpt>
<trkpt lat="40.0728554" lon="-105.230852">
  <ele>1595.55</ele>
  <time>2026-08-27T18:29:58Z</time>
  <course>321.46</course>
  <speed>0.0</speed>
  <fix>3d</fix>
</trkpt>
<trkpt lat="40.0728554" lon="-105.2308518">
  <ele>1595.45</ele>
  <time>2026-08-27T18:29:58Z</time>
  <course>106.98</course>
  <speed>0.03</speed>
  <fix>3d</fix>
</trkpt>
<trkpt lat="40.0728554" lon="-105.230852">
  <ele>1595.55</ele>
  <time>2026-08-27T18:29:58Z</time>
  <course>322.93</course>
  <speed>0.0</speed>
  <fix>3d</fix>
</trkpt>
<trkpt lat="40.0728554" lon="-105.2308517">
  <ele>1595.45</ele>
  <time>2026-08-27T18:29:58Z</time>
  <course>108.05</course>
  <speed>0.03</speed>
  <fix>3d</fix>
</trkpt>
<trkpt lat="40.0728554" lon="-105.2308519">
  <ele>1595.55</ele>
  <time>2026-08-27T18:29:58Z</time>
  <course>324.49</course>
  <speed>0.0</speed>
  <fix>3d</fix>
</trkpt>
<trkpt lat="40.0728554" lon="-105.2308516">
  <ele>1595.45</ele>
  <time>2026-08-27T18:29:58Z</time>
  <course>108.05</course>
  <speed>0.03</speed>
  <fix>3d</fix>
</trkpt>
<trkpt lat="40.0728554" lon="-105.2308518">
  <ele>1595.54</ele>
  <time>2026-08-27T18:29:59Z</time>
  <course>325.94</course>
  <speed>0.0</speed>
  <fix>3d</fix>
</trkpt>
<trkpt lat="40.0728554" lon="-105.2308515">
  <ele>1595.46</ele>
  <time>2026-08-27T18:29:59Z</time>
  <course>106.42</course>
  <speed>0.03</speed>
  <fix>3d</fix>
</trkpt>
<trkpt lat="40.0728554" lon="-105.2308517">
  <ele>1595.54</ele>
  <time>2026-08-27T18:29:59Z</time>
  <course>327.21</course>
  <speed>0.0</speed>
  <fix>3d</fix>
</trkpt>
<trkpt lat="40.0728554" lon="-105.2308515">
  <ele>1595.46</ele>
  <time>2026-08-27T18:29:59Z</time>
  <course>103.73</course>
  <speed>0.03</speed>
  <fix>3d</fix>
</trkpt>
<trkpt lat="40.0728554" lon="-105.2308517">
  <ele>1595.54</ele>
  <time>2026-08-27T18:29:59Z</time>
  <course>328.19</course>
  <speed>0.0</speed>
  <fix>3d</fix>
</trkpt>
<trkpt lat="40.0728554" lon="-105.2308514">
  <ele>1595.46</ele>
  <time>2026-08-27T18:29:59Z</time>
  <course>100.59</course>
  <speed>0.03</speed>
  <fix>3d</fix>
</trkpt>
<trkpt lat="40.0728554" lon="-105.2308516">
  <ele>1595.54</ele>
  <time>2026-08-27T18:29:59Z</time>
  <course>328.73</course>
  <speed>0.0</speed>
  <fix>3d</fix>
</trkpt>
<trkpt lat="40.0728554" lon="-105.2308513">
  <ele>1595.47</ele>
  <time>2026-08-27T18:29:59Z</time>
  <course>97.31</course>
  <speed>0.03</speed>
  <fix>3d</fix>
</trkpt>
<trkpt lat="40.0728554" lon="-105.2308515">
  <ele>1595.54</ele>
  <time>2026-08-27T18:29:59Z</time>
  <course>328.79</course>
  <speed>0.01</speed>
  <fix>3d</fix>
</trkpt>
<trkpt lat="40.0728554" lon="-105.2308512">
  <ele>1595.47</ele>
  <time>2026-08-27T18:29:59Z</time>
  <course>94.97</course>
  <speed>0.03</speed>
  <fix>3d</fix>
</trkpt>
<trkpt lat="40.0728554" lon="-105.2308514">
  <ele>1595.54</ele>
  <time>2026-08-27T18:29:59Z</time>
  <course>328.38</course>
  <speed>0.01</speed>
  <fix>3d</fix>
</trkpt>
<trkpt lat="40.0728554" lon="-105.2308511">
  <ele>1595.48</ele>
  <time>2026-08-27T18:29:59Z</time>
  <course>92.97</course>
  <speed>0.03</speed>
  <fix>3d</fix>
</trkpt>
<trkpt lat="40.0728554" lon="-105.2308513">
  <ele>1595.54</ele>
  <time>2026-08-27T18:29:59Z</time>
  <course>327.52</course>
  <speed>0.01</speed>
  <fix>3d</fix>
</trkpt>
<trkpt lat="40.0728554" lon="-105.230851">
  <ele>1595.48</ele>
  <time>2026-08-27T18:29:59Z</time>
  <course>90.88</course>
  <speed>0.03</speed>
  <fix>3d</fix>
</trkpt>
<trkpt lat="40.0728554" lon="-105.2308512">
  <ele>1595.55</ele>
  <time>2026-08-27T18:29:59Z</time>
  <course>326.34</course>
  <speed>0.01</speed>
  <fix>3d</fix>
</trkpt>
<trkpt lat="40.0728554" lon="-105.230851">
  <ele>1595.49</ele>
  <time>2026-08-27T18:29:59Z</time>
  <course>89.58</course>
  <speed>0.03</speed>
  <fix>3d</fix>
</trkpt>
<trkpt lat="40.0728554" lon="-105.2308511">
  <ele>1595.55</ele>
  <time>2026-08-27T18:29:59Z</time>
  <course>324.91</course>
  <speed>0.01</speed>
  <fix>3d</fix>
</trkpt>
<trkpt lat="40.0728554" lon="-105.2308509">
  <ele>1595.49</ele>
  <time>2026-08-27T18:29:59Z</time>
  <course>89.39</course>
  <speed>0.03</speed>
  <fix>3d</fix>
</trkpt>
<trkpt lat="40.0728554" lon="-105.230851">
  <ele>1595.56</ele>
  <time>2026-08-27T18:29:59Z</time>
  <course>323.38</course>
  <speed>0.01</speed>
  <fix>3d</fix>
</trkpt>
<trkpt lat="40.0728554" lon="-105.2308508">
  <ele>1595.5</ele>
  <time>2026-08-27T18:29:59Z</time>
  <course>90.26</course>
  <speed>0.03</speed>
  <fix>3d</fix>
</trkpt>
<trkpt lat="40.0728554" lon="-105.230851">
  <ele>1595.56</ele>
  <time>2026-08-27T18:29:59Z</time>
  <course>321.9</course>
  <speed>0.01</speed>
  <fix>3d</fix>
</trkpt>
<trkpt lat="40.0728554" lon="-105.2308507">
  <ele>1595.5</ele>
  <time>2026-08-27T18:29:59Z</time>
  <course>91.64</course>
  <speed>0.03</speed>
  <fix>3d</fix>
</trkpt>
<trkpt lat="40.0728554" lon="-105.2308509">
  <ele>1595.57</ele>
  <time>2026-08-27T18:29:59Z</time>
  <course>320.62</course>
  <speed>0.0</speed>
  <fix>3d</fix>
</trkpt>
<trkpt lat="40.0728554" lon="-105.2308506">
  <ele>1595.5</ele>
  <time>2026-08-27T18:29:59Z</time>
  <course>93.5</course>
  <speed>0.03</speed>
  <fix>3d</fix>
</trkpt>
<trkpt lat="40.0728554" lon="-105.2308508">
  <ele>1595.57</ele>
  <time>2026-08-27T18:29:59Z</time>
  <course>319.68</course>
  <speed>0.0</speed>
  <fix>3d</fix>
</trkpt>
<trkpt lat="40.0728554" lon="-105.2308505">
  <ele>1595.51</ele>
  <time>2026-08-27T18:29:59Z</time>
  <course>96.22</course>
  <speed>0.03</speed>
  <fix>3d</fix>
</trkpt>
<trkpt lat="40.0728554" lon="-105.2308507">
  <ele>1595.57</ele>
  <time>2026-08-27T18:29:59Z</time>
  <course>319.13</course>
  <speed>0.0</speed>
  <fix>3d</fix>
</trkpt>
<trkpt lat="40.0728554" lon="-105.2308504">
  <ele>1595.51</ele>
  <time>2026-08-27T18:29:59Z</time>
  <course>100.31</course>
  <speed>0.03</speed>
  <fix>3d</fix>
</trkpt>
<trkpt lat="40.0728554" lon="-105.2308506">
  <ele>1595.56</ele>
  <time>2026-08-27T18:29:59Z</time>
  <course>319.04</course>
  <speed>0.0</speed>
  <fix>3d</fix>
</trkpt>
<trkpt lat="40.0728554" lon="-105.2308504">
  <ele>1595.51</ele>
  <time>2026-08-27T18:29:59Z</time>
  <course>105.52</course>
  <speed>0.03</speed>
  <fix>3d</fix>
</trkpt>
<trkpt lat="40.0728554" lon="-105.2308506">
  <ele>1595.56</ele>
  <time>2026-08-27T18:29:59Z</time>
  <course>319.06</course>
  <speed>0.0</speed>
  <fix>3d</fix>
</trkpt>
<trkpt lat="40.0728554" lon="-105.2308503">
  <ele>1595.51</ele>
  <time>2026-08-27T18:29:59Z</time>
  <course>108.75</course>
  <speed>0.03</speed>
  <fix>3d</fix>
</trkpt>
<trkpt lat="40.0728554" lon="-105.2308505">
  <ele>1595.56</ele>
  <time>2026-08-27T18:29:59Z</time>
  <course>319.06</course>
  <speed>0.0</speed>
  <fix>3d</fix>
</trkpt>
<trkpt lat="40.0728553" lon="-105.2308503">
  <ele>1595.51</ele>
  <time>2026-08-27T18:29:59Z</time>
  <course>109.06</course>
  <speed>0.03</speed>
  <fix>3d</fix>
</trkpt>
<trkpt lat="40.0728554" lon="-105.2308504">
  <ele>1595.57</ele>
  <time>2026-08-27T18:29:59Z</time>
  <course>319.06</course>
  <speed>0.0</speed>
  <fix>3d</fix>
</trkpt>
<trkpt lat="40.0728553" lon="-105.2308502">
  <ele>1595.51</ele>
  <time>2026-08-27T18:29:59Z</time>
  <course>108.74</course>
  <speed>0.03</speed>
  <fix>3d</fix>
</trkpt>
<trkpt lat="40.0728554" lon="-105.2308504">
  <ele>1595.57</ele>
  <time>2026-08-27T18:29:59Z</time>
  <course>319.07</course>
  <speed>0.0</speed>
  <fix>3d</fix>
</trkpt>
<trkpt lat="40.0728553" lon="-105.2308501">
  <ele>1595.51</ele>
  <time>2026-08-27T18:29:59Z</time>
  <course>108.57</course>
  <speed>0.03</speed>
  <fix>3d</fix>
</trkpt>
<trkpt lat="40.0728554" lon="-105.2308503">
  <ele>1595.58</ele>
  <time>2026-08-27T18:29:59Z</time>
  <course>319.07</course>
  <speed>0.0</speed>
  <fix>3d</fix>
</trkpt>
<trkpt lat="40.0728553" lon="-105.23085">
  <ele>1595.51</ele>
  <time>2026-08-27T18:29:59Z</time>
  <course>107.99</course>
  <speed>0.03</speed>
  <fix>3d</fix>
</trkpt>
<trkpt lat="40.0728553" lon="-105.2308502">
  <ele>1595.58</ele>
  <time>2026-08-27T18:29:59Z</time>
  <course>319.1</course>
  <speed>0.0</speed>
  <fix>3d</fix>
</trkpt>
<trkpt lat="40.0728553" lon="-105.2308499">
  <ele>1595.51</ele>
  <time>2026-08-27T18:29:59Z</time>
  <course>107.35</course>
  <speed>0.03</speed>
  <fix>3d</fix>
</trkpt>
<trkpt lat="40.0728553" lon="-105.2308501">
  <ele>1595.58</ele>
  <time>2026-08-27T18:29:59Z</time>
  <course>319.09</course>
  <speed>0.01</speed>
  <fix>3d</fix>
</trkpt>
<trkpt lat="40.0728553" lon="-105.2308499">
  <ele>1595.5</ele>
  <time>2026-08-27T18:29:59Z</time>
  <course>106.51</course>
  <speed>0.03</speed>
  <fix>3d</fix>
</trkpt>
<trkpt lat="40.0728553" lon="-105.23085">
  <ele>1595.58</ele>
  <time>2026-08-27T18:29:59Z</time>
  <course>319.09</course>
  <speed>0.01</speed>
  <fix>3d</fix>
</trkpt>
<trkpt lat="40.0728552" lon="-105.2308498">
  <ele>1595.5</ele>
  <time>2026-08-27T18:29:59Z</time>
  <course>105.7</course>
  <speed>0.03</speed>
  <fix>3d</fix>
</trkpt>
<trkpt lat="40.0728553" lon="-105.2308499">
  <ele>1595.58</ele>
  <time>2026-08-27T18:29:59Z</time>
  <course>319.08</course>
  <speed>0.01</speed>
  <fix>3d</fix>
</trkpt>
<trkpt lat="40.0728552" lon="-105.2308497">
  <ele>1595.5</ele>
  <time>2026-08-27T18:29:59Z</time>
  <course>105.1</course>
  <speed>0.04</speed>
  <fix>3d</fix>
</trkpt>
<trkpt lat="40.0728553" lon="-105.2308498">
  <ele>1595.57</ele>
  <time>2026-08-27T18:29:59Z</time>
  <course>319.1</course>
  <speed>0.01</speed>
  <fix>3d</fix>
</trkpt>
<trkpt lat="40.0728552" lon="-105.2308496">
  <ele>1595.49</ele>
  <time>2026-08-27T18:29:59Z</time>
  <course>104.45</course>
  <speed>0.04</speed>
  <fix>3d</fix>
</trkpt>
<trkpt lat="40.0728553" lon="-105.2308498">
  <ele>1595.57</ele>
  <time>2026-08-27T18:29:59Z</time>
  <course>319.1</course>
  <speed>0.01</speed>
  <fix>3d</fix>
</trkpt>
<trkpt lat="40.0728552" lon="-105.2308495">
  <ele>1595.49</ele>
  <time>2026-08-27T18:29:59Z</time>
  <course>104.0</course>
  <speed>0.04</speed>
  <fix>3d</fix>
</trkpt>
<trkpt lat="40.0728552" lon="-105.2308497">
  <ele>1595.57</ele>
  <time>2026-08-27T18:29:59Z</time>
  <course>319.08</course>
  <speed>0.01</speed>
  <fix>3d</fix>
</trkpt>
<trkpt lat="40.0728552" lon="-105.2308494">
  <ele>1595.49</ele>
  <time>2026-08-27T18:29:59Z</time>
  <course>103.47</course>
  <speed>0.04</speed>
  <fix>3d</fix>
</trkpt>
<trkpt lat="40.0728552" lon="-105.2308496">
  <ele>1595.57</ele>
  <time>2026-08-27T18:29:59Z</time>
  <course>319.08</course>
  <speed>0.01</speed>
  <fix>3d</fix>
</trkpt>
<trkpt lat="40.0728551" lon="-105.2308493">
  <ele>1595.48</ele>
  <time>2026-08-27T18:29:59Z</time>
  <course>102.98</course>
  <speed>0.04</speed>
  <fix>3d</fix>
</trkpt>
<trkpt lat="40.0728552" lon="-105.2308494">
  <ele>1595.57</ele>
  <time>2026-08-27T18:29:59Z</time>
  <course>319.1</course>
  <speed>0.01</speed>
  <fix>3d</fix>
</trkpt>
<trkpt lat="40.0728551" lon="-105.2308492">
  <ele>1595.48</ele>
  <time>2026-08-27T18:29:59Z</time>
  <course>102.82</course>
  <speed>0.04</speed>
  <fix>3d</fix>
</trkpt>
<trkpt lat="40.0728552" lon="-105.2308493">
  <ele>1595.57</ele>
  <time>2026-08-27T18:29:59Z</time>
  <course>319.09</course>
  <speed>0.01</speed>
  <fix>3d</fix>
</trkpt>
<trkpt lat="40.0728551" lon="-105.2308491">
  <ele>1595.48</ele>
  <time>2026-08-27T18:29:59Z</time>
  <course>102.82</course>
  <speed>0.04</speed>
  <fix>3d</fix>
</trkpt>
<trkpt lat="40.0728552" lon="-105.2308492">
  <ele>1595.58</ele>
  <time>2026-08-27T18:29:59Z</time>
  <course>319.09</course>
  <speed>0.02</speed>
  <fix>3d</fix>
</trkpt>
<trkpt lat="40.0728551" lon="-105.230849">
  <ele>1595.48</ele>
  <time>2026-08-27T18:29:59Z</time>
  <course>102.62</course>
  <speed>0.04</speed>
  <fix>3d</fix>
</trkpt>
<trkpt lat="40.0728551" lon="-105.2308491">
  <ele>1595.57</ele>
  <time>2026-08-27T18:29:59Z</time>
  <course>318.87</course>
  <speed>0.02</speed>
  <fix>3d</fix>
</trkpt>
<trkpt lat="40.0728551" lon="-105.2308489">
  <ele>1595.47</ele>
  <time>2026-08-27T18:29:59Z</time>
  <course>101.55</course>
  <speed>0.04</speed>
  <fix>3d</fix>
</trkpt>
<trkpt lat="40.0728551" lon="-105.230849">
  <ele>1595.57</ele>
  <time>2026-08-27T18:29:59Z</time>
  <course>317.71</course>
  <speed>0.02</speed>
  <fix>3d</fix>
</trkpt>
<trkpt lat="40.0728551" lon="-105.2308487">
  <ele>1595.47</ele>
  <time>2026-08-27T18:29:59Z</time>
  <course>98.82</course>
  <speed>0.05</speed>
  <fix>3d</fix>
</trkpt>
<trkpt lat="40.0728551" lon="-105.2308489">
  <ele>1595.56</ele>
  <time>2026-08-27T18:29:59Z</time>
  <course>316.33</course>
  <speed>0.02</speed>
  <fix>3d</fix>
</trkpt>
<trkpt lat="40.072855" lon="-105.2308486">
  <ele>1595.47</ele>
  <time>2026-08-27T18:29:59Z</time>
  <course>96.51</course>
  <speed>0.05</speed>
  <fix>3d</fix>
</trkpt>
<trkpt lat="40.0728551" lon="-105.2308488">
  <ele>1595.56</ele>
  <time>2026-08-27T18:29:59Z</time>
  <course>315.19</course>
  <speed>0.02</speed>
  <fix>3d</fix>
</trkpt>
<trkpt lat="40.0728549" lon="-105.2308485">
  <ele>1595.46</ele>
  <time>2026-08-27T18:29:59Z</time>
  <course>96.24</course>
  <speed>0.05</speed>
  <fix>3d</fix>
</trkpt>
<trkpt lat="40.0728551" lon="-105.2308486">
  <ele>1595.56</ele>
  <time>2026-08-27T18:29:59Z</time>
  <course>314.44</course>
  <speed>0.01</speed>
  <fix>3d</fix>
</trkpt>
<trkpt lat="40.0728549" lon="-105.2308484">
  <ele>1595.46</ele>
  <time>2026-08-27T18:29:59Z</time>
  <course>97.17</course>
  <speed>0.04</speed>
  <fix>3d</fix>
</trkpt>
<trkpt lat="40.0728551" lon="-105.2308485">
  <ele>1595.56</ele>
  <time>2026-08-27T18:29:59Z</time>
  <course>314.13</course>
  <speed>0.01</speed>
  <fix>3d</fix>
</trkpt>
<trkpt lat="40.0728549" lon="-105.2308483">
  <ele>1595.46</ele>
  <time>2026-08-27T18:29:59Z</time>
  <course>98.8</course>
  <speed>0.04</speed>
  <fix>3d</fix>
</trkpt>
<trkpt lat="40.072855" lon="-105.2308485">
  <ele>1595.56</ele>
  <time>2026-08-27T18:29:59Z</time>
  <course>314.31</course>
  <speed>0.01</speed>
  <fix>3d</fix>
</trkpt>
<trkpt lat="40.0728549" lon="-105.2308482">
  <ele>1595.46</ele>
  <time>2026-08-27T18:29:59Z</time>
  <course>100.77</course>
  <speed>0.04</speed>
  <fix>3d</fix>
</trkpt>
<trkpt lat="40.072855" lon="-105.2308484">
  <ele>1595.56</ele>
  <time>2026-08-27T18:29:59Z</time>
  <course>314.97</course>
  <speed>0.0</speed>
  <fix>3d</fix>
</trkpt>
<trkpt lat="40.0728549" lon="-105.2308481">
  <ele>1595.46</ele>
  <time>2026-08-27T18:29:59Z</time>
  <course>102.24</course>
  <speed>0.03</speed>
  <fix>3d</fix>
</trkpt>
<trkpt lat="40.072855" lon="-105.2308483">
  <ele>1595.56</ele>
  <time>2026-08-27T18:29:59Z</time>
  <course>316.06</course>
  <speed>0.0</speed>
  <fix>3d</fix>
</trkpt>
<trkpt lat="40.0728549" lon="-105.230848">
  <ele>1595.46</ele>
  <time>2026-08-27T18:29:59Z</time>
  <course>103.72</course>
  <speed>0.03</speed>
  <fix>3d</fix>
</trkpt>
<trkpt lat="40.072855" lon="-105.2308482">
  <ele>1595.55</ele>
  <time>2026-08-27T18:29:59Z</time>
  <course>317.43</course>
  <speed>0.0</speed>
  <fix>3d</fix>
</trkpt>
<trkpt lat="40.0728549" lon="-105.230848">
  <ele>1595.46</ele>
  <time>2026-08-27T18:29:59Z</time>
  <course>105.45</course>
  <speed>0.03</speed>
  <fix>3d</fix>
</trkpt>
<trkpt lat="40.0728549" lon="-105.2308481">
  <ele>1595.55</ele>
  <time>2026-08-27T18:29:59Z</time>
  <course>318.92</course>
  <speed>0.0</speed>
  <fix>3d</fix>
</trkpt>
<trkpt lat="40.0728549" lon="-105.2308479">
  <ele>1595.46</ele>
  <time>2026-08-27T18:29:59Z</time>
  <course>106.05</course>
  <speed>0.03</speed>
  <fix>3d</fix>
</trkpt>
<trkpt lat="40.0728549" lon="-105.2308481">
  <ele>1595.56</ele>
  <time>2026-08-27T18:29:59Z</time>
  <course>320.41</course>
  <speed>0.0</speed>
  <fix>3d</fix>
</trkpt>
<trkpt lat="40.0728548" lon="-105.2308478">
  <ele>1595.46</ele>
  <time>2026-08-27T18:29:59Z</time>
  <course>105.57</course>
  <speed>0.03</speed>
  <fix>3d</fix>
</trkpt>
<trkpt lat="40.0728549" lon="-105.230848">
  <ele>1595.56</ele>
  <time>2026-08-27T18:29:59Z</time>
  <course>321.8</course>
  <speed>0.0</speed>
  <fix>3d</fix>
</trkpt>
<trkpt lat="40.0728548" lon="-105.2308477">
  <ele>1595.46</ele>
  <time>2026-08-27T18:29:59Z</time>
  <course>104.37</course>
  <speed>0.03</speed>
  <fix>3d</fix>
</trkpt>
<trkpt lat="40.0728549" lon="-105.2308479">
  <ele>1595.55</ele>
  <time>2026-08-27T18:29:59Z</time>
  <course>322.94</course>
  <speed>0.0</speed>
  <fix>3d</fix>
</trkpt>
<trkpt lat="40.0728548" lon="-105.2308477">
  <ele>1595.46</ele>
  <time>2026-08-27T18:29:59Z</time>
  <course>101.8</course>
  <speed>0.03</speed>
  <fix>3d</fix>
</trkpt>
<trkpt lat="40.0728549" lon="-105.2308479">
  <ele>1595.55</ele>
  <time>2026-08-27T18:29:59Z</time>
  <course>323.69</course>
  <speed>0.0</speed>
  <fix>3d</fix>
</trkpt>
<trkpt lat="40.0728548" lon="-105.2308476">
  <ele>1595.46</ele>
  <time>2026-08-27T18:29:59Z</time>
  <course>97.74</course>
  <speed>0.03</speed>
  <fix>3d</fix>
</trkpt>
<trkpt lat="40.0728549" lon="-105.2308478">
  <ele>1595.56</ele>
  <time>2026-08-27T18:29:59Z</time>
  <course>323.97</course>
  <speed>0.0</speed>
  <fix>3d</fix>
</trkpt>
<trkpt lat="40.0728548" lon="-105.2308475">
  <ele>1595.46</ele>
  <time>2026-08-27T18:29:59Z</time>
  <course>93.42</course>
  <speed>0.03</speed>
  <fix>3d</fix>
</trkpt>
<trkpt lat="40.0728549" lon="-105.2308477">
  <ele>1595.55</ele>
  <time>2026-08-27T18:29:59Z</time>
  <course>323.8</course>
  <speed>0.0</speed>
  <fix>3d</fix>
</trkpt>
<trkpt lat="40.0728548" lon="-105.2308474">
  <ele>1595.46</ele>
  <time>2026-08-27T18:29:59Z</time>
  <course>89.31</course>
  <speed>0.03</speed>
  <fix>3d</fix>
</trkpt>
<trkpt lat="40.0728549" lon="-105.2308476">
  <ele>1595.55</ele>
  <time>2026-08-27T18:29:59Z</time>
  <course>323.16</course>
  <speed>0.01</speed>
  <fix>3d</fix>
</trkpt>
<trkpt lat="40.0728548" lon="-105.2308473">
  <ele>1595.47</ele>
  <time>2026-08-27T18:29:59Z</time>
  <course>85.81</course>
  <speed>0.03</speed>
  <fix>3d</fix>
</trkpt>
<trkpt lat="40.0728549" lon="-105.2308475">
  <ele>1595.55</ele>
  <time>2026-08-27T18:29:59Z</time>
  <course>322.08</course>
  <speed>0.01</speed>
  <fix>3d</fix>
</trkpt>
<trkpt lat="40.0728548" lon="-105.2308472">
  <ele>1595.47</ele>
  <time>2026-08-27T18:29:59Z</time>
  <course>83.14</course>
  <speed>0.03</speed>
  <fix>3d</fix>
</trkpt>
<trkpt lat="40.0728549" lon="-105.2308474">
  <ele>1595.55</ele>
  <time>2026-08-27T18:29:59Z</time>
  <course>320.73</course>
  <speed>0.01</speed>
  <fix>3d</fix>
</trkpt>
<trkpt lat="40.0728548" lon="-105.2308472">
  <ele>1595.47</ele>
  <time>2026-08-27T18:29:59Z</time>
  <course>81.12</course>
  <speed>0.03</speed>
  <fix>3d</fix>
</trkpt>
<trkpt lat="40.0728549" lon="-105.2308473">
  <ele>1595.55</ele>
  <time>2026-08-27T18:29:59Z</time>
  <course>319.22</course>
  <speed>0.01</speed>
  <fix>3d</fix>
</trkpt>
<trkpt lat="40.0728548" lon="-105.2308471">
  <ele>1595.47</ele>
  <time>2026-08-27T18:29:59Z</time>
  <course>80.36</course>
  <speed>0.03</speed>
  <fix>3d</fix>
</trkpt>
<trkpt lat="40.0728549" lon="-105.2308473">
  <ele>1595.55</ele>
  <time>2026-08-27T18:29:59Z</time>
  <course>317.7</course>
  <speed>0.0</speed>
  <fix>3d</fix>
</trkpt>
<trkpt lat="40.0728548" lon="-105.230847">
  <ele>1595.47</ele>
  <time>2026-08-27T18:29:59Z</time>
  <course>80.46</course>
  <speed>0.03</speed>
  <fix>3d</fix>
</trkpt>
<trkpt lat="40.0728549" lon="-105.2308472">
  <ele>1595.55</ele>
  <time>2026-08-27T18:29:59Z</time>
  <course>316.28</course>
  <speed>0.0</speed>
  <fix>3d</fix>
</trkpt>
<trkpt lat="40.0728548" lon="-105.2308469">
  <ele>1595.47</ele>
  <time>2026-08-27T18:29:59Z</time>
  <course>81.07</course>
  <speed>0.03</speed>
  <fix>3d</fix>
</trkpt>
<trkpt lat="40.0728549" lon="-105.2308471">
  <ele>1595.55</ele>
  <time>2026-08-27T18:29:59Z</time>
  <course>315.16</course>
  <speed>0.0</speed>
  <fix>3d</fix>
</trkpt>
<trkpt lat="40.0728548" lon="-105.2308468">
  <ele>1595.47</ele>
  <time>2026-08-27T18:29:59Z</time>
  <course>83.2</course>
  <speed>0.03</speed>
  <fix>3d</fix>
</trkpt>
<trkpt lat="40.0728549" lon="-105.230847">
  <ele>1595.55</ele>
  <time>2026-08-27T18:29:59Z</time>
  <course>314.42</course>
  <speed>0.0</speed>
  <fix>3d</fix>
</trkpt>
<trkpt lat="40.0728548" lon="-105.2308468">
  <ele>1595.48</ele>
  <time>2026-08-27T18:29:59Z</time>
  <course>86.94</course>
  <speed>0.03</speed>
  <fix>3d</fix>
</trkpt>
<trkpt lat="40.0728549" lon="-105.230847">
  <ele>1595.56</ele>
  <time>2026-08-27T18:29:59Z</time>
  <course>314.13</course>
  <speed>0.0</speed>
  <fix>3d</fix>
</trkpt>
<trkpt lat="40.0728548" lon="-105.2308467">
  <ele>1595.48</ele>
  <time>2026-08-27T18:29:59Z</time>
  <course>91.57</course>
  <speed>0.03</speed>
  <fix>3d</fix>
</trkpt>
<trkpt lat="40.0728549" lon="-105.2308469">
  <ele>1595.56</ele>
  <time>2026-08-27T18:29:59Z</time>
  <course>314.32</course>
  <speed>0.0</speed>
  <fix>3d</fix>
</trkpt>
<trkpt lat="40.0728548" lon="-105.2308466">
  <ele>1595.48</ele>
  <time>2026-08-27T18:29:59Z</time>
  <course>97.38</course>
  <speed>0.02</speed>
  <fix>3d</fix>
</trkpt>
<trkpt lat="40.0728549" lon="-105.2308468">
  <ele>1595.56</ele>
  <time>2026-08-27T18:29:59Z</time>
  <course>314.96</course>
  <speed>0.0</speed>
  <fix>3d</fix>
</trkpt>
<trkpt lat="40.0728548" lon="-105.2308465">
  <ele>1595.48</ele>
  <time>2026-08-27T18:29:59Z</time>
  <course>103.19</course>
  <speed>0.02</speed>
  <fix>3d</fix>
</trkpt>
<trkpt lat="40.0728548" lon="-105.2308468">
  <ele>1595.56</ele>
  <time>2026-08-27T18:29:59Z</time>
  <course>316.04</course>
  <speed>0.01</speed>
  <fix>3d</fix>
</trkpt>
<trkpt lat="40.0728548" lon="-105.2308465">
  <ele>1595.48</ele>
  <time>2026-08-27T18:29:59Z</time>
  <course>107.5</course>
  <speed>0.02</speed>
  <fix>3d</fix>
</trkpt>
<trkpt lat="40.0728548" lon="-105.2308467">
  <ele>1595.56</ele>
  <time>2026-08-27T18:29:59Z</time>
  <course>317.4</course>
  <speed>0.01</speed>
  <fix>3d</fix>
</trkpt>
<trkpt lat="40.0728548" lon="-105.2308464">
  <ele>1595.49</ele>
  <time>2026-08-27T18:29:59Z</time>
  <course>110.03</course>
  <speed>0.02</speed>
  <fix>3d</fix>
</trkpt>
<trkpt lat="40.0728548" lon="-105.2308466">
  <ele>1595.56</ele>
  <time>2026-08-27T18:29:59Z</time>
  <course>318.93</course>
  <speed>0.01</speed>
  <fix>3d</fix>
</trkpt>
<trkpt lat="40.0728548" lon="-105.2308463">
  <ele>1595.49</ele>
  <time>2026-08-27T18:29:59Z</time>
  <course>110.75</course>
  <speed>0.03</speed>
  <fix>3d</fix>
</trkpt>
<trkpt lat="40.0728548" lon="-105.2308465">
  <ele>1595.56</ele>
  <time>2026-08-27T18:29:59Z</time>
  <course>320.43</course>
  <speed>0.01</speed>
  <fix>3d</fix>
</trkpt>
<trkpt lat="40.0728548" lon="-105.2308463">
  <ele>1595.49</ele>
  <time>2026-08-27T18:29:59Z</time>
  <course>110.6</course>
  <speed>0.03</speed>
  <fix>3d</fix>
</trkpt>
<trkpt lat="40.0728548" lon="-105.2308465">
  <ele>1595.57</ele>
  <time>2026-08-27T18:29:59Z</time>
  <course>321.82</course>
  <speed>0.0</speed>
  <fix>3d</fix>
</trkpt>
<trkpt lat="40.0728548" lon="-105.2308462">
  <ele>1595.49</ele>
  <time>2026-08-27T18:29:59Z</time>
  <course>109.72</course>
  <speed>0.03</speed>
  <fix>3d</fix>
</trkpt>
<trkpt lat="40.0728548" lon="-105.2308464">
  <ele>1595.56</ele>
  <time>2026-08-27T18:29:59Z</time>
  <course>322.95</course>
  <speed>0.0</speed>
  <fix>3d</fix>
</trkpt>
<trkpt lat="40.0728547" lon="-105.2308461">
  <ele>1595.49</ele>
  <time>2026-08-27T18:29:59Z</time>
  <course>107.59</course>
  <speed>0.03</speed>
  <fix>3d</fix>
</trkpt>
<trkpt lat="40.0728548" lon="-105.2308463">
  <ele>1595.56</ele>
  <time>2026-08-27T18:29:59Z</time>
  <course>323.7</course>
  <speed>0.0</speed>
  <fix>3d</fix>
</trkpt>
<trkpt lat="40.0728547" lon="-105.230846">
  <ele>1595.49</ele>
  <time>2026-08-27T18:29:59Z</time>
  <course>104.72</course>
  <speed>0.03</speed>
  <fix>3d</fix>
</trkpt>
<trkpt lat="40.0728547" lon="-105.2308462">
  <ele>1595.57</ele>
  <time>2026-08-27T18:29:59Z</time>
  <course>324.0</course>
  <speed>0.01</speed>
  <fix>3d</fix>
</trkpt>
<trkpt lat="40.0728547" lon="-105.230846">
  <ele>1595.49</ele>
  <time>2026-08-27T18:29:59Z</time>
  <course>101.41</course>
  <speed>0.03</speed>
  <fix>3d</fix>
</trkpt>
<trkpt lat="40.0728547" lon="-105.2308461">
  <ele>1595.57</ele>
  <time>2026-08-27T18:29:59Z</time>
  <course>323.81</course>
  <speed>0.01</speed>
  <fix>3d</fix>
</trkpt>
<trkpt lat="40.0728547" lon="-105.2308459">
  <ele>1595.49</ele>
  <time>2026-08-27T18:29:59Z</time>
  <course>97.26</course>
  <speed>0.03</speed>
  <fix>3d</fix>
</trkpt>
<trkpt lat="40.0728547" lon="-105.2308461">
  <ele>1595.57</ele>
  <time>2026-08-27T18:29:59Z</time>
  <course>323.17</course>
  <speed>0.01</speed>
  <fix>3d</fix>
</trkpt>
<trkpt lat="40.0728547" lon="-105.2308458">
  <ele>1595.49</ele>
  <time>2026-08-27T18:29:59Z</time>
  <course>93.53</course>
  <speed>0.03</speed>
  <fix>3d</fix>
</trkpt>
<trkpt lat="40.0728547" lon="-105.230846">
  <ele>1595.57</ele>
  <time>2026-08-27T18:29:59Z</time>
  <course>322.14</course>
  <speed>0.01</speed>
  <fix>3d</fix>
</trkpt>
<trkpt lat="40.0728547" lon="-105.2308457">
  <ele>1595.48</ele>
  <time>2026-08-27T18:29:59Z</time>
  <course>90.59</course>
  <speed>0.03</speed>
  <fix>3d</fix>
</trkpt>
<trkpt lat="40.0728547" lon="-105.2308459">
  <ele>1595.57</ele>
  <time>2026-08-27T18:29:59Z</time>
  <course>320.8</course>
  <speed>0.01</speed>
  <fix>3d</fix>
</trkpt>
<trkpt lat="40.0728547" lon="-105.2308456">
  <ele>1595.48</ele>
  <time>2026-08-27T18:29:59Z</time>
  <course>88.32</course>
  <speed>0.03</speed>
  <fix>3d</fix>
</trkpt>
<trkpt lat="40.0728547" lon="-105.2308458">
  <ele>1595.56</ele>
  <time>2026-08-27T18:29:59Z</time>
  <course>319.26</course>
  <speed>0.01</speed>
  <fix>3d</fix>
</trkpt>
<trkpt lat="40.0728547" lon="-105.2308455">
  <ele>1595.48</ele>
  <time>2026-08-27T18:29:59Z</time>
  <course>87.25</course>
  <speed>0.03</speed>
  <fix>3d</fix>
</trkpt>
<trkpt lat="40.0728547" lon="-105.2308457">
  <ele>1595.56</ele>
  <time>2026-08-27T18:29:59Z</time>
  <course>317.71</course>
  <speed>0.0</speed>
  <fix>3d</fix>
</trkpt>
<trkpt lat="40.0728547" lon="-105.2308454">
  <ele>1595.48</ele>
  <time>2026-08-27T18:29:59Z</time>
  <course>87.28</course>
  <speed>0.03</speed>
  <fix>3d</fix>
</trkpt>
<trkpt lat="40.0728547" lon="-105.2308456">
  <ele>1595.55</ele>
  <time>2026-08-27T18:29:59Z</time>
  <course>316.3</course>
  <speed>0.0</speed>
  <fix>3d</fix>
</trkpt>
<trkpt lat="40.0728547" lon="-105.2308453">
  <ele>1595.48</ele>
  <time>2026-08-27T18:29:59Z</time>
  <course>88.0</course>
  <speed>0.03</speed>
  <fix>3d</fix>
</trkpt>
<trkpt lat="40.0728547" lon="-105.2308455">
  <ele>1595.55</ele>
  <time>2026-08-27T18:29:59Z</time>
  <course>315.15</course>
  <speed>0.0</speed>
  <fix>3d</fix>
</trkpt>
<trkpt lat="40.0728547" lon="-105.2308453">
  <ele>1595.48</ele>
  <time>2026-08-27T18:29:59Z</time>
  <course>89.16</course>
  <speed>0.03</speed>
  <fix>3d</fix>
</trkpt>
<trkpt lat="40.0728547" lon="-105.2308455">
  <ele>1595.55</ele>
  <time>2026-08-27T18:29:59Z</time>
  <course>314.42</course>
  <speed>0.0</speed>
  <fix>3d</fix>
</trkpt>
<trkpt lat="40.0728547" lon="-105.2308452">
  <ele>1595.48</ele>
  <time>2026-08-27T18:29:59Z</time>
  <course>91.61</course>
  <speed>0.03</speed>
  <fix>3d</fix>
</trkpt>
<trkpt lat="40.0728547" lon="-105.2308454">
  <ele>1595.55</ele>
  <time>2026-08-27T18:29:59Z</time>
  <course>314.13</course>
  <speed>0.0</speed>
  <fix>3d</fix>
</trkpt>
<trkpt lat="40.0728547" lon="-105.2308451">
  <ele>1595.48</ele>
  <time>2026-08-27T18:29:59Z</time>
  <course>95.83</course>
  <speed>0.03</speed>
  <fix>3d</fix>
</trkpt>
<trkpt lat="40.0728547" lon="-105.2308453">
  <ele>1595.55</ele>
  <time>2026-08-27T18:29:59Z</time>
  <course>314.3</course>
  <speed>0.0</speed>
  <fix>3d</fix>
</trkpt>
<trkpt lat="40.0728547" lon="-105.2308451">
  <ele>1595.48</ele>
  <time>2026-08-27T18:29:59Z</time>
  <course>100.97</course>
  <speed>0.02</speed>
  <fix>3d</fix>
</trkpt>
<trkpt lat="40.0728547" lon="-105.2308453">
  <ele>1595.55</ele>
  <time>2026-08-27T18:29:59Z</time>
  <course>314.95</course>
  <speed>0.0</speed>
  <fix>3d</fix>
</trkpt>
<trkpt lat="40.0728547" lon="-105.230845">
  <ele>1595.48</ele>
  <time>2026-08-27T18:29:59Z</time>
  <course>106.08</course>
  <speed>0.02</speed>
  <fix>3d</fix>
</trkpt>
<trkpt lat="40.0728547" lon="-105.2308452">
  <ele>1595.56</ele>
  <time>2026-08-27T18:29:59Z</time>
  <course>316.02</course>
  <speed>0.0</speed>
  <fix>3d</fix>
</trkpt>
<trkpt lat="40.0728547" lon="-105.2308449">
  <ele>1595.49</ele>
  <time>2026-08-27T18:29:59Z</time>
  <course>110.02</course>
  <speed>0.02</speed>
  <fix>3d</fix>
</trkpt>
<trkpt lat="40.0728547" lon="-105.2308451">
  <ele>1595.56</ele>
  <time>2026-08-27T18:29:59Z</time>
  <course>317.36</course>
  <speed>0.0</speed>
  <fix>3d</fix>
</trkpt>
<trkpt lat="40.0728547" lon="-105.2308448">
  <ele>1595.49</ele>
  <time>2026-08-27T18:29:59Z</time>
  <course>112.26</course>
  <speed>0.03</speed>
  <fix>3d</fix>
</trkpt>
<trkpt lat="40.0728547" lon="-105.2308451">
  <ele>1595.56</ele>
  <time>2026-08-27T18:29:59Z</time>
  <course>318.84</course>
  <speed>0.0</speed>
  <fix>3d</fix>
</trkpt>
<trkpt lat="40.0728547" lon="-105.2308448">
  <ele>1595.49</ele>
  <time>2026-08-27T18:29:59Z</time>
  <course>112.98</course>
  <speed>0.03</speed>
  <fix>3d</fix>
</trkpt>
<trkpt lat="40.0728547" lon="-105.230845">
  <ele>1595.56</ele>
  <time>2026-08-27T18:29:59Z</time>
  <course>320.4</course>
  <speed>0.0</speed>
  <fix>3d</fix>
</trkpt>
<trkpt lat="40.0728547" lon="-105.2308447">
  <ele>1595.49</ele>
  <time>2026-08-27T18:29:59Z</time>
  <course>112.28</course>
  <speed>0.03</speed>
  <fix>3d</fix>
</trkpt>
<trkpt lat="40.0728547" lon="-105.2308449">
  <ele>1595.56</ele>
  <time>2026-08-27T18:29:59Z</time>
  <course>321.8</course>
  <speed>0.0</speed>
  <fix>3d</fix>
</trkpt>
<trkpt lat="40.0728547" lon="-105.2308446">
  <ele>1595.5</ele>
  <time>2026-08-27T18:29:59Z</time>
  <course>110.23</course>
  <speed>0.03</speed>
  <fix>3d</fix>
</trkpt>
<trkpt lat="40.0728547" lon="-105.2308448">
  <ele>1595.56</ele>
  <time>2026-08-27T18:29:59Z</time>
  <course>322.92</course>
  <speed>0.0</speed>
  <fix>3d</fix>
</trkpt>
<trkpt lat="40.0728546" lon="-105.2308446">
  <ele>1595.5</ele>
  <time>2026-08-27T18:29:59Z</time>
  <course>107.22</course>
  <speed>0.03</speed>
  <fix>3d</fix>
</trkpt>
<trkpt lat="40.0728546" lon="-105.2308447">
  <ele>1595.56</ele>
  <time>2026-08-27T18:29:59Z</time>
  <course>323.69</course>
  <speed>0.01</speed>
  <fix>3d</fix>
</trkpt>
<trkpt lat="40.0728546" lon="-105.2308445">
  <ele>1595.5</ele>
  <time>2026-08-27T18:29:59Z</time>
  <course>103.66</course>
  <speed>0.03</speed>
  <fix>3d</fix>
</trkpt>
<trkpt lat="40.0728546" lon="-105.2308447">
  <ele>1595.56</ele>
  <time>2026-08-27T18:29:59Z</time>
  <course>323.98</course>
  <speed>0.01</speed>
  <fix>3d</fix>
</trkpt>
<trkpt lat="40.0728546" lon="-105.2308444">
  <ele>1595.5</ele>
  <time>2026-08-27T18:29:59Z</time>
  <course>99.67</course>
  <speed>0.03</speed>
  <fix>3d</fix>
</trkpt>
<trkpt lat="40.0728546" lon="-105.2308446">
  <ele>1595.56</ele>
  <time>2026-08-27T18:29:59Z</time>
  <course>323.79</course>
  <speed>0.01</speed>
  <fix>3d</fix>
</trkpt>
<trkpt lat="40.0728546" lon="-105.2308443">
  <ele>1595.5</ele>
  <time>2026-08-27T18:29:59Z</time>
  <course>96.5</course>
  <speed>0.03</speed>
  <fix>3d</fix>
</trkpt>
<trkpt lat="40.0728546" lon="-105.2308445">
  <ele>1595.56</ele>
  <time>2026-08-27T18:29:59Z</time>
  <course>323.13</course>
  <speed>0.01</speed>
  <fix>3d</fix>
</trkpt>
<trkpt lat="40.0728546" lon="-105.2308442">
  <ele>1595.5</ele>
  <time>2026-08-27T18:29:59Z</time>
  <course>93.93</course>
  <speed>0.03</speed>
  <fix>3d</fix>
</trkpt>
<trkpt lat="40.0728546" lon="-105.2308444">
  <ele>1595.55</ele>
  <time>2026-08-27T18:29:59Z</time>
  <course>322.09</course>
  <speed>0.01</speed>
  <fix>3d</fix>
</trkpt>
<trkpt lat="40.0728546" lon="-105.2308441">
  <ele>1595.5</ele>
  <time>2026-08-27T18:29:59Z</time>
  <course>91.27</course>
  <speed>0.03</speed>
  <fix>3d</fix>
</trkpt>
<trkpt lat="40.0728546" lon="-105.2308443">
  <ele>1595.55</ele>
  <time>2026-08-27T18:29:59Z</time>
  <course>320.72</course>
  <speed>0.01</speed>
  <fix>3d</fix>
</trkpt>
<trkpt lat="40.0728546" lon="-105.230844">
  <ele>1595.5</ele>
  <time>2026-08-27T18:29:59Z</time>
  <course>88.93</course>
  <speed>0.04</speed>
  <fix>3d</fix>
</trkpt>
<trkpt lat="40.0728546" lon="-105.2308442">
  <ele>1595.56</ele>
  <time>2026-08-27T18:29:59Z</time>
  <course>319.21</course>
  <speed>0.01</speed>
  <fix>3d</fix>
</trkpt>
<trkpt lat="40.0728546" lon="-105.2308439">
  <ele>1595.51</ele>
  <time>2026-08-27T18:29:59Z</time>
  <course>87.43</course>
  <speed>0.03</speed>
  <fix>3d</fix>
</trkpt>
<trkpt lat="40.0728546" lon="-105.2308441">
  <ele>1595.56</ele>
  <time>2026-08-27T18:29:59Z</time>
  <course>317.7</course>
  <speed>0.01</speed>
  <fix>3d</fix>
</trkpt>
<trkpt lat="40.0728546" lon="-105.2308439">
  <ele>1595.51</ele>
  <time>2026-08-27T18:29:59Z</time>
  <course>86.84</course>
  <speed>0.03</speed>
  <fix>3d</fix>
</trkpt>
<trkpt lat="40.0728546" lon="-105.230844">
  <ele>1595.56</ele>
  <time>2026-08-27T18:29:59Z</time>
  <course>316.3</course>
  <speed>0.0</speed>
  <fix>3d</fix>
</trkpt>
<trkpt lat="40.0728546" lon="-105.2308438">
  <ele>1595.51</ele>
  <time>2026-08-27T18:29:59Z</time>
  <course>86.95</course>
  <speed>0.03</speed>
  <fix>3d</fix>
</trkpt>
<trkpt lat="40.0728546" lon="-105.2308439">
  <ele>1595.56</ele>
  <time>2026-08-27T18:29:59Z</time>
  <course>315.18</course>
  <speed>0.0</speed>
  <fix>3d</fix>
</trkpt>
<trkpt lat="40.0728546" lon="-105.2308437">
  <ele>1595.51</ele>
  <time>2026-08-27T18:29:59Z</time>
  <course>88.5</course>
  <speed>0.03</speed>
  <fix>3d</fix>
</trkpt>
<trkpt lat="40.0728546" lon="-105.2308439">
  <ele>1595.57</ele>
  <time>2026-08-27T18:29:59Z</time>
  <course>314.45</course>
  <speed>0.0</speed>
  <fix>3d</fix>
</trkpt>
<trkpt lat="40.0728546" lon="-105.2308436">
  <ele>1595.51</ele>
  <time>2026-08-27T18:29:59Z</time>
  <course>91.75</course>
  <speed>0.03</speed>
  <fix>3d</fix>
</trkpt>
<trkpt lat="40.0728546" lon="-105.2308438">
  <ele>1595.57</ele>
  <time>2026-08-27T18:29:59Z</time>
  <course>314.15</course>
  <speed>0.0</speed>
  <fix>3d</fix>
</trkpt>
<trkpt lat="40.0728546" lon="-105.2308436">
  <ele>1595.51</ele>
  <time>2026-08-27T18:29:59Z</time>
  <course>96.68</course>
  <speed>0.03</speed>
  <fix>3d</fix>
</trkpt>
<trkpt lat="40.0728546" lon="-105.2308437">
  <ele>1595.57</ele>
  <time>2026-08-27T18:29:59Z</time>
  <course>314.34</course>
  <speed>0.0</speed>
  <fix>3d</fix>
</trkpt>
<trkpt lat="40.0728546" lon="-105.2308435">
  <ele>1595.51</ele>
  <time>2026-08-27T18:29:59Z</time>
  <course>102.83</course>
  <speed>0.03</speed>
  <fix>3d</fix>
</trkpt>
<trkpt lat="40.0728546" lon="-105.2308437">
  <ele>1595.57</ele>
  <time>2026-08-27T18:29:59Z</time>
  <course>315.03</course>
  <speed>0.0</speed>
  <fix>3d</fix>
</trkpt>
<trkpt lat="40.0728546" lon="-105.2308434">
  <ele>1595.51</ele>
  <time>2026-08-27T18:29:59Z</time>
  <course>107.7</course>
  <speed>0.03</speed>
  <fix>3d</fix>
</trkpt>
<trkpt lat="40.0728546" lon="-105.2308436">
  <ele>1595.57</ele>
  <time>2026-08-27T18:29:59Z</time>
  <course>316.07</course>
  <speed>0.0</speed>
  <fix>3d</fix>
</trkpt>
<trkpt lat="40.0728545" lon="-105.2308433">
  <ele>1595.51</ele>
  <time>2026-08-27T18:29:59Z</time>
  <course>111.17</course>
  <speed>0.03</speed>
  <fix>3d</fix>
</trkpt>
<trkpt lat="40.0728546" lon="-105.2308435">
  <ele>1595.57</ele>
  <time>2026-08-27T18:29:59Z</time>
  <course>317.42</course>
  <speed>0.01</speed>
  <fix>3d</fix>
</trkpt>
<trkpt lat="40.0728545" lon="-105.2308432">
  <ele>1595.51</ele>
  <time>2026-08-27T18:29:59Z</time>
  <course>113.88</course>
  <speed>0.03</speed>
  <fix>3d</fix>
</trkpt>
<trkpt lat="40.0728546" lon="-105.2308435">
  <ele>1595.57</ele>
  <time>2026-08-27T18:29:59Z</time>
  <course>318.92</course>
  <speed>0.01</speed>
  <fix>3d</fix>
</trkpt>
<trkpt lat="40.0728545" lon="-105.2308432">
  <ele>1595.51</ele>
  <time>2026-08-27T18:29:59Z</time>
  <course>115.14</course>
  <speed>0.03</speed>
  <fix>3d</fix>
</trkpt>
<trkpt lat="40.0728545" lon="-105.2308434">
  <ele>1595.56</ele>
  <time>2026-08-27T18:29:59Z</time>
  <course>320.43</course>
  <speed>0.01</speed>
  <fix>3d</fix>
</trkpt>
<trkpt lat="40.0728545" lon="-105.2308431">
  <ele>1595.51</ele>
  <time>2026-08-27T18:29:59Z</time>
  <course>114.71</course>
  <speed>0.03</speed>
  <fix>3d</fix>
</trkpt>
<trkpt lat="40.0728545" lon="-105.2308433">
  <ele>1595.56</ele>
  <time>2026-08-27T18:29:59Z</time>
  <course>321.81</course>
  <speed>0.0</speed>
  <fix>3d</fix>
</trkpt>
<trkpt lat="40.0728545" lon="-105.2308431">
  <ele>1595.5</ele>
  <time>2026-08-27T18:29:59Z</time>
  <course>112.06</course>
  <speed>0.03</speed>
  <fix>3d</fix>
</trkpt>
<trkpt lat="40.0728545" lon="-105.2308432">
  <ele>1595.57</ele>
  <time>2026-08-27T18:29:59Z</time>
  <course>322.93</course>
  <speed>0.0</speed>
  <fix>3d</fix>
</trkpt>
<trkpt lat="40.0728544" lon="-105.230843">
  <ele>1595.5</ele>
  <time>2026-08-27T18:29:59Z</time>
  <course>108.22</course>
  <speed>0.03</speed>
  <fix>3d</fix>
</trkpt>
<trkpt lat="40.0728545" lon="-105.2308432">
  <ele>1595.57</ele>
  <time>2026-08-27T18:29:59Z</time>
  <course>323.7</course>
  <speed>0.0</speed>
  <fix>3d</fix>
</trkpt>
<trkpt lat="40.0728544" lon="-105.2308429">
  <ele>1595.5</ele>
  <time>2026-08-27T18:29:59Z</time>
  <course>103.87</course>
  <speed>0.03</speed>
  <fix>3d</fix>
</trkpt>
<trkpt lat="40.0728545" lon="-105.2308431">
  <ele>1595.57</ele>
  <time>2026-08-27T18:29:59Z</time>
  <course>323.99</course>
  <speed>0.01</speed>
  <fix>3d</fix>
</trkpt>
<trkpt lat="40.0728544" lon="-105.2308428">
  <ele>1595.5</ele>
  <time>2026-08-27T18:29:59Z</time>
  <course>99.04</course>
  <speed>0.03</speed>
  <fix>3d</fix>
</trkpt>
<trkpt lat="40.0728545" lon="-105.230843">
  <ele>1595.57</ele>
  <time>2026-08-27T18:29:59Z</time>
  <course>323.81</course>
  <speed>0.01</speed>
  <fix>3d</fix>
</trkpt>
<trkpt lat="40.0728544" lon="-105.2308427">
  <ele>1595.5</ele>
  <time>2026-08-27T18:29:59Z</time>
  <course>94.57</course>
  <speed>0.03</speed>
  <fix>3d</fix>
</trkpt>
<trkpt lat="40.0728545" lon="-105.2308429">
  <ele>1595.58</ele>
  <time>2026-08-27T18:29:59Z</time>
  <course>323.17</course>
  <speed>0.01</speed>
  <fix>3d</fix>
</trkpt>
<trkpt lat="40.0728544" lon="-105.2308426">
  <ele>1595.5</ele>
  <time>2026-08-27T18:29:59Z</time>
  <course>90.04</course>
  <speed>0.03</speed>
  <fix>3d</fix>
</trkpt>
<trkpt lat="40.0728545" lon="-105.2308428">
  <ele>1595.58</ele>
  <time>2026-08-27T18:29:59Z</time>
  <course>322.13</course>
  <speed>0.01</speed>
  <fix>3d</fix>
</trkpt>
<trkpt lat="40.0728544" lon="-105.2308425">
  <ele>1595.5</ele>
  <time>2026-08-27T18:29:59Z</time>
  <course>85.92</course>
  <speed>0.03</speed>
  <fix>3d</fix>
</trkpt>
<trkpt lat="40.0728545" lon="-105.2308427">
  <ele>1595.58</ele>
  <time>2026-08-27T18:29:59Z</time>
  <course>320.8</course>
  <speed>0.01</speed>
  <fix>3d</fix>
</trkpt>
<trkpt lat="40.0728544" lon="-105.2308425">
  <ele>1595.5</ele>
  <time>2026-08-27T18:29:59Z</time>
  <course>82.43</course>
  <speed>0.03</speed>
  <fix>3d</fix>
</trkpt>
<trkpt lat="40.0728545" lon="-105.2308426">
  <ele>1595.58</ele>
  <time>2026-08-27T18:29:59Z</time>
  <course>319.33</course>
  <speed>0.01</speed>
  <fix>3d</fix>
</trkpt>
<trkpt lat="40.0728544" lon="-105.2308424">
  <ele>1595.49</ele>
  <time>2026-08-27T18:29:59Z</time>
  <course>79.73</course>
  <speed>0.03</speed>
  <fix>3d</fix>
</trkpt>
<trkpt lat="40.0728545" lon="-105.2308425">
  <ele>1595.58</ele>
  <time>2026-08-27T18:29:59Z</time>
  <course>317.79</course>
  <speed>0.01</speed>
  <fix>3d</fix>
</trkpt>
<trkpt lat="40.0728544" lon="-105.2308423">
  <ele>1595.49</ele>
  <time>2026-08-27T18:29:59Z</time>
  <course>78.26</course>
  <speed>0.03</speed>
  <fix>3d</fix>
</trkpt>
<trkpt lat="40.0728545" lon="-105.2308425">
  <ele>1595.58</ele>
  <time>2026-08-27T18:29:59Z</time>
  <course>316.37</course>
  <speed>0.0</speed>
  <fix>3d</fix>
</trkpt>
<trkpt lat="40.0728544" lon="-105.2308422">
  <ele>1595.48</ele>
  <time>2026-08-27T18:29:59Z</time>
  <course>77.91</course>
  <speed>0.03</speed>
  <fix>3d</fix>
</trkpt>
<trkpt lat="40.0728545" lon="-105.2308424">
  <ele>1595.57</ele>
  <time>2026-08-27T18:29:59Z</time>
  <course>315.22</course>
  <speed>0.0</speed>
  <fix>3d</fix>
</trkpt>
<trkpt lat="40.0728544" lon="-105.2308422">
  <ele>1595.48</ele>
  <time>2026-08-27T18:29:59Z</time>
  <course>78.66</course>
  <speed>0.03</speed>
  <fix>3d</fix>
</trkpt>
<trkpt lat="40.0728545" lon="-105.2308423">
  <ele>1595.57</ele>
  <time>2026-08-27T18:29:59Z</time>
  <course>314.47</course>
  <speed>0.0</speed>
  <fix>3d</fix>
</trkpt>
<trkpt lat="40.0728544" lon="-105.2308421">
  <ele>1595.47</ele>
  <time>2026-08-27T18:29:59Z</time>
  <course>80.49</course>
  <speed>0.02</speed>
  <fix>3d</fix>
</trkpt>
<trkpt lat="40.0728545" lon="-105.2308423">
  <ele>1595.57</ele>
  <time>2026-08-27T18:29:59Z</time>
  <course>314.16</course>
  <speed>0.0</speed>
  <fix>3d</fix>
</trkpt>
<trkpt lat="40.0728544" lon="-105.230842">
  <ele>1595.47</ele>
  <time>2026-08-27T18:29:59Z</time>
  <course>84.18</course>
  <speed>0.02</speed>
  <fix>3d</fix>
</trkpt>
<trkpt lat="40.0728545" lon="-105.2308422">
  <ele>1595.56</ele>
  <time>2026-08-27T18:29:59Z</time>
  <course>314.34</course>
  <speed>0.0</speed>
  <fix>3d</fix>
</trkpt>
<trkpt lat="40.0728544" lon="-105.230842">
  <ele>1595.47</ele>
  <time>2026-08-27T18:29:59Z</time>
  <course>89.97</course>
  <speed>0.02</speed>
  <fix>3d</fix>
</trkpt>
<trkpt lat="40.0728545" lon="-105.2308421">
  <ele>1595.56</ele>
  <time>2026-08-27T18:29:59Z</time>
  <course>314.98</course>
  <speed>0.0</speed>
  <fix>3d</fix>
</trkpt>
<trkpt lat="40.0728544" lon="-105.2308419">
  <ele>1595.47</ele>
  <time>2026-08-27T18:29:59Z</time>
  <course>95.96</course>
  <speed>0.02</speed>
  <fix>3d</fix>
</trkpt>
<trkpt lat="40.0728545" lon="-105.2308421">
  <ele>1595.55</ele>
  <time>2026-08-27T18:29:59Z</time>
  <course>316.04</course>
  <speed>0.0</speed>
  <fix>3d</fix>
</trkpt>
<trkpt lat="40.0728544" lon="-105.2308418">
  <ele>1595.46</ele>
  <time>2026-08-27T18:29:59Z</time>
  <course>101.27</course>
  <speed>0.02</speed>
  <fix>3d</fix>
</trkpt>
<trkpt lat="40.0728545" lon="-105.230842">
  <ele>1595.55</ele>
  <time>2026-08-27T18:29:59Z</time>
  <course>317.41</course>
  <speed>0.0</speed>
  <fix>3d</fix>
</trkpt>
<trkpt lat="40.0728544" lon="-105.2308417">
  <ele>1595.46</ele>
  <time>2026-08-27T18:29:59Z</time>
  <course>105.22</course>
  <speed>0.02</speed>
  <fix>3d</fix>
</trkpt>
<trkpt lat="40.0728544" lon="-105.230842">
  <ele>1595.55</ele>
  <time>2026-08-27T18:29:59Z</time>
  <course>318.88</course>
  <speed>0.0</speed>
  <fix>3d</fix>
</trkpt>
<trkpt lat="40.0728544" lon="-105.2308417">
  <ele>1595.46</ele>
  <time>2026-08-27T18:29:59Z</time>
  <course>106.04</course>
  <speed>0.02</speed>
  <fix>3d</fix>
</trkpt>
<trkpt lat="40.0728544" lon="-105.2308419">
  <ele>1595.55</ele>
  <time>2026-08-27T18:29:59Z</time>
  <course>320.39</course>
  <speed>0.0</speed>
  <fix>3d</fix>
</trkpt>
<trkpt lat="40.0728544" lon="-105.2308417">
  <ele>1595.46</ele>
  <time>2026-08-27T18:29:59Z</time>
  <course>105.23</course>
  <speed>0.02</speed>
  <fix>3d</fix>
</trkpt>
<trkpt lat="40.0728544" lon="-105.2308418">
  <ele>1595.55</ele>
  <time>2026-08-27T18:29:59Z</time>
  <course>321.79</course>
  <speed>0.0</speed>
  <fix>3d</fix>
</trkpt>
<trkpt lat="40.0728544" lon="-105.2308416">
  <ele>1595.46</ele>
  <time>2026-08-27T18:29:59Z</time>
  <course>103.57</course>
  <speed>0.02</speed>
  <fix>3d</fix>
</trkpt>
<trkpt lat="40.0728544" lon="-105.2308418">
  <ele>1595.55</ele>
  <time>2026-08-27T18:30:00Z</time>
  <course>322.91</course>
  <speed>0.0</speed>
  <fix>3d</fix>
</trkpt>
<trkpt lat="40.0728544" lon="-105.2308415">
  <ele>1595.47</ele>
  <time>2026-08-27T18:30:00Z</time>
  <course>100.38</course>
  <speed>0.02</speed>
  <fix>3d</fix>
</trkpt>
<trkpt lat="40.0728544" lon="-105.2308417">
  <ele>1595.55</ele>
  <time>2026-08-27T18:30:00Z</time>
  <course>323.67</course>
  <speed>0.0</speed>
  <fix>3d</fix>
</trkpt>
<trkpt lat="40.0728544" lon="-105.2308415">
  <ele>1595.47</ele>
  <time>2026-08-27T18:30:00Z</time>
  <course>95.47</course>
  <speed>0.02</speed>
  <fix>3d</fix>
</trkpt>
<trkpt lat="40.0728544" lon="-105.2308416">
  <ele>1595.55</ele>
  <time>2026-08-27T18:30:00Z</time>
  <course>323.96</course>
  <speed>0.0</speed>
  <fix>3d</fix>
</trkpt>
<trkpt lat="40.0728544" lon="-105.2308414">
  <ele>1595.47</ele>
  <time>2026-08-27T18:30:00Z</time>
  <course>90.11</course>
  <speed>0.02</speed>
  <fix>3d</fix>
</trkpt>
<trkpt lat="40.0728544" lon="-105.2308416">
  <ele>1595.54</ele>
  <time>2026-08-27T18:30:00Z</time>
  <course>323.79</course>
  <speed>0.0</speed>
  <fix>3d</fix>
</trkpt>
<trkpt lat="40.0728544" lon="-105.2308413">
  <ele>1595.47</ele>
  <time>2026-08-27T18:30:00Z</time>
  <course>85.51</course>
  <speed>0.02</speed>
  <fix>3d</fix>
</trkpt>
<trkpt lat="40.0728544" lon="-105.2308415">
  <ele>1595.54</ele>
  <time>2026-08-27T18:30:00Z</time>
  <course>323.13</course>
  <speed>0.0</speed>
  <fix>3d</fix>
</trkpt>
<trkpt lat="40.0728544" lon="-105.2308413">
  <ele>1595.47</ele>
  <time>2026-08-27T18:30:00Z</time>
  <course>82.01</course>
  <speed>0.02</speed>
  <fix>3d</fix>
</trkpt>
<trkpt lat="40.0728544" lon="-105.2308414">
  <ele>1595.55</ele>
  <time>2026-08-27T18:30:00Z</time>
  <course>322.06</course>
  <speed>0.0</speed>
  <fix>3d</fix>
</trkpt>
<trkpt lat="40.0728544" lon="-105.2308412">
  <ele>1595.48</ele>
  <time>2026-08-27T18:30:00Z</time>
  <course>79.14</course>
  <speed>0.02</speed>
  <fix>3d</fix>
</trkpt>
<trkpt lat="40.0728544" lon="-105.2308414">
  <ele>1595.55</ele>
  <time>2026-08-27T18:30:00Z</time>
  <course>320.72</course>
  <speed>0.0</speed>
  <fix>3d</fix>
</trkpt>
<trkpt lat="40.0728544" lon="-105.2308412">
  <ele>1595.48</ele>
  <time>2026-08-27T18:30:00Z</time>
  <course>77.01</course>
  <speed>0.02</speed>
  <fix>3d</fix>
</trkpt>
<trkpt lat="40.0728544" lon="-105.2308413">
  <ele>1595.56</ele>
  <time>2026-08-27T18:30:00Z</time>
  <course>319.23</course>
  <speed>0.0</speed>
  <fix>3d</fix>
</trkpt>
<trkpt lat="40.0728544" lon="-105.2308411">
  <ele>1595.48</ele>
  <time>2026-08-27T18:30:00Z</time>
  <course>75.88</course>
  <speed>0.02</speed>
  <fix>3d</fix>
</trkpt>
<trkpt lat="40.0728544" lon="-105.2308412">
  <ele>1595.56</ele>
  <time>2026-08-27T18:30:00Z</time>
  <course>317.73</course>
  <speed>0.0</speed>
  <fix>3d</fix>
</trkpt>
<trkpt lat="40.0728544" lon="-105.230841">
  <ele>1595.49</ele>
  <time>2026-08-27T18:30:00Z</time>
  <course>74.99</course>
  <speed>0.02</speed>
  <fix>3d</fix>
</trkpt>
<trkpt lat="40.0728544" lon="-105.2308412">
  <ele>1595.56</ele>
  <time>2026-08-27T18:30:00Z</time>
  <course>316.35</course>
  <speed>0.0</speed>
  <fix>3d</fix>
</trkpt>
<trkpt lat="40.0728544" lon="-105.230841">
  <ele>1595.49</ele>
  <time>2026-08-27T18:30:00Z</time>
  <course>74.87</course>
  <speed>0.02</speed>
  <fix>3d</fix>
</trkpt>
<trkpt lat="40.0728544" lon="-105.2308411">
  <ele>1595.56</ele>
  <time>2026-08-27T18:30:00Z</time>
  <course>315.19</course>
  <speed>0.0</speed>
  <fix>3d</fix>
</trkpt>
<trkpt lat="40.0728544" lon="-105.2308409">
  <ele>1595.49</ele>
  <time>2026-08-27T18:30:00Z</time>
  <course>76.86</course>
  <speed>0.02</speed>
  <fix>3d</fix>
</trkpt>
<trkpt lat="40.0728544" lon="-105.2308411">
  <ele>1595.57</ele>
  <time>2026-08-27T18:30:00Z</time>
  <course>314.44</course>
  <speed>0.0</speed>
  <fix>3d</fix>
</trkpt>
<trkpt lat="40.0728544" lon="-105.2308408">
  <ele>1595.49</ele>
  <time>2026-08-27T18:30:00Z</time>
  <course>82.33</course>
  <speed>0.01</speed>
  <fix>3d</fix>
</trkpt>
<trkpt lat="40.0728544" lon="-105.230841">
  <ele>1595.57</ele>
  <time>2026-08-27T18:30:00Z</time>
  <course>314.17</course>
  <speed>0.0</speed>
  <fix>3d</fix>
</trkpt>
<trkpt lat="40.0728544" lon="-105.2308408">
  <ele>1595.49</ele>
  <time>2026-08-27T18:30:00Z</time>
  <course>91.06</course>
  <speed>0.01</speed>
  <fix>3d</fix>
</trkpt>
<trkpt lat="40.0728544" lon="-105.230841">
  <ele>1595.57</ele>
  <time>2026-08-27T18:30:00Z</time>
  <course>314.22</course>
  <speed>0.0</speed>
  <fix>3d</fix>
</trkpt>
<trkpt lat="40.0728544" lon="-105.2308408">
  <ele>1595.49</ele>
  <time>2026-08-27T18:30:00Z</time>
  <course>98.43</course>
  <speed>0.01</speed>
  <fix>3d</fix>
</trkpt>
<trkpt lat="40.0728544" lon="-105.2308409">
  <ele>1595.57</ele>
  <time>2026-08-27T18:30:00Z</time>
  <course>314.24</course>
  <speed>0.0</speed>
  <fix>3d</fix>
</trkpt>
<trkpt lat="40.0728544" lon="-105.2308408">
  <ele>1595.49</ele>
  <time>2026-08-27T18:30:00Z</time>
  <course>99.77</course>
  <speed>0.01</speed>
  <fix>3d</fix>
</trkpt>
<trkpt lat="40.0728544" lon="-105.2308409">
  <ele>1595.57</ele>
  <time>2026-08-27T18:30:00Z</time>
  <course>314.26</course>
  <speed>0.0</speed>
  <fix>3d</fix>
</trkpt>
<trkpt lat="40.0728544" lon="-105.2308407">
  <ele>1595.49</ele>
  <time>2026-08-27T18:30:00Z</time>
  <course>98.54</course>
  <speed>0.01</speed>
  <fix>3d</fix>
</trkpt>
<trkpt lat="40.0728544" lon="-105.2308409">
  <ele>1595.57</ele>
  <time>2026-08-27T18:30:00Z</time>
  <course>314.24</course>
  <speed>0.0</speed>
  <fix>3d</fix>
</trkpt>
<trkpt lat="40.0728544" lon="-105.2308407">
  <ele>1595.48</ele>
  <time>2026-08-27T18:30:00Z</time>
  <course>97.37</course>
  <speed>0.01</speed>
  <fix>3d</fix>
</trkpt>
<trkpt lat="40.0728544" lon="-105.2308408">
  <ele>1595.57</ele>
  <time>2026-08-27T18:30:00Z</time>
  <course>314.24</course>
  <speed>0.0</speed>
  <fix>3d</fix>
</trkpt>
<trkpt lat="40.0728544" lon="-105.2308406">
  <ele>1595.48</ele>
  <time>2026-08-27T18:30:00Z</time>
  <course>95.37</course>
  <speed>0.01</speed>
  <fix>3d</fix>
</trkpt>
<trkpt lat="40.0728544" lon="-105.2308408">
  <ele>1595.56</ele>
  <time>2026-08-27T18:30:00Z</time>
  <course>314.23</course>
  <speed>0.0</speed>
  <fix>3d</fix>
</trkpt>
<trkpt lat="40.0728544" lon="-105.2308405">
  <ele>1595.48</ele>
  <time>2026-08-27T18:30:00Z</time>
  <course>94.16</course>
  <speed>0.01</speed>
  <fix>3d</fix>
</trkpt>
<trkpt lat="40.0728544" lon="-105.2308407">
  <ele>1595.56</ele>
  <time>2026-08-27T18:30:00Z</time>
  <course>314.23</course>
  <speed>0.0</speed>
  <fix>3d</fix>
</trkpt>
<trkpt lat="40.0728544" lon="-105.2308405">
  <ele>1595.48</ele>
  <time>2026-08-27T18:30:00Z</time>
  <course>92.92</course>
  <speed>0.01</speed>
  <fix>3d</fix>
</trkpt>
<trkpt lat="40.0728544" lon="-105.2308407">
  <ele>1595.55</ele>
  <time>2026-08-27T18:30:00Z</time>
  <course>314.22</course>
  <speed>0.0</speed>
  <fix>3d</fix>
</trkpt>
<trkpt lat="40.0728544" lon="-105.2308405">
  <ele>1595.48</ele>
  <time>2026-08-27T18:30:00Z</time>
  <course>90.96</course>
  <speed>0.01</speed>
  <fix>3d</fix>
</trkpt>
<trkpt lat="40.0728544" lon="-105.2308406">
  <ele>1595.55</ele>
  <time>2026-08-27T18:30:00Z</time>
  <course>314.22</course>
  <speed>0.0</speed>
  <fix>3d</fix>
</trkpt>
<trkpt lat="40.0728544" lon="-105.2308405">
  <ele>1595.48</ele>
  <time>2026-08-27T18:30:00Z</time>
  <course>89.9</course>
  <speed>0.01</speed>
  <fix>3d</fix>
</trkpt>
<trkpt lat="40.0728544" lon="-105.2308406">
  <ele>1595.55</ele>
  <time>2026-08-27T18:30:00Z</time>
  <course>314.19</course>
  <speed>0.0</speed>
  <fix>3d</fix>
</trkpt>
<trkpt lat="40.0728544" lon="-105.2308404">
  <ele>1595.48</ele>
  <time>2026-08-27T18:30:00Z</time>
  <course>89.88</course>
  <speed>0.01</speed>
  <fix>3d</fix>
</trkpt>
<trkpt lat="40.0728544" lon="-105.2308405">
  <ele>1595.56</ele>
  <time>2026-08-27T18:30:00Z</time>
  <course>314.21</course>
  <speed>0.0</speed>
  <fix>3d</fix>
</trkpt>
<trkpt lat="40.0728544" lon="-105.2308403">
  <ele>1595.48</ele>
  <time>2026-08-27T18:30:00Z</time>
  <course>90.35</course>
  <speed>0.01</speed>
  <fix>3d</fix>
</trkpt>
<trkpt lat="40.0728544" lon="-105.2308405">
  <ele>1595.57</ele>
  <time>2026-08-27T18:30:00Z</time>
  <course>314.22</course>
  <speed>0.0</speed>
  <fix>3d</fix>
</trkpt>
<trkpt lat="40.0728544" lon="-105.2308403">
  <ele>1595.48</ele>
  <time>2026-08-27T18:30:00Z</time>
  <course>91.96</course>
  <speed>0.01</speed>
  <fix>3d</fix>
</trkpt>
<trkpt lat="40.0728544" lon="-105.2308404">
  <ele>1595.57</ele>
  <time>2026-08-27T18:30:00Z</time>
  <course>314.24</course>
  <speed>0.0</speed>
  <fix>3d</fix>
</trkpt>
<trkpt lat="40.0728544" lon="-105.2308403">
  <ele>1595.48</ele>
  <time>2026-08-27T18:30:00Z</time>
  <course>94.3</course>
  <speed>0.01</speed>
  <fix>3d</fix>
</trkpt>
<trkpt lat="40.0728544" lon="-105.2308404">
  <ele>1595.57</ele>
  <time>2026-08-27T18:30:00Z</time>
  <course>314.24</course>
  <speed>0.0</speed>
  <fix>3d</fix>
</trkpt>
<trkpt lat="40.0728544" lon="-105.2308403">
  <ele>1595.48</ele>
  <time>2026-08-27T18:30:00Z</time>
  <course>95.19</course>
  <speed>0.01</speed>
  <fix>3d</fix>
</trkpt>
<trkpt lat="40.0728544" lon="-105.2308403">
  <ele>1595.57</ele>
  <time>2026-08-27T18:30:00Z</time>
  <course>314.25</course>
  <speed>0.0</speed>
  <fix>3d</fix>
</trkpt>
<trkpt lat="40.0728544" lon="-105.2308402">
  <ele>1595.48</ele>
  <time>2026-08-27T18:30:00Z</time>
  <course>95.3</course>
  <speed>0.01</speed>
  <fix>3d</fix>
</trkpt>
<trkpt lat="40.0728544" lon="-105.2308403">
  <ele>1595.57</ele>
  <time>2026-08-27T18:30:00Z</time>
  <course>314.25</course>
  <speed>0.0</speed>
  <fix>3d</fix>
</trkpt>
<trkpt lat="40.0728544" lon="-105.2308401">
  <ele>1595.48</ele>
  <time>2026-08-27T18:30:00Z</time>
  <course>95.07</course>
  <speed>0.01</speed>
  <fix>3d</fix>
</trkpt>
<trkpt lat="40.0728544" lon="-105.2308402">
  <ele>1595.56</ele>
  <time>2026-08-27T18:30:00Z</time>
  <course>314.15</course>
  <speed>0.0</speed>
  <fix>3d</fix>
</trkpt>
<trkpt lat="40.0728544" lon="-105.2308401">
  <ele>1595.48</ele>
  <time>2026-08-27T18:30:00Z</time>
  <course>93.25</course>
  <speed>0.01</speed>
  <fix>3d</fix>
</trkpt>
<trkpt lat="40.0728544" lon="-105.2308402">
  <ele>1595.56</ele>
  <time>2026-08-27T18:30:00Z</time>
  <course>313.2</course>
  <speed>0.01</speed>
  <fix>3d</fix>
</trkpt>
<trkpt lat="40.0728544" lon="-105.2308401">
  <ele>1595.47</ele>
  <time>2026-08-27T18:30:00Z</time>
  <course>85.85</course>
  <speed>0.01</speed>
  <fix>3d</fix>
</trkpt>
<trkpt lat="40.0728544" lon="-105.2308402">
  <ele>1595.56</ele>
  <time>2026-08-27T18:30:00Z</time>
  <course>311.81</course>
  <speed>0.01</speed>
  <fix>3d</fix>
</trkpt>
<trkpt lat="40.0728544" lon="-105.23084">
  <ele>1595.47</ele>
  <time>2026-08-27T18:30:00Z</time>
  <course>78.91</course>
  <speed>0.01</speed>
  <fix>3d</fix>
</trkpt>
<trkpt lat="40.0728544" lon="-105.2308401">
  <ele>1595.56</ele>
  <time>2026-08-27T18:30:00Z</time>
  <course>310.61</course>
  <speed>0.0</speed>
  <fix>3d</fix>
</trkpt>
<trkpt lat="40.0728544" lon="-105.23084">
  <ele>1595.47</ele>
  <time>2026-08-27T18:30:00Z</time>
  <course>76.67</course>
  <speed>0.01</speed>
  <fix>3d</fix>
</trkpt>
<trkpt lat="40.0728544" lon="-105.2308401">
  <ele>1595.56</ele>
  <time>2026-08-27T18:30:00Z</time>
  <course>309.74</course>
  <speed>0.0</speed>
  <fix>3d</fix>
</trkpt>
<trkpt lat="40.0728544" lon="-105.23084">
  <ele>1595.47</ele>
  <time>2026-08-27T18:30:00Z</time>
  <course>76.82</course>
  <speed>0.01</speed>
  <fix>3d</fix>
</trkpt>
<trkpt lat="40.0728544" lon="-105.2308401">
  <ele>1595.56</ele>
  <time>2026-08-27T18:30:00Z</time>
  <course>309.35</course>
  <speed>0.0</speed>
  <fix>3d</fix>
</trkpt>
<trkpt lat="40.0728544" lon="-105.23084">
  <ele>1595.47</ele>
  <time>2026-08-27T18:30:00Z</time>
  <course>80.45</course>
  <speed>0.01</speed>
  <fix>3d</fix>
</trkpt>
<trkpt lat="40.0728544" lon="-105.23084">
  <ele>1595.56</ele>
  <time>2026-08-27T18:30:00Z</time>
  <course>309.38</course>
  <speed>0.0</speed>
  <fix>3d</fix>
</trkpt>
<trkpt lat="40.0728544" lon="-105.2308399">
  <ele>1595.47</ele>
  <time>2026-08-27T18:30:00Z</time>
  <course>88.8</course>
  <speed>0.0</speed>
  <fix>3d</fix>
</trkpt>
<trkpt lat="40.0728544" lon="-105.23084">
  <ele>1595.56</ele>
  <time>2026-08-27T18:30:00Z</time>
  <course>309.91</course>
  <speed>0.0</speed>
  <fix>3d</fix>
</trkpt>
<trkpt lat="40.0728544" lon="-105.2308398">
  <ele>1595.47</ele>
  <time>2026-08-27T18:30:00Z</time>
  <course>103.76</course>
  <speed>0.0</speed>
  <fix>3d</fix>
</trkpt>
<trkpt lat="40.0728544" lon="-105.23084">
  <ele>1595.56</ele>
  <time>2026-08-27T18:30:00Z</time>
  <course>310.87</course>
  <speed>0.0</speed>
  <fix>3d</fix>
</trkpt>
<trkpt lat="40.0728544" lon="-105.2308398">
  <ele>1595.47</ele>
  <time>2026-08-27T18:30:00Z</time>
  <course>129.06</course>
  <speed>0.0</speed>
  <fix>3d</fix>
</trkpt>
<trkpt lat="40.0728544" lon="-105.23084">
  <ele>1595.56</ele>
  <time>2026-08-27T18:30:00Z</time>
  <course>312.16</course>
  <speed>0.0</speed>
  <fix>3d</fix>
</trkpt>
<trkpt lat="40.0728544" lon="-105.2308398">
  <ele>1595.47</ele>
  <time>2026-08-27T18:30:00Z</time>
  <course>155.69</course>
  <speed>0.0</speed>
  <fix>3d</fix>
</trkpt>
<trkpt lat="40.0728544" lon="-105.23084">
  <ele>1595.56</ele>
  <time>2026-08-27T18:30:00Z</time>
  <course>313.66</course>
  <speed>0.0</speed>
  <fix>3d</fix>
</trkpt>
<trkpt lat="40.0728544" lon="-105.2308398">
  <ele>1595.47</ele>
  <time>2026-08-27T18:30:00Z</time>
  <course>168.17</course>
  <speed>0.0</speed>
  <fix>3d</fix>
</trkpt>
<trkpt lat="40.0728544" lon="-105.23084">
  <ele>1595.56</ele>
  <time>2026-08-27T18:30:00Z</time>
  <course>315.16</course>
  <speed>0.0</speed>
  <fix>3d</fix>
</trkpt>
<trkpt lat="40.0728544" lon="-105.2308398">
  <ele>1595.47</ele>
  <time>2026-08-27T18:30:00Z</time>
  <course>167.88</course>
  <speed>0.0</speed>
  <fix>3d</fix>
</trkpt>
<trkpt lat="40.0728544" lon="-105.2308399">
  <ele>1595.56</ele>
  <time>2026-08-27T18:30:00Z</time>
  <course>316.62</course>
  <speed>0.0</speed>
  <fix>3d</fix>
</trkpt>
<trkpt lat="40.0728544" lon="-105.2308398">
  <ele>1595.47</ele>
  <time>2026-08-27T18:30:00Z</time>
  <course>163.0</course>
  <speed>0.0</speed>
  <fix>3d</fix>
</trkpt>
<trkpt lat="40.0728544" lon="-105.2308399">
  <ele>1595.56</ele>
  <time>2026-08-27T18:30:00Z</time>
  <course>317.82</course>
  <speed>0.0</speed>
  <fix>3d</fix>
</trkpt>
<trkpt lat="40.0728544" lon="-105.2308398">
  <ele>1595.47</ele>
  <time>2026-08-27T18:30:00Z</time>
  <course>154.21</course>
  <speed>0.0</speed>
  <fix>3d</fix>
</trkpt>
<trkpt lat="40.0728544" lon="-105.2308399">
  <ele>1595.56</ele>
  <time>2026-08-27T18:30:00Z</time>
  <course>318.7</course>
  <speed>0.0</speed>
  <fix>3d</fix>
</trkpt>
<trkpt lat="40.0728544" lon="-105.2308398">
  <ele>1595.47</ele>
  <time>2026-08-27T18:30:00Z</time>
  <course>138.5</course>
  <speed>0.0</speed>
  <fix>3d</fix>
</trkpt>
<trkpt lat="40.0728544" lon="-105.2308399">
  <ele>1595.56</ele>
  <time>2026-08-27T18:30:00Z</time>
  <course>319.12</course>
  <speed>0.0</speed>
  <fix>3d</fix>
</trkpt>
<trkpt lat="40.0728544" lon="-105.2308398">
  <ele>1595.47</ele>
  <time>2026-08-27T18:30:00Z</time>
  <course>112.7</course>
  <speed>0.0</speed>
  <fix>3d</fix>
</trkpt>
<trkpt lat="40.0728544" lon="-105.2308399">
  <ele>1595.56</ele>
  <time>2026-08-27T18:30:00Z</time>
  <course>319.06</course>
  <speed>0.0</speed>
  <fix>3d</fix>
</trkpt>
<trkpt lat="40.0728544" lon="-105.2308398">
  <ele>1595.47</ele>
  <time>2026-08-27T18:30:00Z</time>
  <course>84.13</course>
  <speed>0.0</speed>
  <fix>3d</fix>
</trkpt>
<trkpt lat="40.0728544" lon="-105.2308399">
  <ele>1595.56</ele>
  <time>2026-08-27T18:30:00Z</time>
  <course>318.52</course>
  <speed>0.0</speed>
  <fix>3d</fix>
</trkpt>
<trkpt lat="40.0728544" lon="-105.2308398">
  <ele>1595.47</ele>
  <time>2026-08-27T18:30:00Z</time>
  <course>66.82</course>
  <speed>0.0</speed>
  <fix>3d</fix>
</trkpt>
<trkpt lat="40.0728544" lon="-105.2308399">
  <ele>1595.56</ele>
  <time>2026-08-27T18:30:00Z</time>
  <course>317.57</course>
  <speed>0.0</speed>
  <fix>3d</fix>
</trkpt>
<trkpt lat="40.0728544" lon="-105.2308398">
  <ele>1595.47</ele>
  <time>2026-08-27T18:30:00Z</time>
  <course>58.5</course>
  <speed>0.0</speed>
  <fix>3d</fix>
</trkpt>
<trkpt lat="40.0728544" lon="-105.2308398">
  <ele>1595.55</ele>
  <time>2026-08-27T18:30:00Z</time>
  <course>316.27</course>
  <speed>0.0</speed>
  <fix>3d</fix>
</trkpt>
<trkpt lat="40.0728544" lon="-105.2308398">
  <ele>1595.47</ele>
  <time>2026-08-27T18:30:00Z</time>
  <course>51.32</course>
  <speed>0.0</speed>
  <fix>3d</fix>
</trkpt>
<trkpt lat="40.0728544" lon="-105.2308398">
  <ele>1595.55</ele>
  <time>2026-08-27T18:30:00Z</time>
  <course>314.79</course>
  <speed>0.0</speed>
  <fix>3d</fix>
</trkpt>
<trkpt lat="40.0728544" lon="-105.2308398">
  <ele>1595.47</ele>
  <time>2026-08-27T18:30:00Z</time>
  <course>41.92</course>
  <speed>0.0</speed>
  <fix>3d</fix>
</trkpt>
<trkpt lat="40.0728544" lon="-105.2308398">
  <ele>1595.56</ele>
  <time>2026-08-27T18:30:00Z</time>
  <course>313.26</course>
  <speed>0.0</speed>
  <fix>3d</fix>
</trkpt>
<trkpt lat="40.0728544" lon="-105.2308398">
  <ele>1595.47</ele>
  <time>2026-08-27T18:30:00Z</time>
  <course>29.96</course>
  <speed>0.0</speed>
  <fix>3d</fix>
</trkpt>
<trkpt lat="40.0728544" lon="-105.2308398">
  <ele>1595.56</ele>
  <time>2026-08-27T18:30:00Z</time>
  <course>311.82</course>
  <speed>0.0</speed>
  <fix>3d</fix>
</trkpt>
<trkpt lat="40.0728544" lon="-105.2308398">
  <ele>1595.47</ele>
  <time>2026-08-27T18:30:00Z</time>
  <course>16.04</course>
  <speed>0.0</speed>
  <fix>3d</fix>
</trkpt>
<trkpt lat="40.0728544" lon="-105.2308398">
  <ele>1595.56</ele>
  <time>2026-08-27T18:30:00Z</time>
  <course>310.6</course>
  <speed>0.0</speed>
  <fix>3d</fix>
</trkpt>
<trkpt lat="40.0728544" lon="-105.2308398">
  <ele>1595.47</ele>
  <time>2026-08-27T18:30:00Z</time>
  <course>359.78</course>
  <speed>0.0</speed>
  <fix>3d</fix>
</trkpt>
<trkpt lat="40.0728544" lon="-105.2308398">
  <ele>1595.56</ele>
  <time>2026-08-27T18:30:00Z</time>
  <course>309.74</course>
  <speed>0.0</speed>
  <fix>3d</fix>
</trkpt>
<trkpt lat="40.0728544" lon="-105.2308398">
  <ele>1595.48</ele>
  <time>2026-08-27T18:30:00Z</time>
  <course>338.18</course>
  <speed>0.0</speed>
  <fix>3d</fix>
</trkpt>
<trkpt lat="40.0728544" lon="-105.2308398">
  <ele>1595.56</ele>
  <time>2026-08-27T18:30:00Z</time>
  <course>309.32</course>
  <speed>0.0</speed>
  <fix>3d</fix>
</trkpt>
<trkpt lat="40.0728544" lon="-105.2308398">
  <ele>1595.48</ele>
  <time>2026-08-27T18:30:00Z</time>
  <course>303.12</course>
  <speed>0.0</speed>
  <fix>3d</fix>
</trkpt>
<trkpt lat="40.0728544" lon="-105.2308398">
  <ele>1595.56</ele>
  <time>2026-08-27T18:30:00Z</time>
  <course>309.38</course>
  <speed>0.0</speed>
  <fix>3d</fix>
</trkpt>
<trkpt lat="40.0728544" lon="-105.2308398">
  <ele>1595.48</ele>
  <time>2026-08-27T18:30:00Z</time>
  <course>267.77</course>
  <speed>0.0</speed>
  <fix>3d</fix>
</trkpt>
<trkpt lat="40.0728544" lon="-105.2308398">
  <ele>1595.57</ele>
  <time>2026-08-27T18:30:00Z</time>
  <course>309.94</course>
  <speed>0.0</speed>
  <fix>3d</fix>
</trkpt>
<trkpt lat="40.0728544" lon="-105.2308398">
  <ele>1595.48</ele>
  <time>2026-08-27T18:30:00Z</time>
  <course>246.34</course>
  <speed>0.0</speed>
  <fix>3d</fix>
</trkpt>
<trkpt lat="40.0728544" lon="-105.2308398">
  <ele>1595.56</ele>
  <time>2026-08-27T18:30:00Z</time>
  <course>310.9</course>
  <speed>0.0</speed>
  <fix>3d</fix>
</trkpt>
<trkpt lat="40.0728544" lon="-105.2308398">
  <ele>1595.48</ele>
  <time>2026-08-27T18:30:00Z</time>
  <course>234.92</course>
  <speed>0.0</speed>
  <fix>3d</fix>
</trkpt>
<trkpt lat="40.0728544" lon="-105.2308398">
  <ele>1595.56</ele>
  <time>2026-08-27T18:30:00Z</time>
  <course>312.18</course>
  <speed>0.0</speed>
  <fix>3d</fix>
</trkpt>
<trkpt lat="40.0728544" lon="-105.2308398">
  <ele>1595.47</ele>
  <time>2026-08-27T18:30:00Z</time>
  <course>229.43</course>
  <speed>0.01</speed>
  <fix>3d</fix>
</trkpt>
<trkpt lat="40.0728544" lon="-105.2308398">
  <ele>1595.55</ele>
  <time>2026-08-27T18:30:00Z</time>
  <course>313.63</course>
  <speed>0.0</speed>
  <fix>3d</fix>
</trkpt>
<trkpt lat="40.0728544" lon="-105.2308398">
  <ele>1595.47</ele>
  <time>2026-08-27T18:30:00Z</time>
  <course>226.62</course>
  <speed>0.01</speed>
  <fix>3d</fix>
</trkpt>
<trkpt lat="40.0728544" lon="-105.2308398">
  <ele>1595.55</ele>
  <time>2026-08-27T18:30:00Z</time>
  <course>315.15</course>
  <speed>0.0</speed>
  <fix>3d</fix>
</trkpt>
<trkpt lat="40.0728544" lon="-105.2308398">
  <ele>1595.47</ele>
  <time>2026-08-27T18:30:00Z</time>
  <course>224.42</course>
  <speed>0.0</speed>
  <fix>3d</fix>
</trkpt>
<trkpt lat="40.0728544" lon="-105.2308398">
  <ele>1595.55</ele>
  <time>2026-08-27T18:30:00Z</time>
  <course>316.56</course>
  <speed>0.0</speed>
  <fix>3d</fix>
</trkpt>
<trkpt lat="40.0728544" lon="-105.2308398">
  <ele>1595.47</ele>
  <time>2026-08-27T18:30:00Z</time>
  <course>225.31</course>
  <speed>0.0</speed>
  <fix>3d</fix>
</trkpt>
<trkpt lat="40.0728544" lon="-105.2308398">
  <ele>1595.55</ele>
  <time>2026-08-27T18:30:00Z</time>
  <course>317.8</course>
  <speed>0.0</speed>
  <fix>3d</fix>
</trkpt>
<trkpt lat="40.0728544" lon="-105.2308398">
  <ele>1595.48</ele>
  <time>2026-08-27T18:30:00Z</time>
  <course>229.08</course>
  <speed>0.0</speed>
  <fix>3d</fix>
</trkpt>
<trkpt lat="40.0728544" lon="-105.2308398">
  <ele>1595.55</ele>
  <time>2026-08-27T18:30:00Z</time>
  <course>318.67</course>
  <speed>0.0</speed>
  <fix>3d</fix>
</trkpt>
<trkpt lat="40.0728544" lon="-105.2308398">
  <ele>1595.48</ele>
  <time>2026-08-27T18:30:00Z</time>
  <course>236.78</course>
  <speed>0.0</speed>
  <fix>3d</fix>
</trkpt>
<trkpt lat="40.0728544" lon="-105.2308398">
  <ele>1595.55</ele>
  <time>2026-08-27T18:30:00Z</time>
  <course>319.1</course>
  <speed>0.0</speed>
  <fix>3d</fix>
</trkpt>
<trkpt lat="40.0728544" lon="-105.2308398">
  <ele>1595.48</ele>
  <time>2026-08-27T18:30:00Z</time>
  <course>264.24</course>
  <speed>0.0</speed>
  <fix>3d</fix>
</trkpt>
<trkpt lat="40.0728544" lon="-105.2308398">
  <ele>1595.56</ele>
  <time>2026-08-27T18:30:00Z</time>
  <course>319.06</course>
  <speed>0.0</speed>
  <fix>3d</fix>
</trkpt>
<trkpt lat="40.0728544" lon="-105.2308398">
  <ele>1595.48</ele>
  <time>2026-08-27T18:30:00Z</time>
  <course>309.85</course>
  <speed>0.0</speed>
  <fix>3d</fix>
</trkpt>
<trkpt lat="40.0728544" lon="-105.2308398">
  <ele>1595.56</ele>
  <time>2026-08-27T18:30:00Z</time>
  <course>318.51</course>
  <speed>0.0</speed>
  <fix>3d</fix>
</trkpt>
<trkpt lat="40.0728544" lon="-105.2308398">
  <ele>1595.49</ele>
  <time>2026-08-27T18:30:00Z</time>
  <course>334.73</course>
  <speed>0.0</speed>
  <fix>3d</fix>
</trkpt>
<trkpt lat="40.0728544" lon="-105.2308398">
  <ele>1595.56</ele>
  <time>2026-08-27T18:30:00Z</time>
  <course>317.57</course>
  <speed>0.0</speed>
  <fix>3d</fix>
</trkpt>
<trkpt lat="40.0728544" lon="-105.2308398">
  <ele>1595.49</ele>
  <time>2026-08-27T18:30:00Z</time>
  <course>345.79</course>
  <speed>0.0</speed>
  <fix>3d</fix>
</trkpt>
<trkpt lat="40.0728544" lon="-105.2308398">
  <ele>1595.56</ele>
  <time>2026-08-27T18:30:00Z</time>
  <course>316.26</course>
  <speed>0.01</speed>
  <fix>3d</fix>
</trkpt>
<trkpt lat="40.0728544" lon="-105.2308398">
  <ele>1595.49</ele>
  <time>2026-08-27T18:30:00Z</time>
  <course>347.77</course>
  <speed>0.0</speed>
  <fix>3d</fix>
</trkpt>
<trkpt lat="40.0728544" lon="-105.2308398">
  <ele>1595.56</ele>
  <time>2026-08-27T18:30:00Z</time>
  <course>314.77</course>
  <speed>0.01</speed>
  <fix>3d</fix>
</trkpt>
<trkpt lat="40.0728544" lon="-105.2308398">
  <ele>1595.49</ele>
  <time>2026-08-27T18:30:00Z</time>
  <course>343.39</course>
  <speed>0.0</speed>
  <fix>3d</fix>
</trkpt>
<trkpt lat="40.0728544" lon="-105.2308398">
  <ele>1595.56</ele>
  <time>2026-08-27T18:30:00Z</time>
  <course>313.27</course>
  <speed>0.01</speed>
  <fix>3d</fix>
</trkpt>
<trkpt lat="40.0728544" lon="-105.2308398">
  <ele>1595.49</ele>
  <time>2026-08-27T18:30:00Z</time>
  <course>335.72</course>
  <speed>0.01</speed>
  <fix>3d</fix>
</trkpt>
<trkpt lat="40.0728544" lon="-105.2308398">
  <ele>1595.57</ele>
  <time>2026-08-27T18:30:00Z</time>
  <course>311.82</course>
  <speed>0.01</speed>
  <fix>3d</fix>
</trkpt>
<trkpt lat="40.0728544" lon="-105.2308398">
  <ele>1595.49</ele>
  <time>2026-08-27T18:30:00Z</time>
  <course>326.42</course>
  <speed>0.01</speed>
  <fix>3d</fix>
</trkpt>
<trkpt lat="40.0728544" lon="-105.2308398">
  <ele>1595.57</ele>
  <time>2026-08-27T18:30:00Z</time>
  <course>310.62</course>
  <speed>0.0</speed>
  <fix>3d</fix>
</trkpt>
<trkpt lat="40.0728544" lon="-105.2308398">
  <ele>1595.5</ele>
  <time>2026-08-27T18:30:00Z</time>
  <course>314.06</course>
  <speed>0.01</speed>
  <fix>3d</fix>
</trkpt>
<trkpt lat="40.0728544" lon="-105.2308398">
  <ele>1595.57</ele>
  <time>2026-08-27T18:30:00Z</time>
  <course>309.77</course>
  <speed>0.0</speed>
  <fix>3d</fix>
</trkpt>
<trkpt lat="40.0728544" lon="-105.2308398">
  <ele>1595.5</ele>
  <time>2026-08-27T18:30:00Z</time>
  <course>298.85</course>
  <speed>0.01</speed>
  <fix>3d</fix>
</trkpt>
<trkpt lat="40.0728544" lon="-105.2308398">
  <ele>1595.57</ele>
  <time>2026-08-27T18:30:00Z</time>
  <course>309.34</course>
  <speed>0.0</speed>
  <fix>3d</fix>
</trkpt>
<trkpt lat="40.0728544" lon="-105.2308399">
  <ele>1595.49</ele>
  <time>2026-08-27T18:30:00Z</time>
  <course>284.33</course>
  <speed>0.01</speed>
  <fix>3d</fix>
</trkpt>
<trkpt lat="40.0728544" lon="-105.2308399">
  <ele>1595.57</ele>
  <time>2026-08-27T18:30:00Z</time>
  <course>309.4</course>
  <speed>0.0</speed>
  <fix>3d</fix>
</trkpt>
<trkpt lat="40.0728544" lon="-105.23084">
  <ele>1595.49</ele>
  <time>2026-08-27T18:30:00Z</time>
  <course>272.88</course>
  <speed>0.01</speed>
  <fix>3d</fix>
</trkpt>
<trkpt lat="40.0728544" lon="-105.2308399">
  <ele>1595.57</ele>
  <time>2026-08-27T18:30:00Z</time>
  <course>309.96</course>
  <speed>0.0</speed>
  <fix>3d</fix>
</trkpt>
<trkpt lat="40.0728544" lon="-105.23084">
  <ele>1595.49</ele>
  <time>2026-08-27T18:30:00Z</time>
  <course>264.36</course>
  <speed>0.01</speed>
  <fix>3d</fix>
</trkpt>
<trkpt lat="40.0728544" lon="-105.2308399">
  <ele>1595.56</ele>
  <time>2026-08-27T18:30:00Z</time>
  <course>310.9</course>
  <speed>0.0</speed>
  <fix>3d</fix>
</trkpt>
<trkpt lat="40.0728544" lon="-105.23084">
  <ele>1595.49</ele>
  <time>2026-08-27T18:30:00Z</time>
  <course>257.55</course>
  <speed>0.01</speed>
  <fix>3d</fix>
</trkpt>
<trkpt lat="40.0728544" lon="-105.23084">
  <ele>1595.56</ele>
  <time>2026-08-27T18:30:00Z</time>
  <course>312.2</course>
  <speed>0.0</speed>
  <fix>3d</fix>
</trkpt>
<trkpt lat="40.0728544" lon="-105.2308401">
  <ele>1595.49</ele>
  <time>2026-08-27T18:30:00Z</time>
  <course>252.77</course>
  <speed>0.01</speed>
  <fix>3d</fix>
</trkpt>
<trkpt lat="40.0728544" lon="-105.23084">
  <ele>1595.56</ele>
  <time>2026-08-27T18:30:00Z</time>
  <course>313.67</course>
  <speed>0.0</speed>
  <fix>3d</fix>
</trkpt>
<trkpt lat="40.0728544" lon="-105.2308401">
  <ele>1595.49</ele>
  <time>2026-08-27T18:30:00Z</time>
  <course>251.18</course>
  <speed>0.01</speed>
  <fix>3d</fix>
</trkpt>
<trkpt lat="40.0728544" lon="-105.23084">
  <ele>1595.55</ele>
  <time>2026-08-27T18:30:00Z</time>
  <course>315.16</course>
  <speed>0.0</speed>
  <fix>3d</fix>
</trkpt>
<trkpt lat="40.0728544" lon="-105.2308401">
  <ele>1595.49</ele>
  <time>2026-08-27T18:30:00Z</time>
  <course>252.65</course>
  <speed>0.01</speed>
  <fix>3d</fix>
</trkpt>
<trkpt lat="40.0728544" lon="-105.2308401">
  <ele>1595.56</ele>
  <time>2026-08-27T18:30:00Z</time>
  <course>316.59</course>
  <speed>0.0</speed>
  <fix>3d</fix>
</trkpt>
<trkpt lat="40.0728544" lon="-105.2308401">
  <ele>1595.49</ele>
  <time>2026-08-27T18:30:00Z</time>
  <course>255.39</course>
  <speed>0.01</speed>
  <fix>3d</fix>
</trkpt>
<trkpt lat="40.0728544" lon="-105.2308401">
  <ele>1595.56</ele>
  <time>2026-08-27T18:30:00Z</time>
  <course>317.82</course>
  <speed>0.0</speed>
  <fix>3d</fix>
</trkpt>
<trkpt lat="40.0728544" lon="-105.2308402">
  <ele>1595.49</ele>
  <time>2026-08-27T18:30:00Z</time>
  <course>259.62</course>
  <speed>0.01</speed>
  <fix>3d</fix>
</trkpt>
<trkpt lat="40.0728544" lon="-105.2308401">
  <ele>1595.56</ele>
  <time>2026-08-27T18:30:00Z</time>
  <course>318.69</course>
  <speed>0.0</speed>
  <fix>3d</fix>
</trkpt>
<trkpt lat="40.0728544" lon="-105.2308403">
  <ele>1595.49</ele>
  <time>2026-08-27T18:30:00Z</time>
  <course>267.1</course>
  <speed>0.01</speed>
  <fix>3d</fix>
</trkpt>
<trkpt lat="40.0728544" lon="-105.2308402">
  <ele>1595.56</ele>
  <time>2026-08-27T18:30:00Z</time>
  <course>319.12</course>
  <speed>0.0</speed>
  <fix>3d</fix>
</trkpt>
<trkpt lat="40.0728544" lon="-105.2308403">
  <ele>1595.49</ele>
  <time>2026-08-27T18:30:00Z</time>
  <course>277.41</course>
  <speed>0.01</speed>
  <fix>3d</fix>
</trkpt>
<trkpt lat="40.0728544" lon="-105.2308402">
  <ele>1595.57</ele>
  <time>2026-08-27T18:30:00Z</time>
  <course>319.06</course>
  <speed>0.0</speed>
  <fix>3d</fix>
</trkpt>
<trkpt lat="40.0728544" lon="-105.2308403">
  <ele>1595.49</ele>
  <time>2026-08-27T18:30:00Z</time>
  <course>290.48</course>
  <speed>0.01</speed>
  <fix>3d</fix>
</trkpt>
<trkpt lat="40.0728544" lon="-105.2308402">
  <ele>1595.57</ele>
  <time>2026-08-27T18:30:00Z</time>
  <course>318.55</course>
  <speed>0.0</speed>
  <fix>3d</fix>
</trkpt>
<trkpt lat="40.0728544" lon="-105.2308403">
  <ele>1595.49</ele>
  <time>2026-08-27T18:30:00Z</time>
  <course>302.33</course>
  <speed>0.01</speed>
  <fix>3d</fix>
</trkpt>
<trkpt lat="40.0728544" lon="-105.2308402">
  <ele>1595.57</ele>
  <time>2026-08-27T18:30:00Z</time>
  <course>317.57</course>
  <speed>0.0</speed>
  <fix>3d</fix>
</trkpt>
<trkpt lat="40.0728544" lon="-105.2308403">
  <ele>1595.49</ele>
  <time>2026-08-27T18:30:00Z</time>
  <course>311.79</course>
  <speed>0.01</speed>
  <fix>3d</fix>
</trkpt>
<trkpt lat="40.0728544" lon="-105.2308402">
  <ele>1595.56</ele>
  <time>2026-08-27T18:30:00Z</time>
  <course>316.29</course>
  <speed>0.01</speed>
  <fix>3d</fix>
</trkpt>
<trkpt lat="40.0728544" lon="-105.2308403">
  <ele>1595.49</ele>
  <time>2026-08-27T18:30:00Z</time>
  <course>317.18</course>
  <speed>0.01</speed>
  <fix>3d</fix>
</trkpt>
<trkpt lat="40.0728544" lon="-105.2308403">
  <ele>1595.56</ele>
  <time>2026-08-27T18:30:00Z</time>
  <course>314.82</course>
  <speed>0.01</speed>
  <fix>3d</fix>
</trkpt>
<trkpt lat="40.0728544" lon="-105.2308403">
  <ele>1595.49</ele>
  <time>2026-08-27T18:30:00Z</time>
  <course>317.49</course>
  <speed>0.01</speed>
  <fix>3d</fix>
</trkpt>
<trkpt lat="40.0728544" lon="-105.2308403">
  <ele>1595.56</ele>
  <time>2026-08-27T18:30:00Z</time>
  <course>313.26</course>
  <speed>0.01</speed>
  <fix>3d</fix>
</trkpt>
<trkpt lat="40.0728545" lon="-105.2308403">
  <ele>1595.49</ele>
  <time>2026-08-27T18:30:00Z</time>
  <course>315.83</course>
  <speed>0.01</speed>
  <fix>3d</fix>
</trkpt>
<trkpt lat="40.0728544" lon="-105.2308403">
  <ele>1595.56</ele>
  <time>2026-08-27T18:30:00Z</time>
  <course>311.81</course>
  <speed>0.01</speed>
  <fix>3d</fix>
</trkpt>
<trkpt lat="40.0728545" lon="-105.2308404">
  <ele>1595.49</ele>
  <time>2026-08-27T18:30:00Z</time>
  <course>312.5</course>
  <speed>0.01</speed>
  <fix>3d</fix>
</trkpt>
<trkpt lat="40.0728545" lon="-105.2308403">
  <ele>1595.56</ele>
  <time>2026-08-27T18:30:00Z</time>
  <course>310.6</course>
  <speed>0.0</speed>
  <fix>3d</fix>
</trkpt>
<trkpt lat="40.0728545" lon="-105.2308405">
  <ele>1595.49</ele>
  <time>2026-08-27T18:30:00Z</time>
  <course>306.79</course>
  <speed>0.01</speed>
  <fix>3d</fix>
</trkpt>
<trkpt lat="40.0728545" lon="-105.2308404">
  <ele>1595.56</ele>
  <time>2026-08-27T18:30:00Z</time>
  <course>309.73</course>
  <speed>0.0</speed>
  <fix>3d</fix>
</trkpt>
<trkpt lat="40.0728545" lon="-105.2308405">
  <ele>1595.49</ele>
  <time>2026-08-27T18:30:00Z</time>
  <course>298.41</course>
  <speed>0.01</speed>
  <fix>3d</fix>
</trkpt>
<trkpt lat="40.0728545" lon="-105.2308404">
  <ele>1595.55</ele>
  <time>2026-08-27T18:30:00Z</time>
  <course>309.32</course>
  <speed>0.0</speed>
  <fix>3d</fix>
</trkpt>
<trkpt lat="40.0728545" lon="-105.2308405">
  <ele>1595.49</ele>
  <time>2026-08-27T18:30:00Z</time>
  <course>288.84</course>
  <speed>0.01</speed>
  <fix>3d</fix>
</trkpt>
<trkpt lat="40.0728545" lon="-105.2308404">
  <ele>1595.55</ele>
  <time>2026-08-27T18:30:00Z</time>
  <course>309.38</course>
  <speed>0.0</speed>
  <fix>3d</fix>
</trkpt>
<trkpt lat="40.0728545" lon="-105.2308405">
  <ele>1595.49</ele>
  <time>2026-08-27T18:30:00Z</time>
  <course>279.57</course>
  <speed>0.01</speed>
  <fix>3d</fix>
</trkpt>
<trkpt lat="40.0728545" lon="-105.2308405">
  <ele>1595.56</ele>
  <time>2026-08-27T18:30:00Z</time>
  <course>309.89</course>
  <speed>0.0</speed>
  <fix>3d</fix>
</trkpt>
<trkpt lat="40.0728545" lon="-105.2308406">
  <ele>1595.49</ele>
  <time>2026-08-27T18:30:00Z</time>
  <course>270.9</course>
  <speed>0.01</speed>
  <fix>3d</fix>
</trkpt>
<trkpt lat="40.0728545" lon="-105.2308405">
  <ele>1595.56</ele>
  <time>2026-08-27T18:30:00Z</time>
  <course>310.88</course>
  <speed>0.0</speed>
  <fix>3d</fix>
</trkpt>
<trkpt lat="40.0728545" lon="-105.2308407">
  <ele>1595.49</ele>
  <time>2026-08-27T18:30:00Z</time>
  <course>263.54</course>
  <speed>0.01</speed>
  <fix>3d</fix>
</trkpt>
<trkpt lat="40.0728545" lon="-105.2308406">
  <ele>1595.57</ele>
  <time>2026-08-27T18:30:00Z</time>
  <course>312.18</course>
  <speed>0.0</speed>
  <fix>3d</fix>
</trkpt>
<trkpt lat="40.0728545" lon="-105.2308407">
  <ele>1595.49</ele>
  <time>2026-08-27T18:30:00Z</time>
  <course>259.29</course>
  <speed>0.02</speed>
  <fix>3d</fix>
</trkpt>
<trkpt lat="40.0728545" lon="-105.2308406">
  <ele>1595.57</ele>
  <time>2026-08-27T18:30:00Z</time>
  <course>313.66</course>
  <speed>0.0</speed>
  <fix>3d</fix>
</trkpt>
<trkpt lat="40.0728545" lon="-105.2308408">
  <ele>1595.49</ele>
  <time>2026-08-27T18:30:00Z</time>
  <course>257.26</course>
  <speed>0.02</speed>
  <fix>3d</fix>
</trkpt>
<trkpt lat="40.0728545" lon="-105.2308407">
  <ele>1595.58</ele>
  <time>2026-08-27T18:30:00Z</time>
  <course>315.19</course>
  <speed>0.0</speed>
  <fix>3d</fix>
</trkpt>
<trkpt lat="40.0728545" lon="-105.2308408">
  <ele>1595.49</ele>
  <time>2026-08-27T18:30:00Z</time>
  <course>256.09</course>
  <speed>0.02</speed>
  <fix>3d</fix>
</trkpt>
<trkpt lat="40.0728545" lon="-105.2308407">
  <ele>1595.58</ele>
  <time>2026-08-27T18:30:00Z</time>
  <course>316.65</course>
  <speed>0.0</speed>
  <fix>3d</fix>
</trkpt>
<trkpt lat="40.0728545" lon="-105.2308408">
  <ele>1595.49</ele>
  <time>2026-08-27T18:30:00Z</time>
  <course>256.89</course>
  <speed>0.02</speed>
  <fix>3d</fix>
</trkpt>
<trkpt lat="40.0728545" lon="-105.2308408">
  <ele>1595.58</ele>
  <time>2026-08-27T18:30:00Z</time>
  <course>317.88</course>
  <speed>0.0</speed>
  <fix>3d</fix>
</trkpt>
<trkpt lat="40.0728545" lon="-105.2308408">
  <ele>1595.49</ele>
  <time>2026-08-27T18:30:00Z</time>
  <course>259.47</course>
  <speed>0.01</speed>
  <fix>3d</fix>
</trkpt>
<trkpt lat="40.0728545" lon="-105.2308408">
  <ele>1595.58</ele>
  <time>2026-08-27T18:30:00Z</time>
  <course>318.74</course>
  <speed>0.0</speed>
  <fix>3d</fix>
</trkpt>
<trkpt lat="40.0728545" lon="-105.2308409">
  <ele>1595.49</ele>
  <time>2026-08-27T18:30:00Z</time>
  <course>265.05</course>
  <speed>0.01</speed>
  <fix>3d</fix>
</trkpt>
<trkpt lat="40.0728545" lon="-105.2308408">
  <ele>1595.58</ele>
  <time>2026-08-27T18:30:00Z</time>
  <course>319.17</course>
  <speed>0.0</speed>
  <fix>3d</fix>
</trkpt>
<trkpt lat="40.0728545" lon="-105.230841">
  <ele>1595.48</ele>
  <time>2026-08-27T18:30:00Z</time>
  <course>273.78</course>
  <speed>0.01</speed>
  <fix>3d</fix>
</trkpt>
<trkpt lat="40.0728545" lon="-105.2308409">
  <ele>1595.58</ele>
  <time>2026-08-27T18:30:00Z</time>
  <course>319.11</course>
  <speed>0.0</speed>
  <fix>3d</fix>
</trkpt>
<trkpt lat="40.0728545" lon="-105.230841">
  <ele>1595.48</ele>
  <time>2026-08-27T18:30:00Z</time>
  <course>284.17</course>
  <speed>0.01</speed>
  <fix>3d</fix>
</trkpt>
<trkpt lat="40.0728545" lon="-105.2308409">
  <ele>1595.58</ele>
  <time>2026-08-27T18:30:00Z</time>
  <course>318.59</course>
  <speed>0.0</speed>
  <fix>3d</fix>
</trkpt>
<trkpt lat="40.0728545" lon="-105.230841">
  <ele>1595.47</ele>
  <time>2026-08-27T18:30:00Z</time>
  <course>296.26</course>
  <speed>0.01</speed>
  <fix>3d</fix>
</trkpt>
<trkpt lat="40.0728545" lon="-105.2308409">
  <ele>1595.58</ele>
  <time>2026-08-27T18:30:00Z</time>
  <course>317.61</course>
  <speed>0.01</speed>
  <fix>3d</fix>
</trkpt>
<trkpt lat="40.0728545" lon="-105.230841">
  <ele>1595.47</ele>
  <time>2026-08-27T18:30:00Z</time>
  <course>306.88</course>
  <speed>0.01</speed>
  <fix>3d</fix>
</trkpt>
<trkpt lat="40.0728545" lon="-105.2308409">
  <ele>1595.58</ele>
  <time>2026-08-27T18:30:00Z</time>
  <course>316.36</course>
  <speed>0.01</speed>
  <fix>3d</fix>
</trkpt>
<trkpt lat="40.0728545" lon="-105.230841">
  <ele>1595.46</ele>
  <time>2026-08-27T18:30:00Z</time>
  <course>312.6</course>
  <speed>0.01</speed>
  <fix>3d</fix>
</trkpt>
<trkpt lat="40.0728545" lon="-105.2308409">
  <ele>1595.57</ele>
  <time>2026-08-27T18:30:00Z</time>
  <course>314.87</course>
  <speed>0.01</speed>
  <fix>3d</fix>
</trkpt>
<trkpt lat="40.0728545" lon="-105.230841">
  <ele>1595.46</ele>
  <time>2026-08-27T18:30:00Z</time>
  <course>314.27</course>
  <speed>0.01</speed>
  <fix>3d</fix>
</trkpt>
<trkpt lat="40.0728545" lon="-105.230841">
  <ele>1595.57</ele>
  <time>2026-08-27T18:30:00Z</time>
  <course>313.34</course>
  <speed>0.01</speed>
  <fix>3d</fix>
</trkpt>
<trkpt lat="40.0728546" lon="-105.2308411">
  <ele>1595.45</ele>
  <time>2026-08-27T18:30:00Z</time>
  <course>313.59</course>
  <speed>0.01</speed>
  <fix>3d</fix>
</trkpt>
<trkpt lat="40.0728545" lon="-105.230841">
  <ele>1595.57</ele>
  <time>2026-08-27T18:30:00Z</time>
  <course>311.86</course>
  <speed>0.01</speed>
  <fix>3d</fix>
</trkpt>
<trkpt lat="40.0728546" lon="-105.2308412">
  <ele>1595.45</ele>
  <time>2026-08-27T18:30:00Z</time>
  <course>309.82</course>
  <speed>0.01</speed>
  <fix>3d</fix>
</trkpt>
<trkpt lat="40.0728546" lon="-105.230841">
  <ele>1595.56</ele>
  <time>2026-08-27T18:30:00Z</time>
  <course>310.64</course>
  <speed>0.0</speed>
  <fix>3d</fix>
</trkpt>
<trkpt lat="40.0728546" lon="-105.2308412">
  <ele>1595.45</ele>
  <time>2026-08-27T18:30:00Z</time>
  <course>302.79</course>
  <speed>0.01</speed>
  <fix>3d</fix>
</trkpt>
<trkpt lat="40.0728546" lon="-105.230841">
  <ele>1595.56</ele>
  <time>2026-08-27T18:30:00Z</time>
  <course>309.76</course>
  <speed>0.0</speed>
  <fix>3d</fix>
</trkpt>
<trkpt lat="40.0728546" lon="-105.2308412">
  <ele>1595.44</ele>
  <time>2026-08-27T18:30:00Z</time>
  <course>293.14</course>
  <speed>0.01</speed>
  <fix>3d</fix>
</trkpt>
<trkpt lat="40.0728546" lon="-105.2308411">
  <ele>1595.55</ele>
  <time>2026-08-27T18:30:00Z</time>
  <course>309.33</course>
  <speed>0.0</speed>
  <fix>3d</fix>
</trkpt>
<trkpt lat="40.0728546" lon="-105.2308413">
  <ele>1595.44</ele>
  <time>2026-08-27T18:30:00Z</time>
  <course>283.18</course>
  <speed>0.01</speed>
  <fix>3d</fix>
</trkpt>
<trkpt lat="40.0728546" lon="-105.2308411">
  <ele>1595.55</ele>
  <time>2026-08-27T18:30:00Z</time>
  <course>309.38</course>
  <speed>0.0</speed>
  <fix>3d</fix>
</trkpt>
<trkpt lat="40.0728546" lon="-105.2308413">
  <ele>1595.44</ele>
  <time>2026-08-27T18:30:00Z</time>
  <course>274.15</course>
  <speed>0.01</speed>
  <fix>3d</fix>
</trkpt>
<trkpt lat="40.0728546" lon="-105.2308412">
  <ele>1595.55</ele>
  <time>2026-08-27T18:30:00Z</time>
  <course>309.89</course>
  <speed>0.0</speed>
  <fix>3d</fix>
</trkpt>
<trkpt lat="40.0728546" lon="-105.2308413">
  <ele>1595.44</ele>
  <time>2026-08-27T18:30:00Z</time>
  <course>267.15</course>
  <speed>0.02</speed>
  <fix>3d</fix>
</trkpt>
<trkpt lat="40.0728546" lon="-105.2308413">
  <ele>1595.56</ele>
  <time>2026-08-27T18:30:00Z</time>
  <course>310.87</course>
  <speed>0.01</speed>
  <fix>3d</fix>
</trkpt>
<trkpt lat="40.0728546" lon="-105.2308414">
  <ele>1595.44</ele>
  <time>2026-08-27T18:30:00Z</time>
  <course>262.97</course>
  <speed>0.02</speed>
  <fix>3d</fix>
</trkpt>
<trkpt lat="40.0728546" lon="-105.2308413">
  <ele>1595.56</ele>
  <time>2026-08-27T18:30:00Z</time>
  <course>312.18</course>
  <speed>0.01</speed>
  <fix>3d</fix>
</trkpt>
<trkpt lat="40.0728546" lon="-105.2308415">
  <ele>1595.44</ele>
  <time>2026-08-27T18:30:00Z</time>
  <course>260.8</course>
  <speed>0.02</speed>
  <fix>3d</fix>
</trkpt>
<trkpt lat="40.0728546" lon="-105.2308414">
  <ele>1595.56</ele>
  <time>2026-08-27T18:30:00Z</time>
  <course>313.67</course>
  <speed>0.01</speed>
  <fix>3d</fix>
</trkpt>
<trkpt lat="40.0728546" lon="-105.2308415">
  <ele>1595.44</ele>
  <time>2026-08-27T18:30:00Z</time>
  <course>259.02</course>
  <speed>0.02</speed>
  <fix>3d</fix>
</trkpt>
<trkpt lat="40.0728546" lon="-105.2308414">
  <ele>1595.56</ele>
  <time>2026-08-27T18:30:00Z</time>
  <course>315.19</course>
  <speed>0.0</speed>
  <fix>3d</fix>
</trkpt>
<trkpt lat="40.0728546" lon="-105.2308415">
  <ele>1595.44</ele>
  <time>2026-08-27T18:30:00Z</time>
  <course>257.36</course>
  <speed>0.02</speed>
  <fix>3d</fix>
</trkpt>
<trkpt lat="40.0728546" lon="-105.2308415">
  <ele>1595.56</ele>
  <time>2026-08-27T18:30:00Z</time>
  <course>316.64</course>
  <speed>0.0</speed>
  <fix>3d</fix>
</trkpt>
<trkpt lat="40.0728546" lon="-105.2308416">
  <ele>1595.44</ele>
  <time>2026-08-27T18:30:00Z</time>
  <course>256.32</course>
  <speed>0.02</speed>
  <fix>3d</fix>
</trkpt>
<trkpt lat="40.0728546" lon="-105.2308415">
  <ele>1595.56</ele>
  <time>2026-08-27T18:30:00Z</time>
  <course>317.85</course>
  <speed>0.0</speed>
  <fix>3d</fix>
</trkpt>
<trkpt lat="40.0728546" lon="-105.2308417">
  <ele>1595.44</ele>
  <time>2026-08-27T18:30:00Z</time>
  <course>256.21</course>
  <speed>0.02</speed>
  <fix>3d</fix>
</trkpt>
<trkpt lat="40.0728546" lon="-105.2308416">
  <ele>1595.56</ele>
  <time>2026-08-27T18:30:00Z</time>
  <course>318.71</course>
  <speed>0.0</speed>
  <fix>3d</fix>
</trkpt>
<trkpt lat="40.0728546" lon="-105.2308417">
  <ele>1595.44</ele>
  <time>2026-08-27T18:30:00Z</time>
  <course>259.42</course>
  <speed>0.02</speed>
  <fix>3d</fix>
</trkpt>
<trkpt lat="40.0728546" lon="-105.2308416">
  <ele>1595.56</ele>
  <time>2026-08-27T18:30:00Z</time>
  <course>319.11</course>
  <speed>0.0</speed>
  <fix>3d</fix>
</trkpt>
<trkpt lat="40.0728546" lon="-105.2308417">
  <ele>1595.44</ele>
  <time>2026-08-27T18:30:00Z</time>
  <course>266.4</course>
  <speed>0.01</speed>
  <fix>3d</fix>
</trkpt>
<trkpt lat="40.0728546" lon="-105.2308416">
  <ele>1595.56</ele>
  <time>2026-08-27T18:30:00Z</time>
  <course>319.07</course>
  <speed>0.0</speed>
  <fix>3d</fix>
</trkpt>
<trkpt lat="40.0728546" lon="-105.2308418">
  <ele>1595.44</ele>
  <time>2026-08-27T18:30:00Z</time>
  <course>274.05</course>
  <speed>0.01</speed>
  <fix>3d</fix>
</trkpt>
<trkpt lat="40.0728546" lon="-105.2308417">
  <ele>1595.56</ele>
  <time>2026-08-27T18:30:01Z</time>
  <course>318.55</course>
  <speed>0.0</speed>
  <fix>3d</fix>
</trkpt>
<trkpt lat="40.0728546" lon="-105.2308419">
  <ele>1595.44</ele>
  <time>2026-08-27T18:30:01Z</time>
  <course>282.51</course>
  <speed>0.01</speed>
  <fix>3d</fix>
</trkpt>
<trkpt lat="40.0728546" lon="-105.2308417">
  <ele>1595.55</ele>
  <time>2026-08-27T18:30:01Z</time>
  <course>317.55</course>
  <speed>0.0</speed>
  <fix>3d</fix>
</trkpt>
<trkpt lat="40.0728546" lon="-105.2308419">
  <ele>1595.44</ele>
  <time>2026-08-27T18:30:01Z</time>
  <course>290.94</course>
  <speed>0.01</speed>
  <fix>3d</fix>
</trkpt>
<trkpt lat="40.0728546" lon="-105.2308417">
  <ele>1595.55</ele>
  <time>2026-08-27T18:30:01Z</time>
  <course>316.27</course>
  <speed>0.01</speed>
  <fix>3d</fix>
</trkpt>
<trkpt lat="40.0728546" lon="-105.2308419">
  <ele>1595.44</ele>
  <time>2026-08-27T18:30:01Z</time>
  <course>296.52</course>
  <speed>0.01</speed>
  <fix>3d</fix>
</trkpt>
<trkpt lat="40.0728546" lon="-105.2308418">
  <ele>1595.56</ele>
  <time>2026-08-27T18:30:01Z</time>
  <course>314.78</course>
  <speed>0.01</speed>
  <fix>3d</fix>
</trkpt>
<trkpt lat="40.0728546" lon="-105.230842">
  <ele>1595.44</ele>
  <time>2026-08-27T18:30:01Z</time>
  <course>300.36</course>
  <speed>0.01</speed>
  <fix>3d</fix>
</trkpt>
<trkpt lat="40.0728546" lon="-105.2308418">
  <ele>1595.56</ele>
  <time>2026-08-27T18:30:01Z</time>
  <course>313.25</course>
  <speed>0.01</speed>
  <fix>3d</fix>
</trkpt>
<trkpt lat="40.0728546" lon="-105.230842">
  <ele>1595.44</ele>
  <time>2026-08-27T18:30:01Z</time>
  <course>302.19</course>
  <speed>0.01</speed>
  <fix>3d</fix>
</trkpt>
<trkpt lat="40.0728546" lon="-105.2308419">
  <ele>1595.56</ele>
  <time>2026-08-27T18:30:01Z</time>
  <course>311.83</course>
  <speed>0.01</speed>
  <fix>3d</fix>
</trkpt>
<trkpt lat="40.0728546" lon="-105.230842">
  <ele>1595.44</ele>
  <time>2026-08-27T18:30:01Z</time>
  <course>300.66</course>
  <speed>0.02</speed>
  <fix>3d</fix>
</trkpt>
<trkpt lat="40.0728546" lon="-105.2308419">
  <ele>1595.55</ele>
  <time>2026-08-27T18:30:01Z</time>
  <course>310.6</course>
  <speed>0.01</speed>
  <fix>3d</fix>
</trkpt>
<trkpt lat="40.0728547" lon="-105.230842">
  <ele>1595.44</ele>
  <time>2026-08-27T18:30:01Z</time>
  <course>296.97</course>
  <speed>0.02</speed>
  <fix>3d</fix>
</trkpt>
<trkpt lat="40.0728546" lon="-105.230842">
  <ele>1595.54</ele>
  <time>2026-08-27T18:30:01Z</time>
  <course>309.73</course>
  <speed>0.0</speed>
  <fix>3d</fix>
</trkpt>
<trkpt lat="40.0728547" lon="-105.2308421">
  <ele>1595.44</ele>
  <time>2026-08-27T18:30:01Z</time>
  <course>291.82</course>
  <speed>0.02</speed>
  <fix>3d</fix>
</trkpt>
<trkpt lat="40.0728547" lon="-105.230842">
  <ele>1595.54</ele>
  <time>2026-08-27T18:30:01Z</time>
  <course>309.28</course>
  <speed>0.01</speed>
  <fix>3d</fix>
</trkpt>
<trkpt lat="40.0728547" lon="-105.2308422">
  <ele>1595.44</ele>
  <time>2026-08-27T18:30:01Z</time>
  <course>285.56</course>
  <speed>0.02</speed>
  <fix>3d</fix>
</trkpt>
<trkpt lat="40.0728547" lon="-105.2308421">
  <ele>1595.54</ele>
  <time>2026-08-27T18:30:01Z</time>
  <course>309.22</course>
  <speed>0.01</speed>
  <fix>3d</fix>
</trkpt>
<trkpt lat="40.0728547" lon="-105.2308422">
  <ele>1595.44</ele>
  <time>2026-08-27T18:30:01Z</time>
  <course>279.66</course>
  <speed>0.02</speed>
  <fix>3d</fix>
</trkpt>
<trkpt lat="40.0728547" lon="-105.2308421">
  <ele>1595.54</ele>
  <time>2026-08-27T18:30:01Z</time>
  <course>309.21</course>
  <speed>0.01</speed>
  <fix>3d</fix>
</trkpt>
<trkpt lat="40.0728547" lon="-105.2308422">
  <ele>1595.44</ele>
  <time>2026-08-27T18:30:01Z</time>
  <course>276.45</course>
  <speed>0.02</speed>
  <fix>3d</fix>
</trkpt>
<trkpt lat="40.0728547" lon="-105.2308422">
  <ele>1595.54</ele>
  <time>2026-08-27T18:30:01Z</time>
  <course>309.22</course>
  <speed>0.01</speed>
  <fix>3d</fix>
</trkpt>
<trkpt lat="40.0728547" lon="-105.2308423">
  <ele>1595.45</ele>
  <time>2026-08-27T18:30:01Z</time>
  <course>275.82</course>
  <speed>0.02</speed>
  <fix>3d</fix>
</trkpt>
<trkpt lat="40.0728547" lon="-105.2308422">
  <ele>1595.54</ele>
  <time>2026-08-27T18:30:01Z</time>
  <course>309.23</course>
  <speed>0.01</speed>
  <fix>3d</fix>
</trkpt>
<trkpt lat="40.0728547" lon="-105.2308424">
  <ele>1595.45</ele>
  <time>2026-08-27T18:30:01Z</time>
  <course>276.55</course>
  <speed>0.02</speed>
  <fix>3d</fix>
</trkpt>
<trkpt lat="40.0728547" lon="-105.2308423">
  <ele>1595.55</ele>
  <time>2026-08-27T18:30:01Z</time>
  <course>309.22</course>
  <speed>0.01</speed>
  <fix>3d</fix>
</trkpt>
<trkpt lat="40.0728547" lon="-105.2308425">
  <ele>1595.46</ele>
  <time>2026-08-27T18:30:01Z</time>
  <course>277.34</course>
  <speed>0.03</speed>
  <fix>3d</fix>
</trkpt>
<trkpt lat="40.0728547" lon="-105.2308424">
  <ele>1595.55</ele>
  <time>2026-08-27T18:30:01Z</time>
  <course>309.26</course>
  <speed>0.01</speed>
  <fix>3d</fix>
</trkpt>
<trkpt lat="40.0728547" lon="-105.2308425">
  <ele>1595.46</ele>
  <time>2026-08-27T18:30:01Z</time>
  <course>277.31</course>
  <speed>0.03</speed>
  <fix>3d</fix>
</trkpt>
<trkpt lat="40.0728547" lon="-105.2308425">
  <ele>1595.56</ele>
  <time>2026-08-27T18:30:01Z</time>
  <course>309.27</course>
  <speed>0.01</speed>
  <fix>3d</fix>
</trkpt>
<trkpt lat="40.0728547" lon="-105.2308426">
  <ele>1595.47</ele>
  <time>2026-08-27T18:30:01Z</time>
  <course>277.79</course>
  <speed>0.03</speed>
  <fix>3d</fix>
</trkpt>
<trkpt lat="40.0728547" lon="-105.2308425">
  <ele>1595.56</ele>
  <time>2026-08-27T18:30:01Z</time>
  <course>309.28</course>
  <speed>0.01</speed>
  <fix>3d</fix>
</trkpt>
<trkpt lat="40.0728547" lon="-105.2308427">
  <ele>1595.47</ele>
  <time>2026-08-27T18:30:01Z</time>
  <course>278.73</course>
  <speed>0.03</speed>
  <fix>3d</fix>
</trkpt>
<trkpt lat="40.0728547" lon="-105.2308426">
  <ele>1595.56</ele>
  <time>2026-08-27T18:30:01Z</time>
  <course>309.28</course>
  <speed>0.02</speed>
  <fix>3d</fix>
</trkpt>
<trkpt lat="40.0728547" lon="-105.2308428">
  <ele>1595.48</ele>
  <time>2026-08-27T18:30:01Z</time>
  <course>279.45</course>
  <speed>0.03</speed>
  <fix>3d</fix>
</trkpt>
<trkpt lat="40.0728547" lon="-105.2308427">
  <ele>1595.56</ele>
  <time>2026-08-27T18:30:01Z</time>
  <course>309.28</course>
  <speed>0.02</speed>
  <fix>3d</fix>
</trkpt>
<trkpt lat="40.0728547" lon="-105.2308429">
  <ele>1595.48</ele>
  <time>2026-08-27T18:30:01Z</time>
  <course>280.2</course>
  <speed>0.03</speed>
  <fix>3d</fix>
</trkpt>
<trkpt lat="40.0728547" lon="-105.2308428">
  <ele>1595.56</ele>
  <time>2026-08-27T18:30:01Z</time>
  <course>309.28</course>
  <speed>0.02</speed>
  <fix>3d</fix>
</trkpt>
<trkpt lat="40.0728547" lon="-105.2308429">
  <ele>1595.48</ele>
  <time>2026-08-27T18:30:01Z</time>
  <course>280.94</course>
  <speed>0.03</speed>
  <fix>3d</fix>
</trkpt>
<trkpt lat="40.0728547" lon="-105.2308429">
  <ele>1595.56</ele>
  <time>2026-08-27T18:30:01Z</time>
  <course>309.28</course>
  <speed>0.02</speed>
  <fix>3d</fix>
</trkpt>
<trkpt lat="40.0728547" lon="-105.230843">
  <ele>1595.48</ele>
  <time>2026-08-27T18:30:01Z</time>
  <course>281.67</course>
  <speed>0.03</speed>
  <fix>3d</fix>
</trkpt>
<trkpt lat="40.0728547" lon="-105.230843">
  <ele>1595.57</ele>
  <time>2026-08-27T18:30:01Z</time>
  <course>309.28</course>
  <speed>0.02</speed>
  <fix>3d</fix>
</trkpt>
<trkpt lat="40.0728547" lon="-105.2308431">
  <ele>1595.48</ele>
  <time>2026-08-27T18:30:01Z</time>
  <course>282.35</course>
  <speed>0.04</speed>
  <fix>3d</fix>
</trkpt>
<trkpt lat="40.0728547" lon="-105.2308431">
  <ele>1595.57</ele>
  <time>2026-08-27T18:30:01Z</time>
  <course>309.28</course>
  <speed>0.02</speed>
  <fix>3d</fix>
</trkpt>
<trkpt lat="40.0728547" lon="-105.2308432">
  <ele>1595.48</ele>
  <time>2026-08-27T18:30:01Z</time>
  <course>282.99</course>
  <speed>0.04</speed>
  <fix>3d</fix>
</trkpt>
<trkpt lat="40.0728548" lon="-105.2308432">
  <ele>1595.57</ele>
  <time>2026-08-27T18:30:01Z</time>
  <course>309.28</course>
  <speed>0.02</speed>
  <fix>3d</fix>
</trkpt>
<trkpt lat="40.0728548" lon="-105.2308433">
  <ele>1595.48</ele>
  <time>2026-08-27T18:30:01Z</time>
  <course>283.54</course>
  <speed>0.04</speed>
  <fix>3d</fix>
</trkpt>
<trkpt lat="40.0728548" lon="-105.2308433">
  <ele>1595.57</ele>
  <time>2026-08-27T18:30:01Z</time>
  <course>309.28</course>
  <speed>0.022360679774997897</speed>
  <fix>3d</fix>
</trkpt>
<trkpt lat="40.0728548" lon="-105.2308434">
  <ele>1595.48</ele>
  <time>2026-08-27T18:30:01Z</time>
  <course>284.12</course>
  <speed>0.04</speed>
  <fix>3d</fix>
</trkpt>
<trkpt lat="40.0728548" lon="-105.2308434">
  <ele>1595.58</ele>
  <time>2026-08-27T18:30:01Z</time>
  <course>309.27</course>
  <speed>0.022360679774997897</speed>
  <fix>3d</fix>
</trkpt>
<trkpt lat="40.0728548" lon="-105.2308435">
  <ele>1595.48</ele>
  <time>2026-08-27T18:30:01Z</time>
  <course>284.65</course>
  <speed>0.04</speed>
  <fix>3d</fix>
</trkpt>
<trkpt lat="40.0728548" lon="-105.2308435">
  <ele>1595.58</ele>
  <time>2026-08-27T18:30:01Z</time>
  <course>306.84</course>
  <speed>0.022360679774997897</speed>
  <fix>3d</fix>
</trkpt>
<trkpt lat="40.0728548" lon="-105.2308436">
  <ele>1595.48</ele>
  <time>2026-08-27T18:30:01Z</time>
  <course>294.91</course>
  <speed>0.04</speed>
  <fix>3d</fix>
</trkpt>
<trkpt lat="40.0728548" lon="-105.2308436">
  <ele>1595.58</ele>
  <time>2026-08-27T18:30:01Z</time>
  <course>307.81</course>
  <speed>0.03</speed>
  <fix>3d</fix>
</trkpt>
<trkpt lat="40.0728549" lon="-105.2308437">
  <ele>1595.48</ele>
  <time>2026-08-27T18:30:01Z</time>
  <course>285.59</course>
  <speed>0.04</speed>
  <fix>3d</fix>
</trkpt>
<trkpt lat="40.0728548" lon="-105.2308437">
  <ele>1595.58</ele>
  <time>2026-08-27T18:30:01Z</time>
  <course>312.11</course>
  <speed>0.01</speed>
  <fix>3d</fix>
</trkpt>
<trkpt lat="40.0728549" lon="-105.2308439">
  <ele>1595.48</ele>
  <time>2026-08-27T18:30:01Z</time>
  <course>267.56</course>
  <speed>0.05</speed>
  <fix>3d</fix>
</trkpt>
<trkpt lat="40.0728549" lon="-105.2308437">
  <ele>1595.57</ele>
  <time>2026-08-27T18:30:01Z</time>
  <course>307.96</course>
  <speed>0.02</speed>
  <fix>3d</fix>
</trkpt>
<trkpt lat="40.0728549" lon="-105.2308439">
  <ele>1595.47</ele>
  <time>2026-08-27T18:30:01Z</time>
  <course>288.44</course>
  <speed>0.03</speed>
  <fix>3d</fix>
</trkpt>
<trkpt lat="40.0728549" lon="-105.2308438">
  <ele>1595.57</ele>
  <time>2026-08-27T18:30:01Z</time>
  <course>308.08</course>
  <speed>0.022360679774997897</speed>
  <fix>3d</fix>
</trkpt>
<trkpt lat="40.0728549" lon="-105.230844">
  <ele>1595.47</ele>
  <time>2026-08-27T18:30:01Z</time>
  <course>289.16</course>
  <speed>0.02</speed>
  <fix>3d</fix>
</trkpt>
<trkpt lat="40.0728548" lon="-105.2308439">
  <ele>1595.57</ele>
  <time>2026-08-27T18:30:01Z</time>
  <course>311.9</course>
  <speed>0.0</speed>
  <fix>3d</fix>
</trkpt>
<trkpt lat="40.0728549" lon="-105.2308441">
  <ele>1595.47</ele>
  <time>2026-08-27T18:30:01Z</time>
  <course>261.6</course>
  <speed>0.03</speed>
  <fix>3d</fix>
</trkpt>
<trkpt lat="40.0728549" lon="-105.2308439">
  <ele>1595.56</ele>
  <time>2026-08-27T18:30:01Z</time>
  <course>307.47</course>
  <speed>0.01</speed>
  <fix>3d</fix>
</trkpt>
<trkpt lat="40.0728549" lon="-105.2308441">
  <ele>1595.47</ele>
  <time>2026-08-27T18:30:01Z</time>
  <course>290.69</course>
  <speed>0.02</speed>
  <fix>3d</fix>
</trkpt>
<trkpt lat="40.0728549" lon="-105.230844">
  <ele>1595.56</ele>
  <time>2026-08-27T18:30:01Z</time>
  <course>309.01</course>
  <speed>0.022360679774997897</speed>
  <fix>3d</fix>
</trkpt>
<trkpt lat="40.0728549" lon="-105.2308442">
  <ele>1595.46</ele>
  <time>2026-08-27T18:30:01Z</time>
  <course>280.46</course>
  <speed>0.02</speed>
  <fix>3d</fix>
</trkpt>
<trkpt lat="40.0728549" lon="-105.2308441">
  <ele>1595.56</ele>
  <time>2026-08-27T18:30:01Z</time>
  <course>311.33</course>
  <speed>0.01</speed>
  <fix>3d</fix>
</trkpt>
<trkpt lat="40.0728549" lon="-105.2308443">
  <ele>1595.46</ele>
  <time>2026-08-27T18:30:01Z</time>
  <course>258.61</course>
  <speed>0.03</speed>
  <fix>3d</fix>
</trkpt>
<trkpt lat="40.0728549" lon="-105.2308441">
  <ele>1595.56</ele>
  <time>2026-08-27T18:30:01Z</time>
  <course>306.89</course>
  <speed>0.0</speed>
  <fix>3d</fix>
</trkpt>
<trkpt lat="40.0728549" lon="-105.2308444">
  <ele>1595.46</ele>
  <time>2026-08-27T18:30:01Z</time>
  <course>294.24</course>
  <speed>0.01</speed>
  <fix>3d</fix>
</trkpt>
<trkpt lat="40.0728549" lon="-105.2308442">
  <ele>1595.56</ele>
  <time>2026-08-27T18:30:01Z</time>
  <course>310.62</course>
  <speed>0.01414213562373095</speed>
  <fix>3d</fix>
</trkpt>
<trkpt lat="40.0728549" lon="-105.2308444">
  <ele>1595.46</ele>
  <time>2026-08-27T18:30:01Z</time>
  <course>264.76</course>
  <speed>0.02</speed>
  <fix>3d</fix>
</trkpt>
<trkpt lat="40.0728549" lon="-105.2308443">
  <ele>1595.56</ele>
  <time>2026-08-27T18:30:01Z</time>
  <course>309.58</course>
  <speed>0.022360679774997897</speed>
  <fix>3d</fix>
</trkpt>
<trkpt lat="40.0728549" lon="-105.2308444">
  <ele>1595.46</ele>
  <time>2026-08-27T18:30:01Z</time>
  <course>262.84</course>
  <speed>0.02</speed>
  <fix>3d</fix>
</trkpt>
<trkpt lat="40.0728549" lon="-105.2308443">
  <ele>1595.56</ele>
  <time>2026-08-27T18:30:01Z</time>
  <course>307.58</course>
  <speed>0.01414213562373095</speed>
  <fix>3d</fix>
</trkpt>
<trkpt lat="40.0728549" lon="-105.2308444">
  <ele>1595.46</ele>
  <time>2026-08-27T18:30:01Z</time>
  <course>286.05</course>
  <speed>0.01</speed>
  <fix>3d</fix>
</trkpt>
<trkpt lat="40.0728549" lon="-105.2308444">
  <ele>1595.56</ele>
  <time>2026-08-27T18:30:01Z</time>
  <course>311.51</course>
  <speed>0.0</speed>
  <fix>3d</fix>
</trkpt>
<trkpt lat="40.0728549" lon="-105.2308445">
  <ele>1595.46</ele>
  <time>2026-08-27T18:30:01Z</time>
  <course>255.61</course>
  <speed>0.02</speed>
  <fix>3d</fix>
</trkpt>
<trkpt lat="40.0728549" lon="-105.2308444">
  <ele>1595.56</ele>
  <time>2026-08-27T18:30:01Z</time>
  <course>307.31</course>
  <speed>0.0</speed>
  <fix>3d</fix>
</trkpt>
<trkpt lat="40.0728549" lon="-105.2308446">
  <ele>1595.46</ele>
  <time>2026-08-27T18:30:01Z</time>
  <course>277.15</course>
  <speed>0.01</speed>
  <fix>3d</fix>
</trkpt>
<trkpt lat="40.0728549" lon="-105.2308445">
  <ele>1595.56</ele>
  <time>2026-08-27T18:30:01Z</time>
  <course>310.33</course>
  <speed>0.01414213562373095</speed>
  <fix>3d</fix>
</trkpt>
<trkpt lat="40.0728549" lon="-105.2308446">
  <ele>1595.46</ele>
  <time>2026-08-27T18:30:01Z</time>
  <course>264.58</course>
  <speed>0.02</speed>
  <fix>3d</fix>
</trkpt>
<trkpt lat="40.0728549" lon="-105.2308445">
  <ele>1595.56</ele>
  <time>2026-08-27T18:30:01Z</time>
  <course>309.25</course>
  <speed>0.01414213562373095</speed>
  <fix>3d</fix>
</trkpt>
<trkpt lat="40.0728549" lon="-105.2308447">
  <ele>1595.47</ele>
  <time>2026-08-27T18:30:01Z</time>
  <course>260.54</course>
  <speed>0.02</speed>
  <fix>3d</fix>
</trkpt>
<trkpt lat="40.0728549" lon="-105.2308446">
  <ele>1595.56</ele>
  <time>2026-08-27T18:30:01Z</time>
  <course>308.36</course>
  <speed>0.01414213562373095</speed>
  <fix>3d</fix>
</trkpt>
<trkpt lat="40.0728549" lon="-105.2308448">
  <ele>1595.47</ele>
  <time>2026-08-27T18:30:01Z</time>
  <course>274.26</course>
  <speed>0.02</speed>
  <fix>3d</fix>
</trkpt>
<trkpt lat="40.0728549" lon="-105.2308446">
  <ele>1595.56</ele>
  <time>2026-08-27T18:30:01Z</time>
  <course>310.84</course>
  <speed>0.01</speed>
  <fix>3d</fix>
</trkpt>
<trkpt lat="40.0728549" lon="-105.2308448">
  <ele>1595.47</ele>
  <time>2026-08-27T18:30:01Z</time>
  <course>256.85</course>
  <speed>0.02</speed>
  <fix>3d</fix>
</trkpt>
<trkpt lat="40.0728549" lon="-105.2308447">
  <ele>1595.57</ele>
  <time>2026-08-27T18:30:01Z</time>
  <course>307.42</course>
  <speed>0.01</speed>
  <fix>3d</fix>
</trkpt>
<trkpt lat="40.0728549" lon="-105.2308448">
  <ele>1595.47</ele>
  <time>2026-08-27T18:30:01Z</time>
  <course>273.36</course>
  <speed>0.02</speed>
  <fix>3d</fix>
</trkpt>
<trkpt lat="40.0728549" lon="-105.2308447">
  <ele>1595.57</ele>
  <time>2026-08-27T18:30:01Z</time>
  <course>311.22</course>
  <speed>0.0</speed>
  <fix>3d</fix>
</trkpt>
<trkpt lat="40.0728549" lon="-105.2308449">
  <ele>1595.47</ele>
  <time>2026-08-27T18:30:01Z</time>
  <course>259.31</course>
  <speed>0.02</speed>
  <fix>3d</fix>
</trkpt>
<trkpt lat="40.0728549" lon="-105.2308448">
  <ele>1595.56</ele>
  <time>2026-08-27T18:30:01Z</time>
  <course>307.53</course>
  <speed>0.0</speed>
  <fix>3d</fix>
</trkpt>
<trkpt lat="40.0728549" lon="-105.230845">
  <ele>1595.47</ele>
  <time>2026-08-27T18:30:01Z</time>
  <course>267.84</course>
  <speed>0.02</speed>
  <fix>3d</fix>
</trkpt>
<trkpt lat="40.0728549" lon="-105.2308448">
  <ele>1595.56</ele>
  <time>2026-08-27T18:30:01Z</time>
  <course>310.84</course>
  <speed>0.01</speed>
  <fix>3d</fix>
</trkpt>
<trkpt lat="40.0728549" lon="-105.230845">
  <ele>1595.47</ele>
  <time>2026-08-27T18:30:01Z</time>
  <course>262.33</course>
  <speed>0.02</speed>
  <fix>3d</fix>
</trkpt>
<trkpt lat="40.0728549" lon="-105.2308449">
  <ele>1595.56</ele>
  <time>2026-08-27T18:30:01Z</time>
  <course>307.95</course>
  <speed>0.01</speed>
  <fix>3d</fix>
</trkpt>
<trkpt lat="40.0728549" lon="-105.2308451">
  <ele>1595.46</ele>
  <time>2026-08-27T18:30:01Z</time>
  <course>264.42</course>
  <speed>0.02</speed>
  <fix>3d</fix>
</trkpt>
<trkpt lat="40.0728549" lon="-105.230845">
  <ele>1595.55</ele>
  <time>2026-08-27T18:30:01Z</time>
  <course>310.42</course>
  <speed>0.01414213562373095</speed>
  <fix>3d</fix>
</trkpt>
<trkpt lat="40.0728549" lon="-105.2308451">
  <ele>1595.46</ele>
  <time>2026-08-27T18:30:01Z</time>
  <course>264.27</course>
  <speed>0.02</speed>
  <fix>3d</fix>
</trkpt>
<trkpt lat="40.0728549" lon="-105.230845">
  <ele>1595.55</ele>
  <time>2026-08-27T18:30:01Z</time>
  <course>308.23</course>
  <speed>0.01</speed>
  <fix>3d</fix>
</trkpt>
<trkpt lat="40.0728549" lon="-105.2308452">
  <ele>1595.46</ele>
  <time>2026-08-27T18:30:01Z</time>
  <course>264.31</course>
  <speed>0.02</speed>
  <fix>3d</fix>
</trkpt>
<trkpt lat="40.0728549" lon="-105.2308451">
  <ele>1595.54</ele>
  <time>2026-08-27T18:30:01Z</time>
  <course>310.21</course>
  <speed>0.01414213562373095</speed>
  <fix>3d</fix>
</trkpt>
<trkpt lat="40.0728549" lon="-105.2308453">
  <ele>1595.46</ele>
  <time>2026-08-27T18:30:01Z</time>
  <course>265.52</course>
  <speed>0.02</speed>
  <fix>3d</fix>
</trkpt>
<trkpt lat="40.0728549" lon="-105.2308451">
  <ele>1595.54</ele>
  <time>2026-08-27T18:30:01Z</time>
  <course>308.24</course>
  <speed>0.01</speed>
  <fix>3d</fix>
</trkpt>
<trkpt lat="40.0728549" lon="-105.2308453">
  <ele>1595.46</ele>
  <time>2026-08-27T18:30:01Z</time>
  <course>265.11</course>
  <speed>0.02</speed>
  <fix>3d</fix>
</trkpt>
<trkpt lat="40.0728549" lon="-105.2308452">
  <ele>1595.54</ele>
  <time>2026-08-27T18:30:01Z</time>
  <course>310.26</course>
  <speed>0.01414213562373095</speed>
  <fix>3d</fix>
</trkpt>
<trkpt lat="40.0728549" lon="-105.2308454">
  <ele>1595.47</ele>
  <time>2026-08-27T18:30:01Z</time>
  <course>264.61</course>
  <speed>0.02</speed>
  <fix>3d</fix>
</trkpt>
<trkpt lat="40.0728549" lon="-105.2308452">
  <ele>1595.54</ele>
  <time>2026-08-27T18:30:01Z</time>
  <course>308.05</course>
  <speed>0.01</speed>
  <fix>3d</fix>
</trkpt>
<trkpt lat="40.0728549" lon="-105.2308455">
  <ele>1595.47</ele>
  <time>2026-08-27T18:30:01Z</time>
  <course>263.41</course>
  <speed>0.02</speed>
  <fix>3d</fix>
</trkpt>
<trkpt lat="40.0728549" lon="-105.2308453">
  <ele>1595.55</ele>
  <time>2026-08-27T18:30:01Z</time>
  <course>310.52</course>
  <speed>0.01</speed>
  <fix>3d</fix>
</trkpt>
<trkpt lat="40.0728549" lon="-105.2308455">
  <ele>1595.47</ele>
  <time>2026-08-27T18:30:01Z</time>
  <course>263.19</course>
  <speed>0.02</speed>
  <fix>3d</fix>
</trkpt>
<trkpt lat="40.0728549" lon="-105.2308454">
  <ele>1595.55</ele>
  <time>2026-08-27T18:30:01Z</time>
  <course>307.86</course>
  <speed>0.0</speed>
  <fix>3d</fix>
</trkpt>
<trkpt lat="40.0728549" lon="-105.2308456">
  <ele>1595.48</ele>
  <time>2026-08-27T18:30:01Z</time>
  <course>260.69</course>
  <speed>0.02</speed>
  <fix>3d</fix>
</trkpt>
<trkpt lat="40.0728549" lon="-105.2308454">
  <ele>1595.55</ele>
  <time>2026-08-27T18:30:01Z</time>
  <course>310.63</course>
  <speed>0.0</speed>
  <fix>3d</fix>
</trkpt>
<trkpt lat="40.0728549" lon="-105.2308456">
  <ele>1595.49</ele>
  <time>2026-08-27T18:30:01Z</time>
  <course>264.65</course>
  <speed>0.02</speed>
  <fix>3d</fix>
</trkpt>
<trkpt lat="40.0728549" lon="-105.2308455">
  <ele>1595.55</ele>
  <time>2026-08-27T18:30:01Z</time>
  <course>308.02</course>
  <speed>0.01</speed>
  <fix>3d</fix>
</trkpt>
<trkpt lat="40.0728549" lon="-105.2308456">
  <ele>1595.49</ele>
  <time>2026-08-27T18:30:01Z</time>
  <course>257.99</course>
  <speed>0.02</speed>
  <fix>3d</fix>
</trkpt>
<trkpt lat="40.0728549" lon="-105.2308456">
  <ele>1595.55</ele>
  <time>2026-08-27T18:30:01Z</time>
  <course>310.12</course>
  <speed>0.01</speed>
  <fix>3d</fix>
</trkpt>
<trkpt lat="40.0728549" lon="-105.2308457">
  <ele>1595.49</ele>
  <time>2026-08-27T18:30:01Z</time>
  <course>269.17</course>
  <speed>0.02</speed>
  <fix>3d</fix>
</trkpt>
<trkpt lat="40.0728549" lon="-105.2308456">
  <ele>1595.55</ele>
  <time>2026-08-27T18:30:01Z</time>
  <course>309.0</course>
  <speed>0.01414213562373095</speed>
  <fix>3d</fix>
</trkpt>
<trkpt lat="40.0728549" lon="-105.2308458">
  <ele>1595.5</ele>
  <time>2026-08-27T18:30:01Z</time>
  <course>256.17</course>
  <speed>0.03</speed>
  <fix>3d</fix>
</trkpt>
<trkpt lat="40.0728549" lon="-105.2308457">
  <ele>1595.56</ele>
  <time>2026-08-27T18:30:01Z</time>
  <course>308.83</course>
  <speed>0.01</speed>
  <fix>3d</fix>
</trkpt>
<trkpt lat="40.0728549" lon="-105.2308458">
  <ele>1595.5</ele>
  <time>2026-08-27T18:30:01Z</time>
  <course>269.22</course>
  <speed>0.02</speed>
  <fix>3d</fix>
</trkpt>
<trkpt lat="40.0728549" lon="-105.2308457">
  <ele>1595.56</ele>
  <time>2026-08-27T18:30:01Z</time>
  <course>310.26</course>
  <speed>0.01</speed>
  <fix>3d</fix>
</trkpt>
<trkpt lat="40.0728549" lon="-105.2308459">
  <ele>1595.5</ele>
  <time>2026-08-27T18:30:01Z</time>
  <course>259.86</course>
  <speed>0.02</speed>
  <fix>3d</fix>
</trkpt>
<trkpt lat="40.0728549" lon="-105.2308458">
  <ele>1595.57</ele>
  <time>2026-08-27T18:30:01Z</time>
  <course>308.12</course>
  <speed>0.0</speed>
  <fix>3d</fix>
</trkpt>
<trkpt lat="40.0728549" lon="-105.230846">
  <ele>1595.51</ele>
  <time>2026-08-27T18:30:01Z</time>
  <course>259.67</course>
  <speed>0.02</speed>
  <fix>3d</fix>
</trkpt>
<trkpt lat="40.0728549" lon="-105.2308458">
  <ele>1595.57</ele>
  <time>2026-08-27T18:30:01Z</time>
  <course>310.03</course>
  <speed>0.01</speed>
  <fix>3d</fix>
</trkpt>
<trkpt lat="40.0728549" lon="-105.230846">
  <ele>1595.51</ele>
  <time>2026-08-27T18:30:01Z</time>
  <course>273.4</course>
  <speed>0.02</speed>
  <fix>3d</fix>
</trkpt>
<trkpt lat="40.0728549" lon="-105.2308459">
  <ele>1595.57</ele>
  <time>2026-08-27T18:30:01Z</time>
  <course>309.37</course>
  <speed>0.01414213562373095</speed>
  <fix>3d</fix>
</trkpt>
<trkpt lat="40.0728549" lon="-105.2308461">
  <ele>1595.51</ele>
  <time>2026-08-27T18:30:01Z</time>
  <course>254.2</course>
  <speed>0.03</speed>
  <fix>3d</fix>
</trkpt>
<trkpt lat="40.0728549" lon="-105.230846">
  <ele>1595.56</ele>
  <time>2026-08-27T18:30:01Z</time>
  <course>308.42</course>
  <speed>0.0</speed>
  <fix>3d</fix>
</trkpt>
<trkpt lat="40.0728549" lon="-105.2308462">
  <ele>1595.51</ele>
  <time>2026-08-27T18:30:01Z</time>
  <course>269.2</course>
  <speed>0.02</speed>
  <fix>3d</fix>
</trkpt>
<trkpt lat="40.0728549" lon="-105.230846">
  <ele>1595.56</ele>
  <time>2026-08-27T18:30:01Z</time>
  <course>310.24</course>
  <speed>0.0</speed>
  <fix>3d</fix>
</trkpt>
<trkpt lat="40.0728549" lon="-105.2308463">
  <ele>1595.51</ele>
  <time>2026-08-27T18:30:01Z</time>
  <course>268.41</course>
  <speed>0.02</speed>
  <fix>3d</fix>
</trkpt>
<trkpt lat="40.0728549" lon="-105.2308461">
  <ele>1595.56</ele>
  <time>2026-08-27T18:30:01Z</time>
  <course>309.05</course>
  <speed>0.01414213562373095</speed>
  <fix>3d</fix>
</trkpt>
<trkpt lat="40.0728548" lon="-105.2308463">
  <ele>1595.51</ele>
  <time>2026-08-27T18:30:01Z</time>
  <course>253.45</course>
  <speed>0.03</speed>
  <fix>3d</fix>
</trkpt>
<trkpt lat="40.0728549" lon="-105.2308462">
  <ele>1595.57</ele>
  <time>2026-08-27T18:30:01Z</time>
  <course>308.55</course>
  <speed>0.01</speed>
  <fix>3d</fix>
</trkpt>
<trkpt lat="40.0728548" lon="-105.2308464">
  <ele>1595.51</ele>
  <time>2026-08-27T18:30:01Z</time>
  <course>274.81</course>
  <speed>0.02</speed>
  <fix>3d</fix>
</trkpt>
<trkpt lat="40.0728549" lon="-105.2308462">
  <ele>1595.57</ele>
  <time>2026-08-27T18:30:01Z</time>
  <course>310.1</course>
  <speed>0.0</speed>
  <fix>3d</fix>
</trkpt>
<trkpt lat="40.0728548" lon="-105.2308465">
  <ele>1595.51</ele>
  <time>2026-08-27T18:30:01Z</time>
  <course>269.87</course>
  <speed>0.02</speed>
  <fix>3d</fix>
</trkpt>
<trkpt lat="40.0728549" lon="-105.2308463">
  <ele>1595.57</ele>
  <time>2026-08-27T18:30:01Z</time>
  <course>309.43</course>
  <speed>0.01414213562373095</speed>
  <fix>3d</fix>
</trkpt>
<trkpt lat="40.0728548" lon="-105.2308465">
  <ele>1595.51</ele>
  <time>2026-08-27T18:30:01Z</time>
  <course>252.81</course>
  <speed>0.03</speed>
  <fix>3d</fix>
</trkpt>
<trkpt lat="40.0728549" lon="-105.2308464">
  <ele>1595.57</ele>
  <time>2026-08-27T18:30:01Z</time>
  <course>308.43</course>
  <speed>0.0</speed>
  <fix>3d</fix>
</trkpt>
<trkpt lat="40.0728548" lon="-105.2308466">
  <ele>1595.51</ele>
  <time>2026-08-27T18:30:01Z</time>
  <course>270.19</course>
  <speed>0.02</speed>
  <fix>3d</fix>
</trkpt>
<trkpt lat="40.0728549" lon="-105.2308465">
  <ele>1595.56</ele>
  <time>2026-08-27T18:30:01Z</time>
  <course>309.52</course>
  <speed>0.01</speed>
  <fix>3d</fix>
</trkpt>
<trkpt lat="40.0728548" lon="-105.2308467">
  <ele>1595.51</ele>
  <time>2026-08-27T18:30:01Z</time>
  <course>282.64</course>
  <speed>0.02</speed>
  <fix>3d</fix>
</trkpt>
<trkpt lat="40.0728549" lon="-105.2308465">
  <ele>1595.56</ele>
  <time>2026-08-27T18:30:01Z</time>
  <course>310.03</course>
  <speed>0.01</speed>
  <fix>3d</fix>
</trkpt>
<trkpt lat="40.0728548" lon="-105.2308467">
  <ele>1595.51</ele>
  <time>2026-08-27T18:30:01Z</time>
  <course>256.98</course>
  <speed>0.03</speed>
  <fix>3d</fix>
</trkpt>
<trkpt lat="40.0728549" lon="-105.2308466">
  <ele>1595.56</ele>
  <time>2026-08-27T18:30:01Z</time>
  <course>308.99</course>
  <speed>0.01414213562373095</speed>
  <fix>3d</fix>
</trkpt>
<trkpt lat="40.0728548" lon="-105.2308468">
  <ele>1595.51</ele>
  <time>2026-08-27T18:30:01Z</time>
  <course>256.59</course>
  <speed>0.03</speed>
  <fix>3d</fix>
</trkpt>
<trkpt lat="40.0728549" lon="-105.2308467">
  <ele>1595.57</ele>
  <time>2026-08-27T18:30:01Z</time>
  <course>308.56</course>
  <speed>0.0</speed>
  <fix>3d</fix>
</trkpt>
<trkpt lat="40.0728548" lon="-105.2308468">
  <ele>1595.5</ele>
  <time>2026-08-27T18:30:01Z</time>
  <course>283.01</course>
  <speed>0.02</speed>
  <fix>3d</fix>
</trkpt>
<trkpt lat="40.0728549" lon="-105.2308467">
  <ele>1595.57</ele>
  <time>2026-08-27T18:30:01Z</time>
  <course>309.42</course>
  <speed>0.01</speed>
  <fix>3d</fix>
</trkpt>
<trkpt lat="40.0728548" lon="-105.2308469">
  <ele>1595.5</ele>
  <time>2026-08-27T18:30:01Z</time>
  <course>284.82</course>
  <speed>0.02</speed>
  <fix>3d</fix>
</trkpt>
<trkpt lat="40.0728549" lon="-105.2308468">
  <ele>1595.57</ele>
  <time>2026-08-27T18:30:01Z</time>
  <course>310.0</course>
  <speed>0.0</speed>
  <fix>3d</fix>
</trkpt>
<trkpt lat="40.0728548" lon="-105.230847">
  <ele>1595.5</ele>
  <time>2026-08-27T18:30:01Z</time>
  <course>259.37</course>
  <speed>0.03</speed>
  <fix>3d</fix>
</trkpt>
<trkpt lat="40.0728549" lon="-105.2308468">
  <ele>1595.57</ele>
  <time>2026-08-27T18:30:01Z</time>
  <course>309.51</course>
  <speed>0.01</speed>
  <fix>3d</fix>
</trkpt>
<trkpt lat="40.0728548" lon="-105.230847">
  <ele>1595.5</ele>
  <time>2026-08-27T18:30:01Z</time>
  <course>254.32</course>
  <speed>0.03</speed>
  <fix>3d</fix>
</trkpt>
<trkpt lat="40.0728549" lon="-105.2308469">
  <ele>1595.57</ele>
  <time>2026-08-27T18:30:01Z</time>
  <course>308.82</course>
  <speed>0.01</speed>
  <fix>3d</fix>
</trkpt>
<trkpt lat="40.0728548" lon="-105.2308471">
  <ele>1595.5</ele>
  <time>2026-08-27T18:30:01Z</time>
  <course>269.06</course>
  <speed>0.02</speed>
  <fix>3d</fix>
</trkpt>
<trkpt lat="40.0728549" lon="-105.230847">
  <ele>1595.57</ele>
  <time>2026-08-27T18:30:01Z</time>
  <course>308.7</course>
  <speed>0.0</speed>
  <fix>3d</fix>
</trkpt>
<trkpt lat="40.0728548" lon="-105.2308472">
  <ele>1595.5</ele>
  <time>2026-08-27T18:30:01Z</time>
  <course>293.07</course>
  <speed>0.02</speed>
  <fix>3d</fix>
</trkpt>
<trkpt lat="40.0728549" lon="-105.230847">
  <ele>1595.57</ele>
  <time>2026-08-27T18:30:01Z</time>
  <course>309.15</course>
  <speed>0.01</speed>
  <fix>3d</fix>
</trkpt>
<trkpt lat="40.0728548" lon="-105.2308472">
  <ele>1595.5</ele>
  <time>2026-08-27T18:30:01Z</time>
  <course>290.14</course>
  <speed>0.02</speed>
  <fix>3d</fix>
</trkpt>
<trkpt lat="40.0728549" lon="-105.2308471">
  <ele>1595.57</ele>
  <time>2026-08-27T18:30:01Z</time>
  <course>309.67</course>
  <speed>0.01</speed>
  <fix>3d</fix>
</trkpt>
<trkpt lat="40.0728548" lon="-105.2308473">
  <ele>1595.49</ele>
  <time>2026-08-27T18:30:01Z</time>
  <course>269.61</course>
  <speed>0.02</speed>
  <fix>3d</fix>
</trkpt>
<trkpt lat="40.0728549" lon="-105.2308472">
  <ele>1595.57</ele>
  <time>2026-08-27T18:30:01Z</time>
  <course>309.85</course>
  <speed>0.0</speed>
  <fix>3d</fix>
</trkpt>
<trkpt lat="40.0728548" lon="-105.2308474">
  <ele>1595.49</ele>
  <time>2026-08-27T18:30:01Z</time>
  <course>257.96</course>
  <speed>0.03</speed>
  <fix>3d</fix>
</trkpt>
<trkpt lat="40.0728549" lon="-105.2308472">
  <ele>1595.57</ele>
  <time>2026-08-27T18:30:01Z</time>
  <course>309.72</course>
  <speed>0.01</speed>
  <fix>3d</fix>
</trkpt>
<trkpt lat="40.0728548" lon="-105.2308475">
  <ele>1595.49</ele>
  <time>2026-08-27T18:30:01Z</time>
  <course>256.1</course>
  <speed>0.03</speed>
  <fix>3d</fix>
</trkpt>
<trkpt lat="40.0728549" lon="-105.2308473">
  <ele>1595.56</ele>
  <time>2026-08-27T18:30:01Z</time>
  <course>309.45</course>
  <speed>0.01</speed>
  <fix>3d</fix>
</trkpt>
<trkpt lat="40.0728548" lon="-105.2308475">
  <ele>1595.49</ele>
  <time>2026-08-27T18:30:01Z</time>
  <course>260.6</course>
  <speed>0.03</speed>
  <fix>3d</fix>
</trkpt>
<trkpt lat="40.0728548" lon="-105.2308474">
  <ele>1595.56</ele>
  <time>2026-08-27T18:30:01Z</time>
  <course>309.16</course>
  <speed>0.01</speed>
  <fix>3d</fix>
</trkpt>
<trkpt lat="40.0728548" lon="-105.2308476">
  <ele>1595.49</ele>
  <time>2026-08-27T18:30:01Z</time>
  <course>269.48</course>
  <speed>0.03</speed>
  <fix>3d</fix>
</trkpt>
<trkpt lat="40.0728548" lon="-105.2308475">
  <ele>1595.56</ele>
  <time>2026-08-27T18:30:01Z</time>
  <course>308.99</course>
  <speed>0.01</speed>
  <fix>3d</fix>
</trkpt>
<trkpt lat="40.0728548" lon="-105.2308477">
  <ele>1595.49</ele>
  <time>2026-08-27T18:30:01Z</time>
  <course>280.05</course>
  <speed>0.02</speed>
  <fix>3d</fix>
</trkpt>
<trkpt lat="40.0728548" lon="-105.2308476">
  <ele>1595.56</ele>
  <time>2026-08-27T18:30:01Z</time>
  <course>308.88</course>
  <speed>0.01</speed>
  <fix>3d</fix>
</trkpt>
<trkpt lat="40.0728548" lon="-105.2308477">
  <ele>1595.49</ele>
  <time>2026-08-27T18:30:01Z</time>
  <course>289.04</course>
  <speed>0.02</speed>
  <fix>3d</fix>
</trkpt>
<trkpt lat="40.0728548" lon="-105.2308476">
  <ele>1595.56</ele>
  <time>2026-08-27T18:30:01Z</time>
  <course>308.85</course>
  <speed>0.01</speed>
  <fix>3d</fix>
</trkpt>
<trkpt lat="40.0728548" lon="-105.2308478">
  <ele>1595.49</ele>
  <time>2026-08-27T18:30:01Z</time>
  <course>294.88</course>
  <speed>0.02</speed>
  <fix>3d</fix>
</trkpt>
<trkpt lat="40.0728548" lon="-105.2308477">
  <ele>1595.56</ele>
  <time>2026-08-27T18:30:01Z</time>
  <course>308.87</course>
  <speed>0.01</speed>
  <fix>3d</fix>
</trkpt>
<trkpt lat="40.0728548" lon="-105.2308479">
  <ele>1595.49</ele>
  <time>2026-08-27T18:30:01Z</time>
  <course>297.83</course>
  <speed>0.02</speed>
  <fix>3d</fix>
</trkpt>
<trkpt lat="40.0728548" lon="-105.2308477">
  <ele>1595.56</ele>
  <time>2026-08-27T18:30:01Z</time>
  <course>308.89</course>
  <speed>0.01</speed>
  <fix>3d</fix>
</trkpt>
<trkpt lat="40.0728548" lon="-105.2308479">
  <ele>1595.49</ele>
  <time>2026-08-27T18:30:01Z</time>
  <course>299.09</course>
  <speed>0.02</speed>
  <fix>3d</fix>
</trkpt>
<trkpt lat="40.0728548" lon="-105.2308478">
  <ele>1595.56</ele>
  <time>2026-08-27T18:30:01Z</time>
  <course>308.91</course>
  <speed>0.0</speed>
  <fix>3d</fix>
</trkpt>
<trkpt lat="40.0728548" lon="-105.230848">
  <ele>1595.49</ele>
  <time>2026-08-27T18:30:01Z</time>
  <course>298.8</course>
  <speed>0.02</speed>
  <fix>3d</fix>
</trkpt>
<trkpt lat="40.0728548" lon="-105.2308478">
  <ele>1595.56</ele>
  <time>2026-08-27T18:30:01Z</time>
  <course>308.96</course>
  <speed>0.01</speed>
  <fix>3d</fix>
</trkpt>
<trkpt lat="40.0728548" lon="-105.2308481">
  <ele>1595.49</ele>
  <time>2026-08-27T18:30:01Z</time>
  <course>296.7</course>
  <speed>0.02</speed>
  <fix>3d</fix>
</trkpt>
<trkpt lat="40.0728548" lon="-105.2308479">
  <ele>1595.56</ele>
  <time>2026-08-27T18:30:01Z</time>
  <course>309.04</course>
  <speed>0.01</speed>
  <fix>3d</fix>
</trkpt>
<trkpt lat="40.0728548" lon="-105.2308482">
  <ele>1595.48</ele>
  <time>2026-08-27T18:30:01Z</time>
  <course>292.66</course>
  <speed>0.02</speed>
  <fix>3d</fix>
</trkpt>
<trkpt lat="40.0728548" lon="-105.2308479">
  <ele>1595.56</ele>
  <time>2026-08-27T18:30:01Z</time>
  <course>309.17</course>
  <speed>0.01</speed>
  <fix>3d</fix>
</trkpt>
<trkpt lat="40.0728548" lon="-105.2308482">
  <ele>1595.48</ele>
  <time>2026-08-27T18:30:01Z</time>
  <course>285.95</course>
  <speed>0.02</speed>
  <fix>3d</fix>
</trkpt>
<trkpt lat="40.0728548" lon="-105.230848">
  <ele>1595.56</ele>
  <time>2026-08-27T18:30:01Z</time>
  <course>309.34</course>
  <speed>0.01</speed>
  <fix>3d</fix>
</trkpt>
<trkpt lat="40.0728548" lon="-105.2308483">
  <ele>1595.48</ele>
  <time>2026-08-27T18:30:01Z</time>
  <course>276.76</course>
  <speed>0.02</speed>
  <fix>3d</fix>
</trkpt>
<trkpt lat="40.0728548" lon="-105.2308481">
  <ele>1595.55</ele>
  <time>2026-08-27T18:30:01Z</time>
  <course>309.52</course>
  <speed>0.01</speed>
  <fix>3d</fix>
</trkpt>
<trkpt lat="40.0728548" lon="-105.2308484">
  <ele>1595.48</ele>
  <time>2026-08-27T18:30:01Z</time>
  <course>267.33</course>
  <speed>0.03</speed>
  <fix>3d</fix>
</trkpt>
<trkpt lat="40.0728548" lon="-105.2308482">
  <ele>1595.55</ele>
  <time>2026-08-27T18:30:01Z</time>
  <course>309.56</course>
  <speed>0.0</speed>
  <fix>3d</fix>
</trkpt>
<trkpt lat="40.0728548" lon="-105.2308484">
  <ele>1595.49</ele>
  <time>2026-08-27T18:30:01Z</time>
  <course>260.68</course>
  <speed>0.03</speed>
  <fix>3d</fix>
</trkpt>
<trkpt lat="40.0728548" lon="-105.2308483">
  <ele>1595.55</ele>
  <time>2026-08-27T18:30:01Z</time>
  <course>309.41</course>
  <speed>0.0</speed>
  <fix>3d</fix>
</trkpt>
<trkpt lat="40.0728548" lon="-105.2308485">
  <ele>1595.49</ele>
  <time>2026-08-27T18:30:01Z</time>
  <course>258.84</course>
  <speed>0.03</speed>
  <fix>3d</fix>
</trkpt>
<trkpt lat="40.0728548" lon="-105.2308484">
  <ele>1595.56</ele>
  <time>2026-08-27T18:30:01Z</time>
  <course>309.13</course>
  <speed>0.0</speed>
  <fix>3d</fix>
</trkpt>
<trkpt lat="40.0728548" lon="-105.2308486">
  <ele>1595.49</ele>
  <time>2026-08-27T18:30:01Z</time>
  <course>263.28</course>
  <speed>0.03</speed>
  <fix>3d</fix>
</trkpt>
<trkpt lat="40.0728548" lon="-105.2308485">
  <ele>1595.57</ele>
  <time>2026-08-27T18:30:01Z</time>
  <course>308.98</course>
  <speed>0.01</speed>
  <fix>3d</fix>
</trkpt>
<trkpt lat="40.0728548" lon="-105.2308487">
  <ele>1595.49</ele>
  <time>2026-08-27T18:30:01Z</time>
  <course>273.88</course>
  <speed>0.03</speed>
  <fix>3d</fix>
</trkpt>
<trkpt lat="40.0728548" lon="-105.2308485">
  <ele>1595.57</ele>
  <time>2026-08-27T18:30:01Z</time>
  <course>309.2</course>
  <speed>0.01</speed>
  <fix>3d</fix>
</trkpt>
<trkpt lat="40.0728548" lon="-105.2308487">
  <ele>1595.49</ele>
  <time>2026-08-27T18:30:01Z</time>
  <course>279.35</course>
  <speed>0.02</speed>
  <fix>3d</fix>
</trkpt>
<trkpt lat="40.0728548" lon="-105.2308486">
  <ele>1595.58</ele>
  <time>2026-08-27T18:30:01Z</time>
  <course>309.53</course>
  <speed>0.01</speed>
  <fix>3d</fix>
</trkpt>
<trkpt lat="40.0728548" lon="-105.2308488">
  <ele>1595.49</ele>
  <time>2026-08-27T18:30:01Z</time>
  <course>269.99</course>
  <speed>0.03</speed>
  <fix>3d</fix>
</trkpt>
<trkpt lat="40.0728548" lon="-105.2308487">
  <ele>1595.57</ele>
  <time>2026-08-27T18:30:01Z</time>
  <course>309.43</course>
  <speed>0.0</speed>
  <fix>3d</fix>
</trkpt>
<trkpt lat="40.0728548" lon="-105.2308489">
  <ele>1595.49</ele>
  <time>2026-08-27T18:30:01Z</time>
  <course>262.7</course>
  <speed>0.03</speed>
  <fix>3d</fix>
</trkpt>
<trkpt lat="40.0728548" lon="-105.2308487">
  <ele>1595.56</ele>
  <time>2026-08-27T18:30:01Z</time>
  <course>309.1</course>
  <speed>0.0</speed>
  <fix>3d</fix>
</trkpt>
<trkpt lat="40.0728548" lon="-105.230849">
  <ele>1595.49</ele>
  <time>2026-08-27T18:30:01Z</time>
  <course>269.67</course>
  <speed>0.03</speed>
  <fix>3d</fix>
</trkpt>
<trkpt lat="40.0728548" lon="-105.2308488">
  <ele>1595.56</ele>
  <time>2026-08-27T18:30:01Z</time>
  <course>309.26</course>
  <speed>0.01</speed>
  <fix>3d</fix>
</trkpt>
<trkpt lat="40.0728548" lon="-105.2308491">
  <ele>1595.49</ele>
  <time>2026-08-27T18:30:01Z</time>
  <course>280.64</course>
  <speed>0.02</speed>
  <fix>3d</fix>
</trkpt>
<trkpt lat="40.0728548" lon="-105.2308489">
  <ele>1595.56</ele>
  <time>2026-08-27T18:30:01Z</time>
  <course>309.47</course>
  <speed>0.0</speed>
  <fix>3d</fix>
</trkpt>
<trkpt lat="40.0728548" lon="-105.2308491">
  <ele>1595.48</ele>
  <time>2026-08-27T18:30:01Z</time>
  <course>272.13</course>
  <speed>0.03</speed>
  <fix>3d</fix>
</trkpt>
<trkpt lat="40.0728548" lon="-105.230849">
  <ele>1595.56</ele>
  <time>2026-08-27T18:30:01Z</time>
  <course>309.15</course>
  <speed>0.0</speed>
  <fix>3d</fix>
</trkpt>
<trkpt lat="40.0728548" lon="-105.2308492">
  <ele>1595.48</ele>
  <time>2026-08-27T18:30:01Z</time>
  <course>268.38</course>
  <speed>0.03</speed>
  <fix>3d</fix>
</trkpt>
<trkpt lat="40.0728548" lon="-105.2308491">
  <ele>1595.56</ele>
  <time>2026-08-27T18:30:01Z</time>
  <course>309.24</course>
  <speed>0.01</speed>
  <fix>3d</fix>
</trkpt>
<trkpt lat="40.0728548" lon="-105.2308493">
  <ele>1595.48</ele>
  <time>2026-08-27T18:30:01Z</time>
  <course>277.75</course>
  <speed>0.03</speed>
  <fix>3d</fix>
</trkpt>
<trkpt lat="40.0728548" lon="-105.2308491">
  <ele>1595.56</ele>
  <time>2026-08-27T18:30:01Z</time>
  <course>309.43</course>
  <speed>0.0</speed>
  <fix>3d</fix>
</trkpt>
<trkpt lat="40.0728548" lon="-105.2308494">
  <ele>1595.48</ele>
  <time>2026-08-27T18:30:01Z</time>
  <course>272.33</course>
  <speed>0.03</speed>
  <fix>3d</fix>
</trkpt>
<trkpt lat="40.0728548" lon="-105.2308492">
  <ele>1595.56</ele>
  <time>2026-08-27T18:30:01Z</time>
  <course>309.09</course>
  <speed>0.0</speed>
  <fix>3d</fix>
</trkpt>
<trkpt lat="40.0728548" lon="-105.2308494">
  <ele>1595.48</ele>
  <time>2026-08-27T18:30:01Z</time>
  <course>271.49</course>
  <speed>0.03</speed>
  <fix>3d</fix>
</trkpt>
<trkpt lat="40.0728548" lon="-105.2308493">
  <ele>1595.55</ele>
  <time>2026-08-27T18:30:02Z</time>
  <course>309.41</course>
  <speed>0.01</speed>
  <fix>3d</fix>
</trkpt>
<trkpt lat="40.0728548" lon="-105.2308495">
  <ele>1595.48</ele>
  <time>2026-08-27T18:30:02Z</time>
  <course>275.56</course>
  <speed>0.03</speed>
  <fix>3d</fix>
</trkpt>
<trkpt lat="40.0728548" lon="-105.2308493">
  <ele>1595.56</ele>
  <time>2026-08-27T18:30:02Z</time>
  <course>309.15</course>
  <speed>0.0</speed>
  <fix>3d</fix>
</trkpt>
<trkpt lat="40.0728548" lon="-105.2308496">
  <ele>1595.48</ele>
  <time>2026-08-27T18:30:02Z</time>
  <course>271.37</course>
  <speed>0.03</speed>
  <fix>3d</fix>
</trkpt>
<trkpt lat="40.0728548" lon="-105.2308494">
  <ele>1595.56</ele>
  <time>2026-08-27T18:30:02Z</time>
  <course>309.35</course>
  <speed>0.01</speed>
  <fix>3d</fix>
</trkpt>
<trkpt lat="40.0728548" lon="-105.2308496">
  <ele>1595.48</ele>
  <time>2026-08-27T18:30:02Z</time>
  <course>273.73</course>
  <speed>0.03</speed>
  <fix>3d</fix>
</trkpt>
<trkpt lat="40.0728548" lon="-105.2308495">
  <ele>1595.56</ele>
  <time>2026-08-27T18:30:02Z</time>
  <course>309.18</course>
  <speed>0.0</speed>
  <fix>3d</fix>
</trkpt>
<trkpt lat="40.0728548" lon="-105.2308497">
  <ele>1595.48</ele>
  <time>2026-08-27T18:30:02Z</time>
  <course>272.48</course>
  <speed>0.03</speed>
  <fix>3d</fix>
</trkpt>
<trkpt lat="40.0728548" lon="-105.2308496">
  <ele>1595.56</ele>
  <time>2026-08-27T18:30:02Z</time>
  <course>309.37</course>
  <speed>0.01</speed>
  <fix>3d</fix>
</trkpt>
<trkpt lat="40.0728548" lon="-105.2308498">
  <ele>1595.48</ele>
  <time>2026-08-27T18:30:02Z</time>
  <course>271.89</course>
  <speed>0.03</speed>
  <fix>3d</fix>
</trkpt>
<trkpt lat="40.0728548" lon="-105.2308496">
  <ele>1595.56</ele>
  <time>2026-08-27T18:30:02Z</time>
  <course>309.17</course>
  <speed>0.0</speed>
  <fix>3d</fix>
</trkpt>
<trkpt lat="40.0728548" lon="-105.2308499">
  <ele>1595.48</ele>
  <time>2026-08-27T18:30:02Z</time>
  <course>273.41</course>
  <speed>0.03</speed>
  <fix>3d</fix>
</trkpt>
<trkpt lat="40.0728548" lon="-105.2308497">
  <ele>1595.57</ele>
  <time>2026-08-27T18:30:02Z</time>
  <course>309.41</course>
  <speed>0.0</speed>
  <fix>3d</fix>
</trkpt>
<trkpt lat="40.0728548" lon="-105.2308499">
  <ele>1595.49</ele>
  <time>2026-08-27T18:30:02Z</time>
  <course>270.67</course>
  <speed>0.03</speed>
  <fix>3d</fix>
</trkpt>
<trkpt lat="40.0728548" lon="-105.2308498">
  <ele>1595.57</ele>
  <time>2026-08-27T18:30:02Z</time>
  <course>309.18</course>
  <speed>0.01</speed>
  <fix>3d</fix>
</trkpt>
<trkpt lat="40.0728548" lon="-105.23085">
  <ele>1595.48</ele>
  <time>2026-08-27T18:30:02Z</time>
  <course>274.44</course>
  <speed>0.03</speed>
  <fix>3d</fix>
</trkpt>
<trkpt lat="40.0728548" lon="-105.2308499">
  <ele>1595.57</ele>
  <time>2026-08-27T18:30:02Z</time>
  <course>309.31</course>
  <speed>0.0</speed>
  <fix>3d</fix>
</trkpt>
<trkpt lat="40.0728548" lon="-105.2308501">
  <ele>1595.48</ele>
  <time>2026-08-27T18:30:02Z</time>
  <course>272.78</course>
  <speed>0.03</speed>
  <fix>3d</fix>
</trkpt>
<trkpt lat="40.0728548" lon="-105.23085">
  <ele>1595.57</ele>
  <time>2026-08-27T18:30:02Z</time>
  <course>309.4</course>
  <speed>0.01</speed>
  <fix>3d</fix>
</trkpt>
<trkpt lat="40.0728548" lon="-105.2308502">
  <ele>1595.48</ele>
  <time>2026-08-27T18:30:02Z</time>
  <course>270.91</course>
  <speed>0.03</speed>
  <fix>3d</fix>
</trkpt>
<trkpt lat="40.0728548" lon="-105.23085">
  <ele>1595.57</ele>
  <time>2026-08-27T18:30:02Z</time>
  <course>309.23</course>
  <speed>0.01</speed>
  <fix>3d</fix>
</trkpt>
<trkpt lat="40.0728548" lon="-105.2308503">
  <ele>1595.48</ele>
  <time>2026-08-27T18:30:02Z</time>
  <course>278.07</course>
  <speed>0.03</speed>
  <fix>3d</fix>
</trkpt>
<trkpt lat="40.0728548" lon="-105.2308501">
  <ele>1595.56</ele>
  <time>2026-08-27T18:30:02Z</time>
  <course>309.26</course>
  <speed>0.0</speed>
  <fix>3d</fix>
</trkpt>
<trkpt lat="40.0728548" lon="-105.2308504">
  <ele>1595.48</ele>
  <time>2026-08-27T18:30:02Z</time>
  <course>274.21</course>
  <speed>0.03</speed>
  <fix>3d</fix>
</trkpt>
<trkpt lat="40.0728548" lon="-105.2308502">
  <ele>1595.57</ele>
  <time>2026-08-27T18:30:02Z</time>
  <course>309.38</course>
  <speed>0.0</speed>
  <fix>3d</fix>
</trkpt>
<trkpt lat="40.0728548" lon="-105.2308504">
  <ele>1595.48</ele>
  <time>2026-08-27T18:30:02Z</time>
  <course>270.22</course>
  <speed>0.03</speed>
  <fix>3d</fix>
</trkpt>
<trkpt lat="40.0728548" lon="-105.2308503">
  <ele>1595.56</ele>
  <time>2026-08-27T18:30:02Z</time>
  <course>309.34</course>
  <speed>0.01</speed>
  <fix>3d</fix>
</trkpt>
<trkpt lat="40.0728548" lon="-105.2308505">
  <ele>1595.47</ele>
  <time>2026-08-27T18:30:02Z</time>
  <course>275.91</course>
  <speed>0.03</speed>
  <fix>3d</fix>
</trkpt>
<trkpt lat="40.0728548" lon="-105.2308503">
  <ele>1595.56</ele>
  <time>2026-08-27T18:30:02Z</time>
  <course>309.23</course>
  <speed>0.01</speed>
  <fix>3d</fix>
</trkpt>
<trkpt lat="40.0728548" lon="-105.2308506">
  <ele>1595.47</ele>
  <time>2026-08-27T18:30:02Z</time>
  <course>281.12</course>
  <speed>0.03</speed>
  <fix>3d</fix>
</trkpt>
<trkpt lat="40.0728548" lon="-105.2308504">
  <ele>1595.56</ele>
  <time>2026-08-27T18:30:02Z</time>
  <course>309.2</course>
  <speed>0.0</speed>
  <fix>3d</fix>
</trkpt>
<trkpt lat="40.0728548" lon="-105.2308506">
  <ele>1595.47</ele>
  <time>2026-08-27T18:30:02Z</time>
  <course>277.59</course>
  <speed>0.03</speed>
  <fix>3d</fix>
</trkpt>
<trkpt lat="40.0728548" lon="-105.2308505">
  <ele>1595.56</ele>
  <time>2026-08-27T18:30:02Z</time>
  <course>309.24</course>
  <speed>0.0</speed>
  <fix>3d</fix>
</trkpt>
<trkpt lat="40.0728548" lon="-105.2308507">
  <ele>1595.47</ele>
  <time>2026-08-27T18:30:02Z</time>
  <course>271.83</course>
  <speed>0.03</speed>
  <fix>3d</fix>
</trkpt>
<trkpt lat="40.0728548" lon="-105.2308506">
  <ele>1595.56</ele>
  <time>2026-08-27T18:30:02Z</time>
  <course>309.29</course>
  <speed>0.0</speed>
  <fix>3d</fix>
</trkpt>
<trkpt lat="40.0728548" lon="-105.2308508">
  <ele>1595.47</ele>
  <time>2026-08-27T18:30:02Z</time>
  <course>269.43</course>
  <speed>0.03</speed>
  <fix>3d</fix>
</trkpt>
<trkpt lat="40.0728548" lon="-105.2308506">
  <ele>1595.55</ele>
  <time>2026-08-27T18:30:02Z</time>
  <course>309.3</course>
  <speed>0.0</speed>
  <fix>3d</fix>
</trkpt>
<trkpt lat="40.0728548" lon="-105.2308509">
  <ele>1595.47</ele>
  <time>2026-08-27T18:30:02Z</time>
  <course>270.02</course>
  <speed>0.03</speed>
  <fix>3d</fix>
</trkpt>
<trkpt lat="40.0728548" lon="-105.2308507">
  <ele>1595.56</ele>
  <time>2026-08-27T18:30:02Z</time>
  <course>309.29</course>
  <speed>0.0</speed>
  <fix>3d</fix>
</trkpt>
<trkpt lat="40.0728548" lon="-105.230851">
  <ele>1595.47</ele>
  <time>2026-08-27T18:30:02Z</time>
  <course>271.59</course>
  <speed>0.03</speed>
  <fix>3d</fix>
</trkpt>
<trkpt lat="40.0728548" lon="-105.2308508">
  <ele>1595.56</ele>
  <time>2026-08-27T18:30:02Z</time>
  <course>309.28</course>
  <speed>0.0</speed>
  <fix>3d</fix>
</trkpt>
<trkpt lat="40.0728548" lon="-105.230851">
  <ele>1595.47</ele>
  <time>2026-08-27T18:30:02Z</time>
  <course>272.75</course>
  <speed>0.03</speed>
  <fix>3d</fix>
</trkpt>
<trkpt lat="40.0728548" lon="-105.2308509">
  <ele>1595.56</ele>
  <time>2026-08-27T18:30:02Z</time>
  <course>309.28</course>
  <speed>0.0</speed>
  <fix>3d</fix>
</trkpt>
<trkpt lat="40.0728548" lon="-105.2308511">
  <ele>1595.47</ele>
  <time>2026-08-27T18:30:02Z</time>
  <course>273.36</course>
  <speed>0.03</speed>
  <fix>3d</fix>
</trkpt>
<trkpt lat="40.0728548" lon="-105.230851">
  <ele>1595.56</ele>
  <time>2026-08-27T18:30:02Z</time>
  <course>309.28</course>
  <speed>0.0</speed>
  <fix>3d</fix>
</trkpt>
<trkpt lat="40.0728548" lon="-105.2308512">
  <ele>1595.47</ele>
  <time>2026-08-27T18:30:02Z</time>
  <course>273.82</course>
  <speed>0.03</speed>
  <fix>3d</fix>
</trkpt>
<trkpt lat="40.0728548" lon="-105.230851">
  <ele>1595.56</ele>
  <time>2026-08-27T18:30:02Z</time>
  <course>309.28</course>
  <speed>0.01</speed>
  <fix>3d</fix>
</trkpt>
<trkpt lat="40.0728549" lon="-105.2308513">
  <ele>1595.47</ele>
  <time>2026-08-27T18:30:02Z</time>
  <course>274.18</course>
  <speed>0.03</speed>
  <fix>3d</fix>
</trkpt>
<trkpt lat="40.0728548" lon="-105.2308511">
  <ele>1595.56</ele>
  <time>2026-08-27T18:30:02Z</time>
  <course>309.28</course>
  <speed>0.01</speed>
  <fix>3d</fix>
</trkpt>
<trkpt lat="40.0728549" lon="-105.2308513">
  <ele>1595.47</ele>
  <time>2026-08-27T18:30:02Z</time>
  <course>274.37</course>
  <speed>0.03</speed>
  <fix>3d</fix>
</trkpt>
<trkpt lat="40.0728548" lon="-105.2308512">
  <ele>1595.56</ele>
  <time>2026-08-27T18:30:02Z</time>
  <course>309.29</course>
  <speed>0.01</speed>
  <fix>3d</fix>
</trkpt>
<trkpt lat="40.0728549" lon="-105.2308514">
  <ele>1595.47</ele>
  <time>2026-08-27T18:30:02Z</time>
  <course>274.4</course>
  <speed>0.03</speed>
  <fix>3d</fix>
</trkpt>
<trkpt lat="40.0728548" lon="-105.2308513">
  <ele>1595.56</ele>
  <time>2026-08-27T18:30:02Z</time>
  <course>309.29</course>
  <speed>0.01</speed>
  <fix>3d</fix>
</trkpt>
<trkpt lat="40.0728549" lon="-105.2308515">
  <ele>1595.47</ele>
  <time>2026-08-27T18:30:02Z</time>
  <course>274.95</course>
  <speed>0.03</speed>
  <fix>3d</fix>
</trkpt>
<trkpt lat="40.0728548" lon="-105.2308514">
  <ele>1595.56</ele>
  <time>2026-08-27T18:30:02Z</time>
  <course>309.29</course>
  <speed>0.01</speed>
  <fix>3d</fix>
</trkpt>
<trkpt lat="40.0728549" lon="-105.2308516">
  <ele>1595.47</ele>
  <time>2026-08-27T18:30:02Z</time>
  <course>275.79</course>
  <speed>0.03</speed>
  <fix>3d</fix>
</trkpt>
<trkpt lat="40.0728548" lon="-105.2308514">
  <ele>1595.56</ele>
  <time>2026-08-27T18:30:02Z</time>
  <course>309.29</course>
  <speed>0.01</speed>
  <fix>3d</fix>
</trkpt>
<trkpt lat="40.0728549" lon="-105.2308516">
  <ele>1595.47</ele>
  <time>2026-08-27T18:30:02Z</time>
  <course>276.93</course>
  <speed>0.03</speed>
  <fix>3d</fix>
</trkpt>
<trkpt lat="40.0728549" lon="-105.2308515">
  <ele>1595.56</ele>
  <time>2026-08-27T18:30:02Z</time>
  <course>309.28</course>
  <speed>0.01</speed>
  <fix>3d</fix>
</trkpt>
<trkpt lat="40.0728549" lon="-105.2308517">
  <ele>1595.47</ele>
  <time>2026-08-27T18:30:02Z</time>
  <course>278.01</course>
  <speed>0.03</speed>
  <fix>3d</fix>
</trkpt>
<trkpt lat="40.0728549" lon="-105.2308516">
  <ele>1595.56</ele>
  <time>2026-08-27T18:30:02Z</time>
  <course>309.28</course>
  <speed>0.01</speed>
  <fix>3d</fix>
</trkpt>
<trkpt lat="40.0728549" lon="-105.2308518">
  <ele>1595.46</ele>
  <time>2026-08-27T18:30:02Z</time>
  <course>278.84</course>
  <speed>0.04</speed>
  <fix>3d</fix>
</trkpt>
<trkpt lat="40.0728549" lon="-105.2308517">
  <ele>1595.56</ele>
  <time>2026-08-27T18:30:02Z</time>
  <course>309.29</course>
  <speed>0.022360679774997897</speed>
  <fix>3d</fix>
</trkpt>
<trkpt lat="40.0728549" lon="-105.2308519">
  <ele>1595.46</ele>
  <time>2026-08-27T18:30:02Z</time>
  <course>279.77</course>
  <speed>0.04</speed>
  <fix>3d</fix>
</trkpt>
<trkpt lat="40.0728549" lon="-105.2308518">
  <ele>1595.56</ele>
  <time>2026-08-27T18:30:02Z</time>
  <course>309.3</course>
  <speed>0.022360679774997897</speed>
  <fix>3d</fix>
</trkpt>
<trkpt lat="40.0728549" lon="-105.230852">
  <ele>1595.46</ele>
  <time>2026-08-27T18:30:02Z</time>
  <course>280.16</course>
  <speed>0.04</speed>
  <fix>3d</fix>
</trkpt>
<trkpt lat="40.0728549" lon="-105.2308519">
  <ele>1595.56</ele>
  <time>2026-08-27T18:30:02Z</time>
  <course>309.29</course>
  <speed>0.022360679774997897</speed>
  <fix>3d</fix>
</trkpt>
<trkpt lat="40.0728549" lon="-105.2308521">
  <ele>1595.46</ele>
  <time>2026-08-27T18:30:02Z</time>
  <course>280.79</course>
  <speed>0.04</speed>
  <fix>3d</fix>
</trkpt>
<trkpt lat="40.0728549" lon="-105.230852">
  <ele>1595.56</ele>
  <time>2026-08-27T18:30:02Z</time>
  <course>309.28</course>
  <speed>0.022360679774997897</speed>
  <fix>3d</fix>
</trkpt>
<trkpt lat="40.072855" lon="-105.2308522">
  <ele>1595.46</ele>
  <time>2026-08-27T18:30:02Z</time>
  <course>281.84</course>
  <speed>0.04</speed>
  <fix>3d</fix>
</trkpt>
<trkpt lat="40.072855" lon="-105.2308521">
  <ele>1595.55</ele>
  <time>2026-08-27T18:30:02Z</time>
  <course>309.28</course>
  <speed>0.022360679774997897</speed>
  <fix>3d</fix>
</trkpt>
<trkpt lat="40.0728551" lon="-105.2308523">
  <ele>1595.46</ele>
  <time>2026-08-27T18:30:02Z</time>
  <course>282.69</course>
  <speed>0.05</speed>
  <fix>3d</fix>
</trkpt>
<trkpt lat="40.072855" lon="-105.2308523">
  <ele>1595.55</ele>
  <time>2026-08-27T18:30:02Z</time>
  <course>309.28</course>
  <speed>0.022360679774997897</speed>
  <fix>3d</fix>
</trkpt>
<trkpt lat="40.0728551" lon="-105.2308525">
  <ele>1595.46</ele>
  <time>2026-08-27T18:30:02Z</time>
  <course>283.45</course>
  <speed>0.05</speed>
  <fix>3d</fix>
</trkpt>
<trkpt lat="40.072855" lon="-105.2308524">
  <ele>1595.55</ele>
  <time>2026-08-27T18:30:02Z</time>
  <course>309.27</course>
  <speed>0.022360679774997897</speed>
  <fix>3d</fix>
</trkpt>
<trkpt lat="40.0728551" lon="-105.2308526">
  <ele>1595.46</ele>
  <time>2026-08-27T18:30:02Z</time>
  <course>284.12</course>
  <speed>0.05</speed>
  <fix>3d</fix>
</trkpt>
<trkpt lat="40.0728551" lon="-105.2308525">
  <ele>1595.55</ele>
  <time>2026-08-27T18:30:02Z</time>
  <course>309.27</course>
  <speed>0.0316227766016838</speed>
  <fix>3d</fix>
</trkpt>
<trkpt lat="40.0728551" lon="-105.2308527">
  <ele>1595.46</ele>
  <time>2026-08-27T18:30:02Z</time>
  <course>284.47</course>
  <speed>0.05</speed>
  <fix>3d</fix>
</trkpt>
<trkpt lat="40.0728551" lon="-105.2308526">
  <ele>1595.55</ele>
  <time>2026-08-27T18:30:02Z</time>
  <course>309.25</course>
  <speed>0.0316227766016838</speed>
  <fix>3d</fix>
</trkpt>
<trkpt lat="40.0728552" lon="-105.2308529">
  <ele>1595.46</ele>
  <time>2026-08-27T18:30:02Z</time>
  <course>284.58</course>
  <speed>0.05</speed>
  <fix>3d</fix>
</trkpt>
<trkpt lat="40.0728551" lon="-105.2308528">
  <ele>1595.55</ele>
  <time>2026-08-27T18:30:02Z</time>
  <course>309.26</course>
  <speed>0.0316227766016838</speed>
  <fix>3d</fix>
</trkpt>
<trkpt lat="40.0728552" lon="-105.230853">
  <ele>1595.47</ele>
  <time>2026-08-27T18:30:02Z</time>
  <course>284.5</course>
  <speed>0.05</speed>
  <fix>3d</fix>
</trkpt>
<trkpt lat="40.0728552" lon="-105.2308529">
  <ele>1595.56</ele>
  <time>2026-08-27T18:30:02Z</time>
  <course>309.27</course>
  <speed>0.0316227766016838</speed>
  <fix>3d</fix>
</trkpt>
<trkpt lat="40.0728552" lon="-105.2308531">
  <ele>1595.47</ele>
  <time>2026-08-27T18:30:02Z</time>
  <course>284.13</course>
  <speed>0.05</speed>
  <fix>3d</fix>
</trkpt>
<trkpt lat="40.0728552" lon="-105.230853">
  <ele>1595.56</ele>
  <time>2026-08-27T18:30:02Z</time>
  <course>306.83</course>
  <speed>0.03605551275463989</speed>
  <fix>3d</fix>
</trkpt>
<trkpt lat="40.0728552" lon="-105.2308532">
  <ele>1595.47</ele>
  <time>2026-08-27T18:30:02Z</time>
  <course>290.95</course>
  <speed>0.05</speed>
  <fix>3d</fix>
</trkpt>
<trkpt lat="40.0728552" lon="-105.2308532">
  <ele>1595.57</ele>
  <time>2026-08-27T18:30:02Z</time>
  <course>310.49</course>
  <speed>0.04</speed>
  <fix>3d</fix>
</trkpt>
<trkpt lat="40.0728553" lon="-105.2308534">
  <ele>1595.47</ele>
  <time>2026-08-27T18:30:02Z</time>
  <course>277.97</course>
  <speed>0.06</speed>
  <fix>3d</fix>
</trkpt>
<trkpt lat="40.0728552" lon="-105.2308533">
  <ele>1595.57</ele>
  <time>2026-08-27T18:30:02Z</time>
  <course>308.52</course>
  <speed>0.02</speed>
  <fix>3d</fix>
</trkpt>
<trkpt lat="40.0728553" lon="-105.2308535">
  <ele>1595.47</ele>
  <time>2026-08-27T18:30:02Z</time>
  <course>277.2</course>
  <speed>0.05</speed>
  <fix>3d</fix>
</trkpt>
<trkpt lat="40.0728552" lon="-105.2308534">
  <ele>1595.57</ele>
  <time>2026-08-27T18:30:02Z</time>
  <course>309.52</course>
  <speed>0.0316227766016838</speed>
  <fix>3d</fix>
</trkpt>
<trkpt lat="40.0728553" lon="-105.2308536">
  <ele>1595.47</ele>
  <time>2026-08-27T18:30:02Z</time>
  <course>277.15</course>
  <speed>0.04</speed>
  <fix>3d</fix>
</trkpt>
<trkpt lat="40.0728552" lon="-105.2308535">
  <ele>1595.57</ele>
  <time>2026-08-27T18:30:02Z</time>
  <course>309.68</course>
  <speed>0.02</speed>
  <fix>3d</fix>
</trkpt>
<trkpt lat="40.0728553" lon="-105.2308537">
  <ele>1595.47</ele>
  <time>2026-08-27T18:30:02Z</time>
  <course>270.05</course>
  <speed>0.04</speed>
  <fix>3d</fix>
</trkpt>
<trkpt lat="40.0728553" lon="-105.2308536">
  <ele>1595.57</ele>
  <time>2026-08-27T18:30:02Z</time>
  <course>308.36</course>
  <speed>0.022360679774997897</speed>
  <fix>3d</fix>
</trkpt>
<trkpt lat="40.0728553" lon="-105.2308538">
  <ele>1595.47</ele>
  <time>2026-08-27T18:30:02Z</time>
  <course>275.04</course>
  <speed>0.03</speed>
  <fix>3d</fix>
</trkpt>
<trkpt lat="40.0728552" lon="-105.2308537">
  <ele>1595.57</ele>
  <time>2026-08-27T18:30:02Z</time>
  <course>310.71</course>
  <speed>0.01</speed>
  <fix>3d</fix>
</trkpt>
<trkpt lat="40.0728553" lon="-105.2308539">
  <ele>1595.47</ele>
  <time>2026-08-27T18:30:02Z</time>
  <course>265.1</course>
  <speed>0.03</speed>
  <fix>3d</fix>
</trkpt>
<trkpt lat="40.0728553" lon="-105.2308537">
  <ele>1595.56</ele>
  <time>2026-08-27T18:30:02Z</time>
  <course>307.57</course>
  <speed>0.01</speed>
  <fix>3d</fix>
</trkpt>
<trkpt lat="40.0728553" lon="-105.230854">
  <ele>1595.47</ele>
  <time>2026-08-27T18:30:02Z</time>
  <course>272.96</course>
  <speed>0.03</speed>
  <fix>3d</fix>
</trkpt>
<trkpt lat="40.0728553" lon="-105.2308538">
  <ele>1595.56</ele>
  <time>2026-08-27T18:30:02Z</time>
  <course>311.2</course>
  <speed>0.0</speed>
  <fix>3d</fix>
</trkpt>
<trkpt lat="40.0728553" lon="-105.2308541">
  <ele>1595.47</ele>
  <time>2026-08-27T18:30:02Z</time>
  <course>263.26</course>
  <speed>0.03</speed>
  <fix>3d</fix>
</trkpt>
<trkpt lat="40.0728553" lon="-105.2308539">
  <ele>1595.56</ele>
  <time>2026-08-27T18:30:02Z</time>
  <course>307.39</course>
  <speed>0.0</speed>
  <fix>3d</fix>
</trkpt>
<trkpt lat="40.0728553" lon="-105.2308542">
  <ele>1595.46</ele>
  <time>2026-08-27T18:30:02Z</time>
  <course>270.05</course>
  <speed>0.03</speed>
  <fix>3d</fix>
</trkpt>
<trkpt lat="40.0728553" lon="-105.230854">
  <ele>1595.57</ele>
  <time>2026-08-27T18:30:02Z</time>
  <course>310.96</course>
  <speed>0.01</speed>
  <fix>3d</fix>
</trkpt>
<trkpt lat="40.0728553" lon="-105.2308542">
  <ele>1595.46</ele>
  <time>2026-08-27T18:30:02Z</time>
  <course>263.56</course>
  <speed>0.03</speed>
  <fix>3d</fix>
</trkpt>
<trkpt lat="40.0728553" lon="-105.230854">
  <ele>1595.57</ele>
  <time>2026-08-27T18:30:02Z</time>
  <course>307.97</course>
  <speed>0.01</speed>
  <fix>3d</fix>
</trkpt>
<trkpt lat="40.0728553" lon="-105.2308543">
  <ele>1595.46</ele>
  <time>2026-08-27T18:30:02Z</time>
  <course>265.51</course>
  <speed>0.03</speed>
  <fix>3d</fix>
</trkpt>
<trkpt lat="40.0728553" lon="-105.2308541">
  <ele>1595.57</ele>
  <time>2026-08-27T18:30:02Z</time>
  <course>310.14</course>
  <speed>0.022360679774997897</speed>
  <fix>3d</fix>
</trkpt>
<trkpt lat="40.0728553" lon="-105.2308544">
  <ele>1595.46</ele>
  <time>2026-08-27T18:30:02Z</time>
  <course>264.59</course>
  <speed>0.03</speed>
  <fix>3d</fix>
</trkpt>
<trkpt lat="40.0728553" lon="-105.2308542">
  <ele>1595.57</ele>
  <time>2026-08-27T18:30:02Z</time>
  <course>309.05</course>
  <speed>0.01</speed>
  <fix>3d</fix>
</trkpt>
<trkpt lat="40.0728553" lon="-105.2308544">
  <ele>1595.46</ele>
  <time>2026-08-27T18:30:02Z</time>
  <course>261.23</course>
  <speed>0.03</speed>
  <fix>3d</fix>
</trkpt>
<trkpt lat="40.0728553" lon="-105.2308543">
  <ele>1595.57</ele>
  <time>2026-08-27T18:30:02Z</time>
  <course>309.0</course>
  <speed>0.022360679774997897</speed>
  <fix>3d</fix>
</trkpt>
<trkpt lat="40.0728553" lon="-105.2308545">
  <ele>1595.46</ele>
  <time>2026-08-27T18:30:02Z</time>
  <course>266.6</course>
  <speed>0.02</speed>
  <fix>3d</fix>
</trkpt>
<trkpt lat="40.0728553" lon="-105.2308544">
  <ele>1595.57</ele>
  <time>2026-08-27T18:30:02Z</time>
  <course>310.2</course>
  <speed>0.01</speed>
  <fix>3d</fix>
</trkpt>
<trkpt lat="40.0728553" lon="-105.2308546">
  <ele>1595.46</ele>
  <time>2026-08-27T18:30:02Z</time>
  <course>259.23</course>
  <speed>0.03</speed>
  <fix>3d</fix>
</trkpt>
<trkpt lat="40.0728553" lon="-105.2308544">
  <ele>1595.57</ele>
  <time>2026-08-27T18:30:02Z</time>
  <course>307.93</course>
  <speed>0.01414213562373095</speed>
  <fix>3d</fix>
</trkpt>
<trkpt lat="40.0728553" lon="-105.2308547">
  <ele>1595.45</ele>
  <time>2026-08-27T18:30:02Z</time>
  <course>268.61</course>
  <speed>0.02</speed>
  <fix>3d</fix>
</trkpt>
<trkpt lat="40.0728553" lon="-105.2308545">
  <ele>1595.57</ele>
  <time>2026-08-27T18:30:02Z</time>
  <course>311.02</course>
  <speed>0.0</speed>
  <fix>3d</fix>
</trkpt>
<trkpt lat="40.0728553" lon="-105.2308547">
  <ele>1595.45</ele>
  <time>2026-08-27T18:30:02Z</time>
  <course>258.96</course>
  <speed>0.03</speed>
  <fix>3d</fix>
</trkpt>
<trkpt lat="40.0728553" lon="-105.2308545">
  <ele>1595.57</ele>
  <time>2026-08-27T18:30:02Z</time>
  <course>307.41</course>
  <speed>0.0</speed>
  <fix>3d</fix>
</trkpt>
<trkpt lat="40.0728553" lon="-105.2308548">
  <ele>1595.45</ele>
  <time>2026-08-27T18:30:02Z</time>
  <course>267.98</course>
  <speed>0.02</speed>
  <fix>3d</fix>
</trkpt>
<trkpt lat="40.0728553" lon="-105.2308546">
  <ele>1595.57</ele>
  <time>2026-08-27T18:30:02Z</time>
  <course>311.19</course>
  <speed>0.0</speed>
  <fix>3d</fix>
</trkpt>
<trkpt lat="40.0728553" lon="-105.2308549">
  <ele>1595.45</ele>
  <time>2026-08-27T18:30:02Z</time>
  <course>260.01</course>
  <speed>0.03</speed>
  <fix>3d</fix>
</trkpt>
<trkpt lat="40.0728553" lon="-105.2308547">
  <ele>1595.56</ele>
  <time>2026-08-27T18:30:02Z</time>
  <course>307.58</course>
  <speed>0.0</speed>
  <fix>3d</fix>
</trkpt>
<trkpt lat="40.0728553" lon="-105.2308549">
  <ele>1595.45</ele>
  <time>2026-08-27T18:30:02Z</time>
  <course>265.73</course>
  <speed>0.02</speed>
  <fix>3d</fix>
</trkpt>
<trkpt lat="40.0728553" lon="-105.2308548">
  <ele>1595.56</ele>
  <time>2026-08-27T18:30:02Z</time>
  <course>310.65</course>
  <speed>0.01414213562373095</speed>
  <fix>3d</fix>
</trkpt>
<trkpt lat="40.0728553" lon="-105.230855">
  <ele>1595.44</ele>
  <time>2026-08-27T18:30:02Z</time>
  <course>262.42</course>
  <speed>0.03</speed>
  <fix>3d</fix>
</trkpt>
<trkpt lat="40.0728553" lon="-105.2308548">
  <ele>1595.56</ele>
  <time>2026-08-27T18:30:02Z</time>
  <course>308.4</course>
  <speed>0.01</speed>
  <fix>3d</fix>
</trkpt>
<trkpt lat="40.0728553" lon="-105.2308551">
  <ele>1595.44</ele>
  <time>2026-08-27T18:30:02Z</time>
  <course>262.67</course>
  <speed>0.03</speed>
  <fix>3d</fix>
</trkpt>
<trkpt lat="40.0728553" lon="-105.2308549">
  <ele>1595.56</ele>
  <time>2026-08-27T18:30:02Z</time>
  <course>309.6</course>
  <speed>0.022360679774997897</speed>
  <fix>3d</fix>
</trkpt>
<trkpt lat="40.0728553" lon="-105.2308551">
  <ele>1595.44</ele>
  <time>2026-08-27T18:30:02Z</time>
  <course>265.31</course>
  <speed>0.02</speed>
  <fix>3d</fix>
</trkpt>
<trkpt lat="40.0728553" lon="-105.230855">
  <ele>1595.56</ele>
  <time>2026-08-27T18:30:02Z</time>
  <course>309.56</course>
  <speed>0.01</speed>
  <fix>3d</fix>
</trkpt>
<trkpt lat="40.0728553" lon="-105.2308552">
  <ele>1595.44</ele>
  <time>2026-08-27T18:30:02Z</time>
  <course>260.17</course>
  <speed>0.03</speed>
  <fix>3d</fix>
</trkpt>
<trkpt lat="40.0728553" lon="-105.230855">
  <ele>1595.56</ele>
  <time>2026-08-27T18:30:02Z</time>
  <course>308.45</course>
  <speed>0.022360679774997897</speed>
  <fix>3d</fix>
</trkpt>
<trkpt lat="40.0728553" lon="-105.2308553">
  <ele>1595.44</ele>
  <time>2026-08-27T18:30:02Z</time>
  <course>267.68</course>
  <speed>0.02</speed>
  <fix>3d</fix>
</trkpt>
<trkpt lat="40.0728553" lon="-105.2308551">
  <ele>1595.56</ele>
  <time>2026-08-27T18:30:02Z</time>
  <course>310.63</course>
  <speed>0.01</speed>
  <fix>3d</fix>
</trkpt>
<trkpt lat="40.0728553" lon="-105.2308554">
  <ele>1595.44</ele>
  <time>2026-08-27T18:30:02Z</time>
  <course>258.73</course>
  <speed>0.03</speed>
  <fix>3d</fix>
</trkpt>
<trkpt lat="40.0728553" lon="-105.2308552">
  <ele>1595.55</ele>
  <time>2026-08-27T18:30:02Z</time>
  <course>307.6</course>
  <speed>0.01</speed>
  <fix>3d</fix>
</trkpt>
<trkpt lat="40.0728553" lon="-105.2308554">
  <ele>1595.44</ele>
  <time>2026-08-27T18:30:02Z</time>
  <course>268.09</course>
  <speed>0.02</speed>
  <fix>3d</fix>
</trkpt>
<trkpt lat="40.0728553" lon="-105.2308553">
  <ele>1595.55</ele>
  <time>2026-08-27T18:30:02Z</time>
  <course>311.16</course>
  <speed>0.0</speed>
  <fix>3d</fix>
</trkpt>
<trkpt lat="40.0728553" lon="-105.2308555">
  <ele>1595.44</ele>
  <time>2026-08-27T18:30:02Z</time>
  <course>259.23</course>
  <speed>0.03</speed>
  <fix>3d</fix>
</trkpt>
<trkpt lat="40.0728553" lon="-105.2308553">
  <ele>1595.55</ele>
  <time>2026-08-27T18:30:02Z</time>
  <course>307.37</course>
  <speed>0.0</speed>
  <fix>3d</fix>
</trkpt>
<trkpt lat="40.0728553" lon="-105.2308556">
  <ele>1595.44</ele>
  <time>2026-08-27T18:30:02Z</time>
  <course>267.14</course>
  <speed>0.02</speed>
  <fix>3d</fix>
</trkpt>
<trkpt lat="40.0728553" lon="-105.2308554">
  <ele>1595.55</ele>
  <time>2026-08-27T18:30:02Z</time>
  <course>310.82</course>
  <speed>0.01</speed>
  <fix>3d</fix>
</trkpt>
<trkpt lat="40.0728553" lon="-105.2308557">
  <ele>1595.44</ele>
  <time>2026-08-27T18:30:02Z</time>
  <course>262.61</course>
  <speed>0.03</speed>
  <fix>3d</fix>
</trkpt>
<trkpt lat="40.0728553" lon="-105.2308555">
  <ele>1595.55</ele>
  <time>2026-08-27T18:30:02Z</time>
  <course>310.53</course>
  <speed>0.0</speed>
  <fix>3d</fix>
</trkpt>
<trkpt lat="40.0728552" lon="-105.2308558">
  <ele>1595.44</ele>
  <time>2026-08-27T18:30:02Z</time>
  <course>255.51</course>
  <speed>0.03</speed>
  <fix>3d</fix>
</trkpt>
<trkpt lat="40.0728553" lon="-105.2308556">
  <ele>1595.55</ele>
  <time>2026-08-27T18:30:02Z</time>
  <course>308.79</course>
  <speed>0.0</speed>
  <fix>3d</fix>
</trkpt>
<trkpt lat="40.0728552" lon="-105.2308558">
  <ele>1595.45</ele>
  <time>2026-08-27T18:30:02Z</time>
  <course>271.4</course>
  <speed>0.02</speed>
  <fix>3d</fix>
</trkpt>
<trkpt lat="40.0728553" lon="-105.2308557">
  <ele>1595.56</ele>
  <time>2026-08-27T18:30:02Z</time>
  <course>307.87</course>
  <speed>0.01</speed>
  <fix>3d</fix>
</trkpt>
<trkpt lat="40.0728553" lon="-105.2308559">
  <ele>1595.45</ele>
  <time>2026-08-27T18:30:02Z</time>
  <course>270.11</course>
  <speed>0.03</speed>
  <fix>3d</fix>
</trkpt>
<trkpt lat="40.0728553" lon="-105.2308557">
  <ele>1595.56</ele>
  <time>2026-08-27T18:30:02Z</time>
  <course>307.51</course>
  <speed>0.01</speed>
  <fix>3d</fix>
</trkpt>
<trkpt lat="40.0728552" lon="-105.230856">
  <ele>1595.45</ele>
  <time>2026-08-27T18:30:02Z</time>
  <course>268.0</course>
  <speed>0.03</speed>
  <fix>3d</fix>
</trkpt>
<trkpt lat="40.0728553" lon="-105.2308558">
  <ele>1595.56</ele>
  <time>2026-08-27T18:30:02Z</time>
  <course>307.4</course>
  <speed>0.01</speed>
  <fix>3d</fix>
</trkpt>
<trkpt lat="40.0728552" lon="-105.2308561">
  <ele>1595.45</ele>
  <time>2026-08-27T18:30:02Z</time>
  <course>267.89</course>
  <speed>0.03</speed>
  <fix>3d</fix>
</trkpt>
<trkpt lat="40.0728553" lon="-105.2308559">
  <ele>1595.56</ele>
  <time>2026-08-27T18:30:02Z</time>
  <course>307.35</course>
  <speed>0.01</speed>
  <fix>3d</fix>
</trkpt>
<trkpt lat="40.0728552" lon="-105.2308562">
  <ele>1595.45</ele>
  <time>2026-08-27T18:30:02Z</time>
  <course>268.42</course>
  <speed>0.03</speed>
  <fix>3d</fix>
</trkpt>
<trkpt lat="40.0728553" lon="-105.230856">
  <ele>1595.55</ele>
  <time>2026-08-27T18:30:02Z</time>
  <course>307.33</course>
  <speed>0.01</speed>
  <fix>3d</fix>
</trkpt>
<trkpt lat="40.0728552" lon="-105.2308563">
  <ele>1595.45</ele>
  <time>2026-08-27T18:30:02Z</time>
  <course>269.26</course>
  <speed>0.04</speed>
  <fix>3d</fix>
</trkpt>
<trkpt lat="40.0728553" lon="-105.2308561">
  <ele>1595.55</ele>
  <time>2026-08-27T18:30:02Z</time>
  <course>307.33</course>
  <speed>0.01</speed>
  <fix>3d</fix>
</trkpt>
<trkpt lat="40.0728552" lon="-105.2308563">
  <ele>1595.45</ele>
  <time>2026-08-27T18:30:02Z</time>
  <course>270.22</course>
  <speed>0.04</speed>
  <fix>3d</fix>
</trkpt>
<trkpt lat="40.0728553" lon="-105.2308562">
  <ele>1595.54</ele>
  <time>2026-08-27T18:30:02Z</time>
  <course>307.29</course>
  <speed>0.02</speed>
  <fix>3d</fix>
</trkpt>
<trkpt lat="40.0728552" lon="-105.2308564">
  <ele>1595.46</ele>
  <time>2026-08-27T18:30:02Z</time>
  <course>271.44</course>
  <speed>0.04</speed>
  <fix>3d</fix>
</trkpt>
<trkpt lat="40.0728553" lon="-105.2308563">
  <ele>1595.54</ele>
  <time>2026-08-27T18:30:02Z</time>
  <course>307.29</course>
  <speed>0.02</speed>
  <fix>3d</fix>
</trkpt>
<trkpt lat="40.0728552" lon="-105.2308566">
  <ele>1595.46</ele>
  <time>2026-08-27T18:30:02Z</time>
  <course>272.69</course>
  <speed>0.04</speed>
  <fix>3d</fix>
</trkpt>
<trkpt lat="40.0728553" lon="-105.2308565">
  <ele>1595.54</ele>
  <time>2026-08-27T18:30:02Z</time>
  <course>307.3</course>
  <speed>0.02</speed>
  <fix>3d</fix>
</trkpt>
<trkpt lat="40.0728552" lon="-105.2308567">
  <ele>1595.46</ele>
  <time>2026-08-27T18:30:02Z</time>
  <course>273.69</course>
  <speed>0.04</speed>
  <fix>3d</fix>
</trkpt>
<trkpt lat="40.0728553" lon="-105.2308566">
  <ele>1595.54</ele>
  <time>2026-08-27T18:30:02Z</time>
  <course>307.28</course>
  <speed>0.02</speed>
  <fix>3d</fix>
</trkpt>
<trkpt lat="40.0728552" lon="-105.2308568">
  <ele>1595.46</ele>
  <time>2026-08-27T18:30:02Z</time>
  <course>274.51</course>
  <speed>0.04</speed>
  <fix>3d</fix>
</trkpt>
<trkpt lat="40.0728553" lon="-105.2308567">
  <ele>1595.55</ele>
  <time>2026-08-27T18:30:02Z</time>
  <course>307.28</course>
  <speed>0.02</speed>
  <fix>3d</fix>
</trkpt>
<trkpt lat="40.0728552" lon="-105.2308569">
  <ele>1595.47</ele>
  <time>2026-08-27T18:30:02Z</time>
  <course>275.06</course>
  <speed>0.05</speed>
  <fix>3d</fix>
</trkpt>
<trkpt lat="40.0728553" lon="-105.2308568">
  <ele>1595.55</ele>
  <time>2026-08-27T18:30:02Z</time>
  <course>307.29</course>
  <speed>0.03</speed>
  <fix>3d</fix>
</trkpt>
<trkpt lat="40.0728552" lon="-105.230857">
  <ele>1595.47</ele>
  <time>2026-08-27T18:30:02Z</time>
  <course>275.49</course>
  <speed>0.05</speed>
  <fix>3d</fix>
</trkpt>
<trkpt lat="40.0728553" lon="-105.2308569">
  <ele>1595.55</ele>
  <time>2026-08-27T18:30:03Z</time>
  <course>307.31</course>
  <speed>0.03</speed>
  <fix>3d</fix>
</trkpt>
<trkpt lat="40.0728552" lon="-105.2308572">
  <ele>1595.48</ele>
  <time>2026-08-27T18:30:03Z</time>
  <course>275.93</course>
  <speed>0.05</speed>
  <fix>3d</fix>
</trkpt>
<trkpt lat="40.0728553" lon="-105.2308571">
  <ele>1595.56</ele>
  <time>2026-08-27T18:30:03Z</time>
  <course>307.33</course>
  <speed>0.03</speed>
  <fix>3d</fix>
</trkpt>
<trkpt lat="40.0728552" lon="-105.2308573">
  <ele>1595.48</ele>
  <time>2026-08-27T18:30:03Z</time>
  <course>276.1</course>
  <speed>0.05</speed>
  <fix>3d</fix>
</trkpt>
<trkpt lat="40.0728553" lon="-105.2308572">
  <ele>1595.56</ele>
  <time>2026-08-27T18:30:03Z</time>
  <course>304.91</course>
  <speed>0.022360679774997897</speed>
  <fix>3d</fix>
</trkpt>
<trkpt lat="40.0728552" lon="-105.2308574">
  <ele>1595.49</ele>
  <time>2026-08-27T18:30:03Z</time>
  <course>284.04</course>
  <speed>0.05</speed>
  <fix>3d</fix>
</trkpt>
<trkpt lat="40.0728553" lon="-105.2308573">
  <ele>1595.56</ele>
  <time>2026-08-27T18:30:03Z</time>
  <course>307.4</course>
  <speed>0.0412310562561766</speed>
  <fix>3d</fix>
</trkpt>
<trkpt lat="40.0728552" lon="-105.2308575">
  <ele>1595.49</ele>
  <time>2026-08-27T18:30:03Z</time>
  <course>273.04</course>
  <speed>0.05</speed>
  <fix>3d</fix>
</trkpt>
<trkpt lat="40.0728553" lon="-105.2308575">
  <ele>1595.56</ele>
  <time>2026-08-27T18:30:03Z</time>
  <course>308.46</course>
  <speed>0.01</speed>
  <fix>3d</fix>
</trkpt>
<trkpt lat="40.0728552" lon="-105.2308577">
  <ele>1595.49</ele>
  <time>2026-08-27T18:30:03Z</time>
  <course>267.75</course>
  <speed>0.05</speed>
  <fix>3d</fix>
</trkpt>
<trkpt lat="40.0728553" lon="-105.2308575">
  <ele>1595.56</ele>
  <time>2026-08-27T18:30:03Z</time>
  <course>305.28</course>
  <speed>0.02</speed>
  <fix>3d</fix>
</trkpt>
<trkpt lat="40.0728552" lon="-105.2308578">
  <ele>1595.49</ele>
  <time>2026-08-27T18:30:03Z</time>
  <course>280.75</course>
  <speed>0.04</speed>
  <fix>3d</fix>
</trkpt>
<trkpt lat="40.0728553" lon="-105.2308577">
  <ele>1595.57</ele>
  <time>2026-08-27T18:30:03Z</time>
  <course>309.53</course>
  <speed>0.01</speed>
  <fix>3d</fix>
</trkpt>
<trkpt lat="40.0728552" lon="-105.2308579">
  <ele>1595.49</ele>
  <time>2026-08-27T18:30:03Z</time>
  <course>265.31</course>
  <speed>0.04</speed>
  <fix>3d</fix>
</trkpt>
<trkpt lat="40.0728553" lon="-105.2308577">
  <ele>1595.57</ele>
  <time>2026-08-27T18:30:03Z</time>
  <course>305.82</course>
  <speed>0.01</speed>
  <fix>3d</fix>
</trkpt>
<trkpt lat="40.0728552" lon="-105.230858">
  <ele>1595.5</ele>
  <time>2026-08-27T18:30:03Z</time>
  <course>275.35</course>
  <speed>0.03</speed>
  <fix>3d</fix>
</trkpt>
<trkpt lat="40.0728553" lon="-105.2308578">
  <ele>1595.57</ele>
  <time>2026-08-27T18:30:03Z</time>
  <course>307.62</course>
  <speed>0.022360679774997897</speed>
  <fix>3d</fix>
</trkpt>
<trkpt lat="40.0728552" lon="-105.2308581">
  <ele>1595.5</ele>
  <time>2026-08-27T18:30:03Z</time>
  <course>274.11</course>
  <speed>0.03</speed>
  <fix>3d</fix>
</trkpt>
<trkpt lat="40.0728553" lon="-105.2308579">
  <ele>1595.57</ele>
  <time>2026-08-27T18:30:03Z</time>
  <course>308.42</course>
  <speed>0.01</speed>
  <fix>3d</fix>
</trkpt>
<trkpt lat="40.0728552" lon="-105.2308582">
  <ele>1595.5</ele>
  <time>2026-08-27T18:30:03Z</time>
  <course>264.64</course>
  <speed>0.03</speed>
  <fix>3d</fix>
</trkpt>
<trkpt lat="40.0728553" lon="-105.230858">
  <ele>1595.57</ele>
  <time>2026-08-27T18:30:03Z</time>
  <course>305.31</course>
  <speed>0.01</speed>
  <fix>3d</fix>
</trkpt>
<trkpt lat="40.0728552" lon="-105.2308583">
  <ele>1595.5</ele>
  <time>2026-08-27T18:30:03Z</time>
  <course>282.91</course>
  <speed>0.03</speed>
  <fix>3d</fix>
</trkpt>
<trkpt lat="40.0728553" lon="-105.2308581">
  <ele>1595.57</ele>
  <time>2026-08-27T18:30:03Z</time>
  <course>309.55</course>
  <speed>0.01</speed>
  <fix>3d</fix>
</trkpt>
<trkpt lat="40.0728552" lon="-105.2308583">
  <ele>1595.5</ele>
  <time>2026-08-27T18:30:03Z</time>
  <course>262.96</course>
  <speed>0.03</speed>
  <fix>3d</fix>
</trkpt>
<trkpt lat="40.0728553" lon="-105.2308582">
  <ele>1595.57</ele>
  <time>2026-08-27T18:30:03Z</time>
  <course>305.81</course>
  <speed>0.01</speed>
  <fix>3d</fix>
</trkpt>
<trkpt lat="40.0728552" lon="-105.2308584">
  <ele>1595.49</ele>
  <time>2026-08-27T18:30:03Z</time>
  <course>274.57</course>
  <speed>0.03</speed>
  <fix>3d</fix>
</trkpt>
<trkpt lat="40.0728553" lon="-105.2308582">
  <ele>1595.56</ele>
  <time>2026-08-27T18:30:03Z</time>
  <course>307.64</course>
  <speed>0.022360679774997897</speed>
  <fix>3d</fix>
</trkpt>
<trkpt lat="40.0728552" lon="-105.2308585">
  <ele>1595.49</ele>
  <time>2026-08-27T18:30:03Z</time>
  <course>271.81</course>
  <speed>0.03</speed>
  <fix>3d</fix>
</trkpt>
<trkpt lat="40.0728553" lon="-105.2308583">
  <ele>1595.56</ele>
  <time>2026-08-27T18:30:03Z</time>
  <course>308.42</course>
  <speed>0.01</speed>
  <fix>3d</fix>
</trkpt>
<trkpt lat="40.0728552" lon="-105.2308585">
  <ele>1595.49</ele>
  <time>2026-08-27T18:30:03Z</time>
  <course>261.62</course>
  <speed>0.03</speed>
  <fix>3d</fix>
</trkpt>
<trkpt lat="40.0728553" lon="-105.2308584">
  <ele>1595.55</ele>
  <time>2026-08-27T18:30:03Z</time>
  <course>305.28</course>
  <speed>0.01</speed>
  <fix>3d</fix>
</trkpt>
<trkpt lat="40.0728552" lon="-105.2308586">
  <ele>1595.49</ele>
  <time>2026-08-27T18:30:03Z</time>
  <course>281.16</course>
  <speed>0.02</speed>
  <fix>3d</fix>
</trkpt>
<trkpt lat="40.0728553" lon="-105.2308585">
  <ele>1595.55</ele>
  <time>2026-08-27T18:30:03Z</time>
  <course>309.52</course>
  <speed>0.0</speed>
  <fix>3d</fix>
</trkpt>
<trkpt lat="40.0728552" lon="-105.2308587">
  <ele>1595.49</ele>
  <time>2026-08-27T18:30:03Z</time>
  <course>260.72</course>
  <speed>0.03</speed>
  <fix>3d</fix>
</trkpt>
<trkpt lat="40.0728553" lon="-105.2308585">
  <ele>1595.55</ele>
  <time>2026-08-27T18:30:03Z</time>
  <course>305.73</course>
  <speed>0.01</speed>
  <fix>3d</fix>
</trkpt>
<trkpt lat="40.0728552" lon="-105.2308588">
  <ele>1595.49</ele>
  <time>2026-08-27T18:30:03Z</time>
  <course>273.49</course>
  <speed>0.02</speed>
  <fix>3d</fix>
</trkpt>
<trkpt lat="40.0728553" lon="-105.2308586">
  <ele>1595.56</ele>
  <time>2026-08-27T18:30:03Z</time>
  <course>307.65</course>
  <speed>0.022360679774997897</speed>
  <fix>3d</fix>
</trkpt>
<trkpt lat="40.0728552" lon="-105.2308589">
  <ele>1595.49</ele>
  <time>2026-08-27T18:30:03Z</time>
  <course>270.7</course>
  <speed>0.03</speed>
  <fix>3d</fix>
</trkpt>
<trkpt lat="40.0728553" lon="-105.2308587">
  <ele>1595.56</ele>
  <time>2026-08-27T18:30:03Z</time>
  <course>308.33</course>
  <speed>0.01</speed>
  <fix>3d</fix>
</trkpt>
<trkpt lat="40.0728552" lon="-105.2308589">
  <ele>1595.49</ele>
  <time>2026-08-27T18:30:03Z</time>
  <course>260.64</course>
  <speed>0.03</speed>
  <fix>3d</fix>
</trkpt>
<trkpt lat="40.0728553" lon="-105.2308587">
  <ele>1595.57</ele>
  <time>2026-08-27T18:30:03Z</time>
  <course>305.31</course>
  <speed>0.01</speed>
  <fix>3d</fix>
</trkpt>
<trkpt lat="40.0728552" lon="-105.230859">
  <ele>1595.5</ele>
  <time>2026-08-27T18:30:03Z</time>
  <course>279.69</course>
  <speed>0.02</speed>
  <fix>3d</fix>
</trkpt>
<trkpt lat="40.0728552" lon="-105.2308588">
  <ele>1595.57</ele>
  <time>2026-08-27T18:30:03Z</time>
  <course>309.55</course>
  <speed>0.0</speed>
  <fix>3d</fix>
</trkpt>
<trkpt lat="40.0728552" lon="-105.2308591">
  <ele>1595.5</ele>
  <time>2026-08-27T18:30:03Z</time>
  <course>259.04</course>
  <speed>0.03</speed>
  <fix>3d</fix>
</trkpt>
<trkpt lat="40.0728553" lon="-105.2308589">
  <ele>1595.57</ele>
  <time>2026-08-27T18:30:03Z</time>
  <course>305.75</course>
  <speed>0.01</speed>
  <fix>3d</fix>
</trkpt>
<trkpt lat="40.0728552" lon="-105.2308592">
  <ele>1595.5</ele>
  <time>2026-08-27T18:30:03Z</time>
  <course>271.0</course>
  <speed>0.03</speed>
  <fix>3d</fix>
</trkpt>
<trkpt lat="40.0728552" lon="-105.230859">
  <ele>1595.57</ele>
  <time>2026-08-27T18:30:03Z</time>
  <course>307.7</course>
  <speed>0.022360679774997897</speed>
  <fix>3d</fix>
</trkpt>
<trkpt lat="40.0728552" lon="-105.2308592">
  <ele>1595.5</ele>
  <time>2026-08-27T18:30:03Z</time>
  <course>267.81</course>
  <speed>0.03</speed>
  <fix>3d</fix>
</trkpt>
<trkpt lat="40.0728552" lon="-105.2308591">
  <ele>1595.57</ele>
  <time>2026-08-27T18:30:03Z</time>
  <course>308.37</course>
  <speed>0.01</speed>
  <fix>3d</fix>
</trkpt>
<trkpt lat="40.0728552" lon="-105.2308593">
  <ele>1595.5</ele>
  <time>2026-08-27T18:30:03Z</time>
  <course>258.6</course>
  <speed>0.03</speed>
  <fix>3d</fix>
</trkpt>
<trkpt lat="40.0728553" lon="-105.2308591">
  <ele>1595.56</ele>
  <time>2026-08-27T18:30:03Z</time>
  <course>305.35</course>
  <speed>0.01</speed>
  <fix>3d</fix>
</trkpt>
<trkpt lat="40.0728552" lon="-105.2308594">
  <ele>1595.5</ele>
  <time>2026-08-27T18:30:03Z</time>
  <course>276.76</course>
  <speed>0.02</speed>
  <fix>3d</fix>
</trkpt>
<trkpt lat="40.0728552" lon="-105.2308592">
  <ele>1595.57</ele>
  <time>2026-08-27T18:30:03Z</time>
  <course>309.56</course>
  <speed>0.0</speed>
  <fix>3d</fix>
</trkpt>
<trkpt lat="40.0728552" lon="-105.2308594">
  <ele>1595.49</ele>
  <time>2026-08-27T18:30:03Z</time>
  <course>257.65</course>
  <speed>0.03</speed>
  <fix>3d</fix>
</trkpt>
<trkpt lat="40.0728553" lon="-105.2308593">
  <ele>1595.57</ele>
  <time>2026-08-27T18:30:03Z</time>
  <course>305.71</course>
  <speed>0.01</speed>
  <fix>3d</fix>
</trkpt>
<trkpt lat="40.0728552" lon="-105.2308595">
  <ele>1595.49</ele>
  <time>2026-08-27T18:30:03Z</time>
  <course>269.65</course>
  <speed>0.03</speed>
  <fix>3d</fix>
</trkpt>
<trkpt lat="40.0728552" lon="-105.2308594">
  <ele>1595.58</ele>
  <time>2026-08-27T18:30:03Z</time>
  <course>307.74</course>
  <speed>0.022360679774997897</speed>
  <fix>3d</fix>
</trkpt>
<trkpt lat="40.0728552" lon="-105.2308596">
  <ele>1595.49</ele>
  <time>2026-08-27T18:30:03Z</time>
  <course>266.41</course>
  <speed>0.03</speed>
  <fix>3d</fix>
</trkpt>
<trkpt lat="40.0728552" lon="-105.2308594">
  <ele>1595.58</ele>
  <time>2026-08-27T18:30:03Z</time>
  <course>308.32</course>
  <speed>0.01</speed>
  <fix>3d</fix>
</trkpt>
<trkpt lat="40.0728552" lon="-105.2308597">
  <ele>1595.49</ele>
  <time>2026-08-27T18:30:03Z</time>
  <course>257.66</course>
  <speed>0.03</speed>
  <fix>3d</fix>
</trkpt>
<trkpt lat="40.0728553" lon="-105.2308595">
  <ele>1595.58</ele>
  <time>2026-08-27T18:30:03Z</time>
  <course>305.4</course>
  <speed>0.01</speed>
  <fix>3d</fix>
</trkpt>
<trkpt lat="40.0728552" lon="-105.2308597">
  <ele>1595.49</ele>
  <time>2026-08-27T18:30:03Z</time>
  <course>275.24</course>
  <speed>0.02</speed>
  <fix>3d</fix>
</trkpt>
<trkpt lat="40.0728552" lon="-105.2308596">
  <ele>1595.58</ele>
  <time>2026-08-27T18:30:03Z</time>
  <course>309.59</course>
  <speed>0.0</speed>
  <fix>3d</fix>
</trkpt>
<trkpt lat="40.0728552" lon="-105.2308598">
  <ele>1595.49</ele>
  <time>2026-08-27T18:30:03Z</time>
  <course>256.58</course>
  <speed>0.03</speed>
  <fix>3d</fix>
</trkpt>
<trkpt lat="40.0728552" lon="-105.2308596">
  <ele>1595.58</ele>
  <time>2026-08-27T18:30:03Z</time>
  <course>305.73</course>
  <speed>0.01</speed>
  <fix>3d</fix>
</trkpt>
<trkpt lat="40.0728552" lon="-105.2308599">
  <ele>1595.48</ele>
  <time>2026-08-27T18:30:03Z</time>
  <course>268.87</course>
  <speed>0.03</speed>
  <fix>3d</fix>
</trkpt>
<trkpt lat="40.0728552" lon="-105.2308597">
  <ele>1595.57</ele>
  <time>2026-08-27T18:30:03Z</time>
  <course>307.78</course>
  <speed>0.022360679774997897</speed>
  <fix>3d</fix>
</trkpt>
<trkpt lat="40.0728552" lon="-105.23086">
  <ele>1595.48</ele>
  <time>2026-08-27T18:30:03Z</time>
  <course>265.5</course>
  <speed>0.03</speed>
  <fix>3d</fix>
</trkpt>
<trkpt lat="40.0728552" lon="-105.2308598">
  <ele>1595.56</ele>
  <time>2026-08-27T18:30:03Z</time>
  <course>308.3</course>
  <speed>0.01</speed>
  <fix>3d</fix>
</trkpt>
<trkpt lat="40.0728552" lon="-105.2308601">
  <ele>1595.47</ele>
  <time>2026-08-27T18:30:03Z</time>
  <course>257.22</course>
  <speed>0.03</speed>
  <fix>3d</fix>
</trkpt>
<trkpt lat="40.0728552" lon="-105.2308599">
  <ele>1595.56</ele>
  <time>2026-08-27T18:30:03Z</time>
  <course>305.37</course>
  <speed>0.01</speed>
  <fix>3d</fix>
</trkpt>
<trkpt lat="40.0728552" lon="-105.2308602">
  <ele>1595.47</ele>
  <time>2026-08-27T18:30:03Z</time>
  <course>274.93</course>
  <speed>0.02</speed>
  <fix>3d</fix>
</trkpt>
<trkpt lat="40.0728552" lon="-105.23086">
  <ele>1595.57</ele>
  <time>2026-08-27T18:30:03Z</time>
  <course>309.56</course>
  <speed>0.0</speed>
  <fix>3d</fix>
</trkpt>
<trkpt lat="40.0728552" lon="-105.2308602">
  <ele>1595.47</ele>
  <time>2026-08-27T18:30:03Z</time>
  <course>256.1</course>
  <speed>0.03</speed>
  <fix>3d</fix>
</trkpt>
<trkpt lat="40.0728552" lon="-105.23086">
  <ele>1595.57</ele>
  <time>2026-08-27T18:30:03Z</time>
  <course>305.67</course>
  <speed>0.01</speed>
  <fix>3d</fix>
</trkpt>
<trkpt lat="40.0728552" lon="-105.2308603">
  <ele>1595.47</ele>
  <time>2026-08-27T18:30:03Z</time>
  <course>267.75</course>
  <speed>0.03</speed>
  <fix>3d</fix>
</trkpt>
<trkpt lat="40.0728552" lon="-105.2308601">
  <ele>1595.57</ele>
  <time>2026-08-27T18:30:03Z</time>
  <course>307.59</course>
  <speed>0.01414213562373095</speed>
  <fix>3d</fix>
</trkpt>
<trkpt lat="40.0728552" lon="-105.2308604">
  <ele>1595.47</ele>
  <time>2026-08-27T18:30:03Z</time>
  <course>264.66</course>
  <speed>0.03</speed>
  <fix>3d</fix>
</trkpt>
<trkpt lat="40.0728552" lon="-105.2308602">
  <ele>1595.57</ele>
  <time>2026-08-27T18:30:03Z</time>
  <course>308.63</course>
  <speed>0.0</speed>
  <fix>3d</fix>
</trkpt>
<trkpt lat="40.0728552" lon="-105.2308604">
  <ele>1595.47</ele>
  <time>2026-08-27T18:30:03Z</time>
  <course>252.31</course>
  <speed>0.04</speed>
  <fix>3d</fix>
</trkpt>
<trkpt lat="40.0728552" lon="-105.2308603">
  <ele>1595.57</ele>
  <time>2026-08-27T18:30:03Z</time>
  <course>306.9</course>
  <speed>0.0</speed>
  <fix>3d</fix>
</trkpt>
<trkpt lat="40.0728552" lon="-105.2308605">
  <ele>1595.46</ele>
  <time>2026-08-27T18:30:03Z</time>
  <course>268.3</course>
  <speed>0.03</speed>
  <fix>3d</fix>
</trkpt>
<trkpt lat="40.0728552" lon="-105.2308603">
  <ele>1595.57</ele>
  <time>2026-08-27T18:30:03Z</time>
  <course>305.8</course>
  <speed>0.01</speed>
  <fix>3d</fix>
</trkpt>
<trkpt lat="40.0728552" lon="-105.2308606">
  <ele>1595.46</ele>
  <time>2026-08-27T18:30:03Z</time>
  <course>270.89</course>
  <speed>0.03</speed>
  <fix>3d</fix>
</trkpt>
<trkpt lat="40.0728552" lon="-105.2308604">
  <ele>1595.57</ele>
  <time>2026-08-27T18:30:03Z</time>
  <course>305.35</course>
  <speed>0.01</speed>
  <fix>3d</fix>
</trkpt>
<trkpt lat="40.0728552" lon="-105.2308607">
  <ele>1595.46</ele>
  <time>2026-08-27T18:30:03Z</time>
  <course>268.76</course>
  <speed>0.03</speed>
  <fix>3d</fix>
</trkpt>
<trkpt lat="40.0728552" lon="-105.2308605">
  <ele>1595.57</ele>
  <time>2026-08-27T18:30:03Z</time>
  <course>305.18</course>
  <speed>0.01</speed>
  <fix>3d</fix>
</trkpt>
<trkpt lat="40.0728552" lon="-105.2308608">
  <ele>1595.45</ele>
  <time>2026-08-27T18:30:03Z</time>
  <course>268.61</course>
  <speed>0.03</speed>
  <fix>3d</fix>
</trkpt>
<trkpt lat="40.0728552" lon="-105.2308606">
  <ele>1595.56</ele>
  <time>2026-08-27T18:30:03Z</time>
  <course>305.1</course>
  <speed>0.01</speed>
  <fix>3d</fix>
</trkpt>
<trkpt lat="40.0728552" lon="-105.2308609">
  <ele>1595.45</ele>
  <time>2026-08-27T18:30:03Z</time>
  <course>269.18</course>
  <speed>0.04</speed>
  <fix>3d</fix>
</trkpt>
<trkpt lat="40.0728552" lon="-105.2308607">
  <ele>1595.56</ele>
  <time>2026-08-27T18:30:03Z</time>
  <course>305.07</course>
  <speed>0.01</speed>
  <fix>3d</fix>
</trkpt>
<trkpt lat="40.0728552" lon="-105.230861">
  <ele>1595.45</ele>
  <time>2026-08-27T18:30:03Z</time>
  <course>270.09</course>
  <speed>0.04</speed>
  <fix>3d</fix>
</trkpt>
<trkpt lat="40.0728552" lon="-105.2308608">
  <ele>1595.55</ele>
  <time>2026-08-27T18:30:03Z</time>
  <course>305.06</course>
  <speed>0.02</speed>
  <fix>3d</fix>
</trkpt>
<trkpt lat="40.0728552" lon="-105.2308611">
  <ele>1595.45</ele>
  <time>2026-08-27T18:30:03Z</time>
  <course>271.49</course>
  <speed>0.04</speed>
  <fix>3d</fix>
</trkpt>
<trkpt lat="40.0728552" lon="-105.230861">
  <ele>1595.55</ele>
  <time>2026-08-27T18:30:03Z</time>
  <course>305.05</course>
  <speed>0.02</speed>
  <fix>3d</fix>
</trkpt>
<trkpt lat="40.0728552" lon="-105.2308612">
  <ele>1595.45</ele>
  <time>2026-08-27T18:30:03Z</time>
  <course>272.72</course>
  <speed>0.04</speed>
  <fix>3d</fix>
</trkpt>
<trkpt lat="40.0728552" lon="-105.2308611">
  <ele>1595.55</ele>
  <time>2026-08-27T18:30:03Z</time>
  <course>305.05</course>
  <speed>0.02</speed>
  <fix>3d</fix>
</trkpt>
<trkpt lat="40.0728552" lon="-105.2308613">
  <ele>1595.45</ele>
  <time>2026-08-27T18:30:03Z</time>
  <course>273.85</course>
  <speed>0.04</speed>
  <fix>3d</fix>
</trkpt>
<trkpt lat="40.0728552" lon="-105.2308612">
  <ele>1595.55</ele>
  <time>2026-08-27T18:30:03Z</time>
  <course>305.04</course>
  <speed>0.02</speed>
  <fix>3d</fix>
</trkpt>
<trkpt lat="40.0728552" lon="-105.2308614">
  <ele>1595.45</ele>
  <time>2026-08-27T18:30:03Z</time>
  <course>274.76</course>
  <speed>0.05</speed>
  <fix>3d</fix>
</trkpt>
<trkpt lat="40.0728552" lon="-105.2308613">
  <ele>1595.55</ele>
  <time>2026-08-27T18:30:03Z</time>
  <course>305.04</course>
  <speed>0.022360679774997897</speed>
  <fix>3d</fix>
</trkpt>
<trkpt lat="40.0728552" lon="-105.2308615">
  <ele>1595.45</ele>
  <time>2026-08-27T18:30:03Z</time>
  <course>275.24</course>
  <speed>0.05</speed>
  <fix>3d</fix>
</trkpt>
<trkpt lat="40.0728552" lon="-105.2308614">
  <ele>1595.55</ele>
  <time>2026-08-27T18:30:03Z</time>
  <course>305.03</course>
  <speed>0.022360679774997897</speed>
  <fix>3d</fix>
</trkpt>
<trkpt lat="40.0728552" lon="-105.2308616">
  <ele>1595.45</ele>
  <time>2026-08-27T18:30:03Z</time>
  <course>275.57</course>
  <speed>0.05</speed>
  <fix>3d</fix>
</trkpt>
<trkpt lat="40.0728552" lon="-105.2308616">
  <ele>1595.55</ele>
  <time>2026-08-27T18:30:03Z</time>
  <course>305.03</course>
  <speed>0.0316227766016838</speed>
  <fix>3d</fix>
</trkpt>
<trkpt lat="40.0728552" lon="-105.2308618">
  <ele>1595.45</ele>
  <time>2026-08-27T18:30:03Z</time>
  <course>276.23</course>
  <speed>0.05</speed>
  <fix>3d</fix>
</trkpt>
<trkpt lat="40.0728552" lon="-105.2308617">
  <ele>1595.55</ele>
  <time>2026-08-27T18:30:03Z</time>
  <course>305.04</course>
  <speed>0.0316227766016838</speed>
  <fix>3d</fix>
</trkpt>
<trkpt lat="40.0728552" lon="-105.2308619">
  <ele>1595.45</ele>
  <time>2026-08-27T18:30:03Z</time>
  <course>276.73</course>
  <speed>0.05</speed>
  <fix>3d</fix>
</trkpt>
<trkpt lat="40.0728552" lon="-105.2308618">
  <ele>1595.55</ele>
  <time>2026-08-27T18:30:03Z</time>
  <course>305.05</course>
  <speed>0.0316227766016838</speed>
  <fix>3d</fix>
</trkpt>
<trkpt lat="40.0728552" lon="-105.2308621">
  <ele>1595.45</ele>
  <time>2026-08-27T18:30:03Z</time>
  <course>277.05</course>
  <speed>0.05</speed>
  <fix>3d</fix>
</trkpt>
<trkpt lat="40.0728552" lon="-105.230862">
  <ele>1595.55</ele>
  <time>2026-08-27T18:30:03Z</time>
  <course>304.71</course>
  <speed>0.03</speed>
  <fix>3d</fix>
</trkpt>
<trkpt lat="40.0728552" lon="-105.2308622">
  <ele>1595.46</ele>
  <time>2026-08-27T18:30:03Z</time>
  <course>277.52</course>
  <speed>0.05</speed>
  <fix>3d</fix>
</trkpt>
<trkpt lat="40.0728552" lon="-105.2308621">
  <ele>1595.55</ele>
  <time>2026-08-27T18:30:03Z</time>
  <course>305.08</course>
  <speed>0.022360679774997897</speed>
  <fix>3d</fix>
</trkpt>
<trkpt lat="40.0728552" lon="-105.2308623">
  <ele>1595.46</ele>
  <time>2026-08-27T18:30:03Z</time>
  <course>273.48</course>
  <speed>0.06</speed>
  <fix>3d</fix>
</trkpt>
<trkpt lat="40.0728552" lon="-105.2308622">
  <ele>1595.54</ele>
  <time>2026-08-27T18:30:03Z</time>
  <course>304.82</course>
  <speed>0.02</speed>
  <fix>3d</fix>
</trkpt>
<trkpt lat="40.0728552" lon="-105.2308625">
  <ele>1595.46</ele>
  <time>2026-08-27T18:30:03Z</time>
  <course>273.42</course>
  <speed>0.05</speed>
  <fix>3d</fix>
</trkpt>
<trkpt lat="40.0728552" lon="-105.2308624">
  <ele>1595.54</ele>
  <time>2026-08-27T18:30:03Z</time>
  <course>304.98</course>
  <speed>0.02</speed>
  <fix>3d</fix>
</trkpt>
<trkpt lat="40.0728552" lon="-105.2308626">
  <ele>1595.46</ele>
  <time>2026-08-27T18:30:03Z</time>
  <course>279.31</course>
  <speed>0.04</speed>
  <fix>3d</fix>
</trkpt>
<trkpt lat="40.0728552" lon="-105.2308625">
  <ele>1595.55</ele>
  <time>2026-08-27T18:30:03Z</time>
  <course>305.23</course>
  <speed>0.01</speed>
  <fix>3d</fix>
</trkpt>
<trkpt lat="40.0728552" lon="-105.2308627">
  <ele>1595.47</ele>
  <time>2026-08-27T18:30:03Z</time>
  <course>273.03</course>
  <speed>0.04</speed>
  <fix>3d</fix>
</trkpt>
<trkpt lat="40.0728552" lon="-105.2308626">
  <ele>1595.56</ele>
  <time>2026-08-27T18:30:03Z</time>
  <course>304.95</course>
  <speed>0.01</speed>
  <fix>3d</fix>
</trkpt>
<trkpt lat="40.0728552" lon="-105.2308628">
  <ele>1595.47</ele>
  <time>2026-08-27T18:30:03Z</time>
  <course>268.08</course>
  <speed>0.04</speed>
  <fix>3d</fix>
</trkpt>
<trkpt lat="40.0728552" lon="-105.2308627">
  <ele>1595.56</ele>
  <time>2026-08-27T18:30:03Z</time>
  <course>304.86</course>
  <speed>0.01</speed>
  <fix>3d</fix>
</trkpt>
<trkpt lat="40.0728552" lon="-105.2308629">
  <ele>1595.47</ele>
  <time>2026-08-27T18:30:03Z</time>
  <course>276.5</course>
  <speed>0.03</speed>
  <fix>3d</fix>
</trkpt>
<trkpt lat="40.0728552" lon="-105.2308627">
  <ele>1595.56</ele>
  <time>2026-08-27T18:30:03Z</time>
  <course>305.22</course>
  <speed>0.01</speed>
  <fix>3d</fix>
</trkpt>
<trkpt lat="40.0728552" lon="-105.230863">
  <ele>1595.48</ele>
  <time>2026-08-27T18:30:03Z</time>
  <course>277.08</course>
  <speed>0.03</speed>
  <fix>3d</fix>
</trkpt>
<trkpt lat="40.0728552" lon="-105.2308628">
  <ele>1595.56</ele>
  <time>2026-08-27T18:30:03Z</time>
  <course>305.15</course>
  <speed>0.0</speed>
  <fix>3d</fix>
</trkpt>
<trkpt lat="40.0728552" lon="-105.2308631">
  <ele>1595.48</ele>
  <time>2026-08-27T18:30:03Z</time>
  <course>267.55</course>
  <speed>0.04</speed>
  <fix>3d</fix>
</trkpt>
<trkpt lat="40.0728552" lon="-105.2308629">
  <ele>1595.56</ele>
  <time>2026-08-27T18:30:03Z</time>
  <course>304.85</course>
  <speed>0.01</speed>
  <fix>3d</fix>
</trkpt>
<trkpt lat="40.0728552" lon="-105.2308632">
  <ele>1595.48</ele>
  <time>2026-08-27T18:30:03Z</time>
  <course>271.67</course>
  <speed>0.03</speed>
  <fix>3d</fix>
</trkpt>
<trkpt lat="40.0728552" lon="-105.230863">
  <ele>1595.56</ele>
  <time>2026-08-27T18:30:03Z</time>
  <course>305.06</course>
  <speed>0.01</speed>
  <fix>3d</fix>
</trkpt>
<trkpt lat="40.0728553" lon="-105.2308632">
  <ele>1595.48</ele>
  <time>2026-08-27T18:30:03Z</time>
  <course>280.04</course>
  <speed>0.03</speed>
  <fix>3d</fix>
</trkpt>
<trkpt lat="40.0728552" lon="-105.2308631">
  <ele>1595.56</ele>
  <time>2026-08-27T18:30:03Z</time>
  <course>303.59</course>
  <speed>0.0</speed>
  <fix>3d</fix>
</trkpt>
<trkpt lat="40.0728553" lon="-105.2308633">
  <ele>1595.48</ele>
  <time>2026-08-27T18:30:03Z</time>
  <course>285.27</course>
  <speed>0.03</speed>
  <fix>3d</fix>
</trkpt>
<trkpt lat="40.0728552" lon="-105.2308632">
  <ele>1595.55</ele>
  <time>2026-08-27T18:30:03Z</time>
  <course>303.4</course>
  <speed>0.01</speed>
  <fix>3d</fix>
</trkpt>
<trkpt lat="40.0728553" lon="-105.2308634">
  <ele>1595.48</ele>
  <time>2026-08-27T18:30:03Z</time>
  <course>280.69</course>
  <speed>0.03</speed>
  <fix>3d</fix>
</trkpt>
<trkpt lat="40.0728552" lon="-105.2308633">
  <ele>1595.55</ele>
  <time>2026-08-27T18:30:03Z</time>
  <course>304.11</course>
  <speed>0.01</speed>
  <fix>3d</fix>
</trkpt>
<trkpt lat="40.0728553" lon="-105.2308635">
  <ele>1595.48</ele>
  <time>2026-08-27T18:30:03Z</time>
  <course>272.2</course>
  <speed>0.04</speed>
  <fix>3d</fix>
</trkpt>
<trkpt lat="40.0728553" lon="-105.2308634">
  <ele>1595.55</ele>
  <time>2026-08-27T18:30:03Z</time>
  <course>304.51</course>
  <speed>0.01</speed>
  <fix>3d</fix>
</trkpt>
<trkpt lat="40.0728553" lon="-105.2308636">
  <ele>1595.48</ele>
  <time>2026-08-27T18:30:03Z</time>
  <course>273.64</course>
  <speed>0.04</speed>
  <fix>3d</fix>
</trkpt>
<trkpt lat="40.0728553" lon="-105.2308635">
  <ele>1595.55</ele>
  <time>2026-08-27T18:30:03Z</time>
  <course>304.68</course>
  <speed>0.01</speed>
  <fix>3d</fix>
</trkpt>
<trkpt lat="40.0728553" lon="-105.2308637">
  <ele>1595.48</ele>
  <time>2026-08-27T18:30:03Z</time>
  <course>275.48</course>
  <speed>0.04</speed>
  <fix>3d</fix>
</trkpt>
<trkpt lat="40.0728553" lon="-105.2308636">
  <ele>1595.55</ele>
  <time>2026-08-27T18:30:03Z</time>
  <course>304.76</course>
  <speed>0.02</speed>
  <fix>3d</fix>
</trkpt>
<trkpt lat="40.0728553" lon="-105.2308638">
  <ele>1595.49</ele>
  <time>2026-08-27T18:30:03Z</time>
  <course>275.98</course>
  <speed>0.04</speed>
  <fix>3d</fix>
</trkpt>
<trkpt lat="40.0728553" lon="-105.2308637">
  <ele>1595.56</ele>
  <time>2026-08-27T18:30:03Z</time>
  <course>304.79</course>
  <speed>0.02</speed>
  <fix>3d</fix>
</trkpt>
<trkpt lat="40.0728553" lon="-105.2308639">
  <ele>1595.49</ele>
  <time>2026-08-27T18:30:03Z</time>
  <course>276.23</course>
  <speed>0.04</speed>
  <fix>3d</fix>
</trkpt>
<trkpt lat="40.0728553" lon="-105.2308638">
  <ele>1595.56</ele>
  <time>2026-08-27T18:30:03Z</time>
  <course>304.8</course>
  <speed>0.02</speed>
  <fix>3d</fix>
</trkpt>
<trkpt lat="40.0728553" lon="-105.230864">
  <ele>1595.49</ele>
  <time>2026-08-27T18:30:03Z</time>
  <course>276.48</course>
  <speed>0.04</speed>
  <fix>3d</fix>
</trkpt>
<trkpt lat="40.0728553" lon="-105.2308639">
  <ele>1595.56</ele>
  <time>2026-08-27T18:30:03Z</time>
  <course>304.81</course>
  <speed>0.022360679774997897</speed>
  <fix>3d</fix>
</trkpt>
<trkpt lat="40.0728553" lon="-105.2308641">
  <ele>1595.49</ele>
  <time>2026-08-27T18:30:03Z</time>
  <course>276.47</course>
  <speed>0.05</speed>
  <fix>3d</fix>
</trkpt>
<trkpt lat="40.0728553" lon="-105.230864">
  <ele>1595.56</ele>
  <time>2026-08-27T18:30:03Z</time>
  <course>304.82</course>
  <speed>0.022360679774997897</speed>
  <fix>3d</fix>
</trkpt>
<trkpt lat="40.0728553" lon="-105.2308643">
  <ele>1595.5</ele>
  <time>2026-08-27T18:30:03Z</time>
  <course>276.42</course>
  <speed>0.05</speed>
  <fix>3d</fix>
</trkpt>
<trkpt lat="40.0728553" lon="-105.2308642">
  <ele>1595.57</ele>
  <time>2026-08-27T18:30:03Z</time>
  <course>304.82</course>
  <speed>0.022360679774997897</speed>
  <fix>3d</fix>
</trkpt>
<trkpt lat="40.0728553" lon="-105.2308644">
  <ele>1595.5</ele>
  <time>2026-08-27T18:30:03Z</time>
  <course>276.39</course>
  <speed>0.05</speed>
  <fix>3d</fix>
</trkpt>
<trkpt lat="40.0728553" lon="-105.2308643">
  <ele>1595.58</ele>
  <time>2026-08-27T18:30:03Z</time>
  <course>304.83</course>
  <speed>0.0316227766016838</speed>
  <fix>3d</fix>
</trkpt>
<trkpt lat="40.0728553" lon="-105.2308645">
  <ele>1595.5</ele>
  <time>2026-08-27T18:30:03Z</time>
  <course>276.84</course>
  <speed>0.05</speed>
  <fix>3d</fix>
</trkpt>
<trkpt lat="40.0728553" lon="-105.2308644">
  <ele>1595.58</ele>
  <time>2026-08-27T18:30:03Z</time>
  <course>304.86</course>
  <speed>0.0316227766016838</speed>
  <fix>3d</fix>
</trkpt>
<trkpt lat="40.0728554" lon="-105.2308646">
  <ele>1595.5</ele>
  <time>2026-08-27T18:30:03Z</time>
  <course>277.54</course>
  <speed>0.05</speed>
  <fix>3d</fix>
</trkpt>
<trkpt lat="40.0728554" lon="-105.2308646">
  <ele>1595.58</ele>
  <time>2026-08-27T18:30:03Z</time>
  <course>304.84</course>
  <speed>0.0316227766016838</speed>
  <fix>3d</fix>
</trkpt>
<trkpt lat="40.0728554" lon="-105.2308648">
  <ele>1595.5</ele>
  <time>2026-08-27T18:30:03Z</time>
  <course>278.08</course>
  <speed>0.05</speed>
  <fix>3d</fix>
</trkpt>
<trkpt lat="40.0728554" lon="-105.2308647">
  <ele>1595.58</ele>
  <time>2026-08-27T18:30:03Z</time>
  <course>304.85</course>
  <speed>0.0316227766016838</speed>
  <fix>3d</fix>
</trkpt>
<trkpt lat="40.0728554" lon="-105.2308649">
  <ele>1595.49</ele>
  <time>2026-08-27T18:30:03Z</time>
  <course>278.43</course>
  <speed>0.06</speed>
  <fix>3d</fix>
</trkpt>
<trkpt lat="40.0728554" lon="-105.2308648">
  <ele>1595.57</ele>
  <time>2026-08-27T18:30:03Z</time>
  <course>304.86</course>
  <speed>0.0316227766016838</speed>
  <fix>3d</fix>
</trkpt>
<trkpt lat="40.0728554" lon="-105.230865">
  <ele>1595.49</ele>
  <time>2026-08-27T18:30:03Z</time>
  <course>279.24</course>
  <speed>0.06</speed>
  <fix>3d</fix>
</trkpt>
<trkpt lat="40.0728554" lon="-105.230865">
  <ele>1595.57</ele>
  <time>2026-08-27T18:30:03Z</time>
  <course>304.63</course>
  <speed>0.03605551275463989</speed>
  <fix>3d</fix>
</trkpt>
<trkpt lat="40.0728554" lon="-105.2308652">
  <ele>1595.48</ele>
  <time>2026-08-27T18:30:03Z</time>
  <course>280.2</course>
  <speed>0.06</speed>
  <fix>3d</fix>
</trkpt>
<trkpt lat="40.0728554" lon="-105.2308651">
  <ele>1595.57</ele>
  <time>2026-08-27T18:30:03Z</time>
  <course>304.53</course>
  <speed>0.03605551275463989</speed>
  <fix>3d</fix>
</trkpt>
<trkpt lat="40.0728554" lon="-105.2308654">
  <ele>1595.48</ele>
  <time>2026-08-27T18:30:03Z</time>
  <course>278.34</course>
  <speed>0.06</speed>
  <fix>3d</fix>
</trkpt>
<trkpt lat="40.0728554" lon="-105.2308653">
  <ele>1595.57</ele>
  <time>2026-08-27T18:30:03Z</time>
  <course>304.55</course>
  <speed>0.022360679774997897</speed>
  <fix>3d</fix>
</trkpt>
<trkpt lat="40.0728554" lon="-105.2308655">
  <ele>1595.48</ele>
  <time>2026-08-27T18:30:03Z</time>
  <course>279.83</course>
  <speed>0.06</speed>
  <fix>3d</fix>
</trkpt>
<trkpt lat="40.0728555" lon="-105.2308654">
  <ele>1595.57</ele>
  <time>2026-08-27T18:30:03Z</time>
  <course>304.68</course>
  <speed>0.02</speed>
  <fix>3d</fix>
</trkpt>
<trkpt lat="40.0728554" lon="-105.2308656">
  <ele>1595.48</ele>
  <time>2026-08-27T18:30:03Z</time>
  <course>284.71</course>
  <speed>0.05</speed>
  <fix>3d</fix>
</trkpt>
<trkpt lat="40.0728555" lon="-105.2308655">
  <ele>1595.57</ele>
  <time>2026-08-27T18:30:03Z</time>
  <course>304.96</course>
  <speed>0.02</speed>
  <fix>3d</fix>
</trkpt>
<trkpt lat="40.0728554" lon="-105.2308658">
  <ele>1595.48</ele>
  <time>2026-08-27T18:30:03Z</time>
  <course>280.53</course>
  <speed>0.04</speed>
  <fix>3d</fix>
</trkpt>
<trkpt lat="40.0728555" lon="-105.2308656">
  <ele>1595.57</ele>
  <time>2026-08-27T18:30:03Z</time>
  <course>305.09</course>
  <speed>0.01</speed>
  <fix>3d</fix>
</trkpt>
<trkpt lat="40.0728554" lon="-105.2308659">
  <ele>1595.47</ele>
  <time>2026-08-27T18:30:03Z</time>
  <course>270.72</course>
  <speed>0.04</speed>
  <fix>3d</fix>
</trkpt>
<trkpt lat="40.0728555" lon="-105.2308657">
  <ele>1595.57</ele>
  <time>2026-08-27T18:30:03Z</time>
  <course>304.91</course>
  <speed>0.01414213562373095</speed>
  <fix>3d</fix>
</trkpt>
<trkpt lat="40.0728554" lon="-105.230866">
  <ele>1595.47</ele>
  <time>2026-08-27T18:30:03Z</time>
  <course>266.81</course>
  <speed>0.04</speed>
  <fix>3d</fix>
</trkpt>
<trkpt lat="40.0728554" lon="-105.2308658">
  <ele>1595.57</ele>
  <time>2026-08-27T18:30:03Z</time>
  <course>304.62</course>
  <speed>0.01</speed>
  <fix>3d</fix>
</trkpt>
<trkpt lat="40.0728554" lon="-105.2308661">
  <ele>1595.47</ele>
  <time>2026-08-27T18:30:03Z</time>
  <course>272.66</course>
  <speed>0.04</speed>
  <fix>3d</fix>
</trkpt>
<trkpt lat="40.0728554" lon="-105.2308659">
  <ele>1595.57</ele>
  <time>2026-08-27T18:30:03Z</time>
  <course>304.62</course>
  <speed>0.01</speed>
  <fix>3d</fix>
</trkpt>
<trkpt lat="40.0728554" lon="-105.2308662">
  <ele>1595.47</ele>
  <time>2026-08-27T18:30:03Z</time>
  <course>282.08</course>
  <speed>0.03</speed>
  <fix>3d</fix>
</trkpt>
<trkpt lat="40.0728554" lon="-105.230866">
  <ele>1595.56</ele>
  <time>2026-08-27T18:30:03Z</time>
  <course>304.9</course>
  <speed>0.01</speed>
  <fix>3d</fix>
</trkpt>
<trkpt lat="40.0728554" lon="-105.2308662">
  <ele>1595.47</ele>
  <time>2026-08-27T18:30:03Z</time>
  <course>280.63</course>
  <speed>0.03</speed>
  <fix>3d</fix>
</trkpt>
<trkpt lat="40.0728554" lon="-105.2308661">
  <ele>1595.56</ele>
  <time>2026-08-27T18:30:03Z</time>
  <course>305.09</course>
  <speed>0.01</speed>
  <fix>3d</fix>
</trkpt>
<trkpt lat="40.0728554" lon="-105.2308663">
  <ele>1595.46</ele>
  <time>2026-08-27T18:30:03Z</time>
  <course>269.4</course>
  <speed>0.03</speed>
  <fix>3d</fix>
</trkpt>
<trkpt lat="40.0728554" lon="-105.2308662">
  <ele>1595.56</ele>
  <time>2026-08-27T18:30:03Z</time>
  <course>304.96</course>
  <speed>0.01</speed>
  <fix>3d</fix>
</trkpt>
<trkpt lat="40.0728554" lon="-105.2308664">
  <ele>1595.46</ele>
  <time>2026-08-27T18:30:03Z</time>
  <course>263.27</course>
  <speed>0.04</speed>
  <fix>3d</fix>
</trkpt>
<trkpt lat="40.0728554" lon="-105.2308663">
  <ele>1595.56</ele>
  <time>2026-08-27T18:30:03Z</time>
  <course>304.76</course>
  <speed>0.01</speed>
  <fix>3d</fix>
</trkpt>
<trkpt lat="40.0728554" lon="-105.2308665">
  <ele>1595.46</ele>
  <time>2026-08-27T18:30:03Z</time>
  <course>267.1</course>
  <speed>0.03</speed>
  <fix>3d</fix>
</trkpt>
<trkpt lat="40.0728554" lon="-105.2308663">
  <ele>1595.56</ele>
  <time>2026-08-27T18:30:03Z</time>
  <course>303.33</course>
  <speed>0.01</speed>
  <fix>3d</fix>
</trkpt>
<trkpt lat="40.0728555" lon="-105.2308666">
  <ele>1595.46</ele>
  <time>2026-08-27T18:30:03Z</time>
  <course>274.07</course>
  <speed>0.03</speed>
  <fix>3d</fix>
</trkpt>
<trkpt lat="40.0728554" lon="-105.2308664">
  <ele>1595.56</ele>
  <time>2026-08-27T18:30:03Z</time>
  <course>303.73</course>
  <speed>0.01</speed>
  <fix>3d</fix>
</trkpt>
<trkpt lat="40.0728555" lon="-105.2308667">
  <ele>1595.46</ele>
  <time>2026-08-27T18:30:03Z</time>
  <course>273.34</course>
  <speed>0.03</speed>
  <fix>3d</fix>
</trkpt>
<trkpt lat="40.0728554" lon="-105.2308665">
  <ele>1595.56</ele>
  <time>2026-08-27T18:30:03Z</time>
  <course>304.2</course>
  <speed>0.01</speed>
  <fix>3d</fix>
</trkpt>
<trkpt lat="40.0728555" lon="-105.2308668">
  <ele>1595.46</ele>
  <time>2026-08-27T18:30:03Z</time>
  <course>271.89</course>
  <speed>0.04</speed>
  <fix>3d</fix>
</trkpt>
<trkpt lat="40.0728554" lon="-105.2308666">
  <ele>1595.56</ele>
  <time>2026-08-27T18:30:03Z</time>
  <course>304.38</course>
  <speed>0.02</speed>
  <fix>3d</fix>
</trkpt>
<trkpt lat="40.0728555" lon="-105.2308669">
  <ele>1595.46</ele>
  <time>2026-08-27T18:30:03Z</time>
  <course>274.07</course>
  <speed>0.04</speed>
  <fix>3d</fix>
</trkpt>
<trkpt lat="40.0728554" lon="-105.2308667">
  <ele>1595.56</ele>
  <time>2026-08-27T18:30:03Z</time>
  <course>304.46</course>
  <speed>0.02</speed>
  <fix>3d</fix>
</trkpt>
<trkpt lat="40.0728555" lon="-105.230867">
  <ele>1595.46</ele>
  <time>2026-08-27T18:30:03Z</time>
  <course>275.93</course>
  <speed>0.04</speed>
  <fix>3d</fix>
</trkpt>
<trkpt lat="40.0728555" lon="-105.2308669">
  <ele>1595.56</ele>
  <time>2026-08-27T18:30:03Z</time>
  <course>304.5</course>
  <speed>0.02</speed>
  <fix>3d</fix>
</trkpt>
<trkpt lat="40.0728555" lon="-105.2308671">
  <ele>1595.46</ele>
  <time>2026-08-27T18:30:03Z</time>
  <course>277.05</course>
  <speed>0.04</speed>
  <fix>3d</fix>
</trkpt>
<trkpt lat="40.0728555" lon="-105.230867">
  <ele>1595.57</ele>
  <time>2026-08-27T18:30:03Z</time>
  <course>304.51</course>
  <speed>0.02</speed>
  <fix>3d</fix>
</trkpt>
<trkpt lat="40.0728555" lon="-105.2308672">
  <ele>1595.46</ele>
  <time>2026-08-27T18:30:03Z</time>
  <course>277.64</course>
  <speed>0.04</speed>
  <fix>3d</fix>
</trkpt>
<trkpt lat="40.0728555" lon="-105.2308671">
  <ele>1595.57</ele>
  <time>2026-08-27T18:30:03Z</time>
  <course>304.52</course>
  <speed>0.022360679774997897</speed>
  <fix>3d</fix>
</trkpt>
<trkpt lat="40.0728555" lon="-105.2308673">
  <ele>1595.46</ele>
  <time>2026-08-27T18:30:03Z</time>
  <course>277.98</course>
  <speed>0.05</speed>
  <fix>3d</fix>
</trkpt>
<trkpt lat="40.0728555" lon="-105.2308672">
  <ele>1595.57</ele>
  <time>2026-08-27T18:30:03Z</time>
  <course>304.55</course>
  <speed>0.022360679774997897</speed>
  <fix>3d</fix>
</trkpt>
<trkpt lat="40.0728555" lon="-105.2308674">
  <ele>1595.46</ele>
  <time>2026-08-27T18:30:03Z</time>
  <course>278.16</course>
  <speed>0.05</speed>
  <fix>3d</fix>
</trkpt>
<trkpt lat="40.0728555" lon="-105.2308673">
  <ele>1595.57</ele>
  <time>2026-08-27T18:30:03Z</time>
  <course>304.55</course>
  <speed>0.022360679774997897</speed>
  <fix>3d</fix>
</trkpt>
<trkpt lat="40.0728555" lon="-105.2308676">
  <ele>1595.46</ele>
  <time>2026-08-27T18:30:03Z</time>
  <course>278.11</course>
  <speed>0.05</speed>
  <fix>3d</fix>
</trkpt>
<trkpt lat="40.0728555" lon="-105.2308675">
  <ele>1595.56</ele>
  <time>2026-08-27T18:30:03Z</time>
  <course>304.53</course>
  <speed>0.0316227766016838</speed>
  <fix>3d</fix>
</trkpt>
<trkpt lat="40.0728555" lon="-105.2308677">
  <ele>1595.46</ele>
  <time>2026-08-27T18:30:03Z</time>
  <course>278.43</course>
  <speed>0.05</speed>
  <fix>3d</fix>
</trkpt>
<trkpt lat="40.0728555" lon="-105.2308676">
  <ele>1595.56</ele>
  <time>2026-08-27T18:30:03Z</time>
  <course>304.52</course>
  <speed>0.0316227766016838</speed>
  <fix>3d</fix>
</trkpt>
<trkpt lat="40.0728556" lon="-105.2308678">
  <ele>1595.45</ele>
  <time>2026-08-27T18:30:03Z</time>
  <course>279.07</course>
  <speed>0.05</speed>
  <fix>3d</fix>
</trkpt>
<trkpt lat="40.0728556" lon="-105.2308677">
  <ele>1595.55</ele>
  <time>2026-08-27T18:30:03Z</time>
  <course>304.52</course>
  <speed>0.0316227766016838</speed>
  <fix>3d</fix>
</trkpt>
<trkpt lat="40.0728557" lon="-105.2308679">
  <ele>1595.45</ele>
  <time>2026-08-27T18:30:03Z</time>
  <course>279.63</course>
  <speed>0.05</speed>
  <fix>3d</fix>
</trkpt>
<trkpt lat="40.0728556" lon="-105.2308679">
  <ele>1595.55</ele>
  <time>2026-08-27T18:30:03Z</time>
  <course>304.52</course>
  <speed>0.0316227766016838</speed>
  <fix>3d</fix>
</trkpt>
<trkpt lat="40.0728557" lon="-105.2308681">
  <ele>1595.45</ele>
  <time>2026-08-27T18:30:03Z</time>
  <course>280.18</course>
  <speed>0.06</speed>
  <fix>3d</fix>
</trkpt>
<trkpt lat="40.0728556" lon="-105.230868">
  <ele>1595.55</ele>
  <time>2026-08-27T18:30:03Z</time>
  <course>304.52</course>
  <speed>0.0316227766016838</speed>
  <fix>3d</fix>
</trkpt>
<trkpt lat="40.0728557" lon="-105.2308682">
  <ele>1595.45</ele>
  <time>2026-08-27T18:30:03Z</time>
  <course>280.68</course>
  <speed>0.06</speed>
  <fix>3d</fix>
</trkpt>
<trkpt lat="40.0728557" lon="-105.2308682">
  <ele>1595.55</ele>
  <time>2026-08-27T18:30:03Z</time>
  <course>304.52</course>
  <speed>0.0316227766016838</speed>
  <fix>3d</fix>
</trkpt>
<trkpt lat="40.0728557" lon="-105.2308683">
  <ele>1595.45</ele>
  <time>2026-08-27T18:30:03Z</time>
  <course>281.13</course>
  <speed>0.06</speed>
  <fix>3d</fix>
</trkpt>
<trkpt lat="40.0728557" lon="-105.2308683">
  <ele>1595.56</ele>
  <time>2026-08-27T18:30:03Z</time>
  <course>303.85</course>
  <speed>0.04</speed>
  <fix>3d</fix>
</trkpt>
<trkpt lat="40.0728557" lon="-105.2308685">
  <ele>1595.45</ele>
  <time>2026-08-27T18:30:03Z</time>
  <course>284.47</course>
  <speed>0.06</speed>
  <fix>3d</fix>
</trkpt>
<trkpt lat="40.0728557" lon="-105.2308684">
  <ele>1595.56</ele>
  <time>2026-08-27T18:30:03Z</time>
  <course>304.52</course>
  <speed>0.03</speed>
  <fix>3d</fix>
</trkpt>
<trkpt lat="40.0728558" lon="-105.2308687">
  <ele>1595.45</ele>
  <time>2026-08-27T18:30:03Z</time>
  <course>282.62</course>
  <speed>0.06</speed>
  <fix>3d</fix>
</trkpt>
<trkpt lat="40.0728557" lon="-105.2308686">
  <ele>1595.56</ele>
  <time>2026-08-27T18:30:04Z</time>
  <course>304.81</course>
  <speed>0.02</speed>
  <fix>3d</fix>
</trkpt>
<trkpt lat="40.0728558" lon="-105.2308688">
  <ele>1595.46</ele>
  <time>2026-08-27T18:30:04Z</time>
  <course>273.45</course>
  <speed>0.06</speed>
  <fix>3d</fix>
</trkpt>
<trkpt lat="40.0728557" lon="-105.2308687">
  <ele>1595.56</ele>
  <time>2026-08-27T18:30:04Z</time>
  <course>304.79</course>
  <speed>0.022360679774997897</speed>
  <fix>3d</fix>
</trkpt>
<trkpt lat="40.0728558" lon="-105.2308689">
  <ele>1595.46</ele>
  <time>2026-08-27T18:30:04Z</time>
  <course>267.15</course>
  <speed>0.05</speed>
  <fix>3d</fix>
</trkpt>
<trkpt lat="40.0728557" lon="-105.2308688">
  <ele>1595.57</ele>
  <time>2026-08-27T18:30:04Z</time>
  <course>304.57</course>
  <speed>0.01414213562373095</speed>
  <fix>3d</fix>
</trkpt>
<trkpt lat="40.0728558" lon="-105.2308691">
  <ele>1595.46</ele>
  <time>2026-08-27T18:30:04Z</time>
  <course>266.41</course>
  <speed>0.05</speed>
  <fix>3d</fix>
</trkpt>
<trkpt lat="40.0728557" lon="-105.2308689">
  <ele>1595.57</ele>
  <time>2026-08-27T18:30:04Z</time>
  <course>304.35</course>
  <speed>0.01414213562373095</speed>
  <fix>3d</fix>
</trkpt>
<trkpt lat="40.0728558" lon="-105.2308692">
  <ele>1595.46</ele>
  <time>2026-08-27T18:30:04Z</time>
  <course>271.85</course>
  <speed>0.04</speed>
  <fix>3d</fix>
</trkpt>
<trkpt lat="40.0728557" lon="-105.230869">
  <ele>1595.57</ele>
  <time>2026-08-27T18:30:04Z</time>
  <course>304.27</course>
  <speed>0.01</speed>
  <fix>3d</fix>
</trkpt>
<trkpt lat="40.0728558" lon="-105.2308693">
  <ele>1595.45</ele>
  <time>2026-08-27T18:30:04Z</time>
  <course>279.89</course>
  <speed>0.03</speed>
  <fix>3d</fix>
</trkpt>
<trkpt lat="40.0728558" lon="-105.2308691">
  <ele>1595.56</ele>
  <time>2026-08-27T18:30:04Z</time>
  <course>304.38</course>
  <speed>0.01</speed>
  <fix>3d</fix>
</trkpt>
<trkpt lat="40.0728558" lon="-105.2308693">
  <ele>1595.45</ele>
  <time>2026-08-27T18:30:04Z</time>
  <course>282.97</course>
  <speed>0.03</speed>
  <fix>3d</fix>
</trkpt>
<trkpt lat="40.0728558" lon="-105.2308692">
  <ele>1595.56</ele>
  <time>2026-08-27T18:30:04Z</time>
  <course>304.62</course>
  <speed>0.01</speed>
  <fix>3d</fix>
</trkpt>
<trkpt lat="40.0728558" lon="-105.2308694">
  <ele>1595.45</ele>
  <time>2026-08-27T18:30:04Z</time>
  <course>276.48</course>
  <speed>0.03</speed>
  <fix>3d</fix>
</trkpt>
<trkpt lat="40.0728558" lon="-105.2308693">
  <ele>1595.56</ele>
  <time>2026-08-27T18:30:04Z</time>
  <course>304.8</course>
  <speed>0.01</speed>
  <fix>3d</fix>
</trkpt>
<trkpt lat="40.0728558" lon="-105.2308695">
  <ele>1595.45</ele>
  <time>2026-08-27T18:30:04Z</time>
  <course>265.96</course>
  <speed>0.03</speed>
  <fix>3d</fix>
</trkpt>
<trkpt lat="40.0728558" lon="-105.2308694">
  <ele>1595.55</ele>
  <time>2026-08-27T18:30:04Z</time>
  <course>304.78</course>
  <speed>0.0</speed>
  <fix>3d</fix>
</trkpt>
<trkpt lat="40.0728558" lon="-105.2308696">
  <ele>1595.45</ele>
  <time>2026-08-27T18:30:04Z</time>
  <course>259.15</course>
  <speed>0.04</speed>
  <fix>3d</fix>
</trkpt>
<trkpt lat="40.0728558" lon="-105.2308695">
  <ele>1595.55</ele>
  <time>2026-08-27T18:30:04Z</time>
  <course>304.57</course>
  <speed>0.01</speed>
  <fix>3d</fix>
</trkpt>
<trkpt lat="40.0728558" lon="-105.2308697">
  <ele>1595.45</ele>
  <time>2026-08-27T18:30:04Z</time>
  <course>258.91</course>
  <speed>0.04</speed>
  <fix>3d</fix>
</trkpt>
<trkpt lat="40.0728558" lon="-105.2308695">
  <ele>1595.56</ele>
  <time>2026-08-27T18:30:04Z</time>
  <course>304.52</course>
  <speed>0.0</speed>
  <fix>3d</fix>
</trkpt>
<trkpt lat="40.0728558" lon="-105.2308698">
  <ele>1595.45</ele>
  <time>2026-08-27T18:30:04Z</time>
  <course>263.42</course>
  <speed>0.03</speed>
  <fix>3d</fix>
</trkpt>
<trkpt lat="40.0728558" lon="-105.2308696">
  <ele>1595.56</ele>
  <time>2026-08-27T18:30:04Z</time>
  <course>303.26</course>
  <speed>0.01</speed>
  <fix>3d</fix>
</trkpt>
<trkpt lat="40.0728558" lon="-105.2308699">
  <ele>1595.45</ele>
  <time>2026-08-27T18:30:04Z</time>
  <course>267.94</course>
  <speed>0.03</speed>
  <fix>3d</fix>
</trkpt>
<trkpt lat="40.0728558" lon="-105.2308697">
  <ele>1595.56</ele>
  <time>2026-08-27T18:30:04Z</time>
  <course>303.55</course>
  <speed>0.01</speed>
  <fix>3d</fix>
</trkpt>
<trkpt lat="40.0728558" lon="-105.23087">
  <ele>1595.45</ele>
  <time>2026-08-27T18:30:04Z</time>
  <course>267.56</course>
  <speed>0.03</speed>
  <fix>3d</fix>
</trkpt>
<trkpt lat="40.0728558" lon="-105.2308698">
  <ele>1595.56</ele>
  <time>2026-08-27T18:30:04Z</time>
  <course>303.92</course>
  <speed>0.01</speed>
  <fix>3d</fix>
</trkpt>
<trkpt lat="40.0728558" lon="-105.2308701">
  <ele>1595.45</ele>
  <time>2026-08-27T18:30:04Z</time>
  <course>266.75</course>
  <speed>0.04</speed>
  <fix>3d</fix>
</trkpt>
<trkpt lat="40.0728558" lon="-105.2308699">
  <ele>1595.55</ele>
  <time>2026-08-27T18:30:04Z</time>
  <course>304.07</course>
  <speed>0.02</speed>
  <fix>3d</fix>
</trkpt>
<trkpt lat="40.0728558" lon="-105.2308702">
  <ele>1595.45</ele>
  <time>2026-08-27T18:30:04Z</time>
  <course>268.18</course>
  <speed>0.04</speed>
  <fix>3d</fix>
</trkpt>
<trkpt lat="40.0728558" lon="-105.23087">
  <ele>1595.55</ele>
  <time>2026-08-27T18:30:04Z</time>
  <course>304.13</course>
  <speed>0.02</speed>
  <fix>3d</fix>
</trkpt>
<trkpt lat="40.0728558" lon="-105.2308703">
  <ele>1595.45</ele>
  <time>2026-08-27T18:30:04Z</time>
  <course>269.16</course>
  <speed>0.04</speed>
  <fix>3d</fix>
</trkpt>
<trkpt lat="40.0728558" lon="-105.2308702">
  <ele>1595.55</ele>
  <time>2026-08-27T18:30:04Z</time>
  <course>304.15</course>
  <speed>0.02</speed>
  <fix>3d</fix>
</trkpt>
<trkpt lat="40.0728558" lon="-105.2308704">
  <ele>1595.45</ele>
  <time>2026-08-27T18:30:04Z</time>
  <course>270.13</course>
  <speed>0.04</speed>
  <fix>3d</fix>
</trkpt>
<trkpt lat="40.0728558" lon="-105.2308703">
  <ele>1595.55</ele>
  <time>2026-08-27T18:30:04Z</time>
  <course>304.15</course>
  <speed>0.02</speed>
  <fix>3d</fix>
</trkpt>
<trkpt lat="40.0728558" lon="-105.2308705">
  <ele>1595.45</ele>
  <time>2026-08-27T18:30:04Z</time>
  <course>270.99</course>
  <speed>0.04</speed>
  <fix>3d</fix>
</trkpt>
<trkpt lat="40.0728558" lon="-105.2308704">
  <ele>1595.55</ele>
  <time>2026-08-27T18:30:04Z</time>
  <course>304.16</course>
  <speed>0.02</speed>
  <fix>3d</fix>
</trkpt>
<trkpt lat="40.0728558" lon="-105.2308706">
  <ele>1595.45</ele>
  <time>2026-08-27T18:30:04Z</time>
  <course>271.54</course>
  <speed>0.05</speed>
  <fix>3d</fix>
</trkpt>
<trkpt lat="40.0728558" lon="-105.2308705">
  <ele>1595.55</ele>
  <time>2026-08-27T18:30:04Z</time>
  <course>304.16</course>
  <speed>0.02</speed>
  <fix>3d</fix>
</trkpt>
<trkpt lat="40.0728558" lon="-105.2308707">
  <ele>1595.46</ele>
  <time>2026-08-27T18:30:04Z</time>
  <course>271.93</course>
  <speed>0.05</speed>
  <fix>3d</fix>
</trkpt>
<trkpt lat="40.0728558" lon="-105.2308706">
  <ele>1595.55</ele>
  <time>2026-08-27T18:30:04Z</time>
  <course>304.17</course>
  <speed>0.02</speed>
  <fix>3d</fix>
</trkpt>
<trkpt lat="40.0728558" lon="-105.2308708">
  <ele>1595.46</ele>
  <time>2026-08-27T18:30:04Z</time>
  <course>272.36</course>
  <speed>0.05</speed>
  <fix>3d</fix>
</trkpt>
<trkpt lat="40.0728558" lon="-105.2308708">
  <ele>1595.56</ele>
  <time>2026-08-27T18:30:04Z</time>
  <course>304.16</course>
  <speed>0.03</speed>
  <fix>3d</fix>
</trkpt>
<trkpt lat="40.0728558" lon="-105.230871">
  <ele>1595.46</ele>
  <time>2026-08-27T18:30:04Z</time>
  <course>272.89</course>
  <speed>0.05</speed>
  <fix>3d</fix>
</trkpt>
<trkpt lat="40.0728558" lon="-105.2308709">
  <ele>1595.56</ele>
  <time>2026-08-27T18:30:04Z</time>
  <course>304.17</course>
  <speed>0.03</speed>
  <fix>3d</fix>
</trkpt>
<trkpt lat="40.0728558" lon="-105.2308711">
  <ele>1595.46</ele>
  <time>2026-08-27T18:30:04Z</time>
  <course>273.55</course>
  <speed>0.05</speed>
  <fix>3d</fix>
</trkpt>
<trkpt lat="40.0728558" lon="-105.230871">
  <ele>1595.56</ele>
  <time>2026-08-27T18:30:04Z</time>
  <course>304.17</course>
  <speed>0.03</speed>
  <fix>3d</fix>
</trkpt>
<trkpt lat="40.0728558" lon="-105.2308712">
  <ele>1595.47</ele>
  <time>2026-08-27T18:30:04Z</time>
  <course>274.19</course>
  <speed>0.05</speed>
  <fix>3d</fix>
</trkpt>
<trkpt lat="40.0728558" lon="-105.2308712">
  <ele>1595.57</ele>
  <time>2026-08-27T18:30:04Z</time>
  <course>304.17</course>
  <speed>0.0316227766016838</speed>
  <fix>3d</fix>
</trkpt>
<trkpt lat="40.0728558" lon="-105.2308714">
  <ele>1595.47</ele>
  <time>2026-08-27T18:30:04Z</time>
  <course>274.78</course>
  <speed>0.05</speed>
  <fix>3d</fix>
</trkpt>
<trkpt lat="40.0728558" lon="-105.2308713">
  <ele>1595.56</ele>
  <time>2026-08-27T18:30:04Z</time>
  <course>304.18</course>
  <speed>0.0316227766016838</speed>
  <fix>3d</fix>
</trkpt>
<trkpt lat="40.0728558" lon="-105.2308715">
  <ele>1595.47</ele>
  <time>2026-08-27T18:30:04Z</time>
  <course>275.2</course>
  <speed>0.05</speed>
  <fix>3d</fix>
</trkpt>
<trkpt lat="40.0728558" lon="-105.2308714">
  <ele>1595.56</ele>
  <time>2026-08-27T18:30:04Z</time>
  <course>304.18</course>
  <speed>0.0316227766016838</speed>
  <fix>3d</fix>
</trkpt>
<trkpt lat="40.0728558" lon="-105.2308717">
  <ele>1595.47</ele>
  <time>2026-08-27T18:30:04Z</time>
  <course>275.95</course>
  <speed>0.06</speed>
  <fix>3d</fix>
</trkpt>
<trkpt lat="40.0728558" lon="-105.2308716">
  <ele>1595.56</ele>
  <time>2026-08-27T18:30:04Z</time>
  <course>303.44</course>
  <speed>0.04</speed>
  <fix>3d</fix>
</trkpt>
<trkpt lat="40.0728559" lon="-105.2308718">
  <ele>1595.47</ele>
  <time>2026-08-27T18:30:04Z</time>
  <course>279.99</course>
  <speed>0.06</speed>
  <fix>3d</fix>
</trkpt>
<trkpt lat="40.0728558" lon="-105.2308717">
  <ele>1595.56</ele>
  <time>2026-08-27T18:30:04Z</time>
  <course>304.09</course>
  <speed>0.03</speed>
  <fix>3d</fix>
</trkpt>
<trkpt lat="40.0728559" lon="-105.230872">
  <ele>1595.47</ele>
  <time>2026-08-27T18:30:04Z</time>
  <course>280.4</course>
  <speed>0.05</speed>
  <fix>3d</fix>
</trkpt>
<trkpt lat="40.0728559" lon="-105.2308719">
  <ele>1595.56</ele>
  <time>2026-08-27T18:30:04Z</time>
  <course>304.37</course>
  <speed>0.03</speed>
  <fix>3d</fix>
</trkpt>
<trkpt lat="40.0728559" lon="-105.2308721">
  <ele>1595.47</ele>
  <time>2026-08-27T18:30:04Z</time>
  <course>274.2</course>
  <speed>0.05</speed>
  <fix>3d</fix>
</trkpt>
<trkpt lat="40.0728559" lon="-105.230872">
  <ele>1595.56</ele>
  <time>2026-08-27T18:30:04Z</time>
  <course>304.49</course>
  <speed>0.02</speed>
  <fix>3d</fix>
</trkpt>
<trkpt lat="40.0728559" lon="-105.2308722">
  <ele>1595.47</ele>
  <time>2026-08-27T18:30:04Z</time>
  <course>268.08</course>
  <speed>0.05</speed>
  <fix>3d</fix>
</trkpt>
<trkpt lat="40.0728559" lon="-105.2308721">
  <ele>1595.56</ele>
  <time>2026-08-27T18:30:04Z</time>
  <course>304.5</course>
  <speed>0.01</speed>
  <fix>3d</fix>
</trkpt>
<trkpt lat="40.0728559" lon="-105.2308723">
  <ele>1595.47</ele>
  <time>2026-08-27T18:30:04Z</time>
  <course>263.64</course>
  <speed>0.05</speed>
  <fix>3d</fix>
</trkpt>
<trkpt lat="40.0728559" lon="-105.2308722">
  <ele>1595.56</ele>
  <time>2026-08-27T18:30:04Z</time>
  <course>304.42</course>
  <speed>0.01</speed>
  <fix>3d</fix>
</trkpt>
<trkpt lat="40.0728559" lon="-105.2308724">
  <ele>1595.47</ele>
  <time>2026-08-27T18:30:04Z</time>
  <course>262.23</course>
  <speed>0.05</speed>
  <fix>3d</fix>
</trkpt>
<trkpt lat="40.0728559" lon="-105.2308723">
  <ele>1595.56</ele>
  <time>2026-08-27T18:30:04Z</time>
  <course>304.26</course>
  <speed>0.01414213562373095</speed>
  <fix>3d</fix>
</trkpt>
<trkpt lat="40.0728559" lon="-105.2308725">
  <ele>1595.47</ele>
  <time>2026-08-27T18:30:04Z</time>
  <course>263.95</course>
  <speed>0.04</speed>
  <fix>3d</fix>
</trkpt>
<trkpt lat="40.0728559" lon="-105.2308724">
  <ele>1595.56</ele>
  <time>2026-08-27T18:30:04Z</time>
  <course>304.09</course>
  <speed>0.0</speed>
  <fix>3d</fix>
</trkpt>
<trkpt lat="40.0728559" lon="-105.2308726">
  <ele>1595.47</ele>
  <time>2026-08-27T18:30:04Z</time>
  <course>268.81</course>
  <speed>0.04</speed>
  <fix>3d</fix>
</trkpt>
<trkpt lat="40.0728559" lon="-105.2308725">
  <ele>1595.56</ele>
  <time>2026-08-27T18:30:04Z</time>
  <course>303.93</course>
  <speed>0.01</speed>
  <fix>3d</fix>
</trkpt>
<trkpt lat="40.0728559" lon="-105.2308727">
  <ele>1595.47</ele>
  <time>2026-08-27T18:30:04Z</time>
  <course>276.25</course>
  <speed>0.03</speed>
  <fix>3d</fix>
</trkpt>
<trkpt lat="40.0728559" lon="-105.2308726">
  <ele>1595.56</ele>
  <time>2026-08-27T18:30:04Z</time>
  <course>303.85</course>
  <speed>0.01</speed>
  <fix>3d</fix>
</trkpt>
<trkpt lat="40.0728559" lon="-105.2308728">
  <ele>1595.47</ele>
  <time>2026-08-27T18:30:04Z</time>
  <course>284.06</course>
  <speed>0.03</speed>
  <fix>3d</fix>
</trkpt>
<trkpt lat="40.0728559" lon="-105.2308727">
  <ele>1595.56</ele>
  <time>2026-08-27T18:30:04Z</time>
  <course>303.86</course>
  <speed>0.01</speed>
  <fix>3d</fix>
</trkpt>
<trkpt lat="40.0728559" lon="-105.2308729">
  <ele>1595.47</ele>
  <time>2026-08-27T18:30:04Z</time>
  <course>288.37</course>
  <speed>0.03</speed>
  <fix>3d</fix>
</trkpt>
<trkpt lat="40.0728559" lon="-105.2308727">
  <ele>1595.55</ele>
  <time>2026-08-27T18:30:04Z</time>
  <course>303.98</course>
  <speed>0.01</speed>
  <fix>3d</fix>
</trkpt>
<trkpt lat="40.0728559" lon="-105.230873">
  <ele>1595.47</ele>
  <time>2026-08-27T18:30:04Z</time>
  <course>286.77</course>
  <speed>0.03</speed>
  <fix>3d</fix>
</trkpt>
<trkpt lat="40.0728559" lon="-105.2308728">
  <ele>1595.55</ele>
  <time>2026-08-27T18:30:04Z</time>
  <course>304.16</course>
  <speed>0.01</speed>
  <fix>3d</fix>
</trkpt>
<trkpt lat="40.0728559" lon="-105.2308731">
  <ele>1595.47</ele>
  <time>2026-08-27T18:30:04Z</time>
  <course>279.76</course>
  <speed>0.03</speed>
  <fix>3d</fix>
</trkpt>
<trkpt lat="40.0728559" lon="-105.2308729">
  <ele>1595.55</ele>
  <time>2026-08-27T18:30:04Z</time>
  <course>303.52</course>
  <speed>0.01</speed>
  <fix>3d</fix>
</trkpt>
<trkpt lat="40.0728559" lon="-105.2308731">
  <ele>1595.47</ele>
  <time>2026-08-27T18:30:04Z</time>
  <course>278.33</course>
  <speed>0.03</speed>
  <fix>3d</fix>
</trkpt>
<trkpt lat="40.0728559" lon="-105.230873">
  <ele>1595.55</ele>
  <time>2026-08-27T18:30:04Z</time>
  <course>303.13</course>
  <speed>0.01</speed>
  <fix>3d</fix>
</trkpt>
<trkpt lat="40.0728559" lon="-105.2308732">
  <ele>1595.47</ele>
  <time>2026-08-27T18:30:04Z</time>
  <course>275.62</course>
  <speed>0.03</speed>
  <fix>3d</fix>
</trkpt>
<trkpt lat="40.0728559" lon="-105.230873">
  <ele>1595.55</ele>
  <time>2026-08-27T18:30:04Z</time>
  <course>303.43</course>
  <speed>0.01</speed>
  <fix>3d</fix>
</trkpt>
<trkpt lat="40.0728559" lon="-105.2308733">
  <ele>1595.48</ele>
  <time>2026-08-27T18:30:04Z</time>
  <course>270.11</course>
  <speed>0.04</speed>
  <fix>3d</fix>
</trkpt>
<trkpt lat="40.0728559" lon="-105.2308731">
  <ele>1595.55</ele>
  <time>2026-08-27T18:30:04Z</time>
  <course>303.62</course>
  <speed>0.01</speed>
  <fix>3d</fix>
</trkpt>
<trkpt lat="40.0728559" lon="-105.2308734">
  <ele>1595.48</ele>
  <time>2026-08-27T18:30:04Z</time>
  <course>270.5</course>
  <speed>0.04</speed>
  <fix>3d</fix>
</trkpt>
<trkpt lat="40.0728559" lon="-105.2308732">
  <ele>1595.55</ele>
  <time>2026-08-27T18:30:04Z</time>
  <course>303.71</course>
  <speed>0.01</speed>
  <fix>3d</fix>
</trkpt>
<trkpt lat="40.0728559" lon="-105.2308735">
  <ele>1595.48</ele>
  <time>2026-08-27T18:30:04Z</time>
  <course>271.86</course>
  <speed>0.04</speed>
  <fix>3d</fix>
</trkpt>
<trkpt lat="40.0728559" lon="-105.2308734">
  <ele>1595.56</ele>
  <time>2026-08-27T18:30:04Z</time>
  <course>303.75</course>
  <speed>0.02</speed>
  <fix>3d</fix>
</trkpt>
<trkpt lat="40.0728559" lon="-105.2308736">
  <ele>1595.48</ele>
  <time>2026-08-27T18:30:04Z</time>
  <course>272.43</course>
  <speed>0.04</speed>
  <fix>3d</fix>
</trkpt>
<trkpt lat="40.0728559" lon="-105.2308735">
  <ele>1595.56</ele>
  <time>2026-08-27T18:30:04Z</time>
  <course>303.76</course>
  <speed>0.02</speed>
  <fix>3d</fix>
</trkpt>
<trkpt lat="40.0728559" lon="-105.2308737">
  <ele>1595.48</ele>
  <time>2026-08-27T18:30:04Z</time>
  <course>272.83</course>
  <speed>0.04</speed>
  <fix>3d</fix>
</trkpt>
<trkpt lat="40.0728559" lon="-105.2308736">
  <ele>1595.57</ele>
  <time>2026-08-27T18:30:04Z</time>
  <course>303.77</course>
  <speed>0.02</speed>
  <fix>3d</fix>
</trkpt>
<trkpt lat="40.0728559" lon="-105.2308739">
  <ele>1595.49</ele>
  <time>2026-08-27T18:30:04Z</time>
  <course>273.3</course>
  <speed>0.05</speed>
  <fix>3d</fix>
</trkpt>
<trkpt lat="40.0728559" lon="-105.2308737">
  <ele>1595.57</ele>
  <time>2026-08-27T18:30:04Z</time>
  <course>303.78</course>
  <speed>0.02</speed>
  <fix>3d</fix>
</trkpt>
<trkpt lat="40.0728559" lon="-105.230874">
  <ele>1595.49</ele>
  <time>2026-08-27T18:30:04Z</time>
  <course>273.55</course>
  <speed>0.05</speed>
  <fix>3d</fix>
</trkpt>
<trkpt lat="40.0728559" lon="-105.2308739">
  <ele>1595.57</ele>
  <time>2026-08-27T18:30:04Z</time>
  <course>303.78</course>
  <speed>0.02</speed>
  <fix>3d</fix>
</trkpt>
<trkpt lat="40.072856" lon="-105.2308741">
  <ele>1595.49</ele>
  <time>2026-08-27T18:30:04Z</time>
  <course>273.97</course>
  <speed>0.05</speed>
  <fix>3d</fix>
</trkpt>
<trkpt lat="40.0728559" lon="-105.230874">
  <ele>1595.57</ele>
  <time>2026-08-27T18:30:04Z</time>
  <course>303.8</course>
  <speed>0.03</speed>
  <fix>3d</fix>
</trkpt>
<trkpt lat="40.072856" lon="-105.2308742">
  <ele>1595.49</ele>
  <time>2026-08-27T18:30:04Z</time>
  <course>274.59</course>
  <speed>0.05</speed>
  <fix>3d</fix>
</trkpt>
<trkpt lat="40.0728559" lon="-105.2308741">
  <ele>1595.57</ele>
  <time>2026-08-27T18:30:04Z</time>
  <course>303.8</course>
  <speed>0.0316227766016838</speed>
  <fix>3d</fix>
</trkpt>
<trkpt lat="40.072856" lon="-105.2308744">
  <ele>1595.49</ele>
  <time>2026-08-27T18:30:04Z</time>
  <course>274.94</course>
  <speed>0.05</speed>
  <fix>3d</fix>
</trkpt>
<trkpt lat="40.072856" lon="-105.2308743">
  <ele>1595.57</ele>
  <time>2026-08-27T18:30:04Z</time>
  <course>303.8</course>
  <speed>0.0316227766016838</speed>
  <fix>3d</fix>
</trkpt>
<trkpt lat="40.072856" lon="-105.2308745">
  <ele>1595.49</ele>
  <time>2026-08-27T18:30:04Z</time>
  <course>275.48</course>
  <speed>0.05</speed>
  <fix>3d</fix>
</trkpt>
<trkpt lat="40.072856" lon="-105.2308744">
  <ele>1595.57</ele>
  <time>2026-08-27T18:30:04Z</time>
  <course>303.8</course>
  <speed>0.0316227766016838</speed>
  <fix>3d</fix>
</trkpt>
<trkpt lat="40.072856" lon="-105.2308746">
  <ele>1595.49</ele>
  <time>2026-08-27T18:30:04Z</time>
  <course>276.14</course>
  <speed>0.06</speed>
  <fix>3d</fix>
</trkpt>
<trkpt lat="40.072856" lon="-105.2308745">
  <ele>1595.57</ele>
  <time>2026-08-27T18:30:04Z</time>
  <course>303.8</course>
  <speed>0.0316227766016838</speed>
  <fix>3d</fix>
</trkpt>
<trkpt lat="40.072856" lon="-105.2308748">
  <ele>1595.48</ele>
  <time>2026-08-27T18:30:04Z</time>
  <course>276.69</course>
  <speed>0.06</speed>
  <fix>3d</fix>
</trkpt>
<trkpt lat="40.072856" lon="-105.2308747">
  <ele>1595.57</ele>
  <time>2026-08-27T18:30:04Z</time>
  <course>303.8</course>
  <speed>0.0316227766016838</speed>
  <fix>3d</fix>
</trkpt>
<trkpt lat="40.072856" lon="-105.2308749">
  <ele>1595.48</ele>
  <time>2026-08-27T18:30:04Z</time>
  <course>277.4</course>
  <speed>0.06</speed>
  <fix>3d</fix>
</trkpt>
<trkpt lat="40.072856" lon="-105.2308748">
  <ele>1595.57</ele>
  <time>2026-08-27T18:30:04Z</time>
  <course>303.36</course>
  <speed>0.03605551275463989</speed>
  <fix>3d</fix>
</trkpt>
<trkpt lat="40.072856" lon="-105.230875">
  <ele>1595.48</ele>
  <time>2026-08-27T18:30:04Z</time>
  <course>278.8</course>
  <speed>0.06</speed>
  <fix>3d</fix>
</trkpt>
<trkpt lat="40.072856" lon="-105.230875">
  <ele>1595.56</ele>
  <time>2026-08-27T18:30:04Z</time>
  <course>304.06</course>
  <speed>0.04</speed>
  <fix>3d</fix>
</trkpt>
<trkpt lat="40.072856" lon="-105.2308752">
  <ele>1595.48</ele>
  <time>2026-08-27T18:30:04Z</time>
  <course>271.85</course>
  <speed>0.06</speed>
  <fix>3d</fix>
</trkpt>
<trkpt lat="40.072856" lon="-105.2308751">
  <ele>1595.56</ele>
  <time>2026-08-27T18:30:04Z</time>
  <course>303.62</course>
  <speed>0.03</speed>
  <fix>3d</fix>
</trkpt>
<trkpt lat="40.072856" lon="-105.2308754">
  <ele>1595.48</ele>
  <time>2026-08-27T18:30:04Z</time>
  <course>268.95</course>
  <speed>0.06</speed>
  <fix>3d</fix>
</trkpt>
<trkpt lat="40.072856" lon="-105.2308753">
  <ele>1595.56</ele>
  <time>2026-08-27T18:30:04Z</time>
  <course>303.11</course>
  <speed>0.02</speed>
  <fix>3d</fix>
</trkpt>
<trkpt lat="40.072856" lon="-105.2308755">
  <ele>1595.48</ele>
  <time>2026-08-27T18:30:04Z</time>
  <course>280.86</course>
  <speed>0.05</speed>
  <fix>3d</fix>
</trkpt>
<trkpt lat="40.072856" lon="-105.2308754">
  <ele>1595.56</ele>
  <time>2026-08-27T18:30:04Z</time>
  <course>303.49</course>
  <speed>0.01414213562373095</speed>
  <fix>3d</fix>
</trkpt>
<trkpt lat="40.072856" lon="-105.2308756">
  <ele>1595.48</ele>
  <time>2026-08-27T18:30:04Z</time>
  <course>286.95</course>
  <speed>0.04</speed>
  <fix>3d</fix>
</trkpt>
<trkpt lat="40.072856" lon="-105.2308755">
  <ele>1595.57</ele>
  <time>2026-08-27T18:30:04Z</time>
  <course>304.28</course>
  <speed>0.01414213562373095</speed>
  <fix>3d</fix>
</trkpt>
<trkpt lat="40.072856" lon="-105.2308757">
  <ele>1595.48</ele>
  <time>2026-08-27T18:30:04Z</time>
  <course>273.26</course>
  <speed>0.04</speed>
  <fix>3d</fix>
</trkpt>
<trkpt lat="40.072856" lon="-105.2308756">
  <ele>1595.57</ele>
  <time>2026-08-27T18:30:04Z</time>
  <course>304.4</course>
  <speed>0.01</speed>
  <fix>3d</fix>
</trkpt>
<trkpt lat="40.072856" lon="-105.2308758">
  <ele>1595.48</ele>
  <time>2026-08-27T18:30:04Z</time>
  <course>260.07</course>
  <speed>0.04</speed>
  <fix>3d</fix>
</trkpt>
<trkpt lat="40.072856" lon="-105.2308757">
  <ele>1595.57</ele>
  <time>2026-08-27T18:30:04Z</time>
  <course>303.69</course>
  <speed>0.02</speed>
  <fix>3d</fix>
</trkpt>
<trkpt lat="40.072856" lon="-105.2308759">
  <ele>1595.47</ele>
  <time>2026-08-27T18:30:04Z</time>
  <course>262.62</course>
  <speed>0.04</speed>
  <fix>3d</fix>
</trkpt>
<trkpt lat="40.072856" lon="-105.2308758">
  <ele>1595.57</ele>
  <time>2026-08-27T18:30:04Z</time>
  <course>303.13</course>
  <speed>0.01</speed>
  <fix>3d</fix>
</trkpt>
<trkpt lat="40.072856" lon="-105.230876">
  <ele>1595.47</ele>
  <time>2026-08-27T18:30:04Z</time>
  <course>280.11</course>
  <speed>0.03</speed>
  <fix>3d</fix>
</trkpt>
<trkpt lat="40.072856" lon="-105.2308759">
  <ele>1595.57</ele>
  <time>2026-08-27T18:30:04Z</time>
  <course>303.5</course>
  <speed>0.01</speed>
  <fix>3d</fix>
</trkpt>
<trkpt lat="40.072856" lon="-105.2308761">
  <ele>1595.47</ele>
  <time>2026-08-27T18:30:04Z</time>
  <course>288.58</course>
  <speed>0.03</speed>
  <fix>3d</fix>
</trkpt>
<trkpt lat="40.072856" lon="-105.2308759">
  <ele>1595.57</ele>
  <time>2026-08-27T18:30:04Z</time>
  <course>304.29</course>
  <speed>0.01</speed>
  <fix>3d</fix>
</trkpt>
<trkpt lat="40.072856" lon="-105.2308762">
  <ele>1595.47</ele>
  <time>2026-08-27T18:30:04Z</time>
  <course>270.86</course>
  <speed>0.03</speed>
  <fix>3d</fix>
</trkpt>
<trkpt lat="40.072856" lon="-105.230876">
  <ele>1595.57</ele>
  <time>2026-08-27T18:30:04Z</time>
  <course>304.39</course>
  <speed>0.01</speed>
  <fix>3d</fix>
</trkpt>
<trkpt lat="40.072856" lon="-105.2308763">
  <ele>1595.47</ele>
  <time>2026-08-27T18:30:04Z</time>
  <course>256.49</course>
  <speed>0.04</speed>
  <fix>3d</fix>
</trkpt>
<trkpt lat="40.072856" lon="-105.2308761">
  <ele>1595.57</ele>
  <time>2026-08-27T18:30:04Z</time>
  <course>303.67</course>
  <speed>0.01414213562373095</speed>
  <fix>3d</fix>
</trkpt>
<trkpt lat="40.072856" lon="-105.2308764">
  <ele>1595.47</ele>
  <time>2026-08-27T18:30:04Z</time>
  <course>259.78</course>
  <speed>0.04</speed>
  <fix>3d</fix>
</trkpt>
<trkpt lat="40.072856" lon="-105.2308762">
  <ele>1595.57</ele>
  <time>2026-08-27T18:30:04Z</time>
  <course>303.14</course>
  <speed>0.01</speed>
  <fix>3d</fix>
</trkpt>
<trkpt lat="40.072856" lon="-105.2308764">
  <ele>1595.46</ele>
  <time>2026-08-27T18:30:04Z</time>
  <course>279.01</course>
  <speed>0.03</speed>
  <fix>3d</fix>
</trkpt>
<trkpt lat="40.072856" lon="-105.2308763">
  <ele>1595.57</ele>
  <time>2026-08-27T18:30:04Z</time>
  <course>303.51</course>
  <speed>0.01</speed>
  <fix>3d</fix>
</trkpt>
<trkpt lat="40.072856" lon="-105.2308765">
  <ele>1595.46</ele>
  <time>2026-08-27T18:30:04Z</time>
  <course>287.99</course>
  <speed>0.03</speed>
  <fix>3d</fix>
</trkpt>
<trkpt lat="40.072856" lon="-105.2308764">
  <ele>1595.57</ele>
  <time>2026-08-27T18:30:04Z</time>
  <course>304.31</course>
  <speed>0.01</speed>
  <fix>3d</fix>
</trkpt>
<trkpt lat="40.072856" lon="-105.2308766">
  <ele>1595.46</ele>
  <time>2026-08-27T18:30:04Z</time>
  <course>269.57</course>
  <speed>0.03</speed>
  <fix>3d</fix>
</trkpt>
<trkpt lat="40.072856" lon="-105.2308764">
  <ele>1595.57</ele>
  <time>2026-08-27T18:30:04Z</time>
  <course>304.42</course>
  <speed>0.01</speed>
  <fix>3d</fix>
</trkpt>
<trkpt lat="40.072856" lon="-105.2308767">
  <ele>1595.46</ele>
  <time>2026-08-27T18:30:04Z</time>
  <course>255.45</course>
  <speed>0.04</speed>
  <fix>3d</fix>
</trkpt>
<trkpt lat="40.072856" lon="-105.2308765">
  <ele>1595.57</ele>
  <time>2026-08-27T18:30:04Z</time>
  <course>303.7</course>
  <speed>0.01414213562373095</speed>
  <fix>3d</fix>
</trkpt>
<trkpt lat="40.072856" lon="-105.2308768">
  <ele>1595.45</ele>
  <time>2026-08-27T18:30:04Z</time>
  <course>259.06</course>
  <speed>0.03</speed>
  <fix>3d</fix>
</trkpt>
<trkpt lat="40.072856" lon="-105.2308766">
  <ele>1595.57</ele>
  <time>2026-08-27T18:30:04Z</time>
  <course>304.89</course>
  <speed>0.0</speed>
  <fix>3d</fix>
</trkpt>
<trkpt lat="40.072856" lon="-105.2308769">
  <ele>1595.45</ele>
  <time>2026-08-27T18:30:04Z</time>
  <course>268.48</course>
  <speed>0.03</speed>
  <fix>3d</fix>
</trkpt>
<trkpt lat="40.072856" lon="-105.2308767">
  <ele>1595.56</ele>
  <time>2026-08-27T18:30:04Z</time>
  <course>304.0</course>
  <speed>0.01</speed>
  <fix>3d</fix>
</trkpt>
<trkpt lat="40.072856" lon="-105.2308769">
  <ele>1595.45</ele>
  <time>2026-08-27T18:30:04Z</time>
  <course>272.29</course>
  <speed>0.03</speed>
  <fix>3d</fix>
</trkpt>
<trkpt lat="40.072856" lon="-105.2308768">
  <ele>1595.56</ele>
  <time>2026-08-27T18:30:04Z</time>
  <course>303.44</course>
  <speed>0.01</speed>
  <fix>3d</fix>
</trkpt>
<trkpt lat="40.072856" lon="-105.230877">
  <ele>1595.45</ele>
  <time>2026-08-27T18:30:04Z</time>
  <course>273.98</course>
  <speed>0.03</speed>
  <fix>3d</fix>
</trkpt>
<trkpt lat="40.072856" lon="-105.2308769">
  <ele>1595.56</ele>
  <time>2026-08-27T18:30:04Z</time>
  <course>303.22</course>
  <speed>0.01</speed>
  <fix>3d</fix>
</trkpt>
<trkpt lat="40.072856" lon="-105.2308771">
  <ele>1595.44</ele>
  <time>2026-08-27T18:30:04Z</time>
  <course>272.63</course>
  <speed>0.03</speed>
  <fix>3d</fix>
</trkpt>
<trkpt lat="40.072856" lon="-105.230877">
  <ele>1595.55</ele>
  <time>2026-08-27T18:30:04Z</time>
  <course>303.14</course>
  <speed>0.01</speed>
  <fix>3d</fix>
</trkpt>
<trkpt lat="40.072856" lon="-105.2308772">
  <ele>1595.44</ele>
  <time>2026-08-27T18:30:04Z</time>
  <course>272.03</course>
  <speed>0.04</speed>
  <fix>3d</fix>
</trkpt>
<trkpt lat="40.072856" lon="-105.2308771">
  <ele>1595.55</ele>
  <time>2026-08-27T18:30:04Z</time>
  <course>303.1</course>
  <speed>0.01</speed>
  <fix>3d</fix>
</trkpt>
<trkpt lat="40.072856" lon="-105.2308773">
  <ele>1595.44</ele>
  <time>2026-08-27T18:30:04Z</time>
  <course>271.89</course>
  <speed>0.04</speed>
  <fix>3d</fix>
</trkpt>
<trkpt lat="40.072856" lon="-105.2308772">
  <ele>1595.55</ele>
  <time>2026-08-27T18:30:04Z</time>
  <course>303.08</course>
  <speed>0.01</speed>
  <fix>3d</fix>
</trkpt>
<trkpt lat="40.072856" lon="-105.2308774">
  <ele>1595.44</ele>
  <time>2026-08-27T18:30:04Z</time>
  <course>272.27</course>
  <speed>0.04</speed>
  <fix>3d</fix>
</trkpt>
<trkpt lat="40.072856" lon="-105.2308773">
  <ele>1595.55</ele>
  <time>2026-08-27T18:30:04Z</time>
  <course>303.08</course>
  <speed>0.02</speed>
  <fix>3d</fix>
</trkpt>
<trkpt lat="40.072856" lon="-105.2308775">
  <ele>1595.44</ele>
  <time>2026-08-27T18:30:04Z</time>
  <course>272.77</course>
  <speed>0.04</speed>
  <fix>3d</fix>
</trkpt>
<trkpt lat="40.072856" lon="-105.2308774">
  <ele>1595.55</ele>
  <time>2026-08-27T18:30:04Z</time>
  <course>303.08</course>
  <speed>0.02</speed>
  <fix>3d</fix>
</trkpt>
<trkpt lat="40.072856" lon="-105.2308776">
  <ele>1595.44</ele>
  <time>2026-08-27T18:30:04Z</time>
  <course>272.95</course>
  <speed>0.04</speed>
  <fix>3d</fix>
</trkpt>
<trkpt lat="40.072856" lon="-105.2308775">
  <ele>1595.55</ele>
  <time>2026-08-27T18:30:04Z</time>
  <course>303.08</course>
  <speed>0.02</speed>
  <fix>3d</fix>
</trkpt>
<trkpt lat="40.072856" lon="-105.2308777">
  <ele>1595.44</ele>
  <time>2026-08-27T18:30:04Z</time>
  <course>273.18</course>
  <speed>0.04</speed>
  <fix>3d</fix>
</trkpt>
<trkpt lat="40.072856" lon="-105.2308776">
  <ele>1595.55</ele>
  <time>2026-08-27T18:30:04Z</time>
  <course>303.07</course>
  <speed>0.02</speed>
  <fix>3d</fix>
</trkpt>
<trkpt lat="40.072856" lon="-105.2308779">
  <ele>1595.45</ele>
  <time>2026-08-27T18:30:04Z</time>
  <course>273.55</course>
  <speed>0.05</speed>
  <fix>3d</fix>
</trkpt>
<trkpt lat="40.072856" lon="-105.2308777">
  <ele>1595.55</ele>
  <time>2026-08-27T18:30:04Z</time>
  <course>303.07</course>
  <speed>0.02</speed>
  <fix>3d</fix>
</trkpt>
<trkpt lat="40.072856" lon="-105.230878">
  <ele>1595.45</ele>
  <time>2026-08-27T18:30:04Z</time>
  <course>273.86</course>
  <speed>0.05</speed>
  <fix>3d</fix>
</trkpt>
<trkpt lat="40.072856" lon="-105.2308779">
  <ele>1595.55</ele>
  <time>2026-08-27T18:30:04Z</time>
  <course>303.07</course>
  <speed>0.02</speed>
  <fix>3d</fix>
</trkpt>
<trkpt lat="40.072856" lon="-105.2308781">
  <ele>1595.45</ele>
  <time>2026-08-27T18:30:04Z</time>
  <course>274.39</course>
  <speed>0.05</speed>
  <fix>3d</fix>
</trkpt>
<trkpt lat="40.072856" lon="-105.230878">
  <ele>1595.55</ele>
  <time>2026-08-27T18:30:04Z</time>
  <course>303.09</course>
  <speed>0.03</speed>
  <fix>3d</fix>
</trkpt>
<trkpt lat="40.072856" lon="-105.2308782">
  <ele>1595.45</ele>
  <time>2026-08-27T18:30:04Z</time>
  <course>274.65</course>
  <speed>0.05</speed>
  <fix>3d</fix>
</trkpt>
<trkpt lat="40.072856" lon="-105.2308781">
  <ele>1595.56</ele>
  <time>2026-08-27T18:30:04Z</time>
  <course>303.09</course>
  <speed>0.03</speed>
  <fix>3d</fix>
</trkpt>
<trkpt lat="40.072856" lon="-105.2308784">
  <ele>1595.45</ele>
  <time>2026-08-27T18:30:04Z</time>
  <course>274.74</course>
  <speed>0.05</speed>
  <fix>3d</fix>
</trkpt>
<trkpt lat="40.072856" lon="-105.2308783">
  <ele>1595.56</ele>
  <time>2026-08-27T18:30:04Z</time>
  <course>303.09</course>
  <speed>0.03</speed>
  <fix>3d</fix>
</trkpt>
<trkpt lat="40.0728561" lon="-105.2308785">
  <ele>1595.46</ele>
  <time>2026-08-27T18:30:04Z</time>
  <course>275.11</course>
  <speed>0.05</speed>
  <fix>3d</fix>
</trkpt>
<trkpt lat="40.072856" lon="-105.2308784">
  <ele>1595.57</ele>
  <time>2026-08-27T18:30:04Z</time>
  <course>302.69</course>
  <speed>0.0282842712474619</speed>
  <fix>3d</fix>
</trkpt>
<trkpt lat="40.0728561" lon="-105.2308787">
  <ele>1595.46</ele>
  <time>2026-08-27T18:30:04Z</time>
  <course>275.86</course>
  <speed>0.06</speed>
  <fix>3d</fix>
</trkpt>
<trkpt lat="40.072856" lon="-105.2308786">
  <ele>1595.57</ele>
  <time>2026-08-27T18:30:04Z</time>
  <course>303.38</course>
  <speed>0.03</speed>
  <fix>3d</fix>
</trkpt>
<trkpt lat="40.0728561" lon="-105.2308788">
  <ele>1595.46</ele>
  <time>2026-08-27T18:30:04Z</time>
  <course>268.49</course>
  <speed>0.06</speed>
  <fix>3d</fix>
</trkpt>
<trkpt lat="40.072856" lon="-105.2308787">
  <ele>1595.57</ele>
  <time>2026-08-27T18:30:04Z</time>
  <course>303.15</course>
  <speed>0.03</speed>
  <fix>3d</fix>
</trkpt>
<trkpt lat="40.0728561" lon="-105.2308789">
  <ele>1595.46</ele>
  <time>2026-08-27T18:30:04Z</time>
  <course>264.56</course>
  <speed>0.06</speed>
  <fix>3d</fix>
</trkpt>
<trkpt lat="40.072856" lon="-105.2308788">
  <ele>1595.57</ele>
  <time>2026-08-27T18:30:04Z</time>
  <course>302.59</course>
  <speed>0.03</speed>
  <fix>3d</fix>
</trkpt>
<trkpt lat="40.0728561" lon="-105.2308791">
  <ele>1595.46</ele>
  <time>2026-08-27T18:30:04Z</time>
  <course>274.37</course>
  <speed>0.05</speed>
  <fix>3d</fix>
</trkpt>
<trkpt lat="40.072856" lon="-105.230879">
  <ele>1595.57</ele>
  <time>2026-08-27T18:30:04Z</time>
  <course>302.58</course>
  <speed>0.01</speed>
  <fix>3d</fix>
</trkpt>
<trkpt lat="40.0728561" lon="-105.2308792">
  <ele>1595.46</ele>
  <time>2026-08-27T18:30:04Z</time>
  <course>284.9</course>
  <speed>0.04</speed>
  <fix>3d</fix>
</trkpt>
<trkpt lat="40.072856" lon="-105.2308791">
  <ele>1595.56</ele>
  <time>2026-08-27T18:30:04Z</time>
  <course>303.16</course>
  <speed>0.01</speed>
  <fix>3d</fix>
</trkpt>
<trkpt lat="40.0728561" lon="-105.2308793">
  <ele>1595.46</ele>
  <time>2026-08-27T18:30:04Z</time>
  <course>280.24</course>
  <speed>0.04</speed>
  <fix>3d</fix>
</trkpt>
<trkpt lat="40.0728561" lon="-105.2308792">
  <ele>1595.56</ele>
  <time>2026-08-27T18:30:04Z</time>
  <course>303.7</course>
  <speed>0.01414213562373095</speed>
  <fix>3d</fix>
</trkpt>
<trkpt lat="40.0728561" lon="-105.2308794">
  <ele>1595.45</ele>
  <time>2026-08-27T18:30:04Z</time>
  <course>264.85</course>
  <speed>0.04</speed>
  <fix>3d</fix>
</trkpt>
<trkpt lat="40.0728561" lon="-105.2308792">
  <ele>1595.55</ele>
  <time>2026-08-27T18:30:04Z</time>
  <course>303.57</course>
  <speed>0.01</speed>
  <fix>3d</fix>
</trkpt>
<trkpt lat="40.0728561" lon="-105.2308795">
  <ele>1595.45</ele>
  <time>2026-08-27T18:30:04Z</time>
  <course>257.12</course>
  <speed>0.04</speed>
  <fix>3d</fix>
</trkpt>
<trkpt lat="40.0728561" lon="-105.2308793">
  <ele>1595.54</ele>
  <time>2026-08-27T18:30:04Z</time>
  <course>302.92</course>
  <speed>0.02</speed>
  <fix>3d</fix>
</trkpt>
<trkpt lat="40.0728561" lon="-105.2308796">
  <ele>1595.45</ele>
  <time>2026-08-27T18:30:04Z</time>
  <course>262.69</course>
  <speed>0.04</speed>
  <fix>3d</fix>
</trkpt>
<trkpt lat="40.0728561" lon="-105.2308794">
  <ele>1595.54</ele>
  <time>2026-08-27T18:30:04Z</time>
  <course>302.42</course>
  <speed>0.01</speed>
  <fix>3d</fix>
</trkpt>
<trkpt lat="40.0728561" lon="-105.2308797">
  <ele>1595.45</ele>
  <time>2026-08-27T18:30:04Z</time>
  <course>279.3</course>
  <speed>0.03</speed>
  <fix>3d</fix>
</trkpt>
<trkpt lat="40.0728561" lon="-105.2308795">
  <ele>1595.55</ele>
  <time>2026-08-27T18:30:04Z</time>
  <course>302.64</course>
  <speed>0.01</speed>
  <fix>3d</fix>
</trkpt>
<trkpt lat="40.0728561" lon="-105.2308798">
  <ele>1595.45</ele>
  <time>2026-08-27T18:30:04Z</time>
  <course>287.55</course>
  <speed>0.03</speed>
  <fix>3d</fix>
</trkpt>
<trkpt lat="40.0728561" lon="-105.2308796">
  <ele>1595.55</ele>
  <time>2026-08-27T18:30:04Z</time>
  <course>303.29</course>
  <speed>0.01</speed>
  <fix>3d</fix>
</trkpt>
<trkpt lat="40.0728561" lon="-105.2308798">
  <ele>1595.46</ele>
  <time>2026-08-27T18:30:04Z</time>
  <course>272.88</course>
  <speed>0.03</speed>
  <fix>3d</fix>
</trkpt>
<trkpt lat="40.0728561" lon="-105.2308797">
  <ele>1595.55</ele>
  <time>2026-08-27T18:30:04Z</time>
  <course>303.71</course>
  <speed>0.0</speed>
  <fix>3d</fix>
</trkpt>
<trkpt lat="40.0728561" lon="-105.2308799">
  <ele>1595.46</ele>
  <time>2026-08-27T18:30:04Z</time>
  <course>255.88</course>
  <speed>0.04</speed>
  <fix>3d</fix>
</trkpt>
<trkpt lat="40.0728561" lon="-105.2308798">
  <ele>1595.56</ele>
  <time>2026-08-27T18:30:04Z</time>
  <course>303.43</course>
  <speed>0.01</speed>
  <fix>3d</fix>
</trkpt>
<trkpt lat="40.0728561" lon="-105.23088">
  <ele>1595.46</ele>
  <time>2026-08-27T18:30:04Z</time>
  <course>251.96</course>
  <speed>0.04</speed>
  <fix>3d</fix>
</trkpt>
<trkpt lat="40.0728561" lon="-105.2308799">
  <ele>1595.56</ele>
  <time>2026-08-27T18:30:04Z</time>
  <course>302.76</course>
  <speed>0.01414213562373095</speed>
  <fix>3d</fix>
</trkpt>
<trkpt lat="40.0728561" lon="-105.2308801">
  <ele>1595.47</ele>
  <time>2026-08-27T18:30:04Z</time>
  <course>261.51</course>
  <speed>0.03</speed>
  <fix>3d</fix>
</trkpt>
<trkpt lat="40.0728561" lon="-105.2308799">
  <ele>1595.56</ele>
  <time>2026-08-27T18:30:04Z</time>
  <course>302.45</course>
  <speed>0.01</speed>
  <fix>3d</fix>
</trkpt>
<trkpt lat="40.0728561" lon="-105.2308802">
  <ele>1595.47</ele>
  <time>2026-08-27T18:30:04Z</time>
  <course>279.52</course>
  <speed>0.03</speed>
  <fix>3d</fix>
</trkpt>
<trkpt lat="40.0728561" lon="-105.23088">
  <ele>1595.56</ele>
  <time>2026-08-27T18:30:04Z</time>
  <course>302.84</course>
  <speed>0.01</speed>
  <fix>3d</fix>
</trkpt>
<trkpt lat="40.0728561" lon="-105.2308803">
  <ele>1595.47</ele>
  <time>2026-08-27T18:30:04Z</time>
  <course>282.07</course>
  <speed>0.02</speed>
  <fix>3d</fix>
</trkpt>
<trkpt lat="40.0728561" lon="-105.2308801">
  <ele>1595.56</ele>
  <time>2026-08-27T18:30:04Z</time>
  <course>304.13</course>
  <speed>0.01</speed>
  <fix>3d</fix>
</trkpt>
<trkpt lat="40.0728561" lon="-105.2308803">
  <ele>1595.47</ele>
  <time>2026-08-27T18:30:04Z</time>
  <course>262.12</course>
  <speed>0.03</speed>
  <fix>3d</fix>
</trkpt>
<trkpt lat="40.0728561" lon="-105.2308802">
  <ele>1595.56</ele>
  <time>2026-08-27T18:30:04Z</time>
  <course>303.56</course>
  <speed>0.0</speed>
  <fix>3d</fix>
</trkpt>
<trkpt lat="40.0728561" lon="-105.2308804">
  <ele>1595.47</ele>
  <time>2026-08-27T18:30:04Z</time>
  <course>259.36</course>
  <speed>0.03</speed>
  <fix>3d</fix>
</trkpt>
<trkpt lat="40.0728561" lon="-105.2308802">
  <ele>1595.56</ele>
  <time>2026-08-27T18:30:04Z</time>
  <course>302.87</course>
  <speed>0.01</speed>
  <fix>3d</fix>
</trkpt>
<trkpt lat="40.0728561" lon="-105.2308805">
  <ele>1595.47</ele>
  <time>2026-08-27T18:30:04Z</time>
  <course>268.31</course>
  <speed>0.03</speed>
  <fix>3d</fix>
</trkpt>
<trkpt lat="40.0728561" lon="-105.2308803">
  <ele>1595.56</ele>
  <time>2026-08-27T18:30:04Z</time>
  <course>302.58</course>
  <speed>0.01</speed>
  <fix>3d</fix>
</trkpt>
<trkpt lat="40.0728561" lon="-105.2308806">
  <ele>1595.47</ele>
  <time>2026-08-27T18:30:04Z</time>
  <course>267.43</course>
  <speed>0.03</speed>
  <fix>3d</fix>
</trkpt>
<trkpt lat="40.0728561" lon="-105.2308804">
  <ele>1595.55</ele>
  <time>2026-08-27T18:30:04Z</time>
  <course>302.45</course>
  <speed>0.01</speed>
  <fix>3d</fix>
</trkpt>
<trkpt lat="40.0728561" lon="-105.2308807">
  <ele>1595.47</ele>
  <time>2026-08-27T18:30:04Z</time>
  <course>266.91</course>
  <speed>0.04</speed>
  <fix>3d</fix>
</trkpt>
<trkpt lat="40.0728561" lon="-105.2308805">
  <ele>1595.55</ele>
  <time>2026-08-27T18:30:04Z</time>
  <course>302.39</course>
  <speed>0.01</speed>
  <fix>3d</fix>
</trkpt>
<trkpt lat="40.0728561" lon="-105.2308808">
  <ele>1595.47</ele>
  <time>2026-08-27T18:30:04Z</time>
  <course>267.28</course>
  <speed>0.04</speed>
  <fix>3d</fix>
</trkpt>
<trkpt lat="40.0728561" lon="-105.2308806">
  <ele>1595.55</ele>
  <time>2026-08-27T18:30:04Z</time>
  <course>302.37</course>
  <speed>0.01</speed>
  <fix>3d</fix>
</trkpt>
<trkpt lat="40.0728561" lon="-105.2308809">
  <ele>1595.47</ele>
  <time>2026-08-27T18:30:04Z</time>
  <course>268.33</course>
  <speed>0.04</speed>
  <fix>3d</fix>
</trkpt>
<trkpt lat="40.0728561" lon="-105.2308807">
  <ele>1595.55</ele>
  <time>2026-08-27T18:30:04Z</time>
  <course>302.37</course>
  <speed>0.01</speed>
  <fix>3d</fix>
</trkpt>
<trkpt lat="40.0728561" lon="-105.230881">
  <ele>1595.47</ele>
  <time>2026-08-27T18:30:04Z</time>
  <course>268.93</course>
  <speed>0.04</speed>
  <fix>3d</fix>
</trkpt>
<trkpt lat="40.0728561" lon="-105.2308808">
  <ele>1595.56</ele>
  <time>2026-08-27T18:30:04Z</time>
  <course>302.38</course>
  <speed>0.02</speed>
  <fix>3d</fix>
</trkpt>
<trkpt lat="40.0728561" lon="-105.2308811">
  <ele>1595.48</ele>
  <time>2026-08-27T18:30:04Z</time>
  <course>269.19</course>
  <speed>0.04</speed>
  <fix>3d</fix>
</trkpt>
<trkpt lat="40.0728561" lon="-105.230881">
  <ele>1595.56</ele>
  <time>2026-08-27T18:30:04Z</time>
  <course>302.38</course>
  <speed>0.02</speed>
  <fix>3d</fix>
</trkpt>
<trkpt lat="40.0728561" lon="-105.2308812">
  <ele>1595.48</ele>
  <time>2026-08-27T18:30:04Z</time>
  <course>269.81</course>
  <speed>0.04</speed>
  <fix>3d</fix>
</trkpt>
<trkpt lat="40.0728561" lon="-105.2308811">
  <ele>1595.56</ele>
  <time>2026-08-27T18:30:04Z</time>
  <course>302.39</course>
  <speed>0.02</speed>
  <fix>3d</fix>
</trkpt>
<trkpt lat="40.0728561" lon="-105.2308813">
  <ele>1595.48</ele>
  <time>2026-08-27T18:30:04Z</time>
  <course>270.24</course>
  <speed>0.05</speed>
  <fix>3d</fix>
</trkpt>
<trkpt lat="40.0728561" lon="-105.2308812">
  <ele>1595.56</ele>
  <time>2026-08-27T18:30:04Z</time>
  <course>302.39</course>
  <speed>0.02</speed>
  <fix>3d</fix>
</trkpt>
<trkpt lat="40.0728561" lon="-105.2308814">
  <ele>1595.48</ele>
  <time>2026-08-27T18:30:04Z</time>
  <course>270.51</course>
  <speed>0.05</speed>
  <fix>3d</fix>
</trkpt>
<trkpt lat="40.0728561" lon="-105.2308813">
  <ele>1595.55</ele>
  <time>2026-08-27T18:30:04Z</time>
  <course>302.39</course>
  <speed>0.03</speed>
  <fix>3d</fix>
</trkpt>
<trkpt lat="40.0728561" lon="-105.2308816">
  <ele>1595.48</ele>
  <time>2026-08-27T18:30:04Z</time>
  <course>270.8</course>
  <speed>0.05</speed>
  <fix>3d</fix>
</trkpt>
<trkpt lat="40.0728561" lon="-105.2308815">
  <ele>1595.55</ele>
  <time>2026-08-27T18:30:04Z</time>
  <course>302.39</course>
  <speed>0.03</speed>
  <fix>3d</fix>
</trkpt>
<trkpt lat="40.0728561" lon="-105.2308817">
  <ele>1595.48</ele>
  <time>2026-08-27T18:30:04Z</time>
  <course>271.2</course>
  <speed>0.05</speed>
  <fix>3d</fix>
</trkpt>
<trkpt lat="40.0728561" lon="-105.2308816">
  <ele>1595.55</ele>
  <time>2026-08-27T18:30:04Z</time>
  <course>302.37</course>
  <speed>0.03</speed>
  <fix>3d</fix>
</trkpt>
<trkpt lat="40.0728561" lon="-105.2308818">
  <ele>1595.48</ele>
  <time>2026-08-27T18:30:04Z</time>
  <course>271.73</course>
  <speed>0.05</speed>
  <fix>3d</fix>
</trkpt>
<trkpt lat="40.0728561" lon="-105.2308818">
  <ele>1595.56</ele>
  <time>2026-08-27T18:30:04Z</time>
  <course>302.38</course>
  <speed>0.03</speed>
  <fix>3d</fix>
</trkpt>
<trkpt lat="40.0728561" lon="-105.230882">
  <ele>1595.49</ele>
  <time>2026-08-27T18:30:04Z</time>
  <course>272.24</course>
  <speed>0.05</speed>
  <fix>3d</fix>
</trkpt>
<trkpt lat="40.0728561" lon="-105.2308819">
  <ele>1595.56</ele>
  <time>2026-08-27T18:30:04Z</time>
  <course>302.39</course>
  <speed>0.03</speed>
  <fix>3d</fix>
</trkpt>
<trkpt lat="40.0728561" lon="-105.2308821">
  <ele>1595.49</ele>
  <time>2026-08-27T18:30:04Z</time>
  <course>272.5</course>
  <speed>0.06</speed>
  <fix>3d</fix>
</trkpt>
<trkpt lat="40.0728561" lon="-105.230882">
  <ele>1595.56</ele>
  <time>2026-08-27T18:30:04Z</time>
  <course>301.22</course>
  <speed>0.04</speed>
  <fix>3d</fix>
</trkpt>
<trkpt lat="40.0728561" lon="-105.2308822">
  <ele>1595.49</ele>
  <time>2026-08-27T18:30:04Z</time>
  <course>275.88</course>
  <speed>0.05</speed>
  <fix>3d</fix>
</trkpt>
<trkpt lat="40.0728561" lon="-105.2308822">
  <ele>1595.56</ele>
  <time>2026-08-27T18:30:05Z</time>
  <course>301.7</course>
  <speed>0.022360679774997897</speed>
  <fix>3d</fix>
</trkpt>
<trkpt lat="40.0728561" lon="-105.2308824">
  <ele>1595.49</ele>
  <time>2026-08-27T18:30:05Z</time>
  <course>281.31</course>
  <speed>0.05</speed>
  <fix>3d</fix>
</trkpt>
<trkpt lat="40.0728561" lon="-105.2308823">
  <ele>1595.56</ele>
  <time>2026-08-27T18:30:05Z</time>
  <course>302.5</course>
  <speed>0.01414213562373095</speed>
  <fix>3d</fix>
</trkpt>
<trkpt lat="40.0728561" lon="-105.2308825">
  <ele>1595.49</ele>
  <time>2026-08-27T18:30:05Z</time>
  <course>276.59</course>
  <speed>0.05</speed>
  <fix>3d</fix>
</trkpt>
<trkpt lat="40.0728561" lon="-105.2308824">
  <ele>1595.56</ele>
  <time>2026-08-27T18:30:05Z</time>
  <course>303.05</course>
  <speed>0.01</speed>
  <fix>3d</fix>
</trkpt>
<trkpt lat="40.0728561" lon="-105.2308827">
  <ele>1595.5</ele>
  <time>2026-08-27T18:30:05Z</time>
  <course>262.45</course>
  <speed>0.05</speed>
  <fix>3d</fix>
</trkpt>
<trkpt lat="40.0728561" lon="-105.2308825">
  <ele>1595.56</ele>
  <time>2026-08-27T18:30:05Z</time>
  <course>302.78</course>
  <speed>0.02</speed>
  <fix>3d</fix>
</trkpt>
<trkpt lat="40.0728561" lon="-105.2308828">
  <ele>1595.5</ele>
  <time>2026-08-27T18:30:05Z</time>
  <course>256.26</course>
  <speed>0.05</speed>
  <fix>3d</fix>
</trkpt>
<trkpt lat="40.0728561" lon="-105.2308826">
  <ele>1595.56</ele>
  <time>2026-08-27T18:30:05Z</time>
  <course>302.04</course>
  <speed>0.02</speed>
  <fix>3d</fix>
</trkpt>
<trkpt lat="40.0728561" lon="-105.2308829">
  <ele>1595.5</ele>
  <time>2026-08-27T18:30:05Z</time>
  <course>263.93</course>
  <speed>0.04</speed>
  <fix>3d</fix>
</trkpt>
<trkpt lat="40.0728561" lon="-105.2308827">
  <ele>1595.57</ele>
  <time>2026-08-27T18:30:05Z</time>
  <course>301.73</course>
  <speed>0.01</speed>
  <fix>3d</fix>
</trkpt>
<trkpt lat="40.0728561" lon="-105.230883">
  <ele>1595.5</ele>
  <time>2026-08-27T18:30:05Z</time>
  <course>280.43</course>
  <speed>0.03</speed>
  <fix>3d</fix>
</trkpt>
<trkpt lat="40.0728561" lon="-105.2308828">
  <ele>1595.57</ele>
  <time>2026-08-27T18:30:05Z</time>
  <course>302.27</course>
  <speed>0.01</speed>
  <fix>3d</fix>
</trkpt>
<trkpt lat="40.0728561" lon="-105.2308831">
  <ele>1595.5</ele>
  <time>2026-08-27T18:30:05Z</time>
  <course>281.4</course>
  <speed>0.03</speed>
  <fix>3d</fix>
</trkpt>
<trkpt lat="40.0728561" lon="-105.2308829">
  <ele>1595.57</ele>
  <time>2026-08-27T18:30:05Z</time>
  <course>302.95</course>
  <speed>0.01</speed>
  <fix>3d</fix>
</trkpt>
<trkpt lat="40.0728561" lon="-105.2308832">
  <ele>1595.5</ele>
  <time>2026-08-27T18:30:05Z</time>
  <course>263.25</course>
  <speed>0.03</speed>
  <fix>3d</fix>
</trkpt>
<trkpt lat="40.0728561" lon="-105.230883">
  <ele>1595.57</ele>
  <time>2026-08-27T18:30:05Z</time>
  <course>303.0</course>
  <speed>0.01</speed>
  <fix>3d</fix>
</trkpt>
<trkpt lat="40.0728561" lon="-105.2308833">
  <ele>1595.5</ele>
  <time>2026-08-27T18:30:05Z</time>
  <course>252.19</course>
  <speed>0.04</speed>
  <fix>3d</fix>
</trkpt>
<trkpt lat="40.0728561" lon="-105.2308831">
  <ele>1595.56</ele>
  <time>2026-08-27T18:30:05Z</time>
  <course>302.33</course>
  <speed>0.01414213562373095</speed>
  <fix>3d</fix>
</trkpt>
<trkpt lat="40.0728561" lon="-105.2308833">
  <ele>1595.5</ele>
  <time>2026-08-27T18:30:05Z</time>
  <course>255.84</course>
  <speed>0.04</speed>
  <fix>3d</fix>
</trkpt>
<trkpt lat="40.0728561" lon="-105.2308832">
  <ele>1595.56</ele>
  <time>2026-08-27T18:30:05Z</time>
  <course>301.75</course>
  <speed>0.01</speed>
  <fix>3d</fix>
</trkpt>
<trkpt lat="40.0728561" lon="-105.2308834">
  <ele>1595.5</ele>
  <time>2026-08-27T18:30:05Z</time>
  <course>273.66</course>
  <speed>0.03</speed>
  <fix>3d</fix>
</trkpt>
<trkpt lat="40.0728561" lon="-105.2308833">
  <ele>1595.56</ele>
  <time>2026-08-27T18:30:05Z</time>
  <course>301.98</course>
  <speed>0.01</speed>
  <fix>3d</fix>
</trkpt>
<trkpt lat="40.0728561" lon="-105.2308835">
  <ele>1595.5</ele>
  <time>2026-08-27T18:30:05Z</time>
  <course>284.98</course>
  <speed>0.02</speed>
  <fix>3d</fix>
</trkpt>
<trkpt lat="40.0728561" lon="-105.2308833">
  <ele>1595.56</ele>
  <time>2026-08-27T18:30:05Z</time>
  <course>302.73</course>
  <speed>0.01</speed>
  <fix>3d</fix>
</trkpt>
<trkpt lat="40.0728561" lon="-105.2308836">
  <ele>1595.5</ele>
  <time>2026-08-27T18:30:05Z</time>
  <course>269.4</course>
  <speed>0.03</speed>
  <fix>3d</fix>
</trkpt>
<trkpt lat="40.0728561" lon="-105.2308834">
  <ele>1595.57</ele>
  <time>2026-08-27T18:30:05Z</time>
  <course>303.08</course>
  <speed>0.0</speed>
  <fix>3d</fix>
</trkpt>
<trkpt lat="40.0728561" lon="-105.2308837">
  <ele>1595.5</ele>
  <time>2026-08-27T18:30:05Z</time>
  <course>253.03</course>
  <speed>0.04</speed>
  <fix>3d</fix>
</trkpt>
<trkpt lat="40.0728561" lon="-105.2308835">
  <ele>1595.57</ele>
  <time>2026-08-27T18:30:05Z</time>
  <course>302.59</course>
  <speed>0.01414213562373095</speed>
  <fix>3d</fix>
</trkpt>
<trkpt lat="40.0728561" lon="-105.2308838">
  <ele>1595.5</ele>
  <time>2026-08-27T18:30:05Z</time>
  <course>251.69</course>
  <speed>0.04</speed>
  <fix>3d</fix>
</trkpt>
<trkpt lat="40.0728561" lon="-105.2308836">
  <ele>1595.57</ele>
  <time>2026-08-27T18:30:05Z</time>
  <course>301.88</course>
  <speed>0.01</speed>
  <fix>3d</fix>
</trkpt>
<trkpt lat="40.0728561" lon="-105.2308838">
  <ele>1595.5</ele>
  <time>2026-08-27T18:30:05Z</time>
  <course>265.24</course>
  <speed>0.03</speed>
  <fix>3d</fix>
</trkpt>
<trkpt lat="40.0728561" lon="-105.2308837">
  <ele>1595.57</ele>
  <time>2026-08-27T18:30:05Z</time>
  <course>303.77</course>
  <speed>0.01</speed>
  <fix>3d</fix>
</trkpt>
<trkpt lat="40.0728561" lon="-105.2308839">
  <ele>1595.49</ele>
  <time>2026-08-27T18:30:05Z</time>
  <course>267.81</course>
  <speed>0.03</speed>
  <fix>3d</fix>
</trkpt>
<trkpt lat="40.0728561" lon="-105.2308838">
  <ele>1595.57</ele>
  <time>2026-08-27T18:30:05Z</time>
  <course>302.89</course>
  <speed>0.0</speed>
  <fix>3d</fix>
</trkpt>
<trkpt lat="40.0728561" lon="-105.230884">
  <ele>1595.49</ele>
  <time>2026-08-27T18:30:05Z</time>
  <course>264.26</course>
  <speed>0.03</speed>
  <fix>3d</fix>
</trkpt>
<trkpt lat="40.0728561" lon="-105.2308839">
  <ele>1595.57</ele>
  <time>2026-08-27T18:30:05Z</time>
  <course>302.17</course>
  <speed>0.01</speed>
  <fix>3d</fix>
</trkpt>
<trkpt lat="40.072856" lon="-105.2308841">
  <ele>1595.49</ele>
  <time>2026-08-27T18:30:05Z</time>
  <course>268.83</course>
  <speed>0.03</speed>
  <fix>3d</fix>
</trkpt>
<trkpt lat="40.0728561" lon="-105.2308839">
  <ele>1595.57</ele>
  <time>2026-08-27T18:30:05Z</time>
  <course>301.86</course>
  <speed>0.01</speed>
  <fix>3d</fix>
</trkpt>
<trkpt lat="40.072856" lon="-105.2308842">
  <ele>1595.49</ele>
  <time>2026-08-27T18:30:05Z</time>
  <course>268.25</course>
  <speed>0.03</speed>
  <fix>3d</fix>
</trkpt>
<trkpt lat="40.0728561" lon="-105.230884">
  <ele>1595.57</ele>
  <time>2026-08-27T18:30:05Z</time>
  <course>301.74</course>
  <speed>0.01</speed>
  <fix>3d</fix>
</trkpt>
<trkpt lat="40.072856" lon="-105.2308843">
  <ele>1595.49</ele>
  <time>2026-08-27T18:30:05Z</time>
  <course>268.67</course>
  <speed>0.04</speed>
  <fix>3d</fix>
</trkpt>
<trkpt lat="40.0728561" lon="-105.2308841">
  <ele>1595.57</ele>
  <time>2026-08-27T18:30:05Z</time>
  <course>301.69</course>
  <speed>0.01</speed>
  <fix>3d</fix>
</trkpt>
<trkpt lat="40.072856" lon="-105.2308844">
  <ele>1595.49</ele>
  <time>2026-08-27T18:30:05Z</time>
  <course>269.13</course>
  <speed>0.04</speed>
  <fix>3d</fix>
</trkpt>
<trkpt lat="40.0728561" lon="-105.2308842">
  <ele>1595.57</ele>
  <time>2026-08-27T18:30:05Z</time>
  <course>301.66</course>
  <speed>0.02</speed>
  <fix>3d</fix>
</trkpt>
<trkpt lat="40.072856" lon="-105.2308845">
  <ele>1595.48</ele>
  <time>2026-08-27T18:30:05Z</time>
  <course>269.82</course>
  <speed>0.04</speed>
  <fix>3d</fix>
</trkpt>
<trkpt lat="40.0728561" lon="-105.2308844">
  <ele>1595.57</ele>
  <time>2026-08-27T18:30:05Z</time>
  <course>301.66</course>
  <speed>0.02</speed>
  <fix>3d</fix>
</trkpt>
<trkpt lat="40.072856" lon="-105.2308846">
  <ele>1595.48</ele>
  <time>2026-08-27T18:30:05Z</time>
  <course>270.97</course>
  <speed>0.04</speed>
  <fix>3d</fix>
</trkpt>
<trkpt lat="40.0728561" lon="-105.2308845">
  <ele>1595.57</ele>
  <time>2026-08-27T18:30:05Z</time>
  <course>301.66</course>
  <speed>0.02</speed>
  <fix>3d</fix>
</trkpt>
<trkpt lat="40.072856" lon="-105.2308847">
  <ele>1595.48</ele>
  <time>2026-08-27T18:30:05Z</time>
  <course>271.93</course>
  <speed>0.04</speed>
  <fix>3d</fix>
</trkpt>
<trkpt lat="40.0728561" lon="-105.2308846">
  <ele>1595.56</ele>
  <time>2026-08-27T18:30:05Z</time>
  <course>301.67</course>
  <speed>0.02</speed>
  <fix>3d</fix>
</trkpt>
<trkpt lat="40.072856" lon="-105.2308848">
  <ele>1595.48</ele>
  <time>2026-08-27T18:30:05Z</time>
  <course>272.36</course>
  <speed>0.05</speed>
  <fix>3d</fix>
</trkpt>
<trkpt lat="40.0728561" lon="-105.2308847">
  <ele>1595.56</ele>
  <time>2026-08-27T18:30:05Z</time>
  <course>301.66</course>
  <speed>0.02</speed>
  <fix>3d</fix>
</trkpt>
<trkpt lat="40.072856" lon="-105.2308849">
  <ele>1595.48</ele>
  <time>2026-08-27T18:30:05Z</time>
  <course>273.02</course>
  <speed>0.05</speed>
  <fix>3d</fix>
</trkpt>
<trkpt lat="40.0728561" lon="-105.2308848">
  <ele>1595.56</ele>
  <time>2026-08-27T18:30:05Z</time>
  <course>301.66</course>
  <speed>0.02</speed>
  <fix>3d</fix>
</trkpt>
<trkpt lat="40.072856" lon="-105.2308851">
  <ele>1595.48</ele>
  <time>2026-08-27T18:30:05Z</time>
  <course>273.97</course>
  <speed>0.05</speed>
  <fix>3d</fix>
</trkpt>
<trkpt lat="40.0728561" lon="-105.230885">
  <ele>1595.56</ele>
  <time>2026-08-27T18:30:05Z</time>
  <course>301.66</course>
  <speed>0.03</speed>
  <fix>3d</fix>
</trkpt>
<trkpt lat="40.072856" lon="-105.2308852">
  <ele>1595.48</ele>
  <time>2026-08-27T18:30:05Z</time>
  <course>274.65</course>
  <speed>0.05</speed>
  <fix>3d</fix>
</trkpt>
<trkpt lat="40.0728561" lon="-105.2308851">
  <ele>1595.56</ele>
  <time>2026-08-27T18:30:05Z</time>
  <course>301.66</course>
  <speed>0.03</speed>
  <fix>3d</fix>
</trkpt>
<trkpt lat="40.072856" lon="-105.2308853">
  <ele>1595.48</ele>
  <time>2026-08-27T18:30:05Z</time>
  <course>275.29</course>
  <speed>0.05</speed>
  <fix>3d</fix>
</trkpt>
<trkpt lat="40.0728561" lon="-105.2308852">
  <ele>1595.56</ele>
  <time>2026-08-27T18:30:05Z</time>
  <course>301.67</course>
  <speed>0.0316227766016838</speed>
  <fix>3d</fix>
</trkpt>
<trkpt lat="40.072856" lon="-105.2308855">
  <ele>1595.48</ele>
  <time>2026-08-27T18:30:05Z</time>
  <course>275.84</course>
  <speed>0.05</speed>
  <fix>3d</fix>
</trkpt>
<trkpt lat="40.0728561" lon="-105.2308854">
  <ele>1595.56</ele>
  <time>2026-08-27T18:30:05Z</time>
  <course>301.67</course>
  <speed>0.0316227766016838</speed>
  <fix>3d</fix>
</trkpt>
<trkpt lat="40.072856" lon="-105.2308856">
  <ele>1595.48</ele>
  <time>2026-08-27T18:30:05Z</time>
  <course>276.35</course>
  <speed>0.06</speed>
  <fix>3d</fix>
</trkpt>
<trkpt lat="40.0728561" lon="-105.2308855">
  <ele>1595.56</ele>
  <time>2026-08-27T18:30:05Z</time>
  <course>301.5</course>
  <speed>0.0316227766016838</speed>
  <fix>3d</fix>
</trkpt>
<trkpt lat="40.072856" lon="-105.2308857">
  <ele>1595.48</ele>
  <time>2026-08-27T18:30:05Z</time>
  <course>276.84</course>
  <speed>0.06</speed>
  <fix>3d</fix>
</trkpt>
<trkpt lat="40.0728561" lon="-105.2308857">
  <ele>1595.56</ele>
  <time>2026-08-27T18:30:05Z</time>
  <course>301.73</course>
  <speed>0.04</speed>
  <fix>3d</fix>
</trkpt>
<trkpt lat="40.072856" lon="-105.2308859">
  <ele>1595.48</ele>
  <time>2026-08-27T18:30:05Z</time>
  <course>270.91</course>
  <speed>0.06</speed>
  <fix>3d</fix>
</trkpt>
<trkpt lat="40.0728561" lon="-105.2308858">
  <ele>1595.56</ele>
  <time>2026-08-27T18:30:05Z</time>
  <course>301.46</course>
  <speed>0.03</speed>
  <fix>3d</fix>
</trkpt>
<trkpt lat="40.072856" lon="-105.230886">
  <ele>1595.48</ele>
  <time>2026-08-27T18:30:05Z</time>
  <course>269.5</course>
  <speed>0.06</speed>
  <fix>3d</fix>
</trkpt>
<trkpt lat="40.0728561" lon="-105.2308859">
  <ele>1595.56</ele>
  <time>2026-08-27T18:30:05Z</time>
  <course>301.06</course>
  <speed>0.02</speed>
  <fix>3d</fix>
</trkpt>
<trkpt lat="40.072856" lon="-105.2308861">
  <ele>1595.48</ele>
  <time>2026-08-27T18:30:05Z</time>
  <course>280.29</course>
  <speed>0.05</speed>
  <fix>3d</fix>
</trkpt>
<trkpt lat="40.0728561" lon="-105.2308861">
  <ele>1595.56</ele>
  <time>2026-08-27T18:30:05Z</time>
  <course>301.19</course>
  <speed>0.01414213562373095</speed>
  <fix>3d</fix>
</trkpt>
<trkpt lat="40.072856" lon="-105.2308863">
  <ele>1595.48</ele>
  <time>2026-08-27T18:30:05Z</time>
  <course>287.77</course>
  <speed>0.04</speed>
  <fix>3d</fix>
</trkpt>
<trkpt lat="40.0728561" lon="-105.2308862">
  <ele>1595.56</ele>
  <time>2026-08-27T18:30:05Z</time>
  <course>301.77</course>
  <speed>0.01</speed>
  <fix>3d</fix>
</trkpt>
<trkpt lat="40.072856" lon="-105.2308864">
  <ele>1595.48</ele>
  <time>2026-08-27T18:30:05Z</time>
  <course>280.36</course>
  <speed>0.04</speed>
  <fix>3d</fix>
</trkpt>
<trkpt lat="40.0728561" lon="-105.2308862">
  <ele>1595.56</ele>
  <time>2026-08-27T18:30:05Z</time>
  <course>302.24</course>
  <speed>0.01414213562373095</speed>
  <fix>3d</fix>
</trkpt>
<trkpt lat="40.0728561" lon="-105.2308865">
  <ele>1595.48</ele>
  <time>2026-08-27T18:30:05Z</time>
  <course>265.31</course>
  <speed>0.04</speed>
  <fix>3d</fix>
</trkpt>
<trkpt lat="40.0728561" lon="-105.2308863">
  <ele>1595.56</ele>
  <time>2026-08-27T18:30:05Z</time>
  <course>302.2</course>
  <speed>0.01</speed>
  <fix>3d</fix>
</trkpt>
<trkpt lat="40.0728561" lon="-105.2308866">
  <ele>1595.48</ele>
  <time>2026-08-27T18:30:05Z</time>
  <course>257.83</course>
  <speed>0.04</speed>
  <fix>3d</fix>
</trkpt>
<trkpt lat="40.0728561" lon="-105.2308864">
  <ele>1595.56</ele>
  <time>2026-08-27T18:30:05Z</time>
  <course>301.65</course>
  <speed>0.022360679774997897</speed>
  <fix>3d</fix>
</trkpt>
<trkpt lat="40.0728561" lon="-105.2308867">
  <ele>1595.48</ele>
  <time>2026-08-27T18:30:05Z</time>
  <course>262.01</course>
  <speed>0.04</speed>
  <fix>3d</fix>
</trkpt>
<trkpt lat="40.0728561" lon="-105.2308865">
  <ele>1595.56</ele>
  <time>2026-08-27T18:30:05Z</time>
  <course>301.12</course>
  <speed>0.01</speed>
  <fix>3d</fix>
</trkpt>
<trkpt lat="40.0728561" lon="-105.2308868">
  <ele>1595.48</ele>
  <time>2026-08-27T18:30:05Z</time>
  <course>277.12</course>
  <speed>0.03</speed>
  <fix>3d</fix>
</trkpt>
<trkpt lat="40.0728561" lon="-105.2308866">
  <ele>1595.56</ele>
  <time>2026-08-27T18:30:05Z</time>
  <course>301.11</course>
  <speed>0.0</speed>
  <fix>3d</fix>
</trkpt>
<trkpt lat="40.0728561" lon="-105.2308869">
  <ele>1595.48</ele>
  <time>2026-08-27T18:30:05Z</time>
  <course>289.73</course>
  <speed>0.03</speed>
  <fix>3d</fix>
</trkpt>
<trkpt lat="40.0728561" lon="-105.2308867">
  <ele>1595.56</ele>
  <time>2026-08-27T18:30:05Z</time>
  <course>301.64</course>
  <speed>0.01</speed>
  <fix>3d</fix>
</trkpt>
<trkpt lat="40.0728561" lon="-105.2308869">
  <ele>1595.48</ele>
  <time>2026-08-27T18:30:05Z</time>
  <course>282.28</course>
  <speed>0.03</speed>
  <fix>3d</fix>
</trkpt>
<trkpt lat="40.0728561" lon="-105.2308868">
  <ele>1595.56</ele>
  <time>2026-08-27T18:30:05Z</time>
  <course>302.2</course>
  <speed>0.01</speed>
  <fix>3d</fix>
</trkpt>
<trkpt lat="40.0728561" lon="-105.230887">
  <ele>1595.48</ele>
  <time>2026-08-27T18:30:05Z</time>
  <course>263.53</course>
  <speed>0.03</speed>
  <fix>3d</fix>
</trkpt>
<trkpt lat="40.0728561" lon="-105.2308869">
  <ele>1595.56</ele>
  <time>2026-08-27T18:30:05Z</time>
  <course>302.26</course>
  <speed>0.01</speed>
  <fix>3d</fix>
</trkpt>
<trkpt lat="40.0728561" lon="-105.2308871">
  <ele>1595.48</ele>
  <time>2026-08-27T18:30:05Z</time>
  <course>253.29</course>
  <speed>0.04</speed>
  <fix>3d</fix>
</trkpt>
<trkpt lat="40.0728561" lon="-105.2308869">
  <ele>1595.56</ele>
  <time>2026-08-27T18:30:05Z</time>
  <course>301.75</course>
  <speed>0.01414213562373095</speed>
  <fix>3d</fix>
</trkpt>
<trkpt lat="40.0728561" lon="-105.2308872">
  <ele>1595.48</ele>
  <time>2026-08-27T18:30:05Z</time>
  <course>255.54</course>
  <speed>0.04</speed>
  <fix>3d</fix>
</trkpt>
<trkpt lat="40.0728561" lon="-105.230887">
  <ele>1595.56</ele>
  <time>2026-08-27T18:30:05Z</time>
  <course>301.16</course>
  <speed>0.01</speed>
  <fix>3d</fix>
</trkpt>
<trkpt lat="40.0728561" lon="-105.2308873">
  <ele>1595.48</ele>
  <time>2026-08-27T18:30:05Z</time>
  <course>269.87</course>
  <speed>0.03</speed>
  <fix>3d</fix>
</trkpt>
<trkpt lat="40.0728561" lon="-105.2308871">
  <ele>1595.56</ele>
  <time>2026-08-27T18:30:05Z</time>
  <course>301.07</course>
  <speed>0.0</speed>
  <fix>3d</fix>
</trkpt>
<trkpt lat="40.0728561" lon="-105.2308874">
  <ele>1595.48</ele>
  <time>2026-08-27T18:30:05Z</time>
  <course>285.3</course>
  <speed>0.03</speed>
  <fix>3d</fix>
</trkpt>
<trkpt lat="40.0728561" lon="-105.2308872">
  <ele>1595.56</ele>
  <time>2026-08-27T18:30:05Z</time>
  <course>302.85</course>
  <speed>0.01</speed>
  <fix>3d</fix>
</trkpt>
<trkpt lat="40.0728561" lon="-105.2308874">
  <ele>1595.48</ele>
  <time>2026-08-27T18:30:05Z</time>
  <course>270.99</course>
  <speed>0.03</speed>
  <fix>3d</fix>
</trkpt>
<trkpt lat="40.0728561" lon="-105.2308873">
  <ele>1595.56</ele>
  <time>2026-08-27T18:30:05Z</time>
  <course>302.13</course>
  <speed>0.0</speed>
  <fix>3d</fix>
</trkpt>
<trkpt lat="40.0728561" lon="-105.2308875">
  <ele>1595.48</ele>
  <time>2026-08-27T18:30:05Z</time>
  <course>263.23</course>
  <speed>0.03</speed>
  <fix>3d</fix>
</trkpt>
<trkpt lat="40.0728561" lon="-105.2308874">
  <ele>1595.56</ele>
  <time>2026-08-27T18:30:05Z</time>
  <course>301.43</course>
  <speed>0.01</speed>
  <fix>3d</fix>
</trkpt>
<trkpt lat="40.0728561" lon="-105.2308876">
  <ele>1595.48</ele>
  <time>2026-08-27T18:30:05Z</time>
  <course>269.61</course>
  <speed>0.03</speed>
  <fix>3d</fix>
</trkpt>
<trkpt lat="40.0728561" lon="-105.2308874">
  <ele>1595.55</ele>
  <time>2026-08-27T18:30:05Z</time>
  <course>301.14</course>
  <speed>0.01</speed>
  <fix>3d</fix>
</trkpt>
<trkpt lat="40.0728561" lon="-105.2308877">
  <ele>1595.48</ele>
  <time>2026-08-27T18:30:05Z</time>
  <course>268.35</course>
  <speed>0.03</speed>
  <fix>3d</fix>
</trkpt>
<trkpt lat="40.0728561" lon="-105.2308875">
  <ele>1595.55</ele>
  <time>2026-08-27T18:30:05Z</time>
  <course>300.99</course>
  <speed>0.01</speed>
  <fix>3d</fix>
</trkpt>
<trkpt lat="40.0728561" lon="-105.2308878">
  <ele>1595.48</ele>
  <time>2026-08-27T18:30:05Z</time>
  <course>267.63</course>
  <speed>0.04</speed>
  <fix>3d</fix>
</trkpt>
<trkpt lat="40.0728561" lon="-105.2308876">
  <ele>1595.55</ele>
  <time>2026-08-27T18:30:05Z</time>
  <course>300.94</course>
  <speed>0.01</speed>
  <fix>3d</fix>
</trkpt>
<trkpt lat="40.0728561" lon="-105.2308879">
  <ele>1595.48</ele>
  <time>2026-08-27T18:30:05Z</time>
  <course>268.02</course>
  <speed>0.04</speed>
  <fix>3d</fix>
</trkpt>
<trkpt lat="40.0728561" lon="-105.2308877">
  <ele>1595.55</ele>
  <time>2026-08-27T18:30:05Z</time>
  <course>300.92</course>
  <speed>0.01</speed>
  <fix>3d</fix>
</trkpt>
<trkpt lat="40.0728561" lon="-105.230888">
  <ele>1595.48</ele>
  <time>2026-08-27T18:30:05Z</time>
  <course>268.49</course>
  <speed>0.04</speed>
  <fix>3d</fix>
</trkpt>
<trkpt lat="40.0728561" lon="-105.2308879">
  <ele>1595.56</ele>
  <time>2026-08-27T18:30:05Z</time>
  <course>300.93</course>
  <speed>0.02</speed>
  <fix>3d</fix>
</trkpt>
<trkpt lat="40.0728561" lon="-105.2308881">
  <ele>1595.48</ele>
  <time>2026-08-27T18:30:05Z</time>
  <course>268.76</course>
  <speed>0.04</speed>
  <fix>3d</fix>
</trkpt>
<trkpt lat="40.0728561" lon="-105.230888">
  <ele>1595.55</ele>
  <time>2026-08-27T18:30:05Z</time>
  <course>300.93</course>
  <speed>0.02</speed>
  <fix>3d</fix>
</trkpt>
<trkpt lat="40.0728561" lon="-105.2308882">
  <ele>1595.48</ele>
  <time>2026-08-27T18:30:05Z</time>
  <course>268.83</course>
  <speed>0.04</speed>
  <fix>3d</fix>
</trkpt>
<trkpt lat="40.0728561" lon="-105.2308881">
  <ele>1595.55</ele>
  <time>2026-08-27T18:30:05Z</time>
  <course>300.93</course>
  <speed>0.02</speed>
  <fix>3d</fix>
</trkpt>
<trkpt lat="40.0728561" lon="-105.2308883">
  <ele>1595.49</ele>
  <time>2026-08-27T18:30:05Z</time>
  <course>268.74</course>
  <speed>0.04</speed>
  <fix>3d</fix>
</trkpt>
<trkpt lat="40.0728561" lon="-105.2308882">
  <ele>1595.56</ele>
  <time>2026-08-27T18:30:05Z</time>
  <course>300.94</course>
  <speed>0.02</speed>
  <fix>3d</fix>
</trkpt>
<trkpt lat="40.0728561" lon="-105.2308884">
  <ele>1595.49</ele>
  <time>2026-08-27T18:30:05Z</time>
  <course>268.9</course>
  <speed>0.05</speed>
  <fix>3d</fix>
</trkpt>
<trkpt lat="40.0728561" lon="-105.2308883">
  <ele>1595.56</ele>
  <time>2026-08-27T18:30:05Z</time>
  <course>300.94</course>
  <speed>0.02</speed>
  <fix>3d</fix>
</trkpt>
<trkpt lat="40.0728561" lon="-105.2308885">
  <ele>1595.49</ele>
  <time>2026-08-27T18:30:05Z</time>
  <course>269.43</course>
  <speed>0.05</speed>
  <fix>3d</fix>
</trkpt>
<trkpt lat="40.0728561" lon="-105.2308884">
  <ele>1595.56</ele>
  <time>2026-08-27T18:30:05Z</time>
  <course>300.95</course>
  <speed>0.02</speed>
  <fix>3d</fix>
</trkpt>
<trkpt lat="40.0728561" lon="-105.2308887">
  <ele>1595.49</ele>
  <time>2026-08-27T18:30:05Z</time>
  <course>269.88</course>
  <speed>0.05</speed>
  <fix>3d</fix>
</trkpt>
<trkpt lat="40.0728561" lon="-105.2308886">
  <ele>1595.56</ele>
  <time>2026-08-27T18:30:05Z</time>
  <course>300.95</course>
  <speed>0.02</speed>
  <fix>3d</fix>
</trkpt>
<trkpt lat="40.0728561" lon="-105.2308888">
  <ele>1595.49</ele>
  <time>2026-08-27T18:30:05Z</time>
  <course>270.11</course>
  <speed>0.05</speed>
  <fix>3d</fix>
</trkpt>
<trkpt lat="40.0728561" lon="-105.2308887">
  <ele>1595.56</ele>
  <time>2026-08-27T18:30:05Z</time>
  <course>300.95</course>
  <speed>0.03</speed>
  <fix>3d</fix>
</trkpt>
<trkpt lat="40.0728561" lon="-105.2308889">
  <ele>1595.49</ele>
  <time>2026-08-27T18:30:05Z</time>
  <course>270.37</course>
  <speed>0.05</speed>
  <fix>3d</fix>
</trkpt>
<trkpt lat="40.0728561" lon="-105.2308888">
  <ele>1595.56</ele>
  <time>2026-08-27T18:30:05Z</time>
  <course>300.96</course>
  <speed>0.03</speed>
  <fix>3d</fix>
</trkpt>
<trkpt lat="40.0728561" lon="-105.2308891">
  <ele>1595.49</ele>
  <time>2026-08-27T18:30:05Z</time>
  <course>270.64</course>
  <speed>0.05</speed>
  <fix>3d</fix>
</trkpt>
<trkpt lat="40.0728561" lon="-105.230889">
  <ele>1595.56</ele>
  <time>2026-08-27T18:30:05Z</time>
  <course>300.95</course>
  <speed>0.03</speed>
  <fix>3d</fix>
</trkpt>
<trkpt lat="40.0728561" lon="-105.2308892">
  <ele>1595.5</ele>
  <time>2026-08-27T18:30:05Z</time>
  <course>270.9</course>
  <speed>0.05</speed>
  <fix>3d</fix>
</trkpt>
<trkpt lat="40.0728561" lon="-105.2308891">
  <ele>1595.56</ele>
  <time>2026-08-27T18:30:05Z</time>
  <course>300.42</course>
  <speed>0.04</speed>
  <fix>3d</fix>
</trkpt>
<trkpt lat="40.0728561" lon="-105.2308894">
  <ele>1595.5</ele>
  <time>2026-08-27T18:30:05Z</time>
  <course>269.41</course>
  <speed>0.06</speed>
  <fix>3d</fix>
</trkpt>
<trkpt lat="40.0728561" lon="-105.2308893">
  <ele>1595.56</ele>
  <time>2026-08-27T18:30:05Z</time>
  <course>300.39</course>
  <speed>0.03</speed>
  <fix>3d</fix>
</trkpt>
<trkpt lat="40.0728561" lon="-105.2308895">
  <ele>1595.5</ele>
  <time>2026-08-27T18:30:05Z</time>
  <course>272.45</course>
  <speed>0.05</speed>
  <fix>3d</fix>
</trkpt>
<trkpt lat="40.0728561" lon="-105.2308894">
  <ele>1595.56</ele>
  <time>2026-08-27T18:30:05Z</time>
  <course>300.38</course>
  <speed>0.02</speed>
  <fix>3d</fix>
</trkpt>
<trkpt lat="40.0728561" lon="-105.2308896">
  <ele>1595.5</ele>
  <time>2026-08-27T18:30:05Z</time>
  <course>280.48</course>
  <speed>0.04</speed>
  <fix>3d</fix>
</trkpt>
<trkpt lat="40.0728561" lon="-105.2308895">
  <ele>1595.57</ele>
  <time>2026-08-27T18:30:05Z</time>
  <course>300.67</course>
  <speed>0.01414213562373095</speed>
  <fix>3d</fix>
</trkpt>
<trkpt lat="40.0728561" lon="-105.2308898">
  <ele>1595.5</ele>
  <time>2026-08-27T18:30:05Z</time>
  <course>280.2</course>
  <speed>0.04</speed>
  <fix>3d</fix>
</trkpt>
<trkpt lat="40.0728561" lon="-105.2308896">
  <ele>1595.57</ele>
  <time>2026-08-27T18:30:05Z</time>
  <course>301.16</course>
  <speed>0.01</speed>
  <fix>3d</fix>
</trkpt>
<trkpt lat="40.0728561" lon="-105.2308899">
  <ele>1595.5</ele>
  <time>2026-08-27T18:30:05Z</time>
  <course>269.76</course>
  <speed>0.04</speed>
  <fix>3d</fix>
</trkpt>
<trkpt lat="40.0728561" lon="-105.2308897">
  <ele>1595.57</ele>
  <time>2026-08-27T18:30:05Z</time>
  <course>301.53</course>
  <speed>0.01414213562373095</speed>
  <fix>3d</fix>
</trkpt>
<trkpt lat="40.0728561" lon="-105.23089">
  <ele>1595.5</ele>
  <time>2026-08-27T18:30:05Z</time>
  <course>258.4</course>
  <speed>0.04</speed>
  <fix>3d</fix>
</trkpt>
<trkpt lat="40.0728561" lon="-105.2308898">
  <ele>1595.57</ele>
  <time>2026-08-27T18:30:05Z</time>
  <course>301.52</course>
  <speed>0.01</speed>
  <fix>3d</fix>
</trkpt>
<trkpt lat="40.0728561" lon="-105.2308901">
  <ele>1595.5</ele>
  <time>2026-08-27T18:30:05Z</time>
  <course>253.07</course>
  <speed>0.05</speed>
  <fix>3d</fix>
</trkpt>
<trkpt lat="40.0728561" lon="-105.2308899">
  <ele>1595.57</ele>
  <time>2026-08-27T18:30:05Z</time>
  <course>301.13</course>
  <speed>0.02</speed>
  <fix>3d</fix>
</trkpt>
<trkpt lat="40.0728561" lon="-105.2308901">
  <ele>1595.49</ele>
  <time>2026-08-27T18:30:05Z</time>
  <course>255.33</course>
  <speed>0.04</speed>
  <fix>3d</fix>
</trkpt>
<trkpt lat="40.0728561" lon="-105.23089">
  <ele>1595.57</ele>
  <time>2026-08-27T18:30:05Z</time>
  <course>300.64</course>
  <speed>0.02</speed>
  <fix>3d</fix>
</trkpt>
<trkpt lat="40.0728561" lon="-105.2308902">
  <ele>1595.49</ele>
  <time>2026-08-27T18:30:05Z</time>
  <course>265.46</course>
  <speed>0.03</speed>
  <fix>3d</fix>
</trkpt>
<trkpt lat="40.0728561" lon="-105.2308901">
  <ele>1595.56</ele>
  <time>2026-08-27T18:30:05Z</time>
  <course>300.39</course>
  <speed>0.01</speed>
  <fix>3d</fix>
</trkpt>
<trkpt lat="40.0728561" lon="-105.2308903">
  <ele>1595.49</ele>
  <time>2026-08-27T18:30:05Z</time>
  <course>278.89</course>
  <speed>0.03</speed>
  <fix>3d</fix>
</trkpt>
<trkpt lat="40.0728561" lon="-105.2308902">
  <ele>1595.56</ele>
  <time>2026-08-27T18:30:05Z</time>
  <course>300.56</course>
  <speed>0.01</speed>
  <fix>3d</fix>
</trkpt>
<trkpt lat="40.0728561" lon="-105.2308904">
  <ele>1595.49</ele>
  <time>2026-08-27T18:30:05Z</time>
  <course>283.07</course>
  <speed>0.03</speed>
  <fix>3d</fix>
</trkpt>
<trkpt lat="40.0728561" lon="-105.2308903">
  <ele>1595.55</ele>
  <time>2026-08-27T18:30:05Z</time>
  <course>300.99</course>
  <speed>0.01</speed>
  <fix>3d</fix>
</trkpt>
<trkpt lat="40.0728561" lon="-105.2308905">
  <ele>1595.49</ele>
  <time>2026-08-27T18:30:05Z</time>
  <course>272.5</course>
  <speed>0.03</speed>
  <fix>3d</fix>
</trkpt>
<trkpt lat="40.0728561" lon="-105.2308903">
  <ele>1595.55</ele>
  <time>2026-08-27T18:30:05Z</time>
  <course>301.43</course>
  <speed>0.01</speed>
  <fix>3d</fix>
</trkpt>
<trkpt lat="40.0728561" lon="-105.2308906">
  <ele>1595.49</ele>
  <time>2026-08-27T18:30:05Z</time>
  <course>258.02</course>
  <speed>0.03</speed>
  <fix>3d</fix>
</trkpt>
<trkpt lat="40.0728561" lon="-105.2308904">
  <ele>1595.55</ele>
  <time>2026-08-27T18:30:05Z</time>
  <course>301.51</course>
  <speed>0.01</speed>
  <fix>3d</fix>
</trkpt>
<trkpt lat="40.072856" lon="-105.2308907">
  <ele>1595.49</ele>
  <time>2026-08-27T18:30:05Z</time>
  <course>250.41</course>
  <speed>0.04</speed>
  <fix>3d</fix>
</trkpt>
<trkpt lat="40.0728561" lon="-105.2308905">
  <ele>1595.56</ele>
  <time>2026-08-27T18:30:05Z</time>
  <course>301.22</course>
  <speed>0.01</speed>
  <fix>3d</fix>
</trkpt>
<trkpt lat="40.072856" lon="-105.2308908">
  <ele>1595.49</ele>
  <time>2026-08-27T18:30:05Z</time>
  <course>250.85</course>
  <speed>0.04</speed>
  <fix>3d</fix>
</trkpt>
<trkpt lat="40.0728561" lon="-105.2308906">
  <ele>1595.56</ele>
  <time>2026-08-27T18:30:05Z</time>
  <course>300.72</course>
  <speed>0.01414213562373095</speed>
  <fix>3d</fix>
</trkpt>
<trkpt lat="40.072856" lon="-105.2308908">
  <ele>1595.49</ele>
  <time>2026-08-27T18:30:05Z</time>
  <course>259.25</course>
  <speed>0.03</speed>
  <fix>3d</fix>
</trkpt>
<trkpt lat="40.0728561" lon="-105.2308907">
  <ele>1595.56</ele>
  <time>2026-08-27T18:30:05Z</time>
  <course>301.9</course>
  <speed>0.01</speed>
  <fix>3d</fix>
</trkpt>
<trkpt lat="40.072856" lon="-105.2308909">
  <ele>1595.49</ele>
  <time>2026-08-27T18:30:05Z</time>
  <course>264.22</course>
  <speed>0.03</speed>
  <fix>3d</fix>
</trkpt>
<trkpt lat="40.0728561" lon="-105.2308908">
  <ele>1595.56</ele>
  <time>2026-08-27T18:30:05Z</time>
  <course>301.05</course>
  <speed>0.01</speed>
  <fix>3d</fix>
</trkpt>
<trkpt lat="40.072856" lon="-105.230891">
  <ele>1595.49</ele>
  <time>2026-08-27T18:30:05Z</time>
  <course>264.33</course>
  <speed>0.03</speed>
  <fix>3d</fix>
</trkpt>
<trkpt lat="40.0728561" lon="-105.2308909">
  <ele>1595.56</ele>
  <time>2026-08-27T18:30:05Z</time>
  <course>300.58</course>
  <speed>0.01</speed>
  <fix>3d</fix>
</trkpt>
<trkpt lat="40.072856" lon="-105.2308911">
  <ele>1595.49</ele>
  <time>2026-08-27T18:30:05Z</time>
  <course>266.09</course>
  <speed>0.03</speed>
  <fix>3d</fix>
</trkpt>
<trkpt lat="40.0728561" lon="-105.230891">
  <ele>1595.56</ele>
  <time>2026-08-27T18:30:05Z</time>
  <course>300.38</course>
  <speed>0.01</speed>
  <fix>3d</fix>
</trkpt>
<trkpt lat="40.072856" lon="-105.2308912">
  <ele>1595.49</ele>
  <time>2026-08-27T18:30:05Z</time>
  <course>265.48</course>
  <speed>0.04</speed>
  <fix>3d</fix>
</trkpt>
<trkpt lat="40.0728561" lon="-105.2308911">
  <ele>1595.56</ele>
  <time>2026-08-27T18:30:05Z</time>
  <course>300.29</course>
  <speed>0.01</speed>
  <fix>3d</fix>
</trkpt>
<trkpt lat="40.072856" lon="-105.2308913">
  <ele>1595.49</ele>
  <time>2026-08-27T18:30:05Z</time>
  <course>265.64</course>
  <speed>0.04</speed>
  <fix>3d</fix>
</trkpt>
<trkpt lat="40.0728561" lon="-105.2308912">
  <ele>1595.56</ele>
  <time>2026-08-27T18:30:05Z</time>
  <course>300.26</course>
  <speed>0.01</speed>
  <fix>3d</fix>
</trkpt>
<trkpt lat="40.072856" lon="-105.2308914">
  <ele>1595.49</ele>
  <time>2026-08-27T18:30:05Z</time>
  <course>266.05</course>
  <speed>0.04</speed>
  <fix>3d</fix>
</trkpt>
<trkpt lat="40.0728561" lon="-105.2308913">
  <ele>1595.56</ele>
  <time>2026-08-27T18:30:05Z</time>
  <course>300.25</course>
  <speed>0.02</speed>
  <fix>3d</fix>
</trkpt>
<trkpt lat="40.072856" lon="-105.2308915">
  <ele>1595.49</ele>
  <time>2026-08-27T18:30:05Z</time>
  <course>266.57</course>
  <speed>0.04</speed>
  <fix>3d</fix>
</trkpt>
<trkpt lat="40.0728561" lon="-105.2308914">
  <ele>1595.56</ele>
  <time>2026-08-27T18:30:05Z</time>
  <course>300.24</course>
  <speed>0.02</speed>
  <fix>3d</fix>
</trkpt>
<trkpt lat="40.072856" lon="-105.2308916">
  <ele>1595.49</ele>
  <time>2026-08-27T18:30:05Z</time>
  <course>267.17</course>
  <speed>0.04</speed>
  <fix>3d</fix>
</trkpt>
<trkpt lat="40.0728561" lon="-105.2308915">
  <ele>1595.56</ele>
  <time>2026-08-27T18:30:05Z</time>
  <course>300.24</course>
  <speed>0.02</speed>
  <fix>3d</fix>
</trkpt>
<trkpt lat="40.072856" lon="-105.2308917">
  <ele>1595.5</ele>
  <time>2026-08-27T18:30:05Z</time>
  <course>267.87</course>
  <speed>0.04</speed>
  <fix>3d</fix>
</trkpt>
<trkpt lat="40.0728561" lon="-105.2308916">
  <ele>1595.56</ele>
  <time>2026-08-27T18:30:05Z</time>
  <course>300.25</course>
  <speed>0.02</speed>
  <fix>3d</fix>
</trkpt>
<trkpt lat="40.072856" lon="-105.2308918">
  <ele>1595.5</ele>
  <time>2026-08-27T18:30:05Z</time>
  <course>268.85</course>
  <speed>0.04</speed>
  <fix>3d</fix>
</trkpt>
<trkpt lat="40.0728561" lon="-105.2308917">
  <ele>1595.57</ele>
  <time>2026-08-27T18:30:05Z</time>
  <course>300.25</course>
  <speed>0.02</speed>
  <fix>3d</fix>
</trkpt>
<trkpt lat="40.072856" lon="-105.230892">
  <ele>1595.49</ele>
  <time>2026-08-27T18:30:05Z</time>
  <course>269.75</course>
  <speed>0.05</speed>
  <fix>3d</fix>
</trkpt>
<trkpt lat="40.0728561" lon="-105.2308918">
  <ele>1595.57</ele>
  <time>2026-08-27T18:30:05Z</time>
  <course>300.26</course>
  <speed>0.02</speed>
  <fix>3d</fix>
</trkpt>
<trkpt lat="40.072856" lon="-105.2308921">
  <ele>1595.49</ele>
  <time>2026-08-27T18:30:05Z</time>
  <course>270.56</course>
  <speed>0.05</speed>
  <fix>3d</fix>
</trkpt>
<trkpt lat="40.0728561" lon="-105.230892">
  <ele>1595.57</ele>
  <time>2026-08-27T18:30:05Z</time>
  <course>300.26</course>
  <speed>0.03</speed>
  <fix>3d</fix>
</trkpt>
<trkpt lat="40.072856" lon="-105.2308922">
  <ele>1595.49</ele>
  <time>2026-08-27T18:30:05Z</time>
  <course>271.46</course>
  <speed>0.05</speed>
  <fix>3d</fix>
</trkpt>
<trkpt lat="40.0728561" lon="-105.2308921">
  <ele>1595.56</ele>
  <time>2026-08-27T18:30:05Z</time>
  <course>300.27</course>
  <speed>0.03</speed>
  <fix>3d</fix>
</trkpt>
<trkpt lat="40.072856" lon="-105.2308923">
  <ele>1595.49</ele>
  <time>2026-08-27T18:30:05Z</time>
  <course>272.25</course>
  <speed>0.05</speed>
  <fix>3d</fix>
</trkpt>
<trkpt lat="40.0728561" lon="-105.2308922">
  <ele>1595.56</ele>
  <time>2026-08-27T18:30:05Z</time>
  <course>300.26</course>
  <speed>0.03</speed>
  <fix>3d</fix>
</trkpt>
<trkpt lat="40.072856" lon="-105.2308925">
  <ele>1595.49</ele>
  <time>2026-08-27T18:30:05Z</time>
  <course>272.99</course>
  <speed>0.05</speed>
  <fix>3d</fix>
</trkpt>
<trkpt lat="40.0728561" lon="-105.2308924">
  <ele>1595.56</ele>
  <time>2026-08-27T18:30:05Z</time>
  <course>300.25</course>
  <speed>0.03</speed>
  <fix>3d</fix>
</trkpt>
<trkpt lat="40.072856" lon="-105.2308926">
  <ele>1595.49</ele>
  <time>2026-08-27T18:30:05Z</time>
  <course>273.65</course>
  <speed>0.05</speed>
  <fix>3d</fix>
</trkpt>
<trkpt lat="40.0728561" lon="-105.2308925">
  <ele>1595.57</ele>
  <time>2026-08-27T18:30:05Z</time>
  <course>299.8</course>
  <speed>0.03605551275463989</speed>
  <fix>3d</fix>
</trkpt>
<trkpt lat="40.072856" lon="-105.2308927">
  <ele>1595.49</ele>
  <time>2026-08-27T18:30:05Z</time>
  <course>274.96</course>
  <speed>0.06</speed>
  <fix>3d</fix>
</trkpt>
<trkpt lat="40.0728561" lon="-105.2308927">
  <ele>1595.57</ele>
  <time>2026-08-27T18:30:05Z</time>
  <course>300.59</course>
  <speed>0.03</speed>
  <fix>3d</fix>
</trkpt>
<trkpt lat="40.072856" lon="-105.2308929">
  <ele>1595.49</ele>
  <time>2026-08-27T18:30:05Z</time>
  <course>267.95</course>
  <speed>0.06</speed>
  <fix>3d</fix>
</trkpt>
<trkpt lat="40.0728561" lon="-105.2308928">
  <ele>1595.57</ele>
  <time>2026-08-27T18:30:05Z</time>
  <course>300.62</course>
  <speed>0.03</speed>
  <fix>3d</fix>
</trkpt>
<trkpt lat="40.072856" lon="-105.2308931">
  <ele>1595.49</ele>
  <time>2026-08-27T18:30:05Z</time>
  <course>261.4</course>
  <speed>0.06</speed>
  <fix>3d</fix>
</trkpt>
<trkpt lat="40.0728561" lon="-105.230893">
  <ele>1595.57</ele>
  <time>2026-08-27T18:30:05Z</time>
  <course>300.15</course>
  <speed>0.0316227766016838</speed>
  <fix>3d</fix>
</trkpt>
<trkpt lat="40.072856" lon="-105.2308932">
  <ele>1595.48</ele>
  <time>2026-08-27T18:30:05Z</time>
  <course>266.14</course>
  <speed>0.05</speed>
  <fix>3d</fix>
</trkpt>
<trkpt lat="40.0728561" lon="-105.2308931">
  <ele>1595.56</ele>
  <time>2026-08-27T18:30:05Z</time>
  <course>299.71</course>
  <speed>0.02</speed>
  <fix>3d</fix>
</trkpt>
<trkpt lat="40.072856" lon="-105.2308933">
  <ele>1595.48</ele>
  <time>2026-08-27T18:30:05Z</time>
  <course>277.94</course>
  <speed>0.04</speed>
  <fix>3d</fix>
</trkpt>
<trkpt lat="40.0728561" lon="-105.2308932">
  <ele>1595.56</ele>
  <time>2026-08-27T18:30:05Z</time>
  <course>299.72</course>
  <speed>0.01</speed>
  <fix>3d</fix>
</trkpt>
<trkpt lat="40.072856" lon="-105.2308934">
  <ele>1595.48</ele>
  <time>2026-08-27T18:30:05Z</time>
  <course>287.38</course>
  <speed>0.04</speed>
  <fix>3d</fix>
</trkpt>
<trkpt lat="40.0728561" lon="-105.2308933">
  <ele>1595.56</ele>
  <time>2026-08-27T18:30:05Z</time>
  <course>300.19</course>
  <speed>0.01</speed>
  <fix>3d</fix>
</trkpt>
<trkpt lat="40.072856" lon="-105.2308935">
  <ele>1595.48</ele>
  <time>2026-08-27T18:30:05Z</time>
  <course>282.35</course>
  <speed>0.03</speed>
  <fix>3d</fix>
</trkpt>
<trkpt lat="40.0728561" lon="-105.2308934">
  <ele>1595.56</ele>
  <time>2026-08-27T18:30:05Z</time>
  <course>300.71</course>
  <speed>0.01</speed>
  <fix>3d</fix>
</trkpt>
<trkpt lat="40.072856" lon="-105.2308936">
  <ele>1595.48</ele>
  <time>2026-08-27T18:30:05Z</time>
  <course>266.9</course>
  <speed>0.04</speed>
  <fix>3d</fix>
</trkpt>
<trkpt lat="40.0728561" lon="-105.2308934">
  <ele>1595.55</ele>
  <time>2026-08-27T18:30:05Z</time>
  <course>300.87</course>
  <speed>0.01</speed>
  <fix>3d</fix>
</trkpt>
<trkpt lat="40.072856" lon="-105.2308937">
  <ele>1595.48</ele>
  <time>2026-08-27T18:30:05Z</time>
  <course>255.87</course>
  <speed>0.04</speed>
  <fix>3d</fix>
</trkpt>
<trkpt lat="40.0728561" lon="-105.2308935">
  <ele>1595.55</ele>
  <time>2026-08-27T18:30:05Z</time>
  <course>300.53</course>
  <speed>0.01</speed>
  <fix>3d</fix>
</trkpt>
<trkpt lat="40.072856" lon="-105.2308938">
  <ele>1595.48</ele>
  <time>2026-08-27T18:30:05Z</time>
  <course>254.87</course>
  <speed>0.04</speed>
  <fix>3d</fix>
</trkpt>
<trkpt lat="40.0728561" lon="-105.2308936">
  <ele>1595.55</ele>
  <time>2026-08-27T18:30:05Z</time>
  <course>299.96</course>
  <speed>0.01414213562373095</speed>
  <fix>3d</fix>
</trkpt>
<trkpt lat="40.072856" lon="-105.2308939">
  <ele>1595.48</ele>
  <time>2026-08-27T18:30:05Z</time>
  <course>264.29</course>
  <speed>0.03</speed>
  <fix>3d</fix>
</trkpt>
<trkpt lat="40.0728561" lon="-105.2308937">
  <ele>1595.55</ele>
  <time>2026-08-27T18:30:05Z</time>
  <course>299.6</course>
  <speed>0.01</speed>
  <fix>3d</fix>
</trkpt>
<trkpt lat="40.072856" lon="-105.230894">
  <ele>1595.48</ele>
  <time>2026-08-27T18:30:05Z</time>
  <course>280.55</course>
  <speed>0.03</speed>
  <fix>3d</fix>
</trkpt>
<trkpt lat="40.0728561" lon="-105.2308938">
  <ele>1595.55</ele>
  <time>2026-08-27T18:30:05Z</time>
  <course>299.77</course>
  <speed>0.0</speed>
  <fix>3d</fix>
</trkpt>
<trkpt lat="40.072856" lon="-105.2308941">
  <ele>1595.48</ele>
  <time>2026-08-27T18:30:05Z</time>
  <course>287.62</course>
  <speed>0.03</speed>
  <fix>3d</fix>
</trkpt>
<trkpt lat="40.0728561" lon="-105.2308939">
  <ele>1595.56</ele>
  <time>2026-08-27T18:30:05Z</time>
  <course>300.29</course>
  <speed>0.01</speed>
  <fix>3d</fix>
</trkpt>
<trkpt lat="40.072856" lon="-105.2308942">
  <ele>1595.48</ele>
  <time>2026-08-27T18:30:05Z</time>
  <course>275.51</course>
  <speed>0.03</speed>
  <fix>3d</fix>
</trkpt>
<trkpt lat="40.0728561" lon="-105.230894">
  <ele>1595.56</ele>
  <time>2026-08-27T18:30:05Z</time>
  <course>300.79</course>
  <speed>0.01</speed>
  <fix>3d</fix>
</trkpt>
<trkpt lat="40.072856" lon="-105.2308942">
  <ele>1595.49</ele>
  <time>2026-08-27T18:30:05Z</time>
  <course>257.99</course>
  <speed>0.03</speed>
  <fix>3d</fix>
</trkpt>
<trkpt lat="40.0728561" lon="-105.230894">
  <ele>1595.56</ele>
  <time>2026-08-27T18:30:05Z</time>
  <course>300.86</course>
  <speed>0.01</speed>
  <fix>3d</fix>
</trkpt>
<trkpt lat="40.072856" lon="-105.2308943">
  <ele>1595.49</ele>
  <time>2026-08-27T18:30:05Z</time>
  <course>249.54</course>
  <speed>0.04</speed>
  <fix>3d</fix>
</trkpt>
<trkpt lat="40.0728561" lon="-105.2308941">
  <ele>1595.56</ele>
  <time>2026-08-27T18:30:05Z</time>
  <course>300.44</course>
  <speed>0.01414213562373095</speed>
  <fix>3d</fix>
</trkpt>
<trkpt lat="40.072856" lon="-105.2308944">
  <ele>1595.49</ele>
  <time>2026-08-27T18:30:05Z</time>
  <course>251.24</course>
  <speed>0.04</speed>
  <fix>3d</fix>
</trkpt>
<trkpt lat="40.072856" lon="-105.2308942">
  <ele>1595.56</ele>
  <time>2026-08-27T18:30:05Z</time>
  <course>301.43</course>
  <speed>0.01</speed>
  <fix>3d</fix>
</trkpt>
<trkpt lat="40.072856" lon="-105.2308945">
  <ele>1595.49</ele>
  <time>2026-08-27T18:30:05Z</time>
  <course>259.1</course>
  <speed>0.03</speed>
  <fix>3d</fix>
</trkpt>
<trkpt lat="40.072856" lon="-105.2308943">
  <ele>1595.56</ele>
  <time>2026-08-27T18:30:05Z</time>
  <course>300.49</course>
  <speed>0.01</speed>
  <fix>3d</fix>
</trkpt>
<trkpt lat="40.072856" lon="-105.2308946">
  <ele>1595.49</ele>
  <time>2026-08-27T18:30:05Z</time>
  <course>265.91</course>
  <speed>0.03</speed>
  <fix>3d</fix>
</trkpt>
<trkpt lat="40.072856" lon="-105.2308944">
  <ele>1595.56</ele>
  <time>2026-08-27T18:30:05Z</time>
  <course>299.92</course>
  <speed>0.01</speed>
  <fix>3d</fix>
</trkpt>
<trkpt lat="40.072856" lon="-105.2308946">
  <ele>1595.49</ele>
  <time>2026-08-27T18:30:05Z</time>
  <course>267.43</course>
  <speed>0.03</speed>
  <fix>3d</fix>
</trkpt>
<trkpt lat="40.072856" lon="-105.2308945">
  <ele>1595.56</ele>
  <time>2026-08-27T18:30:05Z</time>
  <course>299.68</course>
  <speed>0.01</speed>
  <fix>3d</fix>
</trkpt>
<trkpt lat="40.072856" lon="-105.2308947">
  <ele>1595.49</ele>
  <time>2026-08-27T18:30:05Z</time>
  <course>266.55</course>
  <speed>0.03</speed>
  <fix>3d</fix>
</trkpt>
<trkpt lat="40.072856" lon="-105.2308946">
  <ele>1595.57</ele>
  <time>2026-08-27T18:30:05Z</time>
  <course>299.58</course>
  <speed>0.01</speed>
  <fix>3d</fix>
</trkpt>
<trkpt lat="40.072856" lon="-105.2308948">
  <ele>1595.49</ele>
  <time>2026-08-27T18:30:05Z</time>
  <course>266.5</course>
  <speed>0.04</speed>
  <fix>3d</fix>
</trkpt>
<trkpt lat="40.072856" lon="-105.2308947">
  <ele>1595.57</ele>
  <time>2026-08-27T18:30:05Z</time>
  <course>299.55</course>
  <speed>0.01</speed>
  <fix>3d</fix>
</trkpt>
<trkpt lat="40.072856" lon="-105.2308949">
  <ele>1595.49</ele>
  <time>2026-08-27T18:30:05Z</time>
  <course>266.57</course>
  <speed>0.04</speed>
  <fix>3d</fix>
</trkpt>
<trkpt lat="40.072856" lon="-105.2308948">
  <ele>1595.57</ele>
  <time>2026-08-27T18:30:05Z</time>
  <course>299.55</course>
  <speed>0.02</speed>
  <fix>3d</fix>
</trkpt>
<trkpt lat="40.072856" lon="-105.230895">
  <ele>1595.49</ele>
  <time>2026-08-27T18:30:05Z</time>
  <course>267.07</course>
  <speed>0.04</speed>
  <fix>3d</fix>
</trkpt>
<trkpt lat="40.072856" lon="-105.2308949">
  <ele>1595.57</ele>
  <time>2026-08-27T18:30:05Z</time>
  <course>299.54</course>
  <speed>0.02</speed>
  <fix>3d</fix>
</trkpt>
<trkpt lat="40.072856" lon="-105.2308951">
  <ele>1595.49</ele>
  <time>2026-08-27T18:30:05Z</time>
  <course>267.7</course>
  <speed>0.04</speed>
  <fix>3d</fix>
</trkpt>
<trkpt lat="40.072856" lon="-105.230895">
  <ele>1595.57</ele>
  <time>2026-08-27T18:30:05Z</time>
  <course>299.54</course>
  <speed>0.02</speed>
  <fix>3d</fix>
</trkpt>
<trkpt lat="40.072856" lon="-105.2308952">
  <ele>1595.49</ele>
  <time>2026-08-27T18:30:05Z</time>
  <course>268.5</course>
  <speed>0.04</speed>
  <fix>3d</fix>
</trkpt>
<trkpt lat="40.072856" lon="-105.2308951">
  <ele>1595.57</ele>
  <time>2026-08-27T18:30:06Z</time>
  <course>299.55</course>
  <speed>0.02</speed>
  <fix>3d</fix>
</trkpt>
<trkpt lat="40.072856" lon="-105.2308954">
  <ele>1595.49</ele>
  <time>2026-08-27T18:30:06Z</time>
  <course>269.29</course>
  <speed>0.04</speed>
  <fix>3d</fix>
</trkpt>
<trkpt lat="40.072856" lon="-105.2308952">
  <ele>1595.57</ele>
  <time>2026-08-27T18:30:06Z</time>
  <course>299.54</course>
  <speed>0.02</speed>
  <fix>3d</fix>
</trkpt>
<trkpt lat="40.072856" lon="-105.2308955">
  <ele>1595.48</ele>
  <time>2026-08-27T18:30:06Z</time>
  <course>269.8</course>
  <speed>0.05</speed>
  <fix>3d</fix>
</trkpt>
<trkpt lat="40.072856" lon="-105.2308954">
  <ele>1595.57</ele>
  <time>2026-08-27T18:30:06Z</time>
  <course>299.57</course>
  <speed>0.02</speed>
  <fix>3d</fix>
</trkpt>
<trkpt lat="40.072856" lon="-105.2308956">
  <ele>1595.48</ele>
  <time>2026-08-27T18:30:06Z</time>
  <course>270.32</course>
  <speed>0.05</speed>
  <fix>3d</fix>
</trkpt>
<trkpt lat="40.072856" lon="-105.2308955">
  <ele>1595.57</ele>
  <time>2026-08-27T18:30:06Z</time>
  <course>299.55</course>
  <speed>0.03</speed>
  <fix>3d</fix>
</trkpt>
<trkpt lat="40.072856" lon="-105.2308957">
  <ele>1595.48</ele>
  <time>2026-08-27T18:30:06Z</time>
  <course>271.08</course>
  <speed>0.05</speed>
  <fix>3d</fix>
</trkpt>
<trkpt lat="40.072856" lon="-105.2308956">
  <ele>1595.57</ele>
  <time>2026-08-27T18:30:06Z</time>
  <course>299.56</course>
  <speed>0.0316227766016838</speed>
  <fix>3d</fix>
</trkpt>
<trkpt lat="40.072856" lon="-105.2308959">
  <ele>1595.48</ele>
  <time>2026-08-27T18:30:06Z</time>
  <course>272.02</course>
  <speed>0.05</speed>
  <fix>3d</fix>
</trkpt>
<trkpt lat="40.072856" lon="-105.2308958">
  <ele>1595.56</ele>
  <time>2026-08-27T18:30:06Z</time>
  <course>299.55</course>
  <speed>0.0316227766016838</speed>
  <fix>3d</fix>
</trkpt>
<trkpt lat="40.072856" lon="-105.230896">
  <ele>1595.48</ele>
  <time>2026-08-27T18:30:06Z</time>
  <course>272.6</course>
  <speed>0.05</speed>
  <fix>3d</fix>
</trkpt>
<trkpt lat="40.072856" lon="-105.2308959">
  <ele>1595.55</ele>
  <time>2026-08-27T18:30:06Z</time>
  <course>299.55</course>
  <speed>0.0316227766016838</speed>
  <fix>3d</fix>
</trkpt>
<trkpt lat="40.072856" lon="-105.2308961">
  <ele>1595.47</ele>
  <time>2026-08-27T18:30:06Z</time>
  <course>273.3</course>
  <speed>0.05</speed>
  <fix>3d</fix>
</trkpt>
<trkpt lat="40.072856" lon="-105.230896">
  <ele>1595.55</ele>
  <time>2026-08-27T18:30:06Z</time>
  <course>298.89</course>
  <speed>0.0282842712474619</speed>
  <fix>3d</fix>
</trkpt>
<trkpt lat="40.072856" lon="-105.2308962">
  <ele>1595.47</ele>
  <time>2026-08-27T18:30:06Z</time>
  <course>276.17</course>
  <speed>0.06</speed>
  <fix>3d</fix>
</trkpt>
<trkpt lat="40.072856" lon="-105.2308962">
  <ele>1595.55</ele>
  <time>2026-08-27T18:30:06Z</time>
  <course>299.72</course>
  <speed>0.0316227766016838</speed>
  <fix>3d</fix>
</trkpt>
<trkpt lat="40.072856" lon="-105.2308964">
  <ele>1595.47</ele>
  <time>2026-08-27T18:30:06Z</time>
  <course>270.36</course>
  <speed>0.06</speed>
  <fix>3d</fix>
</trkpt>
<trkpt lat="40.072856" lon="-105.2308963">
  <ele>1595.54</ele>
  <time>2026-08-27T18:30:06Z</time>
  <course>300.06</course>
  <speed>0.03</speed>
  <fix>3d</fix>
</trkpt>
<trkpt lat="40.072856" lon="-105.2308966">
  <ele>1595.47</ele>
  <time>2026-08-27T18:30:06Z</time>
  <course>260.67</course>
  <speed>0.06</speed>
  <fix>3d</fix>
</trkpt>
<trkpt lat="40.072856" lon="-105.2308965">
  <ele>1595.54</ele>
  <time>2026-08-27T18:30:06Z</time>
  <course>299.87</course>
  <speed>0.03</speed>
  <fix>3d</fix>
</trkpt>
<trkpt lat="40.072856" lon="-105.2308967">
  <ele>1595.48</ele>
  <time>2026-08-27T18:30:06Z</time>
  <course>258.5</course>
  <speed>0.06</speed>
  <fix>3d</fix>
</trkpt>
<trkpt lat="40.072856" lon="-105.2308966">
  <ele>1595.55</ele>
  <time>2026-08-27T18:30:06Z</time>
  <course>299.43</course>
  <speed>0.022360679774997897</speed>
  <fix>3d</fix>
</trkpt>
<trkpt lat="40.072856" lon="-105.2308968">
  <ele>1595.48</ele>
  <time>2026-08-27T18:30:06Z</time>
  <course>262.55</course>
  <speed>0.05</speed>
  <fix>3d</fix>
</trkpt>
<trkpt lat="40.072856" lon="-105.2308967">
  <ele>1595.55</ele>
  <time>2026-08-27T18:30:06Z</time>
  <course>299.04</course>
  <speed>0.02</speed>
  <fix>3d</fix>
</trkpt>
<trkpt lat="40.072856" lon="-105.2308969">
  <ele>1595.48</ele>
  <time>2026-08-27T18:30:06Z</time>
  <course>272.75</course>
  <speed>0.04</speed>
  <fix>3d</fix>
</trkpt>
<trkpt lat="40.072856" lon="-105.2308968">
  <ele>1595.55</ele>
  <time>2026-08-27T18:30:06Z</time>
  <course>298.92</course>
  <speed>0.01</speed>
  <fix>3d</fix>
</trkpt>
<trkpt lat="40.072856" lon="-105.230897">
  <ele>1595.49</ele>
  <time>2026-08-27T18:30:06Z</time>
  <course>283.37</course>
  <speed>0.03</speed>
  <fix>3d</fix>
</trkpt>
<trkpt lat="40.072856" lon="-105.2308969">
  <ele>1595.56</ele>
  <time>2026-08-27T18:30:06Z</time>
  <course>299.14</course>
  <speed>0.01</speed>
  <fix>3d</fix>
</trkpt>
<trkpt lat="40.072856" lon="-105.2308971">
  <ele>1595.49</ele>
  <time>2026-08-27T18:30:06Z</time>
  <course>284.53</course>
  <speed>0.03</speed>
  <fix>3d</fix>
</trkpt>
<trkpt lat="40.072856" lon="-105.230897">
  <ele>1595.56</ele>
  <time>2026-08-27T18:30:06Z</time>
  <course>299.58</course>
  <speed>0.01</speed>
  <fix>3d</fix>
</trkpt>
<trkpt lat="40.072856" lon="-105.2308972">
  <ele>1595.49</ele>
  <time>2026-08-27T18:30:06Z</time>
  <course>273.37</course>
  <speed>0.03</speed>
  <fix>3d</fix>
</trkpt>
<trkpt lat="40.072856" lon="-105.230897">
  <ele>1595.56</ele>
  <time>2026-08-27T18:30:06Z</time>
  <course>300.0</course>
  <speed>0.01</speed>
  <fix>3d</fix>
</trkpt>
<trkpt lat="40.072856" lon="-105.2308973">
  <ele>1595.49</ele>
  <time>2026-08-27T18:30:06Z</time>
  <course>259.1</course>
  <speed>0.03</speed>
  <fix>3d</fix>
</trkpt>
<trkpt lat="40.072856" lon="-105.2308971">
  <ele>1595.56</ele>
  <time>2026-08-27T18:30:06Z</time>
  <course>300.15</course>
  <speed>0.01</speed>
  <fix>3d</fix>
</trkpt>
<trkpt lat="40.072856" lon="-105.2308973">
  <ele>1595.5</ele>
  <time>2026-08-27T18:30:06Z</time>
  <course>250.66</course>
  <speed>0.04</speed>
  <fix>3d</fix>
</trkpt>
<trkpt lat="40.072856" lon="-105.2308972">
  <ele>1595.56</ele>
  <time>2026-08-27T18:30:06Z</time>
  <course>299.96</course>
  <speed>0.01</speed>
  <fix>3d</fix>
</trkpt>
<trkpt lat="40.072856" lon="-105.2308974">
  <ele>1595.5</ele>
  <time>2026-08-27T18:30:06Z</time>
  <course>249.46</course>
  <speed>0.04</speed>
  <fix>3d</fix>
</trkpt>
<trkpt lat="40.072856" lon="-105.2308973">
  <ele>1595.57</ele>
  <time>2026-08-27T18:30:06Z</time>
  <course>299.55</course>
  <speed>0.01414213562373095</speed>
  <fix>3d</fix>
</trkpt>
<trkpt lat="40.072856" lon="-105.2308975">
  <ele>1595.5</ele>
  <time>2026-08-27T18:30:06Z</time>
  <course>255.4</course>
  <speed>0.03</speed>
  <fix>3d</fix>
</trkpt>
<trkpt lat="40.072856" lon="-105.2308974">
  <ele>1595.56</ele>
  <time>2026-08-27T18:30:06Z</time>
  <course>299.14</course>
  <speed>0.01414213562373095</speed>
  <fix>3d</fix>
</trkpt>
<trkpt lat="40.072856" lon="-105.2308976">
  <ele>1595.5</ele>
  <time>2026-08-27T18:30:06Z</time>
  <course>268.01</course>
  <speed>0.03</speed>
  <fix>3d</fix>
</trkpt>
<trkpt lat="40.072856" lon="-105.2308975">
  <ele>1595.56</ele>
  <time>2026-08-27T18:30:06Z</time>
  <course>298.95</course>
  <speed>0.01</speed>
  <fix>3d</fix>
</trkpt>
<trkpt lat="40.072856" lon="-105.2308977">
  <ele>1595.5</ele>
  <time>2026-08-27T18:30:06Z</time>
  <course>281.95</course>
  <speed>0.02</speed>
  <fix>3d</fix>
</trkpt>
<trkpt lat="40.072856" lon="-105.2308975">
  <ele>1595.56</ele>
  <time>2026-08-27T18:30:06Z</time>
  <course>299.11</course>
  <speed>0.0</speed>
  <fix>3d</fix>
</trkpt>
<trkpt lat="40.072856" lon="-105.2308978">
  <ele>1595.5</ele>
  <time>2026-08-27T18:30:06Z</time>
  <course>285.34</course>
  <speed>0.02</speed>
  <fix>3d</fix>
</trkpt>
<trkpt lat="40.072856" lon="-105.2308976">
  <ele>1595.56</ele>
  <time>2026-08-27T18:30:06Z</time>
  <course>300.65</course>
  <speed>0.0</speed>
  <fix>3d</fix>
</trkpt>
<trkpt lat="40.072856" lon="-105.2308979">
  <ele>1595.5</ele>
  <time>2026-08-27T18:30:06Z</time>
  <course>266.39</course>
  <speed>0.03</speed>
  <fix>3d</fix>
</trkpt>
<trkpt lat="40.072856" lon="-105.2308977">
  <ele>1595.57</ele>
  <time>2026-08-27T18:30:06Z</time>
  <course>300.01</course>
  <speed>0.0</speed>
  <fix>3d</fix>
</trkpt>
<trkpt lat="40.072856" lon="-105.2308979">
  <ele>1595.5</ele>
  <time>2026-08-27T18:30:06Z</time>
  <course>261.19</course>
  <speed>0.03</speed>
  <fix>3d</fix>
</trkpt>
<trkpt lat="40.072856" lon="-105.2308978">
  <ele>1595.57</ele>
  <time>2026-08-27T18:30:06Z</time>
  <course>299.33</course>
  <speed>0.01</speed>
  <fix>3d</fix>
</trkpt>
<trkpt lat="40.072856" lon="-105.230898">
  <ele>1595.5</ele>
  <time>2026-08-27T18:30:06Z</time>
  <course>268.68</course>
  <speed>0.03</speed>
  <fix>3d</fix>
</trkpt>
<trkpt lat="40.072856" lon="-105.2308978">
  <ele>1595.58</ele>
  <time>2026-08-27T18:30:06Z</time>
  <course>299.04</course>
  <speed>0.01</speed>
  <fix>3d</fix>
</trkpt>
<trkpt lat="40.072856" lon="-105.2308981">
  <ele>1595.5</ele>
  <time>2026-08-27T18:30:06Z</time>
  <course>267.67</course>
  <speed>0.03</speed>
  <fix>3d</fix>
</trkpt>
<trkpt lat="40.072856" lon="-105.2308979">
  <ele>1595.58</ele>
  <time>2026-08-27T18:30:06Z</time>
  <course>298.94</course>
  <speed>0.01</speed>
  <fix>3d</fix>
</trkpt>
<trkpt lat="40.072856" lon="-105.2308982">
  <ele>1595.5</ele>
  <time>2026-08-27T18:30:06Z</time>
  <course>266.99</course>
  <speed>0.04</speed>
  <fix>3d</fix>
</trkpt>
<trkpt lat="40.072856" lon="-105.230898">
  <ele>1595.57</ele>
  <time>2026-08-27T18:30:06Z</time>
  <course>298.91</course>
  <speed>0.01</speed>
  <fix>3d</fix>
</trkpt>
<trkpt lat="40.0728559" lon="-105.2308983">
  <ele>1595.49</ele>
  <time>2026-08-27T18:30:06Z</time>
  <course>266.96</course>
  <speed>0.04</speed>
  <fix>3d</fix>
</trkpt>
<trkpt lat="40.072856" lon="-105.2308981">
  <ele>1595.57</ele>
  <time>2026-08-27T18:30:06Z</time>
  <course>298.87</course>
  <speed>0.02</speed>
  <fix>3d</fix>
</trkpt>
<trkpt lat="40.0728559" lon="-105.2308984">
  <ele>1595.49</ele>
  <time>2026-08-27T18:30:06Z</time>
  <course>267.57</course>
  <speed>0.04</speed>
  <fix>3d</fix>
</trkpt>
<trkpt lat="40.072856" lon="-105.2308983">
  <ele>1595.57</ele>
  <time>2026-08-27T18:30:06Z</time>
  <course>298.86</course>
  <speed>0.02</speed>
  <fix>3d</fix>
</trkpt>
<trkpt lat="40.0728559" lon="-105.2308985">
  <ele>1595.49</ele>
  <time>2026-08-27T18:30:06Z</time>
  <course>268.29</course>
  <speed>0.04</speed>
  <fix>3d</fix>
</trkpt>
<trkpt lat="40.072856" lon="-105.2308984">
  <ele>1595.57</ele>
  <time>2026-08-27T18:30:06Z</time>
  <course>298.85</course>
  <speed>0.02</speed>
  <fix>3d</fix>
</trkpt>
<trkpt lat="40.0728559" lon="-105.2308986">
  <ele>1595.48</ele>
  <time>2026-08-27T18:30:06Z</time>
  <course>268.96</course>
  <speed>0.04</speed>
  <fix>3d</fix>
</trkpt>
<trkpt lat="40.072856" lon="-105.2308985">
  <ele>1595.57</ele>
  <time>2026-08-27T18:30:06Z</time>
  <course>298.85</course>
  <speed>0.02</speed>
  <fix>3d</fix>
</trkpt>
<trkpt lat="40.0728559" lon="-105.2308987">
  <ele>1595.48</ele>
  <time>2026-08-27T18:30:06Z</time>
  <course>269.53</course>
  <speed>0.05</speed>
  <fix>3d</fix>
</trkpt>
<trkpt lat="40.072856" lon="-105.2308986">
  <ele>1595.57</ele>
  <time>2026-08-27T18:30:06Z</time>
  <course>298.85</course>
  <speed>0.02</speed>
  <fix>3d</fix>
</trkpt>
<trkpt lat="40.0728559" lon="-105.2308989">
  <ele>1595.48</ele>
  <time>2026-08-27T18:30:06Z</time>
  <course>270.04</course>
  <speed>0.05</speed>
  <fix>3d</fix>
</trkpt>
<trkpt lat="40.072856" lon="-105.2308987">
  <ele>1595.56</ele>
  <time>2026-08-27T18:30:06Z</time>
  <course>298.85</course>
  <speed>0.02</speed>
  <fix>3d</fix>
</trkpt>
<trkpt lat="40.0728559" lon="-105.230899">
  <ele>1595.48</ele>
  <time>2026-08-27T18:30:06Z</time>
  <course>270.86</course>
  <speed>0.05</speed>
  <fix>3d</fix>
</trkpt>
<trkpt lat="40.072856" lon="-105.2308989">
  <ele>1595.55</ele>
  <time>2026-08-27T18:30:06Z</time>
  <course>298.84</course>
  <speed>0.03</speed>
  <fix>3d</fix>
</trkpt>
<trkpt lat="40.0728559" lon="-105.2308991">
  <ele>1595.48</ele>
  <time>2026-08-27T18:30:06Z</time>
  <course>271.56</course>
  <speed>0.05</speed>
  <fix>3d</fix>
</trkpt>
<trkpt lat="40.072856" lon="-105.230899">
  <ele>1595.55</ele>
  <time>2026-08-27T18:30:06Z</time>
  <course>298.84</course>
  <speed>0.03</speed>
  <fix>3d</fix>
</trkpt>
<trkpt lat="40.0728559" lon="-105.2308992">
  <ele>1595.48</ele>
  <time>2026-08-27T18:30:06Z</time>
  <course>271.97</course>
  <speed>0.05</speed>
  <fix>3d</fix>
</trkpt>
<trkpt lat="40.072856" lon="-105.2308991">
  <ele>1595.54</ele>
  <time>2026-08-27T18:30:06Z</time>
  <course>298.82</course>
  <speed>0.03</speed>
  <fix>3d</fix>
</trkpt>
<trkpt lat="40.0728559" lon="-105.2308994">
  <ele>1595.48</ele>
  <time>2026-08-27T18:30:06Z</time>
  <course>272.41</course>
  <speed>0.05</speed>
  <fix>3d</fix>
</trkpt>
<trkpt lat="40.072856" lon="-105.2308993">
  <ele>1595.55</ele>
  <time>2026-08-27T18:30:06Z</time>
  <course>298.82</course>
  <speed>0.03</speed>
  <fix>3d</fix>
</trkpt>
<trkpt lat="40.0728559" lon="-105.2308995">
  <ele>1595.48</ele>
  <time>2026-08-27T18:30:06Z</time>
  <course>272.59</course>
  <speed>0.05</speed>
  <fix>3d</fix>
</trkpt>
<trkpt lat="40.072856" lon="-105.2308994">
  <ele>1595.55</ele>
  <time>2026-08-27T18:30:06Z</time>
  <course>298.85</course>
  <speed>0.03</speed>
  <fix>3d</fix>
</trkpt>
<trkpt lat="40.0728559" lon="-105.2308997">
  <ele>1595.48</ele>
  <time>2026-08-27T18:30:06Z</time>
  <course>272.63</course>
  <speed>0.06</speed>
  <fix>3d</fix>
</trkpt>
<trkpt lat="40.072856" lon="-105.2308996">
  <ele>1595.55</ele>
  <time>2026-08-27T18:30:06Z</time>
  <course>298.15</course>
  <speed>0.04</speed>
  <fix>3d</fix>
</trkpt>
<trkpt lat="40.0728559" lon="-105.2308998">
  <ele>1595.48</ele>
  <time>2026-08-27T18:30:06Z</time>
  <course>273.04</course>
  <speed>0.06</speed>
  <fix>3d</fix>
</trkpt>
<trkpt lat="40.072856" lon="-105.2308997">
  <ele>1595.56</ele>
  <time>2026-08-27T18:30:06Z</time>
  <course>298.28</course>
  <speed>0.03</speed>
  <fix>3d</fix>
</trkpt>
<trkpt lat="40.0728559" lon="-105.2308999">
  <ele>1595.48</ele>
  <time>2026-08-27T18:30:06Z</time>
  <course>276.17</course>
  <speed>0.05</speed>
  <fix>3d</fix>
</trkpt>
<trkpt lat="40.072856" lon="-105.2308998">
  <ele>1595.56</ele>
  <time>2026-08-27T18:30:06Z</time>
  <course>298.28</course>
  <speed>0.02</speed>
  <fix>3d</fix>
</trkpt>
<trkpt lat="40.0728559" lon="-105.2309">
  <ele>1595.49</ele>
  <time>2026-08-27T18:30:06Z</time>
  <course>281.36</course>
  <speed>0.05</speed>
  <fix>3d</fix>
</trkpt>
<trkpt lat="40.072856" lon="-105.2308999">
  <ele>1595.56</ele>
  <time>2026-08-27T18:30:06Z</time>
  <course>298.38</course>
  <speed>0.01414213562373095</speed>
  <fix>3d</fix>
</trkpt>
<trkpt lat="40.0728559" lon="-105.2309002">
  <ele>1595.49</ele>
  <time>2026-08-27T18:30:06Z</time>
  <course>282.97</course>
  <speed>0.04</speed>
  <fix>3d</fix>
</trkpt>
<trkpt lat="40.072856" lon="-105.2309">
  <ele>1595.56</ele>
  <time>2026-08-27T18:30:06Z</time>
  <course>298.64</course>
  <speed>0.01414213562373095</speed>
  <fix>3d</fix>
</trkpt>
<trkpt lat="40.0728559" lon="-105.2309003">
  <ele>1595.49</ele>
  <time>2026-08-27T18:30:06Z</time>
  <course>278.3</course>
  <speed>0.04</speed>
  <fix>3d</fix>
</trkpt>
<trkpt lat="40.072856" lon="-105.2309001">
  <ele>1595.56</ele>
  <time>2026-08-27T18:30:06Z</time>
  <course>298.98</course>
  <speed>0.01</speed>
  <fix>3d</fix>
</trkpt>
<trkpt lat="40.0728559" lon="-105.2309004">
  <ele>1595.49</ele>
  <time>2026-08-27T18:30:06Z</time>
  <course>268.77</course>
  <speed>0.04</speed>
  <fix>3d</fix>
</trkpt>
<trkpt lat="40.072856" lon="-105.2309002">
  <ele>1595.56</ele>
  <time>2026-08-27T18:30:06Z</time>
  <course>299.28</course>
  <speed>0.01</speed>
  <fix>3d</fix>
</trkpt>
<trkpt lat="40.0728559" lon="-105.2309005">
  <ele>1595.49</ele>
  <time>2026-08-27T18:30:06Z</time>
  <course>258.49</course>
  <speed>0.04</speed>
  <fix>3d</fix>
</trkpt>
<trkpt lat="40.072856" lon="-105.2309003">
  <ele>1595.56</ele>
  <time>2026-08-27T18:30:06Z</time>
  <course>299.43</course>
  <speed>0.01</speed>
  <fix>3d</fix>
</trkpt>
<trkpt lat="40.0728559" lon="-105.2309006">
  <ele>1595.49</ele>
  <time>2026-08-27T18:30:06Z</time>
  <course>251.28</course>
  <speed>0.04</speed>
  <fix>3d</fix>
</trkpt>
<trkpt lat="40.072856" lon="-105.2309004">
  <ele>1595.56</ele>
  <time>2026-08-27T18:30:06Z</time>
  <course>299.37</course>
  <speed>0.01</speed>
  <fix>3d</fix>
</trkpt>
<trkpt lat="40.0728559" lon="-105.2309007">
  <ele>1595.49</ele>
  <time>2026-08-27T18:30:06Z</time>
  <course>248.46</course>
  <speed>0.04</speed>
  <fix>3d</fix>
</trkpt>
<trkpt lat="40.072856" lon="-105.2309005">
  <ele>1595.57</ele>
  <time>2026-08-27T18:30:06Z</time>
  <course>299.12</course>
  <speed>0.01414213562373095</speed>
  <fix>3d</fix>
</trkpt>
<trkpt lat="40.0728559" lon="-105.2309008">
  <ele>1595.49</ele>
  <time>2026-08-27T18:30:06Z</time>
  <course>249.89</course>
  <speed>0.04</speed>
  <fix>3d</fix>
</trkpt>
<trkpt lat="40.072856" lon="-105.2309006">
  <ele>1595.57</ele>
  <time>2026-08-27T18:30:06Z</time>
  <course>298.81</course>
  <speed>0.01414213562373095</speed>
  <fix>3d</fix>
</trkpt>
<trkpt lat="40.0728559" lon="-105.2309009">
  <ele>1595.49</ele>
  <time>2026-08-27T18:30:06Z</time>
  <course>255.77</course>
  <speed>0.04</speed>
  <fix>3d</fix>
</trkpt>
<trkpt lat="40.0728559" lon="-105.2309007">
  <ele>1595.57</ele>
  <time>2026-08-27T18:30:06Z</time>
  <course>298.51</course>
  <speed>0.01414213562373095</speed>
  <fix>3d</fix>
</trkpt>
<trkpt lat="40.0728559" lon="-105.230901">
  <ele>1595.49</ele>
  <time>2026-08-27T18:30:06Z</time>
  <course>265.98</course>
  <speed>0.03</speed>
  <fix>3d</fix>
</trkpt>
<trkpt lat="40.0728559" lon="-105.2309008">
  <ele>1595.57</ele>
  <time>2026-08-27T18:30:06Z</time>
  <course>298.33</course>
  <speed>0.01</speed>
  <fix>3d</fix>
</trkpt>
<trkpt lat="40.0728559" lon="-105.2309011">
  <ele>1595.48</ele>
  <time>2026-08-27T18:30:06Z</time>
  <course>277.11</course>
  <speed>0.03</speed>
  <fix>3d</fix>
</trkpt>
<trkpt lat="40.0728559" lon="-105.2309009">
  <ele>1595.57</ele>
  <time>2026-08-27T18:30:06Z</time>
  <course>298.36</course>
  <speed>0.0</speed>
  <fix>3d</fix>
</trkpt>
<trkpt lat="40.0728559" lon="-105.2309011">
  <ele>1595.48</ele>
  <time>2026-08-27T18:30:06Z</time>
  <course>282.69</course>
  <speed>0.02</speed>
  <fix>3d</fix>
</trkpt>
<trkpt lat="40.0728559" lon="-105.230901">
  <ele>1595.57</ele>
  <time>2026-08-27T18:30:06Z</time>
  <course>298.58</course>
  <speed>0.01</speed>
  <fix>3d</fix>
</trkpt>
<trkpt lat="40.0728559" lon="-105.2309012">
  <ele>1595.48</ele>
  <time>2026-08-27T18:30:06Z</time>
  <course>279.09</course>
  <speed>0.03</speed>
  <fix>3d</fix>
</trkpt>
<trkpt lat="40.0728559" lon="-105.230901">
  <ele>1595.57</ele>
  <time>2026-08-27T18:30:06Z</time>
  <course>299.92</course>
  <speed>0.0</speed>
  <fix>3d</fix>
</trkpt>
<trkpt lat="40.0728558" lon="-105.2309013">
  <ele>1595.48</ele>
  <time>2026-08-27T18:30:06Z</time>
  <course>262.48</course>
  <speed>0.03</speed>
  <fix>3d</fix>
</trkpt>
<trkpt lat="40.072856" lon="-105.2309011">
  <ele>1595.57</ele>
  <time>2026-08-27T18:30:06Z</time>
  <course>299.29</course>
  <speed>0.0</speed>
  <fix>3d</fix>
</trkpt>
<trkpt lat="40.0728558" lon="-105.2309014">
  <ele>1595.47</ele>
  <time>2026-08-27T18:30:06Z</time>
  <course>259.58</course>
  <speed>0.03</speed>
  <fix>3d</fix>
</trkpt>
<trkpt lat="40.072856" lon="-105.2309012">
  <ele>1595.56</ele>
  <time>2026-08-27T18:30:06Z</time>
  <course>298.66</course>
  <speed>0.01</speed>
  <fix>3d</fix>
</trkpt>
<trkpt lat="40.0728558" lon="-105.2309015">
  <ele>1595.47</ele>
  <time>2026-08-27T18:30:06Z</time>
  <course>267.03</course>
  <speed>0.03</speed>
  <fix>3d</fix>
</trkpt>
<trkpt lat="40.072856" lon="-105.2309013">
  <ele>1595.56</ele>
  <time>2026-08-27T18:30:06Z</time>
  <course>298.39</course>
  <speed>0.01</speed>
  <fix>3d</fix>
</trkpt>
<trkpt lat="40.0728558" lon="-105.2309016">
  <ele>1595.47</ele>
  <time>2026-08-27T18:30:06Z</time>
  <course>266.09</course>
  <speed>0.03</speed>
  <fix>3d</fix>
</trkpt>
<trkpt lat="40.0728559" lon="-105.2309014">
  <ele>1595.55</ele>
  <time>2026-08-27T18:30:06Z</time>
  <course>298.28</course>
  <speed>0.01</speed>
  <fix>3d</fix>
</trkpt>
<trkpt lat="40.0728558" lon="-105.2309016">
  <ele>1595.47</ele>
  <time>2026-08-27T18:30:06Z</time>
  <course>265.39</course>
  <speed>0.04</speed>
  <fix>3d</fix>
</trkpt>
<trkpt lat="40.0728559" lon="-105.2309015">
  <ele>1595.55</ele>
  <time>2026-08-27T18:30:06Z</time>
  <course>298.24</course>
  <speed>0.01</speed>
  <fix>3d</fix>
</trkpt>
<trkpt lat="40.0728558" lon="-105.2309017">
  <ele>1595.47</ele>
  <time>2026-08-27T18:30:06Z</time>
  <course>265.27</course>
  <speed>0.04</speed>
  <fix>3d</fix>
</trkpt>
<trkpt lat="40.0728559" lon="-105.2309016">
  <ele>1595.55</ele>
  <time>2026-08-27T18:30:06Z</time>
  <course>298.22</course>
  <speed>0.01</speed>
  <fix>3d</fix>
</trkpt>
<trkpt lat="40.0728558" lon="-105.2309018">
  <ele>1595.47</ele>
  <time>2026-08-27T18:30:06Z</time>
  <course>265.5</course>
  <speed>0.04</speed>
  <fix>3d</fix>
</trkpt>
<trkpt lat="40.0728559" lon="-105.2309017">
  <ele>1595.55</ele>
  <time>2026-08-27T18:30:06Z</time>
  <course>298.22</course>
  <speed>0.01</speed>
  <fix>3d</fix>
</trkpt>
<trkpt lat="40.0728558" lon="-105.2309019">
  <ele>1595.47</ele>
  <time>2026-08-27T18:30:06Z</time>
  <course>266.14</course>
  <speed>0.04</speed>
  <fix>3d</fix>
</trkpt>
<trkpt lat="40.0728559" lon="-105.2309018">
  <ele>1595.56</ele>
  <time>2026-08-27T18:30:06Z</time>
  <course>298.22</course>
  <speed>0.02</speed>
  <fix>3d</fix>
</trkpt>
<trkpt lat="40.0728558" lon="-105.2309021">
  <ele>1595.47</ele>
  <time>2026-08-27T18:30:06Z</time>
  <course>266.66</course>
  <speed>0.04</speed>
  <fix>3d</fix>
</trkpt>
<trkpt lat="40.0728559" lon="-105.2309019">
  <ele>1595.57</ele>
  <time>2026-08-27T18:30:06Z</time>
  <course>298.22</course>
  <speed>0.02</speed>
  <fix>3d</fix>
</trkpt>
<trkpt lat="40.0728558" lon="-105.2309022">
  <ele>1595.47</ele>
  <time>2026-08-27T18:30:06Z</time>
  <course>266.67</course>
  <speed>0.04</speed>
  <fix>3d</fix>
</trkpt>
<trkpt lat="40.0728559" lon="-105.230902">
  <ele>1595.57</ele>
  <time>2026-08-27T18:30:06Z</time>
  <course>298.23</course>
  <speed>0.02</speed>
  <fix>3d</fix>
</trkpt>
<trkpt lat="40.0728558" lon="-105.2309023">
  <ele>1595.47</ele>
  <time>2026-08-27T18:30:06Z</time>
  <course>266.65</course>
  <speed>0.05</speed>
  <fix>3d</fix>
</trkpt>
<trkpt lat="40.0728559" lon="-105.2309022">
  <ele>1595.58</ele>
  <time>2026-08-27T18:30:06Z</time>
  <course>298.25</course>
  <speed>0.02</speed>
  <fix>3d</fix>
</trkpt>
<trkpt lat="40.0728558" lon="-105.2309024">
  <ele>1595.47</ele>
  <time>2026-08-27T18:30:06Z</time>
  <course>266.93</course>
  <speed>0.05</speed>
  <fix>3d</fix>
</trkpt>
<trkpt lat="40.0728559" lon="-105.2309023">
  <ele>1595.58</ele>
  <time>2026-08-27T18:30:06Z</time>
  <course>298.25</course>
  <speed>0.02</speed>
  <fix>3d</fix>
</trkpt>
<trkpt lat="40.0728558" lon="-105.2309025">
  <ele>1595.47</ele>
  <time>2026-08-27T18:30:06Z</time>
  <course>267.65</course>
  <speed>0.05</speed>
  <fix>3d</fix>
</trkpt>
<trkpt lat="40.0728559" lon="-105.2309024">
  <ele>1595.58</ele>
  <time>2026-08-27T18:30:06Z</time>
  <course>298.26</course>
  <speed>0.03</speed>
  <fix>3d</fix>
</trkpt>
<trkpt lat="40.0728558" lon="-105.2309027">
  <ele>1595.46</ele>
  <time>2026-08-27T18:30:06Z</time>
  <course>268.62</course>
  <speed>0.05</speed>
  <fix>3d</fix>
</trkpt>
<trkpt lat="40.0728559" lon="-105.2309026">
  <ele>1595.57</ele>
  <time>2026-08-27T18:30:06Z</time>
  <course>298.28</course>
  <speed>0.03</speed>
  <fix>3d</fix>
</trkpt>
<trkpt lat="40.0728558" lon="-105.2309028">
  <ele>1595.46</ele>
  <time>2026-08-27T18:30:06Z</time>
  <course>269.58</course>
  <speed>0.05</speed>
  <fix>3d</fix>
</trkpt>
<trkpt lat="40.0728559" lon="-105.2309027">
  <ele>1595.57</ele>
  <time>2026-08-27T18:30:06Z</time>
  <course>298.26</course>
  <speed>0.03</speed>
  <fix>3d</fix>
</trkpt>
<trkpt lat="40.0728558" lon="-105.2309029">
  <ele>1595.46</ele>
  <time>2026-08-27T18:30:06Z</time>
  <course>270.52</course>
  <speed>0.05</speed>
  <fix>3d</fix>
</trkpt>
<trkpt lat="40.0728559" lon="-105.2309028">
  <ele>1595.57</ele>
  <time>2026-08-27T18:30:06Z</time>
  <course>298.26</course>
  <speed>0.0316227766016838</speed>
  <fix>3d</fix>
</trkpt>
<trkpt lat="40.0728558" lon="-105.2309031">
  <ele>1595.45</ele>
  <time>2026-08-27T18:30:06Z</time>
  <course>271.53</course>
  <speed>0.06</speed>
  <fix>3d</fix>
</trkpt>
<trkpt lat="40.0728559" lon="-105.230903">
  <ele>1595.57</ele>
  <time>2026-08-27T18:30:06Z</time>
  <course>297.38</course>
  <speed>0.04</speed>
  <fix>3d</fix>
</trkpt>
<trkpt lat="40.0728558" lon="-105.2309032">
  <ele>1595.45</ele>
  <time>2026-08-27T18:30:06Z</time>
  <course>274.27</course>
  <speed>0.06</speed>
  <fix>3d</fix>
</trkpt>
<trkpt lat="40.0728559" lon="-105.2309031">
  <ele>1595.56</ele>
  <time>2026-08-27T18:30:06Z</time>
  <course>297.63</course>
  <speed>0.03</speed>
  <fix>3d</fix>
</trkpt>
<trkpt lat="40.0728558" lon="-105.2309033">
  <ele>1595.45</ele>
  <time>2026-08-27T18:30:06Z</time>
  <course>278.92</course>
  <speed>0.05</speed>
  <fix>3d</fix>
</trkpt>
<trkpt lat="40.0728559" lon="-105.2309032">
  <ele>1595.56</ele>
  <time>2026-08-27T18:30:06Z</time>
  <course>297.72</course>
  <speed>0.02</speed>
  <fix>3d</fix>
</trkpt>
<trkpt lat="40.0728558" lon="-105.2309035">
  <ele>1595.44</ele>
  <time>2026-08-27T18:30:06Z</time>
  <course>282.17</course>
  <speed>0.05</speed>
  <fix>3d</fix>
</trkpt>
<trkpt lat="40.0728559" lon="-105.2309034">
  <ele>1595.56</ele>
  <time>2026-08-27T18:30:06Z</time>
  <course>297.89</course>
  <speed>0.01414213562373095</speed>
  <fix>3d</fix>
</trkpt>
<trkpt lat="40.0728558" lon="-105.2309036">
  <ele>1595.44</ele>
  <time>2026-08-27T18:30:06Z</time>
  <course>280.45</course>
  <speed>0.04</speed>
  <fix>3d</fix>
</trkpt>
<trkpt lat="40.0728559" lon="-105.2309034">
  <ele>1595.55</ele>
  <time>2026-08-27T18:30:06Z</time>
  <course>298.19</course>
  <speed>0.01414213562373095</speed>
  <fix>3d</fix>
</trkpt>
<trkpt lat="40.0728558" lon="-105.2309037">
  <ele>1595.44</ele>
  <time>2026-08-27T18:30:06Z</time>
  <course>273.07</course>
  <speed>0.04</speed>
  <fix>3d</fix>
</trkpt>
<trkpt lat="40.0728559" lon="-105.2309035">
  <ele>1595.55</ele>
  <time>2026-08-27T18:30:06Z</time>
  <course>298.5</course>
  <speed>0.01</speed>
  <fix>3d</fix>
</trkpt>
<trkpt lat="40.0728558" lon="-105.2309038">
  <ele>1595.44</ele>
  <time>2026-08-27T18:30:06Z</time>
  <course>262.87</course>
  <speed>0.04</speed>
  <fix>3d</fix>
</trkpt>
<trkpt lat="40.0728559" lon="-105.2309036">
  <ele>1595.56</ele>
  <time>2026-08-27T18:30:06Z</time>
  <course>298.72</course>
  <speed>0.01</speed>
  <fix>3d</fix>
</trkpt>
<trkpt lat="40.0728558" lon="-105.2309039">
  <ele>1595.44</ele>
  <time>2026-08-27T18:30:06Z</time>
  <course>254.17</course>
  <speed>0.04</speed>
  <fix>3d</fix>
</trkpt>
<trkpt lat="40.0728559" lon="-105.2309037">
  <ele>1595.56</ele>
  <time>2026-08-27T18:30:06Z</time>
  <course>298.77</course>
  <speed>0.01</speed>
  <fix>3d</fix>
</trkpt>
<trkpt lat="40.0728558" lon="-105.230904">
  <ele>1595.44</ele>
  <time>2026-08-27T18:30:06Z</time>
  <course>249.33</course>
  <speed>0.04</speed>
  <fix>3d</fix>
</trkpt>
<trkpt lat="40.0728559" lon="-105.2309038">
  <ele>1595.56</ele>
  <time>2026-08-27T18:30:06Z</time>
  <course>298.62</course>
  <speed>0.01</speed>
  <fix>3d</fix>
</trkpt>
<trkpt lat="40.0728557" lon="-105.2309041">
  <ele>1595.44</ele>
  <time>2026-08-27T18:30:06Z</time>
  <course>248.66</course>
  <speed>0.04</speed>
  <fix>3d</fix>
</trkpt>
<trkpt lat="40.0728559" lon="-105.2309039">
  <ele>1595.56</ele>
  <time>2026-08-27T18:30:06Z</time>
  <course>298.34</course>
  <speed>0.01414213562373095</speed>
  <fix>3d</fix>
</trkpt>
<trkpt lat="40.0728557" lon="-105.2309042">
  <ele>1595.44</ele>
  <time>2026-08-27T18:30:06Z</time>
  <course>252.31</course>
  <speed>0.04</speed>
  <fix>3d</fix>
</trkpt>
<trkpt lat="40.0728558" lon="-105.230904">
  <ele>1595.56</ele>
  <time>2026-08-27T18:30:06Z</time>
  <course>298.02</course>
  <speed>0.01414213562373095</speed>
  <fix>3d</fix>
</trkpt>
<trkpt lat="40.0728557" lon="-105.2309043">
  <ele>1595.44</ele>
  <time>2026-08-27T18:30:06Z</time>
  <course>260.38</course>
  <speed>0.03</speed>
  <fix>3d</fix>
</trkpt>
<trkpt lat="40.0728558" lon="-105.2309041">
  <ele>1595.56</ele>
  <time>2026-08-27T18:30:06Z</time>
  <course>297.76</course>
  <speed>0.01</speed>
  <fix>3d</fix>
</trkpt>
<trkpt lat="40.0728557" lon="-105.2309044">
  <ele>1595.44</ele>
  <time>2026-08-27T18:30:06Z</time>
  <course>271.17</course>
  <speed>0.03</speed>
  <fix>3d</fix>
</trkpt>
<trkpt lat="40.0728558" lon="-105.2309042">
  <ele>1595.56</ele>
  <time>2026-08-27T18:30:06Z</time>
  <course>297.7</course>
  <speed>0.01</speed>
  <fix>3d</fix>
</trkpt>
<trkpt lat="40.0728557" lon="-105.2309045">
  <ele>1595.44</ele>
  <time>2026-08-27T18:30:06Z</time>
  <course>279.58</course>
  <speed>0.03</speed>
  <fix>3d</fix>
</trkpt>
<trkpt lat="40.0728558" lon="-105.2309043">
  <ele>1595.56</ele>
  <time>2026-08-27T18:30:06Z</time>
  <course>297.83</course>
  <speed>0.0</speed>
  <fix>3d</fix>
</trkpt>
<trkpt lat="40.0728557" lon="-105.2309046">
  <ele>1595.44</ele>
  <time>2026-08-27T18:30:06Z</time>
  <course>280.44</course>
  <speed>0.03</speed>
  <fix>3d</fix>
</trkpt>
<trkpt lat="40.0728558" lon="-105.2309044">
  <ele>1595.56</ele>
  <time>2026-08-27T18:30:06Z</time>
  <course>298.11</course>
  <speed>0.01</speed>
  <fix>3d</fix>
</trkpt>
<trkpt lat="40.0728557" lon="-105.2309047">
  <ele>1595.44</ele>
  <time>2026-08-27T18:30:06Z</time>
  <course>272.84</course>
  <speed>0.03</speed>
  <fix>3d</fix>
</trkpt>
<trkpt lat="40.0728558" lon="-105.2309044">
  <ele>1595.56</ele>
  <time>2026-08-27T18:30:06Z</time>
  <course>299.11</course>
  <speed>0.0</speed>
  <fix>3d</fix>
</trkpt>
<trkpt lat="40.0728557" lon="-105.2309047">
  <ele>1595.44</ele>
  <time>2026-08-27T18:30:06Z</time>
  <course>258.67</course>
  <speed>0.03</speed>
  <fix>3d</fix>
</trkpt>
<trkpt lat="40.0728558" lon="-105.2309045">
  <ele>1595.56</ele>
  <time>2026-08-27T18:30:06Z</time>
  <course>298.44</course>
  <speed>0.0</speed>
  <fix>3d</fix>
</trkpt>
<trkpt lat="40.0728556" lon="-105.2309048">
  <ele>1595.44</ele>
  <time>2026-08-27T18:30:06Z</time>
  <course>258.3</course>
  <speed>0.03</speed>
  <fix>3d</fix>
</trkpt>
<trkpt lat="40.0728558" lon="-105.2309046">
  <ele>1595.56</ele>
  <time>2026-08-27T18:30:06Z</time>
  <course>297.91</course>
  <speed>0.01</speed>
  <fix>3d</fix>
</trkpt>
<trkpt lat="40.0728555" lon="-105.2309049">
  <ele>1595.44</ele>
  <time>2026-08-27T18:30:06Z</time>
  <course>265.68</course>
  <speed>0.03</speed>
  <fix>3d</fix>
</trkpt>
<trkpt lat="40.0728558" lon="-105.2309047">
  <ele>1595.56</ele>
  <time>2026-08-27T18:30:06Z</time>
  <course>297.7</course>
  <speed>0.01</speed>
  <fix>3d</fix>
</trkpt>
<trkpt lat="40.0728555" lon="-105.230905">
  <ele>1595.44</ele>
  <time>2026-08-27T18:30:06Z</time>
  <course>264.75</course>
  <speed>0.03</speed>
  <fix>3d</fix>
</trkpt>
<trkpt lat="40.0728558" lon="-105.2309048">
  <ele>1595.56</ele>
  <time>2026-08-27T18:30:06Z</time>
  <course>297.63</course>
  <speed>0.01</speed>
  <fix>3d</fix>
</trkpt>
<trkpt lat="40.0728555" lon="-105.2309051">
  <ele>1595.44</ele>
  <time>2026-08-27T18:30:06Z</time>
  <course>264.46</course>
  <speed>0.04</speed>
  <fix>3d</fix>
</trkpt>
<trkpt lat="40.0728557" lon="-105.2309049">
  <ele>1595.55</ele>
  <time>2026-08-27T18:30:06Z</time>
  <course>297.6</course>
  <speed>0.01</speed>
  <fix>3d</fix>
</trkpt>
<trkpt lat="40.0728555" lon="-105.2309052">
  <ele>1595.44</ele>
  <time>2026-08-27T18:30:06Z</time>
  <course>264.68</course>
  <speed>0.04</speed>
  <fix>3d</fix>
</trkpt>
<trkpt lat="40.0728557" lon="-105.230905">
  <ele>1595.55</ele>
  <time>2026-08-27T18:30:06Z</time>
  <course>297.58</course>
  <speed>0.01</speed>
  <fix>3d</fix>
</trkpt>
<trkpt lat="40.0728555" lon="-105.2309053">
  <ele>1595.44</ele>
  <time>2026-08-27T18:30:06Z</time>
  <course>265.19</course>
  <speed>0.04</speed>
  <fix>3d</fix>
</trkpt>
<trkpt lat="40.0728557" lon="-105.2309051">
  <ele>1595.55</ele>
  <time>2026-08-27T18:30:06Z</time>
  <course>297.56</course>
  <speed>0.02</speed>
  <fix>3d</fix>
</trkpt>
<trkpt lat="40.0728555" lon="-105.2309054">
  <ele>1595.44</ele>
  <time>2026-08-27T18:30:06Z</time>
  <course>265.88</course>
  <speed>0.04</speed>
  <fix>3d</fix>
</trkpt>
<trkpt lat="40.0728557" lon="-105.2309052">
  <ele>1595.55</ele>
  <time>2026-08-27T18:30:06Z</time>
  <course>297.57</course>
  <speed>0.02</speed>
  <fix>3d</fix>
</trkpt>
<trkpt lat="40.0728555" lon="-105.2309055">
  <ele>1595.44</ele>
  <time>2026-08-27T18:30:06Z</time>
  <course>266.46</course>
  <speed>0.04</speed>
  <fix>3d</fix>
</trkpt>
<trkpt lat="40.0728557" lon="-105.2309054">
  <ele>1595.55</ele>
  <time>2026-08-27T18:30:06Z</time>
  <course>297.58</course>
  <speed>0.02</speed>
  <fix>3d</fix>
</trkpt>
<trkpt lat="40.0728555" lon="-105.2309056">
  <ele>1595.45</ele>
  <time>2026-08-27T18:30:06Z</time>
  <course>266.64</course>
  <speed>0.04</speed>
  <fix>3d</fix>
</trkpt>
<trkpt lat="40.0728556" lon="-105.2309055">
  <ele>1595.55</ele>
  <time>2026-08-27T18:30:06Z</time>
  <course>297.59</course>
  <speed>0.02</speed>
  <fix>3d</fix>
</trkpt>
<trkpt lat="40.0728555" lon="-105.2309057">
  <ele>1595.45</ele>
  <time>2026-08-27T18:30:06Z</time>
  <course>266.96</course>
  <speed>0.05</speed>
  <fix>3d</fix>
</trkpt>
<trkpt lat="40.0728556" lon="-105.2309056">
  <ele>1595.55</ele>
  <time>2026-08-27T18:30:06Z</time>
  <course>297.59</course>
  <speed>0.02</speed>
  <fix>3d</fix>
</trkpt>
<trkpt lat="40.0728555" lon="-105.2309059">
  <ele>1595.45</ele>
  <time>2026-08-27T18:30:06Z</time>
  <course>267.53</course>
  <speed>0.05</speed>
  <fix>3d</fix>
</trkpt>
<trkpt lat="40.0728556" lon="-105.2309057">
  <ele>1595.55</ele>
  <time>2026-08-27T18:30:06Z</time>
  <course>297.59</course>
  <speed>0.02</speed>
  <fix>3d</fix>
</trkpt>
<trkpt lat="40.0728555" lon="-105.230906">
  <ele>1595.45</ele>
  <time>2026-08-27T18:30:06Z</time>
  <course>268.22</course>
  <speed>0.05</speed>
  <fix>3d</fix>
</trkpt>
<trkpt lat="40.0728556" lon="-105.2309059">
  <ele>1595.55</ele>
  <time>2026-08-27T18:30:06Z</time>
  <course>297.59</course>
  <speed>0.03</speed>
  <fix>3d</fix>
</trkpt>
<trkpt lat="40.0728555" lon="-105.2309061">
  <ele>1595.45</ele>
  <time>2026-08-27T18:30:06Z</time>
  <course>268.99</course>
  <speed>0.05</speed>
  <fix>3d</fix>
</trkpt>
<trkpt lat="40.0728556" lon="-105.230906">
  <ele>1595.55</ele>
  <time>2026-08-27T18:30:06Z</time>
  <course>297.59</course>
  <speed>0.03</speed>
  <fix>3d</fix>
</trkpt>
<trkpt lat="40.0728555" lon="-105.2309062">
  <ele>1595.46</ele>
  <time>2026-08-27T18:30:06Z</time>
  <course>269.53</course>
  <speed>0.05</speed>
  <fix>3d</fix>
</trkpt>
<trkpt lat="40.0728556" lon="-105.2309062">
  <ele>1595.55</ele>
  <time>2026-08-27T18:30:06Z</time>
  <course>297.59</course>
  <speed>0.03</speed>
  <fix>3d</fix>
</trkpt>
<trkpt lat="40.0728555" lon="-105.2309064">
  <ele>1595.46</ele>
  <time>2026-08-27T18:30:06Z</time>
  <course>269.87</course>
  <speed>0.05</speed>
  <fix>3d</fix>
</trkpt>
<trkpt lat="40.0728556" lon="-105.2309063">
  <ele>1595.55</ele>
  <time>2026-08-27T18:30:06Z</time>
  <course>297.59</course>
  <speed>0.03</speed>
  <fix>3d</fix>
</trkpt>
<trkpt lat="40.0728555" lon="-105.2309065">
  <ele>1595.46</ele>
  <time>2026-08-27T18:30:06Z</time>
  <course>270.39</course>
  <speed>0.06</speed>
  <fix>3d</fix>
</trkpt>
<trkpt lat="40.0728556" lon="-105.2309064">
  <ele>1595.55</ele>
  <time>2026-08-27T18:30:06Z</time>
  <course>296.59</course>
  <speed>0.04</speed>
  <fix>3d</fix>
</trkpt>
<trkpt lat="40.0728555" lon="-105.2309066">
  <ele>1595.46</ele>
  <time>2026-08-27T18:30:06Z</time>
  <course>273.48</course>
  <speed>0.06</speed>
  <fix>3d</fix>
</trkpt>
<trkpt lat="40.0728556" lon="-105.2309066">
  <ele>1595.55</ele>
  <time>2026-08-27T18:30:06Z</time>
  <course>296.88</course>
  <speed>0.03</speed>
  <fix>3d</fix>
</trkpt>
<trkpt lat="40.0728555" lon="-105.2309068">
  <ele>1595.46</ele>
  <time>2026-08-27T18:30:06Z</time>
  <course>278.58</course>
  <speed>0.05</speed>
  <fix>3d</fix>
</trkpt>
<trkpt lat="40.0728556" lon="-105.2309067">
  <ele>1595.55</ele>
  <time>2026-08-27T18:30:06Z</time>
  <course>297.16</course>
  <speed>0.022360679774997897</speed>
  <fix>3d</fix>
</trkpt>
<trkpt lat="40.0728555" lon="-105.2309069">
  <ele>1595.47</ele>
  <time>2026-08-27T18:30:06Z</time>
  <course>279.89</course>
  <speed>0.05</speed>
  <fix>3d</fix>
</trkpt>
<trkpt lat="40.0728556" lon="-105.2309068">
  <ele>1595.55</ele>
  <time>2026-08-27T18:30:06Z</time>
  <course>297.56</course>
  <speed>0.01414213562373095</speed>
  <fix>3d</fix>
</trkpt>
<trkpt lat="40.0728555" lon="-105.2309071">
  <ele>1595.47</ele>
  <time>2026-08-27T18:30:06Z</time>
  <course>273.23</course>
  <speed>0.04</speed>
  <fix>3d</fix>
</trkpt>
<trkpt lat="40.0728556" lon="-105.2309069">
  <ele>1595.55</ele>
  <time>2026-08-27T18:30:06Z</time>
  <course>297.98</course>
  <speed>0.01414213562373095</speed>
  <fix>3d</fix>
</trkpt>
<trkpt lat="40.0728555" lon="-105.2309072">
  <ele>1595.47</ele>
  <time>2026-08-27T18:30:06Z</time>
  <course>261.75</course>
  <speed>0.04</speed>
  <fix>3d</fix>
</trkpt>
<trkpt lat="40.0728556" lon="-105.230907">
  <ele>1595.55</ele>
  <time>2026-08-27T18:30:06Z</time>
  <course>298.16</course>
  <speed>0.01</speed>
  <fix>3d</fix>
</trkpt>
<trkpt lat="40.0728555" lon="-105.2309073">
  <ele>1595.47</ele>
  <time>2026-08-27T18:30:06Z</time>
  <course>252.98</course>
  <speed>0.05</speed>
  <fix>3d</fix>
</trkpt>
<trkpt lat="40.0728556" lon="-105.2309071">
  <ele>1595.56</ele>
  <time>2026-08-27T18:30:06Z</time>
  <course>298.02</course>
  <speed>0.01</speed>
  <fix>3d</fix>
</trkpt>
<trkpt lat="40.0728555" lon="-105.2309074">
  <ele>1595.48</ele>
  <time>2026-08-27T18:30:06Z</time>
  <course>250.18</course>
  <speed>0.05</speed>
  <fix>3d</fix>
</trkpt>
<trkpt lat="40.0728556" lon="-105.2309072">
  <ele>1595.56</ele>
  <time>2026-08-27T18:30:06Z</time>
  <course>297.64</course>
  <speed>0.022360679774997897</speed>
  <fix>3d</fix>
</trkpt>
<trkpt lat="40.0728555" lon="-105.2309075">
  <ele>1595.48</ele>
  <time>2026-08-27T18:30:06Z</time>
  <course>253.75</course>
  <speed>0.04</speed>
  <fix>3d</fix>
</trkpt>
<trkpt lat="40.0728556" lon="-105.2309073">
  <ele>1595.56</ele>
  <time>2026-08-27T18:30:06Z</time>
  <course>297.25</course>
  <speed>0.01414213562373095</speed>
  <fix>3d</fix>
</trkpt>
<trkpt lat="40.0728554" lon="-105.2309076">
  <ele>1595.48</ele>
  <time>2026-08-27T18:30:06Z</time>
  <course>263.42</course>
  <speed>0.03</speed>
  <fix>3d</fix>
</trkpt>
<trkpt lat="40.0728555" lon="-105.2309074">
  <ele>1595.56</ele>
  <time>2026-08-27T18:30:06Z</time>
  <course>297.04</course>
  <speed>0.01</speed>
  <fix>3d</fix>
</trkpt>
<trkpt lat="40.0728554" lon="-105.2309076">
  <ele>1595.48</ele>
  <time>2026-08-27T18:30:06Z</time>
  <course>275.27</course>
  <speed>0.03</speed>
  <fix>3d</fix>
</trkpt>
<trkpt lat="40.0728555" lon="-105.2309075">
  <ele>1595.55</ele>
  <time>2026-08-27T18:30:06Z</time>
  <course>297.13</course>
  <speed>0.0</speed>
  <fix>3d</fix>
</trkpt>
<trkpt lat="40.0728554" lon="-105.2309077">
  <ele>1595.48</ele>
  <time>2026-08-27T18:30:06Z</time>
  <course>280.23</course>
  <speed>0.03</speed>
  <fix>3d</fix>
</trkpt>
<trkpt lat="40.0728555" lon="-105.2309076">
  <ele>1595.55</ele>
  <time>2026-08-27T18:30:06Z</time>
  <course>297.48</course>
  <speed>0.01</speed>
  <fix>3d</fix>
</trkpt>
<trkpt lat="40.0728554" lon="-105.2309078">
  <ele>1595.48</ele>
  <time>2026-08-27T18:30:06Z</time>
  <course>272.51</course>
  <speed>0.03</speed>
  <fix>3d</fix>
</trkpt>
<trkpt lat="40.0728555" lon="-105.2309076">
  <ele>1595.56</ele>
  <time>2026-08-27T18:30:06Z</time>
  <course>297.9</course>
  <speed>0.01</speed>
  <fix>3d</fix>
</trkpt>
<trkpt lat="40.0728554" lon="-105.2309079">
  <ele>1595.49</ele>
  <time>2026-08-27T18:30:06Z</time>
  <course>258.61</course>
  <speed>0.03</speed>
  <fix>3d</fix>
</trkpt>
<trkpt lat="40.0728555" lon="-105.2309077">
  <ele>1595.56</ele>
  <time>2026-08-27T18:30:06Z</time>
  <course>298.15</course>
  <speed>0.0</speed>
  <fix>3d</fix>
</trkpt>
<trkpt lat="40.0728554" lon="-105.230908">
  <ele>1595.49</ele>
  <time>2026-08-27T18:30:06Z</time>
  <course>248.76</course>
  <speed>0.04</speed>
  <fix>3d</fix>
</trkpt>
<trkpt lat="40.0728555" lon="-105.2309078">
  <ele>1595.57</ele>
  <time>2026-08-27T18:30:06Z</time>
  <course>298.1</course>
  <speed>0.01</speed>
  <fix>3d</fix>
</trkpt>
<trkpt lat="40.0728554" lon="-105.2309081">
  <ele>1595.49</ele>
  <time>2026-08-27T18:30:06Z</time>
  <course>245.4</course>
  <speed>0.04</speed>
  <fix>3d</fix>
</trkpt>
<trkpt lat="40.0728555" lon="-105.2309079">
  <ele>1595.57</ele>
  <time>2026-08-27T18:30:06Z</time>
  <course>297.75</course>
  <speed>0.01414213562373095</speed>
  <fix>3d</fix>
</trkpt>
<trkpt lat="40.0728554" lon="-105.2309082">
  <ele>1595.49</ele>
  <time>2026-08-27T18:30:06Z</time>
  <course>248.39</course>
  <speed>0.04</speed>
  <fix>3d</fix>
</trkpt>
<trkpt lat="40.0728554" lon="-105.230908">
  <ele>1595.57</ele>
  <time>2026-08-27T18:30:06Z</time>
  <course>298.37</course>
  <speed>0.01</speed>
  <fix>3d</fix>
</trkpt>
<trkpt lat="40.0728554" lon="-105.2309082">
  <ele>1595.49</ele>
  <time>2026-08-27T18:30:06Z</time>
  <course>255.62</course>
  <speed>0.03</speed>
  <fix>3d</fix>
</trkpt>
<trkpt lat="40.0728554" lon="-105.2309081">
  <ele>1595.58</ele>
  <time>2026-08-27T18:30:06Z</time>
  <course>297.58</course>
  <speed>0.01</speed>
  <fix>3d</fix>
</trkpt>
<trkpt lat="40.0728554" lon="-105.2309083">
  <ele>1595.49</ele>
  <time>2026-08-27T18:30:06Z</time>
  <course>260.97</course>
  <speed>0.03</speed>
  <fix>3d</fix>
</trkpt>
<trkpt lat="40.0728554" lon="-105.2309082">
  <ele>1595.58</ele>
  <time>2026-08-27T18:30:06Z</time>
  <course>297.21</course>
  <speed>0.01</speed>
  <fix>3d</fix>
</trkpt>
<trkpt lat="40.0728554" lon="-105.2309084">
  <ele>1595.49</ele>
  <time>2026-08-27T18:30:06Z</time>
  <course>261.85</course>
  <speed>0.03</speed>
  <fix>3d</fix>
</trkpt>
<trkpt lat="40.0728554" lon="-105.2309083">
  <ele>1595.57</ele>
  <time>2026-08-27T18:30:06Z</time>
  <course>297.03</course>
  <speed>0.01</speed>
  <fix>3d</fix>
</trkpt>
<trkpt lat="40.0728554" lon="-105.2309085">
  <ele>1595.49</ele>
  <time>2026-08-27T18:30:06Z</time>
  <course>262.01</course>
  <speed>0.04</speed>
  <fix>3d</fix>
</trkpt>
<trkpt lat="40.0728554" lon="-105.2309084">
  <ele>1595.57</ele>
  <time>2026-08-27T18:30:06Z</time>
  <course>296.98</course>
  <speed>0.01</speed>
  <fix>3d</fix>
</trkpt>
<trkpt lat="40.0728554" lon="-105.2309086">
  <ele>1595.48</ele>
  <time>2026-08-27T18:30:07Z</time>
  <course>263.0</course>
  <speed>0.04</speed>
  <fix>3d</fix>
</trkpt>
<trkpt lat="40.0728554" lon="-105.2309085">
  <ele>1595.57</ele>
  <time>2026-08-27T18:30:07Z</time>
  <course>296.96</course>
  <speed>0.02</speed>
  <fix>3d</fix>
</trkpt>
<trkpt lat="40.0728554" lon="-105.2309087">
  <ele>1595.48</ele>
  <time>2026-08-27T18:30:07Z</time>
  <course>263.97</course>
  <speed>0.04</speed>
  <fix>3d</fix>
</trkpt>
<trkpt lat="40.0728554" lon="-105.2309086">
  <ele>1595.56</ele>
  <time>2026-08-27T18:30:07Z</time>
  <course>296.95</course>
  <speed>0.02</speed>
  <fix>3d</fix>
</trkpt>
<trkpt lat="40.0728554" lon="-105.2309088">
  <ele>1595.48</ele>
  <time>2026-08-27T18:30:07Z</time>
  <course>264.88</course>
  <speed>0.04</speed>
  <fix>3d</fix>
</trkpt>
<trkpt lat="40.0728554" lon="-105.2309087">
  <ele>1595.56</ele>
  <time>2026-08-27T18:30:07Z</time>
  <course>296.94</course>
  <speed>0.02</speed>
  <fix>3d</fix>
</trkpt>
<trkpt lat="40.0728554" lon="-105.2309089">
  <ele>1595.48</ele>
  <time>2026-08-27T18:30:07Z</time>
  <course>265.62</course>
  <speed>0.04</speed>
  <fix>3d</fix>
</trkpt>
<trkpt lat="40.0728554" lon="-105.2309088">
  <ele>1595.55</ele>
  <time>2026-08-27T18:30:07Z</time>
  <course>296.94</course>
  <speed>0.02</speed>
  <fix>3d</fix>
</trkpt>
<trkpt lat="40.0728554" lon="-105.230909">
  <ele>1595.48</ele>
  <time>2026-08-27T18:30:07Z</time>
  <course>266.22</course>
  <speed>0.04</speed>
  <fix>3d</fix>
</trkpt>
<trkpt lat="40.0728554" lon="-105.2309089">
  <ele>1595.56</ele>
  <time>2026-08-27T18:30:07Z</time>
  <course>296.93</course>
  <speed>0.02</speed>
  <fix>3d</fix>
</trkpt>
<trkpt lat="40.0728554" lon="-105.2309091">
  <ele>1595.48</ele>
  <time>2026-08-27T18:30:07Z</time>
  <course>266.76</course>
  <speed>0.05</speed>
  <fix>3d</fix>
</trkpt>
<trkpt lat="40.0728554" lon="-105.2309091">
  <ele>1595.56</ele>
  <time>2026-08-27T18:30:07Z</time>
  <course>296.94</course>
  <speed>0.02</speed>
  <fix>3d</fix>
</trkpt>
<trkpt lat="40.0728553" lon="-105.2309093">
  <ele>1595.48</ele>
  <time>2026-08-27T18:30:07Z</time>
  <course>267.21</course>
  <speed>0.05</speed>
  <fix>3d</fix>
</trkpt>
<trkpt lat="40.0728554" lon="-105.2309092">
  <ele>1595.56</ele>
  <time>2026-08-27T18:30:07Z</time>
  <course>296.95</course>
  <speed>0.02</speed>
  <fix>3d</fix>
</trkpt>
<trkpt lat="40.0728553" lon="-105.2309094">
  <ele>1595.48</ele>
  <time>2026-08-27T18:30:07Z</time>
  <course>267.28</course>
  <speed>0.05</speed>
  <fix>3d</fix>
</trkpt>
<trkpt lat="40.0728554" lon="-105.2309093">
  <ele>1595.56</ele>
  <time>2026-08-27T18:30:07Z</time>
  <course>296.95</course>
  <speed>0.03</speed>
  <fix>3d</fix>
</trkpt>
<trkpt lat="40.0728553" lon="-105.2309095">
  <ele>1595.48</ele>
  <time>2026-08-27T18:30:07Z</time>
  <course>267.1</course>
  <speed>0.05</speed>
  <fix>3d</fix>
</trkpt>
<trkpt lat="40.0728554" lon="-105.2309094">
  <ele>1595.56</ele>
  <time>2026-08-27T18:30:07Z</time>
  <course>296.96</course>
  <speed>0.03</speed>
  <fix>3d</fix>
</trkpt>
<trkpt lat="40.0728553" lon="-105.2309096">
  <ele>1595.48</ele>
  <time>2026-08-27T18:30:07Z</time>
  <course>267.19</course>
  <speed>0.05</speed>
  <fix>3d</fix>
</trkpt>
<trkpt lat="40.0728554" lon="-105.2309096">
  <ele>1595.56</ele>
  <time>2026-08-27T18:30:07Z</time>
  <course>296.97</course>
  <speed>0.03</speed>
  <fix>3d</fix>
</trkpt>
<trkpt lat="40.0728553" lon="-105.2309098">
  <ele>1595.48</ele>
  <time>2026-08-27T18:30:07Z</time>
  <course>267.58</course>
  <speed>0.05</speed>
  <fix>3d</fix>
</trkpt>
<trkpt lat="40.0728554" lon="-105.2309097">
  <ele>1595.56</ele>
  <time>2026-08-27T18:30:07Z</time>
  <course>296.96</course>
  <speed>0.03</speed>
  <fix>3d</fix>
</trkpt>
<trkpt lat="40.0728553" lon="-105.2309099">
  <ele>1595.48</ele>
  <time>2026-08-27T18:30:07Z</time>
  <course>268.33</course>
  <speed>0.05</speed>
  <fix>3d</fix>
</trkpt>
<trkpt lat="40.0728554" lon="-105.2309098">
  <ele>1595.56</ele>
  <time>2026-08-27T18:30:07Z</time>
  <course>296.18</course>
  <speed>0.0282842712474619</speed>
  <fix>3d</fix>
</trkpt>
<trkpt lat="40.0728553" lon="-105.23091">
  <ele>1595.48</ele>
  <time>2026-08-27T18:30:07Z</time>
  <course>272.02</course>
  <speed>0.05</speed>
  <fix>3d</fix>
</trkpt>
<trkpt lat="40.0728554" lon="-105.23091">
  <ele>1595.56</ele>
  <time>2026-08-27T18:30:07Z</time>
  <course>297.2</course>
  <speed>0.022360679774997897</speed>
  <fix>3d</fix>
</trkpt>
<trkpt lat="40.0728553" lon="-105.2309102">
  <ele>1595.48</ele>
  <time>2026-08-27T18:30:07Z</time>
  <course>266.24</course>
  <speed>0.06</speed>
  <fix>3d</fix>
</trkpt>
<trkpt lat="40.0728554" lon="-105.2309101">
  <ele>1595.56</ele>
  <time>2026-08-27T18:30:07Z</time>
  <course>297.48</course>
  <speed>0.03</speed>
  <fix>3d</fix>
</trkpt>
<trkpt lat="40.0728553" lon="-105.2309103">
  <ele>1595.48</ele>
  <time>2026-08-27T18:30:07Z</time>
  <course>256.68</course>
  <speed>0.06</speed>
  <fix>3d</fix>
</trkpt>
<trkpt lat="40.0728554" lon="-105.2309102">
  <ele>1595.56</ele>
  <time>2026-08-27T18:30:07Z</time>
  <course>297.11</course>
  <speed>0.022360679774997897</speed>
  <fix>3d</fix>
</trkpt>
<trkpt lat="40.0728553" lon="-105.2309104">
  <ele>1595.48</ele>
  <time>2026-08-27T18:30:07Z</time>
  <course>257.2</course>
  <speed>0.05</speed>
  <fix>3d</fix>
</trkpt>
<trkpt lat="40.0728553" lon="-105.2309103">
  <ele>1595.56</ele>
  <time>2026-08-27T18:30:07Z</time>
  <course>296.57</course>
  <speed>0.022360679774997897</speed>
  <fix>3d</fix>
</trkpt>
<trkpt lat="40.0728553" lon="-105.2309106">
  <ele>1595.48</ele>
  <time>2026-08-27T18:30:07Z</time>
  <course>266.26</course>
  <speed>0.04</speed>
  <fix>3d</fix>
</trkpt>
<trkpt lat="40.0728553" lon="-105.2309104">
  <ele>1595.56</ele>
  <time>2026-08-27T18:30:07Z</time>
  <course>296.34</course>
  <speed>0.01</speed>
  <fix>3d</fix>
</trkpt>
<trkpt lat="40.0728553" lon="-105.2309107">
  <ele>1595.48</ele>
  <time>2026-08-27T18:30:07Z</time>
  <course>279.42</course>
  <speed>0.03</speed>
  <fix>3d</fix>
</trkpt>
<trkpt lat="40.0728553" lon="-105.2309105">
  <ele>1595.56</ele>
  <time>2026-08-27T18:30:07Z</time>
  <course>296.62</course>
  <speed>0.01414213562373095</speed>
  <fix>3d</fix>
</trkpt>
<trkpt lat="40.0728553" lon="-105.2309108">
  <ele>1595.48</ele>
  <time>2026-08-27T18:30:07Z</time>
  <course>282.39</course>
  <speed>0.03</speed>
  <fix>3d</fix>
</trkpt>
<trkpt lat="40.0728553" lon="-105.2309106">
  <ele>1595.56</ele>
  <time>2026-08-27T18:30:07Z</time>
  <course>297.15</course>
  <speed>0.01</speed>
  <fix>3d</fix>
</trkpt>
<trkpt lat="40.0728553" lon="-105.2309109">
  <ele>1595.48</ele>
  <time>2026-08-27T18:30:07Z</time>
  <course>269.97</course>
  <speed>0.03</speed>
  <fix>3d</fix>
</trkpt>
<trkpt lat="40.0728553" lon="-105.2309107">
  <ele>1595.56</ele>
  <time>2026-08-27T18:30:07Z</time>
  <course>297.54</course>
  <speed>0.0</speed>
  <fix>3d</fix>
</trkpt>
<trkpt lat="40.0728553" lon="-105.230911">
  <ele>1595.48</ele>
  <time>2026-08-27T18:30:07Z</time>
  <course>255.33</course>
  <speed>0.04</speed>
  <fix>3d</fix>
</trkpt>
<trkpt lat="40.0728553" lon="-105.2309108">
  <ele>1595.56</ele>
  <time>2026-08-27T18:30:07Z</time>
  <course>297.46</course>
  <speed>0.01</speed>
  <fix>3d</fix>
</trkpt>
<trkpt lat="40.0728553" lon="-105.2309111">
  <ele>1595.49</ele>
  <time>2026-08-27T18:30:07Z</time>
  <course>249.33</course>
  <speed>0.04</speed>
  <fix>3d</fix>
</trkpt>
<trkpt lat="40.0728553" lon="-105.2309109">
  <ele>1595.56</ele>
  <time>2026-08-27T18:30:07Z</time>
  <course>296.96</course>
  <speed>0.01414213562373095</speed>
  <fix>3d</fix>
</trkpt>
<trkpt lat="40.0728553" lon="-105.2309111">
  <ele>1595.49</ele>
  <time>2026-08-27T18:30:07Z</time>
  <course>253.25</course>
  <speed>0.04</speed>
  <fix>3d</fix>
</trkpt>
<trkpt lat="40.0728553" lon="-105.230911">
  <ele>1595.56</ele>
  <time>2026-08-27T18:30:07Z</time>
  <course>296.47</course>
  <speed>0.01</speed>
  <fix>3d</fix>
</trkpt>
<trkpt lat="40.0728553" lon="-105.2309112">
  <ele>1595.49</ele>
  <time>2026-08-27T18:30:07Z</time>
  <course>266.64</course>
  <speed>0.03</speed>
  <fix>3d</fix>
</trkpt>
<trkpt lat="40.0728553" lon="-105.2309111">
  <ele>1595.56</ele>
  <time>2026-08-27T18:30:07Z</time>
  <course>296.35</course>
  <speed>0.01</speed>
  <fix>3d</fix>
</trkpt>
<trkpt lat="40.0728552" lon="-105.2309113">
  <ele>1595.49</ele>
  <time>2026-08-27T18:30:07Z</time>
  <course>280.42</course>
  <speed>0.03</speed>
  <fix>3d</fix>
</trkpt>
<trkpt lat="40.0728553" lon="-105.2309112">
  <ele>1595.56</ele>
  <time>2026-08-27T18:30:07Z</time>
  <course>296.71</course>
  <speed>0.01</speed>
  <fix>3d</fix>
</trkpt>
<trkpt lat="40.0728552" lon="-105.2309114">
  <ele>1595.49</ele>
  <time>2026-08-27T18:30:07Z</time>
  <course>278.41</course>
  <speed>0.03</speed>
  <fix>3d</fix>
</trkpt>
<trkpt lat="40.0728553" lon="-105.2309112">
  <ele>1595.56</ele>
  <time>2026-08-27T18:30:07Z</time>
  <course>297.26</course>
  <speed>0.01</speed>
  <fix>3d</fix>
</trkpt>
<trkpt lat="40.0728552" lon="-105.2309115">
  <ele>1595.49</ele>
  <time>2026-08-27T18:30:07Z</time>
  <course>262.17</course>
  <speed>0.03</speed>
  <fix>3d</fix>
</trkpt>
<trkpt lat="40.0728553" lon="-105.2309113">
  <ele>1595.56</ele>
  <time>2026-08-27T18:30:07Z</time>
  <course>297.56</course>
  <speed>0.0</speed>
  <fix>3d</fix>
</trkpt>
<trkpt lat="40.0728552" lon="-105.2309116">
  <ele>1595.49</ele>
  <time>2026-08-27T18:30:07Z</time>
  <course>249.15</course>
  <speed>0.04</speed>
  <fix>3d</fix>
</trkpt>
<trkpt lat="40.0728553" lon="-105.2309114">
  <ele>1595.57</ele>
  <time>2026-08-27T18:30:07Z</time>
  <course>297.38</course>
  <speed>0.01</speed>
  <fix>3d</fix>
</trkpt>
<trkpt lat="40.0728552" lon="-105.2309116">
  <ele>1595.49</ele>
  <time>2026-08-27T18:30:07Z</time>
  <course>246.01</course>
  <speed>0.04</speed>
  <fix>3d</fix>
</trkpt>
<trkpt lat="40.0728553" lon="-105.2309115">
  <ele>1595.57</ele>
  <time>2026-08-27T18:30:07Z</time>
  <course>297.85</course>
  <speed>0.0</speed>
  <fix>3d</fix>
</trkpt>
<trkpt lat="40.0728552" lon="-105.2309117">
  <ele>1595.5</ele>
  <time>2026-08-27T18:30:07Z</time>
  <course>253.79</course>
  <speed>0.03</speed>
  <fix>3d</fix>
</trkpt>
<trkpt lat="40.0728553" lon="-105.2309116">
  <ele>1595.57</ele>
  <time>2026-08-27T18:30:07Z</time>
  <course>296.99</course>
  <speed>0.01</speed>
  <fix>3d</fix>
</trkpt>
<trkpt lat="40.0728552" lon="-105.2309118">
  <ele>1595.5</ele>
  <time>2026-08-27T18:30:07Z</time>
  <course>263.77</course>
  <speed>0.03</speed>
  <fix>3d</fix>
</trkpt>
<trkpt lat="40.0728553" lon="-105.2309117">
  <ele>1595.57</ele>
  <time>2026-08-27T18:30:07Z</time>
  <course>296.54</course>
  <speed>0.01</speed>
  <fix>3d</fix>
</trkpt>
<trkpt lat="40.0728552" lon="-105.2309119">
  <ele>1595.49</ele>
  <time>2026-08-27T18:30:07Z</time>
  <course>264.26</course>
  <speed>0.03</speed>
  <fix>3d</fix>
</trkpt>
<trkpt lat="40.0728552" lon="-105.2309117">
  <ele>1595.57</ele>
  <time>2026-08-27T18:30:07Z</time>
  <course>296.35</course>
  <speed>0.01</speed>
  <fix>3d</fix>
</trkpt>
<trkpt lat="40.0728552" lon="-105.230912">
  <ele>1595.49</ele>
  <time>2026-08-27T18:30:07Z</time>
  <course>263.88</course>
  <speed>0.03</speed>
  <fix>3d</fix>
</trkpt>
<trkpt lat="40.0728552" lon="-105.2309118">
  <ele>1595.57</ele>
  <time>2026-08-27T18:30:07Z</time>
  <course>296.28</course>
  <speed>0.01</speed>
  <fix>3d</fix>
</trkpt>
<trkpt lat="40.0728552" lon="-105.2309121">
  <ele>1595.49</ele>
  <time>2026-08-27T18:30:07Z</time>
  <course>264.28</course>
  <speed>0.04</speed>
  <fix>3d</fix>
</trkpt>
<trkpt lat="40.0728552" lon="-105.230912">
  <ele>1595.57</ele>
  <time>2026-08-27T18:30:07Z</time>
  <course>296.25</course>
  <speed>0.02</speed>
  <fix>3d</fix>
</trkpt>
<trkpt lat="40.0728552" lon="-105.2309122">
  <ele>1595.49</ele>
  <time>2026-08-27T18:30:07Z</time>
  <course>264.83</course>
  <speed>0.04</speed>
  <fix>3d</fix>
</trkpt>
<trkpt lat="40.0728552" lon="-105.2309121">
  <ele>1595.56</ele>
  <time>2026-08-27T18:30:07Z</time>
  <course>296.23</course>
  <speed>0.02</speed>
  <fix>3d</fix>
</trkpt>
<trkpt lat="40.0728551" lon="-105.2309123">
  <ele>1595.48</ele>
  <time>2026-08-27T18:30:07Z</time>
  <course>265.93</course>
  <speed>0.04</speed>
  <fix>3d</fix>
</trkpt>
<trkpt lat="40.0728552" lon="-105.2309122">
  <ele>1595.56</ele>
  <time>2026-08-27T18:30:07Z</time>
  <course>296.22</course>
  <speed>0.02</speed>
  <fix>3d</fix>
</trkpt>
<trkpt lat="40.0728551" lon="-105.2309124">
  <ele>1595.48</ele>
  <time>2026-08-27T18:30:07Z</time>
  <course>267.18</course>
  <speed>0.04</speed>
  <fix>3d</fix>
</trkpt>
<trkpt lat="40.0728552" lon="-105.2309123">
  <ele>1595.56</ele>
  <time>2026-08-27T18:30:07Z</time>
  <course>296.23</course>
  <speed>0.02</speed>
  <fix>3d</fix>
</trkpt>
<trkpt lat="40.0728551" lon="-105.2309125">
  <ele>1595.48</ele>
  <time>2026-08-27T18:30:07Z</time>
  <course>267.85</course>
  <speed>0.04</speed>
  <fix>3d</fix>
</trkpt>
<trkpt lat="40.0728552" lon="-105.2309124">
  <ele>1595.56</ele>
  <time>2026-08-27T18:30:07Z</time>
  <course>296.22</course>
  <speed>0.02</speed>
  <fix>3d</fix>
</trkpt>
<trkpt lat="40.0728551" lon="-105.2309126">
  <ele>1595.48</ele>
  <time>2026-08-27T18:30:07Z</time>
  <course>268.44</course>
  <speed>0.05</speed>
  <fix>3d</fix>
</trkpt>
<trkpt lat="40.0728552" lon="-105.2309125">
  <ele>1595.56</ele>
  <time>2026-08-27T18:30:07Z</time>
  <course>296.23</course>
  <speed>0.02</speed>
  <fix>3d</fix>
</trkpt>
<trkpt lat="40.0728551" lon="-105.2309127">
  <ele>1595.48</ele>
  <time>2026-08-27T18:30:07Z</time>
  <course>269.17</course>
  <speed>0.05</speed>
  <fix>3d</fix>
</trkpt>
<trkpt lat="40.0728552" lon="-105.2309126">
  <ele>1595.56</ele>
  <time>2026-08-27T18:30:07Z</time>
  <course>296.23</course>
  <speed>0.03</speed>
  <fix>3d</fix>
</trkpt>
<trkpt lat="40.0728551" lon="-105.2309128">
  <ele>1595.48</ele>
  <time>2026-08-27T18:30:07Z</time>
  <course>269.63</course>
  <speed>0.05</speed>
  <fix>3d</fix>
</trkpt>
<trkpt lat="40.0728552" lon="-105.2309128">
  <ele>1595.56</ele>
  <time>2026-08-27T18:30:07Z</time>
  <course>296.23</course>
  <speed>0.03</speed>
  <fix>3d</fix>
</trkpt>
<trkpt lat="40.0728551" lon="-105.230913">
  <ele>1595.48</ele>
  <time>2026-08-27T18:30:07Z</time>
  <course>270.24</course>
  <speed>0.05</speed>
  <fix>3d</fix>
</trkpt>
<trkpt lat="40.0728552" lon="-105.2309129">
  <ele>1595.56</ele>
  <time>2026-08-27T18:30:07Z</time>
  <course>296.23</course>
  <speed>0.03</speed>
  <fix>3d</fix>
</trkpt>
<trkpt lat="40.0728551" lon="-105.2309131">
  <ele>1595.48</ele>
  <time>2026-08-27T18:30:07Z</time>
  <course>271.02</course>
  <speed>0.05</speed>
  <fix>3d</fix>
</trkpt>
<trkpt lat="40.0728552" lon="-105.230913">
  <ele>1595.55</ele>
  <time>2026-08-27T18:30:07Z</time>
  <course>296.24</course>
  <speed>0.03</speed>
  <fix>3d</fix>
</trkpt>
<trkpt lat="40.0728551" lon="-105.2309133">
  <ele>1595.48</ele>
  <time>2026-08-27T18:30:07Z</time>
  <course>271.69</course>
  <speed>0.05</speed>
  <fix>3d</fix>
</trkpt>
<trkpt lat="40.0728552" lon="-105.2309132">
  <ele>1595.55</ele>
  <time>2026-08-27T18:30:07Z</time>
  <course>296.24</course>
  <speed>0.03</speed>
  <fix>3d</fix>
</trkpt>
<trkpt lat="40.0728551" lon="-105.2309134">
  <ele>1595.48</ele>
  <time>2026-08-27T18:30:07Z</time>
  <course>272.32</course>
  <speed>0.06</speed>
  <fix>3d</fix>
</trkpt>
<trkpt lat="40.0728552" lon="-105.2309133">
  <ele>1595.55</ele>
  <time>2026-08-27T18:30:07Z</time>
  <course>295.3</course>
  <speed>0.03605551275463989</speed>
  <fix>3d</fix>
</trkpt>
<trkpt lat="40.0728551" lon="-105.2309136">
  <ele>1595.48</ele>
  <time>2026-08-27T18:30:07Z</time>
  <course>276.2</course>
  <speed>0.06</speed>
  <fix>3d</fix>
</trkpt>
<trkpt lat="40.0728552" lon="-105.2309135">
  <ele>1595.55</ele>
  <time>2026-08-27T18:30:07Z</time>
  <course>296.5</course>
  <speed>0.0316227766016838</speed>
  <fix>3d</fix>
</trkpt>
<trkpt lat="40.0728551" lon="-105.2309137">
  <ele>1595.48</ele>
  <time>2026-08-27T18:30:07Z</time>
  <course>269.96</course>
  <speed>0.06</speed>
  <fix>3d</fix>
</trkpt>
<trkpt lat="40.0728552" lon="-105.2309136">
  <ele>1595.55</ele>
  <time>2026-08-27T18:30:07Z</time>
  <course>296.76</course>
  <speed>0.03</speed>
  <fix>3d</fix>
</trkpt>
<trkpt lat="40.0728551" lon="-105.2309138">
  <ele>1595.48</ele>
  <time>2026-08-27T18:30:07Z</time>
  <course>258.63</course>
  <speed>0.06</speed>
  <fix>3d</fix>
</trkpt>
<trkpt lat="40.0728552" lon="-105.2309138">
  <ele>1595.56</ele>
  <time>2026-08-27T18:30:07Z</time>
  <course>296.2</course>
  <speed>0.0316227766016838</speed>
  <fix>3d</fix>
</trkpt>
<trkpt lat="40.0728551" lon="-105.230914">
  <ele>1595.49</ele>
  <time>2026-08-27T18:30:07Z</time>
  <course>259.12</course>
  <speed>0.05</speed>
  <fix>3d</fix>
</trkpt>
<trkpt lat="40.0728552" lon="-105.2309139">
  <ele>1595.56</ele>
  <time>2026-08-27T18:30:07Z</time>
  <course>295.63</course>
  <speed>0.02</speed>
  <fix>3d</fix>
</trkpt>
<trkpt lat="40.0728551" lon="-105.2309141">
  <ele>1595.49</ele>
  <time>2026-08-27T18:30:07Z</time>
  <course>270.09</course>
  <speed>0.04</speed>
  <fix>3d</fix>
</trkpt>
<trkpt lat="40.0728552" lon="-105.230914">
  <ele>1595.57</ele>
  <time>2026-08-27T18:30:07Z</time>
  <course>295.71</course>
  <speed>0.01</speed>
  <fix>3d</fix>
</trkpt>
<trkpt lat="40.0728551" lon="-105.2309142">
  <ele>1595.49</ele>
  <time>2026-08-27T18:30:07Z</time>
  <course>280.39</course>
  <speed>0.03</speed>
  <fix>3d</fix>
</trkpt>
<trkpt lat="40.0728552" lon="-105.2309141">
  <ele>1595.56</ele>
  <time>2026-08-27T18:30:07Z</time>
  <course>296.33</course>
  <speed>0.01</speed>
  <fix>3d</fix>
</trkpt>
<trkpt lat="40.0728551" lon="-105.2309143">
  <ele>1595.49</ele>
  <time>2026-08-27T18:30:07Z</time>
  <course>272.87</course>
  <speed>0.03</speed>
  <fix>3d</fix>
</trkpt>
<trkpt lat="40.0728552" lon="-105.2309142">
  <ele>1595.56</ele>
  <time>2026-08-27T18:30:07Z</time>
  <course>296.87</course>
  <speed>0.0</speed>
  <fix>3d</fix>
</trkpt>
<trkpt lat="40.0728551" lon="-105.2309144">
  <ele>1595.49</ele>
  <time>2026-08-27T18:30:07Z</time>
  <course>256.11</course>
  <speed>0.04</speed>
  <fix>3d</fix>
</trkpt>
<trkpt lat="40.0728552" lon="-105.2309142">
  <ele>1595.56</ele>
  <time>2026-08-27T18:30:07Z</time>
  <course>296.74</course>
  <speed>0.01</speed>
  <fix>3d</fix>
</trkpt>
<trkpt lat="40.0728551" lon="-105.2309145">
  <ele>1595.49</ele>
  <time>2026-08-27T18:30:07Z</time>
  <course>248.69</course>
  <speed>0.04</speed>
  <fix>3d</fix>
</trkpt>
<trkpt lat="40.0728552" lon="-105.2309143">
  <ele>1595.56</ele>
  <time>2026-08-27T18:30:07Z</time>
  <course>296.1</course>
  <speed>0.01414213562373095</speed>
  <fix>3d</fix>
</trkpt>
<trkpt lat="40.0728551" lon="-105.2309146">
  <ele>1595.49</ele>
  <time>2026-08-27T18:30:07Z</time>
  <course>254.75</course>
  <speed>0.04</speed>
  <fix>3d</fix>
</trkpt>
<trkpt lat="40.0728551" lon="-105.2309144">
  <ele>1595.56</ele>
  <time>2026-08-27T18:30:07Z</time>
  <course>295.61</course>
  <speed>0.01</speed>
  <fix>3d</fix>
</trkpt>
<trkpt lat="40.0728551" lon="-105.2309147">
  <ele>1595.49</ele>
  <time>2026-08-27T18:30:07Z</time>
  <course>272.28</course>
  <speed>0.03</speed>
  <fix>3d</fix>
</trkpt>
<trkpt lat="40.0728551" lon="-105.2309145">
  <ele>1595.55</ele>
  <time>2026-08-27T18:30:07Z</time>
  <course>295.8</course>
  <speed>0.0</speed>
  <fix>3d</fix>
</trkpt>
<trkpt lat="40.0728551" lon="-105.2309147">
  <ele>1595.49</ele>
  <time>2026-08-27T18:30:07Z</time>
  <course>281.67</course>
  <speed>0.03</speed>
  <fix>3d</fix>
</trkpt>
<trkpt lat="40.0728551" lon="-105.2309146">
  <ele>1595.55</ele>
  <time>2026-08-27T18:30:07Z</time>
  <course>296.47</course>
  <speed>0.01</speed>
  <fix>3d</fix>
</trkpt>
<trkpt lat="40.0728551" lon="-105.2309148">
  <ele>1595.49</ele>
  <time>2026-08-27T18:30:07Z</time>
  <course>267.4</course>
  <speed>0.03</speed>
  <fix>3d</fix>
</trkpt>
<trkpt lat="40.0728551" lon="-105.2309147">
  <ele>1595.55</ele>
  <time>2026-08-27T18:30:07Z</time>
  <course>296.87</course>
  <speed>0.0</speed>
  <fix>3d</fix>
</trkpt>
<trkpt lat="40.0728551" lon="-105.2309149">
  <ele>1595.49</ele>
  <time>2026-08-27T18:30:07Z</time>
  <course>250.14</course>
  <speed>0.04</speed>
  <fix>3d</fix>
</trkpt>
<trkpt lat="40.0728551" lon="-105.2309147">
  <ele>1595.56</ele>
  <time>2026-08-27T18:30:07Z</time>
  <course>296.59</course>
  <speed>0.01</speed>
  <fix>3d</fix>
</trkpt>
<trkpt lat="40.072855" lon="-105.230915">
  <ele>1595.49</ele>
  <time>2026-08-27T18:30:07Z</time>
  <course>245.66</course>
  <speed>0.04</speed>
  <fix>3d</fix>
</trkpt>
<trkpt lat="40.0728551" lon="-105.2309148">
  <ele>1595.56</ele>
  <time>2026-08-27T18:30:07Z</time>
  <course>295.93</course>
  <speed>0.01414213562373095</speed>
  <fix>3d</fix>
</trkpt>
<trkpt lat="40.0728549" lon="-105.2309151">
  <ele>1595.5</ele>
  <time>2026-08-27T18:30:07Z</time>
  <course>254.28</course>
  <speed>0.03</speed>
  <fix>3d</fix>
</trkpt>
<trkpt lat="40.0728551" lon="-105.2309149">
  <ele>1595.56</ele>
  <time>2026-08-27T18:30:07Z</time>
  <course>295.59</course>
  <speed>0.01</speed>
  <fix>3d</fix>
</trkpt>
<trkpt lat="40.0728549" lon="-105.2309152">
  <ele>1595.5</ele>
  <time>2026-08-27T18:30:07Z</time>
  <course>271.9</course>
  <speed>0.03</speed>
  <fix>3d</fix>
</trkpt>
<trkpt lat="40.072855" lon="-105.230915">
  <ele>1595.56</ele>
  <time>2026-08-27T18:30:07Z</time>
  <course>297.51</course>
  <speed>0.01</speed>
  <fix>3d</fix>
</trkpt>
<trkpt lat="40.0728549" lon="-105.2309152">
  <ele>1595.5</ele>
  <time>2026-08-27T18:30:07Z</time>
  <course>263.43</course>
  <speed>0.03</speed>
  <fix>3d</fix>
</trkpt>
<trkpt lat="40.072855" lon="-105.2309151">
  <ele>1595.56</ele>
  <time>2026-08-27T18:30:07Z</time>
  <course>296.7</course>
  <speed>0.0</speed>
  <fix>3d</fix>
</trkpt>
<trkpt lat="40.0728549" lon="-105.2309153">
  <ele>1595.5</ele>
  <time>2026-08-27T18:30:07Z</time>
  <course>255.72</course>
  <speed>0.03</speed>
  <fix>3d</fix>
</trkpt>
<trkpt lat="40.072855" lon="-105.2309152">
  <ele>1595.56</ele>
  <time>2026-08-27T18:30:07Z</time>
  <course>295.97</course>
  <speed>0.01</speed>
  <fix>3d</fix>
</trkpt>
<trkpt lat="40.0728549" lon="-105.2309154">
  <ele>1595.5</ele>
  <time>2026-08-27T18:30:07Z</time>
  <course>261.49</course>
  <speed>0.03</speed>
  <fix>3d</fix>
</trkpt>
<trkpt lat="40.072855" lon="-105.2309152">
  <ele>1595.56</ele>
  <time>2026-08-27T18:30:07Z</time>
  <course>295.67</course>
  <speed>0.01</speed>
  <fix>3d</fix>
</trkpt>
<trkpt lat="40.0728549" lon="-105.2309155">
  <ele>1595.5</ele>
  <time>2026-08-27T18:30:07Z</time>
  <course>261.03</course>
  <speed>0.03</speed>
  <fix>3d</fix>
</trkpt>
<trkpt lat="40.072855" lon="-105.2309153">
  <ele>1595.57</ele>
  <time>2026-08-27T18:30:07Z</time>
  <course>295.54</course>
  <speed>0.01</speed>
  <fix>3d</fix>
</trkpt>
<trkpt lat="40.0728549" lon="-105.2309156">
  <ele>1595.5</ele>
  <time>2026-08-27T18:30:07Z</time>
  <course>261.08</course>
  <speed>0.04</speed>
  <fix>3d</fix>
</trkpt>
<trkpt lat="40.072855" lon="-105.2309154">
  <ele>1595.57</ele>
  <time>2026-08-27T18:30:07Z</time>
  <course>295.49</course>
  <speed>0.01</speed>
  <fix>3d</fix>
</trkpt>
<trkpt lat="40.0728548" lon="-105.2309157">
  <ele>1595.51</ele>
  <time>2026-08-27T18:30:07Z</time>
  <course>261.51</course>
  <speed>0.04</speed>
  <fix>3d</fix>
</trkpt>
<trkpt lat="40.072855" lon="-105.2309155">
  <ele>1595.57</ele>
  <time>2026-08-27T18:30:07Z</time>
  <course>295.48</course>
  <speed>0.01</speed>
  <fix>3d</fix>
</trkpt>
<trkpt lat="40.0728548" lon="-105.2309158">
  <ele>1595.51</ele>
  <time>2026-08-27T18:30:07Z</time>
  <course>261.97</course>
  <speed>0.04</speed>
  <fix>3d</fix>
</trkpt>
<trkpt lat="40.0728549" lon="-105.2309156">
  <ele>1595.57</ele>
  <time>2026-08-27T18:30:07Z</time>
  <course>295.5</course>
  <speed>0.02</speed>
  <fix>3d</fix>
</trkpt>
<trkpt lat="40.0728548" lon="-105.2309159">
  <ele>1595.5</ele>
  <time>2026-08-27T18:30:07Z</time>
  <course>262.59</course>
  <speed>0.04</speed>
  <fix>3d</fix>
</trkpt>
<trkpt lat="40.0728549" lon="-105.2309158">
  <ele>1595.57</ele>
  <time>2026-08-27T18:30:07Z</time>
  <course>295.5</course>
  <speed>0.02</speed>
  <fix>3d</fix>
</trkpt>
<trkpt lat="40.0728548" lon="-105.230916">
  <ele>1595.5</ele>
  <time>2026-08-27T18:30:07Z</time>
  <course>263.36</course>
  <speed>0.04</speed>
  <fix>3d</fix>
</trkpt>
<trkpt lat="40.0728549" lon="-105.2309159">
  <ele>1595.57</ele>
  <time>2026-08-27T18:30:07Z</time>
  <course>295.49</course>
  <speed>0.02</speed>
  <fix>3d</fix>
</trkpt>
<trkpt lat="40.0728548" lon="-105.2309161">
  <ele>1595.5</ele>
  <time>2026-08-27T18:30:07Z</time>
  <course>264.25</course>
  <speed>0.04</speed>
  <fix>3d</fix>
</trkpt>
<trkpt lat="40.0728549" lon="-105.230916">
  <ele>1595.57</ele>
  <time>2026-08-27T18:30:07Z</time>
  <course>295.49</course>
  <speed>0.02</speed>
  <fix>3d</fix>
</trkpt>
<trkpt lat="40.0728548" lon="-105.2309162">
  <ele>1595.5</ele>
  <time>2026-08-27T18:30:07Z</time>
  <course>265.12</course>
  <speed>0.04</speed>
  <fix>3d</fix>
</trkpt>
<trkpt lat="40.0728549" lon="-105.2309161">
  <ele>1595.57</ele>
  <time>2026-08-27T18:30:07Z</time>
  <course>295.5</course>
  <speed>0.02</speed>
  <fix>3d</fix>
</trkpt>
<trkpt lat="40.0728548" lon="-105.2309163">
  <ele>1595.49</ele>
  <time>2026-08-27T18:30:07Z</time>
  <course>265.88</course>
  <speed>0.05</speed>
  <fix>3d</fix>
</trkpt>
<trkpt lat="40.0728549" lon="-105.2309162">
  <ele>1595.57</ele>
  <time>2026-08-27T18:30:07Z</time>
  <course>295.51</course>
  <speed>0.02</speed>
  <fix>3d</fix>
</trkpt>
<trkpt lat="40.0728548" lon="-105.2309165">
  <ele>1595.49</ele>
  <time>2026-08-27T18:30:07Z</time>
  <course>266.47</course>
  <speed>0.05</speed>
  <fix>3d</fix>
</trkpt>
<trkpt lat="40.0728549" lon="-105.2309164">
  <ele>1595.57</ele>
  <time>2026-08-27T18:30:07Z</time>
  <course>295.5</course>
  <speed>0.03</speed>
  <fix>3d</fix>
</trkpt>
<trkpt lat="40.0728548" lon="-105.2309166">
  <ele>1595.49</ele>
  <time>2026-08-27T18:30:07Z</time>
  <course>267.12</course>
  <speed>0.05</speed>
  <fix>3d</fix>
</trkpt>
<trkpt lat="40.0728549" lon="-105.2309165">
  <ele>1595.57</ele>
  <time>2026-08-27T18:30:07Z</time>
  <course>295.5</course>
  <speed>0.03</speed>
  <fix>3d</fix>
</trkpt>
<trkpt lat="40.0728548" lon="-105.2309167">
  <ele>1595.49</ele>
  <time>2026-08-27T18:30:07Z</time>
  <course>267.95</course>
  <speed>0.05</speed>
  <fix>3d</fix>
</trkpt>
<trkpt lat="40.0728549" lon="-105.2309166">
  <ele>1595.57</ele>
  <time>2026-08-27T18:30:07Z</time>
  <course>295.52</course>
  <speed>0.03</speed>
  <fix>3d</fix>
</trkpt>
<trkpt lat="40.0728548" lon="-105.2309168">
  <ele>1595.48</ele>
  <time>2026-08-27T18:30:07Z</time>
  <course>268.68</course>
  <speed>0.05</speed>
  <fix>3d</fix>
</trkpt>
<trkpt lat="40.0728549" lon="-105.2309168">
  <ele>1595.57</ele>
  <time>2026-08-27T18:30:07Z</time>
  <course>295.48</course>
  <speed>0.0316227766016838</speed>
  <fix>3d</fix>
</trkpt>
<trkpt lat="40.0728548" lon="-105.230917">
  <ele>1595.48</ele>
  <time>2026-08-27T18:30:07Z</time>
  <course>269.11</course>
  <speed>0.05</speed>
  <fix>3d</fix>
</trkpt>
<trkpt lat="40.0728549" lon="-105.2309169">
  <ele>1595.57</ele>
  <time>2026-08-27T18:30:07Z</time>
  <course>295.34</course>
  <speed>0.0412310562561766</speed>
  <fix>3d</fix>
</trkpt>
<trkpt lat="40.0728548" lon="-105.2309171">
  <ele>1595.48</ele>
  <time>2026-08-27T18:30:07Z</time>
  <course>264.46</course>
  <speed>0.06</speed>
  <fix>3d</fix>
</trkpt>
<trkpt lat="40.0728549" lon="-105.230917">
  <ele>1595.57</ele>
  <time>2026-08-27T18:30:07Z</time>
  <course>295.04</course>
  <speed>0.0316227766016838</speed>
  <fix>3d</fix>
</trkpt>
<trkpt lat="40.0728548" lon="-105.2309172">
  <ele>1595.48</ele>
  <time>2026-08-27T18:30:07Z</time>
  <course>266.26</course>
  <speed>0.05</speed>
  <fix>3d</fix>
</trkpt>
<trkpt lat="40.0728549" lon="-105.2309172">
  <ele>1595.57</ele>
  <time>2026-08-27T18:30:07Z</time>
  <course>294.83</course>
  <speed>0.02</speed>
  <fix>3d</fix>
</trkpt>
<trkpt lat="40.0728548" lon="-105.2309174">
  <ele>1595.47</ele>
  <time>2026-08-27T18:30:07Z</time>
  <course>278.63</course>
  <speed>0.04</speed>
  <fix>3d</fix>
</trkpt>
<trkpt lat="40.0728549" lon="-105.2309173">
  <ele>1595.56</ele>
  <time>2026-08-27T18:30:07Z</time>
  <course>295.1</course>
  <speed>0.01414213562373095</speed>
  <fix>3d</fix>
</trkpt>
<trkpt lat="40.0728548" lon="-105.2309175">
  <ele>1595.47</ele>
  <time>2026-08-27T18:30:07Z</time>
  <course>281.84</course>
  <speed>0.04</speed>
  <fix>3d</fix>
</trkpt>
<trkpt lat="40.0728549" lon="-105.2309174">
  <ele>1595.55</ele>
  <time>2026-08-27T18:30:07Z</time>
  <course>295.71</course>
  <speed>0.01</speed>
  <fix>3d</fix>
</trkpt>
<trkpt lat="40.0728547" lon="-105.2309176">
  <ele>1595.47</ele>
  <time>2026-08-27T18:30:07Z</time>
  <course>270.07</course>
  <speed>0.04</speed>
  <fix>3d</fix>
</trkpt>
<trkpt lat="40.0728549" lon="-105.2309175">
  <ele>1595.55</ele>
  <time>2026-08-27T18:30:07Z</time>
  <course>296.14</course>
  <speed>0.01414213562373095</speed>
  <fix>3d</fix>
</trkpt>
<trkpt lat="40.0728547" lon="-105.2309177">
  <ele>1595.46</ele>
  <time>2026-08-27T18:30:07Z</time>
  <course>255.03</course>
  <speed>0.04</speed>
  <fix>3d</fix>
</trkpt>
<trkpt lat="40.0728549" lon="-105.2309175">
  <ele>1595.54</ele>
  <time>2026-08-27T18:30:07Z</time>
  <course>296.03</course>
  <speed>0.01</speed>
  <fix>3d</fix>
</trkpt>
<trkpt lat="40.0728547" lon="-105.2309178">
  <ele>1595.46</ele>
  <time>2026-08-27T18:30:07Z</time>
  <course>248.66</course>
  <speed>0.04</speed>
  <fix>3d</fix>
</trkpt>
<trkpt lat="40.0728548" lon="-105.2309176">
  <ele>1595.54</ele>
  <time>2026-08-27T18:30:07Z</time>
  <course>295.46</course>
  <speed>0.01414213562373095</speed>
  <fix>3d</fix>
</trkpt>
<trkpt lat="40.0728547" lon="-105.2309179">
  <ele>1595.46</ele>
  <time>2026-08-27T18:30:07Z</time>
  <course>252.81</course>
  <speed>0.04</speed>
  <fix>3d</fix>
</trkpt>
<trkpt lat="40.0728548" lon="-105.2309177">
  <ele>1595.54</ele>
  <time>2026-08-27T18:30:07Z</time>
  <course>294.9</course>
  <speed>0.01414213562373095</speed>
  <fix>3d</fix>
</trkpt>
<trkpt lat="40.0728547" lon="-105.230918">
  <ele>1595.47</ele>
  <time>2026-08-27T18:30:07Z</time>
  <course>267.08</course>
  <speed>0.03</speed>
  <fix>3d</fix>
</trkpt>
<trkpt lat="40.0728548" lon="-105.2309178">
  <ele>1595.54</ele>
  <time>2026-08-27T18:30:07Z</time>
  <course>294.78</course>
  <speed>0.01</speed>
  <fix>3d</fix>
</trkpt>
<trkpt lat="40.0728547" lon="-105.2309181">
  <ele>1595.47</ele>
  <time>2026-08-27T18:30:07Z</time>
  <course>281.03</course>
  <speed>0.03</speed>
  <fix>3d</fix>
</trkpt>
<trkpt lat="40.0728548" lon="-105.2309179">
  <ele>1595.54</ele>
  <time>2026-08-27T18:30:07Z</time>
  <course>295.24</course>
  <speed>0.01</speed>
  <fix>3d</fix>
</trkpt>
<trkpt lat="40.0728547" lon="-105.2309182">
  <ele>1595.47</ele>
  <time>2026-08-27T18:30:07Z</time>
  <course>276.35</course>
  <speed>0.03</speed>
  <fix>3d</fix>
</trkpt>
<trkpt lat="40.0728548" lon="-105.230918">
  <ele>1595.54</ele>
  <time>2026-08-27T18:30:07Z</time>
  <course>295.88</course>
  <speed>0.01</speed>
  <fix>3d</fix>
</trkpt>
<trkpt lat="40.0728547" lon="-105.2309183">
  <ele>1595.48</ele>
  <time>2026-08-27T18:30:07Z</time>
  <course>257.31</course>
  <speed>0.03</speed>
  <fix>3d</fix>
</trkpt>
<trkpt lat="40.0728548" lon="-105.2309181">
  <ele>1595.54</ele>
  <time>2026-08-27T18:30:07Z</time>
  <course>296.14</course>
  <speed>0.0</speed>
  <fix>3d</fix>
</trkpt>
<trkpt lat="40.0728547" lon="-105.2309183">
  <ele>1595.48</ele>
  <time>2026-08-27T18:30:07Z</time>
  <course>244.56</course>
  <speed>0.04</speed>
  <fix>3d</fix>
</trkpt>
<trkpt lat="40.0728548" lon="-105.2309182">
  <ele>1595.55</ele>
  <time>2026-08-27T18:30:07Z</time>
  <course>295.84</course>
  <speed>0.01414213562373095</speed>
  <fix>3d</fix>
</trkpt>
<trkpt lat="40.0728547" lon="-105.2309184">
  <ele>1595.49</ele>
  <time>2026-08-27T18:30:07Z</time>
  <course>242.84</course>
  <speed>0.04</speed>
  <fix>3d</fix>
</trkpt>
<trkpt lat="40.0728547" lon="-105.2309183">
  <ele>1595.55</ele>
  <time>2026-08-27T18:30:07Z</time>
  <course>295.23</course>
  <speed>0.01414213562373095</speed>
  <fix>3d</fix>
</trkpt>
<trkpt lat="40.0728547" lon="-105.2309185">
  <ele>1595.49</ele>
  <time>2026-08-27T18:30:07Z</time>
  <course>251.7</course>
  <speed>0.03</speed>
  <fix>3d</fix>
</trkpt>
<trkpt lat="40.0728547" lon="-105.2309183">
  <ele>1595.55</ele>
  <time>2026-08-27T18:30:07Z</time>
  <course>294.8</course>
  <speed>0.01</speed>
  <fix>3d</fix>
</trkpt>
<trkpt lat="40.0728547" lon="-105.2309186">
  <ele>1595.49</ele>
  <time>2026-08-27T18:30:07Z</time>
  <course>269.3</course>
  <speed>0.03</speed>
  <fix>3d</fix>
</trkpt>
<trkpt lat="40.0728547" lon="-105.2309184">
  <ele>1595.56</ele>
  <time>2026-08-27T18:30:07Z</time>
  <course>296.67</course>
  <speed>0.01</speed>
  <fix>3d</fix>
</trkpt>
<trkpt lat="40.0728547" lon="-105.2309187">
  <ele>1595.5</ele>
  <time>2026-08-27T18:30:07Z</time>
  <course>264.14</course>
  <speed>0.03</speed>
  <fix>3d</fix>
</trkpt>
<trkpt lat="40.0728547" lon="-105.2309185">
  <ele>1595.56</ele>
  <time>2026-08-27T18:30:07Z</time>
  <course>295.74</course>
  <speed>0.01</speed>
  <fix>3d</fix>
</trkpt>
<trkpt lat="40.0728547" lon="-105.2309188">
  <ele>1595.5</ele>
  <time>2026-08-27T18:30:07Z</time>
  <course>256.88</course>
  <speed>0.03</speed>
  <fix>3d</fix>
</trkpt>
<trkpt lat="40.0728547" lon="-105.2309186">
  <ele>1595.57</ele>
  <time>2026-08-27T18:30:07Z</time>
  <course>295.09</course>
  <speed>0.01</speed>
  <fix>3d</fix>
</trkpt>
<trkpt lat="40.0728547" lon="-105.2309188">
  <ele>1595.5</ele>
  <time>2026-08-27T18:30:07Z</time>
  <course>261.04</course>
  <speed>0.03</speed>
  <fix>3d</fix>
</trkpt>
<trkpt lat="40.0728547" lon="-105.2309187">
  <ele>1595.57</ele>
  <time>2026-08-27T18:30:07Z</time>
  <course>294.81</course>
  <speed>0.01</speed>
  <fix>3d</fix>
</trkpt>
<trkpt lat="40.0728546" lon="-105.2309189">
  <ele>1595.51</ele>
  <time>2026-08-27T18:30:07Z</time>
  <course>259.99</course>
  <speed>0.03</speed>
  <fix>3d</fix>
</trkpt>
<trkpt lat="40.0728547" lon="-105.2309188">
  <ele>1595.57</ele>
  <time>2026-08-27T18:30:07Z</time>
  <course>294.72</course>
  <speed>0.01</speed>
  <fix>3d</fix>
</trkpt>
<trkpt lat="40.0728546" lon="-105.230919">
  <ele>1595.51</ele>
  <time>2026-08-27T18:30:07Z</time>
  <course>259.97</course>
  <speed>0.04</speed>
  <fix>3d</fix>
</trkpt>
<trkpt lat="40.0728547" lon="-105.2309189">
  <ele>1595.57</ele>
  <time>2026-08-27T18:30:07Z</time>
  <course>294.67</course>
  <speed>0.01</speed>
  <fix>3d</fix>
</trkpt>
<trkpt lat="40.0728546" lon="-105.2309191">
  <ele>1595.5</ele>
  <time>2026-08-27T18:30:07Z</time>
  <course>260.44</course>
  <speed>0.04</speed>
  <fix>3d</fix>
</trkpt>
<trkpt lat="40.0728547" lon="-105.230919">
  <ele>1595.57</ele>
  <time>2026-08-27T18:30:07Z</time>
  <course>294.66</course>
  <speed>0.02</speed>
  <fix>3d</fix>
</trkpt>
<trkpt lat="40.0728546" lon="-105.2309192">
  <ele>1595.5</ele>
  <time>2026-08-27T18:30:07Z</time>
  <course>261.35</course>
  <speed>0.04</speed>
  <fix>3d</fix>
</trkpt>
<trkpt lat="40.0728547" lon="-105.2309191">
  <ele>1595.57</ele>
  <time>2026-08-27T18:30:07Z</time>
  <course>294.66</course>
  <speed>0.02</speed>
  <fix>3d</fix>
</trkpt>
<trkpt lat="40.0728546" lon="-105.2309193">
  <ele>1595.5</ele>
  <time>2026-08-27T18:30:07Z</time>
  <course>262.29</course>
  <speed>0.04</speed>
  <fix>3d</fix>
</trkpt>
<trkpt lat="40.0728547" lon="-105.2309192">
  <ele>1595.57</ele>
  <time>2026-08-27T18:30:07Z</time>
  <course>294.66</course>
  <speed>0.02</speed>
  <fix>3d</fix>
</trkpt>
<trkpt lat="40.0728546" lon="-105.2309195">
  <ele>1595.5</ele>
  <time>2026-08-27T18:30:07Z</time>
  <course>263.07</course>
  <speed>0.04</speed>
  <fix>3d</fix>
</trkpt>
<trkpt lat="40.0728547" lon="-105.2309193">
  <ele>1595.57</ele>
  <time>2026-08-27T18:30:08Z</time>
  <course>294.66</course>
  <speed>0.02</speed>
  <fix>3d</fix>
</trkpt>
<trkpt lat="40.0728546" lon="-105.2309196">
  <ele>1595.5</ele>
  <time>2026-08-27T18:30:08Z</time>
  <course>263.66</course>
  <speed>0.05</speed>
  <fix>3d</fix>
</trkpt>
<trkpt lat="40.0728547" lon="-105.2309195">
  <ele>1595.57</ele>
  <time>2026-08-27T18:30:08Z</time>
  <course>294.65</course>
  <speed>0.02</speed>
  <fix>3d</fix>
</trkpt>
<trkpt lat="40.0728546" lon="-105.2309197">
  <ele>1595.5</ele>
  <time>2026-08-27T18:30:08Z</time>
  <course>264.37</course>
  <speed>0.05</speed>
  <fix>3d</fix>
</trkpt>
<trkpt lat="40.0728547" lon="-105.2309196">
  <ele>1595.57</ele>
  <time>2026-08-27T18:30:08Z</time>
  <course>294.68</course>
  <speed>0.02</speed>
  <fix>3d</fix>
</trkpt>
<trkpt lat="40.0728546" lon="-105.2309198">
  <ele>1595.49</ele>
  <time>2026-08-27T18:30:08Z</time>
  <course>265.19</course>
  <speed>0.05</speed>
  <fix>3d</fix>
</trkpt>
<trkpt lat="40.0728547" lon="-105.2309197">
  <ele>1595.56</ele>
  <time>2026-08-27T18:30:08Z</time>
  <course>294.66</course>
  <speed>0.03</speed>
  <fix>3d</fix>
</trkpt>
<trkpt lat="40.0728546" lon="-105.2309199">
  <ele>1595.49</ele>
  <time>2026-08-27T18:30:08Z</time>
  <course>265.66</course>
  <speed>0.05</speed>
  <fix>3d</fix>
</trkpt>
<trkpt lat="40.0728547" lon="-105.2309198">
  <ele>1595.56</ele>
  <time>2026-08-27T18:30:08Z</time>
  <course>294.66</course>
  <speed>0.03</speed>
  <fix>3d</fix>
</trkpt>
<trkpt lat="40.0728545" lon="-105.23092">
  <ele>1595.49</ele>
  <time>2026-08-27T18:30:08Z</time>
  <course>266.49</course>
  <speed>0.05</speed>
  <fix>3d</fix>
</trkpt>
<trkpt lat="40.0728547" lon="-105.23092">
  <ele>1595.55</ele>
  <time>2026-08-27T18:30:08Z</time>
  <course>294.67</course>
  <speed>0.03</speed>
  <fix>3d</fix>
</trkpt>
<trkpt lat="40.0728545" lon="-105.2309202">
  <ele>1595.49</ele>
  <time>2026-08-27T18:30:08Z</time>
  <course>267.52</course>
  <speed>0.05</speed>
  <fix>3d</fix>
</trkpt>
<trkpt lat="40.0728547" lon="-105.2309201">
  <ele>1595.55</ele>
  <time>2026-08-27T18:30:08Z</time>
  <course>294.67</course>
  <speed>0.03</speed>
  <fix>3d</fix>
</trkpt>
<trkpt lat="40.0728545" lon="-105.2309204">
  <ele>1595.49</ele>
  <time>2026-08-27T18:30:08Z</time>
  <course>268.42</course>
  <speed>0.05</speed>
  <fix>3d</fix>
</trkpt>
<trkpt lat="40.0728546" lon="-105.2309203">
  <ele>1595.55</ele>
  <time>2026-08-27T18:30:08Z</time>
  <course>294.63</course>
  <speed>0.0316227766016838</speed>
  <fix>3d</fix>
</trkpt>
<trkpt lat="40.0728545" lon="-105.2309205">
  <ele>1595.49</ele>
  <time>2026-08-27T18:30:08Z</time>
  <course>269.03</course>
  <speed>0.06</speed>
  <fix>3d</fix>
</trkpt>
<trkpt lat="40.0728546" lon="-105.2309204">
  <ele>1595.55</ele>
  <time>2026-08-27T18:30:08Z</time>
  <course>294.23</course>
  <speed>0.0412310562561766</speed>
  <fix>3d</fix>
</trkpt>
<trkpt lat="40.0728545" lon="-105.2309206">
  <ele>1595.49</ele>
  <time>2026-08-27T18:30:08Z</time>
  <course>265.71</course>
  <speed>0.06</speed>
  <fix>3d</fix>
</trkpt>
<trkpt lat="40.0728546" lon="-105.2309205">
  <ele>1595.56</ele>
  <time>2026-08-27T18:30:08Z</time>
  <course>293.95</course>
  <speed>0.03</speed>
  <fix>3d</fix>
</trkpt>
<trkpt lat="40.0728545" lon="-105.2309208">
  <ele>1595.49</ele>
  <time>2026-08-27T18:30:08Z</time>
  <course>269.51</course>
  <speed>0.05</speed>
  <fix>3d</fix>
</trkpt>
<trkpt lat="40.0728546" lon="-105.2309207">
  <ele>1595.57</ele>
  <time>2026-08-27T18:30:08Z</time>
  <course>294.04</course>
  <speed>0.02</speed>
  <fix>3d</fix>
</trkpt>
<trkpt lat="40.0728545" lon="-105.2309209">
  <ele>1595.49</ele>
  <time>2026-08-27T18:30:08Z</time>
  <course>279.67</course>
  <speed>0.04</speed>
  <fix>3d</fix>
</trkpt>
<trkpt lat="40.0728546" lon="-105.2309208">
  <ele>1595.57</ele>
  <time>2026-08-27T18:30:08Z</time>
  <course>294.76</course>
  <speed>0.01414213562373095</speed>
  <fix>3d</fix>
</trkpt>
<trkpt lat="40.0728545" lon="-105.230921">
  <ele>1595.5</ele>
  <time>2026-08-27T18:30:08Z</time>
  <course>272.62</course>
  <speed>0.04</speed>
  <fix>3d</fix>
</trkpt>
<trkpt lat="40.0728546" lon="-105.2309209">
  <ele>1595.58</ele>
  <time>2026-08-27T18:30:08Z</time>
  <course>295.39</course>
  <speed>0.01</speed>
  <fix>3d</fix>
</trkpt>
<trkpt lat="40.0728545" lon="-105.2309211">
  <ele>1595.5</ele>
  <time>2026-08-27T18:30:08Z</time>
  <course>255.24</course>
  <speed>0.04</speed>
  <fix>3d</fix>
</trkpt>
<trkpt lat="40.0728546" lon="-105.230921">
  <ele>1595.58</ele>
  <time>2026-08-27T18:30:08Z</time>
  <course>295.26</course>
  <speed>0.01</speed>
  <fix>3d</fix>
</trkpt>
<trkpt lat="40.0728545" lon="-105.2309212">
  <ele>1595.5</ele>
  <time>2026-08-27T18:30:08Z</time>
  <course>247.1</course>
  <speed>0.05</speed>
  <fix>3d</fix>
</trkpt>
<trkpt lat="40.0728546" lon="-105.2309211">
  <ele>1595.58</ele>
  <time>2026-08-27T18:30:08Z</time>
  <course>294.52</course>
  <speed>0.022360679774997897</speed>
  <fix>3d</fix>
</trkpt>
<trkpt lat="40.0728545" lon="-105.2309213">
  <ele>1595.49</ele>
  <time>2026-08-27T18:30:08Z</time>
  <course>253.2</course>
  <speed>0.04</speed>
  <fix>3d</fix>
</trkpt>
<trkpt lat="40.0728546" lon="-105.2309212">
  <ele>1595.58</ele>
  <time>2026-08-27T18:30:08Z</time>
  <course>293.99</course>
  <speed>0.01</speed>
  <fix>3d</fix>
</trkpt>
<trkpt lat="40.0728545" lon="-105.2309214">
  <ele>1595.49</ele>
  <time>2026-08-27T18:30:08Z</time>
  <course>271.79</course>
  <speed>0.03</speed>
  <fix>3d</fix>
</trkpt>
<trkpt lat="40.0728545" lon="-105.2309213">
  <ele>1595.57</ele>
  <time>2026-08-27T18:30:08Z</time>
  <course>294.27</course>
  <speed>0.01</speed>
  <fix>3d</fix>
</trkpt>
<trkpt lat="40.0728544" lon="-105.2309215">
  <ele>1595.49</ele>
  <time>2026-08-27T18:30:08Z</time>
  <course>281.28</course>
  <speed>0.03</speed>
  <fix>3d</fix>
</trkpt>
<trkpt lat="40.0728545" lon="-105.2309213">
  <ele>1595.57</ele>
  <time>2026-08-27T18:30:08Z</time>
  <course>295.04</course>
  <speed>0.01</speed>
  <fix>3d</fix>
</trkpt>
<trkpt lat="40.0728544" lon="-105.2309216">
  <ele>1595.48</ele>
  <time>2026-08-27T18:30:08Z</time>
  <course>265.05</course>
  <speed>0.03</speed>
  <fix>3d</fix>
</trkpt>
<trkpt lat="40.0728545" lon="-105.2309214">
  <ele>1595.57</ele>
  <time>2026-08-27T18:30:08Z</time>
  <course>295.43</course>
  <speed>0.0</speed>
  <fix>3d</fix>
</trkpt>
<trkpt lat="40.0728544" lon="-105.2309217">
  <ele>1595.48</ele>
  <time>2026-08-27T18:30:08Z</time>
  <course>247.19</course>
  <speed>0.04</speed>
  <fix>3d</fix>
</trkpt>
<trkpt lat="40.0728545" lon="-105.2309215">
  <ele>1595.57</ele>
  <time>2026-08-27T18:30:08Z</time>
  <course>295.03</course>
  <speed>0.01414213562373095</speed>
  <fix>3d</fix>
</trkpt>
<trkpt lat="40.0728544" lon="-105.2309217">
  <ele>1595.48</ele>
  <time>2026-08-27T18:30:08Z</time>
  <course>243.98</course>
  <speed>0.04</speed>
  <fix>3d</fix>
</trkpt>
<trkpt lat="40.0728545" lon="-105.2309216">
  <ele>1595.57</ele>
  <time>2026-08-27T18:30:08Z</time>
  <course>294.27</course>
  <speed>0.01414213562373095</speed>
  <fix>3d</fix>
</trkpt>
<trkpt lat="40.0728544" lon="-105.2309218">
  <ele>1595.47</ele>
  <time>2026-08-27T18:30:08Z</time>
  <course>256.11</course>
  <speed>0.03</speed>
  <fix>3d</fix>
</trkpt>
<trkpt lat="40.0728545" lon="-105.2309217">
  <ele>1595.57</ele>
  <time>2026-08-27T18:30:08Z</time>
  <course>293.98</course>
  <speed>0.0</speed>
  <fix>3d</fix>
</trkpt>
<trkpt lat="40.0728544" lon="-105.2309219">
  <ele>1595.47</ele>
  <time>2026-08-27T18:30:08Z</time>
  <course>277.76</course>
  <speed>0.02</speed>
  <fix>3d</fix>
</trkpt>
<trkpt lat="40.0728545" lon="-105.2309217">
  <ele>1595.57</ele>
  <time>2026-08-27T18:30:08Z</time>
  <course>294.47</course>
  <speed>0.01</speed>
  <fix>3d</fix>
</trkpt>
<trkpt lat="40.0728544" lon="-105.230922">
  <ele>1595.47</ele>
  <time>2026-08-27T18:30:08Z</time>
  <course>279.14</course>
  <speed>0.02</speed>
  <fix>3d</fix>
</trkpt>
<trkpt lat="40.0728545" lon="-105.2309218">
  <ele>1595.56</ele>
  <time>2026-08-27T18:30:08Z</time>
  <course>295.22</course>
  <speed>0.01</speed>
  <fix>3d</fix>
</trkpt>
<trkpt lat="40.0728544" lon="-105.2309221">
  <ele>1595.47</ele>
  <time>2026-08-27T18:30:08Z</time>
  <course>257.43</course>
  <speed>0.03</speed>
  <fix>3d</fix>
</trkpt>
<trkpt lat="40.0728545" lon="-105.2309219">
  <ele>1595.56</ele>
  <time>2026-08-27T18:30:08Z</time>
  <course>295.53</course>
  <speed>0.01</speed>
  <fix>3d</fix>
</trkpt>
<trkpt lat="40.0728544" lon="-105.2309222">
  <ele>1595.46</ele>
  <time>2026-08-27T18:30:08Z</time>
  <course>243.5</course>
  <speed>0.04</speed>
  <fix>3d</fix>
</trkpt>
<trkpt lat="40.0728544" lon="-105.230922">
  <ele>1595.56</ele>
  <time>2026-08-27T18:30:08Z</time>
  <course>296.37</course>
  <speed>0.0</speed>
  <fix>3d</fix>
</trkpt>
<trkpt lat="40.0728543" lon="-105.2309222">
  <ele>1595.46</ele>
  <time>2026-08-27T18:30:08Z</time>
  <course>247.28</course>
  <speed>0.04</speed>
  <fix>3d</fix>
</trkpt>
<trkpt lat="40.0728544" lon="-105.2309221">
  <ele>1595.55</ele>
  <time>2026-08-27T18:30:08Z</time>
  <course>296.63</course>
  <speed>0.01</speed>
  <fix>3d</fix>
</trkpt>
<trkpt lat="40.0728542" lon="-105.2309223">
  <ele>1595.46</ele>
  <time>2026-08-27T18:30:08Z</time>
  <course>255.35</course>
  <speed>0.03</speed>
  <fix>3d</fix>
</trkpt>
<trkpt lat="40.0728544" lon="-105.2309222">
  <ele>1595.5</ele>
  <time>2026-08-27T18:30:08Z</time>
  <course>297.49</course>
  <speed>0.01</speed>
  <fix>3d</fix>
</trkpt>
<trkpt lat="40.0728542" lon="-105.2309224">
  <ele>1595.44</ele>
  <time>2026-08-27T18:30:08Z</time>
  <course>252.97</course>
  <speed>0.04</speed>
  <fix>3d</fix>
</trkpt>
<trkpt lat="40.0728544" lon="-105.2309223">
  <ele>1595.37</ele>
  <time>2026-08-27T18:30:08Z</time>
  <course>298.84</course>
  <speed>0.03605551275463989</speed>
  <fix>3d</fix>
</trkpt>
<trkpt lat="40.0728542" lon="-105.2309225">
  <ele>1595.37</ele>
  <time>2026-08-27T18:30:08Z</time>
  <course>252.14</course>
  <speed>0.04</speed>
  <fix>3d</fix>
</trkpt>
<trkpt lat="40.0728542" lon="-105.2309224">
  <ele>1594.94</ele>
  <time>2026-08-27T18:30:08Z</time>
  <course>300.34</course>
  <speed>0.1</speed>
  <fix>3d</fix>
</trkpt>
<trkpt lat="40.0728542" lon="-105.2309226">
  <ele>1595.14</ele>
  <time>2026-08-27T18:30:08Z</time>
  <course>233.3</course>
  <speed>0.07</speed>
  <fix>3d</fix>
</trkpt>
<trkpt lat="40.072854" lon="-105.2309227">
  <ele>1594.23</ele>
  <time>2026-08-27T18:30:08Z</time>
  <course>301.85</course>
  <speed>0.14212670403551894</speed>
  <fix>3d</fix>
</trkpt>
<trkpt lat="40.0728541" lon="-105.2309228">
  <ele>1594.65</ele>
  <time>2026-08-27T18:30:08Z</time>
  <course>223.46</course>
  <speed>0.13</speed>
  <fix>3d</fix>
</trkpt>
<trkpt lat="40.0728538" lon="-105.230923">
  <ele>1593.34</ele>
  <time>2026-08-27T18:30:08Z</time>
  <course>303.85</course>
  <speed>0.14866068747318506</speed>
  <fix>3d</fix>
</trkpt>
<trkpt lat="40.0728539" lon="-105.230923">
  <ele>1593.89</ele>
  <time>2026-08-27T18:30:08Z</time>
  <course>222.94</course>
  <speed>0.16</speed>
  <fix>3d</fix>
</trkpt>
<trkpt lat="40.0728536" lon="-105.2309232">
  <ele>1592.33</ele>
  <time>2026-08-27T18:30:08Z</time>
  <course>306.52</course>
  <speed>0.14212670403551894</speed>
  <fix>3d</fix>
</trkpt>
<trkpt lat="40.0728536" lon="-105.2309233">
  <ele>1592.96</ele>
  <time>2026-08-27T18:30:08Z</time>
  <course>225.92</course>
  <speed>0.17</speed>
  <fix>3d</fix>
</trkpt>
<trkpt lat="40.0728535" lon="-105.2309235">
  <ele>1591.23</ele>
  <time>2026-08-27T18:30:08Z</time>
  <course>309.04</course>
  <speed>0.130384048104053</speed>
  <fix>3d</fix>
</trkpt>
<trkpt lat="40.0728534" lon="-105.2309236">
  <ele>1591.91</ele>
  <time>2026-08-27T18:30:08Z</time>
  <course>232.06</course>
  <speed>0.16</speed>
  <fix>3d</fix>
</trkpt>
<trkpt lat="40.0728533" lon="-105.2309239">
  <ele>1590.09</ele>
  <time>2026-08-27T18:30:08Z</time>
  <course>311.12</course>
  <speed>0.1264911064067352</speed>
  <fix>3d</fix>
</trkpt>
<trkpt lat="40.0728533" lon="-105.2309239">
  <ele>1590.81</ele>
  <time>2026-08-27T18:30:08Z</time>
  <course>241.42</course>
  <speed>0.15</speed>
  <fix>3d</fix>
</trkpt>
<trkpt lat="40.0728533" lon="-105.2309242">
  <ele>1588.91</ele>
  <time>2026-08-27T18:30:08Z</time>
  <course>312.92</course>
  <speed>0.12041594578792296</speed>
  <fix>3d</fix>
</trkpt>
<trkpt lat="40.0728532" lon="-105.2309243">
  <ele>1589.66</ele>
  <time>2026-08-27T18:30:08Z</time>
  <course>253.07</course>
  <speed>0.15</speed>
  <fix>3d</fix>
</trkpt>
<trkpt lat="40.0728533" lon="-105.2309246">
  <ele>1587.71</ele>
  <time>2026-08-27T18:30:08Z</time>
  <course>314.54</course>
  <speed>0.1414213562373095</speed>
  <fix>3d</fix>
</trkpt>
<trkpt lat="40.0728531" lon="-105.2309246">
  <ele>1588.49</ele>
  <time>2026-08-27T18:30:08Z</time>
  <course>265.54</course>
  <speed>0.15</speed>
  <fix>3d</fix>
</trkpt>
<trkpt lat="40.0728533" lon="-105.230925">
  <ele>1586.5</ele>
  <time>2026-08-27T18:30:08Z</time>
  <course>316.05</course>
  <speed>0.15811388300841897</speed>
  <fix>3d</fix>
</trkpt>
<trkpt lat="40.0728531" lon="-105.230925">
  <ele>1587.3</ele>
  <time>2026-08-27T18:30:08Z</time>
  <course>277.16</course>
  <speed>0.16</speed>
  <fix>3d</fix>
</trkpt>
<trkpt lat="40.0728533" lon="-105.2309253">
  <ele>1585.59</ele>
  <time>2026-08-27T18:30:08Z</time>
  <course>316.77</course>
  <speed>0.0</speed>
  <fix>3d</fix>
</trkpt>
<trkpt lat="40.0728532" lon="-105.2309253">
  <ele>1586.13</ele>
  <time>2026-08-27T18:30:08Z</time>
  <course>282.58</course>
  <speed>0.14</speed>
  <fix>3d</fix>
</trkpt>
<trkpt lat="40.0728533" lon="-105.2309251">
  <ele>1585.86</ele>
  <time>2026-08-27T18:30:08Z</time>
  <course>316.83</course>
  <speed>0.08062257748298549</speed>
  <fix>3d</fix>
</trkpt>
<trkpt lat="40.0728532" lon="-105.2309256">
  <ele>1585.59</ele>
  <time>2026-08-27T18:30:08Z</time>
  <course>271.0</course>
  <speed>0.03</speed>
  <fix>3d</fix>
</trkpt>
<trkpt lat="40.0728533" lon="-105.2309251">
  <ele>1585.92</ele>
  <time>2026-08-27T18:30:08Z</time>
  <course>316.88</course>
  <speed>0.03</speed>
  <fix>3d</fix>
</trkpt>
<trkpt lat="40.0728532" lon="-105.2309256">
  <ele>1585.73</ele>
  <time>2026-08-27T18:30:08Z</time>
  <course>111.39</course>
  <speed>0.03</speed>
  <fix>3d</fix>
</trkpt>
<trkpt lat="40.0728533" lon="-105.2309251">
  <ele>1585.85</ele>
  <time>2026-08-27T18:30:08Z</time>
  <course>316.92</course>
  <speed>0.02</speed>
  <fix>3d</fix>
</trkpt>
<trkpt lat="40.0728532" lon="-105.2309255">
  <ele>1585.82</ele>
  <time>2026-08-27T18:30:08Z</time>
  <course>38.57</course>
  <speed>0.0</speed>
  <fix>3d</fix>
</trkpt>
<trkpt lat="40.0728533" lon="-105.2309252">
  <ele>1585.84</ele>
  <time>2026-08-27T18:30:08Z</time>
  <course>316.96</course>
  <speed>0.03</speed>
  <fix>3d</fix>
</trkpt>
<trkpt lat="40.0728532" lon="-105.2309255">
  <ele>1585.79</ele>
  <time>2026-08-27T18:30:08Z</time>
  <course>314.28</course>
  <speed>0.0</speed>
  <fix>3d</fix>
</trkpt>
<trkpt lat="40.0728533" lon="-105.2309252">
  <ele>1585.84</ele>
  <time>2026-08-27T18:30:08Z</time>
  <course>317.0</course>
  <speed>0.02</speed>
  <fix>3d</fix>
</trkpt>
<trkpt lat="40.0728532" lon="-105.2309255">
  <ele>1585.78</ele>
  <time>2026-08-27T18:30:08Z</time>
  <course>67.79</course>
  <speed>0.0</speed>
  <fix>3d</fix>
</trkpt>
<trkpt lat="40.0728533" lon="-105.2309252">
  <ele>1585.84</ele>
  <time>2026-08-27T18:30:08Z</time>
  <course>317.03</course>
  <speed>0.02</speed>
  <fix>3d</fix>
</trkpt>
<trkpt lat="40.0728532" lon="-105.2309255">
  <ele>1585.79</ele>
  <time>2026-08-27T18:30:08Z</time>
  <course>65.57</course>
  <speed>0.0</speed>
  <fix>3d</fix>
</trkpt>
<trkpt lat="40.0728533" lon="-105.2309252">
  <ele>1585.83</ele>
  <time>2026-08-27T18:30:08Z</time>
  <course>317.05</course>
  <speed>0.02</speed>
  <fix>3d</fix>
</trkpt>
<trkpt lat="40.0728532" lon="-105.2309255">
  <ele>1585.79</ele>
  <time>2026-08-27T18:30:08Z</time>
  <course>36.77</course>
  <speed>0.0</speed>
  <fix>3d</fix>
</trkpt>
<trkpt lat="40.0728533" lon="-105.2309252">
  <ele>1585.83</ele>
  <time>2026-08-27T18:30:08Z</time>
  <course>317.08</course>
  <speed>0.02</speed>
  <fix>3d</fix>
</trkpt>
<trkpt lat="40.0728532" lon="-105.2309255">
  <ele>1585.79</ele>
  <time>2026-08-27T18:30:08Z</time>
  <course>42.11</course>
  <speed>0.0</speed>
  <fix>3d</fix>
</trkpt>
<trkpt lat="40.0728533" lon="-105.2309252">
  <ele>1585.83</ele>
  <time>2026-08-27T18:30:08Z</time>
  <course>317.1</course>
  <speed>0.02</speed>
  <fix>3d</fix>
</trkpt>
<trkpt lat="40.0728532" lon="-105.2309255">
  <ele>1585.79</ele>
  <time>2026-08-27T18:30:08Z</time>
  <course>47.49</course>
  <speed>0.0</speed>
  <fix>3d</fix>
</trkpt>
<trkpt lat="40.0728533" lon="-105.2309253">
  <ele>1585.83</ele>
  <time>2026-08-27T18:30:08Z</time>
  <course>317.12</course>
  <speed>0.02</speed>
  <fix>3d</fix>
</trkpt>
<trkpt lat="40.0728532" lon="-105.2309255">
  <ele>1585.79</ele>
  <time>2026-08-27T18:30:08Z</time>
  <course>45.81</course>
  <speed>0.0</speed>
  <fix>3d</fix>
</trkpt>
<trkpt lat="40.0728533" lon="-105.2309253">
  <ele>1585.83</ele>
  <time>2026-08-27T18:30:08Z</time>
  <course>317.13</course>
  <speed>0.02</speed>
  <fix>3d</fix>
</trkpt>
<trkpt lat="40.0728532" lon="-105.2309255">
  <ele>1585.79</ele>
  <time>2026-08-27T18:30:08Z</time>
  <course>43.8</course>
  <speed>0.0</speed>
  <fix>3d</fix>
</trkpt>
<trkpt lat="40.0728533" lon="-105.2309253">
  <ele>1585.83</ele>
  <time>2026-08-27T18:30:08Z</time>
  <course>317.12</course>
  <speed>0.02</speed>
  <fix>3d</fix>
</trkpt>
<trkpt lat="40.0728532" lon="-105.2309255">
  <ele>1585.79</ele>
  <time>2026-08-27T18:30:08Z</time>
  <course>29.24</course>
  <speed>0.0</speed>
  <fix>3d</fix>
</trkpt>
<trkpt lat="40.0728533" lon="-105.2309253">
  <ele>1585.83</ele>
  <time>2026-08-27T18:30:08Z</time>
  <course>317.1</course>
  <speed>0.02</speed>
  <fix>3d</fix>
</trkpt>
<trkpt lat="40.0728532" lon="-105.2309255">
  <ele>1585.79</ele>
  <time>2026-08-27T18:30:08Z</time>
  <course>22.7</course>
  <speed>0.0</speed>
  <fix>3d</fix>
</trkpt>
<trkpt lat="40.0728533" lon="-105.2309253">
  <ele>1585.83</ele>
  <time>2026-08-27T18:30:08Z</time>
  <course>317.08</course>
  <speed>0.02</speed>
  <fix>3d</fix>
</trkpt>
<trkpt lat="40.0728532" lon="-105.2309255">
  <ele>1585.79</ele>
  <time>2026-08-27T18:30:08Z</time>
  <course>190.63</course>
  <speed>0.0</speed>
  <fix>3d</fix>
</trkpt>
<trkpt lat="40.0728533" lon="-105.2309253">
  <ele>1585.83</ele>
  <time>2026-08-27T18:30:08Z</time>
  <course>317.05</course>
  <speed>0.02</speed>
  <fix>3d</fix>
</trkpt>
<trkpt lat="40.0728532" lon="-105.2309255">
  <ele>1585.79</ele>
  <time>2026-08-27T18:30:08Z</time>
  <course>183.9</course>
  <speed>0.0</speed>
  <fix>3d</fix>
</trkpt>
<trkpt lat="40.0728532" lon="-105.2309253">
  <ele>1585.83</ele>
  <time>2026-08-27T18:30:08Z</time>
  <course>317.03</course>
  <speed>0.02</speed>
  <fix>3d</fix>
</trkpt>
<trkpt lat="40.0728532" lon="-105.2309255">
  <ele>1585.79</ele>
  <time>2026-08-27T18:30:08Z</time>
  <course>179.32</course>
  <speed>0.0</speed>
  <fix>3d</fix>
</trkpt>
<trkpt lat="40.0728532" lon="-105.2309253">
  <ele>1585.83</ele>
  <time>2026-08-27T18:30:08Z</time>
  <course>317.01</course>
  <speed>0.02</speed>
  <fix>3d</fix>
</trkpt>
<trkpt lat="40.0728532" lon="-105.2309255">
  <ele>1585.79</ele>
  <time>2026-08-27T18:30:08Z</time>
  <course>180.36</course>
  <speed>0.0</speed>
  <fix>3d</fix>
</trkpt>
<trkpt lat="40.0728532" lon="-105.2309253">
  <ele>1585.84</ele>
  <time>2026-08-27T18:30:08Z</time>
  <course>317.0</course>
  <speed>0.02</speed>
  <fix>3d</fix>
</trkpt>
<trkpt lat="40.0728532" lon="-105.2309255">
  <ele>1585.79</ele>
  <time>2026-08-27T18:30:08Z</time>
  <course>179.65</course>
  <speed>0.0</speed>
  <fix>3d</fix>
</trkpt>
<trkpt lat="40.0728532" lon="-105.2309253">
  <ele>1585.84</ele>
  <time>2026-08-27T18:30:08Z</time>
  <course>316.98</course>
  <speed>0.02</speed>
  <fix>3d</fix>
</trkpt>
<trkpt lat="40.0728532" lon="-105.2309255">
  <ele>1585.79</ele>
  <time>2026-08-27T18:30:08Z</time>
  <course>193.68</course>
  <speed>0.0</speed>
  <fix>3d</fix>
</trkpt>
<trkpt lat="40.0728532" lon="-105.2309253">
  <ele>1585.84</ele>
  <time>2026-08-27T18:30:08Z</time>
  <course>316.96</course>
  <speed>0.02</speed>
  <fix>3d</fix>
</trkpt>
<trkpt lat="40.0728532" lon="-105.2309255">
  <ele>1585.79</ele>
  <time>2026-08-27T18:30:08Z</time>
  <course>217.46</course>
  <speed>0.0</speed>
  <fix>3d</fix>
</trkpt>
<trkpt lat="40.0728532" lon="-105.2309253">
  <ele>1585.84</ele>
  <time>2026-08-27T18:30:08Z</time>
  <course>316.95</course>
  <speed>0.02</speed>
  <fix>3d</fix>
</trkpt>
<trkpt lat="40.0728532" lon="-105.2309255">
  <ele>1585.79</ele>
  <time>2026-08-27T18:30:08Z</time>
  <course>225.15</course>
  <speed>0.0</speed>
  <fix>3d</fix>
</trkpt>
<trkpt lat="40.0728532" lon="-105.2309253">
  <ele>1585.84</ele>
  <time>2026-08-27T18:30:08Z</time>
  <course>316.94</course>
  <speed>0.02</speed>
  <fix>3d</fix>
</trkpt>
<trkpt lat="40.0728532" lon="-105.2309255">
  <ele>1585.79</ele>
  <time>2026-08-27T18:30:08Z</time>
  <course>230.83</course>
  <speed>0.0</speed>
  <fix>3d</fix>
</trkpt>
<trkpt lat="40.0728532" lon="-105.2309253">
  <ele>1585.83</ele>
  <time>2026-08-27T18:30:08Z</time>
  <course>316.93</course>
  <speed>0.02</speed>
  <fix>3d</fix>
</trkpt>
<trkpt lat="40.0728532" lon="-105.2309255">
  <ele>1585.79</ele>
  <time>2026-08-27T18:30:08Z</time>
  <course>225.74</course>
  <speed>0.0</speed>
  <fix>3d</fix>
</trkpt>
<trkpt lat="40.0728532" lon="-105.2309253">
  <ele>1585.83</ele>
  <time>2026-08-27T18:30:08Z</time>
  <course>316.91</course>
  <speed>0.02</speed>
  <fix>3d</fix>
</trkpt>
<trkpt lat="40.0728532" lon="-105.2309255">
  <ele>1585.79</ele>
  <time>2026-08-27T18:30:08Z</time>
  <course>221.75</course>
  <speed>0.0</speed>
  <fix>3d</fix>
</trkpt>
<trkpt lat="40.0728532" lon="-105.2309253">
  <ele>1585.83</ele>
  <time>2026-08-27T18:30:08Z</time>
  <course>316.9</course>
  <speed>0.02</speed>
  <fix>3d</fix>
</trkpt>
<trkpt lat="40.0728532" lon="-105.2309255">
  <ele>1585.79</ele>
  <time>2026-08-27T18:30:08Z</time>
  <course>227.57</course>
  <speed>0.0</speed>
  <fix>3d</fix>
</trkpt>
<trkpt lat="40.0728532" lon="-105.2309253">
  <ele>1585.83</ele>
  <time>2026-08-27T18:30:08Z</time>
  <course>316.89</course>
  <speed>0.02</speed>
  <fix>3d</fix>
</trkpt>
<trkpt lat="40.0728532" lon="-105.2309255">
  <ele>1585.79</ele>
  <time>2026-08-27T18:30:08Z</time>
  <course>227.08</course>
  <speed>0.0</speed>
  <fix>3d</fix>
</trkpt>
<trkpt lat="40.0728532" lon="-105.2309253">
  <ele>1585.84</ele>
  <time>2026-08-27T18:30:08Z</time>
  <course>316.88</course>
  <speed>0.02</speed>
  <fix>3d</fix>
</trkpt>
<trkpt lat="40.0728532" lon="-105.2309255">
  <ele>1585.79</ele>
  <time>2026-08-27T18:30:08Z</time>
  <course>226.13</course>
  <speed>0.0</speed>
  <fix>3d</fix>
</trkpt>
<trkpt lat="40.0728532" lon="-105.2309253">
  <ele>1585.84</ele>
  <time>2026-08-27T18:30:08Z</time>
  <course>316.88</course>
  <speed>0.02</speed>
  <fix>3d</fix>
</trkpt>
<trkpt lat="40.0728532" lon="-105.2309255">
  <ele>1585.79</ele>
  <time>2026-08-27T18:30:08Z</time>
  <course>226.31</course>
  <speed>0.0</speed>
  <fix>3d</fix>
</trkpt>
<trkpt lat="40.0728532" lon="-105.2309253">
  <ele>1585.84</ele>
  <time>2026-08-27T18:30:08Z</time>
  <course>316.87</course>
  <speed>0.02</speed>
  <fix>3d</fix>
</trkpt>
<trkpt lat="40.0728532" lon="-105.2309255">
  <ele>1585.79</ele>
  <time>2026-08-27T18:30:08Z</time>
  <course>226.41</course>
  <speed>0.0</speed>
  <fix>3d</fix>
</trkpt>
<trkpt lat="40.0728532" lon="-105.2309253">
  <ele>1585.84</ele>
  <time>2026-08-27T18:30:08Z</time>
  <course>316.86</course>
  <speed>0.02</speed>
  <fix>3d</fix>
</trkpt>
<trkpt lat="40.0728532" lon="-105.2309255">
  <ele>1585.79</ele>
  <time>2026-08-27T18:30:08Z</time>
  <course>226.33</course>
  <speed>0.0</speed>
  <fix>3d</fix>
</trkpt>
<trkpt lat="40.0728532" lon="-105.2309253">
  <ele>1585.85</ele>
  <time>2026-08-27T18:30:08Z</time>
  <course>316.85</course>
  <speed>0.02</speed>
  <fix>3d</fix>
</trkpt>
<trkpt lat="40.0728532" lon="-105.2309255">
  <ele>1585.79</ele>
  <time>2026-08-27T18:30:08Z</time>
  <course>226.29</course>
  <speed>0.0</speed>
  <fix>3d</fix>
</trkpt>
<trkpt lat="40.0728532" lon="-105.2309253">
  <ele>1585.85</ele>
  <time>2026-08-27T18:30:08Z</time>
  <course>316.85</course>
  <speed>0.02</speed>
  <fix>3d</fix>
</trkpt>
<trkpt lat="40.0728532" lon="-105.2309255">
  <ele>1585.79</ele>
  <time>2026-08-27T18:30:08Z</time>
  <course>226.27</course>
  <speed>0.0</speed>
  <fix>3d</fix>
</trkpt>
<trkpt lat="40.0728532" lon="-105.2309253">
  <ele>1585.85</ele>
  <time>2026-08-27T18:30:08Z</time>
  <course>316.84</course>
  <speed>0.02</speed>
  <fix>3d</fix>
</trkpt>
<trkpt lat="40.0728532" lon="-105.2309255">
  <ele>1585.79</ele>
  <time>2026-08-27T18:30:08Z</time>
  <course>226.24</course>
  <speed>0.0</speed>
  <fix>3d</fix>
</trkpt>
<trkpt lat="40.0728532" lon="-105.2309253">
  <ele>1585.85</ele>
  <time>2026-08-27T18:30:08Z</time>
  <course>316.83</course>
  <speed>0.02</speed>
  <fix>3d</fix>
</trkpt>
<trkpt lat="40.0728532" lon="-105.2309255">
  <ele>1585.79</ele>
  <time>2026-08-27T18:30:08Z</time>
  <course>226.2</course>
  <speed>0.0</speed>
  <fix>3d</fix>
</trkpt>
<trkpt lat="40.0728532" lon="-105.2309253">
  <ele>1585.85</ele>
  <time>2026-08-27T18:30:08Z</time>
  <course>316.83</course>
  <speed>0.02</speed>
  <fix>3d</fix>
</trkpt>
<trkpt lat="40.0728532" lon="-105.2309255">
  <ele>1585.79</ele>
  <time>2026-08-27T18:30:08Z</time>
  <course>226.18</course>
  <speed>0.0</speed>
  <fix>3d</fix>
</trkpt>
<trkpt lat="40.0728532" lon="-105.2309253">
  <ele>1585.86</ele>
  <time>2026-08-27T18:30:08Z</time>
  <course>316.82</course>
  <speed>0.02</speed>
  <fix>3d</fix>
</trkpt>
<trkpt lat="40.0728532" lon="-105.2309255">
  <ele>1585.79</ele>
  <time>2026-08-27T18:30:08Z</time>
  <course>226.15</course>
  <speed>0.0</speed>
  <fix>3d</fix>
</trkpt>
<trkpt lat="40.0728532" lon="-105.2309253">
  <ele>1585.85</ele>
  <time>2026-08-27T18:30:08Z</time>
  <course>316.82</course>
  <speed>0.02</speed>
  <fix>3d</fix>
</trkpt>
<trkpt lat="40.0728532" lon="-105.2309255">
  <ele>1585.79</ele>
  <time>2026-08-27T18:30:08Z</time>
  <course>226.11</course>
  <speed>0.0</speed>
  <fix>3d</fix>
</trkpt>
<trkpt lat="40.0728532" lon="-105.2309253">
  <ele>1585.85</ele>
  <time>2026-08-27T18:30:08Z</time>
  <course>316.81</course>
  <speed>0.02</speed>
  <fix>3d</fix>
</trkpt>
<trkpt lat="40.0728532" lon="-105.2309255">
  <ele>1585.79</ele>
  <time>2026-08-27T18:30:08Z</time>
  <course>226.07</course>
  <speed>0.0</speed>
  <fix>3d</fix>
</trkpt>
<trkpt lat="40.0728532" lon="-105.2309253">
  <ele>1585.85</ele>
  <time>2026-08-27T18:30:08Z</time>
  <course>316.81</course>
  <speed>0.02</speed>
  <fix>3d</fix>
</trkpt>
<trkpt lat="40.0728532" lon="-105.2309255">
  <ele>1585.79</ele>
  <time>2026-08-27T18:30:08Z</time>
  <course>226.05</course>
  <speed>0.0</speed>
  <fix>3d</fix>
</trkpt>
<trkpt lat="40.0728532" lon="-105.2309253">
  <ele>1585.85</ele>
  <time>2026-08-27T18:30:08Z</time>
  <course>316.81</course>
  <speed>0.02</speed>
  <fix>3d</fix>
</trkpt>
<trkpt lat="40.0728532" lon="-105.2309255">
  <ele>1585.79</ele>
  <time>2026-08-27T18:30:08Z</time>
  <course>226.02</course>
  <speed>0.0</speed>
  <fix>3d</fix>
</trkpt>
<trkpt lat="40.0728532" lon="-105.2309253">
  <ele>1585.85</ele>
  <time>2026-08-27T18:30:08Z</time>
  <course>316.84</course>
  <speed>0.02</speed>
  <fix>3d</fix>
</trkpt>
<trkpt lat="40.0728532" lon="-105.2309255">
  <ele>1585.79</ele>
  <time>2026-08-27T18:30:08Z</time>
  <course>226.2</course>
  <speed>0.0</speed>
  <fix>3d</fix>
</trkpt>
<trkpt lat="40.0728532" lon="-105.2309253">
  <ele>1585.85</ele>
  <time>2026-08-27T18:30:08Z</time>
  <course>316.88</course>
  <speed>0.02</speed>
  <fix>3d</fix>
</trkpt>
<trkpt lat="40.0728532" lon="-105.2309255">
  <ele>1585.79</ele>
  <time>2026-08-27T18:30:08Z</time>
  <course>226.19</course>
  <speed>0.0</speed>
  <fix>3d</fix>
</trkpt>
<trkpt lat="40.0728532" lon="-105.2309253">
  <ele>1585.85</ele>
  <time>2026-08-27T18:30:08Z</time>
  <course>316.91</course>
  <speed>0.02</speed>
  <fix>3d</fix>
</trkpt>
<trkpt lat="40.0728532" lon="-105.2309255">
  <ele>1585.79</ele>
  <time>2026-08-27T18:30:08Z</time>
  <course>46.33</course>
  <speed>0.0</speed>
  <fix>3d</fix>
</trkpt>
<trkpt lat="40.0728532" lon="-105.2309253">
  <ele>1585.86</ele>
  <time>2026-08-27T18:30:08Z</time>
  <course>316.95</course>
  <speed>0.02</speed>
  <fix>3d</fix>
</trkpt>
<trkpt lat="40.0728532" lon="-105.2309255">
  <ele>1585.79</ele>
  <time>2026-08-27T18:30:08Z</time>
  <course>46.49</course>
  <speed>0.0</speed>
  <fix>3d</fix>
</trkpt>
<trkpt lat="40.0728532" lon="-105.2309253">
  <ele>1585.87</ele>
  <time>2026-08-27T18:30:08Z</time>
  <course>316.98</course>
  <speed>0.02</speed>
  <fix>3d</fix>
</trkpt>
<trkpt lat="40.0728532" lon="-105.2309255">
  <ele>1585.79</ele>
  <time>2026-08-27T18:30:08Z</time>
  <course>225.72</course>
  <speed>0.0</speed>
  <fix>3d</fix>
</trkpt>
<trkpt lat="40.0728532" lon="-105.2309253">
  <ele>1585.88</ele>
  <time>2026-08-27T18:30:08Z</time>
  <course>317.02</course>
  <speed>0.02</speed>
  <fix>3d</fix>
</trkpt>
<trkpt lat="40.0728532" lon="-105.2309255">
  <ele>1585.79</ele>
  <time>2026-08-27T18:30:08Z</time>
  <course>224.44</course>
  <speed>0.0</speed>
  <fix>3d</fix>
</trkpt>
<trkpt lat="40.0728532" lon="-105.2309253">
  <ele>1585.89</ele>
  <time>2026-08-27T18:30:08Z</time>
  <course>317.05</course>
  <speed>0.02</speed>
  <fix>3d</fix>
</trkpt>
<trkpt lat="40.0728532" lon="-105.2309255">
  <ele>1585.79</ele>
  <time>2026-08-27T18:30:08Z</time>
  <course>88.77</course>
  <speed>0.0</speed>
  <fix>3d</fix>
</trkpt>
<trkpt lat="40.0728532" lon="-105.2309253">
  <ele>1585.89</ele>
  <time>2026-08-27T18:30:08Z</time>
  <course>317.09</course>
  <speed>0.02</speed>
  <fix>3d</fix>
</trkpt>
<trkpt lat="40.0728532" lon="-105.2309255">
  <ele>1585.79</ele>
  <time>2026-08-27T18:30:08Z</time>
  <course>222.12</course>
  <speed>0.0</speed>
  <fix>3d</fix>
</trkpt>
<trkpt lat="40.0728532" lon="-105.2309253">
  <ele>1585.88</ele>
  <time>2026-08-27T18:30:08Z</time>
  <course>317.12</course>
  <speed>0.02</speed>
  <fix>3d</fix>
</trkpt>
<trkpt lat="40.0728532" lon="-105.2309255">
  <ele>1585.79</ele>
  <time>2026-08-27T18:30:08Z</time>
  <course>222.77</course>
  <speed>0.0</speed>
  <fix>3d</fix>
</trkpt>
<trkpt lat="40.0728532" lon="-105.2309253">
  <ele>1585.88</ele>
  <time>2026-08-27T18:30:08Z</time>
  <course>317.15</course>
  <speed>0.02</speed>
  <fix>3d</fix>
</trkpt>
<trkpt lat="40.0728532" lon="-105.2309255">
  <ele>1585.79</ele>
  <time>2026-08-27T18:30:08Z</time>
  <course>64.32</course>
  <speed>0.0</speed>
  <fix>3d</fix>
</trkpt>
<trkpt lat="40.0728532" lon="-105.2309253">
  <ele>1585.88</ele>
  <time>2026-08-27T18:30:08Z</time>
  <course>317.19</course>
  <speed>0.02</speed>
  <fix>3d</fix>
</trkpt>
<trkpt lat="40.0728532" lon="-105.2309255">
  <ele>1585.79</ele>
  <time>2026-08-27T18:30:08Z</time>
  <course>47.56</course>
  <speed>0.0</speed>
  <fix>3d</fix>
</trkpt>
<trkpt lat="40.0728532" lon="-105.2309253">
  <ele>1585.88</ele>
  <time>2026-08-27T18:30:08Z</time>
  <course>317.22</course>
  <speed>0.02</speed>
  <fix>3d</fix>
</trkpt>
<trkpt lat="40.0728532" lon="-105.2309255">
  <ele>1585.79</ele>
  <time>2026-08-27T18:30:08Z</time>
  <course>346.45</course>
  <speed>0.0</speed>
  <fix>3d</fix>
</trkpt>
<trkpt lat="40.0728532" lon="-105.2309253">
  <ele>1585.89</ele>
  <time>2026-08-27T18:30:08Z</time>
  <course>317.25</course>
  <speed>0.02</speed>
  <fix>3d</fix>
</trkpt>
<trkpt lat="40.0728532" lon="-105.2309255">
  <ele>1585.79</ele>
  <time>2026-08-27T18:30:08Z</time>
  <course>219.39</course>
  <speed>0.0</speed>
  <fix>3d</fix>
</trkpt>
<trkpt lat="40.0728532" lon="-105.2309253">
  <ele>1585.89</ele>
  <time>2026-08-27T18:30:08Z</time>
  <course>317.29</course>
  <speed>0.01</speed>
  <fix>3d</fix>
</trkpt>
<trkpt lat="40.0728532" lon="-105.2309255">
  <ele>1585.79</ele>
  <time>2026-08-27T18:30:08Z</time>
  <course>178.91</course>
  <speed>0.0</speed>
  <fix>3d</fix>
</trkpt>
<trkpt lat="40.0728532" lon="-105.2309253">
  <ele>1585.89</ele>
  <time>2026-08-27T18:30:08Z</time>
  <course>317.32</course>
  <speed>0.01</speed>
  <fix>3d</fix>
</trkpt>
<trkpt lat="40.0728532" lon="-105.2309255">
  <ele>1585.79</ele>
  <time>2026-08-27T18:30:08Z</time>
  <course>282.95</course>
  <speed>0.0</speed>
  <fix>3d</fix>
</trkpt>
<trkpt lat="40.0728532" lon="-105.2309253">
  <ele>1585.89</ele>
  <time>2026-08-27T18:30:08Z</time>
  <course>317.36</course>
  <speed>0.01</speed>
  <fix>3d</fix>
</trkpt>
<trkpt lat="40.0728532" lon="-105.2309255">
  <ele>1585.79</ele>
  <time>2026-08-27T18:30:08Z</time>
  <course>227.46</course>
  <speed>0.0</speed>
  <fix>3d</fix>
</trkpt>
<trkpt lat="40.0728532" lon="-105.2309253">
  <ele>1585.88</ele>
  <time>2026-08-27T18:30:08Z</time>
  <course>317.39</course>
  <speed>0.01</speed>
  <fix>3d</fix>
</trkpt>
<trkpt lat="40.0728532" lon="-105.2309255">
  <ele>1585.79</ele>
  <time>2026-08-27T18:30:08Z</time>
  <course>220.54</course>
  <speed>0.0</speed>
  <fix>3d</fix>
</trkpt>
<trkpt lat="40.0728532" lon="-105.2309253">
  <ele>1585.88</ele>
  <time>2026-08-27T18:30:08Z</time>
  <course>317.43</course>
  <speed>0.01</speed>
  <fix>3d</fix>
</trkpt>
<trkpt lat="40.0728532" lon="-105.2309255">
  <ele>1585.79</ele>
  <time>2026-08-27T18:30:08Z</time>
  <course>221.69</course>
  <speed>0.0</speed>
  <fix>3d</fix>
</trkpt>
<trkpt lat="40.0728532" lon="-105.2309253">
  <ele>1585.87</ele>
  <time>2026-08-27T18:30:08Z</time>
  <course>317.46</course>
  <speed>0.01</speed>
  <fix>3d</fix>
</trkpt>
<trkpt lat="40.0728532" lon="-105.2309255">
  <ele>1585.79</ele>
  <time>2026-08-27T18:30:08Z</time>
  <course>222.58</course>
  <speed>0.0</speed>
  <fix>3d</fix>
</trkpt>
<trkpt lat="40.0728532" lon="-105.2309253">
  <ele>1585.87</ele>
  <time>2026-08-27T18:30:08Z</time>
  <course>317.5</course>
  <speed>0.01</speed>
  <fix>3d</fix>
</trkpt>
<trkpt lat="40.0728532" lon="-105.2309255">
  <ele>1585.79</ele>
  <time>2026-08-27T18:30:08Z</time>
  <course>222.29</course>
  <speed>0.0</speed>
  <fix>3d</fix>
</trkpt>
<trkpt lat="40.0728532" lon="-105.2309253">
  <ele>1585.87</ele>
  <time>2026-08-27T18:30:08Z</time>
  <course>317.53</course>
  <speed>0.01</speed>
  <fix>3d</fix>
</trkpt>
<trkpt lat="40.0728532" lon="-105.2309255">
  <ele>1585.79</ele>
  <time>2026-08-27T18:30:08Z</time>
  <course>222.21</course>
  <speed>0.0</speed>
  <fix>3d</fix>
</trkpt>
<trkpt lat="40.0728532" lon="-105.2309253">
  <ele>1585.86</ele>
  <time>2026-08-27T18:30:08Z</time>
  <course>317.57</course>
  <speed>0.01</speed>
  <fix>3d</fix>
</trkpt>
<trkpt lat="40.0728532" lon="-105.2309255">
  <ele>1585.79</ele>
  <time>2026-08-27T18:30:08Z</time>
  <course>222.26</course>
  <speed>0.0</speed>
  <fix>3d</fix>
</trkpt>
<trkpt lat="40.0728532" lon="-105.2309253">
  <ele>1585.86</ele>
  <time>2026-08-27T18:30:08Z</time>
  <course>317.6</course>
  <speed>0.01</speed>
  <fix>3d</fix>
</trkpt>
<trkpt lat="40.0728532" lon="-105.2309255">
  <ele>1585.79</ele>
  <time>2026-08-27T18:30:08Z</time>
  <course>222.26</course>
  <speed>0.0</speed>
  <fix>3d</fix>
</trkpt>
<trkpt lat="40.0728532" lon="-105.2309253">
  <ele>1585.86</ele>
  <time>2026-08-27T18:30:08Z</time>
  <course>317.64</course>
  <speed>0.01</speed>
  <fix>3d</fix>
</trkpt>
<trkpt lat="40.0728532" lon="-105.2309255">
  <ele>1585.79</ele>
  <time>2026-08-27T18:30:08Z</time>
  <course>222.25</course>
  <speed>0.0</speed>
  <fix>3d</fix>
</trkpt>
<trkpt lat="40.0728532" lon="-105.2309253">
  <ele>1585.86</ele>
  <time>2026-08-27T18:30:08Z</time>
  <course>317.68</course>
  <speed>0.01</speed>
  <fix>3d</fix>
</trkpt>
<trkpt lat="40.0728532" lon="-105.2309255">
  <ele>1585.79</ele>
  <time>2026-08-27T18:30:08Z</time>
  <course>195.55</course>
  <speed>0.0</speed>
  <fix>3d</fix>
</trkpt>
<trkpt lat="40.0728532" lon="-105.2309253">
  <ele>1585.86</ele>
  <time>2026-08-27T18:30:08Z</time>
  <course>317.71</course>
  <speed>0.01</speed>
  <fix>3d</fix>
</trkpt>
<trkpt lat="40.0728532" lon="-105.2309255">
  <ele>1585.79</ele>
  <time>2026-08-27T18:30:08Z</time>
  <course>218.17</course>
  <speed>0.0</speed>
  <fix>3d</fix>
</trkpt>
<trkpt lat="40.0728532" lon="-105.2309253">
  <ele>1585.86</ele>
  <time>2026-08-27T18:30:08Z</time>
  <course>317.75</course>
  <speed>0.01</speed>
  <fix>3d</fix>
</trkpt>
<trkpt lat="40.0728532" lon="-105.2309255">
  <ele>1585.79</ele>
  <time>2026-08-27T18:30:08Z</time>
  <course>211.62</course>
  <speed>0.0</speed>
  <fix>3d</fix>
</trkpt>
<trkpt lat="40.0728532" lon="-105.2309253">
  <ele>1585.86</ele>
  <time>2026-08-27T18:30:08Z</time>
  <course>317.78</course>
  <speed>0.01</speed>
  <fix>3d</fix>
</trkpt>
<trkpt lat="40.0728532" lon="-105.2309255">
  <ele>1585.79</ele>
  <time>2026-08-27T18:30:08Z</time>
  <course>75.03</course>
  <speed>0.0</speed>
  <fix>3d</fix>
</trkpt>
<trkpt lat="40.0728532" lon="-105.2309253">
  <ele>1585.86</ele>
  <time>2026-08-27T18:30:08Z</time>
  <course>317.82</course>
  <speed>0.01</speed>
  <fix>3d</fix>
</trkpt>
<trkpt lat="40.0728532" lon="-105.2309255">
  <ele>1585.79</ele>
  <time>2026-08-27T18:30:08Z</time>
  <course>351.28</course>
  <speed>0.0</speed>
  <fix>3d</fix>
</trkpt>
<trkpt lat="40.0728532" lon="-105.2309253">
  <ele>1585.86</ele>
  <time>2026-08-27T18:30:08Z</time>
  <course>317.86</course>
  <speed>0.01</speed>
  <fix>3d</fix>
</trkpt>
<trkpt lat="40.0728532" lon="-105.2309255">
  <ele>1585.79</ele>
  <time>2026-08-27T18:30:08Z</time>
  <course>226.02</course>
  <speed>0.0</speed>
  <fix>3d</fix>
</trkpt>
<trkpt lat="40.0728532" lon="-105.2309253">
  <ele>1585.86</ele>
  <time>2026-08-27T18:30:08Z</time>
  <course>317.89</course>
  <speed>0.01</speed>
  <fix>3d</fix>
</trkpt>
<trkpt lat="40.0728532" lon="-105.2309255">
  <ele>1585.79</ele>
  <time>2026-08-27T18:30:08Z</time>
  <course>217.13</course>
  <speed>0.0</speed>
  <fix>3d</fix>
</trkpt>
<trkpt lat="40.0728532" lon="-105.2309253">
  <ele>1585.86</ele>
  <time>2026-08-27T18:30:08Z</time>
  <course>317.93</course>
  <speed>0.01</speed>
  <fix>3d</fix>
</trkpt>
<trkpt lat="40.0728532" lon="-105.2309255">
  <ele>1585.79</ele>
  <time>2026-08-27T18:30:08Z</time>
  <course>222.13</course>
  <speed>0.0</speed>
  <fix>3d</fix>
</trkpt>
<trkpt lat="40.0728532" lon="-105.2309253">
  <ele>1585.87</ele>
  <time>2026-08-27T18:30:08Z</time>
  <course>317.97</course>
  <speed>0.01</speed>
  <fix>3d</fix>
</trkpt>
<trkpt lat="40.0728532" lon="-105.2309255">
  <ele>1585.79</ele>
  <time>2026-08-27T18:30:08Z</time>
  <course>223.06</course>
  <speed>0.0</speed>
  <fix>3d</fix>
</trkpt>
<trkpt lat="40.0728532" lon="-105.2309253">
  <ele>1585.87</ele>
  <time>2026-08-27T18:30:08Z</time>
  <course>318.0</course>
  <speed>0.01</speed>
  <fix>3d</fix>
</trkpt>
<trkpt lat="40.0728532" lon="-105.2309255">
  <ele>1585.79</ele>
  <time>2026-08-27T18:30:08Z</time>
  <course>222.18</course>
  <speed>0.0</speed>
  <fix>3d</fix>
</trkpt>
<trkpt lat="40.0728532" lon="-105.2309253">
  <ele>1585.87</ele>
  <time>2026-08-27T18:30:08Z</time>
  <course>318.04</course>
  <speed>0.01</speed>
  <fix>3d</fix>
</trkpt>
<trkpt lat="40.0728532" lon="-105.2309255">
  <ele>1585.79</ele>
  <time>2026-08-27T18:30:08Z</time>
  <course>222.16</course>
  <speed>0.0</speed>
  <fix>3d</fix>
</trkpt>
<trkpt lat="40.0728532" lon="-105.2309253">
  <ele>1585.87</ele>
  <time>2026-08-27T18:30:08Z</time>
  <course>318.08</course>
  <speed>0.01</speed>
  <fix>3d</fix>
</trkpt>
<trkpt lat="40.0728532" lon="-105.2309255">
  <ele>1585.79</ele>
  <time>2026-08-27T18:30:08Z</time>
  <course>222.28</course>
  <speed>0.0</speed>
  <fix>3d</fix>
</trkpt>
<trkpt lat="40.0728532" lon="-105.2309253">
  <ele>1585.87</ele>
  <time>2026-08-27T18:30:08Z</time>
  <course>318.11</course>
  <speed>0.01</speed>
  <fix>3d</fix>
</trkpt>
<trkpt lat="40.0728532" lon="-105.2309255">
  <ele>1585.79</ele>
  <time>2026-08-27T18:30:08Z</time>
  <course>222.26</course>
  <speed>0.0</speed>
  <fix>3d</fix>
</trkpt>
<trkpt lat="40.0728532" lon="-105.2309253">
  <ele>1585.87</ele>
  <time>2026-08-27T18:30:08Z</time>
  <course>318.15</course>
  <speed>0.01</speed>
  <fix>3d</fix>
</trkpt>
<trkpt lat="40.0728532" lon="-105.2309255">
  <ele>1585.79</ele>
  <time>2026-08-27T18:30:08Z</time>
  <course>222.2</course>
  <speed>0.0</speed>
  <fix>3d</fix>
</trkpt>
<trkpt lat="40.0728532" lon="-105.2309253">
  <ele>1585.87</ele>
  <time>2026-08-27T18:30:09Z</time>
  <course>318.18</course>
  <speed>0.01</speed>
  <fix>3d</fix>
</trkpt>
<trkpt lat="40.0728532" lon="-105.2309255">
  <ele>1585.79</ele>
  <time>2026-08-27T18:30:09Z</time>
  <course>221.78</course>
  <speed>0.0</speed>
  <fix>3d</fix>
</trkpt>
<trkpt lat="40.0728532" lon="-105.2309253">
  <ele>1585.88</ele>
  <time>2026-08-27T18:30:09Z</time>
  <course>318.22</course>
  <speed>0.01</speed>
  <fix>3d</fix>
</trkpt>
<trkpt lat="40.0728532" lon="-105.2309255">
  <ele>1585.79</ele>
  <time>2026-08-27T18:30:09Z</time>
  <course>221.02</course>
  <speed>0.0</speed>
  <fix>3d</fix>
</trkpt>
<trkpt lat="40.0728532" lon="-105.2309253">
  <ele>1585.88</ele>
  <time>2026-08-27T18:30:09Z</time>
  <course>318.25</course>
  <speed>0.01</speed>
  <fix>3d</fix>
</trkpt>
<trkpt lat="40.0728532" lon="-105.2309255">
  <ele>1585.79</ele>
  <time>2026-08-27T18:30:09Z</time>
  <course>220.5</course>
  <speed>0.0</speed>
  <fix>3d</fix>
</trkpt>
<trkpt lat="40.0728532" lon="-105.2309253">
  <ele>1585.88</ele>
  <time>2026-08-27T18:30:09Z</time>
  <course>318.28</course>
  <speed>0.01</speed>
  <fix>3d</fix>
</trkpt>
<trkpt lat="40.0728532" lon="-105.2309255">
  <ele>1585.79</ele>
  <time>2026-08-27T18:30:09Z</time>
  <course>165.58</course>
  <speed>0.0</speed>
  <fix>3d</fix>
</trkpt>
<trkpt lat="40.0728532" lon="-105.2309253">
  <ele>1585.88</ele>
  <time>2026-08-27T18:30:09Z</time>
  <course>318.31</course>
  <speed>0.01</speed>
  <fix>3d</fix>
</trkpt>
<trkpt lat="40.0728532" lon="-105.2309255">
  <ele>1585.79</ele>
  <time>2026-08-27T18:30:09Z</time>
  <course>156.68</course>
  <speed>0.0</speed>
  <fix>3d</fix>
</trkpt>
<trkpt lat="40.0728532" lon="-105.2309253">
  <ele>1585.88</ele>
  <time>2026-08-27T18:30:09Z</time>
  <course>318.33</course>
  <speed>0.01</speed>
  <fix>3d</fix>
</trkpt>
<trkpt lat="40.0728532" lon="-105.2309255">
  <ele>1585.79</ele>
  <time>2026-08-27T18:30:09Z</time>
  <course>50.63</course>
  <speed>0.0</speed>
  <fix>3d</fix>
</trkpt>
<trkpt lat="40.0728532" lon="-105.2309253">
  <ele>1585.88</ele>
  <time>2026-08-27T18:30:09Z</time>
  <course>318.36</course>
  <speed>0.01</speed>
  <fix>3d</fix>
</trkpt>
<trkpt lat="40.0728532" lon="-105.2309255">
  <ele>1585.79</ele>
  <time>2026-08-27T18:30:09Z</time>
  <course>6.9</course>
  <speed>0.0</speed>
  <fix>3d</fix>
</trkpt>
<trkpt lat="40.0728532" lon="-105.2309253">
  <ele>1585.87</ele>
  <time>2026-08-27T18:30:09Z</time>
  <course>318.38</course>
  <speed>0.01</speed>
  <fix>3d</fix>
</trkpt>
<trkpt lat="40.0728532" lon="-105.2309255">
  <ele>1585.79</ele>
  <time>2026-08-27T18:30:09Z</time>
  <course>80.25</course>
  <speed>0.0</speed>
  <fix>3d</fix>
</trkpt>
<trkpt lat="40.0728532" lon="-105.2309253">
  <ele>1585.87</ele>
  <time>2026-08-27T18:30:09Z</time>
  <course>318.4</course>
  <speed>0.01</speed>
  <fix>3d</fix>
</trkpt>
<trkpt lat="40.0728532" lon="-105.2309255">
  <ele>1585.79</ele>
  <time>2026-08-27T18:30:09Z</time>
  <course>67.07</course>
  <speed>0.0</speed>
  <fix>3d</fix>
</trkpt>
<trkpt lat="40.0728532" lon="-105.2309253">
  <ele>1585.87</ele>
  <time>2026-08-27T18:30:09Z</time>
  <course>318.42</course>
  <speed>0.01</speed>
  <fix>3d</fix>
</trkpt>
<trkpt lat="40.0728532" lon="-105.2309255">
  <ele>1585.79</ele>
  <time>2026-08-27T18:30:09Z</time>
  <course>54.76</course>
  <speed>0.0</speed>
  <fix>3d</fix>
</trkpt>
<trkpt lat="40.0728532" lon="-105.2309253">
  <ele>1585.87</ele>
  <time>2026-08-27T18:30:09Z</time>
  <course>318.44</course>
  <speed>0.01</speed>
  <fix>3d</fix>
</trkpt>
<trkpt lat="40.0728532" lon="-105.2309255">
  <ele>1585.79</ele>
  <time>2026-08-27T18:30:09Z</time>
  <course>54.21</course>
  <speed>0.0</speed>
  <fix>3d</fix>
</trkpt>
<trkpt lat="40.0728532" lon="-105.2309253">
  <ele>1585.87</ele>
  <time>2026-08-27T18:30:09Z</time>
  <course>318.46</course>
  <speed>0.01</speed>
  <fix>3d</fix>
</trkpt>
<trkpt lat="40.0728532" lon="-105.2309255">
  <ele>1585.79</ele>
  <time>2026-08-27T18:30:09Z</time>
  <course>53.8</course>
  <speed>0.0</speed>
  <fix>3d</fix>
</trkpt>
<trkpt lat="40.0728532" lon="-105.2309253">
  <ele>1585.87</ele>
  <time>2026-08-27T18:30:09Z</time>
  <course>318.47</course>
  <speed>0.02</speed>
  <fix>3d</fix>
</trkpt>
<trkpt lat="40.0728532" lon="-105.2309255">
  <ele>1585.79</ele>
  <time>2026-08-27T18:30:09Z</time>
  <course>48.69</course>
  <speed>0.0</speed>
  <fix>3d</fix>
</trkpt>
<trkpt lat="40.0728532" lon="-105.2309253">
  <ele>1585.87</ele>
  <time>2026-08-27T18:30:09Z</time>
  <course>318.49</course>
  <speed>0.02</speed>
  <fix>3d</fix>
</trkpt>
<trkpt lat="40.0728532" lon="-105.2309255">
  <ele>1585.79</ele>
  <time>2026-08-27T18:30:09Z</time>
  <course>48.34</course>
  <speed>0.0</speed>
  <fix>3d</fix>
</trkpt>
<trkpt lat="40.0728532" lon="-105.2309253">
  <ele>1585.87</ele>
  <time>2026-08-27T18:30:09Z</time>
  <course>318.5</course>
  <speed>0.02</speed>
  <fix>3d</fix>
</trkpt>
<trkpt lat="40.0728532" lon="-105.2309255">
  <ele>1585.79</ele>
  <time>2026-08-27T18:30:09Z</time>
  <course>50.26</course>
  <speed>0.0</speed>
  <fix>3d</fix>
</trkpt>
<trkpt lat="40.0728532" lon="-105.2309253">
  <ele>1585.87</ele>
  <time>2026-08-27T18:30:09Z</time>
  <course>318.51</course>
  <speed>0.02</speed>
  <fix>3d</fix>
</trkpt>
<trkpt lat="40.0728532" lon="-105.2309255">
  <ele>1585.79</ele>
  <time>2026-08-27T18:30:09Z</time>
  <course>49.83</course>
  <speed>0.0</speed>
  <fix>3d</fix>
</trkpt>
<trkpt lat="40.0728532" lon="-105.2309253">
  <ele>1585.87</ele>
  <time>2026-08-27T18:30:09Z</time>
  <course>318.52</course>
  <speed>0.02</speed>
  <fix>3d</fix>
</trkpt>
<trkpt lat="40.0728532" lon="-105.2309255">
  <ele>1585.79</ele>
  <time>2026-08-27T18:30:09Z</time>
  <course>49.37</course>
  <speed>0.0</speed>
  <fix>3d</fix>
</trkpt>
<trkpt lat="40.0728532" lon="-105.2309253">
  <ele>1585.87</ele>
  <time>2026-08-27T18:30:09Z</time>
  <course>318.52</course>
  <speed>0.02</speed>
  <fix>3d</fix>
</trkpt>
<trkpt lat="40.0728532" lon="-105.2309255">
  <ele>1585.79</ele>
  <time>2026-08-27T18:30:09Z</time>
  <course>49.36</course>
  <speed>0.0</speed>
  <fix>3d</fix>
</trkpt>
<trkpt lat="40.0728532" lon="-105.2309253">
  <ele>1585.87</ele>
  <time>2026-08-27T18:30:09Z</time>
  <course>318.53</course>
  <speed>0.02</speed>
  <fix>3d</fix>
</trkpt>
<trkpt lat="40.0728532" lon="-105.2309255">
  <ele>1585.79</ele>
  <time>2026-08-27T18:30:09Z</time>
  <course>42.06</course>
  <speed>0.0</speed>
  <fix>3d</fix>
</trkpt>
<trkpt lat="40.0728532" lon="-105.2309253">
  <ele>1585.87</ele>
  <time>2026-08-27T18:30:09Z</time>
  <course>318.53</course>
  <speed>0.02</speed>
  <fix>3d</fix>
</trkpt>
<trkpt lat="40.0728532" lon="-105.2309255">
  <ele>1585.79</ele>
  <time>2026-08-27T18:30:09Z</time>
  <course>204.96</course>
  <speed>0.0</speed>
  <fix>3d</fix>
</trkpt>
<trkpt lat="40.0728532" lon="-105.2309253">
  <ele>1585.87</ele>
  <time>2026-08-27T18:30:09Z</time>
  <course>318.53</course>
  <speed>0.02</speed>
  <fix>3d</fix>
</trkpt>
<trkpt lat="40.0728532" lon="-105.2309255">
  <ele>1585.79</ele>
  <time>2026-08-27T18:30:09Z</time>
  <course>172.35</course>
  <speed>0.0</speed>
  <fix>3d</fix>
</trkpt>
<trkpt lat="40.0728532" lon="-105.2309253">
  <ele>1585.88</ele>
  <time>2026-08-27T18:30:09Z</time>
  <course>318.53</course>
  <speed>0.02</speed>
  <fix>3d</fix>
</trkpt>
<trkpt lat="40.0728532" lon="-105.2309255">
  <ele>1585.79</ele>
  <time>2026-08-27T18:30:09Z</time>
  <course>52.23</course>
  <speed>0.0</speed>
  <fix>3d</fix>
</trkpt>
<trkpt lat="40.0728532" lon="-105.2309253">
  <ele>1585.88</ele>
  <time>2026-08-27T18:30:09Z</time>
  <course>318.53</course>
  <speed>0.02</speed>
  <fix>3d</fix>
</trkpt>
<trkpt lat="40.0728532" lon="-105.2309255">
  <ele>1585.79</ele>
  <time>2026-08-27T18:30:09Z</time>
  <course>44.78</course>
  <speed>0.0</speed>
  <fix>3d</fix>
</trkpt>
<trkpt lat="40.0728532" lon="-105.2309253">
  <ele>1585.88</ele>
  <time>2026-08-27T18:30:09Z</time>
  <course>318.52</course>
  <speed>0.02</speed>
  <fix>3d</fix>
</trkpt>
<trkpt lat="40.0728532" lon="-105.2309255">
  <ele>1585.79</ele>
  <time>2026-08-27T18:30:09Z</time>
  <course>49.8</course>
  <speed>0.0</speed>
  <fix>3d</fix>
</trkpt>
<trkpt lat="40.0728532" lon="-105.2309253">
  <ele>1585.88</ele>
  <time>2026-08-27T18:30:09Z</time>
  <course>318.52</course>
  <speed>0.02</speed>
  <fix>3d</fix>
</trkpt>
<trkpt lat="40.0728532" lon="-105.2309255">
  <ele>1585.79</ele>
  <time>2026-08-27T18:30:09Z</time>
  <course>50.27</course>
  <speed>0.0</speed>
  <fix>3d</fix>
</trkpt>
<trkpt lat="40.0728532" lon="-105.2309253">
  <ele>1585.88</ele>
  <time>2026-08-27T18:30:09Z</time>
  <course>318.51</course>
  <speed>0.02</speed>
  <fix>3d</fix>
</trkpt>
<trkpt lat="40.0728532" lon="-105.2309255">
  <ele>1585.79</ele>
  <time>2026-08-27T18:30:09Z</time>
  <course>49.34</course>
  <speed>0.0</speed>
  <fix>3d</fix>
</trkpt>
<trkpt lat="40.0728532" lon="-105.2309253">
  <ele>1585.88</ele>
  <time>2026-08-27T18:30:09Z</time>
  <course>318.5</course>
  <speed>0.02</speed>
  <fix>3d</fix>
</trkpt>
<trkpt lat="40.0728532" lon="-105.2309255">
  <ele>1585.79</ele>
  <time>2026-08-27T18:30:09Z</time>
  <course>49.25</course>
  <speed>0.0</speed>
  <fix>3d</fix>
</trkpt>
<trkpt lat="40.0728532" lon="-105.2309253">
  <ele>1585.88</ele>
  <time>2026-08-27T18:30:09Z</time>
  <course>318.49</course>
  <speed>0.02</speed>
  <fix>3d</fix>
</trkpt>
<trkpt lat="40.0728532" lon="-105.2309255">
  <ele>1585.79</ele>
  <time>2026-08-27T18:30:09Z</time>
  <course>49.25</course>
  <speed>0.0</speed>
  <fix>3d</fix>
</trkpt>
<trkpt lat="40.0728532" lon="-105.2309253">
  <ele>1585.87</ele>
  <time>2026-08-27T18:30:09Z</time>
  <course>318.48</course>
  <speed>0.02</speed>
  <fix>3d</fix>
</trkpt>
<trkpt lat="40.0728532" lon="-105.2309255">
  <ele>1585.79</ele>
  <time>2026-08-27T18:30:09Z</time>
  <course>49.11</course>
  <speed>0.0</speed>
  <fix>3d</fix>
</trkpt>
<trkpt lat="40.0728532" lon="-105.2309253">
  <ele>1585.87</ele>
  <time>2026-08-27T18:30:09Z</time>
  <course>318.46</course>
  <speed>0.02</speed>
  <fix>3d</fix>
</trkpt>
<trkpt lat="40.0728532" lon="-105.2309255">
  <ele>1585.79</ele>
  <time>2026-08-27T18:30:09Z</time>
  <course>224.17</course>
  <speed>0.0</speed>
  <fix>3d</fix>
</trkpt>
<trkpt lat="40.0728532" lon="-105.2309253">
  <ele>1585.87</ele>
  <time>2026-08-27T18:30:09Z</time>
  <course>318.45</course>
  <speed>0.02</speed>
  <fix>3d</fix>
</trkpt>
<trkpt lat="40.0728532" lon="-105.2309255">
  <ele>1585.79</ele>
  <time>2026-08-27T18:30:09Z</time>
  <course>224.52</course>
  <speed>0.0</speed>
  <fix>3d</fix>
</trkpt>
<trkpt lat="40.0728532" lon="-105.2309253">
  <ele>1585.87</ele>
  <time>2026-08-27T18:30:09Z</time>
  <course>318.43</course>
  <speed>0.02</speed>
  <fix>3d</fix>
</trkpt>
<trkpt lat="40.0728532" lon="-105.2309255">
  <ele>1585.79</ele>
  <time>2026-08-27T18:30:09Z</time>
  <course>67.68</course>
  <speed>0.0</speed>
  <fix>3d</fix>
</trkpt>
<trkpt lat="40.0728532" lon="-105.2309253">
  <ele>1585.87</ele>
  <time>2026-08-27T18:30:09Z</time>
  <course>318.41</course>
  <speed>0.02</speed>
  <fix>3d</fix>
</trkpt>
<trkpt lat="40.0728532" lon="-105.2309255">
  <ele>1585.79</ele>
  <time>2026-08-27T18:30:09Z</time>
  <course>48.25</course>
  <speed>0.0</speed>
  <fix>3d</fix>
</trkpt>
<trkpt lat="40.0728532" lon="-105.2309253">
  <ele>1585.87</ele>
  <time>2026-08-27T18:30:09Z</time>
  <course>318.39</course>
  <speed>0.02</speed>
  <fix>3d</fix>
</trkpt>
<trkpt lat="40.0728532" lon="-105.2309255">
  <ele>1585.79</ele>
  <time>2026-08-27T18:30:09Z</time>
  <course>51.42</course>
  <speed>0.0</speed>
  <fix>3d</fix>
</trkpt>
<trkpt lat="40.0728532" lon="-105.2309253">
  <ele>1585.87</ele>
  <time>2026-08-27T18:30:09Z</time>
  <course>318.36</course>
  <speed>0.02</speed>
  <fix>3d</fix>
</trkpt>
<trkpt lat="40.0728532" lon="-105.2309255">
  <ele>1585.79</ele>
  <time>2026-08-27T18:30:09Z</time>
  <course>51.97</course>
  <speed>0.0</speed>
  <fix>3d</fix>
</trkpt>
<trkpt lat="40.0728532" lon="-105.2309253">
  <ele>1585.87</ele>
  <time>2026-08-27T18:30:09Z</time>
  <course>318.34</course>
  <speed>0.02</speed>
  <fix>3d</fix>
</trkpt>
<trkpt lat="40.0728532" lon="-105.2309255">
  <ele>1585.79</ele>
  <time>2026-08-27T18:30:09Z</time>
  <course>50.73</course>
  <speed>0.0</speed>
  <fix>3d</fix>
</trkpt>
<trkpt lat="40.0728532" lon="-105.2309253">
  <ele>1585.87</ele>
  <time>2026-08-27T18:30:09Z</time>
  <course>318.31</course>
  <speed>0.02</speed>
  <fix>3d</fix>
</trkpt>
<trkpt lat="40.0728532" lon="-105.2309255">
  <ele>1585.79</ele>
  <time>2026-08-27T18:30:09Z</time>
  <course>224.17</course>
  <speed>0.0</speed>
  <fix>3d</fix>
</trkpt>
<trkpt lat="40.0728532" lon="-105.2309253">
  <ele>1585.87</ele>
  <time>2026-08-27T18:30:09Z</time>
  <course>318.29</course>
  <speed>0.02</speed>
  <fix>3d</fix>
</trkpt>
<trkpt lat="40.0728532" lon="-105.2309255">
  <ele>1585.79</ele>
  <time>2026-08-27T18:30:09Z</time>
  <course>224.23</course>
  <speed>0.0</speed>
  <fix>3d</fix>
</trkpt>
<trkpt lat="40.0728532" lon="-105.2309253">
  <ele>1585.87</ele>
  <time>2026-08-27T18:30:09Z</time>
  <course>318.26</course>
  <speed>0.02</speed>
  <fix>3d</fix>
</trkpt>
<trkpt lat="40.0728532" lon="-105.2309255">
  <ele>1585.79</ele>
  <time>2026-08-27T18:30:09Z</time>
  <course>53.97</course>
  <speed>0.0</speed>
  <fix>3d</fix>
</trkpt>
<trkpt lat="40.0728532" lon="-105.2309253">
  <ele>1585.87</ele>
  <time>2026-08-27T18:30:09Z</time>
  <course>318.23</course>
  <speed>0.02</speed>
  <fix>3d</fix>
</trkpt>
<trkpt lat="40.0728532" lon="-105.2309255">
  <ele>1585.79</ele>
  <time>2026-08-27T18:30:09Z</time>
  <course>49.55</course>
  <speed>0.0</speed>
  <fix>3d</fix>
</trkpt>
<trkpt lat="40.0728532" lon="-105.2309253">
  <ele>1585.87</ele>
  <time>2026-08-27T18:30:09Z</time>
  <course>318.2</course>
  <speed>0.02</speed>
  <fix>3d</fix>
</trkpt>
<trkpt lat="40.0728532" lon="-105.2309255">
  <ele>1585.79</ele>
  <time>2026-08-27T18:30:09Z</time>
  <course>129.17</course>
  <speed>0.0</speed>
  <fix>3d</fix>
</trkpt>
<trkpt lat="40.0728532" lon="-105.2309253">
  <ele>1585.87</ele>
  <time>2026-08-27T18:30:09Z</time>
  <course>318.17</course>
  <speed>0.02</speed>
  <fix>3d</fix>
</trkpt>
<trkpt lat="40.0728532" lon="-105.2309255">
  <ele>1585.79</ele>
  <time>2026-08-27T18:30:09Z</time>
  <course>223.88</course>
  <speed>0.0</speed>
  <fix>3d</fix>
</trkpt>
<trkpt lat="40.0728532" lon="-105.2309253">
  <ele>1585.87</ele>
  <time>2026-08-27T18:30:09Z</time>
  <course>318.14</course>
  <speed>0.02</speed>
  <fix>3d</fix>
</trkpt>
<trkpt lat="40.0728532" lon="-105.2309255">
  <ele>1585.79</ele>
  <time>2026-08-27T18:30:09Z</time>
  <course>223.79</course>
  <speed>0.0</speed>
  <fix>3d</fix>
</trkpt>
<trkpt lat="40.0728532" lon="-105.2309253">
  <ele>1585.88</ele>
  <time>2026-08-27T18:30:09Z</time>
  <course>318.11</course>
  <speed>0.02</speed>
  <fix>3d</fix>
</trkpt>
<trkpt lat="40.0728532" lon="-105.2309255">
  <ele>1585.79</ele>
  <time>2026-08-27T18:30:09Z</time>
  <course>53.46</course>
  <speed>0.0</speed>
  <fix>3d</fix>
</trkpt>
<trkpt lat="40.0728532" lon="-105.2309253">
  <ele>1585.88</ele>
  <time>2026-08-27T18:30:09Z</time>
  <course>318.08</course>
  <speed>0.02</speed>
  <fix>3d</fix>
</trkpt>
<trkpt lat="40.0728532" lon="-105.2309255">
  <ele>1585.79</ele>
  <time>2026-08-27T18:30:09Z</time>
  <course>57.39</course>
  <speed>0.0</speed>
  <fix>3d</fix>
</trkpt>
<trkpt lat="40.0728532" lon="-105.2309253">
  <ele>1585.88</ele>
  <time>2026-08-27T18:30:09Z</time>
  <course>318.05</course>
  <speed>0.02</speed>
  <fix>3d</fix>
</trkpt>
<trkpt lat="40.0728532" lon="-105.2309255">
  <ele>1585.79</ele>
  <time>2026-08-27T18:30:09Z</time>
  <course>211.7</course>
  <speed>0.0</speed>
  <fix>3d</fix>
</trkpt>
<trkpt lat="40.0728532" lon="-105.2309253">
  <ele>1585.87</ele>
  <time>2026-08-27T18:30:09Z</time>
  <course>318.02</course>
  <speed>0.02</speed>
  <fix>3d</fix>
</trkpt>
<trkpt lat="40.0728532" lon="-105.2309255">
  <ele>1585.79</ele>
  <time>2026-08-27T18:30:09Z</time>
  <course>206.18</course>
  <speed>0.0</speed>
  <fix>3d</fix>
</trkpt>
<trkpt lat="40.0728532" lon="-105.2309253">
  <ele>1585.87</ele>
  <time>2026-08-27T18:30:09Z</time>
  <course>317.99</course>
  <speed>0.02</speed>
  <fix>3d</fix>
</trkpt>
<trkpt lat="40.0728532" lon="-105.2309255">
  <ele>1585.79</ele>
  <time>2026-08-27T18:30:09Z</time>
  <course>68.34</course>
  <speed>0.0</speed>
  <fix>3d</fix>
</trkpt>
<trkpt lat="40.0728532" lon="-105.2309253">
  <ele>1585.87</ele>
  <time>2026-08-27T18:30:09Z</time>
  <course>317.95</course>
  <speed>0.02</speed>
  <fix>3d</fix>
</trkpt>
<trkpt lat="40.0728532" lon="-105.2309255">
  <ele>1585.79</ele>
  <time>2026-08-27T18:30:09Z</time>
  <course>44.22</course>
  <speed>0.0</speed>
  <fix>3d</fix>
</trkpt>
<trkpt lat="40.0728532" lon="-105.2309253">
  <ele>1585.87</ele>
  <time>2026-08-27T18:30:09Z</time>
  <course>317.92</course>
  <speed>0.02</speed>
  <fix>3d</fix>
</trkpt>
<trkpt lat="40.0728532" lon="-105.2309255">
  <ele>1585.79</ele>
  <time>2026-08-27T18:30:09Z</time>
  <course>5.53</course>
  <speed>0.0</speed>
  <fix>3d</fix>
</trkpt>
<trkpt lat="40.0728532" lon="-105.2309253">
  <ele>1585.87</ele>
  <time>2026-08-27T18:30:09Z</time>
  <course>317.89</course>
  <speed>0.02</speed>
  <fix>3d</fix>
</trkpt>
<trkpt lat="40.0728532" lon="-105.2309255">
  <ele>1585.79</ele>
  <time>2026-08-27T18:30:09Z</time>
  <course>215.04</course>
  <speed>0.0</speed>
  <fix>3d</fix>
</trkpt>
<trkpt lat="40.0728532" lon="-105.2309253">
  <ele>1585.87</ele>
  <time>2026-08-27T18:30:09Z</time>
  <course>317.86</course>
  <speed>0.02</speed>
  <fix>3d</fix>
</trkpt>
<trkpt lat="40.0728532" lon="-105.2309255">
  <ele>1585.79</ele>
  <time>2026-08-27T18:30:09Z</time>
  <course>222.69</course>
  <speed>0.0</speed>
  <fix>3d</fix>
</trkpt>
<trkpt lat="40.0728532" lon="-105.2309253">
  <ele>1585.87</ele>
  <time>2026-08-27T18:30:09Z</time>
  <course>317.83</course>
  <speed>0.02</speed>
  <fix>3d</fix>
</trkpt>
<trkpt lat="40.0728532" lon="-105.2309255">
  <ele>1585.79</ele>
  <time>2026-08-27T18:30:09Z</time>
  <course>223.34</course>
  <speed>0.0</speed>
  <fix>3d</fix>
</trkpt>
<trkpt lat="40.0728532" lon="-105.2309253">
  <ele>1585.87</ele>
  <time>2026-08-27T18:30:09Z</time>
  <course>317.8</course>
  <speed>0.02</speed>
  <fix>3d</fix>
</trkpt>
<trkpt lat="40.0728532" lon="-105.2309255">
  <ele>1585.79</ele>
  <time>2026-08-27T18:30:09Z</time>
  <course>74.65</course>
  <speed>0.0</speed>
  <fix>3d</fix>
</trkpt>
<trkpt lat="40.0728532" lon="-105.2309253">
  <ele>1585.87</ele>
  <time>2026-08-27T18:30:09Z</time>
  <course>317.77</course>
  <speed>0.02</speed>
  <fix>3d</fix>
</trkpt>
<trkpt lat="40.0728532" lon="-105.2309255">
  <ele>1585.79</ele>
  <time>2026-08-27T18:30:09Z</time>
  <course>56.59</course>
  <speed>0.0</speed>
  <fix>3d</fix>
</trkpt>
<trkpt lat="40.0728532" lon="-105.2309253">
  <ele>1585.87</ele>
  <time>2026-08-27T18:30:09Z</time>
  <course>317.74</course>
  <speed>0.02</speed>
  <fix>3d</fix>
</trkpt>
<trkpt lat="40.0728532" lon="-105.2309255">
  <ele>1585.79</ele>
  <time>2026-08-27T18:30:09Z</time>
  <course>219.12</course>
  <speed>0.0</speed>
  <fix>3d</fix>
</trkpt>
<trkpt lat="40.0728532" lon="-105.2309253">
  <ele>1585.86</ele>
  <time>2026-08-27T18:30:09Z</time>
  <course>317.71</course>
  <speed>0.02</speed>
  <fix>3d</fix>
</trkpt>
<trkpt lat="40.0728532" lon="-105.2309255">
  <ele>1585.79</ele>
  <time>2026-08-27T18:30:09Z</time>
  <course>222.79</course>
  <speed>0.0</speed>
  <fix>3d</fix>
</trkpt>
<trkpt lat="40.0728532" lon="-105.2309253">
  <ele>1585.86</ele>
  <time>2026-08-27T18:30:09Z</time>
  <course>317.68</course>
  <speed>0.02</speed>
  <fix>3d</fix>
</trkpt>
<trkpt lat="40.0728532" lon="-105.2309255">
  <ele>1585.79</ele>
  <time>2026-08-27T18:30:09Z</time>
  <course>222.4</course>
  <speed>0.0</speed>
  <fix>3d</fix>
</trkpt>
<trkpt lat="40.0728532" lon="-105.2309253">
  <ele>1585.86</ele>
  <time>2026-08-27T18:30:09Z</time>
  <course>317.65</course>
  <speed>0.02</speed>
  <fix>3d</fix>
</trkpt>
<trkpt lat="40.0728532" lon="-105.2309255">
  <ele>1585.79</ele>
  <time>2026-08-27T18:30:09Z</time>
  <course>53.5</course>
  <speed>0.0</speed>
  <fix>3d</fix>
</trkpt>
<trkpt lat="40.0728532" lon="-105.2309253">
  <ele>1585.86</ele>
  <time>2026-08-27T18:30:09Z</time>
  <course>317.62</course>
  <speed>0.02</speed>
  <fix>3d</fix>
</trkpt>
<trkpt lat="40.0728532" lon="-105.2309255">
  <ele>1585.79</ele>
  <time>2026-08-27T18:30:09Z</time>
  <course>187.2</course>
  <speed>0.0</speed>
  <fix>3d</fix>
</trkpt>
<trkpt lat="40.0728532" lon="-105.2309253">
  <ele>1585.86</ele>
  <time>2026-08-27T18:30:09Z</time>
  <course>317.59</course>
  <speed>0.02</speed>
  <fix>3d</fix>
</trkpt>
<trkpt lat="40.0728532" lon="-105.2309255">
  <ele>1585.79</ele>
  <time>2026-08-27T18:30:09Z</time>
  <course>222.43</course>
  <speed>0.0</speed>
  <fix>3d</fix>
</trkpt>
<trkpt lat="40.0728532" lon="-105.2309253">
  <ele>1585.87</ele>
  <time>2026-08-27T18:30:09Z</time>
  <course>317.57</course>
  <speed>0.02</speed>
  <fix>3d</fix>
</trkpt>
<trkpt lat="40.0728532" lon="-105.2309255">
  <ele>1585.79</ele>
  <time>2026-08-27T18:30:09Z</time>
  <course>222.7</course>
  <speed>0.0</speed>
  <fix>3d</fix>
</trkpt>
<trkpt lat="40.0728532" lon="-105.2309253">
  <ele>1585.87</ele>
  <time>2026-08-27T18:30:09Z</time>
  <course>317.54</course>
  <speed>0.02</speed>
  <fix>3d</fix>
</trkpt>
<trkpt lat="40.0728532" lon="-105.2309255">
  <ele>1585.79</ele>
  <time>2026-08-27T18:30:09Z</time>
  <course>220.6</course>
  <speed>0.0</speed>
  <fix>3d</fix>
</trkpt>
<trkpt lat="40.0728532" lon="-105.2309253">
  <ele>1585.87</ele>
  <time>2026-08-27T18:30:09Z</time>
  <course>317.51</course>
  <speed>0.02</speed>
  <fix>3d</fix>
</trkpt>
<trkpt lat="40.0728532" lon="-105.2309255">
  <ele>1585.79</ele>
  <time>2026-08-27T18:30:09Z</time>
  <course>57.02</course>
  <speed>0.0</speed>
  <fix>3d</fix>
</trkpt>
<trkpt lat="40.0728532" lon="-105.2309253">
  <ele>1585.87</ele>
  <time>2026-08-27T18:30:09Z</time>
  <course>317.48</course>
  <speed>0.02</speed>
  <fix>3d</fix>
</trkpt>
<trkpt lat="40.0728532" lon="-105.2309255">
  <ele>1585.79</ele>
  <time>2026-08-27T18:30:09Z</time>
  <course>212.91</course>
  <speed>0.0</speed>
  <fix>3d</fix>
</trkpt>
<trkpt lat="40.0728532" lon="-105.2309253">
  <ele>1585.87</ele>
  <time>2026-08-27T18:30:09Z</time>
  <course>317.45</course>
  <speed>0.02</speed>
  <fix>3d</fix>
</trkpt>
<trkpt lat="40.0728532" lon="-105.2309255">
  <ele>1585.79</ele>
  <time>2026-08-27T18:30:09Z</time>
  <course>222.21</course>
  <speed>0.0</speed>
  <fix>3d</fix>
</trkpt>
<trkpt lat="40.0728532" lon="-105.2309253">
  <ele>1585.87</ele>
  <time>2026-08-27T18:30:09Z</time>
  <course>317.42</course>
  <speed>0.02</speed>
  <fix>3d</fix>
</trkpt>
<trkpt lat="40.0728532" lon="-105.2309255">
  <ele>1585.79</ele>
  <time>2026-08-27T18:30:09Z</time>
  <course>222.35</course>
  <speed>0.0</speed>
  <fix>3d</fix>
</trkpt>
<trkpt lat="40.0728532" lon="-105.2309253">
  <ele>1585.87</ele>
  <time>2026-08-27T18:30:09Z</time>
  <course>317.39</course>
  <speed>0.02</speed>
  <fix>3d</fix>
</trkpt>
<trkpt lat="40.0728532" lon="-105.2309255">
  <ele>1585.79</ele>
  <time>2026-08-27T18:30:09Z</time>
  <course>218.54</course>
  <speed>0.0</speed>
  <fix>3d</fix>
</trkpt>
<trkpt lat="40.0728532" lon="-105.2309253">
  <ele>1585.87</ele>
  <time>2026-08-27T18:30:09Z</time>
  <course>317.36</course>
  <speed>0.02</speed>
  <fix>3d</fix>
</trkpt>
<trkpt lat="40.0728532" lon="-105.2309255">
  <ele>1585.79</ele>
  <time>2026-08-27T18:30:09Z</time>
  <course>76.98</course>
  <speed>0.0</speed>
  <fix>3d</fix>
</trkpt>
<trkpt lat="40.0728532" lon="-105.2309253">
  <ele>1585.87</ele>
  <time>2026-08-27T18:30:09Z</time>
  <course>317.34</course>
  <speed>0.02</speed>
  <fix>3d</fix>
</trkpt>
<trkpt lat="40.0728532" lon="-105.2309255">
  <ele>1585.79</ele>
  <time>2026-08-27T18:30:09Z</time>
  <course>215.3</course>
  <speed>0.0</speed>
  <fix>3d</fix>
</trkpt>
<trkpt lat="40.0728532" lon="-105.2309253">
  <ele>1585.87</ele>
  <time>2026-08-27T18:30:09Z</time>
  <course>317.31</course>
  <speed>0.02</speed>
  <fix>3d</fix>
</trkpt>
<trkpt lat="40.0728532" lon="-105.2309255">
  <ele>1585.79</ele>
  <time>2026-08-27T18:30:09Z</time>
  <course>220.7</course>
  <speed>0.0</speed>
  <fix>3d</fix>
</trkpt>
<trkpt lat="40.0728532" lon="-105.2309253">
  <ele>1585.87</ele>
  <time>2026-08-27T18:30:09Z</time>
  <course>317.28</course>
  <speed>0.02</speed>
  <fix>3d</fix>
</trkpt>
<trkpt lat="40.0728532" lon="-105.2309255">
  <ele>1585.79</ele>
  <time>2026-08-27T18:30:09Z</time>
  <course>221.82</course>
  <speed>0.0</speed>
  <fix>3d</fix>
</trkpt>
<trkpt lat="40.0728532" lon="-105.2309253">
  <ele>1585.87</ele>
  <time>2026-08-27T18:30:09Z</time>
  <course>317.25</course>
  <speed>0.02</speed>
  <fix>3d</fix>
</trkpt>
<trkpt lat="40.0728532" lon="-105.2309255">
  <ele>1585.79</ele>
  <time>2026-08-27T18:30:09Z</time>
  <course>221.01</course>
  <speed>0.0</speed>
  <fix>3d</fix>
</trkpt>
<trkpt lat="40.0728532" lon="-105.2309253">
  <ele>1585.88</ele>
  <time>2026-08-27T18:30:09Z</time>
  <course>317.22</course>
  <speed>0.02</speed>
  <fix>3d</fix>
</trkpt>
<trkpt lat="40.0728532" lon="-105.2309255">
  <ele>1585.79</ele>
  <time>2026-08-27T18:30:09Z</time>
  <course>91.71</course>
  <speed>0.0</speed>
  <fix>3d</fix>
</trkpt>
<trkpt lat="40.0728532" lon="-105.2309253">
  <ele>1585.88</ele>
  <time>2026-08-27T18:30:09Z</time>
  <course>317.19</course>
  <speed>0.02</speed>
  <fix>3d</fix>
</trkpt>
<trkpt lat="40.0728532" lon="-105.2309255">
  <ele>1585.79</ele>
  <time>2026-08-27T18:30:09Z</time>
  <course>212.95</course>
  <speed>0.0</speed>
  <fix>3d</fix>
</trkpt>
<trkpt lat="40.0728532" lon="-105.2309253">
  <ele>1585.88</ele>
  <time>2026-08-27T18:30:09Z</time>
  <course>317.16</course>
  <speed>0.02</speed>
  <fix>3d</fix>
</trkpt>
<trkpt lat="40.0728532" lon="-105.2309255">
  <ele>1585.79</ele>
  <time>2026-08-27T18:30:09Z</time>
  <course>238.43</course>
  <speed>0.0</speed>
  <fix>3d</fix>
</trkpt>
<trkpt lat="40.0728532" lon="-105.2309253">
  <ele>1585.88</ele>
  <time>2026-08-27T18:30:09Z</time>
  <course>317.13</course>
  <speed>0.02</speed>
  <fix>3d</fix>
</trkpt>
<trkpt lat="40.0728532" lon="-105.2309255">
  <ele>1585.79</ele>
  <time>2026-08-27T18:30:09Z</time>
  <course>237.27</course>
  <speed>0.0</speed>
  <fix>3d</fix>
</trkpt>
<trkpt lat="40.0728532" lon="-105.2309253">
  <ele>1585.88</ele>
  <time>2026-08-27T18:30:09Z</time>
  <course>317.11</course>
  <speed>0.02</speed>
  <fix>3d</fix>
</trkpt>
<trkpt lat="40.0728532" lon="-105.2309255">
  <ele>1585.79</ele>
  <time>2026-08-27T18:30:09Z</time>
  <course>227.81</course>
  <speed>0.0</speed>
  <fix>3d</fix>
</trkpt>
<trkpt lat="40.0728532" lon="-105.2309253">
  <ele>1585.88</ele>
  <time>2026-08-27T18:30:09Z</time>
  <course>317.08</course>
  <speed>0.02</speed>
  <fix>3d</fix>
</trkpt>
<trkpt lat="40.0728532" lon="-105.2309255">
  <ele>1585.79</ele>
  <time>2026-08-27T18:30:09Z</time>
  <course>149.33</course>
  <speed>0.0</speed>
  <fix>3d</fix>
</trkpt>
<trkpt lat="40.0728532" lon="-105.2309253">
  <ele>1585.88</ele>
  <time>2026-08-27T18:30:09Z</time>
  <course>317.05</course>
  <speed>0.02</speed>
  <fix>3d</fix>
</trkpt>
<trkpt lat="40.0728532" lon="-105.2309255">
  <ele>1585.79</ele>
  <time>2026-08-27T18:30:09Z</time>
  <course>217.1</course>
  <speed>0.0</speed>
  <fix>3d</fix>
</trkpt>
<trkpt lat="40.0728532" lon="-105.2309253">
  <ele>1585.87</ele>
  <time>2026-08-27T18:30:09Z</time>
  <course>317.02</course>
  <speed>0.02</speed>
  <fix>3d</fix>
</trkpt>
<trkpt lat="40.0728532" lon="-105.2309255">
  <ele>1585.79</ele>
  <time>2026-08-27T18:30:09Z</time>
  <course>221.95</course>
  <speed>0.0</speed>
  <fix>3d</fix>
</trkpt>
<trkpt lat="40.0728532" lon="-105.2309253">
  <ele>1585.87</ele>
  <time>2026-08-27T18:30:09Z</time>
  <course>316.99</course>
  <speed>0.02</speed>
  <fix>3d</fix>
</trkpt>
<trkpt lat="40.0728532" lon="-105.2309255">
  <ele>1585.79</ele>
  <time>2026-08-27T18:30:09Z</time>
  <course>221.66</course>
  <speed>0.0</speed>
  <fix>3d</fix>
</trkpt>
<trkpt lat="40.0728532" lon="-105.2309253">
  <ele>1585.87</ele>
  <time>2026-08-27T18:30:09Z</time>
  <course>316.97</course>
  <speed>0.02</speed>
  <fix>3d</fix>
</trkpt>
<trkpt lat="40.0728532" lon="-105.2309255">
  <ele>1585.79</ele>
  <time>2026-08-27T18:30:09Z</time>
  <course>220.84</course>
  <speed>0.0</speed>
  <fix>3d</fix>
</trkpt>
<trkpt lat="40.0728532" lon="-105.2309253">
  <ele>1585.87</ele>
  <time>2026-08-27T18:30:09Z</time>
  <course>316.94</course>
  <speed>0.02</speed>
  <fix>3d</fix>
</trkpt>
<trkpt lat="40.0728532" lon="-105.2309255">
  <ele>1585.79</ele>
  <time>2026-08-27T18:30:09Z</time>
  <course>197.71</course>
  <speed>0.0</speed>
  <fix>3d</fix>
</trkpt>
<trkpt lat="40.0728532" lon="-105.2309253">
  <ele>1585.88</ele>
  <time>2026-08-27T18:30:09Z</time>
  <course>316.91</course>
  <speed>0.02</speed>
  <fix>3d</fix>
</trkpt>
<trkpt lat="40.0728532" lon="-105.2309255">
  <ele>1585.79</ele>
  <time>2026-08-27T18:30:09Z</time>
  <course>217.88</course>
  <speed>0.0</speed>
  <fix>3d</fix>
</trkpt>
<trkpt lat="40.0728532" lon="-105.2309253">
  <ele>1585.88</ele>
  <time>2026-08-27T18:30:09Z</time>
  <course>316.88</course>
  <speed>0.02</speed>
  <fix>3d</fix>
</trkpt>
<trkpt lat="40.0728532" lon="-105.2309255">
  <ele>1585.79</ele>
  <time>2026-08-27T18:30:09Z</time>
  <course>220.77</course>
  <speed>0.0</speed>
  <fix>3d</fix>
</trkpt>
<trkpt lat="40.0728532" lon="-105.2309253">
  <ele>1585.88</ele>
  <time>2026-08-27T18:30:09Z</time>
  <course>316.86</course>
  <speed>0.02</speed>
  <fix>3d</fix>
</trkpt>
<trkpt lat="40.0728532" lon="-105.2309255">
  <ele>1585.79</ele>
  <time>2026-08-27T18:30:09Z</time>
  <course>221.32</course>
  <speed>0.0</speed>
  <fix>3d</fix>
</trkpt>
<trkpt lat="40.0728532" lon="-105.2309253">
  <ele>1585.88</ele>
  <time>2026-08-27T18:30:09Z</time>
  <course>316.83</course>
  <speed>0.02</speed>
  <fix>3d</fix>
</trkpt>
<trkpt lat="40.0728532" lon="-105.2309255">
  <ele>1585.79</ele>
  <time>2026-08-27T18:30:09Z</time>
  <course>220.76</course>
  <speed>0.0</speed>
  <fix>3d</fix>
</trkpt>
<trkpt lat="40.0728532" lon="-105.2309253">
  <ele>1585.88</ele>
  <time>2026-08-27T18:30:09Z</time>
  <course>316.8</course>
  <speed>0.02</speed>
  <fix>3d</fix>
</trkpt>
<trkpt lat="40.0728532" lon="-105.2309255">
  <ele>1585.79</ele>
  <time>2026-08-27T18:30:09Z</time>
  <course>207.76</course>
  <speed>0.0</speed>
  <fix>3d</fix>
</trkpt>
<trkpt lat="40.0728532" lon="-105.2309253">
  <ele>1585.88</ele>
  <time>2026-08-27T18:30:09Z</time>
  <course>316.77</course>
  <speed>0.02</speed>
  <fix>3d</fix>
</trkpt>
<trkpt lat="40.0728532" lon="-105.2309255">
  <ele>1585.79</ele>
  <time>2026-08-27T18:30:09Z</time>
  <course>217.57</course>
  <speed>0.0</speed>
  <fix>3d</fix>
</trkpt>
<trkpt lat="40.0728532" lon="-105.2309253">
  <ele>1585.87</ele>
  <time>2026-08-27T18:30:09Z</time>
  <course>316.75</course>
  <speed>0.02</speed>
  <fix>3d</fix>
</trkpt>
<trkpt lat="40.0728532" lon="-105.2309255">
  <ele>1585.79</ele>
  <time>2026-08-27T18:30:09Z</time>
  <course>218.63</course>
  <speed>0.0</speed>
  <fix>3d</fix>
</trkpt>
<trkpt lat="40.0728532" lon="-105.2309253">
  <ele>1585.87</ele>
  <time>2026-08-27T18:30:09Z</time>
  <course>316.72</course>
  <speed>0.02</speed>
  <fix>3d</fix>
</trkpt>
<trkpt lat="40.0728532" lon="-105.2309255">
  <ele>1585.79</ele>
  <time>2026-08-27T18:30:09Z</time>
  <course>220.97</course>
  <speed>0.0</speed>
  <fix>3d</fix>
</trkpt>
<trkpt lat="40.0728532" lon="-105.2309253">
  <ele>1585.87</ele>
  <time>2026-08-27T18:30:09Z</time>
  <course>316.69</course>
  <speed>0.02</speed>
  <fix>3d</fix>
</trkpt>
<trkpt lat="40.0728532" lon="-105.2309255">
  <ele>1585.79</ele>
  <time>2026-08-27T18:30:09Z</time>
  <course>221.01</course>
  <speed>0.0</speed>
  <fix>3d</fix>
</trkpt>
<trkpt lat="40.0728532" lon="-105.2309253">
  <ele>1585.87</ele>
  <time>2026-08-27T18:30:09Z</time>
  <course>316.66</course>
  <speed>0.02</speed>
  <fix>3d</fix>
</trkpt>
<trkpt lat="40.0728532" lon="-105.2309255">
  <ele>1585.79</ele>
  <time>2026-08-27T18:30:09Z</time>
  <course>218.25</course>
  <speed>0.0</speed>
  <fix>3d</fix>
</trkpt>
<trkpt lat="40.0728532" lon="-105.2309253">
  <ele>1585.87</ele>
  <time>2026-08-27T18:30:09Z</time>
  <course>316.64</course>
  <speed>0.02</speed>
  <fix>3d</fix>
</trkpt>
<trkpt lat="40.0728532" lon="-105.2309255">
  <ele>1585.79</ele>
  <time>2026-08-27T18:30:09Z</time>
  <course>214.09</course>
  <speed>0.0</speed>
  <fix>3d</fix>
</trkpt>
<trkpt lat="40.0728532" lon="-105.2309253">
  <ele>1585.86</ele>
  <time>2026-08-27T18:30:09Z</time>
  <course>316.61</course>
  <speed>0.02</speed>
  <fix>3d</fix>
</trkpt>
<trkpt lat="40.0728532" lon="-105.2309255">
  <ele>1585.79</ele>
  <time>2026-08-27T18:30:09Z</time>
  <course>218.25</course>
  <speed>0.0</speed>
  <fix>3d</fix>
</trkpt>
<trkpt lat="40.0728532" lon="-105.2309253">
  <ele>1585.86</ele>
  <time>2026-08-27T18:30:09Z</time>
  <course>316.58</course>
  <speed>0.02</speed>
  <fix>3d</fix>
</trkpt>
<trkpt lat="40.0728532" lon="-105.2309255">
  <ele>1585.79</ele>
  <time>2026-08-27T18:30:09Z</time>
  <course>220.58</course>
  <speed>0.0</speed>
  <fix>3d</fix>
</trkpt>
<trkpt lat="40.0728532" lon="-105.2309253">
  <ele>1585.86</ele>
  <time>2026-08-27T18:30:09Z</time>
  <course>316.56</course>
  <speed>0.02</speed>
  <fix>3d</fix>
</trkpt>
<trkpt lat="40.0728532" lon="-105.2309255">
  <ele>1585.79</ele>
  <time>2026-08-27T18:30:09Z</time>
  <course>220.75</course>
  <speed>0.0</speed>
  <fix>3d</fix>
</trkpt>
<trkpt lat="40.0728532" lon="-105.2309253">
  <ele>1585.86</ele>
  <time>2026-08-27T18:30:09Z</time>
  <course>316.53</course>
  <speed>0.02</speed>
  <fix>3d</fix>
</trkpt>
<trkpt lat="40.0728532" lon="-105.2309255">
  <ele>1585.79</ele>
  <time>2026-08-27T18:30:09Z</time>
  <course>219.34</course>
  <speed>0.0</speed>
  <fix>3d</fix>
</trkpt>
<trkpt lat="40.0728532" lon="-105.2309253">
  <ele>1585.86</ele>
  <time>2026-08-27T18:30:09Z</time>
  <course>316.5</course>
  <speed>0.02</speed>
  <fix>3d</fix>
</trkpt>
<trkpt lat="40.0728532" lon="-105.2309255">
  <ele>1585.79</ele>
  <time>2026-08-27T18:30:09Z</time>
  <course>212.97</course>
  <speed>0.0</speed>
  <fix>3d</fix>
</trkpt>
<trkpt lat="40.0728532" lon="-105.2309253">
  <ele>1585.86</ele>
  <time>2026-08-27T18:30:09Z</time>
  <course>316.47</course>
  <speed>0.02</speed>
  <fix>3d</fix>
</trkpt>
<trkpt lat="40.0728532" lon="-105.2309255">
  <ele>1585.79</ele>
  <time>2026-08-27T18:30:09Z</time>
  <course>217.81</course>
  <speed>0.0</speed>
  <fix>3d</fix>
</trkpt>
<trkpt lat="40.0728532" lon="-105.2309253">
  <ele>1585.86</ele>
  <time>2026-08-27T18:30:09Z</time>
  <course>316.45</course>
  <speed>0.02</speed>
  <fix>3d</fix>
</trkpt>
<trkpt lat="40.0728532" lon="-105.2309255">
  <ele>1585.79</ele>
  <time>2026-08-27T18:30:09Z</time>
  <course>220.11</course>
  <speed>0.0</speed>
  <fix>3d</fix>
</trkpt>
<trkpt lat="40.0728532" lon="-105.2309253">
  <ele>1585.86</ele>
  <time>2026-08-27T18:30:09Z</time>
  <course>316.42</course>
  <speed>0.02</speed>
  <fix>3d</fix>
</trkpt>
<trkpt lat="40.0728532" lon="-105.2309255">
  <ele>1585.79</ele>
  <time>2026-08-27T18:30:09Z</time>
  <course>220.42</course>
  <speed>0.0</speed>
  <fix>3d</fix>
</trkpt>
<trkpt lat="40.0728532" lon="-105.2309253">
  <ele>1585.86</ele>
  <time>2026-08-27T18:30:09Z</time>
  <course>316.39</course>
  <speed>0.02</speed>
  <fix>3d</fix>
</trkpt>
<trkpt lat="40.0728532" lon="-105.2309255">
  <ele>1585.79</ele>
  <time>2026-08-27T18:30:09Z</time>
  <course>218.33</course>
  <speed>0.0</speed>
  <fix>3d</fix>
</trkpt>
<trkpt lat="40.0728532" lon="-105.2309253">
  <ele>1585.86</ele>
  <time>2026-08-27T18:30:09Z</time>
  <course>316.37</course>
  <speed>0.02</speed>
  <fix>3d</fix>
</trkpt>
<trkpt lat="40.0728532" lon="-105.2309255">
  <ele>1585.79</ele>
  <time>2026-08-27T18:30:09Z</time>
  <course>200.31</course>
  <speed>0.0</speed>
  <fix>3d</fix>
</trkpt>
<trkpt lat="40.0728532" lon="-105.2309253">
  <ele>1585.86</ele>
  <time>2026-08-27T18:30:09Z</time>
  <course>316.35</course>
  <speed>0.02</speed>
  <fix>3d</fix>
</trkpt>
<trkpt lat="40.0728532" lon="-105.2309255">
  <ele>1585.79</ele>
  <time>2026-08-27T18:30:09Z</time>
  <course>217.01</course>
  <speed>0.0</speed>
  <fix>3d</fix>
</trkpt>
<trkpt lat="40.0728532" lon="-105.2309253">
  <ele>1585.86</ele>
  <time>2026-08-27T18:30:09Z</time>
  <course>316.34</course>
  <speed>0.02</speed>
  <fix>3d</fix>
</trkpt>
<trkpt lat="40.0728532" lon="-105.2309255">
  <ele>1585.79</ele>
  <time>2026-08-27T18:30:09Z</time>
  <course>220.39</course>
  <speed>0.0</speed>
  <fix>3d</fix>
</trkpt>
<trkpt lat="40.0728532" lon="-105.2309253">
  <ele>1585.86</ele>
  <time>2026-08-27T18:30:09Z</time>
  <course>316.33</course>
  <speed>0.02</speed>
  <fix>3d</fix>
</trkpt>
<trkpt lat="40.0728532" lon="-105.2309253">
  <ele>1585.86</ele>
  <time>2026-08-27T18:30:09Z</time>
  <course>316.31</course>
  <speed>0.02</speed>
  <fix>3d</fix>
</trkpt>
<trkpt lat="40.0728532" lon="-105.2309255">
  <ele>1585.79</ele>
  <time>2026-08-27T18:30:09Z</time>
  <course>218.7</course>
  <speed>0.0</speed>
  <fix>3d</fix>
</trkpt>
<trkpt lat="40.0728532" lon="-105.2309253">
  <ele>1585.86</ele>
  <time>2026-08-27T18:30:09Z</time>
  <course>316.3</course>
  <speed>0.02</speed>
  <fix>3d</fix>
</trkpt>
<trkpt lat="40.0728532" lon="-105.2309253">
  <ele>1585.85</ele>
  <time>2026-08-27T18:30:09Z</time>
  <course>316.26</course>
  <speed>0.02</speed>
  <fix>3d</fix>
</trkpt>
<trkpt lat="40.0728532" lon="-105.2309255">
  <ele>1585.79</ele>
  <time>2026-08-27T18:30:09Z</time>
  <course>218.59</course>
  <speed>0.0</speed>
  <fix>3d</fix>
</trkpt>
<trkpt lat="40.0728532" lon="-105.2309253">
  <ele>1585.85</ele>
  <time>2026-08-27T18:30:09Z</time>
  <course>316.25</course>
  <speed>0.02</speed>
  <fix>3d</fix>
</trkpt>
<trkpt lat="40.0728532" lon="-105.2309253">
  <ele>1585.87</ele>
  <time>2026-08-27T18:30:09Z</time>
  <course>316.2</course>
  <speed>0.02</speed>
  <fix>3d</fix>
</trkpt>
<trkpt lat="40.0728532" lon="-105.2309255">
  <ele>1585.79</ele>
  <time>2026-08-27T18:30:09Z</time>
  <course>219.02</course>
  <speed>0.0</speed>
  <fix>3d</fix>
</trkpt>
<trkpt lat="40.0728532" lon="-105.2309253">
  <ele>1585.88</ele>
  <time>2026-08-27T18:30:09Z</time>
  <course>316.19</course>
  <speed>0.02</speed>
  <fix>3d</fix>
</trkpt>
<trkpt lat="40.0728532" lon="-105.2309253">
  <ele>1585.92</ele>
  <time>2026-08-27T18:30:09Z</time>
  <course>316.12</course>
  <speed>0.02</speed>
  <fix>3d</fix>
</trkpt>
<trkpt lat="40.0728532" lon="-105.2309255">
  <ele>1585.82</ele>
  <time>2026-08-27T18:30:09Z</time>
  <course>219.14</course>
  <speed>0.0</speed>
  <fix>3d</fix>
</trkpt>
<trkpt lat="40.0728532" lon="-105.2309253">
  <ele>1585.93</ele>
  <time>2026-08-27T18:30:09Z</time>
  <course>316.1</course>
  <speed>0.02</speed>
  <fix>3d</fix>
</trkpt>
<trkpt lat="40.0728532" lon="-105.2309253">
  <ele>1585.97</ele>
  <time>2026-08-27T18:30:09Z</time>
  <course>316.03</course>
  <speed>0.02</speed>
  <fix>3d</fix>
</trkpt>
<trkpt lat="40.0728532" lon="-105.2309255">
  <ele>1585.87</ele>
  <time>2026-08-27T18:30:09Z</time>
  <course>326.74</course>
  <speed>0.0</speed>
  <fix>3d</fix>
</trkpt>
<trkpt lat="40.0728532" lon="-105.2309253">
  <ele>1585.98</ele>
  <time>2026-08-27T18:30:09Z</time>
  <course>315.88</course>
  <speed>0.02</speed>
  <fix>3d</fix>
</trkpt>
<trkpt lat="40.0728532" lon="-105.2309253">
  <ele>1586.09</ele>
  <time>2026-08-27T18:30:09Z</time>
  <course>308.22</course>
  <speed>0.053851648071345036</speed>
  <fix>3d</fix>
</trkpt>
<trkpt lat="40.0728532" lon="-105.2309255">
  <ele>1585.93</ele>
  <time>2026-08-27T18:30:09Z</time>
  <course>218.69</course>
  <speed>0.01</speed>
  <fix>3d</fix>
</trkpt>
<trkpt lat="40.0728532" lon="-105.2309253">
  <ele>1586.14</ele>
  <time>2026-08-27T18:30:09Z</time>
  <course>306.88</course>
  <speed>0.08944271909999159</speed>
  <fix>3d</fix>
</trkpt>
<trkpt lat="40.072853" lon="-105.2309255">
  <ele>1586.34</ele>
  <time>2026-08-27T18:30:09Z</time>
  <course>305.27</course>
  <speed>0.17</speed>
  <fix>3d</fix>
</trkpt>
<trkpt lat="40.0728531" lon="-105.2309256">
  <ele>1586.09</ele>
  <time>2026-08-27T18:30:09Z</time>
  <course>212.99</course>
  <speed>0.1</speed>
  <fix>3d</fix>
</trkpt>
<trkpt lat="40.072853" lon="-105.2309255">
  <ele>1586.37</ele>
  <time>2026-08-27T18:30:09Z</time>
  <course>305.31</course>
  <speed>0.1835755975068582</speed>
  <fix>3d</fix>
</trkpt>
<trkpt lat="40.0728527" lon="-105.2309257">
  <ele>1586.48</ele>
  <time>2026-08-27T18:30:09Z</time>
  <course>305.1</course>
  <speed>0.21470910553583888</speed>
  <fix>3d</fix>
</trkpt>
<trkpt lat="40.0728529" lon="-105.2309258">
  <ele>1586.3</ele>
  <time>2026-08-27T18:30:09Z</time>
  <course>210.28</course>
  <speed>0.19</speed>
  <fix>3d</fix>
</trkpt>
<trkpt lat="40.0728527" lon="-105.2309257">
  <ele>1586.49</ele>
  <time>2026-08-27T18:30:09Z</time>
  <course>305.06</course>
  <speed>0.21470910553583888</speed>
  <fix>3d</fix>
</trkpt>
<trkpt lat="40.0728523" lon="-105.230926">
  <ele>1586.59</ele>
  <time>2026-08-27T18:30:09Z</time>
  <course>304.27</course>
  <speed>0.23769728648009425</speed>
  <fix>3d</fix>
</trkpt>
<trkpt lat="40.0728526" lon="-105.2309261">
  <ele>1586.44</ele>
  <time>2026-08-27T18:30:09Z</time>
  <course>206.8</course>
  <speed>0.23</speed>
  <fix>3d</fix>
</trkpt>
<trkpt lat="40.0728523" lon="-105.230926">
  <ele>1586.61</ele>
  <time>2026-08-27T18:30:09Z</time>
  <course>304.16</course>
  <speed>0.24698178070456936</speed>
  <fix>3d</fix>
</trkpt>
<trkpt lat="40.0728519" lon="-105.2309262">
  <ele>1586.7</ele>
  <time>2026-08-27T18:30:09Z</time>
  <course>303.89</course>
  <speed>0.2529822128134704</speed>
  <fix>3d</fix>
</trkpt>
<trkpt lat="40.0728521" lon="-105.2309263">
  <ele>1586.54</ele>
  <time>2026-08-27T18:30:09Z</time>
  <course>202.65</course>
  <speed>0.26</speed>
  <fix>3d</fix>
</trkpt>
<trkpt lat="40.0728518" lon="-105.2309263">
  <ele>1586.71</ele>
  <time>2026-08-27T18:30:09Z</time>
  <course>303.88</course>
  <speed>0.2529822128134704</speed>
  <fix>3d</fix>
</trkpt>
<trkpt lat="40.0728514" lon="-105.2309264">
  <ele>1586.8</ele>
  <time>2026-08-27T18:30:09Z</time>
  <course>303.86</course>
  <speed>0.2570992026436488</speed>
  <fix>3d</fix>
</trkpt>
<trkpt lat="40.0728517" lon="-105.2309266">
  <ele>1586.63</ele>
  <time>2026-08-27T18:30:09Z</time>
  <course>198.3</course>
  <speed>0.27</speed>
  <fix>3d</fix>
</trkpt>
<trkpt lat="40.0728514" lon="-105.2309265">
  <ele>1586.82</ele>
  <time>2026-08-27T18:30:09Z</time>
  <course>303.87</course>
  <speed>0.26476404589747454</speed>
  <fix>3d</fix>
</trkpt>
<trkpt lat="40.072851" lon="-105.2309266">
  <ele>1586.9</ele>
  <time>2026-08-27T18:30:09Z</time>
  <course>303.92</course>
  <speed>0.26305892875931813</speed>
  <fix>3d</fix>
</trkpt>
<trkpt lat="40.0728512" lon="-105.2309267">
  <ele>1586.72</ele>
  <time>2026-08-27T18:30:09Z</time>
  <course>193.9</course>
  <speed>0.27</speed>
  <fix>3d</fix>
</trkpt>
<trkpt lat="40.072851" lon="-105.2309266">
  <ele>1586.9</ele>
  <time>2026-08-27T18:30:09Z</time>
  <course>303.92</course>
  <speed>0.26305892875931813</speed>
  <fix>3d</fix>
</trkpt>
<trkpt lat="40.0728505" lon="-105.2309267">
  <ele>1586.99</ele>
  <time>2026-08-27T18:30:09Z</time>
  <course>304.04</course>
  <speed>0.2707397274136177</speed>
  <fix>3d</fix>
</trkpt>
<trkpt lat="40.0728507" lon="-105.2309268">
  <ele>1586.81</ele>
  <time>2026-08-27T18:30:09Z</time>
  <course>189.64</course>
  <speed>0.27</speed>
  <fix>3d</fix>
</trkpt>
<trkpt lat="40.0728504" lon="-105.2309267">
  <ele>1587.01</ele>
  <time>2026-08-27T18:30:09Z</time>
  <course>304.05</course>
  <speed>0.27018512172212594</speed>
  <fix>3d</fix>
</trkpt>
<trkpt lat="40.07285" lon="-105.2309268">
  <ele>1587.1</ele>
  <time>2026-08-27T18:30:09Z</time>
  <course>304.18</course>
  <speed>0.28</speed>
  <fix>3d</fix>
</trkpt>
<trkpt lat="40.0728502" lon="-105.2309269">
  <ele>1586.9</ele>
  <time>2026-08-27T18:30:09Z</time>
  <course>185.6</course>
  <speed>0.28</speed>
  <fix>3d</fix>
</trkpt>
<trkpt lat="40.07285" lon="-105.2309268">
  <ele>1587.1</ele>
  <time>2026-08-27T18:30:09Z</time>
  <course>304.19</course>
  <speed>0.28</speed>
  <fix>3d</fix>
</trkpt>
<trkpt lat="40.0728495" lon="-105.2309268">
  <ele>1587.2</ele>
  <time>2026-08-27T18:30:10Z</time>
  <course>304.37</course>
  <speed>0.280178514522438</speed>
  <fix>3d</fix>
</trkpt>
<trkpt lat="40.0728497" lon="-105.230927">
  <ele>1587.01</ele>
  <time>2026-08-27T18:30:10Z</time>
  <course>181.8</course>
  <speed>0.28</speed>
  <fix>3d</fix>
</trkpt>
<trkpt lat="40.0728494" lon="-105.2309268">
  <ele>1587.23</ele>
  <time>2026-08-27T18:30:10Z</time>
  <course>304.4</course>
  <speed>0.280713376952364</speed>
  <fix>3d</fix>
</trkpt>
<trkpt lat="40.0728489" lon="-105.2309267">
  <ele>1587.32</ele>
  <time>2026-08-27T18:30:10Z</time>
  <course>304.58</course>
  <speed>0.291547594742265</speed>
  <fix>3d</fix>
</trkpt>
<trkpt lat="40.0728492" lon="-105.230927">
  <ele>1587.11</ele>
  <time>2026-08-27T18:30:10Z</time>
  <course>178.32</course>
  <speed>0.28</speed>
  <fix>3d</fix>
</trkpt>
<trkpt lat="40.0728488" lon="-105.2309267">
  <ele>1587.34</ele>
  <time>2026-08-27T18:30:10Z</time>
  <course>304.63</course>
  <speed>0.291547594742265</speed>
  <fix>3d</fix>
</trkpt>
<trkpt lat="40.0728484" lon="-105.2309267">
  <ele>1587.44</ele>
  <time>2026-08-27T18:30:10Z</time>
  <course>304.83</course>
  <speed>0.304138126514911</speed>
  <fix>3d</fix>
</trkpt>
<trkpt lat="40.0728486" lon="-105.230927">
  <ele>1587.22</ele>
  <time>2026-08-27T18:30:10Z</time>
  <course>175.13</course>
  <speed>0.29</speed>
  <fix>3d</fix>
</trkpt>
<trkpt lat="40.0728484" lon="-105.2309267">
  <ele>1587.44</ele>
  <time>2026-08-27T18:30:10Z</time>
  <course>304.84</course>
  <speed>0.304138126514911</speed>
  <fix>3d</fix>
</trkpt>
<trkpt lat="40.0728478" lon="-105.2309267">
  <ele>1587.56</ele>
  <time>2026-08-27T18:30:10Z</time>
  <course>305.1</course>
  <speed>0.3059411708155671</speed>
  <fix>3d</fix>
</trkpt>
<trkpt lat="40.0728481" lon="-105.2309269">
  <ele>1587.33</ele>
  <time>2026-08-27T18:30:10Z</time>
  <course>172.2</course>
  <speed>0.3</speed>
  <fix>3d</fix>
</trkpt>
<trkpt lat="40.0728477" lon="-105.2309267">
  <ele>1587.58</ele>
  <time>2026-08-27T18:30:10Z</time>
  <course>305.17</course>
  <speed>0.3080584360149873</speed>
  <fix>3d</fix>
</trkpt>
<trkpt lat="40.0728473" lon="-105.2309265">
  <ele>1587.68</ele>
  <time>2026-08-27T18:30:10Z</time>
  <course>305.41</course>
  <speed>0.32015621187164245</speed>
  <fix>3d</fix>
</trkpt>
<trkpt lat="40.0728476" lon="-105.2309268">
  <ele>1587.45</ele>
  <time>2026-08-27T18:30:10Z</time>
  <course>169.61</course>
  <speed>0.31</speed>
  <fix>3d</fix>
</trkpt>
<trkpt lat="40.0728472" lon="-105.2309265">
  <ele>1587.7</ele>
  <time>2026-08-27T18:30:10Z</time>
  <course>305.46</course>
  <speed>0.32015621187164245</speed>
  <fix>3d</fix>
</trkpt>
<trkpt lat="40.0728467" lon="-105.2309264">
  <ele>1587.8</ele>
  <time>2026-08-27T18:30:10Z</time>
  <course>305.72</course>
  <speed>0.32280024783137945</speed>
  <fix>3d</fix>
</trkpt>
<trkpt lat="40.0728471" lon="-105.2309267">
  <ele>1587.57</ele>
  <time>2026-08-27T18:30:10Z</time>
  <course>167.35</course>
  <speed>0.31</speed>
  <fix>3d</fix>
</trkpt>
<trkpt lat="40.0728467" lon="-105.2309264">
  <ele>1587.8</ele>
  <time>2026-08-27T18:30:10Z</time>
  <course>305.72</course>
  <speed>0.32280024783137945</speed>
  <fix>3d</fix>
</trkpt>
<trkpt lat="40.0728461" lon="-105.2309262">
  <ele>1587.92</ele>
  <time>2026-08-27T18:30:10Z</time>
  <course>306.01</course>
  <speed>0.33837848631377265</speed>
  <fix>3d</fix>
</trkpt>
<trkpt lat="40.0728465" lon="-105.2309265">
  <ele>1587.69</ele>
  <time>2026-08-27T18:30:10Z</time>
  <course>165.33</course>
  <speed>0.32</speed>
  <fix>3d</fix>
</trkpt>
<trkpt lat="40.072846" lon="-105.2309261">
  <ele>1587.94</ele>
  <time>2026-08-27T18:30:10Z</time>
  <course>306.06</course>
  <speed>0.33837848631377265</speed>
  <fix>3d</fix>
</trkpt>
<trkpt lat="40.0728456" lon="-105.230926">
  <ele>1588.04</ele>
  <time>2026-08-27T18:30:10Z</time>
  <course>306.28</course>
  <speed>0.3417601498127012</speed>
  <fix>3d</fix>
</trkpt>
<trkpt lat="40.0728459" lon="-105.2309262">
  <ele>1587.81</ele>
  <time>2026-08-27T18:30:10Z</time>
  <course>163.53</course>
  <speed>0.33</speed>
  <fix>3d</fix>
</trkpt>
<trkpt lat="40.0728455" lon="-105.230926">
  <ele>1588.04</ele>
  <time>2026-08-27T18:30:10Z</time>
  <course>306.29</course>
  <speed>0.3417601498127012</speed>
  <fix>3d</fix>
</trkpt>
<trkpt lat="40.072845" lon="-105.2309257">
  <ele>1588.16</ele>
  <time>2026-08-27T18:30:10Z</time>
  <course>306.58</course>
  <speed>0.354682957019364</speed>
  <fix>3d</fix>
</trkpt>
<trkpt lat="40.0728453" lon="-105.2309261">
  <ele>1587.92</ele>
  <time>2026-08-27T18:30:10Z</time>
  <course>161.99</course>
  <speed>0.34</speed>
  <fix>3d</fix>
</trkpt>
<trkpt lat="40.0728449" lon="-105.2309257">
  <ele>1588.17</ele>
  <time>2026-08-27T18:30:10Z</time>
  <course>306.62</course>
  <speed>0.354682957019364</speed>
  <fix>3d</fix>
</trkpt>
<trkpt lat="40.0728444" lon="-105.2309254">
  <ele>1588.28</ele>
  <time>2026-08-27T18:30:10Z</time>
  <course>306.84</course>
  <speed>0.3584689665786984</speed>
  <fix>3d</fix>
</trkpt>
<trkpt lat="40.0728448" lon="-105.2309258">
  <ele>1588.05</ele>
  <time>2026-08-27T18:30:10Z</time>
  <course>160.64</course>
  <speed>0.35</speed>
  <fix>3d</fix>
</trkpt>
<trkpt lat="40.0728443" lon="-105.2309254">
  <ele>1588.3</ele>
  <time>2026-08-27T18:30:10Z</time>
  <course>306.89</course>
  <speed>0.3584689665786984</speed>
  <fix>3d</fix>
</trkpt>
<trkpt lat="40.0728438" lon="-105.2309252">
  <ele>1588.41</ele>
  <time>2026-08-27T18:30:10Z</time>
  <course>307.11</course>
  <speed>0.3716180835212409</speed>
  <fix>3d</fix>
</trkpt>
<trkpt lat="40.0728441" lon="-105.2309255">
  <ele>1588.17</ele>
  <time>2026-08-27T18:30:10Z</time>
  <course>159.43</course>
  <speed>0.35</speed>
  <fix>3d</fix>
</trkpt>
<trkpt lat="40.0728437" lon="-105.2309251">
  <ele>1588.43</ele>
  <time>2026-08-27T18:30:10Z</time>
  <course>307.16</course>
  <speed>0.3716180835212409</speed>
  <fix>3d</fix>
</trkpt>
<trkpt lat="40.0728432" lon="-105.2309248">
  <ele>1588.53</ele>
  <time>2026-08-27T18:30:10Z</time>
  <course>305.32</course>
  <speed>0.3757658845611187</speed>
  <fix>3d</fix>
</trkpt>
<trkpt lat="40.0728436" lon="-105.2309252">
  <ele>1588.3</ele>
  <time>2026-08-27T18:30:10Z</time>
  <course>158.32</course>
  <speed>0.36</speed>
  <fix>3d</fix>
</trkpt>
<trkpt lat="40.0728431" lon="-105.2309248">
  <ele>1588.55</ele>
  <time>2026-08-27T18:30:10Z</time>
  <course>305.03</course>
  <speed>0.3757658845611187</speed>
  <fix>3d</fix>
</trkpt>
<trkpt lat="40.0728426" lon="-105.2309245">
  <ele>1588.66</ele>
  <time>2026-08-27T18:30:10Z</time>
  <course>304.36</course>
  <speed>0.38910152916687435</speed>
  <fix>3d</fix>
</trkpt>
<trkpt lat="40.0728429" lon="-105.2309248">
  <ele>1588.42</ele>
  <time>2026-08-27T18:30:10Z</time>
  <course>157.43</course>
  <speed>0.37</speed>
  <fix>3d</fix>
</trkpt>
<trkpt lat="40.0728425" lon="-105.2309245">
  <ele>1588.66</ele>
  <time>2026-08-27T18:30:10Z</time>
  <course>304.36</course>
  <speed>0.38910152916687435</speed>
  <fix>3d</fix>
</trkpt>
<trkpt lat="40.0728419" lon="-105.2309241">
  <ele>1588.78</ele>
  <time>2026-08-27T18:30:10Z</time>
  <course>305.22</course>
  <speed>0.3935733730830886</speed>
  <fix>3d</fix>
</trkpt>
<trkpt lat="40.0728423" lon="-105.2309245">
  <ele>1588.55</ele>
  <time>2026-08-27T18:30:10Z</time>
  <course>156.79</course>
  <speed>0.38</speed>
  <fix>3d</fix>
</trkpt>
<trkpt lat="40.0728418" lon="-105.230924">
  <ele>1588.8</ele>
  <time>2026-08-27T18:30:10Z</time>
  <course>305.41</course>
  <speed>0.3935733730830886</speed>
  <fix>3d</fix>
</trkpt>
<trkpt lat="40.0728413" lon="-105.2309237">
  <ele>1588.9</ele>
  <time>2026-08-27T18:30:10Z</time>
  <course>306.1</course>
  <speed>0.4070626487409524</speed>
  <fix>3d</fix>
</trkpt>
<trkpt lat="40.0728417" lon="-105.2309242">
  <ele>1588.67</ele>
  <time>2026-08-27T18:30:10Z</time>
  <course>156.14</course>
  <speed>0.38</speed>
  <fix>3d</fix>
</trkpt>
<trkpt lat="40.0728411" lon="-105.2309236">
  <ele>1588.93</ele>
  <time>2026-08-27T18:30:10Z</time>
  <course>306.24</course>
  <speed>0.4070626487409524</speed>
  <fix>3d</fix>
</trkpt>
<trkpt lat="40.0728406" lon="-105.2309233">
  <ele>1589.03</ele>
  <time>2026-08-27T18:30:10Z</time>
  <course>306.59</course>
  <speed>0.4070626487409524</speed>
  <fix>3d</fix>
</trkpt>
<trkpt lat="40.072841" lon="-105.2309238">
  <ele>1588.8</ele>
  <time>2026-08-27T18:30:10Z</time>
  <course>155.45</course>
  <speed>0.39</speed>
  <fix>3d</fix>
</trkpt>
<trkpt lat="40.0728405" lon="-105.2309233">
  <ele>1589.05</ele>
  <time>2026-08-27T18:30:10Z</time>
  <course>306.66</course>
  <speed>0.4070626487409524</speed>
  <fix>3d</fix>
</trkpt>
<trkpt lat="40.07284" lon="-105.2309229">
  <ele>1589.16</ele>
  <time>2026-08-27T18:30:10Z</time>
  <course>306.94</course>
  <speed>0.4070626487409524</speed>
  <fix>3d</fix>
</trkpt>
<trkpt lat="40.0728404" lon="-105.2309234">
  <ele>1588.92</ele>
  <time>2026-08-27T18:30:10Z</time>
  <course>154.88</course>
  <speed>0.39</speed>
  <fix>3d</fix>
</trkpt>
<trkpt lat="40.0728399" lon="-105.2309229">
  <ele>1589.18</ele>
  <time>2026-08-27T18:30:10Z</time>
  <course>306.99</course>
  <speed>0.4070626487409524</speed>
  <fix>3d</fix>
</trkpt>
<trkpt lat="40.0728394" lon="-105.2309226">
  <ele>1589.28</ele>
  <time>2026-08-27T18:30:10Z</time>
  <course>307.19</course>
  <speed>0.4070626487409524</speed>
  <fix>3d</fix>
</trkpt>
<trkpt lat="40.0728397" lon="-105.2309229">
  <ele>1589.05</ele>
  <time>2026-08-27T18:30:10Z</time>
  <course>154.37</course>
  <speed>0.4</speed>
  <fix>3d</fix>
</trkpt>
<trkpt lat="40.0728394" lon="-105.2309225">
  <ele>1589.28</ele>
  <time>2026-08-27T18:30:10Z</time>
  <course>307.19</course>
  <speed>0.4070626487409524</speed>
  <fix>3d</fix>
</trkpt>
<trkpt lat="40.0728387" lon="-105.2309221">
  <ele>1589.41</ele>
  <time>2026-08-27T18:30:10Z</time>
  <course>307.42</course>
  <speed>0.41182520563948005</speed>
  <fix>3d</fix>
</trkpt>
<trkpt lat="40.072839" lon="-105.2309226">
  <ele>1589.17</ele>
  <time>2026-08-27T18:30:10Z</time>
  <course>153.85</course>
  <speed>0.41</speed>
  <fix>3d</fix>
</trkpt>
<trkpt lat="40.0728386" lon="-105.2309221">
  <ele>1589.43</ele>
  <time>2026-08-27T18:30:10Z</time>
  <course>307.47</course>
  <speed>0.41182520563948005</speed>
  <fix>3d</fix>
</trkpt>
<trkpt lat="40.072838" lon="-105.2309217">
  <ele>1589.53</ele>
  <time>2026-08-27T18:30:10Z</time>
  <course>307.61</course>
  <speed>0.41182520563948005</speed>
  <fix>3d</fix>
</trkpt>
<trkpt lat="40.0728384" lon="-105.2309222">
  <ele>1589.3</ele>
  <time>2026-08-27T18:30:10Z</time>
  <course>153.35</course>
  <speed>0.41</speed>
  <fix>3d</fix>
</trkpt>
<trkpt lat="40.072838" lon="-105.2309217">
  <ele>1589.54</ele>
  <time>2026-08-27T18:30:10Z</time>
  <course>307.61</course>
  <speed>0.41182520563948005</speed>
  <fix>3d</fix>
</trkpt>
<trkpt lat="40.0728374" lon="-105.2309213">
  <ele>1589.66</ele>
  <time>2026-08-27T18:30:10Z</time>
  <course>307.78</course>
  <speed>0.41182520563948005</speed>
  <fix>3d</fix>
</trkpt>
<trkpt lat="40.0728377" lon="-105.2309217">
  <ele>1589.43</ele>
  <time>2026-08-27T18:30:10Z</time>
  <course>152.91</course>
  <speed>0.42</speed>
  <fix>3d</fix>
</trkpt>
<trkpt lat="40.0728373" lon="-105.2309212">
  <ele>1589.68</ele>
  <time>2026-08-27T18:30:10Z</time>
  <course>307.81</course>
  <speed>0.4205948168962618</speed>
  <fix>3d</fix>
</trkpt>
<trkpt lat="40.0728367" lon="-105.2309208">
  <ele>1589.79</ele>
  <time>2026-08-27T18:30:10Z</time>
  <course>308.0</course>
  <speed>0.4205948168962618</speed>
  <fix>3d</fix>
</trkpt>
<trkpt lat="40.072837" lon="-105.2309212">
  <ele>1589.56</ele>
  <time>2026-08-27T18:30:10Z</time>
  <course>152.54</course>
  <speed>0.43</speed>
  <fix>3d</fix>
</trkpt>
<trkpt lat="40.0728366" lon="-105.2309208">
  <ele>1589.82</ele>
  <time>2026-08-27T18:30:10Z</time>
  <course>308.04</course>
  <speed>0.4205948168962618</speed>
  <fix>3d</fix>
</trkpt>
<trkpt lat="40.072836" lon="-105.2309204">
  <ele>1589.92</ele>
  <time>2026-08-27T18:30:10Z</time>
  <course>308.2</course>
  <speed>0.425440947723653</speed>
  <fix>3d</fix>
</trkpt>
<trkpt lat="40.0728363" lon="-105.2309207">
  <ele>1589.68</ele>
  <time>2026-08-27T18:30:10Z</time>
  <course>152.21</course>
  <speed>0.43</speed>
  <fix>3d</fix>
</trkpt>
<trkpt lat="40.0728359" lon="-105.2309203">
  <ele>1589.95</ele>
  <time>2026-08-27T18:30:10Z</time>
  <course>308.24</course>
  <speed>0.425440947723653</speed>
  <fix>3d</fix>
</trkpt>
<trkpt lat="40.0728353" lon="-105.2309199">
  <ele>1590.05</ele>
  <time>2026-08-27T18:30:10Z</time>
  <course>308.39</course>
  <speed>0.4341658669218482</speed>
  <fix>3d</fix>
</trkpt>
<trkpt lat="40.0728356" lon="-105.2309203">
  <ele>1589.81</ele>
  <time>2026-08-27T18:30:10Z</time>
  <course>151.91</course>
  <speed>0.44</speed>
  <fix>3d</fix>
</trkpt>
<trkpt lat="40.0728353" lon="-105.2309199">
  <ele>1590.05</ele>
  <time>2026-08-27T18:30:10Z</time>
  <course>308.39</course>
  <speed>0.4341658669218482</speed>
  <fix>3d</fix>
</trkpt>
<trkpt lat="40.0728346" lon="-105.2309194">
  <ele>1590.17</ele>
  <time>2026-08-27T18:30:10Z</time>
  <course>308.56</course>
  <speed>0.4341658669218482</speed>
  <fix>3d</fix>
</trkpt>
<trkpt lat="40.0728349" lon="-105.2309198">
  <ele>1589.94</ele>
  <time>2026-08-27T18:30:10Z</time>
  <course>151.65</course>
  <speed>0.44</speed>
  <fix>3d</fix>
</trkpt>
<trkpt lat="40.0728344" lon="-105.2309193">
  <ele>1590.2</ele>
  <time>2026-08-27T18:30:10Z</time>
  <course>308.6</course>
  <speed>0.439089968002003</speed>
  <fix>3d</fix>
</trkpt>
<trkpt lat="40.0728339" lon="-105.2309189">
  <ele>1590.3</ele>
  <time>2026-08-27T18:30:10Z</time>
  <course>308.73</course>
  <speed>0.439089968002003</speed>
  <fix>3d</fix>
</trkpt>
<trkpt lat="40.0728342" lon="-105.2309193">
  <ele>1590.06</ele>
  <time>2026-08-27T18:30:10Z</time>
  <course>151.42</course>
  <speed>0.45</speed>
  <fix>3d</fix>
</trkpt>
<trkpt lat="40.0728337" lon="-105.2309188">
  <ele>1590.32</ele>
  <time>2026-08-27T18:30:10Z</time>
  <course>308.76</course>
  <speed>0.439089968002003</speed>
  <fix>3d</fix>
</trkpt>
<trkpt lat="40.0728331" lon="-105.2309184">
  <ele>1590.42</ele>
  <time>2026-08-27T18:30:10Z</time>
  <course>308.89</course>
  <speed>0.4477722635447622</speed>
  <fix>3d</fix>
</trkpt>
<trkpt lat="40.0728335" lon="-105.2309188">
  <ele>1590.19</ele>
  <time>2026-08-27T18:30:10Z</time>
  <course>151.22</course>
  <speed>0.45</speed>
  <fix>3d</fix>
</trkpt>
<trkpt lat="40.072833" lon="-105.2309183">
  <ele>1590.44</ele>
  <time>2026-08-27T18:30:10Z</time>
  <course>308.92</course>
  <speed>0.4477722635447622</speed>
  <fix>3d</fix>
</trkpt>
<trkpt lat="40.0728324" lon="-105.2309179">
  <ele>1590.54</ele>
  <time>2026-08-27T18:30:10Z</time>
  <course>309.03</course>
  <speed>0.4477722635447622</speed>
  <fix>3d</fix>
</trkpt>
<trkpt lat="40.0728328" lon="-105.2309182">
  <ele>1590.31</ele>
  <time>2026-08-27T18:30:10Z</time>
  <course>151.04</course>
  <speed>0.46</speed>
  <fix>3d</fix>
</trkpt>
<trkpt lat="40.0728324" lon="-105.2309179">
  <ele>1590.54</ele>
  <time>2026-08-27T18:30:10Z</time>
  <course>309.03</course>
  <speed>0.4477722635447622</speed>
  <fix>3d</fix>
</trkpt>
<trkpt lat="40.0728317" lon="-105.2309174">
  <ele>1590.67</ele>
  <time>2026-08-27T18:30:10Z</time>
  <course>309.18</course>
  <speed>0.45276925690687087</speed>
  <fix>3d</fix>
</trkpt>
<trkpt lat="40.072832" lon="-105.2309177">
  <ele>1590.43</ele>
  <time>2026-08-27T18:30:10Z</time>
  <course>150.86</course>
  <speed>0.46</speed>
  <fix>3d</fix>
</trkpt>
<trkpt lat="40.0728315" lon="-105.2309173">
  <ele>1590.69</ele>
  <time>2026-08-27T18:30:10Z</time>
  <course>309.19</course>
  <speed>0.45276925690687087</speed>
  <fix>3d</fix>
</trkpt>
<trkpt lat="40.072831" lon="-105.2309168">
  <ele>1590.79</ele>
  <time>2026-08-27T18:30:10Z</time>
  <course>309.29</course>
  <speed>0.45276925690687087</speed>
  <fix>3d</fix>
</trkpt>
<trkpt lat="40.0728313" lon="-105.2309171">
  <ele>1590.56</ele>
  <time>2026-08-27T18:30:10Z</time>
  <course>150.69</course>
  <speed>0.46</speed>
  <fix>3d</fix>
</trkpt>
<trkpt lat="40.0728309" lon="-105.2309168">
  <ele>1590.79</ele>
  <time>2026-08-27T18:30:10Z</time>
  <course>309.29</course>
  <speed>0.45276925690687087</speed>
  <fix>3d</fix>
</trkpt>
<trkpt lat="40.0728302" lon="-105.2309163">
  <ele>1590.92</ele>
  <time>2026-08-27T18:30:10Z</time>
  <course>309.45</course>
  <speed>0.45276925690687087</speed>
  <fix>3d</fix>
</trkpt>
<trkpt lat="40.0728306" lon="-105.2309166">
  <ele>1590.68</ele>
  <time>2026-08-27T18:30:10Z</time>
  <course>150.59</course>
  <speed>0.47</speed>
  <fix>3d</fix>
</trkpt>
<trkpt lat="40.0728301" lon="-105.2309162">
  <ele>1590.94</ele>
  <time>2026-08-27T18:30:10Z</time>
  <course>309.47</course>
  <speed>0.45276925690687087</speed>
  <fix>3d</fix>
</trkpt>
<trkpt lat="40.0728295" lon="-105.2309157">
  <ele>1591.04</ele>
  <time>2026-08-27T18:30:10Z</time>
  <course>309.57</course>
  <speed>0.4614108798023731</speed>
  <fix>3d</fix>
</trkpt>
<trkpt lat="40.0728298" lon="-105.2309161">
  <ele>1590.81</ele>
  <time>2026-08-27T18:30:10Z</time>
  <course>150.52</course>
  <speed>0.47</speed>
  <fix>3d</fix>
</trkpt>
<trkpt lat="40.0728293" lon="-105.2309156">
  <ele>1591.06</ele>
  <time>2026-08-27T18:30:10Z</time>
  <course>309.6</course>
  <speed>0.4614108798023731</speed>
  <fix>3d</fix>
</trkpt>
<trkpt lat="40.0728287" lon="-105.2309152">
  <ele>1591.17</ele>
  <time>2026-08-27T18:30:10Z</time>
  <course>309.68</course>
  <speed>0.4614108798023731</speed>
  <fix>3d</fix>
</trkpt>
<trkpt lat="40.072829" lon="-105.2309155">
  <ele>1590.94</ele>
  <time>2026-08-27T18:30:10Z</time>
  <course>150.46</course>
  <speed>0.47</speed>
  <fix>3d</fix>
</trkpt>
<trkpt lat="40.0728287" lon="-105.2309152">
  <ele>1591.17</ele>
  <time>2026-08-27T18:30:10Z</time>
  <course>309.69</course>
  <speed>0.4614108798023731</speed>
  <fix>3d</fix>
</trkpt>
<trkpt lat="40.072828" lon="-105.2309146">
  <ele>1591.29</ele>
  <time>2026-08-27T18:30:10Z</time>
  <course>309.82</course>
  <speed>0.46647615158762407</speed>
  <fix>3d</fix>
</trkpt>
<trkpt lat="40.0728283" lon="-105.230915">
  <ele>1591.06</ele>
  <time>2026-08-27T18:30:10Z</time>
  <course>150.45</course>
  <speed>0.47</speed>
  <fix>3d</fix>
</trkpt>
<trkpt lat="40.0728278" lon="-105.2309145">
  <ele>1591.32</ele>
  <time>2026-08-27T18:30:10Z</time>
  <course>309.85</course>
  <speed>0.46647615158762407</speed>
  <fix>3d</fix>
</trkpt>
<trkpt lat="40.0728272" lon="-105.2309141">
  <ele>1591.42</ele>
  <time>2026-08-27T18:30:10Z</time>
  <course>309.95</course>
  <speed>0.46647615158762407</speed>
  <fix>3d</fix>
</trkpt>
<trkpt lat="40.0728276" lon="-105.2309144">
  <ele>1591.19</ele>
  <time>2026-08-27T18:30:10Z</time>
  <course>150.46</course>
  <speed>0.47</speed>
  <fix>3d</fix>
</trkpt>
<trkpt lat="40.0728271" lon="-105.230914">
  <ele>1591.44</ele>
  <time>2026-08-27T18:30:10Z</time>
  <course>309.97</course>
  <speed>0.46647615158762407</speed>
  <fix>3d</fix>
</trkpt>
<trkpt lat="40.0728265" lon="-105.2309135">
  <ele>1591.55</ele>
  <time>2026-08-27T18:30:10Z</time>
  <course>310.09</course>
  <speed>0.46647615158762407</speed>
  <fix>3d</fix>
</trkpt>
<trkpt lat="40.0728268" lon="-105.2309138">
  <ele>1591.32</ele>
  <time>2026-08-27T18:30:10Z</time>
  <course>150.5</course>
  <speed>0.47</speed>
  <fix>3d</fix>
</trkpt>
<trkpt lat="40.0728265" lon="-105.2309135">
  <ele>1591.55</ele>
  <time>2026-08-27T18:30:10Z</time>
  <course>310.09</course>
  <speed>0.46647615158762407</speed>
  <fix>3d</fix>
</trkpt>
<trkpt lat="40.0728257" lon="-105.230913">
  <ele>1591.67</ele>
  <time>2026-08-27T18:30:10Z</time>
  <course>310.19</course>
  <speed>0.46647615158762407</speed>
  <fix>3d</fix>
</trkpt>
<trkpt lat="40.0728261" lon="-105.2309133">
  <ele>1591.45</ele>
  <time>2026-08-27T18:30:10Z</time>
  <course>150.58</course>
  <speed>0.47</speed>
  <fix>3d</fix>
</trkpt>
<trkpt lat="40.0728256" lon="-105.2309129">
  <ele>1591.69</ele>
  <time>2026-08-27T18:30:10Z</time>
  <course>310.22</course>
  <speed>0.46647615158762407</speed>
  <fix>3d</fix>
</trkpt>
<trkpt lat="40.072825" lon="-105.2309124">
  <ele>1591.79</ele>
  <time>2026-08-27T18:30:10Z</time>
  <course>310.28</course>
  <speed>0.46647615158762407</speed>
  <fix>3d</fix>
</trkpt>
<trkpt lat="40.0728254" lon="-105.2309128">
  <ele>1591.57</ele>
  <time>2026-08-27T18:30:10Z</time>
  <course>150.63</course>
  <speed>0.47</speed>
  <fix>3d</fix>
</trkpt>
<trkpt lat="40.072825" lon="-105.2309124">
  <ele>1591.8</ele>
  <time>2026-08-27T18:30:10Z</time>
  <course>310.29</course>
  <speed>0.46647615158762407</speed>
  <fix>3d</fix>
</trkpt>
<trkpt lat="40.0728242" lon="-105.2309118">
  <ele>1591.92</ele>
  <time>2026-08-27T18:30:10Z</time>
  <course>310.4</course>
  <speed>0.46647615158762407</speed>
  <fix>3d</fix>
</trkpt>
<trkpt lat="40.0728246" lon="-105.2309122">
  <ele>1591.7</ele>
  <time>2026-08-27T18:30:10Z</time>
  <course>150.71</course>
  <speed>0.47</speed>
  <fix>3d</fix>
</trkpt>
<trkpt lat="40.0728241" lon="-105.2309117">
  <ele>1591.95</ele>
  <time>2026-08-27T18:30:10Z</time>
  <course>310.41</course>
  <speed>0.46647615158762407</speed>
  <fix>3d</fix>
</trkpt>
<trkpt lat="40.0728235" lon="-105.2309113">
  <ele>1592.05</ele>
  <time>2026-08-27T18:30:10Z</time>
  <course>310.51</course>
  <speed>0.46647615158762407</speed>
  <fix>3d</fix>
</trkpt>
<trkpt lat="40.0728239" lon="-105.2309116">
  <ele>1591.83</ele>
  <time>2026-08-27T18:30:10Z</time>
  <course>150.86</course>
  <speed>0.47</speed>
  <fix>3d</fix>
</trkpt>
<trkpt lat="40.0728233" lon="-105.2309112">
  <ele>1592.07</ele>
  <time>2026-08-27T18:30:10Z</time>
  <course>310.52</course>
  <speed>0.46647615158762407</speed>
  <fix>3d</fix>
</trkpt>
<trkpt lat="40.0728227" lon="-105.2309107">
  <ele>1592.17</ele>
  <time>2026-08-27T18:30:10Z</time>
  <course>310.59</course>
  <speed>0.46647615158762407</speed>
  <fix>3d</fix>
</trkpt>
<trkpt lat="40.0728231" lon="-105.2309111">
  <ele>1591.95</ele>
  <time>2026-08-27T18:30:10Z</time>
  <course>151.02</course>
  <speed>0.47</speed>
  <fix>3d</fix>
</trkpt>
<trkpt lat="40.0728226" lon="-105.2309106">
  <ele>1592.19</ele>
  <time>2026-08-27T18:30:10Z</time>
  <course>310.62</course>
  <speed>0.46647615158762407</speed>
  <fix>3d</fix>
</trkpt>
<trkpt lat="40.072822" lon="-105.2309102">
  <ele>1592.29</ele>
  <time>2026-08-27T18:30:10Z</time>
  <course>310.68</course>
  <speed>0.46647615158762407</speed>
  <fix>3d</fix>
</trkpt>
<trkpt lat="40.0728223" lon="-105.2309106">
  <ele>1592.08</ele>
  <time>2026-08-27T18:30:10Z</time>
  <course>151.15</course>
  <speed>0.47</speed>
  <fix>3d</fix>
</trkpt>
<trkpt lat="40.0728219" lon="-105.2309101">
  <ele>1592.32</ele>
  <time>2026-08-27T18:30:10Z</time>
  <course>310.69</course>
  <speed>0.46647615158762407</speed>
  <fix>3d</fix>
</trkpt>
<trkpt lat="40.0728212" lon="-105.2309096">
  <ele>1592.42</ele>
  <time>2026-08-27T18:30:10Z</time>
  <course>310.78</course>
  <speed>0.46647615158762407</speed>
  <fix>3d</fix>
</trkpt>
<trkpt lat="40.0728216" lon="-105.23091">
  <ele>1592.21</ele>
  <time>2026-08-27T18:30:10Z</time>
  <course>151.3</course>
  <speed>0.47</speed>
  <fix>3d</fix>
</trkpt>
<trkpt lat="40.0728212" lon="-105.2309096">
  <ele>1592.42</ele>
  <time>2026-08-27T18:30:10Z</time>
  <course>310.79</course>
  <speed>0.46647615158762407</speed>
  <fix>3d</fix>
</trkpt>
<trkpt lat="40.0728205" lon="-105.2309091">
  <ele>1592.55</ele>
  <time>2026-08-27T18:30:10Z</time>
  <course>310.88</course>
  <speed>0.46647615158762407</speed>
  <fix>3d</fix>
</trkpt>
<trkpt lat="40.0728208" lon="-105.2309095">
  <ele>1592.34</ele>
  <time>2026-08-27T18:30:10Z</time>
  <course>151.5</course>
  <speed>0.47</speed>
  <fix>3d</fix>
</trkpt>
<trkpt lat="40.0728203" lon="-105.230909">
  <ele>1592.58</ele>
  <time>2026-08-27T18:30:10Z</time>
  <course>310.9</course>
  <speed>0.46647615158762407</speed>
  <fix>3d</fix>
</trkpt>
<trkpt lat="40.0728197" lon="-105.2309086">
  <ele>1592.68</ele>
  <time>2026-08-27T18:30:10Z</time>
  <course>310.96</course>
  <speed>0.46647615158762407</speed>
  <fix>3d</fix>
</trkpt>
<trkpt lat="40.0728201" lon="-105.230909">
  <ele>1592.47</ele>
  <time>2026-08-27T18:30:10Z</time>
  <course>151.68</course>
  <speed>0.47</speed>
  <fix>3d</fix>
</trkpt>
<trkpt lat="40.0728196" lon="-105.2309085">
  <ele>1592.7</ele>
  <time>2026-08-27T18:30:10Z</time>
  <course>310.98</course>
  <speed>0.46647615158762407</speed>
  <fix>3d</fix>
</trkpt>
<trkpt lat="40.072819" lon="-105.230908">
  <ele>1592.81</ele>
  <time>2026-08-27T18:30:10Z</time>
  <course>311.07</course>
  <speed>0.46647615158762407</speed>
  <fix>3d</fix>
</trkpt>
<trkpt lat="40.0728194" lon="-105.2309085">
  <ele>1592.59</ele>
  <time>2026-08-27T18:30:10Z</time>
  <course>151.84</course>
  <speed>0.47</speed>
  <fix>3d</fix>
</trkpt>
<trkpt lat="40.0728189" lon="-105.2309079">
  <ele>1592.83</ele>
  <time>2026-08-27T18:30:10Z</time>
  <course>311.09</course>
  <speed>0.46647615158762407</speed>
  <fix>3d</fix>
</trkpt>
<trkpt lat="40.0728182" lon="-105.2309075">
  <ele>1592.94</ele>
  <time>2026-08-27T18:30:10Z</time>
  <course>311.17</course>
  <speed>0.46647615158762407</speed>
  <fix>3d</fix>
</trkpt>
<trkpt lat="40.0728186" lon="-105.2309079">
  <ele>1592.72</ele>
  <time>2026-08-27T18:30:10Z</time>
  <course>152.0</course>
  <speed>0.47</speed>
  <fix>3d</fix>
</trkpt>
<trkpt lat="40.0728181" lon="-105.2309074">
  <ele>1592.96</ele>
  <time>2026-08-27T18:30:10Z</time>
  <course>311.19</course>
  <speed>0.4614108798023731</speed>
  <fix>3d</fix>
</trkpt>
<trkpt lat="40.0728175" lon="-105.230907">
  <ele>1593.06</ele>
  <time>2026-08-27T18:30:10Z</time>
  <course>311.26</course>
  <speed>0.4614108798023731</speed>
  <fix>3d</fix>
</trkpt>
<trkpt lat="40.0728179" lon="-105.2309074">
  <ele>1592.85</ele>
  <time>2026-08-27T18:30:10Z</time>
  <course>152.14</course>
  <speed>0.46</speed>
  <fix>3d</fix>
</trkpt>
<trkpt lat="40.0728175" lon="-105.230907">
  <ele>1593.06</ele>
  <time>2026-08-27T18:30:10Z</time>
  <course>311.26</course>
  <speed>0.4614108798023731</speed>
  <fix>3d</fix>
</trkpt>
<trkpt lat="40.0728168" lon="-105.2309065">
  <ele>1593.19</ele>
  <time>2026-08-27T18:30:10Z</time>
  <course>311.32</course>
  <speed>0.4614108798023731</speed>
  <fix>3d</fix>
</trkpt>
<trkpt lat="40.0728171" lon="-105.2309069">
  <ele>1592.97</ele>
  <time>2026-08-27T18:30:10Z</time>
  <course>152.3</course>
  <speed>0.46</speed>
  <fix>3d</fix>
</trkpt>
<trkpt lat="40.0728166" lon="-105.2309064">
  <ele>1593.21</ele>
  <time>2026-08-27T18:30:10Z</time>
  <course>311.34</course>
  <speed>0.4614108798023731</speed>
  <fix>3d</fix>
</trkpt>
<trkpt lat="40.072816" lon="-105.230906">
  <ele>1593.31</ele>
  <time>2026-08-27T18:30:10Z</time>
  <course>311.41</course>
  <speed>0.4614108798023731</speed>
  <fix>3d</fix>
</trkpt>
<trkpt lat="40.0728163" lon="-105.2309064">
  <ele>1593.1</ele>
  <time>2026-08-27T18:30:10Z</time>
  <course>152.52</course>
  <speed>0.46</speed>
  <fix>3d</fix>
</trkpt>
<trkpt lat="40.0728159" lon="-105.2309059">
  <ele>1593.34</ele>
  <time>2026-08-27T18:30:10Z</time>
  <course>311.43</course>
  <speed>0.4614108798023731</speed>
  <fix>3d</fix>
</trkpt>
<trkpt lat="40.0728153" lon="-105.2309055">
  <ele>1593.44</ele>
  <time>2026-08-27T18:30:10Z</time>
  <course>311.5</course>
  <speed>0.4614108798023731</speed>
  <fix>3d</fix>
</trkpt>
<trkpt lat="40.0728156" lon="-105.2309059">
  <ele>1593.22</ele>
  <time>2026-08-27T18:30:10Z</time>
  <course>152.79</course>
  <speed>0.46</speed>
  <fix>3d</fix>
</trkpt>
<trkpt lat="40.0728151" lon="-105.2309054">
  <ele>1593.46</ele>
  <time>2026-08-27T18:30:10Z</time>
  <course>311.51</course>
  <speed>0.4614108798023731</speed>
  <fix>3d</fix>
</trkpt>
<trkpt lat="40.0728145" lon="-105.230905">
  <ele>1593.56</ele>
  <time>2026-08-27T18:30:10Z</time>
  <course>311.56</course>
  <speed>0.4614108798023731</speed>
  <fix>3d</fix>
</trkpt>
<trkpt lat="40.0728149" lon="-105.2309054">
  <ele>1593.35</ele>
  <time>2026-08-27T18:30:10Z</time>
  <course>153.04</course>
  <speed>0.46</speed>
  <fix>3d</fix>
</trkpt>
<trkpt lat="40.0728144" lon="-105.2309049">
  <ele>1593.58</ele>
  <time>2026-08-27T18:30:10Z</time>
  <course>311.58</course>
  <speed>0.4614108798023731</speed>
  <fix>3d</fix>
</trkpt>
<trkpt lat="40.0728138" lon="-105.2309045">
  <ele>1593.68</ele>
  <time>2026-08-27T18:30:10Z</time>
  <course>311.64</course>
  <speed>0.4477722635447622</speed>
  <fix>3d</fix>
</trkpt>
<trkpt lat="40.0728141" lon="-105.2309049">
  <ele>1593.48</ele>
  <time>2026-08-27T18:30:10Z</time>
  <course>153.3</course>
  <speed>0.45</speed>
  <fix>3d</fix>
</trkpt>
<trkpt lat="40.0728137" lon="-105.2309044">
  <ele>1593.7</ele>
  <time>2026-08-27T18:30:10Z</time>
  <course>311.65</course>
  <speed>0.4477722635447622</speed>
  <fix>3d</fix>
</trkpt>
<trkpt lat="40.072813" lon="-105.230904">
  <ele>1593.8</ele>
  <time>2026-08-27T18:30:10Z</time>
  <course>311.72</course>
  <speed>0.4477722635447622</speed>
  <fix>3d</fix>
</trkpt>
<trkpt lat="40.0728134" lon="-105.2309045">
  <ele>1593.6</ele>
  <time>2026-08-27T18:30:10Z</time>
  <course>153.58</course>
  <speed>0.45</speed>
  <fix>3d</fix>
</trkpt>
<trkpt lat="40.072813" lon="-105.230904">
  <ele>1593.8</ele>
  <time>2026-08-27T18:30:10Z</time>
  <course>311.72</course>
  <speed>0.4477722635447622</speed>
  <fix>3d</fix>
</trkpt>
<trkpt lat="40.0728123" lon="-105.2309035">
  <ele>1593.93</ele>
  <time>2026-08-27T18:30:10Z</time>
  <course>311.76</course>
  <speed>0.4477722635447622</speed>
  <fix>3d</fix>
</trkpt>
<trkpt lat="40.0728127" lon="-105.230904">
  <ele>1593.73</ele>
  <time>2026-08-27T18:30:10Z</time>
  <course>153.88</course>
  <speed>0.45</speed>
  <fix>3d</fix>
</trkpt>
<trkpt lat="40.0728122" lon="-105.2309034">
  <ele>1593.95</ele>
  <time>2026-08-27T18:30:10Z</time>
  <course>311.78</course>
  <speed>0.4477722635447622</speed>
  <fix>3d</fix>
</trkpt>
<trkpt lat="40.0728116" lon="-105.230903">
  <ele>1594.05</ele>
  <time>2026-08-27T18:30:10Z</time>
  <course>311.85</course>
  <speed>0.4477722635447622</speed>
  <fix>3d</fix>
</trkpt>
<trkpt lat="40.072812" lon="-105.2309035">
  <ele>1593.86</ele>
  <time>2026-08-27T18:30:10Z</time>
  <course>154.17</course>
  <speed>0.45</speed>
  <fix>3d</fix>
</trkpt>
<trkpt lat="40.0728115" lon="-105.230903">
  <ele>1594.08</ele>
  <time>2026-08-27T18:30:10Z</time>
  <course>311.87</course>
  <speed>0.4477722635447622</speed>
  <fix>3d</fix>
</trkpt>
<trkpt lat="40.0728109" lon="-105.2309026">
  <ele>1594.18</ele>
  <time>2026-08-27T18:30:10Z</time>
  <course>311.95</course>
  <speed>0.442944691807002</speed>
  <fix>3d</fix>
</trkpt>
<trkpt lat="40.0728112" lon="-105.230903">
  <ele>1593.99</ele>
  <time>2026-08-27T18:30:10Z</time>
  <course>154.45</course>
  <speed>0.44</speed>
  <fix>3d</fix>
</trkpt>
<trkpt lat="40.0728107" lon="-105.2309025">
  <ele>1594.21</ele>
  <time>2026-08-27T18:30:10Z</time>
  <course>311.95</course>
  <speed>0.442944691807002</speed>
  <fix>3d</fix>
</trkpt>
<trkpt lat="40.0728101" lon="-105.2309021">
  <ele>1594.31</ele>
  <time>2026-08-27T18:30:10Z</time>
  <course>312.03</course>
  <speed>0.442944691807002</speed>
  <fix>3d</fix>
</trkpt>
<trkpt lat="40.0728105" lon="-105.2309026">
  <ele>1594.11</ele>
  <time>2026-08-27T18:30:10Z</time>
  <course>154.74</course>
  <speed>0.44</speed>
  <fix>3d</fix>
</trkpt>
<trkpt lat="40.0728101" lon="-105.2309021">
  <ele>1594.32</ele>
  <time>2026-08-27T18:30:10Z</time>
  <course>312.04</course>
  <speed>0.442944691807002</speed>
  <fix>3d</fix>
</trkpt>
<trkpt lat="40.0728094" lon="-105.2309017">
  <ele>1594.44</ele>
  <time>2026-08-27T18:30:10Z</time>
  <course>312.11</course>
  <speed>0.442944691807002</speed>
  <fix>3d</fix>
</trkpt>
<trkpt lat="40.0728098" lon="-105.2309022">
  <ele>1594.24</ele>
  <time>2026-08-27T18:30:10Z</time>
  <course>155.05</course>
  <speed>0.44</speed>
  <fix>3d</fix>
</trkpt>
<trkpt lat="40.0728093" lon="-105.2309016">
  <ele>1594.46</ele>
  <time>2026-08-27T18:30:10Z</time>
  <course>312.11</course>
  <speed>0.442944691807002</speed>
  <fix>3d</fix>
</trkpt>
<trkpt lat="40.0728087" lon="-105.2309013">
  <ele>1594.56</ele>
  <time>2026-08-27T18:30:10Z</time>
  <course>312.18</course>
  <speed>0.442944691807002</speed>
  <fix>3d</fix>
</trkpt>
<trkpt lat="40.0728091" lon="-105.2309018">
  <ele>1594.37</ele>
  <time>2026-08-27T18:30:10Z</time>
  <course>155.32</course>
  <speed>0.44</speed>
  <fix>3d</fix>
</trkpt>
<trkpt lat="40.0728087" lon="-105.2309012">
  <ele>1594.57</ele>
  <time>2026-08-27T18:30:10Z</time>
  <course>312.18</course>
  <speed>0.442944691807002</speed>
  <fix>3d</fix>
</trkpt>
<trkpt lat="40.072808" lon="-105.2309008">
  <ele>1594.69</ele>
  <time>2026-08-27T18:30:10Z</time>
  <course>312.25</course>
  <speed>0.42941821107167777</speed>
  <fix>3d</fix>
</trkpt>
<trkpt lat="40.0728083" lon="-105.2309013">
  <ele>1594.5</ele>
  <time>2026-08-27T18:30:10Z</time>
  <course>155.59</course>
  <speed>0.43</speed>
  <fix>3d</fix>
</trkpt>
<trkpt lat="40.0728079" lon="-105.2309008">
  <ele>1594.71</ele>
  <time>2026-08-27T18:30:10Z</time>
  <course>312.27</course>
  <speed>0.42941821107167777</speed>
  <fix>3d</fix>
</trkpt>
<trkpt lat="40.0728073" lon="-105.2309004">
  <ele>1594.81</ele>
  <time>2026-08-27T18:30:10Z</time>
  <course>312.31</course>
  <speed>0.42941821107167777</speed>
  <fix>3d</fix>
</trkpt>
<trkpt lat="40.0728076" lon="-105.2309009">
  <ele>1594.62</ele>
  <time>2026-08-27T18:30:10Z</time>
  <course>155.84</course>
  <speed>0.43</speed>
  <fix>3d</fix>
</trkpt>
<trkpt lat="40.0728071" lon="-105.2309003">
  <ele>1594.83</ele>
  <time>2026-08-27T18:30:10Z</time>
  <course>312.32</course>
  <speed>0.42941821107167777</speed>
  <fix>3d</fix>
</trkpt>
<trkpt lat="40.0728066" lon="-105.2309">
  <ele>1594.93</ele>
  <time>2026-08-27T18:30:10Z</time>
  <course>312.39</course>
  <speed>0.42941821107167777</speed>
  <fix>3d</fix>
</trkpt>
<trkpt lat="40.0728069" lon="-105.2309004">
  <ele>1594.75</ele>
  <time>2026-08-27T18:30:10Z</time>
  <course>156.13</course>
  <speed>0.43</speed>
  <fix>3d</fix>
</trkpt>
<trkpt lat="40.0728066" lon="-105.2309">
  <ele>1594.93</ele>
  <time>2026-08-27T18:30:10Z</time>
  <course>312.39</course>
  <speed>0.42941821107167777</speed>
  <fix>3d</fix>
</trkpt>
<trkpt lat="40.0728059" lon="-105.2308996">
  <ele>1595.06</ele>
  <time>2026-08-27T18:30:10Z</time>
  <course>312.43</course>
  <speed>0.42485291572496003</speed>
  <fix>3d</fix>
</trkpt>
<trkpt lat="40.0728062" lon="-105.2309001">
  <ele>1594.88</ele>
  <time>2026-08-27T18:30:10Z</time>
  <course>156.45</course>
  <speed>0.42</speed>
  <fix>3d</fix>
</trkpt>
<trkpt lat="40.0728052" lon="-105.2308992">
  <ele>1595.17</ele>
  <time>2026-08-27T18:30:10Z</time>
  <course>312.86</course>
  <speed>0.42485291572496003</speed>
  <fix>3d</fix>
</trkpt>
<trkpt lat="40.0728055" lon="-105.2308997">
  <ele>1595.01</ele>
  <time>2026-08-27T18:30:10Z</time>
  <course>156.92</course>
  <speed>0.42</speed>
  <fix>3d</fix>
</trkpt>
<trkpt lat="40.0728044" lon="-105.2308988">
  <ele>1595.26</ele>
  <time>2026-08-27T18:30:10Z</time>
  <course>313.46</course>
  <speed>0.4114608122288197</speed>
  <fix>3d</fix>
</trkpt>
<trkpt lat="40.0728048" lon="-105.2308993">
  <ele>1595.12</ele>
  <time>2026-08-27T18:30:10Z</time>
  <course>157.38</course>
  <speed>0.42</speed>
  <fix>3d</fix>
</trkpt>
<trkpt lat="40.0728038" lon="-105.2308985">
  <ele>1595.31</ele>
  <time>2026-08-27T18:30:10Z</time>
  <course>313.69</course>
  <speed>0.4114608122288197</speed>
  <fix>3d</fix>
</trkpt>
<trkpt lat="40.0728041" lon="-105.2308989">
  <ele>1595.2</ele>
  <time>2026-08-27T18:30:10Z</time>
  <course>157.47</course>
  <speed>0.41</speed>
  <fix>3d</fix>
</trkpt>
<trkpt lat="40.0728031" lon="-105.2308981">
  <ele>1595.36</ele>
  <time>2026-08-27T18:30:10Z</time>
  <course>312.61</course>
  <speed>0.40249223594996214</speed>
  <fix>3d</fix>
</trkpt>
<trkpt lat="40.0728034" lon="-105.2308985">
  <ele>1595.25</ele>
  <time>2026-08-27T18:30:10Z</time>
  <course>156.96</course>
  <speed>0.4</speed>
  <fix>3d</fix>
</trkpt>
<trkpt lat="40.0728024" lon="-105.2308977">
  <ele>1595.38</ele>
  <time>2026-08-27T18:30:10Z</time>
  <course>311.63</course>
  <speed>0.3935733730830886</speed>
  <fix>3d</fix>
</trkpt>
<trkpt lat="40.0728028" lon="-105.2308982">
  <ele>1595.29</ele>
  <time>2026-08-27T18:30:10Z</time>
  <course>156.46</course>
  <speed>0.4</speed>
  <fix>3d</fix>
</trkpt>
<trkpt lat="40.0728018" lon="-105.2308973">
  <ele>1595.4</ele>
  <time>2026-08-27T18:30:10Z</time>
  <course>311.27</course>
  <speed>0.38470768123342686</speed>
  <fix>3d</fix>
</trkpt>
<trkpt lat="40.0728021" lon="-105.2308977">
  <ele>1595.32</ele>
  <time>2026-08-27T18:30:10Z</time>
  <course>156.3</course>
  <speed>0.39</speed>
  <fix>3d</fix>
</trkpt>
<trkpt lat="40.0728012" lon="-105.230897">
  <ele>1595.42</ele>
  <time>2026-08-27T18:30:10Z</time>
  <course>311.19</course>
  <speed>0.37589892258425</speed>
  <fix>3d</fix>
</trkpt>
<trkpt lat="40.0728015" lon="-105.2308974">
  <ele>1595.33</ele>
  <time>2026-08-27T18:30:10Z</time>
  <course>155.96</course>
  <speed>0.38</speed>
  <fix>3d</fix>
</trkpt>
<trkpt lat="40.0728005" lon="-105.2308966">
  <ele>1595.43</ele>
  <time>2026-08-27T18:30:10Z</time>
  <course>311.18</course>
  <speed>0.37589892258425</speed>
  <fix>3d</fix>
</trkpt>
<trkpt lat="40.0728009" lon="-105.230897">
  <ele>1595.34</ele>
  <time>2026-08-27T18:30:10Z</time>
  <course>155.44</course>
  <speed>0.37</speed>
  <fix>3d</fix>
</trkpt>
<trkpt lat="40.0727999" lon="-105.2308962">
  <ele>1595.43</ele>
  <time>2026-08-27T18:30:10Z</time>
  <course>311.2</course>
  <speed>0.3671511950137164</speed>
  <fix>3d</fix>
</trkpt>
<trkpt lat="40.0728003" lon="-105.2308966">
  <ele>1595.35</ele>
  <time>2026-08-27T18:30:10Z</time>
  <course>154.88</course>
  <speed>0.36</speed>
  <fix>3d</fix>
</trkpt>
<trkpt lat="40.0727994" lon="-105.2308958">
  <ele>1595.44</ele>
  <time>2026-08-27T18:30:10Z</time>
  <course>311.23</course>
  <speed>0.3584689665786984</speed>
  <fix>3d</fix>
</trkpt>
<trkpt lat="40.0727997" lon="-105.2308963">
  <ele>1595.36</ele>
  <time>2026-08-27T18:30:10Z</time>
  <course>154.39</course>
  <speed>0.36</speed>
  <fix>3d</fix>
</trkpt>
<trkpt lat="40.0727988" lon="-105.2308955">
  <ele>1595.44</ele>
  <time>2026-08-27T18:30:10Z</time>
  <course>311.26</course>
  <speed>0.34985711369071804</speed>
  <fix>3d</fix>
</trkpt>
<trkpt lat="40.0727991" lon="-105.230896">
  <ele>1595.36</ele>
  <time>2026-08-27T18:30:10Z</time>
  <course>153.95</course>
  <speed>0.35</speed>
  <fix>3d</fix>
</trkpt>
<trkpt lat="40.0727983" lon="-105.2308951">
  <ele>1595.45</ele>
  <time>2026-08-27T18:30:10Z</time>
  <course>311.31</course>
  <speed>0.34132096331752027</speed>
  <fix>3d</fix>
</trkpt>
<trkpt lat="40.0727985" lon="-105.2308956">
  <ele>1595.36</ele>
  <time>2026-08-27T18:30:10Z</time>
  <course>153.56</course>
  <speed>0.34</speed>
  <fix>3d</fix>
</trkpt>
<trkpt lat="40.0727977" lon="-105.2308947">
  <ele>1595.45</ele>
  <time>2026-08-27T18:30:10Z</time>
  <course>311.36</course>
  <speed>0.34132096331752027</speed>
  <fix>3d</fix>
</trkpt>
<trkpt lat="40.0727979" lon="-105.2308952">
  <ele>1595.37</ele>
  <time>2026-08-27T18:30:10Z</time>
  <course>153.19</course>
  <speed>0.33</speed>
  <fix>3d</fix>
</trkpt>
<trkpt lat="40.0727972" lon="-105.2308944">
  <ele>1595.44</ele>
  <time>2026-08-27T18:30:10Z</time>
  <course>311.39</course>
  <speed>0.3328663395418648</speed>
  <fix>3d</fix>
</trkpt>
<trkpt lat="40.0727974" lon="-105.2308949">
  <ele>1595.36</ele>
  <time>2026-08-27T18:30:10Z</time>
  <course>152.78</course>
  <speed>0.33</speed>
  <fix>3d</fix>
</trkpt>
<trkpt lat="40.0727967" lon="-105.230894">
  <ele>1595.44</ele>
  <time>2026-08-27T18:30:10Z</time>
  <course>311.41</course>
  <speed>0.31906112267087633</speed>
  <fix>3d</fix>
</trkpt>
<trkpt lat="40.0727969" lon="-105.2308945">
  <ele>1595.36</ele>
  <time>2026-08-27T18:30:10Z</time>
  <course>152.4</course>
  <speed>0.32</speed>
  <fix>3d</fix>
</trkpt>
<trkpt lat="40.0727962" lon="-105.2308937">
  <ele>1595.44</ele>
  <time>2026-08-27T18:30:10Z</time>
  <course>311.45</course>
  <speed>0.31064449134018135</speed>
  <fix>3d</fix>
</trkpt>
<trkpt lat="40.0727964" lon="-105.2308942">
  <ele>1595.36</ele>
  <time>2026-08-27T18:30:10Z</time>
  <course>152.05</course>
  <speed>0.31</speed>
  <fix>3d</fix>
</trkpt>
<trkpt lat="40.0727957" lon="-105.2308934">
  <ele>1595.44</ele>
  <time>2026-08-27T18:30:10Z</time>
  <course>311.48</course>
  <speed>0.31064449134018135</speed>
  <fix>3d</fix>
</trkpt>
<trkpt lat="40.0727959" lon="-105.2308938">
  <ele>1595.36</ele>
  <time>2026-08-27T18:30:10Z</time>
  <course>151.73</course>
  <speed>0.3</speed>
  <fix>3d</fix>
</trkpt>
<trkpt lat="40.0727952" lon="-105.230893">
  <ele>1595.43</ele>
  <time>2026-08-27T18:30:10Z</time>
  <course>311.51</course>
  <speed>0.3023243291566195</speed>
  <fix>3d</fix>
</trkpt>
<trkpt lat="40.0727954" lon="-105.2308934">
  <ele>1595.36</ele>
  <time>2026-08-27T18:30:10Z</time>
  <course>151.45</course>
  <speed>0.3</speed>
  <fix>3d</fix>
</trkpt>
<trkpt lat="40.0727947" lon="-105.2308927">
  <ele>1595.43</ele>
  <time>2026-08-27T18:30:10Z</time>
  <course>311.54</course>
  <speed>0.3023243291566195</speed>
  <fix>3d</fix>
</trkpt>
<trkpt lat="40.0727949" lon="-105.2308931">
  <ele>1595.36</ele>
  <time>2026-08-27T18:30:10Z</time>
  <course>151.14</course>
  <speed>0.29</speed>
  <fix>3d</fix>
</trkpt>
<trkpt lat="40.0727943" lon="-105.2308923">
  <ele>1595.43</ele>
  <time>2026-08-27T18:30:10Z</time>
  <course>310.44</course>
  <speed>0.28600699292150183</speed>
  <fix>3d</fix>
</trkpt>
<trkpt lat="40.0727945" lon="-105.2308928">
  <ele>1595.36</ele>
  <time>2026-08-27T18:30:10Z</time>
  <course>150.12</course>
  <speed>0.28</speed>
  <fix>3d</fix>
</trkpt>
<trkpt lat="40.0727939" lon="-105.230892">
  <ele>1595.43</ele>
  <time>2026-08-27T18:30:10Z</time>
  <course>307.74</course>
  <speed>0.25</speed>
  <fix>3d</fix>
</trkpt>
<trkpt lat="40.072794" lon="-105.2308925">
  <ele>1595.36</ele>
  <time>2026-08-27T18:30:10Z</time>
  <course>148.77</course>
  <speed>0.26</speed>
  <fix>3d</fix>
</trkpt>
<trkpt lat="40.0727935" lon="-105.2308918">
  <ele>1595.43</ele>
  <time>2026-08-27T18:30:10Z</time>
  <course>307.93</course>
  <speed>0.20248456731316586</speed>
  <fix>3d</fix>
</trkpt>
<trkpt lat="40.0727937" lon="-105.2308921">
  <ele>1595.36</ele>
  <time>2026-08-27T18:30:10Z</time>
  <course>150.05</course>
  <speed>0.23</speed>
  <fix>3d</fix>
</trkpt>
<trkpt lat="40.0727932" lon="-105.2308916">
  <ele>1595.43</ele>
  <time>2026-08-27T18:30:10Z</time>
  <course>311.68</course>
  <speed>0.15264337522473748</speed>
  <fix>3d</fix>
</trkpt>
<trkpt lat="40.0727933" lon="-105.2308919">
  <ele>1595.36</ele>
  <time>2026-08-27T18:30:10Z</time>
  <course>154.97</course>
  <speed>0.18</speed>
  <fix>3d</fix>
</trkpt>
<trkpt lat="40.072793" lon="-105.2308915">
  <ele>1595.42</ele>
  <time>2026-08-27T18:30:10Z</time>
  <course>315.37</course>
  <speed>0.10816653826391968</speed>
  <fix>3d</fix>
</trkpt>
<trkpt lat="40.0727931" lon="-105.2308918">
  <ele>1595.36</ele>
  <time>2026-08-27T18:30:10Z</time>
  <course>159.77</course>
  <speed>0.14</speed>
  <fix>3d</fix>
</trkpt>
<trkpt lat="40.0727929" lon="-105.2308914">
  <ele>1595.42</ele>
  <time>2026-08-27T18:30:10Z</time>
  <course>315.07</course>
  <speed>0.07810249675906654</speed>
  <fix>3d</fix>
</trkpt>
<trkpt lat="40.0727928" lon="-105.2308917">
  <ele>1595.37</ele>
  <time>2026-08-27T18:30:10Z</time>
  <course>159.84</course>
  <speed>0.09</speed>
  <fix>3d</fix>
</trkpt>
<trkpt lat="40.0727928" lon="-105.2308913">
  <ele>1595.43</ele>
  <time>2026-08-27T18:30:10Z</time>
  <course>310.99</course>
  <speed>0.05</speed>
  <fix>3d</fix>
</trkpt>
<trkpt lat="40.0727927" lon="-105.2308916">
  <ele>1595.37</ele>
  <time>2026-08-27T18:30:10Z</time>
  <course>156.84</course>
  <speed>0.06</speed>
  <fix>3d</fix>
</trkpt>
<trkpt lat="40.0727927" lon="-105.2308913">
  <ele>1595.43</ele>
  <time>2026-08-27T18:30:10Z</time>
  <course>307.7</course>
  <speed>0.03605551275463989</speed>
  <fix>3d</fix>
</trkpt>
<trkpt lat="40.0727926" lon="-105.2308915">
  <ele>1595.37</ele>
  <time>2026-08-27T18:30:10Z</time>
  <course>170.87</course>
  <speed>0.03</speed>
  <fix>3d</fix>
</trkpt>
<trkpt lat="40.0727926" lon="-105.2308914">
  <ele>1595.44</ele>
  <time>2026-08-27T18:30:10Z</time>
  <course>309.14</course>
  <speed>0.04</speed>
  <fix>3d</fix>
</trkpt>
<trkpt lat="40.0727926" lon="-105.2308915">
  <ele>1595.37</ele>
  <time>2026-08-27T18:30:10Z</time>
  <course>204.89</course>
  <speed>0.04</speed>
  <fix>3d</fix>
</trkpt>
<trkpt lat="40.0727925" lon="-105.2308915">
  <ele>1595.44</ele>
  <time>2026-08-27T18:30:10Z</time>
  <course>313.73</course>
  <speed>0.0412310562561766</speed>
  <fix>3d</fix>
</trkpt>
<trkpt lat="40.0727925" lon="-105.2308916">
  <ele>1595.38</ele>
  <time>2026-08-27T18:30:10Z</time>
  <course>218.45</course>
  <speed>0.06</speed>
  <fix>3d</fix>
</trkpt>
<trkpt lat="40.0727925" lon="-105.2308915">
  <ele>1595.44</ele>
  <time>2026-08-27T18:30:10Z</time>
  <course>315.82</course>
  <speed>0.02</speed>
  <fix>3d</fix>
</trkpt>
<trkpt lat="40.0727924" lon="-105.2308917">
  <ele>1595.38</ele>
  <time>2026-08-27T18:30:10Z</time>
  <course>222.87</course>
  <speed>0.05</speed>
  <fix>3d</fix>
</trkpt>
<trkpt lat="40.0727924" lon="-105.2308915">
  <ele>1595.44</ele>
  <time>2026-08-27T18:30:10Z</time>
  <course>312.58</course>
  <speed>0.01</speed>
  <fix>3d</fix>
</trkpt>
<trkpt lat="40.0727924" lon="-105.2308917">
  <ele>1595.38</ele>
  <time>2026-08-27T18:30:10Z</time>
  <course>227.12</course>
  <speed>0.03</speed>
  <fix>3d</fix>
</trkpt>
<trkpt lat="40.0727924" lon="-105.2308915">
  <ele>1595.44</ele>
  <time>2026-08-27T18:30:10Z</time>
  <course>308.42</course>
  <speed>0.01</speed>
  <fix>3d</fix>
</trkpt>
<trkpt lat="40.0727923" lon="-105.2308918">
  <ele>1595.38</ele>
  <time>2026-08-27T18:30:10Z</time>
  <course>237.39</course>
  <speed>0.02</speed>
  <fix>3d</fix>
</trkpt>
<trkpt lat="40.0727924" lon="-105.2308916">
  <ele>1595.44</ele>
  <time>2026-08-27T18:30:10Z</time>
  <course>309.21</course>
  <speed>0.0316227766016838</speed>
  <fix>3d</fix>
</trkpt>
<trkpt lat="40.0727922" lon="-105.2308918">
  <ele>1595.38</ele>
  <time>2026-08-27T18:30:10Z</time>
  <course>236.23</course>
  <speed>0.03</speed>
  <fix>3d</fix>
</trkpt>
<trkpt lat="40.0727923" lon="-105.2308917">
  <ele>1595.43</ele>
  <time>2026-08-27T18:30:10Z</time>
  <course>313.97</course>
  <speed>0.0316227766016838</speed>
  <fix>3d</fix>
</trkpt>
<trkpt lat="40.0727922" lon="-105.2308919">
  <ele>1595.38</ele>
  <time>2026-08-27T18:30:10Z</time>
  <course>232.45</course>
  <speed>0.05</speed>
  <fix>3d</fix>
</trkpt>
<trkpt lat="40.0727922" lon="-105.2308918">
  <ele>1595.44</ele>
  <time>2026-08-27T18:30:10Z</time>
  <course>315.64</course>
  <speed>0.01</speed>
  <fix>3d</fix>
</trkpt>
<trkpt lat="40.0727921" lon="-105.230892">
  <ele>1595.38</ele>
  <time>2026-08-27T18:30:10Z</time>
  <course>233.23</course>
  <speed>0.04</speed>
  <fix>3d</fix>
</trkpt>
<trkpt lat="40.0727922" lon="-105.2308918">
  <ele>1595.44</ele>
  <time>2026-08-27T18:30:10Z</time>
  <course>311.61</course>
  <speed>0.01</speed>
  <fix>3d</fix>
</trkpt>
<trkpt lat="40.0727921" lon="-105.230892">
  <ele>1595.38</ele>
  <time>2026-08-27T18:30:10Z</time>
  <course>242.45</course>
  <speed>0.02</speed>
  <fix>3d</fix>
</trkpt>
<trkpt lat="40.0727922" lon="-105.2308918">
  <ele>1595.45</ele>
  <time>2026-08-27T18:30:10Z</time>
  <course>308.34</course>
  <speed>0.01</speed>
  <fix>3d</fix>
</trkpt>
<trkpt lat="40.0727921" lon="-105.2308921">
  <ele>1595.38</ele>
  <time>2026-08-27T18:30:10Z</time>
  <course>251.99</course>
  <speed>0.01</speed>
  <fix>3d</fix>
</trkpt>
<trkpt lat="40.0727921" lon="-105.2308919">
  <ele>1595.45</ele>
  <time>2026-08-27T18:30:10Z</time>
  <course>311.32</course>
  <speed>0.0316227766016838</speed>
  <fix>3d</fix>
</trkpt>
<trkpt lat="40.0727921" lon="-105.2308922">
  <ele>1595.38</ele>
  <time>2026-08-27T18:30:10Z</time>
  <course>237.82</course>
  <speed>0.03</speed>
  <fix>3d</fix>
</trkpt>
<trkpt lat="40.0727921" lon="-105.230892">
  <ele>1595.45</ele>
  <time>2026-08-27T18:30:10Z</time>
  <course>315.59</course>
  <speed>0.02</speed>
  <fix>3d</fix>
</trkpt>
<trkpt lat="40.0727921" lon="-105.2308923">
  <ele>1595.38</ele>
  <time>2026-08-27T18:30:10Z</time>
  <course>233.75</course>
  <speed>0.05</speed>
  <fix>3d</fix>
</trkpt>
<trkpt lat="40.0727921" lon="-105.2308921">
  <ele>1595.45</ele>
  <time>2026-08-27T18:30:10Z</time>
  <course>313.69</course>
  <speed>0.01</speed>
  <fix>3d</fix>
</trkpt>
<trkpt lat="40.072792" lon="-105.2308924">
  <ele>1595.38</ele>
  <time>2026-08-27T18:30:10Z</time>
  <course>239.07</course>
  <speed>0.03</speed>
  <fix>3d</fix>
</trkpt>
<trkpt lat="40.0727921" lon="-105.2308921">
  <ele>1595.45</ele>
  <time>2026-08-27T18:30:10Z</time>
  <course>309.06</course>
  <speed>0.0</speed>
  <fix>3d</fix>
</trkpt>
<trkpt lat="40.072792" lon="-105.2308924">
  <ele>1595.37</ele>
  <time>2026-08-27T18:30:10Z</time>
  <course>258.28</course>
  <speed>0.01</speed>
  <fix>3d</fix>
</trkpt>
<trkpt lat="40.072792" lon="-105.2308922">
  <ele>1595.44</ele>
  <time>2026-08-27T18:30:10Z</time>
  <course>310.56</course>
  <speed>0.0316227766016838</speed>
  <fix>3d</fix>
</trkpt>
<trkpt lat="40.072792" lon="-105.2308925">
  <ele>1595.37</ele>
  <time>2026-08-27T18:30:10Z</time>
  <course>242.24</course>
  <speed>0.02</speed>
  <fix>3d</fix>
</trkpt>
<trkpt lat="40.072792" lon="-105.2308923">
  <ele>1595.44</ele>
  <time>2026-08-27T18:30:10Z</time>
  <course>315.28</course>
  <speed>0.02</speed>
  <fix>3d</fix>
</trkpt>
<trkpt lat="40.072792" lon="-105.2308925">
  <ele>1595.37</ele>
  <time>2026-08-27T18:30:10Z</time>
  <course>234.18</course>
  <speed>0.04</speed>
  <fix>3d</fix>
</trkpt>
<trkpt lat="40.0727919" lon="-105.2308923">
  <ele>1595.43</ele>
  <time>2026-08-27T18:30:10Z</time>
  <course>313.74</course>
  <speed>0.01</speed>
  <fix>3d</fix>
</trkpt>
<trkpt lat="40.0727919" lon="-105.2308926">
  <ele>1595.37</ele>
  <time>2026-08-27T18:30:10Z</time>
  <course>238.63</course>
  <speed>0.03</speed>
  <fix>3d</fix>
</trkpt>
<trkpt lat="40.0727919" lon="-105.2308924">
  <ele>1595.43</ele>
  <time>2026-08-27T18:30:10Z</time>
  <course>309.16</course>
  <speed>0.0</speed>
  <fix>3d</fix>
</trkpt>
<trkpt lat="40.0727919" lon="-105.2308927">
  <ele>1595.37</ele>
  <time>2026-08-27T18:30:10Z</time>
  <course>258.31</course>
  <speed>0.01</speed>
  <fix>3d</fix>
</trkpt>
<trkpt lat="40.0727919" lon="-105.2308924">
  <ele>1595.44</ele>
  <time>2026-08-27T18:30:10Z</time>
  <course>311.37</course>
  <speed>0.0316227766016838</speed>
  <fix>3d</fix>
</trkpt>
<trkpt lat="40.0727919" lon="-105.2308927">
  <ele>1595.37</ele>
  <time>2026-08-27T18:30:10Z</time>
  <course>239.42</course>
  <speed>0.03</speed>
  <fix>3d</fix>
</trkpt>
<trkpt lat="40.0727919" lon="-105.2308925">
  <ele>1595.44</ele>
  <time>2026-08-27T18:30:10Z</time>
  <course>315.53</course>
  <speed>0.01</speed>
  <fix>3d</fix>
</trkpt>
<trkpt lat="40.0727918" lon="-105.2308928">
  <ele>1595.37</ele>
  <time>2026-08-27T18:30:10Z</time>
  <course>232.9</course>
  <speed>0.04</speed>
  <fix>3d</fix>
</trkpt>
<trkpt lat="40.0727919" lon="-105.2308926">
  <ele>1595.44</ele>
  <time>2026-08-27T18:30:10Z</time>
  <course>312.27</course>
  <speed>0.01</speed>
  <fix>3d</fix>
</trkpt>
<trkpt lat="40.0727918" lon="-105.2308929">
  <ele>1595.37</ele>
  <time>2026-08-27T18:30:10Z</time>
  <course>241.23</course>
  <speed>0.02</speed>
  <fix>3d</fix>
</trkpt>
<trkpt lat="40.0727918" lon="-105.2308926">
  <ele>1595.44</ele>
  <time>2026-08-27T18:30:10Z</time>
  <course>309.32</course>
  <speed>0.01</speed>
  <fix>3d</fix>
</trkpt>
<trkpt lat="40.0727918" lon="-105.2308929">
  <ele>1595.37</ele>
  <time>2026-08-27T18:30:10Z</time>
  <course>253.02</course>
  <speed>0.01</speed>
  <fix>3d</fix>
</trkpt>
<trkpt lat="40.0727918" lon="-105.2308927">
  <ele>1595.44</ele>
  <time>2026-08-27T18:30:10Z</time>
  <course>313.8</course>
  <speed>0.0316227766016838</speed>
  <fix>3d</fix>
</trkpt>
<trkpt lat="40.0727918" lon="-105.2308929">
  <ele>1595.37</ele>
  <time>2026-08-27T18:30:10Z</time>
  <course>234.83</course>
  <speed>0.03</speed>
  <fix>3d</fix>
</trkpt>
<trkpt lat="40.0727918" lon="-105.2308928">
  <ele>1595.44</ele>
  <time>2026-08-27T18:30:10Z</time>
  <course>314.62</course>
  <speed>0.01</speed>
  <fix>3d</fix>
</trkpt>
<trkpt lat="40.0727917" lon="-105.230893">
  <ele>1595.37</ele>
  <time>2026-08-27T18:30:10Z</time>
  <course>234.36</course>
  <speed>0.03</speed>
  <fix>3d</fix>
</trkpt>
<trkpt lat="40.0727918" lon="-105.2308928">
  <ele>1595.44</ele>
  <time>2026-08-27T18:30:10Z</time>
  <course>309.8</course>
  <speed>0.0</speed>
  <fix>3d</fix>
</trkpt>
<trkpt lat="40.0727916" lon="-105.230893">
  <ele>1595.37</ele>
  <time>2026-08-27T18:30:10Z</time>
  <course>252.79</course>
  <speed>0.01</speed>
  <fix>3d</fix>
</trkpt>
<trkpt lat="40.0727917" lon="-105.2308929">
  <ele>1595.45</ele>
  <time>2026-08-27T18:30:10Z</time>
  <course>312.07</course>
  <speed>0.0316227766016838</speed>
  <fix>3d</fix>
</trkpt>
<trkpt lat="40.0727916" lon="-105.2308931">
  <ele>1595.37</ele>
  <time>2026-08-27T18:30:10Z</time>
  <course>239.19</course>
  <speed>0.02</speed>
  <fix>3d</fix>
</trkpt>
<trkpt lat="40.0727917" lon="-105.2308929">
  <ele>1595.45</ele>
  <time>2026-08-27T18:30:10Z</time>
  <course>315.22</course>
  <speed>0.01</speed>
  <fix>3d</fix>
</trkpt>
<trkpt lat="40.0727916" lon="-105.2308932">
  <ele>1595.37</ele>
  <time>2026-08-27T18:30:10Z</time>
  <course>233.08</course>
  <speed>0.04</speed>
  <fix>3d</fix>
</trkpt>
<trkpt lat="40.0727916" lon="-105.230893">
  <ele>1595.45</ele>
  <time>2026-08-27T18:30:10Z</time>
  <course>310.69</course>
  <speed>0.01</speed>
  <fix>3d</fix>
</trkpt>
<trkpt lat="40.0727915" lon="-105.2308932">
  <ele>1595.36</ele>
  <time>2026-08-27T18:30:10Z</time>
  <course>245.28</course>
  <speed>0.02</speed>
  <fix>3d</fix>
</trkpt>
<trkpt lat="40.0727916" lon="-105.230893">
  <ele>1595.45</ele>
  <time>2026-08-27T18:30:10Z</time>
  <course>311.52</course>
  <speed>0.0316227766016838</speed>
  <fix>3d</fix>
</trkpt>
<trkpt lat="40.0727915" lon="-105.2308933">
  <ele>1595.36</ele>
  <time>2026-08-27T18:30:10Z</time>
  <course>240.76</course>
  <speed>0.02</speed>
  <fix>3d</fix>
</trkpt>
<trkpt lat="40.0727915" lon="-105.2308931">
  <ele>1595.45</ele>
  <time>2026-08-27T18:30:10Z</time>
  <course>315.22</course>
  <speed>0.01</speed>
  <fix>3d</fix>
</trkpt>
<trkpt lat="40.0727915" lon="-105.2308934">
  <ele>1595.36</ele>
  <time>2026-08-27T18:30:10Z</time>
  <course>232.99</course>
  <speed>0.04</speed>
  <fix>3d</fix>
</trkpt>
<trkpt lat="40.0727915" lon="-105.2308931">
  <ele>1595.45</ele>
  <time>2026-08-27T18:30:10Z</time>
  <course>310.89</course>
  <speed>0.01</speed>
  <fix>3d</fix>
</trkpt>
<trkpt lat="40.0727915" lon="-105.2308934">
  <ele>1595.35</ele>
  <time>2026-08-27T18:30:10Z</time>
  <course>244.77</course>
  <speed>0.02</speed>
  <fix>3d</fix>
</trkpt>
<trkpt lat="40.0727915" lon="-105.2308932">
  <ele>1595.45</ele>
  <time>2026-08-27T18:30:11Z</time>
  <course>311.92</course>
  <speed>0.0316227766016838</speed>
  <fix>3d</fix>
</trkpt>
<trkpt lat="40.0727915" lon="-105.2308935">
  <ele>1595.35</ele>
  <time>2026-08-27T18:30:11Z</time>
  <course>242.72</course>
  <speed>0.02</speed>
  <fix>3d</fix>
</trkpt>
<trkpt lat="40.0727915" lon="-105.2308933">
  <ele>1595.44</ele>
  <time>2026-08-27T18:30:11Z</time>
  <course>314.92</course>
  <speed>0.0</speed>
  <fix>3d</fix>
</trkpt>
<trkpt lat="40.0727915" lon="-105.2308936">
  <ele>1595.35</ele>
  <time>2026-08-27T18:30:11Z</time>
  <course>235.69</course>
  <speed>0.04</speed>
  <fix>3d</fix>
</trkpt>
<trkpt lat="40.0727915" lon="-105.2308933">
  <ele>1595.44</ele>
  <time>2026-08-27T18:30:11Z</time>
  <course>310.44</course>
  <speed>0.0</speed>
  <fix>3d</fix>
</trkpt>
<trkpt lat="40.0727915" lon="-105.2308937">
  <ele>1595.34</ele>
  <time>2026-08-27T18:30:11Z</time>
  <course>250.62</course>
  <speed>0.02</speed>
  <fix>3d</fix>
</trkpt>
<trkpt lat="40.0727914" lon="-105.2308934">
  <ele>1595.44</ele>
  <time>2026-08-27T18:30:11Z</time>
  <course>313.21</course>
  <speed>0.0316227766016838</speed>
  <fix>3d</fix>
</trkpt>
<trkpt lat="40.0727914" lon="-105.2308937">
  <ele>1595.34</ele>
  <time>2026-08-27T18:30:11Z</time>
  <course>243.03</course>
  <speed>0.03</speed>
  <fix>3d</fix>
</trkpt>
<trkpt lat="40.0727914" lon="-105.2308935">
  <ele>1595.43</ele>
  <time>2026-08-27T18:30:11Z</time>
  <course>313.76</course>
  <speed>0.01</speed>
  <fix>3d</fix>
</trkpt>
<trkpt lat="40.0727914" lon="-105.2308937">
  <ele>1595.34</ele>
  <time>2026-08-27T18:30:11Z</time>
  <course>239.53</course>
  <speed>0.03</speed>
  <fix>3d</fix>
</trkpt>
<trkpt lat="40.0727914" lon="-105.2308935">
  <ele>1595.43</ele>
  <time>2026-08-27T18:30:11Z</time>
  <course>310.46</course>
  <speed>0.01</speed>
  <fix>3d</fix>
</trkpt>
<trkpt lat="40.0727914" lon="-105.2308938">
  <ele>1595.34</ele>
  <time>2026-08-27T18:30:11Z</time>
  <course>252.08</course>
  <speed>0.02</speed>
  <fix>3d</fix>
</trkpt>
<trkpt lat="40.0727914" lon="-105.2308936">
  <ele>1595.42</ele>
  <time>2026-08-27T18:30:11Z</time>
  <course>314.69</course>
  <speed>0.01</speed>
  <fix>3d</fix>
</trkpt>
<trkpt lat="40.0727914" lon="-105.2308939">
  <ele>1595.34</ele>
  <time>2026-08-27T18:30:11Z</time>
  <course>240.2</course>
  <speed>0.03</speed>
  <fix>3d</fix>
</trkpt>
<trkpt lat="40.0727914" lon="-105.2308937">
  <ele>1595.42</ele>
  <time>2026-08-27T18:30:11Z</time>
  <course>311.41</course>
  <speed>0.01</speed>
  <fix>3d</fix>
</trkpt>
<trkpt lat="40.0727913" lon="-105.2308939">
  <ele>1595.34</ele>
  <time>2026-08-27T18:30:11Z</time>
  <course>245.23</course>
  <speed>0.03</speed>
  <fix>3d</fix>
</trkpt>
<trkpt lat="40.0727913" lon="-105.2308937">
  <ele>1595.43</ele>
  <time>2026-08-27T18:30:11Z</time>
  <course>312.64</course>
  <speed>0.0316227766016838</speed>
  <fix>3d</fix>
</trkpt>
<trkpt lat="40.0727913" lon="-105.230894">
  <ele>1595.34</ele>
  <time>2026-08-27T18:30:11Z</time>
  <course>245.25</course>
  <speed>0.03</speed>
  <fix>3d</fix>
</trkpt>
<trkpt lat="40.0727913" lon="-105.2308938">
  <ele>1595.44</ele>
  <time>2026-08-27T18:30:11Z</time>
  <course>313.68</course>
  <speed>0.01</speed>
  <fix>3d</fix>
</trkpt>
<trkpt lat="40.0727913" lon="-105.2308941">
  <ele>1595.34</ele>
  <time>2026-08-27T18:30:11Z</time>
  <course>239.91</course>
  <speed>0.03</speed>
  <fix>3d</fix>
</trkpt>
<trkpt lat="40.0727913" lon="-105.2308939">
  <ele>1595.44</ele>
  <time>2026-08-27T18:30:11Z</time>
  <course>311.0</course>
  <speed>0.022360679774997897</speed>
  <fix>3d</fix>
</trkpt>
<trkpt lat="40.0727913" lon="-105.2308942">
  <ele>1595.34</ele>
  <time>2026-08-27T18:30:11Z</time>
  <course>247.38</course>
  <speed>0.03</speed>
  <fix>3d</fix>
</trkpt>
<trkpt lat="40.0727912" lon="-105.230894">
  <ele>1595.44</ele>
  <time>2026-08-27T18:30:11Z</time>
  <course>314.62</course>
  <speed>0.01</speed>
  <fix>3d</fix>
</trkpt>
<trkpt lat="40.0727912" lon="-105.2308942">
  <ele>1595.34</ele>
  <time>2026-08-27T18:30:11Z</time>
  <course>240.55</course>
  <speed>0.04</speed>
  <fix>3d</fix>
</trkpt>
<trkpt lat="40.0727912" lon="-105.230894">
  <ele>1595.43</ele>
  <time>2026-08-27T18:30:11Z</time>
  <course>310.88</course>
  <speed>0.0</speed>
  <fix>3d</fix>
</trkpt>
<trkpt lat="40.0727912" lon="-105.2308943">
  <ele>1595.34</ele>
  <time>2026-08-27T18:30:11Z</time>
  <course>245.53</course>
  <speed>0.03</speed>
  <fix>3d</fix>
</trkpt>
<trkpt lat="40.0727912" lon="-105.2308941">
  <ele>1595.43</ele>
  <time>2026-08-27T18:30:11Z</time>
  <course>314.32</course>
  <speed>0.022360679774997897</speed>
  <fix>3d</fix>
</trkpt>
<trkpt lat="40.0727912" lon="-105.2308944">
  <ele>1595.34</ele>
  <time>2026-08-27T18:30:11Z</time>
  <course>242.51</course>
  <speed>0.03</speed>
  <fix>3d</fix>
</trkpt>
<trkpt lat="40.0727912" lon="-105.2308942">
  <ele>1595.43</ele>
  <time>2026-08-27T18:30:11Z</time>
  <course>311.45</course>
  <speed>0.0</speed>
  <fix>3d</fix>
</trkpt>
<trkpt lat="40.0727911" lon="-105.2308945">
  <ele>1595.34</ele>
  <time>2026-08-27T18:30:11Z</time>
  <course>243.9</course>
  <speed>0.03</speed>
  <fix>3d</fix>
</trkpt>
<trkpt lat="40.0727911" lon="-105.2308943">
  <ele>1595.42</ele>
  <time>2026-08-27T18:30:11Z</time>
  <course>313.73</course>
  <speed>0.022360679774997897</speed>
  <fix>3d</fix>
</trkpt>
<trkpt lat="40.072791" lon="-105.2308946">
  <ele>1595.34</ele>
  <time>2026-08-27T18:30:11Z</time>
  <course>244.21</course>
  <speed>0.03</speed>
  <fix>3d</fix>
</trkpt>
<trkpt lat="40.0727911" lon="-105.2308943">
  <ele>1595.42</ele>
  <time>2026-08-27T18:30:11Z</time>
  <course>311.94</course>
  <speed>0.0</speed>
  <fix>3d</fix>
</trkpt>
<trkpt lat="40.072791" lon="-105.2308946">
  <ele>1595.34</ele>
  <time>2026-08-27T18:30:11Z</time>
  <course>244.19</course>
  <speed>0.03</speed>
  <fix>3d</fix>
</trkpt>
<trkpt lat="40.0727911" lon="-105.2308944">
  <ele>1595.43</ele>
  <time>2026-08-27T18:30:11Z</time>
  <course>313.4</course>
  <speed>0.022360679774997897</speed>
  <fix>3d</fix>
</trkpt>
<trkpt lat="40.072791" lon="-105.2308947">
  <ele>1595.35</ele>
  <time>2026-08-27T18:30:11Z</time>
  <course>244.89</course>
  <speed>0.03</speed>
  <fix>3d</fix>
</trkpt>
<trkpt lat="40.0727911" lon="-105.2308945">
  <ele>1595.43</ele>
  <time>2026-08-27T18:30:11Z</time>
  <course>312.14</course>
  <speed>0.0</speed>
  <fix>3d</fix>
</trkpt>
<trkpt lat="40.072791" lon="-105.2308948">
  <ele>1595.35</ele>
  <time>2026-08-27T18:30:11Z</time>
  <course>244.69</course>
  <speed>0.03</speed>
  <fix>3d</fix>
</trkpt>
<trkpt lat="40.072791" lon="-105.2308946">
  <ele>1595.44</ele>
  <time>2026-08-27T18:30:11Z</time>
  <course>313.5</course>
  <speed>0.022360679774997897</speed>
  <fix>3d</fix>
</trkpt>
<trkpt lat="40.0727909" lon="-105.2308949">
  <ele>1595.35</ele>
  <time>2026-08-27T18:30:11Z</time>
  <course>245.27</course>
  <speed>0.03</speed>
  <fix>3d</fix>
</trkpt>
<trkpt lat="40.072791" lon="-105.2308946">
  <ele>1595.44</ele>
  <time>2026-08-27T18:30:11Z</time>
  <course>311.99</course>
  <speed>0.0</speed>
  <fix>3d</fix>
</trkpt>
<trkpt lat="40.0727909" lon="-105.2308949">
  <ele>1595.35</ele>
  <time>2026-08-27T18:30:11Z</time>
  <course>246.15</course>
  <speed>0.03</speed>
  <fix>3d</fix>
</trkpt>
<trkpt lat="40.072791" lon="-105.2308947">
  <ele>1595.44</ele>
  <time>2026-08-27T18:30:11Z</time>
  <course>313.83</course>
  <speed>0.022360679774997897</speed>
  <fix>3d</fix>
</trkpt>
<trkpt lat="40.0727909" lon="-105.230895">
  <ele>1595.35</ele>
  <time>2026-08-27T18:30:11Z</time>
  <course>246.52</course>
  <speed>0.03</speed>
  <fix>3d</fix>
</trkpt>
<trkpt lat="40.0727909" lon="-105.2308948">
  <ele>1595.44</ele>
  <time>2026-08-27T18:30:11Z</time>
  <course>311.65</course>
  <speed>0.0</speed>
  <fix>3d</fix>
</trkpt>
<trkpt lat="40.0727909" lon="-105.2308951">
  <ele>1595.35</ele>
  <time>2026-08-27T18:30:11Z</time>
  <course>247.05</course>
  <speed>0.03</speed>
  <fix>3d</fix>
</trkpt>
<trkpt lat="40.0727909" lon="-105.2308949">
  <ele>1595.44</ele>
  <time>2026-08-27T18:30:11Z</time>
  <course>314.16</course>
  <speed>0.01</speed>
  <fix>3d</fix>
</trkpt>
<trkpt lat="40.0727909" lon="-105.2308952">
  <ele>1595.35</ele>
  <time>2026-08-27T18:30:11Z</time>
  <course>248.49</course>
  <speed>0.03</speed>
  <fix>3d</fix>
</trkpt>
<trkpt lat="40.0727909" lon="-105.230895">
  <ele>1595.44</ele>
  <time>2026-08-27T18:30:11Z</time>
  <course>311.6</course>
  <speed>0.01</speed>
  <fix>3d</fix>
</trkpt>
<trkpt lat="40.0727909" lon="-105.2308953">
  <ele>1595.35</ele>
  <time>2026-08-27T18:30:11Z</time>
  <course>246.68</course>
  <speed>0.04</speed>
  <fix>3d</fix>
</trkpt>
<trkpt lat="40.0727909" lon="-105.2308951">
  <ele>1595.44</ele>
  <time>2026-08-27T18:30:11Z</time>
  <course>313.85</course>
  <speed>0.0</speed>
  <fix>3d</fix>
</trkpt>
<trkpt lat="40.0727908" lon="-105.2308954">
  <ele>1595.35</ele>
  <time>2026-08-27T18:30:11Z</time>
  <course>252.26</course>
  <speed>0.03</speed>
  <fix>3d</fix>
</trkpt>
<trkpt lat="40.0727908" lon="-105.2308951">
  <ele>1595.44</ele>
  <time>2026-08-27T18:30:11Z</time>
  <course>312.48</course>
  <speed>0.022360679774997897</speed>
  <fix>3d</fix>
</trkpt>
<trkpt lat="40.0727908" lon="-105.2308954">
  <ele>1595.35</ele>
  <time>2026-08-27T18:30:11Z</time>
  <course>246.07</course>
  <speed>0.04</speed>
  <fix>3d</fix>
</trkpt>
<trkpt lat="40.0727908" lon="-105.2308952">
  <ele>1595.43</ele>
  <time>2026-08-27T18:30:11Z</time>
  <course>312.57</course>
  <speed>0.0</speed>
  <fix>3d</fix>
</trkpt>
<trkpt lat="40.0727908" lon="-105.2308955">
  <ele>1595.35</ele>
  <time>2026-08-27T18:30:11Z</time>
  <course>254.14</course>
  <speed>0.03</speed>
  <fix>3d</fix>
</trkpt>
<trkpt lat="40.0727908" lon="-105.2308953">
  <ele>1595.43</ele>
  <time>2026-08-27T18:30:11Z</time>
  <course>313.82</course>
  <speed>0.01414213562373095</speed>
  <fix>3d</fix>
</trkpt>
<trkpt lat="40.0727908" lon="-105.2308956">
  <ele>1595.35</ele>
  <time>2026-08-27T18:30:11Z</time>
  <course>248.95</course>
  <speed>0.04</speed>
  <fix>3d</fix>
</trkpt>
<trkpt lat="40.0727908" lon="-105.2308954">
  <ele>1595.43</ele>
  <time>2026-08-27T18:30:11Z</time>
  <course>311.82</course>
  <speed>0.01</speed>
  <fix>3d</fix>
</trkpt>
<trkpt lat="40.0727907" lon="-105.2308957">
  <ele>1595.35</ele>
  <time>2026-08-27T18:30:11Z</time>
  <course>249.22</course>
  <speed>0.04</speed>
  <fix>3d</fix>
</trkpt>
<trkpt lat="40.0727908" lon="-105.2308955">
  <ele>1595.43</ele>
  <time>2026-08-27T18:30:11Z</time>
  <course>313.44</course>
  <speed>0.0</speed>
  <fix>3d</fix>
</trkpt>
<trkpt lat="40.0727907" lon="-105.2308958">
  <ele>1595.35</ele>
  <time>2026-08-27T18:30:11Z</time>
  <course>258.05</course>
  <speed>0.03</speed>
  <fix>3d</fix>
</trkpt>
<trkpt lat="40.0727907" lon="-105.2308956">
  <ele>1595.43</ele>
  <time>2026-08-27T18:30:11Z</time>
  <course>313.28</course>
  <speed>0.022360679774997897</speed>
  <fix>3d</fix>
</trkpt>
<trkpt lat="40.0727907" lon="-105.2308959">
  <ele>1595.35</ele>
  <time>2026-08-27T18:30:11Z</time>
  <course>246.86</course>
  <speed>0.04</speed>
  <fix>3d</fix>
</trkpt>
<trkpt lat="40.0727907" lon="-105.2308957">
  <ele>1595.43</ele>
  <time>2026-08-27T18:30:11Z</time>
  <course>311.93</course>
  <speed>0.0</speed>
  <fix>3d</fix>
</trkpt>
<trkpt lat="40.0727907" lon="-105.230896">
  <ele>1595.35</ele>
  <time>2026-08-27T18:30:11Z</time>
  <course>253.16</course>
  <speed>0.03</speed>
  <fix>3d</fix>
</trkpt>
<trkpt lat="40.0727907" lon="-105.2308958">
  <ele>1595.44</ele>
  <time>2026-08-27T18:30:11Z</time>
  <course>313.5</course>
  <speed>0.0</speed>
  <fix>3d</fix>
</trkpt>
<trkpt lat="40.0727906" lon="-105.2308961">
  <ele>1595.35</ele>
  <time>2026-08-27T18:30:11Z</time>
  <course>258.95</course>
  <speed>0.03</speed>
  <fix>3d</fix>
</trkpt>
<trkpt lat="40.0727907" lon="-105.2308958">
  <ele>1595.44</ele>
  <time>2026-08-27T18:30:11Z</time>
  <course>313.43</course>
  <speed>0.022360679774997897</speed>
  <fix>3d</fix>
</trkpt>
<trkpt lat="40.0727906" lon="-105.2308962">
  <ele>1595.36</ele>
  <time>2026-08-27T18:30:11Z</time>
  <course>246.26</course>
  <speed>0.04</speed>
  <fix>3d</fix>
</trkpt>
<trkpt lat="40.0727907" lon="-105.2308959">
  <ele>1595.44</ele>
  <time>2026-08-27T18:30:11Z</time>
  <course>312.1</course>
  <speed>0.01414213562373095</speed>
  <fix>3d</fix>
</trkpt>
<trkpt lat="40.0727906" lon="-105.2308963">
  <ele>1595.36</ele>
  <time>2026-08-27T18:30:11Z</time>
  <course>251.77</course>
  <speed>0.04</speed>
  <fix>3d</fix>
</trkpt>
<trkpt lat="40.0727906" lon="-105.230896">
  <ele>1595.45</ele>
  <time>2026-08-27T18:30:11Z</time>
  <course>312.91</course>
  <speed>0.0</speed>
  <fix>3d</fix>
</trkpt>
<trkpt lat="40.0727906" lon="-105.2308963">
  <ele>1595.36</ele>
  <time>2026-08-27T18:30:11Z</time>
  <course>263.56</course>
  <speed>0.03</speed>
  <fix>3d</fix>
</trkpt>
<trkpt lat="40.0727906" lon="-105.2308961">
  <ele>1595.45</ele>
  <time>2026-08-27T18:30:11Z</time>
  <course>313.82</course>
  <speed>0.0</speed>
  <fix>3d</fix>
</trkpt>
<trkpt lat="40.0727906" lon="-105.2308964">
  <ele>1595.36</ele>
  <time>2026-08-27T18:30:11Z</time>
  <course>249.95</course>
  <speed>0.04</speed>
  <fix>3d</fix>
</trkpt>
<trkpt lat="40.0727906" lon="-105.2308962">
  <ele>1595.45</ele>
  <time>2026-08-27T18:30:11Z</time>
  <course>312.98</course>
  <speed>0.022360679774997897</speed>
  <fix>3d</fix>
</trkpt>
<trkpt lat="40.0727905" lon="-105.2308965">
  <ele>1595.36</ele>
  <time>2026-08-27T18:30:11Z</time>
  <course>246.34</course>
  <speed>0.05</speed>
  <fix>3d</fix>
</trkpt>
<trkpt lat="40.0727906" lon="-105.2308963">
  <ele>1595.45</ele>
  <time>2026-08-27T18:30:11Z</time>
  <course>312.27</course>
  <speed>0.01</speed>
  <fix>3d</fix>
</trkpt>
<trkpt lat="40.0727904" lon="-105.2308966">
  <ele>1595.36</ele>
  <time>2026-08-27T18:30:11Z</time>
  <course>259.0</course>
  <speed>0.03</speed>
  <fix>3d</fix>
</trkpt>
<trkpt lat="40.0727905" lon="-105.2308964">
  <ele>1595.44</ele>
  <time>2026-08-27T18:30:11Z</time>
  <course>312.88</course>
  <speed>0.0</speed>
  <fix>3d</fix>
</trkpt>
<trkpt lat="40.0727904" lon="-105.2308967">
  <ele>1595.35</ele>
  <time>2026-08-27T18:30:11Z</time>
  <course>267.2</course>
  <speed>0.03</speed>
  <fix>3d</fix>
</trkpt>
<trkpt lat="40.0727905" lon="-105.2308965">
  <ele>1595.44</ele>
  <time>2026-08-27T18:30:11Z</time>
  <course>313.66</course>
  <speed>0.0</speed>
  <fix>3d</fix>
</trkpt>
<trkpt lat="40.0727904" lon="-105.2308968">
  <ele>1595.35</ele>
  <time>2026-08-27T18:30:11Z</time>
  <course>253.06</course>
  <speed>0.04</speed>
  <fix>3d</fix>
</trkpt>
<trkpt lat="40.0727905" lon="-105.2308966">
  <ele>1595.43</ele>
  <time>2026-08-27T18:30:11Z</time>
  <course>313.53</course>
  <speed>0.01414213562373095</speed>
  <fix>3d</fix>
</trkpt>
<trkpt lat="40.0727904" lon="-105.2308969">
  <ele>1595.35</ele>
  <time>2026-08-27T18:30:11Z</time>
  <course>246.35</course>
  <speed>0.05</speed>
  <fix>3d</fix>
</trkpt>
<trkpt lat="40.0727905" lon="-105.2308967">
  <ele>1595.42</ele>
  <time>2026-08-27T18:30:11Z</time>
  <course>312.83</course>
  <speed>0.022360679774997897</speed>
  <fix>3d</fix>
</trkpt>
<trkpt lat="40.0727904" lon="-105.230897">
  <ele>1595.35</ele>
  <time>2026-08-27T18:30:11Z</time>
  <course>250.66</course>
  <speed>0.04</speed>
  <fix>3d</fix>
</trkpt>
<trkpt lat="40.0727904" lon="-105.2308968">
  <ele>1595.42</ele>
  <time>2026-08-27T18:30:11Z</time>
  <course>312.41</course>
  <speed>0.01414213562373095</speed>
  <fix>3d</fix>
</trkpt>
<trkpt lat="40.0727903" lon="-105.2308971">
  <ele>1595.35</ele>
  <time>2026-08-27T18:30:11Z</time>
  <course>263.3</course>
  <speed>0.03</speed>
  <fix>3d</fix>
</trkpt>
<trkpt lat="40.0727904" lon="-105.2308969">
  <ele>1595.42</ele>
  <time>2026-08-27T18:30:11Z</time>
  <course>312.48</course>
  <speed>0.0</speed>
  <fix>3d</fix>
</trkpt>
<trkpt lat="40.0727903" lon="-105.2308972">
  <ele>1595.35</ele>
  <time>2026-08-27T18:30:11Z</time>
  <course>272.11</course>
  <speed>0.03</speed>
  <fix>3d</fix>
</trkpt>
<trkpt lat="40.0727904" lon="-105.230897">
  <ele>1595.43</ele>
  <time>2026-08-27T18:30:11Z</time>
  <course>312.86</course>
  <speed>0.0</speed>
  <fix>3d</fix>
</trkpt>
<trkpt lat="40.0727903" lon="-105.2308973">
  <ele>1595.35</ele>
  <time>2026-08-27T18:30:11Z</time>
  <course>266.72</course>
  <speed>0.03</speed>
  <fix>3d</fix>
</trkpt>
<trkpt lat="40.0727904" lon="-105.230897">
  <ele>1595.43</ele>
  <time>2026-08-27T18:30:11Z</time>
  <course>313.24</course>
  <speed>0.0</speed>
  <fix>3d</fix>
</trkpt>
<trkpt lat="40.0727903" lon="-105.2308974">
  <ele>1595.35</ele>
  <time>2026-08-27T18:30:11Z</time>
  <course>257.16</course>
  <speed>0.04</speed>
  <fix>3d</fix>
</trkpt>
<trkpt lat="40.0727904" lon="-105.2308971">
  <ele>1595.43</ele>
  <time>2026-08-27T18:30:11Z</time>
  <course>313.48</course>
  <speed>0.0</speed>
  <fix>3d</fix>
</trkpt>
<trkpt lat="40.0727903" lon="-105.2308975">
  <ele>1595.36</ele>
  <time>2026-08-27T18:30:11Z</time>
  <course>251.16</course>
  <speed>0.04</speed>
  <fix>3d</fix>
</trkpt>
<trkpt lat="40.0727903" lon="-105.2308972">
  <ele>1595.44</ele>
  <time>2026-08-27T18:30:11Z</time>
  <course>313.56</course>
  <speed>0.0</speed>
  <fix>3d</fix>
</trkpt>
<trkpt lat="40.0727903" lon="-105.2308976">
  <ele>1595.36</ele>
  <time>2026-08-27T18:30:11Z</time>
  <course>248.64</course>
  <speed>0.05</speed>
  <fix>3d</fix>
</trkpt>
<trkpt lat="40.0727903" lon="-105.2308973">
  <ele>1595.43</ele>
  <time>2026-08-27T18:30:11Z</time>
  <course>313.56</course>
  <speed>0.01</speed>
  <fix>3d</fix>
</trkpt>
<trkpt lat="40.0727903" lon="-105.2308977">
  <ele>1595.36</ele>
  <time>2026-08-27T18:30:11Z</time>
  <course>248.06</course>
  <speed>0.05</speed>
  <fix>3d</fix>
</trkpt>
<trkpt lat="40.0727903" lon="-105.2308975">
  <ele>1595.43</ele>
  <time>2026-08-27T18:30:11Z</time>
  <course>313.52</course>
  <speed>0.01414213562373095</speed>
  <fix>3d</fix>
</trkpt>
<trkpt lat="40.0727903" lon="-105.2308977">
  <ele>1595.37</ele>
  <time>2026-08-27T18:30:11Z</time>
  <course>248.3</course>
  <speed>0.05</speed>
  <fix>3d</fix>
</trkpt>
<trkpt lat="40.0727903" lon="-105.2308976">
  <ele>1595.44</ele>
  <time>2026-08-27T18:30:11Z</time>
  <course>313.5</course>
  <speed>0.01414213562373095</speed>
  <fix>3d</fix>
</trkpt>
<trkpt lat="40.0727903" lon="-105.2308978">
  <ele>1595.37</ele>
  <time>2026-08-27T18:30:11Z</time>
  <course>248.75</course>
  <speed>0.05</speed>
  <fix>3d</fix>
</trkpt>
<trkpt lat="40.0727902" lon="-105.2308977">
  <ele>1595.44</ele>
  <time>2026-08-27T18:30:11Z</time>
  <course>313.51</course>
  <speed>0.01414213562373095</speed>
  <fix>3d</fix>
</trkpt>
<trkpt lat="40.0727903" lon="-105.2308979">
  <ele>1595.37</ele>
  <time>2026-08-27T18:30:11Z</time>
  <course>249.02</course>
  <speed>0.05</speed>
  <fix>3d</fix>
</trkpt>
<trkpt lat="40.0727902" lon="-105.2308978">
  <ele>1595.44</ele>
  <time>2026-08-27T18:30:11Z</time>
  <course>313.52</course>
  <speed>0.01414213562373095</speed>
  <fix>3d</fix>
</trkpt>
<trkpt lat="40.0727903" lon="-105.230898">
  <ele>1595.37</ele>
  <time>2026-08-27T18:30:11Z</time>
  <course>249.22</course>
  <speed>0.05</speed>
  <fix>3d</fix>
</trkpt>
<trkpt lat="40.0727902" lon="-105.2308979">
  <ele>1595.44</ele>
  <time>2026-08-27T18:30:11Z</time>
  <course>313.5</course>
  <speed>0.01414213562373095</speed>
  <fix>3d</fix>
</trkpt>
<trkpt lat="40.0727902" lon="-105.2308981">
  <ele>1595.37</ele>
  <time>2026-08-27T18:30:11Z</time>
  <course>249.73</course>
  <speed>0.05</speed>
  <fix>3d</fix>
</trkpt>
<trkpt lat="40.0727901" lon="-105.230898">
  <ele>1595.44</ele>
  <time>2026-08-27T18:30:11Z</time>
  <course>313.41</course>
  <speed>0.0</speed>
  <fix>3d</fix>
</trkpt>
<trkpt lat="40.0727902" lon="-105.2308982">
  <ele>1595.37</ele>
  <time>2026-08-27T18:30:11Z</time>
  <course>251.04</course>
  <speed>0.04</speed>
  <fix>3d</fix>
</trkpt>
<trkpt lat="40.0727901" lon="-105.2308981">
  <ele>1595.44</ele>
  <time>2026-08-27T18:30:11Z</time>
  <course>313.23</course>
  <speed>0.0</speed>
  <fix>3d</fix>
</trkpt>
<trkpt lat="40.0727902" lon="-105.2308983">
  <ele>1595.37</ele>
  <time>2026-08-27T18:30:11Z</time>
  <course>254.38</course>
  <speed>0.04</speed>
  <fix>3d</fix>
</trkpt>
<trkpt lat="40.0727901" lon="-105.2308982">
  <ele>1595.44</ele>
  <time>2026-08-27T18:30:11Z</time>
  <course>312.98</course>
  <speed>0.0</speed>
  <fix>3d</fix>
</trkpt>
<trkpt lat="40.0727902" lon="-105.2308984">
  <ele>1595.37</ele>
  <time>2026-08-27T18:30:11Z</time>
  <course>261.32</course>
  <speed>0.03</speed>
  <fix>3d</fix>
</trkpt>
<trkpt lat="40.0727901" lon="-105.2308983">
  <ele>1595.44</ele>
  <time>2026-08-27T18:30:11Z</time>
  <course>312.84</course>
  <speed>0.0</speed>
  <fix>3d</fix>
</trkpt>
<trkpt lat="40.0727902" lon="-105.2308985">
  <ele>1595.37</ele>
  <time>2026-08-27T18:30:11Z</time>
  <course>271.98</course>
  <speed>0.03</speed>
  <fix>3d</fix>
</trkpt>
<trkpt lat="40.0727901" lon="-105.2308984">
  <ele>1595.44</ele>
  <time>2026-08-27T18:30:11Z</time>
  <course>312.95</course>
  <speed>0.01414213562373095</speed>
  <fix>3d</fix>
</trkpt>
<trkpt lat="40.0727902" lon="-105.2308986">
  <ele>1595.37</ele>
  <time>2026-08-27T18:30:11Z</time>
  <course>279.58</course>
  <speed>0.03</speed>
  <fix>3d</fix>
</trkpt>
<trkpt lat="40.0727901" lon="-105.2308984">
  <ele>1595.43</ele>
  <time>2026-08-27T18:30:11Z</time>
  <course>313.29</course>
  <speed>0.01414213562373095</speed>
  <fix>3d</fix>
</trkpt>
<trkpt lat="40.0727902" lon="-105.2308987">
  <ele>1595.37</ele>
  <time>2026-08-27T18:30:11Z</time>
  <course>273.85</course>
  <speed>0.03</speed>
  <fix>3d</fix>
</trkpt>
<trkpt lat="40.0727902" lon="-105.2308985">
  <ele>1595.43</ele>
  <time>2026-08-27T18:30:11Z</time>
  <course>313.43</course>
  <speed>0.0</speed>
  <fix>3d</fix>
</trkpt>
<trkpt lat="40.0727902" lon="-105.2308987">
  <ele>1595.37</ele>
  <time>2026-08-27T18:30:11Z</time>
  <course>262.53</course>
  <speed>0.03</speed>
  <fix>3d</fix>
</trkpt>
<trkpt lat="40.0727902" lon="-105.2308986">
  <ele>1595.43</ele>
  <time>2026-08-27T18:30:11Z</time>
  <course>313.13</course>
  <speed>0.0</speed>
  <fix>3d</fix>
</trkpt>
<trkpt lat="40.0727902" lon="-105.2308988">
  <ele>1595.37</ele>
  <time>2026-08-27T18:30:11Z</time>
  <course>260.08</course>
  <speed>0.04</speed>
  <fix>3d</fix>
</trkpt>
<trkpt lat="40.0727902" lon="-105.2308987">
  <ele>1595.42</ele>
  <time>2026-08-27T18:30:11Z</time>
  <course>312.91</course>
  <speed>0.01</speed>
  <fix>3d</fix>
</trkpt>
<trkpt lat="40.0727902" lon="-105.2308989">
  <ele>1595.37</ele>
  <time>2026-08-27T18:30:11Z</time>
  <course>268.68</course>
  <speed>0.03</speed>
  <fix>3d</fix>
</trkpt>
<trkpt lat="40.0727902" lon="-105.2308987">
  <ele>1595.42</ele>
  <time>2026-08-27T18:30:11Z</time>
  <course>313.24</course>
  <speed>0.01414213562373095</speed>
  <fix>3d</fix>
</trkpt>
<trkpt lat="40.0727902" lon="-105.230899">
  <ele>1595.37</ele>
  <time>2026-08-27T18:30:11Z</time>
  <course>271.16</course>
  <speed>0.03</speed>
  <fix>3d</fix>
</trkpt>
<trkpt lat="40.0727902" lon="-105.2308988">
  <ele>1595.42</ele>
  <time>2026-08-27T18:30:11Z</time>
  <course>313.3</course>
  <speed>0.0</speed>
  <fix>3d</fix>
</trkpt>
<trkpt lat="40.0727902" lon="-105.2308991">
  <ele>1595.37</ele>
  <time>2026-08-27T18:30:11Z</time>
  <course>260.88</course>
  <speed>0.04</speed>
  <fix>3d</fix>
</trkpt>
<trkpt lat="40.0727902" lon="-105.2308989">
  <ele>1595.43</ele>
  <time>2026-08-27T18:30:11Z</time>
  <course>313.0</course>
  <speed>0.0</speed>
  <fix>3d</fix>
</trkpt>
<trkpt lat="40.0727902" lon="-105.2308992">
  <ele>1595.38</ele>
  <time>2026-08-27T18:30:11Z</time>
  <course>260.7</course>
  <speed>0.04</speed>
  <fix>3d</fix>
</trkpt>
<trkpt lat="40.0727902" lon="-105.230899">
  <ele>1595.44</ele>
  <time>2026-08-27T18:30:11Z</time>
  <course>313.25</course>
  <speed>0.01</speed>
  <fix>3d</fix>
</trkpt>
<trkpt lat="40.0727902" lon="-105.2308993">
  <ele>1595.38</ele>
  <time>2026-08-27T18:30:11Z</time>
  <course>264.2</course>
  <speed>0.03</speed>
  <fix>3d</fix>
</trkpt>
<trkpt lat="40.0727902" lon="-105.2308991">
  <ele>1595.45</ele>
  <time>2026-08-27T18:30:11Z</time>
  <course>313.24</course>
  <speed>0.0</speed>
  <fix>3d</fix>
</trkpt>
<trkpt lat="40.0727901" lon="-105.2308994">
  <ele>1595.38</ele>
  <time>2026-08-27T18:30:11Z</time>
  <course>259.29</course>
  <speed>0.04</speed>
  <fix>3d</fix>
</trkpt>
<trkpt lat="40.0727902" lon="-105.2308992">
  <ele>1595.45</ele>
  <time>2026-08-27T18:30:11Z</time>
  <course>313.2</course>
  <speed>0.01</speed>
  <fix>3d</fix>
</trkpt>
<trkpt lat="40.0727901" lon="-105.2308995">
  <ele>1595.38</ele>
  <time>2026-08-27T18:30:11Z</time>
  <course>259.64</course>
  <speed>0.04</speed>
  <fix>3d</fix>
</trkpt>
<trkpt lat="40.0727901" lon="-105.2308993">
  <ele>1595.45</ele>
  <time>2026-08-27T18:30:11Z</time>
  <course>313.3</course>
  <speed>0.0</speed>
  <fix>3d</fix>
</trkpt>
<trkpt lat="40.0727901" lon="-105.2308996">
  <ele>1595.38</ele>
  <time>2026-08-27T18:30:11Z</time>
  <course>260.22</course>
  <speed>0.04</speed>
  <fix>3d</fix>
</trkpt>
<trkpt lat="40.0727901" lon="-105.2308994">
  <ele>1595.45</ele>
  <time>2026-08-27T18:30:11Z</time>
  <course>313.24</course>
  <speed>0.01</speed>
  <fix>3d</fix>
</trkpt>
<trkpt lat="40.0727901" lon="-105.2308997">
  <ele>1595.38</ele>
  <time>2026-08-27T18:30:11Z</time>
  <course>259.24</course>
  <speed>0.04</speed>
  <fix>3d</fix>
</trkpt>
<trkpt lat="40.0727901" lon="-105.2308995">
  <ele>1595.44</ele>
  <time>2026-08-27T18:30:11Z</time>
  <course>313.27</course>
  <speed>0.01</speed>
  <fix>3d</fix>
</trkpt>
<trkpt lat="40.0727901" lon="-105.2308998">
  <ele>1595.38</ele>
  <time>2026-08-27T18:30:11Z</time>
  <course>260.21</course>
  <speed>0.04</speed>
  <fix>3d</fix>
</trkpt>
<trkpt lat="40.0727901" lon="-105.2308996">
  <ele>1595.44</ele>
  <time>2026-08-27T18:30:11Z</time>
  <course>313.2</course>
  <speed>0.0</speed>
  <fix>3d</fix>
</trkpt>
<trkpt lat="40.0727901" lon="-105.2308999">
  <ele>1595.38</ele>
  <time>2026-08-27T18:30:11Z</time>
  <course>259.97</course>
  <speed>0.04</speed>
  <fix>3d</fix>
</trkpt>
<trkpt lat="40.0727901" lon="-105.2308997">
  <ele>1595.45</ele>
  <time>2026-08-27T18:30:11Z</time>
  <course>313.04</course>
  <speed>0.01</speed>
  <fix>3d</fix>
</trkpt>
<trkpt lat="40.0727901" lon="-105.2309">
  <ele>1595.38</ele>
  <time>2026-08-27T18:30:11Z</time>
  <course>260.26</course>
  <speed>0.04</speed>
  <fix>3d</fix>
</trkpt>
<trkpt lat="40.0727901" lon="-105.2308998">
  <ele>1595.44</ele>
  <time>2026-08-27T18:30:11Z</time>
  <course>312.98</course>
  <speed>0.01</speed>
  <fix>3d</fix>
</trkpt>
<trkpt lat="40.0727901" lon="-105.2309001">
  <ele>1595.38</ele>
  <time>2026-08-27T18:30:11Z</time>
  <course>259.79</course>
  <speed>0.04</speed>
  <fix>3d</fix>
</trkpt>
<trkpt lat="40.0727901" lon="-105.2308999">
  <ele>1595.44</ele>
  <time>2026-08-27T18:30:11Z</time>
  <course>312.98</course>
  <speed>0.01</speed>
  <fix>3d</fix>
</trkpt>
<trkpt lat="40.07279" lon="-105.2309002">
  <ele>1595.37</ele>
  <time>2026-08-27T18:30:11Z</time>
  <course>259.34</course>
  <speed>0.04</speed>
  <fix>3d</fix>
</trkpt>
<trkpt lat="40.0727901" lon="-105.2309">
  <ele>1595.44</ele>
  <time>2026-08-27T18:30:11Z</time>
  <course>312.97</course>
  <speed>0.01</speed>
  <fix>3d</fix>
</trkpt>
<trkpt lat="40.07279" lon="-105.2309003">
  <ele>1595.37</ele>
  <time>2026-08-27T18:30:11Z</time>
  <course>258.89</course>
  <speed>0.04</speed>
  <fix>3d</fix>
</trkpt>
<trkpt lat="40.0727901" lon="-105.2309001">
  <ele>1595.44</ele>
  <time>2026-08-27T18:30:11Z</time>
  <course>312.96</course>
  <speed>0.01</speed>
  <fix>3d</fix>
</trkpt>
<trkpt lat="40.07279" lon="-105.2309004">
  <ele>1595.37</ele>
  <time>2026-08-27T18:30:11Z</time>
  <course>258.41</course>
  <speed>0.04</speed>
  <fix>3d</fix>
</trkpt>
<trkpt lat="40.07279" lon="-105.2309002">
  <ele>1595.45</ele>
  <time>2026-08-27T18:30:11Z</time>
  <course>312.98</course>
  <speed>0.02</speed>
  <fix>3d</fix>
</trkpt>
<trkpt lat="40.07279" lon="-105.2309005">
  <ele>1595.37</ele>
  <time>2026-08-27T18:30:11Z</time>
  <course>258.03</course>
  <speed>0.05</speed>
  <fix>3d</fix>
</trkpt>
<trkpt lat="40.07279" lon="-105.2309003">
  <ele>1595.45</ele>
  <time>2026-08-27T18:30:11Z</time>
  <course>312.98</course>
  <speed>0.02</speed>
  <fix>3d</fix>
</trkpt>
<trkpt lat="40.07279" lon="-105.2309006">
  <ele>1595.37</ele>
  <time>2026-08-27T18:30:11Z</time>
  <course>257.85</course>
  <speed>0.05</speed>
  <fix>3d</fix>
</trkpt>
<trkpt lat="40.07279" lon="-105.2309005">
  <ele>1595.45</ele>
  <time>2026-08-27T18:30:11Z</time>
  <course>313.01</course>
  <speed>0.02</speed>
  <fix>3d</fix>
</trkpt>
<trkpt lat="40.0727899" lon="-105.2309008">
  <ele>1595.37</ele>
  <time>2026-08-27T18:30:11Z</time>
  <course>257.74</course>
  <speed>0.05</speed>
  <fix>3d</fix>
</trkpt>
<trkpt lat="40.07279" lon="-105.2309006">
  <ele>1595.45</ele>
  <time>2026-08-27T18:30:11Z</time>
  <course>312.99</course>
  <speed>0.02</speed>
  <fix>3d</fix>
</trkpt>
<trkpt lat="40.0727898" lon="-105.2309009">
  <ele>1595.36</ele>
  <time>2026-08-27T18:30:11Z</time>
  <course>257.54</course>
  <speed>0.05</speed>
  <fix>3d</fix>
</trkpt>
<trkpt lat="40.0727899" lon="-105.2309007">
  <ele>1595.44</ele>
  <time>2026-08-27T18:30:11Z</time>
  <course>313.0</course>
  <speed>0.022360679774997897</speed>
  <fix>3d</fix>
</trkpt>
<trkpt lat="40.0727898" lon="-105.230901">
  <ele>1595.36</ele>
  <time>2026-08-27T18:30:11Z</time>
  <course>257.38</course>
  <speed>0.05</speed>
  <fix>3d</fix>
</trkpt>
<trkpt lat="40.0727899" lon="-105.2309009">
  <ele>1595.44</ele>
  <time>2026-08-27T18:30:11Z</time>
  <course>313.0</course>
  <speed>0.022360679774997897</speed>
  <fix>3d</fix>
</trkpt>
<trkpt lat="40.0727898" lon="-105.2309012">
  <ele>1595.36</ele>
  <time>2026-08-27T18:30:11Z</time>
  <course>257.54</course>
  <speed>0.05</speed>
  <fix>3d</fix>
</trkpt>
<trkpt lat="40.0727899" lon="-105.230901">
  <ele>1595.43</ele>
  <time>2026-08-27T18:30:11Z</time>
  <course>312.99</course>
  <speed>0.022360679774997897</speed>
  <fix>3d</fix>
</trkpt>
<trkpt lat="40.0727898" lon="-105.2309013">
  <ele>1595.36</ele>
  <time>2026-08-27T18:30:11Z</time>
  <course>257.96</course>
  <speed>0.06</speed>
  <fix>3d</fix>
</trkpt>
<trkpt lat="40.0727899" lon="-105.2309012">
  <ele>1595.43</ele>
  <time>2026-08-27T18:30:11Z</time>
  <course>312.99</course>
  <speed>0.0316227766016838</speed>
  <fix>3d</fix>
</trkpt>
<trkpt lat="40.0727898" lon="-105.2309014">
  <ele>1595.36</ele>
  <time>2026-08-27T18:30:11Z</time>
  <course>258.25</course>
  <speed>0.06</speed>
  <fix>3d</fix>
</trkpt>
<trkpt lat="40.0727898" lon="-105.2309013">
  <ele>1595.43</ele>
  <time>2026-08-27T18:30:11Z</time>
  <course>312.99</course>
  <speed>0.0316227766016838</speed>
  <fix>3d</fix>
</trkpt>
<trkpt lat="40.0727897" lon="-105.2309016">
  <ele>1595.36</ele>
  <time>2026-08-27T18:30:11Z</time>
  <course>258.5</course>
  <speed>0.06</speed>
  <fix>3d</fix>
</trkpt>
<trkpt lat="40.0727898" lon="-105.2309015">
  <ele>1595.43</ele>
  <time>2026-08-27T18:30:11Z</time>
  <course>312.99</course>
  <speed>0.0316227766016838</speed>
  <fix>3d</fix>
</trkpt>
<trkpt lat="40.0727897" lon="-105.2309017">
  <ele>1595.36</ele>
  <time>2026-08-27T18:30:11Z</time>
  <course>258.72</course>
  <speed>0.06</speed>
  <fix>3d</fix>
</trkpt>
<trkpt lat="40.0727898" lon="-105.2309016">
  <ele>1595.43</ele>
  <time>2026-08-27T18:30:11Z</time>
  <course>312.99</course>
  <speed>0.0316227766016838</speed>
  <fix>3d</fix>
</trkpt>
<trkpt lat="40.0727897" lon="-105.2309018">
  <ele>1595.36</ele>
  <time>2026-08-27T18:30:11Z</time>
  <course>258.91</course>
  <speed>0.06</speed>
  <fix>3d</fix>
</trkpt>
<trkpt lat="40.0727898" lon="-105.2309017">
  <ele>1595.43</ele>
  <time>2026-08-27T18:30:11Z</time>
  <course>311.17</course>
  <speed>0.02</speed>
  <fix>3d</fix>
</trkpt>
<trkpt lat="40.0727897" lon="-105.230902">
  <ele>1595.36</ele>
  <time>2026-08-27T18:30:11Z</time>
  <course>263.48</course>
  <speed>0.06</speed>
  <fix>3d</fix>
</trkpt>
<trkpt lat="40.0727897" lon="-105.2309019">
  <ele>1595.43</ele>
  <time>2026-08-27T18:30:11Z</time>
  <course>311.05</course>
  <speed>0.044721359549995794</speed>
  <fix>3d</fix>
</trkpt>
<trkpt lat="40.0727897" lon="-105.2309022">
  <ele>1595.36</ele>
  <time>2026-08-27T18:30:11Z</time>
  <course>260.72</course>
  <speed>0.06</speed>
  <fix>3d</fix>
</trkpt>
<trkpt lat="40.0727897" lon="-105.2309021">
  <ele>1595.44</ele>
  <time>2026-08-27T18:30:11Z</time>
  <course>315.57</course>
  <speed>0.022360679774997897</speed>
  <fix>3d</fix>
</trkpt>
<trkpt lat="40.0727897" lon="-105.2309023">
  <ele>1595.36</ele>
  <time>2026-08-27T18:30:11Z</time>
  <course>252.01</course>
  <speed>0.07</speed>
  <fix>3d</fix>
</trkpt>
<trkpt lat="40.0727897" lon="-105.2309022">
  <ele>1595.44</ele>
  <time>2026-08-27T18:30:11Z</time>
  <course>311.96</course>
  <speed>0.0</speed>
  <fix>3d</fix>
</trkpt>
<trkpt lat="40.0727897" lon="-105.2309025">
  <ele>1595.36</ele>
  <time>2026-08-27T18:30:11Z</time>
  <course>260.47</course>
  <speed>0.05</speed>
  <fix>3d</fix>
</trkpt>
<trkpt lat="40.0727897" lon="-105.2309023">
  <ele>1595.44</ele>
  <time>2026-08-27T18:30:11Z</time>
  <course>311.62</course>
  <speed>0.03605551275463989</speed>
  <fix>3d</fix>
</trkpt>
<trkpt lat="40.0727897" lon="-105.2309026">
  <ele>1595.36</ele>
  <time>2026-08-27T18:30:11Z</time>
  <course>263.54</course>
  <speed>0.04</speed>
  <fix>3d</fix>
</trkpt>
<trkpt lat="40.0727896" lon="-105.2309024">
  <ele>1595.44</ele>
  <time>2026-08-27T18:30:11Z</time>
  <course>315.64</course>
  <speed>0.01</speed>
  <fix>3d</fix>
</trkpt>
<trkpt lat="40.0727896" lon="-105.2309027">
  <ele>1595.36</ele>
  <time>2026-08-27T18:30:11Z</time>
  <course>251.46</course>
  <speed>0.05</speed>
  <fix>3d</fix>
</trkpt>
<trkpt lat="40.0727896" lon="-105.2309025">
  <ele>1595.44</ele>
  <time>2026-08-27T18:30:11Z</time>
  <course>311.51</course>
  <speed>0.0</speed>
  <fix>3d</fix>
</trkpt>
<trkpt lat="40.0727896" lon="-105.2309028">
  <ele>1595.36</ele>
  <time>2026-08-27T18:30:11Z</time>
  <course>264.97</course>
  <speed>0.04</speed>
  <fix>3d</fix>
</trkpt>
<trkpt lat="40.0727896" lon="-105.2309026">
  <ele>1595.44</ele>
  <time>2026-08-27T18:30:11Z</time>
  <course>312.11</course>
  <speed>0.0282842712474619</speed>
  <fix>3d</fix>
</trkpt>
<trkpt lat="40.0727896" lon="-105.2309029">
  <ele>1595.36</ele>
  <time>2026-08-27T18:30:11Z</time>
  <course>264.8</course>
  <speed>0.04</speed>
  <fix>3d</fix>
</trkpt>
<trkpt lat="40.0727896" lon="-105.2309027">
  <ele>1595.44</ele>
  <time>2026-08-27T18:30:11Z</time>
  <course>315.58</course>
  <speed>0.0</speed>
  <fix>3d</fix>
</trkpt>
<trkpt lat="40.0727896" lon="-105.2309031">
  <ele>1595.36</ele>
  <time>2026-08-27T18:30:11Z</time>
  <course>251.86</course>
  <speed>0.05</speed>
  <fix>3d</fix>
</trkpt>
<trkpt lat="40.0727896" lon="-105.2309028">
  <ele>1595.44</ele>
  <time>2026-08-27T18:30:11Z</time>
  <course>311.15</course>
  <speed>0.0</speed>
  <fix>3d</fix>
</trkpt>
<trkpt lat="40.0727896" lon="-105.2309032">
  <ele>1595.36</ele>
  <time>2026-08-27T18:30:11Z</time>
  <course>267.95</course>
  <speed>0.03</speed>
  <fix>3d</fix>
</trkpt>
<trkpt lat="40.0727896" lon="-105.2309029">
  <ele>1595.44</ele>
  <time>2026-08-27T18:30:11Z</time>
  <course>312.61</course>
  <speed>0.0282842712474619</speed>
  <fix>3d</fix>
</trkpt>
<trkpt lat="40.0727896" lon="-105.2309032">
  <ele>1595.35</ele>
  <time>2026-08-27T18:30:11Z</time>
  <course>262.58</course>
  <speed>0.04</speed>
  <fix>3d</fix>
</trkpt>
<trkpt lat="40.0727896" lon="-105.230903">
  <ele>1595.44</ele>
  <time>2026-08-27T18:30:11Z</time>
  <course>315.41</course>
  <speed>0.0</speed>
  <fix>3d</fix>
</trkpt>
<trkpt lat="40.0727895" lon="-105.2309033">
  <ele>1595.35</ele>
  <time>2026-08-27T18:30:11Z</time>
  <course>251.27</course>
  <speed>0.05</speed>
  <fix>3d</fix>
</trkpt>
<trkpt lat="40.0727896" lon="-105.2309031">
  <ele>1595.43</ele>
  <time>2026-08-27T18:30:11Z</time>
  <course>310.84</course>
  <speed>0.0</speed>
  <fix>3d</fix>
</trkpt>
<trkpt lat="40.0727895" lon="-105.2309034">
  <ele>1595.35</ele>
  <time>2026-08-27T18:30:11Z</time>
  <course>269.19</course>
  <speed>0.03</speed>
  <fix>3d</fix>
</trkpt>
<trkpt lat="40.0727895" lon="-105.2309032">
  <ele>1595.42</ele>
  <time>2026-08-27T18:30:11Z</time>
  <course>313.08</course>
  <speed>0.0282842712474619</speed>
  <fix>3d</fix>
</trkpt>
<trkpt lat="40.0727895" lon="-105.2309035">
  <ele>1595.35</ele>
  <time>2026-08-27T18:30:11Z</time>
  <course>259.48</course>
  <speed>0.04</speed>
  <fix>3d</fix>
</trkpt>
<trkpt lat="40.0727895" lon="-105.2309033">
  <ele>1595.42</ele>
  <time>2026-08-27T18:30:11Z</time>
  <course>315.16</course>
  <speed>0.0</speed>
  <fix>3d</fix>
</trkpt>
<trkpt lat="40.0727895" lon="-105.2309036">
  <ele>1595.35</ele>
  <time>2026-08-27T18:30:11Z</time>
  <course>250.69</course>
  <speed>0.04</speed>
  <fix>3d</fix>
</trkpt>
<trkpt lat="40.0727895" lon="-105.2309034">
  <ele>1595.43</ele>
  <time>2026-08-27T18:30:11Z</time>
  <course>310.59</course>
  <speed>0.0</speed>
  <fix>3d</fix>
</trkpt>
<trkpt lat="40.0727895" lon="-105.2309037">
  <ele>1595.35</ele>
  <time>2026-08-27T18:30:11Z</time>
  <course>269.18</course>
  <speed>0.03</speed>
  <fix>3d</fix>
</trkpt>
<trkpt lat="40.0727895" lon="-105.2309035">
  <ele>1595.43</ele>
  <time>2026-08-27T18:30:11Z</time>
  <course>313.57</course>
  <speed>0.0282842712474619</speed>
  <fix>3d</fix>
</trkpt>
<trkpt lat="40.0727895" lon="-105.2309038">
  <ele>1595.35</ele>
  <time>2026-08-27T18:30:11Z</time>
  <course>255.7</course>
  <speed>0.04</speed>
  <fix>3d</fix>
</trkpt>
<trkpt lat="40.0727895" lon="-105.2309036">
  <ele>1595.44</ele>
  <time>2026-08-27T18:30:11Z</time>
  <course>314.83</course>
  <speed>0.0</speed>
  <fix>3d</fix>
</trkpt>
<trkpt lat="40.0727894" lon="-105.2309039">
  <ele>1595.36</ele>
  <time>2026-08-27T18:30:11Z</time>
  <course>249.67</course>
  <speed>0.04</speed>
  <fix>3d</fix>
</trkpt>
<trkpt lat="40.0727895" lon="-105.2309036">
  <ele>1595.44</ele>
  <time>2026-08-27T18:30:11Z</time>
  <course>310.5</course>
  <speed>0.0</speed>
  <fix>3d</fix>
</trkpt>
<trkpt lat="40.0727894" lon="-105.230904">
  <ele>1595.36</ele>
  <time>2026-08-27T18:30:11Z</time>
  <course>268.15</course>
  <speed>0.03</speed>
  <fix>3d</fix>
</trkpt>
<trkpt lat="40.0727894" lon="-105.2309038">
  <ele>1595.44</ele>
  <time>2026-08-27T18:30:11Z</time>
  <course>314.13</course>
  <speed>0.0282842712474619</speed>
  <fix>3d</fix>
</trkpt>
<trkpt lat="40.0727894" lon="-105.2309041">
  <ele>1595.36</ele>
  <time>2026-08-27T18:30:11Z</time>
  <course>253.3</course>
  <speed>0.04</speed>
  <fix>3d</fix>
</trkpt>
<trkpt lat="40.0727894" lon="-105.2309039">
  <ele>1595.44</ele>
  <time>2026-08-27T18:30:11Z</time>
  <course>314.49</course>
  <speed>0.0</speed>
  <fix>3d</fix>
</trkpt>
<trkpt lat="40.0727894" lon="-105.2309042">
  <ele>1595.36</ele>
  <time>2026-08-27T18:30:11Z</time>
  <course>250.87</course>
  <speed>0.04</speed>
  <fix>3d</fix>
</trkpt>
<trkpt lat="40.0727894" lon="-105.2309039">
  <ele>1595.44</ele>
  <time>2026-08-27T18:30:11Z</time>
  <course>310.49</course>
  <speed>0.0</speed>
  <fix>3d</fix>
</trkpt>
<trkpt lat="40.0727894" lon="-105.2309043">
  <ele>1595.36</ele>
  <time>2026-08-27T18:30:11Z</time>
  <course>269.66</course>
  <speed>0.03</speed>
  <fix>3d</fix>
</trkpt>
<trkpt lat="40.0727894" lon="-105.2309041">
  <ele>1595.44</ele>
  <time>2026-08-27T18:30:11Z</time>
  <course>314.57</course>
  <speed>0.0282842712474619</speed>
  <fix>3d</fix>
</trkpt>
<trkpt lat="40.0727894" lon="-105.2309044">
  <ele>1595.36</ele>
  <time>2026-08-27T18:30:11Z</time>
  <course>252.36</course>
  <speed>0.04</speed>
  <fix>3d</fix>
</trkpt>
<trkpt lat="40.0727894" lon="-105.2309041">
  <ele>1595.44</ele>
  <time>2026-08-27T18:30:11Z</time>
  <course>314.05</course>
  <speed>0.0</speed>
  <fix>3d</fix>
</trkpt>
<trkpt lat="40.0727893" lon="-105.2309045">
  <ele>1595.36</ele>
  <time>2026-08-27T18:30:11Z</time>
  <course>252.46</course>
  <speed>0.04</speed>
  <fix>3d</fix>
</trkpt>
<trkpt lat="40.0727894" lon="-105.2309042">
  <ele>1595.44</ele>
  <time>2026-08-27T18:30:11Z</time>
  <course>310.54</course>
  <speed>0.01414213562373095</speed>
  <fix>3d</fix>
</trkpt>
<trkpt lat="40.0727892" lon="-105.2309045">
  <ele>1595.35</ele>
  <time>2026-08-27T18:30:11Z</time>
  <course>269.73</course>
  <speed>0.03</speed>
  <fix>3d</fix>
</trkpt>
<trkpt lat="40.0727893" lon="-105.2309043">
  <ele>1595.44</ele>
  <time>2026-08-27T18:30:11Z</time>
  <course>314.94</course>
  <speed>0.0282842712474619</speed>
  <fix>3d</fix>
</trkpt>
<trkpt lat="40.0727892" lon="-105.2309047">
  <ele>1595.35</ele>
  <time>2026-08-27T18:30:11Z</time>
  <course>251.1</course>
  <speed>0.04</speed>
  <fix>3d</fix>
</trkpt>
<trkpt lat="40.0727893" lon="-105.2309044">
  <ele>1595.43</ele>
  <time>2026-08-27T18:30:11Z</time>
  <course>313.56</course>
  <speed>0.0</speed>
  <fix>3d</fix>
</trkpt>
<trkpt lat="40.0727892" lon="-105.2309048">
  <ele>1595.35</ele>
  <time>2026-08-27T18:30:11Z</time>
  <course>253.98</course>
  <speed>0.04</speed>
  <fix>3d</fix>
</trkpt>
<trkpt lat="40.0727893" lon="-105.2309045">
  <ele>1595.43</ele>
  <time>2026-08-27T18:30:11Z</time>
  <course>310.68</course>
  <speed>0.01414213562373095</speed>
  <fix>3d</fix>
</trkpt>
<trkpt lat="40.0727892" lon="-105.2309049">
  <ele>1595.35</ele>
  <time>2026-08-27T18:30:11Z</time>
  <course>269.02</course>
  <speed>0.03</speed>
  <fix>3d</fix>
</trkpt>
<trkpt lat="40.0727892" lon="-105.2309047">
  <ele>1595.42</ele>
  <time>2026-08-27T18:30:11Z</time>
  <course>315.23</course>
  <speed>0.01414213562373095</speed>
  <fix>3d</fix>
</trkpt>
<trkpt lat="40.0727892" lon="-105.2309049">
  <ele>1595.35</ele>
  <time>2026-08-27T18:30:11Z</time>
  <course>250.09</course>
  <speed>0.04</speed>
  <fix>3d</fix>
</trkpt>
<trkpt lat="40.0727892" lon="-105.2309047">
  <ele>1595.42</ele>
  <time>2026-08-27T18:30:11Z</time>
  <course>313.0</course>
  <speed>0.0</speed>
  <fix>3d</fix>
</trkpt>
<trkpt lat="40.0727892" lon="-105.230905">
  <ele>1595.35</ele>
  <time>2026-08-27T18:30:11Z</time>
  <course>255.75</course>
  <speed>0.04</speed>
  <fix>3d</fix>
</trkpt>
<trkpt lat="40.0727892" lon="-105.2309048">
  <ele>1595.42</ele>
  <time>2026-08-27T18:30:11Z</time>
  <course>310.9</course>
  <speed>0.022360679774997897</speed>
  <fix>3d</fix>
</trkpt>
<trkpt lat="40.0727892" lon="-105.2309051">
  <ele>1595.35</ele>
  <time>2026-08-27T18:30:11Z</time>
  <course>266.81</course>
  <speed>0.03</speed>
  <fix>3d</fix>
</trkpt>
<trkpt lat="40.0727892" lon="-105.2309049">
  <ele>1595.42</ele>
  <time>2026-08-27T18:30:11Z</time>
  <course>315.46</course>
  <speed>0.01414213562373095</speed>
  <fix>3d</fix>
</trkpt>
<trkpt lat="40.0727892" lon="-105.2309052">
  <ele>1595.35</ele>
  <time>2026-08-27T18:30:11Z</time>
  <course>248.43</course>
  <speed>0.04</speed>
  <fix>3d</fix>
</trkpt>
<trkpt lat="40.0727892" lon="-105.230905">
  <ele>1595.43</ele>
  <time>2026-08-27T18:30:11Z</time>
  <course>312.51</course>
  <speed>0.0</speed>
  <fix>3d</fix>
</trkpt>
<trkpt lat="40.0727891" lon="-105.2309053">
  <ele>1595.36</ele>
  <time>2026-08-27T18:30:12Z</time>
  <course>257.2</course>
  <speed>0.03</speed>
  <fix>3d</fix>
</trkpt>
<trkpt lat="40.0727892" lon="-105.2309051">
  <ele>1595.43</ele>
  <time>2026-08-27T18:30:12Z</time>
  <course>311.23</course>
  <speed>0.0282842712474619</speed>
  <fix>3d</fix>
</trkpt>
<trkpt lat="40.0727891" lon="-105.2309054">
  <ele>1595.36</ele>
  <time>2026-08-27T18:30:12Z</time>
  <course>265.08</course>
  <speed>0.03</speed>
  <fix>3d</fix>
</trkpt>
<trkpt lat="40.0727891" lon="-105.2309052">
  <ele>1595.44</ele>
  <time>2026-08-27T18:30:12Z</time>
  <course>315.62</course>
  <speed>0.01414213562373095</speed>
  <fix>3d</fix>
</trkpt>
<trkpt lat="40.0727891" lon="-105.2309055">
  <ele>1595.36</ele>
  <time>2026-08-27T18:30:12Z</time>
  <course>247.99</course>
  <speed>0.05</speed>
  <fix>3d</fix>
</trkpt>
<trkpt lat="40.0727891" lon="-105.2309053">
  <ele>1595.44</ele>
  <time>2026-08-27T18:30:12Z</time>
  <course>312.1</course>
  <speed>0.0</speed>
  <fix>3d</fix>
</trkpt>
<trkpt lat="40.0727891" lon="-105.2309056">
  <ele>1595.37</ele>
  <time>2026-08-27T18:30:12Z</time>
  <course>259.06</course>
  <speed>0.03</speed>
  <fix>3d</fix>
</trkpt>
<trkpt lat="40.0727891" lon="-105.2309054">
  <ele>1595.45</ele>
  <time>2026-08-27T18:30:12Z</time>
  <course>311.65</course>
  <speed>0.0282842712474619</speed>
  <fix>3d</fix>
</trkpt>
<trkpt lat="40.0727891" lon="-105.2309056">
  <ele>1595.37</ele>
  <time>2026-08-27T18:30:12Z</time>
  <course>262.96</course>
  <speed>0.03</speed>
  <fix>3d</fix>
</trkpt>
<trkpt lat="40.0727891" lon="-105.2309055">
  <ele>1595.45</ele>
  <time>2026-08-27T18:30:12Z</time>
  <course>315.73</course>
  <speed>0.0</speed>
  <fix>3d</fix>
</trkpt>
<trkpt lat="40.0727891" lon="-105.2309057">
  <ele>1595.37</ele>
  <time>2026-08-27T18:30:12Z</time>
  <course>248.13</course>
  <speed>0.05</speed>
  <fix>3d</fix>
</trkpt>
<trkpt lat="40.0727891" lon="-105.2309055">
  <ele>1595.45</ele>
  <time>2026-08-27T18:30:12Z</time>
  <course>311.69</course>
  <speed>0.0</speed>
  <fix>3d</fix>
</trkpt>
<trkpt lat="40.0727891" lon="-105.2309059">
  <ele>1595.37</ele>
  <time>2026-08-27T18:30:12Z</time>
  <course>262.29</course>
  <speed>0.03</speed>
  <fix>3d</fix>
</trkpt>
<trkpt lat="40.0727891" lon="-105.2309056">
  <ele>1595.45</ele>
  <time>2026-08-27T18:30:12Z</time>
  <course>312.18</course>
  <speed>0.0282842712474619</speed>
  <fix>3d</fix>
</trkpt>
<trkpt lat="40.0727891" lon="-105.2309059">
  <ele>1595.37</ele>
  <time>2026-08-27T18:30:12Z</time>
  <course>261.87</course>
  <speed>0.03</speed>
  <fix>3d</fix>
</trkpt>
<trkpt lat="40.072789" lon="-105.2309057">
  <ele>1595.45</ele>
  <time>2026-08-27T18:30:12Z</time>
  <course>315.7</course>
  <speed>0.0</speed>
  <fix>3d</fix>
</trkpt>
<trkpt lat="40.072789" lon="-105.230906">
  <ele>1595.36</ele>
  <time>2026-08-27T18:30:12Z</time>
  <course>248.66</course>
  <speed>0.05</speed>
  <fix>3d</fix>
</trkpt>
<trkpt lat="40.0727891" lon="-105.2309058">
  <ele>1595.45</ele>
  <time>2026-08-27T18:30:12Z</time>
  <course>311.64</course>
  <speed>0.0</speed>
  <fix>3d</fix>
</trkpt>
<trkpt lat="40.072789" lon="-105.2309061">
  <ele>1595.36</ele>
  <time>2026-08-27T18:30:12Z</time>
  <course>263.08</course>
  <speed>0.03</speed>
  <fix>3d</fix>
</trkpt>
<trkpt lat="40.072789" lon="-105.2309059">
  <ele>1595.45</ele>
  <time>2026-08-27T18:30:12Z</time>
  <course>312.0</course>
  <speed>0.01414213562373095</speed>
  <fix>3d</fix>
</trkpt>
<trkpt lat="40.072789" lon="-105.2309062">
  <ele>1595.35</ele>
  <time>2026-08-27T18:30:12Z</time>
  <course>265.08</course>
  <speed>0.03</speed>
  <fix>3d</fix>
</trkpt>
<trkpt lat="40.072789" lon="-105.230906">
  <ele>1595.44</ele>
  <time>2026-08-27T18:30:12Z</time>
  <course>313.93</course>
  <speed>0.01414213562373095</speed>
  <fix>3d</fix>
</trkpt>
<trkpt lat="40.072789" lon="-105.2309063">
  <ele>1595.35</ele>
  <time>2026-08-27T18:30:12Z</time>
  <course>253.37</course>
  <speed>0.04</speed>
  <fix>3d</fix>
</trkpt>
<trkpt lat="40.072789" lon="-105.2309061">
  <ele>1595.44</ele>
  <time>2026-08-27T18:30:12Z</time>
  <course>314.9</course>
  <speed>0.01</speed>
  <fix>3d</fix>
</trkpt>
<trkpt lat="40.072789" lon="-105.2309064">
  <ele>1595.35</ele>
  <time>2026-08-27T18:30:12Z</time>
  <course>256.02</course>
  <speed>0.04</speed>
  <fix>3d</fix>
</trkpt>
<trkpt lat="40.072789" lon="-105.2309062">
  <ele>1595.43</ele>
  <time>2026-08-27T18:30:12Z</time>
  <course>315.23</course>
  <speed>0.01</speed>
  <fix>3d</fix>
</trkpt>
<trkpt lat="40.072789" lon="-105.2309065">
  <ele>1595.35</ele>
  <time>2026-08-27T18:30:12Z</time>
  <course>259.05</course>
  <speed>0.04</speed>
  <fix>3d</fix>
</trkpt>
<trkpt lat="40.072789" lon="-105.2309063">
  <ele>1595.43</ele>
  <time>2026-08-27T18:30:12Z</time>
  <course>315.32</course>
  <speed>0.01</speed>
  <fix>3d</fix>
</trkpt>
<trkpt lat="40.072789" lon="-105.2309066">
  <ele>1595.34</ele>
  <time>2026-08-27T18:30:12Z</time>
  <course>260.02</course>
  <speed>0.04</speed>
  <fix>3d</fix>
</trkpt>
<trkpt lat="40.072789" lon="-105.2309064">
  <ele>1595.42</ele>
  <time>2026-08-27T18:30:12Z</time>
  <course>315.34</course>
  <speed>0.02</speed>
  <fix>3d</fix>
</trkpt>
<trkpt lat="40.0727889" lon="-105.2309067">
  <ele>1595.34</ele>
  <time>2026-08-27T18:30:12Z</time>
  <course>260.18</course>
  <speed>0.05</speed>
  <fix>3d</fix>
</trkpt>
<trkpt lat="40.072789" lon="-105.2309066">
  <ele>1595.42</ele>
  <time>2026-08-27T18:30:12Z</time>
  <course>315.34</course>
  <speed>0.02</speed>
  <fix>3d</fix>
</trkpt>
<trkpt lat="40.0727889" lon="-105.2309069">
  <ele>1595.35</ele>
  <time>2026-08-27T18:30:12Z</time>
  <course>259.72</course>
  <speed>0.05</speed>
  <fix>3d</fix>
</trkpt>
<trkpt lat="40.0727889" lon="-105.2309067">
  <ele>1595.42</ele>
  <time>2026-08-27T18:30:12Z</time>
  <course>315.36</course>
  <speed>0.02</speed>
  <fix>3d</fix>
</trkpt>
<trkpt lat="40.0727889" lon="-105.230907">
  <ele>1595.35</ele>
  <time>2026-08-27T18:30:12Z</time>
  <course>259.0</course>
  <speed>0.05</speed>
  <fix>3d</fix>
</trkpt>
<trkpt lat="40.0727889" lon="-105.2309068">
  <ele>1595.43</ele>
  <time>2026-08-27T18:30:12Z</time>
  <course>315.36</course>
  <speed>0.02</speed>
  <fix>3d</fix>
</trkpt>
<trkpt lat="40.0727889" lon="-105.2309071">
  <ele>1595.35</ele>
  <time>2026-08-27T18:30:12Z</time>
  <course>258.44</course>
  <speed>0.05</speed>
  <fix>3d</fix>
</trkpt>
<trkpt lat="40.0727889" lon="-105.2309069">
  <ele>1595.43</ele>
  <time>2026-08-27T18:30:12Z</time>
  <course>315.38</course>
  <speed>0.02</speed>
  <fix>3d</fix>
</trkpt>
<trkpt lat="40.0727889" lon="-105.2309072">
  <ele>1595.35</ele>
  <time>2026-08-27T18:30:12Z</time>
  <course>258.04</course>
  <speed>0.05</speed>
  <fix>3d</fix>
</trkpt>
<trkpt lat="40.0727889" lon="-105.2309071">
  <ele>1595.44</ele>
  <time>2026-08-27T18:30:12Z</time>
  <course>315.39</course>
  <speed>0.02</speed>
  <fix>3d</fix>
</trkpt>
<trkpt lat="40.0727888" lon="-105.2309074">
  <ele>1595.36</ele>
  <time>2026-08-27T18:30:12Z</time>
  <course>257.78</course>
  <speed>0.05</speed>
  <fix>3d</fix>
</trkpt>
<trkpt lat="40.0727889" lon="-105.2309072">
  <ele>1595.44</ele>
  <time>2026-08-27T18:30:12Z</time>
  <course>315.4</course>
  <speed>0.0316227766016838</speed>
  <fix>3d</fix>
</trkpt>
<trkpt lat="40.0727888" lon="-105.2309075">
  <ele>1595.36</ele>
  <time>2026-08-27T18:30:12Z</time>
  <course>257.6</course>
  <speed>0.06</speed>
  <fix>3d</fix>
</trkpt>
<trkpt lat="40.0727888" lon="-105.2309074">
  <ele>1595.45</ele>
  <time>2026-08-27T18:30:12Z</time>
  <course>315.4</course>
  <speed>0.0316227766016838</speed>
  <fix>3d</fix>
</trkpt>
<trkpt lat="40.0727888" lon="-105.2309076">
  <ele>1595.36</ele>
  <time>2026-08-27T18:30:12Z</time>
  <course>257.47</course>
  <speed>0.06</speed>
  <fix>3d</fix>
</trkpt>
<trkpt lat="40.0727888" lon="-105.2309075">
  <ele>1595.45</ele>
  <time>2026-08-27T18:30:12Z</time>
  <course>315.41</course>
  <speed>0.0316227766016838</speed>
  <fix>3d</fix>
</trkpt>
<trkpt lat="40.0727888" lon="-105.2309078">
  <ele>1595.36</ele>
  <time>2026-08-27T18:30:12Z</time>
  <course>257.55</course>
  <speed>0.06</speed>
  <fix>3d</fix>
</trkpt>
<trkpt lat="40.0727888" lon="-105.2309077">
  <ele>1595.45</ele>
  <time>2026-08-27T18:30:12Z</time>
  <course>315.44</course>
  <speed>0.0316227766016838</speed>
  <fix>3d</fix>
</trkpt>
<trkpt lat="40.0727888" lon="-105.230908">
  <ele>1595.36</ele>
  <time>2026-08-27T18:30:12Z</time>
  <course>257.75</course>
  <speed>0.06</speed>
  <fix>3d</fix>
</trkpt>
<trkpt lat="40.0727888" lon="-105.2309078">
  <ele>1595.45</ele>
  <time>2026-08-27T18:30:12Z</time>
  <course>315.44</course>
  <speed>0.0316227766016838</speed>
  <fix>3d</fix>
</trkpt>
<trkpt lat="40.0727887" lon="-105.2309081">
  <ele>1595.36</ele>
  <time>2026-08-27T18:30:12Z</time>
  <course>257.91</course>
  <speed>0.06</speed>
  <fix>3d</fix>
</trkpt>
<trkpt lat="40.0727888" lon="-105.230908">
  <ele>1595.45</ele>
  <time>2026-08-27T18:30:12Z</time>
  <course>312.79</course>
  <speed>0.02</speed>
  <fix>3d</fix>
</trkpt>
<trkpt lat="40.0727886" lon="-105.2309083">
  <ele>1595.35</ele>
  <time>2026-08-27T18:30:12Z</time>
  <course>263.76</course>
  <speed>0.06</speed>
  <fix>3d</fix>
</trkpt>
<trkpt lat="40.0727887" lon="-105.2309081">
  <ele>1595.45</ele>
  <time>2026-08-27T18:30:12Z</time>
  <course>314.41</course>
  <speed>0.05830951894845301</speed>
  <fix>3d</fix>
</trkpt>
<trkpt lat="40.0727886" lon="-105.2309084">
  <ele>1595.35</ele>
  <time>2026-08-27T18:30:12Z</time>
  <course>257.71</course>
  <speed>0.06</speed>
  <fix>3d</fix>
</trkpt>
<trkpt lat="40.0727887" lon="-105.2309083">
  <ele>1595.45</ele>
  <time>2026-08-27T18:30:12Z</time>
  <course>318.4</course>
  <speed>0.01</speed>
  <fix>3d</fix>
</trkpt>
<trkpt lat="40.0727886" lon="-105.2309085">
  <ele>1595.35</ele>
  <time>2026-08-27T18:30:12Z</time>
  <course>250.02</course>
  <speed>0.07</speed>
  <fix>3d</fix>
</trkpt>
<trkpt lat="40.0727887" lon="-105.2309084">
  <ele>1595.44</ele>
  <time>2026-08-27T18:30:12Z</time>
  <course>313.21</course>
  <speed>0.0</speed>
  <fix>3d</fix>
</trkpt>
<trkpt lat="40.0727885" lon="-105.2309087">
  <ele>1595.35</ele>
  <time>2026-08-27T18:30:12Z</time>
  <course>263.37</course>
  <speed>0.04</speed>
  <fix>3d</fix>
</trkpt>
<trkpt lat="40.0727886" lon="-105.2309085">
  <ele>1595.44</ele>
  <time>2026-08-27T18:30:12Z</time>
  <course>314.95</course>
  <speed>0.04242640687119285</speed>
  <fix>3d</fix>
</trkpt>
<trkpt lat="40.0727885" lon="-105.2309088">
  <ele>1595.34</ele>
  <time>2026-08-27T18:30:12Z</time>
  <course>258.94</course>
  <speed>0.04</speed>
  <fix>3d</fix>
</trkpt>
<trkpt lat="40.0727886" lon="-105.2309086">
  <ele>1595.44</ele>
  <time>2026-08-27T18:30:12Z</time>
  <course>318.16</course>
  <speed>0.0</speed>
  <fix>3d</fix>
</trkpt>
<trkpt lat="40.0727885" lon="-105.2309089">
  <ele>1595.34</ele>
  <time>2026-08-27T18:30:12Z</time>
  <course>249.47</course>
  <speed>0.05</speed>
  <fix>3d</fix>
</trkpt>
<trkpt lat="40.0727886" lon="-105.2309087">
  <ele>1595.43</ele>
  <time>2026-08-27T18:30:12Z</time>
  <course>312.84</course>
  <speed>0.0</speed>
  <fix>3d</fix>
</trkpt>
<trkpt lat="40.0727885" lon="-105.230909">
  <ele>1595.34</ele>
  <time>2026-08-27T18:30:12Z</time>
  <course>270.32</course>
  <speed>0.03</speed>
  <fix>3d</fix>
</trkpt>
<trkpt lat="40.0727885" lon="-105.2309088">
  <ele>1595.43</ele>
  <time>2026-08-27T18:30:12Z</time>
  <course>315.49</course>
  <speed>0.04242640687119285</speed>
  <fix>3d</fix>
</trkpt>
<trkpt lat="40.0727885" lon="-105.2309091">
  <ele>1595.34</ele>
  <time>2026-08-27T18:30:12Z</time>
  <course>260.01</course>
  <speed>0.04</speed>
  <fix>3d</fix>
</trkpt>
<trkpt lat="40.0727885" lon="-105.2309089">
  <ele>1595.42</ele>
  <time>2026-08-27T18:30:12Z</time>
  <course>317.87</course>
  <speed>0.0</speed>
  <fix>3d</fix>
</trkpt>
<trkpt lat="40.0727885" lon="-105.2309092">
  <ele>1595.34</ele>
  <time>2026-08-27T18:30:12Z</time>
  <course>250.91</course>
  <speed>0.04</speed>
  <fix>3d</fix>
</trkpt>
<trkpt lat="40.0727885" lon="-105.230909">
  <ele>1595.42</ele>
  <time>2026-08-27T18:30:12Z</time>
  <course>312.58</course>
  <speed>0.0</speed>
  <fix>3d</fix>
</trkpt>
<trkpt lat="40.0727885" lon="-105.2309093">
  <ele>1595.34</ele>
  <time>2026-08-27T18:30:12Z</time>
  <course>274.39</course>
  <speed>0.03</speed>
  <fix>3d</fix>
</trkpt>
<trkpt lat="40.0727885" lon="-105.2309091">
  <ele>1595.42</ele>
  <time>2026-08-27T18:30:12Z</time>
  <course>316.05</course>
  <speed>0.03605551275463989</speed>
  <fix>3d</fix>
</trkpt>
<trkpt lat="40.0727885" lon="-105.2309094">
  <ele>1595.34</ele>
  <time>2026-08-27T18:30:12Z</time>
  <course>257.61</course>
  <speed>0.04</speed>
  <fix>3d</fix>
</trkpt>
<trkpt lat="40.0727885" lon="-105.2309092">
  <ele>1595.42</ele>
  <time>2026-08-27T18:30:12Z</time>
  <course>317.43</course>
  <speed>0.0</speed>
  <fix>3d</fix>
</trkpt>
<trkpt lat="40.0727885" lon="-105.2309095">
  <ele>1595.34</ele>
  <time>2026-08-27T18:30:12Z</time>
  <course>251.12</course>
  <speed>0.04</speed>
  <fix>3d</fix>
</trkpt>
<trkpt lat="40.0727885" lon="-105.2309092">
  <ele>1595.42</ele>
  <time>2026-08-27T18:30:12Z</time>
  <course>312.41</course>
  <speed>0.0</speed>
  <fix>3d</fix>
</trkpt>
<trkpt lat="40.0727885" lon="-105.2309095">
  <ele>1595.35</ele>
  <time>2026-08-27T18:30:12Z</time>
  <course>274.56</course>
  <speed>0.03</speed>
  <fix>3d</fix>
</trkpt>
<trkpt lat="40.0727885" lon="-105.2309094">
  <ele>1595.42</ele>
  <time>2026-08-27T18:30:12Z</time>
  <course>316.64</course>
  <speed>0.0282842712474619</speed>
  <fix>3d</fix>
</trkpt>
<trkpt lat="40.0727885" lon="-105.2309096">
  <ele>1595.35</ele>
  <time>2026-08-27T18:30:12Z</time>
  <course>254.3</course>
  <speed>0.04</speed>
  <fix>3d</fix>
</trkpt>
<trkpt lat="40.0727885" lon="-105.2309094">
  <ele>1595.42</ele>
  <time>2026-08-27T18:30:12Z</time>
  <course>316.99</course>
  <speed>0.0</speed>
  <fix>3d</fix>
</trkpt>
<trkpt lat="40.0727885" lon="-105.2309097">
  <ele>1595.35</ele>
  <time>2026-08-27T18:30:12Z</time>
  <course>250.9</course>
  <speed>0.04</speed>
  <fix>3d</fix>
</trkpt>
<trkpt lat="40.0727885" lon="-105.2309095">
  <ele>1595.43</ele>
  <time>2026-08-27T18:30:12Z</time>
  <course>312.39</course>
  <speed>0.01414213562373095</speed>
  <fix>3d</fix>
</trkpt>
<trkpt lat="40.0727885" lon="-105.2309098">
  <ele>1595.36</ele>
  <time>2026-08-27T18:30:12Z</time>
  <course>271.95</course>
  <speed>0.02</speed>
  <fix>3d</fix>
</trkpt>
<trkpt lat="40.0727884" lon="-105.2309096">
  <ele>1595.43</ele>
  <time>2026-08-27T18:30:12Z</time>
  <course>317.15</course>
  <speed>0.0282842712474619</speed>
  <fix>3d</fix>
</trkpt>
<trkpt lat="40.0727884" lon="-105.2309099">
  <ele>1595.36</ele>
  <time>2026-08-27T18:30:12Z</time>
  <course>250.15</course>
  <speed>0.04</speed>
  <fix>3d</fix>
</trkpt>
<trkpt lat="40.0727884" lon="-105.2309097">
  <ele>1595.43</ele>
  <time>2026-08-27T18:30:12Z</time>
  <course>316.51</course>
  <speed>0.01</speed>
  <fix>3d</fix>
</trkpt>
<trkpt lat="40.0727884" lon="-105.23091">
  <ele>1595.37</ele>
  <time>2026-08-27T18:30:12Z</time>
  <course>249.78</course>
  <speed>0.04</speed>
  <fix>3d</fix>
</trkpt>
<trkpt lat="40.0727884" lon="-105.2309098">
  <ele>1595.44</ele>
  <time>2026-08-27T18:30:12Z</time>
  <course>312.49</course>
  <speed>0.01414213562373095</speed>
  <fix>3d</fix>
</trkpt>
<trkpt lat="40.0727884" lon="-105.2309101">
  <ele>1595.37</ele>
  <time>2026-08-27T18:30:12Z</time>
  <course>268.42</course>
  <speed>0.02</speed>
  <fix>3d</fix>
</trkpt>
<trkpt lat="40.0727884" lon="-105.2309099">
  <ele>1595.44</ele>
  <time>2026-08-27T18:30:12Z</time>
  <course>317.59</course>
  <speed>0.0282842712474619</speed>
  <fix>3d</fix>
</trkpt>
<trkpt lat="40.0727884" lon="-105.2309102">
  <ele>1595.37</ele>
  <time>2026-08-27T18:30:12Z</time>
  <course>247.74</course>
  <speed>0.04</speed>
  <fix>3d</fix>
</trkpt>
<trkpt lat="40.0727884" lon="-105.23091">
  <ele>1595.44</ele>
  <time>2026-08-27T18:30:12Z</time>
  <course>315.99</course>
  <speed>0.01</speed>
  <fix>3d</fix>
</trkpt>
<trkpt lat="40.0727883" lon="-105.2309103">
  <ele>1595.37</ele>
  <time>2026-08-27T18:30:12Z</time>
  <course>250.57</course>
  <speed>0.04</speed>
  <fix>3d</fix>
</trkpt>
<trkpt lat="40.0727884" lon="-105.23091">
  <ele>1595.44</ele>
  <time>2026-08-27T18:30:12Z</time>
  <course>312.69</course>
  <speed>0.01414213562373095</speed>
  <fix>3d</fix>
</trkpt>
<trkpt lat="40.0727883" lon="-105.2309104">
  <ele>1595.37</ele>
  <time>2026-08-27T18:30:12Z</time>
  <course>266.45</course>
  <speed>0.02</speed>
  <fix>3d</fix>
</trkpt>
<trkpt lat="40.0727883" lon="-105.2309102">
  <ele>1595.44</ele>
  <time>2026-08-27T18:30:12Z</time>
  <course>317.99</course>
  <speed>0.0282842712474619</speed>
  <fix>3d</fix>
</trkpt>
<trkpt lat="40.0727883" lon="-105.2309104">
  <ele>1595.37</ele>
  <time>2026-08-27T18:30:12Z</time>
  <course>246.16</course>
  <speed>0.04</speed>
  <fix>3d</fix>
</trkpt>
<trkpt lat="40.0727883" lon="-105.2309103">
  <ele>1595.44</ele>
  <time>2026-08-27T18:30:12Z</time>
  <course>315.37</course>
  <speed>0.01</speed>
  <fix>3d</fix>
</trkpt>
<trkpt lat="40.0727883" lon="-105.2309105">
  <ele>1595.37</ele>
  <time>2026-08-27T18:30:12Z</time>
  <course>252.11</course>
  <speed>0.04</speed>
  <fix>3d</fix>
</trkpt>
<trkpt lat="40.0727883" lon="-105.2309103">
  <ele>1595.44</ele>
  <time>2026-08-27T18:30:12Z</time>
  <course>312.98</course>
  <speed>0.0282842712474619</speed>
  <fix>3d</fix>
</trkpt>
<trkpt lat="40.0727883" lon="-105.2309106">
  <ele>1595.37</ele>
  <time>2026-08-27T18:30:12Z</time>
  <course>265.01</course>
  <speed>0.02</speed>
  <fix>3d</fix>
</trkpt>
<trkpt lat="40.0727883" lon="-105.2309104">
  <ele>1595.44</ele>
  <time>2026-08-27T18:30:12Z</time>
  <course>318.25</course>
  <speed>0.01414213562373095</speed>
  <fix>3d</fix>
</trkpt>
<trkpt lat="40.0727882" lon="-105.2309107">
  <ele>1595.37</ele>
  <time>2026-08-27T18:30:12Z</time>
  <course>245.5</course>
  <speed>0.04</speed>
  <fix>3d</fix>
</trkpt>
<trkpt lat="40.0727883" lon="-105.2309105">
  <ele>1595.43</ele>
  <time>2026-08-27T18:30:12Z</time>
  <course>314.78</course>
  <speed>0.01</speed>
  <fix>3d</fix>
</trkpt>
<trkpt lat="40.0727882" lon="-105.2309108">
  <ele>1595.37</ele>
  <time>2026-08-27T18:30:12Z</time>
  <course>254.72</course>
  <speed>0.03</speed>
  <fix>3d</fix>
</trkpt>
<trkpt lat="40.0727883" lon="-105.2309106">
  <ele>1595.43</ele>
  <time>2026-08-27T18:30:12Z</time>
  <course>313.34</course>
  <speed>0.0282842712474619</speed>
  <fix>3d</fix>
</trkpt>
<trkpt lat="40.0727882" lon="-105.2309109">
  <ele>1595.37</ele>
  <time>2026-08-27T18:30:12Z</time>
  <course>263.37</course>
  <speed>0.03</speed>
  <fix>3d</fix>
</trkpt>
<trkpt lat="40.0727882" lon="-105.2309107">
  <ele>1595.43</ele>
  <time>2026-08-27T18:30:12Z</time>
  <course>318.38</course>
  <speed>0.01414213562373095</speed>
  <fix>3d</fix>
</trkpt>
<trkpt lat="40.0727882" lon="-105.230911">
  <ele>1595.37</ele>
  <time>2026-08-27T18:30:12Z</time>
  <course>245.1</course>
  <speed>0.05</speed>
  <fix>3d</fix>
</trkpt>
<trkpt lat="40.0727882" lon="-105.2309108">
  <ele>1595.44</ele>
  <time>2026-08-27T18:30:12Z</time>
  <course>314.26</course>
  <speed>0.01</speed>
  <fix>3d</fix>
</trkpt>
<trkpt lat="40.0727882" lon="-105.2309111">
  <ele>1595.38</ele>
  <time>2026-08-27T18:30:12Z</time>
  <course>256.9</course>
  <speed>0.03</speed>
  <fix>3d</fix>
</trkpt>
<trkpt lat="40.0727882" lon="-105.2309108">
  <ele>1595.44</ele>
  <time>2026-08-27T18:30:12Z</time>
  <course>313.78</course>
  <speed>0.0282842712474619</speed>
  <fix>3d</fix>
</trkpt>
<trkpt lat="40.0727882" lon="-105.2309112">
  <ele>1595.38</ele>
  <time>2026-08-27T18:30:12Z</time>
  <course>260.28</course>
  <speed>0.03</speed>
  <fix>3d</fix>
</trkpt>
<trkpt lat="40.0727882" lon="-105.230911">
  <ele>1595.44</ele>
  <time>2026-08-27T18:30:12Z</time>
  <course>318.47</course>
  <speed>0.0</speed>
  <fix>3d</fix>
</trkpt>
<trkpt lat="40.0727881" lon="-105.2309112">
  <ele>1595.38</ele>
  <time>2026-08-27T18:30:12Z</time>
  <course>244.43</course>
  <speed>0.05</speed>
  <fix>3d</fix>
</trkpt>
<trkpt lat="40.0727882" lon="-105.230911">
  <ele>1595.45</ele>
  <time>2026-08-27T18:30:12Z</time>
  <course>313.73</course>
  <speed>0.0</speed>
  <fix>3d</fix>
</trkpt>
<trkpt lat="40.072788" lon="-105.2309113">
  <ele>1595.38</ele>
  <time>2026-08-27T18:30:12Z</time>
  <course>258.81</course>
  <speed>0.03</speed>
  <fix>3d</fix>
</trkpt>
<trkpt lat="40.0727881" lon="-105.2309111">
  <ele>1595.45</ele>
  <time>2026-08-27T18:30:12Z</time>
  <course>314.37</course>
  <speed>0.0282842712474619</speed>
  <fix>3d</fix>
</trkpt>
<trkpt lat="40.072788" lon="-105.2309114">
  <ele>1595.38</ele>
  <time>2026-08-27T18:30:12Z</time>
  <course>257.53</course>
  <speed>0.03</speed>
  <fix>3d</fix>
</trkpt>
<trkpt lat="40.0727881" lon="-105.2309112">
  <ele>1595.45</ele>
  <time>2026-08-27T18:30:12Z</time>
  <course>318.42</course>
  <speed>0.0</speed>
  <fix>3d</fix>
</trkpt>
<trkpt lat="40.072788" lon="-105.2309115">
  <ele>1595.38</ele>
  <time>2026-08-27T18:30:12Z</time>
  <course>244.37</course>
  <speed>0.05</speed>
  <fix>3d</fix>
</trkpt>
<trkpt lat="40.0727881" lon="-105.2309113">
  <ele>1595.45</ele>
  <time>2026-08-27T18:30:12Z</time>
  <course>313.31</course>
  <speed>0.0</speed>
  <fix>3d</fix>
</trkpt>
<trkpt lat="40.0727879" lon="-105.2309116">
  <ele>1595.38</ele>
  <time>2026-08-27T18:30:12Z</time>
  <course>261.59</course>
  <speed>0.03</speed>
  <fix>3d</fix>
</trkpt>
<trkpt lat="40.072788" lon="-105.2309114">
  <ele>1595.45</ele>
  <time>2026-08-27T18:30:12Z</time>
  <course>314.94</course>
  <speed>0.03605551275463989</speed>
  <fix>3d</fix>
</trkpt>
<trkpt lat="40.0727879" lon="-105.2309117">
  <ele>1595.37</ele>
  <time>2026-08-27T18:30:12Z</time>
  <course>255.87</course>
  <speed>0.03</speed>
  <fix>3d</fix>
</trkpt>
<trkpt lat="40.072788" lon="-105.2309115">
  <ele>1595.45</ele>
  <time>2026-08-27T18:30:12Z</time>
  <course>318.24</course>
  <speed>0.0</speed>
  <fix>3d</fix>
</trkpt>
<trkpt lat="40.0727879" lon="-105.2309118">
  <ele>1595.37</ele>
  <time>2026-08-27T18:30:12Z</time>
  <course>245.45</course>
  <speed>0.05</speed>
  <fix>3d</fix>
</trkpt>
<trkpt lat="40.072788" lon="-105.2309115">
  <ele>1595.44</ele>
  <time>2026-08-27T18:30:12Z</time>
  <course>312.95</course>
  <speed>0.0</speed>
  <fix>3d</fix>
</trkpt>
<trkpt lat="40.0727879" lon="-105.2309119">
  <ele>1595.37</ele>
  <time>2026-08-27T18:30:12Z</time>
  <course>265.8</course>
  <speed>0.03</speed>
  <fix>3d</fix>
</trkpt>
<trkpt lat="40.0727879" lon="-105.2309117">
  <ele>1595.44</ele>
  <time>2026-08-27T18:30:12Z</time>
  <course>315.45</course>
  <speed>0.03605551275463989</speed>
  <fix>3d</fix>
</trkpt>
<trkpt lat="40.0727879" lon="-105.2309119">
  <ele>1595.37</ele>
  <time>2026-08-27T18:30:12Z</time>
  <course>255.48</course>
  <speed>0.03</speed>
  <fix>3d</fix>
</trkpt>
<trkpt lat="40.0727879" lon="-105.2309118">
  <ele>1595.44</ele>
  <time>2026-08-27T18:30:12Z</time>
  <course>317.95</course>
  <speed>0.0</speed>
  <fix>3d</fix>
</trkpt>
<trkpt lat="40.0727879" lon="-105.230912">
  <ele>1595.37</ele>
  <time>2026-08-27T18:30:12Z</time>
  <course>246.87</course>
  <speed>0.04</speed>
  <fix>3d</fix>
</trkpt>
<trkpt lat="40.0727879" lon="-105.2309118">
  <ele>1595.44</ele>
  <time>2026-08-27T18:30:12Z</time>
  <course>313.61</course>
  <speed>0.0</speed>
  <fix>3d</fix>
</trkpt>
<trkpt lat="40.0727879" lon="-105.2309121">
  <ele>1595.36</ele>
  <time>2026-08-27T18:30:12Z</time>
  <course>263.56</course>
  <speed>0.03</speed>
  <fix>3d</fix>
</trkpt>
<trkpt lat="40.0727879" lon="-105.2309119">
  <ele>1595.44</ele>
  <time>2026-08-27T18:30:12Z</time>
  <course>314.95</course>
  <speed>0.01414213562373095</speed>
  <fix>3d</fix>
</trkpt>
<trkpt lat="40.0727879" lon="-105.2309122">
  <ele>1595.36</ele>
  <time>2026-08-27T18:30:12Z</time>
  <course>260.03</course>
  <speed>0.03</speed>
  <fix>3d</fix>
</trkpt>
<trkpt lat="40.0727879" lon="-105.230912">
  <ele>1595.44</ele>
  <time>2026-08-27T18:30:12Z</time>
  <course>316.88</course>
  <speed>0.01414213562373095</speed>
  <fix>3d</fix>
</trkpt>
<trkpt lat="40.0727879" lon="-105.2309123">
  <ele>1595.36</ele>
  <time>2026-08-27T18:30:12Z</time>
  <course>252.74</course>
  <speed>0.04</speed>
  <fix>3d</fix>
</trkpt>
<trkpt lat="40.0727879" lon="-105.2309121">
  <ele>1595.45</ele>
  <time>2026-08-27T18:30:12Z</time>
  <course>317.74</course>
  <speed>0.01</speed>
  <fix>3d</fix>
</trkpt>
<trkpt lat="40.0727879" lon="-105.2309124">
  <ele>1595.36</ele>
  <time>2026-08-27T18:30:12Z</time>
  <course>255.8</course>
  <speed>0.04</speed>
  <fix>3d</fix>
</trkpt>
<trkpt lat="40.0727879" lon="-105.2309122">
  <ele>1595.45</ele>
  <time>2026-08-27T18:30:12Z</time>
  <course>318.04</course>
  <speed>0.01</speed>
  <fix>3d</fix>
</trkpt>
<trkpt lat="40.0727879" lon="-105.2309125">
  <ele>1595.36</ele>
  <time>2026-08-27T18:30:12Z</time>
  <course>257.78</course>
  <speed>0.04</speed>
  <fix>3d</fix>
</trkpt>
<trkpt lat="40.0727878" lon="-105.2309123">
  <ele>1595.45</ele>
  <time>2026-08-27T18:30:12Z</time>
  <course>318.14</course>
  <speed>0.01</speed>
  <fix>3d</fix>
</trkpt>
<trkpt lat="40.0727878" lon="-105.2309126">
  <ele>1595.36</ele>
  <time>2026-08-27T18:30:12Z</time>
  <course>258.05</course>
  <speed>0.04</speed>
  <fix>3d</fix>
</trkpt>
<trkpt lat="40.0727878" lon="-105.2309125">
  <ele>1595.45</ele>
  <time>2026-08-27T18:30:12Z</time>
  <course>318.13</course>
  <speed>0.02</speed>
  <fix>3d</fix>
</trkpt>
<trkpt lat="40.0727878" lon="-105.2309127">
  <ele>1595.36</ele>
  <time>2026-08-27T18:30:12Z</time>
  <course>258.08</course>
  <speed>0.04</speed>
  <fix>3d</fix>
</trkpt>
<trkpt lat="40.0727878" lon="-105.2309126">
  <ele>1595.44</ele>
  <time>2026-08-27T18:30:12Z</time>
  <course>318.14</course>
  <speed>0.02</speed>
  <fix>3d</fix>
</trkpt>
<trkpt lat="40.0727878" lon="-105.2309128">
  <ele>1595.36</ele>
  <time>2026-08-27T18:30:12Z</time>
  <course>258.04</course>
  <speed>0.05</speed>
  <fix>3d</fix>
</trkpt>
<trkpt lat="40.0727878" lon="-105.2309127">
  <ele>1595.45</ele>
  <time>2026-08-27T18:30:12Z</time>
  <course>318.13</course>
  <speed>0.02</speed>
  <fix>3d</fix>
</trkpt>
<trkpt lat="40.0727878" lon="-105.230913">
  <ele>1595.35</ele>
  <time>2026-08-27T18:30:12Z</time>
  <course>258.18</course>
  <speed>0.05</speed>
  <fix>3d</fix>
</trkpt>
<trkpt lat="40.0727878" lon="-105.2309128">
  <ele>1595.45</ele>
  <time>2026-08-27T18:30:12Z</time>
  <course>318.13</course>
  <speed>0.02</speed>
  <fix>3d</fix>
</trkpt>
<trkpt lat="40.0727878" lon="-105.2309131">
  <ele>1595.35</ele>
  <time>2026-08-27T18:30:12Z</time>
  <course>258.48</course>
  <speed>0.05</speed>
  <fix>3d</fix>
</trkpt>
<trkpt lat="40.0727878" lon="-105.2309129">
  <ele>1595.44</ele>
  <time>2026-08-27T18:30:12Z</time>
  <course>318.15</course>
  <speed>0.02</speed>
  <fix>3d</fix>
</trkpt>
<trkpt lat="40.0727877" lon="-105.2309132">
  <ele>1595.35</ele>
  <time>2026-08-27T18:30:12Z</time>
  <course>258.63</course>
  <speed>0.05</speed>
  <fix>3d</fix>
</trkpt>
<trkpt lat="40.0727878" lon="-105.2309131">
  <ele>1595.44</ele>
  <time>2026-08-27T18:30:12Z</time>
  <course>318.14</course>
  <speed>0.02</speed>
  <fix>3d</fix>
</trkpt>
<trkpt lat="40.0727877" lon="-105.2309133">
  <ele>1595.35</ele>
  <time>2026-08-27T18:30:12Z</time>
  <course>258.56</course>
  <speed>0.05</speed>
  <fix>3d</fix>
</trkpt>
<trkpt lat="40.0727877" lon="-105.2309132">
  <ele>1595.43</ele>
  <time>2026-08-27T18:30:12Z</time>
  <course>318.13</course>
  <speed>0.03</speed>
  <fix>3d</fix>
</trkpt>
<trkpt lat="40.0727877" lon="-105.2309135">
  <ele>1595.35</ele>
  <time>2026-08-27T18:30:12Z</time>
  <course>258.81</course>
  <speed>0.05</speed>
  <fix>3d</fix>
</trkpt>
<trkpt lat="40.0727877" lon="-105.2309134">
  <ele>1595.42</ele>
  <time>2026-08-27T18:30:12Z</time>
  <course>318.13</course>
  <speed>0.03</speed>
  <fix>3d</fix>
</trkpt>
<trkpt lat="40.0727877" lon="-105.2309136">
  <ele>1595.34</ele>
  <time>2026-08-27T18:30:12Z</time>
  <course>259.33</course>
  <speed>0.05</speed>
  <fix>3d</fix>
</trkpt>
<trkpt lat="40.0727877" lon="-105.2309135">
  <ele>1595.42</ele>
  <time>2026-08-27T18:30:12Z</time>
  <course>318.13</course>
  <speed>0.03</speed>
  <fix>3d</fix>
</trkpt>
<trkpt lat="40.0727877" lon="-105.2309138">
  <ele>1595.34</ele>
  <time>2026-08-27T18:30:12Z</time>
  <course>259.76</course>
  <speed>0.06</speed>
  <fix>3d</fix>
</trkpt>
<trkpt lat="40.0727877" lon="-105.2309136">
  <ele>1595.42</ele>
  <time>2026-08-27T18:30:12Z</time>
  <course>318.13</course>
  <speed>0.03</speed>
  <fix>3d</fix>
</trkpt>
<trkpt lat="40.0727876" lon="-105.2309139">
  <ele>1595.34</ele>
  <time>2026-08-27T18:30:12Z</time>
  <course>259.86</course>
  <speed>0.06</speed>
  <fix>3d</fix>
</trkpt>
<trkpt lat="40.0727877" lon="-105.2309138">
  <ele>1595.43</ele>
  <time>2026-08-27T18:30:12Z</time>
  <course>318.07</course>
  <speed>0.03</speed>
  <fix>3d</fix>
</trkpt>
<trkpt lat="40.0727876" lon="-105.2309141">
  <ele>1595.35</ele>
  <time>2026-08-27T18:30:12Z</time>
  <course>259.85</course>
  <speed>0.06</speed>
  <fix>3d</fix>
</trkpt>
<trkpt lat="40.0727877" lon="-105.2309139">
  <ele>1595.43</ele>
  <time>2026-08-27T18:30:12Z</time>
  <course>314.79</course>
  <speed>0.02</speed>
  <fix>3d</fix>
</trkpt>
<trkpt lat="40.0727876" lon="-105.2309142">
  <ele>1595.35</ele>
  <time>2026-08-27T18:30:12Z</time>
  <course>266.05</course>
  <speed>0.05</speed>
  <fix>3d</fix>
</trkpt>
<trkpt lat="40.0727876" lon="-105.2309141">
  <ele>1595.43</ele>
  <time>2026-08-27T18:30:12Z</time>
  <course>318.2</course>
  <speed>0.05830951894845301</speed>
  <fix>3d</fix>
</trkpt>
<trkpt lat="40.0727876" lon="-105.2309143">
  <ele>1595.35</ele>
  <time>2026-08-27T18:30:12Z</time>
  <course>256.47</course>
  <speed>0.06</speed>
  <fix>3d</fix>
</trkpt>
<trkpt lat="40.0727876" lon="-105.2309142">
  <ele>1595.43</ele>
  <time>2026-08-27T18:30:12Z</time>
  <course>321.09</course>
  <speed>0.0</speed>
  <fix>3d</fix>
</trkpt>
<trkpt lat="40.0727875" lon="-105.2309144">
  <ele>1595.35</ele>
  <time>2026-08-27T18:30:12Z</time>
  <course>249.98</course>
  <speed>0.06</speed>
  <fix>3d</fix>
</trkpt>
<trkpt lat="40.0727876" lon="-105.2309143">
  <ele>1595.43</ele>
  <time>2026-08-27T18:30:12Z</time>
  <course>314.98</course>
  <speed>0.0</speed>
  <fix>3d</fix>
</trkpt>
<trkpt lat="40.0727874" lon="-105.2309146">
  <ele>1595.36</ele>
  <time>2026-08-27T18:30:12Z</time>
  <course>266.58</course>
  <speed>0.03</speed>
  <fix>3d</fix>
</trkpt>
<trkpt lat="40.0727875" lon="-105.2309144">
  <ele>1595.44</ele>
  <time>2026-08-27T18:30:12Z</time>
  <course>318.74</course>
  <speed>0.04242640687119285</speed>
  <fix>3d</fix>
</trkpt>
<trkpt lat="40.0727874" lon="-105.2309147">
  <ele>1595.36</ele>
  <time>2026-08-27T18:30:12Z</time>
  <course>253.06</course>
  <speed>0.04</speed>
  <fix>3d</fix>
</trkpt>
<trkpt lat="40.0727875" lon="-105.2309145">
  <ele>1595.44</ele>
  <time>2026-08-27T18:30:12Z</time>
  <course>320.62</course>
  <speed>0.0</speed>
  <fix>3d</fix>
</trkpt>
<trkpt lat="40.0727874" lon="-105.2309148">
  <ele>1595.36</ele>
  <time>2026-08-27T18:30:12Z</time>
  <course>246.63</course>
  <speed>0.05</speed>
  <fix>3d</fix>
</trkpt>
<trkpt lat="40.0727875" lon="-105.2309146">
  <ele>1595.44</ele>
  <time>2026-08-27T18:30:12Z</time>
  <course>314.78</course>
  <speed>0.0</speed>
  <fix>3d</fix>
</trkpt>
<trkpt lat="40.0727874" lon="-105.2309149">
  <ele>1595.36</ele>
  <time>2026-08-27T18:30:12Z</time>
  <course>270.57</course>
  <speed>0.02</speed>
  <fix>3d</fix>
</trkpt>
<trkpt lat="40.0727874" lon="-105.2309147">
  <ele>1595.44</ele>
  <time>2026-08-27T18:30:12Z</time>
  <course>319.41</course>
  <speed>0.04242640687119285</speed>
  <fix>3d</fix>
</trkpt>
<trkpt lat="40.0727874" lon="-105.230915">
  <ele>1595.36</ele>
  <time>2026-08-27T18:30:12Z</time>
  <course>250.25</course>
  <speed>0.04</speed>
  <fix>3d</fix>
</trkpt>
<trkpt lat="40.0727874" lon="-105.2309148">
  <ele>1595.44</ele>
  <time>2026-08-27T18:30:12Z</time>
  <course>320.13</course>
  <speed>0.01</speed>
  <fix>3d</fix>
</trkpt>
<trkpt lat="40.0727874" lon="-105.2309151">
  <ele>1595.36</ele>
  <time>2026-08-27T18:30:12Z</time>
  <course>246.31</course>
  <speed>0.04</speed>
  <fix>3d</fix>
</trkpt>
<trkpt lat="40.0727874" lon="-105.2309148">
  <ele>1595.44</ele>
  <time>2026-08-27T18:30:12Z</time>
  <course>314.71</course>
  <speed>0.01</speed>
  <fix>3d</fix>
</trkpt>
<trkpt lat="40.0727873" lon="-105.2309152">
  <ele>1595.36</ele>
  <time>2026-08-27T18:30:12Z</time>
  <course>272.9</course>
  <speed>0.02</speed>
  <fix>3d</fix>
</trkpt>
<trkpt lat="40.0727874" lon="-105.230915">
  <ele>1595.44</ele>
  <time>2026-08-27T18:30:12Z</time>
  <course>320.01</course>
  <speed>0.03605551275463989</speed>
  <fix>3d</fix>
</trkpt>
<trkpt lat="40.0727873" lon="-105.2309152">
  <ele>1595.36</ele>
  <time>2026-08-27T18:30:12Z</time>
  <course>247.24</course>
  <speed>0.04</speed>
  <fix>3d</fix>
</trkpt>
<trkpt lat="40.0727874" lon="-105.230915">
  <ele>1595.44</ele>
  <time>2026-08-27T18:30:12Z</time>
  <course>319.56</course>
  <speed>0.01</speed>
  <fix>3d</fix>
</trkpt>
<trkpt lat="40.0727873" lon="-105.2309153">
  <ele>1595.36</ele>
  <time>2026-08-27T18:30:12Z</time>
  <course>246.18</course>
  <speed>0.04</speed>
  <fix>3d</fix>
</trkpt>
<trkpt lat="40.0727874" lon="-105.2309151">
  <ele>1595.45</ele>
  <time>2026-08-27T18:30:12Z</time>
  <course>314.77</course>
  <speed>0.01414213562373095</speed>
  <fix>3d</fix>
</trkpt>
<trkpt lat="40.0727873" lon="-105.2309154">
  <ele>1595.36</ele>
  <time>2026-08-27T18:30:12Z</time>
  <course>271.93</course>
  <speed>0.02</speed>
  <fix>3d</fix>
</trkpt>
<trkpt lat="40.0727873" lon="-105.2309152">
  <ele>1595.45</ele>
  <time>2026-08-27T18:30:12Z</time>
  <course>320.51</course>
  <speed>0.0282842712474619</speed>
  <fix>3d</fix>
</trkpt>
<trkpt lat="40.0727873" lon="-105.2309154">
  <ele>1595.35</ele>
  <time>2026-08-27T18:30:12Z</time>
  <course>244.19</course>
  <speed>0.04</speed>
  <fix>3d</fix>
</trkpt>
<trkpt lat="40.0727873" lon="-105.2309153">
  <ele>1595.44</ele>
  <time>2026-08-27T18:30:12Z</time>
  <course>318.97</course>
  <speed>0.01</speed>
  <fix>3d</fix>
</trkpt>
<trkpt lat="40.0727873" lon="-105.2309155">
  <ele>1595.35</ele>
  <time>2026-08-27T18:30:12Z</time>
  <course>246.23</course>
  <speed>0.03</speed>
  <fix>3d</fix>
</trkpt>
<trkpt lat="40.0727873" lon="-105.2309153">
  <ele>1595.44</ele>
  <time>2026-08-27T18:30:12Z</time>
  <course>314.95</course>
  <speed>0.022360679774997897</speed>
  <fix>3d</fix>
</trkpt>
<trkpt lat="40.0727873" lon="-105.2309155">
  <ele>1595.35</ele>
  <time>2026-08-27T18:30:12Z</time>
  <course>270.19</course>
  <speed>0.01</speed>
  <fix>3d</fix>
</trkpt>
<trkpt lat="40.0727872" lon="-105.2309154">
  <ele>1595.44</ele>
  <time>2026-08-27T18:30:12Z</time>
  <course>320.96</course>
  <speed>0.0282842712474619</speed>
  <fix>3d</fix>
</trkpt>
<trkpt lat="40.0727873" lon="-105.2309156">
  <ele>1595.35</ele>
  <time>2026-08-27T18:30:12Z</time>
  <course>241.59</course>
  <speed>0.04</speed>
  <fix>3d</fix>
</trkpt>
<trkpt lat="40.0727873" lon="-105.2309155">
  <ele>1595.44</ele>
  <time>2026-08-27T18:30:12Z</time>
  <course>318.23</course>
  <speed>0.01414213562373095</speed>
  <fix>3d</fix>
</trkpt>
<trkpt lat="40.0727872" lon="-105.2309157">
  <ele>1595.35</ele>
  <time>2026-08-27T18:30:12Z</time>
  <course>246.46</course>
  <speed>0.03</speed>
  <fix>3d</fix>
</trkpt>
<trkpt lat="40.0727872" lon="-105.2309155">
  <ele>1595.44</ele>
  <time>2026-08-27T18:30:12Z</time>
  <course>315.22</course>
  <speed>0.022360679774997897</speed>
  <fix>3d</fix>
</trkpt>
<trkpt lat="40.0727872" lon="-105.2309157">
  <ele>1595.35</ele>
  <time>2026-08-27T18:30:12Z</time>
  <course>265.56</course>
  <speed>0.01</speed>
  <fix>3d</fix>
</trkpt>
<trkpt lat="40.0727872" lon="-105.2309156">
  <ele>1595.43</ele>
  <time>2026-08-27T18:30:12Z</time>
  <course>321.31</course>
  <speed>0.022360679774997897</speed>
  <fix>3d</fix>
</trkpt>
<trkpt lat="40.0727872" lon="-105.2309158">
  <ele>1595.35</ele>
  <time>2026-08-27T18:30:12Z</time>
  <course>238.14</course>
  <speed>0.04</speed>
  <fix>3d</fix>
</trkpt>
<trkpt lat="40.0727872" lon="-105.2309156">
  <ele>1595.43</ele>
  <time>2026-08-27T18:30:12Z</time>
  <course>317.57</course>
  <speed>0.01414213562373095</speed>
  <fix>3d</fix>
</trkpt>
<trkpt lat="40.0727872" lon="-105.2309159">
  <ele>1595.35</ele>
  <time>2026-08-27T18:30:12Z</time>
  <course>245.55</course>
  <speed>0.02</speed>
  <fix>3d</fix>
</trkpt>
<trkpt lat="40.0727872" lon="-105.2309157">
  <ele>1595.43</ele>
  <time>2026-08-27T18:30:12Z</time>
  <course>315.62</course>
  <speed>0.0282842712474619</speed>
  <fix>3d</fix>
</trkpt>
<trkpt lat="40.0727872" lon="-105.2309159">
  <ele>1595.35</ele>
  <time>2026-08-27T18:30:12Z</time>
  <course>258.04</course>
  <speed>0.01</speed>
  <fix>3d</fix>
</trkpt>
<trkpt lat="40.0727871" lon="-105.2309158">
  <ele>1595.43</ele>
  <time>2026-08-27T18:30:12Z</time>
  <course>321.49</course>
  <speed>0.01414213562373095</speed>
  <fix>3d</fix>
</trkpt>
<trkpt lat="40.0727871" lon="-105.230916">
  <ele>1595.35</ele>
  <time>2026-08-27T18:30:12Z</time>
  <course>235.25</course>
  <speed>0.04</speed>
  <fix>3d</fix>
</trkpt>
<trkpt lat="40.0727871" lon="-105.2309158">
  <ele>1595.44</ele>
  <time>2026-08-27T18:30:12Z</time>
  <course>316.97</course>
  <speed>0.01</speed>
  <fix>3d</fix>
</trkpt>
<trkpt lat="40.0727871" lon="-105.2309161">
  <ele>1595.35</ele>
  <time>2026-08-27T18:30:12Z</time>
  <course>244.1</course>
  <speed>0.02</speed>
  <fix>3d</fix>
</trkpt>
<trkpt lat="40.0727871" lon="-105.2309159">
  <ele>1595.44</ele>
  <time>2026-08-27T18:30:12Z</time>
  <course>316.1</course>
  <speed>0.03605551275463989</speed>
  <fix>3d</fix>
</trkpt>
<trkpt lat="40.0727871" lon="-105.2309161">
  <ele>1595.35</ele>
  <time>2026-08-27T18:30:12Z</time>
  <course>247.61</course>
  <speed>0.01</speed>
  <fix>3d</fix>
</trkpt>
<trkpt lat="40.0727871" lon="-105.230916">
  <ele>1595.44</ele>
  <time>2026-08-27T18:30:12Z</time>
  <course>321.61</course>
  <speed>0.01</speed>
  <fix>3d</fix>
</trkpt>
<trkpt lat="40.0727871" lon="-105.2309162">
  <ele>1595.35</ele>
  <time>2026-08-27T18:30:12Z</time>
  <course>232.07</course>
  <speed>0.04</speed>
  <fix>3d</fix>
</trkpt>
<trkpt lat="40.0727871" lon="-105.230916">
  <ele>1595.44</ele>
  <time>2026-08-27T18:30:12Z</time>
  <course>316.33</course>
  <speed>0.01</speed>
  <fix>3d</fix>
</trkpt>
<trkpt lat="40.0727871" lon="-105.2309162">
  <ele>1595.35</ele>
  <time>2026-08-27T18:30:12Z</time>
  <course>242.52</course>
  <speed>0.01</speed>
  <fix>3d</fix>
</trkpt>
<trkpt lat="40.0727871" lon="-105.230916">
  <ele>1595.44</ele>
  <time>2026-08-27T18:30:12Z</time>
  <course>316.74</course>
  <speed>0.03605551275463989</speed>
  <fix>3d</fix>
</trkpt>
<trkpt lat="40.072787" lon="-105.2309162">
  <ele>1595.35</ele>
  <time>2026-08-27T18:30:12Z</time>
  <course>240.45</course>
  <speed>0.01</speed>
  <fix>3d</fix>
</trkpt>
<trkpt lat="40.072787" lon="-105.2309161">
  <ele>1595.45</ele>
  <time>2026-08-27T18:30:12Z</time>
  <course>321.58</course>
  <speed>0.0</speed>
  <fix>3d</fix>
</trkpt>
<trkpt lat="40.072787" lon="-105.2309163">
  <ele>1595.35</ele>
  <time>2026-08-27T18:30:12Z</time>
  <course>230.25</course>
  <speed>0.04</speed>
  <fix>3d</fix>
</trkpt>
<trkpt lat="40.072787" lon="-105.2309161">
  <ele>1595.46</ele>
  <time>2026-08-27T18:30:12Z</time>
  <course>315.82</course>
  <speed>0.01</speed>
  <fix>3d</fix>
</trkpt>
<trkpt lat="40.072787" lon="-105.2309164">
  <ele>1595.35</ele>
  <time>2026-08-27T18:30:12Z</time>
  <course>241.77</course>
  <speed>0.01</speed>
  <fix>3d</fix>
</trkpt>
<trkpt lat="40.072787" lon="-105.2309162">
  <ele>1595.46</ele>
  <time>2026-08-27T18:30:12Z</time>
  <course>317.41</course>
  <speed>0.03605551275463989</speed>
  <fix>3d</fix>
</trkpt>
<trkpt lat="40.072787" lon="-105.2309164">
  <ele>1595.34</ele>
  <time>2026-08-27T18:30:12Z</time>
  <course>234.58</course>
  <speed>0.02</speed>
  <fix>3d</fix>
</trkpt>
<trkpt lat="40.0727869" lon="-105.2309163">
  <ele>1595.45</ele>
  <time>2026-08-27T18:30:12Z</time>
  <course>321.42</course>
  <speed>0.0</speed>
  <fix>3d</fix>
</trkpt>
<trkpt lat="40.0727869" lon="-105.2309164">
  <ele>1595.34</ele>
  <time>2026-08-27T18:30:12Z</time>
  <course>228.02</course>
  <speed>0.03</speed>
  <fix>3d</fix>
</trkpt>
<trkpt lat="40.072787" lon="-105.2309163">
  <ele>1595.45</ele>
  <time>2026-08-27T18:30:12Z</time>
  <course>315.41</course>
  <speed>0.01</speed>
  <fix>3d</fix>
</trkpt>
<trkpt lat="40.0727868" lon="-105.2309164">
  <ele>1595.34</ele>
  <time>2026-08-27T18:30:12Z</time>
  <course>238.53</course>
  <speed>0.01</speed>
  <fix>3d</fix>
</trkpt>
<trkpt lat="40.0727869" lon="-105.2309163">
  <ele>1595.44</ele>
  <time>2026-08-27T18:30:12Z</time>
  <course>318.0</course>
  <speed>0.03605551275463989</speed>
  <fix>3d</fix>
</trkpt>
<trkpt lat="40.0727868" lon="-105.2309165">
  <ele>1595.33</ele>
  <time>2026-08-27T18:30:12Z</time>
  <course>229.12</course>
  <speed>0.02</speed>
  <fix>3d</fix>
</trkpt>
<trkpt lat="40.0727869" lon="-105.2309164">
  <ele>1595.44</ele>
  <time>2026-08-27T18:30:12Z</time>
  <course>321.13</course>
  <speed>0.01</speed>
  <fix>3d</fix>
</trkpt>
<trkpt lat="40.0727868" lon="-105.2309166">
  <ele>1595.33</ele>
  <time>2026-08-27T18:30:12Z</time>
  <course>225.89</course>
  <speed>0.03</speed>
  <fix>3d</fix>
</trkpt>
<trkpt lat="40.0727869" lon="-105.2309164">
  <ele>1595.43</ele>
  <time>2026-08-27T18:30:12Z</time>
  <course>315.02</course>
  <speed>0.0</speed>
  <fix>3d</fix>
</trkpt>
<trkpt lat="40.0727867" lon="-105.2309167">
  <ele>1595.33</ele>
  <time>2026-08-27T18:30:12Z</time>
  <course>237.51</course>
  <speed>0.0</speed>
  <fix>3d</fix>
</trkpt>
<trkpt lat="40.0727868" lon="-105.2309165">
  <ele>1595.43</ele>
  <time>2026-08-27T18:30:12Z</time>
  <course>318.69</course>
  <speed>0.03605551275463989</speed>
  <fix>3d</fix>
</trkpt>
<trkpt lat="40.0727867" lon="-105.2309167">
  <ele>1595.32</ele>
  <time>2026-08-27T18:30:12Z</time>
  <course>226.57</course>
  <speed>0.02</speed>
  <fix>3d</fix>
</trkpt>
<trkpt lat="40.0727868" lon="-105.2309165">
  <ele>1595.43</ele>
  <time>2026-08-27T18:30:13Z</time>
  <course>320.67</course>
  <speed>0.01</speed>
  <fix>3d</fix>
</trkpt>
<trkpt lat="40.0727867" lon="-105.2309167">
  <ele>1595.32</ele>
  <time>2026-08-27T18:30:13Z</time>
  <course>223.85</course>
  <speed>0.03</speed>
  <fix>3d</fix>
</trkpt>
<trkpt lat="40.0727868" lon="-105.2309165">
  <ele>1595.43</ele>
  <time>2026-08-27T18:30:13Z</time>
  <course>314.78</course>
  <speed>0.01</speed>
  <fix>3d</fix>
</trkpt>
<trkpt lat="40.0727866" lon="-105.2309167">
  <ele>1595.32</ele>
  <time>2026-08-27T18:30:13Z</time>
  <course>226.16</course>
  <speed>0.0</speed>
  <fix>3d</fix>
</trkpt>
<trkpt lat="40.0727867" lon="-105.2309166">
  <ele>1595.44</ele>
  <time>2026-08-27T18:30:13Z</time>
  <course>319.33</course>
  <speed>0.03605551275463989</speed>
  <fix>3d</fix>
</trkpt>
<trkpt lat="40.0727866" lon="-105.2309167">
  <ele>1595.32</ele>
  <time>2026-08-27T18:30:13Z</time>
  <course>222.17</course>
  <speed>0.02</speed>
  <fix>3d</fix>
</trkpt>
<trkpt lat="40.0727867" lon="-105.2309166">
  <ele>1595.44</ele>
  <time>2026-08-27T18:30:13Z</time>
  <course>320.2</course>
  <speed>0.01</speed>
  <fix>3d</fix>
</trkpt>
<trkpt lat="40.0727866" lon="-105.2309168">
  <ele>1595.33</ele>
  <time>2026-08-27T18:30:13Z</time>
  <course>220.9</course>
  <speed>0.03</speed>
  <fix>3d</fix>
</trkpt>
<trkpt lat="40.0727867" lon="-105.2309166">
  <ele>1595.45</ele>
  <time>2026-08-27T18:30:13Z</time>
  <course>315.07</course>
  <speed>0.0</speed>
  <fix>3d</fix>
</trkpt>
<trkpt lat="40.0727866" lon="-105.2309169">
  <ele>1595.33</ele>
  <time>2026-08-27T18:30:13Z</time>
  <course>215.15</course>
  <speed>0.0</speed>
  <fix>3d</fix>
</trkpt>
<trkpt lat="40.0727866" lon="-105.2309166">
  <ele>1595.44</ele>
  <time>2026-08-27T18:30:13Z</time>
  <course>314.04</course>
  <speed>0.01</speed>
  <fix>3d</fix>
</trkpt>
<trkpt lat="40.0727866" lon="-105.2309169">
  <ele>1595.32</ele>
  <time>2026-08-27T18:30:13Z</time>
  <course>227.16</course>
  <speed>0.0</speed>
  <fix>3d</fix>
</trkpt>
<trkpt lat="40.0727866" lon="-105.2309167">
  <ele>1595.39</ele>
  <time>2026-08-27T18:30:13Z</time>
  <course>314.78</course>
  <speed>0.01414213562373095</speed>
  <fix>3d</fix>
</trkpt>
<trkpt lat="40.0727866" lon="-105.2309169">
  <ele>1595.3</ele>
  <time>2026-08-27T18:30:13Z</time>
  <course>228.83</course>
  <speed>0.02</speed>
  <fix>3d</fix>
</trkpt>
<trkpt lat="40.0727866" lon="-105.2309168">
  <ele>1595.26</ele>
  <time>2026-08-27T18:30:13Z</time>
  <course>316.1</course>
  <speed>0.0282842712474619</speed>
  <fix>3d</fix>
</trkpt>
<trkpt lat="40.0727866" lon="-105.2309169">
  <ele>1595.23</ele>
  <time>2026-08-27T18:30:13Z</time>
  <course>232.18</course>
  <speed>0.02</speed>
  <fix>3d</fix>
</trkpt>
<trkpt lat="40.0727865" lon="-105.2309169">
  <ele>1594.82</ele>
  <time>2026-08-27T18:30:13Z</time>
  <course>317.56</course>
  <speed>0.1063014581273465</speed>
  <fix>3d</fix>
</trkpt>
<trkpt lat="40.0727865" lon="-105.230917">
  <ele>1595.01</ele>
  <time>2026-08-27T18:30:13Z</time>
  <course>227.01</course>
  <speed>0.06</speed>
  <fix>3d</fix>
</trkpt>
<trkpt lat="40.0727863" lon="-105.2309172">
  <ele>1594.11</ele>
  <time>2026-08-27T18:30:13Z</time>
  <course>319.05</course>
  <speed>0.14866068747318506</speed>
  <fix>3d</fix>
</trkpt>
<trkpt lat="40.0727864" lon="-105.2309171">
  <ele>1594.51</ele>
  <time>2026-08-27T18:30:13Z</time>
  <course>225.06</course>
  <speed>0.12</speed>
  <fix>3d</fix>
</trkpt>
<trkpt lat="40.0727861" lon="-105.2309174">
  <ele>1593.22</ele>
  <time>2026-08-27T18:30:13Z</time>
  <course>321.02</course>
  <speed>0.15620499351813308</speed>
  <fix>3d</fix>
</trkpt>
<trkpt lat="40.0727863" lon="-105.2309174">
  <ele>1593.75</ele>
  <time>2026-08-27T18:30:13Z</time>
  <course>225.62</course>
  <speed>0.15</speed>
  <fix>3d</fix>
</trkpt>
<trkpt lat="40.072786" lon="-105.2309177">
  <ele>1592.2</ele>
  <time>2026-08-27T18:30:13Z</time>
  <course>323.67</course>
  <speed>0.15</speed>
  <fix>3d</fix>
</trkpt>
<trkpt lat="40.0727861" lon="-105.2309176">
  <ele>1592.82</ele>
  <time>2026-08-27T18:30:13Z</time>
  <course>227.06</course>
  <speed>0.16</speed>
  <fix>3d</fix>
</trkpt>
<trkpt lat="40.0727858" lon="-105.230918">
  <ele>1591.1</ele>
  <time>2026-08-27T18:30:13Z</time>
  <course>326.18</course>
  <speed>0.13601470508735444</speed>
  <fix>3d</fix>
</trkpt>
<trkpt lat="40.0727859" lon="-105.2309179">
  <ele>1591.78</ele>
  <time>2026-08-27T18:30:13Z</time>
  <course>229.58</course>
  <speed>0.15</speed>
  <fix>3d</fix>
</trkpt>
<trkpt lat="40.0727857" lon="-105.2309182">
  <ele>1589.95</ele>
  <time>2026-08-27T18:30:13Z</time>
  <course>328.24</course>
  <speed>0.11661903789690602</speed>
  <fix>3d</fix>
</trkpt>
<trkpt lat="40.0727857" lon="-105.2309182">
  <ele>1590.67</ele>
  <time>2026-08-27T18:30:13Z</time>
  <course>233.78</course>
  <speed>0.13</speed>
  <fix>3d</fix>
</trkpt>
<trkpt lat="40.0727856" lon="-105.2309185">
  <ele>1588.76</ele>
  <time>2026-08-27T18:30:13Z</time>
  <course>330.02</course>
  <speed>0.09486832980505139</speed>
  <fix>3d</fix>
</trkpt>
<trkpt lat="40.0727855" lon="-105.2309185">
  <ele>1589.53</ele>
  <time>2026-08-27T18:30:13Z</time>
  <course>240.15</course>
  <speed>0.12</speed>
  <fix>3d</fix>
</trkpt>
<trkpt lat="40.0727855" lon="-105.2309187">
  <ele>1587.56</ele>
  <time>2026-08-27T18:30:13Z</time>
  <course>331.62</course>
  <speed>0.09055385138137417</speed>
  <fix>3d</fix>
</trkpt>
<trkpt lat="40.0727854" lon="-105.2309186">
  <ele>1588.35</ele>
  <time>2026-08-27T18:30:13Z</time>
  <course>249.24</course>
  <speed>0.1</speed>
  <fix>3d</fix>
</trkpt>
<trkpt lat="40.0727855" lon="-105.2309189">
  <ele>1586.35</ele>
  <time>2026-08-27T18:30:13Z</time>
  <course>333.11</course>
  <speed>0.08</speed>
  <fix>3d</fix>
</trkpt>
<trkpt lat="40.0727854" lon="-105.2309189">
  <ele>1587.16</ele>
  <time>2026-08-27T18:30:13Z</time>
  <course>261.39</course>
  <speed>0.09</speed>
  <fix>3d</fix>
</trkpt>
<trkpt lat="40.0727855" lon="-105.2309191">
  <ele>1585.78</ele>
  <time>2026-08-27T18:30:13Z</time>
  <course>333.39</course>
  <speed>0.0</speed>
  <fix>3d</fix>
</trkpt>
<trkpt lat="40.0727854" lon="-105.2309191">
  <ele>1586.11</ele>
  <time>2026-08-27T18:30:13Z</time>
  <course>264.28</course>
  <speed>0.06</speed>
  <fix>3d</fix>
</trkpt>
<trkpt lat="40.0727855" lon="-105.230919">
  <ele>1586.11</ele>
  <time>2026-08-27T18:30:13Z</time>
  <course>333.55</course>
  <speed>0.02</speed>
  <fix>3d</fix>
</trkpt>
<trkpt lat="40.0727854" lon="-105.2309191">
  <ele>1585.78</ele>
  <time>2026-08-27T18:30:13Z</time>
  <course>207.25</course>
  <speed>0.0</speed>
  <fix>3d</fix>
</trkpt>
<trkpt lat="40.0727855" lon="-105.230919">
  <ele>1586.12</ele>
  <time>2026-08-27T18:30:13Z</time>
  <course>333.54</course>
  <speed>0.0</speed>
  <fix>3d</fix>
</trkpt>
<trkpt lat="40.0727854" lon="-105.2309191">
  <ele>1585.97</ele>
  <time>2026-08-27T18:30:13Z</time>
  <course>90.88</course>
  <speed>0.01</speed>
  <fix>3d</fix>
</trkpt>
<trkpt lat="40.0727855" lon="-105.230919">
  <ele>1586.07</ele>
  <time>2026-08-27T18:30:13Z</time>
  <course>333.45</course>
  <speed>0.0</speed>
  <fix>3d</fix>
</trkpt>
<trkpt lat="40.0727854" lon="-105.2309191">
  <ele>1586.01</ele>
  <time>2026-08-27T18:30:13Z</time>
  <course>27.6</course>
  <speed>0.0</speed>
  <fix>3d</fix>
</trkpt>
<trkpt lat="40.0727855" lon="-105.230919">
  <ele>1586.07</ele>
  <time>2026-08-27T18:30:13Z</time>
  <course>333.37</course>
  <speed>0.0</speed>
  <fix>3d</fix>
</trkpt>
<trkpt lat="40.0727854" lon="-105.2309191">
  <ele>1585.98</ele>
  <time>2026-08-27T18:30:13Z</time>
  <course>354.38</course>
  <speed>0.0</speed>
  <fix>3d</fix>
</trkpt>
<trkpt lat="40.0727855" lon="-105.230919">
  <ele>1586.08</ele>
  <time>2026-08-27T18:30:13Z</time>
  <course>333.29</course>
  <speed>0.0</speed>
  <fix>3d</fix>
</trkpt>
<trkpt lat="40.0727854" lon="-105.2309191">
  <ele>1585.98</ele>
  <time>2026-08-27T18:30:13Z</time>
  <course>68.9</course>
  <speed>0.0</speed>
  <fix>3d</fix>
</trkpt>
<trkpt lat="40.0727855" lon="-105.230919">
  <ele>1586.07</ele>
  <time>2026-08-27T18:30:13Z</time>
  <course>333.21</course>
  <speed>0.0</speed>
  <fix>3d</fix>
</trkpt>
<trkpt lat="40.0727854" lon="-105.2309191">
  <ele>1585.98</ele>
  <time>2026-08-27T18:30:13Z</time>
  <course>62.25</course>
  <speed>0.0</speed>
  <fix>3d</fix>
</trkpt>
<trkpt lat="40.0727855" lon="-105.230919">
  <ele>1586.07</ele>
  <time>2026-08-27T18:30:13Z</time>
  <course>333.14</course>
  <speed>0.0</speed>
  <fix>3d</fix>
</trkpt>
<trkpt lat="40.0727854" lon="-105.2309191">
  <ele>1585.98</ele>
  <time>2026-08-27T18:30:13Z</time>
  <course>55.66</course>
  <speed>0.0</speed>
  <fix>3d</fix>
</trkpt>
<trkpt lat="40.0727855" lon="-105.230919">
  <ele>1586.07</ele>
  <time>2026-08-27T18:30:13Z</time>
  <course>333.07</course>
  <speed>0.0</speed>
  <fix>3d</fix>
</trkpt>
<trkpt lat="40.0727854" lon="-105.2309191">
  <ele>1585.98</ele>
  <time>2026-08-27T18:30:13Z</time>
  <course>58.36</course>
  <speed>0.0</speed>
  <fix>3d</fix>
</trkpt>
<trkpt lat="40.0727855" lon="-105.230919">
  <ele>1586.07</ele>
  <time>2026-08-27T18:30:13Z</time>
  <course>333.01</course>
  <speed>0.0</speed>
  <fix>3d</fix>
</trkpt>
<trkpt lat="40.0727854" lon="-105.2309191">
  <ele>1585.98</ele>
  <time>2026-08-27T18:30:13Z</time>
  <course>59.3</course>
  <speed>0.0</speed>
  <fix>3d</fix>
</trkpt>
<trkpt lat="40.0727855" lon="-105.230919">
  <ele>1586.06</ele>
  <time>2026-08-27T18:30:13Z</time>
  <course>332.94</course>
  <speed>0.0</speed>
  <fix>3d</fix>
</trkpt>
<trkpt lat="40.0727854" lon="-105.2309191">
  <ele>1585.98</ele>
  <time>2026-08-27T18:30:13Z</time>
  <course>58.63</course>
  <speed>0.0</speed>
  <fix>3d</fix>
</trkpt>
<trkpt lat="40.0727855" lon="-105.230919">
  <ele>1586.06</ele>
  <time>2026-08-27T18:30:13Z</time>
  <course>332.89</course>
  <speed>0.0</speed>
  <fix>3d</fix>
</trkpt>
<trkpt lat="40.0727854" lon="-105.2309191">
  <ele>1585.98</ele>
  <time>2026-08-27T18:30:13Z</time>
  <course>58.55</course>
  <speed>0.0</speed>
  <fix>3d</fix>
</trkpt>
<trkpt lat="40.0727855" lon="-105.230919">
  <ele>1586.06</ele>
  <time>2026-08-27T18:30:13Z</time>
  <course>332.83</course>
  <speed>0.0</speed>
  <fix>3d</fix>
</trkpt>
<trkpt lat="40.0727854" lon="-105.2309191">
  <ele>1585.98</ele>
  <time>2026-08-27T18:30:13Z</time>
  <course>58.58</course>
  <speed>0.0</speed>
  <fix>3d</fix>
</trkpt>
<trkpt lat="40.0727855" lon="-105.2309191">
  <ele>1586.07</ele>
  <time>2026-08-27T18:30:13Z</time>
  <course>332.78</course>
  <speed>0.0</speed>
  <fix>3d</fix>
</trkpt>
<trkpt lat="40.0727854" lon="-105.2309191">
  <ele>1585.98</ele>
  <time>2026-08-27T18:30:13Z</time>
  <course>58.35</course>
  <speed>0.0</speed>
  <fix>3d</fix>
</trkpt>
<trkpt lat="40.0727855" lon="-105.2309191">
  <ele>1586.07</ele>
  <time>2026-08-27T18:30:13Z</time>
  <course>332.72</course>
  <speed>0.0</speed>
  <fix>3d</fix>
</trkpt>
<trkpt lat="40.0727854" lon="-105.2309191">
  <ele>1585.98</ele>
  <time>2026-08-27T18:30:13Z</time>
  <course>58.22</course>
  <speed>0.0</speed>
  <fix>3d</fix>
</trkpt>
<trkpt lat="40.0727855" lon="-105.2309191">
  <ele>1586.07</ele>
  <time>2026-08-27T18:30:13Z</time>
  <course>332.68</course>
  <speed>0.0</speed>
  <fix>3d</fix>
</trkpt>
<trkpt lat="40.0727854" lon="-105.2309191">
  <ele>1585.98</ele>
  <time>2026-08-27T18:30:13Z</time>
  <course>58.11</course>
  <speed>0.0</speed>
  <fix>3d</fix>
</trkpt>
<trkpt lat="40.0727855" lon="-105.2309191">
  <ele>1586.08</ele>
  <time>2026-08-27T18:30:13Z</time>
  <course>332.62</course>
  <speed>0.0</speed>
  <fix>3d</fix>
</trkpt>
<trkpt lat="40.0727854" lon="-105.2309191">
  <ele>1585.98</ele>
  <time>2026-08-27T18:30:13Z</time>
  <course>59.47</course>
  <speed>0.0</speed>
  <fix>3d</fix>
</trkpt>
<trkpt lat="40.0727855" lon="-105.2309191">
  <ele>1586.08</ele>
  <time>2026-08-27T18:30:13Z</time>
  <course>332.57</course>
  <speed>0.0</speed>
  <fix>3d</fix>
</trkpt>
<trkpt lat="40.0727854" lon="-105.2309191">
  <ele>1585.98</ele>
  <time>2026-08-27T18:30:13Z</time>
  <course>59.53</course>
  <speed>0.0</speed>
  <fix>3d</fix>
</trkpt>
<trkpt lat="40.0727855" lon="-105.2309191">
  <ele>1586.07</ele>
  <time>2026-08-27T18:30:13Z</time>
  <course>332.51</course>
  <speed>0.0</speed>
  <fix>3d</fix>
</trkpt>
<trkpt lat="40.0727854" lon="-105.2309191">
  <ele>1585.98</ele>
  <time>2026-08-27T18:30:13Z</time>
  <course>59.02</course>
  <speed>0.0</speed>
  <fix>3d</fix>
</trkpt>
<trkpt lat="40.0727855" lon="-105.2309191">
  <ele>1586.07</ele>
  <time>2026-08-27T18:30:13Z</time>
  <course>332.46</course>
  <speed>0.0</speed>
  <fix>3d</fix>
</trkpt>
<trkpt lat="40.0727854" lon="-105.2309191">
  <ele>1585.98</ele>
  <time>2026-08-27T18:30:13Z</time>
  <course>241.32</course>
  <speed>0.0</speed>
  <fix>3d</fix>
</trkpt>
<trkpt lat="40.0727855" lon="-105.2309191">
  <ele>1586.06</ele>
  <time>2026-08-27T18:30:13Z</time>
  <course>332.41</course>
  <speed>0.0</speed>
  <fix>3d</fix>
</trkpt>
<trkpt lat="40.0727854" lon="-105.2309191">
  <ele>1585.98</ele>
  <time>2026-08-27T18:30:13Z</time>
  <course>252.22</course>
  <speed>0.0</speed>
  <fix>3d</fix>
</trkpt>
<trkpt lat="40.0727855" lon="-105.2309191">
  <ele>1586.06</ele>
  <time>2026-08-27T18:30:13Z</time>
  <course>332.36</course>
  <speed>0.0</speed>
  <fix>3d</fix>
</trkpt>
<trkpt lat="40.0727854" lon="-105.2309191">
  <ele>1585.98</ele>
  <time>2026-08-27T18:30:13Z</time>
  <course>48.39</course>
  <speed>0.0</speed>
  <fix>3d</fix>
</trkpt>
<trkpt lat="40.0727855" lon="-105.2309191">
  <ele>1586.06</ele>
  <time>2026-08-27T18:30:13Z</time>
  <course>332.31</course>
  <speed>0.0</speed>
  <fix>3d</fix>
</trkpt>
<trkpt lat="40.0727854" lon="-105.2309191">
  <ele>1585.98</ele>
  <time>2026-08-27T18:30:13Z</time>
  <course>257.16</course>
  <speed>0.0</speed>
  <fix>3d</fix>
</trkpt>
<trkpt lat="40.0727855" lon="-105.2309191">
  <ele>1586.06</ele>
  <time>2026-08-27T18:30:13Z</time>
  <course>332.27</course>
  <speed>0.0</speed>
  <fix>3d</fix>
</trkpt>
<trkpt lat="40.0727854" lon="-105.2309191">
  <ele>1585.98</ele>
  <time>2026-08-27T18:30:13Z</time>
  <course>257.25</course>
  <speed>0.0</speed>
  <fix>3d</fix>
</trkpt>
<trkpt lat="40.0727855" lon="-105.2309191">
  <ele>1586.06</ele>
  <time>2026-08-27T18:30:13Z</time>
  <course>332.23</course>
  <speed>0.0</speed>
  <fix>3d</fix>
</trkpt>
<trkpt lat="40.0727854" lon="-105.2309191">
  <ele>1585.98</ele>
  <time>2026-08-27T18:30:13Z</time>
  <course>270.64</course>
  <speed>0.0</speed>
  <fix>3d</fix>
</trkpt>
<trkpt lat="40.0727855" lon="-105.2309191">
  <ele>1586.06</ele>
  <time>2026-08-27T18:30:13Z</time>
  <course>332.18</course>
  <speed>0.0</speed>
  <fix>3d</fix>
</trkpt>
<trkpt lat="40.0727854" lon="-105.2309191">
  <ele>1585.98</ele>
  <time>2026-08-27T18:30:13Z</time>
  <course>18.86</course>
  <speed>0.0</speed>
  <fix>3d</fix>
</trkpt>
<trkpt lat="40.0727855" lon="-105.2309191">
  <ele>1586.06</ele>
  <time>2026-08-27T18:30:13Z</time>
  <course>332.13</course>
  <speed>0.0</speed>
  <fix>3d</fix>
</trkpt>
<trkpt lat="40.0727854" lon="-105.2309191">
  <ele>1585.98</ele>
  <time>2026-08-27T18:30:13Z</time>
  <course>10.43</course>
  <speed>0.0</speed>
  <fix>3d</fix>
</trkpt>
<trkpt lat="40.0727855" lon="-105.2309191">
  <ele>1586.06</ele>
  <time>2026-08-27T18:30:13Z</time>
  <course>332.08</course>
  <speed>0.0</speed>
  <fix>3d</fix>
</trkpt>
<trkpt lat="40.0727854" lon="-105.2309191">
  <ele>1585.98</ele>
  <time>2026-08-27T18:30:13Z</time>
  <course>209.56</course>
  <speed>0.0</speed>
  <fix>3d</fix>
</trkpt>
<trkpt lat="40.0727855" lon="-105.2309191">
  <ele>1586.06</ele>
  <time>2026-08-27T18:30:13Z</time>
  <course>332.04</course>
  <speed>0.0</speed>
  <fix>3d</fix>
</trkpt>
<trkpt lat="40.0727854" lon="-105.2309191">
  <ele>1585.98</ele>
  <time>2026-08-27T18:30:13Z</time>
  <course>188.47</course>
  <speed>0.0</speed>
  <fix>3d</fix>
</trkpt>
<trkpt lat="40.0727855" lon="-105.2309191">
  <ele>1586.06</ele>
  <time>2026-08-27T18:30:13Z</time>
  <course>332.0</course>
  <speed>0.0</speed>
  <fix>3d</fix>
</trkpt>
<trkpt lat="40.0727854" lon="-105.2309191">
  <ele>1585.98</ele>
  <time>2026-08-27T18:30:13Z</time>
  <course>187.3</course>
  <speed>0.0</speed>
  <fix>3d</fix>
</trkpt>
<trkpt lat="40.0727855" lon="-105.2309191">
  <ele>1586.06</ele>
  <time>2026-08-27T18:30:13Z</time>
  <course>331.96</course>
  <speed>0.0</speed>
  <fix>3d</fix>
</trkpt>
<trkpt lat="40.0727854" lon="-105.2309191">
  <ele>1585.98</ele>
  <time>2026-08-27T18:30:13Z</time>
  <course>188.5</course>
  <speed>0.0</speed>
  <fix>3d</fix>
</trkpt>
<trkpt lat="40.0727855" lon="-105.2309191">
  <ele>1586.07</ele>
  <time>2026-08-27T18:30:13Z</time>
  <course>331.92</course>
  <speed>0.0</speed>
  <fix>3d</fix>
</trkpt>
<trkpt lat="40.0727854" lon="-105.2309191">
  <ele>1585.98</ele>
  <time>2026-08-27T18:30:13Z</time>
  <course>186.05</course>
  <speed>0.0</speed>
  <fix>3d</fix>
</trkpt>
<trkpt lat="40.0727855" lon="-105.2309191">
  <ele>1586.06</ele>
  <time>2026-08-27T18:30:13Z</time>
  <course>331.88</course>
  <speed>0.0</speed>
  <fix>3d</fix>
</trkpt>
<trkpt lat="40.0727854" lon="-105.2309191">
  <ele>1585.98</ele>
  <time>2026-08-27T18:30:13Z</time>
  <course>176.24</course>
  <speed>0.0</speed>
  <fix>3d</fix>
</trkpt>
<trkpt lat="40.0727855" lon="-105.2309191">
  <ele>1586.06</ele>
  <time>2026-08-27T18:30:13Z</time>
  <course>331.84</course>
  <speed>0.0</speed>
  <fix>3d</fix>
</trkpt>
<trkpt lat="40.0727854" lon="-105.2309191">
  <ele>1585.98</ele>
  <time>2026-08-27T18:30:13Z</time>
  <course>164.62</course>
  <speed>0.0</speed>
  <fix>3d</fix>
</trkpt>
<trkpt lat="40.0727855" lon="-105.2309191">
  <ele>1586.06</ele>
  <time>2026-08-27T18:30:13Z</time>
  <course>331.81</course>
  <speed>0.0</speed>
  <fix>3d</fix>
</trkpt>
<trkpt lat="40.0727854" lon="-105.2309191">
  <ele>1585.98</ele>
  <time>2026-08-27T18:30:13Z</time>
  <course>221.87</course>
  <speed>0.0</speed>
  <fix>3d</fix>
</trkpt>
<trkpt lat="40.0727855" lon="-105.2309191">
  <ele>1586.06</ele>
  <time>2026-08-27T18:30:13Z</time>
  <course>331.77</course>
  <speed>0.0</speed>
  <fix>3d</fix>
</trkpt>
<trkpt lat="40.0727854" lon="-105.2309191">
  <ele>1585.98</ele>
  <time>2026-08-27T18:30:13Z</time>
  <course>234.72</course>
  <speed>0.0</speed>
  <fix>3d</fix>
</trkpt>
<trkpt lat="40.0727855" lon="-105.2309191">
  <ele>1586.06</ele>
  <time>2026-08-27T18:30:13Z</time>
  <course>331.74</course>
  <speed>0.0</speed>
  <fix>3d</fix>
</trkpt>
<trkpt lat="40.0727854" lon="-105.2309191">
  <ele>1585.98</ele>
  <time>2026-08-27T18:30:13Z</time>
  <course>235.84</course>
  <speed>0.0</speed>
  <fix>3d</fix>
</trkpt>
<trkpt lat="40.0727855" lon="-105.2309191">
  <ele>1586.06</ele>
  <time>2026-08-27T18:30:13Z</time>
  <course>331.71</course>
  <speed>0.0</speed>
  <fix>3d</fix>
</trkpt>
<trkpt lat="40.0727854" lon="-105.2309191">
  <ele>1585.98</ele>
  <time>2026-08-27T18:30:13Z</time>
  <course>239.04</course>
  <speed>0.0</speed>
  <fix>3d</fix>
</trkpt>
<trkpt lat="40.0727855" lon="-105.2309191">
  <ele>1586.06</ele>
  <time>2026-08-27T18:30:13Z</time>
  <course>331.68</course>
  <speed>0.0</speed>
  <fix>3d</fix>
</trkpt>
<trkpt lat="40.0727854" lon="-105.2309191">
  <ele>1585.98</ele>
  <time>2026-08-27T18:30:13Z</time>
  <course>237.61</course>
  <speed>0.0</speed>
  <fix>3d</fix>
</trkpt>
<trkpt lat="40.0727855" lon="-105.2309191">
  <ele>1586.06</ele>
  <time>2026-08-27T18:30:13Z</time>
  <course>331.65</course>
  <speed>0.0</speed>
  <fix>3d</fix>
</trkpt>
<trkpt lat="40.0727854" lon="-105.2309191">
  <ele>1585.98</ele>
  <time>2026-08-27T18:30:13Z</time>
  <course>236.63</course>
  <speed>0.0</speed>
  <fix>3d</fix>
</trkpt>
<trkpt lat="40.0727855" lon="-105.2309191">
  <ele>1586.06</ele>
  <time>2026-08-27T18:30:13Z</time>
  <course>331.65</course>
  <speed>0.0</speed>
  <fix>3d</fix>
</trkpt>
<trkpt lat="40.0727854" lon="-105.2309191">
  <ele>1585.98</ele>
  <time>2026-08-27T18:30:13Z</time>
  <course>236.66</course>
  <speed>0.0</speed>
  <fix>3d</fix>
</trkpt>
<trkpt lat="40.0727855" lon="-105.2309191">
  <ele>1586.06</ele>
  <time>2026-08-27T18:30:13Z</time>
  <course>331.84</course>
  <speed>0.0</speed>
  <fix>3d</fix>
</trkpt>
<trkpt lat="40.0727854" lon="-105.2309191">
  <ele>1585.98</ele>
  <time>2026-08-27T18:30:13Z</time>
  <course>239.4</course>
  <speed>0.0</speed>
  <fix>3d</fix>
</trkpt>
<trkpt lat="40.0727855" lon="-105.2309191">
  <ele>1586.05</ele>
  <time>2026-08-27T18:30:13Z</time>
  <course>332.07</course>
  <speed>0.0</speed>
  <fix>3d</fix>
</trkpt>
<trkpt lat="40.0727854" lon="-105.2309191">
  <ele>1585.98</ele>
  <time>2026-08-27T18:30:13Z</time>
  <course>239.36</course>
  <speed>0.0</speed>
  <fix>3d</fix>
</trkpt>
<trkpt lat="40.0727855" lon="-105.2309191">
  <ele>1586.05</ele>
  <time>2026-08-27T18:30:13Z</time>
  <course>332.27</course>
  <speed>0.0</speed>
  <fix>3d</fix>
</trkpt>
<trkpt lat="40.0727854" lon="-105.2309191">
  <ele>1585.98</ele>
  <time>2026-08-27T18:30:13Z</time>
  <course>60.3</course>
  <speed>0.0</speed>
  <fix>3d</fix>
</trkpt>
<trkpt lat="40.0727855" lon="-105.2309191">
  <ele>1586.06</ele>
  <time>2026-08-27T18:30:13Z</time>
  <course>332.46</course>
  <speed>0.0</speed>
  <fix>3d</fix>
</trkpt>
<trkpt lat="40.0727854" lon="-105.2309191">
  <ele>1585.98</ele>
  <time>2026-08-27T18:30:13Z</time>
  <course>61.38</course>
  <speed>0.0</speed>
  <fix>3d</fix>
</trkpt>
<trkpt lat="40.0727855" lon="-105.2309191">
  <ele>1586.06</ele>
  <time>2026-08-27T18:30:13Z</time>
  <course>332.64</course>
  <speed>0.0</speed>
  <fix>3d</fix>
</trkpt>
<trkpt lat="40.0727854" lon="-105.2309191">
  <ele>1585.98</ele>
  <time>2026-08-27T18:30:13Z</time>
  <course>235.62</course>
  <speed>0.0</speed>
  <fix>3d</fix>
</trkpt>
<trkpt lat="40.0727855" lon="-105.2309191">
  <ele>1586.07</ele>
  <time>2026-08-27T18:30:13Z</time>
  <course>332.8</course>
  <speed>0.0</speed>
  <fix>3d</fix>
</trkpt>
<trkpt lat="40.0727854" lon="-105.2309191">
  <ele>1585.98</ele>
  <time>2026-08-27T18:30:13Z</time>
  <course>220.85</course>
  <speed>0.0</speed>
  <fix>3d</fix>
</trkpt>
<trkpt lat="40.0727855" lon="-105.2309191">
  <ele>1586.07</ele>
  <time>2026-08-27T18:30:13Z</time>
  <course>332.95</course>
  <speed>0.0</speed>
  <fix>3d</fix>
</trkpt>
<trkpt lat="40.0727854" lon="-105.2309191">
  <ele>1585.98</ele>
  <time>2026-08-27T18:30:13Z</time>
  <course>88.48</course>
  <speed>0.0</speed>
  <fix>3d</fix>
</trkpt>
<trkpt lat="40.0727855" lon="-105.2309191">
  <ele>1586.07</ele>
  <time>2026-08-27T18:30:13Z</time>
  <course>333.1</course>
  <speed>0.0</speed>
  <fix>3d</fix>
</trkpt>
<trkpt lat="40.0727854" lon="-105.2309191">
  <ele>1585.98</ele>
  <time>2026-08-27T18:30:13Z</time>
  <course>167.06</course>
  <speed>0.0</speed>
  <fix>3d</fix>
</trkpt>
<trkpt lat="40.0727855" lon="-105.2309191">
  <ele>1586.07</ele>
  <time>2026-08-27T18:30:13Z</time>
  <course>333.23</course>
  <speed>0.0</speed>
  <fix>3d</fix>
</trkpt>
<trkpt lat="40.0727854" lon="-105.2309191">
  <ele>1585.98</ele>
  <time>2026-08-27T18:30:13Z</time>
  <course>184.39</course>
  <speed>0.0</speed>
  <fix>3d</fix>
</trkpt>
<trkpt lat="40.0727855" lon="-105.2309191">
  <ele>1586.07</ele>
  <time>2026-08-27T18:30:13Z</time>
  <course>333.36</course>
  <speed>0.0</speed>
  <fix>3d</fix>
</trkpt>
<trkpt lat="40.0727854" lon="-105.2309191">
  <ele>1585.98</ele>
  <time>2026-08-27T18:30:13Z</time>
  <course>169.62</course>
  <speed>0.0</speed>
  <fix>3d</fix>
</trkpt>
<trkpt lat="40.0727855" lon="-105.2309191">
  <ele>1586.07</ele>
  <time>2026-08-27T18:30:13Z</time>
  <course>333.48</course>
  <speed>0.0</speed>
  <fix>3d</fix>
</trkpt>
<trkpt lat="40.0727854" lon="-105.2309191">
  <ele>1585.98</ele>
  <time>2026-08-27T18:30:13Z</time>
  <course>169.02</course>
  <speed>0.0</speed>
  <fix>3d</fix>
</trkpt>
<trkpt lat="40.0727855" lon="-105.2309191">
  <ele>1586.07</ele>
  <time>2026-08-27T18:30:13Z</time>
  <course>333.6</course>
  <speed>0.0</speed>
  <fix>3d</fix>
</trkpt>
<trkpt lat="40.0727854" lon="-105.2309191">
  <ele>1585.98</ele>
  <time>2026-08-27T18:30:13Z</time>
  <course>171.32</course>
  <speed>0.0</speed>
  <fix>3d</fix>
</trkpt>
<trkpt lat="40.0727855" lon="-105.2309191">
  <ele>1586.07</ele>
  <time>2026-08-27T18:30:13Z</time>
  <course>333.71</course>
  <speed>0.0</speed>
  <fix>3d</fix>
</trkpt>
<trkpt lat="40.0727854" lon="-105.2309191">
  <ele>1585.98</ele>
  <time>2026-08-27T18:30:13Z</time>
  <course>171.13</course>
  <speed>0.0</speed>
  <fix>3d</fix>
</trkpt>
<trkpt lat="40.0727855" lon="-105.2309191">
  <ele>1586.07</ele>
  <time>2026-08-27T18:30:13Z</time>
  <course>333.81</course>
  <speed>0.0</speed>
  <fix>3d</fix>
</trkpt>
<trkpt lat="40.0727854" lon="-105.2309191">
  <ele>1585.98</ele>
  <time>2026-08-27T18:30:13Z</time>
  <course>170.84</course>
  <speed>0.0</speed>
  <fix>3d</fix>
</trkpt>
<trkpt lat="40.0727855" lon="-105.2309191">
  <ele>1586.06</ele>
  <time>2026-08-27T18:30:13Z</time>
  <course>333.91</course>
  <speed>0.0</speed>
  <fix>3d</fix>
</trkpt>
<trkpt lat="40.0727854" lon="-105.2309191">
  <ele>1585.98</ele>
  <time>2026-08-27T18:30:13Z</time>
  <course>170.9</course>
  <speed>0.0</speed>
  <fix>3d</fix>
</trkpt>
<trkpt lat="40.0727855" lon="-105.2309191">
  <ele>1586.06</ele>
  <time>2026-08-27T18:30:13Z</time>
  <course>334.01</course>
  <speed>0.0</speed>
  <fix>3d</fix>
</trkpt>
<trkpt lat="40.0727854" lon="-105.2309191">
  <ele>1585.98</ele>
  <time>2026-08-27T18:30:13Z</time>
  <course>170.94</course>
  <speed>0.0</speed>
  <fix>3d</fix>
</trkpt>
<trkpt lat="40.0727855" lon="-105.2309191">
  <ele>1586.06</ele>
  <time>2026-08-27T18:30:13Z</time>
  <course>334.1</course>
  <speed>0.0</speed>
  <fix>3d</fix>
</trkpt>
<trkpt lat="40.0727854" lon="-105.2309191">
  <ele>1585.98</ele>
  <time>2026-08-27T18:30:13Z</time>
  <course>170.92</course>
  <speed>0.0</speed>
  <fix>3d</fix>
</trkpt>
<trkpt lat="40.0727855" lon="-105.2309191">
  <ele>1586.06</ele>
  <time>2026-08-27T18:30:13Z</time>
  <course>334.19</course>
  <speed>0.0</speed>
  <fix>3d</fix>
</trkpt>
<trkpt lat="40.0727854" lon="-105.2309191">
  <ele>1585.98</ele>
  <time>2026-08-27T18:30:13Z</time>
  <course>170.92</course>
  <speed>0.0</speed>
  <fix>3d</fix>
</trkpt>
<trkpt lat="40.0727855" lon="-105.2309191">
  <ele>1586.06</ele>
  <time>2026-08-27T18:30:13Z</time>
  <course>334.27</course>
  <speed>0.0</speed>
  <fix>3d</fix>
</trkpt>
<trkpt lat="40.0727854" lon="-105.2309191">
  <ele>1585.98</ele>
  <time>2026-08-27T18:30:13Z</time>
  <course>170.92</course>
  <speed>0.0</speed>
  <fix>3d</fix>
</trkpt>
<trkpt lat="40.0727855" lon="-105.2309191">
  <ele>1586.06</ele>
  <time>2026-08-27T18:30:13Z</time>
  <course>334.35</course>
  <speed>0.0</speed>
  <fix>3d</fix>
</trkpt>
<trkpt lat="40.0727854" lon="-105.2309191">
  <ele>1585.98</ele>
  <time>2026-08-27T18:30:13Z</time>
  <course>170.92</course>
  <speed>0.0</speed>
  <fix>3d</fix>
</trkpt>
<trkpt lat="40.0727855" lon="-105.2309191">
  <ele>1586.06</ele>
  <time>2026-08-27T18:30:13Z</time>
  <course>334.43</course>
  <speed>0.0</speed>
  <fix>3d</fix>
</trkpt>
<trkpt lat="40.0727854" lon="-105.2309191">
  <ele>1585.98</ele>
  <time>2026-08-27T18:30:13Z</time>
  <course>170.92</course>
  <speed>0.0</speed>
  <fix>3d</fix>
</trkpt>
<trkpt lat="40.0727855" lon="-105.2309191">
  <ele>1586.06</ele>
  <time>2026-08-27T18:30:13Z</time>
  <course>334.5</course>
  <speed>0.0</speed>
  <fix>3d</fix>
</trkpt>
<trkpt lat="40.0727854" lon="-105.2309191">
  <ele>1585.98</ele>
  <time>2026-08-27T18:30:13Z</time>
  <course>170.92</course>
  <speed>0.0</speed>
  <fix>3d</fix>
</trkpt>
<trkpt lat="40.0727855" lon="-105.2309191">
  <ele>1586.05</ele>
  <time>2026-08-27T18:30:13Z</time>
  <course>334.58</course>
  <speed>0.0</speed>
  <fix>3d</fix>
</trkpt>
<trkpt lat="40.0727854" lon="-105.2309191">
  <ele>1585.98</ele>
  <time>2026-08-27T18:30:13Z</time>
  <course>170.92</course>
  <speed>0.0</speed>
  <fix>3d</fix>
</trkpt>
<trkpt lat="40.0727855" lon="-105.2309191">
  <ele>1586.06</ele>
  <time>2026-08-27T18:30:13Z</time>
  <course>334.64</course>
  <speed>0.0</speed>
  <fix>3d</fix>
</trkpt>
<trkpt lat="40.0727854" lon="-105.2309191">
  <ele>1585.98</ele>
  <time>2026-08-27T18:30:13Z</time>
  <course>170.92</course>
  <speed>0.0</speed>
  <fix>3d</fix>
</trkpt>
<trkpt lat="40.0727855" lon="-105.2309191">
  <ele>1586.06</ele>
  <time>2026-08-27T18:30:13Z</time>
  <course>334.71</course>
  <speed>0.0</speed>
  <fix>3d</fix>
</trkpt>
<trkpt lat="40.0727854" lon="-105.2309191">
  <ele>1585.98</ele>
  <time>2026-08-27T18:30:13Z</time>
  <course>170.92</course>
  <speed>0.0</speed>
  <fix>3d</fix>
</trkpt>
<trkpt lat="40.0727855" lon="-105.2309191">
  <ele>1586.06</ele>
  <time>2026-08-27T18:30:13Z</time>
  <course>334.77</course>
  <speed>0.0</speed>
  <fix>3d</fix>
</trkpt>
<trkpt lat="40.0727854" lon="-105.2309191">
  <ele>1585.98</ele>
  <time>2026-08-27T18:30:13Z</time>
  <course>170.92</course>
  <speed>0.0</speed>
  <fix>3d</fix>
</trkpt>
<trkpt lat="40.0727855" lon="-105.2309191">
  <ele>1586.06</ele>
  <time>2026-08-27T18:30:13Z</time>
  <course>334.83</course>
  <speed>0.0</speed>
  <fix>3d</fix>
</trkpt>
<trkpt lat="40.0727854" lon="-105.2309191">
  <ele>1585.98</ele>
  <time>2026-08-27T18:30:13Z</time>
  <course>104.07</course>
  <speed>0.0</speed>
  <fix>3d</fix>
</trkpt>
<trkpt lat="40.0727855" lon="-105.2309191">
  <ele>1586.06</ele>
  <time>2026-08-27T18:30:13Z</time>
  <course>334.89</course>
  <speed>0.0</speed>
  <fix>3d</fix>
</trkpt>
<trkpt lat="40.0727854" lon="-105.2309191">
  <ele>1585.98</ele>
  <time>2026-08-27T18:30:13Z</time>
  <course>151.47</course>
  <speed>0.0</speed>
  <fix>3d</fix>
</trkpt>
<trkpt lat="40.0727855" lon="-105.2309191">
  <ele>1586.06</ele>
  <time>2026-08-27T18:30:13Z</time>
  <course>334.95</course>
  <speed>0.0</speed>
  <fix>3d</fix>
</trkpt>
<trkpt lat="40.0727854" lon="-105.2309191">
  <ele>1585.98</ele>
  <time>2026-08-27T18:30:13Z</time>
  <course>58.48</course>
  <speed>0.0</speed>
  <fix>3d</fix>
</trkpt>
<trkpt lat="40.0727855" lon="-105.2309191">
  <ele>1586.06</ele>
  <time>2026-08-27T18:30:13Z</time>
  <course>335.0</course>
  <speed>0.01</speed>
  <fix>3d</fix>
</trkpt>
<trkpt lat="40.0727854" lon="-105.2309191">
  <ele>1585.98</ele>
  <time>2026-08-27T18:30:13Z</time>
  <course>50.05</course>
  <speed>0.0</speed>
  <fix>3d</fix>
</trkpt>
<trkpt lat="40.0727855" lon="-105.2309191">
  <ele>1586.06</ele>
  <time>2026-08-27T18:30:13Z</time>
  <course>335.06</course>
  <speed>0.01</speed>
  <fix>3d</fix>
</trkpt>
<trkpt lat="40.0727854" lon="-105.2309191">
  <ele>1585.98</ele>
  <time>2026-08-27T18:30:13Z</time>
  <course>267.45</course>
  <speed>0.0</speed>
  <fix>3d</fix>
</trkpt>
<trkpt lat="40.0727855" lon="-105.2309191">
  <ele>1586.06</ele>
  <time>2026-08-27T18:30:13Z</time>
  <course>335.11</course>
  <speed>0.01</speed>
  <fix>3d</fix>
</trkpt>
<trkpt lat="40.0727854" lon="-105.2309191">
  <ele>1585.98</ele>
  <time>2026-08-27T18:30:13Z</time>
  <course>201.45</course>
  <speed>0.0</speed>
  <fix>3d</fix>
</trkpt>
<trkpt lat="40.0727855" lon="-105.2309191">
  <ele>1586.06</ele>
  <time>2026-08-27T18:30:13Z</time>
  <course>335.16</course>
  <speed>0.01</speed>
  <fix>3d</fix>
</trkpt>
<trkpt lat="40.0727854" lon="-105.2309191">
  <ele>1585.98</ele>
  <time>2026-08-27T18:30:13Z</time>
  <course>92.79</course>
  <speed>0.0</speed>
  <fix>3d</fix>
</trkpt>
<trkpt lat="40.0727855" lon="-105.2309191">
  <ele>1586.06</ele>
  <time>2026-08-27T18:30:13Z</time>
  <course>335.2</course>
  <speed>0.01</speed>
  <fix>3d</fix>
</trkpt>
<trkpt lat="40.0727854" lon="-105.2309191">
  <ele>1585.98</ele>
  <time>2026-08-27T18:30:13Z</time>
  <course>93.24</course>
  <speed>0.0</speed>
  <fix>3d</fix>
</trkpt>
<trkpt lat="40.0727855" lon="-105.2309191">
  <ele>1586.06</ele>
  <time>2026-08-27T18:30:13Z</time>
  <course>335.25</course>
  <speed>0.01</speed>
  <fix>3d</fix>
</trkpt>
<trkpt lat="40.0727854" lon="-105.2309191">
  <ele>1585.98</ele>
  <time>2026-08-27T18:30:13Z</time>
  <course>124.19</course>
  <speed>0.0</speed>
  <fix>3d</fix>
</trkpt>
<trkpt lat="40.0727855" lon="-105.2309191">
  <ele>1586.06</ele>
  <time>2026-08-27T18:30:13Z</time>
  <course>335.3</course>
  <speed>0.01</speed>
  <fix>3d</fix>
</trkpt>
<trkpt lat="40.0727854" lon="-105.2309191">
  <ele>1585.98</ele>
  <time>2026-08-27T18:30:13Z</time>
  <course>117.01</course>
  <speed>0.0</speed>
  <fix>3d</fix>
</trkpt>
<trkpt lat="40.0727855" lon="-105.2309191">
  <ele>1586.06</ele>
  <time>2026-08-27T18:30:13Z</time>
  <course>335.34</course>
  <speed>0.01</speed>
  <fix>3d</fix>
</trkpt>
<trkpt lat="40.0727854" lon="-105.2309191">
  <ele>1585.98</ele>
  <time>2026-08-27T18:30:13Z</time>
  <course>113.58</course>
  <speed>0.0</speed>
  <fix>3d</fix>
</trkpt>
<trkpt lat="40.0727855" lon="-105.2309191">
  <ele>1586.06</ele>
  <time>2026-08-27T18:30:13Z</time>
  <course>335.38</course>
  <speed>0.01</speed>
  <fix>3d</fix>
</trkpt>
<trkpt lat="40.0727854" lon="-105.2309191">
  <ele>1585.98</ele>
  <time>2026-08-27T18:30:13Z</time>
  <course>114.82</course>
  <speed>0.0</speed>
  <fix>3d</fix>
</trkpt>
<trkpt lat="40.0727855" lon="-105.2309191">
  <ele>1586.06</ele>
  <time>2026-08-27T18:30:13Z</time>
  <course>335.42</course>
  <speed>0.01</speed>
  <fix>3d</fix>
</trkpt>
<trkpt lat="40.0727854" lon="-105.2309191">
  <ele>1585.98</ele>
  <time>2026-08-27T18:30:13Z</time>
  <course>115.13</course>
  <speed>0.0</speed>
  <fix>3d</fix>
</trkpt>
<trkpt lat="40.0727855" lon="-105.2309191">
  <ele>1586.06</ele>
  <time>2026-08-27T18:30:13Z</time>
  <course>335.46</course>
  <speed>0.01</speed>
  <fix>3d</fix>
</trkpt>
<trkpt lat="40.0727854" lon="-105.2309191">
  <ele>1585.98</ele>
  <time>2026-08-27T18:30:13Z</time>
  <course>113.75</course>
  <speed>0.0</speed>
  <fix>3d</fix>
</trkpt>
<trkpt lat="40.0727855" lon="-105.2309191">
  <ele>1586.06</ele>
  <time>2026-08-27T18:30:13Z</time>
  <course>335.5</course>
  <speed>0.01</speed>
  <fix>3d</fix>
</trkpt>
<trkpt lat="40.0727854" lon="-105.2309191">
  <ele>1585.98</ele>
  <time>2026-08-27T18:30:13Z</time>
  <course>110.46</course>
  <speed>0.0</speed>
  <fix>3d</fix>
</trkpt>
<trkpt lat="40.0727855" lon="-105.2309191">
  <ele>1586.06</ele>
  <time>2026-08-27T18:30:13Z</time>
  <course>335.53</course>
  <speed>0.01</speed>
  <fix>3d</fix>
</trkpt>
<trkpt lat="40.0727854" lon="-105.2309191">
  <ele>1585.98</ele>
  <time>2026-08-27T18:30:13Z</time>
  <course>106.96</course>
  <speed>0.0</speed>
  <fix>3d</fix>
</trkpt>
<trkpt lat="40.0727855" lon="-105.2309191">
  <ele>1586.06</ele>
  <time>2026-08-27T18:30:13Z</time>
  <course>335.56</course>
  <speed>0.01</speed>
  <fix>3d</fix>
</trkpt>
<trkpt lat="40.0727854" lon="-105.2309191">
  <ele>1585.98</ele>
  <time>2026-08-27T18:30:13Z</time>
  <course>101.9</course>
  <speed>0.0</speed>
  <fix>3d</fix>
</trkpt>
<trkpt lat="40.0727855" lon="-105.2309191">
  <ele>1586.06</ele>
  <time>2026-08-27T18:30:13Z</time>
  <course>335.59</course>
  <speed>0.01</speed>
  <fix>3d</fix>
</trkpt>
<trkpt lat="40.0727854" lon="-105.2309191">
  <ele>1585.98</ele>
  <time>2026-08-27T18:30:13Z</time>
  <course>82.16</course>
  <speed>0.0</speed>
  <fix>3d</fix>
</trkpt>
<trkpt lat="40.0727855" lon="-105.2309191">
  <ele>1586.06</ele>
  <time>2026-08-27T18:30:13Z</time>
  <course>335.61</course>
  <speed>0.01</speed>
  <fix>3d</fix>
</trkpt>
<trkpt lat="40.0727854" lon="-105.2309191">
  <ele>1585.98</ele>
  <time>2026-08-27T18:30:13Z</time>
  <course>74.56</course>
  <speed>0.0</speed>
  <fix>3d</fix>
</trkpt>
<trkpt lat="40.0727855" lon="-105.2309191">
  <ele>1586.06</ele>
  <time>2026-08-27T18:30:13Z</time>
  <course>335.64</course>
  <speed>0.01</speed>
  <fix>3d</fix>
</trkpt>
<trkpt lat="40.0727854" lon="-105.2309191">
  <ele>1585.98</ele>
  <time>2026-08-27T18:30:13Z</time>
  <course>72.68</course>
  <speed>0.0</speed>
  <fix>3d</fix>
</trkpt>
<trkpt lat="40.0727855" lon="-105.2309191">
  <ele>1586.06</ele>
  <time>2026-08-27T18:30:13Z</time>
  <course>335.66</course>
  <speed>0.01</speed>
  <fix>3d</fix>
</trkpt>
<trkpt lat="40.0727854" lon="-105.2309191">
  <ele>1585.98</ele>
  <time>2026-08-27T18:30:13Z</time>
  <course>69.8</course>
  <speed>0.0</speed>
  <fix>3d</fix>
</trkpt>
<trkpt lat="40.0727855" lon="-105.2309191">
  <ele>1586.06</ele>
  <time>2026-08-27T18:30:13Z</time>
  <course>335.67</course>
  <speed>0.01</speed>
  <fix>3d</fix>
</trkpt>
<trkpt lat="40.0727854" lon="-105.2309191">
  <ele>1585.98</ele>
  <time>2026-08-27T18:30:13Z</time>
  <course>67.42</course>
  <speed>0.0</speed>
  <fix>3d</fix>
</trkpt>
<trkpt lat="40.0727855" lon="-105.2309192">
  <ele>1586.06</ele>
  <time>2026-08-27T18:30:13Z</time>
  <course>335.69</course>
  <speed>0.01</speed>
  <fix>3d</fix>
</trkpt>
<trkpt lat="40.0727854" lon="-105.2309191">
  <ele>1585.98</ele>
  <time>2026-08-27T18:30:13Z</time>
  <course>65.92</course>
  <speed>0.0</speed>
  <fix>3d</fix>
</trkpt>
<trkpt lat="40.0727855" lon="-105.2309192">
  <ele>1586.06</ele>
  <time>2026-08-27T18:30:13Z</time>
  <course>335.7</course>
  <speed>0.01</speed>
  <fix>3d</fix>
</trkpt>
<trkpt lat="40.0727854" lon="-105.2309191">
  <ele>1585.98</ele>
  <time>2026-08-27T18:30:13Z</time>
  <course>62.38</course>
  <speed>0.0</speed>
  <fix>3d</fix>
</trkpt>
<trkpt lat="40.0727855" lon="-105.2309192">
  <ele>1586.06</ele>
  <time>2026-08-27T18:30:13Z</time>
  <course>335.71</course>
  <speed>0.01</speed>
  <fix>3d</fix>
</trkpt>
<trkpt lat="40.0727854" lon="-105.2309191">
  <ele>1585.98</ele>
  <time>2026-08-27T18:30:13Z</time>
  <course>61.83</course>
  <speed>0.0</speed>
  <fix>3d</fix>
</trkpt>
<trkpt lat="40.0727855" lon="-105.2309192">
  <ele>1586.06</ele>
  <time>2026-08-27T18:30:13Z</time>
  <course>335.72</course>
  <speed>0.01</speed>
  <fix>3d</fix>
</trkpt>
<trkpt lat="40.0727854" lon="-105.2309191">
  <ele>1585.98</ele>
  <time>2026-08-27T18:30:13Z</time>
  <course>62.46</course>
  <speed>0.0</speed>
  <fix>3d</fix>
</trkpt>
<trkpt lat="40.0727855" lon="-105.2309192">
  <ele>1586.06</ele>
  <time>2026-08-27T18:30:13Z</time>
  <course>335.73</course>
  <speed>0.01</speed>
  <fix>3d</fix>
</trkpt>
<trkpt lat="40.0727854" lon="-105.2309191">
  <ele>1585.98</ele>
  <time>2026-08-27T18:30:13Z</time>
  <course>62.1</course>
  <speed>0.0</speed>
  <fix>3d</fix>
</trkpt>
<trkpt lat="40.0727855" lon="-105.2309192">
  <ele>1586.06</ele>
  <time>2026-08-27T18:30:13Z</time>
  <course>335.73</course>
  <speed>0.01</speed>
  <fix>3d</fix>
</trkpt>
<trkpt lat="40.0727854" lon="-105.2309191">
  <ele>1585.98</ele>
  <time>2026-08-27T18:30:13Z</time>
  <course>61.8</course>
  <speed>0.0</speed>
  <fix>3d</fix>
</trkpt>
<trkpt lat="40.0727855" lon="-105.2309192">
  <ele>1586.06</ele>
  <time>2026-08-27T18:30:13Z</time>
  <course>335.73</course>
  <speed>0.01</speed>
  <fix>3d</fix>
</trkpt>
<trkpt lat="40.0727854" lon="-105.2309191">
  <ele>1585.98</ele>
  <time>2026-08-27T18:30:13Z</time>
  <course>61.67</course>
  <speed>0.0</speed>
  <fix>3d</fix>
</trkpt>
<trkpt lat="40.0727855" lon="-105.2309192">
  <ele>1586.06</ele>
  <time>2026-08-27T18:30:13Z</time>
  <course>335.73</course>
  <speed>0.01</speed>
  <fix>3d</fix>
</trkpt>
<trkpt lat="40.0727854" lon="-105.2309191">
  <ele>1585.98</ele>
  <time>2026-08-27T18:30:13Z</time>
  <course>61.56</course>
  <speed>0.0</speed>
  <fix>3d</fix>
</trkpt>
<trkpt lat="40.0727855" lon="-105.2309192">
  <ele>1586.05</ele>
  <time>2026-08-27T18:30:13Z</time>
  <course>335.72</course>
  <speed>0.01</speed>
  <fix>3d</fix>
</trkpt>
<trkpt lat="40.0727854" lon="-105.2309191">
  <ele>1585.98</ele>
  <time>2026-08-27T18:30:13Z</time>
  <course>61.47</course>
  <speed>0.0</speed>
  <fix>3d</fix>
</trkpt>
<trkpt lat="40.0727855" lon="-105.2309192">
  <ele>1586.05</ele>
  <time>2026-08-27T18:30:13Z</time>
  <course>335.72</course>
  <speed>0.01</speed>
  <fix>3d</fix>
</trkpt>
<trkpt lat="40.0727854" lon="-105.2309191">
  <ele>1585.98</ele>
  <time>2026-08-27T18:30:13Z</time>
  <course>61.39</course>
  <speed>0.0</speed>
  <fix>3d</fix>
</trkpt>
<trkpt lat="40.0727855" lon="-105.2309192">
  <ele>1586.05</ele>
  <time>2026-08-27T18:30:13Z</time>
  <course>335.71</course>
  <speed>0.01</speed>
  <fix>3d</fix>
</trkpt>
<trkpt lat="40.0727854" lon="-105.2309191">
  <ele>1585.98</ele>
  <time>2026-08-27T18:30:13Z</time>
  <course>61.32</course>
  <speed>0.0</speed>
  <fix>3d</fix>
</trkpt>
<trkpt lat="40.0727855" lon="-105.2309192">
  <ele>1586.05</ele>
  <time>2026-08-27T18:30:13Z</time>
  <course>335.69</course>
  <speed>0.01</speed>
  <fix>3d</fix>
</trkpt>
<trkpt lat="40.0727854" lon="-105.2309191">
  <ele>1585.98</ele>
  <time>2026-08-27T18:30:13Z</time>
  <course>61.25</course>
  <speed>0.0</speed>
  <fix>3d</fix>
</trkpt>
<trkpt lat="40.0727855" lon="-105.2309192">
  <ele>1586.06</ele>
  <time>2026-08-27T18:30:13Z</time>
  <course>335.68</course>
  <speed>0.01</speed>
  <fix>3d</fix>
</trkpt>
<trkpt lat="40.0727854" lon="-105.2309191">
  <ele>1585.98</ele>
  <time>2026-08-27T18:30:13Z</time>
  <course>237.23</course>
  <speed>0.0</speed>
  <fix>3d</fix>
</trkpt>
<trkpt lat="40.0727855" lon="-105.2309192">
  <ele>1586.06</ele>
  <time>2026-08-27T18:30:13Z</time>
  <course>335.67</course>
  <speed>0.01</speed>
  <fix>3d</fix>
</trkpt>
<trkpt lat="40.0727854" lon="-105.2309191">
  <ele>1585.98</ele>
  <time>2026-08-27T18:30:13Z</time>
  <course>237.7</course>
  <speed>0.0</speed>
  <fix>3d</fix>
</trkpt>
<trkpt lat="40.0727855" lon="-105.2309192">
  <ele>1586.06</ele>
  <time>2026-08-27T18:30:13Z</time>
  <course>335.65</course>
  <speed>0.01</speed>
  <fix>3d</fix>
</trkpt>
<trkpt lat="40.0727854" lon="-105.2309191">
  <ele>1585.98</ele>
  <time>2026-08-27T18:30:13Z</time>
  <course>61.84</course>
  <speed>0.0</speed>
  <fix>3d</fix>
</trkpt>
<trkpt lat="40.0727855" lon="-105.2309192">
  <ele>1586.06</ele>
  <time>2026-08-27T18:30:13Z</time>
  <course>335.63</course>
  <speed>0.01</speed>
  <fix>3d</fix>
</trkpt>
<trkpt lat="40.0727854" lon="-105.2309191">
  <ele>1585.98</ele>
  <time>2026-08-27T18:30:13Z</time>
  <course>61.26</course>
  <speed>0.0</speed>
  <fix>3d</fix>
</trkpt>
<trkpt lat="40.0727855" lon="-105.2309192">
  <ele>1586.06</ele>
  <time>2026-08-27T18:30:13Z</time>
  <course>335.61</course>
  <speed>0.01</speed>
  <fix>3d</fix>
</trkpt>
<trkpt lat="40.0727854" lon="-105.2309191">
  <ele>1585.98</ele>
  <time>2026-08-27T18:30:13Z</time>
  <course>62.22</course>
  <speed>0.0</speed>
  <fix>3d</fix>
</trkpt>
<trkpt lat="40.0727855" lon="-105.2309192">
  <ele>1586.06</ele>
  <time>2026-08-27T18:30:14Z</time>
  <course>335.58</course>
  <speed>0.01</speed>
  <fix>3d</fix>
</trkpt>
<trkpt lat="40.0727854" lon="-105.2309191">
  <ele>1585.98</ele>
  <time>2026-08-27T18:30:14Z</time>
  <course>62.05</course>
  <speed>0.0</speed>
  <fix>3d</fix>
</trkpt>
<trkpt lat="40.0727855" lon="-105.2309192">
  <ele>1586.06</ele>
  <time>2026-08-27T18:30:14Z</time>
  <course>335.56</course>
  <speed>0.01</speed>
  <fix>3d</fix>
</trkpt>
<trkpt lat="40.0727854" lon="-105.2309191">
  <ele>1585.98</ele>
  <time>2026-08-27T18:30:14Z</time>
  <course>238.0</course>
  <speed>0.0</speed>
  <fix>3d</fix>
</trkpt>
<trkpt lat="40.0727855" lon="-105.2309192">
  <ele>1586.06</ele>
  <time>2026-08-27T18:30:14Z</time>
  <course>335.53</course>
  <speed>0.01</speed>
  <fix>3d</fix>
</trkpt>
<trkpt lat="40.0727854" lon="-105.2309191">
  <ele>1585.98</ele>
  <time>2026-08-27T18:30:14Z</time>
  <course>238.21</course>
  <speed>0.0</speed>
  <fix>3d</fix>
</trkpt>
<trkpt lat="40.0727855" lon="-105.2309192">
  <ele>1586.06</ele>
  <time>2026-08-27T18:30:14Z</time>
  <course>335.5</course>
  <speed>0.01</speed>
  <fix>3d</fix>
</trkpt>
<trkpt lat="40.0727854" lon="-105.2309191">
  <ele>1585.98</ele>
  <time>2026-08-27T18:30:14Z</time>
  <course>71.49</course>
  <speed>0.0</speed>
  <fix>3d</fix>
</trkpt>
<trkpt lat="40.0727855" lon="-105.2309192">
  <ele>1586.06</ele>
  <time>2026-08-27T18:30:14Z</time>
  <course>335.47</course>
  <speed>0.01</speed>
  <fix>3d</fix>
</trkpt>
<trkpt lat="40.0727854" lon="-105.2309191">
  <ele>1585.98</ele>
  <time>2026-08-27T18:30:14Z</time>
  <course>61.41</course>
  <speed>0.0</speed>
  <fix>3d</fix>
</trkpt>
<trkpt lat="40.0727855" lon="-105.2309192">
  <ele>1586.06</ele>
  <time>2026-08-27T18:30:14Z</time>
  <course>335.44</course>
  <speed>0.01</speed>
  <fix>3d</fix>
</trkpt>
<trkpt lat="40.0727854" lon="-105.2309191">
  <ele>1585.98</ele>
  <time>2026-08-27T18:30:14Z</time>
  <course>237.99</course>
  <speed>0.0</speed>
  <fix>3d</fix>
</trkpt>
<trkpt lat="40.0727855" lon="-105.2309192">
  <ele>1586.06</ele>
  <time>2026-08-27T18:30:14Z</time>
  <course>335.4</course>
  <speed>0.01</speed>
  <fix>3d</fix>
</trkpt>
<trkpt lat="40.0727854" lon="-105.2309191">
  <ele>1585.98</ele>
  <time>2026-08-27T18:30:14Z</time>
  <course>238.15</course>
  <speed>0.0</speed>
  <fix>3d</fix>
</trkpt>
<trkpt lat="40.0727855" lon="-105.2309192">
  <ele>1586.07</ele>
  <time>2026-08-27T18:30:14Z</time>
  <course>335.36</course>
  <speed>0.01</speed>
  <fix>3d</fix>
</trkpt>
<trkpt lat="40.0727854" lon="-105.2309191">
  <ele>1585.98</ele>
  <time>2026-08-27T18:30:14Z</time>
  <course>231.37</course>
  <speed>0.0</speed>
  <fix>3d</fix>
</trkpt>
<trkpt lat="40.0727855" lon="-105.2309192">
  <ele>1586.07</ele>
  <time>2026-08-27T18:30:14Z</time>
  <course>335.33</course>
  <speed>0.01</speed>
  <fix>3d</fix>
</trkpt>
<trkpt lat="40.0727854" lon="-105.2309191">
  <ele>1585.98</ele>
  <time>2026-08-27T18:30:14Z</time>
  <course>62.52</course>
  <speed>0.0</speed>
  <fix>3d</fix>
</trkpt>
<trkpt lat="40.0727855" lon="-105.2309192">
  <ele>1586.07</ele>
  <time>2026-08-27T18:30:14Z</time>
  <course>335.29</course>
  <speed>0.01</speed>
  <fix>3d</fix>
</trkpt>
<trkpt lat="40.0727854" lon="-105.2309191">
  <ele>1585.98</ele>
  <time>2026-08-27T18:30:14Z</time>
  <course>134.77</course>
  <speed>0.0</speed>
  <fix>3d</fix>
</trkpt>
<trkpt lat="40.0727855" lon="-105.2309192">
  <ele>1586.07</ele>
  <time>2026-08-27T18:30:14Z</time>
  <course>335.24</course>
  <speed>0.01</speed>
  <fix>3d</fix>
</trkpt>
<trkpt lat="40.0727854" lon="-105.2309191">
  <ele>1585.98</ele>
  <time>2026-08-27T18:30:14Z</time>
  <course>195.75</course>
  <speed>0.0</speed>
  <fix>3d</fix>
</trkpt>
<trkpt lat="40.0727855" lon="-105.2309192">
  <ele>1586.07</ele>
  <time>2026-08-27T18:30:14Z</time>
  <course>335.2</course>
  <speed>0.01</speed>
  <fix>3d</fix>
</trkpt>
<trkpt lat="40.0727854" lon="-105.2309191">
  <ele>1585.98</ele>
  <time>2026-08-27T18:30:14Z</time>
  <course>101.29</course>
  <speed>0.0</speed>
  <fix>3d</fix>
</trkpt>
<trkpt lat="40.0727855" lon="-105.2309192">
  <ele>1586.06</ele>
  <time>2026-08-27T18:30:14Z</time>
  <course>335.15</course>
  <speed>0.01</speed>
  <fix>3d</fix>
</trkpt>
<trkpt lat="40.0727854" lon="-105.2309191">
  <ele>1585.98</ele>
  <time>2026-08-27T18:30:14Z</time>
  <course>237.68</course>
  <speed>0.0</speed>
  <fix>3d</fix>
</trkpt>
<trkpt lat="40.0727855" lon="-105.2309192">
  <ele>1586.06</ele>
  <time>2026-08-27T18:30:14Z</time>
  <course>335.11</course>
  <speed>0.01</speed>
  <fix>3d</fix>
</trkpt>
<trkpt lat="40.0727854" lon="-105.2309191">
  <ele>1585.98</ele>
  <time>2026-08-27T18:30:14Z</time>
  <course>237.63</course>
  <speed>0.0</speed>
  <fix>3d</fix>
</trkpt>
<trkpt lat="40.0727855" lon="-105.2309192">
  <ele>1586.06</ele>
  <time>2026-08-27T18:30:14Z</time>
  <course>335.06</course>
  <speed>0.01</speed>
  <fix>3d</fix>
</trkpt>
<trkpt lat="40.0727854" lon="-105.2309191">
  <ele>1585.98</ele>
  <time>2026-08-27T18:30:14Z</time>
  <course>237.13</course>
  <speed>0.0</speed>
  <fix>3d</fix>
</trkpt>
<trkpt lat="40.0727855" lon="-105.2309192">
  <ele>1586.06</ele>
  <time>2026-08-27T18:30:14Z</time>
  <course>335.01</course>
  <speed>0.01</speed>
  <fix>3d</fix>
</trkpt>
<trkpt lat="40.0727854" lon="-105.2309191">
  <ele>1585.98</ele>
  <time>2026-08-27T18:30:14Z</time>
  <course>237.56</course>
  <speed>0.0</speed>
  <fix>3d</fix>
</trkpt>
<trkpt lat="40.0727855" lon="-105.2309192">
  <ele>1586.06</ele>
  <time>2026-08-27T18:30:14Z</time>
  <course>334.96</course>
  <speed>0.01</speed>
  <fix>3d</fix>
</trkpt>
<trkpt lat="40.0727854" lon="-105.2309191">
  <ele>1585.98</ele>
  <time>2026-08-27T18:30:14Z</time>
  <course>236.46</course>
  <speed>0.0</speed>
  <fix>3d</fix>
</trkpt>
<trkpt lat="40.0727855" lon="-105.2309192">
  <ele>1586.07</ele>
  <time>2026-08-27T18:30:14Z</time>
  <course>334.92</course>
  <speed>0.01</speed>
  <fix>3d</fix>
</trkpt>
<trkpt lat="40.0727854" lon="-105.2309191">
  <ele>1585.98</ele>
  <time>2026-08-27T18:30:14Z</time>
  <course>237.08</course>
  <speed>0.0</speed>
  <fix>3d</fix>
</trkpt>
<trkpt lat="40.0727855" lon="-105.2309192">
  <ele>1586.07</ele>
  <time>2026-08-27T18:30:14Z</time>
  <course>334.87</course>
  <speed>0.01</speed>
  <fix>3d</fix>
</trkpt>
<trkpt lat="40.0727854" lon="-105.2309191">
  <ele>1585.98</ele>
  <time>2026-08-27T18:30:14Z</time>
  <course>237.24</course>
  <speed>0.0</speed>
  <fix>3d</fix>
</trkpt>
<trkpt lat="40.0727855" lon="-105.2309192">
  <ele>1586.07</ele>
  <time>2026-08-27T18:30:14Z</time>
  <course>334.82</course>
  <speed>0.01</speed>
  <fix>3d</fix>
</trkpt>
<trkpt lat="40.0727854" lon="-105.2309191">
  <ele>1585.98</ele>
  <time>2026-08-27T18:30:14Z</time>
  <course>236.33</course>
  <speed>0.0</speed>
  <fix>3d</fix>
</trkpt>
<trkpt lat="40.0727855" lon="-105.2309192">
  <ele>1586.07</ele>
  <time>2026-08-27T18:30:14Z</time>
  <course>334.78</course>
  <speed>0.01</speed>
  <fix>3d</fix>
</trkpt>
<trkpt lat="40.0727854" lon="-105.2309191">
  <ele>1585.98</ele>
  <time>2026-08-27T18:30:14Z</time>
  <course>237.02</course>
  <speed>0.0</speed>
  <fix>3d</fix>
</trkpt>
<trkpt lat="40.0727855" lon="-105.2309192">
  <ele>1586.07</ele>
  <time>2026-08-27T18:30:14Z</time>
  <course>334.73</course>
  <speed>0.01</speed>
  <fix>3d</fix>
</trkpt>
<trkpt lat="40.0727854" lon="-105.2309191">
  <ele>1585.98</ele>
  <time>2026-08-27T18:30:14Z</time>
  <course>236.28</course>
  <speed>0.0</speed>
  <fix>3d</fix>
</trkpt>
<trkpt lat="40.0727855" lon="-105.2309192">
  <ele>1586.07</ele>
  <time>2026-08-27T18:30:14Z</time>
  <course>334.68</course>
  <speed>0.01</speed>
  <fix>3d</fix>
</trkpt>
<trkpt lat="40.0727854" lon="-105.2309191">
  <ele>1585.98</ele>
  <time>2026-08-27T18:30:14Z</time>
  <course>236.55</course>
  <speed>0.0</speed>
  <fix>3d</fix>
</trkpt>
<trkpt lat="40.0727855" lon="-105.2309192">
  <ele>1586.07</ele>
  <time>2026-08-27T18:30:14Z</time>
  <course>334.64</course>
  <speed>0.01</speed>
  <fix>3d</fix>
</trkpt>
<trkpt lat="40.0727854" lon="-105.2309191">
  <ele>1585.98</ele>
  <time>2026-08-27T18:30:14Z</time>
  <course>236.94</course>
  <speed>0.0</speed>
  <fix>3d</fix>
</trkpt>
<trkpt lat="40.0727855" lon="-105.2309192">
  <ele>1586.07</ele>
  <time>2026-08-27T18:30:14Z</time>
  <course>334.59</course>
  <speed>0.01</speed>
  <fix>3d</fix>
</trkpt>
<trkpt lat="40.0727854" lon="-105.2309191">
  <ele>1585.98</ele>
  <time>2026-08-27T18:30:14Z</time>
  <course>234.73</course>
  <speed>0.0</speed>
  <fix>3d</fix>
</trkpt>
<trkpt lat="40.0727855" lon="-105.2309192">
  <ele>1586.07</ele>
  <time>2026-08-27T18:30:14Z</time>
  <course>334.55</course>
  <speed>0.01</speed>
  <fix>3d</fix>
</trkpt>
<trkpt lat="40.0727854" lon="-105.2309191">
  <ele>1585.98</ele>
  <time>2026-08-27T18:30:14Z</time>
  <course>236.3</course>
  <speed>0.0</speed>
  <fix>3d</fix>
</trkpt>
<trkpt lat="40.0727855" lon="-105.2309192">
  <ele>1586.07</ele>
  <time>2026-08-27T18:30:14Z</time>
  <course>334.5</course>
  <speed>0.01</speed>
  <fix>3d</fix>
</trkpt>
<trkpt lat="40.0727854" lon="-105.2309191">
  <ele>1585.98</ele>
  <time>2026-08-27T18:30:14Z</time>
  <course>236.48</course>
  <speed>0.0</speed>
  <fix>3d</fix>
</trkpt>
<trkpt lat="40.0727855" lon="-105.2309192">
  <ele>1586.07</ele>
  <time>2026-08-27T18:30:14Z</time>
  <course>334.45</course>
  <speed>0.01</speed>
  <fix>3d</fix>
</trkpt>
<trkpt lat="40.0727854" lon="-105.2309191">
  <ele>1585.98</ele>
  <time>2026-08-27T18:30:14Z</time>
  <course>235.7</course>
  <speed>0.0</speed>
  <fix>3d</fix>
</trkpt>
<trkpt lat="40.0727855" lon="-105.2309192">
  <ele>1586.06</ele>
  <time>2026-08-27T18:30:14Z</time>
  <course>334.41</course>
  <speed>0.01</speed>
  <fix>3d</fix>
</trkpt>
<trkpt lat="40.0727854" lon="-105.2309191">
  <ele>1585.98</ele>
  <time>2026-08-27T18:30:14Z</time>
  <course>236.44</course>
  <speed>0.0</speed>
  <fix>3d</fix>
</trkpt>
<trkpt lat="40.0727855" lon="-105.2309192">
  <ele>1586.06</ele>
  <time>2026-08-27T18:30:14Z</time>
  <course>334.37</course>
  <speed>0.01</speed>
  <fix>3d</fix>
</trkpt>
<trkpt lat="40.0727854" lon="-105.2309191">
  <ele>1585.98</ele>
  <time>2026-08-27T18:30:14Z</time>
  <course>235.48</course>
  <speed>0.0</speed>
  <fix>3d</fix>
</trkpt>
<trkpt lat="40.0727855" lon="-105.2309192">
  <ele>1586.06</ele>
  <time>2026-08-27T18:30:14Z</time>
  <course>334.32</course>
  <speed>0.01</speed>
  <fix>3d</fix>
</trkpt>
<trkpt lat="40.0727854" lon="-105.2309191">
  <ele>1585.98</ele>
  <time>2026-08-27T18:30:14Z</time>
  <course>236.01</course>
  <speed>0.0</speed>
  <fix>3d</fix>
</trkpt>
<trkpt lat="40.0727855" lon="-105.2309192">
  <ele>1586.06</ele>
  <time>2026-08-27T18:30:14Z</time>
  <course>334.28</course>
  <speed>0.01</speed>
  <fix>3d</fix>
</trkpt>
<trkpt lat="40.0727854" lon="-105.2309191">
  <ele>1585.98</ele>
  <time>2026-08-27T18:30:14Z</time>
  <course>236.33</course>
  <speed>0.0</speed>
  <fix>3d</fix>
</trkpt>
<trkpt lat="40.0727855" lon="-105.2309192">
  <ele>1586.05</ele>
  <time>2026-08-27T18:30:14Z</time>
  <course>334.23</course>
  <speed>0.01</speed>
  <fix>3d</fix>
</trkpt>
<trkpt lat="40.0727854" lon="-105.2309191">
  <ele>1585.98</ele>
  <time>2026-08-27T18:30:14Z</time>
  <course>233.21</course>
  <speed>0.0</speed>
  <fix>3d</fix>
</trkpt>
<trkpt lat="40.0727855" lon="-105.2309192">
  <ele>1586.05</ele>
  <time>2026-08-27T18:30:14Z</time>
  <course>334.19</course>
  <speed>0.01</speed>
  <fix>3d</fix>
</trkpt>
<trkpt lat="40.0727854" lon="-105.2309191">
  <ele>1585.98</ele>
  <time>2026-08-27T18:30:14Z</time>
  <course>235.85</course>
  <speed>0.0</speed>
  <fix>3d</fix>
</trkpt>
<trkpt lat="40.0727855" lon="-105.2309192">
  <ele>1586.05</ele>
  <time>2026-08-27T18:30:14Z</time>
  <course>334.14</course>
  <speed>0.01</speed>
  <fix>3d</fix>
</trkpt>
<trkpt lat="40.0727854" lon="-105.2309191">
  <ele>1585.98</ele>
  <time>2026-08-27T18:30:14Z</time>
  <course>236.14</course>
  <speed>0.0</speed>
  <fix>3d</fix>
</trkpt>
<trkpt lat="40.0727855" lon="-105.2309192">
  <ele>1586.05</ele>
  <time>2026-08-27T18:30:14Z</time>
  <course>334.1</course>
  <speed>0.01</speed>
  <fix>3d</fix>
</trkpt>
<trkpt lat="40.0727854" lon="-105.2309191">
  <ele>1585.98</ele>
  <time>2026-08-27T18:30:14Z</time>
  <course>232.42</course>
  <speed>0.0</speed>
  <fix>3d</fix>
</trkpt>
<trkpt lat="40.0727855" lon="-105.2309192">
  <ele>1586.05</ele>
  <time>2026-08-27T18:30:14Z</time>
  <course>334.06</course>
  <speed>0.01</speed>
  <fix>3d</fix>
</trkpt>
<trkpt lat="40.0727854" lon="-105.2309191">
  <ele>1585.98</ele>
  <time>2026-08-27T18:30:14Z</time>
  <course>235.6</course>
  <speed>0.0</speed>
  <fix>3d</fix>
</trkpt>
<trkpt lat="40.0727855" lon="-105.2309192">
  <ele>1586.05</ele>
  <time>2026-08-27T18:30:14Z</time>
  <course>334.02</course>
  <speed>0.01</speed>
  <fix>3d</fix>
</trkpt>
<trkpt lat="40.0727854" lon="-105.2309191">
  <ele>1585.98</ele>
  <time>2026-08-27T18:30:14Z</time>
  <course>235.8</course>
  <speed>0.0</speed>
  <fix>3d</fix>
</trkpt>
<trkpt lat="40.0727855" lon="-105.2309192">
  <ele>1586.05</ele>
  <time>2026-08-27T18:30:14Z</time>
  <course>333.97</course>
  <speed>0.01</speed>
  <fix>3d</fix>
</trkpt>
<trkpt lat="40.0727854" lon="-105.2309191">
  <ele>1585.98</ele>
  <time>2026-08-27T18:30:14Z</time>
  <course>229.95</course>
  <speed>0.0</speed>
  <fix>3d</fix>
</trkpt>
<trkpt lat="40.0727855" lon="-105.2309192">
  <ele>1586.05</ele>
  <time>2026-08-27T18:30:14Z</time>
  <course>333.93</course>
  <speed>0.01</speed>
  <fix>3d</fix>
</trkpt>
<trkpt lat="40.0727854" lon="-105.2309191">
  <ele>1585.98</ele>
  <time>2026-08-27T18:30:14Z</time>
  <course>235.25</course>
  <speed>0.0</speed>
  <fix>3d</fix>
</trkpt>
<trkpt lat="40.0727855" lon="-105.2309192">
  <ele>1586.05</ele>
  <time>2026-08-27T18:30:14Z</time>
  <course>333.89</course>
  <speed>0.01</speed>
  <fix>3d</fix>
</trkpt>
<trkpt lat="40.0727854" lon="-105.2309191">
  <ele>1585.98</ele>
  <time>2026-08-27T18:30:14Z</time>
  <course>235.34</course>
  <speed>0.0</speed>
  <fix>3d</fix>
</trkpt>
<trkpt lat="40.0727855" lon="-105.2309192">
  <ele>1586.04</ele>
  <time>2026-08-27T18:30:14Z</time>
  <course>333.85</course>
  <speed>0.01</speed>
  <fix>3d</fix>
</trkpt>
<trkpt lat="40.0727854" lon="-105.2309191">
  <ele>1585.98</ele>
  <time>2026-08-27T18:30:14Z</time>
  <course>234.25</course>
  <speed>0.0</speed>
  <fix>3d</fix>
</trkpt>
<trkpt lat="40.0727855" lon="-105.2309192">
  <ele>1586.04</ele>
  <time>2026-08-27T18:30:14Z</time>
  <course>333.81</course>
  <speed>0.01</speed>
  <fix>3d</fix>
</trkpt>
<trkpt lat="40.0727854" lon="-105.2309191">
  <ele>1585.98</ele>
  <time>2026-08-27T18:30:14Z</time>
  <course>235.49</course>
  <speed>0.0</speed>
  <fix>3d</fix>
</trkpt>
<trkpt lat="40.0727855" lon="-105.2309192">
  <ele>1586.04</ele>
  <time>2026-08-27T18:30:14Z</time>
  <course>333.76</course>
  <speed>0.01</speed>
  <fix>3d</fix>
</trkpt>
<trkpt lat="40.0727854" lon="-105.2309191">
  <ele>1585.98</ele>
  <time>2026-08-27T18:30:14Z</time>
  <course>234.78</course>
  <speed>0.0</speed>
  <fix>3d</fix>
</trkpt>
<trkpt lat="40.0727855" lon="-105.2309192">
  <ele>1586.04</ele>
  <time>2026-08-27T18:30:14Z</time>
  <course>333.72</course>
  <speed>0.01</speed>
  <fix>3d</fix>
</trkpt>
<trkpt lat="40.0727854" lon="-105.2309191">
  <ele>1585.98</ele>
  <time>2026-08-27T18:30:14Z</time>
  <course>226.99</course>
  <speed>0.0</speed>
  <fix>3d</fix>
</trkpt>
<trkpt lat="40.0727855" lon="-105.2309192">
  <ele>1586.04</ele>
  <time>2026-08-27T18:30:14Z</time>
  <course>333.68</course>
  <speed>0.01</speed>
  <fix>3d</fix>
</trkpt>
<trkpt lat="40.0727854" lon="-105.2309191">
  <ele>1585.98</ele>
  <time>2026-08-27T18:30:14Z</time>
  <course>235.03</course>
  <speed>0.0</speed>
  <fix>3d</fix>
</trkpt>
<trkpt lat="40.0727855" lon="-105.2309192">
  <ele>1586.05</ele>
  <time>2026-08-27T18:30:14Z</time>
  <course>333.64</course>
  <speed>0.01</speed>
  <fix>3d</fix>
</trkpt>
<trkpt lat="40.0727854" lon="-105.2309191">
  <ele>1585.98</ele>
  <time>2026-08-27T18:30:14Z</time>
  <course>234.99</course>
  <speed>0.0</speed>
  <fix>3d</fix>
</trkpt>
<trkpt lat="40.0727855" lon="-105.2309192">
  <ele>1586.05</ele>
  <time>2026-08-27T18:30:14Z</time>
  <course>333.6</course>
  <speed>0.01</speed>
  <fix>3d</fix>
</trkpt>
<trkpt lat="40.0727854" lon="-105.2309191">
  <ele>1585.98</ele>
  <time>2026-08-27T18:30:14Z</time>
  <course>231.7</course>
  <speed>0.0</speed>
  <fix>3d</fix>
</trkpt>
<trkpt lat="40.0727855" lon="-105.2309192">
  <ele>1586.05</ele>
  <time>2026-08-27T18:30:14Z</time>
  <course>333.56</course>
  <speed>0.01</speed>
  <fix>3d</fix>
</trkpt>
<trkpt lat="40.0727854" lon="-105.2309191">
  <ele>1585.98</ele>
  <time>2026-08-27T18:30:14Z</time>
  <course>234.94</course>
  <speed>0.0</speed>
  <fix>3d</fix>
</trkpt>
<trkpt lat="40.0727855" lon="-105.2309192">
  <ele>1586.05</ele>
  <time>2026-08-27T18:30:14Z</time>
  <course>333.52</course>
  <speed>0.01</speed>
  <fix>3d</fix>
</trkpt>
<trkpt lat="40.0727854" lon="-105.2309191">
  <ele>1585.98</ele>
  <time>2026-08-27T18:30:14Z</time>
  <course>234.73</course>
  <speed>0.0</speed>
  <fix>3d</fix>
</trkpt>
<trkpt lat="40.0727855" lon="-105.2309192">
  <ele>1586.05</ele>
  <time>2026-08-27T18:30:14Z</time>
  <course>333.48</course>
  <speed>0.01</speed>
  <fix>3d</fix>
</trkpt>
<trkpt lat="40.0727854" lon="-105.2309191">
  <ele>1585.98</ele>
  <time>2026-08-27T18:30:14Z</time>
  <course>232.5</course>
  <speed>0.0</speed>
  <fix>3d</fix>
</trkpt>
<trkpt lat="40.0727855" lon="-105.2309192">
  <ele>1586.05</ele>
  <time>2026-08-27T18:30:14Z</time>
  <course>333.44</course>
  <speed>0.01</speed>
  <fix>3d</fix>
</trkpt>
<trkpt lat="40.0727854" lon="-105.2309191">
  <ele>1585.98</ele>
  <time>2026-08-27T18:30:14Z</time>
  <course>234.86</course>
  <speed>0.0</speed>
  <fix>3d</fix>
</trkpt>
<trkpt lat="40.0727855" lon="-105.2309192">
  <ele>1586.05</ele>
  <time>2026-08-27T18:30:14Z</time>
  <course>333.4</course>
  <speed>0.01</speed>
  <fix>3d</fix>
</trkpt>
<trkpt lat="40.0727854" lon="-105.2309191">
  <ele>1585.98</ele>
  <time>2026-08-27T18:30:14Z</time>
  <course>234.55</course>
  <speed>0.0</speed>
  <fix>3d</fix>
</trkpt>
<trkpt lat="40.0727855" lon="-105.2309192">
  <ele>1586.05</ele>
  <time>2026-08-27T18:30:14Z</time>
  <course>333.37</course>
  <speed>0.01</speed>
  <fix>3d</fix>
</trkpt>
<trkpt lat="40.0727854" lon="-105.2309191">
  <ele>1585.98</ele>
  <time>2026-08-27T18:30:14Z</time>
  <course>229.39</course>
  <speed>0.0</speed>
  <fix>3d</fix>
</trkpt>
<trkpt lat="40.0727855" lon="-105.2309192">
  <ele>1586.05</ele>
  <time>2026-08-27T18:30:14Z</time>
  <course>333.33</course>
  <speed>0.01</speed>
  <fix>3d</fix>
</trkpt>
<trkpt lat="40.0727854" lon="-105.2309191">
  <ele>1585.98</ele>
  <time>2026-08-27T18:30:14Z</time>
  <course>234.62</course>
  <speed>0.0</speed>
  <fix>3d</fix>
</trkpt>
<trkpt lat="40.0727855" lon="-105.2309192">
  <ele>1586.04</ele>
  <time>2026-08-27T18:30:14Z</time>
  <course>333.29</course>
  <speed>0.01</speed>
  <fix>3d</fix>
</trkpt>
<trkpt lat="40.0727854" lon="-105.2309191">
  <ele>1585.98</ele>
  <time>2026-08-27T18:30:14Z</time>
  <course>234.64</course>
  <speed>0.0</speed>
  <fix>3d</fix>
</trkpt>
<trkpt lat="40.0727855" lon="-105.2309192">
  <ele>1586.04</ele>
  <time>2026-08-27T18:30:14Z</time>
  <course>333.25</course>
  <speed>0.01</speed>
  <fix>3d</fix>
</trkpt>
<trkpt lat="40.0727854" lon="-105.2309191">
  <ele>1585.98</ele>
  <time>2026-08-27T18:30:14Z</time>
  <course>230.25</course>
  <speed>0.0</speed>
  <fix>3d</fix>
</trkpt>
<trkpt lat="40.0727855" lon="-105.2309192">
  <ele>1586.04</ele>
  <time>2026-08-27T18:30:14Z</time>
  <course>333.21</course>
  <speed>0.02</speed>
  <fix>3d</fix>
</trkpt>
<trkpt lat="40.0727854" lon="-105.2309191">
  <ele>1585.98</ele>
  <time>2026-08-27T18:30:14Z</time>
  <course>234.61</course>
  <speed>0.0</speed>
  <fix>3d</fix>
</trkpt>
<trkpt lat="40.0727855" lon="-105.2309192">
  <ele>1586.04</ele>
  <time>2026-08-27T18:30:14Z</time>
  <course>333.18</course>
  <speed>0.01</speed>
  <fix>3d</fix>
</trkpt>
<trkpt lat="40.0727854" lon="-105.2309191">
  <ele>1585.98</ele>
  <time>2026-08-27T18:30:14Z</time>
  <course>234.85</course>
  <speed>0.0</speed>
  <fix>3d</fix>
</trkpt>
<trkpt lat="40.0727855" lon="-105.2309192">
  <ele>1586.04</ele>
  <time>2026-08-27T18:30:14Z</time>
  <course>333.14</course>
  <speed>0.01</speed>
  <fix>3d</fix>
</trkpt>
<trkpt lat="40.0727854" lon="-105.2309191">
  <ele>1585.98</ele>
  <time>2026-08-27T18:30:14Z</time>
  <course>232.62</course>
  <speed>0.0</speed>
  <fix>3d</fix>
</trkpt>
<trkpt lat="40.0727855" lon="-105.2309192">
  <ele>1586.04</ele>
  <time>2026-08-27T18:30:14Z</time>
  <course>333.1</course>
  <speed>0.01</speed>
  <fix>3d</fix>
</trkpt>
<trkpt lat="40.0727854" lon="-105.2309191">
  <ele>1585.98</ele>
  <time>2026-08-27T18:30:14Z</time>
  <course>234.14</course>
  <speed>0.0</speed>
  <fix>3d</fix>
</trkpt>
<trkpt lat="40.0727855" lon="-105.2309192">
  <ele>1586.04</ele>
  <time>2026-08-27T18:30:14Z</time>
  <course>333.07</course>
  <speed>0.01</speed>
  <fix>3d</fix>
</trkpt>
<trkpt lat="40.0727854" lon="-105.2309191">
  <ele>1585.98</ele>
  <time>2026-08-27T18:30:14Z</time>
  <course>234.72</course>
  <speed>0.0</speed>
  <fix>3d</fix>
</trkpt>
<trkpt lat="40.0727855" lon="-105.2309192">
  <ele>1586.05</ele>
  <time>2026-08-27T18:30:14Z</time>
  <course>333.03</course>
  <speed>0.01</speed>
  <fix>3d</fix>
</trkpt>
<trkpt lat="40.0727854" lon="-105.2309191">
  <ele>1585.98</ele>
  <time>2026-08-27T18:30:14Z</time>
  <course>233.49</course>
  <speed>0.0</speed>
  <fix>3d</fix>
</trkpt>
<trkpt lat="40.0727855" lon="-105.2309192">
  <ele>1586.05</ele>
  <time>2026-08-27T18:30:14Z</time>
  <course>332.99</course>
  <speed>0.01</speed>
  <fix>3d</fix>
</trkpt>
<trkpt lat="40.0727854" lon="-105.2309191">
  <ele>1585.98</ele>
  <time>2026-08-27T18:30:14Z</time>
  <course>232.07</course>
  <speed>0.0</speed>
  <fix>3d</fix>
</trkpt>
<trkpt lat="40.0727855" lon="-105.2309192">
  <ele>1586.05</ele>
  <time>2026-08-27T18:30:14Z</time>
  <course>332.96</course>
  <speed>0.01</speed>
  <fix>3d</fix>
</trkpt>
<trkpt lat="40.0727854" lon="-105.2309191">
  <ele>1585.98</ele>
  <time>2026-08-27T18:30:14Z</time>
  <course>234.32</course>
  <speed>0.0</speed>
  <fix>3d</fix>
</trkpt>
<trkpt lat="40.0727855" lon="-105.2309192">
  <ele>1586.05</ele>
  <time>2026-08-27T18:30:14Z</time>
  <course>332.92</course>
  <speed>0.01</speed>
  <fix>3d</fix>
</trkpt>
<trkpt lat="40.0727854" lon="-105.2309191">
  <ele>1585.98</ele>
  <time>2026-08-27T18:30:14Z</time>
  <course>234.02</course>
  <speed>0.0</speed>
  <fix>3d</fix>
</trkpt>
<trkpt lat="40.0727855" lon="-105.2309192">
  <ele>1586.05</ele>
  <time>2026-08-27T18:30:14Z</time>
  <course>332.89</course>
  <speed>0.01</speed>
  <fix>3d</fix>
</trkpt>
<trkpt lat="40.0727854" lon="-105.2309191">
  <ele>1585.98</ele>
  <time>2026-08-27T18:30:14Z</time>
  <course>230.44</course>
  <speed>0.0</speed>
  <fix>3d</fix>
</trkpt>
<trkpt lat="40.0727855" lon="-105.2309192">
  <ele>1586.05</ele>
  <time>2026-08-27T18:30:14Z</time>
  <course>332.85</course>
  <speed>0.02</speed>
  <fix>3d</fix>
</trkpt>
<trkpt lat="40.0727854" lon="-105.2309191">
  <ele>1585.98</ele>
  <time>2026-08-27T18:30:14Z</time>
  <course>234.22</course>
  <speed>0.0</speed>
  <fix>3d</fix>
</trkpt>
<trkpt lat="40.0727855" lon="-105.2309192">
  <ele>1586.05</ele>
  <time>2026-08-27T18:30:14Z</time>
  <course>332.82</course>
  <speed>0.01</speed>
  <fix>3d</fix>
</trkpt>
<trkpt lat="40.0727854" lon="-105.2309191">
  <ele>1585.98</ele>
  <time>2026-08-27T18:30:14Z</time>
  <course>234.34</course>
  <speed>0.0</speed>
  <fix>3d</fix>
</trkpt>
<trkpt lat="40.0727855" lon="-105.2309192">
  <ele>1586.06</ele>
  <time>2026-08-27T18:30:14Z</time>
  <course>332.78</course>
  <speed>0.01</speed>
  <fix>3d</fix>
</trkpt>
<trkpt lat="40.0727854" lon="-105.2309191">
  <ele>1585.98</ele>
  <time>2026-08-27T18:30:14Z</time>
  <course>231.8</course>
  <speed>0.0</speed>
  <fix>3d</fix>
</trkpt>
<trkpt lat="40.0727855" lon="-105.2309192">
  <ele>1586.05</ele>
  <time>2026-08-27T18:30:14Z</time>
  <course>332.75</course>
  <speed>0.02</speed>
  <fix>3d</fix>
</trkpt>
<trkpt lat="40.0727854" lon="-105.2309191">
  <ele>1585.98</ele>
  <time>2026-08-27T18:30:14Z</time>
  <course>231.15</course>
  <speed>0.0</speed>
  <fix>3d</fix>
</trkpt>
<trkpt lat="40.0727855" lon="-105.2309192">
  <ele>1586.05</ele>
  <time>2026-08-27T18:30:14Z</time>
  <course>332.71</course>
  <speed>0.02</speed>
  <fix>3d</fix>
</trkpt>
<trkpt lat="40.0727854" lon="-105.2309191">
  <ele>1585.98</ele>
  <time>2026-08-27T18:30:14Z</time>
  <course>234.04</course>
  <speed>0.0</speed>
  <fix>3d</fix>
</trkpt>
<trkpt lat="40.0727855" lon="-105.2309192">
  <ele>1586.05</ele>
  <time>2026-08-27T18:30:14Z</time>
  <course>332.68</course>
  <speed>0.02</speed>
  <fix>3d</fix>
</trkpt>
<trkpt lat="40.0727854" lon="-105.2309191">
  <ele>1585.98</ele>
  <time>2026-08-27T18:30:14Z</time>
  <course>233.96</course>
  <speed>0.0</speed>
  <fix>3d</fix>
</trkpt>
<trkpt lat="40.0727855" lon="-105.2309192">
  <ele>1586.06</ele>
  <time>2026-08-27T18:30:14Z</time>
  <course>332.64</course>
  <speed>0.02</speed>
  <fix>3d</fix>
</trkpt>
<trkpt lat="40.0727854" lon="-105.2309191">
  <ele>1585.98</ele>
  <time>2026-08-27T18:30:14Z</time>
  <course>231.0</course>
  <speed>0.0</speed>
  <fix>3d</fix>
</trkpt>
<trkpt lat="40.0727855" lon="-105.2309192">
  <ele>1586.06</ele>
  <time>2026-08-27T18:30:14Z</time>
  <course>332.61</course>
  <speed>0.02</speed>
  <fix>3d</fix>
</trkpt>
<trkpt lat="40.0727854" lon="-105.2309191">
  <ele>1585.98</ele>
  <time>2026-08-27T18:30:14Z</time>
  <course>233.9</course>
  <speed>0.0</speed>
  <fix>3d</fix>
</trkpt>
<trkpt lat="40.0727855" lon="-105.2309192">
  <ele>1586.06</ele>
  <time>2026-08-27T18:30:14Z</time>
  <course>332.57</course>
  <speed>0.02</speed>
  <fix>3d</fix>
</trkpt>
<trkpt lat="40.0727854" lon="-105.2309191">
  <ele>1585.98</ele>
  <time>2026-08-27T18:30:14Z</time>
  <course>234.18</course>
  <speed>0.0</speed>
  <fix>3d</fix>
</trkpt>
<trkpt lat="40.0727855" lon="-105.2309192">
  <ele>1586.06</ele>
  <time>2026-08-27T18:30:14Z</time>
  <course>332.54</course>
  <speed>0.02</speed>
  <fix>3d</fix>
</trkpt>
<trkpt lat="40.0727854" lon="-105.2309191">
  <ele>1585.98</ele>
  <time>2026-08-27T18:30:14Z</time>
  <course>232.63</course>
  <speed>0.0</speed>
  <fix>3d</fix>
</trkpt>
<trkpt lat="40.0727855" lon="-105.2309192">
  <ele>1586.06</ele>
  <time>2026-08-27T18:30:14Z</time>
  <course>332.51</course>
  <speed>0.02</speed>
  <fix>3d</fix>
</trkpt>
<trkpt lat="40.0727854" lon="-105.2309191">
  <ele>1585.98</ele>
  <time>2026-08-27T18:30:14Z</time>
  <course>230.93</course>
  <speed>0.0</speed>
  <fix>3d</fix>
</trkpt>
<trkpt lat="40.0727855" lon="-105.2309192">
  <ele>1586.06</ele>
  <time>2026-08-27T18:30:14Z</time>
  <course>332.48</course>
  <speed>0.02</speed>
  <fix>3d</fix>
</trkpt>
<trkpt lat="40.0727854" lon="-105.2309191">
  <ele>1585.98</ele>
  <time>2026-08-27T18:30:14Z</time>
  <course>233.24</course>
  <speed>0.0</speed>
  <fix>3d</fix>
</trkpt>
<trkpt lat="40.0727855" lon="-105.2309192">
  <ele>1586.06</ele>
  <time>2026-08-27T18:30:14Z</time>
  <course>332.45</course>
  <speed>0.02</speed>
  <fix>3d</fix>
</trkpt>
<trkpt lat="40.0727854" lon="-105.2309191">
  <ele>1585.98</ele>
  <time>2026-08-27T18:30:14Z</time>
  <course>232.89</course>
  <speed>0.0</speed>
  <fix>3d</fix>
</trkpt>
<trkpt lat="40.0727855" lon="-105.2309192">
  <ele>1586.06</ele>
  <time>2026-08-27T18:30:14Z</time>
  <course>332.43</course>
  <speed>0.02</speed>
  <fix>3d</fix>
</trkpt>
<trkpt lat="40.0727854" lon="-105.2309191">
  <ele>1585.98</ele>
  <time>2026-08-27T18:30:14Z</time>
  <course>232.64</course>
  <speed>0.0</speed>
  <fix>3d</fix>
</trkpt>
<trkpt lat="40.0727855" lon="-105.2309192">
  <ele>1586.06</ele>
  <time>2026-08-27T18:30:14Z</time>
  <course>332.4</course>
  <speed>0.02</speed>
  <fix>3d</fix>
</trkpt>
<trkpt lat="40.0727854" lon="-105.2309191">
  <ele>1585.98</ele>
  <time>2026-08-27T18:30:14Z</time>
  <course>232.23</course>
  <speed>0.0</speed>
  <fix>3d</fix>
</trkpt>
<trkpt lat="40.0727855" lon="-105.2309192">
  <ele>1586.06</ele>
  <time>2026-08-27T18:30:14Z</time>
  <course>332.4</course>
  <speed>0.02</speed>
  <fix>3d</fix>
</trkpt>
<trkpt lat="40.0727855" lon="-105.2309192">
  <ele>1586.06</ele>
  <time>2026-08-27T18:30:14Z</time>
  <course>332.37</course>
  <speed>0.02</speed>
  <fix>3d</fix>
</trkpt>
<trkpt lat="40.0727854" lon="-105.2309191">
  <ele>1585.98</ele>
  <time>2026-08-27T18:30:14Z</time>
  <course>231.11</course>
  <speed>0.0</speed>
  <fix>3d</fix>
</trkpt>
<trkpt lat="40.0727855" lon="-105.2309192">
  <ele>1586.06</ele>
  <time>2026-08-27T18:30:14Z</time>
  <course>332.36</course>
  <speed>0.02</speed>
  <fix>3d</fix>
</trkpt>
<trkpt lat="40.0727855" lon="-105.2309192">
  <ele>1586.07</ele>
  <time>2026-08-27T18:30:14Z</time>
  <course>332.32</course>
  <speed>0.02</speed>
  <fix>3d</fix>
</trkpt>
<trkpt lat="40.0727854" lon="-105.2309191">
  <ele>1585.98</ele>
  <time>2026-08-27T18:30:14Z</time>
  <course>232.42</course>
  <speed>0.0</speed>
  <fix>3d</fix>
</trkpt>
<trkpt lat="40.0727855" lon="-105.2309192">
  <ele>1586.07</ele>
  <time>2026-08-27T18:30:14Z</time>
  <course>332.32</course>
  <speed>0.02</speed>
  <fix>3d</fix>
</trkpt>
<trkpt lat="40.0727855" lon="-105.2309192">
  <ele>1586.09</ele>
  <time>2026-08-27T18:30:14Z</time>
  <course>332.25</course>
  <speed>0.02</speed>
  <fix>3d</fix>
</trkpt>
<trkpt lat="40.0727854" lon="-105.2309191">
  <ele>1585.98</ele>
  <time>2026-08-27T18:30:14Z</time>
  <course>232.37</course>
  <speed>0.0</speed>
  <fix>3d</fix>
</trkpt>
<trkpt lat="40.0727855" lon="-105.2309192">
  <ele>1586.1</ele>
  <time>2026-08-27T18:30:14Z</time>
  <course>332.23</course>
  <speed>0.02</speed>
  <fix>3d</fix>
</trkpt>
<trkpt lat="40.0727855" lon="-105.2309192">
  <ele>1586.15</ele>
  <time>2026-08-27T18:30:14Z</time>
  <course>332.16</course>
  <speed>0.02</speed>
  <fix>3d</fix>
</trkpt>
<trkpt lat="40.0727854" lon="-105.2309191">
  <ele>1586.01</ele>
  <time>2026-08-27T18:30:14Z</time>
  <course>233.83</course>
  <speed>0.0</speed>
  <fix>3d</fix>
</trkpt>
<trkpt lat="40.0727855" lon="-105.2309192">
  <ele>1586.15</ele>
  <time>2026-08-27T18:30:14Z</time>
  <course>332.15</course>
  <speed>0.02</speed>
  <fix>3d</fix>
</trkpt>
<trkpt lat="40.0727855" lon="-105.2309192">
  <ele>1586.19</ele>
  <time>2026-08-27T18:30:14Z</time>
  <course>332.07</course>
  <speed>0.02</speed>
  <fix>3d</fix>
</trkpt>
<trkpt lat="40.0727854" lon="-105.2309191">
  <ele>1586.07</ele>
  <time>2026-08-27T18:30:14Z</time>
  <course>312.59</course>
  <speed>0.0</speed>
  <fix>3d</fix>
</trkpt>
<trkpt lat="40.0727855" lon="-105.2309192">
  <ele>1586.2</ele>
  <time>2026-08-27T18:30:14Z</time>
  <course>331.61</course>
  <speed>0.02</speed>
  <fix>3d</fix>
</trkpt>
<trkpt lat="40.0727855" lon="-105.2309193">
  <ele>1586.34</ele>
  <time>2026-08-27T18:30:14Z</time>
  <course>324.69</course>
  <speed>0.09848857801796104</speed>
  <fix>3d</fix>
</trkpt>
<trkpt lat="40.0727854" lon="-105.2309191">
  <ele>1586.14</ele>
  <time>2026-08-27T18:30:14Z</time>
  <course>229.05</course>
  <speed>0.02</speed>
  <fix>3d</fix>
</trkpt>
<trkpt lat="40.0727854" lon="-105.2309193">
  <ele>1586.38</ele>
  <time>2026-08-27T18:30:14Z</time>
  <course>323.83</course>
  <speed>0.12529964086141668</speed>
  <fix>3d</fix>
</trkpt>
<trkpt lat="40.0727853" lon="-105.2309196">
  <ele>1586.58</ele>
  <time>2026-08-27T18:30:14Z</time>
  <course>323.29</course>
  <speed>0.194164878389476</speed>
  <fix>3d</fix>
</trkpt>
<trkpt lat="40.0727853" lon="-105.2309192">
  <ele>1586.31</ele>
  <time>2026-08-27T18:30:14Z</time>
  <course>225.25</course>
  <speed>0.11</speed>
  <fix>3d</fix>
</trkpt>
<trkpt lat="40.0727853" lon="-105.2309196">
  <ele>1586.61</ele>
  <time>2026-08-27T18:30:14Z</time>
  <course>323.38</course>
  <speed>0.20808652046684814</speed>
  <fix>3d</fix>
</trkpt>
<trkpt lat="40.072785" lon="-105.2309199">
  <ele>1586.72</ele>
  <time>2026-08-27T18:30:14Z</time>
  <course>323.27</course>
  <speed>0.23430749027719963</speed>
  <fix>3d</fix>
</trkpt>
<trkpt lat="40.0727851" lon="-105.2309195">
  <ele>1586.51</ele>
  <time>2026-08-27T18:30:14Z</time>
  <course>221.96</course>
  <speed>0.19</speed>
  <fix>3d</fix>
</trkpt>
<trkpt lat="40.072785" lon="-105.2309199">
  <ele>1586.72</ele>
  <time>2026-08-27T18:30:14Z</time>
  <course>323.26</course>
  <speed>0.23430749027719963</speed>
  <fix>3d</fix>
</trkpt>
<trkpt lat="40.0727847" lon="-105.2309203">
  <ele>1586.82</ele>
  <time>2026-08-27T18:30:14Z</time>
  <course>322.6</course>
  <speed>0.24758836806279894</speed>
  <fix>3d</fix>
</trkpt>
<trkpt lat="40.0727848" lon="-105.2309199">
  <ele>1586.64</ele>
  <time>2026-08-27T18:30:14Z</time>
  <course>217.13</course>
  <speed>0.23</speed>
  <fix>3d</fix>
</trkpt>
<trkpt lat="40.0727846" lon="-105.2309203">
  <ele>1586.84</ele>
  <time>2026-08-27T18:30:14Z</time>
  <course>322.52</course>
  <speed>0.25495097567963926</speed>
  <fix>3d</fix>
</trkpt>
<trkpt lat="40.0727843" lon="-105.2309206">
  <ele>1586.92</ele>
  <time>2026-08-27T18:30:14Z</time>
  <course>322.35</course>
  <speed>0.2640075756488817</speed>
  <fix>3d</fix>
</trkpt>
<trkpt lat="40.0727845" lon="-105.2309202">
  <ele>1586.74</ele>
  <time>2026-08-27T18:30:14Z</time>
  <course>211.59</course>
  <speed>0.24</speed>
  <fix>3d</fix>
</trkpt>
<trkpt lat="40.0727843" lon="-105.2309206">
  <ele>1586.93</ele>
  <time>2026-08-27T18:30:14Z</time>
  <course>322.35</course>
  <speed>0.2580697580112788</speed>
  <fix>3d</fix>
</trkpt>
<trkpt lat="40.0727839" lon="-105.2309208">
  <ele>1587.01</ele>
  <time>2026-08-27T18:30:14Z</time>
  <course>322.37</course>
  <speed>0.25553864678361277</speed>
  <fix>3d</fix>
</trkpt>
<trkpt lat="40.072784" lon="-105.2309205">
  <ele>1586.83</ele>
  <time>2026-08-27T18:30:14Z</time>
  <course>205.89</course>
  <speed>0.25</speed>
  <fix>3d</fix>
</trkpt>
<trkpt lat="40.0727838" lon="-105.2309209">
  <ele>1587.02</ele>
  <time>2026-08-27T18:30:14Z</time>
  <course>322.37</course>
  <speed>0.2641968962724581</speed>
  <fix>3d</fix>
</trkpt>
<trkpt lat="40.0727835" lon="-105.2309211">
  <ele>1587.1</ele>
  <time>2026-08-27T18:30:14Z</time>
  <course>322.4</course>
  <speed>0.2640075756488817</speed>
  <fix>3d</fix>
</trkpt>
<trkpt lat="40.0727836" lon="-105.2309206">
  <ele>1586.92</ele>
  <time>2026-08-27T18:30:14Z</time>
  <course>200.16</course>
  <speed>0.26</speed>
  <fix>3d</fix>
</trkpt>
<trkpt lat="40.0727834" lon="-105.2309211">
  <ele>1587.1</ele>
  <time>2026-08-27T18:30:14Z</time>
  <course>322.4</course>
  <speed>0.2640075756488817</speed>
  <fix>3d</fix>
</trkpt>
<trkpt lat="40.072783" lon="-105.2309212">
  <ele>1587.19</ele>
  <time>2026-08-27T18:30:14Z</time>
  <course>322.47</course>
  <speed>0.2720294101747089</speed>
  <fix>3d</fix>
</trkpt>
<trkpt lat="40.0727832" lon="-105.2309209">
  <ele>1587.02</ele>
  <time>2026-08-27T18:30:14Z</time>
  <course>194.68</course>
  <speed>0.26</speed>
  <fix>3d</fix>
</trkpt>
<trkpt lat="40.0727829" lon="-105.2309212">
  <ele>1587.21</ele>
  <time>2026-08-27T18:30:14Z</time>
  <course>322.5</course>
  <speed>0.2720294101747089</speed>
  <fix>3d</fix>
</trkpt>
<trkpt lat="40.0727825" lon="-105.2309213">
  <ele>1587.3</ele>
  <time>2026-08-27T18:30:14Z</time>
  <course>322.6</course>
  <speed>0.2765863337187866</speed>
  <fix>3d</fix>
</trkpt>
<trkpt lat="40.0727827" lon="-105.230921">
  <ele>1587.12</ele>
  <time>2026-08-27T18:30:14Z</time>
  <course>189.65</course>
  <speed>0.27</speed>
  <fix>3d</fix>
</trkpt>
<trkpt lat="40.0727825" lon="-105.2309213">
  <ele>1587.3</ele>
  <time>2026-08-27T18:30:14Z</time>
  <course>322.6</course>
  <speed>0.2765863337187866</speed>
  <fix>3d</fix>
</trkpt>
<trkpt lat="40.072782" lon="-105.2309214">
  <ele>1587.41</ele>
  <time>2026-08-27T18:30:14Z</time>
  <course>322.75</course>
  <speed>0.282842712474619</speed>
  <fix>3d</fix>
</trkpt>
<trkpt lat="40.0727822" lon="-105.2309211">
  <ele>1587.22</ele>
  <time>2026-08-27T18:30:14Z</time>
  <course>185.15</course>
  <speed>0.28</speed>
  <fix>3d</fix>
</trkpt>
<trkpt lat="40.0727819" lon="-105.2309214">
  <ele>1587.43</ele>
  <time>2026-08-27T18:30:14Z</time>
  <course>322.79</course>
  <speed>0.29274562336608895</speed>
  <fix>3d</fix>
</trkpt>
<trkpt lat="40.0727814" lon="-105.2309214">
  <ele>1587.53</ele>
  <time>2026-08-27T18:30:14Z</time>
  <course>322.99</course>
  <speed>0.30066592756745814</speed>
  <fix>3d</fix>
</trkpt>
<trkpt lat="40.0727816" lon="-105.2309212">
  <ele>1587.33</ele>
  <time>2026-08-27T18:30:14Z</time>
  <course>181.24</course>
  <speed>0.29</speed>
  <fix>3d</fix>
</trkpt>
<trkpt lat="40.0727813" lon="-105.2309214">
  <ele>1587.55</ele>
  <time>2026-08-27T18:30:14Z</time>
  <course>323.04</course>
  <speed>0.30066592756745814</speed>
  <fix>3d</fix>
</trkpt>
<trkpt lat="40.0727809" lon="-105.2309213">
  <ele>1587.65</ele>
  <time>2026-08-27T18:30:14Z</time>
  <course>323.28</course>
  <speed>0.3101612483854165</speed>
  <fix>3d</fix>
</trkpt>
<trkpt lat="40.0727811" lon="-105.2309212">
  <ele>1587.45</ele>
  <time>2026-08-27T18:30:14Z</time>
  <course>177.88</course>
  <speed>0.3</speed>
  <fix>3d</fix>
</trkpt>
<trkpt lat="40.0727808" lon="-105.2309213">
  <ele>1587.66</ele>
  <time>2026-08-27T18:30:14Z</time>
  <course>323.29</course>
  <speed>0.31</speed>
  <fix>3d</fix>
</trkpt>
<trkpt lat="40.0727803" lon="-105.2309213">
  <ele>1587.78</ele>
  <time>2026-08-27T18:30:14Z</time>
  <course>323.6</course>
  <speed>0.32</speed>
  <fix>3d</fix>
</trkpt>
<trkpt lat="40.0727806" lon="-105.2309212">
  <ele>1587.57</ele>
  <time>2026-08-27T18:30:14Z</time>
  <course>174.96</course>
  <speed>0.31</speed>
  <fix>3d</fix>
</trkpt>
<trkpt lat="40.0727802" lon="-105.2309213">
  <ele>1587.8</ele>
  <time>2026-08-27T18:30:14Z</time>
  <course>323.66</course>
  <speed>0.32</speed>
  <fix>3d</fix>
</trkpt>
<trkpt lat="40.0727797" lon="-105.2309213">
  <ele>1587.9</ele>
  <time>2026-08-27T18:30:14Z</time>
  <course>323.91</course>
  <speed>0.3306055050963308</speed>
  <fix>3d</fix>
</trkpt>
<trkpt lat="40.0727801" lon="-105.2309211">
  <ele>1587.69</ele>
  <time>2026-08-27T18:30:14Z</time>
  <course>172.45</course>
  <speed>0.32</speed>
  <fix>3d</fix>
</trkpt>
<trkpt lat="40.0727796" lon="-105.2309213">
  <ele>1587.92</ele>
  <time>2026-08-27T18:30:14Z</time>
  <course>323.96</course>
  <speed>0.3306055050963308</speed>
  <fix>3d</fix>
</trkpt>
<trkpt lat="40.0727791" lon="-105.2309211">
  <ele>1588.02</ele>
  <time>2026-08-27T18:30:14Z</time>
  <course>324.19</course>
  <speed>0.34132096331752027</speed>
  <fix>3d</fix>
</trkpt>
<trkpt lat="40.0727794" lon="-105.230921">
  <ele>1587.81</ele>
  <time>2026-08-27T18:30:14Z</time>
  <course>170.26</course>
  <speed>0.33</speed>
  <fix>3d</fix>
</trkpt>
<trkpt lat="40.0727791" lon="-105.2309211">
  <ele>1588.03</ele>
  <time>2026-08-27T18:30:14Z</time>
  <course>324.2</course>
  <speed>0.34132096331752027</speed>
  <fix>3d</fix>
</trkpt>
<trkpt lat="40.0727785" lon="-105.230921">
  <ele>1588.14</ele>
  <time>2026-08-27T18:30:14Z</time>
  <course>324.49</course>
  <speed>0.3522782990761707</speed>
  <fix>3d</fix>
</trkpt>
<trkpt lat="40.0727789" lon="-105.2309209">
  <ele>1587.93</ele>
  <time>2026-08-27T18:30:14Z</time>
  <course>168.37</course>
  <speed>0.34</speed>
  <fix>3d</fix>
</trkpt>
<trkpt lat="40.0727784" lon="-105.230921">
  <ele>1588.15</ele>
  <time>2026-08-27T18:30:14Z</time>
  <course>324.53</course>
  <speed>0.3535533905932738</speed>
  <fix>3d</fix>
</trkpt>
<trkpt lat="40.0727779" lon="-105.2309208">
  <ele>1588.26</ele>
  <time>2026-08-27T18:30:14Z</time>
  <course>324.79</course>
  <speed>0.3649657518178932</speed>
  <fix>3d</fix>
</trkpt>
<trkpt lat="40.0727782" lon="-105.2309206">
  <ele>1588.06</ele>
  <time>2026-08-27T18:30:14Z</time>
  <course>166.77</course>
  <speed>0.35</speed>
  <fix>3d</fix>
</trkpt>
<trkpt lat="40.0727778" lon="-105.2309208">
  <ele>1588.27</ele>
  <time>2026-08-27T18:30:14Z</time>
  <course>324.8</course>
  <speed>0.3649657518178932</speed>
  <fix>3d</fix>
</trkpt>
<trkpt lat="40.0727772" lon="-105.2309206">
  <ele>1588.38</ele>
  <time>2026-08-27T18:30:14Z</time>
  <course>325.02</course>
  <speed>0.37656340767525465</speed>
  <fix>3d</fix>
</trkpt>
<trkpt lat="40.0727776" lon="-105.2309205">
  <ele>1588.17</ele>
  <time>2026-08-27T18:30:14Z</time>
  <course>165.44</course>
  <speed>0.36</speed>
  <fix>3d</fix>
</trkpt>
<trkpt lat="40.0727771" lon="-105.2309205">
  <ele>1588.41</ele>
  <time>2026-08-27T18:30:14Z</time>
  <course>325.06</course>
  <speed>0.37656340767525465</speed>
  <fix>3d</fix>
</trkpt>
<trkpt lat="40.0727765" lon="-105.2309203">
  <ele>1588.51</ele>
  <time>2026-08-27T18:30:14Z</time>
  <course>325.23</course>
  <speed>0.388329756778952</speed>
  <fix>3d</fix>
</trkpt>
<trkpt lat="40.072777" lon="-105.2309202">
  <ele>1588.3</ele>
  <time>2026-08-27T18:30:14Z</time>
  <course>164.31</course>
  <speed>0.37</speed>
  <fix>3d</fix>
</trkpt>
<trkpt lat="40.0727764" lon="-105.2309203">
  <ele>1588.53</ele>
  <time>2026-08-27T18:30:14Z</time>
  <course>325.27</course>
  <speed>0.388329756778952</speed>
  <fix>3d</fix>
</trkpt>
<trkpt lat="40.0727759" lon="-105.2309201">
  <ele>1588.63</ele>
  <time>2026-08-27T18:30:14Z</time>
  <course>325.44</course>
  <speed>0.3905124837953327</speed>
  <fix>3d</fix>
</trkpt>
<trkpt lat="40.0727763" lon="-105.23092">
  <ele>1588.43</ele>
  <time>2026-08-27T18:30:14Z</time>
  <course>163.34</course>
  <speed>0.39</speed>
  <fix>3d</fix>
</trkpt>
<trkpt lat="40.0727757" lon="-105.23092">
  <ele>1588.65</ele>
  <time>2026-08-27T18:30:14Z</time>
  <course>325.48</course>
  <speed>0.3905124837953327</speed>
  <fix>3d</fix>
</trkpt>
<trkpt lat="40.0727752" lon="-105.2309198">
  <ele>1588.76</ele>
  <time>2026-08-27T18:30:14Z</time>
  <course>324.34</course>
  <speed>0.4026164427839479</speed>
  <fix>3d</fix>
</trkpt>
<trkpt lat="40.0727756" lon="-105.2309197">
  <ele>1588.56</ele>
  <time>2026-08-27T18:30:14Z</time>
  <course>162.53</course>
  <speed>0.4</speed>
  <fix>3d</fix>
</trkpt>
<trkpt lat="40.072775" lon="-105.2309197">
  <ele>1588.78</ele>
  <time>2026-08-27T18:30:14Z</time>
  <course>323.87</course>
  <speed>0.4026164427839479</speed>
  <fix>3d</fix>
</trkpt>
<trkpt lat="40.0727745" lon="-105.2309195">
  <ele>1588.89</ele>
  <time>2026-08-27T18:30:14Z</time>
  <course>322.78</course>
  <speed>0.42449970553582245</speed>
  <fix>3d</fix>
</trkpt>
<trkpt lat="40.0727749" lon="-105.2309194">
  <ele>1588.68</ele>
  <time>2026-08-27T18:30:14Z</time>
  <course>162.05</course>
  <speed>0.41</speed>
  <fix>3d</fix>
</trkpt>
<trkpt lat="40.0727744" lon="-105.2309195">
  <ele>1588.89</ele>
  <time>2026-08-27T18:30:14Z</time>
  <course>322.79</course>
  <speed>0.42449970553582245</speed>
  <fix>3d</fix>
</trkpt>
<trkpt lat="40.0727737" lon="-105.2309192">
  <ele>1589.02</ele>
  <time>2026-08-27T18:30:14Z</time>
  <course>323.93</course>
  <speed>0.4368065933568311</speed>
  <fix>3d</fix>
</trkpt>
<trkpt lat="40.0727742" lon="-105.2309191">
  <ele>1588.81</ele>
  <time>2026-08-27T18:30:14Z</time>
  <course>161.83</course>
  <speed>0.42</speed>
  <fix>3d</fix>
</trkpt>
<trkpt lat="40.0727736" lon="-105.2309191">
  <ele>1589.04</ele>
  <time>2026-08-27T18:30:14Z</time>
  <course>324.16</course>
  <speed>0.4368065933568311</speed>
  <fix>3d</fix>
</trkpt>
<trkpt lat="40.072773" lon="-105.2309188">
  <ele>1589.14</ele>
  <time>2026-08-27T18:30:14Z</time>
  <course>325.12</course>
  <speed>0.44922154890432403</speed>
  <fix>3d</fix>
</trkpt>
<trkpt lat="40.0727734" lon="-105.2309188">
  <ele>1588.94</ele>
  <time>2026-08-27T18:30:14Z</time>
  <course>161.48</course>
  <speed>0.42</speed>
  <fix>3d</fix>
</trkpt>
<trkpt lat="40.0727728" lon="-105.2309188">
  <ele>1589.16</ele>
  <time>2026-08-27T18:30:14Z</time>
  <course>325.26</course>
  <speed>0.44922154890432403</speed>
  <fix>3d</fix>
</trkpt>
<trkpt lat="40.0727722" lon="-105.2309185">
  <ele>1589.27</ele>
  <time>2026-08-27T18:30:14Z</time>
  <course>325.76</course>
  <speed>0.44922154890432403</speed>
  <fix>3d</fix>
</trkpt>
<trkpt lat="40.0727727" lon="-105.2309185">
  <ele>1589.07</ele>
  <time>2026-08-27T18:30:14Z</time>
  <course>161.04</course>
  <speed>0.43</speed>
  <fix>3d</fix>
</trkpt>
<trkpt lat="40.0727721" lon="-105.2309184">
  <ele>1589.29</ele>
  <time>2026-08-27T18:30:14Z</time>
  <course>325.84</course>
  <speed>0.44922154890432403</speed>
  <fix>3d</fix>
</trkpt>
<trkpt lat="40.0727715" lon="-105.2309181">
  <ele>1589.4</ele>
  <time>2026-08-27T18:30:14Z</time>
  <course>326.18</course>
  <speed>0.44922154890432403</speed>
  <fix>3d</fix>
</trkpt>
<trkpt lat="40.072772" lon="-105.2309181">
  <ele>1589.19</ele>
  <time>2026-08-27T18:30:14Z</time>
  <course>160.78</course>
  <speed>0.43</speed>
  <fix>3d</fix>
</trkpt>
<trkpt lat="40.0727713" lon="-105.2309181">
  <ele>1589.42</ele>
  <time>2026-08-27T18:30:14Z</time>
  <course>326.24</course>
  <speed>0.44922154890432403</speed>
  <fix>3d</fix>
</trkpt>
<trkpt lat="40.0727707" lon="-105.2309178">
  <ele>1589.52</ele>
  <time>2026-08-27T18:30:14Z</time>
  <course>326.47</course>
  <speed>0.4522167621838005</speed>
  <fix>3d</fix>
</trkpt>
<trkpt lat="40.0727713" lon="-105.2309178">
  <ele>1589.32</ele>
  <time>2026-08-27T18:30:14Z</time>
  <course>160.68</course>
  <speed>0.43</speed>
  <fix>3d</fix>
</trkpt>
<trkpt lat="40.0727707" lon="-105.2309178">
  <ele>1589.53</ele>
  <time>2026-08-27T18:30:14Z</time>
  <course>326.49</course>
  <speed>0.4522167621838005</speed>
  <fix>3d</fix>
</trkpt>
<trkpt lat="40.07277" lon="-105.2309174">
  <ele>1589.65</ele>
  <time>2026-08-27T18:30:14Z</time>
  <course>326.71</course>
  <speed>0.4522167621838005</speed>
  <fix>3d</fix>
</trkpt>
<trkpt lat="40.0727705" lon="-105.2309175">
  <ele>1589.44</ele>
  <time>2026-08-27T18:30:14Z</time>
  <course>160.65</course>
  <speed>0.43</speed>
  <fix>3d</fix>
</trkpt>
<trkpt lat="40.0727699" lon="-105.2309174">
  <ele>1589.67</ele>
  <time>2026-08-27T18:30:14Z</time>
  <course>326.75</course>
  <speed>0.4522167621838005</speed>
  <fix>3d</fix>
</trkpt>
<trkpt lat="40.0727692" lon="-105.2309171">
  <ele>1589.77</ele>
  <time>2026-08-27T18:30:14Z</time>
  <course>326.91</course>
  <speed>0.4522167621838005</speed>
  <fix>3d</fix>
</trkpt>
<trkpt lat="40.0727698" lon="-105.2309171">
  <ele>1589.57</ele>
  <time>2026-08-27T18:30:14Z</time>
  <course>160.62</course>
  <speed>0.44</speed>
  <fix>3d</fix>
</trkpt>
<trkpt lat="40.0727691" lon="-105.230917">
  <ele>1589.79</ele>
  <time>2026-08-27T18:30:14Z</time>
  <course>326.95</course>
  <speed>0.4522167621838005</speed>
  <fix>3d</fix>
</trkpt>
<trkpt lat="40.0727685" lon="-105.2309167">
  <ele>1589.9</ele>
  <time>2026-08-27T18:30:14Z</time>
  <course>327.1</course>
  <speed>0.4522167621838005</speed>
  <fix>3d</fix>
</trkpt>
<trkpt lat="40.072769" lon="-105.2309167">
  <ele>1589.69</ele>
  <time>2026-08-27T18:30:14Z</time>
  <course>160.62</course>
  <speed>0.44</speed>
  <fix>3d</fix>
</trkpt>
<trkpt lat="40.0727684" lon="-105.2309167">
  <ele>1589.92</ele>
  <time>2026-08-27T18:30:14Z</time>
  <course>327.13</course>
  <speed>0.4522167621838005</speed>
  <fix>3d</fix>
</trkpt>
<trkpt lat="40.0727677" lon="-105.2309164">
  <ele>1590.02</ele>
  <time>2026-08-27T18:30:14Z</time>
  <course>327.28</course>
  <speed>0.4522167621838005</speed>
  <fix>3d</fix>
</trkpt>
<trkpt lat="40.0727682" lon="-105.2309164">
  <ele>1589.82</ele>
  <time>2026-08-27T18:30:14Z</time>
  <course>160.66</course>
  <speed>0.44</speed>
  <fix>3d</fix>
</trkpt>
<trkpt lat="40.0727676" lon="-105.2309163">
  <ele>1590.04</ele>
  <time>2026-08-27T18:30:14Z</time>
  <course>327.3</course>
  <speed>0.4522167621838005</speed>
  <fix>3d</fix>
</trkpt>
<trkpt lat="40.072767" lon="-105.230916">
  <ele>1590.15</ele>
  <time>2026-08-27T18:30:14Z</time>
  <course>327.41</course>
  <speed>0.4617358552246078</speed>
  <fix>3d</fix>
</trkpt>
<trkpt lat="40.0727675" lon="-105.2309161">
  <ele>1589.94</ele>
  <time>2026-08-27T18:30:14Z</time>
  <course>160.68</course>
  <speed>0.45</speed>
  <fix>3d</fix>
</trkpt>
<trkpt lat="40.0727668" lon="-105.2309159">
  <ele>1590.18</ele>
  <time>2026-08-27T18:30:14Z</time>
  <course>327.46</course>
  <speed>0.4617358552246078</speed>
  <fix>3d</fix>
</trkpt>
<trkpt lat="40.0727662" lon="-105.2309156">
  <ele>1590.27</ele>
  <time>2026-08-27T18:30:14Z</time>
  <course>327.58</course>
  <speed>0.4617358552246078</speed>
  <fix>3d</fix>
</trkpt>
<trkpt lat="40.0727667" lon="-105.2309157">
  <ele>1590.07</ele>
  <time>2026-08-27T18:30:14Z</time>
  <course>160.7</course>
  <speed>0.45</speed>
  <fix>3d</fix>
</trkpt>
<trkpt lat="40.0727662" lon="-105.2309156">
  <ele>1590.28</ele>
  <time>2026-08-27T18:30:15Z</time>
  <course>327.59</course>
  <speed>0.4617358552246078</speed>
  <fix>3d</fix>
</trkpt>
<trkpt lat="40.0727654" lon="-105.2309153">
  <ele>1590.4</ele>
  <time>2026-08-27T18:30:15Z</time>
  <course>327.74</course>
  <speed>0.4617358552246078</speed>
  <fix>3d</fix>
</trkpt>
<trkpt lat="40.072766" lon="-105.2309153">
  <ele>1590.2</ele>
  <time>2026-08-27T18:30:15Z</time>
  <course>160.72</course>
  <speed>0.45</speed>
  <fix>3d</fix>
</trkpt>
<trkpt lat="40.0727653" lon="-105.2309152">
  <ele>1590.42</ele>
  <time>2026-08-27T18:30:15Z</time>
  <course>327.77</course>
  <speed>0.4617358552246078</speed>
  <fix>3d</fix>
</trkpt>
<trkpt lat="40.0727647" lon="-105.2309149">
  <ele>1590.52</ele>
  <time>2026-08-27T18:30:15Z</time>
  <course>327.88</course>
  <speed>0.46486557196677836</speed>
  <fix>3d</fix>
</trkpt>
<trkpt lat="40.0727652" lon="-105.230915">
  <ele>1590.32</ele>
  <time>2026-08-27T18:30:15Z</time>
  <course>160.73</course>
  <speed>0.46</speed>
  <fix>3d</fix>
</trkpt>
<trkpt lat="40.0727645" lon="-105.2309148">
  <ele>1590.55</ele>
  <time>2026-08-27T18:30:15Z</time>
  <course>327.9</course>
  <speed>0.46486557196677836</speed>
  <fix>3d</fix>
</trkpt>
<trkpt lat="40.0727639" lon="-105.2309145">
  <ele>1590.65</ele>
  <time>2026-08-27T18:30:15Z</time>
  <course>328.04</course>
  <speed>0.46486557196677836</speed>
  <fix>3d</fix>
</trkpt>
<trkpt lat="40.0727643" lon="-105.2309147">
  <ele>1590.45</ele>
  <time>2026-08-27T18:30:15Z</time>
  <course>160.77</course>
  <speed>0.46</speed>
  <fix>3d</fix>
</trkpt>
<trkpt lat="40.0727637" lon="-105.2309145">
  <ele>1590.68</ele>
  <time>2026-08-27T18:30:15Z</time>
  <course>328.07</course>
  <speed>0.46486557196677836</speed>
  <fix>3d</fix>
</trkpt>
<trkpt lat="40.0727631" lon="-105.2309142">
  <ele>1590.78</ele>
  <time>2026-08-27T18:30:15Z</time>
  <course>328.19</course>
  <speed>0.46486557196677836</speed>
  <fix>3d</fix>
</trkpt>
<trkpt lat="40.0727636" lon="-105.2309143">
  <ele>1590.57</ele>
  <time>2026-08-27T18:30:15Z</time>
  <course>160.85</course>
  <speed>0.46</speed>
  <fix>3d</fix>
</trkpt>
<trkpt lat="40.0727631" lon="-105.2309142">
  <ele>1590.78</ele>
  <time>2026-08-27T18:30:15Z</time>
  <course>328.2</course>
  <speed>0.46486557196677836</speed>
  <fix>3d</fix>
</trkpt>
<trkpt lat="40.0727623" lon="-105.2309138">
  <ele>1590.9</ele>
  <time>2026-08-27T18:30:15Z</time>
  <course>328.32</course>
  <speed>0.46486557196677836</speed>
  <fix>3d</fix>
</trkpt>
<trkpt lat="40.0727627" lon="-105.230914">
  <ele>1590.7</ele>
  <time>2026-08-27T18:30:15Z</time>
  <course>160.9</course>
  <speed>0.47</speed>
  <fix>3d</fix>
</trkpt>
<trkpt lat="40.0727621" lon="-105.2309137">
  <ele>1590.92</ele>
  <time>2026-08-27T18:30:15Z</time>
  <course>328.35</course>
  <speed>0.46486557196677836</speed>
  <fix>3d</fix>
</trkpt>
<trkpt lat="40.0727615" lon="-105.2309134">
  <ele>1591.03</ele>
  <time>2026-08-27T18:30:15Z</time>
  <course>328.44</course>
  <speed>0.46486557196677836</speed>
  <fix>3d</fix>
</trkpt>
<trkpt lat="40.072762" lon="-105.2309135">
  <ele>1590.83</ele>
  <time>2026-08-27T18:30:15Z</time>
  <course>160.92</course>
  <speed>0.47</speed>
  <fix>3d</fix>
</trkpt>
<trkpt lat="40.0727613" lon="-105.2309134">
  <ele>1591.05</ele>
  <time>2026-08-27T18:30:15Z</time>
  <course>328.47</course>
  <speed>0.46486557196677836</speed>
  <fix>3d</fix>
</trkpt>
<trkpt lat="40.0727607" lon="-105.2309131">
  <ele>1591.15</ele>
  <time>2026-08-27T18:30:15Z</time>
  <course>328.6</course>
  <speed>0.46486557196677836</speed>
  <fix>3d</fix>
</trkpt>
<trkpt lat="40.0727612" lon="-105.2309132">
  <ele>1590.95</ele>
  <time>2026-08-27T18:30:15Z</time>
  <course>160.96</course>
  <speed>0.47</speed>
  <fix>3d</fix>
</trkpt>
<trkpt lat="40.0727605" lon="-105.230913">
  <ele>1591.18</ele>
  <time>2026-08-27T18:30:15Z</time>
  <course>328.62</course>
  <speed>0.46486557196677836</speed>
  <fix>3d</fix>
</trkpt>
<trkpt lat="40.0727599" lon="-105.2309127">
  <ele>1591.28</ele>
  <time>2026-08-27T18:30:15Z</time>
  <course>328.72</course>
  <speed>0.4743416490252569</speed>
  <fix>3d</fix>
</trkpt>
<trkpt lat="40.0727603" lon="-105.2309128">
  <ele>1591.08</ele>
  <time>2026-08-27T18:30:15Z</time>
  <course>161.02</course>
  <speed>0.47</speed>
  <fix>3d</fix>
</trkpt>
<trkpt lat="40.0727597" lon="-105.2309126">
  <ele>1591.3</ele>
  <time>2026-08-27T18:30:15Z</time>
  <course>328.74</course>
  <speed>0.4743416490252569</speed>
  <fix>3d</fix>
</trkpt>
<trkpt lat="40.0727591" lon="-105.2309123">
  <ele>1591.4</ele>
  <time>2026-08-27T18:30:15Z</time>
  <course>328.83</course>
  <speed>0.4743416490252569</speed>
  <fix>3d</fix>
</trkpt>
<trkpt lat="40.0727596" lon="-105.2309124">
  <ele>1591.2</ele>
  <time>2026-08-27T18:30:15Z</time>
  <course>161.02</course>
  <speed>0.47</speed>
  <fix>3d</fix>
</trkpt>
<trkpt lat="40.072759" lon="-105.2309123">
  <ele>1591.41</ele>
  <time>2026-08-27T18:30:15Z</time>
  <course>328.84</course>
  <speed>0.4743416490252569</speed>
  <fix>3d</fix>
</trkpt>
<trkpt lat="40.0727583" lon="-105.230912">
  <ele>1591.53</ele>
  <time>2026-08-27T18:30:15Z</time>
  <course>328.94</course>
  <speed>0.4743416490252569</speed>
  <fix>3d</fix>
</trkpt>
<trkpt lat="40.0727588" lon="-105.2309121">
  <ele>1591.33</ele>
  <time>2026-08-27T18:30:15Z</time>
  <course>161.02</course>
  <speed>0.48</speed>
  <fix>3d</fix>
</trkpt>
<trkpt lat="40.0727581" lon="-105.2309119">
  <ele>1591.55</ele>
  <time>2026-08-27T18:30:15Z</time>
  <course>328.96</course>
  <speed>0.4743416490252569</speed>
  <fix>3d</fix>
</trkpt>
<trkpt lat="40.0727574" lon="-105.2309116">
  <ele>1591.65</ele>
  <time>2026-08-27T18:30:15Z</time>
  <course>329.06</course>
  <speed>0.4743416490252569</speed>
  <fix>3d</fix>
</trkpt>
<trkpt lat="40.0727579" lon="-105.2309118">
  <ele>1591.46</ele>
  <time>2026-08-27T18:30:15Z</time>
  <course>161.06</course>
  <speed>0.48</speed>
  <fix>3d</fix>
</trkpt>
<trkpt lat="40.0727573" lon="-105.2309115">
  <ele>1591.68</ele>
  <time>2026-08-27T18:30:15Z</time>
  <course>329.09</course>
  <speed>0.4743416490252569</speed>
  <fix>3d</fix>
</trkpt>
<trkpt lat="40.0727566" lon="-105.2309112">
  <ele>1591.79</ele>
  <time>2026-08-27T18:30:15Z</time>
  <course>329.18</course>
  <speed>0.4743416490252569</speed>
  <fix>3d</fix>
</trkpt>
<trkpt lat="40.0727571" lon="-105.2309114">
  <ele>1591.58</ele>
  <time>2026-08-27T18:30:15Z</time>
  <course>161.1</course>
  <speed>0.48</speed>
  <fix>3d</fix>
</trkpt>
<trkpt lat="40.0727566" lon="-105.2309112">
  <ele>1591.79</ele>
  <time>2026-08-27T18:30:15Z</time>
  <course>329.18</course>
  <speed>0.4743416490252569</speed>
  <fix>3d</fix>
</trkpt>
<trkpt lat="40.0727558" lon="-105.2309109">
  <ele>1591.92</ele>
  <time>2026-08-27T18:30:15Z</time>
  <course>329.29</course>
  <speed>0.4712748667179272</speed>
  <fix>3d</fix>
</trkpt>
<trkpt lat="40.0727562" lon="-105.230911">
  <ele>1591.71</ele>
  <time>2026-08-27T18:30:15Z</time>
  <course>161.14</course>
  <speed>0.48</speed>
  <fix>3d</fix>
</trkpt>
<trkpt lat="40.0727556" lon="-105.2309108">
  <ele>1591.95</ele>
  <time>2026-08-27T18:30:15Z</time>
  <course>329.32</course>
  <speed>0.4712748667179272</speed>
  <fix>3d</fix>
</trkpt>
<trkpt lat="40.072755" lon="-105.2309105">
  <ele>1592.05</ele>
  <time>2026-08-27T18:30:15Z</time>
  <course>329.4</course>
  <speed>0.4712748667179272</speed>
  <fix>3d</fix>
</trkpt>
<trkpt lat="40.0727555" lon="-105.2309107">
  <ele>1591.84</ele>
  <time>2026-08-27T18:30:15Z</time>
  <course>161.19</course>
  <speed>0.48</speed>
  <fix>3d</fix>
</trkpt>
<trkpt lat="40.0727549" lon="-105.2309105">
  <ele>1592.06</ele>
  <time>2026-08-27T18:30:15Z</time>
  <course>329.41</course>
  <speed>0.4712748667179272</speed>
  <fix>3d</fix>
</trkpt>
<trkpt lat="40.0727542" lon="-105.2309102">
  <ele>1592.17</ele>
  <time>2026-08-27T18:30:15Z</time>
  <course>329.5</course>
  <speed>0.4712748667179272</speed>
  <fix>3d</fix>
</trkpt>
<trkpt lat="40.0727547" lon="-105.2309102">
  <ele>1591.96</ele>
  <time>2026-08-27T18:30:15Z</time>
  <course>161.24</course>
  <speed>0.48</speed>
  <fix>3d</fix>
</trkpt>
<trkpt lat="40.072754" lon="-105.2309101">
  <ele>1592.2</ele>
  <time>2026-08-27T18:30:15Z</time>
  <course>329.53</course>
  <speed>0.4712748667179272</speed>
  <fix>3d</fix>
</trkpt>
<trkpt lat="40.0727534" lon="-105.2309098">
  <ele>1592.3</ele>
  <time>2026-08-27T18:30:15Z</time>
  <course>329.6</course>
  <speed>0.4712748667179272</speed>
  <fix>3d</fix>
</trkpt>
<trkpt lat="40.0727538" lon="-105.2309099">
  <ele>1592.09</ele>
  <time>2026-08-27T18:30:15Z</time>
  <course>161.25</course>
  <speed>0.48</speed>
  <fix>3d</fix>
</trkpt>
<trkpt lat="40.0727532" lon="-105.2309097">
  <ele>1592.32</ele>
  <time>2026-08-27T18:30:15Z</time>
  <course>329.62</course>
  <speed>0.4712748667179272</speed>
  <fix>3d</fix>
</trkpt>
<trkpt lat="40.0727525" lon="-105.2309094">
  <ele>1592.43</ele>
  <time>2026-08-27T18:30:15Z</time>
  <course>329.71</course>
  <speed>0.4712748667179272</speed>
  <fix>3d</fix>
</trkpt>
<trkpt lat="40.072753" lon="-105.2309095">
  <ele>1592.21</ele>
  <time>2026-08-27T18:30:15Z</time>
  <course>161.23</course>
  <speed>0.48</speed>
  <fix>3d</fix>
</trkpt>
<trkpt lat="40.0727524" lon="-105.2309094">
  <ele>1592.45</ele>
  <time>2026-08-27T18:30:15Z</time>
  <course>329.72</course>
  <speed>0.4712748667179272</speed>
  <fix>3d</fix>
</trkpt>
<trkpt lat="40.0727517" lon="-105.2309091">
  <ele>1592.55</ele>
  <time>2026-08-27T18:30:15Z</time>
  <course>329.79</course>
  <speed>0.4712748667179272</speed>
  <fix>3d</fix>
</trkpt>
<trkpt lat="40.0727521" lon="-105.2309092">
  <ele>1592.33</ele>
  <time>2026-08-27T18:30:15Z</time>
  <course>161.21</course>
  <speed>0.48</speed>
  <fix>3d</fix>
</trkpt>
<trkpt lat="40.0727516" lon="-105.230909">
  <ele>1592.57</ele>
  <time>2026-08-27T18:30:15Z</time>
  <course>329.8</course>
  <speed>0.4712748667179272</speed>
  <fix>3d</fix>
</trkpt>
<trkpt lat="40.0727509" lon="-105.2309087">
  <ele>1592.67</ele>
  <time>2026-08-27T18:30:15Z</time>
  <course>329.88</course>
  <speed>0.4712748667179272</speed>
  <fix>3d</fix>
</trkpt>
<trkpt lat="40.0727513" lon="-105.2309088">
  <ele>1592.45</ele>
  <time>2026-08-27T18:30:15Z</time>
  <course>161.19</course>
  <speed>0.48</speed>
  <fix>3d</fix>
</trkpt>
<trkpt lat="40.0727509" lon="-105.2309087">
  <ele>1592.67</ele>
  <time>2026-08-27T18:30:15Z</time>
  <course>329.88</course>
  <speed>0.4712748667179272</speed>
  <fix>3d</fix>
</trkpt>
<trkpt lat="40.07275" lon="-105.2309083">
  <ele>1592.79</ele>
  <time>2026-08-27T18:30:15Z</time>
  <course>329.95</course>
  <speed>0.4712748667179272</speed>
  <fix>3d</fix>
</trkpt>
<trkpt lat="40.0727505" lon="-105.2309085">
  <ele>1592.58</ele>
  <time>2026-08-27T18:30:15Z</time>
  <course>161.15</course>
  <speed>0.48</speed>
  <fix>3d</fix>
</trkpt>
<trkpt lat="40.0727499" lon="-105.2309083">
  <ele>1592.81</ele>
  <time>2026-08-27T18:30:15Z</time>
  <course>329.96</course>
  <speed>0.4712748667179272</speed>
  <fix>3d</fix>
</trkpt>
<trkpt lat="40.0727492" lon="-105.230908">
  <ele>1592.91</ele>
  <time>2026-08-27T18:30:15Z</time>
  <course>330.03</course>
  <speed>0.4712748667179272</speed>
  <fix>3d</fix>
</trkpt>
<trkpt lat="40.0727497" lon="-105.230908">
  <ele>1592.7</ele>
  <time>2026-08-27T18:30:15Z</time>
  <course>161.09</course>
  <speed>0.48</speed>
  <fix>3d</fix>
</trkpt>
<trkpt lat="40.0727491" lon="-105.2309079">
  <ele>1592.94</ele>
  <time>2026-08-27T18:30:15Z</time>
  <course>330.04</course>
  <speed>0.4712748667179272</speed>
  <fix>3d</fix>
</trkpt>
<trkpt lat="40.0727484" lon="-105.2309076">
  <ele>1593.03</ele>
  <time>2026-08-27T18:30:15Z</time>
  <course>330.11</course>
  <speed>0.4712748667179272</speed>
  <fix>3d</fix>
</trkpt>
<trkpt lat="40.0727488" lon="-105.2309076">
  <ele>1592.82</ele>
  <time>2026-08-27T18:30:15Z</time>
  <course>161.07</course>
  <speed>0.48</speed>
  <fix>3d</fix>
</trkpt>
<trkpt lat="40.0727482" lon="-105.2309075">
  <ele>1593.06</ele>
  <time>2026-08-27T18:30:15Z</time>
  <course>330.13</course>
  <speed>0.4712748667179272</speed>
  <fix>3d</fix>
</trkpt>
<trkpt lat="40.0727476" lon="-105.2309072">
  <ele>1593.16</ele>
  <time>2026-08-27T18:30:15Z</time>
  <course>330.17</course>
  <speed>0.4712748667179272</speed>
  <fix>3d</fix>
</trkpt>
<trkpt lat="40.072748" lon="-105.2309073">
  <ele>1592.95</ele>
  <time>2026-08-27T18:30:15Z</time>
  <course>161.07</course>
  <speed>0.48</speed>
  <fix>3d</fix>
</trkpt>
<trkpt lat="40.0727474" lon="-105.2309072">
  <ele>1593.18</ele>
  <time>2026-08-27T18:30:15Z</time>
  <course>330.19</course>
  <speed>0.4712748667179272</speed>
  <fix>3d</fix>
</trkpt>
<trkpt lat="40.0727468" lon="-105.2309069">
  <ele>1593.28</ele>
  <time>2026-08-27T18:30:15Z</time>
  <course>330.23</course>
  <speed>0.4617358552246078</speed>
  <fix>3d</fix>
</trkpt>
<trkpt lat="40.0727471" lon="-105.230907">
  <ele>1593.07</ele>
  <time>2026-08-27T18:30:15Z</time>
  <course>161.05</course>
  <speed>0.48</speed>
  <fix>3d</fix>
</trkpt>
<trkpt lat="40.0727467" lon="-105.2309069">
  <ele>1593.29</ele>
  <time>2026-08-27T18:30:15Z</time>
  <course>330.23</course>
  <speed>0.4617358552246078</speed>
  <fix>3d</fix>
</trkpt>
<trkpt lat="40.0727459" lon="-105.2309065">
  <ele>1593.41</ele>
  <time>2026-08-27T18:30:15Z</time>
  <course>330.32</course>
  <speed>0.45880278987817846</speed>
  <fix>3d</fix>
</trkpt>
<trkpt lat="40.0727464" lon="-105.2309066">
  <ele>1593.2</ele>
  <time>2026-08-27T18:30:15Z</time>
  <course>161.05</course>
  <speed>0.48</speed>
  <fix>3d</fix>
</trkpt>
<trkpt lat="40.0727458" lon="-105.2309065">
  <ele>1593.43</ele>
  <time>2026-08-27T18:30:15Z</time>
  <course>330.33</course>
  <speed>0.45880278987817846</speed>
  <fix>3d</fix>
</trkpt>
<trkpt lat="40.0727451" lon="-105.2309062">
  <ele>1593.54</ele>
  <time>2026-08-27T18:30:15Z</time>
  <course>330.39</course>
  <speed>0.45880278987817846</speed>
  <fix>3d</fix>
</trkpt>
<trkpt lat="40.0727456" lon="-105.2309062">
  <ele>1593.32</ele>
  <time>2026-08-27T18:30:15Z</time>
  <course>161.08</course>
  <speed>0.48</speed>
  <fix>3d</fix>
</trkpt>
<trkpt lat="40.072745" lon="-105.2309061">
  <ele>1593.56</ele>
  <time>2026-08-27T18:30:15Z</time>
  <course>330.41</course>
  <speed>0.45880278987817846</speed>
  <fix>3d</fix>
</trkpt>
<trkpt lat="40.0727443" lon="-105.2309058">
  <ele>1593.66</ele>
  <time>2026-08-27T18:30:15Z</time>
  <course>330.46</course>
  <speed>0.45880278987817846</speed>
  <fix>3d</fix>
</trkpt>
<trkpt lat="40.0727447" lon="-105.2309059">
  <ele>1593.45</ele>
  <time>2026-08-27T18:30:15Z</time>
  <course>161.09</course>
  <speed>0.48</speed>
  <fix>3d</fix>
</trkpt>
<trkpt lat="40.0727441" lon="-105.2309057">
  <ele>1593.69</ele>
  <time>2026-08-27T18:30:15Z</time>
  <course>330.48</course>
  <speed>0.45880278987817846</speed>
  <fix>3d</fix>
</trkpt>
<trkpt lat="40.0727435" lon="-105.2309054">
  <ele>1593.79</ele>
  <time>2026-08-27T18:30:15Z</time>
  <course>330.53</course>
  <speed>0.45880278987817846</speed>
  <fix>3d</fix>
</trkpt>
<trkpt lat="40.0727439" lon="-105.2309054">
  <ele>1593.58</ele>
  <time>2026-08-27T18:30:15Z</time>
  <course>161.06</course>
  <speed>0.48</speed>
  <fix>3d</fix>
</trkpt>
<trkpt lat="40.0727433" lon="-105.2309054">
  <ele>1593.82</ele>
  <time>2026-08-27T18:30:15Z</time>
  <course>330.55</course>
  <speed>0.45880278987817846</speed>
  <fix>3d</fix>
</trkpt>
<trkpt lat="40.0727426" lon="-105.2309051">
  <ele>1593.92</ele>
  <time>2026-08-27T18:30:15Z</time>
  <course>330.59</course>
  <speed>0.45880278987817846</speed>
  <fix>3d</fix>
</trkpt>
<trkpt lat="40.072743" lon="-105.2309051">
  <ele>1593.7</ele>
  <time>2026-08-27T18:30:15Z</time>
  <course>161.06</course>
  <speed>0.48</speed>
  <fix>3d</fix>
</trkpt>
<trkpt lat="40.0727425" lon="-105.230905">
  <ele>1593.94</ele>
  <time>2026-08-27T18:30:15Z</time>
  <course>330.6</course>
  <speed>0.45880278987817846</speed>
  <fix>3d</fix>
</trkpt>
<trkpt lat="40.0727418" lon="-105.2309047">
  <ele>1594.04</ele>
  <time>2026-08-27T18:30:15Z</time>
  <course>330.66</course>
  <speed>0.45880278987817846</speed>
  <fix>3d</fix>
</trkpt>
<trkpt lat="40.0727423" lon="-105.2309047">
  <ele>1593.83</ele>
  <time>2026-08-27T18:30:15Z</time>
  <course>161.08</course>
  <speed>0.48</speed>
  <fix>3d</fix>
</trkpt>
<trkpt lat="40.0727418" lon="-105.2309047">
  <ele>1594.05</ele>
  <time>2026-08-27T18:30:15Z</time>
  <course>330.66</course>
  <speed>0.45880278987817846</speed>
  <fix>3d</fix>
</trkpt>
<trkpt lat="40.072741" lon="-105.2309043">
  <ele>1594.17</ele>
  <time>2026-08-27T18:30:15Z</time>
  <course>330.73</course>
  <speed>0.45880278987817846</speed>
  <fix>3d</fix>
</trkpt>
<trkpt lat="40.0727414" lon="-105.2309043">
  <ele>1593.95</ele>
  <time>2026-08-27T18:30:15Z</time>
  <course>161.1</course>
  <speed>0.48</speed>
  <fix>3d</fix>
</trkpt>
<trkpt lat="40.0727408" lon="-105.2309043">
  <ele>1594.2</ele>
  <time>2026-08-27T18:30:15Z</time>
  <course>330.74</course>
  <speed>0.45880278987817846</speed>
  <fix>3d</fix>
</trkpt>
<trkpt lat="40.0727402" lon="-105.230904">
  <ele>1594.3</ele>
  <time>2026-08-27T18:30:15Z</time>
  <course>330.8</course>
  <speed>0.45880278987817846</speed>
  <fix>3d</fix>
</trkpt>
<trkpt lat="40.0727406" lon="-105.230904">
  <ele>1594.08</ele>
  <time>2026-08-27T18:30:15Z</time>
  <course>161.13</course>
  <speed>0.48</speed>
  <fix>3d</fix>
</trkpt>
<trkpt lat="40.07274" lon="-105.2309039">
  <ele>1594.33</ele>
  <time>2026-08-27T18:30:15Z</time>
  <course>330.82</course>
  <speed>0.45880278987817846</speed>
  <fix>3d</fix>
</trkpt>
<trkpt lat="40.0727394" lon="-105.2309036">
  <ele>1594.43</ele>
  <time>2026-08-27T18:30:15Z</time>
  <course>330.87</course>
  <speed>0.45880278987817846</speed>
  <fix>3d</fix>
</trkpt>
<trkpt lat="40.0727397" lon="-105.2309036">
  <ele>1594.2</ele>
  <time>2026-08-27T18:30:15Z</time>
  <course>161.16</course>
  <speed>0.48</speed>
  <fix>3d</fix>
</trkpt>
<trkpt lat="40.0727392" lon="-105.2309036">
  <ele>1594.46</ele>
  <time>2026-08-27T18:30:15Z</time>
  <course>330.88</course>
  <speed>0.45880278987817846</speed>
  <fix>3d</fix>
</trkpt>
<trkpt lat="40.0727385" lon="-105.2309033">
  <ele>1594.56</ele>
  <time>2026-08-27T18:30:15Z</time>
  <course>330.92</course>
  <speed>0.45880278987817846</speed>
  <fix>3d</fix>
</trkpt>
<trkpt lat="40.072739" lon="-105.2309033">
  <ele>1594.33</ele>
  <time>2026-08-27T18:30:15Z</time>
  <course>161.19</course>
  <speed>0.48</speed>
  <fix>3d</fix>
</trkpt>
<trkpt lat="40.0727385" lon="-105.2309032">
  <ele>1594.57</ele>
  <time>2026-08-27T18:30:15Z</time>
  <course>330.93</course>
  <speed>0.45880278987817846</speed>
  <fix>3d</fix>
</trkpt>
<trkpt lat="40.0727377" lon="-105.2309029">
  <ele>1594.69</ele>
  <time>2026-08-27T18:30:15Z</time>
  <course>331.0</course>
  <speed>0.45880278987817846</speed>
  <fix>3d</fix>
</trkpt>
<trkpt lat="40.0727382" lon="-105.2309029">
  <ele>1594.45</ele>
  <time>2026-08-27T18:30:15Z</time>
  <course>161.23</course>
  <speed>0.48</speed>
  <fix>3d</fix>
</trkpt>
<trkpt lat="40.0727376" lon="-105.2309028">
  <ele>1594.71</ele>
  <time>2026-08-27T18:30:15Z</time>
  <course>331.02</course>
  <speed>0.45880278987817846</speed>
  <fix>3d</fix>
</trkpt>
<trkpt lat="40.0727369" lon="-105.2309025">
  <ele>1594.82</ele>
  <time>2026-08-27T18:30:15Z</time>
  <course>331.07</course>
  <speed>0.45607017003965516</speed>
  <fix>3d</fix>
</trkpt>
<trkpt lat="40.0727373" lon="-105.2309025">
  <ele>1594.58</ele>
  <time>2026-08-27T18:30:15Z</time>
  <course>161.25</course>
  <speed>0.47</speed>
  <fix>3d</fix>
</trkpt>
<trkpt lat="40.0727369" lon="-105.2309025">
  <ele>1594.82</ele>
  <time>2026-08-27T18:30:15Z</time>
  <course>331.07</course>
  <speed>0.45607017003965516</speed>
  <fix>3d</fix>
</trkpt>
<trkpt lat="40.0727361" lon="-105.2309022">
  <ele>1594.94</ele>
  <time>2026-08-27T18:30:15Z</time>
  <course>331.12</course>
  <speed>0.4464302857109943</speed>
  <fix>3d</fix>
</trkpt>
<trkpt lat="40.0727365" lon="-105.2309022">
  <ele>1594.7</ele>
  <time>2026-08-27T18:30:15Z</time>
  <course>161.23</course>
  <speed>0.47</speed>
  <fix>3d</fix>
</trkpt>
<trkpt lat="40.072736" lon="-105.2309021">
  <ele>1594.96</ele>
  <time>2026-08-27T18:30:15Z</time>
  <course>331.12</course>
  <speed>0.4464302857109943</speed>
  <fix>3d</fix>
</trkpt>
<trkpt lat="40.0727353" lon="-105.2309018">
  <ele>1595.06</ele>
  <time>2026-08-27T18:30:15Z</time>
  <course>331.18</course>
  <speed>0.4464302857109943</speed>
  <fix>3d</fix>
</trkpt>
<trkpt lat="40.0727356" lon="-105.2309018">
  <ele>1594.82</ele>
  <time>2026-08-27T18:30:15Z</time>
  <course>161.23</course>
  <speed>0.47</speed>
  <fix>3d</fix>
</trkpt>
<trkpt lat="40.0727352" lon="-105.2309018">
  <ele>1595.08</ele>
  <time>2026-08-27T18:30:15Z</time>
  <course>331.19</course>
  <speed>0.4464302857109943</speed>
  <fix>3d</fix>
</trkpt>
<trkpt lat="40.0727345" lon="-105.2309015">
  <ele>1595.18</ele>
  <time>2026-08-27T18:30:15Z</time>
  <course>331.22</course>
  <speed>0.4464302857109943</speed>
  <fix>3d</fix>
</trkpt>
<trkpt lat="40.0727349" lon="-105.2309014">
  <ele>1594.94</ele>
  <time>2026-08-27T18:30:15Z</time>
  <course>161.23</course>
  <speed>0.47</speed>
  <fix>3d</fix>
</trkpt>
<trkpt lat="40.0727337" lon="-105.2309011">
  <ele>1595.3</ele>
  <time>2026-08-27T18:30:15Z</time>
  <course>331.53</course>
  <speed>0.4464302857109943</speed>
  <fix>3d</fix>
</trkpt>
<trkpt lat="40.0727341" lon="-105.2309011">
  <ele>1595.06</ele>
  <time>2026-08-27T18:30:15Z</time>
  <course>161.36</course>
  <speed>0.47</speed>
  <fix>3d</fix>
</trkpt>
<trkpt lat="40.0727329" lon="-105.2309008">
  <ele>1595.39</ele>
  <time>2026-08-27T18:30:15Z</time>
  <course>332.1</course>
  <speed>0.4464302857109943</speed>
  <fix>3d</fix>
</trkpt>
<trkpt lat="40.0727332" lon="-105.2309008">
  <ele>1595.16</ele>
  <time>2026-08-27T18:30:15Z</time>
  <course>161.57</course>
  <speed>0.47</speed>
  <fix>3d</fix>
</trkpt>
<trkpt lat="40.0727321" lon="-105.2309004">
  <ele>1595.45</ele>
  <time>2026-08-27T18:30:15Z</time>
  <course>332.29</course>
  <speed>0.4368065933568311</speed>
  <fix>3d</fix>
</trkpt>
<trkpt lat="40.0727325" lon="-105.2309004">
  <ele>1595.25</ele>
  <time>2026-08-27T18:30:15Z</time>
  <course>161.44</course>
  <speed>0.46</speed>
  <fix>3d</fix>
</trkpt>
<trkpt lat="40.0727313" lon="-105.2309001">
  <ele>1595.49</ele>
  <time>2026-08-27T18:30:15Z</time>
  <course>331.37</course>
  <speed>0.4301162633521314</speed>
  <fix>3d</fix>
</trkpt>
<trkpt lat="40.0727317" lon="-105.2309001">
  <ele>1595.31</ele>
  <time>2026-08-27T18:30:15Z</time>
  <course>160.73</course>
  <speed>0.46</speed>
  <fix>3d</fix>
</trkpt>
<trkpt lat="40.0727305" lon="-105.2308997">
  <ele>1595.51</ele>
  <time>2026-08-27T18:30:15Z</time>
  <course>330.56</course>
  <speed>0.4301162633521314</speed>
  <fix>3d</fix>
</trkpt>
<trkpt lat="40.0727309" lon="-105.2308997">
  <ele>1595.34</ele>
  <time>2026-08-27T18:30:15Z</time>
  <course>160.02</course>
  <speed>0.45</speed>
  <fix>3d</fix>
</trkpt>
<trkpt lat="40.0727298" lon="-105.2308994">
  <ele>1595.53</ele>
  <time>2026-08-27T18:30:15Z</time>
  <course>330.28</course>
  <speed>0.4205948168962618</speed>
  <fix>3d</fix>
</trkpt>
<trkpt lat="40.0727301" lon="-105.2308993">
  <ele>1595.36</ele>
  <time>2026-08-27T18:30:15Z</time>
  <course>159.56</course>
  <speed>0.45</speed>
  <fix>3d</fix>
</trkpt>
<trkpt lat="40.072729" lon="-105.230899">
  <ele>1595.53</ele>
  <time>2026-08-27T18:30:15Z</time>
  <course>330.22</course>
  <speed>0.4205948168962618</speed>
  <fix>3d</fix>
</trkpt>
<trkpt lat="40.0727294" lon="-105.2308989">
  <ele>1595.38</ele>
  <time>2026-08-27T18:30:15Z</time>
  <course>158.92</course>
  <speed>0.44</speed>
  <fix>3d</fix>
</trkpt>
<trkpt lat="40.0727283" lon="-105.2308986">
  <ele>1595.54</ele>
  <time>2026-08-27T18:30:15Z</time>
  <course>330.2</course>
  <speed>0.4143669871020132</speed>
  <fix>3d</fix>
</trkpt>
<trkpt lat="40.0727286" lon="-105.2308985">
  <ele>1595.39</ele>
  <time>2026-08-27T18:30:15Z</time>
  <course>158.14</course>
  <speed>0.44</speed>
  <fix>3d</fix>
</trkpt>
<trkpt lat="40.0727276" lon="-105.2308982">
  <ele>1595.54</ele>
  <time>2026-08-27T18:30:15Z</time>
  <course>330.2</course>
  <speed>0.4143669871020132</speed>
  <fix>3d</fix>
</trkpt>
<trkpt lat="40.0727279" lon="-105.2308982">
  <ele>1595.4</ele>
  <time>2026-08-27T18:30:15Z</time>
  <course>157.39</course>
  <speed>0.43</speed>
  <fix>3d</fix>
</trkpt>
<trkpt lat="40.0727269" lon="-105.2308978">
  <ele>1595.55</ele>
  <time>2026-08-27T18:30:15Z</time>
  <course>330.24</course>
  <speed>0.4049691346263317</speed>
  <fix>3d</fix>
</trkpt>
<trkpt lat="40.0727272" lon="-105.2308977">
  <ele>1595.4</ele>
  <time>2026-08-27T18:30:15Z</time>
  <course>156.71</course>
  <speed>0.43</speed>
  <fix>3d</fix>
</trkpt>
<trkpt lat="40.0727262" lon="-105.2308974">
  <ele>1595.55</ele>
  <time>2026-08-27T18:30:15Z</time>
  <course>330.27</course>
  <speed>0.3992492955535426</speed>
  <fix>3d</fix>
</trkpt>
<trkpt lat="40.0727265" lon="-105.2308974">
  <ele>1595.41</ele>
  <time>2026-08-27T18:30:15Z</time>
  <course>156.02</course>
  <speed>0.42</speed>
  <fix>3d</fix>
</trkpt>
<trkpt lat="40.0727255" lon="-105.230897">
  <ele>1595.56</ele>
  <time>2026-08-27T18:30:15Z</time>
  <course>330.32</course>
  <speed>0.3992492955535426</speed>
  <fix>3d</fix>
</trkpt>
<trkpt lat="40.0727258" lon="-105.230897">
  <ele>1595.42</ele>
  <time>2026-08-27T18:30:15Z</time>
  <course>155.33</course>
  <speed>0.42</speed>
  <fix>3d</fix>
</trkpt>
<trkpt lat="40.0727248" lon="-105.2308965">
  <ele>1595.56</ele>
  <time>2026-08-27T18:30:15Z</time>
  <course>330.35</course>
  <speed>0.39</speed>
  <fix>3d</fix>
</trkpt>
<trkpt lat="40.0727251" lon="-105.2308966">
  <ele>1595.42</ele>
  <time>2026-08-27T18:30:15Z</time>
  <course>154.69</course>
  <speed>0.41</speed>
  <fix>3d</fix>
</trkpt>
<trkpt lat="40.0727241" lon="-105.2308961">
  <ele>1595.56</ele>
  <time>2026-08-27T18:30:15Z</time>
  <course>330.38</course>
  <speed>0.39</speed>
  <fix>3d</fix>
</trkpt>
<trkpt lat="40.0727244" lon="-105.2308961">
  <ele>1595.43</ele>
  <time>2026-08-27T18:30:15Z</time>
  <course>154.07</course>
  <speed>0.41</speed>
  <fix>3d</fix>
</trkpt>
<trkpt lat="40.0727235" lon="-105.2308957">
  <ele>1595.57</ele>
  <time>2026-08-27T18:30:15Z</time>
  <course>330.41</course>
  <speed>0.38483762809787714</speed>
  <fix>3d</fix>
</trkpt>
<trkpt lat="40.0727237" lon="-105.2308956">
  <ele>1595.43</ele>
  <time>2026-08-27T18:30:15Z</time>
  <course>153.51</course>
  <speed>0.41</speed>
  <fix>3d</fix>
</trkpt>
<trkpt lat="40.0727228" lon="-105.2308952">
  <ele>1595.57</ele>
  <time>2026-08-27T18:30:15Z</time>
  <course>330.44</course>
  <speed>0.38483762809787714</speed>
  <fix>3d</fix>
</trkpt>
<trkpt lat="40.0727231" lon="-105.2308952">
  <ele>1595.43</ele>
  <time>2026-08-27T18:30:15Z</time>
  <course>152.98</course>
  <speed>0.4</speed>
  <fix>3d</fix>
</trkpt>
<trkpt lat="40.0727222" lon="-105.2308948">
  <ele>1595.57</ele>
  <time>2026-08-27T18:30:15Z</time>
  <course>330.47</course>
  <speed>0.3757658845611187</speed>
  <fix>3d</fix>
</trkpt>
<trkpt lat="40.0727225" lon="-105.2308948">
  <ele>1595.44</ele>
  <time>2026-08-27T18:30:15Z</time>
  <course>152.46</course>
  <speed>0.4</speed>
  <fix>3d</fix>
</trkpt>
<trkpt lat="40.0727215" lon="-105.2308944">
  <ele>1595.57</ele>
  <time>2026-08-27T18:30:15Z</time>
  <course>330.5</course>
  <speed>0.3757658845611187</speed>
  <fix>3d</fix>
</trkpt>
<trkpt lat="40.0727218" lon="-105.2308944">
  <ele>1595.44</ele>
  <time>2026-08-27T18:30:15Z</time>
  <course>151.96</course>
  <speed>0.39</speed>
  <fix>3d</fix>
</trkpt>
<trkpt lat="40.0727209" lon="-105.2308939">
  <ele>1595.57</ele>
  <time>2026-08-27T18:30:15Z</time>
  <course>330.53</course>
  <speed>0.366742416417845</speed>
  <fix>3d</fix>
</trkpt>
<trkpt lat="40.0727212" lon="-105.2308939">
  <ele>1595.44</ele>
  <time>2026-08-27T18:30:15Z</time>
  <course>151.49</course>
  <speed>0.39</speed>
  <fix>3d</fix>
</trkpt>
<trkpt lat="40.0727203" lon="-105.2308935">
  <ele>1595.57</ele>
  <time>2026-08-27T18:30:15Z</time>
  <course>330.57</course>
  <speed>0.3624913792078372</speed>
  <fix>3d</fix>
</trkpt>
<trkpt lat="40.0727205" lon="-105.2308935">
  <ele>1595.44</ele>
  <time>2026-08-27T18:30:15Z</time>
  <course>151.18</course>
  <speed>0.39</speed>
  <fix>3d</fix>
</trkpt>
<trkpt lat="40.0727197" lon="-105.2308931">
  <ele>1595.57</ele>
  <time>2026-08-27T18:30:15Z</time>
  <course>330.58</course>
  <speed>0.3352610922848042</speed>
  <fix>3d</fix>
</trkpt>
<trkpt lat="40.07272" lon="-105.2308931">
  <ele>1595.44</ele>
  <time>2026-08-27T18:30:15Z</time>
  <course>153.82</course>
  <speed>0.37</speed>
  <fix>3d</fix>
</trkpt>
<trkpt lat="40.0727191" lon="-105.2308929">
  <ele>1595.57</ele>
  <time>2026-08-27T18:30:15Z</time>
  <course>330.61</course>
  <speed>0.2863564212655271</speed>
  <fix>3d</fix>
</trkpt>
<trkpt lat="40.0727193" lon="-105.2308927">
  <ele>1595.44</ele>
  <time>2026-08-27T18:30:15Z</time>
  <course>159.97</course>
  <speed>0.34</speed>
  <fix>3d</fix>
</trkpt>
<trkpt lat="40.0727186" lon="-105.2308926">
  <ele>1595.57</ele>
  <time>2026-08-27T18:30:15Z</time>
  <course>330.64</course>
  <speed>0.24351591323771843</speed>
  <fix>3d</fix>
</trkpt>
<trkpt lat="40.0727188" lon="-105.2308925">
  <ele>1595.44</ele>
  <time>2026-08-27T18:30:15Z</time>
  <course>161.61</course>
  <speed>0.3</speed>
  <fix>3d</fix>
</trkpt>
<trkpt lat="40.0727182" lon="-105.2308924">
  <ele>1595.57</ele>
  <time>2026-08-27T18:30:15Z</time>
  <course>330.62</course>
  <speed>0.1772004514666935</speed>
  <fix>3d</fix>
</trkpt>
<trkpt lat="40.0727184" lon="-105.2308922">
  <ele>1595.44</ele>
  <time>2026-08-27T18:30:15Z</time>
  <course>158.92</course>
  <speed>0.24</speed>
  <fix>3d</fix>
</trkpt>
<trkpt lat="40.0727179" lon="-105.2308923">
  <ele>1595.57</ele>
  <time>2026-08-27T18:30:15Z</time>
  <course>330.68</course>
  <speed>0.12369316876852982</speed>
  <fix>3d</fix>
</trkpt>
<trkpt lat="40.0727179" lon="-105.2308921">
  <ele>1595.44</ele>
  <time>2026-08-27T18:30:15Z</time>
  <course>161.31</course>
  <speed>0.18</speed>
  <fix>3d</fix>
</trkpt>
<trkpt lat="40.0727177" lon="-105.2308921">
  <ele>1595.56</ele>
  <time>2026-08-27T18:30:15Z</time>
  <course>330.7</course>
  <speed>0.08944271909999159</speed>
  <fix>3d</fix>
</trkpt>
<trkpt lat="40.0727177" lon="-105.230892">
  <ele>1595.44</ele>
  <time>2026-08-27T18:30:15Z</time>
  <course>159.86</course>
  <speed>0.13</speed>
  <fix>3d</fix>
</trkpt>
<trkpt lat="40.0727176" lon="-105.230892">
  <ele>1595.56</ele>
  <time>2026-08-27T18:30:15Z</time>
  <course>330.69</course>
  <speed>0.05099019513592785</speed>
  <fix>3d</fix>
</trkpt>
<trkpt lat="40.0727175" lon="-105.2308918">
  <ele>1595.45</ele>
  <time>2026-08-27T18:30:15Z</time>
  <course>154.47</course>
  <speed>0.09</speed>
  <fix>3d</fix>
</trkpt>
<trkpt lat="40.0727175" lon="-105.230892">
  <ele>1595.56</ele>
  <time>2026-08-27T18:30:15Z</time>
  <course>330.76</course>
  <speed>0.03</speed>
  <fix>3d</fix>
</trkpt>
<trkpt lat="40.0727174" lon="-105.2308918">
  <ele>1595.45</ele>
  <time>2026-08-27T18:30:15Z</time>
  <course>161.44</course>
  <speed>0.06</speed>
  <fix>3d</fix>
</trkpt>
<trkpt lat="40.0727174" lon="-105.2308919">
  <ele>1595.56</ele>
  <time>2026-08-27T18:30:15Z</time>
  <course>330.75</course>
  <speed>0.022360679774997897</speed>
  <fix>3d</fix>
</trkpt>
<trkpt lat="40.0727173" lon="-105.2308918">
  <ele>1595.45</ele>
  <time>2026-08-27T18:30:15Z</time>
  <course>154.87</course>
  <speed>0.04</speed>
  <fix>3d</fix>
</trkpt>
<trkpt lat="40.0727173" lon="-105.2308919">
  <ele>1595.56</ele>
  <time>2026-08-27T18:30:15Z</time>
  <course>330.74</course>
  <speed>0.01414213562373095</speed>
  <fix>3d</fix>
</trkpt>
<trkpt lat="40.0727172" lon="-105.2308917">
  <ele>1595.45</ele>
  <time>2026-08-27T18:30:15Z</time>
  <course>151.56</course>
  <speed>0.03</speed>
  <fix>3d</fix>
</trkpt>
<trkpt lat="40.0727173" lon="-105.2308918">
  <ele>1595.56</ele>
  <time>2026-08-27T18:30:15Z</time>
  <course>330.84</course>
  <speed>0.01</speed>
  <fix>3d</fix>
</trkpt>
<trkpt lat="40.0727172" lon="-105.2308917">
  <ele>1595.46</ele>
  <time>2026-08-27T18:30:15Z</time>
  <course>162.43</course>
  <speed>0.02</speed>
  <fix>3d</fix>
</trkpt>
<trkpt lat="40.0727172" lon="-105.2308918">
  <ele>1595.56</ele>
  <time>2026-08-27T18:30:15Z</time>
  <course>330.8</course>
  <speed>0.01</speed>
  <fix>3d</fix>
</trkpt>
<trkpt lat="40.0727171" lon="-105.2308917">
  <ele>1595.46</ele>
  <time>2026-08-27T18:30:15Z</time>
  <course>142.59</course>
  <speed>0.02</speed>
  <fix>3d</fix>
</trkpt>
<trkpt lat="40.0727172" lon="-105.2308918">
  <ele>1595.57</ele>
  <time>2026-08-27T18:30:15Z</time>
  <course>330.87</course>
  <speed>0.01</speed>
  <fix>3d</fix>
</trkpt>
<trkpt lat="40.0727171" lon="-105.2308916">
  <ele>1595.46</ele>
  <time>2026-08-27T18:30:15Z</time>
  <course>149.31</course>
  <speed>0.02</speed>
  <fix>3d</fix>
</trkpt>
<trkpt lat="40.0727172" lon="-105.2308917">
  <ele>1595.57</ele>
  <time>2026-08-27T18:30:15Z</time>
  <course>330.88</course>
  <speed>0.01414213562373095</speed>
  <fix>3d</fix>
</trkpt>
<trkpt lat="40.0727171" lon="-105.2308915">
  <ele>1595.47</ele>
  <time>2026-08-27T18:30:15Z</time>
  <course>140.54</course>
  <speed>0.02</speed>
  <fix>3d</fix>
</trkpt>
<trkpt lat="40.0727171" lon="-105.2308917">
  <ele>1595.57</ele>
  <time>2026-08-27T18:30:15Z</time>
  <course>330.9</course>
  <speed>0.01</speed>
  <fix>3d</fix>
</trkpt>
<trkpt lat="40.072717" lon="-105.2308915">
  <ele>1595.47</ele>
  <time>2026-08-27T18:30:15Z</time>
  <course>134.29</course>
  <speed>0.03</speed>
  <fix>3d</fix>
</trkpt>
<trkpt lat="40.0727171" lon="-105.2308917">
  <ele>1595.58</ele>
  <time>2026-08-27T18:30:15Z</time>
  <course>330.95</course>
  <speed>0.01414213562373095</speed>
  <fix>3d</fix>
</trkpt>
<trkpt lat="40.072717" lon="-105.2308915">
  <ele>1595.47</ele>
  <time>2026-08-27T18:30:15Z</time>
  <course>135.33</course>
  <speed>0.03</speed>
  <fix>3d</fix>
</trkpt>
<trkpt lat="40.072717" lon="-105.2308916">
  <ele>1595.58</ele>
  <time>2026-08-27T18:30:15Z</time>
  <course>330.92</course>
  <speed>0.02</speed>
  <fix>3d</fix>
</trkpt>
<trkpt lat="40.072717" lon="-105.2308914">
  <ele>1595.48</ele>
  <time>2026-08-27T18:30:15Z</time>
  <course>126.9</course>
  <speed>0.03</speed>
  <fix>3d</fix>
</trkpt>
<trkpt lat="40.072717" lon="-105.2308915">
  <ele>1595.58</ele>
  <time>2026-08-27T18:30:15Z</time>
  <course>330.99</course>
  <speed>0.01</speed>
  <fix>3d</fix>
</trkpt>
<trkpt lat="40.0727169" lon="-105.2308913">
  <ele>1595.48</ele>
  <time>2026-08-27T18:30:15Z</time>
  <course>128.49</course>
  <speed>0.03</speed>
  <fix>3d</fix>
</trkpt>
<trkpt lat="40.0727169" lon="-105.2308915">
  <ele>1595.58</ele>
  <time>2026-08-27T18:30:15Z</time>
  <course>330.96</course>
  <speed>0.02</speed>
  <fix>3d</fix>
</trkpt>
<trkpt lat="40.0727168" lon="-105.2308913">
  <ele>1595.48</ele>
  <time>2026-08-27T18:30:15Z</time>
  <course>123.04</course>
  <speed>0.04</speed>
  <fix>3d</fix>
</trkpt>
<trkpt lat="40.0727169" lon="-105.2308914">
  <ele>1595.58</ele>
  <time>2026-08-27T18:30:15Z</time>
  <course>331.0</course>
  <speed>0.01</speed>
  <fix>3d</fix>
</trkpt>
<trkpt lat="40.0727168" lon="-105.2308912">
  <ele>1595.48</ele>
  <time>2026-08-27T18:30:15Z</time>
  <course>123.41</course>
  <speed>0.04</speed>
  <fix>3d</fix>
</trkpt>
<trkpt lat="40.0727169" lon="-105.2308913">
  <ele>1595.58</ele>
  <time>2026-08-27T18:30:15Z</time>
  <course>330.99</course>
  <speed>0.01414213562373095</speed>
  <fix>3d</fix>
</trkpt>
<trkpt lat="40.0727167" lon="-105.2308911">
  <ele>1595.48</ele>
  <time>2026-08-27T18:30:15Z</time>
  <course>120.79</course>
  <speed>0.04</speed>
  <fix>3d</fix>
</trkpt>
<trkpt lat="40.0727168" lon="-105.2308912">
  <ele>1595.58</ele>
  <time>2026-08-27T18:30:15Z</time>
  <course>331.02</course>
  <speed>0.01</speed>
  <fix>3d</fix>
</trkpt>
<trkpt lat="40.0727167" lon="-105.230891">
  <ele>1595.48</ele>
  <time>2026-08-27T18:30:15Z</time>
  <course>120.24</course>
  <speed>0.04</speed>
  <fix>3d</fix>
</trkpt>
<trkpt lat="40.0727168" lon="-105.2308912">
  <ele>1595.59</ele>
  <time>2026-08-27T18:30:15Z</time>
  <course>331.03</course>
  <speed>0.01414213562373095</speed>
  <fix>3d</fix>
</trkpt>
<trkpt lat="40.0727167" lon="-105.2308909">
  <ele>1595.48</ele>
  <time>2026-08-27T18:30:15Z</time>
  <course>119.12</course>
  <speed>0.04</speed>
  <fix>3d</fix>
</trkpt>
<trkpt lat="40.0727167" lon="-105.2308911">
  <ele>1595.58</ele>
  <time>2026-08-27T18:30:15Z</time>
  <course>331.06</course>
  <speed>0.01</speed>
  <fix>3d</fix>
</trkpt>
<trkpt lat="40.0727167" lon="-105.2308908">
  <ele>1595.47</ele>
  <time>2026-08-27T18:30:15Z</time>
  <course>118.44</course>
  <speed>0.04</speed>
  <fix>3d</fix>
</trkpt>
<trkpt lat="40.0727167" lon="-105.230891">
  <ele>1595.57</ele>
  <time>2026-08-27T18:30:15Z</time>
  <course>331.06</course>
  <speed>0.01414213562373095</speed>
  <fix>3d</fix>
</trkpt>
<trkpt lat="40.0727166" lon="-105.2308908">
  <ele>1595.47</ele>
  <time>2026-08-27T18:30:15Z</time>
  <course>118.01</course>
  <speed>0.04</speed>
  <fix>3d</fix>
</trkpt>
<trkpt lat="40.0727166" lon="-105.2308909">
  <ele>1595.57</ele>
  <time>2026-08-27T18:30:15Z</time>
  <course>331.08</course>
  <speed>0.01</speed>
  <fix>3d</fix>
</trkpt>
<trkpt lat="40.0727166" lon="-105.2308907">
  <ele>1595.47</ele>
  <time>2026-08-27T18:30:15Z</time>
  <course>117.54</course>
  <speed>0.04</speed>
  <fix>3d</fix>
</trkpt>
<trkpt lat="40.0727166" lon="-105.2308908">
  <ele>1595.57</ele>
  <time>2026-08-27T18:30:15Z</time>
  <course>331.06</course>
  <speed>0.01414213562373095</speed>
  <fix>3d</fix>
</trkpt>
<trkpt lat="40.0727166" lon="-105.2308906">
  <ele>1595.47</ele>
  <time>2026-08-27T18:30:15Z</time>
  <course>117.44</course>
  <speed>0.04</speed>
  <fix>3d</fix>
</trkpt>
<trkpt lat="40.0727166" lon="-105.2308907">
  <ele>1595.57</ele>
  <time>2026-08-27T18:30:15Z</time>
  <course>331.1</course>
  <speed>0.01</speed>
  <fix>3d</fix>
</trkpt>
<trkpt lat="40.0727165" lon="-105.2308905">
  <ele>1595.47</ele>
  <time>2026-08-27T18:30:15Z</time>
  <course>116.82</course>
  <speed>0.04</speed>
  <fix>3d</fix>
</trkpt>
<trkpt lat="40.0727165" lon="-105.2308906">
  <ele>1595.58</ele>
  <time>2026-08-27T18:30:15Z</time>
  <course>331.08</course>
  <speed>0.01414213562373095</speed>
  <fix>3d</fix>
</trkpt>
<trkpt lat="40.0727165" lon="-105.2308904">
  <ele>1595.47</ele>
  <time>2026-08-27T18:30:15Z</time>
  <course>117.73</course>
  <speed>0.04</speed>
  <fix>3d</fix>
</trkpt>
<trkpt lat="40.0727165" lon="-105.2308906">
  <ele>1595.58</ele>
  <time>2026-08-27T18:30:15Z</time>
  <course>331.15</course>
  <speed>0.01414213562373095</speed>
  <fix>3d</fix>
</trkpt>
<trkpt lat="40.0727165" lon="-105.2308903">
  <ele>1595.47</ele>
  <time>2026-08-27T18:30:15Z</time>
  <course>116.96</course>
  <speed>0.04</speed>
  <fix>3d</fix>
</trkpt>
<trkpt lat="40.0727165" lon="-105.2308905">
  <ele>1595.58</ele>
  <time>2026-08-27T18:30:15Z</time>
  <course>331.14</course>
  <speed>0.01</speed>
  <fix>3d</fix>
</trkpt>
<trkpt lat="40.0727164" lon="-105.2308902">
  <ele>1595.48</ele>
  <time>2026-08-27T18:30:15Z</time>
  <course>119.2</course>
  <speed>0.04</speed>
  <fix>3d</fix>
</trkpt>
<trkpt lat="40.0727164" lon="-105.2308904">
  <ele>1595.58</ele>
  <time>2026-08-27T18:30:15Z</time>
  <course>331.2</course>
  <speed>0.01414213562373095</speed>
  <fix>3d</fix>
</trkpt>
<trkpt lat="40.0727164" lon="-105.2308901">
  <ele>1595.48</ele>
  <time>2026-08-27T18:30:15Z</time>
  <course>117.09</course>
  <speed>0.04</speed>
  <fix>3d</fix>
</trkpt>
<trkpt lat="40.0727164" lon="-105.2308903">
  <ele>1595.57</ele>
  <time>2026-08-27T18:30:15Z</time>
  <course>331.16</course>
  <speed>0.01</speed>
  <fix>3d</fix>
</trkpt>
<trkpt lat="40.0727163" lon="-105.23089">
  <ele>1595.48</ele>
  <time>2026-08-27T18:30:15Z</time>
  <course>119.54</course>
  <speed>0.04</speed>
  <fix>3d</fix>
</trkpt>
<trkpt lat="40.0727164" lon="-105.2308902">
  <ele>1595.57</ele>
  <time>2026-08-27T18:30:15Z</time>
  <course>331.21</course>
  <speed>0.01414213562373095</speed>
  <fix>3d</fix>
</trkpt>
<trkpt lat="40.0727162" lon="-105.2308899">
  <ele>1595.48</ele>
  <time>2026-08-27T18:30:15Z</time>
  <course>117.48</course>
  <speed>0.04</speed>
  <fix>3d</fix>
</trkpt>
<trkpt lat="40.0727163" lon="-105.2308901">
  <ele>1595.56</ele>
  <time>2026-08-27T18:30:15Z</time>
  <course>331.21</course>
  <speed>0.01</speed>
  <fix>3d</fix>
</trkpt>
<trkpt lat="40.0727162" lon="-105.2308898">
  <ele>1595.48</ele>
  <time>2026-08-27T18:30:15Z</time>
  <course>118.43</course>
  <speed>0.04</speed>
  <fix>3d</fix>
</trkpt>
<trkpt lat="40.0727163" lon="-105.23089">
  <ele>1595.56</ele>
  <time>2026-08-27T18:30:15Z</time>
  <course>331.18</course>
  <speed>0.01</speed>
  <fix>3d</fix>
</trkpt>
<trkpt lat="40.0727162" lon="-105.2308897">
  <ele>1595.48</ele>
  <time>2026-08-27T18:30:15Z</time>
  <course>119.9</course>
  <speed>0.04</speed>
  <fix>3d</fix>
</trkpt>
<trkpt lat="40.0727162" lon="-105.2308899">
  <ele>1595.56</ele>
  <time>2026-08-27T18:30:15Z</time>
  <course>331.23</course>
  <speed>0.01414213562373095</speed>
  <fix>3d</fix>
</trkpt>
<trkpt lat="40.0727161" lon="-105.2308896">
  <ele>1595.48</ele>
  <time>2026-08-27T18:30:15Z</time>
  <course>117.08</course>
  <speed>0.04</speed>
  <fix>3d</fix>
</trkpt>
<trkpt lat="40.0727162" lon="-105.2308898">
  <ele>1595.56</ele>
  <time>2026-08-27T18:30:15Z</time>
  <course>331.23</course>
  <speed>0.01</speed>
  <fix>3d</fix>
</trkpt>
<trkpt lat="40.0727161" lon="-105.2308895">
  <ele>1595.48</ele>
  <time>2026-08-27T18:30:15Z</time>
  <course>121.7</course>
  <speed>0.04</speed>
  <fix>3d</fix>
</trkpt>
<trkpt lat="40.0727161" lon="-105.2308897">
  <ele>1595.56</ele>
  <time>2026-08-27T18:30:15Z</time>
  <course>331.27</course>
  <speed>0.01414213562373095</speed>
  <fix>3d</fix>
</trkpt>
<trkpt lat="40.0727161" lon="-105.2308894">
  <ele>1595.48</ele>
  <time>2026-08-27T18:30:15Z</time>
  <course>119.76</course>
  <speed>0.04</speed>
  <fix>3d</fix>
</trkpt>
<trkpt lat="40.0727161" lon="-105.2308896">
  <ele>1595.56</ele>
  <time>2026-08-27T18:30:15Z</time>
  <course>331.31</course>
  <speed>0.01414213562373095</speed>
  <fix>3d</fix>
</trkpt>
<trkpt lat="40.0727161" lon="-105.2308894">
  <ele>1595.49</ele>
  <time>2026-08-27T18:30:15Z</time>
  <course>119.13</course>
  <speed>0.04</speed>
  <fix>3d</fix>
</trkpt>
<trkpt lat="40.0727161" lon="-105.2308895">
  <ele>1595.57</ele>
  <time>2026-08-27T18:30:15Z</time>
  <course>331.27</course>
  <speed>0.01</speed>
  <fix>3d</fix>
</trkpt>
<trkpt lat="40.072716" lon="-105.2308893">
  <ele>1595.49</ele>
  <time>2026-08-27T18:30:15Z</time>
  <course>124.21</course>
  <speed>0.04</speed>
  <fix>3d</fix>
</trkpt>
<trkpt lat="40.072716" lon="-105.2308894">
  <ele>1595.57</ele>
  <time>2026-08-27T18:30:15Z</time>
  <course>331.33</course>
  <speed>0.01414213562373095</speed>
  <fix>3d</fix>
</trkpt>
<trkpt lat="40.072716" lon="-105.2308892">
  <ele>1595.49</ele>
  <time>2026-08-27T18:30:15Z</time>
  <course>120.78</course>
  <speed>0.04</speed>
  <fix>3d</fix>
</trkpt>
<trkpt lat="40.072716" lon="-105.2308894">
  <ele>1595.57</ele>
  <time>2026-08-27T18:30:15Z</time>
  <course>331.35</course>
  <speed>0.01414213562373095</speed>
  <fix>3d</fix>
</trkpt>
<trkpt lat="40.0727159" lon="-105.2308891">
  <ele>1595.5</ele>
  <time>2026-08-27T18:30:15Z</time>
  <course>120.94</course>
  <speed>0.04</speed>
  <fix>3d</fix>
</trkpt>
<trkpt lat="40.072716" lon="-105.2308893">
  <ele>1595.57</ele>
  <time>2026-08-27T18:30:15Z</time>
  <course>331.33</course>
  <speed>0.01</speed>
  <fix>3d</fix>
</trkpt>
<trkpt lat="40.0727159" lon="-105.230889">
  <ele>1595.5</ele>
  <time>2026-08-27T18:30:15Z</time>
  <course>126.89</course>
  <speed>0.04</speed>
  <fix>3d</fix>
</trkpt>
<trkpt lat="40.0727159" lon="-105.2308892">
  <ele>1595.57</ele>
  <time>2026-08-27T18:30:15Z</time>
  <course>331.37</course>
  <speed>0.01</speed>
  <fix>3d</fix>
</trkpt>
<trkpt lat="40.0727159" lon="-105.2308889">
  <ele>1595.5</ele>
  <time>2026-08-27T18:30:15Z</time>
  <course>124.38</course>
  <speed>0.04</speed>
  <fix>3d</fix>
</trkpt>
<trkpt lat="40.0727159" lon="-105.2308891">
  <ele>1595.58</ele>
  <time>2026-08-27T18:30:15Z</time>
  <course>331.4</course>
  <speed>0.01414213562373095</speed>
  <fix>3d</fix>
</trkpt>
<trkpt lat="40.0727158" lon="-105.2308889">
  <ele>1595.5</ele>
  <time>2026-08-27T18:30:15Z</time>
  <course>121.53</course>
  <speed>0.04</speed>
  <fix>3d</fix>
</trkpt>
<trkpt lat="40.0727158" lon="-105.230889">
  <ele>1595.58</ele>
  <time>2026-08-27T18:30:15Z</time>
  <course>331.39</course>
  <speed>0.01</speed>
  <fix>3d</fix>
</trkpt>
<trkpt lat="40.0727158" lon="-105.2308888">
  <ele>1595.5</ele>
  <time>2026-08-27T18:30:15Z</time>
  <course>126.22</course>
  <speed>0.04</speed>
  <fix>3d</fix>
</trkpt>
<trkpt lat="40.0727158" lon="-105.230889">
  <ele>1595.59</ele>
  <time>2026-08-27T18:30:15Z</time>
  <course>331.41</course>
  <speed>0.01</speed>
  <fix>3d</fix>
</trkpt>
<trkpt lat="40.0727157" lon="-105.2308887">
  <ele>1595.5</ele>
  <time>2026-08-27T18:30:15Z</time>
  <course>128.35</course>
  <speed>0.03</speed>
  <fix>3d</fix>
</trkpt>
<trkpt lat="40.0727158" lon="-105.2308889">
  <ele>1595.58</ele>
  <time>2026-08-27T18:30:15Z</time>
  <course>331.44</course>
  <speed>0.01</speed>
  <fix>3d</fix>
</trkpt>
<trkpt lat="40.0727156" lon="-105.2308886">
  <ele>1595.51</ele>
  <time>2026-08-27T18:30:15Z</time>
  <course>124.26</course>
  <speed>0.04</speed>
  <fix>3d</fix>
</trkpt>
<trkpt lat="40.0727157" lon="-105.2308888">
  <ele>1595.58</ele>
  <time>2026-08-27T18:30:15Z</time>
  <course>331.46</course>
  <speed>0.01</speed>
  <fix>3d</fix>
</trkpt>
<trkpt lat="40.0727156" lon="-105.2308886">
  <ele>1595.5</ele>
  <time>2026-08-27T18:30:15Z</time>
  <course>122.79</course>
  <speed>0.04</speed>
  <fix>3d</fix>
</trkpt>
<trkpt lat="40.0727157" lon="-105.2308887">
  <ele>1595.57</ele>
  <time>2026-08-27T18:30:15Z</time>
  <course>331.45</course>
  <speed>0.01</speed>
  <fix>3d</fix>
</trkpt>
<trkpt lat="40.0727155" lon="-105.2308885">
  <ele>1595.5</ele>
  <time>2026-08-27T18:30:15Z</time>
  <course>126.04</course>
  <speed>0.03</speed>
  <fix>3d</fix>
</trkpt>
<trkpt lat="40.0727156" lon="-105.2308886">
  <ele>1595.57</ele>
  <time>2026-08-27T18:30:15Z</time>
  <course>331.45</course>
  <speed>0.01</speed>
  <fix>3d</fix>
</trkpt>
<trkpt lat="40.0727155" lon="-105.2308884">
  <ele>1595.5</ele>
  <time>2026-08-27T18:30:15Z</time>
  <course>128.49</course>
  <speed>0.03</speed>
  <fix>3d</fix>
</trkpt>
<trkpt lat="40.0727156" lon="-105.2308886">
  <ele>1595.57</ele>
  <time>2026-08-27T18:30:15Z</time>
  <course>331.47</course>
  <speed>0.01</speed>
  <fix>3d</fix>
</trkpt>
<trkpt lat="40.0727155" lon="-105.2308883">
  <ele>1595.5</ele>
  <time>2026-08-27T18:30:15Z</time>
  <course>127.28</course>
  <speed>0.03</speed>
  <fix>3d</fix>
</trkpt>
<trkpt lat="40.0727155" lon="-105.2308885">
  <ele>1595.57</ele>
  <time>2026-08-27T18:30:15Z</time>
  <course>331.48</course>
  <speed>0.01</speed>
  <fix>3d</fix>
</trkpt>
<trkpt lat="40.0727155" lon="-105.2308882">
  <ele>1595.5</ele>
  <time>2026-08-27T18:30:15Z</time>
  <course>124.77</course>
  <speed>0.03</speed>
  <fix>3d</fix>
</trkpt>
<trkpt lat="40.0727155" lon="-105.2308884">
  <ele>1595.57</ele>
  <time>2026-08-27T18:30:15Z</time>
  <course>331.5</course>
  <speed>0.01</speed>
  <fix>3d</fix>
</trkpt>
<trkpt lat="40.0727154" lon="-105.2308882">
  <ele>1595.51</ele>
  <time>2026-08-27T18:30:15Z</time>
  <course>123.39</course>
  <speed>0.03</speed>
  <fix>3d</fix>
</trkpt>
<trkpt lat="40.0727155" lon="-105.2308883">
  <ele>1595.57</ele>
  <time>2026-08-27T18:30:15Z</time>
  <course>331.52</course>
  <speed>0.01</speed>
  <fix>3d</fix>
</trkpt>
<trkpt lat="40.0727154" lon="-105.2308881">
  <ele>1595.51</ele>
  <time>2026-08-27T18:30:15Z</time>
  <course>123.9</course>
  <speed>0.03</speed>
  <fix>3d</fix>
</trkpt>
<trkpt lat="40.0727154" lon="-105.2308883">
  <ele>1595.58</ele>
  <time>2026-08-27T18:30:15Z</time>
  <course>331.53</course>
  <speed>0.01</speed>
  <fix>3d</fix>
</trkpt>
<trkpt lat="40.0727154" lon="-105.230888">
  <ele>1595.51</ele>
  <time>2026-08-27T18:30:15Z</time>
  <course>125.29</course>
  <speed>0.03</speed>
  <fix>3d</fix>
</trkpt>
<trkpt lat="40.0727154" lon="-105.2308882">
  <ele>1595.58</ele>
  <time>2026-08-27T18:30:15Z</time>
  <course>331.54</course>
  <speed>0.01</speed>
  <fix>3d</fix>
</trkpt>
<trkpt lat="40.0727153" lon="-105.2308879">
  <ele>1595.51</ele>
  <time>2026-08-27T18:30:15Z</time>
  <course>126.64</course>
  <speed>0.03</speed>
  <fix>3d</fix>
</trkpt>
<trkpt lat="40.0727154" lon="-105.2308881">
  <ele>1595.58</ele>
  <time>2026-08-27T18:30:15Z</time>
  <course>331.55</course>
  <speed>0.01</speed>
  <fix>3d</fix>
</trkpt>
<trkpt lat="40.0727153" lon="-105.2308879">
  <ele>1595.51</ele>
  <time>2026-08-27T18:30:15Z</time>
  <course>127.48</course>
  <speed>0.03</speed>
  <fix>3d</fix>
</trkpt>
<trkpt lat="40.0727153" lon="-105.230888">
  <ele>1595.58</ele>
  <time>2026-08-27T18:30:15Z</time>
  <course>331.56</course>
  <speed>0.01</speed>
  <fix>3d</fix>
</trkpt>
<trkpt lat="40.0727152" lon="-105.2308878">
  <ele>1595.51</ele>
  <time>2026-08-27T18:30:15Z</time>
  <course>127.75</course>
  <speed>0.03</speed>
  <fix>3d</fix>
</trkpt>
<trkpt lat="40.0727153" lon="-105.230888">
  <ele>1595.58</ele>
  <time>2026-08-27T18:30:15Z</time>
  <course>331.58</course>
  <speed>0.01</speed>
  <fix>3d</fix>
</trkpt>
<trkpt lat="40.0727152" lon="-105.2308877">
  <ele>1595.51</ele>
  <time>2026-08-27T18:30:15Z</time>
  <course>127.88</course>
  <speed>0.03</speed>
  <fix>3d</fix>
</trkpt>
<trkpt lat="40.0727152" lon="-105.2308879">
  <ele>1595.59</ele>
  <time>2026-08-27T18:30:15Z</time>
  <course>331.59</course>
  <speed>0.01</speed>
  <fix>3d</fix>
</trkpt>
<trkpt lat="40.0727152" lon="-105.2308877">
  <ele>1595.51</ele>
  <time>2026-08-27T18:30:15Z</time>
  <course>128.09</course>
  <speed>0.03</speed>
  <fix>3d</fix>
</trkpt>
<trkpt lat="40.0727152" lon="-105.2308878">
  <ele>1595.59</ele>
  <time>2026-08-27T18:30:15Z</time>
  <course>331.6</course>
  <speed>0.01</speed>
  <fix>3d</fix>
</trkpt>
<trkpt lat="40.0727151" lon="-105.2308876">
  <ele>1595.51</ele>
  <time>2026-08-27T18:30:15Z</time>
  <course>128.47</course>
  <speed>0.03</speed>
  <fix>3d</fix>
</trkpt>
<trkpt lat="40.0727152" lon="-105.2308878">
  <ele>1595.59</ele>
  <time>2026-08-27T18:30:16Z</time>
  <course>331.62</course>
  <speed>0.01</speed>
  <fix>3d</fix>
</trkpt>
<trkpt lat="40.072715" lon="-105.2308875">
  <ele>1595.51</ele>
  <time>2026-08-27T18:30:16Z</time>
  <course>128.7</course>
  <speed>0.03</speed>
  <fix>3d</fix>
</trkpt>
<trkpt lat="40.0727151" lon="-105.2308877">
  <ele>1595.59</ele>
  <time>2026-08-27T18:30:16Z</time>
  <course>331.62</course>
  <speed>0.01</speed>
  <fix>3d</fix>
</trkpt>
<trkpt lat="40.072715" lon="-105.2308875">
  <ele>1595.51</ele>
  <time>2026-08-27T18:30:16Z</time>
  <course>128.63</course>
  <speed>0.03</speed>
  <fix>3d</fix>
</trkpt>
<trkpt lat="40.0727151" lon="-105.2308876">
  <ele>1595.59</ele>
  <time>2026-08-27T18:30:16Z</time>
  <course>331.64</course>
  <speed>0.01</speed>
  <fix>3d</fix>
</trkpt>
<trkpt lat="40.072715" lon="-105.2308874">
  <ele>1595.5</ele>
  <time>2026-08-27T18:30:16Z</time>
  <course>128.31</course>
  <speed>0.03</speed>
  <fix>3d</fix>
</trkpt>
<trkpt lat="40.072715" lon="-105.2308876">
  <ele>1595.59</ele>
  <time>2026-08-27T18:30:16Z</time>
  <course>331.65</course>
  <speed>0.01</speed>
  <fix>3d</fix>
</trkpt>
<trkpt lat="40.0727149" lon="-105.2308874">
  <ele>1595.5</ele>
  <time>2026-08-27T18:30:16Z</time>
  <course>127.85</course>
  <speed>0.03</speed>
  <fix>3d</fix>
</trkpt>
<trkpt lat="40.072715" lon="-105.2308875">
  <ele>1595.58</ele>
  <time>2026-08-27T18:30:16Z</time>
  <course>331.65</course>
  <speed>0.01</speed>
  <fix>3d</fix>
</trkpt>
<trkpt lat="40.0727149" lon="-105.2308873">
  <ele>1595.5</ele>
  <time>2026-08-27T18:30:16Z</time>
  <course>127.15</course>
  <speed>0.03</speed>
  <fix>3d</fix>
</trkpt>
<trkpt lat="40.072715" lon="-105.2308875">
  <ele>1595.58</ele>
  <time>2026-08-27T18:30:16Z</time>
  <course>331.65</course>
  <speed>0.01</speed>
  <fix>3d</fix>
</trkpt>
<trkpt lat="40.0727149" lon="-105.2308872">
  <ele>1595.5</ele>
  <time>2026-08-27T18:30:16Z</time>
  <course>126.2</course>
  <speed>0.03</speed>
  <fix>3d</fix>
</trkpt>
<trkpt lat="40.0727149" lon="-105.2308874">
  <ele>1595.57</ele>
  <time>2026-08-27T18:30:16Z</time>
  <course>331.66</course>
  <speed>0.01</speed>
  <fix>3d</fix>
</trkpt>
<trkpt lat="40.0727149" lon="-105.2308872">
  <ele>1595.5</ele>
  <time>2026-08-27T18:30:16Z</time>
  <course>125.15</course>
  <speed>0.03</speed>
  <fix>3d</fix>
</trkpt>
<trkpt lat="40.0727149" lon="-105.2308873">
  <ele>1595.57</ele>
  <time>2026-08-27T18:30:16Z</time>
  <course>331.66</course>
  <speed>0.01</speed>
  <fix>3d</fix>
</trkpt>
<trkpt lat="40.0727148" lon="-105.2308871">
  <ele>1595.49</ele>
  <time>2026-08-27T18:30:16Z</time>
  <course>124.13</course>
  <speed>0.03</speed>
  <fix>3d</fix>
</trkpt>
<trkpt lat="40.0727149" lon="-105.2308873">
  <ele>1595.56</ele>
  <time>2026-08-27T18:30:16Z</time>
  <course>331.67</course>
  <speed>0.01</speed>
  <fix>3d</fix>
</trkpt>
<trkpt lat="40.0727148" lon="-105.230887">
  <ele>1595.49</ele>
  <time>2026-08-27T18:30:16Z</time>
  <course>123.79</course>
  <speed>0.03</speed>
  <fix>3d</fix>
</trkpt>
<trkpt lat="40.0727148" lon="-105.2308872">
  <ele>1595.56</ele>
  <time>2026-08-27T18:30:16Z</time>
  <course>331.68</course>
  <speed>0.01</speed>
  <fix>3d</fix>
</trkpt>
<trkpt lat="40.0727148" lon="-105.230887">
  <ele>1595.49</ele>
  <time>2026-08-27T18:30:16Z</time>
  <course>124.77</course>
  <speed>0.03</speed>
  <fix>3d</fix>
</trkpt>
<trkpt lat="40.0727148" lon="-105.2308871">
  <ele>1595.57</ele>
  <time>2026-08-27T18:30:16Z</time>
  <course>331.69</course>
  <speed>0.01</speed>
  <fix>3d</fix>
</trkpt>
<trkpt lat="40.0727147" lon="-105.2308869">
  <ele>1595.5</ele>
  <time>2026-08-27T18:30:16Z</time>
  <course>126.24</course>
  <speed>0.03</speed>
  <fix>3d</fix>
</trkpt>
<trkpt lat="40.0727148" lon="-105.2308871">
  <ele>1595.57</ele>
  <time>2026-08-27T18:30:16Z</time>
  <course>331.68</course>
  <speed>0.01</speed>
  <fix>3d</fix>
</trkpt>
<trkpt lat="40.0727147" lon="-105.2308868">
  <ele>1595.5</ele>
  <time>2026-08-27T18:30:16Z</time>
  <course>127.08</course>
  <speed>0.03</speed>
  <fix>3d</fix>
</trkpt>
<trkpt lat="40.0727147" lon="-105.230887">
  <ele>1595.57</ele>
  <time>2026-08-27T18:30:16Z</time>
  <course>331.7</course>
  <speed>0.01</speed>
  <fix>3d</fix>
</trkpt>
<trkpt lat="40.0727146" lon="-105.2308867">
  <ele>1595.5</ele>
  <time>2026-08-27T18:30:16Z</time>
  <course>127.59</course>
  <speed>0.03</speed>
  <fix>3d</fix>
</trkpt>
<trkpt lat="40.0727147" lon="-105.2308869">
  <ele>1595.58</ele>
  <time>2026-08-27T18:30:16Z</time>
  <course>331.72</course>
  <speed>0.01</speed>
  <fix>3d</fix>
</trkpt>
<trkpt lat="40.0727146" lon="-105.2308867">
  <ele>1595.5</ele>
  <time>2026-08-27T18:30:16Z</time>
  <course>128.42</course>
  <speed>0.03</speed>
  <fix>3d</fix>
</trkpt>
<trkpt lat="40.0727146" lon="-105.2308869">
  <ele>1595.58</ele>
  <time>2026-08-27T18:30:16Z</time>
  <course>331.73</course>
  <speed>0.01</speed>
  <fix>3d</fix>
</trkpt>
<trkpt lat="40.0727146" lon="-105.2308866">
  <ele>1595.5</ele>
  <time>2026-08-27T18:30:16Z</time>
  <course>129.28</course>
  <speed>0.03</speed>
  <fix>3d</fix>
</trkpt>
<trkpt lat="40.0727146" lon="-105.2308868">
  <ele>1595.58</ele>
  <time>2026-08-27T18:30:16Z</time>
  <course>331.73</course>
  <speed>0.01</speed>
  <fix>3d</fix>
</trkpt>
<trkpt lat="40.0727145" lon="-105.2308865">
  <ele>1595.51</ele>
  <time>2026-08-27T18:30:16Z</time>
  <course>129.46</course>
  <speed>0.03</speed>
  <fix>3d</fix>
</trkpt>
<trkpt lat="40.0727146" lon="-105.2308867">
  <ele>1595.58</ele>
  <time>2026-08-27T18:30:16Z</time>
  <course>331.74</course>
  <speed>0.01</speed>
  <fix>3d</fix>
</trkpt>
<trkpt lat="40.0727144" lon="-105.2308865">
  <ele>1595.51</ele>
  <time>2026-08-27T18:30:16Z</time>
  <course>129.16</course>
  <speed>0.03</speed>
  <fix>3d</fix>
</trkpt>
<trkpt lat="40.0727145" lon="-105.2308867">
  <ele>1595.58</ele>
  <time>2026-08-27T18:30:16Z</time>
  <course>331.75</course>
  <speed>0.01</speed>
  <fix>3d</fix>
</trkpt>
<trkpt lat="40.0727144" lon="-105.2308864">
  <ele>1595.51</ele>
  <time>2026-08-27T18:30:16Z</time>
  <course>128.16</course>
  <speed>0.03</speed>
  <fix>3d</fix>
</trkpt>
<trkpt lat="40.0727145" lon="-105.2308866">
  <ele>1595.58</ele>
  <time>2026-08-27T18:30:16Z</time>
  <course>331.76</course>
  <speed>0.01</speed>
  <fix>3d</fix>
</trkpt>
<trkpt lat="40.0727143" lon="-105.2308863">
  <ele>1595.51</ele>
  <time>2026-08-27T18:30:16Z</time>
  <course>126.72</course>
  <speed>0.03</speed>
  <fix>3d</fix>
</trkpt>
<trkpt lat="40.0727144" lon="-105.2308865">
  <ele>1595.58</ele>
  <time>2026-08-27T18:30:16Z</time>
  <course>331.76</course>
  <speed>0.01</speed>
  <fix>3d</fix>
</trkpt>
<trkpt lat="40.0727143" lon="-105.2308863">
  <ele>1595.5</ele>
  <time>2026-08-27T18:30:16Z</time>
  <course>126.31</course>
  <speed>0.03</speed>
  <fix>3d</fix>
</trkpt>
<trkpt lat="40.0727144" lon="-105.2308865">
  <ele>1595.58</ele>
  <time>2026-08-27T18:30:16Z</time>
  <course>331.77</course>
  <speed>0.01</speed>
  <fix>3d</fix>
</trkpt>
<trkpt lat="40.0727143" lon="-105.2308863">
  <ele>1595.5</ele>
  <time>2026-08-27T18:30:16Z</time>
  <course>126.16</course>
  <speed>0.03</speed>
  <fix>3d</fix>
</trkpt>
<trkpt lat="40.0727144" lon="-105.2308864">
  <ele>1595.57</ele>
  <time>2026-08-27T18:30:16Z</time>
  <course>331.77</course>
  <speed>0.01</speed>
  <fix>3d</fix>
</trkpt>
<trkpt lat="40.0727143" lon="-105.2308862">
  <ele>1595.5</ele>
  <time>2026-08-27T18:30:16Z</time>
  <course>125.8</course>
  <speed>0.03</speed>
  <fix>3d</fix>
</trkpt>
<trkpt lat="40.0727143" lon="-105.2308864">
  <ele>1595.57</ele>
  <time>2026-08-27T18:30:16Z</time>
  <course>331.78</course>
  <speed>0.01</speed>
  <fix>3d</fix>
</trkpt>
<trkpt lat="40.0727143" lon="-105.2308861">
  <ele>1595.5</ele>
  <time>2026-08-27T18:30:16Z</time>
  <course>125.64</course>
  <speed>0.03</speed>
  <fix>3d</fix>
</trkpt>
<trkpt lat="40.0727143" lon="-105.2308863">
  <ele>1595.57</ele>
  <time>2026-08-27T18:30:16Z</time>
  <course>331.78</course>
  <speed>0.01</speed>
  <fix>3d</fix>
</trkpt>
<trkpt lat="40.0727142" lon="-105.230886">
  <ele>1595.5</ele>
  <time>2026-08-27T18:30:16Z</time>
  <course>125.15</course>
  <speed>0.03</speed>
  <fix>3d</fix>
</trkpt>
<trkpt lat="40.0727143" lon="-105.2308862">
  <ele>1595.57</ele>
  <time>2026-08-27T18:30:16Z</time>
  <course>331.79</course>
  <speed>0.01</speed>
  <fix>3d</fix>
</trkpt>
<trkpt lat="40.0727142" lon="-105.230886">
  <ele>1595.5</ele>
  <time>2026-08-27T18:30:16Z</time>
  <course>124.88</course>
  <speed>0.03</speed>
  <fix>3d</fix>
</trkpt>
<trkpt lat="40.0727142" lon="-105.2308862">
  <ele>1595.57</ele>
  <time>2026-08-27T18:30:16Z</time>
  <course>331.8</course>
  <speed>0.01</speed>
  <fix>3d</fix>
</trkpt>
<trkpt lat="40.0727142" lon="-105.230886">
  <ele>1595.5</ele>
  <time>2026-08-27T18:30:16Z</time>
  <course>126.04</course>
  <speed>0.03</speed>
  <fix>3d</fix>
</trkpt>
<trkpt lat="40.0727142" lon="-105.2308861">
  <ele>1595.57</ele>
  <time>2026-08-27T18:30:16Z</time>
  <course>331.81</course>
  <speed>0.01</speed>
  <fix>3d</fix>
</trkpt>
<trkpt lat="40.0727141" lon="-105.2308859">
  <ele>1595.5</ele>
  <time>2026-08-27T18:30:16Z</time>
  <course>127.48</course>
  <speed>0.03</speed>
  <fix>3d</fix>
</trkpt>
<trkpt lat="40.0727142" lon="-105.230886">
  <ele>1595.57</ele>
  <time>2026-08-27T18:30:16Z</time>
  <course>331.82</course>
  <speed>0.01</speed>
  <fix>3d</fix>
</trkpt>
<trkpt lat="40.0727141" lon="-105.2308858">
  <ele>1595.51</ele>
  <time>2026-08-27T18:30:16Z</time>
  <course>128.12</course>
  <speed>0.03</speed>
  <fix>3d</fix>
</trkpt>
<trkpt lat="40.0727141" lon="-105.230886">
  <ele>1595.58</ele>
  <time>2026-08-27T18:30:16Z</time>
  <course>331.83</course>
  <speed>0.01</speed>
  <fix>3d</fix>
</trkpt>
<trkpt lat="40.0727141" lon="-105.2308858">
  <ele>1595.51</ele>
  <time>2026-08-27T18:30:16Z</time>
  <course>128.58</course>
  <speed>0.03</speed>
  <fix>3d</fix>
</trkpt>
<trkpt lat="40.0727141" lon="-105.2308859">
  <ele>1595.58</ele>
  <time>2026-08-27T18:30:16Z</time>
  <course>331.83</course>
  <speed>0.01</speed>
  <fix>3d</fix>
</trkpt>
<trkpt lat="40.072714" lon="-105.2308857">
  <ele>1595.51</ele>
  <time>2026-08-27T18:30:16Z</time>
  <course>128.6</course>
  <speed>0.03</speed>
  <fix>3d</fix>
</trkpt>
<trkpt lat="40.0727141" lon="-105.2308858">
  <ele>1595.58</ele>
  <time>2026-08-27T18:30:16Z</time>
  <course>331.84</course>
  <speed>0.01</speed>
  <fix>3d</fix>
</trkpt>
<trkpt lat="40.072714" lon="-105.2308856">
  <ele>1595.51</ele>
  <time>2026-08-27T18:30:16Z</time>
  <course>127.9</course>
  <speed>0.03</speed>
  <fix>3d</fix>
</trkpt>
<trkpt lat="40.072714" lon="-105.2308858">
  <ele>1595.58</ele>
  <time>2026-08-27T18:30:16Z</time>
  <course>331.85</course>
  <speed>0.01</speed>
  <fix>3d</fix>
</trkpt>
<trkpt lat="40.0727139" lon="-105.2308855">
  <ele>1595.51</ele>
  <time>2026-08-27T18:30:16Z</time>
  <course>126.86</course>
  <speed>0.03</speed>
  <fix>3d</fix>
</trkpt>
<trkpt lat="40.072714" lon="-105.2308857">
  <ele>1595.58</ele>
  <time>2026-08-27T18:30:16Z</time>
  <course>331.86</course>
  <speed>0.01</speed>
  <fix>3d</fix>
</trkpt>
<trkpt lat="40.0727138" lon="-105.2308855">
  <ele>1595.51</ele>
  <time>2026-08-27T18:30:16Z</time>
  <course>126.47</course>
  <speed>0.03</speed>
  <fix>3d</fix>
</trkpt>
<trkpt lat="40.0727139" lon="-105.2308857">
  <ele>1595.58</ele>
  <time>2026-08-27T18:30:16Z</time>
  <course>331.85</course>
  <speed>0.01</speed>
  <fix>3d</fix>
</trkpt>
<trkpt lat="40.0727138" lon="-105.2308854">
  <ele>1595.5</ele>
  <time>2026-08-27T18:30:16Z</time>
  <course>126.97</course>
  <speed>0.03</speed>
  <fix>3d</fix>
</trkpt>
<trkpt lat="40.0727139" lon="-105.2308856">
  <ele>1595.58</ele>
  <time>2026-08-27T18:30:16Z</time>
  <course>331.86</course>
  <speed>0.01</speed>
  <fix>3d</fix>
</trkpt>
<trkpt lat="40.0727138" lon="-105.2308853">
  <ele>1595.5</ele>
  <time>2026-08-27T18:30:16Z</time>
  <course>127.27</course>
  <speed>0.03</speed>
  <fix>3d</fix>
</trkpt>
<trkpt lat="40.0727139" lon="-105.2308855">
  <ele>1595.57</ele>
  <time>2026-08-27T18:30:16Z</time>
  <course>331.86</course>
  <speed>0.01</speed>
  <fix>3d</fix>
</trkpt>
<trkpt lat="40.0727137" lon="-105.2308853">
  <ele>1595.5</ele>
  <time>2026-08-27T18:30:16Z</time>
  <course>126.26</course>
  <speed>0.03</speed>
  <fix>3d</fix>
</trkpt>
<trkpt lat="40.0727138" lon="-105.2308855">
  <ele>1595.57</ele>
  <time>2026-08-27T18:30:16Z</time>
  <course>331.86</course>
  <speed>0.01</speed>
  <fix>3d</fix>
</trkpt>
<trkpt lat="40.0727137" lon="-105.2308853">
  <ele>1595.5</ele>
  <time>2026-08-27T18:30:16Z</time>
  <course>125.28</course>
  <speed>0.03</speed>
  <fix>3d</fix>
</trkpt>
<trkpt lat="40.0727138" lon="-105.2308854">
  <ele>1595.58</ele>
  <time>2026-08-27T18:30:16Z</time>
  <course>331.86</course>
  <speed>0.01</speed>
  <fix>3d</fix>
</trkpt>
<trkpt lat="40.0727137" lon="-105.2308852">
  <ele>1595.5</ele>
  <time>2026-08-27T18:30:16Z</time>
  <course>125.11</course>
  <speed>0.03</speed>
  <fix>3d</fix>
</trkpt>
<trkpt lat="40.0727138" lon="-105.2308853">
  <ele>1595.57</ele>
  <time>2026-08-27T18:30:16Z</time>
  <course>331.87</course>
  <speed>0.01</speed>
  <fix>3d</fix>
</trkpt>
<trkpt lat="40.0727137" lon="-105.2308851">
  <ele>1595.5</ele>
  <time>2026-08-27T18:30:16Z</time>
  <course>124.3</course>
  <speed>0.03</speed>
  <fix>3d</fix>
</trkpt>
<trkpt lat="40.0727137" lon="-105.2308853">
  <ele>1595.57</ele>
  <time>2026-08-27T18:30:16Z</time>
  <course>331.88</course>
  <speed>0.01</speed>
  <fix>3d</fix>
</trkpt>
<trkpt lat="40.0727137" lon="-105.2308851">
  <ele>1595.5</ele>
  <time>2026-08-27T18:30:16Z</time>
  <course>122.72</course>
  <speed>0.03</speed>
  <fix>3d</fix>
</trkpt>
<trkpt lat="40.0727137" lon="-105.2308852">
  <ele>1595.57</ele>
  <time>2026-08-27T18:30:16Z</time>
  <course>331.88</course>
  <speed>0.0</speed>
  <fix>3d</fix>
</trkpt>
<trkpt lat="40.0727136" lon="-105.230885">
  <ele>1595.5</ele>
  <time>2026-08-27T18:30:16Z</time>
  <course>121.93</course>
  <speed>0.03</speed>
  <fix>3d</fix>
</trkpt>
<trkpt lat="40.0727137" lon="-105.2308852">
  <ele>1595.56</ele>
  <time>2026-08-27T18:30:16Z</time>
  <course>331.88</course>
  <speed>0.01</speed>
  <fix>3d</fix>
</trkpt>
<trkpt lat="40.0727136" lon="-105.230885">
  <ele>1595.5</ele>
  <time>2026-08-27T18:30:16Z</time>
  <course>123.32</course>
  <speed>0.03</speed>
  <fix>3d</fix>
</trkpt>
<trkpt lat="40.0727136" lon="-105.2308851">
  <ele>1595.57</ele>
  <time>2026-08-27T18:30:16Z</time>
  <course>331.89</course>
  <speed>0.01</speed>
  <fix>3d</fix>
</trkpt>
<trkpt lat="40.0727136" lon="-105.2308849">
  <ele>1595.5</ele>
  <time>2026-08-27T18:30:16Z</time>
  <course>125.8</course>
  <speed>0.03</speed>
  <fix>3d</fix>
</trkpt>
<trkpt lat="40.0727136" lon="-105.2308851">
  <ele>1595.57</ele>
  <time>2026-08-27T18:30:16Z</time>
  <course>331.9</course>
  <speed>0.01</speed>
  <fix>3d</fix>
</trkpt>
<trkpt lat="40.0727135" lon="-105.2308848">
  <ele>1595.5</ele>
  <time>2026-08-27T18:30:16Z</time>
  <course>126.85</course>
  <speed>0.03</speed>
  <fix>3d</fix>
</trkpt>
<trkpt lat="40.0727136" lon="-105.230885">
  <ele>1595.57</ele>
  <time>2026-08-27T18:30:16Z</time>
  <course>331.9</course>
  <speed>0.01</speed>
  <fix>3d</fix>
</trkpt>
<trkpt lat="40.0727135" lon="-105.2308848">
  <ele>1595.5</ele>
  <time>2026-08-27T18:30:16Z</time>
  <course>126.09</course>
  <speed>0.03</speed>
  <fix>3d</fix>
</trkpt>
<trkpt lat="40.0727135" lon="-105.2308849">
  <ele>1595.57</ele>
  <time>2026-08-27T18:30:16Z</time>
  <course>331.91</course>
  <speed>0.01</speed>
  <fix>3d</fix>
</trkpt>
<trkpt lat="40.0727135" lon="-105.2308847">
  <ele>1595.51</ele>
  <time>2026-08-27T18:30:16Z</time>
  <course>125.15</course>
  <speed>0.03</speed>
  <fix>3d</fix>
</trkpt>
<trkpt lat="40.0727135" lon="-105.2308849">
  <ele>1595.58</ele>
  <time>2026-08-27T18:30:16Z</time>
  <course>331.92</course>
  <speed>0.01</speed>
  <fix>3d</fix>
</trkpt>
<trkpt lat="40.0727134" lon="-105.2308846">
  <ele>1595.51</ele>
  <time>2026-08-27T18:30:16Z</time>
  <course>124.93</course>
  <speed>0.03</speed>
  <fix>3d</fix>
</trkpt>
<trkpt lat="40.0727135" lon="-105.2308848">
  <ele>1595.58</ele>
  <time>2026-08-27T18:30:16Z</time>
  <course>331.93</course>
  <speed>0.01</speed>
  <fix>3d</fix>
</trkpt>
<trkpt lat="40.0727134" lon="-105.2308846">
  <ele>1595.51</ele>
  <time>2026-08-27T18:30:16Z</time>
  <course>125.18</course>
  <speed>0.03</speed>
  <fix>3d</fix>
</trkpt>
<trkpt lat="40.0727134" lon="-105.2308847">
  <ele>1595.58</ele>
  <time>2026-08-27T18:30:16Z</time>
  <course>331.93</course>
  <speed>0.01</speed>
  <fix>3d</fix>
</trkpt>
<trkpt lat="40.0727134" lon="-105.2308845">
  <ele>1595.51</ele>
  <time>2026-08-27T18:30:16Z</time>
  <course>125.15</course>
  <speed>0.03</speed>
  <fix>3d</fix>
</trkpt>
<trkpt lat="40.0727134" lon="-105.2308847">
  <ele>1595.58</ele>
  <time>2026-08-27T18:30:16Z</time>
  <course>331.92</course>
  <speed>0.01</speed>
  <fix>3d</fix>
</trkpt>
<trkpt lat="40.0727133" lon="-105.2308845">
  <ele>1595.51</ele>
  <time>2026-08-27T18:30:16Z</time>
  <course>124.65</course>
  <speed>0.03</speed>
  <fix>3d</fix>
</trkpt>
<trkpt lat="40.0727134" lon="-105.2308846">
  <ele>1595.58</ele>
  <time>2026-08-27T18:30:16Z</time>
  <course>331.94</course>
  <speed>0.01</speed>
  <fix>3d</fix>
</trkpt>
<trkpt lat="40.0727132" lon="-105.2308844">
  <ele>1595.51</ele>
  <time>2026-08-27T18:30:16Z</time>
  <course>125.0</course>
  <speed>0.03</speed>
  <fix>3d</fix>
</trkpt>
<trkpt lat="40.0727133" lon="-105.2308846">
  <ele>1595.58</ele>
  <time>2026-08-27T18:30:16Z</time>
  <course>331.95</course>
  <speed>0.01</speed>
  <fix>3d</fix>
</trkpt>
<trkpt lat="40.0727132" lon="-105.2308843">
  <ele>1595.51</ele>
  <time>2026-08-27T18:30:16Z</time>
  <course>126.85</course>
  <speed>0.03</speed>
  <fix>3d</fix>
</trkpt>
<trkpt lat="40.0727133" lon="-105.2308845">
  <ele>1595.58</ele>
  <time>2026-08-27T18:30:16Z</time>
  <course>331.95</course>
  <speed>0.01</speed>
  <fix>3d</fix>
</trkpt>
<trkpt lat="40.0727132" lon="-105.2308843">
  <ele>1595.5</ele>
  <time>2026-08-27T18:30:16Z</time>
  <course>128.53</course>
  <speed>0.03</speed>
  <fix>3d</fix>
</trkpt>
<trkpt lat="40.0727132" lon="-105.2308844">
  <ele>1595.58</ele>
  <time>2026-08-27T18:30:16Z</time>
  <course>331.95</course>
  <speed>0.01</speed>
  <fix>3d</fix>
</trkpt>
<trkpt lat="40.0727131" lon="-105.2308842">
  <ele>1595.5</ele>
  <time>2026-08-27T18:30:16Z</time>
  <course>129.58</course>
  <speed>0.03</speed>
  <fix>3d</fix>
</trkpt>
<trkpt lat="40.0727132" lon="-105.2308844">
  <ele>1595.58</ele>
  <time>2026-08-27T18:30:16Z</time>
  <course>331.95</course>
  <speed>0.01</speed>
  <fix>3d</fix>
</trkpt>
<trkpt lat="40.0727131" lon="-105.2308841">
  <ele>1595.5</ele>
  <time>2026-08-27T18:30:16Z</time>
  <course>130.6</course>
  <speed>0.03</speed>
  <fix>3d</fix>
</trkpt>
<trkpt lat="40.0727131" lon="-105.2308843">
  <ele>1595.58</ele>
  <time>2026-08-27T18:30:16Z</time>
  <course>331.95</course>
  <speed>0.02</speed>
  <fix>3d</fix>
</trkpt>
<trkpt lat="40.0727131" lon="-105.2308841">
  <ele>1595.5</ele>
  <time>2026-08-27T18:30:16Z</time>
  <course>131.6</course>
  <speed>0.04</speed>
  <fix>3d</fix>
</trkpt>
<trkpt lat="40.0727131" lon="-105.2308842">
  <ele>1595.58</ele>
  <time>2026-08-27T18:30:16Z</time>
  <course>331.95</course>
  <speed>0.02</speed>
  <fix>3d</fix>
</trkpt>
<trkpt lat="40.072713" lon="-105.230884">
  <ele>1595.5</ele>
  <time>2026-08-27T18:30:16Z</time>
  <course>132.62</course>
  <speed>0.04</speed>
  <fix>3d</fix>
</trkpt>
<trkpt lat="40.072713" lon="-105.2308841">
  <ele>1595.58</ele>
  <time>2026-08-27T18:30:16Z</time>
  <course>331.96</course>
  <speed>0.02</speed>
  <fix>3d</fix>
</trkpt>
<trkpt lat="40.072713" lon="-105.2308839">
  <ele>1595.5</ele>
  <time>2026-08-27T18:30:16Z</time>
  <course>133.56</course>
  <speed>0.04</speed>
  <fix>3d</fix>
</trkpt>
<trkpt lat="40.072713" lon="-105.2308841">
  <ele>1595.58</ele>
  <time>2026-08-27T18:30:16Z</time>
  <course>331.96</course>
  <speed>0.022360679774997897</speed>
  <fix>3d</fix>
</trkpt>
<trkpt lat="40.0727129" lon="-105.2308838">
  <ele>1595.5</ele>
  <time>2026-08-27T18:30:16Z</time>
  <course>134.49</course>
  <speed>0.04</speed>
  <fix>3d</fix>
</trkpt>
<trkpt lat="40.0727129" lon="-105.230884">
  <ele>1595.58</ele>
  <time>2026-08-27T18:30:16Z</time>
  <course>331.98</course>
  <speed>0.022360679774997897</speed>
  <fix>3d</fix>
</trkpt>
<trkpt lat="40.0727129" lon="-105.2308837">
  <ele>1595.5</ele>
  <time>2026-08-27T18:30:16Z</time>
  <course>135.47</course>
  <speed>0.04</speed>
  <fix>3d</fix>
</trkpt>
<trkpt lat="40.0727129" lon="-105.2308839">
  <ele>1595.58</ele>
  <time>2026-08-27T18:30:16Z</time>
  <course>331.97</course>
  <speed>0.022360679774997897</speed>
  <fix>3d</fix>
</trkpt>
<trkpt lat="40.0727128" lon="-105.2308836">
  <ele>1595.5</ele>
  <time>2026-08-27T18:30:16Z</time>
  <course>136.14</course>
  <speed>0.04</speed>
  <fix>3d</fix>
</trkpt>
<trkpt lat="40.0727128" lon="-105.2308838">
  <ele>1595.57</ele>
  <time>2026-08-27T18:30:16Z</time>
  <course>331.97</course>
  <speed>0.0316227766016838</speed>
  <fix>3d</fix>
</trkpt>
<trkpt lat="40.0727127" lon="-105.2308836">
  <ele>1595.49</ele>
  <time>2026-08-27T18:30:16Z</time>
  <course>136.55</course>
  <speed>0.05</speed>
  <fix>3d</fix>
</trkpt>
<trkpt lat="40.0727127" lon="-105.2308837">
  <ele>1595.56</ele>
  <time>2026-08-27T18:30:16Z</time>
  <course>331.97</course>
  <speed>0.0316227766016838</speed>
  <fix>3d</fix>
</trkpt>
<trkpt lat="40.0727126" lon="-105.2308835">
  <ele>1595.49</ele>
  <time>2026-08-27T18:30:16Z</time>
  <course>137.13</course>
  <speed>0.05</speed>
  <fix>3d</fix>
</trkpt>
<trkpt lat="40.0727126" lon="-105.2308836">
  <ele>1595.56</ele>
  <time>2026-08-27T18:30:16Z</time>
  <course>331.97</course>
  <speed>0.0316227766016838</speed>
  <fix>3d</fix>
</trkpt>
<trkpt lat="40.0727126" lon="-105.2308834">
  <ele>1595.49</ele>
  <time>2026-08-27T18:30:16Z</time>
  <course>137.71</course>
  <speed>0.05</speed>
  <fix>3d</fix>
</trkpt>
<trkpt lat="40.0727126" lon="-105.2308835">
  <ele>1595.56</ele>
  <time>2026-08-27T18:30:16Z</time>
  <course>331.94</course>
  <speed>0.0316227766016838</speed>
  <fix>3d</fix>
</trkpt>
<trkpt lat="40.0727125" lon="-105.2308833">
  <ele>1595.49</ele>
  <time>2026-08-27T18:30:16Z</time>
  <course>138.11</course>
  <speed>0.05</speed>
  <fix>3d</fix>
</trkpt>
<trkpt lat="40.0727125" lon="-105.2308835">
  <ele>1595.56</ele>
  <time>2026-08-27T18:30:16Z</time>
  <course>331.96</course>
  <speed>0.0316227766016838</speed>
  <fix>3d</fix>
</trkpt>
<trkpt lat="40.0727124" lon="-105.2308832">
  <ele>1595.49</ele>
  <time>2026-08-27T18:30:16Z</time>
  <course>138.85</course>
  <speed>0.05</speed>
  <fix>3d</fix>
</trkpt>
<trkpt lat="40.0727124" lon="-105.2308834">
  <ele>1595.56</ele>
  <time>2026-08-27T18:30:16Z</time>
  <course>332.0</course>
  <speed>0.0316227766016838</speed>
  <fix>3d</fix>
</trkpt>
<trkpt lat="40.0727124" lon="-105.2308831">
  <ele>1595.49</ele>
  <time>2026-08-27T18:30:16Z</time>
  <course>139.87</course>
  <speed>0.05</speed>
  <fix>3d</fix>
</trkpt>
<trkpt lat="40.0727124" lon="-105.2308833">
  <ele>1595.57</ele>
  <time>2026-08-27T18:30:16Z</time>
  <course>331.96</course>
  <speed>0.0</speed>
  <fix>3d</fix>
</trkpt>
<trkpt lat="40.0727123" lon="-105.2308831">
  <ele>1595.5</ele>
  <time>2026-08-27T18:30:16Z</time>
  <course>135.85</course>
  <speed>0.04</speed>
  <fix>3d</fix>
</trkpt>
<trkpt lat="40.0727124" lon="-105.2308833">
  <ele>1595.57</ele>
  <time>2026-08-27T18:30:16Z</time>
  <course>331.97</course>
  <speed>0.06082762530298219</speed>
  <fix>3d</fix>
</trkpt>
<trkpt lat="40.0727123" lon="-105.230883">
  <ele>1595.5</ele>
  <time>2026-08-27T18:30:16Z</time>
  <course>46.9</course>
  <speed>0.01</speed>
  <fix>3d</fix>
</trkpt>
<trkpt lat="40.0727124" lon="-105.2308833">
  <ele>1595.57</ele>
  <time>2026-08-27T18:30:16Z</time>
  <course>331.98</course>
  <speed>0.03605551275463989</speed>
  <fix>3d</fix>
</trkpt>
<trkpt lat="40.0727123" lon="-105.2308829">
  <ele>1595.5</ele>
  <time>2026-08-27T18:30:16Z</time>
  <course>2.05</course>
  <speed>0.04</speed>
  <fix>3d</fix>
</trkpt>
<trkpt lat="40.0727124" lon="-105.2308833">
  <ele>1595.57</ele>
  <time>2026-08-27T18:30:16Z</time>
  <course>332.0</course>
  <speed>0.0282842712474619</speed>
  <fix>3d</fix>
</trkpt>
<trkpt lat="40.0727124" lon="-105.230883">
  <ele>1595.51</ele>
  <time>2026-08-27T18:30:16Z</time>
  <course>348.05</course>
  <speed>0.02</speed>
  <fix>3d</fix>
</trkpt>
<trkpt lat="40.0727125" lon="-105.2308833">
  <ele>1595.57</ele>
  <time>2026-08-27T18:30:16Z</time>
  <course>332.01</course>
  <speed>0.03605551275463989</speed>
  <fix>3d</fix>
</trkpt>
<trkpt lat="40.0727124" lon="-105.2308831">
  <ele>1595.51</ele>
  <time>2026-08-27T18:30:16Z</time>
  <course>344.9</course>
  <speed>0.02</speed>
  <fix>3d</fix>
</trkpt>
<trkpt lat="40.0727125" lon="-105.2308833">
  <ele>1595.57</ele>
  <time>2026-08-27T18:30:16Z</time>
  <course>331.99</course>
  <speed>0.01</speed>
  <fix>3d</fix>
</trkpt>
<trkpt lat="40.0727124" lon="-105.2308831">
  <ele>1595.51</ele>
  <time>2026-08-27T18:30:16Z</time>
  <course>358.45</course>
  <speed>0.01</speed>
  <fix>3d</fix>
</trkpt>
<trkpt lat="40.0727125" lon="-105.2308833">
  <ele>1595.57</ele>
  <time>2026-08-27T18:30:16Z</time>
  <course>332.0</course>
  <speed>0.01</speed>
  <fix>3d</fix>
</trkpt>
<trkpt lat="40.0727124" lon="-105.2308831">
  <ele>1595.51</ele>
  <time>2026-08-27T18:30:16Z</time>
  <course>135.48</course>
  <speed>0.0</speed>
  <fix>3d</fix>
</trkpt>
<trkpt lat="40.0727125" lon="-105.2308832">
  <ele>1595.58</ele>
  <time>2026-08-27T18:30:16Z</time>
  <course>332.01</course>
  <speed>0.0</speed>
  <fix>3d</fix>
</trkpt>
<trkpt lat="40.0727124" lon="-105.230883">
  <ele>1595.51</ele>
  <time>2026-08-27T18:30:16Z</time>
  <course>110.48</course>
  <speed>0.01</speed>
  <fix>3d</fix>
</trkpt>
<trkpt lat="40.0727125" lon="-105.2308832">
  <ele>1595.58</ele>
  <time>2026-08-27T18:30:16Z</time>
  <course>332.02</course>
  <speed>0.02</speed>
  <fix>3d</fix>
</trkpt>
<trkpt lat="40.0727124" lon="-105.2308829">
  <ele>1595.51</ele>
  <time>2026-08-27T18:30:16Z</time>
  <course>112.99</course>
  <speed>0.01</speed>
  <fix>3d</fix>
</trkpt>
<trkpt lat="40.0727125" lon="-105.2308832">
  <ele>1595.58</ele>
  <time>2026-08-27T18:30:16Z</time>
  <course>332.03</course>
  <speed>0.0</speed>
  <fix>3d</fix>
</trkpt>
<trkpt lat="40.0727124" lon="-105.2308829">
  <ele>1595.51</ele>
  <time>2026-08-27T18:30:16Z</time>
  <course>132.58</course>
  <speed>0.02</speed>
  <fix>3d</fix>
</trkpt>
<trkpt lat="40.0727125" lon="-105.2308831">
  <ele>1595.58</ele>
  <time>2026-08-27T18:30:16Z</time>
  <course>332.02</course>
  <speed>0.0</speed>
  <fix>3d</fix>
</trkpt>
<trkpt lat="40.0727124" lon="-105.2308829">
  <ele>1595.51</ele>
  <time>2026-08-27T18:30:16Z</time>
  <course>114.32</course>
  <speed>0.02</speed>
  <fix>3d</fix>
</trkpt>
<trkpt lat="40.0727124" lon="-105.230883">
  <ele>1595.57</ele>
  <time>2026-08-27T18:30:16Z</time>
  <course>332.02</course>
  <speed>0.02</speed>
  <fix>3d</fix>
</trkpt>
<trkpt lat="40.0727124" lon="-105.2308828">
  <ele>1595.51</ele>
  <time>2026-08-27T18:30:16Z</time>
  <course>122.47</course>
  <speed>0.03</speed>
  <fix>3d</fix>
</trkpt>
<trkpt lat="40.0727124" lon="-105.230883">
  <ele>1595.58</ele>
  <time>2026-08-27T18:30:16Z</time>
  <course>332.02</course>
  <speed>0.0</speed>
  <fix>3d</fix>
</trkpt>
<trkpt lat="40.0727124" lon="-105.2308827">
  <ele>1595.51</ele>
  <time>2026-08-27T18:30:16Z</time>
  <course>122.77</course>
  <speed>0.03</speed>
  <fix>3d</fix>
</trkpt>
<trkpt lat="40.0727124" lon="-105.2308829">
  <ele>1595.58</ele>
  <time>2026-08-27T18:30:16Z</time>
  <course>332.02</course>
  <speed>0.02</speed>
  <fix>3d</fix>
</trkpt>
<trkpt lat="40.0727123" lon="-105.2308827">
  <ele>1595.51</ele>
  <time>2026-08-27T18:30:16Z</time>
  <course>114.01</course>
  <speed>0.03</speed>
  <fix>3d</fix>
</trkpt>
<trkpt lat="40.0727123" lon="-105.2308828">
  <ele>1595.58</ele>
  <time>2026-08-27T18:30:16Z</time>
  <course>332.04</course>
  <speed>0.0</speed>
  <fix>3d</fix>
</trkpt>
<trkpt lat="40.0727123" lon="-105.2308826">
  <ele>1595.51</ele>
  <time>2026-08-27T18:30:16Z</time>
  <course>124.82</course>
  <speed>0.03</speed>
  <fix>3d</fix>
</trkpt>
<trkpt lat="40.0727123" lon="-105.2308828">
  <ele>1595.58</ele>
  <time>2026-08-27T18:30:16Z</time>
  <course>332.04</course>
  <speed>0.0</speed>
  <fix>3d</fix>
</trkpt>
<trkpt lat="40.0727123" lon="-105.2308826">
  <ele>1595.51</ele>
  <time>2026-08-27T18:30:16Z</time>
  <course>116.17</course>
  <speed>0.03</speed>
  <fix>3d</fix>
</trkpt>
<trkpt lat="40.0727123" lon="-105.2308827">
  <ele>1595.58</ele>
  <time>2026-08-27T18:30:16Z</time>
  <course>332.03</course>
  <speed>0.01</speed>
  <fix>3d</fix>
</trkpt>
<trkpt lat="40.0727123" lon="-105.2308825">
  <ele>1595.51</ele>
  <time>2026-08-27T18:30:16Z</time>
  <course>122.42</course>
  <speed>0.03</speed>
  <fix>3d</fix>
</trkpt>
<trkpt lat="40.0727123" lon="-105.2308827">
  <ele>1595.58</ele>
  <time>2026-08-27T18:30:16Z</time>
  <course>332.05</course>
  <speed>0.0</speed>
  <fix>3d</fix>
</trkpt>
<trkpt lat="40.0727122" lon="-105.2308824">
  <ele>1595.51</ele>
  <time>2026-08-27T18:30:16Z</time>
  <course>121.44</course>
  <speed>0.03</speed>
  <fix>3d</fix>
</trkpt>
<trkpt lat="40.0727123" lon="-105.2308826">
  <ele>1595.57</ele>
  <time>2026-08-27T18:30:16Z</time>
  <course>332.04</course>
  <speed>0.01</speed>
  <fix>3d</fix>
</trkpt>
<trkpt lat="40.0727122" lon="-105.2308824">
  <ele>1595.51</ele>
  <time>2026-08-27T18:30:16Z</time>
  <course>120.92</course>
  <speed>0.03</speed>
  <fix>3d</fix>
</trkpt>
<trkpt lat="40.0727122" lon="-105.2308825">
  <ele>1595.57</ele>
  <time>2026-08-27T18:30:16Z</time>
  <course>332.05</course>
  <speed>0.0</speed>
  <fix>3d</fix>
</trkpt>
<trkpt lat="40.0727122" lon="-105.2308823">
  <ele>1595.51</ele>
  <time>2026-08-27T18:30:16Z</time>
  <course>124.44</course>
  <speed>0.03</speed>
  <fix>3d</fix>
</trkpt>
<trkpt lat="40.0727122" lon="-105.2308825">
  <ele>1595.58</ele>
  <time>2026-08-27T18:30:16Z</time>
  <course>332.04</course>
  <speed>0.01</speed>
  <fix>3d</fix>
</trkpt>
<trkpt lat="40.0727121" lon="-105.2308822">
  <ele>1595.51</ele>
  <time>2026-08-27T18:30:16Z</time>
  <course>121.34</course>
  <speed>0.03</speed>
  <fix>3d</fix>
</trkpt>
<trkpt lat="40.0727122" lon="-105.2308824">
  <ele>1595.58</ele>
  <time>2026-08-27T18:30:16Z</time>
  <course>332.06</course>
  <speed>0.0</speed>
  <fix>3d</fix>
</trkpt>
<trkpt lat="40.072712" lon="-105.2308822">
  <ele>1595.51</ele>
  <time>2026-08-27T18:30:16Z</time>
  <course>125.01</course>
  <speed>0.03</speed>
  <fix>3d</fix>
</trkpt>
<trkpt lat="40.0727121" lon="-105.2308824">
  <ele>1595.57</ele>
  <time>2026-08-27T18:30:16Z</time>
  <course>332.06</course>
  <speed>0.01</speed>
  <fix>3d</fix>
</trkpt>
<trkpt lat="40.072712" lon="-105.2308821">
  <ele>1595.51</ele>
  <time>2026-08-27T18:30:16Z</time>
  <course>122.69</course>
  <speed>0.03</speed>
  <fix>3d</fix>
</trkpt>
<trkpt lat="40.0727121" lon="-105.2308823">
  <ele>1595.58</ele>
  <time>2026-08-27T18:30:16Z</time>
  <course>332.06</course>
  <speed>0.0</speed>
  <fix>3d</fix>
</trkpt>
<trkpt lat="40.072712" lon="-105.2308821">
  <ele>1595.51</ele>
  <time>2026-08-27T18:30:16Z</time>
  <course>124.66</course>
  <speed>0.03</speed>
  <fix>3d</fix>
</trkpt>
<trkpt lat="40.0727121" lon="-105.2308822">
  <ele>1595.58</ele>
  <time>2026-08-27T18:30:16Z</time>
  <course>332.06</course>
  <speed>0.01</speed>
  <fix>3d</fix>
</trkpt>
<trkpt lat="40.0727119" lon="-105.230882">
  <ele>1595.51</ele>
  <time>2026-08-27T18:30:16Z</time>
  <course>123.61</course>
  <speed>0.03</speed>
  <fix>3d</fix>
</trkpt>
<trkpt lat="40.072712" lon="-105.2308822">
  <ele>1595.58</ele>
  <time>2026-08-27T18:30:16Z</time>
  <course>332.06</course>
  <speed>0.0</speed>
  <fix>3d</fix>
</trkpt>
<trkpt lat="40.0727119" lon="-105.2308819">
  <ele>1595.51</ele>
  <time>2026-08-27T18:30:16Z</time>
  <course>124.04</course>
  <speed>0.03</speed>
  <fix>3d</fix>
</trkpt>
<trkpt lat="40.072712" lon="-105.2308821">
  <ele>1595.58</ele>
  <time>2026-08-27T18:30:16Z</time>
  <course>332.07</course>
  <speed>0.01</speed>
  <fix>3d</fix>
</trkpt>
<trkpt lat="40.0727119" lon="-105.2308819">
  <ele>1595.51</ele>
  <time>2026-08-27T18:30:16Z</time>
  <course>124.29</course>
  <speed>0.03</speed>
  <fix>3d</fix>
</trkpt>
<trkpt lat="40.072712" lon="-105.2308821">
  <ele>1595.58</ele>
  <time>2026-08-27T18:30:16Z</time>
  <course>332.08</course>
  <speed>0.0</speed>
  <fix>3d</fix>
</trkpt>
<trkpt lat="40.0727119" lon="-105.2308818">
  <ele>1595.51</ele>
  <time>2026-08-27T18:30:16Z</time>
  <course>122.83</course>
  <speed>0.03</speed>
  <fix>3d</fix>
</trkpt>
<trkpt lat="40.0727119" lon="-105.230882">
  <ele>1595.58</ele>
  <time>2026-08-27T18:30:16Z</time>
  <course>332.05</course>
  <speed>0.01</speed>
  <fix>3d</fix>
</trkpt>
<trkpt lat="40.0727119" lon="-105.2308817">
  <ele>1595.51</ele>
  <time>2026-08-27T18:30:16Z</time>
  <course>123.75</course>
  <speed>0.03</speed>
  <fix>3d</fix>
</trkpt>
<trkpt lat="40.0727119" lon="-105.2308819">
  <ele>1595.58</ele>
  <time>2026-08-27T18:30:16Z</time>
  <course>332.1</course>
  <speed>0.0</speed>
  <fix>3d</fix>
</trkpt>
<trkpt lat="40.0727119" lon="-105.2308817">
  <ele>1595.51</ele>
  <time>2026-08-27T18:30:16Z</time>
  <course>121.55</course>
  <speed>0.03</speed>
  <fix>3d</fix>
</trkpt>
<trkpt lat="40.0727119" lon="-105.2308819">
  <ele>1595.58</ele>
  <time>2026-08-27T18:30:16Z</time>
  <course>332.05</course>
  <speed>0.01</speed>
  <fix>3d</fix>
</trkpt>
<trkpt lat="40.0727118" lon="-105.2308816">
  <ele>1595.51</ele>
  <time>2026-08-27T18:30:16Z</time>
  <course>123.06</course>
  <speed>0.03</speed>
  <fix>3d</fix>
</trkpt>
<trkpt lat="40.0727119" lon="-105.2308818">
  <ele>1595.58</ele>
  <time>2026-08-27T18:30:16Z</time>
  <course>332.11</course>
  <speed>0.0</speed>
  <fix>3d</fix>
</trkpt>
<trkpt lat="40.0727118" lon="-105.2308815">
  <ele>1595.51</ele>
  <time>2026-08-27T18:30:16Z</time>
  <course>121.16</course>
  <speed>0.03</speed>
  <fix>3d</fix>
</trkpt>
<trkpt lat="40.0727118" lon="-105.2308817">
  <ele>1595.58</ele>
  <time>2026-08-27T18:30:16Z</time>
  <course>332.07</course>
  <speed>0.01</speed>
  <fix>3d</fix>
</trkpt>
<trkpt lat="40.0727118" lon="-105.2308815">
  <ele>1595.51</ele>
  <time>2026-08-27T18:30:16Z</time>
  <course>122.45</course>
  <speed>0.03</speed>
  <fix>3d</fix>
</trkpt>
<trkpt lat="40.0727118" lon="-105.2308817">
  <ele>1595.59</ele>
  <time>2026-08-27T18:30:16Z</time>
  <course>332.1</course>
  <speed>0.01</speed>
  <fix>3d</fix>
</trkpt>
<trkpt lat="40.0727117" lon="-105.2308814">
  <ele>1595.51</ele>
  <time>2026-08-27T18:30:16Z</time>
  <course>123.52</course>
  <speed>0.03</speed>
  <fix>3d</fix>
</trkpt>
<trkpt lat="40.0727118" lon="-105.2308816">
  <ele>1595.59</ele>
  <time>2026-08-27T18:30:16Z</time>
  <course>332.09</course>
  <speed>0.0</speed>
  <fix>3d</fix>
</trkpt>
<trkpt lat="40.0727117" lon="-105.2308814">
  <ele>1595.51</ele>
  <time>2026-08-27T18:30:16Z</time>
  <course>121.27</course>
  <speed>0.03</speed>
  <fix>3d</fix>
</trkpt>
<trkpt lat="40.0727117" lon="-105.2308815">
  <ele>1595.6</ele>
  <time>2026-08-27T18:30:16Z</time>
  <course>332.11</course>
  <speed>0.01</speed>
  <fix>3d</fix>
</trkpt>
<trkpt lat="40.0727117" lon="-105.2308813">
  <ele>1595.5</ele>
  <time>2026-08-27T18:30:16Z</time>
  <course>125.82</course>
  <speed>0.03</speed>
  <fix>3d</fix>
</trkpt>
<trkpt lat="40.0727117" lon="-105.2308815">
  <ele>1595.59</ele>
  <time>2026-08-27T18:30:16Z</time>
  <course>332.15</course>
  <speed>0.0</speed>
  <fix>3d</fix>
</trkpt>
<trkpt lat="40.0727116" lon="-105.2308812">
  <ele>1595.5</ele>
  <time>2026-08-27T18:30:16Z</time>
  <course>120.89</course>
  <speed>0.03</speed>
  <fix>3d</fix>
</trkpt>
<trkpt lat="40.0727117" lon="-105.2308814">
  <ele>1595.59</ele>
  <time>2026-08-27T18:30:16Z</time>
  <course>332.11</course>
  <speed>0.01</speed>
  <fix>3d</fix>
</trkpt>
<trkpt lat="40.0727116" lon="-105.2308812">
  <ele>1595.5</ele>
  <time>2026-08-27T18:30:16Z</time>
  <course>124.1</course>
  <speed>0.03</speed>
  <fix>3d</fix>
</trkpt>
<trkpt lat="40.0727117" lon="-105.2308814">
  <ele>1595.58</ele>
  <time>2026-08-27T18:30:16Z</time>
  <course>332.12</course>
  <speed>0.01</speed>
  <fix>3d</fix>
</trkpt>
<trkpt lat="40.0727116" lon="-105.2308811">
  <ele>1595.49</ele>
  <time>2026-08-27T18:30:16Z</time>
  <course>124.04</course>
  <speed>0.03</speed>
  <fix>3d</fix>
</trkpt>
<trkpt lat="40.0727116" lon="-105.2308813">
  <ele>1595.58</ele>
  <time>2026-08-27T18:30:16Z</time>
  <course>332.14</course>
  <speed>0.0</speed>
  <fix>3d</fix>
</trkpt>
<trkpt lat="40.0727115" lon="-105.230881">
  <ele>1595.49</ele>
  <time>2026-08-27T18:30:16Z</time>
  <course>119.88</course>
  <speed>0.03</speed>
  <fix>3d</fix>
</trkpt>
<trkpt lat="40.0727116" lon="-105.2308812">
  <ele>1595.59</ele>
  <time>2026-08-27T18:30:16Z</time>
  <course>332.1</course>
  <speed>0.01</speed>
  <fix>3d</fix>
</trkpt>
<trkpt lat="40.0727114" lon="-105.230881">
  <ele>1595.48</ele>
  <time>2026-08-27T18:30:16Z</time>
  <course>125.11</course>
  <speed>0.03</speed>
  <fix>3d</fix>
</trkpt>
<trkpt lat="40.0727116" lon="-105.2308812">
  <ele>1595.59</ele>
  <time>2026-08-27T18:30:16Z</time>
  <course>332.15</course>
  <speed>0.01</speed>
  <fix>3d</fix>
</trkpt>
<trkpt lat="40.0727114" lon="-105.2308809">
  <ele>1595.48</ele>
  <time>2026-08-27T18:30:16Z</time>
  <course>122.05</course>
  <speed>0.03</speed>
  <fix>3d</fix>
</trkpt>
<trkpt lat="40.0727115" lon="-105.2308811">
  <ele>1595.58</ele>
  <time>2026-08-27T18:30:16Z</time>
  <course>332.14</course>
  <speed>0.0</speed>
  <fix>3d</fix>
</trkpt>
<trkpt lat="40.0727114" lon="-105.2308808">
  <ele>1595.48</ele>
  <time>2026-08-27T18:30:16Z</time>
  <course>119.2</course>
  <speed>0.03</speed>
  <fix>3d</fix>
</trkpt>
<trkpt lat="40.0727115" lon="-105.230881">
  <ele>1595.58</ele>
  <time>2026-08-27T18:30:16Z</time>
  <course>332.11</course>
  <speed>0.01</speed>
  <fix>3d</fix>
</trkpt>
<trkpt lat="40.0727114" lon="-105.2308808">
  <ele>1595.48</ele>
  <time>2026-08-27T18:30:16Z</time>
  <course>124.73</course>
  <speed>0.03</speed>
  <fix>3d</fix>
</trkpt>
<trkpt lat="40.0727115" lon="-105.230881">
  <ele>1595.57</ele>
  <time>2026-08-27T18:30:16Z</time>
  <course>332.14</course>
  <speed>0.01</speed>
  <fix>3d</fix>
</trkpt>
<trkpt lat="40.0727113" lon="-105.2308808">
  <ele>1595.47</ele>
  <time>2026-08-27T18:30:16Z</time>
  <course>122.37</course>
  <speed>0.03</speed>
  <fix>3d</fix>
</trkpt>
<trkpt lat="40.0727114" lon="-105.2308809">
  <ele>1595.57</ele>
  <time>2026-08-27T18:30:16Z</time>
  <course>332.13</course>
  <speed>0.0</speed>
  <fix>3d</fix>
</trkpt>
<trkpt lat="40.0727113" lon="-105.2308807">
  <ele>1595.47</ele>
  <time>2026-08-27T18:30:16Z</time>
  <course>118.15</course>
  <speed>0.03</speed>
  <fix>3d</fix>
</trkpt>
<trkpt lat="40.0727114" lon="-105.2308808">
  <ele>1595.57</ele>
  <time>2026-08-27T18:30:16Z</time>
  <course>332.08</course>
  <speed>0.0</speed>
  <fix>3d</fix>
</trkpt>
<trkpt lat="40.0727113" lon="-105.2308806">
  <ele>1595.47</ele>
  <time>2026-08-27T18:30:16Z</time>
  <course>122.41</course>
  <speed>0.02</speed>
  <fix>3d</fix>
</trkpt>
<trkpt lat="40.0727114" lon="-105.2308808">
  <ele>1595.56</ele>
  <time>2026-08-27T18:30:16Z</time>
  <course>332.06</course>
  <speed>0.01</speed>
  <fix>3d</fix>
</trkpt>
<trkpt lat="40.0727113" lon="-105.2308805">
  <ele>1595.47</ele>
  <time>2026-08-27T18:30:16Z</time>
  <course>124.56</course>
  <speed>0.02</speed>
  <fix>3d</fix>
</trkpt>
<trkpt lat="40.0727113" lon="-105.2308807">
  <ele>1595.56</ele>
  <time>2026-08-27T18:30:16Z</time>
  <course>332.09</course>
  <speed>0.0</speed>
  <fix>3d</fix>
</trkpt>
<trkpt lat="40.0727113" lon="-105.2308805">
  <ele>1595.47</ele>
  <time>2026-08-27T18:30:16Z</time>
  <course>120.29</course>
  <speed>0.03</speed>
  <fix>3d</fix>
</trkpt>
<trkpt lat="40.0727113" lon="-105.2308807">
  <ele>1595.56</ele>
  <time>2026-08-27T18:30:16Z</time>
  <course>332.09</course>
  <speed>0.0</speed>
  <fix>3d</fix>
</trkpt>
<trkpt lat="40.0727113" lon="-105.2308805">
  <ele>1595.47</ele>
  <time>2026-08-27T18:30:16Z</time>
  <course>119.35</course>
  <speed>0.03</speed>
  <fix>3d</fix>
</trkpt>
<trkpt lat="40.0727113" lon="-105.2308806">
  <ele>1595.56</ele>
  <time>2026-08-27T18:30:16Z</time>
  <course>332.07</course>
  <speed>0.0</speed>
  <fix>3d</fix>
</trkpt>
<trkpt lat="40.0727112" lon="-105.2308804">
  <ele>1595.47</ele>
  <time>2026-08-27T18:30:16Z</time>
  <course>122.95</course>
  <speed>0.02</speed>
  <fix>3d</fix>
</trkpt>
<trkpt lat="40.0727113" lon="-105.2308806">
  <ele>1595.56</ele>
  <time>2026-08-27T18:30:16Z</time>
  <course>332.06</course>
  <speed>0.0</speed>
  <fix>3d</fix>
</trkpt>
<trkpt lat="40.0727112" lon="-105.2308803">
  <ele>1595.48</ele>
  <time>2026-08-27T18:30:16Z</time>
  <course>124.71</course>
  <speed>0.02</speed>
  <fix>3d</fix>
</trkpt>
<trkpt lat="40.0727112" lon="-105.2308805">
  <ele>1595.56</ele>
  <time>2026-08-27T18:30:17Z</time>
  <course>332.06</course>
  <speed>0.0</speed>
  <fix>3d</fix>
</trkpt>
<trkpt lat="40.0727112" lon="-105.2308803">
  <ele>1595.48</ele>
  <time>2026-08-27T18:30:17Z</time>
  <course>123.08</course>
  <speed>0.02</speed>
  <fix>3d</fix>
</trkpt>
<trkpt lat="40.0727112" lon="-105.2308804">
  <ele>1595.56</ele>
  <time>2026-08-27T18:30:17Z</time>
  <course>332.07</course>
  <speed>0.0</speed>
  <fix>3d</fix>
</trkpt>
<trkpt lat="40.0727111" lon="-105.2308802">
  <ele>1595.48</ele>
  <time>2026-08-27T18:30:17Z</time>
  <course>121.0</course>
  <speed>0.03</speed>
  <fix>3d</fix>
</trkpt>
<trkpt lat="40.0727112" lon="-105.2308804">
  <ele>1595.57</ele>
  <time>2026-08-27T18:30:17Z</time>
  <course>332.09</course>
  <speed>0.0</speed>
  <fix>3d</fix>
</trkpt>
<trkpt lat="40.0727111" lon="-105.2308802">
  <ele>1595.49</ele>
  <time>2026-08-27T18:30:17Z</time>
  <course>121.22</course>
  <speed>0.03</speed>
  <fix>3d</fix>
</trkpt>
<trkpt lat="40.0727112" lon="-105.2308803">
  <ele>1595.57</ele>
  <time>2026-08-27T18:30:17Z</time>
  <course>332.11</course>
  <speed>0.0</speed>
  <fix>3d</fix>
</trkpt>
<trkpt lat="40.0727111" lon="-105.2308801">
  <ele>1595.49</ele>
  <time>2026-08-27T18:30:17Z</time>
  <course>123.24</course>
  <speed>0.03</speed>
  <fix>3d</fix>
</trkpt>
<trkpt lat="40.0727111" lon="-105.2308803">
  <ele>1595.57</ele>
  <time>2026-08-27T18:30:17Z</time>
  <course>332.11</course>
  <speed>0.0</speed>
  <fix>3d</fix>
</trkpt>
<trkpt lat="40.0727111" lon="-105.23088">
  <ele>1595.49</ele>
  <time>2026-08-27T18:30:17Z</time>
  <course>124.8</course>
  <speed>0.03</speed>
  <fix>3d</fix>
</trkpt>
<trkpt lat="40.0727111" lon="-105.2308802">
  <ele>1595.58</ele>
  <time>2026-08-27T18:30:17Z</time>
  <course>332.12</course>
  <speed>0.0</speed>
  <fix>3d</fix>
</trkpt>
<trkpt lat="40.072711" lon="-105.23088">
  <ele>1595.5</ele>
  <time>2026-08-27T18:30:17Z</time>
  <course>125.4</course>
  <speed>0.03</speed>
  <fix>3d</fix>
</trkpt>
<trkpt lat="40.0727111" lon="-105.2308802">
  <ele>1595.58</ele>
  <time>2026-08-27T18:30:17Z</time>
  <course>332.11</course>
  <speed>0.01</speed>
  <fix>3d</fix>
</trkpt>
<trkpt lat="40.072711" lon="-105.2308799">
  <ele>1595.5</ele>
  <time>2026-08-27T18:30:17Z</time>
  <course>125.42</course>
  <speed>0.03</speed>
  <fix>3d</fix>
</trkpt>
<trkpt lat="40.072711" lon="-105.2308801">
  <ele>1595.59</ele>
  <time>2026-08-27T18:30:17Z</time>
  <course>332.13</course>
  <speed>0.01</speed>
  <fix>3d</fix>
</trkpt>
<trkpt lat="40.072711" lon="-105.2308798">
  <ele>1595.5</ele>
  <time>2026-08-27T18:30:17Z</time>
  <course>125.23</course>
  <speed>0.03</speed>
  <fix>3d</fix>
</trkpt>
<trkpt lat="40.072711" lon="-105.23088">
  <ele>1595.59</ele>
  <time>2026-08-27T18:30:17Z</time>
  <course>332.15</course>
  <speed>0.01</speed>
  <fix>3d</fix>
</trkpt>
<trkpt lat="40.0727109" lon="-105.2308798">
  <ele>1595.5</ele>
  <time>2026-08-27T18:30:17Z</time>
  <course>124.71</course>
  <speed>0.03</speed>
  <fix>3d</fix>
</trkpt>
<trkpt lat="40.072711" lon="-105.23088">
  <ele>1595.59</ele>
  <time>2026-08-27T18:30:17Z</time>
  <course>332.16</course>
  <speed>0.01</speed>
  <fix>3d</fix>
</trkpt>
<trkpt lat="40.0727109" lon="-105.2308797">
  <ele>1595.49</ele>
  <time>2026-08-27T18:30:17Z</time>
  <course>123.95</course>
  <speed>0.03</speed>
  <fix>3d</fix>
</trkpt>
<trkpt lat="40.072711" lon="-105.2308799">
  <ele>1595.58</ele>
  <time>2026-08-27T18:30:17Z</time>
  <course>332.16</course>
  <speed>0.01</speed>
  <fix>3d</fix>
</trkpt>
<trkpt lat="40.0727109" lon="-105.2308796">
  <ele>1595.49</ele>
  <time>2026-08-27T18:30:17Z</time>
  <course>123.17</course>
  <speed>0.03</speed>
  <fix>3d</fix>
</trkpt>
<trkpt lat="40.0727109" lon="-105.2308798">
  <ele>1595.58</ele>
  <time>2026-08-27T18:30:17Z</time>
  <course>332.15</course>
  <speed>0.0</speed>
  <fix>3d</fix>
</trkpt>
<trkpt lat="40.0727108" lon="-105.2308796">
  <ele>1595.49</ele>
  <time>2026-08-27T18:30:17Z</time>
  <course>122.65</course>
  <speed>0.03</speed>
  <fix>3d</fix>
</trkpt>
<trkpt lat="40.0727109" lon="-105.2308798">
  <ele>1595.57</ele>
  <time>2026-08-27T18:30:17Z</time>
  <course>332.13</course>
  <speed>0.0</speed>
  <fix>3d</fix>
</trkpt>
<trkpt lat="40.0727107" lon="-105.2308796">
  <ele>1595.49</ele>
  <time>2026-08-27T18:30:17Z</time>
  <course>122.45</course>
  <speed>0.03</speed>
  <fix>3d</fix>
</trkpt>
<trkpt lat="40.0727109" lon="-105.2308797">
  <ele>1595.57</ele>
  <time>2026-08-27T18:30:17Z</time>
  <course>332.11</course>
  <speed>0.01</speed>
  <fix>3d</fix>
</trkpt>
<trkpt lat="40.0727107" lon="-105.2308795">
  <ele>1595.48</ele>
  <time>2026-08-27T18:30:17Z</time>
  <course>122.43</course>
  <speed>0.03</speed>
  <fix>3d</fix>
</trkpt>
<trkpt lat="40.0727108" lon="-105.2308797">
  <ele>1595.58</ele>
  <time>2026-08-27T18:30:17Z</time>
  <course>332.1</course>
  <speed>0.01</speed>
  <fix>3d</fix>
</trkpt>
<trkpt lat="40.0727107" lon="-105.2308794">
  <ele>1595.48</ele>
  <time>2026-08-27T18:30:17Z</time>
  <course>122.57</course>
  <speed>0.03</speed>
  <fix>3d</fix>
</trkpt>
<trkpt lat="40.0727108" lon="-105.2308796">
  <ele>1595.58</ele>
  <time>2026-08-27T18:30:17Z</time>
  <course>332.11</course>
  <speed>0.01</speed>
  <fix>3d</fix>
</trkpt>
<trkpt lat="40.0727106" lon="-105.2308793">
  <ele>1595.48</ele>
  <time>2026-08-27T18:30:17Z</time>
  <course>122.85</course>
  <speed>0.03</speed>
  <fix>3d</fix>
</trkpt>
<trkpt lat="40.0727107" lon="-105.2308795">
  <ele>1595.59</ele>
  <time>2026-08-27T18:30:17Z</time>
  <course>332.13</course>
  <speed>0.01</speed>
  <fix>3d</fix>
</trkpt>
<trkpt lat="40.0727106" lon="-105.2308793">
  <ele>1595.48</ele>
  <time>2026-08-27T18:30:17Z</time>
  <course>123.12</course>
  <speed>0.03</speed>
  <fix>3d</fix>
</trkpt>
<trkpt lat="40.0727107" lon="-105.2308795">
  <ele>1595.59</ele>
  <time>2026-08-27T18:30:17Z</time>
  <course>332.15</course>
  <speed>0.01</speed>
  <fix>3d</fix>
</trkpt>
<trkpt lat="40.0727106" lon="-105.2308792">
  <ele>1595.48</ele>
  <time>2026-08-27T18:30:17Z</time>
  <course>123.01</course>
  <speed>0.03</speed>
  <fix>3d</fix>
</trkpt>
<trkpt lat="40.0727107" lon="-105.2308794">
  <ele>1595.59</ele>
  <time>2026-08-27T18:30:17Z</time>
  <course>332.15</course>
  <speed>0.01</speed>
  <fix>3d</fix>
</trkpt>
<trkpt lat="40.0727106" lon="-105.2308791">
  <ele>1595.48</ele>
  <time>2026-08-27T18:30:17Z</time>
  <course>122.4</course>
  <speed>0.03</speed>
  <fix>3d</fix>
</trkpt>
<trkpt lat="40.0727106" lon="-105.2308793">
  <ele>1595.58</ele>
  <time>2026-08-27T18:30:17Z</time>
  <course>332.14</course>
  <speed>0.0</speed>
  <fix>3d</fix>
</trkpt>
<trkpt lat="40.0727106" lon="-105.2308791">
  <ele>1595.48</ele>
  <time>2026-08-27T18:30:17Z</time>
  <course>121.23</course>
  <speed>0.03</speed>
  <fix>3d</fix>
</trkpt>
<trkpt lat="40.0727106" lon="-105.2308793">
  <ele>1595.58</ele>
  <time>2026-08-27T18:30:17Z</time>
  <course>332.14</course>
  <speed>0.0</speed>
  <fix>3d</fix>
</trkpt>
<trkpt lat="40.0727106" lon="-105.230879">
  <ele>1595.47</ele>
  <time>2026-08-27T18:30:17Z</time>
  <course>120.29</course>
  <speed>0.03</speed>
  <fix>3d</fix>
</trkpt>
<trkpt lat="40.0727106" lon="-105.2308792">
  <ele>1595.58</ele>
  <time>2026-08-27T18:30:17Z</time>
  <course>332.15</course>
  <speed>0.0</speed>
  <fix>3d</fix>
</trkpt>
<trkpt lat="40.0727105" lon="-105.230879">
  <ele>1595.47</ele>
  <time>2026-08-27T18:30:17Z</time>
  <course>120.15</course>
  <speed>0.03</speed>
  <fix>3d</fix>
</trkpt>
<trkpt lat="40.0727106" lon="-105.2308791">
  <ele>1595.57</ele>
  <time>2026-08-27T18:30:17Z</time>
  <course>332.14</course>
  <speed>0.0</speed>
  <fix>3d</fix>
</trkpt>
<trkpt lat="40.0727105" lon="-105.2308789">
  <ele>1595.47</ele>
  <time>2026-08-27T18:30:17Z</time>
  <course>120.06</course>
  <speed>0.03</speed>
  <fix>3d</fix>
</trkpt>
<trkpt lat="40.0727105" lon="-105.2308791">
  <ele>1595.57</ele>
  <time>2026-08-27T18:30:17Z</time>
  <course>332.13</course>
  <speed>0.0</speed>
  <fix>3d</fix>
</trkpt>
<trkpt lat="40.0727105" lon="-105.2308788">
  <ele>1595.47</ele>
  <time>2026-08-27T18:30:17Z</time>
  <course>119.75</course>
  <speed>0.03</speed>
  <fix>3d</fix>
</trkpt>
<trkpt lat="40.0727105" lon="-105.230879">
  <ele>1595.57</ele>
  <time>2026-08-27T18:30:17Z</time>
  <course>332.11</course>
  <speed>0.0</speed>
  <fix>3d</fix>
</trkpt>
<trkpt lat="40.0727104" lon="-105.2308788">
  <ele>1595.47</ele>
  <time>2026-08-27T18:30:17Z</time>
  <course>119.29</course>
  <speed>0.03</speed>
  <fix>3d</fix>
</trkpt>
<trkpt lat="40.0727105" lon="-105.2308789">
  <ele>1595.56</ele>
  <time>2026-08-27T18:30:17Z</time>
  <course>332.11</course>
  <speed>0.0</speed>
  <fix>3d</fix>
</trkpt>
<trkpt lat="40.0727104" lon="-105.2308787">
  <ele>1595.46</ele>
  <time>2026-08-27T18:30:17Z</time>
  <course>119.25</course>
  <speed>0.03</speed>
  <fix>3d</fix>
</trkpt>
<trkpt lat="40.0727105" lon="-105.2308789">
  <ele>1595.56</ele>
  <time>2026-08-27T18:30:17Z</time>
  <course>332.11</course>
  <speed>0.0</speed>
  <fix>3d</fix>
</trkpt>
<trkpt lat="40.0727104" lon="-105.2308786">
  <ele>1595.46</ele>
  <time>2026-08-27T18:30:17Z</time>
  <course>119.68</course>
  <speed>0.03</speed>
  <fix>3d</fix>
</trkpt>
<trkpt lat="40.0727104" lon="-105.2308788">
  <ele>1595.57</ele>
  <time>2026-08-27T18:30:17Z</time>
  <course>332.11</course>
  <speed>0.0</speed>
  <fix>3d</fix>
</trkpt>
<trkpt lat="40.0727104" lon="-105.2308786">
  <ele>1595.47</ele>
  <time>2026-08-27T18:30:17Z</time>
  <course>120.31</course>
  <speed>0.03</speed>
  <fix>3d</fix>
</trkpt>
<trkpt lat="40.0727104" lon="-105.2308788">
  <ele>1595.57</ele>
  <time>2026-08-27T18:30:17Z</time>
  <course>332.13</course>
  <speed>0.01</speed>
  <fix>3d</fix>
</trkpt>
<trkpt lat="40.0727103" lon="-105.2308785">
  <ele>1595.47</ele>
  <time>2026-08-27T18:30:17Z</time>
  <course>121.72</course>
  <speed>0.03</speed>
  <fix>3d</fix>
</trkpt>
<trkpt lat="40.0727104" lon="-105.2308787">
  <ele>1595.57</ele>
  <time>2026-08-27T18:30:17Z</time>
  <course>332.13</course>
  <speed>0.01</speed>
  <fix>3d</fix>
</trkpt>
<trkpt lat="40.0727103" lon="-105.2308784">
  <ele>1595.47</ele>
  <time>2026-08-27T18:30:17Z</time>
  <course>123.26</course>
  <speed>0.03</speed>
  <fix>3d</fix>
</trkpt>
<trkpt lat="40.0727103" lon="-105.2308786">
  <ele>1595.57</ele>
  <time>2026-08-27T18:30:17Z</time>
  <course>332.12</course>
  <speed>0.01</speed>
  <fix>3d</fix>
</trkpt>
<trkpt lat="40.0727103" lon="-105.2308784">
  <ele>1595.47</ele>
  <time>2026-08-27T18:30:17Z</time>
  <course>123.79</course>
  <speed>0.03</speed>
  <fix>3d</fix>
</trkpt>
<trkpt lat="40.0727103" lon="-105.2308786">
  <ele>1595.56</ele>
  <time>2026-08-27T18:30:17Z</time>
  <course>332.12</course>
  <speed>0.01</speed>
  <fix>3d</fix>
</trkpt>
<trkpt lat="40.0727102" lon="-105.2308784">
  <ele>1595.47</ele>
  <time>2026-08-27T18:30:17Z</time>
  <course>123.45</course>
  <speed>0.03</speed>
  <fix>3d</fix>
</trkpt>
<trkpt lat="40.0727103" lon="-105.2308785">
  <ele>1595.56</ele>
  <time>2026-08-27T18:30:17Z</time>
  <course>332.12</course>
  <speed>0.01</speed>
  <fix>3d</fix>
</trkpt>
<trkpt lat="40.0727101" lon="-105.2308783">
  <ele>1595.47</ele>
  <time>2026-08-27T18:30:17Z</time>
  <course>123.24</course>
  <speed>0.03</speed>
  <fix>3d</fix>
</trkpt>
<trkpt lat="40.0727102" lon="-105.2308784">
  <ele>1595.56</ele>
  <time>2026-08-27T18:30:17Z</time>
  <course>332.13</course>
  <speed>0.01</speed>
  <fix>3d</fix>
</trkpt>
<trkpt lat="40.0727101" lon="-105.2308782">
  <ele>1595.47</ele>
  <time>2026-08-27T18:30:17Z</time>
  <course>124.05</course>
  <speed>0.03</speed>
  <fix>3d</fix>
</trkpt>
<trkpt lat="40.0727102" lon="-105.2308784">
  <ele>1595.57</ele>
  <time>2026-08-27T18:30:17Z</time>
  <course>332.12</course>
  <speed>0.01</speed>
  <fix>3d</fix>
</trkpt>
<trkpt lat="40.0727101" lon="-105.2308781">
  <ele>1595.47</ele>
  <time>2026-08-27T18:30:17Z</time>
  <course>124.8</course>
  <speed>0.03</speed>
  <fix>3d</fix>
</trkpt>
<trkpt lat="40.0727102" lon="-105.2308783">
  <ele>1595.57</ele>
  <time>2026-08-27T18:30:17Z</time>
  <course>332.14</course>
  <speed>0.01</speed>
  <fix>3d</fix>
</trkpt>
<trkpt lat="40.07271" lon="-105.2308781">
  <ele>1595.48</ele>
  <time>2026-08-27T18:30:17Z</time>
  <course>124.87</course>
  <speed>0.03</speed>
  <fix>3d</fix>
</trkpt>
<trkpt lat="40.0727101" lon="-105.2308783">
  <ele>1595.57</ele>
  <time>2026-08-27T18:30:17Z</time>
  <course>332.13</course>
  <speed>0.01</speed>
  <fix>3d</fix>
</trkpt>
<trkpt lat="40.07271" lon="-105.230878">
  <ele>1595.48</ele>
  <time>2026-08-27T18:30:17Z</time>
  <course>124.79</course>
  <speed>0.03</speed>
  <fix>3d</fix>
</trkpt>
<trkpt lat="40.0727101" lon="-105.2308782">
  <ele>1595.57</ele>
  <time>2026-08-27T18:30:17Z</time>
  <course>332.13</course>
  <speed>0.01</speed>
  <fix>3d</fix>
</trkpt>
<trkpt lat="40.07271" lon="-105.2308779">
  <ele>1595.48</ele>
  <time>2026-08-27T18:30:17Z</time>
  <course>124.39</course>
  <speed>0.03</speed>
  <fix>3d</fix>
</trkpt>
<trkpt lat="40.07271" lon="-105.2308781">
  <ele>1595.57</ele>
  <time>2026-08-27T18:30:17Z</time>
  <course>332.14</course>
  <speed>0.01</speed>
  <fix>3d</fix>
</trkpt>
<trkpt lat="40.07271" lon="-105.2308779">
  <ele>1595.48</ele>
  <time>2026-08-27T18:30:17Z</time>
  <course>124.11</course>
  <speed>0.03</speed>
  <fix>3d</fix>
</trkpt>
<trkpt lat="40.07271" lon="-105.2308781">
  <ele>1595.58</ele>
  <time>2026-08-27T18:30:17Z</time>
  <course>332.14</course>
  <speed>0.0</speed>
  <fix>3d</fix>
</trkpt>
<trkpt lat="40.07271" lon="-105.2308778">
  <ele>1595.49</ele>
  <time>2026-08-27T18:30:17Z</time>
  <course>123.15</course>
  <speed>0.03</speed>
  <fix>3d</fix>
</trkpt>
<trkpt lat="40.07271" lon="-105.230878">
  <ele>1595.58</ele>
  <time>2026-08-27T18:30:17Z</time>
  <course>332.15</course>
  <speed>0.0</speed>
  <fix>3d</fix>
</trkpt>
<trkpt lat="40.0727099" lon="-105.2308778">
  <ele>1595.49</ele>
  <time>2026-08-27T18:30:17Z</time>
  <course>119.89</course>
  <speed>0.02</speed>
  <fix>3d</fix>
</trkpt>
<trkpt lat="40.07271" lon="-105.2308779">
  <ele>1595.58</ele>
  <time>2026-08-27T18:30:17Z</time>
  <course>332.15</course>
  <speed>0.0</speed>
  <fix>3d</fix>
</trkpt>
<trkpt lat="40.0727099" lon="-105.2308777">
  <ele>1595.49</ele>
  <time>2026-08-27T18:30:17Z</time>
  <course>117.21</course>
  <speed>0.02</speed>
  <fix>3d</fix>
</trkpt>
<trkpt lat="40.07271" lon="-105.2308779">
  <ele>1595.57</ele>
  <time>2026-08-27T18:30:17Z</time>
  <course>332.14</course>
  <speed>0.0</speed>
  <fix>3d</fix>
</trkpt>
<trkpt lat="40.0727099" lon="-105.2308776">
  <ele>1595.49</ele>
  <time>2026-08-27T18:30:17Z</time>
  <course>118.3</course>
  <speed>0.02</speed>
  <fix>3d</fix>
</trkpt>
<trkpt lat="40.0727099" lon="-105.2308778">
  <ele>1595.57</ele>
  <time>2026-08-27T18:30:17Z</time>
  <course>332.14</course>
  <speed>0.01</speed>
  <fix>3d</fix>
</trkpt>
<trkpt lat="40.0727099" lon="-105.2308776">
  <ele>1595.49</ele>
  <time>2026-08-27T18:30:17Z</time>
  <course>121.44</course>
  <speed>0.02</speed>
  <fix>3d</fix>
</trkpt>
<trkpt lat="40.0727099" lon="-105.2308778">
  <ele>1595.57</ele>
  <time>2026-08-27T18:30:17Z</time>
  <course>332.14</course>
  <speed>0.01</speed>
  <fix>3d</fix>
</trkpt>
<trkpt lat="40.0727098" lon="-105.2308775">
  <ele>1595.49</ele>
  <time>2026-08-27T18:30:17Z</time>
  <course>124.11</course>
  <speed>0.03</speed>
  <fix>3d</fix>
</trkpt>
<trkpt lat="40.0727099" lon="-105.2308777">
  <ele>1595.57</ele>
  <time>2026-08-27T18:30:17Z</time>
  <course>332.14</course>
  <speed>0.01</speed>
  <fix>3d</fix>
</trkpt>
<trkpt lat="40.0727098" lon="-105.2308774">
  <ele>1595.49</ele>
  <time>2026-08-27T18:30:17Z</time>
  <course>124.81</course>
  <speed>0.03</speed>
  <fix>3d</fix>
</trkpt>
<trkpt lat="40.0727098" lon="-105.2308776">
  <ele>1595.57</ele>
  <time>2026-08-27T18:30:17Z</time>
  <course>332.14</course>
  <speed>0.01</speed>
  <fix>3d</fix>
</trkpt>
<trkpt lat="40.0727098" lon="-105.2308774">
  <ele>1595.49</ele>
  <time>2026-08-27T18:30:17Z</time>
  <course>123.91</course>
  <speed>0.03</speed>
  <fix>3d</fix>
</trkpt>
<trkpt lat="40.0727098" lon="-105.2308776">
  <ele>1595.57</ele>
  <time>2026-08-27T18:30:17Z</time>
  <course>332.16</course>
  <speed>0.01</speed>
  <fix>3d</fix>
</trkpt>
<trkpt lat="40.0727097" lon="-105.2308774">
  <ele>1595.49</ele>
  <time>2026-08-27T18:30:17Z</time>
  <course>124.7</course>
  <speed>0.03</speed>
  <fix>3d</fix>
</trkpt>
<trkpt lat="40.0727098" lon="-105.2308775">
  <ele>1595.58</ele>
  <time>2026-08-27T18:30:17Z</time>
  <course>332.15</course>
  <speed>0.01</speed>
  <fix>3d</fix>
</trkpt>
<trkpt lat="40.0727097" lon="-105.2308773">
  <ele>1595.49</ele>
  <time>2026-08-27T18:30:17Z</time>
  <course>127.05</course>
  <speed>0.03</speed>
  <fix>3d</fix>
</trkpt>
<trkpt lat="40.0727097" lon="-105.2308774">
  <ele>1595.58</ele>
  <time>2026-08-27T18:30:17Z</time>
  <course>332.16</course>
  <speed>0.01</speed>
  <fix>3d</fix>
</trkpt>
<trkpt lat="40.0727097" lon="-105.2308772">
  <ele>1595.49</ele>
  <time>2026-08-27T18:30:17Z</time>
  <course>128.13</course>
  <speed>0.03</speed>
  <fix>3d</fix>
</trkpt>
<trkpt lat="40.0727097" lon="-105.2308774">
  <ele>1595.58</ele>
  <time>2026-08-27T18:30:17Z</time>
  <course>332.15</course>
  <speed>0.01</speed>
  <fix>3d</fix>
</trkpt>
<trkpt lat="40.0727096" lon="-105.2308772">
  <ele>1595.5</ele>
  <time>2026-08-27T18:30:17Z</time>
  <course>127.37</course>
  <speed>0.03</speed>
  <fix>3d</fix>
</trkpt>
<trkpt lat="40.0727097" lon="-105.2308773">
  <ele>1595.58</ele>
  <time>2026-08-27T18:30:17Z</time>
  <course>332.16</course>
  <speed>0.01</speed>
  <fix>3d</fix>
</trkpt>
<trkpt lat="40.0727095" lon="-105.2308771">
  <ele>1595.5</ele>
  <time>2026-08-27T18:30:17Z</time>
  <course>124.8</course>
  <speed>0.03</speed>
  <fix>3d</fix>
</trkpt>
<trkpt lat="40.0727096" lon="-105.2308773">
  <ele>1595.59</ele>
  <time>2026-08-27T18:30:17Z</time>
  <course>332.16</course>
  <speed>0.01</speed>
  <fix>3d</fix>
</trkpt>
<trkpt lat="40.0727095" lon="-105.230877">
  <ele>1595.49</ele>
  <time>2026-08-27T18:30:17Z</time>
  <course>122.74</course>
  <speed>0.03</speed>
  <fix>3d</fix>
</trkpt>
<trkpt lat="40.0727096" lon="-105.2308772">
  <ele>1595.59</ele>
  <time>2026-08-27T18:30:17Z</time>
  <course>332.17</course>
  <speed>0.01</speed>
  <fix>3d</fix>
</trkpt>
<trkpt lat="40.0727095" lon="-105.2308769">
  <ele>1595.49</ele>
  <time>2026-08-27T18:30:17Z</time>
  <course>123.83</course>
  <speed>0.03</speed>
  <fix>3d</fix>
</trkpt>
<trkpt lat="40.0727095" lon="-105.2308771">
  <ele>1595.59</ele>
  <time>2026-08-27T18:30:17Z</time>
  <course>332.16</course>
  <speed>0.01</speed>
  <fix>3d</fix>
</trkpt>
<trkpt lat="40.0727094" lon="-105.2308769">
  <ele>1595.49</ele>
  <time>2026-08-27T18:30:17Z</time>
  <course>124.14</course>
  <speed>0.03</speed>
  <fix>3d</fix>
</trkpt>
<trkpt lat="40.0727095" lon="-105.2308771">
  <ele>1595.59</ele>
  <time>2026-08-27T18:30:17Z</time>
  <course>332.15</course>
  <speed>0.0</speed>
  <fix>3d</fix>
</trkpt>
<trkpt lat="40.0727094" lon="-105.2308768">
  <ele>1595.49</ele>
  <time>2026-08-27T18:30:17Z</time>
  <course>121.35</course>
  <speed>0.03</speed>
  <fix>3d</fix>
</trkpt>
<trkpt lat="40.0727095" lon="-105.230877">
  <ele>1595.59</ele>
  <time>2026-08-27T18:30:17Z</time>
  <course>332.17</course>
  <speed>0.0</speed>
  <fix>3d</fix>
</trkpt>
<trkpt lat="40.0727094" lon="-105.2308767">
  <ele>1595.49</ele>
  <time>2026-08-27T18:30:17Z</time>
  <course>119.55</course>
  <speed>0.03</speed>
  <fix>3d</fix>
</trkpt>
<trkpt lat="40.0727095" lon="-105.2308769">
  <ele>1595.59</ele>
  <time>2026-08-27T18:30:17Z</time>
  <course>332.18</course>
  <speed>0.0</speed>
  <fix>3d</fix>
</trkpt>
<trkpt lat="40.0727094" lon="-105.2308767">
  <ele>1595.48</ele>
  <time>2026-08-27T18:30:17Z</time>
  <course>120.03</course>
  <speed>0.02</speed>
  <fix>3d</fix>
</trkpt>
<trkpt lat="40.0727094" lon="-105.2308769">
  <ele>1595.58</ele>
  <time>2026-08-27T18:30:17Z</time>
  <course>332.17</course>
  <speed>0.0</speed>
  <fix>3d</fix>
</trkpt>
<trkpt lat="40.0727094" lon="-105.2308766">
  <ele>1595.48</ele>
  <time>2026-08-27T18:30:17Z</time>
  <course>120.54</course>
  <speed>0.02</speed>
  <fix>3d</fix>
</trkpt>
<trkpt lat="40.0727094" lon="-105.2308768">
  <ele>1595.58</ele>
  <time>2026-08-27T18:30:17Z</time>
  <course>332.16</course>
  <speed>0.0</speed>
  <fix>3d</fix>
</trkpt>
<trkpt lat="40.0727093" lon="-105.2308766">
  <ele>1595.48</ele>
  <time>2026-08-27T18:30:17Z</time>
  <course>120.78</course>
  <speed>0.03</speed>
  <fix>3d</fix>
</trkpt>
<trkpt lat="40.0727094" lon="-105.2308767">
  <ele>1595.57</ele>
  <time>2026-08-27T18:30:17Z</time>
  <course>332.16</course>
  <speed>0.0</speed>
  <fix>3d</fix>
</trkpt>
<trkpt lat="40.0727093" lon="-105.2308765">
  <ele>1595.48</ele>
  <time>2026-08-27T18:30:17Z</time>
  <course>121.11</course>
  <speed>0.03</speed>
  <fix>3d</fix>
</trkpt>
<trkpt lat="40.0727093" lon="-105.2308767">
  <ele>1595.57</ele>
  <time>2026-08-27T18:30:17Z</time>
  <course>332.15</course>
  <speed>0.0</speed>
  <fix>3d</fix>
</trkpt>
<trkpt lat="40.0727093" lon="-105.2308764">
  <ele>1595.47</ele>
  <time>2026-08-27T18:30:17Z</time>
  <course>121.46</course>
  <speed>0.03</speed>
  <fix>3d</fix>
</trkpt>
<trkpt lat="40.0727093" lon="-105.2308766">
  <ele>1595.56</ele>
  <time>2026-08-27T18:30:17Z</time>
  <course>332.15</course>
  <speed>0.01</speed>
  <fix>3d</fix>
</trkpt>
<trkpt lat="40.0727093" lon="-105.2308764">
  <ele>1595.47</ele>
  <time>2026-08-27T18:30:17Z</time>
  <course>121.84</course>
  <speed>0.03</speed>
  <fix>3d</fix>
</trkpt>
<trkpt lat="40.0727093" lon="-105.2308766">
  <ele>1595.56</ele>
  <time>2026-08-27T18:30:17Z</time>
  <course>332.13</course>
  <speed>0.01</speed>
  <fix>3d</fix>
</trkpt>
<trkpt lat="40.0727092" lon="-105.2308763">
  <ele>1595.47</ele>
  <time>2026-08-27T18:30:17Z</time>
  <course>122.77</course>
  <speed>0.03</speed>
  <fix>3d</fix>
</trkpt>
<trkpt lat="40.0727093" lon="-105.2308765">
  <ele>1595.56</ele>
  <time>2026-08-27T18:30:17Z</time>
  <course>332.13</course>
  <speed>0.01</speed>
  <fix>3d</fix>
</trkpt>
<trkpt lat="40.0727092" lon="-105.2308762">
  <ele>1595.47</ele>
  <time>2026-08-27T18:30:17Z</time>
  <course>124.86</course>
  <speed>0.03</speed>
  <fix>3d</fix>
</trkpt>
<trkpt lat="40.0727092" lon="-105.2308764">
  <ele>1595.55</ele>
  <time>2026-08-27T18:30:17Z</time>
  <course>332.12</course>
  <speed>0.01</speed>
  <fix>3d</fix>
</trkpt>
<trkpt lat="40.0727092" lon="-105.2308762">
  <ele>1595.48</ele>
  <time>2026-08-27T18:30:17Z</time>
  <course>127.15</course>
  <speed>0.03</speed>
  <fix>3d</fix>
</trkpt>
<trkpt lat="40.0727092" lon="-105.2308764">
  <ele>1595.56</ele>
  <time>2026-08-27T18:30:17Z</time>
  <course>332.12</course>
  <speed>0.01</speed>
  <fix>3d</fix>
</trkpt>
<trkpt lat="40.0727091" lon="-105.2308761">
  <ele>1595.48</ele>
  <time>2026-08-27T18:30:17Z</time>
  <course>129.25</course>
  <speed>0.03</speed>
  <fix>3d</fix>
</trkpt>
<trkpt lat="40.0727091" lon="-105.2308763">
  <ele>1595.56</ele>
  <time>2026-08-27T18:30:17Z</time>
  <course>332.14</course>
  <speed>0.01</speed>
  <fix>3d</fix>
</trkpt>
<trkpt lat="40.0727091" lon="-105.230876">
  <ele>1595.48</ele>
  <time>2026-08-27T18:30:17Z</time>
  <course>131.23</course>
  <speed>0.03</speed>
  <fix>3d</fix>
</trkpt>
<trkpt lat="40.0727091" lon="-105.2308762">
  <ele>1595.57</ele>
  <time>2026-08-27T18:30:17Z</time>
  <course>332.14</course>
  <speed>0.02</speed>
  <fix>3d</fix>
</trkpt>
<trkpt lat="40.072709" lon="-105.230876">
  <ele>1595.49</ele>
  <time>2026-08-27T18:30:17Z</time>
  <course>132.73</course>
  <speed>0.04</speed>
  <fix>3d</fix>
</trkpt>
<trkpt lat="40.072709" lon="-105.2308761">
  <ele>1595.58</ele>
  <time>2026-08-27T18:30:17Z</time>
  <course>332.15</course>
  <speed>0.02</speed>
  <fix>3d</fix>
</trkpt>
<trkpt lat="40.0727089" lon="-105.2308759">
  <ele>1595.49</ele>
  <time>2026-08-27T18:30:17Z</time>
  <course>134.07</course>
  <speed>0.04</speed>
  <fix>3d</fix>
</trkpt>
<trkpt lat="40.072709" lon="-105.2308761">
  <ele>1595.59</ele>
  <time>2026-08-27T18:30:17Z</time>
  <course>332.16</course>
  <speed>0.02</speed>
  <fix>3d</fix>
</trkpt>
<trkpt lat="40.0727089" lon="-105.2308758">
  <ele>1595.5</ele>
  <time>2026-08-27T18:30:17Z</time>
  <course>135.62</course>
  <speed>0.04</speed>
  <fix>3d</fix>
</trkpt>
<trkpt lat="40.0727089" lon="-105.230876">
  <ele>1595.59</ele>
  <time>2026-08-27T18:30:17Z</time>
  <course>332.18</course>
  <speed>0.02</speed>
  <fix>3d</fix>
</trkpt>
<trkpt lat="40.0727088" lon="-105.2308757">
  <ele>1595.5</ele>
  <time>2026-08-27T18:30:17Z</time>
  <course>137.26</course>
  <speed>0.04</speed>
  <fix>3d</fix>
</trkpt>
<trkpt lat="40.0727089" lon="-105.2308759">
  <ele>1595.59</ele>
  <time>2026-08-27T18:30:17Z</time>
  <course>332.2</course>
  <speed>0.02</speed>
  <fix>3d</fix>
</trkpt>
<trkpt lat="40.0727088" lon="-105.2308757">
  <ele>1595.5</ele>
  <time>2026-08-27T18:30:17Z</time>
  <course>138.06</course>
  <speed>0.04</speed>
  <fix>3d</fix>
</trkpt>
<trkpt lat="40.0727088" lon="-105.2308758">
  <ele>1595.6</ele>
  <time>2026-08-27T18:30:17Z</time>
  <course>332.18</course>
  <speed>0.02</speed>
  <fix>3d</fix>
</trkpt>
<trkpt lat="40.0727087" lon="-105.2308756">
  <ele>1595.5</ele>
  <time>2026-08-27T18:30:17Z</time>
  <course>138.15</course>
  <speed>0.04</speed>
  <fix>3d</fix>
</trkpt>
<trkpt lat="40.0727087" lon="-105.2308758">
  <ele>1595.6</ele>
  <time>2026-08-27T18:30:17Z</time>
  <course>332.21</course>
  <speed>0.03</speed>
  <fix>3d</fix>
</trkpt>
<trkpt lat="40.0727087" lon="-105.2308755">
  <ele>1595.5</ele>
  <time>2026-08-27T18:30:17Z</time>
  <course>138.38</course>
  <speed>0.04</speed>
  <fix>3d</fix>
</trkpt>
<trkpt lat="40.0727086" lon="-105.2308757">
  <ele>1595.6</ele>
  <time>2026-08-27T18:30:17Z</time>
  <course>332.21</course>
  <speed>0.0316227766016838</speed>
  <fix>3d</fix>
</trkpt>
<trkpt lat="40.0727086" lon="-105.2308755">
  <ele>1595.49</ele>
  <time>2026-08-27T18:30:17Z</time>
  <course>138.6</course>
  <speed>0.05</speed>
  <fix>3d</fix>
</trkpt>
<trkpt lat="40.0727086" lon="-105.2308756">
  <ele>1595.59</ele>
  <time>2026-08-27T18:30:17Z</time>
  <course>332.17</course>
  <speed>0.0316227766016838</speed>
  <fix>3d</fix>
</trkpt>
<trkpt lat="40.0727085" lon="-105.2308754">
  <ele>1595.49</ele>
  <time>2026-08-27T18:30:17Z</time>
  <course>138.65</course>
  <speed>0.05</speed>
  <fix>3d</fix>
</trkpt>
<trkpt lat="40.0727085" lon="-105.2308755">
  <ele>1595.58</ele>
  <time>2026-08-27T18:30:17Z</time>
  <course>331.99</course>
  <speed>0.0316227766016838</speed>
  <fix>3d</fix>
</trkpt>
<trkpt lat="40.0727084" lon="-105.2308753">
  <ele>1595.48</ele>
  <time>2026-08-27T18:30:17Z</time>
  <course>137.92</course>
  <speed>0.05</speed>
  <fix>3d</fix>
</trkpt>
<trkpt lat="40.0727084" lon="-105.2308754">
  <ele>1595.57</ele>
  <time>2026-08-27T18:30:17Z</time>
  <course>330.23</course>
  <speed>0.0316227766016838</speed>
  <fix>3d</fix>
</trkpt>
<trkpt lat="40.0727083" lon="-105.2308752">
  <ele>1595.48</ele>
  <time>2026-08-27T18:30:17Z</time>
  <course>133.39</course>
  <speed>0.05</speed>
  <fix>3d</fix>
</trkpt>
<trkpt lat="40.0727084" lon="-105.2308754">
  <ele>1595.57</ele>
  <time>2026-08-27T18:30:17Z</time>
  <course>331.2</course>
  <speed>0.03</speed>
  <fix>3d</fix>
</trkpt>
<trkpt lat="40.0727083" lon="-105.2308751">
  <ele>1595.48</ele>
  <time>2026-08-27T18:30:17Z</time>
  <course>138.4</course>
  <speed>0.05</speed>
  <fix>3d</fix>
</trkpt>
<trkpt lat="40.0727083" lon="-105.2308753">
  <ele>1595.57</ele>
  <time>2026-08-27T18:30:17Z</time>
  <course>333.41</course>
  <speed>0.022360679774997897</speed>
  <fix>3d</fix>
</trkpt>
<trkpt lat="40.0727082" lon="-105.230875">
  <ele>1595.47</ele>
  <time>2026-08-27T18:30:17Z</time>
  <course>145.16</course>
  <speed>0.04</speed>
  <fix>3d</fix>
</trkpt>
<trkpt lat="40.0727082" lon="-105.2308752">
  <ele>1595.56</ele>
  <time>2026-08-27T18:30:17Z</time>
  <course>331.36</course>
  <speed>0.01414213562373095</speed>
  <fix>3d</fix>
</trkpt>
<trkpt lat="40.0727082" lon="-105.230875">
  <ele>1595.47</ele>
  <time>2026-08-27T18:30:17Z</time>
  <course>130.5</course>
  <speed>0.04</speed>
  <fix>3d</fix>
</trkpt>
<trkpt lat="40.0727082" lon="-105.2308751">
  <ele>1595.56</ele>
  <time>2026-08-27T18:30:17Z</time>
  <course>331.71</course>
  <speed>0.02</speed>
  <fix>3d</fix>
</trkpt>
<trkpt lat="40.0727081" lon="-105.2308749">
  <ele>1595.47</ele>
  <time>2026-08-27T18:30:17Z</time>
  <course>128.37</course>
  <speed>0.04</speed>
  <fix>3d</fix>
</trkpt>
<trkpt lat="40.0727081" lon="-105.2308751">
  <ele>1595.57</ele>
  <time>2026-08-27T18:30:17Z</time>
  <course>333.31</course>
  <speed>0.01</speed>
  <fix>3d</fix>
</trkpt>
<trkpt lat="40.0727081" lon="-105.2308748">
  <ele>1595.48</ele>
  <time>2026-08-27T18:30:17Z</time>
  <course>136.26</course>
  <speed>0.03</speed>
  <fix>3d</fix>
</trkpt>
<trkpt lat="40.0727081" lon="-105.230875">
  <ele>1595.57</ele>
  <time>2026-08-27T18:30:17Z</time>
  <course>331.2</course>
  <speed>0.01</speed>
  <fix>3d</fix>
</trkpt>
<trkpt lat="40.072708" lon="-105.2308747">
  <ele>1595.48</ele>
  <time>2026-08-27T18:30:17Z</time>
  <course>121.46</course>
  <speed>0.03</speed>
  <fix>3d</fix>
</trkpt>
<trkpt lat="40.0727081" lon="-105.2308749">
  <ele>1595.57</ele>
  <time>2026-08-27T18:30:17Z</time>
  <course>332.25</course>
  <speed>0.01</speed>
  <fix>3d</fix>
</trkpt>
<trkpt lat="40.072708" lon="-105.2308747">
  <ele>1595.48</ele>
  <time>2026-08-27T18:30:17Z</time>
  <course>125.0</course>
  <speed>0.03</speed>
  <fix>3d</fix>
</trkpt>
<trkpt lat="40.072708" lon="-105.2308749">
  <ele>1595.57</ele>
  <time>2026-08-27T18:30:17Z</time>
  <course>332.88</course>
  <speed>0.0</speed>
  <fix>3d</fix>
</trkpt>
<trkpt lat="40.072708" lon="-105.2308746">
  <ele>1595.48</ele>
  <time>2026-08-27T18:30:17Z</time>
  <course>130.59</course>
  <speed>0.03</speed>
  <fix>3d</fix>
</trkpt>
<trkpt lat="40.072708" lon="-105.2308748">
  <ele>1595.57</ele>
  <time>2026-08-27T18:30:17Z</time>
  <course>331.11</course>
  <speed>0.01</speed>
  <fix>3d</fix>
</trkpt>
<trkpt lat="40.0727079" lon="-105.2308745">
  <ele>1595.48</ele>
  <time>2026-08-27T18:30:17Z</time>
  <course>117.17</course>
  <speed>0.03</speed>
  <fix>3d</fix>
</trkpt>
<trkpt lat="40.072708" lon="-105.2308747">
  <ele>1595.57</ele>
  <time>2026-08-27T18:30:17Z</time>
  <course>332.96</course>
  <speed>0.01</speed>
  <fix>3d</fix>
</trkpt>
<trkpt lat="40.0727079" lon="-105.2308745">
  <ele>1595.49</ele>
  <time>2026-08-27T18:30:17Z</time>
  <course>127.73</course>
  <speed>0.02</speed>
  <fix>3d</fix>
</trkpt>
<trkpt lat="40.0727079" lon="-105.2308747">
  <ele>1595.57</ele>
  <time>2026-08-27T18:30:17Z</time>
  <course>331.91</course>
  <speed>0.01</speed>
  <fix>3d</fix>
</trkpt>
<trkpt lat="40.0727079" lon="-105.2308744">
  <ele>1595.49</ele>
  <time>2026-08-27T18:30:17Z</time>
  <course>124.17</course>
  <speed>0.03</speed>
  <fix>3d</fix>
</trkpt>
<trkpt lat="40.0727079" lon="-105.2308746">
  <ele>1595.58</ele>
  <time>2026-08-27T18:30:17Z</time>
  <course>331.82</course>
  <speed>0.01</speed>
  <fix>3d</fix>
</trkpt>
<trkpt lat="40.0727078" lon="-105.2308743">
  <ele>1595.49</ele>
  <time>2026-08-27T18:30:17Z</time>
  <course>120.37</course>
  <speed>0.03</speed>
  <fix>3d</fix>
</trkpt>
<trkpt lat="40.0727079" lon="-105.2308746">
  <ele>1595.58</ele>
  <time>2026-08-27T18:30:17Z</time>
  <course>332.91</course>
  <speed>0.0</speed>
  <fix>3d</fix>
</trkpt>
<trkpt lat="40.0727077" lon="-105.2308743">
  <ele>1595.49</ele>
  <time>2026-08-27T18:30:17Z</time>
  <course>129.32</course>
  <speed>0.02</speed>
  <fix>3d</fix>
</trkpt>
<trkpt lat="40.0727079" lon="-105.2308745">
  <ele>1595.58</ele>
  <time>2026-08-27T18:30:17Z</time>
  <course>331.32</course>
  <speed>0.01</speed>
  <fix>3d</fix>
</trkpt>
<trkpt lat="40.0727077" lon="-105.2308743">
  <ele>1595.49</ele>
  <time>2026-08-27T18:30:17Z</time>
  <course>119.7</course>
  <speed>0.03</speed>
  <fix>3d</fix>
</trkpt>
<trkpt lat="40.0727078" lon="-105.2308744">
  <ele>1595.59</ele>
  <time>2026-08-27T18:30:17Z</time>
  <course>332.93</course>
  <speed>0.01</speed>
  <fix>3d</fix>
</trkpt>
<trkpt lat="40.0727077" lon="-105.2308742">
  <ele>1595.49</ele>
  <time>2026-08-27T18:30:17Z</time>
  <course>125.79</course>
  <speed>0.03</speed>
  <fix>3d</fix>
</trkpt>
<trkpt lat="40.0727078" lon="-105.2308744">
  <ele>1595.59</ele>
  <time>2026-08-27T18:30:17Z</time>
  <course>331.69</course>
  <speed>0.0</speed>
  <fix>3d</fix>
</trkpt>
<trkpt lat="40.0727077" lon="-105.2308741">
  <ele>1595.49</ele>
  <time>2026-08-27T18:30:17Z</time>
  <course>122.26</course>
  <speed>0.03</speed>
  <fix>3d</fix>
</trkpt>
<trkpt lat="40.0727077" lon="-105.2308743">
  <ele>1595.59</ele>
  <time>2026-08-27T18:30:17Z</time>
  <course>332.41</course>
  <speed>0.01</speed>
  <fix>3d</fix>
</trkpt>
<trkpt lat="40.0727076" lon="-105.2308741">
  <ele>1595.49</ele>
  <time>2026-08-27T18:30:17Z</time>
  <course>121.52</course>
  <speed>0.03</speed>
  <fix>3d</fix>
</trkpt>
<trkpt lat="40.0727077" lon="-105.2308742">
  <ele>1595.58</ele>
  <time>2026-08-27T18:30:17Z</time>
  <course>332.23</course>
  <speed>0.01</speed>
  <fix>3d</fix>
</trkpt>
<trkpt lat="40.0727076" lon="-105.230874">
  <ele>1595.49</ele>
  <time>2026-08-27T18:30:17Z</time>
  <course>123.48</course>
  <speed>0.03</speed>
  <fix>3d</fix>
</trkpt>
<trkpt lat="40.0727077" lon="-105.2308742">
  <ele>1595.59</ele>
  <time>2026-08-27T18:30:17Z</time>
  <course>331.97</course>
  <speed>0.01</speed>
  <fix>3d</fix>
</trkpt>
<trkpt lat="40.0727076" lon="-105.230874">
  <ele>1595.49</ele>
  <time>2026-08-27T18:30:17Z</time>
  <course>120.04</course>
  <speed>0.03</speed>
  <fix>3d</fix>
</trkpt>
<trkpt lat="40.0727076" lon="-105.2308741">
  <ele>1595.59</ele>
  <time>2026-08-27T18:30:17Z</time>
  <course>332.53</course>
  <speed>0.0</speed>
  <fix>3d</fix>
</trkpt>
<trkpt lat="40.0727076" lon="-105.2308739">
  <ele>1595.48</ele>
  <time>2026-08-27T18:30:17Z</time>
  <course>123.16</course>
  <speed>0.03</speed>
  <fix>3d</fix>
</trkpt>
<trkpt lat="40.0727076" lon="-105.2308741">
  <ele>1595.59</ele>
  <time>2026-08-27T18:30:17Z</time>
  <course>331.77</course>
  <speed>0.01</speed>
  <fix>3d</fix>
</trkpt>
<trkpt lat="40.0727076" lon="-105.2308738">
  <ele>1595.48</ele>
  <time>2026-08-27T18:30:17Z</time>
  <course>119.79</course>
  <speed>0.03</speed>
  <fix>3d</fix>
</trkpt>
<trkpt lat="40.0727076" lon="-105.230874">
  <ele>1595.58</ele>
  <time>2026-08-27T18:30:17Z</time>
  <course>332.65</course>
  <speed>0.0</speed>
  <fix>3d</fix>
</trkpt>
<trkpt lat="40.0727075" lon="-105.2308738">
  <ele>1595.48</ele>
  <time>2026-08-27T18:30:17Z</time>
  <course>121.75</course>
  <speed>0.03</speed>
  <fix>3d</fix>
</trkpt>
<trkpt lat="40.0727076" lon="-105.2308739">
  <ele>1595.58</ele>
  <time>2026-08-27T18:30:17Z</time>
  <course>331.73</course>
  <speed>0.01</speed>
  <fix>3d</fix>
</trkpt>
<trkpt lat="40.0727075" lon="-105.2308737">
  <ele>1595.48</ele>
  <time>2026-08-27T18:30:17Z</time>
  <course>119.91</course>
  <speed>0.03</speed>
  <fix>3d</fix>
</trkpt>
<trkpt lat="40.0727075" lon="-105.2308739">
  <ele>1595.58</ele>
  <time>2026-08-27T18:30:17Z</time>
  <course>332.63</course>
  <speed>0.0</speed>
  <fix>3d</fix>
</trkpt>
<trkpt lat="40.0727075" lon="-105.2308736">
  <ele>1595.47</ele>
  <time>2026-08-27T18:30:17Z</time>
  <course>120.03</course>
  <speed>0.03</speed>
  <fix>3d</fix>
</trkpt>
<trkpt lat="40.0727075" lon="-105.2308738">
  <ele>1595.58</ele>
  <time>2026-08-27T18:30:17Z</time>
  <course>331.78</course>
  <speed>0.01</speed>
  <fix>3d</fix>
</trkpt>
<trkpt lat="40.0727075" lon="-105.2308736">
  <ele>1595.47</ele>
  <time>2026-08-27T18:30:17Z</time>
  <course>119.82</course>
  <speed>0.03</speed>
  <fix>3d</fix>
</trkpt>
<trkpt lat="40.0727075" lon="-105.2308738">
  <ele>1595.58</ele>
  <time>2026-08-27T18:30:17Z</time>
  <course>332.54</course>
  <speed>0.0</speed>
  <fix>3d</fix>
</trkpt>
<trkpt lat="40.0727074" lon="-105.2308735">
  <ele>1595.47</ele>
  <time>2026-08-27T18:30:17Z</time>
  <course>119.0</course>
  <speed>0.03</speed>
  <fix>3d</fix>
</trkpt>
<trkpt lat="40.0727075" lon="-105.2308737">
  <ele>1595.58</ele>
  <time>2026-08-27T18:30:17Z</time>
  <course>331.89</course>
  <speed>0.01</speed>
  <fix>3d</fix>
</trkpt>
<trkpt lat="40.0727074" lon="-105.2308734">
  <ele>1595.47</ele>
  <time>2026-08-27T18:30:17Z</time>
  <course>120.35</course>
  <speed>0.03</speed>
  <fix>3d</fix>
</trkpt>
<trkpt lat="40.0727074" lon="-105.2308736">
  <ele>1595.58</ele>
  <time>2026-08-27T18:30:17Z</time>
  <course>332.37</course>
  <speed>0.0</speed>
  <fix>3d</fix>
</trkpt>
<trkpt lat="40.0727074" lon="-105.2308733">
  <ele>1595.47</ele>
  <time>2026-08-27T18:30:17Z</time>
  <course>118.93</course>
  <speed>0.03</speed>
  <fix>3d</fix>
</trkpt>
<trkpt lat="40.0727074" lon="-105.2308735">
  <ele>1595.58</ele>
  <time>2026-08-27T18:30:17Z</time>
  <course>332.13</course>
  <speed>0.01</speed>
  <fix>3d</fix>
</trkpt>
<trkpt lat="40.0727074" lon="-105.2308733">
  <ele>1595.46</ele>
  <time>2026-08-27T18:30:17Z</time>
  <course>121.58</course>
  <speed>0.03</speed>
  <fix>3d</fix>
</trkpt>
<trkpt lat="40.0727074" lon="-105.2308735">
  <ele>1595.57</ele>
  <time>2026-08-27T18:30:17Z</time>
  <course>332.1</course>
  <speed>0.0</speed>
  <fix>3d</fix>
</trkpt>
<trkpt lat="40.0727073" lon="-105.2308733">
  <ele>1595.46</ele>
  <time>2026-08-27T18:30:17Z</time>
  <course>119.42</course>
  <speed>0.03</speed>
  <fix>3d</fix>
</trkpt>
<trkpt lat="40.0727074" lon="-105.2308734">
  <ele>1595.56</ele>
  <time>2026-08-27T18:30:17Z</time>
  <course>332.41</course>
  <speed>0.01</speed>
  <fix>3d</fix>
</trkpt>
<trkpt lat="40.0727073" lon="-105.2308732">
  <ele>1595.46</ele>
  <time>2026-08-27T18:30:17Z</time>
  <course>121.53</course>
  <speed>0.03</speed>
  <fix>3d</fix>
</trkpt>
<trkpt lat="40.0727073" lon="-105.2308734">
  <ele>1595.56</ele>
  <time>2026-08-27T18:30:17Z</time>
  <course>331.81</course>
  <speed>0.0</speed>
  <fix>3d</fix>
</trkpt>
<trkpt lat="40.0727073" lon="-105.2308731">
  <ele>1595.46</ele>
  <time>2026-08-27T18:30:17Z</time>
  <course>121.25</course>
  <speed>0.03</speed>
  <fix>3d</fix>
</trkpt>
<trkpt lat="40.0727073" lon="-105.2308733">
  <ele>1595.56</ele>
  <time>2026-08-27T18:30:17Z</time>
  <course>332.49</course>
  <speed>0.0</speed>
  <fix>3d</fix>
</trkpt>
<trkpt lat="40.0727072" lon="-105.2308731">
  <ele>1595.46</ele>
  <time>2026-08-27T18:30:17Z</time>
  <course>121.13</course>
  <speed>0.03</speed>
  <fix>3d</fix>
</trkpt>
<trkpt lat="40.0727073" lon="-105.2308732">
  <ele>1595.56</ele>
  <time>2026-08-27T18:30:17Z</time>
  <course>331.87</course>
  <speed>0.01</speed>
  <fix>3d</fix>
</trkpt>
<trkpt lat="40.0727071" lon="-105.230873">
  <ele>1595.46</ele>
  <time>2026-08-27T18:30:17Z</time>
  <course>126.04</course>
  <speed>0.03</speed>
  <fix>3d</fix>
</trkpt>
<trkpt lat="40.0727072" lon="-105.2308732">
  <ele>1595.56</ele>
  <time>2026-08-27T18:30:17Z</time>
  <course>332.2</course>
  <speed>0.0</speed>
  <fix>3d</fix>
</trkpt>
<trkpt lat="40.0727071" lon="-105.2308729">
  <ele>1595.46</ele>
  <time>2026-08-27T18:30:17Z</time>
  <course>121.72</course>
  <speed>0.03</speed>
  <fix>3d</fix>
</trkpt>
<trkpt lat="40.0727072" lon="-105.2308731">
  <ele>1595.56</ele>
  <time>2026-08-27T18:30:17Z</time>
  <course>332.32</course>
  <speed>0.01</speed>
  <fix>3d</fix>
</trkpt>
<trkpt lat="40.0727071" lon="-105.2308729">
  <ele>1595.47</ele>
  <time>2026-08-27T18:30:17Z</time>
  <course>127.28</course>
  <speed>0.03</speed>
  <fix>3d</fix>
</trkpt>
<trkpt lat="40.0727072" lon="-105.2308731">
  <ele>1595.56</ele>
  <time>2026-08-27T18:30:17Z</time>
  <course>331.88</course>
  <speed>0.01</speed>
  <fix>3d</fix>
</trkpt>
<trkpt lat="40.072707" lon="-105.2308728">
  <ele>1595.47</ele>
  <time>2026-08-27T18:30:17Z</time>
  <course>124.96</course>
  <speed>0.03</speed>
  <fix>3d</fix>
</trkpt>
<trkpt lat="40.0727071" lon="-105.230873">
  <ele>1595.57</ele>
  <time>2026-08-27T18:30:18Z</time>
  <course>332.38</course>
  <speed>0.0</speed>
  <fix>3d</fix>
</trkpt>
<trkpt lat="40.072707" lon="-105.2308728">
  <ele>1595.47</ele>
  <time>2026-08-27T18:30:18Z</time>
  <course>122.13</course>
  <speed>0.03</speed>
  <fix>3d</fix>
</trkpt>
<trkpt lat="40.0727071" lon="-105.2308729">
  <ele>1595.58</ele>
  <time>2026-08-27T18:30:18Z</time>
  <course>332.2</course>
  <speed>0.01</speed>
  <fix>3d</fix>
</trkpt>
<trkpt lat="40.072707" lon="-105.2308727">
  <ele>1595.48</ele>
  <time>2026-08-27T18:30:18Z</time>
  <course>128.06</course>
  <speed>0.03</speed>
  <fix>3d</fix>
</trkpt>
<trkpt lat="40.0727071" lon="-105.2308729">
  <ele>1595.58</ele>
  <time>2026-08-27T18:30:18Z</time>
  <course>331.95</course>
  <speed>0.01</speed>
  <fix>3d</fix>
</trkpt>
<trkpt lat="40.072707" lon="-105.2308726">
  <ele>1595.48</ele>
  <time>2026-08-27T18:30:18Z</time>
  <course>121.87</course>
  <speed>0.03</speed>
  <fix>3d</fix>
</trkpt>
<trkpt lat="40.072707" lon="-105.2308728">
  <ele>1595.57</ele>
  <time>2026-08-27T18:30:18Z</time>
  <course>332.36</course>
  <speed>0.0</speed>
  <fix>3d</fix>
</trkpt>
<trkpt lat="40.072707" lon="-105.2308726">
  <ele>1595.48</ele>
  <time>2026-08-27T18:30:18Z</time>
  <course>119.72</course>
  <speed>0.03</speed>
  <fix>3d</fix>
</trkpt>
<trkpt lat="40.072707" lon="-105.2308728">
  <ele>1595.57</ele>
  <time>2026-08-27T18:30:18Z</time>
  <course>332.25</course>
  <speed>0.01</speed>
  <fix>3d</fix>
</trkpt>
<trkpt lat="40.0727069" lon="-105.2308725">
  <ele>1595.48</ele>
  <time>2026-08-27T18:30:18Z</time>
  <course>125.48</course>
  <speed>0.03</speed>
  <fix>3d</fix>
</trkpt>
<trkpt lat="40.072707" lon="-105.2308727">
  <ele>1595.57</ele>
  <time>2026-08-27T18:30:18Z</time>
  <course>331.96</course>
  <speed>0.0</speed>
  <fix>3d</fix>
</trkpt>
<trkpt lat="40.0727069" lon="-105.2308724">
  <ele>1595.48</ele>
  <time>2026-08-27T18:30:18Z</time>
  <course>120.41</course>
  <speed>0.03</speed>
  <fix>3d</fix>
</trkpt>
<trkpt lat="40.0727069" lon="-105.2308726">
  <ele>1595.57</ele>
  <time>2026-08-27T18:30:18Z</time>
  <course>332.19</course>
  <speed>0.0</speed>
  <fix>3d</fix>
</trkpt>
<trkpt lat="40.0727069" lon="-105.2308724">
  <ele>1595.48</ele>
  <time>2026-08-27T18:30:18Z</time>
  <course>116.73</course>
  <speed>0.03</speed>
  <fix>3d</fix>
</trkpt>
<trkpt lat="40.0727069" lon="-105.2308726">
  <ele>1595.57</ele>
  <time>2026-08-27T18:30:18Z</time>
  <course>332.35</course>
  <speed>0.0</speed>
  <fix>3d</fix>
</trkpt>
<trkpt lat="40.0727069" lon="-105.2308723">
  <ele>1595.48</ele>
  <time>2026-08-27T18:30:18Z</time>
  <course>123.08</course>
  <speed>0.03</speed>
  <fix>3d</fix>
</trkpt>
<trkpt lat="40.0727069" lon="-105.2308725">
  <ele>1595.56</ele>
  <time>2026-08-27T18:30:18Z</time>
  <course>332.1</course>
  <speed>0.01</speed>
  <fix>3d</fix>
</trkpt>
<trkpt lat="40.0727068" lon="-105.2308722">
  <ele>1595.48</ele>
  <time>2026-08-27T18:30:18Z</time>
  <course>124.72</course>
  <speed>0.03</speed>
  <fix>3d</fix>
</trkpt>
<trkpt lat="40.0727069" lon="-105.2308724">
  <ele>1595.56</ele>
  <time>2026-08-27T18:30:18Z</time>
  <course>331.97</course>
  <speed>0.0</speed>
  <fix>3d</fix>
</trkpt>
<trkpt lat="40.0727068" lon="-105.2308721">
  <ele>1595.48</ele>
  <time>2026-08-27T18:30:18Z</time>
  <course>118.25</course>
  <speed>0.03</speed>
  <fix>3d</fix>
</trkpt>
<trkpt lat="40.0727068" lon="-105.2308724">
  <ele>1595.56</ele>
  <time>2026-08-27T18:30:18Z</time>
  <course>332.15</course>
  <speed>0.0</speed>
  <fix>3d</fix>
</trkpt>
<trkpt lat="40.0727068" lon="-105.2308721">
  <ele>1595.49</ele>
  <time>2026-08-27T18:30:18Z</time>
  <course>117.24</course>
  <speed>0.03</speed>
  <fix>3d</fix>
</trkpt>
<trkpt lat="40.0727068" lon="-105.2308723">
  <ele>1595.56</ele>
  <time>2026-08-27T18:30:18Z</time>
  <course>332.28</course>
  <speed>0.0</speed>
  <fix>3d</fix>
</trkpt>
<trkpt lat="40.0727067" lon="-105.2308721">
  <ele>1595.49</ele>
  <time>2026-08-27T18:30:18Z</time>
  <course>123.03</course>
  <speed>0.03</speed>
  <fix>3d</fix>
</trkpt>
<trkpt lat="40.0727068" lon="-105.2308722">
  <ele>1595.56</ele>
  <time>2026-08-27T18:30:18Z</time>
  <course>332.19</course>
  <speed>0.01</speed>
  <fix>3d</fix>
</trkpt>
<trkpt lat="40.0727067" lon="-105.230872">
  <ele>1595.49</ele>
  <time>2026-08-27T18:30:18Z</time>
  <course>126.35</course>
  <speed>0.03</speed>
  <fix>3d</fix>
</trkpt>
<trkpt lat="40.0727068" lon="-105.2308722">
  <ele>1595.57</ele>
  <time>2026-08-27T18:30:18Z</time>
  <course>332.05</course>
  <speed>0.01</speed>
  <fix>3d</fix>
</trkpt>
<trkpt lat="40.0727067" lon="-105.2308719">
  <ele>1595.5</ele>
  <time>2026-08-27T18:30:18Z</time>
  <course>123.22</course>
  <speed>0.03</speed>
  <fix>3d</fix>
</trkpt>
<trkpt lat="40.0727067" lon="-105.2308721">
  <ele>1595.57</ele>
  <time>2026-08-27T18:30:18Z</time>
  <course>332.03</course>
  <speed>0.0</speed>
  <fix>3d</fix>
</trkpt>
<trkpt lat="40.0727066" lon="-105.2308719">
  <ele>1595.5</ele>
  <time>2026-08-27T18:30:18Z</time>
  <course>119.31</course>
  <speed>0.03</speed>
  <fix>3d</fix>
</trkpt>
<trkpt lat="40.0727067" lon="-105.2308721">
  <ele>1595.57</ele>
  <time>2026-08-27T18:30:18Z</time>
  <course>332.12</course>
  <speed>0.0</speed>
  <fix>3d</fix>
</trkpt>
<trkpt lat="40.0727065" lon="-105.2308718">
  <ele>1595.5</ele>
  <time>2026-08-27T18:30:18Z</time>
  <course>118.84</course>
  <speed>0.03</speed>
  <fix>3d</fix>
</trkpt>
<trkpt lat="40.0727067" lon="-105.230872">
  <ele>1595.58</ele>
  <time>2026-08-27T18:30:18Z</time>
  <course>332.23</course>
  <speed>0.0</speed>
  <fix>3d</fix>
</trkpt>
<trkpt lat="40.0727065" lon="-105.2308717">
  <ele>1595.51</ele>
  <time>2026-08-27T18:30:18Z</time>
  <course>121.7</course>
  <speed>0.03</speed>
  <fix>3d</fix>
</trkpt>
<trkpt lat="40.0727066" lon="-105.2308719">
  <ele>1595.58</ele>
  <time>2026-08-27T18:30:18Z</time>
  <course>332.29</course>
  <speed>0.0</speed>
  <fix>3d</fix>
</trkpt>
<trkpt lat="40.0727065" lon="-105.2308717">
  <ele>1595.51</ele>
  <time>2026-08-27T18:30:18Z</time>
  <course>125.42</course>
  <speed>0.03</speed>
  <fix>3d</fix>
</trkpt>
<trkpt lat="40.0727066" lon="-105.2308719">
  <ele>1595.58</ele>
  <time>2026-08-27T18:30:18Z</time>
  <course>332.28</course>
  <speed>0.01</speed>
  <fix>3d</fix>
</trkpt>
<trkpt lat="40.0727065" lon="-105.2308716">
  <ele>1595.51</ele>
  <time>2026-08-27T18:30:18Z</time>
  <course>127.3</course>
  <speed>0.03</speed>
  <fix>3d</fix>
</trkpt>
<trkpt lat="40.0727065" lon="-105.2308718">
  <ele>1595.58</ele>
  <time>2026-08-27T18:30:18Z</time>
  <course>332.24</course>
  <speed>0.01</speed>
  <fix>3d</fix>
</trkpt>
<trkpt lat="40.0727064" lon="-105.2308716">
  <ele>1595.51</ele>
  <time>2026-08-27T18:30:18Z</time>
  <course>126.59</course>
  <speed>0.03</speed>
  <fix>3d</fix>
</trkpt>
<trkpt lat="40.0727065" lon="-105.2308717">
  <ele>1595.58</ele>
  <time>2026-08-27T18:30:18Z</time>
  <course>332.2</course>
  <speed>0.01</speed>
  <fix>3d</fix>
</trkpt>
<trkpt lat="40.0727064" lon="-105.2308715">
  <ele>1595.51</ele>
  <time>2026-08-27T18:30:18Z</time>
  <course>124.26</course>
  <speed>0.03</speed>
  <fix>3d</fix>
</trkpt>
<trkpt lat="40.0727065" lon="-105.2308717">
  <ele>1595.58</ele>
  <time>2026-08-27T18:30:18Z</time>
  <course>332.16</course>
  <speed>0.01</speed>
  <fix>3d</fix>
</trkpt>
<trkpt lat="40.0727064" lon="-105.2308714">
  <ele>1595.51</ele>
  <time>2026-08-27T18:30:18Z</time>
  <course>121.86</course>
  <speed>0.03</speed>
  <fix>3d</fix>
</trkpt>
<trkpt lat="40.0727064" lon="-105.2308716">
  <ele>1595.58</ele>
  <time>2026-08-27T18:30:18Z</time>
  <course>332.15</course>
  <speed>0.01</speed>
  <fix>3d</fix>
</trkpt>
<trkpt lat="40.0727064" lon="-105.2308714">
  <ele>1595.51</ele>
  <time>2026-08-27T18:30:18Z</time>
  <course>120.1</course>
  <speed>0.03</speed>
  <fix>3d</fix>
</trkpt>
<trkpt lat="40.0727064" lon="-105.2308716">
  <ele>1595.59</ele>
  <time>2026-08-27T18:30:18Z</time>
  <course>332.14</course>
  <speed>0.01</speed>
  <fix>3d</fix>
</trkpt>
<trkpt lat="40.0727064" lon="-105.2308713">
  <ele>1595.51</ele>
  <time>2026-08-27T18:30:18Z</time>
  <course>118.64</course>
  <speed>0.03</speed>
  <fix>3d</fix>
</trkpt>
<trkpt lat="40.0727064" lon="-105.2308715">
  <ele>1595.59</ele>
  <time>2026-08-27T18:30:18Z</time>
  <course>332.16</course>
  <speed>0.01</speed>
  <fix>3d</fix>
</trkpt>
<trkpt lat="40.0727063" lon="-105.2308712">
  <ele>1595.51</ele>
  <time>2026-08-27T18:30:18Z</time>
  <course>117.72</course>
  <speed>0.03</speed>
  <fix>3d</fix>
</trkpt>
<trkpt lat="40.0727064" lon="-105.2308714">
  <ele>1595.59</ele>
  <time>2026-08-27T18:30:18Z</time>
  <course>332.18</course>
  <speed>0.0</speed>
  <fix>3d</fix>
</trkpt>
<trkpt lat="40.0727063" lon="-105.2308712">
  <ele>1595.51</ele>
  <time>2026-08-27T18:30:18Z</time>
  <course>117.45</course>
  <speed>0.03</speed>
  <fix>3d</fix>
</trkpt>
<trkpt lat="40.0727063" lon="-105.2308714">
  <ele>1595.59</ele>
  <time>2026-08-27T18:30:18Z</time>
  <course>332.19</course>
  <speed>0.0</speed>
  <fix>3d</fix>
</trkpt>
<trkpt lat="40.0727063" lon="-105.2308711">
  <ele>1595.51</ele>
  <time>2026-08-27T18:30:18Z</time>
  <course>117.23</course>
  <speed>0.03</speed>
  <fix>3d</fix>
</trkpt>
<trkpt lat="40.0727063" lon="-105.2308713">
  <ele>1595.59</ele>
  <time>2026-08-27T18:30:18Z</time>
  <course>332.21</course>
  <speed>0.0</speed>
  <fix>3d</fix>
</trkpt>
<trkpt lat="40.0727063" lon="-105.230871">
  <ele>1595.5</ele>
  <time>2026-08-27T18:30:18Z</time>
  <course>117.33</course>
  <speed>0.03</speed>
  <fix>3d</fix>
</trkpt>
<trkpt lat="40.0727063" lon="-105.2308712">
  <ele>1595.59</ele>
  <time>2026-08-27T18:30:18Z</time>
  <course>332.23</course>
  <speed>0.0</speed>
  <fix>3d</fix>
</trkpt>
<trkpt lat="40.0727062" lon="-105.2308709">
  <ele>1595.5</ele>
  <time>2026-08-27T18:30:18Z</time>
  <course>117.95</course>
  <speed>0.03</speed>
  <fix>3d</fix>
</trkpt>
<trkpt lat="40.0727063" lon="-105.2308712">
  <ele>1595.59</ele>
  <time>2026-08-27T18:30:18Z</time>
  <course>332.24</course>
  <speed>0.0</speed>
  <fix>3d</fix>
</trkpt>
<trkpt lat="40.0727062" lon="-105.2308709">
  <ele>1595.5</ele>
  <time>2026-08-27T18:30:18Z</time>
  <course>119.08</course>
  <speed>0.03</speed>
  <fix>3d</fix>
</trkpt>
<trkpt lat="40.0727062" lon="-105.2308711">
  <ele>1595.59</ele>
  <time>2026-08-27T18:30:18Z</time>
  <course>332.26</course>
  <speed>0.0</speed>
  <fix>3d</fix>
</trkpt>
<trkpt lat="40.0727062" lon="-105.2308708">
  <ele>1595.49</ele>
  <time>2026-08-27T18:30:18Z</time>
  <course>120.48</course>
  <speed>0.03</speed>
  <fix>3d</fix>
</trkpt>
<trkpt lat="40.0727062" lon="-105.230871">
  <ele>1595.59</ele>
  <time>2026-08-27T18:30:18Z</time>
  <course>332.25</course>
  <speed>0.0</speed>
  <fix>3d</fix>
</trkpt>
<trkpt lat="40.0727062" lon="-105.2308707">
  <ele>1595.49</ele>
  <time>2026-08-27T18:30:18Z</time>
  <course>121.44</course>
  <speed>0.03</speed>
  <fix>3d</fix>
</trkpt>
<trkpt lat="40.0727062" lon="-105.230871">
  <ele>1595.58</ele>
  <time>2026-08-27T18:30:18Z</time>
  <course>332.22</course>
  <speed>0.0</speed>
  <fix>3d</fix>
</trkpt>
<trkpt lat="40.0727061" lon="-105.2308707">
  <ele>1595.48</ele>
  <time>2026-08-27T18:30:18Z</time>
  <course>121.13</course>
  <speed>0.03</speed>
  <fix>3d</fix>
</trkpt>
<trkpt lat="40.0727062" lon="-105.2308709">
  <ele>1595.58</ele>
  <time>2026-08-27T18:30:18Z</time>
  <course>332.17</course>
  <speed>0.0</speed>
  <fix>3d</fix>
</trkpt>
<trkpt lat="40.0727061" lon="-105.2308706">
  <ele>1595.48</ele>
  <time>2026-08-27T18:30:18Z</time>
  <course>119.71</course>
  <speed>0.03</speed>
  <fix>3d</fix>
</trkpt>
<trkpt lat="40.0727061" lon="-105.2308708">
  <ele>1595.57</ele>
  <time>2026-08-27T18:30:18Z</time>
  <course>332.15</course>
  <speed>0.0</speed>
  <fix>3d</fix>
</trkpt>
<trkpt lat="40.0727061" lon="-105.2308705">
  <ele>1595.48</ele>
  <time>2026-08-27T18:30:18Z</time>
  <course>118.66</course>
  <speed>0.03</speed>
  <fix>3d</fix>
</trkpt>
<trkpt lat="40.0727061" lon="-105.2308707">
  <ele>1595.56</ele>
  <time>2026-08-27T18:30:18Z</time>
  <course>332.18</course>
  <speed>0.0</speed>
  <fix>3d</fix>
</trkpt>
<trkpt lat="40.072706" lon="-105.2308705">
  <ele>1595.48</ele>
  <time>2026-08-27T18:30:18Z</time>
  <course>119.53</course>
  <speed>0.03</speed>
  <fix>3d</fix>
</trkpt>
<trkpt lat="40.0727061" lon="-105.2308707">
  <ele>1595.56</ele>
  <time>2026-08-27T18:30:18Z</time>
  <course>332.17</course>
  <speed>0.0</speed>
  <fix>3d</fix>
</trkpt>
<trkpt lat="40.0727059" lon="-105.2308705">
  <ele>1595.47</ele>
  <time>2026-08-27T18:30:18Z</time>
  <course>121.63</course>
  <speed>0.03</speed>
  <fix>3d</fix>
</trkpt>
<trkpt lat="40.0727061" lon="-105.2308706">
  <ele>1595.56</ele>
  <time>2026-08-27T18:30:18Z</time>
  <course>332.13</course>
  <speed>0.0</speed>
  <fix>3d</fix>
</trkpt>
<trkpt lat="40.0727059" lon="-105.2308704">
  <ele>1595.47</ele>
  <time>2026-08-27T18:30:18Z</time>
  <course>122.4</course>
  <speed>0.03</speed>
  <fix>3d</fix>
</trkpt>
<trkpt lat="40.072706" lon="-105.2308706">
  <ele>1595.56</ele>
  <time>2026-08-27T18:30:18Z</time>
  <course>332.13</course>
  <speed>0.01</speed>
  <fix>3d</fix>
</trkpt>
<trkpt lat="40.0727059" lon="-105.2308703">
  <ele>1595.48</ele>
  <time>2026-08-27T18:30:18Z</time>
  <course>121.51</course>
  <speed>0.03</speed>
  <fix>3d</fix>
</trkpt>
<trkpt lat="40.072706" lon="-105.2308705">
  <ele>1595.57</ele>
  <time>2026-08-27T18:30:18Z</time>
  <course>332.19</course>
  <speed>0.01</speed>
  <fix>3d</fix>
</trkpt>
<trkpt lat="40.0727058" lon="-105.2308702">
  <ele>1595.48</ele>
  <time>2026-08-27T18:30:18Z</time>
  <course>121.65</course>
  <speed>0.03</speed>
  <fix>3d</fix>
</trkpt>
<trkpt lat="40.0727059" lon="-105.2308704">
  <ele>1595.57</ele>
  <time>2026-08-27T18:30:18Z</time>
  <course>332.19</course>
  <speed>0.01</speed>
  <fix>3d</fix>
</trkpt>
<trkpt lat="40.0727058" lon="-105.2308702">
  <ele>1595.48</ele>
  <time>2026-08-27T18:30:18Z</time>
  <course>123.4</course>
  <speed>0.03</speed>
  <fix>3d</fix>
</trkpt>
<trkpt lat="40.0727059" lon="-105.2308704">
  <ele>1595.57</ele>
  <time>2026-08-27T18:30:18Z</time>
  <course>332.15</course>
  <speed>0.01</speed>
  <fix>3d</fix>
</trkpt>
<trkpt lat="40.0727058" lon="-105.2308701">
  <ele>1595.48</ele>
  <time>2026-08-27T18:30:18Z</time>
  <course>123.17</course>
  <speed>0.03</speed>
  <fix>3d</fix>
</trkpt>
<trkpt lat="40.0727059" lon="-105.2308703">
  <ele>1595.57</ele>
  <time>2026-08-27T18:30:18Z</time>
  <course>332.18</course>
  <speed>0.01</speed>
  <fix>3d</fix>
</trkpt>
<trkpt lat="40.0727058" lon="-105.23087">
  <ele>1595.48</ele>
  <time>2026-08-27T18:30:18Z</time>
  <course>122.95</course>
  <speed>0.03</speed>
  <fix>3d</fix>
</trkpt>
<trkpt lat="40.0727058" lon="-105.2308702">
  <ele>1595.57</ele>
  <time>2026-08-27T18:30:18Z</time>
  <course>332.18</course>
  <speed>0.01</speed>
  <fix>3d</fix>
</trkpt>
<trkpt lat="40.0727058" lon="-105.23087">
  <ele>1595.49</ele>
  <time>2026-08-27T18:30:18Z</time>
  <course>123.85</course>
  <speed>0.03</speed>
  <fix>3d</fix>
</trkpt>
<trkpt lat="40.0727058" lon="-105.2308702">
  <ele>1595.57</ele>
  <time>2026-08-27T18:30:18Z</time>
  <course>332.17</course>
  <speed>0.01</speed>
  <fix>3d</fix>
</trkpt>
<trkpt lat="40.0727058" lon="-105.23087">
  <ele>1595.49</ele>
  <time>2026-08-27T18:30:18Z</time>
  <course>122.82</course>
  <speed>0.03</speed>
  <fix>3d</fix>
</trkpt>
<trkpt lat="40.0727058" lon="-105.2308701">
  <ele>1595.57</ele>
  <time>2026-08-27T18:30:18Z</time>
  <course>332.19</course>
  <speed>0.0</speed>
  <fix>3d</fix>
</trkpt>
<trkpt lat="40.0727057" lon="-105.2308699">
  <ele>1595.49</ele>
  <time>2026-08-27T18:30:18Z</time>
  <course>122.41</course>
  <speed>0.03</speed>
  <fix>3d</fix>
</trkpt>
<trkpt lat="40.0727058" lon="-105.2308701">
  <ele>1595.57</ele>
  <time>2026-08-27T18:30:18Z</time>
  <course>332.22</course>
  <speed>0.0</speed>
  <fix>3d</fix>
</trkpt>
<trkpt lat="40.0727057" lon="-105.2308698">
  <ele>1595.49</ele>
  <time>2026-08-27T18:30:18Z</time>
  <course>121.93</course>
  <speed>0.03</speed>
  <fix>3d</fix>
</trkpt>
<trkpt lat="40.0727057" lon="-105.23087">
  <ele>1595.57</ele>
  <time>2026-08-27T18:30:18Z</time>
  <course>332.23</course>
  <speed>0.0</speed>
  <fix>3d</fix>
</trkpt>
<trkpt lat="40.0727057" lon="-105.2308697">
  <ele>1595.49</ele>
  <time>2026-08-27T18:30:18Z</time>
  <course>121.51</course>
  <speed>0.03</speed>
  <fix>3d</fix>
</trkpt>
<trkpt lat="40.0727057" lon="-105.2308699">
  <ele>1595.57</ele>
  <time>2026-08-27T18:30:18Z</time>
  <course>332.19</course>
  <speed>0.0</speed>
  <fix>3d</fix>
</trkpt>
<trkpt lat="40.0727056" lon="-105.2308697">
  <ele>1595.49</ele>
  <time>2026-08-27T18:30:18Z</time>
  <course>120.91</course>
  <speed>0.03</speed>
  <fix>3d</fix>
</trkpt>
<trkpt lat="40.0727057" lon="-105.2308699">
  <ele>1595.57</ele>
  <time>2026-08-27T18:30:18Z</time>
  <course>332.14</course>
  <speed>0.0</speed>
  <fix>3d</fix>
</trkpt>
<trkpt lat="40.0727056" lon="-105.2308696">
  <ele>1595.49</ele>
  <time>2026-08-27T18:30:18Z</time>
  <course>120.6</course>
  <speed>0.03</speed>
  <fix>3d</fix>
</trkpt>
<trkpt lat="40.0727057" lon="-105.2308698">
  <ele>1595.56</ele>
  <time>2026-08-27T18:30:18Z</time>
  <course>332.14</course>
  <speed>0.0</speed>
  <fix>3d</fix>
</trkpt>
<trkpt lat="40.0727056" lon="-105.2308695">
  <ele>1595.49</ele>
  <time>2026-08-27T18:30:18Z</time>
  <course>121.29</course>
  <speed>0.03</speed>
  <fix>3d</fix>
</trkpt>
<trkpt lat="40.0727056" lon="-105.2308697">
  <ele>1595.57</ele>
  <time>2026-08-27T18:30:18Z</time>
  <course>332.09</course>
  <speed>0.0</speed>
  <fix>3d</fix>
</trkpt>
<trkpt lat="40.0727056" lon="-105.2308695">
  <ele>1595.5</ele>
  <time>2026-08-27T18:30:18Z</time>
  <course>121.08</course>
  <speed>0.03</speed>
  <fix>3d</fix>
</trkpt>
<trkpt lat="40.0727056" lon="-105.2308697">
  <ele>1595.57</ele>
  <time>2026-08-27T18:30:18Z</time>
  <course>332.11</course>
  <speed>0.0</speed>
  <fix>3d</fix>
</trkpt>
<trkpt lat="40.0727055" lon="-105.2308695">
  <ele>1595.5</ele>
  <time>2026-08-27T18:30:18Z</time>
  <course>121.74</course>
  <speed>0.03</speed>
  <fix>3d</fix>
</trkpt>
<trkpt lat="40.0727056" lon="-105.2308696">
  <ele>1595.57</ele>
  <time>2026-08-27T18:30:18Z</time>
  <course>332.11</course>
  <speed>0.0</speed>
  <fix>3d</fix>
</trkpt>
<trkpt lat="40.0727055" lon="-105.2308694">
  <ele>1595.5</ele>
  <time>2026-08-27T18:30:18Z</time>
  <course>122.08</course>
  <speed>0.03</speed>
  <fix>3d</fix>
</trkpt>
<trkpt lat="40.0727055" lon="-105.2308696">
  <ele>1595.56</ele>
  <time>2026-08-27T18:30:18Z</time>
  <course>332.14</course>
  <speed>0.0</speed>
  <fix>3d</fix>
</trkpt>
<trkpt lat="40.0727055" lon="-105.2308693">
  <ele>1595.5</ele>
  <time>2026-08-27T18:30:18Z</time>
  <course>121.9</course>
  <speed>0.03</speed>
  <fix>3d</fix>
</trkpt>
<trkpt lat="40.0727055" lon="-105.2308695">
  <ele>1595.57</ele>
  <time>2026-08-27T18:30:18Z</time>
  <course>332.2</course>
  <speed>0.0</speed>
  <fix>3d</fix>
</trkpt>
<trkpt lat="40.0727054" lon="-105.2308693">
  <ele>1595.51</ele>
  <time>2026-08-27T18:30:18Z</time>
  <course>122.64</course>
  <speed>0.03</speed>
  <fix>3d</fix>
</trkpt>
<trkpt lat="40.0727055" lon="-105.2308694">
  <ele>1595.57</ele>
  <time>2026-08-27T18:30:18Z</time>
  <course>332.2</course>
  <speed>0.0</speed>
  <fix>3d</fix>
</trkpt>
<trkpt lat="40.0727053" lon="-105.2308692">
  <ele>1595.51</ele>
  <time>2026-08-27T18:30:18Z</time>
  <course>123.15</course>
  <speed>0.03</speed>
  <fix>3d</fix>
</trkpt>
<trkpt lat="40.0727054" lon="-105.2308694">
  <ele>1595.57</ele>
  <time>2026-08-27T18:30:18Z</time>
  <course>332.15</course>
  <speed>0.01</speed>
  <fix>3d</fix>
</trkpt>
<trkpt lat="40.0727053" lon="-105.2308691">
  <ele>1595.51</ele>
  <time>2026-08-27T18:30:18Z</time>
  <course>122.78</course>
  <speed>0.03</speed>
  <fix>3d</fix>
</trkpt>
<trkpt lat="40.0727054" lon="-105.2308693">
  <ele>1595.57</ele>
  <time>2026-08-27T18:30:18Z</time>
  <course>332.14</course>
  <speed>0.01</speed>
  <fix>3d</fix>
</trkpt>
<trkpt lat="40.0727053" lon="-105.230869">
  <ele>1595.51</ele>
  <time>2026-08-27T18:30:18Z</time>
  <course>122.32</course>
  <speed>0.03</speed>
  <fix>3d</fix>
</trkpt>
<trkpt lat="40.0727054" lon="-105.2308692">
  <ele>1595.57</ele>
  <time>2026-08-27T18:30:18Z</time>
  <course>332.18</course>
  <speed>0.01</speed>
  <fix>3d</fix>
</trkpt>
<trkpt lat="40.0727052" lon="-105.230869">
  <ele>1595.52</ele>
  <time>2026-08-27T18:30:18Z</time>
  <course>122.48</course>
  <speed>0.03</speed>
  <fix>3d</fix>
</trkpt>
<trkpt lat="40.0727053" lon="-105.2308692">
  <ele>1595.57</ele>
  <time>2026-08-27T18:30:18Z</time>
  <course>332.23</course>
  <speed>0.01</speed>
  <fix>3d</fix>
</trkpt>
<trkpt lat="40.0727052" lon="-105.2308689">
  <ele>1595.52</ele>
  <time>2026-08-27T18:30:18Z</time>
  <course>122.68</course>
  <speed>0.03</speed>
  <fix>3d</fix>
</trkpt>
<trkpt lat="40.0727053" lon="-105.2308691">
  <ele>1595.57</ele>
  <time>2026-08-27T18:30:18Z</time>
  <course>332.24</course>
  <speed>0.01</speed>
  <fix>3d</fix>
</trkpt>
<trkpt lat="40.0727052" lon="-105.2308688">
  <ele>1595.52</ele>
  <time>2026-08-27T18:30:18Z</time>
  <course>122.28</course>
  <speed>0.03</speed>
  <fix>3d</fix>
</trkpt>
<trkpt lat="40.0727053" lon="-105.230869">
  <ele>1595.58</ele>
  <time>2026-08-27T18:30:18Z</time>
  <course>332.24</course>
  <speed>0.01</speed>
  <fix>3d</fix>
</trkpt>
<trkpt lat="40.0727052" lon="-105.2308688">
  <ele>1595.52</ele>
  <time>2026-08-27T18:30:18Z</time>
  <course>122.16</course>
  <speed>0.03</speed>
  <fix>3d</fix>
</trkpt>
<trkpt lat="40.0727052" lon="-105.230869">
  <ele>1595.58</ele>
  <time>2026-08-27T18:30:18Z</time>
  <course>332.23</course>
  <speed>0.01</speed>
  <fix>3d</fix>
</trkpt>
<trkpt lat="40.0727052" lon="-105.2308687">
  <ele>1595.52</ele>
  <time>2026-08-27T18:30:18Z</time>
  <course>122.41</course>
  <speed>0.03</speed>
  <fix>3d</fix>
</trkpt>
<trkpt lat="40.0727052" lon="-105.2308689">
  <ele>1595.58</ele>
  <time>2026-08-27T18:30:18Z</time>
  <course>332.17</course>
  <speed>0.01</speed>
  <fix>3d</fix>
</trkpt>
<trkpt lat="40.0727052" lon="-105.2308687">
  <ele>1595.52</ele>
  <time>2026-08-27T18:30:18Z</time>
  <course>122.5</course>
  <speed>0.03</speed>
  <fix>3d</fix>
</trkpt>
<trkpt lat="40.0727052" lon="-105.2308689">
  <ele>1595.58</ele>
  <time>2026-08-27T18:30:18Z</time>
  <course>332.15</course>
  <speed>0.01</speed>
  <fix>3d</fix>
</trkpt>
<trkpt lat="40.0727051" lon="-105.2308686">
  <ele>1595.52</ele>
  <time>2026-08-27T18:30:18Z</time>
  <course>122.89</course>
  <speed>0.03</speed>
  <fix>3d</fix>
</trkpt>
<trkpt lat="40.0727052" lon="-105.2308688">
  <ele>1595.58</ele>
  <time>2026-08-27T18:30:18Z</time>
  <course>332.28</course>
  <speed>0.01</speed>
  <fix>3d</fix>
</trkpt>
<trkpt lat="40.0727051" lon="-105.2308685">
  <ele>1595.52</ele>
  <time>2026-08-27T18:30:18Z</time>
  <course>123.48</course>
  <speed>0.03</speed>
  <fix>3d</fix>
</trkpt>
<trkpt lat="40.0727051" lon="-105.2308687">
  <ele>1595.58</ele>
  <time>2026-08-27T18:30:18Z</time>
  <course>332.3</course>
  <speed>0.0</speed>
  <fix>3d</fix>
</trkpt>
<trkpt lat="40.0727051" lon="-105.2308685">
  <ele>1595.52</ele>
  <time>2026-08-27T18:30:18Z</time>
  <course>123.14</course>
  <speed>0.03</speed>
  <fix>3d</fix>
</trkpt>
<trkpt lat="40.0727051" lon="-105.2308687">
  <ele>1595.58</ele>
  <time>2026-08-27T18:30:18Z</time>
  <course>332.27</course>
  <speed>0.0</speed>
  <fix>3d</fix>
</trkpt>
<trkpt lat="40.072705" lon="-105.2308684">
  <ele>1595.52</ele>
  <time>2026-08-27T18:30:18Z</time>
  <course>122.49</course>
  <speed>0.03</speed>
  <fix>3d</fix>
</trkpt>
<trkpt lat="40.0727051" lon="-105.2308686">
  <ele>1595.58</ele>
  <time>2026-08-27T18:30:18Z</time>
  <course>332.23</course>
  <speed>0.0</speed>
  <fix>3d</fix>
</trkpt>
<trkpt lat="40.072705" lon="-105.2308683">
  <ele>1595.52</ele>
  <time>2026-08-27T18:30:18Z</time>
  <course>121.98</course>
  <speed>0.03</speed>
  <fix>3d</fix>
</trkpt>
<trkpt lat="40.072705" lon="-105.2308685">
  <ele>1595.59</ele>
  <time>2026-08-27T18:30:18Z</time>
  <course>332.21</course>
  <speed>0.0</speed>
  <fix>3d</fix>
</trkpt>
<trkpt lat="40.072705" lon="-105.2308683">
  <ele>1595.52</ele>
  <time>2026-08-27T18:30:18Z</time>
  <course>121.37</course>
  <speed>0.03</speed>
  <fix>3d</fix>
</trkpt>
<trkpt lat="40.072705" lon="-105.2308685">
  <ele>1595.59</ele>
  <time>2026-08-27T18:30:18Z</time>
  <course>332.21</course>
  <speed>0.0</speed>
  <fix>3d</fix>
</trkpt>
<trkpt lat="40.0727049" lon="-105.2308682">
  <ele>1595.52</ele>
  <time>2026-08-27T18:30:18Z</time>
  <course>121.26</course>
  <speed>0.03</speed>
  <fix>3d</fix>
</trkpt>
<trkpt lat="40.072705" lon="-105.2308684">
  <ele>1595.59</ele>
  <time>2026-08-27T18:30:18Z</time>
  <course>332.23</course>
  <speed>0.0</speed>
  <fix>3d</fix>
</trkpt>
<trkpt lat="40.0727049" lon="-105.2308681">
  <ele>1595.52</ele>
  <time>2026-08-27T18:30:18Z</time>
  <course>121.16</course>
  <speed>0.03</speed>
  <fix>3d</fix>
</trkpt>
<trkpt lat="40.072705" lon="-105.2308683">
  <ele>1595.59</ele>
  <time>2026-08-27T18:30:18Z</time>
  <course>332.23</course>
  <speed>0.0</speed>
  <fix>3d</fix>
</trkpt>
<trkpt lat="40.0727049" lon="-105.2308681">
  <ele>1595.52</ele>
  <time>2026-08-27T18:30:18Z</time>
  <course>120.75</course>
  <speed>0.03</speed>
  <fix>3d</fix>
</trkpt>
<trkpt lat="40.0727049" lon="-105.2308683">
  <ele>1595.58</ele>
  <time>2026-08-27T18:30:18Z</time>
  <course>332.2</course>
  <speed>0.0</speed>
  <fix>3d</fix>
</trkpt>
<trkpt lat="40.0727048" lon="-105.230868">
  <ele>1595.51</ele>
  <time>2026-08-27T18:30:18Z</time>
  <course>120.34</course>
  <speed>0.03</speed>
  <fix>3d</fix>
</trkpt>
<trkpt lat="40.0727049" lon="-105.2308682">
  <ele>1595.58</ele>
  <time>2026-08-27T18:30:18Z</time>
  <course>332.19</course>
  <speed>0.0</speed>
  <fix>3d</fix>
</trkpt>
<trkpt lat="40.0727047" lon="-105.230868">
  <ele>1595.51</ele>
  <time>2026-08-27T18:30:18Z</time>
  <course>120.01</course>
  <speed>0.03</speed>
  <fix>3d</fix>
</trkpt>
<trkpt lat="40.0727049" lon="-105.2308681">
  <ele>1595.58</ele>
  <time>2026-08-27T18:30:18Z</time>
  <course>332.21</course>
  <speed>0.01</speed>
  <fix>3d</fix>
</trkpt>
<trkpt lat="40.0727047" lon="-105.2308679">
  <ele>1595.51</ele>
  <time>2026-08-27T18:30:18Z</time>
  <course>120.62</course>
  <speed>0.03</speed>
  <fix>3d</fix>
</trkpt>
<trkpt lat="40.0727048" lon="-105.2308681">
  <ele>1595.56</ele>
  <time>2026-08-27T18:30:18Z</time>
  <course>332.5</course>
  <speed>0.01</speed>
  <fix>3d</fix>
</trkpt>
<trkpt lat="40.0727047" lon="-105.2308678">
  <ele>1595.5</ele>
  <time>2026-08-27T18:30:18Z</time>
  <course>123.68</course>
  <speed>0.03</speed>
  <fix>3d</fix>
</trkpt>
<trkpt lat="40.0727048" lon="-105.230868">
  <ele>1595.52</ele>
  <time>2026-08-27T18:30:18Z</time>
  <course>333.02</course>
  <speed>0.0</speed>
  <fix>3d</fix>
</trkpt>
<trkpt lat="40.0727047" lon="-105.2308678">
  <ele>1595.48</ele>
  <time>2026-08-27T18:30:18Z</time>
  <course>124.91</course>
  <speed>0.03</speed>
  <fix>3d</fix>
</trkpt>
<trkpt lat="40.0727048" lon="-105.230868">
  <ele>1595.45</ele>
  <time>2026-08-27T18:30:18Z</time>
  <course>333.25</course>
  <speed>0.0</speed>
  <fix>3d</fix>
</trkpt>
<trkpt lat="40.0727046" lon="-105.2308677">
  <ele>1595.43</ele>
  <time>2026-08-27T18:30:18Z</time>
  <course>116.51</course>
  <speed>0.02</speed>
  <fix>3d</fix>
</trkpt>
<trkpt lat="40.0727048" lon="-105.2308679">
  <ele>1595.35</ele>
  <time>2026-08-27T18:30:18Z</time>
  <course>333.23</course>
  <speed>0.0</speed>
  <fix>3d</fix>
</trkpt>
<trkpt lat="40.0727046" lon="-105.2308676">
  <ele>1595.35</ele>
  <time>2026-08-27T18:30:18Z</time>
  <course>98.81</course>
  <speed>0.02</speed>
  <fix>3d</fix>
</trkpt>
<trkpt lat="40.0727048" lon="-105.2308679">
  <ele>1595.25</ele>
  <time>2026-08-27T18:30:18Z</time>
  <course>333.18</course>
  <speed>0.01</speed>
  <fix>3d</fix>
</trkpt>
<trkpt lat="40.0727046" lon="-105.2308676">
  <ele>1595.26</ele>
  <time>2026-08-27T18:30:18Z</time>
  <course>80.98</course>
  <speed>0.02</speed>
  <fix>3d</fix>
</trkpt>
<trkpt lat="40.0727048" lon="-105.2308678">
  <ele>1595.14</ele>
  <time>2026-08-27T18:30:18Z</time>
  <course>333.1</course>
  <speed>0.01</speed>
  <fix>3d</fix>
</trkpt>
<trkpt lat="40.0727046" lon="-105.2308676">
  <ele>1595.15</ele>
  <time>2026-08-27T18:30:18Z</time>
  <course>67.87</course>
  <speed>0.02</speed>
  <fix>3d</fix>
</trkpt>
<trkpt lat="40.0727048" lon="-105.2308678">
  <ele>1595.12</ele>
  <time>2026-08-27T18:30:18Z</time>
  <course>333.09</course>
  <speed>0.01</speed>
  <fix>3d</fix>
</trkpt>
<trkpt lat="40.0727048" lon="-105.2308678">
  <ele>1595.03</ele>
  <time>2026-08-27T18:30:18Z</time>
  <course>333.07</course>
  <speed>0.01</speed>
  <fix>3d</fix>
</trkpt>
<trkpt lat="40.0727046" lon="-105.2308675">
  <ele>1595.04</ele>
  <time>2026-08-27T18:30:18Z</time>
  <course>58.83</course>
  <speed>0.02</speed>
  <fix>3d</fix>
</trkpt>
<trkpt lat="40.0727048" lon="-105.2308677">
  <ele>1594.91</ele>
  <time>2026-08-27T18:30:18Z</time>
  <course>333.02</course>
  <speed>0.01</speed>
  <fix>3d</fix>
</trkpt>
<trkpt lat="40.0727046" lon="-105.2308675">
  <ele>1594.92</ele>
  <time>2026-08-27T18:30:18Z</time>
  <course>52.38</course>
  <speed>0.02</speed>
  <fix>3d</fix>
</trkpt>
<trkpt lat="40.0727048" lon="-105.2308677">
  <ele>1594.81</ele>
  <time>2026-08-27T18:30:18Z</time>
  <course>332.95</course>
  <speed>0.01414213562373095</speed>
  <fix>3d</fix>
</trkpt>
<trkpt lat="40.0727046" lon="-105.2308674">
  <ele>1594.81</ele>
  <time>2026-08-27T18:30:18Z</time>
  <course>47.42</course>
  <speed>0.02</speed>
  <fix>3d</fix>
</trkpt>
<trkpt lat="40.0727048" lon="-105.2308677">
  <ele>1594.7</ele>
  <time>2026-08-27T18:30:18Z</time>
  <course>332.92</course>
  <speed>0.01414213562373095</speed>
  <fix>3d</fix>
</trkpt>
<trkpt lat="40.0727046" lon="-105.2308673">
  <ele>1594.7</ele>
  <time>2026-08-27T18:30:18Z</time>
  <course>42.9</course>
  <speed>0.01</speed>
  <fix>3d</fix>
</trkpt>
<trkpt lat="40.0727048" lon="-105.2308676">
  <ele>1594.59</ele>
  <time>2026-08-27T18:30:18Z</time>
  <course>332.88</course>
  <speed>0.01414213562373095</speed>
  <fix>3d</fix>
</trkpt>
<trkpt lat="40.0727046" lon="-105.2308673">
  <ele>1594.6</ele>
  <time>2026-08-27T18:30:18Z</time>
  <course>37.82</course>
  <speed>0.01</speed>
  <fix>3d</fix>
</trkpt>
<trkpt lat="40.0727048" lon="-105.2308676">
  <ele>1594.49</ele>
  <time>2026-08-27T18:30:18Z</time>
  <course>332.88</course>
  <speed>0.01414213562373095</speed>
  <fix>3d</fix>
</trkpt>
<trkpt lat="40.0727047" lon="-105.2308673">
  <ele>1594.49</ele>
  <time>2026-08-27T18:30:18Z</time>
  <course>30.55</course>
  <speed>0.01</speed>
  <fix>3d</fix>
</trkpt>
<trkpt lat="40.0727048" lon="-105.2308676">
  <ele>1594.39</ele>
  <time>2026-08-27T18:30:18Z</time>
  <course>332.86</course>
  <speed>0.022360679774997897</speed>
  <fix>3d</fix>
</trkpt>
<trkpt lat="40.0727047" lon="-105.2308673">
  <ele>1594.38</ele>
  <time>2026-08-27T18:30:18Z</time>
  <course>19.96</course>
  <speed>0.01</speed>
  <fix>3d</fix>
</trkpt>
<trkpt lat="40.0727048" lon="-105.2308676">
  <ele>1594.29</ele>
  <time>2026-08-27T18:30:18Z</time>
  <course>332.86</course>
  <speed>0.022360679774997897</speed>
  <fix>3d</fix>
</trkpt>
<trkpt lat="40.0727047" lon="-105.2308673">
  <ele>1594.29</ele>
  <time>2026-08-27T18:30:18Z</time>
  <course>6.39</course>
  <speed>0.01</speed>
  <fix>3d</fix>
</trkpt>
<trkpt lat="40.0727048" lon="-105.2308676">
  <ele>1594.19</ele>
  <time>2026-08-27T18:30:18Z</time>
  <course>332.84</course>
  <speed>0.022360679774997897</speed>
  <fix>3d</fix>
</trkpt>
<trkpt lat="40.0727047" lon="-105.2308673">
  <ele>1594.19</ele>
  <time>2026-08-27T18:30:18Z</time>
  <course>349.58</course>
  <speed>0.0</speed>
  <fix>3d</fix>
</trkpt>
<trkpt lat="40.0727048" lon="-105.2308676">
  <ele>1594.09</ele>
  <time>2026-08-27T18:30:18Z</time>
  <course>332.84</course>
  <speed>0.0316227766016838</speed>
  <fix>3d</fix>
</trkpt>
<trkpt lat="40.0727047" lon="-105.2308673">
  <ele>1594.09</ele>
  <time>2026-08-27T18:30:18Z</time>
  <course>330.17</course>
  <speed>0.0</speed>
  <fix>3d</fix>
</trkpt>
<trkpt lat="40.0727048" lon="-105.2308676">
  <ele>1593.99</ele>
  <time>2026-08-27T18:30:18Z</time>
  <course>332.82</course>
  <speed>0.03</speed>
  <fix>3d</fix>
</trkpt>
<trkpt lat="40.0727048" lon="-105.2308673">
  <ele>1593.99</ele>
  <time>2026-08-27T18:30:18Z</time>
  <course>312.14</course>
  <speed>0.0</speed>
  <fix>3d</fix>
</trkpt>
<trkpt lat="40.0727048" lon="-105.2308676">
  <ele>1593.89</ele>
  <time>2026-08-27T18:30:18Z</time>
  <course>332.8</course>
  <speed>0.03</speed>
  <fix>3d</fix>
</trkpt>
<trkpt lat="40.0727049" lon="-105.2308673">
  <ele>1593.88</ele>
  <time>2026-08-27T18:30:18Z</time>
  <course>299.66</course>
  <speed>0.0</speed>
  <fix>3d</fix>
</trkpt>
<trkpt lat="40.0727048" lon="-105.2308676">
  <ele>1593.78</ele>
  <time>2026-08-27T18:30:18Z</time>
  <course>332.8</course>
  <speed>0.03</speed>
  <fix>3d</fix>
</trkpt>
<trkpt lat="40.0727049" lon="-105.2308673">
  <ele>1593.79</ele>
  <time>2026-08-27T18:30:18Z</time>
  <course>290.55</course>
  <speed>0.0</speed>
  <fix>3d</fix>
</trkpt>
<trkpt lat="40.0727048" lon="-105.2308676">
  <ele>1593.68</ele>
  <time>2026-08-27T18:30:18Z</time>
  <course>332.77</course>
  <speed>0.03</speed>
  <fix>3d</fix>
</trkpt>
<trkpt lat="40.0727049" lon="-105.2308673">
  <ele>1593.69</ele>
  <time>2026-08-27T18:30:18Z</time>
  <course>280.87</course>
  <speed>0.01</speed>
  <fix>3d</fix>
</trkpt>
<trkpt lat="40.0727048" lon="-105.2308676">
  <ele>1593.58</ele>
  <time>2026-08-27T18:30:18Z</time>
  <course>332.78</course>
  <speed>0.03</speed>
  <fix>3d</fix>
</trkpt>
<trkpt lat="40.0727049" lon="-105.2308673">
  <ele>1593.59</ele>
  <time>2026-08-27T18:30:18Z</time>
  <course>269.69</course>
  <speed>0.01</speed>
  <fix>3d</fix>
</trkpt>
<trkpt lat="40.0727048" lon="-105.2308676">
  <ele>1593.48</ele>
  <time>2026-08-27T18:30:18Z</time>
  <course>332.74</course>
  <speed>0.03</speed>
  <fix>3d</fix>
</trkpt>
<trkpt lat="40.0727049" lon="-105.2308673">
  <ele>1593.49</ele>
  <time>2026-08-27T18:30:18Z</time>
  <course>260.44</course>
  <speed>0.01</speed>
  <fix>3d</fix>
</trkpt>
<trkpt lat="40.0727048" lon="-105.2308676">
  <ele>1593.38</ele>
  <time>2026-08-27T18:30:18Z</time>
  <course>332.73</course>
  <speed>0.03</speed>
  <fix>3d</fix>
</trkpt>
<trkpt lat="40.0727049" lon="-105.2308673">
  <ele>1593.39</ele>
  <time>2026-08-27T18:30:18Z</time>
  <course>251.5</course>
  <speed>0.01</speed>
  <fix>3d</fix>
</trkpt>
<trkpt lat="40.0727048" lon="-105.2308677">
  <ele>1593.28</ele>
  <time>2026-08-27T18:30:18Z</time>
  <course>332.74</course>
  <speed>0.03</speed>
  <fix>3d</fix>
</trkpt>
<trkpt lat="40.0727049" lon="-105.2308674">
  <ele>1593.3</ele>
  <time>2026-08-27T18:30:18Z</time>
  <course>243.34</course>
  <speed>0.01</speed>
  <fix>3d</fix>
</trkpt>
<trkpt lat="40.0727048" lon="-105.2308677">
  <ele>1593.18</ele>
  <time>2026-08-27T18:30:18Z</time>
  <course>332.73</course>
  <speed>0.03</speed>
  <fix>3d</fix>
</trkpt>
<trkpt lat="40.0727049" lon="-105.2308675">
  <ele>1593.2</ele>
  <time>2026-08-27T18:30:18Z</time>
  <course>236.8</course>
  <speed>0.01</speed>
  <fix>3d</fix>
</trkpt>
<trkpt lat="40.0727048" lon="-105.2308677">
  <ele>1593.08</ele>
  <time>2026-08-27T18:30:18Z</time>
  <course>332.72</course>
  <speed>0.03</speed>
  <fix>3d</fix>
</trkpt>
<trkpt lat="40.0727049" lon="-105.2308675">
  <ele>1593.1</ele>
  <time>2026-08-27T18:30:18Z</time>
  <course>231.61</course>
  <speed>0.01</speed>
  <fix>3d</fix>
</trkpt>
<trkpt lat="40.0727048" lon="-105.2308677">
  <ele>1592.99</ele>
  <time>2026-08-27T18:30:18Z</time>
  <course>332.74</course>
  <speed>0.03</speed>
  <fix>3d</fix>
</trkpt>
<trkpt lat="40.0727049" lon="-105.2308675">
  <ele>1593.0</ele>
  <time>2026-08-27T18:30:18Z</time>
  <course>227.27</course>
  <speed>0.01</speed>
  <fix>3d</fix>
</trkpt>
<trkpt lat="40.0727048" lon="-105.2308677">
  <ele>1592.89</ele>
  <time>2026-08-27T18:30:18Z</time>
  <course>332.7</course>
  <speed>0.03</speed>
  <fix>3d</fix>
</trkpt>
<trkpt lat="40.0727049" lon="-105.2308676">
  <ele>1592.89</ele>
  <time>2026-08-27T18:30:18Z</time>
  <course>222.49</course>
  <speed>0.01</speed>
  <fix>3d</fix>
</trkpt>
<trkpt lat="40.0727048" lon="-105.2308678">
  <ele>1592.79</ele>
  <time>2026-08-27T18:30:18Z</time>
  <course>332.71</course>
  <speed>0.03</speed>
  <fix>3d</fix>
</trkpt>
<trkpt lat="40.0727048" lon="-105.2308676">
  <ele>1592.8</ele>
  <time>2026-08-27T18:30:18Z</time>
  <course>217.66</course>
  <speed>0.01</speed>
  <fix>3d</fix>
</trkpt>
<trkpt lat="40.0727048" lon="-105.2308678">
  <ele>1592.69</ele>
  <time>2026-08-27T18:30:18Z</time>
  <course>332.71</course>
  <speed>0.03</speed>
  <fix>3d</fix>
</trkpt>
<trkpt lat="40.0727047" lon="-105.2308676">
  <ele>1592.71</ele>
  <time>2026-08-27T18:30:18Z</time>
  <course>212.51</course>
  <speed>0.01</speed>
  <fix>3d</fix>
</trkpt>
<trkpt lat="40.0727048" lon="-105.2308678">
  <ele>1592.59</ele>
  <time>2026-08-27T18:30:18Z</time>
  <course>332.67</course>
  <speed>0.02</speed>
  <fix>3d</fix>
</trkpt>
<trkpt lat="40.0727047" lon="-105.2308676">
  <ele>1592.61</ele>
  <time>2026-08-27T18:30:18Z</time>
  <course>206.9</course>
  <speed>0.01</speed>
  <fix>3d</fix>
</trkpt>
<trkpt lat="40.0727048" lon="-105.2308678">
  <ele>1592.49</ele>
  <time>2026-08-27T18:30:18Z</time>
  <course>332.69</course>
  <speed>0.02</speed>
  <fix>3d</fix>
</trkpt>
<trkpt lat="40.0727047" lon="-105.2308676">
  <ele>1592.51</ele>
  <time>2026-08-27T18:30:18Z</time>
  <course>202.62</course>
  <speed>0.01</speed>
  <fix>3d</fix>
</trkpt>
<trkpt lat="40.0727048" lon="-105.2308678">
  <ele>1592.38</ele>
  <time>2026-08-27T18:30:18Z</time>
  <course>332.67</course>
  <speed>0.02</speed>
  <fix>3d</fix>
</trkpt>
<trkpt lat="40.0727047" lon="-105.2308676">
  <ele>1592.4</ele>
  <time>2026-08-27T18:30:18Z</time>
  <course>199.2</course>
  <speed>0.01</speed>
  <fix>3d</fix>
</trkpt>
<trkpt lat="40.0727048" lon="-105.2308678">
  <ele>1592.28</ele>
  <time>2026-08-27T18:30:18Z</time>
  <course>332.66</course>
  <speed>0.02</speed>
  <fix>3d</fix>
</trkpt>
<trkpt lat="40.0727047" lon="-105.2308676">
  <ele>1592.31</ele>
  <time>2026-08-27T18:30:18Z</time>
  <course>196.13</course>
  <speed>0.01</speed>
  <fix>3d</fix>
</trkpt>
<trkpt lat="40.0727048" lon="-105.2308678">
  <ele>1592.18</ele>
  <time>2026-08-27T18:30:18Z</time>
  <course>332.63</course>
  <speed>0.02</speed>
  <fix>3d</fix>
</trkpt>
<trkpt lat="40.0727046" lon="-105.2308676">
  <ele>1592.21</ele>
  <time>2026-08-27T18:30:18Z</time>
  <course>194.29</course>
  <speed>0.0</speed>
  <fix>3d</fix>
</trkpt>
<trkpt lat="40.0727047" lon="-105.2308678">
  <ele>1592.08</ele>
  <time>2026-08-27T18:30:18Z</time>
  <course>332.64</course>
  <speed>0.02</speed>
  <fix>3d</fix>
</trkpt>
<trkpt lat="40.0727046" lon="-105.2308676">
  <ele>1592.11</ele>
  <time>2026-08-27T18:30:18Z</time>
  <course>192.93</course>
  <speed>0.0</speed>
  <fix>3d</fix>
</trkpt>
<trkpt lat="40.0727047" lon="-105.2308678">
  <ele>1591.98</ele>
  <time>2026-08-27T18:30:18Z</time>
  <course>332.66</course>
  <speed>0.02</speed>
  <fix>3d</fix>
</trkpt>
<trkpt lat="40.0727046" lon="-105.2308676">
  <ele>1592.01</ele>
  <time>2026-08-27T18:30:18Z</time>
  <course>191.59</course>
  <speed>0.0</speed>
  <fix>3d</fix>
</trkpt>
<trkpt lat="40.0727047" lon="-105.2308678">
  <ele>1591.89</ele>
  <time>2026-08-27T18:30:18Z</time>
  <course>332.62</course>
  <speed>0.02</speed>
  <fix>3d</fix>
</trkpt>
<trkpt lat="40.0727046" lon="-105.2308676">
  <ele>1591.91</ele>
  <time>2026-08-27T18:30:18Z</time>
  <course>189.33</course>
  <speed>0.0</speed>
  <fix>3d</fix>
</trkpt>
<trkpt lat="40.0727047" lon="-105.2308678">
  <ele>1591.79</ele>
  <time>2026-08-27T18:30:18Z</time>
  <course>332.63</course>
  <speed>0.02</speed>
  <fix>3d</fix>
</trkpt>
<trkpt lat="40.0727046" lon="-105.2308676">
  <ele>1591.82</ele>
  <time>2026-08-27T18:30:18Z</time>
  <course>187.18</course>
  <speed>0.0</speed>
  <fix>3d</fix>
</trkpt>
<trkpt lat="40.0727047" lon="-105.2308678">
  <ele>1591.69</ele>
  <time>2026-08-27T18:30:18Z</time>
  <course>332.62</course>
  <speed>0.02</speed>
  <fix>3d</fix>
</trkpt>
<trkpt lat="40.0727046" lon="-105.2308676">
  <ele>1591.72</ele>
  <time>2026-08-27T18:30:18Z</time>
  <course>186.69</course>
  <speed>0.0</speed>
  <fix>3d</fix>
</trkpt>
<trkpt lat="40.0727047" lon="-105.2308678">
  <ele>1591.59</ele>
  <time>2026-08-27T18:30:18Z</time>
  <course>332.61</course>
  <speed>0.02</speed>
  <fix>3d</fix>
</trkpt>
<trkpt lat="40.0727046" lon="-105.2308676">
  <ele>1591.62</ele>
  <time>2026-08-27T18:30:18Z</time>
  <course>181.33</course>
  <speed>0.0</speed>
  <fix>3d</fix>
</trkpt>
<trkpt lat="40.0727047" lon="-105.2308678">
  <ele>1591.49</ele>
  <time>2026-08-27T18:30:18Z</time>
  <course>332.62</course>
  <speed>0.02</speed>
  <fix>3d</fix>
</trkpt>
<trkpt lat="40.0727046" lon="-105.2308676">
  <ele>1591.52</ele>
  <time>2026-08-27T18:30:18Z</time>
  <course>1.22</course>
  <speed>0.0</speed>
  <fix>3d</fix>
</trkpt>
<trkpt lat="40.0727047" lon="-105.2308678">
  <ele>1591.39</ele>
  <time>2026-08-27T18:30:19Z</time>
  <course>332.59</course>
  <speed>0.022360679774997897</speed>
  <fix>3d</fix>
</trkpt>
<trkpt lat="40.0727046" lon="-105.2308676">
  <ele>1591.41</ele>
  <time>2026-08-27T18:30:19Z</time>
  <course>1.49</course>
  <speed>0.0</speed>
  <fix>3d</fix>
</trkpt>
<trkpt lat="40.0727047" lon="-105.2308678">
  <ele>1591.29</ele>
  <time>2026-08-27T18:30:19Z</time>
  <course>332.6</course>
  <speed>0.022360679774997897</speed>
  <fix>3d</fix>
</trkpt>
<trkpt lat="40.0727046" lon="-105.2308676">
  <ele>1591.32</ele>
  <time>2026-08-27T18:30:19Z</time>
  <course>359.26</course>
  <speed>0.0</speed>
  <fix>3d</fix>
</trkpt>
<trkpt lat="40.0727047" lon="-105.2308678">
  <ele>1591.19</ele>
  <time>2026-08-27T18:30:19Z</time>
  <course>332.6</course>
  <speed>0.022360679774997897</speed>
  <fix>3d</fix>
</trkpt>
<trkpt lat="40.0727046" lon="-105.2308676">
  <ele>1591.22</ele>
  <time>2026-08-27T18:30:19Z</time>
  <course>355.95</course>
  <speed>0.0</speed>
  <fix>3d</fix>
</trkpt>
<trkpt lat="40.0727047" lon="-105.2308678">
  <ele>1591.09</ele>
  <time>2026-08-27T18:30:19Z</time>
  <course>332.59</course>
  <speed>0.022360679774997897</speed>
  <fix>3d</fix>
</trkpt>
<trkpt lat="40.0727046" lon="-105.2308676">
  <ele>1591.12</ele>
  <time>2026-08-27T18:30:19Z</time>
  <course>356.87</course>
  <speed>0.0</speed>
  <fix>3d</fix>
</trkpt>
<trkpt lat="40.0727047" lon="-105.2308678">
  <ele>1590.99</ele>
  <time>2026-08-27T18:30:19Z</time>
  <course>332.58</course>
  <speed>0.022360679774997897</speed>
  <fix>3d</fix>
</trkpt>
<trkpt lat="40.0727046" lon="-105.2308676">
  <ele>1591.02</ele>
  <time>2026-08-27T18:30:19Z</time>
  <course>0.43</course>
  <speed>0.0</speed>
  <fix>3d</fix>
</trkpt>
<trkpt lat="40.0727047" lon="-105.2308678">
  <ele>1590.89</ele>
  <time>2026-08-27T18:30:19Z</time>
  <course>332.58</course>
  <speed>0.022360679774997897</speed>
  <fix>3d</fix>
</trkpt>
<trkpt lat="40.0727046" lon="-105.2308676">
  <ele>1590.91</ele>
  <time>2026-08-27T18:30:19Z</time>
  <course>3.54</course>
  <speed>0.0</speed>
  <fix>3d</fix>
</trkpt>
<trkpt lat="40.0727047" lon="-105.2308678">
  <ele>1590.79</ele>
  <time>2026-08-27T18:30:19Z</time>
  <course>332.59</course>
  <speed>0.022360679774997897</speed>
  <fix>3d</fix>
</trkpt>
<trkpt lat="40.0727046" lon="-105.2308676">
  <ele>1590.82</ele>
  <time>2026-08-27T18:30:19Z</time>
  <course>2.88</course>
  <speed>0.0</speed>
  <fix>3d</fix>
</trkpt>
<trkpt lat="40.0727047" lon="-105.2308678">
  <ele>1590.69</ele>
  <time>2026-08-27T18:30:19Z</time>
  <course>332.55</course>
  <speed>0.022360679774997897</speed>
  <fix>3d</fix>
</trkpt>
<trkpt lat="40.0727046" lon="-105.2308676">
  <ele>1590.72</ele>
  <time>2026-08-27T18:30:19Z</time>
  <course>3.43</course>
  <speed>0.0</speed>
  <fix>3d</fix>
</trkpt>
<trkpt lat="40.0727047" lon="-105.2308678">
  <ele>1590.59</ele>
  <time>2026-08-27T18:30:19Z</time>
  <course>332.54</course>
  <speed>0.022360679774997897</speed>
  <fix>3d</fix>
</trkpt>
<trkpt lat="40.0727046" lon="-105.2308676">
  <ele>1590.62</ele>
  <time>2026-08-27T18:30:19Z</time>
  <course>5.78</course>
  <speed>0.0</speed>
  <fix>3d</fix>
</trkpt>
<trkpt lat="40.0727047" lon="-105.2308678">
  <ele>1590.49</ele>
  <time>2026-08-27T18:30:19Z</time>
  <course>332.55</course>
  <speed>0.022360679774997897</speed>
  <fix>3d</fix>
</trkpt>
<trkpt lat="40.0727046" lon="-105.2308676">
  <ele>1590.52</ele>
  <time>2026-08-27T18:30:19Z</time>
  <course>4.23</course>
  <speed>0.0</speed>
  <fix>3d</fix>
</trkpt>
<trkpt lat="40.0727047" lon="-105.2308678">
  <ele>1590.39</ele>
  <time>2026-08-27T18:30:19Z</time>
  <course>332.54</course>
  <speed>0.022360679774997897</speed>
  <fix>3d</fix>
</trkpt>
<trkpt lat="40.0727046" lon="-105.2308676">
  <ele>1590.41</ele>
  <time>2026-08-27T18:30:19Z</time>
  <course>3.51</course>
  <speed>0.0</speed>
  <fix>3d</fix>
</trkpt>
<trkpt lat="40.0727047" lon="-105.2308678">
  <ele>1590.28</ele>
  <time>2026-08-27T18:30:19Z</time>
  <course>332.53</course>
  <speed>0.022360679774997897</speed>
  <fix>3d</fix>
</trkpt>
<trkpt lat="40.0727046" lon="-105.2308676">
  <ele>1590.32</ele>
  <time>2026-08-27T18:30:19Z</time>
  <course>3.43</course>
  <speed>0.0</speed>
  <fix>3d</fix>
</trkpt>
<trkpt lat="40.0727047" lon="-105.2308678">
  <ele>1590.18</ele>
  <time>2026-08-27T18:30:19Z</time>
  <course>332.55</course>
  <speed>0.022360679774997897</speed>
  <fix>3d</fix>
</trkpt>
<trkpt lat="40.0727046" lon="-105.2308676">
  <ele>1590.22</ele>
  <time>2026-08-27T18:30:19Z</time>
  <course>2.6</course>
  <speed>0.0</speed>
  <fix>3d</fix>
</trkpt>
<trkpt lat="40.0727047" lon="-105.2308678">
  <ele>1590.08</ele>
  <time>2026-08-27T18:30:19Z</time>
  <course>332.5</course>
  <speed>0.022360679774997897</speed>
  <fix>3d</fix>
</trkpt>
<trkpt lat="40.0727046" lon="-105.2308676">
  <ele>1590.12</ele>
  <time>2026-08-27T18:30:19Z</time>
  <course>5.15</course>
  <speed>0.0</speed>
  <fix>3d</fix>
</trkpt>
<trkpt lat="40.0727047" lon="-105.2308678">
  <ele>1589.98</ele>
  <time>2026-08-27T18:30:19Z</time>
  <course>332.5</course>
  <speed>0.022360679774997897</speed>
  <fix>3d</fix>
</trkpt>
<trkpt lat="40.0727046" lon="-105.2308676">
  <ele>1590.02</ele>
  <time>2026-08-27T18:30:19Z</time>
  <course>4.68</course>
  <speed>0.0</speed>
  <fix>3d</fix>
</trkpt>
<trkpt lat="40.0727047" lon="-105.2308678">
  <ele>1589.88</ele>
  <time>2026-08-27T18:30:19Z</time>
  <course>332.51</course>
  <speed>0.02</speed>
  <fix>3d</fix>
</trkpt>
<trkpt lat="40.0727046" lon="-105.2308676">
  <ele>1589.91</ele>
  <time>2026-08-27T18:30:19Z</time>
  <course>2.54</course>
  <speed>0.0</speed>
  <fix>3d</fix>
</trkpt>
<trkpt lat="40.0727047" lon="-105.2308678">
  <ele>1589.78</ele>
  <time>2026-08-27T18:30:19Z</time>
  <course>332.49</course>
  <speed>0.02</speed>
  <fix>3d</fix>
</trkpt>
<trkpt lat="40.0727046" lon="-105.2308676">
  <ele>1589.82</ele>
  <time>2026-08-27T18:30:19Z</time>
  <course>6.11</course>
  <speed>0.0</speed>
  <fix>3d</fix>
</trkpt>
<trkpt lat="40.0727047" lon="-105.2308678">
  <ele>1589.68</ele>
  <time>2026-08-27T18:30:19Z</time>
  <course>332.49</course>
  <speed>0.02</speed>
  <fix>3d</fix>
</trkpt>
<trkpt lat="40.0727046" lon="-105.2308676">
  <ele>1589.72</ele>
  <time>2026-08-27T18:30:19Z</time>
  <course>9.45</course>
  <speed>0.0</speed>
  <fix>3d</fix>
</trkpt>
<trkpt lat="40.0727047" lon="-105.2308678">
  <ele>1589.58</ele>
  <time>2026-08-27T18:30:19Z</time>
  <course>332.5</course>
  <speed>0.02</speed>
  <fix>3d</fix>
</trkpt>
<trkpt lat="40.0727046" lon="-105.2308676">
  <ele>1589.62</ele>
  <time>2026-08-27T18:30:19Z</time>
  <course>7.3</course>
  <speed>0.0</speed>
  <fix>3d</fix>
</trkpt>
<trkpt lat="40.0727047" lon="-105.2308678">
  <ele>1589.49</ele>
  <time>2026-08-27T18:30:19Z</time>
  <course>332.48</course>
  <speed>0.02</speed>
  <fix>3d</fix>
</trkpt>
<trkpt lat="40.0727047" lon="-105.2308676">
  <ele>1589.53</ele>
  <time>2026-08-27T18:30:19Z</time>
  <course>7.33</course>
  <speed>0.0</speed>
  <fix>3d</fix>
</trkpt>
<trkpt lat="40.0727047" lon="-105.2308678">
  <ele>1589.39</ele>
  <time>2026-08-27T18:30:19Z</time>
  <course>332.49</course>
  <speed>0.02</speed>
  <fix>3d</fix>
</trkpt>
<trkpt lat="40.0727047" lon="-105.2308676">
  <ele>1589.42</ele>
  <time>2026-08-27T18:30:19Z</time>
  <course>9.9</course>
  <speed>0.0</speed>
  <fix>3d</fix>
</trkpt>
<trkpt lat="40.0727047" lon="-105.2308678">
  <ele>1589.3</ele>
  <time>2026-08-27T18:30:19Z</time>
  <course>332.5</course>
  <speed>0.02</speed>
  <fix>3d</fix>
</trkpt>
<trkpt lat="40.0727047" lon="-105.2308676">
  <ele>1589.33</ele>
  <time>2026-08-27T18:30:19Z</time>
  <course>11.28</course>
  <speed>0.0</speed>
  <fix>3d</fix>
</trkpt>
<trkpt lat="40.0727047" lon="-105.2308678">
  <ele>1589.19</ele>
  <time>2026-08-27T18:30:19Z</time>
  <course>332.49</course>
  <speed>0.02</speed>
  <fix>3d</fix>
</trkpt>
<trkpt lat="40.0727047" lon="-105.2308676">
  <ele>1589.23</ele>
  <time>2026-08-27T18:30:19Z</time>
  <course>13.1</course>
  <speed>0.0</speed>
  <fix>3d</fix>
</trkpt>
<trkpt lat="40.0727047" lon="-105.2308678">
  <ele>1589.09</ele>
  <time>2026-08-27T18:30:19Z</time>
  <course>332.49</course>
  <speed>0.02</speed>
  <fix>3d</fix>
</trkpt>
<trkpt lat="40.0727047" lon="-105.2308676">
  <ele>1589.13</ele>
  <time>2026-08-27T18:30:19Z</time>
  <course>16.01</course>
  <speed>0.0</speed>
  <fix>3d</fix>
</trkpt>
<trkpt lat="40.0727047" lon="-105.2308678">
  <ele>1588.99</ele>
  <time>2026-08-27T18:30:19Z</time>
  <course>332.47</course>
  <speed>0.02</speed>
  <fix>3d</fix>
</trkpt>
<trkpt lat="40.0727047" lon="-105.2308676">
  <ele>1589.03</ele>
  <time>2026-08-27T18:30:19Z</time>
  <course>22.19</course>
  <speed>0.0</speed>
  <fix>3d</fix>
</trkpt>
<trkpt lat="40.0727047" lon="-105.2308678">
  <ele>1588.89</ele>
  <time>2026-08-27T18:30:19Z</time>
  <course>332.47</course>
  <speed>0.02</speed>
  <fix>3d</fix>
</trkpt>
<trkpt lat="40.0727047" lon="-105.2308676">
  <ele>1588.92</ele>
  <time>2026-08-27T18:30:19Z</time>
  <course>31.57</course>
  <speed>0.0</speed>
  <fix>3d</fix>
</trkpt>
<trkpt lat="40.0727047" lon="-105.2308678">
  <ele>1588.8</ele>
  <time>2026-08-27T18:30:19Z</time>
  <course>332.47</course>
  <speed>0.02</speed>
  <fix>3d</fix>
</trkpt>
<trkpt lat="40.0727047" lon="-105.2308676">
  <ele>1588.83</ele>
  <time>2026-08-27T18:30:19Z</time>
  <course>41.6</course>
  <speed>0.0</speed>
  <fix>3d</fix>
</trkpt>
<trkpt lat="40.0727047" lon="-105.2308678">
  <ele>1588.7</ele>
  <time>2026-08-27T18:30:19Z</time>
  <course>332.46</course>
  <speed>0.02</speed>
  <fix>3d</fix>
</trkpt>
<trkpt lat="40.0727047" lon="-105.2308676">
  <ele>1588.72</ele>
  <time>2026-08-27T18:30:19Z</time>
  <course>51.09</course>
  <speed>0.0</speed>
  <fix>3d</fix>
</trkpt>
<trkpt lat="40.0727047" lon="-105.2308678">
  <ele>1588.6</ele>
  <time>2026-08-27T18:30:19Z</time>
  <course>332.46</course>
  <speed>0.02</speed>
  <fix>3d</fix>
</trkpt>
<trkpt lat="40.0727047" lon="-105.2308676">
  <ele>1588.62</ele>
  <time>2026-08-27T18:30:19Z</time>
  <course>63.57</course>
  <speed>0.0</speed>
  <fix>3d</fix>
</trkpt>
<trkpt lat="40.0727047" lon="-105.2308678">
  <ele>1588.5</ele>
  <time>2026-08-27T18:30:19Z</time>
  <course>332.46</course>
  <speed>0.02</speed>
  <fix>3d</fix>
</trkpt>
<trkpt lat="40.0727047" lon="-105.2308676">
  <ele>1588.52</ele>
  <time>2026-08-27T18:30:19Z</time>
  <course>74.75</course>
  <speed>0.0</speed>
  <fix>3d</fix>
</trkpt>
<trkpt lat="40.0727047" lon="-105.2308678">
  <ele>1588.39</ele>
  <time>2026-08-27T18:30:19Z</time>
  <course>332.46</course>
  <speed>0.02</speed>
  <fix>3d</fix>
</trkpt>
<trkpt lat="40.0727047" lon="-105.2308676">
  <ele>1588.41</ele>
  <time>2026-08-27T18:30:19Z</time>
  <course>79.46</course>
  <speed>0.0</speed>
  <fix>3d</fix>
</trkpt>
<trkpt lat="40.0727047" lon="-105.2308678">
  <ele>1588.3</ele>
  <time>2026-08-27T18:30:19Z</time>
  <course>332.44</course>
  <speed>0.02</speed>
  <fix>3d</fix>
</trkpt>
<trkpt lat="40.0727047" lon="-105.2308676">
  <ele>1588.32</ele>
  <time>2026-08-27T18:30:19Z</time>
  <course>83.22</course>
  <speed>0.0</speed>
  <fix>3d</fix>
</trkpt>
<trkpt lat="40.0727047" lon="-105.2308678">
  <ele>1588.2</ele>
  <time>2026-08-27T18:30:19Z</time>
  <course>332.43</course>
  <speed>0.02</speed>
  <fix>3d</fix>
</trkpt>
<trkpt lat="40.0727047" lon="-105.2308676">
  <ele>1588.22</ele>
  <time>2026-08-27T18:30:19Z</time>
  <course>86.94</course>
  <speed>0.0</speed>
  <fix>3d</fix>
</trkpt>
<trkpt lat="40.0727047" lon="-105.2308678">
  <ele>1588.1</ele>
  <time>2026-08-27T18:30:19Z</time>
  <course>332.45</course>
  <speed>0.02</speed>
  <fix>3d</fix>
</trkpt>
<trkpt lat="40.0727047" lon="-105.2308676">
  <ele>1588.11</ele>
  <time>2026-08-27T18:30:19Z</time>
  <course>95.92</course>
  <speed>0.0</speed>
  <fix>3d</fix>
</trkpt>
<trkpt lat="40.0727047" lon="-105.2308678">
  <ele>1588.0</ele>
  <time>2026-08-27T18:30:19Z</time>
  <course>332.44</course>
  <speed>0.02</speed>
  <fix>3d</fix>
</trkpt>
<trkpt lat="40.0727047" lon="-105.2308676">
  <ele>1588.01</ele>
  <time>2026-08-27T18:30:19Z</time>
  <course>99.37</course>
  <speed>0.0</speed>
  <fix>3d</fix>
</trkpt>
<trkpt lat="40.0727047" lon="-105.2308678">
  <ele>1587.89</ele>
  <time>2026-08-27T18:30:19Z</time>
  <course>332.43</course>
  <speed>0.02</speed>
  <fix>3d</fix>
</trkpt>
<trkpt lat="40.0727047" lon="-105.2308676">
  <ele>1587.9</ele>
  <time>2026-08-27T18:30:19Z</time>
  <course>96.56</course>
  <speed>0.0</speed>
  <fix>3d</fix>
</trkpt>
<trkpt lat="40.0727047" lon="-105.2308678">
  <ele>1587.79</ele>
  <time>2026-08-27T18:30:19Z</time>
  <course>332.42</course>
  <speed>0.02</speed>
  <fix>3d</fix>
</trkpt>
<trkpt lat="40.0727047" lon="-105.2308676">
  <ele>1587.81</ele>
  <time>2026-08-27T18:30:19Z</time>
  <course>100.54</course>
  <speed>0.0</speed>
  <fix>3d</fix>
</trkpt>
<trkpt lat="40.0727047" lon="-105.2308678">
  <ele>1587.7</ele>
  <time>2026-08-27T18:30:19Z</time>
  <course>332.43</course>
  <speed>0.02</speed>
  <fix>3d</fix>
</trkpt>
<trkpt lat="40.0727047" lon="-105.2308676">
  <ele>1587.71</ele>
  <time>2026-08-27T18:30:19Z</time>
  <course>109.96</course>
  <speed>0.0</speed>
  <fix>3d</fix>
</trkpt>
<trkpt lat="40.0727047" lon="-105.2308678">
  <ele>1587.6</ele>
  <time>2026-08-27T18:30:19Z</time>
  <course>332.42</course>
  <speed>0.02</speed>
  <fix>3d</fix>
</trkpt>
<trkpt lat="40.0727047" lon="-105.2308676">
  <ele>1587.6</ele>
  <time>2026-08-27T18:30:19Z</time>
  <course>118.0</course>
  <speed>0.0</speed>
  <fix>3d</fix>
</trkpt>
<trkpt lat="40.0727047" lon="-105.2308678">
  <ele>1587.5</ele>
  <time>2026-08-27T18:30:19Z</time>
  <course>332.42</course>
  <speed>0.02</speed>
  <fix>3d</fix>
</trkpt>
<trkpt lat="40.0727047" lon="-105.2308676">
  <ele>1587.5</ele>
  <time>2026-08-27T18:30:19Z</time>
  <course>123.82</course>
  <speed>0.0</speed>
  <fix>3d</fix>
</trkpt>
<trkpt lat="40.0727047" lon="-105.2308678">
  <ele>1587.39</ele>
  <time>2026-08-27T18:30:19Z</time>
  <course>332.4</course>
  <speed>0.02</speed>
  <fix>3d</fix>
</trkpt>
<trkpt lat="40.0727047" lon="-105.2308676">
  <ele>1587.39</ele>
  <time>2026-08-27T18:30:19Z</time>
  <course>124.39</course>
  <speed>0.0</speed>
  <fix>3d</fix>
</trkpt>
<trkpt lat="40.0727047" lon="-105.2308678">
  <ele>1587.29</ele>
  <time>2026-08-27T18:30:19Z</time>
  <course>332.39</course>
  <speed>0.02</speed>
  <fix>3d</fix>
</trkpt>
<trkpt lat="40.0727047" lon="-105.2308676">
  <ele>1587.3</ele>
  <time>2026-08-27T18:30:19Z</time>
  <course>120.9</course>
  <speed>0.0</speed>
  <fix>3d</fix>
</trkpt>
<trkpt lat="40.0727047" lon="-105.2308678">
  <ele>1587.19</ele>
  <time>2026-08-27T18:30:19Z</time>
  <course>332.41</course>
  <speed>0.02</speed>
  <fix>3d</fix>
</trkpt>
<trkpt lat="40.0727047" lon="-105.2308676">
  <ele>1587.2</ele>
  <time>2026-08-27T18:30:19Z</time>
  <course>124.45</course>
  <speed>0.0</speed>
  <fix>3d</fix>
</trkpt>
<trkpt lat="40.0727047" lon="-105.2308678">
  <ele>1587.09</ele>
  <time>2026-08-27T18:30:19Z</time>
  <course>332.4</course>
  <speed>0.02</speed>
  <fix>3d</fix>
</trkpt>
<trkpt lat="40.0727047" lon="-105.2308676">
  <ele>1587.1</ele>
  <time>2026-08-27T18:30:19Z</time>
  <course>130.17</course>
  <speed>0.0</speed>
  <fix>3d</fix>
</trkpt>
<trkpt lat="40.0727047" lon="-105.2308678">
  <ele>1586.99</ele>
  <time>2026-08-27T18:30:19Z</time>
  <course>332.38</course>
  <speed>0.02</speed>
  <fix>3d</fix>
</trkpt>
<trkpt lat="40.0727047" lon="-105.2308676">
  <ele>1586.99</ele>
  <time>2026-08-27T18:30:19Z</time>
  <course>121.86</course>
  <speed>0.0</speed>
  <fix>3d</fix>
</trkpt>
<trkpt lat="40.0727047" lon="-105.2308678">
  <ele>1586.89</ele>
  <time>2026-08-27T18:30:19Z</time>
  <course>332.38</course>
  <speed>0.02</speed>
  <fix>3d</fix>
</trkpt>
<trkpt lat="40.0727047" lon="-105.2308676">
  <ele>1586.88</ele>
  <time>2026-08-27T18:30:19Z</time>
  <course>117.97</course>
  <speed>0.0</speed>
  <fix>3d</fix>
</trkpt>
<trkpt lat="40.0727047" lon="-105.2308678">
  <ele>1586.79</ele>
  <time>2026-08-27T18:30:19Z</time>
  <course>332.37</course>
  <speed>0.02</speed>
  <fix>3d</fix>
</trkpt>
<trkpt lat="40.0727047" lon="-105.2308676">
  <ele>1586.79</ele>
  <time>2026-08-27T18:30:19Z</time>
  <course>123.17</course>
  <speed>0.0</speed>
  <fix>3d</fix>
</trkpt>
<trkpt lat="40.0727047" lon="-105.2308678">
  <ele>1586.69</ele>
  <time>2026-08-27T18:30:19Z</time>
  <course>332.38</course>
  <speed>0.02</speed>
  <fix>3d</fix>
</trkpt>
<trkpt lat="40.0727047" lon="-105.2308676">
  <ele>1586.69</ele>
  <time>2026-08-27T18:30:19Z</time>
  <course>123.9</course>
  <speed>0.0</speed>
  <fix>3d</fix>
</trkpt>
<trkpt lat="40.0727047" lon="-105.2308678">
  <ele>1586.59</ele>
  <time>2026-08-27T18:30:19Z</time>
  <course>332.37</course>
  <speed>0.02</speed>
  <fix>3d</fix>
</trkpt>
<trkpt lat="40.0727047" lon="-105.2308676">
  <ele>1586.59</ele>
  <time>2026-08-27T18:30:19Z</time>
  <course>124.44</course>
  <speed>0.0</speed>
  <fix>3d</fix>
</trkpt>
<trkpt lat="40.0727047" lon="-105.2308678">
  <ele>1586.49</ele>
  <time>2026-08-27T18:30:19Z</time>
  <course>332.36</course>
  <speed>0.02</speed>
  <fix>3d</fix>
</trkpt>
<trkpt lat="40.0727047" lon="-105.2308676">
  <ele>1586.49</ele>
  <time>2026-08-27T18:30:19Z</time>
  <course>129.34</course>
  <speed>0.0</speed>
  <fix>3d</fix>
</trkpt>
<trkpt lat="40.0727047" lon="-105.2308678">
  <ele>1586.39</ele>
  <time>2026-08-27T18:30:19Z</time>
  <course>332.38</course>
  <speed>0.02</speed>
  <fix>3d</fix>
</trkpt>
<trkpt lat="40.0727047" lon="-105.2308676">
  <ele>1586.38</ele>
  <time>2026-08-27T18:30:19Z</time>
  <course>130.12</course>
  <speed>0.0</speed>
  <fix>3d</fix>
</trkpt>
<trkpt lat="40.0727047" lon="-105.2308678">
  <ele>1586.33</ele>
  <time>2026-08-27T18:30:19Z</time>
  <course>332.39</course>
  <speed>0.05</speed>
  <fix>3d</fix>
</trkpt>
<trkpt lat="40.0727047" lon="-105.2308676">
  <ele>1586.3</ele>
  <time>2026-08-27T18:30:19Z</time>
  <course>233.86</course>
  <speed>0.01</speed>
  <fix>3d</fix>
</trkpt>
<trkpt lat="40.0727047" lon="-105.2308679">
  <ele>1586.36</ele>
  <time>2026-08-27T18:30:19Z</time>
  <course>332.43</course>
  <speed>0.022360679774997897</speed>
  <fix>3d</fix>
</trkpt>
<trkpt lat="40.0727047" lon="-105.2308676">
  <ele>1586.26</ele>
  <time>2026-08-27T18:30:19Z</time>
  <course>247.2</course>
  <speed>0.01</speed>
  <fix>3d</fix>
</trkpt>
<trkpt lat="40.0727047" lon="-105.2308679">
  <ele>1586.37</ele>
  <time>2026-08-27T18:30:19Z</time>
  <course>332.46</course>
  <speed>0.02</speed>
  <fix>3d</fix>
</trkpt>
<trkpt lat="40.0727047" lon="-105.2308676">
  <ele>1586.28</ele>
  <time>2026-08-27T18:30:19Z</time>
  <course>330.4</course>
  <speed>0.0</speed>
  <fix>3d</fix>
</trkpt>
<trkpt lat="40.0727047" lon="-105.2308679">
  <ele>1586.36</ele>
  <time>2026-08-27T18:30:19Z</time>
  <course>332.5</course>
  <speed>0.02</speed>
  <fix>3d</fix>
</trkpt>
<trkpt lat="40.0727047" lon="-105.2308676">
  <ele>1586.28</ele>
  <time>2026-08-27T18:30:19Z</time>
  <course>46.08</course>
  <speed>0.0</speed>
  <fix>3d</fix>
</trkpt>
<trkpt lat="40.0727047" lon="-105.2308679">
  <ele>1586.37</ele>
  <time>2026-08-27T18:30:19Z</time>
  <course>332.53</course>
  <speed>0.02</speed>
  <fix>3d</fix>
</trkpt>
<trkpt lat="40.0727047" lon="-105.2308676">
  <ele>1586.28</ele>
  <time>2026-08-27T18:30:19Z</time>
  <course>9.71</course>
  <speed>0.0</speed>
  <fix>3d</fix>
</trkpt>
<trkpt lat="40.0727047" lon="-105.2308679">
  <ele>1586.37</ele>
  <time>2026-08-27T18:30:19Z</time>
  <course>332.56</course>
  <speed>0.02</speed>
  <fix>3d</fix>
</trkpt>
<trkpt lat="40.0727047" lon="-105.2308676">
  <ele>1586.28</ele>
  <time>2026-08-27T18:30:19Z</time>
  <course>325.53</course>
  <speed>0.0</speed>
  <fix>3d</fix>
</trkpt>
<trkpt lat="40.0727047" lon="-105.2308679">
  <ele>1586.37</ele>
  <time>2026-08-27T18:30:19Z</time>
  <course>332.59</course>
  <speed>0.02</speed>
  <fix>3d</fix>
</trkpt>
<trkpt lat="40.0727047" lon="-105.2308676">
  <ele>1586.28</ele>
  <time>2026-08-27T18:30:19Z</time>
  <course>350.91</course>
  <speed>0.0</speed>
  <fix>3d</fix>
</trkpt>
<trkpt lat="40.0727047" lon="-105.2308678">
  <ele>1586.37</ele>
  <time>2026-08-27T18:30:19Z</time>
  <course>332.61</course>
  <speed>0.02</speed>
  <fix>3d</fix>
</trkpt>
<trkpt lat="40.0727047" lon="-105.2308676">
  <ele>1586.28</ele>
  <time>2026-08-27T18:30:19Z</time>
  <course>23.67</course>
  <speed>0.0</speed>
  <fix>3d</fix>
</trkpt>
<trkpt lat="40.0727047" lon="-105.2308678">
  <ele>1586.37</ele>
  <time>2026-08-27T18:30:19Z</time>
  <course>332.64</course>
  <speed>0.02</speed>
  <fix>3d</fix>
</trkpt>
<trkpt lat="40.0727047" lon="-105.2308676">
  <ele>1586.28</ele>
  <time>2026-08-27T18:30:19Z</time>
  <course>20.79</course>
  <speed>0.0</speed>
  <fix>3d</fix>
</trkpt>
<trkpt lat="40.0727047" lon="-105.2308678">
  <ele>1586.37</ele>
  <time>2026-08-27T18:30:19Z</time>
  <course>332.66</course>
  <speed>0.02</speed>
  <fix>3d</fix>
</trkpt>
<trkpt lat="40.0727047" lon="-105.2308676">
  <ele>1586.28</ele>
  <time>2026-08-27T18:30:19Z</time>
  <course>347.01</course>
  <speed>0.0</speed>
  <fix>3d</fix>
</trkpt>
<trkpt lat="40.0727047" lon="-105.2308678">
  <ele>1586.37</ele>
  <time>2026-08-27T18:30:19Z</time>
  <course>332.68</course>
  <speed>0.01414213562373095</speed>
  <fix>3d</fix>
</trkpt>
<trkpt lat="40.0727047" lon="-105.2308676">
  <ele>1586.28</ele>
  <time>2026-08-27T18:30:19Z</time>
  <course>56.75</course>
  <speed>0.0</speed>
  <fix>3d</fix>
</trkpt>
<trkpt lat="40.0727047" lon="-105.2308678">
  <ele>1586.37</ele>
  <time>2026-08-27T18:30:19Z</time>
  <course>332.67</course>
  <speed>0.01414213562373095</speed>
  <fix>3d</fix>
</trkpt>
<trkpt lat="40.0727047" lon="-105.2308676">
  <ele>1586.28</ele>
  <time>2026-08-27T18:30:19Z</time>
  <course>65.74</course>
  <speed>0.01</speed>
  <fix>3d</fix>
</trkpt>
<trkpt lat="40.0727047" lon="-105.2308678">
  <ele>1586.37</ele>
  <time>2026-08-27T18:30:19Z</time>
  <course>332.65</course>
  <speed>0.02</speed>
  <fix>3d</fix>
</trkpt>
<trkpt lat="40.0727047" lon="-105.2308676">
  <ele>1586.28</ele>
  <time>2026-08-27T18:30:19Z</time>
  <course>74.43</course>
  <speed>0.0</speed>
  <fix>3d</fix>
</trkpt>
<trkpt lat="40.0727047" lon="-105.2308678">
  <ele>1586.37</ele>
  <time>2026-08-27T18:30:19Z</time>
  <course>332.64</course>
  <speed>0.02</speed>
  <fix>3d</fix>
</trkpt>
<trkpt lat="40.0727047" lon="-105.2308676">
  <ele>1586.28</ele>
  <time>2026-08-27T18:30:19Z</time>
  <course>178.45</course>
  <speed>0.0</speed>
  <fix>3d</fix>
</trkpt>
<trkpt lat="40.0727047" lon="-105.2308678">
  <ele>1586.37</ele>
  <time>2026-08-27T18:30:19Z</time>
  <course>332.63</course>
  <speed>0.02</speed>
  <fix>3d</fix>
</trkpt>
<trkpt lat="40.0727047" lon="-105.2308676">
  <ele>1586.28</ele>
  <time>2026-08-27T18:30:19Z</time>
  <course>214.86</course>
  <speed>0.0</speed>
  <fix>3d</fix>
</trkpt>
<trkpt lat="40.0727047" lon="-105.2308678">
  <ele>1586.37</ele>
  <time>2026-08-27T18:30:19Z</time>
  <course>332.63</course>
  <speed>0.02</speed>
  <fix>3d</fix>
</trkpt>
<trkpt lat="40.0727047" lon="-105.2308676">
  <ele>1586.28</ele>
  <time>2026-08-27T18:30:19Z</time>
  <course>199.73</course>
  <speed>0.0</speed>
  <fix>3d</fix>
</trkpt>
<trkpt lat="40.0727047" lon="-105.2308678">
  <ele>1586.37</ele>
  <time>2026-08-27T18:30:19Z</time>
  <course>332.63</course>
  <speed>0.02</speed>
  <fix>3d</fix>
</trkpt>
<trkpt lat="40.0727047" lon="-105.2308676">
  <ele>1586.28</ele>
  <time>2026-08-27T18:30:19Z</time>
  <course>200.09</course>
  <speed>0.0</speed>
  <fix>3d</fix>
</trkpt>
<trkpt lat="40.0727047" lon="-105.2308678">
  <ele>1586.37</ele>
  <time>2026-08-27T18:30:19Z</time>
  <course>332.63</course>
  <speed>0.02</speed>
  <fix>3d</fix>
</trkpt>
<trkpt lat="40.0727047" lon="-105.2308676">
  <ele>1586.28</ele>
  <time>2026-08-27T18:30:19Z</time>
  <course>200.81</course>
  <speed>0.0</speed>
  <fix>3d</fix>
</trkpt>
<trkpt lat="40.0727047" lon="-105.2308678">
  <ele>1586.37</ele>
  <time>2026-08-27T18:30:19Z</time>
  <course>332.63</course>
  <speed>0.02</speed>
  <fix>3d</fix>
</trkpt>
<trkpt lat="40.0727047" lon="-105.2308676">
  <ele>1586.28</ele>
  <time>2026-08-27T18:30:19Z</time>
  <course>214.68</course>
  <speed>0.0</speed>
  <fix>3d</fix>
</trkpt>
<trkpt lat="40.0727047" lon="-105.2308678">
  <ele>1586.37</ele>
  <time>2026-08-27T18:30:19Z</time>
  <course>332.63</course>
  <speed>0.02</speed>
  <fix>3d</fix>
</trkpt>
<trkpt lat="40.0727047" lon="-105.2308676">
  <ele>1586.28</ele>
  <time>2026-08-27T18:30:19Z</time>
  <course>229.89</course>
  <speed>0.0</speed>
  <fix>3d</fix>
</trkpt>
<trkpt lat="40.0727047" lon="-105.2308678">
  <ele>1586.37</ele>
  <time>2026-08-27T18:30:19Z</time>
  <course>332.63</course>
  <speed>0.02</speed>
  <fix>3d</fix>
</trkpt>
<trkpt lat="40.0727047" lon="-105.2308676">
  <ele>1586.28</ele>
  <time>2026-08-27T18:30:19Z</time>
  <course>198.41</course>
  <speed>0.0</speed>
  <fix>3d</fix>
</trkpt>
<trkpt lat="40.0727047" lon="-105.2308678">
  <ele>1586.37</ele>
  <time>2026-08-27T18:30:19Z</time>
  <course>332.63</course>
  <speed>0.02</speed>
  <fix>3d</fix>
</trkpt>
<trkpt lat="40.0727047" lon="-105.2308676">
  <ele>1586.28</ele>
  <time>2026-08-27T18:30:19Z</time>
  <course>173.14</course>
  <speed>0.0</speed>
  <fix>3d</fix>
</trkpt>
<trkpt lat="40.0727047" lon="-105.2308678">
  <ele>1586.37</ele>
  <time>2026-08-27T18:30:19Z</time>
  <course>332.63</course>
  <speed>0.02</speed>
  <fix>3d</fix>
</trkpt>
<trkpt lat="40.0727047" lon="-105.2308676">
  <ele>1586.28</ele>
  <time>2026-08-27T18:30:19Z</time>
  <course>279.21</course>
  <speed>0.0</speed>
  <fix>3d</fix>
</trkpt>
<trkpt lat="40.0727047" lon="-105.2308678">
  <ele>1586.37</ele>
  <time>2026-08-27T18:30:19Z</time>
  <course>332.63</course>
  <speed>0.02</speed>
  <fix>3d</fix>
</trkpt>
<trkpt lat="40.0727047" lon="-105.2308676">
  <ele>1586.28</ele>
  <time>2026-08-27T18:30:19Z</time>
  <course>240.5</course>
  <speed>0.0</speed>
  <fix>3d</fix>
</trkpt>
<trkpt lat="40.0727047" lon="-105.2308678">
  <ele>1586.37</ele>
  <time>2026-08-27T18:30:19Z</time>
  <course>332.63</course>
  <speed>0.02</speed>
  <fix>3d</fix>
</trkpt>
<trkpt lat="40.0727047" lon="-105.2308676">
  <ele>1586.28</ele>
  <time>2026-08-27T18:30:19Z</time>
  <course>227.99</course>
  <speed>0.0</speed>
  <fix>3d</fix>
</trkpt>
<trkpt lat="40.0727047" lon="-105.2308678">
  <ele>1586.38</ele>
  <time>2026-08-27T18:30:19Z</time>
  <course>332.63</course>
  <speed>0.02</speed>
  <fix>3d</fix>
</trkpt>
<trkpt lat="40.0727047" lon="-105.2308676">
  <ele>1586.28</ele>
  <time>2026-08-27T18:30:19Z</time>
  <course>233.79</course>
  <speed>0.0</speed>
  <fix>3d</fix>
</trkpt>
<trkpt lat="40.0727047" lon="-105.2308678">
  <ele>1586.38</ele>
  <time>2026-08-27T18:30:19Z</time>
  <course>332.63</course>
  <speed>0.02</speed>
  <fix>3d</fix>
</trkpt>
<trkpt lat="40.0727047" lon="-105.2308676">
  <ele>1586.28</ele>
  <time>2026-08-27T18:30:19Z</time>
  <course>234.02</course>
  <speed>0.0</speed>
  <fix>3d</fix>
</trkpt>
<trkpt lat="40.0727047" lon="-105.2308678">
  <ele>1586.38</ele>
  <time>2026-08-27T18:30:19Z</time>
  <course>332.63</course>
  <speed>0.02</speed>
  <fix>3d</fix>
</trkpt>
<trkpt lat="40.0727047" lon="-105.2308676">
  <ele>1586.28</ele>
  <time>2026-08-27T18:30:19Z</time>
  <course>231.32</course>
  <speed>0.0</speed>
  <fix>3d</fix>
</trkpt>
<trkpt lat="40.0727047" lon="-105.2308678">
  <ele>1586.37</ele>
  <time>2026-08-27T18:30:19Z</time>
  <course>332.63</course>
  <speed>0.02</speed>
  <fix>3d</fix>
</trkpt>
<trkpt lat="40.0727047" lon="-105.2308676">
  <ele>1586.28</ele>
  <time>2026-08-27T18:30:19Z</time>
  <course>229.87</course>
  <speed>0.0</speed>
  <fix>3d</fix>
</trkpt>
<trkpt lat="40.0727047" lon="-105.2308678">
  <ele>1586.37</ele>
  <time>2026-08-27T18:30:19Z</time>
  <course>332.63</course>
  <speed>0.02</speed>
  <fix>3d</fix>
</trkpt>
<trkpt lat="40.0727047" lon="-105.2308676">
  <ele>1586.28</ele>
  <time>2026-08-27T18:30:19Z</time>
  <course>228.57</course>
  <speed>0.0</speed>
  <fix>3d</fix>
</trkpt>
<trkpt lat="40.0727047" lon="-105.2308678">
  <ele>1586.37</ele>
  <time>2026-08-27T18:30:19Z</time>
  <course>332.63</course>
  <speed>0.02</speed>
  <fix>3d</fix>
</trkpt>
<trkpt lat="40.0727047" lon="-105.2308676">
  <ele>1586.28</ele>
  <time>2026-08-27T18:30:19Z</time>
  <course>226.8</course>
  <speed>0.0</speed>
  <fix>3d</fix>
</trkpt>
<trkpt lat="40.0727047" lon="-105.2308678">
  <ele>1586.37</ele>
  <time>2026-08-27T18:30:19Z</time>
  <course>332.64</course>
  <speed>0.02</speed>
  <fix>3d</fix>
</trkpt>
<trkpt lat="40.0727047" lon="-105.2308676">
  <ele>1586.28</ele>
  <time>2026-08-27T18:30:19Z</time>
  <course>224.81</course>
  <speed>0.0</speed>
  <fix>3d</fix>
</trkpt>
<trkpt lat="40.0727047" lon="-105.2308678">
  <ele>1586.37</ele>
  <time>2026-08-27T18:30:19Z</time>
  <course>332.63</course>
  <speed>0.02</speed>
  <fix>3d</fix>
</trkpt>
<trkpt lat="40.0727047" lon="-105.2308676">
  <ele>1586.28</ele>
  <time>2026-08-27T18:30:19Z</time>
  <course>222.64</course>
  <speed>0.0</speed>
  <fix>3d</fix>
</trkpt>
<trkpt lat="40.0727047" lon="-105.2308678">
  <ele>1586.37</ele>
  <time>2026-08-27T18:30:19Z</time>
  <course>332.63</course>
  <speed>0.02</speed>
  <fix>3d</fix>
</trkpt>
<trkpt lat="40.0727047" lon="-105.2308676">
  <ele>1586.28</ele>
  <time>2026-08-27T18:30:19Z</time>
  <course>220.24</course>
  <speed>0.0</speed>
  <fix>3d</fix>
</trkpt>
<trkpt lat="40.0727047" lon="-105.2308678">
  <ele>1586.36</ele>
  <time>2026-08-27T18:30:19Z</time>
  <course>332.63</course>
  <speed>0.02</speed>
  <fix>3d</fix>
</trkpt>
<trkpt lat="40.0727047" lon="-105.2308676">
  <ele>1586.28</ele>
  <time>2026-08-27T18:30:19Z</time>
  <course>217.58</course>
  <speed>0.0</speed>
  <fix>3d</fix>
</trkpt>
<trkpt lat="40.0727047" lon="-105.2308678">
  <ele>1586.36</ele>
  <time>2026-08-27T18:30:19Z</time>
  <course>332.63</course>
  <speed>0.02</speed>
  <fix>3d</fix>
</trkpt>
<trkpt lat="40.0727047" lon="-105.2308676">
  <ele>1586.28</ele>
  <time>2026-08-27T18:30:19Z</time>
  <course>214.66</course>
  <speed>0.0</speed>
  <fix>3d</fix>
</trkpt>
<trkpt lat="40.0727047" lon="-105.2308678">
  <ele>1586.36</ele>
  <time>2026-08-27T18:30:19Z</time>
  <course>332.63</course>
  <speed>0.02</speed>
  <fix>3d</fix>
</trkpt>
<trkpt lat="40.0727047" lon="-105.2308676">
  <ele>1586.28</ele>
  <time>2026-08-27T18:30:19Z</time>
  <course>211.45</course>
  <speed>0.0</speed>
  <fix>3d</fix>
</trkpt>
<trkpt lat="40.0727047" lon="-105.2308678">
  <ele>1586.35</ele>
  <time>2026-08-27T18:30:19Z</time>
  <course>332.63</course>
  <speed>0.02</speed>
  <fix>3d</fix>
</trkpt>
<trkpt lat="40.0727047" lon="-105.2308676">
  <ele>1586.28</ele>
  <time>2026-08-27T18:30:19Z</time>
  <course>207.97</course>
  <speed>0.0</speed>
  <fix>3d</fix>
</trkpt>
<trkpt lat="40.0727047" lon="-105.2308678">
  <ele>1586.35</ele>
  <time>2026-08-27T18:30:19Z</time>
  <course>332.63</course>
  <speed>0.02</speed>
  <fix>3d</fix>
</trkpt>
<trkpt lat="40.0727047" lon="-105.2308676">
  <ele>1586.28</ele>
  <time>2026-08-27T18:30:19Z</time>
  <course>204.21</course>
  <speed>0.0</speed>
  <fix>3d</fix>
</trkpt>
<trkpt lat="40.0727047" lon="-105.2308678">
  <ele>1586.35</ele>
  <time>2026-08-27T18:30:19Z</time>
  <course>332.63</course>
  <speed>0.02</speed>
  <fix>3d</fix>
</trkpt>
<trkpt lat="40.0727047" lon="-105.2308676">
  <ele>1586.28</ele>
  <time>2026-08-27T18:30:19Z</time>
  <course>200.19</course>
  <speed>0.0</speed>
  <fix>3d</fix>
</trkpt>
<trkpt lat="40.0727047" lon="-105.2308678">
  <ele>1586.35</ele>
  <time>2026-08-27T18:30:19Z</time>
  <course>332.63</course>
  <speed>0.02</speed>
  <fix>3d</fix>
</trkpt>
<trkpt lat="40.0727047" lon="-105.2308676">
  <ele>1586.28</ele>
  <time>2026-08-27T18:30:19Z</time>
  <course>195.95</course>
  <speed>0.0</speed>
  <fix>3d</fix>
</trkpt>
<trkpt lat="40.0727047" lon="-105.2308678">
  <ele>1586.35</ele>
  <time>2026-08-27T18:30:19Z</time>
  <course>332.63</course>
  <speed>0.02</speed>
  <fix>3d</fix>
</trkpt>
<trkpt lat="40.0727047" lon="-105.2308676">
  <ele>1586.28</ele>
  <time>2026-08-27T18:30:19Z</time>
  <course>191.54</course>
  <speed>0.0</speed>
  <fix>3d</fix>
</trkpt>
<trkpt lat="40.0727047" lon="-105.2308678">
  <ele>1586.35</ele>
  <time>2026-08-27T18:30:19Z</time>
  <course>332.63</course>
  <speed>0.02</speed>
  <fix>3d</fix>
</trkpt>
<trkpt lat="40.0727047" lon="-105.2308676">
  <ele>1586.28</ele>
  <time>2026-08-27T18:30:19Z</time>
  <course>187.0</course>
  <speed>0.0</speed>
  <fix>3d</fix>
</trkpt>
<trkpt lat="40.0727047" lon="-105.2308678">
  <ele>1586.34</ele>
  <time>2026-08-27T18:30:19Z</time>
  <course>332.63</course>
  <speed>0.02</speed>
  <fix>3d</fix>
</trkpt>
<trkpt lat="40.0727047" lon="-105.2308676">
  <ele>1586.28</ele>
  <time>2026-08-27T18:30:19Z</time>
  <course>182.41</course>
  <speed>0.0</speed>
  <fix>3d</fix>
</trkpt>
<trkpt lat="40.0727047" lon="-105.2308678">
  <ele>1586.34</ele>
  <time>2026-08-27T18:30:19Z</time>
  <course>332.62</course>
  <speed>0.02</speed>
  <fix>3d</fix>
</trkpt>
<trkpt lat="40.0727047" lon="-105.2308676">
  <ele>1586.28</ele>
  <time>2026-08-27T18:30:19Z</time>
  <course>177.84</course>
  <speed>0.0</speed>
  <fix>3d</fix>
</trkpt>
<trkpt lat="40.0727047" lon="-105.2308678">
  <ele>1586.34</ele>
  <time>2026-08-27T18:30:19Z</time>
  <course>332.62</course>
  <speed>0.02</speed>
  <fix>3d</fix>
</trkpt>
<trkpt lat="40.0727047" lon="-105.2308676">
  <ele>1586.28</ele>
  <time>2026-08-27T18:30:19Z</time>
  <course>173.37</course>
  <speed>0.0</speed>
  <fix>3d</fix>
</trkpt>
<trkpt lat="40.0727047" lon="-105.2308678">
  <ele>1586.34</ele>
  <time>2026-08-27T18:30:19Z</time>
  <course>332.62</course>
  <speed>0.02</speed>
  <fix>3d</fix>
</trkpt>
<trkpt lat="40.0727047" lon="-105.2308676">
  <ele>1586.28</ele>
  <time>2026-08-27T18:30:19Z</time>
  <course>169.06</course>
  <speed>0.0</speed>
  <fix>3d</fix>
</trkpt>
<trkpt lat="40.0727047" lon="-105.2308678">
  <ele>1586.34</ele>
  <time>2026-08-27T18:30:19Z</time>
  <course>332.62</course>
  <speed>0.02</speed>
  <fix>3d</fix>
</trkpt>
<trkpt lat="40.0727047" lon="-105.2308676">
  <ele>1586.28</ele>
  <time>2026-08-27T18:30:19Z</time>
  <course>164.95</course>
  <speed>0.0</speed>
  <fix>3d</fix>
</trkpt>
<trkpt lat="40.0727047" lon="-105.2308678">
  <ele>1586.34</ele>
  <time>2026-08-27T18:30:19Z</time>
  <course>332.62</course>
  <speed>0.02</speed>
  <fix>3d</fix>
</trkpt>
<trkpt lat="40.0727047" lon="-105.2308676">
  <ele>1586.28</ele>
  <time>2026-08-27T18:30:19Z</time>
  <course>161.07</course>
  <speed>0.0</speed>
  <fix>3d</fix>
</trkpt>
<trkpt lat="40.0727047" lon="-105.2308678">
  <ele>1586.34</ele>
  <time>2026-08-27T18:30:19Z</time>
  <course>332.62</course>
  <speed>0.02</speed>
  <fix>3d</fix>
</trkpt>
<trkpt lat="40.0727047" lon="-105.2308676">
  <ele>1586.28</ele>
  <time>2026-08-27T18:30:19Z</time>
  <course>157.46</course>
  <speed>0.0</speed>
  <fix>3d</fix>
</trkpt>
<trkpt lat="40.0727047" lon="-105.2308678">
  <ele>1586.34</ele>
  <time>2026-08-27T18:30:19Z</time>
  <course>332.61</course>
  <speed>0.02</speed>
  <fix>3d</fix>
</trkpt>
<trkpt lat="40.0727047" lon="-105.2308676">
  <ele>1586.28</ele>
  <time>2026-08-27T18:30:19Z</time>
  <course>154.12</course>
  <speed>0.0</speed>
  <fix>3d</fix>
</trkpt>
<trkpt lat="40.0727047" lon="-105.2308678">
  <ele>1586.34</ele>
  <time>2026-08-27T18:30:19Z</time>
  <course>332.61</course>
  <speed>0.02</speed>
  <fix>3d</fix>
</trkpt>
<trkpt lat="40.0727047" lon="-105.2308676">
  <ele>1586.28</ele>
  <time>2026-08-27T18:30:19Z</time>
  <course>151.04</course>
  <speed>0.0</speed>
  <fix>3d</fix>
</trkpt>
<trkpt lat="40.0727047" lon="-105.2308678">
  <ele>1586.34</ele>
  <time>2026-08-27T18:30:19Z</time>
  <course>332.61</course>
  <speed>0.02</speed>
  <fix>3d</fix>
</trkpt>
<trkpt lat="40.0727047" lon="-105.2308676">
  <ele>1586.28</ele>
  <time>2026-08-27T18:30:19Z</time>
  <course>148.23</course>
  <speed>0.0</speed>
  <fix>3d</fix>
</trkpt>
<trkpt lat="40.0727047" lon="-105.2308678">
  <ele>1586.33</ele>
  <time>2026-08-27T18:30:19Z</time>
  <course>332.61</course>
  <speed>0.02</speed>
  <fix>3d</fix>
</trkpt>
<trkpt lat="40.0727047" lon="-105.2308676">
  <ele>1586.28</ele>
  <time>2026-08-27T18:30:19Z</time>
  <course>145.65</course>
  <speed>0.0</speed>
  <fix>3d</fix>
</trkpt>
<trkpt lat="40.0727047" lon="-105.2308678">
  <ele>1586.33</ele>
  <time>2026-08-27T18:30:19Z</time>
  <course>332.61</course>
  <speed>0.02</speed>
  <fix>3d</fix>
</trkpt>
<trkpt lat="40.0727047" lon="-105.2308676">
  <ele>1586.28</ele>
  <time>2026-08-27T18:30:19Z</time>
  <course>143.3</course>
  <speed>0.0</speed>
  <fix>3d</fix>
</trkpt>
<trkpt lat="40.0727047" lon="-105.2308678">
  <ele>1586.33</ele>
  <time>2026-08-27T18:30:19Z</time>
  <course>332.6</course>
  <speed>0.02</speed>
  <fix>3d</fix>
</trkpt>
<trkpt lat="40.0727047" lon="-105.2308676">
  <ele>1586.28</ele>
  <time>2026-08-27T18:30:19Z</time>
  <course>141.16</course>
  <speed>0.0</speed>
  <fix>3d</fix>
</trkpt>
<trkpt lat="40.0727047" lon="-105.2308678">
  <ele>1586.33</ele>
  <time>2026-08-27T18:30:19Z</time>
  <course>332.6</course>
  <speed>0.02</speed>
  <fix>3d</fix>
</trkpt>
<trkpt lat="40.0727047" lon="-105.2308676">
  <ele>1586.28</ele>
  <time>2026-08-27T18:30:19Z</time>
  <course>139.22</course>
  <speed>0.0</speed>
  <fix>3d</fix>
</trkpt>
<trkpt lat="40.0727047" lon="-105.2308678">
  <ele>1586.33</ele>
  <time>2026-08-27T18:30:19Z</time>
  <course>332.6</course>
  <speed>0.02</speed>
  <fix>3d</fix>
</trkpt>
<trkpt lat="40.0727047" lon="-105.2308676">
  <ele>1586.28</ele>
  <time>2026-08-27T18:30:19Z</time>
  <course>147.42</course>
  <speed>0.0</speed>
  <fix>3d</fix>
</trkpt>
<trkpt lat="40.0727047" lon="-105.2308678">
  <ele>1586.33</ele>
  <time>2026-08-27T18:30:19Z</time>
  <course>332.6</course>
  <speed>0.02</speed>
  <fix>3d</fix>
</trkpt>
<trkpt lat="40.0727047" lon="-105.2308676">
  <ele>1586.28</ele>
  <time>2026-08-27T18:30:19Z</time>
  <course>159.88</course>
  <speed>0.0</speed>
  <fix>3d</fix>
</trkpt>
<trkpt lat="40.0727047" lon="-105.2308678">
  <ele>1586.33</ele>
  <time>2026-08-27T18:30:19Z</time>
  <course>332.6</course>
  <speed>0.02</speed>
  <fix>3d</fix>
</trkpt>
<trkpt lat="40.0727047" lon="-105.2308676">
  <ele>1586.28</ele>
  <time>2026-08-27T18:30:19Z</time>
  <course>160.95</course>
  <speed>0.0</speed>
  <fix>3d</fix>
</trkpt>
<trkpt lat="40.0727047" lon="-105.2308678">
  <ele>1586.34</ele>
  <time>2026-08-27T18:30:19Z</time>
  <course>333.02</course>
  <speed>0.02</speed>
  <fix>3d</fix>
</trkpt>
<trkpt lat="40.0727047" lon="-105.2308676">
  <ele>1586.28</ele>
  <time>2026-08-27T18:30:19Z</time>
  <course>235.54</course>
  <speed>0.0</speed>
  <fix>3d</fix>
</trkpt>
<trkpt lat="40.0727047" lon="-105.2308678">
  <ele>1586.34</ele>
  <time>2026-08-27T18:30:19Z</time>
  <course>333.83</course>
  <speed>0.02</speed>
  <fix>3d</fix>
</trkpt>
<trkpt lat="40.0727047" lon="-105.2308676">
  <ele>1586.28</ele>
  <time>2026-08-27T18:30:19Z</time>
  <course>236.34</course>
  <speed>0.0</speed>
  <fix>3d</fix>
</trkpt>
<trkpt lat="40.0727047" lon="-105.2308678">
  <ele>1586.34</ele>
  <time>2026-08-27T18:30:19Z</time>
  <course>334.47</course>
  <speed>0.02</speed>
  <fix>3d</fix>
</trkpt>
<trkpt lat="40.0727047" lon="-105.2308676">
  <ele>1586.28</ele>
  <time>2026-08-27T18:30:19Z</time>
  <course>140.43</course>
  <speed>0.0</speed>
  <fix>3d</fix>
</trkpt>
<trkpt lat="40.0727047" lon="-105.2308678">
  <ele>1586.35</ele>
  <time>2026-08-27T18:30:19Z</time>
  <course>334.93</course>
  <speed>0.02</speed>
  <fix>3d</fix>
</trkpt>
<trkpt lat="40.0727047" lon="-105.2308676">
  <ele>1586.28</ele>
  <time>2026-08-27T18:30:19Z</time>
  <course>82.9</course>
  <speed>0.0</speed>
  <fix>3d</fix>
</trkpt>
<trkpt lat="40.0727047" lon="-105.2308678">
  <ele>1586.35</ele>
  <time>2026-08-27T18:30:19Z</time>
  <course>335.31</course>
  <speed>0.02</speed>
  <fix>3d</fix>
</trkpt>
<trkpt lat="40.0727047" lon="-105.2308676">
  <ele>1586.28</ele>
  <time>2026-08-27T18:30:19Z</time>
  <course>122.41</course>
  <speed>0.0</speed>
  <fix>3d</fix>
</trkpt>
<trkpt lat="40.0727047" lon="-105.2308678">
  <ele>1586.36</ele>
  <time>2026-08-27T18:30:19Z</time>
  <course>335.62</course>
  <speed>0.02</speed>
  <fix>3d</fix>
</trkpt>
<trkpt lat="40.0727047" lon="-105.2308676">
  <ele>1586.28</ele>
  <time>2026-08-27T18:30:19Z</time>
  <course>125.93</course>
  <speed>0.0</speed>
  <fix>3d</fix>
</trkpt>
<trkpt lat="40.0727047" lon="-105.2308678">
  <ele>1586.37</ele>
  <time>2026-08-27T18:30:19Z</time>
  <course>335.89</course>
  <speed>0.02</speed>
  <fix>3d</fix>
</trkpt>
<trkpt lat="40.0727047" lon="-105.2308676">
  <ele>1586.28</ele>
  <time>2026-08-27T18:30:19Z</time>
  <course>114.62</course>
  <speed>0.0</speed>
  <fix>3d</fix>
</trkpt>
<trkpt lat="40.0727047" lon="-105.2308678">
  <ele>1586.37</ele>
  <time>2026-08-27T18:30:19Z</time>
  <course>336.12</course>
  <speed>0.02</speed>
  <fix>3d</fix>
</trkpt>
<trkpt lat="40.0727047" lon="-105.2308676">
  <ele>1586.28</ele>
  <time>2026-08-27T18:30:19Z</time>
  <course>115.45</course>
  <speed>0.0</speed>
  <fix>3d</fix>
</trkpt>
<trkpt lat="40.0727047" lon="-105.2308678">
  <ele>1586.37</ele>
  <time>2026-08-27T18:30:19Z</time>
  <course>336.31</course>
  <speed>0.02</speed>
  <fix>3d</fix>
</trkpt>
<trkpt lat="40.0727047" lon="-105.2308676">
  <ele>1586.28</ele>
  <time>2026-08-27T18:30:19Z</time>
  <course>116.74</course>
  <speed>0.0</speed>
  <fix>3d</fix>
</trkpt>
<trkpt lat="40.0727047" lon="-105.2308678">
  <ele>1586.37</ele>
  <time>2026-08-27T18:30:19Z</time>
  <course>336.49</course>
  <speed>0.01</speed>
  <fix>3d</fix>
</trkpt>
<trkpt lat="40.0727047" lon="-105.2308676">
  <ele>1586.28</ele>
  <time>2026-08-27T18:30:19Z</time>
  <course>116.47</course>
  <speed>0.0</speed>
  <fix>3d</fix>
</trkpt>
<trkpt lat="40.0727047" lon="-105.2308678">
  <ele>1586.37</ele>
  <time>2026-08-27T18:30:20Z</time>
  <course>336.64</course>
  <speed>0.01</speed>
  <fix>3d</fix>
</trkpt>
<trkpt lat="40.0727047" lon="-105.2308676">
  <ele>1586.28</ele>
  <time>2026-08-27T18:30:20Z</time>
  <course>116.33</course>
  <speed>0.0</speed>
  <fix>3d</fix>
</trkpt>
<trkpt lat="40.0727047" lon="-105.2308678">
  <ele>1586.37</ele>
  <time>2026-08-27T18:30:20Z</time>
  <course>336.77</course>
  <speed>0.01</speed>
  <fix>3d</fix>
</trkpt>
<trkpt lat="40.0727047" lon="-105.2308676">
  <ele>1586.28</ele>
  <time>2026-08-27T18:30:20Z</time>
  <course>116.38</course>
  <speed>0.0</speed>
  <fix>3d</fix>
</trkpt>
<trkpt lat="40.0727047" lon="-105.2308678">
  <ele>1586.37</ele>
  <time>2026-08-27T18:30:20Z</time>
  <course>336.89</course>
  <speed>0.01</speed>
  <fix>3d</fix>
</trkpt>
<trkpt lat="40.0727047" lon="-105.2308676">
  <ele>1586.28</ele>
  <time>2026-08-27T18:30:20Z</time>
  <course>116.39</course>
  <speed>0.0</speed>
  <fix>3d</fix>
</trkpt>
<trkpt lat="40.0727047" lon="-105.2308678">
  <ele>1586.37</ele>
  <time>2026-08-27T18:30:20Z</time>
  <course>337.0</course>
  <speed>0.01</speed>
  <fix>3d</fix>
</trkpt>
<trkpt lat="40.0727047" lon="-105.2308676">
  <ele>1586.28</ele>
  <time>2026-08-27T18:30:20Z</time>
  <course>116.39</course>
  <speed>0.0</speed>
  <fix>3d</fix>
</trkpt>
<trkpt lat="40.0727047" lon="-105.2308678">
  <ele>1586.37</ele>
  <time>2026-08-27T18:30:20Z</time>
  <course>337.09</course>
  <speed>0.01</speed>
  <fix>3d</fix>
</trkpt>
<trkpt lat="40.0727047" lon="-105.2308676">
  <ele>1586.28</ele>
  <time>2026-08-27T18:30:20Z</time>
  <course>116.39</course>
  <speed>0.0</speed>
  <fix>3d</fix>
</trkpt>
<trkpt lat="40.0727047" lon="-105.2308678">
  <ele>1586.36</ele>
  <time>2026-08-27T18:30:20Z</time>
  <course>337.39</course>
  <speed>0.01</speed>
  <fix>3d</fix>
</trkpt>
<trkpt lat="40.0727047" lon="-105.2308676">
  <ele>1586.28</ele>
  <time>2026-08-27T18:30:20Z</time>
  <course>116.39</course>
  <speed>0.0</speed>
  <fix>3d</fix>
</trkpt>
<trkpt lat="40.0727047" lon="-105.2308678">
  <ele>1586.36</ele>
  <time>2026-08-27T18:30:20Z</time>
  <course>337.45</course>
  <speed>0.01</speed>
  <fix>3d</fix>
</trkpt>
<trkpt lat="40.0727047" lon="-105.2308676">
  <ele>1586.28</ele>
  <time>2026-08-27T18:30:20Z</time>
  <course>116.39</course>
  <speed>0.0</speed>
  <fix>3d</fix>
</trkpt>
<trkpt lat="40.0727047" lon="-105.2308678">
  <ele>1586.35</ele>
  <time>2026-08-27T18:30:20Z</time>
  <course>337.51</course>
  <speed>0.01</speed>
  <fix>3d</fix>
</trkpt>
<trkpt lat="40.0727047" lon="-105.2308676">
  <ele>1586.28</ele>
  <time>2026-08-27T18:30:20Z</time>
  <course>116.39</course>
  <speed>0.0</speed>
  <fix>3d</fix>
</trkpt>
<trkpt lat="40.0727047" lon="-105.2308678">
  <ele>1586.35</ele>
  <time>2026-08-27T18:30:20Z</time>
  <course>337.56</course>
  <speed>0.01</speed>
  <fix>3d</fix>
</trkpt>
<trkpt lat="40.0727047" lon="-105.2308676">
  <ele>1586.28</ele>
  <time>2026-08-27T18:30:20Z</time>
  <course>116.39</course>
  <speed>0.0</speed>
  <fix>3d</fix>
</trkpt>
<trkpt lat="40.0727047" lon="-105.2308678">
  <ele>1586.35</ele>
  <time>2026-08-27T18:30:20Z</time>
  <course>337.61</course>
  <speed>0.01</speed>
  <fix>3d</fix>
</trkpt>
<trkpt lat="40.0727047" lon="-105.2308676">
  <ele>1586.28</ele>
  <time>2026-08-27T18:30:20Z</time>
  <course>116.39</course>
  <speed>0.0</speed>
  <fix>3d</fix>
</trkpt>
<trkpt lat="40.0727047" lon="-105.2308678">
  <ele>1586.35</ele>
  <time>2026-08-27T18:30:20Z</time>
  <course>337.65</course>
  <speed>0.01</speed>
  <fix>3d</fix>
</trkpt>
<trkpt lat="40.0727047" lon="-105.2308676">
  <ele>1586.28</ele>
  <time>2026-08-27T18:30:20Z</time>
  <course>116.39</course>
  <speed>0.0</speed>
  <fix>3d</fix>
</trkpt>
<trkpt lat="40.0727047" lon="-105.2308678">
  <ele>1586.35</ele>
  <time>2026-08-27T18:30:20Z</time>
  <course>337.69</course>
  <speed>0.01</speed>
  <fix>3d</fix>
</trkpt>
<trkpt lat="40.0727047" lon="-105.2308676">
  <ele>1586.28</ele>
  <time>2026-08-27T18:30:20Z</time>
  <course>116.38</course>
  <speed>0.0</speed>
  <fix>3d</fix>
</trkpt>
<trkpt lat="40.0727047" lon="-105.2308678">
  <ele>1586.36</ele>
  <time>2026-08-27T18:30:20Z</time>
  <course>337.73</course>
  <speed>0.01</speed>
  <fix>3d</fix>
</trkpt>
<trkpt lat="40.0727047" lon="-105.2308676">
  <ele>1586.28</ele>
  <time>2026-08-27T18:30:20Z</time>
  <course>116.38</course>
  <speed>0.0</speed>
  <fix>3d</fix>
</trkpt>
<trkpt lat="40.0727047" lon="-105.2308678">
  <ele>1586.36</ele>
  <time>2026-08-27T18:30:20Z</time>
  <course>337.76</course>
  <speed>0.01</speed>
  <fix>3d</fix>
</trkpt>
<trkpt lat="40.0727047" lon="-105.2308676">
  <ele>1586.28</ele>
  <time>2026-08-27T18:30:20Z</time>
  <course>116.38</course>
  <speed>0.0</speed>
  <fix>3d</fix>
</trkpt>
<trkpt lat="40.0727047" lon="-105.2308678">
  <ele>1586.37</ele>
  <time>2026-08-27T18:30:20Z</time>
  <course>337.79</course>
  <speed>0.01</speed>
  <fix>3d</fix>
</trkpt>
<trkpt lat="40.0727047" lon="-105.2308676">
  <ele>1586.28</ele>
  <time>2026-08-27T18:30:20Z</time>
  <course>116.38</course>
  <speed>0.0</speed>
  <fix>3d</fix>
</trkpt>
<trkpt lat="40.0727047" lon="-105.2308678">
  <ele>1586.37</ele>
  <time>2026-08-27T18:30:20Z</time>
  <course>337.82</course>
  <speed>0.01</speed>
  <fix>3d</fix>
</trkpt>
<trkpt lat="40.0727047" lon="-105.2308676">
  <ele>1586.28</ele>
  <time>2026-08-27T18:30:20Z</time>
  <course>116.38</course>
  <speed>0.0</speed>
  <fix>3d</fix>
</trkpt>
<trkpt lat="40.0727047" lon="-105.2308678">
  <ele>1586.38</ele>
  <time>2026-08-27T18:30:20Z</time>
  <course>337.85</course>
  <speed>0.01</speed>
  <fix>3d</fix>
</trkpt>
<trkpt lat="40.0727047" lon="-105.2308676">
  <ele>1586.28</ele>
  <time>2026-08-27T18:30:20Z</time>
  <course>116.38</course>
  <speed>0.0</speed>
  <fix>3d</fix>
</trkpt>
<trkpt lat="39.6566745" lon="-104.1377265">
  <ele>1569.61</ele>
  <time>2026-08-27T18:30:20Z</time>
  <course>247.54</course>
  <speed>0.0</speed>
  <fix>3d</fix>
</trkpt>
<trkpt lat="40.072842" lon="-105.230575">
  <ele>1586.09</ele>
  <time>2026-08-27T18:30:20Z</time>
  <course>4.22</course>
  <speed>0.0</speed>
  <fix>3d</fix>
</trkpt>
<trkpt lat="40.072842" lon="-105.230575">
  <ele>1586.09</ele>
  <time>2026-08-27T18:30:20Z</time>
  <course>201.62</course>
  <speed>0.0</speed>
  <fix>3d</fix>
</trkpt>
<trkpt lat="40.072842" lon="-105.230575">
  <ele>1586.09</ele>
  <time>2026-08-27T18:30:20Z</time>
  <course>4.62</course>
  <speed>0.0</speed>
  <fix>3d</fix>
</trkpt>
<trkpt lat="40.072842" lon="-105.230575">
  <ele>1586.09</ele>
  <time>2026-08-27T18:30:20Z</time>
  <course>309.16</course>
  <speed>0.0</speed>
  <fix>3d</fix>
</trkpt>
<trkpt lat="40.072842" lon="-105.230575">
  <ele>1586.09</ele>
  <time>2026-08-27T18:30:20Z</time>
  <course>5.4</course>
  <speed>0.0</speed>
  <fix>3d</fix>
</trkpt>
<trkpt lat="40.072842" lon="-105.230575">
  <ele>1586.09</ele>
  <time>2026-08-27T18:30:20Z</time>
  <course>17.18</course>
  <speed>0.0</speed>
  <fix>3d</fix>
</trkpt>
<trkpt lat="40.072842" lon="-105.230575">
  <ele>1586.09</ele>
  <time>2026-08-27T18:30:20Z</time>
  <course>6.14</course>
  <speed>0.0</speed>
  <fix>3d</fix>
</trkpt>
<trkpt lat="40.072842" lon="-105.230575">
  <ele>1586.09</ele>
  <time>2026-08-27T18:30:20Z</time>
  <course>45.49</course>
  <speed>0.0</speed>
  <fix>3d</fix>
</trkpt>
<trkpt lat="40.072842" lon="-105.230575">
  <ele>1586.09</ele>
  <time>2026-08-27T18:30:20Z</time>
  <course>6.83</course>
  <speed>0.0</speed>
  <fix>3d</fix>
</trkpt>
<trkpt lat="40.072842" lon="-105.230575">
  <ele>1586.09</ele>
  <time>2026-08-27T18:30:20Z</time>
  <course>343.37</course>
  <speed>0.0</speed>
  <fix>3d</fix>
</trkpt>
<trkpt lat="40.072842" lon="-105.230575">
  <ele>1586.09</ele>
  <time>2026-08-27T18:30:20Z</time>
  <course>7.5</course>
  <speed>0.0</speed>
  <fix>3d</fix>
</trkpt>
<trkpt lat="40.072842" lon="-105.230575">
  <ele>1586.09</ele>
  <time>2026-08-27T18:30:20Z</time>
  <course>330.72</course>
  <speed>0.0</speed>
  <fix>3d</fix>
</trkpt>
<trkpt lat="40.072842" lon="-105.230575">
  <ele>1586.09</ele>
  <time>2026-08-27T18:30:20Z</time>
  <course>8.15</course>
  <speed>0.0</speed>
  <fix>3d</fix>
</trkpt>
<trkpt lat="40.072842" lon="-105.230575">
  <ele>1586.09</ele>
  <time>2026-08-27T18:30:20Z</time>
  <course>241.18</course>
  <speed>0.0</speed>
  <fix>3d</fix>
</trkpt>
<trkpt lat="40.072842" lon="-105.230575">
  <ele>1586.09</ele>
  <time>2026-08-27T18:30:20Z</time>
  <course>8.76</course>
  <speed>0.0</speed>
  <fix>3d</fix>
</trkpt>
<trkpt lat="40.072842" lon="-105.230575">
  <ele>1586.09</ele>
  <time>2026-08-27T18:30:20Z</time>
  <course>243.85</course>
  <speed>0.0</speed>
  <fix>3d</fix>
</trkpt>
<trkpt lat="40.072842" lon="-105.230575">
  <ele>1586.09</ele>
  <time>2026-08-27T18:30:20Z</time>
  <course>9.36</course>
  <speed>0.0</speed>
  <fix>3d</fix>
</trkpt>
<trkpt lat="40.072842" lon="-105.230575">
  <ele>1586.09</ele>
  <time>2026-08-27T18:30:20Z</time>
  <course>220.29</course>
  <speed>0.0</speed>
  <fix>3d</fix>
</trkpt>
<trkpt lat="40.072842" lon="-105.230575">
  <ele>1586.09</ele>
  <time>2026-08-27T18:30:20Z</time>
  <course>9.92</course>
  <speed>0.0</speed>
  <fix>3d</fix>
</trkpt>
<trkpt lat="40.072842" lon="-105.230575">
  <ele>1586.09</ele>
  <time>2026-08-27T18:30:20Z</time>
  <course>185.56</course>
  <speed>0.0</speed>
  <fix>3d</fix>
</trkpt>
<trkpt lat="40.072842" lon="-105.230575">
  <ele>1586.09</ele>
  <time>2026-08-27T18:30:20Z</time>
  <course>10.45</course>
  <speed>0.0</speed>
  <fix>3d</fix>
</trkpt>
<trkpt lat="40.072842" lon="-105.230575">
  <ele>1586.09</ele>
  <time>2026-08-27T18:30:20Z</time>
  <course>1.38</course>
  <speed>0.0</speed>
  <fix>3d</fix>
</trkpt>
<trkpt lat="40.072842" lon="-105.230575">
  <ele>1586.09</ele>
  <time>2026-08-27T18:30:20Z</time>
  <course>10.96</course>
  <speed>0.0</speed>
  <fix>3d</fix>
</trkpt>
<trkpt lat="40.072842" lon="-105.230575">
  <ele>1586.09</ele>
  <time>2026-08-27T18:30:20Z</time>
  <course>23.38</course>
  <speed>0.0</speed>
  <fix>3d</fix>
</trkpt>
<trkpt lat="40.072842" lon="-105.230575">
  <ele>1586.09</ele>
  <time>2026-08-27T18:30:20Z</time>
  <course>11.44</course>
  <speed>0.0</speed>
  <fix>3d</fix>
</trkpt>
<trkpt lat="40.072842" lon="-105.230575">
  <ele>1586.09</ele>
  <time>2026-08-27T18:30:20Z</time>
  <course>158.04</course>
  <speed>0.0</speed>
  <fix>3d</fix>
</trkpt>
<trkpt lat="40.072842" lon="-105.230575">
  <ele>1586.09</ele>
  <time>2026-08-27T18:30:20Z</time>
  <course>11.89</course>
  <speed>0.0</speed>
  <fix>3d</fix>
</trkpt>
<trkpt lat="40.072842" lon="-105.230575">
  <ele>1586.09</ele>
  <time>2026-08-27T18:30:20Z</time>
  <course>197.14</course>
  <speed>0.0</speed>
  <fix>3d</fix>
</trkpt>
<trkpt lat="40.072842" lon="-105.230575">
  <ele>1586.09</ele>
  <time>2026-08-27T18:30:20Z</time>
  <course>12.31</course>
  <speed>0.0</speed>
  <fix>3d</fix>
</trkpt>
<trkpt lat="40.072842" lon="-105.230575">
  <ele>1586.09</ele>
  <time>2026-08-27T18:30:20Z</time>
  <course>170.99</course>
  <speed>0.0</speed>
  <fix>3d</fix>
</trkpt>
<trkpt lat="40.072842" lon="-105.230575">
  <ele>1586.09</ele>
  <time>2026-08-27T18:30:20Z</time>
  <course>12.71</course>
  <speed>0.0</speed>
  <fix>3d</fix>
</trkpt>
<trkpt lat="40.072842" lon="-105.230575">
  <ele>1586.09</ele>
  <time>2026-08-27T18:30:20Z</time>
  <course>133.82</course>
  <speed>0.0</speed>
  <fix>3d</fix>
</trkpt>
<trkpt lat="40.072842" lon="-105.230575">
  <ele>1586.09</ele>
  <time>2026-08-27T18:30:20Z</time>
  <course>13.09</course>
  <speed>0.0</speed>
  <fix>3d</fix>
</trkpt>
<trkpt lat="40.072842" lon="-105.230575">
  <ele>1586.09</ele>
  <time>2026-08-27T18:30:20Z</time>
  <course>324.53</course>
  <speed>0.0</speed>
  <fix>3d</fix>
</trkpt>
<trkpt lat="40.072842" lon="-105.230575">
  <ele>1586.09</ele>
  <time>2026-08-27T18:30:20Z</time>
  <course>13.44</course>
  <speed>0.0</speed>
  <fix>3d</fix>
</trkpt>
<trkpt lat="40.072842" lon="-105.230575">
  <ele>1586.09</ele>
  <time>2026-08-27T18:30:20Z</time>
  <course>244.44</course>
  <speed>0.0</speed>
  <fix>3d</fix>
</trkpt>
<trkpt lat="40.072842" lon="-105.230575">
  <ele>1586.09</ele>
  <time>2026-08-27T18:30:20Z</time>
  <course>13.77</course>
  <speed>0.0</speed>
  <fix>3d</fix>
</trkpt>
<trkpt lat="40.072842" lon="-105.230575">
  <ele>1586.09</ele>
  <time>2026-08-27T18:30:20Z</time>
  <course>344.93</course>
  <speed>0.0</speed>
  <fix>3d</fix>
</trkpt>
<trkpt lat="40.072842" lon="-105.230575">
  <ele>1586.09</ele>
  <time>2026-08-27T18:30:20Z</time>
  <course>14.08</course>
  <speed>0.0</speed>
  <fix>3d</fix>
</trkpt>
<trkpt lat="40.072842" lon="-105.230575">
  <ele>1586.09</ele>
  <time>2026-08-27T18:30:20Z</time>
  <course>332.41</course>
  <speed>0.0</speed>
  <fix>3d</fix>
</trkpt>
<trkpt lat="40.072842" lon="-105.230575">
  <ele>1586.09</ele>
  <time>2026-08-27T18:30:20Z</time>
  <course>14.36</course>
  <speed>0.0</speed>
  <fix>3d</fix>
</trkpt>
<trkpt lat="40.072842" lon="-105.230575">
  <ele>1586.09</ele>
  <time>2026-08-27T18:30:20Z</time>
  <course>309.21</course>
  <speed>0.0</speed>
  <fix>3d</fix>
</trkpt>
<trkpt lat="40.072842" lon="-105.230575">
  <ele>1586.09</ele>
  <time>2026-08-27T18:30:20Z</time>
  <course>14.63</course>
  <speed>0.0</speed>
  <fix>3d</fix>
</trkpt>
<trkpt lat="40.072842" lon="-105.230575">
  <ele>1586.09</ele>
  <time>2026-08-27T18:30:20Z</time>
  <course>170.04</course>
  <speed>0.0</speed>
  <fix>3d</fix>
</trkpt>
<trkpt lat="40.072842" lon="-105.230575">
  <ele>1586.09</ele>
  <time>2026-08-27T18:30:20Z</time>
  <course>14.89</course>
  <speed>0.0</speed>
  <fix>3d</fix>
</trkpt>
<trkpt lat="40.072842" lon="-105.230575">
  <ele>1586.09</ele>
  <time>2026-08-27T18:30:20Z</time>
  <course>140.18</course>
  <speed>0.0</speed>
  <fix>3d</fix>
</trkpt>
<trkpt lat="40.072842" lon="-105.230575">
  <ele>1586.09</ele>
  <time>2026-08-27T18:30:21Z</time>
  <course>15.13</course>
  <speed>0.0</speed>
  <fix>3d</fix>
</trkpt>
<trkpt lat="40.072842" lon="-105.230575">
  <ele>1586.09</ele>
  <time>2026-08-27T18:30:21Z</time>
  <course>303.33</course>
  <speed>0.0</speed>
  <fix>3d</fix>
</trkpt>
<trkpt lat="40.072842" lon="-105.230575">
  <ele>1586.09</ele>
  <time>2026-08-27T18:30:21Z</time>
  <course>15.35</course>
  <speed>0.0</speed>
  <fix>3d</fix>
</trkpt>
<trkpt lat="40.072842" lon="-105.230575">
  <ele>1586.09</ele>
  <time>2026-08-27T18:30:21Z</time>
  <course>271.91</course>
  <speed>0.0</speed>
  <fix>3d</fix>
</trkpt>
<trkpt lat="40.072842" lon="-105.230575">
  <ele>1586.09</ele>
  <time>2026-08-27T18:30:21Z</time>
  <course>15.55</course>
  <speed>0.0</speed>
  <fix>3d</fix>
</trkpt>
<trkpt lat="40.072842" lon="-105.230575">
  <ele>1586.09</ele>
  <time>2026-08-27T18:30:21Z</time>
  <course>265.83</course>
  <speed>0.0</speed>
  <fix>3d</fix>
</trkpt>
<trkpt lat="40.072842" lon="-105.230575">
  <ele>1586.09</ele>
  <time>2026-08-27T18:30:21Z</time>
  <course>15.74</course>
  <speed>0.0</speed>
  <fix>3d</fix>
</trkpt>
<trkpt lat="40.072842" lon="-105.230575">
  <ele>1586.09</ele>
  <time>2026-08-27T18:30:21Z</time>
  <course>274.0</course>
  <speed>0.0</speed>
  <fix>3d</fix>
</trkpt>
<trkpt lat="40.072842" lon="-105.230575">
  <ele>1586.09</ele>
  <time>2026-08-27T18:30:21Z</time>
  <course>15.92</course>
  <speed>0.0</speed>
  <fix>3d</fix>
</trkpt>
<trkpt lat="40.072842" lon="-105.230575">
  <ele>1586.09</ele>
  <time>2026-08-27T18:30:21Z</time>
  <course>273.8</course>
  <speed>0.0</speed>
  <fix>3d</fix>
</trkpt>
<trkpt lat="40.072842" lon="-105.230575">
  <ele>1586.09</ele>
  <time>2026-08-27T18:30:21Z</time>
  <course>16.09</course>
  <speed>0.0</speed>
  <fix>3d</fix>
</trkpt>
<trkpt lat="40.072842" lon="-105.230575">
  <ele>1586.09</ele>
  <time>2026-08-27T18:30:21Z</time>
  <course>272.81</course>
  <speed>0.0</speed>
  <fix>3d</fix>
</trkpt>
<trkpt lat="40.072842" lon="-105.230575">
  <ele>1586.09</ele>
  <time>2026-08-27T18:30:21Z</time>
  <course>16.24</course>
  <speed>0.0</speed>
  <fix>3d</fix>
</trkpt>
<trkpt lat="40.072842" lon="-105.230575">
  <ele>1586.09</ele>
  <time>2026-08-27T18:30:21Z</time>
  <course>272.96</course>
  <speed>0.0</speed>
  <fix>3d</fix>
</trkpt>
<trkpt lat="40.072842" lon="-105.230575">
  <ele>1586.09</ele>
  <time>2026-08-27T18:30:21Z</time>
  <course>16.39</course>
  <speed>0.0</speed>
  <fix>3d</fix>
</trkpt>
<trkpt lat="40.072842" lon="-105.230575">
  <ele>1586.09</ele>
  <time>2026-08-27T18:30:21Z</time>
  <course>273.08</course>
  <speed>0.0</speed>
  <fix>3d</fix>
</trkpt>
<trkpt lat="40.072842" lon="-105.230575">
  <ele>1586.09</ele>
  <time>2026-08-27T18:30:21Z</time>
  <course>16.52</course>
  <speed>0.0</speed>
  <fix>3d</fix>
</trkpt>
<trkpt lat="40.072842" lon="-105.230575">
  <ele>1586.09</ele>
  <time>2026-08-27T18:30:21Z</time>
  <course>273.04</course>
  <speed>0.0</speed>
  <fix>3d</fix>
</trkpt>
<trkpt lat="40.072842" lon="-105.230575">
  <ele>1586.09</ele>
  <time>2026-08-27T18:30:21Z</time>
  <course>16.65</course>
  <speed>0.0</speed>
  <fix>3d</fix>
</trkpt>
<trkpt lat="40.072842" lon="-105.230575">
  <ele>1586.09</ele>
  <time>2026-08-27T18:30:21Z</time>
  <course>273.03</course>
  <speed>0.0</speed>
  <fix>3d</fix>
</trkpt>
<trkpt lat="40.072842" lon="-105.230575">
  <ele>1586.09</ele>
  <time>2026-08-27T18:30:21Z</time>
  <course>16.77</course>
  <speed>0.0</speed>
  <fix>3d</fix>
</trkpt>
<trkpt lat="40.072842" lon="-105.230575">
  <ele>1586.09</ele>
  <time>2026-08-27T18:30:21Z</time>
  <course>273.04</course>
  <speed>0.0</speed>
  <fix>3d</fix>
</trkpt>
<trkpt lat="40.072842" lon="-105.230575">
  <ele>1586.09</ele>
  <time>2026-08-27T18:30:21Z</time>
  <course>16.88</course>
  <speed>0.0</speed>
  <fix>3d</fix>
</trkpt>
<trkpt lat="40.072842" lon="-105.230575">
  <ele>1586.09</ele>
  <time>2026-08-27T18:30:21Z</time>
  <course>273.04</course>
  <speed>0.0</speed>
  <fix>3d</fix>
</trkpt>
<trkpt lat="40.072842" lon="-105.230575">
  <ele>1586.09</ele>
  <time>2026-08-27T18:30:21Z</time>
  <course>16.98</course>
  <speed>0.0</speed>
  <fix>3d</fix>
</trkpt>
<trkpt lat="40.072842" lon="-105.230575">
  <ele>1586.09</ele>
  <time>2026-08-27T18:30:21Z</time>
  <course>273.04</course>
  <speed>0.0</speed>
  <fix>3d</fix>
</trkpt>
<trkpt lat="40.072842" lon="-105.230575">
  <ele>1586.09</ele>
  <time>2026-08-27T18:30:21Z</time>
  <course>17.08</course>
  <speed>0.0</speed>
  <fix>3d</fix>
</trkpt>
<trkpt lat="40.072842" lon="-105.230575">
  <ele>1586.09</ele>
  <time>2026-08-27T18:30:21Z</time>
  <course>273.04</course>
  <speed>0.0</speed>
  <fix>3d</fix>
</trkpt>
<trkpt lat="40.072842" lon="-105.230575">
  <ele>1586.09</ele>
  <time>2026-08-27T18:30:21Z</time>
  <course>17.17</course>
  <speed>0.0</speed>
  <fix>3d</fix>
</trkpt>
<trkpt lat="40.072842" lon="-105.230575">
  <ele>1586.09</ele>
  <time>2026-08-27T18:30:21Z</time>
  <course>273.04</course>
  <speed>0.0</speed>
  <fix>3d</fix>
</trkpt>
<trkpt lat="40.072842" lon="-105.230575">
  <ele>1586.09</ele>
  <time>2026-08-27T18:30:21Z</time>
  <course>17.25</course>
  <speed>0.0</speed>
  <fix>3d</fix>
</trkpt>
<trkpt lat="40.072842" lon="-105.230575">
  <ele>1586.09</ele>
  <time>2026-08-27T18:30:21Z</time>
  <course>273.04</course>
  <speed>0.0</speed>
  <fix>3d</fix>
</trkpt>
<trkpt lat="40.072842" lon="-105.230575">
  <ele>1586.09</ele>
  <time>2026-08-27T18:30:21Z</time>
  <course>17.33</course>
  <speed>0.0</speed>
  <fix>3d</fix>
</trkpt>
<trkpt lat="40.072842" lon="-105.230575">
  <ele>1586.09</ele>
  <time>2026-08-27T18:30:21Z</time>
  <course>273.04</course>
  <speed>0.0</speed>
  <fix>3d</fix>
</trkpt>
<trkpt lat="40.072842" lon="-105.230575">
  <ele>1586.09</ele>
  <time>2026-08-27T18:30:21Z</time>
  <course>17.4</course>
  <speed>0.0</speed>
  <fix>3d</fix>
</trkpt>
<trkpt lat="40.072842" lon="-105.230575">
  <ele>1586.09</ele>
  <time>2026-08-27T18:30:21Z</time>
  <course>273.04</course>
  <speed>0.0</speed>
  <fix>3d</fix>
</trkpt>
<trkpt lat="40.072842" lon="-105.230575">
  <ele>1586.09</ele>
  <time>2026-08-27T18:30:21Z</time>
  <course>17.47</course>
  <speed>0.0</speed>
  <fix>3d</fix>
</trkpt>
<trkpt lat="40.072842" lon="-105.230575">
  <ele>1586.09</ele>
  <time>2026-08-27T18:30:21Z</time>
  <course>273.04</course>
  <speed>0.0</speed>
  <fix>3d</fix>
</trkpt>
<trkpt lat="40.072842" lon="-105.230575">
  <ele>1586.09</ele>
  <time>2026-08-27T18:30:21Z</time>
  <course>17.53</course>
  <speed>0.0</speed>
  <fix>3d</fix>
</trkpt>
<trkpt lat="40.072842" lon="-105.230575">
  <ele>1586.09</ele>
  <time>2026-08-27T18:30:21Z</time>
  <course>273.04</course>
  <speed>0.0</speed>
  <fix>3d</fix>
</trkpt>
<trkpt lat="40.072842" lon="-105.230575">
  <ele>1586.09</ele>
  <time>2026-08-27T18:30:21Z</time>
  <course>17.59</course>
  <speed>0.0</speed>
  <fix>3d</fix>
</trkpt>
<trkpt lat="40.072842" lon="-105.230575">
  <ele>1586.09</ele>
  <time>2026-08-27T18:30:21Z</time>
  <course>273.04</course>
  <speed>0.0</speed>
  <fix>3d</fix>
</trkpt>
<trkpt lat="40.072842" lon="-105.230575">
  <ele>1586.09</ele>
  <time>2026-08-27T18:30:21Z</time>
  <course>17.65</course>
  <speed>0.0</speed>
  <fix>3d</fix>
</trkpt>
<trkpt lat="40.072842" lon="-105.230575">
  <ele>1586.09</ele>
  <time>2026-08-27T18:30:21Z</time>
  <course>273.04</course>
  <speed>0.0</speed>
  <fix>3d</fix>
</trkpt>
<trkpt lat="40.072842" lon="-105.230575">
  <ele>1586.09</ele>
  <time>2026-08-27T18:30:21Z</time>
  <course>17.7</course>
  <speed>0.0</speed>
  <fix>3d</fix>
</trkpt>
<trkpt lat="40.072842" lon="-105.230575">
  <ele>1586.09</ele>
  <time>2026-08-27T18:30:21Z</time>
  <course>273.04</course>
  <speed>0.0</speed>
  <fix>3d</fix>
</trkpt>
<trkpt lat="40.072842" lon="-105.230575">
  <ele>1586.09</ele>
  <time>2026-08-27T18:30:21Z</time>
  <course>17.75</course>
  <speed>0.0</speed>
  <fix>3d</fix>
</trkpt>
<trkpt lat="40.072842" lon="-105.230575">
  <ele>1586.09</ele>
  <time>2026-08-27T18:30:21Z</time>
  <course>273.04</course>
  <speed>0.0</speed>
  <fix>3d</fix>
</trkpt>
<trkpt lat="40.072842" lon="-105.230575">
  <ele>1586.09</ele>
  <time>2026-08-27T18:30:21Z</time>
  <course>17.79</course>
  <speed>0.0</speed>
  <fix>3d</fix>
</trkpt>
<trkpt lat="40.072842" lon="-105.230575">
  <ele>1586.09</ele>
  <time>2026-08-27T18:30:21Z</time>
  <course>273.04</course>
  <speed>0.0</speed>
  <fix>3d</fix>
</trkpt>
<trkpt lat="40.072842" lon="-105.230575">
  <ele>1586.09</ele>
  <time>2026-08-27T18:30:21Z</time>
  <course>17.84</course>
  <speed>0.0</speed>
  <fix>3d</fix>
</trkpt>
<trkpt lat="40.072842" lon="-105.230575">
  <ele>1586.09</ele>
  <time>2026-08-27T18:30:21Z</time>
  <course>273.04</course>
  <speed>0.0</speed>
  <fix>3d</fix>
</trkpt>
<trkpt lat="40.072842" lon="-105.230575">
  <ele>1586.09</ele>
  <time>2026-08-27T18:30:21Z</time>
  <course>17.87</course>
  <speed>0.0</speed>
  <fix>3d</fix>
</trkpt>
<trkpt lat="40.072842" lon="-105.230575">
  <ele>1586.09</ele>
  <time>2026-08-27T18:30:21Z</time>
  <course>273.04</course>
  <speed>0.0</speed>
  <fix>3d</fix>
</trkpt>
<trkpt lat="40.072842" lon="-105.230575">
  <ele>1586.09</ele>
  <time>2026-08-27T18:30:21Z</time>
  <course>17.91</course>
  <speed>0.0</speed>
  <fix>3d</fix>
</trkpt>
<trkpt lat="40.072842" lon="-105.230575">
  <ele>1586.09</ele>
  <time>2026-08-27T18:30:21Z</time>
  <course>273.04</course>
  <speed>0.0</speed>
  <fix>3d</fix>
</trkpt>
<trkpt lat="40.072842" lon="-105.230575">
  <ele>1586.09</ele>
  <time>2026-08-27T18:30:21Z</time>
  <course>17.95</course>
  <speed>0.0</speed>
  <fix>3d</fix>
</trkpt>
<trkpt lat="40.072842" lon="-105.230575">
  <ele>1586.09</ele>
  <time>2026-08-27T18:30:21Z</time>
  <course>273.04</course>
  <speed>0.0</speed>
  <fix>3d</fix>
</trkpt>
<trkpt lat="40.072842" lon="-105.230575">
  <ele>1586.09</ele>
  <time>2026-08-27T18:30:21Z</time>
  <course>17.98</course>
  <speed>0.0</speed>
  <fix>3d</fix>
</trkpt>
<trkpt lat="40.072842" lon="-105.230575">
  <ele>1586.09</ele>
  <time>2026-08-27T18:30:21Z</time>
  <course>273.04</course>
  <speed>0.0</speed>
  <fix>3d</fix>
</trkpt>
<trkpt lat="40.072842" lon="-105.230575">
  <ele>1586.09</ele>
  <time>2026-08-27T18:30:21Z</time>
  <course>18.01</course>
  <speed>0.0</speed>
  <fix>3d</fix>
</trkpt>
<trkpt lat="40.072842" lon="-105.230575">
  <ele>1586.09</ele>
  <time>2026-08-27T18:30:21Z</time>
  <course>273.04</course>
  <speed>0.0</speed>
  <fix>3d</fix>
</trkpt>
<trkpt lat="40.072842" lon="-105.230575">
  <ele>1586.09</ele>
  <time>2026-08-27T18:30:21Z</time>
  <course>18.04</course>
  <speed>0.0</speed>
  <fix>3d</fix>
</trkpt>
<trkpt lat="40.072842" lon="-105.230575">
  <ele>1586.09</ele>
  <time>2026-08-27T18:30:21Z</time>
  <course>273.04</course>
  <speed>0.0</speed>
  <fix>3d</fix>
</trkpt>
<trkpt lat="40.072842" lon="-105.230575">
  <ele>1586.09</ele>
  <time>2026-08-27T18:30:21Z</time>
  <course>18.06</course>
  <speed>0.01</speed>
  <fix>3d</fix>
</trkpt>
<trkpt lat="40.072842" lon="-105.230575">
  <ele>1586.09</ele>
  <time>2026-08-27T18:30:21Z</time>
  <course>273.04</course>
  <speed>0.0</speed>
  <fix>3d</fix>
</trkpt>
<trkpt lat="40.072842" lon="-105.230575">
  <ele>1586.09</ele>
  <time>2026-08-27T18:30:21Z</time>
  <course>18.09</course>
  <speed>0.01</speed>
  <fix>3d</fix>
</trkpt>
<trkpt lat="40.072842" lon="-105.230575">
  <ele>1586.09</ele>
  <time>2026-08-27T18:30:21Z</time>
  <course>273.04</course>
  <speed>0.0</speed>
  <fix>3d</fix>
</trkpt>
<trkpt lat="40.072842" lon="-105.230575">
  <ele>1586.09</ele>
  <time>2026-08-27T18:30:21Z</time>
  <course>18.11</course>
  <speed>0.01</speed>
  <fix>3d</fix>
</trkpt>
<trkpt lat="40.072842" lon="-105.230575">
  <ele>1586.09</ele>
  <time>2026-08-27T18:30:21Z</time>
  <course>273.04</course>
  <speed>0.0</speed>
  <fix>3d</fix>
</trkpt>
<trkpt lat="40.072842" lon="-105.230575">
  <ele>1586.09</ele>
  <time>2026-08-27T18:30:21Z</time>
  <course>18.13</course>
  <speed>0.01</speed>
  <fix>3d</fix>
</trkpt>
<trkpt lat="40.072842" lon="-105.230575">
  <ele>1586.09</ele>
  <time>2026-08-27T18:30:21Z</time>
  <course>273.04</course>
  <speed>0.0</speed>
  <fix>3d</fix>
</trkpt>
<trkpt lat="40.072842" lon="-105.230575">
  <ele>1586.09</ele>
  <time>2026-08-27T18:30:21Z</time>
  <course>18.15</course>
  <speed>0.01</speed>
  <fix>3d</fix>
</trkpt>
<trkpt lat="40.072842" lon="-105.230575">
  <ele>1586.09</ele>
  <time>2026-08-27T18:30:21Z</time>
  <course>273.04</course>
  <speed>0.0</speed>
  <fix>3d</fix>
</trkpt>
<trkpt lat="40.072842" lon="-105.230575">
  <ele>1586.09</ele>
  <time>2026-08-27T18:30:21Z</time>
  <course>18.17</course>
  <speed>0.01</speed>
  <fix>3d</fix>
</trkpt>
<trkpt lat="40.072842" lon="-105.230575">
  <ele>1586.09</ele>
  <time>2026-08-27T18:30:21Z</time>
  <course>273.04</course>
  <speed>0.0</speed>
  <fix>3d</fix>
</trkpt>
<trkpt lat="40.072842" lon="-105.230575">
  <ele>1586.09</ele>
  <time>2026-08-27T18:30:21Z</time>
  <course>18.19</course>
  <speed>0.01</speed>
  <fix>3d</fix>
</trkpt>
<trkpt lat="40.072842" lon="-105.230575">
  <ele>1586.09</ele>
  <time>2026-08-27T18:30:21Z</time>
  <course>273.04</course>
  <speed>0.0</speed>
  <fix>3d</fix>
</trkpt>
<trkpt lat="40.072842" lon="-105.230575">
  <ele>1586.09</ele>
  <time>2026-08-27T18:30:21Z</time>
  <course>18.2</course>
  <speed>0.01</speed>
  <fix>3d</fix>
</trkpt>
<trkpt lat="40.072842" lon="-105.230575">
  <ele>1586.09</ele>
  <time>2026-08-27T18:30:21Z</time>
  <course>273.04</course>
  <speed>0.0</speed>
  <fix>3d</fix>
</trkpt>
<trkpt lat="40.072842" lon="-105.230575">
  <ele>1586.09</ele>
  <time>2026-08-27T18:30:21Z</time>
  <course>18.22</course>
  <speed>0.01</speed>
  <fix>3d</fix>
</trkpt>
<trkpt lat="40.072842" lon="-105.230575">
  <ele>1586.09</ele>
  <time>2026-08-27T18:30:21Z</time>
  <course>273.04</course>
  <speed>0.0</speed>
  <fix>3d</fix>
</trkpt>
<trkpt lat="40.072842" lon="-105.230575">
  <ele>1586.09</ele>
  <time>2026-08-27T18:30:21Z</time>
  <course>18.23</course>
  <speed>0.01</speed>
  <fix>3d</fix>
</trkpt>
<trkpt lat="40.072842" lon="-105.230575">
  <ele>1586.09</ele>
  <time>2026-08-27T18:30:21Z</time>
  <course>273.04</course>
  <speed>0.0</speed>
  <fix>3d</fix>
</trkpt>
<trkpt lat="40.072842" lon="-105.230575">
  <ele>1586.09</ele>
  <time>2026-08-27T18:30:21Z</time>
  <course>18.25</course>
  <speed>0.01</speed>
  <fix>3d</fix>
</trkpt>
<trkpt lat="40.072842" lon="-105.230575">
  <ele>1586.09</ele>
  <time>2026-08-27T18:30:21Z</time>
  <course>273.04</course>
  <speed>0.0</speed>
  <fix>3d</fix>
</trkpt>
<trkpt lat="40.072842" lon="-105.230575">
  <ele>1586.09</ele>
  <time>2026-08-27T18:30:21Z</time>
  <course>18.26</course>
  <speed>0.01</speed>
  <fix>3d</fix>
</trkpt>
<trkpt lat="40.072842" lon="-105.230575">
  <ele>1586.09</ele>
  <time>2026-08-27T18:30:21Z</time>
  <course>273.04</course>
  <speed>0.0</speed>
  <fix>3d</fix>
</trkpt>
<trkpt lat="40.072842" lon="-105.230575">
  <ele>1586.09</ele>
  <time>2026-08-27T18:30:21Z</time>
  <course>18.27</course>
  <speed>0.01</speed>
  <fix>3d</fix>
</trkpt>
<trkpt lat="40.072842" lon="-105.230575">
  <ele>1586.09</ele>
  <time>2026-08-27T18:30:21Z</time>
  <course>273.04</course>
  <speed>0.0</speed>
  <fix>3d</fix>
</trkpt>
<trkpt lat="40.072842" lon="-105.230575">
  <ele>1586.09</ele>
  <time>2026-08-27T18:30:21Z</time>
  <course>18.28</course>
  <speed>0.01</speed>
  <fix>3d</fix>
</trkpt>
<trkpt lat="40.072842" lon="-105.230575">
  <ele>1586.09</ele>
  <time>2026-08-27T18:30:21Z</time>
  <course>273.04</course>
  <speed>0.0</speed>
  <fix>3d</fix>
</trkpt>
<trkpt lat="40.072842" lon="-105.230575">
  <ele>1586.09</ele>
  <time>2026-08-27T18:30:21Z</time>
  <course>18.29</course>
  <speed>0.01</speed>
  <fix>3d</fix>
</trkpt>
<trkpt lat="40.072842" lon="-105.230575">
  <ele>1586.09</ele>
  <time>2026-08-27T18:30:21Z</time>
  <course>273.04</course>
  <speed>0.0</speed>
  <fix>3d</fix>
</trkpt>
<trkpt lat="40.072842" lon="-105.230575">
  <ele>1586.09</ele>
  <time>2026-08-27T18:30:21Z</time>
  <course>18.3</course>
  <speed>0.01</speed>
  <fix>3d</fix>
</trkpt>
<trkpt lat="40.072842" lon="-105.230575">
  <ele>1586.09</ele>
  <time>2026-08-27T18:30:21Z</time>
  <course>273.04</course>
  <speed>0.0</speed>
  <fix>3d</fix>
</trkpt>
<trkpt lat="40.072842" lon="-105.230575">
  <ele>1586.09</ele>
  <time>2026-08-27T18:30:21Z</time>
  <course>18.31</course>
  <speed>0.01</speed>
  <fix>3d</fix>
</trkpt>
<trkpt lat="40.072842" lon="-105.230575">
  <ele>1586.09</ele>
  <time>2026-08-27T18:30:21Z</time>
  <course>273.04</course>
  <speed>0.0</speed>
  <fix>3d</fix>
</trkpt>
<trkpt lat="40.072842" lon="-105.230575">
  <ele>1586.09</ele>
  <time>2026-08-27T18:30:21Z</time>
  <course>18.32</course>
  <speed>0.01414213562373095</speed>
  <fix>3d</fix>
</trkpt>
<trkpt lat="40.072842" lon="-105.230575">
  <ele>1586.09</ele>
  <time>2026-08-27T18:30:21Z</time>
  <course>273.04</course>
  <speed>0.0</speed>
  <fix>3d</fix>
</trkpt>
<trkpt lat="40.072842" lon="-105.230575">
  <ele>1586.09</ele>
  <time>2026-08-27T18:30:21Z</time>
  <course>18.32</course>
  <speed>0.01414213562373095</speed>
  <fix>3d</fix>
</trkpt>
<trkpt lat="40.072842" lon="-105.230575">
  <ele>1586.09</ele>
  <time>2026-08-27T18:30:21Z</time>
  <course>273.04</course>
  <speed>0.0</speed>
  <fix>3d</fix>
</trkpt>
<trkpt lat="40.072842" lon="-105.230575">
  <ele>1586.09</ele>
  <time>2026-08-27T18:30:21Z</time>
  <course>18.33</course>
  <speed>0.01414213562373095</speed>
  <fix>3d</fix>
</trkpt>
<trkpt lat="40.072842" lon="-105.230575">
  <ele>1586.09</ele>
  <time>2026-08-27T18:30:21Z</time>
  <course>273.04</course>
  <speed>0.0</speed>
  <fix>3d</fix>
</trkpt>
<trkpt lat="40.072842" lon="-105.230575">
  <ele>1586.09</ele>
  <time>2026-08-27T18:30:21Z</time>
  <course>18.34</course>
  <speed>0.01414213562373095</speed>
  <fix>3d</fix>
</trkpt>
<trkpt lat="40.072842" lon="-105.230575">
  <ele>1586.09</ele>
  <time>2026-08-27T18:30:21Z</time>
  <course>273.04</course>
  <speed>0.0</speed>
  <fix>3d</fix>
</trkpt>
<trkpt lat="40.072842" lon="-105.230575">
  <ele>1586.09</ele>
  <time>2026-08-27T18:30:21Z</time>
  <course>18.35</course>
  <speed>0.01414213562373095</speed>
  <fix>3d</fix>
</trkpt>
<trkpt lat="40.072842" lon="-105.230575">
  <ele>1586.09</ele>
  <time>2026-08-27T18:30:21Z</time>
  <course>273.04</course>
  <speed>0.0</speed>
  <fix>3d</fix>
</trkpt>
<trkpt lat="40.072842" lon="-105.230575">
  <ele>1586.09</ele>
  <time>2026-08-27T18:30:21Z</time>
  <course>18.35</course>
  <speed>0.01414213562373095</speed>
  <fix>3d</fix>
</trkpt>
<trkpt lat="40.072842" lon="-105.230575">
  <ele>1586.09</ele>
  <time>2026-08-27T18:30:21Z</time>
  <course>273.04</course>
  <speed>0.0</speed>
  <fix>3d</fix>
</trkpt>
<trkpt lat="40.072842" lon="-105.230575">
  <ele>1586.09</ele>
  <time>2026-08-27T18:30:21Z</time>
  <course>18.36</course>
  <speed>0.01414213562373095</speed>
  <fix>3d</fix>
</trkpt>
<trkpt lat="40.072842" lon="-105.230575">
  <ele>1586.09</ele>
  <time>2026-08-27T18:30:21Z</time>
  <course>273.04</course>
  <speed>0.0</speed>
  <fix>3d</fix>
</trkpt>
<trkpt lat="40.072842" lon="-105.230575">
  <ele>1586.09</ele>
  <time>2026-08-27T18:30:21Z</time>
  <course>18.36</course>
  <speed>0.022360679774997897</speed>
  <fix>3d</fix>
</trkpt>
<trkpt lat="40.072842" lon="-105.230575">
  <ele>1586.09</ele>
  <time>2026-08-27T18:30:21Z</time>
  <course>273.04</course>
  <speed>0.0</speed>
  <fix>3d</fix>
</trkpt>
<trkpt lat="40.072842" lon="-105.230575">
  <ele>1586.09</ele>
  <time>2026-08-27T18:30:21Z</time>
  <course>18.36</course>
  <speed>0.022360679774997897</speed>
  <fix>3d</fix>
</trkpt>
<trkpt lat="40.072842" lon="-105.230575">
  <ele>1586.09</ele>
  <time>2026-08-27T18:30:21Z</time>
  <course>273.04</course>
  <speed>0.0</speed>
  <fix>3d</fix>
</trkpt>
<trkpt lat="40.072842" lon="-105.230575">
  <ele>1586.09</ele>
  <time>2026-08-27T18:30:21Z</time>
  <course>18.37</course>
  <speed>0.022360679774997897</speed>
  <fix>3d</fix>
</trkpt>
<trkpt lat="40.072842" lon="-105.230575">
  <ele>1586.09</ele>
  <time>2026-08-27T18:30:21Z</time>
  <course>273.04</course>
  <speed>0.0</speed>
  <fix>3d</fix>
</trkpt>
<trkpt lat="40.072842" lon="-105.230575">
  <ele>1586.09</ele>
  <time>2026-08-27T18:30:21Z</time>
  <course>18.37</course>
  <speed>0.022360679774997897</speed>
  <fix>3d</fix>
</trkpt>
<trkpt lat="40.072842" lon="-105.230575">
  <ele>1586.09</ele>
  <time>2026-08-27T18:30:21Z</time>
  <course>273.04</course>
  <speed>0.0</speed>
  <fix>3d</fix>
</trkpt>
<trkpt lat="40.072842" lon="-105.230575">
  <ele>1586.09</ele>
  <time>2026-08-27T18:30:21Z</time>
  <course>18.37</course>
  <speed>0.022360679774997897</speed>
  <fix>3d</fix>
</trkpt>
<trkpt lat="40.072842" lon="-105.230575">
  <ele>1586.09</ele>
  <time>2026-08-27T18:30:21Z</time>
  <course>273.04</course>
  <speed>0.0</speed>
  <fix>3d</fix>
</trkpt>
<trkpt lat="40.072842" lon="-105.230575">
  <ele>1586.09</ele>
  <time>2026-08-27T18:30:21Z</time>
  <course>18.37</course>
  <speed>0.022360679774997897</speed>
  <fix>3d</fix>
</trkpt>
<trkpt lat="40.072842" lon="-105.230575">
  <ele>1586.09</ele>
  <time>2026-08-27T18:30:21Z</time>
  <course>273.04</course>
  <speed>0.0</speed>
  <fix>3d</fix>
</trkpt>
<trkpt lat="40.072842" lon="-105.230575">
  <ele>1586.09</ele>
  <time>2026-08-27T18:30:21Z</time>
  <course>18.38</course>
  <speed>0.022360679774997897</speed>
  <fix>3d</fix>
</trkpt>
<trkpt lat="40.072842" lon="-105.230575">
  <ele>1586.09</ele>
  <time>2026-08-27T18:30:21Z</time>
  <course>273.04</course>
  <speed>0.0</speed>
  <fix>3d</fix>
</trkpt>
<trkpt lat="40.072842" lon="-105.230575">
  <ele>1586.09</ele>
  <time>2026-08-27T18:30:21Z</time>
  <course>18.38</course>
  <speed>0.022360679774997897</speed>
  <fix>3d</fix>
</trkpt>
<trkpt lat="40.072842" lon="-105.230575">
  <ele>1586.09</ele>
  <time>2026-08-27T18:30:21Z</time>
  <course>273.04</course>
  <speed>0.0</speed>
  <fix>3d</fix>
</trkpt>
<trkpt lat="40.072842" lon="-105.230575">
  <ele>1586.09</ele>
  <time>2026-08-27T18:30:21Z</time>
  <course>18.38</course>
  <speed>0.022360679774997897</speed>
  <fix>3d</fix>
</trkpt>
<trkpt lat="40.072842" lon="-105.230575">
  <ele>1586.09</ele>
  <time>2026-08-27T18:30:21Z</time>
  <course>273.04</course>
  <speed>0.0</speed>
  <fix>3d</fix>
</trkpt>
<trkpt lat="40.072842" lon="-105.230575">
  <ele>1586.09</ele>
  <time>2026-08-27T18:30:21Z</time>
  <course>18.38</course>
  <speed>0.022360679774997897</speed>
  <fix>3d</fix>
</trkpt>
<trkpt lat="40.072842" lon="-105.230575">
  <ele>1586.09</ele>
  <time>2026-08-27T18:30:21Z</time>
  <course>273.04</course>
  <speed>0.0</speed>
  <fix>3d</fix>
</trkpt>
<trkpt lat="40.072842" lon="-105.230575">
  <ele>1586.09</ele>
  <time>2026-08-27T18:30:21Z</time>
  <course>18.38</course>
  <speed>0.022360679774997897</speed>
  <fix>3d</fix>
</trkpt>
<trkpt lat="40.072842" lon="-105.230575">
  <ele>1586.09</ele>
  <time>2026-08-27T18:30:21Z</time>
  <course>273.04</course>
  <speed>0.0</speed>
  <fix>3d</fix>
</trkpt>
<trkpt lat="40.072842" lon="-105.230575">
  <ele>1586.09</ele>
  <time>2026-08-27T18:30:21Z</time>
  <course>18.38</course>
  <speed>0.022360679774997897</speed>
  <fix>3d</fix>
</trkpt>
<trkpt lat="40.072842" lon="-105.230575">
  <ele>1586.09</ele>
  <time>2026-08-27T18:30:21Z</time>
  <course>273.04</course>
  <speed>0.0</speed>
  <fix>3d</fix>
</trkpt>
<trkpt lat="40.072842" lon="-105.230575">
  <ele>1586.09</ele>
  <time>2026-08-27T18:30:21Z</time>
  <course>18.38</course>
  <speed>0.022360679774997897</speed>
  <fix>3d</fix>
</trkpt>
<trkpt lat="40.072842" lon="-105.230575">
  <ele>1586.09</ele>
  <time>2026-08-27T18:30:21Z</time>
  <course>273.04</course>
  <speed>0.0</speed>
  <fix>3d</fix>
</trkpt>
<trkpt lat="40.072842" lon="-105.230575">
  <ele>1586.09</ele>
  <time>2026-08-27T18:30:21Z</time>
  <course>18.38</course>
  <speed>0.022360679774997897</speed>
  <fix>3d</fix>
</trkpt>
<trkpt lat="40.072842" lon="-105.230575">
  <ele>1586.09</ele>
  <time>2026-08-27T18:30:21Z</time>
  <course>273.04</course>
  <speed>0.0</speed>
  <fix>3d</fix>
</trkpt>
<trkpt lat="40.072842" lon="-105.230575">
  <ele>1586.09</ele>
  <time>2026-08-27T18:30:21Z</time>
  <course>18.38</course>
  <speed>0.022360679774997897</speed>
  <fix>3d</fix>
</trkpt>
<trkpt lat="40.072842" lon="-105.230575">
  <ele>1586.09</ele>
  <time>2026-08-27T18:30:21Z</time>
  <course>273.04</course>
  <speed>0.0</speed>
  <fix>3d</fix>
</trkpt>
<trkpt lat="40.072842" lon="-105.230575">
  <ele>1586.09</ele>
  <time>2026-08-27T18:30:21Z</time>
  <course>18.38</course>
  <speed>0.022360679774997897</speed>
  <fix>3d</fix>
</trkpt>
<trkpt lat="40.072842" lon="-105.230575">
  <ele>1586.09</ele>
  <time>2026-08-27T18:30:21Z</time>
  <course>273.04</course>
  <speed>0.0</speed>
  <fix>3d</fix>
</trkpt>
<trkpt lat="40.072842" lon="-105.230575">
  <ele>1586.09</ele>
  <time>2026-08-27T18:30:21Z</time>
  <course>18.38</course>
  <speed>0.022360679774997897</speed>
  <fix>3d</fix>
</trkpt>
<trkpt lat="40.072842" lon="-105.230575">
  <ele>1586.09</ele>
  <time>2026-08-27T18:30:21Z</time>
  <course>273.04</course>
  <speed>0.0</speed>
  <fix>3d</fix>
</trkpt>
<trkpt lat="40.072842" lon="-105.230575">
  <ele>1586.09</ele>
  <time>2026-08-27T18:30:21Z</time>
  <course>18.38</course>
  <speed>0.022360679774997897</speed>
  <fix>3d</fix>
</trkpt>
<trkpt lat="40.072842" lon="-105.230575">
  <ele>1586.09</ele>
  <time>2026-08-27T18:30:21Z</time>
  <course>273.04</course>
  <speed>0.0</speed>
  <fix>3d</fix>
</trkpt>
<trkpt lat="40.072842" lon="-105.230575">
  <ele>1586.09</ele>
  <time>2026-08-27T18:30:21Z</time>
  <course>18.38</course>
  <speed>0.022360679774997897</speed>
  <fix>3d</fix>
</trkpt>
<trkpt lat="40.072842" lon="-105.230575">
  <ele>1586.09</ele>
  <time>2026-08-27T18:30:21Z</time>
  <course>273.04</course>
  <speed>0.0</speed>
  <fix>3d</fix>
</trkpt>
<trkpt lat="40.072842" lon="-105.230575">
  <ele>1586.09</ele>
  <time>2026-08-27T18:30:21Z</time>
  <course>18.38</course>
  <speed>0.022360679774997897</speed>
  <fix>3d</fix>
</trkpt>
<trkpt lat="40.072842" lon="-105.230575">
  <ele>1586.09</ele>
  <time>2026-08-27T18:30:21Z</time>
  <course>273.04</course>
  <speed>0.0</speed>
  <fix>3d</fix>
</trkpt>
<trkpt lat="40.072842" lon="-105.230575">
  <ele>1586.09</ele>
  <time>2026-08-27T18:30:21Z</time>
  <course>18.37</course>
  <speed>0.022360679774997897</speed>
  <fix>3d</fix>
</trkpt>
<trkpt lat="40.072842" lon="-105.230575">
  <ele>1586.09</ele>
  <time>2026-08-27T18:30:21Z</time>
  <course>273.04</course>
  <speed>0.0</speed>
  <fix>3d</fix>
</trkpt>
<trkpt lat="40.072842" lon="-105.230575">
  <ele>1586.09</ele>
  <time>2026-08-27T18:30:21Z</time>
  <course>18.37</course>
  <speed>0.022360679774997897</speed>
  <fix>3d</fix>
</trkpt>
<trkpt lat="40.072842" lon="-105.230575">
  <ele>1586.09</ele>
  <time>2026-08-27T18:30:21Z</time>
  <course>273.04</course>
  <speed>0.0</speed>
  <fix>3d</fix>
</trkpt>
<trkpt lat="40.072842" lon="-105.230575">
  <ele>1586.09</ele>
  <time>2026-08-27T18:30:21Z</time>
  <course>18.37</course>
  <speed>0.022360679774997897</speed>
  <fix>3d</fix>
</trkpt>
<trkpt lat="40.072842" lon="-105.230575">
  <ele>1586.09</ele>
  <time>2026-08-27T18:30:21Z</time>
  <course>273.04</course>
  <speed>0.0</speed>
  <fix>3d</fix>
</trkpt>
<trkpt lat="40.072842" lon="-105.230575">
  <ele>1586.09</ele>
  <time>2026-08-27T18:30:21Z</time>
  <course>18.37</course>
  <speed>0.022360679774997897</speed>
  <fix>3d</fix>
</trkpt>
<trkpt lat="40.072842" lon="-105.230575">
  <ele>1586.09</ele>
  <time>2026-08-27T18:30:21Z</time>
  <course>273.04</course>
  <speed>0.0</speed>
  <fix>3d</fix>
</trkpt>
<trkpt lat="40.072842" lon="-105.230575">
  <ele>1586.09</ele>
  <time>2026-08-27T18:30:21Z</time>
  <course>18.37</course>
  <speed>0.0316227766016838</speed>
  <fix>3d</fix>
</trkpt>
<trkpt lat="40.072842" lon="-105.230575">
  <ele>1586.09</ele>
  <time>2026-08-27T18:30:21Z</time>
  <course>273.04</course>
  <speed>0.0</speed>
  <fix>3d</fix>
</trkpt>
<trkpt lat="40.072842" lon="-105.230575">
  <ele>1586.09</ele>
  <time>2026-08-27T18:30:21Z</time>
  <course>18.36</course>
  <speed>0.0316227766016838</speed>
  <fix>3d</fix>
</trkpt>
<trkpt lat="40.072842" lon="-105.230575">
  <ele>1586.09</ele>
  <time>2026-08-27T18:30:21Z</time>
  <course>273.04</course>
  <speed>0.0</speed>
  <fix>3d</fix>
</trkpt>
<trkpt lat="40.072842" lon="-105.230575">
  <ele>1586.09</ele>
  <time>2026-08-27T18:30:21Z</time>
  <course>18.36</course>
  <speed>0.0316227766016838</speed>
  <fix>3d</fix>
</trkpt>
<trkpt lat="40.072842" lon="-105.230575">
  <ele>1586.09</ele>
  <time>2026-08-27T18:30:21Z</time>
  <course>273.04</course>
  <speed>0.0</speed>
  <fix>3d</fix>
</trkpt>
<trkpt lat="40.072842" lon="-105.230575">
  <ele>1586.09</ele>
  <time>2026-08-27T18:30:21Z</time>
  <course>18.36</course>
  <speed>0.0316227766016838</speed>
  <fix>3d</fix>
</trkpt>
<trkpt lat="40.072842" lon="-105.230575">
  <ele>1586.09</ele>
  <time>2026-08-27T18:30:21Z</time>
  <course>273.04</course>
  <speed>0.0</speed>
  <fix>3d</fix>
</trkpt>
<trkpt lat="40.072842" lon="-105.230575">
  <ele>1586.09</ele>
  <time>2026-08-27T18:30:21Z</time>
  <course>18.36</course>
  <speed>0.0316227766016838</speed>
  <fix>3d</fix>
</trkpt>
<trkpt lat="40.072842" lon="-105.230575">
  <ele>1586.09</ele>
  <time>2026-08-27T18:30:21Z</time>
  <course>273.04</course>
  <speed>0.0</speed>
  <fix>3d</fix>
</trkpt>
<trkpt lat="40.072842" lon="-105.230575">
  <ele>1586.09</ele>
  <time>2026-08-27T18:30:21Z</time>
  <course>18.36</course>
  <speed>0.0316227766016838</speed>
  <fix>3d</fix>
</trkpt>
<trkpt lat="40.072842" lon="-105.230575">
  <ele>1586.09</ele>
  <time>2026-08-27T18:30:21Z</time>
  <course>273.04</course>
  <speed>0.0</speed>
  <fix>3d</fix>
</trkpt>
<trkpt lat="40.072842" lon="-105.230575">
  <ele>1586.09</ele>
  <time>2026-08-27T18:30:21Z</time>
  <course>18.36</course>
  <speed>0.0316227766016838</speed>
  <fix>3d</fix>
</trkpt>
<trkpt lat="40.072842" lon="-105.230575">
  <ele>1586.09</ele>
  <time>2026-08-27T18:30:21Z</time>
  <course>273.04</course>
  <speed>0.0</speed>
  <fix>3d</fix>
</trkpt>
<trkpt lat="40.072842" lon="-105.230575">
  <ele>1586.09</ele>
  <time>2026-08-27T18:30:21Z</time>
  <course>18.36</course>
  <speed>0.0316227766016838</speed>
  <fix>3d</fix>
</trkpt>
<trkpt lat="40.072842" lon="-105.230575">
  <ele>1586.09</ele>
  <time>2026-08-27T18:30:21Z</time>
  <course>273.04</course>
  <speed>0.0</speed>
  <fix>3d</fix>
</trkpt>
<trkpt lat="40.072842" lon="-105.230575">
  <ele>1586.09</ele>
  <time>2026-08-27T18:30:21Z</time>
  <course>18.35</course>
  <speed>0.0316227766016838</speed>
  <fix>3d</fix>
</trkpt>
<trkpt lat="40.072842" lon="-105.230575">
  <ele>1586.09</ele>
  <time>2026-08-27T18:30:21Z</time>
  <course>273.04</course>
  <speed>0.0</speed>
  <fix>3d</fix>
</trkpt>
<trkpt lat="40.072842" lon="-105.230575">
  <ele>1586.09</ele>
  <time>2026-08-27T18:30:21Z</time>
  <course>18.35</course>
  <speed>0.0316227766016838</speed>
  <fix>3d</fix>
</trkpt>
<trkpt lat="40.072842" lon="-105.230575">
  <ele>1586.09</ele>
  <time>2026-08-27T18:30:21Z</time>
  <course>273.04</course>
  <speed>0.0</speed>
  <fix>3d</fix>
</trkpt>
<trkpt lat="40.072842" lon="-105.230575">
  <ele>1586.09</ele>
  <time>2026-08-27T18:30:21Z</time>
  <course>18.35</course>
  <speed>0.0316227766016838</speed>
  <fix>3d</fix>
</trkpt>
<trkpt lat="40.072842" lon="-105.230575">
  <ele>1586.09</ele>
  <time>2026-08-27T18:30:21Z</time>
  <course>273.04</course>
  <speed>0.0</speed>
  <fix>3d</fix>
</trkpt>
<trkpt lat="40.072842" lon="-105.230575">
  <ele>1586.09</ele>
  <time>2026-08-27T18:30:21Z</time>
  <course>18.35</course>
  <speed>0.0316227766016838</speed>
  <fix>3d</fix>
</trkpt>
<trkpt lat="40.072842" lon="-105.230575">
  <ele>1586.09</ele>
  <time>2026-08-27T18:30:21Z</time>
  <course>273.04</course>
  <speed>0.0</speed>
  <fix>3d</fix>
</trkpt>
<trkpt lat="40.072842" lon="-105.230575">
  <ele>1586.09</ele>
  <time>2026-08-27T18:30:21Z</time>
  <course>18.34</course>
  <speed>0.0316227766016838</speed>
  <fix>3d</fix>
</trkpt>
<trkpt lat="40.072842" lon="-105.230575">
  <ele>1586.09</ele>
  <time>2026-08-27T18:30:21Z</time>
  <course>273.04</course>
  <speed>0.0</speed>
  <fix>3d</fix>
</trkpt>
<trkpt lat="40.072842" lon="-105.230575">
  <ele>1586.09</ele>
  <time>2026-08-27T18:30:21Z</time>
  <course>18.34</course>
  <speed>0.0316227766016838</speed>
  <fix>3d</fix>
</trkpt>
<trkpt lat="40.072842" lon="-105.230575">
  <ele>1586.09</ele>
  <time>2026-08-27T18:30:21Z</time>
  <course>273.04</course>
  <speed>0.0</speed>
  <fix>3d</fix>
</trkpt>
<trkpt lat="40.072842" lon="-105.230575">
  <ele>1586.09</ele>
  <time>2026-08-27T18:30:21Z</time>
  <course>18.34</course>
  <speed>0.0316227766016838</speed>
  <fix>3d</fix>
</trkpt>
<trkpt lat="40.072842" lon="-105.230575">
  <ele>1586.09</ele>
  <time>2026-08-27T18:30:21Z</time>
  <course>273.04</course>
  <speed>0.0</speed>
  <fix>3d</fix>
</trkpt>
<trkpt lat="40.072842" lon="-105.230575">
  <ele>1586.09</ele>
  <time>2026-08-27T18:30:21Z</time>
  <course>18.34</course>
  <speed>0.0316227766016838</speed>
  <fix>3d</fix>
</trkpt>
<trkpt lat="40.072842" lon="-105.230575">
  <ele>1586.09</ele>
  <time>2026-08-27T18:30:21Z</time>
  <course>273.04</course>
  <speed>0.0</speed>
  <fix>3d</fix>
</trkpt>
<trkpt lat="40.072842" lon="-105.230575">
  <ele>1586.09</ele>
  <time>2026-08-27T18:30:21Z</time>
  <course>18.34</course>
  <speed>0.0316227766016838</speed>
  <fix>3d</fix>
</trkpt>
<trkpt lat="40.072842" lon="-105.230575">
  <ele>1586.09</ele>
  <time>2026-08-27T18:30:21Z</time>
  <course>273.04</course>
  <speed>0.0</speed>
  <fix>3d</fix>
</trkpt>
<trkpt lat="40.072842" lon="-105.230575">
  <ele>1586.09</ele>
  <time>2026-08-27T18:30:21Z</time>
  <course>18.33</course>
  <speed>0.0316227766016838</speed>
  <fix>3d</fix>
</trkpt>
<trkpt lat="40.072842" lon="-105.230575">
  <ele>1586.09</ele>
  <time>2026-08-27T18:30:21Z</time>
  <course>273.04</course>
  <speed>0.0</speed>
  <fix>3d</fix>
</trkpt>
<trkpt lat="40.072842" lon="-105.230575">
  <ele>1586.09</ele>
  <time>2026-08-27T18:30:21Z</time>
  <course>18.33</course>
  <speed>0.0316227766016838</speed>
  <fix>3d</fix>
</trkpt>
<trkpt lat="40.072842" lon="-105.230575">
  <ele>1586.09</ele>
  <time>2026-08-27T18:30:21Z</time>
  <course>273.04</course>
  <speed>0.0</speed>
  <fix>3d</fix>
</trkpt>
<trkpt lat="40.072842" lon="-105.230575">
  <ele>1586.09</ele>
  <time>2026-08-27T18:30:21Z</time>
  <course>18.33</course>
  <speed>0.0316227766016838</speed>
  <fix>3d</fix>
</trkpt>
<trkpt lat="40.072842" lon="-105.230575">
  <ele>1586.09</ele>
  <time>2026-08-27T18:30:21Z</time>
  <course>273.04</course>
  <speed>0.0</speed>
  <fix>3d</fix>
</trkpt>
<trkpt lat="40.072842" lon="-105.230575">
  <ele>1586.09</ele>
  <time>2026-08-27T18:30:21Z</time>
  <course>18.32</course>
  <speed>0.0316227766016838</speed>
  <fix>3d</fix>
</trkpt>
<trkpt lat="40.072842" lon="-105.230575">
  <ele>1586.09</ele>
  <time>2026-08-27T18:30:21Z</time>
  <course>273.04</course>
  <speed>0.0</speed>
  <fix>3d</fix>
</trkpt>
<trkpt lat="40.072842" lon="-105.230575">
  <ele>1586.09</ele>
  <time>2026-08-27T18:30:21Z</time>
  <course>18.32</course>
  <speed>0.0316227766016838</speed>
  <fix>3d</fix>
</trkpt>
<trkpt lat="40.072842" lon="-105.230575">
  <ele>1586.09</ele>
  <time>2026-08-27T18:30:21Z</time>
  <course>273.04</course>
  <speed>0.0</speed>
  <fix>3d</fix>
</trkpt>
<trkpt lat="40.072842" lon="-105.230575">
  <ele>1586.09</ele>
  <time>2026-08-27T18:30:21Z</time>
  <course>18.32</course>
  <speed>0.0316227766016838</speed>
  <fix>3d</fix>
</trkpt>
<trkpt lat="40.072842" lon="-105.230575">
  <ele>1586.09</ele>
  <time>2026-08-27T18:30:21Z</time>
  <course>273.04</course>
  <speed>0.0</speed>
  <fix>3d</fix>
</trkpt>
<trkpt lat="40.072842" lon="-105.230575">
  <ele>1586.09</ele>
  <time>2026-08-27T18:30:21Z</time>
  <course>18.31</course>
  <speed>0.0316227766016838</speed>
  <fix>3d</fix>
</trkpt>
<trkpt lat="40.072842" lon="-105.230575">
  <ele>1586.09</ele>
  <time>2026-08-27T18:30:21Z</time>
  <course>273.04</course>
  <speed>0.0</speed>
  <fix>3d</fix>
</trkpt>
<trkpt lat="40.072842" lon="-105.230575">
  <ele>1586.09</ele>
  <time>2026-08-27T18:30:21Z</time>
  <course>18.31</course>
  <speed>0.0316227766016838</speed>
  <fix>3d</fix>
</trkpt>
<trkpt lat="40.072842" lon="-105.230575">
  <ele>1586.09</ele>
  <time>2026-08-27T18:30:21Z</time>
  <course>273.04</course>
  <speed>0.0</speed>
  <fix>3d</fix>
</trkpt>
<trkpt lat="40.072842" lon="-105.230575">
  <ele>1586.09</ele>
  <time>2026-08-27T18:30:21Z</time>
  <course>18.31</course>
  <speed>0.03605551275463989</speed>
  <fix>3d</fix>
</trkpt>
<trkpt lat="40.072842" lon="-105.230575">
  <ele>1586.09</ele>
  <time>2026-08-27T18:30:21Z</time>
  <course>273.04</course>
  <speed>0.0</speed>
  <fix>3d</fix>
</trkpt>
<trkpt lat="40.072842" lon="-105.230575">
  <ele>1586.09</ele>
  <time>2026-08-27T18:30:21Z</time>
  <course>18.31</course>
  <speed>0.03605551275463989</speed>
  <fix>3d</fix>
</trkpt>
<trkpt lat="40.072842" lon="-105.230575">
  <ele>1586.09</ele>
  <time>2026-08-27T18:30:21Z</time>
  <course>273.04</course>
  <speed>0.0</speed>
  <fix>3d</fix>
</trkpt>
<trkpt lat="40.072842" lon="-105.230575">
  <ele>1586.09</ele>
  <time>2026-08-27T18:30:21Z</time>
  <course>18.3</course>
  <speed>0.03605551275463989</speed>
  <fix>3d</fix>
</trkpt>
<trkpt lat="40.072842" lon="-105.230575">
  <ele>1586.09</ele>
  <time>2026-08-27T18:30:21Z</time>
  <course>273.04</course>
  <speed>0.0</speed>
  <fix>3d</fix>
</trkpt>
<trkpt lat="40.072842" lon="-105.230575">
  <ele>1586.09</ele>
  <time>2026-08-27T18:30:21Z</time>
  <course>18.3</course>
  <speed>0.03605551275463989</speed>
  <fix>3d</fix>
</trkpt>
<trkpt lat="40.072842" lon="-105.230575">
  <ele>1586.09</ele>
  <time>2026-08-27T18:30:21Z</time>
  <course>273.04</course>
  <speed>0.0</speed>
  <fix>3d</fix>
</trkpt>
<trkpt lat="40.072842" lon="-105.230575">
  <ele>1586.09</ele>
  <time>2026-08-27T18:30:21Z</time>
  <course>18.3</course>
  <speed>0.03605551275463989</speed>
  <fix>3d</fix>
</trkpt>
<trkpt lat="40.072842" lon="-105.230575">
  <ele>1586.09</ele>
  <time>2026-08-27T18:30:21Z</time>
  <course>273.04</course>
  <speed>0.0</speed>
  <fix>3d</fix>
</trkpt>
<trkpt lat="40.072842" lon="-105.230575">
  <ele>1586.09</ele>
  <time>2026-08-27T18:30:21Z</time>
  <course>18.29</course>
  <speed>0.03605551275463989</speed>
  <fix>3d</fix>
</trkpt>
<trkpt lat="40.072842" lon="-105.230575">
  <ele>1586.09</ele>
  <time>2026-08-27T18:30:21Z</time>
  <course>273.04</course>
  <speed>0.0</speed>
  <fix>3d</fix>
</trkpt>
<trkpt lat="40.072842" lon="-105.230575">
  <ele>1586.09</ele>
  <time>2026-08-27T18:30:21Z</time>
  <course>18.29</course>
  <speed>0.03605551275463989</speed>
  <fix>3d</fix>
</trkpt>
<trkpt lat="40.072842" lon="-105.230575">
  <ele>1586.09</ele>
  <time>2026-08-27T18:30:21Z</time>
  <course>273.04</course>
  <speed>0.0</speed>
  <fix>3d</fix>
</trkpt>
<trkpt lat="40.072842" lon="-105.230575">
  <ele>1586.09</ele>
  <time>2026-08-27T18:30:21Z</time>
  <course>18.29</course>
  <speed>0.03605551275463989</speed>
  <fix>3d</fix>
</trkpt>
<trkpt lat="40.072842" lon="-105.230575">
  <ele>1586.09</ele>
  <time>2026-08-27T18:30:21Z</time>
  <course>273.04</course>
  <speed>0.0</speed>
  <fix>3d</fix>
</trkpt>
<trkpt lat="40.072842" lon="-105.230575">
  <ele>1586.09</ele>
  <time>2026-08-27T18:30:21Z</time>
  <course>18.28</course>
  <speed>0.03605551275463989</speed>
  <fix>3d</fix>
</trkpt>
<trkpt lat="40.072842" lon="-105.230575">
  <ele>1586.09</ele>
  <time>2026-08-27T18:30:21Z</time>
  <course>273.04</course>
  <speed>0.0</speed>
  <fix>3d</fix>
</trkpt>
<trkpt lat="40.072842" lon="-105.230575">
  <ele>1586.09</ele>
  <time>2026-08-27T18:30:21Z</time>
  <course>18.28</course>
  <speed>0.03605551275463989</speed>
  <fix>3d</fix>
</trkpt>
<trkpt lat="40.072842" lon="-105.230575">
  <ele>1586.09</ele>
  <time>2026-08-27T18:30:21Z</time>
  <course>273.04</course>
  <speed>0.0</speed>
  <fix>3d</fix>
</trkpt>
<trkpt lat="40.072842" lon="-105.230575">
  <ele>1586.09</ele>
  <time>2026-08-27T18:30:21Z</time>
  <course>18.27</course>
  <speed>0.044721359549995794</speed>
  <fix>3d</fix>
</trkpt>
<trkpt lat="40.072842" lon="-105.230575">
  <ele>1586.09</ele>
  <time>2026-08-27T18:30:21Z</time>
  <course>273.04</course>
  <speed>0.0</speed>
  <fix>3d</fix>
</trkpt>
<trkpt lat="40.072842" lon="-105.230575">
  <ele>1586.09</ele>
  <time>2026-08-27T18:30:21Z</time>
  <course>18.27</course>
  <speed>0.044721359549995794</speed>
  <fix>3d</fix>
</trkpt>
<trkpt lat="40.072842" lon="-105.230575">
  <ele>1586.09</ele>
  <time>2026-08-27T18:30:21Z</time>
  <course>273.04</course>
  <speed>0.0</speed>
  <fix>3d</fix>
</trkpt>
<trkpt lat="40.072842" lon="-105.230575">
  <ele>1586.09</ele>
  <time>2026-08-27T18:30:21Z</time>
  <course>18.27</course>
  <speed>0.044721359549995794</speed>
  <fix>3d</fix>
</trkpt>
<trkpt lat="40.072842" lon="-105.230575">
  <ele>1586.09</ele>
  <time>2026-08-27T18:30:21Z</time>
  <course>273.04</course>
  <speed>0.0</speed>
  <fix>3d</fix>
</trkpt>
<trkpt lat="40.072842" lon="-105.230575">
  <ele>1586.09</ele>
  <time>2026-08-27T18:30:22Z</time>
  <course>18.26</course>
  <speed>0.044721359549995794</speed>
  <fix>3d</fix>
</trkpt>
<trkpt lat="40.072842" lon="-105.230575">
  <ele>1586.09</ele>
  <time>2026-08-27T18:30:22Z</time>
  <course>273.04</course>
  <speed>0.0</speed>
  <fix>3d</fix>
</trkpt>
<trkpt lat="40.072842" lon="-105.230575">
  <ele>1586.09</ele>
  <time>2026-08-27T18:30:22Z</time>
  <course>18.26</course>
  <speed>0.044721359549995794</speed>
  <fix>3d</fix>
</trkpt>
<trkpt lat="40.072842" lon="-105.230575">
  <ele>1586.09</ele>
  <time>2026-08-27T18:30:22Z</time>
  <course>273.04</course>
  <speed>0.0</speed>
  <fix>3d</fix>
</trkpt>
<trkpt lat="40.072842" lon="-105.230575">
  <ele>1586.09</ele>
  <time>2026-08-27T18:30:22Z</time>
  <course>18.26</course>
  <speed>0.044721359549995794</speed>
  <fix>3d</fix>
</trkpt>
<trkpt lat="40.072842" lon="-105.230575">
  <ele>1586.09</ele>
  <time>2026-08-27T18:30:22Z</time>
  <course>273.04</course>
  <speed>0.0</speed>
  <fix>3d</fix>
</trkpt>
<trkpt lat="40.072842" lon="-105.230575">
  <ele>1586.09</ele>
  <time>2026-08-27T18:30:22Z</time>
  <course>18.25</course>
  <speed>0.044721359549995794</speed>
  <fix>3d</fix>
</trkpt>
<trkpt lat="40.072842" lon="-105.230575">
  <ele>1586.09</ele>
  <time>2026-08-27T18:30:22Z</time>
  <course>273.04</course>
  <speed>0.0</speed>
  <fix>3d</fix>
</trkpt>
<trkpt lat="40.072842" lon="-105.230575">
  <ele>1586.09</ele>
  <time>2026-08-27T18:30:22Z</time>
  <course>18.25</course>
  <speed>0.044721359549995794</speed>
  <fix>3d</fix>
</trkpt>
<trkpt lat="40.072842" lon="-105.230575">
  <ele>1586.09</ele>
  <time>2026-08-27T18:30:22Z</time>
  <course>273.04</course>
  <speed>0.0</speed>
  <fix>3d</fix>
</trkpt>
<trkpt lat="40.072842" lon="-105.230575">
  <ele>1586.09</ele>
  <time>2026-08-27T18:30:22Z</time>
  <course>18.25</course>
  <speed>0.044721359549995794</speed>
  <fix>3d</fix>
</trkpt>
<trkpt lat="40.072842" lon="-105.230575">
  <ele>1586.09</ele>
  <time>2026-08-27T18:30:22Z</time>
  <course>273.04</course>
  <speed>0.0</speed>
  <fix>3d</fix>
</trkpt>
<trkpt lat="40.072842" lon="-105.230575">
  <ele>1586.09</ele>
  <time>2026-08-27T18:30:22Z</time>
  <course>18.24</course>
  <speed>0.044721359549995794</speed>
  <fix>3d</fix>
</trkpt>
<trkpt lat="40.072842" lon="-105.230575">
  <ele>1586.09</ele>
  <time>2026-08-27T18:30:22Z</time>
  <course>273.04</course>
  <speed>0.0</speed>
  <fix>3d</fix>
</trkpt>
<trkpt lat="40.072842" lon="-105.230575">
  <ele>1586.09</ele>
  <time>2026-08-27T18:30:22Z</time>
  <course>18.24</course>
  <speed>0.044721359549995794</speed>
  <fix>3d</fix>
</trkpt>
<trkpt lat="40.072842" lon="-105.230575">
  <ele>1586.09</ele>
  <time>2026-08-27T18:30:22Z</time>
  <course>273.04</course>
  <speed>0.0</speed>
  <fix>3d</fix>
</trkpt>
<trkpt lat="40.072842" lon="-105.230575">
  <ele>1586.09</ele>
  <time>2026-08-27T18:30:22Z</time>
  <course>18.24</course>
  <speed>0.044721359549995794</speed>
  <fix>3d</fix>
</trkpt>
<trkpt lat="40.072842" lon="-105.230575">
  <ele>1586.09</ele>
  <time>2026-08-27T18:30:22Z</time>
  <course>273.04</course>
  <speed>0.0</speed>
  <fix>3d</fix>
</trkpt>
<trkpt lat="40.072842" lon="-105.230575">
  <ele>1586.09</ele>
  <time>2026-08-27T18:30:22Z</time>
  <course>18.24</course>
  <speed>0.044721359549995794</speed>
  <fix>3d</fix>
</trkpt>
<trkpt lat="40.072842" lon="-105.230575">
  <ele>1586.09</ele>
  <time>2026-08-27T18:30:22Z</time>
  <course>273.04</course>
  <speed>0.0</speed>
  <fix>3d</fix>
</trkpt>
<trkpt lat="40.072842" lon="-105.230575">
  <ele>1586.09</ele>
  <time>2026-08-27T18:30:22Z</time>
  <course>18.23</course>
  <speed>0.044721359549995794</speed>
  <fix>3d</fix>
</trkpt>
<trkpt lat="40.072842" lon="-105.230575">
  <ele>1586.09</ele>
  <time>2026-08-27T18:30:22Z</time>
  <course>273.04</course>
  <speed>0.0</speed>
  <fix>3d</fix>
</trkpt>
<trkpt lat="40.072842" lon="-105.230575">
  <ele>1586.09</ele>
  <time>2026-08-27T18:30:22Z</time>
  <course>18.23</course>
  <speed>0.044721359549995794</speed>
  <fix>3d</fix>
</trkpt>
<trkpt lat="40.072842" lon="-105.230575">
  <ele>1586.09</ele>
  <time>2026-08-27T18:30:22Z</time>
  <course>273.04</course>
  <speed>0.0</speed>
  <fix>3d</fix>
</trkpt>
<trkpt lat="40.072842" lon="-105.230575">
  <ele>1586.09</ele>
  <time>2026-08-27T18:30:22Z</time>
  <course>18.23</course>
  <speed>0.044721359549995794</speed>
  <fix>3d</fix>
</trkpt>
<trkpt lat="40.072842" lon="-105.230575">
  <ele>1586.09</ele>
  <time>2026-08-27T18:30:22Z</time>
  <course>273.04</course>
  <speed>0.0</speed>
  <fix>3d</fix>
</trkpt>
<trkpt lat="40.072842" lon="-105.230575">
  <ele>1586.09</ele>
  <time>2026-08-27T18:30:22Z</time>
  <course>18.22</course>
  <speed>0.044721359549995794</speed>
  <fix>3d</fix>
</trkpt>
<trkpt lat="40.072842" lon="-105.230575">
  <ele>1586.09</ele>
  <time>2026-08-27T18:30:22Z</time>
  <course>273.04</course>
  <speed>0.0</speed>
  <fix>3d</fix>
</trkpt>
<trkpt lat="40.072842" lon="-105.230575">
  <ele>1586.09</ele>
  <time>2026-08-27T18:30:22Z</time>
  <course>18.22</course>
  <speed>0.044721359549995794</speed>
  <fix>3d</fix>
</trkpt>
<trkpt lat="40.072842" lon="-105.230575">
  <ele>1586.09</ele>
  <time>2026-08-27T18:30:22Z</time>
  <course>273.04</course>
  <speed>0.0</speed>
  <fix>3d</fix>
</trkpt>
<trkpt lat="40.072842" lon="-105.230575">
  <ele>1586.09</ele>
  <time>2026-08-27T18:30:22Z</time>
  <course>18.22</course>
  <speed>0.044721359549995794</speed>
  <fix>3d</fix>
</trkpt>
<trkpt lat="40.072842" lon="-105.230575">
  <ele>1586.09</ele>
  <time>2026-08-27T18:30:22Z</time>
  <course>273.04</course>
  <speed>0.0</speed>
  <fix>3d</fix>
</trkpt>
<trkpt lat="40.072842" lon="-105.230575">
  <ele>1586.17</ele>
  <time>2026-08-27T18:30:22Z</time>
  <course>18.21</course>
  <speed>0.0</speed>
  <fix>3d</fix>
</trkpt>
<trkpt lat="40.072842" lon="-105.230575">
  <ele>1586.09</ele>
  <time>2026-08-27T18:30:22Z</time>
  <course>273.04</course>
  <speed>0.0</speed>
  <fix>3d</fix>
</trkpt>
<trkpt lat="40.072842" lon="-105.230575">
  <ele>1586.17</ele>
  <time>2026-08-27T18:30:22Z</time>
  <course>18.21</course>
  <speed>0.0</speed>
  <fix>3d</fix>
</trkpt>
<trkpt lat="40.072842" lon="-105.230575">
  <ele>1586.09</ele>
  <time>2026-08-27T18:30:22Z</time>
  <course>273.04</course>
  <speed>0.0</speed>
  <fix>3d</fix>
</trkpt>
<trkpt lat="40.072842" lon="-105.230575">
  <ele>1586.18</ele>
  <time>2026-08-27T18:30:22Z</time>
  <course>18.21</course>
  <speed>0.0</speed>
  <fix>3d</fix>
</trkpt>
<trkpt lat="40.072842" lon="-105.230575">
  <ele>1586.09</ele>
  <time>2026-08-27T18:30:22Z</time>
  <course>284.79</course>
  <speed>0.0</speed>
  <fix>3d</fix>
</trkpt>
<trkpt lat="40.072842" lon="-105.230575">
  <ele>1586.18</ele>
  <time>2026-08-27T18:30:22Z</time>
  <course>18.21</course>
  <speed>0.0</speed>
  <fix>3d</fix>
</trkpt>
<trkpt lat="40.072842" lon="-105.230575">
  <ele>1586.09</ele>
  <time>2026-08-27T18:30:22Z</time>
  <course>274.56</course>
  <speed>0.0</speed>
  <fix>3d</fix>
</trkpt>
<trkpt lat="40.072842" lon="-105.230575">
  <ele>1586.18</ele>
  <time>2026-08-27T18:30:22Z</time>
  <course>18.21</course>
  <speed>0.0</speed>
  <fix>3d</fix>
</trkpt>
<trkpt lat="40.072842" lon="-105.230575">
  <ele>1586.09</ele>
  <time>2026-08-27T18:30:22Z</time>
  <course>205.11</course>
  <speed>0.0</speed>
  <fix>3d</fix>
</trkpt>
<trkpt lat="40.072842" lon="-105.230575">
  <ele>1586.17</ele>
  <time>2026-08-27T18:30:22Z</time>
  <course>18.2</course>
  <speed>0.01</speed>
  <fix>3d</fix>
</trkpt>
<trkpt lat="40.072842" lon="-105.230575">
  <ele>1586.09</ele>
  <time>2026-08-27T18:30:22Z</time>
  <course>79.54</course>
  <speed>0.0</speed>
  <fix>3d</fix>
</trkpt>
<trkpt lat="40.072842" lon="-105.230575">
  <ele>1586.17</ele>
  <time>2026-08-27T18:30:22Z</time>
  <course>18.2</course>
  <speed>0.01</speed>
  <fix>3d</fix>
</trkpt>
<trkpt lat="40.072842" lon="-105.230575">
  <ele>1586.09</ele>
  <time>2026-08-27T18:30:22Z</time>
  <course>286.98</course>
  <speed>0.0</speed>
  <fix>3d</fix>
</trkpt>
<trkpt lat="40.072842" lon="-105.230575">
  <ele>1586.17</ele>
  <time>2026-08-27T18:30:22Z</time>
  <course>18.2</course>
  <speed>0.01</speed>
  <fix>3d</fix>
</trkpt>
<trkpt lat="40.072842" lon="-105.230575">
  <ele>1586.09</ele>
  <time>2026-08-27T18:30:22Z</time>
  <course>268.78</course>
  <speed>0.0</speed>
  <fix>3d</fix>
</trkpt>
<trkpt lat="40.072842" lon="-105.230575">
  <ele>1586.17</ele>
  <time>2026-08-27T18:30:22Z</time>
  <course>18.19</course>
  <speed>0.01</speed>
  <fix>3d</fix>
</trkpt>
<trkpt lat="40.072842" lon="-105.230575">
  <ele>1586.09</ele>
  <time>2026-08-27T18:30:22Z</time>
  <course>271.02</course>
  <speed>0.0</speed>
  <fix>3d</fix>
</trkpt>
<trkpt lat="40.072842" lon="-105.230575">
  <ele>1586.17</ele>
  <time>2026-08-27T18:30:22Z</time>
  <course>18.19</course>
  <speed>0.01</speed>
  <fix>3d</fix>
</trkpt>
<trkpt lat="40.072842" lon="-105.230575">
  <ele>1586.09</ele>
  <time>2026-08-27T18:30:22Z</time>
  <course>274.07</course>
  <speed>0.0</speed>
  <fix>3d</fix>
</trkpt>
<trkpt lat="40.072842" lon="-105.230575">
  <ele>1586.18</ele>
  <time>2026-08-27T18:30:22Z</time>
  <course>18.19</course>
  <speed>0.022360679774997897</speed>
  <fix>3d</fix>
</trkpt>
<trkpt lat="40.072842" lon="-105.230575">
  <ele>1586.09</ele>
  <time>2026-08-27T18:30:22Z</time>
  <course>273.17</course>
  <speed>0.0</speed>
  <fix>3d</fix>
</trkpt>
<trkpt lat="40.072842" lon="-105.230575">
  <ele>1586.18</ele>
  <time>2026-08-27T18:30:22Z</time>
  <course>18.19</course>
  <speed>0.022360679774997897</speed>
  <fix>3d</fix>
</trkpt>
<trkpt lat="40.072842" lon="-105.230575">
  <ele>1586.09</ele>
  <time>2026-08-27T18:30:22Z</time>
  <course>272.89</course>
  <speed>0.0</speed>
  <fix>3d</fix>
</trkpt>
<trkpt lat="40.072842" lon="-105.230575">
  <ele>1586.18</ele>
  <time>2026-08-27T18:30:22Z</time>
  <course>18.19</course>
  <speed>0.022360679774997897</speed>
  <fix>3d</fix>
</trkpt>
<trkpt lat="40.072842" lon="-105.230575">
  <ele>1586.09</ele>
  <time>2026-08-27T18:30:22Z</time>
  <course>262.84</course>
  <speed>0.0</speed>
  <fix>3d</fix>
</trkpt>
<trkpt lat="40.072842" lon="-105.230575">
  <ele>1586.18</ele>
  <time>2026-08-27T18:30:22Z</time>
  <course>18.19</course>
  <speed>0.022360679774997897</speed>
  <fix>3d</fix>
</trkpt>
<trkpt lat="40.072842" lon="-105.230575">
  <ele>1586.09</ele>
  <time>2026-08-27T18:30:22Z</time>
  <course>267.31</course>
  <speed>0.0</speed>
  <fix>3d</fix>
</trkpt>
<trkpt lat="40.072842" lon="-105.230575">
  <ele>1586.18</ele>
  <time>2026-08-27T18:30:22Z</time>
  <course>18.19</course>
  <speed>0.022360679774997897</speed>
  <fix>3d</fix>
</trkpt>
<trkpt lat="40.072842" lon="-105.230575">
  <ele>1586.09</ele>
  <time>2026-08-27T18:30:22Z</time>
  <course>273.59</course>
  <speed>0.0</speed>
  <fix>3d</fix>
</trkpt>
<trkpt lat="40.0728419" lon="-105.230575">
  <ele>1586.17</ele>
  <time>2026-08-27T18:30:22Z</time>
  <course>18.18</course>
  <speed>0.01414213562373095</speed>
  <fix>3d</fix>
</trkpt>
<trkpt lat="40.072842" lon="-105.230575">
  <ele>1586.09</ele>
  <time>2026-08-27T18:30:22Z</time>
  <course>271.47</course>
  <speed>0.0</speed>
  <fix>3d</fix>
</trkpt>
<trkpt lat="40.072842" lon="-105.230575">
  <ele>1586.17</ele>
  <time>2026-08-27T18:30:22Z</time>
  <course>18.18</course>
  <speed>0.01</speed>
  <fix>3d</fix>
</trkpt>
<trkpt lat="40.072842" lon="-105.230575">
  <ele>1586.09</ele>
  <time>2026-08-27T18:30:22Z</time>
  <course>273.26</course>
  <speed>0.0</speed>
  <fix>3d</fix>
</trkpt>
<trkpt lat="40.072842" lon="-105.230575">
  <ele>1586.17</ele>
  <time>2026-08-27T18:30:22Z</time>
  <course>18.18</course>
  <speed>0.01</speed>
  <fix>3d</fix>
</trkpt>
<trkpt lat="40.072842" lon="-105.230575">
  <ele>1586.09</ele>
  <time>2026-08-27T18:30:22Z</time>
  <course>273.22</course>
  <speed>0.0</speed>
  <fix>3d</fix>
</trkpt>
<trkpt lat="40.072842" lon="-105.230575">
  <ele>1586.17</ele>
  <time>2026-08-27T18:30:22Z</time>
  <course>18.17</course>
  <speed>0.0</speed>
  <fix>3d</fix>
</trkpt>
<trkpt lat="40.072842" lon="-105.230575">
  <ele>1586.09</ele>
  <time>2026-08-27T18:30:22Z</time>
  <course>272.99</course>
  <speed>0.0</speed>
  <fix>3d</fix>
</trkpt>
<trkpt lat="40.072842" lon="-105.230575">
  <ele>1586.17</ele>
  <time>2026-08-27T18:30:22Z</time>
  <course>18.17</course>
  <speed>0.0</speed>
  <fix>3d</fix>
</trkpt>
<trkpt lat="40.072842" lon="-105.230575">
  <ele>1586.09</ele>
  <time>2026-08-27T18:30:22Z</time>
  <course>273.02</course>
  <speed>0.0</speed>
  <fix>3d</fix>
</trkpt>
<trkpt lat="40.072842" lon="-105.230575">
  <ele>1586.17</ele>
  <time>2026-08-27T18:30:22Z</time>
  <course>18.17</course>
  <speed>0.0</speed>
  <fix>3d</fix>
</trkpt>
<trkpt lat="40.072842" lon="-105.230575">
  <ele>1586.09</ele>
  <time>2026-08-27T18:30:22Z</time>
  <course>273.05</course>
  <speed>0.0</speed>
  <fix>3d</fix>
</trkpt>
<trkpt lat="40.072842" lon="-105.230575">
  <ele>1586.17</ele>
  <time>2026-08-27T18:30:22Z</time>
  <course>18.17</course>
  <speed>0.0</speed>
  <fix>3d</fix>
</trkpt>
<trkpt lat="40.072842" lon="-105.230575">
  <ele>1586.09</ele>
  <time>2026-08-27T18:30:22Z</time>
  <course>357.39</course>
  <speed>0.0</speed>
  <fix>3d</fix>
</trkpt>
<trkpt lat="40.072842" lon="-105.230575">
  <ele>1586.17</ele>
  <time>2026-08-27T18:30:22Z</time>
  <course>18.16</course>
  <speed>0.0</speed>
  <fix>3d</fix>
</trkpt>
<trkpt lat="40.072842" lon="-105.230575">
  <ele>1586.09</ele>
  <time>2026-08-27T18:30:22Z</time>
  <course>329.12</course>
  <speed>0.0</speed>
  <fix>3d</fix>
</trkpt>
<trkpt lat="40.072842" lon="-105.230575">
  <ele>1586.17</ele>
  <time>2026-08-27T18:30:22Z</time>
  <course>18.16</course>
  <speed>0.0</speed>
  <fix>3d</fix>
</trkpt>
<trkpt lat="40.072842" lon="-105.230575">
  <ele>1586.09</ele>
  <time>2026-08-27T18:30:22Z</time>
  <course>311.41</course>
  <speed>0.0</speed>
  <fix>3d</fix>
</trkpt>
<trkpt lat="40.072842" lon="-105.230575">
  <ele>1586.17</ele>
  <time>2026-08-27T18:30:22Z</time>
  <course>18.16</course>
  <speed>0.0</speed>
  <fix>3d</fix>
</trkpt>
<trkpt lat="40.072842" lon="-105.230575">
  <ele>1586.09</ele>
  <time>2026-08-27T18:30:22Z</time>
  <course>182.06</course>
  <speed>0.0</speed>
  <fix>3d</fix>
</trkpt>
<trkpt lat="40.072842" lon="-105.230575">
  <ele>1586.17</ele>
  <time>2026-08-27T18:30:22Z</time>
  <course>18.15</course>
  <speed>0.0</speed>
  <fix>3d</fix>
</trkpt>
<trkpt lat="40.072842" lon="-105.230575">
  <ele>1586.09</ele>
  <time>2026-08-27T18:30:22Z</time>
  <course>251.32</course>
  <speed>0.0</speed>
  <fix>3d</fix>
</trkpt>
<trkpt lat="40.072842" lon="-105.230575">
  <ele>1586.17</ele>
  <time>2026-08-27T18:30:22Z</time>
  <course>18.15</course>
  <speed>0.0</speed>
  <fix>3d</fix>
</trkpt>
<trkpt lat="40.072842" lon="-105.230575">
  <ele>1586.09</ele>
  <time>2026-08-27T18:30:22Z</time>
  <course>311.82</course>
  <speed>0.0</speed>
  <fix>3d</fix>
</trkpt>
<trkpt lat="40.072842" lon="-105.230575">
  <ele>1586.17</ele>
  <time>2026-08-27T18:30:22Z</time>
  <course>18.14</course>
  <speed>0.0</speed>
  <fix>3d</fix>
</trkpt>
<trkpt lat="40.072842" lon="-105.230575">
  <ele>1586.09</ele>
  <time>2026-08-27T18:30:22Z</time>
  <course>271.6</course>
  <speed>0.0</speed>
  <fix>3d</fix>
</trkpt>
<trkpt lat="40.072842" lon="-105.230575">
  <ele>1586.17</ele>
  <time>2026-08-27T18:30:22Z</time>
  <course>18.13</course>
  <speed>0.0</speed>
  <fix>3d</fix>
</trkpt>
<trkpt lat="40.072842" lon="-105.230575">
  <ele>1586.09</ele>
  <time>2026-08-27T18:30:22Z</time>
  <course>260.93</course>
  <speed>0.0</speed>
  <fix>3d</fix>
</trkpt>
<trkpt lat="40.072842" lon="-105.230575">
  <ele>1586.18</ele>
  <time>2026-08-27T18:30:22Z</time>
  <course>18.12</course>
  <speed>0.0</speed>
  <fix>3d</fix>
</trkpt>
<trkpt lat="40.072842" lon="-105.230575">
  <ele>1586.09</ele>
  <time>2026-08-27T18:30:22Z</time>
  <course>112.28</course>
  <speed>0.0</speed>
  <fix>3d</fix>
</trkpt>
<trkpt lat="40.072842" lon="-105.230575">
  <ele>1586.18</ele>
  <time>2026-08-27T18:30:22Z</time>
  <course>18.11</course>
  <speed>0.0</speed>
  <fix>3d</fix>
</trkpt>
<trkpt lat="40.072842" lon="-105.230575">
  <ele>1586.09</ele>
  <time>2026-08-27T18:30:22Z</time>
  <course>340.29</course>
  <speed>0.0</speed>
  <fix>3d</fix>
</trkpt>
<trkpt lat="40.072842" lon="-105.230575">
  <ele>1586.18</ele>
  <time>2026-08-27T18:30:22Z</time>
  <course>18.1</course>
  <speed>0.0</speed>
  <fix>3d</fix>
</trkpt>
<trkpt lat="40.072842" lon="-105.230575">
  <ele>1586.09</ele>
  <time>2026-08-27T18:30:22Z</time>
  <course>327.27</course>
  <speed>0.0</speed>
  <fix>3d</fix>
</trkpt>
<trkpt lat="40.072842" lon="-105.230575">
  <ele>1586.18</ele>
  <time>2026-08-27T18:30:22Z</time>
  <course>18.09</course>
  <speed>0.0</speed>
  <fix>3d</fix>
</trkpt>
<trkpt lat="40.072842" lon="-105.230575">
  <ele>1586.09</ele>
  <time>2026-08-27T18:30:22Z</time>
  <course>287.56</course>
  <speed>0.0</speed>
  <fix>3d</fix>
</trkpt>
<trkpt lat="40.072842" lon="-105.230575">
  <ele>1586.18</ele>
  <time>2026-08-27T18:30:22Z</time>
  <course>18.08</course>
  <speed>0.0</speed>
  <fix>3d</fix>
</trkpt>
<trkpt lat="40.072842" lon="-105.230575">
  <ele>1586.09</ele>
  <time>2026-08-27T18:30:22Z</time>
  <course>271.99</course>
  <speed>0.0</speed>
  <fix>3d</fix>
</trkpt>
<trkpt lat="40.072842" lon="-105.230575">
  <ele>1586.18</ele>
  <time>2026-08-27T18:30:22Z</time>
  <course>18.06</course>
  <speed>0.0</speed>
  <fix>3d</fix>
</trkpt>
<trkpt lat="40.072842" lon="-105.230575">
  <ele>1586.09</ele>
  <time>2026-08-27T18:30:22Z</time>
  <course>259.92</course>
  <speed>0.0</speed>
  <fix>3d</fix>
</trkpt>
<trkpt lat="40.072842" lon="-105.230575">
  <ele>1586.18</ele>
  <time>2026-08-27T18:30:22Z</time>
  <course>18.04</course>
  <speed>0.0</speed>
  <fix>3d</fix>
</trkpt>
<trkpt lat="40.072842" lon="-105.230575">
  <ele>1586.09</ele>
  <time>2026-08-27T18:30:22Z</time>
  <course>51.02</course>
  <speed>0.0</speed>
  <fix>3d</fix>
</trkpt>
<trkpt lat="40.072842" lon="-105.230575">
  <ele>1586.18</ele>
  <time>2026-08-27T18:30:22Z</time>
  <course>18.02</course>
  <speed>0.0</speed>
  <fix>3d</fix>
</trkpt>
<trkpt lat="40.072842" lon="-105.230575">
  <ele>1586.09</ele>
  <time>2026-08-27T18:30:22Z</time>
  <course>338.8</course>
  <speed>0.0</speed>
  <fix>3d</fix>
</trkpt>
<trkpt lat="40.072842" lon="-105.230575">
  <ele>1586.18</ele>
  <time>2026-08-27T18:30:22Z</time>
  <course>18.0</course>
  <speed>0.0</speed>
  <fix>3d</fix>
</trkpt>
<trkpt lat="40.072842" lon="-105.230575">
  <ele>1586.09</ele>
  <time>2026-08-27T18:30:22Z</time>
  <course>323.1</course>
  <speed>0.0</speed>
  <fix>3d</fix>
</trkpt>
<trkpt lat="40.072842" lon="-105.230575">
  <ele>1586.18</ele>
  <time>2026-08-27T18:30:22Z</time>
  <course>17.98</course>
  <speed>0.0</speed>
  <fix>3d</fix>
</trkpt>
<trkpt lat="40.072842" lon="-105.230575">
  <ele>1586.09</ele>
  <time>2026-08-27T18:30:22Z</time>
  <course>291.37</course>
  <speed>0.0</speed>
  <fix>3d</fix>
</trkpt>
<trkpt lat="40.072842" lon="-105.230575">
  <ele>1586.18</ele>
  <time>2026-08-27T18:30:22Z</time>
  <course>17.95</course>
  <speed>0.0</speed>
  <fix>3d</fix>
</trkpt>
<trkpt lat="40.072842" lon="-105.230575">
  <ele>1586.09</ele>
  <time>2026-08-27T18:30:22Z</time>
  <course>252.12</course>
  <speed>0.0</speed>
  <fix>3d</fix>
</trkpt>
<trkpt lat="40.072842" lon="-105.230575">
  <ele>1586.18</ele>
  <time>2026-08-27T18:30:22Z</time>
  <course>17.93</course>
  <speed>0.01</speed>
  <fix>3d</fix>
</trkpt>
<trkpt lat="40.072842" lon="-105.230575">
  <ele>1586.09</ele>
  <time>2026-08-27T18:30:22Z</time>
  <course>118.95</course>
  <speed>0.0</speed>
  <fix>3d</fix>
</trkpt>
<trkpt lat="40.072842" lon="-105.230575">
  <ele>1586.18</ele>
  <time>2026-08-27T18:30:22Z</time>
  <course>17.9</course>
  <speed>0.01</speed>
  <fix>3d</fix>
</trkpt>
<trkpt lat="40.072842" lon="-105.230575">
  <ele>1586.09</ele>
  <time>2026-08-27T18:30:22Z</time>
  <course>315.94</course>
  <speed>0.0</speed>
  <fix>3d</fix>
</trkpt>
<trkpt lat="40.072842" lon="-105.230575">
  <ele>1586.18</ele>
  <time>2026-08-27T18:30:22Z</time>
  <course>17.87</course>
  <speed>0.01</speed>
  <fix>3d</fix>
</trkpt>
<trkpt lat="40.072842" lon="-105.230575">
  <ele>1586.09</ele>
  <time>2026-08-27T18:30:22Z</time>
  <course>327.5</course>
  <speed>0.0</speed>
  <fix>3d</fix>
</trkpt>
<trkpt lat="40.072842" lon="-105.230575">
  <ele>1586.18</ele>
  <time>2026-08-27T18:30:22Z</time>
  <course>17.84</course>
  <speed>0.01</speed>
  <fix>3d</fix>
</trkpt>
<trkpt lat="40.072842" lon="-105.230575">
  <ele>1586.09</ele>
  <time>2026-08-27T18:30:22Z</time>
  <course>278.24</course>
  <speed>0.0</speed>
  <fix>3d</fix>
</trkpt>
<trkpt lat="40.072842" lon="-105.230575">
  <ele>1586.18</ele>
  <time>2026-08-27T18:30:22Z</time>
  <course>17.81</course>
  <speed>0.01</speed>
  <fix>3d</fix>
</trkpt>
<trkpt lat="40.072842" lon="-105.230575">
  <ele>1586.09</ele>
  <time>2026-08-27T18:30:22Z</time>
  <course>246.96</course>
  <speed>0.0</speed>
  <fix>3d</fix>
</trkpt>
<trkpt lat="40.072842" lon="-105.230575">
  <ele>1586.18</ele>
  <time>2026-08-27T18:30:22Z</time>
  <course>17.78</course>
  <speed>0.01</speed>
  <fix>3d</fix>
</trkpt>
<trkpt lat="40.072842" lon="-105.230575">
  <ele>1586.09</ele>
  <time>2026-08-27T18:30:22Z</time>
  <course>101.9</course>
  <speed>0.0</speed>
  <fix>3d</fix>
</trkpt>
<trkpt lat="40.072842" lon="-105.230575">
  <ele>1586.18</ele>
  <time>2026-08-27T18:30:22Z</time>
  <course>17.75</course>
  <speed>0.01</speed>
  <fix>3d</fix>
</trkpt>
<trkpt lat="40.072842" lon="-105.230575">
  <ele>1586.09</ele>
  <time>2026-08-27T18:30:22Z</time>
  <course>312.76</course>
  <speed>0.0</speed>
  <fix>3d</fix>
</trkpt>
<trkpt lat="40.072842" lon="-105.230575">
  <ele>1586.18</ele>
  <time>2026-08-27T18:30:22Z</time>
  <course>17.71</course>
  <speed>0.01</speed>
  <fix>3d</fix>
</trkpt>
<trkpt lat="40.072842" lon="-105.230575">
  <ele>1586.09</ele>
  <time>2026-08-27T18:30:22Z</time>
  <course>286.95</course>
  <speed>0.0</speed>
  <fix>3d</fix>
</trkpt>
<trkpt lat="40.072842" lon="-105.230575">
  <ele>1586.18</ele>
  <time>2026-08-27T18:30:22Z</time>
  <course>17.67</course>
  <speed>0.01</speed>
  <fix>3d</fix>
</trkpt>
<trkpt lat="40.072842" lon="-105.230575">
  <ele>1586.09</ele>
  <time>2026-08-27T18:30:22Z</time>
  <course>304.02</course>
  <speed>0.0</speed>
  <fix>3d</fix>
</trkpt>
<trkpt lat="40.072842" lon="-105.230575">
  <ele>1586.17</ele>
  <time>2026-08-27T18:30:22Z</time>
  <course>17.63</course>
  <speed>0.01</speed>
  <fix>3d</fix>
</trkpt>
<trkpt lat="40.072842" lon="-105.230575">
  <ele>1586.09</ele>
  <time>2026-08-27T18:30:22Z</time>
  <course>314.53</course>
  <speed>0.0</speed>
  <fix>3d</fix>
</trkpt>
<trkpt lat="40.0728419" lon="-105.230575">
  <ele>1586.17</ele>
  <time>2026-08-27T18:30:22Z</time>
  <course>17.59</course>
  <speed>0.01414213562373095</speed>
  <fix>3d</fix>
</trkpt>
<trkpt lat="40.072842" lon="-105.230575">
  <ele>1586.09</ele>
  <time>2026-08-27T18:30:22Z</time>
  <course>273.96</course>
  <speed>0.0</speed>
  <fix>3d</fix>
</trkpt>
<trkpt lat="40.0728419" lon="-105.230575">
  <ele>1586.17</ele>
  <time>2026-08-27T18:30:22Z</time>
  <course>17.55</course>
  <speed>0.022360679774997897</speed>
  <fix>3d</fix>
</trkpt>
<trkpt lat="40.072842" lon="-105.230575">
  <ele>1586.09</ele>
  <time>2026-08-27T18:30:22Z</time>
  <course>271.43</course>
  <speed>0.0</speed>
  <fix>3d</fix>
</trkpt>
<trkpt lat="40.0728419" lon="-105.230575">
  <ele>1586.17</ele>
  <time>2026-08-27T18:30:22Z</time>
  <course>17.5</course>
  <speed>0.022360679774997897</speed>
  <fix>3d</fix>
</trkpt>
<trkpt lat="40.072842" lon="-105.230575">
  <ele>1586.09</ele>
  <time>2026-08-27T18:30:22Z</time>
  <course>278.09</course>
  <speed>0.0</speed>
  <fix>3d</fix>
</trkpt>
<trkpt lat="40.0728419" lon="-105.230575">
  <ele>1586.17</ele>
  <time>2026-08-27T18:30:22Z</time>
  <course>17.46</course>
  <speed>0.022360679774997897</speed>
  <fix>3d</fix>
</trkpt>
<trkpt lat="40.072842" lon="-105.230575">
  <ele>1586.09</ele>
  <time>2026-08-27T18:30:22Z</time>
  <course>276.54</course>
  <speed>0.0</speed>
  <fix>3d</fix>
</trkpt>
<trkpt lat="40.0728419" lon="-105.230575">
  <ele>1586.17</ele>
  <time>2026-08-27T18:30:22Z</time>
  <course>17.42</course>
  <speed>0.022360679774997897</speed>
  <fix>3d</fix>
</trkpt>
<trkpt lat="40.072842" lon="-105.230575">
  <ele>1586.09</ele>
  <time>2026-08-27T18:30:22Z</time>
  <course>315.02</course>
  <speed>0.0</speed>
  <fix>3d</fix>
</trkpt>
<trkpt lat="40.0728419" lon="-105.230575">
  <ele>1586.17</ele>
  <time>2026-08-27T18:30:22Z</time>
  <course>17.37</course>
  <speed>0.022360679774997897</speed>
  <fix>3d</fix>
</trkpt>
<trkpt lat="40.072842" lon="-105.230575">
  <ele>1586.09</ele>
  <time>2026-08-27T18:30:22Z</time>
  <course>308.43</course>
  <speed>0.0</speed>
  <fix>3d</fix>
</trkpt>
<trkpt lat="40.0728419" lon="-105.230575">
  <ele>1586.17</ele>
  <time>2026-08-27T18:30:22Z</time>
  <course>17.32</course>
  <speed>0.022360679774997897</speed>
  <fix>3d</fix>
</trkpt>
<trkpt lat="40.072842" lon="-105.230575">
  <ele>1586.09</ele>
  <time>2026-08-27T18:30:22Z</time>
  <course>267.23</course>
  <speed>0.0</speed>
  <fix>3d</fix>
</trkpt>
<trkpt lat="40.0728419" lon="-105.230575">
  <ele>1586.18</ele>
  <time>2026-08-27T18:30:22Z</time>
  <course>17.27</course>
  <speed>0.022360679774997897</speed>
  <fix>3d</fix>
</trkpt>
<trkpt lat="40.072842" lon="-105.230575">
  <ele>1586.09</ele>
  <time>2026-08-27T18:30:22Z</time>
  <course>272.94</course>
  <speed>0.0</speed>
  <fix>3d</fix>
</trkpt>
<trkpt lat="40.0728419" lon="-105.230575">
  <ele>1586.18</ele>
  <time>2026-08-27T18:30:22Z</time>
  <course>17.21</course>
  <speed>0.022360679774997897</speed>
  <fix>3d</fix>
</trkpt>
<trkpt lat="40.072842" lon="-105.230575">
  <ele>1586.09</ele>
  <time>2026-08-27T18:30:22Z</time>
  <course>271.05</course>
  <speed>0.0</speed>
  <fix>3d</fix>
</trkpt>
<trkpt lat="40.0728419" lon="-105.2305749">
  <ele>1586.18</ele>
  <time>2026-08-27T18:30:22Z</time>
  <course>17.16</course>
  <speed>0.022360679774997897</speed>
  <fix>3d</fix>
</trkpt>
<trkpt lat="40.072842" lon="-105.230575">
  <ele>1586.09</ele>
  <time>2026-08-27T18:30:22Z</time>
  <course>305.96</course>
  <speed>0.0</speed>
  <fix>3d</fix>
</trkpt>
<trkpt lat="40.0728419" lon="-105.2305749">
  <ele>1586.18</ele>
  <time>2026-08-27T18:30:22Z</time>
  <course>17.1</course>
  <speed>0.022360679774997897</speed>
  <fix>3d</fix>
</trkpt>
<trkpt lat="40.072842" lon="-105.230575">
  <ele>1586.09</ele>
  <time>2026-08-27T18:30:22Z</time>
  <course>314.94</course>
  <speed>0.0</speed>
  <fix>3d</fix>
</trkpt>
<trkpt lat="40.0728419" lon="-105.2305749">
  <ele>1586.18</ele>
  <time>2026-08-27T18:30:22Z</time>
  <course>17.04</course>
  <speed>0.022360679774997897</speed>
  <fix>3d</fix>
</trkpt>
<trkpt lat="40.072842" lon="-105.230575">
  <ele>1586.09</ele>
  <time>2026-08-27T18:30:22Z</time>
  <course>297.99</course>
  <speed>0.0</speed>
  <fix>3d</fix>
</trkpt>
<trkpt lat="40.0728419" lon="-105.2305749">
  <ele>1586.18</ele>
  <time>2026-08-27T18:30:22Z</time>
  <course>16.98</course>
  <speed>0.022360679774997897</speed>
  <fix>3d</fix>
</trkpt>
<trkpt lat="40.072842" lon="-105.230575">
  <ele>1586.09</ele>
  <time>2026-08-27T18:30:22Z</time>
  <course>272.55</course>
  <speed>0.0</speed>
  <fix>3d</fix>
</trkpt>
<trkpt lat="40.0728419" lon="-105.2305749">
  <ele>1586.18</ele>
  <time>2026-08-27T18:30:22Z</time>
  <course>16.92</course>
  <speed>0.022360679774997897</speed>
  <fix>3d</fix>
</trkpt>
<trkpt lat="40.072842" lon="-105.230575">
  <ele>1586.09</ele>
  <time>2026-08-27T18:30:22Z</time>
  <course>273.99</course>
  <speed>0.0</speed>
  <fix>3d</fix>
</trkpt>
<trkpt lat="40.0728419" lon="-105.2305749">
  <ele>1586.18</ele>
  <time>2026-08-27T18:30:22Z</time>
  <course>16.86</course>
  <speed>0.022360679774997897</speed>
  <fix>3d</fix>
</trkpt>
<trkpt lat="40.072842" lon="-105.230575">
  <ele>1586.09</ele>
  <time>2026-08-27T18:30:22Z</time>
  <course>276.49</course>
  <speed>0.0</speed>
  <fix>3d</fix>
</trkpt>
<trkpt lat="40.0728419" lon="-105.2305749">
  <ele>1586.18</ele>
  <time>2026-08-27T18:30:22Z</time>
  <course>16.79</course>
  <speed>0.022360679774997897</speed>
  <fix>3d</fix>
</trkpt>
<trkpt lat="40.072842" lon="-105.230575">
  <ele>1586.09</ele>
  <time>2026-08-27T18:30:22Z</time>
  <course>286.8</course>
  <speed>0.0</speed>
  <fix>3d</fix>
</trkpt>
<trkpt lat="40.0728419" lon="-105.2305749">
  <ele>1586.17</ele>
  <time>2026-08-27T18:30:22Z</time>
  <course>16.73</course>
  <speed>0.022360679774997897</speed>
  <fix>3d</fix>
</trkpt>
<trkpt lat="40.072842" lon="-105.230575">
  <ele>1586.09</ele>
  <time>2026-08-27T18:30:22Z</time>
  <course>315.18</course>
  <speed>0.0</speed>
  <fix>3d</fix>
</trkpt>
<trkpt lat="40.0728419" lon="-105.2305749">
  <ele>1586.17</ele>
  <time>2026-08-27T18:30:22Z</time>
  <course>16.67</course>
  <speed>0.022360679774997897</speed>
  <fix>3d</fix>
</trkpt>
<trkpt lat="40.072842" lon="-105.230575">
  <ele>1586.09</ele>
  <time>2026-08-27T18:30:22Z</time>
  <course>310.81</course>
  <speed>0.0</speed>
  <fix>3d</fix>
</trkpt>
<trkpt lat="40.0728419" lon="-105.2305749">
  <ele>1586.17</ele>
  <time>2026-08-27T18:30:22Z</time>
  <course>16.6</course>
  <speed>0.022360679774997897</speed>
  <fix>3d</fix>
</trkpt>
<trkpt lat="40.072842" lon="-105.230575">
  <ele>1586.09</ele>
  <time>2026-08-27T18:30:22Z</time>
  <course>273.37</course>
  <speed>0.0</speed>
  <fix>3d</fix>
</trkpt>
<trkpt lat="40.0728419" lon="-105.2305749">
  <ele>1586.17</ele>
  <time>2026-08-27T18:30:22Z</time>
  <course>16.54</course>
  <speed>0.022360679774997897</speed>
  <fix>3d</fix>
</trkpt>
<trkpt lat="40.072842" lon="-105.230575">
  <ele>1586.09</ele>
  <time>2026-08-27T18:30:22Z</time>
  <course>269.07</course>
  <speed>0.0</speed>
  <fix>3d</fix>
</trkpt>
<trkpt lat="40.0728419" lon="-105.2305749">
  <ele>1586.17</ele>
  <time>2026-08-27T18:30:22Z</time>
  <course>16.47</course>
  <speed>0.022360679774997897</speed>
  <fix>3d</fix>
</trkpt>
<trkpt lat="40.072842" lon="-105.230575">
  <ele>1586.09</ele>
  <time>2026-08-27T18:30:22Z</time>
  <course>279.42</course>
  <speed>0.0</speed>
  <fix>3d</fix>
</trkpt>
<trkpt lat="40.0728419" lon="-105.2305749">
  <ele>1586.17</ele>
  <time>2026-08-27T18:30:22Z</time>
  <course>16.41</course>
  <speed>0.022360679774997897</speed>
  <fix>3d</fix>
</trkpt>
<trkpt lat="40.072842" lon="-105.230575">
  <ele>1586.09</ele>
  <time>2026-08-27T18:30:22Z</time>
  <course>285.36</course>
  <speed>0.0</speed>
  <fix>3d</fix>
</trkpt>
<trkpt lat="40.0728419" lon="-105.2305749">
  <ele>1586.17</ele>
  <time>2026-08-27T18:30:22Z</time>
  <course>16.35</course>
  <speed>0.022360679774997897</speed>
  <fix>3d</fix>
</trkpt>
<trkpt lat="40.072842" lon="-105.230575">
  <ele>1586.09</ele>
  <time>2026-08-27T18:30:22Z</time>
  <course>281.09</course>
  <speed>0.0</speed>
  <fix>3d</fix>
</trkpt>
<trkpt lat="40.0728419" lon="-105.2305749">
  <ele>1586.18</ele>
  <time>2026-08-27T18:30:22Z</time>
  <course>16.29</course>
  <speed>0.022360679774997897</speed>
  <fix>3d</fix>
</trkpt>
<trkpt lat="40.072842" lon="-105.230575">
  <ele>1586.09</ele>
  <time>2026-08-27T18:30:22Z</time>
  <course>306.75</course>
  <speed>0.0</speed>
  <fix>3d</fix>
</trkpt>
<trkpt lat="40.0728419" lon="-105.2305749">
  <ele>1586.18</ele>
  <time>2026-08-27T18:30:22Z</time>
  <course>16.22</course>
  <speed>0.022360679774997897</speed>
  <fix>3d</fix>
</trkpt>
<trkpt lat="40.072842" lon="-105.230575">
  <ele>1586.09</ele>
  <time>2026-08-27T18:30:22Z</time>
  <course>303.71</course>
  <speed>0.0</speed>
  <fix>3d</fix>
</trkpt>
<trkpt lat="40.0728419" lon="-105.2305749">
  <ele>1586.18</ele>
  <time>2026-08-27T18:30:22Z</time>
  <course>16.16</course>
  <speed>0.022360679774997897</speed>
  <fix>3d</fix>
</trkpt>
<trkpt lat="40.072842" lon="-105.230575">
  <ele>1586.09</ele>
  <time>2026-08-27T18:30:22Z</time>
  <course>279.96</course>
  <speed>0.0</speed>
  <fix>3d</fix>
</trkpt>
<trkpt lat="40.0728419" lon="-105.2305749">
  <ele>1586.18</ele>
  <time>2026-08-27T18:30:22Z</time>
  <course>16.1</course>
  <speed>0.022360679774997897</speed>
  <fix>3d</fix>
</trkpt>
<trkpt lat="40.072842" lon="-105.230575">
  <ele>1586.09</ele>
  <time>2026-08-27T18:30:22Z</time>
  <course>265.86</course>
  <speed>0.0</speed>
  <fix>3d</fix>
</trkpt>
<trkpt lat="40.0728419" lon="-105.2305749">
  <ele>1586.18</ele>
  <time>2026-08-27T18:30:22Z</time>
  <course>16.04</course>
  <speed>0.022360679774997897</speed>
  <fix>3d</fix>
</trkpt>
<trkpt lat="40.072842" lon="-105.230575">
  <ele>1586.09</ele>
  <time>2026-08-27T18:30:22Z</time>
  <course>280.91</course>
  <speed>0.0</speed>
  <fix>3d</fix>
</trkpt>
<trkpt lat="40.0728419" lon="-105.2305749">
  <ele>1586.17</ele>
  <time>2026-08-27T18:30:22Z</time>
  <course>15.97</course>
  <speed>0.022360679774997897</speed>
  <fix>3d</fix>
</trkpt>
<trkpt lat="40.072842" lon="-105.230575">
  <ele>1586.09</ele>
  <time>2026-08-27T18:30:22Z</time>
  <course>280.88</course>
  <speed>0.0</speed>
  <fix>3d</fix>
</trkpt>
<trkpt lat="40.0728419" lon="-105.2305749">
  <ele>1586.17</ele>
  <time>2026-08-27T18:30:22Z</time>
  <course>15.91</course>
  <speed>0.022360679774997897</speed>
  <fix>3d</fix>
</trkpt>
<trkpt lat="40.072842" lon="-105.230575">
  <ele>1586.09</ele>
  <time>2026-08-27T18:30:22Z</time>
  <course>278.56</course>
  <speed>0.0</speed>
  <fix>3d</fix>
</trkpt>
<trkpt lat="40.0728419" lon="-105.2305749">
  <ele>1586.17</ele>
  <time>2026-08-27T18:30:22Z</time>
  <course>15.85</course>
  <speed>0.022360679774997897</speed>
  <fix>3d</fix>
</trkpt>
<trkpt lat="40.072842" lon="-105.230575">
  <ele>1586.09</ele>
  <time>2026-08-27T18:30:22Z</time>
  <course>278.51</course>
  <speed>0.0</speed>
  <fix>3d</fix>
</trkpt>
<trkpt lat="40.0728419" lon="-105.2305749">
  <ele>1586.17</ele>
  <time>2026-08-27T18:30:22Z</time>
  <course>15.79</course>
  <speed>0.022360679774997897</speed>
  <fix>3d</fix>
</trkpt>
<trkpt lat="40.072842" lon="-105.230575">
  <ele>1586.09</ele>
  <time>2026-08-27T18:30:22Z</time>
  <course>286.38</course>
  <speed>0.0</speed>
  <fix>3d</fix>
</trkpt>
<trkpt lat="40.0728419" lon="-105.2305749">
  <ele>1586.17</ele>
  <time>2026-08-27T18:30:22Z</time>
  <course>15.73</course>
  <speed>0.022360679774997897</speed>
  <fix>3d</fix>
</trkpt>
<trkpt lat="40.072842" lon="-105.230575">
  <ele>1586.09</ele>
  <time>2026-08-27T18:30:22Z</time>
  <course>287.98</course>
  <speed>0.0</speed>
  <fix>3d</fix>
</trkpt>
<trkpt lat="40.0728419" lon="-105.2305749">
  <ele>1586.17</ele>
  <time>2026-08-27T18:30:22Z</time>
  <course>15.67</course>
  <speed>0.022360679774997897</speed>
  <fix>3d</fix>
</trkpt>
<trkpt lat="40.072842" lon="-105.230575">
  <ele>1586.09</ele>
  <time>2026-08-27T18:30:22Z</time>
  <course>274.55</course>
  <speed>0.0</speed>
  <fix>3d</fix>
</trkpt>
<trkpt lat="40.0728419" lon="-105.2305749">
  <ele>1586.17</ele>
  <time>2026-08-27T18:30:22Z</time>
  <course>15.61</course>
  <speed>0.022360679774997897</speed>
  <fix>3d</fix>
</trkpt>
<trkpt lat="40.072842" lon="-105.230575">
  <ele>1586.09</ele>
  <time>2026-08-27T18:30:22Z</time>
  <course>251.02</course>
  <speed>0.0</speed>
  <fix>3d</fix>
</trkpt>
<trkpt lat="40.0728419" lon="-105.2305749">
  <ele>1586.17</ele>
  <time>2026-08-27T18:30:22Z</time>
  <course>15.55</course>
  <speed>0.022360679774997897</speed>
  <fix>3d</fix>
</trkpt>
<trkpt lat="40.072842" lon="-105.230575">
  <ele>1586.09</ele>
  <time>2026-08-27T18:30:22Z</time>
  <course>265.66</course>
  <speed>0.0</speed>
  <fix>3d</fix>
</trkpt>
<trkpt lat="40.0728419" lon="-105.2305749">
  <ele>1586.17</ele>
  <time>2026-08-27T18:30:22Z</time>
  <course>15.49</course>
  <speed>0.022360679774997897</speed>
  <fix>3d</fix>
</trkpt>
<trkpt lat="40.072842" lon="-105.230575">
  <ele>1586.09</ele>
  <time>2026-08-27T18:30:22Z</time>
  <course>282.78</course>
  <speed>0.0</speed>
  <fix>3d</fix>
</trkpt>
<trkpt lat="40.0728419" lon="-105.2305749">
  <ele>1586.17</ele>
  <time>2026-08-27T18:30:22Z</time>
  <course>15.43</course>
  <speed>0.022360679774997897</speed>
  <fix>3d</fix>
</trkpt>
<trkpt lat="40.072842" lon="-105.230575">
  <ele>1586.09</ele>
  <time>2026-08-27T18:30:22Z</time>
  <course>277.58</course>
  <speed>0.0</speed>
  <fix>3d</fix>
</trkpt>
<trkpt lat="40.0728419" lon="-105.2305749">
  <ele>1586.17</ele>
  <time>2026-08-27T18:30:22Z</time>
  <course>15.37</course>
  <speed>0.022360679774997897</speed>
  <fix>3d</fix>
</trkpt>
<trkpt lat="40.072842" lon="-105.230575">
  <ele>1586.09</ele>
  <time>2026-08-27T18:30:22Z</time>
  <course>276.0</course>
  <speed>0.0</speed>
  <fix>3d</fix>
</trkpt>
<trkpt lat="40.0728419" lon="-105.2305749">
  <ele>1586.17</ele>
  <time>2026-08-27T18:30:22Z</time>
  <course>15.31</course>
  <speed>0.022360679774997897</speed>
  <fix>3d</fix>
</trkpt>
<trkpt lat="40.072842" lon="-105.230575">
  <ele>1586.09</ele>
  <time>2026-08-27T18:30:22Z</time>
  <course>276.6</course>
  <speed>0.0</speed>
  <fix>3d</fix>
</trkpt>
<trkpt lat="40.0728419" lon="-105.2305749">
  <ele>1586.17</ele>
  <time>2026-08-27T18:30:22Z</time>
  <course>15.25</course>
  <speed>0.022360679774997897</speed>
  <fix>3d</fix>
</trkpt>
<trkpt lat="40.072842" lon="-105.230575">
  <ele>1586.09</ele>
  <time>2026-08-27T18:30:22Z</time>
  <course>275.68</course>
  <speed>0.0</speed>
  <fix>3d</fix>
</trkpt>
<trkpt lat="40.0728419" lon="-105.2305749">
  <ele>1586.18</ele>
  <time>2026-08-27T18:30:22Z</time>
  <course>15.19</course>
  <speed>0.022360679774997897</speed>
  <fix>3d</fix>
</trkpt>
<trkpt lat="40.072842" lon="-105.230575">
  <ele>1586.09</ele>
  <time>2026-08-27T18:30:22Z</time>
  <course>284.41</course>
  <speed>0.0</speed>
  <fix>3d</fix>
</trkpt>
<trkpt lat="40.0728419" lon="-105.2305749">
  <ele>1586.18</ele>
  <time>2026-08-27T18:30:22Z</time>
  <course>15.14</course>
  <speed>0.022360679774997897</speed>
  <fix>3d</fix>
</trkpt>
<trkpt lat="40.072842" lon="-105.230575">
  <ele>1586.09</ele>
  <time>2026-08-27T18:30:22Z</time>
  <course>286.23</course>
  <speed>0.0</speed>
  <fix>3d</fix>
</trkpt>
<trkpt lat="40.0728419" lon="-105.2305749">
  <ele>1586.18</ele>
  <time>2026-08-27T18:30:22Z</time>
  <course>15.08</course>
  <speed>0.022360679774997897</speed>
  <fix>3d</fix>
</trkpt>
<trkpt lat="40.072842" lon="-105.230575">
  <ele>1586.09</ele>
  <time>2026-08-27T18:30:22Z</time>
  <course>273.62</course>
  <speed>0.0</speed>
  <fix>3d</fix>
</trkpt>
<trkpt lat="40.0728419" lon="-105.2305749">
  <ele>1586.18</ele>
  <time>2026-08-27T18:30:22Z</time>
  <course>15.02</course>
  <speed>0.022360679774997897</speed>
  <fix>3d</fix>
</trkpt>
<trkpt lat="40.072842" lon="-105.230575">
  <ele>1586.09</ele>
  <time>2026-08-27T18:30:22Z</time>
  <course>275.04</course>
  <speed>0.0</speed>
  <fix>3d</fix>
</trkpt>
<trkpt lat="40.0728419" lon="-105.2305749">
  <ele>1586.18</ele>
  <time>2026-08-27T18:30:22Z</time>
  <course>14.97</course>
  <speed>0.022360679774997897</speed>
  <fix>3d</fix>
</trkpt>
<trkpt lat="40.072842" lon="-105.230575">
  <ele>1586.09</ele>
  <time>2026-08-27T18:30:22Z</time>
  <course>276.48</course>
  <speed>0.0</speed>
  <fix>3d</fix>
</trkpt>
<trkpt lat="40.0728419" lon="-105.2305749">
  <ele>1586.18</ele>
  <time>2026-08-27T18:30:22Z</time>
  <course>14.91</course>
  <speed>0.022360679774997897</speed>
  <fix>3d</fix>
</trkpt>
<trkpt lat="40.072842" lon="-105.230575">
  <ele>1586.09</ele>
  <time>2026-08-27T18:30:22Z</time>
  <course>275.99</course>
  <speed>0.0</speed>
  <fix>3d</fix>
</trkpt>
<trkpt lat="40.0728419" lon="-105.2305749">
  <ele>1586.18</ele>
  <time>2026-08-27T18:30:22Z</time>
  <course>14.86</course>
  <speed>0.022360679774997897</speed>
  <fix>3d</fix>
</trkpt>
<trkpt lat="40.072842" lon="-105.230575">
  <ele>1586.09</ele>
  <time>2026-08-27T18:30:22Z</time>
  <course>275.68</course>
  <speed>0.0</speed>
  <fix>3d</fix>
</trkpt>
<trkpt lat="40.0728419" lon="-105.2305749">
  <ele>1586.18</ele>
  <time>2026-08-27T18:30:22Z</time>
  <course>14.8</course>
  <speed>0.022360679774997897</speed>
  <fix>3d</fix>
</trkpt>
<trkpt lat="40.072842" lon="-105.230575">
  <ele>1586.09</ele>
  <time>2026-08-27T18:30:22Z</time>
  <course>275.6</course>
  <speed>0.0</speed>
  <fix>3d</fix>
</trkpt>
<trkpt lat="40.0728419" lon="-105.2305749">
  <ele>1586.18</ele>
  <time>2026-08-27T18:30:22Z</time>
  <course>14.75</course>
  <speed>0.022360679774997897</speed>
  <fix>3d</fix>
</trkpt>
<trkpt lat="40.072842" lon="-105.230575">
  <ele>1586.09</ele>
  <time>2026-08-27T18:30:22Z</time>
  <course>273.97</course>
  <speed>0.0</speed>
  <fix>3d</fix>
</trkpt>
<trkpt lat="40.0728419" lon="-105.2305749">
  <ele>1586.17</ele>
  <time>2026-08-27T18:30:22Z</time>
  <course>14.7</course>
  <speed>0.022360679774997897</speed>
  <fix>3d</fix>
</trkpt>
<trkpt lat="40.072842" lon="-105.230575">
  <ele>1586.09</ele>
  <time>2026-08-27T18:30:22Z</time>
  <course>272.57</course>
  <speed>0.0</speed>
  <fix>3d</fix>
</trkpt>
<trkpt lat="40.0728419" lon="-105.2305749">
  <ele>1586.17</ele>
  <time>2026-08-27T18:30:22Z</time>
  <course>14.64</course>
  <speed>0.022360679774997897</speed>
  <fix>3d</fix>
</trkpt>
<trkpt lat="40.072842" lon="-105.230575">
  <ele>1586.09</ele>
  <time>2026-08-27T18:30:22Z</time>
  <course>285.94</course>
  <speed>0.0</speed>
  <fix>3d</fix>
</trkpt>
<trkpt lat="40.0728419" lon="-105.2305749">
  <ele>1586.17</ele>
  <time>2026-08-27T18:30:22Z</time>
  <course>14.59</course>
  <speed>0.022360679774997897</speed>
  <fix>3d</fix>
</trkpt>
<trkpt lat="40.072842" lon="-105.230575">
  <ele>1586.09</ele>
  <time>2026-08-27T18:30:22Z</time>
  <course>285.94</course>
  <speed>0.0</speed>
  <fix>3d</fix>
</trkpt>
<trkpt lat="40.0728419" lon="-105.2305749">
  <ele>1586.17</ele>
  <time>2026-08-27T18:30:22Z</time>
  <course>14.54</course>
  <speed>0.022360679774997897</speed>
  <fix>3d</fix>
</trkpt>
<trkpt lat="40.072842" lon="-105.230575">
  <ele>1586.09</ele>
  <time>2026-08-27T18:30:22Z</time>
  <course>273.12</course>
  <speed>0.0</speed>
  <fix>3d</fix>
</trkpt>
<trkpt lat="40.0728419" lon="-105.2305749">
  <ele>1586.17</ele>
  <time>2026-08-27T18:30:22Z</time>
  <course>14.49</course>
  <speed>0.022360679774997897</speed>
  <fix>3d</fix>
</trkpt>
<trkpt lat="40.072842" lon="-105.230575">
  <ele>1586.09</ele>
  <time>2026-08-27T18:30:22Z</time>
  <course>273.88</course>
  <speed>0.0</speed>
  <fix>3d</fix>
</trkpt>
<trkpt lat="40.0728419" lon="-105.2305749">
  <ele>1586.17</ele>
  <time>2026-08-27T18:30:22Z</time>
  <course>14.44</course>
  <speed>0.022360679774997897</speed>
  <fix>3d</fix>
</trkpt>
<trkpt lat="40.072842" lon="-105.230575">
  <ele>1586.09</ele>
  <time>2026-08-27T18:30:22Z</time>
  <course>275.49</course>
  <speed>0.0</speed>
  <fix>3d</fix>
</trkpt>
<trkpt lat="40.0728419" lon="-105.2305749">
  <ele>1586.16</ele>
  <time>2026-08-27T18:30:22Z</time>
  <course>14.39</course>
  <speed>0.022360679774997897</speed>
  <fix>3d</fix>
</trkpt>
<trkpt lat="40.072842" lon="-105.230575">
  <ele>1586.09</ele>
  <time>2026-08-27T18:30:22Z</time>
  <course>275.08</course>
  <speed>0.0</speed>
  <fix>3d</fix>
</trkpt>
<trkpt lat="40.0728419" lon="-105.2305749">
  <ele>1586.16</ele>
  <time>2026-08-27T18:30:22Z</time>
  <course>14.34</course>
  <speed>0.022360679774997897</speed>
  <fix>3d</fix>
</trkpt>
<trkpt lat="40.072842" lon="-105.230575">
  <ele>1586.09</ele>
  <time>2026-08-27T18:30:22Z</time>
  <course>274.8</course>
  <speed>0.0</speed>
  <fix>3d</fix>
</trkpt>
<trkpt lat="40.0728419" lon="-105.2305749">
  <ele>1586.16</ele>
  <time>2026-08-27T18:30:22Z</time>
  <course>14.29</course>
  <speed>0.022360679774997897</speed>
  <fix>3d</fix>
</trkpt>
<trkpt lat="40.072842" lon="-105.2305751">
  <ele>1586.09</ele>
  <time>2026-08-27T18:30:22Z</time>
  <course>277.0</course>
  <speed>0.0</speed>
  <fix>3d</fix>
</trkpt>
<trkpt lat="40.0728419" lon="-105.230575">
  <ele>1586.16</ele>
  <time>2026-08-27T18:30:22Z</time>
  <course>14.24</course>
  <speed>0.022360679774997897</speed>
  <fix>3d</fix>
</trkpt>
<trkpt lat="40.072842" lon="-105.2305751">
  <ele>1586.09</ele>
  <time>2026-08-27T18:30:22Z</time>
  <course>274.64</course>
  <speed>0.0</speed>
  <fix>3d</fix>
</trkpt>
<trkpt lat="40.0728419" lon="-105.230575">
  <ele>1586.17</ele>
  <time>2026-08-27T18:30:22Z</time>
  <course>14.19</course>
  <speed>0.022360679774997897</speed>
  <fix>3d</fix>
</trkpt>
<trkpt lat="40.072842" lon="-105.2305751">
  <ele>1586.09</ele>
  <time>2026-08-27T18:30:22Z</time>
  <course>272.11</course>
  <speed>0.0</speed>
  <fix>3d</fix>
</trkpt>
<trkpt lat="40.0728419" lon="-105.230575">
  <ele>1586.17</ele>
  <time>2026-08-27T18:30:22Z</time>
  <course>14.15</course>
  <speed>0.022360679774997897</speed>
  <fix>3d</fix>
</trkpt>
<trkpt lat="40.072842" lon="-105.2305751">
  <ele>1586.09</ele>
  <time>2026-08-27T18:30:22Z</time>
  <course>279.44</course>
  <speed>0.0</speed>
  <fix>3d</fix>
</trkpt>
<trkpt lat="40.0728419" lon="-105.230575">
  <ele>1586.17</ele>
  <time>2026-08-27T18:30:22Z</time>
  <course>14.1</course>
  <speed>0.022360679774997897</speed>
  <fix>3d</fix>
</trkpt>
<trkpt lat="40.072842" lon="-105.2305751">
  <ele>1586.09</ele>
  <time>2026-08-27T18:30:22Z</time>
  <course>283.11</course>
  <speed>0.0</speed>
  <fix>3d</fix>
</trkpt>
<trkpt lat="40.0728419" lon="-105.230575">
  <ele>1586.17</ele>
  <time>2026-08-27T18:30:22Z</time>
  <course>14.06</course>
  <speed>0.022360679774997897</speed>
  <fix>3d</fix>
</trkpt>
<trkpt lat="40.072842" lon="-105.2305751">
  <ele>1586.09</ele>
  <time>2026-08-27T18:30:22Z</time>
  <course>277.22</course>
  <speed>0.0</speed>
  <fix>3d</fix>
</trkpt>
<trkpt lat="40.0728419" lon="-105.230575">
  <ele>1586.16</ele>
  <time>2026-08-27T18:30:22Z</time>
  <course>14.02</course>
  <speed>0.022360679774997897</speed>
  <fix>3d</fix>
</trkpt>
<trkpt lat="40.072842" lon="-105.2305751">
  <ele>1586.09</ele>
  <time>2026-08-27T18:30:22Z</time>
  <course>272.31</course>
  <speed>0.0</speed>
  <fix>3d</fix>
</trkpt>
<trkpt lat="40.0728419" lon="-105.230575">
  <ele>1586.16</ele>
  <time>2026-08-27T18:30:22Z</time>
  <course>13.97</course>
  <speed>0.022360679774997897</speed>
  <fix>3d</fix>
</trkpt>
<trkpt lat="40.072842" lon="-105.2305751">
  <ele>1586.09</ele>
  <time>2026-08-27T18:30:22Z</time>
  <course>274.32</course>
  <speed>0.0</speed>
  <fix>3d</fix>
</trkpt>
<trkpt lat="40.0728419" lon="-105.230575">
  <ele>1586.16</ele>
  <time>2026-08-27T18:30:22Z</time>
  <course>13.93</course>
  <speed>0.022360679774997897</speed>
  <fix>3d</fix>
</trkpt>
<trkpt lat="40.072842" lon="-105.2305751">
  <ele>1586.09</ele>
  <time>2026-08-27T18:30:22Z</time>
  <course>274.65</course>
  <speed>0.0</speed>
  <fix>3d</fix>
</trkpt>
<trkpt lat="40.0728419" lon="-105.230575">
  <ele>1586.17</ele>
  <time>2026-08-27T18:30:22Z</time>
  <course>13.89</course>
  <speed>0.022360679774997897</speed>
  <fix>3d</fix>
</trkpt>
<trkpt lat="40.072842" lon="-105.2305751">
  <ele>1586.09</ele>
  <time>2026-08-27T18:30:23Z</time>
  <course>274.29</course>
  <speed>0.0</speed>
  <fix>3d</fix>
</trkpt>
<trkpt lat="40.0728419" lon="-105.230575">
  <ele>1586.17</ele>
  <time>2026-08-27T18:30:23Z</time>
  <course>13.85</course>
  <speed>0.02</speed>
  <fix>3d</fix>
</trkpt>
<trkpt lat="40.072842" lon="-105.2305751">
  <ele>1586.09</ele>
  <time>2026-08-27T18:30:23Z</time>
  <course>274.42</course>
  <speed>0.0</speed>
  <fix>3d</fix>
</trkpt>
<trkpt lat="40.0728419" lon="-105.230575">
  <ele>1586.17</ele>
  <time>2026-08-27T18:30:23Z</time>
  <course>13.81</course>
  <speed>0.02</speed>
  <fix>3d</fix>
</trkpt>
<trkpt lat="40.072842" lon="-105.2305751">
  <ele>1586.09</ele>
  <time>2026-08-27T18:30:23Z</time>
  <course>272.95</course>
  <speed>0.0</speed>
  <fix>3d</fix>
</trkpt>
<trkpt lat="40.0728419" lon="-105.230575">
  <ele>1586.17</ele>
  <time>2026-08-27T18:30:23Z</time>
  <course>13.78</course>
  <speed>0.022360679774997897</speed>
  <fix>3d</fix>
</trkpt>
<trkpt lat="40.072842" lon="-105.2305751">
  <ele>1586.09</ele>
  <time>2026-08-27T18:30:23Z</time>
  <course>271.96</course>
  <speed>0.0</speed>
  <fix>3d</fix>
</trkpt>
<trkpt lat="40.0728419" lon="-105.230575">
  <ele>1586.17</ele>
  <time>2026-08-27T18:30:23Z</time>
  <course>13.74</course>
  <speed>0.022360679774997897</speed>
  <fix>3d</fix>
</trkpt>
<trkpt lat="40.072842" lon="-105.2305751">
  <ele>1586.09</ele>
  <time>2026-08-27T18:30:23Z</time>
  <course>273.52</course>
  <speed>0.0</speed>
  <fix>3d</fix>
</trkpt>
<trkpt lat="40.0728419" lon="-105.230575">
  <ele>1586.16</ele>
  <time>2026-08-27T18:30:23Z</time>
  <course>13.7</course>
  <speed>0.022360679774997897</speed>
  <fix>3d</fix>
</trkpt>
<trkpt lat="40.072842" lon="-105.2305751">
  <ele>1586.09</ele>
  <time>2026-08-27T18:30:23Z</time>
  <course>274.34</course>
  <speed>0.0</speed>
  <fix>3d</fix>
</trkpt>
<trkpt lat="40.0728419" lon="-105.230575">
  <ele>1586.16</ele>
  <time>2026-08-27T18:30:23Z</time>
  <course>13.67</course>
  <speed>0.01414213562373095</speed>
  <fix>3d</fix>
</trkpt>
<trkpt lat="40.072842" lon="-105.2305751">
  <ele>1586.09</ele>
  <time>2026-08-27T18:30:23Z</time>
  <course>281.48</course>
  <speed>0.0</speed>
  <fix>3d</fix>
</trkpt>
<trkpt lat="40.0728419" lon="-105.230575">
  <ele>1586.16</ele>
  <time>2026-08-27T18:30:23Z</time>
  <course>13.63</course>
  <speed>0.022360679774997897</speed>
  <fix>3d</fix>
</trkpt>
<trkpt lat="40.072842" lon="-105.2305751">
  <ele>1586.09</ele>
  <time>2026-08-27T18:30:23Z</time>
  <course>282.15</course>
  <speed>0.0</speed>
  <fix>3d</fix>
</trkpt>
<trkpt lat="40.0728419" lon="-105.230575">
  <ele>1586.17</ele>
  <time>2026-08-27T18:30:23Z</time>
  <course>13.6</course>
  <speed>0.022360679774997897</speed>
  <fix>3d</fix>
</trkpt>
<trkpt lat="40.072842" lon="-105.2305751">
  <ele>1586.09</ele>
  <time>2026-08-27T18:30:23Z</time>
  <course>273.9</course>
  <speed>0.0</speed>
  <fix>3d</fix>
</trkpt>
<trkpt lat="40.0728419" lon="-105.230575">
  <ele>1586.17</ele>
  <time>2026-08-27T18:30:23Z</time>
  <course>13.57</course>
  <speed>0.022360679774997897</speed>
  <fix>3d</fix>
</trkpt>
<trkpt lat="40.072842" lon="-105.2305751">
  <ele>1586.09</ele>
  <time>2026-08-27T18:30:23Z</time>
  <course>272.62</course>
  <speed>0.0</speed>
  <fix>3d</fix>
</trkpt>
<trkpt lat="40.0728419" lon="-105.230575">
  <ele>1586.17</ele>
  <time>2026-08-27T18:30:23Z</time>
  <course>13.54</course>
  <speed>0.022360679774997897</speed>
  <fix>3d</fix>
</trkpt>
<trkpt lat="40.072842" lon="-105.2305751">
  <ele>1586.09</ele>
  <time>2026-08-27T18:30:23Z</time>
  <course>274.09</course>
  <speed>0.0</speed>
  <fix>3d</fix>
</trkpt>
<trkpt lat="40.0728419" lon="-105.230575">
  <ele>1586.17</ele>
  <time>2026-08-27T18:30:23Z</time>
  <course>13.51</course>
  <speed>0.022360679774997897</speed>
  <fix>3d</fix>
</trkpt>
<trkpt lat="40.072842" lon="-105.2305751">
  <ele>1586.09</ele>
  <time>2026-08-27T18:30:23Z</time>
  <course>274.04</course>
  <speed>0.0</speed>
  <fix>3d</fix>
</trkpt>
<trkpt lat="40.0728419" lon="-105.230575">
  <ele>1586.2</ele>
  <time>2026-08-27T18:30:23Z</time>
  <course>13.46</course>
  <speed>0.022360679774997897</speed>
  <fix>3d</fix>
</trkpt>
<trkpt lat="40.072842" lon="-105.2305751">
  <ele>1586.09</ele>
  <time>2026-08-27T18:30:23Z</time>
  <course>274.77</course>
  <speed>0.0</speed>
  <fix>3d</fix>
</trkpt>
<trkpt lat="40.0728419" lon="-105.230575">
  <ele>1586.3</ele>
  <time>2026-08-27T18:30:23Z</time>
  <course>13.36</course>
  <speed>0.022360679774997897</speed>
  <fix>3d</fix>
</trkpt>
<trkpt lat="40.072842" lon="-105.2305751">
  <ele>1586.14</ele>
  <time>2026-08-27T18:30:23Z</time>
  <course>279.74</course>
  <speed>0.0</speed>
  <fix>3d</fix>
</trkpt>
<trkpt lat="40.0728419" lon="-105.230575">
  <ele>1586.42</ele>
  <time>2026-08-27T18:30:23Z</time>
  <course>8.55</course>
  <speed>0.09055385138137417</speed>
  <fix>3d</fix>
</trkpt>
<trkpt lat="40.072842" lon="-105.2305751">
  <ele>1586.23</ele>
  <time>2026-08-27T18:30:23Z</time>
  <course>279.03</course>
  <speed>0.02</speed>
  <fix>3d</fix>
</trkpt>
<trkpt lat="40.072842" lon="-105.2305755">
  <ele>1586.77</ele>
  <time>2026-08-27T18:30:23Z</time>
  <course>3.54</course>
  <speed>0.2596150997149434</speed>
  <fix>3d</fix>
</trkpt>
<trkpt lat="40.072842" lon="-105.2305752">
  <ele>1586.42</ele>
  <time>2026-08-27T18:30:23Z</time>
  <course>280.45</course>
  <speed>0.14</speed>
  <fix>3d</fix>
</trkpt>
<trkpt lat="40.072842" lon="-105.2305756">
  <ele>1586.83</ele>
  <time>2026-08-27T18:30:23Z</time>
  <course>3.04</course>
  <speed>0.2816025568065745</speed>
  <fix>3d</fix>
</trkpt>
<trkpt lat="40.0728421" lon="-105.2305762">
  <ele>1587.19</ele>
  <time>2026-08-27T18:30:23Z</time>
  <course>0.7</course>
  <speed>0.38600518131237566</speed>
  <fix>3d</fix>
</trkpt>
<trkpt lat="40.072842" lon="-105.2305758">
  <ele>1586.76</ele>
  <time>2026-08-27T18:30:23Z</time>
  <course>279.87</course>
  <speed>0.3</speed>
  <fix>3d</fix>
</trkpt>
<trkpt lat="40.0728422" lon="-105.2305764">
  <ele>1587.25</ele>
  <time>2026-08-27T18:30:23Z</time>
  <course>0.42</course>
  <speed>0.3956008088970496</speed>
  <fix>3d</fix>
</trkpt>
<trkpt lat="40.0728423" lon="-105.2305773">
  <ele>1587.62</ele>
  <time>2026-08-27T18:30:23Z</time>
  <course>359.13</course>
  <speed>0.4729693436154187</speed>
  <fix>3d</fix>
</trkpt>
<trkpt lat="40.0728421" lon="-105.2305766">
  <ele>1587.17</ele>
  <time>2026-08-27T18:30:23Z</time>
  <course>278.14</course>
  <speed>0.42</speed>
  <fix>3d</fix>
</trkpt>
<trkpt lat="40.0728423" lon="-105.2305774">
  <ele>1587.69</ele>
  <time>2026-08-27T18:30:23Z</time>
  <course>358.98</course>
  <speed>0.49244289008980524</speed>
  <fix>3d</fix>
</trkpt>
<trkpt lat="40.0728425" lon="-105.2305785">
  <ele>1588.07</ele>
  <time>2026-08-27T18:30:23Z</time>
  <course>358.32</course>
  <speed>0.5510898293381942</speed>
  <fix>3d</fix>
</trkpt>
<trkpt lat="40.0728422" lon="-105.2305777">
  <ele>1587.6</ele>
  <time>2026-08-27T18:30:23Z</time>
  <course>276.08</course>
  <speed>0.51</speed>
  <fix>3d</fix>
</trkpt>
<trkpt lat="40.0728425" lon="-105.2305785">
  <ele>1588.08</ele>
  <time>2026-08-27T18:30:23Z</time>
  <course>358.31</course>
  <speed>0.5491812087098392</speed>
  <fix>3d</fix>
</trkpt>
<trkpt lat="40.0728426" lon="-105.2305799">
  <ele>1588.53</ele>
  <time>2026-08-27T18:30:23Z</time>
  <course>358.02</course>
  <speed>0.596824932455071</speed>
  <fix>3d</fix>
</trkpt>
<trkpt lat="40.0728423" lon="-105.230579">
  <ele>1588.04</ele>
  <time>2026-08-27T18:30:23Z</time>
  <course>274.01</course>
  <speed>0.57</speed>
  <fix>3d</fix>
</trkpt>
<trkpt lat="40.0728426" lon="-105.2305801">
  <ele>1588.6</ele>
  <time>2026-08-27T18:30:23Z</time>
  <course>358.0</course>
  <speed>0.5953990258641678</speed>
  <fix>3d</fix>
</trkpt>
<trkpt lat="40.0728426" lon="-105.2305813">
  <ele>1589.0</ele>
  <time>2026-08-27T18:30:23Z</time>
  <course>358.05</course>
  <speed>0.6328506932918696</speed>
  <fix>3d</fix>
</trkpt>
<trkpt lat="40.0728424" lon="-105.2305804">
  <ele>1588.5</ele>
  <time>2026-08-27T18:30:23Z</time>
  <course>272.18</course>
  <speed>0.62</speed>
  <fix>3d</fix>
</trkpt>
<trkpt lat="40.0728426" lon="-105.2305816">
  <ele>1589.06</ele>
  <time>2026-08-27T18:30:23Z</time>
  <course>358.08</course>
  <speed>0.6328506932918696</speed>
  <fix>3d</fix>
</trkpt>
<trkpt lat="40.0728426" lon="-105.2305829">
  <ele>1589.47</ele>
  <time>2026-08-27T18:30:23Z</time>
  <course>356.79</course>
  <speed>0.6612110101926616</speed>
  <fix>3d</fix>
</trkpt>
<trkpt lat="40.0728424" lon="-105.2305819">
  <ele>1588.97</ele>
  <time>2026-08-27T18:30:23Z</time>
  <course>270.61</course>
  <speed>0.65</speed>
  <fix>3d</fix>
</trkpt>
<trkpt lat="40.0728426" lon="-105.2305831">
  <ele>1589.55</ele>
  <time>2026-08-27T18:30:23Z</time>
  <course>356.8</course>
  <speed>0.6612110101926616</speed>
  <fix>3d</fix>
</trkpt>
<trkpt lat="40.0728426" lon="-105.2305845">
  <ele>1589.96</ele>
  <time>2026-08-27T18:30:23Z</time>
  <course>357.06</course>
  <speed>0.680294054067798</speed>
  <fix>3d</fix>
</trkpt>
<trkpt lat="40.0728424" lon="-105.2305835">
  <ele>1589.44</ele>
  <time>2026-08-27T18:30:23Z</time>
  <course>269.25</course>
  <speed>0.68</speed>
  <fix>3d</fix>
</trkpt>
<trkpt lat="40.0728426" lon="-105.2305847">
  <ele>1590.03</ele>
  <time>2026-08-27T18:30:23Z</time>
  <course>357.12</course>
  <speed>0.6800735254367721</speed>
  <fix>3d</fix>
</trkpt>
<trkpt lat="40.0728425" lon="-105.2305862">
  <ele>1590.45</ele>
  <time>2026-08-27T18:30:23Z</time>
  <course>357.57</course>
  <speed>0.7</speed>
  <fix>3d</fix>
</trkpt>
<trkpt lat="40.0728424" lon="-105.2305851">
  <ele>1589.91</ele>
  <time>2026-08-27T18:30:23Z</time>
  <course>268.05</course>
  <speed>0.7</speed>
  <fix>3d</fix>
</trkpt>
<trkpt lat="40.0728425" lon="-105.2305862">
  <ele>1590.45</ele>
  <time>2026-08-27T18:30:23Z</time>
  <course>357.57</course>
  <speed>0.7</speed>
  <fix>3d</fix>
</trkpt>
<trkpt lat="40.0728424" lon="-105.2305879">
  <ele>1590.94</ele>
  <time>2026-08-27T18:30:23Z</time>
  <course>358.12</course>
  <speed>0.7202777242147643</speed>
  <fix>3d</fix>
</trkpt>
<trkpt lat="40.0728424" lon="-105.2305868">
  <ele>1590.39</ele>
  <time>2026-08-27T18:30:23Z</time>
  <course>267.01</course>
  <speed>0.71</speed>
  <fix>3d</fix>
</trkpt>
<trkpt lat="40.0728424" lon="-105.2305881">
  <ele>1591.01</ele>
  <time>2026-08-27T18:30:23Z</time>
  <course>358.21</course>
  <speed>0.7206247289678588</speed>
  <fix>3d</fix>
</trkpt>
<trkpt lat="40.0728424" lon="-105.2305896">
  <ele>1591.43</ele>
  <time>2026-08-27T18:30:23Z</time>
  <course>358.74</course>
  <speed>0.7317103251970687</speed>
  <fix>3d</fix>
</trkpt>
<trkpt lat="40.0728423" lon="-105.2305885">
  <ele>1590.87</ele>
  <time>2026-08-27T18:30:23Z</time>
  <course>266.12</course>
  <speed>0.73</speed>
  <fix>3d</fix>
</trkpt>
<trkpt lat="40.0728424" lon="-105.2305898">
  <ele>1591.5</ele>
  <time>2026-08-27T18:30:23Z</time>
  <course>358.83</course>
  <speed>0.7317103251970687</speed>
  <fix>3d</fix>
</trkpt>
<trkpt lat="40.0728423" lon="-105.2305913">
  <ele>1591.91</ele>
  <time>2026-08-27T18:30:23Z</time>
  <course>359.41</course>
  <speed>0.7433034373659253</speed>
  <fix>3d</fix>
</trkpt>
<trkpt lat="40.0728422" lon="-105.2305902">
  <ele>1591.35</ele>
  <time>2026-08-27T18:30:23Z</time>
  <course>265.38</course>
  <speed>0.74</speed>
  <fix>3d</fix>
</trkpt>
<trkpt lat="40.0728422" lon="-105.2305916">
  <ele>1591.98</ele>
  <time>2026-08-27T18:30:23Z</time>
  <course>359.5</course>
  <speed>0.7433034373659253</speed>
  <fix>3d</fix>
</trkpt>
<trkpt lat="40.0728421" lon="-105.2305931">
  <ele>1592.39</ele>
  <time>2026-08-27T18:30:23Z</time>
  <course>0.07</course>
  <speed>0.7454528824815153</speed>
  <fix>3d</fix>
</trkpt>
<trkpt lat="40.0728421" lon="-105.230592">
  <ele>1591.83</ele>
  <time>2026-08-27T18:30:23Z</time>
  <course>264.76</course>
  <speed>0.75</speed>
  <fix>3d</fix>
</trkpt>
<trkpt lat="40.0728421" lon="-105.2305933">
  <ele>1592.46</ele>
  <time>2026-08-27T18:30:23Z</time>
  <course>0.17</course>
  <speed>0.7454528824815153</speed>
  <fix>3d</fix>
</trkpt>
<trkpt lat="40.0728419" lon="-105.2305949">
  <ele>1592.88</ele>
  <time>2026-08-27T18:30:23Z</time>
  <course>0.72</course>
  <speed>0.7566372975210779</speed>
  <fix>3d</fix>
</trkpt>
<trkpt lat="40.072842" lon="-105.2305938">
  <ele>1592.31</ele>
  <time>2026-08-27T18:30:23Z</time>
  <course>264.21</course>
  <speed>0.75</speed>
  <fix>3d</fix>
</trkpt>
<trkpt lat="40.0728419" lon="-105.2305949">
  <ele>1592.89</ele>
  <time>2026-08-27T18:30:23Z</time>
  <course>0.73</course>
  <speed>0.7566372975210779</speed>
  <fix>3d</fix>
</trkpt>
<trkpt lat="40.0728417" lon="-105.2305967">
  <ele>1593.37</ele>
  <time>2026-08-27T18:30:23Z</time>
  <course>1.34</course>
  <speed>0.758023746329889</speed>
  <fix>3d</fix>
</trkpt>
<trkpt lat="40.0728419" lon="-105.2305955">
  <ele>1592.79</ele>
  <time>2026-08-27T18:30:23Z</time>
  <course>263.7</course>
  <speed>0.76</speed>
  <fix>3d</fix>
</trkpt>
<trkpt lat="40.0728417" lon="-105.2305969">
  <ele>1593.45</ele>
  <time>2026-08-27T18:30:23Z</time>
  <course>1.43</course>
  <speed>0.758023746329889</speed>
  <fix>3d</fix>
</trkpt>
<trkpt lat="40.0728415" lon="-105.2305984">
  <ele>1593.86</ele>
  <time>2026-08-27T18:30:23Z</time>
  <course>1.92</course>
  <speed>0.7595393340703298</speed>
  <fix>3d</fix>
</trkpt>
<trkpt lat="40.0728417" lon="-105.2305973">
  <ele>1593.27</ele>
  <time>2026-08-27T18:30:23Z</time>
  <course>263.21</course>
  <speed>0.76</speed>
  <fix>3d</fix>
</trkpt>
<trkpt lat="40.0728415" lon="-105.2305987">
  <ele>1593.93</ele>
  <time>2026-08-27T18:30:23Z</time>
  <course>1.99</course>
  <speed>0.7595393340703298</speed>
  <fix>3d</fix>
</trkpt>
<trkpt lat="40.0728414" lon="-105.2306002">
  <ele>1594.35</ele>
  <time>2026-08-27T18:30:23Z</time>
  <course>2.45</course>
  <speed>0.7611832893594026</speed>
  <fix>3d</fix>
</trkpt>
<trkpt lat="40.0728415" lon="-105.230599">
  <ele>1593.75</ele>
  <time>2026-08-27T18:30:23Z</time>
  <course>262.72</course>
  <speed>0.76</speed>
  <fix>3d</fix>
</trkpt>
<trkpt lat="40.0728413" lon="-105.2306005">
  <ele>1594.42</ele>
  <time>2026-08-27T18:30:23Z</time>
  <course>2.52</course>
  <speed>0.7611832893594026</speed>
  <fix>3d</fix>
</trkpt>
<trkpt lat="40.0728412" lon="-105.230602">
  <ele>1594.84</ele>
  <time>2026-08-27T18:30:23Z</time>
  <course>2.95</course>
  <speed>0.762954782408499</speed>
  <fix>3d</fix>
</trkpt>
<trkpt lat="40.0728414" lon="-105.2306009">
  <ele>1594.24</ele>
  <time>2026-08-27T18:30:23Z</time>
  <course>262.22</course>
  <speed>0.76</speed>
  <fix>3d</fix>
</trkpt>
<trkpt lat="40.0728411" lon="-105.2306023">
  <ele>1594.92</ele>
  <time>2026-08-27T18:30:23Z</time>
  <course>3.03</course>
  <speed>0.762954782408499</speed>
  <fix>3d</fix>
</trkpt>
<trkpt lat="40.072841" lon="-105.2306038">
  <ele>1595.33</ele>
  <time>2026-08-27T18:30:23Z</time>
  <course>3.43</course>
  <speed>0.7648529270389177</speed>
  <fix>3d</fix>
</trkpt>
<trkpt lat="40.0728412" lon="-105.2306026">
  <ele>1594.72</ele>
  <time>2026-08-27T18:30:23Z</time>
  <course>261.73</course>
  <speed>0.76</speed>
  <fix>3d</fix>
</trkpt>
<trkpt lat="40.0728409" lon="-105.2306041">
  <ele>1595.4</ele>
  <time>2026-08-27T18:30:23Z</time>
  <course>3.5</course>
  <speed>0.7648529270389177</speed>
  <fix>3d</fix>
</trkpt>
<trkpt lat="40.0728407" lon="-105.2306056">
  <ele>1595.79</ele>
  <time>2026-08-27T18:30:23Z</time>
  <course>4.51</course>
  <speed>0.7746612162745725</speed>
  <fix>3d</fix>
</trkpt>
<trkpt lat="40.0728409" lon="-105.2306045">
  <ele>1595.2</ele>
  <time>2026-08-27T18:30:23Z</time>
  <course>261.25</course>
  <speed>0.76</speed>
  <fix>3d</fix>
</trkpt>
<trkpt lat="40.0728405" lon="-105.2306074">
  <ele>1596.12</ele>
  <time>2026-08-27T18:30:23Z</time>
  <course>7.38</course>
  <speed>0.7550496672405067</speed>
  <fix>3d</fix>
</trkpt>
<trkpt lat="40.0728407" lon="-105.2306063">
  <ele>1595.62</ele>
  <time>2026-08-27T18:30:23Z</time>
  <course>260.95</course>
  <speed>0.76</speed>
  <fix>3d</fix>
</trkpt>
<trkpt lat="40.0728403" lon="-105.2306091">
  <ele>1596.32</ele>
  <time>2026-08-27T18:30:23Z</time>
  <course>9.26</course>
  <speed>0.7256721022610694</speed>
  <fix>3d</fix>
</trkpt>
<trkpt lat="40.0728405" lon="-105.230608">
  <ele>1595.92</ele>
  <time>2026-08-27T18:30:23Z</time>
  <course>260.8</course>
  <speed>0.75</speed>
  <fix>3d</fix>
</trkpt>
<trkpt lat="40.0728401" lon="-105.2306108">
  <ele>1596.46</ele>
  <time>2026-08-27T18:30:23Z</time>
  <course>10.17</course>
  <speed>0.6963476143421474</speed>
  <fix>3d</fix>
</trkpt>
<trkpt lat="40.0728402" lon="-105.2306097">
  <ele>1596.11</ele>
  <time>2026-08-27T18:30:23Z</time>
  <course>260.67</course>
  <speed>0.72</speed>
  <fix>3d</fix>
</trkpt>
<trkpt lat="40.0728399" lon="-105.2306123">
  <ele>1596.54</ele>
  <time>2026-08-27T18:30:23Z</time>
  <course>10.58</course>
  <speed>0.6670832032063168</speed>
  <fix>3d</fix>
</trkpt>
<trkpt lat="40.0728401" lon="-105.2306113">
  <ele>1596.23</ele>
  <time>2026-08-27T18:30:23Z</time>
  <course>260.57</course>
  <speed>0.69</speed>
  <fix>3d</fix>
</trkpt>
<trkpt lat="40.0728397" lon="-105.2306139">
  <ele>1596.59</ele>
  <time>2026-08-27T18:30:23Z</time>
  <course>10.77</course>
  <speed>0.6281719509815764</speed>
  <fix>3d</fix>
</trkpt>
<trkpt lat="40.0728399" lon="-105.2306129">
  <ele>1596.3</ele>
  <time>2026-08-27T18:30:23Z</time>
  <course>260.48</course>
  <speed>0.66</speed>
  <fix>3d</fix>
</trkpt>
<trkpt lat="40.0728395" lon="-105.2306153">
  <ele>1596.63</ele>
  <time>2026-08-27T18:30:23Z</time>
  <course>10.73</course>
  <speed>0.5869412236331676</speed>
  <fix>3d</fix>
</trkpt>
<trkpt lat="40.0728396" lon="-105.2306144">
  <ele>1596.34</ele>
  <time>2026-08-27T18:30:23Z</time>
  <course>260.42</course>
  <speed>0.62</speed>
  <fix>3d</fix>
</trkpt>
<trkpt lat="40.0728393" lon="-105.2306166">
  <ele>1596.66</ele>
  <time>2026-08-27T18:30:23Z</time>
  <course>10.72</course>
  <speed>0.5166236541235796</speed>
  <fix>3d</fix>
</trkpt>
<trkpt lat="40.0728395" lon="-105.2306158">
  <ele>1596.38</ele>
  <time>2026-08-27T18:30:23Z</time>
  <course>260.66</course>
  <speed>0.57</speed>
  <fix>3d</fix>
</trkpt>
<trkpt lat="40.0728391" lon="-105.2306177">
  <ele>1596.7</ele>
  <time>2026-08-27T18:30:23Z</time>
  <course>10.69</course>
  <speed>0.4341658669218482</speed>
  <fix>3d</fix>
</trkpt>
<trkpt lat="40.0728394" lon="-105.230617">
  <ele>1596.41</ele>
  <time>2026-08-27T18:30:23Z</time>
  <course>261.65</course>
  <speed>0.5</speed>
  <fix>3d</fix>
</trkpt>
<trkpt lat="40.072839" lon="-105.2306186">
  <ele>1596.75</ele>
  <time>2026-08-27T18:30:23Z</time>
  <course>10.63</course>
  <speed>0.34928498393145957</speed>
  <fix>3d</fix>
</trkpt>
<trkpt lat="40.0728393" lon="-105.2306182">
  <ele>1596.46</ele>
  <time>2026-08-27T18:30:23Z</time>
  <course>263.89</course>
  <speed>0.42</speed>
  <fix>3d</fix>
</trkpt>
<trkpt lat="40.072839" lon="-105.2306194">
  <ele>1596.81</ele>
  <time>2026-08-27T18:30:23Z</time>
  <course>10.56</course>
  <speed>0.2765863337187866</speed>
  <fix>3d</fix>
</trkpt>
<trkpt lat="40.0728392" lon="-105.230619">
  <ele>1596.52</ele>
  <time>2026-08-27T18:30:23Z</time>
  <course>267.73</course>
  <speed>0.35</speed>
  <fix>3d</fix>
</trkpt>
<trkpt lat="40.072839" lon="-105.23062">
  <ele>1596.89</ele>
  <time>2026-08-27T18:30:23Z</time>
  <course>10.52</course>
  <speed>0.20223748416156684</speed>
  <fix>3d</fix>
</trkpt>
<trkpt lat="40.0728392" lon="-105.2306198">
  <ele>1596.59</ele>
  <time>2026-08-27T18:30:23Z</time>
  <course>273.18</course>
  <speed>0.27</speed>
  <fix>3d</fix>
</trkpt>
<trkpt lat="40.0728391" lon="-105.2306205">
  <ele>1596.98</ele>
  <time>2026-08-27T18:30:23Z</time>
  <course>10.55</course>
  <speed>0.140356688476182</speed>
  <fix>3d</fix>
</trkpt>
<trkpt lat="40.0728393" lon="-105.2306204">
  <ele>1596.67</ele>
  <time>2026-08-27T18:30:23Z</time>
  <course>280.07</course>
  <speed>0.21</speed>
  <fix>3d</fix>
</trkpt>
<trkpt lat="40.0728391" lon="-105.2306208">
  <ele>1597.08</ele>
  <time>2026-08-27T18:30:23Z</time>
  <course>10.66</course>
  <speed>0.09</speed>
  <fix>3d</fix>
</trkpt>
<trkpt lat="40.0728393" lon="-105.2306208">
  <ele>1596.77</ele>
  <time>2026-08-27T18:30:23Z</time>
  <course>288.52</course>
  <speed>0.16</speed>
  <fix>3d</fix>
</trkpt>
<trkpt lat="40.0728392" lon="-105.2306211">
  <ele>1597.18</ele>
  <time>2026-08-27T18:30:23Z</time>
  <course>10.84</course>
  <speed>0.05</speed>
  <fix>3d</fix>
</trkpt>
<trkpt lat="40.0728394" lon="-105.2306211">
  <ele>1596.88</ele>
  <time>2026-08-27T18:30:23Z</time>
  <course>299.42</course>
  <speed>0.12</speed>
  <fix>3d</fix>
</trkpt>
<trkpt lat="40.0728393" lon="-105.2306212">
  <ele>1597.29</ele>
  <time>2026-08-27T18:30:23Z</time>
  <course>11.09</course>
  <speed>0.01</speed>
  <fix>3d</fix>
</trkpt>
<trkpt lat="40.0728395" lon="-105.2306213">
  <ele>1596.99</ele>
  <time>2026-08-27T18:30:23Z</time>
  <course>315.15</course>
  <speed>0.08</speed>
  <fix>3d</fix>
</trkpt>
<trkpt lat="40.0728394" lon="-105.2306212">
  <ele>1597.4</ele>
  <time>2026-08-27T18:30:23Z</time>
  <course>11.34</course>
  <speed>0.02</speed>
  <fix>3d</fix>
</trkpt>
<trkpt lat="40.0728396" lon="-105.2306214">
  <ele>1597.11</ele>
  <time>2026-08-27T18:30:23Z</time>
  <course>340.42</course>
  <speed>0.06</speed>
  <fix>3d</fix>
</trkpt>
<trkpt lat="40.0728395" lon="-105.2306212">
  <ele>1597.5</ele>
  <time>2026-08-27T18:30:23Z</time>
  <course>11.59</course>
  <speed>0.05</speed>
  <fix>3d</fix>
</trkpt>
<trkpt lat="40.0728397" lon="-105.2306214">
  <ele>1597.22</ele>
  <time>2026-08-27T18:30:23Z</time>
  <course>16.03</course>
  <speed>0.05</speed>
  <fix>3d</fix>
</trkpt>
<trkpt lat="40.0728396" lon="-105.2306212">
  <ele>1597.6</ele>
  <time>2026-08-27T18:30:23Z</time>
  <course>11.86</course>
  <speed>0.08062257748298549</speed>
  <fix>3d</fix>
</trkpt>
<trkpt lat="40.0728397" lon="-105.2306213">
  <ele>1597.33</ele>
  <time>2026-08-27T18:30:23Z</time>
  <course>49.25</course>
  <speed>0.06</speed>
  <fix>3d</fix>
</trkpt>
<trkpt lat="40.0728396" lon="-105.2306209">
  <ele>1597.69</ele>
  <time>2026-08-27T18:30:23Z</time>
  <course>12.15</course>
  <speed>0.1414213562373095</speed>
  <fix>3d</fix>
</trkpt>
<trkpt lat="40.0728398" lon="-105.2306213">
  <ele>1597.42</ele>
  <time>2026-08-27T18:30:23Z</time>
  <course>71.58</course>
  <speed>0.09</speed>
  <fix>3d</fix>
</trkpt>
<trkpt lat="40.0728396" lon="-105.2306205">
  <ele>1597.75</ele>
  <time>2026-08-27T18:30:23Z</time>
  <course>12.42</course>
  <speed>0.24083189157584592</speed>
  <fix>3d</fix>
</trkpt>
<trkpt lat="40.0728399" lon="-105.230621">
  <ele>1597.51</ele>
  <time>2026-08-27T18:30:23Z</time>
  <course>82.49</course>
  <speed>0.16</speed>
  <fix>3d</fix>
</trkpt>
<trkpt lat="40.0728397" lon="-105.2306198">
  <ele>1597.79</ele>
  <time>2026-08-27T18:30:23Z</time>
  <course>8.61</course>
  <speed>0.3712142238654117</speed>
  <fix>3d</fix>
</trkpt>
<trkpt lat="40.0728399" lon="-105.2306205">
  <ele>1597.57</ele>
  <time>2026-08-27T18:30:23Z</time>
  <course>86.96</course>
  <speed>0.27</speed>
  <fix>3d</fix>
</trkpt>
<trkpt lat="40.0728397" lon="-105.2306188">
  <ele>1597.81</ele>
  <time>2026-08-27T18:30:23Z</time>
  <course>8.27</course>
  <speed>0.5208646657242167</speed>
  <fix>3d</fix>
</trkpt>
<trkpt lat="40.0728399" lon="-105.2306197">
  <ele>1597.61</ele>
  <time>2026-08-27T18:30:23Z</time>
  <course>87.91</course>
  <speed>0.4</speed>
  <fix>3d</fix>
</trkpt>
<trkpt lat="40.0728397" lon="-105.2306174">
  <ele>1597.81</ele>
  <time>2026-08-27T18:30:23Z</time>
  <course>8.53</course>
  <speed>0.7200694410957876</speed>
  <fix>3d</fix>
</trkpt>
<trkpt lat="40.07284" lon="-105.2306186">
  <ele>1597.64</ele>
  <time>2026-08-27T18:30:23Z</time>
  <course>87.46</course>
  <speed>0.56</speed>
  <fix>3d</fix>
</trkpt>
<trkpt lat="40.0728398" lon="-105.2306155">
  <ele>1597.8</ele>
  <time>2026-08-27T18:30:23Z</time>
  <course>8.52</course>
  <speed>0.93</speed>
  <fix>3d</fix>
</trkpt>
<trkpt lat="40.07284" lon="-105.230617">
  <ele>1597.64</ele>
  <time>2026-08-27T18:30:23Z</time>
  <course>86.68</course>
  <speed>0.75</speed>
  <fix>3d</fix>
</trkpt>
<trkpt lat="40.0728399" lon="-105.2306132">
  <ele>1597.78</ele>
  <time>2026-08-27T18:30:23Z</time>
  <course>10.56</course>
  <speed>1.0907336980216573</speed>
  <fix>3d</fix>
</trkpt>
<trkpt lat="40.0728401" lon="-105.230615">
  <ele>1597.63</ele>
  <time>2026-08-27T18:30:23Z</time>
  <course>85.64</course>
  <speed>0.95</speed>
  <fix>3d</fix>
</trkpt>
<trkpt lat="40.0728401" lon="-105.2306105">
  <ele>1597.77</ele>
  <time>2026-08-27T18:30:23Z</time>
  <course>22.61</course>
  <speed>1.2539936203984452</speed>
  <fix>3d</fix>
</trkpt>
<trkpt lat="40.0728402" lon="-105.2306126">
  <ele>1597.62</ele>
  <time>2026-08-27T18:30:23Z</time>
  <course>84.08</course>
  <speed>1.12</speed>
  <fix>3d</fix>
</trkpt>
<trkpt lat="40.0728405" lon="-105.2306074">
  <ele>1597.76</ele>
  <time>2026-08-27T18:30:23Z</time>
  <course>35.67</course>
  <speed>1.421442928857856</speed>
  <fix>3d</fix>
</trkpt>
<trkpt lat="40.0728405" lon="-105.2306098">
  <ele>1597.61</ele>
  <time>2026-08-27T18:30:23Z</time>
  <course>82.06</course>
  <speed>1.28</speed>
  <fix>3d</fix>
</trkpt>
<trkpt lat="40.072841" lon="-105.2306039">
  <ele>1597.76</ele>
  <time>2026-08-27T18:30:23Z</time>
  <course>48.21</course>
  <speed>1.5634896865665602</speed>
  <fix>3d</fix>
</trkpt>
<trkpt lat="40.0728409" lon="-105.2306066">
  <ele>1597.61</ele>
  <time>2026-08-27T18:30:23Z</time>
  <course>79.97</course>
  <speed>1.44</speed>
  <fix>3d</fix>
</trkpt>
<trkpt lat="40.0728416" lon="-105.2306002">
  <ele>1597.75</ele>
  <time>2026-08-27T18:30:23Z</time>
  <course>60.65</course>
  <speed>1.6650825805346714</speed>
  <fix>3d</fix>
</trkpt>
<trkpt lat="40.0728414" lon="-105.2306031">
  <ele>1597.61</ele>
  <time>2026-08-27T18:30:23Z</time>
  <course>78.08</course>
  <speed>1.58</speed>
  <fix>3d</fix>
</trkpt>
<trkpt lat="40.0728424" lon="-105.2305964">
  <ele>1597.75</ele>
  <time>2026-08-27T18:30:23Z</time>
  <course>72.89</course>
  <speed>1.727917822120022</speed>
  <fix>3d</fix>
</trkpt>
<trkpt lat="40.0728421" lon="-105.2305993">
  <ele>1597.61</ele>
  <time>2026-08-27T18:30:23Z</time>
  <course>76.83</course>
  <speed>1.67</speed>
  <fix>3d</fix>
</trkpt>
<trkpt lat="40.0728431" lon="-105.2305924">
  <ele>1597.76</ele>
  <time>2026-08-27T18:30:23Z</time>
  <course>77.67</course>
  <speed>1.739683879329805</speed>
  <fix>3d</fix>
</trkpt>
<trkpt lat="40.0728428" lon="-105.2305954">
  <ele>1597.61</ele>
  <time>2026-08-27T18:30:23Z</time>
  <course>77.21</course>
  <speed>1.72</speed>
  <fix>3d</fix>
</trkpt>
<trkpt lat="40.0728437" lon="-105.2305885">
  <ele>1597.76</ele>
  <time>2026-08-27T18:30:23Z</time>
  <course>77.45</course>
  <speed>1.7048460341039597</speed>
  <fix>3d</fix>
</trkpt>
<trkpt lat="40.0728435" lon="-105.2305915">
  <ele>1597.62</ele>
  <time>2026-08-27T18:30:23Z</time>
  <course>78.52</course>
  <speed>1.72</speed>
  <fix>3d</fix>
</trkpt>
<trkpt lat="40.0728442" lon="-105.2305847">
  <ele>1597.76</ele>
  <time>2026-08-27T18:30:23Z</time>
  <course>77.69</course>
  <speed>1.6391766225761029</speed>
  <fix>3d</fix>
</trkpt>
<trkpt lat="40.072844" lon="-105.2305876">
  <ele>1597.63</ele>
  <time>2026-08-27T18:30:23Z</time>
  <course>79.49</course>
  <speed>1.68</speed>
  <fix>3d</fix>
</trkpt>
<trkpt lat="40.0728447" lon="-105.230581">
  <ele>1597.77</ele>
  <time>2026-08-27T18:30:23Z</time>
  <course>78.89</course>
  <speed>1.5430165261590687</speed>
  <fix>3d</fix>
</trkpt>
<trkpt lat="40.0728445" lon="-105.2305837">
  <ele>1597.64</ele>
  <time>2026-08-27T18:30:23Z</time>
  <course>80.57</course>
  <speed>1.6</speed>
  <fix>3d</fix>
</trkpt>
<trkpt lat="40.072845" lon="-105.2305776">
  <ele>1597.77</ele>
  <time>2026-08-27T18:30:23Z</time>
  <course>80.62</course>
  <speed>1.3970325694127537</speed>
  <fix>3d</fix>
</trkpt>
<trkpt lat="40.072845" lon="-105.2305801">
  <ele>1597.65</ele>
  <time>2026-08-27T18:30:23Z</time>
  <course>82.0</course>
  <speed>1.5</speed>
  <fix>3d</fix>
</trkpt>
<trkpt lat="40.0728453" lon="-105.2305746">
  <ele>1597.77</ele>
  <time>2026-08-27T18:30:23Z</time>
  <course>82.66</course>
  <speed>1.2126417442921877</speed>
  <fix>3d</fix>
</trkpt>
<trkpt lat="40.0728453" lon="-105.2305768">
  <ele>1597.66</ele>
  <time>2026-08-27T18:30:23Z</time>
  <course>83.73</course>
  <speed>1.35</speed>
  <fix>3d</fix>
</trkpt>
<trkpt lat="40.0728454" lon="-105.230572">
  <ele>1597.77</ele>
  <time>2026-08-27T18:30:23Z</time>
  <course>85.1</course>
  <speed>0.9802040603874276</speed>
  <fix>3d</fix>
</trkpt>
<trkpt lat="40.0728455" lon="-105.2305739">
  <ele>1597.67</ele>
  <time>2026-08-27T18:30:23Z</time>
  <course>85.82</course>
  <speed>1.15</speed>
  <fix>3d</fix>
</trkpt>
<trkpt lat="40.0728454" lon="-105.23057">
  <ele>1597.78</ele>
  <time>2026-08-27T18:30:23Z</time>
  <course>86.38</course>
  <speed>0.7211102550927978</speed>
  <fix>3d</fix>
</trkpt>
<trkpt lat="40.0728456" lon="-105.2305715">
  <ele>1597.67</ele>
  <time>2026-08-27T18:30:23Z</time>
  <course>89.04</course>
  <speed>0.91</speed>
  <fix>3d</fix>
</trkpt>
<trkpt lat="40.0728453" lon="-105.2305687">
  <ele>1597.78</ele>
  <time>2026-08-27T18:30:23Z</time>
  <course>86.19</course>
  <speed>0.44147480109288234</speed>
  <fix>3d</fix>
</trkpt>
<trkpt lat="40.0728456" lon="-105.2305696">
  <ele>1597.68</ele>
  <time>2026-08-27T18:30:23Z</time>
  <course>94.88</course>
  <speed>0.64</speed>
  <fix>3d</fix>
</trkpt>
<trkpt lat="40.0728451" lon="-105.230568">
  <ele>1597.78</ele>
  <time>2026-08-27T18:30:23Z</time>
  <course>86.12</course>
  <speed>0.212602916254693</speed>
  <fix>3d</fix>
</trkpt>
<trkpt lat="40.0728455" lon="-105.2305685">
  <ele>1597.68</ele>
  <time>2026-08-27T18:30:23Z</time>
  <course>108.2</course>
  <speed>0.37</speed>
  <fix>3d</fix>
</trkpt>
<trkpt lat="40.0728449" lon="-105.230568">
  <ele>1597.78</ele>
  <time>2026-08-27T18:30:23Z</time>
  <course>86.08</course>
  <speed>0.23259406699226015</speed>
  <fix>3d</fix>
</trkpt>
<trkpt lat="40.0728452" lon="-105.230568">
  <ele>1597.68</ele>
  <time>2026-08-27T18:30:23Z</time>
  <course>155.65</course>
  <speed>0.19</speed>
  <fix>3d</fix>
</trkpt>
<trkpt lat="40.0728445" lon="-105.2305683">
  <ele>1597.77</ele>
  <time>2026-08-27T18:30:23Z</time>
  <course>86.0</course>
  <speed>0.38948684188300897</speed>
  <fix>3d</fix>
</trkpt>
<trkpt lat="40.0728448" lon="-105.2305681">
  <ele>1597.67</ele>
  <time>2026-08-27T18:30:23Z</time>
  <course>215.33</course>
  <speed>0.28</speed>
  <fix>3d</fix>
</trkpt>
<trkpt lat="40.072844" lon="-105.2305692">
  <ele>1597.77</ele>
  <time>2026-08-27T18:30:23Z</time>
  <course>85.93</course>
  <speed>0.5021951811795887</speed>
  <fix>3d</fix>
</trkpt>
<trkpt lat="40.0728444" lon="-105.2305686">
  <ele>1597.67</ele>
  <time>2026-08-27T18:30:23Z</time>
  <course>231.49</course>
  <speed>0.43</speed>
  <fix>3d</fix>
</trkpt>
<trkpt lat="40.0728435" lon="-105.2305703">
  <ele>1597.77</ele>
  <time>2026-08-27T18:30:23Z</time>
  <course>85.9</course>
  <speed>0.5575840743780259</speed>
  <fix>3d</fix>
</trkpt>
<trkpt lat="40.0728438" lon="-105.2305695">
  <ele>1597.67</ele>
  <time>2026-08-27T18:30:23Z</time>
  <course>236.4</course>
  <speed>0.54</speed>
  <fix>3d</fix>
</trkpt>
<trkpt lat="40.0728429" lon="-105.2305714">
  <ele>1597.77</ele>
  <time>2026-08-27T18:30:23Z</time>
  <course>85.8</course>
  <speed>0.5491812087098392</speed>
  <fix>3d</fix>
</trkpt>
<trkpt lat="40.0728433" lon="-105.2305706">
  <ele>1597.67</ele>
  <time>2026-08-27T18:30:23Z</time>
  <course>237.99</course>
  <speed>0.58</speed>
  <fix>3d</fix>
</trkpt>
<trkpt lat="40.0728423" lon="-105.2305725">
  <ele>1597.77</ele>
  <time>2026-08-27T18:30:23Z</time>
  <course>77.33</course>
  <speed>0.5263078946776306</speed>
  <fix>3d</fix>
</trkpt>
<trkpt lat="40.0728428" lon="-105.2305718">
  <ele>1597.67</ele>
  <time>2026-08-27T18:30:23Z</time>
  <course>236.0</course>
  <speed>0.58</speed>
  <fix>3d</fix>
</trkpt>
<trkpt lat="40.0728417" lon="-105.2305734">
  <ele>1597.78</ele>
  <time>2026-08-27T18:30:23Z</time>
  <course>63.52</course>
  <speed>0.47201694884823786</speed>
  <fix>3d</fix>
</trkpt>
<trkpt lat="40.0728421" lon="-105.2305729">
  <ele>1597.67</ele>
  <time>2026-08-27T18:30:23Z</time>
  <course>233.71</course>
  <speed>0.54</speed>
  <fix>3d</fix>
</trkpt>
<trkpt lat="40.0728413" lon="-105.2305744">
  <ele>1597.78</ele>
  <time>2026-08-27T18:30:23Z</time>
  <course>50.9</course>
  <speed>0.42720018726587655</speed>
  <fix>3d</fix>
</trkpt>
<trkpt lat="40.0728416" lon="-105.2305739">
  <ele>1597.67</ele>
  <time>2026-08-27T18:30:23Z</time>
  <course>235.68</course>
  <speed>0.49</speed>
  <fix>3d</fix>
</trkpt>
<trkpt lat="40.0728409" lon="-105.2305753">
  <ele>1597.78</ele>
  <time>2026-08-27T18:30:23Z</time>
  <course>38.9</course>
  <speed>0.40311288741492746</speed>
  <fix>3d</fix>
</trkpt>
<trkpt lat="40.0728412" lon="-105.2305748">
  <ele>1597.67</ele>
  <time>2026-08-27T18:30:23Z</time>
  <course>239.42</course>
  <speed>0.44</speed>
  <fix>3d</fix>
</trkpt>
<trkpt lat="40.0728405" lon="-105.2305761">
  <ele>1597.79</ele>
  <time>2026-08-27T18:30:23Z</time>
  <course>26.91</course>
  <speed>0.38078865529319544</speed>
  <fix>3d</fix>
</trkpt>
<trkpt lat="40.0728408" lon="-105.2305757">
  <ele>1597.67</ele>
  <time>2026-08-27T18:30:23Z</time>
  <course>241.84</course>
  <speed>0.41</speed>
  <fix>3d</fix>
</trkpt>
<trkpt lat="40.0728402" lon="-105.2305769">
  <ele>1597.78</ele>
  <time>2026-08-27T18:30:23Z</time>
  <course>15.69</course>
  <speed>0.3671511950137164</speed>
  <fix>3d</fix>
</trkpt>
<trkpt lat="40.0728405" lon="-105.2305766">
  <ele>1597.67</ele>
  <time>2026-08-27T18:30:23Z</time>
  <course>242.09</course>
  <speed>0.38</speed>
  <fix>3d</fix>
</trkpt>
<trkpt lat="40.0728399" lon="-105.2305777">
  <ele>1597.78</ele>
  <time>2026-08-27T18:30:23Z</time>
  <course>14.82</course>
  <speed>0.3535533905932738</speed>
  <fix>3d</fix>
</trkpt>
<trkpt lat="40.0728401" lon="-105.2305773">
  <ele>1597.67</ele>
  <time>2026-08-27T18:30:23Z</time>
  <course>243.33</course>
  <speed>0.37</speed>
  <fix>3d</fix>
</trkpt>
<trkpt lat="40.0728396" lon="-105.2305784">
  <ele>1597.78</ele>
  <time>2026-08-27T18:30:23Z</time>
  <course>15.96</course>
  <speed>0.2830194339616981</speed>
  <fix>3d</fix>
</trkpt>
<trkpt lat="40.0728399" lon="-105.2305781">
  <ele>1597.67</ele>
  <time>2026-08-27T18:30:23Z</time>
  <course>243.83</course>
  <speed>0.33</speed>
  <fix>3d</fix>
</trkpt>
<trkpt lat="40.0728394" lon="-105.2305789">
  <ele>1597.78</ele>
  <time>2026-08-27T18:30:23Z</time>
  <course>16.26</course>
  <speed>0.2</speed>
  <fix>3d</fix>
</trkpt>
<trkpt lat="40.0728396" lon="-105.2305787">
  <ele>1597.67</ele>
  <time>2026-08-27T18:30:23Z</time>
  <course>241.05</course>
  <speed>0.26</speed>
  <fix>3d</fix>
</trkpt>
<trkpt lat="40.0728392" lon="-105.2305792">
  <ele>1597.78</ele>
  <time>2026-08-27T18:30:23Z</time>
  <course>16.27</course>
  <speed>0.12041594578792296</speed>
  <fix>3d</fix>
</trkpt>
<trkpt lat="40.0728394" lon="-105.2305791">
  <ele>1597.67</ele>
  <time>2026-08-27T18:30:23Z</time>
  <course>238.75</course>
  <speed>0.17</speed>
  <fix>3d</fix>
</trkpt>
<trkpt lat="40.0728392" lon="-105.2305794">
  <ele>1597.77</ele>
  <time>2026-08-27T18:30:23Z</time>
  <course>16.28</course>
  <speed>0.05</speed>
  <fix>3d</fix>
</trkpt>
<trkpt lat="40.0728393" lon="-105.2305795">
  <ele>1597.67</ele>
  <time>2026-08-27T18:30:23Z</time>
  <course>239.73</course>
  <speed>0.09</speed>
  <fix>3d</fix>
</trkpt>
<trkpt lat="40.0728392" lon="-105.2305794">
  <ele>1597.77</ele>
  <time>2026-08-27T18:30:23Z</time>
  <course>16.31</course>
  <speed>0.01</speed>
  <fix>3d</fix>
</trkpt>
<trkpt lat="40.0728393" lon="-105.2305796">
  <ele>1597.67</ele>
  <time>2026-08-27T18:30:23Z</time>
  <course>265.84</course>
  <speed>0.02</speed>
  <fix>3d</fix>
</trkpt>
<trkpt lat="40.0728392" lon="-105.2305794">
  <ele>1597.77</ele>
  <time>2026-08-27T18:30:23Z</time>
  <course>16.33</course>
  <speed>0.06403124237432849</speed>
  <fix>3d</fix>
</trkpt>
<trkpt lat="40.0728393" lon="-105.2305796">
  <ele>1597.67</ele>
  <time>2026-08-27T18:30:23Z</time>
  <course>32.73</course>
  <speed>0.05</speed>
  <fix>3d</fix>
</trkpt>
<trkpt lat="40.0728393" lon="-105.2305792">
  <ele>1597.77</ele>
  <time>2026-08-27T18:30:23Z</time>
  <course>16.37</course>
  <speed>0.11401754250991379</speed>
  <fix>3d</fix>
</trkpt>
<trkpt lat="40.0728393" lon="-105.2305795">
  <ele>1597.67</ele>
  <time>2026-08-27T18:30:23Z</time>
  <course>41.08</course>
  <speed>0.11</speed>
  <fix>3d</fix>
</trkpt>
<trkpt lat="40.0728395" lon="-105.2305791">
  <ele>1597.77</ele>
  <time>2026-08-27T18:30:23Z</time>
  <course>16.41</course>
  <speed>0.16401219466856726</speed>
  <fix>3d</fix>
</trkpt>
<trkpt lat="40.0728395" lon="-105.2305793">
  <ele>1597.67</ele>
  <time>2026-08-27T18:30:23Z</time>
  <course>43.32</course>
  <speed>0.16</speed>
  <fix>3d</fix>
</trkpt>
<trkpt lat="40.0728397" lon="-105.2305787">
  <ele>1597.77</ele>
  <time>2026-08-27T18:30:23Z</time>
  <course>16.45</course>
  <speed>0.19209372712298545</speed>
  <fix>3d</fix>
</trkpt>
<trkpt lat="40.0728397" lon="-105.230579">
  <ele>1597.67</ele>
  <time>2026-08-27T18:30:23Z</time>
  <course>44.34</course>
  <speed>0.2</speed>
  <fix>3d</fix>
</trkpt>
<trkpt lat="40.07284" lon="-105.2305783">
  <ele>1597.77</ele>
  <time>2026-08-27T18:30:23Z</time>
  <course>16.49</course>
  <speed>0.22022715545545238</speed>
  <fix>3d</fix>
</trkpt>
<trkpt lat="40.07284" lon="-105.2305787">
  <ele>1597.67</ele>
  <time>2026-08-27T18:30:23Z</time>
  <course>44.82</course>
  <speed>0.23</speed>
  <fix>3d</fix>
</trkpt>
<trkpt lat="40.0728404" lon="-105.2305779">
  <ele>1597.77</ele>
  <time>2026-08-27T18:30:23Z</time>
  <course>16.53</course>
  <speed>0.23430749027719963</speed>
  <fix>3d</fix>
</trkpt>
<trkpt lat="40.0728403" lon="-105.2305782">
  <ele>1597.67</ele>
  <time>2026-08-27T18:30:23Z</time>
  <course>45.06</course>
  <speed>0.26</speed>
  <fix>3d</fix>
</trkpt>
<trkpt lat="40.0728407" lon="-105.2305775">
  <ele>1597.77</ele>
  <time>2026-08-27T18:30:23Z</time>
  <course>16.57</course>
  <speed>0.2420743687382041</speed>
  <fix>3d</fix>
</trkpt>
<trkpt lat="40.0728407" lon="-105.2305777">
  <ele>1597.67</ele>
  <time>2026-08-27T18:30:23Z</time>
  <course>45.2</course>
  <speed>0.27</speed>
  <fix>3d</fix>
</trkpt>
<trkpt lat="40.072841" lon="-105.230577">
  <ele>1597.77</ele>
  <time>2026-08-27T18:30:23Z</time>
  <course>16.61</course>
  <speed>0.2420743687382041</speed>
  <fix>3d</fix>
</trkpt>
<trkpt lat="40.072841" lon="-105.2305773">
  <ele>1597.67</ele>
  <time>2026-08-27T18:30:23Z</time>
  <course>45.36</course>
  <speed>0.28</speed>
  <fix>3d</fix>
</trkpt>
<trkpt lat="40.0728414" lon="-105.2305765">
  <ele>1597.77</ele>
  <time>2026-08-27T18:30:23Z</time>
  <course>16.65</course>
  <speed>0.22803508501982758</speed>
  <fix>3d</fix>
</trkpt>
<trkpt lat="40.0728414" lon="-105.2305768">
  <ele>1597.67</ele>
  <time>2026-08-27T18:30:23Z</time>
  <course>45.67</course>
  <speed>0.28</speed>
  <fix>3d</fix>
</trkpt>
<trkpt lat="40.0728417" lon="-105.2305761">
  <ele>1597.77</ele>
  <time>2026-08-27T18:30:23Z</time>
  <course>16.7</course>
  <speed>0.21400934559032694</speed>
  <fix>3d</fix>
</trkpt>
<trkpt lat="40.0728417" lon="-105.2305763">
  <ele>1597.67</ele>
  <time>2026-08-27T18:30:23Z</time>
  <course>46.16</course>
  <speed>0.26</speed>
  <fix>3d</fix>
</trkpt>
<trkpt lat="40.072842" lon="-105.2305757">
  <ele>1597.78</ele>
  <time>2026-08-27T18:30:23Z</time>
  <course>16.74</course>
  <speed>0.194164878389476</speed>
  <fix>3d</fix>
</trkpt>
<trkpt lat="40.072842" lon="-105.2305759">
  <ele>1597.67</ele>
  <time>2026-08-27T18:30:23Z</time>
  <course>46.95</course>
  <speed>0.25</speed>
  <fix>3d</fix>
</trkpt>
<trkpt lat="40.0728422" lon="-105.2305753">
  <ele>1597.77</ele>
  <time>2026-08-27T18:30:23Z</time>
  <course>16.78</course>
  <speed>0.1664331697709324</speed>
  <fix>3d</fix>
</trkpt>
<trkpt lat="40.0728423" lon="-105.2305754">
  <ele>1597.67</ele>
  <time>2026-08-27T18:30:23Z</time>
  <course>48.14</course>
  <speed>0.22</speed>
  <fix>3d</fix>
</trkpt>
<trkpt lat="40.0728424" lon="-105.230575">
  <ele>1597.77</ele>
  <time>2026-08-27T18:30:23Z</time>
  <course>16.81</course>
  <speed>0.13892443989449804</speed>
  <fix>3d</fix>
</trkpt>
<trkpt lat="40.0728426" lon="-105.2305751">
  <ele>1597.67</ele>
  <time>2026-08-27T18:30:23Z</time>
  <course>49.73</course>
  <speed>0.19</speed>
  <fix>3d</fix>
</trkpt>
<trkpt lat="40.0728426" lon="-105.2305747">
  <ele>1597.76</ele>
  <time>2026-08-27T18:30:23Z</time>
  <course>16.89</course>
  <speed>0.10770329614269007</speed>
  <fix>3d</fix>
</trkpt>
<trkpt lat="40.0728427" lon="-105.2305748">
  <ele>1597.67</ele>
  <time>2026-08-27T18:30:23Z</time>
  <course>51.74</course>
  <speed>0.16</speed>
  <fix>3d</fix>
</trkpt>
<trkpt lat="40.0728428" lon="-105.2305744">
  <ele>1597.74</ele>
  <time>2026-08-27T18:30:23Z</time>
  <course>17.23</course>
  <speed>0.0824621125123532</speed>
  <fix>3d</fix>
</trkpt>
<trkpt lat="40.072843" lon="-105.2305745">
  <ele>1597.66</ele>
  <time>2026-08-27T18:30:23Z</time>
  <course>54.06</course>
  <speed>0.13</speed>
  <fix>3d</fix>
</trkpt>
<trkpt lat="40.0728428" lon="-105.2305742">
  <ele>1597.68</ele>
  <time>2026-08-27T18:30:23Z</time>
  <course>17.59</course>
  <speed>0.06</speed>
  <fix>3d</fix>
</trkpt>
<trkpt lat="40.0728431" lon="-105.2305743">
  <ele>1597.64</ele>
  <time>2026-08-27T18:30:23Z</time>
  <course>57.62</course>
  <speed>0.1</speed>
  <fix>3d</fix>
</trkpt>
<trkpt lat="40.0728429" lon="-105.2305741">
  <ele>1597.58</ele>
  <time>2026-08-27T18:30:24Z</time>
  <course>17.91</course>
  <speed>0.05099019513592785</speed>
  <fix>3d</fix>
</trkpt>
<trkpt lat="40.0728432" lon="-105.2305741">
  <ele>1597.57</ele>
  <time>2026-08-27T18:30:24Z</time>
  <course>64.79</course>
  <speed>0.07</speed>
  <fix>3d</fix>
</trkpt>
<trkpt lat="40.0728429" lon="-105.230574">
  <ele>1597.44</ele>
  <time>2026-08-27T18:30:24Z</time>
  <course>18.2</course>
  <speed>0.04242640687119285</speed>
  <fix>3d</fix>
</trkpt>
<trkpt lat="40.0728432" lon="-105.230574">
  <ele>1597.46</ele>
  <time>2026-08-27T18:30:24Z</time>
  <course>79.41</course>
  <speed>0.05</speed>
  <fix>3d</fix>
</trkpt>
<trkpt lat="40.0728429" lon="-105.2305739">
  <ele>1597.25</ele>
  <time>2026-08-27T18:30:24Z</time>
  <course>18.46</course>
  <speed>0.053851648071345036</speed>
  <fix>3d</fix>
</trkpt>
<trkpt lat="40.0728432" lon="-105.2305739">
  <ele>1597.31</ele>
  <time>2026-08-27T18:30:24Z</time>
  <course>107.51</course>
  <speed>0.03</speed>
  <fix>3d</fix>
</trkpt>
<trkpt lat="40.0728429" lon="-105.2305738">
  <ele>1597.02</ele>
  <time>2026-08-27T18:30:24Z</time>
  <course>18.53</course>
  <speed>0.06082762530298219</speed>
  <fix>3d</fix>
</trkpt>
<trkpt lat="40.0728432" lon="-105.2305738">
  <ele>1597.11</ele>
  <time>2026-08-27T18:30:24Z</time>
  <course>141.36</course>
  <speed>0.03</speed>
  <fix>3d</fix>
</trkpt>
<trkpt lat="40.0728429" lon="-105.2305738">
  <ele>1596.79</ele>
  <time>2026-08-27T18:30:24Z</time>
  <course>18.24</course>
  <speed>0.08062257748298549</speed>
  <fix>3d</fix>
</trkpt>
<trkpt lat="40.0728432" lon="-105.2305738">
  <ele>1596.89</ele>
  <time>2026-08-27T18:30:24Z</time>
  <course>161.95</course>
  <speed>0.05</speed>
  <fix>3d</fix>
</trkpt>
<trkpt lat="40.0728428" lon="-105.2305738">
  <ele>1596.58</ele>
  <time>2026-08-27T18:30:24Z</time>
  <course>17.78</course>
  <speed>0.09</speed>
  <fix>3d</fix>
</trkpt>
<trkpt lat="40.0728431" lon="-105.2305738">
  <ele>1596.66</ele>
  <time>2026-08-27T18:30:24Z</time>
  <course>173.77</course>
  <speed>0.06</speed>
  <fix>3d</fix>
</trkpt>
<trkpt lat="40.0728426" lon="-105.2305738">
  <ele>1596.41</ele>
  <time>2026-08-27T18:30:24Z</time>
  <course>17.42</course>
  <speed>0.1004987562112089</speed>
  <fix>3d</fix>
</trkpt>
<trkpt lat="40.072843" lon="-105.2305738">
  <ele>1596.46</ele>
  <time>2026-08-27T18:30:24Z</time>
  <course>183.7</course>
  <speed>0.08</speed>
  <fix>3d</fix>
</trkpt>
<trkpt lat="40.0728425" lon="-105.2305738">
  <ele>1596.28</ele>
  <time>2026-08-27T18:30:24Z</time>
  <course>17.3</course>
  <speed>0.1019803902718557</speed>
  <fix>3d</fix>
</trkpt>
<trkpt lat="40.0728428" lon="-105.2305738">
  <ele>1596.3</ele>
  <time>2026-08-27T18:30:24Z</time>
  <course>193.51</course>
  <speed>0.08</speed>
  <fix>3d</fix>
</trkpt>
<trkpt lat="40.0728423" lon="-105.2305738">
  <ele>1596.17</ele>
  <time>2026-08-27T18:30:24Z</time>
  <course>17.3</course>
  <speed>0.10770329614269007</speed>
  <fix>3d</fix>
</trkpt>
<trkpt lat="40.0728426" lon="-105.2305738">
  <ele>1596.17</ele>
  <time>2026-08-27T18:30:24Z</time>
  <course>202.55</course>
  <speed>0.09</speed>
  <fix>3d</fix>
</trkpt>
<trkpt lat="40.0728422" lon="-105.2305739">
  <ele>1596.07</ele>
  <time>2026-08-27T18:30:24Z</time>
  <course>17.33</course>
  <speed>0.1118033988749895</speed>
  <fix>3d</fix>
</trkpt>
<trkpt lat="40.0728425" lon="-105.2305738">
  <ele>1596.07</ele>
  <time>2026-08-27T18:30:24Z</time>
  <course>210.18</course>
  <speed>0.1</speed>
  <fix>3d</fix>
</trkpt>
<trkpt lat="40.0728421" lon="-105.2305741">
  <ele>1595.98</ele>
  <time>2026-08-27T18:30:24Z</time>
  <course>17.37</course>
  <speed>0.10295630140987001</speed>
  <fix>3d</fix>
</trkpt>
<trkpt lat="40.0728423" lon="-105.2305739">
  <ele>1595.97</ele>
  <time>2026-08-27T18:30:24Z</time>
  <course>216.81</course>
  <speed>0.1</speed>
  <fix>3d</fix>
</trkpt>
<trkpt lat="40.0728419" lon="-105.2305742">
  <ele>1595.89</ele>
  <time>2026-08-27T18:30:24Z</time>
  <course>17.42</course>
  <speed>0.1</speed>
  <fix>3d</fix>
</trkpt>
<trkpt lat="40.0728421" lon="-105.2305741">
  <ele>1595.88</ele>
  <time>2026-08-27T18:30:24Z</time>
  <course>222.98</course>
  <speed>0.1</speed>
  <fix>3d</fix>
</trkpt>
<trkpt lat="40.0728418" lon="-105.2305744">
  <ele>1595.8</ele>
  <time>2026-08-27T18:30:24Z</time>
  <course>17.47</course>
  <speed>0.09219544457292887</speed>
  <fix>3d</fix>
</trkpt>
<trkpt lat="40.072842" lon="-105.2305743">
  <ele>1595.79</ele>
  <time>2026-08-27T18:30:24Z</time>
  <course>229.11</course>
  <speed>0.09</speed>
  <fix>3d</fix>
</trkpt>
<trkpt lat="40.0728418" lon="-105.2305745">
  <ele>1595.71</ele>
  <time>2026-08-27T18:30:24Z</time>
  <course>17.51</course>
  <speed>0.0848528137423857</speed>
  <fix>3d</fix>
</trkpt>
<trkpt lat="40.0728419" lon="-105.2305744">
  <ele>1595.7</ele>
  <time>2026-08-27T18:30:24Z</time>
  <course>235.56</course>
  <speed>0.09</speed>
  <fix>3d</fix>
</trkpt>
<trkpt lat="40.0728417" lon="-105.2305747">
  <ele>1595.62</ele>
  <time>2026-08-27T18:30:24Z</time>
  <course>17.54</course>
  <speed>0.06403124237432849</speed>
  <fix>3d</fix>
</trkpt>
<trkpt lat="40.0728419" lon="-105.2305747">
  <ele>1595.61</ele>
  <time>2026-08-27T18:30:24Z</time>
  <course>242.32</course>
  <speed>0.08</speed>
  <fix>3d</fix>
</trkpt>
<trkpt lat="40.0728416" lon="-105.2305748">
  <ele>1595.52</ele>
  <time>2026-08-27T18:30:24Z</time>
  <course>17.56</course>
  <speed>0.05830951894845301</speed>
  <fix>3d</fix>
</trkpt>
<trkpt lat="40.0728418" lon="-105.2305748">
  <ele>1595.52</ele>
  <time>2026-08-27T18:30:24Z</time>
  <course>249.52</course>
  <speed>0.08</speed>
  <fix>3d</fix>
</trkpt>
<trkpt lat="40.0728416" lon="-105.230575">
  <ele>1595.43</ele>
  <time>2026-08-27T18:30:24Z</time>
  <course>17.57</course>
  <speed>0.044721359549995794</speed>
  <fix>3d</fix>
</trkpt>
<trkpt lat="40.0728418" lon="-105.230575">
  <ele>1595.41</ele>
  <time>2026-08-27T18:30:24Z</time>
  <course>257.9</course>
  <speed>0.07</speed>
  <fix>3d</fix>
</trkpt>
<trkpt lat="40.0728416" lon="-105.2305751">
  <ele>1595.33</ele>
  <time>2026-08-27T18:30:24Z</time>
  <course>17.59</course>
  <speed>0.0412310562561766</speed>
  <fix>3d</fix>
</trkpt>
<trkpt lat="40.0728418" lon="-105.2305752">
  <ele>1595.32</ele>
  <time>2026-08-27T18:30:24Z</time>
  <course>267.51</course>
  <speed>0.06</speed>
  <fix>3d</fix>
</trkpt>
<trkpt lat="40.0728416" lon="-105.2305752">
  <ele>1595.23</ele>
  <time>2026-08-27T18:30:24Z</time>
  <course>17.6</course>
  <speed>0.03</speed>
  <fix>3d</fix>
</trkpt>
<trkpt lat="40.0728418" lon="-105.2305753">
  <ele>1595.23</ele>
  <time>2026-08-27T18:30:24Z</time>
  <course>277.87</course>
  <speed>0.06</speed>
  <fix>3d</fix>
</trkpt>
<trkpt lat="40.0728416" lon="-105.2305753">
  <ele>1595.13</ele>
  <time>2026-08-27T18:30:24Z</time>
  <course>17.61</course>
  <speed>0.02</speed>
  <fix>3d</fix>
</trkpt>
<trkpt lat="40.0728418" lon="-105.2305754">
  <ele>1595.13</ele>
  <time>2026-08-27T18:30:24Z</time>
  <course>289.0</course>
  <speed>0.05</speed>
  <fix>3d</fix>
</trkpt>
<trkpt lat="40.0728417" lon="-105.2305754">
  <ele>1595.03</ele>
  <time>2026-08-27T18:30:24Z</time>
  <course>17.62</course>
  <speed>0.01414213562373095</speed>
  <fix>3d</fix>
</trkpt>
<trkpt lat="40.0728418" lon="-105.2305756">
  <ele>1595.02</ele>
  <time>2026-08-27T18:30:24Z</time>
  <course>300.82</course>
  <speed>0.05</speed>
  <fix>3d</fix>
</trkpt>
<trkpt lat="40.0728417" lon="-105.2305755">
  <ele>1594.93</ele>
  <time>2026-08-27T18:30:24Z</time>
  <course>17.64</course>
  <speed>0.01</speed>
  <fix>3d</fix>
</trkpt>
<trkpt lat="40.0728418" lon="-105.2305756">
  <ele>1594.91</ele>
  <time>2026-08-27T18:30:24Z</time>
  <course>312.79</course>
  <speed>0.04</speed>
  <fix>3d</fix>
</trkpt>
<trkpt lat="40.0728418" lon="-105.2305755">
  <ele>1594.82</ele>
  <time>2026-08-27T18:30:24Z</time>
  <course>17.64</course>
  <speed>0.01</speed>
  <fix>3d</fix>
</trkpt>
<trkpt lat="40.0728418" lon="-105.2305757">
  <ele>1594.82</ele>
  <time>2026-08-27T18:30:24Z</time>
  <course>324.76</course>
  <speed>0.04</speed>
  <fix>3d</fix>
</trkpt>
<trkpt lat="40.0728418" lon="-105.2305756">
  <ele>1594.72</ele>
  <time>2026-08-27T18:30:24Z</time>
  <course>17.65</course>
  <speed>0.022360679774997897</speed>
  <fix>3d</fix>
</trkpt>
<trkpt lat="40.0728419" lon="-105.2305758">
  <ele>1594.72</ele>
  <time>2026-08-27T18:30:24Z</time>
  <course>336.75</course>
  <speed>0.04</speed>
  <fix>3d</fix>
</trkpt>
<trkpt lat="40.0728419" lon="-105.2305756">
  <ele>1594.62</ele>
  <time>2026-08-27T18:30:24Z</time>
  <course>17.66</course>
  <speed>0.022360679774997897</speed>
  <fix>3d</fix>
</trkpt>
<trkpt lat="40.072842" lon="-105.2305758">
  <ele>1594.62</ele>
  <time>2026-08-27T18:30:24Z</time>
  <course>347.59</course>
  <speed>0.04</speed>
  <fix>3d</fix>
</trkpt>
<trkpt lat="40.072842" lon="-105.2305756">
  <ele>1594.52</ele>
  <time>2026-08-27T18:30:24Z</time>
  <course>17.67</course>
  <speed>0.0282842712474619</speed>
  <fix>3d</fix>
</trkpt>
<trkpt lat="40.072842" lon="-105.2305758">
  <ele>1594.52</ele>
  <time>2026-08-27T18:30:24Z</time>
  <course>356.75</course>
  <speed>0.04</speed>
  <fix>3d</fix>
</trkpt>
<trkpt lat="40.072842" lon="-105.2305756">
  <ele>1594.42</ele>
  <time>2026-08-27T18:30:24Z</time>
  <course>17.68</course>
  <speed>0.022360679774997897</speed>
  <fix>3d</fix>
</trkpt>
<trkpt lat="40.0728421" lon="-105.2305758">
  <ele>1594.41</ele>
  <time>2026-08-27T18:30:24Z</time>
  <course>4.67</course>
  <speed>0.04</speed>
  <fix>3d</fix>
</trkpt>
<trkpt lat="40.0728421" lon="-105.2305756">
  <ele>1594.32</ele>
  <time>2026-08-27T18:30:24Z</time>
  <course>17.7</course>
  <speed>0.0316227766016838</speed>
  <fix>3d</fix>
</trkpt>
<trkpt lat="40.0728422" lon="-105.2305758">
  <ele>1594.32</ele>
  <time>2026-08-27T18:30:24Z</time>
  <course>11.42</course>
  <speed>0.04</speed>
  <fix>3d</fix>
</trkpt>
<trkpt lat="40.0728422" lon="-105.2305756">
  <ele>1594.22</ele>
  <time>2026-08-27T18:30:24Z</time>
  <course>17.71</course>
  <speed>0.0316227766016838</speed>
  <fix>3d</fix>
</trkpt>
<trkpt lat="40.0728423" lon="-105.2305758">
  <ele>1594.22</ele>
  <time>2026-08-27T18:30:24Z</time>
  <course>17.63</course>
  <speed>0.04</speed>
  <fix>3d</fix>
</trkpt>
<trkpt lat="40.0728422" lon="-105.2305756">
  <ele>1594.12</ele>
  <time>2026-08-27T18:30:24Z</time>
  <course>17.71</course>
  <speed>0.03</speed>
  <fix>3d</fix>
</trkpt>
<trkpt lat="40.0728424" lon="-105.2305758">
  <ele>1594.12</ele>
  <time>2026-08-27T18:30:24Z</time>
  <course>23.7</course>
  <speed>0.04</speed>
  <fix>3d</fix>
</trkpt>
<trkpt lat="40.0728423" lon="-105.2305755">
  <ele>1594.02</ele>
  <time>2026-08-27T18:30:24Z</time>
  <course>17.72</course>
  <speed>0.03</speed>
  <fix>3d</fix>
</trkpt>
<trkpt lat="40.0728424" lon="-105.2305758">
  <ele>1594.03</ele>
  <time>2026-08-27T18:30:24Z</time>
  <course>29.58</course>
  <speed>0.03</speed>
  <fix>3d</fix>
</trkpt>
<trkpt lat="40.0728423" lon="-105.2305755">
  <ele>1593.92</ele>
  <time>2026-08-27T18:30:24Z</time>
  <course>17.74</course>
  <speed>0.03</speed>
  <fix>3d</fix>
</trkpt>
<trkpt lat="40.0728425" lon="-105.2305758">
  <ele>1593.92</ele>
  <time>2026-08-27T18:30:24Z</time>
  <course>35.96</course>
  <speed>0.03</speed>
  <fix>3d</fix>
</trkpt>
<trkpt lat="40.0728424" lon="-105.2305755">
  <ele>1593.83</ele>
  <time>2026-08-27T18:30:24Z</time>
  <course>17.75</course>
  <speed>0.03</speed>
  <fix>3d</fix>
</trkpt>
<trkpt lat="40.0728425" lon="-105.2305757">
  <ele>1593.83</ele>
  <time>2026-08-27T18:30:24Z</time>
  <course>43.43</course>
  <speed>0.03</speed>
  <fix>3d</fix>
</trkpt>
<trkpt lat="40.0728424" lon="-105.2305754">
  <ele>1593.73</ele>
  <time>2026-08-27T18:30:24Z</time>
  <course>17.76</course>
  <speed>0.0316227766016838</speed>
  <fix>3d</fix>
</trkpt>
<trkpt lat="40.0728426" lon="-105.2305756">
  <ele>1593.73</ele>
  <time>2026-08-27T18:30:24Z</time>
  <course>52.2</course>
  <speed>0.02</speed>
  <fix>3d</fix>
</trkpt>
<trkpt lat="40.0728424" lon="-105.2305754">
  <ele>1593.63</ele>
  <time>2026-08-27T18:30:24Z</time>
  <course>17.77</course>
  <speed>0.0316227766016838</speed>
  <fix>3d</fix>
</trkpt>
<trkpt lat="40.0728426" lon="-105.2305756">
  <ele>1593.63</ele>
  <time>2026-08-27T18:30:24Z</time>
  <course>62.29</course>
  <speed>0.02</speed>
  <fix>3d</fix>
</trkpt>
<trkpt lat="40.0728424" lon="-105.2305753">
  <ele>1593.53</ele>
  <time>2026-08-27T18:30:24Z</time>
  <course>17.78</course>
  <speed>0.03605551275463989</speed>
  <fix>3d</fix>
</trkpt>
<trkpt lat="40.0728426" lon="-105.2305756">
  <ele>1593.53</ele>
  <time>2026-08-27T18:30:24Z</time>
  <course>73.79</course>
  <speed>0.02</speed>
  <fix>3d</fix>
</trkpt>
<trkpt lat="40.0728424" lon="-105.2305753">
  <ele>1593.42</ele>
  <time>2026-08-27T18:30:24Z</time>
  <course>17.78</course>
  <speed>0.03605551275463989</speed>
  <fix>3d</fix>
</trkpt>
<trkpt lat="40.0728426" lon="-105.2305755">
  <ele>1593.42</ele>
  <time>2026-08-27T18:30:24Z</time>
  <course>87.31</course>
  <speed>0.02</speed>
  <fix>3d</fix>
</trkpt>
<trkpt lat="40.0728424" lon="-105.2305753">
  <ele>1593.32</ele>
  <time>2026-08-27T18:30:24Z</time>
  <course>17.79</course>
  <speed>0.04242640687119285</speed>
  <fix>3d</fix>
</trkpt>
<trkpt lat="40.0728426" lon="-105.2305755">
  <ele>1593.33</ele>
  <time>2026-08-27T18:30:24Z</time>
  <course>101.9</course>
  <speed>0.01</speed>
  <fix>3d</fix>
</trkpt>
<trkpt lat="40.0728424" lon="-105.2305752">
  <ele>1593.22</ele>
  <time>2026-08-27T18:30:24Z</time>
  <course>17.79</course>
  <speed>0.04242640687119285</speed>
  <fix>3d</fix>
</trkpt>
<trkpt lat="40.0728426" lon="-105.2305754">
  <ele>1593.23</ele>
  <time>2026-08-27T18:30:24Z</time>
  <course>115.16</course>
  <speed>0.01</speed>
  <fix>3d</fix>
</trkpt>
<trkpt lat="40.0728424" lon="-105.2305752">
  <ele>1593.12</ele>
  <time>2026-08-27T18:30:24Z</time>
  <course>17.78</course>
  <speed>0.03605551275463989</speed>
  <fix>3d</fix>
</trkpt>
<trkpt lat="40.0728426" lon="-105.2305753">
  <ele>1593.13</ele>
  <time>2026-08-27T18:30:24Z</time>
  <course>126.88</course>
  <speed>0.01</speed>
  <fix>3d</fix>
</trkpt>
<trkpt lat="40.0728424" lon="-105.2305752">
  <ele>1593.02</ele>
  <time>2026-08-27T18:30:24Z</time>
  <course>17.79</course>
  <speed>0.03605551275463989</speed>
  <fix>3d</fix>
</trkpt>
<trkpt lat="40.0728426" lon="-105.2305753">
  <ele>1593.03</ele>
  <time>2026-08-27T18:30:24Z</time>
  <course>137.36</course>
  <speed>0.01</speed>
  <fix>3d</fix>
</trkpt>
<trkpt lat="40.0728424" lon="-105.2305752">
  <ele>1592.92</ele>
  <time>2026-08-27T18:30:24Z</time>
  <course>17.81</course>
  <speed>0.03605551275463989</speed>
  <fix>3d</fix>
</trkpt>
<trkpt lat="40.0728426" lon="-105.2305753">
  <ele>1592.92</ele>
  <time>2026-08-27T18:30:24Z</time>
  <course>147.14</course>
  <speed>0.01</speed>
  <fix>3d</fix>
</trkpt>
<trkpt lat="40.0728424" lon="-105.2305751">
  <ele>1592.82</ele>
  <time>2026-08-27T18:30:24Z</time>
  <course>17.82</course>
  <speed>0.044721359549995794</speed>
  <fix>3d</fix>
</trkpt>
<trkpt lat="40.0728426" lon="-105.2305753">
  <ele>1592.83</ele>
  <time>2026-08-27T18:30:24Z</time>
  <course>155.89</course>
  <speed>0.01</speed>
  <fix>3d</fix>
</trkpt>
<trkpt lat="40.0728424" lon="-105.2305751">
  <ele>1592.72</ele>
  <time>2026-08-27T18:30:24Z</time>
  <course>17.83</course>
  <speed>0.044721359549995794</speed>
  <fix>3d</fix>
</trkpt>
<trkpt lat="40.0728426" lon="-105.2305753">
  <ele>1592.74</ele>
  <time>2026-08-27T18:30:24Z</time>
  <course>163.3</course>
  <speed>0.02</speed>
  <fix>3d</fix>
</trkpt>
<trkpt lat="40.0728423" lon="-105.2305751">
  <ele>1592.63</ele>
  <time>2026-08-27T18:30:24Z</time>
  <course>17.84</course>
  <speed>0.0412310562561766</speed>
  <fix>3d</fix>
</trkpt>
<trkpt lat="40.0728425" lon="-105.2305753">
  <ele>1592.63</ele>
  <time>2026-08-27T18:30:24Z</time>
  <course>169.65</course>
  <speed>0.02</speed>
  <fix>3d</fix>
</trkpt>
<trkpt lat="40.0728423" lon="-105.2305751">
  <ele>1592.52</ele>
  <time>2026-08-27T18:30:24Z</time>
  <course>17.85</course>
  <speed>0.0316227766016838</speed>
  <fix>3d</fix>
</trkpt>
<trkpt lat="40.0728425" lon="-105.2305753">
  <ele>1592.54</ele>
  <time>2026-08-27T18:30:24Z</time>
  <course>175.36</course>
  <speed>0.02</speed>
  <fix>3d</fix>
</trkpt>
<trkpt lat="40.0728423" lon="-105.2305751">
  <ele>1592.42</ele>
  <time>2026-08-27T18:30:24Z</time>
  <course>17.85</course>
  <speed>0.0316227766016838</speed>
  <fix>3d</fix>
</trkpt>
<trkpt lat="40.0728425" lon="-105.2305753">
  <ele>1592.44</ele>
  <time>2026-08-27T18:30:24Z</time>
  <course>180.72</course>
  <speed>0.02</speed>
  <fix>3d</fix>
</trkpt>
<trkpt lat="40.0728423" lon="-105.2305751">
  <ele>1592.32</ele>
  <time>2026-08-27T18:30:24Z</time>
  <course>17.85</course>
  <speed>0.0316227766016838</speed>
  <fix>3d</fix>
</trkpt>
<trkpt lat="40.0728424" lon="-105.2305753">
  <ele>1592.34</ele>
  <time>2026-08-27T18:30:24Z</time>
  <course>184.56</course>
  <speed>0.01</speed>
  <fix>3d</fix>
</trkpt>
<trkpt lat="40.0728422" lon="-105.2305751">
  <ele>1592.22</ele>
  <time>2026-08-27T18:30:24Z</time>
  <course>17.85</course>
  <speed>0.0316227766016838</speed>
  <fix>3d</fix>
</trkpt>
<trkpt lat="40.0728424" lon="-105.2305753">
  <ele>1592.24</ele>
  <time>2026-08-27T18:30:24Z</time>
  <course>187.43</course>
  <speed>0.01</speed>
  <fix>3d</fix>
</trkpt>
<trkpt lat="40.0728422" lon="-105.2305751">
  <ele>1592.12</ele>
  <time>2026-08-27T18:30:24Z</time>
  <course>17.84</course>
  <speed>0.0316227766016838</speed>
  <fix>3d</fix>
</trkpt>
<trkpt lat="40.0728424" lon="-105.2305753">
  <ele>1592.13</ele>
  <time>2026-08-27T18:30:24Z</time>
  <course>190.37</course>
  <speed>0.01</speed>
  <fix>3d</fix>
</trkpt>
<trkpt lat="40.0728422" lon="-105.2305751">
  <ele>1592.02</ele>
  <time>2026-08-27T18:30:24Z</time>
  <course>17.85</course>
  <speed>0.0316227766016838</speed>
  <fix>3d</fix>
</trkpt>
<trkpt lat="40.0728423" lon="-105.2305753">
  <ele>1592.04</ele>
  <time>2026-08-27T18:30:24Z</time>
  <course>193.24</course>
  <speed>0.01</speed>
  <fix>3d</fix>
</trkpt>
<trkpt lat="40.0728422" lon="-105.2305751">
  <ele>1591.92</ele>
  <time>2026-08-27T18:30:24Z</time>
  <course>17.87</course>
  <speed>0.0316227766016838</speed>
  <fix>3d</fix>
</trkpt>
<trkpt lat="40.0728423" lon="-105.2305753">
  <ele>1591.94</ele>
  <time>2026-08-27T18:30:24Z</time>
  <course>196.87</course>
  <speed>0.01</speed>
  <fix>3d</fix>
</trkpt>
<trkpt lat="40.0728422" lon="-105.2305751">
  <ele>1591.83</ele>
  <time>2026-08-27T18:30:24Z</time>
  <course>17.88</course>
  <speed>0.022360679774997897</speed>
  <fix>3d</fix>
</trkpt>
<trkpt lat="40.0728423" lon="-105.2305753">
  <ele>1591.84</ele>
  <time>2026-08-27T18:30:24Z</time>
  <course>200.97</course>
  <speed>0.01</speed>
  <fix>3d</fix>
</trkpt>
<trkpt lat="40.0728421" lon="-105.2305751">
  <ele>1591.73</ele>
  <time>2026-08-27T18:30:24Z</time>
  <course>17.89</course>
  <speed>0.022360679774997897</speed>
  <fix>3d</fix>
</trkpt>
<trkpt lat="40.0728423" lon="-105.2305753">
  <ele>1591.74</ele>
  <time>2026-08-27T18:30:24Z</time>
  <course>205.27</course>
  <speed>0.01</speed>
  <fix>3d</fix>
</trkpt>
<trkpt lat="40.0728421" lon="-105.2305751">
  <ele>1591.63</ele>
  <time>2026-08-27T18:30:24Z</time>
  <course>17.89</course>
  <speed>0.022360679774997897</speed>
  <fix>3d</fix>
</trkpt>
<trkpt lat="40.0728423" lon="-105.2305753">
  <ele>1591.63</ele>
  <time>2026-08-27T18:30:24Z</time>
  <course>210.96</course>
  <speed>0.0</speed>
  <fix>3d</fix>
</trkpt>
<trkpt lat="40.0728421" lon="-105.2305751">
  <ele>1591.53</ele>
  <time>2026-08-27T18:30:24Z</time>
  <course>17.9</course>
  <speed>0.022360679774997897</speed>
  <fix>3d</fix>
</trkpt>
<trkpt lat="40.0728422" lon="-105.2305753">
  <ele>1591.54</ele>
  <time>2026-08-27T18:30:24Z</time>
  <course>218.99</course>
  <speed>0.0</speed>
  <fix>3d</fix>
</trkpt>
<trkpt lat="40.0728421" lon="-105.2305751">
  <ele>1591.43</ele>
  <time>2026-08-27T18:30:24Z</time>
  <course>17.9</course>
  <speed>0.022360679774997897</speed>
  <fix>3d</fix>
</trkpt>
<trkpt lat="40.0728421" lon="-105.2305753">
  <ele>1591.44</ele>
  <time>2026-08-27T18:30:24Z</time>
  <course>230.66</course>
  <speed>0.0</speed>
  <fix>3d</fix>
</trkpt>
<trkpt lat="40.0728421" lon="-105.2305752">
  <ele>1591.32</ele>
  <time>2026-08-27T18:30:24Z</time>
  <course>17.91</course>
  <speed>0.01414213562373095</speed>
  <fix>3d</fix>
</trkpt>
<trkpt lat="40.0728421" lon="-105.2305753">
  <ele>1591.34</ele>
  <time>2026-08-27T18:30:24Z</time>
  <course>245.88</course>
  <speed>0.0</speed>
  <fix>3d</fix>
</trkpt>
<trkpt lat="40.0728421" lon="-105.2305752">
  <ele>1591.22</ele>
  <time>2026-08-27T18:30:24Z</time>
  <course>17.91</course>
  <speed>0.01414213562373095</speed>
  <fix>3d</fix>
</trkpt>
<trkpt lat="40.0728421" lon="-105.2305753">
  <ele>1591.24</ele>
  <time>2026-08-27T18:30:24Z</time>
  <course>267.2</course>
  <speed>0.0</speed>
  <fix>3d</fix>
</trkpt>
<trkpt lat="40.0728421" lon="-105.2305752">
  <ele>1591.12</ele>
  <time>2026-08-27T18:30:24Z</time>
  <course>17.9</course>
  <speed>0.01414213562373095</speed>
  <fix>3d</fix>
</trkpt>
<trkpt lat="40.0728421" lon="-105.2305753">
  <ele>1591.13</ele>
  <time>2026-08-27T18:30:24Z</time>
  <course>294.62</course>
  <speed>0.0</speed>
  <fix>3d</fix>
</trkpt>
<trkpt lat="40.0728421" lon="-105.2305752">
  <ele>1591.02</ele>
  <time>2026-08-27T18:30:24Z</time>
  <course>17.9</course>
  <speed>0.01414213562373095</speed>
  <fix>3d</fix>
</trkpt>
<trkpt lat="40.0728421" lon="-105.2305753">
  <ele>1591.04</ele>
  <time>2026-08-27T18:30:24Z</time>
  <course>317.51</course>
  <speed>0.0</speed>
  <fix>3d</fix>
</trkpt>
<trkpt lat="40.0728421" lon="-105.2305752">
  <ele>1590.92</ele>
  <time>2026-08-27T18:30:24Z</time>
  <course>17.9</course>
  <speed>0.01414213562373095</speed>
  <fix>3d</fix>
</trkpt>
<trkpt lat="40.0728421" lon="-105.2305753">
  <ele>1590.94</ele>
  <time>2026-08-27T18:30:24Z</time>
  <course>330.14</course>
  <speed>0.0</speed>
  <fix>3d</fix>
</trkpt>
<trkpt lat="40.0728421" lon="-105.2305752">
  <ele>1590.82</ele>
  <time>2026-08-27T18:30:24Z</time>
  <course>17.91</course>
  <speed>0.01414213562373095</speed>
  <fix>3d</fix>
</trkpt>
<trkpt lat="40.0728421" lon="-105.2305753">
  <ele>1590.84</ele>
  <time>2026-08-27T18:30:24Z</time>
  <course>334.8</course>
  <speed>0.0</speed>
  <fix>3d</fix>
</trkpt>
<trkpt lat="40.0728421" lon="-105.2305752">
  <ele>1590.72</ele>
  <time>2026-08-27T18:30:24Z</time>
  <course>17.91</course>
  <speed>0.01</speed>
  <fix>3d</fix>
</trkpt>
<trkpt lat="40.0728421" lon="-105.2305753">
  <ele>1590.75</ele>
  <time>2026-08-27T18:30:24Z</time>
  <course>337.73</course>
  <speed>0.01</speed>
  <fix>3d</fix>
</trkpt>
<trkpt lat="40.0728421" lon="-105.2305752">
  <ele>1590.62</ele>
  <time>2026-08-27T18:30:24Z</time>
  <course>17.92</course>
  <speed>0.01</speed>
  <fix>3d</fix>
</trkpt>
<trkpt lat="40.0728421" lon="-105.2305753">
  <ele>1590.64</ele>
  <time>2026-08-27T18:30:24Z</time>
  <course>341.33</course>
  <speed>0.01</speed>
  <fix>3d</fix>
</trkpt>
<trkpt lat="40.0728421" lon="-105.2305752">
  <ele>1590.53</ele>
  <time>2026-08-27T18:30:24Z</time>
  <course>17.93</course>
  <speed>0.01</speed>
  <fix>3d</fix>
</trkpt>
<trkpt lat="40.0728421" lon="-105.2305753">
  <ele>1590.55</ele>
  <time>2026-08-27T18:30:24Z</time>
  <course>343.57</course>
  <speed>0.01</speed>
  <fix>3d</fix>
</trkpt>
<trkpt lat="40.0728421" lon="-105.2305752">
  <ele>1590.43</ele>
  <time>2026-08-27T18:30:24Z</time>
  <course>17.95</course>
  <speed>0.01</speed>
  <fix>3d</fix>
</trkpt>
<trkpt lat="40.0728422" lon="-105.2305753">
  <ele>1590.45</ele>
  <time>2026-08-27T18:30:24Z</time>
  <course>344.43</course>
  <speed>0.01</speed>
  <fix>3d</fix>
</trkpt>
<trkpt lat="40.0728421" lon="-105.2305752">
  <ele>1590.33</ele>
  <time>2026-08-27T18:30:24Z</time>
  <course>17.96</course>
  <speed>0.01</speed>
  <fix>3d</fix>
</trkpt>
<trkpt lat="40.0728423" lon="-105.2305753">
  <ele>1590.35</ele>
  <time>2026-08-27T18:30:24Z</time>
  <course>345.79</course>
  <speed>0.01</speed>
  <fix>3d</fix>
</trkpt>
<trkpt lat="40.0728421" lon="-105.2305752">
  <ele>1590.23</ele>
  <time>2026-08-27T18:30:24Z</time>
  <course>17.97</course>
  <speed>0.01</speed>
  <fix>3d</fix>
</trkpt>
<trkpt lat="40.0728423" lon="-105.2305753">
  <ele>1590.25</ele>
  <time>2026-08-27T18:30:24Z</time>
  <course>346.96</course>
  <speed>0.01</speed>
  <fix>3d</fix>
</trkpt>
<trkpt lat="40.0728421" lon="-105.2305752">
  <ele>1590.13</ele>
  <time>2026-08-27T18:30:24Z</time>
  <course>17.97</course>
  <speed>0.01</speed>
  <fix>3d</fix>
</trkpt>
<trkpt lat="40.0728423" lon="-105.2305753">
  <ele>1590.14</ele>
  <time>2026-08-27T18:30:24Z</time>
  <course>346.67</course>
  <speed>0.01</speed>
  <fix>3d</fix>
</trkpt>
<trkpt lat="40.0728421" lon="-105.2305752">
  <ele>1590.03</ele>
  <time>2026-08-27T18:30:24Z</time>
  <course>17.97</course>
  <speed>0.01414213562373095</speed>
  <fix>3d</fix>
</trkpt>
<trkpt lat="40.0728423" lon="-105.2305753">
  <ele>1590.05</ele>
  <time>2026-08-27T18:30:24Z</time>
  <course>345.19</course>
  <speed>0.01</speed>
  <fix>3d</fix>
</trkpt>
<trkpt lat="40.0728422" lon="-105.2305752">
  <ele>1589.93</ele>
  <time>2026-08-27T18:30:24Z</time>
  <course>17.98</course>
  <speed>0.01414213562373095</speed>
  <fix>3d</fix>
</trkpt>
<trkpt lat="40.0728424" lon="-105.2305753">
  <ele>1589.95</ele>
  <time>2026-08-27T18:30:24Z</time>
  <course>343.89</course>
  <speed>0.01</speed>
  <fix>3d</fix>
</trkpt>
<trkpt lat="40.0728422" lon="-105.2305752">
  <ele>1589.83</ele>
  <time>2026-08-27T18:30:24Z</time>
  <course>17.98</course>
  <speed>0.01414213562373095</speed>
  <fix>3d</fix>
</trkpt>
<trkpt lat="40.0728424" lon="-105.2305753">
  <ele>1589.85</ele>
  <time>2026-08-27T18:30:24Z</time>
  <course>342.1</course>
  <speed>0.01</speed>
  <fix>3d</fix>
</trkpt>
<trkpt lat="40.0728422" lon="-105.2305752">
  <ele>1589.73</ele>
  <time>2026-08-27T18:30:24Z</time>
  <course>17.99</course>
  <speed>0.01414213562373095</speed>
  <fix>3d</fix>
</trkpt>
<trkpt lat="40.0728424" lon="-105.2305754">
  <ele>1589.75</ele>
  <time>2026-08-27T18:30:24Z</time>
  <course>337.14</course>
  <speed>0.0</speed>
  <fix>3d</fix>
</trkpt>
<trkpt lat="40.0728422" lon="-105.2305752">
  <ele>1589.63</ele>
  <time>2026-08-27T18:30:24Z</time>
  <course>17.99</course>
  <speed>0.01414213562373095</speed>
  <fix>3d</fix>
</trkpt>
<trkpt lat="40.0728424" lon="-105.2305755">
  <ele>1589.64</ele>
  <time>2026-08-27T18:30:24Z</time>
  <course>330.96</course>
  <speed>0.0</speed>
  <fix>3d</fix>
</trkpt>
<trkpt lat="40.0728422" lon="-105.2305752">
  <ele>1589.53</ele>
  <time>2026-08-27T18:30:24Z</time>
  <course>17.99</course>
  <speed>0.01414213562373095</speed>
  <fix>3d</fix>
</trkpt>
<trkpt lat="40.0728424" lon="-105.2305755">
  <ele>1589.55</ele>
  <time>2026-08-27T18:30:24Z</time>
  <course>323.0</course>
  <speed>0.0</speed>
  <fix>3d</fix>
</trkpt>
<trkpt lat="40.0728422" lon="-105.2305752">
  <ele>1589.43</ele>
  <time>2026-08-27T18:30:24Z</time>
  <course>17.99</course>
  <speed>0.022360679774997897</speed>
  <fix>3d</fix>
</trkpt>
<trkpt lat="40.0728424" lon="-105.2305755">
  <ele>1589.45</ele>
  <time>2026-08-27T18:30:24Z</time>
  <course>308.34</course>
  <speed>0.0</speed>
  <fix>3d</fix>
</trkpt>
<trkpt lat="40.0728422" lon="-105.2305752">
  <ele>1589.33</ele>
  <time>2026-08-27T18:30:24Z</time>
  <course>18.0</course>
  <speed>0.022360679774997897</speed>
  <fix>3d</fix>
</trkpt>
<trkpt lat="40.0728424" lon="-105.2305755">
  <ele>1589.34</ele>
  <time>2026-08-27T18:30:24Z</time>
  <course>281.0</course>
  <speed>0.0</speed>
  <fix>3d</fix>
</trkpt>
<trkpt lat="40.0728422" lon="-105.2305752">
  <ele>1589.23</ele>
  <time>2026-08-27T18:30:24Z</time>
  <course>18.0</course>
  <speed>0.022360679774997897</speed>
  <fix>3d</fix>
</trkpt>
<trkpt lat="40.0728424" lon="-105.2305755">
  <ele>1589.24</ele>
  <time>2026-08-27T18:30:24Z</time>
  <course>226.78</course>
  <speed>0.0</speed>
  <fix>3d</fix>
</trkpt>
<trkpt lat="40.0728422" lon="-105.2305752">
  <ele>1589.13</ele>
  <time>2026-08-27T18:30:24Z</time>
  <course>18.0</course>
  <speed>0.022360679774997897</speed>
  <fix>3d</fix>
</trkpt>
<trkpt lat="40.0728424" lon="-105.2305755">
  <ele>1589.13</ele>
  <time>2026-08-27T18:30:24Z</time>
  <course>181.43</course>
  <speed>0.0</speed>
  <fix>3d</fix>
</trkpt>
<trkpt lat="40.0728422" lon="-105.2305752">
  <ele>1589.03</ele>
  <time>2026-08-27T18:30:24Z</time>
  <course>18.01</course>
  <speed>0.022360679774997897</speed>
  <fix>3d</fix>
</trkpt>
<trkpt lat="40.0728424" lon="-105.2305755">
  <ele>1589.04</ele>
  <time>2026-08-27T18:30:24Z</time>
  <course>162.01</course>
  <speed>0.0</speed>
  <fix>3d</fix>
</trkpt>
<trkpt lat="40.0728422" lon="-105.2305752">
  <ele>1588.92</ele>
  <time>2026-08-27T18:30:24Z</time>
  <course>18.01</course>
  <speed>0.022360679774997897</speed>
  <fix>3d</fix>
</trkpt>
<trkpt lat="40.0728424" lon="-105.2305755">
  <ele>1588.94</ele>
  <time>2026-08-27T18:30:24Z</time>
  <course>155.38</course>
  <speed>0.0</speed>
  <fix>3d</fix>
</trkpt>
<trkpt lat="40.0728422" lon="-105.2305753">
  <ele>1588.82</ele>
  <time>2026-08-27T18:30:24Z</time>
  <course>18.01</course>
  <speed>0.022360679774997897</speed>
  <fix>3d</fix>
</trkpt>
<trkpt lat="40.0728424" lon="-105.2305755">
  <ele>1588.84</ele>
  <time>2026-08-27T18:30:24Z</time>
  <course>151.0</course>
  <speed>0.0</speed>
  <fix>3d</fix>
</trkpt>
<trkpt lat="40.0728422" lon="-105.2305753">
  <ele>1588.72</ele>
  <time>2026-08-27T18:30:24Z</time>
  <course>18.01</course>
  <speed>0.022360679774997897</speed>
  <fix>3d</fix>
</trkpt>
<trkpt lat="40.0728424" lon="-105.2305755">
  <ele>1588.74</ele>
  <time>2026-08-27T18:30:24Z</time>
  <course>144.58</course>
  <speed>0.0</speed>
  <fix>3d</fix>
</trkpt>
<trkpt lat="40.0728422" lon="-105.2305753">
  <ele>1588.62</ele>
  <time>2026-08-27T18:30:24Z</time>
  <course>18.0</course>
  <speed>0.022360679774997897</speed>
  <fix>3d</fix>
</trkpt>
<trkpt lat="40.0728424" lon="-105.2305755">
  <ele>1588.63</ele>
  <time>2026-08-27T18:30:24Z</time>
  <course>140.07</course>
  <speed>0.0</speed>
  <fix>3d</fix>
</trkpt>
<trkpt lat="40.0728422" lon="-105.2305753">
  <ele>1588.52</ele>
  <time>2026-08-27T18:30:24Z</time>
  <course>18.0</course>
  <speed>0.0282842712474619</speed>
  <fix>3d</fix>
</trkpt>
<trkpt lat="40.0728424" lon="-105.2305755">
  <ele>1588.54</ele>
  <time>2026-08-27T18:30:24Z</time>
  <course>137.46</course>
  <speed>0.0</speed>
  <fix>3d</fix>
</trkpt>
<trkpt lat="40.0728422" lon="-105.2305753">
  <ele>1588.42</ele>
  <time>2026-08-27T18:30:24Z</time>
  <course>18.0</course>
  <speed>0.0282842712474619</speed>
  <fix>3d</fix>
</trkpt>
<trkpt lat="40.0728424" lon="-105.2305755">
  <ele>1588.44</ele>
  <time>2026-08-27T18:30:24Z</time>
  <course>135.93</course>
  <speed>0.0</speed>
  <fix>3d</fix>
</trkpt>
<trkpt lat="40.0728422" lon="-105.2305753">
  <ele>1588.32</ele>
  <time>2026-08-27T18:30:24Z</time>
  <course>18.0</course>
  <speed>0.0282842712474619</speed>
  <fix>3d</fix>
</trkpt>
<trkpt lat="40.0728424" lon="-105.2305755">
  <ele>1588.35</ele>
  <time>2026-08-27T18:30:24Z</time>
  <course>135.11</course>
  <speed>0.0</speed>
  <fix>3d</fix>
</trkpt>
<trkpt lat="40.0728422" lon="-105.2305753">
  <ele>1588.22</ele>
  <time>2026-08-27T18:30:24Z</time>
  <course>18.01</course>
  <speed>0.0282842712474619</speed>
  <fix>3d</fix>
</trkpt>
<trkpt lat="40.0728424" lon="-105.2305755">
  <ele>1588.25</ele>
  <time>2026-08-27T18:30:24Z</time>
  <course>134.61</course>
  <speed>0.0</speed>
  <fix>3d</fix>
</trkpt>
<trkpt lat="40.0728422" lon="-105.2305753">
  <ele>1588.12</ele>
  <time>2026-08-27T18:30:24Z</time>
  <course>18.03</course>
  <speed>0.0282842712474619</speed>
  <fix>3d</fix>
</trkpt>
<trkpt lat="40.0728424" lon="-105.2305755">
  <ele>1588.14</ele>
  <time>2026-08-27T18:30:24Z</time>
  <course>133.12</course>
  <speed>0.0</speed>
  <fix>3d</fix>
</trkpt>
<trkpt lat="40.0728422" lon="-105.2305753">
  <ele>1588.02</ele>
  <time>2026-08-27T18:30:24Z</time>
  <course>18.03</course>
  <speed>0.0282842712474619</speed>
  <fix>3d</fix>
</trkpt>
<trkpt lat="40.0728424" lon="-105.2305755">
  <ele>1588.05</ele>
  <time>2026-08-27T18:30:24Z</time>
  <course>130.37</course>
  <speed>0.0</speed>
  <fix>3d</fix>
</trkpt>
<trkpt lat="40.0728422" lon="-105.2305753">
  <ele>1587.92</ele>
  <time>2026-08-27T18:30:24Z</time>
  <course>18.03</course>
  <speed>0.0282842712474619</speed>
  <fix>3d</fix>
</trkpt>
<trkpt lat="40.0728424" lon="-105.2305755">
  <ele>1587.95</ele>
  <time>2026-08-27T18:30:24Z</time>
  <course>128.52</course>
  <speed>0.0</speed>
  <fix>3d</fix>
</trkpt>
<trkpt lat="40.0728422" lon="-105.2305753">
  <ele>1587.82</ele>
  <time>2026-08-27T18:30:24Z</time>
  <course>18.04</course>
  <speed>0.0282842712474619</speed>
  <fix>3d</fix>
</trkpt>
<trkpt lat="40.0728424" lon="-105.2305754">
  <ele>1587.85</ele>
  <time>2026-08-27T18:30:24Z</time>
  <course>127.36</course>
  <speed>0.0</speed>
  <fix>3d</fix>
</trkpt>
<trkpt lat="40.0728422" lon="-105.2305753">
  <ele>1587.72</ele>
  <time>2026-08-27T18:30:24Z</time>
  <course>18.04</course>
  <speed>0.0282842712474619</speed>
  <fix>3d</fix>
</trkpt>
<trkpt lat="40.0728424" lon="-105.2305753">
  <ele>1587.75</ele>
  <time>2026-08-27T18:30:24Z</time>
  <course>126.37</course>
  <speed>0.0</speed>
  <fix>3d</fix>
</trkpt>
<trkpt lat="40.0728422" lon="-105.2305753">
  <ele>1587.63</ele>
  <time>2026-08-27T18:30:24Z</time>
  <course>18.04</course>
  <speed>0.0282842712474619</speed>
  <fix>3d</fix>
</trkpt>
<trkpt lat="40.0728424" lon="-105.2305753">
  <ele>1587.64</ele>
  <time>2026-08-27T18:30:24Z</time>
  <course>125.64</course>
  <speed>0.0</speed>
  <fix>3d</fix>
</trkpt>
<trkpt lat="40.0728422" lon="-105.2305752">
  <ele>1587.53</ele>
  <time>2026-08-27T18:30:24Z</time>
  <course>18.04</course>
  <speed>0.0282842712474619</speed>
  <fix>3d</fix>
</trkpt>
<trkpt lat="40.0728424" lon="-105.2305753">
  <ele>1587.55</ele>
  <time>2026-08-27T18:30:24Z</time>
  <course>125.85</course>
  <speed>0.0</speed>
  <fix>3d</fix>
</trkpt>
<trkpt lat="40.0728422" lon="-105.2305752">
  <ele>1587.43</ele>
  <time>2026-08-27T18:30:24Z</time>
  <course>18.05</course>
  <speed>0.0282842712474619</speed>
  <fix>3d</fix>
</trkpt>
<trkpt lat="40.0728424" lon="-105.2305753">
  <ele>1587.45</ele>
  <time>2026-08-27T18:30:24Z</time>
  <course>128.75</course>
  <speed>0.0</speed>
  <fix>3d</fix>
</trkpt>
<trkpt lat="40.0728422" lon="-105.2305752">
  <ele>1587.33</ele>
  <time>2026-08-27T18:30:24Z</time>
  <course>18.05</course>
  <speed>0.022360679774997897</speed>
  <fix>3d</fix>
</trkpt>
<trkpt lat="40.0728424" lon="-105.2305753">
  <ele>1587.35</ele>
  <time>2026-08-27T18:30:24Z</time>
  <course>135.06</course>
  <speed>0.0</speed>
  <fix>3d</fix>
</trkpt>
<trkpt lat="40.0728422" lon="-105.2305752">
  <ele>1587.22</ele>
  <time>2026-08-27T18:30:24Z</time>
  <course>18.05</course>
  <speed>0.022360679774997897</speed>
  <fix>3d</fix>
</trkpt>
<trkpt lat="40.0728424" lon="-105.2305753">
  <ele>1587.25</ele>
  <time>2026-08-27T18:30:24Z</time>
  <course>143.34</course>
  <speed>0.0</speed>
  <fix>3d</fix>
</trkpt>
<trkpt lat="40.0728422" lon="-105.2305752">
  <ele>1587.12</ele>
  <time>2026-08-27T18:30:24Z</time>
  <course>18.05</course>
  <speed>0.022360679774997897</speed>
  <fix>3d</fix>
</trkpt>
<trkpt lat="40.0728424" lon="-105.2305753">
  <ele>1587.14</ele>
  <time>2026-08-27T18:30:24Z</time>
  <course>153.6</course>
  <speed>0.0</speed>
  <fix>3d</fix>
</trkpt>
<trkpt lat="40.0728422" lon="-105.2305752">
  <ele>1587.02</ele>
  <time>2026-08-27T18:30:24Z</time>
  <course>18.06</course>
  <speed>0.022360679774997897</speed>
  <fix>3d</fix>
</trkpt>
<trkpt lat="40.0728424" lon="-105.2305753">
  <ele>1587.05</ele>
  <time>2026-08-27T18:30:24Z</time>
  <course>164.85</course>
  <speed>0.0</speed>
  <fix>3d</fix>
</trkpt>
<trkpt lat="40.0728422" lon="-105.2305752">
  <ele>1586.92</ele>
  <time>2026-08-27T18:30:24Z</time>
  <course>18.06</course>
  <speed>0.022360679774997897</speed>
  <fix>3d</fix>
</trkpt>
<trkpt lat="40.0728423" lon="-105.2305753">
  <ele>1586.95</ele>
  <time>2026-08-27T18:30:24Z</time>
  <course>176.27</course>
  <speed>0.0</speed>
  <fix>3d</fix>
</trkpt>
<trkpt lat="40.0728422" lon="-105.2305752">
  <ele>1586.82</ele>
  <time>2026-08-27T18:30:24Z</time>
  <course>18.05</course>
  <speed>0.022360679774997897</speed>
  <fix>3d</fix>
</trkpt>
<trkpt lat="40.0728423" lon="-105.2305753">
  <ele>1586.85</ele>
  <time>2026-08-27T18:30:24Z</time>
  <course>185.42</course>
  <speed>0.0</speed>
  <fix>3d</fix>
</trkpt>
<trkpt lat="40.0728422" lon="-105.2305752">
  <ele>1586.72</ele>
  <time>2026-08-27T18:30:24Z</time>
  <course>18.06</course>
  <speed>0.022360679774997897</speed>
  <fix>3d</fix>
</trkpt>
<trkpt lat="40.0728423" lon="-105.2305753">
  <ele>1586.75</ele>
  <time>2026-08-27T18:30:24Z</time>
  <course>190.49</course>
  <speed>0.0</speed>
  <fix>3d</fix>
</trkpt>
<trkpt lat="40.0728422" lon="-105.2305752">
  <ele>1586.63</ele>
  <time>2026-08-27T18:30:24Z</time>
  <course>18.06</course>
  <speed>0.022360679774997897</speed>
  <fix>3d</fix>
</trkpt>
<trkpt lat="40.0728423" lon="-105.2305753">
  <ele>1586.64</ele>
  <time>2026-08-27T18:30:24Z</time>
  <course>195.56</course>
  <speed>0.0</speed>
  <fix>3d</fix>
</trkpt>
<trkpt lat="40.0728422" lon="-105.2305752">
  <ele>1586.53</ele>
  <time>2026-08-27T18:30:24Z</time>
  <course>18.07</course>
  <speed>0.022360679774997897</speed>
  <fix>3d</fix>
</trkpt>
<trkpt lat="40.0728423" lon="-105.2305753">
  <ele>1586.55</ele>
  <time>2026-08-27T18:30:24Z</time>
  <course>203.39</course>
  <speed>0.0</speed>
  <fix>3d</fix>
</trkpt>
<trkpt lat="40.0728422" lon="-105.2305752">
  <ele>1586.42</ele>
  <time>2026-08-27T18:30:24Z</time>
  <course>18.07</course>
  <speed>0.022360679774997897</speed>
  <fix>3d</fix>
</trkpt>
<trkpt lat="40.0728423" lon="-105.2305753">
  <ele>1586.45</ele>
  <time>2026-08-27T18:30:24Z</time>
  <course>210.76</course>
  <speed>0.0</speed>
  <fix>3d</fix>
</trkpt>
<trkpt lat="40.0728422" lon="-105.2305752">
  <ele>1586.32</ele>
  <time>2026-08-27T18:30:24Z</time>
  <course>18.07</course>
  <speed>0.022360679774997897</speed>
  <fix>3d</fix>
</trkpt>
<trkpt lat="40.0728423" lon="-105.2305753">
  <ele>1586.35</ele>
  <time>2026-08-27T18:30:24Z</time>
  <course>216.0</course>
  <speed>0.0</speed>
  <fix>3d</fix>
</trkpt>
<trkpt lat="40.0728422" lon="-105.2305752">
  <ele>1586.22</ele>
  <time>2026-08-27T18:30:24Z</time>
  <course>18.07</course>
  <speed>0.022360679774997897</speed>
  <fix>3d</fix>
</trkpt>
<trkpt lat="40.0728423" lon="-105.2305753">
  <ele>1586.25</ele>
  <time>2026-08-27T18:30:24Z</time>
  <course>223.08</course>
  <speed>0.0</speed>
  <fix>3d</fix>
</trkpt>
<trkpt lat="40.0728422" lon="-105.2305752">
  <ele>1586.13</ele>
  <time>2026-08-27T18:30:24Z</time>
  <course>18.06</course>
  <speed>0.01</speed>
  <fix>3d</fix>
</trkpt>
<trkpt lat="40.0728423" lon="-105.2305753">
  <ele>1586.14</ele>
  <time>2026-08-27T18:30:24Z</time>
  <course>235.09</course>
  <speed>0.0</speed>
  <fix>3d</fix>
</trkpt>
<trkpt lat="40.0728422" lon="-105.2305752">
  <ele>1586.13</ele>
  <time>2026-08-27T18:30:24Z</time>
  <course>18.09</course>
  <speed>0.01</speed>
  <fix>3d</fix>
</trkpt>
<trkpt lat="40.0728423" lon="-105.2305753">
  <ele>1586.08</ele>
  <time>2026-08-27T18:30:24Z</time>
  <course>285.46</course>
  <speed>0.01</speed>
  <fix>3d</fix>
</trkpt>
<trkpt lat="40.0728422" lon="-105.2305752">
  <ele>1586.14</ele>
  <time>2026-08-27T18:30:24Z</time>
  <course>18.15</course>
  <speed>0.022360679774997897</speed>
  <fix>3d</fix>
</trkpt>
<trkpt lat="40.0728423" lon="-105.2305753">
  <ele>1586.08</ele>
  <time>2026-08-27T18:30:24Z</time>
  <course>301.78</course>
  <speed>0.0</speed>
  <fix>3d</fix>
</trkpt>
<trkpt lat="40.0728422" lon="-105.2305752">
  <ele>1586.12</ele>
  <time>2026-08-27T18:30:24Z</time>
  <course>18.18</course>
  <speed>0.022360679774997897</speed>
  <fix>3d</fix>
</trkpt>
<trkpt lat="40.0728423" lon="-105.2305753">
  <ele>1586.1</ele>
  <time>2026-08-27T18:30:24Z</time>
  <course>83.2</course>
  <speed>0.0</speed>
  <fix>3d</fix>
</trkpt>
<trkpt lat="40.0728422" lon="-105.2305752">
  <ele>1586.12</ele>
  <time>2026-08-27T18:30:24Z</time>
  <course>18.22</course>
  <speed>0.01414213562373095</speed>
  <fix>3d</fix>
</trkpt>
<trkpt lat="40.0728423" lon="-105.2305753">
  <ele>1586.09</ele>
  <time>2026-08-27T18:30:24Z</time>
  <course>117.23</course>
  <speed>0.0</speed>
  <fix>3d</fix>
</trkpt>
<trkpt lat="40.0728422" lon="-105.2305752">
  <ele>1586.12</ele>
  <time>2026-08-27T18:30:24Z</time>
  <course>18.25</course>
  <speed>0.01414213562373095</speed>
  <fix>3d</fix>
</trkpt>
<trkpt lat="40.0728423" lon="-105.2305753">
  <ele>1586.09</ele>
  <time>2026-08-27T18:30:24Z</time>
  <course>329.13</course>
  <speed>0.0</speed>
  <fix>3d</fix>
</trkpt>
<trkpt lat="40.0728422" lon="-105.2305752">
  <ele>1586.12</ele>
  <time>2026-08-27T18:30:24Z</time>
  <course>18.28</course>
  <speed>0.01414213562373095</speed>
  <fix>3d</fix>
</trkpt>
<trkpt lat="40.0728423" lon="-105.2305753">
  <ele>1586.09</ele>
  <time>2026-08-27T18:30:24Z</time>
  <course>21.95</course>
  <speed>0.0</speed>
  <fix>3d</fix>
</trkpt>
<trkpt lat="40.0728422" lon="-105.2305752">
  <ele>1586.12</ele>
  <time>2026-08-27T18:30:24Z</time>
  <course>18.3</course>
  <speed>0.01414213562373095</speed>
  <fix>3d</fix>
</trkpt>
<trkpt lat="40.0728423" lon="-105.2305753">
  <ele>1586.09</ele>
  <time>2026-08-27T18:30:24Z</time>
  <course>16.95</course>
  <speed>0.0</speed>
  <fix>3d</fix>
</trkpt>
<trkpt lat="40.0728422" lon="-105.2305752">
  <ele>1586.12</ele>
  <time>2026-08-27T18:30:24Z</time>
  <course>18.33</course>
  <speed>0.01414213562373095</speed>
  <fix>3d</fix>
</trkpt>
<trkpt lat="40.0728423" lon="-105.2305753">
  <ele>1586.09</ele>
  <time>2026-08-27T18:30:24Z</time>
  <course>345.76</course>
  <speed>0.0</speed>
  <fix>3d</fix>
</trkpt>
<trkpt lat="40.0728422" lon="-105.2305752">
  <ele>1586.13</ele>
  <time>2026-08-27T18:30:24Z</time>
  <course>18.35</course>
  <speed>0.022360679774997897</speed>
  <fix>3d</fix>
</trkpt>
<trkpt lat="40.0728423" lon="-105.2305753">
  <ele>1586.09</ele>
  <time>2026-08-27T18:30:24Z</time>
  <course>2.32</course>
  <speed>0.0</speed>
  <fix>3d</fix>
</trkpt>
<trkpt lat="40.0728422" lon="-105.2305752">
  <ele>1586.13</ele>
  <time>2026-08-27T18:30:24Z</time>
  <course>18.36</course>
  <speed>0.044721359549995794</speed>
  <fix>3d</fix>
</trkpt>
<trkpt lat="40.0728423" lon="-105.2305753">
  <ele>1586.09</ele>
  <time>2026-08-27T18:30:24Z</time>
  <course>103.68</course>
  <speed>0.0</speed>
  <fix>3d</fix>
</trkpt>
<trkpt lat="40.0728422" lon="-105.2305751">
  <ele>1586.13</ele>
  <time>2026-08-27T18:30:24Z</time>
  <course>18.33</course>
  <speed>0.0282842712474619</speed>
  <fix>3d</fix>
</trkpt>
<trkpt lat="40.0728423" lon="-105.2305753">
  <ele>1586.09</ele>
  <time>2026-08-27T18:30:24Z</time>
  <course>107.48</course>
  <speed>0.01</speed>
  <fix>3d</fix>
</trkpt>
<trkpt lat="40.0728422" lon="-105.2305752">
  <ele>1586.13</ele>
  <time>2026-08-27T18:30:24Z</time>
  <course>18.28</course>
  <speed>0.01414213562373095</speed>
  <fix>3d</fix>
</trkpt>
<trkpt lat="40.0728423" lon="-105.2305753">
  <ele>1586.09</ele>
  <time>2026-08-27T18:30:24Z</time>
  <course>116.23</course>
  <speed>0.0</speed>
  <fix>3d</fix>
</trkpt>
<trkpt lat="40.0728422" lon="-105.2305752">
  <ele>1586.13</ele>
  <time>2026-08-27T18:30:24Z</time>
  <course>18.26</course>
  <speed>0.022360679774997897</speed>
  <fix>3d</fix>
</trkpt>
<trkpt lat="40.0728423" lon="-105.2305753">
  <ele>1586.09</ele>
  <time>2026-08-27T18:30:24Z</time>
  <course>271.73</course>
  <speed>0.0</speed>
  <fix>3d</fix>
</trkpt>
<trkpt lat="40.0728422" lon="-105.2305752">
  <ele>1586.13</ele>
  <time>2026-08-27T18:30:24Z</time>
  <course>18.25</course>
  <speed>0.022360679774997897</speed>
  <fix>3d</fix>
</trkpt>
<trkpt lat="40.0728423" lon="-105.2305753">
  <ele>1586.09</ele>
  <time>2026-08-27T18:30:24Z</time>
  <course>260.45</course>
  <speed>0.0</speed>
  <fix>3d</fix>
</trkpt>
<trkpt lat="40.0728422" lon="-105.2305752">
  <ele>1586.13</ele>
  <time>2026-08-27T18:30:24Z</time>
  <course>18.24</course>
  <speed>0.022360679774997897</speed>
  <fix>3d</fix>
</trkpt>
<trkpt lat="40.0728423" lon="-105.2305753">
  <ele>1586.09</ele>
  <time>2026-08-27T18:30:24Z</time>
  <course>221.69</course>
  <speed>0.0</speed>
  <fix>3d</fix>
</trkpt>
<trkpt lat="40.0728422" lon="-105.2305752">
  <ele>1586.13</ele>
  <time>2026-08-27T18:30:24Z</time>
  <course>18.24</course>
  <speed>0.022360679774997897</speed>
  <fix>3d</fix>
</trkpt>
<trkpt lat="40.0728423" lon="-105.2305753">
  <ele>1586.09</ele>
  <time>2026-08-27T18:30:25Z</time>
  <course>246.34</course>
  <speed>0.0</speed>
  <fix>3d</fix>
</trkpt>
<trkpt lat="40.0728422" lon="-105.2305752">
  <ele>1586.13</ele>
  <time>2026-08-27T18:30:25Z</time>
  <course>18.24</course>
  <speed>0.022360679774997897</speed>
  <fix>3d</fix>
</trkpt>
<trkpt lat="40.0728423" lon="-105.2305753">
  <ele>1586.09</ele>
  <time>2026-08-27T18:30:25Z</time>
  <course>246.21</course>
  <speed>0.0</speed>
  <fix>3d</fix>
</trkpt>
<trkpt lat="40.0728422" lon="-105.2305752">
  <ele>1586.14</ele>
  <time>2026-08-27T18:30:25Z</time>
  <course>18.24</course>
  <speed>0.022360679774997897</speed>
  <fix>3d</fix>
</trkpt>
<trkpt lat="40.0728423" lon="-105.2305753">
  <ele>1586.09</ele>
  <time>2026-08-27T18:30:25Z</time>
  <course>221.79</course>
  <speed>0.0</speed>
  <fix>3d</fix>
</trkpt>
<trkpt lat="40.0728422" lon="-105.2305752">
  <ele>1586.13</ele>
  <time>2026-08-27T18:30:25Z</time>
  <course>18.24</course>
  <speed>0.022360679774997897</speed>
  <fix>3d</fix>
</trkpt>
<trkpt lat="40.0728423" lon="-105.2305753">
  <ele>1586.09</ele>
  <time>2026-08-27T18:30:25Z</time>
  <course>190.72</course>
  <speed>0.0</speed>
  <fix>3d</fix>
</trkpt>
<trkpt lat="40.0728422" lon="-105.2305752">
  <ele>1586.13</ele>
  <time>2026-08-27T18:30:25Z</time>
  <course>18.24</course>
  <speed>0.022360679774997897</speed>
  <fix>3d</fix>
</trkpt>
<trkpt lat="40.0728423" lon="-105.2305753">
  <ele>1586.09</ele>
  <time>2026-08-27T18:30:25Z</time>
  <course>48.17</course>
  <speed>0.0</speed>
  <fix>3d</fix>
</trkpt>
<trkpt lat="40.0728422" lon="-105.2305752">
  <ele>1586.13</ele>
  <time>2026-08-27T18:30:25Z</time>
  <course>18.23</course>
  <speed>0.022360679774997897</speed>
  <fix>3d</fix>
</trkpt>
<trkpt lat="40.0728423" lon="-105.2305753">
  <ele>1586.09</ele>
  <time>2026-08-27T18:30:25Z</time>
  <course>292.82</course>
  <speed>0.0</speed>
  <fix>3d</fix>
</trkpt>
<trkpt lat="40.0728422" lon="-105.2305752">
  <ele>1586.14</ele>
  <time>2026-08-27T18:30:25Z</time>
  <course>18.23</course>
  <speed>0.022360679774997897</speed>
  <fix>3d</fix>
</trkpt>
<trkpt lat="40.0728423" lon="-105.2305753">
  <ele>1586.09</ele>
  <time>2026-08-27T18:30:25Z</time>
  <course>266.29</course>
  <speed>0.0</speed>
  <fix>3d</fix>
</trkpt>
<trkpt lat="40.0728422" lon="-105.2305752">
  <ele>1586.14</ele>
  <time>2026-08-27T18:30:25Z</time>
  <course>18.23</course>
  <speed>0.022360679774997897</speed>
  <fix>3d</fix>
</trkpt>
<trkpt lat="40.0728423" lon="-105.2305753">
  <ele>1586.09</ele>
  <time>2026-08-27T18:30:25Z</time>
  <course>283.79</course>
  <speed>0.0</speed>
  <fix>3d</fix>
</trkpt>
<trkpt lat="40.0728422" lon="-105.2305752">
  <ele>1586.14</ele>
  <time>2026-08-27T18:30:25Z</time>
  <course>18.23</course>
  <speed>0.022360679774997897</speed>
  <fix>3d</fix>
</trkpt>
<trkpt lat="40.0728423" lon="-105.2305753">
  <ele>1586.09</ele>
  <time>2026-08-27T18:30:25Z</time>
  <course>286.22</course>
  <speed>0.0</speed>
  <fix>3d</fix>
</trkpt>
<trkpt lat="40.0728422" lon="-105.2305752">
  <ele>1586.14</ele>
  <time>2026-08-27T18:30:25Z</time>
  <course>18.22</course>
  <speed>0.022360679774997897</speed>
  <fix>3d</fix>
</trkpt>
<trkpt lat="40.0728423" lon="-105.2305753">
  <ele>1586.09</ele>
  <time>2026-08-27T18:30:25Z</time>
  <course>282.72</course>
  <speed>0.0</speed>
  <fix>3d</fix>
</trkpt>
<trkpt lat="40.0728422" lon="-105.2305752">
  <ele>1586.14</ele>
  <time>2026-08-27T18:30:25Z</time>
  <course>18.22</course>
  <speed>0.022360679774997897</speed>
  <fix>3d</fix>
</trkpt>
<trkpt lat="40.0728423" lon="-105.2305753">
  <ele>1586.09</ele>
  <time>2026-08-27T18:30:25Z</time>
  <course>282.79</course>
  <speed>0.0</speed>
  <fix>3d</fix>
</trkpt>
<trkpt lat="40.0728422" lon="-105.2305752">
  <ele>1586.15</ele>
  <time>2026-08-27T18:30:25Z</time>
  <course>18.22</course>
  <speed>0.022360679774997897</speed>
  <fix>3d</fix>
</trkpt>
<trkpt lat="40.0728423" lon="-105.2305753">
  <ele>1586.09</ele>
  <time>2026-08-27T18:30:25Z</time>
  <course>283.24</course>
  <speed>0.0</speed>
  <fix>3d</fix>
</trkpt>
<trkpt lat="40.0728422" lon="-105.2305752">
  <ele>1586.15</ele>
  <time>2026-08-27T18:30:25Z</time>
  <course>18.22</course>
  <speed>0.022360679774997897</speed>
  <fix>3d</fix>
</trkpt>
<trkpt lat="40.0728423" lon="-105.2305753">
  <ele>1586.09</ele>
  <time>2026-08-27T18:30:25Z</time>
  <course>283.18</course>
  <speed>0.0</speed>
  <fix>3d</fix>
</trkpt>
<trkpt lat="40.0728422" lon="-105.2305752">
  <ele>1586.15</ele>
  <time>2026-08-27T18:30:25Z</time>
  <course>18.21</course>
  <speed>0.022360679774997897</speed>
  <fix>3d</fix>
</trkpt>
<trkpt lat="40.0728423" lon="-105.2305753">
  <ele>1586.09</ele>
  <time>2026-08-27T18:30:25Z</time>
  <course>283.12</course>
  <speed>0.0</speed>
  <fix>3d</fix>
</trkpt>
<trkpt lat="40.0728422" lon="-105.2305752">
  <ele>1586.15</ele>
  <time>2026-08-27T18:30:25Z</time>
  <course>18.21</course>
  <speed>0.022360679774997897</speed>
  <fix>3d</fix>
</trkpt>
<trkpt lat="40.0728423" lon="-105.2305753">
  <ele>1586.09</ele>
  <time>2026-08-27T18:30:25Z</time>
  <course>283.14</course>
  <speed>0.0</speed>
  <fix>3d</fix>
</trkpt>
<trkpt lat="40.0728422" lon="-105.2305752">
  <ele>1586.15</ele>
  <time>2026-08-27T18:30:25Z</time>
  <course>18.21</course>
  <speed>0.022360679774997897</speed>
  <fix>3d</fix>
</trkpt>
<trkpt lat="40.0728423" lon="-105.2305753">
  <ele>1586.09</ele>
  <time>2026-08-27T18:30:25Z</time>
  <course>283.14</course>
  <speed>0.0</speed>
  <fix>3d</fix>
</trkpt>
<trkpt lat="40.0728422" lon="-105.2305752">
  <ele>1586.15</ele>
  <time>2026-08-27T18:30:25Z</time>
  <course>18.21</course>
  <speed>0.022360679774997897</speed>
  <fix>3d</fix>
</trkpt>
<trkpt lat="40.0728423" lon="-105.2305753">
  <ele>1586.09</ele>
  <time>2026-08-27T18:30:25Z</time>
  <course>283.14</course>
  <speed>0.0</speed>
  <fix>3d</fix>
</trkpt>
<trkpt lat="40.0728422" lon="-105.2305752">
  <ele>1586.15</ele>
  <time>2026-08-27T18:30:25Z</time>
  <course>18.21</course>
  <speed>0.022360679774997897</speed>
  <fix>3d</fix>
</trkpt>
<trkpt lat="40.0728423" lon="-105.2305753">
  <ele>1586.09</ele>
  <time>2026-08-27T18:30:25Z</time>
  <course>283.14</course>
  <speed>0.0</speed>
  <fix>3d</fix>
</trkpt>
<trkpt lat="40.0728422" lon="-105.2305752">
  <ele>1586.15</ele>
  <time>2026-08-27T18:30:25Z</time>
  <course>18.21</course>
  <speed>0.022360679774997897</speed>
  <fix>3d</fix>
</trkpt>
<trkpt lat="40.0728423" lon="-105.2305753">
  <ele>1586.09</ele>
  <time>2026-08-27T18:30:25Z</time>
  <course>283.14</course>
  <speed>0.0</speed>
  <fix>3d</fix>
</trkpt>
<trkpt lat="40.0728422" lon="-105.2305752">
  <ele>1586.15</ele>
  <time>2026-08-27T18:30:25Z</time>
  <course>18.21</course>
  <speed>0.022360679774997897</speed>
  <fix>3d</fix>
</trkpt>
<trkpt lat="40.0728423" lon="-105.2305753">
  <ele>1586.09</ele>
  <time>2026-08-27T18:30:25Z</time>
  <course>283.14</course>
  <speed>0.0</speed>
  <fix>3d</fix>
</trkpt>
<trkpt lat="40.0728422" lon="-105.2305752">
  <ele>1586.16</ele>
  <time>2026-08-27T18:30:25Z</time>
  <course>18.2</course>
  <speed>0.022360679774997897</speed>
  <fix>3d</fix>
</trkpt>
<trkpt lat="40.0728423" lon="-105.2305753">
  <ele>1586.09</ele>
  <time>2026-08-27T18:30:25Z</time>
  <course>283.14</course>
  <speed>0.0</speed>
  <fix>3d</fix>
</trkpt>
<trkpt lat="40.0728422" lon="-105.2305752">
  <ele>1586.16</ele>
  <time>2026-08-27T18:30:25Z</time>
  <course>18.2</course>
  <speed>0.022360679774997897</speed>
  <fix>3d</fix>
</trkpt>
<trkpt lat="40.0728423" lon="-105.2305753">
  <ele>1586.09</ele>
  <time>2026-08-27T18:30:25Z</time>
  <course>283.14</course>
  <speed>0.0</speed>
  <fix>3d</fix>
</trkpt>
<trkpt lat="40.0728422" lon="-105.2305752">
  <ele>1586.16</ele>
  <time>2026-08-27T18:30:25Z</time>
  <course>18.2</course>
  <speed>0.022360679774997897</speed>
  <fix>3d</fix>
</trkpt>
<trkpt lat="40.0728423" lon="-105.2305753">
  <ele>1586.09</ele>
  <time>2026-08-27T18:30:25Z</time>
  <course>283.14</course>
  <speed>0.0</speed>
  <fix>3d</fix>
</trkpt>
<trkpt lat="40.0728422" lon="-105.2305752">
  <ele>1586.16</ele>
  <time>2026-08-27T18:30:25Z</time>
  <course>18.2</course>
  <speed>0.022360679774997897</speed>
  <fix>3d</fix>
</trkpt>
<trkpt lat="40.0728423" lon="-105.2305753">
  <ele>1586.09</ele>
  <time>2026-08-27T18:30:25Z</time>
  <course>283.14</course>
  <speed>0.0</speed>
  <fix>3d</fix>
</trkpt>
<trkpt lat="40.0728422" lon="-105.2305752">
  <ele>1586.16</ele>
  <time>2026-08-27T18:30:25Z</time>
  <course>18.2</course>
  <speed>0.022360679774997897</speed>
  <fix>3d</fix>
</trkpt>
<trkpt lat="40.0728423" lon="-105.2305753">
  <ele>1586.09</ele>
  <time>2026-08-27T18:30:25Z</time>
  <course>283.14</course>
  <speed>0.0</speed>
  <fix>3d</fix>
</trkpt>
<trkpt lat="40.0728422" lon="-105.2305752">
  <ele>1586.16</ele>
  <time>2026-08-27T18:30:25Z</time>
  <course>18.19</course>
  <speed>0.022360679774997897</speed>
  <fix>3d</fix>
</trkpt>
<trkpt lat="40.0728423" lon="-105.2305753">
  <ele>1586.09</ele>
  <time>2026-08-27T18:30:25Z</time>
  <course>283.14</course>
  <speed>0.0</speed>
  <fix>3d</fix>
</trkpt>
<trkpt lat="40.0728422" lon="-105.2305752">
  <ele>1586.16</ele>
  <time>2026-08-27T18:30:25Z</time>
  <course>18.19</course>
  <speed>0.022360679774997897</speed>
  <fix>3d</fix>
</trkpt>
<trkpt lat="40.0728423" lon="-105.2305753">
  <ele>1586.09</ele>
  <time>2026-08-27T18:30:25Z</time>
  <course>283.14</course>
  <speed>0.0</speed>
  <fix>3d</fix>
</trkpt>
<trkpt lat="40.0728422" lon="-105.2305752">
  <ele>1586.16</ele>
  <time>2026-08-27T18:30:25Z</time>
  <course>18.19</course>
  <speed>0.022360679774997897</speed>
  <fix>3d</fix>
</trkpt>
<trkpt lat="40.0728423" lon="-105.2305753">
  <ele>1586.09</ele>
  <time>2026-08-27T18:30:25Z</time>
  <course>283.14</course>
  <speed>0.0</speed>
  <fix>3d</fix>
</trkpt>
<trkpt lat="40.0728422" lon="-105.2305752">
  <ele>1586.16</ele>
  <time>2026-08-27T18:30:25Z</time>
  <course>18.19</course>
  <speed>0.022360679774997897</speed>
  <fix>3d</fix>
</trkpt>
<trkpt lat="40.0728423" lon="-105.2305753">
  <ele>1586.09</ele>
  <time>2026-08-27T18:30:25Z</time>
  <course>283.14</course>
  <speed>0.0</speed>
  <fix>3d</fix>
</trkpt>
<trkpt lat="40.0728422" lon="-105.2305752">
  <ele>1586.16</ele>
  <time>2026-08-27T18:30:25Z</time>
  <course>18.19</course>
  <speed>0.022360679774997897</speed>
  <fix>3d</fix>
</trkpt>
<trkpt lat="40.0728423" lon="-105.2305753">
  <ele>1586.09</ele>
  <time>2026-08-27T18:30:25Z</time>
  <course>283.14</course>
  <speed>0.0</speed>
  <fix>3d</fix>
</trkpt>
<trkpt lat="40.0728422" lon="-105.2305752">
  <ele>1586.16</ele>
  <time>2026-08-27T18:30:25Z</time>
  <course>18.19</course>
  <speed>0.022360679774997897</speed>
  <fix>3d</fix>
</trkpt>
<trkpt lat="40.0728423" lon="-105.2305753">
  <ele>1586.09</ele>
  <time>2026-08-27T18:30:25Z</time>
  <course>283.14</course>
  <speed>0.0</speed>
  <fix>3d</fix>
</trkpt>
<trkpt lat="40.0728422" lon="-105.2305752">
  <ele>1586.16</ele>
  <time>2026-08-27T18:30:25Z</time>
  <course>18.19</course>
  <speed>0.022360679774997897</speed>
  <fix>3d</fix>
</trkpt>
<trkpt lat="40.0728423" lon="-105.2305753">
  <ele>1586.09</ele>
  <time>2026-08-27T18:30:25Z</time>
  <course>283.14</course>
  <speed>0.0</speed>
  <fix>3d</fix>
</trkpt>
<trkpt lat="40.0728422" lon="-105.2305752">
  <ele>1586.16</ele>
  <time>2026-08-27T18:30:25Z</time>
  <course>18.18</course>
  <speed>0.022360679774997897</speed>
  <fix>3d</fix>
</trkpt>
<trkpt lat="40.0728423" lon="-105.2305753">
  <ele>1586.09</ele>
  <time>2026-08-27T18:30:25Z</time>
  <course>283.14</course>
  <speed>0.0</speed>
  <fix>3d</fix>
</trkpt>
<trkpt lat="40.0728422" lon="-105.2305752">
  <ele>1586.16</ele>
  <time>2026-08-27T18:30:25Z</time>
  <course>18.18</course>
  <speed>0.022360679774997897</speed>
  <fix>3d</fix>
</trkpt>
<trkpt lat="40.0728423" lon="-105.2305753">
  <ele>1586.09</ele>
  <time>2026-08-27T18:30:25Z</time>
  <course>283.14</course>
  <speed>0.0</speed>
  <fix>3d</fix>
</trkpt>
<trkpt lat="40.0728422" lon="-105.2305752">
  <ele>1586.17</ele>
  <time>2026-08-27T18:30:25Z</time>
  <course>18.18</course>
  <speed>0.022360679774997897</speed>
  <fix>3d</fix>
</trkpt>
<trkpt lat="40.0728423" lon="-105.2305753">
  <ele>1586.09</ele>
  <time>2026-08-27T18:30:25Z</time>
  <course>283.14</course>
  <speed>0.0</speed>
  <fix>3d</fix>
</trkpt>
<trkpt lat="40.0728422" lon="-105.2305752">
  <ele>1586.17</ele>
  <time>2026-08-27T18:30:25Z</time>
  <course>18.18</course>
  <speed>0.022360679774997897</speed>
  <fix>3d</fix>
</trkpt>
<trkpt lat="40.0728423" lon="-105.2305753">
  <ele>1586.09</ele>
  <time>2026-08-27T18:30:25Z</time>
  <course>283.14</course>
  <speed>0.0</speed>
  <fix>3d</fix>
</trkpt>
<trkpt lat="40.0728422" lon="-105.2305752">
  <ele>1586.17</ele>
  <time>2026-08-27T18:30:25Z</time>
  <course>18.18</course>
  <speed>0.022360679774997897</speed>
  <fix>3d</fix>
</trkpt>
<trkpt lat="40.0728423" lon="-105.2305753">
  <ele>1586.09</ele>
  <time>2026-08-27T18:30:25Z</time>
  <course>283.14</course>
  <speed>0.0</speed>
  <fix>3d</fix>
</trkpt>
<trkpt lat="40.0728422" lon="-105.2305752">
  <ele>1586.17</ele>
  <time>2026-08-27T18:30:25Z</time>
  <course>18.18</course>
  <speed>0.022360679774997897</speed>
  <fix>3d</fix>
</trkpt>
<trkpt lat="40.0728423" lon="-105.2305753">
  <ele>1586.09</ele>
  <time>2026-08-27T18:30:25Z</time>
  <course>283.14</course>
  <speed>0.0</speed>
  <fix>3d</fix>
</trkpt>
<trkpt lat="40.0728422" lon="-105.2305752">
  <ele>1586.17</ele>
  <time>2026-08-27T18:30:25Z</time>
  <course>18.18</course>
  <speed>0.022360679774997897</speed>
  <fix>3d</fix>
</trkpt>
<trkpt lat="40.0728423" lon="-105.2305753">
  <ele>1586.09</ele>
  <time>2026-08-27T18:30:25Z</time>
  <course>283.14</course>
  <speed>0.0</speed>
  <fix>3d</fix>
</trkpt>
<trkpt lat="40.0728422" lon="-105.2305752">
  <ele>1586.17</ele>
  <time>2026-08-27T18:30:25Z</time>
  <course>18.17</course>
  <speed>0.022360679774997897</speed>
  <fix>3d</fix>
</trkpt>
<trkpt lat="40.0728423" lon="-105.2305753">
  <ele>1586.09</ele>
  <time>2026-08-27T18:30:25Z</time>
  <course>283.14</course>
  <speed>0.0</speed>
  <fix>3d</fix>
</trkpt>
<trkpt lat="40.0728422" lon="-105.2305752">
  <ele>1586.17</ele>
  <time>2026-08-27T18:30:25Z</time>
  <course>18.17</course>
  <speed>0.022360679774997897</speed>
  <fix>3d</fix>
</trkpt>
<trkpt lat="40.0728423" lon="-105.2305753">
  <ele>1586.09</ele>
  <time>2026-08-27T18:30:25Z</time>
  <course>283.14</course>
  <speed>0.0</speed>
  <fix>3d</fix>
</trkpt>
<trkpt lat="40.0728422" lon="-105.2305752">
  <ele>1586.18</ele>
  <time>2026-08-27T18:30:25Z</time>
  <course>18.17</course>
  <speed>0.022360679774997897</speed>
  <fix>3d</fix>
</trkpt>
<trkpt lat="40.0728423" lon="-105.2305753">
  <ele>1586.09</ele>
  <time>2026-08-27T18:30:25Z</time>
  <course>283.14</course>
  <speed>0.0</speed>
  <fix>3d</fix>
</trkpt>
<trkpt lat="40.0728422" lon="-105.2305752">
  <ele>1586.18</ele>
  <time>2026-08-27T18:30:25Z</time>
  <course>18.17</course>
  <speed>0.022360679774997897</speed>
  <fix>3d</fix>
</trkpt>
<trkpt lat="40.0728423" lon="-105.2305753">
  <ele>1586.09</ele>
  <time>2026-08-27T18:30:25Z</time>
  <course>283.14</course>
  <speed>0.0</speed>
  <fix>3d</fix>
</trkpt>
<trkpt lat="40.0728422" lon="-105.2305752">
  <ele>1586.18</ele>
  <time>2026-08-27T18:30:25Z</time>
  <course>18.17</course>
  <speed>0.022360679774997897</speed>
  <fix>3d</fix>
</trkpt>
<trkpt lat="40.0728423" lon="-105.2305753">
  <ele>1586.09</ele>
  <time>2026-08-27T18:30:25Z</time>
  <course>283.14</course>
  <speed>0.0</speed>
  <fix>3d</fix>
</trkpt>
<trkpt lat="40.0728422" lon="-105.2305752">
  <ele>1586.18</ele>
  <time>2026-08-27T18:30:25Z</time>
  <course>18.18</course>
  <speed>0.022360679774997897</speed>
  <fix>3d</fix>
</trkpt>
<trkpt lat="40.0728423" lon="-105.2305753">
  <ele>1586.09</ele>
  <time>2026-08-27T18:30:25Z</time>
  <course>283.14</course>
  <speed>0.0</speed>
  <fix>3d</fix>
</trkpt>
<trkpt lat="40.0728422" lon="-105.2305752">
  <ele>1586.17</ele>
  <time>2026-08-27T18:30:25Z</time>
  <course>18.28</course>
  <speed>0.022360679774997897</speed>
  <fix>3d</fix>
</trkpt>
<trkpt lat="40.0728423" lon="-105.2305753">
  <ele>1586.09</ele>
  <time>2026-08-27T18:30:25Z</time>
  <course>283.14</course>
  <speed>0.0</speed>
  <fix>3d</fix>
</trkpt>
<trkpt lat="40.0728422" lon="-105.2305752">
  <ele>1586.16</ele>
  <time>2026-08-27T18:30:25Z</time>
  <course>18.4</course>
  <speed>0.022360679774997897</speed>
  <fix>3d</fix>
</trkpt>
<trkpt lat="40.0728423" lon="-105.2305753">
  <ele>1586.09</ele>
  <time>2026-08-27T18:30:25Z</time>
  <course>340.83</course>
  <speed>0.0</speed>
  <fix>3d</fix>
</trkpt>
<trkpt lat="40.0728422" lon="-105.2305752">
  <ele>1586.16</ele>
  <time>2026-08-27T18:30:25Z</time>
  <course>18.51</course>
  <speed>0.022360679774997897</speed>
  <fix>3d</fix>
</trkpt>
<trkpt lat="40.0728423" lon="-105.2305753">
  <ele>1586.09</ele>
  <time>2026-08-27T18:30:25Z</time>
  <course>333.76</course>
  <speed>0.0</speed>
  <fix>3d</fix>
</trkpt>
<trkpt lat="40.0728422" lon="-105.2305752">
  <ele>1586.16</ele>
  <time>2026-08-27T18:30:25Z</time>
  <course>18.61</course>
  <speed>0.022360679774997897</speed>
  <fix>3d</fix>
</trkpt>
<trkpt lat="40.0728423" lon="-105.2305753">
  <ele>1586.09</ele>
  <time>2026-08-27T18:30:25Z</time>
  <course>222.77</course>
  <speed>0.0</speed>
  <fix>3d</fix>
</trkpt>
<trkpt lat="40.0728422" lon="-105.2305752">
  <ele>1586.15</ele>
  <time>2026-08-27T18:30:25Z</time>
  <course>18.72</course>
  <speed>0.022360679774997897</speed>
  <fix>3d</fix>
</trkpt>
<trkpt lat="40.0728423" lon="-105.2305753">
  <ele>1586.09</ele>
  <time>2026-08-27T18:30:25Z</time>
  <course>172.09</course>
  <speed>0.0</speed>
  <fix>3d</fix>
</trkpt>
<trkpt lat="40.0728422" lon="-105.2305752">
  <ele>1586.16</ele>
  <time>2026-08-27T18:30:25Z</time>
  <course>18.82</course>
  <speed>0.022360679774997897</speed>
  <fix>3d</fix>
</trkpt>
<trkpt lat="40.0728423" lon="-105.2305753">
  <ele>1586.09</ele>
  <time>2026-08-27T18:30:25Z</time>
  <course>320.25</course>
  <speed>0.0</speed>
  <fix>3d</fix>
</trkpt>
<trkpt lat="40.0728422" lon="-105.2305752">
  <ele>1586.16</ele>
  <time>2026-08-27T18:30:25Z</time>
  <course>18.92</course>
  <speed>0.022360679774997897</speed>
  <fix>3d</fix>
</trkpt>
<trkpt lat="40.0728423" lon="-105.2305753">
  <ele>1586.09</ele>
  <time>2026-08-27T18:30:25Z</time>
  <course>259.01</course>
  <speed>0.0</speed>
  <fix>3d</fix>
</trkpt>
<trkpt lat="40.0728422" lon="-105.2305752">
  <ele>1586.15</ele>
  <time>2026-08-27T18:30:25Z</time>
  <course>19.02</course>
  <speed>0.022360679774997897</speed>
  <fix>3d</fix>
</trkpt>
<trkpt lat="40.0728423" lon="-105.2305753">
  <ele>1586.09</ele>
  <time>2026-08-27T18:30:25Z</time>
  <course>177.9</course>
  <speed>0.0</speed>
  <fix>3d</fix>
</trkpt>
<trkpt lat="40.0728422" lon="-105.2305752">
  <ele>1586.15</ele>
  <time>2026-08-27T18:30:25Z</time>
  <course>19.12</course>
  <speed>0.022360679774997897</speed>
  <fix>3d</fix>
</trkpt>
<trkpt lat="40.0728423" lon="-105.2305753">
  <ele>1586.09</ele>
  <time>2026-08-27T18:30:25Z</time>
  <course>118.76</course>
  <speed>0.0</speed>
  <fix>3d</fix>
</trkpt>
<trkpt lat="40.0728422" lon="-105.2305752">
  <ele>1586.16</ele>
  <time>2026-08-27T18:30:25Z</time>
  <course>19.22</course>
  <speed>0.022360679774997897</speed>
  <fix>3d</fix>
</trkpt>
<trkpt lat="40.0728423" lon="-105.2305753">
  <ele>1586.09</ele>
  <time>2026-08-27T18:30:25Z</time>
  <course>335.49</course>
  <speed>0.0</speed>
  <fix>3d</fix>
</trkpt>
<trkpt lat="40.0728422" lon="-105.2305752">
  <ele>1586.16</ele>
  <time>2026-08-27T18:30:25Z</time>
  <course>19.31</course>
  <speed>0.022360679774997897</speed>
  <fix>3d</fix>
</trkpt>
<trkpt lat="40.0728423" lon="-105.2305753">
  <ele>1586.09</ele>
  <time>2026-08-27T18:30:25Z</time>
  <course>283.13</course>
  <speed>0.0</speed>
  <fix>3d</fix>
</trkpt>
<trkpt lat="40.0728422" lon="-105.2305752">
  <ele>1586.16</ele>
  <time>2026-08-27T18:30:25Z</time>
  <course>19.4</course>
  <speed>0.02</speed>
  <fix>3d</fix>
</trkpt>
<trkpt lat="40.0728423" lon="-105.2305753">
  <ele>1586.09</ele>
  <time>2026-08-27T18:30:25Z</time>
  <course>222.83</course>
  <speed>0.0</speed>
  <fix>3d</fix>
</trkpt>
<trkpt lat="40.0728422" lon="-105.2305752">
  <ele>1586.16</ele>
  <time>2026-08-27T18:30:25Z</time>
  <course>19.5</course>
  <speed>0.02</speed>
  <fix>3d</fix>
</trkpt>
<trkpt lat="40.0728423" lon="-105.2305753">
  <ele>1586.09</ele>
  <time>2026-08-27T18:30:25Z</time>
  <course>288.86</course>
  <speed>0.0</speed>
  <fix>3d</fix>
</trkpt>
<trkpt lat="40.0728422" lon="-105.2305752">
  <ele>1586.16</ele>
  <time>2026-08-27T18:30:25Z</time>
  <course>19.59</course>
  <speed>0.02</speed>
  <fix>3d</fix>
</trkpt>
<trkpt lat="40.0728423" lon="-105.2305753">
  <ele>1586.09</ele>
  <time>2026-08-27T18:30:25Z</time>
  <course>287.22</course>
  <speed>0.0</speed>
  <fix>3d</fix>
</trkpt>
<trkpt lat="40.0728422" lon="-105.2305752">
  <ele>1586.16</ele>
  <time>2026-08-27T18:30:25Z</time>
  <course>19.68</course>
  <speed>0.02</speed>
  <fix>3d</fix>
</trkpt>
<trkpt lat="40.0728423" lon="-105.2305753">
  <ele>1586.09</ele>
  <time>2026-08-27T18:30:25Z</time>
  <course>282.01</course>
  <speed>0.0</speed>
  <fix>3d</fix>
</trkpt>
<trkpt lat="40.0728422" lon="-105.2305752">
  <ele>1586.16</ele>
  <time>2026-08-27T18:30:25Z</time>
  <course>19.77</course>
  <speed>0.02</speed>
  <fix>3d</fix>
</trkpt>
<trkpt lat="40.0728423" lon="-105.2305753">
  <ele>1586.09</ele>
  <time>2026-08-27T18:30:25Z</time>
  <course>282.66</course>
  <speed>0.0</speed>
  <fix>3d</fix>
</trkpt>
<trkpt lat="40.0728422" lon="-105.2305752">
  <ele>1586.15</ele>
  <time>2026-08-27T18:30:25Z</time>
  <course>19.85</course>
  <speed>0.02</speed>
  <fix>3d</fix>
</trkpt>
<trkpt lat="40.0728423" lon="-105.2305753">
  <ele>1586.09</ele>
  <time>2026-08-27T18:30:25Z</time>
  <course>283.35</course>
  <speed>0.0</speed>
  <fix>3d</fix>
</trkpt>
<trkpt lat="40.0728422" lon="-105.2305752">
  <ele>1586.15</ele>
  <time>2026-08-27T18:30:25Z</time>
  <course>19.94</course>
  <speed>0.02</speed>
  <fix>3d</fix>
</trkpt>
<trkpt lat="40.0728423" lon="-105.2305753">
  <ele>1586.09</ele>
  <time>2026-08-27T18:30:25Z</time>
  <course>283.18</course>
  <speed>0.0</speed>
  <fix>3d</fix>
</trkpt>
<trkpt lat="40.0728422" lon="-105.2305752">
  <ele>1586.15</ele>
  <time>2026-08-27T18:30:25Z</time>
  <course>20.03</course>
  <speed>0.02</speed>
  <fix>3d</fix>
</trkpt>
<trkpt lat="40.0728423" lon="-105.2305753">
  <ele>1586.09</ele>
  <time>2026-08-27T18:30:25Z</time>
  <course>283.11</course>
  <speed>0.0</speed>
  <fix>3d</fix>
</trkpt>
<trkpt lat="40.0728422" lon="-105.2305752">
  <ele>1586.15</ele>
  <time>2026-08-27T18:30:25Z</time>
  <course>20.11</course>
  <speed>0.02</speed>
  <fix>3d</fix>
</trkpt>
<trkpt lat="40.0728423" lon="-105.2305753">
  <ele>1586.09</ele>
  <time>2026-08-27T18:30:25Z</time>
  <course>283.14</course>
  <speed>0.0</speed>
  <fix>3d</fix>
</trkpt>
<trkpt lat="40.0728422" lon="-105.2305752">
  <ele>1586.15</ele>
  <time>2026-08-27T18:30:25Z</time>
  <course>20.19</course>
  <speed>0.02</speed>
  <fix>3d</fix>
</trkpt>
<trkpt lat="40.0728423" lon="-105.2305753">
  <ele>1586.09</ele>
  <time>2026-08-27T18:30:25Z</time>
  <course>283.14</course>
  <speed>0.0</speed>
  <fix>3d</fix>
</trkpt>
<trkpt lat="40.0728422" lon="-105.2305752">
  <ele>1586.15</ele>
  <time>2026-08-27T18:30:25Z</time>
  <course>20.28</course>
  <speed>0.02</speed>
  <fix>3d</fix>
</trkpt>
<trkpt lat="40.0728423" lon="-105.2305753">
  <ele>1586.09</ele>
  <time>2026-08-27T18:30:25Z</time>
  <course>283.14</course>
  <speed>0.0</speed>
  <fix>3d</fix>
</trkpt>
<trkpt lat="40.0728422" lon="-105.2305752">
  <ele>1586.15</ele>
  <time>2026-08-27T18:30:25Z</time>
  <course>20.36</course>
  <speed>0.02</speed>
  <fix>3d</fix>
</trkpt>
<trkpt lat="40.0728423" lon="-105.2305753">
  <ele>1586.09</ele>
  <time>2026-08-27T18:30:25Z</time>
  <course>283.14</course>
  <speed>0.0</speed>
  <fix>3d</fix>
</trkpt>
<trkpt lat="40.0728422" lon="-105.2305752">
  <ele>1586.16</ele>
  <time>2026-08-27T18:30:25Z</time>
  <course>20.44</course>
  <speed>0.02</speed>
  <fix>3d</fix>
</trkpt>
<trkpt lat="40.0728423" lon="-105.2305753">
  <ele>1586.09</ele>
  <time>2026-08-27T18:30:25Z</time>
  <course>283.14</course>
  <speed>0.0</speed>
  <fix>3d</fix>
</trkpt>
<trkpt lat="40.0728422" lon="-105.2305752">
  <ele>1586.16</ele>
  <time>2026-08-27T18:30:25Z</time>
  <course>20.52</course>
  <speed>0.02</speed>
  <fix>3d</fix>
</trkpt>
<trkpt lat="40.0728423" lon="-105.2305753">
  <ele>1586.09</ele>
  <time>2026-08-27T18:30:25Z</time>
  <course>283.14</course>
  <speed>0.0</speed>
  <fix>3d</fix>
</trkpt>
<trkpt lat="40.0728422" lon="-105.2305752">
  <ele>1586.16</ele>
  <time>2026-08-27T18:30:25Z</time>
  <course>20.6</course>
  <speed>0.02</speed>
  <fix>3d</fix>
</trkpt>
<trkpt lat="40.0728423" lon="-105.2305753">
  <ele>1586.09</ele>
  <time>2026-08-27T18:30:25Z</time>
  <course>283.14</course>
  <speed>0.0</speed>
  <fix>3d</fix>
</trkpt>
<trkpt lat="40.0728422" lon="-105.2305752">
  <ele>1586.16</ele>
  <time>2026-08-27T18:30:25Z</time>
  <course>20.68</course>
  <speed>0.02</speed>
  <fix>3d</fix>
</trkpt>
<trkpt lat="40.0728423" lon="-105.2305753">
  <ele>1586.09</ele>
  <time>2026-08-27T18:30:25Z</time>
  <course>283.14</course>
  <speed>0.0</speed>
  <fix>3d</fix>
</trkpt>
<trkpt lat="40.0728422" lon="-105.2305752">
  <ele>1586.16</ele>
  <time>2026-08-27T18:30:25Z</time>
  <course>20.76</course>
  <speed>0.02</speed>
  <fix>3d</fix>
</trkpt>
<trkpt lat="40.0728423" lon="-105.2305753">
  <ele>1586.09</ele>
  <time>2026-08-27T18:30:25Z</time>
  <course>283.14</course>
  <speed>0.0</speed>
  <fix>3d</fix>
</trkpt>
<trkpt lat="40.0728422" lon="-105.2305752">
  <ele>1586.16</ele>
  <time>2026-08-27T18:30:25Z</time>
  <course>20.83</course>
  <speed>0.02</speed>
  <fix>3d</fix>
</trkpt>
<trkpt lat="40.0728423" lon="-105.2305753">
  <ele>1586.09</ele>
  <time>2026-08-27T18:30:25Z</time>
  <course>215.79</course>
  <speed>0.0</speed>
  <fix>3d</fix>
</trkpt>
<trkpt lat="40.0728422" lon="-105.2305752">
  <ele>1586.16</ele>
  <time>2026-08-27T18:30:25Z</time>
  <course>20.91</course>
  <speed>0.02</speed>
  <fix>3d</fix>
</trkpt>
<trkpt lat="40.0728423" lon="-105.2305753">
  <ele>1586.09</ele>
  <time>2026-08-27T18:30:25Z</time>
  <course>262.39</course>
  <speed>0.0</speed>
  <fix>3d</fix>
</trkpt>
<trkpt lat="40.0728422" lon="-105.2305752">
  <ele>1586.16</ele>
  <time>2026-08-27T18:30:25Z</time>
  <course>20.98</course>
  <speed>0.02</speed>
  <fix>3d</fix>
</trkpt>
<trkpt lat="40.0728423" lon="-105.2305753">
  <ele>1586.09</ele>
  <time>2026-08-27T18:30:25Z</time>
  <course>284.03</course>
  <speed>0.0</speed>
  <fix>3d</fix>
</trkpt>
<trkpt lat="40.0728422" lon="-105.2305752">
  <ele>1586.16</ele>
  <time>2026-08-27T18:30:25Z</time>
  <course>21.06</course>
  <speed>0.02</speed>
  <fix>3d</fix>
</trkpt>
<trkpt lat="40.0728423" lon="-105.2305753">
  <ele>1586.09</ele>
  <time>2026-08-27T18:30:25Z</time>
  <course>278.57</course>
  <speed>0.0</speed>
  <fix>3d</fix>
</trkpt>
<trkpt lat="40.0728422" lon="-105.2305752">
  <ele>1586.16</ele>
  <time>2026-08-27T18:30:25Z</time>
  <course>21.13</course>
  <speed>0.02</speed>
  <fix>3d</fix>
</trkpt>
<trkpt lat="40.0728423" lon="-105.2305753">
  <ele>1586.09</ele>
  <time>2026-08-27T18:30:25Z</time>
  <course>283.89</course>
  <speed>0.0</speed>
  <fix>3d</fix>
</trkpt>
<trkpt lat="40.0728422" lon="-105.2305752">
  <ele>1586.16</ele>
  <time>2026-08-27T18:30:25Z</time>
  <course>21.21</course>
  <speed>0.02</speed>
  <fix>3d</fix>
</trkpt>
<trkpt lat="40.0728423" lon="-105.2305753">
  <ele>1586.09</ele>
  <time>2026-08-27T18:30:25Z</time>
  <course>283.67</course>
  <speed>0.0</speed>
  <fix>3d</fix>
</trkpt>
<trkpt lat="40.0728422" lon="-105.2305752">
  <ele>1586.16</ele>
  <time>2026-08-27T18:30:25Z</time>
  <course>21.28</course>
  <speed>0.02</speed>
  <fix>3d</fix>
</trkpt>
<trkpt lat="40.0728423" lon="-105.2305753">
  <ele>1586.09</ele>
  <time>2026-08-27T18:30:25Z</time>
  <course>282.99</course>
  <speed>0.0</speed>
  <fix>3d</fix>
</trkpt>
<trkpt lat="40.0728422" lon="-105.2305752">
  <ele>1586.16</ele>
  <time>2026-08-27T18:30:25Z</time>
  <course>21.35</course>
  <speed>0.02</speed>
  <fix>3d</fix>
</trkpt>
<trkpt lat="40.0728423" lon="-105.2305753">
  <ele>1586.09</ele>
  <time>2026-08-27T18:30:25Z</time>
  <course>283.09</course>
  <speed>0.0</speed>
  <fix>3d</fix>
</trkpt>
<trkpt lat="40.0728422" lon="-105.2305752">
  <ele>1586.16</ele>
  <time>2026-08-27T18:30:25Z</time>
  <course>21.42</course>
  <speed>0.02</speed>
  <fix>3d</fix>
</trkpt>
<trkpt lat="40.0728423" lon="-105.2305753">
  <ele>1586.09</ele>
  <time>2026-08-27T18:30:25Z</time>
  <course>283.17</course>
  <speed>0.0</speed>
  <fix>3d</fix>
</trkpt>
<trkpt lat="40.0728422" lon="-105.2305752">
  <ele>1586.16</ele>
  <time>2026-08-27T18:30:25Z</time>
  <course>21.49</course>
  <speed>0.02</speed>
  <fix>3d</fix>
</trkpt>
<trkpt lat="40.0728423" lon="-105.2305753">
  <ele>1586.09</ele>
  <time>2026-08-27T18:30:25Z</time>
  <course>283.14</course>
  <speed>0.0</speed>
  <fix>3d</fix>
</trkpt>
<trkpt lat="40.0728422" lon="-105.2305752">
  <ele>1586.15</ele>
  <time>2026-08-27T18:30:25Z</time>
  <course>21.56</course>
  <speed>0.02</speed>
  <fix>3d</fix>
</trkpt>
<trkpt lat="40.0728423" lon="-105.2305753">
  <ele>1586.09</ele>
  <time>2026-08-27T18:30:25Z</time>
  <course>344.88</course>
  <speed>0.0</speed>
  <fix>3d</fix>
</trkpt>
<trkpt lat="40.0728422" lon="-105.2305752">
  <ele>1586.15</ele>
  <time>2026-08-27T18:30:25Z</time>
  <course>21.63</course>
  <speed>0.01</speed>
  <fix>3d</fix>
</trkpt>
<trkpt lat="40.0728423" lon="-105.2305753">
  <ele>1586.09</ele>
  <time>2026-08-27T18:30:25Z</time>
  <course>336.93</course>
  <speed>0.0</speed>
  <fix>3d</fix>
</trkpt>
<trkpt lat="40.0728422" lon="-105.2305752">
  <ele>1586.15</ele>
  <time>2026-08-27T18:30:25Z</time>
  <course>21.69</course>
  <speed>0.01</speed>
  <fix>3d</fix>
</trkpt>
<trkpt lat="40.0728423" lon="-105.2305753">
  <ele>1586.09</ele>
  <time>2026-08-27T18:30:26Z</time>
  <course>258.51</course>
  <speed>0.0</speed>
  <fix>3d</fix>
</trkpt>
<trkpt lat="40.0728422" lon="-105.2305752">
  <ele>1586.15</ele>
  <time>2026-08-27T18:30:26Z</time>
  <course>21.76</course>
  <speed>0.01</speed>
  <fix>3d</fix>
</trkpt>
<trkpt lat="40.0728423" lon="-105.2305753">
  <ele>1586.09</ele>
  <time>2026-08-27T18:30:26Z</time>
  <course>175.0</course>
  <speed>0.0</speed>
  <fix>3d</fix>
</trkpt>
<trkpt lat="40.0728422" lon="-105.2305752">
  <ele>1586.15</ele>
  <time>2026-08-27T18:30:26Z</time>
  <course>21.82</course>
  <speed>0.01</speed>
  <fix>3d</fix>
</trkpt>
<trkpt lat="40.0728423" lon="-105.2305753">
  <ele>1586.09</ele>
  <time>2026-08-27T18:30:26Z</time>
  <course>320.68</course>
  <speed>0.0</speed>
  <fix>3d</fix>
</trkpt>
<trkpt lat="40.0728422" lon="-105.2305752">
  <ele>1586.15</ele>
  <time>2026-08-27T18:30:26Z</time>
  <course>21.88</course>
  <speed>0.01</speed>
  <fix>3d</fix>
</trkpt>
<trkpt lat="40.0728423" lon="-105.2305753">
  <ele>1586.09</ele>
  <time>2026-08-27T18:30:26Z</time>
  <course>318.36</course>
  <speed>0.0</speed>
  <fix>3d</fix>
</trkpt>
<trkpt lat="40.0728422" lon="-105.2305752">
  <ele>1586.15</ele>
  <time>2026-08-27T18:30:26Z</time>
  <course>21.94</course>
  <speed>0.01</speed>
  <fix>3d</fix>
</trkpt>
<trkpt lat="40.0728423" lon="-105.2305753">
  <ele>1586.09</ele>
  <time>2026-08-27T18:30:26Z</time>
  <course>282.04</course>
  <speed>0.0</speed>
  <fix>3d</fix>
</trkpt>
<trkpt lat="40.0728422" lon="-105.2305752">
  <ele>1586.15</ele>
  <time>2026-08-27T18:30:26Z</time>
  <course>22.0</course>
  <speed>0.01</speed>
  <fix>3d</fix>
</trkpt>
<trkpt lat="40.0728423" lon="-105.2305753">
  <ele>1586.09</ele>
  <time>2026-08-27T18:30:26Z</time>
  <course>270.25</course>
  <speed>0.0</speed>
  <fix>3d</fix>
</trkpt>
<trkpt lat="40.0728422" lon="-105.2305752">
  <ele>1586.15</ele>
  <time>2026-08-27T18:30:26Z</time>
  <course>22.05</course>
  <speed>0.01</speed>
  <fix>3d</fix>
</trkpt>
<trkpt lat="40.0728423" lon="-105.2305753">
  <ele>1586.09</ele>
  <time>2026-08-27T18:30:26Z</time>
  <course>118.69</course>
  <speed>0.0</speed>
  <fix>3d</fix>
</trkpt>
<trkpt lat="40.0728422" lon="-105.2305752">
  <ele>1586.15</ele>
  <time>2026-08-27T18:30:26Z</time>
  <course>22.1</course>
  <speed>0.01</speed>
  <fix>3d</fix>
</trkpt>
<trkpt lat="40.0728423" lon="-105.2305753">
  <ele>1586.09</ele>
  <time>2026-08-27T18:30:26Z</time>
  <course>342.31</course>
  <speed>0.0</speed>
  <fix>3d</fix>
</trkpt>
<trkpt lat="40.0728422" lon="-105.2305752">
  <ele>1586.15</ele>
  <time>2026-08-27T18:30:26Z</time>
  <course>22.15</course>
  <speed>0.01</speed>
  <fix>3d</fix>
</trkpt>
<trkpt lat="40.0728423" lon="-105.2305753">
  <ele>1586.09</ele>
  <time>2026-08-27T18:30:26Z</time>
  <course>350.85</course>
  <speed>0.0</speed>
  <fix>3d</fix>
</trkpt>
<trkpt lat="40.0728422" lon="-105.2305752">
  <ele>1586.15</ele>
  <time>2026-08-27T18:30:26Z</time>
  <course>22.2</course>
  <speed>0.01</speed>
  <fix>3d</fix>
</trkpt>
<trkpt lat="40.0728423" lon="-105.2305753">
  <ele>1586.09</ele>
  <time>2026-08-27T18:30:26Z</time>
  <course>337.57</course>
  <speed>0.0</speed>
  <fix>3d</fix>
</trkpt>
<trkpt lat="40.0728422" lon="-105.2305752">
  <ele>1586.15</ele>
  <time>2026-08-27T18:30:26Z</time>
  <course>22.24</course>
  <speed>0.01</speed>
  <fix>3d</fix>
</trkpt>
<trkpt lat="40.0728423" lon="-105.2305753">
  <ele>1586.09</ele>
  <time>2026-08-27T18:30:26Z</time>
  <course>321.11</course>
  <speed>0.0</speed>
  <fix>3d</fix>
</trkpt>
<trkpt lat="40.0728422" lon="-105.2305752">
  <ele>1586.15</ele>
  <time>2026-08-27T18:30:26Z</time>
  <course>22.29</course>
  <speed>0.01</speed>
  <fix>3d</fix>
</trkpt>
<trkpt lat="40.0728423" lon="-105.2305753">
  <ele>1586.09</ele>
  <time>2026-08-27T18:30:26Z</time>
  <course>281.38</course>
  <speed>0.0</speed>
  <fix>3d</fix>
</trkpt>
<trkpt lat="40.0728422" lon="-105.2305752">
  <ele>1586.15</ele>
  <time>2026-08-27T18:30:26Z</time>
  <course>22.33</course>
  <speed>0.01</speed>
  <fix>3d</fix>
</trkpt>
<trkpt lat="40.0728423" lon="-105.2305753">
  <ele>1586.09</ele>
  <time>2026-08-27T18:30:26Z</time>
  <course>282.93</course>
  <speed>0.0</speed>
  <fix>3d</fix>
</trkpt>
<trkpt lat="40.0728422" lon="-105.2305752">
  <ele>1586.15</ele>
  <time>2026-08-27T18:30:26Z</time>
  <course>22.37</course>
  <speed>0.01</speed>
  <fix>3d</fix>
</trkpt>
<trkpt lat="40.0728423" lon="-105.2305753">
  <ele>1586.09</ele>
  <time>2026-08-27T18:30:26Z</time>
  <course>252.7</course>
  <speed>0.0</speed>
  <fix>3d</fix>
</trkpt>
<trkpt lat="40.0728422" lon="-105.2305752">
  <ele>1586.15</ele>
  <time>2026-08-27T18:30:26Z</time>
  <course>22.41</course>
  <speed>0.01</speed>
  <fix>3d</fix>
</trkpt>
<trkpt lat="40.0728423" lon="-105.2305753">
  <ele>1586.09</ele>
  <time>2026-08-27T18:30:26Z</time>
  <course>8.59</course>
  <speed>0.0</speed>
  <fix>3d</fix>
</trkpt>
<trkpt lat="40.0728422" lon="-105.2305752">
  <ele>1586.15</ele>
  <time>2026-08-27T18:30:26Z</time>
  <course>22.45</course>
  <speed>0.01</speed>
  <fix>3d</fix>
</trkpt>
<trkpt lat="40.0728423" lon="-105.2305753">
  <ele>1586.09</ele>
  <time>2026-08-27T18:30:26Z</time>
  <course>302.88</course>
  <speed>0.0</speed>
  <fix>3d</fix>
</trkpt>
<trkpt lat="40.0728422" lon="-105.2305752">
  <ele>1586.15</ele>
  <time>2026-08-27T18:30:26Z</time>
  <course>22.48</course>
  <speed>0.01</speed>
  <fix>3d</fix>
</trkpt>
<trkpt lat="40.0728423" lon="-105.2305753">
  <ele>1586.09</ele>
  <time>2026-08-27T18:30:26Z</time>
  <course>298.1</course>
  <speed>0.0</speed>
  <fix>3d</fix>
</trkpt>
<trkpt lat="40.0728422" lon="-105.2305752">
  <ele>1586.15</ele>
  <time>2026-08-27T18:30:26Z</time>
  <course>22.51</course>
  <speed>0.01</speed>
  <fix>3d</fix>
</trkpt>
<trkpt lat="40.0728423" lon="-105.2305753">
  <ele>1586.09</ele>
  <time>2026-08-27T18:30:26Z</time>
  <course>359.12</course>
  <speed>0.0</speed>
  <fix>3d</fix>
</trkpt>
<trkpt lat="40.0728422" lon="-105.2305752">
  <ele>1586.15</ele>
  <time>2026-08-27T18:30:26Z</time>
  <course>22.54</course>
  <speed>0.02</speed>
  <fix>3d</fix>
</trkpt>
<trkpt lat="40.0728423" lon="-105.2305753">
  <ele>1586.09</ele>
  <time>2026-08-27T18:30:26Z</time>
  <course>319.69</course>
  <speed>0.0</speed>
  <fix>3d</fix>
</trkpt>
<trkpt lat="40.0728422" lon="-105.2305752">
  <ele>1586.14</ele>
  <time>2026-08-27T18:30:26Z</time>
  <course>22.56</course>
  <speed>0.02</speed>
  <fix>3d</fix>
</trkpt>
<trkpt lat="40.0728423" lon="-105.2305753">
  <ele>1586.09</ele>
  <time>2026-08-27T18:30:26Z</time>
  <course>291.79</course>
  <speed>0.0</speed>
  <fix>3d</fix>
</trkpt>
<trkpt lat="40.0728422" lon="-105.2305752">
  <ele>1586.14</ele>
  <time>2026-08-27T18:30:26Z</time>
  <course>22.59</course>
  <speed>0.02</speed>
  <fix>3d</fix>
</trkpt>
<trkpt lat="40.0728423" lon="-105.2305753">
  <ele>1586.09</ele>
  <time>2026-08-27T18:30:26Z</time>
  <course>228.7</course>
  <speed>0.0</speed>
  <fix>3d</fix>
</trkpt>
<trkpt lat="40.0728422" lon="-105.2305752">
  <ele>1586.15</ele>
  <time>2026-08-27T18:30:26Z</time>
  <course>22.61</course>
  <speed>0.022360679774997897</speed>
  <fix>3d</fix>
</trkpt>
<trkpt lat="40.0728423" lon="-105.2305753">
  <ele>1586.09</ele>
  <time>2026-08-27T18:30:26Z</time>
  <course>225.64</course>
  <speed>0.0</speed>
  <fix>3d</fix>
</trkpt>
<trkpt lat="40.0728422" lon="-105.2305752">
  <ele>1586.15</ele>
  <time>2026-08-27T18:30:26Z</time>
  <course>22.63</course>
  <speed>0.022360679774997897</speed>
  <fix>3d</fix>
</trkpt>
<trkpt lat="40.0728423" lon="-105.2305753">
  <ele>1586.09</ele>
  <time>2026-08-27T18:30:26Z</time>
  <course>234.37</course>
  <speed>0.0</speed>
  <fix>3d</fix>
</trkpt>
<trkpt lat="40.0728422" lon="-105.2305752">
  <ele>1586.15</ele>
  <time>2026-08-27T18:30:26Z</time>
  <course>22.65</course>
  <speed>0.022360679774997897</speed>
  <fix>3d</fix>
</trkpt>
<trkpt lat="40.0728423" lon="-105.2305753">
  <ele>1586.09</ele>
  <time>2026-08-27T18:30:26Z</time>
  <course>338.88</course>
  <speed>0.0</speed>
  <fix>3d</fix>
</trkpt>
<trkpt lat="40.0728422" lon="-105.2305752">
  <ele>1586.15</ele>
  <time>2026-08-27T18:30:26Z</time>
  <course>22.67</course>
  <speed>0.022360679774997897</speed>
  <fix>3d</fix>
</trkpt>
<trkpt lat="40.0728423" lon="-105.2305753">
  <ele>1586.09</ele>
  <time>2026-08-27T18:30:26Z</time>
  <course>295.25</course>
  <speed>0.0</speed>
  <fix>3d</fix>
</trkpt>
<trkpt lat="40.0728422" lon="-105.2305752">
  <ele>1586.15</ele>
  <time>2026-08-27T18:30:26Z</time>
  <course>22.68</course>
  <speed>0.022360679774997897</speed>
  <fix>3d</fix>
</trkpt>
<trkpt lat="40.0728423" lon="-105.2305753">
  <ele>1586.09</ele>
  <time>2026-08-27T18:30:26Z</time>
  <course>282.55</course>
  <speed>0.0</speed>
  <fix>3d</fix>
</trkpt>
<trkpt lat="40.0728422" lon="-105.2305752">
  <ele>1586.15</ele>
  <time>2026-08-27T18:30:26Z</time>
  <course>22.7</course>
  <speed>0.022360679774997897</speed>
  <fix>3d</fix>
</trkpt>
<trkpt lat="40.0728423" lon="-105.2305753">
  <ele>1586.09</ele>
  <time>2026-08-27T18:30:26Z</time>
  <course>309.34</course>
  <speed>0.0</speed>
  <fix>3d</fix>
</trkpt>
<trkpt lat="40.0728422" lon="-105.2305752">
  <ele>1586.15</ele>
  <time>2026-08-27T18:30:26Z</time>
  <course>22.71</course>
  <speed>0.022360679774997897</speed>
  <fix>3d</fix>
</trkpt>
<trkpt lat="40.0728423" lon="-105.2305753">
  <ele>1586.09</ele>
  <time>2026-08-27T18:30:26Z</time>
  <course>330.88</course>
  <speed>0.0</speed>
  <fix>3d</fix>
</trkpt>
<trkpt lat="40.0728422" lon="-105.2305752">
  <ele>1586.15</ele>
  <time>2026-08-27T18:30:26Z</time>
  <course>22.72</course>
  <speed>0.022360679774997897</speed>
  <fix>3d</fix>
</trkpt>
<trkpt lat="40.0728423" lon="-105.2305753">
  <ele>1586.09</ele>
  <time>2026-08-27T18:30:26Z</time>
  <course>256.34</course>
  <speed>0.0</speed>
  <fix>3d</fix>
</trkpt>
<trkpt lat="40.0728422" lon="-105.2305752">
  <ele>1586.15</ele>
  <time>2026-08-27T18:30:26Z</time>
  <course>22.72</course>
  <speed>0.022360679774997897</speed>
  <fix>3d</fix>
</trkpt>
<trkpt lat="40.0728423" lon="-105.2305753">
  <ele>1586.09</ele>
  <time>2026-08-27T18:30:26Z</time>
  <course>280.01</course>
  <speed>0.0</speed>
  <fix>3d</fix>
</trkpt>
<trkpt lat="40.0728422" lon="-105.2305752">
  <ele>1586.15</ele>
  <time>2026-08-27T18:30:26Z</time>
  <course>22.72</course>
  <speed>0.022360679774997897</speed>
  <fix>3d</fix>
</trkpt>
<trkpt lat="40.0728423" lon="-105.2305753">
  <ele>1586.09</ele>
  <time>2026-08-27T18:30:26Z</time>
  <course>302.37</course>
  <speed>0.0</speed>
  <fix>3d</fix>
</trkpt>
<trkpt lat="40.0728422" lon="-105.2305752">
  <ele>1586.15</ele>
  <time>2026-08-27T18:30:26Z</time>
  <course>22.73</course>
  <speed>0.022360679774997897</speed>
  <fix>3d</fix>
</trkpt>
<trkpt lat="40.0728423" lon="-105.2305753">
  <ele>1586.09</ele>
  <time>2026-08-27T18:30:26Z</time>
  <course>309.76</course>
  <speed>0.0</speed>
  <fix>3d</fix>
</trkpt>
<trkpt lat="40.0728422" lon="-105.2305752">
  <ele>1586.16</ele>
  <time>2026-08-27T18:30:26Z</time>
  <course>22.73</course>
  <speed>0.022360679774997897</speed>
  <fix>3d</fix>
</trkpt>
<trkpt lat="40.0728423" lon="-105.2305753">
  <ele>1586.09</ele>
  <time>2026-08-27T18:30:26Z</time>
  <course>285.72</course>
  <speed>0.0</speed>
  <fix>3d</fix>
</trkpt>
<trkpt lat="40.0728422" lon="-105.2305752">
  <ele>1586.16</ele>
  <time>2026-08-27T18:30:26Z</time>
  <course>22.73</course>
  <speed>0.022360679774997897</speed>
  <fix>3d</fix>
</trkpt>
<trkpt lat="40.0728423" lon="-105.2305753">
  <ele>1586.09</ele>
  <time>2026-08-27T18:30:26Z</time>
  <course>272.08</course>
  <speed>0.0</speed>
  <fix>3d</fix>
</trkpt>
<trkpt lat="40.0728422" lon="-105.2305752">
  <ele>1586.16</ele>
  <time>2026-08-27T18:30:26Z</time>
  <course>22.72</course>
  <speed>0.022360679774997897</speed>
  <fix>3d</fix>
</trkpt>
<trkpt lat="40.0728423" lon="-105.2305753">
  <ele>1586.09</ele>
  <time>2026-08-27T18:30:26Z</time>
  <course>359.4</course>
  <speed>0.0</speed>
  <fix>3d</fix>
</trkpt>
<trkpt lat="40.0728422" lon="-105.2305752">
  <ele>1586.16</ele>
  <time>2026-08-27T18:30:26Z</time>
  <course>22.72</course>
  <speed>0.022360679774997897</speed>
  <fix>3d</fix>
</trkpt>
<trkpt lat="40.0728423" lon="-105.2305753">
  <ele>1586.09</ele>
  <time>2026-08-27T18:30:26Z</time>
  <course>340.16</course>
  <speed>0.0</speed>
  <fix>3d</fix>
</trkpt>
<trkpt lat="40.0728422" lon="-105.2305752">
  <ele>1586.16</ele>
  <time>2026-08-27T18:30:26Z</time>
  <course>22.71</course>
  <speed>0.022360679774997897</speed>
  <fix>3d</fix>
</trkpt>
<trkpt lat="40.0728423" lon="-105.2305753">
  <ele>1586.09</ele>
  <time>2026-08-27T18:30:26Z</time>
  <course>297.0</course>
  <speed>0.0</speed>
  <fix>3d</fix>
</trkpt>
<trkpt lat="40.0728422" lon="-105.2305752">
  <ele>1586.16</ele>
  <time>2026-08-27T18:30:26Z</time>
  <course>22.7</course>
  <speed>0.022360679774997897</speed>
  <fix>3d</fix>
</trkpt>
<trkpt lat="40.0728423" lon="-105.2305753">
  <ele>1586.09</ele>
  <time>2026-08-27T18:30:26Z</time>
  <course>253.39</course>
  <speed>0.0</speed>
  <fix>3d</fix>
</trkpt>
<trkpt lat="40.0728422" lon="-105.2305752">
  <ele>1586.16</ele>
  <time>2026-08-27T18:30:26Z</time>
  <course>22.69</course>
  <speed>0.022360679774997897</speed>
  <fix>3d</fix>
</trkpt>
<trkpt lat="40.0728423" lon="-105.2305753">
  <ele>1586.09</ele>
  <time>2026-08-27T18:30:26Z</time>
  <course>308.23</course>
  <speed>0.0</speed>
  <fix>3d</fix>
</trkpt>
<trkpt lat="40.0728422" lon="-105.2305752">
  <ele>1586.16</ele>
  <time>2026-08-27T18:30:26Z</time>
  <course>22.67</course>
  <speed>0.022360679774997897</speed>
  <fix>3d</fix>
</trkpt>
<trkpt lat="40.0728423" lon="-105.2305753">
  <ele>1586.09</ele>
  <time>2026-08-27T18:30:26Z</time>
  <course>284.84</course>
  <speed>0.0</speed>
  <fix>3d</fix>
</trkpt>
<trkpt lat="40.0728422" lon="-105.2305752">
  <ele>1586.16</ele>
  <time>2026-08-27T18:30:26Z</time>
  <course>22.66</course>
  <speed>0.022360679774997897</speed>
  <fix>3d</fix>
</trkpt>
<trkpt lat="40.0728423" lon="-105.2305753">
  <ele>1586.09</ele>
  <time>2026-08-27T18:30:26Z</time>
  <course>275.64</course>
  <speed>0.0</speed>
  <fix>3d</fix>
</trkpt>
<trkpt lat="40.0728422" lon="-105.2305752">
  <ele>1586.16</ele>
  <time>2026-08-27T18:30:26Z</time>
  <course>22.64</course>
  <speed>0.022360679774997897</speed>
  <fix>3d</fix>
</trkpt>
<trkpt lat="40.0728423" lon="-105.2305753">
  <ele>1586.09</ele>
  <time>2026-08-27T18:30:26Z</time>
  <course>291.79</course>
  <speed>0.0</speed>
  <fix>3d</fix>
</trkpt>
<trkpt lat="40.0728422" lon="-105.2305752">
  <ele>1586.16</ele>
  <time>2026-08-27T18:30:26Z</time>
  <course>22.62</course>
  <speed>0.022360679774997897</speed>
  <fix>3d</fix>
</trkpt>
<trkpt lat="40.0728423" lon="-105.2305753">
  <ele>1586.09</ele>
  <time>2026-08-27T18:30:26Z</time>
  <course>307.41</course>
  <speed>0.0</speed>
  <fix>3d</fix>
</trkpt>
<trkpt lat="40.0728422" lon="-105.2305752">
  <ele>1586.16</ele>
  <time>2026-08-27T18:30:26Z</time>
  <course>22.61</course>
  <speed>0.022360679774997897</speed>
  <fix>3d</fix>
</trkpt>
<trkpt lat="40.0728423" lon="-105.2305753">
  <ele>1586.09</ele>
  <time>2026-08-27T18:30:26Z</time>
  <course>335.61</course>
  <speed>0.0</speed>
  <fix>3d</fix>
</trkpt>
<trkpt lat="40.0728422" lon="-105.2305752">
  <ele>1586.16</ele>
  <time>2026-08-27T18:30:26Z</time>
  <course>22.59</course>
  <speed>0.022360679774997897</speed>
  <fix>3d</fix>
</trkpt>
<trkpt lat="40.0728423" lon="-105.2305753">
  <ele>1586.09</ele>
  <time>2026-08-27T18:30:26Z</time>
  <course>330.17</course>
  <speed>0.0</speed>
  <fix>3d</fix>
</trkpt>
<trkpt lat="40.0728422" lon="-105.2305752">
  <ele>1586.16</ele>
  <time>2026-08-27T18:30:26Z</time>
  <course>22.57</course>
  <speed>0.022360679774997897</speed>
  <fix>3d</fix>
</trkpt>
<trkpt lat="40.0728423" lon="-105.2305753">
  <ele>1586.09</ele>
  <time>2026-08-27T18:30:26Z</time>
  <course>277.87</course>
  <speed>0.0</speed>
  <fix>3d</fix>
</trkpt>
<trkpt lat="40.0728422" lon="-105.2305752">
  <ele>1586.16</ele>
  <time>2026-08-27T18:30:26Z</time>
  <course>22.55</course>
  <speed>0.022360679774997897</speed>
  <fix>3d</fix>
</trkpt>
<trkpt lat="40.0728423" lon="-105.2305753">
  <ele>1586.09</ele>
  <time>2026-08-27T18:30:26Z</time>
  <course>287.06</course>
  <speed>0.0</speed>
  <fix>3d</fix>
</trkpt>
<trkpt lat="40.0728422" lon="-105.2305752">
  <ele>1586.16</ele>
  <time>2026-08-27T18:30:26Z</time>
  <course>22.53</course>
  <speed>0.022360679774997897</speed>
  <fix>3d</fix>
</trkpt>
<trkpt lat="40.0728423" lon="-105.2305753">
  <ele>1586.09</ele>
  <time>2026-08-27T18:30:26Z</time>
  <course>285.87</course>
  <speed>0.0</speed>
  <fix>3d</fix>
</trkpt>
<trkpt lat="40.0728422" lon="-105.2305752">
  <ele>1586.16</ele>
  <time>2026-08-27T18:30:26Z</time>
  <course>22.51</course>
  <speed>0.022360679774997897</speed>
  <fix>3d</fix>
</trkpt>
<trkpt lat="40.0728423" lon="-105.2305753">
  <ele>1586.09</ele>
  <time>2026-08-27T18:30:26Z</time>
  <course>277.3</course>
  <speed>0.0</speed>
  <fix>3d</fix>
</trkpt>
<trkpt lat="40.0728422" lon="-105.2305752">
  <ele>1586.16</ele>
  <time>2026-08-27T18:30:26Z</time>
  <course>22.49</course>
  <speed>0.022360679774997897</speed>
  <fix>3d</fix>
</trkpt>
<trkpt lat="40.0728423" lon="-105.2305753">
  <ele>1586.09</ele>
  <time>2026-08-27T18:30:26Z</time>
  <course>311.95</course>
  <speed>0.0</speed>
  <fix>3d</fix>
</trkpt>
<trkpt lat="40.0728422" lon="-105.2305752">
  <ele>1586.16</ele>
  <time>2026-08-27T18:30:26Z</time>
  <course>22.47</course>
  <speed>0.022360679774997897</speed>
  <fix>3d</fix>
</trkpt>
<trkpt lat="40.0728423" lon="-105.2305753">
  <ele>1586.09</ele>
  <time>2026-08-27T18:30:26Z</time>
  <course>298.5</course>
  <speed>0.0</speed>
  <fix>3d</fix>
</trkpt>
<trkpt lat="40.0728422" lon="-105.2305752">
  <ele>1586.16</ele>
  <time>2026-08-27T18:30:26Z</time>
  <course>22.45</course>
  <speed>0.022360679774997897</speed>
  <fix>3d</fix>
</trkpt>
<trkpt lat="40.0728423" lon="-105.2305753">
  <ele>1586.09</ele>
  <time>2026-08-27T18:30:26Z</time>
  <course>296.16</course>
  <speed>0.0</speed>
  <fix>3d</fix>
</trkpt>
<trkpt lat="40.0728422" lon="-105.2305752">
  <ele>1586.16</ele>
  <time>2026-08-27T18:30:26Z</time>
  <course>22.43</course>
  <speed>0.022360679774997897</speed>
  <fix>3d</fix>
</trkpt>
<trkpt lat="40.0728423" lon="-105.2305753">
  <ele>1586.09</ele>
  <time>2026-08-27T18:30:26Z</time>
  <course>338.69</course>
  <speed>0.0</speed>
  <fix>3d</fix>
</trkpt>
<trkpt lat="40.0728422" lon="-105.2305752">
  <ele>1586.16</ele>
  <time>2026-08-27T18:30:26Z</time>
  <course>22.41</course>
  <speed>0.022360679774997897</speed>
  <fix>3d</fix>
</trkpt>
<trkpt lat="40.0728423" lon="-105.2305753">
  <ele>1586.09</ele>
  <time>2026-08-27T18:30:26Z</time>
  <course>331.2</course>
  <speed>0.0</speed>
  <fix>3d</fix>
</trkpt>
<trkpt lat="40.0728422" lon="-105.2305752">
  <ele>1586.16</ele>
  <time>2026-08-27T18:30:26Z</time>
  <course>22.39</course>
  <speed>0.022360679774997897</speed>
  <fix>3d</fix>
</trkpt>
<trkpt lat="40.0728423" lon="-105.2305753">
  <ele>1586.09</ele>
  <time>2026-08-27T18:30:26Z</time>
  <course>281.98</course>
  <speed>0.0</speed>
  <fix>3d</fix>
</trkpt>
<trkpt lat="40.0728422" lon="-105.2305752">
  <ele>1586.16</ele>
  <time>2026-08-27T18:30:26Z</time>
  <course>22.37</course>
  <speed>0.022360679774997897</speed>
  <fix>3d</fix>
</trkpt>
<trkpt lat="40.0728423" lon="-105.2305753">
  <ele>1586.09</ele>
  <time>2026-08-27T18:30:26Z</time>
  <course>268.05</course>
  <speed>0.0</speed>
  <fix>3d</fix>
</trkpt>
<trkpt lat="40.0728422" lon="-105.2305752">
  <ele>1586.16</ele>
  <time>2026-08-27T18:30:26Z</time>
  <course>22.35</course>
  <speed>0.022360679774997897</speed>
  <fix>3d</fix>
</trkpt>
<trkpt lat="40.0728423" lon="-105.2305753">
  <ele>1586.09</ele>
  <time>2026-08-27T18:30:26Z</time>
  <course>309.13</course>
  <speed>0.0</speed>
  <fix>3d</fix>
</trkpt>
<trkpt lat="40.0728422" lon="-105.2305752">
  <ele>1586.16</ele>
  <time>2026-08-27T18:30:26Z</time>
  <course>22.33</course>
  <speed>0.022360679774997897</speed>
  <fix>3d</fix>
</trkpt>
<trkpt lat="40.0728423" lon="-105.2305753">
  <ele>1586.09</ele>
  <time>2026-08-27T18:30:26Z</time>
  <course>307.01</course>
  <speed>0.0</speed>
  <fix>3d</fix>
</trkpt>
<trkpt lat="40.0728422" lon="-105.2305752">
  <ele>1586.16</ele>
  <time>2026-08-27T18:30:26Z</time>
  <course>22.31</course>
  <speed>0.02</speed>
  <fix>3d</fix>
</trkpt>
<trkpt lat="40.0728423" lon="-105.2305753">
  <ele>1586.09</ele>
  <time>2026-08-27T18:30:26Z</time>
  <course>296.74</course>
  <speed>0.0</speed>
  <fix>3d</fix>
</trkpt>
<trkpt lat="40.0728422" lon="-105.2305752">
  <ele>1586.16</ele>
  <time>2026-08-27T18:30:26Z</time>
  <course>22.28</course>
  <speed>0.02</speed>
  <fix>3d</fix>
</trkpt>
<trkpt lat="40.0728423" lon="-105.2305753">
  <ele>1586.09</ele>
  <time>2026-08-27T18:30:26Z</time>
  <course>297.38</course>
  <speed>0.0</speed>
  <fix>3d</fix>
</trkpt>
<trkpt lat="40.0728422" lon="-105.2305752">
  <ele>1586.16</ele>
  <time>2026-08-27T18:30:26Z</time>
  <course>22.26</course>
  <speed>0.02</speed>
  <fix>3d</fix>
</trkpt>
<trkpt lat="40.0728423" lon="-105.2305753">
  <ele>1586.09</ele>
  <time>2026-08-27T18:30:26Z</time>
  <course>274.42</course>
  <speed>0.0</speed>
  <fix>3d</fix>
</trkpt>
<trkpt lat="40.0728422" lon="-105.2305752">
  <ele>1586.16</ele>
  <time>2026-08-27T18:30:26Z</time>
  <course>22.24</course>
  <speed>0.02</speed>
  <fix>3d</fix>
</trkpt>
<trkpt lat="40.0728423" lon="-105.2305753">
  <ele>1586.09</ele>
  <time>2026-08-27T18:30:26Z</time>
  <course>257.26</course>
  <speed>0.0</speed>
  <fix>3d</fix>
</trkpt>
<trkpt lat="40.0728422" lon="-105.2305752">
  <ele>1586.16</ele>
  <time>2026-08-27T18:30:26Z</time>
  <course>22.21</course>
  <speed>0.02</speed>
  <fix>3d</fix>
</trkpt>
<trkpt lat="40.0728423" lon="-105.2305753">
  <ele>1586.09</ele>
  <time>2026-08-27T18:30:26Z</time>
  <course>293.66</course>
  <speed>0.0</speed>
  <fix>3d</fix>
</trkpt>
<trkpt lat="40.0728422" lon="-105.2305752">
  <ele>1586.16</ele>
  <time>2026-08-27T18:30:26Z</time>
  <course>22.19</course>
  <speed>0.02</speed>
  <fix>3d</fix>
</trkpt>
<trkpt lat="40.0728423" lon="-105.2305753">
  <ele>1586.09</ele>
  <time>2026-08-27T18:30:26Z</time>
  <course>309.5</course>
  <speed>0.0</speed>
  <fix>3d</fix>
</trkpt>
<trkpt lat="40.0728422" lon="-105.2305752">
  <ele>1586.16</ele>
  <time>2026-08-27T18:30:26Z</time>
  <course>22.17</course>
  <speed>0.02</speed>
  <fix>3d</fix>
</trkpt>
<trkpt lat="40.0728423" lon="-105.2305753">
  <ele>1586.09</ele>
  <time>2026-08-27T18:30:26Z</time>
  <course>268.28</course>
  <speed>0.0</speed>
  <fix>3d</fix>
</trkpt>
<trkpt lat="40.0728422" lon="-105.2305752">
  <ele>1586.16</ele>
  <time>2026-08-27T18:30:26Z</time>
  <course>22.14</course>
  <speed>0.02</speed>
  <fix>3d</fix>
</trkpt>
<trkpt lat="40.0728423" lon="-105.2305753">
  <ele>1586.09</ele>
  <time>2026-08-27T18:30:26Z</time>
  <course>290.47</course>
  <speed>0.0</speed>
  <fix>3d</fix>
</trkpt>
<trkpt lat="40.0728422" lon="-105.2305752">
  <ele>1586.16</ele>
  <time>2026-08-27T18:30:26Z</time>
  <course>22.12</course>
  <speed>0.02</speed>
  <fix>3d</fix>
</trkpt>
<trkpt lat="40.0728423" lon="-105.2305753">
  <ele>1586.09</ele>
  <time>2026-08-27T18:30:26Z</time>
  <course>297.55</course>
  <speed>0.0</speed>
  <fix>3d</fix>
</trkpt>
<trkpt lat="40.0728422" lon="-105.2305752">
  <ele>1586.16</ele>
  <time>2026-08-27T18:30:26Z</time>
  <course>22.1</course>
  <speed>0.02</speed>
  <fix>3d</fix>
</trkpt>
<trkpt lat="40.0728423" lon="-105.2305753">
  <ele>1586.09</ele>
  <time>2026-08-27T18:30:26Z</time>
  <course>295.59</course>
  <speed>0.0</speed>
  <fix>3d</fix>
</trkpt>
<trkpt lat="40.0728422" lon="-105.2305752">
  <ele>1586.16</ele>
  <time>2026-08-27T18:30:26Z</time>
  <course>22.07</course>
  <speed>0.02</speed>
  <fix>3d</fix>
</trkpt>
<trkpt lat="40.0728423" lon="-105.2305753">
  <ele>1586.09</ele>
  <time>2026-08-27T18:30:26Z</time>
  <course>294.94</course>
  <speed>0.0</speed>
  <fix>3d</fix>
</trkpt>
<trkpt lat="40.0728422" lon="-105.2305752">
  <ele>1586.17</ele>
  <time>2026-08-27T18:30:26Z</time>
  <course>22.05</course>
  <speed>0.02</speed>
  <fix>3d</fix>
</trkpt>
<trkpt lat="40.0728423" lon="-105.2305753">
  <ele>1586.09</ele>
  <time>2026-08-27T18:30:26Z</time>
  <course>302.25</course>
  <speed>0.0</speed>
  <fix>3d</fix>
</trkpt>
<trkpt lat="40.0728422" lon="-105.2305752">
  <ele>1586.17</ele>
  <time>2026-08-27T18:30:26Z</time>
  <course>22.02</course>
  <speed>0.02</speed>
  <fix>3d</fix>
</trkpt>
<trkpt lat="40.0728423" lon="-105.2305753">
  <ele>1586.09</ele>
  <time>2026-08-27T18:30:26Z</time>
  <course>284.6</course>
  <speed>0.0</speed>
  <fix>3d</fix>
</trkpt>
<trkpt lat="40.0728422" lon="-105.2305752">
  <ele>1586.18</ele>
  <time>2026-08-27T18:30:26Z</time>
  <course>21.99</course>
  <speed>0.02</speed>
  <fix>3d</fix>
</trkpt>
<trkpt lat="40.0728423" lon="-105.2305753">
  <ele>1586.09</ele>
  <time>2026-08-27T18:30:26Z</time>
  <course>278.16</course>
  <speed>0.0</speed>
  <fix>3d</fix>
</trkpt>
<trkpt lat="40.0728422" lon="-105.2305752">
  <ele>1586.18</ele>
  <time>2026-08-27T18:30:26Z</time>
  <course>21.97</course>
  <speed>0.02</speed>
  <fix>3d</fix>
</trkpt>
<trkpt lat="40.0728423" lon="-105.2305753">
  <ele>1586.09</ele>
  <time>2026-08-27T18:30:26Z</time>
  <course>326.1</course>
  <speed>0.0</speed>
  <fix>3d</fix>
</trkpt>
<trkpt lat="40.0728422" lon="-105.2305752">
  <ele>1586.18</ele>
  <time>2026-08-27T18:30:26Z</time>
  <course>21.94</course>
  <speed>0.02</speed>
  <fix>3d</fix>
</trkpt>
<trkpt lat="40.0728423" lon="-105.2305753">
  <ele>1586.09</ele>
  <time>2026-08-27T18:30:26Z</time>
  <course>316.7</course>
  <speed>0.0</speed>
  <fix>3d</fix>
</trkpt>
<trkpt lat="40.0728422" lon="-105.2305752">
  <ele>1586.18</ele>
  <time>2026-08-27T18:30:26Z</time>
  <course>21.92</course>
  <speed>0.02</speed>
  <fix>3d</fix>
</trkpt>
<trkpt lat="40.0728423" lon="-105.2305753">
  <ele>1586.09</ele>
  <time>2026-08-27T18:30:26Z</time>
  <course>272.78</course>
  <speed>0.0</speed>
  <fix>3d</fix>
</trkpt>
<trkpt lat="40.0728422" lon="-105.2305752">
  <ele>1586.18</ele>
  <time>2026-08-27T18:30:26Z</time>
  <course>21.89</course>
  <speed>0.02</speed>
  <fix>3d</fix>
</trkpt>
<trkpt lat="40.0728423" lon="-105.2305753">
  <ele>1586.09</ele>
  <time>2026-08-27T18:30:26Z</time>
  <course>291.92</course>
  <speed>0.0</speed>
  <fix>3d</fix>
</trkpt>
<trkpt lat="40.0728422" lon="-105.2305752">
  <ele>1586.18</ele>
  <time>2026-08-27T18:30:26Z</time>
  <course>21.86</course>
  <speed>0.02</speed>
  <fix>3d</fix>
</trkpt>
<trkpt lat="40.0728423" lon="-105.2305753">
  <ele>1586.09</ele>
  <time>2026-08-27T18:30:26Z</time>
  <course>299.07</course>
  <speed>0.0</speed>
  <fix>3d</fix>
</trkpt>
<trkpt lat="40.0728422" lon="-105.2305752">
  <ele>1586.18</ele>
  <time>2026-08-27T18:30:26Z</time>
  <course>21.84</course>
  <speed>0.02</speed>
  <fix>3d</fix>
</trkpt>
<trkpt lat="40.0728423" lon="-105.2305753">
  <ele>1586.09</ele>
  <time>2026-08-27T18:30:26Z</time>
  <course>295.94</course>
  <speed>0.0</speed>
  <fix>3d</fix>
</trkpt>
<trkpt lat="40.0728422" lon="-105.2305752">
  <ele>1586.18</ele>
  <time>2026-08-27T18:30:26Z</time>
  <course>21.81</course>
  <speed>0.02</speed>
  <fix>3d</fix>
</trkpt>
<trkpt lat="40.0728423" lon="-105.2305753">
  <ele>1586.09</ele>
  <time>2026-08-27T18:30:26Z</time>
  <course>283.66</course>
  <speed>0.0</speed>
  <fix>3d</fix>
</trkpt>
<trkpt lat="40.0728422" lon="-105.2305752">
  <ele>1586.18</ele>
  <time>2026-08-27T18:30:26Z</time>
  <course>21.78</course>
  <speed>0.02</speed>
  <fix>3d</fix>
</trkpt>
<trkpt lat="40.0728423" lon="-105.2305753">
  <ele>1586.09</ele>
  <time>2026-08-27T18:30:26Z</time>
  <course>279.36</course>
  <speed>0.0</speed>
  <fix>3d</fix>
</trkpt>
<trkpt lat="40.0728422" lon="-105.2305752">
  <ele>1586.18</ele>
  <time>2026-08-27T18:30:26Z</time>
  <course>21.76</course>
  <speed>0.02</speed>
  <fix>3d</fix>
</trkpt>
<trkpt lat="40.0728423" lon="-105.2305753">
  <ele>1586.09</ele>
  <time>2026-08-27T18:30:26Z</time>
  <course>288.8</course>
  <speed>0.0</speed>
  <fix>3d</fix>
</trkpt>
<trkpt lat="40.0728422" lon="-105.2305752">
  <ele>1586.18</ele>
  <time>2026-08-27T18:30:26Z</time>
  <course>21.73</course>
  <speed>0.02</speed>
  <fix>3d</fix>
</trkpt>
<trkpt lat="40.0728423" lon="-105.2305753">
  <ele>1586.09</ele>
  <time>2026-08-27T18:30:26Z</time>
  <course>301.68</course>
  <speed>0.0</speed>
  <fix>3d</fix>
</trkpt>
<trkpt lat="40.0728422" lon="-105.2305752">
  <ele>1586.18</ele>
  <time>2026-08-27T18:30:26Z</time>
  <course>21.7</course>
  <speed>0.02</speed>
  <fix>3d</fix>
</trkpt>
<trkpt lat="40.0728423" lon="-105.2305753">
  <ele>1586.09</ele>
  <time>2026-08-27T18:30:26Z</time>
  <course>320.4</course>
  <speed>0.0</speed>
  <fix>3d</fix>
</trkpt>
<trkpt lat="40.0728422" lon="-105.2305752">
  <ele>1586.18</ele>
  <time>2026-08-27T18:30:26Z</time>
  <course>21.67</course>
  <speed>0.02</speed>
  <fix>3d</fix>
</trkpt>
<trkpt lat="40.0728423" lon="-105.2305753">
  <ele>1586.09</ele>
  <time>2026-08-27T18:30:26Z</time>
  <course>315.67</course>
  <speed>0.0</speed>
  <fix>3d</fix>
</trkpt>
<trkpt lat="40.0728422" lon="-105.2305752">
  <ele>1586.18</ele>
  <time>2026-08-27T18:30:26Z</time>
  <course>21.64</course>
  <speed>0.02</speed>
  <fix>3d</fix>
</trkpt>
<trkpt lat="40.0728423" lon="-105.2305753">
  <ele>1586.09</ele>
  <time>2026-08-27T18:30:26Z</time>
  <course>275.71</course>
  <speed>0.0</speed>
  <fix>3d</fix>
</trkpt>
<trkpt lat="40.0728422" lon="-105.2305752">
  <ele>1586.18</ele>
  <time>2026-08-27T18:30:26Z</time>
  <course>21.61</course>
  <speed>0.02</speed>
  <fix>3d</fix>
</trkpt>
<trkpt lat="40.0728423" lon="-105.2305753">
  <ele>1586.09</ele>
  <time>2026-08-27T18:30:26Z</time>
  <course>292.04</course>
  <speed>0.0</speed>
  <fix>3d</fix>
</trkpt>
<trkpt lat="40.0728422" lon="-105.2305752">
  <ele>1586.18</ele>
  <time>2026-08-27T18:30:26Z</time>
  <course>21.58</course>
  <speed>0.02</speed>
  <fix>3d</fix>
</trkpt>
<trkpt lat="40.0728423" lon="-105.2305753">
  <ele>1586.09</ele>
  <time>2026-08-27T18:30:26Z</time>
  <course>295.68</course>
  <speed>0.0</speed>
  <fix>3d</fix>
</trkpt>
<trkpt lat="40.0728422" lon="-105.2305752">
  <ele>1586.18</ele>
  <time>2026-08-27T18:30:26Z</time>
  <course>21.55</course>
  <speed>0.02</speed>
  <fix>3d</fix>
</trkpt>
<trkpt lat="40.0728423" lon="-105.2305753">
  <ele>1586.09</ele>
  <time>2026-08-27T18:30:26Z</time>
  <course>286.72</course>
  <speed>0.0</speed>
  <fix>3d</fix>
</trkpt>
<trkpt lat="40.0728422" lon="-105.2305752">
  <ele>1586.18</ele>
  <time>2026-08-27T18:30:26Z</time>
  <course>21.52</course>
  <speed>0.02</speed>
  <fix>3d</fix>
</trkpt>
<trkpt lat="40.0728423" lon="-105.2305753">
  <ele>1586.09</ele>
  <time>2026-08-27T18:30:26Z</time>
  <course>277.6</course>
  <speed>0.0</speed>
  <fix>3d</fix>
</trkpt>
<trkpt lat="40.0728422" lon="-105.2305752">
  <ele>1586.17</ele>
  <time>2026-08-27T18:30:26Z</time>
  <course>21.49</course>
  <speed>0.02</speed>
  <fix>3d</fix>
</trkpt>
<trkpt lat="40.0728423" lon="-105.2305753">
  <ele>1586.09</ele>
  <time>2026-08-27T18:30:26Z</time>
  <course>303.8</course>
  <speed>0.0</speed>
  <fix>3d</fix>
</trkpt>
<trkpt lat="40.0728422" lon="-105.2305752">
  <ele>1586.17</ele>
  <time>2026-08-27T18:30:26Z</time>
  <course>21.46</course>
  <speed>0.02</speed>
  <fix>3d</fix>
</trkpt>
<trkpt lat="40.0728423" lon="-105.2305753">
  <ele>1586.09</ele>
  <time>2026-08-27T18:30:26Z</time>
  <course>296.5</course>
  <speed>0.0</speed>
  <fix>3d</fix>
</trkpt>
<trkpt lat="40.0728422" lon="-105.2305752">
  <ele>1586.17</ele>
  <time>2026-08-27T18:30:26Z</time>
  <course>21.43</course>
  <speed>0.02</speed>
  <fix>3d</fix>
</trkpt>
<trkpt lat="40.0728423" lon="-105.2305753">
  <ele>1586.09</ele>
  <time>2026-08-27T18:30:26Z</time>
  <course>293.85</course>
  <speed>0.0</speed>
  <fix>3d</fix>
</trkpt>
<trkpt lat="40.0728422" lon="-105.2305752">
  <ele>1586.17</ele>
  <time>2026-08-27T18:30:26Z</time>
  <course>21.4</course>
  <speed>0.02</speed>
  <fix>3d</fix>
</trkpt>
<trkpt lat="40.0728423" lon="-105.2305753">
  <ele>1586.09</ele>
  <time>2026-08-27T18:30:26Z</time>
  <course>327.19</course>
  <speed>0.0</speed>
  <fix>3d</fix>
</trkpt>
<trkpt lat="40.0728422" lon="-105.2305752">
  <ele>1586.18</ele>
  <time>2026-08-27T18:30:26Z</time>
  <course>21.37</course>
  <speed>0.02</speed>
  <fix>3d</fix>
</trkpt>
<trkpt lat="40.0728423" lon="-105.2305753">
  <ele>1586.09</ele>
  <time>2026-08-27T18:30:26Z</time>
  <course>322.24</course>
  <speed>0.0</speed>
  <fix>3d</fix>
</trkpt>
<trkpt lat="40.0728422" lon="-105.2305752">
  <ele>1586.18</ele>
  <time>2026-08-27T18:30:26Z</time>
  <course>21.34</course>
  <speed>0.02</speed>
  <fix>3d</fix>
</trkpt>
<trkpt lat="40.0728423" lon="-105.2305753">
  <ele>1586.09</ele>
  <time>2026-08-27T18:30:26Z</time>
  <course>291.37</course>
  <speed>0.0</speed>
  <fix>3d</fix>
</trkpt>
<trkpt lat="40.0728422" lon="-105.2305752">
  <ele>1586.18</ele>
  <time>2026-08-27T18:30:26Z</time>
  <course>21.31</course>
  <speed>0.02</speed>
  <fix>3d</fix>
</trkpt>
<trkpt lat="40.0728423" lon="-105.2305753">
  <ele>1586.09</ele>
  <time>2026-08-27T18:30:26Z</time>
  <course>281.63</course>
  <speed>0.0</speed>
  <fix>3d</fix>
</trkpt>
<trkpt lat="40.0728422" lon="-105.2305752">
  <ele>1586.18</ele>
  <time>2026-08-27T18:30:26Z</time>
  <course>21.27</course>
  <speed>0.02</speed>
  <fix>3d</fix>
</trkpt>
<trkpt lat="40.0728423" lon="-105.2305753">
  <ele>1586.09</ele>
  <time>2026-08-27T18:30:26Z</time>
  <course>279.02</course>
  <speed>0.0</speed>
  <fix>3d</fix>
</trkpt>
<trkpt lat="40.0728422" lon="-105.2305752">
  <ele>1586.18</ele>
  <time>2026-08-27T18:30:26Z</time>
  <course>21.24</course>
  <speed>0.02</speed>
  <fix>3d</fix>
</trkpt>
<trkpt lat="40.0728423" lon="-105.2305753">
  <ele>1586.09</ele>
  <time>2026-08-27T18:30:26Z</time>
  <course>297.93</course>
  <speed>0.0</speed>
  <fix>3d</fix>
</trkpt>
<trkpt lat="40.0728422" lon="-105.2305752">
  <ele>1586.17</ele>
  <time>2026-08-27T18:30:26Z</time>
  <course>21.21</course>
  <speed>0.02</speed>
  <fix>3d</fix>
</trkpt>
<trkpt lat="40.0728423" lon="-105.2305753">
  <ele>1586.09</ele>
  <time>2026-08-27T18:30:26Z</time>
  <course>298.67</course>
  <speed>0.0</speed>
  <fix>3d</fix>
</trkpt>
<trkpt lat="40.0728422" lon="-105.2305752">
  <ele>1586.18</ele>
  <time>2026-08-27T18:30:26Z</time>
  <course>21.18</course>
  <speed>0.02</speed>
  <fix>3d</fix>
</trkpt>
<trkpt lat="40.0728423" lon="-105.2305753">
  <ele>1586.09</ele>
  <time>2026-08-27T18:30:26Z</time>
  <course>294.05</course>
  <speed>0.0</speed>
  <fix>3d</fix>
</trkpt>
<trkpt lat="40.0728422" lon="-105.2305752">
  <ele>1586.18</ele>
  <time>2026-08-27T18:30:26Z</time>
  <course>21.15</course>
  <speed>0.02</speed>
  <fix>3d</fix>
</trkpt>
<trkpt lat="40.0728423" lon="-105.2305753">
  <ele>1586.09</ele>
  <time>2026-08-27T18:30:26Z</time>
  <course>294.13</course>
  <speed>0.0</speed>
  <fix>3d</fix>
</trkpt>
<trkpt lat="40.0728422" lon="-105.2305752">
  <ele>1586.18</ele>
  <time>2026-08-27T18:30:26Z</time>
  <course>21.12</course>
  <speed>0.02</speed>
  <fix>3d</fix>
</trkpt>
<trkpt lat="40.0728423" lon="-105.2305753">
  <ele>1586.09</ele>
  <time>2026-08-27T18:30:26Z</time>
  <course>294.42</course>
  <speed>0.0</speed>
  <fix>3d</fix>
</trkpt>
<trkpt lat="40.0728422" lon="-105.2305752">
  <ele>1586.18</ele>
  <time>2026-08-27T18:30:26Z</time>
  <course>21.08</course>
  <speed>0.02</speed>
  <fix>3d</fix>
</trkpt>
<trkpt lat="40.0728423" lon="-105.2305753">
  <ele>1586.09</ele>
  <time>2026-08-27T18:30:26Z</time>
  <course>324.3</course>
  <speed>0.0</speed>
  <fix>3d</fix>
</trkpt>
<trkpt lat="40.0728422" lon="-105.2305752">
  <ele>1586.18</ele>
  <time>2026-08-27T18:30:26Z</time>
  <course>21.05</course>
  <speed>0.02</speed>
  <fix>3d</fix>
</trkpt>
<trkpt lat="40.0728423" lon="-105.2305753">
  <ele>1586.09</ele>
  <time>2026-08-27T18:30:26Z</time>
  <course>311.44</course>
  <speed>0.0</speed>
  <fix>3d</fix>
</trkpt>
<trkpt lat="40.0728422" lon="-105.2305752">
  <ele>1586.18</ele>
  <time>2026-08-27T18:30:26Z</time>
  <course>21.02</course>
  <speed>0.02</speed>
  <fix>3d</fix>
</trkpt>
<trkpt lat="40.0728423" lon="-105.2305753">
  <ele>1586.09</ele>
  <time>2026-08-27T18:30:26Z</time>
  <course>291.01</course>
  <speed>0.0</speed>
  <fix>3d</fix>
</trkpt>
<trkpt lat="40.0728422" lon="-105.2305752">
  <ele>1586.18</ele>
  <time>2026-08-27T18:30:26Z</time>
  <course>20.99</course>
  <speed>0.02</speed>
  <fix>3d</fix>
</trkpt>
<trkpt lat="40.0728423" lon="-105.2305753">
  <ele>1586.09</ele>
  <time>2026-08-27T18:30:26Z</time>
  <course>264.78</course>
  <speed>0.0</speed>
  <fix>3d</fix>
</trkpt>
<trkpt lat="40.0728422" lon="-105.2305752">
  <ele>1586.18</ele>
  <time>2026-08-27T18:30:26Z</time>
  <course>20.95</course>
  <speed>0.02</speed>
  <fix>3d</fix>
</trkpt>
<trkpt lat="40.0728423" lon="-105.2305753">
  <ele>1586.09</ele>
  <time>2026-08-27T18:30:26Z</time>
  <course>244.93</course>
  <speed>0.0</speed>
  <fix>3d</fix>
</trkpt>
<trkpt lat="40.0728422" lon="-105.2305752">
  <ele>1586.18</ele>
  <time>2026-08-27T18:30:26Z</time>
  <course>20.92</course>
  <speed>0.02</speed>
  <fix>3d</fix>
</trkpt>
<trkpt lat="40.0728423" lon="-105.2305753">
  <ele>1586.09</ele>
  <time>2026-08-27T18:30:26Z</time>
  <course>246.13</course>
  <speed>0.0</speed>
  <fix>3d</fix>
</trkpt>
<trkpt lat="40.0728422" lon="-105.2305752">
  <ele>1586.18</ele>
  <time>2026-08-27T18:30:26Z</time>
  <course>20.89</course>
  <speed>0.02</speed>
  <fix>3d</fix>
</trkpt>
<trkpt lat="40.0728423" lon="-105.2305753">
  <ele>1586.09</ele>
  <time>2026-08-27T18:30:26Z</time>
  <course>297.87</course>
  <speed>0.0</speed>
  <fix>3d</fix>
</trkpt>
<trkpt lat="40.0728422" lon="-105.2305752">
  <ele>1586.18</ele>
  <time>2026-08-27T18:30:26Z</time>
  <course>20.86</course>
  <speed>0.02</speed>
  <fix>3d</fix>
</trkpt>
<trkpt lat="40.0728423" lon="-105.2305753">
  <ele>1586.09</ele>
  <time>2026-08-27T18:30:26Z</time>
  <course>300.29</course>
  <speed>0.0</speed>
  <fix>3d</fix>
</trkpt>
<trkpt lat="40.0728422" lon="-105.2305752">
  <ele>1586.18</ele>
  <time>2026-08-27T18:30:26Z</time>
  <course>20.82</course>
  <speed>0.02</speed>
  <fix>3d</fix>
</trkpt>
<trkpt lat="40.0728423" lon="-105.2305753">
  <ele>1586.09</ele>
  <time>2026-08-27T18:30:26Z</time>
  <course>289.58</course>
  <speed>0.0</speed>
  <fix>3d</fix>
</trkpt>
<trkpt lat="40.0728422" lon="-105.2305752">
  <ele>1586.18</ele>
  <time>2026-08-27T18:30:26Z</time>
  <course>20.79</course>
  <speed>0.02</speed>
  <fix>3d</fix>
</trkpt>
<trkpt lat="40.0728423" lon="-105.2305753">
  <ele>1586.09</ele>
  <time>2026-08-27T18:30:26Z</time>
  <course>290.11</course>
  <speed>0.0</speed>
  <fix>3d</fix>
</trkpt>
<trkpt lat="40.0728422" lon="-105.2305752">
  <ele>1586.18</ele>
  <time>2026-08-27T18:30:26Z</time>
  <course>20.75</course>
  <speed>0.02</speed>
  <fix>3d</fix>
</trkpt>
<trkpt lat="40.0728423" lon="-105.2305753">
  <ele>1586.09</ele>
  <time>2026-08-27T18:30:26Z</time>
  <course>282.67</course>
  <speed>0.0</speed>
  <fix>3d</fix>
</trkpt>
<trkpt lat="40.0728422" lon="-105.2305752">
  <ele>1586.18</ele>
  <time>2026-08-27T18:30:26Z</time>
  <course>20.72</course>
  <speed>0.02</speed>
  <fix>3d</fix>
</trkpt>
<trkpt lat="40.0728423" lon="-105.2305753">
  <ele>1586.09</ele>
  <time>2026-08-27T18:30:26Z</time>
  <course>303.89</course>
  <speed>0.0</speed>
  <fix>3d</fix>
</trkpt>
<trkpt lat="40.0728422" lon="-105.2305752">
  <ele>1586.18</ele>
  <time>2026-08-27T18:30:26Z</time>
  <course>20.68</course>
  <speed>0.02</speed>
  <fix>3d</fix>
</trkpt>
<trkpt lat="40.0728423" lon="-105.2305753">
  <ele>1586.09</ele>
  <time>2026-08-27T18:30:26Z</time>
  <course>318.44</course>
  <speed>0.0</speed>
  <fix>3d</fix>
</trkpt>
<trkpt lat="40.0728422" lon="-105.2305752">
  <ele>1586.18</ele>
  <time>2026-08-27T18:30:26Z</time>
  <course>20.65</course>
  <speed>0.02</speed>
  <fix>3d</fix>
</trkpt>
<trkpt lat="40.0728423" lon="-105.2305753">
  <ele>1586.09</ele>
  <time>2026-08-27T18:30:26Z</time>
  <course>286.27</course>
  <speed>0.0</speed>
  <fix>3d</fix>
</trkpt>
<trkpt lat="40.0728422" lon="-105.2305752">
  <ele>1586.18</ele>
  <time>2026-08-27T18:30:26Z</time>
  <course>20.61</course>
  <speed>0.02</speed>
  <fix>3d</fix>
</trkpt>
<trkpt lat="40.0728423" lon="-105.2305753">
  <ele>1586.09</ele>
  <time>2026-08-27T18:30:26Z</time>
  <course>284.31</course>
  <speed>0.0</speed>
  <fix>3d</fix>
</trkpt>
<trkpt lat="40.0728422" lon="-105.2305752">
  <ele>1586.18</ele>
  <time>2026-08-27T18:30:26Z</time>
  <course>20.58</course>
  <speed>0.022360679774997897</speed>
  <fix>3d</fix>
</trkpt>
<trkpt lat="40.0728423" lon="-105.2305753">
  <ele>1586.09</ele>
  <time>2026-08-27T18:30:26Z</time>
  <course>292.26</course>
  <speed>0.0</speed>
  <fix>3d</fix>
</trkpt>
<trkpt lat="40.0728422" lon="-105.2305752">
  <ele>1586.18</ele>
  <time>2026-08-27T18:30:26Z</time>
  <course>20.55</course>
  <speed>0.02</speed>
  <fix>3d</fix>
</trkpt>
<trkpt lat="40.0728423" lon="-105.2305753">
  <ele>1586.09</ele>
  <time>2026-08-27T18:30:26Z</time>
  <course>291.42</course>
  <speed>0.0</speed>
  <fix>3d</fix>
</trkpt>
<trkpt lat="40.0728422" lon="-105.2305752">
  <ele>1586.18</ele>
  <time>2026-08-27T18:30:26Z</time>
  <course>20.51</course>
  <speed>0.022360679774997897</speed>
  <fix>3d</fix>
</trkpt>
<trkpt lat="40.0728423" lon="-105.2305753">
  <ele>1586.09</ele>
  <time>2026-08-27T18:30:26Z</time>
  <course>290.43</course>
  <speed>0.0</speed>
  <fix>3d</fix>
</trkpt>
<trkpt lat="40.0728422" lon="-105.2305752">
  <ele>1586.18</ele>
  <time>2026-08-27T18:30:26Z</time>
  <course>20.48</course>
  <speed>0.02</speed>
  <fix>3d</fix>
</trkpt>
<trkpt lat="40.0728423" lon="-105.2305753">
  <ele>1586.09</ele>
  <time>2026-08-27T18:30:26Z</time>
  <course>296.58</course>
  <speed>0.0</speed>
  <fix>3d</fix>
</trkpt>
<trkpt lat="40.0728422" lon="-105.2305752">
  <ele>1586.17</ele>
  <time>2026-08-27T18:30:26Z</time>
  <course>20.44</course>
  <speed>0.022360679774997897</speed>
  <fix>3d</fix>
</trkpt>
<trkpt lat="40.0728423" lon="-105.2305753">
  <ele>1586.09</ele>
  <time>2026-08-27T18:30:26Z</time>
  <course>285.47</course>
  <speed>0.0</speed>
  <fix>3d</fix>
</trkpt>
<trkpt lat="40.0728422" lon="-105.2305752">
  <ele>1586.17</ele>
  <time>2026-08-27T18:30:26Z</time>
  <course>20.4</course>
  <speed>0.022360679774997897</speed>
  <fix>3d</fix>
</trkpt>
<trkpt lat="40.0728423" lon="-105.2305753">
  <ele>1586.09</ele>
  <time>2026-08-27T18:30:26Z</time>
  <course>276.74</course>
  <speed>0.0</speed>
  <fix>3d</fix>
</trkpt>
<trkpt lat="40.0728422" lon="-105.2305752">
  <ele>1586.17</ele>
  <time>2026-08-27T18:30:26Z</time>
  <course>20.37</course>
  <speed>0.02</speed>
  <fix>3d</fix>
</trkpt>
<trkpt lat="40.0728423" lon="-105.2305753">
  <ele>1586.09</ele>
  <time>2026-08-27T18:30:26Z</time>
  <course>291.74</course>
  <speed>0.0</speed>
  <fix>3d</fix>
</trkpt>
<trkpt lat="40.0728422" lon="-105.2305752">
  <ele>1586.17</ele>
  <time>2026-08-27T18:30:26Z</time>
  <course>20.33</course>
  <speed>0.02</speed>
  <fix>3d</fix>
</trkpt>
<trkpt lat="40.0728423" lon="-105.2305753">
  <ele>1586.09</ele>
  <time>2026-08-27T18:30:26Z</time>
  <course>314.85</course>
  <speed>0.0</speed>
  <fix>3d</fix>
</trkpt>
<trkpt lat="40.0728422" lon="-105.2305752">
  <ele>1586.17</ele>
  <time>2026-08-27T18:30:26Z</time>
  <course>20.3</course>
  <speed>0.02</speed>
  <fix>3d</fix>
</trkpt>
<trkpt lat="40.0728423" lon="-105.2305753">
  <ele>1586.09</ele>
  <time>2026-08-27T18:30:26Z</time>
  <course>309.28</course>
  <speed>0.0</speed>
  <fix>3d</fix>
</trkpt>
<trkpt lat="40.0728422" lon="-105.2305752">
  <ele>1586.17</ele>
  <time>2026-08-27T18:30:26Z</time>
  <course>20.26</course>
  <speed>0.02</speed>
  <fix>3d</fix>
</trkpt>
<trkpt lat="40.0728423" lon="-105.2305753">
  <ele>1586.09</ele>
  <time>2026-08-27T18:30:26Z</time>
  <course>279.57</course>
  <speed>0.0</speed>
  <fix>3d</fix>
</trkpt>
<trkpt lat="40.0728422" lon="-105.2305752">
  <ele>1586.17</ele>
  <time>2026-08-27T18:30:26Z</time>
  <course>20.22</course>
  <speed>0.022360679774997897</speed>
  <fix>3d</fix>
</trkpt>
<trkpt lat="40.0728423" lon="-105.2305753">
  <ele>1586.09</ele>
  <time>2026-08-27T18:30:26Z</time>
  <course>287.25</course>
  <speed>0.0</speed>
  <fix>3d</fix>
</trkpt>
<trkpt lat="40.0728422" lon="-105.2305752">
  <ele>1586.17</ele>
  <time>2026-08-27T18:30:26Z</time>
  <course>20.19</course>
  <speed>0.022360679774997897</speed>
  <fix>3d</fix>
</trkpt>
<trkpt lat="40.0728423" lon="-105.2305753">
  <ele>1586.09</ele>
  <time>2026-08-27T18:30:26Z</time>
  <course>292.02</course>
  <speed>0.0</speed>
  <fix>3d</fix>
</trkpt>
<trkpt lat="40.0728422" lon="-105.2305752">
  <ele>1586.17</ele>
  <time>2026-08-27T18:30:26Z</time>
  <course>20.15</course>
  <speed>0.02</speed>
  <fix>3d</fix>
</trkpt>
<trkpt lat="40.0728423" lon="-105.2305753">
  <ele>1586.09</ele>
  <time>2026-08-27T18:30:26Z</time>
  <course>290.4</course>
  <speed>0.0</speed>
  <fix>3d</fix>
</trkpt>
<trkpt lat="40.0728422" lon="-105.2305752">
  <ele>1586.17</ele>
  <time>2026-08-27T18:30:26Z</time>
  <course>20.11</course>
  <speed>0.022360679774997897</speed>
  <fix>3d</fix>
</trkpt>
<trkpt lat="40.0728423" lon="-105.2305753">
  <ele>1586.09</ele>
  <time>2026-08-27T18:30:26Z</time>
  <course>284.05</course>
  <speed>0.0</speed>
  <fix>3d</fix>
</trkpt>
<trkpt lat="40.0728422" lon="-105.2305752">
  <ele>1586.17</ele>
  <time>2026-08-27T18:30:26Z</time>
  <course>20.07</course>
  <speed>0.022360679774997897</speed>
  <fix>3d</fix>
</trkpt>
<trkpt lat="40.0728423" lon="-105.2305753">
  <ele>1586.09</ele>
  <time>2026-08-27T18:30:26Z</time>
  <course>279.67</course>
  <speed>0.0</speed>
  <fix>3d</fix>
</trkpt>
<trkpt lat="40.0728422" lon="-105.2305752">
  <ele>1586.17</ele>
  <time>2026-08-27T18:30:26Z</time>
  <course>20.03</course>
  <speed>0.022360679774997897</speed>
  <fix>3d</fix>
</trkpt>
<trkpt lat="40.0728423" lon="-105.2305753">
  <ele>1586.09</ele>
  <time>2026-08-27T18:30:26Z</time>
  <course>292.16</course>
  <speed>0.0</speed>
  <fix>3d</fix>
</trkpt>
<trkpt lat="40.0728422" lon="-105.2305752">
  <ele>1586.17</ele>
  <time>2026-08-27T18:30:26Z</time>
  <course>20.0</course>
  <speed>0.022360679774997897</speed>
  <fix>3d</fix>
</trkpt>
<trkpt lat="40.0728423" lon="-105.2305753">
  <ele>1586.09</ele>
  <time>2026-08-27T18:30:26Z</time>
  <course>289.48</course>
  <speed>0.0</speed>
  <fix>3d</fix>
</trkpt>
<trkpt lat="40.0728422" lon="-105.2305752">
  <ele>1586.17</ele>
  <time>2026-08-27T18:30:27Z</time>
  <course>19.96</course>
  <speed>0.022360679774997897</speed>
  <fix>3d</fix>
</trkpt>
<trkpt lat="40.0728423" lon="-105.2305753">
  <ele>1586.09</ele>
  <time>2026-08-27T18:30:27Z</time>
  <course>306.19</course>
  <speed>0.0</speed>
  <fix>3d</fix>
</trkpt>
<trkpt lat="40.0728422" lon="-105.2305752">
  <ele>1586.17</ele>
  <time>2026-08-27T18:30:27Z</time>
  <course>19.92</course>
  <speed>0.022360679774997897</speed>
  <fix>3d</fix>
</trkpt>
<trkpt lat="40.0728423" lon="-105.2305753">
  <ele>1586.09</ele>
  <time>2026-08-27T18:30:27Z</time>
  <course>312.02</course>
  <speed>0.0</speed>
  <fix>3d</fix>
</trkpt>
<trkpt lat="40.0728422" lon="-105.2305752">
  <ele>1586.17</ele>
  <time>2026-08-27T18:30:27Z</time>
  <course>19.88</course>
  <speed>0.022360679774997897</speed>
  <fix>3d</fix>
</trkpt>
<trkpt lat="40.0728423" lon="-105.2305753">
  <ele>1586.09</ele>
  <time>2026-08-27T18:30:27Z</time>
  <course>296.76</course>
  <speed>0.0</speed>
  <fix>3d</fix>
</trkpt>
<trkpt lat="40.0728422" lon="-105.2305752">
  <ele>1586.16</ele>
  <time>2026-08-27T18:30:27Z</time>
  <course>19.84</course>
  <speed>0.022360679774997897</speed>
  <fix>3d</fix>
</trkpt>
<trkpt lat="40.0728423" lon="-105.2305753">
  <ele>1586.09</ele>
  <time>2026-08-27T18:30:27Z</time>
  <course>279.36</course>
  <speed>0.0</speed>
  <fix>3d</fix>
</trkpt>
<trkpt lat="40.0728422" lon="-105.2305752">
  <ele>1586.17</ele>
  <time>2026-08-27T18:30:27Z</time>
  <course>19.81</course>
  <speed>0.022360679774997897</speed>
  <fix>3d</fix>
</trkpt>
<trkpt lat="40.0728423" lon="-105.2305753">
  <ele>1586.09</ele>
  <time>2026-08-27T18:30:27Z</time>
  <course>285.59</course>
  <speed>0.0</speed>
  <fix>3d</fix>
</trkpt>
<trkpt lat="40.0728422" lon="-105.2305752">
  <ele>1586.17</ele>
  <time>2026-08-27T18:30:27Z</time>
  <course>19.77</course>
  <speed>0.022360679774997897</speed>
  <fix>3d</fix>
</trkpt>
<trkpt lat="40.0728423" lon="-105.2305753">
  <ele>1586.09</ele>
  <time>2026-08-27T18:30:27Z</time>
  <course>282.23</course>
  <speed>0.0</speed>
  <fix>3d</fix>
</trkpt>
<trkpt lat="40.0728422" lon="-105.2305752">
  <ele>1586.17</ele>
  <time>2026-08-27T18:30:27Z</time>
  <course>19.73</course>
  <speed>0.022360679774997897</speed>
  <fix>3d</fix>
</trkpt>
<trkpt lat="40.0728423" lon="-105.2305753">
  <ele>1586.09</ele>
  <time>2026-08-27T18:30:27Z</time>
  <course>282.53</course>
  <speed>0.0</speed>
  <fix>3d</fix>
</trkpt>
<trkpt lat="40.0728422" lon="-105.2305752">
  <ele>1586.17</ele>
  <time>2026-08-27T18:30:27Z</time>
  <course>19.7</course>
  <speed>0.022360679774997897</speed>
  <fix>3d</fix>
</trkpt>
<trkpt lat="40.0728423" lon="-105.2305753">
  <ele>1586.09</ele>
  <time>2026-08-27T18:30:27Z</time>
  <course>290.85</course>
  <speed>0.0</speed>
  <fix>3d</fix>
</trkpt>
<trkpt lat="40.0728422" lon="-105.2305752">
  <ele>1586.17</ele>
  <time>2026-08-27T18:30:27Z</time>
  <course>19.66</course>
  <speed>0.022360679774997897</speed>
  <fix>3d</fix>
</trkpt>
<trkpt lat="40.0728423" lon="-105.2305753">
  <ele>1586.09</ele>
  <time>2026-08-27T18:30:27Z</time>
  <course>288.25</course>
  <speed>0.0</speed>
  <fix>3d</fix>
</trkpt>
<trkpt lat="40.0728422" lon="-105.2305752">
  <ele>1586.17</ele>
  <time>2026-08-27T18:30:27Z</time>
  <course>19.62</course>
  <speed>0.022360679774997897</speed>
  <fix>3d</fix>
</trkpt>
<trkpt lat="40.0728423" lon="-105.2305753">
  <ele>1586.09</ele>
  <time>2026-08-27T18:30:27Z</time>
  <course>287.47</course>
  <speed>0.0</speed>
  <fix>3d</fix>
</trkpt>
<trkpt lat="40.0728422" lon="-105.2305752">
  <ele>1586.17</ele>
  <time>2026-08-27T18:30:27Z</time>
  <course>19.58</course>
  <speed>0.022360679774997897</speed>
  <fix>3d</fix>
</trkpt>
<trkpt lat="40.0728423" lon="-105.2305753">
  <ele>1586.09</ele>
  <time>2026-08-27T18:30:27Z</time>
  <course>287.89</course>
  <speed>0.0</speed>
  <fix>3d</fix>
</trkpt>
<trkpt lat="40.0728422" lon="-105.2305752">
  <ele>1586.17</ele>
  <time>2026-08-27T18:30:27Z</time>
  <course>19.54</course>
  <speed>0.022360679774997897</speed>
  <fix>3d</fix>
</trkpt>
<trkpt lat="40.0728423" lon="-105.2305753">
  <ele>1586.09</ele>
  <time>2026-08-27T18:30:27Z</time>
  <course>303.88</course>
  <speed>0.0</speed>
  <fix>3d</fix>
</trkpt>
<trkpt lat="40.0728422" lon="-105.2305752">
  <ele>1586.17</ele>
  <time>2026-08-27T18:30:27Z</time>
  <course>19.5</course>
  <speed>0.022360679774997897</speed>
  <fix>3d</fix>
</trkpt>
<trkpt lat="40.0728423" lon="-105.2305753">
  <ele>1586.09</ele>
  <time>2026-08-27T18:30:27Z</time>
  <course>309.27</course>
  <speed>0.0</speed>
  <fix>3d</fix>
</trkpt>
<trkpt lat="40.0728422" lon="-105.2305752">
  <ele>1586.17</ele>
  <time>2026-08-27T18:30:27Z</time>
  <course>19.46</course>
  <speed>0.022360679774997897</speed>
  <fix>3d</fix>
</trkpt>
<trkpt lat="40.0728423" lon="-105.2305753">
  <ele>1586.09</ele>
  <time>2026-08-27T18:30:27Z</time>
  <course>290.37</course>
  <speed>0.0</speed>
  <fix>3d</fix>
</trkpt>
<trkpt lat="40.0728422" lon="-105.2305752">
  <ele>1586.17</ele>
  <time>2026-08-27T18:30:27Z</time>
  <course>19.42</course>
  <speed>0.022360679774997897</speed>
  <fix>3d</fix>
</trkpt>
<trkpt lat="40.0728423" lon="-105.2305753">
  <ele>1586.09</ele>
  <time>2026-08-27T18:30:27Z</time>
  <course>276.49</course>
  <speed>0.0</speed>
  <fix>3d</fix>
</trkpt>
<trkpt lat="40.0728422" lon="-105.2305752">
  <ele>1586.16</ele>
  <time>2026-08-27T18:30:27Z</time>
  <course>19.39</course>
  <speed>0.022360679774997897</speed>
  <fix>3d</fix>
</trkpt>
<trkpt lat="40.0728423" lon="-105.2305753">
  <ele>1586.09</ele>
  <time>2026-08-27T18:30:27Z</time>
  <course>281.8</course>
  <speed>0.0</speed>
  <fix>3d</fix>
</trkpt>
<trkpt lat="40.0728422" lon="-105.2305752">
  <ele>1586.16</ele>
  <time>2026-08-27T18:30:27Z</time>
  <course>19.35</course>
  <speed>0.022360679774997897</speed>
  <fix>3d</fix>
</trkpt>
<trkpt lat="40.0728423" lon="-105.2305753">
  <ele>1586.09</ele>
  <time>2026-08-27T18:30:27Z</time>
  <course>291.05</course>
  <speed>0.0</speed>
  <fix>3d</fix>
</trkpt>
<trkpt lat="40.0728422" lon="-105.2305752">
  <ele>1586.16</ele>
  <time>2026-08-27T18:30:27Z</time>
  <course>19.31</course>
  <speed>0.022360679774997897</speed>
  <fix>3d</fix>
</trkpt>
<trkpt lat="40.0728423" lon="-105.2305753">
  <ele>1586.09</ele>
  <time>2026-08-27T18:30:27Z</time>
  <course>287.56</course>
  <speed>0.0</speed>
  <fix>3d</fix>
</trkpt>
<trkpt lat="40.0728422" lon="-105.2305752">
  <ele>1586.16</ele>
  <time>2026-08-27T18:30:27Z</time>
  <course>19.27</course>
  <speed>0.022360679774997897</speed>
  <fix>3d</fix>
</trkpt>
<trkpt lat="40.0728423" lon="-105.2305753">
  <ele>1586.09</ele>
  <time>2026-08-27T18:30:27Z</time>
  <course>286.79</course>
  <speed>0.0</speed>
  <fix>3d</fix>
</trkpt>
<trkpt lat="40.0728422" lon="-105.2305752">
  <ele>1586.16</ele>
  <time>2026-08-27T18:30:27Z</time>
  <course>19.23</course>
  <speed>0.022360679774997897</speed>
  <fix>3d</fix>
</trkpt>
<trkpt lat="40.0728423" lon="-105.2305753">
  <ele>1586.09</ele>
  <time>2026-08-27T18:30:27Z</time>
  <course>287.11</course>
  <speed>0.0</speed>
  <fix>3d</fix>
</trkpt>
<trkpt lat="40.0728422" lon="-105.2305752">
  <ele>1586.16</ele>
  <time>2026-08-27T18:30:27Z</time>
  <course>19.19</course>
  <speed>0.022360679774997897</speed>
  <fix>3d</fix>
</trkpt>
<trkpt lat="40.0728423" lon="-105.2305753">
  <ele>1586.09</ele>
  <time>2026-08-27T18:30:27Z</time>
  <course>262.95</course>
  <speed>0.0</speed>
  <fix>3d</fix>
</trkpt>
<trkpt lat="40.0728422" lon="-105.2305752">
  <ele>1586.15</ele>
  <time>2026-08-27T18:30:27Z</time>
  <course>19.15</course>
  <speed>0.022360679774997897</speed>
  <fix>3d</fix>
</trkpt>
<trkpt lat="40.0728423" lon="-105.2305753">
  <ele>1586.09</ele>
  <time>2026-08-27T18:30:27Z</time>
  <course>255.25</course>
  <speed>0.0</speed>
  <fix>3d</fix>
</trkpt>
<trkpt lat="40.0728422" lon="-105.2305752">
  <ele>1586.15</ele>
  <time>2026-08-27T18:30:27Z</time>
  <course>19.11</course>
  <speed>0.022360679774997897</speed>
  <fix>3d</fix>
</trkpt>
<trkpt lat="40.0728423" lon="-105.2305753">
  <ele>1586.09</ele>
  <time>2026-08-27T18:30:27Z</time>
  <course>291.01</course>
  <speed>0.0</speed>
  <fix>3d</fix>
</trkpt>
<trkpt lat="40.0728422" lon="-105.2305752">
  <ele>1586.15</ele>
  <time>2026-08-27T18:30:27Z</time>
  <course>19.07</course>
  <speed>0.022360679774997897</speed>
  <fix>3d</fix>
</trkpt>
<trkpt lat="40.0728423" lon="-105.2305753">
  <ele>1586.09</ele>
  <time>2026-08-27T18:30:27Z</time>
  <course>298.19</course>
  <speed>0.0</speed>
  <fix>3d</fix>
</trkpt>
<trkpt lat="40.0728422" lon="-105.2305752">
  <ele>1586.15</ele>
  <time>2026-08-27T18:30:27Z</time>
  <course>19.03</course>
  <speed>0.022360679774997897</speed>
  <fix>3d</fix>
</trkpt>
<trkpt lat="40.0728423" lon="-105.2305753">
  <ele>1586.09</ele>
  <time>2026-08-27T18:30:27Z</time>
  <course>288.5</course>
  <speed>0.0</speed>
  <fix>3d</fix>
</trkpt>
<trkpt lat="40.0728422" lon="-105.2305752">
  <ele>1586.15</ele>
  <time>2026-08-27T18:30:27Z</time>
  <course>18.99</course>
  <speed>0.022360679774997897</speed>
  <fix>3d</fix>
</trkpt>
<trkpt lat="40.0728423" lon="-105.2305753">
  <ele>1586.09</ele>
  <time>2026-08-27T18:30:27Z</time>
  <course>278.97</course>
  <speed>0.0</speed>
  <fix>3d</fix>
</trkpt>
<trkpt lat="40.0728422" lon="-105.2305752">
  <ele>1586.15</ele>
  <time>2026-08-27T18:30:27Z</time>
  <course>18.96</course>
  <speed>0.022360679774997897</speed>
  <fix>3d</fix>
</trkpt>
<trkpt lat="40.0728423" lon="-105.2305753">
  <ele>1586.09</ele>
  <time>2026-08-27T18:30:27Z</time>
  <course>286.1</course>
  <speed>0.0</speed>
  <fix>3d</fix>
</trkpt>
<trkpt lat="40.0728422" lon="-105.2305752">
  <ele>1586.15</ele>
  <time>2026-08-27T18:30:27Z</time>
  <course>18.92</course>
  <speed>0.022360679774997897</speed>
  <fix>3d</fix>
</trkpt>
<trkpt lat="40.0728423" lon="-105.2305753">
  <ele>1586.09</ele>
  <time>2026-08-27T18:30:27Z</time>
  <course>286.17</course>
  <speed>0.0</speed>
  <fix>3d</fix>
</trkpt>
<trkpt lat="40.0728422" lon="-105.2305752">
  <ele>1586.15</ele>
  <time>2026-08-27T18:30:27Z</time>
  <course>18.88</course>
  <speed>0.022360679774997897</speed>
  <fix>3d</fix>
</trkpt>
<trkpt lat="40.0728423" lon="-105.2305753">
  <ele>1586.09</ele>
  <time>2026-08-27T18:30:27Z</time>
  <course>284.98</course>
  <speed>0.0</speed>
  <fix>3d</fix>
</trkpt>
<trkpt lat="40.0728422" lon="-105.2305752">
  <ele>1586.17</ele>
  <time>2026-08-27T18:30:27Z</time>
  <course>18.82</course>
  <speed>0.022360679774997897</speed>
  <fix>3d</fix>
</trkpt>
<trkpt lat="40.0728423" lon="-105.2305753">
  <ele>1586.09</ele>
  <time>2026-08-27T18:30:27Z</time>
  <course>284.4</course>
  <speed>0.0</speed>
  <fix>3d</fix>
</trkpt>
<trkpt lat="40.0728422" lon="-105.2305752">
  <ele>1586.27</ele>
  <time>2026-08-27T18:30:27Z</time>
  <course>18.71</course>
  <speed>0.022360679774997897</speed>
  <fix>3d</fix>
</trkpt>
<trkpt lat="40.0728423" lon="-105.2305753">
  <ele>1586.14</ele>
  <time>2026-08-27T18:30:27Z</time>
  <course>341.71</course>
  <speed>0.0</speed>
  <fix>3d</fix>
</trkpt>
<trkpt lat="40.0728422" lon="-105.2305752">
  <ele>1586.39</ele>
  <time>2026-08-27T18:30:27Z</time>
  <course>11.02</course>
  <speed>0.0824621125123532</speed>
  <fix>3d</fix>
</trkpt>
<trkpt lat="40.0728423" lon="-105.2305753">
  <ele>1586.23</ele>
  <time>2026-08-27T18:30:27Z</time>
  <course>286.98</course>
  <speed>0.02</speed>
  <fix>3d</fix>
</trkpt>
<trkpt lat="40.0728423" lon="-105.2305757">
  <ele>1586.74</ele>
  <time>2026-08-27T18:30:27Z</time>
  <course>2.03</course>
  <speed>0.26</speed>
  <fix>3d</fix>
</trkpt>
<trkpt lat="40.0728423" lon="-105.2305755">
  <ele>1586.42</ele>
  <time>2026-08-27T18:30:27Z</time>
  <course>286.76</course>
  <speed>0.14</speed>
  <fix>3d</fix>
</trkpt>
<trkpt lat="40.0728423" lon="-105.2305758">
  <ele>1586.81</ele>
  <time>2026-08-27T18:30:27Z</time>
  <course>0.9</course>
  <speed>0.2785677655436824</speed>
  <fix>3d</fix>
</trkpt>
<trkpt lat="40.0728425" lon="-105.2305764">
  <ele>1587.16</ele>
  <time>2026-08-27T18:30:27Z</time>
  <course>356.08</course>
  <speed>0.4016217125604641</speed>
  <fix>3d</fix>
</trkpt>
<trkpt lat="40.0728423" lon="-105.230576">
  <ele>1586.76</ele>
  <time>2026-08-27T18:30:27Z</time>
  <course>284.43</course>
  <speed>0.3</speed>
  <fix>3d</fix>
</trkpt>
<trkpt lat="40.0728425" lon="-105.2305765">
  <ele>1587.2</ele>
  <time>2026-08-27T18:30:27Z</time>
  <course>355.61</course>
  <speed>0.41109609582188933</speed>
  <fix>3d</fix>
</trkpt>
<trkpt lat="40.0728427" lon="-105.2305775">
  <ele>1587.58</ele>
  <time>2026-08-27T18:30:27Z</time>
  <course>351.92</course>
  <speed>0.5069516742254631</speed>
  <fix>3d</fix>
</trkpt>
<trkpt lat="40.0728425" lon="-105.2305768">
  <ele>1587.17</ele>
  <time>2026-08-27T18:30:27Z</time>
  <course>280.64</course>
  <speed>0.44</speed>
  <fix>3d</fix>
</trkpt>
<trkpt lat="40.0728427" lon="-105.2305777">
  <ele>1587.64</ele>
  <time>2026-08-27T18:30:27Z</time>
  <course>351.4</course>
  <speed>0.5239274758971895</speed>
  <fix>3d</fix>
</trkpt>
<trkpt lat="40.0728429" lon="-105.2305788">
  <ele>1588.03</ele>
  <time>2026-08-27T18:30:27Z</time>
  <course>348.87</course>
  <speed>0.5885575587824864</speed>
  <fix>3d</fix>
</trkpt>
<trkpt lat="40.0728426" lon="-105.230578">
  <ele>1587.6</ele>
  <time>2026-08-27T18:30:27Z</time>
  <course>276.4</course>
  <speed>0.54</speed>
  <fix>3d</fix>
</trkpt>
<trkpt lat="40.0728429" lon="-105.230579">
  <ele>1588.09</ele>
  <time>2026-08-27T18:30:27Z</time>
  <course>348.51</course>
  <speed>0.596824932455071</speed>
  <fix>3d</fix>
</trkpt>
<trkpt lat="40.0728429" lon="-105.2305803">
  <ele>1588.49</ele>
  <time>2026-08-27T18:30:27Z</time>
  <course>346.6</course>
  <speed>0.6519202405202649</speed>
  <fix>3d</fix>
</trkpt>
<trkpt lat="40.0728426" lon="-105.2305794">
  <ele>1588.04</ele>
  <time>2026-08-27T18:30:27Z</time>
  <course>272.07</course>
  <speed>0.61</speed>
  <fix>3d</fix>
</trkpt>
<trkpt lat="40.0728429" lon="-105.2305803">
  <ele>1588.51</ele>
  <time>2026-08-27T18:30:27Z</time>
  <course>346.55</course>
  <speed>0.6519202405202649</speed>
  <fix>3d</fix>
</trkpt>
<trkpt lat="40.0728429" lon="-105.2305819">
  <ele>1588.98</ele>
  <time>2026-08-27T18:30:27Z</time>
  <course>344.89</course>
  <speed>0.7</speed>
  <fix>3d</fix>
</trkpt>
<trkpt lat="40.0728426" lon="-105.2305809">
  <ele>1588.5</ele>
  <time>2026-08-27T18:30:27Z</time>
  <course>267.82</course>
  <speed>0.67</speed>
  <fix>3d</fix>
</trkpt>
<trkpt lat="40.0728429" lon="-105.2305821">
  <ele>1589.03</ele>
  <time>2026-08-27T18:30:27Z</time>
  <course>344.74</course>
  <speed>0.71</speed>
  <fix>3d</fix>
</trkpt>
<trkpt lat="40.0728427" lon="-105.2305837">
  <ele>1589.46</ele>
  <time>2026-08-27T18:30:27Z</time>
  <course>340.15</course>
  <speed>0.7424284477308234</speed>
  <fix>3d</fix>
</trkpt>
<trkpt lat="40.0728426" lon="-105.2305825">
  <ele>1588.96</ele>
  <time>2026-08-27T18:30:27Z</time>
  <course>263.77</course>
  <speed>0.71</speed>
  <fix>3d</fix>
</trkpt>
<trkpt lat="40.0728427" lon="-105.2305839">
  <ele>1589.52</ele>
  <time>2026-08-27T18:30:27Z</time>
  <course>339.47</course>
  <speed>0.7532595834106592</speed>
  <fix>3d</fix>
</trkpt>
<trkpt lat="40.0728425" lon="-105.2305855">
  <ele>1589.94</ele>
  <time>2026-08-27T18:30:27Z</time>
  <course>336.38</course>
  <speed>0.7808969202141856</speed>
  <fix>3d</fix>
</trkpt>
<trkpt lat="40.0728425" lon="-105.2305843">
  <ele>1589.42</ele>
  <time>2026-08-27T18:30:27Z</time>
  <course>259.91</course>
  <speed>0.75</speed>
  <fix>3d</fix>
</trkpt>
<trkpt lat="40.0728425" lon="-105.2305857">
  <ele>1590.01</ele>
  <time>2026-08-27T18:30:27Z</time>
  <course>336.16</course>
  <speed>0.7844743462982074</speed>
  <fix>3d</fix>
</trkpt>
<trkpt lat="40.0728421" lon="-105.2305873">
  <ele>1590.42</ele>
  <time>2026-08-27T18:30:27Z</time>
  <course>335.88</course>
  <speed>0.8174350127074322</speed>
  <fix>3d</fix>
</trkpt>
<trkpt lat="40.0728422" lon="-105.2305861">
  <ele>1589.9</ele>
  <time>2026-08-27T18:30:27Z</time>
  <course>256.19</course>
  <speed>0.79</speed>
  <fix>3d</fix>
</trkpt>
<trkpt lat="40.0728421" lon="-105.2305876">
  <ele>1590.48</ele>
  <time>2026-08-27T18:30:27Z</time>
  <course>335.91</course>
  <speed>0.8200609733428362</speed>
  <fix>3d</fix>
</trkpt>
<trkpt lat="40.0728416" lon="-105.2305892">
  <ele>1590.9</ele>
  <time>2026-08-27T18:30:27Z</time>
  <course>336.07</course>
  <speed>0.8475848040166837</speed>
  <fix>3d</fix>
</trkpt>
<trkpt lat="40.0728418" lon="-105.2305878">
  <ele>1590.38</ele>
  <time>2026-08-27T18:30:27Z</time>
  <course>252.68</course>
  <speed>0.82</speed>
  <fix>3d</fix>
</trkpt>
<trkpt lat="40.0728416" lon="-105.2305892">
  <ele>1590.9</ele>
  <time>2026-08-27T18:30:27Z</time>
  <course>336.07</course>
  <speed>0.8475848040166837</speed>
  <fix>3d</fix>
</trkpt>
<trkpt lat="40.072841" lon="-105.230591">
  <ele>1591.38</ele>
  <time>2026-08-27T18:30:27Z</time>
  <course>336.21</course>
  <speed>0.8823831367382311</speed>
  <fix>3d</fix>
</trkpt>
<trkpt lat="40.0728413" lon="-105.2305897">
  <ele>1590.85</ele>
  <time>2026-08-27T18:30:27Z</time>
  <course>249.43</course>
  <speed>0.85</speed>
  <fix>3d</fix>
</trkpt>
<trkpt lat="40.0728409" lon="-105.2305913">
  <ele>1591.44</ele>
  <time>2026-08-27T18:30:27Z</time>
  <course>336.23</course>
  <speed>0.8863972021616494</speed>
  <fix>3d</fix>
</trkpt>
<trkpt lat="40.0728403" lon="-105.2305929">
  <ele>1591.86</ele>
  <time>2026-08-27T18:30:27Z</time>
  <course>336.37</course>
  <speed>0.9078546139112804</speed>
  <fix>3d</fix>
</trkpt>
<trkpt lat="40.0728407" lon="-105.2305916">
  <ele>1591.33</ele>
  <time>2026-08-27T18:30:27Z</time>
  <course>246.39</course>
  <speed>0.87</speed>
  <fix>3d</fix>
</trkpt>
<trkpt lat="40.0728402" lon="-105.2305932">
  <ele>1591.93</ele>
  <time>2026-08-27T18:30:27Z</time>
  <course>336.41</course>
  <speed>0.912414379544733</speed>
  <fix>3d</fix>
</trkpt>
<trkpt lat="40.0728395" lon="-105.2305948">
  <ele>1592.34</ele>
  <time>2026-08-27T18:30:27Z</time>
  <course>336.56</course>
  <speed>0.9364827814754524</speed>
  <fix>3d</fix>
</trkpt>
<trkpt lat="40.07284" lon="-105.2305935">
  <ele>1591.81</ele>
  <time>2026-08-27T18:30:27Z</time>
  <course>243.52</course>
  <speed>0.9</speed>
  <fix>3d</fix>
</trkpt>
<trkpt lat="40.0728394" lon="-105.2305951">
  <ele>1592.41</ele>
  <time>2026-08-27T18:30:27Z</time>
  <course>336.59</course>
  <speed>0.9415412895885129</speed>
  <fix>3d</fix>
</trkpt>
<trkpt lat="40.0728386" lon="-105.2305967">
  <ele>1592.82</ele>
  <time>2026-08-27T18:30:27Z</time>
  <course>336.74</course>
  <speed>0.9679876032264049</speed>
  <fix>3d</fix>
</trkpt>
<trkpt lat="40.0728393" lon="-105.2305954">
  <ele>1592.29</ele>
  <time>2026-08-27T18:30:27Z</time>
  <course>240.78</course>
  <speed>0.92</speed>
  <fix>3d</fix>
</trkpt>
<trkpt lat="40.0728386" lon="-105.2305968">
  <ele>1592.83</ele>
  <time>2026-08-27T18:30:27Z</time>
  <course>336.74</course>
  <speed>0.9679876032264049</speed>
  <fix>3d</fix>
</trkpt>
<trkpt lat="40.0728377" lon="-105.2305987">
  <ele>1593.3</ele>
  <time>2026-08-27T18:30:27Z</time>
  <course>336.89</course>
  <speed>0.9962429422585637</speed>
  <fix>3d</fix>
</trkpt>
<trkpt lat="40.0728384" lon="-105.2305973">
  <ele>1592.77</ele>
  <time>2026-08-27T18:30:27Z</time>
  <course>238.14</course>
  <speed>0.95</speed>
  <fix>3d</fix>
</trkpt>
<trkpt lat="40.0728375" lon="-105.2305989">
  <ele>1593.37</ele>
  <time>2026-08-27T18:30:27Z</time>
  <course>336.91</course>
  <speed>1.0020977996183804</speed>
  <fix>3d</fix>
</trkpt>
<trkpt lat="40.0728366" lon="-105.2306005">
  <ele>1593.78</ele>
  <time>2026-08-27T18:30:27Z</time>
  <course>337.0</course>
  <speed>1.0182828683622247</speed>
  <fix>3d</fix>
</trkpt>
<trkpt lat="40.0728375" lon="-105.2305992">
  <ele>1593.24</ele>
  <time>2026-08-27T18:30:27Z</time>
  <course>235.57</course>
  <speed>0.97</speed>
  <fix>3d</fix>
</trkpt>
<trkpt lat="40.0728365" lon="-105.2306008">
  <ele>1593.85</ele>
  <time>2026-08-27T18:30:27Z</time>
  <course>337.01</course>
  <speed>1.0182828683622247</speed>
  <fix>3d</fix>
</trkpt>
<trkpt lat="40.0728355" lon="-105.2306024">
  <ele>1594.27</ele>
  <time>2026-08-27T18:30:27Z</time>
  <course>337.08</course>
  <speed>1.0423531071570709</speed>
  <fix>3d</fix>
</trkpt>
<trkpt lat="40.0728364" lon="-105.2306011">
  <ele>1593.72</ele>
  <time>2026-08-27T18:30:27Z</time>
  <course>233.06</course>
  <speed>0.99</speed>
  <fix>3d</fix>
</trkpt>
<trkpt lat="40.0728354" lon="-105.2306027">
  <ele>1594.33</ele>
  <time>2026-08-27T18:30:27Z</time>
  <course>337.09</course>
  <speed>1.0423531071570709</speed>
  <fix>3d</fix>
</trkpt>
<trkpt lat="40.0728343" lon="-105.2306042">
  <ele>1594.76</ele>
  <time>2026-08-27T18:30:27Z</time>
  <course>337.13</course>
  <speed>1.061508360777248</speed>
  <fix>3d</fix>
</trkpt>
<trkpt lat="40.0728353" lon="-105.2306029">
  <ele>1594.2</ele>
  <time>2026-08-27T18:30:27Z</time>
  <course>230.59</course>
  <speed>1.01</speed>
  <fix>3d</fix>
</trkpt>
<trkpt lat="40.0728343" lon="-105.2306043">
  <ele>1594.76</ele>
  <time>2026-08-27T18:30:27Z</time>
  <course>337.13</course>
  <speed>1.061508360777248</speed>
  <fix>3d</fix>
</trkpt>
<trkpt lat="40.0728331" lon="-105.230606">
  <ele>1595.24</ele>
  <time>2026-08-27T18:30:27Z</time>
  <course>337.15</course>
  <speed>1.0818964830333815</speed>
  <fix>3d</fix>
</trkpt>
<trkpt lat="40.0728341" lon="-105.2306048">
  <ele>1594.67</ele>
  <time>2026-08-27T18:30:27Z</time>
  <course>228.16</course>
  <speed>1.03</speed>
  <fix>3d</fix>
</trkpt>
<trkpt lat="40.0728331" lon="-105.2306061">
  <ele>1595.25</ele>
  <time>2026-08-27T18:30:27Z</time>
  <course>337.15</course>
  <speed>1.0818964830333815</speed>
  <fix>3d</fix>
</trkpt>
<trkpt lat="40.0728317" lon="-105.2306078">
  <ele>1595.69</ele>
  <time>2026-08-27T18:30:27Z</time>
  <course>338.32</course>
  <speed>1.1034491379306979</speed>
  <fix>3d</fix>
</trkpt>
<trkpt lat="40.0728328" lon="-105.2306065">
  <ele>1595.15</ele>
  <time>2026-08-27T18:30:27Z</time>
  <course>226.05</course>
  <speed>1.06</speed>
  <fix>3d</fix>
</trkpt>
<trkpt lat="40.0728304" lon="-105.2306096">
  <ele>1595.98</ele>
  <time>2026-08-27T18:30:27Z</time>
  <course>341.08</course>
  <speed>1.0904127658827185</speed>
  <fix>3d</fix>
</trkpt>
<trkpt lat="40.0728315" lon="-105.2306084">
  <ele>1595.55</ele>
  <time>2026-08-27T18:30:27Z</time>
  <course>224.46</course>
  <speed>1.07</speed>
  <fix>3d</fix>
</trkpt>
<trkpt lat="40.072829" lon="-105.2306112">
  <ele>1596.16</ele>
  <time>2026-08-27T18:30:27Z</time>
  <course>343.34</course>
  <speed>1.0716809226630846</speed>
  <fix>3d</fix>
</trkpt>
<trkpt lat="40.0728301" lon="-105.2306101">
  <ele>1595.82</ele>
  <time>2026-08-27T18:30:27Z</time>
  <course>222.83</course>
  <speed>1.06</speed>
  <fix>3d</fix>
</trkpt>
<trkpt lat="40.0728276" lon="-105.2306128">
  <ele>1596.27</ele>
  <time>2026-08-27T18:30:27Z</time>
  <course>344.98</course>
  <speed>1.0621205204683695</speed>
  <fix>3d</fix>
</trkpt>
<trkpt lat="40.0728287" lon="-105.2306117">
  <ele>1595.99</ele>
  <time>2026-08-27T18:30:27Z</time>
  <course>220.83</course>
  <speed>1.05</speed>
  <fix>3d</fix>
</trkpt>
<trkpt lat="40.0728261" lon="-105.2306143">
  <ele>1596.35</ele>
  <time>2026-08-27T18:30:27Z</time>
  <course>345.99</course>
  <speed>1.0183319694480775</speed>
  <fix>3d</fix>
</trkpt>
<trkpt lat="40.0728272" lon="-105.2306133">
  <ele>1596.1</ele>
  <time>2026-08-27T18:30:27Z</time>
  <course>218.73</course>
  <speed>1.03</speed>
  <fix>3d</fix>
</trkpt>
<trkpt lat="40.0728248" lon="-105.2306156">
  <ele>1596.4</ele>
  <time>2026-08-27T18:30:27Z</time>
  <course>346.59</course>
  <speed>0.8850988645343524</speed>
  <fix>3d</fix>
</trkpt>
<trkpt lat="40.0728257" lon="-105.2306148">
  <ele>1596.16</ele>
  <time>2026-08-27T18:30:27Z</time>
  <course>216.64</course>
  <speed>0.96</speed>
  <fix>3d</fix>
</trkpt>
<trkpt lat="40.0728236" lon="-105.2306166">
  <ele>1596.43</ele>
  <time>2026-08-27T18:30:27Z</time>
  <course>347.0</course>
  <speed>0.7032780389006896</speed>
  <fix>3d</fix>
</trkpt>
<trkpt lat="40.0728244" lon="-105.230616">
  <ele>1596.22</ele>
  <time>2026-08-27T18:30:27Z</time>
  <course>214.81</course>
  <speed>0.82</speed>
  <fix>3d</fix>
</trkpt>
<trkpt lat="40.0728227" lon="-105.2306173">
  <ele>1596.46</ele>
  <time>2026-08-27T18:30:27Z</time>
  <course>347.3</course>
  <speed>0.523545604508337</speed>
  <fix>3d</fix>
</trkpt>
<trkpt lat="40.0728234" lon="-105.230617">
  <ele>1596.25</ele>
  <time>2026-08-27T18:30:27Z</time>
  <course>214.02</course>
  <speed>0.65</speed>
  <fix>3d</fix>
</trkpt>
<trkpt lat="40.072822" lon="-105.2306179">
  <ele>1596.47</ele>
  <time>2026-08-27T18:30:27Z</time>
  <course>347.52</course>
  <speed>0.38078865529319544</speed>
  <fix>3d</fix>
</trkpt>
<trkpt lat="40.0728225" lon="-105.2306177">
  <ele>1596.27</ele>
  <time>2026-08-27T18:30:27Z</time>
  <course>215.4</course>
  <speed>0.48</speed>
  <fix>3d</fix>
</trkpt>
<trkpt lat="40.0728216" lon="-105.2306184">
  <ele>1596.47</ele>
  <time>2026-08-27T18:30:27Z</time>
  <course>347.67</course>
  <speed>0.2745906043549196</speed>
  <fix>3d</fix>
</trkpt>
<trkpt lat="40.0728219" lon="-105.2306183">
  <ele>1596.28</ele>
  <time>2026-08-27T18:30:27Z</time>
  <course>219.65</course>
  <speed>0.35</speed>
  <fix>3d</fix>
</trkpt>
<trkpt lat="40.0728212" lon="-105.2306188">
  <ele>1596.47</ele>
  <time>2026-08-27T18:30:27Z</time>
  <course>347.81</course>
  <speed>0.21400934559032694</speed>
  <fix>3d</fix>
</trkpt>
<trkpt lat="40.0728215" lon="-105.2306188">
  <ele>1596.29</ele>
  <time>2026-08-27T18:30:27Z</time>
  <course>226.0</course>
  <speed>0.26</speed>
  <fix>3d</fix>
</trkpt>
<trkpt lat="40.072821" lon="-105.2306192">
  <ele>1596.47</ele>
  <time>2026-08-27T18:30:27Z</time>
  <course>347.95</course>
  <speed>0.16401219466856726</speed>
  <fix>3d</fix>
</trkpt>
<trkpt lat="40.0728213" lon="-105.2306191">
  <ele>1596.3</ele>
  <time>2026-08-27T18:30:27Z</time>
  <course>232.26</course>
  <speed>0.2</speed>
  <fix>3d</fix>
</trkpt>
<trkpt lat="40.0728209" lon="-105.2306195">
  <ele>1596.48</ele>
  <time>2026-08-27T18:30:27Z</time>
  <course>348.07</course>
  <speed>0.12806248474865697</speed>
  <fix>3d</fix>
</trkpt>
<trkpt lat="40.0728211" lon="-105.2306195">
  <ele>1596.3</ele>
  <time>2026-08-27T18:30:27Z</time>
  <course>236.56</course>
  <speed>0.15</speed>
  <fix>3d</fix>
</trkpt>
<trkpt lat="40.0728208" lon="-105.2306198">
  <ele>1596.48</ele>
  <time>2026-08-27T18:30:27Z</time>
  <course>348.2</course>
  <speed>0.1</speed>
  <fix>3d</fix>
</trkpt>
<trkpt lat="40.072821" lon="-105.2306198">
  <ele>1596.31</ele>
  <time>2026-08-27T18:30:27Z</time>
  <course>237.83</course>
  <speed>0.12</speed>
  <fix>3d</fix>
</trkpt>
<trkpt lat="40.0728207" lon="-105.2306199">
  <ele>1596.48</ele>
  <time>2026-08-27T18:30:27Z</time>
  <course>348.34</course>
  <speed>0.0854400374531753</speed>
  <fix>3d</fix>
</trkpt>
<trkpt lat="40.0728208" lon="-105.23062">
  <ele>1596.31</ele>
  <time>2026-08-27T18:30:27Z</time>
  <course>234.94</course>
  <speed>0.09</speed>
  <fix>3d</fix>
</trkpt>
<trkpt lat="40.0728206" lon="-105.2306201">
  <ele>1596.48</ele>
  <time>2026-08-27T18:30:27Z</time>
  <course>348.48</course>
  <speed>0.0824621125123532</speed>
  <fix>3d</fix>
</trkpt>
<trkpt lat="40.0728207" lon="-105.2306202">
  <ele>1596.32</ele>
  <time>2026-08-27T18:30:27Z</time>
  <course>226.03</course>
  <speed>0.07</speed>
  <fix>3d</fix>
</trkpt>
<trkpt lat="40.0728205" lon="-105.2306201">
  <ele>1596.49</ele>
  <time>2026-08-27T18:30:27Z</time>
  <course>348.61</course>
  <speed>0.08</speed>
  <fix>3d</fix>
</trkpt>
<trkpt lat="40.0728207" lon="-105.2306203">
  <ele>1596.32</ele>
  <time>2026-08-27T18:30:27Z</time>
  <course>211.15</course>
  <speed>0.06</speed>
  <fix>3d</fix>
</trkpt>
<trkpt lat="40.0728204" lon="-105.2306202">
  <ele>1596.49</ele>
  <time>2026-08-27T18:30:27Z</time>
  <course>348.74</course>
  <speed>0.09</speed>
  <fix>3d</fix>
</trkpt>
<trkpt lat="40.0728206" lon="-105.2306203">
  <ele>1596.33</ele>
  <time>2026-08-27T18:30:27Z</time>
  <course>196.07</course>
  <speed>0.06</speed>
  <fix>3d</fix>
</trkpt>
<trkpt lat="40.0728203" lon="-105.2306202">
  <ele>1596.49</ele>
  <time>2026-08-27T18:30:27Z</time>
  <course>348.87</course>
  <speed>0.1</speed>
  <fix>3d</fix>
</trkpt>
<trkpt lat="40.0728204" lon="-105.2306203">
  <ele>1596.33</ele>
  <time>2026-08-27T18:30:27Z</time>
  <course>185.65</course>
  <speed>0.07</speed>
  <fix>3d</fix>
</trkpt>
<trkpt lat="40.0728201" lon="-105.2306202">
  <ele>1596.49</ele>
  <time>2026-08-27T18:30:27Z</time>
  <course>348.97</course>
  <speed>0.12041594578792296</speed>
  <fix>3d</fix>
</trkpt>
<trkpt lat="40.0728203" lon="-105.2306203">
  <ele>1596.34</ele>
  <time>2026-08-27T18:30:27Z</time>
  <course>179.94</course>
  <speed>0.08</speed>
  <fix>3d</fix>
</trkpt>
<trkpt lat="40.0728199" lon="-105.2306202">
  <ele>1596.49</ele>
  <time>2026-08-27T18:30:27Z</time>
  <course>349.05</course>
  <speed>0.130384048104053</speed>
  <fix>3d</fix>
</trkpt>
<trkpt lat="40.0728201" lon="-105.2306203">
  <ele>1596.34</ele>
  <time>2026-08-27T18:30:27Z</time>
  <course>177.44</course>
  <speed>0.1</speed>
  <fix>3d</fix>
</trkpt>
<trkpt lat="40.0728197" lon="-105.2306202">
  <ele>1596.5</ele>
  <time>2026-08-27T18:30:27Z</time>
  <course>349.1</course>
  <speed>0.140356688476182</speed>
  <fix>3d</fix>
</trkpt>
<trkpt lat="40.0728199" lon="-105.2306203">
  <ele>1596.34</ele>
  <time>2026-08-27T18:30:27Z</time>
  <course>176.87</course>
  <speed>0.12</speed>
  <fix>3d</fix>
</trkpt>
<trkpt lat="40.0728194" lon="-105.2306202">
  <ele>1596.5</ele>
  <time>2026-08-27T18:30:27Z</time>
  <course>349.17</course>
  <speed>0.15033296378372907</speed>
  <fix>3d</fix>
</trkpt>
<trkpt lat="40.0728196" lon="-105.2306203">
  <ele>1596.35</ele>
  <time>2026-08-27T18:30:27Z</time>
  <course>177.68</course>
  <speed>0.13</speed>
  <fix>3d</fix>
</trkpt>
<trkpt lat="40.0728192" lon="-105.2306202">
  <ele>1596.5</ele>
  <time>2026-08-27T18:30:27Z</time>
  <course>349.23</course>
  <speed>0.16031219541881397</speed>
  <fix>3d</fix>
</trkpt>
<trkpt lat="40.0728194" lon="-105.2306203">
  <ele>1596.35</ele>
  <time>2026-08-27T18:30:27Z</time>
  <course>179.28</course>
  <speed>0.14</speed>
  <fix>3d</fix>
</trkpt>
<trkpt lat="40.0728189" lon="-105.2306202">
  <ele>1596.5</ele>
  <time>2026-08-27T18:30:27Z</time>
  <course>349.28</course>
  <speed>0.16</speed>
  <fix>3d</fix>
</trkpt>
<trkpt lat="40.0728192" lon="-105.2306203">
  <ele>1596.35</ele>
  <time>2026-08-27T18:30:27Z</time>
  <course>181.13</course>
  <speed>0.15</speed>
  <fix>3d</fix>
</trkpt>
<trkpt lat="40.0728186" lon="-105.2306202">
  <ele>1596.5</ele>
  <time>2026-08-27T18:30:27Z</time>
  <course>349.32</course>
  <speed>0.16</speed>
  <fix>3d</fix>
</trkpt>
<trkpt lat="40.0728189" lon="-105.2306203">
  <ele>1596.36</ele>
  <time>2026-08-27T18:30:27Z</time>
  <course>183.11</course>
  <speed>0.15</speed>
  <fix>3d</fix>
</trkpt>
<trkpt lat="40.0728184" lon="-105.2306202">
  <ele>1596.5</ele>
  <time>2026-08-27T18:30:27Z</time>
  <course>349.35</course>
  <speed>0.16</speed>
  <fix>3d</fix>
</trkpt>
<trkpt lat="40.0728186" lon="-105.2306203">
  <ele>1596.36</ele>
  <time>2026-08-27T18:30:27Z</time>
  <course>185.31</course>
  <speed>0.15</speed>
  <fix>3d</fix>
</trkpt>
<trkpt lat="40.0728181" lon="-105.2306202">
  <ele>1596.49</ele>
  <time>2026-08-27T18:30:27Z</time>
  <course>349.38</course>
  <speed>0.15</speed>
  <fix>3d</fix>
</trkpt>
<trkpt lat="40.0728184" lon="-105.2306204">
  <ele>1596.36</ele>
  <time>2026-08-27T18:30:27Z</time>
  <course>187.79</course>
  <speed>0.15</speed>
  <fix>3d</fix>
</trkpt>
<trkpt lat="40.0728179" lon="-105.2306203">
  <ele>1596.49</ele>
  <time>2026-08-27T18:30:27Z</time>
  <course>349.38</course>
  <speed>0.140356688476182</speed>
  <fix>3d</fix>
</trkpt>
<trkpt lat="40.0728181" lon="-105.2306205">
  <ele>1596.36</ele>
  <time>2026-08-27T18:30:27Z</time>
  <course>190.6</course>
  <speed>0.14</speed>
  <fix>3d</fix>
</trkpt>
<trkpt lat="40.0728176" lon="-105.2306204">
  <ele>1596.5</ele>
  <time>2026-08-27T18:30:27Z</time>
  <course>349.38</course>
  <speed>0.130384048104053</speed>
  <fix>3d</fix>
</trkpt>
<trkpt lat="40.0728178" lon="-105.2306205">
  <ele>1596.36</ele>
  <time>2026-08-27T18:30:27Z</time>
  <course>193.75</course>
  <speed>0.13</speed>
  <fix>3d</fix>
</trkpt>
<trkpt lat="40.0728174" lon="-105.2306204">
  <ele>1596.5</ele>
  <time>2026-08-27T18:30:27Z</time>
  <course>349.37</course>
  <speed>0.12041594578792296</speed>
  <fix>3d</fix>
</trkpt>
<trkpt lat="40.0728176" lon="-105.2306206">
  <ele>1596.37</ele>
  <time>2026-08-27T18:30:27Z</time>
  <course>197.28</course>
  <speed>0.12</speed>
  <fix>3d</fix>
</trkpt>
<trkpt lat="40.0728172" lon="-105.2306205">
  <ele>1596.5</ele>
  <time>2026-08-27T18:30:27Z</time>
  <course>349.38</course>
  <speed>0.1019803902718557</speed>
  <fix>3d</fix>
</trkpt>
<trkpt lat="40.0728174" lon="-105.2306207">
  <ele>1596.37</ele>
  <time>2026-08-27T18:30:27Z</time>
  <course>201.39</course>
  <speed>0.11</speed>
  <fix>3d</fix>
</trkpt>
<trkpt lat="40.0728171" lon="-105.2306206">
  <ele>1596.5</ele>
  <time>2026-08-27T18:30:27Z</time>
  <course>349.39</course>
  <speed>0.09219544457292887</speed>
  <fix>3d</fix>
</trkpt>
<trkpt lat="40.0728172" lon="-105.2306208">
  <ele>1596.37</ele>
  <time>2026-08-27T18:30:27Z</time>
  <course>206.31</course>
  <speed>0.1</speed>
  <fix>3d</fix>
</trkpt>
<trkpt lat="40.0728169" lon="-105.2306208">
  <ele>1596.5</ele>
  <time>2026-08-27T18:30:27Z</time>
  <course>349.4</course>
  <speed>0.07280109889280519</speed>
  <fix>3d</fix>
</trkpt>
<trkpt lat="40.072817" lon="-105.2306209">
  <ele>1596.38</ele>
  <time>2026-08-27T18:30:27Z</time>
  <course>212.08</course>
  <speed>0.09</speed>
  <fix>3d</fix>
</trkpt>
<trkpt lat="40.0728168" lon="-105.2306209">
  <ele>1596.5</ele>
  <time>2026-08-27T18:30:27Z</time>
  <course>349.39</course>
  <speed>0.0632455532033676</speed>
  <fix>3d</fix>
</trkpt>
<trkpt lat="40.0728169" lon="-105.2306211">
  <ele>1596.38</ele>
  <time>2026-08-27T18:30:27Z</time>
  <course>218.64</course>
  <speed>0.08</speed>
  <fix>3d</fix>
</trkpt>
<trkpt lat="40.0728167" lon="-105.230621">
  <ele>1596.51</ele>
  <time>2026-08-27T18:30:27Z</time>
  <course>349.4</course>
  <speed>0.044721359549995794</speed>
  <fix>3d</fix>
</trkpt>
<trkpt lat="40.0728168" lon="-105.2306212">
  <ele>1596.38</ele>
  <time>2026-08-27T18:30:27Z</time>
  <course>226.33</course>
  <speed>0.07</speed>
  <fix>3d</fix>
</trkpt>
<trkpt lat="40.0728167" lon="-105.2306211">
  <ele>1596.51</ele>
  <time>2026-08-27T18:30:27Z</time>
  <course>349.42</course>
  <speed>0.03605551275463989</speed>
  <fix>3d</fix>
</trkpt>
<trkpt lat="40.0728167" lon="-105.2306213">
  <ele>1596.38</ele>
  <time>2026-08-27T18:30:27Z</time>
  <course>235.34</course>
  <speed>0.06</speed>
  <fix>3d</fix>
</trkpt>
<trkpt lat="40.0728166" lon="-105.2306212">
  <ele>1596.51</ele>
  <time>2026-08-27T18:30:27Z</time>
  <course>349.44</course>
  <speed>0.022360679774997897</speed>
  <fix>3d</fix>
</trkpt>
<trkpt lat="40.0728167" lon="-105.2306214">
  <ele>1596.39</ele>
  <time>2026-08-27T18:30:27Z</time>
  <course>246.0</course>
  <speed>0.05</speed>
  <fix>3d</fix>
</trkpt>
<trkpt lat="40.0728166" lon="-105.2306213">
  <ele>1596.51</ele>
  <time>2026-08-27T18:30:27Z</time>
  <course>349.45</course>
  <speed>0.01</speed>
  <fix>3d</fix>
</trkpt>
<trkpt lat="40.0728167" lon="-105.2306216">
  <ele>1596.39</ele>
  <time>2026-08-27T18:30:27Z</time>
  <course>259.15</course>
  <speed>0.05</speed>
  <fix>3d</fix>
</trkpt>
<trkpt lat="40.0728166" lon="-105.2306214">
  <ele>1596.51</ele>
  <time>2026-08-27T18:30:27Z</time>
  <course>349.46</course>
  <speed>0.01</speed>
  <fix>3d</fix>
</trkpt>
<trkpt lat="40.0728167" lon="-105.2306217">
  <ele>1596.39</ele>
  <time>2026-08-27T18:30:27Z</time>
  <course>274.12</course>
  <speed>0.04</speed>
  <fix>3d</fix>
</trkpt>
<trkpt lat="40.0728166" lon="-105.2306215">
  <ele>1596.5</ele>
  <time>2026-08-27T18:30:27Z</time>
  <course>349.46</course>
  <speed>0.01</speed>
  <fix>3d</fix>
</trkpt>
<trkpt lat="40.0728167" lon="-105.2306218">
  <ele>1596.39</ele>
  <time>2026-08-27T18:30:27Z</time>
  <course>288.37</course>
  <speed>0.04</speed>
  <fix>3d</fix>
</trkpt>
<trkpt lat="40.0728166" lon="-105.2306216">
  <ele>1596.5</ele>
  <time>2026-08-27T18:30:27Z</time>
  <course>349.45</course>
  <speed>0.01</speed>
  <fix>3d</fix>
</trkpt>
<trkpt lat="40.0728167" lon="-105.2306218">
  <ele>1596.39</ele>
  <time>2026-08-27T18:30:27Z</time>
  <course>300.89</course>
  <speed>0.04</speed>
  <fix>3d</fix>
</trkpt>
<trkpt lat="40.0728167" lon="-105.2306217">
  <ele>1596.5</ele>
  <time>2026-08-27T18:30:27Z</time>
  <course>349.43</course>
  <speed>0.02</speed>
  <fix>3d</fix>
</trkpt>
<trkpt lat="40.0728167" lon="-105.2306219">
  <ele>1596.39</ele>
  <time>2026-08-27T18:30:27Z</time>
  <course>311.88</course>
  <speed>0.04</speed>
  <fix>3d</fix>
</trkpt>
<trkpt lat="40.0728167" lon="-105.2306217">
  <ele>1596.5</ele>
  <time>2026-08-27T18:30:27Z</time>
  <course>349.42</course>
  <speed>0.022360679774997897</speed>
  <fix>3d</fix>
</trkpt>
<trkpt lat="40.0728167" lon="-105.230622">
  <ele>1596.39</ele>
  <time>2026-08-27T18:30:27Z</time>
  <course>322.19</course>
  <speed>0.04</speed>
  <fix>3d</fix>
</trkpt>
<trkpt lat="40.0728168" lon="-105.2306218">
  <ele>1596.5</ele>
  <time>2026-08-27T18:30:27Z</time>
  <course>349.41</course>
  <speed>0.022360679774997897</speed>
  <fix>3d</fix>
</trkpt>
<trkpt lat="40.0728168" lon="-105.230622">
  <ele>1596.4</ele>
  <time>2026-08-27T18:30:27Z</time>
  <course>331.93</course>
  <speed>0.03</speed>
  <fix>3d</fix>
</trkpt>
<trkpt lat="40.0728168" lon="-105.2306218">
  <ele>1596.5</ele>
  <time>2026-08-27T18:30:27Z</time>
  <course>349.41</course>
  <speed>0.0282842712474619</speed>
  <fix>3d</fix>
</trkpt>
<trkpt lat="40.0728168" lon="-105.2306221">
  <ele>1596.4</ele>
  <time>2026-08-27T18:30:27Z</time>
  <course>340.56</course>
  <speed>0.03</speed>
  <fix>3d</fix>
</trkpt>
<trkpt lat="40.0728169" lon="-105.2306218">
  <ele>1596.51</ele>
  <time>2026-08-27T18:30:27Z</time>
  <course>349.41</course>
  <speed>0.0282842712474619</speed>
  <fix>3d</fix>
</trkpt>
<trkpt lat="40.0728169" lon="-105.2306222">
  <ele>1596.4</ele>
  <time>2026-08-27T18:30:27Z</time>
  <course>348.4</course>
  <speed>0.03</speed>
  <fix>3d</fix>
</trkpt>
<trkpt lat="40.0728169" lon="-105.2306218">
  <ele>1596.51</ele>
  <time>2026-08-27T18:30:27Z</time>
  <course>349.43</course>
  <speed>0.03605551275463989</speed>
  <fix>3d</fix>
</trkpt>
<trkpt lat="40.0728169" lon="-105.2306222">
  <ele>1596.41</ele>
  <time>2026-08-27T18:30:27Z</time>
  <course>355.84</course>
  <speed>0.03</speed>
  <fix>3d</fix>
</trkpt>
<trkpt lat="40.072817" lon="-105.2306218">
  <ele>1596.51</ele>
  <time>2026-08-27T18:30:27Z</time>
  <course>349.46</course>
  <speed>0.03605551275463989</speed>
  <fix>3d</fix>
</trkpt>
<trkpt lat="40.072817" lon="-105.2306222">
  <ele>1596.41</ele>
  <time>2026-08-27T18:30:27Z</time>
  <course>3.48</course>
  <speed>0.03</speed>
  <fix>3d</fix>
</trkpt>
<trkpt lat="40.072817" lon="-105.2306218">
  <ele>1596.51</ele>
  <time>2026-08-27T18:30:27Z</time>
  <course>349.46</course>
  <speed>0.0316227766016838</speed>
  <fix>3d</fix>
</trkpt>
<trkpt lat="40.072817" lon="-105.2306222">
  <ele>1596.41</ele>
  <time>2026-08-27T18:30:27Z</time>
  <course>12.21</course>
  <speed>0.03</speed>
  <fix>3d</fix>
</trkpt>
<trkpt lat="40.0728171" lon="-105.2306218">
  <ele>1596.51</ele>
  <time>2026-08-27T18:30:27Z</time>
  <course>349.47</course>
  <speed>0.0412310562561766</speed>
  <fix>3d</fix>
</trkpt>
<trkpt lat="40.0728171" lon="-105.2306222">
  <ele>1596.41</ele>
  <time>2026-08-27T18:30:27Z</time>
  <course>21.69</course>
  <speed>0.02</speed>
  <fix>3d</fix>
</trkpt>
<trkpt lat="40.0728171" lon="-105.2306218">
  <ele>1596.51</ele>
  <time>2026-08-27T18:30:27Z</time>
  <course>349.49</course>
  <speed>0.04</speed>
  <fix>3d</fix>
</trkpt>
<trkpt lat="40.0728171" lon="-105.2306222">
  <ele>1596.41</ele>
  <time>2026-08-27T18:30:27Z</time>
  <course>32.04</course>
  <speed>0.02</speed>
  <fix>3d</fix>
</trkpt>
<trkpt lat="40.0728171" lon="-105.2306218">
  <ele>1596.51</ele>
  <time>2026-08-27T18:30:27Z</time>
  <course>349.5</course>
  <speed>0.04</speed>
  <fix>3d</fix>
</trkpt>
<trkpt lat="40.0728172" lon="-105.2306222">
  <ele>1596.41</ele>
  <time>2026-08-27T18:30:27Z</time>
  <course>43.58</course>
  <speed>0.02</speed>
  <fix>3d</fix>
</trkpt>
<trkpt lat="40.0728171" lon="-105.2306218">
  <ele>1596.51</ele>
  <time>2026-08-27T18:30:27Z</time>
  <course>349.51</course>
  <speed>0.04</speed>
  <fix>3d</fix>
</trkpt>
<trkpt lat="40.0728172" lon="-105.2306221">
  <ele>1596.41</ele>
  <time>2026-08-27T18:30:27Z</time>
  <course>54.8</course>
  <speed>0.02</speed>
  <fix>3d</fix>
</trkpt>
<trkpt lat="40.0728171" lon="-105.2306217">
  <ele>1596.5</ele>
  <time>2026-08-27T18:30:27Z</time>
  <course>349.49</course>
  <speed>0.04</speed>
  <fix>3d</fix>
</trkpt>
<trkpt lat="40.0728172" lon="-105.230622">
  <ele>1596.41</ele>
  <time>2026-08-27T18:30:27Z</time>
  <course>65.17</course>
  <speed>0.02</speed>
  <fix>3d</fix>
</trkpt>
<trkpt lat="40.0728171" lon="-105.2306217">
  <ele>1596.5</ele>
  <time>2026-08-27T18:30:27Z</time>
  <course>349.48</course>
  <speed>0.04</speed>
  <fix>3d</fix>
</trkpt>
<trkpt lat="40.0728172" lon="-105.230622">
  <ele>1596.41</ele>
  <time>2026-08-27T18:30:27Z</time>
  <course>75.89</course>
  <speed>0.02</speed>
  <fix>3d</fix>
</trkpt>
<trkpt lat="40.0728171" lon="-105.2306216">
  <ele>1596.49</ele>
  <time>2026-08-27T18:30:27Z</time>
  <course>349.46</course>
  <speed>0.0412310562561766</speed>
  <fix>3d</fix>
</trkpt>
<trkpt lat="40.0728172" lon="-105.2306219">
  <ele>1596.41</ele>
  <time>2026-08-27T18:30:27Z</time>
  <course>87.33</course>
  <speed>0.02</speed>
  <fix>3d</fix>
</trkpt>
<trkpt lat="40.0728171" lon="-105.2306216">
  <ele>1596.5</ele>
  <time>2026-08-27T18:30:27Z</time>
  <course>349.42</course>
  <speed>0.0412310562561766</speed>
  <fix>3d</fix>
</trkpt>
<trkpt lat="40.0728172" lon="-105.2306218">
  <ele>1596.42</ele>
  <time>2026-08-27T18:30:27Z</time>
  <course>97.87</course>
  <speed>0.02</speed>
  <fix>3d</fix>
</trkpt>
<trkpt lat="40.0728171" lon="-105.2306215">
  <ele>1596.5</ele>
  <time>2026-08-27T18:30:27Z</time>
  <course>349.42</course>
  <speed>0.0412310562561766</speed>
  <fix>3d</fix>
</trkpt>
<trkpt lat="40.0728172" lon="-105.2306218">
  <ele>1596.42</ele>
  <time>2026-08-27T18:30:27Z</time>
  <course>106.91</course>
  <speed>0.02</speed>
  <fix>3d</fix>
</trkpt>
<trkpt lat="40.0728171" lon="-105.2306215">
  <ele>1596.5</ele>
  <time>2026-08-27T18:30:27Z</time>
  <course>349.43</course>
  <speed>0.044721359549995794</speed>
  <fix>3d</fix>
</trkpt>
<trkpt lat="40.0728172" lon="-105.2306218">
  <ele>1596.42</ele>
  <time>2026-08-27T18:30:27Z</time>
  <course>116.13</course>
  <speed>0.02</speed>
  <fix>3d</fix>
</trkpt>
<trkpt lat="40.0728171" lon="-105.2306215">
  <ele>1596.51</ele>
  <time>2026-08-27T18:30:28Z</time>
  <course>349.43</course>
  <speed>0.03605551275463989</speed>
  <fix>3d</fix>
</trkpt>
<trkpt lat="40.0728172" lon="-105.2306218">
  <ele>1596.43</ele>
  <time>2026-08-27T18:30:28Z</time>
  <course>125.24</course>
  <speed>0.01</speed>
  <fix>3d</fix>
</trkpt>
<trkpt lat="40.0728171" lon="-105.2306215">
  <ele>1596.51</ele>
  <time>2026-08-27T18:30:28Z</time>
  <course>349.44</course>
  <speed>0.03605551275463989</speed>
  <fix>3d</fix>
</trkpt>
<trkpt lat="40.0728172" lon="-105.2306217">
  <ele>1596.43</ele>
  <time>2026-08-27T18:30:28Z</time>
  <course>133.36</course>
  <speed>0.01</speed>
  <fix>3d</fix>
</trkpt>
<trkpt lat="40.0728171" lon="-105.2306214">
  <ele>1596.52</ele>
  <time>2026-08-27T18:30:28Z</time>
  <course>349.44</course>
  <speed>0.03605551275463989</speed>
  <fix>3d</fix>
</trkpt>
<trkpt lat="40.0728172" lon="-105.2306217">
  <ele>1596.43</ele>
  <time>2026-08-27T18:30:28Z</time>
  <course>141.22</course>
  <speed>0.01</speed>
  <fix>3d</fix>
</trkpt>
<trkpt lat="40.0728171" lon="-105.2306214">
  <ele>1596.52</ele>
  <time>2026-08-27T18:30:28Z</time>
  <course>349.45</course>
  <speed>0.03605551275463989</speed>
  <fix>3d</fix>
</trkpt>
<trkpt lat="40.0728172" lon="-105.2306217">
  <ele>1596.43</ele>
  <time>2026-08-27T18:30:28Z</time>
  <course>148.93</course>
  <speed>0.01</speed>
  <fix>3d</fix>
</trkpt>
<trkpt lat="40.0728171" lon="-105.2306214">
  <ele>1596.52</ele>
  <time>2026-08-27T18:30:28Z</time>
  <course>349.48</course>
  <speed>0.03605551275463989</speed>
  <fix>3d</fix>
</trkpt>
<trkpt lat="40.0728172" lon="-105.2306217">
  <ele>1596.44</ele>
  <time>2026-08-27T18:30:28Z</time>
  <course>156.29</course>
  <speed>0.01</speed>
  <fix>3d</fix>
</trkpt>
<trkpt lat="40.0728171" lon="-105.2306214">
  <ele>1596.52</ele>
  <time>2026-08-27T18:30:28Z</time>
  <course>349.5</course>
  <speed>0.0282842712474619</speed>
  <fix>3d</fix>
</trkpt>
<trkpt lat="40.0728172" lon="-105.2306217">
  <ele>1596.44</ele>
  <time>2026-08-27T18:30:28Z</time>
  <course>162.93</course>
  <speed>0.01</speed>
  <fix>3d</fix>
</trkpt>
<trkpt lat="40.0728171" lon="-105.2306214">
  <ele>1596.52</ele>
  <time>2026-08-27T18:30:28Z</time>
  <course>349.52</course>
  <speed>0.022360679774997897</speed>
  <fix>3d</fix>
</trkpt>
<trkpt lat="40.0728171" lon="-105.2306217">
  <ele>1596.43</ele>
  <time>2026-08-27T18:30:28Z</time>
  <course>168.7</course>
  <speed>0.01</speed>
  <fix>3d</fix>
</trkpt>
<trkpt lat="40.072817" lon="-105.2306214">
  <ele>1596.52</ele>
  <time>2026-08-27T18:30:28Z</time>
  <course>349.52</course>
  <speed>0.022360679774997897</speed>
  <fix>3d</fix>
</trkpt>
<trkpt lat="40.0728171" lon="-105.2306217">
  <ele>1596.43</ele>
  <time>2026-08-27T18:30:28Z</time>
  <course>174.35</course>
  <speed>0.01</speed>
  <fix>3d</fix>
</trkpt>
<trkpt lat="40.072817" lon="-105.2306214">
  <ele>1596.52</ele>
  <time>2026-08-27T18:30:28Z</time>
  <course>349.53</course>
  <speed>0.022360679774997897</speed>
  <fix>3d</fix>
</trkpt>
<trkpt lat="40.0728171" lon="-105.2306217">
  <ele>1596.43</ele>
  <time>2026-08-27T18:30:28Z</time>
  <course>181.26</course>
  <speed>0.01</speed>
  <fix>3d</fix>
</trkpt>
<trkpt lat="40.072817" lon="-105.2306214">
  <ele>1596.51</ele>
  <time>2026-08-27T18:30:28Z</time>
  <course>349.53</course>
  <speed>0.022360679774997897</speed>
  <fix>3d</fix>
</trkpt>
<trkpt lat="40.0728171" lon="-105.2306217">
  <ele>1596.43</ele>
  <time>2026-08-27T18:30:28Z</time>
  <course>189.06</course>
  <speed>0.0</speed>
  <fix>3d</fix>
</trkpt>
<trkpt lat="40.072817" lon="-105.2306214">
  <ele>1596.52</ele>
  <time>2026-08-27T18:30:28Z</time>
  <course>349.51</course>
  <speed>0.022360679774997897</speed>
  <fix>3d</fix>
</trkpt>
<trkpt lat="40.0728171" lon="-105.2306217">
  <ele>1596.43</ele>
  <time>2026-08-27T18:30:28Z</time>
  <course>195.54</course>
  <speed>0.0</speed>
  <fix>3d</fix>
</trkpt>
<trkpt lat="40.072817" lon="-105.2306215">
  <ele>1596.51</ele>
  <time>2026-08-27T18:30:28Z</time>
  <course>349.49</course>
  <speed>0.022360679774997897</speed>
  <fix>3d</fix>
</trkpt>
<trkpt lat="40.072817" lon="-105.2306217">
  <ele>1596.43</ele>
  <time>2026-08-27T18:30:28Z</time>
  <course>202.3</course>
  <speed>0.0</speed>
  <fix>3d</fix>
</trkpt>
<trkpt lat="40.072817" lon="-105.2306215">
  <ele>1596.51</ele>
  <time>2026-08-27T18:30:28Z</time>
  <course>349.48</course>
  <speed>0.022360679774997897</speed>
  <fix>3d</fix>
</trkpt>
<trkpt lat="40.072817" lon="-105.2306217">
  <ele>1596.43</ele>
  <time>2026-08-27T18:30:28Z</time>
  <course>212.8</course>
  <speed>0.0</speed>
  <fix>3d</fix>
</trkpt>
<trkpt lat="40.072817" lon="-105.2306215">
  <ele>1596.51</ele>
  <time>2026-08-27T18:30:28Z</time>
  <course>349.47</course>
  <speed>0.02</speed>
  <fix>3d</fix>
</trkpt>
<trkpt lat="40.072817" lon="-105.2306217">
  <ele>1596.43</ele>
  <time>2026-08-27T18:30:28Z</time>
  <course>227.07</course>
  <speed>0.0</speed>
  <fix>3d</fix>
</trkpt>
<trkpt lat="40.072817" lon="-105.2306215">
  <ele>1596.51</ele>
  <time>2026-08-27T18:30:28Z</time>
  <course>349.46</course>
  <speed>0.02</speed>
  <fix>3d</fix>
</trkpt>
<trkpt lat="40.072817" lon="-105.2306217">
  <ele>1596.42</ele>
  <time>2026-08-27T18:30:28Z</time>
  <course>243.83</course>
  <speed>0.0</speed>
  <fix>3d</fix>
</trkpt>
<trkpt lat="40.072817" lon="-105.2306215">
  <ele>1596.51</ele>
  <time>2026-08-27T18:30:28Z</time>
  <course>349.45</course>
  <speed>0.02</speed>
  <fix>3d</fix>
</trkpt>
<trkpt lat="40.072817" lon="-105.2306217">
  <ele>1596.42</ele>
  <time>2026-08-27T18:30:28Z</time>
  <course>260.73</course>
  <speed>0.0</speed>
  <fix>3d</fix>
</trkpt>
<trkpt lat="40.072817" lon="-105.2306215">
  <ele>1596.51</ele>
  <time>2026-08-27T18:30:28Z</time>
  <course>349.46</course>
  <speed>0.02</speed>
  <fix>3d</fix>
</trkpt>
<trkpt lat="40.072817" lon="-105.2306217">
  <ele>1596.42</ele>
  <time>2026-08-27T18:30:28Z</time>
  <course>275.3</course>
  <speed>0.0</speed>
  <fix>3d</fix>
</trkpt>
<trkpt lat="40.072817" lon="-105.2306215">
  <ele>1596.51</ele>
  <time>2026-08-27T18:30:28Z</time>
  <course>349.46</course>
  <speed>0.02</speed>
  <fix>3d</fix>
</trkpt>
<trkpt lat="40.072817" lon="-105.2306217">
  <ele>1596.42</ele>
  <time>2026-08-27T18:30:28Z</time>
  <course>287.4</course>
  <speed>0.0</speed>
  <fix>3d</fix>
</trkpt>
<trkpt lat="40.072817" lon="-105.2306215">
  <ele>1596.51</ele>
  <time>2026-08-27T18:30:28Z</time>
  <course>349.45</course>
  <speed>0.02</speed>
  <fix>3d</fix>
</trkpt>
<trkpt lat="40.072817" lon="-105.2306217">
  <ele>1596.42</ele>
  <time>2026-08-27T18:30:28Z</time>
  <course>296.21</course>
  <speed>0.0</speed>
  <fix>3d</fix>
</trkpt>
<trkpt lat="40.072817" lon="-105.2306215">
  <ele>1596.52</ele>
  <time>2026-08-27T18:30:28Z</time>
  <course>349.45</course>
  <speed>0.02</speed>
  <fix>3d</fix>
</trkpt>
<trkpt lat="40.072817" lon="-105.2306217">
  <ele>1596.42</ele>
  <time>2026-08-27T18:30:28Z</time>
  <course>299.93</course>
  <speed>0.0</speed>
  <fix>3d</fix>
</trkpt>
<trkpt lat="40.072817" lon="-105.2306215">
  <ele>1596.52</ele>
  <time>2026-08-27T18:30:28Z</time>
  <course>349.44</course>
  <speed>0.02</speed>
  <fix>3d</fix>
</trkpt>
<trkpt lat="40.072817" lon="-105.2306217">
  <ele>1596.42</ele>
  <time>2026-08-27T18:30:28Z</time>
  <course>303.17</course>
  <speed>0.0</speed>
  <fix>3d</fix>
</trkpt>
<trkpt lat="40.072817" lon="-105.2306215">
  <ele>1596.51</ele>
  <time>2026-08-27T18:30:28Z</time>
  <course>349.45</course>
  <speed>0.02</speed>
  <fix>3d</fix>
</trkpt>
<trkpt lat="40.072817" lon="-105.2306217">
  <ele>1596.42</ele>
  <time>2026-08-27T18:30:28Z</time>
  <course>307.85</course>
  <speed>0.0</speed>
  <fix>3d</fix>
</trkpt>
<trkpt lat="40.072817" lon="-105.2306215">
  <ele>1596.51</ele>
  <time>2026-08-27T18:30:28Z</time>
  <course>349.45</course>
  <speed>0.02</speed>
  <fix>3d</fix>
</trkpt>
<trkpt lat="40.072817" lon="-105.2306217">
  <ele>1596.42</ele>
  <time>2026-08-27T18:30:28Z</time>
  <course>313.17</course>
  <speed>0.0</speed>
  <fix>3d</fix>
</trkpt>
<trkpt lat="40.072817" lon="-105.2306215">
  <ele>1596.51</ele>
  <time>2026-08-27T18:30:28Z</time>
  <course>349.44</course>
  <speed>0.02</speed>
  <fix>3d</fix>
</trkpt>
<trkpt lat="40.072817" lon="-105.2306217">
  <ele>1596.42</ele>
  <time>2026-08-27T18:30:28Z</time>
  <course>319.82</course>
  <speed>0.0</speed>
  <fix>3d</fix>
</trkpt>
<trkpt lat="40.072817" lon="-105.2306215">
  <ele>1596.51</ele>
  <time>2026-08-27T18:30:28Z</time>
  <course>349.44</course>
  <speed>0.02</speed>
  <fix>3d</fix>
</trkpt>
<trkpt lat="40.072817" lon="-105.2306217">
  <ele>1596.42</ele>
  <time>2026-08-27T18:30:28Z</time>
  <course>326.4</course>
  <speed>0.0</speed>
  <fix>3d</fix>
</trkpt>
<trkpt lat="40.072817" lon="-105.2306215">
  <ele>1596.51</ele>
  <time>2026-08-27T18:30:28Z</time>
  <course>349.43</course>
  <speed>0.02</speed>
  <fix>3d</fix>
</trkpt>
<trkpt lat="40.072817" lon="-105.2306218">
  <ele>1596.42</ele>
  <time>2026-08-27T18:30:28Z</time>
  <course>330.94</course>
  <speed>0.0</speed>
  <fix>3d</fix>
</trkpt>
<trkpt lat="40.072817" lon="-105.2306215">
  <ele>1596.5</ele>
  <time>2026-08-27T18:30:28Z</time>
  <course>349.43</course>
  <speed>0.02</speed>
  <fix>3d</fix>
</trkpt>
<trkpt lat="40.072817" lon="-105.2306218">
  <ele>1596.42</ele>
  <time>2026-08-27T18:30:28Z</time>
  <course>333.55</course>
  <speed>0.0</speed>
  <fix>3d</fix>
</trkpt>
<trkpt lat="40.072817" lon="-105.2306215">
  <ele>1596.5</ele>
  <time>2026-08-27T18:30:28Z</time>
  <course>349.43</course>
  <speed>0.02</speed>
  <fix>3d</fix>
</trkpt>
<trkpt lat="40.072817" lon="-105.2306218">
  <ele>1596.42</ele>
  <time>2026-08-27T18:30:28Z</time>
  <course>334.71</course>
  <speed>0.0</speed>
  <fix>3d</fix>
</trkpt>
<trkpt lat="40.072817" lon="-105.2306215">
  <ele>1596.5</ele>
  <time>2026-08-27T18:30:28Z</time>
  <course>349.42</course>
  <speed>0.02</speed>
  <fix>3d</fix>
</trkpt>
<trkpt lat="40.072817" lon="-105.2306218">
  <ele>1596.42</ele>
  <time>2026-08-27T18:30:28Z</time>
  <course>333.98</course>
  <speed>0.01</speed>
  <fix>3d</fix>
</trkpt>
<trkpt lat="40.072817" lon="-105.2306215">
  <ele>1596.5</ele>
  <time>2026-08-27T18:30:28Z</time>
  <course>349.4</course>
  <speed>0.02</speed>
  <fix>3d</fix>
</trkpt>
<trkpt lat="40.0728171" lon="-105.2306218">
  <ele>1596.42</ele>
  <time>2026-08-27T18:30:28Z</time>
  <course>331.9</course>
  <speed>0.01</speed>
  <fix>3d</fix>
</trkpt>
<trkpt lat="40.072817" lon="-105.2306215">
  <ele>1596.49</ele>
  <time>2026-08-27T18:30:28Z</time>
  <course>349.39</course>
  <speed>0.02</speed>
  <fix>3d</fix>
</trkpt>
<trkpt lat="40.0728171" lon="-105.2306218">
  <ele>1596.42</ele>
  <time>2026-08-27T18:30:28Z</time>
  <course>329.5</course>
  <speed>0.0</speed>
  <fix>3d</fix>
</trkpt>
<trkpt lat="40.072817" lon="-105.2306215">
  <ele>1596.49</ele>
  <time>2026-08-27T18:30:28Z</time>
  <course>349.37</course>
  <speed>0.02</speed>
  <fix>3d</fix>
</trkpt>
<trkpt lat="40.0728171" lon="-105.2306218">
  <ele>1596.42</ele>
  <time>2026-08-27T18:30:28Z</time>
  <course>328.04</course>
  <speed>0.0</speed>
  <fix>3d</fix>
</trkpt>
<trkpt lat="40.072817" lon="-105.2306215">
  <ele>1596.49</ele>
  <time>2026-08-27T18:30:28Z</time>
  <course>349.35</course>
  <speed>0.02</speed>
  <fix>3d</fix>
</trkpt>
<trkpt lat="40.0728171" lon="-105.2306218">
  <ele>1596.43</ele>
  <time>2026-08-27T18:30:28Z</time>
  <course>326.13</course>
  <speed>0.0</speed>
  <fix>3d</fix>
</trkpt>
<trkpt lat="40.072817" lon="-105.2306215">
  <ele>1596.5</ele>
  <time>2026-08-27T18:30:28Z</time>
  <course>349.34</course>
  <speed>0.02</speed>
  <fix>3d</fix>
</trkpt>
<trkpt lat="40.0728171" lon="-105.2306218">
  <ele>1596.43</ele>
  <time>2026-08-27T18:30:28Z</time>
  <course>321.99</course>
  <speed>0.0</speed>
  <fix>3d</fix>
</trkpt>
<trkpt lat="40.072817" lon="-105.2306215">
  <ele>1596.5</ele>
  <time>2026-08-27T18:30:28Z</time>
  <course>349.33</course>
  <speed>0.022360679774997897</speed>
  <fix>3d</fix>
</trkpt>
<trkpt lat="40.0728171" lon="-105.2306218">
  <ele>1596.43</ele>
  <time>2026-08-27T18:30:28Z</time>
  <course>317.18</course>
  <speed>0.0</speed>
  <fix>3d</fix>
</trkpt>
<trkpt lat="40.072817" lon="-105.2306215">
  <ele>1596.51</ele>
  <time>2026-08-27T18:30:28Z</time>
  <course>349.35</course>
  <speed>0.022360679774997897</speed>
  <fix>3d</fix>
</trkpt>
<trkpt lat="40.0728171" lon="-105.2306218">
  <ele>1596.44</ele>
  <time>2026-08-27T18:30:28Z</time>
  <course>312.29</course>
  <speed>0.0</speed>
  <fix>3d</fix>
</trkpt>
<trkpt lat="40.072817" lon="-105.2306215">
  <ele>1596.51</ele>
  <time>2026-08-27T18:30:28Z</time>
  <course>349.37</course>
  <speed>0.022360679774997897</speed>
  <fix>3d</fix>
</trkpt>
<trkpt lat="40.0728171" lon="-105.2306218">
  <ele>1596.44</ele>
  <time>2026-08-27T18:30:28Z</time>
  <course>308.67</course>
  <speed>0.0</speed>
  <fix>3d</fix>
</trkpt>
<trkpt lat="40.072817" lon="-105.2306215">
  <ele>1596.52</ele>
  <time>2026-08-27T18:30:28Z</time>
  <course>349.39</course>
  <speed>0.0316227766016838</speed>
  <fix>3d</fix>
</trkpt>
<trkpt lat="40.0728171" lon="-105.2306218">
  <ele>1596.44</ele>
  <time>2026-08-27T18:30:28Z</time>
  <course>306.84</course>
  <speed>0.0</speed>
  <fix>3d</fix>
</trkpt>
<trkpt lat="40.072817" lon="-105.2306215">
  <ele>1596.52</ele>
  <time>2026-08-27T18:30:28Z</time>
  <course>349.4</course>
  <speed>0.0316227766016838</speed>
  <fix>3d</fix>
</trkpt>
<trkpt lat="40.0728171" lon="-105.2306218">
  <ele>1596.44</ele>
  <time>2026-08-27T18:30:28Z</time>
  <course>301.59</course>
  <speed>0.0</speed>
  <fix>3d</fix>
</trkpt>
<trkpt lat="40.072817" lon="-105.2306215">
  <ele>1596.53</ele>
  <time>2026-08-27T18:30:28Z</time>
  <course>349.43</course>
  <speed>0.0316227766016838</speed>
  <fix>3d</fix>
</trkpt>
<trkpt lat="40.0728171" lon="-105.2306218">
  <ele>1596.45</ele>
  <time>2026-08-27T18:30:28Z</time>
  <course>299.36</course>
  <speed>0.0</speed>
  <fix>3d</fix>
</trkpt>
<trkpt lat="40.072817" lon="-105.2306215">
  <ele>1596.53</ele>
  <time>2026-08-27T18:30:28Z</time>
  <course>349.46</course>
  <speed>0.0316227766016838</speed>
  <fix>3d</fix>
</trkpt>
<trkpt lat="40.0728171" lon="-105.2306218">
  <ele>1596.44</ele>
  <time>2026-08-27T18:30:28Z</time>
  <course>310.26</course>
  <speed>0.0</speed>
  <fix>3d</fix>
</trkpt>
<trkpt lat="40.072817" lon="-105.2306215">
  <ele>1596.53</ele>
  <time>2026-08-27T18:30:28Z</time>
  <course>349.48</course>
  <speed>0.0316227766016838</speed>
  <fix>3d</fix>
</trkpt>
<trkpt lat="40.0728171" lon="-105.2306218">
  <ele>1596.44</ele>
  <time>2026-08-27T18:30:28Z</time>
  <course>321.64</course>
  <speed>0.0</speed>
  <fix>3d</fix>
</trkpt>
<trkpt lat="40.072817" lon="-105.2306215">
  <ele>1596.52</ele>
  <time>2026-08-27T18:30:28Z</time>
  <course>349.49</course>
  <speed>0.0316227766016838</speed>
  <fix>3d</fix>
</trkpt>
<trkpt lat="40.0728171" lon="-105.2306218">
  <ele>1596.44</ele>
  <time>2026-08-27T18:30:28Z</time>
  <course>332.5</course>
  <speed>0.0</speed>
  <fix>3d</fix>
</trkpt>
<trkpt lat="40.072817" lon="-105.2306215">
  <ele>1596.51</ele>
  <time>2026-08-27T18:30:28Z</time>
  <course>349.48</course>
  <speed>0.0316227766016838</speed>
  <fix>3d</fix>
</trkpt>
<trkpt lat="40.0728171" lon="-105.2306218">
  <ele>1596.43</ele>
  <time>2026-08-27T18:30:28Z</time>
  <course>343.24</course>
  <speed>0.0</speed>
  <fix>3d</fix>
</trkpt>
<trkpt lat="40.072817" lon="-105.2306215">
  <ele>1596.51</ele>
  <time>2026-08-27T18:30:28Z</time>
  <course>349.47</course>
  <speed>0.0316227766016838</speed>
  <fix>3d</fix>
</trkpt>
<trkpt lat="40.0728171" lon="-105.2306218">
  <ele>1596.43</ele>
  <time>2026-08-27T18:30:28Z</time>
  <course>342.01</course>
  <speed>0.0</speed>
  <fix>3d</fix>
</trkpt>
<trkpt lat="40.072817" lon="-105.2306215">
  <ele>1596.52</ele>
  <time>2026-08-27T18:30:28Z</time>
  <course>349.46</course>
  <speed>0.0316227766016838</speed>
  <fix>3d</fix>
</trkpt>
<trkpt lat="40.0728171" lon="-105.2306218">
  <ele>1596.43</ele>
  <time>2026-08-27T18:30:28Z</time>
  <course>333.88</course>
  <speed>0.0</speed>
  <fix>3d</fix>
</trkpt>
<trkpt lat="40.072817" lon="-105.2306215">
  <ele>1596.52</ele>
  <time>2026-08-27T18:30:28Z</time>
  <course>349.47</course>
  <speed>0.022360679774997897</speed>
  <fix>3d</fix>
</trkpt>
<trkpt lat="40.0728171" lon="-105.2306218">
  <ele>1596.43</ele>
  <time>2026-08-27T18:30:28Z</time>
  <course>322.85</course>
  <speed>0.0</speed>
  <fix>3d</fix>
</trkpt>
<trkpt lat="40.072817" lon="-105.2306215">
  <ele>1596.51</ele>
  <time>2026-08-27T18:30:28Z</time>
  <course>349.46</course>
  <speed>0.022360679774997897</speed>
  <fix>3d</fix>
</trkpt>
<trkpt lat="40.0728171" lon="-105.2306218">
  <ele>1596.43</ele>
  <time>2026-08-27T18:30:28Z</time>
  <course>316.5</course>
  <speed>0.0</speed>
  <fix>3d</fix>
</trkpt>
<trkpt lat="40.072817" lon="-105.2306215">
  <ele>1596.51</ele>
  <time>2026-08-27T18:30:28Z</time>
  <course>349.46</course>
  <speed>0.022360679774997897</speed>
  <fix>3d</fix>
</trkpt>
<trkpt lat="40.0728171" lon="-105.2306218">
  <ele>1596.43</ele>
  <time>2026-08-27T18:30:28Z</time>
  <course>315.92</course>
  <speed>0.0</speed>
  <fix>3d</fix>
</trkpt>
<trkpt lat="40.072817" lon="-105.2306215">
  <ele>1596.51</ele>
  <time>2026-08-27T18:30:28Z</time>
  <course>349.45</course>
  <speed>0.022360679774997897</speed>
  <fix>3d</fix>
</trkpt>
<trkpt lat="40.0728171" lon="-105.2306218">
  <ele>1596.43</ele>
  <time>2026-08-27T18:30:28Z</time>
  <course>315.6</course>
  <speed>0.0</speed>
  <fix>3d</fix>
</trkpt>
<trkpt lat="40.072817" lon="-105.2306215">
  <ele>1596.5</ele>
  <time>2026-08-27T18:30:28Z</time>
  <course>349.44</course>
  <speed>0.022360679774997897</speed>
  <fix>3d</fix>
</trkpt>
<trkpt lat="40.0728171" lon="-105.2306218">
  <ele>1596.43</ele>
  <time>2026-08-27T18:30:28Z</time>
  <course>315.23</course>
  <speed>0.0</speed>
  <fix>3d</fix>
</trkpt>
<trkpt lat="40.072817" lon="-105.2306215">
  <ele>1596.5</ele>
  <time>2026-08-27T18:30:28Z</time>
  <course>349.43</course>
  <speed>0.022360679774997897</speed>
  <fix>3d</fix>
</trkpt>
<trkpt lat="40.0728172" lon="-105.2306218">
  <ele>1596.43</ele>
  <time>2026-08-27T18:30:28Z</time>
  <course>314.24</course>
  <speed>0.0</speed>
  <fix>3d</fix>
</trkpt>
<trkpt lat="40.072817" lon="-105.2306215">
  <ele>1596.51</ele>
  <time>2026-08-27T18:30:28Z</time>
  <course>349.42</course>
  <speed>0.022360679774997897</speed>
  <fix>3d</fix>
</trkpt>
<trkpt lat="40.0728172" lon="-105.2306218">
  <ele>1596.43</ele>
  <time>2026-08-27T18:30:28Z</time>
  <course>312.95</course>
  <speed>0.0</speed>
  <fix>3d</fix>
</trkpt>
<trkpt lat="40.072817" lon="-105.2306215">
  <ele>1596.51</ele>
  <time>2026-08-27T18:30:28Z</time>
  <course>349.4</course>
  <speed>0.02</speed>
  <fix>3d</fix>
</trkpt>
<trkpt lat="40.0728172" lon="-105.2306218">
  <ele>1596.43</ele>
  <time>2026-08-27T18:30:28Z</time>
  <course>311.32</course>
  <speed>0.0</speed>
  <fix>3d</fix>
</trkpt>
<trkpt lat="40.072817" lon="-105.2306215">
  <ele>1596.51</ele>
  <time>2026-08-27T18:30:28Z</time>
  <course>349.39</course>
  <speed>0.02</speed>
  <fix>3d</fix>
</trkpt>
<trkpt lat="40.0728172" lon="-105.2306218">
  <ele>1596.43</ele>
  <time>2026-08-27T18:30:28Z</time>
  <course>309.07</course>
  <speed>0.0</speed>
  <fix>3d</fix>
</trkpt>
<trkpt lat="40.072817" lon="-105.2306215">
  <ele>1596.51</ele>
  <time>2026-08-27T18:30:28Z</time>
  <course>349.37</course>
  <speed>0.02</speed>
  <fix>3d</fix>
</trkpt>
<trkpt lat="40.0728172" lon="-105.2306218">
  <ele>1596.43</ele>
  <time>2026-08-27T18:30:28Z</time>
  <course>306.97</course>
  <speed>0.0</speed>
  <fix>3d</fix>
</trkpt>
<trkpt lat="40.072817" lon="-105.2306215">
  <ele>1596.51</ele>
  <time>2026-08-27T18:30:28Z</time>
  <course>349.37</course>
  <speed>0.022360679774997897</speed>
  <fix>3d</fix>
</trkpt>
<trkpt lat="40.0728172" lon="-105.2306218">
  <ele>1596.43</ele>
  <time>2026-08-27T18:30:28Z</time>
  <course>303.49</course>
  <speed>0.0</speed>
  <fix>3d</fix>
</trkpt>
<trkpt lat="40.072817" lon="-105.2306215">
  <ele>1596.51</ele>
  <time>2026-08-27T18:30:28Z</time>
  <course>349.36</course>
  <speed>0.022360679774997897</speed>
  <fix>3d</fix>
</trkpt>
<trkpt lat="40.0728172" lon="-105.2306219">
  <ele>1596.43</ele>
  <time>2026-08-27T18:30:28Z</time>
  <course>295.03</course>
  <speed>0.0</speed>
  <fix>3d</fix>
</trkpt>
<trkpt lat="40.072817" lon="-105.2306215">
  <ele>1596.51</ele>
  <time>2026-08-27T18:30:28Z</time>
  <course>349.36</course>
  <speed>0.022360679774997897</speed>
  <fix>3d</fix>
</trkpt>
<trkpt lat="40.0728172" lon="-105.230622">
  <ele>1596.43</ele>
  <time>2026-08-27T18:30:28Z</time>
  <course>278.5</course>
  <speed>0.0</speed>
  <fix>3d</fix>
</trkpt>
<trkpt lat="40.072817" lon="-105.2306215">
  <ele>1596.51</ele>
  <time>2026-08-27T18:30:28Z</time>
  <course>349.35</course>
  <speed>0.022360679774997897</speed>
  <fix>3d</fix>
</trkpt>
<trkpt lat="40.0728172" lon="-105.230622">
  <ele>1596.43</ele>
  <time>2026-08-27T18:30:28Z</time>
  <course>248.78</course>
  <speed>0.0</speed>
  <fix>3d</fix>
</trkpt>
<trkpt lat="40.072817" lon="-105.2306215">
  <ele>1596.51</ele>
  <time>2026-08-27T18:30:28Z</time>
  <course>349.35</course>
  <speed>0.022360679774997897</speed>
  <fix>3d</fix>
</trkpt>
<trkpt lat="40.0728172" lon="-105.230622">
  <ele>1596.43</ele>
  <time>2026-08-27T18:30:28Z</time>
  <course>217.2</course>
  <speed>0.0</speed>
  <fix>3d</fix>
</trkpt>
<trkpt lat="40.072817" lon="-105.2306215">
  <ele>1596.51</ele>
  <time>2026-08-27T18:30:28Z</time>
  <course>349.35</course>
  <speed>0.022360679774997897</speed>
  <fix>3d</fix>
</trkpt>
<trkpt lat="40.0728172" lon="-105.230622">
  <ele>1596.43</ele>
  <time>2026-08-27T18:30:28Z</time>
  <course>192.32</course>
  <speed>0.0</speed>
  <fix>3d</fix>
</trkpt>
<trkpt lat="40.072817" lon="-105.2306215">
  <ele>1596.51</ele>
  <time>2026-08-27T18:30:28Z</time>
  <course>349.35</course>
  <speed>0.0316227766016838</speed>
  <fix>3d</fix>
</trkpt>
<trkpt lat="40.0728172" lon="-105.230622">
  <ele>1596.43</ele>
  <time>2026-08-27T18:30:28Z</time>
  <course>173.91</course>
  <speed>0.0</speed>
  <fix>3d</fix>
</trkpt>
<trkpt lat="40.072817" lon="-105.2306215">
  <ele>1596.51</ele>
  <time>2026-08-27T18:30:28Z</time>
  <course>349.36</course>
  <speed>0.0316227766016838</speed>
  <fix>3d</fix>
</trkpt>
<trkpt lat="40.0728172" lon="-105.230622">
  <ele>1596.43</ele>
  <time>2026-08-27T18:30:28Z</time>
  <course>162.97</course>
  <speed>0.0</speed>
  <fix>3d</fix>
</trkpt>
<trkpt lat="40.072817" lon="-105.2306216">
  <ele>1596.52</ele>
  <time>2026-08-27T18:30:28Z</time>
  <course>349.36</course>
  <speed>0.0316227766016838</speed>
  <fix>3d</fix>
</trkpt>
<trkpt lat="40.0728172" lon="-105.230622">
  <ele>1596.43</ele>
  <time>2026-08-27T18:30:28Z</time>
  <course>153.64</course>
  <speed>0.0</speed>
  <fix>3d</fix>
</trkpt>
<trkpt lat="40.072817" lon="-105.2306216">
  <ele>1596.52</ele>
  <time>2026-08-27T18:30:28Z</time>
  <course>349.38</course>
  <speed>0.0316227766016838</speed>
  <fix>3d</fix>
</trkpt>
<trkpt lat="40.0728172" lon="-105.230622">
  <ele>1596.43</ele>
  <time>2026-08-27T18:30:28Z</time>
  <course>145.41</course>
  <speed>0.01</speed>
  <fix>3d</fix>
</trkpt>
<trkpt lat="40.072817" lon="-105.2306216">
  <ele>1596.52</ele>
  <time>2026-08-27T18:30:28Z</time>
  <course>349.39</course>
  <speed>0.0316227766016838</speed>
  <fix>3d</fix>
</trkpt>
<trkpt lat="40.0728172" lon="-105.230622">
  <ele>1596.43</ele>
  <time>2026-08-27T18:30:28Z</time>
  <course>138.58</course>
  <speed>0.01</speed>
  <fix>3d</fix>
</trkpt>
<trkpt lat="40.072817" lon="-105.2306216">
  <ele>1596.52</ele>
  <time>2026-08-27T18:30:28Z</time>
  <course>349.4</course>
  <speed>0.0316227766016838</speed>
  <fix>3d</fix>
</trkpt>
<trkpt lat="40.0728172" lon="-105.230622">
  <ele>1596.43</ele>
  <time>2026-08-27T18:30:28Z</time>
  <course>132.42</course>
  <speed>0.01</speed>
  <fix>3d</fix>
</trkpt>
<trkpt lat="40.072817" lon="-105.2306216">
  <ele>1596.52</ele>
  <time>2026-08-27T18:30:28Z</time>
  <course>349.41</course>
  <speed>0.0316227766016838</speed>
  <fix>3d</fix>
</trkpt>
<trkpt lat="40.0728172" lon="-105.230622">
  <ele>1596.43</ele>
  <time>2026-08-27T18:30:28Z</time>
  <course>126.19</course>
  <speed>0.01</speed>
  <fix>3d</fix>
</trkpt>
<trkpt lat="40.072817" lon="-105.2306216">
  <ele>1596.52</ele>
  <time>2026-08-27T18:30:28Z</time>
  <course>349.43</course>
  <speed>0.0316227766016838</speed>
  <fix>3d</fix>
</trkpt>
<trkpt lat="40.0728172" lon="-105.230622">
  <ele>1596.42</ele>
  <time>2026-08-27T18:30:28Z</time>
  <course>120.43</course>
  <speed>0.01</speed>
  <fix>3d</fix>
</trkpt>
<trkpt lat="40.072817" lon="-105.2306216">
  <ele>1596.52</ele>
  <time>2026-08-27T18:30:28Z</time>
  <course>349.44</course>
  <speed>0.0316227766016838</speed>
  <fix>3d</fix>
</trkpt>
<trkpt lat="40.0728172" lon="-105.2306219">
  <ele>1596.42</ele>
  <time>2026-08-27T18:30:28Z</time>
  <course>116.63</course>
  <speed>0.01</speed>
  <fix>3d</fix>
</trkpt>
<trkpt lat="40.072817" lon="-105.2306216">
  <ele>1596.52</ele>
  <time>2026-08-27T18:30:28Z</time>
  <course>349.45</course>
  <speed>0.0316227766016838</speed>
  <fix>3d</fix>
</trkpt>
<trkpt lat="40.0728172" lon="-105.2306218">
  <ele>1596.42</ele>
  <time>2026-08-27T18:30:28Z</time>
  <course>113.89</course>
  <speed>0.01</speed>
  <fix>3d</fix>
</trkpt>
<trkpt lat="40.072817" lon="-105.2306216">
  <ele>1596.51</ele>
  <time>2026-08-27T18:30:28Z</time>
  <course>349.45</course>
  <speed>0.0316227766016838</speed>
  <fix>3d</fix>
</trkpt>
<trkpt lat="40.0728172" lon="-105.2306218">
  <ele>1596.42</ele>
  <time>2026-08-27T18:30:28Z</time>
  <course>111.53</course>
  <speed>0.01</speed>
  <fix>3d</fix>
</trkpt>
<trkpt lat="40.072817" lon="-105.2306215">
  <ele>1596.51</ele>
  <time>2026-08-27T18:30:28Z</time>
  <course>349.42</course>
  <speed>0.0316227766016838</speed>
  <fix>3d</fix>
</trkpt>
<trkpt lat="40.0728171" lon="-105.2306218">
  <ele>1596.41</ele>
  <time>2026-08-27T18:30:28Z</time>
  <course>109.65</course>
  <speed>0.0</speed>
  <fix>3d</fix>
</trkpt>
<trkpt lat="40.072817" lon="-105.2306215">
  <ele>1596.51</ele>
  <time>2026-08-27T18:30:28Z</time>
  <course>349.41</course>
  <speed>0.0316227766016838</speed>
  <fix>3d</fix>
</trkpt>
<trkpt lat="40.0728171" lon="-105.2306218">
  <ele>1596.41</ele>
  <time>2026-08-27T18:30:28Z</time>
  <course>108.56</course>
  <speed>0.0</speed>
  <fix>3d</fix>
</trkpt>
<trkpt lat="40.072817" lon="-105.2306215">
  <ele>1596.51</ele>
  <time>2026-08-27T18:30:28Z</time>
  <course>349.39</course>
  <speed>0.0316227766016838</speed>
  <fix>3d</fix>
</trkpt>
<trkpt lat="40.0728171" lon="-105.2306218">
  <ele>1596.41</ele>
  <time>2026-08-27T18:30:28Z</time>
  <course>109.75</course>
  <speed>0.0</speed>
  <fix>3d</fix>
</trkpt>
<trkpt lat="40.072817" lon="-105.2306215">
  <ele>1596.51</ele>
  <time>2026-08-27T18:30:28Z</time>
  <course>349.38</course>
  <speed>0.0316227766016838</speed>
  <fix>3d</fix>
</trkpt>
<trkpt lat="40.0728171" lon="-105.2306218">
  <ele>1596.41</ele>
  <time>2026-08-27T18:30:28Z</time>
  <course>113.66</course>
  <speed>0.0</speed>
  <fix>3d</fix>
</trkpt>
<trkpt lat="40.072817" lon="-105.2306215">
  <ele>1596.51</ele>
  <time>2026-08-27T18:30:28Z</time>
  <course>349.37</course>
  <speed>0.0316227766016838</speed>
  <fix>3d</fix>
</trkpt>
<trkpt lat="40.0728171" lon="-105.2306218">
  <ele>1596.41</ele>
  <time>2026-08-27T18:30:28Z</time>
  <course>118.28</course>
  <speed>0.0</speed>
  <fix>3d</fix>
</trkpt>
<trkpt lat="40.072817" lon="-105.2306215">
  <ele>1596.51</ele>
  <time>2026-08-27T18:30:28Z</time>
  <course>349.36</course>
  <speed>0.0316227766016838</speed>
  <fix>3d</fix>
</trkpt>
<trkpt lat="40.0728171" lon="-105.2306218">
  <ele>1596.41</ele>
  <time>2026-08-27T18:30:28Z</time>
  <course>125.93</course>
  <speed>0.0</speed>
  <fix>3d</fix>
</trkpt>
<trkpt lat="40.072817" lon="-105.2306215">
  <ele>1596.5</ele>
  <time>2026-08-27T18:30:28Z</time>
  <course>349.36</course>
  <speed>0.022360679774997897</speed>
  <fix>3d</fix>
</trkpt>
<trkpt lat="40.0728171" lon="-105.2306218">
  <ele>1596.41</ele>
  <time>2026-08-27T18:30:28Z</time>
  <course>145.84</course>
  <speed>0.0</speed>
  <fix>3d</fix>
</trkpt>
<trkpt lat="40.072817" lon="-105.2306215">
  <ele>1596.5</ele>
  <time>2026-08-27T18:30:28Z</time>
  <course>349.35</course>
  <speed>0.022360679774997897</speed>
  <fix>3d</fix>
</trkpt>
<trkpt lat="40.0728171" lon="-105.2306218">
  <ele>1596.41</ele>
  <time>2026-08-27T18:30:28Z</time>
  <course>189.25</course>
  <speed>0.0</speed>
  <fix>3d</fix>
</trkpt>
<trkpt lat="40.072817" lon="-105.2306215">
  <ele>1596.5</ele>
  <time>2026-08-27T18:30:28Z</time>
  <course>349.35</course>
  <speed>0.022360679774997897</speed>
  <fix>3d</fix>
</trkpt>
<trkpt lat="40.0728171" lon="-105.2306218">
  <ele>1596.41</ele>
  <time>2026-08-27T18:30:28Z</time>
  <course>224.87</course>
  <speed>0.0</speed>
  <fix>3d</fix>
</trkpt>
<trkpt lat="40.072817" lon="-105.2306215">
  <ele>1596.5</ele>
  <time>2026-08-27T18:30:28Z</time>
  <course>349.33</course>
  <speed>0.022360679774997897</speed>
  <fix>3d</fix>
</trkpt>
<trkpt lat="40.0728171" lon="-105.2306218">
  <ele>1596.41</ele>
  <time>2026-08-27T18:30:28Z</time>
  <course>234.05</course>
  <speed>0.0</speed>
  <fix>3d</fix>
</trkpt>
<trkpt lat="40.072817" lon="-105.2306215">
  <ele>1596.5</ele>
  <time>2026-08-27T18:30:28Z</time>
  <course>349.32</course>
  <speed>0.022360679774997897</speed>
  <fix>3d</fix>
</trkpt>
<trkpt lat="40.0728171" lon="-105.2306218">
  <ele>1596.41</ele>
  <time>2026-08-27T18:30:28Z</time>
  <course>236.03</course>
  <speed>0.0</speed>
  <fix>3d</fix>
</trkpt>
<trkpt lat="40.072817" lon="-105.2306215">
  <ele>1596.5</ele>
  <time>2026-08-27T18:30:28Z</time>
  <course>349.32</course>
  <speed>0.022360679774997897</speed>
  <fix>3d</fix>
</trkpt>
<trkpt lat="40.0728171" lon="-105.2306218">
  <ele>1596.41</ele>
  <time>2026-08-27T18:30:28Z</time>
  <course>249.15</course>
  <speed>0.0</speed>
  <fix>3d</fix>
</trkpt>
<trkpt lat="40.072817" lon="-105.2306215">
  <ele>1596.5</ele>
  <time>2026-08-27T18:30:28Z</time>
  <course>349.32</course>
  <speed>0.022360679774997897</speed>
  <fix>3d</fix>
</trkpt>
<trkpt lat="40.0728171" lon="-105.2306218">
  <ele>1596.41</ele>
  <time>2026-08-27T18:30:28Z</time>
  <course>265.09</course>
  <speed>0.0</speed>
  <fix>3d</fix>
</trkpt>
<trkpt lat="40.072817" lon="-105.2306215">
  <ele>1596.5</ele>
  <time>2026-08-27T18:30:28Z</time>
  <course>349.32</course>
  <speed>0.022360679774997897</speed>
  <fix>3d</fix>
</trkpt>
<trkpt lat="40.0728171" lon="-105.2306218">
  <ele>1596.42</ele>
  <time>2026-08-27T18:30:28Z</time>
  <course>275.89</course>
  <speed>0.0</speed>
  <fix>3d</fix>
</trkpt>
<trkpt lat="40.072817" lon="-105.2306215">
  <ele>1596.51</ele>
  <time>2026-08-27T18:30:28Z</time>
  <course>349.32</course>
  <speed>0.02</speed>
  <fix>3d</fix>
</trkpt>
<trkpt lat="40.0728171" lon="-105.2306218">
  <ele>1596.42</ele>
  <time>2026-08-27T18:30:28Z</time>
  <course>288.87</course>
  <speed>0.0</speed>
  <fix>3d</fix>
</trkpt>
<trkpt lat="40.072817" lon="-105.2306215">
  <ele>1596.51</ele>
  <time>2026-08-27T18:30:28Z</time>
  <course>349.33</course>
  <speed>0.02</speed>
  <fix>3d</fix>
</trkpt>
<trkpt lat="40.0728171" lon="-105.2306218">
  <ele>1596.42</ele>
  <time>2026-08-27T18:30:28Z</time>
  <course>297.12</course>
  <speed>0.0</speed>
  <fix>3d</fix>
</trkpt>
<trkpt lat="40.072817" lon="-105.2306215">
  <ele>1596.51</ele>
  <time>2026-08-27T18:30:28Z</time>
  <course>349.33</course>
  <speed>0.02</speed>
  <fix>3d</fix>
</trkpt>
<trkpt lat="40.0728171" lon="-105.2306218">
  <ele>1596.42</ele>
  <time>2026-08-27T18:30:28Z</time>
  <course>300.21</course>
  <speed>0.0</speed>
  <fix>3d</fix>
</trkpt>
<trkpt lat="40.072817" lon="-105.2306215">
  <ele>1596.51</ele>
  <time>2026-08-27T18:30:28Z</time>
  <course>349.33</course>
  <speed>0.02</speed>
  <fix>3d</fix>
</trkpt>
<trkpt lat="40.0728171" lon="-105.2306218">
  <ele>1596.42</ele>
  <time>2026-08-27T18:30:28Z</time>
  <course>302.84</course>
  <speed>0.0</speed>
  <fix>3d</fix>
</trkpt>
<trkpt lat="40.072817" lon="-105.2306215">
  <ele>1596.51</ele>
  <time>2026-08-27T18:30:28Z</time>
  <course>349.34</course>
  <speed>0.02</speed>
  <fix>3d</fix>
</trkpt>
<trkpt lat="40.0728171" lon="-105.2306218">
  <ele>1596.42</ele>
  <time>2026-08-27T18:30:28Z</time>
  <course>304.13</course>
  <speed>0.0</speed>
  <fix>3d</fix>
</trkpt>
<trkpt lat="40.072817" lon="-105.2306215">
  <ele>1596.51</ele>
  <time>2026-08-27T18:30:28Z</time>
  <course>349.34</course>
  <speed>0.02</speed>
  <fix>3d</fix>
</trkpt>
<trkpt lat="40.0728171" lon="-105.2306218">
  <ele>1596.42</ele>
  <time>2026-08-27T18:30:28Z</time>
  <course>302.13</course>
  <speed>0.0</speed>
  <fix>3d</fix>
</trkpt>
<trkpt lat="40.072817" lon="-105.2306215">
  <ele>1596.52</ele>
  <time>2026-08-27T18:30:28Z</time>
  <course>349.34</course>
  <speed>0.02</speed>
  <fix>3d</fix>
</trkpt>
<trkpt lat="40.0728171" lon="-105.2306218">
  <ele>1596.42</ele>
  <time>2026-08-27T18:30:28Z</time>
  <course>301.8</course>
  <speed>0.0</speed>
  <fix>3d</fix>
</trkpt>
<trkpt lat="40.072817" lon="-105.2306215">
  <ele>1596.52</ele>
  <time>2026-08-27T18:30:28Z</time>
  <course>349.35</course>
  <speed>0.022360679774997897</speed>
  <fix>3d</fix>
</trkpt>
<trkpt lat="40.0728171" lon="-105.2306218">
  <ele>1596.42</ele>
  <time>2026-08-27T18:30:28Z</time>
  <course>308.47</course>
  <speed>0.0</speed>
  <fix>3d</fix>
</trkpt>
<trkpt lat="40.072817" lon="-105.2306215">
  <ele>1596.52</ele>
  <time>2026-08-27T18:30:28Z</time>
  <course>349.35</course>
  <speed>0.022360679774997897</speed>
  <fix>3d</fix>
</trkpt>
<trkpt lat="40.0728171" lon="-105.2306218">
  <ele>1596.42</ele>
  <time>2026-08-27T18:30:28Z</time>
  <course>317.46</course>
  <speed>0.0</speed>
  <fix>3d</fix>
</trkpt>
<trkpt lat="40.072817" lon="-105.2306215">
  <ele>1596.51</ele>
  <time>2026-08-27T18:30:28Z</time>
  <course>349.35</course>
  <speed>0.0316227766016838</speed>
  <fix>3d</fix>
</trkpt>
<trkpt lat="40.0728171" lon="-105.2306218">
  <ele>1596.42</ele>
  <time>2026-08-27T18:30:28Z</time>
  <course>326.42</course>
  <speed>0.0</speed>
  <fix>3d</fix>
</trkpt>
<trkpt lat="40.072817" lon="-105.2306215">
  <ele>1596.51</ele>
  <time>2026-08-27T18:30:28Z</time>
  <course>349.35</course>
  <speed>0.0316227766016838</speed>
  <fix>3d</fix>
</trkpt>
<trkpt lat="40.0728171" lon="-105.2306218">
  <ele>1596.42</ele>
  <time>2026-08-27T18:30:28Z</time>
  <course>333.96</course>
  <speed>0.0</speed>
  <fix>3d</fix>
</trkpt>
<trkpt lat="40.072817" lon="-105.2306215">
  <ele>1596.5</ele>
  <time>2026-08-27T18:30:28Z</time>
  <course>349.35</course>
  <speed>0.03</speed>
  <fix>3d</fix>
</trkpt>
<trkpt lat="40.0728171" lon="-105.2306218">
  <ele>1596.42</ele>
  <time>2026-08-27T18:30:28Z</time>
  <course>338.4</course>
  <speed>0.0</speed>
  <fix>3d</fix>
</trkpt>
<trkpt lat="40.072817" lon="-105.2306215">
  <ele>1596.5</ele>
  <time>2026-08-27T18:30:28Z</time>
  <course>349.34</course>
  <speed>0.0316227766016838</speed>
  <fix>3d</fix>
</trkpt>
<trkpt lat="40.0728171" lon="-105.2306218">
  <ele>1596.42</ele>
  <time>2026-08-27T18:30:28Z</time>
  <course>341.89</course>
  <speed>0.0</speed>
  <fix>3d</fix>
</trkpt>
<trkpt lat="40.072817" lon="-105.2306215">
  <ele>1596.5</ele>
  <time>2026-08-27T18:30:28Z</time>
  <course>349.33</course>
  <speed>0.0316227766016838</speed>
  <fix>3d</fix>
</trkpt>
<trkpt lat="40.0728171" lon="-105.2306218">
  <ele>1596.42</ele>
  <time>2026-08-27T18:30:28Z</time>
  <course>341.08</course>
  <speed>0.0</speed>
  <fix>3d</fix>
</trkpt>
<trkpt lat="40.072817" lon="-105.2306215">
  <ele>1596.5</ele>
  <time>2026-08-27T18:30:28Z</time>
  <course>349.31</course>
  <speed>0.0316227766016838</speed>
  <fix>3d</fix>
</trkpt>
<trkpt lat="40.0728171" lon="-105.2306218">
  <ele>1596.42</ele>
  <time>2026-08-27T18:30:28Z</time>
  <course>335.96</course>
  <speed>0.0</speed>
  <fix>3d</fix>
</trkpt>
<trkpt lat="40.072817" lon="-105.2306215">
  <ele>1596.5</ele>
  <time>2026-08-27T18:30:28Z</time>
  <course>349.3</course>
  <speed>0.0316227766016838</speed>
  <fix>3d</fix>
</trkpt>
<trkpt lat="40.0728171" lon="-105.2306218">
  <ele>1596.42</ele>
  <time>2026-08-27T18:30:28Z</time>
  <course>327.96</course>
  <speed>0.0</speed>
  <fix>3d</fix>
</trkpt>
<trkpt lat="40.072817" lon="-105.2306215">
  <ele>1596.5</ele>
  <time>2026-08-27T18:30:28Z</time>
  <course>349.29</course>
  <speed>0.0316227766016838</speed>
  <fix>3d</fix>
</trkpt>
<trkpt lat="40.0728171" lon="-105.2306218">
  <ele>1596.42</ele>
  <time>2026-08-27T18:30:28Z</time>
  <course>322.76</course>
  <speed>0.0</speed>
  <fix>3d</fix>
</trkpt>
<trkpt lat="40.072817" lon="-105.2306215">
  <ele>1596.51</ele>
  <time>2026-08-27T18:30:28Z</time>
  <course>349.27</course>
  <speed>0.0316227766016838</speed>
  <fix>3d</fix>
</trkpt>
<trkpt lat="40.0728171" lon="-105.2306218">
  <ele>1596.43</ele>
  <time>2026-08-27T18:30:28Z</time>
  <course>322.23</course>
  <speed>0.0</speed>
  <fix>3d</fix>
</trkpt>
<trkpt lat="40.072817" lon="-105.2306215">
  <ele>1596.51</ele>
  <time>2026-08-27T18:30:29Z</time>
  <course>349.28</course>
  <speed>0.0316227766016838</speed>
  <fix>3d</fix>
</trkpt>
<trkpt lat="40.0728171" lon="-105.2306218">
  <ele>1596.43</ele>
  <time>2026-08-27T18:30:29Z</time>
  <course>324.11</course>
  <speed>0.0</speed>
  <fix>3d</fix>
</trkpt>
<trkpt lat="40.072817" lon="-105.2306215">
  <ele>1596.51</ele>
  <time>2026-08-27T18:30:29Z</time>
  <course>349.29</course>
  <speed>0.0316227766016838</speed>
  <fix>3d</fix>
</trkpt>
<trkpt lat="40.0728171" lon="-105.2306218">
  <ele>1596.43</ele>
  <time>2026-08-27T18:30:29Z</time>
  <course>327.58</course>
  <speed>0.0</speed>
  <fix>3d</fix>
</trkpt>
<trkpt lat="40.072817" lon="-105.2306215">
  <ele>1596.51</ele>
  <time>2026-08-27T18:30:29Z</time>
  <course>349.3</course>
  <speed>0.0316227766016838</speed>
  <fix>3d</fix>
</trkpt>
<trkpt lat="40.0728171" lon="-105.2306218">
  <ele>1596.43</ele>
  <time>2026-08-27T18:30:29Z</time>
  <course>331.16</course>
  <speed>0.0</speed>
  <fix>3d</fix>
</trkpt>
<trkpt lat="40.072817" lon="-105.2306215">
  <ele>1596.52</ele>
  <time>2026-08-27T18:30:29Z</time>
  <course>349.31</course>
  <speed>0.0316227766016838</speed>
  <fix>3d</fix>
</trkpt>
<trkpt lat="40.0728171" lon="-105.2306218">
  <ele>1596.43</ele>
  <time>2026-08-27T18:30:29Z</time>
  <course>334.86</course>
  <speed>0.0</speed>
  <fix>3d</fix>
</trkpt>
<trkpt lat="40.072817" lon="-105.2306215">
  <ele>1596.52</ele>
  <time>2026-08-27T18:30:29Z</time>
  <course>349.32</course>
  <speed>0.0316227766016838</speed>
  <fix>3d</fix>
</trkpt>
<trkpt lat="40.0728171" lon="-105.2306218">
  <ele>1596.43</ele>
  <time>2026-08-27T18:30:29Z</time>
  <course>337.54</course>
  <speed>0.0</speed>
  <fix>3d</fix>
</trkpt>
<trkpt lat="40.072817" lon="-105.2306215">
  <ele>1596.52</ele>
  <time>2026-08-27T18:30:29Z</time>
  <course>349.33</course>
  <speed>0.022360679774997897</speed>
  <fix>3d</fix>
</trkpt>
<trkpt lat="40.0728172" lon="-105.2306218">
  <ele>1596.43</ele>
  <time>2026-08-27T18:30:29Z</time>
  <course>335.41</course>
  <speed>0.0</speed>
  <fix>3d</fix>
</trkpt>
<trkpt lat="40.072817" lon="-105.2306215">
  <ele>1596.52</ele>
  <time>2026-08-27T18:30:29Z</time>
  <course>349.34</course>
  <speed>0.022360679774997897</speed>
  <fix>3d</fix>
</trkpt>
<trkpt lat="40.0728172" lon="-105.2306218">
  <ele>1596.43</ele>
  <time>2026-08-27T18:30:29Z</time>
  <course>328.36</course>
  <speed>0.0</speed>
  <fix>3d</fix>
</trkpt>
<trkpt lat="40.072817" lon="-105.2306215">
  <ele>1596.52</ele>
  <time>2026-08-27T18:30:29Z</time>
  <course>349.35</course>
  <speed>0.022360679774997897</speed>
  <fix>3d</fix>
</trkpt>
<trkpt lat="40.0728172" lon="-105.2306218">
  <ele>1596.43</ele>
  <time>2026-08-27T18:30:29Z</time>
  <course>321.8</course>
  <speed>0.0</speed>
  <fix>3d</fix>
</trkpt>
<trkpt lat="40.072817" lon="-105.2306215">
  <ele>1596.52</ele>
  <time>2026-08-27T18:30:29Z</time>
  <course>349.36</course>
  <speed>0.022360679774997897</speed>
  <fix>3d</fix>
</trkpt>
<trkpt lat="40.0728172" lon="-105.2306218">
  <ele>1596.43</ele>
  <time>2026-08-27T18:30:29Z</time>
  <course>316.29</course>
  <speed>0.0</speed>
  <fix>3d</fix>
</trkpt>
<trkpt lat="40.072817" lon="-105.2306215">
  <ele>1596.52</ele>
  <time>2026-08-27T18:30:29Z</time>
  <course>349.36</course>
  <speed>0.022360679774997897</speed>
  <fix>3d</fix>
</trkpt>
<trkpt lat="40.0728172" lon="-105.2306218">
  <ele>1596.42</ele>
  <time>2026-08-27T18:30:29Z</time>
  <course>310.12</course>
  <speed>0.0</speed>
  <fix>3d</fix>
</trkpt>
<trkpt lat="40.072817" lon="-105.2306215">
  <ele>1596.51</ele>
  <time>2026-08-27T18:30:29Z</time>
  <course>349.36</course>
  <speed>0.022360679774997897</speed>
  <fix>3d</fix>
</trkpt>
<trkpt lat="40.0728172" lon="-105.2306218">
  <ele>1596.42</ele>
  <time>2026-08-27T18:30:29Z</time>
  <course>300.06</course>
  <speed>0.0</speed>
  <fix>3d</fix>
</trkpt>
<trkpt lat="40.072817" lon="-105.2306215">
  <ele>1596.51</ele>
  <time>2026-08-27T18:30:29Z</time>
  <course>349.35</course>
  <speed>0.022360679774997897</speed>
  <fix>3d</fix>
</trkpt>
<trkpt lat="40.0728172" lon="-105.2306218">
  <ele>1596.42</ele>
  <time>2026-08-27T18:30:29Z</time>
  <course>290.76</course>
  <speed>0.0</speed>
  <fix>3d</fix>
</trkpt>
<trkpt lat="40.072817" lon="-105.2306215">
  <ele>1596.51</ele>
  <time>2026-08-27T18:30:29Z</time>
  <course>349.35</course>
  <speed>0.0316227766016838</speed>
  <fix>3d</fix>
</trkpt>
<trkpt lat="40.0728172" lon="-105.2306218">
  <ele>1596.42</ele>
  <time>2026-08-27T18:30:29Z</time>
  <course>284.05</course>
  <speed>0.0</speed>
  <fix>3d</fix>
</trkpt>
<trkpt lat="40.072817" lon="-105.2306215">
  <ele>1596.51</ele>
  <time>2026-08-27T18:30:29Z</time>
  <course>349.35</course>
  <speed>0.0316227766016838</speed>
  <fix>3d</fix>
</trkpt>
<trkpt lat="40.0728172" lon="-105.2306218">
  <ele>1596.42</ele>
  <time>2026-08-27T18:30:29Z</time>
  <course>271.0</course>
  <speed>0.0</speed>
  <fix>3d</fix>
</trkpt>
<trkpt lat="40.072817" lon="-105.2306215">
  <ele>1596.51</ele>
  <time>2026-08-27T18:30:29Z</time>
  <course>349.35</course>
  <speed>0.0316227766016838</speed>
  <fix>3d</fix>
</trkpt>
<trkpt lat="40.0728172" lon="-105.2306219">
  <ele>1596.42</ele>
  <time>2026-08-27T18:30:29Z</time>
  <course>252.7</course>
  <speed>0.0</speed>
  <fix>3d</fix>
</trkpt>
<trkpt lat="40.072817" lon="-105.2306215">
  <ele>1596.51</ele>
  <time>2026-08-27T18:30:29Z</time>
  <course>349.35</course>
  <speed>0.0316227766016838</speed>
  <fix>3d</fix>
</trkpt>
<trkpt lat="40.0728172" lon="-105.230622">
  <ele>1596.42</ele>
  <time>2026-08-27T18:30:29Z</time>
  <course>231.89</course>
  <speed>0.0</speed>
  <fix>3d</fix>
</trkpt>
<trkpt lat="40.072817" lon="-105.2306215">
  <ele>1596.51</ele>
  <time>2026-08-27T18:30:29Z</time>
  <course>349.34</course>
  <speed>0.0316227766016838</speed>
  <fix>3d</fix>
</trkpt>
<trkpt lat="40.0728172" lon="-105.230622">
  <ele>1596.42</ele>
  <time>2026-08-27T18:30:29Z</time>
  <course>214.02</course>
  <speed>0.0</speed>
  <fix>3d</fix>
</trkpt>
<trkpt lat="40.072817" lon="-105.2306215">
  <ele>1596.51</ele>
  <time>2026-08-27T18:30:29Z</time>
  <course>349.34</course>
  <speed>0.022360679774997897</speed>
  <fix>3d</fix>
</trkpt>
<trkpt lat="40.0728172" lon="-105.230622">
  <ele>1596.42</ele>
  <time>2026-08-27T18:30:29Z</time>
  <course>201.36</course>
  <speed>0.0</speed>
  <fix>3d</fix>
</trkpt>
<trkpt lat="40.072817" lon="-105.2306215">
  <ele>1596.52</ele>
  <time>2026-08-27T18:30:29Z</time>
  <course>349.34</course>
  <speed>0.022360679774997897</speed>
  <fix>3d</fix>
</trkpt>
<trkpt lat="40.0728172" lon="-105.230622">
  <ele>1596.42</ele>
  <time>2026-08-27T18:30:29Z</time>
  <course>192.89</course>
  <speed>0.0</speed>
  <fix>3d</fix>
</trkpt>
<trkpt lat="40.072817" lon="-105.2306215">
  <ele>1596.52</ele>
  <time>2026-08-27T18:30:29Z</time>
  <course>349.35</course>
  <speed>0.022360679774997897</speed>
  <fix>3d</fix>
</trkpt>
<trkpt lat="40.0728172" lon="-105.230622">
  <ele>1596.42</ele>
  <time>2026-08-27T18:30:29Z</time>
  <course>184.96</course>
  <speed>0.0</speed>
  <fix>3d</fix>
</trkpt>
<trkpt lat="40.072817" lon="-105.2306215">
  <ele>1596.52</ele>
  <time>2026-08-27T18:30:29Z</time>
  <course>349.35</course>
  <speed>0.0316227766016838</speed>
  <fix>3d</fix>
</trkpt>
<trkpt lat="40.0728172" lon="-105.230622">
  <ele>1596.42</ele>
  <time>2026-08-27T18:30:29Z</time>
  <course>173.06</course>
  <speed>0.0</speed>
  <fix>3d</fix>
</trkpt>
<trkpt lat="40.072817" lon="-105.2306215">
  <ele>1596.51</ele>
  <time>2026-08-27T18:30:29Z</time>
  <course>349.35</course>
  <speed>0.0316227766016838</speed>
  <fix>3d</fix>
</trkpt>
<trkpt lat="40.0728172" lon="-105.230622">
  <ele>1596.41</ele>
  <time>2026-08-27T18:30:29Z</time>
  <course>156.51</course>
  <speed>0.0</speed>
  <fix>3d</fix>
</trkpt>
<trkpt lat="40.072817" lon="-105.2306215">
  <ele>1596.51</ele>
  <time>2026-08-27T18:30:29Z</time>
  <course>349.35</course>
  <speed>0.0316227766016838</speed>
  <fix>3d</fix>
</trkpt>
<trkpt lat="40.0728172" lon="-105.230622">
  <ele>1596.41</ele>
  <time>2026-08-27T18:30:29Z</time>
  <course>140.43</course>
  <speed>0.0</speed>
  <fix>3d</fix>
</trkpt>
<trkpt lat="40.072817" lon="-105.2306216">
  <ele>1596.51</ele>
  <time>2026-08-27T18:30:29Z</time>
  <course>349.35</course>
  <speed>0.0316227766016838</speed>
  <fix>3d</fix>
</trkpt>
<trkpt lat="40.0728172" lon="-105.230622">
  <ele>1596.41</ele>
  <time>2026-08-27T18:30:29Z</time>
  <course>128.28</course>
  <speed>0.0</speed>
  <fix>3d</fix>
</trkpt>
<trkpt lat="40.072817" lon="-105.2306216">
  <ele>1596.51</ele>
  <time>2026-08-27T18:30:29Z</time>
  <course>349.34</course>
  <speed>0.0316227766016838</speed>
  <fix>3d</fix>
</trkpt>
<trkpt lat="40.0728172" lon="-105.230622">
  <ele>1596.41</ele>
  <time>2026-08-27T18:30:29Z</time>
  <course>124.11</course>
  <speed>0.0</speed>
  <fix>3d</fix>
</trkpt>
<trkpt lat="40.072817" lon="-105.2306216">
  <ele>1596.5</ele>
  <time>2026-08-27T18:30:29Z</time>
  <course>349.32</course>
  <speed>0.0316227766016838</speed>
  <fix>3d</fix>
</trkpt>
<trkpt lat="40.0728172" lon="-105.230622">
  <ele>1596.41</ele>
  <time>2026-08-27T18:30:29Z</time>
  <course>123.59</course>
  <speed>0.0</speed>
  <fix>3d</fix>
</trkpt>
<trkpt lat="40.072817" lon="-105.2306216">
  <ele>1596.5</ele>
  <time>2026-08-27T18:30:29Z</time>
  <course>349.31</course>
  <speed>0.0316227766016838</speed>
  <fix>3d</fix>
</trkpt>
<trkpt lat="40.0728172" lon="-105.230622">
  <ele>1596.41</ele>
  <time>2026-08-27T18:30:29Z</time>
  <course>123.44</course>
  <speed>0.0</speed>
  <fix>3d</fix>
</trkpt>
<trkpt lat="40.072817" lon="-105.2306216">
  <ele>1596.5</ele>
  <time>2026-08-27T18:30:29Z</time>
  <course>349.28</course>
  <speed>0.0316227766016838</speed>
  <fix>3d</fix>
</trkpt>
<trkpt lat="40.0728172" lon="-105.230622">
  <ele>1596.41</ele>
  <time>2026-08-27T18:30:29Z</time>
  <course>122.37</course>
  <speed>0.0</speed>
  <fix>3d</fix>
</trkpt>
<trkpt lat="40.072817" lon="-105.2306216">
  <ele>1596.5</ele>
  <time>2026-08-27T18:30:29Z</time>
  <course>349.26</course>
  <speed>0.0316227766016838</speed>
  <fix>3d</fix>
</trkpt>
<trkpt lat="40.0728172" lon="-105.230622">
  <ele>1596.41</ele>
  <time>2026-08-27T18:30:29Z</time>
  <course>119.73</course>
  <speed>0.0</speed>
  <fix>3d</fix>
</trkpt>
<trkpt lat="40.072817" lon="-105.2306216">
  <ele>1596.5</ele>
  <time>2026-08-27T18:30:29Z</time>
  <course>349.25</course>
  <speed>0.0316227766016838</speed>
  <fix>3d</fix>
</trkpt>
<trkpt lat="40.0728172" lon="-105.230622">
  <ele>1596.41</ele>
  <time>2026-08-27T18:30:29Z</time>
  <course>116.64</course>
  <speed>0.0</speed>
  <fix>3d</fix>
</trkpt>
<trkpt lat="40.072817" lon="-105.2306216">
  <ele>1596.5</ele>
  <time>2026-08-27T18:30:29Z</time>
  <course>349.25</course>
  <speed>0.0316227766016838</speed>
  <fix>3d</fix>
</trkpt>
<trkpt lat="40.0728172" lon="-105.2306219">
  <ele>1596.41</ele>
  <time>2026-08-27T18:30:29Z</time>
  <course>116.31</course>
  <speed>0.0</speed>
  <fix>3d</fix>
</trkpt>
<trkpt lat="40.072817" lon="-105.2306216">
  <ele>1596.5</ele>
  <time>2026-08-27T18:30:29Z</time>
  <course>349.24</course>
  <speed>0.0316227766016838</speed>
  <fix>3d</fix>
</trkpt>
<trkpt lat="40.0728172" lon="-105.2306218">
  <ele>1596.42</ele>
  <time>2026-08-27T18:30:29Z</time>
  <course>118.74</course>
  <speed>0.0</speed>
  <fix>3d</fix>
</trkpt>
<trkpt lat="40.072817" lon="-105.2306216">
  <ele>1596.51</ele>
  <time>2026-08-27T18:30:29Z</time>
  <course>349.24</course>
  <speed>0.0316227766016838</speed>
  <fix>3d</fix>
</trkpt>
<trkpt lat="40.0728172" lon="-105.2306218">
  <ele>1596.42</ele>
  <time>2026-08-27T18:30:29Z</time>
  <course>120.15</course>
  <speed>0.0</speed>
  <fix>3d</fix>
</trkpt>
<trkpt lat="40.072817" lon="-105.2306216">
  <ele>1596.51</ele>
  <time>2026-08-27T18:30:29Z</time>
  <course>349.24</course>
  <speed>0.0316227766016838</speed>
  <fix>3d</fix>
</trkpt>
<trkpt lat="40.0728172" lon="-105.2306218">
  <ele>1596.42</ele>
  <time>2026-08-27T18:30:29Z</time>
  <course>120.62</course>
  <speed>0.0</speed>
  <fix>3d</fix>
</trkpt>
<trkpt lat="40.072817" lon="-105.2306216">
  <ele>1596.51</ele>
  <time>2026-08-27T18:30:29Z</time>
  <course>349.24</course>
  <speed>0.0316227766016838</speed>
  <fix>3d</fix>
</trkpt>
<trkpt lat="40.0728172" lon="-105.2306218">
  <ele>1596.42</ele>
  <time>2026-08-27T18:30:29Z</time>
  <course>120.96</course>
  <speed>0.0</speed>
  <fix>3d</fix>
</trkpt>
<trkpt lat="40.072817" lon="-105.2306215">
  <ele>1596.51</ele>
  <time>2026-08-27T18:30:29Z</time>
  <course>349.24</course>
  <speed>0.0316227766016838</speed>
  <fix>3d</fix>
</trkpt>
<trkpt lat="40.0728172" lon="-105.2306218">
  <ele>1596.42</ele>
  <time>2026-08-27T18:30:29Z</time>
  <course>121.27</course>
  <speed>0.0</speed>
  <fix>3d</fix>
</trkpt>
<trkpt lat="40.072817" lon="-105.2306215">
  <ele>1596.51</ele>
  <time>2026-08-27T18:30:29Z</time>
  <course>349.24</course>
  <speed>0.0316227766016838</speed>
  <fix>3d</fix>
</trkpt>
<trkpt lat="40.0728172" lon="-105.2306218">
  <ele>1596.42</ele>
  <time>2026-08-27T18:30:29Z</time>
  <course>121.81</course>
  <speed>0.0</speed>
  <fix>3d</fix>
</trkpt>
<trkpt lat="40.072817" lon="-105.2306215">
  <ele>1596.51</ele>
  <time>2026-08-27T18:30:29Z</time>
  <course>349.24</course>
  <speed>0.0316227766016838</speed>
  <fix>3d</fix>
</trkpt>
<trkpt lat="40.0728172" lon="-105.2306218">
  <ele>1596.42</ele>
  <time>2026-08-27T18:30:29Z</time>
  <course>124.59</course>
  <speed>0.0</speed>
  <fix>3d</fix>
</trkpt>
<trkpt lat="40.072817" lon="-105.2306215">
  <ele>1596.51</ele>
  <time>2026-08-27T18:30:29Z</time>
  <course>349.24</course>
  <speed>0.0316227766016838</speed>
  <fix>3d</fix>
</trkpt>
<trkpt lat="40.0728171" lon="-105.2306218">
  <ele>1596.42</ele>
  <time>2026-08-27T18:30:29Z</time>
  <course>130.4</course>
  <speed>0.0</speed>
  <fix>3d</fix>
</trkpt>
<trkpt lat="40.072817" lon="-105.2306215">
  <ele>1596.5</ele>
  <time>2026-08-27T18:30:29Z</time>
  <course>349.24</course>
  <speed>0.0316227766016838</speed>
  <fix>3d</fix>
</trkpt>
<trkpt lat="40.0728171" lon="-105.2306218">
  <ele>1596.42</ele>
  <time>2026-08-27T18:30:29Z</time>
  <course>137.56</course>
  <speed>0.0</speed>
  <fix>3d</fix>
</trkpt>
<trkpt lat="40.072817" lon="-105.2306215">
  <ele>1596.5</ele>
  <time>2026-08-27T18:30:29Z</time>
  <course>349.23</course>
  <speed>0.0316227766016838</speed>
  <fix>3d</fix>
</trkpt>
<trkpt lat="40.0728171" lon="-105.2306218">
  <ele>1596.42</ele>
  <time>2026-08-27T18:30:29Z</time>
  <course>145.51</course>
  <speed>0.0</speed>
  <fix>3d</fix>
</trkpt>
<trkpt lat="40.072817" lon="-105.2306215">
  <ele>1596.5</ele>
  <time>2026-08-27T18:30:29Z</time>
  <course>349.23</course>
  <speed>0.022360679774997897</speed>
  <fix>3d</fix>
</trkpt>
<trkpt lat="40.0728171" lon="-105.2306218">
  <ele>1596.42</ele>
  <time>2026-08-27T18:30:29Z</time>
  <course>157.51</course>
  <speed>0.0</speed>
  <fix>3d</fix>
</trkpt>
<trkpt lat="40.072817" lon="-105.2306215">
  <ele>1596.49</ele>
  <time>2026-08-27T18:30:29Z</time>
  <course>349.22</course>
  <speed>0.022360679774997897</speed>
  <fix>3d</fix>
</trkpt>
<trkpt lat="40.0728171" lon="-105.2306218">
  <ele>1596.43</ele>
  <time>2026-08-27T18:30:29Z</time>
  <course>184.78</course>
  <speed>0.0</speed>
  <fix>3d</fix>
</trkpt>
<trkpt lat="40.072817" lon="-105.2306215">
  <ele>1596.49</ele>
  <time>2026-08-27T18:30:29Z</time>
  <course>349.2</course>
  <speed>0.022360679774997897</speed>
  <fix>3d</fix>
</trkpt>
<trkpt lat="40.0728171" lon="-105.2306218">
  <ele>1596.43</ele>
  <time>2026-08-27T18:30:29Z</time>
  <course>221.95</course>
  <speed>0.0</speed>
  <fix>3d</fix>
</trkpt>
<trkpt lat="40.072817" lon="-105.2306215">
  <ele>1596.49</ele>
  <time>2026-08-27T18:30:29Z</time>
  <course>349.18</course>
  <speed>0.022360679774997897</speed>
  <fix>3d</fix>
</trkpt>
<trkpt lat="40.0728171" lon="-105.2306218">
  <ele>1596.43</ele>
  <time>2026-08-27T18:30:29Z</time>
  <course>248.44</course>
  <speed>0.0</speed>
  <fix>3d</fix>
</trkpt>
<trkpt lat="40.072817" lon="-105.2306215">
  <ele>1596.5</ele>
  <time>2026-08-27T18:30:29Z</time>
  <course>349.17</course>
  <speed>0.022360679774997897</speed>
  <fix>3d</fix>
</trkpt>
<trkpt lat="40.0728171" lon="-105.2306218">
  <ele>1596.44</ele>
  <time>2026-08-27T18:30:29Z</time>
  <course>263.61</course>
  <speed>0.0</speed>
  <fix>3d</fix>
</trkpt>
<trkpt lat="40.072817" lon="-105.2306215">
  <ele>1596.5</ele>
  <time>2026-08-27T18:30:29Z</time>
  <course>349.18</course>
  <speed>0.022360679774997897</speed>
  <fix>3d</fix>
</trkpt>
<trkpt lat="40.0728171" lon="-105.2306218">
  <ele>1596.44</ele>
  <time>2026-08-27T18:30:29Z</time>
  <course>273.11</course>
  <speed>0.0</speed>
  <fix>3d</fix>
</trkpt>
<trkpt lat="40.072817" lon="-105.2306215">
  <ele>1596.5</ele>
  <time>2026-08-27T18:30:29Z</time>
  <course>349.19</course>
  <speed>0.022360679774997897</speed>
  <fix>3d</fix>
</trkpt>
<trkpt lat="40.0728171" lon="-105.2306218">
  <ele>1596.44</ele>
  <time>2026-08-27T18:30:29Z</time>
  <course>281.87</course>
  <speed>0.0</speed>
  <fix>3d</fix>
</trkpt>
<trkpt lat="40.072817" lon="-105.2306215">
  <ele>1596.5</ele>
  <time>2026-08-27T18:30:29Z</time>
  <course>349.19</course>
  <speed>0.02</speed>
  <fix>3d</fix>
</trkpt>
<trkpt lat="40.0728171" lon="-105.2306218">
  <ele>1596.45</ele>
  <time>2026-08-27T18:30:29Z</time>
  <course>293.1</course>
  <speed>0.0</speed>
  <fix>3d</fix>
</trkpt>
<trkpt lat="40.072817" lon="-105.2306215">
  <ele>1596.51</ele>
  <time>2026-08-27T18:30:29Z</time>
  <course>349.2</course>
  <speed>0.02</speed>
  <fix>3d</fix>
</trkpt>
<trkpt lat="40.0728171" lon="-105.2306218">
  <ele>1596.45</ele>
  <time>2026-08-27T18:30:29Z</time>
  <course>303.38</course>
  <speed>0.0</speed>
  <fix>3d</fix>
</trkpt>
<trkpt lat="40.072817" lon="-105.2306215">
  <ele>1596.51</ele>
  <time>2026-08-27T18:30:29Z</time>
  <course>349.21</course>
  <speed>0.02</speed>
  <fix>3d</fix>
</trkpt>
<trkpt lat="40.0728171" lon="-105.2306218">
  <ele>1596.45</ele>
  <time>2026-08-27T18:30:29Z</time>
  <course>307.71</course>
  <speed>0.0</speed>
  <fix>3d</fix>
</trkpt>
<trkpt lat="40.072817" lon="-105.2306215">
  <ele>1596.52</ele>
  <time>2026-08-27T18:30:29Z</time>
  <course>349.22</course>
  <speed>0.02</speed>
  <fix>3d</fix>
</trkpt>
<trkpt lat="40.0728171" lon="-105.2306218">
  <ele>1596.46</ele>
  <time>2026-08-27T18:30:29Z</time>
  <course>309.38</course>
  <speed>0.0</speed>
  <fix>3d</fix>
</trkpt>
<trkpt lat="40.072817" lon="-105.2306215">
  <ele>1596.53</ele>
  <time>2026-08-27T18:30:29Z</time>
  <course>349.24</course>
  <speed>0.02</speed>
  <fix>3d</fix>
</trkpt>
<trkpt lat="40.0728171" lon="-105.2306218">
  <ele>1596.46</ele>
  <time>2026-08-27T18:30:29Z</time>
  <course>312.63</course>
  <speed>0.0</speed>
  <fix>3d</fix>
</trkpt>
<trkpt lat="40.072817" lon="-105.2306215">
  <ele>1596.53</ele>
  <time>2026-08-27T18:30:29Z</time>
  <course>349.27</course>
  <speed>0.02</speed>
  <fix>3d</fix>
</trkpt>
<trkpt lat="40.0728171" lon="-105.2306218">
  <ele>1596.46</ele>
  <time>2026-08-27T18:30:29Z</time>
  <course>318.02</course>
  <speed>0.0</speed>
  <fix>3d</fix>
</trkpt>
<trkpt lat="40.072817" lon="-105.2306215">
  <ele>1596.53</ele>
  <time>2026-08-27T18:30:29Z</time>
  <course>349.3</course>
  <speed>0.02</speed>
  <fix>3d</fix>
</trkpt>
<trkpt lat="40.0728171" lon="-105.2306218">
  <ele>1596.46</ele>
  <time>2026-08-27T18:30:29Z</time>
  <course>328.59</course>
  <speed>0.0</speed>
  <fix>3d</fix>
</trkpt>
<trkpt lat="40.072817" lon="-105.2306215">
  <ele>1596.53</ele>
  <time>2026-08-27T18:30:29Z</time>
  <course>349.32</course>
  <speed>0.02</speed>
  <fix>3d</fix>
</trkpt>
<trkpt lat="40.0728171" lon="-105.2306218">
  <ele>1596.45</ele>
  <time>2026-08-27T18:30:29Z</time>
  <course>341.72</course>
  <speed>0.0</speed>
  <fix>3d</fix>
</trkpt>
<trkpt lat="40.072817" lon="-105.2306215">
  <ele>1596.53</ele>
  <time>2026-08-27T18:30:29Z</time>
  <course>349.33</course>
  <speed>0.02</speed>
  <fix>3d</fix>
</trkpt>
<trkpt lat="40.0728171" lon="-105.2306218">
  <ele>1596.45</ele>
  <time>2026-08-27T18:30:29Z</time>
  <course>349.01</course>
  <speed>0.0</speed>
  <fix>3d</fix>
</trkpt>
<trkpt lat="40.072817" lon="-105.2306215">
  <ele>1596.52</ele>
  <time>2026-08-27T18:30:29Z</time>
  <course>349.34</course>
  <speed>0.03</speed>
  <fix>3d</fix>
</trkpt>
<trkpt lat="40.0728171" lon="-105.2306218">
  <ele>1596.44</ele>
  <time>2026-08-27T18:30:29Z</time>
  <course>350.86</course>
  <speed>0.0</speed>
  <fix>3d</fix>
</trkpt>
<trkpt lat="40.072817" lon="-105.2306215">
  <ele>1596.52</ele>
  <time>2026-08-27T18:30:29Z</time>
  <course>349.32</course>
  <speed>0.03</speed>
  <fix>3d</fix>
</trkpt>
<trkpt lat="40.0728171" lon="-105.2306218">
  <ele>1596.44</ele>
  <time>2026-08-27T18:30:29Z</time>
  <course>353.68</course>
  <speed>0.0</speed>
  <fix>3d</fix>
</trkpt>
<trkpt lat="40.072817" lon="-105.2306215">
  <ele>1596.52</ele>
  <time>2026-08-27T18:30:29Z</time>
  <course>349.3</course>
  <speed>0.03</speed>
  <fix>3d</fix>
</trkpt>
<trkpt lat="40.0728171" lon="-105.2306218">
  <ele>1596.44</ele>
  <time>2026-08-27T18:30:29Z</time>
  <course>356.75</course>
  <speed>0.0</speed>
  <fix>3d</fix>
</trkpt>
<trkpt lat="40.072817" lon="-105.2306215">
  <ele>1596.52</ele>
  <time>2026-08-27T18:30:29Z</time>
  <course>349.29</course>
  <speed>0.0316227766016838</speed>
  <fix>3d</fix>
</trkpt>
<trkpt lat="40.0728171" lon="-105.2306218">
  <ele>1596.44</ele>
  <time>2026-08-27T18:30:29Z</time>
  <course>355.59</course>
  <speed>0.0</speed>
  <fix>3d</fix>
</trkpt>
<trkpt lat="40.072817" lon="-105.2306215">
  <ele>1596.52</ele>
  <time>2026-08-27T18:30:29Z</time>
  <course>349.29</course>
  <speed>0.022360679774997897</speed>
  <fix>3d</fix>
</trkpt>
<trkpt lat="40.0728171" lon="-105.2306218">
  <ele>1596.43</ele>
  <time>2026-08-27T18:30:29Z</time>
  <course>351.79</course>
  <speed>0.0</speed>
  <fix>3d</fix>
</trkpt>
<trkpt lat="40.072817" lon="-105.2306215">
  <ele>1596.53</ele>
  <time>2026-08-27T18:30:29Z</time>
  <course>349.31</course>
  <speed>0.022360679774997897</speed>
  <fix>3d</fix>
</trkpt>
<trkpt lat="40.0728171" lon="-105.2306218">
  <ele>1596.43</ele>
  <time>2026-08-27T18:30:29Z</time>
  <course>349.04</course>
  <speed>0.0</speed>
  <fix>3d</fix>
</trkpt>
<trkpt lat="40.072817" lon="-105.2306215">
  <ele>1596.52</ele>
  <time>2026-08-27T18:30:29Z</time>
  <course>349.33</course>
  <speed>0.022360679774997897</speed>
  <fix>3d</fix>
</trkpt>
<trkpt lat="40.0728171" lon="-105.2306218">
  <ele>1596.43</ele>
  <time>2026-08-27T18:30:29Z</time>
  <course>348.67</course>
  <speed>0.0</speed>
  <fix>3d</fix>
</trkpt>
<trkpt lat="40.072817" lon="-105.2306215">
  <ele>1596.52</ele>
  <time>2026-08-27T18:30:29Z</time>
  <course>349.34</course>
  <speed>0.0316227766016838</speed>
  <fix>3d</fix>
</trkpt>
<trkpt lat="40.0728171" lon="-105.2306218">
  <ele>1596.42</ele>
  <time>2026-08-27T18:30:29Z</time>
  <course>347.86</course>
  <speed>0.0</speed>
  <fix>3d</fix>
</trkpt>
<trkpt lat="40.072817" lon="-105.2306215">
  <ele>1596.52</ele>
  <time>2026-08-27T18:30:29Z</time>
  <course>349.34</course>
  <speed>0.022360679774997897</speed>
  <fix>3d</fix>
</trkpt>
<trkpt lat="40.0728171" lon="-105.2306218">
  <ele>1596.42</ele>
  <time>2026-08-27T18:30:29Z</time>
  <course>347.48</course>
  <speed>0.0</speed>
  <fix>3d</fix>
</trkpt>
<trkpt lat="40.072817" lon="-105.2306215">
  <ele>1596.51</ele>
  <time>2026-08-27T18:30:29Z</time>
  <course>349.33</course>
  <speed>0.0316227766016838</speed>
  <fix>3d</fix>
</trkpt>
<trkpt lat="40.0728172" lon="-105.2306218">
  <ele>1596.42</ele>
  <time>2026-08-27T18:30:29Z</time>
  <course>349.94</course>
  <speed>0.0</speed>
  <fix>3d</fix>
</trkpt>
<trkpt lat="40.072817" lon="-105.2306215">
  <ele>1596.51</ele>
  <time>2026-08-27T18:30:29Z</time>
  <course>349.31</course>
  <speed>0.0316227766016838</speed>
  <fix>3d</fix>
</trkpt>
<trkpt lat="40.0728172" lon="-105.2306218">
  <ele>1596.42</ele>
  <time>2026-08-27T18:30:29Z</time>
  <course>351.93</course>
  <speed>0.0</speed>
  <fix>3d</fix>
</trkpt>
<trkpt lat="40.072817" lon="-105.2306215">
  <ele>1596.51</ele>
  <time>2026-08-27T18:30:29Z</time>
  <course>349.29</course>
  <speed>0.022360679774997897</speed>
  <fix>3d</fix>
</trkpt>
<trkpt lat="40.0728172" lon="-105.2306218">
  <ele>1596.41</ele>
  <time>2026-08-27T18:30:29Z</time>
  <course>351.19</course>
  <speed>0.0</speed>
  <fix>3d</fix>
</trkpt>
<trkpt lat="40.0728171" lon="-105.2306215">
  <ele>1596.51</ele>
  <time>2026-08-27T18:30:29Z</time>
  <course>349.28</course>
  <speed>0.022360679774997897</speed>
  <fix>3d</fix>
</trkpt>
<trkpt lat="40.0728172" lon="-105.2306218">
  <ele>1596.41</ele>
  <time>2026-08-27T18:30:29Z</time>
  <course>349.82</course>
  <speed>0.0</speed>
  <fix>3d</fix>
</trkpt>
<trkpt lat="40.0728171" lon="-105.2306215">
  <ele>1596.51</ele>
  <time>2026-08-27T18:30:29Z</time>
  <course>349.27</course>
  <speed>0.022360679774997897</speed>
  <fix>3d</fix>
</trkpt>
<trkpt lat="40.0728172" lon="-105.2306218">
  <ele>1596.41</ele>
  <time>2026-08-27T18:30:29Z</time>
  <course>347.75</course>
  <speed>0.0</speed>
  <fix>3d</fix>
</trkpt>
<trkpt lat="40.0728171" lon="-105.2306215">
  <ele>1596.51</ele>
  <time>2026-08-27T18:30:29Z</time>
  <course>349.27</course>
  <speed>0.022360679774997897</speed>
  <fix>3d</fix>
</trkpt>
<trkpt lat="40.0728172" lon="-105.2306218">
  <ele>1596.41</ele>
  <time>2026-08-27T18:30:29Z</time>
  <course>344.91</course>
  <speed>0.0</speed>
  <fix>3d</fix>
</trkpt>
<trkpt lat="40.0728171" lon="-105.2306215">
  <ele>1596.5</ele>
  <time>2026-08-27T18:30:29Z</time>
  <course>349.26</course>
  <speed>0.022360679774997897</speed>
  <fix>3d</fix>
</trkpt>
<trkpt lat="40.0728172" lon="-105.2306218">
  <ele>1596.41</ele>
  <time>2026-08-27T18:30:29Z</time>
  <course>340.51</course>
  <speed>0.0</speed>
  <fix>3d</fix>
</trkpt>
<trkpt lat="40.0728171" lon="-105.2306215">
  <ele>1596.5</ele>
  <time>2026-08-27T18:30:29Z</time>
  <course>349.26</course>
  <speed>0.022360679774997897</speed>
  <fix>3d</fix>
</trkpt>
<trkpt lat="40.0728172" lon="-105.2306218">
  <ele>1596.41</ele>
  <time>2026-08-27T18:30:29Z</time>
  <course>327.77</course>
  <speed>0.0</speed>
  <fix>3d</fix>
</trkpt>
<trkpt lat="40.0728171" lon="-105.2306215">
  <ele>1596.5</ele>
  <time>2026-08-27T18:30:29Z</time>
  <course>349.26</course>
  <speed>0.022360679774997897</speed>
  <fix>3d</fix>
</trkpt>
<trkpt lat="40.0728172" lon="-105.2306218">
  <ele>1596.41</ele>
  <time>2026-08-27T18:30:29Z</time>
  <course>289.48</course>
  <speed>0.0</speed>
  <fix>3d</fix>
</trkpt>
<trkpt lat="40.0728171" lon="-105.2306215">
  <ele>1596.5</ele>
  <time>2026-08-27T18:30:29Z</time>
  <course>349.25</course>
  <speed>0.022360679774997897</speed>
  <fix>3d</fix>
</trkpt>
<trkpt lat="40.0728172" lon="-105.2306218">
  <ele>1596.41</ele>
  <time>2026-08-27T18:30:29Z</time>
  <course>237.69</course>
  <speed>0.0</speed>
  <fix>3d</fix>
</trkpt>
<trkpt lat="40.0728171" lon="-105.2306215">
  <ele>1596.5</ele>
  <time>2026-08-27T18:30:29Z</time>
  <course>349.23</course>
  <speed>0.022360679774997897</speed>
  <fix>3d</fix>
</trkpt>
<trkpt lat="40.0728172" lon="-105.2306218">
  <ele>1596.41</ele>
  <time>2026-08-27T18:30:29Z</time>
  <course>221.02</course>
  <speed>0.0</speed>
  <fix>3d</fix>
</trkpt>
<trkpt lat="40.0728171" lon="-105.2306215">
  <ele>1596.49</ele>
  <time>2026-08-27T18:30:29Z</time>
  <course>349.2</course>
  <speed>0.022360679774997897</speed>
  <fix>3d</fix>
</trkpt>
<trkpt lat="40.0728172" lon="-105.2306218">
  <ele>1596.42</ele>
  <time>2026-08-27T18:30:29Z</time>
  <course>216.79</course>
  <speed>0.0</speed>
  <fix>3d</fix>
</trkpt>
<trkpt lat="40.0728171" lon="-105.2306215">
  <ele>1596.49</ele>
  <time>2026-08-27T18:30:29Z</time>
  <course>349.18</course>
  <speed>0.022360679774997897</speed>
  <fix>3d</fix>
</trkpt>
<trkpt lat="40.0728172" lon="-105.2306218">
  <ele>1596.42</ele>
  <time>2026-08-27T18:30:29Z</time>
  <course>209.3</course>
  <speed>0.0</speed>
  <fix>3d</fix>
</trkpt>
<trkpt lat="40.0728171" lon="-105.2306215">
  <ele>1596.5</ele>
  <time>2026-08-27T18:30:29Z</time>
  <course>349.18</course>
  <speed>0.022360679774997897</speed>
  <fix>3d</fix>
</trkpt>
<trkpt lat="40.0728172" lon="-105.2306218">
  <ele>1596.42</ele>
  <time>2026-08-27T18:30:29Z</time>
  <course>200.89</course>
  <speed>0.0</speed>
  <fix>3d</fix>
</trkpt>
<trkpt lat="40.0728171" lon="-105.2306215">
  <ele>1596.5</ele>
  <time>2026-08-27T18:30:29Z</time>
  <course>349.18</course>
  <speed>0.022360679774997897</speed>
  <fix>3d</fix>
</trkpt>
<trkpt lat="40.0728172" lon="-105.2306218">
  <ele>1596.42</ele>
  <time>2026-08-27T18:30:29Z</time>
  <course>195.67</course>
  <speed>0.0</speed>
  <fix>3d</fix>
</trkpt>
<trkpt lat="40.0728171" lon="-105.2306215">
  <ele>1596.51</ele>
  <time>2026-08-27T18:30:29Z</time>
  <course>349.2</course>
  <speed>0.022360679774997897</speed>
  <fix>3d</fix>
</trkpt>
<trkpt lat="40.0728172" lon="-105.2306218">
  <ele>1596.43</ele>
  <time>2026-08-27T18:30:29Z</time>
  <course>191.88</course>
  <speed>0.0</speed>
  <fix>3d</fix>
</trkpt>
<trkpt lat="40.0728171" lon="-105.2306215">
  <ele>1596.51</ele>
  <time>2026-08-27T18:30:29Z</time>
  <course>349.21</course>
  <speed>0.022360679774997897</speed>
  <fix>3d</fix>
</trkpt>
<trkpt lat="40.0728172" lon="-105.2306218">
  <ele>1596.43</ele>
  <time>2026-08-27T18:30:29Z</time>
  <course>188.27</course>
  <speed>0.0</speed>
  <fix>3d</fix>
</trkpt>
<trkpt lat="40.0728171" lon="-105.2306215">
  <ele>1596.51</ele>
  <time>2026-08-27T18:30:29Z</time>
  <course>349.22</course>
  <speed>0.022360679774997897</speed>
  <fix>3d</fix>
</trkpt>
<trkpt lat="40.0728172" lon="-105.2306218">
  <ele>1596.43</ele>
  <time>2026-08-27T18:30:29Z</time>
  <course>184.88</course>
  <speed>0.0</speed>
  <fix>3d</fix>
</trkpt>
<trkpt lat="40.0728171" lon="-105.2306215">
  <ele>1596.51</ele>
  <time>2026-08-27T18:30:29Z</time>
  <course>349.23</course>
  <speed>0.022360679774997897</speed>
  <fix>3d</fix>
</trkpt>
<trkpt lat="40.0728172" lon="-105.2306218">
  <ele>1596.43</ele>
  <time>2026-08-27T18:30:29Z</time>
  <course>181.81</course>
  <speed>0.0</speed>
  <fix>3d</fix>
</trkpt>
<trkpt lat="40.0728171" lon="-105.2306215">
  <ele>1596.52</ele>
  <time>2026-08-27T18:30:29Z</time>
  <course>349.24</course>
  <speed>0.022360679774997897</speed>
  <fix>3d</fix>
</trkpt>
<trkpt lat="40.0728172" lon="-105.2306218">
  <ele>1596.44</ele>
  <time>2026-08-27T18:30:29Z</time>
  <course>180.5</course>
  <speed>0.0</speed>
  <fix>3d</fix>
</trkpt>
<trkpt lat="40.0728171" lon="-105.2306215">
  <ele>1596.52</ele>
  <time>2026-08-27T18:30:29Z</time>
  <course>349.25</course>
  <speed>0.022360679774997897</speed>
  <fix>3d</fix>
</trkpt>
<trkpt lat="40.0728172" lon="-105.2306218">
  <ele>1596.44</ele>
  <time>2026-08-27T18:30:29Z</time>
  <course>182.93</course>
  <speed>0.0</speed>
  <fix>3d</fix>
</trkpt>
<trkpt lat="40.0728171" lon="-105.2306215">
  <ele>1596.52</ele>
  <time>2026-08-27T18:30:29Z</time>
  <course>349.26</course>
  <speed>0.022360679774997897</speed>
  <fix>3d</fix>
</trkpt>
<trkpt lat="40.0728172" lon="-105.2306218">
  <ele>1596.43</ele>
  <time>2026-08-27T18:30:29Z</time>
  <course>184.69</course>
  <speed>0.0</speed>
  <fix>3d</fix>
</trkpt>
<trkpt lat="40.0728171" lon="-105.2306215">
  <ele>1596.52</ele>
  <time>2026-08-27T18:30:29Z</time>
  <course>349.29</course>
  <speed>0.022360679774997897</speed>
  <fix>3d</fix>
</trkpt>
<trkpt lat="40.0728172" lon="-105.2306218">
  <ele>1596.43</ele>
  <time>2026-08-27T18:30:29Z</time>
  <course>181.61</course>
  <speed>0.0</speed>
  <fix>3d</fix>
</trkpt>
<trkpt lat="40.0728171" lon="-105.2306215">
  <ele>1596.52</ele>
  <time>2026-08-27T18:30:29Z</time>
  <course>349.31</course>
  <speed>0.022360679774997897</speed>
  <fix>3d</fix>
</trkpt>
<trkpt lat="40.0728172" lon="-105.2306218">
  <ele>1596.43</ele>
  <time>2026-08-27T18:30:29Z</time>
  <course>177.53</course>
  <speed>0.0</speed>
  <fix>3d</fix>
</trkpt>
<trkpt lat="40.0728171" lon="-105.2306215">
  <ele>1596.51</ele>
  <time>2026-08-27T18:30:29Z</time>
  <course>349.31</course>
  <speed>0.022360679774997897</speed>
  <fix>3d</fix>
</trkpt>
<trkpt lat="40.0728172" lon="-105.2306218">
  <ele>1596.43</ele>
  <time>2026-08-27T18:30:29Z</time>
  <course>172.83</course>
  <speed>0.0</speed>
  <fix>3d</fix>
</trkpt>
<trkpt lat="40.0728171" lon="-105.2306215">
  <ele>1596.51</ele>
  <time>2026-08-27T18:30:29Z</time>
  <course>349.3</course>
  <speed>0.022360679774997897</speed>
  <fix>3d</fix>
</trkpt>
<trkpt lat="40.0728172" lon="-105.2306218">
  <ele>1596.43</ele>
  <time>2026-08-27T18:30:29Z</time>
  <course>168.48</course>
  <speed>0.0</speed>
  <fix>3d</fix>
</trkpt>
<trkpt lat="40.0728171" lon="-105.2306215">
  <ele>1596.5</ele>
  <time>2026-08-27T18:30:29Z</time>
  <course>349.29</course>
  <speed>0.022360679774997897</speed>
  <fix>3d</fix>
</trkpt>
<trkpt lat="40.0728172" lon="-105.2306218">
  <ele>1596.42</ele>
  <time>2026-08-27T18:30:29Z</time>
  <course>169.31</course>
  <speed>0.0</speed>
  <fix>3d</fix>
</trkpt>
<trkpt lat="40.0728171" lon="-105.2306215">
  <ele>1596.5</ele>
  <time>2026-08-27T18:30:29Z</time>
  <course>349.28</course>
  <speed>0.022360679774997897</speed>
  <fix>3d</fix>
</trkpt>
<trkpt lat="40.0728172" lon="-105.2306218">
  <ele>1596.42</ele>
  <time>2026-08-27T18:30:29Z</time>
  <course>174.17</course>
  <speed>0.0</speed>
  <fix>3d</fix>
</trkpt>
<trkpt lat="40.0728171" lon="-105.2306215">
  <ele>1596.5</ele>
  <time>2026-08-27T18:30:29Z</time>
  <course>349.27</course>
  <speed>0.022360679774997897</speed>
  <fix>3d</fix>
</trkpt>
<trkpt lat="40.0728172" lon="-105.2306218">
  <ele>1596.42</ele>
  <time>2026-08-27T18:30:29Z</time>
  <course>171.98</course>
  <speed>0.0</speed>
  <fix>3d</fix>
</trkpt>
<trkpt lat="40.0728171" lon="-105.2306215">
  <ele>1596.5</ele>
  <time>2026-08-27T18:30:29Z</time>
  <course>349.24</course>
  <speed>0.022360679774997897</speed>
  <fix>3d</fix>
</trkpt>
<trkpt lat="40.0728172" lon="-105.2306218">
  <ele>1596.42</ele>
  <time>2026-08-27T18:30:29Z</time>
  <course>164.27</course>
  <speed>0.0</speed>
  <fix>3d</fix>
</trkpt>
<trkpt lat="40.0728171" lon="-105.2306215">
  <ele>1596.5</ele>
  <time>2026-08-27T18:30:30Z</time>
  <course>349.22</course>
  <speed>0.022360679774997897</speed>
  <fix>3d</fix>
</trkpt>
<trkpt lat="40.0728172" lon="-105.2306218">
  <ele>1596.42</ele>
  <time>2026-08-27T18:30:30Z</time>
  <course>159.47</course>
  <speed>0.0</speed>
  <fix>3d</fix>
</trkpt>
<trkpt lat="40.0728171" lon="-105.2306215">
  <ele>1596.5</ele>
  <time>2026-08-27T18:30:30Z</time>
  <course>349.2</course>
  <speed>0.022360679774997897</speed>
  <fix>3d</fix>
</trkpt>
<trkpt lat="40.0728172" lon="-105.2306218">
  <ele>1596.43</ele>
  <time>2026-08-27T18:30:30Z</time>
  <course>160.14</course>
  <speed>0.0</speed>
  <fix>3d</fix>
</trkpt>
<trkpt lat="40.0728171" lon="-105.2306215">
  <ele>1596.51</ele>
  <time>2026-08-27T18:30:30Z</time>
  <course>349.19</course>
  <speed>0.022360679774997897</speed>
  <fix>3d</fix>
</trkpt>
<trkpt lat="40.0728172" lon="-105.2306218">
  <ele>1596.43</ele>
  <time>2026-08-27T18:30:30Z</time>
  <course>163.59</course>
  <speed>0.0</speed>
  <fix>3d</fix>
</trkpt>
<trkpt lat="40.0728171" lon="-105.2306215">
  <ele>1596.51</ele>
  <time>2026-08-27T18:30:30Z</time>
  <course>349.19</course>
  <speed>0.022360679774997897</speed>
  <fix>3d</fix>
</trkpt>
<trkpt lat="40.0728171" lon="-105.2306218">
  <ele>1596.43</ele>
  <time>2026-08-27T18:30:30Z</time>
  <course>163.98</course>
  <speed>0.0</speed>
  <fix>3d</fix>
</trkpt>
<trkpt lat="40.0728171" lon="-105.2306215">
  <ele>1596.51</ele>
  <time>2026-08-27T18:30:30Z</time>
  <course>349.2</course>
  <speed>0.022360679774997897</speed>
  <fix>3d</fix>
</trkpt>
<trkpt lat="40.0728171" lon="-105.2306218">
  <ele>1596.43</ele>
  <time>2026-08-27T18:30:30Z</time>
  <course>163.76</course>
  <speed>0.0</speed>
  <fix>3d</fix>
</trkpt>
<trkpt lat="40.0728171" lon="-105.2306215">
  <ele>1596.51</ele>
  <time>2026-08-27T18:30:30Z</time>
  <course>349.22</course>
  <speed>0.022360679774997897</speed>
  <fix>3d</fix>
</trkpt>
<trkpt lat="40.0728171" lon="-105.2306218">
  <ele>1596.44</ele>
  <time>2026-08-27T18:30:30Z</time>
  <course>164.31</course>
  <speed>0.0</speed>
  <fix>3d</fix>
</trkpt>
<trkpt lat="40.0728171" lon="-105.2306215">
  <ele>1596.52</ele>
  <time>2026-08-27T18:30:30Z</time>
  <course>349.24</course>
  <speed>0.022360679774997897</speed>
  <fix>3d</fix>
</trkpt>
<trkpt lat="40.0728171" lon="-105.2306218">
  <ele>1596.44</ele>
  <time>2026-08-27T18:30:30Z</time>
  <course>163.91</course>
  <speed>0.0</speed>
  <fix>3d</fix>
</trkpt>
<trkpt lat="40.0728171" lon="-105.2306215">
  <ele>1596.52</ele>
  <time>2026-08-27T18:30:30Z</time>
  <course>349.25</course>
  <speed>0.022360679774997897</speed>
  <fix>3d</fix>
</trkpt>
<trkpt lat="40.0728171" lon="-105.2306218">
  <ele>1596.44</ele>
  <time>2026-08-27T18:30:30Z</time>
  <course>161.93</course>
  <speed>0.0</speed>
  <fix>3d</fix>
</trkpt>
<trkpt lat="40.0728171" lon="-105.2306215">
  <ele>1596.52</ele>
  <time>2026-08-27T18:30:30Z</time>
  <course>349.26</course>
  <speed>0.022360679774997897</speed>
  <fix>3d</fix>
</trkpt>
<trkpt lat="40.0728171" lon="-105.2306218">
  <ele>1596.44</ele>
  <time>2026-08-27T18:30:30Z</time>
  <course>155.4</course>
  <speed>0.0</speed>
  <fix>3d</fix>
</trkpt>
<trkpt lat="40.0728171" lon="-105.2306215">
  <ele>1596.52</ele>
  <time>2026-08-27T18:30:30Z</time>
  <course>349.28</course>
  <speed>0.022360679774997897</speed>
  <fix>3d</fix>
</trkpt>
<trkpt lat="40.0728171" lon="-105.2306218">
  <ele>1596.44</ele>
  <time>2026-08-27T18:30:30Z</time>
  <course>136.1</course>
  <speed>0.0</speed>
  <fix>3d</fix>
</trkpt>
<trkpt lat="40.0728171" lon="-105.2306215">
  <ele>1596.52</ele>
  <time>2026-08-27T18:30:30Z</time>
  <course>349.3</course>
  <speed>0.022360679774997897</speed>
  <fix>3d</fix>
</trkpt>
<trkpt lat="40.0728171" lon="-105.2306218">
  <ele>1596.43</ele>
  <time>2026-08-27T18:30:30Z</time>
  <course>90.48</course>
  <speed>0.0</speed>
  <fix>3d</fix>
</trkpt>
<trkpt lat="40.0728171" lon="-105.2306215">
  <ele>1596.52</ele>
  <time>2026-08-27T18:30:30Z</time>
  <course>349.29</course>
  <speed>0.02</speed>
  <fix>3d</fix>
</trkpt>
<trkpt lat="40.0728171" lon="-105.2306218">
  <ele>1596.43</ele>
  <time>2026-08-27T18:30:30Z</time>
  <course>53.05</course>
  <speed>0.0</speed>
  <fix>3d</fix>
</trkpt>
<trkpt lat="40.0728171" lon="-105.2306215">
  <ele>1596.52</ele>
  <time>2026-08-27T18:30:30Z</time>
  <course>349.29</course>
  <speed>0.02</speed>
  <fix>3d</fix>
</trkpt>
<trkpt lat="40.0728171" lon="-105.2306218">
  <ele>1596.43</ele>
  <time>2026-08-27T18:30:30Z</time>
  <course>39.84</course>
  <speed>0.0</speed>
  <fix>3d</fix>
</trkpt>
<trkpt lat="40.0728171" lon="-105.2306215">
  <ele>1596.52</ele>
  <time>2026-08-27T18:30:30Z</time>
  <course>349.29</course>
  <speed>0.02</speed>
  <fix>3d</fix>
</trkpt>
<trkpt lat="40.0728171" lon="-105.2306218">
  <ele>1596.43</ele>
  <time>2026-08-27T18:30:30Z</time>
  <course>36.15</course>
  <speed>0.0</speed>
  <fix>3d</fix>
</trkpt>
<trkpt lat="40.0728171" lon="-105.2306215">
  <ele>1596.52</ele>
  <time>2026-08-27T18:30:30Z</time>
  <course>349.29</course>
  <speed>0.02</speed>
  <fix>3d</fix>
</trkpt>
<trkpt lat="40.0728171" lon="-105.2306218">
  <ele>1596.42</ele>
  <time>2026-08-27T18:30:30Z</time>
  <course>32.9</course>
  <speed>0.0</speed>
  <fix>3d</fix>
</trkpt>
<trkpt lat="40.0728171" lon="-105.2306215">
  <ele>1596.52</ele>
  <time>2026-08-27T18:30:30Z</time>
  <course>349.28</course>
  <speed>0.02</speed>
  <fix>3d</fix>
</trkpt>
<trkpt lat="40.0728171" lon="-105.2306218">
  <ele>1596.42</ele>
  <time>2026-08-27T18:30:30Z</time>
  <course>33.11</course>
  <speed>0.0</speed>
  <fix>3d</fix>
</trkpt>
<trkpt lat="40.0728171" lon="-105.2306215">
  <ele>1596.52</ele>
  <time>2026-08-27T18:30:30Z</time>
  <course>349.28</course>
  <speed>0.02</speed>
  <fix>3d</fix>
</trkpt>
<trkpt lat="40.0728171" lon="-105.2306218">
  <ele>1596.42</ele>
  <time>2026-08-27T18:30:30Z</time>
  <course>34.04</course>
  <speed>0.0</speed>
  <fix>3d</fix>
</trkpt>
<trkpt lat="40.0728171" lon="-105.2306215">
  <ele>1596.52</ele>
  <time>2026-08-27T18:30:30Z</time>
  <course>349.28</course>
  <speed>0.02</speed>
  <fix>3d</fix>
</trkpt>
<trkpt lat="40.0728171" lon="-105.2306218">
  <ele>1596.42</ele>
  <time>2026-08-27T18:30:30Z</time>
  <course>32.0</course>
  <speed>0.0</speed>
  <fix>3d</fix>
</trkpt>
<trkpt lat="40.0728171" lon="-105.2306215">
  <ele>1596.52</ele>
  <time>2026-08-27T18:30:30Z</time>
  <course>349.29</course>
  <speed>0.02</speed>
  <fix>3d</fix>
</trkpt>
<trkpt lat="40.0728171" lon="-105.2306218">
  <ele>1596.42</ele>
  <time>2026-08-27T18:30:30Z</time>
  <course>28.92</course>
  <speed>0.0</speed>
  <fix>3d</fix>
</trkpt>
<trkpt lat="40.0728171" lon="-105.2306215">
  <ele>1596.52</ele>
  <time>2026-08-27T18:30:30Z</time>
  <course>349.29</course>
  <speed>0.02</speed>
  <fix>3d</fix>
</trkpt>
<trkpt lat="40.0728171" lon="-105.2306218">
  <ele>1596.41</ele>
  <time>2026-08-27T18:30:30Z</time>
  <course>26.91</course>
  <speed>0.0</speed>
  <fix>3d</fix>
</trkpt>
<trkpt lat="40.0728171" lon="-105.2306215">
  <ele>1596.52</ele>
  <time>2026-08-27T18:30:30Z</time>
  <course>349.29</course>
  <speed>0.02</speed>
  <fix>3d</fix>
</trkpt>
<trkpt lat="40.0728171" lon="-105.2306218">
  <ele>1596.41</ele>
  <time>2026-08-27T18:30:30Z</time>
  <course>28.1</course>
  <speed>0.0</speed>
  <fix>3d</fix>
</trkpt>
<trkpt lat="40.0728171" lon="-105.2306215">
  <ele>1596.51</ele>
  <time>2026-08-27T18:30:30Z</time>
  <course>349.29</course>
  <speed>0.022360679774997897</speed>
  <fix>3d</fix>
</trkpt>
<trkpt lat="40.0728171" lon="-105.2306218">
  <ele>1596.41</ele>
  <time>2026-08-27T18:30:30Z</time>
  <course>30.9</course>
  <speed>0.0</speed>
  <fix>3d</fix>
</trkpt>
<trkpt lat="40.0728171" lon="-105.2306215">
  <ele>1596.51</ele>
  <time>2026-08-27T18:30:30Z</time>
  <course>349.29</course>
  <speed>0.022360679774997897</speed>
  <fix>3d</fix>
</trkpt>
<trkpt lat="40.0728171" lon="-105.2306218">
  <ele>1596.41</ele>
  <time>2026-08-27T18:30:30Z</time>
  <course>30.85</course>
  <speed>0.0</speed>
  <fix>3d</fix>
</trkpt>
<trkpt lat="40.0728171" lon="-105.2306215">
  <ele>1596.5</ele>
  <time>2026-08-27T18:30:30Z</time>
  <course>349.29</course>
  <speed>0.022360679774997897</speed>
  <fix>3d</fix>
</trkpt>
<trkpt lat="40.0728171" lon="-105.2306218">
  <ele>1596.4</ele>
  <time>2026-08-27T18:30:30Z</time>
  <course>28.44</course>
  <speed>0.0</speed>
  <fix>3d</fix>
</trkpt>
<trkpt lat="40.0728171" lon="-105.2306215">
  <ele>1596.5</ele>
  <time>2026-08-27T18:30:30Z</time>
  <course>349.28</course>
  <speed>0.022360679774997897</speed>
  <fix>3d</fix>
</trkpt>
<trkpt lat="40.0728171" lon="-105.2306218">
  <ele>1596.4</ele>
  <time>2026-08-27T18:30:30Z</time>
  <course>26.21</course>
  <speed>0.0</speed>
  <fix>3d</fix>
</trkpt>
<trkpt lat="40.0728171" lon="-105.2306215">
  <ele>1596.49</ele>
  <time>2026-08-27T18:30:30Z</time>
  <course>349.27</course>
  <speed>0.022360679774997897</speed>
  <fix>3d</fix>
</trkpt>
<trkpt lat="40.0728171" lon="-105.2306218">
  <ele>1596.4</ele>
  <time>2026-08-27T18:30:30Z</time>
  <course>25.7</course>
  <speed>0.0</speed>
  <fix>3d</fix>
</trkpt>
<trkpt lat="40.0728171" lon="-105.2306215">
  <ele>1596.49</ele>
  <time>2026-08-27T18:30:30Z</time>
  <course>349.24</course>
  <speed>0.022360679774997897</speed>
  <fix>3d</fix>
</trkpt>
<trkpt lat="40.0728171" lon="-105.2306218">
  <ele>1596.4</ele>
  <time>2026-08-27T18:30:30Z</time>
  <course>27.86</course>
  <speed>0.0</speed>
  <fix>3d</fix>
</trkpt>
<trkpt lat="40.0728171" lon="-105.2306215">
  <ele>1596.49</ele>
  <time>2026-08-27T18:30:30Z</time>
  <course>349.22</course>
  <speed>0.022360679774997897</speed>
  <fix>3d</fix>
</trkpt>
<trkpt lat="40.0728171" lon="-105.2306218">
  <ele>1596.4</ele>
  <time>2026-08-27T18:30:30Z</time>
  <course>32.13</course>
  <speed>0.0</speed>
  <fix>3d</fix>
</trkpt>
<trkpt lat="40.0728171" lon="-105.2306215">
  <ele>1596.5</ele>
  <time>2026-08-27T18:30:30Z</time>
  <course>349.21</course>
  <speed>0.022360679774997897</speed>
  <fix>3d</fix>
</trkpt>
<trkpt lat="40.0728171" lon="-105.2306218">
  <ele>1596.41</ele>
  <time>2026-08-27T18:30:30Z</time>
  <course>37.56</course>
  <speed>0.0</speed>
  <fix>3d</fix>
</trkpt>
<trkpt lat="40.0728171" lon="-105.2306215">
  <ele>1596.51</ele>
  <time>2026-08-27T18:30:30Z</time>
  <course>349.2</course>
  <speed>0.022360679774997897</speed>
  <fix>3d</fix>
</trkpt>
<trkpt lat="40.0728171" lon="-105.2306218">
  <ele>1596.41</ele>
  <time>2026-08-27T18:30:30Z</time>
  <course>40.73</course>
  <speed>0.0</speed>
  <fix>3d</fix>
</trkpt>
<trkpt lat="40.0728171" lon="-105.2306215">
  <ele>1596.51</ele>
  <time>2026-08-27T18:30:30Z</time>
  <course>349.2</course>
  <speed>0.022360679774997897</speed>
  <fix>3d</fix>
</trkpt>
<trkpt lat="40.0728171" lon="-105.2306218">
  <ele>1596.41</ele>
  <time>2026-08-27T18:30:30Z</time>
  <course>43.07</course>
  <speed>0.0</speed>
  <fix>3d</fix>
</trkpt>
<trkpt lat="40.0728171" lon="-105.2306215">
  <ele>1596.51</ele>
  <time>2026-08-27T18:30:30Z</time>
  <course>349.21</course>
  <speed>0.022360679774997897</speed>
  <fix>3d</fix>
</trkpt>
<trkpt lat="40.0728171" lon="-105.2306218">
  <ele>1596.42</ele>
  <time>2026-08-27T18:30:30Z</time>
  <course>46.54</course>
  <speed>0.0</speed>
  <fix>3d</fix>
</trkpt>
<trkpt lat="40.0728171" lon="-105.2306215">
  <ele>1596.51</ele>
  <time>2026-08-27T18:30:30Z</time>
  <course>349.22</course>
  <speed>0.022360679774997897</speed>
  <fix>3d</fix>
</trkpt>
<trkpt lat="40.0728171" lon="-105.2306218">
  <ele>1596.42</ele>
  <time>2026-08-27T18:30:30Z</time>
  <course>49.91</course>
  <speed>0.0</speed>
  <fix>3d</fix>
</trkpt>
<trkpt lat="40.0728171" lon="-105.2306215">
  <ele>1596.52</ele>
  <time>2026-08-27T18:30:30Z</time>
  <course>349.24</course>
  <speed>0.022360679774997897</speed>
  <fix>3d</fix>
</trkpt>
<trkpt lat="40.0728171" lon="-105.2306218">
  <ele>1596.42</ele>
  <time>2026-08-27T18:30:30Z</time>
  <course>52.65</course>
  <speed>0.0</speed>
  <fix>3d</fix>
</trkpt>
<trkpt lat="40.0728171" lon="-105.2306215">
  <ele>1596.52</ele>
  <time>2026-08-27T18:30:30Z</time>
  <course>349.26</course>
  <speed>0.022360679774997897</speed>
  <fix>3d</fix>
</trkpt>
<trkpt lat="40.0728171" lon="-105.2306218">
  <ele>1596.42</ele>
  <time>2026-08-27T18:30:30Z</time>
  <course>49.77</course>
  <speed>0.0</speed>
  <fix>3d</fix>
</trkpt>
<trkpt lat="40.0728171" lon="-105.2306215">
  <ele>1596.51</ele>
  <time>2026-08-27T18:30:30Z</time>
  <course>349.27</course>
  <speed>0.022360679774997897</speed>
  <fix>3d</fix>
</trkpt>
<trkpt lat="40.0728171" lon="-105.2306218">
  <ele>1596.42</ele>
  <time>2026-08-27T18:30:30Z</time>
  <course>44.76</course>
  <speed>0.0</speed>
  <fix>3d</fix>
</trkpt>
<trkpt lat="40.0728171" lon="-105.2306215">
  <ele>1596.51</ele>
  <time>2026-08-27T18:30:30Z</time>
  <course>349.28</course>
  <speed>0.022360679774997897</speed>
  <fix>3d</fix>
</trkpt>
<trkpt lat="40.0728172" lon="-105.2306218">
  <ele>1596.42</ele>
  <time>2026-08-27T18:30:30Z</time>
  <course>42.74</course>
  <speed>0.0</speed>
  <fix>3d</fix>
</trkpt>
<trkpt lat="40.0728171" lon="-105.2306215">
  <ele>1596.52</ele>
  <time>2026-08-27T18:30:30Z</time>
  <course>349.28</course>
  <speed>0.022360679774997897</speed>
  <fix>3d</fix>
</trkpt>
<trkpt lat="40.0728172" lon="-105.2306217">
  <ele>1596.42</ele>
  <time>2026-08-27T18:30:30Z</time>
  <course>43.58</course>
  <speed>0.0</speed>
  <fix>3d</fix>
</trkpt>
<trkpt lat="40.0728171" lon="-105.2306215">
  <ele>1596.52</ele>
  <time>2026-08-27T18:30:30Z</time>
  <course>349.29</course>
  <speed>0.022360679774997897</speed>
  <fix>3d</fix>
</trkpt>
<trkpt lat="40.0728172" lon="-105.2306217">
  <ele>1596.41</ele>
  <time>2026-08-27T18:30:30Z</time>
  <course>44.33</course>
  <speed>0.0</speed>
  <fix>3d</fix>
</trkpt>
<trkpt lat="40.0728171" lon="-105.2306215">
  <ele>1596.52</ele>
  <time>2026-08-27T18:30:30Z</time>
  <course>349.3</course>
  <speed>0.022360679774997897</speed>
  <fix>3d</fix>
</trkpt>
<trkpt lat="40.0728172" lon="-105.2306217">
  <ele>1596.41</ele>
  <time>2026-08-27T18:30:30Z</time>
  <course>44.87</course>
  <speed>0.0</speed>
  <fix>3d</fix>
</trkpt>
<trkpt lat="40.0728171" lon="-105.2306215">
  <ele>1596.51</ele>
  <time>2026-08-27T18:30:30Z</time>
  <course>349.3</course>
  <speed>0.022360679774997897</speed>
  <fix>3d</fix>
</trkpt>
<trkpt lat="40.0728172" lon="-105.2306217">
  <ele>1596.41</ele>
  <time>2026-08-27T18:30:30Z</time>
  <course>46.8</course>
  <speed>0.0</speed>
  <fix>3d</fix>
</trkpt>
<trkpt lat="40.0728171" lon="-105.2306215">
  <ele>1596.51</ele>
  <time>2026-08-27T18:30:30Z</time>
  <course>349.3</course>
  <speed>0.022360679774997897</speed>
  <fix>3d</fix>
</trkpt>
<trkpt lat="40.0728172" lon="-105.2306217">
  <ele>1596.41</ele>
  <time>2026-08-27T18:30:30Z</time>
  <course>49.81</course>
  <speed>0.0</speed>
  <fix>3d</fix>
</trkpt>
<trkpt lat="40.0728171" lon="-105.2306215">
  <ele>1596.5</ele>
  <time>2026-08-27T18:30:30Z</time>
  <course>349.29</course>
  <speed>0.022360679774997897</speed>
  <fix>3d</fix>
</trkpt>
<trkpt lat="40.0728172" lon="-105.2306217">
  <ele>1596.41</ele>
  <time>2026-08-27T18:30:30Z</time>
  <course>59.52</course>
  <speed>0.0</speed>
  <fix>3d</fix>
</trkpt>
<trkpt lat="40.0728171" lon="-105.2306215">
  <ele>1596.5</ele>
  <time>2026-08-27T18:30:30Z</time>
  <course>349.29</course>
  <speed>0.022360679774997897</speed>
  <fix>3d</fix>
</trkpt>
<trkpt lat="40.0728172" lon="-105.2306217">
  <ele>1596.41</ele>
  <time>2026-08-27T18:30:30Z</time>
  <course>83.63</course>
  <speed>0.0</speed>
  <fix>3d</fix>
</trkpt>
<trkpt lat="40.0728171" lon="-105.2306215">
  <ele>1596.5</ele>
  <time>2026-08-27T18:30:30Z</time>
  <course>349.27</course>
  <speed>0.022360679774997897</speed>
  <fix>3d</fix>
</trkpt>
<trkpt lat="40.0728172" lon="-105.2306217">
  <ele>1596.41</ele>
  <time>2026-08-27T18:30:30Z</time>
  <course>120.64</course>
  <speed>0.0</speed>
  <fix>3d</fix>
</trkpt>
<trkpt lat="40.0728171" lon="-105.2306215">
  <ele>1596.5</ele>
  <time>2026-08-27T18:30:30Z</time>
  <course>349.25</course>
  <speed>0.022360679774997897</speed>
  <fix>3d</fix>
</trkpt>
<trkpt lat="40.0728172" lon="-105.2306217">
  <ele>1596.41</ele>
  <time>2026-08-27T18:30:30Z</time>
  <course>147.18</course>
  <speed>0.0</speed>
  <fix>3d</fix>
</trkpt>
<trkpt lat="40.0728171" lon="-105.2306215">
  <ele>1596.5</ele>
  <time>2026-08-27T18:30:30Z</time>
  <course>349.24</course>
  <speed>0.022360679774997897</speed>
  <fix>3d</fix>
</trkpt>
<trkpt lat="40.0728172" lon="-105.2306217">
  <ele>1596.41</ele>
  <time>2026-08-27T18:30:30Z</time>
  <course>169.02</course>
  <speed>0.0</speed>
  <fix>3d</fix>
</trkpt>
<trkpt lat="40.0728171" lon="-105.2306215">
  <ele>1596.51</ele>
  <time>2026-08-27T18:30:30Z</time>
  <course>349.23</course>
  <speed>0.022360679774997897</speed>
  <fix>3d</fix>
</trkpt>
<trkpt lat="40.0728172" lon="-105.2306217">
  <ele>1596.41</ele>
  <time>2026-08-27T18:30:30Z</time>
  <course>185.4</course>
  <speed>0.0</speed>
  <fix>3d</fix>
</trkpt>
<trkpt lat="40.0728171" lon="-105.2306215">
  <ele>1596.51</ele>
  <time>2026-08-27T18:30:30Z</time>
  <course>349.22</course>
  <speed>0.022360679774997897</speed>
  <fix>3d</fix>
</trkpt>
<trkpt lat="40.0728172" lon="-105.2306217">
  <ele>1596.41</ele>
  <time>2026-08-27T18:30:30Z</time>
  <course>193.65</course>
  <speed>0.0</speed>
  <fix>3d</fix>
</trkpt>
<trkpt lat="40.0728171" lon="-105.2306215">
  <ele>1596.51</ele>
  <time>2026-08-27T18:30:30Z</time>
  <course>349.21</course>
  <speed>0.022360679774997897</speed>
  <fix>3d</fix>
</trkpt>
<trkpt lat="40.0728172" lon="-105.2306217">
  <ele>1596.41</ele>
  <time>2026-08-27T18:30:30Z</time>
  <course>198.24</course>
  <speed>0.0</speed>
  <fix>3d</fix>
</trkpt>
<trkpt lat="40.0728171" lon="-105.2306215">
  <ele>1596.51</ele>
  <time>2026-08-27T18:30:30Z</time>
  <course>349.22</course>
  <speed>0.022360679774997897</speed>
  <fix>3d</fix>
</trkpt>
<trkpt lat="40.0728172" lon="-105.2306217">
  <ele>1596.41</ele>
  <time>2026-08-27T18:30:30Z</time>
  <course>200.25</course>
  <speed>0.0</speed>
  <fix>3d</fix>
</trkpt>
<trkpt lat="40.0728171" lon="-105.2306215">
  <ele>1596.51</ele>
  <time>2026-08-27T18:30:30Z</time>
  <course>349.22</course>
  <speed>0.022360679774997897</speed>
  <fix>3d</fix>
</trkpt>
<trkpt lat="40.0728172" lon="-105.2306217">
  <ele>1596.41</ele>
  <time>2026-08-27T18:30:30Z</time>
  <course>198.84</course>
  <speed>0.0</speed>
  <fix>3d</fix>
</trkpt>
<trkpt lat="40.0728171" lon="-105.2306215">
  <ele>1596.5</ele>
  <time>2026-08-27T18:30:30Z</time>
  <course>349.22</course>
  <speed>0.022360679774997897</speed>
  <fix>3d</fix>
</trkpt>
<trkpt lat="40.0728172" lon="-105.2306217">
  <ele>1596.41</ele>
  <time>2026-08-27T18:30:30Z</time>
  <course>195.63</course>
  <speed>0.0</speed>
  <fix>3d</fix>
</trkpt>
<trkpt lat="40.0728171" lon="-105.2306215">
  <ele>1596.5</ele>
  <time>2026-08-27T18:30:30Z</time>
  <course>349.21</course>
  <speed>0.022360679774997897</speed>
  <fix>3d</fix>
</trkpt>
<trkpt lat="40.0728172" lon="-105.2306217">
  <ele>1596.41</ele>
  <time>2026-08-27T18:30:30Z</time>
  <course>193.71</course>
  <speed>0.0</speed>
  <fix>3d</fix>
</trkpt>
<trkpt lat="40.0728171" lon="-105.2306215">
  <ele>1596.5</ele>
  <time>2026-08-27T18:30:30Z</time>
  <course>349.21</course>
  <speed>0.022360679774997897</speed>
  <fix>3d</fix>
</trkpt>
<trkpt lat="40.0728172" lon="-105.2306217">
  <ele>1596.41</ele>
  <time>2026-08-27T18:30:30Z</time>
  <course>193.71</course>
  <speed>0.0</speed>
  <fix>3d</fix>
</trkpt>
<trkpt lat="40.0728171" lon="-105.2306215">
  <ele>1596.5</ele>
  <time>2026-08-27T18:30:30Z</time>
  <course>349.21</course>
  <speed>0.022360679774997897</speed>
  <fix>3d</fix>
</trkpt>
<trkpt lat="40.0728172" lon="-105.2306217">
  <ele>1596.41</ele>
  <time>2026-08-27T18:30:30Z</time>
  <course>197.48</course>
  <speed>0.0</speed>
  <fix>3d</fix>
</trkpt>
<trkpt lat="40.0728171" lon="-105.2306215">
  <ele>1596.5</ele>
  <time>2026-08-27T18:30:30Z</time>
  <course>349.2</course>
  <speed>0.022360679774997897</speed>
  <fix>3d</fix>
</trkpt>
<trkpt lat="40.0728172" lon="-105.2306217">
  <ele>1596.42</ele>
  <time>2026-08-27T18:30:30Z</time>
  <course>200.83</course>
  <speed>0.0</speed>
  <fix>3d</fix>
</trkpt>
<trkpt lat="40.0728171" lon="-105.2306215">
  <ele>1596.5</ele>
  <time>2026-08-27T18:30:30Z</time>
  <course>349.2</course>
  <speed>0.022360679774997897</speed>
  <fix>3d</fix>
</trkpt>
<trkpt lat="40.0728172" lon="-105.2306217">
  <ele>1596.42</ele>
  <time>2026-08-27T18:30:30Z</time>
  <course>203.47</course>
  <speed>0.0</speed>
  <fix>3d</fix>
</trkpt>
<trkpt lat="40.0728171" lon="-105.2306215">
  <ele>1596.5</ele>
  <time>2026-08-27T18:30:30Z</time>
  <course>349.2</course>
  <speed>0.022360679774997897</speed>
  <fix>3d</fix>
</trkpt>
<trkpt lat="40.0728172" lon="-105.2306217">
  <ele>1596.42</ele>
  <time>2026-08-27T18:30:30Z</time>
  <course>208.68</course>
  <speed>0.0</speed>
  <fix>3d</fix>
</trkpt>
<trkpt lat="40.0728171" lon="-105.2306215">
  <ele>1596.5</ele>
  <time>2026-08-27T18:30:30Z</time>
  <course>349.2</course>
  <speed>0.022360679774997897</speed>
  <fix>3d</fix>
</trkpt>
<trkpt lat="40.0728172" lon="-105.2306217">
  <ele>1596.42</ele>
  <time>2026-08-27T18:30:30Z</time>
  <course>210.19</course>
  <speed>0.0</speed>
  <fix>3d</fix>
</trkpt>
<trkpt lat="40.0728171" lon="-105.2306215">
  <ele>1596.5</ele>
  <time>2026-08-27T18:30:30Z</time>
  <course>349.2</course>
  <speed>0.022360679774997897</speed>
  <fix>3d</fix>
</trkpt>
<trkpt lat="40.0728172" lon="-105.2306217">
  <ele>1596.42</ele>
  <time>2026-08-27T18:30:30Z</time>
  <course>209.75</course>
  <speed>0.0</speed>
  <fix>3d</fix>
</trkpt>
<trkpt lat="40.0728171" lon="-105.2306215">
  <ele>1596.5</ele>
  <time>2026-08-27T18:30:30Z</time>
  <course>349.18</course>
  <speed>0.022360679774997897</speed>
  <fix>3d</fix>
</trkpt>
<trkpt lat="40.0728172" lon="-105.2306217">
  <ele>1596.43</ele>
  <time>2026-08-27T18:30:30Z</time>
  <course>210.83</course>
  <speed>0.0</speed>
  <fix>3d</fix>
</trkpt>
<trkpt lat="40.0728171" lon="-105.2306215">
  <ele>1596.49</ele>
  <time>2026-08-27T18:30:30Z</time>
  <course>349.17</course>
  <speed>0.022360679774997897</speed>
  <fix>3d</fix>
</trkpt>
<trkpt lat="40.0728172" lon="-105.2306217">
  <ele>1596.43</ele>
  <time>2026-08-27T18:30:30Z</time>
  <course>212.84</course>
  <speed>0.0</speed>
  <fix>3d</fix>
</trkpt>
<trkpt lat="40.0728171" lon="-105.2306215">
  <ele>1596.5</ele>
  <time>2026-08-27T18:30:30Z</time>
  <course>349.17</course>
  <speed>0.022360679774997897</speed>
  <fix>3d</fix>
</trkpt>
<trkpt lat="40.0728172" lon="-105.2306217">
  <ele>1596.43</ele>
  <time>2026-08-27T18:30:30Z</time>
  <course>214.93</course>
  <speed>0.0</speed>
  <fix>3d</fix>
</trkpt>
<trkpt lat="40.0728171" lon="-105.2306215">
  <ele>1596.51</ele>
  <time>2026-08-27T18:30:30Z</time>
  <course>349.17</course>
  <speed>0.022360679774997897</speed>
  <fix>3d</fix>
</trkpt>
<trkpt lat="40.0728171" lon="-105.2306217">
  <ele>1596.44</ele>
  <time>2026-08-27T18:30:30Z</time>
  <course>215.51</course>
  <speed>0.0</speed>
  <fix>3d</fix>
</trkpt>
<trkpt lat="40.0728171" lon="-105.2306215">
  <ele>1596.51</ele>
  <time>2026-08-27T18:30:30Z</time>
  <course>349.19</course>
  <speed>0.022360679774997897</speed>
  <fix>3d</fix>
</trkpt>
<trkpt lat="40.0728171" lon="-105.2306217">
  <ele>1596.44</ele>
  <time>2026-08-27T18:30:30Z</time>
  <course>214.19</course>
  <speed>0.0</speed>
  <fix>3d</fix>
</trkpt>
<trkpt lat="40.0728171" lon="-105.2306215">
  <ele>1596.52</ele>
  <time>2026-08-27T18:30:30Z</time>
  <course>349.19</course>
  <speed>0.022360679774997897</speed>
  <fix>3d</fix>
</trkpt>
<trkpt lat="40.0728171" lon="-105.2306217">
  <ele>1596.44</ele>
  <time>2026-08-27T18:30:30Z</time>
  <course>211.91</course>
  <speed>0.0</speed>
  <fix>3d</fix>
</trkpt>
<trkpt lat="40.0728171" lon="-105.2306215">
  <ele>1596.52</ele>
  <time>2026-08-27T18:30:30Z</time>
  <course>349.21</course>
  <speed>0.022360679774997897</speed>
  <fix>3d</fix>
</trkpt>
<trkpt lat="40.0728171" lon="-105.2306217">
  <ele>1596.44</ele>
  <time>2026-08-27T18:30:30Z</time>
  <course>209.76</course>
  <speed>0.0</speed>
  <fix>3d</fix>
</trkpt>
<trkpt lat="40.0728171" lon="-105.2306215">
  <ele>1596.52</ele>
  <time>2026-08-27T18:30:30Z</time>
  <course>349.23</course>
  <speed>0.022360679774997897</speed>
  <fix>3d</fix>
</trkpt>
<trkpt lat="40.0728171" lon="-105.2306217">
  <ele>1596.45</ele>
  <time>2026-08-27T18:30:30Z</time>
  <course>208.43</course>
  <speed>0.0</speed>
  <fix>3d</fix>
</trkpt>
<trkpt lat="40.0728171" lon="-105.2306215">
  <ele>1596.51</ele>
  <time>2026-08-27T18:30:30Z</time>
  <course>349.25</course>
  <speed>0.022360679774997897</speed>
  <fix>3d</fix>
</trkpt>
<trkpt lat="40.0728171" lon="-105.2306217">
  <ele>1596.45</ele>
  <time>2026-08-27T18:30:30Z</time>
  <course>209.82</course>
  <speed>0.0</speed>
  <fix>3d</fix>
</trkpt>
<trkpt lat="40.0728171" lon="-105.2306215">
  <ele>1596.51</ele>
  <time>2026-08-27T18:30:30Z</time>
  <course>349.24</course>
  <speed>0.022360679774997897</speed>
  <fix>3d</fix>
</trkpt>
<trkpt lat="40.0728171" lon="-105.2306217">
  <ele>1596.44</ele>
  <time>2026-08-27T18:30:30Z</time>
  <course>221.27</course>
  <speed>0.0</speed>
  <fix>3d</fix>
</trkpt>
<trkpt lat="40.0728171" lon="-105.2306215">
  <ele>1596.52</ele>
  <time>2026-08-27T18:30:30Z</time>
  <course>349.24</course>
  <speed>0.022360679774997897</speed>
  <fix>3d</fix>
</trkpt>
<trkpt lat="40.0728171" lon="-105.2306217">
  <ele>1596.44</ele>
  <time>2026-08-27T18:30:30Z</time>
  <course>266.05</course>
  <speed>0.0</speed>
  <fix>3d</fix>
</trkpt>
<trkpt lat="40.0728171" lon="-105.2306215">
  <ele>1596.51</ele>
  <time>2026-08-27T18:30:30Z</time>
  <course>349.23</course>
  <speed>0.02</speed>
  <fix>3d</fix>
</trkpt>
<trkpt lat="40.0728171" lon="-105.2306217">
  <ele>1596.44</ele>
  <time>2026-08-27T18:30:30Z</time>
  <course>310.58</course>
  <speed>0.0</speed>
  <fix>3d</fix>
</trkpt>
<trkpt lat="40.0728171" lon="-105.2306215">
  <ele>1596.51</ele>
  <time>2026-08-27T18:30:30Z</time>
  <course>349.23</course>
  <speed>0.02</speed>
  <fix>3d</fix>
</trkpt>
<trkpt lat="40.0728171" lon="-105.2306217">
  <ele>1596.44</ele>
  <time>2026-08-27T18:30:30Z</time>
  <course>321.31</course>
  <speed>0.0</speed>
  <fix>3d</fix>
</trkpt>
<trkpt lat="40.0728171" lon="-105.2306215">
  <ele>1596.51</ele>
  <time>2026-08-27T18:30:30Z</time>
  <course>349.23</course>
  <speed>0.02</speed>
  <fix>3d</fix>
</trkpt>
<trkpt lat="40.0728171" lon="-105.2306217">
  <ele>1596.44</ele>
  <time>2026-08-27T18:30:30Z</time>
  <course>319.91</course>
  <speed>0.0</speed>
  <fix>3d</fix>
</trkpt>
<trkpt lat="40.0728171" lon="-105.2306215">
  <ele>1596.51</ele>
  <time>2026-08-27T18:30:30Z</time>
  <course>349.23</course>
  <speed>0.02</speed>
  <fix>3d</fix>
</trkpt>
<trkpt lat="40.0728171" lon="-105.2306217">
  <ele>1596.44</ele>
  <time>2026-08-27T18:30:30Z</time>
  <course>315.46</course>
  <speed>0.0</speed>
  <fix>3d</fix>
</trkpt>
<trkpt lat="40.0728171" lon="-105.2306215">
  <ele>1596.51</ele>
  <time>2026-08-27T18:30:30Z</time>
  <course>349.23</course>
  <speed>0.02</speed>
  <fix>3d</fix>
</trkpt>
<trkpt lat="40.0728171" lon="-105.2306217">
  <ele>1596.44</ele>
  <time>2026-08-27T18:30:30Z</time>
  <course>312.22</course>
  <speed>0.0</speed>
  <fix>3d</fix>
</trkpt>
<trkpt lat="40.0728171" lon="-105.2306215">
  <ele>1596.51</ele>
  <time>2026-08-27T18:30:30Z</time>
  <course>349.23</course>
  <speed>0.02</speed>
  <fix>3d</fix>
</trkpt>
<trkpt lat="40.0728171" lon="-105.2306217">
  <ele>1596.44</ele>
  <time>2026-08-27T18:30:30Z</time>
  <course>313.56</course>
  <speed>0.0</speed>
  <fix>3d</fix>
</trkpt>
<trkpt lat="40.0728171" lon="-105.2306215">
  <ele>1596.51</ele>
  <time>2026-08-27T18:30:30Z</time>
  <course>349.23</course>
  <speed>0.02</speed>
  <fix>3d</fix>
</trkpt>
<trkpt lat="40.0728171" lon="-105.2306217">
  <ele>1596.44</ele>
  <time>2026-08-27T18:30:30Z</time>
  <course>316.53</course>
  <speed>0.0</speed>
  <fix>3d</fix>
</trkpt>
<trkpt lat="40.0728171" lon="-105.2306215">
  <ele>1596.52</ele>
  <time>2026-08-27T18:30:30Z</time>
  <course>349.23</course>
  <speed>0.02</speed>
  <fix>3d</fix>
</trkpt>
<trkpt lat="40.0728171" lon="-105.2306218">
  <ele>1596.44</ele>
  <time>2026-08-27T18:30:30Z</time>
  <course>317.55</course>
  <speed>0.0</speed>
  <fix>3d</fix>
</trkpt>
<trkpt lat="40.0728171" lon="-105.2306215">
  <ele>1596.52</ele>
  <time>2026-08-27T18:30:30Z</time>
  <course>349.23</course>
  <speed>0.02</speed>
  <fix>3d</fix>
</trkpt>
<trkpt lat="40.0728171" lon="-105.2306218">
  <ele>1596.44</ele>
  <time>2026-08-27T18:30:30Z</time>
  <course>316.85</course>
  <speed>0.0</speed>
  <fix>3d</fix>
</trkpt>
<trkpt lat="40.0728171" lon="-105.2306215">
  <ele>1596.51</ele>
  <time>2026-08-27T18:30:30Z</time>
  <course>349.24</course>
  <speed>0.022360679774997897</speed>
  <fix>3d</fix>
</trkpt>
<trkpt lat="40.0728171" lon="-105.2306218">
  <ele>1596.44</ele>
  <time>2026-08-27T18:30:30Z</time>
  <course>318.68</course>
  <speed>0.0</speed>
  <fix>3d</fix>
</trkpt>
<trkpt lat="40.0728171" lon="-105.2306215">
  <ele>1596.51</ele>
  <time>2026-08-27T18:30:30Z</time>
  <course>349.24</course>
  <speed>0.022360679774997897</speed>
  <fix>3d</fix>
</trkpt>
<trkpt lat="40.0728171" lon="-105.2306218">
  <ele>1596.44</ele>
  <time>2026-08-27T18:30:30Z</time>
  <course>329.19</course>
  <speed>0.0</speed>
  <fix>3d</fix>
</trkpt>
<trkpt lat="40.0728171" lon="-105.2306215">
  <ele>1596.51</ele>
  <time>2026-08-27T18:30:30Z</time>
  <course>349.24</course>
  <speed>0.022360679774997897</speed>
  <fix>3d</fix>
</trkpt>
<trkpt lat="40.0728171" lon="-105.2306218">
  <ele>1596.44</ele>
  <time>2026-08-27T18:30:30Z</time>
  <course>351.55</course>
  <speed>0.0</speed>
  <fix>3d</fix>
</trkpt>
<trkpt lat="40.0728171" lon="-105.2306215">
  <ele>1596.52</ele>
  <time>2026-08-27T18:30:30Z</time>
  <course>349.24</course>
  <speed>0.022360679774997897</speed>
  <fix>3d</fix>
</trkpt>
<trkpt lat="40.0728171" lon="-105.2306218">
  <ele>1596.44</ele>
  <time>2026-08-27T18:30:30Z</time>
  <course>18.38</course>
  <speed>0.0</speed>
  <fix>3d</fix>
</trkpt>
<trkpt lat="40.0728171" lon="-105.2306215">
  <ele>1596.52</ele>
  <time>2026-08-27T18:30:30Z</time>
  <course>349.24</course>
  <speed>0.022360679774997897</speed>
  <fix>3d</fix>
</trkpt>
<trkpt lat="40.0728171" lon="-105.2306218">
  <ele>1596.44</ele>
  <time>2026-08-27T18:30:30Z</time>
  <course>37.26</course>
  <speed>0.0</speed>
  <fix>3d</fix>
</trkpt>
<trkpt lat="40.0728171" lon="-105.2306215">
  <ele>1596.52</ele>
  <time>2026-08-27T18:30:30Z</time>
  <course>349.25</course>
  <speed>0.022360679774997897</speed>
  <fix>3d</fix>
</trkpt>
<trkpt lat="40.0728171" lon="-105.2306218">
  <ele>1596.44</ele>
  <time>2026-08-27T18:30:30Z</time>
  <course>43.22</course>
  <speed>0.0</speed>
  <fix>3d</fix>
</trkpt>
<trkpt lat="40.0728171" lon="-105.2306215">
  <ele>1596.52</ele>
  <time>2026-08-27T18:30:30Z</time>
  <course>349.26</course>
  <speed>0.022360679774997897</speed>
  <fix>3d</fix>
</trkpt>
<trkpt lat="40.0728171" lon="-105.2306218">
  <ele>1596.44</ele>
  <time>2026-08-27T18:30:30Z</time>
  <course>46.11</course>
  <speed>0.0</speed>
  <fix>3d</fix>
</trkpt>
<trkpt lat="40.0728171" lon="-105.2306215">
  <ele>1596.53</ele>
  <time>2026-08-27T18:30:30Z</time>
  <course>349.27</course>
  <speed>0.022360679774997897</speed>
  <fix>3d</fix>
</trkpt>
<trkpt lat="40.0728171" lon="-105.2306218">
  <ele>1596.43</ele>
  <time>2026-08-27T18:30:30Z</time>
  <course>50.19</course>
  <speed>0.0</speed>
  <fix>3d</fix>
</trkpt>
<trkpt lat="40.0728171" lon="-105.2306215">
  <ele>1596.52</ele>
  <time>2026-08-27T18:30:30Z</time>
  <course>349.29</course>
  <speed>0.022360679774997897</speed>
  <fix>3d</fix>
</trkpt>
<trkpt lat="40.0728171" lon="-105.2306218">
  <ele>1596.43</ele>
  <time>2026-08-27T18:30:30Z</time>
  <course>53.33</course>
  <speed>0.0</speed>
  <fix>3d</fix>
</trkpt>
<trkpt lat="40.0728171" lon="-105.2306215">
  <ele>1596.52</ele>
  <time>2026-08-27T18:30:30Z</time>
  <course>349.29</course>
  <speed>0.022360679774997897</speed>
  <fix>3d</fix>
</trkpt>
<trkpt lat="40.0728171" lon="-105.2306218">
  <ele>1596.43</ele>
  <time>2026-08-27T18:30:30Z</time>
  <course>54.44</course>
  <speed>0.0</speed>
  <fix>3d</fix>
</trkpt>
<trkpt lat="40.0728171" lon="-105.2306215">
  <ele>1596.52</ele>
  <time>2026-08-27T18:30:30Z</time>
  <course>349.28</course>
  <speed>0.022360679774997897</speed>
  <fix>3d</fix>
</trkpt>
<trkpt lat="40.0728171" lon="-105.2306218">
  <ele>1596.42</ele>
  <time>2026-08-27T18:30:30Z</time>
  <course>54.6</course>
  <speed>0.0</speed>
  <fix>3d</fix>
</trkpt>
<trkpt lat="40.0728171" lon="-105.2306215">
  <ele>1596.51</ele>
  <time>2026-08-27T18:30:30Z</time>
  <course>349.27</course>
  <speed>0.022360679774997897</speed>
  <fix>3d</fix>
</trkpt>
<trkpt lat="40.0728171" lon="-105.2306218">
  <ele>1596.42</ele>
  <time>2026-08-27T18:30:30Z</time>
  <course>54.89</course>
  <speed>0.0</speed>
  <fix>3d</fix>
</trkpt>
<trkpt lat="40.0728171" lon="-105.2306215">
  <ele>1596.51</ele>
  <time>2026-08-27T18:30:30Z</time>
  <course>349.27</course>
  <speed>0.022360679774997897</speed>
  <fix>3d</fix>
</trkpt>
<trkpt lat="40.0728171" lon="-105.2306218">
  <ele>1596.42</ele>
  <time>2026-08-27T18:30:30Z</time>
  <course>54.99</course>
  <speed>0.0</speed>
  <fix>3d</fix>
</trkpt>
<trkpt lat="40.0728171" lon="-105.2306215">
  <ele>1596.5</ele>
  <time>2026-08-27T18:30:30Z</time>
  <course>349.26</course>
  <speed>0.022360679774997897</speed>
  <fix>3d</fix>
</trkpt>
<trkpt lat="40.0728171" lon="-105.2306218">
  <ele>1596.42</ele>
  <time>2026-08-27T18:30:30Z</time>
  <course>54.61</course>
  <speed>0.0</speed>
  <fix>3d</fix>
</trkpt>
<trkpt lat="40.0728171" lon="-105.2306215">
  <ele>1596.5</ele>
  <time>2026-08-27T18:30:30Z</time>
  <course>349.26</course>
  <speed>0.022360679774997897</speed>
  <fix>3d</fix>
</trkpt>
<trkpt lat="40.0728171" lon="-105.2306218">
  <ele>1596.42</ele>
  <time>2026-08-27T18:30:30Z</time>
  <course>54.07</course>
  <speed>0.0</speed>
  <fix>3d</fix>
</trkpt>
<trkpt lat="40.0728171" lon="-105.2306215">
  <ele>1596.49</ele>
  <time>2026-08-27T18:30:30Z</time>
  <course>349.24</course>
  <speed>0.022360679774997897</speed>
  <fix>3d</fix>
</trkpt>
<trkpt lat="40.0728171" lon="-105.2306218">
  <ele>1596.42</ele>
  <time>2026-08-27T18:30:30Z</time>
  <course>53.89</course>
  <speed>0.0</speed>
  <fix>3d</fix>
</trkpt>
<trkpt lat="40.0728171" lon="-105.2306215">
  <ele>1596.49</ele>
  <time>2026-08-27T18:30:30Z</time>
  <course>349.21</course>
  <speed>0.022360679774997897</speed>
  <fix>3d</fix>
</trkpt>
<trkpt lat="40.0728171" lon="-105.2306217">
  <ele>1596.42</ele>
  <time>2026-08-27T18:30:30Z</time>
  <course>56.81</course>
  <speed>0.0</speed>
  <fix>3d</fix>
</trkpt>
<trkpt lat="40.0728171" lon="-105.2306215">
  <ele>1596.5</ele>
  <time>2026-08-27T18:30:30Z</time>
  <course>349.19</course>
  <speed>0.022360679774997897</speed>
  <fix>3d</fix>
</trkpt>
<trkpt lat="40.0728172" lon="-105.2306217">
  <ele>1596.42</ele>
  <time>2026-08-27T18:30:30Z</time>
  <course>61.37</course>
  <speed>0.0</speed>
  <fix>3d</fix>
</trkpt>
<trkpt lat="40.0728171" lon="-105.2306215">
  <ele>1596.5</ele>
  <time>2026-08-27T18:30:30Z</time>
  <course>349.18</course>
  <speed>0.022360679774997897</speed>
  <fix>3d</fix>
</trkpt>
<trkpt lat="40.0728172" lon="-105.2306217">
  <ele>1596.42</ele>
  <time>2026-08-27T18:30:30Z</time>
  <course>62.6</course>
  <speed>0.0</speed>
  <fix>3d</fix>
</trkpt>
<trkpt lat="40.0728171" lon="-105.2306215">
  <ele>1596.5</ele>
  <time>2026-08-27T18:30:30Z</time>
  <course>349.17</course>
  <speed>0.022360679774997897</speed>
  <fix>3d</fix>
</trkpt>
<trkpt lat="40.0728172" lon="-105.2306217">
  <ele>1596.43</ele>
  <time>2026-08-27T18:30:30Z</time>
  <course>62.96</course>
  <speed>0.0</speed>
  <fix>3d</fix>
</trkpt>
<trkpt lat="40.0728171" lon="-105.2306215">
  <ele>1596.5</ele>
  <time>2026-08-27T18:30:30Z</time>
  <course>349.16</course>
  <speed>0.022360679774997897</speed>
  <fix>3d</fix>
</trkpt>
<trkpt lat="40.0728172" lon="-105.2306217">
  <ele>1596.43</ele>
  <time>2026-08-27T18:30:30Z</time>
  <course>67.57</course>
  <speed>0.0</speed>
  <fix>3d</fix>
</trkpt>
<trkpt lat="40.0728171" lon="-105.2306215">
  <ele>1596.5</ele>
  <time>2026-08-27T18:30:30Z</time>
  <course>349.16</course>
  <speed>0.022360679774997897</speed>
  <fix>3d</fix>
</trkpt>
<trkpt lat="40.0728172" lon="-105.2306217">
  <ele>1596.43</ele>
  <time>2026-08-27T18:30:30Z</time>
  <course>76.76</course>
  <speed>0.0</speed>
  <fix>3d</fix>
</trkpt>
<trkpt lat="40.0728171" lon="-105.2306215">
  <ele>1596.5</ele>
  <time>2026-08-27T18:30:30Z</time>
  <course>349.15</course>
  <speed>0.022360679774997897</speed>
  <fix>3d</fix>
</trkpt>
<trkpt lat="40.0728172" lon="-105.2306217">
  <ele>1596.43</ele>
  <time>2026-08-27T18:30:30Z</time>
  <course>91.77</course>
  <speed>0.0</speed>
  <fix>3d</fix>
</trkpt>
<trkpt lat="40.0728171" lon="-105.2306215">
  <ele>1596.5</ele>
  <time>2026-08-27T18:30:30Z</time>
  <course>349.15</course>
  <speed>0.022360679774997897</speed>
  <fix>3d</fix>
</trkpt>
<trkpt lat="40.0728172" lon="-105.2306217">
  <ele>1596.44</ele>
  <time>2026-08-27T18:30:30Z</time>
  <course>111.57</course>
  <speed>0.0</speed>
  <fix>3d</fix>
</trkpt>
<trkpt lat="40.0728171" lon="-105.2306215">
  <ele>1596.51</ele>
  <time>2026-08-27T18:30:30Z</time>
  <course>349.15</course>
  <speed>0.022360679774997897</speed>
  <fix>3d</fix>
</trkpt>
<trkpt lat="40.0728172" lon="-105.2306217">
  <ele>1596.44</ele>
  <time>2026-08-27T18:30:30Z</time>
  <course>127.07</course>
  <speed>0.0</speed>
  <fix>3d</fix>
</trkpt>
<trkpt lat="40.0728171" lon="-105.2306215">
  <ele>1596.51</ele>
  <time>2026-08-27T18:30:30Z</time>
  <course>349.15</course>
  <speed>0.022360679774997897</speed>
  <fix>3d</fix>
</trkpt>
<trkpt lat="40.0728172" lon="-105.2306217">
  <ele>1596.44</ele>
  <time>2026-08-27T18:30:30Z</time>
  <course>138.07</course>
  <speed>0.0</speed>
  <fix>3d</fix>
</trkpt>
<trkpt lat="40.0728171" lon="-105.2306215">
  <ele>1596.51</ele>
  <time>2026-08-27T18:30:30Z</time>
  <course>349.16</course>
  <speed>0.022360679774997897</speed>
  <fix>3d</fix>
</trkpt>
<trkpt lat="40.0728172" lon="-105.2306217">
  <ele>1596.44</ele>
  <time>2026-08-27T18:30:30Z</time>
  <course>146.17</course>
  <speed>0.0</speed>
  <fix>3d</fix>
</trkpt>
<trkpt lat="40.0728171" lon="-105.2306215">
  <ele>1596.52</ele>
  <time>2026-08-27T18:30:30Z</time>
  <course>349.16</course>
  <speed>0.022360679774997897</speed>
  <fix>3d</fix>
</trkpt>
<trkpt lat="40.0728172" lon="-105.2306217">
  <ele>1596.45</ele>
  <time>2026-08-27T18:30:30Z</time>
  <course>150.97</course>
  <speed>0.0</speed>
  <fix>3d</fix>
</trkpt>
<trkpt lat="40.0728171" lon="-105.2306215">
  <ele>1596.52</ele>
  <time>2026-08-27T18:30:30Z</time>
  <course>349.16</course>
  <speed>0.022360679774997897</speed>
  <fix>3d</fix>
</trkpt>
<trkpt lat="40.0728172" lon="-105.2306217">
  <ele>1596.45</ele>
  <time>2026-08-27T18:30:30Z</time>
  <course>154.12</course>
  <speed>0.0</speed>
  <fix>3d</fix>
</trkpt>
<trkpt lat="40.0728171" lon="-105.2306215">
  <ele>1596.52</ele>
  <time>2026-08-27T18:30:31Z</time>
  <course>349.18</course>
  <speed>0.022360679774997897</speed>
  <fix>3d</fix>
</trkpt>
<trkpt lat="40.0728172" lon="-105.2306217">
  <ele>1596.45</ele>
  <time>2026-08-27T18:30:31Z</time>
  <course>160.39</course>
  <speed>0.0</speed>
  <fix>3d</fix>
</trkpt>
<trkpt lat="40.0728171" lon="-105.2306215">
  <ele>1596.52</ele>
  <time>2026-08-27T18:30:31Z</time>
  <course>349.21</course>
  <speed>0.022360679774997897</speed>
  <fix>3d</fix>
</trkpt>
<trkpt lat="40.0728172" lon="-105.2306217">
  <ele>1596.45</ele>
  <time>2026-08-27T18:30:31Z</time>
  <course>166.14</course>
  <speed>0.0</speed>
  <fix>3d</fix>
</trkpt>
<trkpt lat="40.0728171" lon="-105.2306215">
  <ele>1596.52</ele>
  <time>2026-08-27T18:30:31Z</time>
  <course>349.23</course>
  <speed>0.022360679774997897</speed>
  <fix>3d</fix>
</trkpt>
<trkpt lat="40.0728172" lon="-105.2306217">
  <ele>1596.45</ele>
  <time>2026-08-27T18:30:31Z</time>
  <course>167.09</course>
  <speed>0.0</speed>
  <fix>3d</fix>
</trkpt>
<trkpt lat="40.0728171" lon="-105.2306215">
  <ele>1596.52</ele>
  <time>2026-08-27T18:30:31Z</time>
  <course>349.25</course>
  <speed>0.022360679774997897</speed>
  <fix>3d</fix>
</trkpt>
<trkpt lat="40.0728172" lon="-105.2306216">
  <ele>1596.44</ele>
  <time>2026-08-27T18:30:31Z</time>
  <course>165.17</course>
  <speed>0.0</speed>
  <fix>3d</fix>
</trkpt>
<trkpt lat="40.0728171" lon="-105.2306215">
  <ele>1596.52</ele>
  <time>2026-08-27T18:30:31Z</time>
  <course>349.25</course>
  <speed>0.022360679774997897</speed>
  <fix>3d</fix>
</trkpt>
<trkpt lat="40.0728172" lon="-105.2306215">
  <ele>1596.44</ele>
  <time>2026-08-27T18:30:31Z</time>
  <course>162.75</course>
  <speed>0.0</speed>
  <fix>3d</fix>
</trkpt>
<trkpt lat="40.0728171" lon="-105.2306215">
  <ele>1596.52</ele>
  <time>2026-08-27T18:30:31Z</time>
  <course>349.26</course>
  <speed>0.022360679774997897</speed>
  <fix>3d</fix>
</trkpt>
<trkpt lat="40.0728172" lon="-105.2306215">
  <ele>1596.44</ele>
  <time>2026-08-27T18:30:31Z</time>
  <course>161.92</course>
  <speed>0.0</speed>
  <fix>3d</fix>
</trkpt>
<trkpt lat="40.0728171" lon="-105.2306214">
  <ele>1596.52</ele>
  <time>2026-08-27T18:30:31Z</time>
  <course>349.26</course>
  <speed>0.022360679774997897</speed>
  <fix>3d</fix>
</trkpt>
<trkpt lat="40.0728172" lon="-105.2306215">
  <ele>1596.44</ele>
  <time>2026-08-27T18:30:31Z</time>
  <course>164.28</course>
  <speed>0.0</speed>
  <fix>3d</fix>
</trkpt>
<trkpt lat="40.0728171" lon="-105.2306214">
  <ele>1596.51</ele>
  <time>2026-08-27T18:30:31Z</time>
  <course>349.25</course>
  <speed>0.022360679774997897</speed>
  <fix>3d</fix>
</trkpt>
<trkpt lat="40.0728172" lon="-105.2306215">
  <ele>1596.44</ele>
  <time>2026-08-27T18:30:31Z</time>
  <course>175.16</course>
  <speed>0.0</speed>
  <fix>3d</fix>
</trkpt>
<trkpt lat="40.0728171" lon="-105.2306214">
  <ele>1596.51</ele>
  <time>2026-08-27T18:30:31Z</time>
  <course>349.24</course>
  <speed>0.022360679774997897</speed>
  <fix>3d</fix>
</trkpt>
<trkpt lat="40.0728172" lon="-105.2306215">
  <ele>1596.43</ele>
  <time>2026-08-27T18:30:31Z</time>
  <course>195.12</course>
  <speed>0.0</speed>
  <fix>3d</fix>
</trkpt>
<trkpt lat="40.0728171" lon="-105.2306214">
  <ele>1596.51</ele>
  <time>2026-08-27T18:30:31Z</time>
  <course>349.22</course>
  <speed>0.022360679774997897</speed>
  <fix>3d</fix>
</trkpt>
<trkpt lat="40.0728172" lon="-105.2306215">
  <ele>1596.43</ele>
  <time>2026-08-27T18:30:31Z</time>
  <course>212.12</course>
  <speed>0.0</speed>
  <fix>3d</fix>
</trkpt>
<trkpt lat="40.0728171" lon="-105.2306214">
  <ele>1596.51</ele>
  <time>2026-08-27T18:30:31Z</time>
  <course>349.21</course>
  <speed>0.022360679774997897</speed>
  <fix>3d</fix>
</trkpt>
<trkpt lat="40.0728172" lon="-105.2306215">
  <ele>1596.43</ele>
  <time>2026-08-27T18:30:31Z</time>
  <course>220.35</course>
  <speed>0.0</speed>
  <fix>3d</fix>
</trkpt>
<trkpt lat="40.0728171" lon="-105.2306214">
  <ele>1596.5</ele>
  <time>2026-08-27T18:30:31Z</time>
  <course>349.21</course>
  <speed>0.01414213562373095</speed>
  <fix>3d</fix>
</trkpt>
<trkpt lat="40.0728172" lon="-105.2306215">
  <ele>1596.43</ele>
  <time>2026-08-27T18:30:31Z</time>
  <course>225.09</course>
  <speed>0.0</speed>
  <fix>3d</fix>
</trkpt>
<trkpt lat="40.0728171" lon="-105.2306214">
  <ele>1596.5</ele>
  <time>2026-08-27T18:30:31Z</time>
  <course>349.2</course>
  <speed>0.01414213562373095</speed>
  <fix>3d</fix>
</trkpt>
<trkpt lat="40.0728172" lon="-105.2306215">
  <ele>1596.43</ele>
  <time>2026-08-27T18:30:31Z</time>
  <course>227.71</course>
  <speed>0.0</speed>
  <fix>3d</fix>
</trkpt>
<trkpt lat="40.0728171" lon="-105.2306214">
  <ele>1596.5</ele>
  <time>2026-08-27T18:30:31Z</time>
  <course>349.19</course>
  <speed>0.01414213562373095</speed>
  <fix>3d</fix>
</trkpt>
<trkpt lat="40.0728171" lon="-105.2306215">
  <ele>1596.43</ele>
  <time>2026-08-27T18:30:31Z</time>
  <course>229.44</course>
  <speed>0.0</speed>
  <fix>3d</fix>
</trkpt>
<trkpt lat="40.0728171" lon="-105.2306214">
  <ele>1596.5</ele>
  <time>2026-08-27T18:30:31Z</time>
  <course>349.18</course>
  <speed>0.01414213562373095</speed>
  <fix>3d</fix>
</trkpt>
<trkpt lat="40.0728171" lon="-105.2306215">
  <ele>1596.43</ele>
  <time>2026-08-27T18:30:31Z</time>
  <course>232.51</course>
  <speed>0.01</speed>
  <fix>3d</fix>
</trkpt>
<trkpt lat="40.0728171" lon="-105.2306214">
  <ele>1596.51</ele>
  <time>2026-08-27T18:30:31Z</time>
  <course>349.18</course>
  <speed>0.01414213562373095</speed>
  <fix>3d</fix>
</trkpt>
<trkpt lat="40.0728171" lon="-105.2306215">
  <ele>1596.43</ele>
  <time>2026-08-27T18:30:31Z</time>
  <course>236.32</course>
  <speed>0.01</speed>
  <fix>3d</fix>
</trkpt>
<trkpt lat="40.0728171" lon="-105.2306214">
  <ele>1596.51</ele>
  <time>2026-08-27T18:30:31Z</time>
  <course>349.18</course>
  <speed>0.01414213562373095</speed>
  <fix>3d</fix>
</trkpt>
<trkpt lat="40.0728171" lon="-105.2306216">
  <ele>1596.44</ele>
  <time>2026-08-27T18:30:31Z</time>
  <course>239.74</course>
  <speed>0.01</speed>
  <fix>3d</fix>
</trkpt>
<trkpt lat="40.0728171" lon="-105.2306214">
  <ele>1596.52</ele>
  <time>2026-08-27T18:30:31Z</time>
  <course>349.18</course>
  <speed>0.01414213562373095</speed>
  <fix>3d</fix>
</trkpt>
<trkpt lat="40.0728171" lon="-105.2306217">
  <ele>1596.44</ele>
  <time>2026-08-27T18:30:31Z</time>
  <course>244.04</course>
  <speed>0.01</speed>
  <fix>3d</fix>
</trkpt>
<trkpt lat="40.0728171" lon="-105.2306214">
  <ele>1596.52</ele>
  <time>2026-08-27T18:30:31Z</time>
  <course>349.18</course>
  <speed>0.01414213562373095</speed>
  <fix>3d</fix>
</trkpt>
<trkpt lat="40.0728171" lon="-105.2306217">
  <ele>1596.44</ele>
  <time>2026-08-27T18:30:31Z</time>
  <course>248.97</course>
  <speed>0.01</speed>
  <fix>3d</fix>
</trkpt>
<trkpt lat="40.0728171" lon="-105.2306214">
  <ele>1596.52</ele>
  <time>2026-08-27T18:30:31Z</time>
  <course>349.21</course>
  <speed>0.01414213562373095</speed>
  <fix>3d</fix>
</trkpt>
<trkpt lat="40.0728171" lon="-105.2306217">
  <ele>1596.44</ele>
  <time>2026-08-27T18:30:31Z</time>
  <course>254.7</course>
  <speed>0.01</speed>
  <fix>3d</fix>
</trkpt>
<trkpt lat="40.0728171" lon="-105.2306214">
  <ele>1596.52</ele>
  <time>2026-08-27T18:30:31Z</time>
  <course>349.22</course>
  <speed>0.01414213562373095</speed>
  <fix>3d</fix>
</trkpt>
<trkpt lat="40.0728171" lon="-105.2306217">
  <ele>1596.44</ele>
  <time>2026-08-27T18:30:31Z</time>
  <course>261.85</course>
  <speed>0.0</speed>
  <fix>3d</fix>
</trkpt>
<trkpt lat="40.0728171" lon="-105.2306214">
  <ele>1596.52</ele>
  <time>2026-08-27T18:30:31Z</time>
  <course>349.23</course>
  <speed>0.02</speed>
  <fix>3d</fix>
</trkpt>
<trkpt lat="40.0728171" lon="-105.2306218">
  <ele>1596.43</ele>
  <time>2026-08-27T18:30:31Z</time>
  <course>271.37</course>
  <speed>0.0</speed>
  <fix>3d</fix>
</trkpt>
<trkpt lat="40.0728171" lon="-105.2306214">
  <ele>1596.51</ele>
  <time>2026-08-27T18:30:31Z</time>
  <course>349.22</course>
  <speed>0.02</speed>
  <fix>3d</fix>
</trkpt>
<trkpt lat="40.0728171" lon="-105.2306218">
  <ele>1596.43</ele>
  <time>2026-08-27T18:30:31Z</time>
  <course>284.5</course>
  <speed>0.0</speed>
  <fix>3d</fix>
</trkpt>
<trkpt lat="40.0728171" lon="-105.2306215">
  <ele>1596.52</ele>
  <time>2026-08-27T18:30:31Z</time>
  <course>349.21</course>
  <speed>0.02</speed>
  <fix>3d</fix>
</trkpt>
<trkpt lat="40.0728171" lon="-105.2306218">
  <ele>1596.43</ele>
  <time>2026-08-27T18:30:31Z</time>
  <course>299.57</course>
  <speed>0.0</speed>
  <fix>3d</fix>
</trkpt>
<trkpt lat="40.0728171" lon="-105.2306215">
  <ele>1596.52</ele>
  <time>2026-08-27T18:30:31Z</time>
  <course>349.21</course>
  <speed>0.02</speed>
  <fix>3d</fix>
</trkpt>
<trkpt lat="40.0728171" lon="-105.2306218">
  <ele>1596.43</ele>
  <time>2026-08-27T18:30:31Z</time>
  <course>314.35</course>
  <speed>0.0</speed>
  <fix>3d</fix>
</trkpt>
<trkpt lat="40.0728171" lon="-105.2306215">
  <ele>1596.52</ele>
  <time>2026-08-27T18:30:31Z</time>
  <course>349.21</course>
  <speed>0.02</speed>
  <fix>3d</fix>
</trkpt>
<trkpt lat="40.0728171" lon="-105.2306218">
  <ele>1596.43</ele>
  <time>2026-08-27T18:30:31Z</time>
  <course>331.68</course>
  <speed>0.0</speed>
  <fix>3d</fix>
</trkpt>
<trkpt lat="40.0728171" lon="-105.2306215">
  <ele>1596.51</ele>
  <time>2026-08-27T18:30:31Z</time>
  <course>349.21</course>
  <speed>0.02</speed>
  <fix>3d</fix>
</trkpt>
<trkpt lat="40.0728171" lon="-105.2306218">
  <ele>1596.43</ele>
  <time>2026-08-27T18:30:31Z</time>
  <course>354.1</course>
  <speed>0.0</speed>
  <fix>3d</fix>
</trkpt>
<trkpt lat="40.0728171" lon="-105.2306215">
  <ele>1596.51</ele>
  <time>2026-08-27T18:30:31Z</time>
  <course>349.21</course>
  <speed>0.02</speed>
  <fix>3d</fix>
</trkpt>
<trkpt lat="40.0728171" lon="-105.2306218">
  <ele>1596.42</ele>
  <time>2026-08-27T18:30:31Z</time>
  <course>14.06</course>
  <speed>0.0</speed>
  <fix>3d</fix>
</trkpt>
<trkpt lat="40.0728171" lon="-105.2306215">
  <ele>1596.51</ele>
  <time>2026-08-27T18:30:31Z</time>
  <course>349.2</course>
  <speed>0.02</speed>
  <fix>3d</fix>
</trkpt>
<trkpt lat="40.0728171" lon="-105.2306218">
  <ele>1596.42</ele>
  <time>2026-08-27T18:30:31Z</time>
  <course>27.67</course>
  <speed>0.0</speed>
  <fix>3d</fix>
</trkpt>
<trkpt lat="40.0728171" lon="-105.2306215">
  <ele>1596.51</ele>
  <time>2026-08-27T18:30:31Z</time>
  <course>349.2</course>
  <speed>0.02</speed>
  <fix>3d</fix>
</trkpt>
<trkpt lat="40.0728171" lon="-105.2306218">
  <ele>1596.42</ele>
  <time>2026-08-27T18:30:31Z</time>
  <course>36.47</course>
  <speed>0.0</speed>
  <fix>3d</fix>
</trkpt>
<trkpt lat="40.0728171" lon="-105.2306215">
  <ele>1596.51</ele>
  <time>2026-08-27T18:30:31Z</time>
  <course>349.2</course>
  <speed>0.02</speed>
  <fix>3d</fix>
</trkpt>
<trkpt lat="40.0728171" lon="-105.2306218">
  <ele>1596.42</ele>
  <time>2026-08-27T18:30:31Z</time>
  <course>42.24</course>
  <speed>0.0</speed>
  <fix>3d</fix>
</trkpt>
<trkpt lat="40.0728171" lon="-105.2306215">
  <ele>1596.51</ele>
  <time>2026-08-27T18:30:31Z</time>
  <course>349.2</course>
  <speed>0.02</speed>
  <fix>3d</fix>
</trkpt>
<trkpt lat="40.0728171" lon="-105.2306218">
  <ele>1596.42</ele>
  <time>2026-08-27T18:30:31Z</time>
  <course>45.17</course>
  <speed>0.0</speed>
  <fix>3d</fix>
</trkpt>
<trkpt lat="40.0728171" lon="-105.2306215">
  <ele>1596.51</ele>
  <time>2026-08-27T18:30:31Z</time>
  <course>349.2</course>
  <speed>0.02</speed>
  <fix>3d</fix>
</trkpt>
<trkpt lat="40.0728171" lon="-105.2306218">
  <ele>1596.42</ele>
  <time>2026-08-27T18:30:31Z</time>
  <course>45.68</course>
  <speed>0.0</speed>
  <fix>3d</fix>
</trkpt>
<trkpt lat="40.0728171" lon="-105.2306215">
  <ele>1596.51</ele>
  <time>2026-08-27T18:30:31Z</time>
  <course>349.2</course>
  <speed>0.02</speed>
  <fix>3d</fix>
</trkpt>
<trkpt lat="40.0728171" lon="-105.2306218">
  <ele>1596.42</ele>
  <time>2026-08-27T18:30:31Z</time>
  <course>47.58</course>
  <speed>0.0</speed>
  <fix>3d</fix>
</trkpt>
<trkpt lat="40.0728171" lon="-105.2306215">
  <ele>1596.51</ele>
  <time>2026-08-27T18:30:31Z</time>
  <course>349.2</course>
  <speed>0.022360679774997897</speed>
  <fix>3d</fix>
</trkpt>
<trkpt lat="40.0728171" lon="-105.2306218">
  <ele>1596.42</ele>
  <time>2026-08-27T18:30:31Z</time>
  <course>51.61</course>
  <speed>0.0</speed>
  <fix>3d</fix>
</trkpt>
<trkpt lat="40.0728171" lon="-105.2306215">
  <ele>1596.51</ele>
  <time>2026-08-27T18:30:31Z</time>
  <course>349.21</course>
  <speed>0.022360679774997897</speed>
  <fix>3d</fix>
</trkpt>
<trkpt lat="40.0728171" lon="-105.2306218">
  <ele>1596.42</ele>
  <time>2026-08-27T18:30:31Z</time>
  <course>56.41</course>
  <speed>0.0</speed>
  <fix>3d</fix>
</trkpt>
<trkpt lat="40.0728171" lon="-105.2306215">
  <ele>1596.51</ele>
  <time>2026-08-27T18:30:31Z</time>
  <course>349.21</course>
  <speed>0.022360679774997897</speed>
  <fix>3d</fix>
</trkpt>
<trkpt lat="40.0728171" lon="-105.2306218">
  <ele>1596.42</ele>
  <time>2026-08-27T18:30:31Z</time>
  <course>61.26</course>
  <speed>0.0</speed>
  <fix>3d</fix>
</trkpt>
<trkpt lat="40.0728171" lon="-105.2306215">
  <ele>1596.51</ele>
  <time>2026-08-27T18:30:31Z</time>
  <course>349.21</course>
  <speed>0.022360679774997897</speed>
  <fix>3d</fix>
</trkpt>
<trkpt lat="40.0728171" lon="-105.2306218">
  <ele>1596.42</ele>
  <time>2026-08-27T18:30:31Z</time>
  <course>64.78</course>
  <speed>0.0</speed>
  <fix>3d</fix>
</trkpt>
<trkpt lat="40.0728171" lon="-105.2306215">
  <ele>1596.51</ele>
  <time>2026-08-27T18:30:31Z</time>
  <course>349.21</course>
  <speed>0.022360679774997897</speed>
  <fix>3d</fix>
</trkpt>
<trkpt lat="40.0728171" lon="-105.2306218">
  <ele>1596.42</ele>
  <time>2026-08-27T18:30:31Z</time>
  <course>65.44</course>
  <speed>0.0</speed>
  <fix>3d</fix>
</trkpt>
<trkpt lat="40.0728171" lon="-105.2306215">
  <ele>1596.51</ele>
  <time>2026-08-27T18:30:31Z</time>
  <course>349.21</course>
  <speed>0.022360679774997897</speed>
  <fix>3d</fix>
</trkpt>
<trkpt lat="40.0728171" lon="-105.2306218">
  <ele>1596.42</ele>
  <time>2026-08-27T18:30:31Z</time>
  <course>66.06</course>
  <speed>0.0</speed>
  <fix>3d</fix>
</trkpt>
<trkpt lat="40.0728171" lon="-105.2306215">
  <ele>1596.51</ele>
  <time>2026-08-27T18:30:31Z</time>
  <course>349.21</course>
  <speed>0.022360679774997897</speed>
  <fix>3d</fix>
</trkpt>
<trkpt lat="40.0728171" lon="-105.2306218">
  <ele>1596.41</ele>
  <time>2026-08-27T18:30:31Z</time>
  <course>68.86</course>
  <speed>0.0</speed>
  <fix>3d</fix>
</trkpt>
<trkpt lat="40.0728171" lon="-105.2306215">
  <ele>1596.51</ele>
  <time>2026-08-27T18:30:31Z</time>
  <course>349.21</course>
  <speed>0.022360679774997897</speed>
  <fix>3d</fix>
</trkpt>
<trkpt lat="40.0728171" lon="-105.2306217">
  <ele>1596.41</ele>
  <time>2026-08-27T18:30:31Z</time>
  <course>70.55</course>
  <speed>0.0</speed>
  <fix>3d</fix>
</trkpt>
<trkpt lat="40.0728171" lon="-105.2306215">
  <ele>1596.51</ele>
  <time>2026-08-27T18:30:31Z</time>
  <course>349.21</course>
  <speed>0.022360679774997897</speed>
  <fix>3d</fix>
</trkpt>
<trkpt lat="40.0728171" lon="-105.2306217">
  <ele>1596.41</ele>
  <time>2026-08-27T18:30:31Z</time>
  <course>68.77</course>
  <speed>0.0</speed>
  <fix>3d</fix>
</trkpt>
<trkpt lat="40.0728171" lon="-105.2306215">
  <ele>1596.52</ele>
  <time>2026-08-27T18:30:31Z</time>
  <course>349.21</course>
  <speed>0.022360679774997897</speed>
  <fix>3d</fix>
</trkpt>
<trkpt lat="40.0728171" lon="-105.2306217">
  <ele>1596.41</ele>
  <time>2026-08-27T18:30:31Z</time>
  <course>65.84</course>
  <speed>0.0</speed>
  <fix>3d</fix>
</trkpt>
<trkpt lat="40.0728171" lon="-105.2306215">
  <ele>1596.52</ele>
  <time>2026-08-27T18:30:31Z</time>
  <course>349.22</course>
  <speed>0.022360679774997897</speed>
  <fix>3d</fix>
</trkpt>
<trkpt lat="40.0728171" lon="-105.2306217">
  <ele>1596.41</ele>
  <time>2026-08-27T18:30:31Z</time>
  <course>62.35</course>
  <speed>0.0</speed>
  <fix>3d</fix>
</trkpt>
<trkpt lat="40.0728171" lon="-105.2306215">
  <ele>1596.52</ele>
  <time>2026-08-27T18:30:31Z</time>
  <course>349.22</course>
  <speed>0.022360679774997897</speed>
  <fix>3d</fix>
</trkpt>
<trkpt lat="40.0728171" lon="-105.2306217">
  <ele>1596.41</ele>
  <time>2026-08-27T18:30:31Z</time>
  <course>57.34</course>
  <speed>0.0</speed>
  <fix>3d</fix>
</trkpt>
<trkpt lat="40.0728171" lon="-105.2306215">
  <ele>1596.52</ele>
  <time>2026-08-27T18:30:31Z</time>
  <course>349.23</course>
  <speed>0.022360679774997897</speed>
  <fix>3d</fix>
</trkpt>
<trkpt lat="40.0728171" lon="-105.2306217">
  <ele>1596.41</ele>
  <time>2026-08-27T18:30:31Z</time>
  <course>53.2</course>
  <speed>0.0</speed>
  <fix>3d</fix>
</trkpt>
<trkpt lat="40.0728171" lon="-105.2306215">
  <ele>1596.52</ele>
  <time>2026-08-27T18:30:31Z</time>
  <course>349.23</course>
  <speed>0.022360679774997897</speed>
  <fix>3d</fix>
</trkpt>
<trkpt lat="40.0728171" lon="-105.2306217">
  <ele>1596.4</ele>
  <time>2026-08-27T18:30:31Z</time>
  <course>50.19</course>
  <speed>0.0</speed>
  <fix>3d</fix>
</trkpt>
<trkpt lat="40.0728171" lon="-105.2306215">
  <ele>1596.51</ele>
  <time>2026-08-27T18:30:31Z</time>
  <course>349.22</course>
  <speed>0.022360679774997897</speed>
  <fix>3d</fix>
</trkpt>
<trkpt lat="40.0728171" lon="-105.2306217">
  <ele>1596.4</ele>
  <time>2026-08-27T18:30:31Z</time>
  <course>47.08</course>
  <speed>0.0</speed>
  <fix>3d</fix>
</trkpt>
<trkpt lat="40.0728171" lon="-105.2306215">
  <ele>1596.5</ele>
  <time>2026-08-27T18:30:31Z</time>
  <course>349.2</course>
  <speed>0.022360679774997897</speed>
  <fix>3d</fix>
</trkpt>
<trkpt lat="40.0728171" lon="-105.2306217">
  <ele>1596.4</ele>
  <time>2026-08-27T18:30:31Z</time>
  <course>42.58</course>
  <speed>0.0</speed>
  <fix>3d</fix>
</trkpt>
<trkpt lat="40.0728171" lon="-105.2306215">
  <ele>1596.5</ele>
  <time>2026-08-27T18:30:31Z</time>
  <course>349.18</course>
  <speed>0.022360679774997897</speed>
  <fix>3d</fix>
</trkpt>
<trkpt lat="40.0728171" lon="-105.2306217">
  <ele>1596.4</ele>
  <time>2026-08-27T18:30:31Z</time>
  <course>35.63</course>
  <speed>0.0</speed>
  <fix>3d</fix>
</trkpt>
<trkpt lat="40.0728171" lon="-105.2306215">
  <ele>1596.51</ele>
  <time>2026-08-27T18:30:31Z</time>
  <course>349.16</course>
  <speed>0.022360679774997897</speed>
  <fix>3d</fix>
</trkpt>
<trkpt lat="40.0728172" lon="-105.2306217">
  <ele>1596.4</ele>
  <time>2026-08-27T18:30:31Z</time>
  <course>27.46</course>
  <speed>0.0</speed>
  <fix>3d</fix>
</trkpt>
<trkpt lat="40.0728171" lon="-105.2306215">
  <ele>1596.51</ele>
  <time>2026-08-27T18:30:31Z</time>
  <course>349.15</course>
  <speed>0.022360679774997897</speed>
  <fix>3d</fix>
</trkpt>
<trkpt lat="40.0728172" lon="-105.2306216">
  <ele>1596.4</ele>
  <time>2026-08-27T18:30:31Z</time>
  <course>19.17</course>
  <speed>0.0</speed>
  <fix>3d</fix>
</trkpt>
<trkpt lat="40.0728171" lon="-105.2306215">
  <ele>1596.51</ele>
  <time>2026-08-27T18:30:31Z</time>
  <course>349.15</course>
  <speed>0.022360679774997897</speed>
  <fix>3d</fix>
</trkpt>
<trkpt lat="40.0728172" lon="-105.2306215">
  <ele>1596.4</ele>
  <time>2026-08-27T18:30:31Z</time>
  <course>15.89</course>
  <speed>0.0</speed>
  <fix>3d</fix>
</trkpt>
<trkpt lat="40.0728171" lon="-105.2306215">
  <ele>1596.52</ele>
  <time>2026-08-27T18:30:31Z</time>
  <course>349.15</course>
  <speed>0.022360679774997897</speed>
  <fix>3d</fix>
</trkpt>
<trkpt lat="40.0728172" lon="-105.2306215">
  <ele>1596.4</ele>
  <time>2026-08-27T18:30:31Z</time>
  <course>20.66</course>
  <speed>0.0</speed>
  <fix>3d</fix>
</trkpt>
<trkpt lat="40.0728171" lon="-105.2306214">
  <ele>1596.51</ele>
  <time>2026-08-27T18:30:31Z</time>
  <course>349.17</course>
  <speed>0.022360679774997897</speed>
  <fix>3d</fix>
</trkpt>
<trkpt lat="40.0728172" lon="-105.2306215">
  <ele>1596.4</ele>
  <time>2026-08-27T18:30:31Z</time>
  <course>35.6</course>
  <speed>0.0</speed>
  <fix>3d</fix>
</trkpt>
<trkpt lat="40.0728171" lon="-105.2306214">
  <ele>1596.51</ele>
  <time>2026-08-27T18:30:31Z</time>
  <course>349.18</course>
  <speed>0.022360679774997897</speed>
  <fix>3d</fix>
</trkpt>
<trkpt lat="40.0728172" lon="-105.2306215">
  <ele>1596.4</ele>
  <time>2026-08-27T18:30:31Z</time>
  <course>58.49</course>
  <speed>0.0</speed>
  <fix>3d</fix>
</trkpt>
<trkpt lat="40.0728171" lon="-105.2306214">
  <ele>1596.51</ele>
  <time>2026-08-27T18:30:31Z</time>
  <course>349.19</course>
  <speed>0.022360679774997897</speed>
  <fix>3d</fix>
</trkpt>
<trkpt lat="40.0728172" lon="-105.2306215">
  <ele>1596.39</ele>
  <time>2026-08-27T18:30:31Z</time>
  <course>119.63</course>
  <speed>0.0</speed>
  <fix>3d</fix>
</trkpt>
<trkpt lat="40.0728171" lon="-105.2306214">
  <ele>1596.51</ele>
  <time>2026-08-27T18:30:31Z</time>
  <course>349.19</course>
  <speed>0.022360679774997897</speed>
  <fix>3d</fix>
</trkpt>
<trkpt lat="40.0728172" lon="-105.2306215">
  <ele>1596.39</ele>
  <time>2026-08-27T18:30:31Z</time>
  <course>209.68</course>
  <speed>0.0</speed>
  <fix>3d</fix>
</trkpt>
<trkpt lat="40.0728171" lon="-105.2306214">
  <ele>1596.51</ele>
  <time>2026-08-27T18:30:31Z</time>
  <course>349.18</course>
  <speed>0.022360679774997897</speed>
  <fix>3d</fix>
</trkpt>
<trkpt lat="40.0728172" lon="-105.2306215">
  <ele>1596.39</ele>
  <time>2026-08-27T18:30:31Z</time>
  <course>222.57</course>
  <speed>0.0</speed>
  <fix>3d</fix>
</trkpt>
<trkpt lat="40.0728171" lon="-105.2306214">
  <ele>1596.51</ele>
  <time>2026-08-27T18:30:31Z</time>
  <course>349.17</course>
  <speed>0.022360679774997897</speed>
  <fix>3d</fix>
</trkpt>
<trkpt lat="40.0728172" lon="-105.2306215">
  <ele>1596.39</ele>
  <time>2026-08-27T18:30:31Z</time>
  <course>227.06</course>
  <speed>0.0</speed>
  <fix>3d</fix>
</trkpt>
<trkpt lat="40.0728171" lon="-105.2306214">
  <ele>1596.51</ele>
  <time>2026-08-27T18:30:31Z</time>
  <course>349.17</course>
  <speed>0.022360679774997897</speed>
  <fix>3d</fix>
</trkpt>
<trkpt lat="40.0728172" lon="-105.2306215">
  <ele>1596.39</ele>
  <time>2026-08-27T18:30:31Z</time>
  <course>230.09</course>
  <speed>0.0</speed>
  <fix>3d</fix>
</trkpt>
<trkpt lat="40.0728171" lon="-105.2306214">
  <ele>1596.51</ele>
  <time>2026-08-27T18:30:31Z</time>
  <course>349.17</course>
  <speed>0.01414213562373095</speed>
  <fix>3d</fix>
</trkpt>
<trkpt lat="40.0728172" lon="-105.2306215">
  <ele>1596.39</ele>
  <time>2026-08-27T18:30:31Z</time>
  <course>230.16</course>
  <speed>0.0</speed>
  <fix>3d</fix>
</trkpt>
<trkpt lat="40.0728171" lon="-105.2306214">
  <ele>1596.51</ele>
  <time>2026-08-27T18:30:31Z</time>
  <course>349.16</course>
  <speed>0.01414213562373095</speed>
  <fix>3d</fix>
</trkpt>
<trkpt lat="40.0728172" lon="-105.2306215">
  <ele>1596.39</ele>
  <time>2026-08-27T18:30:31Z</time>
  <course>229.41</course>
  <speed>0.0</speed>
  <fix>3d</fix>
</trkpt>
<trkpt lat="40.0728171" lon="-105.2306214">
  <ele>1596.51</ele>
  <time>2026-08-27T18:30:31Z</time>
  <course>349.16</course>
  <speed>0.01414213562373095</speed>
  <fix>3d</fix>
</trkpt>
<trkpt lat="40.0728172" lon="-105.2306215">
  <ele>1596.39</ele>
  <time>2026-08-27T18:30:31Z</time>
  <course>230.58</course>
  <speed>0.0</speed>
  <fix>3d</fix>
</trkpt>
<trkpt lat="40.0728171" lon="-105.2306214">
  <ele>1596.51</ele>
  <time>2026-08-27T18:30:31Z</time>
  <course>349.16</course>
  <speed>0.01414213562373095</speed>
  <fix>3d</fix>
</trkpt>
<trkpt lat="40.0728172" lon="-105.2306215">
  <ele>1596.39</ele>
  <time>2026-08-27T18:30:31Z</time>
  <course>232.62</course>
  <speed>0.0</speed>
  <fix>3d</fix>
</trkpt>
<trkpt lat="40.0728171" lon="-105.2306214">
  <ele>1596.51</ele>
  <time>2026-08-27T18:30:31Z</time>
  <course>349.17</course>
  <speed>0.01414213562373095</speed>
  <fix>3d</fix>
</trkpt>
<trkpt lat="40.0728172" lon="-105.2306215">
  <ele>1596.39</ele>
  <time>2026-08-27T18:30:31Z</time>
  <course>233.36</course>
  <speed>0.0</speed>
  <fix>3d</fix>
</trkpt>
<trkpt lat="40.0728171" lon="-105.2306214">
  <ele>1596.5</ele>
  <time>2026-08-27T18:30:31Z</time>
  <course>349.17</course>
  <speed>0.01414213562373095</speed>
  <fix>3d</fix>
</trkpt>
<trkpt lat="40.0728172" lon="-105.2306215">
  <ele>1596.38</ele>
  <time>2026-08-27T18:30:31Z</time>
  <course>233.64</course>
  <speed>0.0</speed>
  <fix>3d</fix>
</trkpt>
<trkpt lat="40.0728171" lon="-105.2306214">
  <ele>1596.5</ele>
  <time>2026-08-27T18:30:31Z</time>
  <course>349.16</course>
  <speed>0.01414213562373095</speed>
  <fix>3d</fix>
</trkpt>
<trkpt lat="40.0728172" lon="-105.2306216">
  <ele>1596.38</ele>
  <time>2026-08-27T18:30:31Z</time>
  <course>234.72</course>
  <speed>0.0</speed>
  <fix>3d</fix>
</trkpt>
<trkpt lat="40.0728171" lon="-105.2306214">
  <ele>1596.5</ele>
  <time>2026-08-27T18:30:31Z</time>
  <course>349.15</course>
  <speed>0.01414213562373095</speed>
  <fix>3d</fix>
</trkpt>
<trkpt lat="40.0728172" lon="-105.2306217">
  <ele>1596.38</ele>
  <time>2026-08-27T18:30:31Z</time>
  <course>235.94</course>
  <speed>0.0</speed>
  <fix>3d</fix>
</trkpt>
<trkpt lat="40.0728171" lon="-105.2306214">
  <ele>1596.5</ele>
  <time>2026-08-27T18:30:31Z</time>
  <course>349.14</course>
  <speed>0.01414213562373095</speed>
  <fix>3d</fix>
</trkpt>
<trkpt lat="40.0728172" lon="-105.2306217">
  <ele>1596.38</ele>
  <time>2026-08-27T18:30:31Z</time>
  <course>236.75</course>
  <speed>0.0</speed>
  <fix>3d</fix>
</trkpt>
<trkpt lat="40.0728171" lon="-105.2306214">
  <ele>1596.5</ele>
  <time>2026-08-27T18:30:31Z</time>
  <course>349.11</course>
  <speed>0.01414213562373095</speed>
  <fix>3d</fix>
</trkpt>
<trkpt lat="40.0728172" lon="-105.2306217">
  <ele>1596.38</ele>
  <time>2026-08-27T18:30:31Z</time>
  <course>235.89</course>
  <speed>0.0</speed>
  <fix>3d</fix>
</trkpt>
<trkpt lat="40.0728171" lon="-105.2306214">
  <ele>1596.5</ele>
  <time>2026-08-27T18:30:31Z</time>
  <course>349.1</course>
  <speed>0.01414213562373095</speed>
  <fix>3d</fix>
</trkpt>
<trkpt lat="40.0728172" lon="-105.2306217">
  <ele>1596.38</ele>
  <time>2026-08-27T18:30:31Z</time>
  <course>232.85</course>
  <speed>0.0</speed>
  <fix>3d</fix>
</trkpt>
<trkpt lat="40.0728171" lon="-105.2306214">
  <ele>1596.5</ele>
  <time>2026-08-27T18:30:31Z</time>
  <course>349.09</course>
  <speed>0.01414213562373095</speed>
  <fix>3d</fix>
</trkpt>
<trkpt lat="40.0728172" lon="-105.2306217">
  <ele>1596.39</ele>
  <time>2026-08-27T18:30:31Z</time>
  <course>228.13</course>
  <speed>0.0</speed>
  <fix>3d</fix>
</trkpt>
<trkpt lat="40.0728171" lon="-105.2306214">
  <ele>1596.5</ele>
  <time>2026-08-27T18:30:31Z</time>
  <course>349.1</course>
  <speed>0.022360679774997897</speed>
  <fix>3d</fix>
</trkpt>
<trkpt lat="40.0728172" lon="-105.2306217">
  <ele>1596.39</ele>
  <time>2026-08-27T18:30:31Z</time>
  <course>221.75</course>
  <speed>0.0</speed>
  <fix>3d</fix>
</trkpt>
<trkpt lat="40.0728171" lon="-105.2306214">
  <ele>1596.49</ele>
  <time>2026-08-27T18:30:31Z</time>
  <course>349.08</course>
  <speed>0.022360679774997897</speed>
  <fix>3d</fix>
</trkpt>
<trkpt lat="40.0728171" lon="-105.2306218">
  <ele>1596.39</ele>
  <time>2026-08-27T18:30:31Z</time>
  <course>215.54</course>
  <speed>0.0</speed>
  <fix>3d</fix>
</trkpt>
<trkpt lat="40.0728171" lon="-105.2306214">
  <ele>1596.49</ele>
  <time>2026-08-27T18:30:31Z</time>
  <course>349.06</course>
  <speed>0.022360679774997897</speed>
  <fix>3d</fix>
</trkpt>
<trkpt lat="40.0728171" lon="-105.2306218">
  <ele>1596.39</ele>
  <time>2026-08-27T18:30:31Z</time>
  <course>210.02</course>
  <speed>0.0</speed>
  <fix>3d</fix>
</trkpt>
<trkpt lat="40.0728171" lon="-105.2306215">
  <ele>1596.5</ele>
  <time>2026-08-27T18:30:31Z</time>
  <course>349.05</course>
  <speed>0.022360679774997897</speed>
  <fix>3d</fix>
</trkpt>
<trkpt lat="40.0728171" lon="-105.2306218">
  <ele>1596.39</ele>
  <time>2026-08-27T18:30:31Z</time>
  <course>203.94</course>
  <speed>0.0</speed>
  <fix>3d</fix>
</trkpt>
<trkpt lat="40.0728171" lon="-105.2306215">
  <ele>1596.5</ele>
  <time>2026-08-27T18:30:31Z</time>
  <course>349.05</course>
  <speed>0.022360679774997897</speed>
  <fix>3d</fix>
</trkpt>
<trkpt lat="40.0728171" lon="-105.2306218">
  <ele>1596.4</ele>
  <time>2026-08-27T18:30:31Z</time>
  <course>195.87</course>
  <speed>0.0</speed>
  <fix>3d</fix>
</trkpt>
<trkpt lat="40.0728171" lon="-105.2306215">
  <ele>1596.5</ele>
  <time>2026-08-27T18:30:31Z</time>
  <course>349.04</course>
  <speed>0.022360679774997897</speed>
  <fix>3d</fix>
</trkpt>
<trkpt lat="40.0728171" lon="-105.2306218">
  <ele>1596.4</ele>
  <time>2026-08-27T18:30:31Z</time>
  <course>182.08</course>
  <speed>0.0</speed>
  <fix>3d</fix>
</trkpt>
<trkpt lat="40.0728171" lon="-105.2306215">
  <ele>1596.5</ele>
  <time>2026-08-27T18:30:31Z</time>
  <course>349.04</course>
  <speed>0.022360679774997897</speed>
  <fix>3d</fix>
</trkpt>
<trkpt lat="40.0728171" lon="-105.2306218">
  <ele>1596.41</ele>
  <time>2026-08-27T18:30:31Z</time>
  <course>164.27</course>
  <speed>0.0</speed>
  <fix>3d</fix>
</trkpt>
<trkpt lat="40.0728171" lon="-105.2306215">
  <ele>1596.51</ele>
  <time>2026-08-27T18:30:31Z</time>
  <course>349.04</course>
  <speed>0.022360679774997897</speed>
  <fix>3d</fix>
</trkpt>
<trkpt lat="40.0728171" lon="-105.2306218">
  <ele>1596.41</ele>
  <time>2026-08-27T18:30:31Z</time>
  <course>145.66</course>
  <speed>0.0</speed>
  <fix>3d</fix>
</trkpt>
<trkpt lat="40.0728171" lon="-105.2306215">
  <ele>1596.51</ele>
  <time>2026-08-27T18:30:31Z</time>
  <course>349.07</course>
  <speed>0.022360679774997897</speed>
  <fix>3d</fix>
</trkpt>
<trkpt lat="40.0728171" lon="-105.2306218">
  <ele>1596.41</ele>
  <time>2026-08-27T18:30:31Z</time>
  <course>127.41</course>
  <speed>0.0</speed>
  <fix>3d</fix>
</trkpt>
<trkpt lat="40.0728171" lon="-105.2306215">
  <ele>1596.51</ele>
  <time>2026-08-27T18:30:31Z</time>
  <course>349.09</course>
  <speed>0.022360679774997897</speed>
  <fix>3d</fix>
</trkpt>
<trkpt lat="40.0728171" lon="-105.2306218">
  <ele>1596.41</ele>
  <time>2026-08-27T18:30:31Z</time>
  <course>109.36</course>
  <speed>0.0</speed>
  <fix>3d</fix>
</trkpt>
<trkpt lat="40.0728171" lon="-105.2306215">
  <ele>1596.51</ele>
  <time>2026-08-27T18:30:31Z</time>
  <course>349.1</course>
  <speed>0.022360679774997897</speed>
  <fix>3d</fix>
</trkpt>
<trkpt lat="40.0728171" lon="-105.2306218">
  <ele>1596.42</ele>
  <time>2026-08-27T18:30:31Z</time>
  <course>88.84</course>
  <speed>0.0</speed>
  <fix>3d</fix>
</trkpt>
<trkpt lat="40.0728171" lon="-105.2306215">
  <ele>1596.51</ele>
  <time>2026-08-27T18:30:31Z</time>
  <course>349.11</course>
  <speed>0.02</speed>
  <fix>3d</fix>
</trkpt>
<trkpt lat="40.0728171" lon="-105.2306218">
  <ele>1596.42</ele>
  <time>2026-08-27T18:30:31Z</time>
  <course>71.69</course>
  <speed>0.0</speed>
  <fix>3d</fix>
</trkpt>
<trkpt lat="40.0728171" lon="-105.2306215">
  <ele>1596.51</ele>
  <time>2026-08-27T18:30:31Z</time>
  <course>349.12</course>
  <speed>0.02</speed>
  <fix>3d</fix>
</trkpt>
<trkpt lat="40.0728171" lon="-105.2306218">
  <ele>1596.42</ele>
  <time>2026-08-27T18:30:31Z</time>
  <course>59.1</course>
  <speed>0.0</speed>
  <fix>3d</fix>
</trkpt>
<trkpt lat="40.0728171" lon="-105.2306215">
  <ele>1596.51</ele>
  <time>2026-08-27T18:30:31Z</time>
  <course>349.13</course>
  <speed>0.02</speed>
  <fix>3d</fix>
</trkpt>
<trkpt lat="40.0728171" lon="-105.2306218">
  <ele>1596.42</ele>
  <time>2026-08-27T18:30:31Z</time>
  <course>50.11</course>
  <speed>0.0</speed>
  <fix>3d</fix>
</trkpt>
<trkpt lat="40.0728171" lon="-105.2306215">
  <ele>1596.51</ele>
  <time>2026-08-27T18:30:31Z</time>
  <course>349.13</course>
  <speed>0.02</speed>
  <fix>3d</fix>
</trkpt>
<trkpt lat="40.0728171" lon="-105.2306218">
  <ele>1596.42</ele>
  <time>2026-08-27T18:30:31Z</time>
  <course>46.58</course>
  <speed>0.0</speed>
  <fix>3d</fix>
</trkpt>
<trkpt lat="40.0728171" lon="-105.2306215">
  <ele>1596.5</ele>
  <time>2026-08-27T18:30:31Z</time>
  <course>349.12</course>
  <speed>0.02</speed>
  <fix>3d</fix>
</trkpt>
<trkpt lat="40.0728171" lon="-105.2306218">
  <ele>1596.42</ele>
  <time>2026-08-27T18:30:31Z</time>
  <course>49.89</course>
  <speed>0.0</speed>
  <fix>3d</fix>
</trkpt>
<trkpt lat="40.0728171" lon="-105.2306215">
  <ele>1596.5</ele>
  <time>2026-08-27T18:30:31Z</time>
  <course>349.11</course>
  <speed>0.02</speed>
  <fix>3d</fix>
</trkpt>
<trkpt lat="40.0728171" lon="-105.2306218">
  <ele>1596.42</ele>
  <time>2026-08-27T18:30:31Z</time>
  <course>58.83</course>
  <speed>0.0</speed>
  <fix>3d</fix>
</trkpt>
<trkpt lat="40.0728171" lon="-105.2306215">
  <ele>1596.5</ele>
  <time>2026-08-27T18:30:31Z</time>
  <course>349.09</course>
  <speed>0.02</speed>
  <fix>3d</fix>
</trkpt>
<trkpt lat="40.0728171" lon="-105.2306218">
  <ele>1596.42</ele>
  <time>2026-08-27T18:30:31Z</time>
  <course>68.29</course>
  <speed>0.0</speed>
  <fix>3d</fix>
</trkpt>
<trkpt lat="40.0728171" lon="-105.2306215">
  <ele>1596.5</ele>
  <time>2026-08-27T18:30:31Z</time>
  <course>349.08</course>
  <speed>0.02</speed>
  <fix>3d</fix>
</trkpt>
<trkpt lat="40.0728171" lon="-105.2306218">
  <ele>1596.42</ele>
  <time>2026-08-27T18:30:31Z</time>
  <course>72.69</course>
  <speed>0.0</speed>
  <fix>3d</fix>
</trkpt>
<trkpt lat="40.0728171" lon="-105.2306215">
  <ele>1596.5</ele>
  <time>2026-08-27T18:30:31Z</time>
  <course>349.06</course>
  <speed>0.0316227766016838</speed>
  <fix>3d</fix>
</trkpt>
<trkpt lat="40.0728171" lon="-105.2306218">
  <ele>1596.42</ele>
  <time>2026-08-27T18:30:31Z</time>
  <course>74.2</course>
  <speed>0.0</speed>
  <fix>3d</fix>
</trkpt>
<trkpt lat="40.0728171" lon="-105.2306215">
  <ele>1596.5</ele>
  <time>2026-08-27T18:30:31Z</time>
  <course>349.06</course>
  <speed>0.022360679774997897</speed>
  <fix>3d</fix>
</trkpt>
<trkpt lat="40.0728171" lon="-105.2306217">
  <ele>1596.43</ele>
  <time>2026-08-27T18:30:31Z</time>
  <course>75.93</course>
  <speed>0.0</speed>
  <fix>3d</fix>
</trkpt>
<trkpt lat="40.0728171" lon="-105.2306215">
  <ele>1596.5</ele>
  <time>2026-08-27T18:30:31Z</time>
  <course>349.05</course>
  <speed>0.022360679774997897</speed>
  <fix>3d</fix>
</trkpt>
<trkpt lat="40.0728171" lon="-105.2306217">
  <ele>1596.43</ele>
  <time>2026-08-27T18:30:31Z</time>
  <course>77.56</course>
  <speed>0.0</speed>
  <fix>3d</fix>
</trkpt>
<trkpt lat="40.0728171" lon="-105.2306215">
  <ele>1596.5</ele>
  <time>2026-08-27T18:30:31Z</time>
  <course>349.05</course>
  <speed>0.022360679774997897</speed>
  <fix>3d</fix>
</trkpt>
<trkpt lat="40.0728171" lon="-105.2306217">
  <ele>1596.43</ele>
  <time>2026-08-27T18:30:31Z</time>
  <course>77.21</course>
  <speed>0.0</speed>
  <fix>3d</fix>
</trkpt>
<trkpt lat="40.0728171" lon="-105.2306215">
  <ele>1596.5</ele>
  <time>2026-08-27T18:30:31Z</time>
  <course>349.05</course>
  <speed>0.022360679774997897</speed>
  <fix>3d</fix>
</trkpt>
<trkpt lat="40.0728171" lon="-105.2306217">
  <ele>1596.44</ele>
  <time>2026-08-27T18:30:31Z</time>
  <course>76.52</course>
  <speed>0.0</speed>
  <fix>3d</fix>
</trkpt>
<trkpt lat="40.0728171" lon="-105.2306215">
  <ele>1596.51</ele>
  <time>2026-08-27T18:30:31Z</time>
  <course>349.05</course>
  <speed>0.022360679774997897</speed>
  <fix>3d</fix>
</trkpt>
<trkpt lat="40.0728171" lon="-105.2306217">
  <ele>1596.44</ele>
  <time>2026-08-27T18:30:31Z</time>
  <course>76.41</course>
  <speed>0.0</speed>
  <fix>3d</fix>
</trkpt>
<trkpt lat="40.0728171" lon="-105.2306215">
  <ele>1596.51</ele>
  <time>2026-08-27T18:30:31Z</time>
  <course>349.05</course>
  <speed>0.022360679774997897</speed>
  <fix>3d</fix>
</trkpt>
<trkpt lat="40.0728171" lon="-105.2306217">
  <ele>1596.44</ele>
  <time>2026-08-27T18:30:31Z</time>
  <course>73.96</course>
  <speed>0.0</speed>
  <fix>3d</fix>
</trkpt>
<trkpt lat="40.0728171" lon="-105.2306214">
  <ele>1596.51</ele>
  <time>2026-08-27T18:30:31Z</time>
  <course>349.05</course>
  <speed>0.022360679774997897</speed>
  <fix>3d</fix>
</trkpt>
<trkpt lat="40.0728171" lon="-105.2306216">
  <ele>1596.44</ele>
  <time>2026-08-27T18:30:31Z</time>
  <course>71.94</course>
  <speed>0.0</speed>
  <fix>3d</fix>
</trkpt>
<trkpt lat="40.0728171" lon="-105.2306214">
  <ele>1596.51</ele>
  <time>2026-08-27T18:30:31Z</time>
  <course>349.05</course>
  <speed>0.022360679774997897</speed>
  <fix>3d</fix>
</trkpt>
<trkpt lat="40.0728171" lon="-105.2306215">
  <ele>1596.44</ele>
  <time>2026-08-27T18:30:31Z</time>
  <course>69.58</course>
  <speed>0.0</speed>
  <fix>3d</fix>
</trkpt>
<trkpt lat="40.0728171" lon="-105.2306214">
  <ele>1596.51</ele>
  <time>2026-08-27T18:30:31Z</time>
  <course>349.06</course>
  <speed>0.022360679774997897</speed>
  <fix>3d</fix>
</trkpt>
<trkpt lat="40.0728171" lon="-105.2306215">
  <ele>1596.45</ele>
  <time>2026-08-27T18:30:31Z</time>
  <course>64.03</course>
  <speed>0.0</speed>
  <fix>3d</fix>
</trkpt>
<trkpt lat="40.0728171" lon="-105.2306214">
  <ele>1596.52</ele>
  <time>2026-08-27T18:30:31Z</time>
  <course>349.06</course>
  <speed>0.022360679774997897</speed>
  <fix>3d</fix>
</trkpt>
<trkpt lat="40.0728171" lon="-105.2306215">
  <ele>1596.45</ele>
  <time>2026-08-27T18:30:31Z</time>
  <course>57.31</course>
  <speed>0.0</speed>
  <fix>3d</fix>
</trkpt>
<trkpt lat="40.0728171" lon="-105.2306214">
  <ele>1596.52</ele>
  <time>2026-08-27T18:30:31Z</time>
  <course>349.06</course>
  <speed>0.022360679774997897</speed>
  <fix>3d</fix>
</trkpt>
<trkpt lat="40.0728171" lon="-105.2306215">
  <ele>1596.45</ele>
  <time>2026-08-27T18:30:31Z</time>
  <course>49.96</course>
  <speed>0.0</speed>
  <fix>3d</fix>
</trkpt>
<trkpt lat="40.0728171" lon="-105.2306214">
  <ele>1596.52</ele>
  <time>2026-08-27T18:30:31Z</time>
  <course>349.07</course>
  <speed>0.02</speed>
  <fix>3d</fix>
</trkpt>
<trkpt lat="40.0728171" lon="-105.2306215">
  <ele>1596.45</ele>
  <time>2026-08-27T18:30:31Z</time>
  <course>38.04</course>
  <speed>0.0</speed>
  <fix>3d</fix>
</trkpt>
<trkpt lat="40.0728171" lon="-105.2306214">
  <ele>1596.52</ele>
  <time>2026-08-27T18:30:31Z</time>
  <course>349.09</course>
  <speed>0.02</speed>
  <fix>3d</fix>
</trkpt>
<trkpt lat="40.0728171" lon="-105.2306215">
  <ele>1596.45</ele>
  <time>2026-08-27T18:30:31Z</time>
  <course>18.18</course>
  <speed>0.0</speed>
  <fix>3d</fix>
</trkpt>
<trkpt lat="40.0728171" lon="-105.2306214">
  <ele>1596.52</ele>
  <time>2026-08-27T18:30:31Z</time>
  <course>349.11</course>
  <speed>0.02</speed>
  <fix>3d</fix>
</trkpt>
<trkpt lat="40.0728171" lon="-105.2306215">
  <ele>1596.45</ele>
  <time>2026-08-27T18:30:31Z</time>
  <course>354.63</course>
  <speed>0.0</speed>
  <fix>3d</fix>
</trkpt>
<trkpt lat="40.0728171" lon="-105.2306214">
  <ele>1596.52</ele>
  <time>2026-08-27T18:30:31Z</time>
  <course>349.12</course>
  <speed>0.01414213562373095</speed>
  <fix>3d</fix>
</trkpt>
<trkpt lat="40.0728171" lon="-105.2306215">
  <ele>1596.45</ele>
  <time>2026-08-27T18:30:31Z</time>
  <course>330.73</course>
  <speed>0.0</speed>
  <fix>3d</fix>
</trkpt>
<trkpt lat="40.0728171" lon="-105.2306214">
  <ele>1596.52</ele>
  <time>2026-08-27T18:30:31Z</time>
  <course>349.13</course>
  <speed>0.01414213562373095</speed>
  <fix>3d</fix>
</trkpt>
<trkpt lat="40.0728171" lon="-105.2306215">
  <ele>1596.45</ele>
  <time>2026-08-27T18:30:32Z</time>
  <course>310.73</course>
  <speed>0.0</speed>
  <fix>3d</fix>
</trkpt>
<trkpt lat="40.0728171" lon="-105.2306214">
  <ele>1596.52</ele>
  <time>2026-08-27T18:30:32Z</time>
  <course>349.13</course>
  <speed>0.01414213562373095</speed>
  <fix>3d</fix>
</trkpt>
<trkpt lat="40.0728171" lon="-105.2306215">
  <ele>1596.45</ele>
  <time>2026-08-27T18:30:32Z</time>
  <course>299.64</course>
  <speed>0.0</speed>
  <fix>3d</fix>
</trkpt>
<trkpt lat="40.0728171" lon="-105.2306214">
  <ele>1596.52</ele>
  <time>2026-08-27T18:30:32Z</time>
  <course>349.13</course>
  <speed>0.01414213562373095</speed>
  <fix>3d</fix>
</trkpt>
<trkpt lat="40.0728171" lon="-105.2306215">
  <ele>1596.44</ele>
  <time>2026-08-27T18:30:32Z</time>
  <course>294.42</course>
  <speed>0.0</speed>
  <fix>3d</fix>
</trkpt>
<trkpt lat="40.0728171" lon="-105.2306214">
  <ele>1596.53</ele>
  <time>2026-08-27T18:30:32Z</time>
  <course>349.14</course>
  <speed>0.01414213562373095</speed>
  <fix>3d</fix>
</trkpt>
<trkpt lat="40.0728171" lon="-105.2306215">
  <ele>1596.44</ele>
  <time>2026-08-27T18:30:32Z</time>
  <course>290.26</course>
  <speed>0.0</speed>
  <fix>3d</fix>
</trkpt>
<trkpt lat="40.0728171" lon="-105.2306214">
  <ele>1596.53</ele>
  <time>2026-08-27T18:30:32Z</time>
  <course>349.16</course>
  <speed>0.01414213562373095</speed>
  <fix>3d</fix>
</trkpt>
<trkpt lat="40.0728171" lon="-105.2306215">
  <ele>1596.44</ele>
  <time>2026-08-27T18:30:32Z</time>
  <course>288.16</course>
  <speed>0.0</speed>
  <fix>3d</fix>
</trkpt>
<trkpt lat="40.0728171" lon="-105.2306214">
  <ele>1596.53</ele>
  <time>2026-08-27T18:30:32Z</time>
  <course>349.17</course>
  <speed>0.01414213562373095</speed>
  <fix>3d</fix>
</trkpt>
<trkpt lat="40.0728171" lon="-105.2306215">
  <ele>1596.44</ele>
  <time>2026-08-27T18:30:32Z</time>
  <course>288.36</course>
  <speed>0.0</speed>
  <fix>3d</fix>
</trkpt>
<trkpt lat="40.0728171" lon="-105.2306214">
  <ele>1596.53</ele>
  <time>2026-08-27T18:30:32Z</time>
  <course>349.18</course>
  <speed>0.01414213562373095</speed>
  <fix>3d</fix>
</trkpt>
<trkpt lat="40.0728171" lon="-105.2306215">
  <ele>1596.43</ele>
  <time>2026-08-27T18:30:32Z</time>
  <course>290.11</course>
  <speed>0.0</speed>
  <fix>3d</fix>
</trkpt>
<trkpt lat="40.0728171" lon="-105.2306214">
  <ele>1596.53</ele>
  <time>2026-08-27T18:30:32Z</time>
  <course>349.19</course>
  <speed>0.01414213562373095</speed>
  <fix>3d</fix>
</trkpt>
<trkpt lat="40.0728171" lon="-105.2306215">
  <ele>1596.43</ele>
  <time>2026-08-27T18:30:32Z</time>
  <course>293.0</course>
  <speed>0.0</speed>
  <fix>3d</fix>
</trkpt>
<trkpt lat="40.0728171" lon="-105.2306214">
  <ele>1596.52</ele>
  <time>2026-08-27T18:30:32Z</time>
  <course>349.19</course>
  <speed>0.01414213562373095</speed>
  <fix>3d</fix>
</trkpt>
<trkpt lat="40.0728171" lon="-105.2306215">
  <ele>1596.42</ele>
  <time>2026-08-27T18:30:32Z</time>
  <course>294.08</course>
  <speed>0.0</speed>
  <fix>3d</fix>
</trkpt>
<trkpt lat="40.0728171" lon="-105.2306214">
  <ele>1596.52</ele>
  <time>2026-08-27T18:30:32Z</time>
  <course>349.19</course>
  <speed>0.01414213562373095</speed>
  <fix>3d</fix>
</trkpt>
<trkpt lat="40.0728171" lon="-105.2306216">
  <ele>1596.42</ele>
  <time>2026-08-27T18:30:32Z</time>
  <course>293.66</course>
  <speed>0.0</speed>
  <fix>3d</fix>
</trkpt>
<trkpt lat="40.0728171" lon="-105.2306214">
  <ele>1596.51</ele>
  <time>2026-08-27T18:30:32Z</time>
  <course>349.17</course>
  <speed>0.01414213562373095</speed>
  <fix>3d</fix>
</trkpt>
<trkpt lat="40.0728172" lon="-105.2306217">
  <ele>1596.42</ele>
  <time>2026-08-27T18:30:32Z</time>
  <course>292.96</course>
  <speed>0.0</speed>
  <fix>3d</fix>
</trkpt>
<trkpt lat="40.0728171" lon="-105.2306214">
  <ele>1596.51</ele>
  <time>2026-08-27T18:30:32Z</time>
  <course>349.15</course>
  <speed>0.01414213562373095</speed>
  <fix>3d</fix>
</trkpt>
<trkpt lat="40.0728172" lon="-105.2306217">
  <ele>1596.42</ele>
  <time>2026-08-27T18:30:32Z</time>
  <course>293.07</course>
  <speed>0.0</speed>
  <fix>3d</fix>
</trkpt>
<trkpt lat="40.0728171" lon="-105.2306214">
  <ele>1596.51</ele>
  <time>2026-08-27T18:30:32Z</time>
  <course>349.13</course>
  <speed>0.01414213562373095</speed>
  <fix>3d</fix>
</trkpt>
<trkpt lat="40.0728172" lon="-105.2306217">
  <ele>1596.41</ele>
  <time>2026-08-27T18:30:32Z</time>
  <course>293.96</course>
  <speed>0.0</speed>
  <fix>3d</fix>
</trkpt>
<trkpt lat="40.0728171" lon="-105.2306214">
  <ele>1596.51</ele>
  <time>2026-08-27T18:30:32Z</time>
  <course>349.12</course>
  <speed>0.01414213562373095</speed>
  <fix>3d</fix>
</trkpt>
<trkpt lat="40.0728172" lon="-105.2306217">
  <ele>1596.41</ele>
  <time>2026-08-27T18:30:32Z</time>
  <course>292.85</course>
  <speed>0.0</speed>
  <fix>3d</fix>
</trkpt>
<trkpt lat="40.0728171" lon="-105.2306214">
  <ele>1596.52</ele>
  <time>2026-08-27T18:30:32Z</time>
  <course>349.12</course>
  <speed>0.01414213562373095</speed>
  <fix>3d</fix>
</trkpt>
<trkpt lat="40.0728172" lon="-105.2306217">
  <ele>1596.41</ele>
  <time>2026-08-27T18:30:32Z</time>
  <course>289.02</course>
  <speed>0.0</speed>
  <fix>3d</fix>
</trkpt>
<trkpt lat="40.0728171" lon="-105.2306215">
  <ele>1596.52</ele>
  <time>2026-08-27T18:30:32Z</time>
  <course>349.12</course>
  <speed>0.01414213562373095</speed>
  <fix>3d</fix>
</trkpt>
<trkpt lat="40.0728172" lon="-105.2306218">
  <ele>1596.41</ele>
  <time>2026-08-27T18:30:32Z</time>
  <course>283.72</course>
  <speed>0.0</speed>
  <fix>3d</fix>
</trkpt>
<trkpt lat="40.0728171" lon="-105.2306215">
  <ele>1596.52</ele>
  <time>2026-08-27T18:30:32Z</time>
  <course>349.13</course>
  <speed>0.022360679774997897</speed>
  <fix>3d</fix>
</trkpt>
<trkpt lat="40.0728172" lon="-105.2306218">
  <ele>1596.41</ele>
  <time>2026-08-27T18:30:32Z</time>
  <course>276.81</course>
  <speed>0.0</speed>
  <fix>3d</fix>
</trkpt>
<trkpt lat="40.0728171" lon="-105.2306215">
  <ele>1596.52</ele>
  <time>2026-08-27T18:30:32Z</time>
  <course>349.13</course>
  <speed>0.022360679774997897</speed>
  <fix>3d</fix>
</trkpt>
<trkpt lat="40.0728172" lon="-105.2306218">
  <ele>1596.41</ele>
  <time>2026-08-27T18:30:32Z</time>
  <course>262.77</course>
  <speed>0.0</speed>
  <fix>3d</fix>
</trkpt>
<trkpt lat="40.0728171" lon="-105.2306215">
  <ele>1596.52</ele>
  <time>2026-08-27T18:30:32Z</time>
  <course>349.12</course>
  <speed>0.022360679774997897</speed>
  <fix>3d</fix>
</trkpt>
<trkpt lat="40.0728172" lon="-105.2306218">
  <ele>1596.4</ele>
  <time>2026-08-27T18:30:32Z</time>
  <course>216.65</course>
  <speed>0.0</speed>
  <fix>3d</fix>
</trkpt>
<trkpt lat="40.0728171" lon="-105.2306215">
  <ele>1596.51</ele>
  <time>2026-08-27T18:30:32Z</time>
  <course>349.12</course>
  <speed>0.022360679774997897</speed>
  <fix>3d</fix>
</trkpt>
<trkpt lat="40.0728172" lon="-105.2306218">
  <ele>1596.4</ele>
  <time>2026-08-27T18:30:32Z</time>
  <course>162.6</course>
  <speed>0.0</speed>
  <fix>3d</fix>
</trkpt>
<trkpt lat="40.0728171" lon="-105.2306215">
  <ele>1596.51</ele>
  <time>2026-08-27T18:30:32Z</time>
  <course>349.11</course>
  <speed>0.022360679774997897</speed>
  <fix>3d</fix>
</trkpt>
<trkpt lat="40.0728172" lon="-105.2306218">
  <ele>1596.4</ele>
  <time>2026-08-27T18:30:32Z</time>
  <course>145.76</course>
  <speed>0.0</speed>
  <fix>3d</fix>
</trkpt>
<trkpt lat="40.0728171" lon="-105.2306215">
  <ele>1596.51</ele>
  <time>2026-08-27T18:30:32Z</time>
  <course>349.11</course>
  <speed>0.022360679774997897</speed>
  <fix>3d</fix>
</trkpt>
<trkpt lat="40.0728172" lon="-105.2306218">
  <ele>1596.4</ele>
  <time>2026-08-27T18:30:32Z</time>
  <course>137.49</course>
  <speed>0.0</speed>
  <fix>3d</fix>
</trkpt>
<trkpt lat="40.0728171" lon="-105.2306215">
  <ele>1596.51</ele>
  <time>2026-08-27T18:30:32Z</time>
  <course>349.11</course>
  <speed>0.022360679774997897</speed>
  <fix>3d</fix>
</trkpt>
<trkpt lat="40.0728172" lon="-105.2306218">
  <ele>1596.4</ele>
  <time>2026-08-27T18:30:32Z</time>
  <course>133.3</course>
  <speed>0.0</speed>
  <fix>3d</fix>
</trkpt>
<trkpt lat="40.0728171" lon="-105.2306215">
  <ele>1596.51</ele>
  <time>2026-08-27T18:30:32Z</time>
  <course>349.11</course>
  <speed>0.022360679774997897</speed>
  <fix>3d</fix>
</trkpt>
<trkpt lat="40.0728172" lon="-105.2306218">
  <ele>1596.4</ele>
  <time>2026-08-27T18:30:32Z</time>
  <course>131.8</course>
  <speed>0.0</speed>
  <fix>3d</fix>
</trkpt>
<trkpt lat="40.0728171" lon="-105.2306215">
  <ele>1596.51</ele>
  <time>2026-08-27T18:30:32Z</time>
  <course>349.1</course>
  <speed>0.022360679774997897</speed>
  <fix>3d</fix>
</trkpt>
<trkpt lat="40.0728172" lon="-105.2306218">
  <ele>1596.4</ele>
  <time>2026-08-27T18:30:32Z</time>
  <course>131.15</course>
  <speed>0.0</speed>
  <fix>3d</fix>
</trkpt>
<trkpt lat="40.0728171" lon="-105.2306215">
  <ele>1596.5</ele>
  <time>2026-08-27T18:30:32Z</time>
  <course>349.09</course>
  <speed>0.022360679774997897</speed>
  <fix>3d</fix>
</trkpt>
<trkpt lat="40.0728172" lon="-105.2306218">
  <ele>1596.4</ele>
  <time>2026-08-27T18:30:32Z</time>
  <course>130.86</course>
  <speed>0.0</speed>
  <fix>3d</fix>
</trkpt>
<trkpt lat="40.0728171" lon="-105.2306215">
  <ele>1596.51</ele>
  <time>2026-08-27T18:30:32Z</time>
  <course>349.07</course>
  <speed>0.022360679774997897</speed>
  <fix>3d</fix>
</trkpt>
<trkpt lat="40.0728172" lon="-105.2306218">
  <ele>1596.4</ele>
  <time>2026-08-27T18:30:32Z</time>
  <course>130.84</course>
  <speed>0.0</speed>
  <fix>3d</fix>
</trkpt>
<trkpt lat="40.0728171" lon="-105.2306215">
  <ele>1596.51</ele>
  <time>2026-08-27T18:30:32Z</time>
  <course>349.05</course>
  <speed>0.022360679774997897</speed>
  <fix>3d</fix>
</trkpt>
<trkpt lat="40.0728172" lon="-105.2306218">
  <ele>1596.4</ele>
  <time>2026-08-27T18:30:32Z</time>
  <course>131.17</course>
  <speed>0.0</speed>
  <fix>3d</fix>
</trkpt>
<trkpt lat="40.0728171" lon="-105.2306215">
  <ele>1596.51</ele>
  <time>2026-08-27T18:30:32Z</time>
  <course>349.05</course>
  <speed>0.022360679774997897</speed>
  <fix>3d</fix>
</trkpt>
<trkpt lat="40.0728172" lon="-105.2306218">
  <ele>1596.4</ele>
  <time>2026-08-27T18:30:32Z</time>
  <course>132.49</course>
  <speed>0.0</speed>
  <fix>3d</fix>
</trkpt>
<trkpt lat="40.0728171" lon="-105.2306215">
  <ele>1596.51</ele>
  <time>2026-08-27T18:30:32Z</time>
  <course>349.05</course>
  <speed>0.022360679774997897</speed>
  <fix>3d</fix>
</trkpt>
<trkpt lat="40.0728172" lon="-105.2306218">
  <ele>1596.4</ele>
  <time>2026-08-27T18:30:32Z</time>
  <course>131.64</course>
  <speed>0.0</speed>
  <fix>3d</fix>
</trkpt>
<trkpt lat="40.0728171" lon="-105.2306215">
  <ele>1596.51</ele>
  <time>2026-08-27T18:30:32Z</time>
  <course>349.05</course>
  <speed>0.022360679774997897</speed>
  <fix>3d</fix>
</trkpt>
<trkpt lat="40.0728172" lon="-105.2306217">
  <ele>1596.4</ele>
  <time>2026-08-27T18:30:32Z</time>
  <course>128.77</course>
  <speed>0.0</speed>
  <fix>3d</fix>
</trkpt>
<trkpt lat="40.0728171" lon="-105.2306215">
  <ele>1596.51</ele>
  <time>2026-08-27T18:30:32Z</time>
  <course>349.05</course>
  <speed>0.022360679774997897</speed>
  <fix>3d</fix>
</trkpt>
<trkpt lat="40.0728172" lon="-105.2306217">
  <ele>1596.4</ele>
  <time>2026-08-27T18:30:32Z</time>
  <course>127.36</course>
  <speed>0.0</speed>
  <fix>3d</fix>
</trkpt>
<trkpt lat="40.0728171" lon="-105.2306215">
  <ele>1596.51</ele>
  <time>2026-08-27T18:30:32Z</time>
  <course>349.04</course>
  <speed>0.022360679774997897</speed>
  <fix>3d</fix>
</trkpt>
<trkpt lat="40.0728172" lon="-105.2306217">
  <ele>1596.4</ele>
  <time>2026-08-27T18:30:32Z</time>
  <course>127.93</course>
  <speed>0.0</speed>
  <fix>3d</fix>
</trkpt>
<trkpt lat="40.0728171" lon="-105.2306215">
  <ele>1596.51</ele>
  <time>2026-08-27T18:30:32Z</time>
  <course>349.03</course>
  <speed>0.022360679774997897</speed>
  <fix>3d</fix>
</trkpt>
<trkpt lat="40.0728172" lon="-105.2306217">
  <ele>1596.4</ele>
  <time>2026-08-27T18:30:32Z</time>
  <course>129.77</course>
  <speed>0.0</speed>
  <fix>3d</fix>
</trkpt>
<trkpt lat="40.0728171" lon="-105.2306215">
  <ele>1596.51</ele>
  <time>2026-08-27T18:30:32Z</time>
  <course>349.03</course>
  <speed>0.022360679774997897</speed>
  <fix>3d</fix>
</trkpt>
<trkpt lat="40.0728172" lon="-105.2306217">
  <ele>1596.4</ele>
  <time>2026-08-27T18:30:32Z</time>
  <course>131.55</course>
  <speed>0.0</speed>
  <fix>3d</fix>
</trkpt>
<trkpt lat="40.0728171" lon="-105.2306215">
  <ele>1596.51</ele>
  <time>2026-08-27T18:30:32Z</time>
  <course>349.02</course>
  <speed>0.022360679774997897</speed>
  <fix>3d</fix>
</trkpt>
<trkpt lat="40.0728171" lon="-105.2306217">
  <ele>1596.4</ele>
  <time>2026-08-27T18:30:32Z</time>
  <course>133.73</course>
  <speed>0.0</speed>
  <fix>3d</fix>
</trkpt>
<trkpt lat="40.0728171" lon="-105.2306215">
  <ele>1596.51</ele>
  <time>2026-08-27T18:30:32Z</time>
  <course>349.04</course>
  <speed>0.022360679774997897</speed>
  <fix>3d</fix>
</trkpt>
<trkpt lat="40.0728171" lon="-105.2306217">
  <ele>1596.4</ele>
  <time>2026-08-27T18:30:32Z</time>
  <course>136.73</course>
  <speed>0.0</speed>
  <fix>3d</fix>
</trkpt>
<trkpt lat="40.0728171" lon="-105.2306215">
  <ele>1596.51</ele>
  <time>2026-08-27T18:30:32Z</time>
  <course>349.04</course>
  <speed>0.022360679774997897</speed>
  <fix>3d</fix>
</trkpt>
<trkpt lat="40.0728171" lon="-105.2306216">
  <ele>1596.4</ele>
  <time>2026-08-27T18:30:32Z</time>
  <course>139.55</course>
  <speed>0.0</speed>
  <fix>3d</fix>
</trkpt>
<trkpt lat="40.0728171" lon="-105.2306214">
  <ele>1596.51</ele>
  <time>2026-08-27T18:30:32Z</time>
  <course>349.03</course>
  <speed>0.022360679774997897</speed>
  <fix>3d</fix>
</trkpt>
<trkpt lat="40.0728171" lon="-105.2306215">
  <ele>1596.39</ele>
  <time>2026-08-27T18:30:32Z</time>
  <course>140.91</course>
  <speed>0.0</speed>
  <fix>3d</fix>
</trkpt>
<trkpt lat="40.0728171" lon="-105.2306214">
  <ele>1596.51</ele>
  <time>2026-08-27T18:30:32Z</time>
  <course>349.03</course>
  <speed>0.022360679774997897</speed>
  <fix>3d</fix>
</trkpt>
<trkpt lat="40.0728171" lon="-105.2306215">
  <ele>1596.39</ele>
  <time>2026-08-27T18:30:32Z</time>
  <course>141.13</course>
  <speed>0.0</speed>
  <fix>3d</fix>
</trkpt>
<trkpt lat="40.0728171" lon="-105.2306214">
  <ele>1596.5</ele>
  <time>2026-08-27T18:30:32Z</time>
  <course>349.02</course>
  <speed>0.022360679774997897</speed>
  <fix>3d</fix>
</trkpt>
<trkpt lat="40.0728171" lon="-105.2306215">
  <ele>1596.39</ele>
  <time>2026-08-27T18:30:32Z</time>
  <course>141.0</course>
  <speed>0.0</speed>
  <fix>3d</fix>
</trkpt>
<trkpt lat="40.0728171" lon="-105.2306214">
  <ele>1596.51</ele>
  <time>2026-08-27T18:30:32Z</time>
  <course>349.02</course>
  <speed>0.022360679774997897</speed>
  <fix>3d</fix>
</trkpt>
<trkpt lat="40.0728171" lon="-105.2306215">
  <ele>1596.39</ele>
  <time>2026-08-27T18:30:32Z</time>
  <course>141.42</course>
  <speed>0.0</speed>
  <fix>3d</fix>
</trkpt>
<trkpt lat="40.0728171" lon="-105.2306214">
  <ele>1596.51</ele>
  <time>2026-08-27T18:30:32Z</time>
  <course>349.02</course>
  <speed>0.022360679774997897</speed>
  <fix>3d</fix>
</trkpt>
<trkpt lat="40.0728171" lon="-105.2306215">
  <ele>1596.39</ele>
  <time>2026-08-27T18:30:32Z</time>
  <course>142.04</course>
  <speed>0.0</speed>
  <fix>3d</fix>
</trkpt>
<trkpt lat="40.0728171" lon="-105.2306214">
  <ele>1596.51</ele>
  <time>2026-08-27T18:30:32Z</time>
  <course>349.02</course>
  <speed>0.02</speed>
  <fix>3d</fix>
</trkpt>
<trkpt lat="40.0728171" lon="-105.2306215">
  <ele>1596.39</ele>
  <time>2026-08-27T18:30:32Z</time>
  <course>155.23</course>
  <speed>0.0</speed>
  <fix>3d</fix>
</trkpt>
<trkpt lat="40.0728171" lon="-105.2306214">
  <ele>1596.51</ele>
  <time>2026-08-27T18:30:32Z</time>
  <course>349.02</course>
  <speed>0.02</speed>
  <fix>3d</fix>
</trkpt>
<trkpt lat="40.0728171" lon="-105.2306215">
  <ele>1596.39</ele>
  <time>2026-08-27T18:30:32Z</time>
  <course>298.14</course>
  <speed>0.0</speed>
  <fix>3d</fix>
</trkpt>
<trkpt lat="40.0728171" lon="-105.2306214">
  <ele>1596.51</ele>
  <time>2026-08-27T18:30:32Z</time>
  <course>349.02</course>
  <speed>0.01</speed>
  <fix>3d</fix>
</trkpt>
<trkpt lat="40.0728171" lon="-105.2306215">
  <ele>1596.39</ele>
  <time>2026-08-27T18:30:32Z</time>
  <course>302.32</course>
  <speed>0.0</speed>
  <fix>3d</fix>
</trkpt>
<trkpt lat="40.0728171" lon="-105.2306214">
  <ele>1596.51</ele>
  <time>2026-08-27T18:30:32Z</time>
  <course>349.02</course>
  <speed>0.01</speed>
  <fix>3d</fix>
</trkpt>
<trkpt lat="40.0728171" lon="-105.2306215">
  <ele>1596.39</ele>
  <time>2026-08-27T18:30:32Z</time>
  <course>298.33</course>
  <speed>0.0</speed>
  <fix>3d</fix>
</trkpt>
<trkpt lat="40.0728171" lon="-105.2306214">
  <ele>1596.5</ele>
  <time>2026-08-27T18:30:32Z</time>
  <course>349.02</course>
  <speed>0.01</speed>
  <fix>3d</fix>
</trkpt>
<trkpt lat="40.0728171" lon="-105.2306215">
  <ele>1596.39</ele>
  <time>2026-08-27T18:30:32Z</time>
  <course>292.45</course>
  <speed>0.0</speed>
  <fix>3d</fix>
</trkpt>
<trkpt lat="40.0728171" lon="-105.2306214">
  <ele>1596.5</ele>
  <time>2026-08-27T18:30:32Z</time>
  <course>349.02</course>
  <speed>0.01</speed>
  <fix>3d</fix>
</trkpt>
<trkpt lat="40.0728171" lon="-105.2306215">
  <ele>1596.39</ele>
  <time>2026-08-27T18:30:32Z</time>
  <course>287.27</course>
  <speed>0.0</speed>
  <fix>3d</fix>
</trkpt>
<trkpt lat="40.0728171" lon="-105.2306214">
  <ele>1596.5</ele>
  <time>2026-08-27T18:30:32Z</time>
  <course>349.0</course>
  <speed>0.01</speed>
  <fix>3d</fix>
</trkpt>
<trkpt lat="40.0728171" lon="-105.2306215">
  <ele>1596.39</ele>
  <time>2026-08-27T18:30:32Z</time>
  <course>282.9</course>
  <speed>0.0</speed>
  <fix>3d</fix>
</trkpt>
<trkpt lat="40.0728171" lon="-105.2306214">
  <ele>1596.5</ele>
  <time>2026-08-27T18:30:32Z</time>
  <course>348.98</course>
  <speed>0.01414213562373095</speed>
  <fix>3d</fix>
</trkpt>
<trkpt lat="40.0728171" lon="-105.2306215">
  <ele>1596.39</ele>
  <time>2026-08-27T18:30:32Z</time>
  <course>279.02</course>
  <speed>0.0</speed>
  <fix>3d</fix>
</trkpt>
<trkpt lat="40.0728171" lon="-105.2306214">
  <ele>1596.5</ele>
  <time>2026-08-27T18:30:32Z</time>
  <course>348.98</course>
  <speed>0.01414213562373095</speed>
  <fix>3d</fix>
</trkpt>
<trkpt lat="40.0728171" lon="-105.2306215">
  <ele>1596.39</ele>
  <time>2026-08-27T18:30:32Z</time>
  <course>277.66</course>
  <speed>0.0</speed>
  <fix>3d</fix>
</trkpt>
<trkpt lat="40.0728171" lon="-105.2306214">
  <ele>1596.5</ele>
  <time>2026-08-27T18:30:32Z</time>
  <course>348.98</course>
  <speed>0.01414213562373095</speed>
  <fix>3d</fix>
</trkpt>
<trkpt lat="40.0728171" lon="-105.2306215">
  <ele>1596.4</ele>
  <time>2026-08-27T18:30:32Z</time>
  <course>277.6</course>
  <speed>0.0</speed>
  <fix>3d</fix>
</trkpt>
<trkpt lat="40.0728171" lon="-105.2306214">
  <ele>1596.5</ele>
  <time>2026-08-27T18:30:32Z</time>
  <course>348.96</course>
  <speed>0.01414213562373095</speed>
  <fix>3d</fix>
</trkpt>
<trkpt lat="40.0728171" lon="-105.2306216">
  <ele>1596.4</ele>
  <time>2026-08-27T18:30:32Z</time>
  <course>279.47</course>
  <speed>0.0</speed>
  <fix>3d</fix>
</trkpt>
<trkpt lat="40.0728171" lon="-105.2306214">
  <ele>1596.5</ele>
  <time>2026-08-27T18:30:32Z</time>
  <course>348.95</course>
  <speed>0.01414213562373095</speed>
  <fix>3d</fix>
</trkpt>
<trkpt lat="40.0728171" lon="-105.2306217">
  <ele>1596.4</ele>
  <time>2026-08-27T18:30:32Z</time>
  <course>282.69</course>
  <speed>0.0</speed>
  <fix>3d</fix>
</trkpt>
<trkpt lat="40.0728171" lon="-105.2306214">
  <ele>1596.5</ele>
  <time>2026-08-27T18:30:32Z</time>
  <course>348.94</course>
  <speed>0.01414213562373095</speed>
  <fix>3d</fix>
</trkpt>
<trkpt lat="40.0728171" lon="-105.2306217">
  <ele>1596.4</ele>
  <time>2026-08-27T18:30:32Z</time>
  <course>283.48</course>
  <speed>0.0</speed>
  <fix>3d</fix>
</trkpt>
<trkpt lat="40.0728171" lon="-105.2306214">
  <ele>1596.51</ele>
  <time>2026-08-27T18:30:32Z</time>
  <course>348.94</course>
  <speed>0.01414213562373095</speed>
  <fix>3d</fix>
</trkpt>
<trkpt lat="40.0728171" lon="-105.2306217">
  <ele>1596.4</ele>
  <time>2026-08-27T18:30:32Z</time>
  <course>282.77</course>
  <speed>0.0</speed>
  <fix>3d</fix>
</trkpt>
<trkpt lat="40.0728171" lon="-105.2306214">
  <ele>1596.51</ele>
  <time>2026-08-27T18:30:32Z</time>
  <course>348.94</course>
  <speed>0.01414213562373095</speed>
  <fix>3d</fix>
</trkpt>
<trkpt lat="40.0728171" lon="-105.2306217">
  <ele>1596.4</ele>
  <time>2026-08-27T18:30:32Z</time>
  <course>283.64</course>
  <speed>0.0</speed>
  <fix>3d</fix>
</trkpt>
<trkpt lat="40.0728171" lon="-105.2306214">
  <ele>1596.51</ele>
  <time>2026-08-27T18:30:32Z</time>
  <course>348.93</course>
  <speed>0.01414213562373095</speed>
  <fix>3d</fix>
</trkpt>
<trkpt lat="40.0728171" lon="-105.2306217">
  <ele>1596.41</ele>
  <time>2026-08-27T18:30:32Z</time>
  <course>286.1</course>
  <speed>0.0</speed>
  <fix>3d</fix>
</trkpt>
<trkpt lat="40.0728171" lon="-105.2306214">
  <ele>1596.51</ele>
  <time>2026-08-27T18:30:32Z</time>
  <course>348.93</course>
  <speed>0.01414213562373095</speed>
  <fix>3d</fix>
</trkpt>
<trkpt lat="40.0728171" lon="-105.2306218">
  <ele>1596.41</ele>
  <time>2026-08-27T18:30:32Z</time>
  <course>289.0</course>
  <speed>0.0</speed>
  <fix>3d</fix>
</trkpt>
<trkpt lat="40.0728171" lon="-105.2306215">
  <ele>1596.51</ele>
  <time>2026-08-27T18:30:32Z</time>
  <course>348.93</course>
  <speed>0.022360679774997897</speed>
  <fix>3d</fix>
</trkpt>
<trkpt lat="40.0728171" lon="-105.2306218">
  <ele>1596.41</ele>
  <time>2026-08-27T18:30:32Z</time>
  <course>292.69</course>
  <speed>0.0</speed>
  <fix>3d</fix>
</trkpt>
<trkpt lat="40.0728171" lon="-105.2306215">
  <ele>1596.5</ele>
  <time>2026-08-27T18:30:32Z</time>
  <course>348.93</course>
  <speed>0.022360679774997897</speed>
  <fix>3d</fix>
</trkpt>
<trkpt lat="40.0728171" lon="-105.2306218">
  <ele>1596.41</ele>
  <time>2026-08-27T18:30:32Z</time>
  <course>297.83</course>
  <speed>0.0</speed>
  <fix>3d</fix>
</trkpt>
<trkpt lat="40.0728171" lon="-105.2306215">
  <ele>1596.5</ele>
  <time>2026-08-27T18:30:32Z</time>
  <course>348.93</course>
  <speed>0.022360679774997897</speed>
  <fix>3d</fix>
</trkpt>
<trkpt lat="40.0728171" lon="-105.2306218">
  <ele>1596.41</ele>
  <time>2026-08-27T18:30:32Z</time>
  <course>306.87</course>
  <speed>0.0</speed>
  <fix>3d</fix>
</trkpt>
<trkpt lat="40.0728171" lon="-105.2306215">
  <ele>1596.5</ele>
  <time>2026-08-27T18:30:32Z</time>
  <course>348.93</course>
  <speed>0.022360679774997897</speed>
  <fix>3d</fix>
</trkpt>
<trkpt lat="40.0728171" lon="-105.2306218">
  <ele>1596.41</ele>
  <time>2026-08-27T18:30:32Z</time>
  <course>340.92</course>
  <speed>0.0</speed>
  <fix>3d</fix>
</trkpt>
<trkpt lat="40.0728171" lon="-105.2306215">
  <ele>1596.5</ele>
  <time>2026-08-27T18:30:32Z</time>
  <course>348.93</course>
  <speed>0.022360679774997897</speed>
  <fix>3d</fix>
</trkpt>
<trkpt lat="40.0728171" lon="-105.2306218">
  <ele>1596.41</ele>
  <time>2026-08-27T18:30:32Z</time>
  <course>24.36</course>
  <speed>0.0</speed>
  <fix>3d</fix>
</trkpt>
<trkpt lat="40.0728171" lon="-105.2306215">
  <ele>1596.5</ele>
  <time>2026-08-27T18:30:32Z</time>
  <course>348.93</course>
  <speed>0.022360679774997897</speed>
  <fix>3d</fix>
</trkpt>
<trkpt lat="40.0728171" lon="-105.2306218">
  <ele>1596.41</ele>
  <time>2026-08-27T18:30:32Z</time>
  <course>38.07</course>
  <speed>0.0</speed>
  <fix>3d</fix>
</trkpt>
<trkpt lat="40.0728171" lon="-105.2306215">
  <ele>1596.5</ele>
  <time>2026-08-27T18:30:32Z</time>
  <course>348.93</course>
  <speed>0.022360679774997897</speed>
  <fix>3d</fix>
</trkpt>
<trkpt lat="40.0728171" lon="-105.2306218">
  <ele>1596.42</ele>
  <time>2026-08-27T18:30:32Z</time>
  <course>45.31</course>
  <speed>0.0</speed>
  <fix>3d</fix>
</trkpt>
<trkpt lat="40.0728171" lon="-105.2306215">
  <ele>1596.5</ele>
  <time>2026-08-27T18:30:32Z</time>
  <course>348.92</course>
  <speed>0.022360679774997897</speed>
  <fix>3d</fix>
</trkpt>
<trkpt lat="40.0728171" lon="-105.2306218">
  <ele>1596.42</ele>
  <time>2026-08-27T18:30:32Z</time>
  <course>50.25</course>
  <speed>0.0</speed>
  <fix>3d</fix>
</trkpt>
<trkpt lat="40.0728171" lon="-105.2306215">
  <ele>1596.51</ele>
  <time>2026-08-27T18:30:32Z</time>
  <course>348.92</course>
  <speed>0.022360679774997897</speed>
  <fix>3d</fix>
</trkpt>
<trkpt lat="40.0728171" lon="-105.2306218">
  <ele>1596.42</ele>
  <time>2026-08-27T18:30:32Z</time>
  <course>52.89</course>
  <speed>0.0</speed>
  <fix>3d</fix>
</trkpt>
<trkpt lat="40.0728171" lon="-105.2306215">
  <ele>1596.51</ele>
  <time>2026-08-27T18:30:32Z</time>
  <course>348.93</course>
  <speed>0.022360679774997897</speed>
  <fix>3d</fix>
</trkpt>
<trkpt lat="40.0728171" lon="-105.2306218">
  <ele>1596.42</ele>
  <time>2026-08-27T18:30:32Z</time>
  <course>55.8</course>
  <speed>0.0</speed>
  <fix>3d</fix>
</trkpt>
<trkpt lat="40.0728171" lon="-105.2306215">
  <ele>1596.51</ele>
  <time>2026-08-27T18:30:32Z</time>
  <course>348.93</course>
  <speed>0.0316227766016838</speed>
  <fix>3d</fix>
</trkpt>
<trkpt lat="40.0728171" lon="-105.2306218">
  <ele>1596.43</ele>
  <time>2026-08-27T18:30:32Z</time>
  <course>58.46</course>
  <speed>0.0</speed>
  <fix>3d</fix>
</trkpt>
<trkpt lat="40.0728171" lon="-105.2306215">
  <ele>1596.52</ele>
  <time>2026-08-27T18:30:32Z</time>
  <course>348.94</course>
  <speed>0.0316227766016838</speed>
  <fix>3d</fix>
</trkpt>
<trkpt lat="40.0728171" lon="-105.2306218">
  <ele>1596.43</ele>
  <time>2026-08-27T18:30:32Z</time>
  <course>60.54</course>
  <speed>0.0</speed>
  <fix>3d</fix>
</trkpt>
<trkpt lat="40.0728171" lon="-105.2306215">
  <ele>1596.52</ele>
  <time>2026-08-27T18:30:32Z</time>
  <course>348.94</course>
  <speed>0.03</speed>
  <fix>3d</fix>
</trkpt>
<trkpt lat="40.0728171" lon="-105.2306218">
  <ele>1596.43</ele>
  <time>2026-08-27T18:30:32Z</time>
  <course>61.66</course>
  <speed>0.01</speed>
  <fix>3d</fix>
</trkpt>
<trkpt lat="40.0728171" lon="-105.2306215">
  <ele>1596.52</ele>
  <time>2026-08-27T18:30:32Z</time>
  <course>348.95</course>
  <speed>0.03</speed>
  <fix>3d</fix>
</trkpt>
<trkpt lat="40.0728171" lon="-105.2306218">
  <ele>1596.43</ele>
  <time>2026-08-27T18:30:32Z</time>
  <course>61.16</course>
  <speed>0.01</speed>
  <fix>3d</fix>
</trkpt>
<trkpt lat="40.0728171" lon="-105.2306215">
  <ele>1596.52</ele>
  <time>2026-08-27T18:30:32Z</time>
  <course>348.95</course>
  <speed>0.022360679774997897</speed>
  <fix>3d</fix>
</trkpt>
<trkpt lat="40.0728171" lon="-105.2306217">
  <ele>1596.43</ele>
  <time>2026-08-27T18:30:32Z</time>
  <course>60.48</course>
  <speed>0.01</speed>
  <fix>3d</fix>
</trkpt>
<trkpt lat="40.0728171" lon="-105.2306215">
  <ele>1596.51</ele>
  <time>2026-08-27T18:30:32Z</time>
  <course>348.95</course>
  <speed>0.022360679774997897</speed>
  <fix>3d</fix>
</trkpt>
<trkpt lat="40.0728171" lon="-105.2306217">
  <ele>1596.43</ele>
  <time>2026-08-27T18:30:32Z</time>
  <course>61.64</course>
  <speed>0.0</speed>
  <fix>3d</fix>
</trkpt>
<trkpt lat="40.0728171" lon="-105.2306215">
  <ele>1596.51</ele>
  <time>2026-08-27T18:30:32Z</time>
  <course>348.96</course>
  <speed>0.022360679774997897</speed>
  <fix>3d</fix>
</trkpt>
<trkpt lat="40.0728171" lon="-105.2306217">
  <ele>1596.43</ele>
  <time>2026-08-27T18:30:32Z</time>
  <course>63.35</course>
  <speed>0.0</speed>
  <fix>3d</fix>
</trkpt>
<trkpt lat="40.0728171" lon="-105.2306215">
  <ele>1596.5</ele>
  <time>2026-08-27T18:30:32Z</time>
  <course>348.96</course>
  <speed>0.022360679774997897</speed>
  <fix>3d</fix>
</trkpt>
<trkpt lat="40.0728172" lon="-105.2306217">
  <ele>1596.42</ele>
  <time>2026-08-27T18:30:32Z</time>
  <course>64.37</course>
  <speed>0.0</speed>
  <fix>3d</fix>
</trkpt>
<trkpt lat="40.0728171" lon="-105.2306215">
  <ele>1596.5</ele>
  <time>2026-08-27T18:30:32Z</time>
  <course>348.95</course>
  <speed>0.022360679774997897</speed>
  <fix>3d</fix>
</trkpt>
<trkpt lat="40.0728172" lon="-105.2306217">
  <ele>1596.42</ele>
  <time>2026-08-27T18:30:32Z</time>
  <course>65.48</course>
  <speed>0.0</speed>
  <fix>3d</fix>
</trkpt>
<trkpt lat="40.0728171" lon="-105.2306215">
  <ele>1596.51</ele>
  <time>2026-08-27T18:30:32Z</time>
  <course>348.94</course>
  <speed>0.022360679774997897</speed>
  <fix>3d</fix>
</trkpt>
<trkpt lat="40.0728172" lon="-105.2306217">
  <ele>1596.42</ele>
  <time>2026-08-27T18:30:32Z</time>
  <course>67.08</course>
  <speed>0.0</speed>
  <fix>3d</fix>
</trkpt>
<trkpt lat="40.0728171" lon="-105.2306215">
  <ele>1596.51</ele>
  <time>2026-08-27T18:30:32Z</time>
  <course>348.92</course>
  <speed>0.022360679774997897</speed>
  <fix>3d</fix>
</trkpt>
<trkpt lat="40.0728172" lon="-105.2306216">
  <ele>1596.42</ele>
  <time>2026-08-27T18:30:32Z</time>
  <course>73.18</course>
  <speed>0.0</speed>
  <fix>3d</fix>
</trkpt>
<trkpt lat="40.0728171" lon="-105.2306214">
  <ele>1596.51</ele>
  <time>2026-08-27T18:30:32Z</time>
  <course>348.92</course>
  <speed>0.022360679774997897</speed>
  <fix>3d</fix>
</trkpt>
<trkpt lat="40.0728172" lon="-105.2306215">
  <ele>1596.43</ele>
  <time>2026-08-27T18:30:32Z</time>
  <course>86.33</course>
  <speed>0.0</speed>
  <fix>3d</fix>
</trkpt>
<trkpt lat="40.0728171" lon="-105.2306214">
  <ele>1596.51</ele>
  <time>2026-08-27T18:30:32Z</time>
  <course>348.92</course>
  <speed>0.022360679774997897</speed>
  <fix>3d</fix>
</trkpt>
<trkpt lat="40.0728172" lon="-105.2306215">
  <ele>1596.43</ele>
  <time>2026-08-27T18:30:32Z</time>
  <course>107.29</course>
  <speed>0.0</speed>
  <fix>3d</fix>
</trkpt>
<trkpt lat="40.0728171" lon="-105.2306214">
  <ele>1596.5</ele>
  <time>2026-08-27T18:30:32Z</time>
  <course>348.9</course>
  <speed>0.022360679774997897</speed>
  <fix>3d</fix>
</trkpt>
<trkpt lat="40.0728172" lon="-105.2306215">
  <ele>1596.43</ele>
  <time>2026-08-27T18:30:32Z</time>
  <course>129.67</course>
  <speed>0.0</speed>
  <fix>3d</fix>
</trkpt>
<trkpt lat="40.0728171" lon="-105.2306214">
  <ele>1596.51</ele>
  <time>2026-08-27T18:30:32Z</time>
  <course>348.89</course>
  <speed>0.022360679774997897</speed>
  <fix>3d</fix>
</trkpt>
<trkpt lat="40.0728172" lon="-105.2306215">
  <ele>1596.43</ele>
  <time>2026-08-27T18:30:32Z</time>
  <course>150.63</course>
  <speed>0.0</speed>
  <fix>3d</fix>
</trkpt>
<trkpt lat="40.0728171" lon="-105.2306214">
  <ele>1596.51</ele>
  <time>2026-08-27T18:30:32Z</time>
  <course>348.88</course>
  <speed>0.022360679774997897</speed>
  <fix>3d</fix>
</trkpt>
<trkpt lat="40.0728172" lon="-105.2306215">
  <ele>1596.43</ele>
  <time>2026-08-27T18:30:32Z</time>
  <course>175.71</course>
  <speed>0.0</speed>
  <fix>3d</fix>
</trkpt>
<trkpt lat="40.0728171" lon="-105.2306214">
  <ele>1596.51</ele>
  <time>2026-08-27T18:30:32Z</time>
  <course>348.88</course>
  <speed>0.022360679774997897</speed>
  <fix>3d</fix>
</trkpt>
<trkpt lat="40.0728172" lon="-105.2306215">
  <ele>1596.43</ele>
  <time>2026-08-27T18:30:32Z</time>
  <course>195.48</course>
  <speed>0.0</speed>
  <fix>3d</fix>
</trkpt>
<trkpt lat="40.0728171" lon="-105.2306214">
  <ele>1596.5</ele>
  <time>2026-08-27T18:30:32Z</time>
  <course>348.87</course>
  <speed>0.01414213562373095</speed>
  <fix>3d</fix>
</trkpt>
<trkpt lat="40.0728172" lon="-105.2306215">
  <ele>1596.43</ele>
  <time>2026-08-27T18:30:32Z</time>
  <course>207.63</course>
  <speed>0.0</speed>
  <fix>3d</fix>
</trkpt>
<trkpt lat="40.0728171" lon="-105.2306214">
  <ele>1596.5</ele>
  <time>2026-08-27T18:30:32Z</time>
  <course>348.87</course>
  <speed>0.01414213562373095</speed>
  <fix>3d</fix>
</trkpt>
<trkpt lat="40.0728172" lon="-105.2306215">
  <ele>1596.43</ele>
  <time>2026-08-27T18:30:32Z</time>
  <course>213.77</course>
  <speed>0.0</speed>
  <fix>3d</fix>
</trkpt>
<trkpt lat="40.0728171" lon="-105.2306214">
  <ele>1596.5</ele>
  <time>2026-08-27T18:30:32Z</time>
  <course>348.86</course>
  <speed>0.01414213562373095</speed>
  <fix>3d</fix>
</trkpt>
<trkpt lat="40.0728172" lon="-105.2306215">
  <ele>1596.44</ele>
  <time>2026-08-27T18:30:32Z</time>
  <course>217.09</course>
  <speed>0.0</speed>
  <fix>3d</fix>
</trkpt>
<trkpt lat="40.0728171" lon="-105.2306214">
  <ele>1596.5</ele>
  <time>2026-08-27T18:30:32Z</time>
  <course>348.86</course>
  <speed>0.01414213562373095</speed>
  <fix>3d</fix>
</trkpt>
<trkpt lat="40.0728172" lon="-105.2306215">
  <ele>1596.44</ele>
  <time>2026-08-27T18:30:32Z</time>
  <course>220.48</course>
  <speed>0.0</speed>
  <fix>3d</fix>
</trkpt>
<trkpt lat="40.0728171" lon="-105.2306214">
  <ele>1596.51</ele>
  <time>2026-08-27T18:30:32Z</time>
  <course>348.86</course>
  <speed>0.01414213562373095</speed>
  <fix>3d</fix>
</trkpt>
<trkpt lat="40.0728172" lon="-105.2306215">
  <ele>1596.44</ele>
  <time>2026-08-27T18:30:32Z</time>
  <course>223.12</course>
  <speed>0.0</speed>
  <fix>3d</fix>
</trkpt>
<trkpt lat="40.0728171" lon="-105.2306214">
  <ele>1596.51</ele>
  <time>2026-08-27T18:30:32Z</time>
  <course>348.87</course>
  <speed>0.01414213562373095</speed>
  <fix>3d</fix>
</trkpt>
<trkpt lat="40.0728172" lon="-105.2306215">
  <ele>1596.44</ele>
  <time>2026-08-27T18:30:32Z</time>
  <course>224.77</course>
  <speed>0.0</speed>
  <fix>3d</fix>
</trkpt>
<trkpt lat="40.0728171" lon="-105.2306214">
  <ele>1596.52</ele>
  <time>2026-08-27T18:30:32Z</time>
  <course>348.87</course>
  <speed>0.01414213562373095</speed>
  <fix>3d</fix>
</trkpt>
<trkpt lat="40.0728172" lon="-105.2306215">
  <ele>1596.45</ele>
  <time>2026-08-27T18:30:32Z</time>
  <course>226.02</course>
  <speed>0.0</speed>
  <fix>3d</fix>
</trkpt>
<trkpt lat="40.0728171" lon="-105.2306214">
  <ele>1596.52</ele>
  <time>2026-08-27T18:30:32Z</time>
  <course>348.87</course>
  <speed>0.01414213562373095</speed>
  <fix>3d</fix>
</trkpt>
<trkpt lat="40.0728172" lon="-105.2306215">
  <ele>1596.45</ele>
  <time>2026-08-27T18:30:32Z</time>
  <course>226.56</course>
  <speed>0.0</speed>
  <fix>3d</fix>
</trkpt>
<trkpt lat="40.0728171" lon="-105.2306214">
  <ele>1596.53</ele>
  <time>2026-08-27T18:30:32Z</time>
  <course>348.89</course>
  <speed>0.01414213562373095</speed>
  <fix>3d</fix>
</trkpt>
<trkpt lat="40.0728172" lon="-105.2306215">
  <ele>1596.45</ele>
  <time>2026-08-27T18:30:32Z</time>
  <course>227.94</course>
  <speed>0.0</speed>
  <fix>3d</fix>
</trkpt>
<trkpt lat="40.0728171" lon="-105.2306214">
  <ele>1596.53</ele>
  <time>2026-08-27T18:30:32Z</time>
  <course>348.92</course>
  <speed>0.01414213562373095</speed>
  <fix>3d</fix>
</trkpt>
<trkpt lat="40.0728172" lon="-105.2306215">
  <ele>1596.45</ele>
  <time>2026-08-27T18:30:32Z</time>
  <course>231.76</course>
  <speed>0.0</speed>
  <fix>3d</fix>
</trkpt>
<trkpt lat="40.0728171" lon="-105.2306214">
  <ele>1596.53</ele>
  <time>2026-08-27T18:30:32Z</time>
  <course>348.95</course>
  <speed>0.01414213562373095</speed>
  <fix>3d</fix>
</trkpt>
<trkpt lat="40.0728171" lon="-105.2306216">
  <ele>1596.45</ele>
  <time>2026-08-27T18:30:32Z</time>
  <course>236.4</course>
  <speed>0.0</speed>
  <fix>3d</fix>
</trkpt>
<trkpt lat="40.0728171" lon="-105.2306214">
  <ele>1596.53</ele>
  <time>2026-08-27T18:30:32Z</time>
  <course>348.97</course>
  <speed>0.01414213562373095</speed>
  <fix>3d</fix>
</trkpt>
<trkpt lat="40.0728171" lon="-105.2306217">
  <ele>1596.44</ele>
  <time>2026-08-27T18:30:32Z</time>
  <course>239.61</course>
  <speed>0.0</speed>
  <fix>3d</fix>
</trkpt>
<trkpt lat="40.0728171" lon="-105.2306214">
  <ele>1596.53</ele>
  <time>2026-08-27T18:30:32Z</time>
  <course>348.97</course>
  <speed>0.01414213562373095</speed>
  <fix>3d</fix>
</trkpt>
<trkpt lat="40.0728171" lon="-105.2306217">
  <ele>1596.44</ele>
  <time>2026-08-27T18:30:32Z</time>
  <course>241.97</course>
  <speed>0.0</speed>
  <fix>3d</fix>
</trkpt>
<trkpt lat="40.0728171" lon="-105.2306214">
  <ele>1596.52</ele>
  <time>2026-08-27T18:30:32Z</time>
  <course>348.96</course>
  <speed>0.01414213562373095</speed>
  <fix>3d</fix>
</trkpt>
<trkpt lat="40.0728171" lon="-105.2306217">
  <ele>1596.43</ele>
  <time>2026-08-27T18:30:32Z</time>
  <course>244.3</course>
  <speed>0.0</speed>
  <fix>3d</fix>
</trkpt>
<trkpt lat="40.0728171" lon="-105.2306214">
  <ele>1596.51</ele>
  <time>2026-08-27T18:30:32Z</time>
  <course>348.94</course>
  <speed>0.01414213562373095</speed>
  <fix>3d</fix>
</trkpt>
<trkpt lat="40.0728171" lon="-105.2306217">
  <ele>1596.43</ele>
  <time>2026-08-27T18:30:32Z</time>
  <course>247.74</course>
  <speed>0.0</speed>
  <fix>3d</fix>
</trkpt>
<trkpt lat="40.0728171" lon="-105.2306214">
  <ele>1596.51</ele>
  <time>2026-08-27T18:30:32Z</time>
  <course>348.92</course>
  <speed>0.022360679774997897</speed>
  <fix>3d</fix>
</trkpt>
<trkpt lat="40.0728171" lon="-105.2306217">
  <ele>1596.43</ele>
  <time>2026-08-27T18:30:32Z</time>
  <course>252.66</course>
  <speed>0.0</speed>
  <fix>3d</fix>
</trkpt>
<trkpt lat="40.0728171" lon="-105.2306214">
  <ele>1596.51</ele>
  <time>2026-08-27T18:30:32Z</time>
  <course>348.91</course>
  <speed>0.022360679774997897</speed>
  <fix>3d</fix>
</trkpt>
<trkpt lat="40.0728171" lon="-105.2306217">
  <ele>1596.43</ele>
  <time>2026-08-27T18:30:32Z</time>
  <course>257.45</course>
  <speed>0.0</speed>
  <fix>3d</fix>
</trkpt>
<trkpt lat="40.0728171" lon="-105.2306214">
  <ele>1596.5</ele>
  <time>2026-08-27T18:30:32Z</time>
  <course>348.9</course>
  <speed>0.022360679774997897</speed>
  <fix>3d</fix>
</trkpt>
<trkpt lat="40.0728171" lon="-105.2306217">
  <ele>1596.43</ele>
  <time>2026-08-27T18:30:32Z</time>
  <course>263.25</course>
  <speed>0.0</speed>
  <fix>3d</fix>
</trkpt>
<trkpt lat="40.0728171" lon="-105.2306214">
  <ele>1596.5</ele>
  <time>2026-08-27T18:30:32Z</time>
  <course>348.9</course>
  <speed>0.022360679774997897</speed>
  <fix>3d</fix>
</trkpt>
<trkpt lat="40.0728171" lon="-105.2306217">
  <ele>1596.43</ele>
  <time>2026-08-27T18:30:32Z</time>
  <course>271.83</course>
  <speed>0.0</speed>
  <fix>3d</fix>
</trkpt>
<trkpt lat="40.0728171" lon="-105.2306215">
  <ele>1596.51</ele>
  <time>2026-08-27T18:30:32Z</time>
  <course>348.88</course>
  <speed>0.022360679774997897</speed>
  <fix>3d</fix>
</trkpt>
<trkpt lat="40.0728171" lon="-105.2306217">
  <ele>1596.43</ele>
  <time>2026-08-27T18:30:32Z</time>
  <course>285.85</course>
  <speed>0.0</speed>
  <fix>3d</fix>
</trkpt>
<trkpt lat="40.0728171" lon="-105.2306215">
  <ele>1596.51</ele>
  <time>2026-08-27T18:30:32Z</time>
  <course>348.86</course>
  <speed>0.022360679774997897</speed>
  <fix>3d</fix>
</trkpt>
<trkpt lat="40.0728171" lon="-105.2306218">
  <ele>1596.43</ele>
  <time>2026-08-27T18:30:32Z</time>
  <course>305.38</course>
  <speed>0.0</speed>
  <fix>3d</fix>
</trkpt>
<trkpt lat="40.0728171" lon="-105.2306215">
  <ele>1596.52</ele>
  <time>2026-08-27T18:30:32Z</time>
  <course>348.87</course>
  <speed>0.022360679774997897</speed>
  <fix>3d</fix>
</trkpt>
<trkpt lat="40.0728171" lon="-105.2306218">
  <ele>1596.43</ele>
  <time>2026-08-27T18:30:32Z</time>
  <course>326.06</course>
  <speed>0.0</speed>
  <fix>3d</fix>
</trkpt>
<trkpt lat="40.0728171" lon="-105.2306215">
  <ele>1596.52</ele>
  <time>2026-08-27T18:30:32Z</time>
  <course>348.88</course>
  <speed>0.022360679774997897</speed>
  <fix>3d</fix>
</trkpt>
<trkpt lat="40.0728171" lon="-105.2306218">
  <ele>1596.43</ele>
  <time>2026-08-27T18:30:32Z</time>
  <course>5.64</course>
  <speed>0.0</speed>
  <fix>3d</fix>
</trkpt>
<trkpt lat="40.0728171" lon="-105.2306215">
  <ele>1596.52</ele>
  <time>2026-08-27T18:30:32Z</time>
  <course>348.89</course>
  <speed>0.022360679774997897</speed>
  <fix>3d</fix>
</trkpt>
<trkpt lat="40.0728171" lon="-105.2306218">
  <ele>1596.43</ele>
  <time>2026-08-27T18:30:32Z</time>
  <course>32.99</course>
  <speed>0.0</speed>
  <fix>3d</fix>
</trkpt>
<trkpt lat="40.0728171" lon="-105.2306215">
  <ele>1596.52</ele>
  <time>2026-08-27T18:30:32Z</time>
  <course>348.89</course>
  <speed>0.02</speed>
  <fix>3d</fix>
</trkpt>
<trkpt lat="40.0728171" lon="-105.2306218">
  <ele>1596.43</ele>
  <time>2026-08-27T18:30:32Z</time>
  <course>42.89</course>
  <speed>0.0</speed>
  <fix>3d</fix>
</trkpt>
<trkpt lat="40.0728171" lon="-105.2306215">
  <ele>1596.52</ele>
  <time>2026-08-27T18:30:32Z</time>
  <course>348.9</course>
  <speed>0.02</speed>
  <fix>3d</fix>
</trkpt>
<trkpt lat="40.0728171" lon="-105.2306218">
  <ele>1596.43</ele>
  <time>2026-08-27T18:30:32Z</time>
  <course>48.09</course>
  <speed>0.0</speed>
  <fix>3d</fix>
</trkpt>
<trkpt lat="40.0728171" lon="-105.2306215">
  <ele>1596.52</ele>
  <time>2026-08-27T18:30:32Z</time>
  <course>348.9</course>
  <speed>0.02</speed>
  <fix>3d</fix>
</trkpt>
<trkpt lat="40.0728171" lon="-105.2306218">
  <ele>1596.43</ele>
  <time>2026-08-27T18:30:32Z</time>
  <course>50.89</course>
  <speed>0.0</speed>
  <fix>3d</fix>
</trkpt>
<trkpt lat="40.0728171" lon="-105.2306215">
  <ele>1596.52</ele>
  <time>2026-08-27T18:30:32Z</time>
  <course>348.9</course>
  <speed>0.022360679774997897</speed>
  <fix>3d</fix>
</trkpt>
<trkpt lat="40.0728171" lon="-105.2306218">
  <ele>1596.42</ele>
  <time>2026-08-27T18:30:32Z</time>
  <course>56.83</course>
  <speed>0.0</speed>
  <fix>3d</fix>
</trkpt>
<trkpt lat="40.0728171" lon="-105.2306215">
  <ele>1596.51</ele>
  <time>2026-08-27T18:30:32Z</time>
  <course>348.9</course>
  <speed>0.02</speed>
  <fix>3d</fix>
</trkpt>
<trkpt lat="40.0728171" lon="-105.2306218">
  <ele>1596.42</ele>
  <time>2026-08-27T18:30:32Z</time>
  <course>61.5</course>
  <speed>0.0</speed>
  <fix>3d</fix>
</trkpt>
<trkpt lat="40.0728171" lon="-105.2306215">
  <ele>1596.51</ele>
  <time>2026-08-27T18:30:33Z</time>
  <course>348.9</course>
  <speed>0.022360679774997897</speed>
  <fix>3d</fix>
</trkpt>
<trkpt lat="40.0728171" lon="-105.2306218">
  <ele>1596.42</ele>
  <time>2026-08-27T18:30:33Z</time>
  <course>62.86</course>
  <speed>0.0</speed>
  <fix>3d</fix>
</trkpt>
<trkpt lat="40.0728171" lon="-105.2306215">
  <ele>1596.52</ele>
  <time>2026-08-27T18:30:33Z</time>
  <course>348.9</course>
  <speed>0.022360679774997897</speed>
  <fix>3d</fix>
</trkpt>
<trkpt lat="40.0728171" lon="-105.2306218">
  <ele>1596.42</ele>
  <time>2026-08-27T18:30:33Z</time>
  <course>64.39</course>
  <speed>0.0</speed>
  <fix>3d</fix>
</trkpt>
<trkpt lat="40.0728171" lon="-105.2306215">
  <ele>1596.52</ele>
  <time>2026-08-27T18:30:33Z</time>
  <course>348.9</course>
  <speed>0.022360679774997897</speed>
  <fix>3d</fix>
</trkpt>
<trkpt lat="40.0728171" lon="-105.2306218">
  <ele>1596.42</ele>
  <time>2026-08-27T18:30:33Z</time>
  <course>64.84</course>
  <speed>0.0</speed>
  <fix>3d</fix>
</trkpt>
<trkpt lat="40.0728171" lon="-105.2306215">
  <ele>1596.52</ele>
  <time>2026-08-27T18:30:33Z</time>
  <course>348.9</course>
  <speed>0.022360679774997897</speed>
  <fix>3d</fix>
</trkpt>
<trkpt lat="40.0728171" lon="-105.2306218">
  <ele>1596.42</ele>
  <time>2026-08-27T18:30:33Z</time>
  <course>65.15</course>
  <speed>0.0</speed>
  <fix>3d</fix>
</trkpt>
<trkpt lat="40.0728171" lon="-105.2306215">
  <ele>1596.52</ele>
  <time>2026-08-27T18:30:33Z</time>
  <course>348.9</course>
  <speed>0.022360679774997897</speed>
  <fix>3d</fix>
</trkpt>
<trkpt lat="40.0728171" lon="-105.2306217">
  <ele>1596.41</ele>
  <time>2026-08-27T18:30:33Z</time>
  <course>67.28</course>
  <speed>0.0</speed>
  <fix>3d</fix>
</trkpt>
<trkpt lat="40.0728171" lon="-105.2306215">
  <ele>1596.52</ele>
  <time>2026-08-27T18:30:33Z</time>
  <course>348.91</course>
  <speed>0.022360679774997897</speed>
  <fix>3d</fix>
</trkpt>
<trkpt lat="40.0728171" lon="-105.2306217">
  <ele>1596.41</ele>
  <time>2026-08-27T18:30:33Z</time>
  <course>68.63</course>
  <speed>0.0</speed>
  <fix>3d</fix>
</trkpt>
<trkpt lat="40.0728171" lon="-105.2306215">
  <ele>1596.52</ele>
  <time>2026-08-27T18:30:33Z</time>
  <course>348.91</course>
  <speed>0.022360679774997897</speed>
  <fix>3d</fix>
</trkpt>
<trkpt lat="40.0728171" lon="-105.2306217">
  <ele>1596.41</ele>
  <time>2026-08-27T18:30:33Z</time>
  <course>67.68</course>
  <speed>0.0</speed>
  <fix>3d</fix>
</trkpt>
<trkpt lat="40.0728171" lon="-105.2306215">
  <ele>1596.52</ele>
  <time>2026-08-27T18:30:33Z</time>
  <course>348.91</course>
  <speed>0.022360679774997897</speed>
  <fix>3d</fix>
</trkpt>
<trkpt lat="40.0728171" lon="-105.2306217">
  <ele>1596.41</ele>
  <time>2026-08-27T18:30:33Z</time>
  <course>67.55</course>
  <speed>0.0</speed>
  <fix>3d</fix>
</trkpt>
<trkpt lat="40.0728171" lon="-105.2306215">
  <ele>1596.51</ele>
  <time>2026-08-27T18:30:33Z</time>
  <course>348.91</course>
  <speed>0.022360679774997897</speed>
  <fix>3d</fix>
</trkpt>
<trkpt lat="40.0728171" lon="-105.2306217">
  <ele>1596.4</ele>
  <time>2026-08-27T18:30:33Z</time>
  <course>67.85</course>
  <speed>0.0</speed>
  <fix>3d</fix>
</trkpt>
<trkpt lat="40.0728171" lon="-105.2306215">
  <ele>1596.51</ele>
  <time>2026-08-27T18:30:33Z</time>
  <course>348.89</course>
  <speed>0.022360679774997897</speed>
  <fix>3d</fix>
</trkpt>
<trkpt lat="40.0728171" lon="-105.2306217">
  <ele>1596.4</ele>
  <time>2026-08-27T18:30:33Z</time>
  <course>66.84</course>
  <speed>0.0</speed>
  <fix>3d</fix>
</trkpt>
<trkpt lat="40.0728171" lon="-105.2306215">
  <ele>1596.51</ele>
  <time>2026-08-27T18:30:33Z</time>
  <course>348.87</course>
  <speed>0.022360679774997897</speed>
  <fix>3d</fix>
</trkpt>
<trkpt lat="40.0728171" lon="-105.2306216">
  <ele>1596.4</ele>
  <time>2026-08-27T18:30:33Z</time>
  <course>64.55</course>
  <speed>0.0</speed>
  <fix>3d</fix>
</trkpt>
<trkpt lat="40.0728171" lon="-105.2306214">
  <ele>1596.51</ele>
  <time>2026-08-27T18:30:33Z</time>
  <course>348.88</course>
  <speed>0.022360679774997897</speed>
  <fix>3d</fix>
</trkpt>
<trkpt lat="40.0728171" lon="-105.2306215">
  <ele>1596.4</ele>
  <time>2026-08-27T18:30:33Z</time>
  <course>63.06</course>
  <speed>0.0</speed>
  <fix>3d</fix>
</trkpt>
<trkpt lat="40.0728171" lon="-105.2306214">
  <ele>1596.51</ele>
  <time>2026-08-27T18:30:33Z</time>
  <course>348.87</course>
  <speed>0.022360679774997897</speed>
  <fix>3d</fix>
</trkpt>
<trkpt lat="40.0728171" lon="-105.2306215">
  <ele>1596.4</ele>
  <time>2026-08-27T18:30:33Z</time>
  <course>61.72</course>
  <speed>0.0</speed>
  <fix>3d</fix>
</trkpt>
<trkpt lat="40.0728171" lon="-105.2306214">
  <ele>1596.51</ele>
  <time>2026-08-27T18:30:33Z</time>
  <course>348.85</course>
  <speed>0.022360679774997897</speed>
  <fix>3d</fix>
</trkpt>
<trkpt lat="40.0728171" lon="-105.2306215">
  <ele>1596.4</ele>
  <time>2026-08-27T18:30:33Z</time>
  <course>55.8</course>
  <speed>0.0</speed>
  <fix>3d</fix>
</trkpt>
<trkpt lat="40.0728171" lon="-105.2306214">
  <ele>1596.5</ele>
  <time>2026-08-27T18:30:33Z</time>
  <course>348.84</course>
  <speed>0.022360679774997897</speed>
  <fix>3d</fix>
</trkpt>
<trkpt lat="40.0728171" lon="-105.2306215">
  <ele>1596.4</ele>
  <time>2026-08-27T18:30:33Z</time>
  <course>47.99</course>
  <speed>0.0</speed>
  <fix>3d</fix>
</trkpt>
<trkpt lat="40.0728171" lon="-105.2306214">
  <ele>1596.5</ele>
  <time>2026-08-27T18:30:33Z</time>
  <course>348.84</course>
  <speed>0.022360679774997897</speed>
  <fix>3d</fix>
</trkpt>
<trkpt lat="40.0728171" lon="-105.2306215">
  <ele>1596.4</ele>
  <time>2026-08-27T18:30:33Z</time>
  <course>41.81</course>
  <speed>0.0</speed>
  <fix>3d</fix>
</trkpt>
<trkpt lat="40.0728171" lon="-105.2306214">
  <ele>1596.5</ele>
  <time>2026-08-27T18:30:33Z</time>
  <course>348.82</course>
  <speed>0.022360679774997897</speed>
  <fix>3d</fix>
</trkpt>
<trkpt lat="40.0728171" lon="-105.2306215">
  <ele>1596.4</ele>
  <time>2026-08-27T18:30:33Z</time>
  <course>32.37</course>
  <speed>0.0</speed>
  <fix>3d</fix>
</trkpt>
<trkpt lat="40.0728171" lon="-105.2306214">
  <ele>1596.49</ele>
  <time>2026-08-27T18:30:33Z</time>
  <course>348.81</course>
  <speed>0.022360679774997897</speed>
  <fix>3d</fix>
</trkpt>
<trkpt lat="40.0728171" lon="-105.2306215">
  <ele>1596.4</ele>
  <time>2026-08-27T18:30:33Z</time>
  <course>358.48</course>
  <speed>0.0</speed>
  <fix>3d</fix>
</trkpt>
<trkpt lat="40.0728171" lon="-105.2306214">
  <ele>1596.5</ele>
  <time>2026-08-27T18:30:33Z</time>
  <course>348.78</course>
  <speed>0.01414213562373095</speed>
  <fix>3d</fix>
</trkpt>
<trkpt lat="40.0728171" lon="-105.2306215">
  <ele>1596.4</ele>
  <time>2026-08-27T18:30:33Z</time>
  <course>315.38</course>
  <speed>0.0</speed>
  <fix>3d</fix>
</trkpt>
<trkpt lat="40.0728171" lon="-105.2306214">
  <ele>1596.5</ele>
  <time>2026-08-27T18:30:33Z</time>
  <course>348.76</course>
  <speed>0.01414213562373095</speed>
  <fix>3d</fix>
</trkpt>
<trkpt lat="40.0728171" lon="-105.2306215">
  <ele>1596.4</ele>
  <time>2026-08-27T18:30:33Z</time>
  <course>298.67</course>
  <speed>0.0</speed>
  <fix>3d</fix>
</trkpt>
<trkpt lat="40.0728171" lon="-105.2306214">
  <ele>1596.49</ele>
  <time>2026-08-27T18:30:33Z</time>
  <course>348.74</course>
  <speed>0.01414213562373095</speed>
  <fix>3d</fix>
</trkpt>
<trkpt lat="40.0728171" lon="-105.2306215">
  <ele>1596.4</ele>
  <time>2026-08-27T18:30:33Z</time>
  <course>289.83</course>
  <speed>0.0</speed>
  <fix>3d</fix>
</trkpt>
<trkpt lat="40.0728171" lon="-105.2306214">
  <ele>1596.5</ele>
  <time>2026-08-27T18:30:33Z</time>
  <course>348.73</course>
  <speed>0.01414213562373095</speed>
  <fix>3d</fix>
</trkpt>
<trkpt lat="40.0728171" lon="-105.2306215">
  <ele>1596.4</ele>
  <time>2026-08-27T18:30:33Z</time>
  <course>285.22</course>
  <speed>0.0</speed>
  <fix>3d</fix>
</trkpt>
<trkpt lat="40.0728171" lon="-105.2306214">
  <ele>1596.5</ele>
  <time>2026-08-27T18:30:33Z</time>
  <course>348.73</course>
  <speed>0.01414213562373095</speed>
  <fix>3d</fix>
</trkpt>
<trkpt lat="40.0728171" lon="-105.2306215">
  <ele>1596.41</ele>
  <time>2026-08-27T18:30:33Z</time>
  <course>283.1</course>
  <speed>0.0</speed>
  <fix>3d</fix>
</trkpt>
<trkpt lat="40.0728171" lon="-105.2306214">
  <ele>1596.51</ele>
  <time>2026-08-27T18:30:33Z</time>
  <course>348.73</course>
  <speed>0.01414213562373095</speed>
  <fix>3d</fix>
</trkpt>
<trkpt lat="40.0728171" lon="-105.2306215">
  <ele>1596.41</ele>
  <time>2026-08-27T18:30:33Z</time>
  <course>283.18</course>
  <speed>0.0</speed>
  <fix>3d</fix>
</trkpt>
<trkpt lat="40.0728171" lon="-105.2306214">
  <ele>1596.51</ele>
  <time>2026-08-27T18:30:33Z</time>
  <course>348.73</course>
  <speed>0.01414213562373095</speed>
  <fix>3d</fix>
</trkpt>
<trkpt lat="40.0728172" lon="-105.2306215">
  <ele>1596.41</ele>
  <time>2026-08-27T18:30:33Z</time>
  <course>285.23</course>
  <speed>0.0</speed>
  <fix>3d</fix>
</trkpt>
<trkpt lat="40.0728171" lon="-105.2306214">
  <ele>1596.51</ele>
  <time>2026-08-27T18:30:33Z</time>
  <course>348.75</course>
  <speed>0.01414213562373095</speed>
  <fix>3d</fix>
</trkpt>
<trkpt lat="40.0728172" lon="-105.2306215">
  <ele>1596.41</ele>
  <time>2026-08-27T18:30:33Z</time>
  <course>286.96</course>
  <speed>0.0</speed>
  <fix>3d</fix>
</trkpt>
<trkpt lat="40.0728171" lon="-105.2306214">
  <ele>1596.52</ele>
  <time>2026-08-27T18:30:33Z</time>
  <course>348.78</course>
  <speed>0.01414213562373095</speed>
  <fix>3d</fix>
</trkpt>
<trkpt lat="40.0728172" lon="-105.2306215">
  <ele>1596.42</ele>
  <time>2026-08-27T18:30:33Z</time>
  <course>287.43</course>
  <speed>0.0</speed>
  <fix>3d</fix>
</trkpt>
<trkpt lat="40.0728171" lon="-105.2306214">
  <ele>1596.52</ele>
  <time>2026-08-27T18:30:33Z</time>
  <course>348.8</course>
  <speed>0.01414213562373095</speed>
  <fix>3d</fix>
</trkpt>
<trkpt lat="40.0728172" lon="-105.2306216">
  <ele>1596.42</ele>
  <time>2026-08-27T18:30:33Z</time>
  <course>284.61</course>
  <speed>0.0</speed>
  <fix>3d</fix>
</trkpt>
<trkpt lat="40.0728171" lon="-105.2306214">
  <ele>1596.52</ele>
  <time>2026-08-27T18:30:33Z</time>
  <course>348.82</course>
  <speed>0.01414213562373095</speed>
  <fix>3d</fix>
</trkpt>
<trkpt lat="40.0728172" lon="-105.2306217">
  <ele>1596.42</ele>
  <time>2026-08-27T18:30:33Z</time>
  <course>279.69</course>
  <speed>0.0</speed>
  <fix>3d</fix>
</trkpt>
<trkpt lat="40.0728171" lon="-105.2306214">
  <ele>1596.52</ele>
  <time>2026-08-27T18:30:33Z</time>
  <course>348.82</course>
  <speed>0.01414213562373095</speed>
  <fix>3d</fix>
</trkpt>
<trkpt lat="40.0728172" lon="-105.2306217">
  <ele>1596.41</ele>
  <time>2026-08-27T18:30:33Z</time>
  <course>276.05</course>
  <speed>0.0</speed>
  <fix>3d</fix>
</trkpt>
<trkpt lat="40.0728171" lon="-105.2306214">
  <ele>1596.51</ele>
  <time>2026-08-27T18:30:33Z</time>
  <course>348.82</course>
  <speed>0.01414213562373095</speed>
  <fix>3d</fix>
</trkpt>
<trkpt lat="40.0728172" lon="-105.2306217">
  <ele>1596.41</ele>
  <time>2026-08-27T18:30:33Z</time>
  <course>272.14</course>
  <speed>0.0</speed>
  <fix>3d</fix>
</trkpt>
<trkpt lat="40.0728171" lon="-105.2306214">
  <ele>1596.51</ele>
  <time>2026-08-27T18:30:33Z</time>
  <course>348.82</course>
  <speed>0.01414213562373095</speed>
  <fix>3d</fix>
</trkpt>
<trkpt lat="40.0728172" lon="-105.2306217">
  <ele>1596.41</ele>
  <time>2026-08-27T18:30:33Z</time>
  <course>265.78</course>
  <speed>0.0</speed>
  <fix>3d</fix>
</trkpt>
<trkpt lat="40.0728171" lon="-105.2306214">
  <ele>1596.51</ele>
  <time>2026-08-27T18:30:33Z</time>
  <course>348.81</course>
  <speed>0.022360679774997897</speed>
  <fix>3d</fix>
</trkpt>
<trkpt lat="40.0728172" lon="-105.2306217">
  <ele>1596.41</ele>
  <time>2026-08-27T18:30:33Z</time>
  <course>257.01</course>
  <speed>0.0</speed>
  <fix>3d</fix>
</trkpt>
<trkpt lat="40.0728171" lon="-105.2306214">
  <ele>1596.5</ele>
  <time>2026-08-27T18:30:33Z</time>
  <course>348.79</course>
  <speed>0.022360679774997897</speed>
  <fix>3d</fix>
</trkpt>
<trkpt lat="40.0728172" lon="-105.2306217">
  <ele>1596.41</ele>
  <time>2026-08-27T18:30:33Z</time>
  <course>243.1</course>
  <speed>0.0</speed>
  <fix>3d</fix>
</trkpt>
<trkpt lat="40.0728171" lon="-105.2306214">
  <ele>1596.5</ele>
  <time>2026-08-27T18:30:33Z</time>
  <course>348.78</course>
  <speed>0.022360679774997897</speed>
  <fix>3d</fix>
</trkpt>
<trkpt lat="40.0728172" lon="-105.2306217">
  <ele>1596.41</ele>
  <time>2026-08-27T18:30:33Z</time>
  <course>218.97</course>
  <speed>0.0</speed>
  <fix>3d</fix>
</trkpt>
<trkpt lat="40.0728171" lon="-105.2306215">
  <ele>1596.5</ele>
  <time>2026-08-27T18:30:33Z</time>
  <course>348.75</course>
  <speed>0.022360679774997897</speed>
  <fix>3d</fix>
</trkpt>
<trkpt lat="40.0728172" lon="-105.2306217">
  <ele>1596.41</ele>
  <time>2026-08-27T18:30:33Z</time>
  <course>193.77</course>
  <speed>0.0</speed>
  <fix>3d</fix>
</trkpt>
<trkpt lat="40.0728171" lon="-105.2306215">
  <ele>1596.5</ele>
  <time>2026-08-27T18:30:33Z</time>
  <course>348.75</course>
  <speed>0.022360679774997897</speed>
  <fix>3d</fix>
</trkpt>
<trkpt lat="40.0728172" lon="-105.2306217">
  <ele>1596.41</ele>
  <time>2026-08-27T18:30:33Z</time>
  <course>178.95</course>
  <speed>0.0</speed>
  <fix>3d</fix>
</trkpt>
<trkpt lat="40.0728171" lon="-105.2306215">
  <ele>1596.51</ele>
  <time>2026-08-27T18:30:33Z</time>
  <course>348.74</course>
  <speed>0.022360679774997897</speed>
  <fix>3d</fix>
</trkpt>
<trkpt lat="40.0728172" lon="-105.2306217">
  <ele>1596.41</ele>
  <time>2026-08-27T18:30:33Z</time>
  <course>174.64</course>
  <speed>0.0</speed>
  <fix>3d</fix>
</trkpt>
<trkpt lat="40.0728171" lon="-105.2306215">
  <ele>1596.51</ele>
  <time>2026-08-27T18:30:33Z</time>
  <course>348.74</course>
  <speed>0.022360679774997897</speed>
  <fix>3d</fix>
</trkpt>
<trkpt lat="40.0728172" lon="-105.2306217">
  <ele>1596.41</ele>
  <time>2026-08-27T18:30:33Z</time>
  <course>173.25</course>
  <speed>0.0</speed>
  <fix>3d</fix>
</trkpt>
<trkpt lat="40.0728171" lon="-105.2306215">
  <ele>1596.51</ele>
  <time>2026-08-27T18:30:33Z</time>
  <course>348.74</course>
  <speed>0.022360679774997897</speed>
  <fix>3d</fix>
</trkpt>
<trkpt lat="40.0728172" lon="-105.2306217">
  <ele>1596.42</ele>
  <time>2026-08-27T18:30:33Z</time>
  <course>170.06</course>
  <speed>0.0</speed>
  <fix>3d</fix>
</trkpt>
<trkpt lat="40.0728171" lon="-105.2306215">
  <ele>1596.51</ele>
  <time>2026-08-27T18:30:33Z</time>
  <course>348.74</course>
  <speed>0.022360679774997897</speed>
  <fix>3d</fix>
</trkpt>
<trkpt lat="40.0728172" lon="-105.2306217">
  <ele>1596.42</ele>
  <time>2026-08-27T18:30:33Z</time>
  <course>166.84</course>
  <speed>0.0</speed>
  <fix>3d</fix>
</trkpt>
<trkpt lat="40.0728171" lon="-105.2306215">
  <ele>1596.51</ele>
  <time>2026-08-27T18:30:33Z</time>
  <course>348.74</course>
  <speed>0.022360679774997897</speed>
  <fix>3d</fix>
</trkpt>
<trkpt lat="40.0728172" lon="-105.2306217">
  <ele>1596.42</ele>
  <time>2026-08-27T18:30:33Z</time>
  <course>163.3</course>
  <speed>0.0</speed>
  <fix>3d</fix>
</trkpt>
<trkpt lat="40.0728171" lon="-105.2306215">
  <ele>1596.51</ele>
  <time>2026-08-27T18:30:33Z</time>
  <course>348.74</course>
  <speed>0.022360679774997897</speed>
  <fix>3d</fix>
</trkpt>
<trkpt lat="40.0728172" lon="-105.2306217">
  <ele>1596.42</ele>
  <time>2026-08-27T18:30:33Z</time>
  <course>159.94</course>
  <speed>0.0</speed>
  <fix>3d</fix>
</trkpt>
<trkpt lat="40.0728171" lon="-105.2306215">
  <ele>1596.52</ele>
  <time>2026-08-27T18:30:33Z</time>
  <course>348.74</course>
  <speed>0.022360679774997897</speed>
  <fix>3d</fix>
</trkpt>
<trkpt lat="40.0728172" lon="-105.2306217">
  <ele>1596.42</ele>
  <time>2026-08-27T18:30:33Z</time>
  <course>156.74</course>
  <speed>0.0</speed>
  <fix>3d</fix>
</trkpt>
<trkpt lat="40.0728171" lon="-105.2306215">
  <ele>1596.52</ele>
  <time>2026-08-27T18:30:33Z</time>
  <course>348.75</course>
  <speed>0.022360679774997897</speed>
  <fix>3d</fix>
</trkpt>
<trkpt lat="40.0728172" lon="-105.2306217">
  <ele>1596.42</ele>
  <time>2026-08-27T18:30:33Z</time>
  <course>154.28</course>
  <speed>0.0</speed>
  <fix>3d</fix>
</trkpt>
<trkpt lat="40.0728171" lon="-105.2306215">
  <ele>1596.52</ele>
  <time>2026-08-27T18:30:33Z</time>
  <course>348.77</course>
  <speed>0.022360679774997897</speed>
  <fix>3d</fix>
</trkpt>
<trkpt lat="40.0728172" lon="-105.2306217">
  <ele>1596.42</ele>
  <time>2026-08-27T18:30:33Z</time>
  <course>154.21</course>
  <speed>0.0</speed>
  <fix>3d</fix>
</trkpt>
<trkpt lat="40.0728171" lon="-105.2306215">
  <ele>1596.52</ele>
  <time>2026-08-27T18:30:33Z</time>
  <course>348.79</course>
  <speed>0.022360679774997897</speed>
  <fix>3d</fix>
</trkpt>
<trkpt lat="40.0728172" lon="-105.2306217">
  <ele>1596.42</ele>
  <time>2026-08-27T18:30:33Z</time>
  <course>152.89</course>
  <speed>0.0</speed>
  <fix>3d</fix>
</trkpt>
<trkpt lat="40.0728171" lon="-105.2306215">
  <ele>1596.52</ele>
  <time>2026-08-27T18:30:33Z</time>
  <course>348.81</course>
  <speed>0.022360679774997897</speed>
  <fix>3d</fix>
</trkpt>
<trkpt lat="40.0728172" lon="-105.2306217">
  <ele>1596.42</ele>
  <time>2026-08-27T18:30:33Z</time>
  <course>148.55</course>
  <speed>0.0</speed>
  <fix>3d</fix>
</trkpt>
<trkpt lat="40.0728171" lon="-105.2306215">
  <ele>1596.51</ele>
  <time>2026-08-27T18:30:33Z</time>
  <course>348.82</course>
  <speed>0.022360679774997897</speed>
  <fix>3d</fix>
</trkpt>
<trkpt lat="40.0728172" lon="-105.2306217">
  <ele>1596.41</ele>
  <time>2026-08-27T18:30:33Z</time>
  <course>144.68</course>
  <speed>0.0</speed>
  <fix>3d</fix>
</trkpt>
<trkpt lat="40.0728171" lon="-105.2306215">
  <ele>1596.5</ele>
  <time>2026-08-27T18:30:33Z</time>
  <course>348.8</course>
  <speed>0.022360679774997897</speed>
  <fix>3d</fix>
</trkpt>
<trkpt lat="40.0728171" lon="-105.2306217">
  <ele>1596.41</ele>
  <time>2026-08-27T18:30:33Z</time>
  <course>143.06</course>
  <speed>0.0</speed>
  <fix>3d</fix>
</trkpt>
<trkpt lat="40.0728171" lon="-105.2306215">
  <ele>1596.5</ele>
  <time>2026-08-27T18:30:33Z</time>
  <course>348.79</course>
  <speed>0.022360679774997897</speed>
  <fix>3d</fix>
</trkpt>
<trkpt lat="40.0728171" lon="-105.2306217">
  <ele>1596.41</ele>
  <time>2026-08-27T18:30:33Z</time>
  <course>143.65</course>
  <speed>0.0</speed>
  <fix>3d</fix>
</trkpt>
<trkpt lat="40.0728171" lon="-105.2306215">
  <ele>1596.5</ele>
  <time>2026-08-27T18:30:33Z</time>
  <course>348.77</course>
  <speed>0.022360679774997897</speed>
  <fix>3d</fix>
</trkpt>
<trkpt lat="40.0728171" lon="-105.2306217">
  <ele>1596.41</ele>
  <time>2026-08-27T18:30:33Z</time>
  <course>144.88</course>
  <speed>0.0</speed>
  <fix>3d</fix>
</trkpt>
<trkpt lat="40.0728171" lon="-105.2306215">
  <ele>1596.5</ele>
  <time>2026-08-27T18:30:33Z</time>
  <course>348.74</course>
  <speed>0.022360679774997897</speed>
  <fix>3d</fix>
</trkpt>
<trkpt lat="40.0728171" lon="-105.2306217">
  <ele>1596.41</ele>
  <time>2026-08-27T18:30:33Z</time>
  <course>143.97</course>
  <speed>0.0</speed>
  <fix>3d</fix>
</trkpt>
<trkpt lat="40.0728171" lon="-105.2306215">
  <ele>1596.5</ele>
  <time>2026-08-27T18:30:33Z</time>
  <course>348.71</course>
  <speed>0.022360679774997897</speed>
  <fix>3d</fix>
</trkpt>
<trkpt lat="40.0728171" lon="-105.2306217">
  <ele>1596.41</ele>
  <time>2026-08-27T18:30:33Z</time>
  <course>142.49</course>
  <speed>0.0</speed>
  <fix>3d</fix>
</trkpt>
<trkpt lat="40.0728171" lon="-105.2306215">
  <ele>1596.5</ele>
  <time>2026-08-27T18:30:33Z</time>
  <course>348.7</course>
  <speed>0.022360679774997897</speed>
  <fix>3d</fix>
</trkpt>
<trkpt lat="40.0728171" lon="-105.2306217">
  <ele>1596.41</ele>
  <time>2026-08-27T18:30:33Z</time>
  <course>139.62</course>
  <speed>0.0</speed>
  <fix>3d</fix>
</trkpt>
<trkpt lat="40.0728171" lon="-105.2306215">
  <ele>1596.5</ele>
  <time>2026-08-27T18:30:33Z</time>
  <course>348.7</course>
  <speed>0.022360679774997897</speed>
  <fix>3d</fix>
</trkpt>
<trkpt lat="40.0728171" lon="-105.2306217">
  <ele>1596.41</ele>
  <time>2026-08-27T18:30:33Z</time>
  <course>133.18</course>
  <speed>0.0</speed>
  <fix>3d</fix>
</trkpt>
<trkpt lat="40.0728171" lon="-105.2306215">
  <ele>1596.5</ele>
  <time>2026-08-27T18:30:33Z</time>
  <course>348.68</course>
  <speed>0.022360679774997897</speed>
  <fix>3d</fix>
</trkpt>
<trkpt lat="40.0728171" lon="-105.2306217">
  <ele>1596.41</ele>
  <time>2026-08-27T18:30:33Z</time>
  <course>123.9</course>
  <speed>0.0</speed>
  <fix>3d</fix>
</trkpt>
<trkpt lat="40.0728171" lon="-105.2306215">
  <ele>1596.5</ele>
  <time>2026-08-27T18:30:33Z</time>
  <course>348.68</course>
  <speed>0.022360679774997897</speed>
  <fix>3d</fix>
</trkpt>
<trkpt lat="40.0728171" lon="-105.2306217">
  <ele>1596.41</ele>
  <time>2026-08-27T18:30:33Z</time>
  <course>111.19</course>
  <speed>0.0</speed>
  <fix>3d</fix>
</trkpt>
<trkpt lat="40.0728171" lon="-105.2306215">
  <ele>1596.5</ele>
  <time>2026-08-27T18:30:33Z</time>
  <course>348.67</course>
  <speed>0.022360679774997897</speed>
  <fix>3d</fix>
</trkpt>
<trkpt lat="40.0728171" lon="-105.2306217">
  <ele>1596.42</ele>
  <time>2026-08-27T18:30:33Z</time>
  <course>98.63</course>
  <speed>0.0</speed>
  <fix>3d</fix>
</trkpt>
<trkpt lat="40.0728171" lon="-105.2306215">
  <ele>1596.5</ele>
  <time>2026-08-27T18:30:33Z</time>
  <course>348.66</course>
  <speed>0.022360679774997897</speed>
  <fix>3d</fix>
</trkpt>
<trkpt lat="40.0728171" lon="-105.2306217">
  <ele>1596.42</ele>
  <time>2026-08-27T18:30:33Z</time>
  <course>88.84</course>
  <speed>0.0</speed>
  <fix>3d</fix>
</trkpt>
<trkpt lat="40.0728171" lon="-105.2306215">
  <ele>1596.51</ele>
  <time>2026-08-27T18:30:33Z</time>
  <course>348.66</course>
  <speed>0.022360679774997897</speed>
  <fix>3d</fix>
</trkpt>
<trkpt lat="40.0728171" lon="-105.2306217">
  <ele>1596.42</ele>
  <time>2026-08-27T18:30:33Z</time>
  <course>77.36</course>
  <speed>0.0</speed>
  <fix>3d</fix>
</trkpt>
<trkpt lat="40.0728171" lon="-105.2306215">
  <ele>1596.51</ele>
  <time>2026-08-27T18:30:33Z</time>
  <course>348.66</course>
  <speed>0.022360679774997897</speed>
  <fix>3d</fix>
</trkpt>
<trkpt lat="40.0728171" lon="-105.2306217">
  <ele>1596.42</ele>
  <time>2026-08-27T18:30:33Z</time>
  <course>65.76</course>
  <speed>0.0</speed>
  <fix>3d</fix>
</trkpt>
<trkpt lat="40.0728171" lon="-105.2306215">
  <ele>1596.51</ele>
  <time>2026-08-27T18:30:33Z</time>
  <course>348.66</course>
  <speed>0.022360679774997897</speed>
  <fix>3d</fix>
</trkpt>
<trkpt lat="40.0728171" lon="-105.2306217">
  <ele>1596.42</ele>
  <time>2026-08-27T18:30:33Z</time>
  <course>62.39</course>
  <speed>0.0</speed>
  <fix>3d</fix>
</trkpt>
<trkpt lat="40.0728171" lon="-105.2306215">
  <ele>1596.52</ele>
  <time>2026-08-27T18:30:33Z</time>
  <course>348.66</course>
  <speed>0.022360679774997897</speed>
  <fix>3d</fix>
</trkpt>
<trkpt lat="40.0728171" lon="-105.2306217">
  <ele>1596.43</ele>
  <time>2026-08-27T18:30:33Z</time>
  <course>65.62</course>
  <speed>0.0</speed>
  <fix>3d</fix>
</trkpt>
<trkpt lat="40.0728171" lon="-105.2306215">
  <ele>1596.52</ele>
  <time>2026-08-27T18:30:33Z</time>
  <course>348.67</course>
  <speed>0.022360679774997897</speed>
  <fix>3d</fix>
</trkpt>
<trkpt lat="40.0728171" lon="-105.2306217">
  <ele>1596.43</ele>
  <time>2026-08-27T18:30:33Z</time>
  <course>68.35</course>
  <speed>0.0</speed>
  <fix>3d</fix>
</trkpt>
<trkpt lat="40.0728171" lon="-105.2306215">
  <ele>1596.52</ele>
  <time>2026-08-27T18:30:33Z</time>
  <course>348.69</course>
  <speed>0.022360679774997897</speed>
  <fix>3d</fix>
</trkpt>
<trkpt lat="40.0728171" lon="-105.2306217">
  <ele>1596.43</ele>
  <time>2026-08-27T18:30:33Z</time>
  <course>62.74</course>
  <speed>0.0</speed>
  <fix>3d</fix>
</trkpt>
<trkpt lat="40.0728171" lon="-105.2306215">
  <ele>1596.52</ele>
  <time>2026-08-27T18:30:33Z</time>
  <course>348.72</course>
  <speed>0.02</speed>
  <fix>3d</fix>
</trkpt>
<trkpt lat="40.0728171" lon="-105.2306217">
  <ele>1596.43</ele>
  <time>2026-08-27T18:30:33Z</time>
  <course>49.59</course>
  <speed>0.0</speed>
  <fix>3d</fix>
</trkpt>
<trkpt lat="40.0728171" lon="-105.2306215">
  <ele>1596.51</ele>
  <time>2026-08-27T18:30:33Z</time>
  <course>348.72</course>
  <speed>0.02</speed>
  <fix>3d</fix>
</trkpt>
<trkpt lat="40.0728171" lon="-105.2306217">
  <ele>1596.43</ele>
  <time>2026-08-27T18:30:33Z</time>
  <course>42.62</course>
  <speed>0.0</speed>
  <fix>3d</fix>
</trkpt>
<trkpt lat="40.0728171" lon="-105.2306215">
  <ele>1596.51</ele>
  <time>2026-08-27T18:30:33Z</time>
  <course>348.72</course>
  <speed>0.02</speed>
  <fix>3d</fix>
</trkpt>
<trkpt lat="40.0728171" lon="-105.2306217">
  <ele>1596.42</ele>
  <time>2026-08-27T18:30:33Z</time>
  <course>42.4</course>
  <speed>0.0</speed>
  <fix>3d</fix>
</trkpt>
<trkpt lat="40.0728171" lon="-105.2306215">
  <ele>1596.52</ele>
  <time>2026-08-27T18:30:33Z</time>
  <course>348.72</course>
  <speed>0.02</speed>
  <fix>3d</fix>
</trkpt>
<trkpt lat="40.0728171" lon="-105.2306217">
  <ele>1596.42</ele>
  <time>2026-08-27T18:30:33Z</time>
  <course>42.88</course>
  <speed>0.0</speed>
  <fix>3d</fix>
</trkpt>
<trkpt lat="40.0728171" lon="-105.2306215">
  <ele>1596.52</ele>
  <time>2026-08-27T18:30:33Z</time>
  <course>348.71</course>
  <speed>0.02</speed>
  <fix>3d</fix>
</trkpt>
<trkpt lat="40.0728171" lon="-105.2306216">
  <ele>1596.42</ele>
  <time>2026-08-27T18:30:33Z</time>
  <course>42.57</course>
  <speed>0.0</speed>
  <fix>3d</fix>
</trkpt>
<trkpt lat="40.0728171" lon="-105.2306215">
  <ele>1596.52</ele>
  <time>2026-08-27T18:30:33Z</time>
  <course>348.72</course>
  <speed>0.02</speed>
  <fix>3d</fix>
</trkpt>
<trkpt lat="40.0728171" lon="-105.2306215">
  <ele>1596.42</ele>
  <time>2026-08-27T18:30:33Z</time>
  <course>40.53</course>
  <speed>0.0</speed>
  <fix>3d</fix>
</trkpt>
<trkpt lat="40.0728171" lon="-105.2306215">
  <ele>1596.52</ele>
  <time>2026-08-27T18:30:33Z</time>
  <course>348.73</course>
  <speed>0.02</speed>
  <fix>3d</fix>
</trkpt>
<trkpt lat="40.0728171" lon="-105.2306215">
  <ele>1596.42</ele>
  <time>2026-08-27T18:30:33Z</time>
  <course>37.13</course>
  <speed>0.0</speed>
  <fix>3d</fix>
</trkpt>
<trkpt lat="40.0728171" lon="-105.2306214">
  <ele>1596.52</ele>
  <time>2026-08-27T18:30:33Z</time>
  <course>348.75</course>
  <speed>0.02</speed>
  <fix>3d</fix>
</trkpt>
<trkpt lat="40.0728171" lon="-105.2306215">
  <ele>1596.42</ele>
  <time>2026-08-27T18:30:33Z</time>
  <course>33.1</course>
  <speed>0.0</speed>
  <fix>3d</fix>
</trkpt>
<trkpt lat="40.0728171" lon="-105.2306214">
  <ele>1596.52</ele>
  <time>2026-08-27T18:30:33Z</time>
  <course>348.75</course>
  <speed>0.022360679774997897</speed>
  <fix>3d</fix>
</trkpt>
<trkpt lat="40.0728171" lon="-105.2306215">
  <ele>1596.42</ele>
  <time>2026-08-27T18:30:33Z</time>
  <course>24.54</course>
  <speed>0.0</speed>
  <fix>3d</fix>
</trkpt>
<trkpt lat="40.0728171" lon="-105.2306214">
  <ele>1596.52</ele>
  <time>2026-08-27T18:30:33Z</time>
  <course>348.76</course>
  <speed>0.022360679774997897</speed>
  <fix>3d</fix>
</trkpt>
<trkpt lat="40.0728171" lon="-105.2306215">
  <ele>1596.41</ele>
  <time>2026-08-27T18:30:33Z</time>
  <course>10.08</course>
  <speed>0.0</speed>
  <fix>3d</fix>
</trkpt>
<trkpt lat="40.0728171" lon="-105.2306214">
  <ele>1596.52</ele>
  <time>2026-08-27T18:30:33Z</time>
  <course>348.77</course>
  <speed>0.022360679774997897</speed>
  <fix>3d</fix>
</trkpt>
<trkpt lat="40.0728171" lon="-105.2306215">
  <ele>1596.41</ele>
  <time>2026-08-27T18:30:33Z</time>
  <course>351.97</course>
  <speed>0.0</speed>
  <fix>3d</fix>
</trkpt>
<trkpt lat="40.0728171" lon="-105.2306214">
  <ele>1596.52</ele>
  <time>2026-08-27T18:30:33Z</time>
  <course>348.77</course>
  <speed>0.022360679774997897</speed>
  <fix>3d</fix>
</trkpt>
<trkpt lat="40.0728171" lon="-105.2306215">
  <ele>1596.41</ele>
  <time>2026-08-27T18:30:33Z</time>
  <course>334.64</course>
  <speed>0.0</speed>
  <fix>3d</fix>
</trkpt>
<trkpt lat="40.0728171" lon="-105.2306214">
  <ele>1596.51</ele>
  <time>2026-08-27T18:30:33Z</time>
  <course>348.76</course>
  <speed>0.022360679774997897</speed>
  <fix>3d</fix>
</trkpt>
<trkpt lat="40.0728171" lon="-105.2306215">
  <ele>1596.4</ele>
  <time>2026-08-27T18:30:33Z</time>
  <course>319.2</course>
  <speed>0.0</speed>
  <fix>3d</fix>
</trkpt>
<trkpt lat="40.0728171" lon="-105.2306214">
  <ele>1596.51</ele>
  <time>2026-08-27T18:30:33Z</time>
  <course>348.74</course>
  <speed>0.01414213562373095</speed>
  <fix>3d</fix>
</trkpt>
<trkpt lat="40.0728171" lon="-105.2306215">
  <ele>1596.4</ele>
  <time>2026-08-27T18:30:33Z</time>
  <course>308.77</course>
  <speed>0.0</speed>
  <fix>3d</fix>
</trkpt>
<trkpt lat="40.0728171" lon="-105.2306214">
  <ele>1596.51</ele>
  <time>2026-08-27T18:30:33Z</time>
  <course>348.73</course>
  <speed>0.01414213562373095</speed>
  <fix>3d</fix>
</trkpt>
<trkpt lat="40.0728171" lon="-105.2306215">
  <ele>1596.4</ele>
  <time>2026-08-27T18:30:33Z</time>
  <course>301.2</course>
  <speed>0.0</speed>
  <fix>3d</fix>
</trkpt>
<trkpt lat="40.0728171" lon="-105.2306214">
  <ele>1596.5</ele>
  <time>2026-08-27T18:30:33Z</time>
  <course>348.71</course>
  <speed>0.01414213562373095</speed>
  <fix>3d</fix>
</trkpt>
<trkpt lat="40.0728171" lon="-105.2306215">
  <ele>1596.4</ele>
  <time>2026-08-27T18:30:33Z</time>
  <course>293.02</course>
  <speed>0.0</speed>
  <fix>3d</fix>
</trkpt>
<trkpt lat="40.0728171" lon="-105.2306214">
  <ele>1596.5</ele>
  <time>2026-08-27T18:30:33Z</time>
  <course>348.7</course>
  <speed>0.01414213562373095</speed>
  <fix>3d</fix>
</trkpt>
<trkpt lat="40.0728171" lon="-105.2306215">
  <ele>1596.4</ele>
  <time>2026-08-27T18:30:33Z</time>
  <course>286.25</course>
  <speed>0.0</speed>
  <fix>3d</fix>
</trkpt>
<trkpt lat="40.0728171" lon="-105.2306214">
  <ele>1596.5</ele>
  <time>2026-08-27T18:30:33Z</time>
  <course>348.67</course>
  <speed>0.01414213562373095</speed>
  <fix>3d</fix>
</trkpt>
<trkpt lat="40.0728171" lon="-105.2306215">
  <ele>1596.4</ele>
  <time>2026-08-27T18:30:33Z</time>
  <course>283.27</course>
  <speed>0.0</speed>
  <fix>3d</fix>
</trkpt>
<trkpt lat="40.0728171" lon="-105.2306214">
  <ele>1596.5</ele>
  <time>2026-08-27T18:30:33Z</time>
  <course>348.64</course>
  <speed>0.01414213562373095</speed>
  <fix>3d</fix>
</trkpt>
<trkpt lat="40.0728171" lon="-105.2306215">
  <ele>1596.4</ele>
  <time>2026-08-27T18:30:33Z</time>
  <course>284.83</course>
  <speed>0.0</speed>
  <fix>3d</fix>
</trkpt>
<trkpt lat="40.0728171" lon="-105.2306214">
  <ele>1596.5</ele>
  <time>2026-08-27T18:30:33Z</time>
  <course>348.62</course>
  <speed>0.01414213562373095</speed>
  <fix>3d</fix>
</trkpt>
<trkpt lat="40.0728171" lon="-105.2306215">
  <ele>1596.4</ele>
  <time>2026-08-27T18:30:33Z</time>
  <course>286.83</course>
  <speed>0.0</speed>
  <fix>3d</fix>
</trkpt>
<trkpt lat="40.0728171" lon="-105.2306214">
  <ele>1596.5</ele>
  <time>2026-08-27T18:30:33Z</time>
  <course>348.62</course>
  <speed>0.01414213562373095</speed>
  <fix>3d</fix>
</trkpt>
<trkpt lat="40.0728171" lon="-105.2306215">
  <ele>1596.4</ele>
  <time>2026-08-27T18:30:33Z</time>
  <course>287.03</course>
  <speed>0.0</speed>
  <fix>3d</fix>
</trkpt>
<trkpt lat="40.0728171" lon="-105.2306214">
  <ele>1596.51</ele>
  <time>2026-08-27T18:30:33Z</time>
  <course>348.62</course>
  <speed>0.01414213562373095</speed>
  <fix>3d</fix>
</trkpt>
<trkpt lat="40.0728171" lon="-105.2306216">
  <ele>1596.41</ele>
  <time>2026-08-27T18:30:33Z</time>
  <course>286.9</course>
  <speed>0.0</speed>
  <fix>3d</fix>
</trkpt>
<trkpt lat="40.0728171" lon="-105.2306214">
  <ele>1596.51</ele>
  <time>2026-08-27T18:30:33Z</time>
  <course>348.63</course>
  <speed>0.01414213562373095</speed>
  <fix>3d</fix>
</trkpt>
<trkpt lat="40.0728171" lon="-105.2306217">
  <ele>1596.41</ele>
  <time>2026-08-27T18:30:33Z</time>
  <course>286.59</course>
  <speed>0.0</speed>
  <fix>3d</fix>
</trkpt>
<trkpt lat="40.0728171" lon="-105.2306214">
  <ele>1596.51</ele>
  <time>2026-08-27T18:30:33Z</time>
  <course>348.64</course>
  <speed>0.01414213562373095</speed>
  <fix>3d</fix>
</trkpt>
<trkpt lat="40.0728171" lon="-105.2306217">
  <ele>1596.41</ele>
  <time>2026-08-27T18:30:33Z</time>
  <course>286.18</course>
  <speed>0.0</speed>
  <fix>3d</fix>
</trkpt>
<trkpt lat="40.0728171" lon="-105.2306214">
  <ele>1596.51</ele>
  <time>2026-08-27T18:30:33Z</time>
  <course>348.65</course>
  <speed>0.01414213562373095</speed>
  <fix>3d</fix>
</trkpt>
<trkpt lat="40.0728171" lon="-105.2306217">
  <ele>1596.41</ele>
  <time>2026-08-27T18:30:33Z</time>
  <course>286.74</course>
  <speed>0.0</speed>
  <fix>3d</fix>
</trkpt>
<trkpt lat="40.0728171" lon="-105.2306214">
  <ele>1596.5</ele>
  <time>2026-08-27T18:30:33Z</time>
  <course>348.66</course>
  <speed>0.01414213562373095</speed>
  <fix>3d</fix>
</trkpt>
<trkpt lat="40.0728171" lon="-105.2306217">
  <ele>1596.41</ele>
  <time>2026-08-27T18:30:33Z</time>
  <course>288.64</course>
  <speed>0.0</speed>
  <fix>3d</fix>
</trkpt>
<trkpt lat="40.0728171" lon="-105.2306214">
  <ele>1596.5</ele>
  <time>2026-08-27T18:30:33Z</time>
  <course>348.66</course>
  <speed>0.01414213562373095</speed>
  <fix>3d</fix>
</trkpt>
<trkpt lat="40.0728171" lon="-105.2306217">
  <ele>1596.41</ele>
  <time>2026-08-27T18:30:33Z</time>
  <course>291.89</course>
  <speed>0.0</speed>
  <fix>3d</fix>
</trkpt>
<trkpt lat="40.0728171" lon="-105.2306214">
  <ele>1596.51</ele>
  <time>2026-08-27T18:30:33Z</time>
  <course>348.64</course>
  <speed>0.01414213562373095</speed>
  <fix>3d</fix>
</trkpt>
<trkpt lat="40.0728171" lon="-105.2306218">
  <ele>1596.41</ele>
  <time>2026-08-27T18:30:33Z</time>
  <course>294.83</course>
  <speed>0.0</speed>
  <fix>3d</fix>
</trkpt>
<trkpt lat="40.0728171" lon="-105.2306215">
  <ele>1596.5</ele>
  <time>2026-08-27T18:30:33Z</time>
  <course>348.63</course>
  <speed>0.022360679774997897</speed>
  <fix>3d</fix>
</trkpt>
<trkpt lat="40.0728171" lon="-105.2306218">
  <ele>1596.41</ele>
  <time>2026-08-27T18:30:33Z</time>
  <course>297.21</course>
  <speed>0.0</speed>
  <fix>3d</fix>
</trkpt>
<trkpt lat="40.0728171" lon="-105.2306215">
  <ele>1596.5</ele>
  <time>2026-08-27T18:30:33Z</time>
  <course>348.61</course>
  <speed>0.022360679774997897</speed>
  <fix>3d</fix>
</trkpt>
<trkpt lat="40.0728171" lon="-105.2306218">
  <ele>1596.42</ele>
  <time>2026-08-27T18:30:33Z</time>
  <course>303.63</course>
  <speed>0.0</speed>
  <fix>3d</fix>
</trkpt>
<trkpt lat="40.0728171" lon="-105.2306215">
  <ele>1596.5</ele>
  <time>2026-08-27T18:30:33Z</time>
  <course>348.6</course>
  <speed>0.022360679774997897</speed>
  <fix>3d</fix>
</trkpt>
<trkpt lat="40.0728171" lon="-105.2306218">
  <ele>1596.42</ele>
  <time>2026-08-27T18:30:33Z</time>
  <course>24.44</course>
  <speed>0.0</speed>
  <fix>3d</fix>
</trkpt>
<trkpt lat="40.0728171" lon="-105.2306215">
  <ele>1596.5</ele>
  <time>2026-08-27T18:30:33Z</time>
  <course>348.59</course>
  <speed>0.022360679774997897</speed>
  <fix>3d</fix>
</trkpt>
<trkpt lat="40.0728171" lon="-105.2306218">
  <ele>1596.42</ele>
  <time>2026-08-27T18:30:33Z</time>
  <course>71.74</course>
  <speed>0.0</speed>
  <fix>3d</fix>
</trkpt>
<trkpt lat="40.0728171" lon="-105.2306215">
  <ele>1596.5</ele>
  <time>2026-08-27T18:30:33Z</time>
  <course>348.59</course>
  <speed>0.022360679774997897</speed>
  <fix>3d</fix>
</trkpt>
<trkpt lat="40.0728172" lon="-105.2306218">
  <ele>1596.42</ele>
  <time>2026-08-27T18:30:33Z</time>
  <course>75.81</course>
  <speed>0.0</speed>
  <fix>3d</fix>
</trkpt>
<trkpt lat="40.0728171" lon="-105.2306215">
  <ele>1596.5</ele>
  <time>2026-08-27T18:30:33Z</time>
  <course>348.59</course>
  <speed>0.022360679774997897</speed>
  <fix>3d</fix>
</trkpt>
<trkpt lat="40.0728172" lon="-105.2306218">
  <ele>1596.42</ele>
  <time>2026-08-27T18:30:33Z</time>
  <course>77.18</course>
  <speed>0.0</speed>
  <fix>3d</fix>
</trkpt>
<trkpt lat="40.0728171" lon="-105.2306215">
  <ele>1596.51</ele>
  <time>2026-08-27T18:30:33Z</time>
  <course>348.59</course>
  <speed>0.022360679774997897</speed>
  <fix>3d</fix>
</trkpt>
<trkpt lat="40.0728172" lon="-105.2306218">
  <ele>1596.42</ele>
  <time>2026-08-27T18:30:33Z</time>
  <course>79.6</course>
  <speed>0.0</speed>
  <fix>3d</fix>
</trkpt>
<trkpt lat="40.0728171" lon="-105.2306215">
  <ele>1596.51</ele>
  <time>2026-08-27T18:30:33Z</time>
  <course>348.59</course>
  <speed>0.022360679774997897</speed>
  <fix>3d</fix>
</trkpt>
<trkpt lat="40.0728172" lon="-105.2306218">
  <ele>1596.43</ele>
  <time>2026-08-27T18:30:33Z</time>
  <course>85.14</course>
  <speed>0.0</speed>
  <fix>3d</fix>
</trkpt>
<trkpt lat="40.0728171" lon="-105.2306215">
  <ele>1596.52</ele>
  <time>2026-08-27T18:30:33Z</time>
  <course>348.59</course>
  <speed>0.022360679774997897</speed>
  <fix>3d</fix>
</trkpt>
<trkpt lat="40.0728172" lon="-105.2306218">
  <ele>1596.43</ele>
  <time>2026-08-27T18:30:33Z</time>
  <course>92.14</course>
  <speed>0.01</speed>
  <fix>3d</fix>
</trkpt>
<trkpt lat="40.0728171" lon="-105.2306215">
  <ele>1596.52</ele>
  <time>2026-08-27T18:30:33Z</time>
  <course>348.59</course>
  <speed>0.022360679774997897</speed>
  <fix>3d</fix>
</trkpt>
<trkpt lat="40.0728172" lon="-105.2306217">
  <ele>1596.43</ele>
  <time>2026-08-27T18:30:33Z</time>
  <course>98.43</course>
  <speed>0.01</speed>
  <fix>3d</fix>
</trkpt>
<trkpt lat="40.0728171" lon="-105.2306215">
  <ele>1596.52</ele>
  <time>2026-08-27T18:30:33Z</time>
  <course>348.61</course>
  <speed>0.022360679774997897</speed>
  <fix>3d</fix>
</trkpt>
<trkpt lat="40.0728172" lon="-105.2306217">
  <ele>1596.43</ele>
  <time>2026-08-27T18:30:33Z</time>
  <course>103.57</course>
  <speed>0.01</speed>
  <fix>3d</fix>
</trkpt>
<trkpt lat="40.0728171" lon="-105.2306215">
  <ele>1596.53</ele>
  <time>2026-08-27T18:30:33Z</time>
  <course>348.64</course>
  <speed>0.022360679774997897</speed>
  <fix>3d</fix>
</trkpt>
<trkpt lat="40.0728172" lon="-105.2306217">
  <ele>1596.43</ele>
  <time>2026-08-27T18:30:33Z</time>
  <course>106.39</course>
  <speed>0.01</speed>
  <fix>3d</fix>
</trkpt>
<trkpt lat="40.0728171" lon="-105.2306215">
  <ele>1596.52</ele>
  <time>2026-08-27T18:30:33Z</time>
  <course>348.66</course>
  <speed>0.022360679774997897</speed>
  <fix>3d</fix>
</trkpt>
<trkpt lat="40.0728172" lon="-105.2306217">
  <ele>1596.43</ele>
  <time>2026-08-27T18:30:33Z</time>
  <course>109.07</course>
  <speed>0.01</speed>
  <fix>3d</fix>
</trkpt>
<trkpt lat="40.0728171" lon="-105.2306214">
  <ele>1596.52</ele>
  <time>2026-08-27T18:30:33Z</time>
  <course>348.67</course>
  <speed>0.022360679774997897</speed>
  <fix>3d</fix>
</trkpt>
<trkpt lat="40.0728172" lon="-105.2306216">
  <ele>1596.43</ele>
  <time>2026-08-27T18:30:33Z</time>
  <course>112.88</course>
  <speed>0.01</speed>
  <fix>3d</fix>
</trkpt>
<trkpt lat="40.0728171" lon="-105.2306214">
  <ele>1596.52</ele>
  <time>2026-08-27T18:30:33Z</time>
  <course>348.68</course>
  <speed>0.022360679774997897</speed>
  <fix>3d</fix>
</trkpt>
<trkpt lat="40.0728172" lon="-105.2306215">
  <ele>1596.42</ele>
  <time>2026-08-27T18:30:33Z</time>
  <course>116.21</course>
  <speed>0.01</speed>
  <fix>3d</fix>
</trkpt>
<trkpt lat="40.0728171" lon="-105.2306214">
  <ele>1596.52</ele>
  <time>2026-08-27T18:30:33Z</time>
  <course>348.69</course>
  <speed>0.022360679774997897</speed>
  <fix>3d</fix>
</trkpt>
<trkpt lat="40.0728172" lon="-105.2306215">
  <ele>1596.42</ele>
  <time>2026-08-27T18:30:33Z</time>
  <course>119.44</course>
  <speed>0.01</speed>
  <fix>3d</fix>
</trkpt>
<trkpt lat="40.0728171" lon="-105.2306214">
  <ele>1596.51</ele>
  <time>2026-08-27T18:30:34Z</time>
  <course>348.67</course>
  <speed>0.022360679774997897</speed>
  <fix>3d</fix>
</trkpt>
<trkpt lat="40.0728172" lon="-105.2306215">
  <ele>1596.42</ele>
  <time>2026-08-27T18:30:34Z</time>
  <course>123.39</course>
  <speed>0.01</speed>
  <fix>3d</fix>
</trkpt>
<trkpt lat="40.0728171" lon="-105.2306214">
  <ele>1596.5</ele>
  <time>2026-08-27T18:30:34Z</time>
  <course>348.65</course>
  <speed>0.022360679774997897</speed>
  <fix>3d</fix>
</trkpt>
<trkpt lat="40.0728172" lon="-105.2306215">
  <ele>1596.42</ele>
  <time>2026-08-27T18:30:34Z</time>
  <course>128.3</course>
  <speed>0.01</speed>
  <fix>3d</fix>
</trkpt>
<trkpt lat="40.0728171" lon="-105.2306213">
  <ele>1596.5</ele>
  <time>2026-08-27T18:30:34Z</time>
  <course>348.64</course>
  <speed>0.022360679774997897</speed>
  <fix>3d</fix>
</trkpt>
<trkpt lat="40.0728172" lon="-105.2306215">
  <ele>1596.42</ele>
  <time>2026-08-27T18:30:34Z</time>
  <course>133.53</course>
  <speed>0.01</speed>
  <fix>3d</fix>
</trkpt>
<trkpt lat="40.0728171" lon="-105.2306213">
  <ele>1596.5</ele>
  <time>2026-08-27T18:30:34Z</time>
  <course>348.63</course>
  <speed>0.022360679774997897</speed>
  <fix>3d</fix>
</trkpt>
<trkpt lat="40.0728172" lon="-105.2306215">
  <ele>1596.42</ele>
  <time>2026-08-27T18:30:34Z</time>
  <course>139.22</course>
  <speed>0.01</speed>
  <fix>3d</fix>
</trkpt>
<trkpt lat="40.0728171" lon="-105.2306213">
  <ele>1596.5</ele>
  <time>2026-08-27T18:30:34Z</time>
  <course>348.61</course>
  <speed>0.01414213562373095</speed>
  <fix>3d</fix>
</trkpt>
<trkpt lat="40.0728171" lon="-105.2306215">
  <ele>1596.42</ele>
  <time>2026-08-27T18:30:34Z</time>
  <course>146.24</course>
  <speed>0.01</speed>
  <fix>3d</fix>
</trkpt>
<trkpt lat="40.0728171" lon="-105.2306213">
  <ele>1596.5</ele>
  <time>2026-08-27T18:30:34Z</time>
  <course>348.58</course>
  <speed>0.01414213562373095</speed>
  <fix>3d</fix>
</trkpt>
<trkpt lat="40.0728171" lon="-105.2306215">
  <ele>1596.42</ele>
  <time>2026-08-27T18:30:34Z</time>
  <course>151.73</course>
  <speed>0.01</speed>
  <fix>3d</fix>
</trkpt>
<trkpt lat="40.0728171" lon="-105.2306213">
  <ele>1596.51</ele>
  <time>2026-08-27T18:30:34Z</time>
  <course>348.57</course>
  <speed>0.01414213562373095</speed>
  <fix>3d</fix>
</trkpt>
<trkpt lat="40.0728171" lon="-105.2306214">
  <ele>1596.42</ele>
  <time>2026-08-27T18:30:34Z</time>
  <course>156.36</course>
  <speed>0.01</speed>
  <fix>3d</fix>
</trkpt>
<trkpt lat="40.0728171" lon="-105.2306213">
  <ele>1596.51</ele>
  <time>2026-08-27T18:30:34Z</time>
  <course>348.57</course>
  <speed>0.01414213562373095</speed>
  <fix>3d</fix>
</trkpt>
<trkpt lat="40.0728171" lon="-105.2306213">
  <ele>1596.42</ele>
  <time>2026-08-27T18:30:34Z</time>
  <course>161.15</course>
  <speed>0.01</speed>
  <fix>3d</fix>
</trkpt>
<trkpt lat="40.072817" lon="-105.2306213">
  <ele>1596.51</ele>
  <time>2026-08-27T18:30:34Z</time>
  <course>348.58</course>
  <speed>0.01414213562373095</speed>
  <fix>3d</fix>
</trkpt>
<trkpt lat="40.0728171" lon="-105.2306213">
  <ele>1596.42</ele>
  <time>2026-08-27T18:30:34Z</time>
  <course>164.49</course>
  <speed>0.01</speed>
  <fix>3d</fix>
</trkpt>
<trkpt lat="40.072817" lon="-105.2306213">
  <ele>1596.51</ele>
  <time>2026-08-27T18:30:34Z</time>
  <course>348.59</course>
  <speed>0.01414213562373095</speed>
  <fix>3d</fix>
</trkpt>
<trkpt lat="40.072817" lon="-105.2306213">
  <ele>1596.43</ele>
  <time>2026-08-27T18:30:34Z</time>
  <course>167.47</course>
  <speed>0.01</speed>
  <fix>3d</fix>
</trkpt>
<trkpt lat="40.072817" lon="-105.2306213">
  <ele>1596.52</ele>
  <time>2026-08-27T18:30:34Z</time>
  <course>348.6</course>
  <speed>0.01414213562373095</speed>
  <fix>3d</fix>
</trkpt>
<trkpt lat="40.072817" lon="-105.2306213">
  <ele>1596.43</ele>
  <time>2026-08-27T18:30:34Z</time>
  <course>170.95</course>
  <speed>0.01</speed>
  <fix>3d</fix>
</trkpt>
<trkpt lat="40.072817" lon="-105.2306213">
  <ele>1596.52</ele>
  <time>2026-08-27T18:30:34Z</time>
  <course>348.6</course>
  <speed>0.01414213562373095</speed>
  <fix>3d</fix>
</trkpt>
<trkpt lat="40.072817" lon="-105.2306213">
  <ele>1596.43</ele>
  <time>2026-08-27T18:30:34Z</time>
  <course>174.61</course>
  <speed>0.01</speed>
  <fix>3d</fix>
</trkpt>
<trkpt lat="40.072817" lon="-105.2306213">
  <ele>1596.51</ele>
  <time>2026-08-27T18:30:34Z</time>
  <course>348.61</course>
  <speed>0.01</speed>
  <fix>3d</fix>
</trkpt>
<trkpt lat="40.072817" lon="-105.2306213">
  <ele>1596.43</ele>
  <time>2026-08-27T18:30:34Z</time>
  <course>178.99</course>
  <speed>0.0</speed>
  <fix>3d</fix>
</trkpt>
<trkpt lat="40.072817" lon="-105.2306213">
  <ele>1596.51</ele>
  <time>2026-08-27T18:30:34Z</time>
  <course>348.61</course>
  <speed>0.01</speed>
  <fix>3d</fix>
</trkpt>
<trkpt lat="40.072817" lon="-105.2306213">
  <ele>1596.42</ele>
  <time>2026-08-27T18:30:34Z</time>
  <course>187.19</course>
  <speed>0.0</speed>
  <fix>3d</fix>
</trkpt>
<trkpt lat="40.072817" lon="-105.2306213">
  <ele>1596.5</ele>
  <time>2026-08-27T18:30:34Z</time>
  <course>348.61</course>
  <speed>0.0</speed>
  <fix>3d</fix>
</trkpt>
<trkpt lat="40.072817" lon="-105.2306213">
  <ele>1596.42</ele>
  <time>2026-08-27T18:30:34Z</time>
  <course>203.65</course>
  <speed>0.0</speed>
  <fix>3d</fix>
</trkpt>
<trkpt lat="40.072817" lon="-105.2306213">
  <ele>1596.5</ele>
  <time>2026-08-27T18:30:34Z</time>
  <course>348.61</course>
  <speed>0.0</speed>
  <fix>3d</fix>
</trkpt>
<trkpt lat="40.072817" lon="-105.2306213">
  <ele>1596.42</ele>
  <time>2026-08-27T18:30:34Z</time>
  <course>235.08</course>
  <speed>0.0</speed>
  <fix>3d</fix>
</trkpt>
<trkpt lat="40.072817" lon="-105.2306213">
  <ele>1596.51</ele>
  <time>2026-08-27T18:30:34Z</time>
  <course>348.59</course>
  <speed>0.0</speed>
  <fix>3d</fix>
</trkpt>
<trkpt lat="40.072817" lon="-105.2306213">
  <ele>1596.42</ele>
  <time>2026-08-27T18:30:34Z</time>
  <course>268.54</course>
  <speed>0.0</speed>
  <fix>3d</fix>
</trkpt>
<trkpt lat="40.072817" lon="-105.2306213">
  <ele>1596.52</ele>
  <time>2026-08-27T18:30:34Z</time>
  <course>348.58</course>
  <speed>0.0</speed>
  <fix>3d</fix>
</trkpt>
<trkpt lat="40.072817" lon="-105.2306213">
  <ele>1596.43</ele>
  <time>2026-08-27T18:30:34Z</time>
  <course>283.57</course>
  <speed>0.0</speed>
  <fix>3d</fix>
</trkpt>
<trkpt lat="40.072817" lon="-105.2306213">
  <ele>1596.52</ele>
  <time>2026-08-27T18:30:34Z</time>
  <course>348.59</course>
  <speed>0.0</speed>
  <fix>3d</fix>
</trkpt>
<trkpt lat="40.072817" lon="-105.2306213">
  <ele>1596.43</ele>
  <time>2026-08-27T18:30:34Z</time>
  <course>283.72</course>
  <speed>0.0</speed>
  <fix>3d</fix>
</trkpt>
<trkpt lat="40.072817" lon="-105.2306213">
  <ele>1596.52</ele>
  <time>2026-08-27T18:30:34Z</time>
  <course>348.6</course>
  <speed>0.0</speed>
  <fix>3d</fix>
</trkpt>
<trkpt lat="40.072817" lon="-105.2306213">
  <ele>1596.43</ele>
  <time>2026-08-27T18:30:34Z</time>
  <course>278.79</course>
  <speed>0.0</speed>
  <fix>3d</fix>
</trkpt>
<trkpt lat="40.072817" lon="-105.2306213">
  <ele>1596.51</ele>
  <time>2026-08-27T18:30:34Z</time>
  <course>348.61</course>
  <speed>0.0</speed>
  <fix>3d</fix>
</trkpt>
<trkpt lat="40.072817" lon="-105.2306213">
  <ele>1596.43</ele>
  <time>2026-08-27T18:30:34Z</time>
  <course>272.11</course>
  <speed>0.0</speed>
  <fix>3d</fix>
</trkpt>
<trkpt lat="40.072817" lon="-105.2306213">
  <ele>1596.51</ele>
  <time>2026-08-27T18:30:34Z</time>
  <course>348.61</course>
  <speed>0.0</speed>
  <fix>3d</fix>
</trkpt>
<trkpt lat="40.072817" lon="-105.2306213">
  <ele>1596.43</ele>
  <time>2026-08-27T18:30:34Z</time>
  <course>267.73</course>
  <speed>0.0</speed>
  <fix>3d</fix>
</trkpt>
<trkpt lat="40.072817" lon="-105.2306213">
  <ele>1596.5</ele>
  <time>2026-08-27T18:30:34Z</time>
  <course>348.6</course>
  <speed>0.0</speed>
  <fix>3d</fix>
</trkpt>
<trkpt lat="40.072817" lon="-105.2306213">
  <ele>1596.43</ele>
  <time>2026-08-27T18:30:34Z</time>
  <course>271.28</course>
  <speed>0.0</speed>
  <fix>3d</fix>
</trkpt>
<trkpt lat="40.072817" lon="-105.2306213">
  <ele>1596.51</ele>
  <time>2026-08-27T18:30:34Z</time>
  <course>348.58</course>
  <speed>0.0</speed>
  <fix>3d</fix>
</trkpt>
<trkpt lat="40.072817" lon="-105.2306213">
  <ele>1596.43</ele>
  <time>2026-08-27T18:30:34Z</time>
  <course>280.51</course>
  <speed>0.0</speed>
  <fix>3d</fix>
</trkpt>
<trkpt lat="40.072817" lon="-105.2306213">
  <ele>1596.51</ele>
  <time>2026-08-27T18:30:34Z</time>
  <course>348.56</course>
  <speed>0.0</speed>
  <fix>3d</fix>
</trkpt>
<trkpt lat="40.072817" lon="-105.2306213">
  <ele>1596.43</ele>
  <time>2026-08-27T18:30:34Z</time>
  <course>285.43</course>
  <speed>0.0</speed>
  <fix>3d</fix>
</trkpt>
<trkpt lat="40.072817" lon="-105.2306213">
  <ele>1596.51</ele>
  <time>2026-08-27T18:30:34Z</time>
  <course>348.55</course>
  <speed>0.0</speed>
  <fix>3d</fix>
</trkpt>
<trkpt lat="40.072817" lon="-105.2306213">
  <ele>1596.43</ele>
  <time>2026-08-27T18:30:34Z</time>
  <course>281.51</course>
  <speed>0.0</speed>
  <fix>3d</fix>
</trkpt>
<trkpt lat="40.072817" lon="-105.2306213">
  <ele>1596.51</ele>
  <time>2026-08-27T18:30:34Z</time>
  <course>348.55</course>
  <speed>0.0</speed>
  <fix>3d</fix>
</trkpt>
<trkpt lat="40.072817" lon="-105.2306213">
  <ele>1596.43</ele>
  <time>2026-08-27T18:30:34Z</time>
  <course>275.96</course>
  <speed>0.0</speed>
  <fix>3d</fix>
</trkpt>
<trkpt lat="40.072817" lon="-105.2306213">
  <ele>1596.51</ele>
  <time>2026-08-27T18:30:34Z</time>
  <course>348.55</course>
  <speed>0.0</speed>
  <fix>3d</fix>
</trkpt>
<trkpt lat="40.072817" lon="-105.2306213">
  <ele>1596.43</ele>
  <time>2026-08-27T18:30:34Z</time>
  <course>262.73</course>
  <speed>0.0</speed>
  <fix>3d</fix>
</trkpt>
<trkpt lat="40.072817" lon="-105.2306213">
  <ele>1596.51</ele>
  <time>2026-08-27T18:30:34Z</time>
  <course>348.55</course>
  <speed>0.0</speed>
  <fix>3d</fix>
</trkpt>
<trkpt lat="40.072817" lon="-105.2306213">
  <ele>1596.43</ele>
  <time>2026-08-27T18:30:34Z</time>
  <course>242.37</course>
  <speed>0.0</speed>
  <fix>3d</fix>
</trkpt>
<trkpt lat="40.072817" lon="-105.2306213">
  <ele>1596.51</ele>
  <time>2026-08-27T18:30:34Z</time>
  <course>348.55</course>
  <speed>0.0</speed>
  <fix>3d</fix>
</trkpt>
<trkpt lat="40.072817" lon="-105.2306213">
  <ele>1596.43</ele>
  <time>2026-08-27T18:30:34Z</time>
  <course>225.63</course>
  <speed>0.0</speed>
  <fix>3d</fix>
</trkpt>
<trkpt lat="40.072817" lon="-105.2306213">
  <ele>1596.51</ele>
  <time>2026-08-27T18:30:34Z</time>
  <course>348.54</course>
  <speed>0.0</speed>
  <fix>3d</fix>
</trkpt>
<trkpt lat="40.072817" lon="-105.2306213">
  <ele>1596.43</ele>
  <time>2026-08-27T18:30:34Z</time>
  <course>206.09</course>
  <speed>0.0</speed>
  <fix>3d</fix>
</trkpt>
<trkpt lat="40.072817" lon="-105.2306213">
  <ele>1596.52</ele>
  <time>2026-08-27T18:30:34Z</time>
  <course>348.55</course>
  <speed>0.0</speed>
  <fix>3d</fix>
</trkpt>
<trkpt lat="40.072817" lon="-105.2306213">
  <ele>1596.43</ele>
  <time>2026-08-27T18:30:34Z</time>
  <course>185.47</course>
  <speed>0.0</speed>
  <fix>3d</fix>
</trkpt>
<trkpt lat="40.072817" lon="-105.2306213">
  <ele>1596.52</ele>
  <time>2026-08-27T18:30:34Z</time>
  <course>348.55</course>
  <speed>0.0</speed>
  <fix>3d</fix>
</trkpt>
<trkpt lat="40.072817" lon="-105.2306213">
  <ele>1596.43</ele>
  <time>2026-08-27T18:30:34Z</time>
  <course>169.9</course>
  <speed>0.0</speed>
  <fix>3d</fix>
</trkpt>
<trkpt lat="40.072817" lon="-105.2306213">
  <ele>1596.52</ele>
  <time>2026-08-27T18:30:34Z</time>
  <course>348.58</course>
  <speed>0.0</speed>
  <fix>3d</fix>
</trkpt>
<trkpt lat="40.072817" lon="-105.2306213">
  <ele>1596.42</ele>
  <time>2026-08-27T18:30:34Z</time>
  <course>158.71</course>
  <speed>0.0</speed>
  <fix>3d</fix>
</trkpt>
<trkpt lat="40.072817" lon="-105.2306213">
  <ele>1596.52</ele>
  <time>2026-08-27T18:30:34Z</time>
  <course>348.59</course>
  <speed>0.0</speed>
  <fix>3d</fix>
</trkpt>
<trkpt lat="40.072817" lon="-105.2306213">
  <ele>1596.42</ele>
  <time>2026-08-27T18:30:34Z</time>
  <course>150.41</course>
  <speed>0.0</speed>
  <fix>3d</fix>
</trkpt>
<trkpt lat="40.072817" lon="-105.2306213">
  <ele>1596.52</ele>
  <time>2026-08-27T18:30:34Z</time>
  <course>348.58</course>
  <speed>0.0</speed>
  <fix>3d</fix>
</trkpt>
<trkpt lat="40.072817" lon="-105.2306213">
  <ele>1596.42</ele>
  <time>2026-08-27T18:30:34Z</time>
  <course>146.02</course>
  <speed>0.0</speed>
  <fix>3d</fix>
</trkpt>
<trkpt lat="40.072817" lon="-105.2306213">
  <ele>1596.51</ele>
  <time>2026-08-27T18:30:34Z</time>
  <course>348.58</course>
  <speed>0.0</speed>
  <fix>3d</fix>
</trkpt>
<trkpt lat="40.072817" lon="-105.2306213">
  <ele>1596.42</ele>
  <time>2026-08-27T18:30:34Z</time>
  <course>145.78</course>
  <speed>0.0</speed>
  <fix>3d</fix>
</trkpt>
<trkpt lat="40.072817" lon="-105.2306213">
  <ele>1596.51</ele>
  <time>2026-08-27T18:30:34Z</time>
  <course>348.57</course>
  <speed>0.0</speed>
  <fix>3d</fix>
</trkpt>
<trkpt lat="40.072817" lon="-105.2306213">
  <ele>1596.42</ele>
  <time>2026-08-27T18:30:34Z</time>
  <course>140.99</course>
  <speed>0.0</speed>
  <fix>3d</fix>
</trkpt>
<trkpt lat="40.072817" lon="-105.2306213">
  <ele>1596.51</ele>
  <time>2026-08-27T18:30:34Z</time>
  <course>348.56</course>
  <speed>0.0</speed>
  <fix>3d</fix>
</trkpt>
<trkpt lat="40.072817" lon="-105.2306213">
  <ele>1596.42</ele>
  <time>2026-08-27T18:30:34Z</time>
  <course>133.03</course>
  <speed>0.0</speed>
  <fix>3d</fix>
</trkpt>
<trkpt lat="40.072817" lon="-105.2306213">
  <ele>1596.51</ele>
  <time>2026-08-27T18:30:34Z</time>
  <course>348.56</course>
  <speed>0.0</speed>
  <fix>3d</fix>
</trkpt>
<trkpt lat="40.072817" lon="-105.2306213">
  <ele>1596.42</ele>
  <time>2026-08-27T18:30:34Z</time>
  <course>130.93</course>
  <speed>0.0</speed>
  <fix>3d</fix>
</trkpt>
<trkpt lat="40.072817" lon="-105.2306212">
  <ele>1596.51</ele>
  <time>2026-08-27T18:30:34Z</time>
  <course>348.55</course>
  <speed>0.0</speed>
  <fix>3d</fix>
</trkpt>
<trkpt lat="40.072817" lon="-105.2306213">
  <ele>1596.42</ele>
  <time>2026-08-27T18:30:34Z</time>
  <course>131.47</course>
  <speed>0.0</speed>
  <fix>3d</fix>
</trkpt>
<trkpt lat="40.072817" lon="-105.2306212">
  <ele>1596.51</ele>
  <time>2026-08-27T18:30:34Z</time>
  <course>348.55</course>
  <speed>0.0</speed>
  <fix>3d</fix>
</trkpt>
<trkpt lat="40.072817" lon="-105.2306213">
  <ele>1596.41</ele>
  <time>2026-08-27T18:30:34Z</time>
  <course>132.39</course>
  <speed>0.0</speed>
  <fix>3d</fix>
</trkpt>
<trkpt lat="40.072817" lon="-105.2306212">
  <ele>1596.52</ele>
  <time>2026-08-27T18:30:34Z</time>
  <course>348.55</course>
  <speed>0.0</speed>
  <fix>3d</fix>
</trkpt>
<trkpt lat="40.072817" lon="-105.2306213">
  <ele>1596.41</ele>
  <time>2026-08-27T18:30:34Z</time>
  <course>134.17</course>
  <speed>0.0</speed>
  <fix>3d</fix>
</trkpt>
<trkpt lat="40.072817" lon="-105.2306212">
  <ele>1596.52</ele>
  <time>2026-08-27T18:30:34Z</time>
  <course>348.55</course>
  <speed>0.0</speed>
  <fix>3d</fix>
</trkpt>
<trkpt lat="40.0728169" lon="-105.2306213">
  <ele>1596.41</ele>
  <time>2026-08-27T18:30:34Z</time>
  <course>136.01</course>
  <speed>0.0</speed>
  <fix>3d</fix>
</trkpt>
<trkpt lat="40.072817" lon="-105.2306212">
  <ele>1596.52</ele>
  <time>2026-08-27T18:30:34Z</time>
  <course>348.56</course>
  <speed>0.0</speed>
  <fix>3d</fix>
</trkpt>
<trkpt lat="40.0728169" lon="-105.2306213">
  <ele>1596.41</ele>
  <time>2026-08-27T18:30:34Z</time>
  <course>137.42</course>
  <speed>0.0</speed>
  <fix>3d</fix>
</trkpt>
<trkpt lat="40.072817" lon="-105.2306212">
  <ele>1596.52</ele>
  <time>2026-08-27T18:30:34Z</time>
  <course>348.55</course>
  <speed>0.0</speed>
  <fix>3d</fix>
</trkpt>
<trkpt lat="40.0728169" lon="-105.2306213">
  <ele>1596.41</ele>
  <time>2026-08-27T18:30:34Z</time>
  <course>138.59</course>
  <speed>0.0</speed>
  <fix>3d</fix>
</trkpt>
<trkpt lat="40.072817" lon="-105.2306212">
  <ele>1596.51</ele>
  <time>2026-08-27T18:30:34Z</time>
  <course>348.55</course>
  <speed>0.0</speed>
  <fix>3d</fix>
</trkpt>
<trkpt lat="40.0728169" lon="-105.2306213">
  <ele>1596.41</ele>
  <time>2026-08-27T18:30:34Z</time>
  <course>135.57</course>
  <speed>0.0</speed>
  <fix>3d</fix>
</trkpt>
<trkpt lat="40.072817" lon="-105.2306212">
  <ele>1596.51</ele>
  <time>2026-08-27T18:30:34Z</time>
  <course>348.56</course>
  <speed>0.0</speed>
  <fix>3d</fix>
</trkpt>
<trkpt lat="40.0728169" lon="-105.2306213">
  <ele>1596.41</ele>
  <time>2026-08-27T18:30:34Z</time>
  <course>126.77</course>
  <speed>0.0</speed>
  <fix>3d</fix>
</trkpt>
<trkpt lat="40.072817" lon="-105.2306212">
  <ele>1596.5</ele>
  <time>2026-08-27T18:30:34Z</time>
  <course>348.55</course>
  <speed>0.0</speed>
  <fix>3d</fix>
</trkpt>
<trkpt lat="40.0728169" lon="-105.2306213">
  <ele>1596.41</ele>
  <time>2026-08-27T18:30:34Z</time>
  <course>118.92</course>
  <speed>0.0</speed>
  <fix>3d</fix>
</trkpt>
<trkpt lat="40.072817" lon="-105.2306212">
  <ele>1596.5</ele>
  <time>2026-08-27T18:30:34Z</time>
  <course>348.55</course>
  <speed>0.0</speed>
  <fix>3d</fix>
</trkpt>
<trkpt lat="40.0728169" lon="-105.2306213">
  <ele>1596.41</ele>
  <time>2026-08-27T18:30:34Z</time>
  <course>113.54</course>
  <speed>0.0</speed>
  <fix>3d</fix>
</trkpt>
<trkpt lat="40.0728169" lon="-105.2306212">
  <ele>1596.5</ele>
  <time>2026-08-27T18:30:34Z</time>
  <course>348.52</course>
  <speed>0.0</speed>
  <fix>3d</fix>
</trkpt>
<trkpt lat="40.0728169" lon="-105.2306213">
  <ele>1596.41</ele>
  <time>2026-08-27T18:30:34Z</time>
  <course>107.66</course>
  <speed>0.0</speed>
  <fix>3d</fix>
</trkpt>
<trkpt lat="40.0728169" lon="-105.2306212">
  <ele>1596.51</ele>
  <time>2026-08-27T18:30:34Z</time>
  <course>348.5</course>
  <speed>0.0</speed>
  <fix>3d</fix>
</trkpt>
<trkpt lat="40.0728169" lon="-105.2306213">
  <ele>1596.41</ele>
  <time>2026-08-27T18:30:34Z</time>
  <course>102.14</course>
  <speed>0.0</speed>
  <fix>3d</fix>
</trkpt>
<trkpt lat="40.0728169" lon="-105.2306212">
  <ele>1596.51</ele>
  <time>2026-08-27T18:30:34Z</time>
  <course>348.49</course>
  <speed>0.0</speed>
  <fix>3d</fix>
</trkpt>
<trkpt lat="40.0728169" lon="-105.2306213">
  <ele>1596.41</ele>
  <time>2026-08-27T18:30:34Z</time>
  <course>96.96</course>
  <speed>0.0</speed>
  <fix>3d</fix>
</trkpt>
<trkpt lat="40.0728169" lon="-105.2306212">
  <ele>1596.51</ele>
  <time>2026-08-27T18:30:34Z</time>
  <course>348.48</course>
  <speed>0.0</speed>
  <fix>3d</fix>
</trkpt>
<trkpt lat="40.0728169" lon="-105.2306213">
  <ele>1596.41</ele>
  <time>2026-08-27T18:30:34Z</time>
  <course>91.91</course>
  <speed>0.0</speed>
  <fix>3d</fix>
</trkpt>
<trkpt lat="40.0728169" lon="-105.2306212">
  <ele>1596.51</ele>
  <time>2026-08-27T18:30:34Z</time>
  <course>348.47</course>
  <speed>0.0</speed>
  <fix>3d</fix>
</trkpt>
<trkpt lat="40.0728169" lon="-105.2306213">
  <ele>1596.41</ele>
  <time>2026-08-27T18:30:34Z</time>
  <course>87.5</course>
  <speed>0.0</speed>
  <fix>3d</fix>
</trkpt>
<trkpt lat="40.0728169" lon="-105.2306212">
  <ele>1596.52</ele>
  <time>2026-08-27T18:30:34Z</time>
  <course>348.47</course>
  <speed>0.0</speed>
  <fix>3d</fix>
</trkpt>
<trkpt lat="40.0728169" lon="-105.2306213">
  <ele>1596.41</ele>
  <time>2026-08-27T18:30:34Z</time>
  <course>83.49</course>
  <speed>0.0</speed>
  <fix>3d</fix>
</trkpt>
<trkpt lat="40.0728169" lon="-105.2306212">
  <ele>1596.52</ele>
  <time>2026-08-27T18:30:34Z</time>
  <course>348.48</course>
  <speed>0.0</speed>
  <fix>3d</fix>
</trkpt>
<trkpt lat="40.0728169" lon="-105.2306213">
  <ele>1596.41</ele>
  <time>2026-08-27T18:30:34Z</time>
  <course>80.54</course>
  <speed>0.0</speed>
  <fix>3d</fix>
</trkpt>
<trkpt lat="40.0728169" lon="-105.2306212">
  <ele>1596.52</ele>
  <time>2026-08-27T18:30:34Z</time>
  <course>348.5</course>
  <speed>0.0</speed>
  <fix>3d</fix>
</trkpt>
<trkpt lat="40.0728169" lon="-105.2306212">
  <ele>1596.41</ele>
  <time>2026-08-27T18:30:34Z</time>
  <course>81.39</course>
  <speed>0.0</speed>
  <fix>3d</fix>
</trkpt>
<trkpt lat="40.0728169" lon="-105.2306212">
  <ele>1596.52</ele>
  <time>2026-08-27T18:30:34Z</time>
  <course>348.52</course>
  <speed>0.0</speed>
  <fix>3d</fix>
</trkpt>
<trkpt lat="40.0728169" lon="-105.2306212">
  <ele>1596.41</ele>
  <time>2026-08-27T18:30:34Z</time>
  <course>85.29</course>
  <speed>0.0</speed>
  <fix>3d</fix>
</trkpt>
<trkpt lat="40.0728169" lon="-105.2306212">
  <ele>1596.52</ele>
  <time>2026-08-27T18:30:34Z</time>
  <course>348.54</course>
  <speed>0.0</speed>
  <fix>3d</fix>
</trkpt>
<trkpt lat="40.0728169" lon="-105.2306212">
  <ele>1596.41</ele>
  <time>2026-08-27T18:30:34Z</time>
  <course>88.14</course>
  <speed>0.0</speed>
  <fix>3d</fix>
</trkpt>
<trkpt lat="40.0728169" lon="-105.2306212">
  <ele>1596.52</ele>
  <time>2026-08-27T18:30:34Z</time>
  <course>348.55</course>
  <speed>0.0</speed>
  <fix>3d</fix>
</trkpt>
<trkpt lat="40.0728169" lon="-105.2306212">
  <ele>1596.4</ele>
  <time>2026-08-27T18:30:34Z</time>
  <course>89.81</course>
  <speed>0.0</speed>
  <fix>3d</fix>
</trkpt>
<trkpt lat="40.0728169" lon="-105.2306212">
  <ele>1596.52</ele>
  <time>2026-08-27T18:30:34Z</time>
  <course>348.56</course>
  <speed>0.0</speed>
  <fix>3d</fix>
</trkpt>
<trkpt lat="40.0728169" lon="-105.2306212">
  <ele>1596.4</ele>
  <time>2026-08-27T18:30:34Z</time>
  <course>91.58</course>
  <speed>0.0</speed>
  <fix>3d</fix>
</trkpt>
<trkpt lat="40.0728169" lon="-105.2306212">
  <ele>1596.51</ele>
  <time>2026-08-27T18:30:34Z</time>
  <course>348.56</course>
  <speed>0.0</speed>
  <fix>3d</fix>
</trkpt>
<trkpt lat="40.0728169" lon="-105.2306211">
  <ele>1596.4</ele>
  <time>2026-08-27T18:30:34Z</time>
  <course>93.41</course>
  <speed>0.0</speed>
  <fix>3d</fix>
</trkpt>
<trkpt lat="40.0728169" lon="-105.2306212">
  <ele>1596.51</ele>
  <time>2026-08-27T18:30:34Z</time>
  <course>348.55</course>
  <speed>0.0</speed>
  <fix>3d</fix>
</trkpt>
<trkpt lat="40.0728169" lon="-105.230621">
  <ele>1596.4</ele>
  <time>2026-08-27T18:30:34Z</time>
  <course>94.6</course>
  <speed>0.0</speed>
  <fix>3d</fix>
</trkpt>
<trkpt lat="40.0728169" lon="-105.2306211">
  <ele>1596.51</ele>
  <time>2026-08-27T18:30:34Z</time>
  <course>348.53</course>
  <speed>0.0</speed>
  <fix>3d</fix>
</trkpt>
<trkpt lat="40.0728169" lon="-105.230621">
  <ele>1596.39</ele>
  <time>2026-08-27T18:30:34Z</time>
  <course>95.42</course>
  <speed>0.0</speed>
  <fix>3d</fix>
</trkpt>
<trkpt lat="40.0728169" lon="-105.2306211">
  <ele>1596.5</ele>
  <time>2026-08-27T18:30:34Z</time>
  <course>348.52</course>
  <speed>0.0</speed>
  <fix>3d</fix>
</trkpt>
<trkpt lat="40.0728169" lon="-105.230621">
  <ele>1596.39</ele>
  <time>2026-08-27T18:30:34Z</time>
  <course>96.63</course>
  <speed>0.0</speed>
  <fix>3d</fix>
</trkpt>
<trkpt lat="40.0728169" lon="-105.2306211">
  <ele>1596.49</ele>
  <time>2026-08-27T18:30:34Z</time>
  <course>348.5</course>
  <speed>0.0</speed>
  <fix>3d</fix>
</trkpt>
<trkpt lat="40.0728169" lon="-105.230621">
  <ele>1596.39</ele>
  <time>2026-08-27T18:30:34Z</time>
  <course>98.66</course>
  <speed>0.0</speed>
  <fix>3d</fix>
</trkpt>
<trkpt lat="40.0728169" lon="-105.2306211">
  <ele>1596.5</ele>
  <time>2026-08-27T18:30:34Z</time>
  <course>348.48</course>
  <speed>0.0</speed>
  <fix>3d</fix>
</trkpt>
<trkpt lat="40.0728169" lon="-105.230621">
  <ele>1596.39</ele>
  <time>2026-08-27T18:30:34Z</time>
  <course>103.96</course>
  <speed>0.0</speed>
  <fix>3d</fix>
</trkpt>
<trkpt lat="40.0728169" lon="-105.2306211">
  <ele>1596.5</ele>
  <time>2026-08-27T18:30:34Z</time>
  <course>348.45</course>
  <speed>0.0</speed>
  <fix>3d</fix>
</trkpt>
<trkpt lat="40.0728169" lon="-105.230621">
  <ele>1596.39</ele>
  <time>2026-08-27T18:30:34Z</time>
  <course>116.64</course>
  <speed>0.0</speed>
  <fix>3d</fix>
</trkpt>
<trkpt lat="40.0728169" lon="-105.2306211">
  <ele>1596.5</ele>
  <time>2026-08-27T18:30:34Z</time>
  <course>348.44</course>
  <speed>0.0</speed>
  <fix>3d</fix>
</trkpt>
<trkpt lat="40.0728169" lon="-105.230621">
  <ele>1596.39</ele>
  <time>2026-08-27T18:30:34Z</time>
  <course>142.29</course>
  <speed>0.0</speed>
  <fix>3d</fix>
</trkpt>
<trkpt lat="40.0728169" lon="-105.2306211">
  <ele>1596.5</ele>
  <time>2026-08-27T18:30:34Z</time>
  <course>348.45</course>
  <speed>0.0</speed>
  <fix>3d</fix>
</trkpt>
<trkpt lat="40.0728169" lon="-105.230621">
  <ele>1596.4</ele>
  <time>2026-08-27T18:30:34Z</time>
  <course>174.16</course>
  <speed>0.0</speed>
  <fix>3d</fix>
</trkpt>
<trkpt lat="40.0728169" lon="-105.2306211">
  <ele>1596.5</ele>
  <time>2026-08-27T18:30:34Z</time>
  <course>348.45</course>
  <speed>0.0</speed>
  <fix>3d</fix>
</trkpt>
<trkpt lat="40.0728169" lon="-105.230621">
  <ele>1596.4</ele>
  <time>2026-08-27T18:30:34Z</time>
  <course>194.03</course>
  <speed>0.0</speed>
  <fix>3d</fix>
</trkpt>
<trkpt lat="40.0728169" lon="-105.2306211">
  <ele>1596.5</ele>
  <time>2026-08-27T18:30:34Z</time>
  <course>348.44</course>
  <speed>0.0</speed>
  <fix>3d</fix>
</trkpt>
<trkpt lat="40.0728169" lon="-105.230621">
  <ele>1596.4</ele>
  <time>2026-08-27T18:30:34Z</time>
  <course>205.08</course>
  <speed>0.0</speed>
  <fix>3d</fix>
</trkpt>
<trkpt lat="40.0728169" lon="-105.2306211">
  <ele>1596.5</ele>
  <time>2026-08-27T18:30:34Z</time>
  <course>348.45</course>
  <speed>0.0</speed>
  <fix>3d</fix>
</trkpt>
<trkpt lat="40.0728169" lon="-105.230621">
  <ele>1596.4</ele>
  <time>2026-08-27T18:30:34Z</time>
  <course>211.6</course>
  <speed>0.0</speed>
  <fix>3d</fix>
</trkpt>
<trkpt lat="40.0728169" lon="-105.2306211">
  <ele>1596.5</ele>
  <time>2026-08-27T18:30:34Z</time>
  <course>348.44</course>
  <speed>0.0</speed>
  <fix>3d</fix>
</trkpt>
<trkpt lat="40.0728169" lon="-105.230621">
  <ele>1596.41</ele>
  <time>2026-08-27T18:30:34Z</time>
  <course>217.6</course>
  <speed>0.0</speed>
  <fix>3d</fix>
</trkpt>
<trkpt lat="40.0728169" lon="-105.2306211">
  <ele>1596.51</ele>
  <time>2026-08-27T18:30:34Z</time>
  <course>348.45</course>
  <speed>0.0</speed>
  <fix>3d</fix>
</trkpt>
<trkpt lat="40.0728169" lon="-105.230621">
  <ele>1596.41</ele>
  <time>2026-08-27T18:30:34Z</time>
  <course>221.57</course>
  <speed>0.0</speed>
  <fix>3d</fix>
</trkpt>
<trkpt lat="40.0728169" lon="-105.2306211">
  <ele>1596.51</ele>
  <time>2026-08-27T18:30:34Z</time>
  <course>348.45</course>
  <speed>0.0</speed>
  <fix>3d</fix>
</trkpt>
<trkpt lat="40.0728168" lon="-105.230621">
  <ele>1596.41</ele>
  <time>2026-08-27T18:30:34Z</time>
  <course>223.0</course>
  <speed>0.0</speed>
  <fix>3d</fix>
</trkpt>
<trkpt lat="40.0728169" lon="-105.2306211">
  <ele>1596.51</ele>
  <time>2026-08-27T18:30:34Z</time>
  <course>348.46</course>
  <speed>0.0</speed>
  <fix>3d</fix>
</trkpt>
<trkpt lat="40.0728168" lon="-105.230621">
  <ele>1596.41</ele>
  <time>2026-08-27T18:30:34Z</time>
  <course>223.72</course>
  <speed>0.0</speed>
  <fix>3d</fix>
</trkpt>
<trkpt lat="40.0728169" lon="-105.2306211">
  <ele>1596.51</ele>
  <time>2026-08-27T18:30:34Z</time>
  <course>348.47</course>
  <speed>0.0</speed>
  <fix>3d</fix>
</trkpt>
<trkpt lat="40.0728168" lon="-105.230621">
  <ele>1596.41</ele>
  <time>2026-08-27T18:30:34Z</time>
  <course>224.35</course>
  <speed>0.0</speed>
  <fix>3d</fix>
</trkpt>
<trkpt lat="40.0728169" lon="-105.2306211">
  <ele>1596.51</ele>
  <time>2026-08-27T18:30:34Z</time>
  <course>348.47</course>
  <speed>0.0</speed>
  <fix>3d</fix>
</trkpt>
<trkpt lat="40.0728168" lon="-105.230621">
  <ele>1596.41</ele>
  <time>2026-08-27T18:30:34Z</time>
  <course>224.06</course>
  <speed>0.0</speed>
  <fix>3d</fix>
</trkpt>
<trkpt lat="40.0728169" lon="-105.2306211">
  <ele>1596.51</ele>
  <time>2026-08-27T18:30:34Z</time>
  <course>348.47</course>
  <speed>0.0</speed>
  <fix>3d</fix>
</trkpt>
<trkpt lat="40.0728168" lon="-105.230621">
  <ele>1596.41</ele>
  <time>2026-08-27T18:30:34Z</time>
  <course>222.07</course>
  <speed>0.0</speed>
  <fix>3d</fix>
</trkpt>
<trkpt lat="40.0728169" lon="-105.2306211">
  <ele>1596.51</ele>
  <time>2026-08-27T18:30:34Z</time>
  <course>348.48</course>
  <speed>0.0</speed>
  <fix>3d</fix>
</trkpt>
<trkpt lat="40.0728168" lon="-105.230621">
  <ele>1596.41</ele>
  <time>2026-08-27T18:30:34Z</time>
  <course>219.23</course>
  <speed>0.0</speed>
  <fix>3d</fix>
</trkpt>
<trkpt lat="40.0728169" lon="-105.2306211">
  <ele>1596.51</ele>
  <time>2026-08-27T18:30:34Z</time>
  <course>348.48</course>
  <speed>0.0</speed>
  <fix>3d</fix>
</trkpt>
<trkpt lat="40.0728168" lon="-105.230621">
  <ele>1596.41</ele>
  <time>2026-08-27T18:30:34Z</time>
  <course>222.88</course>
  <speed>0.0</speed>
  <fix>3d</fix>
</trkpt>
<trkpt lat="40.0728169" lon="-105.2306211">
  <ele>1596.51</ele>
  <time>2026-08-27T18:30:34Z</time>
  <course>348.48</course>
  <speed>0.0</speed>
  <fix>3d</fix>
</trkpt>
<trkpt lat="40.0728168" lon="-105.230621">
  <ele>1596.41</ele>
  <time>2026-08-27T18:30:34Z</time>
  <course>240.04</course>
  <speed>0.0</speed>
  <fix>3d</fix>
</trkpt>
<trkpt lat="40.0728169" lon="-105.2306211">
  <ele>1596.52</ele>
  <time>2026-08-27T18:30:34Z</time>
  <course>348.48</course>
  <speed>0.0</speed>
  <fix>3d</fix>
</trkpt>
<trkpt lat="40.0728168" lon="-105.230621">
  <ele>1596.41</ele>
  <time>2026-08-27T18:30:34Z</time>
  <course>288.31</course>
  <speed>0.0</speed>
  <fix>3d</fix>
</trkpt>
<trkpt lat="40.0728169" lon="-105.2306211">
  <ele>1596.52</ele>
  <time>2026-08-27T18:30:34Z</time>
  <course>348.49</course>
  <speed>0.0</speed>
  <fix>3d</fix>
</trkpt>
<trkpt lat="40.0728168" lon="-105.230621">
  <ele>1596.41</ele>
  <time>2026-08-27T18:30:34Z</time>
  <course>327.47</course>
  <speed>0.0</speed>
  <fix>3d</fix>
</trkpt>
<trkpt lat="40.0728169" lon="-105.2306211">
  <ele>1596.52</ele>
  <time>2026-08-27T18:30:34Z</time>
  <course>348.49</course>
  <speed>0.0</speed>
  <fix>3d</fix>
</trkpt>
<trkpt lat="40.0728168" lon="-105.230621">
  <ele>1596.41</ele>
  <time>2026-08-27T18:30:34Z</time>
  <course>333.6</course>
  <speed>0.0</speed>
  <fix>3d</fix>
</trkpt>
<trkpt lat="40.0728169" lon="-105.2306211">
  <ele>1596.51</ele>
  <time>2026-08-27T18:30:34Z</time>
  <course>348.5</course>
  <speed>0.0</speed>
  <fix>3d</fix>
</trkpt>
<trkpt lat="40.0728168" lon="-105.230621">
  <ele>1596.41</ele>
  <time>2026-08-27T18:30:34Z</time>
  <course>336.83</course>
  <speed>0.0</speed>
  <fix>3d</fix>
</trkpt>
<trkpt lat="40.0728169" lon="-105.2306211">
  <ele>1596.51</ele>
  <time>2026-08-27T18:30:34Z</time>
  <course>348.5</course>
  <speed>0.0</speed>
  <fix>3d</fix>
</trkpt>
<trkpt lat="40.0728168" lon="-105.230621">
  <ele>1596.41</ele>
  <time>2026-08-27T18:30:34Z</time>
  <course>340.6</course>
  <speed>0.0</speed>
  <fix>3d</fix>
</trkpt>
<trkpt lat="40.0728169" lon="-105.2306211">
  <ele>1596.51</ele>
  <time>2026-08-27T18:30:34Z</time>
  <course>348.5</course>
  <speed>0.0</speed>
  <fix>3d</fix>
</trkpt>
<trkpt lat="40.0728168" lon="-105.230621">
  <ele>1596.41</ele>
  <time>2026-08-27T18:30:34Z</time>
  <course>341.52</course>
  <speed>0.0</speed>
  <fix>3d</fix>
</trkpt>
<trkpt lat="40.0728169" lon="-105.2306211">
  <ele>1596.51</ele>
  <time>2026-08-27T18:30:34Z</time>
  <course>348.5</course>
  <speed>0.0</speed>
  <fix>3d</fix>
</trkpt>
<trkpt lat="40.0728168" lon="-105.230621">
  <ele>1596.41</ele>
  <time>2026-08-27T18:30:34Z</time>
  <course>344.83</course>
  <speed>0.0</speed>
  <fix>3d</fix>
</trkpt>
<trkpt lat="40.0728169" lon="-105.2306211">
  <ele>1596.51</ele>
  <time>2026-08-27T18:30:34Z</time>
  <course>348.49</course>
  <speed>0.0</speed>
  <fix>3d</fix>
</trkpt>
<trkpt lat="40.0728168" lon="-105.230621">
  <ele>1596.41</ele>
  <time>2026-08-27T18:30:34Z</time>
  <course>349.62</course>
  <speed>0.0</speed>
  <fix>3d</fix>
</trkpt>
<trkpt lat="40.0728169" lon="-105.2306211">
  <ele>1596.51</ele>
  <time>2026-08-27T18:30:34Z</time>
  <course>348.5</course>
  <speed>0.0</speed>
  <fix>3d</fix>
</trkpt>
<trkpt lat="40.0728168" lon="-105.230621">
  <ele>1596.41</ele>
  <time>2026-08-27T18:30:34Z</time>
  <course>349.69</course>
  <speed>0.0</speed>
  <fix>3d</fix>
</trkpt>
<trkpt lat="40.0728169" lon="-105.2306211">
  <ele>1596.51</ele>
  <time>2026-08-27T18:30:34Z</time>
  <course>348.5</course>
  <speed>0.0</speed>
  <fix>3d</fix>
</trkpt>
<trkpt lat="40.0728168" lon="-105.230621">
  <ele>1596.4</ele>
  <time>2026-08-27T18:30:34Z</time>
  <course>349.89</course>
  <speed>0.0</speed>
  <fix>3d</fix>
</trkpt>
<trkpt lat="40.0728169" lon="-105.2306211">
  <ele>1596.51</ele>
  <time>2026-08-27T18:30:34Z</time>
  <course>348.49</course>
  <speed>0.0</speed>
  <fix>3d</fix>
</trkpt>
<trkpt lat="40.0728168" lon="-105.230621">
  <ele>1596.4</ele>
  <time>2026-08-27T18:30:34Z</time>
  <course>352.93</course>
  <speed>0.0</speed>
  <fix>3d</fix>
</trkpt>
<trkpt lat="40.0728169" lon="-105.2306211">
  <ele>1596.51</ele>
  <time>2026-08-27T18:30:34Z</time>
  <course>348.47</course>
  <speed>0.0</speed>
  <fix>3d</fix>
</trkpt>
<trkpt lat="40.0728168" lon="-105.230621">
  <ele>1596.4</ele>
  <time>2026-08-27T18:30:34Z</time>
  <course>355.68</course>
  <speed>0.0</speed>
  <fix>3d</fix>
</trkpt>
<trkpt lat="40.0728169" lon="-105.2306211">
  <ele>1596.5</ele>
  <time>2026-08-27T18:30:34Z</time>
  <course>348.45</course>
  <speed>0.0</speed>
  <fix>3d</fix>
</trkpt>
<trkpt lat="40.0728168" lon="-105.230621">
  <ele>1596.4</ele>
  <time>2026-08-27T18:30:34Z</time>
  <course>356.36</course>
  <speed>0.0</speed>
  <fix>3d</fix>
</trkpt>
<trkpt lat="40.0728169" lon="-105.2306211">
  <ele>1596.5</ele>
  <time>2026-08-27T18:30:34Z</time>
  <course>348.44</course>
  <speed>0.0</speed>
  <fix>3d</fix>
</trkpt>
<trkpt lat="40.0728168" lon="-105.230621">
  <ele>1596.4</ele>
  <time>2026-08-27T18:30:34Z</time>
  <course>352.37</course>
  <speed>0.0</speed>
  <fix>3d</fix>
</trkpt>
<trkpt lat="40.0728169" lon="-105.2306211">
  <ele>1596.5</ele>
  <time>2026-08-27T18:30:34Z</time>
  <course>348.43</course>
  <speed>0.0</speed>
  <fix>3d</fix>
</trkpt>
<trkpt lat="40.0728168" lon="-105.230621">
  <ele>1596.4</ele>
  <time>2026-08-27T18:30:34Z</time>
  <course>347.7</course>
  <speed>0.0</speed>
  <fix>3d</fix>
</trkpt>
<trkpt lat="40.0728169" lon="-105.2306211">
  <ele>1596.5</ele>
  <time>2026-08-27T18:30:34Z</time>
  <course>348.42</course>
  <speed>0.0</speed>
  <fix>3d</fix>
</trkpt>
<trkpt lat="40.0728168" lon="-105.230621">
  <ele>1596.4</ele>
  <time>2026-08-27T18:30:34Z</time>
  <course>346.05</course>
  <speed>0.0</speed>
  <fix>3d</fix>
</trkpt>
<trkpt lat="40.0728169" lon="-105.2306211">
  <ele>1596.5</ele>
  <time>2026-08-27T18:30:34Z</time>
  <course>348.41</course>
  <speed>0.0</speed>
  <fix>3d</fix>
</trkpt>
<trkpt lat="40.0728168" lon="-105.230621">
  <ele>1596.41</ele>
  <time>2026-08-27T18:30:34Z</time>
  <course>345.65</course>
  <speed>0.0</speed>
  <fix>3d</fix>
</trkpt>
<trkpt lat="40.0728169" lon="-105.2306211">
  <ele>1596.51</ele>
  <time>2026-08-27T18:30:34Z</time>
  <course>348.4</course>
  <speed>0.0</speed>
  <fix>3d</fix>
</trkpt>
<trkpt lat="40.0728168" lon="-105.230621">
  <ele>1596.41</ele>
  <time>2026-08-27T18:30:34Z</time>
  <course>348.35</course>
  <speed>0.0</speed>
  <fix>3d</fix>
</trkpt>
<trkpt lat="40.0728169" lon="-105.2306211">
  <ele>1596.51</ele>
  <time>2026-08-27T18:30:34Z</time>
  <course>348.4</course>
  <speed>0.0</speed>
  <fix>3d</fix>
</trkpt>
<trkpt lat="40.0728168" lon="-105.230621">
  <ele>1596.41</ele>
  <time>2026-08-27T18:30:34Z</time>
  <course>4.37</course>
  <speed>0.0</speed>
  <fix>3d</fix>
</trkpt>
<trkpt lat="40.0728169" lon="-105.2306211">
  <ele>1596.51</ele>
  <time>2026-08-27T18:30:34Z</time>
  <course>348.4</course>
  <speed>0.0</speed>
  <fix>3d</fix>
</trkpt>
<trkpt lat="40.0728168" lon="-105.230621">
  <ele>1596.41</ele>
  <time>2026-08-27T18:30:34Z</time>
  <course>28.01</course>
  <speed>0.0</speed>
  <fix>3d</fix>
</trkpt>
<trkpt lat="40.0728169" lon="-105.2306211">
  <ele>1596.51</ele>
  <time>2026-08-27T18:30:34Z</time>
  <course>348.4</course>
  <speed>0.0</speed>
  <fix>3d</fix>
</trkpt>
<trkpt lat="40.0728168" lon="-105.230621">
  <ele>1596.41</ele>
  <time>2026-08-27T18:30:34Z</time>
  <course>42.84</course>
  <speed>0.0</speed>
  <fix>3d</fix>
</trkpt>
<trkpt lat="40.0728169" lon="-105.2306211">
  <ele>1596.51</ele>
  <time>2026-08-27T18:30:34Z</time>
  <course>348.41</course>
  <speed>0.0</speed>
  <fix>3d</fix>
</trkpt>
<trkpt lat="40.0728168" lon="-105.230621">
  <ele>1596.41</ele>
  <time>2026-08-27T18:30:34Z</time>
  <course>50.62</course>
  <speed>0.0</speed>
  <fix>3d</fix>
</trkpt>
<trkpt lat="40.0728169" lon="-105.2306211">
  <ele>1596.51</ele>
  <time>2026-08-27T18:30:34Z</time>
  <course>348.41</course>
  <speed>0.0</speed>
  <fix>3d</fix>
</trkpt>
<trkpt lat="40.0728168" lon="-105.230621">
  <ele>1596.41</ele>
  <time>2026-08-27T18:30:34Z</time>
  <course>54.96</course>
  <speed>0.0</speed>
  <fix>3d</fix>
</trkpt>
<trkpt lat="40.0728169" lon="-105.2306211">
  <ele>1596.51</ele>
  <time>2026-08-27T18:30:34Z</time>
  <course>348.41</course>
  <speed>0.0</speed>
  <fix>3d</fix>
</trkpt>
<trkpt lat="40.0728169" lon="-105.230621">
  <ele>1596.41</ele>
  <time>2026-08-27T18:30:34Z</time>
  <course>57.62</course>
  <speed>0.0</speed>
  <fix>3d</fix>
</trkpt>
<trkpt lat="40.0728169" lon="-105.2306211">
  <ele>1596.51</ele>
  <time>2026-08-27T18:30:34Z</time>
  <course>348.41</course>
  <speed>0.0</speed>
  <fix>3d</fix>
</trkpt>
<trkpt lat="40.0728169" lon="-105.230621">
  <ele>1596.42</ele>
  <time>2026-08-27T18:30:34Z</time>
  <course>59.26</course>
  <speed>0.0</speed>
  <fix>3d</fix>
</trkpt>
<trkpt lat="40.0728169" lon="-105.2306211">
  <ele>1596.51</ele>
  <time>2026-08-27T18:30:34Z</time>
  <course>348.41</course>
  <speed>0.0</speed>
  <fix>3d</fix>
</trkpt>
<trkpt lat="40.0728169" lon="-105.230621">
  <ele>1596.42</ele>
  <time>2026-08-27T18:30:34Z</time>
  <course>60.23</course>
  <speed>0.0</speed>
  <fix>3d</fix>
</trkpt>
<trkpt lat="40.0728169" lon="-105.2306211">
  <ele>1596.51</ele>
  <time>2026-08-27T18:30:34Z</time>
  <course>348.41</course>
  <speed>0.0</speed>
  <fix>3d</fix>
</trkpt>
<trkpt lat="40.0728169" lon="-105.230621">
  <ele>1596.42</ele>
  <time>2026-08-27T18:30:34Z</time>
  <course>62.92</course>
  <speed>0.0</speed>
  <fix>3d</fix>
</trkpt>
<trkpt lat="40.0728169" lon="-105.2306211">
  <ele>1596.51</ele>
  <time>2026-08-27T18:30:34Z</time>
  <course>348.41</course>
  <speed>0.0</speed>
  <fix>3d</fix>
</trkpt>
<trkpt lat="40.0728169" lon="-105.230621">
  <ele>1596.42</ele>
  <time>2026-08-27T18:30:34Z</time>
  <course>72.44</course>
  <speed>0.0</speed>
  <fix>3d</fix>
</trkpt>
<trkpt lat="40.0728169" lon="-105.2306211">
  <ele>1596.51</ele>
  <time>2026-08-27T18:30:35Z</time>
  <course>348.41</course>
  <speed>0.0</speed>
  <fix>3d</fix>
</trkpt>
<trkpt lat="40.0728169" lon="-105.230621">
  <ele>1596.42</ele>
  <time>2026-08-27T18:30:35Z</time>
  <course>92.68</course>
  <speed>0.0</speed>
  <fix>3d</fix>
</trkpt>
<trkpt lat="40.0728169" lon="-105.2306211">
  <ele>1596.51</ele>
  <time>2026-08-27T18:30:35Z</time>
  <course>348.42</course>
  <speed>0.0</speed>
  <fix>3d</fix>
</trkpt>
<trkpt lat="40.0728169" lon="-105.230621">
  <ele>1596.42</ele>
  <time>2026-08-27T18:30:35Z</time>
  <course>119.42</course>
  <speed>0.0</speed>
  <fix>3d</fix>
</trkpt>
<trkpt lat="40.0728169" lon="-105.2306211">
  <ele>1596.51</ele>
  <time>2026-08-27T18:30:35Z</time>
  <course>348.42</course>
  <speed>0.0</speed>
  <fix>3d</fix>
</trkpt>
<trkpt lat="40.0728169" lon="-105.230621">
  <ele>1596.42</ele>
  <time>2026-08-27T18:30:35Z</time>
  <course>140.8</course>
  <speed>0.0</speed>
  <fix>3d</fix>
</trkpt>
<trkpt lat="40.0728169" lon="-105.2306211">
  <ele>1596.51</ele>
  <time>2026-08-27T18:30:35Z</time>
  <course>348.42</course>
  <speed>0.0</speed>
  <fix>3d</fix>
</trkpt>
<trkpt lat="40.0728169" lon="-105.230621">
  <ele>1596.42</ele>
  <time>2026-08-27T18:30:35Z</time>
  <course>150.23</course>
  <speed>0.0</speed>
  <fix>3d</fix>
</trkpt>
<trkpt lat="40.0728169" lon="-105.2306211">
  <ele>1596.51</ele>
  <time>2026-08-27T18:30:35Z</time>
  <course>348.42</course>
  <speed>0.0</speed>
  <fix>3d</fix>
</trkpt>
<trkpt lat="40.0728169" lon="-105.230621">
  <ele>1596.42</ele>
  <time>2026-08-27T18:30:35Z</time>
  <course>152.43</course>
  <speed>0.0</speed>
  <fix>3d</fix>
</trkpt>
<trkpt lat="40.0728169" lon="-105.2306211">
  <ele>1596.51</ele>
  <time>2026-08-27T18:30:35Z</time>
  <course>348.42</course>
  <speed>0.0</speed>
  <fix>3d</fix>
</trkpt>
<trkpt lat="40.0728169" lon="-105.230621">
  <ele>1596.42</ele>
  <time>2026-08-27T18:30:35Z</time>
  <course>152.57</course>
  <speed>0.0</speed>
  <fix>3d</fix>
</trkpt>
<trkpt lat="40.0728169" lon="-105.2306211">
  <ele>1596.51</ele>
  <time>2026-08-27T18:30:35Z</time>
  <course>348.42</course>
  <speed>0.0</speed>
  <fix>3d</fix>
</trkpt>
<trkpt lat="40.0728169" lon="-105.230621">
  <ele>1596.42</ele>
  <time>2026-08-27T18:30:35Z</time>
  <course>152.88</course>
  <speed>0.0</speed>
  <fix>3d</fix>
</trkpt>
<trkpt lat="40.0728169" lon="-105.2306211">
  <ele>1596.51</ele>
  <time>2026-08-27T18:30:35Z</time>
  <course>348.42</course>
  <speed>0.0</speed>
  <fix>3d</fix>
</trkpt>
<trkpt lat="40.0728169" lon="-105.230621">
  <ele>1596.42</ele>
  <time>2026-08-27T18:30:35Z</time>
  <course>153.17</course>
  <speed>0.0</speed>
  <fix>3d</fix>
</trkpt>
<trkpt lat="40.0728169" lon="-105.2306211">
  <ele>1596.51</ele>
  <time>2026-08-27T18:30:35Z</time>
  <course>348.41</course>
  <speed>0.0</speed>
  <fix>3d</fix>
</trkpt>
<trkpt lat="40.0728169" lon="-105.230621">
  <ele>1596.42</ele>
  <time>2026-08-27T18:30:35Z</time>
  <course>153.09</course>
  <speed>0.0</speed>
  <fix>3d</fix>
</trkpt>
<trkpt lat="40.0728169" lon="-105.2306211">
  <ele>1596.5</ele>
  <time>2026-08-27T18:30:35Z</time>
  <course>348.41</course>
  <speed>0.0</speed>
  <fix>3d</fix>
</trkpt>
<trkpt lat="40.0728169" lon="-105.230621">
  <ele>1596.42</ele>
  <time>2026-08-27T18:30:35Z</time>
  <course>152.27</course>
  <speed>0.01</speed>
  <fix>3d</fix>
</trkpt>
<trkpt lat="40.0728169" lon="-105.2306211">
  <ele>1596.5</ele>
  <time>2026-08-27T18:30:35Z</time>
  <course>348.39</course>
  <speed>0.0</speed>
  <fix>3d</fix>
</trkpt>
<trkpt lat="40.0728169" lon="-105.230621">
  <ele>1596.42</ele>
  <time>2026-08-27T18:30:35Z</time>
  <course>150.53</course>
  <speed>0.01</speed>
  <fix>3d</fix>
</trkpt>
<trkpt lat="40.0728169" lon="-105.2306211">
  <ele>1596.5</ele>
  <time>2026-08-27T18:30:35Z</time>
  <course>348.37</course>
  <speed>0.0</speed>
  <fix>3d</fix>
</trkpt>
<trkpt lat="40.0728168" lon="-105.230621">
  <ele>1596.42</ele>
  <time>2026-08-27T18:30:35Z</time>
  <course>147.41</course>
  <speed>0.01</speed>
  <fix>3d</fix>
</trkpt>
<trkpt lat="40.0728169" lon="-105.2306211">
  <ele>1596.5</ele>
  <time>2026-08-27T18:30:35Z</time>
  <course>348.36</course>
  <speed>0.0</speed>
  <fix>3d</fix>
</trkpt>
<trkpt lat="40.0728168" lon="-105.230621">
  <ele>1596.42</ele>
  <time>2026-08-27T18:30:35Z</time>
  <course>145.4</course>
  <speed>0.0</speed>
  <fix>3d</fix>
</trkpt>
<trkpt lat="40.0728169" lon="-105.2306211">
  <ele>1596.5</ele>
  <time>2026-08-27T18:30:35Z</time>
  <course>348.35</course>
  <speed>0.01</speed>
  <fix>3d</fix>
</trkpt>
<trkpt lat="40.0728168" lon="-105.230621">
  <ele>1596.42</ele>
  <time>2026-08-27T18:30:35Z</time>
  <course>145.61</course>
  <speed>0.0</speed>
  <fix>3d</fix>
</trkpt>
<trkpt lat="40.0728169" lon="-105.2306211">
  <ele>1596.5</ele>
  <time>2026-08-27T18:30:35Z</time>
  <course>348.34</course>
  <speed>0.01</speed>
  <fix>3d</fix>
</trkpt>
<trkpt lat="40.0728168" lon="-105.230621">
  <ele>1596.42</ele>
  <time>2026-08-27T18:30:35Z</time>
  <course>144.75</course>
  <speed>0.0</speed>
  <fix>3d</fix>
</trkpt>
<trkpt lat="40.0728169" lon="-105.2306211">
  <ele>1596.5</ele>
  <time>2026-08-27T18:30:35Z</time>
  <course>348.33</course>
  <speed>0.01</speed>
  <fix>3d</fix>
</trkpt>
<trkpt lat="40.0728168" lon="-105.230621">
  <ele>1596.43</ele>
  <time>2026-08-27T18:30:35Z</time>
  <course>144.32</course>
  <speed>0.0</speed>
  <fix>3d</fix>
</trkpt>
<trkpt lat="40.0728169" lon="-105.2306211">
  <ele>1596.5</ele>
  <time>2026-08-27T18:30:35Z</time>
  <course>348.33</course>
  <speed>0.01</speed>
  <fix>3d</fix>
</trkpt>
<trkpt lat="40.0728168" lon="-105.2306209">
  <ele>1596.43</ele>
  <time>2026-08-27T18:30:35Z</time>
  <course>143.25</course>
  <speed>0.0</speed>
  <fix>3d</fix>
</trkpt>
<trkpt lat="40.0728169" lon="-105.2306211">
  <ele>1596.51</ele>
  <time>2026-08-27T18:30:35Z</time>
  <course>348.32</course>
  <speed>0.01</speed>
  <fix>3d</fix>
</trkpt>
<trkpt lat="40.0728168" lon="-105.2306208">
  <ele>1596.43</ele>
  <time>2026-08-27T18:30:35Z</time>
  <course>135.34</course>
  <speed>0.0</speed>
  <fix>3d</fix>
</trkpt>
<trkpt lat="40.0728169" lon="-105.2306211">
  <ele>1596.51</ele>
  <time>2026-08-27T18:30:35Z</time>
  <course>348.32</course>
  <speed>0.01</speed>
  <fix>3d</fix>
</trkpt>
<trkpt lat="40.0728168" lon="-105.2306208">
  <ele>1596.43</ele>
  <time>2026-08-27T18:30:35Z</time>
  <course>120.8</course>
  <speed>0.0</speed>
  <fix>3d</fix>
</trkpt>
<trkpt lat="40.0728169" lon="-105.230621">
  <ele>1596.51</ele>
  <time>2026-08-27T18:30:35Z</time>
  <course>348.33</course>
  <speed>0.01414213562373095</speed>
  <fix>3d</fix>
</trkpt>
<trkpt lat="40.0728168" lon="-105.2306208">
  <ele>1596.43</ele>
  <time>2026-08-27T18:30:35Z</time>
  <course>104.03</course>
  <speed>0.0</speed>
  <fix>3d</fix>
</trkpt>
<trkpt lat="40.0728169" lon="-105.230621">
  <ele>1596.5</ele>
  <time>2026-08-27T18:30:35Z</time>
  <course>348.33</course>
  <speed>0.01414213562373095</speed>
  <fix>3d</fix>
</trkpt>
<trkpt lat="40.0728168" lon="-105.2306208">
  <ele>1596.44</ele>
  <time>2026-08-27T18:30:35Z</time>
  <course>83.94</course>
  <speed>0.0</speed>
  <fix>3d</fix>
</trkpt>
<trkpt lat="40.0728169" lon="-105.230621">
  <ele>1596.5</ele>
  <time>2026-08-27T18:30:35Z</time>
  <course>348.32</course>
  <speed>0.01414213562373095</speed>
  <fix>3d</fix>
</trkpt>
<trkpt lat="40.0728168" lon="-105.2306208">
  <ele>1596.44</ele>
  <time>2026-08-27T18:30:35Z</time>
  <course>59.17</course>
  <speed>0.0</speed>
  <fix>3d</fix>
</trkpt>
<trkpt lat="40.0728169" lon="-105.230621">
  <ele>1596.5</ele>
  <time>2026-08-27T18:30:35Z</time>
  <course>348.32</course>
  <speed>0.01414213562373095</speed>
  <fix>3d</fix>
</trkpt>
<trkpt lat="40.0728168" lon="-105.2306208">
  <ele>1596.44</ele>
  <time>2026-08-27T18:30:35Z</time>
  <course>32.71</course>
  <speed>0.0</speed>
  <fix>3d</fix>
</trkpt>
<trkpt lat="40.0728169" lon="-105.230621">
  <ele>1596.5</ele>
  <time>2026-08-27T18:30:35Z</time>
  <course>348.32</course>
  <speed>0.01414213562373095</speed>
  <fix>3d</fix>
</trkpt>
<trkpt lat="40.0728168" lon="-105.2306208">
  <ele>1596.44</ele>
  <time>2026-08-27T18:30:35Z</time>
  <course>5.41</course>
  <speed>0.0</speed>
  <fix>3d</fix>
</trkpt>
<trkpt lat="40.0728169" lon="-105.230621">
  <ele>1596.5</ele>
  <time>2026-08-27T18:30:35Z</time>
  <course>348.31</course>
  <speed>0.01414213562373095</speed>
  <fix>3d</fix>
</trkpt>
<trkpt lat="40.0728168" lon="-105.2306208">
  <ele>1596.44</ele>
  <time>2026-08-27T18:30:35Z</time>
  <course>249.4</course>
  <speed>0.0</speed>
  <fix>3d</fix>
</trkpt>
<trkpt lat="40.0728169" lon="-105.230621">
  <ele>1596.51</ele>
  <time>2026-08-27T18:30:35Z</time>
  <course>348.31</course>
  <speed>0.01</speed>
  <fix>3d</fix>
</trkpt>
<trkpt lat="40.0728168" lon="-105.2306208">
  <ele>1596.45</ele>
  <time>2026-08-27T18:30:35Z</time>
  <course>234.61</course>
  <speed>0.0</speed>
  <fix>3d</fix>
</trkpt>
<trkpt lat="40.0728169" lon="-105.230621">
  <ele>1596.51</ele>
  <time>2026-08-27T18:30:35Z</time>
  <course>348.32</course>
  <speed>0.01</speed>
  <fix>3d</fix>
</trkpt>
<trkpt lat="40.0728168" lon="-105.2306208">
  <ele>1596.45</ele>
  <time>2026-08-27T18:30:35Z</time>
  <course>231.91</course>
  <speed>0.0</speed>
  <fix>3d</fix>
</trkpt>
<trkpt lat="40.0728169" lon="-105.230621">
  <ele>1596.52</ele>
  <time>2026-08-27T18:30:35Z</time>
  <course>348.33</course>
  <speed>0.01</speed>
  <fix>3d</fix>
</trkpt>
<trkpt lat="40.0728168" lon="-105.2306208">
  <ele>1596.45</ele>
  <time>2026-08-27T18:30:35Z</time>
  <course>226.71</course>
  <speed>0.0</speed>
  <fix>3d</fix>
</trkpt>
<trkpt lat="40.0728169" lon="-105.230621">
  <ele>1596.53</ele>
  <time>2026-08-27T18:30:35Z</time>
  <course>348.34</course>
  <speed>0.01</speed>
  <fix>3d</fix>
</trkpt>
<trkpt lat="40.0728168" lon="-105.2306208">
  <ele>1596.46</ele>
  <time>2026-08-27T18:30:35Z</time>
  <course>224.37</course>
  <speed>0.0</speed>
  <fix>3d</fix>
</trkpt>
<trkpt lat="40.0728169" lon="-105.230621">
  <ele>1596.53</ele>
  <time>2026-08-27T18:30:35Z</time>
  <course>348.37</course>
  <speed>0.01</speed>
  <fix>3d</fix>
</trkpt>
<trkpt lat="40.0728168" lon="-105.2306208">
  <ele>1596.46</ele>
  <time>2026-08-27T18:30:35Z</time>
  <course>227.52</course>
  <speed>0.0</speed>
  <fix>3d</fix>
</trkpt>
<trkpt lat="40.0728169" lon="-105.230621">
  <ele>1596.53</ele>
  <time>2026-08-27T18:30:35Z</time>
  <course>348.4</course>
  <speed>0.01</speed>
  <fix>3d</fix>
</trkpt>
<trkpt lat="40.0728168" lon="-105.2306208">
  <ele>1596.45</ele>
  <time>2026-08-27T18:30:35Z</time>
  <course>234.1</course>
  <speed>0.0</speed>
  <fix>3d</fix>
</trkpt>
<trkpt lat="40.0728169" lon="-105.230621">
  <ele>1596.52</ele>
  <time>2026-08-27T18:30:35Z</time>
  <course>348.42</course>
  <speed>0.01</speed>
  <fix>3d</fix>
</trkpt>
<trkpt lat="40.0728168" lon="-105.2306208">
  <ele>1596.45</ele>
  <time>2026-08-27T18:30:35Z</time>
  <course>237.56</course>
  <speed>0.0</speed>
  <fix>3d</fix>
</trkpt>
<trkpt lat="40.0728169" lon="-105.230621">
  <ele>1596.52</ele>
  <time>2026-08-27T18:30:35Z</time>
  <course>348.43</course>
  <speed>0.01</speed>
  <fix>3d</fix>
</trkpt>
<trkpt lat="40.0728168" lon="-105.2306208">
  <ele>1596.45</ele>
  <time>2026-08-27T18:30:35Z</time>
  <course>240.19</course>
  <speed>0.0</speed>
  <fix>3d</fix>
</trkpt>
<trkpt lat="40.0728169" lon="-105.230621">
  <ele>1596.52</ele>
  <time>2026-08-27T18:30:35Z</time>
  <course>348.42</course>
  <speed>0.01</speed>
  <fix>3d</fix>
</trkpt>
<trkpt lat="40.0728168" lon="-105.2306208">
  <ele>1596.45</ele>
  <time>2026-08-27T18:30:35Z</time>
  <course>244.68</course>
  <speed>0.0</speed>
  <fix>3d</fix>
</trkpt>
<trkpt lat="40.0728169" lon="-105.230621">
  <ele>1596.52</ele>
  <time>2026-08-27T18:30:35Z</time>
  <course>348.4</course>
  <speed>0.01</speed>
  <fix>3d</fix>
</trkpt>
<trkpt lat="40.0728167" lon="-105.2306208">
  <ele>1596.44</ele>
  <time>2026-08-27T18:30:35Z</time>
  <course>250.68</course>
  <speed>0.0</speed>
  <fix>3d</fix>
</trkpt>
<trkpt lat="40.0728169" lon="-105.230621">
  <ele>1596.51</ele>
  <time>2026-08-27T18:30:35Z</time>
  <course>348.39</course>
  <speed>0.01</speed>
  <fix>3d</fix>
</trkpt>
<trkpt lat="40.0728167" lon="-105.2306208">
  <ele>1596.44</ele>
  <time>2026-08-27T18:30:35Z</time>
  <course>255.5</course>
  <speed>0.0</speed>
  <fix>3d</fix>
</trkpt>
<trkpt lat="40.0728169" lon="-105.230621">
  <ele>1596.51</ele>
  <time>2026-08-27T18:30:35Z</time>
  <course>348.38</course>
  <speed>0.01</speed>
  <fix>3d</fix>
</trkpt>
<trkpt lat="40.0728167" lon="-105.2306208">
  <ele>1596.44</ele>
  <time>2026-08-27T18:30:35Z</time>
  <course>257.41</course>
  <speed>0.0</speed>
  <fix>3d</fix>
</trkpt>
<trkpt lat="40.0728169" lon="-105.230621">
  <ele>1596.52</ele>
  <time>2026-08-27T18:30:35Z</time>
  <course>348.37</course>
  <speed>0.01</speed>
  <fix>3d</fix>
</trkpt>
<trkpt lat="40.0728167" lon="-105.2306208">
  <ele>1596.44</ele>
  <time>2026-08-27T18:30:35Z</time>
  <course>258.58</course>
  <speed>0.0</speed>
  <fix>3d</fix>
</trkpt>
<trkpt lat="40.0728169" lon="-105.230621">
  <ele>1596.52</ele>
  <time>2026-08-27T18:30:35Z</time>
  <course>348.38</course>
  <speed>0.01</speed>
  <fix>3d</fix>
</trkpt>
<trkpt lat="40.0728167" lon="-105.2306208">
  <ele>1596.44</ele>
  <time>2026-08-27T18:30:35Z</time>
  <course>265.33</course>
  <speed>0.0</speed>
  <fix>3d</fix>
</trkpt>
<trkpt lat="40.0728169" lon="-105.230621">
  <ele>1596.52</ele>
  <time>2026-08-27T18:30:35Z</time>
  <course>348.38</course>
  <speed>0.01414213562373095</speed>
  <fix>3d</fix>
</trkpt>
<trkpt lat="40.0728167" lon="-105.2306208">
  <ele>1596.44</ele>
  <time>2026-08-27T18:30:35Z</time>
  <course>282.66</course>
  <speed>0.0</speed>
  <fix>3d</fix>
</trkpt>
<trkpt lat="40.0728169" lon="-105.230621">
  <ele>1596.52</ele>
  <time>2026-08-27T18:30:35Z</time>
  <course>348.38</course>
  <speed>0.01414213562373095</speed>
  <fix>3d</fix>
</trkpt>
<trkpt lat="40.0728167" lon="-105.2306208">
  <ele>1596.44</ele>
  <time>2026-08-27T18:30:35Z</time>
  <course>301.01</course>
  <speed>0.0</speed>
  <fix>3d</fix>
</trkpt>
<trkpt lat="40.0728169" lon="-105.230621">
  <ele>1596.53</ele>
  <time>2026-08-27T18:30:35Z</time>
  <course>348.39</course>
  <speed>0.01414213562373095</speed>
  <fix>3d</fix>
</trkpt>
<trkpt lat="40.0728167" lon="-105.2306208">
  <ele>1596.44</ele>
  <time>2026-08-27T18:30:35Z</time>
  <course>310.87</course>
  <speed>0.0</speed>
  <fix>3d</fix>
</trkpt>
<trkpt lat="40.0728169" lon="-105.230621">
  <ele>1596.52</ele>
  <time>2026-08-27T18:30:35Z</time>
  <course>348.41</course>
  <speed>0.01414213562373095</speed>
  <fix>3d</fix>
</trkpt>
<trkpt lat="40.0728167" lon="-105.2306208">
  <ele>1596.43</ele>
  <time>2026-08-27T18:30:35Z</time>
  <course>316.44</course>
  <speed>0.0</speed>
  <fix>3d</fix>
</trkpt>
<trkpt lat="40.0728169" lon="-105.230621">
  <ele>1596.52</ele>
  <time>2026-08-27T18:30:35Z</time>
  <course>348.42</course>
  <speed>0.01414213562373095</speed>
  <fix>3d</fix>
</trkpt>
<trkpt lat="40.0728167" lon="-105.2306208">
  <ele>1596.43</ele>
  <time>2026-08-27T18:30:35Z</time>
  <course>324.2</course>
  <speed>0.0</speed>
  <fix>3d</fix>
</trkpt>
<trkpt lat="40.0728168" lon="-105.230621">
  <ele>1596.52</ele>
  <time>2026-08-27T18:30:35Z</time>
  <course>348.42</course>
  <speed>0.01414213562373095</speed>
  <fix>3d</fix>
</trkpt>
<trkpt lat="40.0728167" lon="-105.2306208">
  <ele>1596.43</ele>
  <time>2026-08-27T18:30:35Z</time>
  <course>332.64</course>
  <speed>0.0</speed>
  <fix>3d</fix>
</trkpt>
<trkpt lat="40.0728168" lon="-105.230621">
  <ele>1596.52</ele>
  <time>2026-08-27T18:30:35Z</time>
  <course>348.43</course>
  <speed>0.01414213562373095</speed>
  <fix>3d</fix>
</trkpt>
<trkpt lat="40.0728167" lon="-105.2306208">
  <ele>1596.42</ele>
  <time>2026-08-27T18:30:35Z</time>
  <course>336.65</course>
  <speed>0.0</speed>
  <fix>3d</fix>
</trkpt>
<trkpt lat="40.0728168" lon="-105.230621">
  <ele>1596.52</ele>
  <time>2026-08-27T18:30:35Z</time>
  <course>348.42</course>
  <speed>0.01414213562373095</speed>
  <fix>3d</fix>
</trkpt>
<trkpt lat="40.0728167" lon="-105.2306208">
  <ele>1596.42</ele>
  <time>2026-08-27T18:30:35Z</time>
  <course>337.61</course>
  <speed>0.0</speed>
  <fix>3d</fix>
</trkpt>
<trkpt lat="40.0728168" lon="-105.230621">
  <ele>1596.53</ele>
  <time>2026-08-27T18:30:35Z</time>
  <course>348.41</course>
  <speed>0.01414213562373095</speed>
  <fix>3d</fix>
</trkpt>
<trkpt lat="40.0728167" lon="-105.2306209">
  <ele>1596.42</ele>
  <time>2026-08-27T18:30:35Z</time>
  <course>338.94</course>
  <speed>0.0</speed>
  <fix>3d</fix>
</trkpt>
<trkpt lat="40.0728168" lon="-105.230621">
  <ele>1596.52</ele>
  <time>2026-08-27T18:30:35Z</time>
  <course>348.41</course>
  <speed>0.01414213562373095</speed>
  <fix>3d</fix>
</trkpt>
<trkpt lat="40.0728167" lon="-105.230621">
  <ele>1596.41</ele>
  <time>2026-08-27T18:30:35Z</time>
  <course>340.69</course>
  <speed>0.0</speed>
  <fix>3d</fix>
</trkpt>
<trkpt lat="40.0728168" lon="-105.230621">
  <ele>1596.52</ele>
  <time>2026-08-27T18:30:35Z</time>
  <course>348.42</course>
  <speed>0.01414213562373095</speed>
  <fix>3d</fix>
</trkpt>
<trkpt lat="40.0728167" lon="-105.230621">
  <ele>1596.41</ele>
  <time>2026-08-27T18:30:35Z</time>
  <course>343.94</course>
  <speed>0.0</speed>
  <fix>3d</fix>
</trkpt>
<trkpt lat="40.0728168" lon="-105.230621">
  <ele>1596.51</ele>
  <time>2026-08-27T18:30:35Z</time>
  <course>348.41</course>
  <speed>0.01414213562373095</speed>
  <fix>3d</fix>
</trkpt>
<trkpt lat="40.0728167" lon="-105.230621">
  <ele>1596.41</ele>
  <time>2026-08-27T18:30:35Z</time>
  <course>349.17</course>
  <speed>0.0</speed>
  <fix>3d</fix>
</trkpt>
<trkpt lat="40.0728168" lon="-105.230621">
  <ele>1596.51</ele>
  <time>2026-08-27T18:30:35Z</time>
  <course>348.4</course>
  <speed>0.01414213562373095</speed>
  <fix>3d</fix>
</trkpt>
<trkpt lat="40.0728167" lon="-105.230621">
  <ele>1596.4</ele>
  <time>2026-08-27T18:30:35Z</time>
  <course>356.83</course>
  <speed>0.0</speed>
  <fix>3d</fix>
</trkpt>
<trkpt lat="40.0728168" lon="-105.230621">
  <ele>1596.51</ele>
  <time>2026-08-27T18:30:35Z</time>
  <course>348.39</course>
  <speed>0.01414213562373095</speed>
  <fix>3d</fix>
</trkpt>
<trkpt lat="40.0728168" lon="-105.230621">
  <ele>1596.4</ele>
  <time>2026-08-27T18:30:35Z</time>
  <course>8.8</course>
  <speed>0.0</speed>
  <fix>3d</fix>
</trkpt>
<trkpt lat="40.0728168" lon="-105.230621">
  <ele>1596.51</ele>
  <time>2026-08-27T18:30:35Z</time>
  <course>348.39</course>
  <speed>0.01414213562373095</speed>
  <fix>3d</fix>
</trkpt>
<trkpt lat="40.0728168" lon="-105.230621">
  <ele>1596.4</ele>
  <time>2026-08-27T18:30:35Z</time>
  <course>21.46</course>
  <speed>0.0</speed>
  <fix>3d</fix>
</trkpt>
<trkpt lat="40.0728168" lon="-105.230621">
  <ele>1596.51</ele>
  <time>2026-08-27T18:30:35Z</time>
  <course>348.38</course>
  <speed>0.01414213562373095</speed>
  <fix>3d</fix>
</trkpt>
<trkpt lat="40.0728168" lon="-105.230621">
  <ele>1596.4</ele>
  <time>2026-08-27T18:30:35Z</time>
  <course>31.75</course>
  <speed>0.0</speed>
  <fix>3d</fix>
</trkpt>
<trkpt lat="40.0728168" lon="-105.230621">
  <ele>1596.51</ele>
  <time>2026-08-27T18:30:35Z</time>
  <course>348.39</course>
  <speed>0.01414213562373095</speed>
  <fix>3d</fix>
</trkpt>
<trkpt lat="40.0728168" lon="-105.230621">
  <ele>1596.4</ele>
  <time>2026-08-27T18:30:35Z</time>
  <course>40.32</course>
  <speed>0.0</speed>
  <fix>3d</fix>
</trkpt>
<trkpt lat="40.0728168" lon="-105.230621">
  <ele>1596.51</ele>
  <time>2026-08-27T18:30:35Z</time>
  <course>348.39</course>
  <speed>0.01414213562373095</speed>
  <fix>3d</fix>
</trkpt>
<trkpt lat="40.0728168" lon="-105.230621">
  <ele>1596.4</ele>
  <time>2026-08-27T18:30:35Z</time>
  <course>48.55</course>
  <speed>0.0</speed>
  <fix>3d</fix>
</trkpt>
<trkpt lat="40.0728168" lon="-105.230621">
  <ele>1596.51</ele>
  <time>2026-08-27T18:30:35Z</time>
  <course>348.39</course>
  <speed>0.01414213562373095</speed>
  <fix>3d</fix>
</trkpt>
<trkpt lat="40.0728168" lon="-105.230621">
  <ele>1596.4</ele>
  <time>2026-08-27T18:30:35Z</time>
  <course>57.76</course>
  <speed>0.0</speed>
  <fix>3d</fix>
</trkpt>
<trkpt lat="40.0728168" lon="-105.230621">
  <ele>1596.51</ele>
  <time>2026-08-27T18:30:35Z</time>
  <course>348.38</course>
  <speed>0.01</speed>
  <fix>3d</fix>
</trkpt>
<trkpt lat="40.0728168" lon="-105.230621">
  <ele>1596.39</ele>
  <time>2026-08-27T18:30:35Z</time>
  <course>66.15</course>
  <speed>0.0</speed>
  <fix>3d</fix>
</trkpt>
<trkpt lat="40.0728168" lon="-105.230621">
  <ele>1596.51</ele>
  <time>2026-08-27T18:30:35Z</time>
  <course>348.38</course>
  <speed>0.01</speed>
  <fix>3d</fix>
</trkpt>
<trkpt lat="40.0728168" lon="-105.230621">
  <ele>1596.39</ele>
  <time>2026-08-27T18:30:35Z</time>
  <course>74.17</course>
  <speed>0.0</speed>
  <fix>3d</fix>
</trkpt>
<trkpt lat="40.0728168" lon="-105.230621">
  <ele>1596.51</ele>
  <time>2026-08-27T18:30:35Z</time>
  <course>348.38</course>
  <speed>0.01</speed>
  <fix>3d</fix>
</trkpt>
<trkpt lat="40.0728168" lon="-105.230621">
  <ele>1596.39</ele>
  <time>2026-08-27T18:30:35Z</time>
  <course>80.56</course>
  <speed>0.0</speed>
  <fix>3d</fix>
</trkpt>
<trkpt lat="40.0728168" lon="-105.230621">
  <ele>1596.51</ele>
  <time>2026-08-27T18:30:35Z</time>
  <course>348.38</course>
  <speed>0.01</speed>
  <fix>3d</fix>
</trkpt>
<trkpt lat="40.0728168" lon="-105.2306209">
  <ele>1596.39</ele>
  <time>2026-08-27T18:30:35Z</time>
  <course>84.15</course>
  <speed>0.0</speed>
  <fix>3d</fix>
</trkpt>
<trkpt lat="40.0728168" lon="-105.230621">
  <ele>1596.5</ele>
  <time>2026-08-27T18:30:35Z</time>
  <course>348.36</course>
  <speed>0.01</speed>
  <fix>3d</fix>
</trkpt>
<trkpt lat="40.0728168" lon="-105.2306208">
  <ele>1596.39</ele>
  <time>2026-08-27T18:30:35Z</time>
  <course>89.46</course>
  <speed>0.0</speed>
  <fix>3d</fix>
</trkpt>
<trkpt lat="40.0728168" lon="-105.230621">
  <ele>1596.5</ele>
  <time>2026-08-27T18:30:35Z</time>
  <course>348.34</course>
  <speed>0.01</speed>
  <fix>3d</fix>
</trkpt>
<trkpt lat="40.0728168" lon="-105.2306208">
  <ele>1596.39</ele>
  <time>2026-08-27T18:30:35Z</time>
  <course>96.67</course>
  <speed>0.0</speed>
  <fix>3d</fix>
</trkpt>
<trkpt lat="40.0728168" lon="-105.230621">
  <ele>1596.51</ele>
  <time>2026-08-27T18:30:35Z</time>
  <course>348.32</course>
  <speed>0.0</speed>
  <fix>3d</fix>
</trkpt>
<trkpt lat="40.0728168" lon="-105.2306208">
  <ele>1596.39</ele>
  <time>2026-08-27T18:30:35Z</time>
  <course>103.32</course>
  <speed>0.0</speed>
  <fix>3d</fix>
</trkpt>
<trkpt lat="40.0728168" lon="-105.230621">
  <ele>1596.51</ele>
  <time>2026-08-27T18:30:35Z</time>
  <course>348.31</course>
  <speed>0.01</speed>
  <fix>3d</fix>
</trkpt>
<trkpt lat="40.0728168" lon="-105.2306208">
  <ele>1596.39</ele>
  <time>2026-08-27T18:30:35Z</time>
  <course>108.84</course>
  <speed>0.0</speed>
  <fix>3d</fix>
</trkpt>
<trkpt lat="40.0728168" lon="-105.230621">
  <ele>1596.51</ele>
  <time>2026-08-27T18:30:35Z</time>
  <course>348.3</course>
  <speed>0.01</speed>
  <fix>3d</fix>
</trkpt>
<trkpt lat="40.0728168" lon="-105.2306208">
  <ele>1596.39</ele>
  <time>2026-08-27T18:30:35Z</time>
  <course>110.89</course>
  <speed>0.0</speed>
  <fix>3d</fix>
</trkpt>
<trkpt lat="40.0728168" lon="-105.230621">
  <ele>1596.5</ele>
  <time>2026-08-27T18:30:35Z</time>
  <course>348.3</course>
  <speed>0.01</speed>
  <fix>3d</fix>
</trkpt>
<trkpt lat="40.0728168" lon="-105.2306208">
  <ele>1596.39</ele>
  <time>2026-08-27T18:30:35Z</time>
  <course>109.38</course>
  <speed>0.0</speed>
  <fix>3d</fix>
</trkpt>
<trkpt lat="40.0728168" lon="-105.230621">
  <ele>1596.5</ele>
  <time>2026-08-27T18:30:35Z</time>
  <course>348.29</course>
  <speed>0.01</speed>
  <fix>3d</fix>
</trkpt>
<trkpt lat="40.0728168" lon="-105.2306208">
  <ele>1596.39</ele>
  <time>2026-08-27T18:30:35Z</time>
  <course>106.92</course>
  <speed>0.0</speed>
  <fix>3d</fix>
</trkpt>
<trkpt lat="40.0728168" lon="-105.2306209">
  <ele>1596.5</ele>
  <time>2026-08-27T18:30:35Z</time>
  <course>348.29</course>
  <speed>0.01</speed>
  <fix>3d</fix>
</trkpt>
<trkpt lat="40.0728168" lon="-105.2306208">
  <ele>1596.39</ele>
  <time>2026-08-27T18:30:35Z</time>
  <course>107.65</course>
  <speed>0.0</speed>
  <fix>3d</fix>
</trkpt>
<trkpt lat="40.0728168" lon="-105.2306209">
  <ele>1596.5</ele>
  <time>2026-08-27T18:30:35Z</time>
  <course>348.28</course>
  <speed>0.01</speed>
  <fix>3d</fix>
</trkpt>
<trkpt lat="40.0728168" lon="-105.2306208">
  <ele>1596.39</ele>
  <time>2026-08-27T18:30:35Z</time>
  <course>118.81</course>
  <speed>0.0</speed>
  <fix>3d</fix>
</trkpt>
<trkpt lat="40.0728168" lon="-105.2306209">
  <ele>1596.5</ele>
  <time>2026-08-27T18:30:35Z</time>
  <course>348.27</course>
  <speed>0.01</speed>
  <fix>3d</fix>
</trkpt>
<trkpt lat="40.0728168" lon="-105.2306208">
  <ele>1596.39</ele>
  <time>2026-08-27T18:30:35Z</time>
  <course>140.74</course>
  <speed>0.0</speed>
  <fix>3d</fix>
</trkpt>
<trkpt lat="40.0728168" lon="-105.2306209">
  <ele>1596.51</ele>
  <time>2026-08-27T18:30:35Z</time>
  <course>348.27</course>
  <speed>0.01</speed>
  <fix>3d</fix>
</trkpt>
<trkpt lat="40.0728168" lon="-105.2306208">
  <ele>1596.39</ele>
  <time>2026-08-27T18:30:35Z</time>
  <course>159.55</course>
  <speed>0.0</speed>
  <fix>3d</fix>
</trkpt>
<trkpt lat="40.0728168" lon="-105.2306209">
  <ele>1596.51</ele>
  <time>2026-08-27T18:30:35Z</time>
  <course>348.27</course>
  <speed>0.01</speed>
  <fix>3d</fix>
</trkpt>
<trkpt lat="40.0728168" lon="-105.2306208">
  <ele>1596.4</ele>
  <time>2026-08-27T18:30:35Z</time>
  <course>169.97</course>
  <speed>0.0</speed>
  <fix>3d</fix>
</trkpt>
<trkpt lat="40.0728168" lon="-105.2306209">
  <ele>1596.51</ele>
  <time>2026-08-27T18:30:35Z</time>
  <course>348.28</course>
  <speed>0.01</speed>
  <fix>3d</fix>
</trkpt>
<trkpt lat="40.0728168" lon="-105.2306208">
  <ele>1596.4</ele>
  <time>2026-08-27T18:30:35Z</time>
  <course>179.07</course>
  <speed>0.0</speed>
  <fix>3d</fix>
</trkpt>
<trkpt lat="40.0728168" lon="-105.2306209">
  <ele>1596.52</ele>
  <time>2026-08-27T18:30:35Z</time>
  <course>348.28</course>
  <speed>0.01</speed>
  <fix>3d</fix>
</trkpt>
<trkpt lat="40.0728168" lon="-105.2306208">
  <ele>1596.4</ele>
  <time>2026-08-27T18:30:35Z</time>
  <course>188.18</course>
  <speed>0.0</speed>
  <fix>3d</fix>
</trkpt>
<trkpt lat="40.0728168" lon="-105.2306209">
  <ele>1596.52</ele>
  <time>2026-08-27T18:30:35Z</time>
  <course>348.3</course>
  <speed>0.01</speed>
  <fix>3d</fix>
</trkpt>
<trkpt lat="40.0728168" lon="-105.2306208">
  <ele>1596.4</ele>
  <time>2026-08-27T18:30:35Z</time>
  <course>191.83</course>
  <speed>0.0</speed>
  <fix>3d</fix>
</trkpt>
<trkpt lat="40.0728168" lon="-105.2306209">
  <ele>1596.51</ele>
  <time>2026-08-27T18:30:35Z</time>
  <course>348.31</course>
  <speed>0.01</speed>
  <fix>3d</fix>
</trkpt>
<trkpt lat="40.0728168" lon="-105.2306208">
  <ele>1596.4</ele>
  <time>2026-08-27T18:30:35Z</time>
  <course>185.61</course>
  <speed>0.0</speed>
  <fix>3d</fix>
</trkpt>
<trkpt lat="40.0728168" lon="-105.2306209">
  <ele>1596.51</ele>
  <time>2026-08-27T18:30:35Z</time>
  <course>348.31</course>
  <speed>0.01</speed>
  <fix>3d</fix>
</trkpt>
<trkpt lat="40.0728168" lon="-105.2306208">
  <ele>1596.4</ele>
  <time>2026-08-27T18:30:35Z</time>
  <course>175.77</course>
  <speed>0.0</speed>
  <fix>3d</fix>
</trkpt>
<trkpt lat="40.0728168" lon="-105.2306209">
  <ele>1596.51</ele>
  <time>2026-08-27T18:30:35Z</time>
  <course>348.3</course>
  <speed>0.01</speed>
  <fix>3d</fix>
</trkpt>
<trkpt lat="40.0728168" lon="-105.2306208">
  <ele>1596.4</ele>
  <time>2026-08-27T18:30:35Z</time>
  <course>168.2</course>
  <speed>0.0</speed>
  <fix>3d</fix>
</trkpt>
<trkpt lat="40.0728168" lon="-105.2306209">
  <ele>1596.51</ele>
  <time>2026-08-27T18:30:35Z</time>
  <course>348.3</course>
  <speed>0.01</speed>
  <fix>3d</fix>
</trkpt>
<trkpt lat="40.0728168" lon="-105.2306208">
  <ele>1596.4</ele>
  <time>2026-08-27T18:30:35Z</time>
  <course>162.23</course>
  <speed>0.0</speed>
  <fix>3d</fix>
</trkpt>
<trkpt lat="40.0728168" lon="-105.2306209">
  <ele>1596.51</ele>
  <time>2026-08-27T18:30:35Z</time>
  <course>348.3</course>
  <speed>0.01</speed>
  <fix>3d</fix>
</trkpt>
<trkpt lat="40.0728168" lon="-105.2306208">
  <ele>1596.39</ele>
  <time>2026-08-27T18:30:35Z</time>
  <course>161.57</course>
  <speed>0.0</speed>
  <fix>3d</fix>
</trkpt>
<trkpt lat="40.0728168" lon="-105.2306209">
  <ele>1596.51</ele>
  <time>2026-08-27T18:30:35Z</time>
  <course>348.3</course>
  <speed>0.01</speed>
  <fix>3d</fix>
</trkpt>
<trkpt lat="40.0728168" lon="-105.2306208">
  <ele>1596.39</ele>
  <time>2026-08-27T18:30:35Z</time>
  <course>166.06</course>
  <speed>0.0</speed>
  <fix>3d</fix>
</trkpt>
<trkpt lat="40.0728168" lon="-105.2306209">
  <ele>1596.51</ele>
  <time>2026-08-27T18:30:35Z</time>
  <course>348.3</course>
  <speed>0.01</speed>
  <fix>3d</fix>
</trkpt>
<trkpt lat="40.0728168" lon="-105.2306208">
  <ele>1596.39</ele>
  <time>2026-08-27T18:30:35Z</time>
  <course>169.34</course>
  <speed>0.0</speed>
  <fix>3d</fix>
</trkpt>
<trkpt lat="40.0728168" lon="-105.2306209">
  <ele>1596.51</ele>
  <time>2026-08-27T18:30:35Z</time>
  <course>348.3</course>
  <speed>0.01</speed>
  <fix>3d</fix>
</trkpt>
<trkpt lat="40.0728168" lon="-105.2306208">
  <ele>1596.39</ele>
  <time>2026-08-27T18:30:35Z</time>
  <course>167.32</course>
  <speed>0.0</speed>
  <fix>3d</fix>
</trkpt>
<trkpt lat="40.0728168" lon="-105.2306209">
  <ele>1596.51</ele>
  <time>2026-08-27T18:30:35Z</time>
  <course>348.3</course>
  <speed>0.01</speed>
  <fix>3d</fix>
</trkpt>
<trkpt lat="40.0728168" lon="-105.2306208">
  <ele>1596.39</ele>
  <time>2026-08-27T18:30:35Z</time>
  <course>162.19</course>
  <speed>0.0</speed>
  <fix>3d</fix>
</trkpt>
<trkpt lat="40.0728168" lon="-105.2306209">
  <ele>1596.51</ele>
  <time>2026-08-27T18:30:35Z</time>
  <course>348.3</course>
  <speed>0.01</speed>
  <fix>3d</fix>
</trkpt>
<trkpt lat="40.0728168" lon="-105.2306208">
  <ele>1596.39</ele>
  <time>2026-08-27T18:30:35Z</time>
  <course>161.18</course>
  <speed>0.0</speed>
  <fix>3d</fix>
</trkpt>
<trkpt lat="40.0728168" lon="-105.2306209">
  <ele>1596.51</ele>
  <time>2026-08-27T18:30:35Z</time>
  <course>348.3</course>
  <speed>0.01</speed>
  <fix>3d</fix>
</trkpt>
<trkpt lat="40.0728168" lon="-105.2306208">
  <ele>1596.39</ele>
  <time>2026-08-27T18:30:35Z</time>
  <course>162.28</course>
  <speed>0.0</speed>
  <fix>3d</fix>
</trkpt>
<trkpt lat="40.0728168" lon="-105.2306209">
  <ele>1596.5</ele>
  <time>2026-08-27T18:30:35Z</time>
  <course>348.3</course>
  <speed>0.01</speed>
  <fix>3d</fix>
</trkpt>
<trkpt lat="40.0728168" lon="-105.2306208">
  <ele>1596.39</ele>
  <time>2026-08-27T18:30:35Z</time>
  <course>163.64</course>
  <speed>0.0</speed>
  <fix>3d</fix>
</trkpt>
<trkpt lat="40.0728168" lon="-105.2306209">
  <ele>1596.5</ele>
  <time>2026-08-27T18:30:35Z</time>
  <course>348.3</course>
  <speed>0.01</speed>
  <fix>3d</fix>
</trkpt>
<trkpt lat="40.0728168" lon="-105.2306208">
  <ele>1596.39</ele>
  <time>2026-08-27T18:30:35Z</time>
  <course>165.2</course>
  <speed>0.0</speed>
  <fix>3d</fix>
</trkpt>
<trkpt lat="40.0728168" lon="-105.2306209">
  <ele>1596.5</ele>
  <time>2026-08-27T18:30:35Z</time>
  <course>348.3</course>
  <speed>0.01</speed>
  <fix>3d</fix>
</trkpt>
<trkpt lat="40.0728168" lon="-105.2306208">
  <ele>1596.39</ele>
  <time>2026-08-27T18:30:35Z</time>
  <course>165.55</course>
  <speed>0.0</speed>
  <fix>3d</fix>
</trkpt>
<trkpt lat="40.0728168" lon="-105.2306209">
  <ele>1596.5</ele>
  <time>2026-08-27T18:30:35Z</time>
  <course>348.27</course>
  <speed>0.01</speed>
  <fix>3d</fix>
</trkpt>
<trkpt lat="40.0728168" lon="-105.2306208">
  <ele>1596.39</ele>
  <time>2026-08-27T18:30:35Z</time>
  <course>165.22</course>
  <speed>0.0</speed>
  <fix>3d</fix>
</trkpt>
<trkpt lat="40.0728168" lon="-105.2306209">
  <ele>1596.5</ele>
  <time>2026-08-27T18:30:35Z</time>
  <course>348.25</course>
  <speed>0.01</speed>
  <fix>3d</fix>
</trkpt>
<trkpt lat="40.0728168" lon="-105.2306208">
  <ele>1596.39</ele>
  <time>2026-08-27T18:30:35Z</time>
  <course>168.08</course>
  <speed>0.0</speed>
  <fix>3d</fix>
</trkpt>
<trkpt lat="40.0728168" lon="-105.2306209">
  <ele>1596.5</ele>
  <time>2026-08-27T18:30:35Z</time>
  <course>348.24</course>
  <speed>0.01</speed>
  <fix>3d</fix>
</trkpt>
<trkpt lat="40.0728168" lon="-105.2306208">
  <ele>1596.39</ele>
  <time>2026-08-27T18:30:35Z</time>
  <course>170.4</course>
  <speed>0.0</speed>
  <fix>3d</fix>
</trkpt>
<trkpt lat="40.0728168" lon="-105.2306209">
  <ele>1596.5</ele>
  <time>2026-08-27T18:30:35Z</time>
  <course>348.23</course>
  <speed>0.01</speed>
  <fix>3d</fix>
</trkpt>
<trkpt lat="40.0728167" lon="-105.2306208">
  <ele>1596.39</ele>
  <time>2026-08-27T18:30:35Z</time>
  <course>168.16</course>
  <speed>0.0</speed>
  <fix>3d</fix>
</trkpt>
<trkpt lat="40.0728168" lon="-105.2306209">
  <ele>1596.5</ele>
  <time>2026-08-27T18:30:35Z</time>
  <course>348.22</course>
  <speed>0.01</speed>
  <fix>3d</fix>
</trkpt>
<trkpt lat="40.0728167" lon="-105.2306208">
  <ele>1596.4</ele>
  <time>2026-08-27T18:30:35Z</time>
  <course>166.41</course>
  <speed>0.0</speed>
  <fix>3d</fix>
</trkpt>
<trkpt lat="40.0728168" lon="-105.2306209">
  <ele>1596.51</ele>
  <time>2026-08-27T18:30:35Z</time>
  <course>348.22</course>
  <speed>0.01</speed>
  <fix>3d</fix>
</trkpt>
<trkpt lat="40.0728167" lon="-105.2306207">
  <ele>1596.4</ele>
  <time>2026-08-27T18:30:35Z</time>
  <course>166.0</course>
  <speed>0.0</speed>
  <fix>3d</fix>
</trkpt>
<trkpt lat="40.0728168" lon="-105.2306209">
  <ele>1596.51</ele>
  <time>2026-08-27T18:30:35Z</time>
  <course>348.21</course>
  <speed>0.01414213562373095</speed>
  <fix>3d</fix>
</trkpt>
<trkpt lat="40.0728167" lon="-105.2306206">
  <ele>1596.4</ele>
  <time>2026-08-27T18:30:35Z</time>
  <course>163.39</course>
  <speed>0.0</speed>
  <fix>3d</fix>
</trkpt>
<trkpt lat="40.0728168" lon="-105.2306209">
  <ele>1596.51</ele>
  <time>2026-08-27T18:30:35Z</time>
  <course>348.21</course>
  <speed>0.01414213562373095</speed>
  <fix>3d</fix>
</trkpt>
<trkpt lat="40.0728167" lon="-105.2306206">
  <ele>1596.4</ele>
  <time>2026-08-27T18:30:35Z</time>
  <course>156.65</course>
  <speed>0.0</speed>
  <fix>3d</fix>
</trkpt>
<trkpt lat="40.0728168" lon="-105.2306209">
  <ele>1596.51</ele>
  <time>2026-08-27T18:30:35Z</time>
  <course>348.21</course>
  <speed>0.01414213562373095</speed>
  <fix>3d</fix>
</trkpt>
<trkpt lat="40.0728167" lon="-105.2306206">
  <ele>1596.4</ele>
  <time>2026-08-27T18:30:35Z</time>
  <course>144.74</course>
  <speed>0.0</speed>
  <fix>3d</fix>
</trkpt>
<trkpt lat="40.0728168" lon="-105.2306209">
  <ele>1596.52</ele>
  <time>2026-08-27T18:30:35Z</time>
  <course>348.22</course>
  <speed>0.01414213562373095</speed>
  <fix>3d</fix>
</trkpt>
<trkpt lat="40.0728167" lon="-105.2306206">
  <ele>1596.4</ele>
  <time>2026-08-27T18:30:35Z</time>
  <course>126.38</course>
  <speed>0.0</speed>
  <fix>3d</fix>
</trkpt>
<trkpt lat="40.0728168" lon="-105.2306209">
  <ele>1596.52</ele>
  <time>2026-08-27T18:30:35Z</time>
  <course>348.23</course>
  <speed>0.01414213562373095</speed>
  <fix>3d</fix>
</trkpt>
<trkpt lat="40.0728167" lon="-105.2306206">
  <ele>1596.4</ele>
  <time>2026-08-27T18:30:35Z</time>
  <course>79.59</course>
  <speed>0.0</speed>
  <fix>3d</fix>
</trkpt>
<trkpt lat="40.0728168" lon="-105.2306209">
  <ele>1596.51</ele>
  <time>2026-08-27T18:30:35Z</time>
  <course>348.26</course>
  <speed>0.01414213562373095</speed>
  <fix>3d</fix>
</trkpt>
<trkpt lat="40.0728167" lon="-105.2306206">
  <ele>1596.4</ele>
  <time>2026-08-27T18:30:35Z</time>
  <course>344.09</course>
  <speed>0.0</speed>
  <fix>3d</fix>
</trkpt>
<trkpt lat="40.0728168" lon="-105.2306209">
  <ele>1596.51</ele>
  <time>2026-08-27T18:30:35Z</time>
  <course>348.26</course>
  <speed>0.01414213562373095</speed>
  <fix>3d</fix>
</trkpt>
<trkpt lat="40.0728167" lon="-105.2306206">
  <ele>1596.4</ele>
  <time>2026-08-27T18:30:35Z</time>
  <course>326.34</course>
  <speed>0.0</speed>
  <fix>3d</fix>
</trkpt>
<trkpt lat="40.0728168" lon="-105.2306209">
  <ele>1596.5</ele>
  <time>2026-08-27T18:30:35Z</time>
  <course>348.25</course>
  <speed>0.01414213562373095</speed>
  <fix>3d</fix>
</trkpt>
<trkpt lat="40.0728167" lon="-105.2306206">
  <ele>1596.4</ele>
  <time>2026-08-27T18:30:35Z</time>
  <course>317.95</course>
  <speed>0.0</speed>
  <fix>3d</fix>
</trkpt>
<trkpt lat="40.0728168" lon="-105.2306209">
  <ele>1596.5</ele>
  <time>2026-08-27T18:30:35Z</time>
  <course>348.24</course>
  <speed>0.022360679774997897</speed>
  <fix>3d</fix>
</trkpt>
<trkpt lat="40.0728167" lon="-105.2306206">
  <ele>1596.4</ele>
  <time>2026-08-27T18:30:35Z</time>
  <course>312.22</course>
  <speed>0.0</speed>
  <fix>3d</fix>
</trkpt>
<trkpt lat="40.0728168" lon="-105.2306209">
  <ele>1596.5</ele>
  <time>2026-08-27T18:30:35Z</time>
  <course>348.23</course>
  <speed>0.022360679774997897</speed>
  <fix>3d</fix>
</trkpt>
<trkpt lat="40.0728167" lon="-105.2306206">
  <ele>1596.4</ele>
  <time>2026-08-27T18:30:35Z</time>
  <course>305.58</course>
  <speed>0.0</speed>
  <fix>3d</fix>
</trkpt>
<trkpt lat="40.0728168" lon="-105.2306209">
  <ele>1596.5</ele>
  <time>2026-08-27T18:30:36Z</time>
  <course>348.22</course>
  <speed>0.022360679774997897</speed>
  <fix>3d</fix>
</trkpt>
<trkpt lat="40.0728167" lon="-105.2306206">
  <ele>1596.4</ele>
  <time>2026-08-27T18:30:36Z</time>
  <course>298.03</course>
  <speed>0.0</speed>
  <fix>3d</fix>
</trkpt>
<trkpt lat="40.0728168" lon="-105.2306209">
  <ele>1596.5</ele>
  <time>2026-08-27T18:30:36Z</time>
  <course>348.2</course>
  <speed>0.022360679774997897</speed>
  <fix>3d</fix>
</trkpt>
<trkpt lat="40.0728167" lon="-105.2306206">
  <ele>1596.41</ele>
  <time>2026-08-27T18:30:36Z</time>
  <course>293.54</course>
  <speed>0.0</speed>
  <fix>3d</fix>
</trkpt>
<trkpt lat="40.0728168" lon="-105.2306209">
  <ele>1596.51</ele>
  <time>2026-08-27T18:30:36Z</time>
  <course>348.2</course>
  <speed>0.022360679774997897</speed>
  <fix>3d</fix>
</trkpt>
<trkpt lat="40.0728167" lon="-105.2306206">
  <ele>1596.41</ele>
  <time>2026-08-27T18:30:36Z</time>
  <course>290.6</course>
  <speed>0.0</speed>
  <fix>3d</fix>
</trkpt>
<trkpt lat="40.0728168" lon="-105.2306209">
  <ele>1596.51</ele>
  <time>2026-08-27T18:30:36Z</time>
  <course>348.21</course>
  <speed>0.022360679774997897</speed>
  <fix>3d</fix>
</trkpt>
<trkpt lat="40.0728167" lon="-105.2306206">
  <ele>1596.41</ele>
  <time>2026-08-27T18:30:36Z</time>
  <course>287.37</course>
  <speed>0.0</speed>
  <fix>3d</fix>
</trkpt>
<trkpt lat="40.0728168" lon="-105.2306209">
  <ele>1596.51</ele>
  <time>2026-08-27T18:30:36Z</time>
  <course>348.21</course>
  <speed>0.022360679774997897</speed>
  <fix>3d</fix>
</trkpt>
<trkpt lat="40.0728167" lon="-105.2306207">
  <ele>1596.41</ele>
  <time>2026-08-27T18:30:36Z</time>
  <course>284.75</course>
  <speed>0.0</speed>
  <fix>3d</fix>
</trkpt>
<trkpt lat="40.0728168" lon="-105.2306209">
  <ele>1596.51</ele>
  <time>2026-08-27T18:30:36Z</time>
  <course>348.21</course>
  <speed>0.022360679774997897</speed>
  <fix>3d</fix>
</trkpt>
<trkpt lat="40.0728167" lon="-105.2306208">
  <ele>1596.42</ele>
  <time>2026-08-27T18:30:36Z</time>
  <course>282.63</course>
  <speed>0.0</speed>
  <fix>3d</fix>
</trkpt>
<trkpt lat="40.0728168" lon="-105.2306209">
  <ele>1596.51</ele>
  <time>2026-08-27T18:30:36Z</time>
  <course>348.21</course>
  <speed>0.022360679774997897</speed>
  <fix>3d</fix>
</trkpt>
<trkpt lat="40.0728167" lon="-105.2306208">
  <ele>1596.42</ele>
  <time>2026-08-27T18:30:36Z</time>
  <course>282.89</course>
  <speed>0.0</speed>
  <fix>3d</fix>
</trkpt>
<trkpt lat="40.0728168" lon="-105.2306209">
  <ele>1596.52</ele>
  <time>2026-08-27T18:30:36Z</time>
  <course>348.22</course>
  <speed>0.022360679774997897</speed>
  <fix>3d</fix>
</trkpt>
<trkpt lat="40.0728167" lon="-105.2306208">
  <ele>1596.42</ele>
  <time>2026-08-27T18:30:36Z</time>
  <course>285.51</course>
  <speed>0.01</speed>
  <fix>3d</fix>
</trkpt>
<trkpt lat="40.0728168" lon="-105.2306209">
  <ele>1596.52</ele>
  <time>2026-08-27T18:30:36Z</time>
  <course>348.22</course>
  <speed>0.022360679774997897</speed>
  <fix>3d</fix>
</trkpt>
<trkpt lat="40.0728167" lon="-105.2306208">
  <ele>1596.42</ele>
  <time>2026-08-27T18:30:36Z</time>
  <course>289.75</course>
  <speed>0.01</speed>
  <fix>3d</fix>
</trkpt>
<trkpt lat="40.0728168" lon="-105.2306209">
  <ele>1596.52</ele>
  <time>2026-08-27T18:30:36Z</time>
  <course>348.25</course>
  <speed>0.022360679774997897</speed>
  <fix>3d</fix>
</trkpt>
<trkpt lat="40.0728167" lon="-105.2306208">
  <ele>1596.42</ele>
  <time>2026-08-27T18:30:36Z</time>
  <course>296.25</course>
  <speed>0.0</speed>
  <fix>3d</fix>
</trkpt>
<trkpt lat="40.0728168" lon="-105.230621">
  <ele>1596.52</ele>
  <time>2026-08-27T18:30:36Z</time>
  <course>348.27</course>
  <speed>0.022360679774997897</speed>
  <fix>3d</fix>
</trkpt>
<trkpt lat="40.0728167" lon="-105.2306208">
  <ele>1596.42</ele>
  <time>2026-08-27T18:30:36Z</time>
  <course>304.43</course>
  <speed>0.0</speed>
  <fix>3d</fix>
</trkpt>
<trkpt lat="40.0728168" lon="-105.230621">
  <ele>1596.52</ele>
  <time>2026-08-27T18:30:36Z</time>
  <course>348.28</course>
  <speed>0.01414213562373095</speed>
  <fix>3d</fix>
</trkpt>
<trkpt lat="40.0728167" lon="-105.2306208">
  <ele>1596.42</ele>
  <time>2026-08-27T18:30:36Z</time>
  <course>315.07</course>
  <speed>0.0</speed>
  <fix>3d</fix>
</trkpt>
<trkpt lat="40.0728168" lon="-105.230621">
  <ele>1596.52</ele>
  <time>2026-08-27T18:30:36Z</time>
  <course>348.28</course>
  <speed>0.01414213562373095</speed>
  <fix>3d</fix>
</trkpt>
<trkpt lat="40.0728167" lon="-105.2306208">
  <ele>1596.41</ele>
  <time>2026-08-27T18:30:36Z</time>
  <course>332.4</course>
  <speed>0.0</speed>
  <fix>3d</fix>
</trkpt>
<trkpt lat="40.0728168" lon="-105.230621">
  <ele>1596.52</ele>
  <time>2026-08-27T18:30:36Z</time>
  <course>348.29</course>
  <speed>0.01414213562373095</speed>
  <fix>3d</fix>
</trkpt>
<trkpt lat="40.0728167" lon="-105.2306208">
  <ele>1596.41</ele>
  <time>2026-08-27T18:30:36Z</time>
  <course>349.82</course>
  <speed>0.0</speed>
  <fix>3d</fix>
</trkpt>
<trkpt lat="40.0728168" lon="-105.230621">
  <ele>1596.52</ele>
  <time>2026-08-27T18:30:36Z</time>
  <course>348.29</course>
  <speed>0.01414213562373095</speed>
  <fix>3d</fix>
</trkpt>
<trkpt lat="40.0728167" lon="-105.2306208">
  <ele>1596.41</ele>
  <time>2026-08-27T18:30:36Z</time>
  <course>1.09</course>
  <speed>0.0</speed>
  <fix>3d</fix>
</trkpt>
<trkpt lat="40.0728168" lon="-105.230621">
  <ele>1596.51</ele>
  <time>2026-08-27T18:30:36Z</time>
  <course>348.29</course>
  <speed>0.01414213562373095</speed>
  <fix>3d</fix>
</trkpt>
<trkpt lat="40.0728167" lon="-105.2306208">
  <ele>1596.41</ele>
  <time>2026-08-27T18:30:36Z</time>
  <course>10.02</course>
  <speed>0.0</speed>
  <fix>3d</fix>
</trkpt>
<trkpt lat="40.0728168" lon="-105.230621">
  <ele>1596.51</ele>
  <time>2026-08-27T18:30:36Z</time>
  <course>348.28</course>
  <speed>0.01414213562373095</speed>
  <fix>3d</fix>
</trkpt>
<trkpt lat="40.0728168" lon="-105.2306208">
  <ele>1596.41</ele>
  <time>2026-08-27T18:30:36Z</time>
  <course>19.66</course>
  <speed>0.0</speed>
  <fix>3d</fix>
</trkpt>
<trkpt lat="40.0728168" lon="-105.230621">
  <ele>1596.5</ele>
  <time>2026-08-27T18:30:36Z</time>
  <course>348.27</course>
  <speed>0.01414213562373095</speed>
  <fix>3d</fix>
</trkpt>
<trkpt lat="40.0728168" lon="-105.2306208">
  <ele>1596.4</ele>
  <time>2026-08-27T18:30:36Z</time>
  <course>25.36</course>
  <speed>0.0</speed>
  <fix>3d</fix>
</trkpt>
<trkpt lat="40.0728168" lon="-105.230621">
  <ele>1596.5</ele>
  <time>2026-08-27T18:30:36Z</time>
  <course>348.25</course>
  <speed>0.01414213562373095</speed>
  <fix>3d</fix>
</trkpt>
<trkpt lat="40.0728168" lon="-105.2306208">
  <ele>1596.4</ele>
  <time>2026-08-27T18:30:36Z</time>
  <course>26.64</course>
  <speed>0.0</speed>
  <fix>3d</fix>
</trkpt>
<trkpt lat="40.0728168" lon="-105.230621">
  <ele>1596.5</ele>
  <time>2026-08-27T18:30:36Z</time>
  <course>348.22</course>
  <speed>0.01414213562373095</speed>
  <fix>3d</fix>
</trkpt>
<trkpt lat="40.0728168" lon="-105.2306208">
  <ele>1596.4</ele>
  <time>2026-08-27T18:30:36Z</time>
  <course>28.11</course>
  <speed>0.0</speed>
  <fix>3d</fix>
</trkpt>
<trkpt lat="40.0728168" lon="-105.230621">
  <ele>1596.5</ele>
  <time>2026-08-27T18:30:36Z</time>
  <course>348.21</course>
  <speed>0.01414213562373095</speed>
  <fix>3d</fix>
</trkpt>
<trkpt lat="40.0728168" lon="-105.2306208">
  <ele>1596.4</ele>
  <time>2026-08-27T18:30:36Z</time>
  <course>31.6</course>
  <speed>0.0</speed>
  <fix>3d</fix>
</trkpt>
<trkpt lat="40.0728168" lon="-105.230621">
  <ele>1596.5</ele>
  <time>2026-08-27T18:30:36Z</time>
  <course>348.19</course>
  <speed>0.01414213562373095</speed>
  <fix>3d</fix>
</trkpt>
<trkpt lat="40.0728168" lon="-105.2306208">
  <ele>1596.41</ele>
  <time>2026-08-27T18:30:36Z</time>
  <course>45.86</course>
  <speed>0.0</speed>
  <fix>3d</fix>
</trkpt>
<trkpt lat="40.0728168" lon="-105.230621">
  <ele>1596.5</ele>
  <time>2026-08-27T18:30:36Z</time>
  <course>348.17</course>
  <speed>0.01</speed>
  <fix>3d</fix>
</trkpt>
<trkpt lat="40.0728168" lon="-105.2306208">
  <ele>1596.41</ele>
  <time>2026-08-27T18:30:36Z</time>
  <course>76.1</course>
  <speed>0.0</speed>
  <fix>3d</fix>
</trkpt>
<trkpt lat="40.0728168" lon="-105.230621">
  <ele>1596.5</ele>
  <time>2026-08-27T18:30:36Z</time>
  <course>348.16</course>
  <speed>0.01</speed>
  <fix>3d</fix>
</trkpt>
<trkpt lat="40.0728168" lon="-105.2306208">
  <ele>1596.41</ele>
  <time>2026-08-27T18:30:36Z</time>
  <course>108.52</course>
  <speed>0.0</speed>
  <fix>3d</fix>
</trkpt>
<trkpt lat="40.0728168" lon="-105.230621">
  <ele>1596.5</ele>
  <time>2026-08-27T18:30:36Z</time>
  <course>348.15</course>
  <speed>0.01</speed>
  <fix>3d</fix>
</trkpt>
<trkpt lat="40.0728168" lon="-105.2306208">
  <ele>1596.41</ele>
  <time>2026-08-27T18:30:36Z</time>
  <course>126.82</course>
  <speed>0.0</speed>
  <fix>3d</fix>
</trkpt>
<trkpt lat="40.0728168" lon="-105.230621">
  <ele>1596.51</ele>
  <time>2026-08-27T18:30:36Z</time>
  <course>348.15</course>
  <speed>0.01</speed>
  <fix>3d</fix>
</trkpt>
<trkpt lat="40.0728168" lon="-105.2306208">
  <ele>1596.42</ele>
  <time>2026-08-27T18:30:36Z</time>
  <course>139.2</course>
  <speed>0.0</speed>
  <fix>3d</fix>
</trkpt>
<trkpt lat="40.0728168" lon="-105.230621">
  <ele>1596.51</ele>
  <time>2026-08-27T18:30:36Z</time>
  <course>348.15</course>
  <speed>0.01</speed>
  <fix>3d</fix>
</trkpt>
<trkpt lat="40.0728168" lon="-105.2306208">
  <ele>1596.42</ele>
  <time>2026-08-27T18:30:36Z</time>
  <course>147.37</course>
  <speed>0.0</speed>
  <fix>3d</fix>
</trkpt>
<trkpt lat="40.0728168" lon="-105.230621">
  <ele>1596.51</ele>
  <time>2026-08-27T18:30:36Z</time>
  <course>348.16</course>
  <speed>0.01</speed>
  <fix>3d</fix>
</trkpt>
<trkpt lat="40.0728168" lon="-105.2306208">
  <ele>1596.42</ele>
  <time>2026-08-27T18:30:36Z</time>
  <course>150.42</course>
  <speed>0.0</speed>
  <fix>3d</fix>
</trkpt>
<trkpt lat="40.0728168" lon="-105.230621">
  <ele>1596.52</ele>
  <time>2026-08-27T18:30:36Z</time>
  <course>348.18</course>
  <speed>0.01</speed>
  <fix>3d</fix>
</trkpt>
<trkpt lat="40.0728168" lon="-105.2306208">
  <ele>1596.42</ele>
  <time>2026-08-27T18:30:36Z</time>
  <course>151.3</course>
  <speed>0.0</speed>
  <fix>3d</fix>
</trkpt>
<trkpt lat="40.0728168" lon="-105.230621">
  <ele>1596.52</ele>
  <time>2026-08-27T18:30:36Z</time>
  <course>348.2</course>
  <speed>0.01</speed>
  <fix>3d</fix>
</trkpt>
<trkpt lat="40.0728168" lon="-105.2306208">
  <ele>1596.42</ele>
  <time>2026-08-27T18:30:36Z</time>
  <course>150.7</course>
  <speed>0.0</speed>
  <fix>3d</fix>
</trkpt>
<trkpt lat="40.0728168" lon="-105.230621">
  <ele>1596.52</ele>
  <time>2026-08-27T18:30:36Z</time>
  <course>348.21</course>
  <speed>0.01</speed>
  <fix>3d</fix>
</trkpt>
<trkpt lat="40.0728168" lon="-105.2306208">
  <ele>1596.42</ele>
  <time>2026-08-27T18:30:36Z</time>
  <course>146.63</course>
  <speed>0.0</speed>
  <fix>3d</fix>
</trkpt>
<trkpt lat="40.0728168" lon="-105.230621">
  <ele>1596.52</ele>
  <time>2026-08-27T18:30:36Z</time>
  <course>348.23</course>
  <speed>0.01</speed>
  <fix>3d</fix>
</trkpt>
<trkpt lat="40.0728168" lon="-105.2306208">
  <ele>1596.42</ele>
  <time>2026-08-27T18:30:36Z</time>
  <course>140.13</course>
  <speed>0.0</speed>
  <fix>3d</fix>
</trkpt>
<trkpt lat="40.0728168" lon="-105.230621">
  <ele>1596.52</ele>
  <time>2026-08-27T18:30:36Z</time>
  <course>348.24</course>
  <speed>0.01</speed>
  <fix>3d</fix>
</trkpt>
<trkpt lat="40.0728168" lon="-105.2306208">
  <ele>1596.42</ele>
  <time>2026-08-27T18:30:36Z</time>
  <course>135.58</course>
  <speed>0.0</speed>
  <fix>3d</fix>
</trkpt>
<trkpt lat="40.0728168" lon="-105.230621">
  <ele>1596.52</ele>
  <time>2026-08-27T18:30:36Z</time>
  <course>348.25</course>
  <speed>0.01</speed>
  <fix>3d</fix>
</trkpt>
<trkpt lat="40.0728168" lon="-105.2306208">
  <ele>1596.42</ele>
  <time>2026-08-27T18:30:36Z</time>
  <course>133.06</course>
  <speed>0.0</speed>
  <fix>3d</fix>
</trkpt>
<trkpt lat="40.0728168" lon="-105.230621">
  <ele>1596.52</ele>
  <time>2026-08-27T18:30:36Z</time>
  <course>348.25</course>
  <speed>0.01</speed>
  <fix>3d</fix>
</trkpt>
<trkpt lat="40.0728168" lon="-105.2306208">
  <ele>1596.42</ele>
  <time>2026-08-27T18:30:36Z</time>
  <course>131.22</course>
  <speed>0.0</speed>
  <fix>3d</fix>
</trkpt>
<trkpt lat="40.0728168" lon="-105.230621">
  <ele>1596.52</ele>
  <time>2026-08-27T18:30:36Z</time>
  <course>348.25</course>
  <speed>0.01</speed>
  <fix>3d</fix>
</trkpt>
<trkpt lat="40.0728168" lon="-105.2306208">
  <ele>1596.41</ele>
  <time>2026-08-27T18:30:36Z</time>
  <course>130.58</course>
  <speed>0.0</speed>
  <fix>3d</fix>
</trkpt>
<trkpt lat="40.0728168" lon="-105.230621">
  <ele>1596.52</ele>
  <time>2026-08-27T18:30:36Z</time>
  <course>348.25</course>
  <speed>0.01414213562373095</speed>
  <fix>3d</fix>
</trkpt>
<trkpt lat="40.0728168" lon="-105.2306208">
  <ele>1596.41</ele>
  <time>2026-08-27T18:30:36Z</time>
  <course>129.61</course>
  <speed>0.0</speed>
  <fix>3d</fix>
</trkpt>
<trkpt lat="40.0728168" lon="-105.230621">
  <ele>1596.52</ele>
  <time>2026-08-27T18:30:36Z</time>
  <course>348.25</course>
  <speed>0.01414213562373095</speed>
  <fix>3d</fix>
</trkpt>
<trkpt lat="40.0728168" lon="-105.2306208">
  <ele>1596.41</ele>
  <time>2026-08-27T18:30:36Z</time>
  <course>129.13</course>
  <speed>0.0</speed>
  <fix>3d</fix>
</trkpt>
<trkpt lat="40.0728168" lon="-105.230621">
  <ele>1596.52</ele>
  <time>2026-08-27T18:30:36Z</time>
  <course>348.26</course>
  <speed>0.01414213562373095</speed>
  <fix>3d</fix>
</trkpt>
<trkpt lat="40.0728168" lon="-105.2306208">
  <ele>1596.41</ele>
  <time>2026-08-27T18:30:36Z</time>
  <course>129.34</course>
  <speed>0.0</speed>
  <fix>3d</fix>
</trkpt>
<trkpt lat="40.0728168" lon="-105.230621">
  <ele>1596.52</ele>
  <time>2026-08-27T18:30:36Z</time>
  <course>348.26</course>
  <speed>0.01414213562373095</speed>
  <fix>3d</fix>
</trkpt>
<trkpt lat="40.0728168" lon="-105.2306208">
  <ele>1596.41</ele>
  <time>2026-08-27T18:30:36Z</time>
  <course>128.98</course>
  <speed>0.0</speed>
  <fix>3d</fix>
</trkpt>
<trkpt lat="40.0728168" lon="-105.230621">
  <ele>1596.51</ele>
  <time>2026-08-27T18:30:36Z</time>
  <course>348.25</course>
  <speed>0.01414213562373095</speed>
  <fix>3d</fix>
</trkpt>
<trkpt lat="40.0728168" lon="-105.2306208">
  <ele>1596.4</ele>
  <time>2026-08-27T18:30:36Z</time>
  <course>128.43</course>
  <speed>0.0</speed>
  <fix>3d</fix>
</trkpt>
<trkpt lat="40.0728168" lon="-105.230621">
  <ele>1596.51</ele>
  <time>2026-08-27T18:30:36Z</time>
  <course>348.23</course>
  <speed>0.01414213562373095</speed>
  <fix>3d</fix>
</trkpt>
<trkpt lat="40.0728168" lon="-105.2306208">
  <ele>1596.4</ele>
  <time>2026-08-27T18:30:36Z</time>
  <course>127.31</course>
  <speed>0.0</speed>
  <fix>3d</fix>
</trkpt>
<trkpt lat="40.0728168" lon="-105.230621">
  <ele>1596.51</ele>
  <time>2026-08-27T18:30:36Z</time>
  <course>348.21</course>
  <speed>0.01414213562373095</speed>
  <fix>3d</fix>
</trkpt>
<trkpt lat="40.0728168" lon="-105.2306208">
  <ele>1596.4</ele>
  <time>2026-08-27T18:30:36Z</time>
  <course>128.25</course>
  <speed>0.0</speed>
  <fix>3d</fix>
</trkpt>
<trkpt lat="40.0728168" lon="-105.230621">
  <ele>1596.51</ele>
  <time>2026-08-27T18:30:36Z</time>
  <course>348.2</course>
  <speed>0.01414213562373095</speed>
  <fix>3d</fix>
</trkpt>
<trkpt lat="40.0728168" lon="-105.2306208">
  <ele>1596.4</ele>
  <time>2026-08-27T18:30:36Z</time>
  <course>129.23</course>
  <speed>0.0</speed>
  <fix>3d</fix>
</trkpt>
<trkpt lat="40.0728168" lon="-105.230621">
  <ele>1596.5</ele>
  <time>2026-08-27T18:30:36Z</time>
  <course>348.19</course>
  <speed>0.01414213562373095</speed>
  <fix>3d</fix>
</trkpt>
<trkpt lat="40.0728167" lon="-105.2306208">
  <ele>1596.4</ele>
  <time>2026-08-27T18:30:36Z</time>
  <course>127.79</course>
  <speed>0.0</speed>
  <fix>3d</fix>
</trkpt>
<trkpt lat="40.0728168" lon="-105.230621">
  <ele>1596.5</ele>
  <time>2026-08-27T18:30:36Z</time>
  <course>348.18</course>
  <speed>0.01414213562373095</speed>
  <fix>3d</fix>
</trkpt>
<trkpt lat="40.0728167" lon="-105.2306207">
  <ele>1596.4</ele>
  <time>2026-08-27T18:30:36Z</time>
  <course>126.26</course>
  <speed>0.0</speed>
  <fix>3d</fix>
</trkpt>
<trkpt lat="40.0728168" lon="-105.230621">
  <ele>1596.5</ele>
  <time>2026-08-27T18:30:36Z</time>
  <course>348.18</course>
  <speed>0.01</speed>
  <fix>3d</fix>
</trkpt>
<trkpt lat="40.0728167" lon="-105.2306206">
  <ele>1596.4</ele>
  <time>2026-08-27T18:30:36Z</time>
  <course>125.26</course>
  <speed>0.0</speed>
  <fix>3d</fix>
</trkpt>
<trkpt lat="40.0728168" lon="-105.2306209">
  <ele>1596.51</ele>
  <time>2026-08-27T18:30:36Z</time>
  <course>348.17</course>
  <speed>0.01414213562373095</speed>
  <fix>3d</fix>
</trkpt>
<trkpt lat="40.0728167" lon="-105.2306206">
  <ele>1596.4</ele>
  <time>2026-08-27T18:30:36Z</time>
  <course>124.13</course>
  <speed>0.0</speed>
  <fix>3d</fix>
</trkpt>
<trkpt lat="40.0728168" lon="-105.2306209">
  <ele>1596.51</ele>
  <time>2026-08-27T18:30:36Z</time>
  <course>348.17</course>
  <speed>0.01414213562373095</speed>
  <fix>3d</fix>
</trkpt>
<trkpt lat="40.0728167" lon="-105.2306206">
  <ele>1596.4</ele>
  <time>2026-08-27T18:30:36Z</time>
  <course>123.21</course>
  <speed>0.0</speed>
  <fix>3d</fix>
</trkpt>
<trkpt lat="40.0728168" lon="-105.2306209">
  <ele>1596.51</ele>
  <time>2026-08-27T18:30:36Z</time>
  <course>348.17</course>
  <speed>0.01414213562373095</speed>
  <fix>3d</fix>
</trkpt>
<trkpt lat="40.0728167" lon="-105.2306206">
  <ele>1596.4</ele>
  <time>2026-08-27T18:30:36Z</time>
  <course>123.32</course>
  <speed>0.0</speed>
  <fix>3d</fix>
</trkpt>
<trkpt lat="40.0728168" lon="-105.2306209">
  <ele>1596.51</ele>
  <time>2026-08-27T18:30:36Z</time>
  <course>348.17</course>
  <speed>0.022360679774997897</speed>
  <fix>3d</fix>
</trkpt>
<trkpt lat="40.0728167" lon="-105.2306206">
  <ele>1596.4</ele>
  <time>2026-08-27T18:30:36Z</time>
  <course>123.88</course>
  <speed>0.0</speed>
  <fix>3d</fix>
</trkpt>
<trkpt lat="40.0728168" lon="-105.2306209">
  <ele>1596.51</ele>
  <time>2026-08-27T18:30:36Z</time>
  <course>348.17</course>
  <speed>0.022360679774997897</speed>
  <fix>3d</fix>
</trkpt>
<trkpt lat="40.0728167" lon="-105.2306206">
  <ele>1596.4</ele>
  <time>2026-08-27T18:30:36Z</time>
  <course>130.71</course>
  <speed>0.0</speed>
  <fix>3d</fix>
</trkpt>
<trkpt lat="40.0728168" lon="-105.2306209">
  <ele>1596.51</ele>
  <time>2026-08-27T18:30:36Z</time>
  <course>348.17</course>
  <speed>0.022360679774997897</speed>
  <fix>3d</fix>
</trkpt>
<trkpt lat="40.0728167" lon="-105.2306206">
  <ele>1596.4</ele>
  <time>2026-08-27T18:30:36Z</time>
  <course>263.27</course>
  <speed>0.0</speed>
  <fix>3d</fix>
</trkpt>
<trkpt lat="40.0728168" lon="-105.2306209">
  <ele>1596.51</ele>
  <time>2026-08-27T18:30:36Z</time>
  <course>348.17</course>
  <speed>0.022360679774997897</speed>
  <fix>3d</fix>
</trkpt>
<trkpt lat="40.0728167" lon="-105.2306206">
  <ele>1596.4</ele>
  <time>2026-08-27T18:30:36Z</time>
  <course>279.54</course>
  <speed>0.0</speed>
  <fix>3d</fix>
</trkpt>
<trkpt lat="40.0728168" lon="-105.2306209">
  <ele>1596.51</ele>
  <time>2026-08-27T18:30:36Z</time>
  <course>348.17</course>
  <speed>0.022360679774997897</speed>
  <fix>3d</fix>
</trkpt>
<trkpt lat="40.0728167" lon="-105.2306206">
  <ele>1596.4</ele>
  <time>2026-08-27T18:30:36Z</time>
  <course>285.06</course>
  <speed>0.0</speed>
  <fix>3d</fix>
</trkpt>
<trkpt lat="40.0728168" lon="-105.2306209">
  <ele>1596.52</ele>
  <time>2026-08-27T18:30:36Z</time>
  <course>348.17</course>
  <speed>0.022360679774997897</speed>
  <fix>3d</fix>
</trkpt>
<trkpt lat="40.0728167" lon="-105.2306206">
  <ele>1596.4</ele>
  <time>2026-08-27T18:30:36Z</time>
  <course>286.37</course>
  <speed>0.0</speed>
  <fix>3d</fix>
</trkpt>
<trkpt lat="40.0728168" lon="-105.2306209">
  <ele>1596.51</ele>
  <time>2026-08-27T18:30:36Z</time>
  <course>348.19</course>
  <speed>0.022360679774997897</speed>
  <fix>3d</fix>
</trkpt>
<trkpt lat="40.0728167" lon="-105.2306206">
  <ele>1596.4</ele>
  <time>2026-08-27T18:30:36Z</time>
  <course>286.79</course>
  <speed>0.0</speed>
  <fix>3d</fix>
</trkpt>
<trkpt lat="40.0728168" lon="-105.2306209">
  <ele>1596.51</ele>
  <time>2026-08-27T18:30:36Z</time>
  <course>348.19</course>
  <speed>0.022360679774997897</speed>
  <fix>3d</fix>
</trkpt>
<trkpt lat="40.0728167" lon="-105.2306206">
  <ele>1596.4</ele>
  <time>2026-08-27T18:30:36Z</time>
  <course>289.42</course>
  <speed>0.0</speed>
  <fix>3d</fix>
</trkpt>
<trkpt lat="40.0728168" lon="-105.2306209">
  <ele>1596.5</ele>
  <time>2026-08-27T18:30:36Z</time>
  <course>348.19</course>
  <speed>0.022360679774997897</speed>
  <fix>3d</fix>
</trkpt>
<trkpt lat="40.0728167" lon="-105.2306206">
  <ele>1596.4</ele>
  <time>2026-08-27T18:30:36Z</time>
  <course>291.75</course>
  <speed>0.0</speed>
  <fix>3d</fix>
</trkpt>
<trkpt lat="40.0728168" lon="-105.2306209">
  <ele>1596.5</ele>
  <time>2026-08-27T18:30:36Z</time>
  <course>348.18</course>
  <speed>0.022360679774997897</speed>
  <fix>3d</fix>
</trkpt>
<trkpt lat="40.0728167" lon="-105.2306206">
  <ele>1596.4</ele>
  <time>2026-08-27T18:30:36Z</time>
  <course>293.13</course>
  <speed>0.0</speed>
  <fix>3d</fix>
</trkpt>
<trkpt lat="40.0728168" lon="-105.2306209">
  <ele>1596.51</ele>
  <time>2026-08-27T18:30:36Z</time>
  <course>348.18</course>
  <speed>0.022360679774997897</speed>
  <fix>3d</fix>
</trkpt>
<trkpt lat="40.0728167" lon="-105.2306206">
  <ele>1596.4</ele>
  <time>2026-08-27T18:30:36Z</time>
  <course>294.13</course>
  <speed>0.0</speed>
  <fix>3d</fix>
</trkpt>
<trkpt lat="40.0728168" lon="-105.2306209">
  <ele>1596.51</ele>
  <time>2026-08-27T18:30:36Z</time>
  <course>348.18</course>
  <speed>0.022360679774997897</speed>
  <fix>3d</fix>
</trkpt>
<trkpt lat="40.0728167" lon="-105.2306206">
  <ele>1596.4</ele>
  <time>2026-08-27T18:30:36Z</time>
  <course>294.96</course>
  <speed>0.0</speed>
  <fix>3d</fix>
</trkpt>
<trkpt lat="40.0728168" lon="-105.2306209">
  <ele>1596.51</ele>
  <time>2026-08-27T18:30:36Z</time>
  <course>348.18</course>
  <speed>0.022360679774997897</speed>
  <fix>3d</fix>
</trkpt>
<trkpt lat="40.0728167" lon="-105.2306206">
  <ele>1596.4</ele>
  <time>2026-08-27T18:30:36Z</time>
  <course>295.67</course>
  <speed>0.0</speed>
  <fix>3d</fix>
</trkpt>
<trkpt lat="40.0728168" lon="-105.2306209">
  <ele>1596.51</ele>
  <time>2026-08-27T18:30:36Z</time>
  <course>348.18</course>
  <speed>0.022360679774997897</speed>
  <fix>3d</fix>
</trkpt>
<trkpt lat="40.0728167" lon="-105.2306206">
  <ele>1596.4</ele>
  <time>2026-08-27T18:30:36Z</time>
  <course>296.35</course>
  <speed>0.0</speed>
  <fix>3d</fix>
</trkpt>
<trkpt lat="40.0728168" lon="-105.2306209">
  <ele>1596.51</ele>
  <time>2026-08-27T18:30:36Z</time>
  <course>348.18</course>
  <speed>0.022360679774997897</speed>
  <fix>3d</fix>
</trkpt>
<trkpt lat="40.0728167" lon="-105.2306206">
  <ele>1596.4</ele>
  <time>2026-08-27T18:30:36Z</time>
  <course>297.02</course>
  <speed>0.0</speed>
  <fix>3d</fix>
</trkpt>
<trkpt lat="40.0728168" lon="-105.2306209">
  <ele>1596.51</ele>
  <time>2026-08-27T18:30:36Z</time>
  <course>348.18</course>
  <speed>0.022360679774997897</speed>
  <fix>3d</fix>
</trkpt>
<trkpt lat="40.0728167" lon="-105.2306207">
  <ele>1596.4</ele>
  <time>2026-08-27T18:30:36Z</time>
  <course>296.76</course>
  <speed>0.0</speed>
  <fix>3d</fix>
</trkpt>
<trkpt lat="40.0728168" lon="-105.2306209">
  <ele>1596.51</ele>
  <time>2026-08-27T18:30:36Z</time>
  <course>348.18</course>
  <speed>0.022360679774997897</speed>
  <fix>3d</fix>
</trkpt>
<trkpt lat="40.0728167" lon="-105.2306208">
  <ele>1596.4</ele>
  <time>2026-08-27T18:30:36Z</time>
  <course>295.26</course>
  <speed>0.0</speed>
  <fix>3d</fix>
</trkpt>
<trkpt lat="40.0728168" lon="-105.2306209">
  <ele>1596.51</ele>
  <time>2026-08-27T18:30:36Z</time>
  <course>348.18</course>
  <speed>0.022360679774997897</speed>
  <fix>3d</fix>
</trkpt>
<trkpt lat="40.0728167" lon="-105.2306208">
  <ele>1596.4</ele>
  <time>2026-08-27T18:30:36Z</time>
  <course>294.81</course>
  <speed>0.0</speed>
  <fix>3d</fix>
</trkpt>
<trkpt lat="40.0728168" lon="-105.2306209">
  <ele>1596.51</ele>
  <time>2026-08-27T18:30:36Z</time>
  <course>348.18</course>
  <speed>0.022360679774997897</speed>
  <fix>3d</fix>
</trkpt>
<trkpt lat="40.0728167" lon="-105.2306208">
  <ele>1596.4</ele>
  <time>2026-08-27T18:30:36Z</time>
  <course>295.85</course>
  <speed>0.0</speed>
  <fix>3d</fix>
</trkpt>
<trkpt lat="40.0728168" lon="-105.2306209">
  <ele>1596.51</ele>
  <time>2026-08-27T18:30:36Z</time>
  <course>348.18</course>
  <speed>0.022360679774997897</speed>
  <fix>3d</fix>
</trkpt>
<trkpt lat="40.0728167" lon="-105.2306208">
  <ele>1596.4</ele>
  <time>2026-08-27T18:30:36Z</time>
  <course>299.43</course>
  <speed>0.0</speed>
  <fix>3d</fix>
</trkpt>
<trkpt lat="40.0728168" lon="-105.2306209">
  <ele>1596.51</ele>
  <time>2026-08-27T18:30:36Z</time>
  <course>348.19</course>
  <speed>0.022360679774997897</speed>
  <fix>3d</fix>
</trkpt>
<trkpt lat="40.0728167" lon="-105.2306208">
  <ele>1596.4</ele>
  <time>2026-08-27T18:30:36Z</time>
  <course>307.03</course>
  <speed>0.0</speed>
  <fix>3d</fix>
</trkpt>
<trkpt lat="40.0728168" lon="-105.2306209">
  <ele>1596.51</ele>
  <time>2026-08-27T18:30:36Z</time>
  <course>348.19</course>
  <speed>0.022360679774997897</speed>
  <fix>3d</fix>
</trkpt>
<trkpt lat="40.0728167" lon="-105.2306208">
  <ele>1596.4</ele>
  <time>2026-08-27T18:30:36Z</time>
  <course>316.57</course>
  <speed>0.0</speed>
  <fix>3d</fix>
</trkpt>
<trkpt lat="40.0728168" lon="-105.2306209">
  <ele>1596.51</ele>
  <time>2026-08-27T18:30:36Z</time>
  <course>348.19</course>
  <speed>0.022360679774997897</speed>
  <fix>3d</fix>
</trkpt>
<trkpt lat="40.0728167" lon="-105.2306208">
  <ele>1596.4</ele>
  <time>2026-08-27T18:30:36Z</time>
  <course>327.2</course>
  <speed>0.0</speed>
  <fix>3d</fix>
</trkpt>
<trkpt lat="40.0728168" lon="-105.2306209">
  <ele>1596.51</ele>
  <time>2026-08-27T18:30:36Z</time>
  <course>348.19</course>
  <speed>0.022360679774997897</speed>
  <fix>3d</fix>
</trkpt>
<trkpt lat="40.0728167" lon="-105.2306208">
  <ele>1596.4</ele>
  <time>2026-08-27T18:30:36Z</time>
  <course>338.46</course>
  <speed>0.0</speed>
  <fix>3d</fix>
</trkpt>
<trkpt lat="40.0728168" lon="-105.2306209">
  <ele>1596.52</ele>
  <time>2026-08-27T18:30:36Z</time>
  <course>348.19</course>
  <speed>0.01414213562373095</speed>
  <fix>3d</fix>
</trkpt>
<trkpt lat="40.0728167" lon="-105.2306208">
  <ele>1596.4</ele>
  <time>2026-08-27T18:30:36Z</time>
  <course>349.19</course>
  <speed>0.0</speed>
  <fix>3d</fix>
</trkpt>
<trkpt lat="40.0728168" lon="-105.2306209">
  <ele>1596.52</ele>
  <time>2026-08-27T18:30:36Z</time>
  <course>348.19</course>
  <speed>0.01414213562373095</speed>
  <fix>3d</fix>
</trkpt>
<trkpt lat="40.0728167" lon="-105.2306208">
  <ele>1596.4</ele>
  <time>2026-08-27T18:30:36Z</time>
  <course>0.2</course>
  <speed>0.0</speed>
  <fix>3d</fix>
</trkpt>
<trkpt lat="40.0728168" lon="-105.2306209">
  <ele>1596.52</ele>
  <time>2026-08-27T18:30:36Z</time>
  <course>348.2</course>
  <speed>0.01414213562373095</speed>
  <fix>3d</fix>
</trkpt>
<trkpt lat="40.0728167" lon="-105.2306208">
  <ele>1596.4</ele>
  <time>2026-08-27T18:30:36Z</time>
  <course>20.36</course>
  <speed>0.0</speed>
  <fix>3d</fix>
</trkpt>
<trkpt lat="40.0728168" lon="-105.2306209">
  <ele>1596.52</ele>
  <time>2026-08-27T18:30:36Z</time>
  <course>348.2</course>
  <speed>0.01414213562373095</speed>
  <fix>3d</fix>
</trkpt>
<trkpt lat="40.0728167" lon="-105.2306208">
  <ele>1596.4</ele>
  <time>2026-08-27T18:30:36Z</time>
  <course>40.5</course>
  <speed>0.0</speed>
  <fix>3d</fix>
</trkpt>
<trkpt lat="40.0728168" lon="-105.2306209">
  <ele>1596.51</ele>
  <time>2026-08-27T18:30:36Z</time>
  <course>348.2</course>
  <speed>0.01414213562373095</speed>
  <fix>3d</fix>
</trkpt>
<trkpt lat="40.0728167" lon="-105.2306208">
  <ele>1596.4</ele>
  <time>2026-08-27T18:30:36Z</time>
  <course>50.32</course>
  <speed>0.0</speed>
  <fix>3d</fix>
</trkpt>
<trkpt lat="40.0728168" lon="-105.2306209">
  <ele>1596.51</ele>
  <time>2026-08-27T18:30:36Z</time>
  <course>348.2</course>
  <speed>0.01414213562373095</speed>
  <fix>3d</fix>
</trkpt>
<trkpt lat="40.0728167" lon="-105.2306208">
  <ele>1596.39</ele>
  <time>2026-08-27T18:30:36Z</time>
  <course>56.18</course>
  <speed>0.0</speed>
  <fix>3d</fix>
</trkpt>
<trkpt lat="40.0728168" lon="-105.2306209">
  <ele>1596.5</ele>
  <time>2026-08-27T18:30:36Z</time>
  <course>348.19</course>
  <speed>0.01414213562373095</speed>
  <fix>3d</fix>
</trkpt>
<trkpt lat="40.0728168" lon="-105.2306208">
  <ele>1596.39</ele>
  <time>2026-08-27T18:30:36Z</time>
  <course>59.45</course>
  <speed>0.0</speed>
  <fix>3d</fix>
</trkpt>
<trkpt lat="40.0728168" lon="-105.2306209">
  <ele>1596.49</ele>
  <time>2026-08-27T18:30:36Z</time>
  <course>348.17</course>
  <speed>0.01414213562373095</speed>
  <fix>3d</fix>
</trkpt>
<trkpt lat="40.0728168" lon="-105.2306208">
  <ele>1596.39</ele>
  <time>2026-08-27T18:30:36Z</time>
  <course>61.33</course>
  <speed>0.0</speed>
  <fix>3d</fix>
</trkpt>
<trkpt lat="40.0728168" lon="-105.2306209">
  <ele>1596.49</ele>
  <time>2026-08-27T18:30:36Z</time>
  <course>348.14</course>
  <speed>0.01414213562373095</speed>
  <fix>3d</fix>
</trkpt>
<trkpt lat="40.0728168" lon="-105.2306208">
  <ele>1596.39</ele>
  <time>2026-08-27T18:30:36Z</time>
  <course>64.62</course>
  <speed>0.0</speed>
  <fix>3d</fix>
</trkpt>
<trkpt lat="40.0728168" lon="-105.2306209">
  <ele>1596.49</ele>
  <time>2026-08-27T18:30:36Z</time>
  <course>348.12</course>
  <speed>0.01414213562373095</speed>
  <fix>3d</fix>
</trkpt>
<trkpt lat="40.0728168" lon="-105.2306208">
  <ele>1596.39</ele>
  <time>2026-08-27T18:30:36Z</time>
  <course>70.35</course>
  <speed>0.0</speed>
  <fix>3d</fix>
</trkpt>
<trkpt lat="40.0728168" lon="-105.2306209">
  <ele>1596.49</ele>
  <time>2026-08-27T18:30:36Z</time>
  <course>348.08</course>
  <speed>0.01414213562373095</speed>
  <fix>3d</fix>
</trkpt>
<trkpt lat="40.0728168" lon="-105.2306208">
  <ele>1596.4</ele>
  <time>2026-08-27T18:30:36Z</time>
  <course>77.83</course>
  <speed>0.0</speed>
  <fix>3d</fix>
</trkpt>
<trkpt lat="40.0728168" lon="-105.2306209">
  <ele>1596.49</ele>
  <time>2026-08-27T18:30:36Z</time>
  <course>348.04</course>
  <speed>0.01</speed>
  <fix>3d</fix>
</trkpt>
<trkpt lat="40.0728168" lon="-105.2306208">
  <ele>1596.4</ele>
  <time>2026-08-27T18:30:36Z</time>
  <course>87.77</course>
  <speed>0.0</speed>
  <fix>3d</fix>
</trkpt>
<trkpt lat="40.0728168" lon="-105.2306209">
  <ele>1596.5</ele>
  <time>2026-08-27T18:30:36Z</time>
  <course>348.03</course>
  <speed>0.01</speed>
  <fix>3d</fix>
</trkpt>
<trkpt lat="40.0728168" lon="-105.2306208">
  <ele>1596.41</ele>
  <time>2026-08-27T18:30:36Z</time>
  <course>99.15</course>
  <speed>0.0</speed>
  <fix>3d</fix>
</trkpt>
<trkpt lat="40.0728168" lon="-105.2306209">
  <ele>1596.51</ele>
  <time>2026-08-27T18:30:36Z</time>
  <course>348.04</course>
  <speed>0.01</speed>
  <fix>3d</fix>
</trkpt>
<trkpt lat="40.0728168" lon="-105.2306208">
  <ele>1596.41</ele>
  <time>2026-08-27T18:30:36Z</time>
  <course>110.89</course>
  <speed>0.0</speed>
  <fix>3d</fix>
</trkpt>
<trkpt lat="40.0728168" lon="-105.2306209">
  <ele>1596.51</ele>
  <time>2026-08-27T18:30:36Z</time>
  <course>348.06</course>
  <speed>0.01</speed>
  <fix>3d</fix>
</trkpt>
<trkpt lat="40.0728168" lon="-105.2306208">
  <ele>1596.42</ele>
  <time>2026-08-27T18:30:36Z</time>
  <course>120.65</course>
  <speed>0.0</speed>
  <fix>3d</fix>
</trkpt>
<trkpt lat="40.0728168" lon="-105.2306209">
  <ele>1596.51</ele>
  <time>2026-08-27T18:30:36Z</time>
  <course>348.07</course>
  <speed>0.01</speed>
  <fix>3d</fix>
</trkpt>
<trkpt lat="40.0728168" lon="-105.2306208">
  <ele>1596.42</ele>
  <time>2026-08-27T18:30:36Z</time>
  <course>126.58</course>
  <speed>0.0</speed>
  <fix>3d</fix>
</trkpt>
<trkpt lat="40.0728168" lon="-105.2306209">
  <ele>1596.52</ele>
  <time>2026-08-27T18:30:36Z</time>
  <course>348.09</course>
  <speed>0.01</speed>
  <fix>3d</fix>
</trkpt>
<trkpt lat="40.0728168" lon="-105.2306208">
  <ele>1596.42</ele>
  <time>2026-08-27T18:30:36Z</time>
  <course>130.95</course>
  <speed>0.0</speed>
  <fix>3d</fix>
</trkpt>
<trkpt lat="40.0728168" lon="-105.2306209">
  <ele>1596.52</ele>
  <time>2026-08-27T18:30:36Z</time>
  <course>348.12</course>
  <speed>0.01</speed>
  <fix>3d</fix>
</trkpt>
<trkpt lat="40.0728168" lon="-105.2306208">
  <ele>1596.42</ele>
  <time>2026-08-27T18:30:36Z</time>
  <course>131.92</course>
  <speed>0.0</speed>
  <fix>3d</fix>
</trkpt>
<trkpt lat="40.0728168" lon="-105.2306209">
  <ele>1596.52</ele>
  <time>2026-08-27T18:30:36Z</time>
  <course>348.13</course>
  <speed>0.01</speed>
  <fix>3d</fix>
</trkpt>
<trkpt lat="40.0728168" lon="-105.2306207">
  <ele>1596.42</ele>
  <time>2026-08-27T18:30:36Z</time>
  <course>130.4</course>
  <speed>0.0</speed>
  <fix>3d</fix>
</trkpt>
<trkpt lat="40.0728168" lon="-105.2306209">
  <ele>1596.51</ele>
  <time>2026-08-27T18:30:36Z</time>
  <course>348.15</course>
  <speed>0.01</speed>
  <fix>3d</fix>
</trkpt>
<trkpt lat="40.0728168" lon="-105.2306206">
  <ele>1596.42</ele>
  <time>2026-08-27T18:30:36Z</time>
  <course>129.21</course>
  <speed>0.0</speed>
  <fix>3d</fix>
</trkpt>
<trkpt lat="40.0728168" lon="-105.2306209">
  <ele>1596.51</ele>
  <time>2026-08-27T18:30:36Z</time>
  <course>348.15</course>
  <speed>0.01</speed>
  <fix>3d</fix>
</trkpt>
<trkpt lat="40.0728168" lon="-105.2306206">
  <ele>1596.42</ele>
  <time>2026-08-27T18:30:36Z</time>
  <course>127.97</course>
  <speed>0.0</speed>
  <fix>3d</fix>
</trkpt>
<trkpt lat="40.0728168" lon="-105.2306209">
  <ele>1596.51</ele>
  <time>2026-08-27T18:30:36Z</time>
  <course>348.14</course>
  <speed>0.01</speed>
  <fix>3d</fix>
</trkpt>
<trkpt lat="40.0728168" lon="-105.2306206">
  <ele>1596.42</ele>
  <time>2026-08-27T18:30:36Z</time>
  <course>127.92</course>
  <speed>0.0</speed>
  <fix>3d</fix>
</trkpt>
<trkpt lat="40.0728168" lon="-105.2306209">
  <ele>1596.5</ele>
  <time>2026-08-27T18:30:36Z</time>
  <course>348.13</course>
  <speed>0.01414213562373095</speed>
  <fix>3d</fix>
</trkpt>
<trkpt lat="40.0728168" lon="-105.2306206">
  <ele>1596.42</ele>
  <time>2026-08-27T18:30:36Z</time>
  <course>128.43</course>
  <speed>0.0</speed>
  <fix>3d</fix>
</trkpt>
<trkpt lat="40.0728168" lon="-105.2306209">
  <ele>1596.5</ele>
  <time>2026-08-27T18:30:36Z</time>
  <course>348.12</course>
  <speed>0.01414213562373095</speed>
  <fix>3d</fix>
</trkpt>
<trkpt lat="40.0728168" lon="-105.2306206">
  <ele>1596.42</ele>
  <time>2026-08-27T18:30:36Z</time>
  <course>131.99</course>
  <speed>0.0</speed>
  <fix>3d</fix>
</trkpt>
<trkpt lat="40.0728168" lon="-105.2306209">
  <ele>1596.5</ele>
  <time>2026-08-27T18:30:36Z</time>
  <course>348.11</course>
  <speed>0.02</speed>
  <fix>3d</fix>
</trkpt>
<trkpt lat="40.0728168" lon="-105.2306206">
  <ele>1596.42</ele>
  <time>2026-08-27T18:30:36Z</time>
  <course>145.44</course>
  <speed>0.0</speed>
  <fix>3d</fix>
</trkpt>
<trkpt lat="40.0728168" lon="-105.2306209">
  <ele>1596.5</ele>
  <time>2026-08-27T18:30:36Z</time>
  <course>348.1</course>
  <speed>0.02</speed>
  <fix>3d</fix>
</trkpt>
<trkpt lat="40.0728168" lon="-105.2306206">
  <ele>1596.42</ele>
  <time>2026-08-27T18:30:36Z</time>
  <course>166.37</course>
  <speed>0.0</speed>
  <fix>3d</fix>
</trkpt>
<trkpt lat="40.0728168" lon="-105.2306209">
  <ele>1596.49</ele>
  <time>2026-08-27T18:30:36Z</time>
  <course>348.09</course>
  <speed>0.02</speed>
  <fix>3d</fix>
</trkpt>
<trkpt lat="40.0728168" lon="-105.2306206">
  <ele>1596.42</ele>
  <time>2026-08-27T18:30:36Z</time>
  <course>181.4</course>
  <speed>0.0</speed>
  <fix>3d</fix>
</trkpt>
<trkpt lat="40.0728168" lon="-105.2306209">
  <ele>1596.49</ele>
  <time>2026-08-27T18:30:36Z</time>
  <course>348.06</course>
  <speed>0.02</speed>
  <fix>3d</fix>
</trkpt>
<trkpt lat="40.0728168" lon="-105.2306206">
  <ele>1596.42</ele>
  <time>2026-08-27T18:30:36Z</time>
  <course>192.87</course>
  <speed>0.0</speed>
  <fix>3d</fix>
</trkpt>
<trkpt lat="40.0728168" lon="-105.2306209">
  <ele>1596.49</ele>
  <time>2026-08-27T18:30:36Z</time>
  <course>348.04</course>
  <speed>0.02</speed>
  <fix>3d</fix>
</trkpt>
<trkpt lat="40.0728168" lon="-105.2306206">
  <ele>1596.43</ele>
  <time>2026-08-27T18:30:36Z</time>
  <course>204.24</course>
  <speed>0.0</speed>
  <fix>3d</fix>
</trkpt>
<trkpt lat="40.0728168" lon="-105.2306209">
  <ele>1596.5</ele>
  <time>2026-08-27T18:30:36Z</time>
  <course>348.02</course>
  <speed>0.02</speed>
  <fix>3d</fix>
</trkpt>
<trkpt lat="40.0728167" lon="-105.2306206">
  <ele>1596.43</ele>
  <time>2026-08-27T18:30:36Z</time>
  <course>211.2</course>
  <speed>0.0</speed>
  <fix>3d</fix>
</trkpt>
<trkpt lat="40.0728168" lon="-105.2306209">
  <ele>1596.5</ele>
  <time>2026-08-27T18:30:36Z</time>
  <course>348.01</course>
  <speed>0.02</speed>
  <fix>3d</fix>
</trkpt>
<trkpt lat="40.0728167" lon="-105.2306206">
  <ele>1596.44</ele>
  <time>2026-08-27T18:30:36Z</time>
  <course>214.6</course>
  <speed>0.0</speed>
  <fix>3d</fix>
</trkpt>
<trkpt lat="40.0728168" lon="-105.2306209">
  <ele>1596.51</ele>
  <time>2026-08-27T18:30:36Z</time>
  <course>348.03</course>
  <speed>0.02</speed>
  <fix>3d</fix>
</trkpt>
<trkpt lat="40.0728167" lon="-105.2306206">
  <ele>1596.44</ele>
  <time>2026-08-27T18:30:36Z</time>
  <course>219.41</course>
  <speed>0.0</speed>
  <fix>3d</fix>
</trkpt>
<trkpt lat="40.0728168" lon="-105.2306209">
  <ele>1596.51</ele>
  <time>2026-08-27T18:30:36Z</time>
  <course>348.05</course>
  <speed>0.02</speed>
  <fix>3d</fix>
</trkpt>
<trkpt lat="40.0728167" lon="-105.2306206">
  <ele>1596.45</ele>
  <time>2026-08-27T18:30:36Z</time>
  <course>225.38</course>
  <speed>0.0</speed>
  <fix>3d</fix>
</trkpt>
<trkpt lat="40.0728168" lon="-105.2306209">
  <ele>1596.51</ele>
  <time>2026-08-27T18:30:36Z</time>
  <course>348.06</course>
  <speed>0.02</speed>
  <fix>3d</fix>
</trkpt>
<trkpt lat="40.0728167" lon="-105.2306206">
  <ele>1596.45</ele>
  <time>2026-08-27T18:30:36Z</time>
  <course>230.92</course>
  <speed>0.0</speed>
  <fix>3d</fix>
</trkpt>
<trkpt lat="40.0728168" lon="-105.2306209">
  <ele>1596.52</ele>
  <time>2026-08-27T18:30:36Z</time>
  <course>348.08</course>
  <speed>0.022360679774997897</speed>
  <fix>3d</fix>
</trkpt>
<trkpt lat="40.0728167" lon="-105.2306206">
  <ele>1596.45</ele>
  <time>2026-08-27T18:30:36Z</time>
  <course>235.97</course>
  <speed>0.0</speed>
  <fix>3d</fix>
</trkpt>
<trkpt lat="40.0728168" lon="-105.2306209">
  <ele>1596.53</ele>
  <time>2026-08-27T18:30:36Z</time>
  <course>348.09</course>
  <speed>0.022360679774997897</speed>
  <fix>3d</fix>
</trkpt>
<trkpt lat="40.0728167" lon="-105.2306206">
  <ele>1596.45</ele>
  <time>2026-08-27T18:30:36Z</time>
  <course>241.43</course>
  <speed>0.0</speed>
  <fix>3d</fix>
</trkpt>
<trkpt lat="40.0728168" lon="-105.2306209">
  <ele>1596.53</ele>
  <time>2026-08-27T18:30:36Z</time>
  <course>348.12</course>
  <speed>0.022360679774997897</speed>
  <fix>3d</fix>
</trkpt>
<trkpt lat="40.0728167" lon="-105.2306206">
  <ele>1596.45</ele>
  <time>2026-08-27T18:30:36Z</time>
  <course>251.71</course>
  <speed>0.0</speed>
  <fix>3d</fix>
</trkpt>
<trkpt lat="40.0728168" lon="-105.2306209">
  <ele>1596.52</ele>
  <time>2026-08-27T18:30:36Z</time>
  <course>348.15</course>
  <speed>0.022360679774997897</speed>
  <fix>3d</fix>
</trkpt>
<trkpt lat="40.0728167" lon="-105.2306206">
  <ele>1596.45</ele>
  <time>2026-08-27T18:30:36Z</time>
  <course>268.09</course>
  <speed>0.0</speed>
  <fix>3d</fix>
</trkpt>
<trkpt lat="40.0728168" lon="-105.2306209">
  <ele>1596.52</ele>
  <time>2026-08-27T18:30:36Z</time>
  <course>348.17</course>
  <speed>0.022360679774997897</speed>
  <fix>3d</fix>
</trkpt>
<trkpt lat="40.0728167" lon="-105.2306206">
  <ele>1596.45</ele>
  <time>2026-08-27T18:30:36Z</time>
  <course>280.94</course>
  <speed>0.0</speed>
  <fix>3d</fix>
</trkpt>
<trkpt lat="40.0728168" lon="-105.2306209">
  <ele>1596.52</ele>
  <time>2026-08-27T18:30:36Z</time>
  <course>348.18</course>
  <speed>0.022360679774997897</speed>
  <fix>3d</fix>
</trkpt>
<trkpt lat="40.0728167" lon="-105.2306206">
  <ele>1596.45</ele>
  <time>2026-08-27T18:30:36Z</time>
  <course>291.37</course>
  <speed>0.0</speed>
  <fix>3d</fix>
</trkpt>
<trkpt lat="40.0728168" lon="-105.2306209">
  <ele>1596.52</ele>
  <time>2026-08-27T18:30:36Z</time>
  <course>348.17</course>
  <speed>0.022360679774997897</speed>
  <fix>3d</fix>
</trkpt>
<trkpt lat="40.0728167" lon="-105.2306206">
  <ele>1596.44</ele>
  <time>2026-08-27T18:30:36Z</time>
  <course>301.97</course>
  <speed>0.0</speed>
  <fix>3d</fix>
</trkpt>
<trkpt lat="40.0728168" lon="-105.2306209">
  <ele>1596.52</ele>
  <time>2026-08-27T18:30:36Z</time>
  <course>348.16</course>
  <speed>0.022360679774997897</speed>
  <fix>3d</fix>
</trkpt>
<trkpt lat="40.0728167" lon="-105.2306206">
  <ele>1596.44</ele>
  <time>2026-08-27T18:30:36Z</time>
  <course>307.24</course>
  <speed>0.0</speed>
  <fix>3d</fix>
</trkpt>
<trkpt lat="40.0728168" lon="-105.2306209">
  <ele>1596.51</ele>
  <time>2026-08-27T18:30:36Z</time>
  <course>348.15</course>
  <speed>0.022360679774997897</speed>
  <fix>3d</fix>
</trkpt>
<trkpt lat="40.0728167" lon="-105.2306206">
  <ele>1596.44</ele>
  <time>2026-08-27T18:30:36Z</time>
  <course>311.83</course>
  <speed>0.0</speed>
  <fix>3d</fix>
</trkpt>
<trkpt lat="40.0728168" lon="-105.2306209">
  <ele>1596.51</ele>
  <time>2026-08-27T18:30:37Z</time>
  <course>348.14</course>
  <speed>0.022360679774997897</speed>
  <fix>3d</fix>
</trkpt>
<trkpt lat="40.0728167" lon="-105.2306206">
  <ele>1596.44</ele>
  <time>2026-08-27T18:30:37Z</time>
  <course>314.01</course>
  <speed>0.0</speed>
  <fix>3d</fix>
</trkpt>
<trkpt lat="40.0728168" lon="-105.2306209">
  <ele>1596.51</ele>
  <time>2026-08-27T18:30:37Z</time>
  <course>348.14</course>
  <speed>0.022360679774997897</speed>
  <fix>3d</fix>
</trkpt>
<trkpt lat="40.0728167" lon="-105.2306207">
  <ele>1596.44</ele>
  <time>2026-08-27T18:30:37Z</time>
  <course>312.9</course>
  <speed>0.0</speed>
  <fix>3d</fix>
</trkpt>
<trkpt lat="40.0728168" lon="-105.2306209">
  <ele>1596.51</ele>
  <time>2026-08-27T18:30:37Z</time>
  <course>348.13</course>
  <speed>0.022360679774997897</speed>
  <fix>3d</fix>
</trkpt>
<trkpt lat="40.0728167" lon="-105.2306208">
  <ele>1596.44</ele>
  <time>2026-08-27T18:30:37Z</time>
  <course>312.34</course>
  <speed>0.0</speed>
  <fix>3d</fix>
</trkpt>
<trkpt lat="40.0728168" lon="-105.2306209">
  <ele>1596.51</ele>
  <time>2026-08-27T18:30:37Z</time>
  <course>348.13</course>
  <speed>0.022360679774997897</speed>
  <fix>3d</fix>
</trkpt>
<trkpt lat="40.0728167" lon="-105.2306208">
  <ele>1596.44</ele>
  <time>2026-08-27T18:30:37Z</time>
  <course>311.65</course>
  <speed>0.0</speed>
  <fix>3d</fix>
</trkpt>
<trkpt lat="40.0728168" lon="-105.2306209">
  <ele>1596.51</ele>
  <time>2026-08-27T18:30:37Z</time>
  <course>348.12</course>
  <speed>0.022360679774997897</speed>
  <fix>3d</fix>
</trkpt>
<trkpt lat="40.0728167" lon="-105.2306208">
  <ele>1596.44</ele>
  <time>2026-08-27T18:30:37Z</time>
  <course>312.04</course>
  <speed>0.0</speed>
  <fix>3d</fix>
</trkpt>
<trkpt lat="40.0728168" lon="-105.2306209">
  <ele>1596.51</ele>
  <time>2026-08-27T18:30:37Z</time>
  <course>348.12</course>
  <speed>0.022360679774997897</speed>
  <fix>3d</fix>
</trkpt>
<trkpt lat="40.0728167" lon="-105.2306208">
  <ele>1596.44</ele>
  <time>2026-08-27T18:30:37Z</time>
  <course>313.11</course>
  <speed>0.0</speed>
  <fix>3d</fix>
</trkpt>
<trkpt lat="40.0728168" lon="-105.2306209">
  <ele>1596.51</ele>
  <time>2026-08-27T18:30:37Z</time>
  <course>348.12</course>
  <speed>0.022360679774997897</speed>
  <fix>3d</fix>
</trkpt>
<trkpt lat="40.0728167" lon="-105.2306208">
  <ele>1596.44</ele>
  <time>2026-08-27T18:30:37Z</time>
  <course>313.68</course>
  <speed>0.0</speed>
  <fix>3d</fix>
</trkpt>
<trkpt lat="40.0728168" lon="-105.2306209">
  <ele>1596.51</ele>
  <time>2026-08-27T18:30:37Z</time>
  <course>348.12</course>
  <speed>0.022360679774997897</speed>
  <fix>3d</fix>
</trkpt>
<trkpt lat="40.0728167" lon="-105.2306208">
  <ele>1596.44</ele>
  <time>2026-08-27T18:30:37Z</time>
  <course>318.02</course>
  <speed>0.0</speed>
  <fix>3d</fix>
</trkpt>
<trkpt lat="40.0728168" lon="-105.2306209">
  <ele>1596.51</ele>
  <time>2026-08-27T18:30:37Z</time>
  <course>348.12</course>
  <speed>0.022360679774997897</speed>
  <fix>3d</fix>
</trkpt>
<trkpt lat="40.0728167" lon="-105.2306208">
  <ele>1596.44</ele>
  <time>2026-08-27T18:30:37Z</time>
  <course>332.43</course>
  <speed>0.0</speed>
  <fix>3d</fix>
</trkpt>
<trkpt lat="40.0728168" lon="-105.2306209">
  <ele>1596.51</ele>
  <time>2026-08-27T18:30:37Z</time>
  <course>348.12</course>
  <speed>0.01414213562373095</speed>
  <fix>3d</fix>
</trkpt>
<trkpt lat="40.0728167" lon="-105.2306208">
  <ele>1596.44</ele>
  <time>2026-08-27T18:30:37Z</time>
  <course>6.02</course>
  <speed>0.0</speed>
  <fix>3d</fix>
</trkpt>
<trkpt lat="40.0728168" lon="-105.2306209">
  <ele>1596.51</ele>
  <time>2026-08-27T18:30:37Z</time>
  <course>348.13</course>
  <speed>0.01414213562373095</speed>
  <fix>3d</fix>
</trkpt>
<trkpt lat="40.0728167" lon="-105.2306208">
  <ele>1596.44</ele>
  <time>2026-08-27T18:30:37Z</time>
  <course>52.73</course>
  <speed>0.0</speed>
  <fix>3d</fix>
</trkpt>
<trkpt lat="40.0728168" lon="-105.2306209">
  <ele>1596.5</ele>
  <time>2026-08-27T18:30:37Z</time>
  <course>348.12</course>
  <speed>0.01414213562373095</speed>
  <fix>3d</fix>
</trkpt>
<trkpt lat="40.0728167" lon="-105.2306208">
  <ele>1596.44</ele>
  <time>2026-08-27T18:30:37Z</time>
  <course>75.59</course>
  <speed>0.0</speed>
  <fix>3d</fix>
</trkpt>
<trkpt lat="40.0728168" lon="-105.2306209">
  <ele>1596.5</ele>
  <time>2026-08-27T18:30:37Z</time>
  <course>348.12</course>
  <speed>0.01414213562373095</speed>
  <fix>3d</fix>
</trkpt>
<trkpt lat="40.0728167" lon="-105.2306208">
  <ele>1596.44</ele>
  <time>2026-08-27T18:30:37Z</time>
  <course>79.67</course>
  <speed>0.0</speed>
  <fix>3d</fix>
</trkpt>
<trkpt lat="40.0728168" lon="-105.2306209">
  <ele>1596.5</ele>
  <time>2026-08-27T18:30:37Z</time>
  <course>348.11</course>
  <speed>0.01414213562373095</speed>
  <fix>3d</fix>
</trkpt>
<trkpt lat="40.0728167" lon="-105.2306208">
  <ele>1596.44</ele>
  <time>2026-08-27T18:30:37Z</time>
  <course>75.1</course>
  <speed>0.0</speed>
  <fix>3d</fix>
</trkpt>
<trkpt lat="40.0728168" lon="-105.2306209">
  <ele>1596.5</ele>
  <time>2026-08-27T18:30:37Z</time>
  <course>348.11</course>
  <speed>0.01414213562373095</speed>
  <fix>3d</fix>
</trkpt>
<trkpt lat="40.0728167" lon="-105.2306208">
  <ele>1596.44</ele>
  <time>2026-08-27T18:30:37Z</time>
  <course>67.93</course>
  <speed>0.0</speed>
  <fix>3d</fix>
</trkpt>
<trkpt lat="40.0728168" lon="-105.2306209">
  <ele>1596.5</ele>
  <time>2026-08-27T18:30:37Z</time>
  <course>348.11</course>
  <speed>0.01414213562373095</speed>
  <fix>3d</fix>
</trkpt>
<trkpt lat="40.0728167" lon="-105.2306208">
  <ele>1596.44</ele>
  <time>2026-08-27T18:30:37Z</time>
  <course>61.87</course>
  <speed>0.0</speed>
  <fix>3d</fix>
</trkpt>
<trkpt lat="40.0728168" lon="-105.2306209">
  <ele>1596.51</ele>
  <time>2026-08-27T18:30:37Z</time>
  <course>348.11</course>
  <speed>0.01414213562373095</speed>
  <fix>3d</fix>
</trkpt>
<trkpt lat="40.0728167" lon="-105.2306208">
  <ele>1596.44</ele>
  <time>2026-08-27T18:30:37Z</time>
  <course>56.95</course>
  <speed>0.0</speed>
  <fix>3d</fix>
</trkpt>
<trkpt lat="40.0728168" lon="-105.2306209">
  <ele>1596.51</ele>
  <time>2026-08-27T18:30:37Z</time>
  <course>348.12</course>
  <speed>0.01414213562373095</speed>
  <fix>3d</fix>
</trkpt>
<trkpt lat="40.0728167" lon="-105.2306208">
  <ele>1596.45</ele>
  <time>2026-08-27T18:30:37Z</time>
  <course>52.31</course>
  <speed>0.0</speed>
  <fix>3d</fix>
</trkpt>
<trkpt lat="40.0728168" lon="-105.2306209">
  <ele>1596.52</ele>
  <time>2026-08-27T18:30:37Z</time>
  <course>348.12</course>
  <speed>0.01414213562373095</speed>
  <fix>3d</fix>
</trkpt>
<trkpt lat="40.0728167" lon="-105.2306208">
  <ele>1596.45</ele>
  <time>2026-08-27T18:30:37Z</time>
  <course>48.44</course>
  <speed>0.0</speed>
  <fix>3d</fix>
</trkpt>
<trkpt lat="40.0728168" lon="-105.2306209">
  <ele>1596.52</ele>
  <time>2026-08-27T18:30:37Z</time>
  <course>348.12</course>
  <speed>0.01414213562373095</speed>
  <fix>3d</fix>
</trkpt>
<trkpt lat="40.0728167" lon="-105.2306208">
  <ele>1596.45</ele>
  <time>2026-08-27T18:30:37Z</time>
  <course>45.45</course>
  <speed>0.0</speed>
  <fix>3d</fix>
</trkpt>
<trkpt lat="40.0728168" lon="-105.2306209">
  <ele>1596.52</ele>
  <time>2026-08-27T18:30:37Z</time>
  <course>348.13</course>
  <speed>0.01414213562373095</speed>
  <fix>3d</fix>
</trkpt>
<trkpt lat="40.0728167" lon="-105.2306208">
  <ele>1596.45</ele>
  <time>2026-08-27T18:30:37Z</time>
  <course>43.6</course>
  <speed>0.0</speed>
  <fix>3d</fix>
</trkpt>
<trkpt lat="40.0728168" lon="-105.2306209">
  <ele>1596.53</ele>
  <time>2026-08-27T18:30:37Z</time>
  <course>348.15</course>
  <speed>0.01414213562373095</speed>
  <fix>3d</fix>
</trkpt>
<trkpt lat="40.0728167" lon="-105.2306208">
  <ele>1596.45</ele>
  <time>2026-08-27T18:30:37Z</time>
  <course>45.03</course>
  <speed>0.0</speed>
  <fix>3d</fix>
</trkpt>
<trkpt lat="40.0728168" lon="-105.2306209">
  <ele>1596.52</ele>
  <time>2026-08-27T18:30:37Z</time>
  <course>348.16</course>
  <speed>0.01414213562373095</speed>
  <fix>3d</fix>
</trkpt>
<trkpt lat="40.0728168" lon="-105.2306208">
  <ele>1596.45</ele>
  <time>2026-08-27T18:30:37Z</time>
  <course>49.19</course>
  <speed>0.0</speed>
  <fix>3d</fix>
</trkpt>
<trkpt lat="40.0728168" lon="-105.2306209">
  <ele>1596.52</ele>
  <time>2026-08-27T18:30:37Z</time>
  <course>348.16</course>
  <speed>0.01414213562373095</speed>
  <fix>3d</fix>
</trkpt>
<trkpt lat="40.0728168" lon="-105.2306208">
  <ele>1596.44</ele>
  <time>2026-08-27T18:30:37Z</time>
  <course>52.52</course>
  <speed>0.0</speed>
  <fix>3d</fix>
</trkpt>
<trkpt lat="40.0728168" lon="-105.2306209">
  <ele>1596.52</ele>
  <time>2026-08-27T18:30:37Z</time>
  <course>348.16</course>
  <speed>0.01414213562373095</speed>
  <fix>3d</fix>
</trkpt>
<trkpt lat="40.0728168" lon="-105.2306207">
  <ele>1596.44</ele>
  <time>2026-08-27T18:30:37Z</time>
  <course>55.43</course>
  <speed>0.0</speed>
  <fix>3d</fix>
</trkpt>
<trkpt lat="40.0728168" lon="-105.2306209">
  <ele>1596.52</ele>
  <time>2026-08-27T18:30:37Z</time>
  <course>348.16</course>
  <speed>0.01414213562373095</speed>
  <fix>3d</fix>
</trkpt>
<trkpt lat="40.0728168" lon="-105.2306206">
  <ele>1596.44</ele>
  <time>2026-08-27T18:30:37Z</time>
  <course>59.13</course>
  <speed>0.0</speed>
  <fix>3d</fix>
</trkpt>
<trkpt lat="40.0728168" lon="-105.2306209">
  <ele>1596.51</ele>
  <time>2026-08-27T18:30:37Z</time>
  <course>348.16</course>
  <speed>0.01414213562373095</speed>
  <fix>3d</fix>
</trkpt>
<trkpt lat="40.0728168" lon="-105.2306206">
  <ele>1596.43</ele>
  <time>2026-08-27T18:30:37Z</time>
  <course>64.23</course>
  <speed>0.0</speed>
  <fix>3d</fix>
</trkpt>
<trkpt lat="40.0728168" lon="-105.2306209">
  <ele>1596.51</ele>
  <time>2026-08-27T18:30:37Z</time>
  <course>348.15</course>
  <speed>0.01414213562373095</speed>
  <fix>3d</fix>
</trkpt>
<trkpt lat="40.0728168" lon="-105.2306206">
  <ele>1596.43</ele>
  <time>2026-08-27T18:30:37Z</time>
  <course>70.06</course>
  <speed>0.0</speed>
  <fix>3d</fix>
</trkpt>
<trkpt lat="40.0728168" lon="-105.2306209">
  <ele>1596.5</ele>
  <time>2026-08-27T18:30:37Z</time>
  <course>348.15</course>
  <speed>0.01414213562373095</speed>
  <fix>3d</fix>
</trkpt>
<trkpt lat="40.0728168" lon="-105.2306206">
  <ele>1596.43</ele>
  <time>2026-08-27T18:30:37Z</time>
  <course>74.95</course>
  <speed>0.0</speed>
  <fix>3d</fix>
</trkpt>
<trkpt lat="40.0728168" lon="-105.2306209">
  <ele>1596.5</ele>
  <time>2026-08-27T18:30:37Z</time>
  <course>348.12</course>
  <speed>0.01414213562373095</speed>
  <fix>3d</fix>
</trkpt>
<trkpt lat="40.0728168" lon="-105.2306206">
  <ele>1596.43</ele>
  <time>2026-08-27T18:30:37Z</time>
  <course>79.82</course>
  <speed>0.0</speed>
  <fix>3d</fix>
</trkpt>
<trkpt lat="40.0728168" lon="-105.2306208">
  <ele>1596.51</ele>
  <time>2026-08-27T18:30:37Z</time>
  <course>348.1</course>
  <speed>0.022360679774997897</speed>
  <fix>3d</fix>
</trkpt>
<trkpt lat="40.0728168" lon="-105.2306206">
  <ele>1596.43</ele>
  <time>2026-08-27T18:30:37Z</time>
  <course>90.33</course>
  <speed>0.0</speed>
  <fix>3d</fix>
</trkpt>
<trkpt lat="40.0728168" lon="-105.2306208">
  <ele>1596.51</ele>
  <time>2026-08-27T18:30:37Z</time>
  <course>348.08</course>
  <speed>0.02</speed>
  <fix>3d</fix>
</trkpt>
<trkpt lat="40.0728168" lon="-105.2306206">
  <ele>1596.43</ele>
  <time>2026-08-27T18:30:37Z</time>
  <course>125.18</course>
  <speed>0.0</speed>
  <fix>3d</fix>
</trkpt>
<trkpt lat="40.0728168" lon="-105.2306208">
  <ele>1596.51</ele>
  <time>2026-08-27T18:30:37Z</time>
  <course>348.07</course>
  <speed>0.02</speed>
  <fix>3d</fix>
</trkpt>
<trkpt lat="40.0728168" lon="-105.2306206">
  <ele>1596.43</ele>
  <time>2026-08-27T18:30:37Z</time>
  <course>184.97</course>
  <speed>0.0</speed>
  <fix>3d</fix>
</trkpt>
<trkpt lat="40.0728168" lon="-105.2306208">
  <ele>1596.51</ele>
  <time>2026-08-27T18:30:37Z</time>
  <course>348.08</course>
  <speed>0.02</speed>
  <fix>3d</fix>
</trkpt>
<trkpt lat="40.0728168" lon="-105.2306206">
  <ele>1596.43</ele>
  <time>2026-08-27T18:30:37Z</time>
  <course>207.59</course>
  <speed>0.0</speed>
  <fix>3d</fix>
</trkpt>
<trkpt lat="40.0728168" lon="-105.2306208">
  <ele>1596.51</ele>
  <time>2026-08-27T18:30:37Z</time>
  <course>348.08</course>
  <speed>0.02</speed>
  <fix>3d</fix>
</trkpt>
<trkpt lat="40.0728168" lon="-105.2306206">
  <ele>1596.43</ele>
  <time>2026-08-27T18:30:37Z</time>
  <course>213.7</course>
  <speed>0.0</speed>
  <fix>3d</fix>
</trkpt>
<trkpt lat="40.0728168" lon="-105.2306208">
  <ele>1596.51</ele>
  <time>2026-08-27T18:30:37Z</time>
  <course>348.08</course>
  <speed>0.02</speed>
  <fix>3d</fix>
</trkpt>
<trkpt lat="40.0728168" lon="-105.2306206">
  <ele>1596.43</ele>
  <time>2026-08-27T18:30:37Z</time>
  <course>215.1</course>
  <speed>0.0</speed>
  <fix>3d</fix>
</trkpt>
<trkpt lat="40.0728168" lon="-105.2306208">
  <ele>1596.5</ele>
  <time>2026-08-27T18:30:37Z</time>
  <course>348.07</course>
  <speed>0.02</speed>
  <fix>3d</fix>
</trkpt>
<trkpt lat="40.0728168" lon="-105.2306206">
  <ele>1596.43</ele>
  <time>2026-08-27T18:30:37Z</time>
  <course>214.59</course>
  <speed>0.0</speed>
  <fix>3d</fix>
</trkpt>
<trkpt lat="40.0728168" lon="-105.2306208">
  <ele>1596.5</ele>
  <time>2026-08-27T18:30:37Z</time>
  <course>348.07</course>
  <speed>0.02</speed>
  <fix>3d</fix>
</trkpt>
<trkpt lat="40.0728168" lon="-105.2306206">
  <ele>1596.43</ele>
  <time>2026-08-27T18:30:37Z</time>
  <course>213.04</course>
  <speed>0.0</speed>
  <fix>3d</fix>
</trkpt>
<trkpt lat="40.0728168" lon="-105.2306208">
  <ele>1596.5</ele>
  <time>2026-08-27T18:30:37Z</time>
  <course>348.06</course>
  <speed>0.02</speed>
  <fix>3d</fix>
</trkpt>
<trkpt lat="40.0728168" lon="-105.2306206">
  <ele>1596.43</ele>
  <time>2026-08-27T18:30:37Z</time>
  <course>212.99</course>
  <speed>0.0</speed>
  <fix>3d</fix>
</trkpt>
<trkpt lat="40.0728168" lon="-105.2306208">
  <ele>1596.51</ele>
  <time>2026-08-27T18:30:37Z</time>
  <course>348.05</course>
  <speed>0.02</speed>
  <fix>3d</fix>
</trkpt>
<trkpt lat="40.0728168" lon="-105.2306206">
  <ele>1596.43</ele>
  <time>2026-08-27T18:30:37Z</time>
  <course>214.06</course>
  <speed>0.0</speed>
  <fix>3d</fix>
</trkpt>
<trkpt lat="40.0728168" lon="-105.2306208">
  <ele>1596.51</ele>
  <time>2026-08-27T18:30:37Z</time>
  <course>348.05</course>
  <speed>0.02</speed>
  <fix>3d</fix>
</trkpt>
<trkpt lat="40.0728168" lon="-105.2306206">
  <ele>1596.44</ele>
  <time>2026-08-27T18:30:37Z</time>
  <course>214.18</course>
  <speed>0.0</speed>
  <fix>3d</fix>
</trkpt>
<trkpt lat="40.0728168" lon="-105.2306208">
  <ele>1596.51</ele>
  <time>2026-08-27T18:30:37Z</time>
  <course>348.05</course>
  <speed>0.02</speed>
  <fix>3d</fix>
</trkpt>
<trkpt lat="40.0728168" lon="-105.2306206">
  <ele>1596.44</ele>
  <time>2026-08-27T18:30:37Z</time>
  <course>213.2</course>
  <speed>0.0</speed>
  <fix>3d</fix>
</trkpt>
<trkpt lat="40.0728168" lon="-105.2306208">
  <ele>1596.51</ele>
  <time>2026-08-27T18:30:37Z</time>
  <course>348.05</course>
  <speed>0.02</speed>
  <fix>3d</fix>
</trkpt>
<trkpt lat="40.0728168" lon="-105.2306206">
  <ele>1596.44</ele>
  <time>2026-08-27T18:30:37Z</time>
  <course>212.04</course>
  <speed>0.0</speed>
  <fix>3d</fix>
</trkpt>
<trkpt lat="40.0728168" lon="-105.2306208">
  <ele>1596.51</ele>
  <time>2026-08-27T18:30:37Z</time>
  <course>348.05</course>
  <speed>0.022360679774997897</speed>
  <fix>3d</fix>
</trkpt>
<trkpt lat="40.0728168" lon="-105.2306206">
  <ele>1596.44</ele>
  <time>2026-08-27T18:30:37Z</time>
  <course>210.73</course>
  <speed>0.0</speed>
  <fix>3d</fix>
</trkpt>
<trkpt lat="40.0728168" lon="-105.2306208">
  <ele>1596.51</ele>
  <time>2026-08-27T18:30:37Z</time>
  <course>348.05</course>
  <speed>0.022360679774997897</speed>
  <fix>3d</fix>
</trkpt>
<trkpt lat="40.0728168" lon="-105.2306206">
  <ele>1596.44</ele>
  <time>2026-08-27T18:30:37Z</time>
  <course>209.3</course>
  <speed>0.0</speed>
  <fix>3d</fix>
</trkpt>
<trkpt lat="40.0728168" lon="-105.2306208">
  <ele>1596.51</ele>
  <time>2026-08-27T18:30:37Z</time>
  <course>348.05</course>
  <speed>0.022360679774997897</speed>
  <fix>3d</fix>
</trkpt>
<trkpt lat="40.0728168" lon="-105.2306206">
  <ele>1596.44</ele>
  <time>2026-08-27T18:30:37Z</time>
  <course>207.53</course>
  <speed>0.0</speed>
  <fix>3d</fix>
</trkpt>
<trkpt lat="40.0728168" lon="-105.2306208">
  <ele>1596.51</ele>
  <time>2026-08-27T18:30:37Z</time>
  <course>348.05</course>
  <speed>0.022360679774997897</speed>
  <fix>3d</fix>
</trkpt>
<trkpt lat="40.0728168" lon="-105.2306206">
  <ele>1596.44</ele>
  <time>2026-08-27T18:30:37Z</time>
  <course>209.51</course>
  <speed>0.0</speed>
  <fix>3d</fix>
</trkpt>
<trkpt lat="40.0728168" lon="-105.2306208">
  <ele>1596.51</ele>
  <time>2026-08-27T18:30:37Z</time>
  <course>348.05</course>
  <speed>0.022360679774997897</speed>
  <fix>3d</fix>
</trkpt>
<trkpt lat="40.0728168" lon="-105.2306206">
  <ele>1596.44</ele>
  <time>2026-08-27T18:30:37Z</time>
  <course>214.98</course>
  <speed>0.0</speed>
  <fix>3d</fix>
</trkpt>
<trkpt lat="40.0728168" lon="-105.2306208">
  <ele>1596.51</ele>
  <time>2026-08-27T18:30:37Z</time>
  <course>348.05</course>
  <speed>0.022360679774997897</speed>
  <fix>3d</fix>
</trkpt>
<trkpt lat="40.0728168" lon="-105.2306206">
  <ele>1596.44</ele>
  <time>2026-08-27T18:30:37Z</time>
  <course>219.62</course>
  <speed>0.0</speed>
  <fix>3d</fix>
</trkpt>
<trkpt lat="40.0728168" lon="-105.2306208">
  <ele>1596.52</ele>
  <time>2026-08-27T18:30:37Z</time>
  <course>348.05</course>
  <speed>0.022360679774997897</speed>
  <fix>3d</fix>
</trkpt>
<trkpt lat="40.0728167" lon="-105.2306206">
  <ele>1596.44</ele>
  <time>2026-08-27T18:30:37Z</time>
  <course>224.05</course>
  <speed>0.0</speed>
  <fix>3d</fix>
</trkpt>
<trkpt lat="40.0728168" lon="-105.2306208">
  <ele>1596.52</ele>
  <time>2026-08-27T18:30:37Z</time>
  <course>348.06</course>
  <speed>0.022360679774997897</speed>
  <fix>3d</fix>
</trkpt>
<trkpt lat="40.0728167" lon="-105.2306206">
  <ele>1596.44</ele>
  <time>2026-08-27T18:30:37Z</time>
  <course>228.0</course>
  <speed>0.0</speed>
  <fix>3d</fix>
</trkpt>
<trkpt lat="40.0728168" lon="-105.2306208">
  <ele>1596.52</ele>
  <time>2026-08-27T18:30:37Z</time>
  <course>348.08</course>
  <speed>0.022360679774997897</speed>
  <fix>3d</fix>
</trkpt>
<trkpt lat="40.0728167" lon="-105.2306206">
  <ele>1596.45</ele>
  <time>2026-08-27T18:30:37Z</time>
  <course>228.91</course>
  <speed>0.0</speed>
  <fix>3d</fix>
</trkpt>
<trkpt lat="40.0728168" lon="-105.2306208">
  <ele>1596.52</ele>
  <time>2026-08-27T18:30:37Z</time>
  <course>348.1</course>
  <speed>0.02</speed>
  <fix>3d</fix>
</trkpt>
<trkpt lat="40.0728167" lon="-105.2306206">
  <ele>1596.44</ele>
  <time>2026-08-27T18:30:37Z</time>
  <course>227.94</course>
  <speed>0.0</speed>
  <fix>3d</fix>
</trkpt>
<trkpt lat="40.0728168" lon="-105.2306208">
  <ele>1596.53</ele>
  <time>2026-08-27T18:30:37Z</time>
  <course>348.13</course>
  <speed>0.022360679774997897</speed>
  <fix>3d</fix>
</trkpt>
<trkpt lat="40.0728167" lon="-105.2306206">
  <ele>1596.44</ele>
  <time>2026-08-27T18:30:37Z</time>
  <course>228.65</course>
  <speed>0.0</speed>
  <fix>3d</fix>
</trkpt>
<trkpt lat="40.0728168" lon="-105.2306208">
  <ele>1596.53</ele>
  <time>2026-08-27T18:30:37Z</time>
  <course>348.14</course>
  <speed>0.022360679774997897</speed>
  <fix>3d</fix>
</trkpt>
<trkpt lat="40.0728167" lon="-105.2306206">
  <ele>1596.44</ele>
  <time>2026-08-27T18:30:37Z</time>
  <course>231.97</course>
  <speed>0.0</speed>
  <fix>3d</fix>
</trkpt>
<trkpt lat="40.0728168" lon="-105.2306208">
  <ele>1596.52</ele>
  <time>2026-08-27T18:30:37Z</time>
  <course>348.15</course>
  <speed>0.022360679774997897</speed>
  <fix>3d</fix>
</trkpt>
<trkpt lat="40.0728167" lon="-105.2306206">
  <ele>1596.43</ele>
  <time>2026-08-27T18:30:37Z</time>
  <course>237.57</course>
  <speed>0.0</speed>
  <fix>3d</fix>
</trkpt>
<trkpt lat="40.0728168" lon="-105.2306208">
  <ele>1596.51</ele>
  <time>2026-08-27T18:30:37Z</time>
  <course>348.15</course>
  <speed>0.022360679774997897</speed>
  <fix>3d</fix>
</trkpt>
<trkpt lat="40.0728167" lon="-105.2306207">
  <ele>1596.43</ele>
  <time>2026-08-27T18:30:37Z</time>
  <course>245.58</course>
  <speed>0.0</speed>
  <fix>3d</fix>
</trkpt>
<trkpt lat="40.0728168" lon="-105.2306208">
  <ele>1596.51</ele>
  <time>2026-08-27T18:30:37Z</time>
  <course>348.13</course>
  <speed>0.022360679774997897</speed>
  <fix>3d</fix>
</trkpt>
<trkpt lat="40.0728167" lon="-105.2306208">
  <ele>1596.43</ele>
  <time>2026-08-27T18:30:37Z</time>
  <course>256.25</course>
  <speed>0.0</speed>
  <fix>3d</fix>
</trkpt>
<trkpt lat="40.0728168" lon="-105.2306209">
  <ele>1596.51</ele>
  <time>2026-08-27T18:30:37Z</time>
  <course>348.11</course>
  <speed>0.022360679774997897</speed>
  <fix>3d</fix>
</trkpt>
<trkpt lat="40.0728167" lon="-105.2306208">
  <ele>1596.43</ele>
  <time>2026-08-27T18:30:37Z</time>
  <course>266.9</course>
  <speed>0.0</speed>
  <fix>3d</fix>
</trkpt>
<trkpt lat="40.0728168" lon="-105.2306209">
  <ele>1596.5</ele>
  <time>2026-08-27T18:30:37Z</time>
  <course>348.1</course>
  <speed>0.022360679774997897</speed>
  <fix>3d</fix>
</trkpt>
<trkpt lat="40.0728167" lon="-105.2306208">
  <ele>1596.43</ele>
  <time>2026-08-27T18:30:37Z</time>
  <course>276.16</course>
  <speed>0.0</speed>
  <fix>3d</fix>
</trkpt>
<trkpt lat="40.0728168" lon="-105.2306209">
  <ele>1596.5</ele>
  <time>2026-08-27T18:30:37Z</time>
  <course>348.09</course>
  <speed>0.022360679774997897</speed>
  <fix>3d</fix>
</trkpt>
<trkpt lat="40.0728167" lon="-105.2306208">
  <ele>1596.43</ele>
  <time>2026-08-27T18:30:37Z</time>
  <course>283.31</course>
  <speed>0.0</speed>
  <fix>3d</fix>
</trkpt>
<trkpt lat="40.0728168" lon="-105.2306209">
  <ele>1596.51</ele>
  <time>2026-08-27T18:30:37Z</time>
  <course>348.08</course>
  <speed>0.022360679774997897</speed>
  <fix>3d</fix>
</trkpt>
<trkpt lat="40.0728167" lon="-105.2306208">
  <ele>1596.43</ele>
  <time>2026-08-27T18:30:37Z</time>
  <course>287.39</course>
  <speed>0.0</speed>
  <fix>3d</fix>
</trkpt>
<trkpt lat="40.0728168" lon="-105.2306209">
  <ele>1596.51</ele>
  <time>2026-08-27T18:30:37Z</time>
  <course>348.08</course>
  <speed>0.022360679774997897</speed>
  <fix>3d</fix>
</trkpt>
<trkpt lat="40.0728167" lon="-105.2306208">
  <ele>1596.43</ele>
  <time>2026-08-27T18:30:37Z</time>
  <course>289.06</course>
  <speed>0.0</speed>
  <fix>3d</fix>
</trkpt>
<trkpt lat="40.0728168" lon="-105.2306209">
  <ele>1596.5</ele>
  <time>2026-08-27T18:30:37Z</time>
  <course>348.08</course>
  <speed>0.022360679774997897</speed>
  <fix>3d</fix>
</trkpt>
<trkpt lat="40.0728167" lon="-105.2306208">
  <ele>1596.43</ele>
  <time>2026-08-27T18:30:37Z</time>
  <course>298.09</course>
  <speed>0.0</speed>
  <fix>3d</fix>
</trkpt>
<trkpt lat="40.0728168" lon="-105.2306209">
  <ele>1596.5</ele>
  <time>2026-08-27T18:30:37Z</time>
  <course>348.07</course>
  <speed>0.022360679774997897</speed>
  <fix>3d</fix>
</trkpt>
<trkpt lat="40.0728167" lon="-105.2306208">
  <ele>1596.43</ele>
  <time>2026-08-27T18:30:37Z</time>
  <course>350.19</course>
  <speed>0.0</speed>
  <fix>3d</fix>
</trkpt>
<trkpt lat="40.0728168" lon="-105.2306209">
  <ele>1596.5</ele>
  <time>2026-08-27T18:30:37Z</time>
  <course>348.06</course>
  <speed>0.01414213562373095</speed>
  <fix>3d</fix>
</trkpt>
<trkpt lat="40.0728167" lon="-105.2306208">
  <ele>1596.43</ele>
  <time>2026-08-27T18:30:37Z</time>
  <course>54.43</course>
  <speed>0.0</speed>
  <fix>3d</fix>
</trkpt>
<trkpt lat="40.0728168" lon="-105.2306209">
  <ele>1596.5</ele>
  <time>2026-08-27T18:30:37Z</time>
  <course>348.05</course>
  <speed>0.01414213562373095</speed>
  <fix>3d</fix>
</trkpt>
<trkpt lat="40.0728167" lon="-105.2306208">
  <ele>1596.43</ele>
  <time>2026-08-27T18:30:37Z</time>
  <course>65.32</course>
  <speed>0.0</speed>
  <fix>3d</fix>
</trkpt>
<trkpt lat="40.0728168" lon="-105.2306209">
  <ele>1596.5</ele>
  <time>2026-08-27T18:30:37Z</time>
  <course>348.02</course>
  <speed>0.01414213562373095</speed>
  <fix>3d</fix>
</trkpt>
<trkpt lat="40.0728167" lon="-105.2306208">
  <ele>1596.43</ele>
  <time>2026-08-27T18:30:37Z</time>
  <course>67.16</course>
  <speed>0.0</speed>
  <fix>3d</fix>
</trkpt>
<trkpt lat="40.0728168" lon="-105.2306209">
  <ele>1596.5</ele>
  <time>2026-08-27T18:30:37Z</time>
  <course>348.0</course>
  <speed>0.01414213562373095</speed>
  <fix>3d</fix>
</trkpt>
<trkpt lat="40.0728167" lon="-105.2306208">
  <ele>1596.43</ele>
  <time>2026-08-27T18:30:37Z</time>
  <course>68.2</course>
  <speed>0.0</speed>
  <fix>3d</fix>
</trkpt>
<trkpt lat="40.0728168" lon="-105.2306209">
  <ele>1596.5</ele>
  <time>2026-08-27T18:30:37Z</time>
  <course>348.0</course>
  <speed>0.01414213562373095</speed>
  <fix>3d</fix>
</trkpt>
<trkpt lat="40.0728167" lon="-105.2306208">
  <ele>1596.44</ele>
  <time>2026-08-27T18:30:37Z</time>
  <course>70.64</course>
  <speed>0.0</speed>
  <fix>3d</fix>
</trkpt>
<trkpt lat="40.0728168" lon="-105.2306209">
  <ele>1596.51</ele>
  <time>2026-08-27T18:30:37Z</time>
  <course>348.01</course>
  <speed>0.01414213562373095</speed>
  <fix>3d</fix>
</trkpt>
<trkpt lat="40.0728167" lon="-105.2306208">
  <ele>1596.44</ele>
  <time>2026-08-27T18:30:37Z</time>
  <course>72.44</course>
  <speed>0.0</speed>
  <fix>3d</fix>
</trkpt>
<trkpt lat="40.0728168" lon="-105.2306209">
  <ele>1596.51</ele>
  <time>2026-08-27T18:30:37Z</time>
  <course>348.03</course>
  <speed>0.01414213562373095</speed>
  <fix>3d</fix>
</trkpt>
<trkpt lat="40.0728167" lon="-105.2306208">
  <ele>1596.44</ele>
  <time>2026-08-27T18:30:37Z</time>
  <course>70.95</course>
  <speed>0.0</speed>
  <fix>3d</fix>
</trkpt>
<trkpt lat="40.0728168" lon="-105.2306209">
  <ele>1596.51</ele>
  <time>2026-08-27T18:30:37Z</time>
  <course>348.04</course>
  <speed>0.01414213562373095</speed>
  <fix>3d</fix>
</trkpt>
<trkpt lat="40.0728167" lon="-105.2306208">
  <ele>1596.44</ele>
  <time>2026-08-27T18:30:37Z</time>
  <course>68.08</course>
  <speed>0.0</speed>
  <fix>3d</fix>
</trkpt>
<trkpt lat="40.0728168" lon="-105.2306209">
  <ele>1596.51</ele>
  <time>2026-08-27T18:30:37Z</time>
  <course>348.05</course>
  <speed>0.01414213562373095</speed>
  <fix>3d</fix>
</trkpt>
<trkpt lat="40.0728167" lon="-105.2306208">
  <ele>1596.44</ele>
  <time>2026-08-27T18:30:37Z</time>
  <course>65.37</course>
  <speed>0.0</speed>
  <fix>3d</fix>
</trkpt>
<trkpt lat="40.0728168" lon="-105.2306209">
  <ele>1596.51</ele>
  <time>2026-08-27T18:30:37Z</time>
  <course>348.05</course>
  <speed>0.01414213562373095</speed>
  <fix>3d</fix>
</trkpt>
<trkpt lat="40.0728167" lon="-105.2306208">
  <ele>1596.44</ele>
  <time>2026-08-27T18:30:37Z</time>
  <course>62.83</course>
  <speed>0.0</speed>
  <fix>3d</fix>
</trkpt>
<trkpt lat="40.0728168" lon="-105.2306209">
  <ele>1596.5</ele>
  <time>2026-08-27T18:30:37Z</time>
  <course>348.06</course>
  <speed>0.01414213562373095</speed>
  <fix>3d</fix>
</trkpt>
<trkpt lat="40.0728167" lon="-105.2306208">
  <ele>1596.45</ele>
  <time>2026-08-27T18:30:37Z</time>
  <course>60.43</course>
  <speed>0.0</speed>
  <fix>3d</fix>
</trkpt>
<trkpt lat="40.0728168" lon="-105.2306209">
  <ele>1596.5</ele>
  <time>2026-08-27T18:30:37Z</time>
  <course>348.06</course>
  <speed>0.01414213562373095</speed>
  <fix>3d</fix>
</trkpt>
<trkpt lat="40.0728167" lon="-105.2306208">
  <ele>1596.45</ele>
  <time>2026-08-27T18:30:37Z</time>
  <course>58.2</course>
  <speed>0.0</speed>
  <fix>3d</fix>
</trkpt>
<trkpt lat="40.0728168" lon="-105.2306209">
  <ele>1596.5</ele>
  <time>2026-08-27T18:30:37Z</time>
  <course>348.05</course>
  <speed>0.01414213562373095</speed>
  <fix>3d</fix>
</trkpt>
<trkpt lat="40.0728167" lon="-105.2306208">
  <ele>1596.45</ele>
  <time>2026-08-27T18:30:37Z</time>
  <course>57.81</course>
  <speed>0.0</speed>
  <fix>3d</fix>
</trkpt>
<trkpt lat="40.0728168" lon="-105.2306209">
  <ele>1596.51</ele>
  <time>2026-08-27T18:30:37Z</time>
  <course>348.05</course>
  <speed>0.01414213562373095</speed>
  <fix>3d</fix>
</trkpt>
<trkpt lat="40.0728167" lon="-105.2306208">
  <ele>1596.45</ele>
  <time>2026-08-27T18:30:37Z</time>
  <course>60.8</course>
  <speed>0.0</speed>
  <fix>3d</fix>
</trkpt>
<trkpt lat="40.0728168" lon="-105.2306209">
  <ele>1596.51</ele>
  <time>2026-08-27T18:30:37Z</time>
  <course>348.05</course>
  <speed>0.01414213562373095</speed>
  <fix>3d</fix>
</trkpt>
<trkpt lat="40.0728167" lon="-105.2306207">
  <ele>1596.45</ele>
  <time>2026-08-27T18:30:37Z</time>
  <course>66.14</course>
  <speed>0.0</speed>
  <fix>3d</fix>
</trkpt>
<trkpt lat="40.0728168" lon="-105.2306209">
  <ele>1596.51</ele>
  <time>2026-08-27T18:30:37Z</time>
  <course>348.06</course>
  <speed>0.01414213562373095</speed>
  <fix>3d</fix>
</trkpt>
<trkpt lat="40.0728167" lon="-105.2306206">
  <ele>1596.45</ele>
  <time>2026-08-27T18:30:37Z</time>
  <course>72.0</course>
  <speed>0.0</speed>
  <fix>3d</fix>
</trkpt>
<trkpt lat="40.0728168" lon="-105.2306209">
  <ele>1596.51</ele>
  <time>2026-08-27T18:30:37Z</time>
  <course>348.06</course>
  <speed>0.01414213562373095</speed>
  <fix>3d</fix>
</trkpt>
<trkpt lat="40.0728167" lon="-105.2306206">
  <ele>1596.45</ele>
  <time>2026-08-27T18:30:37Z</time>
  <course>77.82</course>
  <speed>0.0</speed>
  <fix>3d</fix>
</trkpt>
<trkpt lat="40.0728168" lon="-105.2306209">
  <ele>1596.51</ele>
  <time>2026-08-27T18:30:37Z</time>
  <course>348.06</course>
  <speed>0.01414213562373095</speed>
  <fix>3d</fix>
</trkpt>
<trkpt lat="40.0728167" lon="-105.2306206">
  <ele>1596.45</ele>
  <time>2026-08-27T18:30:37Z</time>
  <course>82.61</course>
  <speed>0.0</speed>
  <fix>3d</fix>
</trkpt>
<trkpt lat="40.0728168" lon="-105.2306209">
  <ele>1596.51</ele>
  <time>2026-08-27T18:30:37Z</time>
  <course>348.06</course>
  <speed>0.01414213562373095</speed>
  <fix>3d</fix>
</trkpt>
<trkpt lat="40.0728167" lon="-105.2306206">
  <ele>1596.45</ele>
  <time>2026-08-27T18:30:37Z</time>
  <course>81.43</course>
  <speed>0.0</speed>
  <fix>3d</fix>
</trkpt>
<trkpt lat="40.0728168" lon="-105.2306209">
  <ele>1596.52</ele>
  <time>2026-08-27T18:30:37Z</time>
  <course>348.07</course>
  <speed>0.01414213562373095</speed>
  <fix>3d</fix>
</trkpt>
<trkpt lat="40.0728167" lon="-105.2306206">
  <ele>1596.45</ele>
  <time>2026-08-27T18:30:37Z</time>
  <course>71.34</course>
  <speed>0.0</speed>
  <fix>3d</fix>
</trkpt>
<trkpt lat="40.0728168" lon="-105.2306209">
  <ele>1596.52</ele>
  <time>2026-08-27T18:30:37Z</time>
  <course>348.08</course>
  <speed>0.022360679774997897</speed>
  <fix>3d</fix>
</trkpt>
<trkpt lat="40.0728167" lon="-105.2306206">
  <ele>1596.45</ele>
  <time>2026-08-27T18:30:37Z</time>
  <course>55.25</course>
  <speed>0.0</speed>
  <fix>3d</fix>
</trkpt>
<trkpt lat="40.0728168" lon="-105.2306208">
  <ele>1596.52</ele>
  <time>2026-08-27T18:30:37Z</time>
  <course>348.09</course>
  <speed>0.022360679774997897</speed>
  <fix>3d</fix>
</trkpt>
<trkpt lat="40.0728167" lon="-105.2306206">
  <ele>1596.45</ele>
  <time>2026-08-27T18:30:37Z</time>
  <course>38.09</course>
  <speed>0.0</speed>
  <fix>3d</fix>
</trkpt>
<trkpt lat="40.0728168" lon="-105.2306208">
  <ele>1596.52</ele>
  <time>2026-08-27T18:30:37Z</time>
  <course>348.09</course>
  <speed>0.022360679774997897</speed>
  <fix>3d</fix>
</trkpt>
<trkpt lat="40.0728167" lon="-105.2306206">
  <ele>1596.45</ele>
  <time>2026-08-27T18:30:37Z</time>
  <course>21.63</course>
  <speed>0.0</speed>
  <fix>3d</fix>
</trkpt>
<trkpt lat="40.0728168" lon="-105.2306208">
  <ele>1596.51</ele>
  <time>2026-08-27T18:30:37Z</time>
  <course>348.1</course>
  <speed>0.022360679774997897</speed>
  <fix>3d</fix>
</trkpt>
<trkpt lat="40.0728167" lon="-105.2306206">
  <ele>1596.45</ele>
  <time>2026-08-27T18:30:37Z</time>
  <course>5.81</course>
  <speed>0.0</speed>
  <fix>3d</fix>
</trkpt>
<trkpt lat="40.0728168" lon="-105.2306208">
  <ele>1596.51</ele>
  <time>2026-08-27T18:30:37Z</time>
  <course>348.1</course>
  <speed>0.022360679774997897</speed>
  <fix>3d</fix>
</trkpt>
<trkpt lat="40.0728167" lon="-105.2306206">
  <ele>1596.45</ele>
  <time>2026-08-27T18:30:37Z</time>
  <course>352.1</course>
  <speed>0.0</speed>
  <fix>3d</fix>
</trkpt>
<trkpt lat="40.0728168" lon="-105.2306208">
  <ele>1596.51</ele>
  <time>2026-08-27T18:30:37Z</time>
  <course>348.09</course>
  <speed>0.022360679774997897</speed>
  <fix>3d</fix>
</trkpt>
<trkpt lat="40.0728167" lon="-105.2306206">
  <ele>1596.45</ele>
  <time>2026-08-27T18:30:37Z</time>
  <course>340.0</course>
  <speed>0.0</speed>
  <fix>3d</fix>
</trkpt>
<trkpt lat="40.0728168" lon="-105.2306208">
  <ele>1596.51</ele>
  <time>2026-08-27T18:30:37Z</time>
  <course>348.09</course>
  <speed>0.022360679774997897</speed>
  <fix>3d</fix>
</trkpt>
<trkpt lat="40.0728167" lon="-105.2306206">
  <ele>1596.45</ele>
  <time>2026-08-27T18:30:37Z</time>
  <course>329.32</course>
  <speed>0.0</speed>
  <fix>3d</fix>
</trkpt>
<trkpt lat="40.0728168" lon="-105.2306208">
  <ele>1596.52</ele>
  <time>2026-08-27T18:30:37Z</time>
  <course>348.09</course>
  <speed>0.022360679774997897</speed>
  <fix>3d</fix>
</trkpt>
<trkpt lat="40.0728167" lon="-105.2306206">
  <ele>1596.45</ele>
  <time>2026-08-27T18:30:37Z</time>
  <course>319.92</course>
  <speed>0.0</speed>
  <fix>3d</fix>
</trkpt>
<trkpt lat="40.0728168" lon="-105.2306208">
  <ele>1596.51</ele>
  <time>2026-08-27T18:30:37Z</time>
  <course>348.1</course>
  <speed>0.022360679774997897</speed>
  <fix>3d</fix>
</trkpt>
<trkpt lat="40.0728168" lon="-105.2306206">
  <ele>1596.45</ele>
  <time>2026-08-27T18:30:37Z</time>
  <course>315.42</course>
  <speed>0.0</speed>
  <fix>3d</fix>
</trkpt>
<trkpt lat="40.0728168" lon="-105.2306208">
  <ele>1596.51</ele>
  <time>2026-08-27T18:30:37Z</time>
  <course>348.1</course>
  <speed>0.022360679774997897</speed>
  <fix>3d</fix>
</trkpt>
<trkpt lat="40.0728168" lon="-105.2306206">
  <ele>1596.44</ele>
  <time>2026-08-27T18:30:37Z</time>
  <course>312.42</course>
  <speed>0.0</speed>
  <fix>3d</fix>
</trkpt>
<trkpt lat="40.0728168" lon="-105.2306208">
  <ele>1596.51</ele>
  <time>2026-08-27T18:30:37Z</time>
  <course>348.09</course>
  <speed>0.022360679774997897</speed>
  <fix>3d</fix>
</trkpt>
<trkpt lat="40.0728168" lon="-105.2306206">
  <ele>1596.44</ele>
  <time>2026-08-27T18:30:37Z</time>
  <course>311.63</course>
  <speed>0.0</speed>
  <fix>3d</fix>
</trkpt>
<trkpt lat="40.0728168" lon="-105.2306208">
  <ele>1596.51</ele>
  <time>2026-08-27T18:30:37Z</time>
  <course>348.09</course>
  <speed>0.022360679774997897</speed>
  <fix>3d</fix>
</trkpt>
<trkpt lat="40.0728168" lon="-105.2306206">
  <ele>1596.44</ele>
  <time>2026-08-27T18:30:37Z</time>
  <course>314.06</course>
  <speed>0.0</speed>
  <fix>3d</fix>
</trkpt>
<trkpt lat="40.0728168" lon="-105.2306208">
  <ele>1596.52</ele>
  <time>2026-08-27T18:30:37Z</time>
  <course>348.09</course>
  <speed>0.022360679774997897</speed>
  <fix>3d</fix>
</trkpt>
<trkpt lat="40.0728168" lon="-105.2306206">
  <ele>1596.44</ele>
  <time>2026-08-27T18:30:37Z</time>
  <course>310.0</course>
  <speed>0.0</speed>
  <fix>3d</fix>
</trkpt>
<trkpt lat="40.0728168" lon="-105.2306208">
  <ele>1596.52</ele>
  <time>2026-08-27T18:30:37Z</time>
  <course>348.09</course>
  <speed>0.022360679774997897</speed>
  <fix>3d</fix>
</trkpt>
<trkpt lat="40.0728168" lon="-105.2306206">
  <ele>1596.44</ele>
  <time>2026-08-27T18:30:37Z</time>
  <course>294.7</course>
  <speed>0.0</speed>
  <fix>3d</fix>
</trkpt>
<trkpt lat="40.0728168" lon="-105.2306208">
  <ele>1596.52</ele>
  <time>2026-08-27T18:30:37Z</time>
  <course>348.1</course>
  <speed>0.022360679774997897</speed>
  <fix>3d</fix>
</trkpt>
<trkpt lat="40.0728168" lon="-105.2306206">
  <ele>1596.44</ele>
  <time>2026-08-27T18:30:37Z</time>
  <course>270.37</course>
  <speed>0.0</speed>
  <fix>3d</fix>
</trkpt>
<trkpt lat="40.0728168" lon="-105.2306208">
  <ele>1596.52</ele>
  <time>2026-08-27T18:30:37Z</time>
  <course>348.1</course>
  <speed>0.02</speed>
  <fix>3d</fix>
</trkpt>
<trkpt lat="40.0728168" lon="-105.2306206">
  <ele>1596.44</ele>
  <time>2026-08-27T18:30:37Z</time>
  <course>250.08</course>
  <speed>0.0</speed>
  <fix>3d</fix>
</trkpt>
<trkpt lat="40.0728168" lon="-105.2306208">
  <ele>1596.52</ele>
  <time>2026-08-27T18:30:37Z</time>
  <course>348.11</course>
  <speed>0.02</speed>
  <fix>3d</fix>
</trkpt>
<trkpt lat="40.0728168" lon="-105.2306206">
  <ele>1596.44</ele>
  <time>2026-08-27T18:30:37Z</time>
  <course>238.71</course>
  <speed>0.0</speed>
  <fix>3d</fix>
</trkpt>
<trkpt lat="40.0728168" lon="-105.2306208">
  <ele>1596.52</ele>
  <time>2026-08-27T18:30:37Z</time>
  <course>348.11</course>
  <speed>0.02</speed>
  <fix>3d</fix>
</trkpt>
<trkpt lat="40.0728168" lon="-105.2306206">
  <ele>1596.43</ele>
  <time>2026-08-27T18:30:37Z</time>
  <course>231.67</course>
  <speed>0.0</speed>
  <fix>3d</fix>
</trkpt>
<trkpt lat="40.0728168" lon="-105.2306208">
  <ele>1596.52</ele>
  <time>2026-08-27T18:30:37Z</time>
  <course>348.11</course>
  <speed>0.02</speed>
  <fix>3d</fix>
</trkpt>
<trkpt lat="40.0728168" lon="-105.2306206">
  <ele>1596.43</ele>
  <time>2026-08-27T18:30:37Z</time>
  <course>227.95</course>
  <speed>0.0</speed>
  <fix>3d</fix>
</trkpt>
<trkpt lat="40.0728168" lon="-105.2306208">
  <ele>1596.52</ele>
  <time>2026-08-27T18:30:37Z</time>
  <course>348.11</course>
  <speed>0.02</speed>
  <fix>3d</fix>
</trkpt>
<trkpt lat="40.0728168" lon="-105.2306206">
  <ele>1596.43</ele>
  <time>2026-08-27T18:30:37Z</time>
  <course>224.41</course>
  <speed>0.0</speed>
  <fix>3d</fix>
</trkpt>
<trkpt lat="40.0728168" lon="-105.2306208">
  <ele>1596.52</ele>
  <time>2026-08-27T18:30:37Z</time>
  <course>348.11</course>
  <speed>0.02</speed>
  <fix>3d</fix>
</trkpt>
<trkpt lat="40.0728168" lon="-105.2306206">
  <ele>1596.43</ele>
  <time>2026-08-27T18:30:37Z</time>
  <course>220.59</course>
  <speed>0.0</speed>
  <fix>3d</fix>
</trkpt>
<trkpt lat="40.0728168" lon="-105.2306208">
  <ele>1596.53</ele>
  <time>2026-08-27T18:30:37Z</time>
  <course>348.12</course>
  <speed>0.02</speed>
  <fix>3d</fix>
</trkpt>
<trkpt lat="40.0728168" lon="-105.2306206">
  <ele>1596.42</ele>
  <time>2026-08-27T18:30:37Z</time>
  <course>218.51</course>
  <speed>0.0</speed>
  <fix>3d</fix>
</trkpt>
<trkpt lat="40.0728168" lon="-105.2306208">
  <ele>1596.53</ele>
  <time>2026-08-27T18:30:37Z</time>
  <course>348.12</course>
  <speed>0.02</speed>
  <fix>3d</fix>
</trkpt>
<trkpt lat="40.0728168" lon="-105.2306206">
  <ele>1596.42</ele>
  <time>2026-08-27T18:30:37Z</time>
  <course>216.9</course>
  <speed>0.0</speed>
  <fix>3d</fix>
</trkpt>
<trkpt lat="40.0728168" lon="-105.2306208">
  <ele>1596.53</ele>
  <time>2026-08-27T18:30:37Z</time>
  <course>348.13</course>
  <speed>0.02</speed>
  <fix>3d</fix>
</trkpt>
<trkpt lat="40.0728168" lon="-105.2306206">
  <ele>1596.42</ele>
  <time>2026-08-27T18:30:37Z</time>
  <course>215.31</course>
  <speed>0.0</speed>
  <fix>3d</fix>
</trkpt>
<trkpt lat="40.0728168" lon="-105.2306208">
  <ele>1596.52</ele>
  <time>2026-08-27T18:30:37Z</time>
  <course>348.13</course>
  <speed>0.02</speed>
  <fix>3d</fix>
</trkpt>
<trkpt lat="40.0728168" lon="-105.2306206">
  <ele>1596.41</ele>
  <time>2026-08-27T18:30:37Z</time>
  <course>214.37</course>
  <speed>0.0</speed>
  <fix>3d</fix>
</trkpt>
<trkpt lat="40.0728168" lon="-105.2306208">
  <ele>1596.52</ele>
  <time>2026-08-27T18:30:37Z</time>
  <course>348.13</course>
  <speed>0.02</speed>
  <fix>3d</fix>
</trkpt>
<trkpt lat="40.0728168" lon="-105.2306206">
  <ele>1596.41</ele>
  <time>2026-08-27T18:30:37Z</time>
  <course>213.9</course>
  <speed>0.0</speed>
  <fix>3d</fix>
</trkpt>
<trkpt lat="40.0728168" lon="-105.2306208">
  <ele>1596.52</ele>
  <time>2026-08-27T18:30:37Z</time>
  <course>348.13</course>
  <speed>0.02</speed>
  <fix>3d</fix>
</trkpt>
<trkpt lat="40.0728168" lon="-105.2306206">
  <ele>1596.4</ele>
  <time>2026-08-27T18:30:37Z</time>
  <course>214.79</course>
  <speed>0.0</speed>
  <fix>3d</fix>
</trkpt>
<trkpt lat="40.0728168" lon="-105.2306208">
  <ele>1596.52</ele>
  <time>2026-08-27T18:30:37Z</time>
  <course>348.12</course>
  <speed>0.02</speed>
  <fix>3d</fix>
</trkpt>
<trkpt lat="40.0728168" lon="-105.2306206">
  <ele>1596.4</ele>
  <time>2026-08-27T18:30:37Z</time>
  <course>216.51</course>
  <speed>0.0</speed>
  <fix>3d</fix>
</trkpt>
<trkpt lat="40.0728168" lon="-105.2306208">
  <ele>1596.52</ele>
  <time>2026-08-27T18:30:37Z</time>
  <course>348.12</course>
  <speed>0.02</speed>
  <fix>3d</fix>
</trkpt>
<trkpt lat="40.0728168" lon="-105.2306206">
  <ele>1596.4</ele>
  <time>2026-08-27T18:30:37Z</time>
  <course>217.33</course>
  <speed>0.0</speed>
  <fix>3d</fix>
</trkpt>
<trkpt lat="40.0728168" lon="-105.2306208">
  <ele>1596.51</ele>
  <time>2026-08-27T18:30:37Z</time>
  <course>348.13</course>
  <speed>0.022360679774997897</speed>
  <fix>3d</fix>
</trkpt>
<trkpt lat="40.0728168" lon="-105.2306206">
  <ele>1596.39</ele>
  <time>2026-08-27T18:30:37Z</time>
  <course>217.63</course>
  <speed>0.0</speed>
  <fix>3d</fix>
</trkpt>
<trkpt lat="40.0728168" lon="-105.2306208">
  <ele>1596.51</ele>
  <time>2026-08-27T18:30:38Z</time>
  <course>348.1</course>
  <speed>0.022360679774997897</speed>
  <fix>3d</fix>
</trkpt>
<trkpt lat="40.0728168" lon="-105.2306206">
  <ele>1596.39</ele>
  <time>2026-08-27T18:30:38Z</time>
  <course>218.3</course>
  <speed>0.0</speed>
  <fix>3d</fix>
</trkpt>
<trkpt lat="40.0728168" lon="-105.2306208">
  <ele>1596.5</ele>
  <time>2026-08-27T18:30:38Z</time>
  <course>348.08</course>
  <speed>0.022360679774997897</speed>
  <fix>3d</fix>
</trkpt>
<trkpt lat="40.0728168" lon="-105.2306206">
  <ele>1596.39</ele>
  <time>2026-08-27T18:30:38Z</time>
  <course>219.13</course>
  <speed>0.0</speed>
  <fix>3d</fix>
</trkpt>
<trkpt lat="40.0728168" lon="-105.2306208">
  <ele>1596.5</ele>
  <time>2026-08-27T18:30:38Z</time>
  <course>348.06</course>
  <speed>0.02</speed>
  <fix>3d</fix>
</trkpt>
<trkpt lat="40.0728167" lon="-105.2306207">
  <ele>1596.39</ele>
  <time>2026-08-27T18:30:38Z</time>
  <course>218.88</course>
  <speed>0.0</speed>
  <fix>3d</fix>
</trkpt>
<trkpt lat="40.0728168" lon="-105.2306208">
  <ele>1596.5</ele>
  <time>2026-08-27T18:30:38Z</time>
  <course>348.05</course>
  <speed>0.02</speed>
  <fix>3d</fix>
</trkpt>
<trkpt lat="40.0728167" lon="-105.2306208">
  <ele>1596.39</ele>
  <time>2026-08-27T18:30:38Z</time>
  <course>217.93</course>
  <speed>0.0</speed>
  <fix>3d</fix>
</trkpt>
<trkpt lat="40.0728168" lon="-105.2306209">
  <ele>1596.5</ele>
  <time>2026-08-27T18:30:38Z</time>
  <course>348.04</course>
  <speed>0.02</speed>
  <fix>3d</fix>
</trkpt>
<trkpt lat="40.0728167" lon="-105.2306208">
  <ele>1596.38</ele>
  <time>2026-08-27T18:30:38Z</time>
  <course>215.68</course>
  <speed>0.0</speed>
  <fix>3d</fix>
</trkpt>
<trkpt lat="40.0728168" lon="-105.2306209">
  <ele>1596.5</ele>
  <time>2026-08-27T18:30:38Z</time>
  <course>348.03</course>
  <speed>0.02</speed>
  <fix>3d</fix>
</trkpt>
<trkpt lat="40.0728167" lon="-105.2306208">
  <ele>1596.38</ele>
  <time>2026-08-27T18:30:38Z</time>
  <course>213.86</course>
  <speed>0.0</speed>
  <fix>3d</fix>
</trkpt>
<trkpt lat="40.0728168" lon="-105.2306209">
  <ele>1596.5</ele>
  <time>2026-08-27T18:30:38Z</time>
  <course>348.02</course>
  <speed>0.02</speed>
  <fix>3d</fix>
</trkpt>
<trkpt lat="40.0728167" lon="-105.2306208">
  <ele>1596.38</ele>
  <time>2026-08-27T18:30:38Z</time>
  <course>212.64</course>
  <speed>0.0</speed>
  <fix>3d</fix>
</trkpt>
<trkpt lat="40.0728168" lon="-105.2306209">
  <ele>1596.49</ele>
  <time>2026-08-27T18:30:38Z</time>
  <course>348.01</course>
  <speed>0.022360679774997897</speed>
  <fix>3d</fix>
</trkpt>
<trkpt lat="40.0728167" lon="-105.2306208">
  <ele>1596.38</ele>
  <time>2026-08-27T18:30:38Z</time>
  <course>208.55</course>
  <speed>0.0</speed>
  <fix>3d</fix>
</trkpt>
<trkpt lat="40.0728168" lon="-105.2306209">
  <ele>1596.49</ele>
  <time>2026-08-27T18:30:38Z</time>
  <course>347.98</course>
  <speed>0.022360679774997897</speed>
  <fix>3d</fix>
</trkpt>
<trkpt lat="40.0728167" lon="-105.2306208">
  <ele>1596.39</ele>
  <time>2026-08-27T18:30:38Z</time>
  <course>193.68</course>
  <speed>0.0</speed>
  <fix>3d</fix>
</trkpt>
<trkpt lat="40.0728168" lon="-105.2306209">
  <ele>1596.49</ele>
  <time>2026-08-27T18:30:38Z</time>
  <course>347.96</course>
  <speed>0.022360679774997897</speed>
  <fix>3d</fix>
</trkpt>
<trkpt lat="40.0728167" lon="-105.2306208">
  <ele>1596.39</ele>
  <time>2026-08-27T18:30:38Z</time>
  <course>141.04</course>
  <speed>0.0</speed>
  <fix>3d</fix>
</trkpt>
<trkpt lat="40.0728168" lon="-105.2306209">
  <ele>1596.49</ele>
  <time>2026-08-27T18:30:38Z</time>
  <course>347.94</course>
  <speed>0.022360679774997897</speed>
  <fix>3d</fix>
</trkpt>
<trkpt lat="40.0728167" lon="-105.2306208">
  <ele>1596.39</ele>
  <time>2026-08-27T18:30:38Z</time>
  <course>92.81</course>
  <speed>0.0</speed>
  <fix>3d</fix>
</trkpt>
<trkpt lat="40.0728168" lon="-105.2306209">
  <ele>1596.49</ele>
  <time>2026-08-27T18:30:38Z</time>
  <course>347.93</course>
  <speed>0.01414213562373095</speed>
  <fix>3d</fix>
</trkpt>
<trkpt lat="40.0728167" lon="-105.2306208">
  <ele>1596.39</ele>
  <time>2026-08-27T18:30:38Z</time>
  <course>78.04</course>
  <speed>0.0</speed>
  <fix>3d</fix>
</trkpt>
<trkpt lat="40.0728168" lon="-105.2306209">
  <ele>1596.49</ele>
  <time>2026-08-27T18:30:38Z</time>
  <course>347.92</course>
  <speed>0.01414213562373095</speed>
  <fix>3d</fix>
</trkpt>
<trkpt lat="40.0728167" lon="-105.2306208">
  <ele>1596.4</ele>
  <time>2026-08-27T18:30:38Z</time>
  <course>72.08</course>
  <speed>0.0</speed>
  <fix>3d</fix>
</trkpt>
<trkpt lat="40.0728168" lon="-105.2306209">
  <ele>1596.5</ele>
  <time>2026-08-27T18:30:38Z</time>
  <course>347.91</course>
  <speed>0.01414213562373095</speed>
  <fix>3d</fix>
</trkpt>
<trkpt lat="40.0728167" lon="-105.2306208">
  <ele>1596.4</ele>
  <time>2026-08-27T18:30:38Z</time>
  <course>69.42</course>
  <speed>0.0</speed>
  <fix>3d</fix>
</trkpt>
<trkpt lat="40.0728168" lon="-105.2306209">
  <ele>1596.5</ele>
  <time>2026-08-27T18:30:38Z</time>
  <course>347.91</course>
  <speed>0.01414213562373095</speed>
  <fix>3d</fix>
</trkpt>
<trkpt lat="40.0728167" lon="-105.2306208">
  <ele>1596.41</ele>
  <time>2026-08-27T18:30:38Z</time>
  <course>68.81</course>
  <speed>0.0</speed>
  <fix>3d</fix>
</trkpt>
<trkpt lat="40.0728168" lon="-105.2306209">
  <ele>1596.5</ele>
  <time>2026-08-27T18:30:38Z</time>
  <course>347.93</course>
  <speed>0.01414213562373095</speed>
  <fix>3d</fix>
</trkpt>
<trkpt lat="40.0728167" lon="-105.2306208">
  <ele>1596.41</ele>
  <time>2026-08-27T18:30:38Z</time>
  <course>68.52</course>
  <speed>0.0</speed>
  <fix>3d</fix>
</trkpt>
<trkpt lat="40.0728168" lon="-105.2306209">
  <ele>1596.5</ele>
  <time>2026-08-27T18:30:38Z</time>
  <course>347.95</course>
  <speed>0.01414213562373095</speed>
  <fix>3d</fix>
</trkpt>
<trkpt lat="40.0728167" lon="-105.2306208">
  <ele>1596.41</ele>
  <time>2026-08-27T18:30:38Z</time>
  <course>68.34</course>
  <speed>0.0</speed>
  <fix>3d</fix>
</trkpt>
<trkpt lat="40.0728168" lon="-105.2306209">
  <ele>1596.5</ele>
  <time>2026-08-27T18:30:38Z</time>
  <course>347.95</course>
  <speed>0.01414213562373095</speed>
  <fix>3d</fix>
</trkpt>
<trkpt lat="40.0728167" lon="-105.2306208">
  <ele>1596.42</ele>
  <time>2026-08-27T18:30:38Z</time>
  <course>69.27</course>
  <speed>0.0</speed>
  <fix>3d</fix>
</trkpt>
<trkpt lat="40.0728168" lon="-105.2306209">
  <ele>1596.51</ele>
  <time>2026-08-27T18:30:38Z</time>
  <course>347.95</course>
  <speed>0.01414213562373095</speed>
  <fix>3d</fix>
</trkpt>
<trkpt lat="40.0728167" lon="-105.2306208">
  <ele>1596.42</ele>
  <time>2026-08-27T18:30:38Z</time>
  <course>70.13</course>
  <speed>0.0</speed>
  <fix>3d</fix>
</trkpt>
<trkpt lat="40.0728168" lon="-105.2306209">
  <ele>1596.51</ele>
  <time>2026-08-27T18:30:38Z</time>
  <course>347.96</course>
  <speed>0.01414213562373095</speed>
  <fix>3d</fix>
</trkpt>
<trkpt lat="40.0728167" lon="-105.2306208">
  <ele>1596.42</ele>
  <time>2026-08-27T18:30:38Z</time>
  <course>69.09</course>
  <speed>0.0</speed>
  <fix>3d</fix>
</trkpt>
<trkpt lat="40.0728168" lon="-105.2306209">
  <ele>1596.5</ele>
  <time>2026-08-27T18:30:38Z</time>
  <course>347.97</course>
  <speed>0.01414213562373095</speed>
  <fix>3d</fix>
</trkpt>
<trkpt lat="40.0728167" lon="-105.2306208">
  <ele>1596.42</ele>
  <time>2026-08-27T18:30:38Z</time>
  <course>67.1</course>
  <speed>0.0</speed>
  <fix>3d</fix>
</trkpt>
<trkpt lat="40.0728168" lon="-105.2306209">
  <ele>1596.51</ele>
  <time>2026-08-27T18:30:38Z</time>
  <course>347.98</course>
  <speed>0.01414213562373095</speed>
  <fix>3d</fix>
</trkpt>
<trkpt lat="40.0728167" lon="-105.2306207">
  <ele>1596.42</ele>
  <time>2026-08-27T18:30:38Z</time>
  <course>65.5</course>
  <speed>0.0</speed>
  <fix>3d</fix>
</trkpt>
<trkpt lat="40.0728168" lon="-105.2306209">
  <ele>1596.51</ele>
  <time>2026-08-27T18:30:38Z</time>
  <course>347.97</course>
  <speed>0.01414213562373095</speed>
  <fix>3d</fix>
</trkpt>
<trkpt lat="40.0728167" lon="-105.2306206">
  <ele>1596.42</ele>
  <time>2026-08-27T18:30:38Z</time>
  <course>64.17</course>
  <speed>0.0</speed>
  <fix>3d</fix>
</trkpt>
<trkpt lat="40.0728168" lon="-105.2306209">
  <ele>1596.51</ele>
  <time>2026-08-27T18:30:38Z</time>
  <course>347.97</course>
  <speed>0.01414213562373095</speed>
  <fix>3d</fix>
</trkpt>
<trkpt lat="40.0728167" lon="-105.2306206">
  <ele>1596.43</ele>
  <time>2026-08-27T18:30:38Z</time>
  <course>62.85</course>
  <speed>0.0</speed>
  <fix>3d</fix>
</trkpt>
<trkpt lat="40.0728168" lon="-105.2306209">
  <ele>1596.51</ele>
  <time>2026-08-27T18:30:38Z</time>
  <course>347.97</course>
  <speed>0.01414213562373095</speed>
  <fix>3d</fix>
</trkpt>
<trkpt lat="40.0728167" lon="-105.2306206">
  <ele>1596.43</ele>
  <time>2026-08-27T18:30:38Z</time>
  <course>61.52</course>
  <speed>0.0</speed>
  <fix>3d</fix>
</trkpt>
<trkpt lat="40.0728168" lon="-105.2306209">
  <ele>1596.52</ele>
  <time>2026-08-27T18:30:38Z</time>
  <course>347.96</course>
  <speed>0.01414213562373095</speed>
  <fix>3d</fix>
</trkpt>
<trkpt lat="40.0728167" lon="-105.2306206">
  <ele>1596.43</ele>
  <time>2026-08-27T18:30:38Z</time>
  <course>60.28</course>
  <speed>0.0</speed>
  <fix>3d</fix>
</trkpt>
<trkpt lat="40.0728168" lon="-105.2306209">
  <ele>1596.52</ele>
  <time>2026-08-27T18:30:38Z</time>
  <course>347.96</course>
  <speed>0.01414213562373095</speed>
  <fix>3d</fix>
</trkpt>
<trkpt lat="40.0728167" lon="-105.2306206">
  <ele>1596.43</ele>
  <time>2026-08-27T18:30:38Z</time>
  <course>58.64</course>
  <speed>0.0</speed>
  <fix>3d</fix>
</trkpt>
<trkpt lat="40.0728168" lon="-105.2306209">
  <ele>1596.52</ele>
  <time>2026-08-27T18:30:38Z</time>
  <course>347.98</course>
  <speed>0.022360679774997897</speed>
  <fix>3d</fix>
</trkpt>
<trkpt lat="40.0728167" lon="-105.2306206">
  <ele>1596.43</ele>
  <time>2026-08-27T18:30:38Z</time>
  <course>52.29</course>
  <speed>0.0</speed>
  <fix>3d</fix>
</trkpt>
<trkpt lat="40.0728168" lon="-105.2306209">
  <ele>1596.52</ele>
  <time>2026-08-27T18:30:38Z</time>
  <course>347.99</course>
  <speed>0.022360679774997897</speed>
  <fix>3d</fix>
</trkpt>
<trkpt lat="40.0728167" lon="-105.2306206">
  <ele>1596.43</ele>
  <time>2026-08-27T18:30:38Z</time>
  <course>36.08</course>
  <speed>0.0</speed>
  <fix>3d</fix>
</trkpt>
<trkpt lat="40.0728168" lon="-105.2306209">
  <ele>1596.51</ele>
  <time>2026-08-27T18:30:38Z</time>
  <course>348.0</course>
  <speed>0.022360679774997897</speed>
  <fix>3d</fix>
</trkpt>
<trkpt lat="40.0728167" lon="-105.2306206">
  <ele>1596.43</ele>
  <time>2026-08-27T18:30:38Z</time>
  <course>15.08</course>
  <speed>0.0</speed>
  <fix>3d</fix>
</trkpt>
<trkpt lat="40.0728168" lon="-105.2306209">
  <ele>1596.51</ele>
  <time>2026-08-27T18:30:38Z</time>
  <course>348.0</course>
  <speed>0.022360679774997897</speed>
  <fix>3d</fix>
</trkpt>
<trkpt lat="40.0728167" lon="-105.2306206">
  <ele>1596.43</ele>
  <time>2026-08-27T18:30:38Z</time>
  <course>359.27</course>
  <speed>0.0</speed>
  <fix>3d</fix>
</trkpt>
<trkpt lat="40.0728168" lon="-105.2306208">
  <ele>1596.51</ele>
  <time>2026-08-27T18:30:38Z</time>
  <course>348.0</course>
  <speed>0.022360679774997897</speed>
  <fix>3d</fix>
</trkpt>
<trkpt lat="40.0728167" lon="-105.2306206">
  <ele>1596.43</ele>
  <time>2026-08-27T18:30:38Z</time>
  <course>348.22</course>
  <speed>0.0</speed>
  <fix>3d</fix>
</trkpt>
<trkpt lat="40.0728168" lon="-105.2306208">
  <ele>1596.51</ele>
  <time>2026-08-27T18:30:38Z</time>
  <course>348.01</course>
  <speed>0.022360679774997897</speed>
  <fix>3d</fix>
</trkpt>
<trkpt lat="40.0728167" lon="-105.2306206">
  <ele>1596.43</ele>
  <time>2026-08-27T18:30:38Z</time>
  <course>341.11</course>
  <speed>0.0</speed>
  <fix>3d</fix>
</trkpt>
<trkpt lat="40.0728168" lon="-105.2306208">
  <ele>1596.51</ele>
  <time>2026-08-27T18:30:38Z</time>
  <course>348.0</course>
  <speed>0.022360679774997897</speed>
  <fix>3d</fix>
</trkpt>
<trkpt lat="40.0728167" lon="-105.2306206">
  <ele>1596.43</ele>
  <time>2026-08-27T18:30:38Z</time>
  <course>337.18</course>
  <speed>0.0</speed>
  <fix>3d</fix>
</trkpt>
<trkpt lat="40.0728168" lon="-105.2306208">
  <ele>1596.5</ele>
  <time>2026-08-27T18:30:38Z</time>
  <course>347.98</course>
  <speed>0.022360679774997897</speed>
  <fix>3d</fix>
</trkpt>
<trkpt lat="40.0728167" lon="-105.2306206">
  <ele>1596.42</ele>
  <time>2026-08-27T18:30:38Z</time>
  <course>331.92</course>
  <speed>0.0</speed>
  <fix>3d</fix>
</trkpt>
<trkpt lat="40.0728168" lon="-105.2306208">
  <ele>1596.5</ele>
  <time>2026-08-27T18:30:38Z</time>
  <course>347.97</course>
  <speed>0.022360679774997897</speed>
  <fix>3d</fix>
</trkpt>
<trkpt lat="40.0728167" lon="-105.2306206">
  <ele>1596.42</ele>
  <time>2026-08-27T18:30:38Z</time>
  <course>325.21</course>
  <speed>0.0</speed>
  <fix>3d</fix>
</trkpt>
<trkpt lat="40.0728168" lon="-105.2306208">
  <ele>1596.49</ele>
  <time>2026-08-27T18:30:38Z</time>
  <course>347.96</course>
  <speed>0.022360679774997897</speed>
  <fix>3d</fix>
</trkpt>
<trkpt lat="40.0728167" lon="-105.2306206">
  <ele>1596.43</ele>
  <time>2026-08-27T18:30:38Z</time>
  <course>318.23</course>
  <speed>0.0</speed>
  <fix>3d</fix>
</trkpt>
<trkpt lat="40.0728168" lon="-105.2306208">
  <ele>1596.5</ele>
  <time>2026-08-27T18:30:38Z</time>
  <course>347.92</course>
  <speed>0.022360679774997897</speed>
  <fix>3d</fix>
</trkpt>
<trkpt lat="40.0728167" lon="-105.2306206">
  <ele>1596.43</ele>
  <time>2026-08-27T18:30:38Z</time>
  <course>313.16</course>
  <speed>0.0</speed>
  <fix>3d</fix>
</trkpt>
<trkpt lat="40.0728168" lon="-105.2306208">
  <ele>1596.5</ele>
  <time>2026-08-27T18:30:38Z</time>
  <course>347.9</course>
  <speed>0.022360679774997897</speed>
  <fix>3d</fix>
</trkpt>
<trkpt lat="40.0728167" lon="-105.2306206">
  <ele>1596.43</ele>
  <time>2026-08-27T18:30:38Z</time>
  <course>309.72</course>
  <speed>0.0</speed>
  <fix>3d</fix>
</trkpt>
<trkpt lat="40.0728168" lon="-105.2306208">
  <ele>1596.5</ele>
  <time>2026-08-27T18:30:38Z</time>
  <course>347.88</course>
  <speed>0.022360679774997897</speed>
  <fix>3d</fix>
</trkpt>
<trkpt lat="40.0728167" lon="-105.2306206">
  <ele>1596.43</ele>
  <time>2026-08-27T18:30:38Z</time>
  <course>306.86</course>
  <speed>0.0</speed>
  <fix>3d</fix>
</trkpt>
<trkpt lat="40.0728168" lon="-105.2306208">
  <ele>1596.5</ele>
  <time>2026-08-27T18:30:38Z</time>
  <course>347.87</course>
  <speed>0.022360679774997897</speed>
  <fix>3d</fix>
</trkpt>
<trkpt lat="40.0728167" lon="-105.2306206">
  <ele>1596.43</ele>
  <time>2026-08-27T18:30:38Z</time>
  <course>303.53</course>
  <speed>0.0</speed>
  <fix>3d</fix>
</trkpt>
<trkpt lat="40.0728168" lon="-105.2306208">
  <ele>1596.5</ele>
  <time>2026-08-27T18:30:38Z</time>
  <course>347.87</course>
  <speed>0.022360679774997897</speed>
  <fix>3d</fix>
</trkpt>
<trkpt lat="40.0728167" lon="-105.2306206">
  <ele>1596.44</ele>
  <time>2026-08-27T18:30:38Z</time>
  <course>300.1</course>
  <speed>0.0</speed>
  <fix>3d</fix>
</trkpt>
<trkpt lat="40.0728168" lon="-105.2306208">
  <ele>1596.51</ele>
  <time>2026-08-27T18:30:38Z</time>
  <course>347.89</course>
  <speed>0.022360679774997897</speed>
  <fix>3d</fix>
</trkpt>
<trkpt lat="40.0728167" lon="-105.2306206">
  <ele>1596.44</ele>
  <time>2026-08-27T18:30:38Z</time>
  <course>299.57</course>
  <speed>0.0</speed>
  <fix>3d</fix>
</trkpt>
<trkpt lat="40.0728168" lon="-105.2306208">
  <ele>1596.52</ele>
  <time>2026-08-27T18:30:38Z</time>
  <course>347.9</course>
  <speed>0.022360679774997897</speed>
  <fix>3d</fix>
</trkpt>
<trkpt lat="40.0728168" lon="-105.2306206">
  <ele>1596.44</ele>
  <time>2026-08-27T18:30:38Z</time>
  <course>300.91</course>
  <speed>0.0</speed>
  <fix>3d</fix>
</trkpt>
<trkpt lat="40.0728168" lon="-105.2306208">
  <ele>1596.52</ele>
  <time>2026-08-27T18:30:38Z</time>
  <course>347.91</course>
  <speed>0.022360679774997897</speed>
  <fix>3d</fix>
</trkpt>
<trkpt lat="40.0728168" lon="-105.2306206">
  <ele>1596.44</ele>
  <time>2026-08-27T18:30:38Z</time>
  <course>302.46</course>
  <speed>0.0</speed>
  <fix>3d</fix>
</trkpt>
<trkpt lat="40.0728168" lon="-105.2306208">
  <ele>1596.52</ele>
  <time>2026-08-27T18:30:38Z</time>
  <course>347.93</course>
  <speed>0.022360679774997897</speed>
  <fix>3d</fix>
</trkpt>
<trkpt lat="40.0728168" lon="-105.2306206">
  <ele>1596.45</ele>
  <time>2026-08-27T18:30:38Z</time>
  <course>301.97</course>
  <speed>0.0</speed>
  <fix>3d</fix>
</trkpt>
<trkpt lat="40.0728168" lon="-105.2306208">
  <ele>1596.52</ele>
  <time>2026-08-27T18:30:38Z</time>
  <course>347.95</course>
  <speed>0.022360679774997897</speed>
  <fix>3d</fix>
</trkpt>
<trkpt lat="40.0728168" lon="-105.2306206">
  <ele>1596.45</ele>
  <time>2026-08-27T18:30:38Z</time>
  <course>296.82</course>
  <speed>0.0</speed>
  <fix>3d</fix>
</trkpt>
<trkpt lat="40.0728168" lon="-105.2306208">
  <ele>1596.53</ele>
  <time>2026-08-27T18:30:38Z</time>
  <course>347.96</course>
  <speed>0.022360679774997897</speed>
  <fix>3d</fix>
</trkpt>
<trkpt lat="40.0728168" lon="-105.2306206">
  <ele>1596.45</ele>
  <time>2026-08-27T18:30:38Z</time>
  <course>290.02</course>
  <speed>0.0</speed>
  <fix>3d</fix>
</trkpt>
<trkpt lat="40.0728168" lon="-105.2306208">
  <ele>1596.52</ele>
  <time>2026-08-27T18:30:38Z</time>
  <course>347.99</course>
  <speed>0.022360679774997897</speed>
  <fix>3d</fix>
</trkpt>
<trkpt lat="40.0728168" lon="-105.2306206">
  <ele>1596.44</ele>
  <time>2026-08-27T18:30:38Z</time>
  <course>282.96</course>
  <speed>0.0</speed>
  <fix>3d</fix>
</trkpt>
<trkpt lat="40.0728168" lon="-105.2306208">
  <ele>1596.52</ele>
  <time>2026-08-27T18:30:38Z</time>
  <course>348.01</course>
  <speed>0.022360679774997897</speed>
  <fix>3d</fix>
</trkpt>
<trkpt lat="40.0728168" lon="-105.2306206">
  <ele>1596.44</ele>
  <time>2026-08-27T18:30:38Z</time>
  <course>274.83</course>
  <speed>0.0</speed>
  <fix>3d</fix>
</trkpt>
<trkpt lat="40.0728168" lon="-105.2306208">
  <ele>1596.52</ele>
  <time>2026-08-27T18:30:38Z</time>
  <course>348.02</course>
  <speed>0.022360679774997897</speed>
  <fix>3d</fix>
</trkpt>
<trkpt lat="40.0728168" lon="-105.2306206">
  <ele>1596.44</ele>
  <time>2026-08-27T18:30:38Z</time>
  <course>264.63</course>
  <speed>0.0</speed>
  <fix>3d</fix>
</trkpt>
<trkpt lat="40.0728168" lon="-105.2306208">
  <ele>1596.52</ele>
  <time>2026-08-27T18:30:38Z</time>
  <course>348.02</course>
  <speed>0.022360679774997897</speed>
  <fix>3d</fix>
</trkpt>
<trkpt lat="40.0728168" lon="-105.2306206">
  <ele>1596.44</ele>
  <time>2026-08-27T18:30:38Z</time>
  <course>252.17</course>
  <speed>0.0</speed>
  <fix>3d</fix>
</trkpt>
<trkpt lat="40.0728168" lon="-105.2306208">
  <ele>1596.51</ele>
  <time>2026-08-27T18:30:38Z</time>
  <course>348.0</course>
  <speed>0.022360679774997897</speed>
  <fix>3d</fix>
</trkpt>
<trkpt lat="40.0728168" lon="-105.2306206">
  <ele>1596.43</ele>
  <time>2026-08-27T18:30:38Z</time>
  <course>242.13</course>
  <speed>0.0</speed>
  <fix>3d</fix>
</trkpt>
<trkpt lat="40.0728168" lon="-105.2306208">
  <ele>1596.51</ele>
  <time>2026-08-27T18:30:38Z</time>
  <course>347.99</course>
  <speed>0.022360679774997897</speed>
  <fix>3d</fix>
</trkpt>
<trkpt lat="40.0728168" lon="-105.2306206">
  <ele>1596.43</ele>
  <time>2026-08-27T18:30:38Z</time>
  <course>233.98</course>
  <speed>0.0</speed>
  <fix>3d</fix>
</trkpt>
<trkpt lat="40.0728168" lon="-105.2306208">
  <ele>1596.51</ele>
  <time>2026-08-27T18:30:38Z</time>
  <course>347.98</course>
  <speed>0.022360679774997897</speed>
  <fix>3d</fix>
</trkpt>
<trkpt lat="40.0728168" lon="-105.2306206">
  <ele>1596.43</ele>
  <time>2026-08-27T18:30:38Z</time>
  <course>227.52</course>
  <speed>0.0</speed>
  <fix>3d</fix>
</trkpt>
<trkpt lat="40.0728168" lon="-105.2306208">
  <ele>1596.51</ele>
  <time>2026-08-27T18:30:38Z</time>
  <course>347.97</course>
  <speed>0.02</speed>
  <fix>3d</fix>
</trkpt>
<trkpt lat="40.0728168" lon="-105.2306206">
  <ele>1596.43</ele>
  <time>2026-08-27T18:30:38Z</time>
  <course>222.55</course>
  <speed>0.0</speed>
  <fix>3d</fix>
</trkpt>
<trkpt lat="40.0728168" lon="-105.2306208">
  <ele>1596.51</ele>
  <time>2026-08-27T18:30:38Z</time>
  <course>347.97</course>
  <speed>0.02</speed>
  <fix>3d</fix>
</trkpt>
<trkpt lat="40.0728168" lon="-105.2306206">
  <ele>1596.43</ele>
  <time>2026-08-27T18:30:38Z</time>
  <course>218.71</course>
  <speed>0.0</speed>
  <fix>3d</fix>
</trkpt>
<trkpt lat="40.0728168" lon="-105.2306208">
  <ele>1596.51</ele>
  <time>2026-08-27T18:30:38Z</time>
  <course>347.97</course>
  <speed>0.02</speed>
  <fix>3d</fix>
</trkpt>
<trkpt lat="40.0728168" lon="-105.2306206">
  <ele>1596.43</ele>
  <time>2026-08-27T18:30:38Z</time>
  <course>215.54</course>
  <speed>0.0</speed>
  <fix>3d</fix>
</trkpt>
<trkpt lat="40.0728168" lon="-105.2306208">
  <ele>1596.51</ele>
  <time>2026-08-27T18:30:38Z</time>
  <course>347.96</course>
  <speed>0.02</speed>
  <fix>3d</fix>
</trkpt>
<trkpt lat="40.0728168" lon="-105.2306206">
  <ele>1596.43</ele>
  <time>2026-08-27T18:30:38Z</time>
  <course>212.97</course>
  <speed>0.0</speed>
  <fix>3d</fix>
</trkpt>
<trkpt lat="40.0728168" lon="-105.2306208">
  <ele>1596.51</ele>
  <time>2026-08-27T18:30:38Z</time>
  <course>347.96</course>
  <speed>0.02</speed>
  <fix>3d</fix>
</trkpt>
<trkpt lat="40.0728168" lon="-105.2306206">
  <ele>1596.43</ele>
  <time>2026-08-27T18:30:38Z</time>
  <course>210.88</course>
  <speed>0.0</speed>
  <fix>3d</fix>
</trkpt>
<trkpt lat="40.0728168" lon="-105.2306208">
  <ele>1596.52</ele>
  <time>2026-08-27T18:30:38Z</time>
  <course>347.96</course>
  <speed>0.02</speed>
  <fix>3d</fix>
</trkpt>
<trkpt lat="40.0728168" lon="-105.2306206">
  <ele>1596.43</ele>
  <time>2026-08-27T18:30:38Z</time>
  <course>209.08</course>
  <speed>0.0</speed>
  <fix>3d</fix>
</trkpt>
<trkpt lat="40.0728168" lon="-105.2306208">
  <ele>1596.52</ele>
  <time>2026-08-27T18:30:38Z</time>
  <course>347.96</course>
  <speed>0.02</speed>
  <fix>3d</fix>
</trkpt>
<trkpt lat="40.0728168" lon="-105.2306207">
  <ele>1596.43</ele>
  <time>2026-08-27T18:30:38Z</time>
  <course>208.76</course>
  <speed>0.0</speed>
  <fix>3d</fix>
</trkpt>
<trkpt lat="40.0728168" lon="-105.2306208">
  <ele>1596.52</ele>
  <time>2026-08-27T18:30:38Z</time>
  <course>347.96</course>
  <speed>0.02</speed>
  <fix>3d</fix>
</trkpt>
<trkpt lat="40.0728168" lon="-105.2306208">
  <ele>1596.43</ele>
  <time>2026-08-27T18:30:38Z</time>
  <course>210.63</course>
  <speed>0.0</speed>
  <fix>3d</fix>
</trkpt>
<trkpt lat="40.0728168" lon="-105.2306208">
  <ele>1596.52</ele>
  <time>2026-08-27T18:30:38Z</time>
  <course>347.97</course>
  <speed>0.02</speed>
  <fix>3d</fix>
</trkpt>
<trkpt lat="40.0728168" lon="-105.2306208">
  <ele>1596.43</ele>
  <time>2026-08-27T18:30:38Z</time>
  <course>213.28</course>
  <speed>0.0</speed>
  <fix>3d</fix>
</trkpt>
<trkpt lat="40.0728168" lon="-105.2306209">
  <ele>1596.52</ele>
  <time>2026-08-27T18:30:38Z</time>
  <course>347.97</course>
  <speed>0.02</speed>
  <fix>3d</fix>
</trkpt>
<trkpt lat="40.0728168" lon="-105.2306208">
  <ele>1596.43</ele>
  <time>2026-08-27T18:30:38Z</time>
  <course>212.86</course>
  <speed>0.0</speed>
  <fix>3d</fix>
</trkpt>
<trkpt lat="40.0728168" lon="-105.2306209">
  <ele>1596.52</ele>
  <time>2026-08-27T18:30:38Z</time>
  <course>347.97</course>
  <speed>0.02</speed>
  <fix>3d</fix>
</trkpt>
<trkpt lat="40.0728168" lon="-105.2306208">
  <ele>1596.43</ele>
  <time>2026-08-27T18:30:38Z</time>
  <course>207.57</course>
  <speed>0.0</speed>
  <fix>3d</fix>
</trkpt>
<trkpt lat="40.0728168" lon="-105.2306209">
  <ele>1596.52</ele>
  <time>2026-08-27T18:30:38Z</time>
  <course>347.97</course>
  <speed>0.02</speed>
  <fix>3d</fix>
</trkpt>
<trkpt lat="40.0728168" lon="-105.2306208">
  <ele>1596.43</ele>
  <time>2026-08-27T18:30:38Z</time>
  <course>197.75</course>
  <speed>0.0</speed>
  <fix>3d</fix>
</trkpt>
<trkpt lat="40.0728168" lon="-105.2306209">
  <ele>1596.52</ele>
  <time>2026-08-27T18:30:38Z</time>
  <course>347.98</course>
  <speed>0.02</speed>
  <fix>3d</fix>
</trkpt>
<trkpt lat="40.0728168" lon="-105.2306208">
  <ele>1596.43</ele>
  <time>2026-08-27T18:30:38Z</time>
  <course>184.45</course>
  <speed>0.0</speed>
  <fix>3d</fix>
</trkpt>
<trkpt lat="40.0728168" lon="-105.2306209">
  <ele>1596.52</ele>
  <time>2026-08-27T18:30:38Z</time>
  <course>347.98</course>
  <speed>0.022360679774997897</speed>
  <fix>3d</fix>
</trkpt>
<trkpt lat="40.0728167" lon="-105.2306208">
  <ele>1596.42</ele>
  <time>2026-08-27T18:30:38Z</time>
  <course>171.78</course>
  <speed>0.0</speed>
  <fix>3d</fix>
</trkpt>
<trkpt lat="40.0728168" lon="-105.2306209">
  <ele>1596.51</ele>
  <time>2026-08-27T18:30:38Z</time>
  <course>347.98</course>
  <speed>0.02</speed>
  <fix>3d</fix>
</trkpt>
<trkpt lat="40.0728167" lon="-105.2306208">
  <ele>1596.42</ele>
  <time>2026-08-27T18:30:38Z</time>
  <course>157.87</course>
  <speed>0.0</speed>
  <fix>3d</fix>
</trkpt>
<trkpt lat="40.0728168" lon="-105.2306209">
  <ele>1596.51</ele>
  <time>2026-08-27T18:30:38Z</time>
  <course>347.97</course>
  <speed>0.01</speed>
  <fix>3d</fix>
</trkpt>
<trkpt lat="40.0728167" lon="-105.2306208">
  <ele>1596.42</ele>
  <time>2026-08-27T18:30:38Z</time>
  <course>144.6</course>
  <speed>0.0</speed>
  <fix>3d</fix>
</trkpt>
<trkpt lat="40.0728168" lon="-105.2306209">
  <ele>1596.51</ele>
  <time>2026-08-27T18:30:38Z</time>
  <course>347.96</course>
  <speed>0.01414213562373095</speed>
  <fix>3d</fix>
</trkpt>
<trkpt lat="40.0728167" lon="-105.2306208">
  <ele>1596.42</ele>
  <time>2026-08-27T18:30:38Z</time>
  <course>135.08</course>
  <speed>0.0</speed>
  <fix>3d</fix>
</trkpt>
<trkpt lat="40.0728168" lon="-105.2306209">
  <ele>1596.51</ele>
  <time>2026-08-27T18:30:38Z</time>
  <course>347.94</course>
  <speed>0.01414213562373095</speed>
  <fix>3d</fix>
</trkpt>
<trkpt lat="40.0728167" lon="-105.2306208">
  <ele>1596.42</ele>
  <time>2026-08-27T18:30:38Z</time>
  <course>126.51</course>
  <speed>0.0</speed>
  <fix>3d</fix>
</trkpt>
<trkpt lat="40.0728168" lon="-105.2306209">
  <ele>1596.5</ele>
  <time>2026-08-27T18:30:38Z</time>
  <course>347.92</course>
  <speed>0.01414213562373095</speed>
  <fix>3d</fix>
</trkpt>
<trkpt lat="40.0728167" lon="-105.2306208">
  <ele>1596.42</ele>
  <time>2026-08-27T18:30:38Z</time>
  <course>119.71</course>
  <speed>0.0</speed>
  <fix>3d</fix>
</trkpt>
<trkpt lat="40.0728168" lon="-105.2306209">
  <ele>1596.5</ele>
  <time>2026-08-27T18:30:38Z</time>
  <course>347.91</course>
  <speed>0.01414213562373095</speed>
  <fix>3d</fix>
</trkpt>
<trkpt lat="40.0728167" lon="-105.2306208">
  <ele>1596.42</ele>
  <time>2026-08-27T18:30:38Z</time>
  <course>114.11</course>
  <speed>0.0</speed>
  <fix>3d</fix>
</trkpt>
<trkpt lat="40.0728168" lon="-105.2306209">
  <ele>1596.51</ele>
  <time>2026-08-27T18:30:38Z</time>
  <course>347.89</course>
  <speed>0.01414213562373095</speed>
  <fix>3d</fix>
</trkpt>
<trkpt lat="40.0728167" lon="-105.2306208">
  <ele>1596.42</ele>
  <time>2026-08-27T18:30:38Z</time>
  <course>106.77</course>
  <speed>0.0</speed>
  <fix>3d</fix>
</trkpt>
<trkpt lat="40.0728168" lon="-105.2306209">
  <ele>1596.51</ele>
  <time>2026-08-27T18:30:38Z</time>
  <course>347.89</course>
  <speed>0.01414213562373095</speed>
  <fix>3d</fix>
</trkpt>
<trkpt lat="40.0728167" lon="-105.2306208">
  <ele>1596.42</ele>
  <time>2026-08-27T18:30:38Z</time>
  <course>98.23</course>
  <speed>0.0</speed>
  <fix>3d</fix>
</trkpt>
<trkpt lat="40.0728168" lon="-105.2306209">
  <ele>1596.51</ele>
  <time>2026-08-27T18:30:38Z</time>
  <course>347.88</course>
  <speed>0.01414213562373095</speed>
  <fix>3d</fix>
</trkpt>
<trkpt lat="40.0728167" lon="-105.2306208">
  <ele>1596.42</ele>
  <time>2026-08-27T18:30:38Z</time>
  <course>90.64</course>
  <speed>0.0</speed>
  <fix>3d</fix>
</trkpt>
<trkpt lat="40.0728168" lon="-105.2306209">
  <ele>1596.51</ele>
  <time>2026-08-27T18:30:38Z</time>
  <course>347.88</course>
  <speed>0.01414213562373095</speed>
  <fix>3d</fix>
</trkpt>
<trkpt lat="40.0728167" lon="-105.2306208">
  <ele>1596.42</ele>
  <time>2026-08-27T18:30:38Z</time>
  <course>83.54</course>
  <speed>0.0</speed>
  <fix>3d</fix>
</trkpt>
<trkpt lat="40.0728168" lon="-105.2306209">
  <ele>1596.51</ele>
  <time>2026-08-27T18:30:38Z</time>
  <course>347.88</course>
  <speed>0.01414213562373095</speed>
  <fix>3d</fix>
</trkpt>
<trkpt lat="40.0728167" lon="-105.2306207">
  <ele>1596.42</ele>
  <time>2026-08-27T18:30:38Z</time>
  <course>77.06</course>
  <speed>0.0</speed>
  <fix>3d</fix>
</trkpt>
<trkpt lat="40.0728168" lon="-105.2306209">
  <ele>1596.5</ele>
  <time>2026-08-27T18:30:38Z</time>
  <course>347.88</course>
  <speed>0.01414213562373095</speed>
  <fix>3d</fix>
</trkpt>
<trkpt lat="40.0728167" lon="-105.2306206">
  <ele>1596.42</ele>
  <time>2026-08-27T18:30:38Z</time>
  <course>71.21</course>
  <speed>0.0</speed>
  <fix>3d</fix>
</trkpt>
<trkpt lat="40.0728168" lon="-105.2306209">
  <ele>1596.5</ele>
  <time>2026-08-27T18:30:38Z</time>
  <course>347.87</course>
  <speed>0.01414213562373095</speed>
  <fix>3d</fix>
</trkpt>
<trkpt lat="40.0728167" lon="-105.2306206">
  <ele>1596.42</ele>
  <time>2026-08-27T18:30:38Z</time>
  <course>66.08</course>
  <speed>0.0</speed>
  <fix>3d</fix>
</trkpt>
<trkpt lat="40.0728168" lon="-105.2306209">
  <ele>1596.5</ele>
  <time>2026-08-27T18:30:38Z</time>
  <course>347.87</course>
  <speed>0.01414213562373095</speed>
  <fix>3d</fix>
</trkpt>
<trkpt lat="40.0728167" lon="-105.2306206">
  <ele>1596.42</ele>
  <time>2026-08-27T18:30:38Z</time>
  <course>61.5</course>
  <speed>0.0</speed>
  <fix>3d</fix>
</trkpt>
<trkpt lat="40.0728168" lon="-105.2306209">
  <ele>1596.5</ele>
  <time>2026-08-27T18:30:38Z</time>
  <course>347.87</course>
  <speed>0.022360679774997897</speed>
  <fix>3d</fix>
</trkpt>
<trkpt lat="40.0728167" lon="-105.2306206">
  <ele>1596.42</ele>
  <time>2026-08-27T18:30:38Z</time>
  <course>56.07</course>
  <speed>0.0</speed>
  <fix>3d</fix>
</trkpt>
<trkpt lat="40.0728168" lon="-105.2306209">
  <ele>1596.5</ele>
  <time>2026-08-27T18:30:38Z</time>
  <course>347.86</course>
  <speed>0.022360679774997897</speed>
  <fix>3d</fix>
</trkpt>
<trkpt lat="40.0728167" lon="-105.2306206">
  <ele>1596.42</ele>
  <time>2026-08-27T18:30:38Z</time>
  <course>49.39</course>
  <speed>0.0</speed>
  <fix>3d</fix>
</trkpt>
<trkpt lat="40.0728168" lon="-105.2306209">
  <ele>1596.51</ele>
  <time>2026-08-27T18:30:38Z</time>
  <course>347.86</course>
  <speed>0.022360679774997897</speed>
  <fix>3d</fix>
</trkpt>
<trkpt lat="40.0728167" lon="-105.2306206">
  <ele>1596.43</ele>
  <time>2026-08-27T18:30:38Z</time>
  <course>37.71</course>
  <speed>0.0</speed>
  <fix>3d</fix>
</trkpt>
<trkpt lat="40.0728168" lon="-105.2306209">
  <ele>1596.51</ele>
  <time>2026-08-27T18:30:38Z</time>
  <course>347.87</course>
  <speed>0.022360679774997897</speed>
  <fix>3d</fix>
</trkpt>
<trkpt lat="40.0728167" lon="-105.2306206">
  <ele>1596.43</ele>
  <time>2026-08-27T18:30:38Z</time>
  <course>11.6</course>
  <speed>0.0</speed>
  <fix>3d</fix>
</trkpt>
<trkpt lat="40.0728168" lon="-105.2306209">
  <ele>1596.51</ele>
  <time>2026-08-27T18:30:38Z</time>
  <course>347.87</course>
  <speed>0.022360679774997897</speed>
  <fix>3d</fix>
</trkpt>
<trkpt lat="40.0728167" lon="-105.2306206">
  <ele>1596.43</ele>
  <time>2026-08-27T18:30:38Z</time>
  <course>331.47</course>
  <speed>0.0</speed>
  <fix>3d</fix>
</trkpt>
<trkpt lat="40.0728168" lon="-105.2306209">
  <ele>1596.51</ele>
  <time>2026-08-27T18:30:38Z</time>
  <course>347.87</course>
  <speed>0.022360679774997897</speed>
  <fix>3d</fix>
</trkpt>
<trkpt lat="40.0728167" lon="-105.2306206">
  <ele>1596.43</ele>
  <time>2026-08-27T18:30:38Z</time>
  <course>302.33</course>
  <speed>0.0</speed>
  <fix>3d</fix>
</trkpt>
<trkpt lat="40.0728168" lon="-105.2306209">
  <ele>1596.52</ele>
  <time>2026-08-27T18:30:38Z</time>
  <course>347.88</course>
  <speed>0.022360679774997897</speed>
  <fix>3d</fix>
</trkpt>
<trkpt lat="40.0728167" lon="-105.2306206">
  <ele>1596.43</ele>
  <time>2026-08-27T18:30:38Z</time>
  <course>292.38</course>
  <speed>0.0</speed>
  <fix>3d</fix>
</trkpt>
<trkpt lat="40.0728168" lon="-105.2306209">
  <ele>1596.52</ele>
  <time>2026-08-27T18:30:38Z</time>
  <course>347.88</course>
  <speed>0.022360679774997897</speed>
  <fix>3d</fix>
</trkpt>
<trkpt lat="40.0728167" lon="-105.2306206">
  <ele>1596.43</ele>
  <time>2026-08-27T18:30:38Z</time>
  <course>293.9</course>
  <speed>0.0</speed>
  <fix>3d</fix>
</trkpt>
<trkpt lat="40.0728168" lon="-105.2306209">
  <ele>1596.51</ele>
  <time>2026-08-27T18:30:38Z</time>
  <course>347.89</course>
  <speed>0.022360679774997897</speed>
  <fix>3d</fix>
</trkpt>
<trkpt lat="40.0728167" lon="-105.2306206">
  <ele>1596.43</ele>
  <time>2026-08-27T18:30:38Z</time>
  <course>303.66</course>
  <speed>0.0</speed>
  <fix>3d</fix>
</trkpt>
<trkpt lat="40.0728168" lon="-105.2306209">
  <ele>1596.51</ele>
  <time>2026-08-27T18:30:38Z</time>
  <course>347.89</course>
  <speed>0.022360679774997897</speed>
  <fix>3d</fix>
</trkpt>
<trkpt lat="40.0728167" lon="-105.2306206">
  <ele>1596.43</ele>
  <time>2026-08-27T18:30:38Z</time>
  <course>313.93</course>
  <speed>0.0</speed>
  <fix>3d</fix>
</trkpt>
<trkpt lat="40.0728168" lon="-105.2306209">
  <ele>1596.51</ele>
  <time>2026-08-27T18:30:38Z</time>
  <course>347.89</course>
  <speed>0.022360679774997897</speed>
  <fix>3d</fix>
</trkpt>
<trkpt lat="40.0728167" lon="-105.2306206">
  <ele>1596.43</ele>
  <time>2026-08-27T18:30:38Z</time>
  <course>318.54</course>
  <speed>0.0</speed>
  <fix>3d</fix>
</trkpt>
<trkpt lat="40.0728168" lon="-105.2306209">
  <ele>1596.52</ele>
  <time>2026-08-27T18:30:38Z</time>
  <course>347.89</course>
  <speed>0.022360679774997897</speed>
  <fix>3d</fix>
</trkpt>
<trkpt lat="40.0728167" lon="-105.2306206">
  <ele>1596.43</ele>
  <time>2026-08-27T18:30:38Z</time>
  <course>319.13</course>
  <speed>0.0</speed>
  <fix>3d</fix>
</trkpt>
<trkpt lat="40.0728168" lon="-105.2306209">
  <ele>1596.52</ele>
  <time>2026-08-27T18:30:38Z</time>
  <course>347.9</course>
  <speed>0.022360679774997897</speed>
  <fix>3d</fix>
</trkpt>
<trkpt lat="40.0728167" lon="-105.2306206">
  <ele>1596.43</ele>
  <time>2026-08-27T18:30:38Z</time>
  <course>321.17</course>
  <speed>0.0</speed>
  <fix>3d</fix>
</trkpt>
<trkpt lat="40.0728168" lon="-105.2306209">
  <ele>1596.51</ele>
  <time>2026-08-27T18:30:38Z</time>
  <course>347.91</course>
  <speed>0.022360679774997897</speed>
  <fix>3d</fix>
</trkpt>
<trkpt lat="40.0728167" lon="-105.2306206">
  <ele>1596.43</ele>
  <time>2026-08-27T18:30:38Z</time>
  <course>323.84</course>
  <speed>0.0</speed>
  <fix>3d</fix>
</trkpt>
<trkpt lat="40.0728168" lon="-105.2306209">
  <ele>1596.51</ele>
  <time>2026-08-27T18:30:38Z</time>
  <course>347.9</course>
  <speed>0.022360679774997897</speed>
  <fix>3d</fix>
</trkpt>
<trkpt lat="40.0728167" lon="-105.2306206">
  <ele>1596.43</ele>
  <time>2026-08-27T18:30:38Z</time>
  <course>323.61</course>
  <speed>0.0</speed>
  <fix>3d</fix>
</trkpt>
<trkpt lat="40.0728168" lon="-105.2306209">
  <ele>1596.51</ele>
  <time>2026-08-27T18:30:38Z</time>
  <course>347.9</course>
  <speed>0.022360679774997897</speed>
  <fix>3d</fix>
</trkpt>
<trkpt lat="40.0728167" lon="-105.2306206">
  <ele>1596.43</ele>
  <time>2026-08-27T18:30:38Z</time>
  <course>321.09</course>
  <speed>0.0</speed>
  <fix>3d</fix>
</trkpt>
<trkpt lat="40.0728168" lon="-105.2306209">
  <ele>1596.51</ele>
  <time>2026-08-27T18:30:38Z</time>
  <course>347.9</course>
  <speed>0.022360679774997897</speed>
  <fix>3d</fix>
</trkpt>
<trkpt lat="40.0728167" lon="-105.2306206">
  <ele>1596.43</ele>
  <time>2026-08-27T18:30:38Z</time>
  <course>321.5</course>
  <speed>0.0</speed>
  <fix>3d</fix>
</trkpt>
<trkpt lat="40.0728168" lon="-105.2306209">
  <ele>1596.51</ele>
  <time>2026-08-27T18:30:38Z</time>
  <course>347.9</course>
  <speed>0.022360679774997897</speed>
  <fix>3d</fix>
</trkpt>
<trkpt lat="40.0728167" lon="-105.2306206">
  <ele>1596.42</ele>
  <time>2026-08-27T18:30:38Z</time>
  <course>324.82</course>
  <speed>0.0</speed>
  <fix>3d</fix>
</trkpt>
<trkpt lat="40.0728168" lon="-105.2306209">
  <ele>1596.51</ele>
  <time>2026-08-27T18:30:38Z</time>
  <course>347.9</course>
  <speed>0.022360679774997897</speed>
  <fix>3d</fix>
</trkpt>
<trkpt lat="40.0728167" lon="-105.2306206">
  <ele>1596.42</ele>
  <time>2026-08-27T18:30:38Z</time>
  <course>323.44</course>
  <speed>0.0</speed>
  <fix>3d</fix>
</trkpt>
<trkpt lat="40.0728168" lon="-105.2306209">
  <ele>1596.51</ele>
  <time>2026-08-27T18:30:38Z</time>
  <course>347.9</course>
  <speed>0.022360679774997897</speed>
  <fix>3d</fix>
</trkpt>
<trkpt lat="40.0728167" lon="-105.2306206">
  <ele>1596.42</ele>
  <time>2026-08-27T18:30:38Z</time>
  <course>323.59</course>
  <speed>0.0</speed>
  <fix>3d</fix>
</trkpt>
<trkpt lat="40.0728168" lon="-105.2306209">
  <ele>1596.51</ele>
  <time>2026-08-27T18:30:38Z</time>
  <course>347.9</course>
  <speed>0.022360679774997897</speed>
  <fix>3d</fix>
</trkpt>
<trkpt lat="40.0728167" lon="-105.2306206">
  <ele>1596.42</ele>
  <time>2026-08-27T18:30:38Z</time>
  <course>326.81</course>
  <speed>0.0</speed>
  <fix>3d</fix>
</trkpt>
<trkpt lat="40.0728168" lon="-105.2306209">
  <ele>1596.51</ele>
  <time>2026-08-27T18:30:38Z</time>
  <course>347.9</course>
  <speed>0.022360679774997897</speed>
  <fix>3d</fix>
</trkpt>
<trkpt lat="40.0728167" lon="-105.2306206">
  <ele>1596.42</ele>
  <time>2026-08-27T18:30:38Z</time>
  <course>326.19</course>
  <speed>0.0</speed>
  <fix>3d</fix>
</trkpt>
<trkpt lat="40.0728168" lon="-105.2306209">
  <ele>1596.5</ele>
  <time>2026-08-27T18:30:38Z</time>
  <course>347.9</course>
  <speed>0.022360679774997897</speed>
  <fix>3d</fix>
</trkpt>
<trkpt lat="40.0728167" lon="-105.2306206">
  <ele>1596.42</ele>
  <time>2026-08-27T18:30:38Z</time>
  <course>321.18</course>
  <speed>0.0</speed>
  <fix>3d</fix>
</trkpt>
<trkpt lat="40.0728168" lon="-105.2306209">
  <ele>1596.5</ele>
  <time>2026-08-27T18:30:38Z</time>
  <course>347.9</course>
  <speed>0.022360679774997897</speed>
  <fix>3d</fix>
</trkpt>
<trkpt lat="40.0728167" lon="-105.2306206">
  <ele>1596.42</ele>
  <time>2026-08-27T18:30:38Z</time>
  <course>317.4</course>
  <speed>0.0</speed>
  <fix>3d</fix>
</trkpt>
<trkpt lat="40.0728168" lon="-105.2306209">
  <ele>1596.5</ele>
  <time>2026-08-27T18:30:38Z</time>
  <course>347.9</course>
  <speed>0.022360679774997897</speed>
  <fix>3d</fix>
</trkpt>
<trkpt lat="40.0728167" lon="-105.2306206">
  <ele>1596.42</ele>
  <time>2026-08-27T18:30:38Z</time>
  <course>316.29</course>
  <speed>0.0</speed>
  <fix>3d</fix>
</trkpt>
<trkpt lat="40.0728168" lon="-105.2306209">
  <ele>1596.5</ele>
  <time>2026-08-27T18:30:38Z</time>
  <course>347.88</course>
  <speed>0.022360679774997897</speed>
  <fix>3d</fix>
</trkpt>
<trkpt lat="40.0728168" lon="-105.2306206">
  <ele>1596.42</ele>
  <time>2026-08-27T18:30:38Z</time>
  <course>316.35</course>
  <speed>0.0</speed>
  <fix>3d</fix>
</trkpt>
<trkpt lat="40.0728168" lon="-105.2306209">
  <ele>1596.5</ele>
  <time>2026-08-27T18:30:38Z</time>
  <course>347.86</course>
  <speed>0.022360679774997897</speed>
  <fix>3d</fix>
</trkpt>
<trkpt lat="40.0728168" lon="-105.2306206">
  <ele>1596.42</ele>
  <time>2026-08-27T18:30:38Z</time>
  <course>315.19</course>
  <speed>0.0</speed>
  <fix>3d</fix>
</trkpt>
<trkpt lat="40.0728168" lon="-105.2306209">
  <ele>1596.51</ele>
  <time>2026-08-27T18:30:38Z</time>
  <course>347.84</course>
  <speed>0.022360679774997897</speed>
  <fix>3d</fix>
</trkpt>
<trkpt lat="40.0728168" lon="-105.2306206">
  <ele>1596.42</ele>
  <time>2026-08-27T18:30:38Z</time>
  <course>310.78</course>
  <speed>0.0</speed>
  <fix>3d</fix>
</trkpt>
<trkpt lat="40.0728168" lon="-105.2306209">
  <ele>1596.52</ele>
  <time>2026-08-27T18:30:38Z</time>
  <course>347.83</course>
  <speed>0.022360679774997897</speed>
  <fix>3d</fix>
</trkpt>
<trkpt lat="40.0728168" lon="-105.2306206">
  <ele>1596.42</ele>
  <time>2026-08-27T18:30:38Z</time>
  <course>301.49</course>
  <speed>0.0</speed>
  <fix>3d</fix>
</trkpt>
<trkpt lat="40.0728168" lon="-105.2306209">
  <ele>1596.52</ele>
  <time>2026-08-27T18:30:38Z</time>
  <course>347.83</course>
  <speed>0.022360679774997897</speed>
  <fix>3d</fix>
</trkpt>
<trkpt lat="40.0728168" lon="-105.2306206">
  <ele>1596.43</ele>
  <time>2026-08-27T18:30:38Z</time>
  <course>285.55</course>
  <speed>0.0</speed>
  <fix>3d</fix>
</trkpt>
<trkpt lat="40.0728168" lon="-105.2306209">
  <ele>1596.52</ele>
  <time>2026-08-27T18:30:38Z</time>
  <course>347.86</course>
  <speed>0.022360679774997897</speed>
  <fix>3d</fix>
</trkpt>
<trkpt lat="40.0728168" lon="-105.2306206">
  <ele>1596.43</ele>
  <time>2026-08-27T18:30:38Z</time>
  <course>271.04</course>
  <speed>0.0</speed>
  <fix>3d</fix>
</trkpt>
<trkpt lat="40.0728168" lon="-105.2306209">
  <ele>1596.52</ele>
  <time>2026-08-27T18:30:39Z</time>
  <course>347.88</course>
  <speed>0.022360679774997897</speed>
  <fix>3d</fix>
</trkpt>
<trkpt lat="40.0728168" lon="-105.2306206">
  <ele>1596.42</ele>
  <time>2026-08-27T18:30:39Z</time>
  <course>259.45</course>
  <speed>0.0</speed>
  <fix>3d</fix>
</trkpt>
<trkpt lat="40.0728168" lon="-105.2306209">
  <ele>1596.52</ele>
  <time>2026-08-27T18:30:39Z</time>
  <course>347.89</course>
  <speed>0.022360679774997897</speed>
  <fix>3d</fix>
</trkpt>
<trkpt lat="40.0728168" lon="-105.2306206">
  <ele>1596.42</ele>
  <time>2026-08-27T18:30:39Z</time>
  <course>247.51</course>
  <speed>0.0</speed>
  <fix>3d</fix>
</trkpt>
<trkpt lat="40.0728168" lon="-105.2306209">
  <ele>1596.51</ele>
  <time>2026-08-27T18:30:39Z</time>
  <course>347.89</course>
  <speed>0.02</speed>
  <fix>3d</fix>
</trkpt>
<trkpt lat="40.0728168" lon="-105.2306206">
  <ele>1596.42</ele>
  <time>2026-08-27T18:30:39Z</time>
  <course>237.01</course>
  <speed>0.0</speed>
  <fix>3d</fix>
</trkpt>
<trkpt lat="40.0728168" lon="-105.2306209">
  <ele>1596.51</ele>
  <time>2026-08-27T18:30:39Z</time>
  <course>347.87</course>
  <speed>0.02</speed>
  <fix>3d</fix>
</trkpt>
<trkpt lat="40.0728168" lon="-105.2306207">
  <ele>1596.42</ele>
  <time>2026-08-27T18:30:39Z</time>
  <course>231.27</course>
  <speed>0.0</speed>
  <fix>3d</fix>
</trkpt>
<trkpt lat="40.0728168" lon="-105.2306209">
  <ele>1596.51</ele>
  <time>2026-08-27T18:30:39Z</time>
  <course>347.85</course>
  <speed>0.02</speed>
  <fix>3d</fix>
</trkpt>
<trkpt lat="40.0728168" lon="-105.2306208">
  <ele>1596.42</ele>
  <time>2026-08-27T18:30:39Z</time>
  <course>228.51</course>
  <speed>0.0</speed>
  <fix>3d</fix>
</trkpt>
<trkpt lat="40.0728168" lon="-105.2306209">
  <ele>1596.51</ele>
  <time>2026-08-27T18:30:39Z</time>
  <course>347.84</course>
  <speed>0.02</speed>
  <fix>3d</fix>
</trkpt>
<trkpt lat="40.0728168" lon="-105.2306208">
  <ele>1596.42</ele>
  <time>2026-08-27T18:30:39Z</time>
  <course>226.5</course>
  <speed>0.0</speed>
  <fix>3d</fix>
</trkpt>
<trkpt lat="40.0728168" lon="-105.2306209">
  <ele>1596.51</ele>
  <time>2026-08-27T18:30:39Z</time>
  <course>347.84</course>
  <speed>0.02</speed>
  <fix>3d</fix>
</trkpt>
<trkpt lat="40.0728168" lon="-105.2306208">
  <ele>1596.42</ele>
  <time>2026-08-27T18:30:39Z</time>
  <course>224.82</course>
  <speed>0.0</speed>
  <fix>3d</fix>
</trkpt>
<trkpt lat="40.0728168" lon="-105.2306209">
  <ele>1596.51</ele>
  <time>2026-08-27T18:30:39Z</time>
  <course>347.85</course>
  <speed>0.02</speed>
  <fix>3d</fix>
</trkpt>
<trkpt lat="40.0728168" lon="-105.2306208">
  <ele>1596.42</ele>
  <time>2026-08-27T18:30:39Z</time>
  <course>219.67</course>
  <speed>0.0</speed>
  <fix>3d</fix>
</trkpt>
<trkpt lat="40.0728168" lon="-105.2306209">
  <ele>1596.51</ele>
  <time>2026-08-27T18:30:39Z</time>
  <course>347.85</course>
  <speed>0.02</speed>
  <fix>3d</fix>
</trkpt>
<trkpt lat="40.0728168" lon="-105.2306208">
  <ele>1596.41</ele>
  <time>2026-08-27T18:30:39Z</time>
  <course>205.06</course>
  <speed>0.0</speed>
  <fix>3d</fix>
</trkpt>
<trkpt lat="40.0728168" lon="-105.2306209">
  <ele>1596.51</ele>
  <time>2026-08-27T18:30:39Z</time>
  <course>347.84</course>
  <speed>0.02</speed>
  <fix>3d</fix>
</trkpt>
<trkpt lat="40.0728168" lon="-105.2306208">
  <ele>1596.41</ele>
  <time>2026-08-27T18:30:39Z</time>
  <course>184.5</course>
  <speed>0.0</speed>
  <fix>3d</fix>
</trkpt>
<trkpt lat="40.0728168" lon="-105.2306209">
  <ele>1596.51</ele>
  <time>2026-08-27T18:30:39Z</time>
  <course>347.83</course>
  <speed>0.02</speed>
  <fix>3d</fix>
</trkpt>
<trkpt lat="40.0728168" lon="-105.2306208">
  <ele>1596.41</ele>
  <time>2026-08-27T18:30:39Z</time>
  <course>166.81</course>
  <speed>0.0</speed>
  <fix>3d</fix>
</trkpt>
<trkpt lat="40.0728168" lon="-105.2306209">
  <ele>1596.51</ele>
  <time>2026-08-27T18:30:39Z</time>
  <course>347.83</course>
  <speed>0.02</speed>
  <fix>3d</fix>
</trkpt>
<trkpt lat="40.0728168" lon="-105.2306208">
  <ele>1596.41</ele>
  <time>2026-08-27T18:30:39Z</time>
  <course>153.5</course>
  <speed>0.0</speed>
  <fix>3d</fix>
</trkpt>
<trkpt lat="40.0728168" lon="-105.2306209">
  <ele>1596.51</ele>
  <time>2026-08-27T18:30:39Z</time>
  <course>347.82</course>
  <speed>0.01</speed>
  <fix>3d</fix>
</trkpt>
<trkpt lat="40.0728168" lon="-105.2306208">
  <ele>1596.41</ele>
  <time>2026-08-27T18:30:39Z</time>
  <course>144.46</course>
  <speed>0.0</speed>
  <fix>3d</fix>
</trkpt>
<trkpt lat="40.0728168" lon="-105.2306209">
  <ele>1596.51</ele>
  <time>2026-08-27T18:30:39Z</time>
  <course>347.82</course>
  <speed>0.01</speed>
  <fix>3d</fix>
</trkpt>
<trkpt lat="40.0728168" lon="-105.2306208">
  <ele>1596.41</ele>
  <time>2026-08-27T18:30:39Z</time>
  <course>138.13</course>
  <speed>0.0</speed>
  <fix>3d</fix>
</trkpt>
<trkpt lat="40.0728168" lon="-105.2306209">
  <ele>1596.51</ele>
  <time>2026-08-27T18:30:39Z</time>
  <course>347.82</course>
  <speed>0.01</speed>
  <fix>3d</fix>
</trkpt>
<trkpt lat="40.0728168" lon="-105.2306208">
  <ele>1596.41</ele>
  <time>2026-08-27T18:30:39Z</time>
  <course>133.56</course>
  <speed>0.0</speed>
  <fix>3d</fix>
</trkpt>
<trkpt lat="40.0728168" lon="-105.2306209">
  <ele>1596.51</ele>
  <time>2026-08-27T18:30:39Z</time>
  <course>347.82</course>
  <speed>0.01</speed>
  <fix>3d</fix>
</trkpt>
<trkpt lat="40.0728168" lon="-105.2306208">
  <ele>1596.41</ele>
  <time>2026-08-27T18:30:39Z</time>
  <course>130.1</course>
  <speed>0.0</speed>
  <fix>3d</fix>
</trkpt>
<trkpt lat="40.0728168" lon="-105.2306209">
  <ele>1596.51</ele>
  <time>2026-08-27T18:30:39Z</time>
  <course>347.82</course>
  <speed>0.01</speed>
  <fix>3d</fix>
</trkpt>
<trkpt lat="40.0728168" lon="-105.2306208">
  <ele>1596.41</ele>
  <time>2026-08-27T18:30:39Z</time>
  <course>127.57</course>
  <speed>0.0</speed>
  <fix>3d</fix>
</trkpt>
<trkpt lat="40.0728168" lon="-105.2306209">
  <ele>1596.51</ele>
  <time>2026-08-27T18:30:39Z</time>
  <course>347.82</course>
  <speed>0.01</speed>
  <fix>3d</fix>
</trkpt>
<trkpt lat="40.0728168" lon="-105.2306208">
  <ele>1596.41</ele>
  <time>2026-08-27T18:30:39Z</time>
  <course>125.89</course>
  <speed>0.0</speed>
  <fix>3d</fix>
</trkpt>
<trkpt lat="40.0728168" lon="-105.2306209">
  <ele>1596.5</ele>
  <time>2026-08-27T18:30:39Z</time>
  <course>347.82</course>
  <speed>0.01</speed>
  <fix>3d</fix>
</trkpt>
<trkpt lat="40.0728167" lon="-105.2306208">
  <ele>1596.41</ele>
  <time>2026-08-27T18:30:39Z</time>
  <course>124.32</course>
  <speed>0.0</speed>
  <fix>3d</fix>
</trkpt>
<trkpt lat="40.0728168" lon="-105.2306209">
  <ele>1596.5</ele>
  <time>2026-08-27T18:30:39Z</time>
  <course>347.82</course>
  <speed>0.01</speed>
  <fix>3d</fix>
</trkpt>
<trkpt lat="40.0728167" lon="-105.2306208">
  <ele>1596.41</ele>
  <time>2026-08-27T18:30:39Z</time>
  <course>123.44</course>
  <speed>0.0</speed>
  <fix>3d</fix>
</trkpt>
<trkpt lat="40.0728168" lon="-105.2306209">
  <ele>1596.5</ele>
  <time>2026-08-27T18:30:39Z</time>
  <course>347.82</course>
  <speed>0.01</speed>
  <fix>3d</fix>
</trkpt>
<trkpt lat="40.0728167" lon="-105.2306207">
  <ele>1596.41</ele>
  <time>2026-08-27T18:30:39Z</time>
  <course>123.37</course>
  <speed>0.0</speed>
  <fix>3d</fix>
</trkpt>
<trkpt lat="40.0728168" lon="-105.2306209">
  <ele>1596.5</ele>
  <time>2026-08-27T18:30:39Z</time>
  <course>347.81</course>
  <speed>0.01</speed>
  <fix>3d</fix>
</trkpt>
<trkpt lat="40.0728167" lon="-105.2306206">
  <ele>1596.41</ele>
  <time>2026-08-27T18:30:39Z</time>
  <course>122.87</course>
  <speed>0.0</speed>
  <fix>3d</fix>
</trkpt>
<trkpt lat="40.0728168" lon="-105.2306209">
  <ele>1596.5</ele>
  <time>2026-08-27T18:30:39Z</time>
  <course>347.78</course>
  <speed>0.01414213562373095</speed>
  <fix>3d</fix>
</trkpt>
<trkpt lat="40.0728167" lon="-105.2306206">
  <ele>1596.42</ele>
  <time>2026-08-27T18:30:39Z</time>
  <course>120.3</course>
  <speed>0.0</speed>
  <fix>3d</fix>
</trkpt>
<trkpt lat="40.0728168" lon="-105.2306209">
  <ele>1596.5</ele>
  <time>2026-08-27T18:30:39Z</time>
  <course>347.76</course>
  <speed>0.01414213562373095</speed>
  <fix>3d</fix>
</trkpt>
<trkpt lat="40.0728167" lon="-105.2306206">
  <ele>1596.42</ele>
  <time>2026-08-27T18:30:39Z</time>
  <course>115.97</course>
  <speed>0.0</speed>
  <fix>3d</fix>
</trkpt>
<trkpt lat="40.0728168" lon="-105.2306209">
  <ele>1596.51</ele>
  <time>2026-08-27T18:30:39Z</time>
  <course>347.76</course>
  <speed>0.01414213562373095</speed>
  <fix>3d</fix>
</trkpt>
<trkpt lat="40.0728167" lon="-105.2306206">
  <ele>1596.42</ele>
  <time>2026-08-27T18:30:39Z</time>
  <course>113.21</course>
  <speed>0.0</speed>
  <fix>3d</fix>
</trkpt>
<trkpt lat="40.0728168" lon="-105.2306209">
  <ele>1596.51</ele>
  <time>2026-08-27T18:30:39Z</time>
  <course>347.77</course>
  <speed>0.022360679774997897</speed>
  <fix>3d</fix>
</trkpt>
<trkpt lat="40.0728167" lon="-105.2306206">
  <ele>1596.42</ele>
  <time>2026-08-27T18:30:39Z</time>
  <course>112.75</course>
  <speed>0.0</speed>
  <fix>3d</fix>
</trkpt>
<trkpt lat="40.0728168" lon="-105.2306209">
  <ele>1596.51</ele>
  <time>2026-08-27T18:30:39Z</time>
  <course>347.79</course>
  <speed>0.022360679774997897</speed>
  <fix>3d</fix>
</trkpt>
<trkpt lat="40.0728167" lon="-105.2306206">
  <ele>1596.42</ele>
  <time>2026-08-27T18:30:39Z</time>
  <course>112.08</course>
  <speed>0.0</speed>
  <fix>3d</fix>
</trkpt>
<trkpt lat="40.0728168" lon="-105.2306209">
  <ele>1596.51</ele>
  <time>2026-08-27T18:30:39Z</time>
  <course>347.79</course>
  <speed>0.022360679774997897</speed>
  <fix>3d</fix>
</trkpt>
<trkpt lat="40.0728167" lon="-105.2306206">
  <ele>1596.43</ele>
  <time>2026-08-27T18:30:39Z</time>
  <course>109.16</course>
  <speed>0.0</speed>
  <fix>3d</fix>
</trkpt>
<trkpt lat="40.0728168" lon="-105.2306209">
  <ele>1596.51</ele>
  <time>2026-08-27T18:30:39Z</time>
  <course>347.8</course>
  <speed>0.022360679774997897</speed>
  <fix>3d</fix>
</trkpt>
<trkpt lat="40.0728167" lon="-105.2306206">
  <ele>1596.43</ele>
  <time>2026-08-27T18:30:39Z</time>
  <course>100.69</course>
  <speed>0.0</speed>
  <fix>3d</fix>
</trkpt>
<trkpt lat="40.0728168" lon="-105.2306209">
  <ele>1596.52</ele>
  <time>2026-08-27T18:30:39Z</time>
  <course>347.81</course>
  <speed>0.022360679774997897</speed>
  <fix>3d</fix>
</trkpt>
<trkpt lat="40.0728167" lon="-105.2306206">
  <ele>1596.43</ele>
  <time>2026-08-27T18:30:39Z</time>
  <course>79.3</course>
  <speed>0.0</speed>
  <fix>3d</fix>
</trkpt>
<trkpt lat="40.0728168" lon="-105.2306209">
  <ele>1596.52</ele>
  <time>2026-08-27T18:30:39Z</time>
  <course>347.81</course>
  <speed>0.022360679774997897</speed>
  <fix>3d</fix>
</trkpt>
<trkpt lat="40.0728167" lon="-105.2306206">
  <ele>1596.43</ele>
  <time>2026-08-27T18:30:39Z</time>
  <course>38.43</course>
  <speed>0.0</speed>
  <fix>3d</fix>
</trkpt>
<trkpt lat="40.0728168" lon="-105.2306209">
  <ele>1596.53</ele>
  <time>2026-08-27T18:30:39Z</time>
  <course>347.84</course>
  <speed>0.022360679774997897</speed>
  <fix>3d</fix>
</trkpt>
<trkpt lat="40.0728167" lon="-105.2306206">
  <ele>1596.43</ele>
  <time>2026-08-27T18:30:39Z</time>
  <course>0.89</course>
  <speed>0.0</speed>
  <fix>3d</fix>
</trkpt>
<trkpt lat="40.0728168" lon="-105.2306209">
  <ele>1596.53</ele>
  <time>2026-08-27T18:30:39Z</time>
  <course>347.87</course>
  <speed>0.022360679774997897</speed>
  <fix>3d</fix>
</trkpt>
<trkpt lat="40.0728167" lon="-105.2306206">
  <ele>1596.43</ele>
  <time>2026-08-27T18:30:39Z</time>
  <course>341.94</course>
  <speed>0.0</speed>
  <fix>3d</fix>
</trkpt>
<trkpt lat="40.0728168" lon="-105.2306209">
  <ele>1596.53</ele>
  <time>2026-08-27T18:30:39Z</time>
  <course>347.89</course>
  <speed>0.022360679774997897</speed>
  <fix>3d</fix>
</trkpt>
<trkpt lat="40.0728167" lon="-105.2306206">
  <ele>1596.42</ele>
  <time>2026-08-27T18:30:39Z</time>
  <course>339.94</course>
  <speed>0.0</speed>
  <fix>3d</fix>
</trkpt>
<trkpt lat="40.0728168" lon="-105.2306209">
  <ele>1596.52</ele>
  <time>2026-08-27T18:30:39Z</time>
  <course>347.9</course>
  <speed>0.022360679774997897</speed>
  <fix>3d</fix>
</trkpt>
<trkpt lat="40.0728167" lon="-105.2306206">
  <ele>1596.42</ele>
  <time>2026-08-27T18:30:39Z</time>
  <course>340.64</course>
  <speed>0.0</speed>
  <fix>3d</fix>
</trkpt>
<trkpt lat="40.0728168" lon="-105.2306209">
  <ele>1596.52</ele>
  <time>2026-08-27T18:30:39Z</time>
  <course>347.89</course>
  <speed>0.022360679774997897</speed>
  <fix>3d</fix>
</trkpt>
<trkpt lat="40.0728167" lon="-105.2306206">
  <ele>1596.41</ele>
  <time>2026-08-27T18:30:39Z</time>
  <course>336.35</course>
  <speed>0.0</speed>
  <fix>3d</fix>
</trkpt>
<trkpt lat="40.0728168" lon="-105.2306209">
  <ele>1596.52</ele>
  <time>2026-08-27T18:30:39Z</time>
  <course>347.88</course>
  <speed>0.022360679774997897</speed>
  <fix>3d</fix>
</trkpt>
<trkpt lat="40.0728167" lon="-105.2306206">
  <ele>1596.41</ele>
  <time>2026-08-27T18:30:39Z</time>
  <course>330.04</course>
  <speed>0.0</speed>
  <fix>3d</fix>
</trkpt>
<trkpt lat="40.0728168" lon="-105.2306209">
  <ele>1596.51</ele>
  <time>2026-08-27T18:30:39Z</time>
  <course>347.87</course>
  <speed>0.022360679774997897</speed>
  <fix>3d</fix>
</trkpt>
<trkpt lat="40.0728167" lon="-105.2306206">
  <ele>1596.41</ele>
  <time>2026-08-27T18:30:39Z</time>
  <course>326.34</course>
  <speed>0.0</speed>
  <fix>3d</fix>
</trkpt>
<trkpt lat="40.0728168" lon="-105.2306209">
  <ele>1596.51</ele>
  <time>2026-08-27T18:30:39Z</time>
  <course>347.86</course>
  <speed>0.022360679774997897</speed>
  <fix>3d</fix>
</trkpt>
<trkpt lat="40.0728167" lon="-105.2306206">
  <ele>1596.41</ele>
  <time>2026-08-27T18:30:39Z</time>
  <course>327.88</course>
  <speed>0.0</speed>
  <fix>3d</fix>
</trkpt>
<trkpt lat="40.0728168" lon="-105.2306209">
  <ele>1596.51</ele>
  <time>2026-08-27T18:30:39Z</time>
  <course>347.85</course>
  <speed>0.022360679774997897</speed>
  <fix>3d</fix>
</trkpt>
<trkpt lat="40.0728167" lon="-105.2306206">
  <ele>1596.4</ele>
  <time>2026-08-27T18:30:39Z</time>
  <course>330.12</course>
  <speed>0.0</speed>
  <fix>3d</fix>
</trkpt>
<trkpt lat="40.0728168" lon="-105.2306209">
  <ele>1596.51</ele>
  <time>2026-08-27T18:30:39Z</time>
  <course>347.85</course>
  <speed>0.022360679774997897</speed>
  <fix>3d</fix>
</trkpt>
<trkpt lat="40.0728167" lon="-105.2306206">
  <ele>1596.4</ele>
  <time>2026-08-27T18:30:39Z</time>
  <course>329.49</course>
  <speed>0.0</speed>
  <fix>3d</fix>
</trkpt>
<trkpt lat="40.0728168" lon="-105.2306209">
  <ele>1596.51</ele>
  <time>2026-08-27T18:30:39Z</time>
  <course>347.85</course>
  <speed>0.022360679774997897</speed>
  <fix>3d</fix>
</trkpt>
<trkpt lat="40.0728167" lon="-105.2306206">
  <ele>1596.4</ele>
  <time>2026-08-27T18:30:39Z</time>
  <course>324.73</course>
  <speed>0.0</speed>
  <fix>3d</fix>
</trkpt>
<trkpt lat="40.0728168" lon="-105.2306209">
  <ele>1596.51</ele>
  <time>2026-08-27T18:30:39Z</time>
  <course>347.85</course>
  <speed>0.022360679774997897</speed>
  <fix>3d</fix>
</trkpt>
<trkpt lat="40.0728167" lon="-105.2306206">
  <ele>1596.4</ele>
  <time>2026-08-27T18:30:39Z</time>
  <course>320.52</course>
  <speed>0.0</speed>
  <fix>3d</fix>
</trkpt>
<trkpt lat="40.0728168" lon="-105.2306209">
  <ele>1596.5</ele>
  <time>2026-08-27T18:30:39Z</time>
  <course>347.83</course>
  <speed>0.022360679774997897</speed>
  <fix>3d</fix>
</trkpt>
<trkpt lat="40.0728167" lon="-105.2306206">
  <ele>1596.4</ele>
  <time>2026-08-27T18:30:39Z</time>
  <course>318.11</course>
  <speed>0.0</speed>
  <fix>3d</fix>
</trkpt>
<trkpt lat="40.0728168" lon="-105.2306209">
  <ele>1596.5</ele>
  <time>2026-08-27T18:30:39Z</time>
  <course>347.82</course>
  <speed>0.022360679774997897</speed>
  <fix>3d</fix>
</trkpt>
<trkpt lat="40.0728167" lon="-105.2306206">
  <ele>1596.4</ele>
  <time>2026-08-27T18:30:39Z</time>
  <course>315.53</course>
  <speed>0.0</speed>
  <fix>3d</fix>
</trkpt>
<trkpt lat="40.0728168" lon="-105.2306209">
  <ele>1596.5</ele>
  <time>2026-08-27T18:30:39Z</time>
  <course>347.8</course>
  <speed>0.022360679774997897</speed>
  <fix>3d</fix>
</trkpt>
<trkpt lat="40.0728167" lon="-105.2306206">
  <ele>1596.4</ele>
  <time>2026-08-27T18:30:39Z</time>
  <course>312.5</course>
  <speed>0.0</speed>
  <fix>3d</fix>
</trkpt>
<trkpt lat="40.0728168" lon="-105.2306209">
  <ele>1596.5</ele>
  <time>2026-08-27T18:30:39Z</time>
  <course>347.78</course>
  <speed>0.022360679774997897</speed>
  <fix>3d</fix>
</trkpt>
<trkpt lat="40.0728167" lon="-105.2306206">
  <ele>1596.4</ele>
  <time>2026-08-27T18:30:39Z</time>
  <course>309.04</course>
  <speed>0.0</speed>
  <fix>3d</fix>
</trkpt>
<trkpt lat="40.0728168" lon="-105.2306209">
  <ele>1596.5</ele>
  <time>2026-08-27T18:30:39Z</time>
  <course>347.77</course>
  <speed>0.022360679774997897</speed>
  <fix>3d</fix>
</trkpt>
<trkpt lat="40.0728167" lon="-105.2306206">
  <ele>1596.4</ele>
  <time>2026-08-27T18:30:39Z</time>
  <course>306.08</course>
  <speed>0.0</speed>
  <fix>3d</fix>
</trkpt>
<trkpt lat="40.0728168" lon="-105.2306209">
  <ele>1596.5</ele>
  <time>2026-08-27T18:30:39Z</time>
  <course>347.75</course>
  <speed>0.022360679774997897</speed>
  <fix>3d</fix>
</trkpt>
<trkpt lat="40.0728167" lon="-105.2306206">
  <ele>1596.4</ele>
  <time>2026-08-27T18:30:39Z</time>
  <course>305.7</course>
  <speed>0.0</speed>
  <fix>3d</fix>
</trkpt>
<trkpt lat="40.0728168" lon="-105.2306209">
  <ele>1596.49</ele>
  <time>2026-08-27T18:30:39Z</time>
  <course>347.74</course>
  <speed>0.022360679774997897</speed>
  <fix>3d</fix>
</trkpt>
<trkpt lat="40.0728167" lon="-105.2306206">
  <ele>1596.4</ele>
  <time>2026-08-27T18:30:39Z</time>
  <course>307.86</course>
  <speed>0.0</speed>
  <fix>3d</fix>
</trkpt>
<trkpt lat="40.0728168" lon="-105.2306209">
  <ele>1596.5</ele>
  <time>2026-08-27T18:30:39Z</time>
  <course>347.73</course>
  <speed>0.022360679774997897</speed>
  <fix>3d</fix>
</trkpt>
<trkpt lat="40.0728167" lon="-105.2306206">
  <ele>1596.4</ele>
  <time>2026-08-27T18:30:39Z</time>
  <course>309.63</course>
  <speed>0.0</speed>
  <fix>3d</fix>
</trkpt>
<trkpt lat="40.0728168" lon="-105.2306209">
  <ele>1596.5</ele>
  <time>2026-08-27T18:30:39Z</time>
  <course>347.73</course>
  <speed>0.022360679774997897</speed>
  <fix>3d</fix>
</trkpt>
<trkpt lat="40.0728167" lon="-105.2306206">
  <ele>1596.41</ele>
  <time>2026-08-27T18:30:39Z</time>
  <course>309.14</course>
  <speed>0.0</speed>
  <fix>3d</fix>
</trkpt>
<trkpt lat="40.0728168" lon="-105.2306209">
  <ele>1596.5</ele>
  <time>2026-08-27T18:30:39Z</time>
  <course>347.73</course>
  <speed>0.022360679774997897</speed>
  <fix>3d</fix>
</trkpt>
<trkpt lat="40.0728167" lon="-105.2306206">
  <ele>1596.41</ele>
  <time>2026-08-27T18:30:39Z</time>
  <course>305.58</course>
  <speed>0.0</speed>
  <fix>3d</fix>
</trkpt>
<trkpt lat="40.0728168" lon="-105.2306209">
  <ele>1596.5</ele>
  <time>2026-08-27T18:30:39Z</time>
  <course>347.73</course>
  <speed>0.022360679774997897</speed>
  <fix>3d</fix>
</trkpt>
<trkpt lat="40.0728167" lon="-105.2306206">
  <ele>1596.41</ele>
  <time>2026-08-27T18:30:39Z</time>
  <course>304.12</course>
  <speed>0.0</speed>
  <fix>3d</fix>
</trkpt>
<trkpt lat="40.0728168" lon="-105.2306209">
  <ele>1596.5</ele>
  <time>2026-08-27T18:30:39Z</time>
  <course>347.73</course>
  <speed>0.022360679774997897</speed>
  <fix>3d</fix>
</trkpt>
<trkpt lat="40.0728167" lon="-105.2306206">
  <ele>1596.41</ele>
  <time>2026-08-27T18:30:39Z</time>
  <course>306.11</course>
  <speed>0.0</speed>
  <fix>3d</fix>
</trkpt>
<trkpt lat="40.0728168" lon="-105.2306209">
  <ele>1596.5</ele>
  <time>2026-08-27T18:30:39Z</time>
  <course>347.73</course>
  <speed>0.022360679774997897</speed>
  <fix>3d</fix>
</trkpt>
<trkpt lat="40.0728167" lon="-105.2306206">
  <ele>1596.42</ele>
  <time>2026-08-27T18:30:39Z</time>
  <course>306.23</course>
  <speed>0.0</speed>
  <fix>3d</fix>
</trkpt>
<trkpt lat="40.0728168" lon="-105.2306209">
  <ele>1596.49</ele>
  <time>2026-08-27T18:30:39Z</time>
  <course>347.71</course>
  <speed>0.022360679774997897</speed>
  <fix>3d</fix>
</trkpt>
<trkpt lat="40.0728167" lon="-105.2306206">
  <ele>1596.42</ele>
  <time>2026-08-27T18:30:39Z</time>
  <course>306.51</course>
  <speed>0.0</speed>
  <fix>3d</fix>
</trkpt>
<trkpt lat="40.0728168" lon="-105.2306209">
  <ele>1596.49</ele>
  <time>2026-08-27T18:30:39Z</time>
  <course>347.7</course>
  <speed>0.022360679774997897</speed>
  <fix>3d</fix>
</trkpt>
<trkpt lat="40.0728167" lon="-105.2306206">
  <ele>1596.42</ele>
  <time>2026-08-27T18:30:39Z</time>
  <course>308.49</course>
  <speed>0.0</speed>
  <fix>3d</fix>
</trkpt>
<trkpt lat="40.0728168" lon="-105.2306209">
  <ele>1596.49</ele>
  <time>2026-08-27T18:30:39Z</time>
  <course>347.68</course>
  <speed>0.022360679774997897</speed>
  <fix>3d</fix>
</trkpt>
<trkpt lat="40.0728167" lon="-105.2306206">
  <ele>1596.42</ele>
  <time>2026-08-27T18:30:39Z</time>
  <course>309.5</course>
  <speed>0.0</speed>
  <fix>3d</fix>
</trkpt>
<trkpt lat="40.0728168" lon="-105.2306209">
  <ele>1596.5</ele>
  <time>2026-08-27T18:30:39Z</time>
  <course>347.66</course>
  <speed>0.022360679774997897</speed>
  <fix>3d</fix>
</trkpt>
<trkpt lat="40.0728167" lon="-105.2306206">
  <ele>1596.43</ele>
  <time>2026-08-27T18:30:39Z</time>
  <course>308.73</course>
  <speed>0.0</speed>
  <fix>3d</fix>
</trkpt>
<trkpt lat="40.0728168" lon="-105.2306209">
  <ele>1596.5</ele>
  <time>2026-08-27T18:30:39Z</time>
  <course>347.66</course>
  <speed>0.022360679774997897</speed>
  <fix>3d</fix>
</trkpt>
<trkpt lat="40.0728168" lon="-105.2306206">
  <ele>1596.43</ele>
  <time>2026-08-27T18:30:39Z</time>
  <course>306.86</course>
  <speed>0.0</speed>
  <fix>3d</fix>
</trkpt>
<trkpt lat="40.0728168" lon="-105.2306209">
  <ele>1596.51</ele>
  <time>2026-08-27T18:30:39Z</time>
  <course>347.68</course>
  <speed>0.022360679774997897</speed>
  <fix>3d</fix>
</trkpt>
<trkpt lat="40.0728168" lon="-105.2306207">
  <ele>1596.44</ele>
  <time>2026-08-27T18:30:39Z</time>
  <course>305.39</course>
  <speed>0.0</speed>
  <fix>3d</fix>
</trkpt>
<trkpt lat="40.0728168" lon="-105.2306209">
  <ele>1596.51</ele>
  <time>2026-08-27T18:30:39Z</time>
  <course>347.7</course>
  <speed>0.022360679774997897</speed>
  <fix>3d</fix>
</trkpt>
<trkpt lat="40.0728168" lon="-105.2306208">
  <ele>1596.44</ele>
  <time>2026-08-27T18:30:39Z</time>
  <course>303.49</course>
  <speed>0.0</speed>
  <fix>3d</fix>
</trkpt>
<trkpt lat="40.0728168" lon="-105.2306209">
  <ele>1596.52</ele>
  <time>2026-08-27T18:30:39Z</time>
  <course>347.71</course>
  <speed>0.022360679774997897</speed>
  <fix>3d</fix>
</trkpt>
<trkpt lat="40.0728168" lon="-105.2306208">
  <ele>1596.44</ele>
  <time>2026-08-27T18:30:39Z</time>
  <course>301.07</course>
  <speed>0.0</speed>
  <fix>3d</fix>
</trkpt>
<trkpt lat="40.0728168" lon="-105.2306209">
  <ele>1596.52</ele>
  <time>2026-08-27T18:30:39Z</time>
  <course>347.74</course>
  <speed>0.022360679774997897</speed>
  <fix>3d</fix>
</trkpt>
<trkpt lat="40.0728168" lon="-105.2306208">
  <ele>1596.45</ele>
  <time>2026-08-27T18:30:39Z</time>
  <course>297.8</course>
  <speed>0.0</speed>
  <fix>3d</fix>
</trkpt>
<trkpt lat="40.0728168" lon="-105.2306209">
  <ele>1596.53</ele>
  <time>2026-08-27T18:30:39Z</time>
  <course>347.77</course>
  <speed>0.022360679774997897</speed>
  <fix>3d</fix>
</trkpt>
<trkpt lat="40.0728168" lon="-105.2306208">
  <ele>1596.45</ele>
  <time>2026-08-27T18:30:39Z</time>
  <course>291.16</course>
  <speed>0.0</speed>
  <fix>3d</fix>
</trkpt>
<trkpt lat="40.0728168" lon="-105.2306209">
  <ele>1596.53</ele>
  <time>2026-08-27T18:30:39Z</time>
  <course>347.79</course>
  <speed>0.022360679774997897</speed>
  <fix>3d</fix>
</trkpt>
<trkpt lat="40.0728168" lon="-105.2306208">
  <ele>1596.45</ele>
  <time>2026-08-27T18:30:39Z</time>
  <course>273.62</course>
  <speed>0.0</speed>
  <fix>3d</fix>
</trkpt>
<trkpt lat="40.0728168" lon="-105.2306209">
  <ele>1596.53</ele>
  <time>2026-08-27T18:30:39Z</time>
  <course>347.81</course>
  <speed>0.022360679774997897</speed>
  <fix>3d</fix>
</trkpt>
<trkpt lat="40.0728168" lon="-105.2306208">
  <ele>1596.44</ele>
  <time>2026-08-27T18:30:39Z</time>
  <course>120.44</course>
  <speed>0.0</speed>
  <fix>3d</fix>
</trkpt>
<trkpt lat="40.0728168" lon="-105.2306209">
  <ele>1596.53</ele>
  <time>2026-08-27T18:30:39Z</time>
  <course>347.83</course>
  <speed>0.01414213562373095</speed>
  <fix>3d</fix>
</trkpt>
<trkpt lat="40.0728168" lon="-105.2306208">
  <ele>1596.44</ele>
  <time>2026-08-27T18:30:39Z</time>
  <course>111.4</course>
  <speed>0.0</speed>
  <fix>3d</fix>
</trkpt>
<trkpt lat="40.0728168" lon="-105.2306209">
  <ele>1596.53</ele>
  <time>2026-08-27T18:30:39Z</time>
  <course>347.84</course>
  <speed>0.01414213562373095</speed>
  <fix>3d</fix>
</trkpt>
<trkpt lat="40.0728168" lon="-105.2306208">
  <ele>1596.44</ele>
  <time>2026-08-27T18:30:39Z</time>
  <course>111.27</course>
  <speed>0.0</speed>
  <fix>3d</fix>
</trkpt>
<trkpt lat="40.0728168" lon="-105.2306209">
  <ele>1596.52</ele>
  <time>2026-08-27T18:30:39Z</time>
  <course>347.85</course>
  <speed>0.01414213562373095</speed>
  <fix>3d</fix>
</trkpt>
<trkpt lat="40.0728168" lon="-105.2306208">
  <ele>1596.43</ele>
  <time>2026-08-27T18:30:39Z</time>
  <course>113.28</course>
  <speed>0.0</speed>
  <fix>3d</fix>
</trkpt>
<trkpt lat="40.0728168" lon="-105.2306209">
  <ele>1596.52</ele>
  <time>2026-08-27T18:30:39Z</time>
  <course>347.85</course>
  <speed>0.01</speed>
  <fix>3d</fix>
</trkpt>
<trkpt lat="40.0728168" lon="-105.2306208">
  <ele>1596.43</ele>
  <time>2026-08-27T18:30:39Z</time>
  <course>114.33</course>
  <speed>0.0</speed>
  <fix>3d</fix>
</trkpt>
<trkpt lat="40.0728168" lon="-105.2306209">
  <ele>1596.52</ele>
  <time>2026-08-27T18:30:39Z</time>
  <course>347.85</course>
  <speed>0.01</speed>
  <fix>3d</fix>
</trkpt>
<trkpt lat="40.0728168" lon="-105.2306208">
  <ele>1596.43</ele>
  <time>2026-08-27T18:30:39Z</time>
  <course>114.99</course>
  <speed>0.0</speed>
  <fix>3d</fix>
</trkpt>
<trkpt lat="40.0728168" lon="-105.2306209">
  <ele>1596.51</ele>
  <time>2026-08-27T18:30:39Z</time>
  <course>347.83</course>
  <speed>0.01</speed>
  <fix>3d</fix>
</trkpt>
<trkpt lat="40.0728168" lon="-105.2306208">
  <ele>1596.42</ele>
  <time>2026-08-27T18:30:39Z</time>
  <course>117.21</course>
  <speed>0.0</speed>
  <fix>3d</fix>
</trkpt>
<trkpt lat="40.0728168" lon="-105.2306209">
  <ele>1596.51</ele>
  <time>2026-08-27T18:30:39Z</time>
  <course>347.81</course>
  <speed>0.01</speed>
  <fix>3d</fix>
</trkpt>
<trkpt lat="40.0728168" lon="-105.2306208">
  <ele>1596.42</ele>
  <time>2026-08-27T18:30:39Z</time>
  <course>118.08</course>
  <speed>0.0</speed>
  <fix>3d</fix>
</trkpt>
<trkpt lat="40.0728168" lon="-105.2306209">
  <ele>1596.5</ele>
  <time>2026-08-27T18:30:39Z</time>
  <course>347.8</course>
  <speed>0.01</speed>
  <fix>3d</fix>
</trkpt>
<trkpt lat="40.0728168" lon="-105.2306208">
  <ele>1596.42</ele>
  <time>2026-08-27T18:30:39Z</time>
  <course>117.24</course>
  <speed>0.0</speed>
  <fix>3d</fix>
</trkpt>
<trkpt lat="40.0728168" lon="-105.2306209">
  <ele>1596.5</ele>
  <time>2026-08-27T18:30:39Z</time>
  <course>347.78</course>
  <speed>0.01</speed>
  <fix>3d</fix>
</trkpt>
<trkpt lat="40.0728168" lon="-105.2306208">
  <ele>1596.42</ele>
  <time>2026-08-27T18:30:39Z</time>
  <course>117.19</course>
  <speed>0.01</speed>
  <fix>3d</fix>
</trkpt>
<trkpt lat="40.0728168" lon="-105.2306209">
  <ele>1596.5</ele>
  <time>2026-08-27T18:30:39Z</time>
  <course>347.77</course>
  <speed>0.01</speed>
  <fix>3d</fix>
</trkpt>
<trkpt lat="40.0728168" lon="-105.2306207">
  <ele>1596.42</ele>
  <time>2026-08-27T18:30:39Z</time>
  <course>118.5</course>
  <speed>0.01</speed>
  <fix>3d</fix>
</trkpt>
<trkpt lat="40.0728168" lon="-105.2306209">
  <ele>1596.5</ele>
  <time>2026-08-27T18:30:39Z</time>
  <course>347.76</course>
  <speed>0.01</speed>
  <fix>3d</fix>
</trkpt>
<trkpt lat="40.0728168" lon="-105.2306206">
  <ele>1596.42</ele>
  <time>2026-08-27T18:30:39Z</time>
  <course>120.02</course>
  <speed>0.01</speed>
  <fix>3d</fix>
</trkpt>
<trkpt lat="40.0728168" lon="-105.2306209">
  <ele>1596.5</ele>
  <time>2026-08-27T18:30:39Z</time>
  <course>347.73</course>
  <speed>0.01</speed>
  <fix>3d</fix>
</trkpt>
<trkpt lat="40.0728168" lon="-105.2306206">
  <ele>1596.42</ele>
  <time>2026-08-27T18:30:39Z</time>
  <course>121.81</course>
  <speed>0.0</speed>
  <fix>3d</fix>
</trkpt>
<trkpt lat="40.0728168" lon="-105.2306209">
  <ele>1596.5</ele>
  <time>2026-08-27T18:30:39Z</time>
  <course>347.7</course>
  <speed>0.01</speed>
  <fix>3d</fix>
</trkpt>
<trkpt lat="40.0728168" lon="-105.2306206">
  <ele>1596.42</ele>
  <time>2026-08-27T18:30:39Z</time>
  <course>126.31</course>
  <speed>0.0</speed>
  <fix>3d</fix>
</trkpt>
<trkpt lat="40.0728168" lon="-105.2306209">
  <ele>1596.49</ele>
  <time>2026-08-27T18:30:39Z</time>
  <course>347.69</course>
  <speed>0.02</speed>
  <fix>3d</fix>
</trkpt>
<trkpt lat="40.0728168" lon="-105.2306206">
  <ele>1596.43</ele>
  <time>2026-08-27T18:30:39Z</time>
  <course>133.26</course>
  <speed>0.0</speed>
  <fix>3d</fix>
</trkpt>
<trkpt lat="40.0728168" lon="-105.2306208">
  <ele>1596.49</ele>
  <time>2026-08-27T18:30:39Z</time>
  <course>347.67</course>
  <speed>0.02</speed>
  <fix>3d</fix>
</trkpt>
<trkpt lat="40.0728168" lon="-105.2306206">
  <ele>1596.43</ele>
  <time>2026-08-27T18:30:39Z</time>
  <course>143.47</course>
  <speed>0.0</speed>
  <fix>3d</fix>
</trkpt>
<trkpt lat="40.0728168" lon="-105.2306208">
  <ele>1596.49</ele>
  <time>2026-08-27T18:30:39Z</time>
  <course>347.66</course>
  <speed>0.02</speed>
  <fix>3d</fix>
</trkpt>
<trkpt lat="40.0728168" lon="-105.2306206">
  <ele>1596.43</ele>
  <time>2026-08-27T18:30:39Z</time>
  <course>155.46</course>
  <speed>0.0</speed>
  <fix>3d</fix>
</trkpt>
<trkpt lat="40.0728168" lon="-105.2306208">
  <ele>1596.5</ele>
  <time>2026-08-27T18:30:39Z</time>
  <course>347.65</course>
  <speed>0.02</speed>
  <fix>3d</fix>
</trkpt>
<trkpt lat="40.0728168" lon="-105.2306206">
  <ele>1596.44</ele>
  <time>2026-08-27T18:30:39Z</time>
  <course>166.17</course>
  <speed>0.0</speed>
  <fix>3d</fix>
</trkpt>
<trkpt lat="40.0728168" lon="-105.2306208">
  <ele>1596.5</ele>
  <time>2026-08-27T18:30:39Z</time>
  <course>347.66</course>
  <speed>0.02</speed>
  <fix>3d</fix>
</trkpt>
<trkpt lat="40.0728167" lon="-105.2306206">
  <ele>1596.44</ele>
  <time>2026-08-27T18:30:39Z</time>
  <course>176.3</course>
  <speed>0.0</speed>
  <fix>3d</fix>
</trkpt>
<trkpt lat="40.0728168" lon="-105.2306208">
  <ele>1596.5</ele>
  <time>2026-08-27T18:30:39Z</time>
  <course>347.66</course>
  <speed>0.02</speed>
  <fix>3d</fix>
</trkpt>
<trkpt lat="40.0728167" lon="-105.2306206">
  <ele>1596.44</ele>
  <time>2026-08-27T18:30:39Z</time>
  <course>185.22</course>
  <speed>0.0</speed>
  <fix>3d</fix>
</trkpt>
<trkpt lat="40.0728168" lon="-105.2306208">
  <ele>1596.51</ele>
  <time>2026-08-27T18:30:39Z</time>
  <course>347.68</course>
  <speed>0.02</speed>
  <fix>3d</fix>
</trkpt>
<trkpt lat="40.0728167" lon="-105.2306206">
  <ele>1596.45</ele>
  <time>2026-08-27T18:30:39Z</time>
  <course>193.07</course>
  <speed>0.0</speed>
  <fix>3d</fix>
</trkpt>
<trkpt lat="40.0728168" lon="-105.2306208">
  <ele>1596.51</ele>
  <time>2026-08-27T18:30:39Z</time>
  <course>347.69</course>
  <speed>0.02</speed>
  <fix>3d</fix>
</trkpt>
<trkpt lat="40.0728167" lon="-105.2306206">
  <ele>1596.45</ele>
  <time>2026-08-27T18:30:39Z</time>
  <course>201.45</course>
  <speed>0.0</speed>
  <fix>3d</fix>
</trkpt>
<trkpt lat="40.0728168" lon="-105.2306208">
  <ele>1596.52</ele>
  <time>2026-08-27T18:30:39Z</time>
  <course>347.71</course>
  <speed>0.022360679774997897</speed>
  <fix>3d</fix>
</trkpt>
<trkpt lat="40.0728167" lon="-105.2306206">
  <ele>1596.45</ele>
  <time>2026-08-27T18:30:39Z</time>
  <course>211.38</course>
  <speed>0.0</speed>
  <fix>3d</fix>
</trkpt>
<trkpt lat="40.0728168" lon="-105.2306208">
  <ele>1596.51</ele>
  <time>2026-08-27T18:30:39Z</time>
  <course>347.72</course>
  <speed>0.022360679774997897</speed>
  <fix>3d</fix>
</trkpt>
<trkpt lat="40.0728167" lon="-105.2306206">
  <ele>1596.46</ele>
  <time>2026-08-27T18:30:39Z</time>
  <course>223.61</course>
  <speed>0.0</speed>
  <fix>3d</fix>
</trkpt>
<trkpt lat="40.0728168" lon="-105.2306208">
  <ele>1596.52</ele>
  <time>2026-08-27T18:30:39Z</time>
  <course>347.73</course>
  <speed>0.022360679774997897</speed>
  <fix>3d</fix>
</trkpt>
<trkpt lat="40.0728167" lon="-105.2306206">
  <ele>1596.46</ele>
  <time>2026-08-27T18:30:39Z</time>
  <course>238.99</course>
  <speed>0.0</speed>
  <fix>3d</fix>
</trkpt>
<trkpt lat="40.0728168" lon="-105.2306208">
  <ele>1596.52</ele>
  <time>2026-08-27T18:30:39Z</time>
  <course>347.74</course>
  <speed>0.022360679774997897</speed>
  <fix>3d</fix>
</trkpt>
<trkpt lat="40.0728167" lon="-105.2306206">
  <ele>1596.46</ele>
  <time>2026-08-27T18:30:39Z</time>
  <course>256.65</course>
  <speed>0.0</speed>
  <fix>3d</fix>
</trkpt>
<trkpt lat="40.0728168" lon="-105.2306208">
  <ele>1596.52</ele>
  <time>2026-08-27T18:30:39Z</time>
  <course>347.76</course>
  <speed>0.022360679774997897</speed>
  <fix>3d</fix>
</trkpt>
<trkpt lat="40.0728167" lon="-105.2306206">
  <ele>1596.46</ele>
  <time>2026-08-27T18:30:39Z</time>
  <course>273.87</course>
  <speed>0.0</speed>
  <fix>3d</fix>
</trkpt>
<trkpt lat="40.0728168" lon="-105.2306208">
  <ele>1596.53</ele>
  <time>2026-08-27T18:30:39Z</time>
  <course>347.78</course>
  <speed>0.022360679774997897</speed>
  <fix>3d</fix>
</trkpt>
<trkpt lat="40.0728167" lon="-105.2306206">
  <ele>1596.46</ele>
  <time>2026-08-27T18:30:39Z</time>
  <course>288.74</course>
  <speed>0.0</speed>
  <fix>3d</fix>
</trkpt>
<trkpt lat="40.0728168" lon="-105.2306208">
  <ele>1596.53</ele>
  <time>2026-08-27T18:30:39Z</time>
  <course>347.79</course>
  <speed>0.022360679774997897</speed>
  <fix>3d</fix>
</trkpt>
<trkpt lat="40.0728167" lon="-105.2306206">
  <ele>1596.46</ele>
  <time>2026-08-27T18:30:39Z</time>
  <course>299.58</course>
  <speed>0.0</speed>
  <fix>3d</fix>
</trkpt>
<trkpt lat="40.0728168" lon="-105.2306208">
  <ele>1596.53</ele>
  <time>2026-08-27T18:30:39Z</time>
  <course>347.82</course>
  <speed>0.022360679774997897</speed>
  <fix>3d</fix>
</trkpt>
<trkpt lat="40.0728167" lon="-105.2306206">
  <ele>1596.45</ele>
  <time>2026-08-27T18:30:39Z</time>
  <course>306.41</course>
  <speed>0.0</speed>
  <fix>3d</fix>
</trkpt>
<trkpt lat="40.0728168" lon="-105.2306208">
  <ele>1596.53</ele>
  <time>2026-08-27T18:30:39Z</time>
  <course>347.84</course>
  <speed>0.022360679774997897</speed>
  <fix>3d</fix>
</trkpt>
<trkpt lat="40.0728167" lon="-105.2306206">
  <ele>1596.45</ele>
  <time>2026-08-27T18:30:39Z</time>
  <course>313.16</course>
  <speed>0.0</speed>
  <fix>3d</fix>
</trkpt>
<trkpt lat="40.0728168" lon="-105.2306208">
  <ele>1596.53</ele>
  <time>2026-08-27T18:30:39Z</time>
  <course>347.85</course>
  <speed>0.022360679774997897</speed>
  <fix>3d</fix>
</trkpt>
<trkpt lat="40.0728167" lon="-105.2306206">
  <ele>1596.44</ele>
  <time>2026-08-27T18:30:39Z</time>
  <course>319.57</course>
  <speed>0.0</speed>
  <fix>3d</fix>
</trkpt>
<trkpt lat="40.0728168" lon="-105.2306208">
  <ele>1596.52</ele>
  <time>2026-08-27T18:30:39Z</time>
  <course>347.86</course>
  <speed>0.022360679774997897</speed>
  <fix>3d</fix>
</trkpt>
<trkpt lat="40.0728167" lon="-105.2306206">
  <ele>1596.44</ele>
  <time>2026-08-27T18:30:39Z</time>
  <course>323.17</course>
  <speed>0.0</speed>
  <fix>3d</fix>
</trkpt>
<trkpt lat="40.0728168" lon="-105.2306208">
  <ele>1596.53</ele>
  <time>2026-08-27T18:30:39Z</time>
  <course>347.84</course>
  <speed>0.022360679774997897</speed>
  <fix>3d</fix>
</trkpt>
<trkpt lat="40.0728167" lon="-105.2306206">
  <ele>1596.44</ele>
  <time>2026-08-27T18:30:39Z</time>
  <course>325.39</course>
  <speed>0.0</speed>
  <fix>3d</fix>
</trkpt>
<trkpt lat="40.0728168" lon="-105.2306208">
  <ele>1596.52</ele>
  <time>2026-08-27T18:30:39Z</time>
  <course>347.83</course>
  <speed>0.022360679774997897</speed>
  <fix>3d</fix>
</trkpt>
<trkpt lat="40.0728167" lon="-105.2306206">
  <ele>1596.43</ele>
  <time>2026-08-27T18:30:39Z</time>
  <course>326.04</course>
  <speed>0.0</speed>
  <fix>3d</fix>
</trkpt>
<trkpt lat="40.0728168" lon="-105.2306208">
  <ele>1596.52</ele>
  <time>2026-08-27T18:30:39Z</time>
  <course>347.83</course>
  <speed>0.022360679774997897</speed>
  <fix>3d</fix>
</trkpt>
<trkpt lat="40.0728167" lon="-105.2306206">
  <ele>1596.43</ele>
  <time>2026-08-27T18:30:39Z</time>
  <course>325.06</course>
  <speed>0.0</speed>
  <fix>3d</fix>
</trkpt>
<trkpt lat="40.0728168" lon="-105.2306208">
  <ele>1596.52</ele>
  <time>2026-08-27T18:30:39Z</time>
  <course>347.82</course>
  <speed>0.022360679774997897</speed>
  <fix>3d</fix>
</trkpt>
<trkpt lat="40.0728167" lon="-105.2306206">
  <ele>1596.43</ele>
  <time>2026-08-27T18:30:39Z</time>
  <course>324.52</course>
  <speed>0.0</speed>
  <fix>3d</fix>
</trkpt>
<trkpt lat="40.0728168" lon="-105.2306208">
  <ele>1596.52</ele>
  <time>2026-08-27T18:30:39Z</time>
  <course>347.81</course>
  <speed>0.022360679774997897</speed>
  <fix>3d</fix>
</trkpt>
<trkpt lat="40.0728167" lon="-105.2306206">
  <ele>1596.42</ele>
  <time>2026-08-27T18:30:39Z</time>
  <course>323.58</course>
  <speed>0.0</speed>
  <fix>3d</fix>
</trkpt>
<trkpt lat="40.0728168" lon="-105.2306208">
  <ele>1596.52</ele>
  <time>2026-08-27T18:30:39Z</time>
  <course>347.8</course>
  <speed>0.022360679774997897</speed>
  <fix>3d</fix>
</trkpt>
<trkpt lat="40.0728167" lon="-105.2306206">
  <ele>1596.42</ele>
  <time>2026-08-27T18:30:39Z</time>
  <course>320.63</course>
  <speed>0.0</speed>
  <fix>3d</fix>
</trkpt>
<trkpt lat="40.0728168" lon="-105.2306208">
  <ele>1596.51</ele>
  <time>2026-08-27T18:30:39Z</time>
  <course>347.8</course>
  <speed>0.022360679774997897</speed>
  <fix>3d</fix>
</trkpt>
<trkpt lat="40.0728167" lon="-105.2306206">
  <ele>1596.42</ele>
  <time>2026-08-27T18:30:39Z</time>
  <course>317.2</course>
  <speed>0.0</speed>
  <fix>3d</fix>
</trkpt>
<trkpt lat="40.0728168" lon="-105.2306208">
  <ele>1596.51</ele>
  <time>2026-08-27T18:30:39Z</time>
  <course>347.79</course>
  <speed>0.022360679774997897</speed>
  <fix>3d</fix>
</trkpt>
<trkpt lat="40.0728167" lon="-105.2306206">
  <ele>1596.42</ele>
  <time>2026-08-27T18:30:39Z</time>
  <course>313.64</course>
  <speed>0.0</speed>
  <fix>3d</fix>
</trkpt>
<trkpt lat="40.0728168" lon="-105.2306208">
  <ele>1596.51</ele>
  <time>2026-08-27T18:30:39Z</time>
  <course>347.78</course>
  <speed>0.022360679774997897</speed>
  <fix>3d</fix>
</trkpt>
<trkpt lat="40.0728167" lon="-105.2306206">
  <ele>1596.42</ele>
  <time>2026-08-27T18:30:39Z</time>
  <course>309.39</course>
  <speed>0.0</speed>
  <fix>3d</fix>
</trkpt>
<trkpt lat="40.0728168" lon="-105.2306208">
  <ele>1596.51</ele>
  <time>2026-08-27T18:30:40Z</time>
  <course>347.78</course>
  <speed>0.022360679774997897</speed>
  <fix>3d</fix>
</trkpt>
<trkpt lat="40.0728167" lon="-105.2306206">
  <ele>1596.41</ele>
  <time>2026-08-27T18:30:40Z</time>
  <course>303.12</course>
  <speed>0.0</speed>
  <fix>3d</fix>
</trkpt>
<trkpt lat="40.0728168" lon="-105.2306208">
  <ele>1596.51</ele>
  <time>2026-08-27T18:30:40Z</time>
  <course>347.78</course>
  <speed>0.022360679774997897</speed>
  <fix>3d</fix>
</trkpt>
<trkpt lat="40.0728167" lon="-105.2306206">
  <ele>1596.41</ele>
  <time>2026-08-27T18:30:40Z</time>
  <course>301.11</course>
  <speed>0.0</speed>
  <fix>3d</fix>
</trkpt>
<trkpt lat="40.0728168" lon="-105.2306208">
  <ele>1596.51</ele>
  <time>2026-08-27T18:30:40Z</time>
  <course>347.78</course>
  <speed>0.022360679774997897</speed>
  <fix>3d</fix>
</trkpt>
<trkpt lat="40.0728167" lon="-105.2306206">
  <ele>1596.41</ele>
  <time>2026-08-27T18:30:40Z</time>
  <course>305.35</course>
  <speed>0.0</speed>
  <fix>3d</fix>
</trkpt>
<trkpt lat="40.0728168" lon="-105.2306208">
  <ele>1596.51</ele>
  <time>2026-08-27T18:30:40Z</time>
  <course>347.77</course>
  <speed>0.022360679774997897</speed>
  <fix>3d</fix>
</trkpt>
<trkpt lat="40.0728167" lon="-105.2306206">
  <ele>1596.41</ele>
  <time>2026-08-27T18:30:40Z</time>
  <course>309.49</course>
  <speed>0.0</speed>
  <fix>3d</fix>
</trkpt>
<trkpt lat="40.0728168" lon="-105.2306208">
  <ele>1596.51</ele>
  <time>2026-08-27T18:30:40Z</time>
  <course>347.76</course>
  <speed>0.022360679774997897</speed>
  <fix>3d</fix>
</trkpt>
<trkpt lat="40.0728167" lon="-105.2306206">
  <ele>1596.41</ele>
  <time>2026-08-27T18:30:40Z</time>
  <course>312.48</course>
  <speed>0.0</speed>
  <fix>3d</fix>
</trkpt>
<trkpt lat="40.0728168" lon="-105.2306208">
  <ele>1596.5</ele>
  <time>2026-08-27T18:30:40Z</time>
  <course>347.74</course>
  <speed>0.022360679774997897</speed>
  <fix>3d</fix>
</trkpt>
<trkpt lat="40.0728167" lon="-105.2306206">
  <ele>1596.41</ele>
  <time>2026-08-27T18:30:40Z</time>
  <course>313.68</course>
  <speed>0.0</speed>
  <fix>3d</fix>
</trkpt>
<trkpt lat="40.0728168" lon="-105.2306208">
  <ele>1596.5</ele>
  <time>2026-08-27T18:30:40Z</time>
  <course>347.72</course>
  <speed>0.022360679774997897</speed>
  <fix>3d</fix>
</trkpt>
<trkpt lat="40.0728167" lon="-105.2306206">
  <ele>1596.41</ele>
  <time>2026-08-27T18:30:40Z</time>
  <course>313.71</course>
  <speed>0.0</speed>
  <fix>3d</fix>
</trkpt>
<trkpt lat="40.0728168" lon="-105.2306208">
  <ele>1596.5</ele>
  <time>2026-08-27T18:30:40Z</time>
  <course>347.71</course>
  <speed>0.022360679774997897</speed>
  <fix>3d</fix>
</trkpt>
<trkpt lat="40.0728167" lon="-105.2306207">
  <ele>1596.41</ele>
  <time>2026-08-27T18:30:40Z</time>
  <course>313.39</course>
  <speed>0.0</speed>
  <fix>3d</fix>
</trkpt>
<trkpt lat="40.0728168" lon="-105.2306208">
  <ele>1596.5</ele>
  <time>2026-08-27T18:30:40Z</time>
  <course>347.7</course>
  <speed>0.022360679774997897</speed>
  <fix>3d</fix>
</trkpt>
<trkpt lat="40.0728167" lon="-105.2306208">
  <ele>1596.41</ele>
  <time>2026-08-27T18:30:40Z</time>
  <course>312.84</course>
  <speed>0.0</speed>
  <fix>3d</fix>
</trkpt>
<trkpt lat="40.0728168" lon="-105.2306209">
  <ele>1596.49</ele>
  <time>2026-08-27T18:30:40Z</time>
  <course>347.68</course>
  <speed>0.022360679774997897</speed>
  <fix>3d</fix>
</trkpt>
<trkpt lat="40.0728167" lon="-105.2306208">
  <ele>1596.41</ele>
  <time>2026-08-27T18:30:40Z</time>
  <course>315.05</course>
  <speed>0.0</speed>
  <fix>3d</fix>
</trkpt>
<trkpt lat="40.0728168" lon="-105.2306209">
  <ele>1596.5</ele>
  <time>2026-08-27T18:30:40Z</time>
  <course>347.68</course>
  <speed>0.022360679774997897</speed>
  <fix>3d</fix>
</trkpt>
<trkpt lat="40.0728167" lon="-105.2306208">
  <ele>1596.41</ele>
  <time>2026-08-27T18:30:40Z</time>
  <course>319.22</course>
  <speed>0.0</speed>
  <fix>3d</fix>
</trkpt>
<trkpt lat="40.0728168" lon="-105.2306209">
  <ele>1596.5</ele>
  <time>2026-08-27T18:30:40Z</time>
  <course>347.67</course>
  <speed>0.022360679774997897</speed>
  <fix>3d</fix>
</trkpt>
<trkpt lat="40.0728167" lon="-105.2306208">
  <ele>1596.42</ele>
  <time>2026-08-27T18:30:40Z</time>
  <course>324.64</course>
  <speed>0.0</speed>
  <fix>3d</fix>
</trkpt>
<trkpt lat="40.0728168" lon="-105.2306209">
  <ele>1596.5</ele>
  <time>2026-08-27T18:30:40Z</time>
  <course>347.67</course>
  <speed>0.022360679774997897</speed>
  <fix>3d</fix>
</trkpt>
<trkpt lat="40.0728167" lon="-105.2306208">
  <ele>1596.42</ele>
  <time>2026-08-27T18:30:40Z</time>
  <course>334.02</course>
  <speed>0.0</speed>
  <fix>3d</fix>
</trkpt>
<trkpt lat="40.0728168" lon="-105.2306209">
  <ele>1596.5</ele>
  <time>2026-08-27T18:30:40Z</time>
  <course>347.67</course>
  <speed>0.022360679774997897</speed>
  <fix>3d</fix>
</trkpt>
<trkpt lat="40.0728167" lon="-105.2306208">
  <ele>1596.42</ele>
  <time>2026-08-27T18:30:40Z</time>
  <course>354.0</course>
  <speed>0.0</speed>
  <fix>3d</fix>
</trkpt>
<trkpt lat="40.0728168" lon="-105.2306209">
  <ele>1596.5</ele>
  <time>2026-08-27T18:30:40Z</time>
  <course>347.67</course>
  <speed>0.022360679774997897</speed>
  <fix>3d</fix>
</trkpt>
<trkpt lat="40.0728168" lon="-105.2306208">
  <ele>1596.42</ele>
  <time>2026-08-27T18:30:40Z</time>
  <course>23.35</course>
  <speed>0.0</speed>
  <fix>3d</fix>
</trkpt>
<trkpt lat="40.0728168" lon="-105.2306209">
  <ele>1596.51</ele>
  <time>2026-08-27T18:30:40Z</time>
  <course>347.67</course>
  <speed>0.022360679774997897</speed>
  <fix>3d</fix>
</trkpt>
<trkpt lat="40.0728168" lon="-105.2306208">
  <ele>1596.43</ele>
  <time>2026-08-27T18:30:40Z</time>
  <course>41.22</course>
  <speed>0.0</speed>
  <fix>3d</fix>
</trkpt>
<trkpt lat="40.0728168" lon="-105.2306209">
  <ele>1596.51</ele>
  <time>2026-08-27T18:30:40Z</time>
  <course>347.67</course>
  <speed>0.022360679774997897</speed>
  <fix>3d</fix>
</trkpt>
<trkpt lat="40.0728168" lon="-105.2306208">
  <ele>1596.43</ele>
  <time>2026-08-27T18:30:40Z</time>
  <course>47.07</course>
  <speed>0.0</speed>
  <fix>3d</fix>
</trkpt>
<trkpt lat="40.0728168" lon="-105.2306209">
  <ele>1596.51</ele>
  <time>2026-08-27T18:30:40Z</time>
  <course>347.68</course>
  <speed>0.022360679774997897</speed>
  <fix>3d</fix>
</trkpt>
<trkpt lat="40.0728168" lon="-105.2306208">
  <ele>1596.43</ele>
  <time>2026-08-27T18:30:40Z</time>
  <course>49.12</course>
  <speed>0.0</speed>
  <fix>3d</fix>
</trkpt>
<trkpt lat="40.0728168" lon="-105.2306209">
  <ele>1596.51</ele>
  <time>2026-08-27T18:30:40Z</time>
  <course>347.68</course>
  <speed>0.01414213562373095</speed>
  <fix>3d</fix>
</trkpt>
<trkpt lat="40.0728168" lon="-105.2306208">
  <ele>1596.43</ele>
  <time>2026-08-27T18:30:40Z</time>
  <course>53.29</course>
  <speed>0.0</speed>
  <fix>3d</fix>
</trkpt>
<trkpt lat="40.0728168" lon="-105.2306209">
  <ele>1596.51</ele>
  <time>2026-08-27T18:30:40Z</time>
  <course>347.68</course>
  <speed>0.01414213562373095</speed>
  <fix>3d</fix>
</trkpt>
<trkpt lat="40.0728168" lon="-105.2306208">
  <ele>1596.43</ele>
  <time>2026-08-27T18:30:40Z</time>
  <course>61.11</course>
  <speed>0.0</speed>
  <fix>3d</fix>
</trkpt>
<trkpt lat="40.0728168" lon="-105.2306209">
  <ele>1596.52</ele>
  <time>2026-08-27T18:30:40Z</time>
  <course>347.68</course>
  <speed>0.01414213562373095</speed>
  <fix>3d</fix>
</trkpt>
<trkpt lat="40.0728168" lon="-105.2306208">
  <ele>1596.44</ele>
  <time>2026-08-27T18:30:40Z</time>
  <course>69.32</course>
  <speed>0.0</speed>
  <fix>3d</fix>
</trkpt>
<trkpt lat="40.0728168" lon="-105.2306209">
  <ele>1596.52</ele>
  <time>2026-08-27T18:30:40Z</time>
  <course>347.69</course>
  <speed>0.01414213562373095</speed>
  <fix>3d</fix>
</trkpt>
<trkpt lat="40.0728168" lon="-105.2306208">
  <ele>1596.44</ele>
  <time>2026-08-27T18:30:40Z</time>
  <course>78.29</course>
  <speed>0.0</speed>
  <fix>3d</fix>
</trkpt>
<trkpt lat="40.0728168" lon="-105.2306209">
  <ele>1596.52</ele>
  <time>2026-08-27T18:30:40Z</time>
  <course>347.72</course>
  <speed>0.01414213562373095</speed>
  <fix>3d</fix>
</trkpt>
<trkpt lat="40.0728168" lon="-105.2306208">
  <ele>1596.44</ele>
  <time>2026-08-27T18:30:40Z</time>
  <course>90.27</course>
  <speed>0.0</speed>
  <fix>3d</fix>
</trkpt>
<trkpt lat="40.0728168" lon="-105.2306209">
  <ele>1596.51</ele>
  <time>2026-08-27T18:30:40Z</time>
  <course>347.73</course>
  <speed>0.01</speed>
  <fix>3d</fix>
</trkpt>
<trkpt lat="40.0728168" lon="-105.2306208">
  <ele>1596.44</ele>
  <time>2026-08-27T18:30:40Z</time>
  <course>101.88</course>
  <speed>0.0</speed>
  <fix>3d</fix>
</trkpt>
<trkpt lat="40.0728168" lon="-105.2306209">
  <ele>1596.51</ele>
  <time>2026-08-27T18:30:40Z</time>
  <course>347.73</course>
  <speed>0.01</speed>
  <fix>3d</fix>
</trkpt>
<trkpt lat="40.0728168" lon="-105.2306208">
  <ele>1596.43</ele>
  <time>2026-08-27T18:30:40Z</time>
  <course>107.8</course>
  <speed>0.0</speed>
  <fix>3d</fix>
</trkpt>
<trkpt lat="40.0728168" lon="-105.2306209">
  <ele>1596.5</ele>
  <time>2026-08-27T18:30:40Z</time>
  <course>347.72</course>
  <speed>0.01</speed>
  <fix>3d</fix>
</trkpt>
<trkpt lat="40.0728168" lon="-105.2306207">
  <ele>1596.43</ele>
  <time>2026-08-27T18:30:40Z</time>
  <course>110.57</course>
  <speed>0.0</speed>
  <fix>3d</fix>
</trkpt>
<trkpt lat="40.0728168" lon="-105.2306209">
  <ele>1596.51</ele>
  <time>2026-08-27T18:30:40Z</time>
  <course>347.71</course>
  <speed>0.01</speed>
  <fix>3d</fix>
</trkpt>
<trkpt lat="40.0728168" lon="-105.2306206">
  <ele>1596.43</ele>
  <time>2026-08-27T18:30:40Z</time>
  <course>113.49</course>
  <speed>0.01</speed>
  <fix>3d</fix>
</trkpt>
<trkpt lat="40.0728168" lon="-105.2306209">
  <ele>1596.51</ele>
  <time>2026-08-27T18:30:40Z</time>
  <course>347.71</course>
  <speed>0.01</speed>
  <fix>3d</fix>
</trkpt>
<trkpt lat="40.0728168" lon="-105.2306206">
  <ele>1596.43</ele>
  <time>2026-08-27T18:30:40Z</time>
  <course>118.23</course>
  <speed>0.01</speed>
  <fix>3d</fix>
</trkpt>
<trkpt lat="40.0728168" lon="-105.2306209">
  <ele>1596.51</ele>
  <time>2026-08-27T18:30:40Z</time>
  <course>347.71</course>
  <speed>0.01</speed>
  <fix>3d</fix>
</trkpt>
<trkpt lat="40.0728168" lon="-105.2306206">
  <ele>1596.43</ele>
  <time>2026-08-27T18:30:40Z</time>
  <course>123.59</course>
  <speed>0.01</speed>
  <fix>3d</fix>
</trkpt>
<trkpt lat="40.0728168" lon="-105.2306209">
  <ele>1596.52</ele>
  <time>2026-08-27T18:30:40Z</time>
  <course>347.71</course>
  <speed>0.01</speed>
  <fix>3d</fix>
</trkpt>
<trkpt lat="40.0728168" lon="-105.2306206">
  <ele>1596.43</ele>
  <time>2026-08-27T18:30:40Z</time>
  <course>127.81</course>
  <speed>0.01</speed>
  <fix>3d</fix>
</trkpt>
<trkpt lat="40.0728168" lon="-105.2306209">
  <ele>1596.52</ele>
  <time>2026-08-27T18:30:40Z</time>
  <course>347.71</course>
  <speed>0.01</speed>
  <fix>3d</fix>
</trkpt>
<trkpt lat="40.0728168" lon="-105.2306206">
  <ele>1596.43</ele>
  <time>2026-08-27T18:30:40Z</time>
  <course>132.64</course>
  <speed>0.0</speed>
  <fix>3d</fix>
</trkpt>
<trkpt lat="40.0728168" lon="-105.2306209">
  <ele>1596.52</ele>
  <time>2026-08-27T18:30:40Z</time>
  <course>347.71</course>
  <speed>0.02</speed>
  <fix>3d</fix>
</trkpt>
<trkpt lat="40.0728168" lon="-105.2306206">
  <ele>1596.43</ele>
  <time>2026-08-27T18:30:40Z</time>
  <course>140.71</course>
  <speed>0.0</speed>
  <fix>3d</fix>
</trkpt>
<trkpt lat="40.0728168" lon="-105.2306209">
  <ele>1596.52</ele>
  <time>2026-08-27T18:30:40Z</time>
  <course>347.71</course>
  <speed>0.02</speed>
  <fix>3d</fix>
</trkpt>
<trkpt lat="40.0728168" lon="-105.2306206">
  <ele>1596.43</ele>
  <time>2026-08-27T18:30:40Z</time>
  <course>154.37</course>
  <speed>0.0</speed>
  <fix>3d</fix>
</trkpt>
<trkpt lat="40.0728168" lon="-105.2306209">
  <ele>1596.51</ele>
  <time>2026-08-27T18:30:40Z</time>
  <course>347.71</course>
  <speed>0.02</speed>
  <fix>3d</fix>
</trkpt>
<trkpt lat="40.0728168" lon="-105.2306206">
  <ele>1596.43</ele>
  <time>2026-08-27T18:30:40Z</time>
  <course>168.63</course>
  <speed>0.0</speed>
  <fix>3d</fix>
</trkpt>
<trkpt lat="40.0728168" lon="-105.2306208">
  <ele>1596.51</ele>
  <time>2026-08-27T18:30:40Z</time>
  <course>347.71</course>
  <speed>0.02</speed>
  <fix>3d</fix>
</trkpt>
<trkpt lat="40.0728168" lon="-105.2306206">
  <ele>1596.43</ele>
  <time>2026-08-27T18:30:40Z</time>
  <course>178.25</course>
  <speed>0.0</speed>
  <fix>3d</fix>
</trkpt>
<trkpt lat="40.0728168" lon="-105.2306208">
  <ele>1596.51</ele>
  <time>2026-08-27T18:30:40Z</time>
  <course>347.71</course>
  <speed>0.02</speed>
  <fix>3d</fix>
</trkpt>
<trkpt lat="40.0728168" lon="-105.2306206">
  <ele>1596.43</ele>
  <time>2026-08-27T18:30:40Z</time>
  <course>186.89</course>
  <speed>0.0</speed>
  <fix>3d</fix>
</trkpt>
<trkpt lat="40.0728168" lon="-105.2306208">
  <ele>1596.5</ele>
  <time>2026-08-27T18:30:40Z</time>
  <course>347.71</course>
  <speed>0.022360679774997897</speed>
  <fix>3d</fix>
</trkpt>
<trkpt lat="40.0728168" lon="-105.2306206">
  <ele>1596.43</ele>
  <time>2026-08-27T18:30:40Z</time>
  <course>196.18</course>
  <speed>0.0</speed>
  <fix>3d</fix>
</trkpt>
<trkpt lat="40.0728168" lon="-105.2306208">
  <ele>1596.5</ele>
  <time>2026-08-27T18:30:40Z</time>
  <course>347.7</course>
  <speed>0.022360679774997897</speed>
  <fix>3d</fix>
</trkpt>
<trkpt lat="40.0728168" lon="-105.2306206">
  <ele>1596.43</ele>
  <time>2026-08-27T18:30:40Z</time>
  <course>205.55</course>
  <speed>0.0</speed>
  <fix>3d</fix>
</trkpt>
<trkpt lat="40.0728168" lon="-105.2306208">
  <ele>1596.5</ele>
  <time>2026-08-27T18:30:40Z</time>
  <course>347.69</course>
  <speed>0.022360679774997897</speed>
  <fix>3d</fix>
</trkpt>
<trkpt lat="40.0728168" lon="-105.2306206">
  <ele>1596.43</ele>
  <time>2026-08-27T18:30:40Z</time>
  <course>211.84</course>
  <speed>0.0</speed>
  <fix>3d</fix>
</trkpt>
<trkpt lat="40.0728168" lon="-105.2306208">
  <ele>1596.5</ele>
  <time>2026-08-27T18:30:40Z</time>
  <course>347.67</course>
  <speed>0.022360679774997897</speed>
  <fix>3d</fix>
</trkpt>
<trkpt lat="40.0728167" lon="-105.2306206">
  <ele>1596.43</ele>
  <time>2026-08-27T18:30:40Z</time>
  <course>213.44</course>
  <speed>0.0</speed>
  <fix>3d</fix>
</trkpt>
<trkpt lat="40.0728168" lon="-105.2306208">
  <ele>1596.5</ele>
  <time>2026-08-27T18:30:40Z</time>
  <course>347.65</course>
  <speed>0.022360679774997897</speed>
  <fix>3d</fix>
</trkpt>
<trkpt lat="40.0728167" lon="-105.2306206">
  <ele>1596.43</ele>
  <time>2026-08-27T18:30:40Z</time>
  <course>212.96</course>
  <speed>0.0</speed>
  <fix>3d</fix>
</trkpt>
<trkpt lat="40.0728168" lon="-105.2306208">
  <ele>1596.5</ele>
  <time>2026-08-27T18:30:40Z</time>
  <course>347.63</course>
  <speed>0.022360679774997897</speed>
  <fix>3d</fix>
</trkpt>
<trkpt lat="40.0728167" lon="-105.2306206">
  <ele>1596.43</ele>
  <time>2026-08-27T18:30:40Z</time>
  <course>212.68</course>
  <speed>0.0</speed>
  <fix>3d</fix>
</trkpt>
<trkpt lat="40.0728168" lon="-105.2306208">
  <ele>1596.5</ele>
  <time>2026-08-27T18:30:40Z</time>
  <course>347.62</course>
  <speed>0.022360679774997897</speed>
  <fix>3d</fix>
</trkpt>
<trkpt lat="40.0728167" lon="-105.2306206">
  <ele>1596.44</ele>
  <time>2026-08-27T18:30:40Z</time>
  <course>215.09</course>
  <speed>0.0</speed>
  <fix>3d</fix>
</trkpt>
<trkpt lat="40.0728168" lon="-105.2306208">
  <ele>1596.51</ele>
  <time>2026-08-27T18:30:40Z</time>
  <course>347.62</course>
  <speed>0.022360679774997897</speed>
  <fix>3d</fix>
</trkpt>
<trkpt lat="40.0728167" lon="-105.2306206">
  <ele>1596.44</ele>
  <time>2026-08-27T18:30:40Z</time>
  <course>220.34</course>
  <speed>0.0</speed>
  <fix>3d</fix>
</trkpt>
<trkpt lat="40.0728168" lon="-105.2306208">
  <ele>1596.5</ele>
  <time>2026-08-27T18:30:40Z</time>
  <course>347.64</course>
  <speed>0.022360679774997897</speed>
  <fix>3d</fix>
</trkpt>
<trkpt lat="40.0728167" lon="-105.2306206">
  <ele>1596.44</ele>
  <time>2026-08-27T18:30:40Z</time>
  <course>228.17</course>
  <speed>0.0</speed>
  <fix>3d</fix>
</trkpt>
<trkpt lat="40.0728168" lon="-105.2306208">
  <ele>1596.5</ele>
  <time>2026-08-27T18:30:40Z</time>
  <course>347.66</course>
  <speed>0.022360679774997897</speed>
  <fix>3d</fix>
</trkpt>
<trkpt lat="40.0728167" lon="-105.2306206">
  <ele>1596.45</ele>
  <time>2026-08-27T18:30:40Z</time>
  <course>238.61</course>
  <speed>0.0</speed>
  <fix>3d</fix>
</trkpt>
<trkpt lat="40.0728168" lon="-105.2306208">
  <ele>1596.5</ele>
  <time>2026-08-27T18:30:40Z</time>
  <course>347.65</course>
  <speed>0.022360679774997897</speed>
  <fix>3d</fix>
</trkpt>
<trkpt lat="40.0728167" lon="-105.2306206">
  <ele>1596.45</ele>
  <time>2026-08-27T18:30:40Z</time>
  <course>247.24</course>
  <speed>0.0</speed>
  <fix>3d</fix>
</trkpt>
<trkpt lat="40.0728168" lon="-105.2306208">
  <ele>1596.51</ele>
  <time>2026-08-27T18:30:40Z</time>
  <course>347.64</course>
  <speed>0.022360679774997897</speed>
  <fix>3d</fix>
</trkpt>
<trkpt lat="40.0728167" lon="-105.2306206">
  <ele>1596.45</ele>
  <time>2026-08-27T18:30:40Z</time>
  <course>259.48</course>
  <speed>0.0</speed>
  <fix>3d</fix>
</trkpt>
<trkpt lat="40.0728168" lon="-105.2306208">
  <ele>1596.51</ele>
  <time>2026-08-27T18:30:40Z</time>
  <course>347.64</course>
  <speed>0.022360679774997897</speed>
  <fix>3d</fix>
</trkpt>
<trkpt lat="40.0728167" lon="-105.2306206">
  <ele>1596.45</ele>
  <time>2026-08-27T18:30:40Z</time>
  <course>278.29</course>
  <speed>0.0</speed>
  <fix>3d</fix>
</trkpt>
<trkpt lat="40.0728168" lon="-105.2306208">
  <ele>1596.51</ele>
  <time>2026-08-27T18:30:40Z</time>
  <course>347.66</course>
  <speed>0.022360679774997897</speed>
  <fix>3d</fix>
</trkpt>
<trkpt lat="40.0728167" lon="-105.2306206">
  <ele>1596.45</ele>
  <time>2026-08-27T18:30:40Z</time>
  <course>291.51</course>
  <speed>0.0</speed>
  <fix>3d</fix>
</trkpt>
<trkpt lat="40.0728168" lon="-105.2306208">
  <ele>1596.51</ele>
  <time>2026-08-27T18:30:40Z</time>
  <course>347.67</course>
  <speed>0.022360679774997897</speed>
  <fix>3d</fix>
</trkpt>
<trkpt lat="40.0728167" lon="-105.2306206">
  <ele>1596.45</ele>
  <time>2026-08-27T18:30:40Z</time>
  <course>299.92</course>
  <speed>0.0</speed>
  <fix>3d</fix>
</trkpt>
<trkpt lat="40.0728168" lon="-105.2306208">
  <ele>1596.51</ele>
  <time>2026-08-27T18:30:40Z</time>
  <course>347.69</course>
  <speed>0.022360679774997897</speed>
  <fix>3d</fix>
</trkpt>
<trkpt lat="40.0728167" lon="-105.2306206">
  <ele>1596.45</ele>
  <time>2026-08-27T18:30:40Z</time>
  <course>305.16</course>
  <speed>0.0</speed>
  <fix>3d</fix>
</trkpt>
<trkpt lat="40.0728168" lon="-105.2306208">
  <ele>1596.51</ele>
  <time>2026-08-27T18:30:40Z</time>
  <course>347.69</course>
  <speed>0.022360679774997897</speed>
  <fix>3d</fix>
</trkpt>
<trkpt lat="40.0728167" lon="-105.2306206">
  <ele>1596.46</ele>
  <time>2026-08-27T18:30:40Z</time>
  <course>308.79</course>
  <speed>0.0</speed>
  <fix>3d</fix>
</trkpt>
<trkpt lat="40.0728168" lon="-105.2306208">
  <ele>1596.51</ele>
  <time>2026-08-27T18:30:40Z</time>
  <course>347.7</course>
  <speed>0.022360679774997897</speed>
  <fix>3d</fix>
</trkpt>
<trkpt lat="40.0728167" lon="-105.2306206">
  <ele>1596.46</ele>
  <time>2026-08-27T18:30:40Z</time>
  <course>311.44</course>
  <speed>0.0</speed>
  <fix>3d</fix>
</trkpt>
<trkpt lat="40.0728168" lon="-105.2306208">
  <ele>1596.51</ele>
  <time>2026-08-27T18:30:40Z</time>
  <course>347.71</course>
  <speed>0.022360679774997897</speed>
  <fix>3d</fix>
</trkpt>
<trkpt lat="40.0728167" lon="-105.2306206">
  <ele>1596.46</ele>
  <time>2026-08-27T18:30:40Z</time>
  <course>311.14</course>
  <speed>0.0</speed>
  <fix>3d</fix>
</trkpt>
<trkpt lat="40.0728168" lon="-105.2306208">
  <ele>1596.52</ele>
  <time>2026-08-27T18:30:40Z</time>
  <course>347.71</course>
  <speed>0.022360679774997897</speed>
  <fix>3d</fix>
</trkpt>
<trkpt lat="40.0728167" lon="-105.2306206">
  <ele>1596.46</ele>
  <time>2026-08-27T18:30:40Z</time>
  <course>308.69</course>
  <speed>0.0</speed>
  <fix>3d</fix>
</trkpt>
<trkpt lat="40.0728168" lon="-105.2306208">
  <ele>1596.52</ele>
  <time>2026-08-27T18:30:40Z</time>
  <course>347.72</course>
  <speed>0.022360679774997897</speed>
  <fix>3d</fix>
</trkpt>
<trkpt lat="40.0728167" lon="-105.2306206">
  <ele>1596.46</ele>
  <time>2026-08-27T18:30:40Z</time>
  <course>305.69</course>
  <speed>0.0</speed>
  <fix>3d</fix>
</trkpt>
<trkpt lat="40.0728168" lon="-105.2306208">
  <ele>1596.52</ele>
  <time>2026-08-27T18:30:40Z</time>
  <course>347.72</course>
  <speed>0.022360679774997897</speed>
  <fix>3d</fix>
</trkpt>
<trkpt lat="40.0728167" lon="-105.2306206">
  <ele>1596.46</ele>
  <time>2026-08-27T18:30:40Z</time>
  <course>304.9</course>
  <speed>0.0</speed>
  <fix>3d</fix>
</trkpt>
<trkpt lat="40.0728168" lon="-105.2306208">
  <ele>1596.52</ele>
  <time>2026-08-27T18:30:40Z</time>
  <course>347.73</course>
  <speed>0.022360679774997897</speed>
  <fix>3d</fix>
</trkpt>
<trkpt lat="40.0728167" lon="-105.2306206">
  <ele>1596.45</ele>
  <time>2026-08-27T18:30:40Z</time>
  <course>309.54</course>
  <speed>0.0</speed>
  <fix>3d</fix>
</trkpt>
<trkpt lat="40.0728168" lon="-105.2306208">
  <ele>1596.52</ele>
  <time>2026-08-27T18:30:40Z</time>
  <course>347.75</course>
  <speed>0.022360679774997897</speed>
  <fix>3d</fix>
</trkpt>
<trkpt lat="40.0728167" lon="-105.2306206">
  <ele>1596.45</ele>
  <time>2026-08-27T18:30:40Z</time>
  <course>315.99</course>
  <speed>0.0</speed>
  <fix>3d</fix>
</trkpt>
<trkpt lat="40.0728168" lon="-105.2306208">
  <ele>1596.52</ele>
  <time>2026-08-27T18:30:40Z</time>
  <course>347.75</course>
  <speed>0.022360679774997897</speed>
  <fix>3d</fix>
</trkpt>
<trkpt lat="40.0728167" lon="-105.2306206">
  <ele>1596.45</ele>
  <time>2026-08-27T18:30:40Z</time>
  <course>322.02</course>
  <speed>0.0</speed>
  <fix>3d</fix>
</trkpt>
<trkpt lat="40.0728168" lon="-105.2306208">
  <ele>1596.52</ele>
  <time>2026-08-27T18:30:40Z</time>
  <course>347.74</course>
  <speed>0.022360679774997897</speed>
  <fix>3d</fix>
</trkpt>
<trkpt lat="40.0728167" lon="-105.2306206">
  <ele>1596.45</ele>
  <time>2026-08-27T18:30:40Z</time>
  <course>326.89</course>
  <speed>0.0</speed>
  <fix>3d</fix>
</trkpt>
<trkpt lat="40.0728168" lon="-105.2306208">
  <ele>1596.52</ele>
  <time>2026-08-27T18:30:40Z</time>
  <course>347.74</course>
  <speed>0.022360679774997897</speed>
  <fix>3d</fix>
</trkpt>
<trkpt lat="40.0728167" lon="-105.2306206">
  <ele>1596.44</ele>
  <time>2026-08-27T18:30:40Z</time>
  <course>326.09</course>
  <speed>0.0</speed>
  <fix>3d</fix>
</trkpt>
<trkpt lat="40.0728168" lon="-105.2306208">
  <ele>1596.53</ele>
  <time>2026-08-27T18:30:40Z</time>
  <course>347.75</course>
  <speed>0.022360679774997897</speed>
  <fix>3d</fix>
</trkpt>
<trkpt lat="40.0728167" lon="-105.2306206">
  <ele>1596.44</ele>
  <time>2026-08-27T18:30:40Z</time>
  <course>322.72</course>
  <speed>0.0</speed>
  <fix>3d</fix>
</trkpt>
<trkpt lat="40.0728168" lon="-105.2306208">
  <ele>1596.52</ele>
  <time>2026-08-27T18:30:40Z</time>
  <course>347.75</course>
  <speed>0.022360679774997897</speed>
  <fix>3d</fix>
</trkpt>
<trkpt lat="40.0728167" lon="-105.2306206">
  <ele>1596.44</ele>
  <time>2026-08-27T18:30:40Z</time>
  <course>320.58</course>
  <speed>0.0</speed>
  <fix>3d</fix>
</trkpt>
<trkpt lat="40.0728168" lon="-105.2306208">
  <ele>1596.52</ele>
  <time>2026-08-27T18:30:40Z</time>
  <course>347.75</course>
  <speed>0.022360679774997897</speed>
  <fix>3d</fix>
</trkpt>
<trkpt lat="40.0728167" lon="-105.2306206">
  <ele>1596.44</ele>
  <time>2026-08-27T18:30:40Z</time>
  <course>318.76</course>
  <speed>0.0</speed>
  <fix>3d</fix>
</trkpt>
<trkpt lat="40.0728168" lon="-105.2306208">
  <ele>1596.51</ele>
  <time>2026-08-27T18:30:40Z</time>
  <course>347.75</course>
  <speed>0.022360679774997897</speed>
  <fix>3d</fix>
</trkpt>
<trkpt lat="40.0728167" lon="-105.2306206">
  <ele>1596.43</ele>
  <time>2026-08-27T18:30:40Z</time>
  <course>319.05</course>
  <speed>0.0</speed>
  <fix>3d</fix>
</trkpt>
<trkpt lat="40.0728168" lon="-105.2306208">
  <ele>1596.51</ele>
  <time>2026-08-27T18:30:40Z</time>
  <course>347.74</course>
  <speed>0.022360679774997897</speed>
  <fix>3d</fix>
</trkpt>
<trkpt lat="40.0728167" lon="-105.2306206">
  <ele>1596.43</ele>
  <time>2026-08-27T18:30:40Z</time>
  <course>318.77</course>
  <speed>0.0</speed>
  <fix>3d</fix>
</trkpt>
<trkpt lat="40.0728168" lon="-105.2306208">
  <ele>1596.51</ele>
  <time>2026-08-27T18:30:40Z</time>
  <course>347.72</course>
  <speed>0.022360679774997897</speed>
  <fix>3d</fix>
</trkpt>
<trkpt lat="40.0728167" lon="-105.2306207">
  <ele>1596.43</ele>
  <time>2026-08-27T18:30:40Z</time>
  <course>315.66</course>
  <speed>0.0</speed>
  <fix>3d</fix>
</trkpt>
<trkpt lat="40.0728168" lon="-105.2306208">
  <ele>1596.52</ele>
  <time>2026-08-27T18:30:40Z</time>
  <course>347.72</course>
  <speed>0.022360679774997897</speed>
  <fix>3d</fix>
</trkpt>
<trkpt lat="40.0728167" lon="-105.2306208">
  <ele>1596.43</ele>
  <time>2026-08-27T18:30:40Z</time>
  <course>311.88</course>
  <speed>0.0</speed>
  <fix>3d</fix>
</trkpt>
<trkpt lat="40.0728168" lon="-105.2306208">
  <ele>1596.52</ele>
  <time>2026-08-27T18:30:40Z</time>
  <course>347.72</course>
  <speed>0.022360679774997897</speed>
  <fix>3d</fix>
</trkpt>
<trkpt lat="40.0728167" lon="-105.2306208">
  <ele>1596.43</ele>
  <time>2026-08-27T18:30:40Z</time>
  <course>310.3</course>
  <speed>0.0</speed>
  <fix>3d</fix>
</trkpt>
<trkpt lat="40.0728168" lon="-105.2306209">
  <ele>1596.52</ele>
  <time>2026-08-27T18:30:40Z</time>
  <course>347.73</course>
  <speed>0.022360679774997897</speed>
  <fix>3d</fix>
</trkpt>
<trkpt lat="40.0728167" lon="-105.2306208">
  <ele>1596.42</ele>
  <time>2026-08-27T18:30:40Z</time>
  <course>315.65</course>
  <speed>0.0</speed>
  <fix>3d</fix>
</trkpt>
<trkpt lat="40.0728168" lon="-105.2306209">
  <ele>1596.52</ele>
  <time>2026-08-27T18:30:40Z</time>
  <course>347.73</course>
  <speed>0.022360679774997897</speed>
  <fix>3d</fix>
</trkpt>
<trkpt lat="40.0728167" lon="-105.2306208">
  <ele>1596.42</ele>
  <time>2026-08-27T18:30:40Z</time>
  <course>330.09</course>
  <speed>0.0</speed>
  <fix>3d</fix>
</trkpt>
<trkpt lat="40.0728168" lon="-105.2306209">
  <ele>1596.51</ele>
  <time>2026-08-27T18:30:40Z</time>
  <course>347.74</course>
  <speed>0.022360679774997897</speed>
  <fix>3d</fix>
</trkpt>
<trkpt lat="40.0728167" lon="-105.2306208">
  <ele>1596.42</ele>
  <time>2026-08-27T18:30:40Z</time>
  <course>346.5</course>
  <speed>0.0</speed>
  <fix>3d</fix>
</trkpt>
<trkpt lat="40.0728168" lon="-105.2306209">
  <ele>1596.51</ele>
  <time>2026-08-27T18:30:40Z</time>
  <course>347.72</course>
  <speed>0.022360679774997897</speed>
  <fix>3d</fix>
</trkpt>
<trkpt lat="40.0728167" lon="-105.2306208">
  <ele>1596.42</ele>
  <time>2026-08-27T18:30:40Z</time>
  <course>6.88</course>
  <speed>0.0</speed>
  <fix>3d</fix>
</trkpt>
<trkpt lat="40.0728168" lon="-105.2306209">
  <ele>1596.5</ele>
  <time>2026-08-27T18:30:40Z</time>
  <course>347.7</course>
  <speed>0.022360679774997897</speed>
  <fix>3d</fix>
</trkpt>
<trkpt lat="40.0728167" lon="-105.2306208">
  <ele>1596.42</ele>
  <time>2026-08-27T18:30:40Z</time>
  <course>29.22</course>
  <speed>0.0</speed>
  <fix>3d</fix>
</trkpt>
<trkpt lat="40.0728168" lon="-105.2306209">
  <ele>1596.5</ele>
  <time>2026-08-27T18:30:40Z</time>
  <course>347.68</course>
  <speed>0.022360679774997897</speed>
  <fix>3d</fix>
</trkpt>
<trkpt lat="40.0728167" lon="-105.2306208">
  <ele>1596.42</ele>
  <time>2026-08-27T18:30:40Z</time>
  <course>45.38</course>
  <speed>0.0</speed>
  <fix>3d</fix>
</trkpt>
<trkpt lat="40.0728168" lon="-105.2306209">
  <ele>1596.51</ele>
  <time>2026-08-27T18:30:40Z</time>
  <course>347.67</course>
  <speed>0.01414213562373095</speed>
  <fix>3d</fix>
</trkpt>
<trkpt lat="40.0728167" lon="-105.2306208">
  <ele>1596.42</ele>
  <time>2026-08-27T18:30:40Z</time>
  <course>57.7</course>
  <speed>0.0</speed>
  <fix>3d</fix>
</trkpt>
<trkpt lat="40.0728168" lon="-105.2306209">
  <ele>1596.51</ele>
  <time>2026-08-27T18:30:40Z</time>
  <course>347.66</course>
  <speed>0.01414213562373095</speed>
  <fix>3d</fix>
</trkpt>
<trkpt lat="40.0728168" lon="-105.2306208">
  <ele>1596.42</ele>
  <time>2026-08-27T18:30:40Z</time>
  <course>67.08</course>
  <speed>0.0</speed>
  <fix>3d</fix>
</trkpt>
<trkpt lat="40.0728168" lon="-105.2306209">
  <ele>1596.51</ele>
  <time>2026-08-27T18:30:40Z</time>
  <course>347.65</course>
  <speed>0.01414213562373095</speed>
  <fix>3d</fix>
</trkpt>
<trkpt lat="40.0728168" lon="-105.2306208">
  <ele>1596.42</ele>
  <time>2026-08-27T18:30:40Z</time>
  <course>74.36</course>
  <speed>0.0</speed>
  <fix>3d</fix>
</trkpt>
<trkpt lat="40.0728168" lon="-105.2306209">
  <ele>1596.51</ele>
  <time>2026-08-27T18:30:40Z</time>
  <course>347.65</course>
  <speed>0.01414213562373095</speed>
  <fix>3d</fix>
</trkpt>
<trkpt lat="40.0728168" lon="-105.2306208">
  <ele>1596.42</ele>
  <time>2026-08-27T18:30:40Z</time>
  <course>79.1</course>
  <speed>0.0</speed>
  <fix>3d</fix>
</trkpt>
<trkpt lat="40.0728168" lon="-105.2306209">
  <ele>1596.51</ele>
  <time>2026-08-27T18:30:40Z</time>
  <course>347.64</course>
  <speed>0.01414213562373095</speed>
  <fix>3d</fix>
</trkpt>
<trkpt lat="40.0728168" lon="-105.2306208">
  <ele>1596.42</ele>
  <time>2026-08-27T18:30:40Z</time>
  <course>80.82</course>
  <speed>0.0</speed>
  <fix>3d</fix>
</trkpt>
<trkpt lat="40.0728168" lon="-105.2306209">
  <ele>1596.51</ele>
  <time>2026-08-27T18:30:40Z</time>
  <course>347.64</course>
  <speed>0.01414213562373095</speed>
  <fix>3d</fix>
</trkpt>
<trkpt lat="40.0728168" lon="-105.2306208">
  <ele>1596.42</ele>
  <time>2026-08-27T18:30:40Z</time>
  <course>81.2</course>
  <speed>0.0</speed>
  <fix>3d</fix>
</trkpt>
<trkpt lat="40.0728168" lon="-105.2306209">
  <ele>1596.51</ele>
  <time>2026-08-27T18:30:40Z</time>
  <course>347.64</course>
  <speed>0.01414213562373095</speed>
  <fix>3d</fix>
</trkpt>
<trkpt lat="40.0728168" lon="-105.2306208">
  <ele>1596.42</ele>
  <time>2026-08-27T18:30:40Z</time>
  <course>81.73</course>
  <speed>0.0</speed>
  <fix>3d</fix>
</trkpt>
<trkpt lat="40.0728168" lon="-105.2306209">
  <ele>1596.5</ele>
  <time>2026-08-27T18:30:40Z</time>
  <course>347.64</course>
  <speed>0.01414213562373095</speed>
  <fix>3d</fix>
</trkpt>
<trkpt lat="40.0728168" lon="-105.2306208">
  <ele>1596.42</ele>
  <time>2026-08-27T18:30:40Z</time>
  <course>82.26</course>
  <speed>0.0</speed>
  <fix>3d</fix>
</trkpt>
<trkpt lat="40.0728168" lon="-105.2306209">
  <ele>1596.5</ele>
  <time>2026-08-27T18:30:40Z</time>
  <course>347.64</course>
  <speed>0.01414213562373095</speed>
  <fix>3d</fix>
</trkpt>
<trkpt lat="40.0728168" lon="-105.2306207">
  <ele>1596.42</ele>
  <time>2026-08-27T18:30:40Z</time>
  <course>82.8</course>
  <speed>0.0</speed>
  <fix>3d</fix>
</trkpt>
<trkpt lat="40.0728168" lon="-105.2306209">
  <ele>1596.5</ele>
  <time>2026-08-27T18:30:40Z</time>
  <course>347.63</course>
  <speed>0.01414213562373095</speed>
  <fix>3d</fix>
</trkpt>
<trkpt lat="40.0728168" lon="-105.2306206">
  <ele>1596.42</ele>
  <time>2026-08-27T18:30:40Z</time>
  <course>84.13</course>
  <speed>0.0</speed>
  <fix>3d</fix>
</trkpt>
<trkpt lat="40.0728168" lon="-105.2306209">
  <ele>1596.5</ele>
  <time>2026-08-27T18:30:40Z</time>
  <course>347.63</course>
  <speed>0.01414213562373095</speed>
  <fix>3d</fix>
</trkpt>
<trkpt lat="40.0728168" lon="-105.2306206">
  <ele>1596.42</ele>
  <time>2026-08-27T18:30:40Z</time>
  <course>89.54</course>
  <speed>0.0</speed>
  <fix>3d</fix>
</trkpt>
<trkpt lat="40.0728168" lon="-105.2306209">
  <ele>1596.5</ele>
  <time>2026-08-27T18:30:40Z</time>
  <course>347.63</course>
  <speed>0.01</speed>
  <fix>3d</fix>
</trkpt>
<trkpt lat="40.0728168" lon="-105.2306206">
  <ele>1596.42</ele>
  <time>2026-08-27T18:30:40Z</time>
  <course>100.2</course>
  <speed>0.0</speed>
  <fix>3d</fix>
</trkpt>
<trkpt lat="40.0728168" lon="-105.2306209">
  <ele>1596.51</ele>
  <time>2026-08-27T18:30:40Z</time>
  <course>347.63</course>
  <speed>0.01</speed>
  <fix>3d</fix>
</trkpt>
<trkpt lat="40.0728168" lon="-105.2306206">
  <ele>1596.42</ele>
  <time>2026-08-27T18:30:40Z</time>
  <course>112.11</course>
  <speed>0.0</speed>
  <fix>3d</fix>
</trkpt>
<trkpt lat="40.0728168" lon="-105.2306209">
  <ele>1596.51</ele>
  <time>2026-08-27T18:30:40Z</time>
  <course>347.63</course>
  <speed>0.02</speed>
  <fix>3d</fix>
</trkpt>
<trkpt lat="40.0728168" lon="-105.2306206">
  <ele>1596.42</ele>
  <time>2026-08-27T18:30:40Z</time>
  <course>122.21</course>
  <speed>0.0</speed>
  <fix>3d</fix>
</trkpt>
<trkpt lat="40.0728168" lon="-105.2306209">
  <ele>1596.52</ele>
  <time>2026-08-27T18:30:40Z</time>
  <course>347.63</course>
  <speed>0.02</speed>
  <fix>3d</fix>
</trkpt>
<trkpt lat="40.0728168" lon="-105.2306206">
  <ele>1596.42</ele>
  <time>2026-08-27T18:30:40Z</time>
  <course>131.07</course>
  <speed>0.0</speed>
  <fix>3d</fix>
</trkpt>
<trkpt lat="40.0728168" lon="-105.2306209">
  <ele>1596.52</ele>
  <time>2026-08-27T18:30:40Z</time>
  <course>347.64</course>
  <speed>0.02</speed>
  <fix>3d</fix>
</trkpt>
<trkpt lat="40.0728168" lon="-105.2306206">
  <ele>1596.42</ele>
  <time>2026-08-27T18:30:40Z</time>
  <course>140.37</course>
  <speed>0.0</speed>
  <fix>3d</fix>
</trkpt>
<trkpt lat="40.0728168" lon="-105.2306209">
  <ele>1596.52</ele>
  <time>2026-08-27T18:30:40Z</time>
  <course>347.66</course>
  <speed>0.02</speed>
  <fix>3d</fix>
</trkpt>
<trkpt lat="40.0728168" lon="-105.2306206">
  <ele>1596.42</ele>
  <time>2026-08-27T18:30:40Z</time>
  <course>152.58</course>
  <speed>0.0</speed>
  <fix>3d</fix>
</trkpt>
<trkpt lat="40.0728168" lon="-105.2306208">
  <ele>1596.51</ele>
  <time>2026-08-27T18:30:40Z</time>
  <course>347.66</course>
  <speed>0.02</speed>
  <fix>3d</fix>
</trkpt>
<trkpt lat="40.0728168" lon="-105.2306206">
  <ele>1596.42</ele>
  <time>2026-08-27T18:30:40Z</time>
  <course>165.53</course>
  <speed>0.0</speed>
  <fix>3d</fix>
</trkpt>
<trkpt lat="40.0728168" lon="-105.2306208">
  <ele>1596.51</ele>
  <time>2026-08-27T18:30:40Z</time>
  <course>347.66</course>
  <speed>0.02</speed>
  <fix>3d</fix>
</trkpt>
<trkpt lat="40.0728168" lon="-105.2306206">
  <ele>1596.42</ele>
  <time>2026-08-27T18:30:40Z</time>
  <course>174.89</course>
  <speed>0.0</speed>
  <fix>3d</fix>
</trkpt>
<trkpt lat="40.0728168" lon="-105.2306208">
  <ele>1596.51</ele>
  <time>2026-08-27T18:30:40Z</time>
  <course>347.66</course>
  <speed>0.02</speed>
  <fix>3d</fix>
</trkpt>
<trkpt lat="40.0728168" lon="-105.2306206">
  <ele>1596.42</ele>
  <time>2026-08-27T18:30:40Z</time>
  <course>182.77</course>
  <speed>0.0</speed>
  <fix>3d</fix>
</trkpt>
<trkpt lat="40.0728168" lon="-105.2306208">
  <ele>1596.51</ele>
  <time>2026-08-27T18:30:40Z</time>
  <course>347.66</course>
  <speed>0.02</speed>
  <fix>3d</fix>
</trkpt>
<trkpt lat="40.0728168" lon="-105.2306206">
  <ele>1596.42</ele>
  <time>2026-08-27T18:30:40Z</time>
  <course>188.08</course>
  <speed>0.0</speed>
  <fix>3d</fix>
</trkpt>
<trkpt lat="40.0728168" lon="-105.2306208">
  <ele>1596.51</ele>
  <time>2026-08-27T18:30:40Z</time>
  <course>347.65</course>
  <speed>0.02</speed>
  <fix>3d</fix>
</trkpt>
<trkpt lat="40.0728168" lon="-105.2306206">
  <ele>1596.42</ele>
  <time>2026-08-27T18:30:40Z</time>
  <course>191.57</course>
  <speed>0.0</speed>
  <fix>3d</fix>
</trkpt>
<trkpt lat="40.0728168" lon="-105.2306208">
  <ele>1596.5</ele>
  <time>2026-08-27T18:30:40Z</time>
  <course>347.65</course>
  <speed>0.02</speed>
  <fix>3d</fix>
</trkpt>
<trkpt lat="40.0728168" lon="-105.2306206">
  <ele>1596.42</ele>
  <time>2026-08-27T18:30:40Z</time>
  <course>195.32</course>
  <speed>0.0</speed>
  <fix>3d</fix>
</trkpt>
<trkpt lat="40.0728168" lon="-105.2306208">
  <ele>1596.5</ele>
  <time>2026-08-27T18:30:40Z</time>
  <course>347.65</course>
  <speed>0.02</speed>
  <fix>3d</fix>
</trkpt>
<trkpt lat="40.0728168" lon="-105.2306206">
  <ele>1596.42</ele>
  <time>2026-08-27T18:30:40Z</time>
  <course>198.95</course>
  <speed>0.0</speed>
  <fix>3d</fix>
</trkpt>
<trkpt lat="40.0728168" lon="-105.2306208">
  <ele>1596.5</ele>
  <time>2026-08-27T18:30:40Z</time>
  <course>347.64</course>
  <speed>0.02</speed>
  <fix>3d</fix>
</trkpt>
<trkpt lat="40.0728168" lon="-105.2306206">
  <ele>1596.42</ele>
  <time>2026-08-27T18:30:40Z</time>
  <course>201.69</course>
  <speed>0.0</speed>
  <fix>3d</fix>
</trkpt>
<trkpt lat="40.0728168" lon="-105.2306208">
  <ele>1596.5</ele>
  <time>2026-08-27T18:30:40Z</time>
  <course>347.62</course>
  <speed>0.022360679774997897</speed>
  <fix>3d</fix>
</trkpt>
<trkpt lat="40.0728168" lon="-105.2306206">
  <ele>1596.42</ele>
  <time>2026-08-27T18:30:40Z</time>
  <course>205.74</course>
  <speed>0.0</speed>
  <fix>3d</fix>
</trkpt>
<trkpt lat="40.0728168" lon="-105.2306208">
  <ele>1596.51</ele>
  <time>2026-08-27T18:30:40Z</time>
  <course>347.61</course>
  <speed>0.022360679774997897</speed>
  <fix>3d</fix>
</trkpt>
<trkpt lat="40.0728167" lon="-105.2306206">
  <ele>1596.42</ele>
  <time>2026-08-27T18:30:40Z</time>
  <course>209.27</course>
  <speed>0.0</speed>
  <fix>3d</fix>
</trkpt>
<trkpt lat="40.0728168" lon="-105.2306208">
  <ele>1596.51</ele>
  <time>2026-08-27T18:30:40Z</time>
  <course>347.6</course>
  <speed>0.02</speed>
  <fix>3d</fix>
</trkpt>
<trkpt lat="40.0728167" lon="-105.2306206">
  <ele>1596.42</ele>
  <time>2026-08-27T18:30:40Z</time>
  <course>209.75</course>
  <speed>0.0</speed>
  <fix>3d</fix>
</trkpt>
<trkpt lat="40.0728168" lon="-105.2306208">
  <ele>1596.51</ele>
  <time>2026-08-27T18:30:40Z</time>
  <course>347.61</course>
  <speed>0.02</speed>
  <fix>3d</fix>
</trkpt>
<trkpt lat="40.0728167" lon="-105.2306206">
  <ele>1596.42</ele>
  <time>2026-08-27T18:30:40Z</time>
  <course>209.81</course>
  <speed>0.0</speed>
  <fix>3d</fix>
</trkpt>
<trkpt lat="40.0728168" lon="-105.2306208">
  <ele>1596.51</ele>
  <time>2026-08-27T18:30:40Z</time>
  <course>347.63</course>
  <speed>0.02</speed>
  <fix>3d</fix>
</trkpt>
<trkpt lat="40.0728167" lon="-105.2306206">
  <ele>1596.43</ele>
  <time>2026-08-27T18:30:40Z</time>
  <course>209.33</course>
  <speed>0.0</speed>
  <fix>3d</fix>
</trkpt>
<trkpt lat="40.0728168" lon="-105.2306208">
  <ele>1596.51</ele>
  <time>2026-08-27T18:30:40Z</time>
  <course>347.63</course>
  <speed>0.02</speed>
  <fix>3d</fix>
</trkpt>
<trkpt lat="40.0728167" lon="-105.2306206">
  <ele>1596.43</ele>
  <time>2026-08-27T18:30:40Z</time>
  <course>209.36</course>
  <speed>0.0</speed>
  <fix>3d</fix>
</trkpt>
<trkpt lat="40.0728168" lon="-105.2306208">
  <ele>1596.52</ele>
  <time>2026-08-27T18:30:40Z</time>
  <course>347.64</course>
  <speed>0.022360679774997897</speed>
  <fix>3d</fix>
</trkpt>
<trkpt lat="40.0728167" lon="-105.2306206">
  <ele>1596.43</ele>
  <time>2026-08-27T18:30:40Z</time>
  <course>212.95</course>
  <speed>0.0</speed>
  <fix>3d</fix>
</trkpt>
<trkpt lat="40.0728168" lon="-105.2306208">
  <ele>1596.52</ele>
  <time>2026-08-27T18:30:40Z</time>
  <course>347.64</course>
  <speed>0.022360679774997897</speed>
  <fix>3d</fix>
</trkpt>
<trkpt lat="40.0728167" lon="-105.2306206">
  <ele>1596.42</ele>
  <time>2026-08-27T18:30:40Z</time>
  <course>224.59</course>
  <speed>0.0</speed>
  <fix>3d</fix>
</trkpt>
<trkpt lat="40.0728168" lon="-105.2306208">
  <ele>1596.52</ele>
  <time>2026-08-27T18:30:40Z</time>
  <course>347.66</course>
  <speed>0.022360679774997897</speed>
  <fix>3d</fix>
</trkpt>
<trkpt lat="40.0728167" lon="-105.2306206">
  <ele>1596.42</ele>
  <time>2026-08-27T18:30:40Z</time>
  <course>250.26</course>
  <speed>0.0</speed>
  <fix>3d</fix>
</trkpt>
<trkpt lat="40.0728168" lon="-105.2306208">
  <ele>1596.52</ele>
  <time>2026-08-27T18:30:40Z</time>
  <course>347.67</course>
  <speed>0.022360679774997897</speed>
  <fix>3d</fix>
</trkpt>
<trkpt lat="40.0728167" lon="-105.2306206">
  <ele>1596.42</ele>
  <time>2026-08-27T18:30:40Z</time>
  <course>279.38</course>
  <speed>0.0</speed>
  <fix>3d</fix>
</trkpt>
<trkpt lat="40.0728168" lon="-105.2306208">
  <ele>1596.51</ele>
  <time>2026-08-27T18:30:40Z</time>
  <course>347.67</course>
  <speed>0.022360679774997897</speed>
  <fix>3d</fix>
</trkpt>
<trkpt lat="40.0728167" lon="-105.2306206">
  <ele>1596.42</ele>
  <time>2026-08-27T18:30:40Z</time>
  <course>297.47</course>
  <speed>0.0</speed>
  <fix>3d</fix>
</trkpt>
<trkpt lat="40.0728168" lon="-105.2306208">
  <ele>1596.51</ele>
  <time>2026-08-27T18:30:40Z</time>
  <course>347.67</course>
  <speed>0.022360679774997897</speed>
  <fix>3d</fix>
</trkpt>
<trkpt lat="40.0728167" lon="-105.2306206">
  <ele>1596.42</ele>
  <time>2026-08-27T18:30:40Z</time>
  <course>307.23</course>
  <speed>0.0</speed>
  <fix>3d</fix>
</trkpt>
<trkpt lat="40.0728168" lon="-105.2306208">
  <ele>1596.51</ele>
  <time>2026-08-27T18:30:40Z</time>
  <course>347.66</course>
  <speed>0.022360679774997897</speed>
  <fix>3d</fix>
</trkpt>
<trkpt lat="40.0728167" lon="-105.2306206">
  <ele>1596.42</ele>
  <time>2026-08-27T18:30:40Z</time>
  <course>312.37</course>
  <speed>0.0</speed>
  <fix>3d</fix>
</trkpt>
<trkpt lat="40.0728168" lon="-105.2306208">
  <ele>1596.51</ele>
  <time>2026-08-27T18:30:40Z</time>
  <course>347.67</course>
  <speed>0.022360679774997897</speed>
  <fix>3d</fix>
</trkpt>
<trkpt lat="40.0728167" lon="-105.2306206">
  <ele>1596.42</ele>
  <time>2026-08-27T18:30:40Z</time>
  <course>313.8</course>
  <speed>0.0</speed>
  <fix>3d</fix>
</trkpt>
<trkpt lat="40.0728168" lon="-105.2306208">
  <ele>1596.51</ele>
  <time>2026-08-27T18:30:40Z</time>
  <course>347.66</course>
  <speed>0.022360679774997897</speed>
  <fix>3d</fix>
</trkpt>
<trkpt lat="40.0728167" lon="-105.2306206">
  <ele>1596.41</ele>
  <time>2026-08-27T18:30:40Z</time>
  <course>316.64</course>
  <speed>0.0</speed>
  <fix>3d</fix>
</trkpt>
<trkpt lat="40.0728168" lon="-105.2306208">
  <ele>1596.51</ele>
  <time>2026-08-27T18:30:41Z</time>
  <course>347.65</course>
  <speed>0.022360679774997897</speed>
  <fix>3d</fix>
</trkpt>
<trkpt lat="40.0728167" lon="-105.2306206">
  <ele>1596.41</ele>
  <time>2026-08-27T18:30:41Z</time>
  <course>319.17</course>
  <speed>0.0</speed>
  <fix>3d</fix>
</trkpt>
<trkpt lat="40.0728168" lon="-105.2306208">
  <ele>1596.51</ele>
  <time>2026-08-27T18:30:41Z</time>
  <course>347.65</course>
  <speed>0.022360679774997897</speed>
  <fix>3d</fix>
</trkpt>
<trkpt lat="40.0728167" lon="-105.2306206">
  <ele>1596.41</ele>
  <time>2026-08-27T18:30:41Z</time>
  <course>317.89</course>
  <speed>0.0</speed>
  <fix>3d</fix>
</trkpt>
<trkpt lat="40.0728168" lon="-105.2306208">
  <ele>1596.51</ele>
  <time>2026-08-27T18:30:41Z</time>
  <course>347.65</course>
  <speed>0.022360679774997897</speed>
  <fix>3d</fix>
</trkpt>
<trkpt lat="40.0728167" lon="-105.2306206">
  <ele>1596.41</ele>
  <time>2026-08-27T18:30:41Z</time>
  <course>315.56</course>
  <speed>0.0</speed>
  <fix>3d</fix>
</trkpt>
<trkpt lat="40.0728168" lon="-105.2306208">
  <ele>1596.51</ele>
  <time>2026-08-27T18:30:41Z</time>
  <course>347.64</course>
  <speed>0.022360679774997897</speed>
  <fix>3d</fix>
</trkpt>
<trkpt lat="40.0728167" lon="-105.2306206">
  <ele>1596.41</ele>
  <time>2026-08-27T18:30:41Z</time>
  <course>314.46</course>
  <speed>0.0</speed>
  <fix>3d</fix>
</trkpt>
<trkpt lat="40.0728168" lon="-105.2306208">
  <ele>1596.51</ele>
  <time>2026-08-27T18:30:41Z</time>
  <course>347.62</course>
  <speed>0.022360679774997897</speed>
  <fix>3d</fix>
</trkpt>
<trkpt lat="40.0728167" lon="-105.2306206">
  <ele>1596.41</ele>
  <time>2026-08-27T18:30:41Z</time>
  <course>313.87</course>
  <speed>0.0</speed>
  <fix>3d</fix>
</trkpt>
<trkpt lat="40.0728168" lon="-105.2306208">
  <ele>1596.5</ele>
  <time>2026-08-27T18:30:41Z</time>
  <course>347.61</course>
  <speed>0.022360679774997897</speed>
  <fix>3d</fix>
</trkpt>
<trkpt lat="40.0728167" lon="-105.2306206">
  <ele>1596.41</ele>
  <time>2026-08-27T18:30:41Z</time>
  <course>312.61</course>
  <speed>0.0</speed>
  <fix>3d</fix>
</trkpt>
<trkpt lat="40.0728168" lon="-105.2306208">
  <ele>1596.5</ele>
  <time>2026-08-27T18:30:41Z</time>
  <course>347.6</course>
  <speed>0.022360679774997897</speed>
  <fix>3d</fix>
</trkpt>
<trkpt lat="40.0728167" lon="-105.2306206">
  <ele>1596.41</ele>
  <time>2026-08-27T18:30:41Z</time>
  <course>311.01</course>
  <speed>0.0</speed>
  <fix>3d</fix>
</trkpt>
<trkpt lat="40.0728168" lon="-105.2306208">
  <ele>1596.5</ele>
  <time>2026-08-27T18:30:41Z</time>
  <course>347.59</course>
  <speed>0.022360679774997897</speed>
  <fix>3d</fix>
</trkpt>
<trkpt lat="40.0728167" lon="-105.2306206">
  <ele>1596.41</ele>
  <time>2026-08-27T18:30:41Z</time>
  <course>309.47</course>
  <speed>0.0</speed>
  <fix>3d</fix>
</trkpt>
<trkpt lat="40.0728168" lon="-105.2306208">
  <ele>1596.49</ele>
  <time>2026-08-27T18:30:41Z</time>
  <course>347.58</course>
  <speed>0.022360679774997897</speed>
  <fix>3d</fix>
</trkpt>
<trkpt lat="40.0728167" lon="-105.2306206">
  <ele>1596.41</ele>
  <time>2026-08-27T18:30:41Z</time>
  <course>308.31</course>
  <speed>0.0</speed>
  <fix>3d</fix>
</trkpt>
<trkpt lat="40.0728168" lon="-105.2306208">
  <ele>1596.49</ele>
  <time>2026-08-27T18:30:41Z</time>
  <course>347.55</course>
  <speed>0.022360679774997897</speed>
  <fix>3d</fix>
</trkpt>
<trkpt lat="40.0728167" lon="-105.2306207">
  <ele>1596.41</ele>
  <time>2026-08-27T18:30:41Z</time>
  <course>308.17</course>
  <speed>0.0</speed>
  <fix>3d</fix>
</trkpt>
<trkpt lat="40.0728168" lon="-105.2306208">
  <ele>1596.49</ele>
  <time>2026-08-27T18:30:41Z</time>
  <course>347.52</course>
  <speed>0.022360679774997897</speed>
  <fix>3d</fix>
</trkpt>
<trkpt lat="40.0728167" lon="-105.2306208">
  <ele>1596.41</ele>
  <time>2026-08-27T18:30:41Z</time>
  <course>308.4</course>
  <speed>0.0</speed>
  <fix>3d</fix>
</trkpt>
<trkpt lat="40.0728168" lon="-105.2306209">
  <ele>1596.49</ele>
  <time>2026-08-27T18:30:41Z</time>
  <course>347.49</course>
  <speed>0.022360679774997897</speed>
  <fix>3d</fix>
</trkpt>
<trkpt lat="40.0728167" lon="-105.2306208">
  <ele>1596.42</ele>
  <time>2026-08-27T18:30:41Z</time>
  <course>307.58</course>
  <speed>0.0</speed>
  <fix>3d</fix>
</trkpt>
<trkpt lat="40.0728168" lon="-105.2306209">
  <ele>1596.49</ele>
  <time>2026-08-27T18:30:41Z</time>
  <course>347.48</course>
  <speed>0.022360679774997897</speed>
  <fix>3d</fix>
</trkpt>
<trkpt lat="40.0728167" lon="-105.2306208">
  <ele>1596.42</ele>
  <time>2026-08-27T18:30:41Z</time>
  <course>307.89</course>
  <speed>0.0</speed>
  <fix>3d</fix>
</trkpt>
<trkpt lat="40.0728168" lon="-105.2306209">
  <ele>1596.5</ele>
  <time>2026-08-27T18:30:41Z</time>
  <course>347.48</course>
  <speed>0.022360679774997897</speed>
  <fix>3d</fix>
</trkpt>
<trkpt lat="40.0728167" lon="-105.2306208">
  <ele>1596.43</ele>
  <time>2026-08-27T18:30:41Z</time>
  <course>314.14</course>
  <speed>0.0</speed>
  <fix>3d</fix>
</trkpt>
<trkpt lat="40.0728168" lon="-105.2306209">
  <ele>1596.5</ele>
  <time>2026-08-27T18:30:41Z</time>
  <course>347.48</course>
  <speed>0.022360679774997897</speed>
  <fix>3d</fix>
</trkpt>
<trkpt lat="40.0728167" lon="-105.2306208">
  <ele>1596.43</ele>
  <time>2026-08-27T18:30:41Z</time>
  <course>330.66</course>
  <speed>0.0</speed>
  <fix>3d</fix>
</trkpt>
<trkpt lat="40.0728168" lon="-105.2306209">
  <ele>1596.51</ele>
  <time>2026-08-27T18:30:41Z</time>
  <course>347.5</course>
  <speed>0.022360679774997897</speed>
  <fix>3d</fix>
</trkpt>
<trkpt lat="40.0728167" lon="-105.2306208">
  <ele>1596.44</ele>
  <time>2026-08-27T18:30:41Z</time>
  <course>353.21</course>
  <speed>0.0</speed>
  <fix>3d</fix>
</trkpt>
<trkpt lat="40.0728168" lon="-105.2306209">
  <ele>1596.52</ele>
  <time>2026-08-27T18:30:41Z</time>
  <course>347.52</course>
  <speed>0.022360679774997897</speed>
  <fix>3d</fix>
</trkpt>
<trkpt lat="40.0728167" lon="-105.2306208">
  <ele>1596.44</ele>
  <time>2026-08-27T18:30:41Z</time>
  <course>13.82</course>
  <speed>0.0</speed>
  <fix>3d</fix>
</trkpt>
<trkpt lat="40.0728168" lon="-105.2306209">
  <ele>1596.52</ele>
  <time>2026-08-27T18:30:41Z</time>
  <course>347.55</course>
  <speed>0.022360679774997897</speed>
  <fix>3d</fix>
</trkpt>
<trkpt lat="40.0728167" lon="-105.2306208">
  <ele>1596.44</ele>
  <time>2026-08-27T18:30:41Z</time>
  <course>29.08</course>
  <speed>0.0</speed>
  <fix>3d</fix>
</trkpt>
<trkpt lat="40.0728168" lon="-105.2306209">
  <ele>1596.52</ele>
  <time>2026-08-27T18:30:41Z</time>
  <course>347.58</course>
  <speed>0.01414213562373095</speed>
  <fix>3d</fix>
</trkpt>
<trkpt lat="40.0728167" lon="-105.2306208">
  <ele>1596.44</ele>
  <time>2026-08-27T18:30:41Z</time>
  <course>40.41</course>
  <speed>0.0</speed>
  <fix>3d</fix>
</trkpt>
<trkpt lat="40.0728168" lon="-105.2306209">
  <ele>1596.52</ele>
  <time>2026-08-27T18:30:41Z</time>
  <course>347.61</course>
  <speed>0.01414213562373095</speed>
  <fix>3d</fix>
</trkpt>
<trkpt lat="40.0728167" lon="-105.2306208">
  <ele>1596.44</ele>
  <time>2026-08-27T18:30:41Z</time>
  <course>49.98</course>
  <speed>0.0</speed>
  <fix>3d</fix>
</trkpt>
<trkpt lat="40.0728168" lon="-105.2306209">
  <ele>1596.52</ele>
  <time>2026-08-27T18:30:41Z</time>
  <course>347.61</course>
  <speed>0.01414213562373095</speed>
  <fix>3d</fix>
</trkpt>
<trkpt lat="40.0728167" lon="-105.2306208">
  <ele>1596.44</ele>
  <time>2026-08-27T18:30:41Z</time>
  <course>55.27</course>
  <speed>0.0</speed>
  <fix>3d</fix>
</trkpt>
<trkpt lat="40.0728168" lon="-105.2306209">
  <ele>1596.52</ele>
  <time>2026-08-27T18:30:41Z</time>
  <course>347.61</course>
  <speed>0.01414213562373095</speed>
  <fix>3d</fix>
</trkpt>
<trkpt lat="40.0728167" lon="-105.2306208">
  <ele>1596.44</ele>
  <time>2026-08-27T18:30:41Z</time>
  <course>59.34</course>
  <speed>0.0</speed>
  <fix>3d</fix>
</trkpt>
<trkpt lat="40.0728168" lon="-105.2306209">
  <ele>1596.52</ele>
  <time>2026-08-27T18:30:41Z</time>
  <course>347.61</course>
  <speed>0.01414213562373095</speed>
  <fix>3d</fix>
</trkpt>
<trkpt lat="40.0728167" lon="-105.2306208">
  <ele>1596.44</ele>
  <time>2026-08-27T18:30:41Z</time>
  <course>63.3</course>
  <speed>0.0</speed>
  <fix>3d</fix>
</trkpt>
<trkpt lat="40.0728168" lon="-105.2306209">
  <ele>1596.52</ele>
  <time>2026-08-27T18:30:41Z</time>
  <course>347.62</course>
  <speed>0.01414213562373095</speed>
  <fix>3d</fix>
</trkpt>
<trkpt lat="40.0728168" lon="-105.2306208">
  <ele>1596.43</ele>
  <time>2026-08-27T18:30:41Z</time>
  <course>64.64</course>
  <speed>0.0</speed>
  <fix>3d</fix>
</trkpt>
<trkpt lat="40.0728168" lon="-105.2306209">
  <ele>1596.52</ele>
  <time>2026-08-27T18:30:41Z</time>
  <course>347.63</course>
  <speed>0.01414213562373095</speed>
  <fix>3d</fix>
</trkpt>
<trkpt lat="40.0728168" lon="-105.2306208">
  <ele>1596.43</ele>
  <time>2026-08-27T18:30:41Z</time>
  <course>64.78</course>
  <speed>0.0</speed>
  <fix>3d</fix>
</trkpt>
<trkpt lat="40.0728168" lon="-105.2306209">
  <ele>1596.52</ele>
  <time>2026-08-27T18:30:41Z</time>
  <course>347.63</course>
  <speed>0.01414213562373095</speed>
  <fix>3d</fix>
</trkpt>
<trkpt lat="40.0728168" lon="-105.2306208">
  <ele>1596.43</ele>
  <time>2026-08-27T18:30:41Z</time>
  <course>65.98</course>
  <speed>0.0</speed>
  <fix>3d</fix>
</trkpt>
<trkpt lat="40.0728168" lon="-105.2306209">
  <ele>1596.52</ele>
  <time>2026-08-27T18:30:41Z</time>
  <course>347.62</course>
  <speed>0.01414213562373095</speed>
  <fix>3d</fix>
</trkpt>
<trkpt lat="40.0728168" lon="-105.2306207">
  <ele>1596.43</ele>
  <time>2026-08-27T18:30:41Z</time>
  <course>69.05</course>
  <speed>0.0</speed>
  <fix>3d</fix>
</trkpt>
<trkpt lat="40.0728168" lon="-105.2306209">
  <ele>1596.51</ele>
  <time>2026-08-27T18:30:41Z</time>
  <course>347.62</course>
  <speed>0.01414213562373095</speed>
  <fix>3d</fix>
</trkpt>
<trkpt lat="40.0728168" lon="-105.2306206">
  <ele>1596.42</ele>
  <time>2026-08-27T18:30:41Z</time>
  <course>74.29</course>
  <speed>0.0</speed>
  <fix>3d</fix>
</trkpt>
<trkpt lat="40.0728168" lon="-105.2306209">
  <ele>1596.51</ele>
  <time>2026-08-27T18:30:41Z</time>
  <course>347.61</course>
  <speed>0.01414213562373095</speed>
  <fix>3d</fix>
</trkpt>
<trkpt lat="40.0728168" lon="-105.2306206">
  <ele>1596.42</ele>
  <time>2026-08-27T18:30:41Z</time>
  <course>80.68</course>
  <speed>0.0</speed>
  <fix>3d</fix>
</trkpt>
<trkpt lat="40.0728168" lon="-105.2306209">
  <ele>1596.51</ele>
  <time>2026-08-27T18:30:41Z</time>
  <course>347.61</course>
  <speed>0.01414213562373095</speed>
  <fix>3d</fix>
</trkpt>
<trkpt lat="40.0728168" lon="-105.2306206">
  <ele>1596.42</ele>
  <time>2026-08-27T18:30:41Z</time>
  <course>87.61</course>
  <speed>0.0</speed>
  <fix>3d</fix>
</trkpt>
<trkpt lat="40.0728168" lon="-105.2306209">
  <ele>1596.51</ele>
  <time>2026-08-27T18:30:41Z</time>
  <course>347.6</course>
  <speed>0.01414213562373095</speed>
  <fix>3d</fix>
</trkpt>
<trkpt lat="40.0728168" lon="-105.2306206">
  <ele>1596.42</ele>
  <time>2026-08-27T18:30:41Z</time>
  <course>95.4</course>
  <speed>0.0</speed>
  <fix>3d</fix>
</trkpt>
<trkpt lat="40.0728168" lon="-105.2306209">
  <ele>1596.5</ele>
  <time>2026-08-27T18:30:41Z</time>
  <course>347.6</course>
  <speed>0.01</speed>
  <fix>3d</fix>
</trkpt>
<trkpt lat="40.0728168" lon="-105.2306206">
  <ele>1596.42</ele>
  <time>2026-08-27T18:30:41Z</time>
  <course>103.82</course>
  <speed>0.0</speed>
  <fix>3d</fix>
</trkpt>
<trkpt lat="40.0728168" lon="-105.2306209">
  <ele>1596.5</ele>
  <time>2026-08-27T18:30:41Z</time>
  <course>347.59</course>
  <speed>0.01</speed>
  <fix>3d</fix>
</trkpt>
<trkpt lat="40.0728168" lon="-105.2306206">
  <ele>1596.42</ele>
  <time>2026-08-27T18:30:41Z</time>
  <course>112.21</course>
  <speed>0.0</speed>
  <fix>3d</fix>
</trkpt>
<trkpt lat="40.0728168" lon="-105.2306209">
  <ele>1596.5</ele>
  <time>2026-08-27T18:30:41Z</time>
  <course>347.58</course>
  <speed>0.02</speed>
  <fix>3d</fix>
</trkpt>
<trkpt lat="40.0728168" lon="-105.2306206">
  <ele>1596.42</ele>
  <time>2026-08-27T18:30:41Z</time>
  <course>123.13</course>
  <speed>0.0</speed>
  <fix>3d</fix>
</trkpt>
<trkpt lat="40.0728168" lon="-105.2306209">
  <ele>1596.5</ele>
  <time>2026-08-27T18:30:41Z</time>
  <course>347.56</course>
  <speed>0.02</speed>
  <fix>3d</fix>
</trkpt>
<trkpt lat="40.0728168" lon="-105.2306206">
  <ele>1596.42</ele>
  <time>2026-08-27T18:30:41Z</time>
  <course>138.64</course>
  <speed>0.0</speed>
  <fix>3d</fix>
</trkpt>
<trkpt lat="40.0728168" lon="-105.2306209">
  <ele>1596.51</ele>
  <time>2026-08-27T18:30:41Z</time>
  <course>347.54</course>
  <speed>0.02</speed>
  <fix>3d</fix>
</trkpt>
<trkpt lat="40.0728168" lon="-105.2306206">
  <ele>1596.42</ele>
  <time>2026-08-27T18:30:41Z</time>
  <course>155.2</course>
  <speed>0.0</speed>
  <fix>3d</fix>
</trkpt>
<trkpt lat="40.0728168" lon="-105.2306209">
  <ele>1596.51</ele>
  <time>2026-08-27T18:30:41Z</time>
  <course>347.53</course>
  <speed>0.02</speed>
  <fix>3d</fix>
</trkpt>
<trkpt lat="40.0728168" lon="-105.2306206">
  <ele>1596.42</ele>
  <time>2026-08-27T18:30:41Z</time>
  <course>177.53</course>
  <speed>0.0</speed>
  <fix>3d</fix>
</trkpt>
<trkpt lat="40.0728168" lon="-105.2306208">
  <ele>1596.51</ele>
  <time>2026-08-27T18:30:41Z</time>
  <course>347.52</course>
  <speed>0.02</speed>
  <fix>3d</fix>
</trkpt>
<trkpt lat="40.0728168" lon="-105.2306206">
  <ele>1596.42</ele>
  <time>2026-08-27T18:30:41Z</time>
  <course>199.47</course>
  <speed>0.0</speed>
  <fix>3d</fix>
</trkpt>
<trkpt lat="40.0728168" lon="-105.2306208">
  <ele>1596.52</ele>
  <time>2026-08-27T18:30:41Z</time>
  <course>347.53</course>
  <speed>0.02</speed>
  <fix>3d</fix>
</trkpt>
<trkpt lat="40.0728168" lon="-105.2306206">
  <ele>1596.43</ele>
  <time>2026-08-27T18:30:41Z</time>
  <course>212.74</course>
  <speed>0.0</speed>
  <fix>3d</fix>
</trkpt>
<trkpt lat="40.0728168" lon="-105.2306208">
  <ele>1596.52</ele>
  <time>2026-08-27T18:30:41Z</time>
  <course>347.55</course>
  <speed>0.02</speed>
  <fix>3d</fix>
</trkpt>
<trkpt lat="40.0728168" lon="-105.2306206">
  <ele>1596.43</ele>
  <time>2026-08-27T18:30:41Z</time>
  <course>218.48</course>
  <speed>0.0</speed>
  <fix>3d</fix>
</trkpt>
<trkpt lat="40.0728168" lon="-105.2306208">
  <ele>1596.51</ele>
  <time>2026-08-27T18:30:41Z</time>
  <course>347.57</course>
  <speed>0.02</speed>
  <fix>3d</fix>
</trkpt>
<trkpt lat="40.0728168" lon="-105.2306206">
  <ele>1596.43</ele>
  <time>2026-08-27T18:30:41Z</time>
  <course>215.3</course>
  <speed>0.0</speed>
  <fix>3d</fix>
</trkpt>
<trkpt lat="40.0728168" lon="-105.2306208">
  <ele>1596.51</ele>
  <time>2026-08-27T18:30:41Z</time>
  <course>347.57</course>
  <speed>0.02</speed>
  <fix>3d</fix>
</trkpt>
<trkpt lat="40.0728168" lon="-105.2306206">
  <ele>1596.42</ele>
  <time>2026-08-27T18:30:41Z</time>
  <course>209.57</course>
  <speed>0.0</speed>
  <fix>3d</fix>
</trkpt>
<trkpt lat="40.0728168" lon="-105.2306208">
  <ele>1596.51</ele>
  <time>2026-08-27T18:30:41Z</time>
  <course>347.57</course>
  <speed>0.02</speed>
  <fix>3d</fix>
</trkpt>
<trkpt lat="40.0728168" lon="-105.2306206">
  <ele>1596.42</ele>
  <time>2026-08-27T18:30:41Z</time>
  <course>206.71</course>
  <speed>0.0</speed>
  <fix>3d</fix>
</trkpt>
<trkpt lat="40.0728168" lon="-105.2306208">
  <ele>1596.5</ele>
  <time>2026-08-27T18:30:41Z</time>
  <course>347.55</course>
  <speed>0.022360679774997897</speed>
  <fix>3d</fix>
</trkpt>
<trkpt lat="40.0728168" lon="-105.2306206">
  <ele>1596.42</ele>
  <time>2026-08-27T18:30:41Z</time>
  <course>204.56</course>
  <speed>0.0</speed>
  <fix>3d</fix>
</trkpt>
<trkpt lat="40.0728168" lon="-105.2306208">
  <ele>1596.49</ele>
  <time>2026-08-27T18:30:41Z</time>
  <course>347.54</course>
  <speed>0.022360679774997897</speed>
  <fix>3d</fix>
</trkpt>
<trkpt lat="40.0728168" lon="-105.2306206">
  <ele>1596.42</ele>
  <time>2026-08-27T18:30:41Z</time>
  <course>202.84</course>
  <speed>0.0</speed>
  <fix>3d</fix>
</trkpt>
<trkpt lat="40.0728168" lon="-105.2306208">
  <ele>1596.49</ele>
  <time>2026-08-27T18:30:41Z</time>
  <course>347.51</course>
  <speed>0.02</speed>
  <fix>3d</fix>
</trkpt>
<trkpt lat="40.0728168" lon="-105.2306206">
  <ele>1596.42</ele>
  <time>2026-08-27T18:30:41Z</time>
  <course>201.74</course>
  <speed>0.0</speed>
  <fix>3d</fix>
</trkpt>
<trkpt lat="40.0728168" lon="-105.2306208">
  <ele>1596.49</ele>
  <time>2026-08-27T18:30:41Z</time>
  <course>347.47</course>
  <speed>0.02</speed>
  <fix>3d</fix>
</trkpt>
<trkpt lat="40.0728168" lon="-105.2306206">
  <ele>1596.42</ele>
  <time>2026-08-27T18:30:41Z</time>
  <course>202.94</course>
  <speed>0.0</speed>
  <fix>3d</fix>
</trkpt>
<trkpt lat="40.0728168" lon="-105.2306208">
  <ele>1596.5</ele>
  <time>2026-08-27T18:30:41Z</time>
  <course>347.45</course>
  <speed>0.02</speed>
  <fix>3d</fix>
</trkpt>
<trkpt lat="40.0728168" lon="-105.2306206">
  <ele>1596.43</ele>
  <time>2026-08-27T18:30:41Z</time>
  <course>206.47</course>
  <speed>0.0</speed>
  <fix>3d</fix>
</trkpt>
<trkpt lat="40.0728168" lon="-105.2306208">
  <ele>1596.5</ele>
  <time>2026-08-27T18:30:41Z</time>
  <course>347.46</course>
  <speed>0.02</speed>
  <fix>3d</fix>
</trkpt>
<trkpt lat="40.0728168" lon="-105.2306206">
  <ele>1596.43</ele>
  <time>2026-08-27T18:30:41Z</time>
  <course>209.17</course>
  <speed>0.0</speed>
  <fix>3d</fix>
</trkpt>
<trkpt lat="40.0728168" lon="-105.2306208">
  <ele>1596.51</ele>
  <time>2026-08-27T18:30:41Z</time>
  <course>347.47</course>
  <speed>0.02</speed>
  <fix>3d</fix>
</trkpt>
<trkpt lat="40.0728167" lon="-105.2306206">
  <ele>1596.44</ele>
  <time>2026-08-27T18:30:41Z</time>
  <course>209.71</course>
  <speed>0.0</speed>
  <fix>3d</fix>
</trkpt>
<trkpt lat="40.0728168" lon="-105.2306208">
  <ele>1596.51</ele>
  <time>2026-08-27T18:30:41Z</time>
  <course>347.48</course>
  <speed>0.02</speed>
  <fix>3d</fix>
</trkpt>
<trkpt lat="40.0728167" lon="-105.2306206">
  <ele>1596.44</ele>
  <time>2026-08-27T18:30:41Z</time>
  <course>209.13</course>
  <speed>0.0</speed>
  <fix>3d</fix>
</trkpt>
<trkpt lat="40.0728168" lon="-105.2306208">
  <ele>1596.51</ele>
  <time>2026-08-27T18:30:41Z</time>
  <course>347.48</course>
  <speed>0.02</speed>
  <fix>3d</fix>
</trkpt>
<trkpt lat="40.0728167" lon="-105.2306206">
  <ele>1596.44</ele>
  <time>2026-08-27T18:30:41Z</time>
  <course>208.17</course>
  <speed>0.0</speed>
  <fix>3d</fix>
</trkpt>
<trkpt lat="40.0728168" lon="-105.2306208">
  <ele>1596.52</ele>
  <time>2026-08-27T18:30:41Z</time>
  <course>347.5</course>
  <speed>0.02</speed>
  <fix>3d</fix>
</trkpt>
<trkpt lat="40.0728167" lon="-105.2306206">
  <ele>1596.44</ele>
  <time>2026-08-27T18:30:41Z</time>
  <course>206.95</course>
  <speed>0.0</speed>
  <fix>3d</fix>
</trkpt>
<trkpt lat="40.0728168" lon="-105.2306208">
  <ele>1596.52</ele>
  <time>2026-08-27T18:30:41Z</time>
  <course>347.52</course>
  <speed>0.02</speed>
  <fix>3d</fix>
</trkpt>
<trkpt lat="40.0728167" lon="-105.2306206">
  <ele>1596.44</ele>
  <time>2026-08-27T18:30:41Z</time>
  <course>206.29</course>
  <speed>0.0</speed>
  <fix>3d</fix>
</trkpt>
<trkpt lat="40.0728168" lon="-105.2306208">
  <ele>1596.52</ele>
  <time>2026-08-27T18:30:41Z</time>
  <course>347.53</course>
  <speed>0.022360679774997897</speed>
  <fix>3d</fix>
</trkpt>
<trkpt lat="40.0728167" lon="-105.2306206">
  <ele>1596.44</ele>
  <time>2026-08-27T18:30:41Z</time>
  <course>208.79</course>
  <speed>0.0</speed>
  <fix>3d</fix>
</trkpt>
<trkpt lat="40.0728168" lon="-105.2306208">
  <ele>1596.52</ele>
  <time>2026-08-27T18:30:41Z</time>
  <course>347.54</course>
  <speed>0.022360679774997897</speed>
  <fix>3d</fix>
</trkpt>
<trkpt lat="40.0728167" lon="-105.2306206">
  <ele>1596.44</ele>
  <time>2026-08-27T18:30:41Z</time>
  <course>222.71</course>
  <speed>0.0</speed>
  <fix>3d</fix>
</trkpt>
<trkpt lat="40.0728168" lon="-105.2306208">
  <ele>1596.52</ele>
  <time>2026-08-27T18:30:41Z</time>
  <course>347.53</course>
  <speed>0.022360679774997897</speed>
  <fix>3d</fix>
</trkpt>
<trkpt lat="40.0728167" lon="-105.2306206">
  <ele>1596.44</ele>
  <time>2026-08-27T18:30:41Z</time>
  <course>252.77</course>
  <speed>0.0</speed>
  <fix>3d</fix>
</trkpt>
<trkpt lat="40.0728168" lon="-105.2306208">
  <ele>1596.52</ele>
  <time>2026-08-27T18:30:41Z</time>
  <course>347.53</course>
  <speed>0.022360679774997897</speed>
  <fix>3d</fix>
</trkpt>
<trkpt lat="40.0728167" lon="-105.2306206">
  <ele>1596.44</ele>
  <time>2026-08-27T18:30:41Z</time>
  <course>287.62</course>
  <speed>0.0</speed>
  <fix>3d</fix>
</trkpt>
<trkpt lat="40.0728168" lon="-105.2306208">
  <ele>1596.52</ele>
  <time>2026-08-27T18:30:41Z</time>
  <course>347.53</course>
  <speed>0.022360679774997897</speed>
  <fix>3d</fix>
</trkpt>
<trkpt lat="40.0728167" lon="-105.2306206">
  <ele>1596.44</ele>
  <time>2026-08-27T18:30:41Z</time>
  <course>305.4</course>
  <speed>0.0</speed>
  <fix>3d</fix>
</trkpt>
<trkpt lat="40.0728168" lon="-105.2306208">
  <ele>1596.52</ele>
  <time>2026-08-27T18:30:41Z</time>
  <course>347.53</course>
  <speed>0.022360679774997897</speed>
  <fix>3d</fix>
</trkpt>
<trkpt lat="40.0728167" lon="-105.2306206">
  <ele>1596.44</ele>
  <time>2026-08-27T18:30:41Z</time>
  <course>313.3</course>
  <speed>0.0</speed>
  <fix>3d</fix>
</trkpt>
<trkpt lat="40.0728168" lon="-105.2306208">
  <ele>1596.52</ele>
  <time>2026-08-27T18:30:41Z</time>
  <course>347.54</course>
  <speed>0.022360679774997897</speed>
  <fix>3d</fix>
</trkpt>
<trkpt lat="40.0728167" lon="-105.2306206">
  <ele>1596.44</ele>
  <time>2026-08-27T18:30:41Z</time>
  <course>318.27</course>
  <speed>0.0</speed>
  <fix>3d</fix>
</trkpt>
<trkpt lat="40.0728168" lon="-105.2306208">
  <ele>1596.52</ele>
  <time>2026-08-27T18:30:41Z</time>
  <course>347.55</course>
  <speed>0.022360679774997897</speed>
  <fix>3d</fix>
</trkpt>
<trkpt lat="40.0728167" lon="-105.2306206">
  <ele>1596.44</ele>
  <time>2026-08-27T18:30:41Z</time>
  <course>319.39</course>
  <speed>0.0</speed>
  <fix>3d</fix>
</trkpt>
<trkpt lat="40.0728168" lon="-105.2306208">
  <ele>1596.52</ele>
  <time>2026-08-27T18:30:41Z</time>
  <course>347.57</course>
  <speed>0.022360679774997897</speed>
  <fix>3d</fix>
</trkpt>
<trkpt lat="40.0728167" lon="-105.2306206">
  <ele>1596.43</ele>
  <time>2026-08-27T18:30:41Z</time>
  <course>318.49</course>
  <speed>0.0</speed>
  <fix>3d</fix>
</trkpt>
<trkpt lat="40.0728168" lon="-105.2306208">
  <ele>1596.53</ele>
  <time>2026-08-27T18:30:41Z</time>
  <course>347.58</course>
  <speed>0.022360679774997897</speed>
  <fix>3d</fix>
</trkpt>
<trkpt lat="40.0728167" lon="-105.2306206">
  <ele>1596.43</ele>
  <time>2026-08-27T18:30:41Z</time>
  <course>317.94</course>
  <speed>0.0</speed>
  <fix>3d</fix>
</trkpt>
<trkpt lat="40.0728168" lon="-105.2306208">
  <ele>1596.53</ele>
  <time>2026-08-27T18:30:41Z</time>
  <course>347.59</course>
  <speed>0.022360679774997897</speed>
  <fix>3d</fix>
</trkpt>
<trkpt lat="40.0728167" lon="-105.2306206">
  <ele>1596.43</ele>
  <time>2026-08-27T18:30:41Z</time>
  <course>317.29</course>
  <speed>0.0</speed>
  <fix>3d</fix>
</trkpt>
<trkpt lat="40.0728168" lon="-105.2306208">
  <ele>1596.52</ele>
  <time>2026-08-27T18:30:41Z</time>
  <course>347.6</course>
  <speed>0.022360679774997897</speed>
  <fix>3d</fix>
</trkpt>
<trkpt lat="40.0728167" lon="-105.2306206">
  <ele>1596.42</ele>
  <time>2026-08-27T18:30:41Z</time>
  <course>318.28</course>
  <speed>0.0</speed>
  <fix>3d</fix>
</trkpt>
<trkpt lat="40.0728168" lon="-105.2306208">
  <ele>1596.51</ele>
  <time>2026-08-27T18:30:41Z</time>
  <course>347.6</course>
  <speed>0.022360679774997897</speed>
  <fix>3d</fix>
</trkpt>
<trkpt lat="40.0728167" lon="-105.2306206">
  <ele>1596.42</ele>
  <time>2026-08-27T18:30:41Z</time>
  <course>320.25</course>
  <speed>0.0</speed>
  <fix>3d</fix>
</trkpt>
<trkpt lat="40.0728168" lon="-105.2306208">
  <ele>1596.51</ele>
  <time>2026-08-27T18:30:41Z</time>
  <course>347.58</course>
  <speed>0.022360679774997897</speed>
  <fix>3d</fix>
</trkpt>
<trkpt lat="40.0728167" lon="-105.2306206">
  <ele>1596.42</ele>
  <time>2026-08-27T18:30:41Z</time>
  <course>319.94</course>
  <speed>0.0</speed>
  <fix>3d</fix>
</trkpt>
<trkpt lat="40.0728168" lon="-105.2306208">
  <ele>1596.5</ele>
  <time>2026-08-27T18:30:41Z</time>
  <course>347.56</course>
  <speed>0.022360679774997897</speed>
  <fix>3d</fix>
</trkpt>
<trkpt lat="40.0728167" lon="-105.2306206">
  <ele>1596.42</ele>
  <time>2026-08-27T18:30:41Z</time>
  <course>318.81</course>
  <speed>0.0</speed>
  <fix>3d</fix>
</trkpt>
<trkpt lat="40.0728168" lon="-105.2306208">
  <ele>1596.5</ele>
  <time>2026-08-27T18:30:41Z</time>
  <course>347.55</course>
  <speed>0.022360679774997897</speed>
  <fix>3d</fix>
</trkpt>
<trkpt lat="40.0728167" lon="-105.2306207">
  <ele>1596.41</ele>
  <time>2026-08-27T18:30:41Z</time>
  <course>317.91</course>
  <speed>0.0</speed>
  <fix>3d</fix>
</trkpt>
<trkpt lat="40.0728168" lon="-105.2306208">
  <ele>1596.5</ele>
  <time>2026-08-27T18:30:41Z</time>
  <course>347.54</course>
  <speed>0.022360679774997897</speed>
  <fix>3d</fix>
</trkpt>
<trkpt lat="40.0728167" lon="-105.2306208">
  <ele>1596.41</ele>
  <time>2026-08-27T18:30:41Z</time>
  <course>316.36</course>
  <speed>0.0</speed>
  <fix>3d</fix>
</trkpt>
<trkpt lat="40.0728168" lon="-105.2306209">
  <ele>1596.5</ele>
  <time>2026-08-27T18:30:41Z</time>
  <course>347.51</course>
  <speed>0.022360679774997897</speed>
  <fix>3d</fix>
</trkpt>
<trkpt lat="40.0728167" lon="-105.2306208">
  <ele>1596.41</ele>
  <time>2026-08-27T18:30:41Z</time>
  <course>316.82</course>
  <speed>0.0</speed>
  <fix>3d</fix>
</trkpt>
<trkpt lat="40.0728168" lon="-105.2306209">
  <ele>1596.5</ele>
  <time>2026-08-27T18:30:41Z</time>
  <course>347.48</course>
  <speed>0.022360679774997897</speed>
  <fix>3d</fix>
</trkpt>
<trkpt lat="40.0728167" lon="-105.2306208">
  <ele>1596.41</ele>
  <time>2026-08-27T18:30:41Z</time>
  <course>320.3</course>
  <speed>0.0</speed>
  <fix>3d</fix>
</trkpt>
<trkpt lat="40.0728168" lon="-105.2306209">
  <ele>1596.5</ele>
  <time>2026-08-27T18:30:41Z</time>
  <course>347.46</course>
  <speed>0.022360679774997897</speed>
  <fix>3d</fix>
</trkpt>
<trkpt lat="40.0728167" lon="-105.2306208">
  <ele>1596.42</ele>
  <time>2026-08-27T18:30:41Z</time>
  <course>329.6</course>
  <speed>0.0</speed>
  <fix>3d</fix>
</trkpt>
<trkpt lat="40.0728168" lon="-105.2306209">
  <ele>1596.5</ele>
  <time>2026-08-27T18:30:41Z</time>
  <course>347.45</course>
  <speed>0.022360679774997897</speed>
  <fix>3d</fix>
</trkpt>
<trkpt lat="40.0728167" lon="-105.2306208">
  <ele>1596.42</ele>
  <time>2026-08-27T18:30:41Z</time>
  <course>345.68</course>
  <speed>0.0</speed>
  <fix>3d</fix>
</trkpt>
<trkpt lat="40.0728168" lon="-105.2306209">
  <ele>1596.5</ele>
  <time>2026-08-27T18:30:41Z</time>
  <course>347.45</course>
  <speed>0.022360679774997897</speed>
  <fix>3d</fix>
</trkpt>
<trkpt lat="40.0728167" lon="-105.2306208">
  <ele>1596.42</ele>
  <time>2026-08-27T18:30:41Z</time>
  <course>8.56</course>
  <speed>0.0</speed>
  <fix>3d</fix>
</trkpt>
<trkpt lat="40.0728168" lon="-105.2306209">
  <ele>1596.5</ele>
  <time>2026-08-27T18:30:41Z</time>
  <course>347.45</course>
  <speed>0.022360679774997897</speed>
  <fix>3d</fix>
</trkpt>
<trkpt lat="40.0728167" lon="-105.2306208">
  <ele>1596.42</ele>
  <time>2026-08-27T18:30:41Z</time>
  <course>29.43</course>
  <speed>0.0</speed>
  <fix>3d</fix>
</trkpt>
<trkpt lat="40.0728168" lon="-105.2306209">
  <ele>1596.49</ele>
  <time>2026-08-27T18:30:41Z</time>
  <course>347.44</course>
  <speed>0.01414213562373095</speed>
  <fix>3d</fix>
</trkpt>
<trkpt lat="40.0728167" lon="-105.2306208">
  <ele>1596.42</ele>
  <time>2026-08-27T18:30:41Z</time>
  <course>42.91</course>
  <speed>0.0</speed>
  <fix>3d</fix>
</trkpt>
<trkpt lat="40.0728168" lon="-105.2306209">
  <ele>1596.49</ele>
  <time>2026-08-27T18:30:41Z</time>
  <course>347.42</course>
  <speed>0.01414213562373095</speed>
  <fix>3d</fix>
</trkpt>
<trkpt lat="40.0728167" lon="-105.2306208">
  <ele>1596.43</ele>
  <time>2026-08-27T18:30:41Z</time>
  <course>49.98</course>
  <speed>0.0</speed>
  <fix>3d</fix>
</trkpt>
<trkpt lat="40.0728168" lon="-105.2306209">
  <ele>1596.49</ele>
  <time>2026-08-27T18:30:41Z</time>
  <course>347.41</course>
  <speed>0.01414213562373095</speed>
  <fix>3d</fix>
</trkpt>
<trkpt lat="40.0728167" lon="-105.2306208">
  <ele>1596.43</ele>
  <time>2026-08-27T18:30:41Z</time>
  <course>54.09</course>
  <speed>0.0</speed>
  <fix>3d</fix>
</trkpt>
<trkpt lat="40.0728168" lon="-105.2306209">
  <ele>1596.5</ele>
  <time>2026-08-27T18:30:41Z</time>
  <course>347.4</course>
  <speed>0.01414213562373095</speed>
  <fix>3d</fix>
</trkpt>
<trkpt lat="40.0728167" lon="-105.2306208">
  <ele>1596.43</ele>
  <time>2026-08-27T18:30:41Z</time>
  <course>57.84</course>
  <speed>0.0</speed>
  <fix>3d</fix>
</trkpt>
<trkpt lat="40.0728168" lon="-105.2306209">
  <ele>1596.5</ele>
  <time>2026-08-27T18:30:41Z</time>
  <course>347.4</course>
  <speed>0.01414213562373095</speed>
  <fix>3d</fix>
</trkpt>
<trkpt lat="40.0728167" lon="-105.2306208">
  <ele>1596.44</ele>
  <time>2026-08-27T18:30:41Z</time>
  <course>61.4</course>
  <speed>0.0</speed>
  <fix>3d</fix>
</trkpt>
<trkpt lat="40.0728168" lon="-105.2306209">
  <ele>1596.5</ele>
  <time>2026-08-27T18:30:41Z</time>
  <course>347.41</course>
  <speed>0.01414213562373095</speed>
  <fix>3d</fix>
</trkpt>
<trkpt lat="40.0728167" lon="-105.2306208">
  <ele>1596.44</ele>
  <time>2026-08-27T18:30:41Z</time>
  <course>63.0</course>
  <speed>0.0</speed>
  <fix>3d</fix>
</trkpt>
<trkpt lat="40.0728168" lon="-105.2306209">
  <ele>1596.51</ele>
  <time>2026-08-27T18:30:41Z</time>
  <course>347.41</course>
  <speed>0.01414213562373095</speed>
  <fix>3d</fix>
</trkpt>
<trkpt lat="40.0728167" lon="-105.2306208">
  <ele>1596.44</ele>
  <time>2026-08-27T18:30:41Z</time>
  <course>63.22</course>
  <speed>0.0</speed>
  <fix>3d</fix>
</trkpt>
<trkpt lat="40.0728168" lon="-105.2306209">
  <ele>1596.51</ele>
  <time>2026-08-27T18:30:41Z</time>
  <course>347.41</course>
  <speed>0.01414213562373095</speed>
  <fix>3d</fix>
</trkpt>
<trkpt lat="40.0728167" lon="-105.2306208">
  <ele>1596.45</ele>
  <time>2026-08-27T18:30:41Z</time>
  <course>64.9</course>
  <speed>0.0</speed>
  <fix>3d</fix>
</trkpt>
<trkpt lat="40.0728168" lon="-105.2306209">
  <ele>1596.52</ele>
  <time>2026-08-27T18:30:41Z</time>
  <course>347.41</course>
  <speed>0.01414213562373095</speed>
  <fix>3d</fix>
</trkpt>
<trkpt lat="40.0728167" lon="-105.2306208">
  <ele>1596.45</ele>
  <time>2026-08-27T18:30:41Z</time>
  <course>67.99</course>
  <speed>0.0</speed>
  <fix>3d</fix>
</trkpt>
<trkpt lat="40.0728168" lon="-105.2306209">
  <ele>1596.52</ele>
  <time>2026-08-27T18:30:41Z</time>
  <course>347.42</course>
  <speed>0.01414213562373095</speed>
  <fix>3d</fix>
</trkpt>
<trkpt lat="40.0728168" lon="-105.2306207">
  <ele>1596.45</ele>
  <time>2026-08-27T18:30:41Z</time>
  <course>70.81</course>
  <speed>0.0</speed>
  <fix>3d</fix>
</trkpt>
<trkpt lat="40.0728168" lon="-105.2306209">
  <ele>1596.52</ele>
  <time>2026-08-27T18:30:41Z</time>
  <course>347.44</course>
  <speed>0.01414213562373095</speed>
  <fix>3d</fix>
</trkpt>
<trkpt lat="40.0728168" lon="-105.2306206">
  <ele>1596.45</ele>
  <time>2026-08-27T18:30:41Z</time>
  <course>71.92</course>
  <speed>0.0</speed>
  <fix>3d</fix>
</trkpt>
<trkpt lat="40.0728168" lon="-105.2306209">
  <ele>1596.52</ele>
  <time>2026-08-27T18:30:41Z</time>
  <course>347.47</course>
  <speed>0.01414213562373095</speed>
  <fix>3d</fix>
</trkpt>
<trkpt lat="40.0728168" lon="-105.2306206">
  <ele>1596.45</ele>
  <time>2026-08-27T18:30:41Z</time>
  <course>70.46</course>
  <speed>0.0</speed>
  <fix>3d</fix>
</trkpt>
<trkpt lat="40.0728168" lon="-105.2306209">
  <ele>1596.51</ele>
  <time>2026-08-27T18:30:41Z</time>
  <course>347.48</course>
  <speed>0.01414213562373095</speed>
  <fix>3d</fix>
</trkpt>
<trkpt lat="40.0728168" lon="-105.2306206">
  <ele>1596.45</ele>
  <time>2026-08-27T18:30:41Z</time>
  <course>69.37</course>
  <speed>0.0</speed>
  <fix>3d</fix>
</trkpt>
<trkpt lat="40.0728168" lon="-105.2306209">
  <ele>1596.51</ele>
  <time>2026-08-27T18:30:41Z</time>
  <course>347.49</course>
  <speed>0.01414213562373095</speed>
  <fix>3d</fix>
</trkpt>
<trkpt lat="40.0728168" lon="-105.2306206">
  <ele>1596.45</ele>
  <time>2026-08-27T18:30:41Z</time>
  <course>70.52</course>
  <speed>0.0</speed>
  <fix>3d</fix>
</trkpt>
<trkpt lat="40.0728168" lon="-105.2306209">
  <ele>1596.52</ele>
  <time>2026-08-27T18:30:41Z</time>
  <course>347.48</course>
  <speed>0.01414213562373095</speed>
  <fix>3d</fix>
</trkpt>
<trkpt lat="40.0728168" lon="-105.2306206">
  <ele>1596.45</ele>
  <time>2026-08-27T18:30:41Z</time>
  <course>72.71</course>
  <speed>0.0</speed>
  <fix>3d</fix>
</trkpt>
<trkpt lat="40.0728168" lon="-105.2306209">
  <ele>1596.52</ele>
  <time>2026-08-27T18:30:41Z</time>
  <course>347.47</course>
  <speed>0.022360679774997897</speed>
  <fix>3d</fix>
</trkpt>
<trkpt lat="40.0728168" lon="-105.2306206">
  <ele>1596.45</ele>
  <time>2026-08-27T18:30:41Z</time>
  <course>75.6</course>
  <speed>0.0</speed>
  <fix>3d</fix>
</trkpt>
<trkpt lat="40.0728168" lon="-105.2306209">
  <ele>1596.52</ele>
  <time>2026-08-27T18:30:41Z</time>
  <course>347.49</course>
  <speed>0.022360679774997897</speed>
  <fix>3d</fix>
</trkpt>
<trkpt lat="40.0728168" lon="-105.2306206">
  <ele>1596.45</ele>
  <time>2026-08-27T18:30:41Z</time>
  <course>80.85</course>
  <speed>0.0</speed>
  <fix>3d</fix>
</trkpt>
<trkpt lat="40.0728168" lon="-105.2306209">
  <ele>1596.52</ele>
  <time>2026-08-27T18:30:41Z</time>
  <course>347.51</course>
  <speed>0.022360679774997897</speed>
  <fix>3d</fix>
</trkpt>
<trkpt lat="40.0728168" lon="-105.2306206">
  <ele>1596.44</ele>
  <time>2026-08-27T18:30:41Z</time>
  <course>93.23</course>
  <speed>0.0</speed>
  <fix>3d</fix>
</trkpt>
<trkpt lat="40.0728168" lon="-105.2306209">
  <ele>1596.52</ele>
  <time>2026-08-27T18:30:41Z</time>
  <course>347.52</course>
  <speed>0.022360679774997897</speed>
  <fix>3d</fix>
</trkpt>
<trkpt lat="40.0728168" lon="-105.2306206">
  <ele>1596.44</ele>
  <time>2026-08-27T18:30:41Z</time>
  <course>121.4</course>
  <speed>0.0</speed>
  <fix>3d</fix>
</trkpt>
<trkpt lat="40.0728168" lon="-105.2306209">
  <ele>1596.52</ele>
  <time>2026-08-27T18:30:41Z</time>
  <course>347.52</course>
  <speed>0.02</speed>
  <fix>3d</fix>
</trkpt>
<trkpt lat="40.0728168" lon="-105.2306206">
  <ele>1596.44</ele>
  <time>2026-08-27T18:30:41Z</time>
  <course>157.35</course>
  <speed>0.0</speed>
  <fix>3d</fix>
</trkpt>
<trkpt lat="40.0728168" lon="-105.2306209">
  <ele>1596.51</ele>
  <time>2026-08-27T18:30:41Z</time>
  <course>347.52</course>
  <speed>0.02</speed>
  <fix>3d</fix>
</trkpt>
<trkpt lat="40.0728168" lon="-105.2306206">
  <ele>1596.44</ele>
  <time>2026-08-27T18:30:41Z</time>
  <course>171.13</course>
  <speed>0.0</speed>
  <fix>3d</fix>
</trkpt>
<trkpt lat="40.0728168" lon="-105.2306209">
  <ele>1596.51</ele>
  <time>2026-08-27T18:30:41Z</time>
  <course>347.51</course>
  <speed>0.02</speed>
  <fix>3d</fix>
</trkpt>
<trkpt lat="40.0728168" lon="-105.2306206">
  <ele>1596.44</ele>
  <time>2026-08-27T18:30:41Z</time>
  <course>180.33</course>
  <speed>0.0</speed>
  <fix>3d</fix>
</trkpt>
<trkpt lat="40.0728168" lon="-105.2306209">
  <ele>1596.5</ele>
  <time>2026-08-27T18:30:41Z</time>
  <course>347.49</course>
  <speed>0.02</speed>
  <fix>3d</fix>
</trkpt>
<trkpt lat="40.0728168" lon="-105.2306206">
  <ele>1596.44</ele>
  <time>2026-08-27T18:30:41Z</time>
  <course>187.19</course>
  <speed>0.0</speed>
  <fix>3d</fix>
</trkpt>
<trkpt lat="40.0728168" lon="-105.2306209">
  <ele>1596.5</ele>
  <time>2026-08-27T18:30:41Z</time>
  <course>347.48</course>
  <speed>0.02</speed>
  <fix>3d</fix>
</trkpt>
<trkpt lat="40.0728168" lon="-105.2306206">
  <ele>1596.43</ele>
  <time>2026-08-27T18:30:41Z</time>
  <course>189.82</course>
  <speed>0.0</speed>
  <fix>3d</fix>
</trkpt>
<trkpt lat="40.0728168" lon="-105.2306209">
  <ele>1596.5</ele>
  <time>2026-08-27T18:30:41Z</time>
  <course>347.47</course>
  <speed>0.02</speed>
  <fix>3d</fix>
</trkpt>
<trkpt lat="40.0728168" lon="-105.2306206">
  <ele>1596.43</ele>
  <time>2026-08-27T18:30:41Z</time>
  <course>193.52</course>
  <speed>0.0</speed>
  <fix>3d</fix>
</trkpt>
<trkpt lat="40.0728168" lon="-105.2306208">
  <ele>1596.51</ele>
  <time>2026-08-27T18:30:41Z</time>
  <course>347.46</course>
  <speed>0.02</speed>
  <fix>3d</fix>
</trkpt>
<trkpt lat="40.0728168" lon="-105.2306206">
  <ele>1596.43</ele>
  <time>2026-08-27T18:30:41Z</time>
  <course>199.09</course>
  <speed>0.0</speed>
  <fix>3d</fix>
</trkpt>
<trkpt lat="40.0728168" lon="-105.2306208">
  <ele>1596.51</ele>
  <time>2026-08-27T18:30:41Z</time>
  <course>347.45</course>
  <speed>0.02</speed>
  <fix>3d</fix>
</trkpt>
<trkpt lat="40.0728168" lon="-105.2306206">
  <ele>1596.44</ele>
  <time>2026-08-27T18:30:41Z</time>
  <course>205.25</course>
  <speed>0.0</speed>
  <fix>3d</fix>
</trkpt>
<trkpt lat="40.0728168" lon="-105.2306208">
  <ele>1596.51</ele>
  <time>2026-08-27T18:30:41Z</time>
  <course>347.45</course>
  <speed>0.02</speed>
  <fix>3d</fix>
</trkpt>
<trkpt lat="40.0728168" lon="-105.2306206">
  <ele>1596.44</ele>
  <time>2026-08-27T18:30:41Z</time>
  <course>207.53</course>
  <speed>0.0</speed>
  <fix>3d</fix>
</trkpt>
<trkpt lat="40.0728168" lon="-105.2306208">
  <ele>1596.51</ele>
  <time>2026-08-27T18:30:41Z</time>
  <course>347.45</course>
  <speed>0.02</speed>
  <fix>3d</fix>
</trkpt>
<trkpt lat="40.0728168" lon="-105.2306206">
  <ele>1596.44</ele>
  <time>2026-08-27T18:30:41Z</time>
  <course>205.47</course>
  <speed>0.0</speed>
  <fix>3d</fix>
</trkpt>
<trkpt lat="40.0728168" lon="-105.2306208">
  <ele>1596.52</ele>
  <time>2026-08-27T18:30:41Z</time>
  <course>347.45</course>
  <speed>0.02</speed>
  <fix>3d</fix>
</trkpt>
<trkpt lat="40.0728168" lon="-105.2306206">
  <ele>1596.44</ele>
  <time>2026-08-27T18:30:41Z</time>
  <course>202.39</course>
  <speed>0.0</speed>
  <fix>3d</fix>
</trkpt>
<trkpt lat="40.0728168" lon="-105.2306208">
  <ele>1596.52</ele>
  <time>2026-08-27T18:30:41Z</time>
  <course>347.45</course>
  <speed>0.02</speed>
  <fix>3d</fix>
</trkpt>
<trkpt lat="40.0728168" lon="-105.2306206">
  <ele>1596.44</ele>
  <time>2026-08-27T18:30:41Z</time>
  <course>199.87</course>
  <speed>0.0</speed>
  <fix>3d</fix>
</trkpt>
<trkpt lat="40.0728168" lon="-105.2306208">
  <ele>1596.52</ele>
  <time>2026-08-27T18:30:41Z</time>
  <course>347.45</course>
  <speed>0.02</speed>
  <fix>3d</fix>
</trkpt>
<trkpt lat="40.0728168" lon="-105.2306206">
  <ele>1596.44</ele>
  <time>2026-08-27T18:30:41Z</time>
  <course>198.85</course>
  <speed>0.0</speed>
  <fix>3d</fix>
</trkpt>
<trkpt lat="40.0728168" lon="-105.2306208">
  <ele>1596.52</ele>
  <time>2026-08-27T18:30:41Z</time>
  <course>347.45</course>
  <speed>0.02</speed>
  <fix>3d</fix>
</trkpt>
<trkpt lat="40.0728168" lon="-105.2306206">
  <ele>1596.44</ele>
  <time>2026-08-27T18:30:41Z</time>
  <course>200.64</course>
  <speed>0.0</speed>
  <fix>3d</fix>
</trkpt>
<trkpt lat="40.0728168" lon="-105.2306208">
  <ele>1596.52</ele>
  <time>2026-08-27T18:30:41Z</time>
  <course>347.46</course>
  <speed>0.022360679774997897</speed>
  <fix>3d</fix>
</trkpt>
<trkpt lat="40.0728167" lon="-105.2306206">
  <ele>1596.44</ele>
  <time>2026-08-27T18:30:41Z</time>
  <course>206.64</course>
  <speed>0.0</speed>
  <fix>3d</fix>
</trkpt>
<trkpt lat="40.0728168" lon="-105.2306208">
  <ele>1596.52</ele>
  <time>2026-08-27T18:30:41Z</time>
  <course>347.46</course>
  <speed>0.022360679774997897</speed>
  <fix>3d</fix>
</trkpt>
<trkpt lat="40.0728167" lon="-105.2306206">
  <ele>1596.43</ele>
  <time>2026-08-27T18:30:41Z</time>
  <course>216.08</course>
  <speed>0.0</speed>
  <fix>3d</fix>
</trkpt>
<trkpt lat="40.0728168" lon="-105.2306208">
  <ele>1596.51</ele>
  <time>2026-08-27T18:30:41Z</time>
  <course>347.46</course>
  <speed>0.022360679774997897</speed>
  <fix>3d</fix>
</trkpt>
<trkpt lat="40.0728167" lon="-105.2306206">
  <ele>1596.43</ele>
  <time>2026-08-27T18:30:41Z</time>
  <course>222.36</course>
  <speed>0.0</speed>
  <fix>3d</fix>
</trkpt>
<trkpt lat="40.0728168" lon="-105.2306208">
  <ele>1596.51</ele>
  <time>2026-08-27T18:30:41Z</time>
  <course>347.46</course>
  <speed>0.022360679774997897</speed>
  <fix>3d</fix>
</trkpt>
<trkpt lat="40.0728167" lon="-105.2306206">
  <ele>1596.43</ele>
  <time>2026-08-27T18:30:41Z</time>
  <course>227.45</course>
  <speed>0.0</speed>
  <fix>3d</fix>
</trkpt>
<trkpt lat="40.0728168" lon="-105.2306208">
  <ele>1596.51</ele>
  <time>2026-08-27T18:30:42Z</time>
  <course>347.46</course>
  <speed>0.022360679774997897</speed>
  <fix>3d</fix>
</trkpt>
<trkpt lat="40.0728167" lon="-105.2306206">
  <ele>1596.43</ele>
  <time>2026-08-27T18:30:42Z</time>
  <course>239.48</course>
  <speed>0.0</speed>
  <fix>3d</fix>
</trkpt>
<trkpt lat="40.0728168" lon="-105.2306208">
  <ele>1596.51</ele>
  <time>2026-08-27T18:30:42Z</time>
  <course>347.46</course>
  <speed>0.022360679774997897</speed>
  <fix>3d</fix>
</trkpt>
<trkpt lat="40.0728167" lon="-105.2306206">
  <ele>1596.43</ele>
  <time>2026-08-27T18:30:42Z</time>
  <course>259.77</course>
  <speed>0.0</speed>
  <fix>3d</fix>
</trkpt>
<trkpt lat="40.0728168" lon="-105.2306208">
  <ele>1596.5</ele>
  <time>2026-08-27T18:30:42Z</time>
  <course>347.45</course>
  <speed>0.022360679774997897</speed>
  <fix>3d</fix>
</trkpt>
<trkpt lat="40.0728167" lon="-105.2306206">
  <ele>1596.43</ele>
  <time>2026-08-27T18:30:42Z</time>
  <course>282.72</course>
  <speed>0.0</speed>
  <fix>3d</fix>
</trkpt>
<trkpt lat="40.0728168" lon="-105.2306208">
  <ele>1596.49</ele>
  <time>2026-08-27T18:30:42Z</time>
  <course>347.45</course>
  <speed>0.022360679774997897</speed>
  <fix>3d</fix>
</trkpt>
<trkpt lat="40.0728167" lon="-105.2306206">
  <ele>1596.43</ele>
  <time>2026-08-27T18:30:42Z</time>
  <course>301.59</course>
  <speed>0.0</speed>
  <fix>3d</fix>
</trkpt>
<trkpt lat="40.0728168" lon="-105.2306208">
  <ele>1596.49</ele>
  <time>2026-08-27T18:30:42Z</time>
  <course>347.42</course>
  <speed>0.022360679774997897</speed>
  <fix>3d</fix>
</trkpt>
<trkpt lat="40.0728167" lon="-105.2306206">
  <ele>1596.43</ele>
  <time>2026-08-27T18:30:42Z</time>
  <course>309.61</course>
  <speed>0.0</speed>
  <fix>3d</fix>
</trkpt>
<trkpt lat="40.0728168" lon="-105.2306208">
  <ele>1596.5</ele>
  <time>2026-08-27T18:30:42Z</time>
  <course>347.4</course>
  <speed>0.022360679774997897</speed>
  <fix>3d</fix>
</trkpt>
<trkpt lat="40.0728167" lon="-105.2306206">
  <ele>1596.43</ele>
  <time>2026-08-27T18:30:42Z</time>
  <course>305.5</course>
  <speed>0.0</speed>
  <fix>3d</fix>
</trkpt>
<trkpt lat="40.0728168" lon="-105.2306208">
  <ele>1596.5</ele>
  <time>2026-08-27T18:30:42Z</time>
  <course>347.38</course>
  <speed>0.022360679774997897</speed>
  <fix>3d</fix>
</trkpt>
<trkpt lat="40.0728167" lon="-105.2306206">
  <ele>1596.43</ele>
  <time>2026-08-27T18:30:42Z</time>
  <course>298.1</course>
  <speed>0.0</speed>
  <fix>3d</fix>
</trkpt>
<trkpt lat="40.0728168" lon="-105.2306208">
  <ele>1596.5</ele>
  <time>2026-08-27T18:30:42Z</time>
  <course>347.37</course>
  <speed>0.022360679774997897</speed>
  <fix>3d</fix>
</trkpt>
<trkpt lat="40.0728167" lon="-105.2306206">
  <ele>1596.44</ele>
  <time>2026-08-27T18:30:42Z</time>
  <course>294.88</course>
  <speed>0.0</speed>
  <fix>3d</fix>
</trkpt>
<trkpt lat="40.0728168" lon="-105.2306208">
  <ele>1596.5</ele>
  <time>2026-08-27T18:30:42Z</time>
  <course>347.37</course>
  <speed>0.022360679774997897</speed>
  <fix>3d</fix>
</trkpt>
<trkpt lat="40.0728167" lon="-105.2306206">
  <ele>1596.44</ele>
  <time>2026-08-27T18:30:42Z</time>
  <course>293.86</course>
  <speed>0.0</speed>
  <fix>3d</fix>
</trkpt>
<trkpt lat="40.0728168" lon="-105.2306208">
  <ele>1596.5</ele>
  <time>2026-08-27T18:30:42Z</time>
  <course>347.36</course>
  <speed>0.022360679774997897</speed>
  <fix>3d</fix>
</trkpt>
<trkpt lat="40.0728167" lon="-105.2306206">
  <ele>1596.44</ele>
  <time>2026-08-27T18:30:42Z</time>
  <course>293.49</course>
  <speed>0.0</speed>
  <fix>3d</fix>
</trkpt>
<trkpt lat="40.0728168" lon="-105.2306208">
  <ele>1596.51</ele>
  <time>2026-08-27T18:30:42Z</time>
  <course>347.36</course>
  <speed>0.022360679774997897</speed>
  <fix>3d</fix>
</trkpt>
<trkpt lat="40.0728167" lon="-105.2306206">
  <ele>1596.44</ele>
  <time>2026-08-27T18:30:42Z</time>
  <course>293.22</course>
  <speed>0.0</speed>
  <fix>3d</fix>
</trkpt>
<trkpt lat="40.0728168" lon="-105.2306208">
  <ele>1596.51</ele>
  <time>2026-08-27T18:30:42Z</time>
  <course>347.36</course>
  <speed>0.022360679774997897</speed>
  <fix>3d</fix>
</trkpt>
<trkpt lat="40.0728167" lon="-105.2306206">
  <ele>1596.45</ele>
  <time>2026-08-27T18:30:42Z</time>
  <course>295.64</course>
  <speed>0.0</speed>
  <fix>3d</fix>
</trkpt>
<trkpt lat="40.0728168" lon="-105.2306208">
  <ele>1596.51</ele>
  <time>2026-08-27T18:30:42Z</time>
  <course>347.36</course>
  <speed>0.022360679774997897</speed>
  <fix>3d</fix>
</trkpt>
<trkpt lat="40.0728167" lon="-105.2306206">
  <ele>1596.45</ele>
  <time>2026-08-27T18:30:42Z</time>
  <course>300.37</course>
  <speed>0.0</speed>
  <fix>3d</fix>
</trkpt>
<trkpt lat="40.0728168" lon="-105.2306208">
  <ele>1596.51</ele>
  <time>2026-08-27T18:30:42Z</time>
  <course>347.36</course>
  <speed>0.022360679774997897</speed>
  <fix>3d</fix>
</trkpt>
<trkpt lat="40.0728167" lon="-105.2306206">
  <ele>1596.45</ele>
  <time>2026-08-27T18:30:42Z</time>
  <course>304.47</course>
  <speed>0.0</speed>
  <fix>3d</fix>
</trkpt>
<trkpt lat="40.0728168" lon="-105.2306208">
  <ele>1596.51</ele>
  <time>2026-08-27T18:30:42Z</time>
  <course>347.36</course>
  <speed>0.022360679774997897</speed>
  <fix>3d</fix>
</trkpt>
<trkpt lat="40.0728167" lon="-105.2306206">
  <ele>1596.45</ele>
  <time>2026-08-27T18:30:42Z</time>
  <course>308.41</course>
  <speed>0.0</speed>
  <fix>3d</fix>
</trkpt>
<trkpt lat="40.0728168" lon="-105.2306208">
  <ele>1596.51</ele>
  <time>2026-08-27T18:30:42Z</time>
  <course>347.36</course>
  <speed>0.022360679774997897</speed>
  <fix>3d</fix>
</trkpt>
<trkpt lat="40.0728167" lon="-105.2306207">
  <ele>1596.45</ele>
  <time>2026-08-27T18:30:42Z</time>
  <course>312.14</course>
  <speed>0.0</speed>
  <fix>3d</fix>
</trkpt>
<trkpt lat="40.0728168" lon="-105.2306208">
  <ele>1596.51</ele>
  <time>2026-08-27T18:30:42Z</time>
  <course>347.36</course>
  <speed>0.022360679774997897</speed>
  <fix>3d</fix>
</trkpt>
<trkpt lat="40.0728167" lon="-105.2306208">
  <ele>1596.45</ele>
  <time>2026-08-27T18:30:42Z</time>
  <course>315.68</course>
  <speed>0.0</speed>
  <fix>3d</fix>
</trkpt>
<trkpt lat="40.0728168" lon="-105.2306209">
  <ele>1596.51</ele>
  <time>2026-08-27T18:30:42Z</time>
  <course>347.36</course>
  <speed>0.022360679774997897</speed>
  <fix>3d</fix>
</trkpt>
<trkpt lat="40.0728167" lon="-105.2306208">
  <ele>1596.45</ele>
  <time>2026-08-27T18:30:42Z</time>
  <course>318.9</course>
  <speed>0.0</speed>
  <fix>3d</fix>
</trkpt>
<trkpt lat="40.0728168" lon="-105.2306209">
  <ele>1596.51</ele>
  <time>2026-08-27T18:30:42Z</time>
  <course>347.36</course>
  <speed>0.022360679774997897</speed>
  <fix>3d</fix>
</trkpt>
<trkpt lat="40.0728167" lon="-105.2306208">
  <ele>1596.45</ele>
  <time>2026-08-27T18:30:42Z</time>
  <course>321.99</course>
  <speed>0.0</speed>
  <fix>3d</fix>
</trkpt>
<trkpt lat="40.0728168" lon="-105.2306209">
  <ele>1596.51</ele>
  <time>2026-08-27T18:30:42Z</time>
  <course>347.36</course>
  <speed>0.022360679774997897</speed>
  <fix>3d</fix>
</trkpt>
<trkpt lat="40.0728167" lon="-105.2306208">
  <ele>1596.45</ele>
  <time>2026-08-27T18:30:42Z</time>
  <course>326.48</course>
  <speed>0.0</speed>
  <fix>3d</fix>
</trkpt>
<trkpt lat="40.0728168" lon="-105.2306209">
  <ele>1596.51</ele>
  <time>2026-08-27T18:30:42Z</time>
  <course>347.36</course>
  <speed>0.022360679774997897</speed>
  <fix>3d</fix>
</trkpt>
<trkpt lat="40.0728167" lon="-105.2306208">
  <ele>1596.46</ele>
  <time>2026-08-27T18:30:42Z</time>
  <course>332.41</course>
  <speed>0.0</speed>
  <fix>3d</fix>
</trkpt>
<trkpt lat="40.0728168" lon="-105.2306209">
  <ele>1596.51</ele>
  <time>2026-08-27T18:30:42Z</time>
  <course>347.36</course>
  <speed>0.022360679774997897</speed>
  <fix>3d</fix>
</trkpt>
<trkpt lat="40.0728167" lon="-105.2306208">
  <ele>1596.46</ele>
  <time>2026-08-27T18:30:42Z</time>
  <course>338.44</course>
  <speed>0.0</speed>
  <fix>3d</fix>
</trkpt>
<trkpt lat="40.0728168" lon="-105.2306209">
  <ele>1596.51</ele>
  <time>2026-08-27T18:30:42Z</time>
  <course>347.36</course>
  <speed>0.022360679774997897</speed>
  <fix>3d</fix>
</trkpt>
<trkpt lat="40.0728167" lon="-105.2306208">
  <ele>1596.46</ele>
  <time>2026-08-27T18:30:42Z</time>
  <course>348.39</course>
  <speed>0.0</speed>
  <fix>3d</fix>
</trkpt>
<trkpt lat="40.0728168" lon="-105.2306209">
  <ele>1596.51</ele>
  <time>2026-08-27T18:30:42Z</time>
  <course>347.36</course>
  <speed>0.022360679774997897</speed>
  <fix>3d</fix>
</trkpt>
<trkpt lat="40.0728167" lon="-105.2306208">
  <ele>1596.46</ele>
  <time>2026-08-27T18:30:42Z</time>
  <course>8.02</course>
  <speed>0.0</speed>
  <fix>3d</fix>
</trkpt>
<trkpt lat="40.0728168" lon="-105.2306209">
  <ele>1596.51</ele>
  <time>2026-08-27T18:30:42Z</time>
  <course>347.37</course>
  <speed>0.01414213562373095</speed>
  <fix>3d</fix>
</trkpt>
<trkpt lat="40.0728167" lon="-105.2306208">
  <ele>1596.46</ele>
  <time>2026-08-27T18:30:42Z</time>
  <course>33.1</course>
  <speed>0.0</speed>
  <fix>3d</fix>
</trkpt>
<trkpt lat="40.0728168" lon="-105.2306209">
  <ele>1596.51</ele>
  <time>2026-08-27T18:30:42Z</time>
  <course>347.37</course>
  <speed>0.01414213562373095</speed>
  <fix>3d</fix>
</trkpt>
<trkpt lat="40.0728168" lon="-105.2306208">
  <ele>1596.46</ele>
  <time>2026-08-27T18:30:42Z</time>
  <course>51.93</course>
  <speed>0.0</speed>
  <fix>3d</fix>
</trkpt>
<trkpt lat="40.0728168" lon="-105.2306209">
  <ele>1596.51</ele>
  <time>2026-08-27T18:30:42Z</time>
  <course>347.37</course>
  <speed>0.01414213562373095</speed>
  <fix>3d</fix>
</trkpt>
<trkpt lat="40.0728168" lon="-105.2306208">
  <ele>1596.46</ele>
  <time>2026-08-27T18:30:42Z</time>
  <course>63.84</course>
  <speed>0.0</speed>
  <fix>3d</fix>
</trkpt>
<trkpt lat="40.0728168" lon="-105.2306209">
  <ele>1596.51</ele>
  <time>2026-08-27T18:30:42Z</time>
  <course>347.37</course>
  <speed>0.01414213562373095</speed>
  <fix>3d</fix>
</trkpt>
<trkpt lat="40.0728168" lon="-105.2306208">
  <ele>1596.46</ele>
  <time>2026-08-27T18:30:42Z</time>
  <course>71.59</course>
  <speed>0.0</speed>
  <fix>3d</fix>
</trkpt>
<trkpt lat="40.0728168" lon="-105.2306209">
  <ele>1596.51</ele>
  <time>2026-08-27T18:30:42Z</time>
  <course>347.37</course>
  <speed>0.01414213562373095</speed>
  <fix>3d</fix>
</trkpt>
<trkpt lat="40.0728168" lon="-105.2306208">
  <ele>1596.46</ele>
  <time>2026-08-27T18:30:42Z</time>
  <course>77.63</course>
  <speed>0.0</speed>
  <fix>3d</fix>
</trkpt>
<trkpt lat="40.0728168" lon="-105.2306209">
  <ele>1596.51</ele>
  <time>2026-08-27T18:30:42Z</time>
  <course>347.37</course>
  <speed>0.01414213562373095</speed>
  <fix>3d</fix>
</trkpt>
<trkpt lat="40.0728168" lon="-105.2306208">
  <ele>1596.46</ele>
  <time>2026-08-27T18:30:42Z</time>
  <course>83.39</course>
  <speed>0.0</speed>
  <fix>3d</fix>
</trkpt>
<trkpt lat="40.0728168" lon="-105.2306209">
  <ele>1596.52</ele>
  <time>2026-08-27T18:30:42Z</time>
  <course>347.37</course>
  <speed>0.01</speed>
  <fix>3d</fix>
</trkpt>
<trkpt lat="40.0728168" lon="-105.2306208">
  <ele>1596.46</ele>
  <time>2026-08-27T18:30:42Z</time>
  <course>88.64</course>
  <speed>0.0</speed>
  <fix>3d</fix>
</trkpt>
<trkpt lat="40.0728168" lon="-105.2306209">
  <ele>1596.53</ele>
  <time>2026-08-27T18:30:42Z</time>
  <course>347.37</course>
  <speed>0.01</speed>
  <fix>3d</fix>
</trkpt>
<trkpt lat="40.0728168" lon="-105.2306208">
  <ele>1596.46</ele>
  <time>2026-08-27T18:30:42Z</time>
  <course>93.24</course>
  <speed>0.0</speed>
  <fix>3d</fix>
</trkpt>
<trkpt lat="40.0728168" lon="-105.2306209">
  <ele>1596.53</ele>
  <time>2026-08-27T18:30:42Z</time>
  <course>347.4</course>
  <speed>0.01</speed>
  <fix>3d</fix>
</trkpt>
<trkpt lat="40.0728168" lon="-105.2306208">
  <ele>1596.46</ele>
  <time>2026-08-27T18:30:42Z</time>
  <course>97.16</course>
  <speed>0.0</speed>
  <fix>3d</fix>
</trkpt>
<trkpt lat="40.0728168" lon="-105.2306209">
  <ele>1596.54</ele>
  <time>2026-08-27T18:30:42Z</time>
  <course>347.43</course>
  <speed>0.01</speed>
  <fix>3d</fix>
</trkpt>
<trkpt lat="40.0728168" lon="-105.2306207">
  <ele>1596.46</ele>
  <time>2026-08-27T18:30:42Z</time>
  <course>101.04</course>
  <speed>0.0</speed>
  <fix>3d</fix>
</trkpt>
<trkpt lat="40.0728168" lon="-105.2306209">
  <ele>1596.54</ele>
  <time>2026-08-27T18:30:42Z</time>
  <course>347.47</course>
  <speed>0.01</speed>
  <fix>3d</fix>
</trkpt>
<trkpt lat="40.0728168" lon="-105.2306206">
  <ele>1596.46</ele>
  <time>2026-08-27T18:30:42Z</time>
  <course>103.85</course>
  <speed>0.0</speed>
  <fix>3d</fix>
</trkpt>
<trkpt lat="40.0728168" lon="-105.2306209">
  <ele>1596.53</ele>
  <time>2026-08-27T18:30:42Z</time>
  <course>347.51</course>
  <speed>0.01</speed>
  <fix>3d</fix>
</trkpt>
<trkpt lat="40.0728168" lon="-105.2306206">
  <ele>1596.45</ele>
  <time>2026-08-27T18:30:42Z</time>
  <course>106.36</course>
  <speed>0.0</speed>
  <fix>3d</fix>
</trkpt>
<trkpt lat="40.0728168" lon="-105.2306209">
  <ele>1596.53</ele>
  <time>2026-08-27T18:30:42Z</time>
  <course>347.52</course>
  <speed>0.01</speed>
  <fix>3d</fix>
</trkpt>
<trkpt lat="40.0728168" lon="-105.2306206">
  <ele>1596.45</ele>
  <time>2026-08-27T18:30:42Z</time>
  <course>108.56</course>
  <speed>0.0</speed>
  <fix>3d</fix>
</trkpt>
<trkpt lat="40.0728168" lon="-105.2306209">
  <ele>1596.52</ele>
  <time>2026-08-27T18:30:42Z</time>
  <course>347.5</course>
  <speed>0.01</speed>
  <fix>3d</fix>
</trkpt>
<trkpt lat="40.0728168" lon="-105.2306206">
  <ele>1596.44</ele>
  <time>2026-08-27T18:30:42Z</time>
  <course>109.11</course>
  <speed>0.0</speed>
  <fix>3d</fix>
</trkpt>
<trkpt lat="40.0728168" lon="-105.2306208">
  <ele>1596.51</ele>
  <time>2026-08-27T18:30:42Z</time>
  <course>347.48</course>
  <speed>0.01</speed>
  <fix>3d</fix>
</trkpt>
<trkpt lat="40.0728168" lon="-105.2306206">
  <ele>1596.44</ele>
  <time>2026-08-27T18:30:42Z</time>
  <course>112.37</course>
  <speed>0.0</speed>
  <fix>3d</fix>
</trkpt>
<trkpt lat="40.0728168" lon="-105.2306208">
  <ele>1596.51</ele>
  <time>2026-08-27T18:30:42Z</time>
  <course>347.45</course>
  <speed>0.02</speed>
  <fix>3d</fix>
</trkpt>
<trkpt lat="40.0728168" lon="-105.2306206">
  <ele>1596.43</ele>
  <time>2026-08-27T18:30:42Z</time>
  <course>121.18</course>
  <speed>0.0</speed>
  <fix>3d</fix>
</trkpt>
<trkpt lat="40.0728168" lon="-105.2306208">
  <ele>1596.51</ele>
  <time>2026-08-27T18:30:42Z</time>
  <course>347.43</course>
  <speed>0.02</speed>
  <fix>3d</fix>
</trkpt>
<trkpt lat="40.0728168" lon="-105.2306206">
  <ele>1596.43</ele>
  <time>2026-08-27T18:30:42Z</time>
  <course>132.74</course>
  <speed>0.0</speed>
  <fix>3d</fix>
</trkpt>
<trkpt lat="40.0728168" lon="-105.2306208">
  <ele>1596.51</ele>
  <time>2026-08-27T18:30:42Z</time>
  <course>347.42</course>
  <speed>0.02</speed>
  <fix>3d</fix>
</trkpt>
<trkpt lat="40.0728168" lon="-105.2306206">
  <ele>1596.43</ele>
  <time>2026-08-27T18:30:42Z</time>
  <course>145.4</course>
  <speed>0.0</speed>
  <fix>3d</fix>
</trkpt>
<trkpt lat="40.0728168" lon="-105.2306208">
  <ele>1596.51</ele>
  <time>2026-08-27T18:30:42Z</time>
  <course>347.41</course>
  <speed>0.02</speed>
  <fix>3d</fix>
</trkpt>
<trkpt lat="40.0728168" lon="-105.2306206">
  <ele>1596.43</ele>
  <time>2026-08-27T18:30:42Z</time>
  <course>159.6</course>
  <speed>0.0</speed>
  <fix>3d</fix>
</trkpt>
<trkpt lat="40.0728168" lon="-105.2306208">
  <ele>1596.51</ele>
  <time>2026-08-27T18:30:42Z</time>
  <course>347.4</course>
  <speed>0.02</speed>
  <fix>3d</fix>
</trkpt>
<trkpt lat="40.0728168" lon="-105.2306206">
  <ele>1596.43</ele>
  <time>2026-08-27T18:30:42Z</time>
  <course>173.41</course>
  <speed>0.0</speed>
  <fix>3d</fix>
</trkpt>
<trkpt lat="40.0728168" lon="-105.2306208">
  <ele>1596.51</ele>
  <time>2026-08-27T18:30:42Z</time>
  <course>347.4</course>
  <speed>0.02</speed>
  <fix>3d</fix>
</trkpt>
<trkpt lat="40.0728168" lon="-105.2306206">
  <ele>1596.43</ele>
  <time>2026-08-27T18:30:42Z</time>
  <course>185.03</course>
  <speed>0.0</speed>
  <fix>3d</fix>
</trkpt>
<trkpt lat="40.0728168" lon="-105.2306208">
  <ele>1596.51</ele>
  <time>2026-08-27T18:30:42Z</time>
  <course>347.39</course>
  <speed>0.02</speed>
  <fix>3d</fix>
</trkpt>
<trkpt lat="40.0728168" lon="-105.2306206">
  <ele>1596.43</ele>
  <time>2026-08-27T18:30:42Z</time>
  <course>192.42</course>
  <speed>0.0</speed>
  <fix>3d</fix>
</trkpt>
<trkpt lat="40.0728168" lon="-105.2306208">
  <ele>1596.51</ele>
  <time>2026-08-27T18:30:42Z</time>
  <course>347.4</course>
  <speed>0.02</speed>
  <fix>3d</fix>
</trkpt>
<trkpt lat="40.0728168" lon="-105.2306206">
  <ele>1596.43</ele>
  <time>2026-08-27T18:30:42Z</time>
  <course>195.55</course>
  <speed>0.0</speed>
  <fix>3d</fix>
</trkpt>
<trkpt lat="40.0728168" lon="-105.2306208">
  <ele>1596.51</ele>
  <time>2026-08-27T18:30:42Z</time>
  <course>347.4</course>
  <speed>0.02</speed>
  <fix>3d</fix>
</trkpt>
<trkpt lat="40.0728168" lon="-105.2306206">
  <ele>1596.43</ele>
  <time>2026-08-27T18:30:42Z</time>
  <course>198.33</course>
  <speed>0.0</speed>
  <fix>3d</fix>
</trkpt>
<trkpt lat="40.0728168" lon="-105.2306208">
  <ele>1596.52</ele>
  <time>2026-08-27T18:30:42Z</time>
  <course>347.39</course>
  <speed>0.022360679774997897</speed>
  <fix>3d</fix>
</trkpt>
<trkpt lat="40.0728168" lon="-105.2306206">
  <ele>1596.43</ele>
  <time>2026-08-27T18:30:42Z</time>
  <course>201.95</course>
  <speed>0.0</speed>
  <fix>3d</fix>
</trkpt>
<trkpt lat="40.0728168" lon="-105.2306208">
  <ele>1596.52</ele>
  <time>2026-08-27T18:30:42Z</time>
  <course>347.41</course>
  <speed>0.022360679774997897</speed>
  <fix>3d</fix>
</trkpt>
<trkpt lat="40.0728167" lon="-105.2306206">
  <ele>1596.43</ele>
  <time>2026-08-27T18:30:42Z</time>
  <course>205.06</course>
  <speed>0.0</speed>
  <fix>3d</fix>
</trkpt>
<trkpt lat="40.0728168" lon="-105.2306208">
  <ele>1596.51</ele>
  <time>2026-08-27T18:30:42Z</time>
  <course>347.43</course>
  <speed>0.022360679774997897</speed>
  <fix>3d</fix>
</trkpt>
<trkpt lat="40.0728167" lon="-105.2306206">
  <ele>1596.43</ele>
  <time>2026-08-27T18:30:42Z</time>
  <course>208.89</course>
  <speed>0.0</speed>
  <fix>3d</fix>
</trkpt>
<trkpt lat="40.0728168" lon="-105.2306208">
  <ele>1596.51</ele>
  <time>2026-08-27T18:30:42Z</time>
  <course>347.42</course>
  <speed>0.022360679774997897</speed>
  <fix>3d</fix>
</trkpt>
<trkpt lat="40.0728167" lon="-105.2306206">
  <ele>1596.42</ele>
  <time>2026-08-27T18:30:42Z</time>
  <course>214.34</course>
  <speed>0.0</speed>
  <fix>3d</fix>
</trkpt>
<trkpt lat="40.0728168" lon="-105.2306208">
  <ele>1596.52</ele>
  <time>2026-08-27T18:30:42Z</time>
  <course>347.42</course>
  <speed>0.022360679774997897</speed>
  <fix>3d</fix>
</trkpt>
<trkpt lat="40.0728167" lon="-105.2306206">
  <ele>1596.42</ele>
  <time>2026-08-27T18:30:42Z</time>
  <course>222.49</course>
  <speed>0.0</speed>
  <fix>3d</fix>
</trkpt>
<trkpt lat="40.0728168" lon="-105.2306208">
  <ele>1596.52</ele>
  <time>2026-08-27T18:30:42Z</time>
  <course>347.43</course>
  <speed>0.022360679774997897</speed>
  <fix>3d</fix>
</trkpt>
<trkpt lat="40.0728167" lon="-105.2306206">
  <ele>1596.42</ele>
  <time>2026-08-27T18:30:42Z</time>
  <course>230.48</course>
  <speed>0.0</speed>
  <fix>3d</fix>
</trkpt>
<trkpt lat="40.0728168" lon="-105.2306208">
  <ele>1596.52</ele>
  <time>2026-08-27T18:30:42Z</time>
  <course>347.44</course>
  <speed>0.022360679774997897</speed>
  <fix>3d</fix>
</trkpt>
<trkpt lat="40.0728167" lon="-105.2306206">
  <ele>1596.42</ele>
  <time>2026-08-27T18:30:42Z</time>
  <course>238.74</course>
  <speed>0.0</speed>
  <fix>3d</fix>
</trkpt>
<trkpt lat="40.0728168" lon="-105.2306208">
  <ele>1596.52</ele>
  <time>2026-08-27T18:30:42Z</time>
  <course>347.46</course>
  <speed>0.022360679774997897</speed>
  <fix>3d</fix>
</trkpt>
<trkpt lat="40.0728167" lon="-105.2306206">
  <ele>1596.42</ele>
  <time>2026-08-27T18:30:42Z</time>
  <course>251.91</course>
  <speed>0.0</speed>
  <fix>3d</fix>
</trkpt>
<trkpt lat="40.0728168" lon="-105.2306208">
  <ele>1596.52</ele>
  <time>2026-08-27T18:30:42Z</time>
  <course>347.47</course>
  <speed>0.022360679774997897</speed>
  <fix>3d</fix>
</trkpt>
<trkpt lat="40.0728167" lon="-105.2306206">
  <ele>1596.41</ele>
  <time>2026-08-27T18:30:42Z</time>
  <course>269.04</course>
  <speed>0.0</speed>
  <fix>3d</fix>
</trkpt>
<trkpt lat="40.0728168" lon="-105.2306208">
  <ele>1596.52</ele>
  <time>2026-08-27T18:30:42Z</time>
  <course>347.46</course>
  <speed>0.022360679774997897</speed>
  <fix>3d</fix>
</trkpt>
<trkpt lat="40.0728167" lon="-105.2306206">
  <ele>1596.41</ele>
  <time>2026-08-27T18:30:42Z</time>
  <course>287.22</course>
  <speed>0.0</speed>
  <fix>3d</fix>
</trkpt>
<trkpt lat="40.0728168" lon="-105.2306208">
  <ele>1596.52</ele>
  <time>2026-08-27T18:30:42Z</time>
  <course>347.45</course>
  <speed>0.022360679774997897</speed>
  <fix>3d</fix>
</trkpt>
<trkpt lat="40.0728167" lon="-105.2306206">
  <ele>1596.41</ele>
  <time>2026-08-27T18:30:42Z</time>
  <course>296.01</course>
  <speed>0.0</speed>
  <fix>3d</fix>
</trkpt>
<trkpt lat="40.0728168" lon="-105.2306208">
  <ele>1596.52</ele>
  <time>2026-08-27T18:30:42Z</time>
  <course>347.44</course>
  <speed>0.022360679774997897</speed>
  <fix>3d</fix>
</trkpt>
<trkpt lat="40.0728167" lon="-105.2306206">
  <ele>1596.4</ele>
  <time>2026-08-27T18:30:42Z</time>
  <course>298.01</course>
  <speed>0.0</speed>
  <fix>3d</fix>
</trkpt>
<trkpt lat="40.0728168" lon="-105.2306208">
  <ele>1596.51</ele>
  <time>2026-08-27T18:30:42Z</time>
  <course>347.43</course>
  <speed>0.022360679774997897</speed>
  <fix>3d</fix>
</trkpt>
<trkpt lat="40.0728167" lon="-105.2306206">
  <ele>1596.4</ele>
  <time>2026-08-27T18:30:42Z</time>
  <course>298.4</course>
  <speed>0.0</speed>
  <fix>3d</fix>
</trkpt>
<trkpt lat="40.0728168" lon="-105.2306208">
  <ele>1596.51</ele>
  <time>2026-08-27T18:30:42Z</time>
  <course>347.43</course>
  <speed>0.022360679774997897</speed>
  <fix>3d</fix>
</trkpt>
<trkpt lat="40.0728167" lon="-105.2306206">
  <ele>1596.4</ele>
  <time>2026-08-27T18:30:42Z</time>
  <course>298.48</course>
  <speed>0.0</speed>
  <fix>3d</fix>
</trkpt>
<trkpt lat="40.0728168" lon="-105.2306208">
  <ele>1596.51</ele>
  <time>2026-08-27T18:30:42Z</time>
  <course>347.42</course>
  <speed>0.022360679774997897</speed>
  <fix>3d</fix>
</trkpt>
<trkpt lat="40.0728167" lon="-105.2306206">
  <ele>1596.4</ele>
  <time>2026-08-27T18:30:42Z</time>
  <course>303.57</course>
  <speed>0.0</speed>
  <fix>3d</fix>
</trkpt>
<trkpt lat="40.0728168" lon="-105.2306208">
  <ele>1596.51</ele>
  <time>2026-08-27T18:30:42Z</time>
  <course>347.41</course>
  <speed>0.022360679774997897</speed>
  <fix>3d</fix>
</trkpt>
<trkpt lat="40.0728167" lon="-105.2306206">
  <ele>1596.4</ele>
  <time>2026-08-27T18:30:42Z</time>
  <course>309.65</course>
  <speed>0.0</speed>
  <fix>3d</fix>
</trkpt>
<trkpt lat="40.0728168" lon="-105.2306208">
  <ele>1596.5</ele>
  <time>2026-08-27T18:30:42Z</time>
  <course>347.41</course>
  <speed>0.022360679774997897</speed>
  <fix>3d</fix>
</trkpt>
<trkpt lat="40.0728167" lon="-105.2306206">
  <ele>1596.4</ele>
  <time>2026-08-27T18:30:42Z</time>
  <course>313.0</course>
  <speed>0.0</speed>
  <fix>3d</fix>
</trkpt>
<trkpt lat="40.0728168" lon="-105.2306208">
  <ele>1596.5</ele>
  <time>2026-08-27T18:30:42Z</time>
  <course>347.4</course>
  <speed>0.022360679774997897</speed>
  <fix>3d</fix>
</trkpt>
<trkpt lat="40.0728167" lon="-105.2306206">
  <ele>1596.4</ele>
  <time>2026-08-27T18:30:42Z</time>
  <course>315.83</course>
  <speed>0.0</speed>
  <fix>3d</fix>
</trkpt>
<trkpt lat="40.0728168" lon="-105.2306208">
  <ele>1596.5</ele>
  <time>2026-08-27T18:30:42Z</time>
  <course>347.4</course>
  <speed>0.022360679774997897</speed>
  <fix>3d</fix>
</trkpt>
<trkpt lat="40.0728167" lon="-105.2306206">
  <ele>1596.4</ele>
  <time>2026-08-27T18:30:42Z</time>
  <course>318.26</course>
  <speed>0.0</speed>
  <fix>3d</fix>
</trkpt>
<trkpt lat="40.0728168" lon="-105.2306208">
  <ele>1596.5</ele>
  <time>2026-08-27T18:30:42Z</time>
  <course>347.4</course>
  <speed>0.022360679774997897</speed>
  <fix>3d</fix>
</trkpt>
<trkpt lat="40.0728167" lon="-105.2306206">
  <ele>1596.4</ele>
  <time>2026-08-27T18:30:42Z</time>
  <course>320.21</course>
  <speed>0.0</speed>
  <fix>3d</fix>
</trkpt>
<trkpt lat="40.0728168" lon="-105.2306208">
  <ele>1596.51</ele>
  <time>2026-08-27T18:30:42Z</time>
  <course>347.4</course>
  <speed>0.022360679774997897</speed>
  <fix>3d</fix>
</trkpt>
<trkpt lat="40.0728167" lon="-105.2306206">
  <ele>1596.4</ele>
  <time>2026-08-27T18:30:42Z</time>
  <course>321.7</course>
  <speed>0.0</speed>
  <fix>3d</fix>
</trkpt>
<trkpt lat="40.0728168" lon="-105.2306208">
  <ele>1596.51</ele>
  <time>2026-08-27T18:30:42Z</time>
  <course>347.4</course>
  <speed>0.022360679774997897</speed>
  <fix>3d</fix>
</trkpt>
<trkpt lat="40.0728167" lon="-105.2306206">
  <ele>1596.4</ele>
  <time>2026-08-27T18:30:42Z</time>
  <course>323.02</course>
  <speed>0.0</speed>
  <fix>3d</fix>
</trkpt>
<trkpt lat="40.0728168" lon="-105.2306208">
  <ele>1596.5</ele>
  <time>2026-08-27T18:30:42Z</time>
  <course>347.4</course>
  <speed>0.022360679774997897</speed>
  <fix>3d</fix>
</trkpt>
<trkpt lat="40.0728167" lon="-105.2306206">
  <ele>1596.4</ele>
  <time>2026-08-27T18:30:42Z</time>
  <course>324.22</course>
  <speed>0.0</speed>
  <fix>3d</fix>
</trkpt>
<trkpt lat="40.0728168" lon="-105.2306208">
  <ele>1596.5</ele>
  <time>2026-08-27T18:30:42Z</time>
  <course>347.4</course>
  <speed>0.022360679774997897</speed>
  <fix>3d</fix>
</trkpt>
<trkpt lat="40.0728167" lon="-105.2306206">
  <ele>1596.4</ele>
  <time>2026-08-27T18:30:42Z</time>
  <course>325.17</course>
  <speed>0.0</speed>
  <fix>3d</fix>
</trkpt>
<trkpt lat="40.0728168" lon="-105.2306208">
  <ele>1596.5</ele>
  <time>2026-08-27T18:30:42Z</time>
  <course>347.4</course>
  <speed>0.022360679774997897</speed>
  <fix>3d</fix>
</trkpt>
<trkpt lat="40.0728167" lon="-105.2306206">
  <ele>1596.4</ele>
  <time>2026-08-27T18:30:42Z</time>
  <course>325.98</course>
  <speed>0.0</speed>
  <fix>3d</fix>
</trkpt>
<trkpt lat="40.0728168" lon="-105.2306208">
  <ele>1596.5</ele>
  <time>2026-08-27T18:30:42Z</time>
  <course>347.38</course>
  <speed>0.022360679774997897</speed>
  <fix>3d</fix>
</trkpt>
<trkpt lat="40.0728167" lon="-105.2306206">
  <ele>1596.4</ele>
  <time>2026-08-27T18:30:42Z</time>
  <course>324.57</course>
  <speed>0.0</speed>
  <fix>3d</fix>
</trkpt>
<trkpt lat="40.0728168" lon="-105.2306208">
  <ele>1596.5</ele>
  <time>2026-08-27T18:30:42Z</time>
  <course>347.36</course>
  <speed>0.022360679774997897</speed>
  <fix>3d</fix>
</trkpt>
<trkpt lat="40.0728167" lon="-105.2306206">
  <ele>1596.4</ele>
  <time>2026-08-27T18:30:42Z</time>
  <course>320.01</course>
  <speed>0.0</speed>
  <fix>3d</fix>
</trkpt>
<trkpt lat="40.0728168" lon="-105.2306208">
  <ele>1596.5</ele>
  <time>2026-08-27T18:30:42Z</time>
  <course>347.35</course>
  <speed>0.022360679774997897</speed>
  <fix>3d</fix>
</trkpt>
<trkpt lat="40.0728167" lon="-105.2306206">
  <ele>1596.4</ele>
  <time>2026-08-27T18:30:42Z</time>
  <course>312.58</course>
  <speed>0.0</speed>
  <fix>3d</fix>
</trkpt>
<trkpt lat="40.0728168" lon="-105.2306208">
  <ele>1596.49</ele>
  <time>2026-08-27T18:30:42Z</time>
  <course>347.33</course>
  <speed>0.022360679774997897</speed>
  <fix>3d</fix>
</trkpt>
<trkpt lat="40.0728167" lon="-105.2306206">
  <ele>1596.4</ele>
  <time>2026-08-27T18:30:42Z</time>
  <course>303.65</course>
  <speed>0.0</speed>
  <fix>3d</fix>
</trkpt>
<trkpt lat="40.0728168" lon="-105.2306208">
  <ele>1596.49</ele>
  <time>2026-08-27T18:30:42Z</time>
  <course>347.31</course>
  <speed>0.022360679774997897</speed>
  <fix>3d</fix>
</trkpt>
<trkpt lat="40.0728167" lon="-105.2306206">
  <ele>1596.4</ele>
  <time>2026-08-27T18:30:42Z</time>
  <course>296.0</course>
  <speed>0.0</speed>
  <fix>3d</fix>
</trkpt>
<trkpt lat="40.0728168" lon="-105.2306208">
  <ele>1596.5</ele>
  <time>2026-08-27T18:30:42Z</time>
  <course>347.3</course>
  <speed>0.022360679774997897</speed>
  <fix>3d</fix>
</trkpt>
<trkpt lat="40.0728167" lon="-105.2306206">
  <ele>1596.4</ele>
  <time>2026-08-27T18:30:42Z</time>
  <course>291.18</course>
  <speed>0.0</speed>
  <fix>3d</fix>
</trkpt>
<trkpt lat="40.0728168" lon="-105.2306208">
  <ele>1596.5</ele>
  <time>2026-08-27T18:30:42Z</time>
  <course>347.29</course>
  <speed>0.022360679774997897</speed>
  <fix>3d</fix>
</trkpt>
<trkpt lat="40.0728167" lon="-105.2306206">
  <ele>1596.41</ele>
  <time>2026-08-27T18:30:42Z</time>
  <course>290.19</course>
  <speed>0.0</speed>
  <fix>3d</fix>
</trkpt>
<trkpt lat="40.0728168" lon="-105.2306208">
  <ele>1596.51</ele>
  <time>2026-08-27T18:30:42Z</time>
  <course>347.29</course>
  <speed>0.022360679774997897</speed>
  <fix>3d</fix>
</trkpt>
<trkpt lat="40.0728167" lon="-105.2306207">
  <ele>1596.41</ele>
  <time>2026-08-27T18:30:42Z</time>
  <course>290.72</course>
  <speed>0.0</speed>
  <fix>3d</fix>
</trkpt>
<trkpt lat="40.0728168" lon="-105.2306208">
  <ele>1596.51</ele>
  <time>2026-08-27T18:30:42Z</time>
  <course>347.3</course>
  <speed>0.022360679774997897</speed>
  <fix>3d</fix>
</trkpt>
<trkpt lat="40.0728167" lon="-105.2306208">
  <ele>1596.41</ele>
  <time>2026-08-27T18:30:42Z</time>
  <course>290.7</course>
  <speed>0.0</speed>
  <fix>3d</fix>
</trkpt>
<trkpt lat="40.0728168" lon="-105.2306209">
  <ele>1596.51</ele>
  <time>2026-08-27T18:30:42Z</time>
  <course>347.3</course>
  <speed>0.022360679774997897</speed>
  <fix>3d</fix>
</trkpt>
<trkpt lat="40.0728167" lon="-105.2306208">
  <ele>1596.42</ele>
  <time>2026-08-27T18:30:42Z</time>
  <course>291.21</course>
  <speed>0.0</speed>
  <fix>3d</fix>
</trkpt>
<trkpt lat="40.0728168" lon="-105.2306209">
  <ele>1596.51</ele>
  <time>2026-08-27T18:30:42Z</time>
  <course>347.3</course>
  <speed>0.022360679774997897</speed>
  <fix>3d</fix>
</trkpt>
<trkpt lat="40.0728167" lon="-105.2306208">
  <ele>1596.42</ele>
  <time>2026-08-27T18:30:42Z</time>
  <course>292.54</course>
  <speed>0.0</speed>
  <fix>3d</fix>
</trkpt>
<trkpt lat="40.0728168" lon="-105.2306209">
  <ele>1596.51</ele>
  <time>2026-08-27T18:30:42Z</time>
  <course>347.3</course>
  <speed>0.022360679774997897</speed>
  <fix>3d</fix>
</trkpt>
<trkpt lat="40.0728168" lon="-105.2306208">
  <ele>1596.42</ele>
  <time>2026-08-27T18:30:42Z</time>
  <course>294.06</course>
  <speed>0.0</speed>
  <fix>3d</fix>
</trkpt>
<trkpt lat="40.0728168" lon="-105.2306209">
  <ele>1596.51</ele>
  <time>2026-08-27T18:30:42Z</time>
  <course>347.3</course>
  <speed>0.022360679774997897</speed>
  <fix>3d</fix>
</trkpt>
<trkpt lat="40.0728168" lon="-105.2306208">
  <ele>1596.42</ele>
  <time>2026-08-27T18:30:42Z</time>
  <course>296.5</course>
  <speed>0.0</speed>
  <fix>3d</fix>
</trkpt>
<trkpt lat="40.0728168" lon="-105.2306209">
  <ele>1596.51</ele>
  <time>2026-08-27T18:30:42Z</time>
  <course>347.3</course>
  <speed>0.022360679774997897</speed>
  <fix>3d</fix>
</trkpt>
<trkpt lat="40.0728168" lon="-105.2306208">
  <ele>1596.42</ele>
  <time>2026-08-27T18:30:42Z</time>
  <course>298.68</course>
  <speed>0.0</speed>
  <fix>3d</fix>
</trkpt>
<trkpt lat="40.0728168" lon="-105.2306209">
  <ele>1596.51</ele>
  <time>2026-08-27T18:30:42Z</time>
  <course>347.3</course>
  <speed>0.022360679774997897</speed>
  <fix>3d</fix>
</trkpt>
<trkpt lat="40.0728168" lon="-105.2306208">
  <ele>1596.42</ele>
  <time>2026-08-27T18:30:42Z</time>
  <course>300.78</course>
  <speed>0.0</speed>
  <fix>3d</fix>
</trkpt>
<trkpt lat="40.0728168" lon="-105.2306209">
  <ele>1596.51</ele>
  <time>2026-08-27T18:30:42Z</time>
  <course>347.31</course>
  <speed>0.022360679774997897</speed>
  <fix>3d</fix>
</trkpt>
<trkpt lat="40.0728168" lon="-105.2306208">
  <ele>1596.42</ele>
  <time>2026-08-27T18:30:42Z</time>
  <course>71.98</course>
  <speed>0.0</speed>
  <fix>3d</fix>
</trkpt>
<trkpt lat="40.0728168" lon="-105.2306209">
  <ele>1596.51</ele>
  <time>2026-08-27T18:30:42Z</time>
  <course>347.31</course>
  <speed>0.01414213562373095</speed>
  <fix>3d</fix>
</trkpt>
<trkpt lat="40.0728168" lon="-105.2306208">
  <ele>1596.42</ele>
  <time>2026-08-27T18:30:42Z</time>
  <course>85.63</course>
  <speed>0.0</speed>
  <fix>3d</fix>
</trkpt>
<trkpt lat="40.0728168" lon="-105.2306209">
  <ele>1596.51</ele>
  <time>2026-08-27T18:30:42Z</time>
  <course>347.32</course>
  <speed>0.01414213562373095</speed>
  <fix>3d</fix>
</trkpt>
<trkpt lat="40.0728168" lon="-105.2306208">
  <ele>1596.42</ele>
  <time>2026-08-27T18:30:42Z</time>
  <course>87.81</course>
  <speed>0.0</speed>
  <fix>3d</fix>
</trkpt>
<trkpt lat="40.0728168" lon="-105.2306209">
  <ele>1596.51</ele>
  <time>2026-08-27T18:30:42Z</time>
  <course>347.33</course>
  <speed>0.01414213562373095</speed>
  <fix>3d</fix>
</trkpt>
<trkpt lat="40.0728168" lon="-105.2306208">
  <ele>1596.42</ele>
  <time>2026-08-27T18:30:42Z</time>
  <course>92.07</course>
  <speed>0.0</speed>
  <fix>3d</fix>
</trkpt>
<trkpt lat="40.0728168" lon="-105.2306209">
  <ele>1596.51</ele>
  <time>2026-08-27T18:30:42Z</time>
  <course>347.33</course>
  <speed>0.01414213562373095</speed>
  <fix>3d</fix>
</trkpt>
<trkpt lat="40.0728168" lon="-105.2306208">
  <ele>1596.42</ele>
  <time>2026-08-27T18:30:42Z</time>
  <course>97.05</course>
  <speed>0.0</speed>
  <fix>3d</fix>
</trkpt>
<trkpt lat="40.0728168" lon="-105.2306209">
  <ele>1596.51</ele>
  <time>2026-08-27T18:30:42Z</time>
  <course>347.32</course>
  <speed>0.01414213562373095</speed>
  <fix>3d</fix>
</trkpt>
<trkpt lat="40.0728168" lon="-105.2306208">
  <ele>1596.42</ele>
  <time>2026-08-27T18:30:42Z</time>
  <course>100.56</course>
  <speed>0.0</speed>
  <fix>3d</fix>
</trkpt>
<trkpt lat="40.0728168" lon="-105.2306209">
  <ele>1596.5</ele>
  <time>2026-08-27T18:30:42Z</time>
  <course>347.32</course>
  <speed>0.01414213562373095</speed>
  <fix>3d</fix>
</trkpt>
<trkpt lat="40.0728168" lon="-105.2306208">
  <ele>1596.42</ele>
  <time>2026-08-27T18:30:42Z</time>
  <course>103.18</course>
  <speed>0.0</speed>
  <fix>3d</fix>
</trkpt>
<trkpt lat="40.0728168" lon="-105.2306209">
  <ele>1596.5</ele>
  <time>2026-08-27T18:30:42Z</time>
  <course>347.31</course>
  <speed>0.01414213562373095</speed>
  <fix>3d</fix>
</trkpt>
<trkpt lat="40.0728168" lon="-105.2306208">
  <ele>1596.42</ele>
  <time>2026-08-27T18:30:42Z</time>
  <course>104.9</course>
  <speed>0.0</speed>
  <fix>3d</fix>
</trkpt>
<trkpt lat="40.0728168" lon="-105.2306209">
  <ele>1596.5</ele>
  <time>2026-08-27T18:30:42Z</time>
  <course>347.3</course>
  <speed>0.01414213562373095</speed>
  <fix>3d</fix>
</trkpt>
<trkpt lat="40.0728168" lon="-105.2306208">
  <ele>1596.43</ele>
  <time>2026-08-27T18:30:42Z</time>
  <course>105.88</course>
  <speed>0.01</speed>
  <fix>3d</fix>
</trkpt>
<trkpt lat="40.0728168" lon="-105.2306209">
  <ele>1596.49</ele>
  <time>2026-08-27T18:30:42Z</time>
  <course>347.29</course>
  <speed>0.01414213562373095</speed>
  <fix>3d</fix>
</trkpt>
<trkpt lat="40.0728168" lon="-105.2306207">
  <ele>1596.43</ele>
  <time>2026-08-27T18:30:42Z</time>
  <course>107.0</course>
  <speed>0.0</speed>
  <fix>3d</fix>
</trkpt>
<trkpt lat="40.0728168" lon="-105.2306209">
  <ele>1596.49</ele>
  <time>2026-08-27T18:30:42Z</time>
  <course>347.27</course>
  <speed>0.01414213562373095</speed>
  <fix>3d</fix>
</trkpt>
<trkpt lat="40.0728168" lon="-105.2306206">
  <ele>1596.43</ele>
  <time>2026-08-27T18:30:42Z</time>
  <course>109.18</course>
  <speed>0.0</speed>
  <fix>3d</fix>
</trkpt>
<trkpt lat="40.0728168" lon="-105.2306209">
  <ele>1596.49</ele>
  <time>2026-08-27T18:30:42Z</time>
  <course>347.25</course>
  <speed>0.01</speed>
  <fix>3d</fix>
</trkpt>
<trkpt lat="40.0728168" lon="-105.2306206">
  <ele>1596.43</ele>
  <time>2026-08-27T18:30:42Z</time>
  <course>113.09</course>
  <speed>0.0</speed>
  <fix>3d</fix>
</trkpt>
<trkpt lat="40.0728168" lon="-105.2306209">
  <ele>1596.5</ele>
  <time>2026-08-27T18:30:42Z</time>
  <course>347.23</course>
  <speed>0.01</speed>
  <fix>3d</fix>
</trkpt>
<trkpt lat="40.0728168" lon="-105.2306206">
  <ele>1596.44</ele>
  <time>2026-08-27T18:30:42Z</time>
  <course>118.48</course>
  <speed>0.0</speed>
  <fix>3d</fix>
</trkpt>
<trkpt lat="40.0728168" lon="-105.2306209">
  <ele>1596.5</ele>
  <time>2026-08-27T18:30:42Z</time>
  <course>347.23</course>
  <speed>0.01</speed>
  <fix>3d</fix>
</trkpt>
<trkpt lat="40.0728168" lon="-105.2306206">
  <ele>1596.44</ele>
  <time>2026-08-27T18:30:42Z</time>
  <course>125.35</course>
  <speed>0.0</speed>
  <fix>3d</fix>
</trkpt>
<trkpt lat="40.0728168" lon="-105.2306209">
  <ele>1596.51</ele>
  <time>2026-08-27T18:30:42Z</time>
  <course>347.25</course>
  <speed>0.02</speed>
  <fix>3d</fix>
</trkpt>
<trkpt lat="40.0728168" lon="-105.2306206">
  <ele>1596.44</ele>
  <time>2026-08-27T18:30:42Z</time>
  <course>135.01</course>
  <speed>0.0</speed>
  <fix>3d</fix>
</trkpt>
<trkpt lat="40.0728168" lon="-105.2306209">
  <ele>1596.51</ele>
  <time>2026-08-27T18:30:42Z</time>
  <course>347.27</course>
  <speed>0.02</speed>
  <fix>3d</fix>
</trkpt>
<trkpt lat="40.0728168" lon="-105.2306206">
  <ele>1596.45</ele>
  <time>2026-08-27T18:30:42Z</time>
  <course>147.18</course>
  <speed>0.0</speed>
  <fix>3d</fix>
</trkpt>
<trkpt lat="40.0728168" lon="-105.2306208">
  <ele>1596.51</ele>
  <time>2026-08-27T18:30:42Z</time>
  <course>347.28</course>
  <speed>0.02</speed>
  <fix>3d</fix>
</trkpt>
<trkpt lat="40.0728168" lon="-105.2306206">
  <ele>1596.45</ele>
  <time>2026-08-27T18:30:42Z</time>
  <course>159.54</course>
  <speed>0.0</speed>
  <fix>3d</fix>
</trkpt>
<trkpt lat="40.0728168" lon="-105.2306208">
  <ele>1596.52</ele>
  <time>2026-08-27T18:30:42Z</time>
  <course>347.29</course>
  <speed>0.02</speed>
  <fix>3d</fix>
</trkpt>
<trkpt lat="40.0728168" lon="-105.2306206">
  <ele>1596.45</ele>
  <time>2026-08-27T18:30:42Z</time>
  <course>171.06</course>
  <speed>0.0</speed>
  <fix>3d</fix>
</trkpt>
<trkpt lat="40.0728168" lon="-105.2306208">
  <ele>1596.52</ele>
  <time>2026-08-27T18:30:42Z</time>
  <course>347.3</course>
  <speed>0.022360679774997897</speed>
  <fix>3d</fix>
</trkpt>
<trkpt lat="40.0728168" lon="-105.2306206">
  <ele>1596.45</ele>
  <time>2026-08-27T18:30:42Z</time>
  <course>182.79</course>
  <speed>0.0</speed>
  <fix>3d</fix>
</trkpt>
<trkpt lat="40.0728168" lon="-105.2306208">
  <ele>1596.53</ele>
  <time>2026-08-27T18:30:42Z</time>
  <course>347.33</course>
  <speed>0.022360679774997897</speed>
  <fix>3d</fix>
</trkpt>
<trkpt lat="40.0728168" lon="-105.2306206">
  <ele>1596.45</ele>
  <time>2026-08-27T18:30:42Z</time>
  <course>194.16</course>
  <speed>0.0</speed>
  <fix>3d</fix>
</trkpt>
<trkpt lat="40.0728168" lon="-105.2306208">
  <ele>1596.53</ele>
  <time>2026-08-27T18:30:42Z</time>
  <course>347.36</course>
  <speed>0.022360679774997897</speed>
  <fix>3d</fix>
</trkpt>
<trkpt lat="40.0728167" lon="-105.2306206">
  <ele>1596.45</ele>
  <time>2026-08-27T18:30:42Z</time>
  <course>201.04</course>
  <speed>0.0</speed>
  <fix>3d</fix>
</trkpt>
<trkpt lat="40.0728168" lon="-105.2306208">
  <ele>1596.52</ele>
  <time>2026-08-27T18:30:42Z</time>
  <course>347.38</course>
  <speed>0.022360679774997897</speed>
  <fix>3d</fix>
</trkpt>
<trkpt lat="40.0728167" lon="-105.2306206">
  <ele>1596.45</ele>
  <time>2026-08-27T18:30:42Z</time>
  <course>202.45</course>
  <speed>0.0</speed>
  <fix>3d</fix>
</trkpt>
<trkpt lat="40.0728168" lon="-105.2306208">
  <ele>1596.52</ele>
  <time>2026-08-27T18:30:42Z</time>
  <course>347.39</course>
  <speed>0.022360679774997897</speed>
  <fix>3d</fix>
</trkpt>
<trkpt lat="40.0728167" lon="-105.2306206">
  <ele>1596.45</ele>
  <time>2026-08-27T18:30:42Z</time>
  <course>202.15</course>
  <speed>0.0</speed>
  <fix>3d</fix>
</trkpt>
<trkpt lat="40.0728168" lon="-105.2306208">
  <ele>1596.52</ele>
  <time>2026-08-27T18:30:42Z</time>
  <course>347.4</course>
  <speed>0.022360679774997897</speed>
  <fix>3d</fix>
</trkpt>
<trkpt lat="40.0728167" lon="-105.2306206">
  <ele>1596.45</ele>
  <time>2026-08-27T18:30:42Z</time>
  <course>205.91</course>
  <speed>0.0</speed>
  <fix>3d</fix>
</trkpt>
<trkpt lat="40.0728168" lon="-105.2306208">
  <ele>1596.52</ele>
  <time>2026-08-27T18:30:42Z</time>
  <course>347.39</course>
  <speed>0.022360679774997897</speed>
  <fix>3d</fix>
</trkpt>
<trkpt lat="40.0728167" lon="-105.2306206">
  <ele>1596.44</ele>
  <time>2026-08-27T18:30:42Z</time>
  <course>218.33</course>
  <speed>0.0</speed>
  <fix>3d</fix>
</trkpt>
<trkpt lat="40.0728168" lon="-105.2306208">
  <ele>1596.52</ele>
  <time>2026-08-27T18:30:42Z</time>
  <course>347.38</course>
  <speed>0.022360679774997897</speed>
  <fix>3d</fix>
</trkpt>
<trkpt lat="40.0728167" lon="-105.2306206">
  <ele>1596.44</ele>
  <time>2026-08-27T18:30:42Z</time>
  <course>238.77</course>
  <speed>0.0</speed>
  <fix>3d</fix>
</trkpt>
<trkpt lat="40.0728168" lon="-105.2306208">
  <ele>1596.52</ele>
  <time>2026-08-27T18:30:42Z</time>
  <course>347.37</course>
  <speed>0.022360679774997897</speed>
  <fix>3d</fix>
</trkpt>
<trkpt lat="40.0728167" lon="-105.2306206">
  <ele>1596.44</ele>
  <time>2026-08-27T18:30:42Z</time>
  <course>258.68</course>
  <speed>0.0</speed>
  <fix>3d</fix>
</trkpt>
<trkpt lat="40.0728168" lon="-105.2306208">
  <ele>1596.52</ele>
  <time>2026-08-27T18:30:42Z</time>
  <course>347.38</course>
  <speed>0.022360679774997897</speed>
  <fix>3d</fix>
</trkpt>
<trkpt lat="40.0728167" lon="-105.2306206">
  <ele>1596.44</ele>
  <time>2026-08-27T18:30:42Z</time>
  <course>274.51</course>
  <speed>0.0</speed>
  <fix>3d</fix>
</trkpt>
<trkpt lat="40.0728168" lon="-105.2306208">
  <ele>1596.52</ele>
  <time>2026-08-27T18:30:42Z</time>
  <course>347.4</course>
  <speed>0.022360679774997897</speed>
  <fix>3d</fix>
</trkpt>
<trkpt lat="40.0728167" lon="-105.2306206">
  <ele>1596.44</ele>
  <time>2026-08-27T18:30:42Z</time>
  <course>287.19</course>
  <speed>0.0</speed>
  <fix>3d</fix>
</trkpt>
<trkpt lat="40.0728168" lon="-105.2306208">
  <ele>1596.52</ele>
  <time>2026-08-27T18:30:42Z</time>
  <course>347.41</course>
  <speed>0.022360679774997897</speed>
  <fix>3d</fix>
</trkpt>
<trkpt lat="40.0728167" lon="-105.2306206">
  <ele>1596.43</ele>
  <time>2026-08-27T18:30:42Z</time>
  <course>297.38</course>
  <speed>0.0</speed>
  <fix>3d</fix>
</trkpt>
<trkpt lat="40.0728168" lon="-105.2306208">
  <ele>1596.53</ele>
  <time>2026-08-27T18:30:43Z</time>
  <course>347.42</course>
  <speed>0.022360679774997897</speed>
  <fix>3d</fix>
</trkpt>
<trkpt lat="40.0728167" lon="-105.2306206">
  <ele>1596.43</ele>
  <time>2026-08-27T18:30:43Z</time>
  <course>303.87</course>
  <speed>0.0</speed>
  <fix>3d</fix>
</trkpt>
<trkpt lat="40.0728168" lon="-105.2306208">
  <ele>1596.52</ele>
  <time>2026-08-27T18:30:43Z</time>
  <course>347.43</course>
  <speed>0.022360679774997897</speed>
  <fix>3d</fix>
</trkpt>
<trkpt lat="40.0728167" lon="-105.2306206">
  <ele>1596.43</ele>
  <time>2026-08-27T18:30:43Z</time>
  <course>307.25</course>
  <speed>0.0</speed>
  <fix>3d</fix>
</trkpt>
<trkpt lat="40.0728168" lon="-105.2306208">
  <ele>1596.52</ele>
  <time>2026-08-27T18:30:43Z</time>
  <course>347.44</course>
  <speed>0.022360679774997897</speed>
  <fix>3d</fix>
</trkpt>
<trkpt lat="40.0728167" lon="-105.2306206">
  <ele>1596.42</ele>
  <time>2026-08-27T18:30:43Z</time>
  <course>310.09</course>
  <speed>0.0</speed>
  <fix>3d</fix>
</trkpt>
<trkpt lat="40.0728168" lon="-105.2306208">
  <ele>1596.52</ele>
  <time>2026-08-27T18:30:43Z</time>
  <course>347.44</course>
  <speed>0.022360679774997897</speed>
  <fix>3d</fix>
</trkpt>
<trkpt lat="40.0728167" lon="-105.2306206">
  <ele>1596.42</ele>
  <time>2026-08-27T18:30:43Z</time>
  <course>313.52</course>
  <speed>0.0</speed>
  <fix>3d</fix>
</trkpt>
<trkpt lat="40.0728168" lon="-105.2306208">
  <ele>1596.52</ele>
  <time>2026-08-27T18:30:43Z</time>
  <course>347.44</course>
  <speed>0.022360679774997897</speed>
  <fix>3d</fix>
</trkpt>
<trkpt lat="40.0728167" lon="-105.2306206">
  <ele>1596.42</ele>
  <time>2026-08-27T18:30:43Z</time>
  <course>318.7</course>
  <speed>0.0</speed>
  <fix>3d</fix>
</trkpt>
<trkpt lat="40.0728168" lon="-105.2306208">
  <ele>1596.51</ele>
  <time>2026-08-27T18:30:43Z</time>
  <course>347.41</course>
  <speed>0.022360679774997897</speed>
  <fix>3d</fix>
</trkpt>
<trkpt lat="40.0728167" lon="-105.2306206">
  <ele>1596.42</ele>
  <time>2026-08-27T18:30:43Z</time>
  <course>324.3</course>
  <speed>0.0</speed>
  <fix>3d</fix>
</trkpt>
<trkpt lat="40.0728168" lon="-105.2306208">
  <ele>1596.51</ele>
  <time>2026-08-27T18:30:43Z</time>
  <course>347.4</course>
  <speed>0.022360679774997897</speed>
  <fix>3d</fix>
</trkpt>
<trkpt lat="40.0728167" lon="-105.2306206">
  <ele>1596.41</ele>
  <time>2026-08-27T18:30:43Z</time>
  <course>327.29</course>
  <speed>0.0</speed>
  <fix>3d</fix>
</trkpt>
<trkpt lat="40.0728168" lon="-105.2306208">
  <ele>1596.51</ele>
  <time>2026-08-27T18:30:43Z</time>
  <course>347.39</course>
  <speed>0.022360679774997897</speed>
  <fix>3d</fix>
</trkpt>
<trkpt lat="40.0728167" lon="-105.2306206">
  <ele>1596.41</ele>
  <time>2026-08-27T18:30:43Z</time>
  <course>324.25</course>
  <speed>0.0</speed>
  <fix>3d</fix>
</trkpt>
<trkpt lat="40.0728168" lon="-105.2306208">
  <ele>1596.51</ele>
  <time>2026-08-27T18:30:43Z</time>
  <course>347.38</course>
  <speed>0.022360679774997897</speed>
  <fix>3d</fix>
</trkpt>
<trkpt lat="40.0728167" lon="-105.2306206">
  <ele>1596.41</ele>
  <time>2026-08-27T18:30:43Z</time>
  <course>318.72</course>
  <speed>0.0</speed>
  <fix>3d</fix>
</trkpt>
<trkpt lat="40.0728168" lon="-105.2306208">
  <ele>1596.51</ele>
  <time>2026-08-27T18:30:43Z</time>
  <course>347.37</course>
  <speed>0.022360679774997897</speed>
  <fix>3d</fix>
</trkpt>
<trkpt lat="40.0728167" lon="-105.2306206">
  <ele>1596.41</ele>
  <time>2026-08-27T18:30:43Z</time>
  <course>313.52</course>
  <speed>0.0</speed>
  <fix>3d</fix>
</trkpt>
<trkpt lat="40.0728168" lon="-105.2306208">
  <ele>1596.5</ele>
  <time>2026-08-27T18:30:43Z</time>
  <course>347.36</course>
  <speed>0.022360679774997897</speed>
  <fix>3d</fix>
</trkpt>
<trkpt lat="40.0728167" lon="-105.2306206">
  <ele>1596.41</ele>
  <time>2026-08-27T18:30:43Z</time>
  <course>307.95</course>
  <speed>0.0</speed>
  <fix>3d</fix>
</trkpt>
<trkpt lat="40.0728168" lon="-105.2306208">
  <ele>1596.5</ele>
  <time>2026-08-27T18:30:43Z</time>
  <course>347.35</course>
  <speed>0.022360679774997897</speed>
  <fix>3d</fix>
</trkpt>
<trkpt lat="40.0728167" lon="-105.2306206">
  <ele>1596.41</ele>
  <time>2026-08-27T18:30:43Z</time>
  <course>302.47</course>
  <speed>0.0</speed>
  <fix>3d</fix>
</trkpt>
<trkpt lat="40.0728168" lon="-105.2306208">
  <ele>1596.49</ele>
  <time>2026-08-27T18:30:43Z</time>
  <course>347.34</course>
  <speed>0.022360679774997897</speed>
  <fix>3d</fix>
</trkpt>
<trkpt lat="40.0728167" lon="-105.2306206">
  <ele>1596.41</ele>
  <time>2026-08-27T18:30:43Z</time>
  <course>298.5</course>
  <speed>0.0</speed>
  <fix>3d</fix>
</trkpt>
<trkpt lat="40.0728168" lon="-105.2306208">
  <ele>1596.49</ele>
  <time>2026-08-27T18:30:43Z</time>
  <course>347.3</course>
  <speed>0.022360679774997897</speed>
  <fix>3d</fix>
</trkpt>
<trkpt lat="40.0728167" lon="-105.2306206">
  <ele>1596.41</ele>
  <time>2026-08-27T18:30:43Z</time>
  <course>298.84</course>
  <speed>0.0</speed>
  <fix>3d</fix>
</trkpt>
<trkpt lat="40.0728168" lon="-105.2306208">
  <ele>1596.49</ele>
  <time>2026-08-27T18:30:43Z</time>
  <course>347.28</course>
  <speed>0.022360679774997897</speed>
  <fix>3d</fix>
</trkpt>
<trkpt lat="40.0728167" lon="-105.2306206">
  <ele>1596.41</ele>
  <time>2026-08-27T18:30:43Z</time>
  <course>303.35</course>
  <speed>0.0</speed>
  <fix>3d</fix>
</trkpt>
<trkpt lat="40.0728168" lon="-105.2306208">
  <ele>1596.5</ele>
  <time>2026-08-27T18:30:43Z</time>
  <course>347.26</course>
  <speed>0.022360679774997897</speed>
  <fix>3d</fix>
</trkpt>
<trkpt lat="40.0728167" lon="-105.2306206">
  <ele>1596.41</ele>
  <time>2026-08-27T18:30:43Z</time>
  <course>307.95</course>
  <speed>0.0</speed>
  <fix>3d</fix>
</trkpt>
<trkpt lat="40.0728168" lon="-105.2306208">
  <ele>1596.5</ele>
  <time>2026-08-27T18:30:43Z</time>
  <course>347.25</course>
  <speed>0.022360679774997897</speed>
  <fix>3d</fix>
</trkpt>
<trkpt lat="40.0728167" lon="-105.2306206">
  <ele>1596.42</ele>
  <time>2026-08-27T18:30:43Z</time>
  <course>312.39</course>
  <speed>0.0</speed>
  <fix>3d</fix>
</trkpt>
<trkpt lat="40.0728168" lon="-105.2306208">
  <ele>1596.5</ele>
  <time>2026-08-27T18:30:43Z</time>
  <course>347.25</course>
  <speed>0.022360679774997897</speed>
  <fix>3d</fix>
</trkpt>
<trkpt lat="40.0728167" lon="-105.2306206">
  <ele>1596.42</ele>
  <time>2026-08-27T18:30:43Z</time>
  <course>315.57</course>
  <speed>0.0</speed>
  <fix>3d</fix>
</trkpt>
<trkpt lat="40.0728168" lon="-105.2306208">
  <ele>1596.5</ele>
  <time>2026-08-27T18:30:43Z</time>
  <course>347.25</course>
  <speed>0.022360679774997897</speed>
  <fix>3d</fix>
</trkpt>
<trkpt lat="40.0728167" lon="-105.2306206">
  <ele>1596.42</ele>
  <time>2026-08-27T18:30:43Z</time>
  <course>313.91</course>
  <speed>0.0</speed>
  <fix>3d</fix>
</trkpt>
<trkpt lat="40.0728168" lon="-105.2306208">
  <ele>1596.5</ele>
  <time>2026-08-27T18:30:43Z</time>
  <course>347.24</course>
  <speed>0.022360679774997897</speed>
  <fix>3d</fix>
</trkpt>
<trkpt lat="40.0728167" lon="-105.2306207">
  <ele>1596.42</ele>
  <time>2026-08-27T18:30:43Z</time>
  <course>310.72</course>
  <speed>0.0</speed>
  <fix>3d</fix>
</trkpt>
<trkpt lat="40.0728168" lon="-105.2306208">
  <ele>1596.5</ele>
  <time>2026-08-27T18:30:43Z</time>
  <course>347.24</course>
  <speed>0.022360679774997897</speed>
  <fix>3d</fix>
</trkpt>
<trkpt lat="40.0728167" lon="-105.2306208">
  <ele>1596.43</ele>
  <time>2026-08-27T18:30:43Z</time>
  <course>312.69</course>
  <speed>0.0</speed>
  <fix>3d</fix>
</trkpt>
<trkpt lat="40.0728168" lon="-105.2306209">
  <ele>1596.5</ele>
  <time>2026-08-27T18:30:43Z</time>
  <course>347.24</course>
  <speed>0.022360679774997897</speed>
  <fix>3d</fix>
</trkpt>
<trkpt lat="40.0728167" lon="-105.2306208">
  <ele>1596.43</ele>
  <time>2026-08-27T18:30:43Z</time>
  <course>315.8</course>
  <speed>0.0</speed>
  <fix>3d</fix>
</trkpt>
<trkpt lat="40.0728168" lon="-105.2306209">
  <ele>1596.5</ele>
  <time>2026-08-27T18:30:43Z</time>
  <course>347.24</course>
  <speed>0.022360679774997897</speed>
  <fix>3d</fix>
</trkpt>
<trkpt lat="40.0728167" lon="-105.2306208">
  <ele>1596.43</ele>
  <time>2026-08-27T18:30:43Z</time>
  <course>318.78</course>
  <speed>0.0</speed>
  <fix>3d</fix>
</trkpt>
<trkpt lat="40.0728168" lon="-105.2306209">
  <ele>1596.51</ele>
  <time>2026-08-27T18:30:43Z</time>
  <course>347.25</course>
  <speed>0.022360679774997897</speed>
  <fix>3d</fix>
</trkpt>
<trkpt lat="40.0728168" lon="-105.2306208">
  <ele>1596.43</ele>
  <time>2026-08-27T18:30:43Z</time>
  <course>330.02</course>
  <speed>0.0</speed>
  <fix>3d</fix>
</trkpt>
<trkpt lat="40.0728168" lon="-105.2306209">
  <ele>1596.51</ele>
  <time>2026-08-27T18:30:43Z</time>
  <course>347.27</course>
  <speed>0.022360679774997897</speed>
  <fix>3d</fix>
</trkpt>
<trkpt lat="40.0728168" lon="-105.2306208">
  <ele>1596.44</ele>
  <time>2026-08-27T18:30:43Z</time>
  <course>347.7</course>
  <speed>0.0</speed>
  <fix>3d</fix>
</trkpt>
<trkpt lat="40.0728168" lon="-105.2306209">
  <ele>1596.51</ele>
  <time>2026-08-27T18:30:43Z</time>
  <course>347.29</course>
  <speed>0.022360679774997897</speed>
  <fix>3d</fix>
</trkpt>
<trkpt lat="40.0728168" lon="-105.2306208">
  <ele>1596.44</ele>
  <time>2026-08-27T18:30:43Z</time>
  <course>7.19</course>
  <speed>0.0</speed>
  <fix>3d</fix>
</trkpt>
<trkpt lat="40.0728168" lon="-105.2306209">
  <ele>1596.51</ele>
  <time>2026-08-27T18:30:43Z</time>
  <course>347.3</course>
  <speed>0.022360679774997897</speed>
  <fix>3d</fix>
</trkpt>
<trkpt lat="40.0728168" lon="-105.2306208">
  <ele>1596.44</ele>
  <time>2026-08-27T18:30:43Z</time>
  <course>24.12</course>
  <speed>0.0</speed>
  <fix>3d</fix>
</trkpt>
<trkpt lat="40.0728168" lon="-105.2306209">
  <ele>1596.52</ele>
  <time>2026-08-27T18:30:43Z</time>
  <course>347.32</course>
  <speed>0.01414213562373095</speed>
  <fix>3d</fix>
</trkpt>
<trkpt lat="40.0728168" lon="-105.2306208">
  <ele>1596.44</ele>
  <time>2026-08-27T18:30:43Z</time>
  <course>39.6</course>
  <speed>0.0</speed>
  <fix>3d</fix>
</trkpt>
<trkpt lat="40.0728168" lon="-105.2306209">
  <ele>1596.51</ele>
  <time>2026-08-27T18:30:43Z</time>
  <course>347.33</course>
  <speed>0.01414213562373095</speed>
  <fix>3d</fix>
</trkpt>
<trkpt lat="40.0728168" lon="-105.2306208">
  <ele>1596.44</ele>
  <time>2026-08-27T18:30:43Z</time>
  <course>56.15</course>
  <speed>0.0</speed>
  <fix>3d</fix>
</trkpt>
<trkpt lat="40.0728168" lon="-105.2306209">
  <ele>1596.51</ele>
  <time>2026-08-27T18:30:43Z</time>
  <course>347.33</course>
  <speed>0.01414213562373095</speed>
  <fix>3d</fix>
</trkpt>
<trkpt lat="40.0728168" lon="-105.2306208">
  <ele>1596.44</ele>
  <time>2026-08-27T18:30:43Z</time>
  <course>70.44</course>
  <speed>0.0</speed>
  <fix>3d</fix>
</trkpt>
<trkpt lat="40.0728168" lon="-105.2306209">
  <ele>1596.51</ele>
  <time>2026-08-27T18:30:43Z</time>
  <course>347.34</course>
  <speed>0.01414213562373095</speed>
  <fix>3d</fix>
</trkpt>
<trkpt lat="40.0728168" lon="-105.2306208">
  <ele>1596.44</ele>
  <time>2026-08-27T18:30:43Z</time>
  <course>81.86</course>
  <speed>0.0</speed>
  <fix>3d</fix>
</trkpt>
<trkpt lat="40.0728168" lon="-105.2306209">
  <ele>1596.51</ele>
  <time>2026-08-27T18:30:43Z</time>
  <course>347.34</course>
  <speed>0.01414213562373095</speed>
  <fix>3d</fix>
</trkpt>
<trkpt lat="40.0728168" lon="-105.2306208">
  <ele>1596.44</ele>
  <time>2026-08-27T18:30:43Z</time>
  <course>90.94</course>
  <speed>0.0</speed>
  <fix>3d</fix>
</trkpt>
<trkpt lat="40.0728168" lon="-105.2306209">
  <ele>1596.51</ele>
  <time>2026-08-27T18:30:43Z</time>
  <course>347.34</course>
  <speed>0.01</speed>
  <fix>3d</fix>
</trkpt>
<trkpt lat="40.0728168" lon="-105.2306208">
  <ele>1596.44</ele>
  <time>2026-08-27T18:30:43Z</time>
  <course>98.19</course>
  <speed>0.0</speed>
  <fix>3d</fix>
</trkpt>
<trkpt lat="40.0728168" lon="-105.2306209">
  <ele>1596.51</ele>
  <time>2026-08-27T18:30:43Z</time>
  <course>347.35</course>
  <speed>0.01</speed>
  <fix>3d</fix>
</trkpt>
<trkpt lat="40.0728168" lon="-105.2306208">
  <ele>1596.44</ele>
  <time>2026-08-27T18:30:43Z</time>
  <course>103.99</course>
  <speed>0.0</speed>
  <fix>3d</fix>
</trkpt>
<trkpt lat="40.0728168" lon="-105.2306209">
  <ele>1596.52</ele>
  <time>2026-08-27T18:30:43Z</time>
  <course>347.35</course>
  <speed>0.01</speed>
  <fix>3d</fix>
</trkpt>
<trkpt lat="40.0728168" lon="-105.2306208">
  <ele>1596.44</ele>
  <time>2026-08-27T18:30:43Z</time>
  <course>108.65</course>
  <speed>0.0</speed>
  <fix>3d</fix>
</trkpt>
<trkpt lat="40.0728168" lon="-105.2306209">
  <ele>1596.52</ele>
  <time>2026-08-27T18:30:43Z</time>
  <course>347.35</course>
  <speed>0.01</speed>
  <fix>3d</fix>
</trkpt>
<trkpt lat="40.0728168" lon="-105.2306208">
  <ele>1596.44</ele>
  <time>2026-08-27T18:30:43Z</time>
  <course>111.72</course>
  <speed>0.0</speed>
  <fix>3d</fix>
</trkpt>
<trkpt lat="40.0728168" lon="-105.2306209">
  <ele>1596.52</ele>
  <time>2026-08-27T18:30:43Z</time>
  <course>347.37</course>
  <speed>0.01</speed>
  <fix>3d</fix>
</trkpt>
<trkpt lat="40.0728168" lon="-105.2306207">
  <ele>1596.44</ele>
  <time>2026-08-27T18:30:43Z</time>
  <course>113.63</course>
  <speed>0.0</speed>
  <fix>3d</fix>
</trkpt>
<trkpt lat="40.0728168" lon="-105.2306209">
  <ele>1596.52</ele>
  <time>2026-08-27T18:30:43Z</time>
  <course>347.37</course>
  <speed>0.01</speed>
  <fix>3d</fix>
</trkpt>
<trkpt lat="40.0728168" lon="-105.2306206">
  <ele>1596.44</ele>
  <time>2026-08-27T18:30:43Z</time>
  <course>115.76</course>
  <speed>0.0</speed>
  <fix>3d</fix>
</trkpt>
<trkpt lat="40.0728168" lon="-105.2306209">
  <ele>1596.52</ele>
  <time>2026-08-27T18:30:43Z</time>
  <course>347.37</course>
  <speed>0.01</speed>
  <fix>3d</fix>
</trkpt>
<trkpt lat="40.0728168" lon="-105.2306206">
  <ele>1596.43</ele>
  <time>2026-08-27T18:30:43Z</time>
  <course>117.93</course>
  <speed>0.0</speed>
  <fix>3d</fix>
</trkpt>
<trkpt lat="40.0728168" lon="-105.2306209">
  <ele>1596.52</ele>
  <time>2026-08-27T18:30:43Z</time>
  <course>347.37</course>
  <speed>0.01</speed>
  <fix>3d</fix>
</trkpt>
<trkpt lat="40.0728168" lon="-105.2306206">
  <ele>1596.43</ele>
  <time>2026-08-27T18:30:43Z</time>
  <course>120.3</course>
  <speed>0.0</speed>
  <fix>3d</fix>
</trkpt>
<trkpt lat="40.0728168" lon="-105.2306209">
  <ele>1596.52</ele>
  <time>2026-08-27T18:30:43Z</time>
  <course>347.37</course>
  <speed>0.01</speed>
  <fix>3d</fix>
</trkpt>
<trkpt lat="40.0728168" lon="-105.2306206">
  <ele>1596.43</ele>
  <time>2026-08-27T18:30:43Z</time>
  <course>123.71</course>
  <speed>0.0</speed>
  <fix>3d</fix>
</trkpt>
<trkpt lat="40.0728168" lon="-105.2306209">
  <ele>1596.51</ele>
  <time>2026-08-27T18:30:43Z</time>
  <course>347.37</course>
  <speed>0.01</speed>
  <fix>3d</fix>
</trkpt>
<trkpt lat="40.0728168" lon="-105.2306206">
  <ele>1596.43</ele>
  <time>2026-08-27T18:30:43Z</time>
  <course>128.34</course>
  <speed>0.0</speed>
  <fix>3d</fix>
</trkpt>
<trkpt lat="40.0728168" lon="-105.2306209">
  <ele>1596.51</ele>
  <time>2026-08-27T18:30:43Z</time>
  <course>347.36</course>
  <speed>0.02</speed>
  <fix>3d</fix>
</trkpt>
<trkpt lat="40.0728168" lon="-105.2306206">
  <ele>1596.42</ele>
  <time>2026-08-27T18:30:43Z</time>
  <course>136.2</course>
  <speed>0.0</speed>
  <fix>3d</fix>
</trkpt>
<trkpt lat="40.0728168" lon="-105.2306209">
  <ele>1596.51</ele>
  <time>2026-08-27T18:30:43Z</time>
  <course>347.35</course>
  <speed>0.02</speed>
  <fix>3d</fix>
</trkpt>
<trkpt lat="40.0728168" lon="-105.2306206">
  <ele>1596.42</ele>
  <time>2026-08-27T18:30:43Z</time>
  <course>144.28</course>
  <speed>0.0</speed>
  <fix>3d</fix>
</trkpt>
<trkpt lat="40.0728168" lon="-105.2306209">
  <ele>1596.51</ele>
  <time>2026-08-27T18:30:43Z</time>
  <course>347.34</course>
  <speed>0.02</speed>
  <fix>3d</fix>
</trkpt>
<trkpt lat="40.0728168" lon="-105.2306206">
  <ele>1596.42</ele>
  <time>2026-08-27T18:30:43Z</time>
  <course>150.42</course>
  <speed>0.0</speed>
  <fix>3d</fix>
</trkpt>
<trkpt lat="40.0728168" lon="-105.2306209">
  <ele>1596.51</ele>
  <time>2026-08-27T18:30:43Z</time>
  <course>347.32</course>
  <speed>0.02</speed>
  <fix>3d</fix>
</trkpt>
<trkpt lat="40.0728168" lon="-105.2306206">
  <ele>1596.42</ele>
  <time>2026-08-27T18:30:43Z</time>
  <course>158.0</course>
  <speed>0.0</speed>
  <fix>3d</fix>
</trkpt>
<trkpt lat="40.0728168" lon="-105.2306208">
  <ele>1596.51</ele>
  <time>2026-08-27T18:30:43Z</time>
  <course>347.3</course>
  <speed>0.02</speed>
  <fix>3d</fix>
</trkpt>
<trkpt lat="40.0728168" lon="-105.2306206">
  <ele>1596.42</ele>
  <time>2026-08-27T18:30:43Z</time>
  <course>166.47</course>
  <speed>0.0</speed>
  <fix>3d</fix>
</trkpt>
<trkpt lat="40.0728168" lon="-105.2306208">
  <ele>1596.51</ele>
  <time>2026-08-27T18:30:43Z</time>
  <course>347.3</course>
  <speed>0.02</speed>
  <fix>3d</fix>
</trkpt>
<trkpt lat="40.0728168" lon="-105.2306206">
  <ele>1596.42</ele>
  <time>2026-08-27T18:30:43Z</time>
  <course>176.43</course>
  <speed>0.0</speed>
  <fix>3d</fix>
</trkpt>
<trkpt lat="40.0728168" lon="-105.2306208">
  <ele>1596.52</ele>
  <time>2026-08-27T18:30:43Z</time>
  <course>347.32</course>
  <speed>0.02</speed>
  <fix>3d</fix>
</trkpt>
<trkpt lat="40.0728168" lon="-105.2306206">
  <ele>1596.42</ele>
  <time>2026-08-27T18:30:43Z</time>
  <course>185.15</course>
  <speed>0.0</speed>
  <fix>3d</fix>
</trkpt>
<trkpt lat="40.0728168" lon="-105.2306208">
  <ele>1596.52</ele>
  <time>2026-08-27T18:30:43Z</time>
  <course>347.33</course>
  <speed>0.022360679774997897</speed>
  <fix>3d</fix>
</trkpt>
<trkpt lat="40.0728168" lon="-105.2306206">
  <ele>1596.42</ele>
  <time>2026-08-27T18:30:43Z</time>
  <course>193.7</course>
  <speed>0.0</speed>
  <fix>3d</fix>
</trkpt>
<trkpt lat="40.0728168" lon="-105.2306208">
  <ele>1596.52</ele>
  <time>2026-08-27T18:30:43Z</time>
  <course>347.35</course>
  <speed>0.022360679774997897</speed>
  <fix>3d</fix>
</trkpt>
<trkpt lat="40.0728168" lon="-105.2306206">
  <ele>1596.42</ele>
  <time>2026-08-27T18:30:43Z</time>
  <course>203.11</course>
  <speed>0.0</speed>
  <fix>3d</fix>
</trkpt>
<trkpt lat="40.0728168" lon="-105.2306208">
  <ele>1596.52</ele>
  <time>2026-08-27T18:30:43Z</time>
  <course>347.35</course>
  <speed>0.022360679774997897</speed>
  <fix>3d</fix>
</trkpt>
<trkpt lat="40.0728167" lon="-105.2306206">
  <ele>1596.42</ele>
  <time>2026-08-27T18:30:43Z</time>
  <course>210.73</course>
  <speed>0.0</speed>
  <fix>3d</fix>
</trkpt>
<trkpt lat="40.0728168" lon="-105.2306208">
  <ele>1596.52</ele>
  <time>2026-08-27T18:30:43Z</time>
  <course>347.36</course>
  <speed>0.022360679774997897</speed>
  <fix>3d</fix>
</trkpt>
<trkpt lat="40.0728167" lon="-105.2306206">
  <ele>1596.41</ele>
  <time>2026-08-27T18:30:43Z</time>
  <course>213.35</course>
  <speed>0.0</speed>
  <fix>3d</fix>
</trkpt>
<trkpt lat="40.0728168" lon="-105.2306208">
  <ele>1596.52</ele>
  <time>2026-08-27T18:30:43Z</time>
  <course>347.36</course>
  <speed>0.022360679774997897</speed>
  <fix>3d</fix>
</trkpt>
<trkpt lat="40.0728167" lon="-105.2306206">
  <ele>1596.41</ele>
  <time>2026-08-27T18:30:43Z</time>
  <course>213.56</course>
  <speed>0.0</speed>
  <fix>3d</fix>
</trkpt>
<trkpt lat="40.0728168" lon="-105.2306208">
  <ele>1596.52</ele>
  <time>2026-08-27T18:30:43Z</time>
  <course>347.37</course>
  <speed>0.022360679774997897</speed>
  <fix>3d</fix>
</trkpt>
<trkpt lat="40.0728167" lon="-105.2306206">
  <ele>1596.41</ele>
  <time>2026-08-27T18:30:43Z</time>
  <course>217.37</course>
  <speed>0.0</speed>
  <fix>3d</fix>
</trkpt>
<trkpt lat="40.0728168" lon="-105.2306208">
  <ele>1596.52</ele>
  <time>2026-08-27T18:30:43Z</time>
  <course>347.37</course>
  <speed>0.022360679774997897</speed>
  <fix>3d</fix>
</trkpt>
<trkpt lat="40.0728167" lon="-105.2306206">
  <ele>1596.41</ele>
  <time>2026-08-27T18:30:43Z</time>
  <course>223.63</course>
  <speed>0.0</speed>
  <fix>3d</fix>
</trkpt>
<trkpt lat="40.0728168" lon="-105.2306208">
  <ele>1596.51</ele>
  <time>2026-08-27T18:30:43Z</time>
  <course>347.37</course>
  <speed>0.022360679774997897</speed>
  <fix>3d</fix>
</trkpt>
<trkpt lat="40.0728167" lon="-105.2306206">
  <ele>1596.4</ele>
  <time>2026-08-27T18:30:43Z</time>
  <course>232.54</course>
  <speed>0.0</speed>
  <fix>3d</fix>
</trkpt>
<trkpt lat="40.0728168" lon="-105.2306208">
  <ele>1596.5</ele>
  <time>2026-08-27T18:30:43Z</time>
  <course>347.37</course>
  <speed>0.022360679774997897</speed>
  <fix>3d</fix>
</trkpt>
<trkpt lat="40.0728167" lon="-105.2306206">
  <ele>1596.4</ele>
  <time>2026-08-27T18:30:43Z</time>
  <course>248.3</course>
  <speed>0.0</speed>
  <fix>3d</fix>
</trkpt>
<trkpt lat="40.0728168" lon="-105.2306208">
  <ele>1596.5</ele>
  <time>2026-08-27T18:30:43Z</time>
  <course>347.34</course>
  <speed>0.022360679774997897</speed>
  <fix>3d</fix>
</trkpt>
<trkpt lat="40.0728167" lon="-105.2306206">
  <ele>1596.4</ele>
  <time>2026-08-27T18:30:43Z</time>
  <course>265.33</course>
  <speed>0.0</speed>
  <fix>3d</fix>
</trkpt>
<trkpt lat="40.0728168" lon="-105.2306208">
  <ele>1596.5</ele>
  <time>2026-08-27T18:30:43Z</time>
  <course>347.31</course>
  <speed>0.022360679774997897</speed>
  <fix>3d</fix>
</trkpt>
<trkpt lat="40.0728167" lon="-105.2306206">
  <ele>1596.4</ele>
  <time>2026-08-27T18:30:43Z</time>
  <course>277.63</course>
  <speed>0.0</speed>
  <fix>3d</fix>
</trkpt>
<trkpt lat="40.0728168" lon="-105.2306208">
  <ele>1596.49</ele>
  <time>2026-08-27T18:30:43Z</time>
  <course>347.29</course>
  <speed>0.022360679774997897</speed>
  <fix>3d</fix>
</trkpt>
<trkpt lat="40.0728167" lon="-105.2306206">
  <ele>1596.4</ele>
  <time>2026-08-27T18:30:43Z</time>
  <course>284.75</course>
  <speed>0.0</speed>
  <fix>3d</fix>
</trkpt>
<trkpt lat="40.0728168" lon="-105.2306208">
  <ele>1596.5</ele>
  <time>2026-08-27T18:30:43Z</time>
  <course>347.26</course>
  <speed>0.022360679774997897</speed>
  <fix>3d</fix>
</trkpt>
<trkpt lat="40.0728167" lon="-105.2306206">
  <ele>1596.4</ele>
  <time>2026-08-27T18:30:43Z</time>
  <course>288.14</course>
  <speed>0.0</speed>
  <fix>3d</fix>
</trkpt>
<trkpt lat="40.0728168" lon="-105.2306208">
  <ele>1596.5</ele>
  <time>2026-08-27T18:30:43Z</time>
  <course>347.24</course>
  <speed>0.022360679774997897</speed>
  <fix>3d</fix>
</trkpt>
<trkpt lat="40.0728167" lon="-105.2306206">
  <ele>1596.4</ele>
  <time>2026-08-27T18:30:43Z</time>
  <course>292.78</course>
  <speed>0.0</speed>
  <fix>3d</fix>
</trkpt>
<trkpt lat="40.0728168" lon="-105.2306208">
  <ele>1596.5</ele>
  <time>2026-08-27T18:30:43Z</time>
  <course>347.24</course>
  <speed>0.022360679774997897</speed>
  <fix>3d</fix>
</trkpt>
<trkpt lat="40.0728167" lon="-105.2306206">
  <ele>1596.4</ele>
  <time>2026-08-27T18:30:43Z</time>
  <course>297.27</course>
  <speed>0.0</speed>
  <fix>3d</fix>
</trkpt>
<trkpt lat="40.0728168" lon="-105.2306208">
  <ele>1596.5</ele>
  <time>2026-08-27T18:30:43Z</time>
  <course>347.24</course>
  <speed>0.022360679774997897</speed>
  <fix>3d</fix>
</trkpt>
<trkpt lat="40.0728167" lon="-105.2306206">
  <ele>1596.41</ele>
  <time>2026-08-27T18:30:43Z</time>
  <course>302.16</course>
  <speed>0.0</speed>
  <fix>3d</fix>
</trkpt>
<trkpt lat="40.0728168" lon="-105.2306208">
  <ele>1596.5</ele>
  <time>2026-08-27T18:30:43Z</time>
  <course>347.23</course>
  <speed>0.022360679774997897</speed>
  <fix>3d</fix>
</trkpt>
<trkpt lat="40.0728167" lon="-105.2306206">
  <ele>1596.41</ele>
  <time>2026-08-27T18:30:43Z</time>
  <course>302.88</course>
  <speed>0.0</speed>
  <fix>3d</fix>
</trkpt>
<trkpt lat="40.0728168" lon="-105.2306208">
  <ele>1596.5</ele>
  <time>2026-08-27T18:30:43Z</time>
  <course>347.22</course>
  <speed>0.022360679774997897</speed>
  <fix>3d</fix>
</trkpt>
<trkpt lat="40.0728167" lon="-105.2306206">
  <ele>1596.41</ele>
  <time>2026-08-27T18:30:43Z</time>
  <course>301.41</course>
  <speed>0.0</speed>
  <fix>3d</fix>
</trkpt>
<trkpt lat="40.0728168" lon="-105.2306208">
  <ele>1596.5</ele>
  <time>2026-08-27T18:30:43Z</time>
  <course>347.22</course>
  <speed>0.022360679774997897</speed>
  <fix>3d</fix>
</trkpt>
<trkpt lat="40.0728167" lon="-105.2306206">
  <ele>1596.41</ele>
  <time>2026-08-27T18:30:43Z</time>
  <course>302.55</course>
  <speed>0.0</speed>
  <fix>3d</fix>
</trkpt>
<trkpt lat="40.0728168" lon="-105.2306208">
  <ele>1596.5</ele>
  <time>2026-08-27T18:30:43Z</time>
  <course>347.22</course>
  <speed>0.022360679774997897</speed>
  <fix>3d</fix>
</trkpt>
<trkpt lat="40.0728167" lon="-105.2306206">
  <ele>1596.42</ele>
  <time>2026-08-27T18:30:43Z</time>
  <course>305.03</course>
  <speed>0.0</speed>
  <fix>3d</fix>
</trkpt>
<trkpt lat="40.0728168" lon="-105.2306208">
  <ele>1596.5</ele>
  <time>2026-08-27T18:30:43Z</time>
  <course>347.21</course>
  <speed>0.022360679774997897</speed>
  <fix>3d</fix>
</trkpt>
<trkpt lat="40.0728167" lon="-105.2306206">
  <ele>1596.42</ele>
  <time>2026-08-27T18:30:43Z</time>
  <course>306.11</course>
  <speed>0.0</speed>
  <fix>3d</fix>
</trkpt>
<trkpt lat="40.0728168" lon="-105.2306208">
  <ele>1596.51</ele>
  <time>2026-08-27T18:30:43Z</time>
  <course>347.23</course>
  <speed>0.022360679774997897</speed>
  <fix>3d</fix>
</trkpt>
<trkpt lat="40.0728167" lon="-105.2306206">
  <ele>1596.42</ele>
  <time>2026-08-27T18:30:43Z</time>
  <course>306.54</course>
  <speed>0.0</speed>
  <fix>3d</fix>
</trkpt>
<trkpt lat="40.0728168" lon="-105.2306208">
  <ele>1596.51</ele>
  <time>2026-08-27T18:30:43Z</time>
  <course>347.24</course>
  <speed>0.022360679774997897</speed>
  <fix>3d</fix>
</trkpt>
<trkpt lat="40.0728167" lon="-105.2306206">
  <ele>1596.42</ele>
  <time>2026-08-27T18:30:43Z</time>
  <course>308.94</course>
  <speed>0.0</speed>
  <fix>3d</fix>
</trkpt>
<trkpt lat="40.0728168" lon="-105.2306208">
  <ele>1596.51</ele>
  <time>2026-08-27T18:30:43Z</time>
  <course>347.25</course>
  <speed>0.022360679774997897</speed>
  <fix>3d</fix>
</trkpt>
<trkpt lat="40.0728167" lon="-105.2306206">
  <ele>1596.43</ele>
  <time>2026-08-27T18:30:43Z</time>
  <course>311.15</course>
  <speed>0.0</speed>
  <fix>3d</fix>
</trkpt>
<trkpt lat="40.0728168" lon="-105.2306208">
  <ele>1596.51</ele>
  <time>2026-08-27T18:30:43Z</time>
  <course>347.26</course>
  <speed>0.022360679774997897</speed>
  <fix>3d</fix>
</trkpt>
<trkpt lat="40.0728167" lon="-105.2306206">
  <ele>1596.43</ele>
  <time>2026-08-27T18:30:43Z</time>
  <course>313.44</course>
  <speed>0.0</speed>
  <fix>3d</fix>
</trkpt>
<trkpt lat="40.0728168" lon="-105.2306208">
  <ele>1596.51</ele>
  <time>2026-08-27T18:30:43Z</time>
  <course>347.26</course>
  <speed>0.022360679774997897</speed>
  <fix>3d</fix>
</trkpt>
<trkpt lat="40.0728167" lon="-105.2306206">
  <ele>1596.43</ele>
  <time>2026-08-27T18:30:43Z</time>
  <course>316.28</course>
  <speed>0.0</speed>
  <fix>3d</fix>
</trkpt>
<trkpt lat="40.0728168" lon="-105.2306208">
  <ele>1596.5</ele>
  <time>2026-08-27T18:30:43Z</time>
  <course>347.27</course>
  <speed>0.022360679774997897</speed>
  <fix>3d</fix>
</trkpt>
<trkpt lat="40.0728167" lon="-105.2306206">
  <ele>1596.43</ele>
  <time>2026-08-27T18:30:43Z</time>
  <course>319.51</course>
  <speed>0.0</speed>
  <fix>3d</fix>
</trkpt>
<trkpt lat="40.0728168" lon="-105.2306208">
  <ele>1596.5</ele>
  <time>2026-08-27T18:30:43Z</time>
  <course>347.27</course>
  <speed>0.022360679774997897</speed>
  <fix>3d</fix>
</trkpt>
<trkpt lat="40.0728167" lon="-105.2306206">
  <ele>1596.43</ele>
  <time>2026-08-27T18:30:43Z</time>
  <course>322.88</course>
  <speed>0.0</speed>
  <fix>3d</fix>
</trkpt>
<trkpt lat="40.0728168" lon="-105.2306208">
  <ele>1596.5</ele>
  <time>2026-08-27T18:30:43Z</time>
  <course>347.25</course>
  <speed>0.022360679774997897</speed>
  <fix>3d</fix>
</trkpt>
<trkpt lat="40.0728167" lon="-105.2306206">
  <ele>1596.43</ele>
  <time>2026-08-27T18:30:43Z</time>
  <course>324.88</course>
  <speed>0.0</speed>
  <fix>3d</fix>
</trkpt>
<trkpt lat="40.0728168" lon="-105.2306208">
  <ele>1596.5</ele>
  <time>2026-08-27T18:30:43Z</time>
  <course>347.23</course>
  <speed>0.022360679774997897</speed>
  <fix>3d</fix>
</trkpt>
<trkpt lat="40.0728167" lon="-105.2306206">
  <ele>1596.43</ele>
  <time>2026-08-27T18:30:43Z</time>
  <course>322.71</course>
  <speed>0.0</speed>
  <fix>3d</fix>
</trkpt>
<trkpt lat="40.0728168" lon="-105.2306208">
  <ele>1596.51</ele>
  <time>2026-08-27T18:30:43Z</time>
  <course>347.22</course>
  <speed>0.022360679774997897</speed>
  <fix>3d</fix>
</trkpt>
<trkpt lat="40.0728167" lon="-105.2306206">
  <ele>1596.43</ele>
  <time>2026-08-27T18:30:43Z</time>
  <course>317.64</course>
  <speed>0.0</speed>
  <fix>3d</fix>
</trkpt>
<trkpt lat="40.0728168" lon="-105.2306208">
  <ele>1596.52</ele>
  <time>2026-08-27T18:30:43Z</time>
  <course>347.21</course>
  <speed>0.022360679774997897</speed>
  <fix>3d</fix>
</trkpt>
<trkpt lat="40.0728167" lon="-105.2306206">
  <ele>1596.44</ele>
  <time>2026-08-27T18:30:43Z</time>
  <course>312.28</course>
  <speed>0.0</speed>
  <fix>3d</fix>
</trkpt>
<trkpt lat="40.0728168" lon="-105.2306208">
  <ele>1596.53</ele>
  <time>2026-08-27T18:30:43Z</time>
  <course>347.21</course>
  <speed>0.022360679774997897</speed>
  <fix>3d</fix>
</trkpt>
<trkpt lat="40.0728167" lon="-105.2306207">
  <ele>1596.44</ele>
  <time>2026-08-27T18:30:43Z</time>
  <course>307.93</course>
  <speed>0.0</speed>
  <fix>3d</fix>
</trkpt>
<trkpt lat="40.0728168" lon="-105.2306208">
  <ele>1596.53</ele>
  <time>2026-08-27T18:30:43Z</time>
  <course>347.24</course>
  <speed>0.022360679774997897</speed>
  <fix>3d</fix>
</trkpt>
<trkpt lat="40.0728167" lon="-105.2306208">
  <ele>1596.44</ele>
  <time>2026-08-27T18:30:43Z</time>
  <course>305.93</course>
  <speed>0.0</speed>
  <fix>3d</fix>
</trkpt>
<trkpt lat="40.0728168" lon="-105.2306209">
  <ele>1596.52</ele>
  <time>2026-08-27T18:30:43Z</time>
  <course>347.28</course>
  <speed>0.022360679774997897</speed>
  <fix>3d</fix>
</trkpt>
<trkpt lat="40.0728167" lon="-105.2306208">
  <ele>1596.44</ele>
  <time>2026-08-27T18:30:43Z</time>
  <course>308.55</course>
  <speed>0.0</speed>
  <fix>3d</fix>
</trkpt>
<trkpt lat="40.0728168" lon="-105.2306209">
  <ele>1596.52</ele>
  <time>2026-08-27T18:30:43Z</time>
  <course>347.29</course>
  <speed>0.022360679774997897</speed>
  <fix>3d</fix>
</trkpt>
<trkpt lat="40.0728167" lon="-105.2306208">
  <ele>1596.43</ele>
  <time>2026-08-27T18:30:43Z</time>
  <course>317.79</course>
  <speed>0.0</speed>
  <fix>3d</fix>
</trkpt>
<trkpt lat="40.0728168" lon="-105.2306209">
  <ele>1596.51</ele>
  <time>2026-08-27T18:30:43Z</time>
  <course>347.29</course>
  <speed>0.022360679774997897</speed>
  <fix>3d</fix>
</trkpt>
<trkpt lat="40.0728167" lon="-105.2306208">
  <ele>1596.43</ele>
  <time>2026-08-27T18:30:43Z</time>
  <course>331.43</course>
  <speed>0.0</speed>
  <fix>3d</fix>
</trkpt>
<trkpt lat="40.0728168" lon="-105.2306209">
  <ele>1596.51</ele>
  <time>2026-08-27T18:30:43Z</time>
  <course>347.27</course>
  <speed>0.022360679774997897</speed>
  <fix>3d</fix>
</trkpt>
<trkpt lat="40.0728167" lon="-105.2306208">
  <ele>1596.43</ele>
  <time>2026-08-27T18:30:43Z</time>
  <course>345.74</course>
  <speed>0.0</speed>
  <fix>3d</fix>
</trkpt>
<trkpt lat="40.0728168" lon="-105.2306209">
  <ele>1596.52</ele>
  <time>2026-08-27T18:30:43Z</time>
  <course>347.26</course>
  <speed>0.022360679774997897</speed>
  <fix>3d</fix>
</trkpt>
<trkpt lat="40.0728168" lon="-105.2306208">
  <ele>1596.43</ele>
  <time>2026-08-27T18:30:43Z</time>
  <course>356.71</course>
  <speed>0.0</speed>
  <fix>3d</fix>
</trkpt>
<trkpt lat="40.0728168" lon="-105.2306209">
  <ele>1596.52</ele>
  <time>2026-08-27T18:30:43Z</time>
  <course>347.25</course>
  <speed>0.022360679774997897</speed>
  <fix>3d</fix>
</trkpt>
<trkpt lat="40.0728168" lon="-105.2306208">
  <ele>1596.43</ele>
  <time>2026-08-27T18:30:43Z</time>
  <course>5.43</course>
  <speed>0.0</speed>
  <fix>3d</fix>
</trkpt>
<trkpt lat="40.0728168" lon="-105.2306209">
  <ele>1596.52</ele>
  <time>2026-08-27T18:30:43Z</time>
  <course>347.27</course>
  <speed>0.022360679774997897</speed>
  <fix>3d</fix>
</trkpt>
<trkpt lat="40.0728168" lon="-105.2306208">
  <ele>1596.43</ele>
  <time>2026-08-27T18:30:43Z</time>
  <course>21.25</course>
  <speed>0.0</speed>
  <fix>3d</fix>
</trkpt>
<trkpt lat="40.0728168" lon="-105.2306209">
  <ele>1596.52</ele>
  <time>2026-08-27T18:30:43Z</time>
  <course>347.28</course>
  <speed>0.01414213562373095</speed>
  <fix>3d</fix>
</trkpt>
<trkpt lat="40.0728168" lon="-105.2306208">
  <ele>1596.42</ele>
  <time>2026-08-27T18:30:43Z</time>
  <course>42.61</course>
  <speed>0.0</speed>
  <fix>3d</fix>
</trkpt>
<trkpt lat="40.0728168" lon="-105.2306209">
  <ele>1596.52</ele>
  <time>2026-08-27T18:30:43Z</time>
  <course>347.29</course>
  <speed>0.01414213562373095</speed>
  <fix>3d</fix>
</trkpt>
<trkpt lat="40.0728168" lon="-105.2306208">
  <ele>1596.42</ele>
  <time>2026-08-27T18:30:43Z</time>
  <course>59.67</course>
  <speed>0.0</speed>
  <fix>3d</fix>
</trkpt>
<trkpt lat="40.0728168" lon="-105.2306209">
  <ele>1596.52</ele>
  <time>2026-08-27T18:30:43Z</time>
  <course>347.29</course>
  <speed>0.01414213562373095</speed>
  <fix>3d</fix>
</trkpt>
<trkpt lat="40.0728168" lon="-105.2306208">
  <ele>1596.42</ele>
  <time>2026-08-27T18:30:43Z</time>
  <course>71.34</course>
  <speed>0.0</speed>
  <fix>3d</fix>
</trkpt>
<trkpt lat="40.0728168" lon="-105.2306209">
  <ele>1596.51</ele>
  <time>2026-08-27T18:30:43Z</time>
  <course>347.29</course>
  <speed>0.01414213562373095</speed>
  <fix>3d</fix>
</trkpt>
<trkpt lat="40.0728168" lon="-105.2306208">
  <ele>1596.41</ele>
  <time>2026-08-27T18:30:43Z</time>
  <course>80.57</course>
  <speed>0.0</speed>
  <fix>3d</fix>
</trkpt>
<trkpt lat="40.0728168" lon="-105.2306209">
  <ele>1596.51</ele>
  <time>2026-08-27T18:30:43Z</time>
  <course>347.27</course>
  <speed>0.01414213562373095</speed>
  <fix>3d</fix>
</trkpt>
<trkpt lat="40.0728168" lon="-105.2306208">
  <ele>1596.41</ele>
  <time>2026-08-27T18:30:43Z</time>
  <course>88.21</course>
  <speed>0.0</speed>
  <fix>3d</fix>
</trkpt>
<trkpt lat="40.0728168" lon="-105.2306209">
  <ele>1596.51</ele>
  <time>2026-08-27T18:30:43Z</time>
  <course>347.25</course>
  <speed>0.01</speed>
  <fix>3d</fix>
</trkpt>
<trkpt lat="40.0728168" lon="-105.2306208">
  <ele>1596.41</ele>
  <time>2026-08-27T18:30:43Z</time>
  <course>94.58</course>
  <speed>0.0</speed>
  <fix>3d</fix>
</trkpt>
<trkpt lat="40.0728168" lon="-105.2306209">
  <ele>1596.5</ele>
  <time>2026-08-27T18:30:43Z</time>
  <course>347.24</course>
  <speed>0.01</speed>
  <fix>3d</fix>
</trkpt>
<trkpt lat="40.0728168" lon="-105.2306208">
  <ele>1596.41</ele>
  <time>2026-08-27T18:30:43Z</time>
  <course>100.64</course>
  <speed>0.0</speed>
  <fix>3d</fix>
</trkpt>
<trkpt lat="40.0728168" lon="-105.2306209">
  <ele>1596.5</ele>
  <time>2026-08-27T18:30:43Z</time>
  <course>347.23</course>
  <speed>0.01</speed>
  <fix>3d</fix>
</trkpt>
<trkpt lat="40.0728168" lon="-105.2306208">
  <ele>1596.41</ele>
  <time>2026-08-27T18:30:43Z</time>
  <course>106.21</course>
  <speed>0.0</speed>
  <fix>3d</fix>
</trkpt>
<trkpt lat="40.0728168" lon="-105.2306209">
  <ele>1596.5</ele>
  <time>2026-08-27T18:30:43Z</time>
  <course>347.22</course>
  <speed>0.01</speed>
  <fix>3d</fix>
</trkpt>
<trkpt lat="40.0728168" lon="-105.2306208">
  <ele>1596.41</ele>
  <time>2026-08-27T18:30:43Z</time>
  <course>111.09</course>
  <speed>0.0</speed>
  <fix>3d</fix>
</trkpt>
<trkpt lat="40.0728168" lon="-105.2306209">
  <ele>1596.5</ele>
  <time>2026-08-27T18:30:43Z</time>
  <course>347.21</course>
  <speed>0.01</speed>
  <fix>3d</fix>
</trkpt>
<trkpt lat="40.0728168" lon="-105.2306207">
  <ele>1596.41</ele>
  <time>2026-08-27T18:30:43Z</time>
  <course>113.28</course>
  <speed>0.0</speed>
  <fix>3d</fix>
</trkpt>
<trkpt lat="40.0728168" lon="-105.2306209">
  <ele>1596.49</ele>
  <time>2026-08-27T18:30:43Z</time>
  <course>347.18</course>
  <speed>0.01</speed>
  <fix>3d</fix>
</trkpt>
<trkpt lat="40.0728168" lon="-105.2306206">
  <ele>1596.41</ele>
  <time>2026-08-27T18:30:43Z</time>
  <course>114.54</course>
  <speed>0.0</speed>
  <fix>3d</fix>
</trkpt>
<trkpt lat="40.0728168" lon="-105.2306209">
  <ele>1596.5</ele>
  <time>2026-08-27T18:30:43Z</time>
  <course>347.15</course>
  <speed>0.01</speed>
  <fix>3d</fix>
</trkpt>
<trkpt lat="40.0728168" lon="-105.2306206">
  <ele>1596.41</ele>
  <time>2026-08-27T18:30:43Z</time>
  <course>117.85</course>
  <speed>0.0</speed>
  <fix>3d</fix>
</trkpt>
<trkpt lat="40.0728168" lon="-105.2306209">
  <ele>1596.5</ele>
  <time>2026-08-27T18:30:43Z</time>
  <course>347.13</course>
  <speed>0.01</speed>
  <fix>3d</fix>
</trkpt>
<trkpt lat="40.0728168" lon="-105.2306206">
  <ele>1596.41</ele>
  <time>2026-08-27T18:30:43Z</time>
  <course>121.67</course>
  <speed>0.0</speed>
  <fix>3d</fix>
</trkpt>
<trkpt lat="40.0728168" lon="-105.2306209">
  <ele>1596.51</ele>
  <time>2026-08-27T18:30:43Z</time>
  <course>347.13</course>
  <speed>0.01</speed>
  <fix>3d</fix>
</trkpt>
<trkpt lat="40.0728168" lon="-105.2306206">
  <ele>1596.42</ele>
  <time>2026-08-27T18:30:43Z</time>
  <course>125.43</course>
  <speed>0.0</speed>
  <fix>3d</fix>
</trkpt>
<trkpt lat="40.0728168" lon="-105.2306209">
  <ele>1596.51</ele>
  <time>2026-08-27T18:30:43Z</time>
  <course>347.15</course>
  <speed>0.02</speed>
  <fix>3d</fix>
</trkpt>
<trkpt lat="40.0728168" lon="-105.2306206">
  <ele>1596.42</ele>
  <time>2026-08-27T18:30:43Z</time>
  <course>132.54</course>
  <speed>0.0</speed>
  <fix>3d</fix>
</trkpt>
<trkpt lat="40.0728168" lon="-105.2306209">
  <ele>1596.51</ele>
  <time>2026-08-27T18:30:43Z</time>
  <course>347.16</course>
  <speed>0.02</speed>
  <fix>3d</fix>
</trkpt>
<trkpt lat="40.0728168" lon="-105.2306206">
  <ele>1596.42</ele>
  <time>2026-08-27T18:30:43Z</time>
  <course>142.77</course>
  <speed>0.0</speed>
  <fix>3d</fix>
</trkpt>
<trkpt lat="40.0728168" lon="-105.2306209">
  <ele>1596.52</ele>
  <time>2026-08-27T18:30:43Z</time>
  <course>347.18</course>
  <speed>0.02</speed>
  <fix>3d</fix>
</trkpt>
<trkpt lat="40.0728168" lon="-105.2306206">
  <ele>1596.42</ele>
  <time>2026-08-27T18:30:43Z</time>
  <course>153.01</course>
  <speed>0.0</speed>
  <fix>3d</fix>
</trkpt>
<trkpt lat="40.0728168" lon="-105.2306209">
  <ele>1596.52</ele>
  <time>2026-08-27T18:30:43Z</time>
  <course>347.2</course>
  <speed>0.02</speed>
  <fix>3d</fix>
</trkpt>
<trkpt lat="40.0728168" lon="-105.2306206">
  <ele>1596.42</ele>
  <time>2026-08-27T18:30:43Z</time>
  <course>162.02</course>
  <speed>0.0</speed>
  <fix>3d</fix>
</trkpt>
<trkpt lat="40.0728168" lon="-105.2306209">
  <ele>1596.53</ele>
  <time>2026-08-27T18:30:43Z</time>
  <course>347.21</course>
  <speed>0.02</speed>
  <fix>3d</fix>
</trkpt>
<trkpt lat="40.0728168" lon="-105.2306206">
  <ele>1596.42</ele>
  <time>2026-08-27T18:30:43Z</time>
  <course>171.43</course>
  <speed>0.0</speed>
  <fix>3d</fix>
</trkpt>
<trkpt lat="40.0728168" lon="-105.2306209">
  <ele>1596.52</ele>
  <time>2026-08-27T18:30:43Z</time>
  <course>347.22</course>
  <speed>0.02</speed>
  <fix>3d</fix>
</trkpt>
<trkpt lat="40.0728168" lon="-105.2306206">
  <ele>1596.42</ele>
  <time>2026-08-27T18:30:43Z</time>
  <course>180.84</course>
  <speed>0.0</speed>
  <fix>3d</fix>
</trkpt>
<trkpt lat="40.0728168" lon="-105.2306209">
  <ele>1596.52</ele>
  <time>2026-08-27T18:30:43Z</time>
  <course>347.24</course>
  <speed>0.02</speed>
  <fix>3d</fix>
</trkpt>
<trkpt lat="40.0728168" lon="-105.2306206">
  <ele>1596.42</ele>
  <time>2026-08-27T18:30:43Z</time>
  <course>185.59</course>
  <speed>0.0</speed>
  <fix>3d</fix>
</trkpt>
<trkpt lat="40.0728168" lon="-105.2306209">
  <ele>1596.51</ele>
  <time>2026-08-27T18:30:43Z</time>
  <course>347.23</course>
  <speed>0.022360679774997897</speed>
  <fix>3d</fix>
</trkpt>
<trkpt lat="40.0728168" lon="-105.2306206">
  <ele>1596.41</ele>
  <time>2026-08-27T18:30:43Z</time>
  <course>186.24</course>
  <speed>0.0</speed>
  <fix>3d</fix>
</trkpt>
<trkpt lat="40.0728168" lon="-105.2306209">
  <ele>1596.5</ele>
  <time>2026-08-27T18:30:43Z</time>
  <course>347.22</course>
  <speed>0.022360679774997897</speed>
  <fix>3d</fix>
</trkpt>
<trkpt lat="40.0728168" lon="-105.2306206">
  <ele>1596.41</ele>
  <time>2026-08-27T18:30:43Z</time>
  <course>189.35</course>
  <speed>0.0</speed>
  <fix>3d</fix>
</trkpt>
<trkpt lat="40.0728168" lon="-105.2306209">
  <ele>1596.5</ele>
  <time>2026-08-27T18:30:43Z</time>
  <course>347.2</course>
  <speed>0.022360679774997897</speed>
  <fix>3d</fix>
</trkpt>
<trkpt lat="40.0728168" lon="-105.2306206">
  <ele>1596.41</ele>
  <time>2026-08-27T18:30:43Z</time>
  <course>199.72</course>
  <speed>0.0</speed>
  <fix>3d</fix>
</trkpt>
<trkpt lat="40.0728168" lon="-105.2306209">
  <ele>1596.5</ele>
  <time>2026-08-27T18:30:43Z</time>
  <course>347.17</course>
  <speed>0.022360679774997897</speed>
  <fix>3d</fix>
</trkpt>
<trkpt lat="40.0728168" lon="-105.2306206">
  <ele>1596.41</ele>
  <time>2026-08-27T18:30:43Z</time>
  <course>210.07</course>
  <speed>0.0</speed>
  <fix>3d</fix>
</trkpt>
<trkpt lat="40.0728168" lon="-105.2306209">
  <ele>1596.5</ele>
  <time>2026-08-27T18:30:43Z</time>
  <course>347.15</course>
  <speed>0.022360679774997897</speed>
  <fix>3d</fix>
</trkpt>
<trkpt lat="40.0728168" lon="-105.2306206">
  <ele>1596.41</ele>
  <time>2026-08-27T18:30:43Z</time>
  <course>210.95</course>
  <speed>0.0</speed>
  <fix>3d</fix>
</trkpt>
<trkpt lat="40.0728168" lon="-105.2306209">
  <ele>1596.51</ele>
  <time>2026-08-27T18:30:44Z</time>
  <course>347.14</course>
  <speed>0.02</speed>
  <fix>3d</fix>
</trkpt>
<trkpt lat="40.0728167" lon="-105.2306206">
  <ele>1596.41</ele>
  <time>2026-08-27T18:30:44Z</time>
  <course>208.18</course>
  <speed>0.0</speed>
  <fix>3d</fix>
</trkpt>
<trkpt lat="40.0728168" lon="-105.2306209">
  <ele>1596.51</ele>
  <time>2026-08-27T18:30:44Z</time>
  <course>347.13</course>
  <speed>0.02</speed>
  <fix>3d</fix>
</trkpt>
<trkpt lat="40.0728167" lon="-105.2306206">
  <ele>1596.42</ele>
  <time>2026-08-27T18:30:44Z</time>
  <course>207.44</course>
  <speed>0.0</speed>
  <fix>3d</fix>
</trkpt>
<trkpt lat="40.0728168" lon="-105.2306209">
  <ele>1596.51</ele>
  <time>2026-08-27T18:30:44Z</time>
  <course>347.13</course>
  <speed>0.02</speed>
  <fix>3d</fix>
</trkpt>
<trkpt lat="40.0728167" lon="-105.2306206">
  <ele>1596.42</ele>
  <time>2026-08-27T18:30:44Z</time>
  <course>207.44</course>
  <speed>0.0</speed>
  <fix>3d</fix>
</trkpt>
<trkpt lat="40.0728168" lon="-105.2306209">
  <ele>1596.51</ele>
  <time>2026-08-27T18:30:44Z</time>
  <course>347.13</course>
  <speed>0.02</speed>
  <fix>3d</fix>
</trkpt>
<trkpt lat="40.0728167" lon="-105.2306206">
  <ele>1596.42</ele>
  <time>2026-08-27T18:30:44Z</time>
  <course>206.91</course>
  <speed>0.0</speed>
  <fix>3d</fix>
</trkpt>
<trkpt lat="40.0728168" lon="-105.2306209">
  <ele>1596.52</ele>
  <time>2026-08-27T18:30:44Z</time>
  <course>347.14</course>
  <speed>0.02</speed>
  <fix>3d</fix>
</trkpt>
<trkpt lat="40.0728167" lon="-105.2306206">
  <ele>1596.42</ele>
  <time>2026-08-27T18:30:44Z</time>
  <course>207.37</course>
  <speed>0.0</speed>
  <fix>3d</fix>
</trkpt>
<trkpt lat="40.0728168" lon="-105.2306209">
  <ele>1596.51</ele>
  <time>2026-08-27T18:30:44Z</time>
  <course>347.16</course>
  <speed>0.02</speed>
  <fix>3d</fix>
</trkpt>
<trkpt lat="40.0728167" lon="-105.2306206">
  <ele>1596.42</ele>
  <time>2026-08-27T18:30:44Z</time>
  <course>211.59</course>
  <speed>0.0</speed>
  <fix>3d</fix>
</trkpt>
<trkpt lat="40.0728168" lon="-105.2306209">
  <ele>1596.51</ele>
  <time>2026-08-27T18:30:44Z</time>
  <course>347.16</course>
  <speed>0.022360679774997897</speed>
  <fix>3d</fix>
</trkpt>
<trkpt lat="40.0728167" lon="-105.2306206">
  <ele>1596.42</ele>
  <time>2026-08-27T18:30:44Z</time>
  <course>223.28</course>
  <speed>0.0</speed>
  <fix>3d</fix>
</trkpt>
<trkpt lat="40.0728168" lon="-105.2306209">
  <ele>1596.51</ele>
  <time>2026-08-27T18:30:44Z</time>
  <course>347.15</course>
  <speed>0.022360679774997897</speed>
  <fix>3d</fix>
</trkpt>
<trkpt lat="40.0728167" lon="-105.2306206">
  <ele>1596.42</ele>
  <time>2026-08-27T18:30:44Z</time>
  <course>250.69</course>
  <speed>0.0</speed>
  <fix>3d</fix>
</trkpt>
<trkpt lat="40.0728168" lon="-105.2306209">
  <ele>1596.51</ele>
  <time>2026-08-27T18:30:44Z</time>
  <course>347.15</course>
  <speed>0.022360679774997897</speed>
  <fix>3d</fix>
</trkpt>
<trkpt lat="40.0728167" lon="-105.2306206">
  <ele>1596.42</ele>
  <time>2026-08-27T18:30:44Z</time>
  <course>292.59</course>
  <speed>0.0</speed>
  <fix>3d</fix>
</trkpt>
<trkpt lat="40.0728168" lon="-105.2306209">
  <ele>1596.51</ele>
  <time>2026-08-27T18:30:44Z</time>
  <course>347.14</course>
  <speed>0.022360679774997897</speed>
  <fix>3d</fix>
</trkpt>
<trkpt lat="40.0728167" lon="-105.2306206">
  <ele>1596.42</ele>
  <time>2026-08-27T18:30:44Z</time>
  <course>317.14</course>
  <speed>0.0</speed>
  <fix>3d</fix>
</trkpt>
<trkpt lat="40.0728168" lon="-105.2306209">
  <ele>1596.51</ele>
  <time>2026-08-27T18:30:44Z</time>
  <course>347.14</course>
  <speed>0.022360679774997897</speed>
  <fix>3d</fix>
</trkpt>
<trkpt lat="40.0728167" lon="-105.2306206">
  <ele>1596.42</ele>
  <time>2026-08-27T18:30:44Z</time>
  <course>325.91</course>
  <speed>0.0</speed>
  <fix>3d</fix>
</trkpt>
<trkpt lat="40.0728168" lon="-105.2306209">
  <ele>1596.51</ele>
  <time>2026-08-27T18:30:44Z</time>
  <course>347.14</course>
  <speed>0.022360679774997897</speed>
  <fix>3d</fix>
</trkpt>
<trkpt lat="40.0728167" lon="-105.2306206">
  <ele>1596.42</ele>
  <time>2026-08-27T18:30:44Z</time>
  <course>329.66</course>
  <speed>0.0</speed>
  <fix>3d</fix>
</trkpt>
<trkpt lat="40.0728168" lon="-105.2306209">
  <ele>1596.51</ele>
  <time>2026-08-27T18:30:44Z</time>
  <course>347.14</course>
  <speed>0.022360679774997897</speed>
  <fix>3d</fix>
</trkpt>
<trkpt lat="40.0728167" lon="-105.2306206">
  <ele>1596.42</ele>
  <time>2026-08-27T18:30:44Z</time>
  <course>332.75</course>
  <speed>0.0</speed>
  <fix>3d</fix>
</trkpt>
<trkpt lat="40.0728168" lon="-105.2306209">
  <ele>1596.5</ele>
  <time>2026-08-27T18:30:44Z</time>
  <course>347.14</course>
  <speed>0.022360679774997897</speed>
  <fix>3d</fix>
</trkpt>
<trkpt lat="40.0728167" lon="-105.2306206">
  <ele>1596.42</ele>
  <time>2026-08-27T18:30:44Z</time>
  <course>334.2</course>
  <speed>0.0</speed>
  <fix>3d</fix>
</trkpt>
<trkpt lat="40.0728168" lon="-105.2306209">
  <ele>1596.5</ele>
  <time>2026-08-27T18:30:44Z</time>
  <course>347.13</course>
  <speed>0.022360679774997897</speed>
  <fix>3d</fix>
</trkpt>
<trkpt lat="40.0728167" lon="-105.2306206">
  <ele>1596.42</ele>
  <time>2026-08-27T18:30:44Z</time>
  <course>332.92</course>
  <speed>0.0</speed>
  <fix>3d</fix>
</trkpt>
<trkpt lat="40.0728168" lon="-105.2306209">
  <ele>1596.5</ele>
  <time>2026-08-27T18:30:44Z</time>
  <course>347.13</course>
  <speed>0.022360679774997897</speed>
  <fix>3d</fix>
</trkpt>
<trkpt lat="40.0728167" lon="-105.2306206">
  <ele>1596.42</ele>
  <time>2026-08-27T18:30:44Z</time>
  <course>327.28</course>
  <speed>0.0</speed>
  <fix>3d</fix>
</trkpt>
<trkpt lat="40.0728168" lon="-105.2306209">
  <ele>1596.5</ele>
  <time>2026-08-27T18:30:44Z</time>
  <course>347.11</course>
  <speed>0.022360679774997897</speed>
  <fix>3d</fix>
</trkpt>
<trkpt lat="40.0728167" lon="-105.2306206">
  <ele>1596.42</ele>
  <time>2026-08-27T18:30:44Z</time>
  <course>317.9</course>
  <speed>0.0</speed>
  <fix>3d</fix>
</trkpt>
<trkpt lat="40.0728168" lon="-105.2306209">
  <ele>1596.5</ele>
  <time>2026-08-27T18:30:44Z</time>
  <course>347.08</course>
  <speed>0.022360679774997897</speed>
  <fix>3d</fix>
</trkpt>
<trkpt lat="40.0728167" lon="-105.2306206">
  <ele>1596.42</ele>
  <time>2026-08-27T18:30:44Z</time>
  <course>305.38</course>
  <speed>0.0</speed>
  <fix>3d</fix>
</trkpt>
<trkpt lat="40.0728168" lon="-105.2306209">
  <ele>1596.5</ele>
  <time>2026-08-27T18:30:44Z</time>
  <course>347.06</course>
  <speed>0.022360679774997897</speed>
  <fix>3d</fix>
</trkpt>
<trkpt lat="40.0728167" lon="-105.2306206">
  <ele>1596.42</ele>
  <time>2026-08-27T18:30:44Z</time>
  <course>295.69</course>
  <speed>0.0</speed>
  <fix>3d</fix>
</trkpt>
<trkpt lat="40.0728168" lon="-105.2306209">
  <ele>1596.5</ele>
  <time>2026-08-27T18:30:44Z</time>
  <course>347.05</course>
  <speed>0.022360679774997897</speed>
  <fix>3d</fix>
</trkpt>
<trkpt lat="40.0728167" lon="-105.2306206">
  <ele>1596.42</ele>
  <time>2026-08-27T18:30:44Z</time>
  <course>292.09</course>
  <speed>0.0</speed>
  <fix>3d</fix>
</trkpt>
<trkpt lat="40.0728168" lon="-105.2306209">
  <ele>1596.5</ele>
  <time>2026-08-27T18:30:44Z</time>
  <course>347.06</course>
  <speed>0.022360679774997897</speed>
  <fix>3d</fix>
</trkpt>
<trkpt lat="40.0728167" lon="-105.2306206">
  <ele>1596.43</ele>
  <time>2026-08-27T18:30:44Z</time>
  <course>290.94</course>
  <speed>0.0</speed>
  <fix>3d</fix>
</trkpt>
<trkpt lat="40.0728168" lon="-105.2306209">
  <ele>1596.5</ele>
  <time>2026-08-27T18:30:44Z</time>
  <course>347.06</course>
  <speed>0.022360679774997897</speed>
  <fix>3d</fix>
</trkpt>
<trkpt lat="40.0728167" lon="-105.2306206">
  <ele>1596.43</ele>
  <time>2026-08-27T18:30:44Z</time>
  <course>290.96</course>
  <speed>0.0</speed>
  <fix>3d</fix>
</trkpt>
<trkpt lat="40.0728168" lon="-105.2306209">
  <ele>1596.51</ele>
  <time>2026-08-27T18:30:44Z</time>
  <course>347.06</course>
  <speed>0.022360679774997897</speed>
  <fix>3d</fix>
</trkpt>
<trkpt lat="40.0728167" lon="-105.2306206">
  <ele>1596.43</ele>
  <time>2026-08-27T18:30:44Z</time>
  <course>291.79</course>
  <speed>0.0</speed>
  <fix>3d</fix>
</trkpt>
<trkpt lat="40.0728168" lon="-105.2306209">
  <ele>1596.51</ele>
  <time>2026-08-27T18:30:44Z</time>
  <course>347.05</course>
  <speed>0.022360679774997897</speed>
  <fix>3d</fix>
</trkpt>
<trkpt lat="40.0728167" lon="-105.2306206">
  <ele>1596.44</ele>
  <time>2026-08-27T18:30:44Z</time>
  <course>293.75</course>
  <speed>0.0</speed>
  <fix>3d</fix>
</trkpt>
<trkpt lat="40.0728168" lon="-105.2306209">
  <ele>1596.52</ele>
  <time>2026-08-27T18:30:44Z</time>
  <course>347.07</course>
  <speed>0.022360679774997897</speed>
  <fix>3d</fix>
</trkpt>
<trkpt lat="40.0728167" lon="-105.2306206">
  <ele>1596.44</ele>
  <time>2026-08-27T18:30:44Z</time>
  <course>298.33</course>
  <speed>0.0</speed>
  <fix>3d</fix>
</trkpt>
<trkpt lat="40.0728168" lon="-105.2306209">
  <ele>1596.52</ele>
  <time>2026-08-27T18:30:44Z</time>
  <course>347.08</course>
  <speed>0.022360679774997897</speed>
  <fix>3d</fix>
</trkpt>
<trkpt lat="40.0728167" lon="-105.2306206">
  <ele>1596.44</ele>
  <time>2026-08-27T18:30:44Z</time>
  <course>304.4</course>
  <speed>0.0</speed>
  <fix>3d</fix>
</trkpt>
<trkpt lat="40.0728168" lon="-105.2306209">
  <ele>1596.53</ele>
  <time>2026-08-27T18:30:44Z</time>
  <course>347.11</course>
  <speed>0.022360679774997897</speed>
  <fix>3d</fix>
</trkpt>
<trkpt lat="40.0728167" lon="-105.2306206">
  <ele>1596.44</ele>
  <time>2026-08-27T18:30:44Z</time>
  <course>309.01</course>
  <speed>0.0</speed>
  <fix>3d</fix>
</trkpt>
<trkpt lat="40.0728168" lon="-105.2306209">
  <ele>1596.53</ele>
  <time>2026-08-27T18:30:44Z</time>
  <course>347.13</course>
  <speed>0.022360679774997897</speed>
  <fix>3d</fix>
</trkpt>
<trkpt lat="40.0728167" lon="-105.2306207">
  <ele>1596.44</ele>
  <time>2026-08-27T18:30:44Z</time>
  <course>312.34</course>
  <speed>0.0</speed>
  <fix>3d</fix>
</trkpt>
<trkpt lat="40.0728168" lon="-105.2306209">
  <ele>1596.53</ele>
  <time>2026-08-27T18:30:44Z</time>
  <course>347.14</course>
  <speed>0.022360679774997897</speed>
  <fix>3d</fix>
</trkpt>
<trkpt lat="40.0728167" lon="-105.2306208">
  <ele>1596.44</ele>
  <time>2026-08-27T18:30:44Z</time>
  <course>316.54</course>
  <speed>0.0</speed>
  <fix>3d</fix>
</trkpt>
<trkpt lat="40.0728168" lon="-105.2306209">
  <ele>1596.52</ele>
  <time>2026-08-27T18:30:44Z</time>
  <course>347.15</course>
  <speed>0.022360679774997897</speed>
  <fix>3d</fix>
</trkpt>
<trkpt lat="40.0728167" lon="-105.2306208">
  <ele>1596.43</ele>
  <time>2026-08-27T18:30:44Z</time>
  <course>321.69</course>
  <speed>0.0</speed>
  <fix>3d</fix>
</trkpt>
<trkpt lat="40.0728168" lon="-105.2306209">
  <ele>1596.53</ele>
  <time>2026-08-27T18:30:44Z</time>
  <course>347.15</course>
  <speed>0.022360679774997897</speed>
  <fix>3d</fix>
</trkpt>
<trkpt lat="40.0728167" lon="-105.2306208">
  <ele>1596.43</ele>
  <time>2026-08-27T18:30:44Z</time>
  <course>327.46</course>
  <speed>0.0</speed>
  <fix>3d</fix>
</trkpt>
<trkpt lat="40.0728168" lon="-105.2306209">
  <ele>1596.52</ele>
  <time>2026-08-27T18:30:44Z</time>
  <course>347.16</course>
  <speed>0.022360679774997897</speed>
  <fix>3d</fix>
</trkpt>
<trkpt lat="40.0728167" lon="-105.2306208">
  <ele>1596.43</ele>
  <time>2026-08-27T18:30:44Z</time>
  <course>336.86</course>
  <speed>0.0</speed>
  <fix>3d</fix>
</trkpt>
<trkpt lat="40.0728168" lon="-105.2306209">
  <ele>1596.52</ele>
  <time>2026-08-27T18:30:44Z</time>
  <course>347.16</course>
  <speed>0.022360679774997897</speed>
  <fix>3d</fix>
</trkpt>
<trkpt lat="40.0728167" lon="-105.2306208">
  <ele>1596.42</ele>
  <time>2026-08-27T18:30:44Z</time>
  <course>352.5</course>
  <speed>0.0</speed>
  <fix>3d</fix>
</trkpt>
<trkpt lat="40.0728168" lon="-105.2306209">
  <ele>1596.52</ele>
  <time>2026-08-27T18:30:44Z</time>
  <course>347.16</course>
  <speed>0.022360679774997897</speed>
  <fix>3d</fix>
</trkpt>
<trkpt lat="40.0728167" lon="-105.2306208">
  <ele>1596.42</ele>
  <time>2026-08-27T18:30:44Z</time>
  <course>8.58</course>
  <speed>0.0</speed>
  <fix>3d</fix>
</trkpt>
<trkpt lat="40.0728168" lon="-105.2306209">
  <ele>1596.51</ele>
  <time>2026-08-27T18:30:44Z</time>
  <course>347.16</course>
  <speed>0.022360679774997897</speed>
  <fix>3d</fix>
</trkpt>
<trkpt lat="40.0728167" lon="-105.2306208">
  <ele>1596.42</ele>
  <time>2026-08-27T18:30:44Z</time>
  <course>21.68</course>
  <speed>0.0</speed>
  <fix>3d</fix>
</trkpt>
<trkpt lat="40.0728168" lon="-105.2306209">
  <ele>1596.51</ele>
  <time>2026-08-27T18:30:44Z</time>
  <course>347.14</course>
  <speed>0.01414213562373095</speed>
  <fix>3d</fix>
</trkpt>
<trkpt lat="40.0728167" lon="-105.2306208">
  <ele>1596.42</ele>
  <time>2026-08-27T18:30:44Z</time>
  <course>31.51</course>
  <speed>0.0</speed>
  <fix>3d</fix>
</trkpt>
<trkpt lat="40.0728168" lon="-105.2306209">
  <ele>1596.51</ele>
  <time>2026-08-27T18:30:44Z</time>
  <course>347.11</course>
  <speed>0.01414213562373095</speed>
  <fix>3d</fix>
</trkpt>
<trkpt lat="40.0728168" lon="-105.2306208">
  <ele>1596.42</ele>
  <time>2026-08-27T18:30:44Z</time>
  <course>36.98</course>
  <speed>0.0</speed>
  <fix>3d</fix>
</trkpt>
<trkpt lat="40.0728168" lon="-105.2306209">
  <ele>1596.51</ele>
  <time>2026-08-27T18:30:44Z</time>
  <course>347.1</course>
  <speed>0.01414213562373095</speed>
  <fix>3d</fix>
</trkpt>
<trkpt lat="40.0728168" lon="-105.2306208">
  <ele>1596.42</ele>
  <time>2026-08-27T18:30:44Z</time>
  <course>39.61</course>
  <speed>0.0</speed>
  <fix>3d</fix>
</trkpt>
<trkpt lat="40.0728168" lon="-105.2306209">
  <ele>1596.52</ele>
  <time>2026-08-27T18:30:44Z</time>
  <course>347.09</course>
  <speed>0.01414213562373095</speed>
  <fix>3d</fix>
</trkpt>
<trkpt lat="40.0728168" lon="-105.2306208">
  <ele>1596.42</ele>
  <time>2026-08-27T18:30:44Z</time>
  <course>41.65</course>
  <speed>0.0</speed>
  <fix>3d</fix>
</trkpt>
<trkpt lat="40.0728168" lon="-105.2306209">
  <ele>1596.51</ele>
  <time>2026-08-27T18:30:44Z</time>
  <course>347.09</course>
  <speed>0.01414213562373095</speed>
  <fix>3d</fix>
</trkpt>
<trkpt lat="40.0728168" lon="-105.2306208">
  <ele>1596.41</ele>
  <time>2026-08-27T18:30:44Z</time>
  <course>47.12</course>
  <speed>0.0</speed>
  <fix>3d</fix>
</trkpt>
<trkpt lat="40.0728168" lon="-105.2306209">
  <ele>1596.51</ele>
  <time>2026-08-27T18:30:44Z</time>
  <course>347.09</course>
  <speed>0.01414213562373095</speed>
  <fix>3d</fix>
</trkpt>
<trkpt lat="40.0728168" lon="-105.2306208">
  <ele>1596.41</ele>
  <time>2026-08-27T18:30:44Z</time>
  <course>60.38</course>
  <speed>0.0</speed>
  <fix>3d</fix>
</trkpt>
<trkpt lat="40.0728168" lon="-105.2306209">
  <ele>1596.51</ele>
  <time>2026-08-27T18:30:44Z</time>
  <course>347.08</course>
  <speed>0.01</speed>
  <fix>3d</fix>
</trkpt>
<trkpt lat="40.0728168" lon="-105.2306208">
  <ele>1596.41</ele>
  <time>2026-08-27T18:30:44Z</time>
  <course>80.25</course>
  <speed>0.0</speed>
  <fix>3d</fix>
</trkpt>
<trkpt lat="40.0728168" lon="-105.2306209">
  <ele>1596.51</ele>
  <time>2026-08-27T18:30:44Z</time>
  <course>347.07</course>
  <speed>0.01</speed>
  <fix>3d</fix>
</trkpt>
<trkpt lat="40.0728168" lon="-105.2306208">
  <ele>1596.41</ele>
  <time>2026-08-27T18:30:44Z</time>
  <course>96.76</course>
  <speed>0.0</speed>
  <fix>3d</fix>
</trkpt>
<trkpt lat="40.0728168" lon="-105.2306209">
  <ele>1596.51</ele>
  <time>2026-08-27T18:30:44Z</time>
  <course>347.07</course>
  <speed>0.01</speed>
  <fix>3d</fix>
</trkpt>
<trkpt lat="40.0728168" lon="-105.2306208">
  <ele>1596.41</ele>
  <time>2026-08-27T18:30:44Z</time>
  <course>107.88</course>
  <speed>0.0</speed>
  <fix>3d</fix>
</trkpt>
<trkpt lat="40.0728168" lon="-105.2306209">
  <ele>1596.51</ele>
  <time>2026-08-27T18:30:44Z</time>
  <course>347.07</course>
  <speed>0.01</speed>
  <fix>3d</fix>
</trkpt>
<trkpt lat="40.0728168" lon="-105.2306207">
  <ele>1596.41</ele>
  <time>2026-08-27T18:30:44Z</time>
  <course>114.95</course>
  <speed>0.0</speed>
  <fix>3d</fix>
</trkpt>
<trkpt lat="40.0728168" lon="-105.2306209">
  <ele>1596.51</ele>
  <time>2026-08-27T18:30:44Z</time>
  <course>347.07</course>
  <speed>0.01</speed>
  <fix>3d</fix>
</trkpt>
<trkpt lat="40.0728168" lon="-105.2306206">
  <ele>1596.41</ele>
  <time>2026-08-27T18:30:44Z</time>
  <course>117.65</course>
  <speed>0.0</speed>
  <fix>3d</fix>
</trkpt>
<trkpt lat="40.0728168" lon="-105.2306209">
  <ele>1596.51</ele>
  <time>2026-08-27T18:30:44Z</time>
  <course>347.07</course>
  <speed>0.01</speed>
  <fix>3d</fix>
</trkpt>
<trkpt lat="40.0728168" lon="-105.2306206">
  <ele>1596.41</ele>
  <time>2026-08-27T18:30:44Z</time>
  <course>117.71</course>
  <speed>0.01</speed>
  <fix>3d</fix>
</trkpt>
<trkpt lat="40.0728168" lon="-105.2306209">
  <ele>1596.5</ele>
  <time>2026-08-27T18:30:44Z</time>
  <course>347.06</course>
  <speed>0.01</speed>
  <fix>3d</fix>
</trkpt>
<trkpt lat="40.0728168" lon="-105.2306206">
  <ele>1596.41</ele>
  <time>2026-08-27T18:30:44Z</time>
  <course>117.18</course>
  <speed>0.0</speed>
  <fix>3d</fix>
</trkpt>
<trkpt lat="40.0728168" lon="-105.2306209">
  <ele>1596.5</ele>
  <time>2026-08-27T18:30:44Z</time>
  <course>347.06</course>
  <speed>0.01</speed>
  <fix>3d</fix>
</trkpt>
<trkpt lat="40.0728168" lon="-105.2306206">
  <ele>1596.41</ele>
  <time>2026-08-27T18:30:44Z</time>
  <course>115.92</course>
  <speed>0.0</speed>
  <fix>3d</fix>
</trkpt>
<trkpt lat="40.0728168" lon="-105.2306209">
  <ele>1596.51</ele>
  <time>2026-08-27T18:30:44Z</time>
  <course>347.06</course>
  <speed>0.01</speed>
  <fix>3d</fix>
</trkpt>
<trkpt lat="40.0728168" lon="-105.2306206">
  <ele>1596.41</ele>
  <time>2026-08-27T18:30:44Z</time>
  <course>116.77</course>
  <speed>0.0</speed>
  <fix>3d</fix>
</trkpt>
<trkpt lat="40.0728168" lon="-105.2306208">
  <ele>1596.5</ele>
  <time>2026-08-27T18:30:44Z</time>
  <course>347.06</course>
  <speed>0.01</speed>
  <fix>3d</fix>
</trkpt>
<trkpt lat="40.0728168" lon="-105.2306206">
  <ele>1596.41</ele>
  <time>2026-08-27T18:30:44Z</time>
  <course>121.0</course>
  <speed>0.0</speed>
  <fix>3d</fix>
</trkpt>
<trkpt lat="40.0728168" lon="-105.2306208">
  <ele>1596.5</ele>
  <time>2026-08-27T18:30:44Z</time>
  <course>347.05</course>
  <speed>0.02</speed>
  <fix>3d</fix>
</trkpt>
<trkpt lat="40.0728168" lon="-105.2306206">
  <ele>1596.41</ele>
  <time>2026-08-27T18:30:44Z</time>
  <course>126.38</course>
  <speed>0.0</speed>
  <fix>3d</fix>
</trkpt>
<trkpt lat="40.0728168" lon="-105.2306208">
  <ele>1596.51</ele>
  <time>2026-08-27T18:30:44Z</time>
  <course>347.05</course>
  <speed>0.02</speed>
  <fix>3d</fix>
</trkpt>
<trkpt lat="40.0728168" lon="-105.2306206">
  <ele>1596.41</ele>
  <time>2026-08-27T18:30:44Z</time>
  <course>137.75</course>
  <speed>0.0</speed>
  <fix>3d</fix>
</trkpt>
<trkpt lat="40.0728168" lon="-105.2306208">
  <ele>1596.51</ele>
  <time>2026-08-27T18:30:44Z</time>
  <course>347.05</course>
  <speed>0.02</speed>
  <fix>3d</fix>
</trkpt>
<trkpt lat="40.0728168" lon="-105.2306206">
  <ele>1596.41</ele>
  <time>2026-08-27T18:30:44Z</time>
  <course>157.19</course>
  <speed>0.0</speed>
  <fix>3d</fix>
</trkpt>
<trkpt lat="40.0728168" lon="-105.2306208">
  <ele>1596.51</ele>
  <time>2026-08-27T18:30:44Z</time>
  <course>347.05</course>
  <speed>0.02</speed>
  <fix>3d</fix>
</trkpt>
<trkpt lat="40.0728168" lon="-105.2306206">
  <ele>1596.41</ele>
  <time>2026-08-27T18:30:44Z</time>
  <course>177.75</course>
  <speed>0.0</speed>
  <fix>3d</fix>
</trkpt>
<trkpt lat="40.0728168" lon="-105.2306208">
  <ele>1596.51</ele>
  <time>2026-08-27T18:30:44Z</time>
  <course>347.06</course>
  <speed>0.02</speed>
  <fix>3d</fix>
</trkpt>
<trkpt lat="40.0728168" lon="-105.2306206">
  <ele>1596.41</ele>
  <time>2026-08-27T18:30:44Z</time>
  <course>196.21</course>
  <speed>0.0</speed>
  <fix>3d</fix>
</trkpt>
<trkpt lat="40.0728168" lon="-105.2306208">
  <ele>1596.51</ele>
  <time>2026-08-27T18:30:44Z</time>
  <course>347.05</course>
  <speed>0.02</speed>
  <fix>3d</fix>
</trkpt>
<trkpt lat="40.0728168" lon="-105.2306206">
  <ele>1596.41</ele>
  <time>2026-08-27T18:30:44Z</time>
  <course>209.15</course>
  <speed>0.0</speed>
  <fix>3d</fix>
</trkpt>
<trkpt lat="40.0728168" lon="-105.2306208">
  <ele>1596.5</ele>
  <time>2026-08-27T18:30:44Z</time>
  <course>347.05</course>
  <speed>0.02</speed>
  <fix>3d</fix>
</trkpt>
<trkpt lat="40.0728168" lon="-105.2306206">
  <ele>1596.41</ele>
  <time>2026-08-27T18:30:44Z</time>
  <course>215.26</course>
  <speed>0.0</speed>
  <fix>3d</fix>
</trkpt>
<trkpt lat="40.0728168" lon="-105.2306208">
  <ele>1596.5</ele>
  <time>2026-08-27T18:30:44Z</time>
  <course>347.03</course>
  <speed>0.02</speed>
  <fix>3d</fix>
</trkpt>
<trkpt lat="40.0728168" lon="-105.2306206">
  <ele>1596.42</ele>
  <time>2026-08-27T18:30:44Z</time>
  <course>217.77</course>
  <speed>0.0</speed>
  <fix>3d</fix>
</trkpt>
<trkpt lat="40.0728168" lon="-105.2306208">
  <ele>1596.5</ele>
  <time>2026-08-27T18:30:44Z</time>
  <course>347.01</course>
  <speed>0.02</speed>
  <fix>3d</fix>
</trkpt>
<trkpt lat="40.0728168" lon="-105.2306206">
  <ele>1596.42</ele>
  <time>2026-08-27T18:30:44Z</time>
  <course>218.63</course>
  <speed>0.0</speed>
  <fix>3d</fix>
</trkpt>
<trkpt lat="40.0728168" lon="-105.2306208">
  <ele>1596.51</ele>
  <time>2026-08-27T18:30:44Z</time>
  <course>347.0</course>
  <speed>0.02</speed>
  <fix>3d</fix>
</trkpt>
<trkpt lat="40.0728168" lon="-105.2306206">
  <ele>1596.42</ele>
  <time>2026-08-27T18:30:44Z</time>
  <course>217.78</course>
  <speed>0.0</speed>
  <fix>3d</fix>
</trkpt>
<trkpt lat="40.0728168" lon="-105.2306208">
  <ele>1596.51</ele>
  <time>2026-08-27T18:30:44Z</time>
  <course>346.99</course>
  <speed>0.02</speed>
  <fix>3d</fix>
</trkpt>
<trkpt lat="40.0728168" lon="-105.2306206">
  <ele>1596.42</ele>
  <time>2026-08-27T18:30:44Z</time>
  <course>217.37</course>
  <speed>0.0</speed>
  <fix>3d</fix>
</trkpt>
<trkpt lat="40.0728168" lon="-105.2306208">
  <ele>1596.51</ele>
  <time>2026-08-27T18:30:44Z</time>
  <course>346.98</course>
  <speed>0.02</speed>
  <fix>3d</fix>
</trkpt>
<trkpt lat="40.0728167" lon="-105.2306206">
  <ele>1596.42</ele>
  <time>2026-08-27T18:30:44Z</time>
  <course>217.79</course>
  <speed>0.0</speed>
  <fix>3d</fix>
</trkpt>
<trkpt lat="40.0728168" lon="-105.2306208">
  <ele>1596.5</ele>
  <time>2026-08-27T18:30:44Z</time>
  <course>346.98</course>
  <speed>0.022360679774997897</speed>
  <fix>3d</fix>
</trkpt>
<trkpt lat="40.0728167" lon="-105.2306206">
  <ele>1596.42</ele>
  <time>2026-08-27T18:30:44Z</time>
  <course>218.29</course>
  <speed>0.0</speed>
  <fix>3d</fix>
</trkpt>
<trkpt lat="40.0728168" lon="-105.2306208">
  <ele>1596.51</ele>
  <time>2026-08-27T18:30:44Z</time>
  <course>346.97</course>
  <speed>0.022360679774997897</speed>
  <fix>3d</fix>
</trkpt>
<trkpt lat="40.0728167" lon="-105.2306206">
  <ele>1596.42</ele>
  <time>2026-08-27T18:30:44Z</time>
  <course>220.02</course>
  <speed>0.0</speed>
  <fix>3d</fix>
</trkpt>
<trkpt lat="40.0728168" lon="-105.2306208">
  <ele>1596.51</ele>
  <time>2026-08-27T18:30:44Z</time>
  <course>346.97</course>
  <speed>0.022360679774997897</speed>
  <fix>3d</fix>
</trkpt>
<trkpt lat="40.0728167" lon="-105.2306206">
  <ele>1596.42</ele>
  <time>2026-08-27T18:30:44Z</time>
  <course>222.66</course>
  <speed>0.0</speed>
  <fix>3d</fix>
</trkpt>
<trkpt lat="40.0728168" lon="-105.2306208">
  <ele>1596.52</ele>
  <time>2026-08-27T18:30:44Z</time>
  <course>346.97</course>
  <speed>0.022360679774997897</speed>
  <fix>3d</fix>
</trkpt>
<trkpt lat="40.0728167" lon="-105.2306206">
  <ele>1596.42</ele>
  <time>2026-08-27T18:30:44Z</time>
  <course>224.74</course>
  <speed>0.0</speed>
  <fix>3d</fix>
</trkpt>
<trkpt lat="40.0728168" lon="-105.2306208">
  <ele>1596.52</ele>
  <time>2026-08-27T18:30:44Z</time>
  <course>346.98</course>
  <speed>0.022360679774997897</speed>
  <fix>3d</fix>
</trkpt>
<trkpt lat="40.0728167" lon="-105.2306206">
  <ele>1596.43</ele>
  <time>2026-08-27T18:30:44Z</time>
  <course>228.09</course>
  <speed>0.0</speed>
  <fix>3d</fix>
</trkpt>
<trkpt lat="40.0728168" lon="-105.2306208">
  <ele>1596.53</ele>
  <time>2026-08-27T18:30:44Z</time>
  <course>347.01</course>
  <speed>0.022360679774997897</speed>
  <fix>3d</fix>
</trkpt>
<trkpt lat="40.0728167" lon="-105.2306206">
  <ele>1596.43</ele>
  <time>2026-08-27T18:30:44Z</time>
  <course>239.84</course>
  <speed>0.0</speed>
  <fix>3d</fix>
</trkpt>
<trkpt lat="40.0728168" lon="-105.2306208">
  <ele>1596.52</ele>
  <time>2026-08-27T18:30:44Z</time>
  <course>347.04</course>
  <speed>0.022360679774997897</speed>
  <fix>3d</fix>
</trkpt>
<trkpt lat="40.0728167" lon="-105.2306206">
  <ele>1596.42</ele>
  <time>2026-08-27T18:30:44Z</time>
  <course>267.89</course>
  <speed>0.0</speed>
  <fix>3d</fix>
</trkpt>
<trkpt lat="40.0728168" lon="-105.2306208">
  <ele>1596.52</ele>
  <time>2026-08-27T18:30:44Z</time>
  <course>347.05</course>
  <speed>0.022360679774997897</speed>
  <fix>3d</fix>
</trkpt>
<trkpt lat="40.0728167" lon="-105.2306206">
  <ele>1596.42</ele>
  <time>2026-08-27T18:30:44Z</time>
  <course>295.32</course>
  <speed>0.0</speed>
  <fix>3d</fix>
</trkpt>
<trkpt lat="40.0728168" lon="-105.2306208">
  <ele>1596.52</ele>
  <time>2026-08-27T18:30:44Z</time>
  <course>347.06</course>
  <speed>0.022360679774997897</speed>
  <fix>3d</fix>
</trkpt>
<trkpt lat="40.0728167" lon="-105.2306206">
  <ele>1596.42</ele>
  <time>2026-08-27T18:30:44Z</time>
  <course>311.29</course>
  <speed>0.0</speed>
  <fix>3d</fix>
</trkpt>
<trkpt lat="40.0728168" lon="-105.2306208">
  <ele>1596.52</ele>
  <time>2026-08-27T18:30:44Z</time>
  <course>347.06</course>
  <speed>0.022360679774997897</speed>
  <fix>3d</fix>
</trkpt>
<trkpt lat="40.0728167" lon="-105.2306206">
  <ele>1596.42</ele>
  <time>2026-08-27T18:30:44Z</time>
  <course>320.8</course>
  <speed>0.0</speed>
  <fix>3d</fix>
</trkpt>
<trkpt lat="40.0728168" lon="-105.2306208">
  <ele>1596.52</ele>
  <time>2026-08-27T18:30:44Z</time>
  <course>347.07</course>
  <speed>0.022360679774997897</speed>
  <fix>3d</fix>
</trkpt>
<trkpt lat="40.0728167" lon="-105.2306206">
  <ele>1596.41</ele>
  <time>2026-08-27T18:30:44Z</time>
  <course>325.0</course>
  <speed>0.0</speed>
  <fix>3d</fix>
</trkpt>
<trkpt lat="40.0728168" lon="-105.2306208">
  <ele>1596.52</ele>
  <time>2026-08-27T18:30:44Z</time>
  <course>347.08</course>
  <speed>0.022360679774997897</speed>
  <fix>3d</fix>
</trkpt>
<trkpt lat="40.0728167" lon="-105.2306206">
  <ele>1596.41</ele>
  <time>2026-08-27T18:30:44Z</time>
  <course>328.32</course>
  <speed>0.0</speed>
  <fix>3d</fix>
</trkpt>
<trkpt lat="40.0728168" lon="-105.2306208">
  <ele>1596.51</ele>
  <time>2026-08-27T18:30:44Z</time>
  <course>347.07</course>
  <speed>0.022360679774997897</speed>
  <fix>3d</fix>
</trkpt>
<trkpt lat="40.0728167" lon="-105.2306206">
  <ele>1596.41</ele>
  <time>2026-08-27T18:30:44Z</time>
  <course>330.07</course>
  <speed>0.0</speed>
  <fix>3d</fix>
</trkpt>
<trkpt lat="40.0728168" lon="-105.2306208">
  <ele>1596.5</ele>
  <time>2026-08-27T18:30:44Z</time>
  <course>347.05</course>
  <speed>0.022360679774997897</speed>
  <fix>3d</fix>
</trkpt>
<trkpt lat="40.0728167" lon="-105.2306206">
  <ele>1596.4</ele>
  <time>2026-08-27T18:30:44Z</time>
  <course>333.82</course>
  <speed>0.0</speed>
  <fix>3d</fix>
</trkpt>
<trkpt lat="40.0728168" lon="-105.2306208">
  <ele>1596.5</ele>
  <time>2026-08-27T18:30:44Z</time>
  <course>347.03</course>
  <speed>0.022360679774997897</speed>
  <fix>3d</fix>
</trkpt>
<trkpt lat="40.0728167" lon="-105.2306206">
  <ele>1596.4</ele>
  <time>2026-08-27T18:30:44Z</time>
  <course>339.89</course>
  <speed>0.0</speed>
  <fix>3d</fix>
</trkpt>
<trkpt lat="40.0728168" lon="-105.2306208">
  <ele>1596.49</ele>
  <time>2026-08-27T18:30:44Z</time>
  <course>347.01</course>
  <speed>0.022360679774997897</speed>
  <fix>3d</fix>
</trkpt>
<trkpt lat="40.0728167" lon="-105.2306206">
  <ele>1596.4</ele>
  <time>2026-08-27T18:30:44Z</time>
  <course>339.04</course>
  <speed>0.0</speed>
  <fix>3d</fix>
</trkpt>
<trkpt lat="40.0728168" lon="-105.2306208">
  <ele>1596.49</ele>
  <time>2026-08-27T18:30:44Z</time>
  <course>346.98</course>
  <speed>0.022360679774997897</speed>
  <fix>3d</fix>
</trkpt>
<trkpt lat="40.0728167" lon="-105.2306206">
  <ele>1596.4</ele>
  <time>2026-08-27T18:30:44Z</time>
  <course>331.9</course>
  <speed>0.0</speed>
  <fix>3d</fix>
</trkpt>
<trkpt lat="40.0728168" lon="-105.2306208">
  <ele>1596.49</ele>
  <time>2026-08-27T18:30:44Z</time>
  <course>346.95</course>
  <speed>0.022360679774997897</speed>
  <fix>3d</fix>
</trkpt>
<trkpt lat="40.0728167" lon="-105.2306206">
  <ele>1596.4</ele>
  <time>2026-08-27T18:30:44Z</time>
  <course>320.42</course>
  <speed>0.0</speed>
  <fix>3d</fix>
</trkpt>
<trkpt lat="40.0728168" lon="-105.2306208">
  <ele>1596.5</ele>
  <time>2026-08-27T18:30:44Z</time>
  <course>346.92</course>
  <speed>0.022360679774997897</speed>
  <fix>3d</fix>
</trkpt>
<trkpt lat="40.0728167" lon="-105.2306206">
  <ele>1596.41</ele>
  <time>2026-08-27T18:30:44Z</time>
  <course>308.75</course>
  <speed>0.0</speed>
  <fix>3d</fix>
</trkpt>
<trkpt lat="40.0728168" lon="-105.2306208">
  <ele>1596.5</ele>
  <time>2026-08-27T18:30:44Z</time>
  <course>346.91</course>
  <speed>0.022360679774997897</speed>
  <fix>3d</fix>
</trkpt>
<trkpt lat="40.0728167" lon="-105.2306206">
  <ele>1596.41</ele>
  <time>2026-08-27T18:30:44Z</time>
  <course>301.63</course>
  <speed>0.0</speed>
  <fix>3d</fix>
</trkpt>
<trkpt lat="40.0728168" lon="-105.2306208">
  <ele>1596.51</ele>
  <time>2026-08-27T18:30:44Z</time>
  <course>346.91</course>
  <speed>0.022360679774997897</speed>
  <fix>3d</fix>
</trkpt>
<trkpt lat="40.0728167" lon="-105.2306206">
  <ele>1596.41</ele>
  <time>2026-08-27T18:30:44Z</time>
  <course>298.75</course>
  <speed>0.0</speed>
  <fix>3d</fix>
</trkpt>
<trkpt lat="40.0728168" lon="-105.2306208">
  <ele>1596.51</ele>
  <time>2026-08-27T18:30:44Z</time>
  <course>346.92</course>
  <speed>0.022360679774997897</speed>
  <fix>3d</fix>
</trkpt>
<trkpt lat="40.0728167" lon="-105.2306206">
  <ele>1596.42</ele>
  <time>2026-08-27T18:30:44Z</time>
  <course>294.79</course>
  <speed>0.0</speed>
  <fix>3d</fix>
</trkpt>
<trkpt lat="40.0728168" lon="-105.2306208">
  <ele>1596.51</ele>
  <time>2026-08-27T18:30:44Z</time>
  <course>346.94</course>
  <speed>0.022360679774997897</speed>
  <fix>3d</fix>
</trkpt>
<trkpt lat="40.0728167" lon="-105.2306206">
  <ele>1596.42</ele>
  <time>2026-08-27T18:30:44Z</time>
  <course>288.78</course>
  <speed>0.0</speed>
  <fix>3d</fix>
</trkpt>
<trkpt lat="40.0728168" lon="-105.2306208">
  <ele>1596.51</ele>
  <time>2026-08-27T18:30:44Z</time>
  <course>346.95</course>
  <speed>0.022360679774997897</speed>
  <fix>3d</fix>
</trkpt>
<trkpt lat="40.0728167" lon="-105.2306206">
  <ele>1596.42</ele>
  <time>2026-08-27T18:30:44Z</time>
  <course>284.98</course>
  <speed>0.0</speed>
  <fix>3d</fix>
</trkpt>
<trkpt lat="40.0728168" lon="-105.2306208">
  <ele>1596.52</ele>
  <time>2026-08-27T18:30:44Z</time>
  <course>346.96</course>
  <speed>0.022360679774997897</speed>
  <fix>3d</fix>
</trkpt>
<trkpt lat="40.0728167" lon="-105.2306206">
  <ele>1596.42</ele>
  <time>2026-08-27T18:30:44Z</time>
  <course>285.51</course>
  <speed>0.0</speed>
  <fix>3d</fix>
</trkpt>
<trkpt lat="40.0728168" lon="-105.2306208">
  <ele>1596.52</ele>
  <time>2026-08-27T18:30:44Z</time>
  <course>346.97</course>
  <speed>0.022360679774997897</speed>
  <fix>3d</fix>
</trkpt>
<trkpt lat="40.0728167" lon="-105.2306206">
  <ele>1596.42</ele>
  <time>2026-08-27T18:30:44Z</time>
  <course>294.99</course>
  <speed>0.0</speed>
  <fix>3d</fix>
</trkpt>
<trkpt lat="40.0728168" lon="-105.2306208">
  <ele>1596.52</ele>
  <time>2026-08-27T18:30:44Z</time>
  <course>346.99</course>
  <speed>0.022360679774997897</speed>
  <fix>3d</fix>
</trkpt>
<trkpt lat="40.0728167" lon="-105.2306207">
  <ele>1596.42</ele>
  <time>2026-08-27T18:30:44Z</time>
  <course>309.33</course>
  <speed>0.0</speed>
  <fix>3d</fix>
</trkpt>
<trkpt lat="40.0728168" lon="-105.2306208">
  <ele>1596.52</ele>
  <time>2026-08-27T18:30:44Z</time>
  <course>346.99</course>
  <speed>0.022360679774997897</speed>
  <fix>3d</fix>
</trkpt>
<trkpt lat="40.0728167" lon="-105.2306208">
  <ele>1596.42</ele>
  <time>2026-08-27T18:30:44Z</time>
  <course>317.89</course>
  <speed>0.0</speed>
  <fix>3d</fix>
</trkpt>
<trkpt lat="40.0728168" lon="-105.2306209">
  <ele>1596.52</ele>
  <time>2026-08-27T18:30:44Z</time>
  <course>347.0</course>
  <speed>0.022360679774997897</speed>
  <fix>3d</fix>
</trkpt>
<trkpt lat="40.0728167" lon="-105.2306208">
  <ele>1596.42</ele>
  <time>2026-08-27T18:30:44Z</time>
  <course>324.14</course>
  <speed>0.0</speed>
  <fix>3d</fix>
</trkpt>
<trkpt lat="40.0728168" lon="-105.2306209">
  <ele>1596.51</ele>
  <time>2026-08-27T18:30:44Z</time>
  <course>347.0</course>
  <speed>0.022360679774997897</speed>
  <fix>3d</fix>
</trkpt>
<trkpt lat="40.0728167" lon="-105.2306208">
  <ele>1596.42</ele>
  <time>2026-08-27T18:30:44Z</time>
  <course>334.04</course>
  <speed>0.0</speed>
  <fix>3d</fix>
</trkpt>
<trkpt lat="40.0728168" lon="-105.2306209">
  <ele>1596.51</ele>
  <time>2026-08-27T18:30:44Z</time>
  <course>347.0</course>
  <speed>0.022360679774997897</speed>
  <fix>3d</fix>
</trkpt>
<trkpt lat="40.0728167" lon="-105.2306208">
  <ele>1596.42</ele>
  <time>2026-08-27T18:30:44Z</time>
  <course>347.51</course>
  <speed>0.0</speed>
  <fix>3d</fix>
</trkpt>
<trkpt lat="40.0728168" lon="-105.2306209">
  <ele>1596.51</ele>
  <time>2026-08-27T18:30:44Z</time>
  <course>346.98</course>
  <speed>0.022360679774997897</speed>
  <fix>3d</fix>
</trkpt>
<trkpt lat="40.0728167" lon="-105.2306208">
  <ele>1596.41</ele>
  <time>2026-08-27T18:30:44Z</time>
  <course>3.83</course>
  <speed>0.0</speed>
  <fix>3d</fix>
</trkpt>
<trkpt lat="40.0728168" lon="-105.2306209">
  <ele>1596.51</ele>
  <time>2026-08-27T18:30:44Z</time>
  <course>346.96</course>
  <speed>0.022360679774997897</speed>
  <fix>3d</fix>
</trkpt>
<trkpt lat="40.0728167" lon="-105.2306208">
  <ele>1596.41</ele>
  <time>2026-08-27T18:30:44Z</time>
  <course>17.95</course>
  <speed>0.0</speed>
  <fix>3d</fix>
</trkpt>
<trkpt lat="40.0728168" lon="-105.2306209">
  <ele>1596.51</ele>
  <time>2026-08-27T18:30:44Z</time>
  <course>346.95</course>
  <speed>0.022360679774997897</speed>
  <fix>3d</fix>
</trkpt>
<trkpt lat="40.0728168" lon="-105.2306208">
  <ele>1596.41</ele>
  <time>2026-08-27T18:30:44Z</time>
  <course>28.95</course>
  <speed>0.0</speed>
  <fix>3d</fix>
</trkpt>
<trkpt lat="40.0728168" lon="-105.2306209">
  <ele>1596.51</ele>
  <time>2026-08-27T18:30:44Z</time>
  <course>346.93</course>
  <speed>0.022360679774997897</speed>
  <fix>3d</fix>
</trkpt>
<trkpt lat="40.0728168" lon="-105.2306208">
  <ele>1596.41</ele>
  <time>2026-08-27T18:30:44Z</time>
  <course>37.77</course>
  <speed>0.0</speed>
  <fix>3d</fix>
</trkpt>
<trkpt lat="40.0728168" lon="-105.2306209">
  <ele>1596.51</ele>
  <time>2026-08-27T18:30:44Z</time>
  <course>346.92</course>
  <speed>0.022360679774997897</speed>
  <fix>3d</fix>
</trkpt>
<trkpt lat="40.0728168" lon="-105.2306208">
  <ele>1596.41</ele>
  <time>2026-08-27T18:30:44Z</time>
  <course>44.96</course>
  <speed>0.0</speed>
  <fix>3d</fix>
</trkpt>
<trkpt lat="40.0728168" lon="-105.2306209">
  <ele>1596.5</ele>
  <time>2026-08-27T18:30:44Z</time>
  <course>346.92</course>
  <speed>0.01414213562373095</speed>
  <fix>3d</fix>
</trkpt>
<trkpt lat="40.0728168" lon="-105.2306208">
  <ele>1596.41</ele>
  <time>2026-08-27T18:30:44Z</time>
  <course>51.51</course>
  <speed>0.0</speed>
  <fix>3d</fix>
</trkpt>
<trkpt lat="40.0728168" lon="-105.2306209">
  <ele>1596.5</ele>
  <time>2026-08-27T18:30:44Z</time>
  <course>346.91</course>
  <speed>0.01414213562373095</speed>
  <fix>3d</fix>
</trkpt>
<trkpt lat="40.0728168" lon="-105.2306208">
  <ele>1596.41</ele>
  <time>2026-08-27T18:30:44Z</time>
  <course>58.46</course>
  <speed>0.0</speed>
  <fix>3d</fix>
</trkpt>
<trkpt lat="40.0728168" lon="-105.2306209">
  <ele>1596.5</ele>
  <time>2026-08-27T18:30:44Z</time>
  <course>346.9</course>
  <speed>0.01414213562373095</speed>
  <fix>3d</fix>
</trkpt>
<trkpt lat="40.0728168" lon="-105.2306208">
  <ele>1596.41</ele>
  <time>2026-08-27T18:30:44Z</time>
  <course>66.08</course>
  <speed>0.0</speed>
  <fix>3d</fix>
</trkpt>
<trkpt lat="40.0728168" lon="-105.2306209">
  <ele>1596.49</ele>
  <time>2026-08-27T18:30:44Z</time>
  <course>346.89</course>
  <speed>0.01414213562373095</speed>
  <fix>3d</fix>
</trkpt>
<trkpt lat="40.0728168" lon="-105.2306208">
  <ele>1596.41</ele>
  <time>2026-08-27T18:30:44Z</time>
  <course>76.88</course>
  <speed>0.0</speed>
  <fix>3d</fix>
</trkpt>
<trkpt lat="40.0728168" lon="-105.2306209">
  <ele>1596.49</ele>
  <time>2026-08-27T18:30:44Z</time>
  <course>346.87</course>
  <speed>0.01</speed>
  <fix>3d</fix>
</trkpt>
<trkpt lat="40.0728168" lon="-105.2306208">
  <ele>1596.42</ele>
  <time>2026-08-27T18:30:44Z</time>
  <course>89.5</course>
  <speed>0.0</speed>
  <fix>3d</fix>
</trkpt>
<trkpt lat="40.0728168" lon="-105.2306209">
  <ele>1596.5</ele>
  <time>2026-08-27T18:30:44Z</time>
  <course>346.85</course>
  <speed>0.01</speed>
  <fix>3d</fix>
</trkpt>
<trkpt lat="40.0728168" lon="-105.2306208">
  <ele>1596.42</ele>
  <time>2026-08-27T18:30:44Z</time>
  <course>98.33</course>
  <speed>0.0</speed>
  <fix>3d</fix>
</trkpt>
<trkpt lat="40.0728168" lon="-105.2306209">
  <ele>1596.5</ele>
  <time>2026-08-27T18:30:44Z</time>
  <course>346.84</course>
  <speed>0.01</speed>
  <fix>3d</fix>
</trkpt>
<trkpt lat="40.0728168" lon="-105.2306207">
  <ele>1596.42</ele>
  <time>2026-08-27T18:30:44Z</time>
  <course>105.76</course>
  <speed>0.0</speed>
  <fix>3d</fix>
</trkpt>
<trkpt lat="40.0728168" lon="-105.2306209">
  <ele>1596.5</ele>
  <time>2026-08-27T18:30:44Z</time>
  <course>346.85</course>
  <speed>0.01</speed>
  <fix>3d</fix>
</trkpt>
<trkpt lat="40.0728168" lon="-105.2306206">
  <ele>1596.43</ele>
  <time>2026-08-27T18:30:44Z</time>
  <course>111.75</course>
  <speed>0.0</speed>
  <fix>3d</fix>
</trkpt>
<trkpt lat="40.0728168" lon="-105.2306209">
  <ele>1596.5</ele>
  <time>2026-08-27T18:30:44Z</time>
  <course>346.85</course>
  <speed>0.01</speed>
  <fix>3d</fix>
</trkpt>
<trkpt lat="40.0728168" lon="-105.2306206">
  <ele>1596.43</ele>
  <time>2026-08-27T18:30:44Z</time>
  <course>114.62</course>
  <speed>0.0</speed>
  <fix>3d</fix>
</trkpt>
<trkpt lat="40.0728168" lon="-105.2306209">
  <ele>1596.51</ele>
  <time>2026-08-27T18:30:44Z</time>
  <course>346.86</course>
  <speed>0.01</speed>
  <fix>3d</fix>
</trkpt>
<trkpt lat="40.0728168" lon="-105.2306206">
  <ele>1596.43</ele>
  <time>2026-08-27T18:30:44Z</time>
  <course>118.78</course>
  <speed>0.0</speed>
  <fix>3d</fix>
</trkpt>
<trkpt lat="40.0728168" lon="-105.2306209">
  <ele>1596.51</ele>
  <time>2026-08-27T18:30:44Z</time>
  <course>346.87</course>
  <speed>0.01</speed>
  <fix>3d</fix>
</trkpt>
<trkpt lat="40.0728168" lon="-105.2306206">
  <ele>1596.43</ele>
  <time>2026-08-27T18:30:44Z</time>
  <course>124.38</course>
  <speed>0.0</speed>
  <fix>3d</fix>
</trkpt>
<trkpt lat="40.0728168" lon="-105.2306209">
  <ele>1596.51</ele>
  <time>2026-08-27T18:30:44Z</time>
  <course>346.88</course>
  <speed>0.01</speed>
  <fix>3d</fix>
</trkpt>
<trkpt lat="40.0728168" lon="-105.2306206">
  <ele>1596.44</ele>
  <time>2026-08-27T18:30:44Z</time>
  <course>128.37</course>
  <speed>0.0</speed>
  <fix>3d</fix>
</trkpt>
<trkpt lat="40.0728168" lon="-105.2306208">
  <ele>1596.52</ele>
  <time>2026-08-27T18:30:44Z</time>
  <course>346.89</course>
  <speed>0.01</speed>
  <fix>3d</fix>
</trkpt>
<trkpt lat="40.0728168" lon="-105.2306206">
  <ele>1596.44</ele>
  <time>2026-08-27T18:30:44Z</time>
  <course>131.51</course>
  <speed>0.0</speed>
  <fix>3d</fix>
</trkpt>
<trkpt lat="40.0728168" lon="-105.2306208">
  <ele>1596.52</ele>
  <time>2026-08-27T18:30:44Z</time>
  <course>346.9</course>
  <speed>0.02</speed>
  <fix>3d</fix>
</trkpt>
<trkpt lat="40.0728168" lon="-105.2306206">
  <ele>1596.44</ele>
  <time>2026-08-27T18:30:44Z</time>
  <course>135.87</course>
  <speed>0.0</speed>
  <fix>3d</fix>
</trkpt>
<trkpt lat="40.0728168" lon="-105.2306208">
  <ele>1596.52</ele>
  <time>2026-08-27T18:30:44Z</time>
  <course>346.92</course>
  <speed>0.02</speed>
  <fix>3d</fix>
</trkpt>
<trkpt lat="40.0728168" lon="-105.2306206">
  <ele>1596.44</ele>
  <time>2026-08-27T18:30:44Z</time>
  <course>144.27</course>
  <speed>0.0</speed>
  <fix>3d</fix>
</trkpt>
<trkpt lat="40.0728168" lon="-105.2306208">
  <ele>1596.51</ele>
  <time>2026-08-27T18:30:44Z</time>
  <course>346.92</course>
  <speed>0.02</speed>
  <fix>3d</fix>
</trkpt>
<trkpt lat="40.0728168" lon="-105.2306206">
  <ele>1596.44</ele>
  <time>2026-08-27T18:30:44Z</time>
  <course>156.0</course>
  <speed>0.0</speed>
  <fix>3d</fix>
</trkpt>
<trkpt lat="40.0728168" lon="-105.2306208">
  <ele>1596.51</ele>
  <time>2026-08-27T18:30:45Z</time>
  <course>346.92</course>
  <speed>0.02</speed>
  <fix>3d</fix>
</trkpt>
<trkpt lat="40.0728168" lon="-105.2306206">
  <ele>1596.44</ele>
  <time>2026-08-27T18:30:45Z</time>
  <course>169.42</course>
  <speed>0.0</speed>
  <fix>3d</fix>
</trkpt>
<trkpt lat="40.0728168" lon="-105.2306208">
  <ele>1596.51</ele>
  <time>2026-08-27T18:30:45Z</time>
  <course>346.92</course>
  <speed>0.02</speed>
  <fix>3d</fix>
</trkpt>
<trkpt lat="40.0728168" lon="-105.2306206">
  <ele>1596.44</ele>
  <time>2026-08-27T18:30:45Z</time>
  <course>184.05</course>
  <speed>0.0</speed>
  <fix>3d</fix>
</trkpt>
<trkpt lat="40.0728168" lon="-105.2306208">
  <ele>1596.51</ele>
  <time>2026-08-27T18:30:45Z</time>
  <course>346.92</course>
  <speed>0.02</speed>
  <fix>3d</fix>
</trkpt>
<trkpt lat="40.0728168" lon="-105.2306206">
  <ele>1596.44</ele>
  <time>2026-08-27T18:30:45Z</time>
  <course>197.14</course>
  <speed>0.0</speed>
  <fix>3d</fix>
</trkpt>
<trkpt lat="40.0728168" lon="-105.2306208">
  <ele>1596.51</ele>
  <time>2026-08-27T18:30:45Z</time>
  <course>346.92</course>
  <speed>0.02</speed>
  <fix>3d</fix>
</trkpt>
<trkpt lat="40.0728168" lon="-105.2306206">
  <ele>1596.44</ele>
  <time>2026-08-27T18:30:45Z</time>
  <course>207.56</course>
  <speed>0.0</speed>
  <fix>3d</fix>
</trkpt>
<trkpt lat="40.0728168" lon="-105.2306208">
  <ele>1596.51</ele>
  <time>2026-08-27T18:30:45Z</time>
  <course>346.92</course>
  <speed>0.02</speed>
  <fix>3d</fix>
</trkpt>
<trkpt lat="40.0728168" lon="-105.2306206">
  <ele>1596.44</ele>
  <time>2026-08-27T18:30:45Z</time>
  <course>215.44</course>
  <speed>0.0</speed>
  <fix>3d</fix>
</trkpt>
<trkpt lat="40.0728168" lon="-105.2306208">
  <ele>1596.51</ele>
  <time>2026-08-27T18:30:45Z</time>
  <course>346.91</course>
  <speed>0.02</speed>
  <fix>3d</fix>
</trkpt>
<trkpt lat="40.0728168" lon="-105.2306206">
  <ele>1596.44</ele>
  <time>2026-08-27T18:30:45Z</time>
  <course>220.16</course>
  <speed>0.0</speed>
  <fix>3d</fix>
</trkpt>
<trkpt lat="40.0728168" lon="-105.2306208">
  <ele>1596.51</ele>
  <time>2026-08-27T18:30:45Z</time>
  <course>346.91</course>
  <speed>0.02</speed>
  <fix>3d</fix>
</trkpt>
<trkpt lat="40.0728168" lon="-105.2306206">
  <ele>1596.44</ele>
  <time>2026-08-27T18:30:45Z</time>
  <course>220.45</course>
  <speed>0.0</speed>
  <fix>3d</fix>
</trkpt>
<trkpt lat="40.0728168" lon="-105.2306208">
  <ele>1596.51</ele>
  <time>2026-08-27T18:30:45Z</time>
  <course>346.91</course>
  <speed>0.02</speed>
  <fix>3d</fix>
</trkpt>
<trkpt lat="40.0728167" lon="-105.2306206">
  <ele>1596.44</ele>
  <time>2026-08-27T18:30:45Z</time>
  <course>217.23</course>
  <speed>0.0</speed>
  <fix>3d</fix>
</trkpt>
<trkpt lat="40.0728168" lon="-105.2306208">
  <ele>1596.52</ele>
  <time>2026-08-27T18:30:45Z</time>
  <course>346.92</course>
  <speed>0.02</speed>
  <fix>3d</fix>
</trkpt>
<trkpt lat="40.0728167" lon="-105.2306206">
  <ele>1596.44</ele>
  <time>2026-08-27T18:30:45Z</time>
  <course>212.19</course>
  <speed>0.0</speed>
  <fix>3d</fix>
</trkpt>
<trkpt lat="40.0728168" lon="-105.2306208">
  <ele>1596.52</ele>
  <time>2026-08-27T18:30:45Z</time>
  <course>346.92</course>
  <speed>0.02</speed>
  <fix>3d</fix>
</trkpt>
<trkpt lat="40.0728167" lon="-105.2306206">
  <ele>1596.44</ele>
  <time>2026-08-27T18:30:45Z</time>
  <course>207.51</course>
  <speed>0.0</speed>
  <fix>3d</fix>
</trkpt>
<trkpt lat="40.0728168" lon="-105.2306208">
  <ele>1596.52</ele>
  <time>2026-08-27T18:30:45Z</time>
  <course>346.92</course>
  <speed>0.022360679774997897</speed>
  <fix>3d</fix>
</trkpt>
<trkpt lat="40.0728167" lon="-105.2306206">
  <ele>1596.44</ele>
  <time>2026-08-27T18:30:45Z</time>
  <course>205.85</course>
  <speed>0.0</speed>
  <fix>3d</fix>
</trkpt>
<trkpt lat="40.0728168" lon="-105.2306208">
  <ele>1596.52</ele>
  <time>2026-08-27T18:30:45Z</time>
  <course>346.93</course>
  <speed>0.022360679774997897</speed>
  <fix>3d</fix>
</trkpt>
<trkpt lat="40.0728167" lon="-105.2306206">
  <ele>1596.44</ele>
  <time>2026-08-27T18:30:45Z</time>
  <course>213.44</course>
  <speed>0.0</speed>
  <fix>3d</fix>
</trkpt>
<trkpt lat="40.0728168" lon="-105.2306208">
  <ele>1596.52</ele>
  <time>2026-08-27T18:30:45Z</time>
  <course>346.93</course>
  <speed>0.022360679774997897</speed>
  <fix>3d</fix>
</trkpt>
<trkpt lat="40.0728167" lon="-105.2306206">
  <ele>1596.44</ele>
  <time>2026-08-27T18:30:45Z</time>
  <course>245.3</course>
  <speed>0.0</speed>
  <fix>3d</fix>
</trkpt>
<trkpt lat="40.0728168" lon="-105.2306208">
  <ele>1596.51</ele>
  <time>2026-08-27T18:30:45Z</time>
  <course>346.93</course>
  <speed>0.022360679774997897</speed>
  <fix>3d</fix>
</trkpt>
<trkpt lat="40.0728167" lon="-105.2306206">
  <ele>1596.43</ele>
  <time>2026-08-27T18:30:45Z</time>
  <course>284.03</course>
  <speed>0.0</speed>
  <fix>3d</fix>
</trkpt>
<trkpt lat="40.0728168" lon="-105.2306208">
  <ele>1596.51</ele>
  <time>2026-08-27T18:30:45Z</time>
  <course>346.93</course>
  <speed>0.022360679774997897</speed>
  <fix>3d</fix>
</trkpt>
<trkpt lat="40.0728167" lon="-105.2306206">
  <ele>1596.43</ele>
  <time>2026-08-27T18:30:45Z</time>
  <course>312.64</course>
  <speed>0.0</speed>
  <fix>3d</fix>
</trkpt>
<trkpt lat="40.0728168" lon="-105.2306208">
  <ele>1596.51</ele>
  <time>2026-08-27T18:30:45Z</time>
  <course>346.93</course>
  <speed>0.022360679774997897</speed>
  <fix>3d</fix>
</trkpt>
<trkpt lat="40.0728167" lon="-105.2306206">
  <ele>1596.43</ele>
  <time>2026-08-27T18:30:45Z</time>
  <course>327.84</course>
  <speed>0.0</speed>
  <fix>3d</fix>
</trkpt>
<trkpt lat="40.0728168" lon="-105.2306208">
  <ele>1596.51</ele>
  <time>2026-08-27T18:30:45Z</time>
  <course>346.93</course>
  <speed>0.022360679774997897</speed>
  <fix>3d</fix>
</trkpt>
<trkpt lat="40.0728167" lon="-105.2306206">
  <ele>1596.43</ele>
  <time>2026-08-27T18:30:45Z</time>
  <course>331.54</course>
  <speed>0.0</speed>
  <fix>3d</fix>
</trkpt>
<trkpt lat="40.0728168" lon="-105.2306208">
  <ele>1596.5</ele>
  <time>2026-08-27T18:30:45Z</time>
  <course>346.92</course>
  <speed>0.022360679774997897</speed>
  <fix>3d</fix>
</trkpt>
<trkpt lat="40.0728167" lon="-105.2306206">
  <ele>1596.43</ele>
  <time>2026-08-27T18:30:45Z</time>
  <course>331.17</course>
  <speed>0.0</speed>
  <fix>3d</fix>
</trkpt>
<trkpt lat="40.0728168" lon="-105.2306208">
  <ele>1596.51</ele>
  <time>2026-08-27T18:30:45Z</time>
  <course>346.92</course>
  <speed>0.022360679774997897</speed>
  <fix>3d</fix>
</trkpt>
<trkpt lat="40.0728167" lon="-105.2306206">
  <ele>1596.43</ele>
  <time>2026-08-27T18:30:45Z</time>
  <course>328.93</course>
  <speed>0.0</speed>
  <fix>3d</fix>
</trkpt>
<trkpt lat="40.0728168" lon="-105.2306208">
  <ele>1596.5</ele>
  <time>2026-08-27T18:30:45Z</time>
  <course>346.9</course>
  <speed>0.022360679774997897</speed>
  <fix>3d</fix>
</trkpt>
<trkpt lat="40.0728167" lon="-105.2306206">
  <ele>1596.43</ele>
  <time>2026-08-27T18:30:45Z</time>
  <course>325.88</course>
  <speed>0.0</speed>
  <fix>3d</fix>
</trkpt>
<trkpt lat="40.0728168" lon="-105.2306208">
  <ele>1596.5</ele>
  <time>2026-08-27T18:30:45Z</time>
  <course>346.88</course>
  <speed>0.022360679774997897</speed>
  <fix>3d</fix>
</trkpt>
<trkpt lat="40.0728167" lon="-105.2306206">
  <ele>1596.43</ele>
  <time>2026-08-27T18:30:45Z</time>
  <course>323.09</course>
  <speed>0.0</speed>
  <fix>3d</fix>
</trkpt>
<trkpt lat="40.0728168" lon="-105.2306208">
  <ele>1596.51</ele>
  <time>2026-08-27T18:30:45Z</time>
  <course>346.87</course>
  <speed>0.022360679774997897</speed>
  <fix>3d</fix>
</trkpt>
<trkpt lat="40.0728167" lon="-105.2306206">
  <ele>1596.43</ele>
  <time>2026-08-27T18:30:45Z</time>
  <course>320.21</course>
  <speed>0.0</speed>
  <fix>3d</fix>
</trkpt>
<trkpt lat="40.0728168" lon="-105.2306208">
  <ele>1596.51</ele>
  <time>2026-08-27T18:30:45Z</time>
  <course>346.86</course>
  <speed>0.022360679774997897</speed>
  <fix>3d</fix>
</trkpt>
<trkpt lat="40.0728167" lon="-105.2306206">
  <ele>1596.43</ele>
  <time>2026-08-27T18:30:45Z</time>
  <course>315.6</course>
  <speed>0.0</speed>
  <fix>3d</fix>
</trkpt>
<trkpt lat="40.0728168" lon="-105.2306208">
  <ele>1596.51</ele>
  <time>2026-08-27T18:30:45Z</time>
  <course>346.85</course>
  <speed>0.022360679774997897</speed>
  <fix>3d</fix>
</trkpt>
<trkpt lat="40.0728167" lon="-105.2306206">
  <ele>1596.43</ele>
  <time>2026-08-27T18:30:45Z</time>
  <course>311.2</course>
  <speed>0.0</speed>
  <fix>3d</fix>
</trkpt>
<trkpt lat="40.0728168" lon="-105.2306208">
  <ele>1596.51</ele>
  <time>2026-08-27T18:30:45Z</time>
  <course>346.84</course>
  <speed>0.022360679774997897</speed>
  <fix>3d</fix>
</trkpt>
<trkpt lat="40.0728167" lon="-105.2306206">
  <ele>1596.43</ele>
  <time>2026-08-27T18:30:45Z</time>
  <course>308.28</course>
  <speed>0.0</speed>
  <fix>3d</fix>
</trkpt>
<trkpt lat="40.0728168" lon="-105.2306208">
  <ele>1596.51</ele>
  <time>2026-08-27T18:30:45Z</time>
  <course>346.84</course>
  <speed>0.022360679774997897</speed>
  <fix>3d</fix>
</trkpt>
<trkpt lat="40.0728167" lon="-105.2306206">
  <ele>1596.44</ele>
  <time>2026-08-27T18:30:45Z</time>
  <course>305.95</course>
  <speed>0.0</speed>
  <fix>3d</fix>
</trkpt>
<trkpt lat="40.0728168" lon="-105.2306208">
  <ele>1596.51</ele>
  <time>2026-08-27T18:30:45Z</time>
  <course>346.84</course>
  <speed>0.022360679774997897</speed>
  <fix>3d</fix>
</trkpt>
<trkpt lat="40.0728167" lon="-105.2306206">
  <ele>1596.44</ele>
  <time>2026-08-27T18:30:45Z</time>
  <course>303.89</course>
  <speed>0.0</speed>
  <fix>3d</fix>
</trkpt>
<trkpt lat="40.0728168" lon="-105.2306208">
  <ele>1596.51</ele>
  <time>2026-08-27T18:30:45Z</time>
  <course>346.84</course>
  <speed>0.022360679774997897</speed>
  <fix>3d</fix>
</trkpt>
<trkpt lat="40.0728167" lon="-105.2306206">
  <ele>1596.44</ele>
  <time>2026-08-27T18:30:45Z</time>
  <course>304.5</course>
  <speed>0.0</speed>
  <fix>3d</fix>
</trkpt>
<trkpt lat="40.0728168" lon="-105.2306208">
  <ele>1596.51</ele>
  <time>2026-08-27T18:30:45Z</time>
  <course>346.84</course>
  <speed>0.022360679774997897</speed>
  <fix>3d</fix>
</trkpt>
<trkpt lat="40.0728167" lon="-105.2306206">
  <ele>1596.44</ele>
  <time>2026-08-27T18:30:45Z</time>
  <course>308.67</course>
  <speed>0.0</speed>
  <fix>3d</fix>
</trkpt>
<trkpt lat="40.0728168" lon="-105.2306208">
  <ele>1596.51</ele>
  <time>2026-08-27T18:30:45Z</time>
  <course>346.84</course>
  <speed>0.022360679774997897</speed>
  <fix>3d</fix>
</trkpt>
<trkpt lat="40.0728167" lon="-105.2306206">
  <ele>1596.44</ele>
  <time>2026-08-27T18:30:45Z</time>
  <course>313.73</course>
  <speed>0.0</speed>
  <fix>3d</fix>
</trkpt>
<trkpt lat="40.0728168" lon="-105.2306208">
  <ele>1596.51</ele>
  <time>2026-08-27T18:30:45Z</time>
  <course>346.83</course>
  <speed>0.022360679774997897</speed>
  <fix>3d</fix>
</trkpt>
<trkpt lat="40.0728167" lon="-105.2306206">
  <ele>1596.44</ele>
  <time>2026-08-27T18:30:45Z</time>
  <course>318.6</course>
  <speed>0.0</speed>
  <fix>3d</fix>
</trkpt>
<trkpt lat="40.0728168" lon="-105.2306208">
  <ele>1596.52</ele>
  <time>2026-08-27T18:30:45Z</time>
  <course>346.83</course>
  <speed>0.022360679774997897</speed>
  <fix>3d</fix>
</trkpt>
<trkpt lat="40.0728167" lon="-105.2306206">
  <ele>1596.44</ele>
  <time>2026-08-27T18:30:45Z</time>
  <course>323.29</course>
  <speed>0.0</speed>
  <fix>3d</fix>
</trkpt>
<trkpt lat="40.0728168" lon="-105.2306208">
  <ele>1596.52</ele>
  <time>2026-08-27T18:30:45Z</time>
  <course>346.86</course>
  <speed>0.022360679774997897</speed>
  <fix>3d</fix>
</trkpt>
<trkpt lat="40.0728167" lon="-105.2306206">
  <ele>1596.44</ele>
  <time>2026-08-27T18:30:45Z</time>
  <course>326.09</course>
  <speed>0.0</speed>
  <fix>3d</fix>
</trkpt>
<trkpt lat="40.0728168" lon="-105.2306208">
  <ele>1596.52</ele>
  <time>2026-08-27T18:30:45Z</time>
  <course>346.88</course>
  <speed>0.022360679774997897</speed>
  <fix>3d</fix>
</trkpt>
<trkpt lat="40.0728167" lon="-105.2306206">
  <ele>1596.44</ele>
  <time>2026-08-27T18:30:45Z</time>
  <course>328.12</course>
  <speed>0.0</speed>
  <fix>3d</fix>
</trkpt>
<trkpt lat="40.0728168" lon="-105.2306208">
  <ele>1596.52</ele>
  <time>2026-08-27T18:30:45Z</time>
  <course>346.9</course>
  <speed>0.022360679774997897</speed>
  <fix>3d</fix>
</trkpt>
<trkpt lat="40.0728167" lon="-105.2306206">
  <ele>1596.44</ele>
  <time>2026-08-27T18:30:45Z</time>
  <course>330.59</course>
  <speed>0.0</speed>
  <fix>3d</fix>
</trkpt>
<trkpt lat="40.0728168" lon="-105.2306208">
  <ele>1596.52</ele>
  <time>2026-08-27T18:30:45Z</time>
  <course>346.9</course>
  <speed>0.022360679774997897</speed>
  <fix>3d</fix>
</trkpt>
<trkpt lat="40.0728167" lon="-105.2306206">
  <ele>1596.43</ele>
  <time>2026-08-27T18:30:45Z</time>
  <course>332.46</course>
  <speed>0.0</speed>
  <fix>3d</fix>
</trkpt>
<trkpt lat="40.0728168" lon="-105.2306208">
  <ele>1596.52</ele>
  <time>2026-08-27T18:30:45Z</time>
  <course>346.91</course>
  <speed>0.022360679774997897</speed>
  <fix>3d</fix>
</trkpt>
<trkpt lat="40.0728167" lon="-105.2306206">
  <ele>1596.43</ele>
  <time>2026-08-27T18:30:45Z</time>
  <course>331.01</course>
  <speed>0.0</speed>
  <fix>3d</fix>
</trkpt>
<trkpt lat="40.0728168" lon="-105.2306208">
  <ele>1596.52</ele>
  <time>2026-08-27T18:30:45Z</time>
  <course>346.92</course>
  <speed>0.022360679774997897</speed>
  <fix>3d</fix>
</trkpt>
<trkpt lat="40.0728168" lon="-105.2306207">
  <ele>1596.43</ele>
  <time>2026-08-27T18:30:45Z</time>
  <course>328.58</course>
  <speed>0.0</speed>
  <fix>3d</fix>
</trkpt>
<trkpt lat="40.0728168" lon="-105.2306208">
  <ele>1596.52</ele>
  <time>2026-08-27T18:30:45Z</time>
  <course>346.91</course>
  <speed>0.022360679774997897</speed>
  <fix>3d</fix>
</trkpt>
<trkpt lat="40.0728168" lon="-105.2306208">
  <ele>1596.43</ele>
  <time>2026-08-27T18:30:45Z</time>
  <course>327.96</course>
  <speed>0.0</speed>
  <fix>3d</fix>
</trkpt>
<trkpt lat="40.0728168" lon="-105.2306208">
  <ele>1596.52</ele>
  <time>2026-08-27T18:30:45Z</time>
  <course>346.91</course>
  <speed>0.022360679774997897</speed>
  <fix>3d</fix>
</trkpt>
<trkpt lat="40.0728168" lon="-105.2306208">
  <ele>1596.42</ele>
  <time>2026-08-27T18:30:45Z</time>
  <course>327.9</course>
  <speed>0.0</speed>
  <fix>3d</fix>
</trkpt>
<trkpt lat="40.0728168" lon="-105.2306209">
  <ele>1596.52</ele>
  <time>2026-08-27T18:30:45Z</time>
  <course>346.91</course>
  <speed>0.022360679774997897</speed>
  <fix>3d</fix>
</trkpt>
<trkpt lat="40.0728168" lon="-105.2306208">
  <ele>1596.42</ele>
  <time>2026-08-27T18:30:45Z</time>
  <course>329.59</course>
  <speed>0.0</speed>
  <fix>3d</fix>
</trkpt>
<trkpt lat="40.0728168" lon="-105.2306209">
  <ele>1596.51</ele>
  <time>2026-08-27T18:30:45Z</time>
  <course>346.92</course>
  <speed>0.022360679774997897</speed>
  <fix>3d</fix>
</trkpt>
<trkpt lat="40.0728168" lon="-105.2306208">
  <ele>1596.42</ele>
  <time>2026-08-27T18:30:45Z</time>
  <course>334.79</course>
  <speed>0.0</speed>
  <fix>3d</fix>
</trkpt>
<trkpt lat="40.0728168" lon="-105.2306209">
  <ele>1596.51</ele>
  <time>2026-08-27T18:30:45Z</time>
  <course>346.91</course>
  <speed>0.022360679774997897</speed>
  <fix>3d</fix>
</trkpt>
<trkpt lat="40.0728168" lon="-105.2306208">
  <ele>1596.42</ele>
  <time>2026-08-27T18:30:45Z</time>
  <course>358.43</course>
  <speed>0.0</speed>
  <fix>3d</fix>
</trkpt>
<trkpt lat="40.0728168" lon="-105.2306209">
  <ele>1596.5</ele>
  <time>2026-08-27T18:30:45Z</time>
  <course>346.89</course>
  <speed>0.022360679774997897</speed>
  <fix>3d</fix>
</trkpt>
<trkpt lat="40.0728168" lon="-105.2306208">
  <ele>1596.42</ele>
  <time>2026-08-27T18:30:45Z</time>
  <course>47.97</course>
  <speed>0.0</speed>
  <fix>3d</fix>
</trkpt>
<trkpt lat="40.0728168" lon="-105.2306209">
  <ele>1596.5</ele>
  <time>2026-08-27T18:30:45Z</time>
  <course>346.88</course>
  <speed>0.02</speed>
  <fix>3d</fix>
</trkpt>
<trkpt lat="40.0728168" lon="-105.2306208">
  <ele>1596.41</ele>
  <time>2026-08-27T18:30:45Z</time>
  <course>85.34</course>
  <speed>0.0</speed>
  <fix>3d</fix>
</trkpt>
<trkpt lat="40.0728168" lon="-105.2306209">
  <ele>1596.5</ele>
  <time>2026-08-27T18:30:45Z</time>
  <course>346.87</course>
  <speed>0.02</speed>
  <fix>3d</fix>
</trkpt>
<trkpt lat="40.0728168" lon="-105.2306208">
  <ele>1596.41</ele>
  <time>2026-08-27T18:30:45Z</time>
  <course>102.97</course>
  <speed>0.0</speed>
  <fix>3d</fix>
</trkpt>
<trkpt lat="40.0728168" lon="-105.2306209">
  <ele>1596.5</ele>
  <time>2026-08-27T18:30:45Z</time>
  <course>346.86</course>
  <speed>0.01</speed>
  <fix>3d</fix>
</trkpt>
<trkpt lat="40.0728168" lon="-105.2306208">
  <ele>1596.41</ele>
  <time>2026-08-27T18:30:45Z</time>
  <course>111.64</course>
  <speed>0.0</speed>
  <fix>3d</fix>
</trkpt>
<trkpt lat="40.0728168" lon="-105.2306209">
  <ele>1596.49</ele>
  <time>2026-08-27T18:30:45Z</time>
  <course>346.82</course>
  <speed>0.01</speed>
  <fix>3d</fix>
</trkpt>
<trkpt lat="40.0728168" lon="-105.2306208">
  <ele>1596.41</ele>
  <time>2026-08-27T18:30:45Z</time>
  <course>114.35</course>
  <speed>0.0</speed>
  <fix>3d</fix>
</trkpt>
<trkpt lat="40.0728168" lon="-105.2306209">
  <ele>1596.49</ele>
  <time>2026-08-27T18:30:45Z</time>
  <course>346.8</course>
  <speed>0.01</speed>
  <fix>3d</fix>
</trkpt>
<trkpt lat="40.0728168" lon="-105.2306208">
  <ele>1596.42</ele>
  <time>2026-08-27T18:30:45Z</time>
  <course>115.4</course>
  <speed>0.0</speed>
  <fix>3d</fix>
</trkpt>
<trkpt lat="40.0728168" lon="-105.2306209">
  <ele>1596.49</ele>
  <time>2026-08-27T18:30:45Z</time>
  <course>346.77</course>
  <speed>0.01</speed>
  <fix>3d</fix>
</trkpt>
<trkpt lat="40.0728168" lon="-105.2306208">
  <ele>1596.42</ele>
  <time>2026-08-27T18:30:45Z</time>
  <course>117.56</course>
  <speed>0.0</speed>
  <fix>3d</fix>
</trkpt>
<trkpt lat="40.0728168" lon="-105.2306209">
  <ele>1596.49</ele>
  <time>2026-08-27T18:30:45Z</time>
  <course>346.76</course>
  <speed>0.01</speed>
  <fix>3d</fix>
</trkpt>
<trkpt lat="40.0728168" lon="-105.2306208">
  <ele>1596.42</ele>
  <time>2026-08-27T18:30:45Z</time>
  <course>120.51</course>
  <speed>0.0</speed>
  <fix>3d</fix>
</trkpt>
<trkpt lat="40.0728168" lon="-105.2306209">
  <ele>1596.49</ele>
  <time>2026-08-27T18:30:45Z</time>
  <course>346.75</course>
  <speed>0.01</speed>
  <fix>3d</fix>
</trkpt>
<trkpt lat="40.0728168" lon="-105.2306208">
  <ele>1596.43</ele>
  <time>2026-08-27T18:30:45Z</time>
  <course>123.16</course>
  <speed>0.0</speed>
  <fix>3d</fix>
</trkpt>
<trkpt lat="40.0728168" lon="-105.2306209">
  <ele>1596.49</ele>
  <time>2026-08-27T18:30:45Z</time>
  <course>346.74</course>
  <speed>0.01</speed>
  <fix>3d</fix>
</trkpt>
<trkpt lat="40.0728168" lon="-105.2306208">
  <ele>1596.43</ele>
  <time>2026-08-27T18:30:45Z</time>
  <course>123.1</course>
  <speed>0.0</speed>
  <fix>3d</fix>
</trkpt>
<trkpt lat="40.0728168" lon="-105.2306209">
  <ele>1596.5</ele>
  <time>2026-08-27T18:30:45Z</time>
  <course>346.74</course>
  <speed>0.01</speed>
  <fix>3d</fix>
</trkpt>
<trkpt lat="40.0728168" lon="-105.2306207">
  <ele>1596.43</ele>
  <time>2026-08-27T18:30:45Z</time>
  <course>122.98</course>
  <speed>0.0</speed>
  <fix>3d</fix>
</trkpt>
<trkpt lat="40.0728168" lon="-105.2306209">
  <ele>1596.5</ele>
  <time>2026-08-27T18:30:45Z</time>
  <course>346.74</course>
  <speed>0.01</speed>
  <fix>3d</fix>
</trkpt>
<trkpt lat="40.0728168" lon="-105.2306206">
  <ele>1596.44</ele>
  <time>2026-08-27T18:30:45Z</time>
  <course>124.91</course>
  <speed>0.0</speed>
  <fix>3d</fix>
</trkpt>
<trkpt lat="40.0728168" lon="-105.2306209">
  <ele>1596.51</ele>
  <time>2026-08-27T18:30:45Z</time>
  <course>346.74</course>
  <speed>0.01</speed>
  <fix>3d</fix>
</trkpt>
<trkpt lat="40.0728168" lon="-105.2306206">
  <ele>1596.44</ele>
  <time>2026-08-27T18:30:45Z</time>
  <course>126.21</course>
  <speed>0.0</speed>
  <fix>3d</fix>
</trkpt>
<trkpt lat="40.0728168" lon="-105.2306209">
  <ele>1596.52</ele>
  <time>2026-08-27T18:30:45Z</time>
  <course>346.77</course>
  <speed>0.01</speed>
  <fix>3d</fix>
</trkpt>
<trkpt lat="40.0728168" lon="-105.2306206">
  <ele>1596.45</ele>
  <time>2026-08-27T18:30:45Z</time>
  <course>127.36</course>
  <speed>0.0</speed>
  <fix>3d</fix>
</trkpt>
<trkpt lat="40.0728168" lon="-105.2306209">
  <ele>1596.52</ele>
  <time>2026-08-27T18:30:45Z</time>
  <course>346.79</course>
  <speed>0.01</speed>
  <fix>3d</fix>
</trkpt>
<trkpt lat="40.0728168" lon="-105.2306206">
  <ele>1596.45</ele>
  <time>2026-08-27T18:30:45Z</time>
  <course>129.48</course>
  <speed>0.0</speed>
  <fix>3d</fix>
</trkpt>
<trkpt lat="40.0728168" lon="-105.2306209">
  <ele>1596.52</ele>
  <time>2026-08-27T18:30:45Z</time>
  <course>346.81</course>
  <speed>0.02</speed>
  <fix>3d</fix>
</trkpt>
<trkpt lat="40.0728168" lon="-105.2306206">
  <ele>1596.45</ele>
  <time>2026-08-27T18:30:45Z</time>
  <course>131.87</course>
  <speed>0.0</speed>
  <fix>3d</fix>
</trkpt>
<trkpt lat="40.0728168" lon="-105.2306209">
  <ele>1596.52</ele>
  <time>2026-08-27T18:30:45Z</time>
  <course>346.83</course>
  <speed>0.02</speed>
  <fix>3d</fix>
</trkpt>
<trkpt lat="40.0728168" lon="-105.2306206">
  <ele>1596.45</ele>
  <time>2026-08-27T18:30:45Z</time>
  <course>136.06</course>
  <speed>0.0</speed>
  <fix>3d</fix>
</trkpt>
<trkpt lat="40.0728168" lon="-105.2306209">
  <ele>1596.52</ele>
  <time>2026-08-27T18:30:45Z</time>
  <course>346.84</course>
  <speed>0.02</speed>
  <fix>3d</fix>
</trkpt>
<trkpt lat="40.0728168" lon="-105.2306206">
  <ele>1596.45</ele>
  <time>2026-08-27T18:30:45Z</time>
  <course>142.07</course>
  <speed>0.0</speed>
  <fix>3d</fix>
</trkpt>
<trkpt lat="40.0728168" lon="-105.2306209">
  <ele>1596.52</ele>
  <time>2026-08-27T18:30:45Z</time>
  <course>346.84</course>
  <speed>0.022360679774997897</speed>
  <fix>3d</fix>
</trkpt>
<trkpt lat="40.0728168" lon="-105.2306206">
  <ele>1596.45</ele>
  <time>2026-08-27T18:30:45Z</time>
  <course>148.84</course>
  <speed>0.0</speed>
  <fix>3d</fix>
</trkpt>
<trkpt lat="40.0728168" lon="-105.2306209">
  <ele>1596.52</ele>
  <time>2026-08-27T18:30:45Z</time>
  <course>346.85</course>
  <speed>0.022360679774997897</speed>
  <fix>3d</fix>
</trkpt>
<trkpt lat="40.0728168" lon="-105.2306206">
  <ele>1596.45</ele>
  <time>2026-08-27T18:30:45Z</time>
  <course>154.6</course>
  <speed>0.0</speed>
  <fix>3d</fix>
</trkpt>
<trkpt lat="40.0728168" lon="-105.2306209">
  <ele>1596.52</ele>
  <time>2026-08-27T18:30:45Z</time>
  <course>346.85</course>
  <speed>0.022360679774997897</speed>
  <fix>3d</fix>
</trkpt>
<trkpt lat="40.0728168" lon="-105.2306206">
  <ele>1596.44</ele>
  <time>2026-08-27T18:30:45Z</time>
  <course>164.53</course>
  <speed>0.0</speed>
  <fix>3d</fix>
</trkpt>
<trkpt lat="40.0728168" lon="-105.2306209">
  <ele>1596.52</ele>
  <time>2026-08-27T18:30:45Z</time>
  <course>346.86</course>
  <speed>0.022360679774997897</speed>
  <fix>3d</fix>
</trkpt>
<trkpt lat="40.0728168" lon="-105.2306206">
  <ele>1596.44</ele>
  <time>2026-08-27T18:30:45Z</time>
  <course>181.83</course>
  <speed>0.0</speed>
  <fix>3d</fix>
</trkpt>
<trkpt lat="40.0728168" lon="-105.2306209">
  <ele>1596.52</ele>
  <time>2026-08-27T18:30:45Z</time>
  <course>346.86</course>
  <speed>0.022360679774997897</speed>
  <fix>3d</fix>
</trkpt>
<trkpt lat="40.0728167" lon="-105.2306206">
  <ele>1596.44</ele>
  <time>2026-08-27T18:30:45Z</time>
  <course>192.04</course>
  <speed>0.0</speed>
  <fix>3d</fix>
</trkpt>
<trkpt lat="40.0728168" lon="-105.2306209">
  <ele>1596.52</ele>
  <time>2026-08-27T18:30:45Z</time>
  <course>346.87</course>
  <speed>0.022360679774997897</speed>
  <fix>3d</fix>
</trkpt>
<trkpt lat="40.0728167" lon="-105.2306206">
  <ele>1596.44</ele>
  <time>2026-08-27T18:30:45Z</time>
  <course>194.69</course>
  <speed>0.0</speed>
  <fix>3d</fix>
</trkpt>
<trkpt lat="40.0728168" lon="-105.2306209">
  <ele>1596.53</ele>
  <time>2026-08-27T18:30:45Z</time>
  <course>346.87</course>
  <speed>0.022360679774997897</speed>
  <fix>3d</fix>
</trkpt>
<trkpt lat="40.0728167" lon="-105.2306206">
  <ele>1596.44</ele>
  <time>2026-08-27T18:30:45Z</time>
  <course>197.09</course>
  <speed>0.0</speed>
  <fix>3d</fix>
</trkpt>
<trkpt lat="40.0728168" lon="-105.2306209">
  <ele>1596.52</ele>
  <time>2026-08-27T18:30:45Z</time>
  <course>346.88</course>
  <speed>0.022360679774997897</speed>
  <fix>3d</fix>
</trkpt>
<trkpt lat="40.0728167" lon="-105.2306206">
  <ele>1596.43</ele>
  <time>2026-08-27T18:30:45Z</time>
  <course>201.07</course>
  <speed>0.0</speed>
  <fix>3d</fix>
</trkpt>
<trkpt lat="40.0728168" lon="-105.2306209">
  <ele>1596.52</ele>
  <time>2026-08-27T18:30:45Z</time>
  <course>346.88</course>
  <speed>0.022360679774997897</speed>
  <fix>3d</fix>
</trkpt>
<trkpt lat="40.0728167" lon="-105.2306206">
  <ele>1596.43</ele>
  <time>2026-08-27T18:30:45Z</time>
  <course>207.11</course>
  <speed>0.0</speed>
  <fix>3d</fix>
</trkpt>
<trkpt lat="40.0728168" lon="-105.2306209">
  <ele>1596.52</ele>
  <time>2026-08-27T18:30:45Z</time>
  <course>346.88</course>
  <speed>0.022360679774997897</speed>
  <fix>3d</fix>
</trkpt>
<trkpt lat="40.0728167" lon="-105.2306206">
  <ele>1596.43</ele>
  <time>2026-08-27T18:30:45Z</time>
  <course>218.75</course>
  <speed>0.0</speed>
  <fix>3d</fix>
</trkpt>
<trkpt lat="40.0728168" lon="-105.2306209">
  <ele>1596.52</ele>
  <time>2026-08-27T18:30:45Z</time>
  <course>346.88</course>
  <speed>0.022360679774997897</speed>
  <fix>3d</fix>
</trkpt>
<trkpt lat="40.0728167" lon="-105.2306206">
  <ele>1596.42</ele>
  <time>2026-08-27T18:30:45Z</time>
  <course>243.87</course>
  <speed>0.0</speed>
  <fix>3d</fix>
</trkpt>
<trkpt lat="40.0728168" lon="-105.2306209">
  <ele>1596.52</ele>
  <time>2026-08-27T18:30:45Z</time>
  <course>346.88</course>
  <speed>0.022360679774997897</speed>
  <fix>3d</fix>
</trkpt>
<trkpt lat="40.0728167" lon="-105.2306206">
  <ele>1596.42</ele>
  <time>2026-08-27T18:30:45Z</time>
  <course>268.65</course>
  <speed>0.0</speed>
  <fix>3d</fix>
</trkpt>
<trkpt lat="40.0728168" lon="-105.2306209">
  <ele>1596.52</ele>
  <time>2026-08-27T18:30:45Z</time>
  <course>346.87</course>
  <speed>0.022360679774997897</speed>
  <fix>3d</fix>
</trkpt>
<trkpt lat="40.0728167" lon="-105.2306206">
  <ele>1596.42</ele>
  <time>2026-08-27T18:30:45Z</time>
  <course>289.61</course>
  <speed>0.0</speed>
  <fix>3d</fix>
</trkpt>
<trkpt lat="40.0728168" lon="-105.2306209">
  <ele>1596.52</ele>
  <time>2026-08-27T18:30:45Z</time>
  <course>346.88</course>
  <speed>0.022360679774997897</speed>
  <fix>3d</fix>
</trkpt>
<trkpt lat="40.0728167" lon="-105.2306206">
  <ele>1596.42</ele>
  <time>2026-08-27T18:30:45Z</time>
  <course>300.47</course>
  <speed>0.0</speed>
  <fix>3d</fix>
</trkpt>
<trkpt lat="40.0728168" lon="-105.2306209">
  <ele>1596.52</ele>
  <time>2026-08-27T18:30:45Z</time>
  <course>346.88</course>
  <speed>0.022360679774997897</speed>
  <fix>3d</fix>
</trkpt>
<trkpt lat="40.0728167" lon="-105.2306206">
  <ele>1596.41</ele>
  <time>2026-08-27T18:30:45Z</time>
  <course>302.48</course>
  <speed>0.0</speed>
  <fix>3d</fix>
</trkpt>
<trkpt lat="40.0728168" lon="-105.2306209">
  <ele>1596.52</ele>
  <time>2026-08-27T18:30:45Z</time>
  <course>346.88</course>
  <speed>0.022360679774997897</speed>
  <fix>3d</fix>
</trkpt>
<trkpt lat="40.0728167" lon="-105.2306206">
  <ele>1596.41</ele>
  <time>2026-08-27T18:30:45Z</time>
  <course>303.45</course>
  <speed>0.0</speed>
  <fix>3d</fix>
</trkpt>
<trkpt lat="40.0728168" lon="-105.2306209">
  <ele>1596.52</ele>
  <time>2026-08-27T18:30:45Z</time>
  <course>346.88</course>
  <speed>0.022360679774997897</speed>
  <fix>3d</fix>
</trkpt>
<trkpt lat="40.0728167" lon="-105.2306206">
  <ele>1596.41</ele>
  <time>2026-08-27T18:30:45Z</time>
  <course>306.14</course>
  <speed>0.0</speed>
  <fix>3d</fix>
</trkpt>
<trkpt lat="40.0728168" lon="-105.2306209">
  <ele>1596.52</ele>
  <time>2026-08-27T18:30:45Z</time>
  <course>346.88</course>
  <speed>0.022360679774997897</speed>
  <fix>3d</fix>
</trkpt>
<trkpt lat="40.0728167" lon="-105.2306206">
  <ele>1596.41</ele>
  <time>2026-08-27T18:30:45Z</time>
  <course>312.63</course>
  <speed>0.0</speed>
  <fix>3d</fix>
</trkpt>
<trkpt lat="40.0728168" lon="-105.2306209">
  <ele>1596.52</ele>
  <time>2026-08-27T18:30:45Z</time>
  <course>346.88</course>
  <speed>0.022360679774997897</speed>
  <fix>3d</fix>
</trkpt>
<trkpt lat="40.0728167" lon="-105.2306206">
  <ele>1596.41</ele>
  <time>2026-08-27T18:30:45Z</time>
  <course>316.66</course>
  <speed>0.0</speed>
  <fix>3d</fix>
</trkpt>
<trkpt lat="40.0728168" lon="-105.2306209">
  <ele>1596.51</ele>
  <time>2026-08-27T18:30:45Z</time>
  <course>346.88</course>
  <speed>0.022360679774997897</speed>
  <fix>3d</fix>
</trkpt>
<trkpt lat="40.0728167" lon="-105.2306206">
  <ele>1596.4</ele>
  <time>2026-08-27T18:30:45Z</time>
  <course>317.24</course>
  <speed>0.0</speed>
  <fix>3d</fix>
</trkpt>
<trkpt lat="40.0728168" lon="-105.2306209">
  <ele>1596.51</ele>
  <time>2026-08-27T18:30:45Z</time>
  <course>346.86</course>
  <speed>0.022360679774997897</speed>
  <fix>3d</fix>
</trkpt>
<trkpt lat="40.0728167" lon="-105.2306206">
  <ele>1596.4</ele>
  <time>2026-08-27T18:30:45Z</time>
  <course>322.45</course>
  <speed>0.0</speed>
  <fix>3d</fix>
</trkpt>
<trkpt lat="40.0728168" lon="-105.2306209">
  <ele>1596.51</ele>
  <time>2026-08-27T18:30:45Z</time>
  <course>346.84</course>
  <speed>0.022360679774997897</speed>
  <fix>3d</fix>
</trkpt>
<trkpt lat="40.0728167" lon="-105.2306206">
  <ele>1596.4</ele>
  <time>2026-08-27T18:30:45Z</time>
  <course>328.18</course>
  <speed>0.0</speed>
  <fix>3d</fix>
</trkpt>
<trkpt lat="40.0728168" lon="-105.2306209">
  <ele>1596.51</ele>
  <time>2026-08-27T18:30:45Z</time>
  <course>346.82</course>
  <speed>0.022360679774997897</speed>
  <fix>3d</fix>
</trkpt>
<trkpt lat="40.0728167" lon="-105.2306206">
  <ele>1596.4</ele>
  <time>2026-08-27T18:30:45Z</time>
  <course>327.57</course>
  <speed>0.0</speed>
  <fix>3d</fix>
</trkpt>
<trkpt lat="40.0728168" lon="-105.2306209">
  <ele>1596.5</ele>
  <time>2026-08-27T18:30:45Z</time>
  <course>346.81</course>
  <speed>0.022360679774997897</speed>
  <fix>3d</fix>
</trkpt>
<trkpt lat="40.0728167" lon="-105.2306206">
  <ele>1596.4</ele>
  <time>2026-08-27T18:30:45Z</time>
  <course>323.55</course>
  <speed>0.0</speed>
  <fix>3d</fix>
</trkpt>
<trkpt lat="40.0728168" lon="-105.2306209">
  <ele>1596.5</ele>
  <time>2026-08-27T18:30:45Z</time>
  <course>346.8</course>
  <speed>0.022360679774997897</speed>
  <fix>3d</fix>
</trkpt>
<trkpt lat="40.0728167" lon="-105.2306206">
  <ele>1596.4</ele>
  <time>2026-08-27T18:30:45Z</time>
  <course>318.52</course>
  <speed>0.0</speed>
  <fix>3d</fix>
</trkpt>
<trkpt lat="40.0728168" lon="-105.2306209">
  <ele>1596.49</ele>
  <time>2026-08-27T18:30:45Z</time>
  <course>346.79</course>
  <speed>0.022360679774997897</speed>
  <fix>3d</fix>
</trkpt>
<trkpt lat="40.0728167" lon="-105.2306206">
  <ele>1596.4</ele>
  <time>2026-08-27T18:30:45Z</time>
  <course>313.34</course>
  <speed>0.0</speed>
  <fix>3d</fix>
</trkpt>
<trkpt lat="40.0728168" lon="-105.2306209">
  <ele>1596.49</ele>
  <time>2026-08-27T18:30:45Z</time>
  <course>346.77</course>
  <speed>0.022360679774997897</speed>
  <fix>3d</fix>
</trkpt>
<trkpt lat="40.0728167" lon="-105.2306206">
  <ele>1596.4</ele>
  <time>2026-08-27T18:30:45Z</time>
  <course>314.3</course>
  <speed>0.0</speed>
  <fix>3d</fix>
</trkpt>
<trkpt lat="40.0728168" lon="-105.2306209">
  <ele>1596.49</ele>
  <time>2026-08-27T18:30:45Z</time>
  <course>346.74</course>
  <speed>0.022360679774997897</speed>
  <fix>3d</fix>
</trkpt>
<trkpt lat="40.0728167" lon="-105.2306206">
  <ele>1596.4</ele>
  <time>2026-08-27T18:30:45Z</time>
  <course>317.34</course>
  <speed>0.0</speed>
  <fix>3d</fix>
</trkpt>
<trkpt lat="40.0728168" lon="-105.2306209">
  <ele>1596.5</ele>
  <time>2026-08-27T18:30:45Z</time>
  <course>346.72</course>
  <speed>0.022360679774997897</speed>
  <fix>3d</fix>
</trkpt>
<trkpt lat="40.0728167" lon="-105.2306206">
  <ele>1596.4</ele>
  <time>2026-08-27T18:30:45Z</time>
  <course>315.27</course>
  <speed>0.0</speed>
  <fix>3d</fix>
</trkpt>
<trkpt lat="40.0728168" lon="-105.2306209">
  <ele>1596.5</ele>
  <time>2026-08-27T18:30:45Z</time>
  <course>346.71</course>
  <speed>0.022360679774997897</speed>
  <fix>3d</fix>
</trkpt>
<trkpt lat="40.0728167" lon="-105.2306206">
  <ele>1596.4</ele>
  <time>2026-08-27T18:30:45Z</time>
  <course>309.54</course>
  <speed>0.0</speed>
  <fix>3d</fix>
</trkpt>
<trkpt lat="40.0728168" lon="-105.2306209">
  <ele>1596.5</ele>
  <time>2026-08-27T18:30:45Z</time>
  <course>346.71</course>
  <speed>0.022360679774997897</speed>
  <fix>3d</fix>
</trkpt>
<trkpt lat="40.0728167" lon="-105.2306206">
  <ele>1596.41</ele>
  <time>2026-08-27T18:30:45Z</time>
  <course>305.51</course>
  <speed>0.0</speed>
  <fix>3d</fix>
</trkpt>
<trkpt lat="40.0728168" lon="-105.2306209">
  <ele>1596.5</ele>
  <time>2026-08-27T18:30:45Z</time>
  <course>346.73</course>
  <speed>0.022360679774997897</speed>
  <fix>3d</fix>
</trkpt>
<trkpt lat="40.0728167" lon="-105.2306206">
  <ele>1596.41</ele>
  <time>2026-08-27T18:30:45Z</time>
  <course>307.97</course>
  <speed>0.0</speed>
  <fix>3d</fix>
</trkpt>
<trkpt lat="40.0728168" lon="-105.2306209">
  <ele>1596.5</ele>
  <time>2026-08-27T18:30:45Z</time>
  <course>346.72</course>
  <speed>0.022360679774997897</speed>
  <fix>3d</fix>
</trkpt>
<trkpt lat="40.0728167" lon="-105.2306206">
  <ele>1596.41</ele>
  <time>2026-08-27T18:30:45Z</time>
  <course>313.69</course>
  <speed>0.0</speed>
  <fix>3d</fix>
</trkpt>
<trkpt lat="40.0728168" lon="-105.2306209">
  <ele>1596.5</ele>
  <time>2026-08-27T18:30:45Z</time>
  <course>346.71</course>
  <speed>0.022360679774997897</speed>
  <fix>3d</fix>
</trkpt>
<trkpt lat="40.0728167" lon="-105.2306206">
  <ele>1596.42</ele>
  <time>2026-08-27T18:30:45Z</time>
  <course>315.58</course>
  <speed>0.0</speed>
  <fix>3d</fix>
</trkpt>
<trkpt lat="40.0728168" lon="-105.2306209">
  <ele>1596.5</ele>
  <time>2026-08-27T18:30:45Z</time>
  <course>346.7</course>
  <speed>0.022360679774997897</speed>
  <fix>3d</fix>
</trkpt>
<trkpt lat="40.0728167" lon="-105.2306206">
  <ele>1596.42</ele>
  <time>2026-08-27T18:30:45Z</time>
  <course>314.18</course>
  <speed>0.0</speed>
  <fix>3d</fix>
</trkpt>
<trkpt lat="40.0728168" lon="-105.2306209">
  <ele>1596.5</ele>
  <time>2026-08-27T18:30:45Z</time>
  <course>346.7</course>
  <speed>0.022360679774997897</speed>
  <fix>3d</fix>
</trkpt>
<trkpt lat="40.0728167" lon="-105.2306206">
  <ele>1596.42</ele>
  <time>2026-08-27T18:30:45Z</time>
  <course>314.16</course>
  <speed>0.0</speed>
  <fix>3d</fix>
</trkpt>
<trkpt lat="40.0728168" lon="-105.2306209">
  <ele>1596.5</ele>
  <time>2026-08-27T18:30:45Z</time>
  <course>346.69</course>
  <speed>0.022360679774997897</speed>
  <fix>3d</fix>
</trkpt>
<trkpt lat="40.0728167" lon="-105.2306206">
  <ele>1596.42</ele>
  <time>2026-08-27T18:30:45Z</time>
  <course>315.07</course>
  <speed>0.0</speed>
  <fix>3d</fix>
</trkpt>
<trkpt lat="40.0728168" lon="-105.2306209">
  <ele>1596.5</ele>
  <time>2026-08-27T18:30:45Z</time>
  <course>346.7</course>
  <speed>0.022360679774997897</speed>
  <fix>3d</fix>
</trkpt>
<trkpt lat="40.0728168" lon="-105.2306207">
  <ele>1596.43</ele>
  <time>2026-08-27T18:30:45Z</time>
  <course>314.69</course>
  <speed>0.0</speed>
  <fix>3d</fix>
</trkpt>
<trkpt lat="40.0728168" lon="-105.2306209">
  <ele>1596.51</ele>
  <time>2026-08-27T18:30:45Z</time>
  <course>346.72</course>
  <speed>0.022360679774997897</speed>
  <fix>3d</fix>
</trkpt>
<trkpt lat="40.0728168" lon="-105.2306208">
  <ele>1596.43</ele>
  <time>2026-08-27T18:30:45Z</time>
  <course>314.22</course>
  <speed>0.0</speed>
  <fix>3d</fix>
</trkpt>
<trkpt lat="40.0728168" lon="-105.2306209">
  <ele>1596.5</ele>
  <time>2026-08-27T18:30:45Z</time>
  <course>346.73</course>
  <speed>0.022360679774997897</speed>
  <fix>3d</fix>
</trkpt>
<trkpt lat="40.0728168" lon="-105.2306208">
  <ele>1596.43</ele>
  <time>2026-08-27T18:30:45Z</time>
  <course>316.11</course>
  <speed>0.0</speed>
  <fix>3d</fix>
</trkpt>
<trkpt lat="40.0728168" lon="-105.2306209">
  <ele>1596.5</ele>
  <time>2026-08-27T18:30:45Z</time>
  <course>346.73</course>
  <speed>0.022360679774997897</speed>
  <fix>3d</fix>
</trkpt>
<trkpt lat="40.0728168" lon="-105.2306208">
  <ele>1596.43</ele>
  <time>2026-08-27T18:30:45Z</time>
  <course>320.58</course>
  <speed>0.0</speed>
  <fix>3d</fix>
</trkpt>
<trkpt lat="40.0728168" lon="-105.2306209">
  <ele>1596.51</ele>
  <time>2026-08-27T18:30:45Z</time>
  <course>346.72</course>
  <speed>0.022360679774997897</speed>
  <fix>3d</fix>
</trkpt>
<trkpt lat="40.0728168" lon="-105.2306208">
  <ele>1596.43</ele>
  <time>2026-08-27T18:30:45Z</time>
  <course>329.23</course>
  <speed>0.0</speed>
  <fix>3d</fix>
</trkpt>
<trkpt lat="40.0728168" lon="-105.2306209">
  <ele>1596.51</ele>
  <time>2026-08-27T18:30:45Z</time>
  <course>346.71</course>
  <speed>0.022360679774997897</speed>
  <fix>3d</fix>
</trkpt>
<trkpt lat="40.0728168" lon="-105.2306208">
  <ele>1596.44</ele>
  <time>2026-08-27T18:30:45Z</time>
  <course>338.78</course>
  <speed>0.0</speed>
  <fix>3d</fix>
</trkpt>
<trkpt lat="40.0728168" lon="-105.2306209">
  <ele>1596.51</ele>
  <time>2026-08-27T18:30:45Z</time>
  <course>346.72</course>
  <speed>0.02</speed>
  <fix>3d</fix>
</trkpt>
<trkpt lat="40.0728168" lon="-105.2306208">
  <ele>1596.44</ele>
  <time>2026-08-27T18:30:45Z</time>
  <course>9.61</course>
  <speed>0.0</speed>
  <fix>3d</fix>
</trkpt>
<trkpt lat="40.0728168" lon="-105.2306209">
  <ele>1596.51</ele>
  <time>2026-08-27T18:30:45Z</time>
  <course>346.71</course>
  <speed>0.02</speed>
  <fix>3d</fix>
</trkpt>
<trkpt lat="40.0728168" lon="-105.2306208">
  <ele>1596.44</ele>
  <time>2026-08-27T18:30:45Z</time>
  <course>130.38</course>
  <speed>0.0</speed>
  <fix>3d</fix>
</trkpt>
<trkpt lat="40.0728168" lon="-105.2306209">
  <ele>1596.51</ele>
  <time>2026-08-27T18:30:45Z</time>
  <course>346.71</course>
  <speed>0.02</speed>
  <fix>3d</fix>
</trkpt>
<trkpt lat="40.0728168" lon="-105.2306208">
  <ele>1596.44</ele>
  <time>2026-08-27T18:30:45Z</time>
  <course>133.51</course>
  <speed>0.0</speed>
  <fix>3d</fix>
</trkpt>
<trkpt lat="40.0728168" lon="-105.2306209">
  <ele>1596.51</ele>
  <time>2026-08-27T18:30:45Z</time>
  <course>346.7</course>
  <speed>0.02</speed>
  <fix>3d</fix>
</trkpt>
<trkpt lat="40.0728168" lon="-105.2306208">
  <ele>1596.44</ele>
  <time>2026-08-27T18:30:45Z</time>
  <course>129.77</course>
  <speed>0.0</speed>
  <fix>3d</fix>
</trkpt>
<trkpt lat="40.0728168" lon="-105.2306209">
  <ele>1596.51</ele>
  <time>2026-08-27T18:30:45Z</time>
  <course>346.7</course>
  <speed>0.01</speed>
  <fix>3d</fix>
</trkpt>
<trkpt lat="40.0728168" lon="-105.2306208">
  <ele>1596.44</ele>
  <time>2026-08-27T18:30:45Z</time>
  <course>126.58</course>
  <speed>0.0</speed>
  <fix>3d</fix>
</trkpt>
<trkpt lat="40.0728168" lon="-105.2306209">
  <ele>1596.51</ele>
  <time>2026-08-27T18:30:45Z</time>
  <course>346.7</course>
  <speed>0.01</speed>
  <fix>3d</fix>
</trkpt>
<trkpt lat="40.0728168" lon="-105.2306208">
  <ele>1596.44</ele>
  <time>2026-08-27T18:30:45Z</time>
  <course>124.78</course>
  <speed>0.0</speed>
  <fix>3d</fix>
</trkpt>
<trkpt lat="40.0728168" lon="-105.2306209">
  <ele>1596.51</ele>
  <time>2026-08-27T18:30:45Z</time>
  <course>346.71</course>
  <speed>0.01</speed>
  <fix>3d</fix>
</trkpt>
<trkpt lat="40.0728168" lon="-105.2306208">
  <ele>1596.44</ele>
  <time>2026-08-27T18:30:45Z</time>
  <course>122.39</course>
  <speed>0.0</speed>
  <fix>3d</fix>
</trkpt>
<trkpt lat="40.0728168" lon="-105.2306209">
  <ele>1596.52</ele>
  <time>2026-08-27T18:30:45Z</time>
  <course>346.71</course>
  <speed>0.01</speed>
  <fix>3d</fix>
</trkpt>
<trkpt lat="40.0728168" lon="-105.2306208">
  <ele>1596.44</ele>
  <time>2026-08-27T18:30:45Z</time>
  <course>118.06</course>
  <speed>0.0</speed>
  <fix>3d</fix>
</trkpt>
<trkpt lat="40.0728168" lon="-105.2306209">
  <ele>1596.51</ele>
  <time>2026-08-27T18:30:45Z</time>
  <course>346.72</course>
  <speed>0.01</speed>
  <fix>3d</fix>
</trkpt>
<trkpt lat="40.0728168" lon="-105.2306208">
  <ele>1596.44</ele>
  <time>2026-08-27T18:30:45Z</time>
  <course>114.12</course>
  <speed>0.0</speed>
  <fix>3d</fix>
</trkpt>
<trkpt lat="40.0728168" lon="-105.2306209">
  <ele>1596.51</ele>
  <time>2026-08-27T18:30:45Z</time>
  <course>346.74</course>
  <speed>0.01</speed>
  <fix>3d</fix>
</trkpt>
<trkpt lat="40.0728168" lon="-105.2306208">
  <ele>1596.44</ele>
  <time>2026-08-27T18:30:45Z</time>
  <course>110.81</course>
  <speed>0.0</speed>
  <fix>3d</fix>
</trkpt>
<trkpt lat="40.0728168" lon="-105.2306209">
  <ele>1596.51</ele>
  <time>2026-08-27T18:30:45Z</time>
  <course>346.74</course>
  <speed>0.01</speed>
  <fix>3d</fix>
</trkpt>
<trkpt lat="40.0728168" lon="-105.2306208">
  <ele>1596.44</ele>
  <time>2026-08-27T18:30:45Z</time>
  <course>107.24</course>
  <speed>0.0</speed>
  <fix>3d</fix>
</trkpt>
<trkpt lat="40.0728168" lon="-105.2306209">
  <ele>1596.51</ele>
  <time>2026-08-27T18:30:45Z</time>
  <course>346.75</course>
  <speed>0.01</speed>
  <fix>3d</fix>
</trkpt>
<trkpt lat="40.0728168" lon="-105.2306207">
  <ele>1596.44</ele>
  <time>2026-08-27T18:30:46Z</time>
  <course>105.1</course>
  <speed>0.0</speed>
  <fix>3d</fix>
</trkpt>
<trkpt lat="40.0728168" lon="-105.2306209">
  <ele>1596.51</ele>
  <time>2026-08-27T18:30:46Z</time>
  <course>346.74</course>
  <speed>0.01</speed>
  <fix>3d</fix>
</trkpt>
<trkpt lat="40.0728168" lon="-105.2306206">
  <ele>1596.44</ele>
  <time>2026-08-27T18:30:46Z</time>
  <course>105.67</course>
  <speed>0.01</speed>
  <fix>3d</fix>
</trkpt>
<trkpt lat="40.0728168" lon="-105.2306209">
  <ele>1596.51</ele>
  <time>2026-08-27T18:30:46Z</time>
  <course>346.73</course>
  <speed>0.01414213562373095</speed>
  <fix>3d</fix>
</trkpt>
<trkpt lat="40.0728168" lon="-105.2306206">
  <ele>1596.44</ele>
  <time>2026-08-27T18:30:46Z</time>
  <course>107.06</course>
  <speed>0.01</speed>
  <fix>3d</fix>
</trkpt>
<trkpt lat="40.0728168" lon="-105.2306209">
  <ele>1596.5</ele>
  <time>2026-08-27T18:30:46Z</time>
  <course>346.72</course>
  <speed>0.01414213562373095</speed>
  <fix>3d</fix>
</trkpt>
<trkpt lat="40.0728168" lon="-105.2306206">
  <ele>1596.44</ele>
  <time>2026-08-27T18:30:46Z</time>
  <course>107.43</course>
  <speed>0.0</speed>
  <fix>3d</fix>
</trkpt>
<trkpt lat="40.0728168" lon="-105.2306209">
  <ele>1596.5</ele>
  <time>2026-08-27T18:30:46Z</time>
  <course>346.72</course>
  <speed>0.01414213562373095</speed>
  <fix>3d</fix>
</trkpt>
<trkpt lat="40.0728168" lon="-105.2306206">
  <ele>1596.44</ele>
  <time>2026-08-27T18:30:46Z</time>
  <course>108.78</course>
  <speed>0.0</speed>
  <fix>3d</fix>
</trkpt>
<trkpt lat="40.0728168" lon="-105.2306209">
  <ele>1596.5</ele>
  <time>2026-08-27T18:30:46Z</time>
  <course>346.71</course>
  <speed>0.01</speed>
  <fix>3d</fix>
</trkpt>
<trkpt lat="40.0728168" lon="-105.2306206">
  <ele>1596.44</ele>
  <time>2026-08-27T18:30:46Z</time>
  <course>113.78</course>
  <speed>0.0</speed>
  <fix>3d</fix>
</trkpt>
<trkpt lat="40.0728168" lon="-105.2306208">
  <ele>1596.5</ele>
  <time>2026-08-27T18:30:46Z</time>
  <course>346.7</course>
  <speed>0.02</speed>
  <fix>3d</fix>
</trkpt>
<trkpt lat="40.0728168" lon="-105.2306206">
  <ele>1596.44</ele>
  <time>2026-08-27T18:30:46Z</time>
  <course>123.99</course>
  <speed>0.0</speed>
  <fix>3d</fix>
</trkpt>
<trkpt lat="40.0728168" lon="-105.2306208">
  <ele>1596.5</ele>
  <time>2026-08-27T18:30:46Z</time>
  <course>346.69</course>
  <speed>0.02</speed>
  <fix>3d</fix>
</trkpt>
<trkpt lat="40.0728168" lon="-105.2306206">
  <ele>1596.44</ele>
  <time>2026-08-27T18:30:46Z</time>
  <course>136.4</course>
  <speed>0.0</speed>
  <fix>3d</fix>
</trkpt>
<trkpt lat="40.0728168" lon="-105.2306208">
  <ele>1596.51</ele>
  <time>2026-08-27T18:30:46Z</time>
  <course>346.69</course>
  <speed>0.02</speed>
  <fix>3d</fix>
</trkpt>
<trkpt lat="40.0728168" lon="-105.2306206">
  <ele>1596.45</ele>
  <time>2026-08-27T18:30:46Z</time>
  <course>152.16</course>
  <speed>0.0</speed>
  <fix>3d</fix>
</trkpt>
<trkpt lat="40.0728168" lon="-105.2306208">
  <ele>1596.51</ele>
  <time>2026-08-27T18:30:46Z</time>
  <course>346.69</course>
  <speed>0.02</speed>
  <fix>3d</fix>
</trkpt>
<trkpt lat="40.0728168" lon="-105.2306206">
  <ele>1596.45</ele>
  <time>2026-08-27T18:30:46Z</time>
  <course>168.84</course>
  <speed>0.0</speed>
  <fix>3d</fix>
</trkpt>
<trkpt lat="40.0728168" lon="-105.2306208">
  <ele>1596.52</ele>
  <time>2026-08-27T18:30:46Z</time>
  <course>346.7</course>
  <speed>0.02</speed>
  <fix>3d</fix>
</trkpt>
<trkpt lat="40.0728168" lon="-105.2306206">
  <ele>1596.45</ele>
  <time>2026-08-27T18:30:46Z</time>
  <course>179.9</course>
  <speed>0.0</speed>
  <fix>3d</fix>
</trkpt>
<trkpt lat="40.0728168" lon="-105.2306208">
  <ele>1596.52</ele>
  <time>2026-08-27T18:30:46Z</time>
  <course>346.7</course>
  <speed>0.02</speed>
  <fix>3d</fix>
</trkpt>
<trkpt lat="40.0728168" lon="-105.2306206">
  <ele>1596.45</ele>
  <time>2026-08-27T18:30:46Z</time>
  <course>188.66</course>
  <speed>0.0</speed>
  <fix>3d</fix>
</trkpt>
<trkpt lat="40.0728168" lon="-105.2306208">
  <ele>1596.52</ele>
  <time>2026-08-27T18:30:46Z</time>
  <course>346.71</course>
  <speed>0.02</speed>
  <fix>3d</fix>
</trkpt>
<trkpt lat="40.0728167" lon="-105.2306206">
  <ele>1596.45</ele>
  <time>2026-08-27T18:30:46Z</time>
  <course>192.77</course>
  <speed>0.0</speed>
  <fix>3d</fix>
</trkpt>
<trkpt lat="40.0728168" lon="-105.2306208">
  <ele>1596.52</ele>
  <time>2026-08-27T18:30:46Z</time>
  <course>346.72</course>
  <speed>0.02</speed>
  <fix>3d</fix>
</trkpt>
<trkpt lat="40.0728167" lon="-105.2306206">
  <ele>1596.45</ele>
  <time>2026-08-27T18:30:46Z</time>
  <course>194.24</course>
  <speed>0.0</speed>
  <fix>3d</fix>
</trkpt>
<trkpt lat="40.0728168" lon="-105.2306208">
  <ele>1596.52</ele>
  <time>2026-08-27T18:30:46Z</time>
  <course>346.73</course>
  <speed>0.02</speed>
  <fix>3d</fix>
</trkpt>
<trkpt lat="40.0728167" lon="-105.2306206">
  <ele>1596.45</ele>
  <time>2026-08-27T18:30:46Z</time>
  <course>198.51</course>
  <speed>0.0</speed>
  <fix>3d</fix>
</trkpt>
<trkpt lat="40.0728168" lon="-105.2306208">
  <ele>1596.52</ele>
  <time>2026-08-27T18:30:46Z</time>
  <course>346.73</course>
  <speed>0.022360679774997897</speed>
  <fix>3d</fix>
</trkpt>
<trkpt lat="40.0728167" lon="-105.2306206">
  <ele>1596.45</ele>
  <time>2026-08-27T18:30:46Z</time>
  <course>206.79</course>
  <speed>0.0</speed>
  <fix>3d</fix>
</trkpt>
<trkpt lat="40.0728168" lon="-105.2306208">
  <ele>1596.52</ele>
  <time>2026-08-27T18:30:46Z</time>
  <course>346.74</course>
  <speed>0.022360679774997897</speed>
  <fix>3d</fix>
</trkpt>
<trkpt lat="40.0728167" lon="-105.2306206">
  <ele>1596.45</ele>
  <time>2026-08-27T18:30:46Z</time>
  <course>220.05</course>
  <speed>0.0</speed>
  <fix>3d</fix>
</trkpt>
<trkpt lat="40.0728168" lon="-105.2306208">
  <ele>1596.52</ele>
  <time>2026-08-27T18:30:46Z</time>
  <course>346.75</course>
  <speed>0.022360679774997897</speed>
  <fix>3d</fix>
</trkpt>
<trkpt lat="40.0728167" lon="-105.2306206">
  <ele>1596.45</ele>
  <time>2026-08-27T18:30:46Z</time>
  <course>237.66</course>
  <speed>0.0</speed>
  <fix>3d</fix>
</trkpt>
<trkpt lat="40.0728168" lon="-105.2306208">
  <ele>1596.51</ele>
  <time>2026-08-27T18:30:46Z</time>
  <course>346.74</course>
  <speed>0.022360679774997897</speed>
  <fix>3d</fix>
</trkpt>
<trkpt lat="40.0728167" lon="-105.2306206">
  <ele>1596.45</ele>
  <time>2026-08-27T18:30:46Z</time>
  <course>258.43</course>
  <speed>0.0</speed>
  <fix>3d</fix>
</trkpt>
<trkpt lat="40.0728168" lon="-105.2306208">
  <ele>1596.51</ele>
  <time>2026-08-27T18:30:46Z</time>
  <course>346.74</course>
  <speed>0.022360679774997897</speed>
  <fix>3d</fix>
</trkpt>
<trkpt lat="40.0728167" lon="-105.2306206">
  <ele>1596.45</ele>
  <time>2026-08-27T18:30:46Z</time>
  <course>282.53</course>
  <speed>0.0</speed>
  <fix>3d</fix>
</trkpt>
<trkpt lat="40.0728168" lon="-105.2306208">
  <ele>1596.51</ele>
  <time>2026-08-27T18:30:46Z</time>
  <course>346.73</course>
  <speed>0.022360679774997897</speed>
  <fix>3d</fix>
</trkpt>
<trkpt lat="40.0728167" lon="-105.2306206">
  <ele>1596.44</ele>
  <time>2026-08-27T18:30:46Z</time>
  <course>298.63</course>
  <speed>0.0</speed>
  <fix>3d</fix>
</trkpt>
<trkpt lat="40.0728168" lon="-105.2306208">
  <ele>1596.51</ele>
  <time>2026-08-27T18:30:46Z</time>
  <course>346.72</course>
  <speed>0.022360679774997897</speed>
  <fix>3d</fix>
</trkpt>
<trkpt lat="40.0728167" lon="-105.2306206">
  <ele>1596.44</ele>
  <time>2026-08-27T18:30:46Z</time>
  <course>305.35</course>
  <speed>0.0</speed>
  <fix>3d</fix>
</trkpt>
<trkpt lat="40.0728168" lon="-105.2306208">
  <ele>1596.51</ele>
  <time>2026-08-27T18:30:46Z</time>
  <course>346.72</course>
  <speed>0.022360679774997897</speed>
  <fix>3d</fix>
</trkpt>
<trkpt lat="40.0728167" lon="-105.2306206">
  <ele>1596.44</ele>
  <time>2026-08-27T18:30:46Z</time>
  <course>310.68</course>
  <speed>0.0</speed>
  <fix>3d</fix>
</trkpt>
<trkpt lat="40.0728168" lon="-105.2306208">
  <ele>1596.51</ele>
  <time>2026-08-27T18:30:46Z</time>
  <course>346.72</course>
  <speed>0.022360679774997897</speed>
  <fix>3d</fix>
</trkpt>
<trkpt lat="40.0728167" lon="-105.2306206">
  <ele>1596.44</ele>
  <time>2026-08-27T18:30:46Z</time>
  <course>314.14</course>
  <speed>0.0</speed>
  <fix>3d</fix>
</trkpt>
<trkpt lat="40.0728168" lon="-105.2306208">
  <ele>1596.51</ele>
  <time>2026-08-27T18:30:46Z</time>
  <course>346.72</course>
  <speed>0.022360679774997897</speed>
  <fix>3d</fix>
</trkpt>
<trkpt lat="40.0728167" lon="-105.2306206">
  <ele>1596.44</ele>
  <time>2026-08-27T18:30:46Z</time>
  <course>316.69</course>
  <speed>0.0</speed>
  <fix>3d</fix>
</trkpt>
<trkpt lat="40.0728168" lon="-105.2306208">
  <ele>1596.5</ele>
  <time>2026-08-27T18:30:46Z</time>
  <course>346.72</course>
  <speed>0.022360679774997897</speed>
  <fix>3d</fix>
</trkpt>
<trkpt lat="40.0728167" lon="-105.2306206">
  <ele>1596.44</ele>
  <time>2026-08-27T18:30:46Z</time>
  <course>318.7</course>
  <speed>0.0</speed>
  <fix>3d</fix>
</trkpt>
<trkpt lat="40.0728168" lon="-105.2306208">
  <ele>1596.5</ele>
  <time>2026-08-27T18:30:46Z</time>
  <course>346.72</course>
  <speed>0.022360679774997897</speed>
  <fix>3d</fix>
</trkpt>
<trkpt lat="40.0728167" lon="-105.2306206">
  <ele>1596.44</ele>
  <time>2026-08-27T18:30:46Z</time>
  <course>320.21</course>
  <speed>0.0</speed>
  <fix>3d</fix>
</trkpt>
<trkpt lat="40.0728168" lon="-105.2306208">
  <ele>1596.5</ele>
  <time>2026-08-27T18:30:46Z</time>
  <course>346.71</course>
  <speed>0.022360679774997897</speed>
  <fix>3d</fix>
</trkpt>
<trkpt lat="40.0728167" lon="-105.2306206">
  <ele>1596.44</ele>
  <time>2026-08-27T18:30:46Z</time>
  <course>321.48</course>
  <speed>0.0</speed>
  <fix>3d</fix>
</trkpt>
<trkpt lat="40.0728168" lon="-105.2306208">
  <ele>1596.5</ele>
  <time>2026-08-27T18:30:46Z</time>
  <course>346.69</course>
  <speed>0.022360679774997897</speed>
  <fix>3d</fix>
</trkpt>
<trkpt lat="40.0728167" lon="-105.2306206">
  <ele>1596.44</ele>
  <time>2026-08-27T18:30:46Z</time>
  <course>320.55</course>
  <speed>0.0</speed>
  <fix>3d</fix>
</trkpt>
<trkpt lat="40.0728168" lon="-105.2306208">
  <ele>1596.5</ele>
  <time>2026-08-27T18:30:46Z</time>
  <course>346.67</course>
  <speed>0.022360679774997897</speed>
  <fix>3d</fix>
</trkpt>
<trkpt lat="40.0728167" lon="-105.2306206">
  <ele>1596.45</ele>
  <time>2026-08-27T18:30:46Z</time>
  <course>315.24</course>
  <speed>0.0</speed>
  <fix>3d</fix>
</trkpt>
<trkpt lat="40.0728168" lon="-105.2306208">
  <ele>1596.5</ele>
  <time>2026-08-27T18:30:46Z</time>
  <course>346.65</course>
  <speed>0.022360679774997897</speed>
  <fix>3d</fix>
</trkpt>
<trkpt lat="40.0728167" lon="-105.2306206">
  <ele>1596.45</ele>
  <time>2026-08-27T18:30:46Z</time>
  <course>306.33</course>
  <speed>0.0</speed>
  <fix>3d</fix>
</trkpt>
<trkpt lat="40.0728168" lon="-105.2306208">
  <ele>1596.5</ele>
  <time>2026-08-27T18:30:46Z</time>
  <course>346.64</course>
  <speed>0.022360679774997897</speed>
  <fix>3d</fix>
</trkpt>
<trkpt lat="40.0728167" lon="-105.2306206">
  <ele>1596.45</ele>
  <time>2026-08-27T18:30:46Z</time>
  <course>299.9</course>
  <speed>0.0</speed>
  <fix>3d</fix>
</trkpt>
<trkpt lat="40.0728168" lon="-105.2306208">
  <ele>1596.5</ele>
  <time>2026-08-27T18:30:46Z</time>
  <course>346.64</course>
  <speed>0.022360679774997897</speed>
  <fix>3d</fix>
</trkpt>
<trkpt lat="40.0728167" lon="-105.2306206">
  <ele>1596.45</ele>
  <time>2026-08-27T18:30:46Z</time>
  <course>298.83</course>
  <speed>0.0</speed>
  <fix>3d</fix>
</trkpt>
<trkpt lat="40.0728168" lon="-105.2306208">
  <ele>1596.51</ele>
  <time>2026-08-27T18:30:46Z</time>
  <course>346.63</course>
  <speed>0.022360679774997897</speed>
  <fix>3d</fix>
</trkpt>
<trkpt lat="40.0728167" lon="-105.2306206">
  <ele>1596.45</ele>
  <time>2026-08-27T18:30:46Z</time>
  <course>297.68</course>
  <speed>0.0</speed>
  <fix>3d</fix>
</trkpt>
<trkpt lat="40.0728168" lon="-105.2306208">
  <ele>1596.51</ele>
  <time>2026-08-27T18:30:46Z</time>
  <course>346.63</course>
  <speed>0.022360679774997897</speed>
  <fix>3d</fix>
</trkpt>
<trkpt lat="40.0728167" lon="-105.2306206">
  <ele>1596.46</ele>
  <time>2026-08-27T18:30:46Z</time>
  <course>295.5</course>
  <speed>0.0</speed>
  <fix>3d</fix>
</trkpt>
<trkpt lat="40.0728168" lon="-105.2306208">
  <ele>1596.51</ele>
  <time>2026-08-27T18:30:46Z</time>
  <course>346.62</course>
  <speed>0.022360679774997897</speed>
  <fix>3d</fix>
</trkpt>
<trkpt lat="40.0728167" lon="-105.2306206">
  <ele>1596.46</ele>
  <time>2026-08-27T18:30:46Z</time>
  <course>294.58</course>
  <speed>0.0</speed>
  <fix>3d</fix>
</trkpt>
<trkpt lat="40.0728168" lon="-105.2306208">
  <ele>1596.51</ele>
  <time>2026-08-27T18:30:46Z</time>
  <course>346.62</course>
  <speed>0.022360679774997897</speed>
  <fix>3d</fix>
</trkpt>
<trkpt lat="40.0728167" lon="-105.2306206">
  <ele>1596.46</ele>
  <time>2026-08-27T18:30:46Z</time>
  <course>294.25</course>
  <speed>0.0</speed>
  <fix>3d</fix>
</trkpt>
<trkpt lat="40.0728168" lon="-105.2306208">
  <ele>1596.51</ele>
  <time>2026-08-27T18:30:46Z</time>
  <course>346.62</course>
  <speed>0.022360679774997897</speed>
  <fix>3d</fix>
</trkpt>
<trkpt lat="40.0728167" lon="-105.2306206">
  <ele>1596.46</ele>
  <time>2026-08-27T18:30:46Z</time>
  <course>294.09</course>
  <speed>0.0</speed>
  <fix>3d</fix>
</trkpt>
<trkpt lat="40.0728168" lon="-105.2306208">
  <ele>1596.51</ele>
  <time>2026-08-27T18:30:46Z</time>
  <course>346.62</course>
  <speed>0.022360679774997897</speed>
  <fix>3d</fix>
</trkpt>
<trkpt lat="40.0728167" lon="-105.2306206">
  <ele>1596.46</ele>
  <time>2026-08-27T18:30:46Z</time>
  <course>293.7</course>
  <speed>0.0</speed>
  <fix>3d</fix>
</trkpt>
<trkpt lat="40.0728168" lon="-105.2306208">
  <ele>1596.51</ele>
  <time>2026-08-27T18:30:46Z</time>
  <course>346.62</course>
  <speed>0.022360679774997897</speed>
  <fix>3d</fix>
</trkpt>
<trkpt lat="40.0728167" lon="-105.2306206">
  <ele>1596.46</ele>
  <time>2026-08-27T18:30:46Z</time>
  <course>298.67</course>
  <speed>0.0</speed>
  <fix>3d</fix>
</trkpt>
<trkpt lat="40.0728168" lon="-105.2306208">
  <ele>1596.51</ele>
  <time>2026-08-27T18:30:46Z</time>
  <course>346.63</course>
  <speed>0.022360679774997897</speed>
  <fix>3d</fix>
</trkpt>
<trkpt lat="40.0728167" lon="-105.2306206">
  <ele>1596.46</ele>
  <time>2026-08-27T18:30:46Z</time>
  <course>312.46</course>
  <speed>0.0</speed>
  <fix>3d</fix>
</trkpt>
<trkpt lat="40.0728168" lon="-105.2306208">
  <ele>1596.52</ele>
  <time>2026-08-27T18:30:46Z</time>
  <course>346.63</course>
  <speed>0.022360679774997897</speed>
  <fix>3d</fix>
</trkpt>
<trkpt lat="40.0728167" lon="-105.2306206">
  <ele>1596.46</ele>
  <time>2026-08-27T18:30:46Z</time>
  <course>324.44</course>
  <speed>0.0</speed>
  <fix>3d</fix>
</trkpt>
<trkpt lat="40.0728168" lon="-105.2306208">
  <ele>1596.52</ele>
  <time>2026-08-27T18:30:46Z</time>
  <course>346.63</course>
  <speed>0.022360679774997897</speed>
  <fix>3d</fix>
</trkpt>
<trkpt lat="40.0728167" lon="-105.2306206">
  <ele>1596.46</ele>
  <time>2026-08-27T18:30:46Z</time>
  <course>330.75</course>
  <speed>0.0</speed>
  <fix>3d</fix>
</trkpt>
<trkpt lat="40.0728168" lon="-105.2306208">
  <ele>1596.53</ele>
  <time>2026-08-27T18:30:46Z</time>
  <course>346.66</course>
  <speed>0.022360679774997897</speed>
  <fix>3d</fix>
</trkpt>
<trkpt lat="40.0728167" lon="-105.2306206">
  <ele>1596.46</ele>
  <time>2026-08-27T18:30:46Z</time>
  <course>329.91</course>
  <speed>0.0</speed>
  <fix>3d</fix>
</trkpt>
<trkpt lat="40.0728168" lon="-105.2306208">
  <ele>1596.53</ele>
  <time>2026-08-27T18:30:46Z</time>
  <course>346.69</course>
  <speed>0.022360679774997897</speed>
  <fix>3d</fix>
</trkpt>
<trkpt lat="40.0728167" lon="-105.2306206">
  <ele>1596.46</ele>
  <time>2026-08-27T18:30:46Z</time>
  <course>324.18</course>
  <speed>0.0</speed>
  <fix>3d</fix>
</trkpt>
<trkpt lat="40.0728168" lon="-105.2306208">
  <ele>1596.53</ele>
  <time>2026-08-27T18:30:46Z</time>
  <course>346.71</course>
  <speed>0.022360679774997897</speed>
  <fix>3d</fix>
</trkpt>
<trkpt lat="40.0728167" lon="-105.2306206">
  <ele>1596.46</ele>
  <time>2026-08-27T18:30:46Z</time>
  <course>320.9</course>
  <speed>0.0</speed>
  <fix>3d</fix>
</trkpt>
<trkpt lat="40.0728168" lon="-105.2306208">
  <ele>1596.52</ele>
  <time>2026-08-27T18:30:46Z</time>
  <course>346.72</course>
  <speed>0.022360679774997897</speed>
  <fix>3d</fix>
</trkpt>
<trkpt lat="40.0728167" lon="-105.2306206">
  <ele>1596.46</ele>
  <time>2026-08-27T18:30:46Z</time>
  <course>323.69</course>
  <speed>0.0</speed>
  <fix>3d</fix>
</trkpt>
<trkpt lat="40.0728168" lon="-105.2306208">
  <ele>1596.52</ele>
  <time>2026-08-27T18:30:46Z</time>
  <course>346.73</course>
  <speed>0.022360679774997897</speed>
  <fix>3d</fix>
</trkpt>
<trkpt lat="40.0728167" lon="-105.2306207">
  <ele>1596.45</ele>
  <time>2026-08-27T18:30:46Z</time>
  <course>327.95</course>
  <speed>0.0</speed>
  <fix>3d</fix>
</trkpt>
<trkpt lat="40.0728168" lon="-105.2306208">
  <ele>1596.52</ele>
  <time>2026-08-27T18:30:46Z</time>
  <course>346.73</course>
  <speed>0.022360679774997897</speed>
  <fix>3d</fix>
</trkpt>
<trkpt lat="40.0728168" lon="-105.2306208">
  <ele>1596.45</ele>
  <time>2026-08-27T18:30:46Z</time>
  <course>329.02</course>
  <speed>0.0</speed>
  <fix>3d</fix>
</trkpt>
<trkpt lat="40.0728168" lon="-105.2306208">
  <ele>1596.52</ele>
  <time>2026-08-27T18:30:46Z</time>
  <course>346.71</course>
  <speed>0.022360679774997897</speed>
  <fix>3d</fix>
</trkpt>
<trkpt lat="40.0728168" lon="-105.2306208">
  <ele>1596.45</ele>
  <time>2026-08-27T18:30:46Z</time>
  <course>327.05</course>
  <speed>0.0</speed>
  <fix>3d</fix>
</trkpt>
<trkpt lat="40.0728168" lon="-105.2306209">
  <ele>1596.51</ele>
  <time>2026-08-27T18:30:46Z</time>
  <course>346.7</course>
  <speed>0.022360679774997897</speed>
  <fix>3d</fix>
</trkpt>
<trkpt lat="40.0728168" lon="-105.2306208">
  <ele>1596.44</ele>
  <time>2026-08-27T18:30:46Z</time>
  <course>327.33</course>
  <speed>0.0</speed>
  <fix>3d</fix>
</trkpt>
<trkpt lat="40.0728168" lon="-105.2306209">
  <ele>1596.52</ele>
  <time>2026-08-27T18:30:46Z</time>
  <course>346.69</course>
  <speed>0.022360679774997897</speed>
  <fix>3d</fix>
</trkpt>
<trkpt lat="40.0728168" lon="-105.2306208">
  <ele>1596.44</ele>
  <time>2026-08-27T18:30:46Z</time>
  <course>331.15</course>
  <speed>0.0</speed>
  <fix>3d</fix>
</trkpt>
<trkpt lat="40.0728168" lon="-105.2306209">
  <ele>1596.52</ele>
  <time>2026-08-27T18:30:46Z</time>
  <course>346.68</course>
  <speed>0.022360679774997897</speed>
  <fix>3d</fix>
</trkpt>
<trkpt lat="40.0728168" lon="-105.2306208">
  <ele>1596.44</ele>
  <time>2026-08-27T18:30:46Z</time>
  <course>337.93</course>
  <speed>0.0</speed>
  <fix>3d</fix>
</trkpt>
<trkpt lat="40.0728168" lon="-105.2306209">
  <ele>1596.52</ele>
  <time>2026-08-27T18:30:46Z</time>
  <course>346.68</course>
  <speed>0.022360679774997897</speed>
  <fix>3d</fix>
</trkpt>
<trkpt lat="40.0728168" lon="-105.2306208">
  <ele>1596.44</ele>
  <time>2026-08-27T18:30:46Z</time>
  <course>356.27</course>
  <speed>0.0</speed>
  <fix>3d</fix>
</trkpt>
<trkpt lat="40.0728168" lon="-105.2306209">
  <ele>1596.52</ele>
  <time>2026-08-27T18:30:46Z</time>
  <course>346.7</course>
  <speed>0.022360679774997897</speed>
  <fix>3d</fix>
</trkpt>
<trkpt lat="40.0728168" lon="-105.2306208">
  <ele>1596.44</ele>
  <time>2026-08-27T18:30:46Z</time>
  <course>46.11</course>
  <speed>0.0</speed>
  <fix>3d</fix>
</trkpt>
<trkpt lat="40.0728168" lon="-105.2306209">
  <ele>1596.52</ele>
  <time>2026-08-27T18:30:46Z</time>
  <course>346.72</course>
  <speed>0.022360679774997897</speed>
  <fix>3d</fix>
</trkpt>
<trkpt lat="40.0728168" lon="-105.2306208">
  <ele>1596.44</ele>
  <time>2026-08-27T18:30:46Z</time>
  <course>80.8</course>
  <speed>0.0</speed>
  <fix>3d</fix>
</trkpt>
<trkpt lat="40.0728168" lon="-105.2306209">
  <ele>1596.52</ele>
  <time>2026-08-27T18:30:46Z</time>
  <course>346.73</course>
  <speed>0.01</speed>
  <fix>3d</fix>
</trkpt>
<trkpt lat="40.0728168" lon="-105.2306208">
  <ele>1596.43</ele>
  <time>2026-08-27T18:30:46Z</time>
  <course>96.07</course>
  <speed>0.0</speed>
  <fix>3d</fix>
</trkpt>
<trkpt lat="40.0728168" lon="-105.2306209">
  <ele>1596.52</ele>
  <time>2026-08-27T18:30:46Z</time>
  <course>346.73</course>
  <speed>0.01</speed>
  <fix>3d</fix>
</trkpt>
<trkpt lat="40.0728168" lon="-105.2306208">
  <ele>1596.43</ele>
  <time>2026-08-27T18:30:46Z</time>
  <course>103.14</course>
  <speed>0.0</speed>
  <fix>3d</fix>
</trkpt>
<trkpt lat="40.0728168" lon="-105.2306209">
  <ele>1596.52</ele>
  <time>2026-08-27T18:30:46Z</time>
  <course>346.72</course>
  <speed>0.01</speed>
  <fix>3d</fix>
</trkpt>
<trkpt lat="40.0728168" lon="-105.2306208">
  <ele>1596.43</ele>
  <time>2026-08-27T18:30:46Z</time>
  <course>107.21</course>
  <speed>0.0</speed>
  <fix>3d</fix>
</trkpt>
<trkpt lat="40.0728168" lon="-105.2306209">
  <ele>1596.52</ele>
  <time>2026-08-27T18:30:46Z</time>
  <course>346.71</course>
  <speed>0.01</speed>
  <fix>3d</fix>
</trkpt>
<trkpt lat="40.0728168" lon="-105.2306208">
  <ele>1596.42</ele>
  <time>2026-08-27T18:30:46Z</time>
  <course>110.17</course>
  <speed>0.0</speed>
  <fix>3d</fix>
</trkpt>
<trkpt lat="40.0728168" lon="-105.2306209">
  <ele>1596.52</ele>
  <time>2026-08-27T18:30:46Z</time>
  <course>346.7</course>
  <speed>0.01</speed>
  <fix>3d</fix>
</trkpt>
<trkpt lat="40.0728168" lon="-105.2306208">
  <ele>1596.42</ele>
  <time>2026-08-27T18:30:46Z</time>
  <course>111.68</course>
  <speed>0.0</speed>
  <fix>3d</fix>
</trkpt>
<trkpt lat="40.0728168" lon="-105.2306209">
  <ele>1596.51</ele>
  <time>2026-08-27T18:30:46Z</time>
  <course>346.7</course>
  <speed>0.01</speed>
  <fix>3d</fix>
</trkpt>
<trkpt lat="40.0728168" lon="-105.2306208">
  <ele>1596.42</ele>
  <time>2026-08-27T18:30:46Z</time>
  <course>113.18</course>
  <speed>0.0</speed>
  <fix>3d</fix>
</trkpt>
<trkpt lat="40.0728168" lon="-105.2306209">
  <ele>1596.51</ele>
  <time>2026-08-27T18:30:46Z</time>
  <course>346.68</course>
  <speed>0.01</speed>
  <fix>3d</fix>
</trkpt>
<trkpt lat="40.0728168" lon="-105.2306208">
  <ele>1596.41</ele>
  <time>2026-08-27T18:30:46Z</time>
  <course>115.65</course>
  <speed>0.0</speed>
  <fix>3d</fix>
</trkpt>
<trkpt lat="40.0728168" lon="-105.2306209">
  <ele>1596.51</ele>
  <time>2026-08-27T18:30:46Z</time>
  <course>346.68</course>
  <speed>0.01</speed>
  <fix>3d</fix>
</trkpt>
<trkpt lat="40.0728168" lon="-105.2306208">
  <ele>1596.41</ele>
  <time>2026-08-27T18:30:46Z</time>
  <course>116.97</course>
  <speed>0.0</speed>
  <fix>3d</fix>
</trkpt>
<trkpt lat="40.0728168" lon="-105.2306209">
  <ele>1596.51</ele>
  <time>2026-08-27T18:30:46Z</time>
  <course>346.68</course>
  <speed>0.01</speed>
  <fix>3d</fix>
</trkpt>
<trkpt lat="40.0728168" lon="-105.2306207">
  <ele>1596.41</ele>
  <time>2026-08-27T18:30:46Z</time>
  <course>117.47</course>
  <speed>0.0</speed>
  <fix>3d</fix>
</trkpt>
<trkpt lat="40.0728168" lon="-105.2306209">
  <ele>1596.51</ele>
  <time>2026-08-27T18:30:46Z</time>
  <course>346.67</course>
  <speed>0.01</speed>
  <fix>3d</fix>
</trkpt>
<trkpt lat="40.0728168" lon="-105.2306206">
  <ele>1596.41</ele>
  <time>2026-08-27T18:30:46Z</time>
  <course>118.48</course>
  <speed>0.0</speed>
  <fix>3d</fix>
</trkpt>
<trkpt lat="40.0728168" lon="-105.2306209">
  <ele>1596.51</ele>
  <time>2026-08-27T18:30:46Z</time>
  <course>346.67</course>
  <speed>0.01</speed>
  <fix>3d</fix>
</trkpt>
<trkpt lat="40.0728168" lon="-105.2306206">
  <ele>1596.41</ele>
  <time>2026-08-27T18:30:46Z</time>
  <course>119.95</course>
  <speed>0.0</speed>
  <fix>3d</fix>
</trkpt>
<trkpt lat="40.0728168" lon="-105.2306209">
  <ele>1596.51</ele>
  <time>2026-08-27T18:30:46Z</time>
  <course>346.66</course>
  <speed>0.01</speed>
  <fix>3d</fix>
</trkpt>
<trkpt lat="40.0728168" lon="-105.2306206">
  <ele>1596.41</ele>
  <time>2026-08-27T18:30:46Z</time>
  <course>122.11</course>
  <speed>0.0</speed>
  <fix>3d</fix>
</trkpt>
<trkpt lat="40.0728168" lon="-105.2306209">
  <ele>1596.51</ele>
  <time>2026-08-27T18:30:46Z</time>
  <course>346.66</course>
  <speed>0.01</speed>
  <fix>3d</fix>
</trkpt>
<trkpt lat="40.0728168" lon="-105.2306206">
  <ele>1596.41</ele>
  <time>2026-08-27T18:30:46Z</time>
  <course>124.39</course>
  <speed>0.0</speed>
  <fix>3d</fix>
</trkpt>
<trkpt lat="40.0728168" lon="-105.2306209">
  <ele>1596.51</ele>
  <time>2026-08-27T18:30:46Z</time>
  <course>346.65</course>
  <speed>0.02</speed>
  <fix>3d</fix>
</trkpt>
<trkpt lat="40.0728168" lon="-105.2306206">
  <ele>1596.41</ele>
  <time>2026-08-27T18:30:46Z</time>
  <course>126.47</course>
  <speed>0.0</speed>
  <fix>3d</fix>
</trkpt>
<trkpt lat="40.0728168" lon="-105.2306209">
  <ele>1596.5</ele>
  <time>2026-08-27T18:30:46Z</time>
  <course>346.64</course>
  <speed>0.02</speed>
  <fix>3d</fix>
</trkpt>
<trkpt lat="40.0728168" lon="-105.2306206">
  <ele>1596.41</ele>
  <time>2026-08-27T18:30:46Z</time>
  <course>129.56</course>
  <speed>0.0</speed>
  <fix>3d</fix>
</trkpt>
<trkpt lat="40.0728168" lon="-105.2306209">
  <ele>1596.5</ele>
  <time>2026-08-27T18:30:46Z</time>
  <course>346.63</course>
  <speed>0.02</speed>
  <fix>3d</fix>
</trkpt>
<trkpt lat="40.0728168" lon="-105.2306206">
  <ele>1596.41</ele>
  <time>2026-08-27T18:30:46Z</time>
  <course>135.24</course>
  <speed>0.0</speed>
  <fix>3d</fix>
</trkpt>
<trkpt lat="40.0728168" lon="-105.2306209">
  <ele>1596.51</ele>
  <time>2026-08-27T18:30:46Z</time>
  <course>346.61</course>
  <speed>0.02</speed>
  <fix>3d</fix>
</trkpt>
<trkpt lat="40.0728168" lon="-105.2306206">
  <ele>1596.41</ele>
  <time>2026-08-27T18:30:46Z</time>
  <course>143.37</course>
  <speed>0.0</speed>
  <fix>3d</fix>
</trkpt>
<trkpt lat="40.0728168" lon="-105.2306209">
  <ele>1596.51</ele>
  <time>2026-08-27T18:30:46Z</time>
  <course>346.6</course>
  <speed>0.02</speed>
  <fix>3d</fix>
</trkpt>
<trkpt lat="40.0728168" lon="-105.2306206">
  <ele>1596.41</ele>
  <time>2026-08-27T18:30:46Z</time>
  <course>152.81</course>
  <speed>0.0</speed>
  <fix>3d</fix>
</trkpt>
<trkpt lat="40.0728168" lon="-105.2306209">
  <ele>1596.51</ele>
  <time>2026-08-27T18:30:46Z</time>
  <course>346.59</course>
  <speed>0.02</speed>
  <fix>3d</fix>
</trkpt>
<trkpt lat="40.0728168" lon="-105.2306206">
  <ele>1596.41</ele>
  <time>2026-08-27T18:30:46Z</time>
  <course>165.74</course>
  <speed>0.0</speed>
  <fix>3d</fix>
</trkpt>
<trkpt lat="40.0728168" lon="-105.2306209">
  <ele>1596.51</ele>
  <time>2026-08-27T18:30:46Z</time>
  <course>346.6</course>
  <speed>0.02</speed>
  <fix>3d</fix>
</trkpt>
<trkpt lat="40.0728168" lon="-105.2306206">
  <ele>1596.41</ele>
  <time>2026-08-27T18:30:46Z</time>
  <course>181.72</course>
  <speed>0.0</speed>
  <fix>3d</fix>
</trkpt>
<trkpt lat="40.0728168" lon="-105.2306209">
  <ele>1596.51</ele>
  <time>2026-08-27T18:30:46Z</time>
  <course>346.61</course>
  <speed>0.02</speed>
  <fix>3d</fix>
</trkpt>
<trkpt lat="40.0728168" lon="-105.2306206">
  <ele>1596.41</ele>
  <time>2026-08-27T18:30:46Z</time>
  <course>191.84</course>
  <speed>0.0</speed>
  <fix>3d</fix>
</trkpt>
<trkpt lat="40.0728168" lon="-105.2306209">
  <ele>1596.51</ele>
  <time>2026-08-27T18:30:46Z</time>
  <course>346.61</course>
  <speed>0.022360679774997897</speed>
  <fix>3d</fix>
</trkpt>
<trkpt lat="40.0728168" lon="-105.2306206">
  <ele>1596.4</ele>
  <time>2026-08-27T18:30:46Z</time>
  <course>195.95</course>
  <speed>0.0</speed>
  <fix>3d</fix>
</trkpt>
<trkpt lat="40.0728168" lon="-105.2306209">
  <ele>1596.51</ele>
  <time>2026-08-27T18:30:46Z</time>
  <course>346.61</course>
  <speed>0.022360679774997897</speed>
  <fix>3d</fix>
</trkpt>
<trkpt lat="40.0728168" lon="-105.2306206">
  <ele>1596.4</ele>
  <time>2026-08-27T18:30:46Z</time>
  <course>201.31</course>
  <speed>0.0</speed>
  <fix>3d</fix>
</trkpt>
<trkpt lat="40.0728168" lon="-105.2306209">
  <ele>1596.52</ele>
  <time>2026-08-27T18:30:46Z</time>
  <course>346.61</course>
  <speed>0.02</speed>
  <fix>3d</fix>
</trkpt>
<trkpt lat="40.0728167" lon="-105.2306206">
  <ele>1596.4</ele>
  <time>2026-08-27T18:30:46Z</time>
  <course>206.48</course>
  <speed>0.0</speed>
  <fix>3d</fix>
</trkpt>
<trkpt lat="40.0728168" lon="-105.2306209">
  <ele>1596.52</ele>
  <time>2026-08-27T18:30:46Z</time>
  <course>346.62</course>
  <speed>0.02</speed>
  <fix>3d</fix>
</trkpt>
<trkpt lat="40.0728167" lon="-105.2306206">
  <ele>1596.4</ele>
  <time>2026-08-27T18:30:46Z</time>
  <course>208.59</course>
  <speed>0.0</speed>
  <fix>3d</fix>
</trkpt>
<trkpt lat="40.0728168" lon="-105.2306209">
  <ele>1596.52</ele>
  <time>2026-08-27T18:30:46Z</time>
  <course>346.64</course>
  <speed>0.022360679774997897</speed>
  <fix>3d</fix>
</trkpt>
<trkpt lat="40.0728167" lon="-105.2306206">
  <ele>1596.4</ele>
  <time>2026-08-27T18:30:46Z</time>
  <course>211.29</course>
  <speed>0.0</speed>
  <fix>3d</fix>
</trkpt>
<trkpt lat="40.0728168" lon="-105.2306209">
  <ele>1596.51</ele>
  <time>2026-08-27T18:30:46Z</time>
  <course>346.64</course>
  <speed>0.022360679774997897</speed>
  <fix>3d</fix>
</trkpt>
<trkpt lat="40.0728167" lon="-105.2306206">
  <ele>1596.4</ele>
  <time>2026-08-27T18:30:46Z</time>
  <course>216.71</course>
  <speed>0.0</speed>
  <fix>3d</fix>
</trkpt>
<trkpt lat="40.0728168" lon="-105.2306209">
  <ele>1596.51</ele>
  <time>2026-08-27T18:30:46Z</time>
  <course>346.64</course>
  <speed>0.022360679774997897</speed>
  <fix>3d</fix>
</trkpt>
<trkpt lat="40.0728167" lon="-105.2306206">
  <ele>1596.4</ele>
  <time>2026-08-27T18:30:46Z</time>
  <course>226.34</course>
  <speed>0.0</speed>
  <fix>3d</fix>
</trkpt>
<trkpt lat="40.0728168" lon="-105.2306209">
  <ele>1596.52</ele>
  <time>2026-08-27T18:30:46Z</time>
  <course>346.64</course>
  <speed>0.022360679774997897</speed>
  <fix>3d</fix>
</trkpt>
<trkpt lat="40.0728167" lon="-105.2306206">
  <ele>1596.39</ele>
  <time>2026-08-27T18:30:46Z</time>
  <course>239.95</course>
  <speed>0.0</speed>
  <fix>3d</fix>
</trkpt>
<trkpt lat="40.0728168" lon="-105.2306209">
  <ele>1596.51</ele>
  <time>2026-08-27T18:30:46Z</time>
  <course>346.64</course>
  <speed>0.022360679774997897</speed>
  <fix>3d</fix>
</trkpt>
<trkpt lat="40.0728167" lon="-105.2306206">
  <ele>1596.39</ele>
  <time>2026-08-27T18:30:46Z</time>
  <course>255.95</course>
  <speed>0.0</speed>
  <fix>3d</fix>
</trkpt>
<trkpt lat="40.0728168" lon="-105.2306209">
  <ele>1596.5</ele>
  <time>2026-08-27T18:30:46Z</time>
  <course>346.62</course>
  <speed>0.022360679774997897</speed>
  <fix>3d</fix>
</trkpt>
<trkpt lat="40.0728167" lon="-105.2306206">
  <ele>1596.39</ele>
  <time>2026-08-27T18:30:46Z</time>
  <course>270.6</course>
  <speed>0.0</speed>
  <fix>3d</fix>
</trkpt>
<trkpt lat="40.0728168" lon="-105.2306209">
  <ele>1596.5</ele>
  <time>2026-08-27T18:30:46Z</time>
  <course>346.61</course>
  <speed>0.022360679774997897</speed>
  <fix>3d</fix>
</trkpt>
<trkpt lat="40.0728167" lon="-105.2306206">
  <ele>1596.39</ele>
  <time>2026-08-27T18:30:46Z</time>
  <course>278.64</course>
  <speed>0.0</speed>
  <fix>3d</fix>
</trkpt>
<trkpt lat="40.0728168" lon="-105.2306209">
  <ele>1596.5</ele>
  <time>2026-08-27T18:30:46Z</time>
  <course>346.6</course>
  <speed>0.022360679774997897</speed>
  <fix>3d</fix>
</trkpt>
<trkpt lat="40.0728167" lon="-105.2306206">
  <ele>1596.39</ele>
  <time>2026-08-27T18:30:46Z</time>
  <course>284.55</course>
  <speed>0.0</speed>
  <fix>3d</fix>
</trkpt>
<trkpt lat="40.0728168" lon="-105.2306209">
  <ele>1596.5</ele>
  <time>2026-08-27T18:30:46Z</time>
  <course>346.57</course>
  <speed>0.022360679774997897</speed>
  <fix>3d</fix>
</trkpt>
<trkpt lat="40.0728167" lon="-105.2306206">
  <ele>1596.39</ele>
  <time>2026-08-27T18:30:46Z</time>
  <course>289.28</course>
  <speed>0.0</speed>
  <fix>3d</fix>
</trkpt>
<trkpt lat="40.0728168" lon="-105.2306209">
  <ele>1596.49</ele>
  <time>2026-08-27T18:30:46Z</time>
  <course>346.54</course>
  <speed>0.022360679774997897</speed>
  <fix>3d</fix>
</trkpt>
<trkpt lat="40.0728167" lon="-105.2306206">
  <ele>1596.39</ele>
  <time>2026-08-27T18:30:46Z</time>
  <course>292.79</course>
  <speed>0.0</speed>
  <fix>3d</fix>
</trkpt>
<trkpt lat="40.0728168" lon="-105.2306209">
  <ele>1596.49</ele>
  <time>2026-08-27T18:30:46Z</time>
  <course>346.52</course>
  <speed>0.022360679774997897</speed>
  <fix>3d</fix>
</trkpt>
<trkpt lat="40.0728167" lon="-105.2306206">
  <ele>1596.39</ele>
  <time>2026-08-27T18:30:46Z</time>
  <course>295.91</course>
  <speed>0.0</speed>
  <fix>3d</fix>
</trkpt>
<trkpt lat="40.0728168" lon="-105.2306209">
  <ele>1596.5</ele>
  <time>2026-08-27T18:30:46Z</time>
  <course>346.5</course>
  <speed>0.022360679774997897</speed>
  <fix>3d</fix>
</trkpt>
<trkpt lat="40.0728167" lon="-105.2306206">
  <ele>1596.39</ele>
  <time>2026-08-27T18:30:46Z</time>
  <course>301.03</course>
  <speed>0.0</speed>
  <fix>3d</fix>
</trkpt>
<trkpt lat="40.0728168" lon="-105.2306209">
  <ele>1596.5</ele>
  <time>2026-08-27T18:30:46Z</time>
  <course>346.49</course>
  <speed>0.022360679774997897</speed>
  <fix>3d</fix>
</trkpt>
<trkpt lat="40.0728167" lon="-105.2306206">
  <ele>1596.4</ele>
  <time>2026-08-27T18:30:46Z</time>
  <course>307.44</course>
  <speed>0.0</speed>
  <fix>3d</fix>
</trkpt>
<trkpt lat="40.0728168" lon="-105.2306209">
  <ele>1596.5</ele>
  <time>2026-08-27T18:30:46Z</time>
  <course>346.5</course>
  <speed>0.022360679774997897</speed>
  <fix>3d</fix>
</trkpt>
<trkpt lat="40.0728167" lon="-105.2306206">
  <ele>1596.4</ele>
  <time>2026-08-27T18:30:46Z</time>
  <course>307.61</course>
  <speed>0.0</speed>
  <fix>3d</fix>
</trkpt>
<trkpt lat="40.0728168" lon="-105.2306209">
  <ele>1596.5</ele>
  <time>2026-08-27T18:30:46Z</time>
  <course>346.52</course>
  <speed>0.022360679774997897</speed>
  <fix>3d</fix>
</trkpt>
<trkpt lat="40.0728167" lon="-105.2306206">
  <ele>1596.4</ele>
  <time>2026-08-27T18:30:46Z</time>
  <course>304.15</course>
  <speed>0.0</speed>
  <fix>3d</fix>
</trkpt>
<trkpt lat="40.0728168" lon="-105.2306209">
  <ele>1596.51</ele>
  <time>2026-08-27T18:30:46Z</time>
  <course>346.53</course>
  <speed>0.022360679774997897</speed>
  <fix>3d</fix>
</trkpt>
<trkpt lat="40.0728167" lon="-105.2306206">
  <ele>1596.4</ele>
  <time>2026-08-27T18:30:46Z</time>
  <course>305.41</course>
  <speed>0.0</speed>
  <fix>3d</fix>
</trkpt>
<trkpt lat="40.0728168" lon="-105.2306209">
  <ele>1596.51</ele>
  <time>2026-08-27T18:30:46Z</time>
  <course>346.53</course>
  <speed>0.022360679774997897</speed>
  <fix>3d</fix>
</trkpt>
<trkpt lat="40.0728167" lon="-105.2306206">
  <ele>1596.4</ele>
  <time>2026-08-27T18:30:46Z</time>
  <course>309.98</course>
  <speed>0.0</speed>
  <fix>3d</fix>
</trkpt>
<trkpt lat="40.0728168" lon="-105.2306209">
  <ele>1596.51</ele>
  <time>2026-08-27T18:30:46Z</time>
  <course>346.54</course>
  <speed>0.022360679774997897</speed>
  <fix>3d</fix>
</trkpt>
<trkpt lat="40.0728167" lon="-105.2306206">
  <ele>1596.41</ele>
  <time>2026-08-27T18:30:46Z</time>
  <course>315.83</course>
  <speed>0.0</speed>
  <fix>3d</fix>
</trkpt>
<trkpt lat="40.0728168" lon="-105.2306209">
  <ele>1596.51</ele>
  <time>2026-08-27T18:30:46Z</time>
  <course>346.55</course>
  <speed>0.022360679774997897</speed>
  <fix>3d</fix>
</trkpt>
<trkpt lat="40.0728167" lon="-105.2306206">
  <ele>1596.41</ele>
  <time>2026-08-27T18:30:46Z</time>
  <course>321.98</course>
  <speed>0.0</speed>
  <fix>3d</fix>
</trkpt>
<trkpt lat="40.0728168" lon="-105.2306209">
  <ele>1596.51</ele>
  <time>2026-08-27T18:30:46Z</time>
  <course>346.55</course>
  <speed>0.022360679774997897</speed>
  <fix>3d</fix>
</trkpt>
<trkpt lat="40.0728167" lon="-105.2306206">
  <ele>1596.41</ele>
  <time>2026-08-27T18:30:46Z</time>
  <course>327.05</course>
  <speed>0.0</speed>
  <fix>3d</fix>
</trkpt>
<trkpt lat="40.0728168" lon="-105.2306209">
  <ele>1596.51</ele>
  <time>2026-08-27T18:30:46Z</time>
  <course>346.56</course>
  <speed>0.022360679774997897</speed>
  <fix>3d</fix>
</trkpt>
<trkpt lat="40.0728167" lon="-105.2306206">
  <ele>1596.41</ele>
  <time>2026-08-27T18:30:46Z</time>
  <course>329.82</course>
  <speed>0.0</speed>
  <fix>3d</fix>
</trkpt>
<trkpt lat="40.0728168" lon="-105.2306209">
  <ele>1596.51</ele>
  <time>2026-08-27T18:30:46Z</time>
  <course>346.57</course>
  <speed>0.022360679774997897</speed>
  <fix>3d</fix>
</trkpt>
<trkpt lat="40.0728167" lon="-105.2306206">
  <ele>1596.41</ele>
  <time>2026-08-27T18:30:46Z</time>
  <course>329.41</course>
  <speed>0.0</speed>
  <fix>3d</fix>
</trkpt>
<trkpt lat="40.0728168" lon="-105.2306209">
  <ele>1596.51</ele>
  <time>2026-08-27T18:30:46Z</time>
  <course>346.57</course>
  <speed>0.022360679774997897</speed>
  <fix>3d</fix>
</trkpt>
<trkpt lat="40.0728167" lon="-105.2306206">
  <ele>1596.41</ele>
  <time>2026-08-27T18:30:46Z</time>
  <course>326.37</course>
  <speed>0.0</speed>
  <fix>3d</fix>
</trkpt>
<trkpt lat="40.0728168" lon="-105.2306209">
  <ele>1596.51</ele>
  <time>2026-08-27T18:30:46Z</time>
  <course>346.56</course>
  <speed>0.022360679774997897</speed>
  <fix>3d</fix>
</trkpt>
<trkpt lat="40.0728167" lon="-105.2306206">
  <ele>1596.41</ele>
  <time>2026-08-27T18:30:46Z</time>
  <course>326.86</course>
  <speed>0.0</speed>
  <fix>3d</fix>
</trkpt>
<trkpt lat="40.0728168" lon="-105.2306209">
  <ele>1596.51</ele>
  <time>2026-08-27T18:30:46Z</time>
  <course>346.55</course>
  <speed>0.022360679774997897</speed>
  <fix>3d</fix>
</trkpt>
<trkpt lat="40.0728167" lon="-105.2306206">
  <ele>1596.41</ele>
  <time>2026-08-27T18:30:46Z</time>
  <course>330.13</course>
  <speed>0.0</speed>
  <fix>3d</fix>
</trkpt>
<trkpt lat="40.0728168" lon="-105.2306209">
  <ele>1596.51</ele>
  <time>2026-08-27T18:30:46Z</time>
  <course>346.54</course>
  <speed>0.022360679774997897</speed>
  <fix>3d</fix>
</trkpt>
<trkpt lat="40.0728167" lon="-105.2306206">
  <ele>1596.41</ele>
  <time>2026-08-27T18:30:46Z</time>
  <course>329.99</course>
  <speed>0.0</speed>
  <fix>3d</fix>
</trkpt>
<trkpt lat="40.0728168" lon="-105.2306209">
  <ele>1596.51</ele>
  <time>2026-08-27T18:30:46Z</time>
  <course>346.53</course>
  <speed>0.022360679774997897</speed>
  <fix>3d</fix>
</trkpt>
<trkpt lat="40.0728167" lon="-105.2306206">
  <ele>1596.41</ele>
  <time>2026-08-27T18:30:46Z</time>
  <course>327.76</course>
  <speed>0.0</speed>
  <fix>3d</fix>
</trkpt>
<trkpt lat="40.0728168" lon="-105.2306209">
  <ele>1596.51</ele>
  <time>2026-08-27T18:30:46Z</time>
  <course>346.52</course>
  <speed>0.022360679774997897</speed>
  <fix>3d</fix>
</trkpt>
<trkpt lat="40.0728167" lon="-105.2306206">
  <ele>1596.41</ele>
  <time>2026-08-27T18:30:46Z</time>
  <course>324.96</course>
  <speed>0.0</speed>
  <fix>3d</fix>
</trkpt>
<trkpt lat="40.0728168" lon="-105.2306209">
  <ele>1596.51</ele>
  <time>2026-08-27T18:30:46Z</time>
  <course>346.51</course>
  <speed>0.022360679774997897</speed>
  <fix>3d</fix>
</trkpt>
<trkpt lat="40.0728167" lon="-105.2306206">
  <ele>1596.41</ele>
  <time>2026-08-27T18:30:46Z</time>
  <course>321.32</course>
  <speed>0.0</speed>
  <fix>3d</fix>
</trkpt>
<trkpt lat="40.0728168" lon="-105.2306209">
  <ele>1596.5</ele>
  <time>2026-08-27T18:30:46Z</time>
  <course>346.5</course>
  <speed>0.022360679774997897</speed>
  <fix>3d</fix>
</trkpt>
<trkpt lat="40.0728167" lon="-105.2306207">
  <ele>1596.41</ele>
  <time>2026-08-27T18:30:46Z</time>
  <course>318.19</course>
  <speed>0.0</speed>
  <fix>3d</fix>
</trkpt>
<trkpt lat="40.0728168" lon="-105.2306209">
  <ele>1596.5</ele>
  <time>2026-08-27T18:30:46Z</time>
  <course>346.49</course>
  <speed>0.022360679774997897</speed>
  <fix>3d</fix>
</trkpt>
<trkpt lat="40.0728168" lon="-105.2306208">
  <ele>1596.41</ele>
  <time>2026-08-27T18:30:46Z</time>
  <course>315.85</course>
  <speed>0.0</speed>
  <fix>3d</fix>
</trkpt>
<trkpt lat="40.0728168" lon="-105.2306209">
  <ele>1596.5</ele>
  <time>2026-08-27T18:30:46Z</time>
  <course>346.49</course>
  <speed>0.022360679774997897</speed>
  <fix>3d</fix>
</trkpt>
<trkpt lat="40.0728168" lon="-105.2306208">
  <ele>1596.41</ele>
  <time>2026-08-27T18:30:46Z</time>
  <course>314.43</course>
  <speed>0.0</speed>
  <fix>3d</fix>
</trkpt>
<trkpt lat="40.0728168" lon="-105.2306209">
  <ele>1596.5</ele>
  <time>2026-08-27T18:30:46Z</time>
  <course>346.48</course>
  <speed>0.022360679774997897</speed>
  <fix>3d</fix>
</trkpt>
<trkpt lat="40.0728168" lon="-105.2306208">
  <ele>1596.41</ele>
  <time>2026-08-27T18:30:46Z</time>
  <course>314.37</course>
  <speed>0.0</speed>
  <fix>3d</fix>
</trkpt>
<trkpt lat="40.0728168" lon="-105.2306209">
  <ele>1596.5</ele>
  <time>2026-08-27T18:30:46Z</time>
  <course>346.47</course>
  <speed>0.022360679774997897</speed>
  <fix>3d</fix>
</trkpt>
<trkpt lat="40.0728168" lon="-105.2306208">
  <ele>1596.41</ele>
  <time>2026-08-27T18:30:46Z</time>
  <course>317.83</course>
  <speed>0.0</speed>
  <fix>3d</fix>
</trkpt>
<trkpt lat="40.0728168" lon="-105.2306209">
  <ele>1596.5</ele>
  <time>2026-08-27T18:30:46Z</time>
  <course>346.47</course>
  <speed>0.022360679774997897</speed>
  <fix>3d</fix>
</trkpt>
<trkpt lat="40.0728168" lon="-105.2306208">
  <ele>1596.41</ele>
  <time>2026-08-27T18:30:46Z</time>
  <course>329.44</course>
  <speed>0.0</speed>
  <fix>3d</fix>
</trkpt>
<trkpt lat="40.0728168" lon="-105.2306209">
  <ele>1596.5</ele>
  <time>2026-08-27T18:30:47Z</time>
  <course>346.47</course>
  <speed>0.022360679774997897</speed>
  <fix>3d</fix>
</trkpt>
<trkpt lat="40.0728168" lon="-105.2306208">
  <ele>1596.41</ele>
  <time>2026-08-27T18:30:47Z</time>
  <course>353.28</course>
  <speed>0.0</speed>
  <fix>3d</fix>
</trkpt>
<trkpt lat="40.0728168" lon="-105.2306209">
  <ele>1596.5</ele>
  <time>2026-08-27T18:30:47Z</time>
  <course>346.47</course>
  <speed>0.01</speed>
  <fix>3d</fix>
</trkpt>
<trkpt lat="40.0728168" lon="-105.2306208">
  <ele>1596.42</ele>
  <time>2026-08-27T18:30:47Z</time>
  <course>47.3</course>
  <speed>0.0</speed>
  <fix>3d</fix>
</trkpt>
<trkpt lat="40.0728168" lon="-105.2306209">
  <ele>1596.51</ele>
  <time>2026-08-27T18:30:47Z</time>
  <course>346.47</course>
  <speed>0.01</speed>
  <fix>3d</fix>
</trkpt>
<trkpt lat="40.0728168" lon="-105.2306208">
  <ele>1596.42</ele>
  <time>2026-08-27T18:30:47Z</time>
  <course>82.73</course>
  <speed>0.0</speed>
  <fix>3d</fix>
</trkpt>
<trkpt lat="40.0728168" lon="-105.2306209">
  <ele>1596.51</ele>
  <time>2026-08-27T18:30:47Z</time>
  <course>346.48</course>
  <speed>0.01</speed>
  <fix>3d</fix>
</trkpt>
<trkpt lat="40.0728168" lon="-105.2306208">
  <ele>1596.42</ele>
  <time>2026-08-27T18:30:47Z</time>
  <course>91.4</course>
  <speed>0.0</speed>
  <fix>3d</fix>
</trkpt>
<trkpt lat="40.0728168" lon="-105.2306209">
  <ele>1596.51</ele>
  <time>2026-08-27T18:30:47Z</time>
  <course>346.48</course>
  <speed>0.01</speed>
  <fix>3d</fix>
</trkpt>
<trkpt lat="40.0728168" lon="-105.2306208">
  <ele>1596.42</ele>
  <time>2026-08-27T18:30:47Z</time>
  <course>99.02</course>
  <speed>0.0</speed>
  <fix>3d</fix>
</trkpt>
<trkpt lat="40.0728168" lon="-105.2306209">
  <ele>1596.51</ele>
  <time>2026-08-27T18:30:47Z</time>
  <course>346.48</course>
  <speed>0.01</speed>
  <fix>3d</fix>
</trkpt>
<trkpt lat="40.0728168" lon="-105.2306208">
  <ele>1596.42</ele>
  <time>2026-08-27T18:30:47Z</time>
  <course>105.78</course>
  <speed>0.0</speed>
  <fix>3d</fix>
</trkpt>
<trkpt lat="40.0728168" lon="-105.2306209">
  <ele>1596.51</ele>
  <time>2026-08-27T18:30:47Z</time>
  <course>346.48</course>
  <speed>0.01</speed>
  <fix>3d</fix>
</trkpt>
<trkpt lat="40.0728168" lon="-105.2306208">
  <ele>1596.42</ele>
  <time>2026-08-27T18:30:47Z</time>
  <course>110.76</course>
  <speed>0.0</speed>
  <fix>3d</fix>
</trkpt>
<trkpt lat="40.0728168" lon="-105.2306209">
  <ele>1596.5</ele>
  <time>2026-08-27T18:30:47Z</time>
  <course>346.48</course>
  <speed>0.01</speed>
  <fix>3d</fix>
</trkpt>
<trkpt lat="40.0728168" lon="-105.2306208">
  <ele>1596.42</ele>
  <time>2026-08-27T18:30:47Z</time>
  <course>113.23</course>
  <speed>0.0</speed>
  <fix>3d</fix>
</trkpt>
<trkpt lat="40.0728168" lon="-105.2306209">
  <ele>1596.51</ele>
  <time>2026-08-27T18:30:47Z</time>
  <course>346.48</course>
  <speed>0.01</speed>
  <fix>3d</fix>
</trkpt>
<trkpt lat="40.0728168" lon="-105.2306208">
  <ele>1596.42</ele>
  <time>2026-08-27T18:30:47Z</time>
  <course>111.56</course>
  <speed>0.0</speed>
  <fix>3d</fix>
</trkpt>
<trkpt lat="40.0728168" lon="-105.2306209">
  <ele>1596.51</ele>
  <time>2026-08-27T18:30:47Z</time>
  <course>346.48</course>
  <speed>0.01</speed>
  <fix>3d</fix>
</trkpt>
<trkpt lat="40.0728168" lon="-105.2306208">
  <ele>1596.43</ele>
  <time>2026-08-27T18:30:47Z</time>
  <course>110.3</course>
  <speed>0.0</speed>
  <fix>3d</fix>
</trkpt>
<trkpt lat="40.0728168" lon="-105.2306209">
  <ele>1596.51</ele>
  <time>2026-08-27T18:30:47Z</time>
  <course>346.48</course>
  <speed>0.01</speed>
  <fix>3d</fix>
</trkpt>
<trkpt lat="40.0728168" lon="-105.2306208">
  <ele>1596.43</ele>
  <time>2026-08-27T18:30:47Z</time>
  <course>113.39</course>
  <speed>0.0</speed>
  <fix>3d</fix>
</trkpt>
<trkpt lat="40.0728168" lon="-105.2306209">
  <ele>1596.51</ele>
  <time>2026-08-27T18:30:47Z</time>
  <course>346.48</course>
  <speed>0.01</speed>
  <fix>3d</fix>
</trkpt>
<trkpt lat="40.0728168" lon="-105.2306208">
  <ele>1596.43</ele>
  <time>2026-08-27T18:30:47Z</time>
  <course>117.83</course>
  <speed>0.0</speed>
  <fix>3d</fix>
</trkpt>
<trkpt lat="40.0728168" lon="-105.2306209">
  <ele>1596.51</ele>
  <time>2026-08-27T18:30:47Z</time>
  <course>346.49</course>
  <speed>0.01</speed>
  <fix>3d</fix>
</trkpt>
<trkpt lat="40.0728168" lon="-105.2306208">
  <ele>1596.43</ele>
  <time>2026-08-27T18:30:47Z</time>
  <course>121.9</course>
  <speed>0.0</speed>
  <fix>3d</fix>
</trkpt>
<trkpt lat="40.0728168" lon="-105.2306209">
  <ele>1596.51</ele>
  <time>2026-08-27T18:30:47Z</time>
  <course>346.49</course>
  <speed>0.01</speed>
  <fix>3d</fix>
</trkpt>
<trkpt lat="40.0728168" lon="-105.2306208">
  <ele>1596.43</ele>
  <time>2026-08-27T18:30:47Z</time>
  <course>125.7</course>
  <speed>0.0</speed>
  <fix>3d</fix>
</trkpt>
<trkpt lat="40.0728168" lon="-105.2306209">
  <ele>1596.52</ele>
  <time>2026-08-27T18:30:47Z</time>
  <course>346.49</course>
  <speed>0.01</speed>
  <fix>3d</fix>
</trkpt>
<trkpt lat="40.0728168" lon="-105.2306208">
  <ele>1596.43</ele>
  <time>2026-08-27T18:30:47Z</time>
  <course>129.22</course>
  <speed>0.0</speed>
  <fix>3d</fix>
</trkpt>
<trkpt lat="40.0728168" lon="-105.2306209">
  <ele>1596.52</ele>
  <time>2026-08-27T18:30:47Z</time>
  <course>346.5</course>
  <speed>0.01</speed>
  <fix>3d</fix>
</trkpt>
<trkpt lat="40.0728168" lon="-105.2306208">
  <ele>1596.43</ele>
  <time>2026-08-27T18:30:47Z</time>
  <course>128.53</course>
  <speed>0.0</speed>
  <fix>3d</fix>
</trkpt>
<trkpt lat="40.0728168" lon="-105.2306209">
  <ele>1596.53</ele>
  <time>2026-08-27T18:30:47Z</time>
  <course>346.51</course>
  <speed>0.01</speed>
  <fix>3d</fix>
</trkpt>
<trkpt lat="40.0728168" lon="-105.2306208">
  <ele>1596.43</ele>
  <time>2026-08-27T18:30:47Z</time>
  <course>117.34</course>
  <speed>0.0</speed>
  <fix>3d</fix>
</trkpt>
<trkpt lat="40.0728168" lon="-105.2306209">
  <ele>1596.52</ele>
  <time>2026-08-27T18:30:47Z</time>
  <course>346.53</course>
  <speed>0.01</speed>
  <fix>3d</fix>
</trkpt>
<trkpt lat="40.0728168" lon="-105.2306208">
  <ele>1596.43</ele>
  <time>2026-08-27T18:30:47Z</time>
  <course>92.15</course>
  <speed>0.0</speed>
  <fix>3d</fix>
</trkpt>
<trkpt lat="40.0728168" lon="-105.2306209">
  <ele>1596.52</ele>
  <time>2026-08-27T18:30:47Z</time>
  <course>346.53</course>
  <speed>0.01</speed>
  <fix>3d</fix>
</trkpt>
<trkpt lat="40.0728168" lon="-105.2306208">
  <ele>1596.42</ele>
  <time>2026-08-27T18:30:47Z</time>
  <course>65.99</course>
  <speed>0.0</speed>
  <fix>3d</fix>
</trkpt>
<trkpt lat="40.0728168" lon="-105.2306209">
  <ele>1596.52</ele>
  <time>2026-08-27T18:30:47Z</time>
  <course>346.53</course>
  <speed>0.01</speed>
  <fix>3d</fix>
</trkpt>
<trkpt lat="40.0728168" lon="-105.2306208">
  <ele>1596.42</ele>
  <time>2026-08-27T18:30:47Z</time>
  <course>51.32</course>
  <speed>0.0</speed>
  <fix>3d</fix>
</trkpt>
<trkpt lat="40.0728168" lon="-105.2306209">
  <ele>1596.52</ele>
  <time>2026-08-27T18:30:47Z</time>
  <course>346.53</course>
  <speed>0.01</speed>
  <fix>3d</fix>
</trkpt>
<trkpt lat="40.0728168" lon="-105.2306208">
  <ele>1596.42</ele>
  <time>2026-08-27T18:30:47Z</time>
  <course>41.03</course>
  <speed>0.0</speed>
  <fix>3d</fix>
</trkpt>
<trkpt lat="40.0728168" lon="-105.2306209">
  <ele>1596.52</ele>
  <time>2026-08-27T18:30:47Z</time>
  <course>346.52</course>
  <speed>0.01</speed>
  <fix>3d</fix>
</trkpt>
<trkpt lat="40.0728168" lon="-105.2306208">
  <ele>1596.42</ele>
  <time>2026-08-27T18:30:47Z</time>
  <course>24.67</course>
  <speed>0.0</speed>
  <fix>3d</fix>
</trkpt>
<trkpt lat="40.0728168" lon="-105.2306209">
  <ele>1596.51</ele>
  <time>2026-08-27T18:30:47Z</time>
  <course>346.51</course>
  <speed>0.01414213562373095</speed>
  <fix>3d</fix>
</trkpt>
<trkpt lat="40.0728168" lon="-105.2306208">
  <ele>1596.42</ele>
  <time>2026-08-27T18:30:47Z</time>
  <course>8.67</course>
  <speed>0.0</speed>
  <fix>3d</fix>
</trkpt>
<trkpt lat="40.0728168" lon="-105.2306209">
  <ele>1596.51</ele>
  <time>2026-08-27T18:30:47Z</time>
  <course>346.49</course>
  <speed>0.01414213562373095</speed>
  <fix>3d</fix>
</trkpt>
<trkpt lat="40.0728168" lon="-105.2306208">
  <ele>1596.41</ele>
  <time>2026-08-27T18:30:47Z</time>
  <course>0.27</course>
  <speed>0.0</speed>
  <fix>3d</fix>
</trkpt>
<trkpt lat="40.0728168" lon="-105.2306209">
  <ele>1596.5</ele>
  <time>2026-08-27T18:30:47Z</time>
  <course>346.47</course>
  <speed>0.01414213562373095</speed>
  <fix>3d</fix>
</trkpt>
<trkpt lat="40.0728168" lon="-105.2306208">
  <ele>1596.41</ele>
  <time>2026-08-27T18:30:47Z</time>
  <course>352.64</course>
  <speed>0.0</speed>
  <fix>3d</fix>
</trkpt>
<trkpt lat="40.0728168" lon="-105.2306209">
  <ele>1596.5</ele>
  <time>2026-08-27T18:30:47Z</time>
  <course>346.45</course>
  <speed>0.01</speed>
  <fix>3d</fix>
</trkpt>
<trkpt lat="40.0728168" lon="-105.2306208">
  <ele>1596.41</ele>
  <time>2026-08-27T18:30:47Z</time>
  <course>346.09</course>
  <speed>0.0</speed>
  <fix>3d</fix>
</trkpt>
<trkpt lat="40.0728168" lon="-105.2306209">
  <ele>1596.5</ele>
  <time>2026-08-27T18:30:47Z</time>
  <course>346.44</course>
  <speed>0.01</speed>
  <fix>3d</fix>
</trkpt>
<trkpt lat="40.0728168" lon="-105.2306208">
  <ele>1596.41</ele>
  <time>2026-08-27T18:30:47Z</time>
  <course>341.01</course>
  <speed>0.0</speed>
  <fix>3d</fix>
</trkpt>
<trkpt lat="40.0728168" lon="-105.2306209">
  <ele>1596.5</ele>
  <time>2026-08-27T18:30:47Z</time>
  <course>346.43</course>
  <speed>0.01</speed>
  <fix>3d</fix>
</trkpt>
<trkpt lat="40.0728168" lon="-105.2306208">
  <ele>1596.41</ele>
  <time>2026-08-27T18:30:47Z</time>
  <course>336.95</course>
  <speed>0.0</speed>
  <fix>3d</fix>
</trkpt>
<trkpt lat="40.0728168" lon="-105.2306209">
  <ele>1596.5</ele>
  <time>2026-08-27T18:30:47Z</time>
  <course>346.42</course>
  <speed>0.01</speed>
  <fix>3d</fix>
</trkpt>
<trkpt lat="40.0728168" lon="-105.2306208">
  <ele>1596.41</ele>
  <time>2026-08-27T18:30:47Z</time>
  <course>331.29</course>
  <speed>0.0</speed>
  <fix>3d</fix>
</trkpt>
<trkpt lat="40.0728168" lon="-105.2306209">
  <ele>1596.5</ele>
  <time>2026-08-27T18:30:47Z</time>
  <course>346.41</course>
  <speed>0.01</speed>
  <fix>3d</fix>
</trkpt>
<trkpt lat="40.0728168" lon="-105.2306208">
  <ele>1596.42</ele>
  <time>2026-08-27T18:30:47Z</time>
  <course>321.79</course>
  <speed>0.0</speed>
  <fix>3d</fix>
</trkpt>
<trkpt lat="40.0728168" lon="-105.2306209">
  <ele>1596.5</ele>
  <time>2026-08-27T18:30:47Z</time>
  <course>346.41</course>
  <speed>0.01</speed>
  <fix>3d</fix>
</trkpt>
<trkpt lat="40.0728168" lon="-105.2306208">
  <ele>1596.42</ele>
  <time>2026-08-27T18:30:47Z</time>
  <course>313.52</course>
  <speed>0.0</speed>
  <fix>3d</fix>
</trkpt>
<trkpt lat="40.0728168" lon="-105.2306209">
  <ele>1596.5</ele>
  <time>2026-08-27T18:30:47Z</time>
  <course>346.4</course>
  <speed>0.01</speed>
  <fix>3d</fix>
</trkpt>
<trkpt lat="40.0728168" lon="-105.2306208">
  <ele>1596.42</ele>
  <time>2026-08-27T18:30:47Z</time>
  <course>309.23</course>
  <speed>0.0</speed>
  <fix>3d</fix>
</trkpt>
<trkpt lat="40.0728168" lon="-105.2306209">
  <ele>1596.5</ele>
  <time>2026-08-27T18:30:47Z</time>
  <course>346.39</course>
  <speed>0.01</speed>
  <fix>3d</fix>
</trkpt>
<trkpt lat="40.0728168" lon="-105.2306208">
  <ele>1596.42</ele>
  <time>2026-08-27T18:30:47Z</time>
  <course>306.94</course>
  <speed>0.0</speed>
  <fix>3d</fix>
</trkpt>
<trkpt lat="40.0728168" lon="-105.2306209">
  <ele>1596.5</ele>
  <time>2026-08-27T18:30:47Z</time>
  <course>346.38</course>
  <speed>0.01</speed>
  <fix>3d</fix>
</trkpt>
<trkpt lat="40.0728168" lon="-105.2306208">
  <ele>1596.42</ele>
  <time>2026-08-27T18:30:47Z</time>
  <course>304.57</course>
  <speed>0.0</speed>
  <fix>3d</fix>
</trkpt>
<trkpt lat="40.0728168" lon="-105.2306209">
  <ele>1596.51</ele>
  <time>2026-08-27T18:30:47Z</time>
  <course>346.38</course>
  <speed>0.01</speed>
  <fix>3d</fix>
</trkpt>
<trkpt lat="40.0728169" lon="-105.2306208">
  <ele>1596.43</ele>
  <time>2026-08-27T18:30:47Z</time>
  <course>301.27</course>
  <speed>0.0</speed>
  <fix>3d</fix>
</trkpt>
<trkpt lat="40.0728168" lon="-105.2306209">
  <ele>1596.51</ele>
  <time>2026-08-27T18:30:47Z</time>
  <course>346.39</course>
  <speed>0.01</speed>
  <fix>3d</fix>
</trkpt>
<trkpt lat="40.0728169" lon="-105.2306208">
  <ele>1596.43</ele>
  <time>2026-08-27T18:30:47Z</time>
  <course>299.32</course>
  <speed>0.0</speed>
  <fix>3d</fix>
</trkpt>
<trkpt lat="40.0728168" lon="-105.2306209">
  <ele>1596.51</ele>
  <time>2026-08-27T18:30:47Z</time>
  <course>346.39</course>
  <speed>0.01</speed>
  <fix>3d</fix>
</trkpt>
<trkpt lat="40.0728169" lon="-105.2306208">
  <ele>1596.43</ele>
  <time>2026-08-27T18:30:47Z</time>
  <course>298.12</course>
  <speed>0.0</speed>
  <fix>3d</fix>
</trkpt>
<trkpt lat="40.0728169" lon="-105.230621">
  <ele>1596.52</ele>
  <time>2026-08-27T18:30:47Z</time>
  <course>346.4</course>
  <speed>0.01</speed>
  <fix>3d</fix>
</trkpt>
<trkpt lat="40.0728169" lon="-105.2306208">
  <ele>1596.43</ele>
  <time>2026-08-27T18:30:47Z</time>
  <course>296.97</course>
  <speed>0.0</speed>
  <fix>3d</fix>
</trkpt>
<trkpt lat="40.0728169" lon="-105.230621">
  <ele>1596.52</ele>
  <time>2026-08-27T18:30:47Z</time>
  <course>346.41</course>
  <speed>0.01</speed>
  <fix>3d</fix>
</trkpt>
<trkpt lat="40.0728169" lon="-105.2306208">
  <ele>1596.44</ele>
  <time>2026-08-27T18:30:47Z</time>
  <course>295.6</course>
  <speed>0.0</speed>
  <fix>3d</fix>
</trkpt>
<trkpt lat="40.0728169" lon="-105.230621">
  <ele>1596.53</ele>
  <time>2026-08-27T18:30:47Z</time>
  <course>346.43</course>
  <speed>0.01</speed>
  <fix>3d</fix>
</trkpt>
<trkpt lat="40.0728169" lon="-105.2306208">
  <ele>1596.44</ele>
  <time>2026-08-27T18:30:47Z</time>
  <course>291.21</course>
  <speed>0.0</speed>
  <fix>3d</fix>
</trkpt>
<trkpt lat="40.0728169" lon="-105.230621">
  <ele>1596.52</ele>
  <time>2026-08-27T18:30:47Z</time>
  <course>346.46</course>
  <speed>0.01</speed>
  <fix>3d</fix>
</trkpt>
<trkpt lat="40.0728169" lon="-105.2306208">
  <ele>1596.44</ele>
  <time>2026-08-27T18:30:47Z</time>
  <course>285.77</course>
  <speed>0.0</speed>
  <fix>3d</fix>
</trkpt>
<trkpt lat="40.0728169" lon="-105.230621">
  <ele>1596.52</ele>
  <time>2026-08-27T18:30:47Z</time>
  <course>346.48</course>
  <speed>0.01</speed>
  <fix>3d</fix>
</trkpt>
<trkpt lat="40.0728169" lon="-105.2306208">
  <ele>1596.43</ele>
  <time>2026-08-27T18:30:47Z</time>
  <course>282.57</course>
  <speed>0.0</speed>
  <fix>3d</fix>
</trkpt>
<trkpt lat="40.0728169" lon="-105.230621">
  <ele>1596.51</ele>
  <time>2026-08-27T18:30:47Z</time>
  <course>346.47</course>
  <speed>0.01</speed>
  <fix>3d</fix>
</trkpt>
<trkpt lat="40.0728169" lon="-105.2306208">
  <ele>1596.43</ele>
  <time>2026-08-27T18:30:47Z</time>
  <course>282.15</course>
  <speed>0.0</speed>
  <fix>3d</fix>
</trkpt>
<trkpt lat="40.0728169" lon="-105.230621">
  <ele>1596.5</ele>
  <time>2026-08-27T18:30:47Z</time>
  <course>346.45</course>
  <speed>0.01</speed>
  <fix>3d</fix>
</trkpt>
<trkpt lat="40.0728169" lon="-105.2306208">
  <ele>1596.43</ele>
  <time>2026-08-27T18:30:47Z</time>
  <course>283.66</course>
  <speed>0.0</speed>
  <fix>3d</fix>
</trkpt>
<trkpt lat="40.0728169" lon="-105.230621">
  <ele>1596.5</ele>
  <time>2026-08-27T18:30:47Z</time>
  <course>346.44</course>
  <speed>0.01</speed>
  <fix>3d</fix>
</trkpt>
<trkpt lat="40.0728169" lon="-105.2306209">
  <ele>1596.43</ele>
  <time>2026-08-27T18:30:47Z</time>
  <course>285.28</course>
  <speed>0.0</speed>
  <fix>3d</fix>
</trkpt>
<trkpt lat="40.0728169" lon="-105.230621">
  <ele>1596.5</ele>
  <time>2026-08-27T18:30:47Z</time>
  <course>346.42</course>
  <speed>0.01</speed>
  <fix>3d</fix>
</trkpt>
<trkpt lat="40.0728169" lon="-105.230621">
  <ele>1596.43</ele>
  <time>2026-08-27T18:30:47Z</time>
  <course>284.38</course>
  <speed>0.0</speed>
  <fix>3d</fix>
</trkpt>
<trkpt lat="40.0728169" lon="-105.230621">
  <ele>1596.51</ele>
  <time>2026-08-27T18:30:47Z</time>
  <course>346.39</course>
  <speed>0.01</speed>
  <fix>3d</fix>
</trkpt>
<trkpt lat="40.0728169" lon="-105.230621">
  <ele>1596.43</ele>
  <time>2026-08-27T18:30:47Z</time>
  <course>278.7</course>
  <speed>0.01</speed>
  <fix>3d</fix>
</trkpt>
<trkpt lat="40.0728169" lon="-105.230621">
  <ele>1596.51</ele>
  <time>2026-08-27T18:30:47Z</time>
  <course>346.38</course>
  <speed>0.01</speed>
  <fix>3d</fix>
</trkpt>
<trkpt lat="40.0728169" lon="-105.230621">
  <ele>1596.43</ele>
  <time>2026-08-27T18:30:47Z</time>
  <course>272.62</course>
  <speed>0.01</speed>
  <fix>3d</fix>
</trkpt>
<trkpt lat="40.0728169" lon="-105.230621">
  <ele>1596.51</ele>
  <time>2026-08-27T18:30:47Z</time>
  <course>346.37</course>
  <speed>0.01</speed>
  <fix>3d</fix>
</trkpt>
<trkpt lat="40.0728169" lon="-105.230621">
  <ele>1596.43</ele>
  <time>2026-08-27T18:30:47Z</time>
  <course>267.94</course>
  <speed>0.01</speed>
  <fix>3d</fix>
</trkpt>
<trkpt lat="40.0728169" lon="-105.2306211">
  <ele>1596.51</ele>
  <time>2026-08-27T18:30:47Z</time>
  <course>346.37</course>
  <speed>0.01</speed>
  <fix>3d</fix>
</trkpt>
<trkpt lat="40.0728169" lon="-105.230621">
  <ele>1596.43</ele>
  <time>2026-08-27T18:30:47Z</time>
  <course>265.31</course>
  <speed>0.01</speed>
  <fix>3d</fix>
</trkpt>
<trkpt lat="40.0728169" lon="-105.2306211">
  <ele>1596.51</ele>
  <time>2026-08-27T18:30:47Z</time>
  <course>346.39</course>
  <speed>0.01</speed>
  <fix>3d</fix>
</trkpt>
<trkpt lat="40.0728169" lon="-105.230621">
  <ele>1596.44</ele>
  <time>2026-08-27T18:30:47Z</time>
  <course>266.5</course>
  <speed>0.01</speed>
  <fix>3d</fix>
</trkpt>
<trkpt lat="40.0728169" lon="-105.2306211">
  <ele>1596.52</ele>
  <time>2026-08-27T18:30:47Z</time>
  <course>346.4</course>
  <speed>0.0</speed>
  <fix>3d</fix>
</trkpt>
<trkpt lat="40.0728169" lon="-105.230621">
  <ele>1596.44</ele>
  <time>2026-08-27T18:30:47Z</time>
  <course>269.61</course>
  <speed>0.0</speed>
  <fix>3d</fix>
</trkpt>
<trkpt lat="40.0728169" lon="-105.2306211">
  <ele>1596.52</ele>
  <time>2026-08-27T18:30:47Z</time>
  <course>346.41</course>
  <speed>0.0</speed>
  <fix>3d</fix>
</trkpt>
<trkpt lat="40.0728169" lon="-105.230621">
  <ele>1596.44</ele>
  <time>2026-08-27T18:30:47Z</time>
  <course>274.66</course>
  <speed>0.0</speed>
  <fix>3d</fix>
</trkpt>
<trkpt lat="40.0728169" lon="-105.2306211">
  <ele>1596.52</ele>
  <time>2026-08-27T18:30:47Z</time>
  <course>346.42</course>
  <speed>0.0</speed>
  <fix>3d</fix>
</trkpt>
<trkpt lat="40.0728169" lon="-105.2306211">
  <ele>1596.44</ele>
  <time>2026-08-27T18:30:47Z</time>
  <course>281.35</course>
  <speed>0.0</speed>
  <fix>3d</fix>
</trkpt>
<trkpt lat="40.0728169" lon="-105.2306211">
  <ele>1596.52</ele>
  <time>2026-08-27T18:30:47Z</time>
  <course>346.43</course>
  <speed>0.0</speed>
  <fix>3d</fix>
</trkpt>
<trkpt lat="40.0728169" lon="-105.2306212">
  <ele>1596.44</ele>
  <time>2026-08-27T18:30:47Z</time>
  <course>288.17</course>
  <speed>0.0</speed>
  <fix>3d</fix>
</trkpt>
<trkpt lat="40.0728169" lon="-105.2306211">
  <ele>1596.52</ele>
  <time>2026-08-27T18:30:47Z</time>
  <course>346.43</course>
  <speed>0.0</speed>
  <fix>3d</fix>
</trkpt>
<trkpt lat="40.0728169" lon="-105.2306212">
  <ele>1596.44</ele>
  <time>2026-08-27T18:30:47Z</time>
  <course>294.77</course>
  <speed>0.0</speed>
  <fix>3d</fix>
</trkpt>
<trkpt lat="40.0728169" lon="-105.2306211">
  <ele>1596.52</ele>
  <time>2026-08-27T18:30:47Z</time>
  <course>346.43</course>
  <speed>0.0</speed>
  <fix>3d</fix>
</trkpt>
<trkpt lat="40.0728169" lon="-105.2306212">
  <ele>1596.43</ele>
  <time>2026-08-27T18:30:47Z</time>
  <course>302.48</course>
  <speed>0.0</speed>
  <fix>3d</fix>
</trkpt>
<trkpt lat="40.0728169" lon="-105.2306211">
  <ele>1596.51</ele>
  <time>2026-08-27T18:30:47Z</time>
  <course>346.43</course>
  <speed>0.0</speed>
  <fix>3d</fix>
</trkpt>
<trkpt lat="40.0728169" lon="-105.2306212">
  <ele>1596.43</ele>
  <time>2026-08-27T18:30:47Z</time>
  <course>313.06</course>
  <speed>0.0</speed>
  <fix>3d</fix>
</trkpt>
<trkpt lat="40.0728169" lon="-105.2306211">
  <ele>1596.51</ele>
  <time>2026-08-27T18:30:47Z</time>
  <course>346.42</course>
  <speed>0.0</speed>
  <fix>3d</fix>
</trkpt>
<trkpt lat="40.0728169" lon="-105.2306212">
  <ele>1596.43</ele>
  <time>2026-08-27T18:30:47Z</time>
  <course>328.49</course>
  <speed>0.0</speed>
  <fix>3d</fix>
</trkpt>
<trkpt lat="40.0728169" lon="-105.2306212">
  <ele>1596.51</ele>
  <time>2026-08-27T18:30:47Z</time>
  <course>346.41</course>
  <speed>0.0</speed>
  <fix>3d</fix>
</trkpt>
<trkpt lat="40.0728169" lon="-105.2306212">
  <ele>1596.43</ele>
  <time>2026-08-27T18:30:47Z</time>
  <course>349.02</course>
  <speed>0.0</speed>
  <fix>3d</fix>
</trkpt>
<trkpt lat="40.0728169" lon="-105.2306212">
  <ele>1596.51</ele>
  <time>2026-08-27T18:30:47Z</time>
  <course>346.39</course>
  <speed>0.0</speed>
  <fix>3d</fix>
</trkpt>
<trkpt lat="40.072817" lon="-105.2306212">
  <ele>1596.43</ele>
  <time>2026-08-27T18:30:47Z</time>
  <course>5.35</course>
  <speed>0.0</speed>
  <fix>3d</fix>
</trkpt>
<trkpt lat="40.0728169" lon="-105.2306212">
  <ele>1596.51</ele>
  <time>2026-08-27T18:30:47Z</time>
  <course>346.4</course>
  <speed>0.0</speed>
  <fix>3d</fix>
</trkpt>
<trkpt lat="40.072817" lon="-105.2306212">
  <ele>1596.43</ele>
  <time>2026-08-27T18:30:47Z</time>
  <course>15.39</course>
  <speed>0.0</speed>
  <fix>3d</fix>
</trkpt>
<trkpt lat="40.0728169" lon="-105.2306212">
  <ele>1596.52</ele>
  <time>2026-08-27T18:30:47Z</time>
  <course>346.39</course>
  <speed>0.0</speed>
  <fix>3d</fix>
</trkpt>
<trkpt lat="40.072817" lon="-105.2306212">
  <ele>1596.43</ele>
  <time>2026-08-27T18:30:47Z</time>
  <course>25.35</course>
  <speed>0.0</speed>
  <fix>3d</fix>
</trkpt>
<trkpt lat="40.0728169" lon="-105.2306212">
  <ele>1596.51</ele>
  <time>2026-08-27T18:30:47Z</time>
  <course>346.4</course>
  <speed>0.0</speed>
  <fix>3d</fix>
</trkpt>
<trkpt lat="40.072817" lon="-105.2306212">
  <ele>1596.43</ele>
  <time>2026-08-27T18:30:47Z</time>
  <course>35.93</course>
  <speed>0.0</speed>
  <fix>3d</fix>
</trkpt>
<trkpt lat="40.0728169" lon="-105.2306212">
  <ele>1596.51</ele>
  <time>2026-08-27T18:30:47Z</time>
  <course>346.39</course>
  <speed>0.0</speed>
  <fix>3d</fix>
</trkpt>
<trkpt lat="40.072817" lon="-105.2306212">
  <ele>1596.43</ele>
  <time>2026-08-27T18:30:47Z</time>
  <course>46.15</course>
  <speed>0.0</speed>
  <fix>3d</fix>
</trkpt>
<trkpt lat="40.0728169" lon="-105.2306212">
  <ele>1596.51</ele>
  <time>2026-08-27T18:30:47Z</time>
  <course>346.38</course>
  <speed>0.0</speed>
  <fix>3d</fix>
</trkpt>
<trkpt lat="40.072817" lon="-105.2306212">
  <ele>1596.43</ele>
  <time>2026-08-27T18:30:47Z</time>
  <course>56.85</course>
  <speed>0.0</speed>
  <fix>3d</fix>
</trkpt>
<trkpt lat="40.0728169" lon="-105.2306212">
  <ele>1596.51</ele>
  <time>2026-08-27T18:30:47Z</time>
  <course>346.37</course>
  <speed>0.0</speed>
  <fix>3d</fix>
</trkpt>
<trkpt lat="40.072817" lon="-105.2306212">
  <ele>1596.43</ele>
  <time>2026-08-27T18:30:47Z</time>
  <course>68.67</course>
  <speed>0.0</speed>
  <fix>3d</fix>
</trkpt>
<trkpt lat="40.0728169" lon="-105.2306212">
  <ele>1596.51</ele>
  <time>2026-08-27T18:30:47Z</time>
  <course>346.37</course>
  <speed>0.0</speed>
  <fix>3d</fix>
</trkpt>
<trkpt lat="40.072817" lon="-105.2306212">
  <ele>1596.42</ele>
  <time>2026-08-27T18:30:47Z</time>
  <course>78.18</course>
  <speed>0.0</speed>
  <fix>3d</fix>
</trkpt>
<trkpt lat="40.0728169" lon="-105.2306212">
  <ele>1596.51</ele>
  <time>2026-08-27T18:30:47Z</time>
  <course>346.36</course>
  <speed>0.0</speed>
  <fix>3d</fix>
</trkpt>
<trkpt lat="40.072817" lon="-105.2306212">
  <ele>1596.42</ele>
  <time>2026-08-27T18:30:47Z</time>
  <course>89.71</course>
  <speed>0.0</speed>
  <fix>3d</fix>
</trkpt>
<trkpt lat="40.0728169" lon="-105.2306212">
  <ele>1596.51</ele>
  <time>2026-08-27T18:30:47Z</time>
  <course>346.35</course>
  <speed>0.0</speed>
  <fix>3d</fix>
</trkpt>
<trkpt lat="40.072817" lon="-105.2306212">
  <ele>1596.42</ele>
  <time>2026-08-27T18:30:47Z</time>
  <course>107.59</course>
  <speed>0.0</speed>
  <fix>3d</fix>
</trkpt>
<trkpt lat="40.0728169" lon="-105.2306212">
  <ele>1596.51</ele>
  <time>2026-08-27T18:30:47Z</time>
  <course>346.35</course>
  <speed>0.0</speed>
  <fix>3d</fix>
</trkpt>
<trkpt lat="40.072817" lon="-105.2306212">
  <ele>1596.42</ele>
  <time>2026-08-27T18:30:47Z</time>
  <course>125.85</course>
  <speed>0.0</speed>
  <fix>3d</fix>
</trkpt>
<trkpt lat="40.0728169" lon="-105.2306212">
  <ele>1596.5</ele>
  <time>2026-08-27T18:30:47Z</time>
  <course>346.35</course>
  <speed>0.0</speed>
  <fix>3d</fix>
</trkpt>
<trkpt lat="40.072817" lon="-105.2306212">
  <ele>1596.42</ele>
  <time>2026-08-27T18:30:47Z</time>
  <course>140.07</course>
  <speed>0.0</speed>
  <fix>3d</fix>
</trkpt>
<trkpt lat="40.0728169" lon="-105.2306212">
  <ele>1596.5</ele>
  <time>2026-08-27T18:30:47Z</time>
  <course>346.34</course>
  <speed>0.0</speed>
  <fix>3d</fix>
</trkpt>
<trkpt lat="40.072817" lon="-105.2306212">
  <ele>1596.42</ele>
  <time>2026-08-27T18:30:47Z</time>
  <course>149.0</course>
  <speed>0.0</speed>
  <fix>3d</fix>
</trkpt>
<trkpt lat="40.0728169" lon="-105.2306212">
  <ele>1596.49</ele>
  <time>2026-08-27T18:30:47Z</time>
  <course>346.33</course>
  <speed>0.0</speed>
  <fix>3d</fix>
</trkpt>
<trkpt lat="40.072817" lon="-105.2306212">
  <ele>1596.42</ele>
  <time>2026-08-27T18:30:47Z</time>
  <course>152.36</course>
  <speed>0.0</speed>
  <fix>3d</fix>
</trkpt>
<trkpt lat="40.0728169" lon="-105.2306212">
  <ele>1596.49</ele>
  <time>2026-08-27T18:30:47Z</time>
  <course>346.3</course>
  <speed>0.0</speed>
  <fix>3d</fix>
</trkpt>
<trkpt lat="40.072817" lon="-105.2306212">
  <ele>1596.43</ele>
  <time>2026-08-27T18:30:47Z</time>
  <course>149.16</course>
  <speed>0.0</speed>
  <fix>3d</fix>
</trkpt>
<trkpt lat="40.0728169" lon="-105.2306212">
  <ele>1596.5</ele>
  <time>2026-08-27T18:30:47Z</time>
  <course>346.28</course>
  <speed>0.0</speed>
  <fix>3d</fix>
</trkpt>
<trkpt lat="40.072817" lon="-105.2306212">
  <ele>1596.43</ele>
  <time>2026-08-27T18:30:47Z</time>
  <course>146.02</course>
  <speed>0.0</speed>
  <fix>3d</fix>
</trkpt>
<trkpt lat="40.0728169" lon="-105.2306212">
  <ele>1596.5</ele>
  <time>2026-08-27T18:30:47Z</time>
  <course>346.27</course>
  <speed>0.0</speed>
  <fix>3d</fix>
</trkpt>
<trkpt lat="40.072817" lon="-105.2306212">
  <ele>1596.43</ele>
  <time>2026-08-27T18:30:47Z</time>
  <course>149.46</course>
  <speed>0.0</speed>
  <fix>3d</fix>
</trkpt>
<trkpt lat="40.0728169" lon="-105.2306212">
  <ele>1596.5</ele>
  <time>2026-08-27T18:30:47Z</time>
  <course>346.26</course>
  <speed>0.0</speed>
  <fix>3d</fix>
</trkpt>
<trkpt lat="40.072817" lon="-105.2306212">
  <ele>1596.43</ele>
  <time>2026-08-27T18:30:47Z</time>
  <course>153.73</course>
  <speed>0.0</speed>
  <fix>3d</fix>
</trkpt>
<trkpt lat="40.0728169" lon="-105.2306212">
  <ele>1596.5</ele>
  <time>2026-08-27T18:30:47Z</time>
  <course>346.25</course>
  <speed>0.0</speed>
  <fix>3d</fix>
</trkpt>
<trkpt lat="40.072817" lon="-105.2306212">
  <ele>1596.44</ele>
  <time>2026-08-27T18:30:47Z</time>
  <course>158.63</course>
  <speed>0.0</speed>
  <fix>3d</fix>
</trkpt>
<trkpt lat="40.0728169" lon="-105.2306212">
  <ele>1596.51</ele>
  <time>2026-08-27T18:30:47Z</time>
  <course>346.25</course>
  <speed>0.0</speed>
  <fix>3d</fix>
</trkpt>
<trkpt lat="40.072817" lon="-105.2306212">
  <ele>1596.44</ele>
  <time>2026-08-27T18:30:47Z</time>
  <course>170.28</course>
  <speed>0.0</speed>
  <fix>3d</fix>
</trkpt>
<trkpt lat="40.0728169" lon="-105.2306212">
  <ele>1596.51</ele>
  <time>2026-08-27T18:30:47Z</time>
  <course>346.25</course>
  <speed>0.0</speed>
  <fix>3d</fix>
</trkpt>
<trkpt lat="40.072817" lon="-105.2306212">
  <ele>1596.44</ele>
  <time>2026-08-27T18:30:47Z</time>
  <course>180.38</course>
  <speed>0.0</speed>
  <fix>3d</fix>
</trkpt>
<trkpt lat="40.0728169" lon="-105.2306212">
  <ele>1596.51</ele>
  <time>2026-08-27T18:30:47Z</time>
  <course>346.25</course>
  <speed>0.0</speed>
  <fix>3d</fix>
</trkpt>
<trkpt lat="40.072817" lon="-105.2306212">
  <ele>1596.44</ele>
  <time>2026-08-27T18:30:47Z</time>
  <course>185.01</course>
  <speed>0.0</speed>
  <fix>3d</fix>
</trkpt>
<trkpt lat="40.0728169" lon="-105.2306212">
  <ele>1596.51</ele>
  <time>2026-08-27T18:30:47Z</time>
  <course>346.25</course>
  <speed>0.0</speed>
  <fix>3d</fix>
</trkpt>
<trkpt lat="40.072817" lon="-105.2306212">
  <ele>1596.45</ele>
  <time>2026-08-27T18:30:47Z</time>
  <course>189.73</course>
  <speed>0.0</speed>
  <fix>3d</fix>
</trkpt>
<trkpt lat="40.0728169" lon="-105.2306212">
  <ele>1596.52</ele>
  <time>2026-08-27T18:30:47Z</time>
  <course>346.25</course>
  <speed>0.0</speed>
  <fix>3d</fix>
</trkpt>
<trkpt lat="40.072817" lon="-105.2306212">
  <ele>1596.45</ele>
  <time>2026-08-27T18:30:47Z</time>
  <course>195.42</course>
  <speed>0.0</speed>
  <fix>3d</fix>
</trkpt>
<trkpt lat="40.0728169" lon="-105.2306212">
  <ele>1596.52</ele>
  <time>2026-08-27T18:30:47Z</time>
  <course>346.26</course>
  <speed>0.0</speed>
  <fix>3d</fix>
</trkpt>
<trkpt lat="40.072817" lon="-105.2306212">
  <ele>1596.45</ele>
  <time>2026-08-27T18:30:47Z</time>
  <course>204.65</course>
  <speed>0.0</speed>
  <fix>3d</fix>
</trkpt>
<trkpt lat="40.0728169" lon="-105.2306212">
  <ele>1596.52</ele>
  <time>2026-08-27T18:30:47Z</time>
  <course>346.28</course>
  <speed>0.0</speed>
  <fix>3d</fix>
</trkpt>
<trkpt lat="40.072817" lon="-105.2306212">
  <ele>1596.45</ele>
  <time>2026-08-27T18:30:47Z</time>
  <course>221.18</course>
  <speed>0.0</speed>
  <fix>3d</fix>
</trkpt>
<trkpt lat="40.0728169" lon="-105.2306212">
  <ele>1596.52</ele>
  <time>2026-08-27T18:30:47Z</time>
  <course>346.3</course>
  <speed>0.0</speed>
  <fix>3d</fix>
</trkpt>
<trkpt lat="40.072817" lon="-105.2306212">
  <ele>1596.45</ele>
  <time>2026-08-27T18:30:47Z</time>
  <course>254.61</course>
  <speed>0.0</speed>
  <fix>3d</fix>
</trkpt>
<trkpt lat="40.0728169" lon="-105.2306212">
  <ele>1596.52</ele>
  <time>2026-08-27T18:30:47Z</time>
  <course>346.31</course>
  <speed>0.0</speed>
  <fix>3d</fix>
</trkpt>
<trkpt lat="40.072817" lon="-105.2306212">
  <ele>1596.45</ele>
  <time>2026-08-27T18:30:47Z</time>
  <course>262.82</course>
  <speed>0.0</speed>
  <fix>3d</fix>
</trkpt>
<trkpt lat="40.0728169" lon="-105.2306212">
  <ele>1596.52</ele>
  <time>2026-08-27T18:30:47Z</time>
  <course>346.32</course>
  <speed>0.0</speed>
  <fix>3d</fix>
</trkpt>
<trkpt lat="40.072817" lon="-105.2306212">
  <ele>1596.45</ele>
  <time>2026-08-27T18:30:47Z</time>
  <course>261.96</course>
  <speed>0.0</speed>
  <fix>3d</fix>
</trkpt>
<trkpt lat="40.0728169" lon="-105.2306212">
  <ele>1596.52</ele>
  <time>2026-08-27T18:30:47Z</time>
  <course>346.34</course>
  <speed>0.0</speed>
  <fix>3d</fix>
</trkpt>
<trkpt lat="40.072817" lon="-105.2306212">
  <ele>1596.44</ele>
  <time>2026-08-27T18:30:47Z</time>
  <course>265.84</course>
  <speed>0.0</speed>
  <fix>3d</fix>
</trkpt>
<trkpt lat="40.0728169" lon="-105.2306212">
  <ele>1596.52</ele>
  <time>2026-08-27T18:30:47Z</time>
  <course>346.35</course>
  <speed>0.0</speed>
  <fix>3d</fix>
</trkpt>
<trkpt lat="40.072817" lon="-105.2306212">
  <ele>1596.44</ele>
  <time>2026-08-27T18:30:47Z</time>
  <course>266.99</course>
  <speed>0.0</speed>
  <fix>3d</fix>
</trkpt>
<trkpt lat="40.0728169" lon="-105.2306212">
  <ele>1596.52</ele>
  <time>2026-08-27T18:30:47Z</time>
  <course>346.35</course>
  <speed>0.0</speed>
  <fix>3d</fix>
</trkpt>
<trkpt lat="40.072817" lon="-105.2306212">
  <ele>1596.44</ele>
  <time>2026-08-27T18:30:47Z</time>
  <course>279.71</course>
  <speed>0.0</speed>
  <fix>3d</fix>
</trkpt>
<trkpt lat="40.0728169" lon="-105.2306212">
  <ele>1596.52</ele>
  <time>2026-08-27T18:30:47Z</time>
  <course>346.34</course>
  <speed>0.0</speed>
  <fix>3d</fix>
</trkpt>
<trkpt lat="40.072817" lon="-105.2306212">
  <ele>1596.44</ele>
  <time>2026-08-27T18:30:47Z</time>
  <course>289.4</course>
  <speed>0.0</speed>
  <fix>3d</fix>
</trkpt>
<trkpt lat="40.0728169" lon="-105.2306212">
  <ele>1596.52</ele>
  <time>2026-08-27T18:30:47Z</time>
  <course>346.32</course>
  <speed>0.0</speed>
  <fix>3d</fix>
</trkpt>
<trkpt lat="40.072817" lon="-105.2306212">
  <ele>1596.44</ele>
  <time>2026-08-27T18:30:47Z</time>
  <course>294.74</course>
  <speed>0.0</speed>
  <fix>3d</fix>
</trkpt>
<trkpt lat="40.0728169" lon="-105.2306212">
  <ele>1596.52</ele>
  <time>2026-08-27T18:30:47Z</time>
  <course>346.31</course>
  <speed>0.0</speed>
  <fix>3d</fix>
</trkpt>
<trkpt lat="40.072817" lon="-105.2306212">
  <ele>1596.43</ele>
  <time>2026-08-27T18:30:47Z</time>
  <course>296.35</course>
  <speed>0.0</speed>
  <fix>3d</fix>
</trkpt>
<trkpt lat="40.0728169" lon="-105.2306212">
  <ele>1596.52</ele>
  <time>2026-08-27T18:30:47Z</time>
  <course>346.31</course>
  <speed>0.0</speed>
  <fix>3d</fix>
</trkpt>
<trkpt lat="40.072817" lon="-105.2306212">
  <ele>1596.43</ele>
  <time>2026-08-27T18:30:47Z</time>
  <course>292.73</course>
  <speed>0.0</speed>
  <fix>3d</fix>
</trkpt>
<trkpt lat="40.0728169" lon="-105.2306212">
  <ele>1596.52</ele>
  <time>2026-08-27T18:30:47Z</time>
  <course>346.3</course>
  <speed>0.0</speed>
  <fix>3d</fix>
</trkpt>
<trkpt lat="40.072817" lon="-105.2306212">
  <ele>1596.43</ele>
  <time>2026-08-27T18:30:47Z</time>
  <course>295.0</course>
  <speed>0.0</speed>
  <fix>3d</fix>
</trkpt>
<trkpt lat="40.0728169" lon="-105.2306212">
  <ele>1596.52</ele>
  <time>2026-08-27T18:30:47Z</time>
  <course>346.3</course>
  <speed>0.0</speed>
  <fix>3d</fix>
</trkpt>
<trkpt lat="40.072817" lon="-105.2306212">
  <ele>1596.43</ele>
  <time>2026-08-27T18:30:47Z</time>
  <course>294.49</course>
  <speed>0.0</speed>
  <fix>3d</fix>
</trkpt>
<trkpt lat="40.0728169" lon="-105.2306212">
  <ele>1596.52</ele>
  <time>2026-08-27T18:30:47Z</time>
  <course>346.3</course>
  <speed>0.0</speed>
  <fix>3d</fix>
</trkpt>
<trkpt lat="40.072817" lon="-105.2306212">
  <ele>1596.43</ele>
  <time>2026-08-27T18:30:47Z</time>
  <course>288.4</course>
  <speed>0.0</speed>
  <fix>3d</fix>
</trkpt>
<trkpt lat="40.0728169" lon="-105.2306212">
  <ele>1596.51</ele>
  <time>2026-08-27T18:30:47Z</time>
  <course>346.3</course>
  <speed>0.0</speed>
  <fix>3d</fix>
</trkpt>
<trkpt lat="40.072817" lon="-105.2306212">
  <ele>1596.42</ele>
  <time>2026-08-27T18:30:47Z</time>
  <course>286.27</course>
  <speed>0.0</speed>
  <fix>3d</fix>
</trkpt>
<trkpt lat="40.0728169" lon="-105.2306212">
  <ele>1596.51</ele>
  <time>2026-08-27T18:30:47Z</time>
  <course>346.29</course>
  <speed>0.0</speed>
  <fix>3d</fix>
</trkpt>
<trkpt lat="40.072817" lon="-105.2306212">
  <ele>1596.42</ele>
  <time>2026-08-27T18:30:47Z</time>
  <course>285.18</course>
  <speed>0.0</speed>
  <fix>3d</fix>
</trkpt>
<trkpt lat="40.0728169" lon="-105.2306212">
  <ele>1596.51</ele>
  <time>2026-08-27T18:30:47Z</time>
  <course>346.3</course>
  <speed>0.0</speed>
  <fix>3d</fix>
</trkpt>
<trkpt lat="40.072817" lon="-105.2306212">
  <ele>1596.42</ele>
  <time>2026-08-27T18:30:47Z</time>
  <course>284.49</course>
  <speed>0.0</speed>
  <fix>3d</fix>
</trkpt>
<trkpt lat="40.0728169" lon="-105.2306212">
  <ele>1596.51</ele>
  <time>2026-08-27T18:30:47Z</time>
  <course>346.29</course>
  <speed>0.0</speed>
  <fix>3d</fix>
</trkpt>
<trkpt lat="40.072817" lon="-105.2306212">
  <ele>1596.42</ele>
  <time>2026-08-27T18:30:47Z</time>
  <course>284.77</course>
  <speed>0.0</speed>
  <fix>3d</fix>
</trkpt>
<trkpt lat="40.0728169" lon="-105.2306212">
  <ele>1596.5</ele>
  <time>2026-08-27T18:30:47Z</time>
  <course>346.28</course>
  <speed>0.0</speed>
  <fix>3d</fix>
</trkpt>
<trkpt lat="40.072817" lon="-105.2306212">
  <ele>1596.42</ele>
  <time>2026-08-27T18:30:47Z</time>
  <course>285.05</course>
  <speed>0.0</speed>
  <fix>3d</fix>
</trkpt>
<trkpt lat="40.0728169" lon="-105.2306212">
  <ele>1596.5</ele>
  <time>2026-08-27T18:30:47Z</time>
  <course>346.28</course>
  <speed>0.0</speed>
  <fix>3d</fix>
</trkpt>
<trkpt lat="40.072817" lon="-105.2306212">
  <ele>1596.42</ele>
  <time>2026-08-27T18:30:47Z</time>
  <course>284.98</course>
  <speed>0.0</speed>
  <fix>3d</fix>
</trkpt>
<trkpt lat="40.0728169" lon="-105.2306212">
  <ele>1596.5</ele>
  <time>2026-08-27T18:30:47Z</time>
  <course>346.28</course>
  <speed>0.0</speed>
  <fix>3d</fix>
</trkpt>
<trkpt lat="40.072817" lon="-105.2306212">
  <ele>1596.42</ele>
  <time>2026-08-27T18:30:47Z</time>
  <course>284.81</course>
  <speed>0.0</speed>
  <fix>3d</fix>
</trkpt>
<trkpt lat="40.0728169" lon="-105.2306212">
  <ele>1596.5</ele>
  <time>2026-08-27T18:30:47Z</time>
  <course>346.27</course>
  <speed>0.0</speed>
  <fix>3d</fix>
</trkpt>
<trkpt lat="40.072817" lon="-105.2306213">
  <ele>1596.42</ele>
  <time>2026-08-27T18:30:47Z</time>
  <course>284.79</course>
  <speed>0.0</speed>
  <fix>3d</fix>
</trkpt>
<trkpt lat="40.0728169" lon="-105.2306212">
  <ele>1596.5</ele>
  <time>2026-08-27T18:30:47Z</time>
  <course>346.25</course>
  <speed>0.0</speed>
  <fix>3d</fix>
</trkpt>
<trkpt lat="40.072817" lon="-105.2306213">
  <ele>1596.42</ele>
  <time>2026-08-27T18:30:47Z</time>
  <course>283.36</course>
  <speed>0.0</speed>
  <fix>3d</fix>
</trkpt>
<trkpt lat="40.0728169" lon="-105.2306212">
  <ele>1596.51</ele>
  <time>2026-08-27T18:30:47Z</time>
  <course>346.23</course>
  <speed>0.0</speed>
  <fix>3d</fix>
</trkpt>
<trkpt lat="40.072817" lon="-105.2306213">
  <ele>1596.42</ele>
  <time>2026-08-27T18:30:47Z</time>
  <course>281.04</course>
  <speed>0.0</speed>
  <fix>3d</fix>
</trkpt>
<trkpt lat="40.0728169" lon="-105.2306212">
  <ele>1596.51</ele>
  <time>2026-08-27T18:30:47Z</time>
  <course>346.21</course>
  <speed>0.0</speed>
  <fix>3d</fix>
</trkpt>
<trkpt lat="40.072817" lon="-105.2306213">
  <ele>1596.42</ele>
  <time>2026-08-27T18:30:47Z</time>
  <course>281.25</course>
  <speed>0.0</speed>
  <fix>3d</fix>
</trkpt>
<trkpt lat="40.0728169" lon="-105.2306212">
  <ele>1596.51</ele>
  <time>2026-08-27T18:30:47Z</time>
  <course>346.2</course>
  <speed>0.0</speed>
  <fix>3d</fix>
</trkpt>
<trkpt lat="40.072817" lon="-105.2306213">
  <ele>1596.42</ele>
  <time>2026-08-27T18:30:47Z</time>
  <course>283.01</course>
  <speed>0.0</speed>
  <fix>3d</fix>
</trkpt>
<trkpt lat="40.0728169" lon="-105.2306212">
  <ele>1596.5</ele>
  <time>2026-08-27T18:30:47Z</time>
  <course>346.19</course>
  <speed>0.0</speed>
  <fix>3d</fix>
</trkpt>
<trkpt lat="40.072817" lon="-105.2306213">
  <ele>1596.42</ele>
  <time>2026-08-27T18:30:47Z</time>
  <course>284.49</course>
  <speed>0.0</speed>
  <fix>3d</fix>
</trkpt>
<trkpt lat="40.0728169" lon="-105.2306212">
  <ele>1596.5</ele>
  <time>2026-08-27T18:30:47Z</time>
  <course>346.18</course>
  <speed>0.0</speed>
  <fix>3d</fix>
</trkpt>
<trkpt lat="40.072817" lon="-105.2306213">
  <ele>1596.42</ele>
  <time>2026-08-27T18:30:47Z</time>
  <course>285.92</course>
  <speed>0.0</speed>
  <fix>3d</fix>
</trkpt>
<trkpt lat="40.0728169" lon="-105.2306212">
  <ele>1596.5</ele>
  <time>2026-08-27T18:30:47Z</time>
  <course>346.18</course>
  <speed>0.0</speed>
  <fix>3d</fix>
</trkpt>
<trkpt lat="40.072817" lon="-105.2306213">
  <ele>1596.43</ele>
  <time>2026-08-27T18:30:47Z</time>
  <course>287.13</course>
  <speed>0.0</speed>
  <fix>3d</fix>
</trkpt>
<trkpt lat="40.0728169" lon="-105.2306212">
  <ele>1596.5</ele>
  <time>2026-08-27T18:30:47Z</time>
  <course>346.18</course>
  <speed>0.0</speed>
  <fix>3d</fix>
</trkpt>
<trkpt lat="40.072817" lon="-105.2306213">
  <ele>1596.43</ele>
  <time>2026-08-27T18:30:47Z</time>
  <course>287.03</course>
  <speed>0.0</speed>
  <fix>3d</fix>
</trkpt>
<trkpt lat="40.0728169" lon="-105.2306212">
  <ele>1596.5</ele>
  <time>2026-08-27T18:30:47Z</time>
  <course>346.17</course>
  <speed>0.0</speed>
  <fix>3d</fix>
</trkpt>
<trkpt lat="40.072817" lon="-105.2306213">
  <ele>1596.43</ele>
  <time>2026-08-27T18:30:47Z</time>
  <course>288.8</course>
  <speed>0.0</speed>
  <fix>3d</fix>
</trkpt>
<trkpt lat="40.0728169" lon="-105.2306212">
  <ele>1596.5</ele>
  <time>2026-08-27T18:30:48Z</time>
  <course>346.17</course>
  <speed>0.0</speed>
  <fix>3d</fix>
</trkpt>
<trkpt lat="40.072817" lon="-105.2306213">
  <ele>1596.43</ele>
  <time>2026-08-27T18:30:48Z</time>
  <course>298.18</course>
  <speed>0.0</speed>
  <fix>3d</fix>
</trkpt>
<trkpt lat="40.0728169" lon="-105.2306212">
  <ele>1596.51</ele>
  <time>2026-08-27T18:30:48Z</time>
  <course>346.17</course>
  <speed>0.01</speed>
  <fix>3d</fix>
</trkpt>
<trkpt lat="40.072817" lon="-105.2306213">
  <ele>1596.43</ele>
  <time>2026-08-27T18:30:48Z</time>
  <course>315.96</course>
  <speed>0.0</speed>
  <fix>3d</fix>
</trkpt>
<trkpt lat="40.0728169" lon="-105.2306212">
  <ele>1596.51</ele>
  <time>2026-08-27T18:30:48Z</time>
  <course>346.17</course>
  <speed>0.01</speed>
  <fix>3d</fix>
</trkpt>
<trkpt lat="40.072817" lon="-105.2306213">
  <ele>1596.43</ele>
  <time>2026-08-27T18:30:48Z</time>
  <course>327.66</course>
  <speed>0.0</speed>
  <fix>3d</fix>
</trkpt>
<trkpt lat="40.0728169" lon="-105.2306212">
  <ele>1596.52</ele>
  <time>2026-08-27T18:30:48Z</time>
  <course>346.17</course>
  <speed>0.01</speed>
  <fix>3d</fix>
</trkpt>
<trkpt lat="40.072817" lon="-105.2306213">
  <ele>1596.43</ele>
  <time>2026-08-27T18:30:48Z</time>
  <course>331.67</course>
  <speed>0.0</speed>
  <fix>3d</fix>
</trkpt>
<trkpt lat="40.0728169" lon="-105.2306212">
  <ele>1596.52</ele>
  <time>2026-08-27T18:30:48Z</time>
  <course>346.18</course>
  <speed>0.01</speed>
  <fix>3d</fix>
</trkpt>
<trkpt lat="40.072817" lon="-105.2306213">
  <ele>1596.43</ele>
  <time>2026-08-27T18:30:48Z</time>
  <course>334.18</course>
  <speed>0.0</speed>
  <fix>3d</fix>
</trkpt>
<trkpt lat="40.0728169" lon="-105.2306212">
  <ele>1596.52</ele>
  <time>2026-08-27T18:30:48Z</time>
  <course>346.2</course>
  <speed>0.01</speed>
  <fix>3d</fix>
</trkpt>
<trkpt lat="40.072817" lon="-105.2306213">
  <ele>1596.43</ele>
  <time>2026-08-27T18:30:48Z</time>
  <course>331.58</course>
  <speed>0.0</speed>
  <fix>3d</fix>
</trkpt>
<trkpt lat="40.0728169" lon="-105.2306212">
  <ele>1596.51</ele>
  <time>2026-08-27T18:30:48Z</time>
  <course>346.21</course>
  <speed>0.01</speed>
  <fix>3d</fix>
</trkpt>
<trkpt lat="40.072817" lon="-105.2306213">
  <ele>1596.43</ele>
  <time>2026-08-27T18:30:48Z</time>
  <course>328.0</course>
  <speed>0.0</speed>
  <fix>3d</fix>
</trkpt>
<trkpt lat="40.0728169" lon="-105.2306212">
  <ele>1596.51</ele>
  <time>2026-08-27T18:30:48Z</time>
  <course>346.21</course>
  <speed>0.01</speed>
  <fix>3d</fix>
</trkpt>
<trkpt lat="40.072817" lon="-105.2306213">
  <ele>1596.43</ele>
  <time>2026-08-27T18:30:48Z</time>
  <course>331.0</course>
  <speed>0.0</speed>
  <fix>3d</fix>
</trkpt>
<trkpt lat="40.0728169" lon="-105.2306212">
  <ele>1596.51</ele>
  <time>2026-08-27T18:30:48Z</time>
  <course>346.2</course>
  <speed>0.01</speed>
  <fix>3d</fix>
</trkpt>
<trkpt lat="40.072817" lon="-105.2306213">
  <ele>1596.43</ele>
  <time>2026-08-27T18:30:48Z</time>
  <course>334.66</course>
  <speed>0.0</speed>
  <fix>3d</fix>
</trkpt>
<trkpt lat="40.0728169" lon="-105.2306212">
  <ele>1596.5</ele>
  <time>2026-08-27T18:30:48Z</time>
  <course>346.19</course>
  <speed>0.01</speed>
  <fix>3d</fix>
</trkpt>
<trkpt lat="40.072817" lon="-105.2306213">
  <ele>1596.43</ele>
  <time>2026-08-27T18:30:48Z</time>
  <course>335.11</course>
  <speed>0.0</speed>
  <fix>3d</fix>
</trkpt>
<trkpt lat="40.0728169" lon="-105.2306212">
  <ele>1596.51</ele>
  <time>2026-08-27T18:30:48Z</time>
  <course>346.19</course>
  <speed>0.01</speed>
  <fix>3d</fix>
</trkpt>
<trkpt lat="40.072817" lon="-105.2306214">
  <ele>1596.43</ele>
  <time>2026-08-27T18:30:48Z</time>
  <course>335.48</course>
  <speed>0.0</speed>
  <fix>3d</fix>
</trkpt>
<trkpt lat="40.0728169" lon="-105.2306212">
  <ele>1596.51</ele>
  <time>2026-08-27T18:30:48Z</time>
  <course>346.18</course>
  <speed>0.01</speed>
  <fix>3d</fix>
</trkpt>
<trkpt lat="40.072817" lon="-105.2306215">
  <ele>1596.43</ele>
  <time>2026-08-27T18:30:48Z</time>
  <course>334.24</course>
  <speed>0.0</speed>
  <fix>3d</fix>
</trkpt>
<trkpt lat="40.0728169" lon="-105.2306212">
  <ele>1596.52</ele>
  <time>2026-08-27T18:30:48Z</time>
  <course>346.18</course>
  <speed>0.0</speed>
  <fix>3d</fix>
</trkpt>
<trkpt lat="40.072817" lon="-105.2306215">
  <ele>1596.43</ele>
  <time>2026-08-27T18:30:48Z</time>
  <course>328.74</course>
  <speed>0.0</speed>
  <fix>3d</fix>
</trkpt>
<trkpt lat="40.0728169" lon="-105.2306212">
  <ele>1596.52</ele>
  <time>2026-08-27T18:30:48Z</time>
  <course>346.19</course>
  <speed>0.0</speed>
  <fix>3d</fix>
</trkpt>
<trkpt lat="40.072817" lon="-105.2306215">
  <ele>1596.43</ele>
  <time>2026-08-27T18:30:48Z</time>
  <course>321.05</course>
  <speed>0.0</speed>
  <fix>3d</fix>
</trkpt>
<trkpt lat="40.0728169" lon="-105.2306213">
  <ele>1596.53</ele>
  <time>2026-08-27T18:30:48Z</time>
  <course>346.2</course>
  <speed>0.0</speed>
  <fix>3d</fix>
</trkpt>
<trkpt lat="40.072817" lon="-105.2306215">
  <ele>1596.43</ele>
  <time>2026-08-27T18:30:48Z</time>
  <course>315.42</course>
  <speed>0.0</speed>
  <fix>3d</fix>
</trkpt>
<trkpt lat="40.072817" lon="-105.2306213">
  <ele>1596.53</ele>
  <time>2026-08-27T18:30:48Z</time>
  <course>346.23</course>
  <speed>0.0</speed>
  <fix>3d</fix>
</trkpt>
<trkpt lat="40.072817" lon="-105.2306215">
  <ele>1596.43</ele>
  <time>2026-08-27T18:30:48Z</time>
  <course>313.15</course>
  <speed>0.0</speed>
  <fix>3d</fix>
</trkpt>
<trkpt lat="40.072817" lon="-105.2306213">
  <ele>1596.52</ele>
  <time>2026-08-27T18:30:48Z</time>
  <course>346.25</course>
  <speed>0.01</speed>
  <fix>3d</fix>
</trkpt>
<trkpt lat="40.072817" lon="-105.2306215">
  <ele>1596.43</ele>
  <time>2026-08-27T18:30:48Z</time>
  <course>323.47</course>
  <speed>0.0</speed>
  <fix>3d</fix>
</trkpt>
<trkpt lat="40.072817" lon="-105.2306213">
  <ele>1596.51</ele>
  <time>2026-08-27T18:30:48Z</time>
  <course>346.24</course>
  <speed>0.01</speed>
  <fix>3d</fix>
</trkpt>
<trkpt lat="40.072817" lon="-105.2306215">
  <ele>1596.42</ele>
  <time>2026-08-27T18:30:48Z</time>
  <course>357.21</course>
  <speed>0.0</speed>
  <fix>3d</fix>
</trkpt>
<trkpt lat="40.072817" lon="-105.2306213">
  <ele>1596.5</ele>
  <time>2026-08-27T18:30:48Z</time>
  <course>346.23</course>
  <speed>0.01</speed>
  <fix>3d</fix>
</trkpt>
<trkpt lat="40.072817" lon="-105.2306215">
  <ele>1596.42</ele>
  <time>2026-08-27T18:30:48Z</time>
  <course>21.52</course>
  <speed>0.0</speed>
  <fix>3d</fix>
</trkpt>
<trkpt lat="40.072817" lon="-105.2306213">
  <ele>1596.5</ele>
  <time>2026-08-27T18:30:48Z</time>
  <course>346.22</course>
  <speed>0.01</speed>
  <fix>3d</fix>
</trkpt>
<trkpt lat="40.072817" lon="-105.2306215">
  <ele>1596.42</ele>
  <time>2026-08-27T18:30:48Z</time>
  <course>30.84</course>
  <speed>0.0</speed>
  <fix>3d</fix>
</trkpt>
<trkpt lat="40.072817" lon="-105.2306213">
  <ele>1596.5</ele>
  <time>2026-08-27T18:30:48Z</time>
  <course>346.18</course>
  <speed>0.01</speed>
  <fix>3d</fix>
</trkpt>
<trkpt lat="40.072817" lon="-105.2306215">
  <ele>1596.42</ele>
  <time>2026-08-27T18:30:48Z</time>
  <course>38.6</course>
  <speed>0.0</speed>
  <fix>3d</fix>
</trkpt>
<trkpt lat="40.072817" lon="-105.2306213">
  <ele>1596.49</ele>
  <time>2026-08-27T18:30:48Z</time>
  <course>346.13</course>
  <speed>0.01</speed>
  <fix>3d</fix>
</trkpt>
<trkpt lat="40.072817" lon="-105.2306215">
  <ele>1596.42</ele>
  <time>2026-08-27T18:30:48Z</time>
  <course>45.7</course>
  <speed>0.0</speed>
  <fix>3d</fix>
</trkpt>
<trkpt lat="40.072817" lon="-105.2306213">
  <ele>1596.49</ele>
  <time>2026-08-27T18:30:48Z</time>
  <course>346.11</course>
  <speed>0.01</speed>
  <fix>3d</fix>
</trkpt>
<trkpt lat="40.072817" lon="-105.2306215">
  <ele>1596.42</ele>
  <time>2026-08-27T18:30:48Z</time>
  <course>50.02</course>
  <speed>0.0</speed>
  <fix>3d</fix>
</trkpt>
<trkpt lat="40.072817" lon="-105.2306213">
  <ele>1596.49</ele>
  <time>2026-08-27T18:30:48Z</time>
  <course>346.09</course>
  <speed>0.01</speed>
  <fix>3d</fix>
</trkpt>
<trkpt lat="40.072817" lon="-105.2306215">
  <ele>1596.42</ele>
  <time>2026-08-27T18:30:48Z</time>
  <course>51.72</course>
  <speed>0.0</speed>
  <fix>3d</fix>
</trkpt>
<trkpt lat="40.072817" lon="-105.2306213">
  <ele>1596.5</ele>
  <time>2026-08-27T18:30:48Z</time>
  <course>346.07</course>
  <speed>0.01</speed>
  <fix>3d</fix>
</trkpt>
<trkpt lat="40.072817" lon="-105.2306215">
  <ele>1596.42</ele>
  <time>2026-08-27T18:30:48Z</time>
  <course>52.76</course>
  <speed>0.0</speed>
  <fix>3d</fix>
</trkpt>
<trkpt lat="40.072817" lon="-105.2306213">
  <ele>1596.5</ele>
  <time>2026-08-27T18:30:48Z</time>
  <course>346.08</course>
  <speed>0.01</speed>
  <fix>3d</fix>
</trkpt>
<trkpt lat="40.072817" lon="-105.2306215">
  <ele>1596.43</ele>
  <time>2026-08-27T18:30:48Z</time>
  <course>55.02</course>
  <speed>0.0</speed>
  <fix>3d</fix>
</trkpt>
<trkpt lat="40.072817" lon="-105.2306213">
  <ele>1596.5</ele>
  <time>2026-08-27T18:30:48Z</time>
  <course>346.08</course>
  <speed>0.01</speed>
  <fix>3d</fix>
</trkpt>
<trkpt lat="40.072817" lon="-105.2306215">
  <ele>1596.43</ele>
  <time>2026-08-27T18:30:48Z</time>
  <course>58.7</course>
  <speed>0.0</speed>
  <fix>3d</fix>
</trkpt>
<trkpt lat="40.072817" lon="-105.2306213">
  <ele>1596.5</ele>
  <time>2026-08-27T18:30:48Z</time>
  <course>346.08</course>
  <speed>0.01</speed>
  <fix>3d</fix>
</trkpt>
<trkpt lat="40.072817" lon="-105.2306215">
  <ele>1596.43</ele>
  <time>2026-08-27T18:30:48Z</time>
  <course>62.24</course>
  <speed>0.0</speed>
  <fix>3d</fix>
</trkpt>
<trkpt lat="40.072817" lon="-105.2306213">
  <ele>1596.5</ele>
  <time>2026-08-27T18:30:48Z</time>
  <course>346.08</course>
  <speed>0.01</speed>
  <fix>3d</fix>
</trkpt>
<trkpt lat="40.072817" lon="-105.2306215">
  <ele>1596.44</ele>
  <time>2026-08-27T18:30:48Z</time>
  <course>60.57</course>
  <speed>0.0</speed>
  <fix>3d</fix>
</trkpt>
<trkpt lat="40.072817" lon="-105.2306213">
  <ele>1596.5</ele>
  <time>2026-08-27T18:30:48Z</time>
  <course>346.08</course>
  <speed>0.01</speed>
  <fix>3d</fix>
</trkpt>
<trkpt lat="40.0728171" lon="-105.2306215">
  <ele>1596.44</ele>
  <time>2026-08-27T18:30:48Z</time>
  <course>57.55</course>
  <speed>0.0</speed>
  <fix>3d</fix>
</trkpt>
<trkpt lat="40.072817" lon="-105.2306213">
  <ele>1596.51</ele>
  <time>2026-08-27T18:30:48Z</time>
  <course>346.08</course>
  <speed>0.01</speed>
  <fix>3d</fix>
</trkpt>
<trkpt lat="40.0728171" lon="-105.2306215">
  <ele>1596.44</ele>
  <time>2026-08-27T18:30:48Z</time>
  <course>54.64</course>
  <speed>0.0</speed>
  <fix>3d</fix>
</trkpt>
<trkpt lat="40.072817" lon="-105.2306213">
  <ele>1596.51</ele>
  <time>2026-08-27T18:30:48Z</time>
  <course>346.08</course>
  <speed>0.01</speed>
  <fix>3d</fix>
</trkpt>
<trkpt lat="40.0728171" lon="-105.2306215">
  <ele>1596.44</ele>
  <time>2026-08-27T18:30:48Z</time>
  <course>49.38</course>
  <speed>0.0</speed>
  <fix>3d</fix>
</trkpt>
<trkpt lat="40.072817" lon="-105.2306213">
  <ele>1596.51</ele>
  <time>2026-08-27T18:30:48Z</time>
  <course>346.08</course>
  <speed>0.01</speed>
  <fix>3d</fix>
</trkpt>
<trkpt lat="40.0728171" lon="-105.2306215">
  <ele>1596.44</ele>
  <time>2026-08-27T18:30:48Z</time>
  <course>46.81</course>
  <speed>0.0</speed>
  <fix>3d</fix>
</trkpt>
<trkpt lat="40.072817" lon="-105.2306213">
  <ele>1596.52</ele>
  <time>2026-08-27T18:30:48Z</time>
  <course>346.09</course>
  <speed>0.01</speed>
  <fix>3d</fix>
</trkpt>
<trkpt lat="40.0728171" lon="-105.2306214">
  <ele>1596.45</ele>
  <time>2026-08-27T18:30:48Z</time>
  <course>47.64</course>
  <speed>0.0</speed>
  <fix>3d</fix>
</trkpt>
<trkpt lat="40.072817" lon="-105.2306213">
  <ele>1596.52</ele>
  <time>2026-08-27T18:30:48Z</time>
  <course>346.1</course>
  <speed>0.01</speed>
  <fix>3d</fix>
</trkpt>
<trkpt lat="40.0728171" lon="-105.2306213">
  <ele>1596.45</ele>
  <time>2026-08-27T18:30:48Z</time>
  <course>51.49</course>
  <speed>0.0</speed>
  <fix>3d</fix>
</trkpt>
<trkpt lat="40.072817" lon="-105.2306213">
  <ele>1596.53</ele>
  <time>2026-08-27T18:30:48Z</time>
  <course>346.12</course>
  <speed>0.01</speed>
  <fix>3d</fix>
</trkpt>
<trkpt lat="40.0728171" lon="-105.2306213">
  <ele>1596.45</ele>
  <time>2026-08-27T18:30:48Z</time>
  <course>60.97</course>
  <speed>0.0</speed>
  <fix>3d</fix>
</trkpt>
<trkpt lat="40.072817" lon="-105.2306213">
  <ele>1596.53</ele>
  <time>2026-08-27T18:30:48Z</time>
  <course>346.15</course>
  <speed>0.01</speed>
  <fix>3d</fix>
</trkpt>
<trkpt lat="40.0728171" lon="-105.2306213">
  <ele>1596.45</ele>
  <time>2026-08-27T18:30:48Z</time>
  <course>74.82</course>
  <speed>0.0</speed>
  <fix>3d</fix>
</trkpt>
<trkpt lat="40.072817" lon="-105.2306213">
  <ele>1596.53</ele>
  <time>2026-08-27T18:30:48Z</time>
  <course>346.17</course>
  <speed>0.01</speed>
  <fix>3d</fix>
</trkpt>
<trkpt lat="40.0728171" lon="-105.2306213">
  <ele>1596.44</ele>
  <time>2026-08-27T18:30:48Z</time>
  <course>86.23</course>
  <speed>0.0</speed>
  <fix>3d</fix>
</trkpt>
<trkpt lat="40.072817" lon="-105.2306213">
  <ele>1596.52</ele>
  <time>2026-08-27T18:30:48Z</time>
  <course>346.18</course>
  <speed>0.01</speed>
  <fix>3d</fix>
</trkpt>
<trkpt lat="40.0728171" lon="-105.2306213">
  <ele>1596.44</ele>
  <time>2026-08-27T18:30:48Z</time>
  <course>95.99</course>
  <speed>0.0</speed>
  <fix>3d</fix>
</trkpt>
<trkpt lat="40.072817" lon="-105.2306213">
  <ele>1596.52</ele>
  <time>2026-08-27T18:30:48Z</time>
  <course>346.17</course>
  <speed>0.01</speed>
  <fix>3d</fix>
</trkpt>
<trkpt lat="40.0728171" lon="-105.2306213">
  <ele>1596.44</ele>
  <time>2026-08-27T18:30:48Z</time>
  <course>113.42</course>
  <speed>0.0</speed>
  <fix>3d</fix>
</trkpt>
<trkpt lat="40.072817" lon="-105.2306213">
  <ele>1596.52</ele>
  <time>2026-08-27T18:30:48Z</time>
  <course>346.16</course>
  <speed>0.01</speed>
  <fix>3d</fix>
</trkpt>
<trkpt lat="40.0728171" lon="-105.2306213">
  <ele>1596.43</ele>
  <time>2026-08-27T18:30:48Z</time>
  <course>159.47</course>
  <speed>0.0</speed>
  <fix>3d</fix>
</trkpt>
<trkpt lat="40.072817" lon="-105.2306213">
  <ele>1596.52</ele>
  <time>2026-08-27T18:30:48Z</time>
  <course>346.15</course>
  <speed>0.01414213562373095</speed>
  <fix>3d</fix>
</trkpt>
<trkpt lat="40.0728171" lon="-105.2306213">
  <ele>1596.43</ele>
  <time>2026-08-27T18:30:48Z</time>
  <course>207.71</course>
  <speed>0.0</speed>
  <fix>3d</fix>
</trkpt>
<trkpt lat="40.072817" lon="-105.2306213">
  <ele>1596.51</ele>
  <time>2026-08-27T18:30:48Z</time>
  <course>346.15</course>
  <speed>0.01414213562373095</speed>
  <fix>3d</fix>
</trkpt>
<trkpt lat="40.0728171" lon="-105.2306213">
  <ele>1596.43</ele>
  <time>2026-08-27T18:30:48Z</time>
  <course>222.92</course>
  <speed>0.0</speed>
  <fix>3d</fix>
</trkpt>
<trkpt lat="40.072817" lon="-105.2306213">
  <ele>1596.51</ele>
  <time>2026-08-27T18:30:48Z</time>
  <course>346.14</course>
  <speed>0.01414213562373095</speed>
  <fix>3d</fix>
</trkpt>
<trkpt lat="40.0728171" lon="-105.2306213">
  <ele>1596.43</ele>
  <time>2026-08-27T18:30:48Z</time>
  <course>229.35</course>
  <speed>0.0</speed>
  <fix>3d</fix>
</trkpt>
<trkpt lat="40.072817" lon="-105.2306213">
  <ele>1596.51</ele>
  <time>2026-08-27T18:30:48Z</time>
  <course>346.13</course>
  <speed>0.01414213562373095</speed>
  <fix>3d</fix>
</trkpt>
<trkpt lat="40.0728171" lon="-105.2306213">
  <ele>1596.43</ele>
  <time>2026-08-27T18:30:48Z</time>
  <course>234.56</course>
  <speed>0.0</speed>
  <fix>3d</fix>
</trkpt>
<trkpt lat="40.072817" lon="-105.2306213">
  <ele>1596.51</ele>
  <time>2026-08-27T18:30:48Z</time>
  <course>346.12</course>
  <speed>0.01414213562373095</speed>
  <fix>3d</fix>
</trkpt>
<trkpt lat="40.0728171" lon="-105.2306213">
  <ele>1596.43</ele>
  <time>2026-08-27T18:30:48Z</time>
  <course>238.12</course>
  <speed>0.0</speed>
  <fix>3d</fix>
</trkpt>
<trkpt lat="40.072817" lon="-105.2306213">
  <ele>1596.52</ele>
  <time>2026-08-27T18:30:48Z</time>
  <course>346.12</course>
  <speed>0.01</speed>
  <fix>3d</fix>
</trkpt>
<trkpt lat="40.0728171" lon="-105.2306213">
  <ele>1596.43</ele>
  <time>2026-08-27T18:30:48Z</time>
  <course>240.66</course>
  <speed>0.0</speed>
  <fix>3d</fix>
</trkpt>
<trkpt lat="40.072817" lon="-105.2306213">
  <ele>1596.52</ele>
  <time>2026-08-27T18:30:48Z</time>
  <course>346.13</course>
  <speed>0.01</speed>
  <fix>3d</fix>
</trkpt>
<trkpt lat="40.0728171" lon="-105.2306213">
  <ele>1596.43</ele>
  <time>2026-08-27T18:30:48Z</time>
  <course>243.45</course>
  <speed>0.0</speed>
  <fix>3d</fix>
</trkpt>
<trkpt lat="40.072817" lon="-105.2306213">
  <ele>1596.52</ele>
  <time>2026-08-27T18:30:48Z</time>
  <course>346.14</course>
  <speed>0.01</speed>
  <fix>3d</fix>
</trkpt>
<trkpt lat="40.0728171" lon="-105.2306213">
  <ele>1596.43</ele>
  <time>2026-08-27T18:30:48Z</time>
  <course>246.59</course>
  <speed>0.0</speed>
  <fix>3d</fix>
</trkpt>
<trkpt lat="40.072817" lon="-105.2306213">
  <ele>1596.52</ele>
  <time>2026-08-27T18:30:48Z</time>
  <course>346.14</course>
  <speed>0.01</speed>
  <fix>3d</fix>
</trkpt>
<trkpt lat="40.0728171" lon="-105.2306213">
  <ele>1596.42</ele>
  <time>2026-08-27T18:30:48Z</time>
  <course>248.7</course>
  <speed>0.0</speed>
  <fix>3d</fix>
</trkpt>
<trkpt lat="40.072817" lon="-105.2306213">
  <ele>1596.51</ele>
  <time>2026-08-27T18:30:48Z</time>
  <course>346.13</course>
  <speed>0.0</speed>
  <fix>3d</fix>
</trkpt>
<trkpt lat="40.0728171" lon="-105.2306213">
  <ele>1596.42</ele>
  <time>2026-08-27T18:30:48Z</time>
  <course>250.76</course>
  <speed>0.0</speed>
  <fix>3d</fix>
</trkpt>
<trkpt lat="40.072817" lon="-105.2306213">
  <ele>1596.51</ele>
  <time>2026-08-27T18:30:48Z</time>
  <course>346.13</course>
  <speed>0.0</speed>
  <fix>3d</fix>
</trkpt>
<trkpt lat="40.0728171" lon="-105.2306213">
  <ele>1596.42</ele>
  <time>2026-08-27T18:30:48Z</time>
  <course>251.57</course>
  <speed>0.0</speed>
  <fix>3d</fix>
</trkpt>
<trkpt lat="40.072817" lon="-105.2306213">
  <ele>1596.51</ele>
  <time>2026-08-27T18:30:48Z</time>
  <course>346.12</course>
  <speed>0.01</speed>
  <fix>3d</fix>
</trkpt>
<trkpt lat="40.0728171" lon="-105.2306213">
  <ele>1596.42</ele>
  <time>2026-08-27T18:30:48Z</time>
  <course>250.86</course>
  <speed>0.0</speed>
  <fix>3d</fix>
</trkpt>
<trkpt lat="40.072817" lon="-105.2306213">
  <ele>1596.51</ele>
  <time>2026-08-27T18:30:48Z</time>
  <course>346.1</course>
  <speed>0.01</speed>
  <fix>3d</fix>
</trkpt>
<trkpt lat="40.0728171" lon="-105.2306214">
  <ele>1596.42</ele>
  <time>2026-08-27T18:30:48Z</time>
  <course>251.22</course>
  <speed>0.0</speed>
  <fix>3d</fix>
</trkpt>
<trkpt lat="40.072817" lon="-105.2306213">
  <ele>1596.5</ele>
  <time>2026-08-27T18:30:48Z</time>
  <course>346.07</course>
  <speed>0.01</speed>
  <fix>3d</fix>
</trkpt>
<trkpt lat="40.0728171" lon="-105.2306215">
  <ele>1596.42</ele>
  <time>2026-08-27T18:30:48Z</time>
  <course>253.08</course>
  <speed>0.0</speed>
  <fix>3d</fix>
</trkpt>
<trkpt lat="40.072817" lon="-105.2306213">
  <ele>1596.5</ele>
  <time>2026-08-27T18:30:48Z</time>
  <course>346.06</course>
  <speed>0.0</speed>
  <fix>3d</fix>
</trkpt>
<trkpt lat="40.0728171" lon="-105.2306215">
  <ele>1596.42</ele>
  <time>2026-08-27T18:30:48Z</time>
  <course>256.73</course>
  <speed>0.0</speed>
  <fix>3d</fix>
</trkpt>
<trkpt lat="40.072817" lon="-105.2306213">
  <ele>1596.5</ele>
  <time>2026-08-27T18:30:48Z</time>
  <course>346.05</course>
  <speed>0.0</speed>
  <fix>3d</fix>
</trkpt>
<trkpt lat="40.0728171" lon="-105.2306215">
  <ele>1596.42</ele>
  <time>2026-08-27T18:30:48Z</time>
  <course>260.78</course>
  <speed>0.0</speed>
  <fix>3d</fix>
</trkpt>
<trkpt lat="40.072817" lon="-105.2306213">
  <ele>1596.5</ele>
  <time>2026-08-27T18:30:48Z</time>
  <course>346.04</course>
  <speed>0.0</speed>
  <fix>3d</fix>
</trkpt>
<trkpt lat="40.0728171" lon="-105.2306215">
  <ele>1596.42</ele>
  <time>2026-08-27T18:30:48Z</time>
  <course>262.38</course>
  <speed>0.0</speed>
  <fix>3d</fix>
</trkpt>
<trkpt lat="40.072817" lon="-105.2306213">
  <ele>1596.5</ele>
  <time>2026-08-27T18:30:48Z</time>
  <course>346.03</course>
  <speed>0.01</speed>
  <fix>3d</fix>
</trkpt>
<trkpt lat="40.0728171" lon="-105.2306215">
  <ele>1596.42</ele>
  <time>2026-08-27T18:30:48Z</time>
  <course>259.48</course>
  <speed>0.0</speed>
  <fix>3d</fix>
</trkpt>
<trkpt lat="40.072817" lon="-105.2306213">
  <ele>1596.5</ele>
  <time>2026-08-27T18:30:48Z</time>
  <course>346.03</course>
  <speed>0.01</speed>
  <fix>3d</fix>
</trkpt>
<trkpt lat="40.0728171" lon="-105.2306215">
  <ele>1596.42</ele>
  <time>2026-08-27T18:30:48Z</time>
  <course>251.84</course>
  <speed>0.0</speed>
  <fix>3d</fix>
</trkpt>
<trkpt lat="40.072817" lon="-105.2306213">
  <ele>1596.51</ele>
  <time>2026-08-27T18:30:48Z</time>
  <course>346.02</course>
  <speed>0.01414213562373095</speed>
  <fix>3d</fix>
</trkpt>
<trkpt lat="40.0728171" lon="-105.2306215">
  <ele>1596.42</ele>
  <time>2026-08-27T18:30:48Z</time>
  <course>241.39</course>
  <speed>0.0</speed>
  <fix>3d</fix>
</trkpt>
<trkpt lat="40.072817" lon="-105.2306213">
  <ele>1596.51</ele>
  <time>2026-08-27T18:30:48Z</time>
  <course>346.02</course>
  <speed>0.01414213562373095</speed>
  <fix>3d</fix>
</trkpt>
<trkpt lat="40.0728171" lon="-105.2306215">
  <ele>1596.42</ele>
  <time>2026-08-27T18:30:48Z</time>
  <course>229.7</course>
  <speed>0.0</speed>
  <fix>3d</fix>
</trkpt>
<trkpt lat="40.072817" lon="-105.2306213">
  <ele>1596.51</ele>
  <time>2026-08-27T18:30:48Z</time>
  <course>346.02</course>
  <speed>0.01414213562373095</speed>
  <fix>3d</fix>
</trkpt>
<trkpt lat="40.0728171" lon="-105.2306215">
  <ele>1596.42</ele>
  <time>2026-08-27T18:30:48Z</time>
  <course>217.27</course>
  <speed>0.0</speed>
  <fix>3d</fix>
</trkpt>
<trkpt lat="40.072817" lon="-105.2306213">
  <ele>1596.51</ele>
  <time>2026-08-27T18:30:48Z</time>
  <course>346.02</course>
  <speed>0.01414213562373095</speed>
  <fix>3d</fix>
</trkpt>
<trkpt lat="40.0728171" lon="-105.2306215">
  <ele>1596.42</ele>
  <time>2026-08-27T18:30:48Z</time>
  <course>205.25</course>
  <speed>0.0</speed>
  <fix>3d</fix>
</trkpt>
<trkpt lat="40.072817" lon="-105.2306213">
  <ele>1596.51</ele>
  <time>2026-08-27T18:30:48Z</time>
  <course>346.02</course>
  <speed>0.01414213562373095</speed>
  <fix>3d</fix>
</trkpt>
<trkpt lat="40.0728171" lon="-105.2306215">
  <ele>1596.42</ele>
  <time>2026-08-27T18:30:48Z</time>
  <course>194.85</course>
  <speed>0.0</speed>
  <fix>3d</fix>
</trkpt>
<trkpt lat="40.072817" lon="-105.2306213">
  <ele>1596.51</ele>
  <time>2026-08-27T18:30:48Z</time>
  <course>346.02</course>
  <speed>0.01414213562373095</speed>
  <fix>3d</fix>
</trkpt>
<trkpt lat="40.0728171" lon="-105.2306215">
  <ele>1596.42</ele>
  <time>2026-08-27T18:30:48Z</time>
  <course>185.49</course>
  <speed>0.0</speed>
  <fix>3d</fix>
</trkpt>
<trkpt lat="40.072817" lon="-105.2306213">
  <ele>1596.51</ele>
  <time>2026-08-27T18:30:48Z</time>
  <course>346.02</course>
  <speed>0.01414213562373095</speed>
  <fix>3d</fix>
</trkpt>
<trkpt lat="40.0728171" lon="-105.2306215">
  <ele>1596.42</ele>
  <time>2026-08-27T18:30:48Z</time>
  <course>177.67</course>
  <speed>0.0</speed>
  <fix>3d</fix>
</trkpt>
<trkpt lat="40.072817" lon="-105.2306213">
  <ele>1596.52</ele>
  <time>2026-08-27T18:30:48Z</time>
  <course>346.02</course>
  <speed>0.01414213562373095</speed>
  <fix>3d</fix>
</trkpt>
<trkpt lat="40.0728171" lon="-105.2306215">
  <ele>1596.42</ele>
  <time>2026-08-27T18:30:48Z</time>
  <course>170.27</course>
  <speed>0.0</speed>
  <fix>3d</fix>
</trkpt>
<trkpt lat="40.072817" lon="-105.2306213">
  <ele>1596.52</ele>
  <time>2026-08-27T18:30:48Z</time>
  <course>346.02</course>
  <speed>0.01</speed>
  <fix>3d</fix>
</trkpt>
<trkpt lat="40.072817" lon="-105.2306215">
  <ele>1596.42</ele>
  <time>2026-08-27T18:30:48Z</time>
  <course>163.48</course>
  <speed>0.0</speed>
  <fix>3d</fix>
</trkpt>
<trkpt lat="40.072817" lon="-105.2306213">
  <ele>1596.52</ele>
  <time>2026-08-27T18:30:48Z</time>
  <course>346.03</course>
  <speed>0.01</speed>
  <fix>3d</fix>
</trkpt>
<trkpt lat="40.072817" lon="-105.2306215">
  <ele>1596.42</ele>
  <time>2026-08-27T18:30:48Z</time>
  <course>156.08</course>
  <speed>0.0</speed>
  <fix>3d</fix>
</trkpt>
<trkpt lat="40.072817" lon="-105.2306213">
  <ele>1596.51</ele>
  <time>2026-08-27T18:30:48Z</time>
  <course>346.03</course>
  <speed>0.01</speed>
  <fix>3d</fix>
</trkpt>
<trkpt lat="40.072817" lon="-105.2306215">
  <ele>1596.42</ele>
  <time>2026-08-27T18:30:48Z</time>
  <course>143.76</course>
  <speed>0.0</speed>
  <fix>3d</fix>
</trkpt>
<trkpt lat="40.072817" lon="-105.2306213">
  <ele>1596.51</ele>
  <time>2026-08-27T18:30:48Z</time>
  <course>346.03</course>
  <speed>0.01</speed>
  <fix>3d</fix>
</trkpt>
<trkpt lat="40.072817" lon="-105.2306215">
  <ele>1596.42</ele>
  <time>2026-08-27T18:30:48Z</time>
  <course>104.3</course>
  <speed>0.0</speed>
  <fix>3d</fix>
</trkpt>
<trkpt lat="40.072817" lon="-105.2306213">
  <ele>1596.5</ele>
  <time>2026-08-27T18:30:48Z</time>
  <course>346.03</course>
  <speed>0.01</speed>
  <fix>3d</fix>
</trkpt>
<trkpt lat="40.072817" lon="-105.2306215">
  <ele>1596.42</ele>
  <time>2026-08-27T18:30:48Z</time>
  <course>55.93</course>
  <speed>0.0</speed>
  <fix>3d</fix>
</trkpt>
<trkpt lat="40.072817" lon="-105.2306213">
  <ele>1596.51</ele>
  <time>2026-08-27T18:30:48Z</time>
  <course>346.03</course>
  <speed>0.01</speed>
  <fix>3d</fix>
</trkpt>
<trkpt lat="40.072817" lon="-105.2306215">
  <ele>1596.42</ele>
  <time>2026-08-27T18:30:48Z</time>
  <course>38.77</course>
  <speed>0.0</speed>
  <fix>3d</fix>
</trkpt>
<trkpt lat="40.072817" lon="-105.2306213">
  <ele>1596.51</ele>
  <time>2026-08-27T18:30:48Z</time>
  <course>346.03</course>
  <speed>0.01</speed>
  <fix>3d</fix>
</trkpt>
<trkpt lat="40.072817" lon="-105.2306215">
  <ele>1596.42</ele>
  <time>2026-08-27T18:30:48Z</time>
  <course>30.8</course>
  <speed>0.0</speed>
  <fix>3d</fix>
</trkpt>
<trkpt lat="40.072817" lon="-105.2306213">
  <ele>1596.51</ele>
  <time>2026-08-27T18:30:48Z</time>
  <course>346.03</course>
  <speed>0.01</speed>
  <fix>3d</fix>
</trkpt>
<trkpt lat="40.072817" lon="-105.2306215">
  <ele>1596.42</ele>
  <time>2026-08-27T18:30:48Z</time>
  <course>26.06</course>
  <speed>0.0</speed>
  <fix>3d</fix>
</trkpt>
<trkpt lat="40.072817" lon="-105.2306213">
  <ele>1596.51</ele>
  <time>2026-08-27T18:30:48Z</time>
  <course>346.02</course>
  <speed>0.01</speed>
  <fix>3d</fix>
</trkpt>
<trkpt lat="40.072817" lon="-105.2306215">
  <ele>1596.42</ele>
  <time>2026-08-27T18:30:48Z</time>
  <course>22.88</course>
  <speed>0.0</speed>
  <fix>3d</fix>
</trkpt>
<trkpt lat="40.072817" lon="-105.2306213">
  <ele>1596.51</ele>
  <time>2026-08-27T18:30:48Z</time>
  <course>346.01</course>
  <speed>0.01</speed>
  <fix>3d</fix>
</trkpt>
<trkpt lat="40.072817" lon="-105.2306215">
  <ele>1596.42</ele>
  <time>2026-08-27T18:30:48Z</time>
  <course>20.66</course>
  <speed>0.0</speed>
  <fix>3d</fix>
</trkpt>
<trkpt lat="40.072817" lon="-105.2306213">
  <ele>1596.51</ele>
  <time>2026-08-27T18:30:48Z</time>
  <course>345.99</course>
  <speed>0.01</speed>
  <fix>3d</fix>
</trkpt>
<trkpt lat="40.072817" lon="-105.2306215">
  <ele>1596.42</ele>
  <time>2026-08-27T18:30:48Z</time>
  <course>19.1</course>
  <speed>0.0</speed>
  <fix>3d</fix>
</trkpt>
<trkpt lat="40.072817" lon="-105.2306213">
  <ele>1596.51</ele>
  <time>2026-08-27T18:30:48Z</time>
  <course>345.97</course>
  <speed>0.01</speed>
  <fix>3d</fix>
</trkpt>
<trkpt lat="40.072817" lon="-105.2306215">
  <ele>1596.42</ele>
  <time>2026-08-27T18:30:48Z</time>
  <course>17.71</course>
  <speed>0.0</speed>
  <fix>3d</fix>
</trkpt>
<trkpt lat="40.072817" lon="-105.2306213">
  <ele>1596.51</ele>
  <time>2026-08-27T18:30:48Z</time>
  <course>345.96</course>
  <speed>0.01</speed>
  <fix>3d</fix>
</trkpt>
<trkpt lat="40.072817" lon="-105.2306215">
  <ele>1596.42</ele>
  <time>2026-08-27T18:30:48Z</time>
  <course>16.48</course>
  <speed>0.0</speed>
  <fix>3d</fix>
</trkpt>
<trkpt lat="40.072817" lon="-105.2306213">
  <ele>1596.51</ele>
  <time>2026-08-27T18:30:48Z</time>
  <course>345.95</course>
  <speed>0.01</speed>
  <fix>3d</fix>
</trkpt>
<trkpt lat="40.072817" lon="-105.2306215">
  <ele>1596.42</ele>
  <time>2026-08-27T18:30:48Z</time>
  <course>15.59</course>
  <speed>0.0</speed>
  <fix>3d</fix>
</trkpt>
<trkpt lat="40.072817" lon="-105.2306213">
  <ele>1596.51</ele>
  <time>2026-08-27T18:30:48Z</time>
  <course>345.95</course>
  <speed>0.01</speed>
  <fix>3d</fix>
</trkpt>
<trkpt lat="40.072817" lon="-105.2306215">
  <ele>1596.42</ele>
  <time>2026-08-27T18:30:48Z</time>
  <course>14.29</course>
  <speed>0.0</speed>
  <fix>3d</fix>
</trkpt>
<trkpt lat="40.072817" lon="-105.2306213">
  <ele>1596.51</ele>
  <time>2026-08-27T18:30:48Z</time>
  <course>345.95</course>
  <speed>0.01</speed>
  <fix>3d</fix>
</trkpt>
<trkpt lat="40.072817" lon="-105.2306215">
  <ele>1596.42</ele>
  <time>2026-08-27T18:30:48Z</time>
  <course>10.24</course>
  <speed>0.0</speed>
  <fix>3d</fix>
</trkpt>
<trkpt lat="40.072817" lon="-105.2306213">
  <ele>1596.51</ele>
  <time>2026-08-27T18:30:48Z</time>
  <course>345.94</course>
  <speed>0.01</speed>
  <fix>3d</fix>
</trkpt>
<trkpt lat="40.072817" lon="-105.2306215">
  <ele>1596.42</ele>
  <time>2026-08-27T18:30:48Z</time>
  <course>4.81</course>
  <speed>0.0</speed>
  <fix>3d</fix>
</trkpt>
<trkpt lat="40.072817" lon="-105.2306213">
  <ele>1596.51</ele>
  <time>2026-08-27T18:30:48Z</time>
  <course>345.95</course>
  <speed>0.01</speed>
  <fix>3d</fix>
</trkpt>
<trkpt lat="40.0728171" lon="-105.2306215">
  <ele>1596.42</ele>
  <time>2026-08-27T18:30:48Z</time>
  <course>0.02</course>
  <speed>0.0</speed>
  <fix>3d</fix>
</trkpt>
<trkpt lat="40.072817" lon="-105.2306213">
  <ele>1596.51</ele>
  <time>2026-08-27T18:30:48Z</time>
  <course>345.95</course>
  <speed>0.01</speed>
  <fix>3d</fix>
</trkpt>
<trkpt lat="40.0728171" lon="-105.2306215">
  <ele>1596.42</ele>
  <time>2026-08-27T18:30:48Z</time>
  <course>355.03</course>
  <speed>0.0</speed>
  <fix>3d</fix>
</trkpt>
<trkpt lat="40.072817" lon="-105.2306213">
  <ele>1596.51</ele>
  <time>2026-08-27T18:30:48Z</time>
  <course>345.94</course>
  <speed>0.01</speed>
  <fix>3d</fix>
</trkpt>
<trkpt lat="40.0728171" lon="-105.2306215">
  <ele>1596.42</ele>
  <time>2026-08-27T18:30:48Z</time>
  <course>349.72</course>
  <speed>0.0</speed>
  <fix>3d</fix>
</trkpt>
<trkpt lat="40.072817" lon="-105.2306213">
  <ele>1596.5</ele>
  <time>2026-08-27T18:30:48Z</time>
  <course>345.94</course>
  <speed>0.01</speed>
  <fix>3d</fix>
</trkpt>
<trkpt lat="40.0728171" lon="-105.2306215">
  <ele>1596.42</ele>
  <time>2026-08-27T18:30:48Z</time>
  <course>343.98</course>
  <speed>0.0</speed>
  <fix>3d</fix>
</trkpt>
<trkpt lat="40.072817" lon="-105.2306213">
  <ele>1596.5</ele>
  <time>2026-08-27T18:30:48Z</time>
  <course>345.94</course>
  <speed>0.01</speed>
  <fix>3d</fix>
</trkpt>
<trkpt lat="40.0728171" lon="-105.2306215">
  <ele>1596.42</ele>
  <time>2026-08-27T18:30:48Z</time>
  <course>340.18</course>
  <speed>0.0</speed>
  <fix>3d</fix>
</trkpt>
<trkpt lat="40.072817" lon="-105.2306213">
  <ele>1596.51</ele>
  <time>2026-08-27T18:30:48Z</time>
  <course>345.94</course>
  <speed>0.01</speed>
  <fix>3d</fix>
</trkpt>
<trkpt lat="40.0728171" lon="-105.2306215">
  <ele>1596.42</ele>
  <time>2026-08-27T18:30:48Z</time>
  <course>338.35</course>
  <speed>0.0</speed>
  <fix>3d</fix>
</trkpt>
<trkpt lat="40.072817" lon="-105.2306213">
  <ele>1596.51</ele>
  <time>2026-08-27T18:30:48Z</time>
  <course>345.94</course>
  <speed>0.01</speed>
  <fix>3d</fix>
</trkpt>
<trkpt lat="40.0728171" lon="-105.2306215">
  <ele>1596.42</ele>
  <time>2026-08-27T18:30:48Z</time>
  <course>336.01</course>
  <speed>0.0</speed>
  <fix>3d</fix>
</trkpt>
<trkpt lat="40.072817" lon="-105.2306213">
  <ele>1596.51</ele>
  <time>2026-08-27T18:30:48Z</time>
  <course>345.94</course>
  <speed>0.01</speed>
  <fix>3d</fix>
</trkpt>
<trkpt lat="40.0728171" lon="-105.2306215">
  <ele>1596.42</ele>
  <time>2026-08-27T18:30:48Z</time>
  <course>331.81</course>
  <speed>0.0</speed>
  <fix>3d</fix>
</trkpt>
<trkpt lat="40.072817" lon="-105.2306213">
  <ele>1596.5</ele>
  <time>2026-08-27T18:30:48Z</time>
  <course>345.94</course>
  <speed>0.01414213562373095</speed>
  <fix>3d</fix>
</trkpt>
<trkpt lat="40.0728171" lon="-105.2306215">
  <ele>1596.42</ele>
  <time>2026-08-27T18:30:48Z</time>
  <course>324.33</course>
  <speed>0.0</speed>
  <fix>3d</fix>
</trkpt>
<trkpt lat="40.072817" lon="-105.2306213">
  <ele>1596.5</ele>
  <time>2026-08-27T18:30:48Z</time>
  <course>345.94</course>
  <speed>0.01414213562373095</speed>
  <fix>3d</fix>
</trkpt>
<trkpt lat="40.0728172" lon="-105.2306215">
  <ele>1596.42</ele>
  <time>2026-08-27T18:30:48Z</time>
  <course>308.78</course>
  <speed>0.0</speed>
  <fix>3d</fix>
</trkpt>
<trkpt lat="40.072817" lon="-105.2306213">
  <ele>1596.5</ele>
  <time>2026-08-27T18:30:48Z</time>
  <course>345.93</course>
  <speed>0.01414213562373095</speed>
  <fix>3d</fix>
</trkpt>
<trkpt lat="40.0728172" lon="-105.2306215">
  <ele>1596.42</ele>
  <time>2026-08-27T18:30:48Z</time>
  <course>283.17</course>
  <speed>0.0</speed>
  <fix>3d</fix>
</trkpt>
<trkpt lat="40.072817" lon="-105.2306213">
  <ele>1596.51</ele>
  <time>2026-08-27T18:30:48Z</time>
  <course>345.91</course>
  <speed>0.01414213562373095</speed>
  <fix>3d</fix>
</trkpt>
<trkpt lat="40.0728172" lon="-105.2306215">
  <ele>1596.42</ele>
  <time>2026-08-27T18:30:48Z</time>
  <course>263.12</course>
  <speed>0.0</speed>
  <fix>3d</fix>
</trkpt>
<trkpt lat="40.072817" lon="-105.2306213">
  <ele>1596.51</ele>
  <time>2026-08-27T18:30:48Z</time>
  <course>345.9</course>
  <speed>0.01414213562373095</speed>
  <fix>3d</fix>
</trkpt>
<trkpt lat="40.0728172" lon="-105.2306215">
  <ele>1596.42</ele>
  <time>2026-08-27T18:30:48Z</time>
  <course>233.98</course>
  <speed>0.0</speed>
  <fix>3d</fix>
</trkpt>
<trkpt lat="40.072817" lon="-105.2306213">
  <ele>1596.51</ele>
  <time>2026-08-27T18:30:48Z</time>
  <course>345.91</course>
  <speed>0.01414213562373095</speed>
  <fix>3d</fix>
</trkpt>
<trkpt lat="40.0728172" lon="-105.2306215">
  <ele>1596.42</ele>
  <time>2026-08-27T18:30:48Z</time>
  <course>209.4</course>
  <speed>0.0</speed>
  <fix>3d</fix>
</trkpt>
<trkpt lat="40.072817" lon="-105.2306213">
  <ele>1596.51</ele>
  <time>2026-08-27T18:30:48Z</time>
  <course>345.92</course>
  <speed>0.01414213562373095</speed>
  <fix>3d</fix>
</trkpt>
<trkpt lat="40.0728172" lon="-105.2306215">
  <ele>1596.43</ele>
  <time>2026-08-27T18:30:48Z</time>
  <course>197.5</course>
  <speed>0.0</speed>
  <fix>3d</fix>
</trkpt>
<trkpt lat="40.072817" lon="-105.2306213">
  <ele>1596.5</ele>
  <time>2026-08-27T18:30:48Z</time>
  <course>345.93</course>
  <speed>0.01414213562373095</speed>
  <fix>3d</fix>
</trkpt>
<trkpt lat="40.0728172" lon="-105.2306215">
  <ele>1596.43</ele>
  <time>2026-08-27T18:30:48Z</time>
  <course>190.43</course>
  <speed>0.0</speed>
  <fix>3d</fix>
</trkpt>
<trkpt lat="40.072817" lon="-105.2306213">
  <ele>1596.5</ele>
  <time>2026-08-27T18:30:48Z</time>
  <course>345.91</course>
  <speed>0.01414213562373095</speed>
  <fix>3d</fix>
</trkpt>
<trkpt lat="40.0728172" lon="-105.2306215">
  <ele>1596.43</ele>
  <time>2026-08-27T18:30:48Z</time>
  <course>185.66</course>
  <speed>0.0</speed>
  <fix>3d</fix>
</trkpt>
<trkpt lat="40.072817" lon="-105.2306213">
  <ele>1596.5</ele>
  <time>2026-08-27T18:30:48Z</time>
  <course>345.89</course>
  <speed>0.01414213562373095</speed>
  <fix>3d</fix>
</trkpt>
<trkpt lat="40.0728172" lon="-105.2306215">
  <ele>1596.43</ele>
  <time>2026-08-27T18:30:48Z</time>
  <course>184.08</course>
  <speed>0.0</speed>
  <fix>3d</fix>
</trkpt>
<trkpt lat="40.072817" lon="-105.2306213">
  <ele>1596.5</ele>
  <time>2026-08-27T18:30:48Z</time>
  <course>345.88</course>
  <speed>0.01414213562373095</speed>
  <fix>3d</fix>
</trkpt>
<trkpt lat="40.0728172" lon="-105.2306215">
  <ele>1596.43</ele>
  <time>2026-08-27T18:30:48Z</time>
  <course>187.29</course>
  <speed>0.0</speed>
  <fix>3d</fix>
</trkpt>
<trkpt lat="40.072817" lon="-105.2306213">
  <ele>1596.51</ele>
  <time>2026-08-27T18:30:48Z</time>
  <course>345.87</course>
  <speed>0.01414213562373095</speed>
  <fix>3d</fix>
</trkpt>
<trkpt lat="40.0728172" lon="-105.2306215">
  <ele>1596.43</ele>
  <time>2026-08-27T18:30:48Z</time>
  <course>191.38</course>
  <speed>0.0</speed>
  <fix>3d</fix>
</trkpt>
<trkpt lat="40.072817" lon="-105.2306213">
  <ele>1596.51</ele>
  <time>2026-08-27T18:30:48Z</time>
  <course>345.86</course>
  <speed>0.01414213562373095</speed>
  <fix>3d</fix>
</trkpt>
<trkpt lat="40.0728172" lon="-105.2306215">
  <ele>1596.43</ele>
  <time>2026-08-27T18:30:48Z</time>
  <course>193.41</course>
  <speed>0.0</speed>
  <fix>3d</fix>
</trkpt>
<trkpt lat="40.072817" lon="-105.2306213">
  <ele>1596.51</ele>
  <time>2026-08-27T18:30:48Z</time>
  <course>345.85</course>
  <speed>0.01414213562373095</speed>
  <fix>3d</fix>
</trkpt>
<trkpt lat="40.0728172" lon="-105.2306215">
  <ele>1596.44</ele>
  <time>2026-08-27T18:30:48Z</time>
  <course>194.5</course>
  <speed>0.0</speed>
  <fix>3d</fix>
</trkpt>
<trkpt lat="40.072817" lon="-105.2306213">
  <ele>1596.51</ele>
  <time>2026-08-27T18:30:48Z</time>
  <course>345.85</course>
  <speed>0.01414213562373095</speed>
  <fix>3d</fix>
</trkpt>
<trkpt lat="40.0728172" lon="-105.2306215">
  <ele>1596.44</ele>
  <time>2026-08-27T18:30:48Z</time>
  <course>195.12</course>
  <speed>0.0</speed>
  <fix>3d</fix>
</trkpt>
<trkpt lat="40.072817" lon="-105.2306213">
  <ele>1596.51</ele>
  <time>2026-08-27T18:30:48Z</time>
  <course>345.85</course>
  <speed>0.01414213562373095</speed>
  <fix>3d</fix>
</trkpt>
<trkpt lat="40.0728172" lon="-105.2306215">
  <ele>1596.44</ele>
  <time>2026-08-27T18:30:48Z</time>
  <course>195.45</course>
  <speed>0.0</speed>
  <fix>3d</fix>
</trkpt>
<trkpt lat="40.072817" lon="-105.2306213">
  <ele>1596.51</ele>
  <time>2026-08-27T18:30:48Z</time>
  <course>345.85</course>
  <speed>0.01414213562373095</speed>
  <fix>3d</fix>
</trkpt>
<trkpt lat="40.0728171" lon="-105.2306215">
  <ele>1596.44</ele>
  <time>2026-08-27T18:30:48Z</time>
  <course>195.51</course>
  <speed>0.0</speed>
  <fix>3d</fix>
</trkpt>
<trkpt lat="40.072817" lon="-105.2306213">
  <ele>1596.51</ele>
  <time>2026-08-27T18:30:48Z</time>
  <course>345.86</course>
  <speed>0.01414213562373095</speed>
  <fix>3d</fix>
</trkpt>
<trkpt lat="40.0728171" lon="-105.2306215">
  <ele>1596.44</ele>
  <time>2026-08-27T18:30:48Z</time>
  <course>195.02</course>
  <speed>0.0</speed>
  <fix>3d</fix>
</trkpt>
<trkpt lat="40.072817" lon="-105.2306213">
  <ele>1596.51</ele>
  <time>2026-08-27T18:30:48Z</time>
  <course>345.86</course>
  <speed>0.01414213562373095</speed>
  <fix>3d</fix>
</trkpt>
<trkpt lat="40.0728171" lon="-105.2306215">
  <ele>1596.44</ele>
  <time>2026-08-27T18:30:48Z</time>
  <course>194.19</course>
  <speed>0.0</speed>
  <fix>3d</fix>
</trkpt>
<trkpt lat="40.072817" lon="-105.2306213">
  <ele>1596.51</ele>
  <time>2026-08-27T18:30:48Z</time>
  <course>345.86</course>
  <speed>0.01414213562373095</speed>
  <fix>3d</fix>
</trkpt>
<trkpt lat="40.0728171" lon="-105.2306215">
  <ele>1596.44</ele>
  <time>2026-08-27T18:30:48Z</time>
  <course>193.69</course>
  <speed>0.0</speed>
  <fix>3d</fix>
</trkpt>
<trkpt lat="40.072817" lon="-105.2306213">
  <ele>1596.51</ele>
  <time>2026-08-27T18:30:48Z</time>
  <course>345.85</course>
  <speed>0.01414213562373095</speed>
  <fix>3d</fix>
</trkpt>
<trkpt lat="40.0728171" lon="-105.2306216">
  <ele>1596.44</ele>
  <time>2026-08-27T18:30:48Z</time>
  <course>193.68</course>
  <speed>0.0</speed>
  <fix>3d</fix>
</trkpt>
<trkpt lat="40.072817" lon="-105.2306213">
  <ele>1596.52</ele>
  <time>2026-08-27T18:30:48Z</time>
  <course>345.85</course>
  <speed>0.01414213562373095</speed>
  <fix>3d</fix>
</trkpt>
<trkpt lat="40.0728171" lon="-105.2306217">
  <ele>1596.44</ele>
  <time>2026-08-27T18:30:48Z</time>
  <course>193.84</course>
  <speed>0.0</speed>
  <fix>3d</fix>
</trkpt>
<trkpt lat="40.072817" lon="-105.2306213">
  <ele>1596.52</ele>
  <time>2026-08-27T18:30:49Z</time>
  <course>345.87</course>
  <speed>0.01414213562373095</speed>
  <fix>3d</fix>
</trkpt>
<trkpt lat="40.0728171" lon="-105.2306217">
  <ele>1596.44</ele>
  <time>2026-08-27T18:30:49Z</time>
  <course>197.17</course>
  <speed>0.0</speed>
  <fix>3d</fix>
</trkpt>
<trkpt lat="40.072817" lon="-105.2306213">
  <ele>1596.52</ele>
  <time>2026-08-27T18:30:49Z</time>
  <course>345.9</course>
  <speed>0.01414213562373095</speed>
  <fix>3d</fix>
</trkpt>
<trkpt lat="40.0728171" lon="-105.2306217">
  <ele>1596.44</ele>
  <time>2026-08-27T18:30:49Z</time>
  <course>201.54</course>
  <speed>0.0</speed>
  <fix>3d</fix>
</trkpt>
<trkpt lat="40.072817" lon="-105.2306214">
  <ele>1596.52</ele>
  <time>2026-08-27T18:30:49Z</time>
  <course>345.9</course>
  <speed>0.01</speed>
  <fix>3d</fix>
</trkpt>
<trkpt lat="40.0728171" lon="-105.2306217">
  <ele>1596.44</ele>
  <time>2026-08-27T18:30:49Z</time>
  <course>194.43</course>
  <speed>0.0</speed>
  <fix>3d</fix>
</trkpt>
<trkpt lat="40.072817" lon="-105.2306214">
  <ele>1596.52</ele>
  <time>2026-08-27T18:30:49Z</time>
  <course>345.9</course>
  <speed>0.01</speed>
  <fix>3d</fix>
</trkpt>
<trkpt lat="40.072817" lon="-105.2306217">
  <ele>1596.44</ele>
  <time>2026-08-27T18:30:49Z</time>
  <course>157.45</course>
  <speed>0.0</speed>
  <fix>3d</fix>
</trkpt>
<trkpt lat="40.072817" lon="-105.2306214">
  <ele>1596.52</ele>
  <time>2026-08-27T18:30:49Z</time>
  <course>345.89</course>
  <speed>0.01</speed>
  <fix>3d</fix>
</trkpt>
<trkpt lat="40.072817" lon="-105.2306217">
  <ele>1596.44</ele>
  <time>2026-08-27T18:30:49Z</time>
  <course>108.13</course>
  <speed>0.0</speed>
  <fix>3d</fix>
</trkpt>
<trkpt lat="40.072817" lon="-105.2306214">
  <ele>1596.51</ele>
  <time>2026-08-27T18:30:49Z</time>
  <course>345.89</course>
  <speed>0.02</speed>
  <fix>3d</fix>
</trkpt>
<trkpt lat="40.072817" lon="-105.2306217">
  <ele>1596.43</ele>
  <time>2026-08-27T18:30:49Z</time>
  <course>84.82</course>
  <speed>0.0</speed>
  <fix>3d</fix>
</trkpt>
<trkpt lat="40.072817" lon="-105.2306214">
  <ele>1596.51</ele>
  <time>2026-08-27T18:30:49Z</time>
  <course>345.88</course>
  <speed>0.02</speed>
  <fix>3d</fix>
</trkpt>
<trkpt lat="40.072817" lon="-105.2306217">
  <ele>1596.43</ele>
  <time>2026-08-27T18:30:49Z</time>
  <course>77.53</course>
  <speed>0.0</speed>
  <fix>3d</fix>
</trkpt>
<trkpt lat="40.072817" lon="-105.2306214">
  <ele>1596.51</ele>
  <time>2026-08-27T18:30:49Z</time>
  <course>345.88</course>
  <speed>0.02</speed>
  <fix>3d</fix>
</trkpt>
<trkpt lat="40.072817" lon="-105.2306217">
  <ele>1596.43</ele>
  <time>2026-08-27T18:30:49Z</time>
  <course>72.02</course>
  <speed>0.0</speed>
  <fix>3d</fix>
</trkpt>
<trkpt lat="40.072817" lon="-105.2306214">
  <ele>1596.51</ele>
  <time>2026-08-27T18:30:49Z</time>
  <course>345.87</course>
  <speed>0.02</speed>
  <fix>3d</fix>
</trkpt>
<trkpt lat="40.072817" lon="-105.2306217">
  <ele>1596.43</ele>
  <time>2026-08-27T18:30:49Z</time>
  <course>67.9</course>
  <speed>0.0</speed>
  <fix>3d</fix>
</trkpt>
<trkpt lat="40.072817" lon="-105.2306214">
  <ele>1596.5</ele>
  <time>2026-08-27T18:30:49Z</time>
  <course>345.87</course>
  <speed>0.02</speed>
  <fix>3d</fix>
</trkpt>
<trkpt lat="40.072817" lon="-105.2306217">
  <ele>1596.43</ele>
  <time>2026-08-27T18:30:49Z</time>
  <course>65.29</course>
  <speed>0.0</speed>
  <fix>3d</fix>
</trkpt>
<trkpt lat="40.072817" lon="-105.2306214">
  <ele>1596.5</ele>
  <time>2026-08-27T18:30:49Z</time>
  <course>345.86</course>
  <speed>0.02</speed>
  <fix>3d</fix>
</trkpt>
<trkpt lat="40.072817" lon="-105.2306217">
  <ele>1596.43</ele>
  <time>2026-08-27T18:30:49Z</time>
  <course>63.43</course>
  <speed>0.0</speed>
  <fix>3d</fix>
</trkpt>
<trkpt lat="40.072817" lon="-105.2306214">
  <ele>1596.5</ele>
  <time>2026-08-27T18:30:49Z</time>
  <course>345.84</course>
  <speed>0.02</speed>
  <fix>3d</fix>
</trkpt>
<trkpt lat="40.072817" lon="-105.2306217">
  <ele>1596.43</ele>
  <time>2026-08-27T18:30:49Z</time>
  <course>61.1</course>
  <speed>0.0</speed>
  <fix>3d</fix>
</trkpt>
<trkpt lat="40.072817" lon="-105.2306214">
  <ele>1596.51</ele>
  <time>2026-08-27T18:30:49Z</time>
  <course>345.82</course>
  <speed>0.02</speed>
  <fix>3d</fix>
</trkpt>
<trkpt lat="40.072817" lon="-105.2306217">
  <ele>1596.43</ele>
  <time>2026-08-27T18:30:49Z</time>
  <course>57.17</course>
  <speed>0.0</speed>
  <fix>3d</fix>
</trkpt>
<trkpt lat="40.072817" lon="-105.2306214">
  <ele>1596.51</ele>
  <time>2026-08-27T18:30:49Z</time>
  <course>345.8</course>
  <speed>0.02</speed>
  <fix>3d</fix>
</trkpt>
<trkpt lat="40.072817" lon="-105.2306216">
  <ele>1596.43</ele>
  <time>2026-08-27T18:30:49Z</time>
  <course>51.33</course>
  <speed>0.0</speed>
  <fix>3d</fix>
</trkpt>
<trkpt lat="40.072817" lon="-105.2306214">
  <ele>1596.51</ele>
  <time>2026-08-27T18:30:49Z</time>
  <course>345.79</course>
  <speed>0.02</speed>
  <fix>3d</fix>
</trkpt>
<trkpt lat="40.072817" lon="-105.2306215">
  <ele>1596.43</ele>
  <time>2026-08-27T18:30:49Z</time>
  <course>45.16</course>
  <speed>0.01</speed>
  <fix>3d</fix>
</trkpt>
<trkpt lat="40.072817" lon="-105.2306214">
  <ele>1596.51</ele>
  <time>2026-08-27T18:30:49Z</time>
  <course>345.78</course>
  <speed>0.02</speed>
  <fix>3d</fix>
</trkpt>
<trkpt lat="40.072817" lon="-105.2306215">
  <ele>1596.43</ele>
  <time>2026-08-27T18:30:49Z</time>
  <course>39.62</course>
  <speed>0.01</speed>
  <fix>3d</fix>
</trkpt>
<trkpt lat="40.072817" lon="-105.2306214">
  <ele>1596.51</ele>
  <time>2026-08-27T18:30:49Z</time>
  <course>345.78</course>
  <speed>0.02</speed>
  <fix>3d</fix>
</trkpt>
<trkpt lat="40.072817" lon="-105.2306215">
  <ele>1596.43</ele>
  <time>2026-08-27T18:30:49Z</time>
  <course>34.06</course>
  <speed>0.01</speed>
  <fix>3d</fix>
</trkpt>
<trkpt lat="40.072817" lon="-105.2306214">
  <ele>1596.51</ele>
  <time>2026-08-27T18:30:49Z</time>
  <course>345.78</course>
  <speed>0.02</speed>
  <fix>3d</fix>
</trkpt>
<trkpt lat="40.072817" lon="-105.2306215">
  <ele>1596.44</ele>
  <time>2026-08-27T18:30:49Z</time>
  <course>28.96</course>
  <speed>0.01</speed>
  <fix>3d</fix>
</trkpt>
<trkpt lat="40.072817" lon="-105.2306214">
  <ele>1596.51</ele>
  <time>2026-08-27T18:30:49Z</time>
  <course>345.77</course>
  <speed>0.02</speed>
  <fix>3d</fix>
</trkpt>
<trkpt lat="40.0728171" lon="-105.2306215">
  <ele>1596.44</ele>
  <time>2026-08-27T18:30:49Z</time>
  <course>25.71</course>
  <speed>0.01</speed>
  <fix>3d</fix>
</trkpt>
<trkpt lat="40.072817" lon="-105.2306214">
  <ele>1596.51</ele>
  <time>2026-08-27T18:30:49Z</time>
  <course>345.77</course>
  <speed>0.02</speed>
  <fix>3d</fix>
</trkpt>
<trkpt lat="40.0728171" lon="-105.2306215">
  <ele>1596.44</ele>
  <time>2026-08-27T18:30:49Z</time>
  <course>23.75</course>
  <speed>0.01</speed>
  <fix>3d</fix>
</trkpt>
<trkpt lat="40.072817" lon="-105.2306214">
  <ele>1596.51</ele>
  <time>2026-08-27T18:30:49Z</time>
  <course>345.78</course>
  <speed>0.02</speed>
  <fix>3d</fix>
</trkpt>
<trkpt lat="40.0728171" lon="-105.2306215">
  <ele>1596.44</ele>
  <time>2026-08-27T18:30:49Z</time>
  <course>20.24</course>
  <speed>0.0</speed>
  <fix>3d</fix>
</trkpt>
<trkpt lat="40.072817" lon="-105.2306214">
  <ele>1596.51</ele>
  <time>2026-08-27T18:30:49Z</time>
  <course>345.78</course>
  <speed>0.01</speed>
  <fix>3d</fix>
</trkpt>
<trkpt lat="40.0728171" lon="-105.2306215">
  <ele>1596.44</ele>
  <time>2026-08-27T18:30:49Z</time>
  <course>14.56</course>
  <speed>0.0</speed>
  <fix>3d</fix>
</trkpt>
<trkpt lat="40.072817" lon="-105.2306214">
  <ele>1596.5</ele>
  <time>2026-08-27T18:30:49Z</time>
  <course>345.78</course>
  <speed>0.01</speed>
  <fix>3d</fix>
</trkpt>
<trkpt lat="40.0728171" lon="-105.2306215">
  <ele>1596.44</ele>
  <time>2026-08-27T18:30:49Z</time>
  <course>8.02</course>
  <speed>0.0</speed>
  <fix>3d</fix>
</trkpt>
<trkpt lat="40.072817" lon="-105.2306214">
  <ele>1596.5</ele>
  <time>2026-08-27T18:30:49Z</time>
  <course>345.77</course>
  <speed>0.01</speed>
  <fix>3d</fix>
</trkpt>
<trkpt lat="40.0728171" lon="-105.2306215">
  <ele>1596.44</ele>
  <time>2026-08-27T18:30:49Z</time>
  <course>359.65</course>
  <speed>0.0</speed>
  <fix>3d</fix>
</trkpt>
<trkpt lat="40.072817" lon="-105.2306214">
  <ele>1596.5</ele>
  <time>2026-08-27T18:30:49Z</time>
  <course>345.75</course>
  <speed>0.01</speed>
  <fix>3d</fix>
</trkpt>
<trkpt lat="40.0728172" lon="-105.2306215">
  <ele>1596.44</ele>
  <time>2026-08-27T18:30:49Z</time>
  <course>346.53</course>
  <speed>0.0</speed>
  <fix>3d</fix>
</trkpt>
<trkpt lat="40.0728171" lon="-105.2306214">
  <ele>1596.5</ele>
  <time>2026-08-27T18:30:49Z</time>
  <course>345.75</course>
  <speed>0.01414213562373095</speed>
  <fix>3d</fix>
</trkpt>
<trkpt lat="40.0728172" lon="-105.2306215">
  <ele>1596.44</ele>
  <time>2026-08-27T18:30:49Z</time>
  <course>326.7</course>
  <speed>0.0</speed>
  <fix>3d</fix>
</trkpt>
<trkpt lat="40.0728171" lon="-105.2306214">
  <ele>1596.51</ele>
  <time>2026-08-27T18:30:49Z</time>
  <course>345.75</course>
  <speed>0.01414213562373095</speed>
  <fix>3d</fix>
</trkpt>
<trkpt lat="40.0728172" lon="-105.2306215">
  <ele>1596.44</ele>
  <time>2026-08-27T18:30:49Z</time>
  <course>299.04</course>
  <speed>0.0</speed>
  <fix>3d</fix>
</trkpt>
<trkpt lat="40.0728171" lon="-105.2306214">
  <ele>1596.51</ele>
  <time>2026-08-27T18:30:49Z</time>
  <course>345.76</course>
  <speed>0.01414213562373095</speed>
  <fix>3d</fix>
</trkpt>
<trkpt lat="40.0728172" lon="-105.2306215">
  <ele>1596.44</ele>
  <time>2026-08-27T18:30:49Z</time>
  <course>262.3</course>
  <speed>0.0</speed>
  <fix>3d</fix>
</trkpt>
<trkpt lat="40.0728171" lon="-105.2306214">
  <ele>1596.52</ele>
  <time>2026-08-27T18:30:49Z</time>
  <course>345.76</course>
  <speed>0.01414213562373095</speed>
  <fix>3d</fix>
</trkpt>
<trkpt lat="40.0728172" lon="-105.2306215">
  <ele>1596.44</ele>
  <time>2026-08-27T18:30:49Z</time>
  <course>240.07</course>
  <speed>0.0</speed>
  <fix>3d</fix>
</trkpt>
<trkpt lat="40.0728171" lon="-105.2306214">
  <ele>1596.53</ele>
  <time>2026-08-27T18:30:49Z</time>
  <course>345.77</course>
  <speed>0.01414213562373095</speed>
  <fix>3d</fix>
</trkpt>
<trkpt lat="40.0728172" lon="-105.2306215">
  <ele>1596.44</ele>
  <time>2026-08-27T18:30:49Z</time>
  <course>228.93</course>
  <speed>0.0</speed>
  <fix>3d</fix>
</trkpt>
<trkpt lat="40.0728171" lon="-105.2306214">
  <ele>1596.53</ele>
  <time>2026-08-27T18:30:49Z</time>
  <course>345.79</course>
  <speed>0.01414213562373095</speed>
  <fix>3d</fix>
</trkpt>
<trkpt lat="40.0728172" lon="-105.2306215">
  <ele>1596.44</ele>
  <time>2026-08-27T18:30:49Z</time>
  <course>222.78</course>
  <speed>0.0</speed>
  <fix>3d</fix>
</trkpt>
<trkpt lat="40.0728171" lon="-105.2306214">
  <ele>1596.53</ele>
  <time>2026-08-27T18:30:49Z</time>
  <course>345.82</course>
  <speed>0.01414213562373095</speed>
  <fix>3d</fix>
</trkpt>
<trkpt lat="40.0728172" lon="-105.2306215">
  <ele>1596.44</ele>
  <time>2026-08-27T18:30:49Z</time>
  <course>218.92</course>
  <speed>0.0</speed>
  <fix>3d</fix>
</trkpt>
<trkpt lat="40.0728171" lon="-105.2306214">
  <ele>1596.53</ele>
  <time>2026-08-27T18:30:49Z</time>
  <course>345.85</course>
  <speed>0.01414213562373095</speed>
  <fix>3d</fix>
</trkpt>
<trkpt lat="40.0728172" lon="-105.2306215">
  <ele>1596.44</ele>
  <time>2026-08-27T18:30:49Z</time>
  <course>214.9</course>
  <speed>0.0</speed>
  <fix>3d</fix>
</trkpt>
<trkpt lat="40.0728171" lon="-105.2306214">
  <ele>1596.52</ele>
  <time>2026-08-27T18:30:49Z</time>
  <course>345.85</course>
  <speed>0.01414213562373095</speed>
  <fix>3d</fix>
</trkpt>
<trkpt lat="40.0728172" lon="-105.2306215">
  <ele>1596.43</ele>
  <time>2026-08-27T18:30:49Z</time>
  <course>210.78</course>
  <speed>0.0</speed>
  <fix>3d</fix>
</trkpt>
<trkpt lat="40.0728171" lon="-105.2306214">
  <ele>1596.52</ele>
  <time>2026-08-27T18:30:49Z</time>
  <course>345.84</course>
  <speed>0.01414213562373095</speed>
  <fix>3d</fix>
</trkpt>
<trkpt lat="40.0728172" lon="-105.2306215">
  <ele>1596.43</ele>
  <time>2026-08-27T18:30:49Z</time>
  <course>207.74</course>
  <speed>0.0</speed>
  <fix>3d</fix>
</trkpt>
<trkpt lat="40.0728171" lon="-105.2306214">
  <ele>1596.52</ele>
  <time>2026-08-27T18:30:49Z</time>
  <course>345.83</course>
  <speed>0.01414213562373095</speed>
  <fix>3d</fix>
</trkpt>
<trkpt lat="40.0728172" lon="-105.2306215">
  <ele>1596.43</ele>
  <time>2026-08-27T18:30:49Z</time>
  <course>206.92</course>
  <speed>0.0</speed>
  <fix>3d</fix>
</trkpt>
<trkpt lat="40.0728171" lon="-105.2306214">
  <ele>1596.52</ele>
  <time>2026-08-27T18:30:49Z</time>
  <course>345.82</course>
  <speed>0.01414213562373095</speed>
  <fix>3d</fix>
</trkpt>
<trkpt lat="40.0728172" lon="-105.2306215">
  <ele>1596.42</ele>
  <time>2026-08-27T18:30:49Z</time>
  <course>208.28</course>
  <speed>0.0</speed>
  <fix>3d</fix>
</trkpt>
<trkpt lat="40.0728171" lon="-105.2306214">
  <ele>1596.51</ele>
  <time>2026-08-27T18:30:49Z</time>
  <course>345.81</course>
  <speed>0.01414213562373095</speed>
  <fix>3d</fix>
</trkpt>
<trkpt lat="40.0728172" lon="-105.2306215">
  <ele>1596.42</ele>
  <time>2026-08-27T18:30:49Z</time>
  <course>210.64</course>
  <speed>0.0</speed>
  <fix>3d</fix>
</trkpt>
<trkpt lat="40.0728171" lon="-105.2306214">
  <ele>1596.52</ele>
  <time>2026-08-27T18:30:49Z</time>
  <course>345.8</course>
  <speed>0.01414213562373095</speed>
  <fix>3d</fix>
</trkpt>
<trkpt lat="40.0728172" lon="-105.2306215">
  <ele>1596.42</ele>
  <time>2026-08-27T18:30:49Z</time>
  <course>211.8</course>
  <speed>0.0</speed>
  <fix>3d</fix>
</trkpt>
<trkpt lat="40.0728171" lon="-105.2306214">
  <ele>1596.51</ele>
  <time>2026-08-27T18:30:49Z</time>
  <course>345.8</course>
  <speed>0.01414213562373095</speed>
  <fix>3d</fix>
</trkpt>
<trkpt lat="40.0728172" lon="-105.2306215">
  <ele>1596.42</ele>
  <time>2026-08-27T18:30:49Z</time>
  <course>211.97</course>
  <speed>0.0</speed>
  <fix>3d</fix>
</trkpt>
<trkpt lat="40.0728171" lon="-105.2306214">
  <ele>1596.51</ele>
  <time>2026-08-27T18:30:49Z</time>
  <course>345.8</course>
  <speed>0.01414213562373095</speed>
  <fix>3d</fix>
</trkpt>
<trkpt lat="40.0728171" lon="-105.2306215">
  <ele>1596.42</ele>
  <time>2026-08-27T18:30:49Z</time>
  <course>213.45</course>
  <speed>0.0</speed>
  <fix>3d</fix>
</trkpt>
<trkpt lat="40.0728171" lon="-105.2306214">
  <ele>1596.51</ele>
  <time>2026-08-27T18:30:49Z</time>
  <course>345.79</course>
  <speed>0.01414213562373095</speed>
  <fix>3d</fix>
</trkpt>
<trkpt lat="40.0728171" lon="-105.2306215">
  <ele>1596.42</ele>
  <time>2026-08-27T18:30:49Z</time>
  <course>214.11</course>
  <speed>0.0</speed>
  <fix>3d</fix>
</trkpt>
<trkpt lat="40.0728171" lon="-105.2306214">
  <ele>1596.51</ele>
  <time>2026-08-27T18:30:49Z</time>
  <course>345.77</course>
  <speed>0.01414213562373095</speed>
  <fix>3d</fix>
</trkpt>
<trkpt lat="40.0728171" lon="-105.2306215">
  <ele>1596.41</ele>
  <time>2026-08-27T18:30:49Z</time>
  <course>213.22</course>
  <speed>0.0</speed>
  <fix>3d</fix>
</trkpt>
<trkpt lat="40.0728171" lon="-105.2306214">
  <ele>1596.51</ele>
  <time>2026-08-27T18:30:49Z</time>
  <course>345.75</course>
  <speed>0.01414213562373095</speed>
  <fix>3d</fix>
</trkpt>
<trkpt lat="40.0728171" lon="-105.2306215">
  <ele>1596.41</ele>
  <time>2026-08-27T18:30:49Z</time>
  <course>212.49</course>
  <speed>0.0</speed>
  <fix>3d</fix>
</trkpt>
<trkpt lat="40.0728171" lon="-105.2306214">
  <ele>1596.51</ele>
  <time>2026-08-27T18:30:49Z</time>
  <course>345.75</course>
  <speed>0.01414213562373095</speed>
  <fix>3d</fix>
</trkpt>
<trkpt lat="40.0728171" lon="-105.2306215">
  <ele>1596.41</ele>
  <time>2026-08-27T18:30:49Z</time>
  <course>213.97</course>
  <speed>0.0</speed>
  <fix>3d</fix>
</trkpt>
<trkpt lat="40.0728171" lon="-105.2306214">
  <ele>1596.51</ele>
  <time>2026-08-27T18:30:49Z</time>
  <course>345.75</course>
  <speed>0.01414213562373095</speed>
  <fix>3d</fix>
</trkpt>
<trkpt lat="40.0728171" lon="-105.2306215">
  <ele>1596.41</ele>
  <time>2026-08-27T18:30:49Z</time>
  <course>219.62</course>
  <speed>0.0</speed>
  <fix>3d</fix>
</trkpt>
<trkpt lat="40.0728171" lon="-105.2306214">
  <ele>1596.5</ele>
  <time>2026-08-27T18:30:49Z</time>
  <course>345.74</course>
  <speed>0.01414213562373095</speed>
  <fix>3d</fix>
</trkpt>
<trkpt lat="40.0728171" lon="-105.2306215">
  <ele>1596.41</ele>
  <time>2026-08-27T18:30:49Z</time>
  <course>229.69</course>
  <speed>0.0</speed>
  <fix>3d</fix>
</trkpt>
<trkpt lat="40.0728171" lon="-105.2306214">
  <ele>1596.5</ele>
  <time>2026-08-27T18:30:49Z</time>
  <course>345.72</course>
  <speed>0.01414213562373095</speed>
  <fix>3d</fix>
</trkpt>
<trkpt lat="40.0728171" lon="-105.2306215">
  <ele>1596.41</ele>
  <time>2026-08-27T18:30:49Z</time>
  <course>242.75</course>
  <speed>0.0</speed>
  <fix>3d</fix>
</trkpt>
<trkpt lat="40.0728171" lon="-105.2306214">
  <ele>1596.5</ele>
  <time>2026-08-27T18:30:49Z</time>
  <course>345.71</course>
  <speed>0.01</speed>
  <fix>3d</fix>
</trkpt>
<trkpt lat="40.0728171" lon="-105.2306216">
  <ele>1596.41</ele>
  <time>2026-08-27T18:30:49Z</time>
  <course>256.85</course>
  <speed>0.0</speed>
  <fix>3d</fix>
</trkpt>
<trkpt lat="40.0728171" lon="-105.2306214">
  <ele>1596.49</ele>
  <time>2026-08-27T18:30:49Z</time>
  <course>345.69</course>
  <speed>0.01</speed>
  <fix>3d</fix>
</trkpt>
<trkpt lat="40.0728171" lon="-105.2306217">
  <ele>1596.41</ele>
  <time>2026-08-27T18:30:49Z</time>
  <course>268.43</course>
  <speed>0.0</speed>
  <fix>3d</fix>
</trkpt>
<trkpt lat="40.0728171" lon="-105.2306214">
  <ele>1596.49</ele>
  <time>2026-08-27T18:30:49Z</time>
  <course>345.66</course>
  <speed>0.01</speed>
  <fix>3d</fix>
</trkpt>
<trkpt lat="40.0728171" lon="-105.2306217">
  <ele>1596.41</ele>
  <time>2026-08-27T18:30:49Z</time>
  <course>271.78</course>
  <speed>0.0</speed>
  <fix>3d</fix>
</trkpt>
<trkpt lat="40.0728171" lon="-105.2306214">
  <ele>1596.5</ele>
  <time>2026-08-27T18:30:49Z</time>
  <course>345.64</course>
  <speed>0.01</speed>
  <fix>3d</fix>
</trkpt>
<trkpt lat="40.0728171" lon="-105.2306217">
  <ele>1596.41</ele>
  <time>2026-08-27T18:30:49Z</time>
  <course>268.11</course>
  <speed>0.0</speed>
  <fix>3d</fix>
</trkpt>
<trkpt lat="40.0728171" lon="-105.2306214">
  <ele>1596.5</ele>
  <time>2026-08-27T18:30:49Z</time>
  <course>345.63</course>
  <speed>0.01</speed>
  <fix>3d</fix>
</trkpt>
<trkpt lat="40.0728171" lon="-105.2306217">
  <ele>1596.41</ele>
  <time>2026-08-27T18:30:49Z</time>
  <course>263.19</course>
  <speed>0.0</speed>
  <fix>3d</fix>
</trkpt>
<trkpt lat="40.0728171" lon="-105.2306214">
  <ele>1596.5</ele>
  <time>2026-08-27T18:30:49Z</time>
  <course>345.63</course>
  <speed>0.02</speed>
  <fix>3d</fix>
</trkpt>
<trkpt lat="40.0728171" lon="-105.2306217">
  <ele>1596.42</ele>
  <time>2026-08-27T18:30:49Z</time>
  <course>257.52</course>
  <speed>0.0</speed>
  <fix>3d</fix>
</trkpt>
<trkpt lat="40.0728171" lon="-105.2306214">
  <ele>1596.5</ele>
  <time>2026-08-27T18:30:49Z</time>
  <course>345.62</course>
  <speed>0.02</speed>
  <fix>3d</fix>
</trkpt>
<trkpt lat="40.0728171" lon="-105.2306217">
  <ele>1596.42</ele>
  <time>2026-08-27T18:30:49Z</time>
  <course>247.57</course>
  <speed>0.0</speed>
  <fix>3d</fix>
</trkpt>
<trkpt lat="40.0728171" lon="-105.2306215">
  <ele>1596.5</ele>
  <time>2026-08-27T18:30:49Z</time>
  <course>345.6</course>
  <speed>0.022360679774997897</speed>
  <fix>3d</fix>
</trkpt>
<trkpt lat="40.0728171" lon="-105.2306217">
  <ele>1596.42</ele>
  <time>2026-08-27T18:30:49Z</time>
  <course>175.31</course>
  <speed>0.0</speed>
  <fix>3d</fix>
</trkpt>
<trkpt lat="40.0728171" lon="-105.2306215">
  <ele>1596.5</ele>
  <time>2026-08-27T18:30:49Z</time>
  <course>345.6</course>
  <speed>0.022360679774997897</speed>
  <fix>3d</fix>
</trkpt>
<trkpt lat="40.0728171" lon="-105.2306217">
  <ele>1596.42</ele>
  <time>2026-08-27T18:30:49Z</time>
  <course>120.53</course>
  <speed>0.0</speed>
  <fix>3d</fix>
</trkpt>
<trkpt lat="40.0728171" lon="-105.2306215">
  <ele>1596.51</ele>
  <time>2026-08-27T18:30:49Z</time>
  <course>345.6</course>
  <speed>0.022360679774997897</speed>
  <fix>3d</fix>
</trkpt>
<trkpt lat="40.0728171" lon="-105.2306217">
  <ele>1596.43</ele>
  <time>2026-08-27T18:30:49Z</time>
  <course>112.03</course>
  <speed>0.0</speed>
  <fix>3d</fix>
</trkpt>
<trkpt lat="40.0728171" lon="-105.2306215">
  <ele>1596.51</ele>
  <time>2026-08-27T18:30:49Z</time>
  <course>345.59</course>
  <speed>0.022360679774997897</speed>
  <fix>3d</fix>
</trkpt>
<trkpt lat="40.0728171" lon="-105.2306217">
  <ele>1596.43</ele>
  <time>2026-08-27T18:30:49Z</time>
  <course>110.36</course>
  <speed>0.0</speed>
  <fix>3d</fix>
</trkpt>
<trkpt lat="40.0728171" lon="-105.2306215">
  <ele>1596.51</ele>
  <time>2026-08-27T18:30:49Z</time>
  <course>345.59</course>
  <speed>0.022360679774997897</speed>
  <fix>3d</fix>
</trkpt>
<trkpt lat="40.0728171" lon="-105.2306217">
  <ele>1596.43</ele>
  <time>2026-08-27T18:30:49Z</time>
  <course>105.38</course>
  <speed>0.0</speed>
  <fix>3d</fix>
</trkpt>
<trkpt lat="40.0728171" lon="-105.2306215">
  <ele>1596.51</ele>
  <time>2026-08-27T18:30:49Z</time>
  <course>345.59</course>
  <speed>0.022360679774997897</speed>
  <fix>3d</fix>
</trkpt>
<trkpt lat="40.0728171" lon="-105.2306217">
  <ele>1596.43</ele>
  <time>2026-08-27T18:30:49Z</time>
  <course>100.58</course>
  <speed>0.0</speed>
  <fix>3d</fix>
</trkpt>
<trkpt lat="40.0728171" lon="-105.2306215">
  <ele>1596.51</ele>
  <time>2026-08-27T18:30:49Z</time>
  <course>345.59</course>
  <speed>0.022360679774997897</speed>
  <fix>3d</fix>
</trkpt>
<trkpt lat="40.0728171" lon="-105.2306217">
  <ele>1596.43</ele>
  <time>2026-08-27T18:30:49Z</time>
  <course>96.51</course>
  <speed>0.0</speed>
  <fix>3d</fix>
</trkpt>
<trkpt lat="40.0728171" lon="-105.2306215">
  <ele>1596.51</ele>
  <time>2026-08-27T18:30:49Z</time>
  <course>345.59</course>
  <speed>0.022360679774997897</speed>
  <fix>3d</fix>
</trkpt>
<trkpt lat="40.0728171" lon="-105.2306217">
  <ele>1596.43</ele>
  <time>2026-08-27T18:30:49Z</time>
  <course>92.83</course>
  <speed>0.0</speed>
  <fix>3d</fix>
</trkpt>
<trkpt lat="40.0728171" lon="-105.2306215">
  <ele>1596.52</ele>
  <time>2026-08-27T18:30:49Z</time>
  <course>345.59</course>
  <speed>0.022360679774997897</speed>
  <fix>3d</fix>
</trkpt>
<trkpt lat="40.0728171" lon="-105.2306217">
  <ele>1596.43</ele>
  <time>2026-08-27T18:30:49Z</time>
  <course>90.12</course>
  <speed>0.0</speed>
  <fix>3d</fix>
</trkpt>
<trkpt lat="40.0728171" lon="-105.2306215">
  <ele>1596.52</ele>
  <time>2026-08-27T18:30:49Z</time>
  <course>345.59</course>
  <speed>0.022360679774997897</speed>
  <fix>3d</fix>
</trkpt>
<trkpt lat="40.0728171" lon="-105.2306217">
  <ele>1596.43</ele>
  <time>2026-08-27T18:30:49Z</time>
  <course>88.09</course>
  <speed>0.0</speed>
  <fix>3d</fix>
</trkpt>
<trkpt lat="40.0728171" lon="-105.2306215">
  <ele>1596.52</ele>
  <time>2026-08-27T18:30:49Z</time>
  <course>345.61</course>
  <speed>0.02</speed>
  <fix>3d</fix>
</trkpt>
<trkpt lat="40.0728171" lon="-105.2306217">
  <ele>1596.43</ele>
  <time>2026-08-27T18:30:49Z</time>
  <course>86.17</course>
  <speed>0.0</speed>
  <fix>3d</fix>
</trkpt>
<trkpt lat="40.0728171" lon="-105.2306215">
  <ele>1596.52</ele>
  <time>2026-08-27T18:30:49Z</time>
  <course>345.64</course>
  <speed>0.02</speed>
  <fix>3d</fix>
</trkpt>
<trkpt lat="40.0728171" lon="-105.2306217">
  <ele>1596.43</ele>
  <time>2026-08-27T18:30:49Z</time>
  <course>83.78</course>
  <speed>0.0</speed>
  <fix>3d</fix>
</trkpt>
<trkpt lat="40.0728171" lon="-105.2306215">
  <ele>1596.52</ele>
  <time>2026-08-27T18:30:49Z</time>
  <course>345.66</course>
  <speed>0.02</speed>
  <fix>3d</fix>
</trkpt>
<trkpt lat="40.0728171" lon="-105.2306217">
  <ele>1596.43</ele>
  <time>2026-08-27T18:30:49Z</time>
  <course>81.71</course>
  <speed>0.0</speed>
  <fix>3d</fix>
</trkpt>
<trkpt lat="40.0728171" lon="-105.2306215">
  <ele>1596.53</ele>
  <time>2026-08-27T18:30:49Z</time>
  <course>345.68</course>
  <speed>0.02</speed>
  <fix>3d</fix>
</trkpt>
<trkpt lat="40.0728171" lon="-105.2306217">
  <ele>1596.43</ele>
  <time>2026-08-27T18:30:49Z</time>
  <course>80.18</course>
  <speed>0.0</speed>
  <fix>3d</fix>
</trkpt>
<trkpt lat="40.0728171" lon="-105.2306215">
  <ele>1596.52</ele>
  <time>2026-08-27T18:30:49Z</time>
  <course>345.69</course>
  <speed>0.02</speed>
  <fix>3d</fix>
</trkpt>
<trkpt lat="40.0728171" lon="-105.2306217">
  <ele>1596.43</ele>
  <time>2026-08-27T18:30:49Z</time>
  <course>77.78</course>
  <speed>0.0</speed>
  <fix>3d</fix>
</trkpt>
<trkpt lat="40.0728171" lon="-105.2306215">
  <ele>1596.52</ele>
  <time>2026-08-27T18:30:49Z</time>
  <course>345.7</course>
  <speed>0.02</speed>
  <fix>3d</fix>
</trkpt>
<trkpt lat="40.0728171" lon="-105.2306217">
  <ele>1596.42</ele>
  <time>2026-08-27T18:30:49Z</time>
  <course>75.12</course>
  <speed>0.0</speed>
  <fix>3d</fix>
</trkpt>
<trkpt lat="40.0728171" lon="-105.2306215">
  <ele>1596.52</ele>
  <time>2026-08-27T18:30:49Z</time>
  <course>345.7</course>
  <speed>0.02</speed>
  <fix>3d</fix>
</trkpt>
<trkpt lat="40.0728171" lon="-105.2306216">
  <ele>1596.42</ele>
  <time>2026-08-27T18:30:49Z</time>
  <course>72.3</course>
  <speed>0.0</speed>
  <fix>3d</fix>
</trkpt>
<trkpt lat="40.0728171" lon="-105.2306214">
  <ele>1596.51</ele>
  <time>2026-08-27T18:30:49Z</time>
  <course>345.69</course>
  <speed>0.02</speed>
  <fix>3d</fix>
</trkpt>
<trkpt lat="40.0728171" lon="-105.2306215">
  <ele>1596.42</ele>
  <time>2026-08-27T18:30:49Z</time>
  <course>68.98</course>
  <speed>0.0</speed>
  <fix>3d</fix>
</trkpt>
<trkpt lat="40.0728171" lon="-105.2306214">
  <ele>1596.51</ele>
  <time>2026-08-27T18:30:49Z</time>
  <course>345.67</course>
  <speed>0.02</speed>
  <fix>3d</fix>
</trkpt>
<trkpt lat="40.0728171" lon="-105.2306215">
  <ele>1596.41</ele>
  <time>2026-08-27T18:30:49Z</time>
  <course>67.03</course>
  <speed>0.0</speed>
  <fix>3d</fix>
</trkpt>
<trkpt lat="40.0728171" lon="-105.2306214">
  <ele>1596.51</ele>
  <time>2026-08-27T18:30:49Z</time>
  <course>345.66</course>
  <speed>0.02</speed>
  <fix>3d</fix>
</trkpt>
<trkpt lat="40.0728171" lon="-105.2306215">
  <ele>1596.41</ele>
  <time>2026-08-27T18:30:49Z</time>
  <course>63.56</course>
  <speed>0.0</speed>
  <fix>3d</fix>
</trkpt>
<trkpt lat="40.0728171" lon="-105.2306214">
  <ele>1596.51</ele>
  <time>2026-08-27T18:30:49Z</time>
  <course>345.65</course>
  <speed>0.02</speed>
  <fix>3d</fix>
</trkpt>
<trkpt lat="40.0728171" lon="-105.2306215">
  <ele>1596.41</ele>
  <time>2026-08-27T18:30:49Z</time>
  <course>56.68</course>
  <speed>0.0</speed>
  <fix>3d</fix>
</trkpt>
<trkpt lat="40.0728171" lon="-105.2306214">
  <ele>1596.51</ele>
  <time>2026-08-27T18:30:49Z</time>
  <course>345.64</course>
  <speed>0.02</speed>
  <fix>3d</fix>
</trkpt>
<trkpt lat="40.0728171" lon="-105.2306215">
  <ele>1596.41</ele>
  <time>2026-08-27T18:30:49Z</time>
  <course>49.23</course>
  <speed>0.0</speed>
  <fix>3d</fix>
</trkpt>
<trkpt lat="40.0728171" lon="-105.2306214">
  <ele>1596.51</ele>
  <time>2026-08-27T18:30:49Z</time>
  <course>345.63</course>
  <speed>0.02</speed>
  <fix>3d</fix>
</trkpt>
<trkpt lat="40.0728171" lon="-105.2306215">
  <ele>1596.41</ele>
  <time>2026-08-27T18:30:49Z</time>
  <course>40.07</course>
  <speed>0.0</speed>
  <fix>3d</fix>
</trkpt>
<trkpt lat="40.0728171" lon="-105.2306214">
  <ele>1596.51</ele>
  <time>2026-08-27T18:30:49Z</time>
  <course>345.63</course>
  <speed>0.02</speed>
  <fix>3d</fix>
</trkpt>
<trkpt lat="40.0728171" lon="-105.2306215">
  <ele>1596.41</ele>
  <time>2026-08-27T18:30:49Z</time>
  <course>27.32</course>
  <speed>0.0</speed>
  <fix>3d</fix>
</trkpt>
<trkpt lat="40.0728171" lon="-105.2306214">
  <ele>1596.51</ele>
  <time>2026-08-27T18:30:49Z</time>
  <course>345.63</course>
  <speed>0.02</speed>
  <fix>3d</fix>
</trkpt>
<trkpt lat="40.0728171" lon="-105.2306215">
  <ele>1596.41</ele>
  <time>2026-08-27T18:30:49Z</time>
  <course>10.56</course>
  <speed>0.0</speed>
  <fix>3d</fix>
</trkpt>
<trkpt lat="40.0728171" lon="-105.2306214">
  <ele>1596.51</ele>
  <time>2026-08-27T18:30:49Z</time>
  <course>345.62</course>
  <speed>0.01414213562373095</speed>
  <fix>3d</fix>
</trkpt>
<trkpt lat="40.0728171" lon="-105.2306215">
  <ele>1596.41</ele>
  <time>2026-08-27T18:30:49Z</time>
  <course>350.23</course>
  <speed>0.0</speed>
  <fix>3d</fix>
</trkpt>
<trkpt lat="40.0728171" lon="-105.2306214">
  <ele>1596.51</ele>
  <time>2026-08-27T18:30:49Z</time>
  <course>345.62</course>
  <speed>0.01414213562373095</speed>
  <fix>3d</fix>
</trkpt>
<trkpt lat="40.0728171" lon="-105.2306215">
  <ele>1596.41</ele>
  <time>2026-08-27T18:30:49Z</time>
  <course>330.07</course>
  <speed>0.0</speed>
  <fix>3d</fix>
</trkpt>
<trkpt lat="40.0728171" lon="-105.2306214">
  <ele>1596.5</ele>
  <time>2026-08-27T18:30:49Z</time>
  <course>345.62</course>
  <speed>0.01414213562373095</speed>
  <fix>3d</fix>
</trkpt>
<trkpt lat="40.0728171" lon="-105.2306215">
  <ele>1596.41</ele>
  <time>2026-08-27T18:30:49Z</time>
  <course>315.07</course>
  <speed>0.0</speed>
  <fix>3d</fix>
</trkpt>
<trkpt lat="40.0728171" lon="-105.2306214">
  <ele>1596.51</ele>
  <time>2026-08-27T18:30:49Z</time>
  <course>345.61</course>
  <speed>0.01414213562373095</speed>
  <fix>3d</fix>
</trkpt>
<trkpt lat="40.0728171" lon="-105.2306215">
  <ele>1596.41</ele>
  <time>2026-08-27T18:30:49Z</time>
  <course>303.49</course>
  <speed>0.0</speed>
  <fix>3d</fix>
</trkpt>
<trkpt lat="40.0728171" lon="-105.2306214">
  <ele>1596.51</ele>
  <time>2026-08-27T18:30:49Z</time>
  <course>346.13</course>
  <speed>0.01414213562373095</speed>
  <fix>3d</fix>
</trkpt>
<trkpt lat="40.0728171" lon="-105.2306215">
  <ele>1596.41</ele>
  <time>2026-08-27T18:30:49Z</time>
  <course>283.24</course>
  <speed>0.0</speed>
  <fix>3d</fix>
</trkpt>
<trkpt lat="40.0728171" lon="-105.2306214">
  <ele>1596.51</ele>
  <time>2026-08-27T18:30:49Z</time>
  <course>348.62</course>
  <speed>0.01</speed>
  <fix>3d</fix>
</trkpt>
<trkpt lat="40.0728171" lon="-105.2306215">
  <ele>1596.41</ele>
  <time>2026-08-27T18:30:49Z</time>
  <course>271.73</course>
  <speed>0.01</speed>
  <fix>3d</fix>
</trkpt>
<trkpt lat="40.0728171" lon="-105.2306214">
  <ele>1596.51</ele>
  <time>2026-08-27T18:30:49Z</time>
  <course>352.56</course>
  <speed>0.0</speed>
  <fix>3d</fix>
</trkpt>
<trkpt lat="40.0728171" lon="-105.2306215">
  <ele>1596.41</ele>
  <time>2026-08-27T18:30:49Z</time>
  <course>278.46</course>
  <speed>0.01</speed>
  <fix>3d</fix>
</trkpt>
<trkpt lat="40.0728171" lon="-105.2306214">
  <ele>1596.51</ele>
  <time>2026-08-27T18:30:49Z</time>
  <course>357.17</course>
  <speed>0.01</speed>
  <fix>3d</fix>
</trkpt>
<trkpt lat="40.0728171" lon="-105.2306215">
  <ele>1596.41</ele>
  <time>2026-08-27T18:30:49Z</time>
  <course>299.87</course>
  <speed>0.02</speed>
  <fix>3d</fix>
</trkpt>
<trkpt lat="40.0728171" lon="-105.2306214">
  <ele>1596.51</ele>
  <time>2026-08-27T18:30:49Z</time>
  <course>1.78</course>
  <speed>0.03</speed>
  <fix>3d</fix>
</trkpt>
<trkpt lat="40.0728171" lon="-105.2306216">
  <ele>1596.41</ele>
  <time>2026-08-27T18:30:49Z</time>
  <course>325.55</course>
  <speed>0.03</speed>
  <fix>3d</fix>
</trkpt>
<trkpt lat="40.0728172" lon="-105.2306214">
  <ele>1596.51</ele>
  <time>2026-08-27T18:30:49Z</time>
  <course>5.94</course>
  <speed>0.05099019513592785</speed>
  <fix>3d</fix>
</trkpt>
<trkpt lat="40.0728172" lon="-105.2306217">
  <ele>1596.41</ele>
  <time>2026-08-27T18:30:49Z</time>
  <course>343.58</course>
  <speed>0.04</speed>
  <fix>3d</fix>
</trkpt>
<trkpt lat="40.0728173" lon="-105.2306214">
  <ele>1596.53</ele>
  <time>2026-08-27T18:30:49Z</time>
  <course>9.34</course>
  <speed>0.07280109889280519</speed>
  <fix>3d</fix>
</trkpt>
<trkpt lat="40.0728173" lon="-105.2306217">
  <ele>1596.42</ele>
  <time>2026-08-27T18:30:49Z</time>
  <course>353.27</course>
  <speed>0.06</speed>
  <fix>3d</fix>
</trkpt>
<trkpt lat="40.0728175" lon="-105.2306215">
  <ele>1596.57</ele>
  <time>2026-08-27T18:30:49Z</time>
  <course>11.85</course>
  <speed>0.0824621125123532</speed>
  <fix>3d</fix>
</trkpt>
<trkpt lat="40.0728175" lon="-105.2306217">
  <ele>1596.46</ele>
  <time>2026-08-27T18:30:49Z</time>
  <course>357.91</course>
  <speed>0.08</speed>
  <fix>3d</fix>
</trkpt>
<trkpt lat="40.0728176" lon="-105.2306215">
  <ele>1596.64</ele>
  <time>2026-08-27T18:30:49Z</time>
  <course>13.55</course>
  <speed>0.1019803902718557</speed>
  <fix>3d</fix>
</trkpt>
<trkpt lat="40.0728176" lon="-105.2306217">
  <ele>1596.51</ele>
  <time>2026-08-27T18:30:49Z</time>
  <course>359.76</course>
  <speed>0.1</speed>
  <fix>3d</fix>
</trkpt>
<trkpt lat="40.0728178" lon="-105.2306215">
  <ele>1596.74</ele>
  <time>2026-08-27T18:30:49Z</time>
  <course>14.62</course>
  <speed>0.1019803902718557</speed>
  <fix>3d</fix>
</trkpt>
<trkpt lat="40.0728177" lon="-105.2306217">
  <ele>1596.59</ele>
  <time>2026-08-27T18:30:49Z</time>
  <course>359.91</course>
  <speed>0.11</speed>
  <fix>3d</fix>
</trkpt>
<trkpt lat="40.072818" lon="-105.2306215">
  <ele>1596.88</ele>
  <time>2026-08-27T18:30:49Z</time>
  <course>15.29</course>
  <speed>0.1019803902718557</speed>
  <fix>3d</fix>
</trkpt>
<trkpt lat="40.072818" lon="-105.2306217">
  <ele>1596.7</ele>
  <time>2026-08-27T18:30:49Z</time>
  <course>358.83</course>
  <speed>0.11</speed>
  <fix>3d</fix>
</trkpt>
<trkpt lat="40.0728182" lon="-105.2306215">
  <ele>1597.04</ele>
  <time>2026-08-27T18:30:49Z</time>
  <course>15.75</course>
  <speed>0.09055385138137417</speed>
  <fix>3d</fix>
</trkpt>
<trkpt lat="40.0728182" lon="-105.2306217">
  <ele>1596.83</ele>
  <time>2026-08-27T18:30:49Z</time>
  <course>356.79</course>
  <speed>0.1</speed>
  <fix>3d</fix>
</trkpt>
<trkpt lat="40.0728184" lon="-105.2306215">
  <ele>1597.24</ele>
  <time>2026-08-27T18:30:49Z</time>
  <course>16.12</course>
  <speed>0.07071067811865475</speed>
  <fix>3d</fix>
</trkpt>
<trkpt lat="40.0728184" lon="-105.2306218">
  <ele>1597.0</ele>
  <time>2026-08-27T18:30:49Z</time>
  <course>353.96</course>
  <speed>0.09</speed>
  <fix>3d</fix>
</trkpt>
<trkpt lat="40.0728185" lon="-105.2306215">
  <ele>1597.46</ele>
  <time>2026-08-27T18:30:49Z</time>
  <course>16.47</course>
  <speed>0.06</speed>
  <fix>3d</fix>
</trkpt>
<trkpt lat="40.0728186" lon="-105.2306218">
  <ele>1597.2</ele>
  <time>2026-08-27T18:30:49Z</time>
  <course>350.19</course>
  <speed>0.08</speed>
  <fix>3d</fix>
</trkpt>
<trkpt lat="40.0728187" lon="-105.2306216">
  <ele>1597.7</ele>
  <time>2026-08-27T18:30:49Z</time>
  <course>16.8</course>
  <speed>0.04</speed>
  <fix>3d</fix>
</trkpt>
<trkpt lat="40.0728187" lon="-105.2306218">
  <ele>1597.43</ele>
  <time>2026-08-27T18:30:49Z</time>
  <course>345.1</course>
  <speed>0.06</speed>
  <fix>3d</fix>
</trkpt>
<trkpt lat="40.0728187" lon="-105.2306216">
  <ele>1597.96</ele>
  <time>2026-08-27T18:30:49Z</time>
  <course>17.13</course>
  <speed>0.02</speed>
  <fix>3d</fix>
</trkpt>
<trkpt lat="40.0728188" lon="-105.2306218">
  <ele>1597.67</ele>
  <time>2026-08-27T18:30:49Z</time>
  <course>337.26</course>
  <speed>0.05</speed>
  <fix>3d</fix>
</trkpt>
<trkpt lat="40.0728188" lon="-105.2306217">
  <ele>1598.23</ele>
  <time>2026-08-27T18:30:49Z</time>
  <course>17.44</course>
  <speed>0.0</speed>
  <fix>3d</fix>
</trkpt>
<trkpt lat="40.0728189" lon="-105.2306219">
  <ele>1597.93</ele>
  <time>2026-08-27T18:30:49Z</time>
  <course>322.84</course>
  <speed>0.03</speed>
  <fix>3d</fix>
</trkpt>
<trkpt lat="40.0728188" lon="-105.2306217">
  <ele>1598.5</ele>
  <time>2026-08-27T18:30:49Z</time>
  <course>17.74</course>
  <speed>0.01</speed>
  <fix>3d</fix>
</trkpt>
<trkpt lat="40.0728189" lon="-105.230622">
  <ele>1598.19</ele>
  <time>2026-08-27T18:30:49Z</time>
  <course>292.03</course>
  <speed>0.02</speed>
  <fix>3d</fix>
</trkpt>
<trkpt lat="40.0728188" lon="-105.2306218">
  <ele>1598.77</ele>
  <time>2026-08-27T18:30:49Z</time>
  <course>18.01</course>
  <speed>0.02</speed>
  <fix>3d</fix>
</trkpt>
<trkpt lat="40.0728189" lon="-105.230622">
  <ele>1598.47</ele>
  <time>2026-08-27T18:30:49Z</time>
  <course>242.73</course>
  <speed>0.02</speed>
  <fix>3d</fix>
</trkpt>
<trkpt lat="40.0728188" lon="-105.2306218">
  <ele>1599.04</ele>
  <time>2026-08-27T18:30:49Z</time>
  <course>18.22</course>
  <speed>0.04</speed>
  <fix>3d</fix>
</trkpt>
<trkpt lat="40.0728189" lon="-105.230622">
  <ele>1598.74</ele>
  <time>2026-08-27T18:30:49Z</time>
  <course>210.74</course>
  <speed>0.03</speed>
  <fix>3d</fix>
</trkpt>
<trkpt lat="40.0728188" lon="-105.2306218">
  <ele>1599.31</ele>
  <time>2026-08-27T18:30:49Z</time>
  <course>18.38</course>
  <speed>0.05</speed>
  <fix>3d</fix>
</trkpt>
<trkpt lat="40.0728189" lon="-105.230622">
  <ele>1599.0</ele>
  <time>2026-08-27T18:30:49Z</time>
  <course>195.6</course>
  <speed>0.04</speed>
  <fix>3d</fix>
</trkpt>
<trkpt lat="40.0728187" lon="-105.2306219">
  <ele>1599.57</ele>
  <time>2026-08-27T18:30:49Z</time>
  <course>18.54</course>
  <speed>0.0632455532033676</speed>
  <fix>3d</fix>
</trkpt>
<trkpt lat="40.0728188" lon="-105.230622">
  <ele>1599.27</ele>
  <time>2026-08-27T18:30:49Z</time>
  <course>185.54</course>
  <speed>0.05</speed>
  <fix>3d</fix>
</trkpt>
<trkpt lat="40.0728186" lon="-105.2306219">
  <ele>1599.82</ele>
  <time>2026-08-27T18:30:49Z</time>
  <course>18.69</course>
  <speed>0.07071067811865475</speed>
  <fix>3d</fix>
</trkpt>
<trkpt lat="40.0728187" lon="-105.230622">
  <ele>1599.52</ele>
  <time>2026-08-27T18:30:49Z</time>
  <course>168.91</course>
  <speed>0.06</speed>
  <fix>3d</fix>
</trkpt>
<trkpt lat="40.0728185" lon="-105.2306217">
  <ele>1600.05</ele>
  <time>2026-08-27T18:30:49Z</time>
  <course>18.8</course>
  <speed>0.12165525060596438</speed>
  <fix>3d</fix>
</trkpt>
<trkpt lat="40.0728186" lon="-105.230622">
  <ele>1599.77</ele>
  <time>2026-08-27T18:30:49Z</time>
  <course>131.75</course>
  <speed>0.07</speed>
  <fix>3d</fix>
</trkpt>
<trkpt lat="40.0728185" lon="-105.2306214">
  <ele>1600.25</ele>
  <time>2026-08-27T18:30:49Z</time>
  <course>18.89</course>
  <speed>0.2220360331117452</speed>
  <fix>3d</fix>
</trkpt>
<trkpt lat="40.0728186" lon="-105.2306218">
  <ele>1599.99</ele>
  <time>2026-08-27T18:30:49Z</time>
  <course>93.8</course>
  <speed>0.12</speed>
  <fix>3d</fix>
</trkpt>
<trkpt lat="40.0728187" lon="-105.2306208">
  <ele>1600.42</ele>
  <time>2026-08-27T18:30:49Z</time>
  <course>18.95</course>
  <speed>0.37</speed>
  <fix>3d</fix>
</trkpt>
<trkpt lat="40.0728186" lon="-105.2306215">
  <ele>1600.19</ele>
  <time>2026-08-27T18:30:49Z</time>
  <course>75.44</course>
  <speed>0.24</speed>
  <fix>3d</fix>
</trkpt>
<trkpt lat="40.0728189" lon="-105.2306198">
  <ele>1600.56</ele>
  <time>2026-08-27T18:30:49Z</time>
  <course>19.01</course>
  <speed>0.563648826841678</speed>
  <fix>3d</fix>
</trkpt>
<trkpt lat="40.0728187" lon="-105.2306208">
  <ele>1600.36</ele>
  <time>2026-08-27T18:30:49Z</time>
  <course>66.59</course>
  <speed>0.4</speed>
  <fix>3d</fix>
</trkpt>
<trkpt lat="40.0728195" lon="-105.2306184">
  <ele>1600.66</ele>
  <time>2026-08-27T18:30:49Z</time>
  <course>19.06</course>
  <speed>0.7964923100695951</speed>
  <fix>3d</fix>
</trkpt>
<trkpt lat="40.0728191" lon="-105.2306197">
  <ele>1600.49</ele>
  <time>2026-08-27T18:30:49Z</time>
  <course>61.6</course>
  <speed>0.6</speed>
  <fix>3d</fix>
</trkpt>
<trkpt lat="40.0728203" lon="-105.2306167">
  <ele>1600.72</ele>
  <time>2026-08-27T18:30:49Z</time>
  <course>19.01</course>
  <speed>1.0324727599312247</speed>
  <fix>3d</fix>
</trkpt>
<trkpt lat="40.0728198" lon="-105.2306183">
  <ele>1600.58</ele>
  <time>2026-08-27T18:30:49Z</time>
  <course>58.42</course>
  <speed>0.84</speed>
  <fix>3d</fix>
</trkpt>
<trkpt lat="40.0728215" lon="-105.2306145">
  <ele>1600.75</ele>
  <time>2026-08-27T18:30:49Z</time>
  <course>27.1</course>
  <speed>1.254312560727987</speed>
  <fix>3d</fix>
</trkpt>
<trkpt lat="40.0728207" lon="-105.2306164">
  <ele>1600.63</ele>
  <time>2026-08-27T18:30:49Z</time>
  <course>55.05</course>
  <speed>1.07</speed>
  <fix>3d</fix>
</trkpt>
<trkpt lat="40.072823" lon="-105.230612">
  <ele>1600.75</ele>
  <time>2026-08-27T18:30:49Z</time>
  <course>41.0</course>
  <speed>1.508011936292283</speed>
  <fix>3d</fix>
</trkpt>
<trkpt lat="40.072822" lon="-105.2306141">
  <ele>1600.65</ele>
  <time>2026-08-27T18:30:49Z</time>
  <course>52.56</course>
  <speed>1.31</speed>
  <fix>3d</fix>
</trkpt>
<trkpt lat="40.0728248" lon="-105.230609">
  <ele>1600.72</ele>
  <time>2026-08-27T18:30:50Z</time>
  <course>53.47</course>
  <speed>1.752055935180153</speed>
  <fix>3d</fix>
</trkpt>
<trkpt lat="40.0728235" lon="-105.2306114">
  <ele>1600.65</ele>
  <time>2026-08-27T18:30:50Z</time>
  <course>52.0</course>
  <speed>1.56</speed>
  <fix>3d</fix>
</trkpt>
<trkpt lat="40.0728267" lon="-105.2306055">
  <ele>1600.7</ele>
  <time>2026-08-27T18:30:50Z</time>
  <course>57.36</course>
  <speed>1.9309324172533848</speed>
  <fix>3d</fix>
</trkpt>
<trkpt lat="40.0728254" lon="-105.2306083">
  <ele>1600.63</ele>
  <time>2026-08-27T18:30:50Z</time>
  <course>52.85</course>
  <speed>1.79</speed>
  <fix>3d</fix>
</trkpt>
<trkpt lat="40.0728288" lon="-105.2306018">
  <ele>1600.68</ele>
  <time>2026-08-27T18:30:50Z</time>
  <course>55.64</course>
  <speed>2.0308865059377395</speed>
  <fix>3d</fix>
</trkpt>
<trkpt lat="40.0728274" lon="-105.2306048">
  <ele>1600.6</ele>
  <time>2026-08-27T18:30:50Z</time>
  <course>53.72</course>
  <speed>1.96</speed>
  <fix>3d</fix>
</trkpt>
<trkpt lat="40.072831" lon="-105.230598">
  <ele>1600.67</ele>
  <time>2026-08-27T18:30:50Z</time>
  <course>54.22</course>
  <speed>2.0483163818121457</speed>
  <fix>3d</fix>
</trkpt>
<trkpt lat="40.0728296" lon="-105.230601">
  <ele>1600.58</ele>
  <time>2026-08-27T18:30:50Z</time>
  <course>53.61</course>
  <speed>2.04</speed>
  <fix>3d</fix>
</trkpt>
<trkpt lat="40.0728332" lon="-105.2305942">
  <ele>1600.66</ele>
  <time>2026-08-27T18:30:50Z</time>
  <course>53.84</course>
  <speed>1.990226117806718</speed>
  <fix>3d</fix>
</trkpt>
<trkpt lat="40.0728318" lon="-105.2305971">
  <ele>1600.57</ele>
  <time>2026-08-27T18:30:50Z</time>
  <course>53.3</course>
  <speed>2.04</speed>
  <fix>3d</fix>
</trkpt>
<trkpt lat="40.0728353" lon="-105.2305905">
  <ele>1600.66</ele>
  <time>2026-08-27T18:30:50Z</time>
  <course>54.16</course>
  <speed>1.898341381311591</speed>
  <fix>3d</fix>
</trkpt>
<trkpt lat="40.0728339" lon="-105.2305933">
  <ele>1600.56</ele>
  <time>2026-08-27T18:30:50Z</time>
  <course>53.38</course>
  <speed>1.98</speed>
  <fix>3d</fix>
</trkpt>
<trkpt lat="40.0728372" lon="-105.230587">
  <ele>1600.66</ele>
  <time>2026-08-27T18:30:50Z</time>
  <course>54.97</course>
  <speed>1.8031361568112376</speed>
  <fix>3d</fix>
</trkpt>
<trkpt lat="40.0728359" lon="-105.2305896">
  <ele>1600.56</ele>
  <time>2026-08-27T18:30:50Z</time>
  <course>54.0</course>
  <speed>1.9</speed>
  <fix>3d</fix>
</trkpt>
<trkpt lat="40.072839" lon="-105.2305836">
  <ele>1600.66</ele>
  <time>2026-08-27T18:30:50Z</time>
  <course>56.1</course>
  <speed>1.6862977198585072</speed>
  <fix>3d</fix>
</trkpt>
<trkpt lat="40.0728379" lon="-105.2305861">
  <ele>1600.56</ele>
  <time>2026-08-27T18:30:50Z</time>
  <course>55.02</course>
  <speed>1.8</speed>
  <fix>3d</fix>
</trkpt>
<trkpt lat="40.0728407" lon="-105.2305805">
  <ele>1600.65</ele>
  <time>2026-08-27T18:30:50Z</time>
  <course>57.25</course>
  <speed>1.5339491516996253</speed>
  <fix>3d</fix>
</trkpt>
<trkpt lat="40.0728397" lon="-105.2305827">
  <ele>1600.55</ele>
  <time>2026-08-27T18:30:50Z</time>
  <course>56.2</course>
  <speed>1.67</speed>
  <fix>3d</fix>
</trkpt>
<trkpt lat="40.0728421" lon="-105.2305776">
  <ele>1600.65</ele>
  <time>2026-08-27T18:30:50Z</time>
  <course>58.25</course>
  <speed>1.3377593206552516</speed>
  <fix>3d</fix>
</trkpt>
<trkpt lat="40.0728413" lon="-105.2305796">
  <ele>1600.55</ele>
  <time>2026-08-27T18:30:50Z</time>
  <course>57.33</course>
  <speed>1.51</speed>
  <fix>3d</fix>
</trkpt>
<trkpt lat="40.0728433" lon="-105.2305751">
  <ele>1600.65</ele>
  <time>2026-08-27T18:30:50Z</time>
  <course>59.22</course>
  <speed>1.0941663493271945</speed>
  <fix>3d</fix>
</trkpt>
<trkpt lat="40.0728426" lon="-105.2305768">
  <ele>1600.55</ele>
  <time>2026-08-27T18:30:50Z</time>
  <course>58.47</course>
  <speed>1.3</speed>
  <fix>3d</fix>
</trkpt>
<trkpt lat="40.0728442" lon="-105.2305731">
  <ele>1600.65</ele>
  <time>2026-08-27T18:30:50Z</time>
  <course>60.25</course>
  <speed>0.8100617260431454</speed>
  <fix>3d</fix>
</trkpt>
<trkpt lat="40.0728437" lon="-105.2305744">
  <ele>1600.54</ele>
  <time>2026-08-27T18:30:50Z</time>
  <course>59.94</course>
  <speed>1.05</speed>
  <fix>3d</fix>
</trkpt>
<trkpt lat="40.0728447" lon="-105.2305717">
  <ele>1600.64</ele>
  <time>2026-08-27T18:30:50Z</time>
  <course>60.23</course>
  <speed>0.51478150704935</speed>
  <fix>3d</fix>
</trkpt>
<trkpt lat="40.0728445" lon="-105.2305724">
  <ele>1600.54</ele>
  <time>2026-08-27T18:30:50Z</time>
  <course>62.69</course>
  <speed>0.76</speed>
  <fix>3d</fix>
</trkpt>
<trkpt lat="40.072845" lon="-105.2305708">
  <ele>1600.63</ele>
  <time>2026-08-27T18:30:50Z</time>
  <course>60.06</course>
  <speed>0.2220360331117452</speed>
  <fix>3d</fix>
</trkpt>
<trkpt lat="40.0728449" lon="-105.2305712">
  <ele>1600.53</ele>
  <time>2026-08-27T18:30:50Z</time>
  <course>69.11</course>
  <speed>0.46</speed>
  <fix>3d</fix>
</trkpt>
<trkpt lat="40.0728449" lon="-105.2305705">
  <ele>1600.62</ele>
  <time>2026-08-27T18:30:50Z</time>
  <course>59.95</course>
  <speed>0.13</speed>
  <fix>3d</fix>
</trkpt>
<trkpt lat="40.072845" lon="-105.2305705">
  <ele>1600.52</ele>
  <time>2026-08-27T18:30:50Z</time>
  <course>94.62</course>
  <speed>0.19</speed>
  <fix>3d</fix>
</trkpt>
<trkpt lat="40.0728445" lon="-105.2305707">
  <ele>1600.61</ele>
  <time>2026-08-27T18:30:50Z</time>
  <course>59.82</course>
  <speed>0.32449961479175904</speed>
  <fix>3d</fix>
</trkpt>
<trkpt lat="40.0728449" lon="-105.2305703">
  <ele>1600.52</ele>
  <time>2026-08-27T18:30:50Z</time>
  <course>188.98</course>
  <speed>0.18</speed>
  <fix>3d</fix>
</trkpt>
<trkpt lat="40.0728441" lon="-105.2305711">
  <ele>1600.61</ele>
  <time>2026-08-27T18:30:50Z</time>
  <course>59.71</course>
  <speed>0.46861498055439926</speed>
  <fix>3d</fix>
</trkpt>
<trkpt lat="40.0728445" lon="-105.2305705">
  <ele>1600.51</ele>
  <time>2026-08-27T18:30:50Z</time>
  <course>212.8</course>
  <speed>0.36</speed>
  <fix>3d</fix>
</trkpt>
<trkpt lat="40.0728433" lon="-105.2305718">
  <ele>1600.61</ele>
  <time>2026-08-27T18:30:50Z</time>
  <course>59.65</course>
  <speed>0.552268050859363</speed>
  <fix>3d</fix>
</trkpt>
<trkpt lat="40.0728439" lon="-105.2305711">
  <ele>1600.51</ele>
  <time>2026-08-27T18:30:50Z</time>
  <course>218.49</course>
  <speed>0.5</speed>
  <fix>3d</fix>
</trkpt>
<trkpt lat="40.0728426" lon="-105.2305727">
  <ele>1600.62</ele>
  <time>2026-08-27T18:30:50Z</time>
  <course>59.63</course>
  <speed>0.5590169943749475</speed>
  <fix>3d</fix>
</trkpt>
<trkpt lat="40.0728431" lon="-105.2305719">
  <ele>1600.51</ele>
  <time>2026-08-27T18:30:50Z</time>
  <course>220.88</course>
  <speed>0.57</speed>
  <fix>3d</fix>
</trkpt>
<trkpt lat="40.0728419" lon="-105.2305735">
  <ele>1600.62</ele>
  <time>2026-08-27T18:30:50Z</time>
  <course>59.63</course>
  <speed>0.5093132631298737</speed>
  <fix>3d</fix>
</trkpt>
<trkpt lat="40.0728424" lon="-105.2305728">
  <ele>1600.51</ele>
  <time>2026-08-27T18:30:50Z</time>
  <course>222.39</course>
  <speed>0.57</speed>
  <fix>3d</fix>
</trkpt>
<trkpt lat="40.0728412" lon="-105.2305742">
  <ele>1600.62</ele>
  <time>2026-08-27T18:30:50Z</time>
  <course>53.79</course>
  <speed>0.44204072210600687</speed>
  <fix>3d</fix>
</trkpt>
<trkpt lat="40.0728417" lon="-105.2305736">
  <ele>1600.51</ele>
  <time>2026-08-27T18:30:50Z</time>
  <course>221.71</course>
  <speed>0.52</speed>
  <fix>3d</fix>
</trkpt>
<trkpt lat="40.0728406" lon="-105.2305748">
  <ele>1600.63</ele>
  <time>2026-08-27T18:30:50Z</time>
  <course>39.54</course>
  <speed>0.354682957019364</speed>
  <fix>3d</fix>
</trkpt>
<trkpt lat="40.072841" lon="-105.2305744">
  <ele>1600.51</ele>
  <time>2026-08-27T18:30:50Z</time>
  <course>219.96</course>
  <speed>0.44</speed>
  <fix>3d</fix>
</trkpt>
<trkpt lat="40.0728402" lon="-105.2305754">
  <ele>1600.63</ele>
  <time>2026-08-27T18:30:50Z</time>
  <course>26.33</course>
  <speed>0.3047950130825634</speed>
  <fix>3d</fix>
</trkpt>
<trkpt lat="40.0728405" lon="-105.2305751">
  <ele>1600.51</ele>
  <time>2026-08-27T18:30:50Z</time>
  <course>223.05</course>
  <speed>0.37</speed>
  <fix>3d</fix>
</trkpt>
<trkpt lat="40.0728398" lon="-105.230576">
  <ele>1600.63</ele>
  <time>2026-08-27T18:30:50Z</time>
  <course>18.16</course>
  <speed>0.295296461204668</speed>
  <fix>3d</fix>
</trkpt>
<trkpt lat="40.07284" lon="-105.2305756">
  <ele>1600.51</ele>
  <time>2026-08-27T18:30:50Z</time>
  <course>232.61</course>
  <speed>0.32</speed>
  <fix>3d</fix>
</trkpt>
<trkpt lat="40.0728396" lon="-105.2305766">
  <ele>1600.64</ele>
  <time>2026-08-27T18:30:50Z</time>
  <course>19.58</course>
  <speed>0.26</speed>
  <fix>3d</fix>
</trkpt>
<trkpt lat="40.0728397" lon="-105.2305762">
  <ele>1600.51</ele>
  <time>2026-08-27T18:30:50Z</time>
  <course>243.34</course>
  <speed>0.3</speed>
  <fix>3d</fix>
</trkpt>
<trkpt lat="40.0728394" lon="-105.2305772">
  <ele>1600.64</ele>
  <time>2026-08-27T18:30:50Z</time>
  <course>20.64</course>
  <speed>0.18973665961010278</speed>
  <fix>3d</fix>
</trkpt>
<trkpt lat="40.0728395" lon="-105.2305768">
  <ele>1600.51</ele>
  <time>2026-08-27T18:30:50Z</time>
  <course>250.17</course>
  <speed>0.26</speed>
  <fix>3d</fix>
</trkpt>
<trkpt lat="40.0728394" lon="-105.2305775">
  <ele>1600.64</ele>
  <time>2026-08-27T18:30:50Z</time>
  <course>20.74</course>
  <speed>0.12165525060596438</speed>
  <fix>3d</fix>
</trkpt>
<trkpt lat="40.0728394" lon="-105.2305773">
  <ele>1600.51</ele>
  <time>2026-08-27T18:30:50Z</time>
  <course>256.54</course>
  <speed>0.19</speed>
  <fix>3d</fix>
</trkpt>
<trkpt lat="40.0728394" lon="-105.2305778">
  <ele>1600.63</ele>
  <time>2026-08-27T18:30:50Z</time>
  <course>20.67</course>
  <speed>0.07280109889280519</speed>
  <fix>3d</fix>
</trkpt>
<trkpt lat="40.0728394" lon="-105.2305777">
  <ele>1600.51</ele>
  <time>2026-08-27T18:30:50Z</time>
  <course>273.14</course>
  <speed>0.12</speed>
  <fix>3d</fix>
</trkpt>
<trkpt lat="40.0728395" lon="-105.2305779">
  <ele>1600.63</ele>
  <time>2026-08-27T18:30:50Z</time>
  <course>20.64</course>
  <speed>0.07280109889280519</speed>
  <fix>3d</fix>
</trkpt>
<trkpt lat="40.0728394" lon="-105.230578">
  <ele>1600.5</ele>
  <time>2026-08-27T18:30:50Z</time>
  <course>309.96</course>
  <speed>0.09</speed>
  <fix>3d</fix>
</trkpt>
<trkpt lat="40.0728396" lon="-105.230578">
  <ele>1600.62</ele>
  <time>2026-08-27T18:30:50Z</time>
  <course>20.65</course>
  <speed>0.11</speed>
  <fix>3d</fix>
</trkpt>
<trkpt lat="40.0728395" lon="-105.230578">
  <ele>1600.5</ele>
  <time>2026-08-27T18:30:50Z</time>
  <course>345.28</course>
  <speed>0.11</speed>
  <fix>3d</fix>
</trkpt>
<trkpt lat="40.0728398" lon="-105.2305779">
  <ele>1600.62</ele>
  <time>2026-08-27T18:30:50Z</time>
  <course>20.65</course>
  <speed>0.14560219778561037</speed>
  <fix>3d</fix>
</trkpt>
<trkpt lat="40.0728397" lon="-105.230578">
  <ele>1600.5</ele>
  <time>2026-08-27T18:30:50Z</time>
  <course>2.76</course>
  <speed>0.15</speed>
  <fix>3d</fix>
</trkpt>
<trkpt lat="40.0728402" lon="-105.2305779">
  <ele>1600.61</ele>
  <time>2026-08-27T18:30:50Z</time>
  <course>20.66</course>
  <speed>0.1708800749063506</speed>
  <fix>3d</fix>
</trkpt>
<trkpt lat="40.07284" lon="-105.230578">
  <ele>1600.5</ele>
  <time>2026-08-27T18:30:50Z</time>
  <course>11.98</course>
  <speed>0.19</speed>
  <fix>3d</fix>
</trkpt>
<trkpt lat="40.0728405" lon="-105.2305777">
  <ele>1600.61</ele>
  <time>2026-08-27T18:30:50Z</time>
  <course>20.67</course>
  <speed>0.20124611797498107</speed>
  <fix>3d</fix>
</trkpt>
<trkpt lat="40.0728404" lon="-105.2305779">
  <ele>1600.5</ele>
  <time>2026-08-27T18:30:50Z</time>
  <course>17.89</course>
  <speed>0.22</speed>
  <fix>3d</fix>
</trkpt>
<trkpt lat="40.0728409" lon="-105.2305775">
  <ele>1600.61</ele>
  <time>2026-08-27T18:30:50Z</time>
  <course>20.68</course>
  <speed>0.2109502310972899</speed>
  <fix>3d</fix>
</trkpt>
<trkpt lat="40.0728407" lon="-105.2305778">
  <ele>1600.5</ele>
  <time>2026-08-27T18:30:50Z</time>
  <course>22.12</course>
  <speed>0.24</speed>
  <fix>3d</fix>
</trkpt>
<trkpt lat="40.0728413" lon="-105.2305773">
  <ele>1600.62</ele>
  <time>2026-08-27T18:30:50Z</time>
  <course>20.7</course>
  <speed>0.21633307652783937</speed>
  <fix>3d</fix>
</trkpt>
<trkpt lat="40.0728412" lon="-105.2305776">
  <ele>1600.5</ele>
  <time>2026-08-27T18:30:50Z</time>
  <course>25.43</course>
  <speed>0.25</speed>
  <fix>3d</fix>
</trkpt>
<trkpt lat="40.0728417" lon="-105.230577">
  <ele>1600.62</ele>
  <time>2026-08-27T18:30:50Z</time>
  <course>20.72</course>
  <speed>0.21400934559032694</speed>
  <fix>3d</fix>
</trkpt>
<trkpt lat="40.0728417" lon="-105.2305773">
  <ele>1600.5</ele>
  <time>2026-08-27T18:30:50Z</time>
  <course>28.28</course>
  <speed>0.26</speed>
  <fix>3d</fix>
</trkpt>
<trkpt lat="40.072842" lon="-105.2305767">
  <ele>1600.61</ele>
  <time>2026-08-27T18:30:50Z</time>
  <course>20.73</course>
  <speed>0.20615528128088303</speed>
  <fix>3d</fix>
</trkpt>
<trkpt lat="40.0728421" lon="-105.230577">
  <ele>1600.5</ele>
  <time>2026-08-27T18:30:50Z</time>
  <course>30.96</course>
  <speed>0.25</speed>
  <fix>3d</fix>
</trkpt>
<trkpt lat="40.0728424" lon="-105.2305764">
  <ele>1600.61</ele>
  <time>2026-08-27T18:30:50Z</time>
  <course>20.75</course>
  <speed>0.191049731745428</speed>
  <fix>3d</fix>
</trkpt>
<trkpt lat="40.0728424" lon="-105.2305767">
  <ele>1600.5</ele>
  <time>2026-08-27T18:30:50Z</time>
  <course>33.67</course>
  <speed>0.24</speed>
  <fix>3d</fix>
</trkpt>
<trkpt lat="40.0728427" lon="-105.2305761">
  <ele>1600.61</ele>
  <time>2026-08-27T18:30:50Z</time>
  <course>20.75</course>
  <speed>0.1769180601295413</speed>
  <fix>3d</fix>
</trkpt>
<trkpt lat="40.0728428" lon="-105.2305763">
  <ele>1600.5</ele>
  <time>2026-08-27T18:30:50Z</time>
  <course>36.64</course>
  <speed>0.23</speed>
  <fix>3d</fix>
</trkpt>
<trkpt lat="40.072843" lon="-105.2305758">
  <ele>1600.61</ele>
  <time>2026-08-27T18:30:50Z</time>
  <course>20.76</course>
  <speed>0.15</speed>
  <fix>3d</fix>
</trkpt>
<trkpt lat="40.0728431" lon="-105.230576">
  <ele>1600.51</ele>
  <time>2026-08-27T18:30:50Z</time>
  <course>40.12</course>
  <speed>0.2</speed>
  <fix>3d</fix>
</trkpt>
<trkpt lat="40.0728432" lon="-105.2305755">
  <ele>1600.6</ele>
  <time>2026-08-27T18:30:50Z</time>
  <course>20.75</course>
  <speed>0.12529964086141668</speed>
  <fix>3d</fix>
</trkpt>
<trkpt lat="40.0728433" lon="-105.2305757">
  <ele>1600.51</ele>
  <time>2026-08-27T18:30:50Z</time>
  <course>44.3</course>
  <speed>0.18</speed>
  <fix>3d</fix>
</trkpt>
<trkpt lat="40.0728433" lon="-105.2305753">
  <ele>1600.6</ele>
  <time>2026-08-27T18:30:50Z</time>
  <course>20.76</course>
  <speed>0.1044030650891055</speed>
  <fix>3d</fix>
</trkpt>
<trkpt lat="40.0728436" lon="-105.2305754">
  <ele>1600.51</ele>
  <time>2026-08-27T18:30:50Z</time>
  <course>49.71</course>
  <speed>0.15</speed>
  <fix>3d</fix>
</trkpt>
<trkpt lat="40.0728435" lon="-105.230575">
  <ele>1600.6</ele>
  <time>2026-08-27T18:30:50Z</time>
  <course>20.76</course>
  <speed>0.08</speed>
  <fix>3d</fix>
</trkpt>
<trkpt lat="40.0728437" lon="-105.2305752">
  <ele>1600.52</ele>
  <time>2026-08-27T18:30:50Z</time>
  <course>57.19</course>
  <speed>0.12</speed>
  <fix>3d</fix>
</trkpt>
<trkpt lat="40.0728435" lon="-105.2305748">
  <ele>1600.61</ele>
  <time>2026-08-27T18:30:50Z</time>
  <course>20.77</course>
  <speed>0.07280109889280519</speed>
  <fix>3d</fix>
</trkpt>
<trkpt lat="40.0728438" lon="-105.2305749">
  <ele>1600.52</ele>
  <time>2026-08-27T18:30:50Z</time>
  <course>68.14</course>
  <speed>0.09</speed>
  <fix>3d</fix>
</trkpt>
<trkpt lat="40.0728435" lon="-105.2305747">
  <ele>1600.62</ele>
  <time>2026-08-27T18:30:50Z</time>
  <course>20.77</course>
  <speed>0.06403124237432849</speed>
  <fix>3d</fix>
</trkpt>
<trkpt lat="40.0728438" lon="-105.2305748">
  <ele>1600.53</ele>
  <time>2026-08-27T18:30:50Z</time>
  <course>84.99</course>
  <speed>0.07</speed>
  <fix>3d</fix>
</trkpt>
<trkpt lat="40.0728435" lon="-105.2305746">
  <ele>1600.62</ele>
  <time>2026-08-27T18:30:50Z</time>
  <course>20.82</course>
  <speed>0.08062257748298549</speed>
  <fix>3d</fix>
</trkpt>
<trkpt lat="40.0728438" lon="-105.2305746">
  <ele>1600.53</ele>
  <time>2026-08-27T18:30:50Z</time>
  <course>109.45</course>
  <speed>0.06</speed>
  <fix>3d</fix>
</trkpt>
<trkpt lat="40.0728435" lon="-105.2305745">
  <ele>1600.61</ele>
  <time>2026-08-27T18:30:50Z</time>
  <course>21.11</course>
  <speed>0.0824621125123532</speed>
  <fix>3d</fix>
</trkpt>
<trkpt lat="40.0728438" lon="-105.2305745">
  <ele>1600.53</ele>
  <time>2026-08-27T18:30:50Z</time>
  <course>136.8</course>
  <speed>0.05</speed>
  <fix>3d</fix>
</trkpt>
<trkpt lat="40.0728434" lon="-105.2305744">
  <ele>1600.56</ele>
  <time>2026-08-27T18:30:50Z</time>
  <course>21.44</course>
  <speed>0.09055385138137417</speed>
  <fix>3d</fix>
</trkpt>
<trkpt lat="40.0728438" lon="-105.2305744">
  <ele>1600.51</ele>
  <time>2026-08-27T18:30:50Z</time>
  <course>157.97</course>
  <speed>0.06</speed>
  <fix>3d</fix>
</trkpt>
<trkpt lat="40.0728433" lon="-105.2305744">
  <ele>1600.47</ele>
  <time>2026-08-27T18:30:50Z</time>
  <course>21.67</course>
  <speed>0.1</speed>
  <fix>3d</fix>
</trkpt>
<trkpt lat="40.0728437" lon="-105.2305744">
  <ele>1600.45</ele>
  <time>2026-08-27T18:30:50Z</time>
  <course>170.43</course>
  <speed>0.07</speed>
  <fix>3d</fix>
</trkpt>
<trkpt lat="40.0728432" lon="-105.2305744">
  <ele>1600.34</ele>
  <time>2026-08-27T18:30:50Z</time>
  <course>21.83</course>
  <speed>0.11</speed>
  <fix>3d</fix>
</trkpt>
<trkpt lat="40.0728435" lon="-105.2305744">
  <ele>1600.35</ele>
  <time>2026-08-27T18:30:50Z</time>
  <course>177.4</course>
  <speed>0.08</speed>
  <fix>3d</fix>
</trkpt>
<trkpt lat="40.072843" lon="-105.2305744">
  <ele>1600.15</ele>
  <time>2026-08-27T18:30:50Z</time>
  <course>21.93</course>
  <speed>0.12</speed>
  <fix>3d</fix>
</trkpt>
<trkpt lat="40.0728433" lon="-105.2305744">
  <ele>1600.2</ele>
  <time>2026-08-27T18:30:50Z</time>
  <course>181.39</course>
  <speed>0.09</speed>
  <fix>3d</fix>
</trkpt>
<trkpt lat="40.0728428" lon="-105.2305744">
  <ele>1599.92</ele>
  <time>2026-08-27T18:30:50Z</time>
  <course>22.0</course>
  <speed>0.12</speed>
  <fix>3d</fix>
</trkpt>
<trkpt lat="40.0728431" lon="-105.2305744">
  <ele>1600.01</ele>
  <time>2026-08-27T18:30:50Z</time>
  <course>183.61</course>
  <speed>0.09</speed>
  <fix>3d</fix>
</trkpt>
<trkpt lat="40.0728427" lon="-105.2305744">
  <ele>1599.64</ele>
  <time>2026-08-27T18:30:50Z</time>
  <course>22.01</course>
  <speed>0.12</speed>
  <fix>3d</fix>
</trkpt>
<trkpt lat="40.072843" lon="-105.2305744">
  <ele>1599.77</ele>
  <time>2026-08-27T18:30:50Z</time>
  <course>184.61</course>
  <speed>0.1</speed>
  <fix>3d</fix>
</trkpt>
<trkpt lat="40.0728425" lon="-105.2305744">
  <ele>1599.33</ele>
  <time>2026-08-27T18:30:50Z</time>
  <course>21.85</course>
  <speed>0.12</speed>
  <fix>3d</fix>
</trkpt>
<trkpt lat="40.0728427" lon="-105.2305744">
  <ele>1599.49</ele>
  <time>2026-08-27T18:30:50Z</time>
  <course>184.35</course>
  <speed>0.1</speed>
  <fix>3d</fix>
</trkpt>
<trkpt lat="40.0728423" lon="-105.2305744">
  <ele>1599.01</ele>
  <time>2026-08-27T18:30:50Z</time>
  <course>21.59</course>
  <speed>0.11</speed>
  <fix>3d</fix>
</trkpt>
<trkpt lat="40.0728426" lon="-105.2305744">
  <ele>1599.18</ele>
  <time>2026-08-27T18:30:50Z</time>
  <course>183.53</course>
  <speed>0.1</speed>
  <fix>3d</fix>
</trkpt>
<trkpt lat="40.0728422" lon="-105.2305744">
  <ele>1598.68</ele>
  <time>2026-08-27T18:30:50Z</time>
  <course>21.37</course>
  <speed>0.1</speed>
  <fix>3d</fix>
</trkpt>
<trkpt lat="40.0728425" lon="-105.2305744">
  <ele>1598.86</ele>
  <time>2026-08-27T18:30:50Z</time>
  <course>183.32</course>
  <speed>0.09</speed>
  <fix>3d</fix>
</trkpt>
<trkpt lat="40.072842" lon="-105.2305744">
  <ele>1598.35</ele>
  <time>2026-08-27T18:30:50Z</time>
  <course>21.2</course>
  <speed>0.09</speed>
  <fix>3d</fix>
</trkpt>
<trkpt lat="40.0728423" lon="-105.2305744">
  <ele>1598.53</ele>
  <time>2026-08-27T18:30:50Z</time>
  <course>184.23</course>
  <speed>0.08</speed>
  <fix>3d</fix>
</trkpt>
<trkpt lat="40.0728419" lon="-105.2305744">
  <ele>1598.02</ele>
  <time>2026-08-27T18:30:50Z</time>
  <course>21.08</course>
  <speed>0.08</speed>
  <fix>3d</fix>
</trkpt>
<trkpt lat="40.0728421" lon="-105.2305744">
  <ele>1598.21</ele>
  <time>2026-08-27T18:30:50Z</time>
  <course>186.69</course>
  <speed>0.07</speed>
  <fix>3d</fix>
</trkpt>
<trkpt lat="40.0728418" lon="-105.2305744">
  <ele>1597.7</ele>
  <time>2026-08-27T18:30:50Z</time>
  <course>20.98</course>
  <speed>0.07</speed>
  <fix>3d</fix>
</trkpt>
<trkpt lat="40.072842" lon="-105.2305744">
  <ele>1597.89</ele>
  <time>2026-08-27T18:30:50Z</time>
  <course>191.24</course>
  <speed>0.06</speed>
  <fix>3d</fix>
</trkpt>
<trkpt lat="40.0728417" lon="-105.2305744">
  <ele>1597.39</ele>
  <time>2026-08-27T18:30:50Z</time>
  <course>20.87</course>
  <speed>0.05</speed>
  <fix>3d</fix>
</trkpt>
<trkpt lat="40.0728419" lon="-105.2305744">
  <ele>1597.58</ele>
  <time>2026-08-27T18:30:50Z</time>
  <course>198.81</course>
  <speed>0.05</speed>
  <fix>3d</fix>
</trkpt>
<trkpt lat="40.0728417" lon="-105.2305744">
  <ele>1597.1</ele>
  <time>2026-08-27T18:30:50Z</time>
  <course>20.57</course>
  <speed>0.0412310562561766</speed>
  <fix>3d</fix>
</trkpt>
<trkpt lat="40.0728418" lon="-105.2305745">
  <ele>1597.28</ele>
  <time>2026-08-27T18:30:50Z</time>
  <course>211.28</course>
  <speed>0.03</speed>
  <fix>3d</fix>
</trkpt>
<trkpt lat="40.0728417" lon="-105.2305745">
  <ele>1596.85</ele>
  <time>2026-08-27T18:30:50Z</time>
  <course>20.22</course>
  <speed>0.022360679774997897</speed>
  <fix>3d</fix>
</trkpt>
<trkpt lat="40.0728418" lon="-105.2305746">
  <ele>1597.01</ele>
  <time>2026-08-27T18:30:50Z</time>
  <course>234.15</course>
  <speed>0.03</speed>
  <fix>3d</fix>
</trkpt>
<trkpt lat="40.0728417" lon="-105.2305746">
  <ele>1596.65</ele>
  <time>2026-08-27T18:30:50Z</time>
  <course>19.96</course>
  <speed>0.022360679774997897</speed>
  <fix>3d</fix>
</trkpt>
<trkpt lat="40.0728418" lon="-105.2305746">
  <ele>1596.77</ele>
  <time>2026-08-27T18:30:50Z</time>
  <course>265.04</course>
  <speed>0.03</speed>
  <fix>3d</fix>
</trkpt>
<trkpt lat="40.0728417" lon="-105.2305746">
  <ele>1596.49</ele>
  <time>2026-08-27T18:30:50Z</time>
  <course>19.78</course>
  <speed>0.03</speed>
  <fix>3d</fix>
</trkpt>
<trkpt lat="40.0728418" lon="-105.2305747">
  <ele>1596.58</ele>
  <time>2026-08-27T18:30:50Z</time>
  <course>285.98</course>
  <speed>0.04</speed>
  <fix>3d</fix>
</trkpt>
<trkpt lat="40.0728417" lon="-105.2305748">
  <ele>1596.38</ele>
  <time>2026-08-27T18:30:50Z</time>
  <course>19.76</course>
  <speed>0.0412310562561766</speed>
  <fix>3d</fix>
</trkpt>
<trkpt lat="40.0728418" lon="-105.2305748">
  <ele>1596.43</ele>
  <time>2026-08-27T18:30:50Z</time>
  <course>296.27</course>
  <speed>0.05</speed>
  <fix>3d</fix>
</trkpt>
<trkpt lat="40.0728417" lon="-105.2305749">
  <ele>1596.29</ele>
  <time>2026-08-27T18:30:50Z</time>
  <course>19.94</course>
  <speed>0.0412310562561766</speed>
  <fix>3d</fix>
</trkpt>
<trkpt lat="40.0728418" lon="-105.2305749">
  <ele>1596.32</ele>
  <time>2026-08-27T18:30:50Z</time>
  <course>301.43</course>
  <speed>0.06</speed>
  <fix>3d</fix>
</trkpt>
<trkpt lat="40.0728418" lon="-105.230575">
  <ele>1596.21</ele>
  <time>2026-08-27T18:30:50Z</time>
  <course>20.14</course>
  <speed>0.044721359549995794</speed>
  <fix>3d</fix>
</trkpt>
<trkpt lat="40.0728418" lon="-105.2305751">
  <ele>1596.24</ele>
  <time>2026-08-27T18:30:50Z</time>
  <course>304.72</course>
  <speed>0.07</speed>
  <fix>3d</fix>
</trkpt>
<trkpt lat="40.0728419" lon="-105.2305752">
  <ele>1596.13</ele>
  <time>2026-08-27T18:30:50Z</time>
  <course>20.31</course>
  <speed>0.05</speed>
  <fix>3d</fix>
</trkpt>
<trkpt lat="40.0728419" lon="-105.2305752">
  <ele>1596.15</ele>
  <time>2026-08-27T18:30:50Z</time>
  <course>307.6</course>
  <speed>0.08</speed>
  <fix>3d</fix>
</trkpt>
<trkpt lat="40.072842" lon="-105.2305753">
  <ele>1596.06</ele>
  <time>2026-08-27T18:30:50Z</time>
  <course>20.44</course>
  <speed>0.05</speed>
  <fix>3d</fix>
</trkpt>
<trkpt lat="40.072842" lon="-105.2305753">
  <ele>1596.08</ele>
  <time>2026-08-27T18:30:50Z</time>
  <course>310.62</course>
  <speed>0.08</speed>
  <fix>3d</fix>
</trkpt>
<trkpt lat="40.072842" lon="-105.2305754">
  <ele>1595.98</ele>
  <time>2026-08-27T18:30:50Z</time>
  <course>20.54</course>
  <speed>0.04242640687119285</speed>
  <fix>3d</fix>
</trkpt>
<trkpt lat="40.0728421" lon="-105.2305755">
  <ele>1596.01</ele>
  <time>2026-08-27T18:30:50Z</time>
  <course>314.01</course>
  <speed>0.08</speed>
  <fix>3d</fix>
</trkpt>
<trkpt lat="40.0728421" lon="-105.2305756">
  <ele>1595.89</ele>
  <time>2026-08-27T18:30:50Z</time>
  <course>20.6</course>
  <speed>0.04242640687119285</speed>
  <fix>3d</fix>
</trkpt>
<trkpt lat="40.0728422" lon="-105.2305757">
  <ele>1595.92</ele>
  <time>2026-08-27T18:30:50Z</time>
  <course>317.82</course>
  <speed>0.08</speed>
  <fix>3d</fix>
</trkpt>
<trkpt lat="40.0728422" lon="-105.2305757">
  <ele>1595.8</ele>
  <time>2026-08-27T18:30:50Z</time>
  <course>20.65</course>
  <speed>0.03605551275463989</speed>
  <fix>3d</fix>
</trkpt>
<trkpt lat="40.0728423" lon="-105.2305758">
  <ele>1595.84</ele>
  <time>2026-08-27T18:30:50Z</time>
  <course>321.94</course>
  <speed>0.07</speed>
  <fix>3d</fix>
</trkpt>
<trkpt lat="40.0728423" lon="-105.2305757">
  <ele>1595.71</ele>
  <time>2026-08-27T18:30:50Z</time>
  <course>20.68</course>
  <speed>0.022360679774997897</speed>
  <fix>3d</fix>
</trkpt>
<trkpt lat="40.0728424" lon="-105.2305759">
  <ele>1595.75</ele>
  <time>2026-08-27T18:30:50Z</time>
  <course>326.24</course>
  <speed>0.06</speed>
  <fix>3d</fix>
</trkpt>
<trkpt lat="40.0728424" lon="-105.2305758">
  <ele>1595.61</ele>
  <time>2026-08-27T18:30:50Z</time>
  <course>20.69</course>
  <speed>0.02</speed>
  <fix>3d</fix>
</trkpt>
<trkpt lat="40.0728425" lon="-105.230576">
  <ele>1595.65</ele>
  <time>2026-08-27T18:30:50Z</time>
  <course>330.88</course>
  <speed>0.06</speed>
  <fix>3d</fix>
</trkpt>
<trkpt lat="40.0728425" lon="-105.2305759">
  <ele>1595.51</ele>
  <time>2026-08-27T18:30:50Z</time>
  <course>20.7</course>
  <speed>0.01</speed>
  <fix>3d</fix>
</trkpt>
<trkpt lat="40.0728426" lon="-105.230576">
  <ele>1595.56</ele>
  <time>2026-08-27T18:30:50Z</time>
  <course>336.27</course>
  <speed>0.05</speed>
  <fix>3d</fix>
</trkpt>
<trkpt lat="40.0728425" lon="-105.2305759">
  <ele>1595.42</ele>
  <time>2026-08-27T18:30:50Z</time>
  <course>20.7</course>
  <speed>0.0</speed>
  <fix>3d</fix>
</trkpt>
<trkpt lat="40.0728427" lon="-105.230576">
  <ele>1595.46</ele>
  <time>2026-08-27T18:30:50Z</time>
  <course>343.36</course>
  <speed>0.04</speed>
  <fix>3d</fix>
</trkpt>
<trkpt lat="40.0728426" lon="-105.2305759">
  <ele>1595.31</ele>
  <time>2026-08-27T18:30:50Z</time>
  <course>20.72</course>
  <speed>0.01</speed>
  <fix>3d</fix>
</trkpt>
<trkpt lat="40.0728428" lon="-105.230576">
  <ele>1595.36</ele>
  <time>2026-08-27T18:30:50Z</time>
  <course>354.15</course>
  <speed>0.03</speed>
  <fix>3d</fix>
</trkpt>
<trkpt lat="40.0728426" lon="-105.2305759">
  <ele>1595.21</ele>
  <time>2026-08-27T18:30:50Z</time>
  <course>20.72</course>
  <speed>0.02</speed>
  <fix>3d</fix>
</trkpt>
<trkpt lat="40.0728429" lon="-105.230576">
  <ele>1595.26</ele>
  <time>2026-08-27T18:30:50Z</time>
  <course>10.16</course>
  <speed>0.02</speed>
  <fix>3d</fix>
</trkpt>
<trkpt lat="40.0728427" lon="-105.2305759">
  <ele>1595.11</ele>
  <time>2026-08-27T18:30:50Z</time>
  <course>20.72</course>
  <speed>0.022360679774997897</speed>
  <fix>3d</fix>
</trkpt>
<trkpt lat="40.0728429" lon="-105.230576">
  <ele>1595.15</ele>
  <time>2026-08-27T18:30:50Z</time>
  <course>30.29</course>
  <speed>0.02</speed>
  <fix>3d</fix>
</trkpt>
<trkpt lat="40.0728427" lon="-105.2305759">
  <ele>1595.01</ele>
  <time>2026-08-27T18:30:50Z</time>
  <course>20.73</course>
  <speed>0.0316227766016838</speed>
  <fix>3d</fix>
</trkpt>
<trkpt lat="40.0728429" lon="-105.230576">
  <ele>1595.06</ele>
  <time>2026-08-27T18:30:50Z</time>
  <course>52.0</course>
  <speed>0.02</speed>
  <fix>3d</fix>
</trkpt>
<trkpt lat="40.0728427" lon="-105.2305758">
  <ele>1594.91</ele>
  <time>2026-08-27T18:30:50Z</time>
  <course>20.72</course>
  <speed>0.03605551275463989</speed>
  <fix>3d</fix>
</trkpt>
<trkpt lat="40.072843" lon="-105.230576">
  <ele>1594.95</ele>
  <time>2026-08-27T18:30:50Z</time>
  <course>73.1</course>
  <speed>0.02</speed>
  <fix>3d</fix>
</trkpt>
<trkpt lat="40.0728427" lon="-105.2305758">
  <ele>1594.81</ele>
  <time>2026-08-27T18:30:50Z</time>
  <course>20.73</course>
  <speed>0.03605551275463989</speed>
  <fix>3d</fix>
</trkpt>
<trkpt lat="40.072843" lon="-105.230576">
  <ele>1594.85</ele>
  <time>2026-08-27T18:30:50Z</time>
  <course>90.85</course>
  <speed>0.02</speed>
  <fix>3d</fix>
</trkpt>
<trkpt lat="40.0728427" lon="-105.2305757">
  <ele>1594.71</ele>
  <time>2026-08-27T18:30:50Z</time>
  <course>20.74</course>
  <speed>0.04242640687119285</speed>
  <fix>3d</fix>
</trkpt>
<trkpt lat="40.072843" lon="-105.230576">
  <ele>1594.75</ele>
  <time>2026-08-27T18:30:50Z</time>
  <course>104.24</course>
  <speed>0.02</speed>
  <fix>3d</fix>
</trkpt>
<trkpt lat="40.0728427" lon="-105.2305757">
  <ele>1594.61</ele>
  <time>2026-08-27T18:30:50Z</time>
  <course>20.73</course>
  <speed>0.04242640687119285</speed>
  <fix>3d</fix>
</trkpt>
<trkpt lat="40.072843" lon="-105.2305759">
  <ele>1594.65</ele>
  <time>2026-08-27T18:30:50Z</time>
  <course>114.31</course>
  <speed>0.02</speed>
  <fix>3d</fix>
</trkpt>
<trkpt lat="40.0728427" lon="-105.2305756">
  <ele>1594.51</ele>
  <time>2026-08-27T18:30:50Z</time>
  <course>20.73</course>
  <speed>0.05</speed>
  <fix>3d</fix>
</trkpt>
<trkpt lat="40.072843" lon="-105.2305758">
  <ele>1594.56</ele>
  <time>2026-08-27T18:30:50Z</time>
  <course>122.03</course>
  <speed>0.03</speed>
  <fix>3d</fix>
</trkpt>
<trkpt lat="40.0728427" lon="-105.2305756">
  <ele>1594.41</ele>
  <time>2026-08-27T18:30:50Z</time>
  <course>20.73</course>
  <speed>0.05</speed>
  <fix>3d</fix>
</trkpt>
<trkpt lat="40.072843" lon="-105.2305758">
  <ele>1594.46</ele>
  <time>2026-08-27T18:30:50Z</time>
  <course>128.03</course>
  <speed>0.03</speed>
  <fix>3d</fix>
</trkpt>
<trkpt lat="40.0728427" lon="-105.2305755">
  <ele>1594.31</ele>
  <time>2026-08-27T18:30:50Z</time>
  <course>20.73</course>
  <speed>0.05</speed>
  <fix>3d</fix>
</trkpt>
<trkpt lat="40.0728429" lon="-105.2305757">
  <ele>1594.36</ele>
  <time>2026-08-27T18:30:50Z</time>
  <course>132.84</course>
  <speed>0.03</speed>
  <fix>3d</fix>
</trkpt>
<trkpt lat="40.0728427" lon="-105.2305755">
  <ele>1594.21</ele>
  <time>2026-08-27T18:30:50Z</time>
  <course>20.74</course>
  <speed>0.05</speed>
  <fix>3d</fix>
</trkpt>
<trkpt lat="40.0728429" lon="-105.2305756">
  <ele>1594.26</ele>
  <time>2026-08-27T18:30:50Z</time>
  <course>137.0</course>
  <speed>0.03</speed>
  <fix>3d</fix>
</trkpt>
<trkpt lat="40.0728426" lon="-105.2305754">
  <ele>1594.11</ele>
  <time>2026-08-27T18:30:50Z</time>
  <course>20.74</course>
  <speed>0.05</speed>
  <fix>3d</fix>
</trkpt>
<trkpt lat="40.0728428" lon="-105.2305756">
  <ele>1594.15</ele>
  <time>2026-08-27T18:30:50Z</time>
  <course>140.72</course>
  <speed>0.03</speed>
  <fix>3d</fix>
</trkpt>
<trkpt lat="40.0728426" lon="-105.2305754">
  <ele>1594.01</ele>
  <time>2026-08-27T18:30:50Z</time>
  <course>20.74</course>
  <speed>0.044721359549995794</speed>
  <fix>3d</fix>
</trkpt>
<trkpt lat="40.0728427" lon="-105.2305755">
  <ele>1594.06</ele>
  <time>2026-08-27T18:30:50Z</time>
  <course>144.21</course>
  <speed>0.03</speed>
  <fix>3d</fix>
</trkpt>
<trkpt lat="40.0728425" lon="-105.2305754">
  <ele>1593.91</ele>
  <time>2026-08-27T18:30:50Z</time>
  <course>20.74</course>
  <speed>0.044721359549995794</speed>
  <fix>3d</fix>
</trkpt>
<trkpt lat="40.0728427" lon="-105.2305755">
  <ele>1593.96</ele>
  <time>2026-08-27T18:30:50Z</time>
  <course>147.64</course>
  <speed>0.03</speed>
  <fix>3d</fix>
</trkpt>
<trkpt lat="40.0728425" lon="-105.2305753">
  <ele>1593.81</ele>
  <time>2026-08-27T18:30:50Z</time>
  <course>20.75</course>
  <speed>0.044721359549995794</speed>
  <fix>3d</fix>
</trkpt>
<trkpt lat="40.0728426" lon="-105.2305755">
  <ele>1593.85</ele>
  <time>2026-08-27T18:30:50Z</time>
  <course>151.08</course>
  <speed>0.03</speed>
  <fix>3d</fix>
</trkpt>
<trkpt lat="40.0728424" lon="-105.2305753">
  <ele>1593.71</ele>
  <time>2026-08-27T18:30:50Z</time>
  <course>20.75</course>
  <speed>0.044721359549995794</speed>
  <fix>3d</fix>
</trkpt>
<trkpt lat="40.0728426" lon="-105.2305754">
  <ele>1593.75</ele>
  <time>2026-08-27T18:30:50Z</time>
  <course>154.4</course>
  <speed>0.03</speed>
  <fix>3d</fix>
</trkpt>
<trkpt lat="40.0728424" lon="-105.2305753">
  <ele>1593.61</ele>
  <time>2026-08-27T18:30:50Z</time>
  <course>20.75</course>
  <speed>0.0412310562561766</speed>
  <fix>3d</fix>
</trkpt>
<trkpt lat="40.0728426" lon="-105.2305753">
  <ele>1593.64</ele>
  <time>2026-08-27T18:30:50Z</time>
  <course>157.25</course>
  <speed>0.02</speed>
  <fix>3d</fix>
</trkpt>
<trkpt lat="40.0728424" lon="-105.2305753">
  <ele>1593.51</ele>
  <time>2026-08-27T18:30:50Z</time>
  <course>20.74</course>
  <speed>0.0316227766016838</speed>
  <fix>3d</fix>
</trkpt>
<trkpt lat="40.0728425" lon="-105.2305753">
  <ele>1593.55</ele>
  <time>2026-08-27T18:30:50Z</time>
  <course>159.91</course>
  <speed>0.02</speed>
  <fix>3d</fix>
</trkpt>
<trkpt lat="40.0728423" lon="-105.2305752">
  <ele>1593.41</ele>
  <time>2026-08-27T18:30:50Z</time>
  <course>20.74</course>
  <speed>0.0316227766016838</speed>
  <fix>3d</fix>
</trkpt>
<trkpt lat="40.0728425" lon="-105.2305753">
  <ele>1593.45</ele>
  <time>2026-08-27T18:30:50Z</time>
  <course>163.52</course>
  <speed>0.01</speed>
  <fix>3d</fix>
</trkpt>
<trkpt lat="40.0728423" lon="-105.2305752">
  <ele>1593.31</ele>
  <time>2026-08-27T18:30:50Z</time>
  <course>20.74</course>
  <speed>0.0316227766016838</speed>
  <fix>3d</fix>
</trkpt>
<trkpt lat="40.0728425" lon="-105.2305753">
  <ele>1593.35</ele>
  <time>2026-08-27T18:30:50Z</time>
  <course>169.31</course>
  <speed>0.01</speed>
  <fix>3d</fix>
</trkpt>
<trkpt lat="40.0728423" lon="-105.2305752">
  <ele>1593.21</ele>
  <time>2026-08-27T18:30:50Z</time>
  <course>20.74</course>
  <speed>0.022360679774997897</speed>
  <fix>3d</fix>
</trkpt>
<trkpt lat="40.0728424" lon="-105.2305753">
  <ele>1593.25</ele>
  <time>2026-08-27T18:30:50Z</time>
  <course>177.27</course>
  <speed>0.01</speed>
  <fix>3d</fix>
</trkpt>
<trkpt lat="40.0728423" lon="-105.2305752">
  <ele>1593.11</ele>
  <time>2026-08-27T18:30:50Z</time>
  <course>20.74</course>
  <speed>0.02</speed>
  <fix>3d</fix>
</trkpt>
<trkpt lat="40.0728424" lon="-105.2305753">
  <ele>1593.14</ele>
  <time>2026-08-27T18:30:50Z</time>
  <course>189.01</course>
  <speed>0.0</speed>
  <fix>3d</fix>
</trkpt>
<trkpt lat="40.0728423" lon="-105.2305752">
  <ele>1593.01</ele>
  <time>2026-08-27T18:30:50Z</time>
  <course>20.74</course>
  <speed>0.02</speed>
  <fix>3d</fix>
</trkpt>
<trkpt lat="40.0728424" lon="-105.2305753">
  <ele>1593.05</ele>
  <time>2026-08-27T18:30:50Z</time>
  <course>208.64</course>
  <speed>0.0</speed>
  <fix>3d</fix>
</trkpt>
<trkpt lat="40.0728423" lon="-105.2305752">
  <ele>1592.9</ele>
  <time>2026-08-27T18:30:50Z</time>
  <course>20.74</course>
  <speed>0.01</speed>
  <fix>3d</fix>
</trkpt>
<trkpt lat="40.0728424" lon="-105.2305753">
  <ele>1592.95</ele>
  <time>2026-08-27T18:30:50Z</time>
  <course>235.9</course>
  <speed>0.0</speed>
  <fix>3d</fix>
</trkpt>
<trkpt lat="40.0728423" lon="-105.2305752">
  <ele>1592.81</ele>
  <time>2026-08-27T18:30:50Z</time>
  <course>20.74</course>
  <speed>0.01</speed>
  <fix>3d</fix>
</trkpt>
<trkpt lat="40.0728424" lon="-105.2305753">
  <ele>1592.85</ele>
  <time>2026-08-27T18:30:50Z</time>
  <course>264.39</course>
  <speed>0.0</speed>
  <fix>3d</fix>
</trkpt>
<trkpt lat="40.0728423" lon="-105.2305752">
  <ele>1592.71</ele>
  <time>2026-08-27T18:30:50Z</time>
  <course>20.74</course>
  <speed>0.01</speed>
  <fix>3d</fix>
</trkpt>
<trkpt lat="40.0728424" lon="-105.2305753">
  <ele>1592.75</ele>
  <time>2026-08-27T18:30:50Z</time>
  <course>284.32</course>
  <speed>0.0</speed>
  <fix>3d</fix>
</trkpt>
<trkpt lat="40.0728423" lon="-105.2305752">
  <ele>1592.61</ele>
  <time>2026-08-27T18:30:50Z</time>
  <course>20.75</course>
  <speed>0.01</speed>
  <fix>3d</fix>
</trkpt>
<trkpt lat="40.0728424" lon="-105.2305753">
  <ele>1592.64</ele>
  <time>2026-08-27T18:30:50Z</time>
  <course>296.08</course>
  <speed>0.0</speed>
  <fix>3d</fix>
</trkpt>
<trkpt lat="40.0728423" lon="-105.2305752">
  <ele>1592.51</ele>
  <time>2026-08-27T18:30:50Z</time>
  <course>20.75</course>
  <speed>0.01</speed>
  <fix>3d</fix>
</trkpt>
<trkpt lat="40.0728424" lon="-105.2305753">
  <ele>1592.55</ele>
  <time>2026-08-27T18:30:50Z</time>
  <course>303.85</course>
  <speed>0.01</speed>
  <fix>3d</fix>
</trkpt>
<trkpt lat="40.0728423" lon="-105.2305752">
  <ele>1592.41</ele>
  <time>2026-08-27T18:30:50Z</time>
  <course>20.74</course>
  <speed>0.01</speed>
  <fix>3d</fix>
</trkpt>
<trkpt lat="40.0728424" lon="-105.2305753">
  <ele>1592.45</ele>
  <time>2026-08-27T18:30:50Z</time>
  <course>309.01</course>
  <speed>0.01</speed>
  <fix>3d</fix>
</trkpt>
<trkpt lat="40.0728423" lon="-105.2305752">
  <ele>1592.3</ele>
  <time>2026-08-27T18:30:50Z</time>
  <course>20.73</course>
  <speed>0.01</speed>
  <fix>3d</fix>
</trkpt>
<trkpt lat="40.0728424" lon="-105.2305753">
  <ele>1592.35</ele>
  <time>2026-08-27T18:30:50Z</time>
  <course>312.55</course>
  <speed>0.01</speed>
  <fix>3d</fix>
</trkpt>
<trkpt lat="40.0728423" lon="-105.2305752">
  <ele>1592.2</ele>
  <time>2026-08-27T18:30:50Z</time>
  <course>20.74</course>
  <speed>0.01</speed>
  <fix>3d</fix>
</trkpt>
<trkpt lat="40.0728424" lon="-105.2305753">
  <ele>1592.25</ele>
  <time>2026-08-27T18:30:50Z</time>
  <course>314.51</course>
  <speed>0.01</speed>
  <fix>3d</fix>
</trkpt>
<trkpt lat="40.0728423" lon="-105.2305752">
  <ele>1592.1</ele>
  <time>2026-08-27T18:30:50Z</time>
  <course>20.73</course>
  <speed>0.01</speed>
  <fix>3d</fix>
</trkpt>
<trkpt lat="40.0728424" lon="-105.2305753">
  <ele>1592.14</ele>
  <time>2026-08-27T18:30:50Z</time>
  <course>315.75</course>
  <speed>0.01</speed>
  <fix>3d</fix>
</trkpt>
<trkpt lat="40.0728423" lon="-105.2305752">
  <ele>1592.0</ele>
  <time>2026-08-27T18:30:50Z</time>
  <course>20.73</course>
  <speed>0.01</speed>
  <fix>3d</fix>
</trkpt>
<trkpt lat="40.0728424" lon="-105.2305754">
  <ele>1592.05</ele>
  <time>2026-08-27T18:30:50Z</time>
  <course>317.12</course>
  <speed>0.01</speed>
  <fix>3d</fix>
</trkpt>
<trkpt lat="40.0728423" lon="-105.2305753">
  <ele>1591.9</ele>
  <time>2026-08-27T18:30:50Z</time>
  <course>20.73</course>
  <speed>0.01</speed>
  <fix>3d</fix>
</trkpt>
<trkpt lat="40.0728424" lon="-105.2305755">
  <ele>1591.95</ele>
  <time>2026-08-27T18:30:50Z</time>
  <course>317.63</course>
  <speed>0.01</speed>
  <fix>3d</fix>
</trkpt>
<trkpt lat="40.0728423" lon="-105.2305753">
  <ele>1591.8</ele>
  <time>2026-08-27T18:30:50Z</time>
  <course>20.73</course>
  <speed>0.01</speed>
  <fix>3d</fix>
</trkpt>
<trkpt lat="40.0728424" lon="-105.2305755">
  <ele>1591.85</ele>
  <time>2026-08-27T18:30:50Z</time>
  <course>317.04</course>
  <speed>0.01</speed>
  <fix>3d</fix>
</trkpt>
<trkpt lat="40.0728423" lon="-105.2305753">
  <ele>1591.7</ele>
  <time>2026-08-27T18:30:50Z</time>
  <course>20.74</course>
  <speed>0.01</speed>
  <fix>3d</fix>
</trkpt>
<trkpt lat="40.0728424" lon="-105.2305755">
  <ele>1591.75</ele>
  <time>2026-08-27T18:30:50Z</time>
  <course>316.54</course>
  <speed>0.01</speed>
  <fix>3d</fix>
</trkpt>
<trkpt lat="40.0728423" lon="-105.2305753">
  <ele>1591.6</ele>
  <time>2026-08-27T18:30:50Z</time>
  <course>20.74</course>
  <speed>0.01</speed>
  <fix>3d</fix>
</trkpt>
<trkpt lat="40.0728425" lon="-105.2305755">
  <ele>1591.65</ele>
  <time>2026-08-27T18:30:50Z</time>
  <course>318.3</course>
  <speed>0.01</speed>
  <fix>3d</fix>
</trkpt>
<trkpt lat="40.0728423" lon="-105.2305753">
  <ele>1591.51</ele>
  <time>2026-08-27T18:30:50Z</time>
  <course>20.74</course>
  <speed>0.01</speed>
  <fix>3d</fix>
</trkpt>
<trkpt lat="40.0728425" lon="-105.2305756">
  <ele>1591.56</ele>
  <time>2026-08-27T18:30:51Z</time>
  <course>322.44</course>
  <speed>0.01</speed>
  <fix>3d</fix>
</trkpt>
<trkpt lat="40.0728423" lon="-105.2305754">
  <ele>1591.41</ele>
  <time>2026-08-27T18:30:51Z</time>
  <course>20.76</course>
  <speed>0.01</speed>
  <fix>3d</fix>
</trkpt>
<trkpt lat="40.0728425" lon="-105.2305756">
  <ele>1591.46</ele>
  <time>2026-08-27T18:30:51Z</time>
  <course>327.01</course>
  <speed>0.01</speed>
  <fix>3d</fix>
</trkpt>
<trkpt lat="40.0728423" lon="-105.2305754">
  <ele>1591.31</ele>
  <time>2026-08-27T18:30:51Z</time>
  <course>20.76</course>
  <speed>0.01414213562373095</speed>
  <fix>3d</fix>
</trkpt>
<trkpt lat="40.0728425" lon="-105.2305756">
  <ele>1591.36</ele>
  <time>2026-08-27T18:30:51Z</time>
  <course>331.43</course>
  <speed>0.0</speed>
  <fix>3d</fix>
</trkpt>
<trkpt lat="40.0728424" lon="-105.2305754">
  <ele>1591.22</ele>
  <time>2026-08-27T18:30:51Z</time>
  <course>20.76</course>
  <speed>0.01414213562373095</speed>
  <fix>3d</fix>
</trkpt>
<trkpt lat="40.0728425" lon="-105.2305756">
  <ele>1591.26</ele>
  <time>2026-08-27T18:30:51Z</time>
  <course>337.9</course>
  <speed>0.0</speed>
  <fix>3d</fix>
</trkpt>
<trkpt lat="40.0728424" lon="-105.2305754">
  <ele>1591.12</ele>
  <time>2026-08-27T18:30:51Z</time>
  <course>20.76</course>
  <speed>0.01414213562373095</speed>
  <fix>3d</fix>
</trkpt>
<trkpt lat="40.0728425" lon="-105.2305756">
  <ele>1591.15</ele>
  <time>2026-08-27T18:30:51Z</time>
  <course>348.51</course>
  <speed>0.0</speed>
  <fix>3d</fix>
</trkpt>
<trkpt lat="40.0728424" lon="-105.2305754">
  <ele>1591.02</ele>
  <time>2026-08-27T18:30:51Z</time>
  <course>20.76</course>
  <speed>0.01414213562373095</speed>
  <fix>3d</fix>
</trkpt>
<trkpt lat="40.0728425" lon="-105.2305756">
  <ele>1591.06</ele>
  <time>2026-08-27T18:30:51Z</time>
  <course>0.08</course>
  <speed>0.0</speed>
  <fix>3d</fix>
</trkpt>
<trkpt lat="40.0728424" lon="-105.2305754">
  <ele>1590.91</ele>
  <time>2026-08-27T18:30:51Z</time>
  <course>20.76</course>
  <speed>0.01414213562373095</speed>
  <fix>3d</fix>
</trkpt>
<trkpt lat="40.0728426" lon="-105.2305756">
  <ele>1590.95</ele>
  <time>2026-08-27T18:30:51Z</time>
  <course>10.77</course>
  <speed>0.0</speed>
  <fix>3d</fix>
</trkpt>
<trkpt lat="40.0728424" lon="-105.2305754">
  <ele>1590.81</ele>
  <time>2026-08-27T18:30:51Z</time>
  <course>20.75</course>
  <speed>0.01414213562373095</speed>
  <fix>3d</fix>
</trkpt>
<trkpt lat="40.0728426" lon="-105.2305756">
  <ele>1590.85</ele>
  <time>2026-08-27T18:30:51Z</time>
  <course>21.11</course>
  <speed>0.0</speed>
  <fix>3d</fix>
</trkpt>
<trkpt lat="40.0728424" lon="-105.2305754">
  <ele>1590.71</ele>
  <time>2026-08-27T18:30:51Z</time>
  <course>20.74</course>
  <speed>0.01414213562373095</speed>
  <fix>3d</fix>
</trkpt>
<trkpt lat="40.0728426" lon="-105.2305756">
  <ele>1590.75</ele>
  <time>2026-08-27T18:30:51Z</time>
  <course>33.75</course>
  <speed>0.0</speed>
  <fix>3d</fix>
</trkpt>
<trkpt lat="40.0728424" lon="-105.2305754">
  <ele>1590.61</ele>
  <time>2026-08-27T18:30:51Z</time>
  <course>20.74</course>
  <speed>0.022360679774997897</speed>
  <fix>3d</fix>
</trkpt>
<trkpt lat="40.0728426" lon="-105.2305756">
  <ele>1590.64</ele>
  <time>2026-08-27T18:30:51Z</time>
  <course>48.73</course>
  <speed>0.0</speed>
  <fix>3d</fix>
</trkpt>
<trkpt lat="40.0728424" lon="-105.2305754">
  <ele>1590.51</ele>
  <time>2026-08-27T18:30:51Z</time>
  <course>20.74</course>
  <speed>0.022360679774997897</speed>
  <fix>3d</fix>
</trkpt>
<trkpt lat="40.0728426" lon="-105.2305756">
  <ele>1590.55</ele>
  <time>2026-08-27T18:30:51Z</time>
  <course>63.54</course>
  <speed>0.0</speed>
  <fix>3d</fix>
</trkpt>
<trkpt lat="40.0728424" lon="-105.2305754">
  <ele>1590.41</ele>
  <time>2026-08-27T18:30:51Z</time>
  <course>20.74</course>
  <speed>0.022360679774997897</speed>
  <fix>3d</fix>
</trkpt>
<trkpt lat="40.0728426" lon="-105.2305756">
  <ele>1590.45</ele>
  <time>2026-08-27T18:30:51Z</time>
  <course>78.64</course>
  <speed>0.0</speed>
  <fix>3d</fix>
</trkpt>
<trkpt lat="40.0728424" lon="-105.2305754">
  <ele>1590.31</ele>
  <time>2026-08-27T18:30:51Z</time>
  <course>20.74</course>
  <speed>0.022360679774997897</speed>
  <fix>3d</fix>
</trkpt>
<trkpt lat="40.0728426" lon="-105.2305756">
  <ele>1590.35</ele>
  <time>2026-08-27T18:30:51Z</time>
  <course>93.21</course>
  <speed>0.0</speed>
  <fix>3d</fix>
</trkpt>
<trkpt lat="40.0728424" lon="-105.2305754">
  <ele>1590.21</ele>
  <time>2026-08-27T18:30:51Z</time>
  <course>20.75</course>
  <speed>0.022360679774997897</speed>
  <fix>3d</fix>
</trkpt>
<trkpt lat="40.0728426" lon="-105.2305756">
  <ele>1590.24</ele>
  <time>2026-08-27T18:30:51Z</time>
  <course>103.37</course>
  <speed>0.0</speed>
  <fix>3d</fix>
</trkpt>
<trkpt lat="40.0728424" lon="-105.2305754">
  <ele>1590.11</ele>
  <time>2026-08-27T18:30:51Z</time>
  <course>20.75</course>
  <speed>0.022360679774997897</speed>
  <fix>3d</fix>
</trkpt>
<trkpt lat="40.0728426" lon="-105.2305756">
  <ele>1590.13</ele>
  <time>2026-08-27T18:30:51Z</time>
  <course>110.45</course>
  <speed>0.0</speed>
  <fix>3d</fix>
</trkpt>
<trkpt lat="40.0728424" lon="-105.2305754">
  <ele>1590.01</ele>
  <time>2026-08-27T18:30:51Z</time>
  <course>20.74</course>
  <speed>0.022360679774997897</speed>
  <fix>3d</fix>
</trkpt>
<trkpt lat="40.0728426" lon="-105.2305756">
  <ele>1590.04</ele>
  <time>2026-08-27T18:30:51Z</time>
  <course>114.55</course>
  <speed>0.0</speed>
  <fix>3d</fix>
</trkpt>
<trkpt lat="40.0728424" lon="-105.2305754">
  <ele>1589.91</ele>
  <time>2026-08-27T18:30:51Z</time>
  <course>20.74</course>
  <speed>0.022360679774997897</speed>
  <fix>3d</fix>
</trkpt>
<trkpt lat="40.0728426" lon="-105.2305756">
  <ele>1589.94</ele>
  <time>2026-08-27T18:30:51Z</time>
  <course>116.7</course>
  <speed>0.0</speed>
  <fix>3d</fix>
</trkpt>
<trkpt lat="40.0728424" lon="-105.2305754">
  <ele>1589.81</ele>
  <time>2026-08-27T18:30:51Z</time>
  <course>20.74</course>
  <speed>0.022360679774997897</speed>
  <fix>3d</fix>
</trkpt>
<trkpt lat="40.0728426" lon="-105.2305756">
  <ele>1589.84</ele>
  <time>2026-08-27T18:30:51Z</time>
  <course>119.77</course>
  <speed>0.0</speed>
  <fix>3d</fix>
</trkpt>
<trkpt lat="40.0728424" lon="-105.2305754">
  <ele>1589.7</ele>
  <time>2026-08-27T18:30:51Z</time>
  <course>20.74</course>
  <speed>0.022360679774997897</speed>
  <fix>3d</fix>
</trkpt>
<trkpt lat="40.0728426" lon="-105.2305756">
  <ele>1589.74</ele>
  <time>2026-08-27T18:30:51Z</time>
  <course>123.72</course>
  <speed>0.0</speed>
  <fix>3d</fix>
</trkpt>
<trkpt lat="40.0728424" lon="-105.2305754">
  <ele>1589.6</ele>
  <time>2026-08-27T18:30:51Z</time>
  <course>20.74</course>
  <speed>0.022360679774997897</speed>
  <fix>3d</fix>
</trkpt>
<trkpt lat="40.0728426" lon="-105.2305756">
  <ele>1589.63</ele>
  <time>2026-08-27T18:30:51Z</time>
  <course>127.57</course>
  <speed>0.0</speed>
  <fix>3d</fix>
</trkpt>
<trkpt lat="40.0728424" lon="-105.2305754">
  <ele>1589.5</ele>
  <time>2026-08-27T18:30:51Z</time>
  <course>20.73</course>
  <speed>0.022360679774997897</speed>
  <fix>3d</fix>
</trkpt>
<trkpt lat="40.0728426" lon="-105.2305755">
  <ele>1589.54</ele>
  <time>2026-08-27T18:30:51Z</time>
  <course>129.62</course>
  <speed>0.0</speed>
  <fix>3d</fix>
</trkpt>
<trkpt lat="40.0728424" lon="-105.2305754">
  <ele>1589.4</ele>
  <time>2026-08-27T18:30:51Z</time>
  <course>20.73</course>
  <speed>0.022360679774997897</speed>
  <fix>3d</fix>
</trkpt>
<trkpt lat="40.0728426" lon="-105.2305755">
  <ele>1589.44</ele>
  <time>2026-08-27T18:30:51Z</time>
  <course>129.92</course>
  <speed>0.0</speed>
  <fix>3d</fix>
</trkpt>
<trkpt lat="40.0728424" lon="-105.2305754">
  <ele>1589.3</ele>
  <time>2026-08-27T18:30:51Z</time>
  <course>20.73</course>
  <speed>0.022360679774997897</speed>
  <fix>3d</fix>
</trkpt>
<trkpt lat="40.0728426" lon="-105.2305755">
  <ele>1589.34</ele>
  <time>2026-08-27T18:30:51Z</time>
  <course>131.08</course>
  <speed>0.0</speed>
  <fix>3d</fix>
</trkpt>
<trkpt lat="40.0728424" lon="-105.2305754">
  <ele>1589.2</ele>
  <time>2026-08-27T18:30:51Z</time>
  <course>20.73</course>
  <speed>0.022360679774997897</speed>
  <fix>3d</fix>
</trkpt>
<trkpt lat="40.0728426" lon="-105.2305755">
  <ele>1589.24</ele>
  <time>2026-08-27T18:30:51Z</time>
  <course>134.31</course>
  <speed>0.0</speed>
  <fix>3d</fix>
</trkpt>
<trkpt lat="40.0728424" lon="-105.2305754">
  <ele>1589.1</ele>
  <time>2026-08-27T18:30:51Z</time>
  <course>20.73</course>
  <speed>0.022360679774997897</speed>
  <fix>3d</fix>
</trkpt>
<trkpt lat="40.0728426" lon="-105.2305755">
  <ele>1589.13</ele>
  <time>2026-08-27T18:30:51Z</time>
  <course>139.12</course>
  <speed>0.0</speed>
  <fix>3d</fix>
</trkpt>
<trkpt lat="40.0728424" lon="-105.2305754">
  <ele>1589.0</ele>
  <time>2026-08-27T18:30:51Z</time>
  <course>20.74</course>
  <speed>0.022360679774997897</speed>
  <fix>3d</fix>
</trkpt>
<trkpt lat="40.0728426" lon="-105.2305755">
  <ele>1589.04</ele>
  <time>2026-08-27T18:30:51Z</time>
  <course>143.78</course>
  <speed>0.0</speed>
  <fix>3d</fix>
</trkpt>
<trkpt lat="40.0728424" lon="-105.2305754">
  <ele>1588.9</ele>
  <time>2026-08-27T18:30:51Z</time>
  <course>20.74</course>
  <speed>0.022360679774997897</speed>
  <fix>3d</fix>
</trkpt>
<trkpt lat="40.0728426" lon="-105.2305755">
  <ele>1588.94</ele>
  <time>2026-08-27T18:30:51Z</time>
  <course>147.09</course>
  <speed>0.0</speed>
  <fix>3d</fix>
</trkpt>
<trkpt lat="40.0728424" lon="-105.2305754">
  <ele>1588.8</ele>
  <time>2026-08-27T18:30:51Z</time>
  <course>20.74</course>
  <speed>0.022360679774997897</speed>
  <fix>3d</fix>
</trkpt>
<trkpt lat="40.0728426" lon="-105.2305755">
  <ele>1588.84</ele>
  <time>2026-08-27T18:30:51Z</time>
  <course>150.14</course>
  <speed>0.0</speed>
  <fix>3d</fix>
</trkpt>
<trkpt lat="40.0728424" lon="-105.2305754">
  <ele>1588.7</ele>
  <time>2026-08-27T18:30:51Z</time>
  <course>20.75</course>
  <speed>0.022360679774997897</speed>
  <fix>3d</fix>
</trkpt>
<trkpt lat="40.0728426" lon="-105.2305755">
  <ele>1588.74</ele>
  <time>2026-08-27T18:30:51Z</time>
  <course>153.76</course>
  <speed>0.0</speed>
  <fix>3d</fix>
</trkpt>
<trkpt lat="40.0728424" lon="-105.2305754">
  <ele>1588.6</ele>
  <time>2026-08-27T18:30:51Z</time>
  <course>20.75</course>
  <speed>0.022360679774997897</speed>
  <fix>3d</fix>
</trkpt>
<trkpt lat="40.0728426" lon="-105.2305755">
  <ele>1588.64</ele>
  <time>2026-08-27T18:30:51Z</time>
  <course>157.75</course>
  <speed>0.0</speed>
  <fix>3d</fix>
</trkpt>
<trkpt lat="40.0728424" lon="-105.2305754">
  <ele>1588.5</ele>
  <time>2026-08-27T18:30:51Z</time>
  <course>20.74</course>
  <speed>0.022360679774997897</speed>
  <fix>3d</fix>
</trkpt>
<trkpt lat="40.0728426" lon="-105.2305755">
  <ele>1588.55</ele>
  <time>2026-08-27T18:30:51Z</time>
  <course>160.16</course>
  <speed>0.0</speed>
  <fix>3d</fix>
</trkpt>
<trkpt lat="40.0728424" lon="-105.2305754">
  <ele>1588.4</ele>
  <time>2026-08-27T18:30:51Z</time>
  <course>20.74</course>
  <speed>0.022360679774997897</speed>
  <fix>3d</fix>
</trkpt>
<trkpt lat="40.0728426" lon="-105.2305755">
  <ele>1588.45</ele>
  <time>2026-08-27T18:30:51Z</time>
  <course>162.4</course>
  <speed>0.0</speed>
  <fix>3d</fix>
</trkpt>
<trkpt lat="40.0728424" lon="-105.2305754">
  <ele>1588.3</ele>
  <time>2026-08-27T18:30:51Z</time>
  <course>20.74</course>
  <speed>0.022360679774997897</speed>
  <fix>3d</fix>
</trkpt>
<trkpt lat="40.0728425" lon="-105.2305755">
  <ele>1588.35</ele>
  <time>2026-08-27T18:30:51Z</time>
  <course>165.92</course>
  <speed>0.0</speed>
  <fix>3d</fix>
</trkpt>
<trkpt lat="40.0728424" lon="-105.2305754">
  <ele>1588.2</ele>
  <time>2026-08-27T18:30:51Z</time>
  <course>20.74</course>
  <speed>0.022360679774997897</speed>
  <fix>3d</fix>
</trkpt>
<trkpt lat="40.0728425" lon="-105.2305754">
  <ele>1588.25</ele>
  <time>2026-08-27T18:30:51Z</time>
  <course>168.89</course>
  <speed>0.0</speed>
  <fix>3d</fix>
</trkpt>
<trkpt lat="40.0728424" lon="-105.2305754">
  <ele>1588.1</ele>
  <time>2026-08-27T18:30:51Z</time>
  <course>20.74</course>
  <speed>0.022360679774997897</speed>
  <fix>3d</fix>
</trkpt>
<trkpt lat="40.0728425" lon="-105.2305753">
  <ele>1588.14</ele>
  <time>2026-08-27T18:30:51Z</time>
  <course>169.06</course>
  <speed>0.0</speed>
  <fix>3d</fix>
</trkpt>
<trkpt lat="40.0728424" lon="-105.2305754">
  <ele>1588.01</ele>
  <time>2026-08-27T18:30:51Z</time>
  <course>20.74</course>
  <speed>0.022360679774997897</speed>
  <fix>3d</fix>
</trkpt>
<trkpt lat="40.0728425" lon="-105.2305753">
  <ele>1588.05</ele>
  <time>2026-08-27T18:30:51Z</time>
  <course>166.38</course>
  <speed>0.0</speed>
  <fix>3d</fix>
</trkpt>
<trkpt lat="40.0728424" lon="-105.2305754">
  <ele>1587.91</ele>
  <time>2026-08-27T18:30:51Z</time>
  <course>20.75</course>
  <speed>0.022360679774997897</speed>
  <fix>3d</fix>
</trkpt>
<trkpt lat="40.0728425" lon="-105.2305753">
  <ele>1587.95</ele>
  <time>2026-08-27T18:30:51Z</time>
  <course>166.86</course>
  <speed>0.0</speed>
  <fix>3d</fix>
</trkpt>
<trkpt lat="40.0728424" lon="-105.2305753">
  <ele>1587.8</ele>
  <time>2026-08-27T18:30:51Z</time>
  <course>20.75</course>
  <speed>0.022360679774997897</speed>
  <fix>3d</fix>
</trkpt>
<trkpt lat="40.0728425" lon="-105.2305753">
  <ele>1587.85</ele>
  <time>2026-08-27T18:30:51Z</time>
  <course>178.98</course>
  <speed>0.0</speed>
  <fix>3d</fix>
</trkpt>
<trkpt lat="40.0728424" lon="-105.2305753">
  <ele>1587.7</ele>
  <time>2026-08-27T18:30:51Z</time>
  <course>20.75</course>
  <speed>0.022360679774997897</speed>
  <fix>3d</fix>
</trkpt>
<trkpt lat="40.0728425" lon="-105.2305753">
  <ele>1587.75</ele>
  <time>2026-08-27T18:30:51Z</time>
  <course>205.16</course>
  <speed>0.0</speed>
  <fix>3d</fix>
</trkpt>
<trkpt lat="40.0728424" lon="-105.2305753">
  <ele>1587.6</ele>
  <time>2026-08-27T18:30:51Z</time>
  <course>20.74</course>
  <speed>0.01414213562373095</speed>
  <fix>3d</fix>
</trkpt>
<trkpt lat="40.0728425" lon="-105.2305753">
  <ele>1587.64</ele>
  <time>2026-08-27T18:30:51Z</time>
  <course>232.38</course>
  <speed>0.0</speed>
  <fix>3d</fix>
</trkpt>
<trkpt lat="40.0728424" lon="-105.2305753">
  <ele>1587.51</ele>
  <time>2026-08-27T18:30:51Z</time>
  <course>20.74</course>
  <speed>0.01</speed>
  <fix>3d</fix>
</trkpt>
<trkpt lat="40.0728425" lon="-105.2305753">
  <ele>1587.55</ele>
  <time>2026-08-27T18:30:51Z</time>
  <course>252.81</course>
  <speed>0.0</speed>
  <fix>3d</fix>
</trkpt>
<trkpt lat="40.0728424" lon="-105.2305753">
  <ele>1587.41</ele>
  <time>2026-08-27T18:30:51Z</time>
  <course>20.75</course>
  <speed>0.01</speed>
  <fix>3d</fix>
</trkpt>
<trkpt lat="40.0728425" lon="-105.2305753">
  <ele>1587.45</ele>
  <time>2026-08-27T18:30:51Z</time>
  <course>263.9</course>
  <speed>0.0</speed>
  <fix>3d</fix>
</trkpt>
<trkpt lat="40.0728424" lon="-105.2305753">
  <ele>1587.31</ele>
  <time>2026-08-27T18:30:51Z</time>
  <course>20.75</course>
  <speed>0.01</speed>
  <fix>3d</fix>
</trkpt>
<trkpt lat="40.0728425" lon="-105.2305753">
  <ele>1587.35</ele>
  <time>2026-08-27T18:30:51Z</time>
  <course>269.63</course>
  <speed>0.0</speed>
  <fix>3d</fix>
</trkpt>
<trkpt lat="40.0728424" lon="-105.2305753">
  <ele>1587.22</ele>
  <time>2026-08-27T18:30:51Z</time>
  <course>20.75</course>
  <speed>0.01</speed>
  <fix>3d</fix>
</trkpt>
<trkpt lat="40.0728425" lon="-105.2305753">
  <ele>1587.25</ele>
  <time>2026-08-27T18:30:51Z</time>
  <course>273.05</course>
  <speed>0.0</speed>
  <fix>3d</fix>
</trkpt>
<trkpt lat="40.0728424" lon="-105.2305753">
  <ele>1587.12</ele>
  <time>2026-08-27T18:30:51Z</time>
  <course>20.75</course>
  <speed>0.01</speed>
  <fix>3d</fix>
</trkpt>
<trkpt lat="40.0728425" lon="-105.2305753">
  <ele>1587.14</ele>
  <time>2026-08-27T18:30:51Z</time>
  <course>273.23</course>
  <speed>0.0</speed>
  <fix>3d</fix>
</trkpt>
<trkpt lat="40.0728424" lon="-105.2305753">
  <ele>1587.02</ele>
  <time>2026-08-27T18:30:51Z</time>
  <course>20.75</course>
  <speed>0.01</speed>
  <fix>3d</fix>
</trkpt>
<trkpt lat="40.0728425" lon="-105.2305753">
  <ele>1587.05</ele>
  <time>2026-08-27T18:30:51Z</time>
  <course>273.38</course>
  <speed>0.0</speed>
  <fix>3d</fix>
</trkpt>
<trkpt lat="40.0728424" lon="-105.2305753">
  <ele>1586.92</ele>
  <time>2026-08-27T18:30:51Z</time>
  <course>20.75</course>
  <speed>0.01</speed>
  <fix>3d</fix>
</trkpt>
<trkpt lat="40.0728425" lon="-105.2305754">
  <ele>1586.94</ele>
  <time>2026-08-27T18:30:51Z</time>
  <course>274.99</course>
  <speed>0.0</speed>
  <fix>3d</fix>
</trkpt>
<trkpt lat="40.0728424" lon="-105.2305753">
  <ele>1586.81</ele>
  <time>2026-08-27T18:30:51Z</time>
  <course>20.75</course>
  <speed>0.01</speed>
  <fix>3d</fix>
</trkpt>
<trkpt lat="40.0728425" lon="-105.2305755">
  <ele>1586.84</ele>
  <time>2026-08-27T18:30:51Z</time>
  <course>275.87</course>
  <speed>0.0</speed>
  <fix>3d</fix>
</trkpt>
<trkpt lat="40.0728424" lon="-105.2305753">
  <ele>1586.71</ele>
  <time>2026-08-27T18:30:51Z</time>
  <course>20.74</course>
  <speed>0.01</speed>
  <fix>3d</fix>
</trkpt>
<trkpt lat="40.0728425" lon="-105.2305755">
  <ele>1586.74</ele>
  <time>2026-08-27T18:30:51Z</time>
  <course>276.7</course>
  <speed>0.0</speed>
  <fix>3d</fix>
</trkpt>
<trkpt lat="40.0728424" lon="-105.2305753">
  <ele>1586.61</ele>
  <time>2026-08-27T18:30:51Z</time>
  <course>20.74</course>
  <speed>0.01</speed>
  <fix>3d</fix>
</trkpt>
<trkpt lat="40.0728425" lon="-105.2305755">
  <ele>1586.63</ele>
  <time>2026-08-27T18:30:51Z</time>
  <course>278.59</course>
  <speed>0.0</speed>
  <fix>3d</fix>
</trkpt>
<trkpt lat="40.0728424" lon="-105.2305753">
  <ele>1586.51</ele>
  <time>2026-08-27T18:30:51Z</time>
  <course>20.74</course>
  <speed>0.01</speed>
  <fix>3d</fix>
</trkpt>
<trkpt lat="40.0728425" lon="-105.2305755">
  <ele>1586.54</ele>
  <time>2026-08-27T18:30:51Z</time>
  <course>281.41</course>
  <speed>0.0</speed>
  <fix>3d</fix>
</trkpt>
<trkpt lat="40.0728424" lon="-105.2305753">
  <ele>1586.41</ele>
  <time>2026-08-27T18:30:51Z</time>
  <course>20.75</course>
  <speed>0.01</speed>
  <fix>3d</fix>
</trkpt>
<trkpt lat="40.0728425" lon="-105.2305755">
  <ele>1586.43</ele>
  <time>2026-08-27T18:30:51Z</time>
  <course>284.24</course>
  <speed>0.0</speed>
  <fix>3d</fix>
</trkpt>
<trkpt lat="40.0728424" lon="-105.2305753">
  <ele>1586.31</ele>
  <time>2026-08-27T18:30:51Z</time>
  <course>20.75</course>
  <speed>0.01414213562373095</speed>
  <fix>3d</fix>
</trkpt>
<trkpt lat="40.0728425" lon="-105.2305756">
  <ele>1586.33</ele>
  <time>2026-08-27T18:30:51Z</time>
  <course>288.25</course>
  <speed>0.0</speed>
  <fix>3d</fix>
</trkpt>
<trkpt lat="40.0728424" lon="-105.2305754">
  <ele>1586.21</ele>
  <time>2026-08-27T18:30:51Z</time>
  <course>20.74</course>
  <speed>0.01414213562373095</speed>
  <fix>3d</fix>
</trkpt>
<trkpt lat="40.0728425" lon="-105.2305756">
  <ele>1586.23</ele>
  <time>2026-08-27T18:30:51Z</time>
  <course>295.44</course>
  <speed>0.0</speed>
  <fix>3d</fix>
</trkpt>
<trkpt lat="40.0728424" lon="-105.2305754">
  <ele>1586.12</ele>
  <time>2026-08-27T18:30:51Z</time>
  <course>20.73</course>
  <speed>0.01</speed>
  <fix>3d</fix>
</trkpt>
<trkpt lat="40.0728425" lon="-105.2305756">
  <ele>1586.13</ele>
  <time>2026-08-27T18:30:51Z</time>
  <course>296.1</course>
  <speed>0.01</speed>
  <fix>3d</fix>
</trkpt>
<trkpt lat="40.0728424" lon="-105.2305754">
  <ele>1586.14</ele>
  <time>2026-08-27T18:30:51Z</time>
  <course>20.76</course>
  <speed>0.01414213562373095</speed>
  <fix>3d</fix>
</trkpt>
<trkpt lat="40.0728425" lon="-105.2305756">
  <ele>1586.08</ele>
  <time>2026-08-27T18:30:51Z</time>
  <course>296.13</course>
  <speed>0.01</speed>
  <fix>3d</fix>
</trkpt>
<trkpt lat="40.0728424" lon="-105.2305754">
  <ele>1586.14</ele>
  <time>2026-08-27T18:30:51Z</time>
  <course>20.81</course>
  <speed>0.022360679774997897</speed>
  <fix>3d</fix>
</trkpt>
<trkpt lat="40.0728425" lon="-105.2305756">
  <ele>1586.09</ele>
  <time>2026-08-27T18:30:51Z</time>
  <course>313.97</course>
  <speed>0.0</speed>
  <fix>3d</fix>
</trkpt>
<trkpt lat="40.0728424" lon="-105.2305754">
  <ele>1586.14</ele>
  <time>2026-08-27T18:30:51Z</time>
  <course>20.84</course>
  <speed>0.022360679774997897</speed>
  <fix>3d</fix>
</trkpt>
<trkpt lat="40.0728425" lon="-105.2305756">
  <ele>1586.09</ele>
  <time>2026-08-27T18:30:51Z</time>
  <course>95.61</course>
  <speed>0.0</speed>
  <fix>3d</fix>
</trkpt>
<trkpt lat="40.0728424" lon="-105.2305754">
  <ele>1586.14</ele>
  <time>2026-08-27T18:30:51Z</time>
  <course>20.88</course>
  <speed>0.022360679774997897</speed>
  <fix>3d</fix>
</trkpt>
<trkpt lat="40.0728425" lon="-105.2305756">
  <ele>1586.09</ele>
  <time>2026-08-27T18:30:51Z</time>
  <course>107.26</course>
  <speed>0.0</speed>
  <fix>3d</fix>
</trkpt>
<trkpt lat="40.0728424" lon="-105.2305754">
  <ele>1586.14</ele>
  <time>2026-08-27T18:30:51Z</time>
  <course>20.91</course>
  <speed>0.022360679774997897</speed>
  <fix>3d</fix>
</trkpt>
<trkpt lat="40.0728425" lon="-105.2305756">
  <ele>1586.09</ele>
  <time>2026-08-27T18:30:51Z</time>
  <course>354.65</course>
  <speed>0.0</speed>
  <fix>3d</fix>
</trkpt>
<trkpt lat="40.0728424" lon="-105.2305754">
  <ele>1586.14</ele>
  <time>2026-08-27T18:30:51Z</time>
  <course>20.93</course>
  <speed>0.022360679774997897</speed>
  <fix>3d</fix>
</trkpt>
<trkpt lat="40.0728425" lon="-105.2305756">
  <ele>1586.09</ele>
  <time>2026-08-27T18:30:51Z</time>
  <course>47.37</course>
  <speed>0.0</speed>
  <fix>3d</fix>
</trkpt>
<trkpt lat="40.0728424" lon="-105.2305754">
  <ele>1586.15</ele>
  <time>2026-08-27T18:30:51Z</time>
  <course>20.96</course>
  <speed>0.022360679774997897</speed>
  <fix>3d</fix>
</trkpt>
<trkpt lat="40.0728425" lon="-105.2305756">
  <ele>1586.09</ele>
  <time>2026-08-27T18:30:51Z</time>
  <course>16.5</course>
  <speed>0.0</speed>
  <fix>3d</fix>
</trkpt>
<trkpt lat="40.0728424" lon="-105.2305754">
  <ele>1586.15</ele>
  <time>2026-08-27T18:30:51Z</time>
  <course>20.98</course>
  <speed>0.022360679774997897</speed>
  <fix>3d</fix>
</trkpt>
<trkpt lat="40.0728425" lon="-105.2305756">
  <ele>1586.09</ele>
  <time>2026-08-27T18:30:51Z</time>
  <course>357.03</course>
  <speed>0.0</speed>
  <fix>3d</fix>
</trkpt>
<trkpt lat="40.0728424" lon="-105.2305754">
  <ele>1586.15</ele>
  <time>2026-08-27T18:30:51Z</time>
  <course>21.01</course>
  <speed>0.022360679774997897</speed>
  <fix>3d</fix>
</trkpt>
<trkpt lat="40.0728425" lon="-105.2305756">
  <ele>1586.09</ele>
  <time>2026-08-27T18:30:51Z</time>
  <course>39.5</course>
  <speed>0.0</speed>
  <fix>3d</fix>
</trkpt>
<trkpt lat="40.0728424" lon="-105.2305754">
  <ele>1586.15</ele>
  <time>2026-08-27T18:30:51Z</time>
  <course>21.0</course>
  <speed>0.04242640687119285</speed>
  <fix>3d</fix>
</trkpt>
<trkpt lat="40.0728425" lon="-105.2305756">
  <ele>1586.09</ele>
  <time>2026-08-27T18:30:51Z</time>
  <course>108.44</course>
  <speed>0.01</speed>
  <fix>3d</fix>
</trkpt>
<trkpt lat="40.0728424" lon="-105.2305754">
  <ele>1586.15</ele>
  <time>2026-08-27T18:30:51Z</time>
  <course>20.96</course>
  <speed>0.022360679774997897</speed>
  <fix>3d</fix>
</trkpt>
<trkpt lat="40.0728425" lon="-105.2305756">
  <ele>1586.09</ele>
  <time>2026-08-27T18:30:51Z</time>
  <course>111.64</course>
  <speed>0.01</speed>
  <fix>3d</fix>
</trkpt>
<trkpt lat="40.0728424" lon="-105.2305754">
  <ele>1586.15</ele>
  <time>2026-08-27T18:30:51Z</time>
  <course>20.92</course>
  <speed>0.02</speed>
  <fix>3d</fix>
</trkpt>
<trkpt lat="40.0728425" lon="-105.2305756">
  <ele>1586.09</ele>
  <time>2026-08-27T18:30:51Z</time>
  <course>158.08</course>
  <speed>0.0</speed>
  <fix>3d</fix>
</trkpt>
<trkpt lat="40.0728424" lon="-105.2305754">
  <ele>1586.15</ele>
  <time>2026-08-27T18:30:51Z</time>
  <course>20.9</course>
  <speed>0.022360679774997897</speed>
  <fix>3d</fix>
</trkpt>
<trkpt lat="40.0728425" lon="-105.2305756">
  <ele>1586.09</ele>
  <time>2026-08-27T18:30:51Z</time>
  <course>275.18</course>
  <speed>0.0</speed>
  <fix>3d</fix>
</trkpt>
<trkpt lat="40.0728424" lon="-105.2305754">
  <ele>1586.15</ele>
  <time>2026-08-27T18:30:51Z</time>
  <course>20.89</course>
  <speed>0.022360679774997897</speed>
  <fix>3d</fix>
</trkpt>
<trkpt lat="40.0728425" lon="-105.2305756">
  <ele>1586.09</ele>
  <time>2026-08-27T18:30:51Z</time>
  <course>251.09</course>
  <speed>0.0</speed>
  <fix>3d</fix>
</trkpt>
<trkpt lat="40.0728424" lon="-105.2305754">
  <ele>1586.15</ele>
  <time>2026-08-27T18:30:51Z</time>
  <course>20.89</course>
  <speed>0.022360679774997897</speed>
  <fix>3d</fix>
</trkpt>
<trkpt lat="40.0728425" lon="-105.2305756">
  <ele>1586.09</ele>
  <time>2026-08-27T18:30:51Z</time>
  <course>232.0</course>
  <speed>0.0</speed>
  <fix>3d</fix>
</trkpt>
<trkpt lat="40.0728424" lon="-105.2305754">
  <ele>1586.15</ele>
  <time>2026-08-27T18:30:51Z</time>
  <course>20.89</course>
  <speed>0.022360679774997897</speed>
  <fix>3d</fix>
</trkpt>
<trkpt lat="40.0728425" lon="-105.2305756">
  <ele>1586.09</ele>
  <time>2026-08-27T18:30:51Z</time>
  <course>250.05</course>
  <speed>0.0</speed>
  <fix>3d</fix>
</trkpt>
<trkpt lat="40.0728424" lon="-105.2305754">
  <ele>1586.15</ele>
  <time>2026-08-27T18:30:51Z</time>
  <course>20.89</course>
  <speed>0.022360679774997897</speed>
  <fix>3d</fix>
</trkpt>
<trkpt lat="40.0728425" lon="-105.2305756">
  <ele>1586.09</ele>
  <time>2026-08-27T18:30:51Z</time>
  <course>248.66</course>
  <speed>0.0</speed>
  <fix>3d</fix>
</trkpt>
<trkpt lat="40.0728424" lon="-105.2305754">
  <ele>1586.15</ele>
  <time>2026-08-27T18:30:51Z</time>
  <course>20.89</course>
  <speed>0.022360679774997897</speed>
  <fix>3d</fix>
</trkpt>
<trkpt lat="40.0728425" lon="-105.2305756">
  <ele>1586.09</ele>
  <time>2026-08-27T18:30:51Z</time>
  <course>222.95</course>
  <speed>0.0</speed>
  <fix>3d</fix>
</trkpt>
<trkpt lat="40.0728424" lon="-105.2305754">
  <ele>1586.15</ele>
  <time>2026-08-27T18:30:51Z</time>
  <course>20.89</course>
  <speed>0.022360679774997897</speed>
  <fix>3d</fix>
</trkpt>
<trkpt lat="40.0728425" lon="-105.2305756">
  <ele>1586.09</ele>
  <time>2026-08-27T18:30:51Z</time>
  <course>157.4</course>
  <speed>0.0</speed>
  <fix>3d</fix>
</trkpt>
<trkpt lat="40.0728424" lon="-105.2305754">
  <ele>1586.15</ele>
  <time>2026-08-27T18:30:51Z</time>
  <course>20.89</course>
  <speed>0.022360679774997897</speed>
  <fix>3d</fix>
</trkpt>
<trkpt lat="40.0728425" lon="-105.2305756">
  <ele>1586.09</ele>
  <time>2026-08-27T18:30:51Z</time>
  <course>35.7</course>
  <speed>0.0</speed>
  <fix>3d</fix>
</trkpt>
<trkpt lat="40.0728424" lon="-105.2305754">
  <ele>1586.15</ele>
  <time>2026-08-27T18:30:51Z</time>
  <course>20.89</course>
  <speed>0.022360679774997897</speed>
  <fix>3d</fix>
</trkpt>
<trkpt lat="40.0728425" lon="-105.2305756">
  <ele>1586.09</ele>
  <time>2026-08-27T18:30:51Z</time>
  <course>283.45</course>
  <speed>0.0</speed>
  <fix>3d</fix>
</trkpt>
<trkpt lat="40.0728424" lon="-105.2305754">
  <ele>1586.15</ele>
  <time>2026-08-27T18:30:51Z</time>
  <course>20.89</course>
  <speed>0.022360679774997897</speed>
  <fix>3d</fix>
</trkpt>
<trkpt lat="40.0728425" lon="-105.2305756">
  <ele>1586.09</ele>
  <time>2026-08-27T18:30:51Z</time>
  <course>273.24</course>
  <speed>0.0</speed>
  <fix>3d</fix>
</trkpt>
<trkpt lat="40.0728424" lon="-105.2305754">
  <ele>1586.15</ele>
  <time>2026-08-27T18:30:51Z</time>
  <course>20.89</course>
  <speed>0.022360679774997897</speed>
  <fix>3d</fix>
</trkpt>
<trkpt lat="40.0728425" lon="-105.2305756">
  <ele>1586.09</ele>
  <time>2026-08-27T18:30:51Z</time>
  <course>288.61</course>
  <speed>0.0</speed>
  <fix>3d</fix>
</trkpt>
<trkpt lat="40.0728424" lon="-105.2305754">
  <ele>1586.16</ele>
  <time>2026-08-27T18:30:51Z</time>
  <course>20.89</course>
  <speed>0.022360679774997897</speed>
  <fix>3d</fix>
</trkpt>
<trkpt lat="40.0728425" lon="-105.2305756">
  <ele>1586.09</ele>
  <time>2026-08-27T18:30:51Z</time>
  <course>287.77</course>
  <speed>0.0</speed>
  <fix>3d</fix>
</trkpt>
<trkpt lat="40.0728424" lon="-105.2305754">
  <ele>1586.16</ele>
  <time>2026-08-27T18:30:51Z</time>
  <course>20.89</course>
  <speed>0.022360679774997897</speed>
  <fix>3d</fix>
</trkpt>
<trkpt lat="40.0728425" lon="-105.2305756">
  <ele>1586.09</ele>
  <time>2026-08-27T18:30:51Z</time>
  <course>285.49</course>
  <speed>0.0</speed>
  <fix>3d</fix>
</trkpt>
<trkpt lat="40.0728424" lon="-105.2305754">
  <ele>1586.16</ele>
  <time>2026-08-27T18:30:51Z</time>
  <course>20.88</course>
  <speed>0.022360679774997897</speed>
  <fix>3d</fix>
</trkpt>
<trkpt lat="40.0728425" lon="-105.2305756">
  <ele>1586.09</ele>
  <time>2026-08-27T18:30:51Z</time>
  <course>285.83</course>
  <speed>0.0</speed>
  <fix>3d</fix>
</trkpt>
<trkpt lat="40.0728424" lon="-105.2305754">
  <ele>1586.16</ele>
  <time>2026-08-27T18:30:51Z</time>
  <course>20.88</course>
  <speed>0.022360679774997897</speed>
  <fix>3d</fix>
</trkpt>
<trkpt lat="40.0728425" lon="-105.2305756">
  <ele>1586.09</ele>
  <time>2026-08-27T18:30:51Z</time>
  <course>286.1</course>
  <speed>0.0</speed>
  <fix>3d</fix>
</trkpt>
<trkpt lat="40.0728424" lon="-105.2305754">
  <ele>1586.16</ele>
  <time>2026-08-27T18:30:51Z</time>
  <course>20.88</course>
  <speed>0.022360679774997897</speed>
  <fix>3d</fix>
</trkpt>
<trkpt lat="40.0728425" lon="-105.2305756">
  <ele>1586.09</ele>
  <time>2026-08-27T18:30:51Z</time>
  <course>286.02</course>
  <speed>0.0</speed>
  <fix>3d</fix>
</trkpt>
<trkpt lat="40.0728424" lon="-105.2305754">
  <ele>1586.16</ele>
  <time>2026-08-27T18:30:51Z</time>
  <course>20.88</course>
  <speed>0.022360679774997897</speed>
  <fix>3d</fix>
</trkpt>
<trkpt lat="40.0728425" lon="-105.2305756">
  <ele>1586.09</ele>
  <time>2026-08-27T18:30:51Z</time>
  <course>285.99</course>
  <speed>0.0</speed>
  <fix>3d</fix>
</trkpt>
<trkpt lat="40.0728424" lon="-105.2305754">
  <ele>1586.16</ele>
  <time>2026-08-27T18:30:51Z</time>
  <course>20.88</course>
  <speed>0.022360679774997897</speed>
  <fix>3d</fix>
</trkpt>
<trkpt lat="40.0728425" lon="-105.2305756">
  <ele>1586.09</ele>
  <time>2026-08-27T18:30:51Z</time>
  <course>286.01</course>
  <speed>0.0</speed>
  <fix>3d</fix>
</trkpt>
<trkpt lat="40.0728424" lon="-105.2305754">
  <ele>1586.16</ele>
  <time>2026-08-27T18:30:51Z</time>
  <course>20.88</course>
  <speed>0.022360679774997897</speed>
  <fix>3d</fix>
</trkpt>
<trkpt lat="40.0728425" lon="-105.2305756">
  <ele>1586.09</ele>
  <time>2026-08-27T18:30:51Z</time>
  <course>286.01</course>
  <speed>0.0</speed>
  <fix>3d</fix>
</trkpt>
<trkpt lat="40.0728424" lon="-105.2305754">
  <ele>1586.16</ele>
  <time>2026-08-27T18:30:51Z</time>
  <course>20.88</course>
  <speed>0.022360679774997897</speed>
  <fix>3d</fix>
</trkpt>
<trkpt lat="40.0728425" lon="-105.2305756">
  <ele>1586.09</ele>
  <time>2026-08-27T18:30:51Z</time>
  <course>286.01</course>
  <speed>0.0</speed>
  <fix>3d</fix>
</trkpt>
<trkpt lat="40.0728424" lon="-105.2305754">
  <ele>1586.16</ele>
  <time>2026-08-27T18:30:51Z</time>
  <course>20.87</course>
  <speed>0.022360679774997897</speed>
  <fix>3d</fix>
</trkpt>
<trkpt lat="40.0728425" lon="-105.2305756">
  <ele>1586.09</ele>
  <time>2026-08-27T18:30:51Z</time>
  <course>286.01</course>
  <speed>0.0</speed>
  <fix>3d</fix>
</trkpt>
<trkpt lat="40.0728424" lon="-105.2305754">
  <ele>1586.16</ele>
  <time>2026-08-27T18:30:51Z</time>
  <course>20.87</course>
  <speed>0.022360679774997897</speed>
  <fix>3d</fix>
</trkpt>
<trkpt lat="40.0728425" lon="-105.2305756">
  <ele>1586.09</ele>
  <time>2026-08-27T18:30:51Z</time>
  <course>286.01</course>
  <speed>0.0</speed>
  <fix>3d</fix>
</trkpt>
<trkpt lat="40.0728424" lon="-105.2305754">
  <ele>1586.16</ele>
  <time>2026-08-27T18:30:51Z</time>
  <course>20.87</course>
  <speed>0.022360679774997897</speed>
  <fix>3d</fix>
</trkpt>
<trkpt lat="40.0728425" lon="-105.2305756">
  <ele>1586.09</ele>
  <time>2026-08-27T18:30:51Z</time>
  <course>286.01</course>
  <speed>0.0</speed>
  <fix>3d</fix>
</trkpt>
<trkpt lat="40.0728424" lon="-105.2305754">
  <ele>1586.16</ele>
  <time>2026-08-27T18:30:51Z</time>
  <course>20.87</course>
  <speed>0.022360679774997897</speed>
  <fix>3d</fix>
</trkpt>
<trkpt lat="40.0728425" lon="-105.2305756">
  <ele>1586.09</ele>
  <time>2026-08-27T18:30:51Z</time>
  <course>286.01</course>
  <speed>0.0</speed>
  <fix>3d</fix>
</trkpt>
<trkpt lat="40.0728424" lon="-105.2305754">
  <ele>1586.16</ele>
  <time>2026-08-27T18:30:51Z</time>
  <course>20.87</course>
  <speed>0.022360679774997897</speed>
  <fix>3d</fix>
</trkpt>
<trkpt lat="40.0728425" lon="-105.2305756">
  <ele>1586.09</ele>
  <time>2026-08-27T18:30:51Z</time>
  <course>286.01</course>
  <speed>0.0</speed>
  <fix>3d</fix>
</trkpt>
<trkpt lat="40.0728424" lon="-105.2305754">
  <ele>1586.16</ele>
  <time>2026-08-27T18:30:51Z</time>
  <course>20.87</course>
  <speed>0.022360679774997897</speed>
  <fix>3d</fix>
</trkpt>
<trkpt lat="40.0728425" lon="-105.2305756">
  <ele>1586.09</ele>
  <time>2026-08-27T18:30:51Z</time>
  <course>286.01</course>
  <speed>0.0</speed>
  <fix>3d</fix>
</trkpt>
<trkpt lat="40.0728424" lon="-105.2305754">
  <ele>1586.16</ele>
  <time>2026-08-27T18:30:51Z</time>
  <course>20.87</course>
  <speed>0.022360679774997897</speed>
  <fix>3d</fix>
</trkpt>
<trkpt lat="40.0728425" lon="-105.2305756">
  <ele>1586.09</ele>
  <time>2026-08-27T18:30:51Z</time>
  <course>286.01</course>
  <speed>0.0</speed>
  <fix>3d</fix>
</trkpt>
<trkpt lat="40.0728424" lon="-105.2305754">
  <ele>1586.16</ele>
  <time>2026-08-27T18:30:51Z</time>
  <course>20.87</course>
  <speed>0.022360679774997897</speed>
  <fix>3d</fix>
</trkpt>
<trkpt lat="40.0728425" lon="-105.2305756">
  <ele>1586.09</ele>
  <time>2026-08-27T18:30:51Z</time>
  <course>286.01</course>
  <speed>0.0</speed>
  <fix>3d</fix>
</trkpt>
<trkpt lat="40.0728424" lon="-105.2305754">
  <ele>1586.16</ele>
  <time>2026-08-27T18:30:51Z</time>
  <course>20.87</course>
  <speed>0.022360679774997897</speed>
  <fix>3d</fix>
</trkpt>
<trkpt lat="40.0728425" lon="-105.2305756">
  <ele>1586.09</ele>
  <time>2026-08-27T18:30:51Z</time>
  <course>286.01</course>
  <speed>0.0</speed>
  <fix>3d</fix>
</trkpt>
<trkpt lat="40.0728424" lon="-105.2305754">
  <ele>1586.16</ele>
  <time>2026-08-27T18:30:51Z</time>
  <course>20.87</course>
  <speed>0.022360679774997897</speed>
  <fix>3d</fix>
</trkpt>
<trkpt lat="40.0728425" lon="-105.2305756">
  <ele>1586.09</ele>
  <time>2026-08-27T18:30:51Z</time>
  <course>286.01</course>
  <speed>0.0</speed>
  <fix>3d</fix>
</trkpt>
<trkpt lat="40.0728424" lon="-105.2305754">
  <ele>1586.16</ele>
  <time>2026-08-27T18:30:51Z</time>
  <course>20.86</course>
  <speed>0.022360679774997897</speed>
  <fix>3d</fix>
</trkpt>
<trkpt lat="40.0728425" lon="-105.2305756">
  <ele>1586.09</ele>
  <time>2026-08-27T18:30:51Z</time>
  <course>286.01</course>
  <speed>0.0</speed>
  <fix>3d</fix>
</trkpt>
<trkpt lat="40.0728424" lon="-105.2305754">
  <ele>1586.16</ele>
  <time>2026-08-27T18:30:51Z</time>
  <course>20.86</course>
  <speed>0.022360679774997897</speed>
  <fix>3d</fix>
</trkpt>
<trkpt lat="40.0728425" lon="-105.2305756">
  <ele>1586.09</ele>
  <time>2026-08-27T18:30:51Z</time>
  <course>286.01</course>
  <speed>0.0</speed>
  <fix>3d</fix>
</trkpt>
<trkpt lat="40.0728424" lon="-105.2305754">
  <ele>1586.16</ele>
  <time>2026-08-27T18:30:51Z</time>
  <course>20.86</course>
  <speed>0.022360679774997897</speed>
  <fix>3d</fix>
</trkpt>
<trkpt lat="40.0728425" lon="-105.2305756">
  <ele>1586.09</ele>
  <time>2026-08-27T18:30:51Z</time>
  <course>286.01</course>
  <speed>0.0</speed>
  <fix>3d</fix>
</trkpt>
<trkpt lat="40.0728424" lon="-105.2305754">
  <ele>1586.17</ele>
  <time>2026-08-27T18:30:51Z</time>
  <course>20.86</course>
  <speed>0.022360679774997897</speed>
  <fix>3d</fix>
</trkpt>
<trkpt lat="40.0728425" lon="-105.2305756">
  <ele>1586.09</ele>
  <time>2026-08-27T18:30:51Z</time>
  <course>286.01</course>
  <speed>0.0</speed>
  <fix>3d</fix>
</trkpt>
<trkpt lat="40.0728424" lon="-105.2305754">
  <ele>1586.17</ele>
  <time>2026-08-27T18:30:51Z</time>
  <course>20.86</course>
  <speed>0.022360679774997897</speed>
  <fix>3d</fix>
</trkpt>
<trkpt lat="40.0728425" lon="-105.2305756">
  <ele>1586.09</ele>
  <time>2026-08-27T18:30:51Z</time>
  <course>286.01</course>
  <speed>0.0</speed>
  <fix>3d</fix>
</trkpt>
<trkpt lat="40.0728424" lon="-105.2305754">
  <ele>1586.17</ele>
  <time>2026-08-27T18:30:51Z</time>
  <course>20.86</course>
  <speed>0.022360679774997897</speed>
  <fix>3d</fix>
</trkpt>
<trkpt lat="40.0728425" lon="-105.2305756">
  <ele>1586.09</ele>
  <time>2026-08-27T18:30:51Z</time>
  <course>286.01</course>
  <speed>0.0</speed>
  <fix>3d</fix>
</trkpt>
<trkpt lat="40.0728424" lon="-105.2305754">
  <ele>1586.17</ele>
  <time>2026-08-27T18:30:51Z</time>
  <course>20.86</course>
  <speed>0.022360679774997897</speed>
  <fix>3d</fix>
</trkpt>
<trkpt lat="40.0728425" lon="-105.2305756">
  <ele>1586.09</ele>
  <time>2026-08-27T18:30:51Z</time>
  <course>286.0</course>
  <speed>0.0</speed>
  <fix>3d</fix>
</trkpt>
<trkpt lat="40.0728424" lon="-105.2305754">
  <ele>1586.16</ele>
  <time>2026-08-27T18:30:51Z</time>
  <course>20.86</course>
  <speed>0.022360679774997897</speed>
  <fix>3d</fix>
</trkpt>
<trkpt lat="40.0728425" lon="-105.2305756">
  <ele>1586.09</ele>
  <time>2026-08-27T18:30:51Z</time>
  <course>286.0</course>
  <speed>0.0</speed>
  <fix>3d</fix>
</trkpt>
<trkpt lat="40.0728424" lon="-105.2305754">
  <ele>1586.17</ele>
  <time>2026-08-27T18:30:51Z</time>
  <course>20.86</course>
  <speed>0.022360679774997897</speed>
  <fix>3d</fix>
</trkpt>
<trkpt lat="40.0728425" lon="-105.2305756">
  <ele>1586.09</ele>
  <time>2026-08-27T18:30:51Z</time>
  <course>286.0</course>
  <speed>0.0</speed>
  <fix>3d</fix>
</trkpt>
<trkpt lat="40.0728424" lon="-105.2305754">
  <ele>1586.17</ele>
  <time>2026-08-27T18:30:51Z</time>
  <course>20.86</course>
  <speed>0.022360679774997897</speed>
  <fix>3d</fix>
</trkpt>
<trkpt lat="40.0728425" lon="-105.2305756">
  <ele>1586.09</ele>
  <time>2026-08-27T18:30:51Z</time>
  <course>286.0</course>
  <speed>0.0</speed>
  <fix>3d</fix>
</trkpt>
<trkpt lat="40.0728424" lon="-105.2305754">
  <ele>1586.17</ele>
  <time>2026-08-27T18:30:51Z</time>
  <course>20.86</course>
  <speed>0.022360679774997897</speed>
  <fix>3d</fix>
</trkpt>
<trkpt lat="40.0728425" lon="-105.2305756">
  <ele>1586.09</ele>
  <time>2026-08-27T18:30:51Z</time>
  <course>286.0</course>
  <speed>0.0</speed>
  <fix>3d</fix>
</trkpt>
<trkpt lat="40.0728424" lon="-105.2305754">
  <ele>1586.17</ele>
  <time>2026-08-27T18:30:51Z</time>
  <course>20.85</course>
  <speed>0.022360679774997897</speed>
  <fix>3d</fix>
</trkpt>
<trkpt lat="40.0728425" lon="-105.2305756">
  <ele>1586.09</ele>
  <time>2026-08-27T18:30:51Z</time>
  <course>286.0</course>
  <speed>0.0</speed>
  <fix>3d</fix>
</trkpt>
<trkpt lat="40.0728424" lon="-105.2305754">
  <ele>1586.17</ele>
  <time>2026-08-27T18:30:51Z</time>
  <course>20.85</course>
  <speed>0.022360679774997897</speed>
  <fix>3d</fix>
</trkpt>
<trkpt lat="40.0728425" lon="-105.2305756">
  <ele>1586.09</ele>
  <time>2026-08-27T18:30:51Z</time>
  <course>286.0</course>
  <speed>0.0</speed>
  <fix>3d</fix>
</trkpt>
<trkpt lat="40.0728424" lon="-105.2305754">
  <ele>1586.16</ele>
  <time>2026-08-27T18:30:51Z</time>
  <course>20.85</course>
  <speed>0.022360679774997897</speed>
  <fix>3d</fix>
</trkpt>
<trkpt lat="40.0728425" lon="-105.2305756">
  <ele>1586.09</ele>
  <time>2026-08-27T18:30:51Z</time>
  <course>286.0</course>
  <speed>0.0</speed>
  <fix>3d</fix>
</trkpt>
<trkpt lat="40.0728424" lon="-105.2305754">
  <ele>1586.16</ele>
  <time>2026-08-27T18:30:51Z</time>
  <course>20.85</course>
  <speed>0.022360679774997897</speed>
  <fix>3d</fix>
</trkpt>
<trkpt lat="40.0728425" lon="-105.2305756">
  <ele>1586.09</ele>
  <time>2026-08-27T18:30:51Z</time>
  <course>286.0</course>
  <speed>0.0</speed>
  <fix>3d</fix>
</trkpt>
<trkpt lat="40.0728424" lon="-105.2305754">
  <ele>1586.16</ele>
  <time>2026-08-27T18:30:51Z</time>
  <course>20.85</course>
  <speed>0.022360679774997897</speed>
  <fix>3d</fix>
</trkpt>
<trkpt lat="40.0728425" lon="-105.2305756">
  <ele>1586.09</ele>
  <time>2026-08-27T18:30:51Z</time>
  <course>286.01</course>
  <speed>0.0</speed>
  <fix>3d</fix>
</trkpt>
<trkpt lat="40.0728424" lon="-105.2305754">
  <ele>1586.16</ele>
  <time>2026-08-27T18:30:51Z</time>
  <course>20.85</course>
  <speed>0.022360679774997897</speed>
  <fix>3d</fix>
</trkpt>
<trkpt lat="40.0728425" lon="-105.2305756">
  <ele>1586.09</ele>
  <time>2026-08-27T18:30:51Z</time>
  <course>286.01</course>
  <speed>0.0</speed>
  <fix>3d</fix>
</trkpt>
<trkpt lat="40.0728424" lon="-105.2305754">
  <ele>1586.16</ele>
  <time>2026-08-27T18:30:51Z</time>
  <course>20.86</course>
  <speed>0.022360679774997897</speed>
  <fix>3d</fix>
</trkpt>
<trkpt lat="40.0728425" lon="-105.2305756">
  <ele>1586.09</ele>
  <time>2026-08-27T18:30:51Z</time>
  <course>286.01</course>
  <speed>0.0</speed>
  <fix>3d</fix>
</trkpt>
<trkpt lat="40.0728424" lon="-105.2305754">
  <ele>1586.16</ele>
  <time>2026-08-27T18:30:51Z</time>
  <course>20.91</course>
  <speed>0.022360679774997897</speed>
  <fix>3d</fix>
</trkpt>
<trkpt lat="40.0728425" lon="-105.2305756">
  <ele>1586.09</ele>
  <time>2026-08-27T18:30:51Z</time>
  <course>302.59</course>
  <speed>0.0</speed>
  <fix>3d</fix>
</trkpt>
<trkpt lat="40.0728424" lon="-105.2305754">
  <ele>1586.16</ele>
  <time>2026-08-27T18:30:51Z</time>
  <course>20.98</course>
  <speed>0.022360679774997897</speed>
  <fix>3d</fix>
</trkpt>
<trkpt lat="40.0728425" lon="-105.2305756">
  <ele>1586.09</ele>
  <time>2026-08-27T18:30:51Z</time>
  <course>339.0</course>
  <speed>0.0</speed>
  <fix>3d</fix>
</trkpt>
<trkpt lat="40.0728424" lon="-105.2305754">
  <ele>1586.17</ele>
  <time>2026-08-27T18:30:51Z</time>
  <course>21.05</course>
  <speed>0.022360679774997897</speed>
  <fix>3d</fix>
</trkpt>
<trkpt lat="40.0728425" lon="-105.2305756">
  <ele>1586.09</ele>
  <time>2026-08-27T18:30:51Z</time>
  <course>331.29</course>
  <speed>0.0</speed>
  <fix>3d</fix>
</trkpt>
<trkpt lat="40.0728424" lon="-105.2305754">
  <ele>1586.17</ele>
  <time>2026-08-27T18:30:51Z</time>
  <course>21.11</course>
  <speed>0.022360679774997897</speed>
  <fix>3d</fix>
</trkpt>
<trkpt lat="40.0728425" lon="-105.2305756">
  <ele>1586.09</ele>
  <time>2026-08-27T18:30:51Z</time>
  <course>208.0</course>
  <speed>0.0</speed>
  <fix>3d</fix>
</trkpt>
<trkpt lat="40.0728424" lon="-105.2305754">
  <ele>1586.17</ele>
  <time>2026-08-27T18:30:51Z</time>
  <course>21.17</course>
  <speed>0.022360679774997897</speed>
  <fix>3d</fix>
</trkpt>
<trkpt lat="40.0728425" lon="-105.2305756">
  <ele>1586.09</ele>
  <time>2026-08-27T18:30:51Z</time>
  <course>182.81</course>
  <speed>0.0</speed>
  <fix>3d</fix>
</trkpt>
<trkpt lat="40.0728424" lon="-105.2305754">
  <ele>1586.17</ele>
  <time>2026-08-27T18:30:51Z</time>
  <course>21.24</course>
  <speed>0.022360679774997897</speed>
  <fix>3d</fix>
</trkpt>
<trkpt lat="40.0728425" lon="-105.2305756">
  <ele>1586.09</ele>
  <time>2026-08-27T18:30:51Z</time>
  <course>323.28</course>
  <speed>0.0</speed>
  <fix>3d</fix>
</trkpt>
<trkpt lat="40.0728424" lon="-105.2305754">
  <ele>1586.17</ele>
  <time>2026-08-27T18:30:51Z</time>
  <course>21.3</course>
  <speed>0.022360679774997897</speed>
  <fix>3d</fix>
</trkpt>
<trkpt lat="40.0728425" lon="-105.2305756">
  <ele>1586.09</ele>
  <time>2026-08-27T18:30:51Z</time>
  <course>284.21</course>
  <speed>0.0</speed>
  <fix>3d</fix>
</trkpt>
<trkpt lat="40.0728424" lon="-105.2305754">
  <ele>1586.16</ele>
  <time>2026-08-27T18:30:52Z</time>
  <course>21.36</course>
  <speed>0.01414213562373095</speed>
  <fix>3d</fix>
</trkpt>
<trkpt lat="40.0728425" lon="-105.2305756">
  <ele>1586.09</ele>
  <time>2026-08-27T18:30:52Z</time>
  <course>276.37</course>
  <speed>0.0</speed>
  <fix>3d</fix>
</trkpt>
<trkpt lat="40.0728424" lon="-105.2305754">
  <ele>1586.16</ele>
  <time>2026-08-27T18:30:52Z</time>
  <course>21.43</course>
  <speed>0.01414213562373095</speed>
  <fix>3d</fix>
</trkpt>
<trkpt lat="40.0728425" lon="-105.2305756">
  <ele>1586.09</ele>
  <time>2026-08-27T18:30:52Z</time>
  <course>136.29</course>
  <speed>0.0</speed>
  <fix>3d</fix>
</trkpt>
<trkpt lat="40.0728424" lon="-105.2305754">
  <ele>1586.16</ele>
  <time>2026-08-27T18:30:52Z</time>
  <course>21.49</course>
  <speed>0.01414213562373095</speed>
  <fix>3d</fix>
</trkpt>
<trkpt lat="40.0728425" lon="-105.2305756">
  <ele>1586.09</ele>
  <time>2026-08-27T18:30:52Z</time>
  <course>0.23</course>
  <speed>0.0</speed>
  <fix>3d</fix>
</trkpt>
<trkpt lat="40.0728424" lon="-105.2305754">
  <ele>1586.16</ele>
  <time>2026-08-27T18:30:52Z</time>
  <course>21.55</course>
  <speed>0.01414213562373095</speed>
  <fix>3d</fix>
</trkpt>
<trkpt lat="40.0728425" lon="-105.2305756">
  <ele>1586.09</ele>
  <time>2026-08-27T18:30:52Z</time>
  <course>299.33</course>
  <speed>0.0</speed>
  <fix>3d</fix>
</trkpt>
<trkpt lat="40.0728424" lon="-105.2305754">
  <ele>1586.15</ele>
  <time>2026-08-27T18:30:52Z</time>
  <course>21.61</course>
  <speed>0.01414213562373095</speed>
  <fix>3d</fix>
</trkpt>
<trkpt lat="40.0728425" lon="-105.2305756">
  <ele>1586.09</ele>
  <time>2026-08-27T18:30:52Z</time>
  <course>296.94</course>
  <speed>0.0</speed>
  <fix>3d</fix>
</trkpt>
<trkpt lat="40.0728424" lon="-105.2305754">
  <ele>1586.15</ele>
  <time>2026-08-27T18:30:52Z</time>
  <course>21.67</course>
  <speed>0.01</speed>
  <fix>3d</fix>
</trkpt>
<trkpt lat="40.0728425" lon="-105.2305756">
  <ele>1586.09</ele>
  <time>2026-08-27T18:30:52Z</time>
  <course>301.56</course>
  <speed>0.0</speed>
  <fix>3d</fix>
</trkpt>
<trkpt lat="39.6562421" lon="-104.1365912">
  <ele>1569.6</ele>
  <time>2026-08-27T18:30:53Z</time>
  <course>14.17</course>
  <speed>0.0</speed>
  <fix>3d</fix>
</trkpt>
<trkpt lat="40.072842" lon="-105.230575">
  <ele>1586.09</ele>
  <time>2026-08-27T18:30:53Z</time>
  <course>2.03</course>
  <speed>0.0</speed>
  <fix>3d</fix>
</trkpt>
<trkpt lat="40.072842" lon="-105.230575">
  <ele>1586.09</ele>
  <time>2026-08-27T18:30:53Z</time>
  <course>344.04</course>
  <speed>0.0</speed>
  <fix>3d</fix>
</trkpt>
<trkpt lat="40.072842" lon="-105.230575">
  <ele>1586.09</ele>
  <time>2026-08-27T18:30:53Z</time>
  <course>2.51</course>
  <speed>0.0</speed>
  <fix>3d</fix>
</trkpt>
<trkpt lat="40.072842" lon="-105.230575">
  <ele>1586.09</ele>
  <time>2026-08-27T18:30:53Z</time>
  <course>236.53</course>
  <speed>0.0</speed>
  <fix>3d</fix>
</trkpt>
<trkpt lat="40.072842" lon="-105.230575">
  <ele>1586.09</ele>
  <time>2026-08-27T18:30:53Z</time>
  <course>3.26</course>
  <speed>0.0</speed>
  <fix>3d</fix>
</trkpt>
<trkpt lat="40.072842" lon="-105.230575">
  <ele>1586.09</ele>
  <time>2026-08-27T18:30:53Z</time>
  <course>181.85</course>
  <speed>0.0</speed>
  <fix>3d</fix>
</trkpt>
<trkpt lat="40.072842" lon="-105.230575">
  <ele>1586.09</ele>
  <time>2026-08-27T18:30:53Z</time>
  <course>3.93</course>
  <speed>0.0</speed>
  <fix>3d</fix>
</trkpt>
<trkpt lat="40.072842" lon="-105.230575">
  <ele>1586.09</ele>
  <time>2026-08-27T18:30:53Z</time>
  <course>38.5</course>
  <speed>0.0</speed>
  <fix>3d</fix>
</trkpt>
<trkpt lat="40.072842" lon="-105.230575">
  <ele>1586.09</ele>
  <time>2026-08-27T18:30:53Z</time>
  <course>4.55</course>
  <speed>0.0</speed>
  <fix>3d</fix>
</trkpt>
<trkpt lat="40.072842" lon="-105.230575">
  <ele>1586.09</ele>
  <time>2026-08-27T18:30:53Z</time>
  <course>341.08</course>
  <speed>0.0</speed>
  <fix>3d</fix>
</trkpt>
<trkpt lat="40.072842" lon="-105.230575">
  <ele>1586.09</ele>
  <time>2026-08-27T18:30:53Z</time>
  <course>5.14</course>
  <speed>0.0</speed>
  <fix>3d</fix>
</trkpt>
<trkpt lat="40.072842" lon="-105.230575">
  <ele>1586.09</ele>
  <time>2026-08-27T18:30:53Z</time>
  <course>79.87</course>
  <speed>0.0</speed>
  <fix>3d</fix>
</trkpt>
<trkpt lat="40.072842" lon="-105.230575">
  <ele>1586.09</ele>
  <time>2026-08-27T18:30:53Z</time>
  <course>5.69</course>
  <speed>0.0</speed>
  <fix>3d</fix>
</trkpt>
<trkpt lat="40.072842" lon="-105.230575">
  <ele>1586.09</ele>
  <time>2026-08-27T18:30:53Z</time>
  <course>78.75</course>
  <speed>0.0</speed>
  <fix>3d</fix>
</trkpt>
<trkpt lat="40.072842" lon="-105.230575">
  <ele>1586.09</ele>
  <time>2026-08-27T18:30:53Z</time>
  <course>6.21</course>
  <speed>0.0</speed>
  <fix>3d</fix>
</trkpt>
<trkpt lat="40.072842" lon="-105.230575">
  <ele>1586.09</ele>
  <time>2026-08-27T18:30:53Z</time>
  <course>198.3</course>
  <speed>0.0</speed>
  <fix>3d</fix>
</trkpt>
<trkpt lat="40.072842" lon="-105.230575">
  <ele>1586.09</ele>
  <time>2026-08-27T18:30:53Z</time>
  <course>6.7</course>
  <speed>0.0</speed>
  <fix>3d</fix>
</trkpt>
<trkpt lat="40.072842" lon="-105.230575">
  <ele>1586.09</ele>
  <time>2026-08-27T18:30:53Z</time>
  <course>208.9</course>
  <speed>0.0</speed>
  <fix>3d</fix>
</trkpt>
<trkpt lat="40.072842" lon="-105.230575">
  <ele>1586.09</ele>
  <time>2026-08-27T18:30:53Z</time>
  <course>7.16</course>
  <speed>0.0</speed>
  <fix>3d</fix>
</trkpt>
<trkpt lat="40.072842" lon="-105.230575">
  <ele>1586.09</ele>
  <time>2026-08-27T18:30:53Z</time>
  <course>59.22</course>
  <speed>0.0</speed>
  <fix>3d</fix>
</trkpt>
<trkpt lat="40.072842" lon="-105.230575">
  <ele>1586.09</ele>
  <time>2026-08-27T18:30:53Z</time>
  <course>7.58</course>
  <speed>0.0</speed>
  <fix>3d</fix>
</trkpt>
<trkpt lat="40.072842" lon="-105.230575">
  <ele>1586.09</ele>
  <time>2026-08-27T18:30:53Z</time>
  <course>78.2</course>
  <speed>0.0</speed>
  <fix>3d</fix>
</trkpt>
<trkpt lat="40.072842" lon="-105.230575">
  <ele>1586.09</ele>
  <time>2026-08-27T18:30:53Z</time>
  <course>7.97</course>
  <speed>0.0</speed>
  <fix>3d</fix>
</trkpt>
<trkpt lat="40.072842" lon="-105.230575">
  <ele>1586.09</ele>
  <time>2026-08-27T18:30:53Z</time>
  <course>275.97</course>
  <speed>0.0</speed>
  <fix>3d</fix>
</trkpt>
<trkpt lat="40.072842" lon="-105.230575">
  <ele>1586.09</ele>
  <time>2026-08-27T18:30:53Z</time>
  <course>8.33</course>
  <speed>0.0</speed>
  <fix>3d</fix>
</trkpt>
<trkpt lat="40.072842" lon="-105.230575">
  <ele>1586.09</ele>
  <time>2026-08-27T18:30:53Z</time>
  <course>272.6</course>
  <speed>0.0</speed>
  <fix>3d</fix>
</trkpt>
<trkpt lat="40.072842" lon="-105.230575">
  <ele>1586.09</ele>
  <time>2026-08-27T18:30:53Z</time>
  <course>8.66</course>
  <speed>0.0</speed>
  <fix>3d</fix>
</trkpt>
<trkpt lat="40.072842" lon="-105.230575">
  <ele>1586.09</ele>
  <time>2026-08-27T18:30:53Z</time>
  <course>135.8</course>
  <speed>0.0</speed>
  <fix>3d</fix>
</trkpt>
<trkpt lat="40.072842" lon="-105.230575">
  <ele>1586.09</ele>
  <time>2026-08-27T18:30:53Z</time>
  <course>8.97</course>
  <speed>0.0</speed>
  <fix>3d</fix>
</trkpt>
<trkpt lat="40.072842" lon="-105.230575">
  <ele>1586.09</ele>
  <time>2026-08-27T18:30:53Z</time>
  <course>4.81</course>
  <speed>0.0</speed>
  <fix>3d</fix>
</trkpt>
<trkpt lat="40.072842" lon="-105.230575">
  <ele>1586.09</ele>
  <time>2026-08-27T18:30:53Z</time>
  <course>9.25</course>
  <speed>0.0</speed>
  <fix>3d</fix>
</trkpt>
<trkpt lat="40.072842" lon="-105.230575">
  <ele>1586.09</ele>
  <time>2026-08-27T18:30:53Z</time>
  <course>333.21</course>
  <speed>0.0</speed>
  <fix>3d</fix>
</trkpt>
<trkpt lat="40.072842" lon="-105.230575">
  <ele>1586.09</ele>
  <time>2026-08-27T18:30:53Z</time>
  <course>9.52</course>
  <speed>0.0</speed>
  <fix>3d</fix>
</trkpt>
<trkpt lat="40.072842" lon="-105.230575">
  <ele>1586.09</ele>
  <time>2026-08-27T18:30:53Z</time>
  <course>207.41</course>
  <speed>0.0</speed>
  <fix>3d</fix>
</trkpt>
<trkpt lat="40.072842" lon="-105.230575">
  <ele>1586.09</ele>
  <time>2026-08-27T18:30:53Z</time>
  <course>9.76</course>
  <speed>0.0</speed>
  <fix>3d</fix>
</trkpt>
<trkpt lat="40.072842" lon="-105.230575">
  <ele>1586.09</ele>
  <time>2026-08-27T18:30:53Z</time>
  <course>250.02</course>
  <speed>0.0</speed>
  <fix>3d</fix>
</trkpt>
<trkpt lat="40.072842" lon="-105.230575">
  <ele>1586.09</ele>
  <time>2026-08-27T18:30:53Z</time>
  <course>9.98</course>
  <speed>0.0</speed>
  <fix>3d</fix>
</trkpt>
<trkpt lat="40.072842" lon="-105.230575">
  <ele>1586.09</ele>
  <time>2026-08-27T18:30:53Z</time>
  <course>260.86</course>
  <speed>0.0</speed>
  <fix>3d</fix>
</trkpt>
<trkpt lat="40.072842" lon="-105.230575">
  <ele>1586.09</ele>
  <time>2026-08-27T18:30:53Z</time>
  <course>10.18</course>
  <speed>0.0</speed>
  <fix>3d</fix>
</trkpt>
<trkpt lat="40.072842" lon="-105.230575">
  <ele>1586.09</ele>
  <time>2026-08-27T18:30:53Z</time>
  <course>291.3</course>
  <speed>0.0</speed>
  <fix>3d</fix>
</trkpt>
<trkpt lat="40.072842" lon="-105.230575">
  <ele>1586.09</ele>
  <time>2026-08-27T18:30:53Z</time>
  <course>10.37</course>
  <speed>0.0</speed>
  <fix>3d</fix>
</trkpt>
<trkpt lat="40.072842" lon="-105.230575">
  <ele>1586.09</ele>
  <time>2026-08-27T18:30:53Z</time>
  <course>266.59</course>
  <speed>0.0</speed>
  <fix>3d</fix>
</trkpt>
<trkpt lat="40.072842" lon="-105.230575">
  <ele>1586.09</ele>
  <time>2026-08-27T18:30:53Z</time>
  <course>10.54</course>
  <speed>0.0</speed>
  <fix>3d</fix>
</trkpt>
<trkpt lat="40.072842" lon="-105.230575">
  <ele>1586.09</ele>
  <time>2026-08-27T18:30:53Z</time>
  <course>264.88</course>
  <speed>0.0</speed>
  <fix>3d</fix>
</trkpt>
<trkpt lat="40.072842" lon="-105.230575">
  <ele>1586.09</ele>
  <time>2026-08-27T18:30:53Z</time>
  <course>10.69</course>
  <speed>0.0</speed>
  <fix>3d</fix>
</trkpt>
<trkpt lat="40.072842" lon="-105.230575">
  <ele>1586.09</ele>
  <time>2026-08-27T18:30:53Z</time>
  <course>266.12</course>
  <speed>0.0</speed>
  <fix>3d</fix>
</trkpt>
<trkpt lat="40.072842" lon="-105.230575">
  <ele>1586.09</ele>
  <time>2026-08-27T18:30:53Z</time>
  <course>10.83</course>
  <speed>0.0</speed>
  <fix>3d</fix>
</trkpt>
<trkpt lat="40.072842" lon="-105.230575">
  <ele>1586.09</ele>
  <time>2026-08-27T18:30:53Z</time>
  <course>266.2</course>
  <speed>0.0</speed>
  <fix>3d</fix>
</trkpt>
<trkpt lat="40.072842" lon="-105.230575">
  <ele>1586.09</ele>
  <time>2026-08-27T18:30:53Z</time>
  <course>10.96</course>
  <speed>0.0</speed>
  <fix>3d</fix>
</trkpt>
<trkpt lat="40.072842" lon="-105.230575">
  <ele>1586.09</ele>
  <time>2026-08-27T18:30:53Z</time>
  <course>266.0</course>
  <speed>0.0</speed>
  <fix>3d</fix>
</trkpt>
<trkpt lat="40.072842" lon="-105.230575">
  <ele>1586.09</ele>
  <time>2026-08-27T18:30:53Z</time>
  <course>11.08</course>
  <speed>0.0</speed>
  <fix>3d</fix>
</trkpt>
<trkpt lat="40.072842" lon="-105.230575">
  <ele>1586.09</ele>
  <time>2026-08-27T18:30:53Z</time>
  <course>266.02</course>
  <speed>0.0</speed>
  <fix>3d</fix>
</trkpt>
<trkpt lat="40.072842" lon="-105.230575">
  <ele>1586.09</ele>
  <time>2026-08-27T18:30:53Z</time>
  <course>11.19</course>
  <speed>0.0</speed>
  <fix>3d</fix>
</trkpt>
<trkpt lat="40.072842" lon="-105.230575">
  <ele>1586.09</ele>
  <time>2026-08-27T18:30:53Z</time>
  <course>266.04</course>
  <speed>0.0</speed>
  <fix>3d</fix>
</trkpt>
<trkpt lat="40.072842" lon="-105.230575">
  <ele>1586.09</ele>
  <time>2026-08-27T18:30:53Z</time>
  <course>11.29</course>
  <speed>0.0</speed>
  <fix>3d</fix>
</trkpt>
<trkpt lat="40.072842" lon="-105.230575">
  <ele>1586.09</ele>
  <time>2026-08-27T18:30:53Z</time>
  <course>266.04</course>
  <speed>0.0</speed>
  <fix>3d</fix>
</trkpt>
<trkpt lat="40.072842" lon="-105.230575">
  <ele>1586.09</ele>
  <time>2026-08-27T18:30:53Z</time>
  <course>11.38</course>
  <speed>0.0</speed>
  <fix>3d</fix>
</trkpt>
<trkpt lat="40.072842" lon="-105.230575">
  <ele>1586.09</ele>
  <time>2026-08-27T18:30:53Z</time>
  <course>266.03</course>
  <speed>0.0</speed>
  <fix>3d</fix>
</trkpt>
<trkpt lat="40.072842" lon="-105.230575">
  <ele>1586.09</ele>
  <time>2026-08-27T18:30:53Z</time>
  <course>11.46</course>
  <speed>0.0</speed>
  <fix>3d</fix>
</trkpt>
<trkpt lat="40.072842" lon="-105.230575">
  <ele>1586.09</ele>
  <time>2026-08-27T18:30:53Z</time>
  <course>266.03</course>
  <speed>0.0</speed>
  <fix>3d</fix>
</trkpt>
<trkpt lat="40.072842" lon="-105.230575">
  <ele>1586.09</ele>
  <time>2026-08-27T18:30:53Z</time>
  <course>11.53</course>
  <speed>0.0</speed>
  <fix>3d</fix>
</trkpt>
<trkpt lat="40.072842" lon="-105.230575">
  <ele>1586.09</ele>
  <time>2026-08-27T18:30:53Z</time>
  <course>266.03</course>
  <speed>0.0</speed>
  <fix>3d</fix>
</trkpt>
<trkpt lat="40.072842" lon="-105.230575">
  <ele>1586.09</ele>
  <time>2026-08-27T18:30:53Z</time>
  <course>11.6</course>
  <speed>0.0</speed>
  <fix>3d</fix>
</trkpt>
<trkpt lat="40.072842" lon="-105.230575">
  <ele>1586.09</ele>
  <time>2026-08-27T18:30:53Z</time>
  <course>266.03</course>
  <speed>0.0</speed>
  <fix>3d</fix>
</trkpt>
<trkpt lat="40.072842" lon="-105.230575">
  <ele>1586.09</ele>
  <time>2026-08-27T18:30:53Z</time>
  <course>11.66</course>
  <speed>0.0</speed>
  <fix>3d</fix>
</trkpt>
<trkpt lat="40.072842" lon="-105.230575">
  <ele>1586.09</ele>
  <time>2026-08-27T18:30:53Z</time>
  <course>266.03</course>
  <speed>0.0</speed>
  <fix>3d</fix>
</trkpt>
<trkpt lat="40.072842" lon="-105.230575">
  <ele>1586.09</ele>
  <time>2026-08-27T18:30:53Z</time>
  <course>11.72</course>
  <speed>0.0</speed>
  <fix>3d</fix>
</trkpt>
<trkpt lat="40.072842" lon="-105.230575">
  <ele>1586.09</ele>
  <time>2026-08-27T18:30:53Z</time>
  <course>266.03</course>
  <speed>0.0</speed>
  <fix>3d</fix>
</trkpt>
<trkpt lat="40.072842" lon="-105.230575">
  <ele>1586.09</ele>
  <time>2026-08-27T18:30:53Z</time>
  <course>11.77</course>
  <speed>0.0</speed>
  <fix>3d</fix>
</trkpt>
<trkpt lat="40.072842" lon="-105.230575">
  <ele>1586.09</ele>
  <time>2026-08-27T18:30:53Z</time>
  <course>266.03</course>
  <speed>0.0</speed>
  <fix>3d</fix>
</trkpt>
<trkpt lat="40.072842" lon="-105.230575">
  <ele>1586.09</ele>
  <time>2026-08-27T18:30:53Z</time>
  <course>11.82</course>
  <speed>0.0</speed>
  <fix>3d</fix>
</trkpt>
<trkpt lat="40.072842" lon="-105.230575">
  <ele>1586.09</ele>
  <time>2026-08-27T18:30:53Z</time>
  <course>266.03</course>
  <speed>0.0</speed>
  <fix>3d</fix>
</trkpt>
<trkpt lat="40.072842" lon="-105.230575">
  <ele>1586.09</ele>
  <time>2026-08-27T18:30:53Z</time>
  <course>11.86</course>
  <speed>0.0</speed>
  <fix>3d</fix>
</trkpt>
<trkpt lat="40.072842" lon="-105.230575">
  <ele>1586.09</ele>
  <time>2026-08-27T18:30:53Z</time>
  <course>266.03</course>
  <speed>0.0</speed>
  <fix>3d</fix>
</trkpt>
<trkpt lat="40.072842" lon="-105.230575">
  <ele>1586.09</ele>
  <time>2026-08-27T18:30:53Z</time>
  <course>11.89</course>
  <speed>0.0</speed>
  <fix>3d</fix>
</trkpt>
<trkpt lat="40.072842" lon="-105.230575">
  <ele>1586.09</ele>
  <time>2026-08-27T18:30:53Z</time>
  <course>266.03</course>
  <speed>0.0</speed>
  <fix>3d</fix>
</trkpt>
<trkpt lat="40.072842" lon="-105.230575">
  <ele>1586.09</ele>
  <time>2026-08-27T18:30:53Z</time>
  <course>11.93</course>
  <speed>0.0</speed>
  <fix>3d</fix>
</trkpt>
<trkpt lat="40.072842" lon="-105.230575">
  <ele>1586.09</ele>
  <time>2026-08-27T18:30:53Z</time>
  <course>266.03</course>
  <speed>0.0</speed>
  <fix>3d</fix>
</trkpt>
<trkpt lat="40.072842" lon="-105.230575">
  <ele>1586.09</ele>
  <time>2026-08-27T18:30:53Z</time>
  <course>11.96</course>
  <speed>0.0</speed>
  <fix>3d</fix>
</trkpt>
<trkpt lat="40.072842" lon="-105.230575">
  <ele>1586.09</ele>
  <time>2026-08-27T18:30:53Z</time>
  <course>266.03</course>
  <speed>0.0</speed>
  <fix>3d</fix>
</trkpt>
<trkpt lat="40.072842" lon="-105.230575">
  <ele>1586.09</ele>
  <time>2026-08-27T18:30:53Z</time>
  <course>11.98</course>
  <speed>0.0</speed>
  <fix>3d</fix>
</trkpt>
<trkpt lat="40.072842" lon="-105.230575">
  <ele>1586.09</ele>
  <time>2026-08-27T18:30:53Z</time>
  <course>266.03</course>
  <speed>0.0</speed>
  <fix>3d</fix>
</trkpt>
<trkpt lat="40.072842" lon="-105.230575">
  <ele>1586.09</ele>
  <time>2026-08-27T18:30:53Z</time>
  <course>12.0</course>
  <speed>0.0</speed>
  <fix>3d</fix>
</trkpt>
<trkpt lat="40.072842" lon="-105.230575">
  <ele>1586.09</ele>
  <time>2026-08-27T18:30:53Z</time>
  <course>266.03</course>
  <speed>0.0</speed>
  <fix>3d</fix>
</trkpt>
<trkpt lat="40.072842" lon="-105.230575">
  <ele>1586.09</ele>
  <time>2026-08-27T18:30:53Z</time>
  <course>12.02</course>
  <speed>0.0</speed>
  <fix>3d</fix>
</trkpt>
<trkpt lat="40.072842" lon="-105.230575">
  <ele>1586.09</ele>
  <time>2026-08-27T18:30:53Z</time>
  <course>266.03</course>
  <speed>0.0</speed>
  <fix>3d</fix>
</trkpt>
<trkpt lat="40.072842" lon="-105.230575">
  <ele>1586.09</ele>
  <time>2026-08-27T18:30:53Z</time>
  <course>12.04</course>
  <speed>0.0</speed>
  <fix>3d</fix>
</trkpt>
<trkpt lat="40.072842" lon="-105.230575">
  <ele>1586.09</ele>
  <time>2026-08-27T18:30:53Z</time>
  <course>266.03</course>
  <speed>0.0</speed>
  <fix>3d</fix>
</trkpt>
<trkpt lat="40.072842" lon="-105.230575">
  <ele>1586.09</ele>
  <time>2026-08-27T18:30:53Z</time>
  <course>12.06</course>
  <speed>0.0</speed>
  <fix>3d</fix>
</trkpt>
<trkpt lat="40.072842" lon="-105.230575">
  <ele>1586.09</ele>
  <time>2026-08-27T18:30:53Z</time>
  <course>266.03</course>
  <speed>0.0</speed>
  <fix>3d</fix>
</trkpt>
<trkpt lat="40.072842" lon="-105.230575">
  <ele>1586.09</ele>
  <time>2026-08-27T18:30:53Z</time>
  <course>12.07</course>
  <speed>0.0</speed>
  <fix>3d</fix>
</trkpt>
<trkpt lat="40.072842" lon="-105.230575">
  <ele>1586.09</ele>
  <time>2026-08-27T18:30:53Z</time>
  <course>266.03</course>
  <speed>0.0</speed>
  <fix>3d</fix>
</trkpt>
<trkpt lat="40.072842" lon="-105.230575">
  <ele>1586.09</ele>
  <time>2026-08-27T18:30:53Z</time>
  <course>12.08</course>
  <speed>0.0</speed>
  <fix>3d</fix>
</trkpt>
<trkpt lat="40.072842" lon="-105.230575">
  <ele>1586.09</ele>
  <time>2026-08-27T18:30:53Z</time>
  <course>266.03</course>
  <speed>0.0</speed>
  <fix>3d</fix>
</trkpt>
<trkpt lat="40.072842" lon="-105.230575">
  <ele>1586.09</ele>
  <time>2026-08-27T18:30:53Z</time>
  <course>12.09</course>
  <speed>0.0</speed>
  <fix>3d</fix>
</trkpt>
<trkpt lat="40.072842" lon="-105.230575">
  <ele>1586.09</ele>
  <time>2026-08-27T18:30:53Z</time>
  <course>266.03</course>
  <speed>0.0</speed>
  <fix>3d</fix>
</trkpt>
<trkpt lat="40.072842" lon="-105.230575">
  <ele>1586.09</ele>
  <time>2026-08-27T18:30:53Z</time>
  <course>12.1</course>
  <speed>0.0</speed>
  <fix>3d</fix>
</trkpt>
<trkpt lat="40.072842" lon="-105.230575">
  <ele>1586.09</ele>
  <time>2026-08-27T18:30:53Z</time>
  <course>266.03</course>
  <speed>0.0</speed>
  <fix>3d</fix>
</trkpt>
<trkpt lat="40.072842" lon="-105.230575">
  <ele>1586.09</ele>
  <time>2026-08-27T18:30:53Z</time>
  <course>12.11</course>
  <speed>0.0</speed>
  <fix>3d</fix>
</trkpt>
<trkpt lat="40.072842" lon="-105.230575">
  <ele>1586.09</ele>
  <time>2026-08-27T18:30:53Z</time>
  <course>266.03</course>
  <speed>0.0</speed>
  <fix>3d</fix>
</trkpt>
<trkpt lat="40.072842" lon="-105.230575">
  <ele>1586.09</ele>
  <time>2026-08-27T18:30:53Z</time>
  <course>12.11</course>
  <speed>0.0</speed>
  <fix>3d</fix>
</trkpt>
<trkpt lat="40.072842" lon="-105.230575">
  <ele>1586.09</ele>
  <time>2026-08-27T18:30:53Z</time>
  <course>266.03</course>
  <speed>0.0</speed>
  <fix>3d</fix>
</trkpt>
<trkpt lat="40.072842" lon="-105.230575">
  <ele>1586.09</ele>
  <time>2026-08-27T18:30:53Z</time>
  <course>12.12</course>
  <speed>0.0</speed>
  <fix>3d</fix>
</trkpt>
<trkpt lat="40.072842" lon="-105.230575">
  <ele>1586.09</ele>
  <time>2026-08-27T18:30:53Z</time>
  <course>266.03</course>
  <speed>0.0</speed>
  <fix>3d</fix>
</trkpt>
<trkpt lat="40.072842" lon="-105.230575">
  <ele>1586.09</ele>
  <time>2026-08-27T18:30:53Z</time>
  <course>12.12</course>
  <speed>0.0</speed>
  <fix>3d</fix>
</trkpt>
<trkpt lat="40.072842" lon="-105.230575">
  <ele>1586.09</ele>
  <time>2026-08-27T18:30:53Z</time>
  <course>266.03</course>
  <speed>0.0</speed>
  <fix>3d</fix>
</trkpt>
<trkpt lat="40.072842" lon="-105.230575">
  <ele>1586.09</ele>
  <time>2026-08-27T18:30:53Z</time>
  <course>12.12</course>
  <speed>0.0</speed>
  <fix>3d</fix>
</trkpt>
<trkpt lat="40.072842" lon="-105.230575">
  <ele>1586.09</ele>
  <time>2026-08-27T18:30:53Z</time>
  <course>266.03</course>
  <speed>0.0</speed>
  <fix>3d</fix>
</trkpt>
<trkpt lat="40.072842" lon="-105.230575">
  <ele>1586.09</ele>
  <time>2026-08-27T18:30:53Z</time>
  <course>12.12</course>
  <speed>0.0</speed>
  <fix>3d</fix>
</trkpt>
<trkpt lat="40.072842" lon="-105.230575">
  <ele>1586.09</ele>
  <time>2026-08-27T18:30:53Z</time>
  <course>266.03</course>
  <speed>0.0</speed>
  <fix>3d</fix>
</trkpt>
<trkpt lat="40.072842" lon="-105.230575">
  <ele>1586.09</ele>
  <time>2026-08-27T18:30:53Z</time>
  <course>12.12</course>
  <speed>0.0</speed>
  <fix>3d</fix>
</trkpt>
<trkpt lat="40.072842" lon="-105.230575">
  <ele>1586.09</ele>
  <time>2026-08-27T18:30:53Z</time>
  <course>266.03</course>
  <speed>0.0</speed>
  <fix>3d</fix>
</trkpt>
<trkpt lat="40.072842" lon="-105.230575">
  <ele>1586.09</ele>
  <time>2026-08-27T18:30:53Z</time>
  <course>12.12</course>
  <speed>0.01</speed>
  <fix>3d</fix>
</trkpt>
<trkpt lat="40.072842" lon="-105.230575">
  <ele>1586.09</ele>
  <time>2026-08-27T18:30:53Z</time>
  <course>266.03</course>
  <speed>0.0</speed>
  <fix>3d</fix>
</trkpt>
<trkpt lat="40.072842" lon="-105.230575">
  <ele>1586.09</ele>
  <time>2026-08-27T18:30:53Z</time>
  <course>12.12</course>
  <speed>0.01</speed>
  <fix>3d</fix>
</trkpt>
<trkpt lat="40.072842" lon="-105.230575">
  <ele>1586.09</ele>
  <time>2026-08-27T18:30:53Z</time>
  <course>266.03</course>
  <speed>0.0</speed>
  <fix>3d</fix>
</trkpt>
<trkpt lat="40.072842" lon="-105.230575">
  <ele>1586.09</ele>
  <time>2026-08-27T18:30:53Z</time>
  <course>12.12</course>
  <speed>0.01</speed>
  <fix>3d</fix>
</trkpt>
<trkpt lat="40.072842" lon="-105.230575">
  <ele>1586.09</ele>
  <time>2026-08-27T18:30:53Z</time>
  <course>266.03</course>
  <speed>0.0</speed>
  <fix>3d</fix>
</trkpt>
<trkpt lat="40.072842" lon="-105.230575">
  <ele>1586.09</ele>
  <time>2026-08-27T18:30:53Z</time>
  <course>12.12</course>
  <speed>0.01</speed>
  <fix>3d</fix>
</trkpt>
<trkpt lat="40.072842" lon="-105.230575">
  <ele>1586.09</ele>
  <time>2026-08-27T18:30:53Z</time>
  <course>266.03</course>
  <speed>0.0</speed>
  <fix>3d</fix>
</trkpt>
<trkpt lat="40.072842" lon="-105.230575">
  <ele>1586.09</ele>
  <time>2026-08-27T18:30:53Z</time>
  <course>12.11</course>
  <speed>0.01</speed>
  <fix>3d</fix>
</trkpt>
<trkpt lat="40.072842" lon="-105.230575">
  <ele>1586.09</ele>
  <time>2026-08-27T18:30:53Z</time>
  <course>266.03</course>
  <speed>0.0</speed>
  <fix>3d</fix>
</trkpt>
<trkpt lat="40.072842" lon="-105.230575">
  <ele>1586.09</ele>
  <time>2026-08-27T18:30:53Z</time>
  <course>12.11</course>
  <speed>0.01</speed>
  <fix>3d</fix>
</trkpt>
<trkpt lat="40.072842" lon="-105.230575">
  <ele>1586.09</ele>
  <time>2026-08-27T18:30:53Z</time>
  <course>266.03</course>
  <speed>0.0</speed>
  <fix>3d</fix>
</trkpt>
<trkpt lat="40.072842" lon="-105.230575">
  <ele>1586.09</ele>
  <time>2026-08-27T18:30:53Z</time>
  <course>12.11</course>
  <speed>0.01</speed>
  <fix>3d</fix>
</trkpt>
<trkpt lat="40.072842" lon="-105.230575">
  <ele>1586.09</ele>
  <time>2026-08-27T18:30:53Z</time>
  <course>266.03</course>
  <speed>0.0</speed>
  <fix>3d</fix>
</trkpt>
<trkpt lat="40.072842" lon="-105.230575">
  <ele>1586.09</ele>
  <time>2026-08-27T18:30:53Z</time>
  <course>12.1</course>
  <speed>0.01</speed>
  <fix>3d</fix>
</trkpt>
<trkpt lat="40.072842" lon="-105.230575">
  <ele>1586.09</ele>
  <time>2026-08-27T18:30:53Z</time>
  <course>266.03</course>
  <speed>0.0</speed>
  <fix>3d</fix>
</trkpt>
<trkpt lat="40.072842" lon="-105.230575">
  <ele>1586.09</ele>
  <time>2026-08-27T18:30:53Z</time>
  <course>12.1</course>
  <speed>0.01</speed>
  <fix>3d</fix>
</trkpt>
<trkpt lat="40.072842" lon="-105.230575">
  <ele>1586.09</ele>
  <time>2026-08-27T18:30:53Z</time>
  <course>266.03</course>
  <speed>0.0</speed>
  <fix>3d</fix>
</trkpt>
<trkpt lat="40.072842" lon="-105.230575">
  <ele>1586.09</ele>
  <time>2026-08-27T18:30:53Z</time>
  <course>12.09</course>
  <speed>0.01</speed>
  <fix>3d</fix>
</trkpt>
<trkpt lat="40.072842" lon="-105.230575">
  <ele>1586.09</ele>
  <time>2026-08-27T18:30:53Z</time>
  <course>266.03</course>
  <speed>0.0</speed>
  <fix>3d</fix>
</trkpt>
<trkpt lat="40.072842" lon="-105.230575">
  <ele>1586.09</ele>
  <time>2026-08-27T18:30:53Z</time>
  <course>12.09</course>
  <speed>0.01</speed>
  <fix>3d</fix>
</trkpt>
<trkpt lat="40.072842" lon="-105.230575">
  <ele>1586.09</ele>
  <time>2026-08-27T18:30:53Z</time>
  <course>266.03</course>
  <speed>0.0</speed>
  <fix>3d</fix>
</trkpt>
<trkpt lat="40.072842" lon="-105.230575">
  <ele>1586.09</ele>
  <time>2026-08-27T18:30:53Z</time>
  <course>12.08</course>
  <speed>0.01414213562373095</speed>
  <fix>3d</fix>
</trkpt>
<trkpt lat="40.072842" lon="-105.230575">
  <ele>1586.09</ele>
  <time>2026-08-27T18:30:53Z</time>
  <course>266.03</course>
  <speed>0.0</speed>
  <fix>3d</fix>
</trkpt>
<trkpt lat="40.072842" lon="-105.230575">
  <ele>1586.09</ele>
  <time>2026-08-27T18:30:53Z</time>
  <course>12.07</course>
  <speed>0.01414213562373095</speed>
  <fix>3d</fix>
</trkpt>
<trkpt lat="40.072842" lon="-105.230575">
  <ele>1586.09</ele>
  <time>2026-08-27T18:30:53Z</time>
  <course>266.03</course>
  <speed>0.0</speed>
  <fix>3d</fix>
</trkpt>
<trkpt lat="40.072842" lon="-105.230575">
  <ele>1586.09</ele>
  <time>2026-08-27T18:30:53Z</time>
  <course>12.07</course>
  <speed>0.01414213562373095</speed>
  <fix>3d</fix>
</trkpt>
<trkpt lat="40.072842" lon="-105.230575">
  <ele>1586.09</ele>
  <time>2026-08-27T18:30:53Z</time>
  <course>266.03</course>
  <speed>0.0</speed>
  <fix>3d</fix>
</trkpt>
<trkpt lat="40.072842" lon="-105.230575">
  <ele>1586.09</ele>
  <time>2026-08-27T18:30:53Z</time>
  <course>12.06</course>
  <speed>0.01414213562373095</speed>
  <fix>3d</fix>
</trkpt>
<trkpt lat="40.072842" lon="-105.230575">
  <ele>1586.09</ele>
  <time>2026-08-27T18:30:53Z</time>
  <course>266.03</course>
  <speed>0.0</speed>
  <fix>3d</fix>
</trkpt>
<trkpt lat="40.072842" lon="-105.230575">
  <ele>1586.09</ele>
  <time>2026-08-27T18:30:53Z</time>
  <course>12.05</course>
  <speed>0.01414213562373095</speed>
  <fix>3d</fix>
</trkpt>
<trkpt lat="40.072842" lon="-105.230575">
  <ele>1586.09</ele>
  <time>2026-08-27T18:30:53Z</time>
  <course>266.03</course>
  <speed>0.0</speed>
  <fix>3d</fix>
</trkpt>
<trkpt lat="40.072842" lon="-105.230575">
  <ele>1586.09</ele>
  <time>2026-08-27T18:30:53Z</time>
  <course>12.05</course>
  <speed>0.01414213562373095</speed>
  <fix>3d</fix>
</trkpt>
<trkpt lat="40.072842" lon="-105.230575">
  <ele>1586.09</ele>
  <time>2026-08-27T18:30:53Z</time>
  <course>266.03</course>
  <speed>0.0</speed>
  <fix>3d</fix>
</trkpt>
<trkpt lat="40.072842" lon="-105.230575">
  <ele>1586.09</ele>
  <time>2026-08-27T18:30:53Z</time>
  <course>12.04</course>
  <speed>0.01414213562373095</speed>
  <fix>3d</fix>
</trkpt>
<trkpt lat="40.072842" lon="-105.230575">
  <ele>1586.09</ele>
  <time>2026-08-27T18:30:53Z</time>
  <course>266.03</course>
  <speed>0.0</speed>
  <fix>3d</fix>
</trkpt>
<trkpt lat="40.072842" lon="-105.230575">
  <ele>1586.09</ele>
  <time>2026-08-27T18:30:53Z</time>
  <course>12.03</course>
  <speed>0.01414213562373095</speed>
  <fix>3d</fix>
</trkpt>
<trkpt lat="40.072842" lon="-105.230575">
  <ele>1586.09</ele>
  <time>2026-08-27T18:30:53Z</time>
  <course>266.03</course>
  <speed>0.0</speed>
  <fix>3d</fix>
</trkpt>
<trkpt lat="40.072842" lon="-105.230575">
  <ele>1586.09</ele>
  <time>2026-08-27T18:30:53Z</time>
  <course>12.03</course>
  <speed>0.01414213562373095</speed>
  <fix>3d</fix>
</trkpt>
<trkpt lat="40.072842" lon="-105.230575">
  <ele>1586.09</ele>
  <time>2026-08-27T18:30:53Z</time>
  <course>266.03</course>
  <speed>0.0</speed>
  <fix>3d</fix>
</trkpt>
<trkpt lat="40.072842" lon="-105.230575">
  <ele>1586.09</ele>
  <time>2026-08-27T18:30:53Z</time>
  <course>12.02</course>
  <speed>0.01414213562373095</speed>
  <fix>3d</fix>
</trkpt>
<trkpt lat="40.072842" lon="-105.230575">
  <ele>1586.09</ele>
  <time>2026-08-27T18:30:53Z</time>
  <course>266.03</course>
  <speed>0.0</speed>
  <fix>3d</fix>
</trkpt>
<trkpt lat="40.072842" lon="-105.230575">
  <ele>1586.09</ele>
  <time>2026-08-27T18:30:53Z</time>
  <course>12.01</course>
  <speed>0.01414213562373095</speed>
  <fix>3d</fix>
</trkpt>
<trkpt lat="40.072842" lon="-105.230575">
  <ele>1586.09</ele>
  <time>2026-08-27T18:30:53Z</time>
  <course>266.03</course>
  <speed>0.0</speed>
  <fix>3d</fix>
</trkpt>
<trkpt lat="40.072842" lon="-105.230575">
  <ele>1586.09</ele>
  <time>2026-08-27T18:30:53Z</time>
  <course>12.0</course>
  <speed>0.01414213562373095</speed>
  <fix>3d</fix>
</trkpt>
<trkpt lat="40.072842" lon="-105.230575">
  <ele>1586.09</ele>
  <time>2026-08-27T18:30:53Z</time>
  <course>266.03</course>
  <speed>0.0</speed>
  <fix>3d</fix>
</trkpt>
<trkpt lat="40.072842" lon="-105.230575">
  <ele>1586.09</ele>
  <time>2026-08-27T18:30:53Z</time>
  <course>11.99</course>
  <speed>0.01414213562373095</speed>
  <fix>3d</fix>
</trkpt>
<trkpt lat="40.072842" lon="-105.230575">
  <ele>1586.09</ele>
  <time>2026-08-27T18:30:53Z</time>
  <course>266.03</course>
  <speed>0.0</speed>
  <fix>3d</fix>
</trkpt>
<trkpt lat="40.072842" lon="-105.230575">
  <ele>1586.09</ele>
  <time>2026-08-27T18:30:53Z</time>
  <course>11.99</course>
  <speed>0.01414213562373095</speed>
  <fix>3d</fix>
</trkpt>
<trkpt lat="40.072842" lon="-105.230575">
  <ele>1586.09</ele>
  <time>2026-08-27T18:30:53Z</time>
  <course>266.03</course>
  <speed>0.0</speed>
  <fix>3d</fix>
</trkpt>
<trkpt lat="40.072842" lon="-105.230575">
  <ele>1586.09</ele>
  <time>2026-08-27T18:30:53Z</time>
  <course>11.98</course>
  <speed>0.01414213562373095</speed>
  <fix>3d</fix>
</trkpt>
<trkpt lat="40.072842" lon="-105.230575">
  <ele>1586.09</ele>
  <time>2026-08-27T18:30:53Z</time>
  <course>266.03</course>
  <speed>0.0</speed>
  <fix>3d</fix>
</trkpt>
<trkpt lat="40.072842" lon="-105.230575">
  <ele>1586.09</ele>
  <time>2026-08-27T18:30:53Z</time>
  <course>11.97</course>
  <speed>0.01414213562373095</speed>
  <fix>3d</fix>
</trkpt>
<trkpt lat="40.072842" lon="-105.230575">
  <ele>1586.09</ele>
  <time>2026-08-27T18:30:53Z</time>
  <course>266.03</course>
  <speed>0.0</speed>
  <fix>3d</fix>
</trkpt>
<trkpt lat="40.072842" lon="-105.230575">
  <ele>1586.09</ele>
  <time>2026-08-27T18:30:53Z</time>
  <course>11.96</course>
  <speed>0.022360679774997897</speed>
  <fix>3d</fix>
</trkpt>
<trkpt lat="40.072842" lon="-105.230575">
  <ele>1586.09</ele>
  <time>2026-08-27T18:30:53Z</time>
  <course>266.03</course>
  <speed>0.0</speed>
  <fix>3d</fix>
</trkpt>
<trkpt lat="40.072842" lon="-105.230575">
  <ele>1586.09</ele>
  <time>2026-08-27T18:30:53Z</time>
  <course>11.95</course>
  <speed>0.022360679774997897</speed>
  <fix>3d</fix>
</trkpt>
<trkpt lat="40.072842" lon="-105.230575">
  <ele>1586.09</ele>
  <time>2026-08-27T18:30:53Z</time>
  <course>266.03</course>
  <speed>0.0</speed>
  <fix>3d</fix>
</trkpt>
<trkpt lat="40.072842" lon="-105.230575">
  <ele>1586.09</ele>
  <time>2026-08-27T18:30:53Z</time>
  <course>11.95</course>
  <speed>0.022360679774997897</speed>
  <fix>3d</fix>
</trkpt>
<trkpt lat="40.072842" lon="-105.230575">
  <ele>1586.09</ele>
  <time>2026-08-27T18:30:53Z</time>
  <course>266.03</course>
  <speed>0.0</speed>
  <fix>3d</fix>
</trkpt>
<trkpt lat="40.072842" lon="-105.230575">
  <ele>1586.09</ele>
  <time>2026-08-27T18:30:53Z</time>
  <course>11.94</course>
  <speed>0.022360679774997897</speed>
  <fix>3d</fix>
</trkpt>
<trkpt lat="40.072842" lon="-105.230575">
  <ele>1586.09</ele>
  <time>2026-08-27T18:30:53Z</time>
  <course>266.03</course>
  <speed>0.0</speed>
  <fix>3d</fix>
</trkpt>
<trkpt lat="40.072842" lon="-105.230575">
  <ele>1586.09</ele>
  <time>2026-08-27T18:30:53Z</time>
  <course>11.93</course>
  <speed>0.022360679774997897</speed>
  <fix>3d</fix>
</trkpt>
<trkpt lat="40.072842" lon="-105.230575">
  <ele>1586.09</ele>
  <time>2026-08-27T18:30:53Z</time>
  <course>266.03</course>
  <speed>0.0</speed>
  <fix>3d</fix>
</trkpt>
<trkpt lat="40.072842" lon="-105.230575">
  <ele>1586.09</ele>
  <time>2026-08-27T18:30:53Z</time>
  <course>11.92</course>
  <speed>0.022360679774997897</speed>
  <fix>3d</fix>
</trkpt>
<trkpt lat="40.072842" lon="-105.230575">
  <ele>1586.09</ele>
  <time>2026-08-27T18:30:53Z</time>
  <course>266.03</course>
  <speed>0.0</speed>
  <fix>3d</fix>
</trkpt>
<trkpt lat="40.072842" lon="-105.230575">
  <ele>1586.09</ele>
  <time>2026-08-27T18:30:53Z</time>
  <course>11.91</course>
  <speed>0.022360679774997897</speed>
  <fix>3d</fix>
</trkpt>
<trkpt lat="40.072842" lon="-105.230575">
  <ele>1586.09</ele>
  <time>2026-08-27T18:30:53Z</time>
  <course>266.03</course>
  <speed>0.0</speed>
  <fix>3d</fix>
</trkpt>
<trkpt lat="40.072842" lon="-105.230575">
  <ele>1586.09</ele>
  <time>2026-08-27T18:30:53Z</time>
  <course>11.91</course>
  <speed>0.022360679774997897</speed>
  <fix>3d</fix>
</trkpt>
<trkpt lat="40.072842" lon="-105.230575">
  <ele>1586.09</ele>
  <time>2026-08-27T18:30:53Z</time>
  <course>266.03</course>
  <speed>0.0</speed>
  <fix>3d</fix>
</trkpt>
<trkpt lat="40.072842" lon="-105.230575">
  <ele>1586.09</ele>
  <time>2026-08-27T18:30:53Z</time>
  <course>11.9</course>
  <speed>0.022360679774997897</speed>
  <fix>3d</fix>
</trkpt>
<trkpt lat="40.072842" lon="-105.230575">
  <ele>1586.09</ele>
  <time>2026-08-27T18:30:53Z</time>
  <course>266.03</course>
  <speed>0.0</speed>
  <fix>3d</fix>
</trkpt>
<trkpt lat="40.072842" lon="-105.230575">
  <ele>1586.09</ele>
  <time>2026-08-27T18:30:53Z</time>
  <course>11.89</course>
  <speed>0.022360679774997897</speed>
  <fix>3d</fix>
</trkpt>
<trkpt lat="40.072842" lon="-105.230575">
  <ele>1586.09</ele>
  <time>2026-08-27T18:30:53Z</time>
  <course>266.03</course>
  <speed>0.0</speed>
  <fix>3d</fix>
</trkpt>
<trkpt lat="40.072842" lon="-105.230575">
  <ele>1586.09</ele>
  <time>2026-08-27T18:30:53Z</time>
  <course>11.88</course>
  <speed>0.022360679774997897</speed>
  <fix>3d</fix>
</trkpt>
<trkpt lat="40.072842" lon="-105.230575">
  <ele>1586.09</ele>
  <time>2026-08-27T18:30:53Z</time>
  <course>266.03</course>
  <speed>0.0</speed>
  <fix>3d</fix>
</trkpt>
<trkpt lat="40.072842" lon="-105.230575">
  <ele>1586.09</ele>
  <time>2026-08-27T18:30:53Z</time>
  <course>11.87</course>
  <speed>0.022360679774997897</speed>
  <fix>3d</fix>
</trkpt>
<trkpt lat="40.072842" lon="-105.230575">
  <ele>1586.09</ele>
  <time>2026-08-27T18:30:53Z</time>
  <course>266.03</course>
  <speed>0.0</speed>
  <fix>3d</fix>
</trkpt>
<trkpt lat="40.072842" lon="-105.230575">
  <ele>1586.09</ele>
  <time>2026-08-27T18:30:53Z</time>
  <course>11.86</course>
  <speed>0.022360679774997897</speed>
  <fix>3d</fix>
</trkpt>
<trkpt lat="40.072842" lon="-105.230575">
  <ele>1586.09</ele>
  <time>2026-08-27T18:30:53Z</time>
  <course>266.03</course>
  <speed>0.0</speed>
  <fix>3d</fix>
</trkpt>
<trkpt lat="40.072842" lon="-105.230575">
  <ele>1586.09</ele>
  <time>2026-08-27T18:30:53Z</time>
  <course>11.86</course>
  <speed>0.022360679774997897</speed>
  <fix>3d</fix>
</trkpt>
<trkpt lat="40.072842" lon="-105.230575">
  <ele>1586.09</ele>
  <time>2026-08-27T18:30:53Z</time>
  <course>266.03</course>
  <speed>0.0</speed>
  <fix>3d</fix>
</trkpt>
<trkpt lat="40.072842" lon="-105.230575">
  <ele>1586.09</ele>
  <time>2026-08-27T18:30:53Z</time>
  <course>11.85</course>
  <speed>0.022360679774997897</speed>
  <fix>3d</fix>
</trkpt>
<trkpt lat="40.072842" lon="-105.230575">
  <ele>1586.09</ele>
  <time>2026-08-27T18:30:53Z</time>
  <course>266.03</course>
  <speed>0.0</speed>
  <fix>3d</fix>
</trkpt>
<trkpt lat="40.072842" lon="-105.230575">
  <ele>1586.09</ele>
  <time>2026-08-27T18:30:53Z</time>
  <course>11.84</course>
  <speed>0.022360679774997897</speed>
  <fix>3d</fix>
</trkpt>
<trkpt lat="40.072842" lon="-105.230575">
  <ele>1586.09</ele>
  <time>2026-08-27T18:30:53Z</time>
  <course>266.03</course>
  <speed>0.0</speed>
  <fix>3d</fix>
</trkpt>
<trkpt lat="40.072842" lon="-105.230575">
  <ele>1586.09</ele>
  <time>2026-08-27T18:30:53Z</time>
  <course>11.83</course>
  <speed>0.022360679774997897</speed>
  <fix>3d</fix>
</trkpt>
<trkpt lat="40.072842" lon="-105.230575">
  <ele>1586.09</ele>
  <time>2026-08-27T18:30:53Z</time>
  <course>266.03</course>
  <speed>0.0</speed>
  <fix>3d</fix>
</trkpt>
<trkpt lat="40.072842" lon="-105.230575">
  <ele>1586.09</ele>
  <time>2026-08-27T18:30:53Z</time>
  <course>11.82</course>
  <speed>0.0282842712474619</speed>
  <fix>3d</fix>
</trkpt>
<trkpt lat="40.072842" lon="-105.230575">
  <ele>1586.09</ele>
  <time>2026-08-27T18:30:53Z</time>
  <course>266.03</course>
  <speed>0.0</speed>
  <fix>3d</fix>
</trkpt>
<trkpt lat="40.072842" lon="-105.230575">
  <ele>1586.09</ele>
  <time>2026-08-27T18:30:53Z</time>
  <course>11.82</course>
  <speed>0.0282842712474619</speed>
  <fix>3d</fix>
</trkpt>
<trkpt lat="40.072842" lon="-105.230575">
  <ele>1586.09</ele>
  <time>2026-08-27T18:30:53Z</time>
  <course>266.03</course>
  <speed>0.0</speed>
  <fix>3d</fix>
</trkpt>
<trkpt lat="40.072842" lon="-105.230575">
  <ele>1586.09</ele>
  <time>2026-08-27T18:30:54Z</time>
  <course>11.81</course>
  <speed>0.0282842712474619</speed>
  <fix>3d</fix>
</trkpt>
<trkpt lat="40.072842" lon="-105.230575">
  <ele>1586.09</ele>
  <time>2026-08-27T18:30:54Z</time>
  <course>266.03</course>
  <speed>0.0</speed>
  <fix>3d</fix>
</trkpt>
<trkpt lat="40.072842" lon="-105.230575">
  <ele>1586.09</ele>
  <time>2026-08-27T18:30:54Z</time>
  <course>11.8</course>
  <speed>0.0282842712474619</speed>
  <fix>3d</fix>
</trkpt>
<trkpt lat="40.072842" lon="-105.230575">
  <ele>1586.09</ele>
  <time>2026-08-27T18:30:54Z</time>
  <course>266.03</course>
  <speed>0.0</speed>
  <fix>3d</fix>
</trkpt>
<trkpt lat="40.072842" lon="-105.230575">
  <ele>1586.09</ele>
  <time>2026-08-27T18:30:54Z</time>
  <course>11.79</course>
  <speed>0.0282842712474619</speed>
  <fix>3d</fix>
</trkpt>
<trkpt lat="40.072842" lon="-105.230575">
  <ele>1586.09</ele>
  <time>2026-08-27T18:30:54Z</time>
  <course>266.03</course>
  <speed>0.0</speed>
  <fix>3d</fix>
</trkpt>
<trkpt lat="40.072842" lon="-105.230575">
  <ele>1586.09</ele>
  <time>2026-08-27T18:30:54Z</time>
  <course>11.78</course>
  <speed>0.0282842712474619</speed>
  <fix>3d</fix>
</trkpt>
<trkpt lat="40.072842" lon="-105.230575">
  <ele>1586.09</ele>
  <time>2026-08-27T18:30:54Z</time>
  <course>266.03</course>
  <speed>0.0</speed>
  <fix>3d</fix>
</trkpt>
<trkpt lat="40.072842" lon="-105.230575">
  <ele>1586.09</ele>
  <time>2026-08-27T18:30:54Z</time>
  <course>11.78</course>
  <speed>0.0282842712474619</speed>
  <fix>3d</fix>
</trkpt>
<trkpt lat="40.072842" lon="-105.230575">
  <ele>1586.09</ele>
  <time>2026-08-27T18:30:54Z</time>
  <course>266.03</course>
  <speed>0.0</speed>
  <fix>3d</fix>
</trkpt>
<trkpt lat="40.072842" lon="-105.230575">
  <ele>1586.09</ele>
  <time>2026-08-27T18:30:54Z</time>
  <course>11.77</course>
  <speed>0.0282842712474619</speed>
  <fix>3d</fix>
</trkpt>
<trkpt lat="40.072842" lon="-105.230575">
  <ele>1586.09</ele>
  <time>2026-08-27T18:30:54Z</time>
  <course>266.03</course>
  <speed>0.0</speed>
  <fix>3d</fix>
</trkpt>
<trkpt lat="40.072842" lon="-105.230575">
  <ele>1586.09</ele>
  <time>2026-08-27T18:30:54Z</time>
  <course>11.76</course>
  <speed>0.0282842712474619</speed>
  <fix>3d</fix>
</trkpt>
<trkpt lat="40.072842" lon="-105.230575">
  <ele>1586.09</ele>
  <time>2026-08-27T18:30:54Z</time>
  <course>266.03</course>
  <speed>0.0</speed>
  <fix>3d</fix>
</trkpt>
<trkpt lat="40.072842" lon="-105.230575">
  <ele>1586.09</ele>
  <time>2026-08-27T18:30:54Z</time>
  <course>11.76</course>
  <speed>0.0282842712474619</speed>
  <fix>3d</fix>
</trkpt>
<trkpt lat="40.072842" lon="-105.230575">
  <ele>1586.09</ele>
  <time>2026-08-27T18:30:54Z</time>
  <course>266.03</course>
  <speed>0.0</speed>
  <fix>3d</fix>
</trkpt>
<trkpt lat="40.072842" lon="-105.230575">
  <ele>1586.09</ele>
  <time>2026-08-27T18:30:54Z</time>
  <course>11.75</course>
  <speed>0.0282842712474619</speed>
  <fix>3d</fix>
</trkpt>
<trkpt lat="40.072842" lon="-105.230575">
  <ele>1586.09</ele>
  <time>2026-08-27T18:30:54Z</time>
  <course>266.03</course>
  <speed>0.0</speed>
  <fix>3d</fix>
</trkpt>
<trkpt lat="40.072842" lon="-105.230575">
  <ele>1586.09</ele>
  <time>2026-08-27T18:30:54Z</time>
  <course>11.74</course>
  <speed>0.03605551275463989</speed>
  <fix>3d</fix>
</trkpt>
<trkpt lat="40.072842" lon="-105.230575">
  <ele>1586.09</ele>
  <time>2026-08-27T18:30:54Z</time>
  <course>266.03</course>
  <speed>0.0</speed>
  <fix>3d</fix>
</trkpt>
<trkpt lat="40.072842" lon="-105.230575">
  <ele>1586.09</ele>
  <time>2026-08-27T18:30:54Z</time>
  <course>11.73</course>
  <speed>0.03605551275463989</speed>
  <fix>3d</fix>
</trkpt>
<trkpt lat="40.072842" lon="-105.230575">
  <ele>1586.09</ele>
  <time>2026-08-27T18:30:54Z</time>
  <course>266.03</course>
  <speed>0.0</speed>
  <fix>3d</fix>
</trkpt>
<trkpt lat="40.072842" lon="-105.230575">
  <ele>1586.09</ele>
  <time>2026-08-27T18:30:54Z</time>
  <course>11.73</course>
  <speed>0.03605551275463989</speed>
  <fix>3d</fix>
</trkpt>
<trkpt lat="40.072842" lon="-105.230575">
  <ele>1586.09</ele>
  <time>2026-08-27T18:30:54Z</time>
  <course>266.03</course>
  <speed>0.0</speed>
  <fix>3d</fix>
</trkpt>
<trkpt lat="40.072842" lon="-105.230575">
  <ele>1586.09</ele>
  <time>2026-08-27T18:30:54Z</time>
  <course>11.72</course>
  <speed>0.03605551275463989</speed>
  <fix>3d</fix>
</trkpt>
<trkpt lat="40.072842" lon="-105.230575">
  <ele>1586.09</ele>
  <time>2026-08-27T18:30:54Z</time>
  <course>266.03</course>
  <speed>0.0</speed>
  <fix>3d</fix>
</trkpt>
<trkpt lat="40.072842" lon="-105.230575">
  <ele>1586.09</ele>
  <time>2026-08-27T18:30:54Z</time>
  <course>11.71</course>
  <speed>0.03605551275463989</speed>
  <fix>3d</fix>
</trkpt>
<trkpt lat="40.072842" lon="-105.230575">
  <ele>1586.09</ele>
  <time>2026-08-27T18:30:54Z</time>
  <course>266.03</course>
  <speed>0.0</speed>
  <fix>3d</fix>
</trkpt>
<trkpt lat="40.072842" lon="-105.230575">
  <ele>1586.09</ele>
  <time>2026-08-27T18:30:54Z</time>
  <course>11.7</course>
  <speed>0.03605551275463989</speed>
  <fix>3d</fix>
</trkpt>
<trkpt lat="40.072842" lon="-105.230575">
  <ele>1586.09</ele>
  <time>2026-08-27T18:30:54Z</time>
  <course>266.03</course>
  <speed>0.0</speed>
  <fix>3d</fix>
</trkpt>
<trkpt lat="40.072842" lon="-105.230575">
  <ele>1586.09</ele>
  <time>2026-08-27T18:30:54Z</time>
  <course>11.69</course>
  <speed>0.03605551275463989</speed>
  <fix>3d</fix>
</trkpt>
<trkpt lat="40.072842" lon="-105.230575">
  <ele>1586.09</ele>
  <time>2026-08-27T18:30:54Z</time>
  <course>266.03</course>
  <speed>0.0</speed>
  <fix>3d</fix>
</trkpt>
<trkpt lat="40.072842" lon="-105.230575">
  <ele>1586.09</ele>
  <time>2026-08-27T18:30:54Z</time>
  <course>11.69</course>
  <speed>0.03605551275463989</speed>
  <fix>3d</fix>
</trkpt>
<trkpt lat="40.072842" lon="-105.230575">
  <ele>1586.09</ele>
  <time>2026-08-27T18:30:54Z</time>
  <course>266.03</course>
  <speed>0.0</speed>
  <fix>3d</fix>
</trkpt>
<trkpt lat="40.072842" lon="-105.230575">
  <ele>1586.09</ele>
  <time>2026-08-27T18:30:54Z</time>
  <course>11.68</course>
  <speed>0.03605551275463989</speed>
  <fix>3d</fix>
</trkpt>
<trkpt lat="40.072842" lon="-105.230575">
  <ele>1586.09</ele>
  <time>2026-08-27T18:30:54Z</time>
  <course>266.03</course>
  <speed>0.0</speed>
  <fix>3d</fix>
</trkpt>
<trkpt lat="40.072842" lon="-105.230575">
  <ele>1586.09</ele>
  <time>2026-08-27T18:30:54Z</time>
  <course>11.67</course>
  <speed>0.03605551275463989</speed>
  <fix>3d</fix>
</trkpt>
<trkpt lat="40.072842" lon="-105.230575">
  <ele>1586.09</ele>
  <time>2026-08-27T18:30:54Z</time>
  <course>266.03</course>
  <speed>0.0</speed>
  <fix>3d</fix>
</trkpt>
<trkpt lat="40.072842" lon="-105.230575">
  <ele>1586.09</ele>
  <time>2026-08-27T18:30:54Z</time>
  <course>11.67</course>
  <speed>0.03605551275463989</speed>
  <fix>3d</fix>
</trkpt>
<trkpt lat="40.072842" lon="-105.230575">
  <ele>1586.09</ele>
  <time>2026-08-27T18:30:54Z</time>
  <course>266.03</course>
  <speed>0.0</speed>
  <fix>3d</fix>
</trkpt>
<trkpt lat="40.072842" lon="-105.230575">
  <ele>1586.09</ele>
  <time>2026-08-27T18:30:54Z</time>
  <course>11.66</course>
  <speed>0.03605551275463989</speed>
  <fix>3d</fix>
</trkpt>
<trkpt lat="40.072842" lon="-105.230575">
  <ele>1586.09</ele>
  <time>2026-08-27T18:30:54Z</time>
  <course>266.03</course>
  <speed>0.0</speed>
  <fix>3d</fix>
</trkpt>
<trkpt lat="40.072842" lon="-105.230575">
  <ele>1586.09</ele>
  <time>2026-08-27T18:30:54Z</time>
  <course>11.65</course>
  <speed>0.03605551275463989</speed>
  <fix>3d</fix>
</trkpt>
<trkpt lat="40.072842" lon="-105.230575">
  <ele>1586.09</ele>
  <time>2026-08-27T18:30:54Z</time>
  <course>266.03</course>
  <speed>0.0</speed>
  <fix>3d</fix>
</trkpt>
<trkpt lat="40.072842" lon="-105.230575">
  <ele>1586.09</ele>
  <time>2026-08-27T18:30:54Z</time>
  <course>11.65</course>
  <speed>0.03605551275463989</speed>
  <fix>3d</fix>
</trkpt>
<trkpt lat="40.072842" lon="-105.230575">
  <ele>1586.09</ele>
  <time>2026-08-27T18:30:54Z</time>
  <course>266.03</course>
  <speed>0.0</speed>
  <fix>3d</fix>
</trkpt>
<trkpt lat="40.072842" lon="-105.230575">
  <ele>1586.09</ele>
  <time>2026-08-27T18:30:54Z</time>
  <course>11.64</course>
  <speed>0.03605551275463989</speed>
  <fix>3d</fix>
</trkpt>
<trkpt lat="40.072842" lon="-105.230575">
  <ele>1586.09</ele>
  <time>2026-08-27T18:30:54Z</time>
  <course>266.03</course>
  <speed>0.0</speed>
  <fix>3d</fix>
</trkpt>
<trkpt lat="40.072842" lon="-105.230575">
  <ele>1586.09</ele>
  <time>2026-08-27T18:30:54Z</time>
  <course>11.63</course>
  <speed>0.03605551275463989</speed>
  <fix>3d</fix>
</trkpt>
<trkpt lat="40.072842" lon="-105.230575">
  <ele>1586.09</ele>
  <time>2026-08-27T18:30:54Z</time>
  <course>266.03</course>
  <speed>0.0</speed>
  <fix>3d</fix>
</trkpt>
<trkpt lat="40.072842" lon="-105.230575">
  <ele>1586.09</ele>
  <time>2026-08-27T18:30:54Z</time>
  <course>11.62</course>
  <speed>0.03605551275463989</speed>
  <fix>3d</fix>
</trkpt>
<trkpt lat="40.072842" lon="-105.230575">
  <ele>1586.09</ele>
  <time>2026-08-27T18:30:54Z</time>
  <course>266.03</course>
  <speed>0.0</speed>
  <fix>3d</fix>
</trkpt>
<trkpt lat="40.072842" lon="-105.230575">
  <ele>1586.09</ele>
  <time>2026-08-27T18:30:54Z</time>
  <course>11.62</course>
  <speed>0.03605551275463989</speed>
  <fix>3d</fix>
</trkpt>
<trkpt lat="40.072842" lon="-105.230575">
  <ele>1586.09</ele>
  <time>2026-08-27T18:30:54Z</time>
  <course>266.03</course>
  <speed>0.0</speed>
  <fix>3d</fix>
</trkpt>
<trkpt lat="40.072842" lon="-105.230575">
  <ele>1586.09</ele>
  <time>2026-08-27T18:30:54Z</time>
  <course>11.61</course>
  <speed>0.03605551275463989</speed>
  <fix>3d</fix>
</trkpt>
<trkpt lat="40.072842" lon="-105.230575">
  <ele>1586.09</ele>
  <time>2026-08-27T18:30:54Z</time>
  <course>266.03</course>
  <speed>0.0</speed>
  <fix>3d</fix>
</trkpt>
<trkpt lat="40.072842" lon="-105.230575">
  <ele>1586.09</ele>
  <time>2026-08-27T18:30:54Z</time>
  <course>11.61</course>
  <speed>0.03605551275463989</speed>
  <fix>3d</fix>
</trkpt>
<trkpt lat="40.072842" lon="-105.230575">
  <ele>1586.09</ele>
  <time>2026-08-27T18:30:54Z</time>
  <course>266.03</course>
  <speed>0.0</speed>
  <fix>3d</fix>
</trkpt>
<trkpt lat="40.072842" lon="-105.230575">
  <ele>1586.09</ele>
  <time>2026-08-27T18:30:54Z</time>
  <course>11.6</course>
  <speed>0.03605551275463989</speed>
  <fix>3d</fix>
</trkpt>
<trkpt lat="40.072842" lon="-105.230575">
  <ele>1586.09</ele>
  <time>2026-08-27T18:30:54Z</time>
  <course>266.03</course>
  <speed>0.0</speed>
  <fix>3d</fix>
</trkpt>
<trkpt lat="40.072842" lon="-105.230575">
  <ele>1586.09</ele>
  <time>2026-08-27T18:30:54Z</time>
  <course>11.59</course>
  <speed>0.03605551275463989</speed>
  <fix>3d</fix>
</trkpt>
<trkpt lat="40.072842" lon="-105.230575">
  <ele>1586.09</ele>
  <time>2026-08-27T18:30:54Z</time>
  <course>266.03</course>
  <speed>0.0</speed>
  <fix>3d</fix>
</trkpt>
<trkpt lat="40.072842" lon="-105.230575">
  <ele>1586.09</ele>
  <time>2026-08-27T18:30:54Z</time>
  <course>11.59</course>
  <speed>0.03605551275463989</speed>
  <fix>3d</fix>
</trkpt>
<trkpt lat="40.072842" lon="-105.230575">
  <ele>1586.09</ele>
  <time>2026-08-27T18:30:54Z</time>
  <course>266.03</course>
  <speed>0.0</speed>
  <fix>3d</fix>
</trkpt>
<trkpt lat="40.072842" lon="-105.230575">
  <ele>1586.09</ele>
  <time>2026-08-27T18:30:54Z</time>
  <course>11.58</course>
  <speed>0.03605551275463989</speed>
  <fix>3d</fix>
</trkpt>
<trkpt lat="40.072842" lon="-105.230575">
  <ele>1586.09</ele>
  <time>2026-08-27T18:30:54Z</time>
  <course>266.03</course>
  <speed>0.0</speed>
  <fix>3d</fix>
</trkpt>
<trkpt lat="40.072842" lon="-105.230575">
  <ele>1586.09</ele>
  <time>2026-08-27T18:30:54Z</time>
  <course>11.57</course>
  <speed>0.03605551275463989</speed>
  <fix>3d</fix>
</trkpt>
<trkpt lat="40.072842" lon="-105.230575">
  <ele>1586.09</ele>
  <time>2026-08-27T18:30:54Z</time>
  <course>266.03</course>
  <speed>0.0</speed>
  <fix>3d</fix>
</trkpt>
<trkpt lat="40.072842" lon="-105.230575">
  <ele>1586.09</ele>
  <time>2026-08-27T18:30:54Z</time>
  <course>11.57</course>
  <speed>0.03605551275463989</speed>
  <fix>3d</fix>
</trkpt>
<trkpt lat="40.072842" lon="-105.230575">
  <ele>1586.09</ele>
  <time>2026-08-27T18:30:54Z</time>
  <course>266.03</course>
  <speed>0.0</speed>
  <fix>3d</fix>
</trkpt>
<trkpt lat="40.072842" lon="-105.230575">
  <ele>1586.09</ele>
  <time>2026-08-27T18:30:54Z</time>
  <course>11.56</course>
  <speed>0.03605551275463989</speed>
  <fix>3d</fix>
</trkpt>
<trkpt lat="40.072842" lon="-105.230575">
  <ele>1586.09</ele>
  <time>2026-08-27T18:30:54Z</time>
  <course>266.03</course>
  <speed>0.0</speed>
  <fix>3d</fix>
</trkpt>
<trkpt lat="40.072842" lon="-105.230575">
  <ele>1586.09</ele>
  <time>2026-08-27T18:30:54Z</time>
  <course>11.56</course>
  <speed>0.03605551275463989</speed>
  <fix>3d</fix>
</trkpt>
<trkpt lat="40.072842" lon="-105.230575">
  <ele>1586.09</ele>
  <time>2026-08-27T18:30:54Z</time>
  <course>266.03</course>
  <speed>0.0</speed>
  <fix>3d</fix>
</trkpt>
<trkpt lat="40.072842" lon="-105.230575">
  <ele>1586.09</ele>
  <time>2026-08-27T18:30:54Z</time>
  <course>11.55</course>
  <speed>0.03605551275463989</speed>
  <fix>3d</fix>
</trkpt>
<trkpt lat="40.072842" lon="-105.230575">
  <ele>1586.09</ele>
  <time>2026-08-27T18:30:54Z</time>
  <course>266.03</course>
  <speed>0.0</speed>
  <fix>3d</fix>
</trkpt>
<trkpt lat="40.072842" lon="-105.230575">
  <ele>1586.09</ele>
  <time>2026-08-27T18:30:54Z</time>
  <course>11.54</course>
  <speed>0.03605551275463989</speed>
  <fix>3d</fix>
</trkpt>
<trkpt lat="40.072842" lon="-105.230575">
  <ele>1586.09</ele>
  <time>2026-08-27T18:30:54Z</time>
  <course>266.03</course>
  <speed>0.0</speed>
  <fix>3d</fix>
</trkpt>
<trkpt lat="40.072842" lon="-105.230575">
  <ele>1586.09</ele>
  <time>2026-08-27T18:30:54Z</time>
  <course>11.54</course>
  <speed>0.03605551275463989</speed>
  <fix>3d</fix>
</trkpt>
<trkpt lat="40.072842" lon="-105.230575">
  <ele>1586.09</ele>
  <time>2026-08-27T18:30:54Z</time>
  <course>266.03</course>
  <speed>0.0</speed>
  <fix>3d</fix>
</trkpt>
<trkpt lat="40.072842" lon="-105.230575">
  <ele>1586.09</ele>
  <time>2026-08-27T18:30:54Z</time>
  <course>11.53</course>
  <speed>0.03605551275463989</speed>
  <fix>3d</fix>
</trkpt>
<trkpt lat="40.072842" lon="-105.230575">
  <ele>1586.09</ele>
  <time>2026-08-27T18:30:54Z</time>
  <course>266.03</course>
  <speed>0.0</speed>
  <fix>3d</fix>
</trkpt>
<trkpt lat="40.072842" lon="-105.230575">
  <ele>1586.09</ele>
  <time>2026-08-27T18:30:54Z</time>
  <course>11.53</course>
  <speed>0.03605551275463989</speed>
  <fix>3d</fix>
</trkpt>
<trkpt lat="40.072842" lon="-105.230575">
  <ele>1586.09</ele>
  <time>2026-08-27T18:30:54Z</time>
  <course>266.03</course>
  <speed>0.0</speed>
  <fix>3d</fix>
</trkpt>
<trkpt lat="40.072842" lon="-105.230575">
  <ele>1586.09</ele>
  <time>2026-08-27T18:30:54Z</time>
  <course>11.52</course>
  <speed>0.03605551275463989</speed>
  <fix>3d</fix>
</trkpt>
<trkpt lat="40.072842" lon="-105.230575">
  <ele>1586.09</ele>
  <time>2026-08-27T18:30:54Z</time>
  <course>266.03</course>
  <speed>0.0</speed>
  <fix>3d</fix>
</trkpt>
<trkpt lat="40.072842" lon="-105.230575">
  <ele>1586.09</ele>
  <time>2026-08-27T18:30:54Z</time>
  <course>11.51</course>
  <speed>0.03605551275463989</speed>
  <fix>3d</fix>
</trkpt>
<trkpt lat="40.072842" lon="-105.230575">
  <ele>1586.09</ele>
  <time>2026-08-27T18:30:54Z</time>
  <course>266.03</course>
  <speed>0.0</speed>
  <fix>3d</fix>
</trkpt>
<trkpt lat="40.072842" lon="-105.230575">
  <ele>1586.09</ele>
  <time>2026-08-27T18:30:54Z</time>
  <course>11.51</course>
  <speed>0.03605551275463989</speed>
  <fix>3d</fix>
</trkpt>
<trkpt lat="40.072842" lon="-105.230575">
  <ele>1586.09</ele>
  <time>2026-08-27T18:30:54Z</time>
  <course>266.03</course>
  <speed>0.0</speed>
  <fix>3d</fix>
</trkpt>
<trkpt lat="40.072842" lon="-105.230575">
  <ele>1586.09</ele>
  <time>2026-08-27T18:30:54Z</time>
  <course>11.5</course>
  <speed>0.03605551275463989</speed>
  <fix>3d</fix>
</trkpt>
<trkpt lat="40.072842" lon="-105.230575">
  <ele>1586.09</ele>
  <time>2026-08-27T18:30:54Z</time>
  <course>266.03</course>
  <speed>0.0</speed>
  <fix>3d</fix>
</trkpt>
<trkpt lat="40.072842" lon="-105.230575">
  <ele>1586.09</ele>
  <time>2026-08-27T18:30:54Z</time>
  <course>11.5</course>
  <speed>0.03605551275463989</speed>
  <fix>3d</fix>
</trkpt>
<trkpt lat="40.072842" lon="-105.230575">
  <ele>1586.09</ele>
  <time>2026-08-27T18:30:54Z</time>
  <course>266.03</course>
  <speed>0.0</speed>
  <fix>3d</fix>
</trkpt>
<trkpt lat="40.072842" lon="-105.230575">
  <ele>1586.09</ele>
  <time>2026-08-27T18:30:54Z</time>
  <course>11.49</course>
  <speed>0.044721359549995794</speed>
  <fix>3d</fix>
</trkpt>
<trkpt lat="40.072842" lon="-105.230575">
  <ele>1586.09</ele>
  <time>2026-08-27T18:30:54Z</time>
  <course>266.03</course>
  <speed>0.0</speed>
  <fix>3d</fix>
</trkpt>
<trkpt lat="40.072842" lon="-105.230575">
  <ele>1586.09</ele>
  <time>2026-08-27T18:30:54Z</time>
  <course>11.49</course>
  <speed>0.044721359549995794</speed>
  <fix>3d</fix>
</trkpt>
<trkpt lat="40.072842" lon="-105.230575">
  <ele>1586.09</ele>
  <time>2026-08-27T18:30:54Z</time>
  <course>266.03</course>
  <speed>0.0</speed>
  <fix>3d</fix>
</trkpt>
<trkpt lat="40.072842" lon="-105.230575">
  <ele>1586.09</ele>
  <time>2026-08-27T18:30:54Z</time>
  <course>11.48</course>
  <speed>0.044721359549995794</speed>
  <fix>3d</fix>
</trkpt>
<trkpt lat="40.072842" lon="-105.230575">
  <ele>1586.09</ele>
  <time>2026-08-27T18:30:54Z</time>
  <course>266.03</course>
  <speed>0.0</speed>
  <fix>3d</fix>
</trkpt>
<trkpt lat="40.072842" lon="-105.230575">
  <ele>1586.09</ele>
  <time>2026-08-27T18:30:54Z</time>
  <course>11.48</course>
  <speed>0.044721359549995794</speed>
  <fix>3d</fix>
</trkpt>
<trkpt lat="40.072842" lon="-105.230575">
  <ele>1586.09</ele>
  <time>2026-08-27T18:30:54Z</time>
  <course>266.03</course>
  <speed>0.0</speed>
  <fix>3d</fix>
</trkpt>
<trkpt lat="40.072842" lon="-105.230575">
  <ele>1586.09</ele>
  <time>2026-08-27T18:30:54Z</time>
  <course>11.47</course>
  <speed>0.044721359549995794</speed>
  <fix>3d</fix>
</trkpt>
<trkpt lat="40.072842" lon="-105.230575">
  <ele>1586.09</ele>
  <time>2026-08-27T18:30:54Z</time>
  <course>266.03</course>
  <speed>0.0</speed>
  <fix>3d</fix>
</trkpt>
<trkpt lat="40.072842" lon="-105.230575">
  <ele>1586.09</ele>
  <time>2026-08-27T18:30:54Z</time>
  <course>11.47</course>
  <speed>0.044721359549995794</speed>
  <fix>3d</fix>
</trkpt>
<trkpt lat="40.072842" lon="-105.230575">
  <ele>1586.09</ele>
  <time>2026-08-27T18:30:54Z</time>
  <course>266.03</course>
  <speed>0.0</speed>
  <fix>3d</fix>
</trkpt>
<trkpt lat="40.072842" lon="-105.230575">
  <ele>1586.09</ele>
  <time>2026-08-27T18:30:54Z</time>
  <course>11.46</course>
  <speed>0.044721359549995794</speed>
  <fix>3d</fix>
</trkpt>
<trkpt lat="40.072842" lon="-105.230575">
  <ele>1586.09</ele>
  <time>2026-08-27T18:30:54Z</time>
  <course>266.03</course>
  <speed>0.0</speed>
  <fix>3d</fix>
</trkpt>
<trkpt lat="40.072842" lon="-105.230575">
  <ele>1586.09</ele>
  <time>2026-08-27T18:30:54Z</time>
  <course>11.46</course>
  <speed>0.044721359549995794</speed>
  <fix>3d</fix>
</trkpt>
<trkpt lat="40.072842" lon="-105.230575">
  <ele>1586.09</ele>
  <time>2026-08-27T18:30:54Z</time>
  <course>266.03</course>
  <speed>0.0</speed>
  <fix>3d</fix>
</trkpt>
<trkpt lat="40.072842" lon="-105.230575">
  <ele>1586.15</ele>
  <time>2026-08-27T18:30:54Z</time>
  <course>11.45</course>
  <speed>0.0</speed>
  <fix>3d</fix>
</trkpt>
<trkpt lat="40.072842" lon="-105.230575">
  <ele>1586.09</ele>
  <time>2026-08-27T18:30:54Z</time>
  <course>266.03</course>
  <speed>0.0</speed>
  <fix>3d</fix>
</trkpt>
<trkpt lat="40.072842" lon="-105.230575">
  <ele>1586.15</ele>
  <time>2026-08-27T18:30:54Z</time>
  <course>11.45</course>
  <speed>0.0</speed>
  <fix>3d</fix>
</trkpt>
<trkpt lat="40.072842" lon="-105.230575">
  <ele>1586.09</ele>
  <time>2026-08-27T18:30:54Z</time>
  <course>266.03</course>
  <speed>0.0</speed>
  <fix>3d</fix>
</trkpt>
<trkpt lat="40.072842" lon="-105.230575">
  <ele>1586.14</ele>
  <time>2026-08-27T18:30:54Z</time>
  <course>11.44</course>
  <speed>0.0</speed>
  <fix>3d</fix>
</trkpt>
<trkpt lat="40.072842" lon="-105.230575">
  <ele>1586.09</ele>
  <time>2026-08-27T18:30:54Z</time>
  <course>281.49</course>
  <speed>0.0</speed>
  <fix>3d</fix>
</trkpt>
<trkpt lat="40.072842" lon="-105.230575">
  <ele>1586.14</ele>
  <time>2026-08-27T18:30:54Z</time>
  <course>11.44</course>
  <speed>0.0</speed>
  <fix>3d</fix>
</trkpt>
<trkpt lat="40.072842" lon="-105.230575">
  <ele>1586.09</ele>
  <time>2026-08-27T18:30:54Z</time>
  <course>269.42</course>
  <speed>0.0</speed>
  <fix>3d</fix>
</trkpt>
<trkpt lat="40.072842" lon="-105.230575">
  <ele>1586.14</ele>
  <time>2026-08-27T18:30:54Z</time>
  <course>11.43</course>
  <speed>0.0</speed>
  <fix>3d</fix>
</trkpt>
<trkpt lat="40.072842" lon="-105.230575">
  <ele>1586.09</ele>
  <time>2026-08-27T18:30:54Z</time>
  <course>211.84</course>
  <speed>0.0</speed>
  <fix>3d</fix>
</trkpt>
<trkpt lat="40.072842" lon="-105.230575">
  <ele>1586.14</ele>
  <time>2026-08-27T18:30:54Z</time>
  <course>11.43</course>
  <speed>0.01</speed>
  <fix>3d</fix>
</trkpt>
<trkpt lat="40.072842" lon="-105.230575">
  <ele>1586.09</ele>
  <time>2026-08-27T18:30:54Z</time>
  <course>76.8</course>
  <speed>0.0</speed>
  <fix>3d</fix>
</trkpt>
<trkpt lat="40.072842" lon="-105.230575">
  <ele>1586.14</ele>
  <time>2026-08-27T18:30:54Z</time>
  <course>11.42</course>
  <speed>0.01</speed>
  <fix>3d</fix>
</trkpt>
<trkpt lat="40.072842" lon="-105.230575">
  <ele>1586.09</ele>
  <time>2026-08-27T18:30:54Z</time>
  <course>283.66</course>
  <speed>0.0</speed>
  <fix>3d</fix>
</trkpt>
<trkpt lat="40.072842" lon="-105.230575">
  <ele>1586.14</ele>
  <time>2026-08-27T18:30:54Z</time>
  <course>11.42</course>
  <speed>0.01</speed>
  <fix>3d</fix>
</trkpt>
<trkpt lat="40.072842" lon="-105.230575">
  <ele>1586.09</ele>
  <time>2026-08-27T18:30:54Z</time>
  <course>262.24</course>
  <speed>0.0</speed>
  <fix>3d</fix>
</trkpt>
<trkpt lat="40.072842" lon="-105.230575">
  <ele>1586.14</ele>
  <time>2026-08-27T18:30:54Z</time>
  <course>11.42</course>
  <speed>0.01414213562373095</speed>
  <fix>3d</fix>
</trkpt>
<trkpt lat="40.072842" lon="-105.230575">
  <ele>1586.09</ele>
  <time>2026-08-27T18:30:54Z</time>
  <course>263.53</course>
  <speed>0.0</speed>
  <fix>3d</fix>
</trkpt>
<trkpt lat="40.072842" lon="-105.230575">
  <ele>1586.15</ele>
  <time>2026-08-27T18:30:54Z</time>
  <course>11.41</course>
  <speed>0.01414213562373095</speed>
  <fix>3d</fix>
</trkpt>
<trkpt lat="40.072842" lon="-105.230575">
  <ele>1586.09</ele>
  <time>2026-08-27T18:30:54Z</time>
  <course>267.07</course>
  <speed>0.0</speed>
  <fix>3d</fix>
</trkpt>
<trkpt lat="40.072842" lon="-105.230575">
  <ele>1586.15</ele>
  <time>2026-08-27T18:30:54Z</time>
  <course>11.41</course>
  <speed>0.01414213562373095</speed>
  <fix>3d</fix>
</trkpt>
<trkpt lat="40.072842" lon="-105.230575">
  <ele>1586.09</ele>
  <time>2026-08-27T18:30:54Z</time>
  <course>266.23</course>
  <speed>0.0</speed>
  <fix>3d</fix>
</trkpt>
<trkpt lat="40.072842" lon="-105.230575">
  <ele>1586.15</ele>
  <time>2026-08-27T18:30:54Z</time>
  <course>11.4</course>
  <speed>0.022360679774997897</speed>
  <fix>3d</fix>
</trkpt>
<trkpt lat="40.072842" lon="-105.230575">
  <ele>1586.09</ele>
  <time>2026-08-27T18:30:54Z</time>
  <course>265.88</course>
  <speed>0.0</speed>
  <fix>3d</fix>
</trkpt>
<trkpt lat="40.072842" lon="-105.230575">
  <ele>1586.15</ele>
  <time>2026-08-27T18:30:54Z</time>
  <course>11.4</course>
  <speed>0.022360679774997897</speed>
  <fix>3d</fix>
</trkpt>
<trkpt lat="40.072842" lon="-105.230575">
  <ele>1586.09</ele>
  <time>2026-08-27T18:30:54Z</time>
  <course>259.35</course>
  <speed>0.0</speed>
  <fix>3d</fix>
</trkpt>
<trkpt lat="40.072842" lon="-105.230575">
  <ele>1586.16</ele>
  <time>2026-08-27T18:30:54Z</time>
  <course>11.4</course>
  <speed>0.022360679774997897</speed>
  <fix>3d</fix>
</trkpt>
<trkpt lat="40.072842" lon="-105.230575">
  <ele>1586.09</ele>
  <time>2026-08-27T18:30:54Z</time>
  <course>264.89</course>
  <speed>0.0</speed>
  <fix>3d</fix>
</trkpt>
<trkpt lat="40.072842" lon="-105.230575">
  <ele>1586.16</ele>
  <time>2026-08-27T18:30:54Z</time>
  <course>11.39</course>
  <speed>0.022360679774997897</speed>
  <fix>3d</fix>
</trkpt>
<trkpt lat="40.072842" lon="-105.230575">
  <ele>1586.09</ele>
  <time>2026-08-27T18:30:54Z</time>
  <course>268.54</course>
  <speed>0.0</speed>
  <fix>3d</fix>
</trkpt>
<trkpt lat="40.072842" lon="-105.230575">
  <ele>1586.16</ele>
  <time>2026-08-27T18:30:54Z</time>
  <course>11.39</course>
  <speed>0.01414213562373095</speed>
  <fix>3d</fix>
</trkpt>
<trkpt lat="40.072842" lon="-105.230575">
  <ele>1586.09</ele>
  <time>2026-08-27T18:30:54Z</time>
  <course>264.11</course>
  <speed>0.0</speed>
  <fix>3d</fix>
</trkpt>
<trkpt lat="40.072842" lon="-105.230575">
  <ele>1586.16</ele>
  <time>2026-08-27T18:30:54Z</time>
  <course>11.39</course>
  <speed>0.01414213562373095</speed>
  <fix>3d</fix>
</trkpt>
<trkpt lat="40.072842" lon="-105.230575">
  <ele>1586.09</ele>
  <time>2026-08-27T18:30:54Z</time>
  <course>266.08</course>
  <speed>0.0</speed>
  <fix>3d</fix>
</trkpt>
<trkpt lat="40.072842" lon="-105.230575">
  <ele>1586.16</ele>
  <time>2026-08-27T18:30:54Z</time>
  <course>11.38</course>
  <speed>0.01</speed>
  <fix>3d</fix>
</trkpt>
<trkpt lat="40.072842" lon="-105.230575">
  <ele>1586.09</ele>
  <time>2026-08-27T18:30:54Z</time>
  <course>266.29</course>
  <speed>0.0</speed>
  <fix>3d</fix>
</trkpt>
<trkpt lat="40.072842" lon="-105.230575">
  <ele>1586.16</ele>
  <time>2026-08-27T18:30:54Z</time>
  <course>11.38</course>
  <speed>0.0</speed>
  <fix>3d</fix>
</trkpt>
<trkpt lat="40.072842" lon="-105.230575">
  <ele>1586.09</ele>
  <time>2026-08-27T18:30:54Z</time>
  <course>266.0</course>
  <speed>0.0</speed>
  <fix>3d</fix>
</trkpt>
<trkpt lat="40.072842" lon="-105.230575">
  <ele>1586.16</ele>
  <time>2026-08-27T18:30:54Z</time>
  <course>11.37</course>
  <speed>0.0</speed>
  <fix>3d</fix>
</trkpt>
<trkpt lat="40.072842" lon="-105.230575">
  <ele>1586.09</ele>
  <time>2026-08-27T18:30:54Z</time>
  <course>266.01</course>
  <speed>0.0</speed>
  <fix>3d</fix>
</trkpt>
<trkpt lat="40.072842" lon="-105.230575">
  <ele>1586.16</ele>
  <time>2026-08-27T18:30:54Z</time>
  <course>11.37</course>
  <speed>0.0</speed>
  <fix>3d</fix>
</trkpt>
<trkpt lat="40.072842" lon="-105.230575">
  <ele>1586.09</ele>
  <time>2026-08-27T18:30:54Z</time>
  <course>266.04</course>
  <speed>0.0</speed>
  <fix>3d</fix>
</trkpt>
<trkpt lat="40.072842" lon="-105.230575">
  <ele>1586.16</ele>
  <time>2026-08-27T18:30:54Z</time>
  <course>11.37</course>
  <speed>0.0</speed>
  <fix>3d</fix>
</trkpt>
<trkpt lat="40.072842" lon="-105.230575">
  <ele>1586.09</ele>
  <time>2026-08-27T18:30:54Z</time>
  <course>315.89</course>
  <speed>0.0</speed>
  <fix>3d</fix>
</trkpt>
<trkpt lat="40.072842" lon="-105.230575">
  <ele>1586.16</ele>
  <time>2026-08-27T18:30:54Z</time>
  <course>11.36</course>
  <speed>0.0</speed>
  <fix>3d</fix>
</trkpt>
<trkpt lat="40.072842" lon="-105.230575">
  <ele>1586.09</ele>
  <time>2026-08-27T18:30:54Z</time>
  <course>322.06</course>
  <speed>0.0</speed>
  <fix>3d</fix>
</trkpt>
<trkpt lat="40.072842" lon="-105.230575">
  <ele>1586.16</ele>
  <time>2026-08-27T18:30:54Z</time>
  <course>11.36</course>
  <speed>0.0</speed>
  <fix>3d</fix>
</trkpt>
<trkpt lat="40.072842" lon="-105.230575">
  <ele>1586.09</ele>
  <time>2026-08-27T18:30:54Z</time>
  <course>312.76</course>
  <speed>0.0</speed>
  <fix>3d</fix>
</trkpt>
<trkpt lat="40.072842" lon="-105.230575">
  <ele>1586.16</ele>
  <time>2026-08-27T18:30:54Z</time>
  <course>11.36</course>
  <speed>0.0</speed>
  <fix>3d</fix>
</trkpt>
<trkpt lat="40.072842" lon="-105.230575">
  <ele>1586.09</ele>
  <time>2026-08-27T18:30:54Z</time>
  <course>195.16</course>
  <speed>0.0</speed>
  <fix>3d</fix>
</trkpt>
<trkpt lat="40.072842" lon="-105.230575">
  <ele>1586.16</ele>
  <time>2026-08-27T18:30:54Z</time>
  <course>11.35</course>
  <speed>0.0</speed>
  <fix>3d</fix>
</trkpt>
<trkpt lat="40.072842" lon="-105.230575">
  <ele>1586.09</ele>
  <time>2026-08-27T18:30:54Z</time>
  <course>162.38</course>
  <speed>0.0</speed>
  <fix>3d</fix>
</trkpt>
<trkpt lat="40.072842" lon="-105.230575">
  <ele>1586.16</ele>
  <time>2026-08-27T18:30:54Z</time>
  <course>11.35</course>
  <speed>0.0</speed>
  <fix>3d</fix>
</trkpt>
<trkpt lat="40.072842" lon="-105.230575">
  <ele>1586.09</ele>
  <time>2026-08-27T18:30:54Z</time>
  <course>301.46</course>
  <speed>0.0</speed>
  <fix>3d</fix>
</trkpt>
<trkpt lat="40.072842" lon="-105.230575">
  <ele>1586.16</ele>
  <time>2026-08-27T18:30:54Z</time>
  <course>11.34</course>
  <speed>0.0</speed>
  <fix>3d</fix>
</trkpt>
<trkpt lat="40.072842" lon="-105.230575">
  <ele>1586.09</ele>
  <time>2026-08-27T18:30:54Z</time>
  <course>267.99</course>
  <speed>0.0</speed>
  <fix>3d</fix>
</trkpt>
<trkpt lat="40.072842" lon="-105.230575">
  <ele>1586.16</ele>
  <time>2026-08-27T18:30:54Z</time>
  <course>11.33</course>
  <speed>0.0</speed>
  <fix>3d</fix>
</trkpt>
<trkpt lat="40.072842" lon="-105.230575">
  <ele>1586.09</ele>
  <time>2026-08-27T18:30:54Z</time>
  <course>260.56</course>
  <speed>0.0</speed>
  <fix>3d</fix>
</trkpt>
<trkpt lat="40.072842" lon="-105.230575">
  <ele>1586.16</ele>
  <time>2026-08-27T18:30:54Z</time>
  <course>11.32</course>
  <speed>0.0</speed>
  <fix>3d</fix>
</trkpt>
<trkpt lat="40.072842" lon="-105.230575">
  <ele>1586.09</ele>
  <time>2026-08-27T18:30:54Z</time>
  <course>146.89</course>
  <speed>0.0</speed>
  <fix>3d</fix>
</trkpt>
<trkpt lat="40.072842" lon="-105.230575">
  <ele>1586.16</ele>
  <time>2026-08-27T18:30:54Z</time>
  <course>11.31</course>
  <speed>0.0</speed>
  <fix>3d</fix>
</trkpt>
<trkpt lat="40.072842" lon="-105.230575">
  <ele>1586.09</ele>
  <time>2026-08-27T18:30:54Z</time>
  <course>342.13</course>
  <speed>0.0</speed>
  <fix>3d</fix>
</trkpt>
<trkpt lat="40.072842" lon="-105.230575">
  <ele>1586.16</ele>
  <time>2026-08-27T18:30:54Z</time>
  <course>11.3</course>
  <speed>0.0</speed>
  <fix>3d</fix>
</trkpt>
<trkpt lat="40.072842" lon="-105.230575">
  <ele>1586.09</ele>
  <time>2026-08-27T18:30:54Z</time>
  <course>324.46</course>
  <speed>0.0</speed>
  <fix>3d</fix>
</trkpt>
<trkpt lat="40.072842" lon="-105.230575">
  <ele>1586.16</ele>
  <time>2026-08-27T18:30:54Z</time>
  <course>11.28</course>
  <speed>0.0</speed>
  <fix>3d</fix>
</trkpt>
<trkpt lat="40.072842" lon="-105.230575">
  <ele>1586.09</ele>
  <time>2026-08-27T18:30:54Z</time>
  <course>279.76</course>
  <speed>0.0</speed>
  <fix>3d</fix>
</trkpt>
<trkpt lat="40.072842" lon="-105.230575">
  <ele>1586.16</ele>
  <time>2026-08-27T18:30:54Z</time>
  <course>11.27</course>
  <speed>0.0</speed>
  <fix>3d</fix>
</trkpt>
<trkpt lat="40.072842" lon="-105.230575">
  <ele>1586.09</ele>
  <time>2026-08-27T18:30:54Z</time>
  <course>257.04</course>
  <speed>0.0</speed>
  <fix>3d</fix>
</trkpt>
<trkpt lat="40.072842" lon="-105.230575">
  <ele>1586.16</ele>
  <time>2026-08-27T18:30:54Z</time>
  <course>11.25</course>
  <speed>0.0</speed>
  <fix>3d</fix>
</trkpt>
<trkpt lat="40.072842" lon="-105.230575">
  <ele>1586.09</ele>
  <time>2026-08-27T18:30:54Z</time>
  <course>256.57</course>
  <speed>0.0</speed>
  <fix>3d</fix>
</trkpt>
<trkpt lat="40.072842" lon="-105.230575">
  <ele>1586.16</ele>
  <time>2026-08-27T18:30:54Z</time>
  <course>11.23</course>
  <speed>0.0</speed>
  <fix>3d</fix>
</trkpt>
<trkpt lat="40.072842" lon="-105.230575">
  <ele>1586.09</ele>
  <time>2026-08-27T18:30:54Z</time>
  <course>275.54</course>
  <speed>0.0</speed>
  <fix>3d</fix>
</trkpt>
<trkpt lat="40.072842" lon="-105.230575">
  <ele>1586.16</ele>
  <time>2026-08-27T18:30:54Z</time>
  <course>11.21</course>
  <speed>0.0</speed>
  <fix>3d</fix>
</trkpt>
<trkpt lat="40.072842" lon="-105.230575">
  <ele>1586.09</ele>
  <time>2026-08-27T18:30:54Z</time>
  <course>279.85</course>
  <speed>0.0</speed>
  <fix>3d</fix>
</trkpt>
<trkpt lat="40.072842" lon="-105.230575">
  <ele>1586.16</ele>
  <time>2026-08-27T18:30:54Z</time>
  <course>11.19</course>
  <speed>0.0</speed>
  <fix>3d</fix>
</trkpt>
<trkpt lat="40.072842" lon="-105.230575">
  <ele>1586.09</ele>
  <time>2026-08-27T18:30:54Z</time>
  <course>310.57</course>
  <speed>0.0</speed>
  <fix>3d</fix>
</trkpt>
<trkpt lat="40.072842" lon="-105.230575">
  <ele>1586.16</ele>
  <time>2026-08-27T18:30:54Z</time>
  <course>11.17</course>
  <speed>0.0</speed>
  <fix>3d</fix>
</trkpt>
<trkpt lat="40.072842" lon="-105.230575">
  <ele>1586.09</ele>
  <time>2026-08-27T18:30:54Z</time>
  <course>288.5</course>
  <speed>0.0</speed>
  <fix>3d</fix>
</trkpt>
<trkpt lat="40.072842" lon="-105.230575">
  <ele>1586.17</ele>
  <time>2026-08-27T18:30:54Z</time>
  <course>11.14</course>
  <speed>0.0</speed>
  <fix>3d</fix>
</trkpt>
<trkpt lat="40.072842" lon="-105.230575">
  <ele>1586.09</ele>
  <time>2026-08-27T18:30:54Z</time>
  <course>258.35</course>
  <speed>0.0</speed>
  <fix>3d</fix>
</trkpt>
<trkpt lat="40.072842" lon="-105.230575">
  <ele>1586.17</ele>
  <time>2026-08-27T18:30:54Z</time>
  <course>11.11</course>
  <speed>0.0</speed>
  <fix>3d</fix>
</trkpt>
<trkpt lat="40.072842" lon="-105.230575">
  <ele>1586.09</ele>
  <time>2026-08-27T18:30:54Z</time>
  <course>263.96</course>
  <speed>0.0</speed>
  <fix>3d</fix>
</trkpt>
<trkpt lat="40.072842" lon="-105.230575">
  <ele>1586.17</ele>
  <time>2026-08-27T18:30:54Z</time>
  <course>11.09</course>
  <speed>0.01</speed>
  <fix>3d</fix>
</trkpt>
<trkpt lat="40.072842" lon="-105.230575">
  <ele>1586.09</ele>
  <time>2026-08-27T18:30:54Z</time>
  <course>280.25</course>
  <speed>0.0</speed>
  <fix>3d</fix>
</trkpt>
<trkpt lat="40.072842" lon="-105.230575">
  <ele>1586.17</ele>
  <time>2026-08-27T18:30:54Z</time>
  <course>11.06</course>
  <speed>0.01</speed>
  <fix>3d</fix>
</trkpt>
<trkpt lat="40.072842" lon="-105.230575">
  <ele>1586.09</ele>
  <time>2026-08-27T18:30:54Z</time>
  <course>288.6</course>
  <speed>0.0</speed>
  <fix>3d</fix>
</trkpt>
<trkpt lat="40.072842" lon="-105.230575">
  <ele>1586.18</ele>
  <time>2026-08-27T18:30:54Z</time>
  <course>11.03</course>
  <speed>0.01</speed>
  <fix>3d</fix>
</trkpt>
<trkpt lat="40.072842" lon="-105.230575">
  <ele>1586.09</ele>
  <time>2026-08-27T18:30:54Z</time>
  <course>266.15</course>
  <speed>0.0</speed>
  <fix>3d</fix>
</trkpt>
<trkpt lat="40.072842" lon="-105.230575">
  <ele>1586.18</ele>
  <time>2026-08-27T18:30:54Z</time>
  <course>11.0</course>
  <speed>0.01</speed>
  <fix>3d</fix>
</trkpt>
<trkpt lat="40.072842" lon="-105.230575">
  <ele>1586.09</ele>
  <time>2026-08-27T18:30:54Z</time>
  <course>260.57</course>
  <speed>0.0</speed>
  <fix>3d</fix>
</trkpt>
<trkpt lat="40.072842" lon="-105.230575">
  <ele>1586.18</ele>
  <time>2026-08-27T18:30:54Z</time>
  <course>10.97</course>
  <speed>0.01</speed>
  <fix>3d</fix>
</trkpt>
<trkpt lat="40.072842" lon="-105.230575">
  <ele>1586.09</ele>
  <time>2026-08-27T18:30:54Z</time>
  <course>259.77</course>
  <speed>0.0</speed>
  <fix>3d</fix>
</trkpt>
<trkpt lat="40.072842" lon="-105.230575">
  <ele>1586.18</ele>
  <time>2026-08-27T18:30:54Z</time>
  <course>10.94</course>
  <speed>0.01414213562373095</speed>
  <fix>3d</fix>
</trkpt>
<trkpt lat="40.072842" lon="-105.230575">
  <ele>1586.09</ele>
  <time>2026-08-27T18:30:54Z</time>
  <course>274.38</course>
  <speed>0.0</speed>
  <fix>3d</fix>
</trkpt>
<trkpt lat="40.072842" lon="-105.230575">
  <ele>1586.18</ele>
  <time>2026-08-27T18:30:54Z</time>
  <course>10.9</course>
  <speed>0.01414213562373095</speed>
  <fix>3d</fix>
</trkpt>
<trkpt lat="40.072842" lon="-105.230575">
  <ele>1586.09</ele>
  <time>2026-08-27T18:30:54Z</time>
  <course>275.31</course>
  <speed>0.0</speed>
  <fix>3d</fix>
</trkpt>
<trkpt lat="40.072842" lon="-105.230575">
  <ele>1586.18</ele>
  <time>2026-08-27T18:30:54Z</time>
  <course>10.86</course>
  <speed>0.01414213562373095</speed>
  <fix>3d</fix>
</trkpt>
<trkpt lat="40.072842" lon="-105.230575">
  <ele>1586.09</ele>
  <time>2026-08-27T18:30:54Z</time>
  <course>291.77</course>
  <speed>0.0</speed>
  <fix>3d</fix>
</trkpt>
<trkpt lat="40.072842" lon="-105.230575">
  <ele>1586.18</ele>
  <time>2026-08-27T18:30:54Z</time>
  <course>10.83</course>
  <speed>0.01414213562373095</speed>
  <fix>3d</fix>
</trkpt>
<trkpt lat="40.072842" lon="-105.230575">
  <ele>1586.09</ele>
  <time>2026-08-27T18:30:54Z</time>
  <course>285.03</course>
  <speed>0.0</speed>
  <fix>3d</fix>
</trkpt>
<trkpt lat="40.072842" lon="-105.230575">
  <ele>1586.18</ele>
  <time>2026-08-27T18:30:54Z</time>
  <course>10.79</course>
  <speed>0.01414213562373095</speed>
  <fix>3d</fix>
</trkpt>
<trkpt lat="40.072842" lon="-105.230575">
  <ele>1586.09</ele>
  <time>2026-08-27T18:30:54Z</time>
  <course>270.99</course>
  <speed>0.0</speed>
  <fix>3d</fix>
</trkpt>
<trkpt lat="40.072842" lon="-105.230575">
  <ele>1586.18</ele>
  <time>2026-08-27T18:30:54Z</time>
  <course>10.75</course>
  <speed>0.01414213562373095</speed>
  <fix>3d</fix>
</trkpt>
<trkpt lat="40.072842" lon="-105.230575">
  <ele>1586.09</ele>
  <time>2026-08-27T18:30:54Z</time>
  <course>267.19</course>
  <speed>0.0</speed>
  <fix>3d</fix>
</trkpt>
<trkpt lat="40.0728419" lon="-105.230575">
  <ele>1586.17</ele>
  <time>2026-08-27T18:30:54Z</time>
  <course>10.71</course>
  <speed>0.01414213562373095</speed>
  <fix>3d</fix>
</trkpt>
<trkpt lat="40.072842" lon="-105.230575">
  <ele>1586.09</ele>
  <time>2026-08-27T18:30:54Z</time>
  <course>272.1</course>
  <speed>0.0</speed>
  <fix>3d</fix>
</trkpt>
<trkpt lat="40.0728419" lon="-105.230575">
  <ele>1586.17</ele>
  <time>2026-08-27T18:30:54Z</time>
  <course>10.67</course>
  <speed>0.022360679774997897</speed>
  <fix>3d</fix>
</trkpt>
<trkpt lat="40.072842" lon="-105.230575">
  <ele>1586.09</ele>
  <time>2026-08-27T18:30:54Z</time>
  <course>269.38</course>
  <speed>0.0</speed>
  <fix>3d</fix>
</trkpt>
<trkpt lat="40.0728419" lon="-105.2305749">
  <ele>1586.17</ele>
  <time>2026-08-27T18:30:54Z</time>
  <course>10.63</course>
  <speed>0.022360679774997897</speed>
  <fix>3d</fix>
</trkpt>
<trkpt lat="40.072842" lon="-105.230575">
  <ele>1586.09</ele>
  <time>2026-08-27T18:30:54Z</time>
  <course>281.36</course>
  <speed>0.0</speed>
  <fix>3d</fix>
</trkpt>
<trkpt lat="40.0728419" lon="-105.2305749">
  <ele>1586.17</ele>
  <time>2026-08-27T18:30:54Z</time>
  <course>10.58</course>
  <speed>0.022360679774997897</speed>
  <fix>3d</fix>
</trkpt>
<trkpt lat="40.072842" lon="-105.230575">
  <ele>1586.09</ele>
  <time>2026-08-27T18:30:54Z</time>
  <course>281.73</course>
  <speed>0.0</speed>
  <fix>3d</fix>
</trkpt>
<trkpt lat="40.0728419" lon="-105.2305749">
  <ele>1586.17</ele>
  <time>2026-08-27T18:30:54Z</time>
  <course>10.54</course>
  <speed>0.022360679774997897</speed>
  <fix>3d</fix>
</trkpt>
<trkpt lat="40.072842" lon="-105.230575">
  <ele>1586.09</ele>
  <time>2026-08-27T18:30:54Z</time>
  <course>267.52</course>
  <speed>0.0</speed>
  <fix>3d</fix>
</trkpt>
<trkpt lat="40.0728419" lon="-105.2305749">
  <ele>1586.17</ele>
  <time>2026-08-27T18:30:54Z</time>
  <course>10.49</course>
  <speed>0.022360679774997897</speed>
  <fix>3d</fix>
</trkpt>
<trkpt lat="40.072842" lon="-105.230575">
  <ele>1586.09</ele>
  <time>2026-08-27T18:30:54Z</time>
  <course>269.34</course>
  <speed>0.0</speed>
  <fix>3d</fix>
</trkpt>
<trkpt lat="40.0728419" lon="-105.2305749">
  <ele>1586.17</ele>
  <time>2026-08-27T18:30:54Z</time>
  <course>10.45</course>
  <speed>0.022360679774997897</speed>
  <fix>3d</fix>
</trkpt>
<trkpt lat="40.072842" lon="-105.230575">
  <ele>1586.09</ele>
  <time>2026-08-27T18:30:54Z</time>
  <course>268.72</course>
  <speed>0.0</speed>
  <fix>3d</fix>
</trkpt>
<trkpt lat="40.0728419" lon="-105.2305749">
  <ele>1586.18</ele>
  <time>2026-08-27T18:30:54Z</time>
  <course>10.4</course>
  <speed>0.022360679774997897</speed>
  <fix>3d</fix>
</trkpt>
<trkpt lat="40.072842" lon="-105.230575">
  <ele>1586.09</ele>
  <time>2026-08-27T18:30:54Z</time>
  <course>268.35</course>
  <speed>0.0</speed>
  <fix>3d</fix>
</trkpt>
<trkpt lat="40.0728419" lon="-105.2305749">
  <ele>1586.18</ele>
  <time>2026-08-27T18:30:54Z</time>
  <course>10.35</course>
  <speed>0.022360679774997897</speed>
  <fix>3d</fix>
</trkpt>
<trkpt lat="40.072842" lon="-105.230575">
  <ele>1586.09</ele>
  <time>2026-08-27T18:30:54Z</time>
  <course>279.69</course>
  <speed>0.0</speed>
  <fix>3d</fix>
</trkpt>
<trkpt lat="40.0728419" lon="-105.2305749">
  <ele>1586.18</ele>
  <time>2026-08-27T18:30:54Z</time>
  <course>10.3</course>
  <speed>0.022360679774997897</speed>
  <fix>3d</fix>
</trkpt>
<trkpt lat="40.072842" lon="-105.230575">
  <ele>1586.09</ele>
  <time>2026-08-27T18:30:54Z</time>
  <course>277.51</course>
  <speed>0.0</speed>
  <fix>3d</fix>
</trkpt>
<trkpt lat="40.0728419" lon="-105.2305749">
  <ele>1586.18</ele>
  <time>2026-08-27T18:30:54Z</time>
  <course>10.25</course>
  <speed>0.022360679774997897</speed>
  <fix>3d</fix>
</trkpt>
<trkpt lat="40.072842" lon="-105.230575">
  <ele>1586.09</ele>
  <time>2026-08-27T18:30:54Z</time>
  <course>269.98</course>
  <speed>0.0</speed>
  <fix>3d</fix>
</trkpt>
<trkpt lat="40.0728419" lon="-105.2305749">
  <ele>1586.18</ele>
  <time>2026-08-27T18:30:54Z</time>
  <course>10.2</course>
  <speed>0.022360679774997897</speed>
  <fix>3d</fix>
</trkpt>
<trkpt lat="40.072842" lon="-105.230575">
  <ele>1586.09</ele>
  <time>2026-08-27T18:30:54Z</time>
  <course>269.19</course>
  <speed>0.0</speed>
  <fix>3d</fix>
</trkpt>
<trkpt lat="40.0728419" lon="-105.2305749">
  <ele>1586.18</ele>
  <time>2026-08-27T18:30:54Z</time>
  <course>10.15</course>
  <speed>0.022360679774997897</speed>
  <fix>3d</fix>
</trkpt>
<trkpt lat="40.072842" lon="-105.230575">
  <ele>1586.09</ele>
  <time>2026-08-27T18:30:54Z</time>
  <course>267.76</course>
  <speed>0.0</speed>
  <fix>3d</fix>
</trkpt>
<trkpt lat="40.0728419" lon="-105.2305749">
  <ele>1586.18</ele>
  <time>2026-08-27T18:30:54Z</time>
  <course>10.1</course>
  <speed>0.022360679774997897</speed>
  <fix>3d</fix>
</trkpt>
<trkpt lat="40.072842" lon="-105.230575">
  <ele>1586.09</ele>
  <time>2026-08-27T18:30:54Z</time>
  <course>269.81</course>
  <speed>0.0</speed>
  <fix>3d</fix>
</trkpt>
<trkpt lat="40.0728419" lon="-105.2305749">
  <ele>1586.18</ele>
  <time>2026-08-27T18:30:54Z</time>
  <course>10.05</course>
  <speed>0.022360679774997897</speed>
  <fix>3d</fix>
</trkpt>
<trkpt lat="40.072842" lon="-105.230575">
  <ele>1586.09</ele>
  <time>2026-08-27T18:30:54Z</time>
  <course>278.91</course>
  <speed>0.0</speed>
  <fix>3d</fix>
</trkpt>
<trkpt lat="40.0728419" lon="-105.2305749">
  <ele>1586.18</ele>
  <time>2026-08-27T18:30:54Z</time>
  <course>10.0</course>
  <speed>0.022360679774997897</speed>
  <fix>3d</fix>
</trkpt>
<trkpt lat="40.072842" lon="-105.230575">
  <ele>1586.09</ele>
  <time>2026-08-27T18:30:54Z</time>
  <course>280.77</course>
  <speed>0.0</speed>
  <fix>3d</fix>
</trkpt>
<trkpt lat="40.0728419" lon="-105.2305749">
  <ele>1586.18</ele>
  <time>2026-08-27T18:30:54Z</time>
  <course>9.95</course>
  <speed>0.022360679774997897</speed>
  <fix>3d</fix>
</trkpt>
<trkpt lat="40.072842" lon="-105.230575">
  <ele>1586.09</ele>
  <time>2026-08-27T18:30:54Z</time>
  <course>271.08</course>
  <speed>0.0</speed>
  <fix>3d</fix>
</trkpt>
<trkpt lat="40.0728419" lon="-105.2305749">
  <ele>1586.18</ele>
  <time>2026-08-27T18:30:54Z</time>
  <course>9.9</course>
  <speed>0.022360679774997897</speed>
  <fix>3d</fix>
</trkpt>
<trkpt lat="40.072842" lon="-105.230575">
  <ele>1586.09</ele>
  <time>2026-08-27T18:30:54Z</time>
  <course>267.04</course>
  <speed>0.0</speed>
  <fix>3d</fix>
</trkpt>
<trkpt lat="40.0728419" lon="-105.2305749">
  <ele>1586.18</ele>
  <time>2026-08-27T18:30:54Z</time>
  <course>9.85</course>
  <speed>0.022360679774997897</speed>
  <fix>3d</fix>
</trkpt>
<trkpt lat="40.072842" lon="-105.230575">
  <ele>1586.09</ele>
  <time>2026-08-27T18:30:54Z</time>
  <course>267.68</course>
  <speed>0.0</speed>
  <fix>3d</fix>
</trkpt>
<trkpt lat="40.0728419" lon="-105.2305749">
  <ele>1586.18</ele>
  <time>2026-08-27T18:30:54Z</time>
  <course>9.81</course>
  <speed>0.022360679774997897</speed>
  <fix>3d</fix>
</trkpt>
<trkpt lat="40.072842" lon="-105.230575">
  <ele>1586.09</ele>
  <time>2026-08-27T18:30:54Z</time>
  <course>270.2</course>
  <speed>0.0</speed>
  <fix>3d</fix>
</trkpt>
<trkpt lat="40.0728419" lon="-105.2305749">
  <ele>1586.18</ele>
  <time>2026-08-27T18:30:54Z</time>
  <course>9.76</course>
  <speed>0.022360679774997897</speed>
  <fix>3d</fix>
</trkpt>
<trkpt lat="40.072842" lon="-105.230575">
  <ele>1586.09</ele>
  <time>2026-08-27T18:30:54Z</time>
  <course>269.56</course>
  <speed>0.0</speed>
  <fix>3d</fix>
</trkpt>
<trkpt lat="40.0728419" lon="-105.2305749">
  <ele>1586.18</ele>
  <time>2026-08-27T18:30:54Z</time>
  <course>9.71</course>
  <speed>0.022360679774997897</speed>
  <fix>3d</fix>
</trkpt>
<trkpt lat="40.072842" lon="-105.230575">
  <ele>1586.09</ele>
  <time>2026-08-27T18:30:54Z</time>
  <course>269.39</course>
  <speed>0.0</speed>
  <fix>3d</fix>
</trkpt>
<trkpt lat="40.0728419" lon="-105.2305749">
  <ele>1586.18</ele>
  <time>2026-08-27T18:30:54Z</time>
  <course>9.67</course>
  <speed>0.022360679774997897</speed>
  <fix>3d</fix>
</trkpt>
<trkpt lat="40.072842" lon="-105.230575">
  <ele>1586.09</ele>
  <time>2026-08-27T18:30:54Z</time>
  <course>277.09</course>
  <speed>0.0</speed>
  <fix>3d</fix>
</trkpt>
<trkpt lat="40.0728419" lon="-105.2305749">
  <ele>1586.18</ele>
  <time>2026-08-27T18:30:55Z</time>
  <course>9.62</course>
  <speed>0.022360679774997897</speed>
  <fix>3d</fix>
</trkpt>
<trkpt lat="40.072842" lon="-105.230575">
  <ele>1586.09</ele>
  <time>2026-08-27T18:30:55Z</time>
  <course>272.51</course>
  <speed>0.0</speed>
  <fix>3d</fix>
</trkpt>
<trkpt lat="40.0728419" lon="-105.2305749">
  <ele>1586.18</ele>
  <time>2026-08-27T18:30:55Z</time>
  <course>9.58</course>
  <speed>0.022360679774997897</speed>
  <fix>3d</fix>
</trkpt>
<trkpt lat="40.072842" lon="-105.230575">
  <ele>1586.09</ele>
  <time>2026-08-27T18:30:55Z</time>
  <course>265.61</course>
  <speed>0.0</speed>
  <fix>3d</fix>
</trkpt>
<trkpt lat="40.0728419" lon="-105.2305749">
  <ele>1586.18</ele>
  <time>2026-08-27T18:30:55Z</time>
  <course>9.54</course>
  <speed>0.022360679774997897</speed>
  <fix>3d</fix>
</trkpt>
<trkpt lat="40.072842" lon="-105.230575">
  <ele>1586.09</ele>
  <time>2026-08-27T18:30:55Z</time>
  <course>268.18</course>
  <speed>0.0</speed>
  <fix>3d</fix>
</trkpt>
<trkpt lat="40.0728419" lon="-105.2305749">
  <ele>1586.18</ele>
  <time>2026-08-27T18:30:55Z</time>
  <course>9.5</course>
  <speed>0.022360679774997897</speed>
  <fix>3d</fix>
</trkpt>
<trkpt lat="40.072842" lon="-105.230575">
  <ele>1586.09</ele>
  <time>2026-08-27T18:30:55Z</time>
  <course>270.07</course>
  <speed>0.0</speed>
  <fix>3d</fix>
</trkpt>
<trkpt lat="40.0728419" lon="-105.2305749">
  <ele>1586.18</ele>
  <time>2026-08-27T18:30:55Z</time>
  <course>9.45</course>
  <speed>0.022360679774997897</speed>
  <fix>3d</fix>
</trkpt>
<trkpt lat="40.072842" lon="-105.230575">
  <ele>1586.09</ele>
  <time>2026-08-27T18:30:55Z</time>
  <course>269.07</course>
  <speed>0.0</speed>
  <fix>3d</fix>
</trkpt>
<trkpt lat="40.0728419" lon="-105.2305749">
  <ele>1586.18</ele>
  <time>2026-08-27T18:30:55Z</time>
  <course>9.41</course>
  <speed>0.022360679774997897</speed>
  <fix>3d</fix>
</trkpt>
<trkpt lat="40.072842" lon="-105.230575">
  <ele>1586.09</ele>
  <time>2026-08-27T18:30:55Z</time>
  <course>268.76</course>
  <speed>0.0</speed>
  <fix>3d</fix>
</trkpt>
<trkpt lat="40.0728419" lon="-105.2305749">
  <ele>1586.17</ele>
  <time>2026-08-27T18:30:55Z</time>
  <course>9.37</course>
  <speed>0.022360679774997897</speed>
  <fix>3d</fix>
</trkpt>
<trkpt lat="40.072842" lon="-105.230575">
  <ele>1586.09</ele>
  <time>2026-08-27T18:30:55Z</time>
  <course>268.79</course>
  <speed>0.0</speed>
  <fix>3d</fix>
</trkpt>
<trkpt lat="40.0728419" lon="-105.2305749">
  <ele>1586.17</ele>
  <time>2026-08-27T18:30:55Z</time>
  <course>9.34</course>
  <speed>0.022360679774997897</speed>
  <fix>3d</fix>
</trkpt>
<trkpt lat="40.072842" lon="-105.230575">
  <ele>1586.09</ele>
  <time>2026-08-27T18:30:55Z</time>
  <course>268.69</course>
  <speed>0.0</speed>
  <fix>3d</fix>
</trkpt>
<trkpt lat="40.0728419" lon="-105.2305749">
  <ele>1586.17</ele>
  <time>2026-08-27T18:30:55Z</time>
  <course>9.3</course>
  <speed>0.022360679774997897</speed>
  <fix>3d</fix>
</trkpt>
<trkpt lat="40.072842" lon="-105.230575">
  <ele>1586.09</ele>
  <time>2026-08-27T18:30:55Z</time>
  <course>267.33</course>
  <speed>0.0</speed>
  <fix>3d</fix>
</trkpt>
<trkpt lat="40.0728419" lon="-105.2305749">
  <ele>1586.17</ele>
  <time>2026-08-27T18:30:55Z</time>
  <course>9.26</course>
  <speed>0.022360679774997897</speed>
  <fix>3d</fix>
</trkpt>
<trkpt lat="40.072842" lon="-105.230575">
  <ele>1586.09</ele>
  <time>2026-08-27T18:30:55Z</time>
  <course>267.52</course>
  <speed>0.0</speed>
  <fix>3d</fix>
</trkpt>
<trkpt lat="40.0728419" lon="-105.2305749">
  <ele>1586.17</ele>
  <time>2026-08-27T18:30:55Z</time>
  <course>9.23</course>
  <speed>0.022360679774997897</speed>
  <fix>3d</fix>
</trkpt>
<trkpt lat="40.072842" lon="-105.230575">
  <ele>1586.09</ele>
  <time>2026-08-27T18:30:55Z</time>
  <course>269.01</course>
  <speed>0.0</speed>
  <fix>3d</fix>
</trkpt>
<trkpt lat="40.0728419" lon="-105.2305749">
  <ele>1586.18</ele>
  <time>2026-08-27T18:30:55Z</time>
  <course>9.19</course>
  <speed>0.022360679774997897</speed>
  <fix>3d</fix>
</trkpt>
<trkpt lat="40.072842" lon="-105.230575">
  <ele>1586.09</ele>
  <time>2026-08-27T18:30:55Z</time>
  <course>268.78</course>
  <speed>0.0</speed>
  <fix>3d</fix>
</trkpt>
<trkpt lat="40.0728419" lon="-105.2305749">
  <ele>1586.18</ele>
  <time>2026-08-27T18:30:55Z</time>
  <course>9.16</course>
  <speed>0.022360679774997897</speed>
  <fix>3d</fix>
</trkpt>
<trkpt lat="40.072842" lon="-105.230575">
  <ele>1586.09</ele>
  <time>2026-08-27T18:30:55Z</time>
  <course>268.68</course>
  <speed>0.0</speed>
  <fix>3d</fix>
</trkpt>
<trkpt lat="40.0728419" lon="-105.2305749">
  <ele>1586.18</ele>
  <time>2026-08-27T18:30:55Z</time>
  <course>9.13</course>
  <speed>0.022360679774997897</speed>
  <fix>3d</fix>
</trkpt>
<trkpt lat="40.072842" lon="-105.230575">
  <ele>1586.09</ele>
  <time>2026-08-27T18:30:55Z</time>
  <course>268.59</course>
  <speed>0.0</speed>
  <fix>3d</fix>
</trkpt>
<trkpt lat="40.0728419" lon="-105.2305749">
  <ele>1586.18</ele>
  <time>2026-08-27T18:30:55Z</time>
  <course>9.1</course>
  <speed>0.022360679774997897</speed>
  <fix>3d</fix>
</trkpt>
<trkpt lat="40.072842" lon="-105.230575">
  <ele>1586.09</ele>
  <time>2026-08-27T18:30:55Z</time>
  <course>268.51</course>
  <speed>0.0</speed>
  <fix>3d</fix>
</trkpt>
<trkpt lat="40.0728419" lon="-105.2305749">
  <ele>1586.18</ele>
  <time>2026-08-27T18:30:55Z</time>
  <course>9.06</course>
  <speed>0.022360679774997897</speed>
  <fix>3d</fix>
</trkpt>
<trkpt lat="40.072842" lon="-105.230575">
  <ele>1586.09</ele>
  <time>2026-08-27T18:30:55Z</time>
  <course>268.48</course>
  <speed>0.0</speed>
  <fix>3d</fix>
</trkpt>
<trkpt lat="40.0728419" lon="-105.2305749">
  <ele>1586.18</ele>
  <time>2026-08-27T18:30:55Z</time>
  <course>9.04</course>
  <speed>0.022360679774997897</speed>
  <fix>3d</fix>
</trkpt>
<trkpt lat="40.072842" lon="-105.230575">
  <ele>1586.09</ele>
  <time>2026-08-27T18:30:55Z</time>
  <course>274.88</course>
  <speed>0.0</speed>
  <fix>3d</fix>
</trkpt>
<trkpt lat="40.0728419" lon="-105.2305749">
  <ele>1586.18</ele>
  <time>2026-08-27T18:30:55Z</time>
  <course>9.01</course>
  <speed>0.022360679774997897</speed>
  <fix>3d</fix>
</trkpt>
<trkpt lat="40.072842" lon="-105.230575">
  <ele>1586.09</ele>
  <time>2026-08-27T18:30:55Z</time>
  <course>275.69</course>
  <speed>0.0</speed>
  <fix>3d</fix>
</trkpt>
<trkpt lat="40.0728419" lon="-105.2305749">
  <ele>1586.19</ele>
  <time>2026-08-27T18:30:55Z</time>
  <course>8.98</course>
  <speed>0.022360679774997897</speed>
  <fix>3d</fix>
</trkpt>
<trkpt lat="40.072842" lon="-105.230575">
  <ele>1586.09</ele>
  <time>2026-08-27T18:30:55Z</time>
  <course>268.26</course>
  <speed>0.0</speed>
  <fix>3d</fix>
</trkpt>
<trkpt lat="40.0728419" lon="-105.2305749">
  <ele>1586.19</ele>
  <time>2026-08-27T18:30:55Z</time>
  <course>8.95</course>
  <speed>0.022360679774997897</speed>
  <fix>3d</fix>
</trkpt>
<trkpt lat="40.072842" lon="-105.230575">
  <ele>1586.09</ele>
  <time>2026-08-27T18:30:55Z</time>
  <course>267.58</course>
  <speed>0.0</speed>
  <fix>3d</fix>
</trkpt>
<trkpt lat="40.0728419" lon="-105.2305749">
  <ele>1586.19</ele>
  <time>2026-08-27T18:30:55Z</time>
  <course>8.92</course>
  <speed>0.022360679774997897</speed>
  <fix>3d</fix>
</trkpt>
<trkpt lat="40.072842" lon="-105.230575">
  <ele>1586.09</ele>
  <time>2026-08-27T18:30:55Z</time>
  <course>268.98</course>
  <speed>0.0</speed>
  <fix>3d</fix>
</trkpt>
<trkpt lat="40.0728419" lon="-105.2305749">
  <ele>1586.19</ele>
  <time>2026-08-27T18:30:55Z</time>
  <course>8.9</course>
  <speed>0.022360679774997897</speed>
  <fix>3d</fix>
</trkpt>
<trkpt lat="40.072842" lon="-105.230575">
  <ele>1586.09</ele>
  <time>2026-08-27T18:30:55Z</time>
  <course>268.69</course>
  <speed>0.0</speed>
  <fix>3d</fix>
</trkpt>
<trkpt lat="40.0728419" lon="-105.2305749">
  <ele>1586.19</ele>
  <time>2026-08-27T18:30:55Z</time>
  <course>8.87</course>
  <speed>0.022360679774997897</speed>
  <fix>3d</fix>
</trkpt>
<trkpt lat="40.072842" lon="-105.230575">
  <ele>1586.09</ele>
  <time>2026-08-27T18:30:55Z</time>
  <course>268.42</course>
  <speed>0.0</speed>
  <fix>3d</fix>
</trkpt>
<trkpt lat="40.0728419" lon="-105.2305749">
  <ele>1586.19</ele>
  <time>2026-08-27T18:30:55Z</time>
  <course>8.85</course>
  <speed>0.022360679774997897</speed>
  <fix>3d</fix>
</trkpt>
<trkpt lat="40.072842" lon="-105.230575">
  <ele>1586.09</ele>
  <time>2026-08-27T18:30:55Z</time>
  <course>269.21</course>
  <speed>0.0</speed>
  <fix>3d</fix>
</trkpt>
<trkpt lat="40.0728419" lon="-105.2305749">
  <ele>1586.18</ele>
  <time>2026-08-27T18:30:55Z</time>
  <course>8.83</course>
  <speed>0.022360679774997897</speed>
  <fix>3d</fix>
</trkpt>
<trkpt lat="40.072842" lon="-105.230575">
  <ele>1586.09</ele>
  <time>2026-08-27T18:30:55Z</time>
  <course>267.81</course>
  <speed>0.0</speed>
  <fix>3d</fix>
</trkpt>
<trkpt lat="40.0728419" lon="-105.2305749">
  <ele>1586.18</ele>
  <time>2026-08-27T18:30:55Z</time>
  <course>8.8</course>
  <speed>0.01414213562373095</speed>
  <fix>3d</fix>
</trkpt>
<trkpt lat="40.072842" lon="-105.230575">
  <ele>1586.09</ele>
  <time>2026-08-27T18:30:55Z</time>
  <course>266.65</course>
  <speed>0.0</speed>
  <fix>3d</fix>
</trkpt>
<trkpt lat="40.0728419" lon="-105.2305749">
  <ele>1586.18</ele>
  <time>2026-08-27T18:30:55Z</time>
  <course>8.78</course>
  <speed>0.01414213562373095</speed>
  <fix>3d</fix>
</trkpt>
<trkpt lat="40.072842" lon="-105.230575">
  <ele>1586.09</ele>
  <time>2026-08-27T18:30:55Z</time>
  <course>271.23</course>
  <speed>0.0</speed>
  <fix>3d</fix>
</trkpt>
<trkpt lat="40.0728419" lon="-105.2305749">
  <ele>1586.18</ele>
  <time>2026-08-27T18:30:55Z</time>
  <course>8.76</course>
  <speed>0.01414213562373095</speed>
  <fix>3d</fix>
</trkpt>
<trkpt lat="40.072842" lon="-105.230575">
  <ele>1586.09</ele>
  <time>2026-08-27T18:30:55Z</time>
  <course>275.69</course>
  <speed>0.0</speed>
  <fix>3d</fix>
</trkpt>
<trkpt lat="40.0728419" lon="-105.2305749">
  <ele>1586.18</ele>
  <time>2026-08-27T18:30:55Z</time>
  <course>8.74</course>
  <speed>0.01414213562373095</speed>
  <fix>3d</fix>
</trkpt>
<trkpt lat="40.072842" lon="-105.230575">
  <ele>1586.09</ele>
  <time>2026-08-27T18:30:55Z</time>
  <course>270.91</course>
  <speed>0.0</speed>
  <fix>3d</fix>
</trkpt>
<trkpt lat="40.0728419" lon="-105.2305749">
  <ele>1586.18</ele>
  <time>2026-08-27T18:30:55Z</time>
  <course>8.73</course>
  <speed>0.01414213562373095</speed>
  <fix>3d</fix>
</trkpt>
<trkpt lat="40.072842" lon="-105.230575">
  <ele>1586.09</ele>
  <time>2026-08-27T18:30:55Z</time>
  <course>267.11</course>
  <speed>0.0</speed>
  <fix>3d</fix>
</trkpt>
<trkpt lat="40.0728419" lon="-105.2305749">
  <ele>1586.18</ele>
  <time>2026-08-27T18:30:55Z</time>
  <course>8.71</course>
  <speed>0.01414213562373095</speed>
  <fix>3d</fix>
</trkpt>
<trkpt lat="40.072842" lon="-105.230575">
  <ele>1586.09</ele>
  <time>2026-08-27T18:30:55Z</time>
  <course>268.72</course>
  <speed>0.0</speed>
  <fix>3d</fix>
</trkpt>
<trkpt lat="40.0728419" lon="-105.2305749">
  <ele>1586.18</ele>
  <time>2026-08-27T18:30:55Z</time>
  <course>8.69</course>
  <speed>0.01414213562373095</speed>
  <fix>3d</fix>
</trkpt>
<trkpt lat="40.072842" lon="-105.230575">
  <ele>1586.09</ele>
  <time>2026-08-27T18:30:55Z</time>
  <course>269.21</course>
  <speed>0.0</speed>
  <fix>3d</fix>
</trkpt>
<trkpt lat="40.0728419" lon="-105.2305749">
  <ele>1586.19</ele>
  <time>2026-08-27T18:30:55Z</time>
  <course>8.68</course>
  <speed>0.01414213562373095</speed>
  <fix>3d</fix>
</trkpt>
<trkpt lat="40.072842" lon="-105.230575">
  <ele>1586.09</ele>
  <time>2026-08-27T18:30:55Z</time>
  <course>268.56</course>
  <speed>0.0</speed>
  <fix>3d</fix>
</trkpt>
<trkpt lat="40.0728419" lon="-105.2305749">
  <ele>1586.19</ele>
  <time>2026-08-27T18:30:55Z</time>
  <course>8.66</course>
  <speed>0.01414213562373095</speed>
  <fix>3d</fix>
</trkpt>
<trkpt lat="40.072842" lon="-105.230575">
  <ele>1586.09</ele>
  <time>2026-08-27T18:30:55Z</time>
  <course>269.09</course>
  <speed>0.0</speed>
  <fix>3d</fix>
</trkpt>
<trkpt lat="40.0728419" lon="-105.2305749">
  <ele>1586.19</ele>
  <time>2026-08-27T18:30:55Z</time>
  <course>8.64</course>
  <speed>0.01414213562373095</speed>
  <fix>3d</fix>
</trkpt>
<trkpt lat="40.072842" lon="-105.230575">
  <ele>1586.09</ele>
  <time>2026-08-27T18:30:55Z</time>
  <course>268.08</course>
  <speed>0.0</speed>
  <fix>3d</fix>
</trkpt>
<trkpt lat="40.0728419" lon="-105.2305749">
  <ele>1586.19</ele>
  <time>2026-08-27T18:30:55Z</time>
  <course>8.63</course>
  <speed>0.01414213562373095</speed>
  <fix>3d</fix>
</trkpt>
<trkpt lat="40.072842" lon="-105.230575">
  <ele>1586.09</ele>
  <time>2026-08-27T18:30:55Z</time>
  <course>267.53</course>
  <speed>0.0</speed>
  <fix>3d</fix>
</trkpt>
<trkpt lat="40.0728419" lon="-105.2305749">
  <ele>1586.19</ele>
  <time>2026-08-27T18:30:55Z</time>
  <course>8.62</course>
  <speed>0.01414213562373095</speed>
  <fix>3d</fix>
</trkpt>
<trkpt lat="40.072842" lon="-105.230575">
  <ele>1586.09</ele>
  <time>2026-08-27T18:30:55Z</time>
  <course>269.01</course>
  <speed>0.0</speed>
  <fix>3d</fix>
</trkpt>
<trkpt lat="40.0728419" lon="-105.2305749">
  <ele>1586.19</ele>
  <time>2026-08-27T18:30:55Z</time>
  <course>8.61</course>
  <speed>0.01414213562373095</speed>
  <fix>3d</fix>
</trkpt>
<trkpt lat="40.072842" lon="-105.230575">
  <ele>1586.09</ele>
  <time>2026-08-27T18:30:55Z</time>
  <course>268.97</course>
  <speed>0.0</speed>
  <fix>3d</fix>
</trkpt>
<trkpt lat="40.0728419" lon="-105.2305749">
  <ele>1586.19</ele>
  <time>2026-08-27T18:30:55Z</time>
  <course>8.6</course>
  <speed>0.01414213562373095</speed>
  <fix>3d</fix>
</trkpt>
<trkpt lat="40.072842" lon="-105.230575">
  <ele>1586.09</ele>
  <time>2026-08-27T18:30:55Z</time>
  <course>273.65</course>
  <speed>0.0</speed>
  <fix>3d</fix>
</trkpt>
<trkpt lat="40.0728419" lon="-105.2305749">
  <ele>1586.19</ele>
  <time>2026-08-27T18:30:55Z</time>
  <course>8.58</course>
  <speed>0.01414213562373095</speed>
  <fix>3d</fix>
</trkpt>
<trkpt lat="40.072842" lon="-105.230575">
  <ele>1586.09</ele>
  <time>2026-08-27T18:30:55Z</time>
  <course>273.06</course>
  <speed>0.0</speed>
  <fix>3d</fix>
</trkpt>
<trkpt lat="40.0728419" lon="-105.2305749">
  <ele>1586.19</ele>
  <time>2026-08-27T18:30:55Z</time>
  <course>8.58</course>
  <speed>0.01414213562373095</speed>
  <fix>3d</fix>
</trkpt>
<trkpt lat="40.072842" lon="-105.230575">
  <ele>1586.09</ele>
  <time>2026-08-27T18:30:55Z</time>
  <course>267.43</course>
  <speed>0.0</speed>
  <fix>3d</fix>
</trkpt>
<trkpt lat="40.0728419" lon="-105.2305749">
  <ele>1586.19</ele>
  <time>2026-08-27T18:30:55Z</time>
  <course>8.57</course>
  <speed>0.01414213562373095</speed>
  <fix>3d</fix>
</trkpt>
<trkpt lat="40.072842" lon="-105.230575">
  <ele>1586.09</ele>
  <time>2026-08-27T18:30:55Z</time>
  <course>268.41</course>
  <speed>0.0</speed>
  <fix>3d</fix>
</trkpt>
<trkpt lat="40.0728419" lon="-105.2305749">
  <ele>1586.19</ele>
  <time>2026-08-27T18:30:55Z</time>
  <course>8.56</course>
  <speed>0.01414213562373095</speed>
  <fix>3d</fix>
</trkpt>
<trkpt lat="40.072842" lon="-105.230575">
  <ele>1586.09</ele>
  <time>2026-08-27T18:30:55Z</time>
  <course>269.3</course>
  <speed>0.0</speed>
  <fix>3d</fix>
</trkpt>
<trkpt lat="40.0728419" lon="-105.2305749">
  <ele>1586.19</ele>
  <time>2026-08-27T18:30:55Z</time>
  <course>8.55</course>
  <speed>0.01414213562373095</speed>
  <fix>3d</fix>
</trkpt>
<trkpt lat="40.072842" lon="-105.230575">
  <ele>1586.09</ele>
  <time>2026-08-27T18:30:55Z</time>
  <course>270.93</course>
  <speed>0.0</speed>
  <fix>3d</fix>
</trkpt>
<trkpt lat="40.0728419" lon="-105.2305749">
  <ele>1586.18</ele>
  <time>2026-08-27T18:30:55Z</time>
  <course>8.55</course>
  <speed>0.01414213562373095</speed>
  <fix>3d</fix>
</trkpt>
<trkpt lat="40.072842" lon="-105.230575">
  <ele>1586.09</ele>
  <time>2026-08-27T18:30:55Z</time>
  <course>268.79</course>
  <speed>0.0</speed>
  <fix>3d</fix>
</trkpt>
<trkpt lat="40.0728419" lon="-105.2305749">
  <ele>1586.18</ele>
  <time>2026-08-27T18:30:55Z</time>
  <course>8.54</course>
  <speed>0.01414213562373095</speed>
  <fix>3d</fix>
</trkpt>
<trkpt lat="40.072842" lon="-105.230575">
  <ele>1586.09</ele>
  <time>2026-08-27T18:30:55Z</time>
  <course>267.25</course>
  <speed>0.0</speed>
  <fix>3d</fix>
</trkpt>
<trkpt lat="40.0728419" lon="-105.2305749">
  <ele>1586.18</ele>
  <time>2026-08-27T18:30:55Z</time>
  <course>8.54</course>
  <speed>0.01414213562373095</speed>
  <fix>3d</fix>
</trkpt>
<trkpt lat="40.072842" lon="-105.230575">
  <ele>1586.09</ele>
  <time>2026-08-27T18:30:55Z</time>
  <course>269.13</course>
  <speed>0.0</speed>
  <fix>3d</fix>
</trkpt>
<trkpt lat="40.0728419" lon="-105.2305749">
  <ele>1586.18</ele>
  <time>2026-08-27T18:30:55Z</time>
  <course>8.53</course>
  <speed>0.01414213562373095</speed>
  <fix>3d</fix>
</trkpt>
<trkpt lat="40.072842" lon="-105.230575">
  <ele>1586.09</ele>
  <time>2026-08-27T18:30:55Z</time>
  <course>269.12</course>
  <speed>0.0</speed>
  <fix>3d</fix>
</trkpt>
<trkpt lat="40.0728419" lon="-105.2305749">
  <ele>1586.18</ele>
  <time>2026-08-27T18:30:55Z</time>
  <course>8.53</course>
  <speed>0.01414213562373095</speed>
  <fix>3d</fix>
</trkpt>
<trkpt lat="40.072842" lon="-105.230575">
  <ele>1586.09</ele>
  <time>2026-08-27T18:30:55Z</time>
  <course>269.07</course>
  <speed>0.0</speed>
  <fix>3d</fix>
</trkpt>
<trkpt lat="40.0728419" lon="-105.2305749">
  <ele>1586.18</ele>
  <time>2026-08-27T18:30:55Z</time>
  <course>8.52</course>
  <speed>0.01414213562373095</speed>
  <fix>3d</fix>
</trkpt>
<trkpt lat="40.072842" lon="-105.230575">
  <ele>1586.09</ele>
  <time>2026-08-27T18:30:55Z</time>
  <course>268.95</course>
  <speed>0.0</speed>
  <fix>3d</fix>
</trkpt>
<trkpt lat="40.0728419" lon="-105.2305749">
  <ele>1586.18</ele>
  <time>2026-08-27T18:30:55Z</time>
  <course>8.52</course>
  <speed>0.01414213562373095</speed>
  <fix>3d</fix>
</trkpt>
<trkpt lat="40.072842" lon="-105.230575">
  <ele>1586.09</ele>
  <time>2026-08-27T18:30:55Z</time>
  <course>275.27</course>
  <speed>0.0</speed>
  <fix>3d</fix>
</trkpt>
<trkpt lat="40.0728419" lon="-105.2305749">
  <ele>1586.18</ele>
  <time>2026-08-27T18:30:55Z</time>
  <course>8.52</course>
  <speed>0.01414213562373095</speed>
  <fix>3d</fix>
</trkpt>
<trkpt lat="40.072842" lon="-105.230575">
  <ele>1586.09</ele>
  <time>2026-08-27T18:30:55Z</time>
  <course>275.44</course>
  <speed>0.0</speed>
  <fix>3d</fix>
</trkpt>
<trkpt lat="40.0728419" lon="-105.2305749">
  <ele>1586.17</ele>
  <time>2026-08-27T18:30:55Z</time>
  <course>8.52</course>
  <speed>0.01414213562373095</speed>
  <fix>3d</fix>
</trkpt>
<trkpt lat="40.072842" lon="-105.230575">
  <ele>1586.09</ele>
  <time>2026-08-27T18:30:55Z</time>
  <course>269.12</course>
  <speed>0.0</speed>
  <fix>3d</fix>
</trkpt>
<trkpt lat="40.0728419" lon="-105.2305749">
  <ele>1586.17</ele>
  <time>2026-08-27T18:30:55Z</time>
  <course>8.52</course>
  <speed>0.01414213562373095</speed>
  <fix>3d</fix>
</trkpt>
<trkpt lat="40.072842" lon="-105.230575">
  <ele>1586.09</ele>
  <time>2026-08-27T18:30:55Z</time>
  <course>268.37</course>
  <speed>0.0</speed>
  <fix>3d</fix>
</trkpt>
<trkpt lat="40.0728419" lon="-105.2305749">
  <ele>1586.19</ele>
  <time>2026-08-27T18:30:55Z</time>
  <course>8.51</course>
  <speed>0.01414213562373095</speed>
  <fix>3d</fix>
</trkpt>
<trkpt lat="40.072842" lon="-105.230575">
  <ele>1586.09</ele>
  <time>2026-08-27T18:30:55Z</time>
  <course>270.76</course>
  <speed>0.0</speed>
  <fix>3d</fix>
</trkpt>
<trkpt lat="40.0728419" lon="-105.2305749">
  <ele>1586.28</ele>
  <time>2026-08-27T18:30:55Z</time>
  <course>8.44</course>
  <speed>0.01414213562373095</speed>
  <fix>3d</fix>
</trkpt>
<trkpt lat="40.072842" lon="-105.230575">
  <ele>1586.13</ele>
  <time>2026-08-27T18:30:55Z</time>
  <course>269.62</course>
  <speed>0.0</speed>
  <fix>3d</fix>
</trkpt>
<trkpt lat="40.0728419" lon="-105.2305749">
  <ele>1586.39</ele>
  <time>2026-08-27T18:30:55Z</time>
  <course>4.45</course>
  <speed>0.08</speed>
  <fix>3d</fix>
</trkpt>
<trkpt lat="40.072842" lon="-105.230575">
  <ele>1586.21</ele>
  <time>2026-08-27T18:30:55Z</time>
  <course>276.16</course>
  <speed>0.01</speed>
  <fix>3d</fix>
</trkpt>
<trkpt lat="40.0728419" lon="-105.2305753">
  <ele>1586.73</ele>
  <time>2026-08-27T18:30:55Z</time>
  <course>1.91</course>
  <speed>0.2570992026436488</speed>
  <fix>3d</fix>
</trkpt>
<trkpt lat="40.072842" lon="-105.2305751">
  <ele>1586.37</ele>
  <time>2026-08-27T18:30:55Z</time>
  <course>276.04</course>
  <speed>0.11</speed>
  <fix>3d</fix>
</trkpt>
<trkpt lat="40.072842" lon="-105.2305755">
  <ele>1586.8</ele>
  <time>2026-08-27T18:30:55Z</time>
  <course>1.6</course>
  <speed>0.28861739379323625</speed>
  <fix>3d</fix>
</trkpt>
<trkpt lat="40.0728421" lon="-105.2305761">
  <ele>1587.15</ele>
  <time>2026-08-27T18:30:55Z</time>
  <course>0.62</course>
  <speed>0.3905124837953327</speed>
  <fix>3d</fix>
</trkpt>
<trkpt lat="40.072842" lon="-105.2305756">
  <ele>1586.69</ele>
  <time>2026-08-27T18:30:55Z</time>
  <course>276.16</course>
  <speed>0.28</speed>
  <fix>3d</fix>
</trkpt>
<trkpt lat="40.0728421" lon="-105.2305763">
  <ele>1587.21</ele>
  <time>2026-08-27T18:30:55Z</time>
  <course>0.5</course>
  <speed>0.4026164427839479</speed>
  <fix>3d</fix>
</trkpt>
<trkpt lat="40.0728422" lon="-105.2305772">
  <ele>1587.58</ele>
  <time>2026-08-27T18:30:55Z</time>
  <course>0.01</course>
  <speed>0.4827007354458868</speed>
  <fix>3d</fix>
</trkpt>
<trkpt lat="40.072842" lon="-105.2305765">
  <ele>1587.09</ele>
  <time>2026-08-27T18:30:55Z</time>
  <course>276.04</course>
  <speed>0.41</speed>
  <fix>3d</fix>
</trkpt>
<trkpt lat="40.0728423" lon="-105.2305774">
  <ele>1587.66</ele>
  <time>2026-08-27T18:30:55Z</time>
  <course>359.96</course>
  <speed>0.49244289008980524</speed>
  <fix>3d</fix>
</trkpt>
<trkpt lat="40.0728424" lon="-105.2305784">
  <ele>1588.02</ele>
  <time>2026-08-27T18:30:55Z</time>
  <course>359.81</course>
  <speed>0.5412947441089743</speed>
  <fix>3d</fix>
</trkpt>
<trkpt lat="40.0728421" lon="-105.2305775">
  <ele>1587.51</ele>
  <time>2026-08-27T18:30:55Z</time>
  <course>275.54</course>
  <speed>0.5</speed>
  <fix>3d</fix>
</trkpt>
<trkpt lat="40.0728424" lon="-105.2305784">
  <ele>1588.03</ele>
  <time>2026-08-27T18:30:55Z</time>
  <course>359.81</course>
  <speed>0.5412947441089743</speed>
  <fix>3d</fix>
</trkpt>
<trkpt lat="40.0728425" lon="-105.2305798">
  <ele>1588.5</ele>
  <time>2026-08-27T18:30:55Z</time>
  <course>359.82</course>
  <speed>0.5903388857258176</speed>
  <fix>3d</fix>
</trkpt>
<trkpt lat="40.0728422" lon="-105.2305787">
  <ele>1587.95</ele>
  <time>2026-08-27T18:30:55Z</time>
  <course>274.95</course>
  <speed>0.57</speed>
  <fix>3d</fix>
</trkpt>
<trkpt lat="40.0728425" lon="-105.23058">
  <ele>1588.58</ele>
  <time>2026-08-27T18:30:55Z</time>
  <course>359.84</course>
  <speed>0.6001666435249463</speed>
  <fix>3d</fix>
</trkpt>
<trkpt lat="40.0728426" lon="-105.2305812">
  <ele>1588.98</ele>
  <time>2026-08-27T18:30:55Z</time>
  <course>359.97</course>
  <speed>0.6296824596572467</speed>
  <fix>3d</fix>
</trkpt>
<trkpt lat="40.0728423" lon="-105.2305801">
  <ele>1588.41</ele>
  <time>2026-08-27T18:30:55Z</time>
  <course>274.53</course>
  <speed>0.62</speed>
  <fix>3d</fix>
</trkpt>
<trkpt lat="40.0728426" lon="-105.2305815">
  <ele>1589.05</ele>
  <time>2026-08-27T18:30:55Z</time>
  <course>358.53</course>
  <speed>0.6296824596572467</speed>
  <fix>3d</fix>
</trkpt>
<trkpt lat="40.0728427" lon="-105.2305828">
  <ele>1589.45</ele>
  <time>2026-08-27T18:30:55Z</time>
  <course>358.64</course>
  <speed>0.6477653896280658</speed>
  <fix>3d</fix>
</trkpt>
<trkpt lat="40.0728424" lon="-105.2305816">
  <ele>1588.87</ele>
  <time>2026-08-27T18:30:55Z</time>
  <course>274.33</course>
  <speed>0.65</speed>
  <fix>3d</fix>
</trkpt>
<trkpt lat="40.0728427" lon="-105.2305831">
  <ele>1589.55</ele>
  <time>2026-08-27T18:30:55Z</time>
  <course>358.65</course>
  <speed>0.6576473218982953</speed>
  <fix>3d</fix>
</trkpt>
<trkpt lat="40.0728428" lon="-105.2305844">
  <ele>1589.93</ele>
  <time>2026-08-27T18:30:55Z</time>
  <course>358.84</course>
  <speed>0.6661080993352355</speed>
  <fix>3d</fix>
</trkpt>
<trkpt lat="40.0728425" lon="-105.2305833">
  <ele>1589.34</ele>
  <time>2026-08-27T18:30:55Z</time>
  <course>274.25</course>
  <speed>0.68</speed>
  <fix>3d</fix>
</trkpt>
<trkpt lat="40.0728428" lon="-105.2305846">
  <ele>1590.01</ele>
  <time>2026-08-27T18:30:55Z</time>
  <course>358.89</course>
  <speed>0.6760177512462228</speed>
  <fix>3d</fix>
</trkpt>
<trkpt lat="40.0728429" lon="-105.230586">
  <ele>1590.41</ele>
  <time>2026-08-27T18:30:55Z</time>
  <course>359.16</course>
  <speed>0.6846897107449476</speed>
  <fix>3d</fix>
</trkpt>
<trkpt lat="40.0728426" lon="-105.2305849">
  <ele>1589.82</ele>
  <time>2026-08-27T18:30:55Z</time>
  <course>274.22</course>
  <speed>0.7</speed>
  <fix>3d</fix>
</trkpt>
<trkpt lat="40.0728429" lon="-105.2305861">
  <ele>1590.43</ele>
  <time>2026-08-27T18:30:55Z</time>
  <course>359.17</course>
  <speed>0.6846897107449476</speed>
  <fix>3d</fix>
</trkpt>
<trkpt lat="40.0728429" lon="-105.2305877">
  <ele>1590.89</ele>
  <time>2026-08-27T18:30:55Z</time>
  <course>359.49</course>
  <speed>0.7034912934784623</speed>
  <fix>3d</fix>
</trkpt>
<trkpt lat="40.0728426" lon="-105.2305865">
  <ele>1590.3</ele>
  <time>2026-08-27T18:30:55Z</time>
  <course>274.28</course>
  <speed>0.71</speed>
  <fix>3d</fix>
</trkpt>
<trkpt lat="40.0728429" lon="-105.230588">
  <ele>1590.97</ele>
  <time>2026-08-27T18:30:55Z</time>
  <course>359.55</course>
  <speed>0.7034912934784623</speed>
  <fix>3d</fix>
</trkpt>
<trkpt lat="40.072843" lon="-105.2305894">
  <ele>1591.37</ele>
  <time>2026-08-27T18:30:55Z</time>
  <course>359.87</course>
  <speed>0.7125307010929425</speed>
  <fix>3d</fix>
</trkpt>
<trkpt lat="40.0728427" lon="-105.2305882">
  <ele>1590.78</ele>
  <time>2026-08-27T18:30:55Z</time>
  <course>274.41</course>
  <speed>0.73</speed>
  <fix>3d</fix>
</trkpt>
<trkpt lat="40.072843" lon="-105.2305897">
  <ele>1591.44</ele>
  <time>2026-08-27T18:30:55Z</time>
  <course>359.93</course>
  <speed>0.7125307010929425</speed>
  <fix>3d</fix>
</trkpt>
<trkpt lat="40.072843" lon="-105.2305912">
  <ele>1591.86</ele>
  <time>2026-08-27T18:30:55Z</time>
  <course>0.26</course>
  <speed>0.7217340230306452</speed>
  <fix>3d</fix>
</trkpt>
<trkpt lat="40.0728429" lon="-105.2305899">
  <ele>1591.25</ele>
  <time>2026-08-27T18:30:55Z</time>
  <course>274.61</course>
  <speed>0.74</speed>
  <fix>3d</fix>
</trkpt>
<trkpt lat="40.072843" lon="-105.2305915">
  <ele>1591.94</ele>
  <time>2026-08-27T18:30:55Z</time>
  <course>0.34</course>
  <speed>0.7217340230306452</speed>
  <fix>3d</fix>
</trkpt>
<trkpt lat="40.0728431" lon="-105.2305929">
  <ele>1592.34</ele>
  <time>2026-08-27T18:30:55Z</time>
  <course>0.71</course>
  <speed>0.7310950690573697</speed>
  <fix>3d</fix>
</trkpt>
<trkpt lat="40.072843" lon="-105.2305917">
  <ele>1591.73</ele>
  <time>2026-08-27T18:30:55Z</time>
  <course>274.87</course>
  <speed>0.75</speed>
  <fix>3d</fix>
</trkpt>
<trkpt lat="40.0728431" lon="-105.2305932">
  <ele>1592.42</ele>
  <time>2026-08-27T18:30:55Z</time>
  <course>0.76</course>
  <speed>0.7310950690573697</speed>
  <fix>3d</fix>
</trkpt>
<trkpt lat="40.0728432" lon="-105.2305947">
  <ele>1592.83</ele>
  <time>2026-08-27T18:30:55Z</time>
  <course>1.07</course>
  <speed>0.7310950690573697</speed>
  <fix>3d</fix>
</trkpt>
<trkpt lat="40.0728431" lon="-105.2305935">
  <ele>1592.22</ele>
  <time>2026-08-27T18:30:55Z</time>
  <course>275.15</course>
  <speed>0.75</speed>
  <fix>3d</fix>
</trkpt>
<trkpt lat="40.0728432" lon="-105.2305947">
  <ele>1592.83</ele>
  <time>2026-08-27T18:30:55Z</time>
  <course>1.08</course>
  <speed>0.7310950690573697</speed>
  <fix>3d</fix>
</trkpt>
<trkpt lat="40.0728433" lon="-105.2305965">
  <ele>1593.31</ele>
  <time>2026-08-27T18:30:55Z</time>
  <course>1.39</course>
  <speed>0.7410802925459562</speed>
  <fix>3d</fix>
</trkpt>
<trkpt lat="40.0728432" lon="-105.2305953">
  <ele>1592.7</ele>
  <time>2026-08-27T18:30:55Z</time>
  <course>275.42</course>
  <speed>0.76</speed>
  <fix>3d</fix>
</trkpt>
<trkpt lat="40.0728433" lon="-105.2305968">
  <ele>1593.39</ele>
  <time>2026-08-27T18:30:55Z</time>
  <course>1.44</course>
  <speed>0.7410802925459562</speed>
  <fix>3d</fix>
</trkpt>
<trkpt lat="40.0728434" lon="-105.2305983">
  <ele>1593.79</ele>
  <time>2026-08-27T18:30:55Z</time>
  <course>1.68</course>
  <speed>0.740607858451421</speed>
  <fix>3d</fix>
</trkpt>
<trkpt lat="40.0728433" lon="-105.2305971">
  <ele>1593.17</ele>
  <time>2026-08-27T18:30:55Z</time>
  <course>275.65</course>
  <speed>0.76</speed>
  <fix>3d</fix>
</trkpt>
<trkpt lat="40.0728434" lon="-105.2305986">
  <ele>1593.87</ele>
  <time>2026-08-27T18:30:55Z</time>
  <course>1.72</course>
  <speed>0.740607858451421</speed>
  <fix>3d</fix>
</trkpt>
<trkpt lat="40.0728435" lon="-105.2306001">
  <ele>1594.28</ele>
  <time>2026-08-27T18:30:55Z</time>
  <course>1.93</course>
  <speed>0.7505997601918082</speed>
  <fix>3d</fix>
</trkpt>
<trkpt lat="40.0728435" lon="-105.2305988">
  <ele>1593.66</ele>
  <time>2026-08-27T18:30:55Z</time>
  <course>275.82</course>
  <speed>0.76</speed>
  <fix>3d</fix>
</trkpt>
<trkpt lat="40.0728435" lon="-105.2306005">
  <ele>1594.36</ele>
  <time>2026-08-27T18:30:55Z</time>
  <course>1.98</course>
  <speed>0.7505997601918082</speed>
  <fix>3d</fix>
</trkpt>
<trkpt lat="40.0728436" lon="-105.2306019">
  <ele>1594.76</ele>
  <time>2026-08-27T18:30:55Z</time>
  <course>2.16</course>
  <speed>0.7505997601918082</speed>
  <fix>3d</fix>
</trkpt>
<trkpt lat="40.0728436" lon="-105.2306006">
  <ele>1594.14</ele>
  <time>2026-08-27T18:30:55Z</time>
  <course>275.95</course>
  <speed>0.76</speed>
  <fix>3d</fix>
</trkpt>
<trkpt lat="40.0728436" lon="-105.2306022">
  <ele>1594.83</ele>
  <time>2026-08-27T18:30:55Z</time>
  <course>2.19</course>
  <speed>0.7505997601918082</speed>
  <fix>3d</fix>
</trkpt>
<trkpt lat="40.0728437" lon="-105.2306037">
  <ele>1595.24</ele>
  <time>2026-08-27T18:30:55Z</time>
  <course>2.38</course>
  <speed>0.7505997601918082</speed>
  <fix>3d</fix>
</trkpt>
<trkpt lat="40.0728438" lon="-105.2306024">
  <ele>1594.62</ele>
  <time>2026-08-27T18:30:55Z</time>
  <course>276.04</course>
  <speed>0.76</speed>
  <fix>3d</fix>
</trkpt>
<trkpt lat="40.0728438" lon="-105.2306041">
  <ele>1595.33</ele>
  <time>2026-08-27T18:30:55Z</time>
  <course>2.43</course>
  <speed>0.7505997601918082</speed>
  <fix>3d</fix>
</trkpt>
<trkpt lat="40.0728439" lon="-105.2306055">
  <ele>1595.71</ele>
  <time>2026-08-27T18:30:55Z</time>
  <course>3.32</course>
  <speed>0.7610519036176179</speed>
  <fix>3d</fix>
</trkpt>
<trkpt lat="40.0728439" lon="-105.2306041">
  <ele>1595.1</ele>
  <time>2026-08-27T18:30:55Z</time>
  <course>276.07</course>
  <speed>0.75</speed>
  <fix>3d</fix>
</trkpt>
<trkpt lat="40.072844" lon="-105.2306073">
  <ele>1596.03</ele>
  <time>2026-08-27T18:30:55Z</time>
  <course>6.55</course>
  <speed>0.7410802925459562</speed>
  <fix>3d</fix>
</trkpt>
<trkpt lat="40.0728441" lon="-105.230606">
  <ele>1595.55</ele>
  <time>2026-08-27T18:30:55Z</time>
  <course>276.0</course>
  <speed>0.76</speed>
  <fix>3d</fix>
</trkpt>
<trkpt lat="40.0728442" lon="-105.230609">
  <ele>1596.24</ele>
  <time>2026-08-27T18:30:55Z</time>
  <course>7.44</course>
  <speed>0.711125867902441</speed>
  <fix>3d</fix>
</trkpt>
<trkpt lat="40.0728442" lon="-105.2306077">
  <ele>1595.87</ele>
  <time>2026-08-27T18:30:55Z</time>
  <course>276.26</course>
  <speed>0.74</speed>
  <fix>3d</fix>
</trkpt>
<trkpt lat="40.0728443" lon="-105.2306107">
  <ele>1596.37</ele>
  <time>2026-08-27T18:30:55Z</time>
  <course>7.59</course>
  <speed>0.6818357573492314</speed>
  <fix>3d</fix>
</trkpt>
<trkpt lat="40.0728443" lon="-105.2306094">
  <ele>1596.08</ele>
  <time>2026-08-27T18:30:55Z</time>
  <course>277.04</course>
  <speed>0.71</speed>
  <fix>3d</fix>
</trkpt>
<trkpt lat="40.0728445" lon="-105.2306123">
  <ele>1596.46</ele>
  <time>2026-08-27T18:30:55Z</time>
  <course>7.64</course>
  <speed>0.6519202405202649</speed>
  <fix>3d</fix>
</trkpt>
<trkpt lat="40.0728445" lon="-105.2306111">
  <ele>1596.21</ele>
  <time>2026-08-27T18:30:55Z</time>
  <course>277.95</course>
  <speed>0.68</speed>
  <fix>3d</fix>
</trkpt>
<trkpt lat="40.0728446" lon="-105.2306138">
  <ele>1596.51</ele>
  <time>2026-08-27T18:30:55Z</time>
  <course>7.62</course>
  <speed>0.6120457499239742</speed>
  <fix>3d</fix>
</trkpt>
<trkpt lat="40.0728447" lon="-105.2306126">
  <ele>1596.29</ele>
  <time>2026-08-27T18:30:55Z</time>
  <course>278.94</course>
  <speed>0.65</speed>
  <fix>3d</fix>
</trkpt>
<trkpt lat="40.0728448" lon="-105.2306152">
  <ele>1596.55</ele>
  <time>2026-08-27T18:30:55Z</time>
  <course>7.45</course>
  <speed>0.5721887800367987</speed>
  <fix>3d</fix>
</trkpt>
<trkpt lat="40.0728449" lon="-105.2306141">
  <ele>1596.33</ele>
  <time>2026-08-27T18:30:55Z</time>
  <course>280.03</course>
  <speed>0.62</speed>
  <fix>3d</fix>
</trkpt>
<trkpt lat="40.072845" lon="-105.2306165">
  <ele>1596.59</ele>
  <time>2026-08-27T18:30:55Z</time>
  <course>7.39</course>
  <speed>0.5124451190127582</speed>
  <fix>3d</fix>
</trkpt>
<trkpt lat="40.072845" lon="-105.2306155">
  <ele>1596.37</ele>
  <time>2026-08-27T18:30:55Z</time>
  <course>281.21</course>
  <speed>0.58</speed>
  <fix>3d</fix>
</trkpt>
<trkpt lat="40.0728452" lon="-105.2306176">
  <ele>1596.63</ele>
  <time>2026-08-27T18:30:55Z</time>
  <course>7.3</course>
  <speed>0.44181444068749043</speed>
  <fix>3d</fix>
</trkpt>
<trkpt lat="40.0728453" lon="-105.2306168">
  <ele>1596.41</ele>
  <time>2026-08-27T18:30:55Z</time>
  <course>282.57</course>
  <speed>0.52</speed>
  <fix>3d</fix>
</trkpt>
<trkpt lat="40.0728453" lon="-105.2306186">
  <ele>1596.67</ele>
  <time>2026-08-27T18:30:55Z</time>
  <course>7.15</course>
  <speed>0.36124783736376886</speed>
  <fix>3d</fix>
</trkpt>
<trkpt lat="40.0728455" lon="-105.2306179">
  <ele>1596.45</ele>
  <time>2026-08-27T18:30:55Z</time>
  <course>284.48</course>
  <speed>0.44</speed>
  <fix>3d</fix>
</trkpt>
<trkpt lat="40.0728455" lon="-105.2306193">
  <ele>1596.73</ele>
  <time>2026-08-27T18:30:55Z</time>
  <course>6.96</course>
  <speed>0.280713376952364</speed>
  <fix>3d</fix>
</trkpt>
<trkpt lat="40.0728457" lon="-105.2306188">
  <ele>1596.5</ele>
  <time>2026-08-27T18:30:55Z</time>
  <course>287.32</course>
  <speed>0.37</speed>
  <fix>3d</fix>
</trkpt>
<trkpt lat="40.0728457" lon="-105.2306199">
  <ele>1596.81</ele>
  <time>2026-08-27T18:30:55Z</time>
  <course>6.84</course>
  <speed>0.2102379604162864</speed>
  <fix>3d</fix>
</trkpt>
<trkpt lat="40.0728459" lon="-105.2306196">
  <ele>1596.57</ele>
  <time>2026-08-27T18:30:55Z</time>
  <course>291.18</course>
  <speed>0.29</speed>
  <fix>3d</fix>
</trkpt>
<trkpt lat="40.0728458" lon="-105.2306204">
  <ele>1596.9</ele>
  <time>2026-08-27T18:30:55Z</time>
  <course>6.77</course>
  <speed>0.15</speed>
  <fix>3d</fix>
</trkpt>
<trkpt lat="40.0728461" lon="-105.2306201">
  <ele>1596.65</ele>
  <time>2026-08-27T18:30:55Z</time>
  <course>295.92</course>
  <speed>0.22</speed>
  <fix>3d</fix>
</trkpt>
<trkpt lat="40.072846" lon="-105.2306207">
  <ele>1597.01</ele>
  <time>2026-08-27T18:30:55Z</time>
  <course>6.79</course>
  <speed>0.1</speed>
  <fix>3d</fix>
</trkpt>
<trkpt lat="40.0728462" lon="-105.2306205">
  <ele>1596.75</ele>
  <time>2026-08-27T18:30:55Z</time>
  <course>301.52</course>
  <speed>0.16</speed>
  <fix>3d</fix>
</trkpt>
<trkpt lat="40.0728461" lon="-105.2306209">
  <ele>1597.12</ele>
  <time>2026-08-27T18:30:55Z</time>
  <course>6.9</course>
  <speed>0.05099019513592785</speed>
  <fix>3d</fix>
</trkpt>
<trkpt lat="40.0728464" lon="-105.2306208">
  <ele>1596.85</ele>
  <time>2026-08-27T18:30:55Z</time>
  <course>308.36</course>
  <speed>0.11</speed>
  <fix>3d</fix>
</trkpt>
<trkpt lat="40.0728462" lon="-105.2306209">
  <ele>1597.23</ele>
  <time>2026-08-27T18:30:55Z</time>
  <course>7.05</course>
  <speed>0.0316227766016838</speed>
  <fix>3d</fix>
</trkpt>
<trkpt lat="40.0728465" lon="-105.2306209">
  <ele>1596.97</ele>
  <time>2026-08-27T18:30:55Z</time>
  <course>318.97</course>
  <speed>0.06</speed>
  <fix>3d</fix>
</trkpt>
<trkpt lat="40.0728463" lon="-105.2306209">
  <ele>1597.34</ele>
  <time>2026-08-27T18:30:55Z</time>
  <course>7.21</course>
  <speed>0.0412310562561766</speed>
  <fix>3d</fix>
</trkpt>
<trkpt lat="40.0728466" lon="-105.230621">
  <ele>1597.09</ele>
  <time>2026-08-27T18:30:55Z</time>
  <course>347.45</course>
  <speed>0.03</speed>
  <fix>3d</fix>
</trkpt>
<trkpt lat="40.0728463" lon="-105.2306209">
  <ele>1597.45</ele>
  <time>2026-08-27T18:30:55Z</time>
  <course>7.35</course>
  <speed>0.07211102550927978</speed>
  <fix>3d</fix>
</trkpt>
<trkpt lat="40.0728466" lon="-105.230621">
  <ele>1597.2</ele>
  <time>2026-08-27T18:30:55Z</time>
  <course>68.34</course>
  <speed>0.02</speed>
  <fix>3d</fix>
</trkpt>
<trkpt lat="40.0728463" lon="-105.2306208">
  <ele>1597.55</ele>
  <time>2026-08-27T18:30:55Z</time>
  <course>7.54</course>
  <speed>0.09899494936611665</speed>
  <fix>3d</fix>
</trkpt>
<trkpt lat="40.0728466" lon="-105.2306209">
  <ele>1597.31</ele>
  <time>2026-08-27T18:30:55Z</time>
  <course>102.18</course>
  <speed>0.05</speed>
  <fix>3d</fix>
</trkpt>
<trkpt lat="40.0728463" lon="-105.2306206">
  <ele>1597.64</ele>
  <time>2026-08-27T18:30:55Z</time>
  <course>7.74</course>
  <speed>0.15620499351813308</speed>
  <fix>3d</fix>
</trkpt>
<trkpt lat="40.0728466" lon="-105.2306208">
  <ele>1597.4</ele>
  <time>2026-08-27T18:30:55Z</time>
  <course>111.09</course>
  <speed>0.09</speed>
  <fix>3d</fix>
</trkpt>
<trkpt lat="40.0728462" lon="-105.2306202">
  <ele>1597.71</ele>
  <time>2026-08-27T18:30:55Z</time>
  <course>8.01</course>
  <speed>0.24186773244895649</speed>
  <fix>3d</fix>
</trkpt>
<trkpt lat="40.0728466" lon="-105.2306206">
  <ele>1597.5</ele>
  <time>2026-08-27T18:30:55Z</time>
  <course>111.8</course>
  <speed>0.15</speed>
  <fix>3d</fix>
</trkpt>
<trkpt lat="40.072846" lon="-105.2306195">
  <ele>1597.76</ele>
  <time>2026-08-27T18:30:55Z</time>
  <course>6.13</course>
  <speed>0.3676955262170047</speed>
  <fix>3d</fix>
</trkpt>
<trkpt lat="40.0728465" lon="-105.2306201">
  <ele>1597.58</ele>
  <time>2026-08-27T18:30:55Z</time>
  <course>108.73</course>
  <speed>0.24</speed>
  <fix>3d</fix>
</trkpt>
<trkpt lat="40.0728458" lon="-105.2306185">
  <ele>1597.79</ele>
  <time>2026-08-27T18:30:55Z</time>
  <course>6.45</course>
  <speed>0.5154609587543949</speed>
  <fix>3d</fix>
</trkpt>
<trkpt lat="40.0728462" lon="-105.2306194">
  <ele>1597.63</ele>
  <time>2026-08-27T18:30:55Z</time>
  <course>105.79</course>
  <speed>0.37</speed>
  <fix>3d</fix>
</trkpt>
<trkpt lat="40.0728456" lon="-105.2306172">
  <ele>1597.8</ele>
  <time>2026-08-27T18:30:55Z</time>
  <course>6.49</course>
  <speed>0.7034202158027589</speed>
  <fix>3d</fix>
</trkpt>
<trkpt lat="40.0728461" lon="-105.2306184">
  <ele>1597.65</ele>
  <time>2026-08-27T18:30:55Z</time>
  <course>103.05</course>
  <speed>0.52</speed>
  <fix>3d</fix>
</trkpt>
<trkpt lat="40.0728454" lon="-105.2306153">
  <ele>1597.79</ele>
  <time>2026-08-27T18:30:55Z</time>
  <course>6.37</course>
  <speed>0.9100549433962765</speed>
  <fix>3d</fix>
</trkpt>
<trkpt lat="40.0728459" lon="-105.230617">
  <ele>1597.66</ele>
  <time>2026-08-27T18:30:55Z</time>
  <course>100.51</course>
  <speed>0.71</speed>
  <fix>3d</fix>
</trkpt>
<trkpt lat="40.0728451" lon="-105.230613">
  <ele>1597.77</ele>
  <time>2026-08-27T18:30:55Z</time>
  <course>6.44</course>
  <speed>1.0965856099730653</speed>
  <fix>3d</fix>
</trkpt>
<trkpt lat="40.0728457" lon="-105.2306151">
  <ele>1597.65</ele>
  <time>2026-08-27T18:30:55Z</time>
  <course>98.51</course>
  <speed>0.91</speed>
  <fix>3d</fix>
</trkpt>
<trkpt lat="40.0728449" lon="-105.2306103">
  <ele>1597.75</ele>
  <time>2026-08-27T18:30:55Z</time>
  <course>17.82</course>
  <speed>1.2205326705991937</speed>
  <fix>3d</fix>
</trkpt>
<trkpt lat="40.0728454" lon="-105.2306127">
  <ele>1597.64</ele>
  <time>2026-08-27T18:30:55Z</time>
  <course>96.96</course>
  <speed>1.07</speed>
  <fix>3d</fix>
</trkpt>
<trkpt lat="40.0728448" lon="-105.2306073">
  <ele>1597.74</ele>
  <time>2026-08-27T18:30:55Z</time>
  <course>30.39</course>
  <speed>1.3744089638822936</speed>
  <fix>3d</fix>
</trkpt>
<trkpt lat="40.0728451" lon="-105.23061">
  <ele>1597.62</ele>
  <time>2026-08-27T18:30:55Z</time>
  <course>95.0</course>
  <speed>1.22</speed>
  <fix>3d</fix>
</trkpt>
<trkpt lat="40.0728447" lon="-105.230604">
  <ele>1597.73</ele>
  <time>2026-08-27T18:30:55Z</time>
  <course>42.73</course>
  <speed>1.500133327407934</speed>
  <fix>3d</fix>
</trkpt>
<trkpt lat="40.072845" lon="-105.230607">
  <ele>1597.61</ele>
  <time>2026-08-27T18:30:55Z</time>
  <course>92.27</course>
  <speed>1.37</speed>
  <fix>3d</fix>
</trkpt>
<trkpt lat="40.0728449" lon="-105.2306005">
  <ele>1597.72</ele>
  <time>2026-08-27T18:30:55Z</time>
  <course>54.92</course>
  <speed>1.5807909412695913</speed>
  <fix>3d</fix>
</trkpt>
<trkpt lat="40.072845" lon="-105.2306037">
  <ele>1597.6</ele>
  <time>2026-08-27T18:30:55Z</time>
  <course>89.28</course>
  <speed>1.48</speed>
  <fix>3d</fix>
</trkpt>
<trkpt lat="40.0728451" lon="-105.2305967">
  <ele>1597.72</ele>
  <time>2026-08-27T18:30:55Z</time>
  <course>67.28</course>
  <speed>1.6337074401495513</speed>
  <fix>3d</fix>
</trkpt>
<trkpt lat="40.072845" lon="-105.2306001">
  <ele>1597.6</ele>
  <time>2026-08-27T18:30:55Z</time>
  <course>86.69</course>
  <speed>1.57</speed>
  <fix>3d</fix>
</trkpt>
<trkpt lat="40.0728453" lon="-105.2305929">
  <ele>1597.73</ele>
  <time>2026-08-27T18:30:55Z</time>
  <course>79.59</course>
  <speed>1.6559287424282483</speed>
  <fix>3d</fix>
</trkpt>
<trkpt lat="40.0728452" lon="-105.2305964">
  <ele>1597.6</ele>
  <time>2026-08-27T18:30:55Z</time>
  <course>85.0</course>
  <speed>1.62</speed>
  <fix>3d</fix>
</trkpt>
<trkpt lat="40.0728456" lon="-105.2305891">
  <ele>1597.73</ele>
  <time>2026-08-27T18:30:55Z</time>
  <course>86.13</course>
  <speed>1.6614752480852673</speed>
  <fix>3d</fix>
</trkpt>
<trkpt lat="40.0728455" lon="-105.2305925">
  <ele>1597.6</ele>
  <time>2026-08-27T18:30:55Z</time>
  <course>84.99</course>
  <speed>1.64</speed>
  <fix>3d</fix>
</trkpt>
<trkpt lat="40.0728457" lon="-105.2305853">
  <ele>1597.74</ele>
  <time>2026-08-27T18:30:55Z</time>
  <course>87.1</course>
  <speed>1.6404877323527902</speed>
  <fix>3d</fix>
</trkpt>
<trkpt lat="40.0728457" lon="-105.2305886">
  <ele>1597.61</ele>
  <time>2026-08-27T18:30:55Z</time>
  <course>86.45</course>
  <speed>1.64</speed>
  <fix>3d</fix>
</trkpt>
<trkpt lat="40.0728458" lon="-105.2305815">
  <ele>1597.74</ele>
  <time>2026-08-27T18:30:55Z</time>
  <course>88.15</course>
  <speed>1.58</speed>
  <fix>3d</fix>
</trkpt>
<trkpt lat="40.0728458" lon="-105.2305848">
  <ele>1597.61</ele>
  <time>2026-08-27T18:30:55Z</time>
  <course>88.0</course>
  <speed>1.62</speed>
  <fix>3d</fix>
</trkpt>
<trkpt lat="40.0728458" lon="-105.2305779">
  <ele>1597.74</ele>
  <time>2026-08-27T18:30:55Z</time>
  <course>89.49</course>
  <speed>1.4601369798755184</speed>
  <fix>3d</fix>
</trkpt>
<trkpt lat="40.0728459" lon="-105.2305811">
  <ele>1597.62</ele>
  <time>2026-08-27T18:30:55Z</time>
  <course>89.35</course>
  <speed>1.55</speed>
  <fix>3d</fix>
</trkpt>
<trkpt lat="40.0728458" lon="-105.2305747">
  <ele>1597.74</ele>
  <time>2026-08-27T18:30:55Z</time>
  <course>91.01</course>
  <speed>1.2909686285886268</speed>
  <fix>3d</fix>
</trkpt>
<trkpt lat="40.0728459" lon="-105.2305776">
  <ele>1597.62</ele>
  <time>2026-08-27T18:30:55Z</time>
  <course>90.77</course>
  <speed>1.43</speed>
  <fix>3d</fix>
</trkpt>
<trkpt lat="40.0728458" lon="-105.230572">
  <ele>1597.74</ele>
  <time>2026-08-27T18:30:55Z</time>
  <course>92.84</course>
  <speed>1.0722872749408154</speed>
  <fix>3d</fix>
</trkpt>
<trkpt lat="40.0728458" lon="-105.2305744">
  <ele>1597.63</ele>
  <time>2026-08-27T18:30:55Z</time>
  <course>92.43</course>
  <speed>1.26</speed>
  <fix>3d</fix>
</trkpt>
<trkpt lat="40.0728456" lon="-105.2305698">
  <ele>1597.74</ele>
  <time>2026-08-27T18:30:55Z</time>
  <course>95.03</course>
  <speed>0.8075270893288967</speed>
  <fix>3d</fix>
</trkpt>
<trkpt lat="40.0728457" lon="-105.2305717">
  <ele>1597.63</ele>
  <time>2026-08-27T18:30:55Z</time>
  <course>94.59</course>
  <speed>1.03</speed>
  <fix>3d</fix>
</trkpt>
<trkpt lat="40.0728454" lon="-105.2305683">
  <ele>1597.75</ele>
  <time>2026-08-27T18:30:55Z</time>
  <course>94.83</course>
  <speed>0.5263078946776306</speed>
  <fix>3d</fix>
</trkpt>
<trkpt lat="40.0728457" lon="-105.2305696">
  <ele>1597.64</ele>
  <time>2026-08-27T18:30:55Z</time>
  <course>98.66</course>
  <speed>0.77</speed>
  <fix>3d</fix>
</trkpt>
<trkpt lat="40.0728451" lon="-105.2305674">
  <ele>1597.74</ele>
  <time>2026-08-27T18:30:55Z</time>
  <course>94.83</course>
  <speed>0.266270539113887</speed>
  <fix>3d</fix>
</trkpt>
<trkpt lat="40.0728454" lon="-105.2305681">
  <ele>1597.63</ele>
  <time>2026-08-27T18:30:55Z</time>
  <course>107.16</course>
  <speed>0.49</speed>
  <fix>3d</fix>
</trkpt>
<trkpt lat="40.0728448" lon="-105.2305672">
  <ele>1597.74</ele>
  <time>2026-08-27T18:30:55Z</time>
  <course>94.75</course>
  <speed>0.17262676501632068</speed>
  <fix>3d</fix>
</trkpt>
<trkpt lat="40.0728451" lon="-105.2305673">
  <ele>1597.63</ele>
  <time>2026-08-27T18:30:55Z</time>
  <course>132.45</course>
  <speed>0.24</speed>
  <fix>3d</fix>
</trkpt>
<trkpt lat="40.0728445" lon="-105.2305675">
  <ele>1597.73</ele>
  <time>2026-08-27T18:30:55Z</time>
  <course>94.64</course>
  <speed>0.31240998703626616</speed>
  <fix>3d</fix>
</trkpt>
<trkpt lat="40.0728448" lon="-105.2305672">
  <ele>1597.62</ele>
  <time>2026-08-27T18:30:55Z</time>
  <course>202.83</course>
  <speed>0.2</speed>
  <fix>3d</fix>
</trkpt>
<trkpt lat="40.0728441" lon="-105.2305682">
  <ele>1597.73</ele>
  <time>2026-08-27T18:30:56Z</time>
  <course>94.53</course>
  <speed>0.439089968002003</speed>
  <fix>3d</fix>
</trkpt>
<trkpt lat="40.0728445" lon="-105.2305676">
  <ele>1597.62</ele>
  <time>2026-08-27T18:30:56Z</time>
  <course>233.47</course>
  <speed>0.35</speed>
  <fix>3d</fix>
</trkpt>
<trkpt lat="40.0728437" lon="-105.2305692">
  <ele>1597.72</ele>
  <time>2026-08-27T18:30:56Z</time>
  <course>94.45</course>
  <speed>0.51</speed>
  <fix>3d</fix>
</trkpt>
<trkpt lat="40.0728441" lon="-105.2305684">
  <ele>1597.61</ele>
  <time>2026-08-27T18:30:56Z</time>
  <course>241.4</course>
  <speed>0.48</speed>
  <fix>3d</fix>
</trkpt>
<trkpt lat="40.0728433" lon="-105.2305704">
  <ele>1597.72</ele>
  <time>2026-08-27T18:30:56Z</time>
  <course>94.38</course>
  <speed>0.5188448708429139</speed>
  <fix>3d</fix>
</trkpt>
<trkpt lat="40.0728436" lon="-105.2305696">
  <ele>1597.61</ele>
  <time>2026-08-27T18:30:56Z</time>
  <course>243.73</course>
  <speed>0.56</speed>
  <fix>3d</fix>
</trkpt>
<trkpt lat="40.0728427" lon="-105.2305715">
  <ele>1597.71</ele>
  <time>2026-08-27T18:30:56Z</time>
  <course>86.05</course>
  <speed>0.5243090691567331</speed>
  <fix>3d</fix>
</trkpt>
<trkpt lat="40.0728431" lon="-105.2305708">
  <ele>1597.61</ele>
  <time>2026-08-27T18:30:56Z</time>
  <course>242.09</course>
  <speed>0.58</speed>
  <fix>3d</fix>
</trkpt>
<trkpt lat="40.0728422" lon="-105.2305726">
  <ele>1597.72</ele>
  <time>2026-08-27T18:30:56Z</time>
  <course>72.69</course>
  <speed>0.4802082881417188</speed>
  <fix>3d</fix>
</trkpt>
<trkpt lat="40.0728426" lon="-105.2305719">
  <ele>1597.61</ele>
  <time>2026-08-27T18:30:56Z</time>
  <course>239.61</course>
  <speed>0.56</speed>
  <fix>3d</fix>
</trkpt>
<trkpt lat="40.0728418" lon="-105.2305736">
  <ele>1597.72</ele>
  <time>2026-08-27T18:30:56Z</time>
  <course>60.56</course>
  <speed>0.45650848842053304</speed>
  <fix>3d</fix>
</trkpt>
<trkpt lat="40.0728421" lon="-105.230573">
  <ele>1597.61</ele>
  <time>2026-08-27T18:30:56Z</time>
  <course>240.52</course>
  <speed>0.52</speed>
  <fix>3d</fix>
</trkpt>
<trkpt lat="40.0728414" lon="-105.2305747">
  <ele>1597.72</ele>
  <time>2026-08-27T18:30:56Z</time>
  <course>48.5</course>
  <speed>0.4338202392696773</speed>
  <fix>3d</fix>
</trkpt>
<trkpt lat="40.0728417" lon="-105.2305741">
  <ele>1597.62</ele>
  <time>2026-08-27T18:30:56Z</time>
  <course>243.42</course>
  <speed>0.49</speed>
  <fix>3d</fix>
</trkpt>
<trkpt lat="40.0728411" lon="-105.2305757">
  <ele>1597.73</ele>
  <time>2026-08-27T18:30:56Z</time>
  <course>36.58</course>
  <speed>0.4204759208325728</speed>
  <fix>3d</fix>
</trkpt>
<trkpt lat="40.0728413" lon="-105.2305751">
  <ele>1597.62</ele>
  <time>2026-08-27T18:30:56Z</time>
  <course>245.62</course>
  <speed>0.46</speed>
  <fix>3d</fix>
</trkpt>
<trkpt lat="40.0728407" lon="-105.2305766">
  <ele>1597.73</ele>
  <time>2026-08-27T18:30:56Z</time>
  <course>24.54</course>
  <speed>0.3935733730830886</speed>
  <fix>3d</fix>
</trkpt>
<trkpt lat="40.072841" lon="-105.230576">
  <ele>1597.63</ele>
  <time>2026-08-27T18:30:56Z</time>
  <course>245.97</course>
  <speed>0.44</speed>
  <fix>3d</fix>
</trkpt>
<trkpt lat="40.0728404" lon="-105.2305775">
  <ele>1597.73</ele>
  <time>2026-08-27T18:30:56Z</time>
  <course>12.53</course>
  <speed>0.3721558813185679</speed>
  <fix>3d</fix>
</trkpt>
<trkpt lat="40.0728407" lon="-105.230577">
  <ele>1597.63</ele>
  <time>2026-08-27T18:30:56Z</time>
  <course>244.38</course>
  <speed>0.41</speed>
  <fix>3d</fix>
</trkpt>
<trkpt lat="40.0728401" lon="-105.2305783">
  <ele>1597.73</ele>
  <time>2026-08-27T18:30:56Z</time>
  <course>9.28</course>
  <speed>0.38078865529319544</speed>
  <fix>3d</fix>
</trkpt>
<trkpt lat="40.0728404" lon="-105.2305778">
  <ele>1597.63</ele>
  <time>2026-08-27T18:30:56Z</time>
  <course>243.14</course>
  <speed>0.39</speed>
  <fix>3d</fix>
</trkpt>
<trkpt lat="40.0728397" lon="-105.230579">
  <ele>1597.73</ele>
  <time>2026-08-27T18:30:56Z</time>
  <course>10.45</course>
  <speed>0.3080584360149873</speed>
  <fix>3d</fix>
</trkpt>
<trkpt lat="40.07284" lon="-105.2305786">
  <ele>1597.64</ele>
  <time>2026-08-27T18:30:56Z</time>
  <course>241.61</course>
  <speed>0.36</speed>
  <fix>3d</fix>
</trkpt>
<trkpt lat="40.0728395" lon="-105.2305796">
  <ele>1597.74</ele>
  <time>2026-08-27T18:30:56Z</time>
  <course>10.59</course>
  <speed>0.23345235059857505</speed>
  <fix>3d</fix>
</trkpt>
<trkpt lat="40.0728397" lon="-105.2305792">
  <ele>1597.64</ele>
  <time>2026-08-27T18:30:56Z</time>
  <course>237.21</course>
  <speed>0.3</speed>
  <fix>3d</fix>
</trkpt>
<trkpt lat="40.0728392" lon="-105.2305799">
  <ele>1597.74</ele>
  <time>2026-08-27T18:30:56Z</time>
  <course>10.61</course>
  <speed>0.15811388300841897</speed>
  <fix>3d</fix>
</trkpt>
<trkpt lat="40.0728395" lon="-105.2305797">
  <ele>1597.64</ele>
  <time>2026-08-27T18:30:56Z</time>
  <course>230.97</course>
  <speed>0.21</speed>
  <fix>3d</fix>
</trkpt>
<trkpt lat="40.0728391" lon="-105.2305801">
  <ele>1597.74</ele>
  <time>2026-08-27T18:30:56Z</time>
  <course>10.61</course>
  <speed>0.0854400374531753</speed>
  <fix>3d</fix>
</trkpt>
<trkpt lat="40.0728393" lon="-105.2305801">
  <ele>1597.64</ele>
  <time>2026-08-27T18:30:56Z</time>
  <course>222.62</course>
  <speed>0.13</speed>
  <fix>3d</fix>
</trkpt>
<trkpt lat="40.072839" lon="-105.2305801">
  <ele>1597.75</ele>
  <time>2026-08-27T18:30:56Z</time>
  <course>10.62</course>
  <speed>0.044721359549995794</speed>
  <fix>3d</fix>
</trkpt>
<trkpt lat="40.0728391" lon="-105.2305802">
  <ele>1597.64</ele>
  <time>2026-08-27T18:30:56Z</time>
  <course>203.02</course>
  <speed>0.05</speed>
  <fix>3d</fix>
</trkpt>
<trkpt lat="40.072839" lon="-105.23058">
  <ele>1597.75</ele>
  <time>2026-08-27T18:30:56Z</time>
  <course>10.65</course>
  <speed>0.06</speed>
  <fix>3d</fix>
</trkpt>
<trkpt lat="40.072839" lon="-105.2305803">
  <ele>1597.64</ele>
  <time>2026-08-27T18:30:56Z</time>
  <course>99.95</course>
  <speed>0.03</speed>
  <fix>3d</fix>
</trkpt>
<trkpt lat="40.0728391" lon="-105.2305798">
  <ele>1597.75</ele>
  <time>2026-08-27T18:30:56Z</time>
  <course>10.66</course>
  <speed>0.1044030650891055</speed>
  <fix>3d</fix>
</trkpt>
<trkpt lat="40.072839" lon="-105.2305801">
  <ele>1597.64</ele>
  <time>2026-08-27T18:30:56Z</time>
  <course>65.71</course>
  <speed>0.09</speed>
  <fix>3d</fix>
</trkpt>
<trkpt lat="40.0728391" lon="-105.2305796">
  <ele>1597.74</ele>
  <time>2026-08-27T18:30:56Z</time>
  <course>10.66</course>
  <speed>0.15652475842498528</speed>
  <fix>3d</fix>
</trkpt>
<trkpt lat="40.0728391" lon="-105.2305799">
  <ele>1597.63</ele>
  <time>2026-08-27T18:30:56Z</time>
  <course>58.32</course>
  <speed>0.14</speed>
  <fix>3d</fix>
</trkpt>
<trkpt lat="40.0728393" lon="-105.2305792">
  <ele>1597.73</ele>
  <time>2026-08-27T18:30:56Z</time>
  <course>10.68</course>
  <speed>0.1972308292331602</speed>
  <fix>3d</fix>
</trkpt>
<trkpt lat="40.0728393" lon="-105.2305796">
  <ele>1597.63</ele>
  <time>2026-08-27T18:30:56Z</time>
  <course>54.88</course>
  <speed>0.19</speed>
  <fix>3d</fix>
</trkpt>
<trkpt lat="40.0728396" lon="-105.2305788">
  <ele>1597.73</ele>
  <time>2026-08-27T18:30:56Z</time>
  <course>10.68</course>
  <speed>0.22472205054244232</speed>
  <fix>3d</fix>
</trkpt>
<trkpt lat="40.0728395" lon="-105.2305791">
  <ele>1597.63</ele>
  <time>2026-08-27T18:30:56Z</time>
  <course>52.69</course>
  <speed>0.23</speed>
  <fix>3d</fix>
</trkpt>
<trkpt lat="40.0728399" lon="-105.2305783">
  <ele>1597.72</ele>
  <time>2026-08-27T18:30:56Z</time>
  <course>10.68</course>
  <speed>0.24413111231467405</speed>
  <fix>3d</fix>
</trkpt>
<trkpt lat="40.0728398" lon="-105.2305787">
  <ele>1597.62</ele>
  <time>2026-08-27T18:30:56Z</time>
  <course>51.08</course>
  <speed>0.27</speed>
  <fix>3d</fix>
</trkpt>
<trkpt lat="40.0728402" lon="-105.2305778">
  <ele>1597.72</ele>
  <time>2026-08-27T18:30:56Z</time>
  <course>10.72</course>
  <speed>0.25</speed>
  <fix>3d</fix>
</trkpt>
<trkpt lat="40.0728401" lon="-105.2305782">
  <ele>1597.62</ele>
  <time>2026-08-27T18:30:56Z</time>
  <course>49.8</course>
  <speed>0.29</speed>
  <fix>3d</fix>
</trkpt>
<trkpt lat="40.0728405" lon="-105.2305773">
  <ele>1597.71</ele>
  <time>2026-08-27T18:30:56Z</time>
  <course>10.73</course>
  <speed>0.25612496949731395</speed>
  <fix>3d</fix>
</trkpt>
<trkpt lat="40.0728405" lon="-105.2305777">
  <ele>1597.62</ele>
  <time>2026-08-27T18:30:56Z</time>
  <course>48.73</course>
  <speed>0.3</speed>
  <fix>3d</fix>
</trkpt>
<trkpt lat="40.0728409" lon="-105.2305768">
  <ele>1597.72</ele>
  <time>2026-08-27T18:30:56Z</time>
  <course>10.72</course>
  <speed>0.25612496949731395</speed>
  <fix>3d</fix>
</trkpt>
<trkpt lat="40.0728408" lon="-105.2305771">
  <ele>1597.63</ele>
  <time>2026-08-27T18:30:56Z</time>
  <course>47.91</course>
  <speed>0.3</speed>
  <fix>3d</fix>
</trkpt>
<trkpt lat="40.0728412" lon="-105.2305763">
  <ele>1597.72</ele>
  <time>2026-08-27T18:30:56Z</time>
  <course>10.72</course>
  <speed>0.23430749027719963</speed>
  <fix>3d</fix>
</trkpt>
<trkpt lat="40.0728412" lon="-105.2305766">
  <ele>1597.63</ele>
  <time>2026-08-27T18:30:56Z</time>
  <course>47.39</course>
  <speed>0.29</speed>
  <fix>3d</fix>
</trkpt>
<trkpt lat="40.0728416" lon="-105.2305758">
  <ele>1597.73</ele>
  <time>2026-08-27T18:30:56Z</time>
  <course>10.79</course>
  <speed>0.21400934559032694</speed>
  <fix>3d</fix>
</trkpt>
<trkpt lat="40.0728416" lon="-105.2305761">
  <ele>1597.63</ele>
  <time>2026-08-27T18:30:56Z</time>
  <course>47.11</course>
  <speed>0.28</speed>
  <fix>3d</fix>
</trkpt>
<trkpt lat="40.0728419" lon="-105.2305754">
  <ele>1597.73</ele>
  <time>2026-08-27T18:30:56Z</time>
  <course>10.84</course>
  <speed>0.19209372712298545</speed>
  <fix>3d</fix>
</trkpt>
<trkpt lat="40.0728419" lon="-105.2305756">
  <ele>1597.64</ele>
  <time>2026-08-27T18:30:56Z</time>
  <course>47.12</course>
  <speed>0.25</speed>
  <fix>3d</fix>
</trkpt>
<trkpt lat="40.0728421" lon="-105.230575">
  <ele>1597.72</ele>
  <time>2026-08-27T18:30:56Z</time>
  <course>10.95</course>
  <speed>0.16401219466856726</speed>
  <fix>3d</fix>
</trkpt>
<trkpt lat="40.0728422" lon="-105.2305752">
  <ele>1597.64</ele>
  <time>2026-08-27T18:30:56Z</time>
  <course>47.43</course>
  <speed>0.23</speed>
  <fix>3d</fix>
</trkpt>
<trkpt lat="40.0728424" lon="-105.2305747">
  <ele>1597.7</ele>
  <time>2026-08-27T18:30:56Z</time>
  <course>11.38</course>
  <speed>0.130384048104053</speed>
  <fix>3d</fix>
</trkpt>
<trkpt lat="40.0728425" lon="-105.2305748">
  <ele>1597.63</ele>
  <time>2026-08-27T18:30:56Z</time>
  <course>47.65</course>
  <speed>0.19</speed>
  <fix>3d</fix>
</trkpt>
<trkpt lat="40.0728426" lon="-105.2305744">
  <ele>1597.64</ele>
  <time>2026-08-27T18:30:56Z</time>
  <course>11.74</course>
  <speed>0.10295630140987001</speed>
  <fix>3d</fix>
</trkpt>
<trkpt lat="40.0728426" lon="-105.2305745">
  <ele>1597.61</ele>
  <time>2026-08-27T18:30:56Z</time>
  <course>48.14</course>
  <speed>0.16</speed>
  <fix>3d</fix>
</trkpt>
<trkpt lat="40.0728427" lon="-105.2305742">
  <ele>1597.54</ele>
  <time>2026-08-27T18:30:56Z</time>
  <course>12.07</course>
  <speed>0.07615773105863909</speed>
  <fix>3d</fix>
</trkpt>
<trkpt lat="40.0728429" lon="-105.2305743">
  <ele>1597.55</ele>
  <time>2026-08-27T18:30:56Z</time>
  <course>49.8</course>
  <speed>0.13</speed>
  <fix>3d</fix>
</trkpt>
<trkpt lat="40.0728428" lon="-105.230574">
  <ele>1597.39</ele>
  <time>2026-08-27T18:30:56Z</time>
  <course>12.37</course>
  <speed>0.06082762530298219</speed>
  <fix>3d</fix>
</trkpt>
<trkpt lat="40.072843" lon="-105.230574">
  <ele>1597.44</ele>
  <time>2026-08-27T18:30:56Z</time>
  <course>53.16</course>
  <speed>0.1</speed>
  <fix>3d</fix>
</trkpt>
<trkpt lat="40.0728429" lon="-105.2305738">
  <ele>1597.2</ele>
  <time>2026-08-27T18:30:56Z</time>
  <course>12.62</course>
  <speed>0.04</speed>
  <fix>3d</fix>
</trkpt>
<trkpt lat="40.0728431" lon="-105.2305739">
  <ele>1597.29</ele>
  <time>2026-08-27T18:30:56Z</time>
  <course>59.82</course>
  <speed>0.07</speed>
  <fix>3d</fix>
</trkpt>
<trkpt lat="40.0728429" lon="-105.2305737">
  <ele>1596.97</ele>
  <time>2026-08-27T18:30:56Z</time>
  <course>12.59</course>
  <speed>0.04242640687119285</speed>
  <fix>3d</fix>
</trkpt>
<trkpt lat="40.0728431" lon="-105.2305737">
  <ele>1597.1</ele>
  <time>2026-08-27T18:30:56Z</time>
  <course>73.93</course>
  <speed>0.05</speed>
  <fix>3d</fix>
</trkpt>
<trkpt lat="40.0728429" lon="-105.2305736">
  <ele>1596.74</ele>
  <time>2026-08-27T18:30:56Z</time>
  <course>12.19</course>
  <speed>0.053851648071345036</speed>
  <fix>3d</fix>
</trkpt>
<trkpt lat="40.0728431" lon="-105.2305736">
  <ele>1596.88</ele>
  <time>2026-08-27T18:30:56Z</time>
  <course>102.78</course>
  <speed>0.04</speed>
  <fix>3d</fix>
</trkpt>
<trkpt lat="40.0728428" lon="-105.2305736">
  <ele>1596.54</ele>
  <time>2026-08-27T18:30:56Z</time>
  <course>11.71</course>
  <speed>0.07071067811865475</speed>
  <fix>3d</fix>
</trkpt>
<trkpt lat="40.0728431" lon="-105.2305735">
  <ele>1596.65</ele>
  <time>2026-08-27T18:30:56Z</time>
  <course>140.48</course>
  <speed>0.04</speed>
  <fix>3d</fix>
</trkpt>
<trkpt lat="40.0728428" lon="-105.2305736">
  <ele>1596.37</ele>
  <time>2026-08-27T18:30:56Z</time>
  <course>11.36</course>
  <speed>0.09</speed>
  <fix>3d</fix>
</trkpt>
<trkpt lat="40.0728431" lon="-105.2305734">
  <ele>1596.45</ele>
  <time>2026-08-27T18:30:56Z</time>
  <course>168.99</course>
  <speed>0.05</speed>
  <fix>3d</fix>
</trkpt>
<trkpt lat="40.0728427" lon="-105.2305735">
  <ele>1596.24</ele>
  <time>2026-08-27T18:30:56Z</time>
  <course>11.23</course>
  <speed>0.09219544457292887</speed>
  <fix>3d</fix>
</trkpt>
<trkpt lat="40.072843" lon="-105.2305734">
  <ele>1596.29</ele>
  <time>2026-08-27T18:30:56Z</time>
  <course>187.84</course>
  <speed>0.06</speed>
  <fix>3d</fix>
</trkpt>
<trkpt lat="40.0728425" lon="-105.2305735">
  <ele>1596.13</ele>
  <time>2026-08-27T18:30:56Z</time>
  <course>11.21</course>
  <speed>0.10770329614269007</speed>
  <fix>3d</fix>
</trkpt>
<trkpt lat="40.0728429" lon="-105.2305735">
  <ele>1596.15</ele>
  <time>2026-08-27T18:30:56Z</time>
  <course>200.74</course>
  <speed>0.08</speed>
  <fix>3d</fix>
</trkpt>
<trkpt lat="40.0728424" lon="-105.2305737">
  <ele>1596.03</ele>
  <time>2026-08-27T18:30:56Z</time>
  <course>11.24</course>
  <speed>0.1118033988749895</speed>
  <fix>3d</fix>
</trkpt>
<trkpt lat="40.0728427" lon="-105.2305736">
  <ele>1596.05</ele>
  <time>2026-08-27T18:30:56Z</time>
  <course>209.84</course>
  <speed>0.09</speed>
  <fix>3d</fix>
</trkpt>
<trkpt lat="40.0728423" lon="-105.2305738">
  <ele>1595.94</ele>
  <time>2026-08-27T18:30:56Z</time>
  <course>11.3</course>
  <speed>0.11661903789690602</speed>
  <fix>3d</fix>
</trkpt>
<trkpt lat="40.0728426" lon="-105.2305736">
  <ele>1595.95</ele>
  <time>2026-08-27T18:30:56Z</time>
  <course>216.75</course>
  <speed>0.1</speed>
  <fix>3d</fix>
</trkpt>
<trkpt lat="40.0728421" lon="-105.2305739">
  <ele>1595.86</ele>
  <time>2026-08-27T18:30:56Z</time>
  <course>11.33</course>
  <speed>0.11401754250991379</speed>
  <fix>3d</fix>
</trkpt>
<trkpt lat="40.0728424" lon="-105.2305738">
  <ele>1595.86</ele>
  <time>2026-08-27T18:30:56Z</time>
  <course>222.32</course>
  <speed>0.11</speed>
  <fix>3d</fix>
</trkpt>
<trkpt lat="40.072842" lon="-105.2305741">
  <ele>1595.77</ele>
  <time>2026-08-27T18:30:56Z</time>
  <course>11.36</course>
  <speed>0.1063014581273465</speed>
  <fix>3d</fix>
</trkpt>
<trkpt lat="40.0728423" lon="-105.2305739">
  <ele>1595.78</ele>
  <time>2026-08-27T18:30:56Z</time>
  <course>227.23</course>
  <speed>0.11</speed>
  <fix>3d</fix>
</trkpt>
<trkpt lat="40.0728419" lon="-105.2305743">
  <ele>1595.67</ele>
  <time>2026-08-27T18:30:56Z</time>
  <course>11.36</course>
  <speed>0.09899494936611665</speed>
  <fix>3d</fix>
</trkpt>
<trkpt lat="40.0728421" lon="-105.2305742">
  <ele>1595.69</ele>
  <time>2026-08-27T18:30:56Z</time>
  <course>231.98</course>
  <speed>0.11</speed>
  <fix>3d</fix>
</trkpt>
<trkpt lat="40.0728418" lon="-105.2305745">
  <ele>1595.58</ele>
  <time>2026-08-27T18:30:56Z</time>
  <course>11.4</course>
  <speed>0.09219544457292887</speed>
  <fix>3d</fix>
</trkpt>
<trkpt lat="40.072842" lon="-105.2305744">
  <ele>1595.6</ele>
  <time>2026-08-27T18:30:56Z</time>
  <course>236.71</course>
  <speed>0.1</speed>
  <fix>3d</fix>
</trkpt>
<trkpt lat="40.0728417" lon="-105.2305747">
  <ele>1595.49</ele>
  <time>2026-08-27T18:30:56Z</time>
  <course>11.42</course>
  <speed>0.07810249675906654</speed>
  <fix>3d</fix>
</trkpt>
<trkpt lat="40.0728419" lon="-105.2305746">
  <ele>1595.5</ele>
  <time>2026-08-27T18:30:56Z</time>
  <course>241.4</course>
  <speed>0.1</speed>
  <fix>3d</fix>
</trkpt>
<trkpt lat="40.0728417" lon="-105.2305749">
  <ele>1595.39</ele>
  <time>2026-08-27T18:30:56Z</time>
  <course>11.42</course>
  <speed>0.07211102550927978</speed>
  <fix>3d</fix>
</trkpt>
<trkpt lat="40.0728418" lon="-105.2305748">
  <ele>1595.41</ele>
  <time>2026-08-27T18:30:56Z</time>
  <course>246.42</course>
  <speed>0.09</speed>
  <fix>3d</fix>
</trkpt>
<trkpt lat="40.0728417" lon="-105.230575">
  <ele>1595.29</ele>
  <time>2026-08-27T18:30:56Z</time>
  <course>11.41</course>
  <speed>0.05830951894845301</speed>
  <fix>3d</fix>
</trkpt>
<trkpt lat="40.0728418" lon="-105.2305751">
  <ele>1595.32</ele>
  <time>2026-08-27T18:30:56Z</time>
  <course>252.49</course>
  <speed>0.08</speed>
  <fix>3d</fix>
</trkpt>
<trkpt lat="40.0728416" lon="-105.2305752">
  <ele>1595.19</ele>
  <time>2026-08-27T18:30:56Z</time>
  <course>11.41</course>
  <speed>0.0412310562561766</speed>
  <fix>3d</fix>
</trkpt>
<trkpt lat="40.0728418" lon="-105.2305752">
  <ele>1595.22</ele>
  <time>2026-08-27T18:30:56Z</time>
  <course>259.98</course>
  <speed>0.07</speed>
  <fix>3d</fix>
</trkpt>
<trkpt lat="40.0728417" lon="-105.2305753">
  <ele>1595.09</ele>
  <time>2026-08-27T18:30:56Z</time>
  <course>11.41</course>
  <speed>0.03</speed>
  <fix>3d</fix>
</trkpt>
<trkpt lat="40.0728418" lon="-105.2305753">
  <ele>1595.12</ele>
  <time>2026-08-27T18:30:56Z</time>
  <course>268.9</course>
  <speed>0.06</speed>
  <fix>3d</fix>
</trkpt>
<trkpt lat="40.0728417" lon="-105.2305754">
  <ele>1595.0</ele>
  <time>2026-08-27T18:30:56Z</time>
  <course>11.43</course>
  <speed>0.02</speed>
  <fix>3d</fix>
</trkpt>
<trkpt lat="40.0728418" lon="-105.2305755">
  <ele>1595.02</ele>
  <time>2026-08-27T18:30:56Z</time>
  <course>279.35</course>
  <speed>0.06</speed>
  <fix>3d</fix>
</trkpt>
<trkpt lat="40.0728417" lon="-105.2305755">
  <ele>1594.9</ele>
  <time>2026-08-27T18:30:56Z</time>
  <course>11.42</course>
  <speed>0.01</speed>
  <fix>3d</fix>
</trkpt>
<trkpt lat="40.0728418" lon="-105.2305756">
  <ele>1594.91</ele>
  <time>2026-08-27T18:30:56Z</time>
  <course>291.35</course>
  <speed>0.05</speed>
  <fix>3d</fix>
</trkpt>
<trkpt lat="40.0728417" lon="-105.2305756">
  <ele>1594.8</ele>
  <time>2026-08-27T18:30:56Z</time>
  <course>11.42</course>
  <speed>0.01</speed>
  <fix>3d</fix>
</trkpt>
<trkpt lat="40.0728418" lon="-105.2305757">
  <ele>1594.82</ele>
  <time>2026-08-27T18:30:56Z</time>
  <course>304.85</course>
  <speed>0.04</speed>
  <fix>3d</fix>
</trkpt>
<trkpt lat="40.0728417" lon="-105.2305756">
  <ele>1594.7</ele>
  <time>2026-08-27T18:30:56Z</time>
  <course>11.42</course>
  <speed>0.01</speed>
  <fix>3d</fix>
</trkpt>
<trkpt lat="40.0728418" lon="-105.2305758">
  <ele>1594.72</ele>
  <time>2026-08-27T18:30:56Z</time>
  <course>319.01</course>
  <speed>0.04</speed>
  <fix>3d</fix>
</trkpt>
<trkpt lat="40.0728418" lon="-105.2305757">
  <ele>1594.59</ele>
  <time>2026-08-27T18:30:56Z</time>
  <course>11.43</course>
  <speed>0.022360679774997897</speed>
  <fix>3d</fix>
</trkpt>
<trkpt lat="40.0728418" lon="-105.2305759">
  <ele>1594.62</ele>
  <time>2026-08-27T18:30:56Z</time>
  <course>332.85</course>
  <speed>0.04</speed>
  <fix>3d</fix>
</trkpt>
<trkpt lat="40.0728419" lon="-105.2305757">
  <ele>1594.49</ele>
  <time>2026-08-27T18:30:56Z</time>
  <course>11.43</course>
  <speed>0.022360679774997897</speed>
  <fix>3d</fix>
</trkpt>
<trkpt lat="40.0728419" lon="-105.230576">
  <ele>1594.52</ele>
  <time>2026-08-27T18:30:56Z</time>
  <course>345.1</course>
  <speed>0.04</speed>
  <fix>3d</fix>
</trkpt>
<trkpt lat="40.0728419" lon="-105.2305757">
  <ele>1594.39</ele>
  <time>2026-08-27T18:30:56Z</time>
  <course>11.41</course>
  <speed>0.0282842712474619</speed>
  <fix>3d</fix>
</trkpt>
<trkpt lat="40.072842" lon="-105.230576">
  <ele>1594.41</ele>
  <time>2026-08-27T18:30:56Z</time>
  <course>355.35</course>
  <speed>0.04</speed>
  <fix>3d</fix>
</trkpt>
<trkpt lat="40.072842" lon="-105.2305757">
  <ele>1594.29</ele>
  <time>2026-08-27T18:30:56Z</time>
  <course>11.42</course>
  <speed>0.03605551275463989</speed>
  <fix>3d</fix>
</trkpt>
<trkpt lat="40.072842" lon="-105.230576">
  <ele>1594.32</ele>
  <time>2026-08-27T18:30:56Z</time>
  <course>4.02</course>
  <speed>0.04</speed>
  <fix>3d</fix>
</trkpt>
<trkpt lat="40.0728421" lon="-105.2305757">
  <ele>1594.19</ele>
  <time>2026-08-27T18:30:56Z</time>
  <course>11.43</course>
  <speed>0.0316227766016838</speed>
  <fix>3d</fix>
</trkpt>
<trkpt lat="40.0728421" lon="-105.230576">
  <ele>1594.22</ele>
  <time>2026-08-27T18:30:56Z</time>
  <course>11.68</course>
  <speed>0.04</speed>
  <fix>3d</fix>
</trkpt>
<trkpt lat="40.0728421" lon="-105.2305757">
  <ele>1594.09</ele>
  <time>2026-08-27T18:30:56Z</time>
  <course>11.4</course>
  <speed>0.0316227766016838</speed>
  <fix>3d</fix>
</trkpt>
<trkpt lat="40.0728422" lon="-105.230576">
  <ele>1594.12</ele>
  <time>2026-08-27T18:30:56Z</time>
  <course>19.12</course>
  <speed>0.04</speed>
  <fix>3d</fix>
</trkpt>
<trkpt lat="40.0728422" lon="-105.2305757">
  <ele>1593.98</ele>
  <time>2026-08-27T18:30:56Z</time>
  <course>11.41</course>
  <speed>0.0412310562561766</speed>
  <fix>3d</fix>
</trkpt>
<trkpt lat="40.0728423" lon="-105.230576">
  <ele>1594.02</ele>
  <time>2026-08-27T18:30:56Z</time>
  <course>25.72</course>
  <speed>0.04</speed>
  <fix>3d</fix>
</trkpt>
<trkpt lat="40.0728422" lon="-105.2305757">
  <ele>1593.88</ele>
  <time>2026-08-27T18:30:56Z</time>
  <course>11.43</course>
  <speed>0.04</speed>
  <fix>3d</fix>
</trkpt>
<trkpt lat="40.0728424" lon="-105.2305759">
  <ele>1593.91</ele>
  <time>2026-08-27T18:30:56Z</time>
  <course>32.09</course>
  <speed>0.04</speed>
  <fix>3d</fix>
</trkpt>
<trkpt lat="40.0728423" lon="-105.2305756">
  <ele>1593.78</ele>
  <time>2026-08-27T18:30:56Z</time>
  <course>11.41</course>
  <speed>0.04</speed>
  <fix>3d</fix>
</trkpt>
<trkpt lat="40.0728424" lon="-105.2305758">
  <ele>1593.82</ele>
  <time>2026-08-27T18:30:56Z</time>
  <course>39.18</course>
  <speed>0.03</speed>
  <fix>3d</fix>
</trkpt>
<trkpt lat="40.0728423" lon="-105.2305756">
  <ele>1593.69</ele>
  <time>2026-08-27T18:30:56Z</time>
  <course>11.4</course>
  <speed>0.04</speed>
  <fix>3d</fix>
</trkpt>
<trkpt lat="40.0728425" lon="-105.2305758">
  <ele>1593.72</ele>
  <time>2026-08-27T18:30:56Z</time>
  <course>46.08</course>
  <speed>0.03</speed>
  <fix>3d</fix>
</trkpt>
<trkpt lat="40.0728423" lon="-105.2305755">
  <ele>1593.59</ele>
  <time>2026-08-27T18:30:56Z</time>
  <course>11.43</course>
  <speed>0.04</speed>
  <fix>3d</fix>
</trkpt>
<trkpt lat="40.0728425" lon="-105.2305758">
  <ele>1593.62</ele>
  <time>2026-08-27T18:30:56Z</time>
  <course>53.06</course>
  <speed>0.03</speed>
  <fix>3d</fix>
</trkpt>
<trkpt lat="40.0728424" lon="-105.2305754">
  <ele>1593.49</ele>
  <time>2026-08-27T18:30:56Z</time>
  <course>11.42</course>
  <speed>0.0412310562561766</speed>
  <fix>3d</fix>
</trkpt>
<trkpt lat="40.0728425" lon="-105.2305757">
  <ele>1593.52</ele>
  <time>2026-08-27T18:30:56Z</time>
  <course>61.67</course>
  <speed>0.02</speed>
  <fix>3d</fix>
</trkpt>
<trkpt lat="40.0728424" lon="-105.2305754">
  <ele>1593.39</ele>
  <time>2026-08-27T18:30:56Z</time>
  <course>11.42</course>
  <speed>0.0412310562561766</speed>
  <fix>3d</fix>
</trkpt>
<trkpt lat="40.0728426" lon="-105.2305756">
  <ele>1593.41</ele>
  <time>2026-08-27T18:30:56Z</time>
  <course>71.96</course>
  <speed>0.02</speed>
  <fix>3d</fix>
</trkpt>
<trkpt lat="40.0728424" lon="-105.2305754">
  <ele>1593.3</ele>
  <time>2026-08-27T18:30:56Z</time>
  <course>11.43</course>
  <speed>0.044721359549995794</speed>
  <fix>3d</fix>
</trkpt>
<trkpt lat="40.0728426" lon="-105.2305756">
  <ele>1593.32</ele>
  <time>2026-08-27T18:30:56Z</time>
  <course>83.07</course>
  <speed>0.02</speed>
  <fix>3d</fix>
</trkpt>
<trkpt lat="40.0728424" lon="-105.2305753">
  <ele>1593.2</ele>
  <time>2026-08-27T18:30:56Z</time>
  <course>11.43</course>
  <speed>0.03605551275463989</speed>
  <fix>3d</fix>
</trkpt>
<trkpt lat="40.0728426" lon="-105.2305755">
  <ele>1593.22</ele>
  <time>2026-08-27T18:30:56Z</time>
  <course>94.5</course>
  <speed>0.02</speed>
  <fix>3d</fix>
</trkpt>
<trkpt lat="40.0728424" lon="-105.2305753">
  <ele>1593.1</ele>
  <time>2026-08-27T18:30:56Z</time>
  <course>11.43</course>
  <speed>0.04242640687119285</speed>
  <fix>3d</fix>
</trkpt>
<trkpt lat="40.0728426" lon="-105.2305755">
  <ele>1593.12</ele>
  <time>2026-08-27T18:30:56Z</time>
  <course>106.18</course>
  <speed>0.02</speed>
  <fix>3d</fix>
</trkpt>
<trkpt lat="40.0728424" lon="-105.2305752">
  <ele>1593.0</ele>
  <time>2026-08-27T18:30:56Z</time>
  <course>11.43</course>
  <speed>0.04242640687119285</speed>
  <fix>3d</fix>
</trkpt>
<trkpt lat="40.0728426" lon="-105.2305754">
  <ele>1593.02</ele>
  <time>2026-08-27T18:30:56Z</time>
  <course>118.19</course>
  <speed>0.02</speed>
  <fix>3d</fix>
</trkpt>
<trkpt lat="40.0728424" lon="-105.2305752">
  <ele>1592.9</ele>
  <time>2026-08-27T18:30:56Z</time>
  <course>11.42</course>
  <speed>0.04242640687119285</speed>
  <fix>3d</fix>
</trkpt>
<trkpt lat="40.0728426" lon="-105.2305753">
  <ele>1592.91</ele>
  <time>2026-08-27T18:30:56Z</time>
  <course>129.97</course>
  <speed>0.02</speed>
  <fix>3d</fix>
</trkpt>
<trkpt lat="40.0728424" lon="-105.2305752">
  <ele>1592.8</ele>
  <time>2026-08-27T18:30:56Z</time>
  <course>11.42</course>
  <speed>0.03605551275463989</speed>
  <fix>3d</fix>
</trkpt>
<trkpt lat="40.0728426" lon="-105.2305753">
  <ele>1592.82</ele>
  <time>2026-08-27T18:30:56Z</time>
  <course>140.76</course>
  <speed>0.02</speed>
  <fix>3d</fix>
</trkpt>
<trkpt lat="40.0728424" lon="-105.2305751">
  <ele>1592.69</ele>
  <time>2026-08-27T18:30:56Z</time>
  <course>11.42</course>
  <speed>0.03605551275463989</speed>
  <fix>3d</fix>
</trkpt>
<trkpt lat="40.0728426" lon="-105.2305753">
  <ele>1592.72</ele>
  <time>2026-08-27T18:30:56Z</time>
  <course>150.4</course>
  <speed>0.02</speed>
  <fix>3d</fix>
</trkpt>
<trkpt lat="40.0728423" lon="-105.2305751">
  <ele>1592.59</ele>
  <time>2026-08-27T18:30:56Z</time>
  <course>11.4</course>
  <speed>0.03605551275463989</speed>
  <fix>3d</fix>
</trkpt>
<trkpt lat="40.0728425" lon="-105.2305753">
  <ele>1592.62</ele>
  <time>2026-08-27T18:30:56Z</time>
  <course>159.09</course>
  <speed>0.02</speed>
  <fix>3d</fix>
</trkpt>
<trkpt lat="40.0728423" lon="-105.2305751">
  <ele>1592.49</ele>
  <time>2026-08-27T18:30:56Z</time>
  <course>11.41</course>
  <speed>0.044721359549995794</speed>
  <fix>3d</fix>
</trkpt>
<trkpt lat="40.0728425" lon="-105.2305753">
  <ele>1592.52</ele>
  <time>2026-08-27T18:30:56Z</time>
  <course>167.57</course>
  <speed>0.02</speed>
  <fix>3d</fix>
</trkpt>
<trkpt lat="40.0728423" lon="-105.2305751">
  <ele>1592.39</ele>
  <time>2026-08-27T18:30:56Z</time>
  <course>11.4</course>
  <speed>0.0316227766016838</speed>
  <fix>3d</fix>
</trkpt>
<trkpt lat="40.0728425" lon="-105.2305753">
  <ele>1592.41</ele>
  <time>2026-08-27T18:30:56Z</time>
  <course>174.85</course>
  <speed>0.02</speed>
  <fix>3d</fix>
</trkpt>
<trkpt lat="40.0728423" lon="-105.2305751">
  <ele>1592.29</ele>
  <time>2026-08-27T18:30:56Z</time>
  <course>11.42</course>
  <speed>0.0316227766016838</speed>
  <fix>3d</fix>
</trkpt>
<trkpt lat="40.0728424" lon="-105.2305753">
  <ele>1592.32</ele>
  <time>2026-08-27T18:30:56Z</time>
  <course>180.32</course>
  <speed>0.02</speed>
  <fix>3d</fix>
</trkpt>
<trkpt lat="40.0728422" lon="-105.2305751">
  <ele>1592.19</ele>
  <time>2026-08-27T18:30:56Z</time>
  <course>11.4</course>
  <speed>0.0316227766016838</speed>
  <fix>3d</fix>
</trkpt>
<trkpt lat="40.0728424" lon="-105.2305753">
  <ele>1592.22</ele>
  <time>2026-08-27T18:30:56Z</time>
  <course>184.45</course>
  <speed>0.02</speed>
  <fix>3d</fix>
</trkpt>
<trkpt lat="40.0728422" lon="-105.2305751">
  <ele>1592.09</ele>
  <time>2026-08-27T18:30:56Z</time>
  <course>11.41</course>
  <speed>0.0316227766016838</speed>
  <fix>3d</fix>
</trkpt>
<trkpt lat="40.0728423" lon="-105.2305753">
  <ele>1592.12</ele>
  <time>2026-08-27T18:30:56Z</time>
  <course>188.66</course>
  <speed>0.01</speed>
  <fix>3d</fix>
</trkpt>
<trkpt lat="40.0728422" lon="-105.2305751">
  <ele>1591.99</ele>
  <time>2026-08-27T18:30:56Z</time>
  <course>11.39</course>
  <speed>0.0316227766016838</speed>
  <fix>3d</fix>
</trkpt>
<trkpt lat="40.0728423" lon="-105.2305753">
  <ele>1592.02</ele>
  <time>2026-08-27T18:30:56Z</time>
  <course>193.32</course>
  <speed>0.01</speed>
  <fix>3d</fix>
</trkpt>
<trkpt lat="40.0728422" lon="-105.2305751">
  <ele>1591.89</ele>
  <time>2026-08-27T18:30:56Z</time>
  <course>11.4</course>
  <speed>0.0316227766016838</speed>
  <fix>3d</fix>
</trkpt>
<trkpt lat="40.0728423" lon="-105.2305753">
  <ele>1591.91</ele>
  <time>2026-08-27T18:30:56Z</time>
  <course>198.31</course>
  <speed>0.01</speed>
  <fix>3d</fix>
</trkpt>
<trkpt lat="40.0728421" lon="-105.2305751">
  <ele>1591.79</ele>
  <time>2026-08-27T18:30:56Z</time>
  <course>11.41</course>
  <speed>0.022360679774997897</speed>
  <fix>3d</fix>
</trkpt>
<trkpt lat="40.0728423" lon="-105.2305753">
  <ele>1591.82</ele>
  <time>2026-08-27T18:30:56Z</time>
  <course>204.19</course>
  <speed>0.01</speed>
  <fix>3d</fix>
</trkpt>
<trkpt lat="40.0728421" lon="-105.2305751">
  <ele>1591.69</ele>
  <time>2026-08-27T18:30:56Z</time>
  <course>11.41</course>
  <speed>0.022360679774997897</speed>
  <fix>3d</fix>
</trkpt>
<trkpt lat="40.0728422" lon="-105.2305753">
  <ele>1591.72</ele>
  <time>2026-08-27T18:30:56Z</time>
  <course>210.23</course>
  <speed>0.01</speed>
  <fix>3d</fix>
</trkpt>
<trkpt lat="40.0728421" lon="-105.2305751">
  <ele>1591.59</ele>
  <time>2026-08-27T18:30:56Z</time>
  <course>11.41</course>
  <speed>0.022360679774997897</speed>
  <fix>3d</fix>
</trkpt>
<trkpt lat="40.0728421" lon="-105.2305753">
  <ele>1591.62</ele>
  <time>2026-08-27T18:30:56Z</time>
  <course>217.6</course>
  <speed>0.01</speed>
  <fix>3d</fix>
</trkpt>
<trkpt lat="40.0728421" lon="-105.2305751">
  <ele>1591.49</ele>
  <time>2026-08-27T18:30:56Z</time>
  <course>11.4</course>
  <speed>0.022360679774997897</speed>
  <fix>3d</fix>
</trkpt>
<trkpt lat="40.0728421" lon="-105.2305753">
  <ele>1591.52</ele>
  <time>2026-08-27T18:30:56Z</time>
  <course>227.77</course>
  <speed>0.0</speed>
  <fix>3d</fix>
</trkpt>
<trkpt lat="40.0728421" lon="-105.2305751">
  <ele>1591.39</ele>
  <time>2026-08-27T18:30:56Z</time>
  <course>11.4</course>
  <speed>0.01414213562373095</speed>
  <fix>3d</fix>
</trkpt>
<trkpt lat="40.0728421" lon="-105.2305753">
  <ele>1591.41</ele>
  <time>2026-08-27T18:30:56Z</time>
  <course>244.08</course>
  <speed>0.0</speed>
  <fix>3d</fix>
</trkpt>
<trkpt lat="40.0728421" lon="-105.2305752">
  <ele>1591.29</ele>
  <time>2026-08-27T18:30:56Z</time>
  <course>11.4</course>
  <speed>0.01414213562373095</speed>
  <fix>3d</fix>
</trkpt>
<trkpt lat="40.0728421" lon="-105.2305753">
  <ele>1591.32</ele>
  <time>2026-08-27T18:30:56Z</time>
  <course>265.55</course>
  <speed>0.0</speed>
  <fix>3d</fix>
</trkpt>
<trkpt lat="40.0728421" lon="-105.2305752">
  <ele>1591.19</ele>
  <time>2026-08-27T18:30:56Z</time>
  <course>11.4</course>
  <speed>0.01414213562373095</speed>
  <fix>3d</fix>
</trkpt>
<trkpt lat="40.0728421" lon="-105.2305753">
  <ele>1591.22</ele>
  <time>2026-08-27T18:30:56Z</time>
  <course>287.49</course>
  <speed>0.0</speed>
  <fix>3d</fix>
</trkpt>
<trkpt lat="40.0728421" lon="-105.2305752">
  <ele>1591.1</ele>
  <time>2026-08-27T18:30:56Z</time>
  <course>11.41</course>
  <speed>0.01414213562373095</speed>
  <fix>3d</fix>
</trkpt>
<trkpt lat="40.0728421" lon="-105.2305753">
  <ele>1591.12</ele>
  <time>2026-08-27T18:30:56Z</time>
  <course>304.77</course>
  <speed>0.0</speed>
  <fix>3d</fix>
</trkpt>
<trkpt lat="40.0728421" lon="-105.2305752">
  <ele>1591.0</ele>
  <time>2026-08-27T18:30:56Z</time>
  <course>11.42</course>
  <speed>0.01414213562373095</speed>
  <fix>3d</fix>
</trkpt>
<trkpt lat="40.0728421" lon="-105.2305753">
  <ele>1591.02</ele>
  <time>2026-08-27T18:30:56Z</time>
  <course>315.97</course>
  <speed>0.0</speed>
  <fix>3d</fix>
</trkpt>
<trkpt lat="40.0728421" lon="-105.2305752">
  <ele>1590.9</ele>
  <time>2026-08-27T18:30:56Z</time>
  <course>11.41</course>
  <speed>0.01</speed>
  <fix>3d</fix>
</trkpt>
<trkpt lat="40.0728421" lon="-105.2305753">
  <ele>1590.91</ele>
  <time>2026-08-27T18:30:56Z</time>
  <course>323.63</course>
  <speed>0.01</speed>
  <fix>3d</fix>
</trkpt>
<trkpt lat="40.0728421" lon="-105.2305752">
  <ele>1590.79</ele>
  <time>2026-08-27T18:30:56Z</time>
  <course>11.4</course>
  <speed>0.01</speed>
  <fix>3d</fix>
</trkpt>
<trkpt lat="40.0728421" lon="-105.2305753">
  <ele>1590.82</ele>
  <time>2026-08-27T18:30:56Z</time>
  <course>329.09</course>
  <speed>0.01</speed>
  <fix>3d</fix>
</trkpt>
<trkpt lat="40.0728421" lon="-105.2305752">
  <ele>1590.69</ele>
  <time>2026-08-27T18:30:56Z</time>
  <course>11.4</course>
  <speed>0.01</speed>
  <fix>3d</fix>
</trkpt>
<trkpt lat="40.0728421" lon="-105.2305753">
  <ele>1590.71</ele>
  <time>2026-08-27T18:30:56Z</time>
  <course>332.06</course>
  <speed>0.01</speed>
  <fix>3d</fix>
</trkpt>
<trkpt lat="40.0728421" lon="-105.2305752">
  <ele>1590.59</ele>
  <time>2026-08-27T18:30:56Z</time>
  <course>11.39</course>
  <speed>0.01</speed>
  <fix>3d</fix>
</trkpt>
<trkpt lat="40.0728421" lon="-105.2305753">
  <ele>1590.61</ele>
  <time>2026-08-27T18:30:56Z</time>
  <course>333.65</course>
  <speed>0.01</speed>
  <fix>3d</fix>
</trkpt>
<trkpt lat="40.0728421" lon="-105.2305752">
  <ele>1590.48</ele>
  <time>2026-08-27T18:30:56Z</time>
  <course>11.39</course>
  <speed>0.01</speed>
  <fix>3d</fix>
</trkpt>
<trkpt lat="40.0728421" lon="-105.2305754">
  <ele>1590.51</ele>
  <time>2026-08-27T18:30:56Z</time>
  <course>334.07</course>
  <speed>0.01</speed>
  <fix>3d</fix>
</trkpt>
<trkpt lat="40.0728421" lon="-105.2305752">
  <ele>1590.38</ele>
  <time>2026-08-27T18:30:56Z</time>
  <course>11.37</course>
  <speed>0.01</speed>
  <fix>3d</fix>
</trkpt>
<trkpt lat="40.0728422" lon="-105.2305755">
  <ele>1590.4</ele>
  <time>2026-08-27T18:30:56Z</time>
  <course>333.95</course>
  <speed>0.01</speed>
  <fix>3d</fix>
</trkpt>
<trkpt lat="40.0728421" lon="-105.2305752">
  <ele>1590.28</ele>
  <time>2026-08-27T18:30:56Z</time>
  <course>11.38</course>
  <speed>0.01</speed>
  <fix>3d</fix>
</trkpt>
<trkpt lat="40.0728423" lon="-105.2305755">
  <ele>1590.31</ele>
  <time>2026-08-27T18:30:56Z</time>
  <course>334.57</course>
  <speed>0.01</speed>
  <fix>3d</fix>
</trkpt>
<trkpt lat="40.0728421" lon="-105.2305752">
  <ele>1590.19</ele>
  <time>2026-08-27T18:30:56Z</time>
  <course>11.39</course>
  <speed>0.01</speed>
  <fix>3d</fix>
</trkpt>
<trkpt lat="40.0728423" lon="-105.2305755">
  <ele>1590.22</ele>
  <time>2026-08-27T18:30:56Z</time>
  <course>335.83</course>
  <speed>0.01</speed>
  <fix>3d</fix>
</trkpt>
<trkpt lat="40.0728421" lon="-105.2305752">
  <ele>1590.09</ele>
  <time>2026-08-27T18:30:56Z</time>
  <course>11.4</course>
  <speed>0.01</speed>
  <fix>3d</fix>
</trkpt>
<trkpt lat="40.0728423" lon="-105.2305755">
  <ele>1590.12</ele>
  <time>2026-08-27T18:30:56Z</time>
  <course>337.43</course>
  <speed>0.01</speed>
  <fix>3d</fix>
</trkpt>
<trkpt lat="40.0728421" lon="-105.2305752">
  <ele>1589.99</ele>
  <time>2026-08-27T18:30:56Z</time>
  <course>11.41</course>
  <speed>0.01414213562373095</speed>
  <fix>3d</fix>
</trkpt>
<trkpt lat="40.0728423" lon="-105.2305755">
  <ele>1590.02</ele>
  <time>2026-08-27T18:30:56Z</time>
  <course>339.01</course>
  <speed>0.01</speed>
  <fix>3d</fix>
</trkpt>
<trkpt lat="40.0728422" lon="-105.2305752">
  <ele>1589.89</ele>
  <time>2026-08-27T18:30:56Z</time>
  <course>11.41</course>
  <speed>0.01414213562373095</speed>
  <fix>3d</fix>
</trkpt>
<trkpt lat="40.0728424" lon="-105.2305755">
  <ele>1589.91</ele>
  <time>2026-08-27T18:30:56Z</time>
  <course>342.08</course>
  <speed>0.01</speed>
  <fix>3d</fix>
</trkpt>
<trkpt lat="40.0728422" lon="-105.2305753">
  <ele>1589.79</ele>
  <time>2026-08-27T18:30:56Z</time>
  <course>11.4</course>
  <speed>0.01414213562373095</speed>
  <fix>3d</fix>
</trkpt>
<trkpt lat="40.0728424" lon="-105.2305755">
  <ele>1589.82</ele>
  <time>2026-08-27T18:30:56Z</time>
  <course>347.24</course>
  <speed>0.0</speed>
  <fix>3d</fix>
</trkpt>
<trkpt lat="40.0728422" lon="-105.2305753">
  <ele>1589.69</ele>
  <time>2026-08-27T18:30:56Z</time>
  <course>11.4</course>
  <speed>0.022360679774997897</speed>
  <fix>3d</fix>
</trkpt>
<trkpt lat="40.0728424" lon="-105.2305755">
  <ele>1589.72</ele>
  <time>2026-08-27T18:30:56Z</time>
  <course>354.62</course>
  <speed>0.0</speed>
  <fix>3d</fix>
</trkpt>
<trkpt lat="40.0728422" lon="-105.2305753">
  <ele>1589.59</ele>
  <time>2026-08-27T18:30:56Z</time>
  <course>11.41</course>
  <speed>0.022360679774997897</speed>
  <fix>3d</fix>
</trkpt>
<trkpt lat="40.0728424" lon="-105.2305755">
  <ele>1589.62</ele>
  <time>2026-08-27T18:30:56Z</time>
  <course>4.03</course>
  <speed>0.0</speed>
  <fix>3d</fix>
</trkpt>
<trkpt lat="40.0728422" lon="-105.2305753">
  <ele>1589.49</ele>
  <time>2026-08-27T18:30:57Z</time>
  <course>11.41</course>
  <speed>0.022360679774997897</speed>
  <fix>3d</fix>
</trkpt>
<trkpt lat="40.0728424" lon="-105.2305755">
  <ele>1589.52</ele>
  <time>2026-08-27T18:30:57Z</time>
  <course>21.84</course>
  <speed>0.0</speed>
  <fix>3d</fix>
</trkpt>
<trkpt lat="40.0728422" lon="-105.2305753">
  <ele>1589.39</ele>
  <time>2026-08-27T18:30:57Z</time>
  <course>11.39</course>
  <speed>0.0282842712474619</speed>
  <fix>3d</fix>
</trkpt>
<trkpt lat="40.0728424" lon="-105.2305755">
  <ele>1589.41</ele>
  <time>2026-08-27T18:30:57Z</time>
  <course>59.14</course>
  <speed>0.0</speed>
  <fix>3d</fix>
</trkpt>
<trkpt lat="40.0728422" lon="-105.2305753">
  <ele>1589.29</ele>
  <time>2026-08-27T18:30:57Z</time>
  <course>11.41</course>
  <speed>0.0282842712474619</speed>
  <fix>3d</fix>
</trkpt>
<trkpt lat="40.0728424" lon="-105.2305755">
  <ele>1589.32</ele>
  <time>2026-08-27T18:30:57Z</time>
  <course>98.72</course>
  <speed>0.0</speed>
  <fix>3d</fix>
</trkpt>
<trkpt lat="40.0728422" lon="-105.2305753">
  <ele>1589.19</ele>
  <time>2026-08-27T18:30:57Z</time>
  <course>11.39</course>
  <speed>0.0282842712474619</speed>
  <fix>3d</fix>
</trkpt>
<trkpt lat="40.0728424" lon="-105.2305755">
  <ele>1589.22</ele>
  <time>2026-08-27T18:30:57Z</time>
  <course>122.33</course>
  <speed>0.0</speed>
  <fix>3d</fix>
</trkpt>
<trkpt lat="40.0728422" lon="-105.2305753">
  <ele>1589.09</ele>
  <time>2026-08-27T18:30:57Z</time>
  <course>11.4</course>
  <speed>0.0282842712474619</speed>
  <fix>3d</fix>
</trkpt>
<trkpt lat="40.0728424" lon="-105.2305755">
  <ele>1589.12</ele>
  <time>2026-08-27T18:30:57Z</time>
  <course>134.41</course>
  <speed>0.0</speed>
  <fix>3d</fix>
</trkpt>
<trkpt lat="40.0728422" lon="-105.2305753">
  <ele>1588.99</ele>
  <time>2026-08-27T18:30:57Z</time>
  <course>11.41</course>
  <speed>0.0282842712474619</speed>
  <fix>3d</fix>
</trkpt>
<trkpt lat="40.0728424" lon="-105.2305755">
  <ele>1589.02</ele>
  <time>2026-08-27T18:30:57Z</time>
  <course>142.11</course>
  <speed>0.0</speed>
  <fix>3d</fix>
</trkpt>
<trkpt lat="40.0728422" lon="-105.2305753">
  <ele>1588.89</ele>
  <time>2026-08-27T18:30:57Z</time>
  <course>11.39</course>
  <speed>0.0282842712474619</speed>
  <fix>3d</fix>
</trkpt>
<trkpt lat="40.0728424" lon="-105.2305755">
  <ele>1588.91</ele>
  <time>2026-08-27T18:30:57Z</time>
  <course>144.11</course>
  <speed>0.0</speed>
  <fix>3d</fix>
</trkpt>
<trkpt lat="40.0728422" lon="-105.2305753">
  <ele>1588.79</ele>
  <time>2026-08-27T18:30:57Z</time>
  <course>11.39</course>
  <speed>0.0282842712474619</speed>
  <fix>3d</fix>
</trkpt>
<trkpt lat="40.0728424" lon="-105.2305755">
  <ele>1588.81</ele>
  <time>2026-08-27T18:30:57Z</time>
  <course>144.03</course>
  <speed>0.0</speed>
  <fix>3d</fix>
</trkpt>
<trkpt lat="40.0728422" lon="-105.2305753">
  <ele>1588.69</ele>
  <time>2026-08-27T18:30:57Z</time>
  <course>11.39</course>
  <speed>0.0282842712474619</speed>
  <fix>3d</fix>
</trkpt>
<trkpt lat="40.0728424" lon="-105.2305755">
  <ele>1588.71</ele>
  <time>2026-08-27T18:30:57Z</time>
  <course>144.88</course>
  <speed>0.0</speed>
  <fix>3d</fix>
</trkpt>
<trkpt lat="40.0728422" lon="-105.2305753">
  <ele>1588.59</ele>
  <time>2026-08-27T18:30:57Z</time>
  <course>11.39</course>
  <speed>0.0282842712474619</speed>
  <fix>3d</fix>
</trkpt>
<trkpt lat="40.0728424" lon="-105.2305755">
  <ele>1588.61</ele>
  <time>2026-08-27T18:30:57Z</time>
  <course>145.72</course>
  <speed>0.0</speed>
  <fix>3d</fix>
</trkpt>
<trkpt lat="40.0728422" lon="-105.2305753">
  <ele>1588.49</ele>
  <time>2026-08-27T18:30:57Z</time>
  <course>11.41</course>
  <speed>0.0282842712474619</speed>
  <fix>3d</fix>
</trkpt>
<trkpt lat="40.0728424" lon="-105.2305755">
  <ele>1588.51</ele>
  <time>2026-08-27T18:30:57Z</time>
  <course>146.78</course>
  <speed>0.0</speed>
  <fix>3d</fix>
</trkpt>
<trkpt lat="40.0728422" lon="-105.2305753">
  <ele>1588.39</ele>
  <time>2026-08-27T18:30:57Z</time>
  <course>11.39</course>
  <speed>0.0282842712474619</speed>
  <fix>3d</fix>
</trkpt>
<trkpt lat="40.0728424" lon="-105.2305755">
  <ele>1588.41</ele>
  <time>2026-08-27T18:30:57Z</time>
  <course>147.56</course>
  <speed>0.0</speed>
  <fix>3d</fix>
</trkpt>
<trkpt lat="40.0728422" lon="-105.2305753">
  <ele>1588.29</ele>
  <time>2026-08-27T18:30:57Z</time>
  <course>11.4</course>
  <speed>0.0282842712474619</speed>
  <fix>3d</fix>
</trkpt>
<trkpt lat="40.0728424" lon="-105.2305755">
  <ele>1588.31</ele>
  <time>2026-08-27T18:30:57Z</time>
  <course>148.28</course>
  <speed>0.0</speed>
  <fix>3d</fix>
</trkpt>
<trkpt lat="40.0728422" lon="-105.2305753">
  <ele>1588.19</ele>
  <time>2026-08-27T18:30:57Z</time>
  <course>11.41</course>
  <speed>0.0282842712474619</speed>
  <fix>3d</fix>
</trkpt>
<trkpt lat="40.0728424" lon="-105.2305755">
  <ele>1588.21</ele>
  <time>2026-08-27T18:30:57Z</time>
  <course>148.03</course>
  <speed>0.0</speed>
  <fix>3d</fix>
</trkpt>
<trkpt lat="40.0728422" lon="-105.2305753">
  <ele>1588.09</ele>
  <time>2026-08-27T18:30:57Z</time>
  <course>11.39</course>
  <speed>0.0282842712474619</speed>
  <fix>3d</fix>
</trkpt>
<trkpt lat="40.0728424" lon="-105.2305755">
  <ele>1588.11</ele>
  <time>2026-08-27T18:30:57Z</time>
  <course>146.2</course>
  <speed>0.0</speed>
  <fix>3d</fix>
</trkpt>
<trkpt lat="40.0728422" lon="-105.2305753">
  <ele>1587.99</ele>
  <time>2026-08-27T18:30:57Z</time>
  <course>11.4</course>
  <speed>0.0282842712474619</speed>
  <fix>3d</fix>
</trkpt>
<trkpt lat="40.0728424" lon="-105.2305755">
  <ele>1588.01</ele>
  <time>2026-08-27T18:30:57Z</time>
  <course>145.63</course>
  <speed>0.0</speed>
  <fix>3d</fix>
</trkpt>
<trkpt lat="40.0728422" lon="-105.2305753">
  <ele>1587.9</ele>
  <time>2026-08-27T18:30:57Z</time>
  <course>11.41</course>
  <speed>0.0282842712474619</speed>
  <fix>3d</fix>
</trkpt>
<trkpt lat="40.0728424" lon="-105.2305755">
  <ele>1587.9</ele>
  <time>2026-08-27T18:30:57Z</time>
  <course>146.89</course>
  <speed>0.0</speed>
  <fix>3d</fix>
</trkpt>
<trkpt lat="40.0728422" lon="-105.2305753">
  <ele>1587.79</ele>
  <time>2026-08-27T18:30:57Z</time>
  <course>11.41</course>
  <speed>0.0282842712474619</speed>
  <fix>3d</fix>
</trkpt>
<trkpt lat="40.0728424" lon="-105.2305755">
  <ele>1587.81</ele>
  <time>2026-08-27T18:30:57Z</time>
  <course>146.97</course>
  <speed>0.0</speed>
  <fix>3d</fix>
</trkpt>
<trkpt lat="40.0728422" lon="-105.2305753">
  <ele>1587.69</ele>
  <time>2026-08-27T18:30:57Z</time>
  <course>11.4</course>
  <speed>0.0282842712474619</speed>
  <fix>3d</fix>
</trkpt>
<trkpt lat="40.0728424" lon="-105.2305755">
  <ele>1587.71</ele>
  <time>2026-08-27T18:30:57Z</time>
  <course>146.16</course>
  <speed>0.0</speed>
  <fix>3d</fix>
</trkpt>
<trkpt lat="40.0728422" lon="-105.2305753">
  <ele>1587.59</ele>
  <time>2026-08-27T18:30:57Z</time>
  <course>11.4</course>
  <speed>0.0282842712474619</speed>
  <fix>3d</fix>
</trkpt>
<trkpt lat="40.0728423" lon="-105.2305755">
  <ele>1587.61</ele>
  <time>2026-08-27T18:30:57Z</time>
  <course>146.66</course>
  <speed>0.0</speed>
  <fix>3d</fix>
</trkpt>
<trkpt lat="40.0728422" lon="-105.2305753">
  <ele>1587.49</ele>
  <time>2026-08-27T18:30:57Z</time>
  <course>11.4</course>
  <speed>0.0282842712474619</speed>
  <fix>3d</fix>
</trkpt>
<trkpt lat="40.0728423" lon="-105.2305754">
  <ele>1587.51</ele>
  <time>2026-08-27T18:30:57Z</time>
  <course>146.61</course>
  <speed>0.0</speed>
  <fix>3d</fix>
</trkpt>
<trkpt lat="40.0728422" lon="-105.2305753">
  <ele>1587.38</ele>
  <time>2026-08-27T18:30:57Z</time>
  <course>11.38</course>
  <speed>0.0282842712474619</speed>
  <fix>3d</fix>
</trkpt>
<trkpt lat="40.0728423" lon="-105.2305753">
  <ele>1587.4</ele>
  <time>2026-08-27T18:30:57Z</time>
  <course>144.98</course>
  <speed>0.0</speed>
  <fix>3d</fix>
</trkpt>
<trkpt lat="40.0728422" lon="-105.2305753">
  <ele>1587.28</ele>
  <time>2026-08-27T18:30:57Z</time>
  <course>11.38</course>
  <speed>0.0282842712474619</speed>
  <fix>3d</fix>
</trkpt>
<trkpt lat="40.0728423" lon="-105.2305753">
  <ele>1587.31</ele>
  <time>2026-08-27T18:30:57Z</time>
  <course>144.07</course>
  <speed>0.0</speed>
  <fix>3d</fix>
</trkpt>
<trkpt lat="40.0728422" lon="-105.2305752">
  <ele>1587.18</ele>
  <time>2026-08-27T18:30:57Z</time>
  <course>11.38</course>
  <speed>0.0282842712474619</speed>
  <fix>3d</fix>
</trkpt>
<trkpt lat="40.0728423" lon="-105.2305753">
  <ele>1587.21</ele>
  <time>2026-08-27T18:30:57Z</time>
  <course>143.01</course>
  <speed>0.0</speed>
  <fix>3d</fix>
</trkpt>
<trkpt lat="40.0728422" lon="-105.2305752">
  <ele>1587.08</ele>
  <time>2026-08-27T18:30:57Z</time>
  <course>11.37</course>
  <speed>0.01414213562373095</speed>
  <fix>3d</fix>
</trkpt>
<trkpt lat="40.0728423" lon="-105.2305753">
  <ele>1587.11</ele>
  <time>2026-08-27T18:30:57Z</time>
  <course>141.31</course>
  <speed>0.0</speed>
  <fix>3d</fix>
</trkpt>
<trkpt lat="40.0728422" lon="-105.2305752">
  <ele>1586.99</ele>
  <time>2026-08-27T18:30:57Z</time>
  <course>11.39</course>
  <speed>0.01414213562373095</speed>
  <fix>3d</fix>
</trkpt>
<trkpt lat="40.0728423" lon="-105.2305753">
  <ele>1587.01</ele>
  <time>2026-08-27T18:30:57Z</time>
  <course>144.24</course>
  <speed>0.0</speed>
  <fix>3d</fix>
</trkpt>
<trkpt lat="40.0728422" lon="-105.2305752">
  <ele>1586.88</ele>
  <time>2026-08-27T18:30:57Z</time>
  <course>11.39</course>
  <speed>0.01414213562373095</speed>
  <fix>3d</fix>
</trkpt>
<trkpt lat="40.0728423" lon="-105.2305753">
  <ele>1586.9</ele>
  <time>2026-08-27T18:30:57Z</time>
  <course>156.19</course>
  <speed>0.0</speed>
  <fix>3d</fix>
</trkpt>
<trkpt lat="40.0728422" lon="-105.2305752">
  <ele>1586.78</ele>
  <time>2026-08-27T18:30:57Z</time>
  <course>11.39</course>
  <speed>0.01414213562373095</speed>
  <fix>3d</fix>
</trkpt>
<trkpt lat="40.0728423" lon="-105.2305753">
  <ele>1586.81</ele>
  <time>2026-08-27T18:30:57Z</time>
  <course>185.18</course>
  <speed>0.0</speed>
  <fix>3d</fix>
</trkpt>
<trkpt lat="40.0728422" lon="-105.2305752">
  <ele>1586.69</ele>
  <time>2026-08-27T18:30:57Z</time>
  <course>11.37</course>
  <speed>0.01414213562373095</speed>
  <fix>3d</fix>
</trkpt>
<trkpt lat="40.0728423" lon="-105.2305753">
  <ele>1586.71</ele>
  <time>2026-08-27T18:30:57Z</time>
  <course>216.47</course>
  <speed>0.0</speed>
  <fix>3d</fix>
</trkpt>
<trkpt lat="40.0728422" lon="-105.2305752">
  <ele>1586.59</ele>
  <time>2026-08-27T18:30:57Z</time>
  <course>11.4</course>
  <speed>0.01414213562373095</speed>
  <fix>3d</fix>
</trkpt>
<trkpt lat="40.0728423" lon="-105.2305753">
  <ele>1586.61</ele>
  <time>2026-08-27T18:30:57Z</time>
  <course>232.95</course>
  <speed>0.0</speed>
  <fix>3d</fix>
</trkpt>
<trkpt lat="40.0728422" lon="-105.2305752">
  <ele>1586.49</ele>
  <time>2026-08-27T18:30:57Z</time>
  <course>11.39</course>
  <speed>0.01414213562373095</speed>
  <fix>3d</fix>
</trkpt>
<trkpt lat="40.0728423" lon="-105.2305753">
  <ele>1586.52</ele>
  <time>2026-08-27T18:30:57Z</time>
  <course>243.9</course>
  <speed>0.0</speed>
  <fix>3d</fix>
</trkpt>
<trkpt lat="40.0728422" lon="-105.2305752">
  <ele>1586.39</ele>
  <time>2026-08-27T18:30:57Z</time>
  <course>11.4</course>
  <speed>0.01414213562373095</speed>
  <fix>3d</fix>
</trkpt>
<trkpt lat="40.0728423" lon="-105.2305753">
  <ele>1586.41</ele>
  <time>2026-08-27T18:30:57Z</time>
  <course>250.71</course>
  <speed>0.0</speed>
  <fix>3d</fix>
</trkpt>
<trkpt lat="40.0728422" lon="-105.2305752">
  <ele>1586.29</ele>
  <time>2026-08-27T18:30:57Z</time>
  <course>11.4</course>
  <speed>0.01414213562373095</speed>
  <fix>3d</fix>
</trkpt>
<trkpt lat="40.0728423" lon="-105.2305753">
  <ele>1586.32</ele>
  <time>2026-08-27T18:30:57Z</time>
  <course>254.41</course>
  <speed>0.0</speed>
  <fix>3d</fix>
</trkpt>
<trkpt lat="40.0728422" lon="-105.2305752">
  <ele>1586.19</ele>
  <time>2026-08-27T18:30:57Z</time>
  <course>11.39</course>
  <speed>0.01414213562373095</speed>
  <fix>3d</fix>
</trkpt>
<trkpt lat="40.0728423" lon="-105.2305753">
  <ele>1586.22</ele>
  <time>2026-08-27T18:30:57Z</time>
  <course>255.4</course>
  <speed>0.0</speed>
  <fix>3d</fix>
</trkpt>
<trkpt lat="40.0728422" lon="-105.2305752">
  <ele>1586.14</ele>
  <time>2026-08-27T18:30:57Z</time>
  <course>11.39</course>
  <speed>0.01</speed>
  <fix>3d</fix>
</trkpt>
<trkpt lat="40.0728423" lon="-105.2305753">
  <ele>1586.12</ele>
  <time>2026-08-27T18:30:57Z</time>
  <course>274.69</course>
  <speed>0.01</speed>
  <fix>3d</fix>
</trkpt>
<trkpt lat="40.0728422" lon="-105.2305752">
  <ele>1586.17</ele>
  <time>2026-08-27T18:30:57Z</time>
  <course>11.44</course>
  <speed>0.022360679774997897</speed>
  <fix>3d</fix>
</trkpt>
<trkpt lat="40.0728423" lon="-105.2305753">
  <ele>1586.07</ele>
  <time>2026-08-27T18:30:57Z</time>
  <course>284.62</course>
  <speed>0.01</speed>
  <fix>3d</fix>
</trkpt>
<trkpt lat="40.0728422" lon="-105.2305752">
  <ele>1586.18</ele>
  <time>2026-08-27T18:30:57Z</time>
  <course>11.49</course>
  <speed>0.01414213562373095</speed>
  <fix>3d</fix>
</trkpt>
<trkpt lat="40.0728423" lon="-105.2305753">
  <ele>1586.09</ele>
  <time>2026-08-27T18:30:57Z</time>
  <course>331.98</course>
  <speed>0.0</speed>
  <fix>3d</fix>
</trkpt>
<trkpt lat="40.0728422" lon="-105.2305752">
  <ele>1586.17</ele>
  <time>2026-08-27T18:30:57Z</time>
  <course>11.52</course>
  <speed>0.01414213562373095</speed>
  <fix>3d</fix>
</trkpt>
<trkpt lat="40.0728423" lon="-105.2305753">
  <ele>1586.1</ele>
  <time>2026-08-27T18:30:57Z</time>
  <course>90.57</course>
  <speed>0.0</speed>
  <fix>3d</fix>
</trkpt>
<trkpt lat="40.0728422" lon="-105.2305752">
  <ele>1586.17</ele>
  <time>2026-08-27T18:30:57Z</time>
  <course>11.56</course>
  <speed>0.01414213562373095</speed>
  <fix>3d</fix>
</trkpt>
<trkpt lat="40.0728423" lon="-105.2305753">
  <ele>1586.09</ele>
  <time>2026-08-27T18:30:57Z</time>
  <course>123.57</course>
  <speed>0.0</speed>
  <fix>3d</fix>
</trkpt>
<trkpt lat="40.0728422" lon="-105.2305752">
  <ele>1586.18</ele>
  <time>2026-08-27T18:30:57Z</time>
  <course>11.59</course>
  <speed>0.01414213562373095</speed>
  <fix>3d</fix>
</trkpt>
<trkpt lat="40.0728423" lon="-105.2305753">
  <ele>1586.09</ele>
  <time>2026-08-27T18:30:57Z</time>
  <course>330.68</course>
  <speed>0.0</speed>
  <fix>3d</fix>
</trkpt>
<trkpt lat="40.0728422" lon="-105.2305752">
  <ele>1586.18</ele>
  <time>2026-08-27T18:30:57Z</time>
  <course>11.61</course>
  <speed>0.01414213562373095</speed>
  <fix>3d</fix>
</trkpt>
<trkpt lat="40.0728423" lon="-105.2305753">
  <ele>1586.09</ele>
  <time>2026-08-27T18:30:57Z</time>
  <course>37.93</course>
  <speed>0.0</speed>
  <fix>3d</fix>
</trkpt>
<trkpt lat="40.0728422" lon="-105.2305752">
  <ele>1586.18</ele>
  <time>2026-08-27T18:30:57Z</time>
  <course>11.64</course>
  <speed>0.01414213562373095</speed>
  <fix>3d</fix>
</trkpt>
<trkpt lat="40.0728423" lon="-105.2305753">
  <ele>1586.09</ele>
  <time>2026-08-27T18:30:57Z</time>
  <course>5.25</course>
  <speed>0.0</speed>
  <fix>3d</fix>
</trkpt>
<trkpt lat="40.0728422" lon="-105.2305752">
  <ele>1586.18</ele>
  <time>2026-08-27T18:30:57Z</time>
  <course>11.66</course>
  <speed>0.01414213562373095</speed>
  <fix>3d</fix>
</trkpt>
<trkpt lat="40.0728423" lon="-105.2305753">
  <ele>1586.09</ele>
  <time>2026-08-27T18:30:57Z</time>
  <course>324.84</course>
  <speed>0.0</speed>
  <fix>3d</fix>
</trkpt>
<trkpt lat="40.0728422" lon="-105.2305752">
  <ele>1586.18</ele>
  <time>2026-08-27T18:30:57Z</time>
  <course>11.69</course>
  <speed>0.0282842712474619</speed>
  <fix>3d</fix>
</trkpt>
<trkpt lat="40.0728423" lon="-105.2305753">
  <ele>1586.09</ele>
  <time>2026-08-27T18:30:57Z</time>
  <course>29.98</course>
  <speed>0.0</speed>
  <fix>3d</fix>
</trkpt>
<trkpt lat="40.0728422" lon="-105.2305752">
  <ele>1586.18</ele>
  <time>2026-08-27T18:30:57Z</time>
  <course>11.66</course>
  <speed>0.03605551275463989</speed>
  <fix>3d</fix>
</trkpt>
<trkpt lat="40.0728423" lon="-105.2305753">
  <ele>1586.09</ele>
  <time>2026-08-27T18:30:57Z</time>
  <course>99.36</course>
  <speed>0.01</speed>
  <fix>3d</fix>
</trkpt>
<trkpt lat="40.0728422" lon="-105.2305752">
  <ele>1586.18</ele>
  <time>2026-08-27T18:30:57Z</time>
  <course>11.61</course>
  <speed>0.01414213562373095</speed>
  <fix>3d</fix>
</trkpt>
<trkpt lat="40.0728423" lon="-105.2305753">
  <ele>1586.09</ele>
  <time>2026-08-27T18:30:57Z</time>
  <course>102.69</course>
  <speed>0.01</speed>
  <fix>3d</fix>
</trkpt>
<trkpt lat="40.0728422" lon="-105.2305752">
  <ele>1586.18</ele>
  <time>2026-08-27T18:30:57Z</time>
  <course>11.58</course>
  <speed>0.01414213562373095</speed>
  <fix>3d</fix>
</trkpt>
<trkpt lat="40.0728423" lon="-105.2305753">
  <ele>1586.09</ele>
  <time>2026-08-27T18:30:57Z</time>
  <course>250.25</course>
  <speed>0.0</speed>
  <fix>3d</fix>
</trkpt>
<trkpt lat="40.0728422" lon="-105.2305752">
  <ele>1586.18</ele>
  <time>2026-08-27T18:30:57Z</time>
  <course>11.57</course>
  <speed>0.01414213562373095</speed>
  <fix>3d</fix>
</trkpt>
<trkpt lat="40.0728423" lon="-105.2305753">
  <ele>1586.09</ele>
  <time>2026-08-27T18:30:57Z</time>
  <course>264.74</course>
  <speed>0.0</speed>
  <fix>3d</fix>
</trkpt>
<trkpt lat="40.0728422" lon="-105.2305752">
  <ele>1586.18</ele>
  <time>2026-08-27T18:30:57Z</time>
  <course>11.57</course>
  <speed>0.01414213562373095</speed>
  <fix>3d</fix>
</trkpt>
<trkpt lat="40.0728423" lon="-105.2305753">
  <ele>1586.09</ele>
  <time>2026-08-27T18:30:57Z</time>
  <course>228.39</course>
  <speed>0.0</speed>
  <fix>3d</fix>
</trkpt>
<trkpt lat="40.0728422" lon="-105.2305752">
  <ele>1586.18</ele>
  <time>2026-08-27T18:30:57Z</time>
  <course>11.56</course>
  <speed>0.01414213562373095</speed>
  <fix>3d</fix>
</trkpt>
<trkpt lat="40.0728423" lon="-105.2305753">
  <ele>1586.09</ele>
  <time>2026-08-27T18:30:57Z</time>
  <course>234.59</course>
  <speed>0.0</speed>
  <fix>3d</fix>
</trkpt>
<trkpt lat="40.0728422" lon="-105.2305752">
  <ele>1586.18</ele>
  <time>2026-08-27T18:30:57Z</time>
  <course>11.56</course>
  <speed>0.01414213562373095</speed>
  <fix>3d</fix>
</trkpt>
<trkpt lat="40.0728423" lon="-105.2305753">
  <ele>1586.09</ele>
  <time>2026-08-27T18:30:57Z</time>
  <course>242.34</course>
  <speed>0.0</speed>
  <fix>3d</fix>
</trkpt>
<trkpt lat="40.0728422" lon="-105.2305752">
  <ele>1586.19</ele>
  <time>2026-08-27T18:30:57Z</time>
  <course>11.56</course>
  <speed>0.01414213562373095</speed>
  <fix>3d</fix>
</trkpt>
<trkpt lat="40.0728423" lon="-105.2305753">
  <ele>1586.09</ele>
  <time>2026-08-27T18:30:57Z</time>
  <course>237.41</course>
  <speed>0.0</speed>
  <fix>3d</fix>
</trkpt>
<trkpt lat="40.0728422" lon="-105.2305752">
  <ele>1586.19</ele>
  <time>2026-08-27T18:30:57Z</time>
  <course>11.56</course>
  <speed>0.01414213562373095</speed>
  <fix>3d</fix>
</trkpt>
<trkpt lat="40.0728423" lon="-105.2305753">
  <ele>1586.09</ele>
  <time>2026-08-27T18:30:57Z</time>
  <course>225.58</course>
  <speed>0.0</speed>
  <fix>3d</fix>
</trkpt>
<trkpt lat="40.0728422" lon="-105.2305752">
  <ele>1586.19</ele>
  <time>2026-08-27T18:30:57Z</time>
  <course>11.56</course>
  <speed>0.022360679774997897</speed>
  <fix>3d</fix>
</trkpt>
<trkpt lat="40.0728423" lon="-105.2305753">
  <ele>1586.09</ele>
  <time>2026-08-27T18:30:57Z</time>
  <course>99.96</course>
  <speed>0.0</speed>
  <fix>3d</fix>
</trkpt>
<trkpt lat="40.0728422" lon="-105.2305752">
  <ele>1586.19</ele>
  <time>2026-08-27T18:30:57Z</time>
  <course>11.56</course>
  <speed>0.022360679774997897</speed>
  <fix>3d</fix>
</trkpt>
<trkpt lat="40.0728423" lon="-105.2305753">
  <ele>1586.09</ele>
  <time>2026-08-27T18:30:57Z</time>
  <course>352.44</course>
  <speed>0.0</speed>
  <fix>3d</fix>
</trkpt>
<trkpt lat="40.0728422" lon="-105.2305752">
  <ele>1586.19</ele>
  <time>2026-08-27T18:30:57Z</time>
  <course>11.56</course>
  <speed>0.022360679774997897</speed>
  <fix>3d</fix>
</trkpt>
<trkpt lat="40.0728423" lon="-105.2305753">
  <ele>1586.09</ele>
  <time>2026-08-27T18:30:57Z</time>
  <course>284.8</course>
  <speed>0.0</speed>
  <fix>3d</fix>
</trkpt>
<trkpt lat="40.0728422" lon="-105.2305752">
  <ele>1586.19</ele>
  <time>2026-08-27T18:30:57Z</time>
  <course>11.56</course>
  <speed>0.022360679774997897</speed>
  <fix>3d</fix>
</trkpt>
<trkpt lat="40.0728423" lon="-105.2305753">
  <ele>1586.09</ele>
  <time>2026-08-27T18:30:57Z</time>
  <course>286.6</course>
  <speed>0.0</speed>
  <fix>3d</fix>
</trkpt>
<trkpt lat="40.0728422" lon="-105.2305752">
  <ele>1586.19</ele>
  <time>2026-08-27T18:30:57Z</time>
  <course>11.56</course>
  <speed>0.022360679774997897</speed>
  <fix>3d</fix>
</trkpt>
<trkpt lat="40.0728423" lon="-105.2305753">
  <ele>1586.09</ele>
  <time>2026-08-27T18:30:57Z</time>
  <course>300.17</course>
  <speed>0.0</speed>
  <fix>3d</fix>
</trkpt>
<trkpt lat="40.0728422" lon="-105.2305752">
  <ele>1586.19</ele>
  <time>2026-08-27T18:30:57Z</time>
  <course>11.56</course>
  <speed>0.022360679774997897</speed>
  <fix>3d</fix>
</trkpt>
<trkpt lat="40.0728423" lon="-105.2305753">
  <ele>1586.09</ele>
  <time>2026-08-27T18:30:57Z</time>
  <course>297.39</course>
  <speed>0.0</speed>
  <fix>3d</fix>
</trkpt>
<trkpt lat="40.0728422" lon="-105.2305752">
  <ele>1586.19</ele>
  <time>2026-08-27T18:30:57Z</time>
  <course>11.56</course>
  <speed>0.022360679774997897</speed>
  <fix>3d</fix>
</trkpt>
<trkpt lat="40.0728423" lon="-105.2305753">
  <ele>1586.09</ele>
  <time>2026-08-27T18:30:57Z</time>
  <course>295.98</course>
  <speed>0.0</speed>
  <fix>3d</fix>
</trkpt>
<trkpt lat="40.0728422" lon="-105.2305752">
  <ele>1586.19</ele>
  <time>2026-08-27T18:30:57Z</time>
  <course>11.56</course>
  <speed>0.022360679774997897</speed>
  <fix>3d</fix>
</trkpt>
<trkpt lat="40.0728423" lon="-105.2305753">
  <ele>1586.09</ele>
  <time>2026-08-27T18:30:57Z</time>
  <course>296.49</course>
  <speed>0.0</speed>
  <fix>3d</fix>
</trkpt>
<trkpt lat="40.0728422" lon="-105.2305752">
  <ele>1586.19</ele>
  <time>2026-08-27T18:30:57Z</time>
  <course>11.55</course>
  <speed>0.022360679774997897</speed>
  <fix>3d</fix>
</trkpt>
<trkpt lat="40.0728423" lon="-105.2305753">
  <ele>1586.09</ele>
  <time>2026-08-27T18:30:57Z</time>
  <course>296.62</course>
  <speed>0.0</speed>
  <fix>3d</fix>
</trkpt>
<trkpt lat="40.0728422" lon="-105.2305752">
  <ele>1586.19</ele>
  <time>2026-08-27T18:30:57Z</time>
  <course>11.55</course>
  <speed>0.022360679774997897</speed>
  <fix>3d</fix>
</trkpt>
<trkpt lat="40.0728423" lon="-105.2305753">
  <ele>1586.09</ele>
  <time>2026-08-27T18:30:57Z</time>
  <course>296.54</course>
  <speed>0.0</speed>
  <fix>3d</fix>
</trkpt>
<trkpt lat="40.0728422" lon="-105.2305752">
  <ele>1586.18</ele>
  <time>2026-08-27T18:30:57Z</time>
  <course>11.55</course>
  <speed>0.022360679774997897</speed>
  <fix>3d</fix>
</trkpt>
<trkpt lat="40.0728423" lon="-105.2305753">
  <ele>1586.09</ele>
  <time>2026-08-27T18:30:57Z</time>
  <course>296.53</course>
  <speed>0.0</speed>
  <fix>3d</fix>
</trkpt>
<trkpt lat="40.0728422" lon="-105.2305752">
  <ele>1586.18</ele>
  <time>2026-08-27T18:30:57Z</time>
  <course>11.55</course>
  <speed>0.022360679774997897</speed>
  <fix>3d</fix>
</trkpt>
<trkpt lat="40.0728423" lon="-105.2305753">
  <ele>1586.09</ele>
  <time>2026-08-27T18:30:57Z</time>
  <course>296.54</course>
  <speed>0.0</speed>
  <fix>3d</fix>
</trkpt>
<trkpt lat="40.0728422" lon="-105.2305752">
  <ele>1586.18</ele>
  <time>2026-08-27T18:30:57Z</time>
  <course>11.55</course>
  <speed>0.022360679774997897</speed>
  <fix>3d</fix>
</trkpt>
<trkpt lat="40.0728423" lon="-105.2305753">
  <ele>1586.09</ele>
  <time>2026-08-27T18:30:57Z</time>
  <course>296.54</course>
  <speed>0.0</speed>
  <fix>3d</fix>
</trkpt>
<trkpt lat="40.0728422" lon="-105.2305752">
  <ele>1586.18</ele>
  <time>2026-08-27T18:30:57Z</time>
  <course>11.55</course>
  <speed>0.022360679774997897</speed>
  <fix>3d</fix>
</trkpt>
<trkpt lat="40.0728423" lon="-105.2305753">
  <ele>1586.09</ele>
  <time>2026-08-27T18:30:57Z</time>
  <course>296.54</course>
  <speed>0.0</speed>
  <fix>3d</fix>
</trkpt>
<trkpt lat="40.0728422" lon="-105.2305752">
  <ele>1586.18</ele>
  <time>2026-08-27T18:30:57Z</time>
  <course>11.55</course>
  <speed>0.022360679774997897</speed>
  <fix>3d</fix>
</trkpt>
<trkpt lat="40.0728423" lon="-105.2305753">
  <ele>1586.09</ele>
  <time>2026-08-27T18:30:57Z</time>
  <course>296.54</course>
  <speed>0.0</speed>
  <fix>3d</fix>
</trkpt>
<trkpt lat="40.0728422" lon="-105.2305752">
  <ele>1586.18</ele>
  <time>2026-08-27T18:30:57Z</time>
  <course>11.55</course>
  <speed>0.022360679774997897</speed>
  <fix>3d</fix>
</trkpt>
<trkpt lat="40.0728423" lon="-105.2305753">
  <ele>1586.09</ele>
  <time>2026-08-27T18:30:57Z</time>
  <course>296.54</course>
  <speed>0.0</speed>
  <fix>3d</fix>
</trkpt>
<trkpt lat="40.0728422" lon="-105.2305752">
  <ele>1586.18</ele>
  <time>2026-08-27T18:30:57Z</time>
  <course>11.54</course>
  <speed>0.022360679774997897</speed>
  <fix>3d</fix>
</trkpt>
<trkpt lat="40.0728423" lon="-105.2305753">
  <ele>1586.09</ele>
  <time>2026-08-27T18:30:57Z</time>
  <course>296.54</course>
  <speed>0.0</speed>
  <fix>3d</fix>
</trkpt>
<trkpt lat="40.0728422" lon="-105.2305752">
  <ele>1586.18</ele>
  <time>2026-08-27T18:30:57Z</time>
  <course>11.54</course>
  <speed>0.022360679774997897</speed>
  <fix>3d</fix>
</trkpt>
<trkpt lat="40.0728423" lon="-105.2305753">
  <ele>1586.09</ele>
  <time>2026-08-27T18:30:57Z</time>
  <course>296.54</course>
  <speed>0.0</speed>
  <fix>3d</fix>
</trkpt>
<trkpt lat="40.0728422" lon="-105.2305752">
  <ele>1586.18</ele>
  <time>2026-08-27T18:30:57Z</time>
  <course>11.54</course>
  <speed>0.022360679774997897</speed>
  <fix>3d</fix>
</trkpt>
<trkpt lat="40.0728423" lon="-105.2305753">
  <ele>1586.09</ele>
  <time>2026-08-27T18:30:57Z</time>
  <course>296.54</course>
  <speed>0.0</speed>
  <fix>3d</fix>
</trkpt>
<trkpt lat="40.0728422" lon="-105.2305752">
  <ele>1586.19</ele>
  <time>2026-08-27T18:30:57Z</time>
  <course>11.54</course>
  <speed>0.022360679774997897</speed>
  <fix>3d</fix>
</trkpt>
<trkpt lat="40.0728423" lon="-105.2305753">
  <ele>1586.09</ele>
  <time>2026-08-27T18:30:57Z</time>
  <course>296.54</course>
  <speed>0.0</speed>
  <fix>3d</fix>
</trkpt>
<trkpt lat="40.0728422" lon="-105.2305752">
  <ele>1586.19</ele>
  <time>2026-08-27T18:30:57Z</time>
  <course>11.54</course>
  <speed>0.022360679774997897</speed>
  <fix>3d</fix>
</trkpt>
<trkpt lat="40.0728423" lon="-105.2305753">
  <ele>1586.09</ele>
  <time>2026-08-27T18:30:57Z</time>
  <course>296.54</course>
  <speed>0.0</speed>
  <fix>3d</fix>
</trkpt>
<trkpt lat="40.0728422" lon="-105.2305752">
  <ele>1586.19</ele>
  <time>2026-08-27T18:30:57Z</time>
  <course>11.54</course>
  <speed>0.022360679774997897</speed>
  <fix>3d</fix>
</trkpt>
<trkpt lat="40.0728423" lon="-105.2305753">
  <ele>1586.09</ele>
  <time>2026-08-27T18:30:57Z</time>
  <course>296.54</course>
  <speed>0.0</speed>
  <fix>3d</fix>
</trkpt>
<trkpt lat="40.0728422" lon="-105.2305752">
  <ele>1586.19</ele>
  <time>2026-08-27T18:30:57Z</time>
  <course>11.54</course>
  <speed>0.022360679774997897</speed>
  <fix>3d</fix>
</trkpt>
<trkpt lat="40.0728423" lon="-105.2305753">
  <ele>1586.09</ele>
  <time>2026-08-27T18:30:57Z</time>
  <course>296.54</course>
  <speed>0.0</speed>
  <fix>3d</fix>
</trkpt>
<trkpt lat="40.0728422" lon="-105.2305752">
  <ele>1586.19</ele>
  <time>2026-08-27T18:30:57Z</time>
  <course>11.53</course>
  <speed>0.022360679774997897</speed>
  <fix>3d</fix>
</trkpt>
<trkpt lat="40.0728423" lon="-105.2305753">
  <ele>1586.09</ele>
  <time>2026-08-27T18:30:57Z</time>
  <course>296.54</course>
  <speed>0.0</speed>
  <fix>3d</fix>
</trkpt>
<trkpt lat="40.0728422" lon="-105.2305752">
  <ele>1586.19</ele>
  <time>2026-08-27T18:30:57Z</time>
  <course>11.53</course>
  <speed>0.022360679774997897</speed>
  <fix>3d</fix>
</trkpt>
<trkpt lat="40.0728423" lon="-105.2305753">
  <ele>1586.09</ele>
  <time>2026-08-27T18:30:57Z</time>
  <course>296.54</course>
  <speed>0.0</speed>
  <fix>3d</fix>
</trkpt>
<trkpt lat="40.0728422" lon="-105.2305752">
  <ele>1586.19</ele>
  <time>2026-08-27T18:30:57Z</time>
  <course>11.53</course>
  <speed>0.022360679774997897</speed>
  <fix>3d</fix>
</trkpt>
<trkpt lat="40.0728423" lon="-105.2305753">
  <ele>1586.09</ele>
  <time>2026-08-27T18:30:57Z</time>
  <course>296.54</course>
  <speed>0.0</speed>
  <fix>3d</fix>
</trkpt>
<trkpt lat="40.0728422" lon="-105.2305752">
  <ele>1586.19</ele>
  <time>2026-08-27T18:30:57Z</time>
  <course>11.53</course>
  <speed>0.022360679774997897</speed>
  <fix>3d</fix>
</trkpt>
<trkpt lat="40.0728423" lon="-105.2305753">
  <ele>1586.09</ele>
  <time>2026-08-27T18:30:57Z</time>
  <course>296.55</course>
  <speed>0.0</speed>
  <fix>3d</fix>
</trkpt>
<trkpt lat="40.0728422" lon="-105.2305752">
  <ele>1586.19</ele>
  <time>2026-08-27T18:30:57Z</time>
  <course>11.53</course>
  <speed>0.022360679774997897</speed>
  <fix>3d</fix>
</trkpt>
<trkpt lat="40.0728423" lon="-105.2305753">
  <ele>1586.09</ele>
  <time>2026-08-27T18:30:57Z</time>
  <course>296.55</course>
  <speed>0.0</speed>
  <fix>3d</fix>
</trkpt>
<trkpt lat="40.0728422" lon="-105.2305752">
  <ele>1586.19</ele>
  <time>2026-08-27T18:30:57Z</time>
  <course>11.53</course>
  <speed>0.022360679774997897</speed>
  <fix>3d</fix>
</trkpt>
<trkpt lat="40.0728423" lon="-105.2305753">
  <ele>1586.09</ele>
  <time>2026-08-27T18:30:57Z</time>
  <course>296.55</course>
  <speed>0.0</speed>
  <fix>3d</fix>
</trkpt>
<trkpt lat="40.0728422" lon="-105.2305752">
  <ele>1586.19</ele>
  <time>2026-08-27T18:30:57Z</time>
  <course>11.53</course>
  <speed>0.022360679774997897</speed>
  <fix>3d</fix>
</trkpt>
<trkpt lat="40.0728423" lon="-105.2305753">
  <ele>1586.09</ele>
  <time>2026-08-27T18:30:57Z</time>
  <course>296.55</course>
  <speed>0.0</speed>
  <fix>3d</fix>
</trkpt>
<trkpt lat="40.0728422" lon="-105.2305752">
  <ele>1586.19</ele>
  <time>2026-08-27T18:30:57Z</time>
  <course>11.52</course>
  <speed>0.022360679774997897</speed>
  <fix>3d</fix>
</trkpt>
<trkpt lat="40.0728423" lon="-105.2305753">
  <ele>1586.09</ele>
  <time>2026-08-27T18:30:57Z</time>
  <course>296.55</course>
  <speed>0.0</speed>
  <fix>3d</fix>
</trkpt>
<trkpt lat="40.0728422" lon="-105.2305752">
  <ele>1586.19</ele>
  <time>2026-08-27T18:30:57Z</time>
  <course>11.52</course>
  <speed>0.022360679774997897</speed>
  <fix>3d</fix>
</trkpt>
<trkpt lat="40.0728423" lon="-105.2305753">
  <ele>1586.09</ele>
  <time>2026-08-27T18:30:57Z</time>
  <course>296.55</course>
  <speed>0.0</speed>
  <fix>3d</fix>
</trkpt>
<trkpt lat="40.0728422" lon="-105.2305752">
  <ele>1586.19</ele>
  <time>2026-08-27T18:30:57Z</time>
  <course>11.52</course>
  <speed>0.022360679774997897</speed>
  <fix>3d</fix>
</trkpt>
<trkpt lat="40.0728423" lon="-105.2305753">
  <ele>1586.09</ele>
  <time>2026-08-27T18:30:57Z</time>
  <course>296.55</course>
  <speed>0.0</speed>
  <fix>3d</fix>
</trkpt>
<trkpt lat="40.0728422" lon="-105.2305752">
  <ele>1586.19</ele>
  <time>2026-08-27T18:30:57Z</time>
  <course>11.52</course>
  <speed>0.022360679774997897</speed>
  <fix>3d</fix>
</trkpt>
<trkpt lat="40.0728423" lon="-105.2305753">
  <ele>1586.09</ele>
  <time>2026-08-27T18:30:57Z</time>
  <course>296.55</course>
  <speed>0.0</speed>
  <fix>3d</fix>
</trkpt>
<trkpt lat="40.0728422" lon="-105.2305752">
  <ele>1586.19</ele>
  <time>2026-08-27T18:30:57Z</time>
  <course>11.52</course>
  <speed>0.022360679774997897</speed>
  <fix>3d</fix>
</trkpt>
<trkpt lat="40.0728423" lon="-105.2305753">
  <ele>1586.09</ele>
  <time>2026-08-27T18:30:57Z</time>
  <course>296.55</course>
  <speed>0.0</speed>
  <fix>3d</fix>
</trkpt>
<trkpt lat="40.0728422" lon="-105.2305752">
  <ele>1586.19</ele>
  <time>2026-08-27T18:30:57Z</time>
  <course>11.52</course>
  <speed>0.022360679774997897</speed>
  <fix>3d</fix>
</trkpt>
<trkpt lat="40.0728423" lon="-105.2305753">
  <ele>1586.09</ele>
  <time>2026-08-27T18:30:57Z</time>
  <course>296.55</course>
  <speed>0.0</speed>
  <fix>3d</fix>
</trkpt>
<trkpt lat="40.0728422" lon="-105.2305752">
  <ele>1586.19</ele>
  <time>2026-08-27T18:30:57Z</time>
  <course>11.52</course>
  <speed>0.022360679774997897</speed>
  <fix>3d</fix>
</trkpt>
<trkpt lat="40.0728423" lon="-105.2305753">
  <ele>1586.09</ele>
  <time>2026-08-27T18:30:57Z</time>
  <course>296.55</course>
  <speed>0.0</speed>
  <fix>3d</fix>
</trkpt>
<trkpt lat="40.0728422" lon="-105.2305752">
  <ele>1586.19</ele>
  <time>2026-08-27T18:30:57Z</time>
  <course>11.51</course>
  <speed>0.022360679774997897</speed>
  <fix>3d</fix>
</trkpt>
<trkpt lat="40.0728423" lon="-105.2305753">
  <ele>1586.09</ele>
  <time>2026-08-27T18:30:57Z</time>
  <course>296.55</course>
  <speed>0.0</speed>
  <fix>3d</fix>
</trkpt>
<trkpt lat="40.0728422" lon="-105.2305752">
  <ele>1586.19</ele>
  <time>2026-08-27T18:30:57Z</time>
  <course>11.51</course>
  <speed>0.022360679774997897</speed>
  <fix>3d</fix>
</trkpt>
<trkpt lat="40.0728423" lon="-105.2305753">
  <ele>1586.09</ele>
  <time>2026-08-27T18:30:57Z</time>
  <course>296.55</course>
  <speed>0.0</speed>
  <fix>3d</fix>
</trkpt>
<trkpt lat="40.0728422" lon="-105.2305752">
  <ele>1586.19</ele>
  <time>2026-08-27T18:30:57Z</time>
  <course>11.51</course>
  <speed>0.022360679774997897</speed>
  <fix>3d</fix>
</trkpt>
<trkpt lat="40.0728423" lon="-105.2305753">
  <ele>1586.09</ele>
  <time>2026-08-27T18:30:57Z</time>
  <course>296.54</course>
  <speed>0.0</speed>
  <fix>3d</fix>
</trkpt>
<trkpt lat="40.0728422" lon="-105.2305752">
  <ele>1586.19</ele>
  <time>2026-08-27T18:30:57Z</time>
  <course>11.51</course>
  <speed>0.022360679774997897</speed>
  <fix>3d</fix>
</trkpt>
<trkpt lat="40.0728423" lon="-105.2305753">
  <ele>1586.09</ele>
  <time>2026-08-27T18:30:57Z</time>
  <course>296.54</course>
  <speed>0.0</speed>
  <fix>3d</fix>
</trkpt>
<trkpt lat="40.0728422" lon="-105.2305752">
  <ele>1586.19</ele>
  <time>2026-08-27T18:30:57Z</time>
  <course>11.58</course>
  <speed>0.022360679774997897</speed>
  <fix>3d</fix>
</trkpt>
<trkpt lat="40.0728423" lon="-105.2305753">
  <ele>1586.09</ele>
  <time>2026-08-27T18:30:57Z</time>
  <course>296.54</course>
  <speed>0.0</speed>
  <fix>3d</fix>
</trkpt>
<trkpt lat="40.0728422" lon="-105.2305752">
  <ele>1586.2</ele>
  <time>2026-08-27T18:30:57Z</time>
  <course>11.69</course>
  <speed>0.022360679774997897</speed>
  <fix>3d</fix>
</trkpt>
<trkpt lat="40.0728423" lon="-105.2305753">
  <ele>1586.09</ele>
  <time>2026-08-27T18:30:57Z</time>
  <course>296.54</course>
  <speed>0.0</speed>
  <fix>3d</fix>
</trkpt>
<trkpt lat="40.0728422" lon="-105.2305752">
  <ele>1586.2</ele>
  <time>2026-08-27T18:30:57Z</time>
  <course>11.8</course>
  <speed>0.022360679774997897</speed>
  <fix>3d</fix>
</trkpt>
<trkpt lat="40.0728423" lon="-105.2305753">
  <ele>1586.09</ele>
  <time>2026-08-27T18:30:57Z</time>
  <course>296.54</course>
  <speed>0.0</speed>
  <fix>3d</fix>
</trkpt>
<trkpt lat="40.0728422" lon="-105.2305752">
  <ele>1586.21</ele>
  <time>2026-08-27T18:30:57Z</time>
  <course>11.9</course>
  <speed>0.022360679774997897</speed>
  <fix>3d</fix>
</trkpt>
<trkpt lat="40.0728423" lon="-105.2305753">
  <ele>1586.09</ele>
  <time>2026-08-27T18:30:57Z</time>
  <course>296.54</course>
  <speed>0.0</speed>
  <fix>3d</fix>
</trkpt>
<trkpt lat="40.0728422" lon="-105.2305752">
  <ele>1586.22</ele>
  <time>2026-08-27T18:30:57Z</time>
  <course>12.0</course>
  <speed>0.022360679774997897</speed>
  <fix>3d</fix>
</trkpt>
<trkpt lat="40.0728423" lon="-105.2305753">
  <ele>1586.09</ele>
  <time>2026-08-27T18:30:57Z</time>
  <course>296.54</course>
  <speed>0.0</speed>
  <fix>3d</fix>
</trkpt>
<trkpt lat="40.0728422" lon="-105.2305752">
  <ele>1586.23</ele>
  <time>2026-08-27T18:30:57Z</time>
  <course>12.1</course>
  <speed>0.022360679774997897</speed>
  <fix>3d</fix>
</trkpt>
<trkpt lat="40.0728423" lon="-105.2305753">
  <ele>1586.09</ele>
  <time>2026-08-27T18:30:57Z</time>
  <course>300.74</course>
  <speed>0.0</speed>
  <fix>3d</fix>
</trkpt>
<trkpt lat="40.0728422" lon="-105.2305752">
  <ele>1586.23</ele>
  <time>2026-08-27T18:30:57Z</time>
  <course>12.2</course>
  <speed>0.022360679774997897</speed>
  <fix>3d</fix>
</trkpt>
<trkpt lat="40.0728423" lon="-105.2305753">
  <ele>1586.09</ele>
  <time>2026-08-27T18:30:57Z</time>
  <course>282.97</course>
  <speed>0.0</speed>
  <fix>3d</fix>
</trkpt>
<trkpt lat="40.0728422" lon="-105.2305752">
  <ele>1586.23</ele>
  <time>2026-08-27T18:30:57Z</time>
  <course>12.3</course>
  <speed>0.022360679774997897</speed>
  <fix>3d</fix>
</trkpt>
<trkpt lat="40.0728423" lon="-105.2305753">
  <ele>1586.09</ele>
  <time>2026-08-27T18:30:57Z</time>
  <course>247.84</course>
  <speed>0.0</speed>
  <fix>3d</fix>
</trkpt>
<trkpt lat="40.0728422" lon="-105.2305752">
  <ele>1586.22</ele>
  <time>2026-08-27T18:30:57Z</time>
  <course>12.4</course>
  <speed>0.022360679774997897</speed>
  <fix>3d</fix>
</trkpt>
<trkpt lat="40.0728423" lon="-105.2305753">
  <ele>1586.09</ele>
  <time>2026-08-27T18:30:57Z</time>
  <course>80.51</course>
  <speed>0.0</speed>
  <fix>3d</fix>
</trkpt>
<trkpt lat="40.0728422" lon="-105.2305752">
  <ele>1586.22</ele>
  <time>2026-08-27T18:30:57Z</time>
  <course>12.5</course>
  <speed>0.022360679774997897</speed>
  <fix>3d</fix>
</trkpt>
<trkpt lat="40.0728423" lon="-105.2305753">
  <ele>1586.09</ele>
  <time>2026-08-27T18:30:57Z</time>
  <course>306.88</course>
  <speed>0.0</speed>
  <fix>3d</fix>
</trkpt>
<trkpt lat="39.6562421" lon="-104.1365912">
  <ele>1569.6</ele>
  <time>2026-08-27T18:30:59Z</time>
  <course>0.0</course>
  <speed>0.0</speed>
  <fix>3d</fix>
</trkpt>
<trkpt lat="40.072842" lon="-105.230575">
  <ele>1586.09</ele>
  <time>2026-08-27T18:30:59Z</time>
  <course>2.03</course>
  <speed>0.0</speed>
  <fix>3d</fix>
</trkpt>
<trkpt lat="40.072842" lon="-105.230575">
  <ele>1586.09</ele>
  <time>2026-08-27T18:30:59Z</time>
  <course>0.0</course>
  <speed>0.0</speed>
  <fix>3d</fix>
</trkpt>
<trkpt lat="40.072842" lon="-105.230575">
  <ele>1586.09</ele>
  <time>2026-08-27T18:30:59Z</time>
  <course>2.37</course>
  <speed>0.0</speed>
  <fix>3d</fix>
</trkpt>
<trkpt lat="40.072842" lon="-105.230575">
  <ele>1586.09</ele>
  <time>2026-08-27T18:30:59Z</time>
  <course>0.0</course>
  <speed>0.0</speed>
  <fix>3d</fix>
</trkpt>
<trkpt lat="40.072842" lon="-105.230575">
  <ele>1586.09</ele>
  <time>2026-08-27T18:30:59Z</time>
  <course>3.11</course>
  <speed>0.0</speed>
  <fix>3d</fix>
</trkpt>
<trkpt lat="40.072842" lon="-105.230575">
  <ele>1586.09</ele>
  <time>2026-08-27T18:30:59Z</time>
  <course>0.0</course>
  <speed>0.0</speed>
  <fix>3d</fix>
</trkpt>
<trkpt lat="40.072842" lon="-105.230575">
  <ele>1586.09</ele>
  <time>2026-08-27T18:30:59Z</time>
  <course>3.8</course>
  <speed>0.0</speed>
  <fix>3d</fix>
</trkpt>
<trkpt lat="40.072842" lon="-105.230575">
  <ele>1586.09</ele>
  <time>2026-08-27T18:30:59Z</time>
  <course>0.0</course>
  <speed>0.0</speed>
  <fix>3d</fix>
</trkpt>
<trkpt lat="40.072842" lon="-105.230575">
  <ele>1586.09</ele>
  <time>2026-08-27T18:30:59Z</time>
  <course>4.43</course>
  <speed>0.0</speed>
  <fix>3d</fix>
</trkpt>
<trkpt lat="40.072842" lon="-105.230575">
  <ele>1586.09</ele>
  <time>2026-08-27T18:30:59Z</time>
  <course>0.0</course>
  <speed>0.0</speed>
  <fix>3d</fix>
</trkpt>
<trkpt lat="40.072842" lon="-105.230575">
  <ele>1586.09</ele>
  <time>2026-08-27T18:30:59Z</time>
  <course>5.03</course>
  <speed>0.0</speed>
  <fix>3d</fix>
</trkpt>
<trkpt lat="40.072842" lon="-105.230575">
  <ele>1586.09</ele>
  <time>2026-08-27T18:30:59Z</time>
  <course>0.0</course>
  <speed>0.0</speed>
  <fix>3d</fix>
</trkpt>
<trkpt lat="40.072842" lon="-105.230575">
  <ele>1586.09</ele>
  <time>2026-08-27T18:30:59Z</time>
  <course>5.59</course>
  <speed>0.0</speed>
  <fix>3d</fix>
</trkpt>
<trkpt lat="40.072842" lon="-105.230575">
  <ele>1586.09</ele>
  <time>2026-08-27T18:30:59Z</time>
  <course>0.0</course>
  <speed>0.0</speed>
  <fix>3d</fix>
</trkpt>
<trkpt lat="40.072842" lon="-105.230575">
  <ele>1586.09</ele>
  <time>2026-08-27T18:30:59Z</time>
  <course>6.11</course>
  <speed>0.0</speed>
  <fix>3d</fix>
</trkpt>
<trkpt lat="40.072842" lon="-105.230575">
  <ele>1586.09</ele>
  <time>2026-08-27T18:30:59Z</time>
  <course>0.0</course>
  <speed>0.0</speed>
  <fix>3d</fix>
</trkpt>
<trkpt lat="40.072842" lon="-105.230575">
  <ele>1586.09</ele>
  <time>2026-08-27T18:30:59Z</time>
  <course>6.61</course>
  <speed>0.0</speed>
  <fix>3d</fix>
</trkpt>
<trkpt lat="40.072842" lon="-105.230575">
  <ele>1586.09</ele>
  <time>2026-08-27T18:30:59Z</time>
  <course>0.0</course>
  <speed>0.0</speed>
  <fix>3d</fix>
</trkpt>
<trkpt lat="40.072842" lon="-105.230575">
  <ele>1586.09</ele>
  <time>2026-08-27T18:30:59Z</time>
  <course>7.07</course>
  <speed>0.0</speed>
  <fix>3d</fix>
</trkpt>
<trkpt lat="40.072842" lon="-105.230575">
  <ele>1586.09</ele>
  <time>2026-08-27T18:30:59Z</time>
  <course>0.0</course>
  <speed>0.0</speed>
  <fix>3d</fix>
</trkpt>
<trkpt lat="40.072842" lon="-105.230575">
  <ele>1586.09</ele>
  <time>2026-08-27T18:30:59Z</time>
  <course>7.49</course>
  <speed>0.0</speed>
  <fix>3d</fix>
</trkpt>
<trkpt lat="40.072842" lon="-105.230575">
  <ele>1586.09</ele>
  <time>2026-08-27T18:30:59Z</time>
  <course>0.0</course>
  <speed>0.0</speed>
  <fix>3d</fix>
</trkpt>
<trkpt lat="40.072842" lon="-105.230575">
  <ele>1586.09</ele>
  <time>2026-08-27T18:30:59Z</time>
  <course>7.89</course>
  <speed>0.0</speed>
  <fix>3d</fix>
</trkpt>
<trkpt lat="40.072842" lon="-105.230575">
  <ele>1586.09</ele>
  <time>2026-08-27T18:30:59Z</time>
  <course>0.0</course>
  <speed>0.0</speed>
  <fix>3d</fix>
</trkpt>
<trkpt lat="40.072842" lon="-105.230575">
  <ele>1586.09</ele>
  <time>2026-08-27T18:30:59Z</time>
  <course>8.26</course>
  <speed>0.0</speed>
  <fix>3d</fix>
</trkpt>
<trkpt lat="40.072842" lon="-105.230575">
  <ele>1586.09</ele>
  <time>2026-08-27T18:30:59Z</time>
  <course>0.0</course>
  <speed>0.0</speed>
  <fix>3d</fix>
</trkpt>
<trkpt lat="40.072842" lon="-105.230575">
  <ele>1586.09</ele>
  <time>2026-08-27T18:30:59Z</time>
  <course>8.6</course>
  <speed>0.0</speed>
  <fix>3d</fix>
</trkpt>
<trkpt lat="40.072842" lon="-105.230575">
  <ele>1586.09</ele>
  <time>2026-08-27T18:30:59Z</time>
  <course>0.0</course>
  <speed>0.0</speed>
  <fix>3d</fix>
</trkpt>
<trkpt lat="40.072842" lon="-105.230575">
  <ele>1586.09</ele>
  <time>2026-08-27T18:30:59Z</time>
  <course>8.91</course>
  <speed>0.0</speed>
  <fix>3d</fix>
</trkpt>
<trkpt lat="40.072842" lon="-105.230575">
  <ele>1586.09</ele>
  <time>2026-08-27T18:30:59Z</time>
  <course>0.0</course>
  <speed>0.0</speed>
  <fix>3d</fix>
</trkpt>
<trkpt lat="40.072842" lon="-105.230575">
  <ele>1586.09</ele>
  <time>2026-08-27T18:30:59Z</time>
  <course>9.2</course>
  <speed>0.0</speed>
  <fix>3d</fix>
</trkpt>
<trkpt lat="40.072842" lon="-105.230575">
  <ele>1586.09</ele>
  <time>2026-08-27T18:30:59Z</time>
  <course>0.0</course>
  <speed>0.0</speed>
  <fix>3d</fix>
</trkpt>
<trkpt lat="40.072842" lon="-105.230575">
  <ele>1586.09</ele>
  <time>2026-08-27T18:30:59Z</time>
  <course>9.46</course>
  <speed>0.0</speed>
  <fix>3d</fix>
</trkpt>
<trkpt lat="40.072842" lon="-105.230575">
  <ele>1586.09</ele>
  <time>2026-08-27T18:30:59Z</time>
  <course>0.0</course>
  <speed>0.0</speed>
  <fix>3d</fix>
</trkpt>
<trkpt lat="40.072842" lon="-105.230575">
  <ele>1586.09</ele>
  <time>2026-08-27T18:30:59Z</time>
  <course>9.71</course>
  <speed>0.0</speed>
  <fix>3d</fix>
</trkpt>
<trkpt lat="40.072842" lon="-105.230575">
  <ele>1586.09</ele>
  <time>2026-08-27T18:30:59Z</time>
  <course>0.0</course>
  <speed>0.0</speed>
  <fix>3d</fix>
</trkpt>
<trkpt lat="40.072842" lon="-105.230575">
  <ele>1586.09</ele>
  <time>2026-08-27T18:30:59Z</time>
  <course>9.93</course>
  <speed>0.0</speed>
  <fix>3d</fix>
</trkpt>
<trkpt lat="40.072842" lon="-105.230575">
  <ele>1586.09</ele>
  <time>2026-08-27T18:30:59Z</time>
  <course>0.0</course>
  <speed>0.0</speed>
  <fix>3d</fix>
</trkpt>
<trkpt lat="40.072842" lon="-105.230575">
  <ele>1586.09</ele>
  <time>2026-08-27T18:30:59Z</time>
  <course>10.14</course>
  <speed>0.0</speed>
  <fix>3d</fix>
</trkpt>
<trkpt lat="40.072842" lon="-105.230575">
  <ele>1586.09</ele>
  <time>2026-08-27T18:30:59Z</time>
  <course>0.0</course>
  <speed>0.0</speed>
  <fix>3d</fix>
</trkpt>
<trkpt lat="40.072842" lon="-105.230575">
  <ele>1586.09</ele>
  <time>2026-08-27T18:30:59Z</time>
  <course>10.33</course>
  <speed>0.0</speed>
  <fix>3d</fix>
</trkpt>
<trkpt lat="40.072842" lon="-105.230575">
  <ele>1586.09</ele>
  <time>2026-08-27T18:30:59Z</time>
  <course>0.0</course>
  <speed>0.0</speed>
  <fix>3d</fix>
</trkpt>
<trkpt lat="40.072842" lon="-105.230575">
  <ele>1586.09</ele>
  <time>2026-08-27T18:30:59Z</time>
  <course>10.5</course>
  <speed>0.0</speed>
  <fix>3d</fix>
</trkpt>
<trkpt lat="40.072842" lon="-105.230575">
  <ele>1586.09</ele>
  <time>2026-08-27T18:30:59Z</time>
  <course>0.0</course>
  <speed>0.0</speed>
  <fix>3d</fix>
</trkpt>
<trkpt lat="40.072842" lon="-105.230575">
  <ele>1586.09</ele>
  <time>2026-08-27T18:30:59Z</time>
  <course>10.66</course>
  <speed>0.0</speed>
  <fix>3d</fix>
</trkpt>
<trkpt lat="40.072842" lon="-105.230575">
  <ele>1586.09</ele>
  <time>2026-08-27T18:30:59Z</time>
  <course>0.0</course>
  <speed>0.0</speed>
  <fix>3d</fix>
</trkpt>
<trkpt lat="40.072842" lon="-105.230575">
  <ele>1586.09</ele>
  <time>2026-08-27T18:30:59Z</time>
  <course>10.8</course>
  <speed>0.0</speed>
  <fix>3d</fix>
</trkpt>
<trkpt lat="40.072842" lon="-105.230575">
  <ele>1586.09</ele>
  <time>2026-08-27T18:30:59Z</time>
  <course>0.0</course>
  <speed>0.0</speed>
  <fix>3d</fix>
</trkpt>
<trkpt lat="40.072842" lon="-105.230575">
  <ele>1586.09</ele>
  <time>2026-08-27T18:30:59Z</time>
  <course>10.93</course>
  <speed>0.0</speed>
  <fix>3d</fix>
</trkpt>
<trkpt lat="40.072842" lon="-105.230575">
  <ele>1586.09</ele>
  <time>2026-08-27T18:30:59Z</time>
  <course>0.0</course>
  <speed>0.0</speed>
  <fix>3d</fix>
</trkpt>
<trkpt lat="40.072842" lon="-105.230575">
  <ele>1586.09</ele>
  <time>2026-08-27T18:30:59Z</time>
  <course>11.06</course>
  <speed>0.0</speed>
  <fix>3d</fix>
</trkpt>
<trkpt lat="40.072842" lon="-105.230575">
  <ele>1586.09</ele>
  <time>2026-08-27T18:30:59Z</time>
  <course>0.0</course>
  <speed>0.0</speed>
  <fix>3d</fix>
</trkpt>
<trkpt lat="40.072842" lon="-105.230575">
  <ele>1586.09</ele>
  <time>2026-08-27T18:30:59Z</time>
  <course>11.16</course>
  <speed>0.0</speed>
  <fix>3d</fix>
</trkpt>
<trkpt lat="40.072842" lon="-105.230575">
  <ele>1586.09</ele>
  <time>2026-08-27T18:30:59Z</time>
  <course>0.0</course>
  <speed>0.0</speed>
  <fix>3d</fix>
</trkpt>
<trkpt lat="40.072842" lon="-105.230575">
  <ele>1586.09</ele>
  <time>2026-08-27T18:30:59Z</time>
  <course>11.27</course>
  <speed>0.0</speed>
  <fix>3d</fix>
</trkpt>
<trkpt lat="40.072842" lon="-105.230575">
  <ele>1586.09</ele>
  <time>2026-08-27T18:30:59Z</time>
  <course>0.0</course>
  <speed>0.0</speed>
  <fix>3d</fix>
</trkpt>
<trkpt lat="40.072842" lon="-105.230575">
  <ele>1586.09</ele>
  <time>2026-08-27T18:30:59Z</time>
  <course>11.36</course>
  <speed>0.0</speed>
  <fix>3d</fix>
</trkpt>
<trkpt lat="40.072842" lon="-105.230575">
  <ele>1586.09</ele>
  <time>2026-08-27T18:30:59Z</time>
  <course>0.0</course>
  <speed>0.0</speed>
  <fix>3d</fix>
</trkpt>
<trkpt lat="40.072842" lon="-105.230575">
  <ele>1586.09</ele>
  <time>2026-08-27T18:30:59Z</time>
  <course>11.44</course>
  <speed>0.0</speed>
  <fix>3d</fix>
</trkpt>
<trkpt lat="40.072842" lon="-105.230575">
  <ele>1586.09</ele>
  <time>2026-08-27T18:30:59Z</time>
  <course>0.0</course>
  <speed>0.0</speed>
  <fix>3d</fix>
</trkpt>
<trkpt lat="40.072842" lon="-105.230575">
  <ele>1586.09</ele>
  <time>2026-08-27T18:30:59Z</time>
  <course>11.52</course>
  <speed>0.0</speed>
  <fix>3d</fix>
</trkpt>
<trkpt lat="40.072842" lon="-105.230575">
  <ele>1586.09</ele>
  <time>2026-08-27T18:30:59Z</time>
  <course>0.0</course>
  <speed>0.0</speed>
  <fix>3d</fix>
</trkpt>
<trkpt lat="40.072842" lon="-105.230575">
  <ele>1586.09</ele>
  <time>2026-08-27T18:30:59Z</time>
  <course>11.58</course>
  <speed>0.0</speed>
  <fix>3d</fix>
</trkpt>
<trkpt lat="40.072842" lon="-105.230575">
  <ele>1586.09</ele>
  <time>2026-08-27T18:30:59Z</time>
  <course>0.0</course>
  <speed>0.0</speed>
  <fix>3d</fix>
</trkpt>
<trkpt lat="40.072842" lon="-105.230575">
  <ele>1586.09</ele>
  <time>2026-08-27T18:30:59Z</time>
  <course>11.65</course>
  <speed>0.0</speed>
  <fix>3d</fix>
</trkpt>
<trkpt lat="40.072842" lon="-105.230575">
  <ele>1586.09</ele>
  <time>2026-08-27T18:30:59Z</time>
  <course>0.0</course>
  <speed>0.0</speed>
  <fix>3d</fix>
</trkpt>
<trkpt lat="40.072842" lon="-105.230575">
  <ele>1586.09</ele>
  <time>2026-08-27T18:30:59Z</time>
  <course>11.71</course>
  <speed>0.0</speed>
  <fix>3d</fix>
</trkpt>
<trkpt lat="40.072842" lon="-105.230575">
  <ele>1586.09</ele>
  <time>2026-08-27T18:30:59Z</time>
  <course>0.0</course>
  <speed>0.0</speed>
  <fix>3d</fix>
</trkpt>
<trkpt lat="40.072842" lon="-105.230575">
  <ele>1586.09</ele>
  <time>2026-08-27T18:30:59Z</time>
  <course>11.76</course>
  <speed>0.0</speed>
  <fix>3d</fix>
</trkpt>
<trkpt lat="40.072842" lon="-105.230575">
  <ele>1586.09</ele>
  <time>2026-08-27T18:30:59Z</time>
  <course>0.0</course>
  <speed>0.0</speed>
  <fix>3d</fix>
</trkpt>
<trkpt lat="40.072842" lon="-105.230575">
  <ele>1586.09</ele>
  <time>2026-08-27T18:30:59Z</time>
  <course>11.81</course>
  <speed>0.0</speed>
  <fix>3d</fix>
</trkpt>
<trkpt lat="40.072842" lon="-105.230575">
  <ele>1586.09</ele>
  <time>2026-08-27T18:30:59Z</time>
  <course>0.0</course>
  <speed>0.0</speed>
  <fix>3d</fix>
</trkpt>
<trkpt lat="40.072842" lon="-105.230575">
  <ele>1586.09</ele>
  <time>2026-08-27T18:30:59Z</time>
  <course>11.85</course>
  <speed>0.0</speed>
  <fix>3d</fix>
</trkpt>
<trkpt lat="40.072842" lon="-105.230575">
  <ele>1586.09</ele>
  <time>2026-08-27T18:30:59Z</time>
  <course>0.0</course>
  <speed>0.0</speed>
  <fix>3d</fix>
</trkpt>
<trkpt lat="40.072842" lon="-105.230575">
  <ele>1586.09</ele>
  <time>2026-08-27T18:30:59Z</time>
  <course>11.89</course>
  <speed>0.0</speed>
  <fix>3d</fix>
</trkpt>
<trkpt lat="40.072842" lon="-105.230575">
  <ele>1586.09</ele>
  <time>2026-08-27T18:30:59Z</time>
  <course>0.0</course>
  <speed>0.0</speed>
  <fix>3d</fix>
</trkpt>
<trkpt lat="40.072842" lon="-105.230575">
  <ele>1586.09</ele>
  <time>2026-08-27T18:30:59Z</time>
  <course>11.92</course>
  <speed>0.0</speed>
  <fix>3d</fix>
</trkpt>
<trkpt lat="40.072842" lon="-105.230575">
  <ele>1586.09</ele>
  <time>2026-08-27T18:30:59Z</time>
  <course>0.0</course>
  <speed>0.0</speed>
  <fix>3d</fix>
</trkpt>
<trkpt lat="40.072842" lon="-105.230575">
  <ele>1586.09</ele>
  <time>2026-08-27T18:30:59Z</time>
  <course>11.95</course>
  <speed>0.0</speed>
  <fix>3d</fix>
</trkpt>
<trkpt lat="40.072842" lon="-105.230575">
  <ele>1586.09</ele>
  <time>2026-08-27T18:30:59Z</time>
  <course>0.0</course>
  <speed>0.0</speed>
  <fix>3d</fix>
</trkpt>
<trkpt lat="40.072842" lon="-105.230575">
  <ele>1586.09</ele>
  <time>2026-08-27T18:30:59Z</time>
  <course>11.97</course>
  <speed>0.0</speed>
  <fix>3d</fix>
</trkpt>
<trkpt lat="40.072842" lon="-105.230575">
  <ele>1586.09</ele>
  <time>2026-08-27T18:30:59Z</time>
  <course>0.0</course>
  <speed>0.0</speed>
  <fix>3d</fix>
</trkpt>
<trkpt lat="40.072842" lon="-105.230575">
  <ele>1586.09</ele>
  <time>2026-08-27T18:30:59Z</time>
  <course>12.0</course>
  <speed>0.0</speed>
  <fix>3d</fix>
</trkpt>
<trkpt lat="40.072842" lon="-105.230575">
  <ele>1586.09</ele>
  <time>2026-08-27T18:30:59Z</time>
  <course>0.0</course>
  <speed>0.0</speed>
  <fix>3d</fix>
</trkpt>
<trkpt lat="40.072842" lon="-105.230575">
  <ele>1586.09</ele>
  <time>2026-08-27T18:30:59Z</time>
  <course>12.02</course>
  <speed>0.0</speed>
  <fix>3d</fix>
</trkpt>
<trkpt lat="40.072842" lon="-105.230575">
  <ele>1586.09</ele>
  <time>2026-08-27T18:30:59Z</time>
  <course>0.0</course>
  <speed>0.0</speed>
  <fix>3d</fix>
</trkpt>
<trkpt lat="40.072842" lon="-105.230575">
  <ele>1586.09</ele>
  <time>2026-08-27T18:30:59Z</time>
  <course>12.04</course>
  <speed>0.0</speed>
  <fix>3d</fix>
</trkpt>
<trkpt lat="40.072842" lon="-105.230575">
  <ele>1586.09</ele>
  <time>2026-08-27T18:30:59Z</time>
  <course>0.0</course>
  <speed>0.0</speed>
  <fix>3d</fix>
</trkpt>
<trkpt lat="40.072842" lon="-105.230575">
  <ele>1586.09</ele>
  <time>2026-08-27T18:30:59Z</time>
  <course>12.05</course>
  <speed>0.0</speed>
  <fix>3d</fix>
</trkpt>
<trkpt lat="40.072842" lon="-105.230575">
  <ele>1586.09</ele>
  <time>2026-08-27T18:30:59Z</time>
  <course>0.0</course>
  <speed>0.0</speed>
  <fix>3d</fix>
</trkpt>
<trkpt lat="40.072842" lon="-105.230575">
  <ele>1586.09</ele>
  <time>2026-08-27T18:30:59Z</time>
  <course>12.07</course>
  <speed>0.0</speed>
  <fix>3d</fix>
</trkpt>
<trkpt lat="40.072842" lon="-105.230575">
  <ele>1586.09</ele>
  <time>2026-08-27T18:30:59Z</time>
  <course>0.0</course>
  <speed>0.0</speed>
  <fix>3d</fix>
</trkpt>
<trkpt lat="40.072842" lon="-105.230575">
  <ele>1586.09</ele>
  <time>2026-08-27T18:30:59Z</time>
  <course>12.08</course>
  <speed>0.0</speed>
  <fix>3d</fix>
</trkpt>
<trkpt lat="40.072842" lon="-105.230575">
  <ele>1586.09</ele>
  <time>2026-08-27T18:30:59Z</time>
  <course>0.0</course>
  <speed>0.0</speed>
  <fix>3d</fix>
</trkpt>
<trkpt lat="40.072842" lon="-105.230575">
  <ele>1586.09</ele>
  <time>2026-08-27T18:30:59Z</time>
  <course>12.09</course>
  <speed>0.0</speed>
  <fix>3d</fix>
</trkpt>
<trkpt lat="40.072842" lon="-105.230575">
  <ele>1586.09</ele>
  <time>2026-08-27T18:30:59Z</time>
  <course>0.0</course>
  <speed>0.0</speed>
  <fix>3d</fix>
</trkpt>
<trkpt lat="40.072842" lon="-105.230575">
  <ele>1586.09</ele>
  <time>2026-08-27T18:30:59Z</time>
  <course>12.1</course>
  <speed>0.0</speed>
  <fix>3d</fix>
</trkpt>
<trkpt lat="40.072842" lon="-105.230575">
  <ele>1586.09</ele>
  <time>2026-08-27T18:30:59Z</time>
  <course>0.0</course>
  <speed>0.0</speed>
  <fix>3d</fix>
</trkpt>
<trkpt lat="40.072842" lon="-105.230575">
  <ele>1586.09</ele>
  <time>2026-08-27T18:30:59Z</time>
  <course>12.1</course>
  <speed>0.0</speed>
  <fix>3d</fix>
</trkpt>
<trkpt lat="40.072842" lon="-105.230575">
  <ele>1586.09</ele>
  <time>2026-08-27T18:30:59Z</time>
  <course>0.0</course>
  <speed>0.0</speed>
  <fix>3d</fix>
</trkpt>
<trkpt lat="40.072842" lon="-105.230575">
  <ele>1586.09</ele>
  <time>2026-08-27T18:30:59Z</time>
  <course>12.11</course>
  <speed>0.0</speed>
  <fix>3d</fix>
</trkpt>
<trkpt lat="40.072842" lon="-105.230575">
  <ele>1586.09</ele>
  <time>2026-08-27T18:30:59Z</time>
  <course>0.0</course>
  <speed>0.0</speed>
  <fix>3d</fix>
</trkpt>
<trkpt lat="40.072842" lon="-105.230575">
  <ele>1586.09</ele>
  <time>2026-08-27T18:30:59Z</time>
  <course>12.11</course>
  <speed>0.0</speed>
  <fix>3d</fix>
</trkpt>
<trkpt lat="40.072842" lon="-105.230575">
  <ele>1586.09</ele>
  <time>2026-08-27T18:30:59Z</time>
  <course>0.0</course>
  <speed>0.0</speed>
  <fix>3d</fix>
</trkpt>
<trkpt lat="40.072842" lon="-105.230575">
  <ele>1586.09</ele>
  <time>2026-08-27T18:30:59Z</time>
  <course>12.12</course>
  <speed>0.0</speed>
  <fix>3d</fix>
</trkpt>
<trkpt lat="40.072842" lon="-105.230575">
  <ele>1586.09</ele>
  <time>2026-08-27T18:30:59Z</time>
  <course>0.0</course>
  <speed>0.0</speed>
  <fix>3d</fix>
</trkpt>
<trkpt lat="40.072842" lon="-105.230575">
  <ele>1586.09</ele>
  <time>2026-08-27T18:30:59Z</time>
  <course>12.12</course>
  <speed>0.0</speed>
  <fix>3d</fix>
</trkpt>
<trkpt lat="40.072842" lon="-105.230575">
  <ele>1586.09</ele>
  <time>2026-08-27T18:30:59Z</time>
  <course>0.0</course>
  <speed>0.0</speed>
  <fix>3d</fix>
</trkpt>
<trkpt lat="40.072842" lon="-105.230575">
  <ele>1586.09</ele>
  <time>2026-08-27T18:30:59Z</time>
  <course>12.12</course>
  <speed>0.0</speed>
  <fix>3d</fix>
</trkpt>
<trkpt lat="40.072842" lon="-105.230575">
  <ele>1586.09</ele>
  <time>2026-08-27T18:30:59Z</time>
  <course>0.0</course>
  <speed>0.0</speed>
  <fix>3d</fix>
</trkpt>
<trkpt lat="40.072842" lon="-105.230575">
  <ele>1586.09</ele>
  <time>2026-08-27T18:30:59Z</time>
  <course>12.12</course>
  <speed>0.0</speed>
  <fix>3d</fix>
</trkpt>
<trkpt lat="40.072842" lon="-105.230575">
  <ele>1586.09</ele>
  <time>2026-08-27T18:30:59Z</time>
  <course>0.0</course>
  <speed>0.0</speed>
  <fix>3d</fix>
</trkpt>
<trkpt lat="40.072842" lon="-105.230575">
  <ele>1586.09</ele>
  <time>2026-08-27T18:30:59Z</time>
  <course>12.12</course>
  <speed>0.0</speed>
  <fix>3d</fix>
</trkpt>
<trkpt lat="40.072842" lon="-105.230575">
  <ele>1586.09</ele>
  <time>2026-08-27T18:30:59Z</time>
  <course>0.0</course>
  <speed>0.0</speed>
  <fix>3d</fix>
</trkpt>
<trkpt lat="40.072842" lon="-105.230575">
  <ele>1586.09</ele>
  <time>2026-08-27T18:30:59Z</time>
  <course>12.12</course>
  <speed>0.01</speed>
  <fix>3d</fix>
</trkpt>
<trkpt lat="40.072842" lon="-105.230575">
  <ele>1586.09</ele>
  <time>2026-08-27T18:30:59Z</time>
  <course>0.0</course>
  <speed>0.0</speed>
  <fix>3d</fix>
</trkpt>
<trkpt lat="40.072842" lon="-105.230575">
  <ele>1586.09</ele>
  <time>2026-08-27T18:30:59Z</time>
  <course>12.12</course>
  <speed>0.01</speed>
  <fix>3d</fix>
</trkpt>
<trkpt lat="40.072842" lon="-105.230575">
  <ele>1586.09</ele>
  <time>2026-08-27T18:30:59Z</time>
  <course>0.0</course>
  <speed>0.0</speed>
  <fix>3d</fix>
</trkpt>
<trkpt lat="40.072842" lon="-105.230575">
  <ele>1586.09</ele>
  <time>2026-08-27T18:30:59Z</time>
  <course>12.12</course>
  <speed>0.01</speed>
  <fix>3d</fix>
</trkpt>
<trkpt lat="40.072842" lon="-105.230575">
  <ele>1586.09</ele>
  <time>2026-08-27T18:30:59Z</time>
  <course>0.0</course>
  <speed>0.0</speed>
  <fix>3d</fix>
</trkpt>
<trkpt lat="40.072842" lon="-105.230575">
  <ele>1586.09</ele>
  <time>2026-08-27T18:30:59Z</time>
  <course>12.11</course>
  <speed>0.01</speed>
  <fix>3d</fix>
</trkpt>
<trkpt lat="40.072842" lon="-105.230575">
  <ele>1586.09</ele>
  <time>2026-08-27T18:30:59Z</time>
  <course>0.0</course>
  <speed>0.0</speed>
  <fix>3d</fix>
</trkpt>
<trkpt lat="40.072842" lon="-105.230575">
  <ele>1586.09</ele>
  <time>2026-08-27T18:30:59Z</time>
  <course>12.11</course>
  <speed>0.01</speed>
  <fix>3d</fix>
</trkpt>
<trkpt lat="40.072842" lon="-105.230575">
  <ele>1586.09</ele>
  <time>2026-08-27T18:30:59Z</time>
  <course>0.0</course>
  <speed>0.0</speed>
  <fix>3d</fix>
</trkpt>
<trkpt lat="40.072842" lon="-105.230575">
  <ele>1586.09</ele>
  <time>2026-08-27T18:30:59Z</time>
  <course>12.11</course>
  <speed>0.01</speed>
  <fix>3d</fix>
</trkpt>
<trkpt lat="40.072842" lon="-105.230575">
  <ele>1586.09</ele>
  <time>2026-08-27T18:30:59Z</time>
  <course>0.0</course>
  <speed>0.0</speed>
  <fix>3d</fix>
</trkpt>
<trkpt lat="40.072842" lon="-105.230575">
  <ele>1586.09</ele>
  <time>2026-08-27T18:30:59Z</time>
  <course>12.1</course>
  <speed>0.01</speed>
  <fix>3d</fix>
</trkpt>
<trkpt lat="40.072842" lon="-105.230575">
  <ele>1586.09</ele>
  <time>2026-08-27T18:30:59Z</time>
  <course>0.0</course>
  <speed>0.0</speed>
  <fix>3d</fix>
</trkpt>
<trkpt lat="40.072842" lon="-105.230575">
  <ele>1586.09</ele>
  <time>2026-08-27T18:30:59Z</time>
  <course>12.1</course>
  <speed>0.01</speed>
  <fix>3d</fix>
</trkpt>
<trkpt lat="40.072842" lon="-105.230575">
  <ele>1586.09</ele>
  <time>2026-08-27T18:30:59Z</time>
  <course>0.0</course>
  <speed>0.0</speed>
  <fix>3d</fix>
</trkpt>
<trkpt lat="40.072842" lon="-105.230575">
  <ele>1586.09</ele>
  <time>2026-08-27T18:30:59Z</time>
  <course>12.09</course>
  <speed>0.01</speed>
  <fix>3d</fix>
</trkpt>
<trkpt lat="40.072842" lon="-105.230575">
  <ele>1586.09</ele>
  <time>2026-08-27T18:30:59Z</time>
  <course>0.0</course>
  <speed>0.0</speed>
  <fix>3d</fix>
</trkpt>
<trkpt lat="40.072842" lon="-105.230575">
  <ele>1586.09</ele>
  <time>2026-08-27T18:30:59Z</time>
  <course>12.09</course>
  <speed>0.01</speed>
  <fix>3d</fix>
</trkpt>
<trkpt lat="40.072842" lon="-105.230575">
  <ele>1586.09</ele>
  <time>2026-08-27T18:30:59Z</time>
  <course>0.0</course>
  <speed>0.0</speed>
  <fix>3d</fix>
</trkpt>
<trkpt lat="40.072842" lon="-105.230575">
  <ele>1586.09</ele>
  <time>2026-08-27T18:30:59Z</time>
  <course>12.08</course>
  <speed>0.01414213562373095</speed>
  <fix>3d</fix>
</trkpt>
<trkpt lat="40.072842" lon="-105.230575">
  <ele>1586.09</ele>
  <time>2026-08-27T18:30:59Z</time>
  <course>0.0</course>
  <speed>0.0</speed>
  <fix>3d</fix>
</trkpt>
<trkpt lat="40.072842" lon="-105.230575">
  <ele>1586.09</ele>
  <time>2026-08-27T18:30:59Z</time>
  <course>12.07</course>
  <speed>0.01414213562373095</speed>
  <fix>3d</fix>
</trkpt>
<trkpt lat="40.072842" lon="-105.230575">
  <ele>1586.09</ele>
  <time>2026-08-27T18:30:59Z</time>
  <course>0.0</course>
  <speed>0.0</speed>
  <fix>3d</fix>
</trkpt>
<trkpt lat="40.072842" lon="-105.230575">
  <ele>1586.09</ele>
  <time>2026-08-27T18:30:59Z</time>
  <course>12.07</course>
  <speed>0.01414213562373095</speed>
  <fix>3d</fix>
</trkpt>
<trkpt lat="40.072842" lon="-105.230575">
  <ele>1586.09</ele>
  <time>2026-08-27T18:30:59Z</time>
  <course>0.0</course>
  <speed>0.0</speed>
  <fix>3d</fix>
</trkpt>
<trkpt lat="40.072842" lon="-105.230575">
  <ele>1586.09</ele>
  <time>2026-08-27T18:30:59Z</time>
  <course>12.06</course>
  <speed>0.01414213562373095</speed>
  <fix>3d</fix>
</trkpt>
<trkpt lat="40.072842" lon="-105.230575">
  <ele>1586.09</ele>
  <time>2026-08-27T18:30:59Z</time>
  <course>0.0</course>
  <speed>0.0</speed>
  <fix>3d</fix>
</trkpt>
<trkpt lat="40.072842" lon="-105.230575">
  <ele>1586.09</ele>
  <time>2026-08-27T18:30:59Z</time>
  <course>12.05</course>
  <speed>0.01414213562373095</speed>
  <fix>3d</fix>
</trkpt>
<trkpt lat="40.072842" lon="-105.230575">
  <ele>1586.09</ele>
  <time>2026-08-27T18:30:59Z</time>
  <course>0.0</course>
  <speed>0.0</speed>
  <fix>3d</fix>
</trkpt>
<trkpt lat="40.072842" lon="-105.230575">
  <ele>1586.09</ele>
  <time>2026-08-27T18:30:59Z</time>
  <course>12.05</course>
  <speed>0.01414213562373095</speed>
  <fix>3d</fix>
</trkpt>
<trkpt lat="40.072842" lon="-105.230575">
  <ele>1586.09</ele>
  <time>2026-08-27T18:30:59Z</time>
  <course>0.0</course>
  <speed>0.0</speed>
  <fix>3d</fix>
</trkpt>
<trkpt lat="40.072842" lon="-105.230575">
  <ele>1586.09</ele>
  <time>2026-08-27T18:30:59Z</time>
  <course>12.04</course>
  <speed>0.01414213562373095</speed>
  <fix>3d</fix>
</trkpt>
<trkpt lat="40.072842" lon="-105.230575">
  <ele>1586.09</ele>
  <time>2026-08-27T18:30:59Z</time>
  <course>0.0</course>
  <speed>0.0</speed>
  <fix>3d</fix>
</trkpt>
<trkpt lat="40.072842" lon="-105.230575">
  <ele>1586.09</ele>
  <time>2026-08-27T18:30:59Z</time>
  <course>12.03</course>
  <speed>0.01414213562373095</speed>
  <fix>3d</fix>
</trkpt>
<trkpt lat="40.072842" lon="-105.230575">
  <ele>1586.09</ele>
  <time>2026-08-27T18:30:59Z</time>
  <course>0.0</course>
  <speed>0.0</speed>
  <fix>3d</fix>
</trkpt>
<trkpt lat="40.072842" lon="-105.230575">
  <ele>1586.09</ele>
  <time>2026-08-27T18:30:59Z</time>
  <course>12.02</course>
  <speed>0.01414213562373095</speed>
  <fix>3d</fix>
</trkpt>
<trkpt lat="40.072842" lon="-105.230575">
  <ele>1586.09</ele>
  <time>2026-08-27T18:30:59Z</time>
  <course>0.0</course>
  <speed>0.0</speed>
  <fix>3d</fix>
</trkpt>
<trkpt lat="40.072842" lon="-105.230575">
  <ele>1586.09</ele>
  <time>2026-08-27T18:30:59Z</time>
  <course>12.02</course>
  <speed>0.01414213562373095</speed>
  <fix>3d</fix>
</trkpt>
<trkpt lat="40.072842" lon="-105.230575">
  <ele>1586.09</ele>
  <time>2026-08-27T18:30:59Z</time>
  <course>0.0</course>
  <speed>0.0</speed>
  <fix>3d</fix>
</trkpt>
<trkpt lat="40.072842" lon="-105.230575">
  <ele>1586.09</ele>
  <time>2026-08-27T18:30:59Z</time>
  <course>12.01</course>
  <speed>0.01414213562373095</speed>
  <fix>3d</fix>
</trkpt>
<trkpt lat="40.072842" lon="-105.230575">
  <ele>1586.09</ele>
  <time>2026-08-27T18:30:59Z</time>
  <course>0.0</course>
  <speed>0.0</speed>
  <fix>3d</fix>
</trkpt>
<trkpt lat="40.072842" lon="-105.230575">
  <ele>1586.09</ele>
  <time>2026-08-27T18:30:59Z</time>
  <course>12.0</course>
  <speed>0.01414213562373095</speed>
  <fix>3d</fix>
</trkpt>
<trkpt lat="40.072842" lon="-105.230575">
  <ele>1586.09</ele>
  <time>2026-08-27T18:30:59Z</time>
  <course>0.0</course>
  <speed>0.0</speed>
  <fix>3d</fix>
</trkpt>
<trkpt lat="40.072842" lon="-105.230575">
  <ele>1586.09</ele>
  <time>2026-08-27T18:30:59Z</time>
  <course>11.99</course>
  <speed>0.01414213562373095</speed>
  <fix>3d</fix>
</trkpt>
<trkpt lat="40.072842" lon="-105.230575">
  <ele>1586.09</ele>
  <time>2026-08-27T18:30:59Z</time>
  <course>0.0</course>
  <speed>0.0</speed>
  <fix>3d</fix>
</trkpt>
<trkpt lat="40.072842" lon="-105.230575">
  <ele>1586.09</ele>
  <time>2026-08-27T18:30:59Z</time>
  <course>11.99</course>
  <speed>0.01414213562373095</speed>
  <fix>3d</fix>
</trkpt>
<trkpt lat="40.072842" lon="-105.230575">
  <ele>1586.09</ele>
  <time>2026-08-27T18:30:59Z</time>
  <course>0.0</course>
  <speed>0.0</speed>
  <fix>3d</fix>
</trkpt>
<trkpt lat="40.072842" lon="-105.230575">
  <ele>1586.09</ele>
  <time>2026-08-27T18:30:59Z</time>
  <course>11.98</course>
  <speed>0.01414213562373095</speed>
  <fix>3d</fix>
</trkpt>
<trkpt lat="40.072842" lon="-105.230575">
  <ele>1586.09</ele>
  <time>2026-08-27T18:30:59Z</time>
  <course>0.0</course>
  <speed>0.0</speed>
  <fix>3d</fix>
</trkpt>
<trkpt lat="40.072842" lon="-105.230575">
  <ele>1586.09</ele>
  <time>2026-08-27T18:30:59Z</time>
  <course>11.97</course>
  <speed>0.01414213562373095</speed>
  <fix>3d</fix>
</trkpt>
<trkpt lat="40.072842" lon="-105.230575">
  <ele>1586.09</ele>
  <time>2026-08-27T18:30:59Z</time>
  <course>0.0</course>
  <speed>0.0</speed>
  <fix>3d</fix>
</trkpt>
<trkpt lat="40.072842" lon="-105.230575">
  <ele>1586.09</ele>
  <time>2026-08-27T18:30:59Z</time>
  <course>11.96</course>
  <speed>0.01414213562373095</speed>
  <fix>3d</fix>
</trkpt>
<trkpt lat="40.072842" lon="-105.230575">
  <ele>1586.09</ele>
  <time>2026-08-27T18:30:59Z</time>
  <course>0.0</course>
  <speed>0.0</speed>
  <fix>3d</fix>
</trkpt>
<trkpt lat="40.072842" lon="-105.230575">
  <ele>1586.09</ele>
  <time>2026-08-27T18:30:59Z</time>
  <course>11.95</course>
  <speed>0.022360679774997897</speed>
  <fix>3d</fix>
</trkpt>
<trkpt lat="40.072842" lon="-105.230575">
  <ele>1586.09</ele>
  <time>2026-08-27T18:30:59Z</time>
  <course>0.0</course>
  <speed>0.0</speed>
  <fix>3d</fix>
</trkpt>
<trkpt lat="40.072842" lon="-105.230575">
  <ele>1586.09</ele>
  <time>2026-08-27T18:30:59Z</time>
  <course>11.95</course>
  <speed>0.022360679774997897</speed>
  <fix>3d</fix>
</trkpt>
<trkpt lat="40.072842" lon="-105.230575">
  <ele>1586.09</ele>
  <time>2026-08-27T18:30:59Z</time>
  <course>0.0</course>
  <speed>0.0</speed>
  <fix>3d</fix>
</trkpt>
<trkpt lat="40.072842" lon="-105.230575">
  <ele>1586.09</ele>
  <time>2026-08-27T18:30:59Z</time>
  <course>11.94</course>
  <speed>0.022360679774997897</speed>
  <fix>3d</fix>
</trkpt>
<trkpt lat="40.072842" lon="-105.230575">
  <ele>1586.09</ele>
  <time>2026-08-27T18:30:59Z</time>
  <course>0.0</course>
  <speed>0.0</speed>
  <fix>3d</fix>
</trkpt>
<trkpt lat="40.072842" lon="-105.230575">
  <ele>1586.09</ele>
  <time>2026-08-27T18:30:59Z</time>
  <course>11.93</course>
  <speed>0.022360679774997897</speed>
  <fix>3d</fix>
</trkpt>
<trkpt lat="40.072842" lon="-105.230575">
  <ele>1586.09</ele>
  <time>2026-08-27T18:30:59Z</time>
  <course>0.0</course>
  <speed>0.0</speed>
  <fix>3d</fix>
</trkpt>
<trkpt lat="40.072842" lon="-105.230575">
  <ele>1586.09</ele>
  <time>2026-08-27T18:30:59Z</time>
  <course>11.92</course>
  <speed>0.022360679774997897</speed>
  <fix>3d</fix>
</trkpt>
<trkpt lat="40.072842" lon="-105.230575">
  <ele>1586.09</ele>
  <time>2026-08-27T18:30:59Z</time>
  <course>0.0</course>
  <speed>0.0</speed>
  <fix>3d</fix>
</trkpt>
<trkpt lat="40.072842" lon="-105.230575">
  <ele>1586.09</ele>
  <time>2026-08-27T18:30:59Z</time>
  <course>11.91</course>
  <speed>0.022360679774997897</speed>
  <fix>3d</fix>
</trkpt>
<trkpt lat="40.072842" lon="-105.230575">
  <ele>1586.09</ele>
  <time>2026-08-27T18:30:59Z</time>
  <course>0.0</course>
  <speed>0.0</speed>
  <fix>3d</fix>
</trkpt>
<trkpt lat="40.072842" lon="-105.230575">
  <ele>1586.09</ele>
  <time>2026-08-27T18:30:59Z</time>
  <course>11.91</course>
  <speed>0.022360679774997897</speed>
  <fix>3d</fix>
</trkpt>
<trkpt lat="40.072842" lon="-105.230575">
  <ele>1586.09</ele>
  <time>2026-08-27T18:30:59Z</time>
  <course>0.0</course>
  <speed>0.0</speed>
  <fix>3d</fix>
</trkpt>
<trkpt lat="40.072842" lon="-105.230575">
  <ele>1586.09</ele>
  <time>2026-08-27T18:30:59Z</time>
  <course>11.9</course>
  <speed>0.022360679774997897</speed>
  <fix>3d</fix>
</trkpt>
<trkpt lat="40.072842" lon="-105.230575">
  <ele>1586.09</ele>
  <time>2026-08-27T18:30:59Z</time>
  <course>0.0</course>
  <speed>0.0</speed>
  <fix>3d</fix>
</trkpt>
<trkpt lat="40.072842" lon="-105.230575">
  <ele>1586.09</ele>
  <time>2026-08-27T18:30:59Z</time>
  <course>11.89</course>
  <speed>0.022360679774997897</speed>
  <fix>3d</fix>
</trkpt>
<trkpt lat="40.072842" lon="-105.230575">
  <ele>1586.09</ele>
  <time>2026-08-27T18:30:59Z</time>
  <course>0.0</course>
  <speed>0.0</speed>
  <fix>3d</fix>
</trkpt>
<trkpt lat="40.072842" lon="-105.230575">
  <ele>1586.09</ele>
  <time>2026-08-27T18:30:59Z</time>
  <course>11.88</course>
  <speed>0.022360679774997897</speed>
  <fix>3d</fix>
</trkpt>
<trkpt lat="40.072842" lon="-105.230575">
  <ele>1586.09</ele>
  <time>2026-08-27T18:30:59Z</time>
  <course>0.0</course>
  <speed>0.0</speed>
  <fix>3d</fix>
</trkpt>
<trkpt lat="40.072842" lon="-105.230575">
  <ele>1586.09</ele>
  <time>2026-08-27T18:30:59Z</time>
  <course>11.87</course>
  <speed>0.022360679774997897</speed>
  <fix>3d</fix>
</trkpt>
<trkpt lat="40.072842" lon="-105.230575">
  <ele>1586.09</ele>
  <time>2026-08-27T18:30:59Z</time>
  <course>0.0</course>
  <speed>0.0</speed>
  <fix>3d</fix>
</trkpt>
<trkpt lat="40.072842" lon="-105.230575">
  <ele>1586.09</ele>
  <time>2026-08-27T18:30:59Z</time>
  <course>11.86</course>
  <speed>0.022360679774997897</speed>
  <fix>3d</fix>
</trkpt>
<trkpt lat="40.072842" lon="-105.230575">
  <ele>1586.09</ele>
  <time>2026-08-27T18:30:59Z</time>
  <course>0.0</course>
  <speed>0.0</speed>
  <fix>3d</fix>
</trkpt>
<trkpt lat="40.072842" lon="-105.230575">
  <ele>1586.09</ele>
  <time>2026-08-27T18:30:59Z</time>
  <course>11.86</course>
  <speed>0.022360679774997897</speed>
  <fix>3d</fix>
</trkpt>
<trkpt lat="40.072842" lon="-105.230575">
  <ele>1586.09</ele>
  <time>2026-08-27T18:30:59Z</time>
  <course>0.0</course>
  <speed>0.0</speed>
  <fix>3d</fix>
</trkpt>
<trkpt lat="40.072842" lon="-105.230575">
  <ele>1586.09</ele>
  <time>2026-08-27T18:30:59Z</time>
  <course>11.85</course>
  <speed>0.022360679774997897</speed>
  <fix>3d</fix>
</trkpt>
<trkpt lat="40.072842" lon="-105.230575">
  <ele>1586.09</ele>
  <time>2026-08-27T18:30:59Z</time>
  <course>0.0</course>
  <speed>0.0</speed>
  <fix>3d</fix>
</trkpt>
<trkpt lat="40.072842" lon="-105.230575">
  <ele>1586.09</ele>
  <time>2026-08-27T18:30:59Z</time>
  <course>11.84</course>
  <speed>0.022360679774997897</speed>
  <fix>3d</fix>
</trkpt>
<trkpt lat="40.072842" lon="-105.230575">
  <ele>1586.09</ele>
  <time>2026-08-27T18:30:59Z</time>
  <course>0.0</course>
  <speed>0.0</speed>
  <fix>3d</fix>
</trkpt>
<trkpt lat="40.072842" lon="-105.230575">
  <ele>1586.09</ele>
  <time>2026-08-27T18:30:59Z</time>
  <course>11.83</course>
  <speed>0.022360679774997897</speed>
  <fix>3d</fix>
</trkpt>
<trkpt lat="40.072842" lon="-105.230575">
  <ele>1586.09</ele>
  <time>2026-08-27T18:30:59Z</time>
  <course>0.0</course>
  <speed>0.0</speed>
  <fix>3d</fix>
</trkpt>
<trkpt lat="40.072842" lon="-105.230575">
  <ele>1586.09</ele>
  <time>2026-08-27T18:30:59Z</time>
  <course>11.82</course>
  <speed>0.022360679774997897</speed>
  <fix>3d</fix>
</trkpt>
<trkpt lat="40.072842" lon="-105.230575">
  <ele>1586.09</ele>
  <time>2026-08-27T18:30:59Z</time>
  <course>0.0</course>
  <speed>0.0</speed>
  <fix>3d</fix>
</trkpt>
<trkpt lat="40.072842" lon="-105.230575">
  <ele>1586.09</ele>
  <time>2026-08-27T18:30:59Z</time>
  <course>11.82</course>
  <speed>0.0282842712474619</speed>
  <fix>3d</fix>
</trkpt>
<trkpt lat="40.072842" lon="-105.230575">
  <ele>1586.09</ele>
  <time>2026-08-27T18:30:59Z</time>
  <course>0.0</course>
  <speed>0.0</speed>
  <fix>3d</fix>
</trkpt>
<trkpt lat="40.072842" lon="-105.230575">
  <ele>1586.09</ele>
  <time>2026-08-27T18:30:59Z</time>
  <course>11.81</course>
  <speed>0.0282842712474619</speed>
  <fix>3d</fix>
</trkpt>
<trkpt lat="40.072842" lon="-105.230575">
  <ele>1586.09</ele>
  <time>2026-08-27T18:30:59Z</time>
  <course>0.0</course>
  <speed>0.0</speed>
  <fix>3d</fix>
</trkpt>
<trkpt lat="40.072842" lon="-105.230575">
  <ele>1586.09</ele>
  <time>2026-08-27T18:30:59Z</time>
  <course>11.8</course>
  <speed>0.0282842712474619</speed>
  <fix>3d</fix>
</trkpt>
<trkpt lat="40.072842" lon="-105.230575">
  <ele>1586.09</ele>
  <time>2026-08-27T18:30:59Z</time>
  <course>0.0</course>
  <speed>0.0</speed>
  <fix>3d</fix>
</trkpt>
<trkpt lat="40.072842" lon="-105.230575">
  <ele>1586.09</ele>
  <time>2026-08-27T18:30:59Z</time>
  <course>11.79</course>
  <speed>0.0282842712474619</speed>
  <fix>3d</fix>
</trkpt>
<trkpt lat="40.072842" lon="-105.230575">
  <ele>1586.09</ele>
  <time>2026-08-27T18:30:59Z</time>
  <course>0.0</course>
  <speed>0.0</speed>
  <fix>3d</fix>
</trkpt>
<trkpt lat="40.072842" lon="-105.230575">
  <ele>1586.09</ele>
  <time>2026-08-27T18:30:59Z</time>
  <course>11.78</course>
  <speed>0.0282842712474619</speed>
  <fix>3d</fix>
</trkpt>
<trkpt lat="40.072842" lon="-105.230575">
  <ele>1586.09</ele>
  <time>2026-08-27T18:30:59Z</time>
  <course>0.0</course>
  <speed>0.0</speed>
  <fix>3d</fix>
</trkpt>
<trkpt lat="40.072842" lon="-105.230575">
  <ele>1586.09</ele>
  <time>2026-08-27T18:30:59Z</time>
  <course>11.78</course>
  <speed>0.0282842712474619</speed>
  <fix>3d</fix>
</trkpt>
<trkpt lat="40.072842" lon="-105.230575">
  <ele>1586.09</ele>
  <time>2026-08-27T18:30:59Z</time>
  <course>0.0</course>
  <speed>0.0</speed>
  <fix>3d</fix>
</trkpt>
<trkpt lat="40.072842" lon="-105.230575">
  <ele>1586.09</ele>
  <time>2026-08-27T18:30:59Z</time>
  <course>11.77</course>
  <speed>0.0282842712474619</speed>
  <fix>3d</fix>
</trkpt>
<trkpt lat="40.072842" lon="-105.230575">
  <ele>1586.09</ele>
  <time>2026-08-27T18:30:59Z</time>
  <course>0.0</course>
  <speed>0.0</speed>
  <fix>3d</fix>
</trkpt>
<trkpt lat="40.072842" lon="-105.230575">
  <ele>1586.09</ele>
  <time>2026-08-27T18:30:59Z</time>
  <course>11.76</course>
  <speed>0.0282842712474619</speed>
  <fix>3d</fix>
</trkpt>
<trkpt lat="40.072842" lon="-105.230575">
  <ele>1586.09</ele>
  <time>2026-08-27T18:30:59Z</time>
  <course>0.0</course>
  <speed>0.0</speed>
  <fix>3d</fix>
</trkpt>
<trkpt lat="40.072842" lon="-105.230575">
  <ele>1586.09</ele>
  <time>2026-08-27T18:30:59Z</time>
  <course>11.76</course>
  <speed>0.0282842712474619</speed>
  <fix>3d</fix>
</trkpt>
<trkpt lat="40.072842" lon="-105.230575">
  <ele>1586.09</ele>
  <time>2026-08-27T18:30:59Z</time>
  <course>0.0</course>
  <speed>0.0</speed>
  <fix>3d</fix>
</trkpt>
<trkpt lat="40.072842" lon="-105.230575">
  <ele>1586.09</ele>
  <time>2026-08-27T18:30:59Z</time>
  <course>11.75</course>
  <speed>0.0282842712474619</speed>
  <fix>3d</fix>
</trkpt>
<trkpt lat="40.072842" lon="-105.230575">
  <ele>1586.09</ele>
  <time>2026-08-27T18:30:59Z</time>
  <course>0.0</course>
  <speed>0.0</speed>
  <fix>3d</fix>
</trkpt>
<trkpt lat="40.072842" lon="-105.230575">
  <ele>1586.09</ele>
  <time>2026-08-27T18:30:59Z</time>
  <course>11.74</course>
  <speed>0.0282842712474619</speed>
  <fix>3d</fix>
</trkpt>
<trkpt lat="40.072842" lon="-105.230575">
  <ele>1586.09</ele>
  <time>2026-08-27T18:30:59Z</time>
  <course>0.0</course>
  <speed>0.0</speed>
  <fix>3d</fix>
</trkpt>
<trkpt lat="40.072842" lon="-105.230575">
  <ele>1586.09</ele>
  <time>2026-08-27T18:31:00Z</time>
  <course>11.73</course>
  <speed>0.03605551275463989</speed>
  <fix>3d</fix>
</trkpt>
<trkpt lat="40.072842" lon="-105.230575">
  <ele>1586.09</ele>
  <time>2026-08-27T18:31:00Z</time>
  <course>0.0</course>
  <speed>0.0</speed>
  <fix>3d</fix>
</trkpt>
<trkpt lat="40.072842" lon="-105.230575">
  <ele>1586.09</ele>
  <time>2026-08-27T18:31:00Z</time>
  <course>11.73</course>
  <speed>0.03605551275463989</speed>
  <fix>3d</fix>
</trkpt>
<trkpt lat="40.072842" lon="-105.230575">
  <ele>1586.09</ele>
  <time>2026-08-27T18:31:00Z</time>
  <course>0.0</course>
  <speed>0.0</speed>
  <fix>3d</fix>
</trkpt>
<trkpt lat="40.072842" lon="-105.230575">
  <ele>1586.09</ele>
  <time>2026-08-27T18:31:00Z</time>
  <course>11.72</course>
  <speed>0.03605551275463989</speed>
  <fix>3d</fix>
</trkpt>
<trkpt lat="40.072842" lon="-105.230575">
  <ele>1586.09</ele>
  <time>2026-08-27T18:31:00Z</time>
  <course>0.0</course>
  <speed>0.0</speed>
  <fix>3d</fix>
</trkpt>
<trkpt lat="40.072842" lon="-105.230575">
  <ele>1586.09</ele>
  <time>2026-08-27T18:31:00Z</time>
  <course>11.71</course>
  <speed>0.03605551275463989</speed>
  <fix>3d</fix>
</trkpt>
<trkpt lat="40.072842" lon="-105.230575">
  <ele>1586.09</ele>
  <time>2026-08-27T18:31:00Z</time>
  <course>0.0</course>
  <speed>0.0</speed>
  <fix>3d</fix>
</trkpt>
<trkpt lat="40.072842" lon="-105.230575">
  <ele>1586.09</ele>
  <time>2026-08-27T18:31:00Z</time>
  <course>11.7</course>
  <speed>0.03605551275463989</speed>
  <fix>3d</fix>
</trkpt>
<trkpt lat="40.072842" lon="-105.230575">
  <ele>1586.09</ele>
  <time>2026-08-27T18:31:00Z</time>
  <course>0.0</course>
  <speed>0.0</speed>
  <fix>3d</fix>
</trkpt>
<trkpt lat="40.072842" lon="-105.230575">
  <ele>1586.09</ele>
  <time>2026-08-27T18:31:00Z</time>
  <course>11.7</course>
  <speed>0.03605551275463989</speed>
  <fix>3d</fix>
</trkpt>
<trkpt lat="40.072842" lon="-105.230575">
  <ele>1586.09</ele>
  <time>2026-08-27T18:31:00Z</time>
  <course>0.0</course>
  <speed>0.0</speed>
  <fix>3d</fix>
</trkpt>
<trkpt lat="40.072842" lon="-105.230575">
  <ele>1586.09</ele>
  <time>2026-08-27T18:31:00Z</time>
  <course>11.69</course>
  <speed>0.03605551275463989</speed>
  <fix>3d</fix>
</trkpt>
<trkpt lat="40.072842" lon="-105.230575">
  <ele>1586.09</ele>
  <time>2026-08-27T18:31:00Z</time>
  <course>0.0</course>
  <speed>0.0</speed>
  <fix>3d</fix>
</trkpt>
<trkpt lat="40.072842" lon="-105.230575">
  <ele>1586.09</ele>
  <time>2026-08-27T18:31:00Z</time>
  <course>11.68</course>
  <speed>0.03605551275463989</speed>
  <fix>3d</fix>
</trkpt>
<trkpt lat="40.072842" lon="-105.230575">
  <ele>1586.09</ele>
  <time>2026-08-27T18:31:00Z</time>
  <course>0.0</course>
  <speed>0.0</speed>
  <fix>3d</fix>
</trkpt>
<trkpt lat="40.072842" lon="-105.230575">
  <ele>1586.09</ele>
  <time>2026-08-27T18:31:00Z</time>
  <course>11.67</course>
  <speed>0.03605551275463989</speed>
  <fix>3d</fix>
</trkpt>
<trkpt lat="40.072842" lon="-105.230575">
  <ele>1586.09</ele>
  <time>2026-08-27T18:31:00Z</time>
  <course>0.0</course>
  <speed>0.0</speed>
  <fix>3d</fix>
</trkpt>
<trkpt lat="40.072842" lon="-105.230575">
  <ele>1586.09</ele>
  <time>2026-08-27T18:31:00Z</time>
  <course>11.67</course>
  <speed>0.03605551275463989</speed>
  <fix>3d</fix>
</trkpt>
<trkpt lat="40.072842" lon="-105.230575">
  <ele>1586.09</ele>
  <time>2026-08-27T18:31:00Z</time>
  <course>0.0</course>
  <speed>0.0</speed>
  <fix>3d</fix>
</trkpt>
<trkpt lat="40.072842" lon="-105.230575">
  <ele>1586.09</ele>
  <time>2026-08-27T18:31:00Z</time>
  <course>11.66</course>
  <speed>0.03605551275463989</speed>
  <fix>3d</fix>
</trkpt>
<trkpt lat="40.072842" lon="-105.230575">
  <ele>1586.09</ele>
  <time>2026-08-27T18:31:00Z</time>
  <course>0.0</course>
  <speed>0.0</speed>
  <fix>3d</fix>
</trkpt>
<trkpt lat="40.072842" lon="-105.230575">
  <ele>1586.09</ele>
  <time>2026-08-27T18:31:00Z</time>
  <course>11.65</course>
  <speed>0.03605551275463989</speed>
  <fix>3d</fix>
</trkpt>
<trkpt lat="40.072842" lon="-105.230575">
  <ele>1586.09</ele>
  <time>2026-08-27T18:31:00Z</time>
  <course>0.0</course>
  <speed>0.0</speed>
  <fix>3d</fix>
</trkpt>
<trkpt lat="40.072842" lon="-105.230575">
  <ele>1586.09</ele>
  <time>2026-08-27T18:31:00Z</time>
  <course>11.65</course>
  <speed>0.03605551275463989</speed>
  <fix>3d</fix>
</trkpt>
<trkpt lat="40.072842" lon="-105.230575">
  <ele>1586.09</ele>
  <time>2026-08-27T18:31:00Z</time>
  <course>0.0</course>
  <speed>0.0</speed>
  <fix>3d</fix>
</trkpt>
<trkpt lat="40.072842" lon="-105.230575">
  <ele>1586.09</ele>
  <time>2026-08-27T18:31:00Z</time>
  <course>11.64</course>
  <speed>0.03605551275463989</speed>
  <fix>3d</fix>
</trkpt>
<trkpt lat="40.072842" lon="-105.230575">
  <ele>1586.09</ele>
  <time>2026-08-27T18:31:00Z</time>
  <course>0.0</course>
  <speed>0.0</speed>
  <fix>3d</fix>
</trkpt>
<trkpt lat="40.072842" lon="-105.230575">
  <ele>1586.09</ele>
  <time>2026-08-27T18:31:00Z</time>
  <course>11.63</course>
  <speed>0.03605551275463989</speed>
  <fix>3d</fix>
</trkpt>
<trkpt lat="40.072842" lon="-105.230575">
  <ele>1586.09</ele>
  <time>2026-08-27T18:31:00Z</time>
  <course>0.0</course>
  <speed>0.0</speed>
  <fix>3d</fix>
</trkpt>
<trkpt lat="40.072842" lon="-105.230575">
  <ele>1586.09</ele>
  <time>2026-08-27T18:31:00Z</time>
  <course>11.63</course>
  <speed>0.03605551275463989</speed>
  <fix>3d</fix>
</trkpt>
<trkpt lat="40.072842" lon="-105.230575">
  <ele>1586.09</ele>
  <time>2026-08-27T18:31:00Z</time>
  <course>0.0</course>
  <speed>0.0</speed>
  <fix>3d</fix>
</trkpt>
<trkpt lat="40.072842" lon="-105.230575">
  <ele>1586.09</ele>
  <time>2026-08-27T18:31:00Z</time>
  <course>11.62</course>
  <speed>0.03605551275463989</speed>
  <fix>3d</fix>
</trkpt>
<trkpt lat="40.072842" lon="-105.230575">
  <ele>1586.09</ele>
  <time>2026-08-27T18:31:00Z</time>
  <course>0.0</course>
  <speed>0.0</speed>
  <fix>3d</fix>
</trkpt>
<trkpt lat="40.072842" lon="-105.230575">
  <ele>1586.09</ele>
  <time>2026-08-27T18:31:00Z</time>
  <course>11.61</course>
  <speed>0.03605551275463989</speed>
  <fix>3d</fix>
</trkpt>
<trkpt lat="40.072842" lon="-105.230575">
  <ele>1586.09</ele>
  <time>2026-08-27T18:31:00Z</time>
  <course>0.0</course>
  <speed>0.0</speed>
  <fix>3d</fix>
</trkpt>
<trkpt lat="40.072842" lon="-105.230575">
  <ele>1586.09</ele>
  <time>2026-08-27T18:31:00Z</time>
  <course>11.61</course>
  <speed>0.03605551275463989</speed>
  <fix>3d</fix>
</trkpt>
<trkpt lat="40.072842" lon="-105.230575">
  <ele>1586.09</ele>
  <time>2026-08-27T18:31:00Z</time>
  <course>0.0</course>
  <speed>0.0</speed>
  <fix>3d</fix>
</trkpt>
<trkpt lat="40.072842" lon="-105.230575">
  <ele>1586.09</ele>
  <time>2026-08-27T18:31:00Z</time>
  <course>11.6</course>
  <speed>0.03605551275463989</speed>
  <fix>3d</fix>
</trkpt>
<trkpt lat="40.072842" lon="-105.230575">
  <ele>1586.09</ele>
  <time>2026-08-27T18:31:00Z</time>
  <course>0.0</course>
  <speed>0.0</speed>
  <fix>3d</fix>
</trkpt>
<trkpt lat="40.072842" lon="-105.230575">
  <ele>1586.09</ele>
  <time>2026-08-27T18:31:00Z</time>
  <course>11.59</course>
  <speed>0.03605551275463989</speed>
  <fix>3d</fix>
</trkpt>
<trkpt lat="40.072842" lon="-105.230575">
  <ele>1586.09</ele>
  <time>2026-08-27T18:31:00Z</time>
  <course>0.0</course>
  <speed>0.0</speed>
  <fix>3d</fix>
</trkpt>
<trkpt lat="40.072842" lon="-105.230575">
  <ele>1586.09</ele>
  <time>2026-08-27T18:31:00Z</time>
  <course>11.59</course>
  <speed>0.03605551275463989</speed>
  <fix>3d</fix>
</trkpt>
<trkpt lat="40.072842" lon="-105.230575">
  <ele>1586.09</ele>
  <time>2026-08-27T18:31:00Z</time>
  <course>0.0</course>
  <speed>0.0</speed>
  <fix>3d</fix>
</trkpt>
<trkpt lat="40.072842" lon="-105.230575">
  <ele>1586.09</ele>
  <time>2026-08-27T18:31:00Z</time>
  <course>11.58</course>
  <speed>0.03605551275463989</speed>
  <fix>3d</fix>
</trkpt>
<trkpt lat="40.072842" lon="-105.230575">
  <ele>1586.09</ele>
  <time>2026-08-27T18:31:00Z</time>
  <course>0.0</course>
  <speed>0.0</speed>
  <fix>3d</fix>
</trkpt>
<trkpt lat="40.072842" lon="-105.230575">
  <ele>1586.09</ele>
  <time>2026-08-27T18:31:00Z</time>
  <course>11.57</course>
  <speed>0.03605551275463989</speed>
  <fix>3d</fix>
</trkpt>
<trkpt lat="40.072842" lon="-105.230575">
  <ele>1586.09</ele>
  <time>2026-08-27T18:31:00Z</time>
  <course>0.0</course>
  <speed>0.0</speed>
  <fix>3d</fix>
</trkpt>
<trkpt lat="40.072842" lon="-105.230575">
  <ele>1586.09</ele>
  <time>2026-08-27T18:31:00Z</time>
  <course>11.57</course>
  <speed>0.03605551275463989</speed>
  <fix>3d</fix>
</trkpt>
<trkpt lat="40.072842" lon="-105.230575">
  <ele>1586.09</ele>
  <time>2026-08-27T18:31:00Z</time>
  <course>0.0</course>
  <speed>0.0</speed>
  <fix>3d</fix>
</trkpt>
<trkpt lat="40.072842" lon="-105.230575">
  <ele>1586.09</ele>
  <time>2026-08-27T18:31:00Z</time>
  <course>11.56</course>
  <speed>0.03605551275463989</speed>
  <fix>3d</fix>
</trkpt>
<trkpt lat="40.072842" lon="-105.230575">
  <ele>1586.09</ele>
  <time>2026-08-27T18:31:00Z</time>
  <course>0.0</course>
  <speed>0.0</speed>
  <fix>3d</fix>
</trkpt>
<trkpt lat="40.072842" lon="-105.230575">
  <ele>1586.09</ele>
  <time>2026-08-27T18:31:00Z</time>
  <course>11.56</course>
  <speed>0.03605551275463989</speed>
  <fix>3d</fix>
</trkpt>
<trkpt lat="40.072842" lon="-105.230575">
  <ele>1586.09</ele>
  <time>2026-08-27T18:31:00Z</time>
  <course>0.0</course>
  <speed>0.0</speed>
  <fix>3d</fix>
</trkpt>
<trkpt lat="40.072842" lon="-105.230575">
  <ele>1586.09</ele>
  <time>2026-08-27T18:31:00Z</time>
  <course>11.55</course>
  <speed>0.03605551275463989</speed>
  <fix>3d</fix>
</trkpt>
<trkpt lat="40.072842" lon="-105.230575">
  <ele>1586.09</ele>
  <time>2026-08-27T18:31:00Z</time>
  <course>0.0</course>
  <speed>0.0</speed>
  <fix>3d</fix>
</trkpt>
<trkpt lat="40.072842" lon="-105.230575">
  <ele>1586.09</ele>
  <time>2026-08-27T18:31:00Z</time>
  <course>11.54</course>
  <speed>0.03605551275463989</speed>
  <fix>3d</fix>
</trkpt>
<trkpt lat="40.072842" lon="-105.230575">
  <ele>1586.09</ele>
  <time>2026-08-27T18:31:00Z</time>
  <course>0.0</course>
  <speed>0.0</speed>
  <fix>3d</fix>
</trkpt>
<trkpt lat="40.072842" lon="-105.230575">
  <ele>1586.09</ele>
  <time>2026-08-27T18:31:00Z</time>
  <course>11.54</course>
  <speed>0.03605551275463989</speed>
  <fix>3d</fix>
</trkpt>
<trkpt lat="40.072842" lon="-105.230575">
  <ele>1586.09</ele>
  <time>2026-08-27T18:31:00Z</time>
  <course>0.0</course>
  <speed>0.0</speed>
  <fix>3d</fix>
</trkpt>
<trkpt lat="40.072842" lon="-105.230575">
  <ele>1586.09</ele>
  <time>2026-08-27T18:31:00Z</time>
  <course>11.53</course>
  <speed>0.03605551275463989</speed>
  <fix>3d</fix>
</trkpt>
<trkpt lat="40.072842" lon="-105.230575">
  <ele>1586.09</ele>
  <time>2026-08-27T18:31:00Z</time>
  <course>0.0</course>
  <speed>0.0</speed>
  <fix>3d</fix>
</trkpt>
<trkpt lat="40.072842" lon="-105.230575">
  <ele>1586.09</ele>
  <time>2026-08-27T18:31:00Z</time>
  <course>11.53</course>
  <speed>0.03605551275463989</speed>
  <fix>3d</fix>
</trkpt>
<trkpt lat="40.072842" lon="-105.230575">
  <ele>1586.09</ele>
  <time>2026-08-27T18:31:00Z</time>
  <course>0.0</course>
  <speed>0.0</speed>
  <fix>3d</fix>
</trkpt>
<trkpt lat="40.072842" lon="-105.230575">
  <ele>1586.09</ele>
  <time>2026-08-27T18:31:00Z</time>
  <course>11.52</course>
  <speed>0.03605551275463989</speed>
  <fix>3d</fix>
</trkpt>
<trkpt lat="40.072842" lon="-105.230575">
  <ele>1586.09</ele>
  <time>2026-08-27T18:31:00Z</time>
  <course>0.0</course>
  <speed>0.0</speed>
  <fix>3d</fix>
</trkpt>
<trkpt lat="40.072842" lon="-105.230575">
  <ele>1586.09</ele>
  <time>2026-08-27T18:31:00Z</time>
  <course>11.52</course>
  <speed>0.03605551275463989</speed>
  <fix>3d</fix>
</trkpt>
<trkpt lat="40.072842" lon="-105.230575">
  <ele>1586.09</ele>
  <time>2026-08-27T18:31:00Z</time>
  <course>0.0</course>
  <speed>0.0</speed>
  <fix>3d</fix>
</trkpt>
<trkpt lat="40.072842" lon="-105.230575">
  <ele>1586.09</ele>
  <time>2026-08-27T18:31:00Z</time>
  <course>11.51</course>
  <speed>0.03605551275463989</speed>
  <fix>3d</fix>
</trkpt>
<trkpt lat="40.072842" lon="-105.230575">
  <ele>1586.09</ele>
  <time>2026-08-27T18:31:00Z</time>
  <course>0.0</course>
  <speed>0.0</speed>
  <fix>3d</fix>
</trkpt>
<trkpt lat="40.072842" lon="-105.230575">
  <ele>1586.09</ele>
  <time>2026-08-27T18:31:00Z</time>
  <course>11.5</course>
  <speed>0.03605551275463989</speed>
  <fix>3d</fix>
</trkpt>
<trkpt lat="40.072842" lon="-105.230575">
  <ele>1586.09</ele>
  <time>2026-08-27T18:31:00Z</time>
  <course>0.0</course>
  <speed>0.0</speed>
  <fix>3d</fix>
</trkpt>
<trkpt lat="40.072842" lon="-105.230575">
  <ele>1586.09</ele>
  <time>2026-08-27T18:31:00Z</time>
  <course>11.5</course>
  <speed>0.03605551275463989</speed>
  <fix>3d</fix>
</trkpt>
<trkpt lat="40.072842" lon="-105.230575">
  <ele>1586.09</ele>
  <time>2026-08-27T18:31:00Z</time>
  <course>0.0</course>
  <speed>0.0</speed>
  <fix>3d</fix>
</trkpt>
<trkpt lat="40.072842" lon="-105.230575">
  <ele>1586.09</ele>
  <time>2026-08-27T18:31:00Z</time>
  <course>11.49</course>
  <speed>0.044721359549995794</speed>
  <fix>3d</fix>
</trkpt>
<trkpt lat="40.072842" lon="-105.230575">
  <ele>1586.09</ele>
  <time>2026-08-27T18:31:00Z</time>
  <course>0.0</course>
  <speed>0.0</speed>
  <fix>3d</fix>
</trkpt>
<trkpt lat="40.072842" lon="-105.230575">
  <ele>1586.09</ele>
  <time>2026-08-27T18:31:00Z</time>
  <course>11.49</course>
  <speed>0.044721359549995794</speed>
  <fix>3d</fix>
</trkpt>
<trkpt lat="40.072842" lon="-105.230575">
  <ele>1586.09</ele>
  <time>2026-08-27T18:31:00Z</time>
  <course>0.0</course>
  <speed>0.0</speed>
  <fix>3d</fix>
</trkpt>
<trkpt lat="40.072842" lon="-105.230575">
  <ele>1586.09</ele>
  <time>2026-08-27T18:31:00Z</time>
  <course>11.48</course>
  <speed>0.044721359549995794</speed>
  <fix>3d</fix>
</trkpt>
<trkpt lat="40.072842" lon="-105.230575">
  <ele>1586.09</ele>
  <time>2026-08-27T18:31:00Z</time>
  <course>0.0</course>
  <speed>0.0</speed>
  <fix>3d</fix>
</trkpt>
<trkpt lat="40.072842" lon="-105.230575">
  <ele>1586.09</ele>
  <time>2026-08-27T18:31:00Z</time>
  <course>11.48</course>
  <speed>0.044721359549995794</speed>
  <fix>3d</fix>
</trkpt>
<trkpt lat="40.072842" lon="-105.230575">
  <ele>1586.09</ele>
  <time>2026-08-27T18:31:00Z</time>
  <course>0.0</course>
  <speed>0.0</speed>
  <fix>3d</fix>
</trkpt>
<trkpt lat="40.072842" lon="-105.230575">
  <ele>1586.09</ele>
  <time>2026-08-27T18:31:00Z</time>
  <course>11.47</course>
  <speed>0.044721359549995794</speed>
  <fix>3d</fix>
</trkpt>
<trkpt lat="40.072842" lon="-105.230575">
  <ele>1586.09</ele>
  <time>2026-08-27T18:31:00Z</time>
  <course>0.0</course>
  <speed>0.0</speed>
  <fix>3d</fix>
</trkpt>
<trkpt lat="40.072842" lon="-105.230575">
  <ele>1586.09</ele>
  <time>2026-08-27T18:31:00Z</time>
  <course>11.47</course>
  <speed>0.044721359549995794</speed>
  <fix>3d</fix>
</trkpt>
<trkpt lat="40.072842" lon="-105.230575">
  <ele>1586.09</ele>
  <time>2026-08-27T18:31:00Z</time>
  <course>0.0</course>
  <speed>0.0</speed>
  <fix>3d</fix>
</trkpt>
<trkpt lat="40.072842" lon="-105.230575">
  <ele>1586.09</ele>
  <time>2026-08-27T18:31:00Z</time>
  <course>11.46</course>
  <speed>0.044721359549995794</speed>
  <fix>3d</fix>
</trkpt>
<trkpt lat="40.072842" lon="-105.230575">
  <ele>1586.09</ele>
  <time>2026-08-27T18:31:00Z</time>
  <course>0.0</course>
  <speed>0.0</speed>
  <fix>3d</fix>
</trkpt>
<trkpt lat="40.072842" lon="-105.230575">
  <ele>1586.09</ele>
  <time>2026-08-27T18:31:00Z</time>
  <course>11.46</course>
  <speed>0.044721359549995794</speed>
  <fix>3d</fix>
</trkpt>
<trkpt lat="40.072842" lon="-105.230575">
  <ele>1586.09</ele>
  <time>2026-08-27T18:31:00Z</time>
  <course>0.0</course>
  <speed>0.0</speed>
  <fix>3d</fix>
</trkpt>
<trkpt lat="40.072842" lon="-105.230575">
  <ele>1586.15</ele>
  <time>2026-08-27T18:31:00Z</time>
  <course>11.45</course>
  <speed>0.0</speed>
  <fix>3d</fix>
</trkpt>
<trkpt lat="40.072842" lon="-105.230575">
  <ele>1586.09</ele>
  <time>2026-08-27T18:31:00Z</time>
  <course>0.0</course>
  <speed>0.0</speed>
  <fix>3d</fix>
</trkpt>
<trkpt lat="40.072842" lon="-105.230575">
  <ele>1586.15</ele>
  <time>2026-08-27T18:31:00Z</time>
  <course>11.45</course>
  <speed>0.0</speed>
  <fix>3d</fix>
</trkpt>
<trkpt lat="40.072842" lon="-105.230575">
  <ele>1586.09</ele>
  <time>2026-08-27T18:31:00Z</time>
  <course>0.0</course>
  <speed>0.0</speed>
  <fix>3d</fix>
</trkpt>
<trkpt lat="40.072842" lon="-105.230575">
  <ele>1586.14</ele>
  <time>2026-08-27T18:31:00Z</time>
  <course>11.44</course>
  <speed>0.0</speed>
  <fix>3d</fix>
</trkpt>
<trkpt lat="40.072842" lon="-105.230575">
  <ele>1586.09</ele>
  <time>2026-08-27T18:31:00Z</time>
  <course>0.0</course>
  <speed>0.0</speed>
  <fix>3d</fix>
</trkpt>
<trkpt lat="40.072842" lon="-105.230575">
  <ele>1586.14</ele>
  <time>2026-08-27T18:31:00Z</time>
  <course>11.44</course>
  <speed>0.0</speed>
  <fix>3d</fix>
</trkpt>
<trkpt lat="40.072842" lon="-105.230575">
  <ele>1586.09</ele>
  <time>2026-08-27T18:31:00Z</time>
  <course>0.0</course>
  <speed>0.0</speed>
  <fix>3d</fix>
</trkpt>
<trkpt lat="40.072842" lon="-105.230575">
  <ele>1586.14</ele>
  <time>2026-08-27T18:31:00Z</time>
  <course>11.43</course>
  <speed>0.0</speed>
  <fix>3d</fix>
</trkpt>
<trkpt lat="40.072842" lon="-105.230575">
  <ele>1586.09</ele>
  <time>2026-08-27T18:31:00Z</time>
  <course>0.0</course>
  <speed>0.0</speed>
  <fix>3d</fix>
</trkpt>
<trkpt lat="40.072842" lon="-105.230575">
  <ele>1586.14</ele>
  <time>2026-08-27T18:31:00Z</time>
  <course>11.43</course>
  <speed>0.01</speed>
  <fix>3d</fix>
</trkpt>
<trkpt lat="40.072842" lon="-105.230575">
  <ele>1586.09</ele>
  <time>2026-08-27T18:31:00Z</time>
  <course>0.0</course>
  <speed>0.0</speed>
  <fix>3d</fix>
</trkpt>
<trkpt lat="40.072842" lon="-105.230575">
  <ele>1586.14</ele>
  <time>2026-08-27T18:31:00Z</time>
  <course>11.42</course>
  <speed>0.01</speed>
  <fix>3d</fix>
</trkpt>
<trkpt lat="40.072842" lon="-105.230575">
  <ele>1586.09</ele>
  <time>2026-08-27T18:31:00Z</time>
  <course>0.0</course>
  <speed>0.0</speed>
  <fix>3d</fix>
</trkpt>
<trkpt lat="40.072842" lon="-105.230575">
  <ele>1586.14</ele>
  <time>2026-08-27T18:31:00Z</time>
  <course>11.42</course>
  <speed>0.01</speed>
  <fix>3d</fix>
</trkpt>
<trkpt lat="40.072842" lon="-105.230575">
  <ele>1586.09</ele>
  <time>2026-08-27T18:31:00Z</time>
  <course>0.0</course>
  <speed>0.0</speed>
  <fix>3d</fix>
</trkpt>
<trkpt lat="40.072842" lon="-105.230575">
  <ele>1586.14</ele>
  <time>2026-08-27T18:31:00Z</time>
  <course>11.42</course>
  <speed>0.01414213562373095</speed>
  <fix>3d</fix>
</trkpt>
<trkpt lat="40.072842" lon="-105.230575">
  <ele>1586.09</ele>
  <time>2026-08-27T18:31:00Z</time>
  <course>0.0</course>
  <speed>0.0</speed>
  <fix>3d</fix>
</trkpt>
<trkpt lat="40.072842" lon="-105.230575">
  <ele>1586.14</ele>
  <time>2026-08-27T18:31:00Z</time>
  <course>11.41</course>
  <speed>0.01414213562373095</speed>
  <fix>3d</fix>
</trkpt>
<trkpt lat="40.072842" lon="-105.230575">
  <ele>1586.09</ele>
  <time>2026-08-27T18:31:00Z</time>
  <course>0.0</course>
  <speed>0.0</speed>
  <fix>3d</fix>
</trkpt>
<trkpt lat="40.072842" lon="-105.230575">
  <ele>1586.15</ele>
  <time>2026-08-27T18:31:00Z</time>
  <course>11.41</course>
  <speed>0.01414213562373095</speed>
  <fix>3d</fix>
</trkpt>
<trkpt lat="40.072842" lon="-105.230575">
  <ele>1586.09</ele>
  <time>2026-08-27T18:31:00Z</time>
  <course>0.0</course>
  <speed>0.0</speed>
  <fix>3d</fix>
</trkpt>
<trkpt lat="40.072842" lon="-105.230575">
  <ele>1586.15</ele>
  <time>2026-08-27T18:31:00Z</time>
  <course>11.4</course>
  <speed>0.022360679774997897</speed>
  <fix>3d</fix>
</trkpt>
<trkpt lat="40.072842" lon="-105.230575">
  <ele>1586.09</ele>
  <time>2026-08-27T18:31:00Z</time>
  <course>0.0</course>
  <speed>0.0</speed>
  <fix>3d</fix>
</trkpt>
<trkpt lat="40.072842" lon="-105.230575">
  <ele>1586.15</ele>
  <time>2026-08-27T18:31:00Z</time>
  <course>11.4</course>
  <speed>0.022360679774997897</speed>
  <fix>3d</fix>
</trkpt>
<trkpt lat="40.072842" lon="-105.230575">
  <ele>1586.09</ele>
  <time>2026-08-27T18:31:00Z</time>
  <course>0.0</course>
  <speed>0.0</speed>
  <fix>3d</fix>
</trkpt>
<trkpt lat="40.072842" lon="-105.230575">
  <ele>1586.15</ele>
  <time>2026-08-27T18:31:00Z</time>
  <course>11.4</course>
  <speed>0.022360679774997897</speed>
  <fix>3d</fix>
</trkpt>
<trkpt lat="40.072842" lon="-105.230575">
  <ele>1586.09</ele>
  <time>2026-08-27T18:31:00Z</time>
  <course>0.0</course>
  <speed>0.0</speed>
  <fix>3d</fix>
</trkpt>
<trkpt lat="40.072842" lon="-105.230575">
  <ele>1586.16</ele>
  <time>2026-08-27T18:31:00Z</time>
  <course>11.39</course>
  <speed>0.022360679774997897</speed>
  <fix>3d</fix>
</trkpt>
<trkpt lat="40.072842" lon="-105.230575">
  <ele>1586.09</ele>
  <time>2026-08-27T18:31:00Z</time>
  <course>0.0</course>
  <speed>0.0</speed>
  <fix>3d</fix>
</trkpt>
<trkpt lat="40.072842" lon="-105.230575">
  <ele>1586.16</ele>
  <time>2026-08-27T18:31:00Z</time>
  <course>11.39</course>
  <speed>0.01414213562373095</speed>
  <fix>3d</fix>
</trkpt>
<trkpt lat="40.072842" lon="-105.230575">
  <ele>1586.09</ele>
  <time>2026-08-27T18:31:00Z</time>
  <course>0.0</course>
  <speed>0.0</speed>
  <fix>3d</fix>
</trkpt>
<trkpt lat="40.072842" lon="-105.230575">
  <ele>1586.16</ele>
  <time>2026-08-27T18:31:00Z</time>
  <course>11.39</course>
  <speed>0.01414213562373095</speed>
  <fix>3d</fix>
</trkpt>
<trkpt lat="40.072842" lon="-105.230575">
  <ele>1586.09</ele>
  <time>2026-08-27T18:31:00Z</time>
  <course>0.0</course>
  <speed>0.0</speed>
  <fix>3d</fix>
</trkpt>
<trkpt lat="40.072842" lon="-105.230575">
  <ele>1586.16</ele>
  <time>2026-08-27T18:31:00Z</time>
  <course>11.38</course>
  <speed>0.01</speed>
  <fix>3d</fix>
</trkpt>
<trkpt lat="40.072842" lon="-105.230575">
  <ele>1586.09</ele>
  <time>2026-08-27T18:31:00Z</time>
  <course>0.0</course>
  <speed>0.0</speed>
  <fix>3d</fix>
</trkpt>
<trkpt lat="40.072842" lon="-105.230575">
  <ele>1586.16</ele>
  <time>2026-08-27T18:31:00Z</time>
  <course>11.38</course>
  <speed>0.0</speed>
  <fix>3d</fix>
</trkpt>
<trkpt lat="40.072842" lon="-105.230575">
  <ele>1586.09</ele>
  <time>2026-08-27T18:31:00Z</time>
  <course>0.0</course>
  <speed>0.0</speed>
  <fix>3d</fix>
</trkpt>
<trkpt lat="40.072842" lon="-105.230575">
  <ele>1586.16</ele>
  <time>2026-08-27T18:31:00Z</time>
  <course>11.37</course>
  <speed>0.0</speed>
  <fix>3d</fix>
</trkpt>
<trkpt lat="40.072842" lon="-105.230575">
  <ele>1586.09</ele>
  <time>2026-08-27T18:31:00Z</time>
  <course>0.0</course>
  <speed>0.0</speed>
  <fix>3d</fix>
</trkpt>
<trkpt lat="40.072842" lon="-105.230575">
  <ele>1586.16</ele>
  <time>2026-08-27T18:31:00Z</time>
  <course>11.37</course>
  <speed>0.0</speed>
  <fix>3d</fix>
</trkpt>
<trkpt lat="40.072842" lon="-105.230575">
  <ele>1586.09</ele>
  <time>2026-08-27T18:31:00Z</time>
  <course>0.0</course>
  <speed>0.0</speed>
  <fix>3d</fix>
</trkpt>
<trkpt lat="40.072842" lon="-105.230575">
  <ele>1586.16</ele>
  <time>2026-08-27T18:31:00Z</time>
  <course>11.37</course>
  <speed>0.0</speed>
  <fix>3d</fix>
</trkpt>
<trkpt lat="40.072842" lon="-105.230575">
  <ele>1586.09</ele>
  <time>2026-08-27T18:31:00Z</time>
  <course>0.0</course>
  <speed>0.0</speed>
  <fix>3d</fix>
</trkpt>
<trkpt lat="40.072842" lon="-105.230575">
  <ele>1586.16</ele>
  <time>2026-08-27T18:31:00Z</time>
  <course>11.36</course>
  <speed>0.0</speed>
  <fix>3d</fix>
</trkpt>
<trkpt lat="40.072842" lon="-105.230575">
  <ele>1586.09</ele>
  <time>2026-08-27T18:31:00Z</time>
  <course>135.0</course>
  <speed>0.0</speed>
  <fix>3d</fix>
</trkpt>
<trkpt lat="40.072842" lon="-105.230575">
  <ele>1586.16</ele>
  <time>2026-08-27T18:31:00Z</time>
  <course>11.36</course>
  <speed>0.0</speed>
  <fix>3d</fix>
</trkpt>
<trkpt lat="40.072842" lon="-105.230575">
  <ele>1586.09</ele>
  <time>2026-08-27T18:31:00Z</time>
  <course>135.0</course>
  <speed>0.0</speed>
  <fix>3d</fix>
</trkpt>
<trkpt lat="40.072842" lon="-105.230575">
  <ele>1586.16</ele>
  <time>2026-08-27T18:31:00Z</time>
  <course>11.36</course>
  <speed>0.0</speed>
  <fix>3d</fix>
</trkpt>
<trkpt lat="40.072842" lon="-105.230575">
  <ele>1586.09</ele>
  <time>2026-08-27T18:31:00Z</time>
  <course>135.0</course>
  <speed>0.0</speed>
  <fix>3d</fix>
</trkpt>
<trkpt lat="40.072842" lon="-105.230575">
  <ele>1586.16</ele>
  <time>2026-08-27T18:31:00Z</time>
  <course>11.35</course>
  <speed>0.0</speed>
  <fix>3d</fix>
</trkpt>
<trkpt lat="40.072842" lon="-105.230575">
  <ele>1586.09</ele>
  <time>2026-08-27T18:31:00Z</time>
  <course>135.0</course>
  <speed>0.0</speed>
  <fix>3d</fix>
</trkpt>
<trkpt lat="40.072842" lon="-105.230575">
  <ele>1586.16</ele>
  <time>2026-08-27T18:31:00Z</time>
  <course>11.35</course>
  <speed>0.0</speed>
  <fix>3d</fix>
</trkpt>
<trkpt lat="40.072842" lon="-105.230575">
  <ele>1586.09</ele>
  <time>2026-08-27T18:31:00Z</time>
  <course>162.99</course>
  <speed>0.0</speed>
  <fix>3d</fix>
</trkpt>
<trkpt lat="40.072842" lon="-105.230575">
  <ele>1586.16</ele>
  <time>2026-08-27T18:31:00Z</time>
  <course>11.35</course>
  <speed>0.0</speed>
  <fix>3d</fix>
</trkpt>
<trkpt lat="40.072842" lon="-105.230575">
  <ele>1586.09</ele>
  <time>2026-08-27T18:31:00Z</time>
  <course>190.28</course>
  <speed>0.0</speed>
  <fix>3d</fix>
</trkpt>
<trkpt lat="40.072842" lon="-105.230575">
  <ele>1586.16</ele>
  <time>2026-08-27T18:31:00Z</time>
  <course>11.35</course>
  <speed>0.0</speed>
  <fix>3d</fix>
</trkpt>
<trkpt lat="40.072842" lon="-105.230575">
  <ele>1586.09</ele>
  <time>2026-08-27T18:31:00Z</time>
  <course>325.59</course>
  <speed>0.0</speed>
  <fix>3d</fix>
</trkpt>
<trkpt lat="40.072842" lon="-105.230575">
  <ele>1586.16</ele>
  <time>2026-08-27T18:31:00Z</time>
  <course>11.35</course>
  <speed>0.0</speed>
  <fix>3d</fix>
</trkpt>
<trkpt lat="40.072842" lon="-105.230575">
  <ele>1586.09</ele>
  <time>2026-08-27T18:31:00Z</time>
  <course>40.09</course>
  <speed>0.0</speed>
  <fix>3d</fix>
</trkpt>
<trkpt lat="40.072842" lon="-105.230575">
  <ele>1586.16</ele>
  <time>2026-08-27T18:31:00Z</time>
  <course>11.34</course>
  <speed>0.0</speed>
  <fix>3d</fix>
</trkpt>
<trkpt lat="40.072842" lon="-105.230575">
  <ele>1586.09</ele>
  <time>2026-08-27T18:31:00Z</time>
  <course>162.78</course>
  <speed>0.0</speed>
  <fix>3d</fix>
</trkpt>
<trkpt lat="40.072842" lon="-105.230575">
  <ele>1586.16</ele>
  <time>2026-08-27T18:31:00Z</time>
  <course>11.34</course>
  <speed>0.0</speed>
  <fix>3d</fix>
</trkpt>
<trkpt lat="40.072842" lon="-105.230575">
  <ele>1586.09</ele>
  <time>2026-08-27T18:31:00Z</time>
  <course>172.07</course>
  <speed>0.0</speed>
  <fix>3d</fix>
</trkpt>
<trkpt lat="40.072842" lon="-105.230575">
  <ele>1586.16</ele>
  <time>2026-08-27T18:31:00Z</time>
  <course>11.34</course>
  <speed>0.0</speed>
  <fix>3d</fix>
</trkpt>
<trkpt lat="40.072842" lon="-105.230575">
  <ele>1586.09</ele>
  <time>2026-08-27T18:31:00Z</time>
  <course>136.26</course>
  <speed>0.0</speed>
  <fix>3d</fix>
</trkpt>
<trkpt lat="40.072842" lon="-105.230575">
  <ele>1586.16</ele>
  <time>2026-08-27T18:31:00Z</time>
  <course>11.34</course>
  <speed>0.0</speed>
  <fix>3d</fix>
</trkpt>
<trkpt lat="40.072842" lon="-105.230575">
  <ele>1586.09</ele>
  <time>2026-08-27T18:31:00Z</time>
  <course>136.64</course>
  <speed>0.0</speed>
  <fix>3d</fix>
</trkpt>
<trkpt lat="40.072842" lon="-105.230575">
  <ele>1586.16</ele>
  <time>2026-08-27T18:31:00Z</time>
  <course>11.34</course>
  <speed>0.0</speed>
  <fix>3d</fix>
</trkpt>
<trkpt lat="40.072842" lon="-105.230575">
  <ele>1586.09</ele>
  <time>2026-08-27T18:31:00Z</time>
  <course>302.54</course>
  <speed>0.0</speed>
  <fix>3d</fix>
</trkpt>
<trkpt lat="40.072842" lon="-105.230575">
  <ele>1586.16</ele>
  <time>2026-08-27T18:31:00Z</time>
  <course>11.34</course>
  <speed>0.0</speed>
  <fix>3d</fix>
</trkpt>
<trkpt lat="40.072842" lon="-105.230575">
  <ele>1586.09</ele>
  <time>2026-08-27T18:31:00Z</time>
  <course>228.49</course>
  <speed>0.0</speed>
  <fix>3d</fix>
</trkpt>
<trkpt lat="40.072842" lon="-105.230575">
  <ele>1586.16</ele>
  <time>2026-08-27T18:31:00Z</time>
  <course>11.34</course>
  <speed>0.0</speed>
  <fix>3d</fix>
</trkpt>
<trkpt lat="40.072842" lon="-105.230575">
  <ele>1586.09</ele>
  <time>2026-08-27T18:31:00Z</time>
  <course>147.8</course>
  <speed>0.0</speed>
  <fix>3d</fix>
</trkpt>
<trkpt lat="40.072842" lon="-105.230575">
  <ele>1586.16</ele>
  <time>2026-08-27T18:31:00Z</time>
  <course>11.34</course>
  <speed>0.0</speed>
  <fix>3d</fix>
</trkpt>
<trkpt lat="40.072842" lon="-105.230575">
  <ele>1586.09</ele>
  <time>2026-08-27T18:31:00Z</time>
  <course>152.23</course>
  <speed>0.0</speed>
  <fix>3d</fix>
</trkpt>
<trkpt lat="40.072842" lon="-105.230575">
  <ele>1586.16</ele>
  <time>2026-08-27T18:31:00Z</time>
  <course>11.34</course>
  <speed>0.0</speed>
  <fix>3d</fix>
</trkpt>
<trkpt lat="40.072842" lon="-105.230575">
  <ele>1586.09</ele>
  <time>2026-08-27T18:31:00Z</time>
  <course>154.86</course>
  <speed>0.0</speed>
  <fix>3d</fix>
</trkpt>
<trkpt lat="40.072842" lon="-105.230575">
  <ele>1586.16</ele>
  <time>2026-08-27T18:31:00Z</time>
  <course>11.34</course>
  <speed>0.0</speed>
  <fix>3d</fix>
</trkpt>
<trkpt lat="40.072842" lon="-105.230575">
  <ele>1586.09</ele>
  <time>2026-08-27T18:31:00Z</time>
  <course>136.27</course>
  <speed>0.0</speed>
  <fix>3d</fix>
</trkpt>
<trkpt lat="40.072842" lon="-105.230575">
  <ele>1586.17</ele>
  <time>2026-08-27T18:31:00Z</time>
  <course>11.34</course>
  <speed>0.0</speed>
  <fix>3d</fix>
</trkpt>
<trkpt lat="40.072842" lon="-105.230575">
  <ele>1586.09</ele>
  <time>2026-08-27T18:31:00Z</time>
  <course>136.2</course>
  <speed>0.0</speed>
  <fix>3d</fix>
</trkpt>
<trkpt lat="40.072842" lon="-105.230575">
  <ele>1586.17</ele>
  <time>2026-08-27T18:31:00Z</time>
  <course>11.34</course>
  <speed>0.01</speed>
  <fix>3d</fix>
</trkpt>
<trkpt lat="40.072842" lon="-105.230575">
  <ele>1586.09</ele>
  <time>2026-08-27T18:31:00Z</time>
  <course>208.43</course>
  <speed>0.0</speed>
  <fix>3d</fix>
</trkpt>
<trkpt lat="40.072842" lon="-105.230575">
  <ele>1586.17</ele>
  <time>2026-08-27T18:31:00Z</time>
  <course>11.34</course>
  <speed>0.01</speed>
  <fix>3d</fix>
</trkpt>
<trkpt lat="40.072842" lon="-105.230575">
  <ele>1586.09</ele>
  <time>2026-08-27T18:31:00Z</time>
  <course>278.93</course>
  <speed>0.0</speed>
  <fix>3d</fix>
</trkpt>
<trkpt lat="40.072842" lon="-105.230575">
  <ele>1586.18</ele>
  <time>2026-08-27T18:31:00Z</time>
  <course>11.34</course>
  <speed>0.01</speed>
  <fix>3d</fix>
</trkpt>
<trkpt lat="40.072842" lon="-105.230575">
  <ele>1586.09</ele>
  <time>2026-08-27T18:31:00Z</time>
  <course>146.1</course>
  <speed>0.0</speed>
  <fix>3d</fix>
</trkpt>
<trkpt lat="40.072842" lon="-105.230575">
  <ele>1586.18</ele>
  <time>2026-08-27T18:31:00Z</time>
  <course>11.34</course>
  <speed>0.01</speed>
  <fix>3d</fix>
</trkpt>
<trkpt lat="40.072842" lon="-105.230575">
  <ele>1586.09</ele>
  <time>2026-08-27T18:31:00Z</time>
  <course>147.4</course>
  <speed>0.0</speed>
  <fix>3d</fix>
</trkpt>
<trkpt lat="40.072842" lon="-105.230575">
  <ele>1586.18</ele>
  <time>2026-08-27T18:31:00Z</time>
  <course>11.34</course>
  <speed>0.01414213562373095</speed>
  <fix>3d</fix>
</trkpt>
<trkpt lat="40.072842" lon="-105.230575">
  <ele>1586.09</ele>
  <time>2026-08-27T18:31:00Z</time>
  <course>149.96</course>
  <speed>0.0</speed>
  <fix>3d</fix>
</trkpt>
<trkpt lat="40.072842" lon="-105.230575">
  <ele>1586.18</ele>
  <time>2026-08-27T18:31:00Z</time>
  <course>11.34</course>
  <speed>0.01414213562373095</speed>
  <fix>3d</fix>
</trkpt>
<trkpt lat="40.072842" lon="-105.230575">
  <ele>1586.09</ele>
  <time>2026-08-27T18:31:00Z</time>
  <course>138.07</course>
  <speed>0.0</speed>
  <fix>3d</fix>
</trkpt>
<trkpt lat="40.072842" lon="-105.230575">
  <ele>1586.18</ele>
  <time>2026-08-27T18:31:00Z</time>
  <course>11.34</course>
  <speed>0.01414213562373095</speed>
  <fix>3d</fix>
</trkpt>
<trkpt lat="40.072842" lon="-105.230575">
  <ele>1586.09</ele>
  <time>2026-08-27T18:31:00Z</time>
  <course>136.2</course>
  <speed>0.0</speed>
  <fix>3d</fix>
</trkpt>
<trkpt lat="40.072842" lon="-105.230575">
  <ele>1586.18</ele>
  <time>2026-08-27T18:31:00Z</time>
  <course>11.35</course>
  <speed>0.01414213562373095</speed>
  <fix>3d</fix>
</trkpt>
<trkpt lat="40.072842" lon="-105.230575">
  <ele>1586.09</ele>
  <time>2026-08-27T18:31:00Z</time>
  <course>137.06</course>
  <speed>0.0</speed>
  <fix>3d</fix>
</trkpt>
<trkpt lat="40.072842" lon="-105.230575">
  <ele>1586.18</ele>
  <time>2026-08-27T18:31:00Z</time>
  <course>11.35</course>
  <speed>0.01414213562373095</speed>
  <fix>3d</fix>
</trkpt>
<trkpt lat="40.072842" lon="-105.230575">
  <ele>1586.09</ele>
  <time>2026-08-27T18:31:00Z</time>
  <course>298.67</course>
  <speed>0.0</speed>
  <fix>3d</fix>
</trkpt>
<trkpt lat="40.072842" lon="-105.230575">
  <ele>1586.18</ele>
  <time>2026-08-27T18:31:00Z</time>
  <course>11.35</course>
  <speed>0.01414213562373095</speed>
  <fix>3d</fix>
</trkpt>
<trkpt lat="40.072842" lon="-105.230575">
  <ele>1586.09</ele>
  <time>2026-08-27T18:31:00Z</time>
  <course>154.22</course>
  <speed>0.0</speed>
  <fix>3d</fix>
</trkpt>
<trkpt lat="40.0728419" lon="-105.230575">
  <ele>1586.18</ele>
  <time>2026-08-27T18:31:00Z</time>
  <course>11.35</course>
  <speed>0.01414213562373095</speed>
  <fix>3d</fix>
</trkpt>
<trkpt lat="40.072842" lon="-105.230575">
  <ele>1586.09</ele>
  <time>2026-08-27T18:31:00Z</time>
  <course>144.02</course>
  <speed>0.0</speed>
  <fix>3d</fix>
</trkpt>
<trkpt lat="40.0728419" lon="-105.230575">
  <ele>1586.18</ele>
  <time>2026-08-27T18:31:00Z</time>
  <course>11.35</course>
  <speed>0.01414213562373095</speed>
  <fix>3d</fix>
</trkpt>
<trkpt lat="40.072842" lon="-105.230575">
  <ele>1586.09</ele>
  <time>2026-08-27T18:31:00Z</time>
  <course>146.22</course>
  <speed>0.0</speed>
  <fix>3d</fix>
</trkpt>
<trkpt lat="40.0728419" lon="-105.2305749">
  <ele>1586.17</ele>
  <time>2026-08-27T18:31:00Z</time>
  <course>11.35</course>
  <speed>0.022360679774997897</speed>
  <fix>3d</fix>
</trkpt>
<trkpt lat="40.072842" lon="-105.230575">
  <ele>1586.09</ele>
  <time>2026-08-27T18:31:00Z</time>
  <course>146.94</course>
  <speed>0.0</speed>
  <fix>3d</fix>
</trkpt>
<trkpt lat="40.0728419" lon="-105.2305749">
  <ele>1586.17</ele>
  <time>2026-08-27T18:31:00Z</time>
  <course>11.36</course>
  <speed>0.022360679774997897</speed>
  <fix>3d</fix>
</trkpt>
<trkpt lat="40.072842" lon="-105.230575">
  <ele>1586.09</ele>
  <time>2026-08-27T18:31:00Z</time>
  <course>136.28</course>
  <speed>0.0</speed>
  <fix>3d</fix>
</trkpt>
<trkpt lat="40.0728419" lon="-105.2305749">
  <ele>1586.17</ele>
  <time>2026-08-27T18:31:00Z</time>
  <course>11.36</course>
  <speed>0.022360679774997897</speed>
  <fix>3d</fix>
</trkpt>
<trkpt lat="40.072842" lon="-105.230575">
  <ele>1586.09</ele>
  <time>2026-08-27T18:31:00Z</time>
  <course>136.26</course>
  <speed>0.0</speed>
  <fix>3d</fix>
</trkpt>
<trkpt lat="40.0728419" lon="-105.2305749">
  <ele>1586.17</ele>
  <time>2026-08-27T18:31:00Z</time>
  <course>11.36</course>
  <speed>0.022360679774997897</speed>
  <fix>3d</fix>
</trkpt>
<trkpt lat="40.072842" lon="-105.230575">
  <ele>1586.09</ele>
  <time>2026-08-27T18:31:00Z</time>
  <course>184.04</course>
  <speed>0.0</speed>
  <fix>3d</fix>
</trkpt>
<trkpt lat="40.0728419" lon="-105.2305749">
  <ele>1586.17</ele>
  <time>2026-08-27T18:31:00Z</time>
  <course>11.36</course>
  <speed>0.022360679774997897</speed>
  <fix>3d</fix>
</trkpt>
<trkpt lat="40.072842" lon="-105.230575">
  <ele>1586.09</ele>
  <time>2026-08-27T18:31:00Z</time>
  <course>174.98</course>
  <speed>0.0</speed>
  <fix>3d</fix>
</trkpt>
<trkpt lat="40.0728419" lon="-105.2305749">
  <ele>1586.17</ele>
  <time>2026-08-27T18:31:00Z</time>
  <course>11.36</course>
  <speed>0.022360679774997897</speed>
  <fix>3d</fix>
</trkpt>
<trkpt lat="40.072842" lon="-105.230575">
  <ele>1586.09</ele>
  <time>2026-08-27T18:31:00Z</time>
  <course>143.01</course>
  <speed>0.0</speed>
  <fix>3d</fix>
</trkpt>
<trkpt lat="40.0728419" lon="-105.2305749">
  <ele>1586.18</ele>
  <time>2026-08-27T18:31:00Z</time>
  <course>11.37</course>
  <speed>0.022360679774997897</speed>
  <fix>3d</fix>
</trkpt>
<trkpt lat="40.072842" lon="-105.230575">
  <ele>1586.09</ele>
  <time>2026-08-27T18:31:00Z</time>
  <course>143.95</course>
  <speed>0.0</speed>
  <fix>3d</fix>
</trkpt>
<trkpt lat="40.0728419" lon="-105.2305749">
  <ele>1586.18</ele>
  <time>2026-08-27T18:31:00Z</time>
  <course>11.37</course>
  <speed>0.022360679774997897</speed>
  <fix>3d</fix>
</trkpt>
<trkpt lat="40.072842" lon="-105.230575">
  <ele>1586.09</ele>
  <time>2026-08-27T18:31:00Z</time>
  <course>145.04</course>
  <speed>0.0</speed>
  <fix>3d</fix>
</trkpt>
<trkpt lat="40.0728419" lon="-105.2305749">
  <ele>1586.18</ele>
  <time>2026-08-27T18:31:00Z</time>
  <course>11.37</course>
  <speed>0.022360679774997897</speed>
  <fix>3d</fix>
</trkpt>
<trkpt lat="40.072842" lon="-105.230575">
  <ele>1586.09</ele>
  <time>2026-08-27T18:31:00Z</time>
  <course>144.73</course>
  <speed>0.0</speed>
  <fix>3d</fix>
</trkpt>
<trkpt lat="40.0728419" lon="-105.2305749">
  <ele>1586.18</ele>
  <time>2026-08-27T18:31:00Z</time>
  <course>11.37</course>
  <speed>0.022360679774997897</speed>
  <fix>3d</fix>
</trkpt>
<trkpt lat="40.072842" lon="-105.230575">
  <ele>1586.09</ele>
  <time>2026-08-27T18:31:00Z</time>
  <course>136.2</course>
  <speed>0.0</speed>
  <fix>3d</fix>
</trkpt>
<trkpt lat="40.0728419" lon="-105.2305749">
  <ele>1586.18</ele>
  <time>2026-08-27T18:31:00Z</time>
  <course>11.37</course>
  <speed>0.022360679774997897</speed>
  <fix>3d</fix>
</trkpt>
<trkpt lat="40.072842" lon="-105.230575">
  <ele>1586.09</ele>
  <time>2026-08-27T18:31:00Z</time>
  <course>136.08</course>
  <speed>0.0</speed>
  <fix>3d</fix>
</trkpt>
<trkpt lat="40.0728419" lon="-105.2305749">
  <ele>1586.18</ele>
  <time>2026-08-27T18:31:00Z</time>
  <course>11.38</course>
  <speed>0.022360679774997897</speed>
  <fix>3d</fix>
</trkpt>
<trkpt lat="40.072842" lon="-105.230575">
  <ele>1586.09</ele>
  <time>2026-08-27T18:31:00Z</time>
  <course>144.43</course>
  <speed>0.0</speed>
  <fix>3d</fix>
</trkpt>
<trkpt lat="40.0728419" lon="-105.2305749">
  <ele>1586.18</ele>
  <time>2026-08-27T18:31:00Z</time>
  <course>11.38</course>
  <speed>0.022360679774997897</speed>
  <fix>3d</fix>
</trkpt>
<trkpt lat="40.072842" lon="-105.230575">
  <ele>1586.09</ele>
  <time>2026-08-27T18:31:00Z</time>
  <course>194.67</course>
  <speed>0.0</speed>
  <fix>3d</fix>
</trkpt>
<trkpt lat="40.0728419" lon="-105.2305749">
  <ele>1586.18</ele>
  <time>2026-08-27T18:31:00Z</time>
  <course>11.38</course>
  <speed>0.022360679774997897</speed>
  <fix>3d</fix>
</trkpt>
<trkpt lat="40.072842" lon="-105.230575">
  <ele>1586.09</ele>
  <time>2026-08-27T18:31:00Z</time>
  <course>142.47</course>
  <speed>0.0</speed>
  <fix>3d</fix>
</trkpt>
<trkpt lat="40.0728419" lon="-105.2305749">
  <ele>1586.18</ele>
  <time>2026-08-27T18:31:00Z</time>
  <course>11.38</course>
  <speed>0.022360679774997897</speed>
  <fix>3d</fix>
</trkpt>
<trkpt lat="40.072842" lon="-105.230575">
  <ele>1586.09</ele>
  <time>2026-08-27T18:31:00Z</time>
  <course>142.58</course>
  <speed>0.0</speed>
  <fix>3d</fix>
</trkpt>
<trkpt lat="40.0728419" lon="-105.2305749">
  <ele>1586.18</ele>
  <time>2026-08-27T18:31:00Z</time>
  <course>11.38</course>
  <speed>0.022360679774997897</speed>
  <fix>3d</fix>
</trkpt>
<trkpt lat="40.072842" lon="-105.230575">
  <ele>1586.09</ele>
  <time>2026-08-27T18:31:00Z</time>
  <course>143.64</course>
  <speed>0.0</speed>
  <fix>3d</fix>
</trkpt>
<trkpt lat="40.0728419" lon="-105.2305749">
  <ele>1586.18</ele>
  <time>2026-08-27T18:31:00Z</time>
  <course>11.38</course>
  <speed>0.022360679774997897</speed>
  <fix>3d</fix>
</trkpt>
<trkpt lat="40.072842" lon="-105.230575">
  <ele>1586.09</ele>
  <time>2026-08-27T18:31:00Z</time>
  <course>143.48</course>
  <speed>0.0</speed>
  <fix>3d</fix>
</trkpt>
<trkpt lat="40.0728419" lon="-105.2305749">
  <ele>1586.18</ele>
  <time>2026-08-27T18:31:00Z</time>
  <course>11.39</course>
  <speed>0.022360679774997897</speed>
  <fix>3d</fix>
</trkpt>
<trkpt lat="40.072842" lon="-105.230575">
  <ele>1586.09</ele>
  <time>2026-08-27T18:31:00Z</time>
  <course>143.35</course>
  <speed>0.0</speed>
  <fix>3d</fix>
</trkpt>
<trkpt lat="40.0728419" lon="-105.2305749">
  <ele>1586.18</ele>
  <time>2026-08-27T18:31:00Z</time>
  <course>11.39</course>
  <speed>0.022360679774997897</speed>
  <fix>3d</fix>
</trkpt>
<trkpt lat="40.072842" lon="-105.230575">
  <ele>1586.09</ele>
  <time>2026-08-27T18:31:00Z</time>
  <course>139.71</course>
  <speed>0.0</speed>
  <fix>3d</fix>
</trkpt>
<trkpt lat="40.0728419" lon="-105.2305749">
  <ele>1586.18</ele>
  <time>2026-08-27T18:31:00Z</time>
  <course>11.39</course>
  <speed>0.022360679774997897</speed>
  <fix>3d</fix>
</trkpt>
<trkpt lat="40.072842" lon="-105.230575">
  <ele>1586.09</ele>
  <time>2026-08-27T18:31:00Z</time>
  <course>136.36</course>
  <speed>0.0</speed>
  <fix>3d</fix>
</trkpt>
<trkpt lat="40.0728419" lon="-105.2305749">
  <ele>1586.18</ele>
  <time>2026-08-27T18:31:00Z</time>
  <course>11.39</course>
  <speed>0.022360679774997897</speed>
  <fix>3d</fix>
</trkpt>
<trkpt lat="40.072842" lon="-105.230575">
  <ele>1586.09</ele>
  <time>2026-08-27T18:31:00Z</time>
  <course>136.71</course>
  <speed>0.0</speed>
  <fix>3d</fix>
</trkpt>
<trkpt lat="40.0728419" lon="-105.2305749">
  <ele>1586.18</ele>
  <time>2026-08-27T18:31:00Z</time>
  <course>11.39</course>
  <speed>0.022360679774997897</speed>
  <fix>3d</fix>
</trkpt>
<trkpt lat="40.072842" lon="-105.230575">
  <ele>1586.09</ele>
  <time>2026-08-27T18:31:00Z</time>
  <course>224.5</course>
  <speed>0.0</speed>
  <fix>3d</fix>
</trkpt>
<trkpt lat="40.0728419" lon="-105.2305749">
  <ele>1586.18</ele>
  <time>2026-08-27T18:31:00Z</time>
  <course>11.39</course>
  <speed>0.022360679774997897</speed>
  <fix>3d</fix>
</trkpt>
<trkpt lat="40.072842" lon="-105.230575">
  <ele>1586.09</ele>
  <time>2026-08-27T18:31:00Z</time>
  <course>146.16</course>
  <speed>0.0</speed>
  <fix>3d</fix>
</trkpt>
<trkpt lat="40.0728419" lon="-105.2305749">
  <ele>1586.18</ele>
  <time>2026-08-27T18:31:00Z</time>
  <course>11.39</course>
  <speed>0.022360679774997897</speed>
  <fix>3d</fix>
</trkpt>
<trkpt lat="40.072842" lon="-105.230575">
  <ele>1586.09</ele>
  <time>2026-08-27T18:31:00Z</time>
  <course>141.34</course>
  <speed>0.0</speed>
  <fix>3d</fix>
</trkpt>
<trkpt lat="40.0728419" lon="-105.2305749">
  <ele>1586.18</ele>
  <time>2026-08-27T18:31:00Z</time>
  <course>11.4</course>
  <speed>0.022360679774997897</speed>
  <fix>3d</fix>
</trkpt>
<trkpt lat="40.072842" lon="-105.230575">
  <ele>1586.09</ele>
  <time>2026-08-27T18:31:00Z</time>
  <course>142.25</course>
  <speed>0.0</speed>
  <fix>3d</fix>
</trkpt>
<trkpt lat="40.0728419" lon="-105.2305749">
  <ele>1586.18</ele>
  <time>2026-08-27T18:31:01Z</time>
  <course>11.4</course>
  <speed>0.022360679774997897</speed>
  <fix>3d</fix>
</trkpt>
<trkpt lat="40.072842" lon="-105.230575">
  <ele>1586.09</ele>
  <time>2026-08-27T18:31:01Z</time>
  <course>196.25</course>
  <speed>0.0</speed>
  <fix>3d</fix>
</trkpt>
<trkpt lat="40.0728419" lon="-105.2305749">
  <ele>1586.18</ele>
  <time>2026-08-27T18:31:01Z</time>
  <course>11.4</course>
  <speed>0.022360679774997897</speed>
  <fix>3d</fix>
</trkpt>
<trkpt lat="40.072842" lon="-105.230575">
  <ele>1586.09</ele>
  <time>2026-08-27T18:31:01Z</time>
  <course>214.98</course>
  <speed>0.0</speed>
  <fix>3d</fix>
</trkpt>
<trkpt lat="40.0728419" lon="-105.2305749">
  <ele>1586.18</ele>
  <time>2026-08-27T18:31:01Z</time>
  <course>11.4</course>
  <speed>0.022360679774997897</speed>
  <fix>3d</fix>
</trkpt>
<trkpt lat="40.072842" lon="-105.230575">
  <ele>1586.09</ele>
  <time>2026-08-27T18:31:01Z</time>
  <course>209.02</course>
  <speed>0.0</speed>
  <fix>3d</fix>
</trkpt>
<trkpt lat="40.0728419" lon="-105.2305749">
  <ele>1586.17</ele>
  <time>2026-08-27T18:31:01Z</time>
  <course>11.4</course>
  <speed>0.022360679774997897</speed>
  <fix>3d</fix>
</trkpt>
<trkpt lat="40.072842" lon="-105.230575">
  <ele>1586.09</ele>
  <time>2026-08-27T18:31:01Z</time>
  <course>101.35</course>
  <speed>0.0</speed>
  <fix>3d</fix>
</trkpt>
<trkpt lat="40.0728419" lon="-105.2305749">
  <ele>1586.17</ele>
  <time>2026-08-27T18:31:01Z</time>
  <course>11.4</course>
  <speed>0.022360679774997897</speed>
  <fix>3d</fix>
</trkpt>
<trkpt lat="40.072842" lon="-105.230575">
  <ele>1586.09</ele>
  <time>2026-08-27T18:31:01Z</time>
  <course>131.39</course>
  <speed>0.0</speed>
  <fix>3d</fix>
</trkpt>
<trkpt lat="40.0728419" lon="-105.2305749">
  <ele>1586.17</ele>
  <time>2026-08-27T18:31:01Z</time>
  <course>11.4</course>
  <speed>0.022360679774997897</speed>
  <fix>3d</fix>
</trkpt>
<trkpt lat="40.072842" lon="-105.230575">
  <ele>1586.09</ele>
  <time>2026-08-27T18:31:01Z</time>
  <course>157.69</course>
  <speed>0.0</speed>
  <fix>3d</fix>
</trkpt>
<trkpt lat="40.0728419" lon="-105.2305749">
  <ele>1586.17</ele>
  <time>2026-08-27T18:31:01Z</time>
  <course>11.4</course>
  <speed>0.022360679774997897</speed>
  <fix>3d</fix>
</trkpt>
<trkpt lat="40.072842" lon="-105.230575">
  <ele>1586.09</ele>
  <time>2026-08-27T18:31:01Z</time>
  <course>138.3</course>
  <speed>0.0</speed>
  <fix>3d</fix>
</trkpt>
<trkpt lat="40.0728419" lon="-105.2305749">
  <ele>1586.17</ele>
  <time>2026-08-27T18:31:01Z</time>
  <course>11.4</course>
  <speed>0.022360679774997897</speed>
  <fix>3d</fix>
</trkpt>
<trkpt lat="40.072842" lon="-105.230575">
  <ele>1586.09</ele>
  <time>2026-08-27T18:31:01Z</time>
  <course>136.79</course>
  <speed>0.0</speed>
  <fix>3d</fix>
</trkpt>
<trkpt lat="40.0728419" lon="-105.2305749">
  <ele>1586.17</ele>
  <time>2026-08-27T18:31:01Z</time>
  <course>11.4</course>
  <speed>0.022360679774997897</speed>
  <fix>3d</fix>
</trkpt>
<trkpt lat="40.072842" lon="-105.230575">
  <ele>1586.09</ele>
  <time>2026-08-27T18:31:01Z</time>
  <course>140.1</course>
  <speed>0.0</speed>
  <fix>3d</fix>
</trkpt>
<trkpt lat="40.0728419" lon="-105.2305749">
  <ele>1586.18</ele>
  <time>2026-08-27T18:31:01Z</time>
  <course>11.4</course>
  <speed>0.022360679774997897</speed>
  <fix>3d</fix>
</trkpt>
<trkpt lat="40.072842" lon="-105.230575">
  <ele>1586.09</ele>
  <time>2026-08-27T18:31:01Z</time>
  <course>213.59</course>
  <speed>0.0</speed>
  <fix>3d</fix>
</trkpt>
<trkpt lat="40.0728419" lon="-105.2305749">
  <ele>1586.18</ele>
  <time>2026-08-27T18:31:01Z</time>
  <course>11.4</course>
  <speed>0.022360679774997897</speed>
  <fix>3d</fix>
</trkpt>
<trkpt lat="40.072842" lon="-105.230575">
  <ele>1586.09</ele>
  <time>2026-08-27T18:31:01Z</time>
  <course>149.2</course>
  <speed>0.0</speed>
  <fix>3d</fix>
</trkpt>
<trkpt lat="40.0728419" lon="-105.2305749">
  <ele>1586.18</ele>
  <time>2026-08-27T18:31:01Z</time>
  <course>11.4</course>
  <speed>0.022360679774997897</speed>
  <fix>3d</fix>
</trkpt>
<trkpt lat="40.072842" lon="-105.230575">
  <ele>1586.09</ele>
  <time>2026-08-27T18:31:01Z</time>
  <course>146.34</course>
  <speed>0.0</speed>
  <fix>3d</fix>
</trkpt>
<trkpt lat="40.0728419" lon="-105.2305749">
  <ele>1586.18</ele>
  <time>2026-08-27T18:31:01Z</time>
  <course>11.4</course>
  <speed>0.022360679774997897</speed>
  <fix>3d</fix>
</trkpt>
<trkpt lat="40.072842" lon="-105.230575">
  <ele>1586.09</ele>
  <time>2026-08-27T18:31:01Z</time>
  <course>147.94</course>
  <speed>0.0</speed>
  <fix>3d</fix>
</trkpt>
<trkpt lat="40.0728419" lon="-105.2305749">
  <ele>1586.18</ele>
  <time>2026-08-27T18:31:01Z</time>
  <course>11.41</course>
  <speed>0.022360679774997897</speed>
  <fix>3d</fix>
</trkpt>
<trkpt lat="40.072842" lon="-105.230575">
  <ele>1586.09</ele>
  <time>2026-08-27T18:31:01Z</time>
  <course>148.12</course>
  <speed>0.0</speed>
  <fix>3d</fix>
</trkpt>
<trkpt lat="40.0728419" lon="-105.2305749">
  <ele>1586.18</ele>
  <time>2026-08-27T18:31:01Z</time>
  <course>11.41</course>
  <speed>0.022360679774997897</speed>
  <fix>3d</fix>
</trkpt>
<trkpt lat="40.072842" lon="-105.230575">
  <ele>1586.09</ele>
  <time>2026-08-27T18:31:01Z</time>
  <course>147.86</course>
  <speed>0.0</speed>
  <fix>3d</fix>
</trkpt>
<trkpt lat="40.0728419" lon="-105.2305749">
  <ele>1586.19</ele>
  <time>2026-08-27T18:31:01Z</time>
  <course>11.41</course>
  <speed>0.022360679774997897</speed>
  <fix>3d</fix>
</trkpt>
<trkpt lat="40.072842" lon="-105.230575">
  <ele>1586.09</ele>
  <time>2026-08-27T18:31:01Z</time>
  <course>147.87</course>
  <speed>0.0</speed>
  <fix>3d</fix>
</trkpt>
<trkpt lat="40.0728419" lon="-105.2305749">
  <ele>1586.19</ele>
  <time>2026-08-27T18:31:01Z</time>
  <course>11.41</course>
  <speed>0.022360679774997897</speed>
  <fix>3d</fix>
</trkpt>
<trkpt lat="40.072842" lon="-105.230575">
  <ele>1586.09</ele>
  <time>2026-08-27T18:31:01Z</time>
  <course>147.9</course>
  <speed>0.0</speed>
  <fix>3d</fix>
</trkpt>
<trkpt lat="40.0728419" lon="-105.2305749">
  <ele>1586.19</ele>
  <time>2026-08-27T18:31:01Z</time>
  <course>11.41</course>
  <speed>0.022360679774997897</speed>
  <fix>3d</fix>
</trkpt>
<trkpt lat="40.072842" lon="-105.230575">
  <ele>1586.09</ele>
  <time>2026-08-27T18:31:01Z</time>
  <course>147.9</course>
  <speed>0.0</speed>
  <fix>3d</fix>
</trkpt>
<trkpt lat="40.0728419" lon="-105.2305749">
  <ele>1586.19</ele>
  <time>2026-08-27T18:31:01Z</time>
  <course>11.41</course>
  <speed>0.022360679774997897</speed>
  <fix>3d</fix>
</trkpt>
<trkpt lat="40.072842" lon="-105.230575">
  <ele>1586.09</ele>
  <time>2026-08-27T18:31:01Z</time>
  <course>147.9</course>
  <speed>0.0</speed>
  <fix>3d</fix>
</trkpt>
<trkpt lat="40.0728419" lon="-105.2305749">
  <ele>1586.19</ele>
  <time>2026-08-27T18:31:01Z</time>
  <course>11.41</course>
  <speed>0.022360679774997897</speed>
  <fix>3d</fix>
</trkpt>
<trkpt lat="40.072842" lon="-105.230575">
  <ele>1586.09</ele>
  <time>2026-08-27T18:31:01Z</time>
  <course>147.9</course>
  <speed>0.0</speed>
  <fix>3d</fix>
</trkpt>
<trkpt lat="40.0728419" lon="-105.2305749">
  <ele>1586.19</ele>
  <time>2026-08-27T18:31:01Z</time>
  <course>11.41</course>
  <speed>0.022360679774997897</speed>
  <fix>3d</fix>
</trkpt>
<trkpt lat="40.072842" lon="-105.230575">
  <ele>1586.09</ele>
  <time>2026-08-27T18:31:01Z</time>
  <course>137.44</course>
  <speed>0.0</speed>
  <fix>3d</fix>
</trkpt>
<trkpt lat="40.0728419" lon="-105.2305749">
  <ele>1586.18</ele>
  <time>2026-08-27T18:31:01Z</time>
  <course>11.41</course>
  <speed>0.022360679774997897</speed>
  <fix>3d</fix>
</trkpt>
<trkpt lat="40.072842" lon="-105.230575">
  <ele>1586.09</ele>
  <time>2026-08-27T18:31:01Z</time>
  <course>136.94</course>
  <speed>0.0</speed>
  <fix>3d</fix>
</trkpt>
<trkpt lat="40.0728419" lon="-105.2305749">
  <ele>1586.18</ele>
  <time>2026-08-27T18:31:01Z</time>
  <course>11.41</course>
  <speed>0.022360679774997897</speed>
  <fix>3d</fix>
</trkpt>
<trkpt lat="40.072842" lon="-105.230575">
  <ele>1586.09</ele>
  <time>2026-08-27T18:31:01Z</time>
  <course>142.44</course>
  <speed>0.0</speed>
  <fix>3d</fix>
</trkpt>
<trkpt lat="40.0728419" lon="-105.2305749">
  <ele>1586.18</ele>
  <time>2026-08-27T18:31:01Z</time>
  <course>11.41</course>
  <speed>0.022360679774997897</speed>
  <fix>3d</fix>
</trkpt>
<trkpt lat="40.072842" lon="-105.230575">
  <ele>1586.09</ele>
  <time>2026-08-27T18:31:01Z</time>
  <course>178.55</course>
  <speed>0.0</speed>
  <fix>3d</fix>
</trkpt>
<trkpt lat="40.0728419" lon="-105.2305749">
  <ele>1586.18</ele>
  <time>2026-08-27T18:31:01Z</time>
  <course>11.41</course>
  <speed>0.022360679774997897</speed>
  <fix>3d</fix>
</trkpt>
<trkpt lat="40.072842" lon="-105.230575">
  <ele>1586.09</ele>
  <time>2026-08-27T18:31:01Z</time>
  <course>146.58</course>
  <speed>0.0</speed>
  <fix>3d</fix>
</trkpt>
<trkpt lat="40.0728419" lon="-105.2305749">
  <ele>1586.18</ele>
  <time>2026-08-27T18:31:01Z</time>
  <course>11.41</course>
  <speed>0.022360679774997897</speed>
  <fix>3d</fix>
</trkpt>
<trkpt lat="40.072842" lon="-105.230575">
  <ele>1586.09</ele>
  <time>2026-08-27T18:31:01Z</time>
  <course>145.66</course>
  <speed>0.0</speed>
  <fix>3d</fix>
</trkpt>
<trkpt lat="40.0728419" lon="-105.2305749">
  <ele>1586.18</ele>
  <time>2026-08-27T18:31:01Z</time>
  <course>11.41</course>
  <speed>0.01414213562373095</speed>
  <fix>3d</fix>
</trkpt>
<trkpt lat="40.072842" lon="-105.230575">
  <ele>1586.09</ele>
  <time>2026-08-27T18:31:01Z</time>
  <course>146.9</course>
  <speed>0.0</speed>
  <fix>3d</fix>
</trkpt>
<trkpt lat="40.0728419" lon="-105.2305749">
  <ele>1586.18</ele>
  <time>2026-08-27T18:31:01Z</time>
  <course>11.41</course>
  <speed>0.01414213562373095</speed>
  <fix>3d</fix>
</trkpt>
<trkpt lat="40.072842" lon="-105.230575">
  <ele>1586.09</ele>
  <time>2026-08-27T18:31:01Z</time>
  <course>146.88</course>
  <speed>0.0</speed>
  <fix>3d</fix>
</trkpt>
<trkpt lat="40.0728419" lon="-105.2305749">
  <ele>1586.18</ele>
  <time>2026-08-27T18:31:01Z</time>
  <course>11.41</course>
  <speed>0.01414213562373095</speed>
  <fix>3d</fix>
</trkpt>
<trkpt lat="40.072842" lon="-105.230575">
  <ele>1586.09</ele>
  <time>2026-08-27T18:31:01Z</time>
  <course>146.7</course>
  <speed>0.0</speed>
  <fix>3d</fix>
</trkpt>
<trkpt lat="40.0728419" lon="-105.2305749">
  <ele>1586.18</ele>
  <time>2026-08-27T18:31:01Z</time>
  <course>11.42</course>
  <speed>0.01414213562373095</speed>
  <fix>3d</fix>
</trkpt>
<trkpt lat="40.072842" lon="-105.230575">
  <ele>1586.09</ele>
  <time>2026-08-27T18:31:01Z</time>
  <course>146.73</course>
  <speed>0.0</speed>
  <fix>3d</fix>
</trkpt>
<trkpt lat="40.0728419" lon="-105.2305749">
  <ele>1586.19</ele>
  <time>2026-08-27T18:31:01Z</time>
  <course>11.42</course>
  <speed>0.01414213562373095</speed>
  <fix>3d</fix>
</trkpt>
<trkpt lat="40.072842" lon="-105.230575">
  <ele>1586.09</ele>
  <time>2026-08-27T18:31:01Z</time>
  <course>146.75</course>
  <speed>0.0</speed>
  <fix>3d</fix>
</trkpt>
<trkpt lat="40.0728419" lon="-105.2305749">
  <ele>1586.19</ele>
  <time>2026-08-27T18:31:01Z</time>
  <course>11.42</course>
  <speed>0.01414213562373095</speed>
  <fix>3d</fix>
</trkpt>
<trkpt lat="40.072842" lon="-105.230575">
  <ele>1586.09</ele>
  <time>2026-08-27T18:31:01Z</time>
  <course>146.75</course>
  <speed>0.0</speed>
  <fix>3d</fix>
</trkpt>
<trkpt lat="40.0728419" lon="-105.2305749">
  <ele>1586.19</ele>
  <time>2026-08-27T18:31:01Z</time>
  <course>11.42</course>
  <speed>0.01414213562373095</speed>
  <fix>3d</fix>
</trkpt>
<trkpt lat="40.072842" lon="-105.230575">
  <ele>1586.09</ele>
  <time>2026-08-27T18:31:01Z</time>
  <course>146.75</course>
  <speed>0.0</speed>
  <fix>3d</fix>
</trkpt>
<trkpt lat="40.0728419" lon="-105.2305749">
  <ele>1586.19</ele>
  <time>2026-08-27T18:31:01Z</time>
  <course>11.42</course>
  <speed>0.01414213562373095</speed>
  <fix>3d</fix>
</trkpt>
<trkpt lat="40.072842" lon="-105.230575">
  <ele>1586.09</ele>
  <time>2026-08-27T18:31:01Z</time>
  <course>146.76</course>
  <speed>0.0</speed>
  <fix>3d</fix>
</trkpt>
<trkpt lat="40.0728419" lon="-105.2305749">
  <ele>1586.19</ele>
  <time>2026-08-27T18:31:01Z</time>
  <course>11.42</course>
  <speed>0.01414213562373095</speed>
  <fix>3d</fix>
</trkpt>
<trkpt lat="40.072842" lon="-105.230575">
  <ele>1586.09</ele>
  <time>2026-08-27T18:31:01Z</time>
  <course>146.76</course>
  <speed>0.0</speed>
  <fix>3d</fix>
</trkpt>
<trkpt lat="40.0728419" lon="-105.2305749">
  <ele>1586.19</ele>
  <time>2026-08-27T18:31:01Z</time>
  <course>11.42</course>
  <speed>0.01414213562373095</speed>
  <fix>3d</fix>
</trkpt>
<trkpt lat="40.072842" lon="-105.230575">
  <ele>1586.09</ele>
  <time>2026-08-27T18:31:01Z</time>
  <course>146.76</course>
  <speed>0.0</speed>
  <fix>3d</fix>
</trkpt>
<trkpt lat="40.0728419" lon="-105.2305749">
  <ele>1586.19</ele>
  <time>2026-08-27T18:31:01Z</time>
  <course>11.42</course>
  <speed>0.01414213562373095</speed>
  <fix>3d</fix>
</trkpt>
<trkpt lat="40.072842" lon="-105.230575">
  <ele>1586.09</ele>
  <time>2026-08-27T18:31:01Z</time>
  <course>145.41</course>
  <speed>0.0</speed>
  <fix>3d</fix>
</trkpt>
<trkpt lat="40.0728419" lon="-105.2305749">
  <ele>1586.19</ele>
  <time>2026-08-27T18:31:01Z</time>
  <course>11.42</course>
  <speed>0.01414213562373095</speed>
  <fix>3d</fix>
</trkpt>
<trkpt lat="40.072842" lon="-105.230575">
  <ele>1586.09</ele>
  <time>2026-08-27T18:31:01Z</time>
  <course>137.72</course>
  <speed>0.0</speed>
  <fix>3d</fix>
</trkpt>
<trkpt lat="40.0728419" lon="-105.2305749">
  <ele>1586.19</ele>
  <time>2026-08-27T18:31:01Z</time>
  <course>11.42</course>
  <speed>0.01414213562373095</speed>
  <fix>3d</fix>
</trkpt>
<trkpt lat="40.072842" lon="-105.230575">
  <ele>1586.09</ele>
  <time>2026-08-27T18:31:01Z</time>
  <course>138.0</course>
  <speed>0.0</speed>
  <fix>3d</fix>
</trkpt>
<trkpt lat="40.0728419" lon="-105.2305749">
  <ele>1586.19</ele>
  <time>2026-08-27T18:31:01Z</time>
  <course>11.42</course>
  <speed>0.01414213562373095</speed>
  <fix>3d</fix>
</trkpt>
<trkpt lat="40.072842" lon="-105.230575">
  <ele>1586.09</ele>
  <time>2026-08-27T18:31:01Z</time>
  <course>165.71</course>
  <speed>0.0</speed>
  <fix>3d</fix>
</trkpt>
<trkpt lat="40.0728419" lon="-105.2305749">
  <ele>1586.19</ele>
  <time>2026-08-27T18:31:01Z</time>
  <course>11.42</course>
  <speed>0.01414213562373095</speed>
  <fix>3d</fix>
</trkpt>
<trkpt lat="40.072842" lon="-105.230575">
  <ele>1586.09</ele>
  <time>2026-08-27T18:31:01Z</time>
  <course>149.96</course>
  <speed>0.0</speed>
  <fix>3d</fix>
</trkpt>
<trkpt lat="40.0728419" lon="-105.2305749">
  <ele>1586.18</ele>
  <time>2026-08-27T18:31:01Z</time>
  <course>11.42</course>
  <speed>0.01414213562373095</speed>
  <fix>3d</fix>
</trkpt>
<trkpt lat="40.072842" lon="-105.230575">
  <ele>1586.09</ele>
  <time>2026-08-27T18:31:01Z</time>
  <course>144.64</course>
  <speed>0.0</speed>
  <fix>3d</fix>
</trkpt>
<trkpt lat="40.0728419" lon="-105.2305749">
  <ele>1586.18</ele>
  <time>2026-08-27T18:31:01Z</time>
  <course>11.42</course>
  <speed>0.01414213562373095</speed>
  <fix>3d</fix>
</trkpt>
<trkpt lat="40.072842" lon="-105.230575">
  <ele>1586.09</ele>
  <time>2026-08-27T18:31:01Z</time>
  <course>145.57</course>
  <speed>0.0</speed>
  <fix>3d</fix>
</trkpt>
<trkpt lat="40.0728419" lon="-105.2305749">
  <ele>1586.18</ele>
  <time>2026-08-27T18:31:01Z</time>
  <course>11.43</course>
  <speed>0.01414213562373095</speed>
  <fix>3d</fix>
</trkpt>
<trkpt lat="40.072842" lon="-105.230575">
  <ele>1586.09</ele>
  <time>2026-08-27T18:31:01Z</time>
  <course>146.02</course>
  <speed>0.0</speed>
  <fix>3d</fix>
</trkpt>
<trkpt lat="40.0728419" lon="-105.2305749">
  <ele>1586.18</ele>
  <time>2026-08-27T18:31:01Z</time>
  <course>11.43</course>
  <speed>0.01414213562373095</speed>
  <fix>3d</fix>
</trkpt>
<trkpt lat="40.072842" lon="-105.230575">
  <ele>1586.09</ele>
  <time>2026-08-27T18:31:01Z</time>
  <course>145.82</course>
  <speed>0.0</speed>
  <fix>3d</fix>
</trkpt>
<trkpt lat="40.0728419" lon="-105.2305749">
  <ele>1586.18</ele>
  <time>2026-08-27T18:31:01Z</time>
  <course>11.43</course>
  <speed>0.01414213562373095</speed>
  <fix>3d</fix>
</trkpt>
<trkpt lat="40.072842" lon="-105.230575">
  <ele>1586.09</ele>
  <time>2026-08-27T18:31:01Z</time>
  <course>145.79</course>
  <speed>0.0</speed>
  <fix>3d</fix>
</trkpt>
<trkpt lat="40.0728419" lon="-105.2305749">
  <ele>1586.18</ele>
  <time>2026-08-27T18:31:01Z</time>
  <course>11.43</course>
  <speed>0.01414213562373095</speed>
  <fix>3d</fix>
</trkpt>
<trkpt lat="40.072842" lon="-105.230575">
  <ele>1586.09</ele>
  <time>2026-08-27T18:31:01Z</time>
  <course>145.83</course>
  <speed>0.0</speed>
  <fix>3d</fix>
</trkpt>
<trkpt lat="40.0728419" lon="-105.2305749">
  <ele>1586.18</ele>
  <time>2026-08-27T18:31:01Z</time>
  <course>11.43</course>
  <speed>0.01414213562373095</speed>
  <fix>3d</fix>
</trkpt>
<trkpt lat="40.072842" lon="-105.230575">
  <ele>1586.09</ele>
  <time>2026-08-27T18:31:01Z</time>
  <course>145.83</course>
  <speed>0.0</speed>
  <fix>3d</fix>
</trkpt>
<trkpt lat="40.0728419" lon="-105.2305749">
  <ele>1586.18</ele>
  <time>2026-08-27T18:31:01Z</time>
  <course>11.43</course>
  <speed>0.01414213562373095</speed>
  <fix>3d</fix>
</trkpt>
<trkpt lat="40.072842" lon="-105.230575">
  <ele>1586.09</ele>
  <time>2026-08-27T18:31:01Z</time>
  <course>145.83</course>
  <speed>0.0</speed>
  <fix>3d</fix>
</trkpt>
<trkpt lat="40.0728419" lon="-105.2305749">
  <ele>1586.17</ele>
  <time>2026-08-27T18:31:01Z</time>
  <course>11.43</course>
  <speed>0.01414213562373095</speed>
  <fix>3d</fix>
</trkpt>
<trkpt lat="40.072842" lon="-105.230575">
  <ele>1586.09</ele>
  <time>2026-08-27T18:31:01Z</time>
  <course>145.83</course>
  <speed>0.0</speed>
  <fix>3d</fix>
</trkpt>
<trkpt lat="40.0728419" lon="-105.2305749">
  <ele>1586.17</ele>
  <time>2026-08-27T18:31:01Z</time>
  <course>11.43</course>
  <speed>0.01414213562373095</speed>
  <fix>3d</fix>
</trkpt>
<trkpt lat="40.072842" lon="-105.230575">
  <ele>1586.09</ele>
  <time>2026-08-27T18:31:01Z</time>
  <course>145.84</course>
  <speed>0.0</speed>
  <fix>3d</fix>
</trkpt>
<trkpt lat="40.0728419" lon="-105.2305749">
  <ele>1586.18</ele>
  <time>2026-08-27T18:31:01Z</time>
  <course>11.43</course>
  <speed>0.01414213562373095</speed>
  <fix>3d</fix>
</trkpt>
<trkpt lat="40.072842" lon="-105.230575">
  <ele>1586.09</ele>
  <time>2026-08-27T18:31:01Z</time>
  <course>325.55</course>
  <speed>0.0</speed>
  <fix>3d</fix>
</trkpt>
<trkpt lat="40.0728419" lon="-105.2305749">
  <ele>1586.2</ele>
  <time>2026-08-27T18:31:01Z</time>
  <course>11.43</course>
  <speed>0.01414213562373095</speed>
  <fix>3d</fix>
</trkpt>
<trkpt lat="40.072842" lon="-105.230575">
  <ele>1586.11</ele>
  <time>2026-08-27T18:31:01Z</time>
  <course>325.51</course>
  <speed>0.0</speed>
  <fix>3d</fix>
</trkpt>
<trkpt lat="40.0728419" lon="-105.2305749">
  <ele>1586.22</ele>
  <time>2026-08-27T18:31:01Z</time>
  <course>11.43</course>
  <speed>0.01414213562373095</speed>
  <fix>3d</fix>
</trkpt>
<trkpt lat="40.072842" lon="-105.230575">
  <ele>1586.13</ele>
  <time>2026-08-27T18:31:01Z</time>
  <course>323.84</course>
  <speed>0.0</speed>
  <fix>3d</fix>
</trkpt>
<trkpt lat="40.0728419" lon="-105.2305749">
  <ele>1586.24</ele>
  <time>2026-08-27T18:31:01Z</time>
  <course>11.43</course>
  <speed>0.01414213562373095</speed>
  <fix>3d</fix>
</trkpt>
<trkpt lat="40.072842" lon="-105.230575">
  <ele>1586.15</ele>
  <time>2026-08-27T18:31:01Z</time>
  <course>146.19</course>
  <speed>0.0</speed>
  <fix>3d</fix>
</trkpt>
<trkpt lat="40.0728419" lon="-105.2305749">
  <ele>1586.24</ele>
  <time>2026-08-27T18:31:01Z</time>
  <course>11.42</course>
  <speed>0.01414213562373095</speed>
  <fix>3d</fix>
</trkpt>
<trkpt lat="40.0728419" lon="-105.2305749">
  <ele>1586.25</ele>
  <time>2026-08-27T18:31:01Z</time>
  <course>11.42</course>
  <speed>0.01414213562373095</speed>
  <fix>3d</fix>
</trkpt>
<trkpt lat="40.072842" lon="-105.230575">
  <ele>1586.16</ele>
  <time>2026-08-27T18:31:01Z</time>
  <course>322.78</course>
  <speed>0.0</speed>
  <fix>3d</fix>
</trkpt>
<trkpt lat="40.0728419" lon="-105.2305749">
  <ele>1586.25</ele>
  <time>2026-08-27T18:31:01Z</time>
  <course>11.42</course>
  <speed>0.01414213562373095</speed>
  <fix>3d</fix>
</trkpt>
<trkpt lat="40.0728419" lon="-105.2305749">
  <ele>1586.27</ele>
  <time>2026-08-27T18:31:01Z</time>
  <course>11.42</course>
  <speed>0.01414213562373095</speed>
  <fix>3d</fix>
</trkpt>
<trkpt lat="40.072842" lon="-105.230575">
  <ele>1586.17</ele>
  <time>2026-08-27T18:31:01Z</time>
  <course>323.43</course>
  <speed>0.0</speed>
  <fix>3d</fix>
</trkpt>
<trkpt lat="40.0728419" lon="-105.2305749">
  <ele>1586.27</ele>
  <time>2026-08-27T18:31:01Z</time>
  <course>11.42</course>
  <speed>0.01414213562373095</speed>
  <fix>3d</fix>
</trkpt>
<trkpt lat="40.0728419" lon="-105.2305749">
  <ele>1586.28</ele>
  <time>2026-08-27T18:31:01Z</time>
  <course>11.42</course>
  <speed>0.01414213562373095</speed>
  <fix>3d</fix>
</trkpt>
<trkpt lat="40.072842" lon="-105.230575">
  <ele>1586.19</ele>
  <time>2026-08-27T18:31:01Z</time>
  <course>317.38</course>
  <speed>0.0</speed>
  <fix>3d</fix>
</trkpt>
<trkpt lat="40.0728419" lon="-105.2305749">
  <ele>1586.28</ele>
  <time>2026-08-27T18:31:01Z</time>
  <course>11.42</course>
  <speed>0.01414213562373095</speed>
  <fix>3d</fix>
</trkpt>
<trkpt lat="40.0728419" lon="-105.2305749">
  <ele>1586.29</ele>
  <time>2026-08-27T18:31:01Z</time>
  <course>11.41</course>
  <speed>0.01414213562373095</speed>
  <fix>3d</fix>
</trkpt>
<trkpt lat="40.072842" lon="-105.230575">
  <ele>1586.2</ele>
  <time>2026-08-27T18:31:01Z</time>
  <course>318.81</course>
  <speed>0.0</speed>
  <fix>3d</fix>
</trkpt>
<trkpt lat="40.0728419" lon="-105.2305749">
  <ele>1586.29</ele>
  <time>2026-08-27T18:31:01Z</time>
  <course>11.41</course>
  <speed>0.01414213562373095</speed>
  <fix>3d</fix>
</trkpt>
<trkpt lat="40.0728419" lon="-105.2305749">
  <ele>1586.34</ele>
  <time>2026-08-27T18:31:01Z</time>
  <course>11.42</course>
  <speed>0.0</speed>
  <fix>3d</fix>
</trkpt>
<trkpt lat="40.072842" lon="-105.230575">
  <ele>1586.22</ele>
  <time>2026-08-27T18:31:01Z</time>
  <course>313.45</course>
  <speed>0.0</speed>
  <fix>3d</fix>
</trkpt>
<trkpt lat="40.0728419" lon="-105.2305749">
  <ele>1586.36</ele>
  <time>2026-08-27T18:31:01Z</time>
  <course>11.42</course>
  <speed>0.01</speed>
  <fix>3d</fix>
</trkpt>
<trkpt lat="40.0728419" lon="-105.2305749">
  <ele>1586.6</ele>
  <time>2026-08-27T18:31:01Z</time>
  <course>11.35</course>
  <speed>0.0670820393249937</speed>
  <fix>3d</fix>
</trkpt>
<trkpt lat="40.072842" lon="-105.230575">
  <ele>1586.33</ele>
  <time>2026-08-27T18:31:01Z</time>
  <course>318.98</course>
  <speed>0.05</speed>
  <fix>3d</fix>
</trkpt>
<trkpt lat="40.072842" lon="-105.2305749">
  <ele>1586.64</ele>
  <time>2026-08-27T18:31:01Z</time>
  <course>11.34</course>
  <speed>0.08062257748298549</speed>
  <fix>3d</fix>
</trkpt>
<trkpt lat="40.0728421" lon="-105.2305751">
  <ele>1586.91</ele>
  <time>2026-08-27T18:31:01Z</time>
  <course>11.3</course>
  <speed>0.11661903789690602</speed>
  <fix>3d</fix>
</trkpt>
<trkpt lat="40.0728421" lon="-105.2305751">
  <ele>1586.59</ele>
  <time>2026-08-27T18:31:01Z</time>
  <course>317.9</course>
  <speed>0.11</speed>
  <fix>3d</fix>
</trkpt>
<trkpt lat="40.0728421" lon="-105.2305751">
  <ele>1586.95</ele>
  <time>2026-08-27T18:31:01Z</time>
  <course>11.29</course>
  <speed>0.130384048104053</speed>
  <fix>3d</fix>
</trkpt>
<trkpt lat="40.0728424" lon="-105.2305753">
  <ele>1587.21</ele>
  <time>2026-08-27T18:31:01Z</time>
  <course>11.26</course>
  <speed>0.1664331697709324</speed>
  <fix>3d</fix>
</trkpt>
<trkpt lat="40.0728423" lon="-105.2305753">
  <ele>1586.9</ele>
  <time>2026-08-27T18:31:01Z</time>
  <course>316.39</course>
  <speed>0.16</speed>
  <fix>3d</fix>
</trkpt>
<trkpt lat="40.0728424" lon="-105.2305753">
  <ele>1587.21</ele>
  <time>2026-08-27T18:31:01Z</time>
  <course>11.26</course>
  <speed>0.1664331697709324</speed>
  <fix>3d</fix>
</trkpt>
<trkpt lat="40.0728427" lon="-105.2305756">
  <ele>1587.52</ele>
  <time>2026-08-27T18:31:01Z</time>
  <course>11.25</course>
  <speed>0.20808652046684814</speed>
  <fix>3d</fix>
</trkpt>
<trkpt lat="40.0728425" lon="-105.2305756">
  <ele>1587.2</ele>
  <time>2026-08-27T18:31:01Z</time>
  <course>315.95</course>
  <speed>0.21</speed>
  <fix>3d</fix>
</trkpt>
<trkpt lat="40.0728427" lon="-105.2305757">
  <ele>1587.57</ele>
  <time>2026-08-27T18:31:01Z</time>
  <course>11.25</course>
  <speed>0.21633307652783937</speed>
  <fix>3d</fix>
</trkpt>
<trkpt lat="40.072843" lon="-105.230576">
  <ele>1587.86</ele>
  <time>2026-08-27T18:31:01Z</time>
  <course>11.25</course>
  <speed>0.24413111231467405</speed>
  <fix>3d</fix>
</trkpt>
<trkpt lat="40.0728428" lon="-105.230576">
  <ele>1587.52</ele>
  <time>2026-08-27T18:31:01Z</time>
  <course>315.63</course>
  <speed>0.25</speed>
  <fix>3d</fix>
</trkpt>
<trkpt lat="40.0728431" lon="-105.2305761">
  <ele>1587.91</ele>
  <time>2026-08-27T18:31:01Z</time>
  <course>11.25</course>
  <speed>0.25</speed>
  <fix>3d</fix>
</trkpt>
<trkpt lat="40.0728434" lon="-105.2305765">
  <ele>1588.21</ele>
  <time>2026-08-27T18:31:01Z</time>
  <course>11.25</course>
  <speed>0.2720294101747089</speed>
  <fix>3d</fix>
</trkpt>
<trkpt lat="40.0728431" lon="-105.2305764">
  <ele>1587.86</ele>
  <time>2026-08-27T18:31:01Z</time>
  <course>315.41</course>
  <speed>0.28</speed>
  <fix>3d</fix>
</trkpt>
<trkpt lat="40.0728434" lon="-105.2305765">
  <ele>1588.27</ele>
  <time>2026-08-27T18:31:01Z</time>
  <course>11.25</course>
  <speed>0.2780287754891569</speed>
  <fix>3d</fix>
</trkpt>
<trkpt lat="40.0728438" lon="-105.230577">
  <ele>1588.57</ele>
  <time>2026-08-27T18:31:01Z</time>
  <course>11.25</course>
  <speed>0.3</speed>
  <fix>3d</fix>
</trkpt>
<trkpt lat="40.0728436" lon="-105.2305769">
  <ele>1588.2</ele>
  <time>2026-08-27T18:31:01Z</time>
  <course>315.28</course>
  <speed>0.31</speed>
  <fix>3d</fix>
</trkpt>
<trkpt lat="40.0728438" lon="-105.230577">
  <ele>1588.62</ele>
  <time>2026-08-27T18:31:01Z</time>
  <course>11.25</course>
  <speed>0.30610455730027936</speed>
  <fix>3d</fix>
</trkpt>
<trkpt lat="40.0728442" lon="-105.2305775">
  <ele>1588.94</ele>
  <time>2026-08-27T18:31:01Z</time>
  <course>9.89</course>
  <speed>0.32015621187164245</speed>
  <fix>3d</fix>
</trkpt>
<trkpt lat="40.072844" lon="-105.2305775">
  <ele>1588.55</ele>
  <time>2026-08-27T18:31:01Z</time>
  <course>315.21</course>
  <speed>0.34</speed>
  <fix>3d</fix>
</trkpt>
<trkpt lat="40.0728443" lon="-105.2305776">
  <ele>1588.99</ele>
  <time>2026-08-27T18:31:01Z</time>
  <course>9.89</course>
  <speed>0.3280243893371345</speed>
  <fix>3d</fix>
</trkpt>
<trkpt lat="40.0728447" lon="-105.2305781">
  <ele>1589.31</ele>
  <time>2026-08-27T18:31:01Z</time>
  <course>9.92</course>
  <speed>0.33421549934136807</speed>
  <fix>3d</fix>
</trkpt>
<trkpt lat="40.0728444" lon="-105.2305781">
  <ele>1588.91</ele>
  <time>2026-08-27T18:31:01Z</time>
  <course>315.2</course>
  <speed>0.36</speed>
  <fix>3d</fix>
</trkpt>
<trkpt lat="40.0728447" lon="-105.2305781">
  <ele>1589.31</ele>
  <time>2026-08-27T18:31:01Z</time>
  <course>9.92</course>
  <speed>0.33421549934136807</speed>
  <fix>3d</fix>
</trkpt>
<trkpt lat="40.0728452" lon="-105.2305787">
  <ele>1589.69</ele>
  <time>2026-08-27T18:31:01Z</time>
  <course>9.95</course>
  <speed>0.354682957019364</speed>
  <fix>3d</fix>
</trkpt>
<trkpt lat="40.0728448" lon="-105.2305787">
  <ele>1589.28</ele>
  <time>2026-08-27T18:31:01Z</time>
  <course>315.2</course>
  <speed>0.38</speed>
  <fix>3d</fix>
</trkpt>
<trkpt lat="40.0728453" lon="-105.2305788">
  <ele>1589.75</ele>
  <time>2026-08-27T18:31:01Z</time>
  <course>9.96</course>
  <speed>0.354682957019364</speed>
  <fix>3d</fix>
</trkpt>
<trkpt lat="40.0728457" lon="-105.2305794">
  <ele>1590.08</ele>
  <time>2026-08-27T18:31:01Z</time>
  <course>9.97</course>
  <speed>0.3687817782917155</speed>
  <fix>3d</fix>
</trkpt>
<trkpt lat="40.0728453" lon="-105.2305793">
  <ele>1589.65</ele>
  <time>2026-08-27T18:31:01Z</time>
  <course>315.12</course>
  <speed>0.39</speed>
  <fix>3d</fix>
</trkpt>
<trkpt lat="40.0728458" lon="-105.2305795">
  <ele>1590.14</ele>
  <time>2026-08-27T18:31:01Z</time>
  <course>9.98</course>
  <speed>0.3687817782917155</speed>
  <fix>3d</fix>
</trkpt>
<trkpt lat="40.0728462" lon="-105.2305801">
  <ele>1590.47</ele>
  <time>2026-08-27T18:31:01Z</time>
  <course>9.99</course>
  <speed>0.3753664875824692</speed>
  <fix>3d</fix>
</trkpt>
<trkpt lat="40.0728459" lon="-105.23058">
  <ele>1590.04</ele>
  <time>2026-08-27T18:31:01Z</time>
  <course>315.0</course>
  <speed>0.4</speed>
  <fix>3d</fix>
</trkpt>
<trkpt lat="40.0728462" lon="-105.2305802">
  <ele>1590.53</ele>
  <time>2026-08-27T18:31:01Z</time>
  <course>9.99</course>
  <speed>0.3753664875824692</speed>
  <fix>3d</fix>
</trkpt>
<trkpt lat="40.0728467" lon="-105.2305808">
  <ele>1590.87</ele>
  <time>2026-08-27T18:31:01Z</time>
  <course>9.99</course>
  <speed>0.382099463490856</speed>
  <fix>3d</fix>
</trkpt>
<trkpt lat="40.0728464" lon="-105.2305807">
  <ele>1590.42</ele>
  <time>2026-08-27T18:31:01Z</time>
  <course>314.99</course>
  <speed>0.41</speed>
  <fix>3d</fix>
</trkpt>
<trkpt lat="40.0728467" lon="-105.2305808">
  <ele>1590.88</ele>
  <time>2026-08-27T18:31:01Z</time>
  <course>9.99</course>
  <speed>0.382099463490856</speed>
  <fix>3d</fix>
</trkpt>
<trkpt lat="40.0728472" lon="-105.2305815">
  <ele>1591.27</ele>
  <time>2026-08-27T18:31:01Z</time>
  <course>9.98</course>
  <speed>0.396232255123179</speed>
  <fix>3d</fix>
</trkpt>
<trkpt lat="40.0728469" lon="-105.2305814">
  <ele>1590.82</ele>
  <time>2026-08-27T18:31:01Z</time>
  <course>315.13</course>
  <speed>0.42</speed>
  <fix>3d</fix>
</trkpt>
<trkpt lat="40.0728473" lon="-105.2305816">
  <ele>1591.33</ele>
  <time>2026-08-27T18:31:01Z</time>
  <course>9.98</course>
  <speed>0.396232255123179</speed>
  <fix>3d</fix>
</trkpt>
<trkpt lat="40.0728477" lon="-105.2305822">
  <ele>1591.67</ele>
  <time>2026-08-27T18:31:01Z</time>
  <course>9.98</course>
  <speed>0.40311288741492746</speed>
  <fix>3d</fix>
</trkpt>
<trkpt lat="40.0728474" lon="-105.2305821">
  <ele>1591.22</ele>
  <time>2026-08-27T18:31:01Z</time>
  <course>315.34</course>
  <speed>0.42</speed>
  <fix>3d</fix>
</trkpt>
<trkpt lat="40.0728477" lon="-105.2305822">
  <ele>1591.68</ele>
  <time>2026-08-27T18:31:01Z</time>
  <course>9.98</course>
  <speed>0.40311288741492746</speed>
  <fix>3d</fix>
</trkpt>
<trkpt lat="40.0728483" lon="-105.230583">
  <ele>1592.08</ele>
  <time>2026-08-27T18:31:01Z</time>
  <course>9.98</course>
  <speed>0.40311288741492746</speed>
  <fix>3d</fix>
</trkpt>
<trkpt lat="40.072848" lon="-105.2305828">
  <ele>1591.63</ele>
  <time>2026-08-27T18:31:01Z</time>
  <course>315.58</course>
  <speed>0.43</speed>
  <fix>3d</fix>
</trkpt>
<trkpt lat="40.0728484" lon="-105.2305831">
  <ele>1592.14</ele>
  <time>2026-08-27T18:31:01Z</time>
  <course>9.98</course>
  <speed>0.40311288741492746</speed>
  <fix>3d</fix>
</trkpt>
<trkpt lat="40.0728488" lon="-105.2305837">
  <ele>1592.49</ele>
  <time>2026-08-27T18:31:01Z</time>
  <course>9.97</course>
  <speed>0.41012193308819755</speed>
  <fix>3d</fix>
</trkpt>
<trkpt lat="40.0728486" lon="-105.2305835">
  <ele>1592.03</ele>
  <time>2026-08-27T18:31:01Z</time>
  <course>315.82</course>
  <speed>0.43</speed>
  <fix>3d</fix>
</trkpt>
<trkpt lat="40.0728489" lon="-105.2305838">
  <ele>1592.57</ele>
  <time>2026-08-27T18:31:01Z</time>
  <course>9.97</course>
  <speed>0.41012193308819755</speed>
  <fix>3d</fix>
</trkpt>
<trkpt lat="40.0728494" lon="-105.2305844">
  <ele>1592.91</ele>
  <time>2026-08-27T18:31:01Z</time>
  <course>9.96</course>
  <speed>0.40311288741492746</speed>
  <fix>3d</fix>
</trkpt>
<trkpt lat="40.0728491" lon="-105.2305842">
  <ele>1592.44</ele>
  <time>2026-08-27T18:31:01Z</time>
  <course>316.06</course>
  <speed>0.42</speed>
  <fix>3d</fix>
</trkpt>
<trkpt lat="40.0728494" lon="-105.2305844">
  <ele>1592.91</ele>
  <time>2026-08-27T18:31:01Z</time>
  <course>9.96</course>
  <speed>0.40311288741492746</speed>
  <fix>3d</fix>
</trkpt>
<trkpt lat="40.0728499" lon="-105.2305852">
  <ele>1593.33</ele>
  <time>2026-08-27T18:31:01Z</time>
  <course>9.94</course>
  <speed>0.40311288741492746</speed>
  <fix>3d</fix>
</trkpt>
<trkpt lat="40.0728497" lon="-105.2305849">
  <ele>1592.85</ele>
  <time>2026-08-27T18:31:01Z</time>
  <course>316.3</course>
  <speed>0.42</speed>
  <fix>3d</fix>
</trkpt>
<trkpt lat="40.07285" lon="-105.2305853">
  <ele>1593.38</ele>
  <time>2026-08-27T18:31:01Z</time>
  <course>9.94</course>
  <speed>0.40311288741492746</speed>
  <fix>3d</fix>
</trkpt>
<trkpt lat="40.0728505" lon="-105.2305859">
  <ele>1593.75</ele>
  <time>2026-08-27T18:31:01Z</time>
  <course>9.92</course>
  <speed>0.40311288741492746</speed>
  <fix>3d</fix>
</trkpt>
<trkpt lat="40.0728503" lon="-105.2305856">
  <ele>1593.26</ele>
  <time>2026-08-27T18:31:01Z</time>
  <course>316.53</course>
  <speed>0.42</speed>
  <fix>3d</fix>
</trkpt>
<trkpt lat="40.0728505" lon="-105.230586">
  <ele>1593.81</ele>
  <time>2026-08-27T18:31:01Z</time>
  <course>9.92</course>
  <speed>0.40311288741492746</speed>
  <fix>3d</fix>
</trkpt>
<trkpt lat="40.072851" lon="-105.2305866">
  <ele>1594.17</ele>
  <time>2026-08-27T18:31:01Z</time>
  <course>9.9</course>
  <speed>0.40311288741492746</speed>
  <fix>3d</fix>
</trkpt>
<trkpt lat="40.0728508" lon="-105.2305863">
  <ele>1593.67</ele>
  <time>2026-08-27T18:31:01Z</time>
  <course>316.76</course>
  <speed>0.42</speed>
  <fix>3d</fix>
</trkpt>
<trkpt lat="40.072851" lon="-105.2305866">
  <ele>1594.18</ele>
  <time>2026-08-27T18:31:01Z</time>
  <course>9.9</course>
  <speed>0.40311288741492746</speed>
  <fix>3d</fix>
</trkpt>
<trkpt lat="40.0728516" lon="-105.2305873">
  <ele>1594.59</ele>
  <time>2026-08-27T18:31:01Z</time>
  <course>9.87</course>
  <speed>0.40311288741492746</speed>
  <fix>3d</fix>
</trkpt>
<trkpt lat="40.0728514" lon="-105.2305869">
  <ele>1594.1</ele>
  <time>2026-08-27T18:31:01Z</time>
  <course>316.98</course>
  <speed>0.41</speed>
  <fix>3d</fix>
</trkpt>
<trkpt lat="40.0728516" lon="-105.2305874">
  <ele>1594.66</ele>
  <time>2026-08-27T18:31:01Z</time>
  <course>9.87</course>
  <speed>0.40311288741492746</speed>
  <fix>3d</fix>
</trkpt>
<trkpt lat="40.0728521" lon="-105.230588">
  <ele>1595.01</ele>
  <time>2026-08-27T18:31:01Z</time>
  <course>9.87</course>
  <speed>0.396232255123179</speed>
  <fix>3d</fix>
</trkpt>
<trkpt lat="40.0728519" lon="-105.2305876">
  <ele>1594.52</ele>
  <time>2026-08-27T18:31:01Z</time>
  <course>317.18</course>
  <speed>0.41</speed>
  <fix>3d</fix>
</trkpt>
<trkpt lat="40.0728521" lon="-105.230588">
  <ele>1595.02</ele>
  <time>2026-08-27T18:31:01Z</time>
  <course>9.87</course>
  <speed>0.396232255123179</speed>
  <fix>3d</fix>
</trkpt>
<trkpt lat="40.0728526" lon="-105.2305886">
  <ele>1595.43</ele>
  <time>2026-08-27T18:31:01Z</time>
  <course>9.87</course>
  <speed>0.3889730067755345</speed>
  <fix>3d</fix>
</trkpt>
<trkpt lat="40.0728524" lon="-105.2305882">
  <ele>1594.94</ele>
  <time>2026-08-27T18:31:01Z</time>
  <course>317.39</course>
  <speed>0.4</speed>
  <fix>3d</fix>
</trkpt>
<trkpt lat="40.0728527" lon="-105.2305887">
  <ele>1595.5</ele>
  <time>2026-08-27T18:31:01Z</time>
  <course>9.87</course>
  <speed>0.3889730067755345</speed>
  <fix>3d</fix>
</trkpt>
<trkpt lat="40.0728532" lon="-105.2305893">
  <ele>1595.76</ele>
  <time>2026-08-27T18:31:01Z</time>
  <course>9.88</course>
  <speed>0.3889730067755345</speed>
  <fix>3d</fix>
</trkpt>
<trkpt lat="40.0728529" lon="-105.2305889">
  <ele>1595.34</ele>
  <time>2026-08-27T18:31:01Z</time>
  <course>317.55</course>
  <speed>0.4</speed>
  <fix>3d</fix>
</trkpt>
<trkpt lat="40.0728537" lon="-105.2305899">
  <ele>1595.69</ele>
  <time>2026-08-27T18:31:01Z</time>
  <course>9.88</course>
  <speed>0.3889730067755345</speed>
  <fix>3d</fix>
</trkpt>
<trkpt lat="40.0728535" lon="-105.2305896">
  <ele>1595.55</ele>
  <time>2026-08-27T18:31:01Z</time>
  <course>317.59</course>
  <speed>0.39</speed>
  <fix>3d</fix>
</trkpt>
<trkpt lat="40.0728542" lon="-105.2305906">
  <ele>1595.23</ele>
  <time>2026-08-27T18:31:01Z</time>
  <course>9.9</course>
  <speed>0.3959797974644666</speed>
  <fix>3d</fix>
</trkpt>
<trkpt lat="40.072854" lon="-105.2305902">
  <ele>1595.39</ele>
  <time>2026-08-27T18:31:01Z</time>
  <course>317.58</course>
  <speed>0.39</speed>
  <fix>3d</fix>
</trkpt>
<trkpt lat="40.0728548" lon="-105.2305912">
  <ele>1594.55</ele>
  <time>2026-08-27T18:31:01Z</time>
  <course>9.92</course>
  <speed>0.3818376618407357</speed>
  <fix>3d</fix>
</trkpt>
<trkpt lat="40.0728545" lon="-105.2305907">
  <ele>1594.88</ele>
  <time>2026-08-27T18:31:01Z</time>
  <course>317.65</course>
  <speed>0.38</speed>
  <fix>3d</fix>
</trkpt>
<trkpt lat="40.0728552" lon="-105.2305918">
  <ele>1594.06</ele>
  <time>2026-08-27T18:31:01Z</time>
  <course>9.94</course>
  <speed>0.3394112549695428</speed>
  <fix>3d</fix>
</trkpt>
<trkpt lat="40.072855" lon="-105.2305914">
  <ele>1594.25</ele>
  <time>2026-08-27T18:31:01Z</time>
  <course>318.25</course>
  <speed>0.37</speed>
  <fix>3d</fix>
</trkpt>
<trkpt lat="40.0728557" lon="-105.2305923">
  <ele>1593.73</ele>
  <time>2026-08-27T18:31:01Z</time>
  <course>9.92</course>
  <speed>0.29</speed>
  <fix>3d</fix>
</trkpt>
<trkpt lat="40.0728555" lon="-105.2305919">
  <ele>1593.78</ele>
  <time>2026-08-27T18:31:01Z</time>
  <course>319.74</course>
  <speed>0.33</speed>
  <fix>3d</fix>
</trkpt>
<trkpt lat="40.072856" lon="-105.2305927">
  <ele>1593.53</ele>
  <time>2026-08-27T18:31:01Z</time>
  <course>9.87</course>
  <speed>0.24758836806279894</speed>
  <fix>3d</fix>
</trkpt>
<trkpt lat="40.072856" lon="-105.2305923">
  <ele>1593.49</ele>
  <time>2026-08-27T18:31:01Z</time>
  <course>321.74</course>
  <speed>0.29</speed>
  <fix>3d</fix>
</trkpt>
<trkpt lat="40.0728564" lon="-105.230593">
  <ele>1593.44</ele>
  <time>2026-08-27T18:31:01Z</time>
  <course>9.79</course>
  <speed>0.20518284528683192</speed>
  <fix>3d</fix>
</trkpt>
<trkpt lat="40.0728564" lon="-105.2305928">
  <ele>1593.34</ele>
  <time>2026-08-27T18:31:01Z</time>
  <course>323.89</course>
  <speed>0.25</speed>
  <fix>3d</fix>
</trkpt>
<trkpt lat="40.0728567" lon="-105.2305933">
  <ele>1593.42</ele>
  <time>2026-08-27T18:31:01Z</time>
  <course>9.72</course>
  <speed>0.17029386365926402</speed>
  <fix>3d</fix>
</trkpt>
<trkpt lat="40.0728567" lon="-105.2305931">
  <ele>1593.27</ele>
  <time>2026-08-27T18:31:01Z</time>
  <course>326.25</course>
  <speed>0.21</speed>
  <fix>3d</fix>
</trkpt>
<trkpt lat="40.0728569" lon="-105.2305936">
  <ele>1593.44</ele>
  <time>2026-08-27T18:31:01Z</time>
  <course>9.67</course>
  <speed>0.12806248474865697</speed>
  <fix>3d</fix>
</trkpt>
<trkpt lat="40.072857" lon="-105.2305934">
  <ele>1593.27</ele>
  <time>2026-08-27T18:31:01Z</time>
  <course>328.91</course>
  <speed>0.17</speed>
  <fix>3d</fix>
</trkpt>
<trkpt lat="40.0728571" lon="-105.2305937">
  <ele>1593.51</ele>
  <time>2026-08-27T18:31:01Z</time>
  <course>9.64</course>
  <speed>0.1</speed>
  <fix>3d</fix>
</trkpt>
<trkpt lat="40.0728572" lon="-105.2305935">
  <ele>1593.32</ele>
  <time>2026-08-27T18:31:01Z</time>
  <course>332.16</course>
  <speed>0.14</speed>
  <fix>3d</fix>
</trkpt>
<trkpt lat="40.0728573" lon="-105.2305938">
  <ele>1593.6</ele>
  <time>2026-08-27T18:31:01Z</time>
  <course>9.63</course>
  <speed>0.0670820393249937</speed>
  <fix>3d</fix>
</trkpt>
<trkpt lat="40.0728575" lon="-105.2305937">
  <ele>1593.4</ele>
  <time>2026-08-27T18:31:01Z</time>
  <course>336.02</course>
  <speed>0.1</speed>
  <fix>3d</fix>
</trkpt>
<trkpt lat="40.0728574" lon="-105.2305939">
  <ele>1593.71</ele>
  <time>2026-08-27T18:31:01Z</time>
  <course>9.63</course>
  <speed>0.0412310562561766</speed>
  <fix>3d</fix>
</trkpt>
<trkpt lat="40.0728576" lon="-105.2305938">
  <ele>1593.5</ele>
  <time>2026-08-27T18:31:01Z</time>
  <course>341.19</course>
  <speed>0.07</speed>
  <fix>3d</fix>
</trkpt>
<trkpt lat="40.0728575" lon="-105.2305939">
  <ele>1593.84</ele>
  <time>2026-08-27T18:31:01Z</time>
  <course>9.66</course>
  <speed>0.02</speed>
  <fix>3d</fix>
</trkpt>
<trkpt lat="40.0728577" lon="-105.2305938">
  <ele>1593.62</ele>
  <time>2026-08-27T18:31:01Z</time>
  <course>350.04</course>
  <speed>0.05</speed>
  <fix>3d</fix>
</trkpt>
<trkpt lat="40.0728575" lon="-105.2305939">
  <ele>1593.97</ele>
  <time>2026-08-27T18:31:01Z</time>
  <course>9.69</course>
  <speed>0.022360679774997897</speed>
  <fix>3d</fix>
</trkpt>
<trkpt lat="40.0728578" lon="-105.2305938">
  <ele>1593.75</ele>
  <time>2026-08-27T18:31:01Z</time>
  <course>9.89</course>
  <speed>0.02</speed>
  <fix>3d</fix>
</trkpt>
<trkpt lat="40.0728576" lon="-105.2305939">
  <ele>1594.11</ele>
  <time>2026-08-27T18:31:01Z</time>
  <course>9.73</course>
  <speed>0.04</speed>
  <fix>3d</fix>
</trkpt>
<trkpt lat="40.0728578" lon="-105.2305938">
  <ele>1593.88</ele>
  <time>2026-08-27T18:31:01Z</time>
  <course>70.06</course>
  <speed>0.01</speed>
  <fix>3d</fix>
</trkpt>
<trkpt lat="40.0728576" lon="-105.2305938">
  <ele>1594.25</ele>
  <time>2026-08-27T18:31:01Z</time>
  <course>9.77</course>
  <speed>0.05</speed>
  <fix>3d</fix>
</trkpt>
<trkpt lat="40.0728578" lon="-105.2305938">
  <ele>1594.03</ele>
  <time>2026-08-27T18:31:01Z</time>
  <course>123.03</course>
  <speed>0.02</speed>
  <fix>3d</fix>
</trkpt>
<trkpt lat="40.0728576" lon="-105.2305938">
  <ele>1594.4</ele>
  <time>2026-08-27T18:31:01Z</time>
  <course>9.81</course>
  <speed>0.06</speed>
  <fix>3d</fix>
</trkpt>
<trkpt lat="40.0728578" lon="-105.2305938">
  <ele>1594.16</ele>
  <time>2026-08-27T18:31:01Z</time>
  <course>140.34</course>
  <speed>0.03</speed>
  <fix>3d</fix>
</trkpt>
<trkpt lat="40.0728575" lon="-105.2305938">
  <ele>1594.54</ele>
  <time>2026-08-27T18:31:01Z</time>
  <course>9.85</course>
  <speed>0.07071067811865475</speed>
  <fix>3d</fix>
</trkpt>
<trkpt lat="40.0728578" lon="-105.2305937">
  <ele>1594.31</ele>
  <time>2026-08-27T18:31:01Z</time>
  <course>148.79</course>
  <speed>0.05</speed>
  <fix>3d</fix>
</trkpt>
<trkpt lat="40.0728574" lon="-105.2305937">
  <ele>1594.68</ele>
  <time>2026-08-27T18:31:01Z</time>
  <course>9.89</course>
  <speed>0.09219544457292887</speed>
  <fix>3d</fix>
</trkpt>
<trkpt lat="40.0728577" lon="-105.2305936">
  <ele>1594.45</ele>
  <time>2026-08-27T18:31:01Z</time>
  <course>152.3</course>
  <speed>0.06</speed>
  <fix>3d</fix>
</trkpt>
<trkpt lat="40.0728573" lon="-105.2305936">
  <ele>1594.81</ele>
  <time>2026-08-27T18:31:01Z</time>
  <course>9.92</course>
  <speed>0.13</speed>
  <fix>3d</fix>
</trkpt>
<trkpt lat="40.0728576" lon="-105.2305935">
  <ele>1594.59</ele>
  <time>2026-08-27T18:31:01Z</time>
  <course>149.09</course>
  <speed>0.09</speed>
  <fix>3d</fix>
</trkpt>
<trkpt lat="40.0728571" lon="-105.2305933">
  <ele>1594.93</ele>
  <time>2026-08-27T18:31:01Z</time>
  <course>9.95</course>
  <speed>0.2109502310972899</speed>
  <fix>3d</fix>
</trkpt>
<trkpt lat="40.0728575" lon="-105.2305934">
  <ele>1594.72</ele>
  <time>2026-08-27T18:31:01Z</time>
  <course>143.24</course>
  <speed>0.14</speed>
  <fix>3d</fix>
</trkpt>
<trkpt lat="40.0728567" lon="-105.230593">
  <ele>1595.03</ele>
  <time>2026-08-27T18:31:01Z</time>
  <course>9.96</course>
  <speed>0.32202484376209234</speed>
  <fix>3d</fix>
</trkpt>
<trkpt lat="40.0728572" lon="-105.2305931">
  <ele>1594.83</ele>
  <time>2026-08-27T18:31:01Z</time>
  <course>138.67</course>
  <speed>0.23</speed>
  <fix>3d</fix>
</trkpt>
<trkpt lat="40.0728562" lon="-105.2305924">
  <ele>1595.09</ele>
  <time>2026-08-27T18:31:01Z</time>
  <course>9.92</course>
  <speed>0.4482186966202994</speed>
  <fix>3d</fix>
</trkpt>
<trkpt lat="40.0728568" lon="-105.2305926">
  <ele>1594.91</ele>
  <time>2026-08-27T18:31:01Z</time>
  <course>135.83</course>
  <speed>0.34</speed>
  <fix>3d</fix>
</trkpt>
<trkpt lat="40.0728556" lon="-105.2305915">
  <ele>1595.13</ele>
  <time>2026-08-27T18:31:01Z</time>
  <course>9.79</course>
  <speed>0.5889821729050889</speed>
  <fix>3d</fix>
</trkpt>
<trkpt lat="40.0728563" lon="-105.230592">
  <ele>1594.97</ele>
  <time>2026-08-27T18:31:01Z</time>
  <course>134.17</course>
  <speed>0.47</speed>
  <fix>3d</fix>
</trkpt>
<trkpt lat="40.0728548" lon="-105.2305905">
  <ele>1595.15</ele>
  <time>2026-08-27T18:31:01Z</time>
  <course>9.6</course>
  <speed>0.73</speed>
  <fix>3d</fix>
</trkpt>
<trkpt lat="40.0728556" lon="-105.2305911">
  <ele>1595.01</ele>
  <time>2026-08-27T18:31:01Z</time>
  <course>133.36</course>
  <speed>0.61</speed>
  <fix>3d</fix>
</trkpt>
<trkpt lat="40.0728538" lon="-105.2305892">
  <ele>1595.15</ele>
  <time>2026-08-27T18:31:01Z</time>
  <course>9.39</course>
  <speed>0.8429116205154606</speed>
  <fix>3d</fix>
</trkpt>
<trkpt lat="40.0728548" lon="-105.2305899">
  <ele>1595.03</ele>
  <time>2026-08-27T18:31:01Z</time>
  <course>133.18</course>
  <speed>0.74</speed>
  <fix>3d</fix>
</trkpt>
<trkpt lat="40.0728527" lon="-105.2305877">
  <ele>1595.14</ele>
  <time>2026-08-27T18:31:01Z</time>
  <course>9.25</course>
  <speed>0.9276313923105448</speed>
  <fix>3d</fix>
</trkpt>
<trkpt lat="40.0728538" lon="-105.2305885">
  <ele>1595.03</ele>
  <time>2026-08-27T18:31:01Z</time>
  <course>133.44</course>
  <speed>0.85</speed>
  <fix>3d</fix>
</trkpt>
<trkpt lat="40.0728516" lon="-105.2305861">
  <ele>1595.13</ele>
  <time>2026-08-27T18:31:01Z</time>
  <course>9.23</course>
  <speed>0.97</speed>
  <fix>3d</fix>
</trkpt>
<trkpt lat="40.0728527" lon="-105.2305869">
  <ele>1595.02</ele>
  <time>2026-08-27T18:31:01Z</time>
  <course>134.06</course>
  <speed>0.92</speed>
  <fix>3d</fix>
</trkpt>
<trkpt lat="40.0728504" lon="-105.2305845">
  <ele>1595.12</ele>
  <time>2026-08-27T18:31:01Z</time>
  <course>9.32</course>
  <speed>0.97</speed>
  <fix>3d</fix>
</trkpt>
<trkpt lat="40.0728515" lon="-105.2305854">
  <ele>1595.01</ele>
  <time>2026-08-27T18:31:01Z</time>
  <course>134.95</course>
  <speed>0.96</speed>
  <fix>3d</fix>
</trkpt>
<trkpt lat="40.0728492" lon="-105.230583">
  <ele>1595.12</ele>
  <time>2026-08-27T18:31:01Z</time>
  <course>9.49</course>
  <speed>0.9567131231461183</speed>
  <fix>3d</fix>
</trkpt>
<trkpt lat="40.0728502" lon="-105.2305838">
  <ele>1595.01</ele>
  <time>2026-08-27T18:31:01Z</time>
  <course>135.99</course>
  <speed>0.96</speed>
  <fix>3d</fix>
</trkpt>
<trkpt lat="40.072848" lon="-105.2305814">
  <ele>1595.12</ele>
  <time>2026-08-27T18:31:01Z</time>
  <course>9.69</course>
  <speed>0.9360555539069249</speed>
  <fix>3d</fix>
</trkpt>
<trkpt lat="40.072849" lon="-105.2305823">
  <ele>1595.01</ele>
  <time>2026-08-27T18:31:01Z</time>
  <course>137.04</course>
  <speed>0.94</speed>
  <fix>3d</fix>
</trkpt>
<trkpt lat="40.0728468" lon="-105.23058">
  <ele>1595.12</ele>
  <time>2026-08-27T18:31:01Z</time>
  <course>9.86</course>
  <speed>0.9078546139112804</speed>
  <fix>3d</fix>
</trkpt>
<trkpt lat="40.0728478" lon="-105.2305808">
  <ele>1595.01</ele>
  <time>2026-08-27T18:31:01Z</time>
  <course>138.03</course>
  <speed>0.92</speed>
  <fix>3d</fix>
</trkpt>
<trkpt lat="40.0728456" lon="-105.2305786">
  <ele>1595.13</ele>
  <time>2026-08-27T18:31:02Z</time>
  <course>9.98</course>
  <speed>0.8514693182963201</speed>
  <fix>3d</fix>
</trkpt>
<trkpt lat="40.0728465" lon="-105.2305794">
  <ele>1595.01</ele>
  <time>2026-08-27T18:31:02Z</time>
  <course>139.08</course>
  <speed>0.88</speed>
  <fix>3d</fix>
</trkpt>
<trkpt lat="40.0728445" lon="-105.2305774">
  <ele>1595.13</ele>
  <time>2026-08-27T18:31:02Z</time>
  <course>10.05</course>
  <speed>0.7528612089887484</speed>
  <fix>3d</fix>
</trkpt>
<trkpt lat="40.0728453" lon="-105.2305781">
  <ele>1595.01</ele>
  <time>2026-08-27T18:31:02Z</time>
  <course>140.47</course>
  <speed>0.81</speed>
  <fix>3d</fix>
</trkpt>
<trkpt lat="40.0728436" lon="-105.2305763">
  <ele>1595.13</ele>
  <time>2026-08-27T18:31:02Z</time>
  <course>10.06</course>
  <speed>0.6262587324740471</speed>
  <fix>3d</fix>
</trkpt>
<trkpt lat="40.0728443" lon="-105.230577">
  <ele>1595.02</ele>
  <time>2026-08-27T18:31:02Z</time>
  <course>142.52</course>
  <speed>0.71</speed>
  <fix>3d</fix>
</trkpt>
<trkpt lat="40.0728428" lon="-105.2305756">
  <ele>1595.13</ele>
  <time>2026-08-27T18:31:02Z</time>
  <course>10.02</course>
  <speed>0.47201694884823786</speed>
  <fix>3d</fix>
</trkpt>
<trkpt lat="40.0728433" lon="-105.230576">
  <ele>1595.02</ele>
  <time>2026-08-27T18:31:02Z</time>
  <course>145.78</course>
  <speed>0.58</speed>
  <fix>3d</fix>
</trkpt>
<trkpt lat="40.0728422" lon="-105.2305751">
  <ele>1595.14</ele>
  <time>2026-08-27T18:31:02Z</time>
  <course>9.9</course>
  <speed>0.31064449134018135</speed>
  <fix>3d</fix>
</trkpt>
<trkpt lat="40.0728425" lon="-105.2305754">
  <ele>1595.03</ele>
  <time>2026-08-27T18:31:02Z</time>
  <course>151.36</course>
  <speed>0.43</speed>
  <fix>3d</fix>
</trkpt>
<trkpt lat="40.0728418" lon="-105.2305748">
  <ele>1595.14</ele>
  <time>2026-08-27T18:31:02Z</time>
  <course>9.72</course>
  <speed>0.16552945357246848</speed>
  <fix>3d</fix>
</trkpt>
<trkpt lat="40.0728419" lon="-105.2305751">
  <ele>1595.03</ele>
  <time>2026-08-27T18:31:02Z</time>
  <course>161.96</course>
  <speed>0.28</speed>
  <fix>3d</fix>
</trkpt>
<trkpt lat="40.0728416" lon="-105.2305748">
  <ele>1595.14</ele>
  <time>2026-08-27T18:31:02Z</time>
  <course>9.53</course>
  <speed>0.07</speed>
  <fix>3d</fix>
</trkpt>
<trkpt lat="40.0728416" lon="-105.230575">
  <ele>1595.04</ele>
  <time>2026-08-27T18:31:02Z</time>
  <course>184.27</course>
  <speed>0.17</speed>
  <fix>3d</fix>
</trkpt>
<trkpt lat="40.0728414" lon="-105.230575">
  <ele>1595.14</ele>
  <time>2026-08-27T18:31:02Z</time>
  <course>9.42</course>
  <speed>0.0412310562561766</speed>
  <fix>3d</fix>
</trkpt>
<trkpt lat="40.0728414" lon="-105.2305752">
  <ele>1595.04</ele>
  <time>2026-08-27T18:31:02Z</time>
  <course>222.84</course>
  <speed>0.12</speed>
  <fix>3d</fix>
</trkpt>
<trkpt lat="40.0728414" lon="-105.2305751">
  <ele>1595.14</ele>
  <time>2026-08-27T18:31:02Z</time>
  <course>9.4</course>
  <speed>0.06082762530298219</speed>
  <fix>3d</fix>
</trkpt>
<trkpt lat="40.0728412" lon="-105.2305753">
  <ele>1595.04</ele>
  <time>2026-08-27T18:31:02Z</time>
  <course>254.59</course>
  <speed>0.12</speed>
  <fix>3d</fix>
</trkpt>
<trkpt lat="40.0728413" lon="-105.2305754">
  <ele>1595.14</ele>
  <time>2026-08-27T18:31:02Z</time>
  <course>9.46</course>
  <speed>0.0412310562561766</speed>
  <fix>3d</fix>
</trkpt>
<trkpt lat="40.0728412" lon="-105.2305756">
  <ele>1595.04</ele>
  <time>2026-08-27T18:31:02Z</time>
  <course>269.71</course>
  <speed>0.12</speed>
  <fix>3d</fix>
</trkpt>
<trkpt lat="40.0728413" lon="-105.2305756">
  <ele>1595.14</ele>
  <time>2026-08-27T18:31:02Z</time>
  <course>10.14</course>
  <speed>0.022360679774997897</speed>
  <fix>3d</fix>
</trkpt>
<trkpt lat="40.0728412" lon="-105.2305758">
  <ele>1595.04</ele>
  <time>2026-08-27T18:31:02Z</time>
  <course>277.15</course>
  <speed>0.1</speed>
  <fix>3d</fix>
</trkpt>
<trkpt lat="40.0728413" lon="-105.2305758">
  <ele>1595.14</ele>
  <time>2026-08-27T18:31:02Z</time>
  <course>10.88</course>
  <speed>0.01</speed>
  <fix>3d</fix>
</trkpt>
<trkpt lat="40.0728412" lon="-105.2305761">
  <ele>1595.05</ele>
  <time>2026-08-27T18:31:02Z</time>
  <course>284.3</course>
  <speed>0.08</speed>
  <fix>3d</fix>
</trkpt>
<trkpt lat="40.0728413" lon="-105.230576">
  <ele>1595.14</ele>
  <time>2026-08-27T18:31:02Z</time>
  <course>11.34</course>
  <speed>0.01414213562373095</speed>
  <fix>3d</fix>
</trkpt>
<trkpt lat="40.0728412" lon="-105.2305762">
  <ele>1595.05</ele>
  <time>2026-08-27T18:31:02Z</time>
  <course>295.41</course>
  <speed>0.06</speed>
  <fix>3d</fix>
</trkpt>
<trkpt lat="40.0728413" lon="-105.230576">
  <ele>1595.15</ele>
  <time>2026-08-27T18:31:02Z</time>
  <course>11.52</course>
  <speed>0.022360679774997897</speed>
  <fix>3d</fix>
</trkpt>
<trkpt lat="40.0728413" lon="-105.2305763">
  <ele>1595.05</ele>
  <time>2026-08-27T18:31:02Z</time>
  <course>314.93</course>
  <speed>0.04</speed>
  <fix>3d</fix>
</trkpt>
<trkpt lat="40.0728413" lon="-105.230576">
  <ele>1595.15</ele>
  <time>2026-08-27T18:31:02Z</time>
  <course>11.54</course>
  <speed>0.0412310562561766</speed>
  <fix>3d</fix>
</trkpt>
<trkpt lat="40.0728413" lon="-105.2305763">
  <ele>1595.05</ele>
  <time>2026-08-27T18:31:02Z</time>
  <course>344.9</course>
  <speed>0.03</speed>
  <fix>3d</fix>
</trkpt>
<trkpt lat="40.0728414" lon="-105.230576">
  <ele>1595.16</ele>
  <time>2026-08-27T18:31:02Z</time>
  <course>11.49</course>
  <speed>0.05099019513592785</speed>
  <fix>3d</fix>
</trkpt>
<trkpt lat="40.0728414" lon="-105.2305763">
  <ele>1595.05</ele>
  <time>2026-08-27T18:31:02Z</time>
  <course>13.19</course>
  <speed>0.04</speed>
  <fix>3d</fix>
</trkpt>
<trkpt lat="40.0728414" lon="-105.230576">
  <ele>1595.15</ele>
  <time>2026-08-27T18:31:02Z</time>
  <course>11.43</course>
  <speed>0.0632455532033676</speed>
  <fix>3d</fix>
</trkpt>
<trkpt lat="40.0728414" lon="-105.2305763">
  <ele>1595.04</ele>
  <time>2026-08-27T18:31:02Z</time>
  <course>30.2</course>
  <speed>0.05</speed>
  <fix>3d</fix>
</trkpt>
<trkpt lat="40.0728415" lon="-105.2305759">
  <ele>1595.15</ele>
  <time>2026-08-27T18:31:02Z</time>
  <course>11.39</course>
  <speed>0.07280109889280519</speed>
  <fix>3d</fix>
</trkpt>
<trkpt lat="40.0728415" lon="-105.2305763">
  <ele>1595.04</ele>
  <time>2026-08-27T18:31:02Z</time>
  <course>39.35</course>
  <speed>0.05</speed>
  <fix>3d</fix>
</trkpt>
<trkpt lat="40.0728415" lon="-105.2305758">
  <ele>1595.14</ele>
  <time>2026-08-27T18:31:02Z</time>
  <course>11.38</course>
  <speed>0.0824621125123532</speed>
  <fix>3d</fix>
</trkpt>
<trkpt lat="40.0728416" lon="-105.2305762">
  <ele>1595.04</ele>
  <time>2026-08-27T18:31:02Z</time>
  <course>44.88</course>
  <speed>0.06</speed>
  <fix>3d</fix>
</trkpt>
<trkpt lat="40.0728416" lon="-105.2305757">
  <ele>1595.14</ele>
  <time>2026-08-27T18:31:02Z</time>
  <course>11.37</course>
  <speed>0.0824621125123532</speed>
  <fix>3d</fix>
</trkpt>
<trkpt lat="40.0728417" lon="-105.2305761">
  <ele>1595.04</ele>
  <time>2026-08-27T18:31:02Z</time>
  <course>48.45</course>
  <speed>0.07</speed>
  <fix>3d</fix>
</trkpt>
<trkpt lat="40.0728417" lon="-105.2305756">
  <ele>1595.13</ele>
  <time>2026-08-27T18:31:02Z</time>
  <course>11.36</course>
  <speed>0.08062257748298549</speed>
  <fix>3d</fix>
</trkpt>
<trkpt lat="40.0728418" lon="-105.2305759">
  <ele>1595.03</ele>
  <time>2026-08-27T18:31:02Z</time>
  <course>51.03</course>
  <speed>0.07</speed>
  <fix>3d</fix>
</trkpt>
<trkpt lat="40.0728418" lon="-105.2305755">
  <ele>1595.13</ele>
  <time>2026-08-27T18:31:02Z</time>
  <course>11.36</course>
  <speed>0.08062257748298549</speed>
  <fix>3d</fix>
</trkpt>
<trkpt lat="40.0728419" lon="-105.2305758">
  <ele>1595.03</ele>
  <time>2026-08-27T18:31:02Z</time>
  <course>52.75</course>
  <speed>0.08</speed>
  <fix>3d</fix>
</trkpt>
<trkpt lat="40.0728418" lon="-105.2305753">
  <ele>1595.12</ele>
  <time>2026-08-27T18:31:02Z</time>
  <course>11.37</course>
  <speed>0.08062257748298549</speed>
  <fix>3d</fix>
</trkpt>
<trkpt lat="40.072842" lon="-105.2305757">
  <ele>1595.04</ele>
  <time>2026-08-27T18:31:02Z</time>
  <course>54.1</course>
  <speed>0.07</speed>
  <fix>3d</fix>
</trkpt>
<trkpt lat="40.0728419" lon="-105.2305752">
  <ele>1595.12</ele>
  <time>2026-08-27T18:31:02Z</time>
  <course>11.38</course>
  <speed>0.07071067811865475</speed>
  <fix>3d</fix>
</trkpt>
<trkpt lat="40.072842" lon="-105.2305755">
  <ele>1595.04</ele>
  <time>2026-08-27T18:31:02Z</time>
  <course>55.52</course>
  <speed>0.07</speed>
  <fix>3d</fix>
</trkpt>
<trkpt lat="40.072842" lon="-105.2305751">
  <ele>1595.13</ele>
  <time>2026-08-27T18:31:02Z</time>
  <course>11.39</course>
  <speed>0.07</speed>
  <fix>3d</fix>
</trkpt>
<trkpt lat="40.0728421" lon="-105.2305754">
  <ele>1595.04</ele>
  <time>2026-08-27T18:31:02Z</time>
  <course>56.55</course>
  <speed>0.07</speed>
  <fix>3d</fix>
</trkpt>
<trkpt lat="40.072842" lon="-105.230575">
  <ele>1595.14</ele>
  <time>2026-08-27T18:31:02Z</time>
  <course>11.42</course>
  <speed>0.06</speed>
  <fix>3d</fix>
</trkpt>
<trkpt lat="40.0728422" lon="-105.2305753">
  <ele>1595.04</ele>
  <time>2026-08-27T18:31:02Z</time>
  <course>57.21</course>
  <speed>0.06</speed>
  <fix>3d</fix>
</trkpt>
<trkpt lat="40.0728421" lon="-105.2305749">
  <ele>1595.14</ele>
  <time>2026-08-27T18:31:02Z</time>
  <course>11.43</course>
  <speed>0.05</speed>
  <fix>3d</fix>
</trkpt>
<trkpt lat="40.0728423" lon="-105.2305751">
  <ele>1595.05</ele>
  <time>2026-08-27T18:31:02Z</time>
  <course>57.68</course>
  <speed>0.05</speed>
  <fix>3d</fix>
</trkpt>
<trkpt lat="40.0728421" lon="-105.2305748">
  <ele>1595.13</ele>
  <time>2026-08-27T18:31:02Z</time>
  <course>11.44</course>
  <speed>0.05</speed>
  <fix>3d</fix>
</trkpt>
<trkpt lat="40.0728423" lon="-105.230575">
  <ele>1595.05</ele>
  <time>2026-08-27T18:31:02Z</time>
  <course>58.04</course>
  <speed>0.05</speed>
  <fix>3d</fix>
</trkpt>
<trkpt lat="40.0728422" lon="-105.2305747">
  <ele>1595.13</ele>
  <time>2026-08-27T18:31:02Z</time>
  <course>11.45</course>
  <speed>0.04</speed>
  <fix>3d</fix>
</trkpt>
<trkpt lat="40.0728424" lon="-105.2305749">
  <ele>1595.05</ele>
  <time>2026-08-27T18:31:02Z</time>
  <course>58.45</course>
  <speed>0.04</speed>
  <fix>3d</fix>
</trkpt>
<trkpt lat="40.0728422" lon="-105.2305747">
  <ele>1595.13</ele>
  <time>2026-08-27T18:31:02Z</time>
  <course>11.45</course>
  <speed>0.0316227766016838</speed>
  <fix>3d</fix>
</trkpt>
<trkpt lat="40.0728424" lon="-105.2305748">
  <ele>1595.05</ele>
  <time>2026-08-27T18:31:02Z</time>
  <course>59.17</course>
  <speed>0.03</speed>
  <fix>3d</fix>
</trkpt>
<trkpt lat="40.0728422" lon="-105.2305746">
  <ele>1595.13</ele>
  <time>2026-08-27T18:31:02Z</time>
  <course>11.45</course>
  <speed>0.022360679774997897</speed>
  <fix>3d</fix>
</trkpt>
<trkpt lat="40.0728424" lon="-105.2305748">
  <ele>1595.05</ele>
  <time>2026-08-27T18:31:02Z</time>
  <course>60.01</course>
  <speed>0.02</speed>
  <fix>3d</fix>
</trkpt>
<trkpt lat="40.0728422" lon="-105.2305746">
  <ele>1595.13</ele>
  <time>2026-08-27T18:31:02Z</time>
  <course>11.45</course>
  <speed>0.01414213562373095</speed>
  <fix>3d</fix>
</trkpt>
<trkpt lat="40.0728425" lon="-105.2305748">
  <ele>1595.05</ele>
  <time>2026-08-27T18:31:02Z</time>
  <course>60.39</course>
  <speed>0.01</speed>
  <fix>3d</fix>
</trkpt>
<trkpt lat="40.0728423" lon="-105.2305746">
  <ele>1595.13</ele>
  <time>2026-08-27T18:31:02Z</time>
  <course>11.45</course>
  <speed>0.022360679774997897</speed>
  <fix>3d</fix>
</trkpt>
<trkpt lat="40.0728425" lon="-105.2305748">
  <ele>1595.05</ele>
  <time>2026-08-27T18:31:02Z</time>
  <course>60.71</course>
  <speed>0.0</speed>
  <fix>3d</fix>
</trkpt>
<trkpt lat="40.0728423" lon="-105.2305746">
  <ele>1595.13</ele>
  <time>2026-08-27T18:31:02Z</time>
  <course>11.45</course>
  <speed>0.02</speed>
  <fix>3d</fix>
</trkpt>
<trkpt lat="40.0728425" lon="-105.2305748">
  <ele>1595.05</ele>
  <time>2026-08-27T18:31:02Z</time>
  <course>126.54</course>
  <speed>0.0</speed>
  <fix>3d</fix>
</trkpt>
<trkpt lat="40.0728423" lon="-105.2305746">
  <ele>1595.13</ele>
  <time>2026-08-27T18:31:02Z</time>
  <course>11.45</course>
  <speed>0.02</speed>
  <fix>3d</fix>
</trkpt>
<trkpt lat="40.0728425" lon="-105.2305748">
  <ele>1595.06</ele>
  <time>2026-08-27T18:31:02Z</time>
  <course>237.02</course>
  <speed>0.0</speed>
  <fix>3d</fix>
</trkpt>
<trkpt lat="40.0728423" lon="-105.2305746">
  <ele>1595.13</ele>
  <time>2026-08-27T18:31:02Z</time>
  <course>11.45</course>
  <speed>0.03</speed>
  <fix>3d</fix>
</trkpt>
<trkpt lat="40.0728425" lon="-105.2305748">
  <ele>1595.06</ele>
  <time>2026-08-27T18:31:02Z</time>
  <course>237.41</course>
  <speed>0.01</speed>
  <fix>3d</fix>
</trkpt>
<trkpt lat="40.0728423" lon="-105.2305746">
  <ele>1595.09</ele>
  <time>2026-08-27T18:31:02Z</time>
  <course>11.45</course>
  <speed>0.03</speed>
  <fix>3d</fix>
</trkpt>
<trkpt lat="40.0728425" lon="-105.2305748">
  <ele>1595.04</ele>
  <time>2026-08-27T18:31:02Z</time>
  <course>237.51</course>
  <speed>0.01</speed>
  <fix>3d</fix>
</trkpt>
<trkpt lat="40.0728423" lon="-105.2305747">
  <ele>1595.02</ele>
  <time>2026-08-27T18:31:02Z</time>
  <course>11.45</course>
  <speed>0.03</speed>
  <fix>3d</fix>
</trkpt>
<trkpt lat="40.0728425" lon="-105.2305748">
  <ele>1595.0</ele>
  <time>2026-08-27T18:31:02Z</time>
  <course>237.56</course>
  <speed>0.01</speed>
  <fix>3d</fix>
</trkpt>
<trkpt lat="40.0728423" lon="-105.2305747">
  <ele>1594.93</ele>
  <time>2026-08-27T18:31:02Z</time>
  <course>11.45</course>
  <speed>0.03</speed>
  <fix>3d</fix>
</trkpt>
<trkpt lat="40.0728425" lon="-105.2305748">
  <ele>1594.92</ele>
  <time>2026-08-27T18:31:02Z</time>
  <course>237.28</course>
  <speed>0.02</speed>
  <fix>3d</fix>
</trkpt>
<trkpt lat="40.0728423" lon="-105.2305748">
  <ele>1594.82</ele>
  <time>2026-08-27T18:31:02Z</time>
  <course>11.45</course>
  <speed>0.0316227766016838</speed>
  <fix>3d</fix>
</trkpt>
<trkpt lat="40.0728425" lon="-105.2305748">
  <ele>1594.82</ele>
  <time>2026-08-27T18:31:02Z</time>
  <course>237.15</course>
  <speed>0.02</speed>
  <fix>3d</fix>
</trkpt>
<trkpt lat="40.0728423" lon="-105.2305748">
  <ele>1594.72</ele>
  <time>2026-08-27T18:31:02Z</time>
  <course>11.44</course>
  <speed>0.0316227766016838</speed>
  <fix>3d</fix>
</trkpt>
<trkpt lat="40.0728425" lon="-105.2305748">
  <ele>1594.71</ele>
  <time>2026-08-27T18:31:02Z</time>
  <course>237.81</course>
  <speed>0.02</speed>
  <fix>3d</fix>
</trkpt>
<trkpt lat="40.0728423" lon="-105.2305748">
  <ele>1594.61</ele>
  <time>2026-08-27T18:31:02Z</time>
  <course>11.44</course>
  <speed>0.0316227766016838</speed>
  <fix>3d</fix>
</trkpt>
<trkpt lat="40.0728424" lon="-105.2305749">
  <ele>1594.61</ele>
  <time>2026-08-27T18:31:02Z</time>
  <course>238.55</course>
  <speed>0.02</speed>
  <fix>3d</fix>
</trkpt>
<trkpt lat="40.0728423" lon="-105.2305749">
  <ele>1594.51</ele>
  <time>2026-08-27T18:31:02Z</time>
  <course>11.44</course>
  <speed>0.0316227766016838</speed>
  <fix>3d</fix>
</trkpt>
<trkpt lat="40.0728424" lon="-105.230575">
  <ele>1594.5</ele>
  <time>2026-08-27T18:31:02Z</time>
  <course>238.83</course>
  <speed>0.02</speed>
  <fix>3d</fix>
</trkpt>
<trkpt lat="40.0728422" lon="-105.2305749">
  <ele>1594.4</ele>
  <time>2026-08-27T18:31:02Z</time>
  <course>11.44</course>
  <speed>0.0316227766016838</speed>
  <fix>3d</fix>
</trkpt>
<trkpt lat="40.0728424" lon="-105.230575">
  <ele>1594.39</ele>
  <time>2026-08-27T18:31:02Z</time>
  <course>239.35</course>
  <speed>0.02</speed>
  <fix>3d</fix>
</trkpt>
<trkpt lat="40.0728422" lon="-105.230575">
  <ele>1594.3</ele>
  <time>2026-08-27T18:31:02Z</time>
  <course>11.44</course>
  <speed>0.03</speed>
  <fix>3d</fix>
</trkpt>
<trkpt lat="40.0728423" lon="-105.2305751">
  <ele>1594.3</ele>
  <time>2026-08-27T18:31:02Z</time>
  <course>240.23</course>
  <speed>0.02</speed>
  <fix>3d</fix>
</trkpt>
<trkpt lat="40.0728422" lon="-105.230575">
  <ele>1594.2</ele>
  <time>2026-08-27T18:31:02Z</time>
  <course>11.44</course>
  <speed>0.03</speed>
  <fix>3d</fix>
</trkpt>
<trkpt lat="40.0728423" lon="-105.2305751">
  <ele>1594.2</ele>
  <time>2026-08-27T18:31:02Z</time>
  <course>241.25</course>
  <speed>0.02</speed>
  <fix>3d</fix>
</trkpt>
<trkpt lat="40.0728422" lon="-105.2305751">
  <ele>1594.1</ele>
  <time>2026-08-27T18:31:02Z</time>
  <course>11.44</course>
  <speed>0.02</speed>
  <fix>3d</fix>
</trkpt>
<trkpt lat="40.0728423" lon="-105.2305751">
  <ele>1594.1</ele>
  <time>2026-08-27T18:31:02Z</time>
  <course>242.72</course>
  <speed>0.02</speed>
  <fix>3d</fix>
</trkpt>
<trkpt lat="40.0728422" lon="-105.2305751">
  <ele>1594.0</ele>
  <time>2026-08-27T18:31:02Z</time>
  <course>11.44</course>
  <speed>0.02</speed>
  <fix>3d</fix>
</trkpt>
<trkpt lat="40.0728423" lon="-105.2305752">
  <ele>1594.0</ele>
  <time>2026-08-27T18:31:02Z</time>
  <course>245.25</course>
  <speed>0.02</speed>
  <fix>3d</fix>
</trkpt>
<trkpt lat="40.0728422" lon="-105.2305751">
  <ele>1593.9</ele>
  <time>2026-08-27T18:31:02Z</time>
  <course>11.44</course>
  <speed>0.02</speed>
  <fix>3d</fix>
</trkpt>
<trkpt lat="40.0728423" lon="-105.2305753">
  <ele>1593.89</ele>
  <time>2026-08-27T18:31:02Z</time>
  <course>248.33</course>
  <speed>0.02</speed>
  <fix>3d</fix>
</trkpt>
<trkpt lat="40.0728422" lon="-105.2305752">
  <ele>1593.8</ele>
  <time>2026-08-27T18:31:02Z</time>
  <course>11.44</course>
  <speed>0.02</speed>
  <fix>3d</fix>
</trkpt>
<trkpt lat="40.0728423" lon="-105.2305753">
  <ele>1593.8</ele>
  <time>2026-08-27T18:31:02Z</time>
  <course>251.2</course>
  <speed>0.01</speed>
  <fix>3d</fix>
</trkpt>
<trkpt lat="40.0728422" lon="-105.2305752">
  <ele>1593.7</ele>
  <time>2026-08-27T18:31:02Z</time>
  <course>11.44</course>
  <speed>0.02</speed>
  <fix>3d</fix>
</trkpt>
<trkpt lat="40.0728423" lon="-105.2305753">
  <ele>1593.7</ele>
  <time>2026-08-27T18:31:02Z</time>
  <course>253.32</course>
  <speed>0.01</speed>
  <fix>3d</fix>
</trkpt>
<trkpt lat="40.0728422" lon="-105.2305752">
  <ele>1593.6</ele>
  <time>2026-08-27T18:31:02Z</time>
  <course>11.44</course>
  <speed>0.02</speed>
  <fix>3d</fix>
</trkpt>
<trkpt lat="40.0728423" lon="-105.2305753">
  <ele>1593.6</ele>
  <time>2026-08-27T18:31:02Z</time>
  <course>253.98</course>
  <speed>0.01</speed>
  <fix>3d</fix>
</trkpt>
<trkpt lat="40.0728422" lon="-105.2305752">
  <ele>1593.51</ele>
  <time>2026-08-27T18:31:02Z</time>
  <course>11.44</course>
  <speed>0.022360679774997897</speed>
  <fix>3d</fix>
</trkpt>
<trkpt lat="40.0728422" lon="-105.2305754">
  <ele>1593.5</ele>
  <time>2026-08-27T18:31:02Z</time>
  <course>254.44</course>
  <speed>0.0</speed>
  <fix>3d</fix>
</trkpt>
<trkpt lat="40.0728422" lon="-105.2305752">
  <ele>1593.41</ele>
  <time>2026-08-27T18:31:02Z</time>
  <course>11.44</course>
  <speed>0.022360679774997897</speed>
  <fix>3d</fix>
</trkpt>
<trkpt lat="40.0728421" lon="-105.2305755">
  <ele>1593.39</ele>
  <time>2026-08-27T18:31:02Z</time>
  <course>259.26</course>
  <speed>0.0</speed>
  <fix>3d</fix>
</trkpt>
<trkpt lat="40.0728421" lon="-105.2305752">
  <ele>1593.3</ele>
  <time>2026-08-27T18:31:02Z</time>
  <course>11.43</course>
  <speed>0.01414213562373095</speed>
  <fix>3d</fix>
</trkpt>
<trkpt lat="40.0728421" lon="-105.2305755">
  <ele>1593.3</ele>
  <time>2026-08-27T18:31:02Z</time>
  <course>268.55</course>
  <speed>0.0</speed>
  <fix>3d</fix>
</trkpt>
<trkpt lat="40.0728421" lon="-105.2305752">
  <ele>1593.2</ele>
  <time>2026-08-27T18:31:02Z</time>
  <course>11.43</course>
  <speed>0.01414213562373095</speed>
  <fix>3d</fix>
</trkpt>
<trkpt lat="40.0728421" lon="-105.2305755">
  <ele>1593.2</ele>
  <time>2026-08-27T18:31:02Z</time>
  <course>288.19</course>
  <speed>0.0</speed>
  <fix>3d</fix>
</trkpt>
<trkpt lat="40.0728421" lon="-105.2305753">
  <ele>1593.1</ele>
  <time>2026-08-27T18:31:02Z</time>
  <course>11.43</course>
  <speed>0.01414213562373095</speed>
  <fix>3d</fix>
</trkpt>
<trkpt lat="40.0728421" lon="-105.2305755">
  <ele>1593.1</ele>
  <time>2026-08-27T18:31:02Z</time>
  <course>325.59</course>
  <speed>0.0</speed>
  <fix>3d</fix>
</trkpt>
<trkpt lat="40.0728421" lon="-105.2305753">
  <ele>1593.0</ele>
  <time>2026-08-27T18:31:02Z</time>
  <course>11.43</course>
  <speed>0.01414213562373095</speed>
  <fix>3d</fix>
</trkpt>
<trkpt lat="40.0728421" lon="-105.2305755">
  <ele>1593.0</ele>
  <time>2026-08-27T18:31:02Z</time>
  <course>352.88</course>
  <speed>0.0</speed>
  <fix>3d</fix>
</trkpt>
<trkpt lat="40.0728421" lon="-105.2305753">
  <ele>1592.9</ele>
  <time>2026-08-27T18:31:02Z</time>
  <course>11.43</course>
  <speed>0.01414213562373095</speed>
  <fix>3d</fix>
</trkpt>
<trkpt lat="40.0728421" lon="-105.2305755">
  <ele>1592.89</ele>
  <time>2026-08-27T18:31:02Z</time>
  <course>7.01</course>
  <speed>0.0</speed>
  <fix>3d</fix>
</trkpt>
<trkpt lat="40.0728421" lon="-105.2305753">
  <ele>1592.8</ele>
  <time>2026-08-27T18:31:02Z</time>
  <course>11.43</course>
  <speed>0.022360679774997897</speed>
  <fix>3d</fix>
</trkpt>
<trkpt lat="40.0728421" lon="-105.2305755">
  <ele>1592.8</ele>
  <time>2026-08-27T18:31:02Z</time>
  <course>14.0</course>
  <speed>0.0</speed>
  <fix>3d</fix>
</trkpt>
<trkpt lat="40.0728421" lon="-105.2305753">
  <ele>1592.69</ele>
  <time>2026-08-27T18:31:02Z</time>
  <course>11.43</course>
  <speed>0.022360679774997897</speed>
  <fix>3d</fix>
</trkpt>
<trkpt lat="40.0728421" lon="-105.2305755">
  <ele>1592.7</ele>
  <time>2026-08-27T18:31:02Z</time>
  <course>17.76</course>
  <speed>0.01</speed>
  <fix>3d</fix>
</trkpt>
<trkpt lat="40.0728421" lon="-105.2305753">
  <ele>1592.59</ele>
  <time>2026-08-27T18:31:02Z</time>
  <course>11.42</course>
  <speed>0.022360679774997897</speed>
  <fix>3d</fix>
</trkpt>
<trkpt lat="40.0728421" lon="-105.2305755">
  <ele>1592.6</ele>
  <time>2026-08-27T18:31:02Z</time>
  <course>20.36</course>
  <speed>0.01</speed>
  <fix>3d</fix>
</trkpt>
<trkpt lat="40.0728421" lon="-105.2305753">
  <ele>1592.49</ele>
  <time>2026-08-27T18:31:02Z</time>
  <course>11.42</course>
  <speed>0.022360679774997897</speed>
  <fix>3d</fix>
</trkpt>
<trkpt lat="40.0728422" lon="-105.2305755">
  <ele>1592.5</ele>
  <time>2026-08-27T18:31:02Z</time>
  <course>21.67</course>
  <speed>0.01</speed>
  <fix>3d</fix>
</trkpt>
<trkpt lat="40.0728421" lon="-105.2305753">
  <ele>1592.4</ele>
  <time>2026-08-27T18:31:02Z</time>
  <course>11.42</course>
  <speed>0.022360679774997897</speed>
  <fix>3d</fix>
</trkpt>
<trkpt lat="40.0728423" lon="-105.2305755">
  <ele>1592.39</ele>
  <time>2026-08-27T18:31:02Z</time>
  <course>24.18</course>
  <speed>0.01</speed>
  <fix>3d</fix>
</trkpt>
<trkpt lat="40.0728421" lon="-105.2305753">
  <ele>1592.3</ele>
  <time>2026-08-27T18:31:02Z</time>
  <course>11.42</course>
  <speed>0.022360679774997897</speed>
  <fix>3d</fix>
</trkpt>
<trkpt lat="40.0728423" lon="-105.2305755">
  <ele>1592.3</ele>
  <time>2026-08-27T18:31:02Z</time>
  <course>27.74</course>
  <speed>0.01</speed>
  <fix>3d</fix>
</trkpt>
<trkpt lat="40.0728421" lon="-105.2305753">
  <ele>1592.2</ele>
  <time>2026-08-27T18:31:02Z</time>
  <course>11.42</course>
  <speed>0.022360679774997897</speed>
  <fix>3d</fix>
</trkpt>
<trkpt lat="40.0728423" lon="-105.2305755">
  <ele>1592.21</ele>
  <time>2026-08-27T18:31:02Z</time>
  <course>29.46</course>
  <speed>0.01</speed>
  <fix>3d</fix>
</trkpt>
<trkpt lat="40.0728421" lon="-105.2305753">
  <ele>1592.1</ele>
  <time>2026-08-27T18:31:02Z</time>
  <course>11.42</course>
  <speed>0.022360679774997897</speed>
  <fix>3d</fix>
</trkpt>
<trkpt lat="40.0728423" lon="-105.2305755">
  <ele>1592.11</ele>
  <time>2026-08-27T18:31:02Z</time>
  <course>31.32</course>
  <speed>0.01</speed>
  <fix>3d</fix>
</trkpt>
<trkpt lat="40.0728421" lon="-105.2305753">
  <ele>1592.01</ele>
  <time>2026-08-27T18:31:02Z</time>
  <course>11.42</course>
  <speed>0.022360679774997897</speed>
  <fix>3d</fix>
</trkpt>
<trkpt lat="40.0728423" lon="-105.2305755">
  <ele>1592.01</ele>
  <time>2026-08-27T18:31:02Z</time>
  <course>34.79</course>
  <speed>0.01</speed>
  <fix>3d</fix>
</trkpt>
<trkpt lat="40.0728421" lon="-105.2305753">
  <ele>1591.91</ele>
  <time>2026-08-27T18:31:02Z</time>
  <course>11.42</course>
  <speed>0.022360679774997897</speed>
  <fix>3d</fix>
</trkpt>
<trkpt lat="40.0728424" lon="-105.2305755">
  <ele>1591.9</ele>
  <time>2026-08-27T18:31:02Z</time>
  <course>38.68</course>
  <speed>0.01</speed>
  <fix>3d</fix>
</trkpt>
<trkpt lat="40.0728422" lon="-105.2305753">
  <ele>1591.81</ele>
  <time>2026-08-27T18:31:02Z</time>
  <course>11.42</course>
  <speed>0.022360679774997897</speed>
  <fix>3d</fix>
</trkpt>
<trkpt lat="40.0728424" lon="-105.2305755">
  <ele>1591.81</ele>
  <time>2026-08-27T18:31:02Z</time>
  <course>42.66</course>
  <speed>0.01</speed>
  <fix>3d</fix>
</trkpt>
<trkpt lat="40.0728422" lon="-105.2305753">
  <ele>1591.71</ele>
  <time>2026-08-27T18:31:02Z</time>
  <course>11.42</course>
  <speed>0.022360679774997897</speed>
  <fix>3d</fix>
</trkpt>
<trkpt lat="40.0728424" lon="-105.2305754">
  <ele>1591.7</ele>
  <time>2026-08-27T18:31:02Z</time>
  <course>48.19</course>
  <speed>0.0</speed>
  <fix>3d</fix>
</trkpt>
<trkpt lat="40.0728422" lon="-105.2305753">
  <ele>1591.61</ele>
  <time>2026-08-27T18:31:02Z</time>
  <course>11.42</course>
  <speed>0.022360679774997897</speed>
  <fix>3d</fix>
</trkpt>
<trkpt lat="40.0728424" lon="-105.2305753">
  <ele>1591.6</ele>
  <time>2026-08-27T18:31:02Z</time>
  <course>55.91</course>
  <speed>0.0</speed>
  <fix>3d</fix>
</trkpt>
<trkpt lat="40.0728422" lon="-105.2305752">
  <ele>1591.51</ele>
  <time>2026-08-27T18:31:02Z</time>
  <course>11.42</course>
  <speed>0.0282842712474619</speed>
  <fix>3d</fix>
</trkpt>
<trkpt lat="40.0728424" lon="-105.2305753">
  <ele>1591.5</ele>
  <time>2026-08-27T18:31:02Z</time>
  <course>67.27</course>
  <speed>0.0</speed>
  <fix>3d</fix>
</trkpt>
<trkpt lat="40.0728422" lon="-105.2305752">
  <ele>1591.4</ele>
  <time>2026-08-27T18:31:02Z</time>
  <course>11.42</course>
  <speed>0.0282842712474619</speed>
  <fix>3d</fix>
</trkpt>
<trkpt lat="40.0728424" lon="-105.2305753">
  <ele>1591.39</ele>
  <time>2026-08-27T18:31:02Z</time>
  <course>82.16</course>
  <speed>0.0</speed>
  <fix>3d</fix>
</trkpt>
<trkpt lat="40.0728422" lon="-105.2305752">
  <ele>1591.3</ele>
  <time>2026-08-27T18:31:02Z</time>
  <course>11.42</course>
  <speed>0.0282842712474619</speed>
  <fix>3d</fix>
</trkpt>
<trkpt lat="40.0728424" lon="-105.2305753">
  <ele>1591.3</ele>
  <time>2026-08-27T18:31:02Z</time>
  <course>96.42</course>
  <speed>0.0</speed>
  <fix>3d</fix>
</trkpt>
<trkpt lat="40.0728422" lon="-105.2305752">
  <ele>1591.2</ele>
  <time>2026-08-27T18:31:02Z</time>
  <course>11.42</course>
  <speed>0.022360679774997897</speed>
  <fix>3d</fix>
</trkpt>
<trkpt lat="40.0728424" lon="-105.2305753">
  <ele>1591.2</ele>
  <time>2026-08-27T18:31:02Z</time>
  <course>109.87</course>
  <speed>0.0</speed>
  <fix>3d</fix>
</trkpt>
<trkpt lat="40.0728422" lon="-105.2305752">
  <ele>1591.1</ele>
  <time>2026-08-27T18:31:02Z</time>
  <course>11.42</course>
  <speed>0.022360679774997897</speed>
  <fix>3d</fix>
</trkpt>
<trkpt lat="40.0728424" lon="-105.2305753">
  <ele>1591.1</ele>
  <time>2026-08-27T18:31:02Z</time>
  <course>128.26</course>
  <speed>0.0</speed>
  <fix>3d</fix>
</trkpt>
<trkpt lat="40.0728422" lon="-105.2305752">
  <ele>1591.0</ele>
  <time>2026-08-27T18:31:02Z</time>
  <course>11.42</course>
  <speed>0.022360679774997897</speed>
  <fix>3d</fix>
</trkpt>
<trkpt lat="40.0728424" lon="-105.2305753">
  <ele>1591.0</ele>
  <time>2026-08-27T18:31:02Z</time>
  <course>148.78</course>
  <speed>0.0</speed>
  <fix>3d</fix>
</trkpt>
<trkpt lat="40.0728422" lon="-105.2305752">
  <ele>1590.9</ele>
  <time>2026-08-27T18:31:02Z</time>
  <course>11.42</course>
  <speed>0.022360679774997897</speed>
  <fix>3d</fix>
</trkpt>
<trkpt lat="40.0728424" lon="-105.2305753">
  <ele>1590.89</ele>
  <time>2026-08-27T18:31:02Z</time>
  <course>165.31</course>
  <speed>0.0</speed>
  <fix>3d</fix>
</trkpt>
<trkpt lat="40.0728422" lon="-105.2305752">
  <ele>1590.8</ele>
  <time>2026-08-27T18:31:02Z</time>
  <course>11.42</course>
  <speed>0.022360679774997897</speed>
  <fix>3d</fix>
</trkpt>
<trkpt lat="40.0728424" lon="-105.2305753">
  <ele>1590.8</ele>
  <time>2026-08-27T18:31:02Z</time>
  <course>178.5</course>
  <speed>0.0</speed>
  <fix>3d</fix>
</trkpt>
<trkpt lat="40.0728422" lon="-105.2305752">
  <ele>1590.7</ele>
  <time>2026-08-27T18:31:02Z</time>
  <course>11.42</course>
  <speed>0.022360679774997897</speed>
  <fix>3d</fix>
</trkpt>
<trkpt lat="40.0728424" lon="-105.2305753">
  <ele>1590.7</ele>
  <time>2026-08-27T18:31:02Z</time>
  <course>190.4</course>
  <speed>0.0</speed>
  <fix>3d</fix>
</trkpt>
<trkpt lat="40.0728422" lon="-105.2305752">
  <ele>1590.6</ele>
  <time>2026-08-27T18:31:02Z</time>
  <course>11.42</course>
  <speed>0.022360679774997897</speed>
  <fix>3d</fix>
</trkpt>
<trkpt lat="40.0728424" lon="-105.2305753">
  <ele>1590.6</ele>
  <time>2026-08-27T18:31:02Z</time>
  <course>194.86</course>
  <speed>0.0</speed>
  <fix>3d</fix>
</trkpt>
<trkpt lat="40.0728422" lon="-105.2305752">
  <ele>1590.5</ele>
  <time>2026-08-27T18:31:02Z</time>
  <course>11.42</course>
  <speed>0.022360679774997897</speed>
  <fix>3d</fix>
</trkpt>
<trkpt lat="40.0728424" lon="-105.2305753">
  <ele>1590.5</ele>
  <time>2026-08-27T18:31:02Z</time>
  <course>196.85</course>
  <speed>0.0</speed>
  <fix>3d</fix>
</trkpt>
<trkpt lat="40.0728422" lon="-105.2305752">
  <ele>1590.4</ele>
  <time>2026-08-27T18:31:02Z</time>
  <course>11.42</course>
  <speed>0.022360679774997897</speed>
  <fix>3d</fix>
</trkpt>
<trkpt lat="40.0728424" lon="-105.2305753">
  <ele>1590.39</ele>
  <time>2026-08-27T18:31:02Z</time>
  <course>200.18</course>
  <speed>0.0</speed>
  <fix>3d</fix>
</trkpt>
<trkpt lat="40.0728422" lon="-105.2305752">
  <ele>1590.3</ele>
  <time>2026-08-27T18:31:02Z</time>
  <course>11.42</course>
  <speed>0.022360679774997897</speed>
  <fix>3d</fix>
</trkpt>
<trkpt lat="40.0728424" lon="-105.2305753">
  <ele>1590.3</ele>
  <time>2026-08-27T18:31:02Z</time>
  <course>202.31</course>
  <speed>0.0</speed>
  <fix>3d</fix>
</trkpt>
<trkpt lat="40.0728422" lon="-105.2305752">
  <ele>1590.2</ele>
  <time>2026-08-27T18:31:02Z</time>
  <course>11.42</course>
  <speed>0.022360679774997897</speed>
  <fix>3d</fix>
</trkpt>
<trkpt lat="40.0728424" lon="-105.2305753">
  <ele>1590.2</ele>
  <time>2026-08-27T18:31:02Z</time>
  <course>198.63</course>
  <speed>0.0</speed>
  <fix>3d</fix>
</trkpt>
<trkpt lat="40.0728422" lon="-105.2305752">
  <ele>1590.1</ele>
  <time>2026-08-27T18:31:02Z</time>
  <course>11.42</course>
  <speed>0.022360679774997897</speed>
  <fix>3d</fix>
</trkpt>
<trkpt lat="40.0728424" lon="-105.2305753">
  <ele>1590.1</ele>
  <time>2026-08-27T18:31:02Z</time>
  <course>194.84</course>
  <speed>0.0</speed>
  <fix>3d</fix>
</trkpt>
<trkpt lat="40.0728422" lon="-105.2305752">
  <ele>1590.0</ele>
  <time>2026-08-27T18:31:02Z</time>
  <course>11.42</course>
  <speed>0.022360679774997897</speed>
  <fix>3d</fix>
</trkpt>
<trkpt lat="40.0728424" lon="-105.2305753">
  <ele>1590.0</ele>
  <time>2026-08-27T18:31:02Z</time>
  <course>199.41</course>
  <speed>0.0</speed>
  <fix>3d</fix>
</trkpt>
<trkpt lat="40.0728422" lon="-105.2305752">
  <ele>1589.9</ele>
  <time>2026-08-27T18:31:02Z</time>
  <course>11.42</course>
  <speed>0.022360679774997897</speed>
  <fix>3d</fix>
</trkpt>
<trkpt lat="40.0728424" lon="-105.2305753">
  <ele>1589.89</ele>
  <time>2026-08-27T18:31:02Z</time>
  <course>207.56</course>
  <speed>0.0</speed>
  <fix>3d</fix>
</trkpt>
<trkpt lat="40.0728422" lon="-105.2305752">
  <ele>1589.81</ele>
  <time>2026-08-27T18:31:02Z</time>
  <course>11.42</course>
  <speed>0.022360679774997897</speed>
  <fix>3d</fix>
</trkpt>
<trkpt lat="40.0728424" lon="-105.2305753">
  <ele>1589.8</ele>
  <time>2026-08-27T18:31:02Z</time>
  <course>210.53</course>
  <speed>0.0</speed>
  <fix>3d</fix>
</trkpt>
<trkpt lat="40.0728422" lon="-105.2305752">
  <ele>1589.71</ele>
  <time>2026-08-27T18:31:02Z</time>
  <course>11.41</course>
  <speed>0.022360679774997897</speed>
  <fix>3d</fix>
</trkpt>
<trkpt lat="40.0728424" lon="-105.2305753">
  <ele>1589.7</ele>
  <time>2026-08-27T18:31:02Z</time>
  <course>209.71</course>
  <speed>0.0</speed>
  <fix>3d</fix>
</trkpt>
<trkpt lat="40.0728422" lon="-105.2305752">
  <ele>1589.6</ele>
  <time>2026-08-27T18:31:02Z</time>
  <course>11.41</course>
  <speed>0.022360679774997897</speed>
  <fix>3d</fix>
</trkpt>
<trkpt lat="40.0728423" lon="-105.2305753">
  <ele>1589.6</ele>
  <time>2026-08-27T18:31:02Z</time>
  <course>210.6</course>
  <speed>0.0</speed>
  <fix>3d</fix>
</trkpt>
<trkpt lat="40.0728422" lon="-105.2305752">
  <ele>1589.5</ele>
  <time>2026-08-27T18:31:02Z</time>
  <course>11.41</course>
  <speed>0.022360679774997897</speed>
  <fix>3d</fix>
</trkpt>
<trkpt lat="40.0728423" lon="-105.2305753">
  <ele>1589.5</ele>
  <time>2026-08-27T18:31:02Z</time>
  <course>211.13</course>
  <speed>0.0</speed>
  <fix>3d</fix>
</trkpt>
<trkpt lat="40.0728422" lon="-105.2305752">
  <ele>1589.4</ele>
  <time>2026-08-27T18:31:02Z</time>
  <course>11.41</course>
  <speed>0.022360679774997897</speed>
  <fix>3d</fix>
</trkpt>
<trkpt lat="40.0728423" lon="-105.2305753">
  <ele>1589.39</ele>
  <time>2026-08-27T18:31:02Z</time>
  <course>208.79</course>
  <speed>0.0</speed>
  <fix>3d</fix>
</trkpt>
<trkpt lat="40.0728422" lon="-105.2305752">
  <ele>1589.29</ele>
  <time>2026-08-27T18:31:02Z</time>
  <course>11.41</course>
  <speed>0.022360679774997897</speed>
  <fix>3d</fix>
</trkpt>
<trkpt lat="40.0728423" lon="-105.2305753">
  <ele>1589.3</ele>
  <time>2026-08-27T18:31:02Z</time>
  <course>207.07</course>
  <speed>0.0</speed>
  <fix>3d</fix>
</trkpt>
<trkpt lat="40.0728422" lon="-105.2305752">
  <ele>1589.19</ele>
  <time>2026-08-27T18:31:02Z</time>
  <course>11.41</course>
  <speed>0.022360679774997897</speed>
  <fix>3d</fix>
</trkpt>
<trkpt lat="40.0728423" lon="-105.2305753">
  <ele>1589.2</ele>
  <time>2026-08-27T18:31:02Z</time>
  <course>213.15</course>
  <speed>0.0</speed>
  <fix>3d</fix>
</trkpt>
<trkpt lat="40.0728422" lon="-105.2305752">
  <ele>1589.09</ele>
  <time>2026-08-27T18:31:02Z</time>
  <course>11.41</course>
  <speed>0.022360679774997897</speed>
  <fix>3d</fix>
</trkpt>
<trkpt lat="40.0728423" lon="-105.2305753">
  <ele>1589.1</ele>
  <time>2026-08-27T18:31:02Z</time>
  <course>223.16</course>
  <speed>0.0</speed>
  <fix>3d</fix>
</trkpt>
<trkpt lat="40.0728422" lon="-105.2305752">
  <ele>1588.99</ele>
  <time>2026-08-27T18:31:02Z</time>
  <course>11.41</course>
  <speed>0.022360679774997897</speed>
  <fix>3d</fix>
</trkpt>
<trkpt lat="40.0728423" lon="-105.2305753">
  <ele>1589.0</ele>
  <time>2026-08-27T18:31:02Z</time>
  <course>229.83</course>
  <speed>0.0</speed>
  <fix>3d</fix>
</trkpt>
<trkpt lat="40.0728422" lon="-105.2305752">
  <ele>1588.9</ele>
  <time>2026-08-27T18:31:02Z</time>
  <course>11.41</course>
  <speed>0.01414213562373095</speed>
  <fix>3d</fix>
</trkpt>
<trkpt lat="40.0728423" lon="-105.2305753">
  <ele>1588.89</ele>
  <time>2026-08-27T18:31:02Z</time>
  <course>236.53</course>
  <speed>0.0</speed>
  <fix>3d</fix>
</trkpt>
<trkpt lat="40.0728422" lon="-105.2305752">
  <ele>1588.8</ele>
  <time>2026-08-27T18:31:02Z</time>
  <course>11.41</course>
  <speed>0.01414213562373095</speed>
  <fix>3d</fix>
</trkpt>
<trkpt lat="40.0728423" lon="-105.2305753">
  <ele>1588.8</ele>
  <time>2026-08-27T18:31:02Z</time>
  <course>241.92</course>
  <speed>0.0</speed>
  <fix>3d</fix>
</trkpt>
<trkpt lat="40.0728422" lon="-105.2305752">
  <ele>1588.7</ele>
  <time>2026-08-27T18:31:02Z</time>
  <course>11.41</course>
  <speed>0.01414213562373095</speed>
  <fix>3d</fix>
</trkpt>
<trkpt lat="40.0728423" lon="-105.2305753">
  <ele>1588.71</ele>
  <time>2026-08-27T18:31:02Z</time>
  <course>247.54</course>
  <speed>0.0</speed>
  <fix>3d</fix>
</trkpt>
<trkpt lat="40.0728422" lon="-105.2305752">
  <ele>1588.6</ele>
  <time>2026-08-27T18:31:02Z</time>
  <course>11.4</course>
  <speed>0.01414213562373095</speed>
  <fix>3d</fix>
</trkpt>
<trkpt lat="40.0728423" lon="-105.2305753">
  <ele>1588.61</ele>
  <time>2026-08-27T18:31:02Z</time>
  <course>255.25</course>
  <speed>0.0</speed>
  <fix>3d</fix>
</trkpt>
<trkpt lat="40.0728422" lon="-105.2305752">
  <ele>1588.5</ele>
  <time>2026-08-27T18:31:02Z</time>
  <course>11.4</course>
  <speed>0.01414213562373095</speed>
  <fix>3d</fix>
</trkpt>
<trkpt lat="40.0728423" lon="-105.2305753">
  <ele>1588.51</ele>
  <time>2026-08-27T18:31:02Z</time>
  <course>261.07</course>
  <speed>0.0</speed>
  <fix>3d</fix>
</trkpt>
<trkpt lat="40.0728422" lon="-105.2305752">
  <ele>1588.4</ele>
  <time>2026-08-27T18:31:02Z</time>
  <course>11.4</course>
  <speed>0.01414213562373095</speed>
  <fix>3d</fix>
</trkpt>
<trkpt lat="40.0728423" lon="-105.2305753">
  <ele>1588.4</ele>
  <time>2026-08-27T18:31:02Z</time>
  <course>266.0</course>
  <speed>0.0</speed>
  <fix>3d</fix>
</trkpt>
<trkpt lat="40.0728422" lon="-105.2305752">
  <ele>1588.3</ele>
  <time>2026-08-27T18:31:02Z</time>
  <course>11.4</course>
  <speed>0.01414213562373095</speed>
  <fix>3d</fix>
</trkpt>
<trkpt lat="40.0728423" lon="-105.2305753">
  <ele>1588.31</ele>
  <time>2026-08-27T18:31:02Z</time>
  <course>269.93</course>
  <speed>0.0</speed>
  <fix>3d</fix>
</trkpt>
<trkpt lat="40.0728422" lon="-105.2305752">
  <ele>1588.2</ele>
  <time>2026-08-27T18:31:02Z</time>
  <course>11.4</course>
  <speed>0.01414213562373095</speed>
  <fix>3d</fix>
</trkpt>
<trkpt lat="40.0728423" lon="-105.2305754">
  <ele>1588.21</ele>
  <time>2026-08-27T18:31:02Z</time>
  <course>271.38</course>
  <speed>0.0</speed>
  <fix>3d</fix>
</trkpt>
<trkpt lat="40.0728422" lon="-105.2305752">
  <ele>1588.1</ele>
  <time>2026-08-27T18:31:02Z</time>
  <course>11.4</course>
  <speed>0.01414213562373095</speed>
  <fix>3d</fix>
</trkpt>
<trkpt lat="40.0728423" lon="-105.2305755">
  <ele>1588.11</ele>
  <time>2026-08-27T18:31:02Z</time>
  <course>268.8</course>
  <speed>0.0</speed>
  <fix>3d</fix>
</trkpt>
<trkpt lat="40.0728422" lon="-105.2305752">
  <ele>1588.0</ele>
  <time>2026-08-27T18:31:02Z</time>
  <course>11.4</course>
  <speed>0.01414213562373095</speed>
  <fix>3d</fix>
</trkpt>
<trkpt lat="40.0728423" lon="-105.2305755">
  <ele>1588.01</ele>
  <time>2026-08-27T18:31:02Z</time>
  <course>265.27</course>
  <speed>0.0</speed>
  <fix>3d</fix>
</trkpt>
<trkpt lat="40.0728422" lon="-105.2305752">
  <ele>1587.9</ele>
  <time>2026-08-27T18:31:02Z</time>
  <course>11.4</course>
  <speed>0.01414213562373095</speed>
  <fix>3d</fix>
</trkpt>
<trkpt lat="40.0728423" lon="-105.2305755">
  <ele>1587.9</ele>
  <time>2026-08-27T18:31:02Z</time>
  <course>267.49</course>
  <speed>0.0</speed>
  <fix>3d</fix>
</trkpt>
<trkpt lat="40.0728422" lon="-105.2305752">
  <ele>1587.8</ele>
  <time>2026-08-27T18:31:02Z</time>
  <course>11.4</course>
  <speed>0.01414213562373095</speed>
  <fix>3d</fix>
</trkpt>
<trkpt lat="40.0728423" lon="-105.2305755">
  <ele>1587.81</ele>
  <time>2026-08-27T18:31:02Z</time>
  <course>276.18</course>
  <speed>0.0</speed>
  <fix>3d</fix>
</trkpt>
<trkpt lat="40.0728422" lon="-105.2305752">
  <ele>1587.7</ele>
  <time>2026-08-27T18:31:03Z</time>
  <course>11.4</course>
  <speed>0.01414213562373095</speed>
  <fix>3d</fix>
</trkpt>
<trkpt lat="40.0728423" lon="-105.2305755">
  <ele>1587.71</ele>
  <time>2026-08-27T18:31:03Z</time>
  <course>295.0</course>
  <speed>0.0</speed>
  <fix>3d</fix>
</trkpt>
<trkpt lat="40.0728422" lon="-105.2305752">
  <ele>1587.6</ele>
  <time>2026-08-27T18:31:03Z</time>
  <course>11.4</course>
  <speed>0.01414213562373095</speed>
  <fix>3d</fix>
</trkpt>
<trkpt lat="40.0728423" lon="-105.2305755">
  <ele>1587.61</ele>
  <time>2026-08-27T18:31:03Z</time>
  <course>342.28</course>
  <speed>0.0</speed>
  <fix>3d</fix>
</trkpt>
<trkpt lat="40.0728422" lon="-105.2305753">
  <ele>1587.5</ele>
  <time>2026-08-27T18:31:03Z</time>
  <course>11.4</course>
  <speed>0.01414213562373095</speed>
  <fix>3d</fix>
</trkpt>
<trkpt lat="40.0728423" lon="-105.2305755">
  <ele>1587.5</ele>
  <time>2026-08-27T18:31:03Z</time>
  <course>24.52</course>
  <speed>0.0</speed>
  <fix>3d</fix>
</trkpt>
<trkpt lat="40.0728422" lon="-105.2305753">
  <ele>1587.4</ele>
  <time>2026-08-27T18:31:03Z</time>
  <course>11.4</course>
  <speed>0.01414213562373095</speed>
  <fix>3d</fix>
</trkpt>
<trkpt lat="40.0728423" lon="-105.2305755">
  <ele>1587.39</ele>
  <time>2026-08-27T18:31:03Z</time>
  <course>81.2</course>
  <speed>0.0</speed>
  <fix>3d</fix>
</trkpt>
<trkpt lat="40.0728422" lon="-105.2305753">
  <ele>1587.3</ele>
  <time>2026-08-27T18:31:03Z</time>
  <course>11.4</course>
  <speed>0.01414213562373095</speed>
  <fix>3d</fix>
</trkpt>
<trkpt lat="40.0728423" lon="-105.2305755">
  <ele>1587.3</ele>
  <time>2026-08-27T18:31:03Z</time>
  <course>99.83</course>
  <speed>0.0</speed>
  <fix>3d</fix>
</trkpt>
<trkpt lat="40.0728422" lon="-105.2305753">
  <ele>1587.2</ele>
  <time>2026-08-27T18:31:03Z</time>
  <course>11.4</course>
  <speed>0.01414213562373095</speed>
  <fix>3d</fix>
</trkpt>
<trkpt lat="40.0728423" lon="-105.2305755">
  <ele>1587.2</ele>
  <time>2026-08-27T18:31:03Z</time>
  <course>84.38</course>
  <speed>0.0</speed>
  <fix>3d</fix>
</trkpt>
<trkpt lat="40.0728422" lon="-105.2305753">
  <ele>1587.1</ele>
  <time>2026-08-27T18:31:03Z</time>
  <course>11.4</course>
  <speed>0.022360679774997897</speed>
  <fix>3d</fix>
</trkpt>
<trkpt lat="40.0728423" lon="-105.2305755">
  <ele>1587.1</ele>
  <time>2026-08-27T18:31:03Z</time>
  <course>69.64</course>
  <speed>0.0</speed>
  <fix>3d</fix>
</trkpt>
<trkpt lat="40.0728422" lon="-105.2305753">
  <ele>1587.0</ele>
  <time>2026-08-27T18:31:03Z</time>
  <course>11.41</course>
  <speed>0.022360679774997897</speed>
  <fix>3d</fix>
</trkpt>
<trkpt lat="40.0728423" lon="-105.2305755">
  <ele>1587.0</ele>
  <time>2026-08-27T18:31:03Z</time>
  <course>68.87</course>
  <speed>0.0</speed>
  <fix>3d</fix>
</trkpt>
<trkpt lat="40.0728422" lon="-105.2305753">
  <ele>1586.9</ele>
  <time>2026-08-27T18:31:03Z</time>
  <course>11.41</course>
  <speed>0.022360679774997897</speed>
  <fix>3d</fix>
</trkpt>
<trkpt lat="40.0728423" lon="-105.2305755">
  <ele>1586.89</ele>
  <time>2026-08-27T18:31:03Z</time>
  <course>69.19</course>
  <speed>0.0</speed>
  <fix>3d</fix>
</trkpt>
<trkpt lat="40.0728422" lon="-105.2305753">
  <ele>1586.8</ele>
  <time>2026-08-27T18:31:03Z</time>
  <course>11.4</course>
  <speed>0.022360679774997897</speed>
  <fix>3d</fix>
</trkpt>
<trkpt lat="40.0728423" lon="-105.2305755">
  <ele>1586.8</ele>
  <time>2026-08-27T18:31:03Z</time>
  <course>72.4</course>
  <speed>0.0</speed>
  <fix>3d</fix>
</trkpt>
<trkpt lat="40.0728422" lon="-105.2305753">
  <ele>1586.71</ele>
  <time>2026-08-27T18:31:03Z</time>
  <course>11.4</course>
  <speed>0.022360679774997897</speed>
  <fix>3d</fix>
</trkpt>
<trkpt lat="40.0728423" lon="-105.2305755">
  <ele>1586.7</ele>
  <time>2026-08-27T18:31:03Z</time>
  <course>73.27</course>
  <speed>0.0</speed>
  <fix>3d</fix>
</trkpt>
<trkpt lat="40.0728422" lon="-105.2305753">
  <ele>1586.61</ele>
  <time>2026-08-27T18:31:03Z</time>
  <course>11.4</course>
  <speed>0.022360679774997897</speed>
  <fix>3d</fix>
</trkpt>
<trkpt lat="40.0728423" lon="-105.2305755">
  <ele>1586.6</ele>
  <time>2026-08-27T18:31:03Z</time>
  <course>71.39</course>
  <speed>0.0</speed>
  <fix>3d</fix>
</trkpt>
<trkpt lat="40.0728422" lon="-105.2305753">
  <ele>1586.51</ele>
  <time>2026-08-27T18:31:03Z</time>
  <course>11.4</course>
  <speed>0.022360679774997897</speed>
  <fix>3d</fix>
</trkpt>
<trkpt lat="40.0728423" lon="-105.2305755">
  <ele>1586.5</ele>
  <time>2026-08-27T18:31:03Z</time>
  <course>72.17</course>
  <speed>0.0</speed>
  <fix>3d</fix>
</trkpt>
<trkpt lat="40.0728422" lon="-105.2305753">
  <ele>1586.4</ele>
  <time>2026-08-27T18:31:03Z</time>
  <course>11.4</course>
  <speed>0.022360679774997897</speed>
  <fix>3d</fix>
</trkpt>
<trkpt lat="40.0728423" lon="-105.2305755">
  <ele>1586.39</ele>
  <time>2026-08-27T18:31:03Z</time>
  <course>72.14</course>
  <speed>0.0</speed>
  <fix>3d</fix>
</trkpt>
<trkpt lat="40.0728422" lon="-105.2305753">
  <ele>1586.3</ele>
  <time>2026-08-27T18:31:03Z</time>
  <course>11.4</course>
  <speed>0.022360679774997897</speed>
  <fix>3d</fix>
</trkpt>
<trkpt lat="40.0728423" lon="-105.2305755">
  <ele>1586.3</ele>
  <time>2026-08-27T18:31:03Z</time>
  <course>75.42</course>
  <speed>0.0</speed>
  <fix>3d</fix>
</trkpt>
<trkpt lat="40.0728422" lon="-105.2305753">
  <ele>1586.2</ele>
  <time>2026-08-27T18:31:03Z</time>
  <course>11.4</course>
  <speed>0.022360679774997897</speed>
  <fix>3d</fix>
</trkpt>
<trkpt lat="40.0728423" lon="-105.2305755">
  <ele>1586.2</ele>
  <time>2026-08-27T18:31:03Z</time>
  <course>81.39</course>
  <speed>0.0</speed>
  <fix>3d</fix>
</trkpt>
<trkpt lat="40.0728422" lon="-105.2305753">
  <ele>1586.14</ele>
  <time>2026-08-27T18:31:03Z</time>
  <course>11.4</course>
  <speed>0.022360679774997897</speed>
  <fix>3d</fix>
</trkpt>
<trkpt lat="40.0728423" lon="-105.2305754">
  <ele>1586.11</ele>
  <time>2026-08-27T18:31:03Z</time>
  <course>83.26</course>
  <speed>0.0</speed>
  <fix>3d</fix>
</trkpt>
<trkpt lat="40.0728422" lon="-105.2305753">
  <ele>1586.17</ele>
  <time>2026-08-27T18:31:03Z</time>
  <course>11.4</course>
  <speed>0.022360679774997897</speed>
  <fix>3d</fix>
</trkpt>
<trkpt lat="40.0728423" lon="-105.2305753">
  <ele>1586.08</ele>
  <time>2026-08-27T18:31:03Z</time>
  <course>263.41</course>
  <speed>0.0</speed>
  <fix>3d</fix>
</trkpt>
<trkpt lat="40.0728422" lon="-105.2305753">
  <ele>1586.17</ele>
  <time>2026-08-27T18:31:03Z</time>
  <course>11.4</course>
  <speed>0.022360679774997897</speed>
  <fix>3d</fix>
</trkpt>
<trkpt lat="40.0728423" lon="-105.2305753">
  <ele>1586.09</ele>
  <time>2026-08-27T18:31:03Z</time>
  <course>263.34</course>
  <speed>0.0</speed>
  <fix>3d</fix>
</trkpt>
<trkpt lat="40.0728422" lon="-105.2305753">
  <ele>1586.17</ele>
  <time>2026-08-27T18:31:03Z</time>
  <course>11.4</course>
  <speed>0.022360679774997897</speed>
  <fix>3d</fix>
</trkpt>
<trkpt lat="40.0728423" lon="-105.2305753">
  <ele>1586.09</ele>
  <time>2026-08-27T18:31:03Z</time>
  <course>83.43</course>
  <speed>0.0</speed>
  <fix>3d</fix>
</trkpt>
<trkpt lat="40.0728422" lon="-105.2305753">
  <ele>1586.17</ele>
  <time>2026-08-27T18:31:03Z</time>
  <course>11.4</course>
  <speed>0.022360679774997897</speed>
  <fix>3d</fix>
</trkpt>
<trkpt lat="40.0728423" lon="-105.2305753">
  <ele>1586.09</ele>
  <time>2026-08-27T18:31:03Z</time>
  <course>83.43</course>
  <speed>0.0</speed>
  <fix>3d</fix>
</trkpt>
<trkpt lat="40.0728422" lon="-105.2305753">
  <ele>1586.17</ele>
  <time>2026-08-27T18:31:03Z</time>
  <course>11.39</course>
  <speed>0.022360679774997897</speed>
  <fix>3d</fix>
</trkpt>
<trkpt lat="40.0728423" lon="-105.2305753">
  <ele>1586.09</ele>
  <time>2026-08-27T18:31:03Z</time>
  <course>262.89</course>
  <speed>0.0</speed>
  <fix>3d</fix>
</trkpt>
<trkpt lat="40.0728422" lon="-105.2305752">
  <ele>1586.17</ele>
  <time>2026-08-27T18:31:03Z</time>
  <course>11.39</course>
  <speed>0.022360679774997897</speed>
  <fix>3d</fix>
</trkpt>
<trkpt lat="40.0728423" lon="-105.2305753">
  <ele>1586.09</ele>
  <time>2026-08-27T18:31:03Z</time>
  <course>261.73</course>
  <speed>0.0</speed>
  <fix>3d</fix>
</trkpt>
<trkpt lat="40.0728422" lon="-105.2305752">
  <ele>1586.17</ele>
  <time>2026-08-27T18:31:03Z</time>
  <course>11.39</course>
  <speed>0.022360679774997897</speed>
  <fix>3d</fix>
</trkpt>
<trkpt lat="40.0728423" lon="-105.2305753">
  <ele>1586.09</ele>
  <time>2026-08-27T18:31:03Z</time>
  <course>83.14</course>
  <speed>0.0</speed>
  <fix>3d</fix>
</trkpt>
<trkpt lat="40.0728422" lon="-105.2305752">
  <ele>1586.17</ele>
  <time>2026-08-27T18:31:03Z</time>
  <course>11.39</course>
  <speed>0.022360679774997897</speed>
  <fix>3d</fix>
</trkpt>
<trkpt lat="40.0728423" lon="-105.2305753">
  <ele>1586.09</ele>
  <time>2026-08-27T18:31:03Z</time>
  <course>35.96</course>
  <speed>0.0</speed>
  <fix>3d</fix>
</trkpt>
<trkpt lat="40.0728422" lon="-105.2305752">
  <ele>1586.17</ele>
  <time>2026-08-27T18:31:03Z</time>
  <course>11.39</course>
  <speed>0.022360679774997897</speed>
  <fix>3d</fix>
</trkpt>
<trkpt lat="40.0728423" lon="-105.2305753">
  <ele>1586.09</ele>
  <time>2026-08-27T18:31:03Z</time>
  <course>295.08</course>
  <speed>0.0</speed>
  <fix>3d</fix>
</trkpt>
<trkpt lat="40.0728422" lon="-105.2305752">
  <ele>1586.18</ele>
  <time>2026-08-27T18:31:03Z</time>
  <course>11.39</course>
  <speed>0.022360679774997897</speed>
  <fix>3d</fix>
</trkpt>
<trkpt lat="40.0728423" lon="-105.2305753">
  <ele>1586.09</ele>
  <time>2026-08-27T18:31:03Z</time>
  <course>116.51</course>
  <speed>0.0</speed>
  <fix>3d</fix>
</trkpt>
<trkpt lat="40.0728422" lon="-105.2305752">
  <ele>1586.18</ele>
  <time>2026-08-27T18:31:03Z</time>
  <course>11.39</course>
  <speed>0.022360679774997897</speed>
  <fix>3d</fix>
</trkpt>
<trkpt lat="40.0728423" lon="-105.2305753">
  <ele>1586.09</ele>
  <time>2026-08-27T18:31:03Z</time>
  <course>115.05</course>
  <speed>0.0</speed>
  <fix>3d</fix>
</trkpt>
<trkpt lat="40.0728422" lon="-105.2305752">
  <ele>1586.18</ele>
  <time>2026-08-27T18:31:03Z</time>
  <course>11.38</course>
  <speed>0.022360679774997897</speed>
  <fix>3d</fix>
</trkpt>
<trkpt lat="40.0728423" lon="-105.2305753">
  <ele>1586.09</ele>
  <time>2026-08-27T18:31:03Z</time>
  <course>295.27</course>
  <speed>0.0</speed>
  <fix>3d</fix>
</trkpt>
<trkpt lat="40.0728422" lon="-105.2305752">
  <ele>1586.18</ele>
  <time>2026-08-27T18:31:03Z</time>
  <course>11.38</course>
  <speed>0.022360679774997897</speed>
  <fix>3d</fix>
</trkpt>
<trkpt lat="40.0728423" lon="-105.2305753">
  <ele>1586.09</ele>
  <time>2026-08-27T18:31:03Z</time>
  <course>295.02</course>
  <speed>0.0</speed>
  <fix>3d</fix>
</trkpt>
<trkpt lat="40.0728422" lon="-105.2305752">
  <ele>1586.18</ele>
  <time>2026-08-27T18:31:03Z</time>
  <course>11.38</course>
  <speed>0.022360679774997897</speed>
  <fix>3d</fix>
</trkpt>
<trkpt lat="40.0728423" lon="-105.2305753">
  <ele>1586.09</ele>
  <time>2026-08-27T18:31:03Z</time>
  <course>115.17</course>
  <speed>0.0</speed>
  <fix>3d</fix>
</trkpt>
<trkpt lat="40.0728422" lon="-105.2305752">
  <ele>1586.18</ele>
  <time>2026-08-27T18:31:03Z</time>
  <course>11.38</course>
  <speed>0.022360679774997897</speed>
  <fix>3d</fix>
</trkpt>
<trkpt lat="40.0728423" lon="-105.2305753">
  <ele>1586.09</ele>
  <time>2026-08-27T18:31:03Z</time>
  <course>114.97</course>
  <speed>0.0</speed>
  <fix>3d</fix>
</trkpt>
<trkpt lat="40.0728422" lon="-105.2305752">
  <ele>1586.18</ele>
  <time>2026-08-27T18:31:03Z</time>
  <course>11.38</course>
  <speed>0.01414213562373095</speed>
  <fix>3d</fix>
</trkpt>
<trkpt lat="40.0728423" lon="-105.2305753">
  <ele>1586.09</ele>
  <time>2026-08-27T18:31:03Z</time>
  <course>295.12</course>
  <speed>0.0</speed>
  <fix>3d</fix>
</trkpt>
<trkpt lat="40.0728422" lon="-105.2305752">
  <ele>1586.19</ele>
  <time>2026-08-27T18:31:03Z</time>
  <course>11.37</course>
  <speed>0.01414213562373095</speed>
  <fix>3d</fix>
</trkpt>
<trkpt lat="40.0728423" lon="-105.2305753">
  <ele>1586.09</ele>
  <time>2026-08-27T18:31:03Z</time>
  <course>294.86</course>
  <speed>0.0</speed>
  <fix>3d</fix>
</trkpt>
<trkpt lat="40.0728422" lon="-105.2305752">
  <ele>1586.19</ele>
  <time>2026-08-27T18:31:03Z</time>
  <course>11.37</course>
  <speed>0.01414213562373095</speed>
  <fix>3d</fix>
</trkpt>
<trkpt lat="40.0728423" lon="-105.2305753">
  <ele>1586.09</ele>
  <time>2026-08-27T18:31:03Z</time>
  <course>115.09</course>
  <speed>0.0</speed>
  <fix>3d</fix>
</trkpt>
<trkpt lat="40.0728422" lon="-105.2305752">
  <ele>1586.19</ele>
  <time>2026-08-27T18:31:03Z</time>
  <course>11.37</course>
  <speed>0.01414213562373095</speed>
  <fix>3d</fix>
</trkpt>
<trkpt lat="40.0728423" lon="-105.2305753">
  <ele>1586.09</ele>
  <time>2026-08-27T18:31:03Z</time>
  <course>112.98</course>
  <speed>0.0</speed>
  <fix>3d</fix>
</trkpt>
<trkpt lat="40.0728422" lon="-105.2305752">
  <ele>1586.19</ele>
  <time>2026-08-27T18:31:03Z</time>
  <course>11.37</course>
  <speed>0.01414213562373095</speed>
  <fix>3d</fix>
</trkpt>
<trkpt lat="40.0728423" lon="-105.2305753">
  <ele>1586.09</ele>
  <time>2026-08-27T18:31:03Z</time>
  <course>295.06</course>
  <speed>0.0</speed>
  <fix>3d</fix>
</trkpt>
<trkpt lat="40.0728422" lon="-105.2305752">
  <ele>1586.19</ele>
  <time>2026-08-27T18:31:03Z</time>
  <course>11.36</course>
  <speed>0.01414213562373095</speed>
  <fix>3d</fix>
</trkpt>
<trkpt lat="40.0728423" lon="-105.2305753">
  <ele>1586.09</ele>
  <time>2026-08-27T18:31:03Z</time>
  <course>115.35</course>
  <speed>0.0</speed>
  <fix>3d</fix>
</trkpt>
<trkpt lat="40.0728422" lon="-105.2305752">
  <ele>1586.19</ele>
  <time>2026-08-27T18:31:03Z</time>
  <course>11.36</course>
  <speed>0.01414213562373095</speed>
  <fix>3d</fix>
</trkpt>
<trkpt lat="40.0728423" lon="-105.2305753">
  <ele>1586.09</ele>
  <time>2026-08-27T18:31:03Z</time>
  <course>115.03</course>
  <speed>0.0</speed>
  <fix>3d</fix>
</trkpt>
<trkpt lat="40.0728422" lon="-105.2305752">
  <ele>1586.19</ele>
  <time>2026-08-27T18:31:03Z</time>
  <course>11.36</course>
  <speed>0.01414213562373095</speed>
  <fix>3d</fix>
</trkpt>
<trkpt lat="40.0728423" lon="-105.2305753">
  <ele>1586.09</ele>
  <time>2026-08-27T18:31:03Z</time>
  <course>295.19</course>
  <speed>0.0</speed>
  <fix>3d</fix>
</trkpt>
<trkpt lat="40.0728422" lon="-105.2305752">
  <ele>1586.19</ele>
  <time>2026-08-27T18:31:03Z</time>
  <course>11.35</course>
  <speed>0.01414213562373095</speed>
  <fix>3d</fix>
</trkpt>
<trkpt lat="40.0728423" lon="-105.2305753">
  <ele>1586.09</ele>
  <time>2026-08-27T18:31:03Z</time>
  <course>294.99</course>
  <speed>0.0</speed>
  <fix>3d</fix>
</trkpt>
<trkpt lat="40.0728422" lon="-105.2305752">
  <ele>1586.19</ele>
  <time>2026-08-27T18:31:03Z</time>
  <course>11.35</course>
  <speed>0.01414213562373095</speed>
  <fix>3d</fix>
</trkpt>
<trkpt lat="40.0728423" lon="-105.2305753">
  <ele>1586.09</ele>
  <time>2026-08-27T18:31:03Z</time>
  <course>115.13</course>
  <speed>0.0</speed>
  <fix>3d</fix>
</trkpt>
<trkpt lat="40.0728422" lon="-105.2305752">
  <ele>1586.19</ele>
  <time>2026-08-27T18:31:03Z</time>
  <course>11.35</course>
  <speed>0.01414213562373095</speed>
  <fix>3d</fix>
</trkpt>
<trkpt lat="40.0728423" lon="-105.2305753">
  <ele>1586.09</ele>
  <time>2026-08-27T18:31:03Z</time>
  <course>114.91</course>
  <speed>0.0</speed>
  <fix>3d</fix>
</trkpt>
<trkpt lat="40.0728422" lon="-105.2305752">
  <ele>1586.19</ele>
  <time>2026-08-27T18:31:03Z</time>
  <course>11.34</course>
  <speed>0.01414213562373095</speed>
  <fix>3d</fix>
</trkpt>
<trkpt lat="40.0728423" lon="-105.2305753">
  <ele>1586.09</ele>
  <time>2026-08-27T18:31:03Z</time>
  <course>295.04</course>
  <speed>0.0</speed>
  <fix>3d</fix>
</trkpt>
<trkpt lat="40.0728422" lon="-105.2305752">
  <ele>1586.19</ele>
  <time>2026-08-27T18:31:03Z</time>
  <course>11.34</course>
  <speed>0.01414213562373095</speed>
  <fix>3d</fix>
</trkpt>
<trkpt lat="40.0728423" lon="-105.2305753">
  <ele>1586.09</ele>
  <time>2026-08-27T18:31:03Z</time>
  <course>293.42</course>
  <speed>0.0</speed>
  <fix>3d</fix>
</trkpt>
<trkpt lat="40.0728422" lon="-105.2305752">
  <ele>1586.19</ele>
  <time>2026-08-27T18:31:03Z</time>
  <course>11.34</course>
  <speed>0.01414213562373095</speed>
  <fix>3d</fix>
</trkpt>
<trkpt lat="40.0728423" lon="-105.2305753">
  <ele>1586.09</ele>
  <time>2026-08-27T18:31:03Z</time>
  <course>115.27</course>
  <speed>0.0</speed>
  <fix>3d</fix>
</trkpt>
<trkpt lat="40.0728422" lon="-105.2305752">
  <ele>1586.19</ele>
  <time>2026-08-27T18:31:03Z</time>
  <course>11.33</course>
  <speed>0.01414213562373095</speed>
  <fix>3d</fix>
</trkpt>
<trkpt lat="40.0728423" lon="-105.2305753">
  <ele>1586.09</ele>
  <time>2026-08-27T18:31:03Z</time>
  <course>314.74</course>
  <speed>0.0</speed>
  <fix>3d</fix>
</trkpt>
<trkpt lat="40.0728422" lon="-105.2305752">
  <ele>1586.19</ele>
  <time>2026-08-27T18:31:03Z</time>
  <course>11.33</course>
  <speed>0.01414213562373095</speed>
  <fix>3d</fix>
</trkpt>
<trkpt lat="40.0728423" lon="-105.2305753">
  <ele>1586.09</ele>
  <time>2026-08-27T18:31:03Z</time>
  <course>325.66</course>
  <speed>0.0</speed>
  <fix>3d</fix>
</trkpt>
<trkpt lat="40.0728422" lon="-105.2305752">
  <ele>1586.19</ele>
  <time>2026-08-27T18:31:03Z</time>
  <course>11.33</course>
  <speed>0.01414213562373095</speed>
  <fix>3d</fix>
</trkpt>
<trkpt lat="40.0728423" lon="-105.2305753">
  <ele>1586.09</ele>
  <time>2026-08-27T18:31:03Z</time>
  <course>7.66</course>
  <speed>0.0</speed>
  <fix>3d</fix>
</trkpt>
<trkpt lat="40.0728422" lon="-105.2305752">
  <ele>1586.19</ele>
  <time>2026-08-27T18:31:03Z</time>
  <course>11.32</course>
  <speed>0.01414213562373095</speed>
  <fix>3d</fix>
</trkpt>
<trkpt lat="40.0728423" lon="-105.2305753">
  <ele>1586.09</ele>
  <time>2026-08-27T18:31:03Z</time>
  <course>4.63</course>
  <speed>0.0</speed>
  <fix>3d</fix>
</trkpt>
<trkpt lat="40.0728422" lon="-105.2305752">
  <ele>1586.19</ele>
  <time>2026-08-27T18:31:03Z</time>
  <course>11.32</course>
  <speed>0.01414213562373095</speed>
  <fix>3d</fix>
</trkpt>
<trkpt lat="40.0728423" lon="-105.2305753">
  <ele>1586.09</ele>
  <time>2026-08-27T18:31:03Z</time>
  <course>357.79</course>
  <speed>0.0</speed>
  <fix>3d</fix>
</trkpt>
<trkpt lat="40.0728422" lon="-105.2305752">
  <ele>1586.19</ele>
  <time>2026-08-27T18:31:03Z</time>
  <course>11.32</course>
  <speed>0.01414213562373095</speed>
  <fix>3d</fix>
</trkpt>
<trkpt lat="40.0728423" lon="-105.2305753">
  <ele>1586.09</ele>
  <time>2026-08-27T18:31:03Z</time>
  <course>356.86</course>
  <speed>0.0</speed>
  <fix>3d</fix>
</trkpt>
<trkpt lat="40.0728422" lon="-105.2305752">
  <ele>1586.19</ele>
  <time>2026-08-27T18:31:03Z</time>
  <course>11.31</course>
  <speed>0.01414213562373095</speed>
  <fix>3d</fix>
</trkpt>
<trkpt lat="40.0728423" lon="-105.2305753">
  <ele>1586.09</ele>
  <time>2026-08-27T18:31:03Z</time>
  <course>356.74</course>
  <speed>0.0</speed>
  <fix>3d</fix>
</trkpt>
<trkpt lat="40.0728422" lon="-105.2305752">
  <ele>1586.19</ele>
  <time>2026-08-27T18:31:03Z</time>
  <course>11.31</course>
  <speed>0.01414213562373095</speed>
  <fix>3d</fix>
</trkpt>
<trkpt lat="40.0728423" lon="-105.2305753">
  <ele>1586.09</ele>
  <time>2026-08-27T18:31:03Z</time>
  <course>356.72</course>
  <speed>0.0</speed>
  <fix>3d</fix>
</trkpt>
<trkpt lat="40.0728422" lon="-105.2305752">
  <ele>1586.19</ele>
  <time>2026-08-27T18:31:03Z</time>
  <course>11.3</course>
  <speed>0.01414213562373095</speed>
  <fix>3d</fix>
</trkpt>
<trkpt lat="40.0728423" lon="-105.2305753">
  <ele>1586.09</ele>
  <time>2026-08-27T18:31:03Z</time>
  <course>356.72</course>
  <speed>0.0</speed>
  <fix>3d</fix>
</trkpt>
<trkpt lat="40.0728422" lon="-105.2305752">
  <ele>1586.19</ele>
  <time>2026-08-27T18:31:03Z</time>
  <course>11.3</course>
  <speed>0.01414213562373095</speed>
  <fix>3d</fix>
</trkpt>
<trkpt lat="40.0728423" lon="-105.2305753">
  <ele>1586.09</ele>
  <time>2026-08-27T18:31:03Z</time>
  <course>356.72</course>
  <speed>0.0</speed>
  <fix>3d</fix>
</trkpt>
<trkpt lat="40.0728422" lon="-105.2305752">
  <ele>1586.19</ele>
  <time>2026-08-27T18:31:03Z</time>
  <course>11.3</course>
  <speed>0.01414213562373095</speed>
  <fix>3d</fix>
</trkpt>
<trkpt lat="40.0728423" lon="-105.2305753">
  <ele>1586.09</ele>
  <time>2026-08-27T18:31:03Z</time>
  <course>356.72</course>
  <speed>0.0</speed>
  <fix>3d</fix>
</trkpt>
<trkpt lat="40.0728422" lon="-105.2305752">
  <ele>1586.19</ele>
  <time>2026-08-27T18:31:03Z</time>
  <course>11.29</course>
  <speed>0.01414213562373095</speed>
  <fix>3d</fix>
</trkpt>
<trkpt lat="40.0728423" lon="-105.2305753">
  <ele>1586.09</ele>
  <time>2026-08-27T18:31:03Z</time>
  <course>356.72</course>
  <speed>0.0</speed>
  <fix>3d</fix>
</trkpt>
<trkpt lat="40.0728422" lon="-105.2305752">
  <ele>1586.19</ele>
  <time>2026-08-27T18:31:03Z</time>
  <course>11.29</course>
  <speed>0.01414213562373095</speed>
  <fix>3d</fix>
</trkpt>
<trkpt lat="40.0728423" lon="-105.2305753">
  <ele>1586.09</ele>
  <time>2026-08-27T18:31:03Z</time>
  <course>356.72</course>
  <speed>0.0</speed>
  <fix>3d</fix>
</trkpt>
<trkpt lat="40.0728422" lon="-105.2305752">
  <ele>1586.19</ele>
  <time>2026-08-27T18:31:03Z</time>
  <course>11.28</course>
  <speed>0.01414213562373095</speed>
  <fix>3d</fix>
</trkpt>
<trkpt lat="40.0728423" lon="-105.2305753">
  <ele>1586.09</ele>
  <time>2026-08-27T18:31:03Z</time>
  <course>356.72</course>
  <speed>0.0</speed>
  <fix>3d</fix>
</trkpt>
<trkpt lat="40.0728422" lon="-105.2305752">
  <ele>1586.19</ele>
  <time>2026-08-27T18:31:03Z</time>
  <course>11.28</course>
  <speed>0.01414213562373095</speed>
  <fix>3d</fix>
</trkpt>
<trkpt lat="40.0728423" lon="-105.2305753">
  <ele>1586.09</ele>
  <time>2026-08-27T18:31:03Z</time>
  <course>356.72</course>
  <speed>0.0</speed>
  <fix>3d</fix>
</trkpt>
<trkpt lat="40.0728422" lon="-105.2305752">
  <ele>1586.18</ele>
  <time>2026-08-27T18:31:03Z</time>
  <course>11.28</course>
  <speed>0.01414213562373095</speed>
  <fix>3d</fix>
</trkpt>
<trkpt lat="40.0728423" lon="-105.2305753">
  <ele>1586.09</ele>
  <time>2026-08-27T18:31:03Z</time>
  <course>356.72</course>
  <speed>0.0</speed>
  <fix>3d</fix>
</trkpt>
<trkpt lat="40.0728422" lon="-105.2305752">
  <ele>1586.18</ele>
  <time>2026-08-27T18:31:03Z</time>
  <course>11.27</course>
  <speed>0.01414213562373095</speed>
  <fix>3d</fix>
</trkpt>
<trkpt lat="40.0728423" lon="-105.2305753">
  <ele>1586.09</ele>
  <time>2026-08-27T18:31:03Z</time>
  <course>356.72</course>
  <speed>0.0</speed>
  <fix>3d</fix>
</trkpt>
<trkpt lat="40.0728422" lon="-105.2305752">
  <ele>1586.19</ele>
  <time>2026-08-27T18:31:03Z</time>
  <course>11.27</course>
  <speed>0.01414213562373095</speed>
  <fix>3d</fix>
</trkpt>
<trkpt lat="40.0728423" lon="-105.2305753">
  <ele>1586.09</ele>
  <time>2026-08-27T18:31:03Z</time>
  <course>356.72</course>
  <speed>0.0</speed>
  <fix>3d</fix>
</trkpt>
<trkpt lat="40.0728422" lon="-105.2305752">
  <ele>1586.19</ele>
  <time>2026-08-27T18:31:03Z</time>
  <course>11.26</course>
  <speed>0.01414213562373095</speed>
  <fix>3d</fix>
</trkpt>
<trkpt lat="40.0728423" lon="-105.2305753">
  <ele>1586.09</ele>
  <time>2026-08-27T18:31:03Z</time>
  <course>356.72</course>
  <speed>0.0</speed>
  <fix>3d</fix>
</trkpt>
<trkpt lat="40.0728422" lon="-105.2305752">
  <ele>1586.19</ele>
  <time>2026-08-27T18:31:03Z</time>
  <course>11.26</course>
  <speed>0.01414213562373095</speed>
  <fix>3d</fix>
</trkpt>
<trkpt lat="40.0728423" lon="-105.2305753">
  <ele>1586.09</ele>
  <time>2026-08-27T18:31:03Z</time>
  <course>356.72</course>
  <speed>0.0</speed>
  <fix>3d</fix>
</trkpt>
<trkpt lat="40.0728422" lon="-105.2305752">
  <ele>1586.19</ele>
  <time>2026-08-27T18:31:03Z</time>
  <course>11.25</course>
  <speed>0.01414213562373095</speed>
  <fix>3d</fix>
</trkpt>
<trkpt lat="40.0728423" lon="-105.2305753">
  <ele>1586.09</ele>
  <time>2026-08-27T18:31:03Z</time>
  <course>356.72</course>
  <speed>0.0</speed>
  <fix>3d</fix>
</trkpt>
<trkpt lat="40.0728422" lon="-105.2305752">
  <ele>1586.19</ele>
  <time>2026-08-27T18:31:03Z</time>
  <course>11.25</course>
  <speed>0.01414213562373095</speed>
  <fix>3d</fix>
</trkpt>
<trkpt lat="40.0728423" lon="-105.2305753">
  <ele>1586.09</ele>
  <time>2026-08-27T18:31:03Z</time>
  <course>356.72</course>
  <speed>0.0</speed>
  <fix>3d</fix>
</trkpt>
<trkpt lat="40.0728422" lon="-105.2305752">
  <ele>1586.19</ele>
  <time>2026-08-27T18:31:03Z</time>
  <course>11.25</course>
  <speed>0.01414213562373095</speed>
  <fix>3d</fix>
</trkpt>
<trkpt lat="40.0728423" lon="-105.2305753">
  <ele>1586.09</ele>
  <time>2026-08-27T18:31:03Z</time>
  <course>356.72</course>
  <speed>0.0</speed>
  <fix>3d</fix>
</trkpt>
<trkpt lat="40.0728422" lon="-105.2305752">
  <ele>1586.19</ele>
  <time>2026-08-27T18:31:03Z</time>
  <course>11.24</course>
  <speed>0.01414213562373095</speed>
  <fix>3d</fix>
</trkpt>
<trkpt lat="40.0728423" lon="-105.2305753">
  <ele>1586.09</ele>
  <time>2026-08-27T18:31:03Z</time>
  <course>356.72</course>
  <speed>0.0</speed>
  <fix>3d</fix>
</trkpt>
<trkpt lat="40.0728422" lon="-105.2305752">
  <ele>1586.19</ele>
  <time>2026-08-27T18:31:03Z</time>
  <course>11.24</course>
  <speed>0.01414213562373095</speed>
  <fix>3d</fix>
</trkpt>
<trkpt lat="40.0728423" lon="-105.2305753">
  <ele>1586.09</ele>
  <time>2026-08-27T18:31:03Z</time>
  <course>356.72</course>
  <speed>0.0</speed>
  <fix>3d</fix>
</trkpt>
<trkpt lat="40.0728422" lon="-105.2305752">
  <ele>1586.2</ele>
  <time>2026-08-27T18:31:03Z</time>
  <course>11.23</course>
  <speed>0.01414213562373095</speed>
  <fix>3d</fix>
</trkpt>
<trkpt lat="40.0728423" lon="-105.2305753">
  <ele>1586.09</ele>
  <time>2026-08-27T18:31:03Z</time>
  <course>356.72</course>
  <speed>0.0</speed>
  <fix>3d</fix>
</trkpt>
<trkpt lat="40.0728422" lon="-105.2305752">
  <ele>1586.2</ele>
  <time>2026-08-27T18:31:03Z</time>
  <course>11.23</course>
  <speed>0.01414213562373095</speed>
  <fix>3d</fix>
</trkpt>
<trkpt lat="40.0728423" lon="-105.2305753">
  <ele>1586.09</ele>
  <time>2026-08-27T18:31:03Z</time>
  <course>356.72</course>
  <speed>0.0</speed>
  <fix>3d</fix>
</trkpt>
<trkpt lat="40.0728422" lon="-105.2305752">
  <ele>1586.19</ele>
  <time>2026-08-27T18:31:03Z</time>
  <course>11.22</course>
  <speed>0.01414213562373095</speed>
  <fix>3d</fix>
</trkpt>
<trkpt lat="40.0728423" lon="-105.2305753">
  <ele>1586.09</ele>
  <time>2026-08-27T18:31:03Z</time>
  <course>356.72</course>
  <speed>0.0</speed>
  <fix>3d</fix>
</trkpt>
<trkpt lat="40.0728422" lon="-105.2305752">
  <ele>1586.2</ele>
  <time>2026-08-27T18:31:03Z</time>
  <course>11.4</course>
  <speed>0.01414213562373095</speed>
  <fix>3d</fix>
</trkpt>
<trkpt lat="40.0728423" lon="-105.2305753">
  <ele>1586.09</ele>
  <time>2026-08-27T18:31:03Z</time>
  <course>356.72</course>
  <speed>0.0</speed>
  <fix>3d</fix>
</trkpt>
<trkpt lat="40.0728422" lon="-105.2305752">
  <ele>1586.21</ele>
  <time>2026-08-27T18:31:03Z</time>
  <course>11.77</course>
  <speed>0.01414213562373095</speed>
  <fix>3d</fix>
</trkpt>
<trkpt lat="40.0728423" lon="-105.2305753">
  <ele>1586.09</ele>
  <time>2026-08-27T18:31:03Z</time>
  <course>356.72</course>
  <speed>0.0</speed>
  <fix>3d</fix>
</trkpt>
<trkpt lat="40.0728422" lon="-105.2305752">
  <ele>1586.21</ele>
  <time>2026-08-27T18:31:03Z</time>
  <course>12.12</course>
  <speed>0.01414213562373095</speed>
  <fix>3d</fix>
</trkpt>
<trkpt lat="40.0728423" lon="-105.2305753">
  <ele>1586.09</ele>
  <time>2026-08-27T18:31:03Z</time>
  <course>356.72</course>
  <speed>0.0</speed>
  <fix>3d</fix>
</trkpt>
<trkpt lat="40.0728422" lon="-105.2305752">
  <ele>1586.2</ele>
  <time>2026-08-27T18:31:03Z</time>
  <course>12.42</course>
  <speed>0.01414213562373095</speed>
  <fix>3d</fix>
</trkpt>
<trkpt lat="40.0728423" lon="-105.2305753">
  <ele>1586.09</ele>
  <time>2026-08-27T18:31:03Z</time>
  <course>356.72</course>
  <speed>0.0</speed>
  <fix>3d</fix>
</trkpt>
<trkpt lat="40.0728422" lon="-105.2305752">
  <ele>1586.2</ele>
  <time>2026-08-27T18:31:03Z</time>
  <course>12.71</course>
  <speed>0.01414213562373095</speed>
  <fix>3d</fix>
</trkpt>
<trkpt lat="40.0728423" lon="-105.2305753">
  <ele>1586.09</ele>
  <time>2026-08-27T18:31:03Z</time>
  <course>356.72</course>
  <speed>0.0</speed>
  <fix>3d</fix>
</trkpt>
<trkpt lat="40.0728422" lon="-105.2305752">
  <ele>1586.19</ele>
  <time>2026-08-27T18:31:03Z</time>
  <course>12.97</course>
  <speed>0.01414213562373095</speed>
  <fix>3d</fix>
</trkpt>
<trkpt lat="40.0728423" lon="-105.2305753">
  <ele>1586.09</ele>
  <time>2026-08-27T18:31:03Z</time>
  <course>356.72</course>
  <speed>0.0</speed>
  <fix>3d</fix>
</trkpt>
<trkpt lat="40.0728422" lon="-105.2305752">
  <ele>1586.19</ele>
  <time>2026-08-27T18:31:03Z</time>
  <course>13.21</course>
  <speed>0.01414213562373095</speed>
  <fix>3d</fix>
</trkpt>
<trkpt lat="40.0728423" lon="-105.2305753">
  <ele>1586.09</ele>
  <time>2026-08-27T18:31:03Z</time>
  <course>356.72</course>
  <speed>0.0</speed>
  <fix>3d</fix>
</trkpt>
<trkpt lat="40.0728422" lon="-105.2305752">
  <ele>1586.19</ele>
  <time>2026-08-27T18:31:03Z</time>
  <course>13.44</course>
  <speed>0.01414213562373095</speed>
  <fix>3d</fix>
</trkpt>
<trkpt lat="40.0728423" lon="-105.2305753">
  <ele>1586.09</ele>
  <time>2026-08-27T18:31:03Z</time>
  <course>356.72</course>
  <speed>0.0</speed>
  <fix>3d</fix>
</trkpt>
<trkpt lat="40.0728422" lon="-105.2305752">
  <ele>1586.19</ele>
  <time>2026-08-27T18:31:03Z</time>
  <course>13.65</course>
  <speed>0.01414213562373095</speed>
  <fix>3d</fix>
</trkpt>
<trkpt lat="40.0728423" lon="-105.2305753">
  <ele>1586.09</ele>
  <time>2026-08-27T18:31:03Z</time>
  <course>356.72</course>
  <speed>0.0</speed>
  <fix>3d</fix>
</trkpt>
<trkpt lat="40.0728422" lon="-105.2305752">
  <ele>1586.19</ele>
  <time>2026-08-27T18:31:03Z</time>
  <course>13.84</course>
  <speed>0.01414213562373095</speed>
  <fix>3d</fix>
</trkpt>
<trkpt lat="40.0728423" lon="-105.2305753">
  <ele>1586.09</ele>
  <time>2026-08-27T18:31:03Z</time>
  <course>356.72</course>
  <speed>0.0</speed>
  <fix>3d</fix>
</trkpt>
<trkpt lat="39.6562421" lon="-104.1365912">
  <ele>1569.6</ele>
  <time>2026-08-27T18:31:04Z</time>
  <course>0.0</course>
  <speed>0.0</speed>
  <fix>3d</fix>
</trkpt>
<trkpt lat="40.072842" lon="-105.230575">
  <ele>1586.09</ele>
  <time>2026-08-27T18:31:04Z</time>
  <course>2.03</course>
  <speed>0.0</speed>
  <fix>3d</fix>
</trkpt>
<trkpt lat="40.072842" lon="-105.230575">
  <ele>1586.09</ele>
  <time>2026-08-27T18:31:04Z</time>
  <course>0.0</course>
  <speed>0.0</speed>
  <fix>3d</fix>
</trkpt>
<trkpt lat="40.072842" lon="-105.230575">
  <ele>1586.09</ele>
  <time>2026-08-27T18:31:04Z</time>
  <course>2.37</course>
  <speed>0.0</speed>
  <fix>3d</fix>
</trkpt>
<trkpt lat="40.072842" lon="-105.230575">
  <ele>1586.09</ele>
  <time>2026-08-27T18:31:04Z</time>
  <course>0.0</course>
  <speed>0.0</speed>
  <fix>3d</fix>
</trkpt>
<trkpt lat="40.072842" lon="-105.230575">
  <ele>1586.09</ele>
  <time>2026-08-27T18:31:04Z</time>
  <course>3.11</course>
  <speed>0.0</speed>
  <fix>3d</fix>
</trkpt>
<trkpt lat="40.072842" lon="-105.230575">
  <ele>1586.09</ele>
  <time>2026-08-27T18:31:04Z</time>
  <course>0.0</course>
  <speed>0.0</speed>
  <fix>3d</fix>
</trkpt>
<trkpt lat="40.072842" lon="-105.230575">
  <ele>1586.09</ele>
  <time>2026-08-27T18:31:04Z</time>
  <course>3.8</course>
  <speed>0.0</speed>
  <fix>3d</fix>
</trkpt>
<trkpt lat="40.072842" lon="-105.230575">
  <ele>1586.09</ele>
  <time>2026-08-27T18:31:04Z</time>
  <course>0.0</course>
  <speed>0.0</speed>
  <fix>3d</fix>
</trkpt>
<trkpt lat="40.072842" lon="-105.230575">
  <ele>1586.09</ele>
  <time>2026-08-27T18:31:04Z</time>
  <course>4.43</course>
  <speed>0.0</speed>
  <fix>3d</fix>
</trkpt>
<trkpt lat="40.072842" lon="-105.230575">
  <ele>1586.09</ele>
  <time>2026-08-27T18:31:04Z</time>
  <course>0.0</course>
  <speed>0.0</speed>
  <fix>3d</fix>
</trkpt>
<trkpt lat="40.072842" lon="-105.230575">
  <ele>1586.09</ele>
  <time>2026-08-27T18:31:04Z</time>
  <course>5.03</course>
  <speed>0.0</speed>
  <fix>3d</fix>
</trkpt>
<trkpt lat="40.072842" lon="-105.230575">
  <ele>1586.09</ele>
  <time>2026-08-27T18:31:04Z</time>
  <course>0.0</course>
  <speed>0.0</speed>
  <fix>3d</fix>
</trkpt>
<trkpt lat="40.072842" lon="-105.230575">
  <ele>1586.09</ele>
  <time>2026-08-27T18:31:04Z</time>
  <course>5.59</course>
  <speed>0.0</speed>
  <fix>3d</fix>
</trkpt>
<trkpt lat="40.072842" lon="-105.230575">
  <ele>1586.09</ele>
  <time>2026-08-27T18:31:04Z</time>
  <course>0.0</course>
  <speed>0.0</speed>
  <fix>3d</fix>
</trkpt>
<trkpt lat="40.072842" lon="-105.230575">
  <ele>1586.09</ele>
  <time>2026-08-27T18:31:04Z</time>
  <course>6.11</course>
  <speed>0.0</speed>
  <fix>3d</fix>
</trkpt>
<trkpt lat="40.072842" lon="-105.230575">
  <ele>1586.09</ele>
  <time>2026-08-27T18:31:04Z</time>
  <course>0.0</course>
  <speed>0.0</speed>
  <fix>3d</fix>
</trkpt>
<trkpt lat="40.072842" lon="-105.230575">
  <ele>1586.09</ele>
  <time>2026-08-27T18:31:04Z</time>
  <course>6.61</course>
  <speed>0.0</speed>
  <fix>3d</fix>
</trkpt>
<trkpt lat="40.072842" lon="-105.230575">
  <ele>1586.09</ele>
  <time>2026-08-27T18:31:04Z</time>
  <course>0.0</course>
  <speed>0.0</speed>
  <fix>3d</fix>
</trkpt>
<trkpt lat="40.072842" lon="-105.230575">
  <ele>1586.09</ele>
  <time>2026-08-27T18:31:05Z</time>
  <course>7.07</course>
  <speed>0.0</speed>
  <fix>3d</fix>
</trkpt>
<trkpt lat="40.072842" lon="-105.230575">
  <ele>1586.09</ele>
  <time>2026-08-27T18:31:05Z</time>
  <course>0.0</course>
  <speed>0.0</speed>
  <fix>3d</fix>
</trkpt>
<trkpt lat="40.072842" lon="-105.230575">
  <ele>1586.09</ele>
  <time>2026-08-27T18:31:05Z</time>
  <course>7.49</course>
  <speed>0.0</speed>
  <fix>3d</fix>
</trkpt>
<trkpt lat="40.072842" lon="-105.230575">
  <ele>1586.09</ele>
  <time>2026-08-27T18:31:05Z</time>
  <course>0.0</course>
  <speed>0.0</speed>
  <fix>3d</fix>
</trkpt>
<trkpt lat="40.072842" lon="-105.230575">
  <ele>1586.09</ele>
  <time>2026-08-27T18:31:05Z</time>
  <course>7.89</course>
  <speed>0.0</speed>
  <fix>3d</fix>
</trkpt>
<trkpt lat="40.072842" lon="-105.230575">
  <ele>1586.09</ele>
  <time>2026-08-27T18:31:05Z</time>
  <course>0.0</course>
  <speed>0.0</speed>
  <fix>3d</fix>
</trkpt>
<trkpt lat="40.072842" lon="-105.230575">
  <ele>1586.09</ele>
  <time>2026-08-27T18:31:05Z</time>
  <course>8.26</course>
  <speed>0.0</speed>
  <fix>3d</fix>
</trkpt>
<trkpt lat="40.072842" lon="-105.230575">
  <ele>1586.09</ele>
  <time>2026-08-27T18:31:05Z</time>
  <course>0.0</course>
  <speed>0.0</speed>
  <fix>3d</fix>
</trkpt>
<trkpt lat="40.072842" lon="-105.230575">
  <ele>1586.09</ele>
  <time>2026-08-27T18:31:05Z</time>
  <course>8.6</course>
  <speed>0.0</speed>
  <fix>3d</fix>
</trkpt>
<trkpt lat="40.072842" lon="-105.230575">
  <ele>1586.09</ele>
  <time>2026-08-27T18:31:05Z</time>
  <course>0.0</course>
  <speed>0.0</speed>
  <fix>3d</fix>
</trkpt>
<trkpt lat="40.072842" lon="-105.230575">
  <ele>1586.09</ele>
  <time>2026-08-27T18:31:05Z</time>
  <course>8.91</course>
  <speed>0.0</speed>
  <fix>3d</fix>
</trkpt>
<trkpt lat="40.072842" lon="-105.230575">
  <ele>1586.09</ele>
  <time>2026-08-27T18:31:05Z</time>
  <course>0.0</course>
  <speed>0.0</speed>
  <fix>3d</fix>
</trkpt>
<trkpt lat="40.072842" lon="-105.230575">
  <ele>1586.09</ele>
  <time>2026-08-27T18:31:05Z</time>
  <course>9.2</course>
  <speed>0.0</speed>
  <fix>3d</fix>
</trkpt>
<trkpt lat="40.072842" lon="-105.230575">
  <ele>1586.09</ele>
  <time>2026-08-27T18:31:05Z</time>
  <course>0.0</course>
  <speed>0.0</speed>
  <fix>3d</fix>
</trkpt>
<trkpt lat="40.072842" lon="-105.230575">
  <ele>1586.09</ele>
  <time>2026-08-27T18:31:05Z</time>
  <course>9.46</course>
  <speed>0.0</speed>
  <fix>3d</fix>
</trkpt>
<trkpt lat="40.072842" lon="-105.230575">
  <ele>1586.09</ele>
  <time>2026-08-27T18:31:05Z</time>
  <course>0.0</course>
  <speed>0.0</speed>
  <fix>3d</fix>
</trkpt>
<trkpt lat="40.072842" lon="-105.230575">
  <ele>1586.09</ele>
  <time>2026-08-27T18:31:05Z</time>
  <course>9.71</course>
  <speed>0.0</speed>
  <fix>3d</fix>
</trkpt>
<trkpt lat="40.072842" lon="-105.230575">
  <ele>1586.09</ele>
  <time>2026-08-27T18:31:05Z</time>
  <course>0.0</course>
  <speed>0.0</speed>
  <fix>3d</fix>
</trkpt>
<trkpt lat="40.072842" lon="-105.230575">
  <ele>1586.09</ele>
  <time>2026-08-27T18:31:05Z</time>
  <course>9.93</course>
  <speed>0.0</speed>
  <fix>3d</fix>
</trkpt>
<trkpt lat="40.072842" lon="-105.230575">
  <ele>1586.09</ele>
  <time>2026-08-27T18:31:05Z</time>
  <course>0.0</course>
  <speed>0.0</speed>
  <fix>3d</fix>
</trkpt>
<trkpt lat="40.072842" lon="-105.230575">
  <ele>1586.09</ele>
  <time>2026-08-27T18:31:05Z</time>
  <course>10.14</course>
  <speed>0.0</speed>
  <fix>3d</fix>
</trkpt>
<trkpt lat="40.072842" lon="-105.230575">
  <ele>1586.09</ele>
  <time>2026-08-27T18:31:05Z</time>
  <course>0.0</course>
  <speed>0.0</speed>
  <fix>3d</fix>
</trkpt>
<trkpt lat="40.072842" lon="-105.230575">
  <ele>1586.09</ele>
  <time>2026-08-27T18:31:05Z</time>
  <course>10.33</course>
  <speed>0.0</speed>
  <fix>3d</fix>
</trkpt>
<trkpt lat="40.072842" lon="-105.230575">
  <ele>1586.09</ele>
  <time>2026-08-27T18:31:05Z</time>
  <course>0.0</course>
  <speed>0.0</speed>
  <fix>3d</fix>
</trkpt>
<trkpt lat="40.072842" lon="-105.230575">
  <ele>1586.09</ele>
  <time>2026-08-27T18:31:05Z</time>
  <course>10.5</course>
  <speed>0.0</speed>
  <fix>3d</fix>
</trkpt>
<trkpt lat="40.072842" lon="-105.230575">
  <ele>1586.09</ele>
  <time>2026-08-27T18:31:05Z</time>
  <course>0.0</course>
  <speed>0.0</speed>
  <fix>3d</fix>
</trkpt>
<trkpt lat="40.072842" lon="-105.230575">
  <ele>1586.09</ele>
  <time>2026-08-27T18:31:05Z</time>
  <course>10.66</course>
  <speed>0.0</speed>
  <fix>3d</fix>
</trkpt>
<trkpt lat="40.072842" lon="-105.230575">
  <ele>1586.09</ele>
  <time>2026-08-27T18:31:05Z</time>
  <course>0.0</course>
  <speed>0.0</speed>
  <fix>3d</fix>
</trkpt>
<trkpt lat="40.072842" lon="-105.230575">
  <ele>1586.09</ele>
  <time>2026-08-27T18:31:05Z</time>
  <course>10.8</course>
  <speed>0.0</speed>
  <fix>3d</fix>
</trkpt>
<trkpt lat="40.072842" lon="-105.230575">
  <ele>1586.09</ele>
  <time>2026-08-27T18:31:05Z</time>
  <course>0.0</course>
  <speed>0.0</speed>
  <fix>3d</fix>
</trkpt>
<trkpt lat="40.072842" lon="-105.230575">
  <ele>1586.09</ele>
  <time>2026-08-27T18:31:05Z</time>
  <course>10.93</course>
  <speed>0.0</speed>
  <fix>3d</fix>
</trkpt>
<trkpt lat="40.072842" lon="-105.230575">
  <ele>1586.09</ele>
  <time>2026-08-27T18:31:05Z</time>
  <course>0.0</course>
  <speed>0.0</speed>
  <fix>3d</fix>
</trkpt>
<trkpt lat="40.072842" lon="-105.230575">
  <ele>1586.09</ele>
  <time>2026-08-27T18:31:05Z</time>
  <course>11.06</course>
  <speed>0.0</speed>
  <fix>3d</fix>
</trkpt>
<trkpt lat="40.072842" lon="-105.230575">
  <ele>1586.09</ele>
  <time>2026-08-27T18:31:05Z</time>
  <course>0.0</course>
  <speed>0.0</speed>
  <fix>3d</fix>
</trkpt>
<trkpt lat="40.072842" lon="-105.230575">
  <ele>1586.09</ele>
  <time>2026-08-27T18:31:05Z</time>
  <course>11.16</course>
  <speed>0.0</speed>
  <fix>3d</fix>
</trkpt>
<trkpt lat="40.072842" lon="-105.230575">
  <ele>1586.09</ele>
  <time>2026-08-27T18:31:05Z</time>
  <course>0.0</course>
  <speed>0.0</speed>
  <fix>3d</fix>
</trkpt>
<trkpt lat="40.072842" lon="-105.230575">
  <ele>1586.09</ele>
  <time>2026-08-27T18:31:05Z</time>
  <course>11.27</course>
  <speed>0.0</speed>
  <fix>3d</fix>
</trkpt>
<trkpt lat="40.072842" lon="-105.230575">
  <ele>1586.09</ele>
  <time>2026-08-27T18:31:05Z</time>
  <course>0.0</course>
  <speed>0.0</speed>
  <fix>3d</fix>
</trkpt>
<trkpt lat="40.072842" lon="-105.230575">
  <ele>1586.09</ele>
  <time>2026-08-27T18:31:05Z</time>
  <course>11.36</course>
  <speed>0.0</speed>
  <fix>3d</fix>
</trkpt>
<trkpt lat="40.072842" lon="-105.230575">
  <ele>1586.09</ele>
  <time>2026-08-27T18:31:05Z</time>
  <course>0.0</course>
  <speed>0.0</speed>
  <fix>3d</fix>
</trkpt>
<trkpt lat="40.072842" lon="-105.230575">
  <ele>1586.09</ele>
  <time>2026-08-27T18:31:05Z</time>
  <course>11.44</course>
  <speed>0.0</speed>
  <fix>3d</fix>
</trkpt>
<trkpt lat="40.072842" lon="-105.230575">
  <ele>1586.09</ele>
  <time>2026-08-27T18:31:05Z</time>
  <course>0.0</course>
  <speed>0.0</speed>
  <fix>3d</fix>
</trkpt>
<trkpt lat="40.072842" lon="-105.230575">
  <ele>1586.09</ele>
  <time>2026-08-27T18:31:05Z</time>
  <course>11.52</course>
  <speed>0.0</speed>
  <fix>3d</fix>
</trkpt>
<trkpt lat="40.072842" lon="-105.230575">
  <ele>1586.09</ele>
  <time>2026-08-27T18:31:05Z</time>
  <course>0.0</course>
  <speed>0.0</speed>
  <fix>3d</fix>
</trkpt>
<trkpt lat="40.072842" lon="-105.230575">
  <ele>1586.09</ele>
  <time>2026-08-27T18:31:05Z</time>
  <course>11.58</course>
  <speed>0.0</speed>
  <fix>3d</fix>
</trkpt>
<trkpt lat="40.072842" lon="-105.230575">
  <ele>1586.09</ele>
  <time>2026-08-27T18:31:05Z</time>
  <course>0.0</course>
  <speed>0.0</speed>
  <fix>3d</fix>
</trkpt>
<trkpt lat="40.072842" lon="-105.230575">
  <ele>1586.09</ele>
  <time>2026-08-27T18:31:05Z</time>
  <course>11.65</course>
  <speed>0.0</speed>
  <fix>3d</fix>
</trkpt>
<trkpt lat="40.072842" lon="-105.230575">
  <ele>1586.09</ele>
  <time>2026-08-27T18:31:05Z</time>
  <course>0.0</course>
  <speed>0.0</speed>
  <fix>3d</fix>
</trkpt>
<trkpt lat="40.072842" lon="-105.230575">
  <ele>1586.09</ele>
  <time>2026-08-27T18:31:05Z</time>
  <course>11.71</course>
  <speed>0.0</speed>
  <fix>3d</fix>
</trkpt>
<trkpt lat="40.072842" lon="-105.230575">
  <ele>1586.09</ele>
  <time>2026-08-27T18:31:05Z</time>
  <course>0.0</course>
  <speed>0.0</speed>
  <fix>3d</fix>
</trkpt>
<trkpt lat="40.072842" lon="-105.230575">
  <ele>1586.09</ele>
  <time>2026-08-27T18:31:05Z</time>
  <course>11.76</course>
  <speed>0.0</speed>
  <fix>3d</fix>
</trkpt>
<trkpt lat="40.072842" lon="-105.230575">
  <ele>1586.09</ele>
  <time>2026-08-27T18:31:05Z</time>
  <course>0.0</course>
  <speed>0.0</speed>
  <fix>3d</fix>
</trkpt>
<trkpt lat="40.072842" lon="-105.230575">
  <ele>1586.09</ele>
  <time>2026-08-27T18:31:05Z</time>
  <course>11.81</course>
  <speed>0.0</speed>
  <fix>3d</fix>
</trkpt>
<trkpt lat="40.072842" lon="-105.230575">
  <ele>1586.09</ele>
  <time>2026-08-27T18:31:05Z</time>
  <course>0.0</course>
  <speed>0.0</speed>
  <fix>3d</fix>
</trkpt>
<trkpt lat="40.072842" lon="-105.230575">
  <ele>1586.09</ele>
  <time>2026-08-27T18:31:05Z</time>
  <course>11.85</course>
  <speed>0.0</speed>
  <fix>3d</fix>
</trkpt>
<trkpt lat="40.072842" lon="-105.230575">
  <ele>1586.09</ele>
  <time>2026-08-27T18:31:05Z</time>
  <course>0.0</course>
  <speed>0.0</speed>
  <fix>3d</fix>
</trkpt>
<trkpt lat="40.072842" lon="-105.230575">
  <ele>1586.09</ele>
  <time>2026-08-27T18:31:05Z</time>
  <course>11.89</course>
  <speed>0.0</speed>
  <fix>3d</fix>
</trkpt>
<trkpt lat="40.072842" lon="-105.230575">
  <ele>1586.09</ele>
  <time>2026-08-27T18:31:05Z</time>
  <course>0.0</course>
  <speed>0.0</speed>
  <fix>3d</fix>
</trkpt>
<trkpt lat="40.072842" lon="-105.230575">
  <ele>1586.09</ele>
  <time>2026-08-27T18:31:05Z</time>
  <course>11.92</course>
  <speed>0.0</speed>
  <fix>3d</fix>
</trkpt>
<trkpt lat="40.072842" lon="-105.230575">
  <ele>1586.09</ele>
  <time>2026-08-27T18:31:05Z</time>
  <course>0.0</course>
  <speed>0.0</speed>
  <fix>3d</fix>
</trkpt>
<trkpt lat="40.072842" lon="-105.230575">
  <ele>1586.09</ele>
  <time>2026-08-27T18:31:05Z</time>
  <course>11.95</course>
  <speed>0.0</speed>
  <fix>3d</fix>
</trkpt>
<trkpt lat="40.072842" lon="-105.230575">
  <ele>1586.09</ele>
  <time>2026-08-27T18:31:05Z</time>
  <course>0.0</course>
  <speed>0.0</speed>
  <fix>3d</fix>
</trkpt>
<trkpt lat="40.072842" lon="-105.230575">
  <ele>1586.09</ele>
  <time>2026-08-27T18:31:05Z</time>
  <course>11.97</course>
  <speed>0.0</speed>
  <fix>3d</fix>
</trkpt>
<trkpt lat="40.072842" lon="-105.230575">
  <ele>1586.09</ele>
  <time>2026-08-27T18:31:05Z</time>
  <course>0.0</course>
  <speed>0.0</speed>
  <fix>3d</fix>
</trkpt>
<trkpt lat="40.072842" lon="-105.230575">
  <ele>1586.09</ele>
  <time>2026-08-27T18:31:05Z</time>
  <course>12.0</course>
  <speed>0.0</speed>
  <fix>3d</fix>
</trkpt>
<trkpt lat="40.072842" lon="-105.230575">
  <ele>1586.09</ele>
  <time>2026-08-27T18:31:05Z</time>
  <course>0.0</course>
  <speed>0.0</speed>
  <fix>3d</fix>
</trkpt>
<trkpt lat="40.072842" lon="-105.230575">
  <ele>1586.09</ele>
  <time>2026-08-27T18:31:05Z</time>
  <course>12.02</course>
  <speed>0.0</speed>
  <fix>3d</fix>
</trkpt>
<trkpt lat="40.072842" lon="-105.230575">
  <ele>1586.09</ele>
  <time>2026-08-27T18:31:05Z</time>
  <course>0.0</course>
  <speed>0.0</speed>
  <fix>3d</fix>
</trkpt>
<trkpt lat="40.072842" lon="-105.230575">
  <ele>1586.09</ele>
  <time>2026-08-27T18:31:05Z</time>
  <course>12.04</course>
  <speed>0.0</speed>
  <fix>3d</fix>
</trkpt>
<trkpt lat="40.072842" lon="-105.230575">
  <ele>1586.09</ele>
  <time>2026-08-27T18:31:05Z</time>
  <course>0.0</course>
  <speed>0.0</speed>
  <fix>3d</fix>
</trkpt>
<trkpt lat="40.072842" lon="-105.230575">
  <ele>1586.09</ele>
  <time>2026-08-27T18:31:05Z</time>
  <course>12.05</course>
  <speed>0.0</speed>
  <fix>3d</fix>
</trkpt>
<trkpt lat="40.072842" lon="-105.230575">
  <ele>1586.09</ele>
  <time>2026-08-27T18:31:05Z</time>
  <course>0.0</course>
  <speed>0.0</speed>
  <fix>3d</fix>
</trkpt>
<trkpt lat="40.072842" lon="-105.230575">
  <ele>1586.09</ele>
  <time>2026-08-27T18:31:05Z</time>
  <course>12.07</course>
  <speed>0.0</speed>
  <fix>3d</fix>
</trkpt>
<trkpt lat="40.072842" lon="-105.230575">
  <ele>1586.09</ele>
  <time>2026-08-27T18:31:05Z</time>
  <course>0.0</course>
  <speed>0.0</speed>
  <fix>3d</fix>
</trkpt>
<trkpt lat="40.072842" lon="-105.230575">
  <ele>1586.09</ele>
  <time>2026-08-27T18:31:05Z</time>
  <course>12.08</course>
  <speed>0.0</speed>
  <fix>3d</fix>
</trkpt>
<trkpt lat="40.072842" lon="-105.230575">
  <ele>1586.09</ele>
  <time>2026-08-27T18:31:05Z</time>
  <course>0.0</course>
  <speed>0.0</speed>
  <fix>3d</fix>
</trkpt>
<trkpt lat="40.072842" lon="-105.230575">
  <ele>1586.09</ele>
  <time>2026-08-27T18:31:05Z</time>
  <course>12.09</course>
  <speed>0.0</speed>
  <fix>3d</fix>
</trkpt>
<trkpt lat="40.072842" lon="-105.230575">
  <ele>1586.09</ele>
  <time>2026-08-27T18:31:05Z</time>
  <course>0.0</course>
  <speed>0.0</speed>
  <fix>3d</fix>
</trkpt>
<trkpt lat="40.072842" lon="-105.230575">
  <ele>1586.09</ele>
  <time>2026-08-27T18:31:05Z</time>
  <course>12.1</course>
  <speed>0.0</speed>
  <fix>3d</fix>
</trkpt>
<trkpt lat="40.072842" lon="-105.230575">
  <ele>1586.09</ele>
  <time>2026-08-27T18:31:05Z</time>
  <course>0.0</course>
  <speed>0.0</speed>
  <fix>3d</fix>
</trkpt>
<trkpt lat="40.072842" lon="-105.230575">
  <ele>1586.09</ele>
  <time>2026-08-27T18:31:05Z</time>
  <course>12.1</course>
  <speed>0.0</speed>
  <fix>3d</fix>
</trkpt>
<trkpt lat="40.072842" lon="-105.230575">
  <ele>1586.09</ele>
  <time>2026-08-27T18:31:05Z</time>
  <course>0.0</course>
  <speed>0.0</speed>
  <fix>3d</fix>
</trkpt>
<trkpt lat="40.072842" lon="-105.230575">
  <ele>1586.09</ele>
  <time>2026-08-27T18:31:05Z</time>
  <course>12.11</course>
  <speed>0.0</speed>
  <fix>3d</fix>
</trkpt>
<trkpt lat="40.072842" lon="-105.230575">
  <ele>1586.09</ele>
  <time>2026-08-27T18:31:05Z</time>
  <course>0.0</course>
  <speed>0.0</speed>
  <fix>3d</fix>
</trkpt>
<trkpt lat="40.072842" lon="-105.230575">
  <ele>1586.09</ele>
  <time>2026-08-27T18:31:05Z</time>
  <course>12.11</course>
  <speed>0.0</speed>
  <fix>3d</fix>
</trkpt>
<trkpt lat="40.072842" lon="-105.230575">
  <ele>1586.09</ele>
  <time>2026-08-27T18:31:05Z</time>
  <course>0.0</course>
  <speed>0.0</speed>
  <fix>3d</fix>
</trkpt>
<trkpt lat="40.072842" lon="-105.230575">
  <ele>1586.09</ele>
  <time>2026-08-27T18:31:05Z</time>
  <course>12.12</course>
  <speed>0.0</speed>
  <fix>3d</fix>
</trkpt>
<trkpt lat="40.072842" lon="-105.230575">
  <ele>1586.09</ele>
  <time>2026-08-27T18:31:05Z</time>
  <course>0.0</course>
  <speed>0.0</speed>
  <fix>3d</fix>
</trkpt>
<trkpt lat="40.072842" lon="-105.230575">
  <ele>1586.09</ele>
  <time>2026-08-27T18:31:05Z</time>
  <course>12.12</course>
  <speed>0.0</speed>
  <fix>3d</fix>
</trkpt>
<trkpt lat="40.072842" lon="-105.230575">
  <ele>1586.09</ele>
  <time>2026-08-27T18:31:05Z</time>
  <course>0.0</course>
  <speed>0.0</speed>
  <fix>3d</fix>
</trkpt>
<trkpt lat="40.072842" lon="-105.230575">
  <ele>1586.09</ele>
  <time>2026-08-27T18:31:05Z</time>
  <course>12.12</course>
  <speed>0.0</speed>
  <fix>3d</fix>
</trkpt>
<trkpt lat="40.072842" lon="-105.230575">
  <ele>1586.09</ele>
  <time>2026-08-27T18:31:05Z</time>
  <course>0.0</course>
  <speed>0.0</speed>
  <fix>3d</fix>
</trkpt>
<trkpt lat="40.072842" lon="-105.230575">
  <ele>1586.09</ele>
  <time>2026-08-27T18:31:05Z</time>
  <course>12.12</course>
  <speed>0.0</speed>
  <fix>3d</fix>
</trkpt>
<trkpt lat="40.072842" lon="-105.230575">
  <ele>1586.09</ele>
  <time>2026-08-27T18:31:05Z</time>
  <course>0.0</course>
  <speed>0.0</speed>
  <fix>3d</fix>
</trkpt>
<trkpt lat="40.072842" lon="-105.230575">
  <ele>1586.09</ele>
  <time>2026-08-27T18:31:05Z</time>
  <course>12.12</course>
  <speed>0.0</speed>
  <fix>3d</fix>
</trkpt>
<trkpt lat="40.072842" lon="-105.230575">
  <ele>1586.09</ele>
  <time>2026-08-27T18:31:05Z</time>
  <course>0.0</course>
  <speed>0.0</speed>
  <fix>3d</fix>
</trkpt>
<trkpt lat="40.072842" lon="-105.230575">
  <ele>1586.09</ele>
  <time>2026-08-27T18:31:05Z</time>
  <course>12.12</course>
  <speed>0.01</speed>
  <fix>3d</fix>
</trkpt>
<trkpt lat="40.072842" lon="-105.230575">
  <ele>1586.09</ele>
  <time>2026-08-27T18:31:05Z</time>
  <course>0.0</course>
  <speed>0.0</speed>
  <fix>3d</fix>
</trkpt>
<trkpt lat="40.072842" lon="-105.230575">
  <ele>1586.09</ele>
  <time>2026-08-27T18:31:05Z</time>
  <course>12.12</course>
  <speed>0.01</speed>
  <fix>3d</fix>
</trkpt>
<trkpt lat="40.072842" lon="-105.230575">
  <ele>1586.09</ele>
  <time>2026-08-27T18:31:05Z</time>
  <course>0.0</course>
  <speed>0.0</speed>
  <fix>3d</fix>
</trkpt>
<trkpt lat="40.072842" lon="-105.230575">
  <ele>1586.09</ele>
  <time>2026-08-27T18:31:05Z</time>
  <course>12.12</course>
  <speed>0.01</speed>
  <fix>3d</fix>
</trkpt>
<trkpt lat="40.072842" lon="-105.230575">
  <ele>1586.09</ele>
  <time>2026-08-27T18:31:05Z</time>
  <course>0.0</course>
  <speed>0.0</speed>
  <fix>3d</fix>
</trkpt>
<trkpt lat="40.072842" lon="-105.230575">
  <ele>1586.09</ele>
  <time>2026-08-27T18:31:05Z</time>
  <course>12.11</course>
  <speed>0.01</speed>
  <fix>3d</fix>
</trkpt>
<trkpt lat="40.072842" lon="-105.230575">
  <ele>1586.09</ele>
  <time>2026-08-27T18:31:05Z</time>
  <course>0.0</course>
  <speed>0.0</speed>
  <fix>3d</fix>
</trkpt>
<trkpt lat="40.072842" lon="-105.230575">
  <ele>1586.09</ele>
  <time>2026-08-27T18:31:05Z</time>
  <course>12.11</course>
  <speed>0.01</speed>
  <fix>3d</fix>
</trkpt>
<trkpt lat="40.072842" lon="-105.230575">
  <ele>1586.09</ele>
  <time>2026-08-27T18:31:05Z</time>
  <course>0.0</course>
  <speed>0.0</speed>
  <fix>3d</fix>
</trkpt>
<trkpt lat="40.072842" lon="-105.230575">
  <ele>1586.09</ele>
  <time>2026-08-27T18:31:05Z</time>
  <course>12.11</course>
  <speed>0.01</speed>
  <fix>3d</fix>
</trkpt>
<trkpt lat="40.072842" lon="-105.230575">
  <ele>1586.09</ele>
  <time>2026-08-27T18:31:05Z</time>
  <course>0.0</course>
  <speed>0.0</speed>
  <fix>3d</fix>
</trkpt>
<trkpt lat="40.072842" lon="-105.230575">
  <ele>1586.09</ele>
  <time>2026-08-27T18:31:05Z</time>
  <course>12.1</course>
  <speed>0.01</speed>
  <fix>3d</fix>
</trkpt>
<trkpt lat="40.072842" lon="-105.230575">
  <ele>1586.09</ele>
  <time>2026-08-27T18:31:05Z</time>
  <course>0.0</course>
  <speed>0.0</speed>
  <fix>3d</fix>
</trkpt>
<trkpt lat="40.072842" lon="-105.230575">
  <ele>1586.09</ele>
  <time>2026-08-27T18:31:05Z</time>
  <course>12.1</course>
  <speed>0.01</speed>
  <fix>3d</fix>
</trkpt>
<trkpt lat="40.072842" lon="-105.230575">
  <ele>1586.09</ele>
  <time>2026-08-27T18:31:05Z</time>
  <course>0.0</course>
  <speed>0.0</speed>
  <fix>3d</fix>
</trkpt>
<trkpt lat="40.072842" lon="-105.230575">
  <ele>1586.09</ele>
  <time>2026-08-27T18:31:05Z</time>
  <course>12.09</course>
  <speed>0.01</speed>
  <fix>3d</fix>
</trkpt>
<trkpt lat="40.072842" lon="-105.230575">
  <ele>1586.09</ele>
  <time>2026-08-27T18:31:05Z</time>
  <course>0.0</course>
  <speed>0.0</speed>
  <fix>3d</fix>
</trkpt>
<trkpt lat="40.072842" lon="-105.230575">
  <ele>1586.09</ele>
  <time>2026-08-27T18:31:05Z</time>
  <course>12.09</course>
  <speed>0.01</speed>
  <fix>3d</fix>
</trkpt>
<trkpt lat="40.072842" lon="-105.230575">
  <ele>1586.09</ele>
  <time>2026-08-27T18:31:05Z</time>
  <course>0.0</course>
  <speed>0.0</speed>
  <fix>3d</fix>
</trkpt>
<trkpt lat="40.072842" lon="-105.230575">
  <ele>1586.09</ele>
  <time>2026-08-27T18:31:05Z</time>
  <course>12.08</course>
  <speed>0.01414213562373095</speed>
  <fix>3d</fix>
</trkpt>
<trkpt lat="40.072842" lon="-105.230575">
  <ele>1586.09</ele>
  <time>2026-08-27T18:31:05Z</time>
  <course>0.0</course>
  <speed>0.0</speed>
  <fix>3d</fix>
</trkpt>
<trkpt lat="40.072842" lon="-105.230575">
  <ele>1586.09</ele>
  <time>2026-08-27T18:31:05Z</time>
  <course>12.07</course>
  <speed>0.01414213562373095</speed>
  <fix>3d</fix>
</trkpt>
<trkpt lat="40.072842" lon="-105.230575">
  <ele>1586.09</ele>
  <time>2026-08-27T18:31:05Z</time>
  <course>0.0</course>
  <speed>0.0</speed>
  <fix>3d</fix>
</trkpt>
<trkpt lat="40.072842" lon="-105.230575">
  <ele>1586.09</ele>
  <time>2026-08-27T18:31:05Z</time>
  <course>12.07</course>
  <speed>0.01414213562373095</speed>
  <fix>3d</fix>
</trkpt>
<trkpt lat="40.072842" lon="-105.230575">
  <ele>1586.09</ele>
  <time>2026-08-27T18:31:05Z</time>
  <course>0.0</course>
  <speed>0.0</speed>
  <fix>3d</fix>
</trkpt>
<trkpt lat="40.072842" lon="-105.230575">
  <ele>1586.09</ele>
  <time>2026-08-27T18:31:05Z</time>
  <course>12.06</course>
  <speed>0.01414213562373095</speed>
  <fix>3d</fix>
</trkpt>
<trkpt lat="40.072842" lon="-105.230575">
  <ele>1586.09</ele>
  <time>2026-08-27T18:31:05Z</time>
  <course>0.0</course>
  <speed>0.0</speed>
  <fix>3d</fix>
</trkpt>
<trkpt lat="40.072842" lon="-105.230575">
  <ele>1586.09</ele>
  <time>2026-08-27T18:31:05Z</time>
  <course>12.05</course>
  <speed>0.01414213562373095</speed>
  <fix>3d</fix>
</trkpt>
<trkpt lat="40.072842" lon="-105.230575">
  <ele>1586.09</ele>
  <time>2026-08-27T18:31:05Z</time>
  <course>0.0</course>
  <speed>0.0</speed>
  <fix>3d</fix>
</trkpt>
<trkpt lat="40.072842" lon="-105.230575">
  <ele>1586.09</ele>
  <time>2026-08-27T18:31:05Z</time>
  <course>12.05</course>
  <speed>0.01414213562373095</speed>
  <fix>3d</fix>
</trkpt>
<trkpt lat="40.072842" lon="-105.230575">
  <ele>1586.09</ele>
  <time>2026-08-27T18:31:05Z</time>
  <course>0.0</course>
  <speed>0.0</speed>
  <fix>3d</fix>
</trkpt>
<trkpt lat="40.072842" lon="-105.230575">
  <ele>1586.09</ele>
  <time>2026-08-27T18:31:05Z</time>
  <course>12.04</course>
  <speed>0.01414213562373095</speed>
  <fix>3d</fix>
</trkpt>
<trkpt lat="40.072842" lon="-105.230575">
  <ele>1586.09</ele>
  <time>2026-08-27T18:31:05Z</time>
  <course>0.0</course>
  <speed>0.0</speed>
  <fix>3d</fix>
</trkpt>
<trkpt lat="40.072842" lon="-105.230575">
  <ele>1586.09</ele>
  <time>2026-08-27T18:31:05Z</time>
  <course>12.03</course>
  <speed>0.01414213562373095</speed>
  <fix>3d</fix>
</trkpt>
<trkpt lat="40.072842" lon="-105.230575">
  <ele>1586.09</ele>
  <time>2026-08-27T18:31:05Z</time>
  <course>0.0</course>
  <speed>0.0</speed>
  <fix>3d</fix>
</trkpt>
<trkpt lat="40.072842" lon="-105.230575">
  <ele>1586.09</ele>
  <time>2026-08-27T18:31:05Z</time>
  <course>12.02</course>
  <speed>0.01414213562373095</speed>
  <fix>3d</fix>
</trkpt>
<trkpt lat="40.072842" lon="-105.230575">
  <ele>1586.09</ele>
  <time>2026-08-27T18:31:05Z</time>
  <course>0.0</course>
  <speed>0.0</speed>
  <fix>3d</fix>
</trkpt>
<trkpt lat="40.072842" lon="-105.230575">
  <ele>1586.09</ele>
  <time>2026-08-27T18:31:05Z</time>
  <course>12.02</course>
  <speed>0.01414213562373095</speed>
  <fix>3d</fix>
</trkpt>
<trkpt lat="40.072842" lon="-105.230575">
  <ele>1586.09</ele>
  <time>2026-08-27T18:31:05Z</time>
  <course>0.0</course>
  <speed>0.0</speed>
  <fix>3d</fix>
</trkpt>
<trkpt lat="40.072842" lon="-105.230575">
  <ele>1586.09</ele>
  <time>2026-08-27T18:31:05Z</time>
  <course>12.01</course>
  <speed>0.01414213562373095</speed>
  <fix>3d</fix>
</trkpt>
<trkpt lat="40.072842" lon="-105.230575">
  <ele>1586.09</ele>
  <time>2026-08-27T18:31:05Z</time>
  <course>0.0</course>
  <speed>0.0</speed>
  <fix>3d</fix>
</trkpt>
<trkpt lat="40.072842" lon="-105.230575">
  <ele>1586.09</ele>
  <time>2026-08-27T18:31:05Z</time>
  <course>12.0</course>
  <speed>0.01414213562373095</speed>
  <fix>3d</fix>
</trkpt>
<trkpt lat="40.072842" lon="-105.230575">
  <ele>1586.09</ele>
  <time>2026-08-27T18:31:05Z</time>
  <course>0.0</course>
  <speed>0.0</speed>
  <fix>3d</fix>
</trkpt>
<trkpt lat="40.072842" lon="-105.230575">
  <ele>1586.09</ele>
  <time>2026-08-27T18:31:05Z</time>
  <course>11.99</course>
  <speed>0.01414213562373095</speed>
  <fix>3d</fix>
</trkpt>
<trkpt lat="40.072842" lon="-105.230575">
  <ele>1586.09</ele>
  <time>2026-08-27T18:31:05Z</time>
  <course>0.0</course>
  <speed>0.0</speed>
  <fix>3d</fix>
</trkpt>
<trkpt lat="40.072842" lon="-105.230575">
  <ele>1586.09</ele>
  <time>2026-08-27T18:31:05Z</time>
  <course>11.99</course>
  <speed>0.01414213562373095</speed>
  <fix>3d</fix>
</trkpt>
<trkpt lat="40.072842" lon="-105.230575">
  <ele>1586.09</ele>
  <time>2026-08-27T18:31:05Z</time>
  <course>0.0</course>
  <speed>0.0</speed>
  <fix>3d</fix>
</trkpt>
<trkpt lat="40.072842" lon="-105.230575">
  <ele>1586.09</ele>
  <time>2026-08-27T18:31:05Z</time>
  <course>11.98</course>
  <speed>0.01414213562373095</speed>
  <fix>3d</fix>
</trkpt>
<trkpt lat="40.072842" lon="-105.230575">
  <ele>1586.09</ele>
  <time>2026-08-27T18:31:05Z</time>
  <course>0.0</course>
  <speed>0.0</speed>
  <fix>3d</fix>
</trkpt>
<trkpt lat="40.072842" lon="-105.230575">
  <ele>1586.09</ele>
  <time>2026-08-27T18:31:05Z</time>
  <course>11.97</course>
  <speed>0.01414213562373095</speed>
  <fix>3d</fix>
</trkpt>
<trkpt lat="40.072842" lon="-105.230575">
  <ele>1586.09</ele>
  <time>2026-08-27T18:31:05Z</time>
  <course>0.0</course>
  <speed>0.0</speed>
  <fix>3d</fix>
</trkpt>
<trkpt lat="40.072842" lon="-105.230575">
  <ele>1586.09</ele>
  <time>2026-08-27T18:31:05Z</time>
  <course>11.96</course>
  <speed>0.01414213562373095</speed>
  <fix>3d</fix>
</trkpt>
<trkpt lat="40.072842" lon="-105.230575">
  <ele>1586.09</ele>
  <time>2026-08-27T18:31:05Z</time>
  <course>0.0</course>
  <speed>0.0</speed>
  <fix>3d</fix>
</trkpt>
<trkpt lat="40.072842" lon="-105.230575">
  <ele>1586.09</ele>
  <time>2026-08-27T18:31:05Z</time>
  <course>11.95</course>
  <speed>0.022360679774997897</speed>
  <fix>3d</fix>
</trkpt>
<trkpt lat="40.072842" lon="-105.230575">
  <ele>1586.09</ele>
  <time>2026-08-27T18:31:05Z</time>
  <course>0.0</course>
  <speed>0.0</speed>
  <fix>3d</fix>
</trkpt>
<trkpt lat="40.072842" lon="-105.230575">
  <ele>1586.09</ele>
  <time>2026-08-27T18:31:05Z</time>
  <course>11.95</course>
  <speed>0.022360679774997897</speed>
  <fix>3d</fix>
</trkpt>
<trkpt lat="40.072842" lon="-105.230575">
  <ele>1586.09</ele>
  <time>2026-08-27T18:31:05Z</time>
  <course>0.0</course>
  <speed>0.0</speed>
  <fix>3d</fix>
</trkpt>
<trkpt lat="40.072842" lon="-105.230575">
  <ele>1586.09</ele>
  <time>2026-08-27T18:31:05Z</time>
  <course>11.94</course>
  <speed>0.022360679774997897</speed>
  <fix>3d</fix>
</trkpt>
<trkpt lat="40.072842" lon="-105.230575">
  <ele>1586.09</ele>
  <time>2026-08-27T18:31:05Z</time>
  <course>0.0</course>
  <speed>0.0</speed>
  <fix>3d</fix>
</trkpt>
<trkpt lat="40.072842" lon="-105.230575">
  <ele>1586.09</ele>
  <time>2026-08-27T18:31:05Z</time>
  <course>11.93</course>
  <speed>0.022360679774997897</speed>
  <fix>3d</fix>
</trkpt>
<trkpt lat="40.072842" lon="-105.230575">
  <ele>1586.09</ele>
  <time>2026-08-27T18:31:05Z</time>
  <course>0.0</course>
  <speed>0.0</speed>
  <fix>3d</fix>
</trkpt>
<trkpt lat="40.072842" lon="-105.230575">
  <ele>1586.09</ele>
  <time>2026-08-27T18:31:05Z</time>
  <course>11.92</course>
  <speed>0.022360679774997897</speed>
  <fix>3d</fix>
</trkpt>
<trkpt lat="40.072842" lon="-105.230575">
  <ele>1586.09</ele>
  <time>2026-08-27T18:31:05Z</time>
  <course>0.0</course>
  <speed>0.0</speed>
  <fix>3d</fix>
</trkpt>
<trkpt lat="40.072842" lon="-105.230575">
  <ele>1586.09</ele>
  <time>2026-08-27T18:31:05Z</time>
  <course>11.91</course>
  <speed>0.022360679774997897</speed>
  <fix>3d</fix>
</trkpt>
<trkpt lat="40.072842" lon="-105.230575">
  <ele>1586.09</ele>
  <time>2026-08-27T18:31:05Z</time>
  <course>0.0</course>
  <speed>0.0</speed>
  <fix>3d</fix>
</trkpt>
<trkpt lat="40.072842" lon="-105.230575">
  <ele>1586.09</ele>
  <time>2026-08-27T18:31:05Z</time>
  <course>11.91</course>
  <speed>0.022360679774997897</speed>
  <fix>3d</fix>
</trkpt>
<trkpt lat="40.072842" lon="-105.230575">
  <ele>1586.09</ele>
  <time>2026-08-27T18:31:05Z</time>
  <course>0.0</course>
  <speed>0.0</speed>
  <fix>3d</fix>
</trkpt>
<trkpt lat="40.072842" lon="-105.230575">
  <ele>1586.09</ele>
  <time>2026-08-27T18:31:05Z</time>
  <course>11.9</course>
  <speed>0.022360679774997897</speed>
  <fix>3d</fix>
</trkpt>
<trkpt lat="40.072842" lon="-105.230575">
  <ele>1586.09</ele>
  <time>2026-08-27T18:31:05Z</time>
  <course>0.0</course>
  <speed>0.0</speed>
  <fix>3d</fix>
</trkpt>
<trkpt lat="40.072842" lon="-105.230575">
  <ele>1586.09</ele>
  <time>2026-08-27T18:31:05Z</time>
  <course>11.89</course>
  <speed>0.022360679774997897</speed>
  <fix>3d</fix>
</trkpt>
<trkpt lat="40.072842" lon="-105.230575">
  <ele>1586.09</ele>
  <time>2026-08-27T18:31:05Z</time>
  <course>0.0</course>
  <speed>0.0</speed>
  <fix>3d</fix>
</trkpt>
<trkpt lat="40.072842" lon="-105.230575">
  <ele>1586.09</ele>
  <time>2026-08-27T18:31:05Z</time>
  <course>11.88</course>
  <speed>0.022360679774997897</speed>
  <fix>3d</fix>
</trkpt>
<trkpt lat="40.072842" lon="-105.230575">
  <ele>1586.09</ele>
  <time>2026-08-27T18:31:05Z</time>
  <course>0.0</course>
  <speed>0.0</speed>
  <fix>3d</fix>
</trkpt>
<trkpt lat="40.072842" lon="-105.230575">
  <ele>1586.09</ele>
  <time>2026-08-27T18:31:05Z</time>
  <course>11.87</course>
  <speed>0.022360679774997897</speed>
  <fix>3d</fix>
</trkpt>
<trkpt lat="40.072842" lon="-105.230575">
  <ele>1586.09</ele>
  <time>2026-08-27T18:31:05Z</time>
  <course>0.0</course>
  <speed>0.0</speed>
  <fix>3d</fix>
</trkpt>
<trkpt lat="40.072842" lon="-105.230575">
  <ele>1586.09</ele>
  <time>2026-08-27T18:31:05Z</time>
  <course>11.86</course>
  <speed>0.022360679774997897</speed>
  <fix>3d</fix>
</trkpt>
<trkpt lat="40.072842" lon="-105.230575">
  <ele>1586.09</ele>
  <time>2026-08-27T18:31:05Z</time>
  <course>0.0</course>
  <speed>0.0</speed>
  <fix>3d</fix>
</trkpt>
<trkpt lat="40.072842" lon="-105.230575">
  <ele>1586.09</ele>
  <time>2026-08-27T18:31:05Z</time>
  <course>11.86</course>
  <speed>0.022360679774997897</speed>
  <fix>3d</fix>
</trkpt>
<trkpt lat="40.072842" lon="-105.230575">
  <ele>1586.09</ele>
  <time>2026-08-27T18:31:05Z</time>
  <course>0.0</course>
  <speed>0.0</speed>
  <fix>3d</fix>
</trkpt>
<trkpt lat="40.072842" lon="-105.230575">
  <ele>1586.09</ele>
  <time>2026-08-27T18:31:05Z</time>
  <course>11.85</course>
  <speed>0.022360679774997897</speed>
  <fix>3d</fix>
</trkpt>
<trkpt lat="40.072842" lon="-105.230575">
  <ele>1586.09</ele>
  <time>2026-08-27T18:31:05Z</time>
  <course>0.0</course>
  <speed>0.0</speed>
  <fix>3d</fix>
</trkpt>
<trkpt lat="40.072842" lon="-105.230575">
  <ele>1586.09</ele>
  <time>2026-08-27T18:31:05Z</time>
  <course>11.84</course>
  <speed>0.022360679774997897</speed>
  <fix>3d</fix>
</trkpt>
<trkpt lat="40.072842" lon="-105.230575">
  <ele>1586.09</ele>
  <time>2026-08-27T18:31:05Z</time>
  <course>0.0</course>
  <speed>0.0</speed>
  <fix>3d</fix>
</trkpt>
<trkpt lat="40.072842" lon="-105.230575">
  <ele>1586.09</ele>
  <time>2026-08-27T18:31:05Z</time>
  <course>11.83</course>
  <speed>0.022360679774997897</speed>
  <fix>3d</fix>
</trkpt>
<trkpt lat="40.072842" lon="-105.230575">
  <ele>1586.09</ele>
  <time>2026-08-27T18:31:05Z</time>
  <course>0.0</course>
  <speed>0.0</speed>
  <fix>3d</fix>
</trkpt>
<trkpt lat="40.072842" lon="-105.230575">
  <ele>1586.09</ele>
  <time>2026-08-27T18:31:05Z</time>
  <course>11.82</course>
  <speed>0.022360679774997897</speed>
  <fix>3d</fix>
</trkpt>
<trkpt lat="40.072842" lon="-105.230575">
  <ele>1586.09</ele>
  <time>2026-08-27T18:31:05Z</time>
  <course>0.0</course>
  <speed>0.0</speed>
  <fix>3d</fix>
</trkpt>
<trkpt lat="40.072842" lon="-105.230575">
  <ele>1586.09</ele>
  <time>2026-08-27T18:31:05Z</time>
  <course>11.82</course>
  <speed>0.0282842712474619</speed>
  <fix>3d</fix>
</trkpt>
<trkpt lat="40.072842" lon="-105.230575">
  <ele>1586.09</ele>
  <time>2026-08-27T18:31:05Z</time>
  <course>0.0</course>
  <speed>0.0</speed>
  <fix>3d</fix>
</trkpt>
<trkpt lat="40.072842" lon="-105.230575">
  <ele>1586.09</ele>
  <time>2026-08-27T18:31:05Z</time>
  <course>11.81</course>
  <speed>0.0282842712474619</speed>
  <fix>3d</fix>
</trkpt>
<trkpt lat="40.072842" lon="-105.230575">
  <ele>1586.09</ele>
  <time>2026-08-27T18:31:05Z</time>
  <course>0.0</course>
  <speed>0.0</speed>
  <fix>3d</fix>
</trkpt>
<trkpt lat="40.072842" lon="-105.230575">
  <ele>1586.09</ele>
  <time>2026-08-27T18:31:05Z</time>
  <course>11.8</course>
  <speed>0.0282842712474619</speed>
  <fix>3d</fix>
</trkpt>
<trkpt lat="40.072842" lon="-105.230575">
  <ele>1586.09</ele>
  <time>2026-08-27T18:31:05Z</time>
  <course>0.0</course>
  <speed>0.0</speed>
  <fix>3d</fix>
</trkpt>
<trkpt lat="40.072842" lon="-105.230575">
  <ele>1586.09</ele>
  <time>2026-08-27T18:31:05Z</time>
  <course>11.79</course>
  <speed>0.0282842712474619</speed>
  <fix>3d</fix>
</trkpt>
<trkpt lat="40.072842" lon="-105.230575">
  <ele>1586.09</ele>
  <time>2026-08-27T18:31:05Z</time>
  <course>0.0</course>
  <speed>0.0</speed>
  <fix>3d</fix>
</trkpt>
<trkpt lat="40.072842" lon="-105.230575">
  <ele>1586.09</ele>
  <time>2026-08-27T18:31:05Z</time>
  <course>11.78</course>
  <speed>0.0282842712474619</speed>
  <fix>3d</fix>
</trkpt>
<trkpt lat="40.072842" lon="-105.230575">
  <ele>1586.09</ele>
  <time>2026-08-27T18:31:05Z</time>
  <course>0.0</course>
  <speed>0.0</speed>
  <fix>3d</fix>
</trkpt>
<trkpt lat="40.072842" lon="-105.230575">
  <ele>1586.09</ele>
  <time>2026-08-27T18:31:05Z</time>
  <course>11.78</course>
  <speed>0.0282842712474619</speed>
  <fix>3d</fix>
</trkpt>
<trkpt lat="40.072842" lon="-105.230575">
  <ele>1586.09</ele>
  <time>2026-08-27T18:31:05Z</time>
  <course>0.0</course>
  <speed>0.0</speed>
  <fix>3d</fix>
</trkpt>
<trkpt lat="40.072842" lon="-105.230575">
  <ele>1586.09</ele>
  <time>2026-08-27T18:31:05Z</time>
  <course>11.77</course>
  <speed>0.0282842712474619</speed>
  <fix>3d</fix>
</trkpt>
<trkpt lat="40.072842" lon="-105.230575">
  <ele>1586.09</ele>
  <time>2026-08-27T18:31:05Z</time>
  <course>0.0</course>
  <speed>0.0</speed>
  <fix>3d</fix>
</trkpt>
<trkpt lat="40.072842" lon="-105.230575">
  <ele>1586.09</ele>
  <time>2026-08-27T18:31:05Z</time>
  <course>11.76</course>
  <speed>0.0282842712474619</speed>
  <fix>3d</fix>
</trkpt>
<trkpt lat="40.072842" lon="-105.230575">
  <ele>1586.09</ele>
  <time>2026-08-27T18:31:05Z</time>
  <course>0.0</course>
  <speed>0.0</speed>
  <fix>3d</fix>
</trkpt>
<trkpt lat="40.072842" lon="-105.230575">
  <ele>1586.09</ele>
  <time>2026-08-27T18:31:05Z</time>
  <course>11.76</course>
  <speed>0.0282842712474619</speed>
  <fix>3d</fix>
</trkpt>
<trkpt lat="40.072842" lon="-105.230575">
  <ele>1586.09</ele>
  <time>2026-08-27T18:31:05Z</time>
  <course>0.0</course>
  <speed>0.0</speed>
  <fix>3d</fix>
</trkpt>
<trkpt lat="40.072842" lon="-105.230575">
  <ele>1586.09</ele>
  <time>2026-08-27T18:31:05Z</time>
  <course>11.75</course>
  <speed>0.0282842712474619</speed>
  <fix>3d</fix>
</trkpt>
<trkpt lat="40.072842" lon="-105.230575">
  <ele>1586.09</ele>
  <time>2026-08-27T18:31:05Z</time>
  <course>0.0</course>
  <speed>0.0</speed>
  <fix>3d</fix>
</trkpt>
<trkpt lat="40.072842" lon="-105.230575">
  <ele>1586.09</ele>
  <time>2026-08-27T18:31:05Z</time>
  <course>11.74</course>
  <speed>0.0282842712474619</speed>
  <fix>3d</fix>
</trkpt>
<trkpt lat="40.072842" lon="-105.230575">
  <ele>1586.09</ele>
  <time>2026-08-27T18:31:05Z</time>
  <course>0.0</course>
  <speed>0.0</speed>
  <fix>3d</fix>
</trkpt>
<trkpt lat="40.072842" lon="-105.230575">
  <ele>1586.09</ele>
  <time>2026-08-27T18:31:05Z</time>
  <course>11.73</course>
  <speed>0.03605551275463989</speed>
  <fix>3d</fix>
</trkpt>
<trkpt lat="40.072842" lon="-105.230575">
  <ele>1586.09</ele>
  <time>2026-08-27T18:31:05Z</time>
  <course>0.0</course>
  <speed>0.0</speed>
  <fix>3d</fix>
</trkpt>
<trkpt lat="40.072842" lon="-105.230575">
  <ele>1586.09</ele>
  <time>2026-08-27T18:31:05Z</time>
  <course>11.73</course>
  <speed>0.03605551275463989</speed>
  <fix>3d</fix>
</trkpt>
<trkpt lat="40.072842" lon="-105.230575">
  <ele>1586.09</ele>
  <time>2026-08-27T18:31:05Z</time>
  <course>0.0</course>
  <speed>0.0</speed>
  <fix>3d</fix>
</trkpt>
<trkpt lat="40.072842" lon="-105.230575">
  <ele>1586.09</ele>
  <time>2026-08-27T18:31:05Z</time>
  <course>11.72</course>
  <speed>0.03605551275463989</speed>
  <fix>3d</fix>
</trkpt>
<trkpt lat="40.072842" lon="-105.230575">
  <ele>1586.09</ele>
  <time>2026-08-27T18:31:05Z</time>
  <course>0.0</course>
  <speed>0.0</speed>
  <fix>3d</fix>
</trkpt>
<trkpt lat="40.072842" lon="-105.230575">
  <ele>1586.09</ele>
  <time>2026-08-27T18:31:05Z</time>
  <course>11.71</course>
  <speed>0.03605551275463989</speed>
  <fix>3d</fix>
</trkpt>
<trkpt lat="40.072842" lon="-105.230575">
  <ele>1586.09</ele>
  <time>2026-08-27T18:31:05Z</time>
  <course>0.0</course>
  <speed>0.0</speed>
  <fix>3d</fix>
</trkpt>
<trkpt lat="40.072842" lon="-105.230575">
  <ele>1586.09</ele>
  <time>2026-08-27T18:31:05Z</time>
  <course>11.7</course>
  <speed>0.03605551275463989</speed>
  <fix>3d</fix>
</trkpt>
<trkpt lat="40.072842" lon="-105.230575">
  <ele>1586.09</ele>
  <time>2026-08-27T18:31:05Z</time>
  <course>0.0</course>
  <speed>0.0</speed>
  <fix>3d</fix>
</trkpt>
<trkpt lat="40.072842" lon="-105.230575">
  <ele>1586.09</ele>
  <time>2026-08-27T18:31:05Z</time>
  <course>11.7</course>
  <speed>0.03605551275463989</speed>
  <fix>3d</fix>
</trkpt>
<trkpt lat="40.072842" lon="-105.230575">
  <ele>1586.09</ele>
  <time>2026-08-27T18:31:05Z</time>
  <course>0.0</course>
  <speed>0.0</speed>
  <fix>3d</fix>
</trkpt>
<trkpt lat="40.072842" lon="-105.230575">
  <ele>1586.09</ele>
  <time>2026-08-27T18:31:05Z</time>
  <course>11.69</course>
  <speed>0.03605551275463989</speed>
  <fix>3d</fix>
</trkpt>
<trkpt lat="40.072842" lon="-105.230575">
  <ele>1586.09</ele>
  <time>2026-08-27T18:31:05Z</time>
  <course>0.0</course>
  <speed>0.0</speed>
  <fix>3d</fix>
</trkpt>
<trkpt lat="40.072842" lon="-105.230575">
  <ele>1586.09</ele>
  <time>2026-08-27T18:31:05Z</time>
  <course>11.68</course>
  <speed>0.03605551275463989</speed>
  <fix>3d</fix>
</trkpt>
<trkpt lat="40.072842" lon="-105.230575">
  <ele>1586.09</ele>
  <time>2026-08-27T18:31:05Z</time>
  <course>0.0</course>
  <speed>0.0</speed>
  <fix>3d</fix>
</trkpt>
<trkpt lat="40.072842" lon="-105.230575">
  <ele>1586.09</ele>
  <time>2026-08-27T18:31:05Z</time>
  <course>11.67</course>
  <speed>0.03605551275463989</speed>
  <fix>3d</fix>
</trkpt>
<trkpt lat="40.072842" lon="-105.230575">
  <ele>1586.09</ele>
  <time>2026-08-27T18:31:05Z</time>
  <course>0.0</course>
  <speed>0.0</speed>
  <fix>3d</fix>
</trkpt>
<trkpt lat="40.072842" lon="-105.230575">
  <ele>1586.09</ele>
  <time>2026-08-27T18:31:05Z</time>
  <course>11.67</course>
  <speed>0.03605551275463989</speed>
  <fix>3d</fix>
</trkpt>
<trkpt lat="40.072842" lon="-105.230575">
  <ele>1586.09</ele>
  <time>2026-08-27T18:31:05Z</time>
  <course>0.0</course>
  <speed>0.0</speed>
  <fix>3d</fix>
</trkpt>
<trkpt lat="40.072842" lon="-105.230575">
  <ele>1586.09</ele>
  <time>2026-08-27T18:31:05Z</time>
  <course>11.66</course>
  <speed>0.03605551275463989</speed>
  <fix>3d</fix>
</trkpt>
<trkpt lat="40.072842" lon="-105.230575">
  <ele>1586.09</ele>
  <time>2026-08-27T18:31:05Z</time>
  <course>0.0</course>
  <speed>0.0</speed>
  <fix>3d</fix>
</trkpt>
<trkpt lat="40.072842" lon="-105.230575">
  <ele>1586.09</ele>
  <time>2026-08-27T18:31:05Z</time>
  <course>11.65</course>
  <speed>0.03605551275463989</speed>
  <fix>3d</fix>
</trkpt>
<trkpt lat="40.072842" lon="-105.230575">
  <ele>1586.09</ele>
  <time>2026-08-27T18:31:05Z</time>
  <course>0.0</course>
  <speed>0.0</speed>
  <fix>3d</fix>
</trkpt>
<trkpt lat="40.072842" lon="-105.230575">
  <ele>1586.09</ele>
  <time>2026-08-27T18:31:05Z</time>
  <course>11.65</course>
  <speed>0.03605551275463989</speed>
  <fix>3d</fix>
</trkpt>
<trkpt lat="40.072842" lon="-105.230575">
  <ele>1586.09</ele>
  <time>2026-08-27T18:31:05Z</time>
  <course>0.0</course>
  <speed>0.0</speed>
  <fix>3d</fix>
</trkpt>
<trkpt lat="40.072842" lon="-105.230575">
  <ele>1586.09</ele>
  <time>2026-08-27T18:31:05Z</time>
  <course>11.64</course>
  <speed>0.03605551275463989</speed>
  <fix>3d</fix>
</trkpt>
<trkpt lat="40.072842" lon="-105.230575">
  <ele>1586.09</ele>
  <time>2026-08-27T18:31:05Z</time>
  <course>0.0</course>
  <speed>0.0</speed>
  <fix>3d</fix>
</trkpt>
<trkpt lat="40.072842" lon="-105.230575">
  <ele>1586.09</ele>
  <time>2026-08-27T18:31:06Z</time>
  <course>11.63</course>
  <speed>0.03605551275463989</speed>
  <fix>3d</fix>
</trkpt>
<trkpt lat="40.072842" lon="-105.230575">
  <ele>1586.09</ele>
  <time>2026-08-27T18:31:06Z</time>
  <course>0.0</course>
  <speed>0.0</speed>
  <fix>3d</fix>
</trkpt>
<trkpt lat="40.072842" lon="-105.230575">
  <ele>1586.09</ele>
  <time>2026-08-27T18:31:06Z</time>
  <course>11.63</course>
  <speed>0.03605551275463989</speed>
  <fix>3d</fix>
</trkpt>
<trkpt lat="40.072842" lon="-105.230575">
  <ele>1586.09</ele>
  <time>2026-08-27T18:31:06Z</time>
  <course>0.0</course>
  <speed>0.0</speed>
  <fix>3d</fix>
</trkpt>
<trkpt lat="40.072842" lon="-105.230575">
  <ele>1586.09</ele>
  <time>2026-08-27T18:31:06Z</time>
  <course>11.62</course>
  <speed>0.03605551275463989</speed>
  <fix>3d</fix>
</trkpt>
<trkpt lat="40.072842" lon="-105.230575">
  <ele>1586.09</ele>
  <time>2026-08-27T18:31:06Z</time>
  <course>0.0</course>
  <speed>0.0</speed>
  <fix>3d</fix>
</trkpt>
<trkpt lat="40.072842" lon="-105.230575">
  <ele>1586.09</ele>
  <time>2026-08-27T18:31:06Z</time>
  <course>11.61</course>
  <speed>0.03605551275463989</speed>
  <fix>3d</fix>
</trkpt>
<trkpt lat="40.072842" lon="-105.230575">
  <ele>1586.09</ele>
  <time>2026-08-27T18:31:06Z</time>
  <course>0.0</course>
  <speed>0.0</speed>
  <fix>3d</fix>
</trkpt>
<trkpt lat="40.072842" lon="-105.230575">
  <ele>1586.09</ele>
  <time>2026-08-27T18:31:06Z</time>
  <course>11.61</course>
  <speed>0.03605551275463989</speed>
  <fix>3d</fix>
</trkpt>
<trkpt lat="40.072842" lon="-105.230575">
  <ele>1586.09</ele>
  <time>2026-08-27T18:31:06Z</time>
  <course>0.0</course>
  <speed>0.0</speed>
  <fix>3d</fix>
</trkpt>
<trkpt lat="40.072842" lon="-105.230575">
  <ele>1586.09</ele>
  <time>2026-08-27T18:31:06Z</time>
  <course>11.6</course>
  <speed>0.03605551275463989</speed>
  <fix>3d</fix>
</trkpt>
<trkpt lat="40.072842" lon="-105.230575">
  <ele>1586.09</ele>
  <time>2026-08-27T18:31:06Z</time>
  <course>0.0</course>
  <speed>0.0</speed>
  <fix>3d</fix>
</trkpt>
<trkpt lat="40.072842" lon="-105.230575">
  <ele>1586.09</ele>
  <time>2026-08-27T18:31:06Z</time>
  <course>11.59</course>
  <speed>0.03605551275463989</speed>
  <fix>3d</fix>
</trkpt>
<trkpt lat="40.072842" lon="-105.230575">
  <ele>1586.09</ele>
  <time>2026-08-27T18:31:06Z</time>
  <course>0.0</course>
  <speed>0.0</speed>
  <fix>3d</fix>
</trkpt>
<trkpt lat="40.072842" lon="-105.230575">
  <ele>1586.09</ele>
  <time>2026-08-27T18:31:06Z</time>
  <course>11.59</course>
  <speed>0.03605551275463989</speed>
  <fix>3d</fix>
</trkpt>
<trkpt lat="40.072842" lon="-105.230575">
  <ele>1586.09</ele>
  <time>2026-08-27T18:31:06Z</time>
  <course>0.0</course>
  <speed>0.0</speed>
  <fix>3d</fix>
</trkpt>
<trkpt lat="40.072842" lon="-105.230575">
  <ele>1586.09</ele>
  <time>2026-08-27T18:31:06Z</time>
  <course>11.58</course>
  <speed>0.03605551275463989</speed>
  <fix>3d</fix>
</trkpt>
<trkpt lat="40.072842" lon="-105.230575">
  <ele>1586.09</ele>
  <time>2026-08-27T18:31:06Z</time>
  <course>0.0</course>
  <speed>0.0</speed>
  <fix>3d</fix>
</trkpt>
<trkpt lat="40.072842" lon="-105.230575">
  <ele>1586.09</ele>
  <time>2026-08-27T18:31:06Z</time>
  <course>11.57</course>
  <speed>0.03605551275463989</speed>
  <fix>3d</fix>
</trkpt>
<trkpt lat="40.072842" lon="-105.230575">
  <ele>1586.09</ele>
  <time>2026-08-27T18:31:06Z</time>
  <course>0.0</course>
  <speed>0.0</speed>
  <fix>3d</fix>
</trkpt>
<trkpt lat="40.072842" lon="-105.230575">
  <ele>1586.09</ele>
  <time>2026-08-27T18:31:06Z</time>
  <course>11.57</course>
  <speed>0.03605551275463989</speed>
  <fix>3d</fix>
</trkpt>
<trkpt lat="40.072842" lon="-105.230575">
  <ele>1586.09</ele>
  <time>2026-08-27T18:31:06Z</time>
  <course>0.0</course>
  <speed>0.0</speed>
  <fix>3d</fix>
</trkpt>
<trkpt lat="40.072842" lon="-105.230575">
  <ele>1586.09</ele>
  <time>2026-08-27T18:31:06Z</time>
  <course>11.56</course>
  <speed>0.03605551275463989</speed>
  <fix>3d</fix>
</trkpt>
<trkpt lat="40.072842" lon="-105.230575">
  <ele>1586.09</ele>
  <time>2026-08-27T18:31:06Z</time>
  <course>0.0</course>
  <speed>0.0</speed>
  <fix>3d</fix>
</trkpt>
<trkpt lat="40.072842" lon="-105.230575">
  <ele>1586.09</ele>
  <time>2026-08-27T18:31:06Z</time>
  <course>11.56</course>
  <speed>0.03605551275463989</speed>
  <fix>3d</fix>
</trkpt>
<trkpt lat="40.072842" lon="-105.230575">
  <ele>1586.09</ele>
  <time>2026-08-27T18:31:06Z</time>
  <course>0.0</course>
  <speed>0.0</speed>
  <fix>3d</fix>
</trkpt>
<trkpt lat="40.072842" lon="-105.230575">
  <ele>1586.09</ele>
  <time>2026-08-27T18:31:06Z</time>
  <course>11.55</course>
  <speed>0.03605551275463989</speed>
  <fix>3d</fix>
</trkpt>
<trkpt lat="40.072842" lon="-105.230575">
  <ele>1586.09</ele>
  <time>2026-08-27T18:31:06Z</time>
  <course>0.0</course>
  <speed>0.0</speed>
  <fix>3d</fix>
</trkpt>
<trkpt lat="40.072842" lon="-105.230575">
  <ele>1586.09</ele>
  <time>2026-08-27T18:31:06Z</time>
  <course>11.54</course>
  <speed>0.03605551275463989</speed>
  <fix>3d</fix>
</trkpt>
<trkpt lat="40.072842" lon="-105.230575">
  <ele>1586.09</ele>
  <time>2026-08-27T18:31:06Z</time>
  <course>0.0</course>
  <speed>0.0</speed>
  <fix>3d</fix>
</trkpt>
<trkpt lat="40.072842" lon="-105.230575">
  <ele>1586.09</ele>
  <time>2026-08-27T18:31:06Z</time>
  <course>11.54</course>
  <speed>0.03605551275463989</speed>
  <fix>3d</fix>
</trkpt>
<trkpt lat="40.072842" lon="-105.230575">
  <ele>1586.09</ele>
  <time>2026-08-27T18:31:06Z</time>
  <course>0.0</course>
  <speed>0.0</speed>
  <fix>3d</fix>
</trkpt>
<trkpt lat="40.072842" lon="-105.230575">
  <ele>1586.09</ele>
  <time>2026-08-27T18:31:06Z</time>
  <course>11.53</course>
  <speed>0.03605551275463989</speed>
  <fix>3d</fix>
</trkpt>
<trkpt lat="40.072842" lon="-105.230575">
  <ele>1586.09</ele>
  <time>2026-08-27T18:31:06Z</time>
  <course>0.0</course>
  <speed>0.0</speed>
  <fix>3d</fix>
</trkpt>
<trkpt lat="40.072842" lon="-105.230575">
  <ele>1586.09</ele>
  <time>2026-08-27T18:31:06Z</time>
  <course>11.53</course>
  <speed>0.03605551275463989</speed>
  <fix>3d</fix>
</trkpt>
<trkpt lat="40.072842" lon="-105.230575">
  <ele>1586.09</ele>
  <time>2026-08-27T18:31:06Z</time>
  <course>0.0</course>
  <speed>0.0</speed>
  <fix>3d</fix>
</trkpt>
<trkpt lat="40.072842" lon="-105.230575">
  <ele>1586.09</ele>
  <time>2026-08-27T18:31:06Z</time>
  <course>11.52</course>
  <speed>0.03605551275463989</speed>
  <fix>3d</fix>
</trkpt>
<trkpt lat="40.072842" lon="-105.230575">
  <ele>1586.09</ele>
  <time>2026-08-27T18:31:06Z</time>
  <course>0.0</course>
  <speed>0.0</speed>
  <fix>3d</fix>
</trkpt>
<trkpt lat="40.072842" lon="-105.230575">
  <ele>1586.09</ele>
  <time>2026-08-27T18:31:06Z</time>
  <course>11.52</course>
  <speed>0.03605551275463989</speed>
  <fix>3d</fix>
</trkpt>
<trkpt lat="40.072842" lon="-105.230575">
  <ele>1586.09</ele>
  <time>2026-08-27T18:31:06Z</time>
  <course>0.0</course>
  <speed>0.0</speed>
  <fix>3d</fix>
</trkpt>
<trkpt lat="40.072842" lon="-105.230575">
  <ele>1586.09</ele>
  <time>2026-08-27T18:31:06Z</time>
  <course>11.51</course>
  <speed>0.03605551275463989</speed>
  <fix>3d</fix>
</trkpt>
<trkpt lat="40.072842" lon="-105.230575">
  <ele>1586.09</ele>
  <time>2026-08-27T18:31:06Z</time>
  <course>0.0</course>
  <speed>0.0</speed>
  <fix>3d</fix>
</trkpt>
<trkpt lat="40.072842" lon="-105.230575">
  <ele>1586.09</ele>
  <time>2026-08-27T18:31:06Z</time>
  <course>11.5</course>
  <speed>0.03605551275463989</speed>
  <fix>3d</fix>
</trkpt>
<trkpt lat="40.072842" lon="-105.230575">
  <ele>1586.09</ele>
  <time>2026-08-27T18:31:06Z</time>
  <course>0.0</course>
  <speed>0.0</speed>
  <fix>3d</fix>
</trkpt>
<trkpt lat="40.072842" lon="-105.230575">
  <ele>1586.09</ele>
  <time>2026-08-27T18:31:06Z</time>
  <course>11.5</course>
  <speed>0.03605551275463989</speed>
  <fix>3d</fix>
</trkpt>
<trkpt lat="40.072842" lon="-105.230575">
  <ele>1586.09</ele>
  <time>2026-08-27T18:31:06Z</time>
  <course>0.0</course>
  <speed>0.0</speed>
  <fix>3d</fix>
</trkpt>
<trkpt lat="40.072842" lon="-105.230575">
  <ele>1586.09</ele>
  <time>2026-08-27T18:31:06Z</time>
  <course>11.49</course>
  <speed>0.044721359549995794</speed>
  <fix>3d</fix>
</trkpt>
<trkpt lat="40.072842" lon="-105.230575">
  <ele>1586.09</ele>
  <time>2026-08-27T18:31:06Z</time>
  <course>0.0</course>
  <speed>0.0</speed>
  <fix>3d</fix>
</trkpt>
<trkpt lat="40.072842" lon="-105.230575">
  <ele>1586.09</ele>
  <time>2026-08-27T18:31:06Z</time>
  <course>11.49</course>
  <speed>0.044721359549995794</speed>
  <fix>3d</fix>
</trkpt>
<trkpt lat="40.072842" lon="-105.230575">
  <ele>1586.09</ele>
  <time>2026-08-27T18:31:06Z</time>
  <course>0.0</course>
  <speed>0.0</speed>
  <fix>3d</fix>
</trkpt>
<trkpt lat="40.072842" lon="-105.230575">
  <ele>1586.09</ele>
  <time>2026-08-27T18:31:06Z</time>
  <course>11.48</course>
  <speed>0.044721359549995794</speed>
  <fix>3d</fix>
</trkpt>
<trkpt lat="40.072842" lon="-105.230575">
  <ele>1586.09</ele>
  <time>2026-08-27T18:31:06Z</time>
  <course>0.0</course>
  <speed>0.0</speed>
  <fix>3d</fix>
</trkpt>
<trkpt lat="40.072842" lon="-105.230575">
  <ele>1586.09</ele>
  <time>2026-08-27T18:31:06Z</time>
  <course>11.48</course>
  <speed>0.044721359549995794</speed>
  <fix>3d</fix>
</trkpt>
<trkpt lat="40.072842" lon="-105.230575">
  <ele>1586.09</ele>
  <time>2026-08-27T18:31:06Z</time>
  <course>0.0</course>
  <speed>0.0</speed>
  <fix>3d</fix>
</trkpt>
<trkpt lat="40.072842" lon="-105.230575">
  <ele>1586.09</ele>
  <time>2026-08-27T18:31:06Z</time>
  <course>11.47</course>
  <speed>0.044721359549995794</speed>
  <fix>3d</fix>
</trkpt>
<trkpt lat="40.072842" lon="-105.230575">
  <ele>1586.09</ele>
  <time>2026-08-27T18:31:06Z</time>
  <course>0.0</course>
  <speed>0.0</speed>
  <fix>3d</fix>
</trkpt>
<trkpt lat="40.072842" lon="-105.230575">
  <ele>1586.09</ele>
  <time>2026-08-27T18:31:06Z</time>
  <course>11.47</course>
  <speed>0.044721359549995794</speed>
  <fix>3d</fix>
</trkpt>
<trkpt lat="40.072842" lon="-105.230575">
  <ele>1586.09</ele>
  <time>2026-08-27T18:31:06Z</time>
  <course>0.0</course>
  <speed>0.0</speed>
  <fix>3d</fix>
</trkpt>
<trkpt lat="40.072842" lon="-105.230575">
  <ele>1586.09</ele>
  <time>2026-08-27T18:31:06Z</time>
  <course>11.46</course>
  <speed>0.044721359549995794</speed>
  <fix>3d</fix>
</trkpt>
<trkpt lat="40.072842" lon="-105.230575">
  <ele>1586.09</ele>
  <time>2026-08-27T18:31:06Z</time>
  <course>0.0</course>
  <speed>0.0</speed>
  <fix>3d</fix>
</trkpt>
<trkpt lat="40.072842" lon="-105.230575">
  <ele>1586.09</ele>
  <time>2026-08-27T18:31:06Z</time>
  <course>11.46</course>
  <speed>0.044721359549995794</speed>
  <fix>3d</fix>
</trkpt>
<trkpt lat="40.072842" lon="-105.230575">
  <ele>1586.09</ele>
  <time>2026-08-27T18:31:06Z</time>
  <course>0.0</course>
  <speed>0.0</speed>
  <fix>3d</fix>
</trkpt>
<trkpt lat="40.072842" lon="-105.230575">
  <ele>1586.15</ele>
  <time>2026-08-27T18:31:06Z</time>
  <course>11.45</course>
  <speed>0.0</speed>
  <fix>3d</fix>
</trkpt>
<trkpt lat="40.072842" lon="-105.230575">
  <ele>1586.09</ele>
  <time>2026-08-27T18:31:06Z</time>
  <course>0.0</course>
  <speed>0.0</speed>
  <fix>3d</fix>
</trkpt>
<trkpt lat="40.072842" lon="-105.230575">
  <ele>1586.15</ele>
  <time>2026-08-27T18:31:06Z</time>
  <course>11.45</course>
  <speed>0.0</speed>
  <fix>3d</fix>
</trkpt>
<trkpt lat="40.072842" lon="-105.230575">
  <ele>1586.09</ele>
  <time>2026-08-27T18:31:06Z</time>
  <course>0.0</course>
  <speed>0.0</speed>
  <fix>3d</fix>
</trkpt>
<trkpt lat="40.072842" lon="-105.230575">
  <ele>1586.14</ele>
  <time>2026-08-27T18:31:06Z</time>
  <course>11.44</course>
  <speed>0.0</speed>
  <fix>3d</fix>
</trkpt>
<trkpt lat="40.072842" lon="-105.230575">
  <ele>1586.09</ele>
  <time>2026-08-27T18:31:06Z</time>
  <course>0.0</course>
  <speed>0.0</speed>
  <fix>3d</fix>
</trkpt>
<trkpt lat="40.072842" lon="-105.230575">
  <ele>1586.14</ele>
  <time>2026-08-27T18:31:06Z</time>
  <course>11.44</course>
  <speed>0.0</speed>
  <fix>3d</fix>
</trkpt>
<trkpt lat="40.072842" lon="-105.230575">
  <ele>1586.09</ele>
  <time>2026-08-27T18:31:06Z</time>
  <course>0.0</course>
  <speed>0.0</speed>
  <fix>3d</fix>
</trkpt>
<trkpt lat="40.072842" lon="-105.230575">
  <ele>1586.14</ele>
  <time>2026-08-27T18:31:06Z</time>
  <course>11.43</course>
  <speed>0.0</speed>
  <fix>3d</fix>
</trkpt>
<trkpt lat="40.072842" lon="-105.230575">
  <ele>1586.09</ele>
  <time>2026-08-27T18:31:06Z</time>
  <course>0.0</course>
  <speed>0.0</speed>
  <fix>3d</fix>
</trkpt>
<trkpt lat="40.072842" lon="-105.230575">
  <ele>1586.14</ele>
  <time>2026-08-27T18:31:06Z</time>
  <course>11.43</course>
  <speed>0.01</speed>
  <fix>3d</fix>
</trkpt>
<trkpt lat="40.072842" lon="-105.230575">
  <ele>1586.09</ele>
  <time>2026-08-27T18:31:06Z</time>
  <course>0.0</course>
  <speed>0.0</speed>
  <fix>3d</fix>
</trkpt>
<trkpt lat="40.072842" lon="-105.230575">
  <ele>1586.14</ele>
  <time>2026-08-27T18:31:06Z</time>
  <course>11.42</course>
  <speed>0.01</speed>
  <fix>3d</fix>
</trkpt>
<trkpt lat="40.072842" lon="-105.230575">
  <ele>1586.09</ele>
  <time>2026-08-27T18:31:06Z</time>
  <course>0.0</course>
  <speed>0.0</speed>
  <fix>3d</fix>
</trkpt>
<trkpt lat="40.072842" lon="-105.230575">
  <ele>1586.14</ele>
  <time>2026-08-27T18:31:06Z</time>
  <course>11.42</course>
  <speed>0.01</speed>
  <fix>3d</fix>
</trkpt>
<trkpt lat="40.072842" lon="-105.230575">
  <ele>1586.09</ele>
  <time>2026-08-27T18:31:06Z</time>
  <course>0.0</course>
  <speed>0.0</speed>
  <fix>3d</fix>
</trkpt>
<trkpt lat="40.072842" lon="-105.230575">
  <ele>1586.14</ele>
  <time>2026-08-27T18:31:06Z</time>
  <course>11.42</course>
  <speed>0.01414213562373095</speed>
  <fix>3d</fix>
</trkpt>
<trkpt lat="40.072842" lon="-105.230575">
  <ele>1586.09</ele>
  <time>2026-08-27T18:31:06Z</time>
  <course>0.0</course>
  <speed>0.0</speed>
  <fix>3d</fix>
</trkpt>
<trkpt lat="40.072842" lon="-105.230575">
  <ele>1586.14</ele>
  <time>2026-08-27T18:31:06Z</time>
  <course>11.41</course>
  <speed>0.01414213562373095</speed>
  <fix>3d</fix>
</trkpt>
<trkpt lat="40.072842" lon="-105.230575">
  <ele>1586.09</ele>
  <time>2026-08-27T18:31:06Z</time>
  <course>0.0</course>
  <speed>0.0</speed>
  <fix>3d</fix>
</trkpt>
<trkpt lat="40.072842" lon="-105.230575">
  <ele>1586.15</ele>
  <time>2026-08-27T18:31:06Z</time>
  <course>11.41</course>
  <speed>0.01414213562373095</speed>
  <fix>3d</fix>
</trkpt>
<trkpt lat="40.072842" lon="-105.230575">
  <ele>1586.09</ele>
  <time>2026-08-27T18:31:06Z</time>
  <course>0.0</course>
  <speed>0.0</speed>
  <fix>3d</fix>
</trkpt>
<trkpt lat="40.072842" lon="-105.230575">
  <ele>1586.15</ele>
  <time>2026-08-27T18:31:06Z</time>
  <course>11.4</course>
  <speed>0.022360679774997897</speed>
  <fix>3d</fix>
</trkpt>
<trkpt lat="40.072842" lon="-105.230575">
  <ele>1586.09</ele>
  <time>2026-08-27T18:31:06Z</time>
  <course>0.0</course>
  <speed>0.0</speed>
  <fix>3d</fix>
</trkpt>
<trkpt lat="40.072842" lon="-105.230575">
  <ele>1586.15</ele>
  <time>2026-08-27T18:31:06Z</time>
  <course>11.4</course>
  <speed>0.022360679774997897</speed>
  <fix>3d</fix>
</trkpt>
<trkpt lat="40.072842" lon="-105.230575">
  <ele>1586.09</ele>
  <time>2026-08-27T18:31:06Z</time>
  <course>0.0</course>
  <speed>0.0</speed>
  <fix>3d</fix>
</trkpt>
<trkpt lat="40.072842" lon="-105.230575">
  <ele>1586.15</ele>
  <time>2026-08-27T18:31:06Z</time>
  <course>11.4</course>
  <speed>0.022360679774997897</speed>
  <fix>3d</fix>
</trkpt>
<trkpt lat="40.072842" lon="-105.230575">
  <ele>1586.09</ele>
  <time>2026-08-27T18:31:06Z</time>
  <course>0.0</course>
  <speed>0.0</speed>
  <fix>3d</fix>
</trkpt>
<trkpt lat="40.072842" lon="-105.230575">
  <ele>1586.16</ele>
  <time>2026-08-27T18:31:06Z</time>
  <course>11.39</course>
  <speed>0.022360679774997897</speed>
  <fix>3d</fix>
</trkpt>
<trkpt lat="40.072842" lon="-105.230575">
  <ele>1586.09</ele>
  <time>2026-08-27T18:31:06Z</time>
  <course>0.0</course>
  <speed>0.0</speed>
  <fix>3d</fix>
</trkpt>
<trkpt lat="40.072842" lon="-105.230575">
  <ele>1586.16</ele>
  <time>2026-08-27T18:31:06Z</time>
  <course>11.39</course>
  <speed>0.01414213562373095</speed>
  <fix>3d</fix>
</trkpt>
<trkpt lat="40.072842" lon="-105.230575">
  <ele>1586.09</ele>
  <time>2026-08-27T18:31:06Z</time>
  <course>0.0</course>
  <speed>0.0</speed>
  <fix>3d</fix>
</trkpt>
<trkpt lat="40.072842" lon="-105.230575">
  <ele>1586.16</ele>
  <time>2026-08-27T18:31:06Z</time>
  <course>11.39</course>
  <speed>0.01414213562373095</speed>
  <fix>3d</fix>
</trkpt>
<trkpt lat="40.072842" lon="-105.230575">
  <ele>1586.09</ele>
  <time>2026-08-27T18:31:06Z</time>
  <course>0.0</course>
  <speed>0.0</speed>
  <fix>3d</fix>
</trkpt>
<trkpt lat="40.072842" lon="-105.230575">
  <ele>1586.16</ele>
  <time>2026-08-27T18:31:06Z</time>
  <course>11.38</course>
  <speed>0.01</speed>
  <fix>3d</fix>
</trkpt>
<trkpt lat="40.072842" lon="-105.230575">
  <ele>1586.09</ele>
  <time>2026-08-27T18:31:06Z</time>
  <course>0.0</course>
  <speed>0.0</speed>
  <fix>3d</fix>
</trkpt>
<trkpt lat="40.072842" lon="-105.230575">
  <ele>1586.16</ele>
  <time>2026-08-27T18:31:06Z</time>
  <course>11.38</course>
  <speed>0.0</speed>
  <fix>3d</fix>
</trkpt>
<trkpt lat="40.072842" lon="-105.230575">
  <ele>1586.09</ele>
  <time>2026-08-27T18:31:06Z</time>
  <course>0.0</course>
  <speed>0.0</speed>
  <fix>3d</fix>
</trkpt>
<trkpt lat="40.072842" lon="-105.230575">
  <ele>1586.16</ele>
  <time>2026-08-27T18:31:06Z</time>
  <course>11.37</course>
  <speed>0.0</speed>
  <fix>3d</fix>
</trkpt>
<trkpt lat="40.072842" lon="-105.230575">
  <ele>1586.09</ele>
  <time>2026-08-27T18:31:06Z</time>
  <course>0.0</course>
  <speed>0.0</speed>
  <fix>3d</fix>
</trkpt>
<trkpt lat="40.072842" lon="-105.230575">
  <ele>1586.16</ele>
  <time>2026-08-27T18:31:06Z</time>
  <course>11.37</course>
  <speed>0.0</speed>
  <fix>3d</fix>
</trkpt>
<trkpt lat="40.072842" lon="-105.230575">
  <ele>1586.09</ele>
  <time>2026-08-27T18:31:06Z</time>
  <course>0.0</course>
  <speed>0.0</speed>
  <fix>3d</fix>
</trkpt>
<trkpt lat="40.072842" lon="-105.230575">
  <ele>1586.16</ele>
  <time>2026-08-27T18:31:06Z</time>
  <course>11.37</course>
  <speed>0.0</speed>
  <fix>3d</fix>
</trkpt>
<trkpt lat="40.072842" lon="-105.230575">
  <ele>1586.09</ele>
  <time>2026-08-27T18:31:06Z</time>
  <course>0.0</course>
  <speed>0.0</speed>
  <fix>3d</fix>
</trkpt>
<trkpt lat="40.072842" lon="-105.230575">
  <ele>1586.16</ele>
  <time>2026-08-27T18:31:06Z</time>
  <course>11.36</course>
  <speed>0.0</speed>
  <fix>3d</fix>
</trkpt>
<trkpt lat="40.072842" lon="-105.230575">
  <ele>1586.09</ele>
  <time>2026-08-27T18:31:06Z</time>
  <course>135.0</course>
  <speed>0.0</speed>
  <fix>3d</fix>
</trkpt>
<trkpt lat="40.072842" lon="-105.230575">
  <ele>1586.16</ele>
  <time>2026-08-27T18:31:06Z</time>
  <course>11.36</course>
  <speed>0.0</speed>
  <fix>3d</fix>
</trkpt>
<trkpt lat="40.072842" lon="-105.230575">
  <ele>1586.09</ele>
  <time>2026-08-27T18:31:06Z</time>
  <course>135.0</course>
  <speed>0.0</speed>
  <fix>3d</fix>
</trkpt>
<trkpt lat="40.072842" lon="-105.230575">
  <ele>1586.16</ele>
  <time>2026-08-27T18:31:06Z</time>
  <course>11.36</course>
  <speed>0.0</speed>
  <fix>3d</fix>
</trkpt>
<trkpt lat="40.072842" lon="-105.230575">
  <ele>1586.09</ele>
  <time>2026-08-27T18:31:06Z</time>
  <course>135.0</course>
  <speed>0.0</speed>
  <fix>3d</fix>
</trkpt>
<trkpt lat="40.072842" lon="-105.230575">
  <ele>1586.16</ele>
  <time>2026-08-27T18:31:06Z</time>
  <course>11.35</course>
  <speed>0.0</speed>
  <fix>3d</fix>
</trkpt>
<trkpt lat="40.072842" lon="-105.230575">
  <ele>1586.09</ele>
  <time>2026-08-27T18:31:06Z</time>
  <course>134.99</course>
  <speed>0.0</speed>
  <fix>3d</fix>
</trkpt>
<trkpt lat="40.072842" lon="-105.230575">
  <ele>1586.16</ele>
  <time>2026-08-27T18:31:06Z</time>
  <course>11.35</course>
  <speed>0.0</speed>
  <fix>3d</fix>
</trkpt>
<trkpt lat="40.072842" lon="-105.230575">
  <ele>1586.09</ele>
  <time>2026-08-27T18:31:06Z</time>
  <course>134.99</course>
  <speed>0.0</speed>
  <fix>3d</fix>
</trkpt>
<trkpt lat="40.072842" lon="-105.230575">
  <ele>1586.16</ele>
  <time>2026-08-27T18:31:06Z</time>
  <course>11.35</course>
  <speed>0.0</speed>
  <fix>3d</fix>
</trkpt>
<trkpt lat="40.072842" lon="-105.230575">
  <ele>1586.09</ele>
  <time>2026-08-27T18:31:06Z</time>
  <course>158.08</course>
  <speed>0.0</speed>
  <fix>3d</fix>
</trkpt>
<trkpt lat="40.072842" lon="-105.230575">
  <ele>1586.16</ele>
  <time>2026-08-27T18:31:06Z</time>
  <course>11.35</course>
  <speed>0.0</speed>
  <fix>3d</fix>
</trkpt>
<trkpt lat="40.072842" lon="-105.230575">
  <ele>1586.09</ele>
  <time>2026-08-27T18:31:06Z</time>
  <course>184.08</course>
  <speed>0.0</speed>
  <fix>3d</fix>
</trkpt>
<trkpt lat="40.072842" lon="-105.230575">
  <ele>1586.16</ele>
  <time>2026-08-27T18:31:06Z</time>
  <course>11.34</course>
  <speed>0.0</speed>
  <fix>3d</fix>
</trkpt>
<trkpt lat="40.072842" lon="-105.230575">
  <ele>1586.09</ele>
  <time>2026-08-27T18:31:06Z</time>
  <course>317.32</course>
  <speed>0.0</speed>
  <fix>3d</fix>
</trkpt>
<trkpt lat="40.072842" lon="-105.230575">
  <ele>1586.16</ele>
  <time>2026-08-27T18:31:06Z</time>
  <course>11.34</course>
  <speed>0.0</speed>
  <fix>3d</fix>
</trkpt>
<trkpt lat="40.072842" lon="-105.230575">
  <ele>1586.09</ele>
  <time>2026-08-27T18:31:06Z</time>
  <course>24.1</course>
  <speed>0.0</speed>
  <fix>3d</fix>
</trkpt>
<trkpt lat="40.072842" lon="-105.230575">
  <ele>1586.16</ele>
  <time>2026-08-27T18:31:06Z</time>
  <course>11.34</course>
  <speed>0.0</speed>
  <fix>3d</fix>
</trkpt>
<trkpt lat="40.072842" lon="-105.230575">
  <ele>1586.09</ele>
  <time>2026-08-27T18:31:06Z</time>
  <course>154.33</course>
  <speed>0.0</speed>
  <fix>3d</fix>
</trkpt>
<trkpt lat="40.072842" lon="-105.230575">
  <ele>1586.16</ele>
  <time>2026-08-27T18:31:06Z</time>
  <course>11.34</course>
  <speed>0.0</speed>
  <fix>3d</fix>
</trkpt>
<trkpt lat="40.072842" lon="-105.230575">
  <ele>1586.09</ele>
  <time>2026-08-27T18:31:06Z</time>
  <course>171.95</course>
  <speed>0.0</speed>
  <fix>3d</fix>
</trkpt>
<trkpt lat="40.072842" lon="-105.230575">
  <ele>1586.16</ele>
  <time>2026-08-27T18:31:06Z</time>
  <course>11.34</course>
  <speed>0.0</speed>
  <fix>3d</fix>
</trkpt>
<trkpt lat="40.072842" lon="-105.230575">
  <ele>1586.09</ele>
  <time>2026-08-27T18:31:06Z</time>
  <course>52.75</course>
  <speed>0.0</speed>
  <fix>3d</fix>
</trkpt>
<trkpt lat="40.072842" lon="-105.230575">
  <ele>1586.16</ele>
  <time>2026-08-27T18:31:06Z</time>
  <course>11.34</course>
  <speed>0.0</speed>
  <fix>3d</fix>
</trkpt>
<trkpt lat="40.072842" lon="-105.230575">
  <ele>1586.09</ele>
  <time>2026-08-27T18:31:06Z</time>
  <course>47.67</course>
  <speed>0.0</speed>
  <fix>3d</fix>
</trkpt>
<trkpt lat="40.072842" lon="-105.230575">
  <ele>1586.16</ele>
  <time>2026-08-27T18:31:06Z</time>
  <course>11.33</course>
  <speed>0.0</speed>
  <fix>3d</fix>
</trkpt>
<trkpt lat="40.072842" lon="-105.230575">
  <ele>1586.09</ele>
  <time>2026-08-27T18:31:06Z</time>
  <course>48.36</course>
  <speed>0.0</speed>
  <fix>3d</fix>
</trkpt>
<trkpt lat="40.072842" lon="-105.230575">
  <ele>1586.16</ele>
  <time>2026-08-27T18:31:06Z</time>
  <course>11.33</course>
  <speed>0.0</speed>
  <fix>3d</fix>
</trkpt>
<trkpt lat="40.072842" lon="-105.230575">
  <ele>1586.09</ele>
  <time>2026-08-27T18:31:06Z</time>
  <course>182.05</course>
  <speed>0.0</speed>
  <fix>3d</fix>
</trkpt>
<trkpt lat="40.072842" lon="-105.230575">
  <ele>1586.16</ele>
  <time>2026-08-27T18:31:06Z</time>
  <course>11.33</course>
  <speed>0.0</speed>
  <fix>3d</fix>
</trkpt>
<trkpt lat="40.072842" lon="-105.230575">
  <ele>1586.09</ele>
  <time>2026-08-27T18:31:06Z</time>
  <course>198.93</course>
  <speed>0.0</speed>
  <fix>3d</fix>
</trkpt>
<trkpt lat="40.072842" lon="-105.230575">
  <ele>1586.16</ele>
  <time>2026-08-27T18:31:06Z</time>
  <course>11.33</course>
  <speed>0.0</speed>
  <fix>3d</fix>
</trkpt>
<trkpt lat="40.072842" lon="-105.230575">
  <ele>1586.09</ele>
  <time>2026-08-27T18:31:06Z</time>
  <course>113.76</course>
  <speed>0.0</speed>
  <fix>3d</fix>
</trkpt>
<trkpt lat="40.072842" lon="-105.230575">
  <ele>1586.16</ele>
  <time>2026-08-27T18:31:06Z</time>
  <course>11.33</course>
  <speed>0.0</speed>
  <fix>3d</fix>
</trkpt>
<trkpt lat="40.072842" lon="-105.230575">
  <ele>1586.09</ele>
  <time>2026-08-27T18:31:06Z</time>
  <course>122.32</course>
  <speed>0.0</speed>
  <fix>3d</fix>
</trkpt>
<trkpt lat="40.072842" lon="-105.230575">
  <ele>1586.17</ele>
  <time>2026-08-27T18:31:06Z</time>
  <course>11.33</course>
  <speed>0.0</speed>
  <fix>3d</fix>
</trkpt>
<trkpt lat="40.072842" lon="-105.230575">
  <ele>1586.09</ele>
  <time>2026-08-27T18:31:06Z</time>
  <course>139.53</course>
  <speed>0.0</speed>
  <fix>3d</fix>
</trkpt>
<trkpt lat="40.072842" lon="-105.230575">
  <ele>1586.17</ele>
  <time>2026-08-27T18:31:06Z</time>
  <course>11.33</course>
  <speed>0.01</speed>
  <fix>3d</fix>
</trkpt>
<trkpt lat="40.072842" lon="-105.230575">
  <ele>1586.09</ele>
  <time>2026-08-27T18:31:06Z</time>
  <course>136.2</course>
  <speed>0.0</speed>
  <fix>3d</fix>
</trkpt>
<trkpt lat="40.072842" lon="-105.230575">
  <ele>1586.17</ele>
  <time>2026-08-27T18:31:06Z</time>
  <course>11.33</course>
  <speed>0.01</speed>
  <fix>3d</fix>
</trkpt>
<trkpt lat="40.072842" lon="-105.230575">
  <ele>1586.09</ele>
  <time>2026-08-27T18:31:06Z</time>
  <course>134.25</course>
  <speed>0.0</speed>
  <fix>3d</fix>
</trkpt>
<trkpt lat="40.072842" lon="-105.230575">
  <ele>1586.18</ele>
  <time>2026-08-27T18:31:06Z</time>
  <course>11.33</course>
  <speed>0.01</speed>
  <fix>3d</fix>
</trkpt>
<trkpt lat="40.072842" lon="-105.230575">
  <ele>1586.09</ele>
  <time>2026-08-27T18:31:06Z</time>
  <course>134.93</course>
  <speed>0.0</speed>
  <fix>3d</fix>
</trkpt>
<trkpt lat="40.072842" lon="-105.230575">
  <ele>1586.18</ele>
  <time>2026-08-27T18:31:06Z</time>
  <course>11.33</course>
  <speed>0.01</speed>
  <fix>3d</fix>
</trkpt>
<trkpt lat="40.072842" lon="-105.230575">
  <ele>1586.09</ele>
  <time>2026-08-27T18:31:06Z</time>
  <course>135.11</course>
  <speed>0.0</speed>
  <fix>3d</fix>
</trkpt>
<trkpt lat="40.072842" lon="-105.230575">
  <ele>1586.18</ele>
  <time>2026-08-27T18:31:06Z</time>
  <course>11.33</course>
  <speed>0.01414213562373095</speed>
  <fix>3d</fix>
</trkpt>
<trkpt lat="40.072842" lon="-105.230575">
  <ele>1586.09</ele>
  <time>2026-08-27T18:31:06Z</time>
  <course>135.0</course>
  <speed>0.0</speed>
  <fix>3d</fix>
</trkpt>
<trkpt lat="40.072842" lon="-105.230575">
  <ele>1586.18</ele>
  <time>2026-08-27T18:31:06Z</time>
  <course>11.33</course>
  <speed>0.01414213562373095</speed>
  <fix>3d</fix>
</trkpt>
<trkpt lat="40.072842" lon="-105.230575">
  <ele>1586.09</ele>
  <time>2026-08-27T18:31:06Z</time>
  <course>134.99</course>
  <speed>0.0</speed>
  <fix>3d</fix>
</trkpt>
<trkpt lat="40.072842" lon="-105.230575">
  <ele>1586.18</ele>
  <time>2026-08-27T18:31:06Z</time>
  <course>11.33</course>
  <speed>0.01414213562373095</speed>
  <fix>3d</fix>
</trkpt>
<trkpt lat="40.072842" lon="-105.230575">
  <ele>1586.09</ele>
  <time>2026-08-27T18:31:06Z</time>
  <course>135.01</course>
  <speed>0.0</speed>
  <fix>3d</fix>
</trkpt>
<trkpt lat="40.072842" lon="-105.230575">
  <ele>1586.18</ele>
  <time>2026-08-27T18:31:06Z</time>
  <course>11.33</course>
  <speed>0.01414213562373095</speed>
  <fix>3d</fix>
</trkpt>
<trkpt lat="40.072842" lon="-105.230575">
  <ele>1586.09</ele>
  <time>2026-08-27T18:31:06Z</time>
  <course>135.01</course>
  <speed>0.0</speed>
  <fix>3d</fix>
</trkpt>
<trkpt lat="40.072842" lon="-105.230575">
  <ele>1586.18</ele>
  <time>2026-08-27T18:31:06Z</time>
  <course>11.33</course>
  <speed>0.01414213562373095</speed>
  <fix>3d</fix>
</trkpt>
<trkpt lat="40.072842" lon="-105.230575">
  <ele>1586.09</ele>
  <time>2026-08-27T18:31:06Z</time>
  <course>135.0</course>
  <speed>0.0</speed>
  <fix>3d</fix>
</trkpt>
<trkpt lat="40.072842" lon="-105.230575">
  <ele>1586.18</ele>
  <time>2026-08-27T18:31:06Z</time>
  <course>11.33</course>
  <speed>0.01414213562373095</speed>
  <fix>3d</fix>
</trkpt>
<trkpt lat="40.072842" lon="-105.230575">
  <ele>1586.09</ele>
  <time>2026-08-27T18:31:06Z</time>
  <course>135.01</course>
  <speed>0.0</speed>
  <fix>3d</fix>
</trkpt>
<trkpt lat="40.0728419" lon="-105.230575">
  <ele>1586.18</ele>
  <time>2026-08-27T18:31:06Z</time>
  <course>11.33</course>
  <speed>0.01414213562373095</speed>
  <fix>3d</fix>
</trkpt>
<trkpt lat="40.072842" lon="-105.230575">
  <ele>1586.09</ele>
  <time>2026-08-27T18:31:06Z</time>
  <course>135.01</course>
  <speed>0.0</speed>
  <fix>3d</fix>
</trkpt>
<trkpt lat="40.0728419" lon="-105.230575">
  <ele>1586.18</ele>
  <time>2026-08-27T18:31:06Z</time>
  <course>11.33</course>
  <speed>0.01414213562373095</speed>
  <fix>3d</fix>
</trkpt>
<trkpt lat="40.072842" lon="-105.230575">
  <ele>1586.09</ele>
  <time>2026-08-27T18:31:06Z</time>
  <course>135.01</course>
  <speed>0.0</speed>
  <fix>3d</fix>
</trkpt>
<trkpt lat="40.0728419" lon="-105.2305749">
  <ele>1586.17</ele>
  <time>2026-08-27T18:31:06Z</time>
  <course>11.33</course>
  <speed>0.022360679774997897</speed>
  <fix>3d</fix>
</trkpt>
<trkpt lat="40.072842" lon="-105.230575">
  <ele>1586.09</ele>
  <time>2026-08-27T18:31:06Z</time>
  <course>135.01</course>
  <speed>0.0</speed>
  <fix>3d</fix>
</trkpt>
<trkpt lat="40.0728419" lon="-105.2305749">
  <ele>1586.17</ele>
  <time>2026-08-27T18:31:06Z</time>
  <course>11.33</course>
  <speed>0.022360679774997897</speed>
  <fix>3d</fix>
</trkpt>
<trkpt lat="40.072842" lon="-105.230575">
  <ele>1586.09</ele>
  <time>2026-08-27T18:31:06Z</time>
  <course>135.01</course>
  <speed>0.0</speed>
  <fix>3d</fix>
</trkpt>
<trkpt lat="40.0728419" lon="-105.2305749">
  <ele>1586.17</ele>
  <time>2026-08-27T18:31:06Z</time>
  <course>11.33</course>
  <speed>0.022360679774997897</speed>
  <fix>3d</fix>
</trkpt>
<trkpt lat="40.072842" lon="-105.230575">
  <ele>1586.09</ele>
  <time>2026-08-27T18:31:06Z</time>
  <course>135.01</course>
  <speed>0.0</speed>
  <fix>3d</fix>
</trkpt>
<trkpt lat="40.0728419" lon="-105.2305749">
  <ele>1586.17</ele>
  <time>2026-08-27T18:31:06Z</time>
  <course>11.33</course>
  <speed>0.022360679774997897</speed>
  <fix>3d</fix>
</trkpt>
<trkpt lat="40.072842" lon="-105.230575">
  <ele>1586.09</ele>
  <time>2026-08-27T18:31:06Z</time>
  <course>135.01</course>
  <speed>0.0</speed>
  <fix>3d</fix>
</trkpt>
<trkpt lat="40.0728419" lon="-105.2305749">
  <ele>1586.17</ele>
  <time>2026-08-27T18:31:06Z</time>
  <course>11.33</course>
  <speed>0.022360679774997897</speed>
  <fix>3d</fix>
</trkpt>
<trkpt lat="40.072842" lon="-105.230575">
  <ele>1586.09</ele>
  <time>2026-08-27T18:31:06Z</time>
  <course>135.01</course>
  <speed>0.0</speed>
  <fix>3d</fix>
</trkpt>
<trkpt lat="40.0728419" lon="-105.2305749">
  <ele>1586.17</ele>
  <time>2026-08-27T18:31:06Z</time>
  <course>11.33</course>
  <speed>0.022360679774997897</speed>
  <fix>3d</fix>
</trkpt>
<trkpt lat="40.072842" lon="-105.230575">
  <ele>1586.09</ele>
  <time>2026-08-27T18:31:06Z</time>
  <course>135.01</course>
  <speed>0.0</speed>
  <fix>3d</fix>
</trkpt>
<trkpt lat="40.0728419" lon="-105.2305749">
  <ele>1586.18</ele>
  <time>2026-08-27T18:31:06Z</time>
  <course>11.33</course>
  <speed>0.022360679774997897</speed>
  <fix>3d</fix>
</trkpt>
<trkpt lat="40.072842" lon="-105.230575">
  <ele>1586.09</ele>
  <time>2026-08-27T18:31:06Z</time>
  <course>135.01</course>
  <speed>0.0</speed>
  <fix>3d</fix>
</trkpt>
<trkpt lat="40.0728419" lon="-105.2305749">
  <ele>1586.18</ele>
  <time>2026-08-27T18:31:06Z</time>
  <course>11.33</course>
  <speed>0.022360679774997897</speed>
  <fix>3d</fix>
</trkpt>
<trkpt lat="40.072842" lon="-105.230575">
  <ele>1586.09</ele>
  <time>2026-08-27T18:31:06Z</time>
  <course>135.01</course>
  <speed>0.0</speed>
  <fix>3d</fix>
</trkpt>
<trkpt lat="40.0728419" lon="-105.2305749">
  <ele>1586.18</ele>
  <time>2026-08-27T18:31:06Z</time>
  <course>11.33</course>
  <speed>0.022360679774997897</speed>
  <fix>3d</fix>
</trkpt>
<trkpt lat="40.072842" lon="-105.230575">
  <ele>1586.09</ele>
  <time>2026-08-27T18:31:06Z</time>
  <course>135.01</course>
  <speed>0.0</speed>
  <fix>3d</fix>
</trkpt>
<trkpt lat="40.0728419" lon="-105.2305749">
  <ele>1586.18</ele>
  <time>2026-08-27T18:31:06Z</time>
  <course>11.33</course>
  <speed>0.022360679774997897</speed>
  <fix>3d</fix>
</trkpt>
<trkpt lat="40.072842" lon="-105.230575">
  <ele>1586.09</ele>
  <time>2026-08-27T18:31:06Z</time>
  <course>135.01</course>
  <speed>0.0</speed>
  <fix>3d</fix>
</trkpt>
<trkpt lat="40.0728419" lon="-105.2305749">
  <ele>1586.18</ele>
  <time>2026-08-27T18:31:06Z</time>
  <course>11.33</course>
  <speed>0.022360679774997897</speed>
  <fix>3d</fix>
</trkpt>
<trkpt lat="40.072842" lon="-105.230575">
  <ele>1586.09</ele>
  <time>2026-08-27T18:31:06Z</time>
  <course>135.01</course>
  <speed>0.0</speed>
  <fix>3d</fix>
</trkpt>
<trkpt lat="40.0728419" lon="-105.2305749">
  <ele>1586.18</ele>
  <time>2026-08-27T18:31:06Z</time>
  <course>11.33</course>
  <speed>0.022360679774997897</speed>
  <fix>3d</fix>
</trkpt>
<trkpt lat="40.072842" lon="-105.230575">
  <ele>1586.09</ele>
  <time>2026-08-27T18:31:06Z</time>
  <course>135.01</course>
  <speed>0.0</speed>
  <fix>3d</fix>
</trkpt>
<trkpt lat="40.0728419" lon="-105.2305749">
  <ele>1586.18</ele>
  <time>2026-08-27T18:31:06Z</time>
  <course>11.33</course>
  <speed>0.022360679774997897</speed>
  <fix>3d</fix>
</trkpt>
<trkpt lat="40.072842" lon="-105.230575">
  <ele>1586.09</ele>
  <time>2026-08-27T18:31:06Z</time>
  <course>135.01</course>
  <speed>0.0</speed>
  <fix>3d</fix>
</trkpt>
<trkpt lat="40.0728419" lon="-105.2305749">
  <ele>1586.18</ele>
  <time>2026-08-27T18:31:06Z</time>
  <course>11.33</course>
  <speed>0.022360679774997897</speed>
  <fix>3d</fix>
</trkpt>
<trkpt lat="40.072842" lon="-105.230575">
  <ele>1586.09</ele>
  <time>2026-08-27T18:31:06Z</time>
  <course>135.01</course>
  <speed>0.0</speed>
  <fix>3d</fix>
</trkpt>
<trkpt lat="40.0728419" lon="-105.2305749">
  <ele>1586.18</ele>
  <time>2026-08-27T18:31:06Z</time>
  <course>11.33</course>
  <speed>0.022360679774997897</speed>
  <fix>3d</fix>
</trkpt>
<trkpt lat="40.072842" lon="-105.230575">
  <ele>1586.09</ele>
  <time>2026-08-27T18:31:06Z</time>
  <course>135.01</course>
  <speed>0.0</speed>
  <fix>3d</fix>
</trkpt>
<trkpt lat="40.0728419" lon="-105.2305749">
  <ele>1586.18</ele>
  <time>2026-08-27T18:31:06Z</time>
  <course>11.33</course>
  <speed>0.022360679774997897</speed>
  <fix>3d</fix>
</trkpt>
<trkpt lat="40.072842" lon="-105.230575">
  <ele>1586.09</ele>
  <time>2026-08-27T18:31:06Z</time>
  <course>135.01</course>
  <speed>0.0</speed>
  <fix>3d</fix>
</trkpt>
<trkpt lat="40.0728419" lon="-105.2305749">
  <ele>1586.18</ele>
  <time>2026-08-27T18:31:06Z</time>
  <course>11.33</course>
  <speed>0.022360679774997897</speed>
  <fix>3d</fix>
</trkpt>
<trkpt lat="40.072842" lon="-105.230575">
  <ele>1586.09</ele>
  <time>2026-08-27T18:31:06Z</time>
  <course>135.01</course>
  <speed>0.0</speed>
  <fix>3d</fix>
</trkpt>
<trkpt lat="40.0728419" lon="-105.2305749">
  <ele>1586.18</ele>
  <time>2026-08-27T18:31:06Z</time>
  <course>11.33</course>
  <speed>0.022360679774997897</speed>
  <fix>3d</fix>
</trkpt>
<trkpt lat="40.072842" lon="-105.230575">
  <ele>1586.09</ele>
  <time>2026-08-27T18:31:06Z</time>
  <course>135.01</course>
  <speed>0.0</speed>
  <fix>3d</fix>
</trkpt>
<trkpt lat="40.0728419" lon="-105.2305749">
  <ele>1586.18</ele>
  <time>2026-08-27T18:31:06Z</time>
  <course>11.32</course>
  <speed>0.022360679774997897</speed>
  <fix>3d</fix>
</trkpt>
<trkpt lat="40.072842" lon="-105.230575">
  <ele>1586.09</ele>
  <time>2026-08-27T18:31:06Z</time>
  <course>135.01</course>
  <speed>0.0</speed>
  <fix>3d</fix>
</trkpt>
<trkpt lat="40.0728419" lon="-105.2305749">
  <ele>1586.18</ele>
  <time>2026-08-27T18:31:06Z</time>
  <course>11.32</course>
  <speed>0.022360679774997897</speed>
  <fix>3d</fix>
</trkpt>
<trkpt lat="40.072842" lon="-105.230575">
  <ele>1586.09</ele>
  <time>2026-08-27T18:31:06Z</time>
  <course>135.01</course>
  <speed>0.0</speed>
  <fix>3d</fix>
</trkpt>
<trkpt lat="40.0728419" lon="-105.2305749">
  <ele>1586.18</ele>
  <time>2026-08-27T18:31:06Z</time>
  <course>11.32</course>
  <speed>0.022360679774997897</speed>
  <fix>3d</fix>
</trkpt>
<trkpt lat="40.072842" lon="-105.230575">
  <ele>1586.09</ele>
  <time>2026-08-27T18:31:06Z</time>
  <course>135.01</course>
  <speed>0.0</speed>
  <fix>3d</fix>
</trkpt>
<trkpt lat="40.0728419" lon="-105.2305749">
  <ele>1586.18</ele>
  <time>2026-08-27T18:31:06Z</time>
  <course>11.32</course>
  <speed>0.022360679774997897</speed>
  <fix>3d</fix>
</trkpt>
<trkpt lat="40.072842" lon="-105.230575">
  <ele>1586.09</ele>
  <time>2026-08-27T18:31:06Z</time>
  <course>135.01</course>
  <speed>0.0</speed>
  <fix>3d</fix>
</trkpt>
<trkpt lat="40.0728419" lon="-105.2305749">
  <ele>1586.18</ele>
  <time>2026-08-27T18:31:06Z</time>
  <course>11.32</course>
  <speed>0.022360679774997897</speed>
  <fix>3d</fix>
</trkpt>
<trkpt lat="40.072842" lon="-105.230575">
  <ele>1586.09</ele>
  <time>2026-08-27T18:31:06Z</time>
  <course>135.01</course>
  <speed>0.0</speed>
  <fix>3d</fix>
</trkpt>
<trkpt lat="40.0728419" lon="-105.2305749">
  <ele>1586.18</ele>
  <time>2026-08-27T18:31:06Z</time>
  <course>11.32</course>
  <speed>0.022360679774997897</speed>
  <fix>3d</fix>
</trkpt>
<trkpt lat="40.072842" lon="-105.230575">
  <ele>1586.09</ele>
  <time>2026-08-27T18:31:06Z</time>
  <course>135.01</course>
  <speed>0.0</speed>
  <fix>3d</fix>
</trkpt>
<trkpt lat="40.0728419" lon="-105.2305749">
  <ele>1586.18</ele>
  <time>2026-08-27T18:31:06Z</time>
  <course>11.32</course>
  <speed>0.022360679774997897</speed>
  <fix>3d</fix>
</trkpt>
<trkpt lat="40.072842" lon="-105.230575">
  <ele>1586.09</ele>
  <time>2026-08-27T18:31:06Z</time>
  <course>135.01</course>
  <speed>0.0</speed>
  <fix>3d</fix>
</trkpt>
<trkpt lat="40.0728419" lon="-105.2305749">
  <ele>1586.18</ele>
  <time>2026-08-27T18:31:06Z</time>
  <course>11.32</course>
  <speed>0.022360679774997897</speed>
  <fix>3d</fix>
</trkpt>
<trkpt lat="40.072842" lon="-105.230575">
  <ele>1586.09</ele>
  <time>2026-08-27T18:31:06Z</time>
  <course>135.01</course>
  <speed>0.0</speed>
  <fix>3d</fix>
</trkpt>
<trkpt lat="40.0728419" lon="-105.2305749">
  <ele>1586.18</ele>
  <time>2026-08-27T18:31:06Z</time>
  <course>11.31</course>
  <speed>0.022360679774997897</speed>
  <fix>3d</fix>
</trkpt>
<trkpt lat="40.072842" lon="-105.230575">
  <ele>1586.09</ele>
  <time>2026-08-27T18:31:06Z</time>
  <course>135.01</course>
  <speed>0.0</speed>
  <fix>3d</fix>
</trkpt>
<trkpt lat="40.0728419" lon="-105.2305749">
  <ele>1586.18</ele>
  <time>2026-08-27T18:31:06Z</time>
  <course>11.31</course>
  <speed>0.022360679774997897</speed>
  <fix>3d</fix>
</trkpt>
<trkpt lat="40.072842" lon="-105.230575">
  <ele>1586.09</ele>
  <time>2026-08-27T18:31:06Z</time>
  <course>135.01</course>
  <speed>0.0</speed>
  <fix>3d</fix>
</trkpt>
<trkpt lat="40.0728419" lon="-105.2305749">
  <ele>1586.17</ele>
  <time>2026-08-27T18:31:06Z</time>
  <course>11.31</course>
  <speed>0.022360679774997897</speed>
  <fix>3d</fix>
</trkpt>
<trkpt lat="40.072842" lon="-105.230575">
  <ele>1586.09</ele>
  <time>2026-08-27T18:31:06Z</time>
  <course>135.01</course>
  <speed>0.0</speed>
  <fix>3d</fix>
</trkpt>
<trkpt lat="40.0728419" lon="-105.2305749">
  <ele>1586.17</ele>
  <time>2026-08-27T18:31:06Z</time>
  <course>11.31</course>
  <speed>0.022360679774997897</speed>
  <fix>3d</fix>
</trkpt>
<trkpt lat="40.072842" lon="-105.230575">
  <ele>1586.09</ele>
  <time>2026-08-27T18:31:06Z</time>
  <course>135.01</course>
  <speed>0.0</speed>
  <fix>3d</fix>
</trkpt>
<trkpt lat="40.0728419" lon="-105.2305749">
  <ele>1586.17</ele>
  <time>2026-08-27T18:31:06Z</time>
  <course>11.31</course>
  <speed>0.022360679774997897</speed>
  <fix>3d</fix>
</trkpt>
<trkpt lat="40.072842" lon="-105.230575">
  <ele>1586.09</ele>
  <time>2026-08-27T18:31:06Z</time>
  <course>315.0</course>
  <speed>0.0</speed>
  <fix>3d</fix>
</trkpt>
<trkpt lat="40.0728419" lon="-105.2305749">
  <ele>1586.17</ele>
  <time>2026-08-27T18:31:06Z</time>
  <course>11.31</course>
  <speed>0.022360679774997897</speed>
  <fix>3d</fix>
</trkpt>
<trkpt lat="40.072842" lon="-105.230575">
  <ele>1586.09</ele>
  <time>2026-08-27T18:31:06Z</time>
  <course>315.0</course>
  <speed>0.0</speed>
  <fix>3d</fix>
</trkpt>
<trkpt lat="40.0728419" lon="-105.2305749">
  <ele>1586.17</ele>
  <time>2026-08-27T18:31:07Z</time>
  <course>11.31</course>
  <speed>0.022360679774997897</speed>
  <fix>3d</fix>
</trkpt>
<trkpt lat="40.072842" lon="-105.230575">
  <ele>1586.09</ele>
  <time>2026-08-27T18:31:07Z</time>
  <course>315.0</course>
  <speed>0.0</speed>
  <fix>3d</fix>
</trkpt>
<trkpt lat="40.0728419" lon="-105.2305749">
  <ele>1586.17</ele>
  <time>2026-08-27T18:31:07Z</time>
  <course>11.3</course>
  <speed>0.022360679774997897</speed>
  <fix>3d</fix>
</trkpt>
<trkpt lat="40.072842" lon="-105.230575">
  <ele>1586.09</ele>
  <time>2026-08-27T18:31:07Z</time>
  <course>135.0</course>
  <speed>0.0</speed>
  <fix>3d</fix>
</trkpt>
<trkpt lat="40.0728419" lon="-105.2305749">
  <ele>1586.18</ele>
  <time>2026-08-27T18:31:07Z</time>
  <course>11.3</course>
  <speed>0.022360679774997897</speed>
  <fix>3d</fix>
</trkpt>
<trkpt lat="40.072842" lon="-105.230575">
  <ele>1586.09</ele>
  <time>2026-08-27T18:31:07Z</time>
  <course>135.01</course>
  <speed>0.0</speed>
  <fix>3d</fix>
</trkpt>
<trkpt lat="40.0728419" lon="-105.2305749">
  <ele>1586.18</ele>
  <time>2026-08-27T18:31:07Z</time>
  <course>11.3</course>
  <speed>0.022360679774997897</speed>
  <fix>3d</fix>
</trkpt>
<trkpt lat="40.072842" lon="-105.230575">
  <ele>1586.09</ele>
  <time>2026-08-27T18:31:07Z</time>
  <course>314.91</course>
  <speed>0.0</speed>
  <fix>3d</fix>
</trkpt>
<trkpt lat="40.0728419" lon="-105.2305749">
  <ele>1586.18</ele>
  <time>2026-08-27T18:31:07Z</time>
  <course>11.3</course>
  <speed>0.022360679774997897</speed>
  <fix>3d</fix>
</trkpt>
<trkpt lat="40.072842" lon="-105.230575">
  <ele>1586.09</ele>
  <time>2026-08-27T18:31:07Z</time>
  <course>135.02</course>
  <speed>0.0</speed>
  <fix>3d</fix>
</trkpt>
<trkpt lat="40.0728419" lon="-105.2305749">
  <ele>1586.18</ele>
  <time>2026-08-27T18:31:07Z</time>
  <course>11.3</course>
  <speed>0.022360679774997897</speed>
  <fix>3d</fix>
</trkpt>
<trkpt lat="40.072842" lon="-105.230575">
  <ele>1586.09</ele>
  <time>2026-08-27T18:31:07Z</time>
  <course>135.02</course>
  <speed>0.0</speed>
  <fix>3d</fix>
</trkpt>
<trkpt lat="40.0728419" lon="-105.2305749">
  <ele>1586.18</ele>
  <time>2026-08-27T18:31:07Z</time>
  <course>11.29</course>
  <speed>0.022360679774997897</speed>
  <fix>3d</fix>
</trkpt>
<trkpt lat="40.072842" lon="-105.230575">
  <ele>1586.09</ele>
  <time>2026-08-27T18:31:07Z</time>
  <course>135.02</course>
  <speed>0.0</speed>
  <fix>3d</fix>
</trkpt>
<trkpt lat="40.0728419" lon="-105.2305749">
  <ele>1586.18</ele>
  <time>2026-08-27T18:31:07Z</time>
  <course>11.29</course>
  <speed>0.022360679774997897</speed>
  <fix>3d</fix>
</trkpt>
<trkpt lat="40.072842" lon="-105.230575">
  <ele>1586.09</ele>
  <time>2026-08-27T18:31:07Z</time>
  <course>135.02</course>
  <speed>0.0</speed>
  <fix>3d</fix>
</trkpt>
<trkpt lat="40.0728419" lon="-105.2305749">
  <ele>1586.19</ele>
  <time>2026-08-27T18:31:07Z</time>
  <course>11.29</course>
  <speed>0.022360679774997897</speed>
  <fix>3d</fix>
</trkpt>
<trkpt lat="40.072842" lon="-105.230575">
  <ele>1586.09</ele>
  <time>2026-08-27T18:31:07Z</time>
  <course>135.02</course>
  <speed>0.0</speed>
  <fix>3d</fix>
</trkpt>
<trkpt lat="40.0728419" lon="-105.2305749">
  <ele>1586.19</ele>
  <time>2026-08-27T18:31:07Z</time>
  <course>11.29</course>
  <speed>0.022360679774997897</speed>
  <fix>3d</fix>
</trkpt>
<trkpt lat="40.072842" lon="-105.230575">
  <ele>1586.09</ele>
  <time>2026-08-27T18:31:07Z</time>
  <course>135.02</course>
  <speed>0.0</speed>
  <fix>3d</fix>
</trkpt>
<trkpt lat="40.0728419" lon="-105.2305749">
  <ele>1586.19</ele>
  <time>2026-08-27T18:31:07Z</time>
  <course>11.29</course>
  <speed>0.022360679774997897</speed>
  <fix>3d</fix>
</trkpt>
<trkpt lat="40.072842" lon="-105.230575">
  <ele>1586.09</ele>
  <time>2026-08-27T18:31:07Z</time>
  <course>135.02</course>
  <speed>0.0</speed>
  <fix>3d</fix>
</trkpt>
<trkpt lat="40.0728419" lon="-105.2305749">
  <ele>1586.19</ele>
  <time>2026-08-27T18:31:07Z</time>
  <course>11.28</course>
  <speed>0.022360679774997897</speed>
  <fix>3d</fix>
</trkpt>
<trkpt lat="40.072842" lon="-105.230575">
  <ele>1586.09</ele>
  <time>2026-08-27T18:31:07Z</time>
  <course>135.02</course>
  <speed>0.0</speed>
  <fix>3d</fix>
</trkpt>
<trkpt lat="40.0728419" lon="-105.2305749">
  <ele>1586.19</ele>
  <time>2026-08-27T18:31:07Z</time>
  <course>11.28</course>
  <speed>0.022360679774997897</speed>
  <fix>3d</fix>
</trkpt>
<trkpt lat="40.072842" lon="-105.230575">
  <ele>1586.09</ele>
  <time>2026-08-27T18:31:07Z</time>
  <course>135.02</course>
  <speed>0.0</speed>
  <fix>3d</fix>
</trkpt>
<trkpt lat="40.0728419" lon="-105.2305749">
  <ele>1586.19</ele>
  <time>2026-08-27T18:31:07Z</time>
  <course>11.28</course>
  <speed>0.022360679774997897</speed>
  <fix>3d</fix>
</trkpt>
<trkpt lat="40.072842" lon="-105.230575">
  <ele>1586.09</ele>
  <time>2026-08-27T18:31:07Z</time>
  <course>135.02</course>
  <speed>0.0</speed>
  <fix>3d</fix>
</trkpt>
<trkpt lat="40.0728419" lon="-105.2305749">
  <ele>1586.18</ele>
  <time>2026-08-27T18:31:07Z</time>
  <course>11.28</course>
  <speed>0.022360679774997897</speed>
  <fix>3d</fix>
</trkpt>
<trkpt lat="40.072842" lon="-105.230575">
  <ele>1586.09</ele>
  <time>2026-08-27T18:31:07Z</time>
  <course>135.02</course>
  <speed>0.0</speed>
  <fix>3d</fix>
</trkpt>
<trkpt lat="40.0728419" lon="-105.2305749">
  <ele>1586.18</ele>
  <time>2026-08-27T18:31:07Z</time>
  <course>11.28</course>
  <speed>0.022360679774997897</speed>
  <fix>3d</fix>
</trkpt>
<trkpt lat="40.072842" lon="-105.230575">
  <ele>1586.09</ele>
  <time>2026-08-27T18:31:07Z</time>
  <course>135.02</course>
  <speed>0.0</speed>
  <fix>3d</fix>
</trkpt>
<trkpt lat="40.0728419" lon="-105.2305749">
  <ele>1586.18</ele>
  <time>2026-08-27T18:31:07Z</time>
  <course>11.27</course>
  <speed>0.022360679774997897</speed>
  <fix>3d</fix>
</trkpt>
<trkpt lat="40.072842" lon="-105.230575">
  <ele>1586.09</ele>
  <time>2026-08-27T18:31:07Z</time>
  <course>135.02</course>
  <speed>0.0</speed>
  <fix>3d</fix>
</trkpt>
<trkpt lat="40.0728419" lon="-105.2305749">
  <ele>1586.18</ele>
  <time>2026-08-27T18:31:07Z</time>
  <course>11.27</course>
  <speed>0.022360679774997897</speed>
  <fix>3d</fix>
</trkpt>
<trkpt lat="40.072842" lon="-105.230575">
  <ele>1586.09</ele>
  <time>2026-08-27T18:31:07Z</time>
  <course>135.02</course>
  <speed>0.0</speed>
  <fix>3d</fix>
</trkpt>
<trkpt lat="40.0728419" lon="-105.2305749">
  <ele>1586.18</ele>
  <time>2026-08-27T18:31:07Z</time>
  <course>11.27</course>
  <speed>0.022360679774997897</speed>
  <fix>3d</fix>
</trkpt>
<trkpt lat="40.072842" lon="-105.230575">
  <ele>1586.09</ele>
  <time>2026-08-27T18:31:07Z</time>
  <course>135.02</course>
  <speed>0.0</speed>
  <fix>3d</fix>
</trkpt>
<trkpt lat="40.0728419" lon="-105.2305749">
  <ele>1586.18</ele>
  <time>2026-08-27T18:31:07Z</time>
  <course>11.27</course>
  <speed>0.01414213562373095</speed>
  <fix>3d</fix>
</trkpt>
<trkpt lat="40.072842" lon="-105.230575">
  <ele>1586.09</ele>
  <time>2026-08-27T18:31:07Z</time>
  <course>135.02</course>
  <speed>0.0</speed>
  <fix>3d</fix>
</trkpt>
<trkpt lat="40.0728419" lon="-105.2305749">
  <ele>1586.18</ele>
  <time>2026-08-27T18:31:07Z</time>
  <course>11.26</course>
  <speed>0.01414213562373095</speed>
  <fix>3d</fix>
</trkpt>
<trkpt lat="40.072842" lon="-105.230575">
  <ele>1586.09</ele>
  <time>2026-08-27T18:31:07Z</time>
  <course>135.02</course>
  <speed>0.0</speed>
  <fix>3d</fix>
</trkpt>
<trkpt lat="40.0728419" lon="-105.2305749">
  <ele>1586.18</ele>
  <time>2026-08-27T18:31:07Z</time>
  <course>11.26</course>
  <speed>0.01414213562373095</speed>
  <fix>3d</fix>
</trkpt>
<trkpt lat="40.072842" lon="-105.230575">
  <ele>1586.09</ele>
  <time>2026-08-27T18:31:07Z</time>
  <course>135.02</course>
  <speed>0.0</speed>
  <fix>3d</fix>
</trkpt>
<trkpt lat="40.0728419" lon="-105.2305749">
  <ele>1586.18</ele>
  <time>2026-08-27T18:31:07Z</time>
  <course>11.26</course>
  <speed>0.01414213562373095</speed>
  <fix>3d</fix>
</trkpt>
<trkpt lat="40.072842" lon="-105.230575">
  <ele>1586.09</ele>
  <time>2026-08-27T18:31:07Z</time>
  <course>135.02</course>
  <speed>0.0</speed>
  <fix>3d</fix>
</trkpt>
<trkpt lat="40.0728419" lon="-105.2305749">
  <ele>1586.19</ele>
  <time>2026-08-27T18:31:07Z</time>
  <course>11.26</course>
  <speed>0.01414213562373095</speed>
  <fix>3d</fix>
</trkpt>
<trkpt lat="40.072842" lon="-105.230575">
  <ele>1586.09</ele>
  <time>2026-08-27T18:31:07Z</time>
  <course>135.02</course>
  <speed>0.0</speed>
  <fix>3d</fix>
</trkpt>
<trkpt lat="40.0728419" lon="-105.2305749">
  <ele>1586.19</ele>
  <time>2026-08-27T18:31:07Z</time>
  <course>11.26</course>
  <speed>0.01414213562373095</speed>
  <fix>3d</fix>
</trkpt>
<trkpt lat="40.072842" lon="-105.230575">
  <ele>1586.09</ele>
  <time>2026-08-27T18:31:07Z</time>
  <course>135.02</course>
  <speed>0.0</speed>
  <fix>3d</fix>
</trkpt>
<trkpt lat="40.0728419" lon="-105.2305749">
  <ele>1586.19</ele>
  <time>2026-08-27T18:31:07Z</time>
  <course>11.25</course>
  <speed>0.01414213562373095</speed>
  <fix>3d</fix>
</trkpt>
<trkpt lat="40.072842" lon="-105.230575">
  <ele>1586.09</ele>
  <time>2026-08-27T18:31:07Z</time>
  <course>135.02</course>
  <speed>0.0</speed>
  <fix>3d</fix>
</trkpt>
<trkpt lat="40.0728419" lon="-105.2305749">
  <ele>1586.19</ele>
  <time>2026-08-27T18:31:07Z</time>
  <course>11.25</course>
  <speed>0.01414213562373095</speed>
  <fix>3d</fix>
</trkpt>
<trkpt lat="40.072842" lon="-105.230575">
  <ele>1586.09</ele>
  <time>2026-08-27T18:31:07Z</time>
  <course>135.02</course>
  <speed>0.0</speed>
  <fix>3d</fix>
</trkpt>
<trkpt lat="40.0728419" lon="-105.2305749">
  <ele>1586.19</ele>
  <time>2026-08-27T18:31:07Z</time>
  <course>11.25</course>
  <speed>0.01414213562373095</speed>
  <fix>3d</fix>
</trkpt>
<trkpt lat="40.072842" lon="-105.230575">
  <ele>1586.09</ele>
  <time>2026-08-27T18:31:07Z</time>
  <course>135.02</course>
  <speed>0.0</speed>
  <fix>3d</fix>
</trkpt>
<trkpt lat="40.0728419" lon="-105.2305749">
  <ele>1586.19</ele>
  <time>2026-08-27T18:31:07Z</time>
  <course>11.25</course>
  <speed>0.01414213562373095</speed>
  <fix>3d</fix>
</trkpt>
<trkpt lat="40.072842" lon="-105.230575">
  <ele>1586.09</ele>
  <time>2026-08-27T18:31:07Z</time>
  <course>135.02</course>
  <speed>0.0</speed>
  <fix>3d</fix>
</trkpt>
<trkpt lat="40.0728419" lon="-105.2305749">
  <ele>1586.19</ele>
  <time>2026-08-27T18:31:07Z</time>
  <course>11.24</course>
  <speed>0.01414213562373095</speed>
  <fix>3d</fix>
</trkpt>
<trkpt lat="40.072842" lon="-105.230575">
  <ele>1586.09</ele>
  <time>2026-08-27T18:31:07Z</time>
  <course>135.02</course>
  <speed>0.0</speed>
  <fix>3d</fix>
</trkpt>
<trkpt lat="40.0728419" lon="-105.2305749">
  <ele>1586.19</ele>
  <time>2026-08-27T18:31:07Z</time>
  <course>11.24</course>
  <speed>0.01414213562373095</speed>
  <fix>3d</fix>
</trkpt>
<trkpt lat="40.072842" lon="-105.230575">
  <ele>1586.09</ele>
  <time>2026-08-27T18:31:07Z</time>
  <course>135.02</course>
  <speed>0.0</speed>
  <fix>3d</fix>
</trkpt>
<trkpt lat="40.0728419" lon="-105.2305749">
  <ele>1586.19</ele>
  <time>2026-08-27T18:31:07Z</time>
  <course>11.24</course>
  <speed>0.01414213562373095</speed>
  <fix>3d</fix>
</trkpt>
<trkpt lat="40.072842" lon="-105.230575">
  <ele>1586.09</ele>
  <time>2026-08-27T18:31:07Z</time>
  <course>135.02</course>
  <speed>0.0</speed>
  <fix>3d</fix>
</trkpt>
<trkpt lat="40.0728419" lon="-105.2305749">
  <ele>1586.19</ele>
  <time>2026-08-27T18:31:07Z</time>
  <course>11.24</course>
  <speed>0.01414213562373095</speed>
  <fix>3d</fix>
</trkpt>
<trkpt lat="40.072842" lon="-105.230575">
  <ele>1586.09</ele>
  <time>2026-08-27T18:31:07Z</time>
  <course>135.02</course>
  <speed>0.0</speed>
  <fix>3d</fix>
</trkpt>
<trkpt lat="40.0728419" lon="-105.2305749">
  <ele>1586.19</ele>
  <time>2026-08-27T18:31:07Z</time>
  <course>11.23</course>
  <speed>0.01414213562373095</speed>
  <fix>3d</fix>
</trkpt>
<trkpt lat="40.072842" lon="-105.230575">
  <ele>1586.09</ele>
  <time>2026-08-27T18:31:07Z</time>
  <course>135.02</course>
  <speed>0.0</speed>
  <fix>3d</fix>
</trkpt>
<trkpt lat="40.0728419" lon="-105.2305749">
  <ele>1586.18</ele>
  <time>2026-08-27T18:31:07Z</time>
  <course>11.23</course>
  <speed>0.01414213562373095</speed>
  <fix>3d</fix>
</trkpt>
<trkpt lat="40.072842" lon="-105.230575">
  <ele>1586.09</ele>
  <time>2026-08-27T18:31:07Z</time>
  <course>135.02</course>
  <speed>0.0</speed>
  <fix>3d</fix>
</trkpt>
<trkpt lat="40.0728419" lon="-105.2305749">
  <ele>1586.18</ele>
  <time>2026-08-27T18:31:07Z</time>
  <course>11.23</course>
  <speed>0.01414213562373095</speed>
  <fix>3d</fix>
</trkpt>
<trkpt lat="40.072842" lon="-105.230575">
  <ele>1586.09</ele>
  <time>2026-08-27T18:31:07Z</time>
  <course>135.02</course>
  <speed>0.0</speed>
  <fix>3d</fix>
</trkpt>
<trkpt lat="40.0728419" lon="-105.2305749">
  <ele>1586.18</ele>
  <time>2026-08-27T18:31:07Z</time>
  <course>11.23</course>
  <speed>0.01414213562373095</speed>
  <fix>3d</fix>
</trkpt>
<trkpt lat="40.072842" lon="-105.230575">
  <ele>1586.09</ele>
  <time>2026-08-27T18:31:07Z</time>
  <course>135.02</course>
  <speed>0.0</speed>
  <fix>3d</fix>
</trkpt>
<trkpt lat="40.0728419" lon="-105.2305749">
  <ele>1586.18</ele>
  <time>2026-08-27T18:31:07Z</time>
  <course>11.23</course>
  <speed>0.01414213562373095</speed>
  <fix>3d</fix>
</trkpt>
<trkpt lat="40.072842" lon="-105.230575">
  <ele>1586.09</ele>
  <time>2026-08-27T18:31:07Z</time>
  <course>135.02</course>
  <speed>0.0</speed>
  <fix>3d</fix>
</trkpt>
<trkpt lat="40.0728419" lon="-105.2305749">
  <ele>1586.18</ele>
  <time>2026-08-27T18:31:07Z</time>
  <course>11.22</course>
  <speed>0.01414213562373095</speed>
  <fix>3d</fix>
</trkpt>
<trkpt lat="40.072842" lon="-105.230575">
  <ele>1586.09</ele>
  <time>2026-08-27T18:31:07Z</time>
  <course>135.02</course>
  <speed>0.0</speed>
  <fix>3d</fix>
</trkpt>
<trkpt lat="40.0728419" lon="-105.2305749">
  <ele>1586.18</ele>
  <time>2026-08-27T18:31:07Z</time>
  <course>11.22</course>
  <speed>0.01414213562373095</speed>
  <fix>3d</fix>
</trkpt>
<trkpt lat="40.072842" lon="-105.230575">
  <ele>1586.09</ele>
  <time>2026-08-27T18:31:07Z</time>
  <course>135.02</course>
  <speed>0.0</speed>
  <fix>3d</fix>
</trkpt>
<trkpt lat="40.0728419" lon="-105.2305749">
  <ele>1586.18</ele>
  <time>2026-08-27T18:31:07Z</time>
  <course>11.22</course>
  <speed>0.01414213562373095</speed>
  <fix>3d</fix>
</trkpt>
<trkpt lat="40.072842" lon="-105.230575">
  <ele>1586.09</ele>
  <time>2026-08-27T18:31:07Z</time>
  <course>135.02</course>
  <speed>0.0</speed>
  <fix>3d</fix>
</trkpt>
<trkpt lat="40.0728419" lon="-105.2305749">
  <ele>1586.18</ele>
  <time>2026-08-27T18:31:07Z</time>
  <course>11.22</course>
  <speed>0.01414213562373095</speed>
  <fix>3d</fix>
</trkpt>
<trkpt lat="40.072842" lon="-105.230575">
  <ele>1586.09</ele>
  <time>2026-08-27T18:31:07Z</time>
  <course>135.02</course>
  <speed>0.0</speed>
  <fix>3d</fix>
</trkpt>
<trkpt lat="40.0728419" lon="-105.2305749">
  <ele>1586.17</ele>
  <time>2026-08-27T18:31:07Z</time>
  <course>11.21</course>
  <speed>0.01414213562373095</speed>
  <fix>3d</fix>
</trkpt>
<trkpt lat="40.072842" lon="-105.230575">
  <ele>1586.09</ele>
  <time>2026-08-27T18:31:07Z</time>
  <course>135.02</course>
  <speed>0.0</speed>
  <fix>3d</fix>
</trkpt>
<trkpt lat="40.0728419" lon="-105.2305749">
  <ele>1586.17</ele>
  <time>2026-08-27T18:31:07Z</time>
  <course>11.21</course>
  <speed>0.01414213562373095</speed>
  <fix>3d</fix>
</trkpt>
<trkpt lat="40.072842" lon="-105.230575">
  <ele>1586.09</ele>
  <time>2026-08-27T18:31:07Z</time>
  <course>135.02</course>
  <speed>0.0</speed>
  <fix>3d</fix>
</trkpt>
<trkpt lat="40.0728419" lon="-105.2305749">
  <ele>1586.17</ele>
  <time>2026-08-27T18:31:07Z</time>
  <course>11.21</course>
  <speed>0.01414213562373095</speed>
  <fix>3d</fix>
</trkpt>
<trkpt lat="40.072842" lon="-105.230575">
  <ele>1586.09</ele>
  <time>2026-08-27T18:31:07Z</time>
  <course>135.02</course>
  <speed>0.0</speed>
  <fix>3d</fix>
</trkpt>
<trkpt lat="40.0728419" lon="-105.2305749">
  <ele>1586.17</ele>
  <time>2026-08-27T18:31:07Z</time>
  <course>11.21</course>
  <speed>0.01414213562373095</speed>
  <fix>3d</fix>
</trkpt>
<trkpt lat="40.072842" lon="-105.230575">
  <ele>1586.09</ele>
  <time>2026-08-27T18:31:07Z</time>
  <course>135.02</course>
  <speed>0.0</speed>
  <fix>3d</fix>
</trkpt>
<trkpt lat="40.0728419" lon="-105.2305749">
  <ele>1586.17</ele>
  <time>2026-08-27T18:31:07Z</time>
  <course>11.21</course>
  <speed>0.01414213562373095</speed>
  <fix>3d</fix>
</trkpt>
<trkpt lat="40.072842" lon="-105.230575">
  <ele>1586.09</ele>
  <time>2026-08-27T18:31:07Z</time>
  <course>315.0</course>
  <speed>0.0</speed>
  <fix>3d</fix>
</trkpt>
<trkpt lat="40.0728419" lon="-105.2305749">
  <ele>1586.17</ele>
  <time>2026-08-27T18:31:07Z</time>
  <course>11.21</course>
  <speed>0.01414213562373095</speed>
  <fix>3d</fix>
</trkpt>
<trkpt lat="40.0728419" lon="-105.2305749">
  <ele>1586.17</ele>
  <time>2026-08-27T18:31:07Z</time>
  <course>11.2</course>
  <speed>0.01414213562373095</speed>
  <fix>3d</fix>
</trkpt>
<trkpt lat="40.072842" lon="-105.230575">
  <ele>1586.09</ele>
  <time>2026-08-27T18:31:07Z</time>
  <course>315.0</course>
  <speed>0.0</speed>
  <fix>3d</fix>
</trkpt>
<trkpt lat="40.0728419" lon="-105.2305749">
  <ele>1586.17</ele>
  <time>2026-08-27T18:31:07Z</time>
  <course>11.2</course>
  <speed>0.01414213562373095</speed>
  <fix>3d</fix>
</trkpt>
<trkpt lat="40.0728419" lon="-105.2305749">
  <ele>1586.17</ele>
  <time>2026-08-27T18:31:07Z</time>
  <course>11.2</course>
  <speed>0.01414213562373095</speed>
  <fix>3d</fix>
</trkpt>
<trkpt lat="40.072842" lon="-105.230575">
  <ele>1586.09</ele>
  <time>2026-08-27T18:31:07Z</time>
  <course>315.0</course>
  <speed>0.0</speed>
  <fix>3d</fix>
</trkpt>
<trkpt lat="40.0728419" lon="-105.2305749">
  <ele>1586.17</ele>
  <time>2026-08-27T18:31:07Z</time>
  <course>11.2</course>
  <speed>0.01414213562373095</speed>
  <fix>3d</fix>
</trkpt>
<trkpt lat="40.0728419" lon="-105.2305749">
  <ele>1586.17</ele>
  <time>2026-08-27T18:31:07Z</time>
  <course>11.2</course>
  <speed>0.01414213562373095</speed>
  <fix>3d</fix>
</trkpt>
<trkpt lat="40.072842" lon="-105.230575">
  <ele>1586.09</ele>
  <time>2026-08-27T18:31:07Z</time>
  <course>135.23</course>
  <speed>0.0</speed>
  <fix>3d</fix>
</trkpt>
<trkpt lat="40.0728419" lon="-105.2305749">
  <ele>1586.17</ele>
  <time>2026-08-27T18:31:07Z</time>
  <course>11.2</course>
  <speed>0.01414213562373095</speed>
  <fix>3d</fix>
</trkpt>
<trkpt lat="40.0728419" lon="-105.2305749">
  <ele>1586.17</ele>
  <time>2026-08-27T18:31:07Z</time>
  <course>11.2</course>
  <speed>0.01414213562373095</speed>
  <fix>3d</fix>
</trkpt>
<trkpt lat="40.072842" lon="-105.230575">
  <ele>1586.09</ele>
  <time>2026-08-27T18:31:07Z</time>
  <course>315.0</course>
  <speed>0.0</speed>
  <fix>3d</fix>
</trkpt>
<trkpt lat="40.0728419" lon="-105.2305749">
  <ele>1586.17</ele>
  <time>2026-08-27T18:31:07Z</time>
  <course>11.2</course>
  <speed>0.01414213562373095</speed>
  <fix>3d</fix>
</trkpt>
<trkpt lat="40.0728419" lon="-105.2305749">
  <ele>1586.17</ele>
  <time>2026-08-27T18:31:07Z</time>
  <course>11.19</course>
  <speed>0.01414213562373095</speed>
  <fix>3d</fix>
</trkpt>
<trkpt lat="40.072842" lon="-105.230575">
  <ele>1586.09</ele>
  <time>2026-08-27T18:31:07Z</time>
  <course>315.0</course>
  <speed>0.0</speed>
  <fix>3d</fix>
</trkpt>
<trkpt lat="40.0728419" lon="-105.2305749">
  <ele>1586.17</ele>
  <time>2026-08-27T18:31:07Z</time>
  <course>11.19</course>
  <speed>0.01414213562373095</speed>
  <fix>3d</fix>
</trkpt>
<trkpt lat="40.0728419" lon="-105.2305749">
  <ele>1586.19</ele>
  <time>2026-08-27T18:31:07Z</time>
  <course>11.19</course>
  <speed>0.01414213562373095</speed>
  <fix>3d</fix>
</trkpt>
<trkpt lat="40.072842" lon="-105.230575">
  <ele>1586.09</ele>
  <time>2026-08-27T18:31:07Z</time>
  <course>315.02</course>
  <speed>0.0</speed>
  <fix>3d</fix>
</trkpt>
<trkpt lat="40.0728419" lon="-105.2305749">
  <ele>1586.19</ele>
  <time>2026-08-27T18:31:07Z</time>
  <course>11.19</course>
  <speed>0.01414213562373095</speed>
  <fix>3d</fix>
</trkpt>
<trkpt lat="40.0728419" lon="-105.2305749">
  <ele>1586.23</ele>
  <time>2026-08-27T18:31:07Z</time>
  <course>11.19</course>
  <speed>0.01414213562373095</speed>
  <fix>3d</fix>
</trkpt>
<trkpt lat="40.072842" lon="-105.230575">
  <ele>1586.12</ele>
  <time>2026-08-27T18:31:07Z</time>
  <course>314.83</course>
  <speed>0.0</speed>
  <fix>3d</fix>
</trkpt>
<trkpt lat="40.0728419" lon="-105.2305749">
  <ele>1586.24</ele>
  <time>2026-08-27T18:31:07Z</time>
  <course>11.19</course>
  <speed>0.01414213562373095</speed>
  <fix>3d</fix>
</trkpt>
<trkpt lat="40.0728419" lon="-105.2305749">
  <ele>1586.29</ele>
  <time>2026-08-27T18:31:07Z</time>
  <course>11.19</course>
  <speed>0.01414213562373095</speed>
  <fix>3d</fix>
</trkpt>
<trkpt lat="40.072842" lon="-105.230575">
  <ele>1586.16</ele>
  <time>2026-08-27T18:31:07Z</time>
  <course>315.17</course>
  <speed>0.0</speed>
  <fix>3d</fix>
</trkpt>
<trkpt lat="40.0728419" lon="-105.2305749">
  <ele>1586.31</ele>
  <time>2026-08-27T18:31:07Z</time>
  <course>11.19</course>
  <speed>0.01414213562373095</speed>
  <fix>3d</fix>
</trkpt>
<trkpt lat="40.0728419" lon="-105.2305749">
  <ele>1586.46</ele>
  <time>2026-08-27T18:31:07Z</time>
  <course>11.23</course>
  <speed>0.01</speed>
  <fix>3d</fix>
</trkpt>
<trkpt lat="40.072842" lon="-105.230575">
  <ele>1586.26</ele>
  <time>2026-08-27T18:31:07Z</time>
  <course>315.76</course>
  <speed>0.0</speed>
  <fix>3d</fix>
</trkpt>
<trkpt lat="40.0728419" lon="-105.2305749">
  <ele>1586.5</ele>
  <time>2026-08-27T18:31:07Z</time>
  <course>11.25</course>
  <speed>0.01</speed>
  <fix>3d</fix>
</trkpt>
<trkpt lat="40.0728419" lon="-105.2305749">
  <ele>1586.67</ele>
  <time>2026-08-27T18:31:07Z</time>
  <course>11.3</course>
  <speed>0.0</speed>
  <fix>3d</fix>
</trkpt>
<trkpt lat="40.072842" lon="-105.230575">
  <ele>1586.43</ele>
  <time>2026-08-27T18:31:07Z</time>
  <course>315.04</course>
  <speed>0.01</speed>
  <fix>3d</fix>
</trkpt>
<trkpt lat="40.0728419" lon="-105.2305749">
  <ele>1586.71</ele>
  <time>2026-08-27T18:31:07Z</time>
  <course>11.31</course>
  <speed>0.0</speed>
  <fix>3d</fix>
</trkpt>
<trkpt lat="40.0728419" lon="-105.2305749">
  <ele>1586.88</ele>
  <time>2026-08-27T18:31:07Z</time>
  <course>11.35</course>
  <speed>0.0</speed>
  <fix>3d</fix>
</trkpt>
<trkpt lat="40.072842" lon="-105.230575">
  <ele>1586.65</ele>
  <time>2026-08-27T18:31:07Z</time>
  <course>314.89</course>
  <speed>0.01</speed>
  <fix>3d</fix>
</trkpt>
<trkpt lat="40.0728419" lon="-105.2305749">
  <ele>1586.93</ele>
  <time>2026-08-27T18:31:07Z</time>
  <course>11.35</course>
  <speed>0.0</speed>
  <fix>3d</fix>
</trkpt>
<trkpt lat="40.0728419" lon="-105.2305749">
  <ele>1587.13</ele>
  <time>2026-08-27T18:31:07Z</time>
  <course>11.37</course>
  <speed>0.0</speed>
  <fix>3d</fix>
</trkpt>
<trkpt lat="40.072842" lon="-105.230575">
  <ele>1586.86</ele>
  <time>2026-08-27T18:31:07Z</time>
  <course>314.97</course>
  <speed>0.01</speed>
  <fix>3d</fix>
</trkpt>
<trkpt lat="40.0728419" lon="-105.2305749">
  <ele>1587.18</ele>
  <time>2026-08-27T18:31:07Z</time>
  <course>11.37</course>
  <speed>0.0</speed>
  <fix>3d</fix>
</trkpt>
<trkpt lat="40.0728419" lon="-105.2305749">
  <ele>1587.41</ele>
  <time>2026-08-27T18:31:07Z</time>
  <course>11.38</course>
  <speed>0.0</speed>
  <fix>3d</fix>
</trkpt>
<trkpt lat="40.072842" lon="-105.230575">
  <ele>1587.1</ele>
  <time>2026-08-27T18:31:07Z</time>
  <course>315.33</course>
  <speed>0.02</speed>
  <fix>3d</fix>
</trkpt>
<trkpt lat="40.0728419" lon="-105.2305749">
  <ele>1587.47</ele>
  <time>2026-08-27T18:31:07Z</time>
  <course>11.38</course>
  <speed>0.0</speed>
  <fix>3d</fix>
</trkpt>
<trkpt lat="40.0728419" lon="-105.2305749">
  <ele>1587.74</ele>
  <time>2026-08-27T18:31:07Z</time>
  <course>11.37</course>
  <speed>0.0</speed>
  <fix>3d</fix>
</trkpt>
<trkpt lat="40.072842" lon="-105.2305751">
  <ele>1587.39</ele>
  <time>2026-08-27T18:31:07Z</time>
  <course>315.65</course>
  <speed>0.02</speed>
  <fix>3d</fix>
</trkpt>
<trkpt lat="40.0728419" lon="-105.230575">
  <ele>1587.81</ele>
  <time>2026-08-27T18:31:07Z</time>
  <course>11.37</course>
  <speed>0.0</speed>
  <fix>3d</fix>
</trkpt>
<trkpt lat="40.0728419" lon="-105.230575">
  <ele>1588.11</ele>
  <time>2026-08-27T18:31:07Z</time>
  <course>11.37</course>
  <speed>0.0</speed>
  <fix>3d</fix>
</trkpt>
<trkpt lat="40.072842" lon="-105.2305751">
  <ele>1587.73</ele>
  <time>2026-08-27T18:31:07Z</time>
  <course>316.37</course>
  <speed>0.02</speed>
  <fix>3d</fix>
</trkpt>
<trkpt lat="40.0728419" lon="-105.230575">
  <ele>1588.19</ele>
  <time>2026-08-27T18:31:07Z</time>
  <course>11.37</course>
  <speed>0.0</speed>
  <fix>3d</fix>
</trkpt>
<trkpt lat="40.072842" lon="-105.230575">
  <ele>1588.52</ele>
  <time>2026-08-27T18:31:07Z</time>
  <course>11.36</course>
  <speed>0.0</speed>
  <fix>3d</fix>
</trkpt>
<trkpt lat="40.072842" lon="-105.2305751">
  <ele>1588.11</ele>
  <time>2026-08-27T18:31:07Z</time>
  <course>318.49</course>
  <speed>0.01</speed>
  <fix>3d</fix>
</trkpt>
<trkpt lat="40.072842" lon="-105.230575">
  <ele>1588.61</ele>
  <time>2026-08-27T18:31:07Z</time>
  <course>11.36</course>
  <speed>0.0</speed>
  <fix>3d</fix>
</trkpt>
<trkpt lat="40.072842" lon="-105.230575">
  <ele>1588.98</ele>
  <time>2026-08-27T18:31:07Z</time>
  <course>9.99</course>
  <speed>0.01</speed>
  <fix>3d</fix>
</trkpt>
<trkpt lat="40.072842" lon="-105.2305751">
  <ele>1588.52</ele>
  <time>2026-08-27T18:31:07Z</time>
  <course>322.83</course>
  <speed>0.01</speed>
  <fix>3d</fix>
</trkpt>
<trkpt lat="40.072842" lon="-105.230575">
  <ele>1589.08</ele>
  <time>2026-08-27T18:31:07Z</time>
  <course>9.99</course>
  <speed>0.01</speed>
  <fix>3d</fix>
</trkpt>
<trkpt lat="40.072842" lon="-105.230575">
  <ele>1589.47</ele>
  <time>2026-08-27T18:31:07Z</time>
  <course>10.02</course>
  <speed>0.01</speed>
  <fix>3d</fix>
</trkpt>
<trkpt lat="40.0728421" lon="-105.2305751">
  <ele>1588.98</ele>
  <time>2026-08-27T18:31:07Z</time>
  <course>328.27</course>
  <speed>0.01</speed>
  <fix>3d</fix>
</trkpt>
<trkpt lat="40.072842" lon="-105.230575">
  <ele>1589.56</ele>
  <time>2026-08-27T18:31:07Z</time>
  <course>10.02</course>
  <speed>0.01</speed>
  <fix>3d</fix>
</trkpt>
<trkpt lat="40.072842" lon="-105.230575">
  <ele>1589.97</ele>
  <time>2026-08-27T18:31:07Z</time>
  <course>10.02</course>
  <speed>0.01414213562373095</speed>
  <fix>3d</fix>
</trkpt>
<trkpt lat="40.0728421" lon="-105.2305751">
  <ele>1589.46</ele>
  <time>2026-08-27T18:31:07Z</time>
  <course>332.03</course>
  <speed>0.01</speed>
  <fix>3d</fix>
</trkpt>
<trkpt lat="40.072842" lon="-105.230575">
  <ele>1590.07</ele>
  <time>2026-08-27T18:31:07Z</time>
  <course>10.02</course>
  <speed>0.01414213562373095</speed>
  <fix>3d</fix>
</trkpt>
<trkpt lat="40.072842" lon="-105.230575">
  <ele>1590.47</ele>
  <time>2026-08-27T18:31:07Z</time>
  <course>10.01</course>
  <speed>0.01414213562373095</speed>
  <fix>3d</fix>
</trkpt>
<trkpt lat="40.0728421" lon="-105.2305751">
  <ele>1589.96</ele>
  <time>2026-08-27T18:31:07Z</time>
  <course>335.06</course>
  <speed>0.01</speed>
  <fix>3d</fix>
</trkpt>
<trkpt lat="40.072842" lon="-105.230575">
  <ele>1590.57</ele>
  <time>2026-08-27T18:31:07Z</time>
  <course>10.01</course>
  <speed>0.01414213562373095</speed>
  <fix>3d</fix>
</trkpt>
<trkpt lat="40.072842" lon="-105.230575">
  <ele>1590.97</ele>
  <time>2026-08-27T18:31:07Z</time>
  <course>10.01</course>
  <speed>0.01414213562373095</speed>
  <fix>3d</fix>
</trkpt>
<trkpt lat="40.0728421" lon="-105.2305751">
  <ele>1590.46</ele>
  <time>2026-08-27T18:31:07Z</time>
  <course>338.23</course>
  <speed>0.0</speed>
  <fix>3d</fix>
</trkpt>
<trkpt lat="40.072842" lon="-105.230575">
  <ele>1591.07</ele>
  <time>2026-08-27T18:31:07Z</time>
  <course>10.0</course>
  <speed>0.01414213562373095</speed>
  <fix>3d</fix>
</trkpt>
<trkpt lat="40.072842" lon="-105.230575">
  <ele>1591.47</ele>
  <time>2026-08-27T18:31:07Z</time>
  <course>10.0</course>
  <speed>0.01414213562373095</speed>
  <fix>3d</fix>
</trkpt>
<trkpt lat="40.0728421" lon="-105.2305751">
  <ele>1590.95</ele>
  <time>2026-08-27T18:31:07Z</time>
  <course>342.75</course>
  <speed>0.0</speed>
  <fix>3d</fix>
</trkpt>
<trkpt lat="40.072842" lon="-105.230575">
  <ele>1591.57</ele>
  <time>2026-08-27T18:31:07Z</time>
  <course>10.0</course>
  <speed>0.01414213562373095</speed>
  <fix>3d</fix>
</trkpt>
<trkpt lat="40.072842" lon="-105.230575">
  <ele>1591.97</ele>
  <time>2026-08-27T18:31:07Z</time>
  <course>10.0</course>
  <speed>0.01414213562373095</speed>
  <fix>3d</fix>
</trkpt>
<trkpt lat="40.0728422" lon="-105.2305752">
  <ele>1591.45</ele>
  <time>2026-08-27T18:31:07Z</time>
  <course>349.17</course>
  <speed>0.0</speed>
  <fix>3d</fix>
</trkpt>
<trkpt lat="40.072842" lon="-105.230575">
  <ele>1592.07</ele>
  <time>2026-08-27T18:31:07Z</time>
  <course>10.0</course>
  <speed>0.01414213562373095</speed>
  <fix>3d</fix>
</trkpt>
<trkpt lat="40.072842" lon="-105.230575">
  <ele>1592.47</ele>
  <time>2026-08-27T18:31:07Z</time>
  <course>10.0</course>
  <speed>0.01414213562373095</speed>
  <fix>3d</fix>
</trkpt>
<trkpt lat="40.0728423" lon="-105.2305753">
  <ele>1591.94</ele>
  <time>2026-08-27T18:31:07Z</time>
  <course>0.88</course>
  <speed>0.0</speed>
  <fix>3d</fix>
</trkpt>
<trkpt lat="40.072842" lon="-105.230575">
  <ele>1592.57</ele>
  <time>2026-08-27T18:31:07Z</time>
  <course>10.0</course>
  <speed>0.01414213562373095</speed>
  <fix>3d</fix>
</trkpt>
<trkpt lat="40.072842" lon="-105.230575">
  <ele>1592.97</ele>
  <time>2026-08-27T18:31:07Z</time>
  <course>10.0</course>
  <speed>0.01414213562373095</speed>
  <fix>3d</fix>
</trkpt>
<trkpt lat="40.0728423" lon="-105.2305753">
  <ele>1592.43</ele>
  <time>2026-08-27T18:31:07Z</time>
  <course>33.7</course>
  <speed>0.0</speed>
  <fix>3d</fix>
</trkpt>
<trkpt lat="40.072842" lon="-105.230575">
  <ele>1593.07</ele>
  <time>2026-08-27T18:31:07Z</time>
  <course>10.0</course>
  <speed>0.01414213562373095</speed>
  <fix>3d</fix>
</trkpt>
<trkpt lat="40.072842" lon="-105.230575">
  <ele>1593.48</ele>
  <time>2026-08-27T18:31:07Z</time>
  <course>10.0</course>
  <speed>0.01414213562373095</speed>
  <fix>3d</fix>
</trkpt>
<trkpt lat="40.0728423" lon="-105.2305753">
  <ele>1592.92</ele>
  <time>2026-08-27T18:31:07Z</time>
  <course>89.69</course>
  <speed>0.0</speed>
  <fix>3d</fix>
</trkpt>
<trkpt lat="40.072842" lon="-105.230575">
  <ele>1593.58</ele>
  <time>2026-08-27T18:31:07Z</time>
  <course>10.0</course>
  <speed>0.01414213562373095</speed>
  <fix>3d</fix>
</trkpt>
<trkpt lat="40.072842" lon="-105.230575">
  <ele>1593.98</ele>
  <time>2026-08-27T18:31:07Z</time>
  <course>10.0</course>
  <speed>0.01414213562373095</speed>
  <fix>3d</fix>
</trkpt>
<trkpt lat="40.0728423" lon="-105.2305753">
  <ele>1593.42</ele>
  <time>2026-08-27T18:31:07Z</time>
  <course>114.05</course>
  <speed>0.0</speed>
  <fix>3d</fix>
</trkpt>
<trkpt lat="40.072842" lon="-105.230575">
  <ele>1594.08</ele>
  <time>2026-08-27T18:31:07Z</time>
  <course>10.0</course>
  <speed>0.01414213562373095</speed>
  <fix>3d</fix>
</trkpt>
<trkpt lat="40.072842" lon="-105.230575">
  <ele>1594.47</ele>
  <time>2026-08-27T18:31:07Z</time>
  <course>10.0</course>
  <speed>0.022360679774997897</speed>
  <fix>3d</fix>
</trkpt>
<trkpt lat="40.0728422" lon="-105.2305753">
  <ele>1593.91</ele>
  <time>2026-08-27T18:31:07Z</time>
  <course>123.42</course>
  <speed>0.01</speed>
  <fix>3d</fix>
</trkpt>
<trkpt lat="40.072842" lon="-105.230575">
  <ele>1594.57</ele>
  <time>2026-08-27T18:31:07Z</time>
  <course>10.0</course>
  <speed>0.022360679774997897</speed>
  <fix>3d</fix>
</trkpt>
<trkpt lat="40.072842" lon="-105.230575">
  <ele>1594.96</ele>
  <time>2026-08-27T18:31:07Z</time>
  <course>10.0</course>
  <speed>0.022360679774997897</speed>
  <fix>3d</fix>
</trkpt>
<trkpt lat="40.0728421" lon="-105.2305753">
  <ele>1594.4</ele>
  <time>2026-08-27T18:31:07Z</time>
  <course>128.82</course>
  <speed>0.01</speed>
  <fix>3d</fix>
</trkpt>
<trkpt lat="40.072842" lon="-105.230575">
  <ele>1595.05</ele>
  <time>2026-08-27T18:31:07Z</time>
  <course>10.0</course>
  <speed>0.022360679774997897</speed>
  <fix>3d</fix>
</trkpt>
<trkpt lat="40.072842" lon="-105.230575">
  <ele>1595.45</ele>
  <time>2026-08-27T18:31:07Z</time>
  <course>10.01</course>
  <speed>0.022360679774997897</speed>
  <fix>3d</fix>
</trkpt>
<trkpt lat="40.0728421" lon="-105.2305752">
  <ele>1594.89</ele>
  <time>2026-08-27T18:31:07Z</time>
  <course>132.84</course>
  <speed>0.02</speed>
  <fix>3d</fix>
</trkpt>
<trkpt lat="40.072842" lon="-105.230575">
  <ele>1595.55</ele>
  <time>2026-08-27T18:31:07Z</time>
  <course>10.01</course>
  <speed>0.022360679774997897</speed>
  <fix>3d</fix>
</trkpt>
<trkpt lat="40.072842" lon="-105.230575">
  <ele>1595.95</ele>
  <time>2026-08-27T18:31:07Z</time>
  <course>10.01</course>
  <speed>0.022360679774997897</speed>
  <fix>3d</fix>
</trkpt>
<trkpt lat="40.0728421" lon="-105.2305751">
  <ele>1595.39</ele>
  <time>2026-08-27T18:31:07Z</time>
  <course>134.14</course>
  <speed>0.02</speed>
  <fix>3d</fix>
</trkpt>
<trkpt lat="40.072842" lon="-105.230575">
  <ele>1596.05</ele>
  <time>2026-08-27T18:31:07Z</time>
  <course>10.01</course>
  <speed>0.022360679774997897</speed>
  <fix>3d</fix>
</trkpt>
<trkpt lat="40.072842" lon="-105.230575">
  <ele>1596.44</ele>
  <time>2026-08-27T18:31:07Z</time>
  <course>10.01</course>
  <speed>0.022360679774997897</speed>
  <fix>3d</fix>
</trkpt>
<trkpt lat="40.0728421" lon="-105.2305751">
  <ele>1595.88</ele>
  <time>2026-08-27T18:31:07Z</time>
  <course>133.75</course>
  <speed>0.02</speed>
  <fix>3d</fix>
</trkpt>
<trkpt lat="40.072842" lon="-105.230575">
  <ele>1596.54</ele>
  <time>2026-08-27T18:31:07Z</time>
  <course>10.01</course>
  <speed>0.022360679774997897</speed>
  <fix>3d</fix>
</trkpt>
<trkpt lat="40.072842" lon="-105.230575">
  <ele>1596.94</ele>
  <time>2026-08-27T18:31:07Z</time>
  <course>10.01</course>
  <speed>0.022360679774997897</speed>
  <fix>3d</fix>
</trkpt>
<trkpt lat="40.0728421" lon="-105.2305751">
  <ele>1596.38</ele>
  <time>2026-08-27T18:31:07Z</time>
  <course>134.24</course>
  <speed>0.02</speed>
  <fix>3d</fix>
</trkpt>
<trkpt lat="40.072842" lon="-105.230575">
  <ele>1597.03</ele>
  <time>2026-08-27T18:31:07Z</time>
  <course>10.01</course>
  <speed>0.022360679774997897</speed>
  <fix>3d</fix>
</trkpt>
<trkpt lat="40.072842" lon="-105.230575">
  <ele>1597.44</ele>
  <time>2026-08-27T18:31:07Z</time>
  <course>10.01</course>
  <speed>0.022360679774997897</speed>
  <fix>3d</fix>
</trkpt>
<trkpt lat="40.0728421" lon="-105.2305751">
  <ele>1596.88</ele>
  <time>2026-08-27T18:31:07Z</time>
  <course>135.15</course>
  <speed>0.02</speed>
  <fix>3d</fix>
</trkpt>
<trkpt lat="40.072842" lon="-105.230575">
  <ele>1597.53</ele>
  <time>2026-08-27T18:31:07Z</time>
  <course>10.01</course>
  <speed>0.022360679774997897</speed>
  <fix>3d</fix>
</trkpt>
<trkpt lat="40.072842" lon="-105.230575">
  <ele>1597.94</ele>
  <time>2026-08-27T18:31:07Z</time>
  <course>10.01</course>
  <speed>0.022360679774997897</speed>
  <fix>3d</fix>
</trkpt>
<trkpt lat="40.0728421" lon="-105.230575">
  <ele>1597.37</ele>
  <time>2026-08-27T18:31:07Z</time>
  <course>135.61</course>
  <speed>0.02</speed>
  <fix>3d</fix>
</trkpt>
<trkpt lat="40.072842" lon="-105.230575">
  <ele>1598.04</ele>
  <time>2026-08-27T18:31:07Z</time>
  <course>10.01</course>
  <speed>0.022360679774997897</speed>
  <fix>3d</fix>
</trkpt>
<trkpt lat="40.072842" lon="-105.2305749">
  <ele>1598.43</ele>
  <time>2026-08-27T18:31:07Z</time>
  <course>10.01</course>
  <speed>0.022360679774997897</speed>
  <fix>3d</fix>
</trkpt>
<trkpt lat="40.072842" lon="-105.230575">
  <ele>1597.87</ele>
  <time>2026-08-27T18:31:07Z</time>
  <course>137.13</course>
  <speed>0.02</speed>
  <fix>3d</fix>
</trkpt>
<trkpt lat="40.072842" lon="-105.2305749">
  <ele>1598.53</ele>
  <time>2026-08-27T18:31:07Z</time>
  <course>10.01</course>
  <speed>0.022360679774997897</speed>
  <fix>3d</fix>
</trkpt>
<trkpt lat="40.0728419" lon="-105.2305749">
  <ele>1598.93</ele>
  <time>2026-08-27T18:31:07Z</time>
  <course>10.0</course>
  <speed>0.022360679774997897</speed>
  <fix>3d</fix>
</trkpt>
<trkpt lat="40.072842" lon="-105.2305749">
  <ele>1598.37</ele>
  <time>2026-08-27T18:31:07Z</time>
  <course>140.41</course>
  <speed>0.02</speed>
  <fix>3d</fix>
</trkpt>
<trkpt lat="40.0728419" lon="-105.2305749">
  <ele>1599.02</ele>
  <time>2026-08-27T18:31:07Z</time>
  <course>10.0</course>
  <speed>0.022360679774997897</speed>
  <fix>3d</fix>
</trkpt>
<trkpt lat="40.0728419" lon="-105.2305749">
  <ele>1599.43</ele>
  <time>2026-08-27T18:31:07Z</time>
  <course>10.0</course>
  <speed>0.022360679774997897</speed>
  <fix>3d</fix>
</trkpt>
<trkpt lat="40.072842" lon="-105.2305748">
  <ele>1598.87</ele>
  <time>2026-08-27T18:31:07Z</time>
  <course>143.94</course>
  <speed>0.02</speed>
  <fix>3d</fix>
</trkpt>
<trkpt lat="40.0728419" lon="-105.2305749">
  <ele>1599.52</ele>
  <time>2026-08-27T18:31:07Z</time>
  <course>10.0</course>
  <speed>0.01414213562373095</speed>
  <fix>3d</fix>
</trkpt>
<trkpt lat="40.0728419" lon="-105.2305749">
  <ele>1599.93</ele>
  <time>2026-08-27T18:31:07Z</time>
  <course>10.0</course>
  <speed>0.01414213562373095</speed>
  <fix>3d</fix>
</trkpt>
<trkpt lat="40.072842" lon="-105.2305748">
  <ele>1599.37</ele>
  <time>2026-08-27T18:31:07Z</time>
  <course>147.92</course>
  <speed>0.02</speed>
  <fix>3d</fix>
</trkpt>
<trkpt lat="40.0728419" lon="-105.2305748">
  <ele>1600.02</ele>
  <time>2026-08-27T18:31:07Z</time>
  <course>10.0</course>
  <speed>0.01414213562373095</speed>
  <fix>3d</fix>
</trkpt>
<trkpt lat="40.0728419" lon="-105.2305748">
  <ele>1600.43</ele>
  <time>2026-08-27T18:31:07Z</time>
  <course>10.0</course>
  <speed>0.01414213562373095</speed>
  <fix>3d</fix>
</trkpt>
<trkpt lat="40.072842" lon="-105.2305748">
  <ele>1599.87</ele>
  <time>2026-08-27T18:31:07Z</time>
  <course>153.16</course>
  <speed>0.01</speed>
  <fix>3d</fix>
</trkpt>
<trkpt lat="40.0728419" lon="-105.2305748">
  <ele>1600.53</ele>
  <time>2026-08-27T18:31:07Z</time>
  <course>10.0</course>
  <speed>0.01414213562373095</speed>
  <fix>3d</fix>
</trkpt>
<trkpt lat="40.0728419" lon="-105.2305748">
  <ele>1600.94</ele>
  <time>2026-08-27T18:31:07Z</time>
  <course>10.0</course>
  <speed>0.01</speed>
  <fix>3d</fix>
</trkpt>
<trkpt lat="40.0728419" lon="-105.2305748">
  <ele>1600.37</ele>
  <time>2026-08-27T18:31:07Z</time>
  <course>160.51</course>
  <speed>0.01</speed>
  <fix>3d</fix>
</trkpt>
<trkpt lat="40.0728419" lon="-105.2305748">
  <ele>1601.03</ele>
  <time>2026-08-27T18:31:07Z</time>
  <course>10.0</course>
  <speed>0.01</speed>
  <fix>3d</fix>
</trkpt>
<trkpt lat="40.0728419" lon="-105.2305748">
  <ele>1601.44</ele>
  <time>2026-08-27T18:31:07Z</time>
  <course>10.01</course>
  <speed>0.01</speed>
  <fix>3d</fix>
</trkpt>
<trkpt lat="40.0728419" lon="-105.2305748">
  <ele>1600.88</ele>
  <time>2026-08-27T18:31:07Z</time>
  <course>170.37</course>
  <speed>0.01</speed>
  <fix>3d</fix>
</trkpt>
<trkpt lat="40.0728419" lon="-105.2305748">
  <ele>1601.54</ele>
  <time>2026-08-27T18:31:07Z</time>
  <course>10.01</course>
  <speed>0.01</speed>
  <fix>3d</fix>
</trkpt>
<trkpt lat="40.0728418" lon="-105.2305748">
  <ele>1601.94</ele>
  <time>2026-08-27T18:31:07Z</time>
  <course>10.01</course>
  <speed>0.01</speed>
  <fix>3d</fix>
</trkpt>
<trkpt lat="40.0728419" lon="-105.2305748">
  <ele>1601.38</ele>
  <time>2026-08-27T18:31:07Z</time>
  <course>181.59</course>
  <speed>0.01</speed>
  <fix>3d</fix>
</trkpt>
<trkpt lat="40.0728418" lon="-105.2305748">
  <ele>1602.04</ele>
  <time>2026-08-27T18:31:07Z</time>
  <course>10.01</course>
  <speed>0.01</speed>
  <fix>3d</fix>
</trkpt>
<trkpt lat="40.0728418" lon="-105.2305748">
  <ele>1602.44</ele>
  <time>2026-08-27T18:31:07Z</time>
  <course>10.01</course>
  <speed>0.01</speed>
  <fix>3d</fix>
</trkpt>
<trkpt lat="40.0728419" lon="-105.2305748">
  <ele>1601.88</ele>
  <time>2026-08-27T18:31:07Z</time>
  <course>194.73</course>
  <speed>0.01</speed>
  <fix>3d</fix>
</trkpt>
<trkpt lat="40.0728418" lon="-105.2305748">
  <ele>1602.54</ele>
  <time>2026-08-27T18:31:07Z</time>
  <course>10.01</course>
  <speed>0.01</speed>
  <fix>3d</fix>
</trkpt>
<trkpt lat="40.0728418" lon="-105.2305748">
  <ele>1602.94</ele>
  <time>2026-08-27T18:31:07Z</time>
  <course>10.0</course>
  <speed>0.01</speed>
  <fix>3d</fix>
</trkpt>
<trkpt lat="40.0728419" lon="-105.2305748">
  <ele>1602.37</ele>
  <time>2026-08-27T18:31:07Z</time>
  <course>211.88</course>
  <speed>0.01</speed>
  <fix>3d</fix>
</trkpt>
<trkpt lat="40.0728418" lon="-105.2305748">
  <ele>1603.03</ele>
  <time>2026-08-27T18:31:07Z</time>
  <course>10.0</course>
  <speed>0.0</speed>
  <fix>3d</fix>
</trkpt>
<trkpt lat="40.0728418" lon="-105.2305748">
  <ele>1603.42</ele>
  <time>2026-08-27T18:31:07Z</time>
  <course>10.0</course>
  <speed>0.0</speed>
  <fix>3d</fix>
</trkpt>
<trkpt lat="40.0728418" lon="-105.2305748">
  <ele>1602.86</ele>
  <time>2026-08-27T18:31:07Z</time>
  <course>228.54</course>
  <speed>0.01</speed>
  <fix>3d</fix>
</trkpt>
<trkpt lat="40.0728418" lon="-105.2305748">
  <ele>1603.5</ele>
  <time>2026-08-27T18:31:07Z</time>
  <course>10.0</course>
  <speed>0.0</speed>
  <fix>3d</fix>
</trkpt>
<trkpt lat="40.0728418" lon="-105.2305748">
  <ele>1603.87</ele>
  <time>2026-08-27T18:31:07Z</time>
  <course>10.0</course>
  <speed>0.0</speed>
  <fix>3d</fix>
</trkpt>
<trkpt lat="40.0728418" lon="-105.2305748">
  <ele>1603.34</ele>
  <time>2026-08-27T18:31:07Z</time>
  <course>242.78</course>
  <speed>0.01</speed>
  <fix>3d</fix>
</trkpt>
<trkpt lat="40.0728418" lon="-105.2305748">
  <ele>1603.96</ele>
  <time>2026-08-27T18:31:07Z</time>
  <course>10.0</course>
  <speed>0.0</speed>
  <fix>3d</fix>
</trkpt>
<trkpt lat="40.0728418" lon="-105.2305748">
  <ele>1604.28</ele>
  <time>2026-08-27T18:31:07Z</time>
  <course>10.0</course>
  <speed>0.0</speed>
  <fix>3d</fix>
</trkpt>
<trkpt lat="40.0728418" lon="-105.2305748">
  <ele>1603.78</ele>
  <time>2026-08-27T18:31:07Z</time>
  <course>256.09</course>
  <speed>0.01</speed>
  <fix>3d</fix>
</trkpt>
<trkpt lat="40.0728418" lon="-105.2305748">
  <ele>1604.35</ele>
  <time>2026-08-27T18:31:07Z</time>
  <course>10.0</course>
  <speed>0.0</speed>
  <fix>3d</fix>
</trkpt>
<trkpt lat="40.0728418" lon="-105.2305748">
  <ele>1604.65</ele>
  <time>2026-08-27T18:31:07Z</time>
  <course>10.0</course>
  <speed>0.0</speed>
  <fix>3d</fix>
</trkpt>
<trkpt lat="40.0728418" lon="-105.2305748">
  <ele>1604.17</ele>
  <time>2026-08-27T18:31:07Z</time>
  <course>267.35</course>
  <speed>0.01</speed>
  <fix>3d</fix>
</trkpt>
<trkpt lat="40.0728418" lon="-105.2305748">
  <ele>1604.72</ele>
  <time>2026-08-27T18:31:07Z</time>
  <course>10.0</course>
  <speed>0.0</speed>
  <fix>3d</fix>
</trkpt>
<trkpt lat="40.0728418" lon="-105.2305748">
  <ele>1604.98</ele>
  <time>2026-08-27T18:31:07Z</time>
  <course>10.0</course>
  <speed>0.0</speed>
  <fix>3d</fix>
</trkpt>
<trkpt lat="40.0728418" lon="-105.2305748">
  <ele>1604.54</ele>
  <time>2026-08-27T18:31:07Z</time>
  <course>275.92</course>
  <speed>0.01</speed>
  <fix>3d</fix>
</trkpt>
<trkpt lat="40.0728418" lon="-105.2305748">
  <ele>1605.04</ele>
  <time>2026-08-27T18:31:07Z</time>
  <course>10.0</course>
  <speed>0.0</speed>
  <fix>3d</fix>
</trkpt>
<trkpt lat="40.0728418" lon="-105.2305748">
  <ele>1605.27</ele>
  <time>2026-08-27T18:31:07Z</time>
  <course>10.0</course>
  <speed>0.0</speed>
  <fix>3d</fix>
</trkpt>
<trkpt lat="40.0728418" lon="-105.2305748">
  <ele>1604.85</ele>
  <time>2026-08-27T18:31:07Z</time>
  <course>284.34</course>
  <speed>0.01</speed>
  <fix>3d</fix>
</trkpt>
<trkpt lat="40.0728418" lon="-105.2305748">
  <ele>1605.32</ele>
  <time>2026-08-27T18:31:07Z</time>
  <course>10.0</course>
  <speed>0.0</speed>
  <fix>3d</fix>
</trkpt>
<trkpt lat="40.0728418" lon="-105.2305748">
  <ele>1605.51</ele>
  <time>2026-08-27T18:31:07Z</time>
  <course>10.0</course>
  <speed>0.0</speed>
  <fix>3d</fix>
</trkpt>
<trkpt lat="40.0728418" lon="-105.2305749">
  <ele>1605.13</ele>
  <time>2026-08-27T18:31:07Z</time>
  <course>290.58</course>
  <speed>0.01</speed>
  <fix>3d</fix>
</trkpt>
<trkpt lat="40.0728418" lon="-105.2305748">
  <ele>1605.72</ele>
  <time>2026-08-27T18:31:07Z</time>
  <course>10.0</course>
  <speed>0.0</speed>
  <fix>3d</fix>
</trkpt>
<trkpt lat="40.0728418" lon="-105.230575">
  <ele>1605.36</ele>
  <time>2026-08-27T18:31:07Z</time>
  <course>296.02</course>
  <speed>0.01</speed>
  <fix>3d</fix>
</trkpt>
<trkpt lat="40.0728418" lon="-105.2305748">
  <ele>1605.75</ele>
  <time>2026-08-27T18:31:07Z</time>
  <course>10.0</course>
  <speed>0.0</speed>
  <fix>3d</fix>
</trkpt>
<trkpt lat="40.0728418" lon="-105.2305749">
  <ele>1605.87</ele>
  <time>2026-08-27T18:31:07Z</time>
  <course>10.0</course>
  <speed>0.0</speed>
  <fix>3d</fix>
</trkpt>
<trkpt lat="40.0728418" lon="-105.230575">
  <ele>1605.55</ele>
  <time>2026-08-27T18:31:07Z</time>
  <course>300.13</course>
  <speed>0.01</speed>
  <fix>3d</fix>
</trkpt>
<trkpt lat="40.0728418" lon="-105.2305749">
  <ele>1606.0</ele>
  <time>2026-08-27T18:31:07Z</time>
  <course>9.99</course>
  <speed>0.0</speed>
  <fix>3d</fix>
</trkpt>
<trkpt lat="40.0728418" lon="-105.230575">
  <ele>1605.7</ele>
  <time>2026-08-27T18:31:07Z</time>
  <course>304.14</course>
  <speed>0.01</speed>
  <fix>3d</fix>
</trkpt>
<trkpt lat="40.0728418" lon="-105.2305749">
  <ele>1606.08</ele>
  <time>2026-08-27T18:31:07Z</time>
  <course>9.99</course>
  <speed>0.0</speed>
  <fix>3d</fix>
</trkpt>
<trkpt lat="40.0728418" lon="-105.2305751">
  <ele>1605.82</ele>
  <time>2026-08-27T18:31:07Z</time>
  <course>309.56</course>
  <speed>0.01</speed>
  <fix>3d</fix>
</trkpt>
<trkpt lat="40.0728418" lon="-105.2305749">
  <ele>1606.12</ele>
  <time>2026-08-27T18:31:07Z</time>
  <course>9.99</course>
  <speed>0.0</speed>
  <fix>3d</fix>
</trkpt>
<trkpt lat="40.0728418" lon="-105.2305751">
  <ele>1605.89</ele>
  <time>2026-08-27T18:31:07Z</time>
  <course>314.75</course>
  <speed>0.01</speed>
  <fix>3d</fix>
</trkpt>
<trkpt lat="40.0728418" lon="-105.230575">
  <ele>1606.12</ele>
  <time>2026-08-27T18:31:07Z</time>
  <course>9.99</course>
  <speed>0.0</speed>
  <fix>3d</fix>
</trkpt>
<trkpt lat="40.0728418" lon="-105.2305751">
  <ele>1605.92</ele>
  <time>2026-08-27T18:31:07Z</time>
  <course>319.98</course>
  <speed>0.02</speed>
  <fix>3d</fix>
</trkpt>
<trkpt lat="40.0728418" lon="-105.230575">
  <ele>1606.13</ele>
  <time>2026-08-27T18:31:07Z</time>
  <course>9.99</course>
  <speed>0.0</speed>
  <fix>3d</fix>
</trkpt>
<trkpt lat="40.0728419" lon="-105.2305751">
  <ele>1605.94</ele>
  <time>2026-08-27T18:31:07Z</time>
  <course>325.39</course>
  <speed>0.02</speed>
  <fix>3d</fix>
</trkpt>
<trkpt lat="40.0728418" lon="-105.230575">
  <ele>1606.12</ele>
  <time>2026-08-27T18:31:07Z</time>
  <course>9.99</course>
  <speed>0.0</speed>
  <fix>3d</fix>
</trkpt>
<trkpt lat="40.0728419" lon="-105.2305751">
  <ele>1605.95</ele>
  <time>2026-08-27T18:31:07Z</time>
  <course>327.89</course>
  <speed>0.02</speed>
  <fix>3d</fix>
</trkpt>
<trkpt lat="40.0728418" lon="-105.230575">
  <ele>1606.12</ele>
  <time>2026-08-27T18:31:07Z</time>
  <course>9.99</course>
  <speed>0.0</speed>
  <fix>3d</fix>
</trkpt>
<trkpt lat="40.0728419" lon="-105.2305752">
  <ele>1605.95</ele>
  <time>2026-08-27T18:31:07Z</time>
  <course>326.37</course>
  <speed>0.02</speed>
  <fix>3d</fix>
</trkpt>
<trkpt lat="40.0728419" lon="-105.2305751">
  <ele>1606.12</ele>
  <time>2026-08-27T18:31:07Z</time>
  <course>9.99</course>
  <speed>0.0</speed>
  <fix>3d</fix>
</trkpt>
<trkpt lat="40.072842" lon="-105.2305753">
  <ele>1605.95</ele>
  <time>2026-08-27T18:31:07Z</time>
  <course>324.11</course>
  <speed>0.03</speed>
  <fix>3d</fix>
</trkpt>
<trkpt lat="40.0728419" lon="-105.2305751">
  <ele>1606.13</ele>
  <time>2026-08-27T18:31:07Z</time>
  <course>9.99</course>
  <speed>0.0</speed>
  <fix>3d</fix>
</trkpt>
<trkpt lat="40.072842" lon="-105.2305753">
  <ele>1605.95</ele>
  <time>2026-08-27T18:31:07Z</time>
  <course>322.34</course>
  <speed>0.03</speed>
  <fix>3d</fix>
</trkpt>
<trkpt lat="40.072842" lon="-105.2305752">
  <ele>1606.13</ele>
  <time>2026-08-27T18:31:07Z</time>
  <course>9.99</course>
  <speed>0.0</speed>
  <fix>3d</fix>
</trkpt>
<trkpt lat="40.072842" lon="-105.2305753">
  <ele>1605.96</ele>
  <time>2026-08-27T18:31:07Z</time>
  <course>320.83</course>
  <speed>0.04</speed>
  <fix>3d</fix>
</trkpt>
<trkpt lat="40.072842" lon="-105.2305752">
  <ele>1606.13</ele>
  <time>2026-08-27T18:31:07Z</time>
  <course>9.99</course>
  <speed>0.01</speed>
  <fix>3d</fix>
</trkpt>
<trkpt lat="40.072842" lon="-105.2305752">
  <ele>1606.12</ele>
  <time>2026-08-27T18:31:07Z</time>
  <course>9.99</course>
  <speed>0.01</speed>
  <fix>3d</fix>
</trkpt>
<trkpt lat="40.0728421" lon="-105.2305754">
  <ele>1605.97</ele>
  <time>2026-08-27T18:31:07Z</time>
  <course>319.48</course>
  <speed>0.04</speed>
  <fix>3d</fix>
</trkpt>
<trkpt lat="40.0728421" lon="-105.2305753">
  <ele>1606.12</ele>
  <time>2026-08-27T18:31:07Z</time>
  <course>10.0</course>
  <speed>0.01414213562373095</speed>
  <fix>3d</fix>
</trkpt>
<trkpt lat="40.0728422" lon="-105.2305755">
  <ele>1605.97</ele>
  <time>2026-08-27T18:31:07Z</time>
  <course>318.81</course>
  <speed>0.04</speed>
  <fix>3d</fix>
</trkpt>
<trkpt lat="40.0728421" lon="-105.2305754">
  <ele>1606.13</ele>
  <time>2026-08-27T18:31:07Z</time>
  <course>10.0</course>
  <speed>0.01414213562373095</speed>
  <fix>3d</fix>
</trkpt>
<trkpt lat="40.0728423" lon="-105.2305756">
  <ele>1605.98</ele>
  <time>2026-08-27T18:31:07Z</time>
  <course>318.71</course>
  <speed>0.05</speed>
  <fix>3d</fix>
</trkpt>
<trkpt lat="40.0728422" lon="-105.2305755">
  <ele>1606.13</ele>
  <time>2026-08-27T18:31:07Z</time>
  <course>10.01</course>
  <speed>0.01414213562373095</speed>
  <fix>3d</fix>
</trkpt>
<trkpt lat="40.0728423" lon="-105.2305756">
  <ele>1605.99</ele>
  <time>2026-08-27T18:31:07Z</time>
  <course>318.77</course>
  <speed>0.05</speed>
  <fix>3d</fix>
</trkpt>
<trkpt lat="40.0728423" lon="-105.2305755">
  <ele>1606.14</ele>
  <time>2026-08-27T18:31:07Z</time>
  <course>10.0</course>
  <speed>0.022360679774997897</speed>
  <fix>3d</fix>
</trkpt>
<trkpt lat="40.0728424" lon="-105.2305757">
  <ele>1605.99</ele>
  <time>2026-08-27T18:31:07Z</time>
  <course>318.61</course>
  <speed>0.06</speed>
  <fix>3d</fix>
</trkpt>
<trkpt lat="40.0728423" lon="-105.2305756">
  <ele>1606.14</ele>
  <time>2026-08-27T18:31:08Z</time>
  <course>9.99</course>
  <speed>0.0282842712474619</speed>
  <fix>3d</fix>
</trkpt>
<trkpt lat="40.0728425" lon="-105.2305758">
  <ele>1606.0</ele>
  <time>2026-08-27T18:31:08Z</time>
  <course>318.42</course>
  <speed>0.06</speed>
  <fix>3d</fix>
</trkpt>
<trkpt lat="40.0728424" lon="-105.2305757">
  <ele>1606.14</ele>
  <time>2026-08-27T18:31:08Z</time>
  <course>9.99</course>
  <speed>0.0282842712474619</speed>
  <fix>3d</fix>
</trkpt>
<trkpt lat="40.0728426" lon="-105.2305759">
  <ele>1606.01</ele>
  <time>2026-08-27T18:31:08Z</time>
  <course>318.29</course>
  <speed>0.07</speed>
  <fix>3d</fix>
</trkpt>
<trkpt lat="40.0728425" lon="-105.2305759">
  <ele>1606.14</ele>
  <time>2026-08-27T18:31:08Z</time>
  <course>9.99</course>
  <speed>0.0282842712474619</speed>
  <fix>3d</fix>
</trkpt>
<trkpt lat="40.0728427" lon="-105.2305761">
  <ele>1606.01</ele>
  <time>2026-08-27T18:31:08Z</time>
  <course>318.12</course>
  <speed>0.07</speed>
  <fix>3d</fix>
</trkpt>
<trkpt lat="40.0728426" lon="-105.230576">
  <ele>1606.14</ele>
  <time>2026-08-27T18:31:08Z</time>
  <course>9.99</course>
  <speed>0.04242640687119285</speed>
  <fix>3d</fix>
</trkpt>
<trkpt lat="40.0728428" lon="-105.2305762">
  <ele>1606.02</ele>
  <time>2026-08-27T18:31:08Z</time>
  <course>317.88</course>
  <speed>0.07</speed>
  <fix>3d</fix>
</trkpt>
<trkpt lat="40.0728427" lon="-105.2305761">
  <ele>1606.15</ele>
  <time>2026-08-27T18:31:08Z</time>
  <course>9.99</course>
  <speed>0.04242640687119285</speed>
  <fix>3d</fix>
</trkpt>
<trkpt lat="40.0728429" lon="-105.2305763">
  <ele>1606.02</ele>
  <time>2026-08-27T18:31:08Z</time>
  <course>317.65</course>
  <speed>0.08</speed>
  <fix>3d</fix>
</trkpt>
<trkpt lat="40.0728428" lon="-105.2305762">
  <ele>1606.15</ele>
  <time>2026-08-27T18:31:08Z</time>
  <course>9.99</course>
  <speed>0.04242640687119285</speed>
  <fix>3d</fix>
</trkpt>
<trkpt lat="40.072843" lon="-105.2305764">
  <ele>1606.03</ele>
  <time>2026-08-27T18:31:08Z</time>
  <course>317.54</course>
  <speed>0.08</speed>
  <fix>3d</fix>
</trkpt>
<trkpt lat="40.072843" lon="-105.2305764">
  <ele>1606.15</ele>
  <time>2026-08-27T18:31:08Z</time>
  <course>9.99</course>
  <speed>0.03605551275463989</speed>
  <fix>3d</fix>
</trkpt>
<trkpt lat="40.0728431" lon="-105.2305766">
  <ele>1606.03</ele>
  <time>2026-08-27T18:31:08Z</time>
  <course>317.47</course>
  <speed>0.08</speed>
  <fix>3d</fix>
</trkpt>
<trkpt lat="40.072843" lon="-105.230576">
  <ele>1606.19</ele>
  <time>2026-08-27T18:31:08Z</time>
  <course>9.87</course>
  <speed>0.7454528824815153</speed>
  <fix>3d</fix>
</trkpt>
<trkpt lat="40.0728432" lon="-105.2305766">
  <ele>1606.05</ele>
  <time>2026-08-27T18:31:08Z</time>
  <course>68.73</course>
  <speed>0.18</speed>
  <fix>3d</fix>
</trkpt>
<trkpt lat="40.072843" lon="-105.230575">
  <ele>1606.0</ele>
  <time>2026-08-27T18:31:08Z</time>
  <course>8.88</course>
  <speed>0.1</speed>
  <fix>3d</fix>
</trkpt>
<trkpt lat="40.0728433" lon="-105.2305759">
  <ele>1606.02</ele>
  <time>2026-08-27T18:31:08Z</time>
  <course>76.12</course>
  <speed>0.28</speed>
  <fix>3d</fix>
</trkpt>
<trkpt lat="40.0728434" lon="-105.2305763">
  <ele>1605.49</ele>
  <time>2026-08-27T18:31:08Z</time>
  <course>7.69</course>
  <speed>0.6942621983083913</speed>
  <fix>3d</fix>
</trkpt>
<trkpt lat="40.0728435" lon="-105.2305757">
  <ele>1605.74</ele>
  <time>2026-08-27T18:31:08Z</time>
  <course>289.25</course>
  <speed>0.26</speed>
  <fix>3d</fix>
</trkpt>
<trkpt lat="40.0728436" lon="-105.2305772">
  <ele>1604.79</ele>
  <time>2026-08-27T18:31:08Z</time>
  <course>7.12</course>
  <speed>0.05830951894845301</speed>
  <fix>3d</fix>
</trkpt>
<trkpt lat="40.0728437" lon="-105.2305767">
  <ele>1605.18</ele>
  <time>2026-08-27T18:31:08Z</time>
  <course>284.12</course>
  <speed>0.51</speed>
  <fix>3d</fix>
</trkpt>
<trkpt lat="40.0728439" lon="-105.2305777">
  <ele>1603.89</ele>
  <time>2026-08-27T18:31:08Z</time>
  <course>10.65</course>
  <speed>1.0623088063270492</speed>
  <fix>3d</fix>
</trkpt>
<trkpt lat="40.0728439" lon="-105.2305775">
  <ele>1604.41</ele>
  <time>2026-08-27T18:31:08Z</time>
  <course>294.1</course>
  <speed>0.49</speed>
  <fix>3d</fix>
</trkpt>
<trkpt lat="40.0728446" lon="-105.2305805">
  <ele>1603.02</ele>
  <time>2026-08-27T18:31:08Z</time>
  <course>11.29</course>
  <speed>0.8316850365372699</speed>
  <fix>3d</fix>
</trkpt>
<trkpt lat="40.0728444" lon="-105.2305787">
  <ele>1603.53</ele>
  <time>2026-08-27T18:31:08Z</time>
  <course>291.51</course>
  <speed>0.88</speed>
  <fix>3d</fix>
</trkpt>
<trkpt lat="40.0728447" lon="-105.2305793">
  <ele>1602.31</ele>
  <time>2026-08-27T18:31:08Z</time>
  <course>10.66</course>
  <speed>2.3789913829183997</speed>
  <fix>3d</fix>
</trkpt>
<trkpt lat="40.0728449" lon="-105.2305802">
  <ele>1602.71</ele>
  <time>2026-08-27T18:31:08Z</time>
  <course>7.61</course>
  <speed>0.11</speed>
  <fix>3d</fix>
</trkpt>
<trkpt lat="40.0728436" lon="-105.2305686">
  <ele>1601.83</ele>
  <time>2026-08-27T18:31:08Z</time>
  <course>10.06</course>
  <speed>6.76009615316232</speed>
  <fix>3d</fix>
</trkpt>
<trkpt lat="40.0728445" lon="-105.2305763">
  <ele>1602.07</ele>
  <time>2026-08-27T18:31:08Z</time>
  <course>100.13</course>
  <speed>3.48</speed>
  <fix>3d</fix>
</trkpt>
<trkpt lat="40.0728432" lon="-105.2305655">
  <ele>1601.76</ele>
  <time>2026-08-27T18:31:08Z</time>
  <course>10.15</course>
  <speed>7.310827586532184</speed>
  <fix>3d</fix>
</trkpt>
<trkpt lat="40.0728412" lon="-105.2305513">
  <ele>1601.56</ele>
  <time>2026-08-27T18:31:08Z</time>
  <course>10.25</course>
  <speed>8.317367371951295</speed>
  <fix>3d</fix>
</trkpt>
<trkpt lat="40.0728427" lon="-105.2305638">
  <ele>1601.65</ele>
  <time>2026-08-27T18:31:08Z</time>
  <course>100.66</course>
  <speed>7.03</speed>
  <fix>3d</fix>
</trkpt>
<trkpt lat="40.0728386" lon="-105.2305334">
  <ele>1601.44</ele>
  <time>2026-08-27T18:31:08Z</time>
  <course>10.44</course>
  <speed>7.767213142434035</speed>
  <fix>3d</fix>
</trkpt>
<trkpt lat="40.0728402" lon="-105.2305459">
  <ele>1601.44</ele>
  <time>2026-08-27T18:31:08Z</time>
  <course>100.67</course>
  <speed>8.15</speed>
  <fix>3d</fix>
</trkpt>
<trkpt lat="40.072838" lon="-105.23053">
  <ele>1601.42</ele>
  <time>2026-08-27T18:31:08Z</time>
  <course>10.4</course>
  <speed>7.555249830415934</speed>
  <fix>3d</fix>
</trkpt>
<trkpt lat="40.0728361" lon="-105.2305171">
  <ele>1601.38</ele>
  <time>2026-08-27T18:31:08Z</time>
  <course>10.14</course>
  <speed>6.795947321749926</speed>
  <fix>3d</fix>
</trkpt>
<trkpt lat="40.0728375" lon="-105.2305275">
  <ele>1601.34</ele>
  <time>2026-08-27T18:31:08Z</time>
  <course>100.61</course>
  <speed>7.63</speed>
  <fix>3d</fix>
</trkpt>
<trkpt lat="40.0728339" lon="-105.2305023">
  <ele>1601.41</ele>
  <time>2026-08-27T18:31:08Z</time>
  <course>9.88</course>
  <speed>6.085827799075488</speed>
  <fix>3d</fix>
</trkpt>
<trkpt lat="40.0728351" lon="-105.2305108">
  <ele>1601.31</ele>
  <time>2026-08-27T18:31:08Z</time>
  <course>100.61</course>
  <speed>6.79</speed>
  <fix>3d</fix>
</trkpt>
<trkpt lat="40.0728319" lon="-105.2304886">
  <ele>1601.54</ele>
  <time>2026-08-27T18:31:08Z</time>
  <course>9.81</course>
  <speed>5.538519657814712</speed>
  <fix>3d</fix>
</trkpt>
<trkpt lat="40.072833" lon="-105.230496">
  <ele>1601.37</ele>
  <time>2026-08-27T18:31:08Z</time>
  <course>100.63</course>
  <speed>6.11</speed>
  <fix>3d</fix>
</trkpt>
<trkpt lat="40.0728315" lon="-105.230486">
  <ele>1601.58</ele>
  <time>2026-08-27T18:31:08Z</time>
  <course>9.81</course>
  <speed>5.4365430192356605</speed>
  <fix>3d</fix>
</trkpt>
<trkpt lat="40.07283" lon="-105.2304759">
  <ele>1601.76</ele>
  <time>2026-08-27T18:31:08Z</time>
  <course>9.83</course>
  <speed>5.079625970482472</speed>
  <fix>3d</fix>
</trkpt>
<trkpt lat="40.0728311" lon="-105.2304825">
  <ele>1601.52</ele>
  <time>2026-08-27T18:31:08Z</time>
  <course>100.64</course>
  <speed>5.56</speed>
  <fix>3d</fix>
</trkpt>
<trkpt lat="40.0728284" lon="-105.2304642">
  <ele>1602.05</ele>
  <time>2026-08-27T18:31:08Z</time>
  <course>9.88</course>
  <speed>4.683417555589081</speed>
  <fix>3d</fix>
</trkpt>
<trkpt lat="40.0728293" lon="-105.2304703">
  <ele>1601.76</ele>
  <time>2026-08-27T18:31:08Z</time>
  <course>100.63</course>
  <speed>5.09</speed>
  <fix>3d</fix>
</trkpt>
<trkpt lat="40.0728268" lon="-105.2304534">
  <ele>1602.38</ele>
  <time>2026-08-27T18:31:08Z</time>
  <course>9.93</course>
  <speed>4.338202392696773</speed>
  <fix>3d</fix>
</trkpt>
<trkpt lat="40.0728277" lon="-105.230459">
  <ele>1602.06</ele>
  <time>2026-08-27T18:31:08Z</time>
  <course>100.62</course>
  <speed>4.68</speed>
  <fix>3d</fix>
</trkpt>
<trkpt lat="40.0728265" lon="-105.2304513">
  <ele>1602.45</ele>
  <time>2026-08-27T18:31:08Z</time>
  <course>9.94</course>
  <speed>4.2675754240552095</speed>
  <fix>3d</fix>
</trkpt>
<trkpt lat="40.0728254" lon="-105.2304434">
  <ele>1602.73</ele>
  <time>2026-08-27T18:31:08Z</time>
  <course>9.96</course>
  <speed>4.022449502479801</speed>
  <fix>3d</fix>
</trkpt>
<trkpt lat="40.0728261" lon="-105.2304486">
  <ele>1602.39</ele>
  <time>2026-08-27T18:31:08Z</time>
  <course>100.59</course>
  <speed>4.32</speed>
  <fix>3d</fix>
</trkpt>
<trkpt lat="40.072824" lon="-105.2304341">
  <ele>1603.11</ele>
  <time>2026-08-27T18:31:08Z</time>
  <course>9.98</course>
  <speed>3.7478660595063955</speed>
  <fix>3d</fix>
</trkpt>
<trkpt lat="40.0728248" lon="-105.230439">
  <ele>1602.76</ele>
  <time>2026-08-27T18:31:08Z</time>
  <course>100.57</course>
  <speed>4.0</speed>
  <fix>3d</fix>
</trkpt>
<trkpt lat="40.0728228" lon="-105.2304255">
  <ele>1603.49</ele>
  <time>2026-08-27T18:31:08Z</time>
  <course>9.98</course>
  <speed>3.492921413373052</speed>
  <fix>3d</fix>
</trkpt>
<trkpt lat="40.0728236" lon="-105.2304301">
  <ele>1603.14</ele>
  <time>2026-08-27T18:31:08Z</time>
  <course>100.53</course>
  <speed>3.71</speed>
  <fix>3d</fix>
</trkpt>
<trkpt lat="40.0728226" lon="-105.2304239">
  <ele>1603.57</ele>
  <time>2026-08-27T18:31:08Z</time>
  <course>9.98</course>
  <speed>3.4419325966671686</speed>
  <fix>3d</fix>
</trkpt>
<trkpt lat="40.0728217" lon="-105.2304175">
  <ele>1603.89</ele>
  <time>2026-08-27T18:31:08Z</time>
  <course>9.98</course>
  <speed>3.257621831950418</speed>
  <fix>3d</fix>
</trkpt>
<trkpt lat="40.0728224" lon="-105.2304219">
  <ele>1603.53</ele>
  <time>2026-08-27T18:31:08Z</time>
  <course>100.49</course>
  <speed>3.45</speed>
  <fix>3d</fix>
</trkpt>
<trkpt lat="40.0728206" lon="-105.2304101">
  <ele>1604.28</ele>
  <time>2026-08-27T18:31:08Z</time>
  <course>9.97</course>
  <speed>3.0438462510448847</speed>
  <fix>3d</fix>
</trkpt>
<trkpt lat="40.0728213" lon="-105.2304141">
  <ele>1603.92</ele>
  <time>2026-08-27T18:31:08Z</time>
  <course>100.45</course>
  <speed>3.21</speed>
  <fix>3d</fix>
</trkpt>
<trkpt lat="40.0728197" lon="-105.2304032">
  <ele>1604.69</ele>
  <time>2026-08-27T18:31:08Z</time>
  <course>9.97</course>
  <speed>2.849719284420836</speed>
  <fix>3d</fix>
</trkpt>
<trkpt lat="40.0728202" lon="-105.230407">
  <ele>1604.31</ele>
  <time>2026-08-27T18:31:08Z</time>
  <course>100.41</course>
  <speed>2.99</speed>
  <fix>3d</fix>
</trkpt>
<trkpt lat="40.0728195" lon="-105.230402">
  <ele>1604.76</ele>
  <time>2026-08-27T18:31:08Z</time>
  <course>9.97</course>
  <speed>2.8085583490467134</speed>
  <fix>3d</fix>
</trkpt>
<trkpt lat="40.0728188" lon="-105.2303967">
  <ele>1605.08</ele>
  <time>2026-08-27T18:31:08Z</time>
  <course>9.97</course>
  <speed>2.6654267950930484</speed>
  <fix>3d</fix>
</trkpt>
<trkpt lat="40.0728193" lon="-105.2304003">
  <ele>1604.7</ele>
  <time>2026-08-27T18:31:08Z</time>
  <course>100.36</course>
  <speed>2.79</speed>
  <fix>3d</fix>
</trkpt>
<trkpt lat="40.0728179" lon="-105.2303907">
  <ele>1605.48</ele>
  <time>2026-08-27T18:31:08Z</time>
  <course>9.96</course>
  <speed>2.5026386075500393</speed>
  <fix>3d</fix>
</trkpt>
<trkpt lat="40.0728184" lon="-105.2303941">
  <ele>1605.1</ele>
  <time>2026-08-27T18:31:08Z</time>
  <course>100.29</course>
  <speed>2.6</speed>
  <fix>3d</fix>
</trkpt>
<trkpt lat="40.0728172" lon="-105.230385">
  <ele>1605.88</ele>
  <time>2026-08-27T18:31:08Z</time>
  <course>9.96</course>
  <speed>2.3398504225697847</speed>
  <fix>3d</fix>
</trkpt>
<trkpt lat="40.0728177" lon="-105.2303882">
  <ele>1605.49</ele>
  <time>2026-08-27T18:31:08Z</time>
  <course>100.22</course>
  <speed>2.43</speed>
  <fix>3d</fix>
</trkpt>
<trkpt lat="40.072817" lon="-105.2303838">
  <ele>1605.97</ele>
  <time>2026-08-27T18:31:08Z</time>
  <course>9.96</course>
  <speed>2.3085276693165278</speed>
  <fix>3d</fix>
</trkpt>
<trkpt lat="40.0728164" lon="-105.2303797">
  <ele>1606.28</ele>
  <time>2026-08-27T18:31:08Z</time>
  <course>9.96</course>
  <speed>2.196724834839357</speed>
  <fix>3d</fix>
</trkpt>
<trkpt lat="40.0728169" lon="-105.2303829">
  <ele>1605.88</ele>
  <time>2026-08-27T18:31:08Z</time>
  <course>100.14</course>
  <speed>2.27</speed>
  <fix>3d</fix>
</trkpt>
<trkpt lat="40.0728158" lon="-105.2303748">
  <ele>1606.66</ele>
  <time>2026-08-27T18:31:08Z</time>
  <course>9.96</course>
  <speed>2.0732824216685963</speed>
  <fix>3d</fix>
</trkpt>
<trkpt lat="40.0728162" lon="-105.2303777">
  <ele>1606.27</ele>
  <time>2026-08-27T18:31:08Z</time>
  <course>100.05</course>
  <speed>2.13</speed>
  <fix>3d</fix>
</trkpt>
<trkpt lat="40.0728151" lon="-105.2303701">
  <ele>1607.0</ele>
  <time>2026-08-27T18:31:08Z</time>
  <course>9.96</course>
  <speed>1.951640335717624</speed>
  <fix>3d</fix>
</trkpt>
<trkpt lat="40.0728156" lon="-105.2303729">
  <ele>1606.64</ele>
  <time>2026-08-27T18:31:08Z</time>
  <course>99.97</course>
  <speed>2.0</speed>
  <fix>3d</fix>
</trkpt>
<trkpt lat="40.0728146" lon="-105.2303657">
  <ele>1607.23</ele>
  <time>2026-08-27T18:31:08Z</time>
  <course>9.97</course>
  <speed>1.84967564724197</speed>
  <fix>3d</fix>
</trkpt>
<trkpt lat="40.0728149" lon="-105.2303685">
  <ele>1606.94</ele>
  <time>2026-08-27T18:31:08Z</time>
  <course>99.89</course>
  <speed>1.89</speed>
  <fix>3d</fix>
</trkpt>
<trkpt lat="40.072814" lon="-105.2303616">
  <ele>1607.38</ele>
  <time>2026-08-27T18:31:08Z</time>
  <course>9.97</course>
  <speed>1.7575551200460255</speed>
  <fix>3d</fix>
</trkpt>
<trkpt lat="40.0728144" lon="-105.2303642">
  <ele>1607.14</ele>
  <time>2026-08-27T18:31:08Z</time>
  <course>99.81</course>
  <speed>1.78</speed>
  <fix>3d</fix>
</trkpt>
<trkpt lat="40.0728135" lon="-105.2303577">
  <ele>1607.47</ele>
  <time>2026-08-27T18:31:08Z</time>
  <course>9.97</course>
  <speed>1.6555965692160635</speed>
  <fix>3d</fix>
</trkpt>
<trkpt lat="40.0728139" lon="-105.2303602">
  <ele>1607.28</ele>
  <time>2026-08-27T18:31:08Z</time>
  <course>99.71</course>
  <speed>1.68</speed>
  <fix>3d</fix>
</trkpt>
<trkpt lat="40.072813" lon="-105.230354">
  <ele>1607.52</ele>
  <time>2026-08-27T18:31:08Z</time>
  <course>9.97</course>
  <speed>1.5634896865665602</speed>
  <fix>3d</fix>
</trkpt>
<trkpt lat="40.0728134" lon="-105.2303564">
  <ele>1607.35</ele>
  <time>2026-08-27T18:31:08Z</time>
  <course>99.6</course>
  <speed>1.59</speed>
  <fix>3d</fix>
</trkpt>
<trkpt lat="40.0728126" lon="-105.2303505">
  <ele>1607.55</ele>
  <time>2026-08-27T18:31:08Z</time>
  <course>9.96</course>
  <speed>1.4812494725737457</speed>
  <fix>3d</fix>
</trkpt>
<trkpt lat="40.0728129" lon="-105.2303528">
  <ele>1607.39</ele>
  <time>2026-08-27T18:31:08Z</time>
  <course>99.47</course>
  <speed>1.49</speed>
  <fix>3d</fix>
</trkpt>
<trkpt lat="40.0728122" lon="-105.2303472">
  <ele>1607.56</ele>
  <time>2026-08-27T18:31:08Z</time>
  <course>9.96</course>
  <speed>1.3990353819685906</speed>
  <fix>3d</fix>
</trkpt>
<trkpt lat="40.0728125" lon="-105.2303494">
  <ele>1607.41</ele>
  <time>2026-08-27T18:31:08Z</time>
  <course>99.33</course>
  <speed>1.41</speed>
  <fix>3d</fix>
</trkpt>
<trkpt lat="40.0728118" lon="-105.2303442">
  <ele>1607.56</ele>
  <time>2026-08-27T18:31:08Z</time>
  <course>9.96</course>
  <speed>1.3184839779079607</speed>
  <fix>3d</fix>
</trkpt>
<trkpt lat="40.072812" lon="-105.2303463">
  <ele>1607.42</ele>
  <time>2026-08-27T18:31:08Z</time>
  <course>99.16</course>
  <speed>1.33</speed>
  <fix>3d</fix>
</trkpt>
<trkpt lat="40.0728114" lon="-105.2303413">
  <ele>1607.56</ele>
  <time>2026-08-27T18:31:08Z</time>
  <course>9.96</course>
  <speed>1.2461540835707277</speed>
  <fix>3d</fix>
</trkpt>
<trkpt lat="40.0728117" lon="-105.2303433">
  <ele>1607.42</ele>
  <time>2026-08-27T18:31:08Z</time>
  <course>98.98</course>
  <speed>1.25</speed>
  <fix>3d</fix>
</trkpt>
<trkpt lat="40.0728111" lon="-105.2303385">
  <ele>1607.57</ele>
  <time>2026-08-27T18:31:08Z</time>
  <course>9.97</course>
  <speed>1.175457357797381</speed>
  <fix>3d</fix>
</trkpt>
<trkpt lat="40.0728114" lon="-105.2303405">
  <ele>1607.43</ele>
  <time>2026-08-27T18:31:08Z</time>
  <course>98.77</course>
  <speed>1.17</speed>
  <fix>3d</fix>
</trkpt>
<trkpt lat="40.0728108" lon="-105.2303359">
  <ele>1607.57</ele>
  <time>2026-08-27T18:31:08Z</time>
  <course>9.98</course>
  <speed>1.103177229641729</speed>
  <fix>3d</fix>
</trkpt>
<trkpt lat="40.0728111" lon="-105.2303378">
  <ele>1607.43</ele>
  <time>2026-08-27T18:31:08Z</time>
  <course>98.54</course>
  <speed>1.1</speed>
  <fix>3d</fix>
</trkpt>
<trkpt lat="40.0728105" lon="-105.2303335">
  <ele>1607.57</ele>
  <time>2026-08-27T18:31:08Z</time>
  <course>9.98</course>
  <speed>1.0423531071570709</speed>
  <fix>3d</fix>
</trkpt>
<trkpt lat="40.0728108" lon="-105.2303353">
  <ele>1607.44</ele>
  <time>2026-08-27T18:31:08Z</time>
  <course>98.32</course>
  <speed>1.04</speed>
  <fix>3d</fix>
</trkpt>
<trkpt lat="40.0728103" lon="-105.2303312">
  <ele>1607.57</ele>
  <time>2026-08-27T18:31:08Z</time>
  <course>9.98</course>
  <speed>0.9815294188153507</speed>
  <fix>3d</fix>
</trkpt>
<trkpt lat="40.0728105" lon="-105.230333">
  <ele>1607.44</ele>
  <time>2026-08-27T18:31:08Z</time>
  <course>98.11</course>
  <speed>0.98</speed>
  <fix>3d</fix>
</trkpt>
<trkpt lat="40.0728101" lon="-105.2303291">
  <ele>1607.57</ele>
  <time>2026-08-27T18:31:08Z</time>
  <course>9.98</course>
  <speed>0.9305912099305473</speed>
  <fix>3d</fix>
</trkpt>
<trkpt lat="40.0728103" lon="-105.2303307">
  <ele>1607.45</ele>
  <time>2026-08-27T18:31:08Z</time>
  <course>97.85</course>
  <speed>0.92</speed>
  <fix>3d</fix>
</trkpt>
<trkpt lat="40.0728099" lon="-105.2303271">
  <ele>1607.57</ele>
  <time>2026-08-27T18:31:08Z</time>
  <course>9.99</course>
  <speed>0.8796590248499698</speed>
  <fix>3d</fix>
</trkpt>
<trkpt lat="40.0728101" lon="-105.2303287">
  <ele>1607.46</ele>
  <time>2026-08-27T18:31:08Z</time>
  <course>97.53</course>
  <speed>0.87</speed>
  <fix>3d</fix>
</trkpt>
<trkpt lat="40.0728097" lon="-105.2303252">
  <ele>1607.58</ele>
  <time>2026-08-27T18:31:08Z</time>
  <course>9.99</course>
  <speed>0.8287339742040264</speed>
  <fix>3d</fix>
</trkpt>
<trkpt lat="40.0728098" lon="-105.2303267">
  <ele>1607.46</ele>
  <time>2026-08-27T18:31:08Z</time>
  <course>97.16</course>
  <speed>0.82</speed>
  <fix>3d</fix>
</trkpt>
<trkpt lat="40.0728095" lon="-105.2303234">
  <ele>1607.58</ele>
  <time>2026-08-27T18:31:09Z</time>
  <course>9.98</course>
  <speed>0.7778174593052023</speed>
  <fix>3d</fix>
</trkpt>
<trkpt lat="40.0728097" lon="-105.2303248">
  <ele>1607.47</ele>
  <time>2026-08-27T18:31:09Z</time>
  <course>96.8</course>
  <speed>0.77</speed>
  <fix>3d</fix>
</trkpt>
<trkpt lat="40.0728094" lon="-105.2303217">
  <ele>1607.59</ele>
  <time>2026-08-27T18:31:09Z</time>
  <course>9.97</course>
  <speed>0.7467261881037789</speed>
  <fix>3d</fix>
</trkpt>
<trkpt lat="40.0728096" lon="-105.230323">
  <ele>1607.47</ele>
  <time>2026-08-27T18:31:09Z</time>
  <course>96.47</course>
  <speed>0.73</speed>
  <fix>3d</fix>
</trkpt>
<trkpt lat="40.0728091" lon="-105.2303194">
  <ele>1607.62</ele>
  <time>2026-08-27T18:31:09Z</time>
  <course>9.96</course>
  <speed>1.4780054127099804</speed>
  <fix>3d</fix>
</trkpt>
<trkpt lat="40.0728094" lon="-105.2303212">
  <ele>1607.49</ele>
  <time>2026-08-27T18:31:09Z</time>
  <course>96.95</course>
  <speed>0.91</speed>
  <fix>3d</fix>
</trkpt>
<trkpt lat="40.0728088" lon="-105.2303166">
  <ele>1607.43</ele>
  <time>2026-08-27T18:31:09Z</time>
  <course>9.99</course>
  <speed>0.8980534505250788</speed>
  <fix>3d</fix>
</trkpt>
<trkpt lat="40.0728091" lon="-105.2303188">
  <ele>1607.46</ele>
  <time>2026-08-27T18:31:09Z</time>
  <course>97.2</course>
  <speed>1.03</speed>
  <fix>3d</fix>
</trkpt>
<trkpt lat="40.0728086" lon="-105.2303144">
  <ele>1606.85</ele>
  <time>2026-08-27T18:31:09Z</time>
  <course>10.02</course>
  <speed>0.9588534820294495</speed>
  <fix>3d</fix>
</trkpt>
<trkpt lat="40.0728089" lon="-105.2303161">
  <ele>1607.17</ele>
  <time>2026-08-27T18:31:09Z</time>
  <course>97.18</course>
  <speed>1.0</speed>
  <fix>3d</fix>
</trkpt>
<trkpt lat="40.0728085" lon="-105.2303124">
  <ele>1606.05</ele>
  <time>2026-08-27T18:31:10Z</time>
  <course>9.94</course>
  <speed>1.009752444909147</speed>
  <fix>3d</fix>
</trkpt>
<trkpt lat="40.0728086" lon="-105.2303139">
  <ele>1606.55</ele>
  <time>2026-08-27T18:31:10Z</time>
  <course>97.13</course>
  <speed>0.97</speed>
  <fix>3d</fix>
</trkpt>
<trkpt lat="40.0728082" lon="-105.2303097">
  <ele>1605.06</ele>
  <time>2026-08-27T18:31:10Z</time>
  <course>9.97</course>
  <speed>1.4043147795277242</speed>
  <fix>3d</fix>
</trkpt>
<trkpt lat="40.0728084" lon="-105.2303115">
  <ele>1605.69</ele>
  <time>2026-08-27T18:31:10Z</time>
  <course>97.37</course>
  <speed>1.09</speed>
  <fix>3d</fix>
</trkpt>
<trkpt lat="40.0728078" lon="-105.2303059">
  <ele>1603.88</ele>
  <time>2026-08-27T18:31:10Z</time>
  <course>9.99</course>
  <speed>1.880957203128237</speed>
  <fix>3d</fix>
</trkpt>
<trkpt lat="40.0728082" lon="-105.2303086">
  <ele>1604.65</ele>
  <time>2026-08-27T18:31:10Z</time>
  <course>98.01</course>
  <speed>1.49</speed>
  <fix>3d</fix>
</trkpt>
<trkpt lat="40.0728072" lon="-105.2303008">
  <ele>1602.49</ele>
  <time>2026-08-27T18:31:10Z</time>
  <course>9.99</course>
  <speed>1.9630588376307014</speed>
  <fix>3d</fix>
</trkpt>
<trkpt lat="40.0728077" lon="-105.2303044">
  <ele>1603.42</ele>
  <time>2026-08-27T18:31:10Z</time>
  <course>98.51</course>
  <speed>2.07</speed>
  <fix>3d</fix>
</trkpt>
<trkpt lat="40.0728074" lon="-105.2303019">
  <ele>1601.23</ele>
  <time>2026-08-27T18:31:10Z</time>
  <course>9.95</course>
  <speed>2.249555511651135</speed>
  <fix>3d</fix>
</trkpt>
<trkpt lat="40.0728073" lon="-105.2303014">
  <ele>1602.08</ele>
  <time>2026-08-27T18:31:10Z</time>
  <course>92.96</course>
  <speed>0.38</speed>
  <fix>3d</fix>
</trkpt>
<trkpt lat="40.0728083" lon="-105.2303077">
  <ele>1600.72</ele>
  <time>2026-08-27T18:31:11Z</time>
  <course>9.95</course>
  <speed>2.412343259156955</speed>
  <fix>3d</fix>
</trkpt>
<trkpt lat="40.0728077" lon="-105.2303036">
  <ele>1601.04</ele>
  <time>2026-08-27T18:31:11Z</time>
  <course>281.12</course>
  <speed>2.19</speed>
  <fix>3d</fix>
</trkpt>
<trkpt lat="40.0728089" lon="-105.230312">
  <ele>1600.73</ele>
  <time>2026-08-27T18:31:11Z</time>
  <course>10.02</course>
  <speed>1.7827226368675526</speed>
  <fix>3d</fix>
</trkpt>
<trkpt lat="40.0728084" lon="-105.2303092">
  <ele>1600.64</ele>
  <time>2026-08-27T18:31:11Z</time>
  <course>281.17</course>
  <speed>2.38</speed>
  <fix>3d</fix>
</trkpt>
<trkpt lat="40.0728095" lon="-105.2303161">
  <ele>1601.01</ele>
  <time>2026-08-27T18:31:11Z</time>
  <course>9.97</course>
  <speed>1.712103968805633</speed>
  <fix>3d</fix>
</trkpt>
<trkpt lat="40.0728092" lon="-105.2303142">
  <ele>1600.73</ele>
  <time>2026-08-27T18:31:11Z</time>
  <course>281.52</course>
  <speed>1.96</speed>
  <fix>3d</fix>
</trkpt>
<trkpt lat="40.0728102" lon="-105.2303204">
  <ele>1601.38</ele>
  <time>2026-08-27T18:31:11Z</time>
  <course>9.93</course>
  <speed>1.7434735443934903</speed>
  <fix>3d</fix>
</trkpt>
<trkpt lat="40.0728099" lon="-105.2303186">
  <ele>1601.05</ele>
  <time>2026-08-27T18:31:11Z</time>
  <course>281.62</course>
  <speed>1.88</speed>
  <fix>3d</fix>
</trkpt>
<trkpt lat="40.0728108" lon="-105.2303248">
  <ele>1601.74</ele>
  <time>2026-08-27T18:31:11Z</time>
  <course>9.92</course>
  <speed>1.7729072169744249</speed>
  <fix>3d</fix>
</trkpt>
<trkpt lat="40.0728106" lon="-105.2303229">
  <ele>1601.44</ele>
  <time>2026-08-27T18:31:11Z</time>
  <course>281.63</course>
  <speed>1.89</speed>
  <fix>3d</fix>
</trkpt>
<trkpt lat="40.0728115" lon="-105.2303292">
  <ele>1602.05</ele>
  <time>2026-08-27T18:31:11Z</time>
  <course>9.93</course>
  <speed>1.7925400971805345</speed>
  <fix>3d</fix>
</trkpt>
<trkpt lat="40.0728113" lon="-105.2303273">
  <ele>1601.8</ele>
  <time>2026-08-27T18:31:11Z</time>
  <course>281.63</course>
  <speed>1.89</speed>
  <fix>3d</fix>
</trkpt>
<trkpt lat="40.0728122" lon="-105.2303336">
  <ele>1602.29</ele>
  <time>2026-08-27T18:31:11Z</time>
  <course>9.94</course>
  <speed>1.8042727066604982</speed>
  <fix>3d</fix>
</trkpt>
<trkpt lat="40.072812" lon="-105.2303316">
  <ele>1602.1</ele>
  <time>2026-08-27T18:31:11Z</time>
  <course>281.63</course>
  <speed>1.89</speed>
  <fix>3d</fix>
</trkpt>
<trkpt lat="40.0728129" lon="-105.230338">
  <ele>1602.49</ele>
  <time>2026-08-27T18:31:11Z</time>
  <course>9.95</course>
  <speed>1.7944637081869335</speed>
  <fix>3d</fix>
</trkpt>
<trkpt lat="40.0728127" lon="-105.230336">
  <ele>1602.33</ele>
  <time>2026-08-27T18:31:11Z</time>
  <course>281.64</course>
  <speed>1.89</speed>
  <fix>3d</fix>
</trkpt>
<trkpt lat="40.0728136" lon="-105.2303422">
  <ele>1602.67</ele>
  <time>2026-08-27T18:31:12Z</time>
  <course>9.96</course>
  <speed>1.6611140839809888</speed>
  <fix>3d</fix>
</trkpt>
<trkpt lat="40.0728134" lon="-105.2303403">
  <ele>1602.51</ele>
  <time>2026-08-27T18:31:12Z</time>
  <course>281.66</course>
  <speed>1.83</speed>
  <fix>3d</fix>
</trkpt>
<trkpt lat="40.0728142" lon="-105.230346">
  <ele>1602.82</ele>
  <time>2026-08-27T18:31:12Z</time>
  <course>9.96</course>
  <speed>1.4885227576359055</speed>
  <fix>3d</fix>
</trkpt>
<trkpt lat="40.072814" lon="-105.2303443">
  <ele>1602.67</ele>
  <time>2026-08-27T18:31:12Z</time>
  <course>281.7</course>
  <speed>1.68</speed>
  <fix>3d</fix>
</trkpt>
<trkpt lat="40.0728147" lon="-105.2303494">
  <ele>1602.92</ele>
  <time>2026-08-27T18:31:12Z</time>
  <course>9.97</course>
  <speed>1.2943724348115577</speed>
  <fix>3d</fix>
</trkpt>
<trkpt lat="40.0728146" lon="-105.2303479">
  <ele>1602.8</ele>
  <time>2026-08-27T18:31:12Z</time>
  <course>281.76</course>
  <speed>1.49</speed>
  <fix>3d</fix>
</trkpt>
<trkpt lat="40.0728152" lon="-105.2303523">
  <ele>1602.98</ele>
  <time>2026-08-27T18:31:12Z</time>
  <course>9.97</course>
  <speed>1.1002272492535348</speed>
  <fix>3d</fix>
</trkpt>
<trkpt lat="40.0728151" lon="-105.2303512">
  <ele>1602.89</ele>
  <time>2026-08-27T18:31:12Z</time>
  <course>281.83</course>
  <speed>1.29</speed>
  <fix>3d</fix>
</trkpt>
<trkpt lat="40.0728156" lon="-105.2303548">
  <ele>1603.0</ele>
  <time>2026-08-27T18:31:12Z</time>
  <course>9.97</course>
  <speed>0.9060905032059435</speed>
  <fix>3d</fix>
</trkpt>
<trkpt lat="40.0728156" lon="-105.2303539">
  <ele>1602.92</ele>
  <time>2026-08-27T18:31:12Z</time>
  <course>281.91</course>
  <speed>1.09</speed>
  <fix>3d</fix>
</trkpt>
<trkpt lat="40.0728159" lon="-105.2303568">
  <ele>1602.98</ele>
  <time>2026-08-27T18:31:12Z</time>
  <course>9.97</course>
  <speed>0.7021395872616784</speed>
  <fix>3d</fix>
</trkpt>
<trkpt lat="40.0728159" lon="-105.2303562">
  <ele>1602.93</ele>
  <time>2026-08-27T18:31:12Z</time>
  <course>282.03</course>
  <speed>0.88</speed>
  <fix>3d</fix>
</trkpt>
<trkpt lat="40.0728161" lon="-105.2303583">
  <ele>1602.94</ele>
  <time>2026-08-27T18:31:12Z</time>
  <course>9.97</course>
  <speed>0.5080354318352215</speed>
  <fix>3d</fix>
</trkpt>
<trkpt lat="40.0728162" lon="-105.230358">
  <ele>1602.9</ele>
  <time>2026-08-27T18:31:12Z</time>
  <course>282.19</course>
  <speed>0.67</speed>
  <fix>3d</fix>
</trkpt>
<trkpt lat="40.0728163" lon="-105.2303594">
  <ele>1602.88</ele>
  <time>2026-08-27T18:31:12Z</time>
  <course>9.97</course>
  <speed>0.31400636936215165</speed>
  <fix>3d</fix>
</trkpt>
<trkpt lat="40.0728165" lon="-105.2303593">
  <ele>1602.85</ele>
  <time>2026-08-27T18:31:12Z</time>
  <course>282.45</course>
  <speed>0.47</speed>
  <fix>3d</fix>
</trkpt>
<trkpt lat="40.0728164" lon="-105.2303601">
  <ele>1602.8</ele>
  <time>2026-08-27T18:31:12Z</time>
  <course>9.97</course>
  <speed>0.1414213562373095</speed>
  <fix>3d</fix>
</trkpt>
<trkpt lat="40.0728166" lon="-105.2303601">
  <ele>1602.78</ele>
  <time>2026-08-27T18:31:12Z</time>
  <course>283.01</course>
  <speed>0.28</speed>
  <fix>3d</fix>
</trkpt>
<trkpt lat="40.0728165" lon="-105.2303603">
  <ele>1602.72</ele>
  <time>2026-08-27T18:31:12Z</time>
  <course>9.98</course>
  <speed>0.01</speed>
  <fix>3d</fix>
</trkpt>
<trkpt lat="40.0728167" lon="-105.2303606">
  <ele>1602.7</ele>
  <time>2026-08-27T18:31:12Z</time>
  <course>285.13</course>
  <speed>0.1</speed>
  <fix>3d</fix>
</trkpt>
<trkpt lat="40.0728165" lon="-105.2303602">
  <ele>1602.64</ele>
  <time>2026-08-27T18:31:12Z</time>
  <course>9.98</course>
  <speed>0.13341664064126335</speed>
  <fix>3d</fix>
</trkpt>
<trkpt lat="40.0728167" lon="-105.2303607">
  <ele>1602.62</ele>
  <time>2026-08-27T18:31:12Z</time>
  <course>94.84</course>
  <speed>0.05</speed>
  <fix>3d</fix>
</trkpt>
<trkpt lat="40.0728164" lon="-105.2303598">
  <ele>1602.56</ele>
  <time>2026-08-27T18:31:12Z</time>
  <course>9.98</course>
  <speed>0.24738633753705963</speed>
  <fix>3d</fix>
</trkpt>
<trkpt lat="40.0728167" lon="-105.2303604">
  <ele>1602.54</ele>
  <time>2026-08-27T18:31:12Z</time>
  <course>99.98</course>
  <speed>0.18</speed>
  <fix>3d</fix>
</trkpt>
<trkpt lat="40.0728164" lon="-105.2303592">
  <ele>1602.48</ele>
  <time>2026-08-27T18:31:12Z</time>
  <course>9.98</course>
  <speed>0.327566787083184</speed>
  <fix>3d</fix>
</trkpt>
<trkpt lat="40.0728167" lon="-105.2303599">
  <ele>1602.46</ele>
  <time>2026-08-27T18:31:12Z</time>
  <course>100.84</course>
  <speed>0.29</speed>
  <fix>3d</fix>
</trkpt>
<trkpt lat="40.0728163" lon="-105.2303585">
  <ele>1602.41</ele>
  <time>2026-08-27T18:31:12Z</time>
  <course>9.98</course>
  <speed>0.3590264614203248</speed>
  <fix>3d</fix>
</trkpt>
<trkpt lat="40.0728165" lon="-105.2303592">
  <ele>1602.38</ele>
  <time>2026-08-27T18:31:12Z</time>
  <course>101.33</course>
  <speed>0.36</speed>
  <fix>3d</fix>
</trkpt>
<trkpt lat="40.0728162" lon="-105.2303576">
  <ele>1602.34</ele>
  <time>2026-08-27T18:31:12Z</time>
  <course>9.98</course>
  <speed>0.33955853692699295</speed>
  <fix>3d</fix>
</trkpt>
<trkpt lat="40.0728164" lon="-105.2303583">
  <ele>1602.3</ele>
  <time>2026-08-27T18:31:12Z</time>
  <course>101.9</course>
  <speed>0.38</speed>
  <fix>3d</fix>
</trkpt>
<trkpt lat="40.0728161" lon="-105.2303569">
  <ele>1602.29</ele>
  <time>2026-08-27T18:31:12Z</time>
  <course>9.98</course>
  <speed>0.2692582403567252</speed>
  <fix>3d</fix>
</trkpt>
<trkpt lat="40.0728163" lon="-105.2303575">
  <ele>1602.24</ele>
  <time>2026-08-27T18:31:12Z</time>
  <course>102.83</course>
  <speed>0.35</speed>
  <fix>3d</fix>
</trkpt>
<trkpt lat="40.072816" lon="-105.2303564">
  <ele>1602.26</ele>
  <time>2026-08-27T18:31:12Z</time>
  <course>9.97</course>
  <speed>0.14317821063276354</speed>
  <fix>3d</fix>
</trkpt>
<trkpt lat="40.0728161" lon="-105.2303567">
  <ele>1602.2</ele>
  <time>2026-08-27T18:31:12Z</time>
  <course>104.86</course>
  <speed>0.26</speed>
  <fix>3d</fix>
</trkpt>
<trkpt lat="40.0728159" lon="-105.2303563">
  <ele>1602.25</ele>
  <time>2026-08-27T18:31:12Z</time>
  <course>9.96</course>
  <speed>0.04242640687119285</speed>
  <fix>3d</fix>
</trkpt>
<trkpt lat="40.072816" lon="-105.2303562">
  <ele>1602.17</ele>
  <time>2026-08-27T18:31:12Z</time>
  <course>112.29</course>
  <speed>0.12</speed>
  <fix>3d</fix>
</trkpt>
<trkpt lat="40.0728159" lon="-105.2303564">
  <ele>1602.25</ele>
  <time>2026-08-27T18:31:12Z</time>
  <course>9.95</course>
  <speed>0.23</speed>
  <fix>3d</fix>
</trkpt>
<trkpt lat="40.0728159" lon="-105.2303562">
  <ele>1602.17</ele>
  <time>2026-08-27T18:31:12Z</time>
  <course>248.85</course>
  <speed>0.06</speed>
  <fix>3d</fix>
</trkpt>
<trkpt lat="40.0728159" lon="-105.2303571">
  <ele>1602.26</ele>
  <time>2026-08-27T18:31:12Z</time>
  <course>9.95</course>
  <speed>0.4410215414239989</speed>
  <fix>3d</fix>
</trkpt>
<trkpt lat="40.0728159" lon="-105.2303565">
  <ele>1602.17</ele>
  <time>2026-08-27T18:31:12Z</time>
  <course>271.99</course>
  <speed>0.26</speed>
  <fix>3d</fix>
</trkpt>
<trkpt lat="40.0728159" lon="-105.2303584">
  <ele>1602.28</ele>
  <time>2026-08-27T18:31:12Z</time>
  <course>9.95</course>
  <speed>0.6627216610312356</speed>
  <fix>3d</fix>
</trkpt>
<trkpt lat="40.072816" lon="-105.2303574">
  <ele>1602.18</ele>
  <time>2026-08-27T18:31:12Z</time>
  <course>275.26</course>
  <speed>0.48</speed>
  <fix>3d</fix>
</trkpt>
<trkpt lat="40.0728161" lon="-105.2303601">
  <ele>1602.29</ele>
  <time>2026-08-27T18:31:12Z</time>
  <course>9.95</course>
  <speed>0.8956003573022958</speed>
  <fix>3d</fix>
</trkpt>
<trkpt lat="40.0728161" lon="-105.2303587">
  <ele>1602.19</ele>
  <time>2026-08-27T18:31:12Z</time>
  <course>276.57</course>
  <speed>0.71</speed>
  <fix>3d</fix>
</trkpt>
<trkpt lat="40.0728163" lon="-105.2303624">
  <ele>1602.3</ele>
  <time>2026-08-27T18:31:12Z</time>
  <course>9.61</course>
  <speed>1.138639539099183</speed>
  <fix>3d</fix>
</trkpt>
<trkpt lat="40.0728162" lon="-105.2303607">
  <ele>1602.2</ele>
  <time>2026-08-27T18:31:12Z</time>
  <course>277.28</course>
  <speed>0.95</speed>
  <fix>3d</fix>
</trkpt>
<trkpt lat="40.0728166" lon="-105.2303653">
  <ele>1602.3</ele>
  <time>2026-08-27T18:31:12Z</time>
  <course>5.1</course>
  <speed>1.381774221788784</speed>
  <fix>3d</fix>
</trkpt>
<trkpt lat="40.0728164" lon="-105.2303632">
  <ele>1602.21</ele>
  <time>2026-08-27T18:31:12Z</time>
  <course>277.63</course>
  <speed>1.2</speed>
  <fix>3d</fix>
</trkpt>
<trkpt lat="40.072817" lon="-105.2303687">
  <ele>1602.3</ele>
  <time>2026-08-27T18:31:12Z</time>
  <course>356.49</course>
  <speed>1.6249615380063616</speed>
  <fix>3d</fix>
</trkpt>
<trkpt lat="40.0728168" lon="-105.2303663">
  <ele>1602.21</ele>
  <time>2026-08-27T18:31:12Z</time>
  <course>277.86</course>
  <speed>1.45</speed>
  <fix>3d</fix>
</trkpt>
<trkpt lat="40.0728174" lon="-105.2303727">
  <ele>1602.29</ele>
  <time>2026-08-27T18:31:12Z</time>
  <course>345.47</course>
  <speed>1.8681809334215997</speed>
  <fix>3d</fix>
</trkpt>
<trkpt lat="40.0728172" lon="-105.2303699">
  <ele>1602.22</ele>
  <time>2026-08-27T18:31:12Z</time>
  <course>278.12</course>
  <speed>1.69</speed>
  <fix>3d</fix>
</trkpt>
<trkpt lat="40.0728179" lon="-105.2303773">
  <ele>1602.29</ele>
  <time>2026-08-27T18:31:12Z</time>
  <course>333.17</course>
  <speed>2.091626161626403</speed>
  <fix>3d</fix>
</trkpt>
<trkpt lat="40.0728176" lon="-105.2303741">
  <ele>1602.22</ele>
  <time>2026-08-27T18:31:12Z</time>
  <course>278.41</course>
  <speed>1.93</speed>
  <fix>3d</fix>
</trkpt>
<trkpt lat="40.0728185" lon="-105.2303824">
  <ele>1602.28</ele>
  <time>2026-08-27T18:31:12Z</time>
  <course>320.19</course>
  <speed>2.3151025895195225</speed>
  <fix>3d</fix>
</trkpt>
<trkpt lat="40.0728182" lon="-105.2303789">
  <ele>1602.22</ele>
  <time>2026-08-27T18:31:12Z</time>
  <course>278.66</course>
  <speed>2.17</speed>
  <fix>3d</fix>
</trkpt>
<trkpt lat="40.0728192" lon="-105.2303879">
  <ele>1602.28</ele>
  <time>2026-08-27T18:31:12Z</time>
  <course>307.01</course>
  <speed>2.507448902769506</speed>
  <fix>3d</fix>
</trkpt>
<trkpt lat="40.0728188" lon="-105.2303842">
  <ele>1602.22</ele>
  <time>2026-08-27T18:31:12Z</time>
  <course>278.81</course>
  <speed>2.38</speed>
  <fix>3d</fix>
</trkpt>
<trkpt lat="40.0728199" lon="-105.2303939">
  <ele>1602.28</ele>
  <time>2026-08-27T18:31:12Z</time>
  <course>293.83</course>
  <speed>2.6602443496791794</speed>
  <fix>3d</fix>
</trkpt>
<trkpt lat="40.0728195" lon="-105.23039">
  <ele>1602.23</ele>
  <time>2026-08-27T18:31:12Z</time>
  <course>278.91</course>
  <speed>2.57</speed>
  <fix>3d</fix>
</trkpt>
<trkpt lat="40.0728207" lon="-105.2304002">
  <ele>1602.29</ele>
  <time>2026-08-27T18:31:12Z</time>
  <course>282.2</course>
  <speed>2.7932955446926844</speed>
  <fix>3d</fix>
</trkpt>
<trkpt lat="40.0728203" lon="-105.2303961">
  <ele>1602.23</ele>
  <time>2026-08-27T18:31:12Z</time>
  <course>279.0</course>
  <speed>2.72</speed>
  <fix>3d</fix>
</trkpt>
<trkpt lat="40.0728215" lon="-105.2304068">
  <ele>1602.29</ele>
  <time>2026-08-27T18:31:12Z</time>
  <course>275.62</course>
  <speed>2.905064543172836</speed>
  <fix>3d</fix>
</trkpt>
<trkpt lat="40.0728211" lon="-105.2304026">
  <ele>1602.24</ele>
  <time>2026-08-27T18:31:12Z</time>
  <course>279.12</course>
  <speed>2.85</speed>
  <fix>3d</fix>
</trkpt>
<trkpt lat="40.0728223" lon="-105.2304137">
  <ele>1602.29</ele>
  <time>2026-08-27T18:31:12Z</time>
  <course>273.57</course>
  <speed>2.997081914129142</speed>
  <fix>3d</fix>
</trkpt>
<trkpt lat="40.0728218" lon="-105.2304094">
  <ele>1602.24</ele>
  <time>2026-08-27T18:31:12Z</time>
  <course>279.25</course>
  <speed>2.96</speed>
  <fix>3d</fix>
</trkpt>
<trkpt lat="40.0728232" lon="-105.2304208">
  <ele>1602.3</ele>
  <time>2026-08-27T18:31:12Z</time>
  <course>274.15</course>
  <speed>3.0792369184588573</speed>
  <fix>3d</fix>
</trkpt>
<trkpt lat="40.0728227" lon="-105.2304164">
  <ele>1602.25</ele>
  <time>2026-08-27T18:31:12Z</time>
  <course>279.37</course>
  <speed>3.06</speed>
  <fix>3d</fix>
</trkpt>
<trkpt lat="40.0728241" lon="-105.2304281">
  <ele>1602.31</ele>
  <time>2026-08-27T18:31:12Z</time>
  <course>275.74</course>
  <speed>3.1400636936215163</speed>
  <fix>3d</fix>
</trkpt>
<trkpt lat="40.0728236" lon="-105.2304235">
  <ele>1602.25</ele>
  <time>2026-08-27T18:31:12Z</time>
  <course>279.44</course>
  <speed>3.13</speed>
  <fix>3d</fix>
</trkpt>
<trkpt lat="40.0728251" lon="-105.2304355">
  <ele>1602.31</ele>
  <time>2026-08-27T18:31:12Z</time>
  <course>277.28</course>
  <speed>3.191018646137938</speed>
  <fix>3d</fix>
</trkpt>
<trkpt lat="40.0728245" lon="-105.2304308">
  <ele>1602.25</ele>
  <time>2026-08-27T18:31:12Z</time>
  <course>279.47</course>
  <speed>3.19</speed>
  <fix>3d</fix>
</trkpt>
<trkpt lat="40.072826" lon="-105.230443">
  <ele>1602.31</ele>
  <time>2026-08-27T18:31:12Z</time>
  <course>278.26</course>
  <speed>3.230510795524448</speed>
  <fix>3d</fix>
</trkpt>
<trkpt lat="40.0728256" lon="-105.2304383">
  <ele>1602.26</ele>
  <time>2026-08-27T18:31:12Z</time>
  <course>279.48</course>
  <speed>3.24</speed>
  <fix>3d</fix>
</trkpt>
<trkpt lat="40.072827" lon="-105.2304506">
  <ele>1602.32</ele>
  <time>2026-08-27T18:31:12Z</time>
  <course>278.67</course>
  <speed>3.261717339071551</speed>
  <fix>3d</fix>
</trkpt>
<trkpt lat="40.0728265" lon="-105.2304458">
  <ele>1602.26</ele>
  <time>2026-08-27T18:31:12Z</time>
  <course>279.46</course>
  <speed>3.28</speed>
  <fix>3d</fix>
</trkpt>
<trkpt lat="40.072828" lon="-105.2304582">
  <ele>1602.32</ele>
  <time>2026-08-27T18:31:12Z</time>
  <course>278.68</course>
  <speed>3.281463088318989</speed>
  <fix>3d</fix>
</trkpt>
<trkpt lat="40.0728275" lon="-105.2304535">
  <ele>1602.26</ele>
  <time>2026-08-27T18:31:12Z</time>
  <course>279.44</course>
  <speed>3.3</speed>
  <fix>3d</fix>
</trkpt>
<trkpt lat="40.0728289" lon="-105.2304659">
  <ele>1602.32</ele>
  <time>2026-08-27T18:31:12Z</time>
  <course>278.49</course>
  <speed>3.279893290947131</speed>
  <fix>3d</fix>
</trkpt>
<trkpt lat="40.0728285" lon="-105.2304612">
  <ele>1602.25</ele>
  <time>2026-08-27T18:31:12Z</time>
  <course>279.39</course>
  <speed>3.31</speed>
  <fix>3d</fix>
</trkpt>
<trkpt lat="40.0728299" lon="-105.2304736">
  <ele>1602.32</ele>
  <time>2026-08-27T18:31:12Z</time>
  <course>278.28</course>
  <speed>3.28977202857584</speed>
  <fix>3d</fix>
</trkpt>
<trkpt lat="40.0728294" lon="-105.2304689">
  <ele>1602.25</ele>
  <time>2026-08-27T18:31:12Z</time>
  <course>279.33</course>
  <speed>3.31</speed>
  <fix>3d</fix>
</trkpt>
<trkpt lat="40.0728309" lon="-105.2304813">
  <ele>1602.32</ele>
  <time>2026-08-27T18:31:12Z</time>
  <course>278.13</course>
  <speed>3.309531688925187</speed>
  <fix>3d</fix>
</trkpt>
<trkpt lat="40.0728304" lon="-105.2304766">
  <ele>1602.25</ele>
  <time>2026-08-27T18:31:12Z</time>
  <course>279.27</course>
  <speed>3.32</speed>
  <fix>3d</fix>
</trkpt>
<trkpt lat="40.0728318" lon="-105.2304891">
  <ele>1602.32</ele>
  <time>2026-08-27T18:31:12Z</time>
  <course>278.04</course>
  <speed>3.329294219500584</speed>
  <fix>3d</fix>
</trkpt>
<trkpt lat="40.0728314" lon="-105.2304843">
  <ele>1602.24</ele>
  <time>2026-08-27T18:31:12Z</time>
  <course>279.2</course>
  <speed>3.34</speed>
  <fix>3d</fix>
</trkpt>
<trkpt lat="40.0728328" lon="-105.2304969">
  <ele>1602.32</ele>
  <time>2026-08-27T18:31:12Z</time>
  <course>277.99</course>
  <speed>3.3194125986385</speed>
  <fix>3d</fix>
</trkpt>
<trkpt lat="40.0728323" lon="-105.230492">
  <ele>1602.24</ele>
  <time>2026-08-27T18:31:12Z</time>
  <course>279.13</course>
  <speed>3.34</speed>
  <fix>3d</fix>
</trkpt>
<trkpt lat="40.0728337" lon="-105.2305046">
  <ele>1602.31</ele>
  <time>2026-08-27T18:31:12Z</time>
  <course>277.96</course>
  <speed>3.288236609491476</speed>
  <fix>3d</fix>
</trkpt>
<trkpt lat="40.0728333" lon="-105.2304998">
  <ele>1602.24</ele>
  <time>2026-08-27T18:31:12Z</time>
  <course>279.06</course>
  <speed>3.33</speed>
  <fix>3d</fix>
</trkpt>
<trkpt lat="40.0728347" lon="-105.2305122">
  <ele>1602.31</ele>
  <time>2026-08-27T18:31:12Z</time>
  <course>277.93</course>
  <speed>3.2372982562624655</speed>
  <fix>3d</fix>
</trkpt>
<trkpt lat="40.0728342" lon="-105.2305075">
  <ele>1602.24</ele>
  <time>2026-08-27T18:31:12Z</time>
  <course>278.99</course>
  <speed>3.3</speed>
  <fix>3d</fix>
</trkpt>
<trkpt lat="40.0728356" lon="-105.2305197">
  <ele>1602.32</ele>
  <time>2026-08-27T18:31:12Z</time>
  <course>277.89</course>
  <speed>3.155202053751867</speed>
  <fix>3d</fix>
</trkpt>
<trkpt lat="40.0728351" lon="-105.2305151">
  <ele>1602.24</ele>
  <time>2026-08-27T18:31:12Z</time>
  <course>278.93</course>
  <speed>3.23</speed>
  <fix>3d</fix>
</trkpt>
<trkpt lat="40.0728364" lon="-105.230527">
  <ele>1602.32</ele>
  <time>2026-08-27T18:31:12Z</time>
  <course>277.85</course>
  <speed>3.043451987464235</speed>
  <fix>3d</fix>
</trkpt>
<trkpt lat="40.072836" lon="-105.2305225">
  <ele>1602.24</ele>
  <time>2026-08-27T18:31:12Z</time>
  <course>278.88</course>
  <speed>3.14</speed>
  <fix>3d</fix>
</trkpt>
<trkpt lat="40.0728373" lon="-105.230534">
  <ele>1602.33</ele>
  <time>2026-08-27T18:31:12Z</time>
  <course>277.82</course>
  <speed>2.9119237627383034</speed>
  <fix>3d</fix>
</trkpt>
<trkpt lat="40.0728369" lon="-105.2305297">
  <ele>1602.24</ele>
  <time>2026-08-27T18:31:12Z</time>
  <course>278.83</course>
  <speed>3.02</speed>
  <fix>3d</fix>
</trkpt>
<trkpt lat="40.072838" lon="-105.2305406">
  <ele>1602.33</ele>
  <time>2026-08-27T18:31:12Z</time>
  <course>277.78</course>
  <speed>2.7393612394133053</speed>
  <fix>3d</fix>
</trkpt>
<trkpt lat="40.0728376" lon="-105.2305365">
  <ele>1602.25</ele>
  <time>2026-08-27T18:31:12Z</time>
  <course>278.8</course>
  <speed>2.88</speed>
  <fix>3d</fix>
</trkpt>
<trkpt lat="40.0728388" lon="-105.2305468">
  <ele>1602.33</ele>
  <time>2026-08-27T18:31:12Z</time>
  <course>277.74</course>
  <speed>2.5470178640912593</speed>
  <fix>3d</fix>
</trkpt>
<trkpt lat="40.0728384" lon="-105.230543">
  <ele>1602.25</ele>
  <time>2026-08-27T18:31:12Z</time>
  <course>278.77</course>
  <speed>2.7</speed>
  <fix>3d</fix>
</trkpt>
<trkpt lat="40.0728394" lon="-105.2305525">
  <ele>1602.34</ele>
  <time>2026-08-27T18:31:12Z</time>
  <course>277.69</course>
  <speed>2.324994623649698</speed>
  <fix>3d</fix>
</trkpt>
<trkpt lat="40.0728391" lon="-105.230549">
  <ele>1602.25</ele>
  <time>2026-08-27T18:31:12Z</time>
  <course>278.75</course>
  <speed>2.49</speed>
  <fix>3d</fix>
</trkpt>
<trkpt lat="40.07284" lon="-105.2305577">
  <ele>1602.34</ele>
  <time>2026-08-27T18:31:12Z</time>
  <course>277.64</course>
  <speed>2.0619408332927502</speed>
  <fix>3d</fix>
</trkpt>
<trkpt lat="40.0728397" lon="-105.2305546">
  <ele>1602.26</ele>
  <time>2026-08-27T18:31:12Z</time>
  <course>278.73</course>
  <speed>2.26</speed>
  <fix>3d</fix>
</trkpt>
<trkpt lat="40.0728406" lon="-105.2305622">
  <ele>1602.35</ele>
  <time>2026-08-27T18:31:12Z</time>
  <course>277.6</course>
  <speed>1.7974704448196082</speed>
  <fix>3d</fix>
</trkpt>
<trkpt lat="40.0728404" lon="-105.2305595">
  <ele>1602.26</ele>
  <time>2026-08-27T18:31:12Z</time>
  <course>278.73</course>
  <speed>2.0</speed>
  <fix>3d</fix>
</trkpt>
<trkpt lat="40.072841" lon="-105.2305661">
  <ele>1602.35</ele>
  <time>2026-08-27T18:31:12Z</time>
  <course>277.55</course>
  <speed>1.5245327152934436</speed>
  <fix>3d</fix>
</trkpt>
<trkpt lat="40.0728409" lon="-105.2305638">
  <ele>1602.26</ele>
  <time>2026-08-27T18:31:12Z</time>
  <course>278.74</course>
  <speed>1.72</speed>
  <fix>3d</fix>
</trkpt>
<trkpt lat="40.0728414" lon="-105.2305694">
  <ele>1602.34</ele>
  <time>2026-08-27T18:31:12Z</time>
  <course>277.48</course>
  <speed>1.2615070352558484</speed>
  <fix>3d</fix>
</trkpt>
<trkpt lat="40.0728414" lon="-105.2305676">
  <ele>1602.25</ele>
  <time>2026-08-27T18:31:12Z</time>
  <course>278.75</course>
  <speed>1.45</speed>
  <fix>3d</fix>
</trkpt>
<trkpt lat="40.0728417" lon="-105.2305721">
  <ele>1602.34</ele>
  <time>2026-08-27T18:31:12Z</time>
  <course>277.41</course>
  <speed>1.0196568050084303</speed>
  <fix>3d</fix>
</trkpt>
<trkpt lat="40.0728417" lon="-105.2305706">
  <ele>1602.25</ele>
  <time>2026-08-27T18:31:12Z</time>
  <course>278.77</course>
  <speed>1.19</speed>
  <fix>3d</fix>
</trkpt>
<trkpt lat="40.072842" lon="-105.2305743">
  <ele>1602.34</ele>
  <time>2026-08-27T18:31:12Z</time>
  <course>277.34</course>
  <speed>0.8075270893288967</speed>
  <fix>3d</fix>
</trkpt>
<trkpt lat="40.072842" lon="-105.2305732">
  <ele>1602.24</ele>
  <time>2026-08-27T18:31:12Z</time>
  <course>278.75</course>
  <speed>0.96</speed>
  <fix>3d</fix>
</trkpt>
<trkpt lat="40.0728422" lon="-105.230576">
  <ele>1602.33</ele>
  <time>2026-08-27T18:31:12Z</time>
  <course>277.31</course>
  <speed>0.6251399843235114</speed>
  <fix>3d</fix>
</trkpt>
<trkpt lat="40.0728423" lon="-105.2305751">
  <ele>1602.24</ele>
  <time>2026-08-27T18:31:12Z</time>
  <course>278.64</course>
  <speed>0.75</speed>
  <fix>3d</fix>
</trkpt>
<trkpt lat="40.0728424" lon="-105.2305773">
  <ele>1602.32</ele>
  <time>2026-08-27T18:31:12Z</time>
  <course>277.29</course>
  <speed>0.472652091923859</speed>
  <fix>3d</fix>
</trkpt>
<trkpt lat="40.0728424" lon="-105.2305767">
  <ele>1602.24</ele>
  <time>2026-08-27T18:31:12Z</time>
  <course>278.38</course>
  <speed>0.57</speed>
  <fix>3d</fix>
</trkpt>
<trkpt lat="40.0728425" lon="-105.2305783">
  <ele>1602.32</ele>
  <time>2026-08-27T18:31:12Z</time>
  <course>277.3</course>
  <speed>0.34132096331752027</speed>
  <fix>3d</fix>
</trkpt>
<trkpt lat="40.0728425" lon="-105.2305779">
  <ele>1602.24</ele>
  <time>2026-08-27T18:31:12Z</time>
  <course>277.84</course>
  <speed>0.42</speed>
  <fix>3d</fix>
</trkpt>
<trkpt lat="40.0728425" lon="-105.230579">
  <ele>1602.32</ele>
  <time>2026-08-27T18:31:12Z</time>
  <course>277.33</course>
  <speed>0.24083189157584592</speed>
  <fix>3d</fix>
</trkpt>
<trkpt lat="40.0728426" lon="-105.2305787">
  <ele>1602.24</ele>
  <time>2026-08-27T18:31:12Z</time>
  <course>276.86</course>
  <speed>0.3</speed>
  <fix>3d</fix>
</trkpt>
<trkpt lat="40.0728426" lon="-105.2305795">
  <ele>1602.32</ele>
  <time>2026-08-27T18:31:12Z</time>
  <course>277.37</course>
  <speed>0.16031219541881397</speed>
  <fix>3d</fix>
</trkpt>
<trkpt lat="40.0728426" lon="-105.2305792">
  <ele>1602.24</ele>
  <time>2026-08-27T18:31:12Z</time>
  <course>275.19</course>
  <speed>0.2</speed>
  <fix>3d</fix>
</trkpt>
<trkpt lat="40.0728426" lon="-105.2305798">
  <ele>1602.32</ele>
  <time>2026-08-27T18:31:12Z</time>
  <course>277.4</course>
  <speed>0.12</speed>
  <fix>3d</fix>
</trkpt>
<trkpt lat="40.0728426" lon="-105.2305796">
  <ele>1602.24</ele>
  <time>2026-08-27T18:31:12Z</time>
  <course>272.41</course>
  <speed>0.14</speed>
  <fix>3d</fix>
</trkpt>
<trkpt lat="40.0728426" lon="-105.23058">
  <ele>1602.33</ele>
  <time>2026-08-27T18:31:12Z</time>
  <course>277.42</course>
  <speed>0.1</speed>
  <fix>3d</fix>
</trkpt>
<trkpt lat="40.0728426" lon="-105.23058">
  <ele>1602.25</ele>
  <time>2026-08-27T18:31:12Z</time>
  <course>268.5</course>
  <speed>0.1</speed>
  <fix>3d</fix>
</trkpt>
<trkpt lat="40.0728426" lon="-105.2305803">
  <ele>1602.33</ele>
  <time>2026-08-27T18:31:12Z</time>
  <course>277.81</course>
  <speed>0.09</speed>
  <fix>3d</fix>
</trkpt>
<trkpt lat="40.0728426" lon="-105.2305801">
  <ele>1602.25</ele>
  <time>2026-08-27T18:31:12Z</time>
  <course>264.99</course>
  <speed>0.08</speed>
  <fix>3d</fix>
</trkpt>
<trkpt lat="40.0728426" lon="-105.2305805">
  <ele>1602.33</ele>
  <time>2026-08-27T18:31:12Z</time>
  <course>282.44</course>
  <speed>0.08</speed>
  <fix>3d</fix>
</trkpt>
<trkpt lat="40.0728426" lon="-105.2305804">
  <ele>1602.25</ele>
  <time>2026-08-27T18:31:12Z</time>
  <course>262.96</course>
  <speed>0.08</speed>
  <fix>3d</fix>
</trkpt>
<trkpt lat="40.0728426" lon="-105.2305806">
  <ele>1602.34</ele>
  <time>2026-08-27T18:31:12Z</time>
  <course>291.11</course>
  <speed>0.07</speed>
  <fix>3d</fix>
</trkpt>
<trkpt lat="40.0728426" lon="-105.2305806">
  <ele>1602.26</ele>
  <time>2026-08-27T18:31:12Z</time>
  <course>260.4</course>
  <speed>0.07</speed>
  <fix>3d</fix>
</trkpt>
<trkpt lat="40.0728426" lon="-105.2305808">
  <ele>1602.34</ele>
  <time>2026-08-27T18:31:12Z</time>
  <course>302.12</course>
  <speed>0.05</speed>
  <fix>3d</fix>
</trkpt>
<trkpt lat="40.0728426" lon="-105.2305807">
  <ele>1602.26</ele>
  <time>2026-08-27T18:31:12Z</time>
  <course>254.24</course>
  <speed>0.06</speed>
  <fix>3d</fix>
</trkpt>
<trkpt lat="40.0728426" lon="-105.2305808">
  <ele>1602.34</ele>
  <time>2026-08-27T18:31:12Z</time>
  <course>314.39</course>
  <speed>0.02</speed>
  <fix>3d</fix>
</trkpt>
<trkpt lat="40.0728426" lon="-105.2305808">
  <ele>1602.26</ele>
  <time>2026-08-27T18:31:12Z</time>
  <course>241.39</course>
  <speed>0.04</speed>
  <fix>3d</fix>
</trkpt>
<trkpt lat="40.0728426" lon="-105.2305809">
  <ele>1602.34</ele>
  <time>2026-08-27T18:31:12Z</time>
  <course>327.17</course>
  <speed>0.0</speed>
  <fix>3d</fix>
</trkpt>
<trkpt lat="40.0728426" lon="-105.2305809">
  <ele>1602.26</ele>
  <time>2026-08-27T18:31:12Z</time>
  <course>213.58</course>
  <speed>0.03</speed>
  <fix>3d</fix>
</trkpt>
<trkpt lat="40.0728426" lon="-105.2305808">
  <ele>1602.35</ele>
  <time>2026-08-27T18:31:12Z</time>
  <course>340.15</course>
  <speed>0.03</speed>
  <fix>3d</fix>
</trkpt>
<trkpt lat="40.0728426" lon="-105.230581">
  <ele>1602.26</ele>
  <time>2026-08-27T18:31:12Z</time>
  <course>167.05</course>
  <speed>0.03</speed>
  <fix>3d</fix>
</trkpt>
<trkpt lat="40.0728426" lon="-105.2305807">
  <ele>1602.35</ele>
  <time>2026-08-27T18:31:12Z</time>
  <course>353.14</course>
  <speed>0.06</speed>
  <fix>3d</fix>
</trkpt>
<trkpt lat="40.0728425" lon="-105.230581">
  <ele>1602.25</ele>
  <time>2026-08-27T18:31:12Z</time>
  <course>136.98</course>
  <speed>0.04</speed>
  <fix>3d</fix>
</trkpt>
<trkpt lat="40.0728425" lon="-105.2305807">
  <ele>1602.34</ele>
  <time>2026-08-27T18:31:12Z</time>
  <course>5.17</course>
  <speed>0.09</speed>
  <fix>3d</fix>
</trkpt>
<trkpt lat="40.0728424" lon="-105.2305809">
  <ele>1602.25</ele>
  <time>2026-08-27T18:31:12Z</time>
  <course>123.21</course>
  <speed>0.07</speed>
  <fix>3d</fix>
</trkpt>
<trkpt lat="40.0728425" lon="-105.2305805">
  <ele>1602.34</ele>
  <time>2026-08-27T18:31:12Z</time>
  <course>12.76</course>
  <speed>0.11</speed>
  <fix>3d</fix>
</trkpt>
<trkpt lat="40.0728424" lon="-105.2305806">
  <ele>1602.25</ele>
  <time>2026-08-27T18:31:12Z</time>
  <course>115.82</course>
  <speed>0.09</speed>
  <fix>3d</fix>
</trkpt>
<trkpt lat="40.0728424" lon="-105.2305802">
  <ele>1602.34</ele>
  <time>2026-08-27T18:31:12Z</time>
  <course>15.83</course>
  <speed>0.14</speed>
  <fix>3d</fix>
</trkpt>
<trkpt lat="40.0728423" lon="-105.2305805">
  <ele>1602.24</ele>
  <time>2026-08-27T18:31:12Z</time>
  <course>111.33</course>
  <speed>0.11</speed>
  <fix>3d</fix>
</trkpt>
<trkpt lat="40.0728423" lon="-105.2305799">
  <ele>1602.33</ele>
  <time>2026-08-27T18:31:12Z</time>
  <course>15.88</course>
  <speed>0.16031219541881397</speed>
  <fix>3d</fix>
</trkpt>
<trkpt lat="40.0728422" lon="-105.2305802">
  <ele>1602.24</ele>
  <time>2026-08-27T18:31:12Z</time>
  <course>108.21</course>
  <speed>0.13</speed>
  <fix>3d</fix>
</trkpt>
<trkpt lat="40.0728423" lon="-105.2305795">
  <ele>1602.33</ele>
  <time>2026-08-27T18:31:12Z</time>
  <course>14.59</course>
  <speed>0.17</speed>
  <fix>3d</fix>
</trkpt>
<trkpt lat="40.0728421" lon="-105.2305799">
  <ele>1602.24</ele>
  <time>2026-08-27T18:31:12Z</time>
  <course>105.86</course>
  <speed>0.14</speed>
  <fix>3d</fix>
</trkpt>
<trkpt lat="40.0728422" lon="-105.2305791">
  <ele>1602.33</ele>
  <time>2026-08-27T18:31:12Z</time>
  <course>13.13</course>
  <speed>0.18</speed>
  <fix>3d</fix>
</trkpt>
<trkpt lat="40.0728421" lon="-105.2305795">
  <ele>1602.24</ele>
  <time>2026-08-27T18:31:12Z</time>
  <course>103.94</course>
  <speed>0.15</speed>
  <fix>3d</fix>
</trkpt>
<trkpt lat="40.0728422" lon="-105.2305787">
  <ele>1602.32</ele>
  <time>2026-08-27T18:31:12Z</time>
  <course>12.1</course>
  <speed>0.19</speed>
  <fix>3d</fix>
</trkpt>
<trkpt lat="40.072842" lon="-105.2305791">
  <ele>1602.24</ele>
  <time>2026-08-27T18:31:12Z</time>
  <course>102.24</course>
  <speed>0.16</speed>
  <fix>3d</fix>
</trkpt>
<trkpt lat="40.0728421" lon="-105.2305783">
  <ele>1602.32</ele>
  <time>2026-08-27T18:31:12Z</time>
  <course>11.61</course>
  <speed>0.19</speed>
  <fix>3d</fix>
</trkpt>
<trkpt lat="40.072842" lon="-105.2305787">
  <ele>1602.24</ele>
  <time>2026-08-27T18:31:12Z</time>
  <course>100.65</course>
  <speed>0.16</speed>
  <fix>3d</fix>
</trkpt>
<trkpt lat="40.0728421" lon="-105.2305779">
  <ele>1602.32</ele>
  <time>2026-08-27T18:31:12Z</time>
  <course>11.53</course>
  <speed>0.19</speed>
  <fix>3d</fix>
</trkpt>
<trkpt lat="40.0728419" lon="-105.2305784">
  <ele>1602.24</ele>
  <time>2026-08-27T18:31:12Z</time>
  <course>99.17</course>
  <speed>0.16</speed>
  <fix>3d</fix>
</trkpt>
<trkpt lat="40.072842" lon="-105.2305776">
  <ele>1602.32</ele>
  <time>2026-08-27T18:31:12Z</time>
  <course>11.64</course>
  <speed>0.19</speed>
  <fix>3d</fix>
</trkpt>
<trkpt lat="40.0728419" lon="-105.230578">
  <ele>1602.24</ele>
  <time>2026-08-27T18:31:12Z</time>
  <course>97.78</course>
  <speed>0.16</speed>
  <fix>3d</fix>
</trkpt>
<trkpt lat="40.072842" lon="-105.2305772">
  <ele>1602.32</ele>
  <time>2026-08-27T18:31:12Z</time>
  <course>11.78</course>
  <speed>0.18</speed>
  <fix>3d</fix>
</trkpt>
<trkpt lat="40.0728418" lon="-105.2305777">
  <ele>1602.24</ele>
  <time>2026-08-27T18:31:12Z</time>
  <course>96.38</course>
  <speed>0.15</speed>
  <fix>3d</fix>
</trkpt>
<trkpt lat="40.0728419" lon="-105.2305768">
  <ele>1602.32</ele>
  <time>2026-08-27T18:31:12Z</time>
  <course>11.89</course>
  <speed>0.17</speed>
  <fix>3d</fix>
</trkpt>
<trkpt lat="40.0728418" lon="-105.2305772">
  <ele>1602.24</ele>
  <time>2026-08-27T18:31:12Z</time>
  <course>94.94</course>
  <speed>0.14</speed>
  <fix>3d</fix>
</trkpt>
<trkpt lat="40.0728419" lon="-105.2305765">
  <ele>1602.32</ele>
  <time>2026-08-27T18:31:12Z</time>
  <course>11.95</course>
  <speed>0.16</speed>
  <fix>3d</fix>
</trkpt>
<trkpt lat="40.0728418" lon="-105.2305769">
  <ele>1602.24</ele>
  <time>2026-08-27T18:31:12Z</time>
  <course>93.08</course>
  <speed>0.13</speed>
  <fix>3d</fix>
</trkpt>
<trkpt lat="40.0728419" lon="-105.2305762">
  <ele>1602.33</ele>
  <time>2026-08-27T18:31:13Z</time>
  <course>11.97</course>
  <speed>0.14</speed>
  <fix>3d</fix>
</trkpt>
<trkpt lat="40.0728418" lon="-105.2305766">
  <ele>1602.25</ele>
  <time>2026-08-27T18:31:13Z</time>
  <course>90.89</course>
  <speed>0.12</speed>
  <fix>3d</fix>
</trkpt>
<trkpt lat="40.0728419" lon="-105.230576">
  <ele>1602.33</ele>
  <time>2026-08-27T18:31:13Z</time>
  <course>11.94</course>
  <speed>0.13</speed>
  <fix>3d</fix>
</trkpt>
<trkpt lat="40.0728418" lon="-105.2305763">
  <ele>1602.25</ele>
  <time>2026-08-27T18:31:13Z</time>
  <course>88.93</course>
  <speed>0.11</speed>
  <fix>3d</fix>
</trkpt>
<trkpt lat="40.0728419" lon="-105.2305757">
  <ele>1602.34</ele>
  <time>2026-08-27T18:31:13Z</time>
  <course>11.91</course>
  <speed>0.12041594578792296</speed>
  <fix>3d</fix>
</trkpt>
<trkpt lat="40.0728418" lon="-105.2305761">
  <ele>1602.25</ele>
  <time>2026-08-27T18:31:13Z</time>
  <course>86.56</course>
  <speed>0.09</speed>
  <fix>3d</fix>
</trkpt>
<trkpt lat="40.0728419" lon="-105.2305755">
  <ele>1602.34</ele>
  <time>2026-08-27T18:31:13Z</time>
  <course>11.88</course>
  <speed>0.1004987562112089</speed>
  <fix>3d</fix>
</trkpt>
<trkpt lat="40.0728418" lon="-105.2305758">
  <ele>1602.25</ele>
  <time>2026-08-27T18:31:13Z</time>
  <course>83.3</course>
  <speed>0.08</speed>
  <fix>3d</fix>
</trkpt>
<trkpt lat="40.0728419" lon="-105.2305754">
  <ele>1602.33</ele>
  <time>2026-08-27T18:31:13Z</time>
  <course>11.87</course>
  <speed>0.09055385138137417</speed>
  <fix>3d</fix>
</trkpt>
<trkpt lat="40.0728418" lon="-105.2305757">
  <ele>1602.24</ele>
  <time>2026-08-27T18:31:13Z</time>
  <course>79.27</course>
  <speed>0.07</speed>
  <fix>3d</fix>
</trkpt>
<trkpt lat="40.0728419" lon="-105.2305752">
  <ele>1602.31</ele>
  <time>2026-08-27T18:31:13Z</time>
  <course>11.86</course>
  <speed>0.07071067811865475</speed>
  <fix>3d</fix>
</trkpt>
<trkpt lat="40.0728418" lon="-105.2305756">
  <ele>1602.23</ele>
  <time>2026-08-27T18:31:13Z</time>
  <course>74.16</course>
  <speed>0.05</speed>
  <fix>3d</fix>
</trkpt>
<trkpt lat="40.0728419" lon="-105.2305752">
  <ele>1602.25</ele>
  <time>2026-08-27T18:31:13Z</time>
  <course>11.86</course>
  <speed>0.06082762530298219</speed>
  <fix>3d</fix>
</trkpt>
<trkpt lat="40.0728418" lon="-105.2305754">
  <ele>1602.2</ele>
  <time>2026-08-27T18:31:13Z</time>
  <course>67.48</course>
  <speed>0.04</speed>
  <fix>3d</fix>
</trkpt>
<trkpt lat="40.0728419" lon="-105.2305751">
  <ele>1602.15</ele>
  <time>2026-08-27T18:31:13Z</time>
  <course>11.85</course>
  <speed>0.05099019513592785</speed>
  <fix>3d</fix>
</trkpt>
<trkpt lat="40.0728418" lon="-105.2305753">
  <ele>1602.13</ele>
  <time>2026-08-27T18:31:13Z</time>
  <course>58.12</course>
  <speed>0.03</speed>
  <fix>3d</fix>
</trkpt>
<trkpt lat="40.0728419" lon="-105.230575">
  <ele>1602.0</ele>
  <time>2026-08-27T18:31:13Z</time>
  <course>11.85</course>
  <speed>0.0412310562561766</speed>
  <fix>3d</fix>
</trkpt>
<trkpt lat="40.0728419" lon="-105.2305753">
  <ele>1602.02</ele>
  <time>2026-08-27T18:31:13Z</time>
  <course>45.12</course>
  <speed>0.03</speed>
  <fix>3d</fix>
</trkpt>
<trkpt lat="40.0728419" lon="-105.230575">
  <ele>1601.82</ele>
  <time>2026-08-27T18:31:13Z</time>
  <course>11.84</course>
  <speed>0.0316227766016838</speed>
  <fix>3d</fix>
</trkpt>
<trkpt lat="40.0728419" lon="-105.2305753">
  <ele>1601.87</ele>
  <time>2026-08-27T18:31:13Z</time>
  <course>27.77</course>
  <speed>0.02</speed>
  <fix>3d</fix>
</trkpt>
<trkpt lat="40.072842" lon="-105.230575">
  <ele>1601.59</ele>
  <time>2026-08-27T18:31:13Z</time>
  <course>11.83</course>
  <speed>0.022360679774997897</speed>
  <fix>3d</fix>
</trkpt>
<trkpt lat="40.0728419" lon="-105.2305753">
  <ele>1601.67</ele>
  <time>2026-08-27T18:31:13Z</time>
  <course>8.97</course>
  <speed>0.02</speed>
  <fix>3d</fix>
</trkpt>
<trkpt lat="40.072842" lon="-105.230575">
  <ele>1601.32</ele>
  <time>2026-08-27T18:31:13Z</time>
  <course>11.82</course>
  <speed>0.01414213562373095</speed>
  <fix>3d</fix>
</trkpt>
<trkpt lat="40.072842" lon="-105.2305753">
  <ele>1601.43</ele>
  <time>2026-08-27T18:31:13Z</time>
  <course>352.28</course>
  <speed>0.02</speed>
  <fix>3d</fix>
</trkpt>
<trkpt lat="40.072842" lon="-105.2305751">
  <ele>1601.02</ele>
  <time>2026-08-27T18:31:13Z</time>
  <course>11.81</course>
  <speed>0.01</speed>
  <fix>3d</fix>
</trkpt>
<trkpt lat="40.072842" lon="-105.2305753">
  <ele>1601.15</ele>
  <time>2026-08-27T18:31:13Z</time>
  <course>339.39</course>
  <speed>0.02</speed>
  <fix>3d</fix>
</trkpt>
<trkpt lat="40.072842" lon="-105.2305751">
  <ele>1600.72</ele>
  <time>2026-08-27T18:31:13Z</time>
  <course>11.8</course>
  <speed>0.0</speed>
  <fix>3d</fix>
</trkpt>
<trkpt lat="40.072842" lon="-105.2305753">
  <ele>1600.86</ele>
  <time>2026-08-27T18:31:13Z</time>
  <course>330.14</course>
  <speed>0.02</speed>
  <fix>3d</fix>
</trkpt>
<trkpt lat="40.0728421" lon="-105.2305751">
  <ele>1600.41</ele>
  <time>2026-08-27T18:31:13Z</time>
  <course>11.8</course>
  <speed>0.0</speed>
  <fix>3d</fix>
</trkpt>
<trkpt lat="40.0728421" lon="-105.2305753">
  <ele>1600.55</ele>
  <time>2026-08-27T18:31:13Z</time>
  <course>323.8</course>
  <speed>0.03</speed>
  <fix>3d</fix>
</trkpt>
<trkpt lat="40.0728421" lon="-105.2305751">
  <ele>1600.11</ele>
  <time>2026-08-27T18:31:13Z</time>
  <course>11.79</course>
  <speed>0.0</speed>
  <fix>3d</fix>
</trkpt>
<trkpt lat="40.0728421" lon="-105.2305753">
  <ele>1600.24</ele>
  <time>2026-08-27T18:31:13Z</time>
  <course>319.23</course>
  <speed>0.03</speed>
  <fix>3d</fix>
</trkpt>
<trkpt lat="40.0728421" lon="-105.2305752">
  <ele>1599.81</ele>
  <time>2026-08-27T18:31:13Z</time>
  <course>11.78</course>
  <speed>0.0</speed>
  <fix>3d</fix>
</trkpt>
<trkpt lat="40.0728422" lon="-105.2305753">
  <ele>1599.94</ele>
  <time>2026-08-27T18:31:13Z</time>
  <course>315.89</course>
  <speed>0.03</speed>
  <fix>3d</fix>
</trkpt>
<trkpt lat="40.0728421" lon="-105.2305752">
  <ele>1599.51</ele>
  <time>2026-08-27T18:31:13Z</time>
  <course>11.78</course>
  <speed>0.0</speed>
  <fix>3d</fix>
</trkpt>
<trkpt lat="40.0728423" lon="-105.2305753">
  <ele>1599.64</ele>
  <time>2026-08-27T18:31:13Z</time>
  <course>313.77</course>
  <speed>0.03</speed>
  <fix>3d</fix>
</trkpt>
<trkpt lat="40.0728422" lon="-105.2305753">
  <ele>1599.21</ele>
  <time>2026-08-27T18:31:13Z</time>
  <course>11.77</course>
  <speed>0.0</speed>
  <fix>3d</fix>
</trkpt>
<trkpt lat="40.0728423" lon="-105.2305754">
  <ele>1599.34</ele>
  <time>2026-08-27T18:31:13Z</time>
  <course>312.33</course>
  <speed>0.03</speed>
  <fix>3d</fix>
</trkpt>
<trkpt lat="40.0728422" lon="-105.2305753">
  <ele>1598.9</ele>
  <time>2026-08-27T18:31:13Z</time>
  <course>11.76</course>
  <speed>0.0</speed>
  <fix>3d</fix>
</trkpt>
<trkpt lat="40.0728423" lon="-105.2305755">
  <ele>1599.04</ele>
  <time>2026-08-27T18:31:13Z</time>
  <course>310.93</course>
  <speed>0.03</speed>
  <fix>3d</fix>
</trkpt>
<trkpt lat="40.0728422" lon="-105.2305753">
  <ele>1598.6</ele>
  <time>2026-08-27T18:31:13Z</time>
  <course>11.75</course>
  <speed>0.0</speed>
  <fix>3d</fix>
</trkpt>
<trkpt lat="40.0728424" lon="-105.2305756">
  <ele>1598.74</ele>
  <time>2026-08-27T18:31:13Z</time>
  <course>309.56</course>
  <speed>0.02</speed>
  <fix>3d</fix>
</trkpt>
<trkpt lat="40.0728422" lon="-105.2305754">
  <ele>1598.29</ele>
  <time>2026-08-27T18:31:13Z</time>
  <course>11.74</course>
  <speed>0.01</speed>
  <fix>3d</fix>
</trkpt>
<trkpt lat="40.0728424" lon="-105.2305756">
  <ele>1598.44</ele>
  <time>2026-08-27T18:31:13Z</time>
  <course>308.38</course>
  <speed>0.02</speed>
  <fix>3d</fix>
</trkpt>
<trkpt lat="40.0728422" lon="-105.2305754">
  <ele>1597.99</ele>
  <time>2026-08-27T18:31:13Z</time>
  <course>11.73</course>
  <speed>0.01</speed>
  <fix>3d</fix>
</trkpt>
<trkpt lat="40.0728424" lon="-105.2305756">
  <ele>1598.15</ele>
  <time>2026-08-27T18:31:13Z</time>
  <course>307.59</course>
  <speed>0.02</speed>
  <fix>3d</fix>
</trkpt>
<trkpt lat="40.0728423" lon="-105.2305754">
  <ele>1597.69</ele>
  <time>2026-08-27T18:31:13Z</time>
  <course>11.73</course>
  <speed>0.01414213562373095</speed>
  <fix>3d</fix>
</trkpt>
<trkpt lat="40.0728425" lon="-105.2305756">
  <ele>1597.85</ele>
  <time>2026-08-27T18:31:13Z</time>
  <course>307.52</course>
  <speed>0.01</speed>
  <fix>3d</fix>
</trkpt>
<trkpt lat="40.0728423" lon="-105.2305755">
  <ele>1597.39</ele>
  <time>2026-08-27T18:31:13Z</time>
  <course>11.72</course>
  <speed>0.022360679774997897</speed>
  <fix>3d</fix>
</trkpt>
<trkpt lat="40.0728425" lon="-105.2305757">
  <ele>1597.56</ele>
  <time>2026-08-27T18:31:13Z</time>
  <course>307.72</course>
  <speed>0.01</speed>
  <fix>3d</fix>
</trkpt>
<trkpt lat="40.0728423" lon="-105.2305755">
  <ele>1597.13</ele>
  <time>2026-08-27T18:31:13Z</time>
  <course>11.72</course>
  <speed>0.022360679774997897</speed>
  <fix>3d</fix>
</trkpt>
<trkpt lat="40.0728425" lon="-105.2305758">
  <ele>1597.28</ele>
  <time>2026-08-27T18:31:13Z</time>
  <course>308.75</course>
  <speed>0.01</speed>
  <fix>3d</fix>
</trkpt>
<trkpt lat="40.0728423" lon="-105.2305755">
  <ele>1596.91</ele>
  <time>2026-08-27T18:31:13Z</time>
  <course>11.71</course>
  <speed>0.0282842712474619</speed>
  <fix>3d</fix>
</trkpt>
<trkpt lat="40.0728425" lon="-105.2305758">
  <ele>1597.03</ele>
  <time>2026-08-27T18:31:13Z</time>
  <course>311.43</course>
  <speed>0.0</speed>
  <fix>3d</fix>
</trkpt>
<trkpt lat="40.0728423" lon="-105.2305755">
  <ele>1596.73</ele>
  <time>2026-08-27T18:31:13Z</time>
  <course>11.7</course>
  <speed>0.0282842712474619</speed>
  <fix>3d</fix>
</trkpt>
<trkpt lat="40.0728425" lon="-105.2305758">
  <ele>1596.82</ele>
  <time>2026-08-27T18:31:13Z</time>
  <course>314.33</course>
  <speed>0.0</speed>
  <fix>3d</fix>
</trkpt>
<trkpt lat="40.0728423" lon="-105.2305755">
  <ele>1596.6</ele>
  <time>2026-08-27T18:31:13Z</time>
  <course>11.7</course>
  <speed>0.0282842712474619</speed>
  <fix>3d</fix>
</trkpt>
<trkpt lat="40.0728425" lon="-105.2305758">
  <ele>1596.65</ele>
  <time>2026-08-27T18:31:13Z</time>
  <course>330.67</course>
  <speed>0.0</speed>
  <fix>3d</fix>
</trkpt>
<trkpt lat="40.0728423" lon="-105.2305755">
  <ele>1596.49</ele>
  <time>2026-08-27T18:31:13Z</time>
  <course>11.69</course>
  <speed>0.03605551275463989</speed>
  <fix>3d</fix>
</trkpt>
<trkpt lat="40.0728425" lon="-105.2305758">
  <ele>1596.53</ele>
  <time>2026-08-27T18:31:13Z</time>
  <course>113.11</course>
  <speed>0.0</speed>
  <fix>3d</fix>
</trkpt>
<trkpt lat="40.0728423" lon="-105.2305755">
  <ele>1596.4</ele>
  <time>2026-08-27T18:31:13Z</time>
  <course>11.69</course>
  <speed>0.03605551275463989</speed>
  <fix>3d</fix>
</trkpt>
<trkpt lat="40.0728425" lon="-105.2305758">
  <ele>1596.43</ele>
  <time>2026-08-27T18:31:13Z</time>
  <course>109.81</course>
  <speed>0.0</speed>
  <fix>3d</fix>
</trkpt>
<trkpt lat="40.0728423" lon="-105.2305755">
  <ele>1596.31</ele>
  <time>2026-08-27T18:31:13Z</time>
  <course>11.68</course>
  <speed>0.04242640687119285</speed>
  <fix>3d</fix>
</trkpt>
<trkpt lat="40.0728425" lon="-105.2305758">
  <ele>1596.34</ele>
  <time>2026-08-27T18:31:13Z</time>
  <course>109.64</course>
  <speed>0.0</speed>
  <fix>3d</fix>
</trkpt>
<trkpt lat="40.0728423" lon="-105.2305755">
  <ele>1596.21</ele>
  <time>2026-08-27T18:31:13Z</time>
  <course>11.67</course>
  <speed>0.04242640687119285</speed>
  <fix>3d</fix>
</trkpt>
<trkpt lat="40.0728425" lon="-105.2305758">
  <ele>1596.25</ele>
  <time>2026-08-27T18:31:13Z</time>
  <course>110.2</course>
  <speed>0.01</speed>
  <fix>3d</fix>
</trkpt>
<trkpt lat="40.0728423" lon="-105.2305755">
  <ele>1596.12</ele>
  <time>2026-08-27T18:31:13Z</time>
  <course>11.67</course>
  <speed>0.04242640687119285</speed>
  <fix>3d</fix>
</trkpt>
<trkpt lat="40.0728425" lon="-105.2305758">
  <ele>1596.15</ele>
  <time>2026-08-27T18:31:13Z</time>
  <course>112.53</course>
  <speed>0.01</speed>
  <fix>3d</fix>
</trkpt>
<trkpt lat="40.0728423" lon="-105.2305755">
  <ele>1596.02</ele>
  <time>2026-08-27T18:31:13Z</time>
  <course>11.66</course>
  <speed>0.04242640687119285</speed>
  <fix>3d</fix>
</trkpt>
<trkpt lat="40.0728425" lon="-105.2305758">
  <ele>1596.06</ele>
  <time>2026-08-27T18:31:13Z</time>
  <course>113.08</course>
  <speed>0.01</speed>
  <fix>3d</fix>
</trkpt>
<trkpt lat="40.0728423" lon="-105.2305755">
  <ele>1595.92</ele>
  <time>2026-08-27T18:31:13Z</time>
  <course>11.65</course>
  <speed>0.04242640687119285</speed>
  <fix>3d</fix>
</trkpt>
<trkpt lat="40.0728425" lon="-105.2305757">
  <ele>1595.96</ele>
  <time>2026-08-27T18:31:13Z</time>
  <course>112.1</course>
  <speed>0.01</speed>
  <fix>3d</fix>
</trkpt>
<trkpt lat="40.0728423" lon="-105.2305755">
  <ele>1595.82</ele>
  <time>2026-08-27T18:31:13Z</time>
  <course>11.65</course>
  <speed>0.04242640687119285</speed>
  <fix>3d</fix>
</trkpt>
<trkpt lat="40.0728425" lon="-105.2305756">
  <ele>1595.86</ele>
  <time>2026-08-27T18:31:13Z</time>
  <course>111.61</course>
  <speed>0.01</speed>
  <fix>3d</fix>
</trkpt>
<trkpt lat="40.0728423" lon="-105.2305754">
  <ele>1595.72</ele>
  <time>2026-08-27T18:31:13Z</time>
  <course>11.64</course>
  <speed>0.04242640687119285</speed>
  <fix>3d</fix>
</trkpt>
<trkpt lat="40.0728425" lon="-105.2305756">
  <ele>1595.76</ele>
  <time>2026-08-27T18:31:13Z</time>
  <course>113.13</course>
  <speed>0.01</speed>
  <fix>3d</fix>
</trkpt>
<trkpt lat="40.0728423" lon="-105.2305754">
  <ele>1595.62</ele>
  <time>2026-08-27T18:31:13Z</time>
  <course>11.64</course>
  <speed>0.04242640687119285</speed>
  <fix>3d</fix>
</trkpt>
<trkpt lat="40.0728425" lon="-105.2305756">
  <ele>1595.65</ele>
  <time>2026-08-27T18:31:13Z</time>
  <course>114.93</course>
  <speed>0.01</speed>
  <fix>3d</fix>
</trkpt>
<trkpt lat="40.0728423" lon="-105.2305754">
  <ele>1595.52</ele>
  <time>2026-08-27T18:31:13Z</time>
  <course>11.64</course>
  <speed>0.03605551275463989</speed>
  <fix>3d</fix>
</trkpt>
<trkpt lat="40.0728425" lon="-105.2305756">
  <ele>1595.56</ele>
  <time>2026-08-27T18:31:13Z</time>
  <course>112.11</course>
  <speed>0.01</speed>
  <fix>3d</fix>
</trkpt>
<trkpt lat="40.0728423" lon="-105.2305753">
  <ele>1595.42</ele>
  <time>2026-08-27T18:31:13Z</time>
  <course>11.64</course>
  <speed>0.04242640687119285</speed>
  <fix>3d</fix>
</trkpt>
<trkpt lat="40.0728425" lon="-105.2305755">
  <ele>1595.46</ele>
  <time>2026-08-27T18:31:13Z</time>
  <course>112.23</course>
  <speed>0.01</speed>
  <fix>3d</fix>
</trkpt>
<trkpt lat="40.0728423" lon="-105.2305753">
  <ele>1595.32</ele>
  <time>2026-08-27T18:31:13Z</time>
  <course>11.63</course>
  <speed>0.04242640687119285</speed>
  <fix>3d</fix>
</trkpt>
<trkpt lat="40.0728425" lon="-105.2305755">
  <ele>1595.36</ele>
  <time>2026-08-27T18:31:13Z</time>
  <course>116.9</course>
  <speed>0.01</speed>
  <fix>3d</fix>
</trkpt>
<trkpt lat="40.0728423" lon="-105.2305753">
  <ele>1595.21</ele>
  <time>2026-08-27T18:31:13Z</time>
  <course>11.63</course>
  <speed>0.0282842712474619</speed>
  <fix>3d</fix>
</trkpt>
<trkpt lat="40.0728425" lon="-105.2305755">
  <ele>1595.26</ele>
  <time>2026-08-27T18:31:13Z</time>
  <course>119.27</course>
  <speed>0.01</speed>
  <fix>3d</fix>
</trkpt>
<trkpt lat="40.0728423" lon="-105.2305753">
  <ele>1595.11</ele>
  <time>2026-08-27T18:31:13Z</time>
  <course>11.62</course>
  <speed>0.0282842712474619</speed>
  <fix>3d</fix>
</trkpt>
<trkpt lat="40.0728425" lon="-105.2305754">
  <ele>1595.15</ele>
  <time>2026-08-27T18:31:13Z</time>
  <course>121.35</course>
  <speed>0.01</speed>
  <fix>3d</fix>
</trkpt>
<trkpt lat="40.0728423" lon="-105.2305752">
  <ele>1595.01</ele>
  <time>2026-08-27T18:31:13Z</time>
  <course>11.62</course>
  <speed>0.0282842712474619</speed>
  <fix>3d</fix>
</trkpt>
<trkpt lat="40.0728425" lon="-105.2305753">
  <ele>1595.05</ele>
  <time>2026-08-27T18:31:13Z</time>
  <course>125.01</course>
  <speed>0.01</speed>
  <fix>3d</fix>
</trkpt>
<trkpt lat="40.0728423" lon="-105.2305752">
  <ele>1594.91</ele>
  <time>2026-08-27T18:31:13Z</time>
  <course>11.61</course>
  <speed>0.0282842712474619</speed>
  <fix>3d</fix>
</trkpt>
<trkpt lat="40.0728424" lon="-105.2305753">
  <ele>1594.95</ele>
  <time>2026-08-27T18:31:13Z</time>
  <course>130.73</course>
  <speed>0.01</speed>
  <fix>3d</fix>
</trkpt>
<trkpt lat="40.0728423" lon="-105.2305752">
  <ele>1594.81</ele>
  <time>2026-08-27T18:31:13Z</time>
  <course>11.61</course>
  <speed>0.0282842712474619</speed>
  <fix>3d</fix>
</trkpt>
<trkpt lat="40.0728424" lon="-105.2305753">
  <ele>1594.85</ele>
  <time>2026-08-27T18:31:13Z</time>
  <course>137.23</course>
  <speed>0.01</speed>
  <fix>3d</fix>
</trkpt>
<trkpt lat="40.0728423" lon="-105.2305752">
  <ele>1594.71</ele>
  <time>2026-08-27T18:31:13Z</time>
  <course>11.61</course>
  <speed>0.0282842712474619</speed>
  <fix>3d</fix>
</trkpt>
<trkpt lat="40.0728424" lon="-105.2305753">
  <ele>1594.76</ele>
  <time>2026-08-27T18:31:13Z</time>
  <course>144.59</course>
  <speed>0.01</speed>
  <fix>3d</fix>
</trkpt>
<trkpt lat="40.0728423" lon="-105.2305752">
  <ele>1594.61</ele>
  <time>2026-08-27T18:31:13Z</time>
  <course>11.61</course>
  <speed>0.022360679774997897</speed>
  <fix>3d</fix>
</trkpt>
<trkpt lat="40.0728424" lon="-105.2305753">
  <ele>1594.65</ele>
  <time>2026-08-27T18:31:13Z</time>
  <course>152.37</course>
  <speed>0.0</speed>
  <fix>3d</fix>
</trkpt>
<trkpt lat="40.0728423" lon="-105.2305752">
  <ele>1594.52</ele>
  <time>2026-08-27T18:31:13Z</time>
  <course>11.6</course>
  <speed>0.022360679774997897</speed>
  <fix>3d</fix>
</trkpt>
<trkpt lat="40.0728424" lon="-105.2305753">
  <ele>1594.56</ele>
  <time>2026-08-27T18:31:13Z</time>
  <course>164.29</course>
  <speed>0.0</speed>
  <fix>3d</fix>
</trkpt>
<trkpt lat="40.0728422" lon="-105.2305752">
  <ele>1594.42</ele>
  <time>2026-08-27T18:31:13Z</time>
  <course>11.59</course>
  <speed>0.022360679774997897</speed>
  <fix>3d</fix>
</trkpt>
<trkpt lat="40.0728424" lon="-105.2305753">
  <ele>1594.46</ele>
  <time>2026-08-27T18:31:13Z</time>
  <course>177.38</course>
  <speed>0.0</speed>
  <fix>3d</fix>
</trkpt>
<trkpt lat="40.0728422" lon="-105.2305752">
  <ele>1594.31</ele>
  <time>2026-08-27T18:31:13Z</time>
  <course>11.58</course>
  <speed>0.022360679774997897</speed>
  <fix>3d</fix>
</trkpt>
<trkpt lat="40.0728424" lon="-105.2305753">
  <ele>1594.36</ele>
  <time>2026-08-27T18:31:13Z</time>
  <course>182.65</course>
  <speed>0.0</speed>
  <fix>3d</fix>
</trkpt>
<trkpt lat="40.0728422" lon="-105.2305752">
  <ele>1594.22</ele>
  <time>2026-08-27T18:31:13Z</time>
  <course>11.58</course>
  <speed>0.022360679774997897</speed>
  <fix>3d</fix>
</trkpt>
<trkpt lat="40.0728423" lon="-105.2305753">
  <ele>1594.26</ele>
  <time>2026-08-27T18:31:13Z</time>
  <course>195.0</course>
  <speed>0.0</speed>
  <fix>3d</fix>
</trkpt>
<trkpt lat="40.0728422" lon="-105.2305752">
  <ele>1594.12</ele>
  <time>2026-08-27T18:31:13Z</time>
  <course>11.57</course>
  <speed>0.022360679774997897</speed>
  <fix>3d</fix>
</trkpt>
<trkpt lat="40.0728423" lon="-105.2305753">
  <ele>1594.15</ele>
  <time>2026-08-27T18:31:13Z</time>
  <course>210.94</course>
  <speed>0.0</speed>
  <fix>3d</fix>
</trkpt>
<trkpt lat="40.0728422" lon="-105.2305752">
  <ele>1594.02</ele>
  <time>2026-08-27T18:31:13Z</time>
  <course>11.57</course>
  <speed>0.022360679774997897</speed>
  <fix>3d</fix>
</trkpt>
<trkpt lat="40.0728423" lon="-105.2305753">
  <ele>1594.05</ele>
  <time>2026-08-27T18:31:13Z</time>
  <course>217.0</course>
  <speed>0.0</speed>
  <fix>3d</fix>
</trkpt>
<trkpt lat="40.0728422" lon="-105.2305752">
  <ele>1593.92</ele>
  <time>2026-08-27T18:31:13Z</time>
  <course>11.56</course>
  <speed>0.022360679774997897</speed>
  <fix>3d</fix>
</trkpt>
<trkpt lat="40.0728423" lon="-105.2305753">
  <ele>1593.95</ele>
  <time>2026-08-27T18:31:13Z</time>
  <course>217.2</course>
  <speed>0.0</speed>
  <fix>3d</fix>
</trkpt>
<trkpt lat="40.0728422" lon="-105.2305752">
  <ele>1593.82</ele>
  <time>2026-08-27T18:31:13Z</time>
  <course>11.56</course>
  <speed>0.022360679774997897</speed>
  <fix>3d</fix>
</trkpt>
<trkpt lat="40.0728423" lon="-105.2305753">
  <ele>1593.85</ele>
  <time>2026-08-27T18:31:13Z</time>
  <course>226.97</course>
  <speed>0.0</speed>
  <fix>3d</fix>
</trkpt>
<trkpt lat="40.0728422" lon="-105.2305752">
  <ele>1593.72</ele>
  <time>2026-08-27T18:31:13Z</time>
  <course>11.56</course>
  <speed>0.022360679774997897</speed>
  <fix>3d</fix>
</trkpt>
<trkpt lat="40.0728423" lon="-105.2305753">
  <ele>1593.75</ele>
  <time>2026-08-27T18:31:13Z</time>
  <course>247.46</course>
  <speed>0.0</speed>
  <fix>3d</fix>
</trkpt>
<trkpt lat="40.0728422" lon="-105.2305752">
  <ele>1593.61</ele>
  <time>2026-08-27T18:31:13Z</time>
  <course>11.56</course>
  <speed>0.022360679774997897</speed>
  <fix>3d</fix>
</trkpt>
<trkpt lat="40.0728423" lon="-105.2305753">
  <ele>1593.64</ele>
  <time>2026-08-27T18:31:13Z</time>
  <course>258.97</course>
  <speed>0.0</speed>
  <fix>3d</fix>
</trkpt>
<trkpt lat="40.0728422" lon="-105.2305752">
  <ele>1593.52</ele>
  <time>2026-08-27T18:31:13Z</time>
  <course>11.56</course>
  <speed>0.01414213562373095</speed>
  <fix>3d</fix>
</trkpt>
<trkpt lat="40.0728423" lon="-105.2305753">
  <ele>1593.55</ele>
  <time>2026-08-27T18:31:13Z</time>
  <course>273.86</course>
  <speed>0.0</speed>
  <fix>3d</fix>
</trkpt>
<trkpt lat="40.0728422" lon="-105.2305752">
  <ele>1593.42</ele>
  <time>2026-08-27T18:31:13Z</time>
  <course>11.56</course>
  <speed>0.01414213562373095</speed>
  <fix>3d</fix>
</trkpt>
<trkpt lat="40.0728423" lon="-105.2305753">
  <ele>1593.45</ele>
  <time>2026-08-27T18:31:13Z</time>
  <course>289.87</course>
  <speed>0.0</speed>
  <fix>3d</fix>
</trkpt>
<trkpt lat="40.0728422" lon="-105.2305752">
  <ele>1593.32</ele>
  <time>2026-08-27T18:31:13Z</time>
  <course>11.56</course>
  <speed>0.01414213562373095</speed>
  <fix>3d</fix>
</trkpt>
<trkpt lat="40.0728423" lon="-105.2305753">
  <ele>1593.35</ele>
  <time>2026-08-27T18:31:13Z</time>
  <course>294.41</course>
  <speed>0.0</speed>
  <fix>3d</fix>
</trkpt>
<trkpt lat="40.0728422" lon="-105.2305752">
  <ele>1593.22</ele>
  <time>2026-08-27T18:31:13Z</time>
  <course>11.55</course>
  <speed>0.01414213562373095</speed>
  <fix>3d</fix>
</trkpt>
<trkpt lat="40.0728423" lon="-105.2305753">
  <ele>1593.25</ele>
  <time>2026-08-27T18:31:13Z</time>
  <course>300.4</course>
  <speed>0.0</speed>
  <fix>3d</fix>
</trkpt>
<trkpt lat="40.0728422" lon="-105.2305752">
  <ele>1593.12</ele>
  <time>2026-08-27T18:31:13Z</time>
  <course>11.54</course>
  <speed>0.01414213562373095</speed>
  <fix>3d</fix>
</trkpt>
<trkpt lat="40.0728423" lon="-105.2305753">
  <ele>1593.14</ele>
  <time>2026-08-27T18:31:13Z</time>
  <course>304.29</course>
  <speed>0.0</speed>
  <fix>3d</fix>
</trkpt>
<trkpt lat="40.0728422" lon="-105.2305752">
  <ele>1593.01</ele>
  <time>2026-08-27T18:31:13Z</time>
  <course>11.54</course>
  <speed>0.01414213562373095</speed>
  <fix>3d</fix>
</trkpt>
<trkpt lat="40.0728423" lon="-105.2305753">
  <ele>1593.04</ele>
  <time>2026-08-27T18:31:13Z</time>
  <course>306.12</course>
  <speed>0.0</speed>
  <fix>3d</fix>
</trkpt>
<trkpt lat="40.0728422" lon="-105.2305752">
  <ele>1592.91</ele>
  <time>2026-08-27T18:31:13Z</time>
  <course>11.54</course>
  <speed>0.01414213562373095</speed>
  <fix>3d</fix>
</trkpt>
<trkpt lat="40.0728423" lon="-105.2305753">
  <ele>1592.94</ele>
  <time>2026-08-27T18:31:13Z</time>
  <course>305.67</course>
  <speed>0.0</speed>
  <fix>3d</fix>
</trkpt>
<trkpt lat="40.0728422" lon="-105.2305752">
  <ele>1592.81</ele>
  <time>2026-08-27T18:31:13Z</time>
  <course>11.53</course>
  <speed>0.01414213562373095</speed>
  <fix>3d</fix>
</trkpt>
<trkpt lat="40.0728423" lon="-105.2305753">
  <ele>1592.84</ele>
  <time>2026-08-27T18:31:13Z</time>
  <course>308.28</course>
  <speed>0.0</speed>
  <fix>3d</fix>
</trkpt>
<trkpt lat="40.0728422" lon="-105.2305752">
  <ele>1592.71</ele>
  <time>2026-08-27T18:31:13Z</time>
  <course>11.53</course>
  <speed>0.01414213562373095</speed>
  <fix>3d</fix>
</trkpt>
<trkpt lat="40.0728423" lon="-105.2305753">
  <ele>1592.74</ele>
  <time>2026-08-27T18:31:13Z</time>
  <course>315.17</course>
  <speed>0.0</speed>
  <fix>3d</fix>
</trkpt>
<trkpt lat="40.0728422" lon="-105.2305752">
  <ele>1592.61</ele>
  <time>2026-08-27T18:31:13Z</time>
  <course>11.53</course>
  <speed>0.01414213562373095</speed>
  <fix>3d</fix>
</trkpt>
<trkpt lat="40.0728423" lon="-105.2305753">
  <ele>1592.63</ele>
  <time>2026-08-27T18:31:13Z</time>
  <course>320.95</course>
  <speed>0.0</speed>
  <fix>3d</fix>
</trkpt>
<trkpt lat="40.0728422" lon="-105.2305752">
  <ele>1592.51</ele>
  <time>2026-08-27T18:31:13Z</time>
  <course>11.53</course>
  <speed>0.01414213562373095</speed>
  <fix>3d</fix>
</trkpt>
<trkpt lat="40.0728423" lon="-105.2305753">
  <ele>1592.54</ele>
  <time>2026-08-27T18:31:13Z</time>
  <course>320.99</course>
  <speed>0.0</speed>
  <fix>3d</fix>
</trkpt>
<trkpt lat="40.0728422" lon="-105.2305752">
  <ele>1592.41</ele>
  <time>2026-08-27T18:31:13Z</time>
  <course>11.53</course>
  <speed>0.01414213562373095</speed>
  <fix>3d</fix>
</trkpt>
<trkpt lat="40.0728423" lon="-105.2305753">
  <ele>1592.44</ele>
  <time>2026-08-27T18:31:13Z</time>
  <course>312.13</course>
  <speed>0.0</speed>
  <fix>3d</fix>
</trkpt>
<trkpt lat="40.0728422" lon="-105.2305752">
  <ele>1592.31</ele>
  <time>2026-08-27T18:31:13Z</time>
  <course>11.53</course>
  <speed>0.022360679774997897</speed>
  <fix>3d</fix>
</trkpt>
<trkpt lat="40.0728423" lon="-105.2305753">
  <ele>1592.34</ele>
  <time>2026-08-27T18:31:13Z</time>
  <course>302.56</course>
  <speed>0.0</speed>
  <fix>3d</fix>
</trkpt>
<trkpt lat="40.0728422" lon="-105.2305752">
  <ele>1592.21</ele>
  <time>2026-08-27T18:31:13Z</time>
  <course>11.52</course>
  <speed>0.01414213562373095</speed>
  <fix>3d</fix>
</trkpt>
<trkpt lat="40.0728423" lon="-105.2305753">
  <ele>1592.24</ele>
  <time>2026-08-27T18:31:13Z</time>
  <course>302.33</course>
  <speed>0.0</speed>
  <fix>3d</fix>
</trkpt>
<trkpt lat="40.0728422" lon="-105.2305752">
  <ele>1592.11</ele>
  <time>2026-08-27T18:31:13Z</time>
  <course>11.52</course>
  <speed>0.01414213562373095</speed>
  <fix>3d</fix>
</trkpt>
<trkpt lat="40.0728423" lon="-105.2305753">
  <ele>1592.13</ele>
  <time>2026-08-27T18:31:13Z</time>
  <course>311.24</course>
  <speed>0.0</speed>
  <fix>3d</fix>
</trkpt>
<trkpt lat="40.0728422" lon="-105.2305752">
  <ele>1592.01</ele>
  <time>2026-08-27T18:31:13Z</time>
  <course>11.52</course>
  <speed>0.022360679774997897</speed>
  <fix>3d</fix>
</trkpt>
<trkpt lat="40.0728423" lon="-105.2305753">
  <ele>1592.04</ele>
  <time>2026-08-27T18:31:13Z</time>
  <course>309.45</course>
  <speed>0.0</speed>
  <fix>3d</fix>
</trkpt>
<trkpt lat="40.0728422" lon="-105.2305752">
  <ele>1591.91</ele>
  <time>2026-08-27T18:31:13Z</time>
  <course>11.52</course>
  <speed>0.022360679774997897</speed>
  <fix>3d</fix>
</trkpt>
<trkpt lat="40.0728423" lon="-105.2305753">
  <ele>1591.94</ele>
  <time>2026-08-27T18:31:13Z</time>
  <course>301.9</course>
  <speed>0.0</speed>
  <fix>3d</fix>
</trkpt>
<trkpt lat="40.0728422" lon="-105.2305752">
  <ele>1591.81</ele>
  <time>2026-08-27T18:31:13Z</time>
  <course>11.52</course>
  <speed>0.01414213562373095</speed>
  <fix>3d</fix>
</trkpt>
<trkpt lat="40.0728423" lon="-105.2305753">
  <ele>1591.84</ele>
  <time>2026-08-27T18:31:13Z</time>
  <course>307.75</course>
  <speed>0.0</speed>
  <fix>3d</fix>
</trkpt>
<trkpt lat="40.0728422" lon="-105.2305752">
  <ele>1591.71</ele>
  <time>2026-08-27T18:31:13Z</time>
  <course>11.51</course>
  <speed>0.01414213562373095</speed>
  <fix>3d</fix>
</trkpt>
<trkpt lat="40.0728423" lon="-105.2305753">
  <ele>1591.74</ele>
  <time>2026-08-27T18:31:13Z</time>
  <course>317.65</course>
  <speed>0.0</speed>
  <fix>3d</fix>
</trkpt>
<trkpt lat="40.0728422" lon="-105.2305752">
  <ele>1591.61</ele>
  <time>2026-08-27T18:31:13Z</time>
  <course>11.51</course>
  <speed>0.01414213562373095</speed>
  <fix>3d</fix>
</trkpt>
<trkpt lat="40.0728423" lon="-105.2305754">
  <ele>1591.63</ele>
  <time>2026-08-27T18:31:13Z</time>
  <course>324.36</course>
  <speed>0.0</speed>
  <fix>3d</fix>
</trkpt>
<trkpt lat="40.0728422" lon="-105.2305752">
  <ele>1591.51</ele>
  <time>2026-08-27T18:31:13Z</time>
  <course>11.51</course>
  <speed>0.01414213562373095</speed>
  <fix>3d</fix>
</trkpt>
<trkpt lat="40.0728423" lon="-105.2305755">
  <ele>1591.54</ele>
  <time>2026-08-27T18:31:13Z</time>
  <course>319.42</course>
  <speed>0.0</speed>
  <fix>3d</fix>
</trkpt>
<trkpt lat="40.0728422" lon="-105.2305752">
  <ele>1591.41</ele>
  <time>2026-08-27T18:31:13Z</time>
  <course>11.51</course>
  <speed>0.01414213562373095</speed>
  <fix>3d</fix>
</trkpt>
<trkpt lat="40.0728423" lon="-105.2305755">
  <ele>1591.44</ele>
  <time>2026-08-27T18:31:13Z</time>
  <course>309.91</course>
  <speed>0.0</speed>
  <fix>3d</fix>
</trkpt>
<trkpt lat="40.0728422" lon="-105.2305752">
  <ele>1591.31</ele>
  <time>2026-08-27T18:31:13Z</time>
  <course>11.5</course>
  <speed>0.01414213562373095</speed>
  <fix>3d</fix>
</trkpt>
<trkpt lat="40.0728423" lon="-105.2305755">
  <ele>1591.34</ele>
  <time>2026-08-27T18:31:13Z</time>
  <course>311.92</course>
  <speed>0.0</speed>
  <fix>3d</fix>
</trkpt>
<trkpt lat="40.0728422" lon="-105.2305752">
  <ele>1591.21</ele>
  <time>2026-08-27T18:31:13Z</time>
  <course>11.49</course>
  <speed>0.01414213562373095</speed>
  <fix>3d</fix>
</trkpt>
<trkpt lat="40.0728423" lon="-105.2305755">
  <ele>1591.24</ele>
  <time>2026-08-27T18:31:13Z</time>
  <course>326.02</course>
  <speed>0.0</speed>
  <fix>3d</fix>
</trkpt>
<trkpt lat="40.0728422" lon="-105.2305752">
  <ele>1591.11</ele>
  <time>2026-08-27T18:31:13Z</time>
  <course>11.49</course>
  <speed>0.01414213562373095</speed>
  <fix>3d</fix>
</trkpt>
<trkpt lat="40.0728423" lon="-105.2305755">
  <ele>1591.13</ele>
  <time>2026-08-27T18:31:13Z</time>
  <course>343.81</course>
  <speed>0.0</speed>
  <fix>3d</fix>
</trkpt>
<trkpt lat="40.0728422" lon="-105.2305752">
  <ele>1591.02</ele>
  <time>2026-08-27T18:31:13Z</time>
  <course>11.49</course>
  <speed>0.01414213562373095</speed>
  <fix>3d</fix>
</trkpt>
<trkpt lat="40.0728423" lon="-105.2305755">
  <ele>1591.04</ele>
  <time>2026-08-27T18:31:13Z</time>
  <course>4.34</course>
  <speed>0.0</speed>
  <fix>3d</fix>
</trkpt>
<trkpt lat="40.0728422" lon="-105.2305752">
  <ele>1590.92</ele>
  <time>2026-08-27T18:31:13Z</time>
  <course>11.49</course>
  <speed>0.01414213562373095</speed>
  <fix>3d</fix>
</trkpt>
<trkpt lat="40.0728423" lon="-105.2305755">
  <ele>1590.94</ele>
  <time>2026-08-27T18:31:13Z</time>
  <course>23.3</course>
  <speed>0.0</speed>
  <fix>3d</fix>
</trkpt>
<trkpt lat="40.0728422" lon="-105.2305752">
  <ele>1590.82</ele>
  <time>2026-08-27T18:31:13Z</time>
  <course>11.49</course>
  <speed>0.01414213562373095</speed>
  <fix>3d</fix>
</trkpt>
<trkpt lat="40.0728423" lon="-105.2305755">
  <ele>1590.83</ele>
  <time>2026-08-27T18:31:13Z</time>
  <course>38.69</course>
  <speed>0.0</speed>
  <fix>3d</fix>
</trkpt>
<trkpt lat="40.0728422" lon="-105.2305752">
  <ele>1590.71</ele>
  <time>2026-08-27T18:31:13Z</time>
  <course>11.48</course>
  <speed>0.022360679774997897</speed>
  <fix>3d</fix>
</trkpt>
<trkpt lat="40.0728423" lon="-105.2305755">
  <ele>1590.73</ele>
  <time>2026-08-27T18:31:13Z</time>
  <course>47.47</course>
  <speed>0.0</speed>
  <fix>3d</fix>
</trkpt>
<trkpt lat="40.0728422" lon="-105.2305752">
  <ele>1590.61</ele>
  <time>2026-08-27T18:31:13Z</time>
  <course>11.48</course>
  <speed>0.022360679774997897</speed>
  <fix>3d</fix>
</trkpt>
<trkpt lat="40.0728424" lon="-105.2305755">
  <ele>1590.63</ele>
  <time>2026-08-27T18:31:13Z</time>
  <course>55.13</course>
  <speed>0.0</speed>
  <fix>3d</fix>
</trkpt>
<trkpt lat="40.0728422" lon="-105.2305752">
  <ele>1590.52</ele>
  <time>2026-08-27T18:31:13Z</time>
  <course>11.48</course>
  <speed>0.022360679774997897</speed>
  <fix>3d</fix>
</trkpt>
<trkpt lat="40.0728424" lon="-105.2305755">
  <ele>1590.53</ele>
  <time>2026-08-27T18:31:13Z</time>
  <course>61.92</course>
  <speed>0.0</speed>
  <fix>3d</fix>
</trkpt>
<trkpt lat="40.0728422" lon="-105.2305752">
  <ele>1590.41</ele>
  <time>2026-08-27T18:31:13Z</time>
  <course>11.48</course>
  <speed>0.022360679774997897</speed>
  <fix>3d</fix>
</trkpt>
<trkpt lat="40.0728424" lon="-105.2305755">
  <ele>1590.42</ele>
  <time>2026-08-27T18:31:13Z</time>
  <course>65.65</course>
  <speed>0.0</speed>
  <fix>3d</fix>
</trkpt>
<trkpt lat="40.0728422" lon="-105.2305752">
  <ele>1590.31</ele>
  <time>2026-08-27T18:31:13Z</time>
  <course>11.48</course>
  <speed>0.0282842712474619</speed>
  <fix>3d</fix>
</trkpt>
<trkpt lat="40.0728424" lon="-105.2305755">
  <ele>1590.33</ele>
  <time>2026-08-27T18:31:13Z</time>
  <course>69.57</course>
  <speed>0.0</speed>
  <fix>3d</fix>
</trkpt>
<trkpt lat="40.0728422" lon="-105.2305752">
  <ele>1590.21</ele>
  <time>2026-08-27T18:31:13Z</time>
  <course>11.48</course>
  <speed>0.0282842712474619</speed>
  <fix>3d</fix>
</trkpt>
<trkpt lat="40.0728424" lon="-105.2305755">
  <ele>1590.22</ele>
  <time>2026-08-27T18:31:13Z</time>
  <course>77.4</course>
  <speed>0.0</speed>
  <fix>3d</fix>
</trkpt>
<trkpt lat="40.0728422" lon="-105.2305752">
  <ele>1590.11</ele>
  <time>2026-08-27T18:31:13Z</time>
  <course>11.48</course>
  <speed>0.0282842712474619</speed>
  <fix>3d</fix>
</trkpt>
<trkpt lat="40.0728424" lon="-105.2305755">
  <ele>1590.12</ele>
  <time>2026-08-27T18:31:13Z</time>
  <course>90.43</course>
  <speed>0.0</speed>
  <fix>3d</fix>
</trkpt>
<trkpt lat="40.0728422" lon="-105.2305752">
  <ele>1590.01</ele>
  <time>2026-08-27T18:31:13Z</time>
  <course>11.48</course>
  <speed>0.0282842712474619</speed>
  <fix>3d</fix>
</trkpt>
<trkpt lat="40.0728424" lon="-105.2305755">
  <ele>1590.02</ele>
  <time>2026-08-27T18:31:13Z</time>
  <course>96.99</course>
  <speed>0.0</speed>
  <fix>3d</fix>
</trkpt>
<trkpt lat="40.0728422" lon="-105.2305752">
  <ele>1589.91</ele>
  <time>2026-08-27T18:31:13Z</time>
  <course>11.47</course>
  <speed>0.0282842712474619</speed>
  <fix>3d</fix>
</trkpt>
<trkpt lat="40.0728424" lon="-105.2305754">
  <ele>1589.91</ele>
  <time>2026-08-27T18:31:13Z</time>
  <course>99.74</course>
  <speed>0.0</speed>
  <fix>3d</fix>
</trkpt>
<trkpt lat="40.0728422" lon="-105.2305752">
  <ele>1589.81</ele>
  <time>2026-08-27T18:31:13Z</time>
  <course>11.47</course>
  <speed>0.0282842712474619</speed>
  <fix>3d</fix>
</trkpt>
<trkpt lat="40.0728424" lon="-105.2305753">
  <ele>1589.82</ele>
  <time>2026-08-27T18:31:13Z</time>
  <course>101.98</course>
  <speed>0.0</speed>
  <fix>3d</fix>
</trkpt>
<trkpt lat="40.0728422" lon="-105.2305752">
  <ele>1589.71</ele>
  <time>2026-08-27T18:31:14Z</time>
  <course>11.47</course>
  <speed>0.0282842712474619</speed>
  <fix>3d</fix>
</trkpt>
<trkpt lat="40.0728424" lon="-105.2305753">
  <ele>1589.72</ele>
  <time>2026-08-27T18:31:14Z</time>
  <course>104.94</course>
  <speed>0.0</speed>
  <fix>3d</fix>
</trkpt>
<trkpt lat="40.0728422" lon="-105.2305752">
  <ele>1589.61</ele>
  <time>2026-08-27T18:31:14Z</time>
  <course>11.47</course>
  <speed>0.0282842712474619</speed>
  <fix>3d</fix>
</trkpt>
<trkpt lat="40.0728424" lon="-105.2305753">
  <ele>1589.62</ele>
  <time>2026-08-27T18:31:14Z</time>
  <course>110.82</course>
  <speed>0.0</speed>
  <fix>3d</fix>
</trkpt>
<trkpt lat="40.0728422" lon="-105.2305752">
  <ele>1589.51</ele>
  <time>2026-08-27T18:31:14Z</time>
  <course>11.47</course>
  <speed>0.022360679774997897</speed>
  <fix>3d</fix>
</trkpt>
<trkpt lat="40.0728424" lon="-105.2305753">
  <ele>1589.52</ele>
  <time>2026-08-27T18:31:14Z</time>
  <course>120.01</course>
  <speed>0.0</speed>
  <fix>3d</fix>
</trkpt>
<trkpt lat="40.0728422" lon="-105.2305752">
  <ele>1589.4</ele>
  <time>2026-08-27T18:31:14Z</time>
  <course>11.47</course>
  <speed>0.022360679774997897</speed>
  <fix>3d</fix>
</trkpt>
<trkpt lat="40.0728424" lon="-105.2305753">
  <ele>1589.41</ele>
  <time>2026-08-27T18:31:14Z</time>
  <course>134.36</course>
  <speed>0.0</speed>
  <fix>3d</fix>
</trkpt>
<trkpt lat="40.0728422" lon="-105.2305752">
  <ele>1589.3</ele>
  <time>2026-08-27T18:31:14Z</time>
  <course>11.46</course>
  <speed>0.022360679774997897</speed>
  <fix>3d</fix>
</trkpt>
<trkpt lat="40.0728424" lon="-105.2305753">
  <ele>1589.32</ele>
  <time>2026-08-27T18:31:14Z</time>
  <course>144.51</course>
  <speed>0.0</speed>
  <fix>3d</fix>
</trkpt>
<trkpt lat="40.0728422" lon="-105.2305752">
  <ele>1589.2</ele>
  <time>2026-08-27T18:31:14Z</time>
  <course>11.46</course>
  <speed>0.022360679774997897</speed>
  <fix>3d</fix>
</trkpt>
<trkpt lat="40.0728424" lon="-105.2305753">
  <ele>1589.22</ele>
  <time>2026-08-27T18:31:14Z</time>
  <course>153.58</course>
  <speed>0.0</speed>
  <fix>3d</fix>
</trkpt>
<trkpt lat="40.0728422" lon="-105.2305752">
  <ele>1589.1</ele>
  <time>2026-08-27T18:31:14Z</time>
  <course>11.46</course>
  <speed>0.022360679774997897</speed>
  <fix>3d</fix>
</trkpt>
<trkpt lat="40.0728424" lon="-105.2305753">
  <ele>1589.12</ele>
  <time>2026-08-27T18:31:14Z</time>
  <course>166.88</course>
  <speed>0.0</speed>
  <fix>3d</fix>
</trkpt>
<trkpt lat="40.0728422" lon="-105.2305752">
  <ele>1589.0</ele>
  <time>2026-08-27T18:31:14Z</time>
  <course>11.46</course>
  <speed>0.022360679774997897</speed>
  <fix>3d</fix>
</trkpt>
<trkpt lat="40.0728424" lon="-105.2305753">
  <ele>1589.02</ele>
  <time>2026-08-27T18:31:14Z</time>
  <course>177.02</course>
  <speed>0.0</speed>
  <fix>3d</fix>
</trkpt>
<trkpt lat="40.0728422" lon="-105.2305752">
  <ele>1588.9</ele>
  <time>2026-08-27T18:31:14Z</time>
  <course>11.46</course>
  <speed>0.022360679774997897</speed>
  <fix>3d</fix>
</trkpt>
<trkpt lat="40.0728424" lon="-105.2305753">
  <ele>1588.91</ele>
  <time>2026-08-27T18:31:14Z</time>
  <course>176.39</course>
  <speed>0.0</speed>
  <fix>3d</fix>
</trkpt>
<trkpt lat="40.0728422" lon="-105.2305752">
  <ele>1588.81</ele>
  <time>2026-08-27T18:31:14Z</time>
  <course>11.45</course>
  <speed>0.022360679774997897</speed>
  <fix>3d</fix>
</trkpt>
<trkpt lat="40.0728424" lon="-105.2305753">
  <ele>1588.82</ele>
  <time>2026-08-27T18:31:14Z</time>
  <course>175.02</course>
  <speed>0.0</speed>
  <fix>3d</fix>
</trkpt>
<trkpt lat="40.0728422" lon="-105.2305752">
  <ele>1588.71</ele>
  <time>2026-08-27T18:31:14Z</time>
  <course>11.45</course>
  <speed>0.022360679774997897</speed>
  <fix>3d</fix>
</trkpt>
<trkpt lat="40.0728424" lon="-105.2305753">
  <ele>1588.72</ele>
  <time>2026-08-27T18:31:14Z</time>
  <course>182.5</course>
  <speed>0.0</speed>
  <fix>3d</fix>
</trkpt>
<trkpt lat="40.0728422" lon="-105.2305752">
  <ele>1588.61</ele>
  <time>2026-08-27T18:31:14Z</time>
  <course>11.46</course>
  <speed>0.022360679774997897</speed>
  <fix>3d</fix>
</trkpt>
<trkpt lat="40.0728424" lon="-105.2305753">
  <ele>1588.62</ele>
  <time>2026-08-27T18:31:14Z</time>
  <course>191.11</course>
  <speed>0.0</speed>
  <fix>3d</fix>
</trkpt>
<trkpt lat="40.0728422" lon="-105.2305752">
  <ele>1588.51</ele>
  <time>2026-08-27T18:31:14Z</time>
  <course>11.45</course>
  <speed>0.022360679774997897</speed>
  <fix>3d</fix>
</trkpt>
<trkpt lat="40.0728424" lon="-105.2305753">
  <ele>1588.52</ele>
  <time>2026-08-27T18:31:14Z</time>
  <course>196.17</course>
  <speed>0.0</speed>
  <fix>3d</fix>
</trkpt>
<trkpt lat="40.0728422" lon="-105.2305752">
  <ele>1588.41</ele>
  <time>2026-08-27T18:31:14Z</time>
  <course>11.45</course>
  <speed>0.022360679774997897</speed>
  <fix>3d</fix>
</trkpt>
<trkpt lat="40.0728423" lon="-105.2305753">
  <ele>1588.41</ele>
  <time>2026-08-27T18:31:14Z</time>
  <course>200.28</course>
  <speed>0.0</speed>
  <fix>3d</fix>
</trkpt>
<trkpt lat="40.0728422" lon="-105.2305752">
  <ele>1588.31</ele>
  <time>2026-08-27T18:31:14Z</time>
  <course>11.45</course>
  <speed>0.022360679774997897</speed>
  <fix>3d</fix>
</trkpt>
<trkpt lat="40.0728423" lon="-105.2305753">
  <ele>1588.32</ele>
  <time>2026-08-27T18:31:14Z</time>
  <course>203.6</course>
  <speed>0.0</speed>
  <fix>3d</fix>
</trkpt>
<trkpt lat="40.0728422" lon="-105.2305752">
  <ele>1588.21</ele>
  <time>2026-08-27T18:31:14Z</time>
  <course>11.45</course>
  <speed>0.022360679774997897</speed>
  <fix>3d</fix>
</trkpt>
<trkpt lat="40.0728423" lon="-105.2305753">
  <ele>1588.22</ele>
  <time>2026-08-27T18:31:14Z</time>
  <course>205.92</course>
  <speed>0.0</speed>
  <fix>3d</fix>
</trkpt>
<trkpt lat="40.0728422" lon="-105.2305752">
  <ele>1588.11</ele>
  <time>2026-08-27T18:31:14Z</time>
  <course>11.45</course>
  <speed>0.022360679774997897</speed>
  <fix>3d</fix>
</trkpt>
<trkpt lat="40.0728423" lon="-105.2305753">
  <ele>1588.12</ele>
  <time>2026-08-27T18:31:14Z</time>
  <course>209.01</course>
  <speed>0.0</speed>
  <fix>3d</fix>
</trkpt>
<trkpt lat="40.0728422" lon="-105.2305752">
  <ele>1588.01</ele>
  <time>2026-08-27T18:31:14Z</time>
  <course>11.45</course>
  <speed>0.022360679774997897</speed>
  <fix>3d</fix>
</trkpt>
<trkpt lat="40.0728423" lon="-105.2305753">
  <ele>1588.02</ele>
  <time>2026-08-27T18:31:14Z</time>
  <course>213.52</course>
  <speed>0.0</speed>
  <fix>3d</fix>
</trkpt>
<trkpt lat="40.0728422" lon="-105.2305752">
  <ele>1587.91</ele>
  <time>2026-08-27T18:31:14Z</time>
  <course>11.45</course>
  <speed>0.022360679774997897</speed>
  <fix>3d</fix>
</trkpt>
<trkpt lat="40.0728423" lon="-105.2305753">
  <ele>1587.91</ele>
  <time>2026-08-27T18:31:14Z</time>
  <course>222.3</course>
  <speed>0.0</speed>
  <fix>3d</fix>
</trkpt>
<trkpt lat="40.0728422" lon="-105.2305752">
  <ele>1587.81</ele>
  <time>2026-08-27T18:31:14Z</time>
  <course>11.44</course>
  <speed>0.01414213562373095</speed>
  <fix>3d</fix>
</trkpt>
<trkpt lat="40.0728423" lon="-105.2305753">
  <ele>1587.82</ele>
  <time>2026-08-27T18:31:14Z</time>
  <course>235.26</course>
  <speed>0.0</speed>
  <fix>3d</fix>
</trkpt>
<trkpt lat="40.0728422" lon="-105.2305752">
  <ele>1587.71</ele>
  <time>2026-08-27T18:31:14Z</time>
  <course>11.44</course>
  <speed>0.01414213562373095</speed>
  <fix>3d</fix>
</trkpt>
<trkpt lat="40.0728423" lon="-105.2305753">
  <ele>1587.72</ele>
  <time>2026-08-27T18:31:14Z</time>
  <course>250.38</course>
  <speed>0.0</speed>
  <fix>3d</fix>
</trkpt>
<trkpt lat="40.0728422" lon="-105.2305752">
  <ele>1587.61</ele>
  <time>2026-08-27T18:31:14Z</time>
  <course>11.44</course>
  <speed>0.01414213562373095</speed>
  <fix>3d</fix>
</trkpt>
<trkpt lat="40.0728423" lon="-105.2305753">
  <ele>1587.62</ele>
  <time>2026-08-27T18:31:14Z</time>
  <course>265.45</course>
  <speed>0.0</speed>
  <fix>3d</fix>
</trkpt>
<trkpt lat="40.0728422" lon="-105.2305752">
  <ele>1587.51</ele>
  <time>2026-08-27T18:31:14Z</time>
  <course>11.44</course>
  <speed>0.01414213562373095</speed>
  <fix>3d</fix>
</trkpt>
<trkpt lat="40.0728423" lon="-105.2305753">
  <ele>1587.52</ele>
  <time>2026-08-27T18:31:14Z</time>
  <course>266.9</course>
  <speed>0.0</speed>
  <fix>3d</fix>
</trkpt>
<trkpt lat="40.0728422" lon="-105.2305752">
  <ele>1587.41</ele>
  <time>2026-08-27T18:31:14Z</time>
  <course>11.44</course>
  <speed>0.01414213562373095</speed>
  <fix>3d</fix>
</trkpt>
<trkpt lat="40.0728423" lon="-105.2305753">
  <ele>1587.41</ele>
  <time>2026-08-27T18:31:14Z</time>
  <course>265.38</course>
  <speed>0.0</speed>
  <fix>3d</fix>
</trkpt>
<trkpt lat="40.0728422" lon="-105.2305752">
  <ele>1587.31</ele>
  <time>2026-08-27T18:31:14Z</time>
  <course>11.44</course>
  <speed>0.01414213562373095</speed>
  <fix>3d</fix>
</trkpt>
<trkpt lat="40.0728423" lon="-105.2305753">
  <ele>1587.32</ele>
  <time>2026-08-27T18:31:14Z</time>
  <course>265.56</course>
  <speed>0.0</speed>
  <fix>3d</fix>
</trkpt>
<trkpt lat="40.0728422" lon="-105.2305752">
  <ele>1587.21</ele>
  <time>2026-08-27T18:31:14Z</time>
  <course>11.44</course>
  <speed>0.01414213562373095</speed>
  <fix>3d</fix>
</trkpt>
<trkpt lat="40.0728423" lon="-105.2305753">
  <ele>1587.22</ele>
  <time>2026-08-27T18:31:14Z</time>
  <course>263.96</course>
  <speed>0.0</speed>
  <fix>3d</fix>
</trkpt>
<trkpt lat="40.0728422" lon="-105.2305752">
  <ele>1587.11</ele>
  <time>2026-08-27T18:31:14Z</time>
  <course>11.44</course>
  <speed>0.01414213562373095</speed>
  <fix>3d</fix>
</trkpt>
<trkpt lat="40.0728423" lon="-105.2305753">
  <ele>1587.12</ele>
  <time>2026-08-27T18:31:14Z</time>
  <course>262.8</course>
  <speed>0.0</speed>
  <fix>3d</fix>
</trkpt>
<trkpt lat="40.0728422" lon="-105.2305752">
  <ele>1587.01</ele>
  <time>2026-08-27T18:31:14Z</time>
  <course>11.44</course>
  <speed>0.01414213562373095</speed>
  <fix>3d</fix>
</trkpt>
<trkpt lat="40.0728423" lon="-105.2305753">
  <ele>1587.02</ele>
  <time>2026-08-27T18:31:14Z</time>
  <course>265.67</course>
  <speed>0.0</speed>
  <fix>3d</fix>
</trkpt>
<trkpt lat="40.0728422" lon="-105.2305752">
  <ele>1586.91</ele>
  <time>2026-08-27T18:31:14Z</time>
  <course>11.44</course>
  <speed>0.01414213562373095</speed>
  <fix>3d</fix>
</trkpt>
<trkpt lat="40.0728423" lon="-105.2305753">
  <ele>1586.91</ele>
  <time>2026-08-27T18:31:14Z</time>
  <course>270.95</course>
  <speed>0.0</speed>
  <fix>3d</fix>
</trkpt>
<trkpt lat="40.0728422" lon="-105.2305752">
  <ele>1586.81</ele>
  <time>2026-08-27T18:31:14Z</time>
  <course>11.44</course>
  <speed>0.01414213562373095</speed>
  <fix>3d</fix>
</trkpt>
<trkpt lat="40.0728423" lon="-105.2305753">
  <ele>1586.82</ele>
  <time>2026-08-27T18:31:14Z</time>
  <course>268.63</course>
  <speed>0.0</speed>
  <fix>3d</fix>
</trkpt>
<trkpt lat="40.0728422" lon="-105.2305752">
  <ele>1586.71</ele>
  <time>2026-08-27T18:31:14Z</time>
  <course>11.44</course>
  <speed>0.01414213562373095</speed>
  <fix>3d</fix>
</trkpt>
<trkpt lat="40.0728423" lon="-105.2305753">
  <ele>1586.72</ele>
  <time>2026-08-27T18:31:14Z</time>
  <course>269.18</course>
  <speed>0.0</speed>
  <fix>3d</fix>
</trkpt>
<trkpt lat="40.0728422" lon="-105.2305752">
  <ele>1586.6</ele>
  <time>2026-08-27T18:31:14Z</time>
  <course>11.44</course>
  <speed>0.01414213562373095</speed>
  <fix>3d</fix>
</trkpt>
<trkpt lat="40.0728423" lon="-105.2305753">
  <ele>1586.62</ele>
  <time>2026-08-27T18:31:14Z</time>
  <course>271.09</course>
  <speed>0.0</speed>
  <fix>3d</fix>
</trkpt>
<trkpt lat="40.0728422" lon="-105.2305752">
  <ele>1586.5</ele>
  <time>2026-08-27T18:31:14Z</time>
  <course>11.43</course>
  <speed>0.01414213562373095</speed>
  <fix>3d</fix>
</trkpt>
<trkpt lat="40.0728423" lon="-105.2305753">
  <ele>1586.52</ele>
  <time>2026-08-27T18:31:14Z</time>
  <course>267.22</course>
  <speed>0.0</speed>
  <fix>3d</fix>
</trkpt>
<trkpt lat="40.0728422" lon="-105.2305752">
  <ele>1586.4</ele>
  <time>2026-08-27T18:31:14Z</time>
  <course>11.43</course>
  <speed>0.01414213562373095</speed>
  <fix>3d</fix>
</trkpt>
<trkpt lat="40.0728423" lon="-105.2305753">
  <ele>1586.41</ele>
  <time>2026-08-27T18:31:14Z</time>
  <course>277.31</course>
  <speed>0.0</speed>
  <fix>3d</fix>
</trkpt>
<trkpt lat="40.0728422" lon="-105.2305752">
  <ele>1586.31</ele>
  <time>2026-08-27T18:31:14Z</time>
  <course>11.43</course>
  <speed>0.01414213562373095</speed>
  <fix>3d</fix>
</trkpt>
<trkpt lat="40.0728423" lon="-105.2305753">
  <ele>1586.32</ele>
  <time>2026-08-27T18:31:14Z</time>
  <course>279.45</course>
  <speed>0.0</speed>
  <fix>3d</fix>
</trkpt>
<trkpt lat="40.0728422" lon="-105.2305752">
  <ele>1586.21</ele>
  <time>2026-08-27T18:31:14Z</time>
  <course>11.43</course>
  <speed>0.022360679774997897</speed>
  <fix>3d</fix>
</trkpt>
<trkpt lat="40.0728423" lon="-105.2305753">
  <ele>1586.22</ele>
  <time>2026-08-27T18:31:14Z</time>
  <course>264.48</course>
  <speed>0.0</speed>
  <fix>3d</fix>
</trkpt>
<trkpt lat="40.0728422" lon="-105.2305752">
  <ele>1586.14</ele>
  <time>2026-08-27T18:31:14Z</time>
  <course>11.43</course>
  <speed>0.022360679774997897</speed>
  <fix>3d</fix>
</trkpt>
<trkpt lat="40.0728423" lon="-105.2305753">
  <ele>1586.12</ele>
  <time>2026-08-27T18:31:14Z</time>
  <course>260.22</course>
  <speed>0.0</speed>
  <fix>3d</fix>
</trkpt>
<trkpt lat="40.0728422" lon="-105.2305752">
  <ele>1586.16</ele>
  <time>2026-08-27T18:31:14Z</time>
  <course>11.43</course>
  <speed>0.0282842712474619</speed>
  <fix>3d</fix>
</trkpt>
<trkpt lat="40.0728423" lon="-105.2305753">
  <ele>1586.08</ele>
  <time>2026-08-27T18:31:14Z</time>
  <course>269.52</course>
  <speed>0.0</speed>
  <fix>3d</fix>
</trkpt>
<trkpt lat="40.0728422" lon="-105.2305752">
  <ele>1586.17</ele>
  <time>2026-08-27T18:31:14Z</time>
  <course>11.43</course>
  <speed>0.022360679774997897</speed>
  <fix>3d</fix>
</trkpt>
<trkpt lat="40.0728423" lon="-105.2305753">
  <ele>1586.09</ele>
  <time>2026-08-27T18:31:14Z</time>
  <course>89.15</course>
  <speed>0.0</speed>
  <fix>3d</fix>
</trkpt>
<trkpt lat="40.0728422" lon="-105.2305752">
  <ele>1586.16</ele>
  <time>2026-08-27T18:31:14Z</time>
  <course>11.43</course>
  <speed>0.022360679774997897</speed>
  <fix>3d</fix>
</trkpt>
<trkpt lat="40.0728423" lon="-105.2305753">
  <ele>1586.1</ele>
  <time>2026-08-27T18:31:14Z</time>
  <course>267.86</course>
  <speed>0.0</speed>
  <fix>3d</fix>
</trkpt>
<trkpt lat="40.0728422" lon="-105.2305752">
  <ele>1586.16</ele>
  <time>2026-08-27T18:31:14Z</time>
  <course>11.43</course>
  <speed>0.022360679774997897</speed>
  <fix>3d</fix>
</trkpt>
<trkpt lat="40.0728423" lon="-105.2305753">
  <ele>1586.09</ele>
  <time>2026-08-27T18:31:14Z</time>
  <course>269.19</course>
  <speed>0.0</speed>
  <fix>3d</fix>
</trkpt>
<trkpt lat="40.0728422" lon="-105.2305752">
  <ele>1586.17</ele>
  <time>2026-08-27T18:31:14Z</time>
  <course>11.43</course>
  <speed>0.022360679774997897</speed>
  <fix>3d</fix>
</trkpt>
<trkpt lat="40.0728423" lon="-105.2305753">
  <ele>1586.09</ele>
  <time>2026-08-27T18:31:14Z</time>
  <course>90.63</course>
  <speed>0.0</speed>
  <fix>3d</fix>
</trkpt>
<trkpt lat="40.0728422" lon="-105.2305752">
  <ele>1586.17</ele>
  <time>2026-08-27T18:31:14Z</time>
  <course>11.43</course>
  <speed>0.022360679774997897</speed>
  <fix>3d</fix>
</trkpt>
<trkpt lat="40.0728423" lon="-105.2305753">
  <ele>1586.09</ele>
  <time>2026-08-27T18:31:14Z</time>
  <course>91.5</course>
  <speed>0.0</speed>
  <fix>3d</fix>
</trkpt>
<trkpt lat="40.0728422" lon="-105.2305752">
  <ele>1586.17</ele>
  <time>2026-08-27T18:31:14Z</time>
  <course>11.42</course>
  <speed>0.022360679774997897</speed>
  <fix>3d</fix>
</trkpt>
<trkpt lat="40.0728423" lon="-105.2305753">
  <ele>1586.09</ele>
  <time>2026-08-27T18:31:14Z</time>
  <course>269.79</course>
  <speed>0.0</speed>
  <fix>3d</fix>
</trkpt>
<trkpt lat="40.0728422" lon="-105.2305752">
  <ele>1586.17</ele>
  <time>2026-08-27T18:31:14Z</time>
  <course>11.42</course>
  <speed>0.022360679774997897</speed>
  <fix>3d</fix>
</trkpt>
<trkpt lat="40.0728423" lon="-105.2305753">
  <ele>1586.09</ele>
  <time>2026-08-27T18:31:14Z</time>
  <course>286.65</course>
  <speed>0.0</speed>
  <fix>3d</fix>
</trkpt>
<trkpt lat="40.0728422" lon="-105.2305752">
  <ele>1586.16</ele>
  <time>2026-08-27T18:31:14Z</time>
  <course>11.42</course>
  <speed>0.01414213562373095</speed>
  <fix>3d</fix>
</trkpt>
<trkpt lat="40.0728423" lon="-105.2305753">
  <ele>1586.09</ele>
  <time>2026-08-27T18:31:14Z</time>
  <course>336.1</course>
  <speed>0.0</speed>
  <fix>3d</fix>
</trkpt>
<trkpt lat="40.0728422" lon="-105.2305752">
  <ele>1586.16</ele>
  <time>2026-08-27T18:31:14Z</time>
  <course>11.42</course>
  <speed>0.01414213562373095</speed>
  <fix>3d</fix>
</trkpt>
<trkpt lat="40.0728423" lon="-105.2305753">
  <ele>1586.09</ele>
  <time>2026-08-27T18:31:14Z</time>
  <course>348.84</course>
  <speed>0.0</speed>
  <fix>3d</fix>
</trkpt>
<trkpt lat="40.0728422" lon="-105.2305752">
  <ele>1586.16</ele>
  <time>2026-08-27T18:31:14Z</time>
  <course>11.42</course>
  <speed>0.01414213562373095</speed>
  <fix>3d</fix>
</trkpt>
<trkpt lat="40.0728423" lon="-105.2305753">
  <ele>1586.09</ele>
  <time>2026-08-27T18:31:14Z</time>
  <course>157.12</course>
  <speed>0.0</speed>
  <fix>3d</fix>
</trkpt>
<trkpt lat="40.0728422" lon="-105.2305752">
  <ele>1586.16</ele>
  <time>2026-08-27T18:31:14Z</time>
  <course>11.42</course>
  <speed>0.01414213562373095</speed>
  <fix>3d</fix>
</trkpt>
<trkpt lat="40.0728423" lon="-105.2305753">
  <ele>1586.09</ele>
  <time>2026-08-27T18:31:14Z</time>
  <course>305.17</course>
  <speed>0.0</speed>
  <fix>3d</fix>
</trkpt>
<trkpt lat="40.0728422" lon="-105.2305752">
  <ele>1586.16</ele>
  <time>2026-08-27T18:31:14Z</time>
  <course>11.42</course>
  <speed>0.01414213562373095</speed>
  <fix>3d</fix>
</trkpt>
<trkpt lat="40.0728423" lon="-105.2305753">
  <ele>1586.09</ele>
  <time>2026-08-27T18:31:14Z</time>
  <course>338.09</course>
  <speed>0.0</speed>
  <fix>3d</fix>
</trkpt>
<trkpt lat="40.0728422" lon="-105.2305752">
  <ele>1586.16</ele>
  <time>2026-08-27T18:31:14Z</time>
  <course>11.42</course>
  <speed>0.01414213562373095</speed>
  <fix>3d</fix>
</trkpt>
<trkpt lat="40.0728423" lon="-105.2305753">
  <ele>1586.09</ele>
  <time>2026-08-27T18:31:14Z</time>
  <course>150.63</course>
  <speed>0.0</speed>
  <fix>3d</fix>
</trkpt>
<trkpt lat="40.0728422" lon="-105.2305752">
  <ele>1586.16</ele>
  <time>2026-08-27T18:31:14Z</time>
  <course>11.42</course>
  <speed>0.01414213562373095</speed>
  <fix>3d</fix>
</trkpt>
<trkpt lat="40.0728423" lon="-105.2305753">
  <ele>1586.09</ele>
  <time>2026-08-27T18:31:14Z</time>
  <course>159.23</course>
  <speed>0.0</speed>
  <fix>3d</fix>
</trkpt>
<trkpt lat="40.0728422" lon="-105.2305752">
  <ele>1586.15</ele>
  <time>2026-08-27T18:31:14Z</time>
  <course>11.42</course>
  <speed>0.01414213562373095</speed>
  <fix>3d</fix>
</trkpt>
<trkpt lat="40.0728423" lon="-105.2305753">
  <ele>1586.09</ele>
  <time>2026-08-27T18:31:14Z</time>
  <course>334.13</course>
  <speed>0.0</speed>
  <fix>3d</fix>
</trkpt>
<trkpt lat="40.0728422" lon="-105.2305752">
  <ele>1586.15</ele>
  <time>2026-08-27T18:31:14Z</time>
  <course>11.41</course>
  <speed>0.01414213562373095</speed>
  <fix>3d</fix>
</trkpt>
<trkpt lat="40.0728423" lon="-105.2305753">
  <ele>1586.09</ele>
  <time>2026-08-27T18:31:14Z</time>
  <course>340.99</course>
  <speed>0.0</speed>
  <fix>3d</fix>
</trkpt>
<trkpt lat="40.0728422" lon="-105.2305752">
  <ele>1586.15</ele>
  <time>2026-08-27T18:31:14Z</time>
  <course>11.41</course>
  <speed>0.01414213562373095</speed>
  <fix>3d</fix>
</trkpt>
<trkpt lat="40.0728423" lon="-105.2305753">
  <ele>1586.09</ele>
  <time>2026-08-27T18:31:14Z</time>
  <course>155.75</course>
  <speed>0.0</speed>
  <fix>3d</fix>
</trkpt>
<trkpt lat="40.0728422" lon="-105.2305752">
  <ele>1586.15</ele>
  <time>2026-08-27T18:31:14Z</time>
  <course>11.41</course>
  <speed>0.01414213562373095</speed>
  <fix>3d</fix>
</trkpt>
<trkpt lat="40.0728423" lon="-105.2305753">
  <ele>1586.09</ele>
  <time>2026-08-27T18:31:14Z</time>
  <course>165.49</course>
  <speed>0.0</speed>
  <fix>3d</fix>
</trkpt>
<trkpt lat="40.0728422" lon="-105.2305752">
  <ele>1586.15</ele>
  <time>2026-08-27T18:31:14Z</time>
  <course>11.41</course>
  <speed>0.01414213562373095</speed>
  <fix>3d</fix>
</trkpt>
<trkpt lat="40.0728423" lon="-105.2305753">
  <ele>1586.09</ele>
  <time>2026-08-27T18:31:14Z</time>
  <course>336.84</course>
  <speed>0.0</speed>
  <fix>3d</fix>
</trkpt>
<trkpt lat="40.0728422" lon="-105.2305752">
  <ele>1586.15</ele>
  <time>2026-08-27T18:31:14Z</time>
  <course>11.41</course>
  <speed>0.01414213562373095</speed>
  <fix>3d</fix>
</trkpt>
<trkpt lat="40.0728423" lon="-105.2305753">
  <ele>1586.09</ele>
  <time>2026-08-27T18:31:14Z</time>
  <course>49.73</course>
  <speed>0.0</speed>
  <fix>3d</fix>
</trkpt>
<trkpt lat="40.0728422" lon="-105.2305752">
  <ele>1586.15</ele>
  <time>2026-08-27T18:31:14Z</time>
  <course>11.41</course>
  <speed>0.01414213562373095</speed>
  <fix>3d</fix>
</trkpt>
<trkpt lat="40.0728423" lon="-105.2305753">
  <ele>1586.09</ele>
  <time>2026-08-27T18:31:14Z</time>
  <course>157.79</course>
  <speed>0.0</speed>
  <fix>3d</fix>
</trkpt>
<trkpt lat="40.0728422" lon="-105.2305752">
  <ele>1586.15</ele>
  <time>2026-08-27T18:31:14Z</time>
  <course>11.41</course>
  <speed>0.01414213562373095</speed>
  <fix>3d</fix>
</trkpt>
<trkpt lat="40.0728423" lon="-105.2305753">
  <ele>1586.09</ele>
  <time>2026-08-27T18:31:14Z</time>
  <course>328.34</course>
  <speed>0.0</speed>
  <fix>3d</fix>
</trkpt>
<trkpt lat="40.0728422" lon="-105.2305752">
  <ele>1586.15</ele>
  <time>2026-08-27T18:31:14Z</time>
  <course>11.41</course>
  <speed>0.01414213562373095</speed>
  <fix>3d</fix>
</trkpt>
<trkpt lat="40.0728423" lon="-105.2305753">
  <ele>1586.09</ele>
  <time>2026-08-27T18:31:14Z</time>
  <course>338.86</course>
  <speed>0.0</speed>
  <fix>3d</fix>
</trkpt>
<trkpt lat="40.0728422" lon="-105.2305752">
  <ele>1586.16</ele>
  <time>2026-08-27T18:31:14Z</time>
  <course>11.41</course>
  <speed>0.01414213562373095</speed>
  <fix>3d</fix>
</trkpt>
<trkpt lat="40.0728423" lon="-105.2305753">
  <ele>1586.09</ele>
  <time>2026-08-27T18:31:14Z</time>
  <course>153.39</course>
  <speed>0.0</speed>
  <fix>3d</fix>
</trkpt>
<trkpt lat="40.0728422" lon="-105.2305752">
  <ele>1586.16</ele>
  <time>2026-08-27T18:31:14Z</time>
  <course>11.41</course>
  <speed>0.01414213562373095</speed>
  <fix>3d</fix>
</trkpt>
<trkpt lat="40.0728423" lon="-105.2305753">
  <ele>1586.09</ele>
  <time>2026-08-27T18:31:14Z</time>
  <course>160.27</course>
  <speed>0.0</speed>
  <fix>3d</fix>
</trkpt>
<trkpt lat="40.0728422" lon="-105.2305752">
  <ele>1586.16</ele>
  <time>2026-08-27T18:31:14Z</time>
  <course>11.4</course>
  <speed>0.01414213562373095</speed>
  <fix>3d</fix>
</trkpt>
<trkpt lat="40.0728423" lon="-105.2305753">
  <ele>1586.09</ele>
  <time>2026-08-27T18:31:14Z</time>
  <course>335.7</course>
  <speed>0.0</speed>
  <fix>3d</fix>
</trkpt>
<trkpt lat="40.0728422" lon="-105.2305752">
  <ele>1586.16</ele>
  <time>2026-08-27T18:31:14Z</time>
  <course>11.4</course>
  <speed>0.01414213562373095</speed>
  <fix>3d</fix>
</trkpt>
<trkpt lat="40.0728423" lon="-105.2305753">
  <ele>1586.09</ele>
  <time>2026-08-27T18:31:14Z</time>
  <course>344.48</course>
  <speed>0.0</speed>
  <fix>3d</fix>
</trkpt>
<trkpt lat="40.0728422" lon="-105.2305752">
  <ele>1586.16</ele>
  <time>2026-08-27T18:31:14Z</time>
  <course>11.4</course>
  <speed>0.01414213562373095</speed>
  <fix>3d</fix>
</trkpt>
<trkpt lat="40.0728423" lon="-105.2305753">
  <ele>1586.09</ele>
  <time>2026-08-27T18:31:14Z</time>
  <course>157.23</course>
  <speed>0.0</speed>
  <fix>3d</fix>
</trkpt>
<trkpt lat="40.0728422" lon="-105.2305752">
  <ele>1586.16</ele>
  <time>2026-08-27T18:31:14Z</time>
  <course>11.4</course>
  <speed>0.01414213562373095</speed>
  <fix>3d</fix>
</trkpt>
<trkpt lat="40.0728423" lon="-105.2305753">
  <ele>1586.09</ele>
  <time>2026-08-27T18:31:14Z</time>
  <course>80.04</course>
  <speed>0.0</speed>
  <fix>3d</fix>
</trkpt>
<trkpt lat="40.0728422" lon="-105.2305752">
  <ele>1586.16</ele>
  <time>2026-08-27T18:31:14Z</time>
  <course>11.4</course>
  <speed>0.01414213562373095</speed>
  <fix>3d</fix>
</trkpt>
<trkpt lat="40.0728423" lon="-105.2305753">
  <ele>1586.09</ele>
  <time>2026-08-27T18:31:14Z</time>
  <course>353.94</course>
  <speed>0.0</speed>
  <fix>3d</fix>
</trkpt>
<trkpt lat="40.0728422" lon="-105.2305752">
  <ele>1586.16</ele>
  <time>2026-08-27T18:31:14Z</time>
  <course>11.4</course>
  <speed>0.01414213562373095</speed>
  <fix>3d</fix>
</trkpt>
<trkpt lat="40.0728423" lon="-105.2305753">
  <ele>1586.09</ele>
  <time>2026-08-27T18:31:14Z</time>
  <course>353.36</course>
  <speed>0.0</speed>
  <fix>3d</fix>
</trkpt>
<trkpt lat="40.0728422" lon="-105.2305752">
  <ele>1586.16</ele>
  <time>2026-08-27T18:31:14Z</time>
  <course>11.4</course>
  <speed>0.01414213562373095</speed>
  <fix>3d</fix>
</trkpt>
<trkpt lat="40.0728423" lon="-105.2305753">
  <ele>1586.09</ele>
  <time>2026-08-27T18:31:14Z</time>
  <course>353.3</course>
  <speed>0.0</speed>
  <fix>3d</fix>
</trkpt>
<trkpt lat="40.0728422" lon="-105.2305752">
  <ele>1586.16</ele>
  <time>2026-08-27T18:31:14Z</time>
  <course>11.4</course>
  <speed>0.01414213562373095</speed>
  <fix>3d</fix>
</trkpt>
<trkpt lat="40.0728423" lon="-105.2305753">
  <ele>1586.09</ele>
  <time>2026-08-27T18:31:14Z</time>
  <course>353.29</course>
  <speed>0.0</speed>
  <fix>3d</fix>
</trkpt>
<trkpt lat="40.0728422" lon="-105.2305752">
  <ele>1586.16</ele>
  <time>2026-08-27T18:31:14Z</time>
  <course>11.4</course>
  <speed>0.01414213562373095</speed>
  <fix>3d</fix>
</trkpt>
<trkpt lat="40.0728423" lon="-105.2305753">
  <ele>1586.09</ele>
  <time>2026-08-27T18:31:14Z</time>
  <course>353.29</course>
  <speed>0.0</speed>
  <fix>3d</fix>
</trkpt>
<trkpt lat="40.0728422" lon="-105.2305752">
  <ele>1586.15</ele>
  <time>2026-08-27T18:31:14Z</time>
  <course>11.4</course>
  <speed>0.01414213562373095</speed>
  <fix>3d</fix>
</trkpt>
<trkpt lat="40.0728423" lon="-105.2305753">
  <ele>1586.09</ele>
  <time>2026-08-27T18:31:14Z</time>
  <course>353.29</course>
  <speed>0.0</speed>
  <fix>3d</fix>
</trkpt>
<trkpt lat="40.0728422" lon="-105.2305752">
  <ele>1586.15</ele>
  <time>2026-08-27T18:31:14Z</time>
  <course>11.4</course>
  <speed>0.01414213562373095</speed>
  <fix>3d</fix>
</trkpt>
<trkpt lat="40.0728423" lon="-105.2305753">
  <ele>1586.09</ele>
  <time>2026-08-27T18:31:14Z</time>
  <course>353.29</course>
  <speed>0.0</speed>
  <fix>3d</fix>
</trkpt>
<trkpt lat="40.0728422" lon="-105.2305752">
  <ele>1586.15</ele>
  <time>2026-08-27T18:31:14Z</time>
  <course>11.39</course>
  <speed>0.01414213562373095</speed>
  <fix>3d</fix>
</trkpt>
<trkpt lat="40.0728423" lon="-105.2305753">
  <ele>1586.09</ele>
  <time>2026-08-27T18:31:14Z</time>
  <course>353.29</course>
  <speed>0.0</speed>
  <fix>3d</fix>
</trkpt>
<trkpt lat="40.0728422" lon="-105.2305752">
  <ele>1586.16</ele>
  <time>2026-08-27T18:31:14Z</time>
  <course>11.39</course>
  <speed>0.01414213562373095</speed>
  <fix>3d</fix>
</trkpt>
<trkpt lat="40.0728423" lon="-105.2305753">
  <ele>1586.09</ele>
  <time>2026-08-27T18:31:14Z</time>
  <course>353.29</course>
  <speed>0.0</speed>
  <fix>3d</fix>
</trkpt>
<trkpt lat="40.0728422" lon="-105.2305752">
  <ele>1586.16</ele>
  <time>2026-08-27T18:31:14Z</time>
  <course>11.39</course>
  <speed>0.01414213562373095</speed>
  <fix>3d</fix>
</trkpt>
<trkpt lat="40.0728423" lon="-105.2305753">
  <ele>1586.09</ele>
  <time>2026-08-27T18:31:14Z</time>
  <course>353.29</course>
  <speed>0.0</speed>
  <fix>3d</fix>
</trkpt>
<trkpt lat="40.0728422" lon="-105.2305752">
  <ele>1586.15</ele>
  <time>2026-08-27T18:31:14Z</time>
  <course>11.39</course>
  <speed>0.01414213562373095</speed>
  <fix>3d</fix>
</trkpt>
<trkpt lat="40.0728423" lon="-105.2305753">
  <ele>1586.09</ele>
  <time>2026-08-27T18:31:14Z</time>
  <course>353.29</course>
  <speed>0.0</speed>
  <fix>3d</fix>
</trkpt>
<trkpt lat="40.0728422" lon="-105.2305752">
  <ele>1586.15</ele>
  <time>2026-08-27T18:31:14Z</time>
  <course>11.39</course>
  <speed>0.01414213562373095</speed>
  <fix>3d</fix>
</trkpt>
<trkpt lat="40.0728423" lon="-105.2305753">
  <ele>1586.09</ele>
  <time>2026-08-27T18:31:14Z</time>
  <course>353.29</course>
  <speed>0.0</speed>
  <fix>3d</fix>
</trkpt>
<trkpt lat="40.0728422" lon="-105.2305752">
  <ele>1586.16</ele>
  <time>2026-08-27T18:31:14Z</time>
  <course>11.39</course>
  <speed>0.01414213562373095</speed>
  <fix>3d</fix>
</trkpt>
<trkpt lat="40.0728423" lon="-105.2305753">
  <ele>1586.09</ele>
  <time>2026-08-27T18:31:14Z</time>
  <course>353.29</course>
  <speed>0.0</speed>
  <fix>3d</fix>
</trkpt>
<trkpt lat="40.0728422" lon="-105.2305752">
  <ele>1586.16</ele>
  <time>2026-08-27T18:31:14Z</time>
  <course>11.39</course>
  <speed>0.01414213562373095</speed>
  <fix>3d</fix>
</trkpt>
<trkpt lat="40.0728423" lon="-105.2305753">
  <ele>1586.09</ele>
  <time>2026-08-27T18:31:14Z</time>
  <course>353.29</course>
  <speed>0.0</speed>
  <fix>3d</fix>
</trkpt>
<trkpt lat="40.0728422" lon="-105.2305752">
  <ele>1586.15</ele>
  <time>2026-08-27T18:31:14Z</time>
  <course>11.39</course>
  <speed>0.01414213562373095</speed>
  <fix>3d</fix>
</trkpt>
<trkpt lat="40.0728423" lon="-105.2305753">
  <ele>1586.09</ele>
  <time>2026-08-27T18:31:14Z</time>
  <course>353.29</course>
  <speed>0.0</speed>
  <fix>3d</fix>
</trkpt>
<trkpt lat="40.0728422" lon="-105.2305752">
  <ele>1586.15</ele>
  <time>2026-08-27T18:31:14Z</time>
  <course>11.39</course>
  <speed>0.01414213562373095</speed>
  <fix>3d</fix>
</trkpt>
<trkpt lat="40.0728423" lon="-105.2305753">
  <ele>1586.09</ele>
  <time>2026-08-27T18:31:14Z</time>
  <course>353.29</course>
  <speed>0.0</speed>
  <fix>3d</fix>
</trkpt>
<trkpt lat="40.0728422" lon="-105.2305752">
  <ele>1586.15</ele>
  <time>2026-08-27T18:31:14Z</time>
  <course>11.39</course>
  <speed>0.01414213562373095</speed>
  <fix>3d</fix>
</trkpt>
<trkpt lat="40.0728423" lon="-105.2305753">
  <ele>1586.09</ele>
  <time>2026-08-27T18:31:14Z</time>
  <course>353.29</course>
  <speed>0.0</speed>
  <fix>3d</fix>
</trkpt>
<trkpt lat="40.0728422" lon="-105.2305752">
  <ele>1586.16</ele>
  <time>2026-08-27T18:31:15Z</time>
  <course>11.39</course>
  <speed>0.01414213562373095</speed>
  <fix>3d</fix>
</trkpt>
<trkpt lat="40.0728423" lon="-105.2305753">
  <ele>1586.09</ele>
  <time>2026-08-27T18:31:15Z</time>
  <course>353.29</course>
  <speed>0.0</speed>
  <fix>3d</fix>
</trkpt>
<trkpt lat="40.0728422" lon="-105.2305752">
  <ele>1586.16</ele>
  <time>2026-08-27T18:31:15Z</time>
  <course>11.39</course>
  <speed>0.01414213562373095</speed>
  <fix>3d</fix>
</trkpt>
<trkpt lat="40.0728423" lon="-105.2305753">
  <ele>1586.09</ele>
  <time>2026-08-27T18:31:15Z</time>
  <course>353.29</course>
  <speed>0.0</speed>
  <fix>3d</fix>
</trkpt>
<trkpt lat="40.0728422" lon="-105.2305752">
  <ele>1586.16</ele>
  <time>2026-08-27T18:31:15Z</time>
  <course>11.38</course>
  <speed>0.01414213562373095</speed>
  <fix>3d</fix>
</trkpt>
<trkpt lat="40.0728423" lon="-105.2305753">
  <ele>1586.09</ele>
  <time>2026-08-27T18:31:15Z</time>
  <course>353.29</course>
  <speed>0.0</speed>
  <fix>3d</fix>
</trkpt>
<trkpt lat="40.0728422" lon="-105.2305752">
  <ele>1586.16</ele>
  <time>2026-08-27T18:31:15Z</time>
  <course>11.38</course>
  <speed>0.01414213562373095</speed>
  <fix>3d</fix>
</trkpt>
<trkpt lat="40.0728423" lon="-105.2305753">
  <ele>1586.09</ele>
  <time>2026-08-27T18:31:15Z</time>
  <course>353.29</course>
  <speed>0.0</speed>
  <fix>3d</fix>
</trkpt>
<trkpt lat="40.0728422" lon="-105.2305752">
  <ele>1586.16</ele>
  <time>2026-08-27T18:31:15Z</time>
  <course>11.38</course>
  <speed>0.01414213562373095</speed>
  <fix>3d</fix>
</trkpt>
<trkpt lat="40.0728423" lon="-105.2305753">
  <ele>1586.09</ele>
  <time>2026-08-27T18:31:15Z</time>
  <course>353.29</course>
  <speed>0.0</speed>
  <fix>3d</fix>
</trkpt>
<trkpt lat="40.0728422" lon="-105.2305752">
  <ele>1586.16</ele>
  <time>2026-08-27T18:31:15Z</time>
  <course>11.38</course>
  <speed>0.01414213562373095</speed>
  <fix>3d</fix>
</trkpt>
<trkpt lat="40.0728423" lon="-105.2305753">
  <ele>1586.09</ele>
  <time>2026-08-27T18:31:15Z</time>
  <course>353.29</course>
  <speed>0.0</speed>
  <fix>3d</fix>
</trkpt>
<trkpt lat="40.0728422" lon="-105.2305752">
  <ele>1586.16</ele>
  <time>2026-08-27T18:31:15Z</time>
  <course>11.38</course>
  <speed>0.01414213562373095</speed>
  <fix>3d</fix>
</trkpt>
<trkpt lat="40.0728423" lon="-105.2305753">
  <ele>1586.09</ele>
  <time>2026-08-27T18:31:15Z</time>
  <course>353.29</course>
  <speed>0.0</speed>
  <fix>3d</fix>
</trkpt>
<trkpt lat="40.0728422" lon="-105.2305752">
  <ele>1586.16</ele>
  <time>2026-08-27T18:31:15Z</time>
  <course>11.38</course>
  <speed>0.01414213562373095</speed>
  <fix>3d</fix>
</trkpt>
<trkpt lat="40.0728423" lon="-105.2305753">
  <ele>1586.09</ele>
  <time>2026-08-27T18:31:15Z</time>
  <course>353.29</course>
  <speed>0.0</speed>
  <fix>3d</fix>
</trkpt>
<trkpt lat="40.0728422" lon="-105.2305752">
  <ele>1586.16</ele>
  <time>2026-08-27T18:31:15Z</time>
  <course>11.38</course>
  <speed>0.01414213562373095</speed>
  <fix>3d</fix>
</trkpt>
<trkpt lat="40.0728423" lon="-105.2305753">
  <ele>1586.09</ele>
  <time>2026-08-27T18:31:15Z</time>
  <course>353.29</course>
  <speed>0.0</speed>
  <fix>3d</fix>
</trkpt>
<trkpt lat="40.0728422" lon="-105.2305752">
  <ele>1586.16</ele>
  <time>2026-08-27T18:31:15Z</time>
  <course>11.38</course>
  <speed>0.01414213562373095</speed>
  <fix>3d</fix>
</trkpt>
<trkpt lat="40.0728423" lon="-105.2305753">
  <ele>1586.09</ele>
  <time>2026-08-27T18:31:15Z</time>
  <course>353.29</course>
  <speed>0.0</speed>
  <fix>3d</fix>
</trkpt>
<trkpt lat="40.0728422" lon="-105.2305752">
  <ele>1586.16</ele>
  <time>2026-08-27T18:31:15Z</time>
  <course>11.4</course>
  <speed>0.01414213562373095</speed>
  <fix>3d</fix>
</trkpt>
<trkpt lat="40.0728423" lon="-105.2305753">
  <ele>1586.09</ele>
  <time>2026-08-27T18:31:15Z</time>
  <course>353.29</course>
  <speed>0.0</speed>
  <fix>3d</fix>
</trkpt>
<trkpt lat="40.0728422" lon="-105.2305752">
  <ele>1586.17</ele>
  <time>2026-08-27T18:31:15Z</time>
  <course>11.45</course>
  <speed>0.01414213562373095</speed>
  <fix>3d</fix>
</trkpt>
<trkpt lat="40.0728423" lon="-105.2305753">
  <ele>1586.09</ele>
  <time>2026-08-27T18:31:15Z</time>
  <course>353.29</course>
  <speed>0.0</speed>
  <fix>3d</fix>
</trkpt>
<trkpt lat="40.0728422" lon="-105.2305752">
  <ele>1586.17</ele>
  <time>2026-08-27T18:31:15Z</time>
  <course>11.51</course>
  <speed>0.01414213562373095</speed>
  <fix>3d</fix>
</trkpt>
<trkpt lat="40.0728423" lon="-105.2305753">
  <ele>1586.09</ele>
  <time>2026-08-27T18:31:15Z</time>
  <course>353.29</course>
  <speed>0.0</speed>
  <fix>3d</fix>
</trkpt>
<trkpt lat="40.0728422" lon="-105.2305752">
  <ele>1586.18</ele>
  <time>2026-08-27T18:31:15Z</time>
  <course>11.56</course>
  <speed>0.01414213562373095</speed>
  <fix>3d</fix>
</trkpt>
<trkpt lat="40.0728423" lon="-105.2305753">
  <ele>1586.09</ele>
  <time>2026-08-27T18:31:15Z</time>
  <course>353.29</course>
  <speed>0.0</speed>
  <fix>3d</fix>
</trkpt>
<trkpt lat="40.0728422" lon="-105.2305752">
  <ele>1586.18</ele>
  <time>2026-08-27T18:31:15Z</time>
  <course>11.61</course>
  <speed>0.01414213562373095</speed>
  <fix>3d</fix>
</trkpt>
<trkpt lat="40.0728423" lon="-105.2305753">
  <ele>1586.09</ele>
  <time>2026-08-27T18:31:15Z</time>
  <course>353.29</course>
  <speed>0.0</speed>
  <fix>3d</fix>
</trkpt>
<trkpt lat="40.0728422" lon="-105.2305752">
  <ele>1586.18</ele>
  <time>2026-08-27T18:31:15Z</time>
  <course>11.66</course>
  <speed>0.01414213562373095</speed>
  <fix>3d</fix>
</trkpt>
<trkpt lat="40.0728423" lon="-105.2305753">
  <ele>1586.09</ele>
  <time>2026-08-27T18:31:15Z</time>
  <course>353.29</course>
  <speed>0.0</speed>
  <fix>3d</fix>
</trkpt>
<trkpt lat="40.0728422" lon="-105.2305752">
  <ele>1586.18</ele>
  <time>2026-08-27T18:31:15Z</time>
  <course>11.72</course>
  <speed>0.01414213562373095</speed>
  <fix>3d</fix>
</trkpt>
<trkpt lat="40.0728423" lon="-105.2305753">
  <ele>1586.09</ele>
  <time>2026-08-27T18:31:15Z</time>
  <course>353.29</course>
  <speed>0.0</speed>
  <fix>3d</fix>
</trkpt>
<trkpt lat="40.0728422" lon="-105.2305752">
  <ele>1586.18</ele>
  <time>2026-08-27T18:31:15Z</time>
  <course>11.77</course>
  <speed>0.01414213562373095</speed>
  <fix>3d</fix>
</trkpt>
<trkpt lat="40.0728423" lon="-105.2305753">
  <ele>1586.09</ele>
  <time>2026-08-27T18:31:15Z</time>
  <course>353.29</course>
  <speed>0.0</speed>
  <fix>3d</fix>
</trkpt>
<trkpt lat="40.0728422" lon="-105.2305752">
  <ele>1586.18</ele>
  <time>2026-08-27T18:31:15Z</time>
  <course>11.82</course>
  <speed>0.01414213562373095</speed>
  <fix>3d</fix>
</trkpt>
<trkpt lat="40.0728423" lon="-105.2305753">
  <ele>1586.09</ele>
  <time>2026-08-27T18:31:15Z</time>
  <course>353.29</course>
  <speed>0.0</speed>
  <fix>3d</fix>
</trkpt>
<trkpt lat="40.0728422" lon="-105.2305752">
  <ele>1586.19</ele>
  <time>2026-08-27T18:31:15Z</time>
  <course>11.88</course>
  <speed>0.01414213562373095</speed>
  <fix>3d</fix>
</trkpt>
<trkpt lat="40.0728423" lon="-105.2305753">
  <ele>1586.09</ele>
  <time>2026-08-27T18:31:15Z</time>
  <course>353.29</course>
  <speed>0.0</speed>
  <fix>3d</fix>
</trkpt>
<trkpt lat="40.0728422" lon="-105.2305752">
  <ele>1586.19</ele>
  <time>2026-08-27T18:31:15Z</time>
  <course>11.93</course>
  <speed>0.01414213562373095</speed>
  <fix>3d</fix>
</trkpt>
<trkpt lat="40.0728423" lon="-105.2305753">
  <ele>1586.09</ele>
  <time>2026-08-27T18:31:15Z</time>
  <course>353.29</course>
  <speed>0.0</speed>
  <fix>3d</fix>
</trkpt>
<trkpt lat="40.0728422" lon="-105.2305752">
  <ele>1586.19</ele>
  <time>2026-08-27T18:31:15Z</time>
  <course>11.98</course>
  <speed>0.01414213562373095</speed>
  <fix>3d</fix>
</trkpt>
<trkpt lat="40.0728423" lon="-105.2305753">
  <ele>1586.09</ele>
  <time>2026-08-27T18:31:15Z</time>
  <course>353.29</course>
  <speed>0.0</speed>
  <fix>3d</fix>
</trkpt>
<trkpt lat="40.0728422" lon="-105.2305752">
  <ele>1586.19</ele>
  <time>2026-08-27T18:31:15Z</time>
  <course>12.04</course>
  <speed>0.01414213562373095</speed>
  <fix>3d</fix>
</trkpt>
<trkpt lat="40.0728423" lon="-105.2305753">
  <ele>1586.09</ele>
  <time>2026-08-27T18:31:15Z</time>
  <course>353.29</course>
  <speed>0.0</speed>
  <fix>3d</fix>
</trkpt>
<trkpt lat="39.6562421" lon="-104.1365912">
  <ele>1569.6</ele>
  <time>2026-08-27T18:31:16Z</time>
  <course>0.0</course>
  <speed>0.0</speed>
  <fix>3d</fix>
</trkpt>
<trkpt lat="40.072842" lon="-105.230575">
  <ele>1586.09</ele>
  <time>2026-08-27T18:31:16Z</time>
  <course>2.03</course>
  <speed>0.0</speed>
  <fix>3d</fix>
</trkpt>
<trkpt lat="40.072842" lon="-105.230575">
  <ele>1586.09</ele>
  <time>2026-08-27T18:31:16Z</time>
  <course>0.0</course>
  <speed>0.0</speed>
  <fix>3d</fix>
</trkpt>
<trkpt lat="40.072842" lon="-105.230575">
  <ele>1586.09</ele>
  <time>2026-08-27T18:31:16Z</time>
  <course>2.37</course>
  <speed>0.0</speed>
  <fix>3d</fix>
</trkpt>
<trkpt lat="40.072842" lon="-105.230575">
  <ele>1586.09</ele>
  <time>2026-08-27T18:31:16Z</time>
  <course>0.0</course>
  <speed>0.0</speed>
  <fix>3d</fix>
</trkpt>
<trkpt lat="40.072842" lon="-105.230575">
  <ele>1586.09</ele>
  <time>2026-08-27T18:31:16Z</time>
  <course>3.11</course>
  <speed>0.0</speed>
  <fix>3d</fix>
</trkpt>
<trkpt lat="40.072842" lon="-105.230575">
  <ele>1586.09</ele>
  <time>2026-08-27T18:31:16Z</time>
  <course>0.0</course>
  <speed>0.0</speed>
  <fix>3d</fix>
</trkpt>
<trkpt lat="40.072842" lon="-105.230575">
  <ele>1586.09</ele>
  <time>2026-08-27T18:31:16Z</time>
  <course>3.8</course>
  <speed>0.0</speed>
  <fix>3d</fix>
</trkpt>
<trkpt lat="40.072842" lon="-105.230575">
  <ele>1586.09</ele>
  <time>2026-08-27T18:31:16Z</time>
  <course>0.0</course>
  <speed>0.0</speed>
  <fix>3d</fix>
</trkpt>
<trkpt lat="40.072842" lon="-105.230575">
  <ele>1586.09</ele>
  <time>2026-08-27T18:31:16Z</time>
  <course>4.43</course>
  <speed>0.0</speed>
  <fix>3d</fix>
</trkpt>
<trkpt lat="40.072842" lon="-105.230575">
  <ele>1586.09</ele>
  <time>2026-08-27T18:31:16Z</time>
  <course>0.0</course>
  <speed>0.0</speed>
  <fix>3d</fix>
</trkpt>
<trkpt lat="40.072842" lon="-105.230575">
  <ele>1586.09</ele>
  <time>2026-08-27T18:31:16Z</time>
  <course>5.03</course>
  <speed>0.0</speed>
  <fix>3d</fix>
</trkpt>
<trkpt lat="40.072842" lon="-105.230575">
  <ele>1586.09</ele>
  <time>2026-08-27T18:31:16Z</time>
  <course>0.0</course>
  <speed>0.0</speed>
  <fix>3d</fix>
</trkpt>
<trkpt lat="40.072842" lon="-105.230575">
  <ele>1586.09</ele>
  <time>2026-08-27T18:31:16Z</time>
  <course>5.59</course>
  <speed>0.0</speed>
  <fix>3d</fix>
</trkpt>
<trkpt lat="40.072842" lon="-105.230575">
  <ele>1586.09</ele>
  <time>2026-08-27T18:31:16Z</time>
  <course>0.0</course>
  <speed>0.0</speed>
  <fix>3d</fix>
</trkpt>
<trkpt lat="40.072842" lon="-105.230575">
  <ele>1586.09</ele>
  <time>2026-08-27T18:31:16Z</time>
  <course>6.11</course>
  <speed>0.0</speed>
  <fix>3d</fix>
</trkpt>
<trkpt lat="40.072842" lon="-105.230575">
  <ele>1586.09</ele>
  <time>2026-08-27T18:31:16Z</time>
  <course>0.0</course>
  <speed>0.0</speed>
  <fix>3d</fix>
</trkpt>
<trkpt lat="40.072842" lon="-105.230575">
  <ele>1586.09</ele>
  <time>2026-08-27T18:31:16Z</time>
  <course>6.61</course>
  <speed>0.0</speed>
  <fix>3d</fix>
</trkpt>
<trkpt lat="40.072842" lon="-105.230575">
  <ele>1586.09</ele>
  <time>2026-08-27T18:31:16Z</time>
  <course>0.0</course>
  <speed>0.0</speed>
  <fix>3d</fix>
</trkpt>
<trkpt lat="40.072842" lon="-105.230575">
  <ele>1586.09</ele>
  <time>2026-08-27T18:31:16Z</time>
  <course>7.07</course>
  <speed>0.0</speed>
  <fix>3d</fix>
</trkpt>
<trkpt lat="40.072842" lon="-105.230575">
  <ele>1586.09</ele>
  <time>2026-08-27T18:31:16Z</time>
  <course>0.0</course>
  <speed>0.0</speed>
  <fix>3d</fix>
</trkpt>
<trkpt lat="40.072842" lon="-105.230575">
  <ele>1586.09</ele>
  <time>2026-08-27T18:31:16Z</time>
  <course>7.49</course>
  <speed>0.0</speed>
  <fix>3d</fix>
</trkpt>
<trkpt lat="40.072842" lon="-105.230575">
  <ele>1586.09</ele>
  <time>2026-08-27T18:31:16Z</time>
  <course>0.0</course>
  <speed>0.0</speed>
  <fix>3d</fix>
</trkpt>
<trkpt lat="40.072842" lon="-105.230575">
  <ele>1586.09</ele>
  <time>2026-08-27T18:31:16Z</time>
  <course>7.89</course>
  <speed>0.0</speed>
  <fix>3d</fix>
</trkpt>
<trkpt lat="40.072842" lon="-105.230575">
  <ele>1586.09</ele>
  <time>2026-08-27T18:31:16Z</time>
  <course>0.0</course>
  <speed>0.0</speed>
  <fix>3d</fix>
</trkpt>
<trkpt lat="40.072842" lon="-105.230575">
  <ele>1586.09</ele>
  <time>2026-08-27T18:31:16Z</time>
  <course>8.26</course>
  <speed>0.0</speed>
  <fix>3d</fix>
</trkpt>
<trkpt lat="40.072842" lon="-105.230575">
  <ele>1586.09</ele>
  <time>2026-08-27T18:31:16Z</time>
  <course>0.0</course>
  <speed>0.0</speed>
  <fix>3d</fix>
</trkpt>
<trkpt lat="40.072842" lon="-105.230575">
  <ele>1586.09</ele>
  <time>2026-08-27T18:31:16Z</time>
  <course>8.6</course>
  <speed>0.0</speed>
  <fix>3d</fix>
</trkpt>
<trkpt lat="40.072842" lon="-105.230575">
  <ele>1586.09</ele>
  <time>2026-08-27T18:31:16Z</time>
  <course>0.0</course>
  <speed>0.0</speed>
  <fix>3d</fix>
</trkpt>
<trkpt lat="40.072842" lon="-105.230575">
  <ele>1586.09</ele>
  <time>2026-08-27T18:31:16Z</time>
  <course>8.91</course>
  <speed>0.0</speed>
  <fix>3d</fix>
</trkpt>
<trkpt lat="40.072842" lon="-105.230575">
  <ele>1586.09</ele>
  <time>2026-08-27T18:31:16Z</time>
  <course>0.0</course>
  <speed>0.0</speed>
  <fix>3d</fix>
</trkpt>
<trkpt lat="40.072842" lon="-105.230575">
  <ele>1586.09</ele>
  <time>2026-08-27T18:31:16Z</time>
  <course>9.2</course>
  <speed>0.0</speed>
  <fix>3d</fix>
</trkpt>
<trkpt lat="40.072842" lon="-105.230575">
  <ele>1586.09</ele>
  <time>2026-08-27T18:31:16Z</time>
  <course>0.0</course>
  <speed>0.0</speed>
  <fix>3d</fix>
</trkpt>
<trkpt lat="40.072842" lon="-105.230575">
  <ele>1586.09</ele>
  <time>2026-08-27T18:31:16Z</time>
  <course>9.46</course>
  <speed>0.0</speed>
  <fix>3d</fix>
</trkpt>
<trkpt lat="40.072842" lon="-105.230575">
  <ele>1586.09</ele>
  <time>2026-08-27T18:31:16Z</time>
  <course>0.0</course>
  <speed>0.0</speed>
  <fix>3d</fix>
</trkpt>
<trkpt lat="40.072842" lon="-105.230575">
  <ele>1586.09</ele>
  <time>2026-08-27T18:31:16Z</time>
  <course>9.71</course>
  <speed>0.0</speed>
  <fix>3d</fix>
</trkpt>
<trkpt lat="40.072842" lon="-105.230575">
  <ele>1586.09</ele>
  <time>2026-08-27T18:31:16Z</time>
  <course>0.0</course>
  <speed>0.0</speed>
  <fix>3d</fix>
</trkpt>
<trkpt lat="40.072842" lon="-105.230575">
  <ele>1586.09</ele>
  <time>2026-08-27T18:31:16Z</time>
  <course>9.93</course>
  <speed>0.0</speed>
  <fix>3d</fix>
</trkpt>
<trkpt lat="40.072842" lon="-105.230575">
  <ele>1586.09</ele>
  <time>2026-08-27T18:31:16Z</time>
  <course>0.0</course>
  <speed>0.0</speed>
  <fix>3d</fix>
</trkpt>
<trkpt lat="40.072842" lon="-105.230575">
  <ele>1586.09</ele>
  <time>2026-08-27T18:31:16Z</time>
  <course>10.14</course>
  <speed>0.0</speed>
  <fix>3d</fix>
</trkpt>
<trkpt lat="40.072842" lon="-105.230575">
  <ele>1586.09</ele>
  <time>2026-08-27T18:31:16Z</time>
  <course>0.0</course>
  <speed>0.0</speed>
  <fix>3d</fix>
</trkpt>
<trkpt lat="40.072842" lon="-105.230575">
  <ele>1586.09</ele>
  <time>2026-08-27T18:31:16Z</time>
  <course>10.33</course>
  <speed>0.0</speed>
  <fix>3d</fix>
</trkpt>
<trkpt lat="40.072842" lon="-105.230575">
  <ele>1586.09</ele>
  <time>2026-08-27T18:31:16Z</time>
  <course>0.0</course>
  <speed>0.0</speed>
  <fix>3d</fix>
</trkpt>
<trkpt lat="40.072842" lon="-105.230575">
  <ele>1586.09</ele>
  <time>2026-08-27T18:31:16Z</time>
  <course>10.5</course>
  <speed>0.0</speed>
  <fix>3d</fix>
</trkpt>
<trkpt lat="40.072842" lon="-105.230575">
  <ele>1586.09</ele>
  <time>2026-08-27T18:31:16Z</time>
  <course>0.0</course>
  <speed>0.0</speed>
  <fix>3d</fix>
</trkpt>
<trkpt lat="40.072842" lon="-105.230575">
  <ele>1586.09</ele>
  <time>2026-08-27T18:31:16Z</time>
  <course>10.66</course>
  <speed>0.0</speed>
  <fix>3d</fix>
</trkpt>
<trkpt lat="40.072842" lon="-105.230575">
  <ele>1586.09</ele>
  <time>2026-08-27T18:31:16Z</time>
  <course>0.0</course>
  <speed>0.0</speed>
  <fix>3d</fix>
</trkpt>
<trkpt lat="40.072842" lon="-105.230575">
  <ele>1586.09</ele>
  <time>2026-08-27T18:31:16Z</time>
  <course>10.8</course>
  <speed>0.0</speed>
  <fix>3d</fix>
</trkpt>
<trkpt lat="40.072842" lon="-105.230575">
  <ele>1586.09</ele>
  <time>2026-08-27T18:31:16Z</time>
  <course>0.0</course>
  <speed>0.0</speed>
  <fix>3d</fix>
</trkpt>
<trkpt lat="40.072842" lon="-105.230575">
  <ele>1586.09</ele>
  <time>2026-08-27T18:31:16Z</time>
  <course>10.93</course>
  <speed>0.0</speed>
  <fix>3d</fix>
</trkpt>
<trkpt lat="40.072842" lon="-105.230575">
  <ele>1586.09</ele>
  <time>2026-08-27T18:31:16Z</time>
  <course>0.0</course>
  <speed>0.0</speed>
  <fix>3d</fix>
</trkpt>
<trkpt lat="40.072842" lon="-105.230575">
  <ele>1586.09</ele>
  <time>2026-08-27T18:31:16Z</time>
  <course>11.06</course>
  <speed>0.0</speed>
  <fix>3d</fix>
</trkpt>
<trkpt lat="40.072842" lon="-105.230575">
  <ele>1586.09</ele>
  <time>2026-08-27T18:31:16Z</time>
  <course>0.0</course>
  <speed>0.0</speed>
  <fix>3d</fix>
</trkpt>
<trkpt lat="40.072842" lon="-105.230575">
  <ele>1586.09</ele>
  <time>2026-08-27T18:31:16Z</time>
  <course>11.16</course>
  <speed>0.0</speed>
  <fix>3d</fix>
</trkpt>
<trkpt lat="40.072842" lon="-105.230575">
  <ele>1586.09</ele>
  <time>2026-08-27T18:31:16Z</time>
  <course>0.0</course>
  <speed>0.0</speed>
  <fix>3d</fix>
</trkpt>
<trkpt lat="40.072842" lon="-105.230575">
  <ele>1586.09</ele>
  <time>2026-08-27T18:31:16Z</time>
  <course>11.27</course>
  <speed>0.0</speed>
  <fix>3d</fix>
</trkpt>
<trkpt lat="40.072842" lon="-105.230575">
  <ele>1586.09</ele>
  <time>2026-08-27T18:31:16Z</time>
  <course>0.0</course>
  <speed>0.0</speed>
  <fix>3d</fix>
</trkpt>
<trkpt lat="40.072842" lon="-105.230575">
  <ele>1586.09</ele>
  <time>2026-08-27T18:31:16Z</time>
  <course>11.36</course>
  <speed>0.0</speed>
  <fix>3d</fix>
</trkpt>
<trkpt lat="40.072842" lon="-105.230575">
  <ele>1586.09</ele>
  <time>2026-08-27T18:31:16Z</time>
  <course>0.0</course>
  <speed>0.0</speed>
  <fix>3d</fix>
</trkpt>
<trkpt lat="40.072842" lon="-105.230575">
  <ele>1586.09</ele>
  <time>2026-08-27T18:31:16Z</time>
  <course>11.44</course>
  <speed>0.0</speed>
  <fix>3d</fix>
</trkpt>
<trkpt lat="40.072842" lon="-105.230575">
  <ele>1586.09</ele>
  <time>2026-08-27T18:31:16Z</time>
  <course>0.0</course>
  <speed>0.0</speed>
  <fix>3d</fix>
</trkpt>
<trkpt lat="40.072842" lon="-105.230575">
  <ele>1586.09</ele>
  <time>2026-08-27T18:31:16Z</time>
  <course>11.52</course>
  <speed>0.0</speed>
  <fix>3d</fix>
</trkpt>
<trkpt lat="40.072842" lon="-105.230575">
  <ele>1586.09</ele>
  <time>2026-08-27T18:31:16Z</time>
  <course>0.0</course>
  <speed>0.0</speed>
  <fix>3d</fix>
</trkpt>
<trkpt lat="40.072842" lon="-105.230575">
  <ele>1586.09</ele>
  <time>2026-08-27T18:31:16Z</time>
  <course>11.58</course>
  <speed>0.0</speed>
  <fix>3d</fix>
</trkpt>
<trkpt lat="40.072842" lon="-105.230575">
  <ele>1586.09</ele>
  <time>2026-08-27T18:31:16Z</time>
  <course>0.0</course>
  <speed>0.0</speed>
  <fix>3d</fix>
</trkpt>
<trkpt lat="40.072842" lon="-105.230575">
  <ele>1586.09</ele>
  <time>2026-08-27T18:31:16Z</time>
  <course>11.65</course>
  <speed>0.0</speed>
  <fix>3d</fix>
</trkpt>
<trkpt lat="40.072842" lon="-105.230575">
  <ele>1586.09</ele>
  <time>2026-08-27T18:31:16Z</time>
  <course>0.0</course>
  <speed>0.0</speed>
  <fix>3d</fix>
</trkpt>
<trkpt lat="40.072842" lon="-105.230575">
  <ele>1586.09</ele>
  <time>2026-08-27T18:31:16Z</time>
  <course>11.71</course>
  <speed>0.0</speed>
  <fix>3d</fix>
</trkpt>
<trkpt lat="40.072842" lon="-105.230575">
  <ele>1586.09</ele>
  <time>2026-08-27T18:31:16Z</time>
  <course>0.0</course>
  <speed>0.0</speed>
  <fix>3d</fix>
</trkpt>
<trkpt lat="40.072842" lon="-105.230575">
  <ele>1586.09</ele>
  <time>2026-08-27T18:31:16Z</time>
  <course>11.76</course>
  <speed>0.0</speed>
  <fix>3d</fix>
</trkpt>
<trkpt lat="40.072842" lon="-105.230575">
  <ele>1586.09</ele>
  <time>2026-08-27T18:31:16Z</time>
  <course>0.0</course>
  <speed>0.0</speed>
  <fix>3d</fix>
</trkpt>
<trkpt lat="40.072842" lon="-105.230575">
  <ele>1586.09</ele>
  <time>2026-08-27T18:31:16Z</time>
  <course>11.81</course>
  <speed>0.0</speed>
  <fix>3d</fix>
</trkpt>
<trkpt lat="40.072842" lon="-105.230575">
  <ele>1586.09</ele>
  <time>2026-08-27T18:31:16Z</time>
  <course>0.0</course>
  <speed>0.0</speed>
  <fix>3d</fix>
</trkpt>
<trkpt lat="40.072842" lon="-105.230575">
  <ele>1586.09</ele>
  <time>2026-08-27T18:31:16Z</time>
  <course>11.85</course>
  <speed>0.0</speed>
  <fix>3d</fix>
</trkpt>
<trkpt lat="40.072842" lon="-105.230575">
  <ele>1586.09</ele>
  <time>2026-08-27T18:31:16Z</time>
  <course>0.0</course>
  <speed>0.0</speed>
  <fix>3d</fix>
</trkpt>
<trkpt lat="40.072842" lon="-105.230575">
  <ele>1586.09</ele>
  <time>2026-08-27T18:31:16Z</time>
  <course>11.89</course>
  <speed>0.0</speed>
  <fix>3d</fix>
</trkpt>
<trkpt lat="40.072842" lon="-105.230575">
  <ele>1586.09</ele>
  <time>2026-08-27T18:31:16Z</time>
  <course>0.0</course>
  <speed>0.0</speed>
  <fix>3d</fix>
</trkpt>
<trkpt lat="40.072842" lon="-105.230575">
  <ele>1586.09</ele>
  <time>2026-08-27T18:31:16Z</time>
  <course>11.92</course>
  <speed>0.0</speed>
  <fix>3d</fix>
</trkpt>
<trkpt lat="40.072842" lon="-105.230575">
  <ele>1586.09</ele>
  <time>2026-08-27T18:31:16Z</time>
  <course>0.0</course>
  <speed>0.0</speed>
  <fix>3d</fix>
</trkpt>
<trkpt lat="40.072842" lon="-105.230575">
  <ele>1586.09</ele>
  <time>2026-08-27T18:31:16Z</time>
  <course>11.95</course>
  <speed>0.0</speed>
  <fix>3d</fix>
</trkpt>
<trkpt lat="40.072842" lon="-105.230575">
  <ele>1586.09</ele>
  <time>2026-08-27T18:31:16Z</time>
  <course>0.0</course>
  <speed>0.0</speed>
  <fix>3d</fix>
</trkpt>
<trkpt lat="40.072842" lon="-105.230575">
  <ele>1586.09</ele>
  <time>2026-08-27T18:31:16Z</time>
  <course>11.97</course>
  <speed>0.0</speed>
  <fix>3d</fix>
</trkpt>
<trkpt lat="40.072842" lon="-105.230575">
  <ele>1586.09</ele>
  <time>2026-08-27T18:31:16Z</time>
  <course>0.0</course>
  <speed>0.0</speed>
  <fix>3d</fix>
</trkpt>
<trkpt lat="40.072842" lon="-105.230575">
  <ele>1586.09</ele>
  <time>2026-08-27T18:31:16Z</time>
  <course>12.0</course>
  <speed>0.0</speed>
  <fix>3d</fix>
</trkpt>
<trkpt lat="40.072842" lon="-105.230575">
  <ele>1586.09</ele>
  <time>2026-08-27T18:31:16Z</time>
  <course>0.0</course>
  <speed>0.0</speed>
  <fix>3d</fix>
</trkpt>
<trkpt lat="40.072842" lon="-105.230575">
  <ele>1586.09</ele>
  <time>2026-08-27T18:31:16Z</time>
  <course>12.02</course>
  <speed>0.0</speed>
  <fix>3d</fix>
</trkpt>
<trkpt lat="40.072842" lon="-105.230575">
  <ele>1586.09</ele>
  <time>2026-08-27T18:31:16Z</time>
  <course>0.0</course>
  <speed>0.0</speed>
  <fix>3d</fix>
</trkpt>
<trkpt lat="40.072842" lon="-105.230575">
  <ele>1586.09</ele>
  <time>2026-08-27T18:31:16Z</time>
  <course>12.04</course>
  <speed>0.0</speed>
  <fix>3d</fix>
</trkpt>
<trkpt lat="40.072842" lon="-105.230575">
  <ele>1586.09</ele>
  <time>2026-08-27T18:31:16Z</time>
  <course>0.0</course>
  <speed>0.0</speed>
  <fix>3d</fix>
</trkpt>
<trkpt lat="40.072842" lon="-105.230575">
  <ele>1586.09</ele>
  <time>2026-08-27T18:31:16Z</time>
  <course>12.05</course>
  <speed>0.0</speed>
  <fix>3d</fix>
</trkpt>
<trkpt lat="40.072842" lon="-105.230575">
  <ele>1586.09</ele>
  <time>2026-08-27T18:31:16Z</time>
  <course>0.0</course>
  <speed>0.0</speed>
  <fix>3d</fix>
</trkpt>
<trkpt lat="40.072842" lon="-105.230575">
  <ele>1586.09</ele>
  <time>2026-08-27T18:31:16Z</time>
  <course>12.07</course>
  <speed>0.0</speed>
  <fix>3d</fix>
</trkpt>
<trkpt lat="40.072842" lon="-105.230575">
  <ele>1586.09</ele>
  <time>2026-08-27T18:31:16Z</time>
  <course>0.0</course>
  <speed>0.0</speed>
  <fix>3d</fix>
</trkpt>
<trkpt lat="40.072842" lon="-105.230575">
  <ele>1586.09</ele>
  <time>2026-08-27T18:31:16Z</time>
  <course>12.08</course>
  <speed>0.0</speed>
  <fix>3d</fix>
</trkpt>
<trkpt lat="40.072842" lon="-105.230575">
  <ele>1586.09</ele>
  <time>2026-08-27T18:31:16Z</time>
  <course>0.0</course>
  <speed>0.0</speed>
  <fix>3d</fix>
</trkpt>
<trkpt lat="40.072842" lon="-105.230575">
  <ele>1586.09</ele>
  <time>2026-08-27T18:31:16Z</time>
  <course>12.09</course>
  <speed>0.0</speed>
  <fix>3d</fix>
</trkpt>
<trkpt lat="40.072842" lon="-105.230575">
  <ele>1586.09</ele>
  <time>2026-08-27T18:31:16Z</time>
  <course>0.0</course>
  <speed>0.0</speed>
  <fix>3d</fix>
</trkpt>
<trkpt lat="40.072842" lon="-105.230575">
  <ele>1586.09</ele>
  <time>2026-08-27T18:31:16Z</time>
  <course>12.1</course>
  <speed>0.0</speed>
  <fix>3d</fix>
</trkpt>
<trkpt lat="40.072842" lon="-105.230575">
  <ele>1586.09</ele>
  <time>2026-08-27T18:31:16Z</time>
  <course>0.0</course>
  <speed>0.0</speed>
  <fix>3d</fix>
</trkpt>
<trkpt lat="40.072842" lon="-105.230575">
  <ele>1586.09</ele>
  <time>2026-08-27T18:31:16Z</time>
  <course>12.1</course>
  <speed>0.0</speed>
  <fix>3d</fix>
</trkpt>
<trkpt lat="40.072842" lon="-105.230575">
  <ele>1586.09</ele>
  <time>2026-08-27T18:31:16Z</time>
  <course>0.0</course>
  <speed>0.0</speed>
  <fix>3d</fix>
</trkpt>
<trkpt lat="40.072842" lon="-105.230575">
  <ele>1586.09</ele>
  <time>2026-08-27T18:31:16Z</time>
  <course>12.11</course>
  <speed>0.0</speed>
  <fix>3d</fix>
</trkpt>
<trkpt lat="40.072842" lon="-105.230575">
  <ele>1586.09</ele>
  <time>2026-08-27T18:31:16Z</time>
  <course>0.0</course>
  <speed>0.0</speed>
  <fix>3d</fix>
</trkpt>
<trkpt lat="40.072842" lon="-105.230575">
  <ele>1586.09</ele>
  <time>2026-08-27T18:31:16Z</time>
  <course>12.11</course>
  <speed>0.0</speed>
  <fix>3d</fix>
</trkpt>
<trkpt lat="40.072842" lon="-105.230575">
  <ele>1586.09</ele>
  <time>2026-08-27T18:31:16Z</time>
  <course>0.0</course>
  <speed>0.0</speed>
  <fix>3d</fix>
</trkpt>
<trkpt lat="40.072842" lon="-105.230575">
  <ele>1586.09</ele>
  <time>2026-08-27T18:31:16Z</time>
  <course>12.12</course>
  <speed>0.0</speed>
  <fix>3d</fix>
</trkpt>
<trkpt lat="40.072842" lon="-105.230575">
  <ele>1586.09</ele>
  <time>2026-08-27T18:31:16Z</time>
  <course>0.0</course>
  <speed>0.0</speed>
  <fix>3d</fix>
</trkpt>
<trkpt lat="40.072842" lon="-105.230575">
  <ele>1586.09</ele>
  <time>2026-08-27T18:31:16Z</time>
  <course>12.12</course>
  <speed>0.0</speed>
  <fix>3d</fix>
</trkpt>
<trkpt lat="40.072842" lon="-105.230575">
  <ele>1586.09</ele>
  <time>2026-08-27T18:31:16Z</time>
  <course>0.0</course>
  <speed>0.0</speed>
  <fix>3d</fix>
</trkpt>
<trkpt lat="40.072842" lon="-105.230575">
  <ele>1586.09</ele>
  <time>2026-08-27T18:31:16Z</time>
  <course>12.12</course>
  <speed>0.0</speed>
  <fix>3d</fix>
</trkpt>
<trkpt lat="40.072842" lon="-105.230575">
  <ele>1586.09</ele>
  <time>2026-08-27T18:31:16Z</time>
  <course>0.0</course>
  <speed>0.0</speed>
  <fix>3d</fix>
</trkpt>
<trkpt lat="40.072842" lon="-105.230575">
  <ele>1586.09</ele>
  <time>2026-08-27T18:31:16Z</time>
  <course>12.12</course>
  <speed>0.0</speed>
  <fix>3d</fix>
</trkpt>
<trkpt lat="40.072842" lon="-105.230575">
  <ele>1586.09</ele>
  <time>2026-08-27T18:31:16Z</time>
  <course>0.0</course>
  <speed>0.0</speed>
  <fix>3d</fix>
</trkpt>
<trkpt lat="40.072842" lon="-105.230575">
  <ele>1586.09</ele>
  <time>2026-08-27T18:31:16Z</time>
  <course>12.12</course>
  <speed>0.0</speed>
  <fix>3d</fix>
</trkpt>
<trkpt lat="40.072842" lon="-105.230575">
  <ele>1586.09</ele>
  <time>2026-08-27T18:31:16Z</time>
  <course>0.0</course>
  <speed>0.0</speed>
  <fix>3d</fix>
</trkpt>
<trkpt lat="40.072842" lon="-105.230575">
  <ele>1586.09</ele>
  <time>2026-08-27T18:31:16Z</time>
  <course>12.12</course>
  <speed>0.01</speed>
  <fix>3d</fix>
</trkpt>
<trkpt lat="40.072842" lon="-105.230575">
  <ele>1586.09</ele>
  <time>2026-08-27T18:31:16Z</time>
  <course>0.0</course>
  <speed>0.0</speed>
  <fix>3d</fix>
</trkpt>
<trkpt lat="40.072842" lon="-105.230575">
  <ele>1586.09</ele>
  <time>2026-08-27T18:31:16Z</time>
  <course>12.12</course>
  <speed>0.01</speed>
  <fix>3d</fix>
</trkpt>
<trkpt lat="40.072842" lon="-105.230575">
  <ele>1586.09</ele>
  <time>2026-08-27T18:31:16Z</time>
  <course>0.0</course>
  <speed>0.0</speed>
  <fix>3d</fix>
</trkpt>
<trkpt lat="40.072842" lon="-105.230575">
  <ele>1586.09</ele>
  <time>2026-08-27T18:31:16Z</time>
  <course>12.12</course>
  <speed>0.01</speed>
  <fix>3d</fix>
</trkpt>
<trkpt lat="40.072842" lon="-105.230575">
  <ele>1586.09</ele>
  <time>2026-08-27T18:31:16Z</time>
  <course>0.0</course>
  <speed>0.0</speed>
  <fix>3d</fix>
</trkpt>
<trkpt lat="40.072842" lon="-105.230575">
  <ele>1586.09</ele>
  <time>2026-08-27T18:31:16Z</time>
  <course>12.11</course>
  <speed>0.01</speed>
  <fix>3d</fix>
</trkpt>
<trkpt lat="40.072842" lon="-105.230575">
  <ele>1586.09</ele>
  <time>2026-08-27T18:31:16Z</time>
  <course>0.0</course>
  <speed>0.0</speed>
  <fix>3d</fix>
</trkpt>
<trkpt lat="40.072842" lon="-105.230575">
  <ele>1586.09</ele>
  <time>2026-08-27T18:31:16Z</time>
  <course>12.11</course>
  <speed>0.01</speed>
  <fix>3d</fix>
</trkpt>
<trkpt lat="40.072842" lon="-105.230575">
  <ele>1586.09</ele>
  <time>2026-08-27T18:31:16Z</time>
  <course>0.0</course>
  <speed>0.0</speed>
  <fix>3d</fix>
</trkpt>
<trkpt lat="40.072842" lon="-105.230575">
  <ele>1586.09</ele>
  <time>2026-08-27T18:31:17Z</time>
  <course>12.11</course>
  <speed>0.01</speed>
  <fix>3d</fix>
</trkpt>
<trkpt lat="40.072842" lon="-105.230575">
  <ele>1586.09</ele>
  <time>2026-08-27T18:31:17Z</time>
  <course>0.0</course>
  <speed>0.0</speed>
  <fix>3d</fix>
</trkpt>
<trkpt lat="40.072842" lon="-105.230575">
  <ele>1586.09</ele>
  <time>2026-08-27T18:31:17Z</time>
  <course>12.1</course>
  <speed>0.01</speed>
  <fix>3d</fix>
</trkpt>
<trkpt lat="40.072842" lon="-105.230575">
  <ele>1586.09</ele>
  <time>2026-08-27T18:31:17Z</time>
  <course>0.0</course>
  <speed>0.0</speed>
  <fix>3d</fix>
</trkpt>
<trkpt lat="40.072842" lon="-105.230575">
  <ele>1586.09</ele>
  <time>2026-08-27T18:31:17Z</time>
  <course>12.1</course>
  <speed>0.01</speed>
  <fix>3d</fix>
</trkpt>
<trkpt lat="40.072842" lon="-105.230575">
  <ele>1586.09</ele>
  <time>2026-08-27T18:31:17Z</time>
  <course>0.0</course>
  <speed>0.0</speed>
  <fix>3d</fix>
</trkpt>
<trkpt lat="40.072842" lon="-105.230575">
  <ele>1586.09</ele>
  <time>2026-08-27T18:31:17Z</time>
  <course>12.09</course>
  <speed>0.01</speed>
  <fix>3d</fix>
</trkpt>
<trkpt lat="40.072842" lon="-105.230575">
  <ele>1586.09</ele>
  <time>2026-08-27T18:31:17Z</time>
  <course>0.0</course>
  <speed>0.0</speed>
  <fix>3d</fix>
</trkpt>
<trkpt lat="40.072842" lon="-105.230575">
  <ele>1586.09</ele>
  <time>2026-08-27T18:31:17Z</time>
  <course>12.09</course>
  <speed>0.01</speed>
  <fix>3d</fix>
</trkpt>
<trkpt lat="40.072842" lon="-105.230575">
  <ele>1586.09</ele>
  <time>2026-08-27T18:31:17Z</time>
  <course>0.0</course>
  <speed>0.0</speed>
  <fix>3d</fix>
</trkpt>
<trkpt lat="40.072842" lon="-105.230575">
  <ele>1586.09</ele>
  <time>2026-08-27T18:31:17Z</time>
  <course>12.08</course>
  <speed>0.01414213562373095</speed>
  <fix>3d</fix>
</trkpt>
<trkpt lat="40.072842" lon="-105.230575">
  <ele>1586.09</ele>
  <time>2026-08-27T18:31:17Z</time>
  <course>0.0</course>
  <speed>0.0</speed>
  <fix>3d</fix>
</trkpt>
<trkpt lat="40.072842" lon="-105.230575">
  <ele>1586.09</ele>
  <time>2026-08-27T18:31:17Z</time>
  <course>12.07</course>
  <speed>0.01414213562373095</speed>
  <fix>3d</fix>
</trkpt>
<trkpt lat="40.072842" lon="-105.230575">
  <ele>1586.09</ele>
  <time>2026-08-27T18:31:17Z</time>
  <course>0.0</course>
  <speed>0.0</speed>
  <fix>3d</fix>
</trkpt>
<trkpt lat="40.072842" lon="-105.230575">
  <ele>1586.09</ele>
  <time>2026-08-27T18:31:17Z</time>
  <course>12.07</course>
  <speed>0.01414213562373095</speed>
  <fix>3d</fix>
</trkpt>
<trkpt lat="40.072842" lon="-105.230575">
  <ele>1586.09</ele>
  <time>2026-08-27T18:31:17Z</time>
  <course>0.0</course>
  <speed>0.0</speed>
  <fix>3d</fix>
</trkpt>
<trkpt lat="40.072842" lon="-105.230575">
  <ele>1586.09</ele>
  <time>2026-08-27T18:31:17Z</time>
  <course>12.06</course>
  <speed>0.01414213562373095</speed>
  <fix>3d</fix>
</trkpt>
<trkpt lat="40.072842" lon="-105.230575">
  <ele>1586.09</ele>
  <time>2026-08-27T18:31:17Z</time>
  <course>0.0</course>
  <speed>0.0</speed>
  <fix>3d</fix>
</trkpt>
<trkpt lat="40.072842" lon="-105.230575">
  <ele>1586.09</ele>
  <time>2026-08-27T18:31:17Z</time>
  <course>12.05</course>
  <speed>0.01414213562373095</speed>
  <fix>3d</fix>
</trkpt>
<trkpt lat="40.072842" lon="-105.230575">
  <ele>1586.09</ele>
  <time>2026-08-27T18:31:17Z</time>
  <course>0.0</course>
  <speed>0.0</speed>
  <fix>3d</fix>
</trkpt>
<trkpt lat="40.072842" lon="-105.230575">
  <ele>1586.09</ele>
  <time>2026-08-27T18:31:17Z</time>
  <course>12.05</course>
  <speed>0.01414213562373095</speed>
  <fix>3d</fix>
</trkpt>
<trkpt lat="40.072842" lon="-105.230575">
  <ele>1586.09</ele>
  <time>2026-08-27T18:31:17Z</time>
  <course>0.0</course>
  <speed>0.0</speed>
  <fix>3d</fix>
</trkpt>
<trkpt lat="40.072842" lon="-105.230575">
  <ele>1586.09</ele>
  <time>2026-08-27T18:31:17Z</time>
  <course>12.04</course>
  <speed>0.01414213562373095</speed>
  <fix>3d</fix>
</trkpt>
<trkpt lat="40.072842" lon="-105.230575">
  <ele>1586.09</ele>
  <time>2026-08-27T18:31:17Z</time>
  <course>0.0</course>
  <speed>0.0</speed>
  <fix>3d</fix>
</trkpt>
<trkpt lat="40.072842" lon="-105.230575">
  <ele>1586.09</ele>
  <time>2026-08-27T18:31:17Z</time>
  <course>12.03</course>
  <speed>0.01414213562373095</speed>
  <fix>3d</fix>
</trkpt>
<trkpt lat="40.072842" lon="-105.230575">
  <ele>1586.09</ele>
  <time>2026-08-27T18:31:17Z</time>
  <course>0.0</course>
  <speed>0.0</speed>
  <fix>3d</fix>
</trkpt>
<trkpt lat="40.072842" lon="-105.230575">
  <ele>1586.09</ele>
  <time>2026-08-27T18:31:17Z</time>
  <course>12.02</course>
  <speed>0.01414213562373095</speed>
  <fix>3d</fix>
</trkpt>
<trkpt lat="40.072842" lon="-105.230575">
  <ele>1586.09</ele>
  <time>2026-08-27T18:31:17Z</time>
  <course>0.0</course>
  <speed>0.0</speed>
  <fix>3d</fix>
</trkpt>
<trkpt lat="40.072842" lon="-105.230575">
  <ele>1586.09</ele>
  <time>2026-08-27T18:31:17Z</time>
  <course>12.02</course>
  <speed>0.01414213562373095</speed>
  <fix>3d</fix>
</trkpt>
<trkpt lat="40.072842" lon="-105.230575">
  <ele>1586.09</ele>
  <time>2026-08-27T18:31:17Z</time>
  <course>0.0</course>
  <speed>0.0</speed>
  <fix>3d</fix>
</trkpt>
<trkpt lat="40.072842" lon="-105.230575">
  <ele>1586.09</ele>
  <time>2026-08-27T18:31:17Z</time>
  <course>12.01</course>
  <speed>0.01414213562373095</speed>
  <fix>3d</fix>
</trkpt>
<trkpt lat="40.072842" lon="-105.230575">
  <ele>1586.09</ele>
  <time>2026-08-27T18:31:17Z</time>
  <course>0.0</course>
  <speed>0.0</speed>
  <fix>3d</fix>
</trkpt>
<trkpt lat="40.072842" lon="-105.230575">
  <ele>1586.09</ele>
  <time>2026-08-27T18:31:17Z</time>
  <course>12.0</course>
  <speed>0.01414213562373095</speed>
  <fix>3d</fix>
</trkpt>
<trkpt lat="40.072842" lon="-105.230575">
  <ele>1586.09</ele>
  <time>2026-08-27T18:31:17Z</time>
  <course>0.0</course>
  <speed>0.0</speed>
  <fix>3d</fix>
</trkpt>
<trkpt lat="40.072842" lon="-105.230575">
  <ele>1586.09</ele>
  <time>2026-08-27T18:31:17Z</time>
  <course>11.99</course>
  <speed>0.01414213562373095</speed>
  <fix>3d</fix>
</trkpt>
<trkpt lat="40.072842" lon="-105.230575">
  <ele>1586.09</ele>
  <time>2026-08-27T18:31:17Z</time>
  <course>0.0</course>
  <speed>0.0</speed>
  <fix>3d</fix>
</trkpt>
<trkpt lat="40.072842" lon="-105.230575">
  <ele>1586.09</ele>
  <time>2026-08-27T18:31:17Z</time>
  <course>11.99</course>
  <speed>0.01414213562373095</speed>
  <fix>3d</fix>
</trkpt>
<trkpt lat="40.072842" lon="-105.230575">
  <ele>1586.09</ele>
  <time>2026-08-27T18:31:17Z</time>
  <course>0.0</course>
  <speed>0.0</speed>
  <fix>3d</fix>
</trkpt>
<trkpt lat="40.072842" lon="-105.230575">
  <ele>1586.09</ele>
  <time>2026-08-27T18:31:17Z</time>
  <course>11.98</course>
  <speed>0.01414213562373095</speed>
  <fix>3d</fix>
</trkpt>
<trkpt lat="40.072842" lon="-105.230575">
  <ele>1586.09</ele>
  <time>2026-08-27T18:31:17Z</time>
  <course>0.0</course>
  <speed>0.0</speed>
  <fix>3d</fix>
</trkpt>
<trkpt lat="40.072842" lon="-105.230575">
  <ele>1586.09</ele>
  <time>2026-08-27T18:31:17Z</time>
  <course>11.97</course>
  <speed>0.01414213562373095</speed>
  <fix>3d</fix>
</trkpt>
<trkpt lat="40.072842" lon="-105.230575">
  <ele>1586.09</ele>
  <time>2026-08-27T18:31:17Z</time>
  <course>0.0</course>
  <speed>0.0</speed>
  <fix>3d</fix>
</trkpt>
<trkpt lat="40.072842" lon="-105.230575">
  <ele>1586.09</ele>
  <time>2026-08-27T18:31:17Z</time>
  <course>11.96</course>
  <speed>0.01414213562373095</speed>
  <fix>3d</fix>
</trkpt>
<trkpt lat="40.072842" lon="-105.230575">
  <ele>1586.09</ele>
  <time>2026-08-27T18:31:17Z</time>
  <course>0.0</course>
  <speed>0.0</speed>
  <fix>3d</fix>
</trkpt>
<trkpt lat="40.072842" lon="-105.230575">
  <ele>1586.09</ele>
  <time>2026-08-27T18:31:17Z</time>
  <course>11.95</course>
  <speed>0.022360679774997897</speed>
  <fix>3d</fix>
</trkpt>
<trkpt lat="40.072842" lon="-105.230575">
  <ele>1586.09</ele>
  <time>2026-08-27T18:31:17Z</time>
  <course>0.0</course>
  <speed>0.0</speed>
  <fix>3d</fix>
</trkpt>
<trkpt lat="40.072842" lon="-105.230575">
  <ele>1586.09</ele>
  <time>2026-08-27T18:31:17Z</time>
  <course>11.95</course>
  <speed>0.022360679774997897</speed>
  <fix>3d</fix>
</trkpt>
<trkpt lat="40.072842" lon="-105.230575">
  <ele>1586.09</ele>
  <time>2026-08-27T18:31:17Z</time>
  <course>0.0</course>
  <speed>0.0</speed>
  <fix>3d</fix>
</trkpt>
<trkpt lat="40.072842" lon="-105.230575">
  <ele>1586.09</ele>
  <time>2026-08-27T18:31:17Z</time>
  <course>11.94</course>
  <speed>0.022360679774997897</speed>
  <fix>3d</fix>
</trkpt>
<trkpt lat="40.072842" lon="-105.230575">
  <ele>1586.09</ele>
  <time>2026-08-27T18:31:17Z</time>
  <course>0.0</course>
  <speed>0.0</speed>
  <fix>3d</fix>
</trkpt>
<trkpt lat="40.072842" lon="-105.230575">
  <ele>1586.09</ele>
  <time>2026-08-27T18:31:17Z</time>
  <course>11.93</course>
  <speed>0.022360679774997897</speed>
  <fix>3d</fix>
</trkpt>
<trkpt lat="40.072842" lon="-105.230575">
  <ele>1586.09</ele>
  <time>2026-08-27T18:31:17Z</time>
  <course>0.0</course>
  <speed>0.0</speed>
  <fix>3d</fix>
</trkpt>
<trkpt lat="40.072842" lon="-105.230575">
  <ele>1586.09</ele>
  <time>2026-08-27T18:31:17Z</time>
  <course>11.92</course>
  <speed>0.022360679774997897</speed>
  <fix>3d</fix>
</trkpt>
<trkpt lat="40.072842" lon="-105.230575">
  <ele>1586.09</ele>
  <time>2026-08-27T18:31:17Z</time>
  <course>0.0</course>
  <speed>0.0</speed>
  <fix>3d</fix>
</trkpt>
<trkpt lat="40.072842" lon="-105.230575">
  <ele>1586.09</ele>
  <time>2026-08-27T18:31:17Z</time>
  <course>11.91</course>
  <speed>0.022360679774997897</speed>
  <fix>3d</fix>
</trkpt>
<trkpt lat="40.072842" lon="-105.230575">
  <ele>1586.09</ele>
  <time>2026-08-27T18:31:17Z</time>
  <course>0.0</course>
  <speed>0.0</speed>
  <fix>3d</fix>
</trkpt>
<trkpt lat="40.072842" lon="-105.230575">
  <ele>1586.09</ele>
  <time>2026-08-27T18:31:17Z</time>
  <course>11.91</course>
  <speed>0.022360679774997897</speed>
  <fix>3d</fix>
</trkpt>
<trkpt lat="40.072842" lon="-105.230575">
  <ele>1586.09</ele>
  <time>2026-08-27T18:31:17Z</time>
  <course>0.0</course>
  <speed>0.0</speed>
  <fix>3d</fix>
</trkpt>
<trkpt lat="40.072842" lon="-105.230575">
  <ele>1586.09</ele>
  <time>2026-08-27T18:31:17Z</time>
  <course>11.9</course>
  <speed>0.022360679774997897</speed>
  <fix>3d</fix>
</trkpt>
<trkpt lat="40.072842" lon="-105.230575">
  <ele>1586.09</ele>
  <time>2026-08-27T18:31:17Z</time>
  <course>0.0</course>
  <speed>0.0</speed>
  <fix>3d</fix>
</trkpt>
<trkpt lat="40.072842" lon="-105.230575">
  <ele>1586.09</ele>
  <time>2026-08-27T18:31:17Z</time>
  <course>11.89</course>
  <speed>0.022360679774997897</speed>
  <fix>3d</fix>
</trkpt>
<trkpt lat="40.072842" lon="-105.230575">
  <ele>1586.09</ele>
  <time>2026-08-27T18:31:17Z</time>
  <course>0.0</course>
  <speed>0.0</speed>
  <fix>3d</fix>
</trkpt>
<trkpt lat="40.072842" lon="-105.230575">
  <ele>1586.09</ele>
  <time>2026-08-27T18:31:17Z</time>
  <course>11.88</course>
  <speed>0.022360679774997897</speed>
  <fix>3d</fix>
</trkpt>
<trkpt lat="40.072842" lon="-105.230575">
  <ele>1586.09</ele>
  <time>2026-08-27T18:31:17Z</time>
  <course>0.0</course>
  <speed>0.0</speed>
  <fix>3d</fix>
</trkpt>
<trkpt lat="40.072842" lon="-105.230575">
  <ele>1586.09</ele>
  <time>2026-08-27T18:31:17Z</time>
  <course>11.87</course>
  <speed>0.022360679774997897</speed>
  <fix>3d</fix>
</trkpt>
<trkpt lat="40.072842" lon="-105.230575">
  <ele>1586.09</ele>
  <time>2026-08-27T18:31:17Z</time>
  <course>0.0</course>
  <speed>0.0</speed>
  <fix>3d</fix>
</trkpt>
<trkpt lat="40.072842" lon="-105.230575">
  <ele>1586.09</ele>
  <time>2026-08-27T18:31:17Z</time>
  <course>11.86</course>
  <speed>0.022360679774997897</speed>
  <fix>3d</fix>
</trkpt>
<trkpt lat="40.072842" lon="-105.230575">
  <ele>1586.09</ele>
  <time>2026-08-27T18:31:17Z</time>
  <course>0.0</course>
  <speed>0.0</speed>
  <fix>3d</fix>
</trkpt>
<trkpt lat="40.072842" lon="-105.230575">
  <ele>1586.09</ele>
  <time>2026-08-27T18:31:17Z</time>
  <course>11.86</course>
  <speed>0.022360679774997897</speed>
  <fix>3d</fix>
</trkpt>
<trkpt lat="40.072842" lon="-105.230575">
  <ele>1586.09</ele>
  <time>2026-08-27T18:31:17Z</time>
  <course>0.0</course>
  <speed>0.0</speed>
  <fix>3d</fix>
</trkpt>
<trkpt lat="40.072842" lon="-105.230575">
  <ele>1586.09</ele>
  <time>2026-08-27T18:31:17Z</time>
  <course>11.85</course>
  <speed>0.022360679774997897</speed>
  <fix>3d</fix>
</trkpt>
<trkpt lat="40.072842" lon="-105.230575">
  <ele>1586.09</ele>
  <time>2026-08-27T18:31:17Z</time>
  <course>0.0</course>
  <speed>0.0</speed>
  <fix>3d</fix>
</trkpt>
<trkpt lat="40.072842" lon="-105.230575">
  <ele>1586.09</ele>
  <time>2026-08-27T18:31:17Z</time>
  <course>11.84</course>
  <speed>0.022360679774997897</speed>
  <fix>3d</fix>
</trkpt>
<trkpt lat="40.072842" lon="-105.230575">
  <ele>1586.09</ele>
  <time>2026-08-27T18:31:17Z</time>
  <course>0.0</course>
  <speed>0.0</speed>
  <fix>3d</fix>
</trkpt>
<trkpt lat="40.072842" lon="-105.230575">
  <ele>1586.09</ele>
  <time>2026-08-27T18:31:17Z</time>
  <course>11.83</course>
  <speed>0.022360679774997897</speed>
  <fix>3d</fix>
</trkpt>
<trkpt lat="40.072842" lon="-105.230575">
  <ele>1586.09</ele>
  <time>2026-08-27T18:31:17Z</time>
  <course>0.0</course>
  <speed>0.0</speed>
  <fix>3d</fix>
</trkpt>
<trkpt lat="40.072842" lon="-105.230575">
  <ele>1586.09</ele>
  <time>2026-08-27T18:31:17Z</time>
  <course>11.82</course>
  <speed>0.022360679774997897</speed>
  <fix>3d</fix>
</trkpt>
<trkpt lat="40.072842" lon="-105.230575">
  <ele>1586.09</ele>
  <time>2026-08-27T18:31:17Z</time>
  <course>0.0</course>
  <speed>0.0</speed>
  <fix>3d</fix>
</trkpt>
<trkpt lat="40.072842" lon="-105.230575">
  <ele>1586.09</ele>
  <time>2026-08-27T18:31:17Z</time>
  <course>11.82</course>
  <speed>0.0282842712474619</speed>
  <fix>3d</fix>
</trkpt>
<trkpt lat="40.072842" lon="-105.230575">
  <ele>1586.09</ele>
  <time>2026-08-27T18:31:17Z</time>
  <course>0.0</course>
  <speed>0.0</speed>
  <fix>3d</fix>
</trkpt>
<trkpt lat="40.072842" lon="-105.230575">
  <ele>1586.09</ele>
  <time>2026-08-27T18:31:17Z</time>
  <course>11.81</course>
  <speed>0.0282842712474619</speed>
  <fix>3d</fix>
</trkpt>
<trkpt lat="40.072842" lon="-105.230575">
  <ele>1586.09</ele>
  <time>2026-08-27T18:31:17Z</time>
  <course>0.0</course>
  <speed>0.0</speed>
  <fix>3d</fix>
</trkpt>
<trkpt lat="40.072842" lon="-105.230575">
  <ele>1586.09</ele>
  <time>2026-08-27T18:31:17Z</time>
  <course>11.8</course>
  <speed>0.0282842712474619</speed>
  <fix>3d</fix>
</trkpt>
<trkpt lat="40.072842" lon="-105.230575">
  <ele>1586.09</ele>
  <time>2026-08-27T18:31:17Z</time>
  <course>0.0</course>
  <speed>0.0</speed>
  <fix>3d</fix>
</trkpt>
<trkpt lat="40.072842" lon="-105.230575">
  <ele>1586.09</ele>
  <time>2026-08-27T18:31:17Z</time>
  <course>11.79</course>
  <speed>0.0282842712474619</speed>
  <fix>3d</fix>
</trkpt>
<trkpt lat="40.072842" lon="-105.230575">
  <ele>1586.09</ele>
  <time>2026-08-27T18:31:17Z</time>
  <course>0.0</course>
  <speed>0.0</speed>
  <fix>3d</fix>
</trkpt>
<trkpt lat="40.072842" lon="-105.230575">
  <ele>1586.09</ele>
  <time>2026-08-27T18:31:17Z</time>
  <course>11.78</course>
  <speed>0.0282842712474619</speed>
  <fix>3d</fix>
</trkpt>
<trkpt lat="40.072842" lon="-105.230575">
  <ele>1586.09</ele>
  <time>2026-08-27T18:31:17Z</time>
  <course>0.0</course>
  <speed>0.0</speed>
  <fix>3d</fix>
</trkpt>
<trkpt lat="40.072842" lon="-105.230575">
  <ele>1586.09</ele>
  <time>2026-08-27T18:31:17Z</time>
  <course>11.78</course>
  <speed>0.0282842712474619</speed>
  <fix>3d</fix>
</trkpt>
<trkpt lat="40.072842" lon="-105.230575">
  <ele>1586.09</ele>
  <time>2026-08-27T18:31:17Z</time>
  <course>0.0</course>
  <speed>0.0</speed>
  <fix>3d</fix>
</trkpt>
<trkpt lat="40.072842" lon="-105.230575">
  <ele>1586.09</ele>
  <time>2026-08-27T18:31:17Z</time>
  <course>11.77</course>
  <speed>0.0282842712474619</speed>
  <fix>3d</fix>
</trkpt>
<trkpt lat="40.072842" lon="-105.230575">
  <ele>1586.09</ele>
  <time>2026-08-27T18:31:17Z</time>
  <course>0.0</course>
  <speed>0.0</speed>
  <fix>3d</fix>
</trkpt>
<trkpt lat="40.072842" lon="-105.230575">
  <ele>1586.09</ele>
  <time>2026-08-27T18:31:17Z</time>
  <course>11.76</course>
  <speed>0.0282842712474619</speed>
  <fix>3d</fix>
</trkpt>
<trkpt lat="40.072842" lon="-105.230575">
  <ele>1586.09</ele>
  <time>2026-08-27T18:31:17Z</time>
  <course>0.0</course>
  <speed>0.0</speed>
  <fix>3d</fix>
</trkpt>
<trkpt lat="40.072842" lon="-105.230575">
  <ele>1586.09</ele>
  <time>2026-08-27T18:31:17Z</time>
  <course>11.76</course>
  <speed>0.0282842712474619</speed>
  <fix>3d</fix>
</trkpt>
<trkpt lat="40.072842" lon="-105.230575">
  <ele>1586.09</ele>
  <time>2026-08-27T18:31:17Z</time>
  <course>0.0</course>
  <speed>0.0</speed>
  <fix>3d</fix>
</trkpt>
<trkpt lat="40.072842" lon="-105.230575">
  <ele>1586.09</ele>
  <time>2026-08-27T18:31:17Z</time>
  <course>11.75</course>
  <speed>0.0282842712474619</speed>
  <fix>3d</fix>
</trkpt>
<trkpt lat="40.072842" lon="-105.230575">
  <ele>1586.09</ele>
  <time>2026-08-27T18:31:17Z</time>
  <course>0.0</course>
  <speed>0.0</speed>
  <fix>3d</fix>
</trkpt>
<trkpt lat="40.072842" lon="-105.230575">
  <ele>1586.09</ele>
  <time>2026-08-27T18:31:17Z</time>
  <course>11.74</course>
  <speed>0.0282842712474619</speed>
  <fix>3d</fix>
</trkpt>
<trkpt lat="40.072842" lon="-105.230575">
  <ele>1586.09</ele>
  <time>2026-08-27T18:31:17Z</time>
  <course>0.0</course>
  <speed>0.0</speed>
  <fix>3d</fix>
</trkpt>
<trkpt lat="40.072842" lon="-105.230575">
  <ele>1586.09</ele>
  <time>2026-08-27T18:31:17Z</time>
  <course>11.73</course>
  <speed>0.03605551275463989</speed>
  <fix>3d</fix>
</trkpt>
<trkpt lat="40.072842" lon="-105.230575">
  <ele>1586.09</ele>
  <time>2026-08-27T18:31:17Z</time>
  <course>0.0</course>
  <speed>0.0</speed>
  <fix>3d</fix>
</trkpt>
<trkpt lat="40.072842" lon="-105.230575">
  <ele>1586.09</ele>
  <time>2026-08-27T18:31:17Z</time>
  <course>11.73</course>
  <speed>0.03605551275463989</speed>
  <fix>3d</fix>
</trkpt>
<trkpt lat="40.072842" lon="-105.230575">
  <ele>1586.09</ele>
  <time>2026-08-27T18:31:17Z</time>
  <course>0.0</course>
  <speed>0.0</speed>
  <fix>3d</fix>
</trkpt>
<trkpt lat="40.072842" lon="-105.230575">
  <ele>1586.09</ele>
  <time>2026-08-27T18:31:17Z</time>
  <course>11.72</course>
  <speed>0.03605551275463989</speed>
  <fix>3d</fix>
</trkpt>
<trkpt lat="40.072842" lon="-105.230575">
  <ele>1586.09</ele>
  <time>2026-08-27T18:31:17Z</time>
  <course>0.0</course>
  <speed>0.0</speed>
  <fix>3d</fix>
</trkpt>
<trkpt lat="40.072842" lon="-105.230575">
  <ele>1586.09</ele>
  <time>2026-08-27T18:31:17Z</time>
  <course>11.71</course>
  <speed>0.03605551275463989</speed>
  <fix>3d</fix>
</trkpt>
<trkpt lat="40.072842" lon="-105.230575">
  <ele>1586.09</ele>
  <time>2026-08-27T18:31:17Z</time>
  <course>0.0</course>
  <speed>0.0</speed>
  <fix>3d</fix>
</trkpt>
<trkpt lat="40.072842" lon="-105.230575">
  <ele>1586.09</ele>
  <time>2026-08-27T18:31:17Z</time>
  <course>11.7</course>
  <speed>0.03605551275463989</speed>
  <fix>3d</fix>
</trkpt>
<trkpt lat="40.072842" lon="-105.230575">
  <ele>1586.09</ele>
  <time>2026-08-27T18:31:17Z</time>
  <course>0.0</course>
  <speed>0.0</speed>
  <fix>3d</fix>
</trkpt>
<trkpt lat="40.072842" lon="-105.230575">
  <ele>1586.09</ele>
  <time>2026-08-27T18:31:17Z</time>
  <course>11.7</course>
  <speed>0.03605551275463989</speed>
  <fix>3d</fix>
</trkpt>
<trkpt lat="40.072842" lon="-105.230575">
  <ele>1586.09</ele>
  <time>2026-08-27T18:31:17Z</time>
  <course>0.0</course>
  <speed>0.0</speed>
  <fix>3d</fix>
</trkpt>
<trkpt lat="40.072842" lon="-105.230575">
  <ele>1586.09</ele>
  <time>2026-08-27T18:31:17Z</time>
  <course>11.69</course>
  <speed>0.03605551275463989</speed>
  <fix>3d</fix>
</trkpt>
<trkpt lat="40.072842" lon="-105.230575">
  <ele>1586.09</ele>
  <time>2026-08-27T18:31:17Z</time>
  <course>0.0</course>
  <speed>0.0</speed>
  <fix>3d</fix>
</trkpt>
<trkpt lat="40.072842" lon="-105.230575">
  <ele>1586.09</ele>
  <time>2026-08-27T18:31:17Z</time>
  <course>11.68</course>
  <speed>0.03605551275463989</speed>
  <fix>3d</fix>
</trkpt>
<trkpt lat="40.072842" lon="-105.230575">
  <ele>1586.09</ele>
  <time>2026-08-27T18:31:17Z</time>
  <course>0.0</course>
  <speed>0.0</speed>
  <fix>3d</fix>
</trkpt>
<trkpt lat="40.072842" lon="-105.230575">
  <ele>1586.09</ele>
  <time>2026-08-27T18:31:17Z</time>
  <course>11.67</course>
  <speed>0.03605551275463989</speed>
  <fix>3d</fix>
</trkpt>
<trkpt lat="40.072842" lon="-105.230575">
  <ele>1586.09</ele>
  <time>2026-08-27T18:31:17Z</time>
  <course>0.0</course>
  <speed>0.0</speed>
  <fix>3d</fix>
</trkpt>
<trkpt lat="40.072842" lon="-105.230575">
  <ele>1586.09</ele>
  <time>2026-08-27T18:31:17Z</time>
  <course>11.67</course>
  <speed>0.03605551275463989</speed>
  <fix>3d</fix>
</trkpt>
<trkpt lat="40.072842" lon="-105.230575">
  <ele>1586.09</ele>
  <time>2026-08-27T18:31:17Z</time>
  <course>0.0</course>
  <speed>0.0</speed>
  <fix>3d</fix>
</trkpt>
<trkpt lat="40.072842" lon="-105.230575">
  <ele>1586.09</ele>
  <time>2026-08-27T18:31:17Z</time>
  <course>11.66</course>
  <speed>0.03605551275463989</speed>
  <fix>3d</fix>
</trkpt>
<trkpt lat="40.072842" lon="-105.230575">
  <ele>1586.09</ele>
  <time>2026-08-27T18:31:17Z</time>
  <course>0.0</course>
  <speed>0.0</speed>
  <fix>3d</fix>
</trkpt>
<trkpt lat="40.072842" lon="-105.230575">
  <ele>1586.09</ele>
  <time>2026-08-27T18:31:17Z</time>
  <course>11.65</course>
  <speed>0.03605551275463989</speed>
  <fix>3d</fix>
</trkpt>
<trkpt lat="40.072842" lon="-105.230575">
  <ele>1586.09</ele>
  <time>2026-08-27T18:31:17Z</time>
  <course>0.0</course>
  <speed>0.0</speed>
  <fix>3d</fix>
</trkpt>
<trkpt lat="40.072842" lon="-105.230575">
  <ele>1586.09</ele>
  <time>2026-08-27T18:31:17Z</time>
  <course>11.65</course>
  <speed>0.03605551275463989</speed>
  <fix>3d</fix>
</trkpt>
<trkpt lat="40.072842" lon="-105.230575">
  <ele>1586.09</ele>
  <time>2026-08-27T18:31:17Z</time>
  <course>0.0</course>
  <speed>0.0</speed>
  <fix>3d</fix>
</trkpt>
<trkpt lat="40.072842" lon="-105.230575">
  <ele>1586.09</ele>
  <time>2026-08-27T18:31:17Z</time>
  <course>11.64</course>
  <speed>0.03605551275463989</speed>
  <fix>3d</fix>
</trkpt>
<trkpt lat="40.072842" lon="-105.230575">
  <ele>1586.09</ele>
  <time>2026-08-27T18:31:17Z</time>
  <course>0.0</course>
  <speed>0.0</speed>
  <fix>3d</fix>
</trkpt>
<trkpt lat="40.072842" lon="-105.230575">
  <ele>1586.09</ele>
  <time>2026-08-27T18:31:17Z</time>
  <course>11.63</course>
  <speed>0.03605551275463989</speed>
  <fix>3d</fix>
</trkpt>
<trkpt lat="40.072842" lon="-105.230575">
  <ele>1586.09</ele>
  <time>2026-08-27T18:31:17Z</time>
  <course>0.0</course>
  <speed>0.0</speed>
  <fix>3d</fix>
</trkpt>
<trkpt lat="40.072842" lon="-105.230575">
  <ele>1586.09</ele>
  <time>2026-08-27T18:31:17Z</time>
  <course>11.63</course>
  <speed>0.03605551275463989</speed>
  <fix>3d</fix>
</trkpt>
<trkpt lat="40.072842" lon="-105.230575">
  <ele>1586.09</ele>
  <time>2026-08-27T18:31:17Z</time>
  <course>0.0</course>
  <speed>0.0</speed>
  <fix>3d</fix>
</trkpt>
<trkpt lat="40.072842" lon="-105.230575">
  <ele>1586.09</ele>
  <time>2026-08-27T18:31:17Z</time>
  <course>11.62</course>
  <speed>0.03605551275463989</speed>
  <fix>3d</fix>
</trkpt>
<trkpt lat="40.072842" lon="-105.230575">
  <ele>1586.09</ele>
  <time>2026-08-27T18:31:17Z</time>
  <course>0.0</course>
  <speed>0.0</speed>
  <fix>3d</fix>
</trkpt>
<trkpt lat="40.072842" lon="-105.230575">
  <ele>1586.09</ele>
  <time>2026-08-27T18:31:17Z</time>
  <course>11.61</course>
  <speed>0.03605551275463989</speed>
  <fix>3d</fix>
</trkpt>
<trkpt lat="40.072842" lon="-105.230575">
  <ele>1586.09</ele>
  <time>2026-08-27T18:31:17Z</time>
  <course>0.0</course>
  <speed>0.0</speed>
  <fix>3d</fix>
</trkpt>
<trkpt lat="40.072842" lon="-105.230575">
  <ele>1586.09</ele>
  <time>2026-08-27T18:31:17Z</time>
  <course>11.61</course>
  <speed>0.03605551275463989</speed>
  <fix>3d</fix>
</trkpt>
<trkpt lat="40.072842" lon="-105.230575">
  <ele>1586.09</ele>
  <time>2026-08-27T18:31:17Z</time>
  <course>0.0</course>
  <speed>0.0</speed>
  <fix>3d</fix>
</trkpt>
<trkpt lat="40.072842" lon="-105.230575">
  <ele>1586.09</ele>
  <time>2026-08-27T18:31:17Z</time>
  <course>11.6</course>
  <speed>0.03605551275463989</speed>
  <fix>3d</fix>
</trkpt>
<trkpt lat="40.072842" lon="-105.230575">
  <ele>1586.09</ele>
  <time>2026-08-27T18:31:17Z</time>
  <course>0.0</course>
  <speed>0.0</speed>
  <fix>3d</fix>
</trkpt>
<trkpt lat="40.072842" lon="-105.230575">
  <ele>1586.09</ele>
  <time>2026-08-27T18:31:17Z</time>
  <course>11.59</course>
  <speed>0.03605551275463989</speed>
  <fix>3d</fix>
</trkpt>
<trkpt lat="40.072842" lon="-105.230575">
  <ele>1586.09</ele>
  <time>2026-08-27T18:31:17Z</time>
  <course>0.0</course>
  <speed>0.0</speed>
  <fix>3d</fix>
</trkpt>
<trkpt lat="40.072842" lon="-105.230575">
  <ele>1586.09</ele>
  <time>2026-08-27T18:31:17Z</time>
  <course>11.59</course>
  <speed>0.03605551275463989</speed>
  <fix>3d</fix>
</trkpt>
<trkpt lat="40.072842" lon="-105.230575">
  <ele>1586.09</ele>
  <time>2026-08-27T18:31:17Z</time>
  <course>0.0</course>
  <speed>0.0</speed>
  <fix>3d</fix>
</trkpt>
<trkpt lat="40.072842" lon="-105.230575">
  <ele>1586.09</ele>
  <time>2026-08-27T18:31:17Z</time>
  <course>11.58</course>
  <speed>0.03605551275463989</speed>
  <fix>3d</fix>
</trkpt>
<trkpt lat="40.072842" lon="-105.230575">
  <ele>1586.09</ele>
  <time>2026-08-27T18:31:17Z</time>
  <course>0.0</course>
  <speed>0.0</speed>
  <fix>3d</fix>
</trkpt>
<trkpt lat="40.072842" lon="-105.230575">
  <ele>1586.09</ele>
  <time>2026-08-27T18:31:17Z</time>
  <course>11.57</course>
  <speed>0.03605551275463989</speed>
  <fix>3d</fix>
</trkpt>
<trkpt lat="40.072842" lon="-105.230575">
  <ele>1586.09</ele>
  <time>2026-08-27T18:31:17Z</time>
  <course>0.0</course>
  <speed>0.0</speed>
  <fix>3d</fix>
</trkpt>
<trkpt lat="40.072842" lon="-105.230575">
  <ele>1586.09</ele>
  <time>2026-08-27T18:31:17Z</time>
  <course>11.57</course>
  <speed>0.03605551275463989</speed>
  <fix>3d</fix>
</trkpt>
<trkpt lat="40.072842" lon="-105.230575">
  <ele>1586.09</ele>
  <time>2026-08-27T18:31:17Z</time>
  <course>0.0</course>
  <speed>0.0</speed>
  <fix>3d</fix>
</trkpt>
<trkpt lat="40.072842" lon="-105.230575">
  <ele>1586.09</ele>
  <time>2026-08-27T18:31:17Z</time>
  <course>11.56</course>
  <speed>0.03605551275463989</speed>
  <fix>3d</fix>
</trkpt>
<trkpt lat="40.072842" lon="-105.230575">
  <ele>1586.09</ele>
  <time>2026-08-27T18:31:17Z</time>
  <course>0.0</course>
  <speed>0.0</speed>
  <fix>3d</fix>
</trkpt>
<trkpt lat="40.072842" lon="-105.230575">
  <ele>1586.09</ele>
  <time>2026-08-27T18:31:17Z</time>
  <course>11.56</course>
  <speed>0.03605551275463989</speed>
  <fix>3d</fix>
</trkpt>
<trkpt lat="40.072842" lon="-105.230575">
  <ele>1586.09</ele>
  <time>2026-08-27T18:31:17Z</time>
  <course>0.0</course>
  <speed>0.0</speed>
  <fix>3d</fix>
</trkpt>
<trkpt lat="40.072842" lon="-105.230575">
  <ele>1586.09</ele>
  <time>2026-08-27T18:31:17Z</time>
  <course>11.55</course>
  <speed>0.03605551275463989</speed>
  <fix>3d</fix>
</trkpt>
<trkpt lat="40.072842" lon="-105.230575">
  <ele>1586.09</ele>
  <time>2026-08-27T18:31:17Z</time>
  <course>0.0</course>
  <speed>0.0</speed>
  <fix>3d</fix>
</trkpt>
<trkpt lat="40.072842" lon="-105.230575">
  <ele>1586.09</ele>
  <time>2026-08-27T18:31:17Z</time>
  <course>11.54</course>
  <speed>0.03605551275463989</speed>
  <fix>3d</fix>
</trkpt>
<trkpt lat="40.072842" lon="-105.230575">
  <ele>1586.09</ele>
  <time>2026-08-27T18:31:17Z</time>
  <course>0.0</course>
  <speed>0.0</speed>
  <fix>3d</fix>
</trkpt>
<trkpt lat="40.072842" lon="-105.230575">
  <ele>1586.09</ele>
  <time>2026-08-27T18:31:17Z</time>
  <course>11.54</course>
  <speed>0.03605551275463989</speed>
  <fix>3d</fix>
</trkpt>
<trkpt lat="40.072842" lon="-105.230575">
  <ele>1586.09</ele>
  <time>2026-08-27T18:31:17Z</time>
  <course>0.0</course>
  <speed>0.0</speed>
  <fix>3d</fix>
</trkpt>
<trkpt lat="40.072842" lon="-105.230575">
  <ele>1586.09</ele>
  <time>2026-08-27T18:31:17Z</time>
  <course>11.53</course>
  <speed>0.03605551275463989</speed>
  <fix>3d</fix>
</trkpt>
<trkpt lat="40.072842" lon="-105.230575">
  <ele>1586.09</ele>
  <time>2026-08-27T18:31:17Z</time>
  <course>0.0</course>
  <speed>0.0</speed>
  <fix>3d</fix>
</trkpt>
<trkpt lat="40.072842" lon="-105.230575">
  <ele>1586.09</ele>
  <time>2026-08-27T18:31:17Z</time>
  <course>11.53</course>
  <speed>0.03605551275463989</speed>
  <fix>3d</fix>
</trkpt>
<trkpt lat="40.072842" lon="-105.230575">
  <ele>1586.09</ele>
  <time>2026-08-27T18:31:17Z</time>
  <course>0.0</course>
  <speed>0.0</speed>
  <fix>3d</fix>
</trkpt>
<trkpt lat="40.072842" lon="-105.230575">
  <ele>1586.09</ele>
  <time>2026-08-27T18:31:17Z</time>
  <course>11.52</course>
  <speed>0.03605551275463989</speed>
  <fix>3d</fix>
</trkpt>
<trkpt lat="40.072842" lon="-105.230575">
  <ele>1586.09</ele>
  <time>2026-08-27T18:31:17Z</time>
  <course>0.0</course>
  <speed>0.0</speed>
  <fix>3d</fix>
</trkpt>
<trkpt lat="40.072842" lon="-105.230575">
  <ele>1586.09</ele>
  <time>2026-08-27T18:31:17Z</time>
  <course>11.52</course>
  <speed>0.03605551275463989</speed>
  <fix>3d</fix>
</trkpt>
<trkpt lat="40.072842" lon="-105.230575">
  <ele>1586.09</ele>
  <time>2026-08-27T18:31:17Z</time>
  <course>0.0</course>
  <speed>0.0</speed>
  <fix>3d</fix>
</trkpt>
<trkpt lat="40.072842" lon="-105.230575">
  <ele>1586.09</ele>
  <time>2026-08-27T18:31:17Z</time>
  <course>11.51</course>
  <speed>0.03605551275463989</speed>
  <fix>3d</fix>
</trkpt>
<trkpt lat="40.072842" lon="-105.230575">
  <ele>1586.09</ele>
  <time>2026-08-27T18:31:17Z</time>
  <course>0.0</course>
  <speed>0.0</speed>
  <fix>3d</fix>
</trkpt>
<trkpt lat="40.072842" lon="-105.230575">
  <ele>1586.09</ele>
  <time>2026-08-27T18:31:17Z</time>
  <course>11.5</course>
  <speed>0.03605551275463989</speed>
  <fix>3d</fix>
</trkpt>
<trkpt lat="40.072842" lon="-105.230575">
  <ele>1586.09</ele>
  <time>2026-08-27T18:31:17Z</time>
  <course>0.0</course>
  <speed>0.0</speed>
  <fix>3d</fix>
</trkpt>
<trkpt lat="40.072842" lon="-105.230575">
  <ele>1586.09</ele>
  <time>2026-08-27T18:31:17Z</time>
  <course>11.5</course>
  <speed>0.03605551275463989</speed>
  <fix>3d</fix>
</trkpt>
<trkpt lat="40.072842" lon="-105.230575">
  <ele>1586.09</ele>
  <time>2026-08-27T18:31:17Z</time>
  <course>0.0</course>
  <speed>0.0</speed>
  <fix>3d</fix>
</trkpt>
<trkpt lat="40.072842" lon="-105.230575">
  <ele>1586.09</ele>
  <time>2026-08-27T18:31:17Z</time>
  <course>11.49</course>
  <speed>0.044721359549995794</speed>
  <fix>3d</fix>
</trkpt>
<trkpt lat="40.072842" lon="-105.230575">
  <ele>1586.09</ele>
  <time>2026-08-27T18:31:17Z</time>
  <course>0.0</course>
  <speed>0.0</speed>
  <fix>3d</fix>
</trkpt>
<trkpt lat="40.072842" lon="-105.230575">
  <ele>1586.09</ele>
  <time>2026-08-27T18:31:17Z</time>
  <course>11.49</course>
  <speed>0.044721359549995794</speed>
  <fix>3d</fix>
</trkpt>
<trkpt lat="40.072842" lon="-105.230575">
  <ele>1586.09</ele>
  <time>2026-08-27T18:31:17Z</time>
  <course>0.0</course>
  <speed>0.0</speed>
  <fix>3d</fix>
</trkpt>
<trkpt lat="40.072842" lon="-105.230575">
  <ele>1586.09</ele>
  <time>2026-08-27T18:31:17Z</time>
  <course>11.48</course>
  <speed>0.044721359549995794</speed>
  <fix>3d</fix>
</trkpt>
<trkpt lat="40.072842" lon="-105.230575">
  <ele>1586.09</ele>
  <time>2026-08-27T18:31:17Z</time>
  <course>0.0</course>
  <speed>0.0</speed>
  <fix>3d</fix>
</trkpt>
<trkpt lat="40.072842" lon="-105.230575">
  <ele>1586.09</ele>
  <time>2026-08-27T18:31:17Z</time>
  <course>11.48</course>
  <speed>0.044721359549995794</speed>
  <fix>3d</fix>
</trkpt>
<trkpt lat="40.072842" lon="-105.230575">
  <ele>1586.09</ele>
  <time>2026-08-27T18:31:17Z</time>
  <course>0.0</course>
  <speed>0.0</speed>
  <fix>3d</fix>
</trkpt>
<trkpt lat="40.072842" lon="-105.230575">
  <ele>1586.09</ele>
  <time>2026-08-27T18:31:17Z</time>
  <course>11.47</course>
  <speed>0.044721359549995794</speed>
  <fix>3d</fix>
</trkpt>
<trkpt lat="40.072842" lon="-105.230575">
  <ele>1586.09</ele>
  <time>2026-08-27T18:31:17Z</time>
  <course>0.0</course>
  <speed>0.0</speed>
  <fix>3d</fix>
</trkpt>
<trkpt lat="40.072842" lon="-105.230575">
  <ele>1586.09</ele>
  <time>2026-08-27T18:31:17Z</time>
  <course>11.47</course>
  <speed>0.044721359549995794</speed>
  <fix>3d</fix>
</trkpt>
<trkpt lat="40.072842" lon="-105.230575">
  <ele>1586.09</ele>
  <time>2026-08-27T18:31:17Z</time>
  <course>0.0</course>
  <speed>0.0</speed>
  <fix>3d</fix>
</trkpt>
<trkpt lat="40.072842" lon="-105.230575">
  <ele>1586.09</ele>
  <time>2026-08-27T18:31:17Z</time>
  <course>11.46</course>
  <speed>0.044721359549995794</speed>
  <fix>3d</fix>
</trkpt>
<trkpt lat="40.072842" lon="-105.230575">
  <ele>1586.09</ele>
  <time>2026-08-27T18:31:17Z</time>
  <course>0.0</course>
  <speed>0.0</speed>
  <fix>3d</fix>
</trkpt>
<trkpt lat="40.072842" lon="-105.230575">
  <ele>1586.09</ele>
  <time>2026-08-27T18:31:17Z</time>
  <course>11.46</course>
  <speed>0.044721359549995794</speed>
  <fix>3d</fix>
</trkpt>
<trkpt lat="40.072842" lon="-105.230575">
  <ele>1586.09</ele>
  <time>2026-08-27T18:31:17Z</time>
  <course>0.0</course>
  <speed>0.0</speed>
  <fix>3d</fix>
</trkpt>
<trkpt lat="40.072842" lon="-105.230575">
  <ele>1586.15</ele>
  <time>2026-08-27T18:31:17Z</time>
  <course>11.45</course>
  <speed>0.0</speed>
  <fix>3d</fix>
</trkpt>
<trkpt lat="40.072842" lon="-105.230575">
  <ele>1586.09</ele>
  <time>2026-08-27T18:31:17Z</time>
  <course>0.0</course>
  <speed>0.0</speed>
  <fix>3d</fix>
</trkpt>
<trkpt lat="40.072842" lon="-105.230575">
  <ele>1586.15</ele>
  <time>2026-08-27T18:31:17Z</time>
  <course>11.45</course>
  <speed>0.0</speed>
  <fix>3d</fix>
</trkpt>
<trkpt lat="40.072842" lon="-105.230575">
  <ele>1586.09</ele>
  <time>2026-08-27T18:31:17Z</time>
  <course>0.0</course>
  <speed>0.0</speed>
  <fix>3d</fix>
</trkpt>
<trkpt lat="40.072842" lon="-105.230575">
  <ele>1586.14</ele>
  <time>2026-08-27T18:31:17Z</time>
  <course>11.44</course>
  <speed>0.0</speed>
  <fix>3d</fix>
</trkpt>
<trkpt lat="40.072842" lon="-105.230575">
  <ele>1586.09</ele>
  <time>2026-08-27T18:31:17Z</time>
  <course>0.0</course>
  <speed>0.0</speed>
  <fix>3d</fix>
</trkpt>
<trkpt lat="40.072842" lon="-105.230575">
  <ele>1586.14</ele>
  <time>2026-08-27T18:31:17Z</time>
  <course>11.44</course>
  <speed>0.0</speed>
  <fix>3d</fix>
</trkpt>
<trkpt lat="40.072842" lon="-105.230575">
  <ele>1586.09</ele>
  <time>2026-08-27T18:31:17Z</time>
  <course>0.0</course>
  <speed>0.0</speed>
  <fix>3d</fix>
</trkpt>
<trkpt lat="40.072842" lon="-105.230575">
  <ele>1586.14</ele>
  <time>2026-08-27T18:31:17Z</time>
  <course>11.43</course>
  <speed>0.0</speed>
  <fix>3d</fix>
</trkpt>
<trkpt lat="40.072842" lon="-105.230575">
  <ele>1586.09</ele>
  <time>2026-08-27T18:31:17Z</time>
  <course>0.0</course>
  <speed>0.0</speed>
  <fix>3d</fix>
</trkpt>
<trkpt lat="40.072842" lon="-105.230575">
  <ele>1586.14</ele>
  <time>2026-08-27T18:31:17Z</time>
  <course>11.43</course>
  <speed>0.01</speed>
  <fix>3d</fix>
</trkpt>
<trkpt lat="40.072842" lon="-105.230575">
  <ele>1586.09</ele>
  <time>2026-08-27T18:31:17Z</time>
  <course>0.0</course>
  <speed>0.0</speed>
  <fix>3d</fix>
</trkpt>
<trkpt lat="40.072842" lon="-105.230575">
  <ele>1586.14</ele>
  <time>2026-08-27T18:31:17Z</time>
  <course>11.42</course>
  <speed>0.01</speed>
  <fix>3d</fix>
</trkpt>
<trkpt lat="40.072842" lon="-105.230575">
  <ele>1586.09</ele>
  <time>2026-08-27T18:31:17Z</time>
  <course>0.0</course>
  <speed>0.0</speed>
  <fix>3d</fix>
</trkpt>
<trkpt lat="40.072842" lon="-105.230575">
  <ele>1586.14</ele>
  <time>2026-08-27T18:31:17Z</time>
  <course>11.42</course>
  <speed>0.01</speed>
  <fix>3d</fix>
</trkpt>
<trkpt lat="40.072842" lon="-105.230575">
  <ele>1586.09</ele>
  <time>2026-08-27T18:31:17Z</time>
  <course>0.0</course>
  <speed>0.0</speed>
  <fix>3d</fix>
</trkpt>
<trkpt lat="40.072842" lon="-105.230575">
  <ele>1586.14</ele>
  <time>2026-08-27T18:31:17Z</time>
  <course>11.42</course>
  <speed>0.01414213562373095</speed>
  <fix>3d</fix>
</trkpt>
<trkpt lat="40.072842" lon="-105.230575">
  <ele>1586.09</ele>
  <time>2026-08-27T18:31:17Z</time>
  <course>0.0</course>
  <speed>0.0</speed>
  <fix>3d</fix>
</trkpt>
<trkpt lat="40.072842" lon="-105.230575">
  <ele>1586.14</ele>
  <time>2026-08-27T18:31:17Z</time>
  <course>11.41</course>
  <speed>0.01414213562373095</speed>
  <fix>3d</fix>
</trkpt>
<trkpt lat="40.072842" lon="-105.230575">
  <ele>1586.09</ele>
  <time>2026-08-27T18:31:17Z</time>
  <course>0.0</course>
  <speed>0.0</speed>
  <fix>3d</fix>
</trkpt>
<trkpt lat="40.072842" lon="-105.230575">
  <ele>1586.15</ele>
  <time>2026-08-27T18:31:17Z</time>
  <course>11.41</course>
  <speed>0.01414213562373095</speed>
  <fix>3d</fix>
</trkpt>
<trkpt lat="40.072842" lon="-105.230575">
  <ele>1586.09</ele>
  <time>2026-08-27T18:31:17Z</time>
  <course>0.0</course>
  <speed>0.0</speed>
  <fix>3d</fix>
</trkpt>
<trkpt lat="40.072842" lon="-105.230575">
  <ele>1586.15</ele>
  <time>2026-08-27T18:31:17Z</time>
  <course>11.4</course>
  <speed>0.022360679774997897</speed>
  <fix>3d</fix>
</trkpt>
<trkpt lat="40.072842" lon="-105.230575">
  <ele>1586.09</ele>
  <time>2026-08-27T18:31:17Z</time>
  <course>0.0</course>
  <speed>0.0</speed>
  <fix>3d</fix>
</trkpt>
<trkpt lat="40.072842" lon="-105.230575">
  <ele>1586.15</ele>
  <time>2026-08-27T18:31:17Z</time>
  <course>11.4</course>
  <speed>0.022360679774997897</speed>
  <fix>3d</fix>
</trkpt>
<trkpt lat="40.072842" lon="-105.230575">
  <ele>1586.09</ele>
  <time>2026-08-27T18:31:17Z</time>
  <course>0.0</course>
  <speed>0.0</speed>
  <fix>3d</fix>
</trkpt>
<trkpt lat="40.072842" lon="-105.230575">
  <ele>1586.15</ele>
  <time>2026-08-27T18:31:17Z</time>
  <course>11.4</course>
  <speed>0.022360679774997897</speed>
  <fix>3d</fix>
</trkpt>
<trkpt lat="40.072842" lon="-105.230575">
  <ele>1586.09</ele>
  <time>2026-08-27T18:31:17Z</time>
  <course>0.0</course>
  <speed>0.0</speed>
  <fix>3d</fix>
</trkpt>
<trkpt lat="40.072842" lon="-105.230575">
  <ele>1586.16</ele>
  <time>2026-08-27T18:31:17Z</time>
  <course>11.39</course>
  <speed>0.022360679774997897</speed>
  <fix>3d</fix>
</trkpt>
<trkpt lat="40.072842" lon="-105.230575">
  <ele>1586.09</ele>
  <time>2026-08-27T18:31:17Z</time>
  <course>0.0</course>
  <speed>0.0</speed>
  <fix>3d</fix>
</trkpt>
<trkpt lat="40.072842" lon="-105.230575">
  <ele>1586.16</ele>
  <time>2026-08-27T18:31:17Z</time>
  <course>11.39</course>
  <speed>0.01414213562373095</speed>
  <fix>3d</fix>
</trkpt>
<trkpt lat="40.072842" lon="-105.230575">
  <ele>1586.09</ele>
  <time>2026-08-27T18:31:17Z</time>
  <course>0.0</course>
  <speed>0.0</speed>
  <fix>3d</fix>
</trkpt>
<trkpt lat="40.072842" lon="-105.230575">
  <ele>1586.16</ele>
  <time>2026-08-27T18:31:17Z</time>
  <course>11.39</course>
  <speed>0.01414213562373095</speed>
  <fix>3d</fix>
</trkpt>
<trkpt lat="40.072842" lon="-105.230575">
  <ele>1586.09</ele>
  <time>2026-08-27T18:31:17Z</time>
  <course>0.0</course>
  <speed>0.0</speed>
  <fix>3d</fix>
</trkpt>
<trkpt lat="40.072842" lon="-105.230575">
  <ele>1586.16</ele>
  <time>2026-08-27T18:31:17Z</time>
  <course>11.38</course>
  <speed>0.01</speed>
  <fix>3d</fix>
</trkpt>
<trkpt lat="40.072842" lon="-105.230575">
  <ele>1586.09</ele>
  <time>2026-08-27T18:31:17Z</time>
  <course>0.0</course>
  <speed>0.0</speed>
  <fix>3d</fix>
</trkpt>
<trkpt lat="40.072842" lon="-105.230575">
  <ele>1586.16</ele>
  <time>2026-08-27T18:31:17Z</time>
  <course>11.38</course>
  <speed>0.0</speed>
  <fix>3d</fix>
</trkpt>
<trkpt lat="40.072842" lon="-105.230575">
  <ele>1586.09</ele>
  <time>2026-08-27T18:31:17Z</time>
  <course>0.0</course>
  <speed>0.0</speed>
  <fix>3d</fix>
</trkpt>
<trkpt lat="40.072842" lon="-105.230575">
  <ele>1586.16</ele>
  <time>2026-08-27T18:31:17Z</time>
  <course>11.37</course>
  <speed>0.0</speed>
  <fix>3d</fix>
</trkpt>
<trkpt lat="40.072842" lon="-105.230575">
  <ele>1586.09</ele>
  <time>2026-08-27T18:31:17Z</time>
  <course>0.0</course>
  <speed>0.0</speed>
  <fix>3d</fix>
</trkpt>
<trkpt lat="40.072842" lon="-105.230575">
  <ele>1586.16</ele>
  <time>2026-08-27T18:31:17Z</time>
  <course>11.37</course>
  <speed>0.0</speed>
  <fix>3d</fix>
</trkpt>
<trkpt lat="40.072842" lon="-105.230575">
  <ele>1586.09</ele>
  <time>2026-08-27T18:31:17Z</time>
  <course>0.0</course>
  <speed>0.0</speed>
  <fix>3d</fix>
</trkpt>
<trkpt lat="40.072842" lon="-105.230575">
  <ele>1586.16</ele>
  <time>2026-08-27T18:31:17Z</time>
  <course>11.37</course>
  <speed>0.0</speed>
  <fix>3d</fix>
</trkpt>
<trkpt lat="40.072842" lon="-105.230575">
  <ele>1586.09</ele>
  <time>2026-08-27T18:31:17Z</time>
  <course>0.0</course>
  <speed>0.0</speed>
  <fix>3d</fix>
</trkpt>
<trkpt lat="40.072842" lon="-105.230575">
  <ele>1586.16</ele>
  <time>2026-08-27T18:31:17Z</time>
  <course>11.36</course>
  <speed>0.0</speed>
  <fix>3d</fix>
</trkpt>
<trkpt lat="40.072842" lon="-105.230575">
  <ele>1586.09</ele>
  <time>2026-08-27T18:31:17Z</time>
  <course>135.0</course>
  <speed>0.0</speed>
  <fix>3d</fix>
</trkpt>
<trkpt lat="40.072842" lon="-105.230575">
  <ele>1586.16</ele>
  <time>2026-08-27T18:31:17Z</time>
  <course>11.36</course>
  <speed>0.0</speed>
  <fix>3d</fix>
</trkpt>
<trkpt lat="40.072842" lon="-105.230575">
  <ele>1586.09</ele>
  <time>2026-08-27T18:31:17Z</time>
  <course>135.0</course>
  <speed>0.0</speed>
  <fix>3d</fix>
</trkpt>
<trkpt lat="40.072842" lon="-105.230575">
  <ele>1586.16</ele>
  <time>2026-08-27T18:31:17Z</time>
  <course>11.36</course>
  <speed>0.0</speed>
  <fix>3d</fix>
</trkpt>
<trkpt lat="40.072842" lon="-105.230575">
  <ele>1586.09</ele>
  <time>2026-08-27T18:31:17Z</time>
  <course>135.0</course>
  <speed>0.0</speed>
  <fix>3d</fix>
</trkpt>
<trkpt lat="40.072842" lon="-105.230575">
  <ele>1586.16</ele>
  <time>2026-08-27T18:31:17Z</time>
  <course>11.35</course>
  <speed>0.0</speed>
  <fix>3d</fix>
</trkpt>
<trkpt lat="40.072842" lon="-105.230575">
  <ele>1586.09</ele>
  <time>2026-08-27T18:31:17Z</time>
  <course>134.99</course>
  <speed>0.0</speed>
  <fix>3d</fix>
</trkpt>
<trkpt lat="40.072842" lon="-105.230575">
  <ele>1586.16</ele>
  <time>2026-08-27T18:31:17Z</time>
  <course>11.35</course>
  <speed>0.0</speed>
  <fix>3d</fix>
</trkpt>
<trkpt lat="40.072842" lon="-105.230575">
  <ele>1586.09</ele>
  <time>2026-08-27T18:31:17Z</time>
  <course>134.99</course>
  <speed>0.0</speed>
  <fix>3d</fix>
</trkpt>
<trkpt lat="40.072842" lon="-105.230575">
  <ele>1586.16</ele>
  <time>2026-08-27T18:31:17Z</time>
  <course>11.35</course>
  <speed>0.0</speed>
  <fix>3d</fix>
</trkpt>
<trkpt lat="40.072842" lon="-105.230575">
  <ele>1586.09</ele>
  <time>2026-08-27T18:31:17Z</time>
  <course>158.0</course>
  <speed>0.0</speed>
  <fix>3d</fix>
</trkpt>
<trkpt lat="40.072842" lon="-105.230575">
  <ele>1586.16</ele>
  <time>2026-08-27T18:31:17Z</time>
  <course>11.35</course>
  <speed>0.0</speed>
  <fix>3d</fix>
</trkpt>
<trkpt lat="40.072842" lon="-105.230575">
  <ele>1586.09</ele>
  <time>2026-08-27T18:31:17Z</time>
  <course>184.08</course>
  <speed>0.0</speed>
  <fix>3d</fix>
</trkpt>
<trkpt lat="40.072842" lon="-105.230575">
  <ele>1586.16</ele>
  <time>2026-08-27T18:31:17Z</time>
  <course>11.34</course>
  <speed>0.0</speed>
  <fix>3d</fix>
</trkpt>
<trkpt lat="40.072842" lon="-105.230575">
  <ele>1586.09</ele>
  <time>2026-08-27T18:31:17Z</time>
  <course>317.31</course>
  <speed>0.0</speed>
  <fix>3d</fix>
</trkpt>
<trkpt lat="40.072842" lon="-105.230575">
  <ele>1586.16</ele>
  <time>2026-08-27T18:31:18Z</time>
  <course>11.34</course>
  <speed>0.0</speed>
  <fix>3d</fix>
</trkpt>
<trkpt lat="40.072842" lon="-105.230575">
  <ele>1586.09</ele>
  <time>2026-08-27T18:31:18Z</time>
  <course>24.15</course>
  <speed>0.0</speed>
  <fix>3d</fix>
</trkpt>
<trkpt lat="40.072842" lon="-105.230575">
  <ele>1586.16</ele>
  <time>2026-08-27T18:31:18Z</time>
  <course>11.34</course>
  <speed>0.0</speed>
  <fix>3d</fix>
</trkpt>
<trkpt lat="40.072842" lon="-105.230575">
  <ele>1586.09</ele>
  <time>2026-08-27T18:31:18Z</time>
  <course>154.31</course>
  <speed>0.0</speed>
  <fix>3d</fix>
</trkpt>
<trkpt lat="40.072842" lon="-105.230575">
  <ele>1586.16</ele>
  <time>2026-08-27T18:31:18Z</time>
  <course>11.34</course>
  <speed>0.0</speed>
  <fix>3d</fix>
</trkpt>
<trkpt lat="40.072842" lon="-105.230575">
  <ele>1586.09</ele>
  <time>2026-08-27T18:31:18Z</time>
  <course>171.97</course>
  <speed>0.0</speed>
  <fix>3d</fix>
</trkpt>
<trkpt lat="40.072842" lon="-105.230575">
  <ele>1586.16</ele>
  <time>2026-08-27T18:31:18Z</time>
  <course>11.34</course>
  <speed>0.0</speed>
  <fix>3d</fix>
</trkpt>
<trkpt lat="40.072842" lon="-105.230575">
  <ele>1586.09</ele>
  <time>2026-08-27T18:31:18Z</time>
  <course>51.25</course>
  <speed>0.0</speed>
  <fix>3d</fix>
</trkpt>
<trkpt lat="40.072842" lon="-105.230575">
  <ele>1586.16</ele>
  <time>2026-08-27T18:31:18Z</time>
  <course>11.34</course>
  <speed>0.0</speed>
  <fix>3d</fix>
</trkpt>
<trkpt lat="40.072842" lon="-105.230575">
  <ele>1586.09</ele>
  <time>2026-08-27T18:31:18Z</time>
  <course>47.53</course>
  <speed>0.0</speed>
  <fix>3d</fix>
</trkpt>
<trkpt lat="40.072842" lon="-105.230575">
  <ele>1586.16</ele>
  <time>2026-08-27T18:31:18Z</time>
  <course>11.33</course>
  <speed>0.0</speed>
  <fix>3d</fix>
</trkpt>
<trkpt lat="40.072842" lon="-105.230575">
  <ele>1586.09</ele>
  <time>2026-08-27T18:31:18Z</time>
  <course>48.5</course>
  <speed>0.0</speed>
  <fix>3d</fix>
</trkpt>
<trkpt lat="40.072842" lon="-105.230575">
  <ele>1586.16</ele>
  <time>2026-08-27T18:31:18Z</time>
  <course>11.33</course>
  <speed>0.0</speed>
  <fix>3d</fix>
</trkpt>
<trkpt lat="40.072842" lon="-105.230575">
  <ele>1586.09</ele>
  <time>2026-08-27T18:31:18Z</time>
  <course>195.63</course>
  <speed>0.0</speed>
  <fix>3d</fix>
</trkpt>
<trkpt lat="40.072842" lon="-105.230575">
  <ele>1586.16</ele>
  <time>2026-08-27T18:31:18Z</time>
  <course>11.33</course>
  <speed>0.0</speed>
  <fix>3d</fix>
</trkpt>
<trkpt lat="40.072842" lon="-105.230575">
  <ele>1586.09</ele>
  <time>2026-08-27T18:31:18Z</time>
  <course>196.56</course>
  <speed>0.0</speed>
  <fix>3d</fix>
</trkpt>
<trkpt lat="40.072842" lon="-105.230575">
  <ele>1586.16</ele>
  <time>2026-08-27T18:31:18Z</time>
  <course>11.33</course>
  <speed>0.0</speed>
  <fix>3d</fix>
</trkpt>
<trkpt lat="40.072842" lon="-105.230575">
  <ele>1586.09</ele>
  <time>2026-08-27T18:31:18Z</time>
  <course>110.4</course>
  <speed>0.0</speed>
  <fix>3d</fix>
</trkpt>
<trkpt lat="40.072842" lon="-105.230575">
  <ele>1586.16</ele>
  <time>2026-08-27T18:31:18Z</time>
  <course>11.33</course>
  <speed>0.0</speed>
  <fix>3d</fix>
</trkpt>
<trkpt lat="40.072842" lon="-105.230575">
  <ele>1586.09</ele>
  <time>2026-08-27T18:31:18Z</time>
  <course>124.2</course>
  <speed>0.0</speed>
  <fix>3d</fix>
</trkpt>
<trkpt lat="40.072842" lon="-105.230575">
  <ele>1586.17</ele>
  <time>2026-08-27T18:31:18Z</time>
  <course>11.33</course>
  <speed>0.0</speed>
  <fix>3d</fix>
</trkpt>
<trkpt lat="40.072842" lon="-105.230575">
  <ele>1586.09</ele>
  <time>2026-08-27T18:31:18Z</time>
  <course>139.83</course>
  <speed>0.0</speed>
  <fix>3d</fix>
</trkpt>
<trkpt lat="40.072842" lon="-105.230575">
  <ele>1586.17</ele>
  <time>2026-08-27T18:31:18Z</time>
  <course>11.33</course>
  <speed>0.01</speed>
  <fix>3d</fix>
</trkpt>
<trkpt lat="40.072842" lon="-105.230575">
  <ele>1586.09</ele>
  <time>2026-08-27T18:31:18Z</time>
  <course>135.9</course>
  <speed>0.0</speed>
  <fix>3d</fix>
</trkpt>
<trkpt lat="40.072842" lon="-105.230575">
  <ele>1586.17</ele>
  <time>2026-08-27T18:31:18Z</time>
  <course>11.33</course>
  <speed>0.01</speed>
  <fix>3d</fix>
</trkpt>
<trkpt lat="40.072842" lon="-105.230575">
  <ele>1586.09</ele>
  <time>2026-08-27T18:31:18Z</time>
  <course>134.25</course>
  <speed>0.0</speed>
  <fix>3d</fix>
</trkpt>
<trkpt lat="40.072842" lon="-105.230575">
  <ele>1586.18</ele>
  <time>2026-08-27T18:31:18Z</time>
  <course>11.33</course>
  <speed>0.01</speed>
  <fix>3d</fix>
</trkpt>
<trkpt lat="40.072842" lon="-105.230575">
  <ele>1586.09</ele>
  <time>2026-08-27T18:31:18Z</time>
  <course>134.97</course>
  <speed>0.0</speed>
  <fix>3d</fix>
</trkpt>
<trkpt lat="40.072842" lon="-105.230575">
  <ele>1586.18</ele>
  <time>2026-08-27T18:31:18Z</time>
  <course>11.33</course>
  <speed>0.01</speed>
  <fix>3d</fix>
</trkpt>
<trkpt lat="40.072842" lon="-105.230575">
  <ele>1586.09</ele>
  <time>2026-08-27T18:31:18Z</time>
  <course>135.11</course>
  <speed>0.0</speed>
  <fix>3d</fix>
</trkpt>
<trkpt lat="40.072842" lon="-105.230575">
  <ele>1586.18</ele>
  <time>2026-08-27T18:31:18Z</time>
  <course>11.33</course>
  <speed>0.01414213562373095</speed>
  <fix>3d</fix>
</trkpt>
<trkpt lat="40.072842" lon="-105.230575">
  <ele>1586.09</ele>
  <time>2026-08-27T18:31:18Z</time>
  <course>135.0</course>
  <speed>0.0</speed>
  <fix>3d</fix>
</trkpt>
<trkpt lat="40.072842" lon="-105.230575">
  <ele>1586.18</ele>
  <time>2026-08-27T18:31:18Z</time>
  <course>11.33</course>
  <speed>0.01414213562373095</speed>
  <fix>3d</fix>
</trkpt>
<trkpt lat="40.072842" lon="-105.230575">
  <ele>1586.09</ele>
  <time>2026-08-27T18:31:18Z</time>
  <course>134.99</course>
  <speed>0.0</speed>
  <fix>3d</fix>
</trkpt>
<trkpt lat="40.072842" lon="-105.230575">
  <ele>1586.18</ele>
  <time>2026-08-27T18:31:18Z</time>
  <course>11.33</course>
  <speed>0.01414213562373095</speed>
  <fix>3d</fix>
</trkpt>
<trkpt lat="40.072842" lon="-105.230575">
  <ele>1586.09</ele>
  <time>2026-08-27T18:31:18Z</time>
  <course>135.01</course>
  <speed>0.0</speed>
  <fix>3d</fix>
</trkpt>
<trkpt lat="40.072842" lon="-105.230575">
  <ele>1586.18</ele>
  <time>2026-08-27T18:31:18Z</time>
  <course>11.33</course>
  <speed>0.01414213562373095</speed>
  <fix>3d</fix>
</trkpt>
<trkpt lat="40.072842" lon="-105.230575">
  <ele>1586.09</ele>
  <time>2026-08-27T18:31:18Z</time>
  <course>135.01</course>
  <speed>0.0</speed>
  <fix>3d</fix>
</trkpt>
<trkpt lat="40.072842" lon="-105.230575">
  <ele>1586.18</ele>
  <time>2026-08-27T18:31:18Z</time>
  <course>11.33</course>
  <speed>0.01414213562373095</speed>
  <fix>3d</fix>
</trkpt>
<trkpt lat="40.072842" lon="-105.230575">
  <ele>1586.09</ele>
  <time>2026-08-27T18:31:18Z</time>
  <course>135.0</course>
  <speed>0.0</speed>
  <fix>3d</fix>
</trkpt>
<trkpt lat="40.072842" lon="-105.230575">
  <ele>1586.18</ele>
  <time>2026-08-27T18:31:18Z</time>
  <course>11.33</course>
  <speed>0.01414213562373095</speed>
  <fix>3d</fix>
</trkpt>
<trkpt lat="40.072842" lon="-105.230575">
  <ele>1586.09</ele>
  <time>2026-08-27T18:31:18Z</time>
  <course>135.01</course>
  <speed>0.0</speed>
  <fix>3d</fix>
</trkpt>
<trkpt lat="40.0728419" lon="-105.230575">
  <ele>1586.18</ele>
  <time>2026-08-27T18:31:18Z</time>
  <course>11.33</course>
  <speed>0.01414213562373095</speed>
  <fix>3d</fix>
</trkpt>
<trkpt lat="40.072842" lon="-105.230575">
  <ele>1586.09</ele>
  <time>2026-08-27T18:31:18Z</time>
  <course>135.01</course>
  <speed>0.0</speed>
  <fix>3d</fix>
</trkpt>
<trkpt lat="40.0728419" lon="-105.230575">
  <ele>1586.18</ele>
  <time>2026-08-27T18:31:18Z</time>
  <course>11.33</course>
  <speed>0.01414213562373095</speed>
  <fix>3d</fix>
</trkpt>
<trkpt lat="40.072842" lon="-105.230575">
  <ele>1586.09</ele>
  <time>2026-08-27T18:31:18Z</time>
  <course>135.01</course>
  <speed>0.0</speed>
  <fix>3d</fix>
</trkpt>
<trkpt lat="40.0728419" lon="-105.2305749">
  <ele>1586.17</ele>
  <time>2026-08-27T18:31:18Z</time>
  <course>11.33</course>
  <speed>0.022360679774997897</speed>
  <fix>3d</fix>
</trkpt>
<trkpt lat="40.072842" lon="-105.230575">
  <ele>1586.09</ele>
  <time>2026-08-27T18:31:18Z</time>
  <course>135.01</course>
  <speed>0.0</speed>
  <fix>3d</fix>
</trkpt>
<trkpt lat="40.0728419" lon="-105.2305749">
  <ele>1586.17</ele>
  <time>2026-08-27T18:31:18Z</time>
  <course>11.33</course>
  <speed>0.022360679774997897</speed>
  <fix>3d</fix>
</trkpt>
<trkpt lat="40.072842" lon="-105.230575">
  <ele>1586.09</ele>
  <time>2026-08-27T18:31:18Z</time>
  <course>135.01</course>
  <speed>0.0</speed>
  <fix>3d</fix>
</trkpt>
<trkpt lat="40.0728419" lon="-105.2305749">
  <ele>1586.17</ele>
  <time>2026-08-27T18:31:18Z</time>
  <course>11.33</course>
  <speed>0.022360679774997897</speed>
  <fix>3d</fix>
</trkpt>
<trkpt lat="40.072842" lon="-105.230575">
  <ele>1586.09</ele>
  <time>2026-08-27T18:31:18Z</time>
  <course>135.01</course>
  <speed>0.0</speed>
  <fix>3d</fix>
</trkpt>
<trkpt lat="40.0728419" lon="-105.2305749">
  <ele>1586.17</ele>
  <time>2026-08-27T18:31:18Z</time>
  <course>11.33</course>
  <speed>0.022360679774997897</speed>
  <fix>3d</fix>
</trkpt>
<trkpt lat="40.072842" lon="-105.230575">
  <ele>1586.09</ele>
  <time>2026-08-27T18:31:18Z</time>
  <course>135.01</course>
  <speed>0.0</speed>
  <fix>3d</fix>
</trkpt>
<trkpt lat="40.0728419" lon="-105.2305749">
  <ele>1586.17</ele>
  <time>2026-08-27T18:31:18Z</time>
  <course>11.33</course>
  <speed>0.022360679774997897</speed>
  <fix>3d</fix>
</trkpt>
<trkpt lat="40.072842" lon="-105.230575">
  <ele>1586.09</ele>
  <time>2026-08-27T18:31:18Z</time>
  <course>135.01</course>
  <speed>0.0</speed>
  <fix>3d</fix>
</trkpt>
<trkpt lat="40.0728419" lon="-105.2305749">
  <ele>1586.17</ele>
  <time>2026-08-27T18:31:18Z</time>
  <course>11.33</course>
  <speed>0.022360679774997897</speed>
  <fix>3d</fix>
</trkpt>
<trkpt lat="40.072842" lon="-105.230575">
  <ele>1586.09</ele>
  <time>2026-08-27T18:31:18Z</time>
  <course>135.01</course>
  <speed>0.0</speed>
  <fix>3d</fix>
</trkpt>
<trkpt lat="40.0728419" lon="-105.2305749">
  <ele>1586.18</ele>
  <time>2026-08-27T18:31:18Z</time>
  <course>11.33</course>
  <speed>0.022360679774997897</speed>
  <fix>3d</fix>
</trkpt>
<trkpt lat="40.072842" lon="-105.230575">
  <ele>1586.09</ele>
  <time>2026-08-27T18:31:18Z</time>
  <course>135.01</course>
  <speed>0.0</speed>
  <fix>3d</fix>
</trkpt>
<trkpt lat="40.0728419" lon="-105.2305749">
  <ele>1586.18</ele>
  <time>2026-08-27T18:31:18Z</time>
  <course>11.33</course>
  <speed>0.022360679774997897</speed>
  <fix>3d</fix>
</trkpt>
<trkpt lat="40.072842" lon="-105.230575">
  <ele>1586.09</ele>
  <time>2026-08-27T18:31:18Z</time>
  <course>135.01</course>
  <speed>0.0</speed>
  <fix>3d</fix>
</trkpt>
<trkpt lat="40.0728419" lon="-105.2305749">
  <ele>1586.18</ele>
  <time>2026-08-27T18:31:18Z</time>
  <course>11.33</course>
  <speed>0.022360679774997897</speed>
  <fix>3d</fix>
</trkpt>
<trkpt lat="40.072842" lon="-105.230575">
  <ele>1586.09</ele>
  <time>2026-08-27T18:31:18Z</time>
  <course>135.01</course>
  <speed>0.0</speed>
  <fix>3d</fix>
</trkpt>
<trkpt lat="40.0728419" lon="-105.2305749">
  <ele>1586.18</ele>
  <time>2026-08-27T18:31:18Z</time>
  <course>11.33</course>
  <speed>0.022360679774997897</speed>
  <fix>3d</fix>
</trkpt>
<trkpt lat="40.072842" lon="-105.230575">
  <ele>1586.09</ele>
  <time>2026-08-27T18:31:18Z</time>
  <course>135.01</course>
  <speed>0.0</speed>
  <fix>3d</fix>
</trkpt>
<trkpt lat="40.0728419" lon="-105.2305749">
  <ele>1586.18</ele>
  <time>2026-08-27T18:31:18Z</time>
  <course>11.33</course>
  <speed>0.022360679774997897</speed>
  <fix>3d</fix>
</trkpt>
<trkpt lat="40.072842" lon="-105.230575">
  <ele>1586.09</ele>
  <time>2026-08-27T18:31:18Z</time>
  <course>135.01</course>
  <speed>0.0</speed>
  <fix>3d</fix>
</trkpt>
<trkpt lat="40.0728419" lon="-105.2305749">
  <ele>1586.18</ele>
  <time>2026-08-27T18:31:18Z</time>
  <course>11.33</course>
  <speed>0.022360679774997897</speed>
  <fix>3d</fix>
</trkpt>
<trkpt lat="40.072842" lon="-105.230575">
  <ele>1586.09</ele>
  <time>2026-08-27T18:31:18Z</time>
  <course>135.01</course>
  <speed>0.0</speed>
  <fix>3d</fix>
</trkpt>
<trkpt lat="40.0728419" lon="-105.2305749">
  <ele>1586.18</ele>
  <time>2026-08-27T18:31:18Z</time>
  <course>11.33</course>
  <speed>0.022360679774997897</speed>
  <fix>3d</fix>
</trkpt>
<trkpt lat="40.072842" lon="-105.230575">
  <ele>1586.09</ele>
  <time>2026-08-27T18:31:18Z</time>
  <course>135.01</course>
  <speed>0.0</speed>
  <fix>3d</fix>
</trkpt>
<trkpt lat="40.0728419" lon="-105.2305749">
  <ele>1586.18</ele>
  <time>2026-08-27T18:31:18Z</time>
  <course>11.33</course>
  <speed>0.022360679774997897</speed>
  <fix>3d</fix>
</trkpt>
<trkpt lat="40.072842" lon="-105.230575">
  <ele>1586.09</ele>
  <time>2026-08-27T18:31:18Z</time>
  <course>135.01</course>
  <speed>0.0</speed>
  <fix>3d</fix>
</trkpt>
<trkpt lat="40.0728419" lon="-105.2305749">
  <ele>1586.18</ele>
  <time>2026-08-27T18:31:18Z</time>
  <course>11.33</course>
  <speed>0.022360679774997897</speed>
  <fix>3d</fix>
</trkpt>
<trkpt lat="40.072842" lon="-105.230575">
  <ele>1586.09</ele>
  <time>2026-08-27T18:31:18Z</time>
  <course>135.01</course>
  <speed>0.0</speed>
  <fix>3d</fix>
</trkpt>
<trkpt lat="40.0728419" lon="-105.2305749">
  <ele>1586.18</ele>
  <time>2026-08-27T18:31:18Z</time>
  <course>11.33</course>
  <speed>0.022360679774997897</speed>
  <fix>3d</fix>
</trkpt>
<trkpt lat="40.072842" lon="-105.230575">
  <ele>1586.09</ele>
  <time>2026-08-27T18:31:18Z</time>
  <course>135.01</course>
  <speed>0.0</speed>
  <fix>3d</fix>
</trkpt>
<trkpt lat="40.0728419" lon="-105.2305749">
  <ele>1586.18</ele>
  <time>2026-08-27T18:31:18Z</time>
  <course>11.33</course>
  <speed>0.022360679774997897</speed>
  <fix>3d</fix>
</trkpt>
<trkpt lat="40.072842" lon="-105.230575">
  <ele>1586.09</ele>
  <time>2026-08-27T18:31:18Z</time>
  <course>135.01</course>
  <speed>0.0</speed>
  <fix>3d</fix>
</trkpt>
<trkpt lat="40.0728419" lon="-105.2305749">
  <ele>1586.18</ele>
  <time>2026-08-27T18:31:18Z</time>
  <course>11.33</course>
  <speed>0.022360679774997897</speed>
  <fix>3d</fix>
</trkpt>
<trkpt lat="40.072842" lon="-105.230575">
  <ele>1586.09</ele>
  <time>2026-08-27T18:31:18Z</time>
  <course>135.01</course>
  <speed>0.0</speed>
  <fix>3d</fix>
</trkpt>
<trkpt lat="40.0728419" lon="-105.2305749">
  <ele>1586.18</ele>
  <time>2026-08-27T18:31:18Z</time>
  <course>11.32</course>
  <speed>0.022360679774997897</speed>
  <fix>3d</fix>
</trkpt>
<trkpt lat="40.072842" lon="-105.230575">
  <ele>1586.09</ele>
  <time>2026-08-27T18:31:18Z</time>
  <course>135.01</course>
  <speed>0.0</speed>
  <fix>3d</fix>
</trkpt>
<trkpt lat="40.0728419" lon="-105.2305749">
  <ele>1586.18</ele>
  <time>2026-08-27T18:31:18Z</time>
  <course>11.32</course>
  <speed>0.022360679774997897</speed>
  <fix>3d</fix>
</trkpt>
<trkpt lat="40.072842" lon="-105.230575">
  <ele>1586.09</ele>
  <time>2026-08-27T18:31:18Z</time>
  <course>135.01</course>
  <speed>0.0</speed>
  <fix>3d</fix>
</trkpt>
<trkpt lat="40.0728419" lon="-105.2305749">
  <ele>1586.18</ele>
  <time>2026-08-27T18:31:18Z</time>
  <course>11.32</course>
  <speed>0.022360679774997897</speed>
  <fix>3d</fix>
</trkpt>
<trkpt lat="40.072842" lon="-105.230575">
  <ele>1586.09</ele>
  <time>2026-08-27T18:31:18Z</time>
  <course>135.01</course>
  <speed>0.0</speed>
  <fix>3d</fix>
</trkpt>
<trkpt lat="40.0728419" lon="-105.2305749">
  <ele>1586.18</ele>
  <time>2026-08-27T18:31:18Z</time>
  <course>11.32</course>
  <speed>0.022360679774997897</speed>
  <fix>3d</fix>
</trkpt>
<trkpt lat="40.072842" lon="-105.230575">
  <ele>1586.09</ele>
  <time>2026-08-27T18:31:18Z</time>
  <course>135.01</course>
  <speed>0.0</speed>
  <fix>3d</fix>
</trkpt>
<trkpt lat="40.0728419" lon="-105.2305749">
  <ele>1586.18</ele>
  <time>2026-08-27T18:31:18Z</time>
  <course>11.32</course>
  <speed>0.022360679774997897</speed>
  <fix>3d</fix>
</trkpt>
<trkpt lat="40.072842" lon="-105.230575">
  <ele>1586.09</ele>
  <time>2026-08-27T18:31:18Z</time>
  <course>135.01</course>
  <speed>0.0</speed>
  <fix>3d</fix>
</trkpt>
<trkpt lat="40.0728419" lon="-105.2305749">
  <ele>1586.18</ele>
  <time>2026-08-27T18:31:18Z</time>
  <course>11.32</course>
  <speed>0.022360679774997897</speed>
  <fix>3d</fix>
</trkpt>
<trkpt lat="40.072842" lon="-105.230575">
  <ele>1586.09</ele>
  <time>2026-08-27T18:31:18Z</time>
  <course>135.01</course>
  <speed>0.0</speed>
  <fix>3d</fix>
</trkpt>
<trkpt lat="40.0728419" lon="-105.2305749">
  <ele>1586.18</ele>
  <time>2026-08-27T18:31:18Z</time>
  <course>11.32</course>
  <speed>0.022360679774997897</speed>
  <fix>3d</fix>
</trkpt>
<trkpt lat="40.072842" lon="-105.230575">
  <ele>1586.09</ele>
  <time>2026-08-27T18:31:18Z</time>
  <course>135.01</course>
  <speed>0.0</speed>
  <fix>3d</fix>
</trkpt>
<trkpt lat="40.0728419" lon="-105.2305749">
  <ele>1586.18</ele>
  <time>2026-08-27T18:31:18Z</time>
  <course>11.32</course>
  <speed>0.022360679774997897</speed>
  <fix>3d</fix>
</trkpt>
<trkpt lat="40.072842" lon="-105.230575">
  <ele>1586.09</ele>
  <time>2026-08-27T18:31:18Z</time>
  <course>135.01</course>
  <speed>0.0</speed>
  <fix>3d</fix>
</trkpt>
<trkpt lat="40.0728419" lon="-105.2305749">
  <ele>1586.18</ele>
  <time>2026-08-27T18:31:18Z</time>
  <course>11.31</course>
  <speed>0.022360679774997897</speed>
  <fix>3d</fix>
</trkpt>
<trkpt lat="40.072842" lon="-105.230575">
  <ele>1586.09</ele>
  <time>2026-08-27T18:31:18Z</time>
  <course>135.01</course>
  <speed>0.0</speed>
  <fix>3d</fix>
</trkpt>
<trkpt lat="40.0728419" lon="-105.2305749">
  <ele>1586.18</ele>
  <time>2026-08-27T18:31:18Z</time>
  <course>11.31</course>
  <speed>0.022360679774997897</speed>
  <fix>3d</fix>
</trkpt>
<trkpt lat="40.072842" lon="-105.230575">
  <ele>1586.09</ele>
  <time>2026-08-27T18:31:18Z</time>
  <course>135.01</course>
  <speed>0.0</speed>
  <fix>3d</fix>
</trkpt>
<trkpt lat="40.0728419" lon="-105.2305749">
  <ele>1586.17</ele>
  <time>2026-08-27T18:31:18Z</time>
  <course>11.31</course>
  <speed>0.022360679774997897</speed>
  <fix>3d</fix>
</trkpt>
<trkpt lat="40.072842" lon="-105.230575">
  <ele>1586.09</ele>
  <time>2026-08-27T18:31:18Z</time>
  <course>135.01</course>
  <speed>0.0</speed>
  <fix>3d</fix>
</trkpt>
<trkpt lat="40.0728419" lon="-105.2305749">
  <ele>1586.17</ele>
  <time>2026-08-27T18:31:18Z</time>
  <course>11.31</course>
  <speed>0.022360679774997897</speed>
  <fix>3d</fix>
</trkpt>
<trkpt lat="40.072842" lon="-105.230575">
  <ele>1586.09</ele>
  <time>2026-08-27T18:31:18Z</time>
  <course>135.01</course>
  <speed>0.0</speed>
  <fix>3d</fix>
</trkpt>
<trkpt lat="40.0728419" lon="-105.2305749">
  <ele>1586.17</ele>
  <time>2026-08-27T18:31:18Z</time>
  <course>11.31</course>
  <speed>0.022360679774997897</speed>
  <fix>3d</fix>
</trkpt>
<trkpt lat="40.072842" lon="-105.230575">
  <ele>1586.09</ele>
  <time>2026-08-27T18:31:18Z</time>
  <course>315.0</course>
  <speed>0.0</speed>
  <fix>3d</fix>
</trkpt>
<trkpt lat="40.0728419" lon="-105.2305749">
  <ele>1586.17</ele>
  <time>2026-08-27T18:31:18Z</time>
  <course>11.31</course>
  <speed>0.022360679774997897</speed>
  <fix>3d</fix>
</trkpt>
<trkpt lat="40.072842" lon="-105.230575">
  <ele>1586.09</ele>
  <time>2026-08-27T18:31:18Z</time>
  <course>315.0</course>
  <speed>0.0</speed>
  <fix>3d</fix>
</trkpt>
<trkpt lat="40.0728419" lon="-105.2305749">
  <ele>1586.17</ele>
  <time>2026-08-27T18:31:18Z</time>
  <course>11.3</course>
  <speed>0.022360679774997897</speed>
  <fix>3d</fix>
</trkpt>
<trkpt lat="40.072842" lon="-105.230575">
  <ele>1586.09</ele>
  <time>2026-08-27T18:31:18Z</time>
  <course>315.0</course>
  <speed>0.0</speed>
  <fix>3d</fix>
</trkpt>
<trkpt lat="40.0728419" lon="-105.2305749">
  <ele>1586.17</ele>
  <time>2026-08-27T18:31:18Z</time>
  <course>11.3</course>
  <speed>0.022360679774997897</speed>
  <fix>3d</fix>
</trkpt>
<trkpt lat="40.072842" lon="-105.230575">
  <ele>1586.09</ele>
  <time>2026-08-27T18:31:18Z</time>
  <course>135.0</course>
  <speed>0.0</speed>
  <fix>3d</fix>
</trkpt>
<trkpt lat="40.0728419" lon="-105.2305749">
  <ele>1586.18</ele>
  <time>2026-08-27T18:31:18Z</time>
  <course>11.3</course>
  <speed>0.022360679774997897</speed>
  <fix>3d</fix>
</trkpt>
<trkpt lat="40.072842" lon="-105.230575">
  <ele>1586.09</ele>
  <time>2026-08-27T18:31:18Z</time>
  <course>135.01</course>
  <speed>0.0</speed>
  <fix>3d</fix>
</trkpt>
<trkpt lat="40.0728419" lon="-105.2305749">
  <ele>1586.18</ele>
  <time>2026-08-27T18:31:18Z</time>
  <course>11.3</course>
  <speed>0.022360679774997897</speed>
  <fix>3d</fix>
</trkpt>
<trkpt lat="40.072842" lon="-105.230575">
  <ele>1586.09</ele>
  <time>2026-08-27T18:31:18Z</time>
  <course>314.91</course>
  <speed>0.0</speed>
  <fix>3d</fix>
</trkpt>
<trkpt lat="40.0728419" lon="-105.2305749">
  <ele>1586.18</ele>
  <time>2026-08-27T18:31:18Z</time>
  <course>11.3</course>
  <speed>0.022360679774997897</speed>
  <fix>3d</fix>
</trkpt>
<trkpt lat="40.072842" lon="-105.230575">
  <ele>1586.09</ele>
  <time>2026-08-27T18:31:18Z</time>
  <course>135.02</course>
  <speed>0.0</speed>
  <fix>3d</fix>
</trkpt>
<trkpt lat="40.0728419" lon="-105.2305749">
  <ele>1586.18</ele>
  <time>2026-08-27T18:31:18Z</time>
  <course>11.3</course>
  <speed>0.022360679774997897</speed>
  <fix>3d</fix>
</trkpt>
<trkpt lat="40.072842" lon="-105.230575">
  <ele>1586.09</ele>
  <time>2026-08-27T18:31:18Z</time>
  <course>135.02</course>
  <speed>0.0</speed>
  <fix>3d</fix>
</trkpt>
<trkpt lat="40.0728419" lon="-105.2305749">
  <ele>1586.18</ele>
  <time>2026-08-27T18:31:18Z</time>
  <course>11.29</course>
  <speed>0.022360679774997897</speed>
  <fix>3d</fix>
</trkpt>
<trkpt lat="40.072842" lon="-105.230575">
  <ele>1586.09</ele>
  <time>2026-08-27T18:31:18Z</time>
  <course>135.02</course>
  <speed>0.0</speed>
  <fix>3d</fix>
</trkpt>
<trkpt lat="40.0728419" lon="-105.2305749">
  <ele>1586.18</ele>
  <time>2026-08-27T18:31:18Z</time>
  <course>11.29</course>
  <speed>0.022360679774997897</speed>
  <fix>3d</fix>
</trkpt>
<trkpt lat="40.072842" lon="-105.230575">
  <ele>1586.09</ele>
  <time>2026-08-27T18:31:18Z</time>
  <course>135.02</course>
  <speed>0.0</speed>
  <fix>3d</fix>
</trkpt>
<trkpt lat="40.0728419" lon="-105.2305749">
  <ele>1586.19</ele>
  <time>2026-08-27T18:31:18Z</time>
  <course>11.29</course>
  <speed>0.022360679774997897</speed>
  <fix>3d</fix>
</trkpt>
<trkpt lat="40.072842" lon="-105.230575">
  <ele>1586.09</ele>
  <time>2026-08-27T18:31:18Z</time>
  <course>135.02</course>
  <speed>0.0</speed>
  <fix>3d</fix>
</trkpt>
<trkpt lat="40.0728419" lon="-105.2305749">
  <ele>1586.19</ele>
  <time>2026-08-27T18:31:18Z</time>
  <course>11.29</course>
  <speed>0.022360679774997897</speed>
  <fix>3d</fix>
</trkpt>
<trkpt lat="40.072842" lon="-105.230575">
  <ele>1586.09</ele>
  <time>2026-08-27T18:31:18Z</time>
  <course>135.02</course>
  <speed>0.0</speed>
  <fix>3d</fix>
</trkpt>
<trkpt lat="40.0728419" lon="-105.2305749">
  <ele>1586.19</ele>
  <time>2026-08-27T18:31:18Z</time>
  <course>11.29</course>
  <speed>0.022360679774997897</speed>
  <fix>3d</fix>
</trkpt>
<trkpt lat="40.072842" lon="-105.230575">
  <ele>1586.09</ele>
  <time>2026-08-27T18:31:18Z</time>
  <course>135.02</course>
  <speed>0.0</speed>
  <fix>3d</fix>
</trkpt>
<trkpt lat="40.0728419" lon="-105.2305749">
  <ele>1586.19</ele>
  <time>2026-08-27T18:31:18Z</time>
  <course>11.28</course>
  <speed>0.022360679774997897</speed>
  <fix>3d</fix>
</trkpt>
<trkpt lat="40.072842" lon="-105.230575">
  <ele>1586.09</ele>
  <time>2026-08-27T18:31:18Z</time>
  <course>135.02</course>
  <speed>0.0</speed>
  <fix>3d</fix>
</trkpt>
<trkpt lat="40.0728419" lon="-105.2305749">
  <ele>1586.19</ele>
  <time>2026-08-27T18:31:18Z</time>
  <course>11.28</course>
  <speed>0.022360679774997897</speed>
  <fix>3d</fix>
</trkpt>
<trkpt lat="40.072842" lon="-105.230575">
  <ele>1586.09</ele>
  <time>2026-08-27T18:31:18Z</time>
  <course>135.02</course>
  <speed>0.0</speed>
  <fix>3d</fix>
</trkpt>
<trkpt lat="40.0728419" lon="-105.2305749">
  <ele>1586.19</ele>
  <time>2026-08-27T18:31:18Z</time>
  <course>11.28</course>
  <speed>0.022360679774997897</speed>
  <fix>3d</fix>
</trkpt>
<trkpt lat="40.072842" lon="-105.230575">
  <ele>1586.09</ele>
  <time>2026-08-27T18:31:18Z</time>
  <course>135.02</course>
  <speed>0.0</speed>
  <fix>3d</fix>
</trkpt>
<trkpt lat="40.0728419" lon="-105.2305749">
  <ele>1586.18</ele>
  <time>2026-08-27T18:31:18Z</time>
  <course>11.28</course>
  <speed>0.022360679774997897</speed>
  <fix>3d</fix>
</trkpt>
<trkpt lat="40.072842" lon="-105.230575">
  <ele>1586.09</ele>
  <time>2026-08-27T18:31:18Z</time>
  <course>135.02</course>
  <speed>0.0</speed>
  <fix>3d</fix>
</trkpt>
<trkpt lat="40.0728419" lon="-105.2305749">
  <ele>1586.18</ele>
  <time>2026-08-27T18:31:18Z</time>
  <course>11.28</course>
  <speed>0.022360679774997897</speed>
  <fix>3d</fix>
</trkpt>
<trkpt lat="40.072842" lon="-105.230575">
  <ele>1586.09</ele>
  <time>2026-08-27T18:31:18Z</time>
  <course>135.02</course>
  <speed>0.0</speed>
  <fix>3d</fix>
</trkpt>
<trkpt lat="40.0728419" lon="-105.2305749">
  <ele>1586.18</ele>
  <time>2026-08-27T18:31:18Z</time>
  <course>11.27</course>
  <speed>0.022360679774997897</speed>
  <fix>3d</fix>
</trkpt>
<trkpt lat="40.072842" lon="-105.230575">
  <ele>1586.09</ele>
  <time>2026-08-27T18:31:18Z</time>
  <course>135.02</course>
  <speed>0.0</speed>
  <fix>3d</fix>
</trkpt>
<trkpt lat="40.0728419" lon="-105.2305749">
  <ele>1586.18</ele>
  <time>2026-08-27T18:31:18Z</time>
  <course>11.27</course>
  <speed>0.022360679774997897</speed>
  <fix>3d</fix>
</trkpt>
<trkpt lat="40.072842" lon="-105.230575">
  <ele>1586.09</ele>
  <time>2026-08-27T18:31:18Z</time>
  <course>135.02</course>
  <speed>0.0</speed>
  <fix>3d</fix>
</trkpt>
<trkpt lat="40.0728419" lon="-105.2305749">
  <ele>1586.18</ele>
  <time>2026-08-27T18:31:18Z</time>
  <course>11.27</course>
  <speed>0.022360679774997897</speed>
  <fix>3d</fix>
</trkpt>
<trkpt lat="40.072842" lon="-105.230575">
  <ele>1586.09</ele>
  <time>2026-08-27T18:31:18Z</time>
  <course>135.02</course>
  <speed>0.0</speed>
  <fix>3d</fix>
</trkpt>
<trkpt lat="40.0728419" lon="-105.2305749">
  <ele>1586.18</ele>
  <time>2026-08-27T18:31:18Z</time>
  <course>11.27</course>
  <speed>0.01414213562373095</speed>
  <fix>3d</fix>
</trkpt>
<trkpt lat="40.072842" lon="-105.230575">
  <ele>1586.09</ele>
  <time>2026-08-27T18:31:18Z</time>
  <course>135.02</course>
  <speed>0.0</speed>
  <fix>3d</fix>
</trkpt>
<trkpt lat="40.0728419" lon="-105.2305749">
  <ele>1586.18</ele>
  <time>2026-08-27T18:31:18Z</time>
  <course>11.26</course>
  <speed>0.01414213562373095</speed>
  <fix>3d</fix>
</trkpt>
<trkpt lat="40.072842" lon="-105.230575">
  <ele>1586.09</ele>
  <time>2026-08-27T18:31:18Z</time>
  <course>135.02</course>
  <speed>0.0</speed>
  <fix>3d</fix>
</trkpt>
<trkpt lat="40.0728419" lon="-105.2305749">
  <ele>1586.18</ele>
  <time>2026-08-27T18:31:18Z</time>
  <course>11.26</course>
  <speed>0.01414213562373095</speed>
  <fix>3d</fix>
</trkpt>
<trkpt lat="40.072842" lon="-105.230575">
  <ele>1586.09</ele>
  <time>2026-08-27T18:31:18Z</time>
  <course>135.02</course>
  <speed>0.0</speed>
  <fix>3d</fix>
</trkpt>
<trkpt lat="40.0728419" lon="-105.2305749">
  <ele>1586.18</ele>
  <time>2026-08-27T18:31:18Z</time>
  <course>11.26</course>
  <speed>0.01414213562373095</speed>
  <fix>3d</fix>
</trkpt>
<trkpt lat="40.072842" lon="-105.230575">
  <ele>1586.09</ele>
  <time>2026-08-27T18:31:18Z</time>
  <course>135.02</course>
  <speed>0.0</speed>
  <fix>3d</fix>
</trkpt>
<trkpt lat="40.0728419" lon="-105.2305749">
  <ele>1586.19</ele>
  <time>2026-08-27T18:31:18Z</time>
  <course>11.26</course>
  <speed>0.01414213562373095</speed>
  <fix>3d</fix>
</trkpt>
<trkpt lat="40.072842" lon="-105.230575">
  <ele>1586.09</ele>
  <time>2026-08-27T18:31:18Z</time>
  <course>135.02</course>
  <speed>0.0</speed>
  <fix>3d</fix>
</trkpt>
<trkpt lat="40.0728419" lon="-105.2305749">
  <ele>1586.19</ele>
  <time>2026-08-27T18:31:18Z</time>
  <course>11.26</course>
  <speed>0.01414213562373095</speed>
  <fix>3d</fix>
</trkpt>
<trkpt lat="40.072842" lon="-105.230575">
  <ele>1586.09</ele>
  <time>2026-08-27T18:31:18Z</time>
  <course>135.02</course>
  <speed>0.0</speed>
  <fix>3d</fix>
</trkpt>
<trkpt lat="40.0728419" lon="-105.2305749">
  <ele>1586.19</ele>
  <time>2026-08-27T18:31:18Z</time>
  <course>11.25</course>
  <speed>0.01414213562373095</speed>
  <fix>3d</fix>
</trkpt>
<trkpt lat="40.072842" lon="-105.230575">
  <ele>1586.09</ele>
  <time>2026-08-27T18:31:18Z</time>
  <course>135.02</course>
  <speed>0.0</speed>
  <fix>3d</fix>
</trkpt>
<trkpt lat="40.0728419" lon="-105.2305749">
  <ele>1586.19</ele>
  <time>2026-08-27T18:31:18Z</time>
  <course>11.25</course>
  <speed>0.01414213562373095</speed>
  <fix>3d</fix>
</trkpt>
<trkpt lat="40.072842" lon="-105.230575">
  <ele>1586.09</ele>
  <time>2026-08-27T18:31:18Z</time>
  <course>135.02</course>
  <speed>0.0</speed>
  <fix>3d</fix>
</trkpt>
<trkpt lat="40.0728419" lon="-105.2305749">
  <ele>1586.19</ele>
  <time>2026-08-27T18:31:18Z</time>
  <course>11.25</course>
  <speed>0.01414213562373095</speed>
  <fix>3d</fix>
</trkpt>
<trkpt lat="40.072842" lon="-105.230575">
  <ele>1586.09</ele>
  <time>2026-08-27T18:31:18Z</time>
  <course>135.02</course>
  <speed>0.0</speed>
  <fix>3d</fix>
</trkpt>
<trkpt lat="40.0728419" lon="-105.2305749">
  <ele>1586.19</ele>
  <time>2026-08-27T18:31:18Z</time>
  <course>11.25</course>
  <speed>0.01414213562373095</speed>
  <fix>3d</fix>
</trkpt>
<trkpt lat="40.072842" lon="-105.230575">
  <ele>1586.09</ele>
  <time>2026-08-27T18:31:18Z</time>
  <course>135.02</course>
  <speed>0.0</speed>
  <fix>3d</fix>
</trkpt>
<trkpt lat="40.0728419" lon="-105.2305749">
  <ele>1586.19</ele>
  <time>2026-08-27T18:31:18Z</time>
  <course>11.24</course>
  <speed>0.01414213562373095</speed>
  <fix>3d</fix>
</trkpt>
<trkpt lat="40.072842" lon="-105.230575">
  <ele>1586.09</ele>
  <time>2026-08-27T18:31:18Z</time>
  <course>135.02</course>
  <speed>0.0</speed>
  <fix>3d</fix>
</trkpt>
<trkpt lat="40.0728419" lon="-105.2305749">
  <ele>1586.19</ele>
  <time>2026-08-27T18:31:18Z</time>
  <course>11.24</course>
  <speed>0.01414213562373095</speed>
  <fix>3d</fix>
</trkpt>
<trkpt lat="40.072842" lon="-105.230575">
  <ele>1586.09</ele>
  <time>2026-08-27T18:31:18Z</time>
  <course>135.02</course>
  <speed>0.0</speed>
  <fix>3d</fix>
</trkpt>
<trkpt lat="40.0728419" lon="-105.2305749">
  <ele>1586.19</ele>
  <time>2026-08-27T18:31:18Z</time>
  <course>11.24</course>
  <speed>0.01414213562373095</speed>
  <fix>3d</fix>
</trkpt>
<trkpt lat="40.072842" lon="-105.230575">
  <ele>1586.09</ele>
  <time>2026-08-27T18:31:18Z</time>
  <course>135.02</course>
  <speed>0.0</speed>
  <fix>3d</fix>
</trkpt>
<trkpt lat="40.0728419" lon="-105.2305749">
  <ele>1586.19</ele>
  <time>2026-08-27T18:31:18Z</time>
  <course>11.24</course>
  <speed>0.01414213562373095</speed>
  <fix>3d</fix>
</trkpt>
<trkpt lat="40.072842" lon="-105.230575">
  <ele>1586.09</ele>
  <time>2026-08-27T18:31:18Z</time>
  <course>135.02</course>
  <speed>0.0</speed>
  <fix>3d</fix>
</trkpt>
<trkpt lat="40.0728419" lon="-105.2305749">
  <ele>1586.19</ele>
  <time>2026-08-27T18:31:18Z</time>
  <course>11.24</course>
  <speed>0.01414213562373095</speed>
  <fix>3d</fix>
</trkpt>
<trkpt lat="40.072842" lon="-105.230575">
  <ele>1586.09</ele>
  <time>2026-08-27T18:31:18Z</time>
  <course>135.02</course>
  <speed>0.0</speed>
  <fix>3d</fix>
</trkpt>
<trkpt lat="40.0728419" lon="-105.2305749">
  <ele>1586.18</ele>
  <time>2026-08-27T18:31:18Z</time>
  <course>11.23</course>
  <speed>0.01414213562373095</speed>
  <fix>3d</fix>
</trkpt>
<trkpt lat="40.072842" lon="-105.230575">
  <ele>1586.09</ele>
  <time>2026-08-27T18:31:18Z</time>
  <course>135.02</course>
  <speed>0.0</speed>
  <fix>3d</fix>
</trkpt>
<trkpt lat="40.0728419" lon="-105.2305749">
  <ele>1586.18</ele>
  <time>2026-08-27T18:31:18Z</time>
  <course>11.23</course>
  <speed>0.01414213562373095</speed>
  <fix>3d</fix>
</trkpt>
<trkpt lat="40.072842" lon="-105.230575">
  <ele>1586.09</ele>
  <time>2026-08-27T18:31:18Z</time>
  <course>135.02</course>
  <speed>0.0</speed>
  <fix>3d</fix>
</trkpt>
<trkpt lat="40.0728419" lon="-105.2305749">
  <ele>1586.18</ele>
  <time>2026-08-27T18:31:18Z</time>
  <course>11.23</course>
  <speed>0.01414213562373095</speed>
  <fix>3d</fix>
</trkpt>
<trkpt lat="40.072842" lon="-105.230575">
  <ele>1586.09</ele>
  <time>2026-08-27T18:31:18Z</time>
  <course>135.02</course>
  <speed>0.0</speed>
  <fix>3d</fix>
</trkpt>
<trkpt lat="40.0728419" lon="-105.2305749">
  <ele>1586.18</ele>
  <time>2026-08-27T18:31:18Z</time>
  <course>11.23</course>
  <speed>0.01414213562373095</speed>
  <fix>3d</fix>
</trkpt>
<trkpt lat="40.072842" lon="-105.230575">
  <ele>1586.09</ele>
  <time>2026-08-27T18:31:18Z</time>
  <course>135.02</course>
  <speed>0.0</speed>
  <fix>3d</fix>
</trkpt>
<trkpt lat="40.0728419" lon="-105.2305749">
  <ele>1586.18</ele>
  <time>2026-08-27T18:31:18Z</time>
  <course>11.22</course>
  <speed>0.01414213562373095</speed>
  <fix>3d</fix>
</trkpt>
<trkpt lat="40.072842" lon="-105.230575">
  <ele>1586.09</ele>
  <time>2026-08-27T18:31:18Z</time>
  <course>135.02</course>
  <speed>0.0</speed>
  <fix>3d</fix>
</trkpt>
<trkpt lat="40.0728419" lon="-105.2305749">
  <ele>1586.18</ele>
  <time>2026-08-27T18:31:18Z</time>
  <course>11.22</course>
  <speed>0.01414213562373095</speed>
  <fix>3d</fix>
</trkpt>
<trkpt lat="40.072842" lon="-105.230575">
  <ele>1586.09</ele>
  <time>2026-08-27T18:31:18Z</time>
  <course>135.02</course>
  <speed>0.0</speed>
  <fix>3d</fix>
</trkpt>
<trkpt lat="40.0728419" lon="-105.2305749">
  <ele>1586.18</ele>
  <time>2026-08-27T18:31:18Z</time>
  <course>11.22</course>
  <speed>0.01414213562373095</speed>
  <fix>3d</fix>
</trkpt>
<trkpt lat="40.072842" lon="-105.230575">
  <ele>1586.09</ele>
  <time>2026-08-27T18:31:18Z</time>
  <course>135.02</course>
  <speed>0.0</speed>
  <fix>3d</fix>
</trkpt>
<trkpt lat="40.0728419" lon="-105.2305749">
  <ele>1586.18</ele>
  <time>2026-08-27T18:31:18Z</time>
  <course>11.22</course>
  <speed>0.01414213562373095</speed>
  <fix>3d</fix>
</trkpt>
<trkpt lat="40.072842" lon="-105.230575">
  <ele>1586.09</ele>
  <time>2026-08-27T18:31:18Z</time>
  <course>135.02</course>
  <speed>0.0</speed>
  <fix>3d</fix>
</trkpt>
<trkpt lat="40.0728419" lon="-105.2305749">
  <ele>1586.17</ele>
  <time>2026-08-27T18:31:18Z</time>
  <course>11.21</course>
  <speed>0.01414213562373095</speed>
  <fix>3d</fix>
</trkpt>
<trkpt lat="40.072842" lon="-105.230575">
  <ele>1586.09</ele>
  <time>2026-08-27T18:31:18Z</time>
  <course>135.02</course>
  <speed>0.0</speed>
  <fix>3d</fix>
</trkpt>
<trkpt lat="40.0728419" lon="-105.2305749">
  <ele>1586.17</ele>
  <time>2026-08-27T18:31:18Z</time>
  <course>11.21</course>
  <speed>0.01414213562373095</speed>
  <fix>3d</fix>
</trkpt>
<trkpt lat="40.072842" lon="-105.230575">
  <ele>1586.09</ele>
  <time>2026-08-27T18:31:18Z</time>
  <course>135.02</course>
  <speed>0.0</speed>
  <fix>3d</fix>
</trkpt>
<trkpt lat="40.0728419" lon="-105.2305749">
  <ele>1586.17</ele>
  <time>2026-08-27T18:31:18Z</time>
  <course>11.21</course>
  <speed>0.01414213562373095</speed>
  <fix>3d</fix>
</trkpt>
<trkpt lat="40.072842" lon="-105.230575">
  <ele>1586.09</ele>
  <time>2026-08-27T18:31:18Z</time>
  <course>135.02</course>
  <speed>0.0</speed>
  <fix>3d</fix>
</trkpt>
<trkpt lat="40.0728419" lon="-105.2305749">
  <ele>1586.17</ele>
  <time>2026-08-27T18:31:18Z</time>
  <course>11.21</course>
  <speed>0.01414213562373095</speed>
  <fix>3d</fix>
</trkpt>
<trkpt lat="40.072842" lon="-105.230575">
  <ele>1586.09</ele>
  <time>2026-08-27T18:31:18Z</time>
  <course>135.02</course>
  <speed>0.0</speed>
  <fix>3d</fix>
</trkpt>
<trkpt lat="40.0728419" lon="-105.2305749">
  <ele>1586.17</ele>
  <time>2026-08-27T18:31:18Z</time>
  <course>11.21</course>
  <speed>0.01414213562373095</speed>
  <fix>3d</fix>
</trkpt>
<trkpt lat="40.072842" lon="-105.230575">
  <ele>1586.09</ele>
  <time>2026-08-27T18:31:18Z</time>
  <course>135.02</course>
  <speed>0.0</speed>
  <fix>3d</fix>
</trkpt>
<trkpt lat="40.0728419" lon="-105.2305749">
  <ele>1586.17</ele>
  <time>2026-08-27T18:31:18Z</time>
  <course>11.2</course>
  <speed>0.01414213562373095</speed>
  <fix>3d</fix>
</trkpt>
<trkpt lat="40.072842" lon="-105.230575">
  <ele>1586.09</ele>
  <time>2026-08-27T18:31:18Z</time>
  <course>135.02</course>
  <speed>0.0</speed>
  <fix>3d</fix>
</trkpt>
<trkpt lat="40.0728419" lon="-105.2305749">
  <ele>1586.17</ele>
  <time>2026-08-27T18:31:18Z</time>
  <course>11.2</course>
  <speed>0.01414213562373095</speed>
  <fix>3d</fix>
</trkpt>
<trkpt lat="40.0728419" lon="-105.2305749">
  <ele>1586.17</ele>
  <time>2026-08-27T18:31:18Z</time>
  <course>11.2</course>
  <speed>0.01414213562373095</speed>
  <fix>3d</fix>
</trkpt>
<trkpt lat="40.072842" lon="-105.230575">
  <ele>1586.09</ele>
  <time>2026-08-27T18:31:18Z</time>
  <course>135.01</course>
  <speed>0.0</speed>
  <fix>3d</fix>
</trkpt>
<trkpt lat="40.0728419" lon="-105.2305749">
  <ele>1586.17</ele>
  <time>2026-08-27T18:31:18Z</time>
  <course>11.2</course>
  <speed>0.01414213562373095</speed>
  <fix>3d</fix>
</trkpt>
<trkpt lat="40.0728419" lon="-105.2305749">
  <ele>1586.17</ele>
  <time>2026-08-27T18:31:18Z</time>
  <course>11.2</course>
  <speed>0.01414213562373095</speed>
  <fix>3d</fix>
</trkpt>
<trkpt lat="40.072842" lon="-105.230575">
  <ele>1586.09</ele>
  <time>2026-08-27T18:31:18Z</time>
  <course>298.75</course>
  <speed>0.0</speed>
  <fix>3d</fix>
</trkpt>
<trkpt lat="40.0728419" lon="-105.2305749">
  <ele>1586.17</ele>
  <time>2026-08-27T18:31:18Z</time>
  <course>11.2</course>
  <speed>0.01414213562373095</speed>
  <fix>3d</fix>
</trkpt>
<trkpt lat="40.0728419" lon="-105.2305749">
  <ele>1586.17</ele>
  <time>2026-08-27T18:31:18Z</time>
  <course>11.2</course>
  <speed>0.01414213562373095</speed>
  <fix>3d</fix>
</trkpt>
<trkpt lat="40.072842" lon="-105.230575">
  <ele>1586.09</ele>
  <time>2026-08-27T18:31:18Z</time>
  <course>307.57</course>
  <speed>0.0</speed>
  <fix>3d</fix>
</trkpt>
<trkpt lat="40.0728419" lon="-105.2305749">
  <ele>1586.17</ele>
  <time>2026-08-27T18:31:18Z</time>
  <course>11.2</course>
  <speed>0.01414213562373095</speed>
  <fix>3d</fix>
</trkpt>
<trkpt lat="40.0728419" lon="-105.2305749">
  <ele>1586.18</ele>
  <time>2026-08-27T18:31:18Z</time>
  <course>11.19</course>
  <speed>0.01414213562373095</speed>
  <fix>3d</fix>
</trkpt>
<trkpt lat="40.072842" lon="-105.230575">
  <ele>1586.09</ele>
  <time>2026-08-27T18:31:18Z</time>
  <course>321.24</course>
  <speed>0.0</speed>
  <fix>3d</fix>
</trkpt>
<trkpt lat="40.0728419" lon="-105.2305749">
  <ele>1586.18</ele>
  <time>2026-08-27T18:31:18Z</time>
  <course>11.19</course>
  <speed>0.01414213562373095</speed>
  <fix>3d</fix>
</trkpt>
<trkpt lat="40.0728419" lon="-105.2305749">
  <ele>1586.23</ele>
  <time>2026-08-27T18:31:18Z</time>
  <course>11.19</course>
  <speed>0.01414213562373095</speed>
  <fix>3d</fix>
</trkpt>
<trkpt lat="40.072842" lon="-105.230575">
  <ele>1586.12</ele>
  <time>2026-08-27T18:31:18Z</time>
  <course>348.56</course>
  <speed>0.0</speed>
  <fix>3d</fix>
</trkpt>
<trkpt lat="40.0728419" lon="-105.2305749">
  <ele>1586.24</ele>
  <time>2026-08-27T18:31:18Z</time>
  <course>11.19</course>
  <speed>0.01414213562373095</speed>
  <fix>3d</fix>
</trkpt>
<trkpt lat="40.0728419" lon="-105.2305749">
  <ele>1586.3</ele>
  <time>2026-08-27T18:31:18Z</time>
  <course>11.19</course>
  <speed>0.01414213562373095</speed>
  <fix>3d</fix>
</trkpt>
<trkpt lat="40.072842" lon="-105.230575">
  <ele>1586.16</ele>
  <time>2026-08-27T18:31:18Z</time>
  <course>147.34</course>
  <speed>0.0</speed>
  <fix>3d</fix>
</trkpt>
<trkpt lat="40.0728419" lon="-105.2305749">
  <ele>1586.31</ele>
  <time>2026-08-27T18:31:18Z</time>
  <course>11.19</course>
  <speed>0.01414213562373095</speed>
  <fix>3d</fix>
</trkpt>
<trkpt lat="40.0728419" lon="-105.2305749">
  <ele>1586.44</ele>
  <time>2026-08-27T18:31:18Z</time>
  <course>11.24</course>
  <speed>0.01414213562373095</speed>
  <fix>3d</fix>
</trkpt>
<trkpt lat="40.072842" lon="-105.230575">
  <ele>1586.26</ele>
  <time>2026-08-27T18:31:18Z</time>
  <course>317.57</course>
  <speed>0.0</speed>
  <fix>3d</fix>
</trkpt>
<trkpt lat="40.0728419" lon="-105.2305749">
  <ele>1586.47</ele>
  <time>2026-08-27T18:31:18Z</time>
  <course>11.25</course>
  <speed>0.01414213562373095</speed>
  <fix>3d</fix>
</trkpt>
<trkpt lat="40.0728419" lon="-105.2305749">
  <ele>1586.59</ele>
  <time>2026-08-27T18:31:18Z</time>
  <course>11.31</course>
  <speed>0.01</speed>
  <fix>3d</fix>
</trkpt>
<trkpt lat="40.072842" lon="-105.230575">
  <ele>1586.4</ele>
  <time>2026-08-27T18:31:18Z</time>
  <course>315.39</course>
  <speed>0.0</speed>
  <fix>3d</fix>
</trkpt>
<trkpt lat="40.0728419" lon="-105.2305749">
  <ele>1586.59</ele>
  <time>2026-08-27T18:31:18Z</time>
  <course>11.31</course>
  <speed>0.01</speed>
  <fix>3d</fix>
</trkpt>
<trkpt lat="40.0728419" lon="-105.2305749">
  <ele>1586.68</ele>
  <time>2026-08-27T18:31:18Z</time>
  <course>11.36</course>
  <speed>0.0</speed>
  <fix>3d</fix>
</trkpt>
<trkpt lat="40.072842" lon="-105.230575">
  <ele>1586.54</ele>
  <time>2026-08-27T18:31:18Z</time>
  <course>313.97</course>
  <speed>0.01</speed>
  <fix>3d</fix>
</trkpt>
<trkpt lat="40.0728419" lon="-105.2305749">
  <ele>1586.7</ele>
  <time>2026-08-27T18:31:18Z</time>
  <course>11.37</course>
  <speed>0.0</speed>
  <fix>3d</fix>
</trkpt>
<trkpt lat="40.0728419" lon="-105.2305749">
  <ele>1586.77</ele>
  <time>2026-08-27T18:31:18Z</time>
  <course>11.39</course>
  <speed>0.0</speed>
  <fix>3d</fix>
</trkpt>
<trkpt lat="40.072842" lon="-105.230575">
  <ele>1586.64</ele>
  <time>2026-08-27T18:31:18Z</time>
  <course>313.4</course>
  <speed>0.01</speed>
  <fix>3d</fix>
</trkpt>
<trkpt lat="40.0728419" lon="-105.2305749">
  <ele>1586.79</ele>
  <time>2026-08-27T18:31:18Z</time>
  <course>11.39</course>
  <speed>0.0</speed>
  <fix>3d</fix>
</trkpt>
<trkpt lat="40.0728419" lon="-105.2305749">
  <ele>1586.88</ele>
  <time>2026-08-27T18:31:18Z</time>
  <course>11.4</course>
  <speed>0.0</speed>
  <fix>3d</fix>
</trkpt>
<trkpt lat="40.072842" lon="-105.230575">
  <ele>1586.72</ele>
  <time>2026-08-27T18:31:18Z</time>
  <course>312.71</course>
  <speed>0.02</speed>
  <fix>3d</fix>
</trkpt>
<trkpt lat="40.0728419" lon="-105.2305749">
  <ele>1586.89</ele>
  <time>2026-08-27T18:31:18Z</time>
  <course>11.4</course>
  <speed>0.0</speed>
  <fix>3d</fix>
</trkpt>
<trkpt lat="40.0728419" lon="-105.230575">
  <ele>1586.99</ele>
  <time>2026-08-27T18:31:18Z</time>
  <course>11.4</course>
  <speed>0.0</speed>
  <fix>3d</fix>
</trkpt>
<trkpt lat="40.072842" lon="-105.2305751">
  <ele>1586.82</ele>
  <time>2026-08-27T18:31:18Z</time>
  <course>312.18</course>
  <speed>0.02</speed>
  <fix>3d</fix>
</trkpt>
<trkpt lat="40.0728419" lon="-105.230575">
  <ele>1587.0</ele>
  <time>2026-08-27T18:31:18Z</time>
  <course>11.4</course>
  <speed>0.0</speed>
  <fix>3d</fix>
</trkpt>
<trkpt lat="40.072842" lon="-105.230575">
  <ele>1587.09</ele>
  <time>2026-08-27T18:31:18Z</time>
  <course>11.39</course>
  <speed>0.0</speed>
  <fix>3d</fix>
</trkpt>
<trkpt lat="40.072842" lon="-105.2305751">
  <ele>1586.92</ele>
  <time>2026-08-27T18:31:18Z</time>
  <course>312.08</course>
  <speed>0.03</speed>
  <fix>3d</fix>
</trkpt>
<trkpt lat="40.072842" lon="-105.230575">
  <ele>1587.11</ele>
  <time>2026-08-27T18:31:18Z</time>
  <course>11.39</course>
  <speed>0.0</speed>
  <fix>3d</fix>
</trkpt>
<trkpt lat="40.072842" lon="-105.2305751">
  <ele>1587.21</ele>
  <time>2026-08-27T18:31:18Z</time>
  <course>11.38</course>
  <speed>0.01414213562373095</speed>
  <fix>3d</fix>
</trkpt>
<trkpt lat="40.072842" lon="-105.2305751">
  <ele>1587.04</ele>
  <time>2026-08-27T18:31:18Z</time>
  <course>312.19</course>
  <speed>0.03</speed>
  <fix>3d</fix>
</trkpt>
<trkpt lat="40.072842" lon="-105.2305751">
  <ele>1587.21</ele>
  <time>2026-08-27T18:31:18Z</time>
  <course>11.38</course>
  <speed>0.01414213562373095</speed>
  <fix>3d</fix>
</trkpt>
<trkpt lat="40.072842" lon="-105.2305751">
  <ele>1587.33</ele>
  <time>2026-08-27T18:31:18Z</time>
  <course>11.38</course>
  <speed>0.01414213562373095</speed>
  <fix>3d</fix>
</trkpt>
<trkpt lat="40.0728421" lon="-105.2305752">
  <ele>1587.15</ele>
  <time>2026-08-27T18:31:18Z</time>
  <course>312.2</course>
  <speed>0.04</speed>
  <fix>3d</fix>
</trkpt>
<trkpt lat="40.072842" lon="-105.2305751">
  <ele>1587.34</ele>
  <time>2026-08-27T18:31:18Z</time>
  <course>11.38</course>
  <speed>0.01414213562373095</speed>
  <fix>3d</fix>
</trkpt>
<trkpt lat="40.0728421" lon="-105.2305752">
  <ele>1587.45</ele>
  <time>2026-08-27T18:31:18Z</time>
  <course>11.38</course>
  <speed>0.01414213562373095</speed>
  <fix>3d</fix>
</trkpt>
<trkpt lat="40.0728422" lon="-105.2305753">
  <ele>1587.27</ele>
  <time>2026-08-27T18:31:18Z</time>
  <course>312.14</course>
  <speed>0.04</speed>
  <fix>3d</fix>
</trkpt>
<trkpt lat="40.0728421" lon="-105.2305752">
  <ele>1587.47</ele>
  <time>2026-08-27T18:31:18Z</time>
  <course>11.38</course>
  <speed>0.01414213562373095</speed>
  <fix>3d</fix>
</trkpt>
<trkpt lat="40.0728421" lon="-105.2305753">
  <ele>1587.57</ele>
  <time>2026-08-27T18:31:18Z</time>
  <course>11.38</course>
  <speed>0.022360679774997897</speed>
  <fix>3d</fix>
</trkpt>
<trkpt lat="40.0728423" lon="-105.2305754">
  <ele>1587.38</ele>
  <time>2026-08-27T18:31:18Z</time>
  <course>312.04</course>
  <speed>0.05</speed>
  <fix>3d</fix>
</trkpt>
<trkpt lat="40.0728422" lon="-105.2305753">
  <ele>1587.59</ele>
  <time>2026-08-27T18:31:18Z</time>
  <course>11.38</course>
  <speed>0.022360679774997897</speed>
  <fix>3d</fix>
</trkpt>
<trkpt lat="40.0728422" lon="-105.2305754">
  <ele>1587.69</ele>
  <time>2026-08-27T18:31:18Z</time>
  <course>11.37</course>
  <speed>0.022360679774997897</speed>
  <fix>3d</fix>
</trkpt>
<trkpt lat="40.0728423" lon="-105.2305755">
  <ele>1587.51</ele>
  <time>2026-08-27T18:31:18Z</time>
  <course>311.89</course>
  <speed>0.05</speed>
  <fix>3d</fix>
</trkpt>
<trkpt lat="40.0728422" lon="-105.2305754">
  <ele>1587.7</ele>
  <time>2026-08-27T18:31:18Z</time>
  <course>11.37</course>
  <speed>0.022360679774997897</speed>
  <fix>3d</fix>
</trkpt>
<trkpt lat="40.0728423" lon="-105.2305755">
  <ele>1587.81</ele>
  <time>2026-08-27T18:31:18Z</time>
  <course>11.38</course>
  <speed>0.0282842712474619</speed>
  <fix>3d</fix>
</trkpt>
<trkpt lat="40.0728424" lon="-105.2305756">
  <ele>1587.62</ele>
  <time>2026-08-27T18:31:18Z</time>
  <course>311.94</course>
  <speed>0.05</speed>
  <fix>3d</fix>
</trkpt>
<trkpt lat="40.0728423" lon="-105.2305755">
  <ele>1587.83</ele>
  <time>2026-08-27T18:31:18Z</time>
  <course>11.38</course>
  <speed>0.0282842712474619</speed>
  <fix>3d</fix>
</trkpt>
<trkpt lat="40.0728423" lon="-105.2305756">
  <ele>1587.94</ele>
  <time>2026-08-27T18:31:18Z</time>
  <course>11.38</course>
  <speed>0.0282842712474619</speed>
  <fix>3d</fix>
</trkpt>
<trkpt lat="40.0728424" lon="-105.2305757">
  <ele>1587.75</ele>
  <time>2026-08-27T18:31:18Z</time>
  <course>312.12</course>
  <speed>0.05</speed>
  <fix>3d</fix>
</trkpt>
<trkpt lat="40.0728423" lon="-105.2305756">
  <ele>1587.94</ele>
  <time>2026-08-27T18:31:18Z</time>
  <course>11.38</course>
  <speed>0.0282842712474619</speed>
  <fix>3d</fix>
</trkpt>
<trkpt lat="40.0728424" lon="-105.2305757">
  <ele>1588.06</ele>
  <time>2026-08-27T18:31:18Z</time>
  <course>11.38</course>
  <speed>0.0282842712474619</speed>
  <fix>3d</fix>
</trkpt>
<trkpt lat="40.0728425" lon="-105.2305758">
  <ele>1587.87</ele>
  <time>2026-08-27T18:31:18Z</time>
  <course>312.28</course>
  <speed>0.06</speed>
  <fix>3d</fix>
</trkpt>
<trkpt lat="40.0728424" lon="-105.2305757">
  <ele>1588.07</ele>
  <time>2026-08-27T18:31:18Z</time>
  <course>11.38</course>
  <speed>0.0282842712474619</speed>
  <fix>3d</fix>
</trkpt>
<trkpt lat="40.0728425" lon="-105.2305758">
  <ele>1588.18</ele>
  <time>2026-08-27T18:31:18Z</time>
  <course>11.38</course>
  <speed>0.03605551275463989</speed>
  <fix>3d</fix>
</trkpt>
<trkpt lat="40.0728426" lon="-105.2305759">
  <ele>1588.0</ele>
  <time>2026-08-27T18:31:18Z</time>
  <course>312.49</course>
  <speed>0.06</speed>
  <fix>3d</fix>
</trkpt>
<trkpt lat="40.0728425" lon="-105.2305758">
  <ele>1588.19</ele>
  <time>2026-08-27T18:31:19Z</time>
  <course>11.38</course>
  <speed>0.03605551275463989</speed>
  <fix>3d</fix>
</trkpt>
<trkpt lat="40.0728425" lon="-105.2305759">
  <ele>1588.31</ele>
  <time>2026-08-27T18:31:19Z</time>
  <course>11.38</course>
  <speed>0.03605551275463989</speed>
  <fix>3d</fix>
</trkpt>
<trkpt lat="40.0728426" lon="-105.230576">
  <ele>1588.12</ele>
  <time>2026-08-27T18:31:19Z</time>
  <course>312.69</course>
  <speed>0.06</speed>
  <fix>3d</fix>
</trkpt>
<trkpt lat="40.0728425" lon="-105.2305759">
  <ele>1588.31</ele>
  <time>2026-08-27T18:31:19Z</time>
  <course>11.38</course>
  <speed>0.03605551275463989</speed>
  <fix>3d</fix>
</trkpt>
<trkpt lat="40.0728426" lon="-105.230576">
  <ele>1588.44</ele>
  <time>2026-08-27T18:31:19Z</time>
  <course>11.38</course>
  <speed>0.03605551275463989</speed>
  <fix>3d</fix>
</trkpt>
<trkpt lat="40.0728427" lon="-105.2305761">
  <ele>1588.25</ele>
  <time>2026-08-27T18:31:19Z</time>
  <course>312.61</course>
  <speed>0.06</speed>
  <fix>3d</fix>
</trkpt>
<trkpt lat="40.0728426" lon="-105.230576">
  <ele>1588.46</ele>
  <time>2026-08-27T18:31:19Z</time>
  <course>11.38</course>
  <speed>0.03605551275463989</speed>
  <fix>3d</fix>
</trkpt>
<trkpt lat="40.0728427" lon="-105.2305761">
  <ele>1588.57</ele>
  <time>2026-08-27T18:31:19Z</time>
  <course>11.38</course>
  <speed>0.03605551275463989</speed>
  <fix>3d</fix>
</trkpt>
<trkpt lat="40.0728428" lon="-105.2305762">
  <ele>1588.37</ele>
  <time>2026-08-27T18:31:19Z</time>
  <course>312.47</course>
  <speed>0.06</speed>
  <fix>3d</fix>
</trkpt>
<trkpt lat="40.0728427" lon="-105.2305761">
  <ele>1588.59</ele>
  <time>2026-08-27T18:31:19Z</time>
  <course>11.38</course>
  <speed>0.03605551275463989</speed>
  <fix>3d</fix>
</trkpt>
<trkpt lat="40.0728428" lon="-105.2305762">
  <ele>1588.7</ele>
  <time>2026-08-27T18:31:19Z</time>
  <course>11.38</course>
  <speed>0.03605551275463989</speed>
  <fix>3d</fix>
</trkpt>
<trkpt lat="40.0728429" lon="-105.2305763">
  <ele>1588.5</ele>
  <time>2026-08-27T18:31:19Z</time>
  <course>312.7</course>
  <speed>0.06</speed>
  <fix>3d</fix>
</trkpt>
<trkpt lat="40.0728428" lon="-105.2305762">
  <ele>1588.7</ele>
  <time>2026-08-27T18:31:19Z</time>
  <course>11.38</course>
  <speed>0.03605551275463989</speed>
  <fix>3d</fix>
</trkpt>
<trkpt lat="40.0728429" lon="-105.2305764">
  <ele>1588.82</ele>
  <time>2026-08-27T18:31:19Z</time>
  <course>10.04</course>
  <speed>0.03605551275463989</speed>
  <fix>3d</fix>
</trkpt>
<trkpt lat="40.072843" lon="-105.2305764">
  <ele>1588.62</ele>
  <time>2026-08-27T18:31:19Z</time>
  <course>313.05</course>
  <speed>0.07</speed>
  <fix>3d</fix>
</trkpt>
<trkpt lat="40.0728429" lon="-105.2305764">
  <ele>1588.84</ele>
  <time>2026-08-27T18:31:19Z</time>
  <course>10.04</course>
  <speed>0.03605551275463989</speed>
  <fix>3d</fix>
</trkpt>
<trkpt lat="40.0728429" lon="-105.2305765">
  <ele>1588.94</ele>
  <time>2026-08-27T18:31:19Z</time>
  <course>10.05</course>
  <speed>0.03605551275463989</speed>
  <fix>3d</fix>
</trkpt>
<trkpt lat="40.0728431" lon="-105.2305766">
  <ele>1588.74</ele>
  <time>2026-08-27T18:31:19Z</time>
  <course>313.35</course>
  <speed>0.07</speed>
  <fix>3d</fix>
</trkpt>
<trkpt lat="40.0728429" lon="-105.2305765">
  <ele>1588.95</ele>
  <time>2026-08-27T18:31:19Z</time>
  <course>10.05</course>
  <speed>0.03605551275463989</speed>
  <fix>3d</fix>
</trkpt>
<trkpt lat="40.072843" lon="-105.2305766">
  <ele>1589.06</ele>
  <time>2026-08-27T18:31:19Z</time>
  <course>10.05</course>
  <speed>0.03605551275463989</speed>
  <fix>3d</fix>
</trkpt>
<trkpt lat="40.0728432" lon="-105.2305767">
  <ele>1588.87</ele>
  <time>2026-08-27T18:31:19Z</time>
  <course>313.43</course>
  <speed>0.07</speed>
  <fix>3d</fix>
</trkpt>
<trkpt lat="40.072843" lon="-105.2305766">
  <ele>1589.08</ele>
  <time>2026-08-27T18:31:19Z</time>
  <course>10.05</course>
  <speed>0.03605551275463989</speed>
  <fix>3d</fix>
</trkpt>
<trkpt lat="40.0728431" lon="-105.2305767">
  <ele>1589.19</ele>
  <time>2026-08-27T18:31:19Z</time>
  <course>10.05</course>
  <speed>0.03605551275463989</speed>
  <fix>3d</fix>
</trkpt>
<trkpt lat="40.0728433" lon="-105.2305768">
  <ele>1588.99</ele>
  <time>2026-08-27T18:31:19Z</time>
  <course>313.52</course>
  <speed>0.07</speed>
  <fix>3d</fix>
</trkpt>
<trkpt lat="40.0728431" lon="-105.2305767">
  <ele>1589.2</ele>
  <time>2026-08-27T18:31:19Z</time>
  <course>10.05</course>
  <speed>0.03605551275463989</speed>
  <fix>3d</fix>
</trkpt>
<trkpt lat="40.0728432" lon="-105.2305768">
  <ele>1589.31</ele>
  <time>2026-08-27T18:31:19Z</time>
  <course>10.04</course>
  <speed>0.05</speed>
  <fix>3d</fix>
</trkpt>
<trkpt lat="40.0728433" lon="-105.2305769">
  <ele>1589.11</ele>
  <time>2026-08-27T18:31:19Z</time>
  <course>313.8</course>
  <speed>0.07</speed>
  <fix>3d</fix>
</trkpt>
<trkpt lat="40.0728432" lon="-105.2305769">
  <ele>1589.33</ele>
  <time>2026-08-27T18:31:19Z</time>
  <course>10.04</course>
  <speed>0.05</speed>
  <fix>3d</fix>
</trkpt>
<trkpt lat="40.0728433" lon="-105.230577">
  <ele>1589.44</ele>
  <time>2026-08-27T18:31:19Z</time>
  <course>10.04</course>
  <speed>0.05</speed>
  <fix>3d</fix>
</trkpt>
<trkpt lat="40.0728434" lon="-105.2305771">
  <ele>1589.23</ele>
  <time>2026-08-27T18:31:19Z</time>
  <course>314.12</course>
  <speed>0.07</speed>
  <fix>3d</fix>
</trkpt>
<trkpt lat="40.0728433" lon="-105.230577">
  <ele>1589.45</ele>
  <time>2026-08-27T18:31:19Z</time>
  <course>10.04</course>
  <speed>0.05</speed>
  <fix>3d</fix>
</trkpt>
<trkpt lat="40.0728434" lon="-105.2305771">
  <ele>1589.56</ele>
  <time>2026-08-27T18:31:19Z</time>
  <course>10.04</course>
  <speed>0.05</speed>
  <fix>3d</fix>
</trkpt>
<trkpt lat="40.0728435" lon="-105.2305772">
  <ele>1589.36</ele>
  <time>2026-08-27T18:31:19Z</time>
  <course>314.44</course>
  <speed>0.07</speed>
  <fix>3d</fix>
</trkpt>
<trkpt lat="40.0728434" lon="-105.2305771">
  <ele>1589.58</ele>
  <time>2026-08-27T18:31:19Z</time>
  <course>10.04</course>
  <speed>0.05</speed>
  <fix>3d</fix>
</trkpt>
<trkpt lat="40.0728435" lon="-105.2305772">
  <ele>1589.69</ele>
  <time>2026-08-27T18:31:19Z</time>
  <course>10.04</course>
  <speed>0.05</speed>
  <fix>3d</fix>
</trkpt>
<trkpt lat="40.0728436" lon="-105.2305773">
  <ele>1589.48</ele>
  <time>2026-08-27T18:31:19Z</time>
  <course>314.47</course>
  <speed>0.07</speed>
  <fix>3d</fix>
</trkpt>
<trkpt lat="40.0728435" lon="-105.2305772">
  <ele>1589.7</ele>
  <time>2026-08-27T18:31:19Z</time>
  <course>10.04</course>
  <speed>0.05</speed>
  <fix>3d</fix>
</trkpt>
<trkpt lat="40.0728436" lon="-105.2305774">
  <ele>1589.81</ele>
  <time>2026-08-27T18:31:19Z</time>
  <course>10.04</course>
  <speed>0.05</speed>
  <fix>3d</fix>
</trkpt>
<trkpt lat="40.0728437" lon="-105.2305775">
  <ele>1589.61</ele>
  <time>2026-08-27T18:31:19Z</time>
  <course>314.38</course>
  <speed>0.07</speed>
  <fix>3d</fix>
</trkpt>
<trkpt lat="40.0728436" lon="-105.2305774">
  <ele>1589.83</ele>
  <time>2026-08-27T18:31:19Z</time>
  <course>10.04</course>
  <speed>0.05</speed>
  <fix>3d</fix>
</trkpt>
<trkpt lat="40.0728437" lon="-105.2305775">
  <ele>1589.93</ele>
  <time>2026-08-27T18:31:19Z</time>
  <course>10.04</course>
  <speed>0.05</speed>
  <fix>3d</fix>
</trkpt>
<trkpt lat="40.0728438" lon="-105.2305776">
  <ele>1589.73</ele>
  <time>2026-08-27T18:31:19Z</time>
  <course>314.5</course>
  <speed>0.07</speed>
  <fix>3d</fix>
</trkpt>
<trkpt lat="40.0728437" lon="-105.2305775">
  <ele>1589.95</ele>
  <time>2026-08-27T18:31:19Z</time>
  <course>10.04</course>
  <speed>0.05</speed>
  <fix>3d</fix>
</trkpt>
<trkpt lat="40.0728438" lon="-105.2305776">
  <ele>1590.06</ele>
  <time>2026-08-27T18:31:19Z</time>
  <course>10.04</course>
  <speed>0.0565685424949238</speed>
  <fix>3d</fix>
</trkpt>
<trkpt lat="40.0728439" lon="-105.2305777">
  <ele>1589.86</ele>
  <time>2026-08-27T18:31:19Z</time>
  <course>314.65</course>
  <speed>0.07</speed>
  <fix>3d</fix>
</trkpt>
<trkpt lat="40.0728438" lon="-105.2305777">
  <ele>1590.07</ele>
  <time>2026-08-27T18:31:19Z</time>
  <course>10.04</course>
  <speed>0.0565685424949238</speed>
  <fix>3d</fix>
</trkpt>
<trkpt lat="40.0728439" lon="-105.2305778">
  <ele>1590.18</ele>
  <time>2026-08-27T18:31:19Z</time>
  <course>10.04</course>
  <speed>0.0565685424949238</speed>
  <fix>3d</fix>
</trkpt>
<trkpt lat="40.072844" lon="-105.2305778">
  <ele>1589.98</ele>
  <time>2026-08-27T18:31:19Z</time>
  <course>314.81</course>
  <speed>0.07</speed>
  <fix>3d</fix>
</trkpt>
<trkpt lat="40.0728439" lon="-105.2305778">
  <ele>1590.18</ele>
  <time>2026-08-27T18:31:19Z</time>
  <course>10.04</course>
  <speed>0.0565685424949238</speed>
  <fix>3d</fix>
</trkpt>
<trkpt lat="40.072844" lon="-105.2305779">
  <ele>1590.31</ele>
  <time>2026-08-27T18:31:19Z</time>
  <course>10.04</course>
  <speed>0.06403124237432849</speed>
  <fix>3d</fix>
</trkpt>
<trkpt lat="40.0728441" lon="-105.230578">
  <ele>1590.11</ele>
  <time>2026-08-27T18:31:19Z</time>
  <course>314.87</course>
  <speed>0.07</speed>
  <fix>3d</fix>
</trkpt>
<trkpt lat="40.072844" lon="-105.2305779">
  <ele>1590.33</ele>
  <time>2026-08-27T18:31:19Z</time>
  <course>10.04</course>
  <speed>0.06403124237432849</speed>
  <fix>3d</fix>
</trkpt>
<trkpt lat="40.0728441" lon="-105.2305781">
  <ele>1590.44</ele>
  <time>2026-08-27T18:31:19Z</time>
  <course>10.05</course>
  <speed>0.06403124237432849</speed>
  <fix>3d</fix>
</trkpt>
<trkpt lat="40.0728442" lon="-105.2305781">
  <ele>1590.24</ele>
  <time>2026-08-27T18:31:19Z</time>
  <course>315.21</course>
  <speed>0.07</speed>
  <fix>3d</fix>
</trkpt>
<trkpt lat="40.0728441" lon="-105.2305781">
  <ele>1590.46</ele>
  <time>2026-08-27T18:31:19Z</time>
  <course>10.05</course>
  <speed>0.06403124237432849</speed>
  <fix>3d</fix>
</trkpt>
<trkpt lat="40.0728442" lon="-105.2305782">
  <ele>1590.57</ele>
  <time>2026-08-27T18:31:19Z</time>
  <course>10.05</course>
  <speed>0.0565685424949238</speed>
  <fix>3d</fix>
</trkpt>
<trkpt lat="40.0728443" lon="-105.2305782">
  <ele>1590.36</ele>
  <time>2026-08-27T18:31:19Z</time>
  <course>316.07</course>
  <speed>0.07</speed>
  <fix>3d</fix>
</trkpt>
<trkpt lat="40.0728442" lon="-105.2305782">
  <ele>1590.58</ele>
  <time>2026-08-27T18:31:19Z</time>
  <course>10.05</course>
  <speed>0.0565685424949238</speed>
  <fix>3d</fix>
</trkpt>
<trkpt lat="40.0728443" lon="-105.2305783">
  <ele>1590.69</ele>
  <time>2026-08-27T18:31:19Z</time>
  <course>10.05</course>
  <speed>0.06403124237432849</speed>
  <fix>3d</fix>
</trkpt>
<trkpt lat="40.0728444" lon="-105.2305783">
  <ele>1590.49</ele>
  <time>2026-08-27T18:31:19Z</time>
  <course>316.56</course>
  <speed>0.07</speed>
  <fix>3d</fix>
</trkpt>
<trkpt lat="40.0728443" lon="-105.2305783">
  <ele>1590.71</ele>
  <time>2026-08-27T18:31:19Z</time>
  <course>10.05</course>
  <speed>0.06403124237432849</speed>
  <fix>3d</fix>
</trkpt>
<trkpt lat="40.0728444" lon="-105.2305784">
  <ele>1590.82</ele>
  <time>2026-08-27T18:31:19Z</time>
  <course>10.04</course>
  <speed>0.06403124237432849</speed>
  <fix>3d</fix>
</trkpt>
<trkpt lat="40.0728445" lon="-105.2305785">
  <ele>1590.62</ele>
  <time>2026-08-27T18:31:19Z</time>
  <course>316.5</course>
  <speed>0.07</speed>
  <fix>3d</fix>
</trkpt>
<trkpt lat="40.0728445" lon="-105.2305785">
  <ele>1590.84</ele>
  <time>2026-08-27T18:31:19Z</time>
  <course>10.04</course>
  <speed>0.06403124237432849</speed>
  <fix>3d</fix>
</trkpt>
<trkpt lat="40.0728445" lon="-105.2305786">
  <ele>1590.95</ele>
  <time>2026-08-27T18:31:19Z</time>
  <course>10.04</course>
  <speed>0.06403124237432849</speed>
  <fix>3d</fix>
</trkpt>
<trkpt lat="40.0728446" lon="-105.2305786">
  <ele>1590.74</ele>
  <time>2026-08-27T18:31:19Z</time>
  <course>316.4</course>
  <speed>0.07</speed>
  <fix>3d</fix>
</trkpt>
<trkpt lat="40.0728445" lon="-105.2305786">
  <ele>1590.95</ele>
  <time>2026-08-27T18:31:19Z</time>
  <course>10.04</course>
  <speed>0.06403124237432849</speed>
  <fix>3d</fix>
</trkpt>
<trkpt lat="40.0728446" lon="-105.2305787">
  <ele>1591.07</ele>
  <time>2026-08-27T18:31:19Z</time>
  <course>10.04</course>
  <speed>0.06403124237432849</speed>
  <fix>3d</fix>
</trkpt>
<trkpt lat="40.0728447" lon="-105.2305787">
  <ele>1590.87</ele>
  <time>2026-08-27T18:31:19Z</time>
  <course>316.52</course>
  <speed>0.07</speed>
  <fix>3d</fix>
</trkpt>
<trkpt lat="40.0728447" lon="-105.2305787">
  <ele>1591.09</ele>
  <time>2026-08-27T18:31:19Z</time>
  <course>10.04</course>
  <speed>0.0565685424949238</speed>
  <fix>3d</fix>
</trkpt>
<trkpt lat="40.0728448" lon="-105.2305788">
  <ele>1591.19</ele>
  <time>2026-08-27T18:31:19Z</time>
  <course>10.04</course>
  <speed>0.0565685424949238</speed>
  <fix>3d</fix>
</trkpt>
<trkpt lat="40.0728448" lon="-105.2305788">
  <ele>1590.99</ele>
  <time>2026-08-27T18:31:19Z</time>
  <course>317.32</course>
  <speed>0.07</speed>
  <fix>3d</fix>
</trkpt>
<trkpt lat="40.0728448" lon="-105.2305788">
  <ele>1591.22</ele>
  <time>2026-08-27T18:31:19Z</time>
  <course>10.04</course>
  <speed>0.0565685424949238</speed>
  <fix>3d</fix>
</trkpt>
<trkpt lat="40.0728449" lon="-105.2305789">
  <ele>1591.32</ele>
  <time>2026-08-27T18:31:19Z</time>
  <course>10.05</course>
  <speed>0.0565685424949238</speed>
  <fix>3d</fix>
</trkpt>
<trkpt lat="40.0728449" lon="-105.230579">
  <ele>1591.12</ele>
  <time>2026-08-27T18:31:19Z</time>
  <course>317.89</course>
  <speed>0.07</speed>
  <fix>3d</fix>
</trkpt>
<trkpt lat="40.0728449" lon="-105.230579">
  <ele>1591.34</ele>
  <time>2026-08-27T18:31:19Z</time>
  <course>10.05</course>
  <speed>0.0565685424949238</speed>
  <fix>3d</fix>
</trkpt>
<trkpt lat="40.072845" lon="-105.2305791">
  <ele>1591.45</ele>
  <time>2026-08-27T18:31:19Z</time>
  <course>10.06</course>
  <speed>0.07071067811865475</speed>
  <fix>3d</fix>
</trkpt>
<trkpt lat="40.072845" lon="-105.2305791">
  <ele>1591.24</ele>
  <time>2026-08-27T18:31:19Z</time>
  <course>317.17</course>
  <speed>0.07</speed>
  <fix>3d</fix>
</trkpt>
<trkpt lat="40.072845" lon="-105.2305791">
  <ele>1591.47</ele>
  <time>2026-08-27T18:31:19Z</time>
  <course>10.06</course>
  <speed>0.07071067811865475</speed>
  <fix>3d</fix>
</trkpt>
<trkpt lat="40.0728451" lon="-105.2305792">
  <ele>1591.57</ele>
  <time>2026-08-27T18:31:19Z</time>
  <course>10.06</course>
  <speed>0.07071067811865475</speed>
  <fix>3d</fix>
</trkpt>
<trkpt lat="40.0728451" lon="-105.2305792">
  <ele>1591.36</ele>
  <time>2026-08-27T18:31:19Z</time>
  <course>316.61</course>
  <speed>0.08</speed>
  <fix>3d</fix>
</trkpt>
<trkpt lat="40.0728451" lon="-105.2305792">
  <ele>1591.59</ele>
  <time>2026-08-27T18:31:19Z</time>
  <course>10.06</course>
  <speed>0.07071067811865475</speed>
  <fix>3d</fix>
</trkpt>
<trkpt lat="40.0728452" lon="-105.2305793">
  <ele>1591.7</ele>
  <time>2026-08-27T18:31:19Z</time>
  <course>10.07</course>
  <speed>0.07071067811865475</speed>
  <fix>3d</fix>
</trkpt>
<trkpt lat="40.0728452" lon="-105.2305794">
  <ele>1591.49</ele>
  <time>2026-08-27T18:31:19Z</time>
  <course>317.13</course>
  <speed>0.08</speed>
  <fix>3d</fix>
</trkpt>
<trkpt lat="40.0728452" lon="-105.2305793">
  <ele>1591.7</ele>
  <time>2026-08-27T18:31:19Z</time>
  <course>10.07</course>
  <speed>0.07071067811865475</speed>
  <fix>3d</fix>
</trkpt>
<trkpt lat="40.0728453" lon="-105.2305795">
  <ele>1591.83</ele>
  <time>2026-08-27T18:31:19Z</time>
  <course>10.08</course>
  <speed>0.07071067811865475</speed>
  <fix>3d</fix>
</trkpt>
<trkpt lat="40.0728453" lon="-105.2305795">
  <ele>1591.61</ele>
  <time>2026-08-27T18:31:19Z</time>
  <course>317.69</course>
  <speed>0.08</speed>
  <fix>3d</fix>
</trkpt>
<trkpt lat="40.0728453" lon="-105.2305795">
  <ele>1591.85</ele>
  <time>2026-08-27T18:31:19Z</time>
  <course>10.08</course>
  <speed>0.07071067811865475</speed>
  <fix>3d</fix>
</trkpt>
<trkpt lat="40.0728454" lon="-105.2305796">
  <ele>1591.95</ele>
  <time>2026-08-27T18:31:19Z</time>
  <course>10.07</course>
  <speed>0.07071067811865475</speed>
  <fix>3d</fix>
</trkpt>
<trkpt lat="40.0728454" lon="-105.2305796">
  <ele>1591.74</ele>
  <time>2026-08-27T18:31:19Z</time>
  <course>317.7</course>
  <speed>0.08</speed>
  <fix>3d</fix>
</trkpt>
<trkpt lat="40.0728454" lon="-105.2305796">
  <ele>1591.97</ele>
  <time>2026-08-27T18:31:19Z</time>
  <course>10.07</course>
  <speed>0.07071067811865475</speed>
  <fix>3d</fix>
</trkpt>
<trkpt lat="40.0728455" lon="-105.2305797">
  <ele>1592.08</ele>
  <time>2026-08-27T18:31:19Z</time>
  <course>10.07</course>
  <speed>0.06403124237432849</speed>
  <fix>3d</fix>
</trkpt>
<trkpt lat="40.0728455" lon="-105.2305797">
  <ele>1591.86</ele>
  <time>2026-08-27T18:31:19Z</time>
  <course>317.57</course>
  <speed>0.08</speed>
  <fix>3d</fix>
</trkpt>
<trkpt lat="40.0728455" lon="-105.2305797">
  <ele>1592.08</ele>
  <time>2026-08-27T18:31:19Z</time>
  <course>10.07</course>
  <speed>0.06403124237432849</speed>
  <fix>3d</fix>
</trkpt>
<trkpt lat="40.0728456" lon="-105.2305798">
  <ele>1592.2</ele>
  <time>2026-08-27T18:31:19Z</time>
  <course>10.06</course>
  <speed>0.06403124237432849</speed>
  <fix>3d</fix>
</trkpt>
<trkpt lat="40.0728457" lon="-105.2305799">
  <ele>1591.98</ele>
  <time>2026-08-27T18:31:19Z</time>
  <course>317.59</course>
  <speed>0.08</speed>
  <fix>3d</fix>
</trkpt>
<trkpt lat="40.0728456" lon="-105.2305799">
  <ele>1592.22</ele>
  <time>2026-08-27T18:31:19Z</time>
  <course>10.06</course>
  <speed>0.07071067811865475</speed>
  <fix>3d</fix>
</trkpt>
<trkpt lat="40.0728457" lon="-105.23058">
  <ele>1592.32</ele>
  <time>2026-08-27T18:31:19Z</time>
  <course>10.04</course>
  <speed>0.07071067811865475</speed>
  <fix>3d</fix>
</trkpt>
<trkpt lat="40.0728458" lon="-105.23058">
  <ele>1592.11</ele>
  <time>2026-08-27T18:31:19Z</time>
  <course>317.44</course>
  <speed>0.08</speed>
  <fix>3d</fix>
</trkpt>
<trkpt lat="40.0728457" lon="-105.23058">
  <ele>1592.34</ele>
  <time>2026-08-27T18:31:19Z</time>
  <course>10.04</course>
  <speed>0.07071067811865475</speed>
  <fix>3d</fix>
</trkpt>
<trkpt lat="40.0728458" lon="-105.2305801">
  <ele>1592.44</ele>
  <time>2026-08-27T18:31:19Z</time>
  <course>10.03</course>
  <speed>0.07071067811865475</speed>
  <fix>3d</fix>
</trkpt>
<trkpt lat="40.0728459" lon="-105.2305801">
  <ele>1592.23</ele>
  <time>2026-08-27T18:31:19Z</time>
  <course>317.11</course>
  <speed>0.08</speed>
  <fix>3d</fix>
</trkpt>
<trkpt lat="40.0728458" lon="-105.2305801">
  <ele>1592.44</ele>
  <time>2026-08-27T18:31:19Z</time>
  <course>10.03</course>
  <speed>0.07071067811865475</speed>
  <fix>3d</fix>
</trkpt>
<trkpt lat="40.0728459" lon="-105.2305802">
  <ele>1592.57</ele>
  <time>2026-08-27T18:31:19Z</time>
  <course>10.03</course>
  <speed>0.07071067811865475</speed>
  <fix>3d</fix>
</trkpt>
<trkpt lat="40.072846" lon="-105.2305802">
  <ele>1592.36</ele>
  <time>2026-08-27T18:31:19Z</time>
  <course>316.78</course>
  <speed>0.08</speed>
  <fix>3d</fix>
</trkpt>
<trkpt lat="40.072846" lon="-105.2305803">
  <ele>1592.59</ele>
  <time>2026-08-27T18:31:19Z</time>
  <course>10.03</course>
  <speed>0.07071067811865475</speed>
  <fix>3d</fix>
</trkpt>
<trkpt lat="40.0728461" lon="-105.2305804">
  <ele>1592.7</ele>
  <time>2026-08-27T18:31:19Z</time>
  <course>10.03</course>
  <speed>0.07071067811865475</speed>
  <fix>3d</fix>
</trkpt>
<trkpt lat="40.0728461" lon="-105.2305804">
  <ele>1592.48</ele>
  <time>2026-08-27T18:31:19Z</time>
  <course>316.48</course>
  <speed>0.08</speed>
  <fix>3d</fix>
</trkpt>
<trkpt lat="40.0728461" lon="-105.2305804">
  <ele>1592.7</ele>
  <time>2026-08-27T18:31:19Z</time>
  <course>10.03</course>
  <speed>0.07071067811865475</speed>
  <fix>3d</fix>
</trkpt>
<trkpt lat="40.0728462" lon="-105.2305805">
  <ele>1592.83</ele>
  <time>2026-08-27T18:31:19Z</time>
  <course>10.03</course>
  <speed>0.07071067811865475</speed>
  <fix>3d</fix>
</trkpt>
<trkpt lat="40.0728462" lon="-105.2305806">
  <ele>1592.61</ele>
  <time>2026-08-27T18:31:19Z</time>
  <course>316.26</course>
  <speed>0.09</speed>
  <fix>3d</fix>
</trkpt>
<trkpt lat="40.0728462" lon="-105.2305805">
  <ele>1592.84</ele>
  <time>2026-08-27T18:31:19Z</time>
  <course>10.03</course>
  <speed>0.07071067811865475</speed>
  <fix>3d</fix>
</trkpt>
<trkpt lat="40.0728463" lon="-105.2305807">
  <ele>1592.95</ele>
  <time>2026-08-27T18:31:19Z</time>
  <course>10.04</course>
  <speed>0.07071067811865475</speed>
  <fix>3d</fix>
</trkpt>
<trkpt lat="40.0728463" lon="-105.2305807">
  <ele>1592.73</ele>
  <time>2026-08-27T18:31:19Z</time>
  <course>316.38</course>
  <speed>0.09</speed>
  <fix>3d</fix>
</trkpt>
<trkpt lat="40.0728463" lon="-105.2305807">
  <ele>1592.97</ele>
  <time>2026-08-27T18:31:19Z</time>
  <course>10.04</course>
  <speed>0.07071067811865475</speed>
  <fix>3d</fix>
</trkpt>
<trkpt lat="40.0728464" lon="-105.2305808">
  <ele>1593.08</ele>
  <time>2026-08-27T18:31:19Z</time>
  <course>10.04</course>
  <speed>0.07071067811865475</speed>
  <fix>3d</fix>
</trkpt>
<trkpt lat="40.0728465" lon="-105.2305809">
  <ele>1592.86</ele>
  <time>2026-08-27T18:31:19Z</time>
  <course>316.51</course>
  <speed>0.09</speed>
  <fix>3d</fix>
</trkpt>
<trkpt lat="40.0728464" lon="-105.2305808">
  <ele>1593.1</ele>
  <time>2026-08-27T18:31:19Z</time>
  <course>10.04</course>
  <speed>0.07071067811865475</speed>
  <fix>3d</fix>
</trkpt>
<trkpt lat="40.0728465" lon="-105.230581">
  <ele>1593.21</ele>
  <time>2026-08-27T18:31:19Z</time>
  <course>10.04</course>
  <speed>0.07071067811865475</speed>
  <fix>3d</fix>
</trkpt>
<trkpt lat="40.0728466" lon="-105.230581">
  <ele>1592.99</ele>
  <time>2026-08-27T18:31:19Z</time>
  <course>316.34</course>
  <speed>0.09</speed>
  <fix>3d</fix>
</trkpt>
<trkpt lat="40.0728465" lon="-105.230581">
  <ele>1593.22</ele>
  <time>2026-08-27T18:31:19Z</time>
  <course>10.04</course>
  <speed>0.07071067811865475</speed>
  <fix>3d</fix>
</trkpt>
<trkpt lat="40.0728466" lon="-105.2305811">
  <ele>1593.33</ele>
  <time>2026-08-27T18:31:19Z</time>
  <course>10.04</course>
  <speed>0.07071067811865475</speed>
  <fix>3d</fix>
</trkpt>
<trkpt lat="40.0728467" lon="-105.2305811">
  <ele>1593.11</ele>
  <time>2026-08-27T18:31:19Z</time>
  <course>316.19</course>
  <speed>0.09</speed>
  <fix>3d</fix>
</trkpt>
<trkpt lat="40.0728466" lon="-105.2305811">
  <ele>1593.33</ele>
  <time>2026-08-27T18:31:19Z</time>
  <course>10.04</course>
  <speed>0.07071067811865475</speed>
  <fix>3d</fix>
</trkpt>
<trkpt lat="40.0728468" lon="-105.2305813">
  <ele>1593.45</ele>
  <time>2026-08-27T18:31:19Z</time>
  <course>10.04</course>
  <speed>0.07071067811865475</speed>
  <fix>3d</fix>
</trkpt>
<trkpt lat="40.0728469" lon="-105.2305814">
  <ele>1593.24</ele>
  <time>2026-08-27T18:31:19Z</time>
  <course>315.85</course>
  <speed>0.09</speed>
  <fix>3d</fix>
</trkpt>
<trkpt lat="40.0728468" lon="-105.2305813">
  <ele>1593.45</ele>
  <time>2026-08-27T18:31:19Z</time>
  <course>10.04</course>
  <speed>0.07071067811865475</speed>
  <fix>3d</fix>
</trkpt>
<trkpt lat="40.0728469" lon="-105.2305814">
  <ele>1593.57</ele>
  <time>2026-08-27T18:31:19Z</time>
  <course>10.04</course>
  <speed>0.07071067811865475</speed>
  <fix>3d</fix>
</trkpt>
<trkpt lat="40.072847" lon="-105.2305815">
  <ele>1593.36</ele>
  <time>2026-08-27T18:31:19Z</time>
  <course>315.32</course>
  <speed>0.1</speed>
  <fix>3d</fix>
</trkpt>
<trkpt lat="40.0728469" lon="-105.2305814">
  <ele>1593.58</ele>
  <time>2026-08-27T18:31:19Z</time>
  <course>10.04</course>
  <speed>0.07071067811865475</speed>
  <fix>3d</fix>
</trkpt>
<trkpt lat="40.072847" lon="-105.2305816">
  <ele>1593.7</ele>
  <time>2026-08-27T18:31:19Z</time>
  <course>10.03</course>
  <speed>0.07071067811865475</speed>
  <fix>3d</fix>
</trkpt>
<trkpt lat="40.0728471" lon="-105.2305816">
  <ele>1593.48</ele>
  <time>2026-08-27T18:31:19Z</time>
  <course>315.08</course>
  <speed>0.1</speed>
  <fix>3d</fix>
</trkpt>
<trkpt lat="40.072847" lon="-105.2305816">
  <ele>1593.72</ele>
  <time>2026-08-27T18:31:19Z</time>
  <course>10.03</course>
  <speed>0.07071067811865475</speed>
  <fix>3d</fix>
</trkpt>
<trkpt lat="40.0728472" lon="-105.2305818">
  <ele>1593.83</ele>
  <time>2026-08-27T18:31:19Z</time>
  <course>10.03</course>
  <speed>0.07071067811865475</speed>
  <fix>3d</fix>
</trkpt>
<trkpt lat="40.0728472" lon="-105.2305819">
  <ele>1593.61</ele>
  <time>2026-08-27T18:31:19Z</time>
  <course>315.07</course>
  <speed>0.1</speed>
  <fix>3d</fix>
</trkpt>
<trkpt lat="40.0728472" lon="-105.2305818">
  <ele>1593.85</ele>
  <time>2026-08-27T18:31:19Z</time>
  <course>10.03</course>
  <speed>0.07071067811865475</speed>
  <fix>3d</fix>
</trkpt>
<trkpt lat="40.0728473" lon="-105.2305819">
  <ele>1593.95</ele>
  <time>2026-08-27T18:31:19Z</time>
  <course>10.03</course>
  <speed>0.07071067811865475</speed>
  <fix>3d</fix>
</trkpt>
<trkpt lat="40.0728474" lon="-105.230582">
  <ele>1593.74</ele>
  <time>2026-08-27T18:31:19Z</time>
  <course>315.14</course>
  <speed>0.1</speed>
  <fix>3d</fix>
</trkpt>
<trkpt lat="40.0728473" lon="-105.2305819">
  <ele>1593.96</ele>
  <time>2026-08-27T18:31:19Z</time>
  <course>10.03</course>
  <speed>0.07810249675906654</speed>
  <fix>3d</fix>
</trkpt>
<trkpt lat="40.0728474" lon="-105.2305821">
  <ele>1594.08</ele>
  <time>2026-08-27T18:31:19Z</time>
  <course>10.03</course>
  <speed>0.07810249675906654</speed>
  <fix>3d</fix>
</trkpt>
<trkpt lat="40.0728475" lon="-105.2305821">
  <ele>1593.86</ele>
  <time>2026-08-27T18:31:19Z</time>
  <course>315.23</course>
  <speed>0.1</speed>
  <fix>3d</fix>
</trkpt>
<trkpt lat="40.0728474" lon="-105.2305821">
  <ele>1594.1</ele>
  <time>2026-08-27T18:31:19Z</time>
  <course>10.03</course>
  <speed>0.07810249675906654</speed>
  <fix>3d</fix>
</trkpt>
<trkpt lat="40.0728475" lon="-105.2305823">
  <ele>1594.2</ele>
  <time>2026-08-27T18:31:19Z</time>
  <course>10.03</course>
  <speed>0.07810249675906654</speed>
  <fix>3d</fix>
</trkpt>
<trkpt lat="40.0728476" lon="-105.2305824">
  <ele>1593.99</ele>
  <time>2026-08-27T18:31:19Z</time>
  <course>315.22</course>
  <speed>0.1</speed>
  <fix>3d</fix>
</trkpt>
<trkpt lat="40.0728476" lon="-105.2305823">
  <ele>1594.22</ele>
  <time>2026-08-27T18:31:19Z</time>
  <course>10.03</course>
  <speed>0.07810249675906654</speed>
  <fix>3d</fix>
</trkpt>
<trkpt lat="40.0728477" lon="-105.2305825">
  <ele>1594.33</ele>
  <time>2026-08-27T18:31:19Z</time>
  <course>10.03</course>
  <speed>0.07810249675906654</speed>
  <fix>3d</fix>
</trkpt>
<trkpt lat="40.0728478" lon="-105.2305825">
  <ele>1594.11</ele>
  <time>2026-08-27T18:31:19Z</time>
  <course>315.21</course>
  <speed>0.11</speed>
  <fix>3d</fix>
</trkpt>
<trkpt lat="40.0728477" lon="-105.2305825">
  <ele>1594.35</ele>
  <time>2026-08-27T18:31:19Z</time>
  <course>10.03</course>
  <speed>0.07810249675906654</speed>
  <fix>3d</fix>
</trkpt>
<trkpt lat="40.0728478" lon="-105.2305826">
  <ele>1594.46</ele>
  <time>2026-08-27T18:31:19Z</time>
  <course>10.03</course>
  <speed>0.07810249675906654</speed>
  <fix>3d</fix>
</trkpt>
<trkpt lat="40.0728479" lon="-105.2305828">
  <ele>1594.24</ele>
  <time>2026-08-27T18:31:19Z</time>
  <course>315.11</course>
  <speed>0.11</speed>
  <fix>3d</fix>
</trkpt>
<trkpt lat="40.0728478" lon="-105.2305827">
  <ele>1594.48</ele>
  <time>2026-08-27T18:31:19Z</time>
  <course>10.03</course>
  <speed>0.07810249675906654</speed>
  <fix>3d</fix>
</trkpt>
<trkpt lat="40.072848" lon="-105.2305828">
  <ele>1594.58</ele>
  <time>2026-08-27T18:31:19Z</time>
  <course>10.04</course>
  <speed>0.07810249675906654</speed>
  <fix>3d</fix>
</trkpt>
<trkpt lat="40.0728481" lon="-105.230583">
  <ele>1594.37</ele>
  <time>2026-08-27T18:31:19Z</time>
  <course>314.98</course>
  <speed>0.11</speed>
  <fix>3d</fix>
</trkpt>
<trkpt lat="40.072848" lon="-105.2305829">
  <ele>1594.6</ele>
  <time>2026-08-27T18:31:19Z</time>
  <course>10.04</course>
  <speed>0.07810249675906654</speed>
  <fix>3d</fix>
</trkpt>
<trkpt lat="40.0728481" lon="-105.230583">
  <ele>1594.71</ele>
  <time>2026-08-27T18:31:19Z</time>
  <course>10.04</course>
  <speed>0.07810249675906654</speed>
  <fix>3d</fix>
</trkpt>
<trkpt lat="40.0728482" lon="-105.2305831">
  <ele>1594.49</ele>
  <time>2026-08-27T18:31:19Z</time>
  <course>315.21</course>
  <speed>0.11</speed>
  <fix>3d</fix>
</trkpt>
<trkpt lat="40.0728481" lon="-105.230583">
  <ele>1594.71</ele>
  <time>2026-08-27T18:31:19Z</time>
  <course>10.04</course>
  <speed>0.07810249675906654</speed>
  <fix>3d</fix>
</trkpt>
<trkpt lat="40.0728483" lon="-105.2305832">
  <ele>1594.84</ele>
  <time>2026-08-27T18:31:19Z</time>
  <course>10.05</course>
  <speed>0.07810249675906654</speed>
  <fix>3d</fix>
</trkpt>
<trkpt lat="40.0728484" lon="-105.2305833">
  <ele>1594.62</ele>
  <time>2026-08-27T18:31:19Z</time>
  <course>315.45</course>
  <speed>0.11</speed>
  <fix>3d</fix>
</trkpt>
<trkpt lat="40.0728483" lon="-105.2305832">
  <ele>1594.85</ele>
  <time>2026-08-27T18:31:19Z</time>
  <course>10.05</course>
  <speed>0.07810249675906654</speed>
  <fix>3d</fix>
</trkpt>
<trkpt lat="40.0728484" lon="-105.2305834">
  <ele>1594.97</ele>
  <time>2026-08-27T18:31:19Z</time>
  <course>10.05</course>
  <speed>0.07810249675906654</speed>
  <fix>3d</fix>
</trkpt>
<trkpt lat="40.0728485" lon="-105.2305835">
  <ele>1594.74</ele>
  <time>2026-08-27T18:31:19Z</time>
  <course>315.1</course>
  <speed>0.11</speed>
  <fix>3d</fix>
</trkpt>
<trkpt lat="40.0728484" lon="-105.2305834">
  <ele>1594.99</ele>
  <time>2026-08-27T18:31:19Z</time>
  <course>10.05</course>
  <speed>0.07810249675906654</speed>
  <fix>3d</fix>
</trkpt>
<trkpt lat="40.0728485" lon="-105.2305836">
  <ele>1595.1</ele>
  <time>2026-08-27T18:31:19Z</time>
  <course>10.05</course>
  <speed>0.07810249675906654</speed>
  <fix>3d</fix>
</trkpt>
<trkpt lat="40.0728486" lon="-105.2305836">
  <ele>1594.87</ele>
  <time>2026-08-27T18:31:19Z</time>
  <course>314.56</course>
  <speed>0.11</speed>
  <fix>3d</fix>
</trkpt>
<trkpt lat="40.0728486" lon="-105.2305836">
  <ele>1595.12</ele>
  <time>2026-08-27T18:31:19Z</time>
  <course>10.05</course>
  <speed>0.07810249675906654</speed>
  <fix>3d</fix>
</trkpt>
<trkpt lat="40.0728487" lon="-105.2305838">
  <ele>1595.23</ele>
  <time>2026-08-27T18:31:19Z</time>
  <course>10.04</course>
  <speed>0.07810249675906654</speed>
  <fix>3d</fix>
</trkpt>
<trkpt lat="40.0728488" lon="-105.2305839">
  <ele>1594.99</ele>
  <time>2026-08-27T18:31:19Z</time>
  <course>314.42</course>
  <speed>0.11</speed>
  <fix>3d</fix>
</trkpt>
<trkpt lat="40.0728487" lon="-105.2305838">
  <ele>1595.23</ele>
  <time>2026-08-27T18:31:19Z</time>
  <course>10.04</course>
  <speed>0.07810249675906654</speed>
  <fix>3d</fix>
</trkpt>
<trkpt lat="40.0728488" lon="-105.230584">
  <ele>1595.35</ele>
  <time>2026-08-27T18:31:19Z</time>
  <course>10.03</course>
  <speed>0.07810249675906654</speed>
  <fix>3d</fix>
</trkpt>
<trkpt lat="40.072849" lon="-105.230584">
  <ele>1595.12</ele>
  <time>2026-08-27T18:31:19Z</time>
  <course>314.51</course>
  <speed>0.11</speed>
  <fix>3d</fix>
</trkpt>
<trkpt lat="40.0728489" lon="-105.230584">
  <ele>1595.37</ele>
  <time>2026-08-27T18:31:19Z</time>
  <course>10.03</course>
  <speed>0.07810249675906654</speed>
  <fix>3d</fix>
</trkpt>
<trkpt lat="40.072849" lon="-105.2305842">
  <ele>1595.47</ele>
  <time>2026-08-27T18:31:19Z</time>
  <course>10.02</course>
  <speed>0.07810249675906654</speed>
  <fix>3d</fix>
</trkpt>
<trkpt lat="40.0728491" lon="-105.2305843">
  <ele>1595.24</ele>
  <time>2026-08-27T18:31:19Z</time>
  <course>314.53</course>
  <speed>0.12</speed>
  <fix>3d</fix>
</trkpt>
<trkpt lat="40.072849" lon="-105.2305842">
  <ele>1595.49</ele>
  <time>2026-08-27T18:31:19Z</time>
  <course>10.02</course>
  <speed>0.07810249675906654</speed>
  <fix>3d</fix>
</trkpt>
<trkpt lat="40.0728491" lon="-105.2305844">
  <ele>1595.59</ele>
  <time>2026-08-27T18:31:19Z</time>
  <course>10.02</course>
  <speed>0.07810249675906654</speed>
  <fix>3d</fix>
</trkpt>
<trkpt lat="40.0728493" lon="-105.2305844">
  <ele>1595.36</ele>
  <time>2026-08-27T18:31:19Z</time>
  <course>314.61</course>
  <speed>0.12</speed>
  <fix>3d</fix>
</trkpt>
<trkpt lat="40.0728491" lon="-105.2305844">
  <ele>1595.6</ele>
  <time>2026-08-27T18:31:19Z</time>
  <course>10.02</course>
  <speed>0.07810249675906654</speed>
  <fix>3d</fix>
</trkpt>
<trkpt lat="40.0728493" lon="-105.2305846">
  <ele>1595.71</ele>
  <time>2026-08-27T18:31:19Z</time>
  <course>10.02</course>
  <speed>0.0848528137423857</speed>
  <fix>3d</fix>
</trkpt>
<trkpt lat="40.0728494" lon="-105.2305847">
  <ele>1595.48</ele>
  <time>2026-08-27T18:31:19Z</time>
  <course>314.7</course>
  <speed>0.12</speed>
  <fix>3d</fix>
</trkpt>
<trkpt lat="40.0728493" lon="-105.2305846">
  <ele>1595.73</ele>
  <time>2026-08-27T18:31:19Z</time>
  <course>10.02</course>
  <speed>0.0848528137423857</speed>
  <fix>3d</fix>
</trkpt>
<trkpt lat="40.0728494" lon="-105.2305848">
  <ele>1595.83</ele>
  <time>2026-08-27T18:31:19Z</time>
  <course>10.02</course>
  <speed>0.0848528137423857</speed>
  <fix>3d</fix>
</trkpt>
<trkpt lat="40.0728496" lon="-105.2305849">
  <ele>1595.61</ele>
  <time>2026-08-27T18:31:19Z</time>
  <course>314.77</course>
  <speed>0.12</speed>
  <fix>3d</fix>
</trkpt>
<trkpt lat="40.0728494" lon="-105.2305848">
  <ele>1595.84</ele>
  <time>2026-08-27T18:31:19Z</time>
  <course>10.02</course>
  <speed>0.0848528137423857</speed>
  <fix>3d</fix>
</trkpt>
<trkpt lat="40.0728496" lon="-105.230585">
  <ele>1595.95</ele>
  <time>2026-08-27T18:31:19Z</time>
  <course>10.02</course>
  <speed>0.0848528137423857</speed>
  <fix>3d</fix>
</trkpt>
<trkpt lat="40.0728498" lon="-105.2305852">
  <ele>1595.73</ele>
  <time>2026-08-27T18:31:19Z</time>
  <course>314.86</course>
  <speed>0.12</speed>
  <fix>3d</fix>
</trkpt>
<trkpt lat="40.0728496" lon="-105.230585">
  <ele>1595.97</ele>
  <time>2026-08-27T18:31:19Z</time>
  <course>10.02</course>
  <speed>0.0848528137423857</speed>
  <fix>3d</fix>
</trkpt>
<trkpt lat="40.0728498" lon="-105.2305852">
  <ele>1596.07</ele>
  <time>2026-08-27T18:31:19Z</time>
  <course>10.02</course>
  <speed>0.09219544457292887</speed>
  <fix>3d</fix>
</trkpt>
<trkpt lat="40.0728499" lon="-105.2305854">
  <ele>1595.86</ele>
  <time>2026-08-27T18:31:19Z</time>
  <course>314.91</course>
  <speed>0.12</speed>
  <fix>3d</fix>
</trkpt>
<trkpt lat="40.0728498" lon="-105.2305852">
  <ele>1596.09</ele>
  <time>2026-08-27T18:31:19Z</time>
  <course>10.02</course>
  <speed>0.09219544457292887</speed>
  <fix>3d</fix>
</trkpt>
<trkpt lat="40.0728499" lon="-105.2305854">
  <ele>1596.2</ele>
  <time>2026-08-27T18:31:19Z</time>
  <course>10.02</course>
  <speed>0.09219544457292887</speed>
  <fix>3d</fix>
</trkpt>
<trkpt lat="40.07285" lon="-105.2305855">
  <ele>1595.99</ele>
  <time>2026-08-27T18:31:19Z</time>
  <course>314.94</course>
  <speed>0.12</speed>
  <fix>3d</fix>
</trkpt>
<trkpt lat="40.0728499" lon="-105.2305854">
  <ele>1596.2</ele>
  <time>2026-08-27T18:31:19Z</time>
  <course>10.02</course>
  <speed>0.09219544457292887</speed>
  <fix>3d</fix>
</trkpt>
<trkpt lat="40.0728501" lon="-105.2305856">
  <ele>1596.33</ele>
  <time>2026-08-27T18:31:19Z</time>
  <course>10.02</course>
  <speed>0.09219544457292887</speed>
  <fix>3d</fix>
</trkpt>
<trkpt lat="40.0728502" lon="-105.2305858">
  <ele>1596.11</ele>
  <time>2026-08-27T18:31:19Z</time>
  <course>314.95</course>
  <speed>0.12</speed>
  <fix>3d</fix>
</trkpt>
<trkpt lat="40.0728501" lon="-105.2305857">
  <ele>1596.35</ele>
  <time>2026-08-27T18:31:19Z</time>
  <course>10.02</course>
  <speed>0.09219544457292887</speed>
  <fix>3d</fix>
</trkpt>
<trkpt lat="40.0728502" lon="-105.2305859">
  <ele>1596.46</ele>
  <time>2026-08-27T18:31:19Z</time>
  <course>10.02</course>
  <speed>0.09219544457292887</speed>
  <fix>3d</fix>
</trkpt>
<trkpt lat="40.0728504" lon="-105.2305859">
  <ele>1596.24</ele>
  <time>2026-08-27T18:31:19Z</time>
  <course>315.07</course>
  <speed>0.12</speed>
  <fix>3d</fix>
</trkpt>
<trkpt lat="40.0728502" lon="-105.2305859">
  <ele>1596.47</ele>
  <time>2026-08-27T18:31:19Z</time>
  <course>10.02</course>
  <speed>0.09219544457292887</speed>
  <fix>3d</fix>
</trkpt>
<trkpt lat="40.0728504" lon="-105.2305861">
  <ele>1596.59</ele>
  <time>2026-08-27T18:31:19Z</time>
  <course>10.02</course>
  <speed>0.09219544457292887</speed>
  <fix>3d</fix>
</trkpt>
<trkpt lat="40.0728505" lon="-105.2305862">
  <ele>1596.37</ele>
  <time>2026-08-27T18:31:19Z</time>
  <course>315.28</course>
  <speed>0.12</speed>
  <fix>3d</fix>
</trkpt>
<trkpt lat="40.0728504" lon="-105.2305861">
  <ele>1596.61</ele>
  <time>2026-08-27T18:31:19Z</time>
  <course>10.02</course>
  <speed>0.09219544457292887</speed>
  <fix>3d</fix>
</trkpt>
<trkpt lat="40.0728506" lon="-105.2305863">
  <ele>1596.71</ele>
  <time>2026-08-27T18:31:19Z</time>
  <course>10.02</course>
  <speed>0.09219544457292887</speed>
  <fix>3d</fix>
</trkpt>
<trkpt lat="40.0728507" lon="-105.2305863">
  <ele>1596.5</ele>
  <time>2026-08-27T18:31:19Z</time>
  <course>315.41</course>
  <speed>0.12</speed>
  <fix>3d</fix>
</trkpt>
<trkpt lat="40.0728506" lon="-105.2305863">
  <ele>1596.73</ele>
  <time>2026-08-27T18:31:19Z</time>
  <course>10.02</course>
  <speed>0.09219544457292887</speed>
  <fix>3d</fix>
</trkpt>
<trkpt lat="40.0728507" lon="-105.2305865">
  <ele>1596.83</ele>
  <time>2026-08-27T18:31:19Z</time>
  <course>10.02</course>
  <speed>0.09219544457292887</speed>
  <fix>3d</fix>
</trkpt>
<trkpt lat="40.0728509" lon="-105.2305866">
  <ele>1596.63</ele>
  <time>2026-08-27T18:31:19Z</time>
  <course>315.7</course>
  <speed>0.12</speed>
  <fix>3d</fix>
</trkpt>
<trkpt lat="40.0728508" lon="-105.2305865">
  <ele>1596.85</ele>
  <time>2026-08-27T18:31:19Z</time>
  <course>10.02</course>
  <speed>0.09219544457292887</speed>
  <fix>3d</fix>
</trkpt>
<trkpt lat="40.0728509" lon="-105.2305867">
  <ele>1596.96</ele>
  <time>2026-08-27T18:31:19Z</time>
  <course>10.02</course>
  <speed>0.09219544457292887</speed>
  <fix>3d</fix>
</trkpt>
<trkpt lat="40.072851" lon="-105.2305868">
  <ele>1596.76</ele>
  <time>2026-08-27T18:31:19Z</time>
  <course>315.87</course>
  <speed>0.12</speed>
  <fix>3d</fix>
</trkpt>
<trkpt lat="40.0728509" lon="-105.2305867">
  <ele>1596.98</ele>
  <time>2026-08-27T18:31:19Z</time>
  <course>10.02</course>
  <speed>0.09219544457292887</speed>
  <fix>3d</fix>
</trkpt>
<trkpt lat="40.0728511" lon="-105.2305869">
  <ele>1597.09</ele>
  <time>2026-08-27T18:31:19Z</time>
  <course>10.02</course>
  <speed>0.09219544457292887</speed>
  <fix>3d</fix>
</trkpt>
<trkpt lat="40.0728512" lon="-105.2305869">
  <ele>1596.88</ele>
  <time>2026-08-27T18:31:19Z</time>
  <course>315.75</course>
  <speed>0.12</speed>
  <fix>3d</fix>
</trkpt>
<trkpt lat="40.0728511" lon="-105.2305869">
  <ele>1597.09</ele>
  <time>2026-08-27T18:31:19Z</time>
  <course>10.02</course>
  <speed>0.09219544457292887</speed>
  <fix>3d</fix>
</trkpt>
<trkpt lat="40.0728512" lon="-105.2305871">
  <ele>1597.21</ele>
  <time>2026-08-27T18:31:19Z</time>
  <course>10.02</course>
  <speed>0.09219544457292887</speed>
  <fix>3d</fix>
</trkpt>
<trkpt lat="40.0728514" lon="-105.2305872">
  <ele>1597.01</ele>
  <time>2026-08-27T18:31:19Z</time>
  <course>315.66</course>
  <speed>0.12</speed>
  <fix>3d</fix>
</trkpt>
<trkpt lat="40.0728512" lon="-105.2305871">
  <ele>1597.23</ele>
  <time>2026-08-27T18:31:19Z</time>
  <course>10.02</course>
  <speed>0.09219544457292887</speed>
  <fix>3d</fix>
</trkpt>
<trkpt lat="40.0728514" lon="-105.2305873">
  <ele>1597.34</ele>
  <time>2026-08-27T18:31:19Z</time>
  <course>10.01</course>
  <speed>0.09219544457292887</speed>
  <fix>3d</fix>
</trkpt>
<trkpt lat="40.0728515" lon="-105.2305874">
  <ele>1597.13</ele>
  <time>2026-08-27T18:31:19Z</time>
  <course>315.61</course>
  <speed>0.12</speed>
  <fix>3d</fix>
</trkpt>
<trkpt lat="40.0728514" lon="-105.2305873">
  <ele>1597.36</ele>
  <time>2026-08-27T18:31:19Z</time>
  <course>10.01</course>
  <speed>0.09219544457292887</speed>
  <fix>3d</fix>
</trkpt>
<trkpt lat="40.0728516" lon="-105.2305875">
  <ele>1597.47</ele>
  <time>2026-08-27T18:31:19Z</time>
  <course>10.02</course>
  <speed>0.09219544457292887</speed>
  <fix>3d</fix>
</trkpt>
<trkpt lat="40.0728517" lon="-105.2305877">
  <ele>1597.26</ele>
  <time>2026-08-27T18:31:19Z</time>
  <course>315.53</course>
  <speed>0.12</speed>
  <fix>3d</fix>
</trkpt>
<trkpt lat="40.0728516" lon="-105.2305876">
  <ele>1597.48</ele>
  <time>2026-08-27T18:31:19Z</time>
  <course>10.02</course>
  <speed>0.09219544457292887</speed>
  <fix>3d</fix>
</trkpt>
<trkpt lat="40.0728517" lon="-105.2305877">
  <ele>1597.59</ele>
  <time>2026-08-27T18:31:19Z</time>
  <course>10.02</course>
  <speed>0.09219544457292887</speed>
  <fix>3d</fix>
</trkpt>
<trkpt lat="40.0728518" lon="-105.2305878">
  <ele>1597.39</ele>
  <time>2026-08-27T18:31:19Z</time>
  <course>315.41</course>
  <speed>0.12</speed>
  <fix>3d</fix>
</trkpt>
<trkpt lat="40.0728517" lon="-105.2305878">
  <ele>1597.61</ele>
  <time>2026-08-27T18:31:19Z</time>
  <course>10.02</course>
  <speed>0.09219544457292887</speed>
  <fix>3d</fix>
</trkpt>
<trkpt lat="40.0728519" lon="-105.230588">
  <ele>1597.72</ele>
  <time>2026-08-27T18:31:19Z</time>
  <course>10.02</course>
  <speed>0.09219544457292887</speed>
  <fix>3d</fix>
</trkpt>
<trkpt lat="40.072852" lon="-105.2305881">
  <ele>1597.52</ele>
  <time>2026-08-27T18:31:19Z</time>
  <course>315.28</course>
  <speed>0.12</speed>
  <fix>3d</fix>
</trkpt>
<trkpt lat="40.0728519" lon="-105.230588">
  <ele>1597.72</ele>
  <time>2026-08-27T18:31:19Z</time>
  <course>10.02</course>
  <speed>0.09219544457292887</speed>
  <fix>3d</fix>
</trkpt>
<trkpt lat="40.072852" lon="-105.2305882">
  <ele>1597.85</ele>
  <time>2026-08-27T18:31:19Z</time>
  <course>10.02</course>
  <speed>0.09219544457292887</speed>
  <fix>3d</fix>
</trkpt>
<trkpt lat="40.0728522" lon="-105.2305882">
  <ele>1597.64</ele>
  <time>2026-08-27T18:31:19Z</time>
  <course>315.14</course>
  <speed>0.12</speed>
  <fix>3d</fix>
</trkpt>
<trkpt lat="40.0728521" lon="-105.2305882">
  <ele>1597.86</ele>
  <time>2026-08-27T18:31:19Z</time>
  <course>10.02</course>
  <speed>0.09219544457292887</speed>
  <fix>3d</fix>
</trkpt>
<trkpt lat="40.0728522" lon="-105.2305884">
  <ele>1597.97</ele>
  <time>2026-08-27T18:31:19Z</time>
  <course>10.02</course>
  <speed>0.09219544457292887</speed>
  <fix>3d</fix>
</trkpt>
<trkpt lat="40.0728524" lon="-105.2305885">
  <ele>1597.77</ele>
  <time>2026-08-27T18:31:19Z</time>
  <course>315.02</course>
  <speed>0.12</speed>
  <fix>3d</fix>
</trkpt>
<trkpt lat="40.0728522" lon="-105.2305884">
  <ele>1597.99</ele>
  <time>2026-08-27T18:31:19Z</time>
  <course>10.02</course>
  <speed>0.09219544457292887</speed>
  <fix>3d</fix>
</trkpt>
<trkpt lat="40.0728524" lon="-105.2305886">
  <ele>1598.1</ele>
  <time>2026-08-27T18:31:19Z</time>
  <course>10.02</course>
  <speed>0.09219544457292887</speed>
  <fix>3d</fix>
</trkpt>
<trkpt lat="40.0728525" lon="-105.2305887">
  <ele>1597.9</ele>
  <time>2026-08-27T18:31:19Z</time>
  <course>314.95</course>
  <speed>0.12</speed>
  <fix>3d</fix>
</trkpt>
<trkpt lat="40.0728524" lon="-105.2305886">
  <ele>1598.12</ele>
  <time>2026-08-27T18:31:19Z</time>
  <course>10.02</course>
  <speed>0.09219544457292887</speed>
  <fix>3d</fix>
</trkpt>
<trkpt lat="40.0728526" lon="-105.2305888">
  <ele>1598.23</ele>
  <time>2026-08-27T18:31:19Z</time>
  <course>10.02</course>
  <speed>0.09219544457292887</speed>
  <fix>3d</fix>
</trkpt>
<trkpt lat="40.0728527" lon="-105.2305889">
  <ele>1598.03</ele>
  <time>2026-08-27T18:31:19Z</time>
  <course>314.68</course>
  <speed>0.12</speed>
  <fix>3d</fix>
</trkpt>
<trkpt lat="40.0728526" lon="-105.2305889">
  <ele>1598.25</ele>
  <time>2026-08-27T18:31:19Z</time>
  <course>10.02</course>
  <speed>0.09219544457292887</speed>
  <fix>3d</fix>
</trkpt>
<trkpt lat="40.0728527" lon="-105.230589">
  <ele>1598.36</ele>
  <time>2026-08-27T18:31:19Z</time>
  <course>10.02</course>
  <speed>0.09219544457292887</speed>
  <fix>3d</fix>
</trkpt>
<trkpt lat="40.0728529" lon="-105.2305892">
  <ele>1598.15</ele>
  <time>2026-08-27T18:31:19Z</time>
  <course>314.37</course>
  <speed>0.13</speed>
  <fix>3d</fix>
</trkpt>
<trkpt lat="40.0728527" lon="-105.2305891">
  <ele>1598.38</ele>
  <time>2026-08-27T18:31:19Z</time>
  <course>10.02</course>
  <speed>0.09219544457292887</speed>
  <fix>3d</fix>
</trkpt>
<trkpt lat="40.0728529" lon="-105.2305893">
  <ele>1598.49</ele>
  <time>2026-08-27T18:31:19Z</time>
  <course>10.02</course>
  <speed>0.09219544457292887</speed>
  <fix>3d</fix>
</trkpt>
<trkpt lat="40.072853" lon="-105.2305893">
  <ele>1598.28</ele>
  <time>2026-08-27T18:31:19Z</time>
  <course>314.21</course>
  <speed>0.13</speed>
  <fix>3d</fix>
</trkpt>
<trkpt lat="40.0728529" lon="-105.2305893">
  <ele>1598.49</ele>
  <time>2026-08-27T18:31:19Z</time>
  <course>10.02</course>
  <speed>0.09219544457292887</speed>
  <fix>3d</fix>
</trkpt>
<trkpt lat="40.0728531" lon="-105.2305895">
  <ele>1598.61</ele>
  <time>2026-08-27T18:31:19Z</time>
  <course>10.02</course>
  <speed>0.09219544457292887</speed>
  <fix>3d</fix>
</trkpt>
<trkpt lat="40.0728532" lon="-105.2305896">
  <ele>1598.4</ele>
  <time>2026-08-27T18:31:19Z</time>
  <course>314.14</course>
  <speed>0.13</speed>
  <fix>3d</fix>
</trkpt>
<trkpt lat="40.0728531" lon="-105.2305895">
  <ele>1598.63</ele>
  <time>2026-08-27T18:31:19Z</time>
  <course>10.03</course>
  <speed>0.09219544457292887</speed>
  <fix>3d</fix>
</trkpt>
<trkpt lat="40.0728532" lon="-105.2305897">
  <ele>1598.73</ele>
  <time>2026-08-27T18:31:19Z</time>
  <course>10.03</course>
  <speed>0.09219544457292887</speed>
  <fix>3d</fix>
</trkpt>
<trkpt lat="40.0728533" lon="-105.2305897">
  <ele>1598.53</ele>
  <time>2026-08-27T18:31:19Z</time>
  <course>314.04</course>
  <speed>0.13</speed>
  <fix>3d</fix>
</trkpt>
<trkpt lat="40.0728532" lon="-105.2305897">
  <ele>1598.75</ele>
  <time>2026-08-27T18:31:19Z</time>
  <course>10.03</course>
  <speed>0.09219544457292887</speed>
  <fix>3d</fix>
</trkpt>
<trkpt lat="40.0728534" lon="-105.2305899">
  <ele>1598.85</ele>
  <time>2026-08-27T18:31:19Z</time>
  <course>10.02</course>
  <speed>0.09219544457292887</speed>
  <fix>3d</fix>
</trkpt>
<trkpt lat="40.0728534" lon="-105.23059">
  <ele>1598.65</ele>
  <time>2026-08-27T18:31:19Z</time>
  <course>313.93</course>
  <speed>0.12</speed>
  <fix>3d</fix>
</trkpt>
<trkpt lat="40.0728534" lon="-105.23059">
  <ele>1598.87</ele>
  <time>2026-08-27T18:31:19Z</time>
  <course>10.02</course>
  <speed>0.09219544457292887</speed>
  <fix>3d</fix>
</trkpt>
<trkpt lat="40.0728535" lon="-105.2305901">
  <ele>1598.98</ele>
  <time>2026-08-27T18:31:19Z</time>
  <course>10.02</course>
  <speed>0.09219544457292887</speed>
  <fix>3d</fix>
</trkpt>
<trkpt lat="40.0728536" lon="-105.2305902">
  <ele>1598.78</ele>
  <time>2026-08-27T18:31:19Z</time>
  <course>313.89</course>
  <speed>0.12</speed>
  <fix>3d</fix>
</trkpt>
<trkpt lat="40.0728535" lon="-105.2305901">
  <ele>1598.98</ele>
  <time>2026-08-27T18:31:19Z</time>
  <course>10.02</course>
  <speed>0.09219544457292887</speed>
  <fix>3d</fix>
</trkpt>
<trkpt lat="40.0728537" lon="-105.2305904">
  <ele>1599.11</ele>
  <time>2026-08-27T18:31:19Z</time>
  <course>10.02</course>
  <speed>0.09219544457292887</speed>
  <fix>3d</fix>
</trkpt>
<trkpt lat="40.0728538" lon="-105.2305905">
  <ele>1598.9</ele>
  <time>2026-08-27T18:31:19Z</time>
  <course>313.78</course>
  <speed>0.12</speed>
  <fix>3d</fix>
</trkpt>
<trkpt lat="40.0728537" lon="-105.2305904">
  <ele>1599.13</ele>
  <time>2026-08-27T18:31:19Z</time>
  <course>10.02</course>
  <speed>0.09219544457292887</speed>
  <fix>3d</fix>
</trkpt>
<trkpt lat="40.0728538" lon="-105.2305906">
  <ele>1599.23</ele>
  <time>2026-08-27T18:31:19Z</time>
  <course>10.02</course>
  <speed>0.09219544457292887</speed>
  <fix>3d</fix>
</trkpt>
<trkpt lat="40.072854" lon="-105.2305906">
  <ele>1599.03</ele>
  <time>2026-08-27T18:31:19Z</time>
  <course>313.68</course>
  <speed>0.12</speed>
  <fix>3d</fix>
</trkpt>
<trkpt lat="40.0728539" lon="-105.2305906">
  <ele>1599.23</ele>
  <time>2026-08-27T18:31:19Z</time>
  <course>10.02</course>
  <speed>0.09219544457292887</speed>
  <fix>3d</fix>
</trkpt>
<trkpt lat="40.072854" lon="-105.2305908">
  <ele>1599.35</ele>
  <time>2026-08-27T18:31:19Z</time>
  <course>10.02</course>
  <speed>0.09219544457292887</speed>
  <fix>3d</fix>
</trkpt>
<trkpt lat="40.0728541" lon="-105.2305909">
  <ele>1599.15</ele>
  <time>2026-08-27T18:31:19Z</time>
  <course>313.63</course>
  <speed>0.12</speed>
  <fix>3d</fix>
</trkpt>
<trkpt lat="40.072854" lon="-105.2305908">
  <ele>1599.37</ele>
  <time>2026-08-27T18:31:19Z</time>
  <course>10.02</course>
  <speed>0.09219544457292887</speed>
  <fix>3d</fix>
</trkpt>
<trkpt lat="40.0728542" lon="-105.230591">
  <ele>1599.48</ele>
  <time>2026-08-27T18:31:19Z</time>
  <course>10.02</course>
  <speed>0.09219544457292887</speed>
  <fix>3d</fix>
</trkpt>
<trkpt lat="40.0728543" lon="-105.2305911">
  <ele>1599.28</ele>
  <time>2026-08-27T18:31:19Z</time>
  <course>313.55</course>
  <speed>0.12</speed>
  <fix>3d</fix>
</trkpt>
<trkpt lat="40.0728542" lon="-105.230591">
  <ele>1599.5</ele>
  <time>2026-08-27T18:31:19Z</time>
  <course>10.02</course>
  <speed>0.09219544457292887</speed>
  <fix>3d</fix>
</trkpt>
<trkpt lat="40.0728543" lon="-105.2305912">
  <ele>1599.61</ele>
  <time>2026-08-27T18:31:19Z</time>
  <course>10.02</course>
  <speed>0.09219544457292887</speed>
  <fix>3d</fix>
</trkpt>
<trkpt lat="40.0728545" lon="-105.2305913">
  <ele>1599.41</ele>
  <time>2026-08-27T18:31:19Z</time>
  <course>313.47</course>
  <speed>0.12</speed>
  <fix>3d</fix>
</trkpt>
<trkpt lat="40.0728543" lon="-105.2305912">
  <ele>1599.61</ele>
  <time>2026-08-27T18:31:19Z</time>
  <course>10.02</course>
  <speed>0.09219544457292887</speed>
  <fix>3d</fix>
</trkpt>
<trkpt lat="40.0728545" lon="-105.2305915">
  <ele>1599.74</ele>
  <time>2026-08-27T18:31:19Z</time>
  <course>10.02</course>
  <speed>0.09219544457292887</speed>
  <fix>3d</fix>
</trkpt>
<trkpt lat="40.0728546" lon="-105.2305916">
  <ele>1599.54</ele>
  <time>2026-08-27T18:31:19Z</time>
  <course>313.42</course>
  <speed>0.12</speed>
  <fix>3d</fix>
</trkpt>
<trkpt lat="40.0728545" lon="-105.2305915">
  <ele>1599.76</ele>
  <time>2026-08-27T18:31:19Z</time>
  <course>10.02</course>
  <speed>0.09219544457292887</speed>
  <fix>3d</fix>
</trkpt>
<trkpt lat="40.0728546" lon="-105.2305917">
  <ele>1599.88</ele>
  <time>2026-08-27T18:31:19Z</time>
  <course>10.02</course>
  <speed>0.09219544457292887</speed>
  <fix>3d</fix>
</trkpt>
<trkpt lat="40.0728548" lon="-105.2305917">
  <ele>1599.66</ele>
  <time>2026-08-27T18:31:19Z</time>
  <course>313.31</course>
  <speed>0.12</speed>
  <fix>3d</fix>
</trkpt>
<trkpt lat="40.0728547" lon="-105.2305917">
  <ele>1599.9</ele>
  <time>2026-08-27T18:31:19Z</time>
  <course>10.02</course>
  <speed>0.09219544457292887</speed>
  <fix>3d</fix>
</trkpt>
<trkpt lat="40.0728548" lon="-105.2305919">
  <ele>1600.0</ele>
  <time>2026-08-27T18:31:19Z</time>
  <course>10.02</course>
  <speed>0.09219544457292887</speed>
  <fix>3d</fix>
</trkpt>
<trkpt lat="40.0728549" lon="-105.230592">
  <ele>1599.79</ele>
  <time>2026-08-27T18:31:19Z</time>
  <course>313.2</course>
  <speed>0.12</speed>
  <fix>3d</fix>
</trkpt>
<trkpt lat="40.0728548" lon="-105.2305919">
  <ele>1600.0</ele>
  <time>2026-08-27T18:31:19Z</time>
  <course>10.02</course>
  <speed>0.09219544457292887</speed>
  <fix>3d</fix>
</trkpt>
<trkpt lat="40.072855" lon="-105.2305921">
  <ele>1600.12</ele>
  <time>2026-08-27T18:31:19Z</time>
  <course>10.02</course>
  <speed>0.09219544457292887</speed>
  <fix>3d</fix>
</trkpt>
<trkpt lat="40.0728551" lon="-105.2305921">
  <ele>1599.9</ele>
  <time>2026-08-27T18:31:19Z</time>
  <course>313.17</course>
  <speed>0.12</speed>
  <fix>3d</fix>
</trkpt>
<trkpt lat="40.072855" lon="-105.2305921">
  <ele>1600.14</ele>
  <time>2026-08-27T18:31:19Z</time>
  <course>10.02</course>
  <speed>0.09219544457292887</speed>
  <fix>3d</fix>
</trkpt>
<trkpt lat="40.0728551" lon="-105.2305923">
  <ele>1600.24</ele>
  <time>2026-08-27T18:31:19Z</time>
  <course>10.02</course>
  <speed>0.09219544457292887</speed>
  <fix>3d</fix>
</trkpt>
<trkpt lat="40.0728552" lon="-105.2305924">
  <ele>1600.03</ele>
  <time>2026-08-27T18:31:19Z</time>
  <course>313.19</course>
  <speed>0.12</speed>
  <fix>3d</fix>
</trkpt>
<trkpt lat="40.0728551" lon="-105.2305923">
  <ele>1600.24</ele>
  <time>2026-08-27T18:31:19Z</time>
  <course>10.02</course>
  <speed>0.09219544457292887</speed>
  <fix>3d</fix>
</trkpt>
<trkpt lat="40.0728553" lon="-105.2305925">
  <ele>1600.36</ele>
  <time>2026-08-27T18:31:19Z</time>
  <course>10.02</course>
  <speed>0.09219544457292887</speed>
  <fix>3d</fix>
</trkpt>
<trkpt lat="40.0728553" lon="-105.2305926">
  <ele>1600.15</ele>
  <time>2026-08-27T18:31:19Z</time>
  <course>313.14</course>
  <speed>0.12</speed>
  <fix>3d</fix>
</trkpt>
<trkpt lat="40.0728553" lon="-105.2305926">
  <ele>1600.38</ele>
  <time>2026-08-27T18:31:19Z</time>
  <course>10.02</course>
  <speed>0.09219544457292887</speed>
  <fix>3d</fix>
</trkpt>
<trkpt lat="40.0728554" lon="-105.2305927">
  <ele>1600.48</ele>
  <time>2026-08-27T18:31:19Z</time>
  <course>10.02</course>
  <speed>0.09219544457292887</speed>
  <fix>3d</fix>
</trkpt>
<trkpt lat="40.0728555" lon="-105.2305929">
  <ele>1600.28</ele>
  <time>2026-08-27T18:31:19Z</time>
  <course>313.06</course>
  <speed>0.12</speed>
  <fix>3d</fix>
</trkpt>
<trkpt lat="40.0728554" lon="-105.2305928">
  <ele>1600.5</ele>
  <time>2026-08-27T18:31:19Z</time>
  <course>10.02</course>
  <speed>0.09219544457292887</speed>
  <fix>3d</fix>
</trkpt>
<trkpt lat="40.0728556" lon="-105.230593">
  <ele>1600.61</ele>
  <time>2026-08-27T18:31:19Z</time>
  <course>10.02</course>
  <speed>0.09219544457292887</speed>
  <fix>3d</fix>
</trkpt>
<trkpt lat="40.0728557" lon="-105.230593">
  <ele>1600.4</ele>
  <time>2026-08-27T18:31:19Z</time>
  <course>312.97</course>
  <speed>0.12</speed>
  <fix>3d</fix>
</trkpt>
<trkpt lat="40.0728556" lon="-105.230593">
  <ele>1600.62</ele>
  <time>2026-08-27T18:31:19Z</time>
  <course>10.02</course>
  <speed>0.09219544457292887</speed>
  <fix>3d</fix>
</trkpt>
<trkpt lat="40.0728557" lon="-105.2305932">
  <ele>1600.73</ele>
  <time>2026-08-27T18:31:19Z</time>
  <course>10.02</course>
  <speed>0.09219544457292887</speed>
  <fix>3d</fix>
</trkpt>
<trkpt lat="40.0728559" lon="-105.2305933">
  <ele>1600.53</ele>
  <time>2026-08-27T18:31:19Z</time>
  <course>312.85</course>
  <speed>0.12</speed>
  <fix>3d</fix>
</trkpt>
<trkpt lat="40.0728557" lon="-105.2305932">
  <ele>1600.75</ele>
  <time>2026-08-27T18:31:19Z</time>
  <course>10.02</course>
  <speed>0.09219544457292887</speed>
  <fix>3d</fix>
</trkpt>
<trkpt lat="40.0728559" lon="-105.2305934">
  <ele>1600.85</ele>
  <time>2026-08-27T18:31:19Z</time>
  <course>10.02</course>
  <speed>0.09219544457292887</speed>
  <fix>3d</fix>
</trkpt>
<trkpt lat="40.072856" lon="-105.2305935">
  <ele>1600.65</ele>
  <time>2026-08-27T18:31:19Z</time>
  <course>312.76</course>
  <speed>0.12</speed>
  <fix>3d</fix>
</trkpt>
<trkpt lat="40.0728559" lon="-105.2305934">
  <ele>1600.86</ele>
  <time>2026-08-27T18:31:19Z</time>
  <course>10.02</course>
  <speed>0.09219544457292887</speed>
  <fix>3d</fix>
</trkpt>
<trkpt lat="40.072856" lon="-105.2305936">
  <ele>1600.98</ele>
  <time>2026-08-27T18:31:19Z</time>
  <course>10.02</course>
  <speed>0.09219544457292887</speed>
  <fix>3d</fix>
</trkpt>
<trkpt lat="40.0728561" lon="-105.2305936">
  <ele>1600.78</ele>
  <time>2026-08-27T18:31:19Z</time>
  <course>312.68</course>
  <speed>0.12</speed>
  <fix>3d</fix>
</trkpt>
<trkpt lat="40.072856" lon="-105.2305936">
  <ele>1601.0</ele>
  <time>2026-08-27T18:31:19Z</time>
  <course>10.02</course>
  <speed>0.09219544457292887</speed>
  <fix>3d</fix>
</trkpt>
<trkpt lat="40.0728562" lon="-105.2305938">
  <ele>1601.11</ele>
  <time>2026-08-27T18:31:19Z</time>
  <course>10.02</course>
  <speed>0.09219544457292887</speed>
  <fix>3d</fix>
</trkpt>
<trkpt lat="40.0728563" lon="-105.2305939">
  <ele>1600.91</ele>
  <time>2026-08-27T18:31:19Z</time>
  <course>312.57</course>
  <speed>0.12</speed>
  <fix>3d</fix>
</trkpt>
<trkpt lat="40.0728562" lon="-105.2305938">
  <ele>1601.13</ele>
  <time>2026-08-27T18:31:19Z</time>
  <course>10.02</course>
  <speed>0.09219544457292887</speed>
  <fix>3d</fix>
</trkpt>
<trkpt lat="40.0728563" lon="-105.230594">
  <ele>1601.24</ele>
  <time>2026-08-27T18:31:19Z</time>
  <course>10.02</course>
  <speed>0.09219544457292887</speed>
  <fix>3d</fix>
</trkpt>
<trkpt lat="40.0728565" lon="-105.2305941">
  <ele>1601.04</ele>
  <time>2026-08-27T18:31:19Z</time>
  <course>312.47</course>
  <speed>0.12</speed>
  <fix>3d</fix>
</trkpt>
<trkpt lat="40.0728563" lon="-105.230594">
  <ele>1601.26</ele>
  <time>2026-08-27T18:31:19Z</time>
  <course>10.02</course>
  <speed>0.09219544457292887</speed>
  <fix>3d</fix>
</trkpt>
<trkpt lat="40.0728565" lon="-105.2305942">
  <ele>1601.37</ele>
  <time>2026-08-27T18:31:19Z</time>
  <course>10.02</course>
  <speed>0.09219544457292887</speed>
  <fix>3d</fix>
</trkpt>
<trkpt lat="40.0728566" lon="-105.2305944">
  <ele>1601.17</ele>
  <time>2026-08-27T18:31:19Z</time>
  <course>312.65</course>
  <speed>0.12</speed>
  <fix>3d</fix>
</trkpt>
<trkpt lat="40.0728565" lon="-105.2305943">
  <ele>1601.39</ele>
  <time>2026-08-27T18:31:19Z</time>
  <course>10.02</course>
  <speed>0.09219544457292887</speed>
  <fix>3d</fix>
</trkpt>
<trkpt lat="40.0728566" lon="-105.2305944">
  <ele>1601.5</ele>
  <time>2026-08-27T18:31:19Z</time>
  <course>10.02</course>
  <speed>0.09219544457292887</speed>
  <fix>3d</fix>
</trkpt>
<trkpt lat="40.0728567" lon="-105.2305945">
  <ele>1601.3</ele>
  <time>2026-08-27T18:31:19Z</time>
  <course>312.78</course>
  <speed>0.12</speed>
  <fix>3d</fix>
</trkpt>
<trkpt lat="40.0728566" lon="-105.2305944">
  <ele>1601.5</ele>
  <time>2026-08-27T18:31:19Z</time>
  <course>10.02</course>
  <speed>0.09219544457292887</speed>
  <fix>3d</fix>
</trkpt>
<trkpt lat="40.0728568" lon="-105.2305946">
  <ele>1601.63</ele>
  <time>2026-08-27T18:31:19Z</time>
  <course>10.02</course>
  <speed>0.09219544457292887</speed>
  <fix>3d</fix>
</trkpt>
<trkpt lat="40.0728569" lon="-105.2305948">
  <ele>1601.42</ele>
  <time>2026-08-27T18:31:19Z</time>
  <course>312.55</course>
  <speed>0.12</speed>
  <fix>3d</fix>
</trkpt>
<trkpt lat="40.0728568" lon="-105.2305947">
  <ele>1601.65</ele>
  <time>2026-08-27T18:31:19Z</time>
  <course>10.02</course>
  <speed>0.09219544457292887</speed>
  <fix>3d</fix>
</trkpt>
<trkpt lat="40.0728569" lon="-105.2305949">
  <ele>1601.76</ele>
  <time>2026-08-27T18:31:19Z</time>
  <course>10.02</course>
  <speed>0.08602325267042626</speed>
  <fix>3d</fix>
</trkpt>
<trkpt lat="40.0728571" lon="-105.2305949">
  <ele>1601.55</ele>
  <time>2026-08-27T18:31:19Z</time>
  <course>312.27</course>
  <speed>0.12</speed>
  <fix>3d</fix>
</trkpt>
<trkpt lat="40.0728569" lon="-105.2305949">
  <ele>1601.77</ele>
  <time>2026-08-27T18:31:19Z</time>
  <course>10.02</course>
  <speed>0.08602325267042626</speed>
  <fix>3d</fix>
</trkpt>
<trkpt lat="40.0728571" lon="-105.2305951">
  <ele>1601.89</ele>
  <time>2026-08-27T18:31:19Z</time>
  <course>10.02</course>
  <speed>0.08602325267042626</speed>
  <fix>3d</fix>
</trkpt>
<trkpt lat="40.0728572" lon="-105.2305952">
  <ele>1601.66</ele>
  <time>2026-08-27T18:31:19Z</time>
  <course>312.04</course>
  <speed>0.12</speed>
  <fix>3d</fix>
</trkpt>
<trkpt lat="40.0728571" lon="-105.2305951">
  <ele>1601.91</ele>
  <time>2026-08-27T18:31:19Z</time>
  <course>10.02</course>
  <speed>0.08602325267042626</speed>
  <fix>3d</fix>
</trkpt>
<trkpt lat="40.0728572" lon="-105.2305953">
  <ele>1602.02</ele>
  <time>2026-08-27T18:31:19Z</time>
  <course>10.02</course>
  <speed>0.08602325267042626</speed>
  <fix>3d</fix>
</trkpt>
<trkpt lat="40.0728573" lon="-105.2305954">
  <ele>1601.79</ele>
  <time>2026-08-27T18:31:19Z</time>
  <course>311.87</course>
  <speed>0.12</speed>
  <fix>3d</fix>
</trkpt>
<trkpt lat="40.0728572" lon="-105.2305953">
  <ele>1602.03</ele>
  <time>2026-08-27T18:31:19Z</time>
  <course>10.02</course>
  <speed>0.08602325267042626</speed>
  <fix>3d</fix>
</trkpt>
<trkpt lat="40.0728574" lon="-105.2305955">
  <ele>1602.14</ele>
  <time>2026-08-27T18:31:19Z</time>
  <course>10.02</course>
  <speed>0.08602325267042626</speed>
  <fix>3d</fix>
</trkpt>
<trkpt lat="40.0728575" lon="-105.2305955">
  <ele>1601.91</ele>
  <time>2026-08-27T18:31:19Z</time>
  <course>311.67</course>
  <speed>0.12</speed>
  <fix>3d</fix>
</trkpt>
<trkpt lat="40.0728574" lon="-105.2305955">
  <ele>1602.16</ele>
  <time>2026-08-27T18:31:19Z</time>
  <course>10.02</course>
  <speed>0.08602325267042626</speed>
  <fix>3d</fix>
</trkpt>
<trkpt lat="40.0728575" lon="-105.2305957">
  <ele>1602.26</ele>
  <time>2026-08-27T18:31:19Z</time>
  <course>10.01</course>
  <speed>0.08602325267042626</speed>
  <fix>3d</fix>
</trkpt>
<trkpt lat="40.0728576" lon="-105.2305958">
  <ele>1602.04</ele>
  <time>2026-08-27T18:31:19Z</time>
  <course>311.51</course>
  <speed>0.12</speed>
  <fix>3d</fix>
</trkpt>
<trkpt lat="40.0728575" lon="-105.2305957">
  <ele>1602.26</ele>
  <time>2026-08-27T18:31:19Z</time>
  <course>10.01</course>
  <speed>0.08602325267042626</speed>
  <fix>3d</fix>
</trkpt>
<trkpt lat="40.0728576" lon="-105.2305959">
  <ele>1602.38</ele>
  <time>2026-08-27T18:31:20Z</time>
  <course>10.02</course>
  <speed>0.08602325267042626</speed>
  <fix>3d</fix>
</trkpt>
<trkpt lat="40.0728577" lon="-105.230596">
  <ele>1602.15</ele>
  <time>2026-08-27T18:31:20Z</time>
  <course>311.36</course>
  <speed>0.12</speed>
  <fix>3d</fix>
</trkpt>
<trkpt lat="40.0728577" lon="-105.2305959">
  <ele>1602.4</ele>
  <time>2026-08-27T18:31:20Z</time>
  <course>10.02</course>
  <speed>0.08602325267042626</speed>
  <fix>3d</fix>
</trkpt>
<trkpt lat="40.0728578" lon="-105.2305961">
  <ele>1602.5</ele>
  <time>2026-08-27T18:31:20Z</time>
  <course>10.02</course>
  <speed>0.08602325267042626</speed>
  <fix>3d</fix>
</trkpt>
<trkpt lat="40.0728579" lon="-105.2305963">
  <ele>1602.28</ele>
  <time>2026-08-27T18:31:20Z</time>
  <course>311.19</course>
  <speed>0.12</speed>
  <fix>3d</fix>
</trkpt>
<trkpt lat="40.0728578" lon="-105.2305962">
  <ele>1602.52</ele>
  <time>2026-08-27T18:31:20Z</time>
  <course>10.02</course>
  <speed>0.08602325267042626</speed>
  <fix>3d</fix>
</trkpt>
<trkpt lat="40.0728579" lon="-105.2305963">
  <ele>1602.62</ele>
  <time>2026-08-27T18:31:20Z</time>
  <course>10.02</course>
  <speed>0.08602325267042626</speed>
  <fix>3d</fix>
</trkpt>
<trkpt lat="40.0728581" lon="-105.2305964">
  <ele>1602.39</ele>
  <time>2026-08-27T18:31:20Z</time>
  <course>311.05</course>
  <speed>0.11</speed>
  <fix>3d</fix>
</trkpt>
<trkpt lat="40.0728579" lon="-105.2305964">
  <ele>1602.64</ele>
  <time>2026-08-27T18:31:20Z</time>
  <course>10.02</course>
  <speed>0.08602325267042626</speed>
  <fix>3d</fix>
</trkpt>
<trkpt lat="40.0728581" lon="-105.2305965">
  <ele>1602.74</ele>
  <time>2026-08-27T18:31:20Z</time>
  <course>10.02</course>
  <speed>0.08602325267042626</speed>
  <fix>3d</fix>
</trkpt>
<trkpt lat="40.0728582" lon="-105.2305967">
  <ele>1602.52</ele>
  <time>2026-08-27T18:31:20Z</time>
  <course>310.93</course>
  <speed>0.11</speed>
  <fix>3d</fix>
</trkpt>
<trkpt lat="40.0728581" lon="-105.2305965">
  <ele>1602.74</ele>
  <time>2026-08-27T18:31:20Z</time>
  <course>10.02</course>
  <speed>0.08602325267042626</speed>
  <fix>3d</fix>
</trkpt>
<trkpt lat="40.0728582" lon="-105.2305968">
  <ele>1602.87</ele>
  <time>2026-08-27T18:31:20Z</time>
  <course>10.02</course>
  <speed>0.08602325267042626</speed>
  <fix>3d</fix>
</trkpt>
<trkpt lat="40.0728583" lon="-105.2305969">
  <ele>1602.64</ele>
  <time>2026-08-27T18:31:20Z</time>
  <course>310.82</course>
  <speed>0.11</speed>
  <fix>3d</fix>
</trkpt>
<trkpt lat="40.0728582" lon="-105.2305968">
  <ele>1602.89</ele>
  <time>2026-08-27T18:31:20Z</time>
  <course>10.02</course>
  <speed>0.08602325267042626</speed>
  <fix>3d</fix>
</trkpt>
<trkpt lat="40.0728583" lon="-105.230597">
  <ele>1603.0</ele>
  <time>2026-08-27T18:31:20Z</time>
  <course>10.02</course>
  <speed>0.08602325267042626</speed>
  <fix>3d</fix>
</trkpt>
<trkpt lat="40.0728584" lon="-105.230597">
  <ele>1602.77</ele>
  <time>2026-08-27T18:31:20Z</time>
  <course>310.76</course>
  <speed>0.11</speed>
  <fix>3d</fix>
</trkpt>
<trkpt lat="40.0728583" lon="-105.230597">
  <ele>1603.0</ele>
  <time>2026-08-27T18:31:20Z</time>
  <course>10.02</course>
  <speed>0.08602325267042626</speed>
  <fix>3d</fix>
</trkpt>
<trkpt lat="40.0728585" lon="-105.2305972">
  <ele>1603.12</ele>
  <time>2026-08-27T18:31:20Z</time>
  <course>10.02</course>
  <speed>0.08602325267042626</speed>
  <fix>3d</fix>
</trkpt>
<trkpt lat="40.0728586" lon="-105.2305973">
  <ele>1602.9</ele>
  <time>2026-08-27T18:31:20Z</time>
  <course>310.71</course>
  <speed>0.11</speed>
  <fix>3d</fix>
</trkpt>
<trkpt lat="40.0728585" lon="-105.2305972">
  <ele>1603.14</ele>
  <time>2026-08-27T18:31:20Z</time>
  <course>10.02</course>
  <speed>0.08602325267042626</speed>
  <fix>3d</fix>
</trkpt>
<trkpt lat="40.0728586" lon="-105.2305974">
  <ele>1603.25</ele>
  <time>2026-08-27T18:31:20Z</time>
  <course>10.02</course>
  <speed>0.08602325267042626</speed>
  <fix>3d</fix>
</trkpt>
<trkpt lat="40.0728588" lon="-105.2305975">
  <ele>1603.03</ele>
  <time>2026-08-27T18:31:20Z</time>
  <course>310.62</course>
  <speed>0.11</speed>
  <fix>3d</fix>
</trkpt>
<trkpt lat="40.0728586" lon="-105.2305974">
  <ele>1603.27</ele>
  <time>2026-08-27T18:31:20Z</time>
  <course>10.02</course>
  <speed>0.08602325267042626</speed>
  <fix>3d</fix>
</trkpt>
<trkpt lat="40.0728588" lon="-105.2305976">
  <ele>1603.38</ele>
  <time>2026-08-27T18:31:20Z</time>
  <course>10.02</course>
  <speed>0.08602325267042626</speed>
  <fix>3d</fix>
</trkpt>
<trkpt lat="40.0728589" lon="-105.2305978">
  <ele>1603.15</ele>
  <time>2026-08-27T18:31:20Z</time>
  <course>310.56</course>
  <speed>0.11</speed>
  <fix>3d</fix>
</trkpt>
<trkpt lat="40.0728588" lon="-105.2305976">
  <ele>1603.38</ele>
  <time>2026-08-27T18:31:20Z</time>
  <course>10.02</course>
  <speed>0.08602325267042626</speed>
  <fix>3d</fix>
</trkpt>
<trkpt lat="40.0728589" lon="-105.2305978">
  <ele>1603.5</ele>
  <time>2026-08-27T18:31:20Z</time>
  <course>10.02</course>
  <speed>0.08602325267042626</speed>
  <fix>3d</fix>
</trkpt>
<trkpt lat="40.072859" lon="-105.2305979">
  <ele>1603.28</ele>
  <time>2026-08-27T18:31:20Z</time>
  <course>310.54</course>
  <speed>0.11</speed>
  <fix>3d</fix>
</trkpt>
<trkpt lat="40.0728589" lon="-105.2305979">
  <ele>1603.52</ele>
  <time>2026-08-27T18:31:20Z</time>
  <course>10.02</course>
  <speed>0.08602325267042626</speed>
  <fix>3d</fix>
</trkpt>
<trkpt lat="40.072859" lon="-105.230598">
  <ele>1603.63</ele>
  <time>2026-08-27T18:31:20Z</time>
  <course>10.02</course>
  <speed>0.08602325267042626</speed>
  <fix>3d</fix>
</trkpt>
<trkpt lat="40.0728591" lon="-105.2305982">
  <ele>1603.4</ele>
  <time>2026-08-27T18:31:20Z</time>
  <course>310.52</course>
  <speed>0.11</speed>
  <fix>3d</fix>
</trkpt>
<trkpt lat="40.0728591" lon="-105.2305981">
  <ele>1603.65</ele>
  <time>2026-08-27T18:31:20Z</time>
  <course>10.02</course>
  <speed>0.08602325267042626</speed>
  <fix>3d</fix>
</trkpt>
<trkpt lat="40.0728592" lon="-105.2305982">
  <ele>1603.76</ele>
  <time>2026-08-27T18:31:20Z</time>
  <course>10.02</course>
  <speed>0.08602325267042626</speed>
  <fix>3d</fix>
</trkpt>
<trkpt lat="40.0728593" lon="-105.2305983">
  <ele>1603.53</ele>
  <time>2026-08-27T18:31:20Z</time>
  <course>310.63</course>
  <speed>0.11</speed>
  <fix>3d</fix>
</trkpt>
<trkpt lat="40.0728592" lon="-105.2305982">
  <ele>1603.76</ele>
  <time>2026-08-27T18:31:20Z</time>
  <course>10.02</course>
  <speed>0.08602325267042626</speed>
  <fix>3d</fix>
</trkpt>
<trkpt lat="40.0728593" lon="-105.2305984">
  <ele>1603.88</ele>
  <time>2026-08-27T18:31:20Z</time>
  <course>10.02</course>
  <speed>0.08602325267042626</speed>
  <fix>3d</fix>
</trkpt>
<trkpt lat="40.0728595" lon="-105.2305986">
  <ele>1603.65</ele>
  <time>2026-08-27T18:31:20Z</time>
  <course>310.74</course>
  <speed>0.11</speed>
  <fix>3d</fix>
</trkpt>
<trkpt lat="40.0728593" lon="-105.2305985">
  <ele>1603.9</ele>
  <time>2026-08-27T18:31:20Z</time>
  <course>10.02</course>
  <speed>0.08602325267042626</speed>
  <fix>3d</fix>
</trkpt>
<trkpt lat="40.0728594" lon="-105.2305987">
  <ele>1604.01</ele>
  <time>2026-08-27T18:31:20Z</time>
  <course>10.01</course>
  <speed>0.08602325267042626</speed>
  <fix>3d</fix>
</trkpt>
<trkpt lat="40.0728596" lon="-105.2305988">
  <ele>1603.78</ele>
  <time>2026-08-27T18:31:20Z</time>
  <course>310.65</course>
  <speed>0.11</speed>
  <fix>3d</fix>
</trkpt>
<trkpt lat="40.0728594" lon="-105.2305987">
  <ele>1604.01</ele>
  <time>2026-08-27T18:31:20Z</time>
  <course>10.01</course>
  <speed>0.08602325267042626</speed>
  <fix>3d</fix>
</trkpt>
<trkpt lat="40.0728596" lon="-105.2305989">
  <ele>1604.13</ele>
  <time>2026-08-27T18:31:20Z</time>
  <course>10.01</course>
  <speed>0.08602325267042626</speed>
  <fix>3d</fix>
</trkpt>
<trkpt lat="40.0728597" lon="-105.2305989">
  <ele>1603.9</ele>
  <time>2026-08-27T18:31:20Z</time>
  <course>310.45</course>
  <speed>0.11</speed>
  <fix>3d</fix>
</trkpt>
<trkpt lat="40.0728596" lon="-105.2305989">
  <ele>1604.15</ele>
  <time>2026-08-27T18:31:20Z</time>
  <course>10.01</course>
  <speed>0.08602325267042626</speed>
  <fix>3d</fix>
</trkpt>
<trkpt lat="40.0728597" lon="-105.2305991">
  <ele>1604.26</ele>
  <time>2026-08-27T18:31:20Z</time>
  <course>10.01</course>
  <speed>0.08602325267042626</speed>
  <fix>3d</fix>
</trkpt>
<trkpt lat="40.0728599" lon="-105.2305992">
  <ele>1604.03</ele>
  <time>2026-08-27T18:31:20Z</time>
  <course>310.31</course>
  <speed>0.11</speed>
  <fix>3d</fix>
</trkpt>
<trkpt lat="40.0728597" lon="-105.2305991">
  <ele>1604.28</ele>
  <time>2026-08-27T18:31:20Z</time>
  <course>10.01</course>
  <speed>0.08602325267042626</speed>
  <fix>3d</fix>
</trkpt>
<trkpt lat="40.0728599" lon="-105.2305993">
  <ele>1604.39</ele>
  <time>2026-08-27T18:31:20Z</time>
  <course>10.01</course>
  <speed>0.08602325267042626</speed>
  <fix>3d</fix>
</trkpt>
<trkpt lat="40.07286" lon="-105.2305993">
  <ele>1604.15</ele>
  <time>2026-08-27T18:31:20Z</time>
  <course>310.25</course>
  <speed>0.11</speed>
  <fix>3d</fix>
</trkpt>
<trkpt lat="40.0728599" lon="-105.2305993">
  <ele>1604.41</ele>
  <time>2026-08-27T18:31:20Z</time>
  <course>10.01</course>
  <speed>0.08602325267042626</speed>
  <fix>3d</fix>
</trkpt>
<trkpt lat="40.07286" lon="-105.2305995">
  <ele>1604.51</ele>
  <time>2026-08-27T18:31:20Z</time>
  <course>10.01</course>
  <speed>0.07810249675906654</speed>
  <fix>3d</fix>
</trkpt>
<trkpt lat="40.0728601" lon="-105.2305996">
  <ele>1604.28</ele>
  <time>2026-08-27T18:31:20Z</time>
  <course>310.17</course>
  <speed>0.11</speed>
  <fix>3d</fix>
</trkpt>
<trkpt lat="40.07286" lon="-105.2305995">
  <ele>1604.53</ele>
  <time>2026-08-27T18:31:20Z</time>
  <course>10.01</course>
  <speed>0.07810249675906654</speed>
  <fix>3d</fix>
</trkpt>
<trkpt lat="40.0728601" lon="-105.2305997">
  <ele>1604.64</ele>
  <time>2026-08-27T18:31:20Z</time>
  <course>10.01</course>
  <speed>0.07810249675906654</speed>
  <fix>3d</fix>
</trkpt>
<trkpt lat="40.0728603" lon="-105.2305998">
  <ele>1604.4</ele>
  <time>2026-08-27T18:31:20Z</time>
  <course>310.3</course>
  <speed>0.11</speed>
  <fix>3d</fix>
</trkpt>
<trkpt lat="40.0728601" lon="-105.2305997">
  <ele>1604.64</ele>
  <time>2026-08-27T18:31:20Z</time>
  <course>10.01</course>
  <speed>0.07810249675906654</speed>
  <fix>3d</fix>
</trkpt>
<trkpt lat="40.0728603" lon="-105.2305999">
  <ele>1604.76</ele>
  <time>2026-08-27T18:31:20Z</time>
  <course>10.01</course>
  <speed>0.07810249675906654</speed>
  <fix>3d</fix>
</trkpt>
<trkpt lat="40.0728604" lon="-105.2306001">
  <ele>1604.53</ele>
  <time>2026-08-27T18:31:20Z</time>
  <course>310.65</course>
  <speed>0.11</speed>
  <fix>3d</fix>
</trkpt>
<trkpt lat="40.0728603" lon="-105.2305999">
  <ele>1604.78</ele>
  <time>2026-08-27T18:31:20Z</time>
  <course>10.01</course>
  <speed>0.07810249675906654</speed>
  <fix>3d</fix>
</trkpt>
<trkpt lat="40.0728604" lon="-105.2306001">
  <ele>1604.88</ele>
  <time>2026-08-27T18:31:20Z</time>
  <course>10.01</course>
  <speed>0.07810249675906654</speed>
  <fix>3d</fix>
</trkpt>
<trkpt lat="40.0728605" lon="-105.2306002">
  <ele>1604.65</ele>
  <time>2026-08-27T18:31:20Z</time>
  <course>310.61</course>
  <speed>0.11</speed>
  <fix>3d</fix>
</trkpt>
<trkpt lat="40.0728604" lon="-105.2306001">
  <ele>1604.9</ele>
  <time>2026-08-27T18:31:20Z</time>
  <course>10.01</course>
  <speed>0.07810249675906654</speed>
  <fix>3d</fix>
</trkpt>
<trkpt lat="40.0728605" lon="-105.2306003">
  <ele>1605.0</ele>
  <time>2026-08-27T18:31:20Z</time>
  <course>10.01</course>
  <speed>0.07810249675906654</speed>
  <fix>3d</fix>
</trkpt>
<trkpt lat="40.0728607" lon="-105.2306005">
  <ele>1604.78</ele>
  <time>2026-08-27T18:31:20Z</time>
  <course>310.26</course>
  <speed>0.11</speed>
  <fix>3d</fix>
</trkpt>
<trkpt lat="40.0728606" lon="-105.2306003">
  <ele>1605.02</ele>
  <time>2026-08-27T18:31:20Z</time>
  <course>10.01</course>
  <speed>0.07810249675906654</speed>
  <fix>3d</fix>
</trkpt>
<trkpt lat="40.0728607" lon="-105.2306005">
  <ele>1605.12</ele>
  <time>2026-08-27T18:31:20Z</time>
  <course>10.01</course>
  <speed>0.08602325267042626</speed>
  <fix>3d</fix>
</trkpt>
<trkpt lat="40.0728608" lon="-105.2306007">
  <ele>1604.9</ele>
  <time>2026-08-27T18:31:20Z</time>
  <course>309.99</course>
  <speed>0.11</speed>
  <fix>3d</fix>
</trkpt>
<trkpt lat="40.0728607" lon="-105.2306006">
  <ele>1605.14</ele>
  <time>2026-08-27T18:31:20Z</time>
  <course>10.01</course>
  <speed>0.08602325267042626</speed>
  <fix>3d</fix>
</trkpt>
<trkpt lat="40.0728608" lon="-105.2306007">
  <ele>1605.24</ele>
  <time>2026-08-27T18:31:20Z</time>
  <course>10.01</course>
  <speed>0.08602325267042626</speed>
  <fix>3d</fix>
</trkpt>
<trkpt lat="40.0728609" lon="-105.2306008">
  <ele>1605.03</ele>
  <time>2026-08-27T18:31:20Z</time>
  <course>309.71</course>
  <speed>0.11</speed>
  <fix>3d</fix>
</trkpt>
<trkpt lat="40.0728608" lon="-105.2306008">
  <ele>1605.26</ele>
  <time>2026-08-27T18:31:20Z</time>
  <course>10.01</course>
  <speed>0.08602325267042626</speed>
  <fix>3d</fix>
</trkpt>
<trkpt lat="40.0728609" lon="-105.2306009">
  <ele>1605.37</ele>
  <time>2026-08-27T18:31:20Z</time>
  <course>10.01</course>
  <speed>0.08602325267042626</speed>
  <fix>3d</fix>
</trkpt>
<trkpt lat="40.0728611" lon="-105.2306011">
  <ele>1605.15</ele>
  <time>2026-08-27T18:31:20Z</time>
  <course>309.47</course>
  <speed>0.11</speed>
  <fix>3d</fix>
</trkpt>
<trkpt lat="40.0728609" lon="-105.2306009">
  <ele>1605.37</ele>
  <time>2026-08-27T18:31:20Z</time>
  <course>10.01</course>
  <speed>0.08602325267042626</speed>
  <fix>3d</fix>
</trkpt>
<trkpt lat="40.0728611" lon="-105.2306012">
  <ele>1605.5</ele>
  <time>2026-08-27T18:31:20Z</time>
  <course>10.01</course>
  <speed>0.08602325267042626</speed>
  <fix>3d</fix>
</trkpt>
<trkpt lat="40.0728612" lon="-105.2306012">
  <ele>1605.28</ele>
  <time>2026-08-27T18:31:20Z</time>
  <course>309.32</course>
  <speed>0.11</speed>
  <fix>3d</fix>
</trkpt>
<trkpt lat="40.0728611" lon="-105.2306012">
  <ele>1605.52</ele>
  <time>2026-08-27T18:31:20Z</time>
  <course>10.01</course>
  <speed>0.08602325267042626</speed>
  <fix>3d</fix>
</trkpt>
<trkpt lat="40.0728612" lon="-105.2306014">
  <ele>1605.63</ele>
  <time>2026-08-27T18:31:20Z</time>
  <course>10.01</course>
  <speed>0.08602325267042626</speed>
  <fix>3d</fix>
</trkpt>
<trkpt lat="40.0728613" lon="-105.2306015">
  <ele>1605.41</ele>
  <time>2026-08-27T18:31:20Z</time>
  <course>309.21</course>
  <speed>0.11</speed>
  <fix>3d</fix>
</trkpt>
<trkpt lat="40.0728612" lon="-105.2306014">
  <ele>1605.65</ele>
  <time>2026-08-27T18:31:20Z</time>
  <course>10.01</course>
  <speed>0.08602325267042626</speed>
  <fix>3d</fix>
</trkpt>
<trkpt lat="40.0728613" lon="-105.2306016">
  <ele>1605.76</ele>
  <time>2026-08-27T18:31:20Z</time>
  <course>10.01</course>
  <speed>0.07810249675906654</speed>
  <fix>3d</fix>
</trkpt>
<trkpt lat="40.0728615" lon="-105.2306016">
  <ele>1605.54</ele>
  <time>2026-08-27T18:31:20Z</time>
  <course>309.24</course>
  <speed>0.11</speed>
  <fix>3d</fix>
</trkpt>
<trkpt lat="40.0728614" lon="-105.2306016">
  <ele>1605.78</ele>
  <time>2026-08-27T18:31:20Z</time>
  <course>10.01</course>
  <speed>0.07810249675906654</speed>
  <fix>3d</fix>
</trkpt>
<trkpt lat="40.0728615" lon="-105.2306018">
  <ele>1605.89</ele>
  <time>2026-08-27T18:31:20Z</time>
  <course>10.01</course>
  <speed>0.07810249675906654</speed>
  <fix>3d</fix>
</trkpt>
<trkpt lat="40.0728616" lon="-105.2306019">
  <ele>1605.67</ele>
  <time>2026-08-27T18:31:20Z</time>
  <course>309.44</course>
  <speed>0.11</speed>
  <fix>3d</fix>
</trkpt>
<trkpt lat="40.0728615" lon="-105.2306018">
  <ele>1605.91</ele>
  <time>2026-08-27T18:31:20Z</time>
  <course>10.01</course>
  <speed>0.07810249675906654</speed>
  <fix>3d</fix>
</trkpt>
<trkpt lat="40.0728616" lon="-105.230602">
  <ele>1606.02</ele>
  <time>2026-08-27T18:31:20Z</time>
  <course>10.01</course>
  <speed>0.07810249675906654</speed>
  <fix>3d</fix>
</trkpt>
<trkpt lat="40.0728617" lon="-105.2306021">
  <ele>1605.8</ele>
  <time>2026-08-27T18:31:20Z</time>
  <course>309.53</course>
  <speed>0.11</speed>
  <fix>3d</fix>
</trkpt>
<trkpt lat="40.0728616" lon="-105.230602">
  <ele>1606.02</ele>
  <time>2026-08-27T18:31:20Z</time>
  <course>10.01</course>
  <speed>0.07810249675906654</speed>
  <fix>3d</fix>
</trkpt>
<trkpt lat="40.0728617" lon="-105.2306022">
  <ele>1606.14</ele>
  <time>2026-08-27T18:31:20Z</time>
  <course>10.01</course>
  <speed>0.07810249675906654</speed>
  <fix>3d</fix>
</trkpt>
<trkpt lat="40.0728618" lon="-105.2306022">
  <ele>1605.92</ele>
  <time>2026-08-27T18:31:20Z</time>
  <course>309.39</course>
  <speed>0.11</speed>
  <fix>3d</fix>
</trkpt>
<trkpt lat="40.0728617" lon="-105.2306022">
  <ele>1606.16</ele>
  <time>2026-08-27T18:31:20Z</time>
  <course>10.01</course>
  <speed>0.07810249675906654</speed>
  <fix>3d</fix>
</trkpt>
<trkpt lat="40.0728619" lon="-105.2306024">
  <ele>1606.27</ele>
  <time>2026-08-27T18:31:20Z</time>
  <course>10.01</course>
  <speed>0.07810249675906654</speed>
  <fix>3d</fix>
</trkpt>
<trkpt lat="40.072862" lon="-105.2306025">
  <ele>1606.05</ele>
  <time>2026-08-27T18:31:20Z</time>
  <course>309.3</course>
  <speed>0.11</speed>
  <fix>3d</fix>
</trkpt>
<trkpt lat="40.0728619" lon="-105.2306024">
  <ele>1606.29</ele>
  <time>2026-08-27T18:31:20Z</time>
  <course>10.01</course>
  <speed>0.07810249675906654</speed>
  <fix>3d</fix>
</trkpt>
<trkpt lat="40.072862" lon="-105.2306026">
  <ele>1606.39</ele>
  <time>2026-08-27T18:31:20Z</time>
  <course>10.01</course>
  <speed>0.07810249675906654</speed>
  <fix>3d</fix>
</trkpt>
<trkpt lat="40.0728621" lon="-105.2306026">
  <ele>1606.17</ele>
  <time>2026-08-27T18:31:20Z</time>
  <course>309.18</course>
  <speed>0.11</speed>
  <fix>3d</fix>
</trkpt>
<trkpt lat="40.072862" lon="-105.2306026">
  <ele>1606.41</ele>
  <time>2026-08-27T18:31:20Z</time>
  <course>10.01</course>
  <speed>0.07810249675906654</speed>
  <fix>3d</fix>
</trkpt>
<trkpt lat="40.0728621" lon="-105.2306028">
  <ele>1606.52</ele>
  <time>2026-08-27T18:31:20Z</time>
  <course>10.01</course>
  <speed>0.07211102550927978</speed>
  <fix>3d</fix>
</trkpt>
<trkpt lat="40.0728622" lon="-105.2306029">
  <ele>1606.3</ele>
  <time>2026-08-27T18:31:20Z</time>
  <course>308.92</course>
  <speed>0.11</speed>
  <fix>3d</fix>
</trkpt>
<trkpt lat="40.0728621" lon="-105.2306028">
  <ele>1606.52</ele>
  <time>2026-08-27T18:31:20Z</time>
  <course>10.01</course>
  <speed>0.07211102550927978</speed>
  <fix>3d</fix>
</trkpt>
<trkpt lat="40.0728622" lon="-105.230603">
  <ele>1606.64</ele>
  <time>2026-08-27T18:31:20Z</time>
  <course>10.01</course>
  <speed>0.07211102550927978</speed>
  <fix>3d</fix>
</trkpt>
<trkpt lat="40.0728624" lon="-105.2306031">
  <ele>1606.42</ele>
  <time>2026-08-27T18:31:20Z</time>
  <course>308.7</course>
  <speed>0.11</speed>
  <fix>3d</fix>
</trkpt>
<trkpt lat="40.0728622" lon="-105.230603">
  <ele>1606.66</ele>
  <time>2026-08-27T18:31:20Z</time>
  <course>10.01</course>
  <speed>0.07211102550927978</speed>
  <fix>3d</fix>
</trkpt>
<trkpt lat="40.0728624" lon="-105.2306032">
  <ele>1606.76</ele>
  <time>2026-08-27T18:31:20Z</time>
  <course>10.01</course>
  <speed>0.07211102550927978</speed>
  <fix>3d</fix>
</trkpt>
<trkpt lat="40.0728625" lon="-105.2306034">
  <ele>1606.55</ele>
  <time>2026-08-27T18:31:20Z</time>
  <course>308.51</course>
  <speed>0.11</speed>
  <fix>3d</fix>
</trkpt>
<trkpt lat="40.0728624" lon="-105.2306032">
  <ele>1606.77</ele>
  <time>2026-08-27T18:31:20Z</time>
  <course>10.01</course>
  <speed>0.07211102550927978</speed>
  <fix>3d</fix>
</trkpt>
<trkpt lat="40.0728625" lon="-105.2306034">
  <ele>1606.89</ele>
  <time>2026-08-27T18:31:20Z</time>
  <course>10.01</course>
  <speed>0.07211102550927978</speed>
  <fix>3d</fix>
</trkpt>
<trkpt lat="40.0728626" lon="-105.2306036">
  <ele>1606.67</ele>
  <time>2026-08-27T18:31:20Z</time>
  <course>308.34</course>
  <speed>0.11</speed>
  <fix>3d</fix>
</trkpt>
<trkpt lat="40.0728625" lon="-105.2306034">
  <ele>1606.91</ele>
  <time>2026-08-27T18:31:20Z</time>
  <course>10.01</course>
  <speed>0.07211102550927978</speed>
  <fix>3d</fix>
</trkpt>
<trkpt lat="40.0728626" lon="-105.2306036">
  <ele>1607.02</ele>
  <time>2026-08-27T18:31:20Z</time>
  <course>10.01</course>
  <speed>0.07211102550927978</speed>
  <fix>3d</fix>
</trkpt>
<trkpt lat="40.0728627" lon="-105.2306037">
  <ele>1606.8</ele>
  <time>2026-08-27T18:31:20Z</time>
  <course>308.17</course>
  <speed>0.11</speed>
  <fix>3d</fix>
</trkpt>
<trkpt lat="40.0728626" lon="-105.2306036">
  <ele>1607.04</ele>
  <time>2026-08-27T18:31:20Z</time>
  <course>10.01</course>
  <speed>0.07211102550927978</speed>
  <fix>3d</fix>
</trkpt>
<trkpt lat="40.0728627" lon="-105.2306038">
  <ele>1607.15</ele>
  <time>2026-08-27T18:31:20Z</time>
  <course>10.01</course>
  <speed>0.07211102550927978</speed>
  <fix>3d</fix>
</trkpt>
<trkpt lat="40.0728628" lon="-105.230604">
  <ele>1606.93</ele>
  <time>2026-08-27T18:31:20Z</time>
  <course>308.02</course>
  <speed>0.11</speed>
  <fix>3d</fix>
</trkpt>
<trkpt lat="40.0728627" lon="-105.2306038">
  <ele>1607.15</ele>
  <time>2026-08-27T18:31:20Z</time>
  <course>10.01</course>
  <speed>0.07211102550927978</speed>
  <fix>3d</fix>
</trkpt>
<trkpt lat="40.0728628" lon="-105.230604">
  <ele>1607.27</ele>
  <time>2026-08-27T18:31:20Z</time>
  <course>10.01</course>
  <speed>0.07211102550927978</speed>
  <fix>3d</fix>
</trkpt>
<trkpt lat="40.072863" lon="-105.2306041">
  <ele>1607.06</ele>
  <time>2026-08-27T18:31:20Z</time>
  <course>307.82</course>
  <speed>0.11</speed>
  <fix>3d</fix>
</trkpt>
<trkpt lat="40.0728629" lon="-105.2306041">
  <ele>1607.29</ele>
  <time>2026-08-27T18:31:20Z</time>
  <course>10.01</course>
  <speed>0.07211102550927978</speed>
  <fix>3d</fix>
</trkpt>
<trkpt lat="40.072863" lon="-105.2306042">
  <ele>1607.39</ele>
  <time>2026-08-27T18:31:20Z</time>
  <course>10.01</course>
  <speed>0.07211102550927978</speed>
  <fix>3d</fix>
</trkpt>
<trkpt lat="40.0728631" lon="-105.2306044">
  <ele>1607.18</ele>
  <time>2026-08-27T18:31:20Z</time>
  <course>307.66</course>
  <speed>0.11</speed>
  <fix>3d</fix>
</trkpt>
<trkpt lat="40.072863" lon="-105.2306043">
  <ele>1607.41</ele>
  <time>2026-08-27T18:31:20Z</time>
  <course>10.01</course>
  <speed>0.07211102550927978</speed>
  <fix>3d</fix>
</trkpt>
<trkpt lat="40.0728631" lon="-105.2306044">
  <ele>1607.52</ele>
  <time>2026-08-27T18:31:20Z</time>
  <course>10.01</course>
  <speed>0.07211102550927978</speed>
  <fix>3d</fix>
</trkpt>
<trkpt lat="40.0728632" lon="-105.2306045">
  <ele>1607.31</ele>
  <time>2026-08-27T18:31:20Z</time>
  <course>307.63</course>
  <speed>0.11</speed>
  <fix>3d</fix>
</trkpt>
<trkpt lat="40.0728631" lon="-105.2306044">
  <ele>1607.52</ele>
  <time>2026-08-27T18:31:20Z</time>
  <course>10.01</course>
  <speed>0.07211102550927978</speed>
  <fix>3d</fix>
</trkpt>
<trkpt lat="40.0728632" lon="-105.2306046">
  <ele>1607.65</ele>
  <time>2026-08-27T18:31:20Z</time>
  <course>10.01</course>
  <speed>0.07211102550927978</speed>
  <fix>3d</fix>
</trkpt>
<trkpt lat="40.0728633" lon="-105.2306048">
  <ele>1607.43</ele>
  <time>2026-08-27T18:31:20Z</time>
  <course>307.54</course>
  <speed>0.11</speed>
  <fix>3d</fix>
</trkpt>
<trkpt lat="40.0728632" lon="-105.2306047">
  <ele>1607.67</ele>
  <time>2026-08-27T18:31:20Z</time>
  <course>10.01</course>
  <speed>0.07211102550927978</speed>
  <fix>3d</fix>
</trkpt>
<trkpt lat="40.0728633" lon="-105.2306049">
  <ele>1607.78</ele>
  <time>2026-08-27T18:31:20Z</time>
  <course>10.02</course>
  <speed>0.07211102550927978</speed>
  <fix>3d</fix>
</trkpt>
<trkpt lat="40.0728634" lon="-105.230605">
  <ele>1607.56</ele>
  <time>2026-08-27T18:31:20Z</time>
  <course>307.57</course>
  <speed>0.11</speed>
  <fix>3d</fix>
</trkpt>
<trkpt lat="40.0728633" lon="-105.2306049">
  <ele>1607.78</ele>
  <time>2026-08-27T18:31:20Z</time>
  <course>10.02</course>
  <speed>0.07211102550927978</speed>
  <fix>3d</fix>
</trkpt>
<trkpt lat="40.0728634" lon="-105.2306051">
  <ele>1607.9</ele>
  <time>2026-08-27T18:31:20Z</time>
  <course>10.02</course>
  <speed>0.08062257748298549</speed>
  <fix>3d</fix>
</trkpt>
<trkpt lat="40.0728636" lon="-105.2306051">
  <ele>1607.69</ele>
  <time>2026-08-27T18:31:20Z</time>
  <course>307.54</course>
  <speed>0.11</speed>
  <fix>3d</fix>
</trkpt>
<trkpt lat="40.0728635" lon="-105.2306051">
  <ele>1607.92</ele>
  <time>2026-08-27T18:31:20Z</time>
  <course>10.02</course>
  <speed>0.08062257748298549</speed>
  <fix>3d</fix>
</trkpt>
<trkpt lat="40.0728636" lon="-105.2306053">
  <ele>1608.03</ele>
  <time>2026-08-27T18:31:20Z</time>
  <course>10.02</course>
  <speed>0.08062257748298549</speed>
  <fix>3d</fix>
</trkpt>
<trkpt lat="40.0728637" lon="-105.2306054">
  <ele>1607.81</ele>
  <time>2026-08-27T18:31:20Z</time>
  <course>307.22</course>
  <speed>0.11</speed>
  <fix>3d</fix>
</trkpt>
<trkpt lat="40.0728636" lon="-105.2306053">
  <ele>1608.04</ele>
  <time>2026-08-27T18:31:20Z</time>
  <course>10.02</course>
  <speed>0.08062257748298549</speed>
  <fix>3d</fix>
</trkpt>
<trkpt lat="40.0728637" lon="-105.2306055">
  <ele>1608.15</ele>
  <time>2026-08-27T18:31:20Z</time>
  <course>10.02</course>
  <speed>0.08062257748298549</speed>
  <fix>3d</fix>
</trkpt>
<trkpt lat="40.0728638" lon="-105.2306055">
  <ele>1607.94</ele>
  <time>2026-08-27T18:31:20Z</time>
  <course>307.04</course>
  <speed>0.11</speed>
  <fix>3d</fix>
</trkpt>
<trkpt lat="40.0728637" lon="-105.2306055">
  <ele>1608.17</ele>
  <time>2026-08-27T18:31:20Z</time>
  <course>10.02</course>
  <speed>0.08062257748298549</speed>
  <fix>3d</fix>
</trkpt>
<trkpt lat="40.0728638" lon="-105.2306057">
  <ele>1608.28</ele>
  <time>2026-08-27T18:31:20Z</time>
  <course>10.01</course>
  <speed>0.08062257748298549</speed>
  <fix>3d</fix>
</trkpt>
<trkpt lat="40.0728639" lon="-105.2306058">
  <ele>1608.06</ele>
  <time>2026-08-27T18:31:20Z</time>
  <course>307.05</course>
  <speed>0.11</speed>
  <fix>3d</fix>
</trkpt>
<trkpt lat="40.0728638" lon="-105.2306057">
  <ele>1608.3</ele>
  <time>2026-08-27T18:31:20Z</time>
  <course>10.01</course>
  <speed>0.08062257748298549</speed>
  <fix>3d</fix>
</trkpt>
<trkpt lat="40.0728639" lon="-105.2306059">
  <ele>1608.41</ele>
  <time>2026-08-27T18:31:20Z</time>
  <course>10.01</course>
  <speed>0.08062257748298549</speed>
  <fix>3d</fix>
</trkpt>
<trkpt lat="40.072864" lon="-105.230606">
  <ele>1608.19</ele>
  <time>2026-08-27T18:31:20Z</time>
  <course>307.07</course>
  <speed>0.11</speed>
  <fix>3d</fix>
</trkpt>
<trkpt lat="40.0728639" lon="-105.2306059">
  <ele>1608.41</ele>
  <time>2026-08-27T18:31:20Z</time>
  <course>10.01</course>
  <speed>0.08062257748298549</speed>
  <fix>3d</fix>
</trkpt>
<trkpt lat="40.072864" lon="-105.2306061">
  <ele>1608.54</ele>
  <time>2026-08-27T18:31:20Z</time>
  <course>10.01</course>
  <speed>0.07211102550927978</speed>
  <fix>3d</fix>
</trkpt>
<trkpt lat="40.0728642" lon="-105.2306063">
  <ele>1608.31</ele>
  <time>2026-08-27T18:31:20Z</time>
  <course>307.03</course>
  <speed>0.11</speed>
  <fix>3d</fix>
</trkpt>
<trkpt lat="40.0728641" lon="-105.2306061">
  <ele>1608.56</ele>
  <time>2026-08-27T18:31:20Z</time>
  <course>10.01</course>
  <speed>0.07211102550927978</speed>
  <fix>3d</fix>
</trkpt>
<trkpt lat="40.0728642" lon="-105.2306063">
  <ele>1608.66</ele>
  <time>2026-08-27T18:31:20Z</time>
  <course>10.01</course>
  <speed>0.07211102550927978</speed>
  <fix>3d</fix>
</trkpt>
<trkpt lat="40.0728643" lon="-105.2306064">
  <ele>1608.44</ele>
  <time>2026-08-27T18:31:20Z</time>
  <course>306.99</course>
  <speed>0.11</speed>
  <fix>3d</fix>
</trkpt>
<trkpt lat="40.0728642" lon="-105.2306063">
  <ele>1608.68</ele>
  <time>2026-08-27T18:31:20Z</time>
  <course>10.01</course>
  <speed>0.07211102550927978</speed>
  <fix>3d</fix>
</trkpt>
<trkpt lat="40.0728643" lon="-105.2306065">
  <ele>1608.78</ele>
  <time>2026-08-27T18:31:20Z</time>
  <course>10.01</course>
  <speed>0.07211102550927978</speed>
  <fix>3d</fix>
</trkpt>
<trkpt lat="40.0728644" lon="-105.2306067">
  <ele>1608.56</ele>
  <time>2026-08-27T18:31:20Z</time>
  <course>306.94</course>
  <speed>0.11</speed>
  <fix>3d</fix>
</trkpt>
<trkpt lat="40.0728643" lon="-105.2306066">
  <ele>1608.8</ele>
  <time>2026-08-27T18:31:20Z</time>
  <course>10.01</course>
  <speed>0.07211102550927978</speed>
  <fix>3d</fix>
</trkpt>
<trkpt lat="40.0728644" lon="-105.2306067">
  <ele>1608.9</ele>
  <time>2026-08-27T18:31:20Z</time>
  <course>10.01</course>
  <speed>0.07211102550927978</speed>
  <fix>3d</fix>
</trkpt>
<trkpt lat="40.0728645" lon="-105.2306069">
  <ele>1608.68</ele>
  <time>2026-08-27T18:31:20Z</time>
  <course>306.94</course>
  <speed>0.1</speed>
  <fix>3d</fix>
</trkpt>
<trkpt lat="40.0728644" lon="-105.2306068">
  <ele>1608.92</ele>
  <time>2026-08-27T18:31:20Z</time>
  <course>10.01</course>
  <speed>0.07211102550927978</speed>
  <fix>3d</fix>
</trkpt>
<trkpt lat="40.0728645" lon="-105.2306069">
  <ele>1609.03</ele>
  <time>2026-08-27T18:31:20Z</time>
  <course>10.01</course>
  <speed>0.07211102550927978</speed>
  <fix>3d</fix>
</trkpt>
<trkpt lat="40.0728646" lon="-105.230607">
  <ele>1608.81</ele>
  <time>2026-08-27T18:31:20Z</time>
  <course>306.98</course>
  <speed>0.1</speed>
  <fix>3d</fix>
</trkpt>
<trkpt lat="40.0728645" lon="-105.2306069">
  <ele>1609.03</ele>
  <time>2026-08-27T18:31:20Z</time>
  <course>10.01</course>
  <speed>0.07211102550927978</speed>
  <fix>3d</fix>
</trkpt>
<trkpt lat="40.0728646" lon="-105.2306071">
  <ele>1609.15</ele>
  <time>2026-08-27T18:31:20Z</time>
  <course>10.01</course>
  <speed>0.07211102550927978</speed>
  <fix>3d</fix>
</trkpt>
<trkpt lat="40.0728648" lon="-105.2306073">
  <ele>1608.93</ele>
  <time>2026-08-27T18:31:20Z</time>
  <course>306.95</course>
  <speed>0.1</speed>
  <fix>3d</fix>
</trkpt>
<trkpt lat="40.0728646" lon="-105.2306072">
  <ele>1609.17</ele>
  <time>2026-08-27T18:31:20Z</time>
  <course>10.01</course>
  <speed>0.07211102550927978</speed>
  <fix>3d</fix>
</trkpt>
<trkpt lat="40.0728647" lon="-105.2306074">
  <ele>1609.27</ele>
  <time>2026-08-27T18:31:20Z</time>
  <course>10.01</course>
  <speed>0.07211102550927978</speed>
  <fix>3d</fix>
</trkpt>
<trkpt lat="40.0728649" lon="-105.2306074">
  <ele>1609.06</ele>
  <time>2026-08-27T18:31:20Z</time>
  <course>306.9</course>
  <speed>0.1</speed>
  <fix>3d</fix>
</trkpt>
<trkpt lat="40.0728648" lon="-105.2306074">
  <ele>1609.28</ele>
  <time>2026-08-27T18:31:20Z</time>
  <course>10.01</course>
  <speed>0.07211102550927978</speed>
  <fix>3d</fix>
</trkpt>
<trkpt lat="40.0728649" lon="-105.2306076">
  <ele>1609.39</ele>
  <time>2026-08-27T18:31:20Z</time>
  <course>10.01</course>
  <speed>0.07211102550927978</speed>
  <fix>3d</fix>
</trkpt>
<trkpt lat="40.072865" lon="-105.2306077">
  <ele>1609.18</ele>
  <time>2026-08-27T18:31:20Z</time>
  <course>306.94</course>
  <speed>0.1</speed>
  <fix>3d</fix>
</trkpt>
<trkpt lat="40.0728649" lon="-105.2306076">
  <ele>1609.41</ele>
  <time>2026-08-27T18:31:20Z</time>
  <course>10.01</course>
  <speed>0.07211102550927978</speed>
  <fix>3d</fix>
</trkpt>
<trkpt lat="40.072865" lon="-105.2306078">
  <ele>1609.52</ele>
  <time>2026-08-27T18:31:20Z</time>
  <course>10.01</course>
  <speed>0.07211102550927978</speed>
  <fix>3d</fix>
</trkpt>
<trkpt lat="40.0728651" lon="-105.2306079">
  <ele>1609.31</ele>
  <time>2026-08-27T18:31:20Z</time>
  <course>307.02</course>
  <speed>0.1</speed>
  <fix>3d</fix>
</trkpt>
<trkpt lat="40.072865" lon="-105.2306078">
  <ele>1609.54</ele>
  <time>2026-08-27T18:31:20Z</time>
  <course>10.01</course>
  <speed>0.07211102550927978</speed>
  <fix>3d</fix>
</trkpt>
<trkpt lat="40.0728651" lon="-105.230608">
  <ele>1609.65</ele>
  <time>2026-08-27T18:31:20Z</time>
  <course>10.01</course>
  <speed>0.07211102550927978</speed>
  <fix>3d</fix>
</trkpt>
<trkpt lat="40.0728652" lon="-105.230608">
  <ele>1609.44</ele>
  <time>2026-08-27T18:31:20Z</time>
  <course>306.95</course>
  <speed>0.1</speed>
  <fix>3d</fix>
</trkpt>
<trkpt lat="40.0728651" lon="-105.230608">
  <ele>1609.67</ele>
  <time>2026-08-27T18:31:20Z</time>
  <course>10.01</course>
  <speed>0.07211102550927978</speed>
  <fix>3d</fix>
</trkpt>
<trkpt lat="40.0728652" lon="-105.2306082">
  <ele>1609.78</ele>
  <time>2026-08-27T18:31:20Z</time>
  <course>10.02</course>
  <speed>0.07211102550927978</speed>
  <fix>3d</fix>
</trkpt>
<trkpt lat="40.0728654" lon="-105.2306083">
  <ele>1609.57</ele>
  <time>2026-08-27T18:31:20Z</time>
  <course>307.02</course>
  <speed>0.1</speed>
  <fix>3d</fix>
</trkpt>
<trkpt lat="40.0728652" lon="-105.2306082">
  <ele>1609.78</ele>
  <time>2026-08-27T18:31:20Z</time>
  <course>10.02</course>
  <speed>0.07211102550927978</speed>
  <fix>3d</fix>
</trkpt>
<trkpt lat="40.0728653" lon="-105.2306084">
  <ele>1609.9</ele>
  <time>2026-08-27T18:31:20Z</time>
  <course>10.01</course>
  <speed>0.07211102550927978</speed>
  <fix>3d</fix>
</trkpt>
<trkpt lat="40.0728655" lon="-105.2306084">
  <ele>1609.7</ele>
  <time>2026-08-27T18:31:20Z</time>
  <course>307.13</course>
  <speed>0.1</speed>
  <fix>3d</fix>
</trkpt>
<trkpt lat="40.0728654" lon="-105.2306084">
  <ele>1609.92</ele>
  <time>2026-08-27T18:31:20Z</time>
  <course>10.01</course>
  <speed>0.07211102550927978</speed>
  <fix>3d</fix>
</trkpt>
<trkpt lat="40.0728655" lon="-105.2306086">
  <ele>1610.03</ele>
  <time>2026-08-27T18:31:20Z</time>
  <course>10.01</course>
  <speed>0.07211102550927978</speed>
  <fix>3d</fix>
</trkpt>
<trkpt lat="40.0728656" lon="-105.2306087">
  <ele>1609.82</ele>
  <time>2026-08-27T18:31:20Z</time>
  <course>307.04</course>
  <speed>0.1</speed>
  <fix>3d</fix>
</trkpt>
<trkpt lat="40.0728655" lon="-105.2306086">
  <ele>1610.06</ele>
  <time>2026-08-27T18:31:20Z</time>
  <course>10.01</course>
  <speed>0.07211102550927978</speed>
  <fix>3d</fix>
</trkpt>
<trkpt lat="40.0728656" lon="-105.2306088">
  <ele>1610.16</ele>
  <time>2026-08-27T18:31:20Z</time>
  <course>10.01</course>
  <speed>0.07211102550927978</speed>
  <fix>3d</fix>
</trkpt>
<trkpt lat="40.0728657" lon="-105.2306088">
  <ele>1609.95</ele>
  <time>2026-08-27T18:31:20Z</time>
  <course>306.92</course>
  <speed>0.1</speed>
  <fix>3d</fix>
</trkpt>
<trkpt lat="40.0728656" lon="-105.2306088">
  <ele>1610.18</ele>
  <time>2026-08-27T18:31:20Z</time>
  <course>10.01</course>
  <speed>0.07211102550927978</speed>
  <fix>3d</fix>
</trkpt>
<trkpt lat="40.0728657" lon="-105.230609">
  <ele>1610.29</ele>
  <time>2026-08-27T18:31:20Z</time>
  <course>10.01</course>
  <speed>0.07211102550927978</speed>
  <fix>3d</fix>
</trkpt>
<trkpt lat="40.0728658" lon="-105.2306091">
  <ele>1610.08</ele>
  <time>2026-08-27T18:31:20Z</time>
  <course>306.64</course>
  <speed>0.1</speed>
  <fix>3d</fix>
</trkpt>
<trkpt lat="40.0728657" lon="-105.230609">
  <ele>1610.29</ele>
  <time>2026-08-27T18:31:20Z</time>
  <course>10.01</course>
  <speed>0.07211102550927978</speed>
  <fix>3d</fix>
</trkpt>
<trkpt lat="40.0728658" lon="-105.2306092">
  <ele>1610.42</ele>
  <time>2026-08-27T18:31:20Z</time>
  <course>10.01</course>
  <speed>0.07211102550927978</speed>
  <fix>3d</fix>
</trkpt>
<trkpt lat="40.072866" lon="-105.2306093">
  <ele>1610.2</ele>
  <time>2026-08-27T18:31:20Z</time>
  <course>306.47</course>
  <speed>0.1</speed>
  <fix>3d</fix>
</trkpt>
<trkpt lat="40.0728658" lon="-105.2306092">
  <ele>1610.44</ele>
  <time>2026-08-27T18:31:20Z</time>
  <course>10.01</course>
  <speed>0.07211102550927978</speed>
  <fix>3d</fix>
</trkpt>
<trkpt lat="40.0728659" lon="-105.2306094">
  <ele>1610.55</ele>
  <time>2026-08-27T18:31:20Z</time>
  <course>10.01</course>
  <speed>0.07211102550927978</speed>
  <fix>3d</fix>
</trkpt>
<trkpt lat="40.0728661" lon="-105.2306094">
  <ele>1610.33</ele>
  <time>2026-08-27T18:31:20Z</time>
  <course>306.59</course>
  <speed>0.1</speed>
  <fix>3d</fix>
</trkpt>
<trkpt lat="40.0728659" lon="-105.2306094">
  <ele>1610.55</ele>
  <time>2026-08-27T18:31:20Z</time>
  <course>10.01</course>
  <speed>0.07211102550927978</speed>
  <fix>3d</fix>
</trkpt>
<trkpt lat="40.072866" lon="-105.2306096">
  <ele>1610.67</ele>
  <time>2026-08-27T18:31:20Z</time>
  <course>10.01</course>
  <speed>0.07211102550927978</speed>
  <fix>3d</fix>
</trkpt>
<trkpt lat="40.0728662" lon="-105.2306097">
  <ele>1610.45</ele>
  <time>2026-08-27T18:31:20Z</time>
  <course>306.68</course>
  <speed>0.1</speed>
  <fix>3d</fix>
</trkpt>
<trkpt lat="40.0728661" lon="-105.2306096">
  <ele>1610.69</ele>
  <time>2026-08-27T18:31:20Z</time>
  <course>10.01</course>
  <speed>0.07211102550927978</speed>
  <fix>3d</fix>
</trkpt>
<trkpt lat="40.0728662" lon="-105.2306098">
  <ele>1610.8</ele>
  <time>2026-08-27T18:31:20Z</time>
  <course>10.01</course>
  <speed>0.07211102550927978</speed>
  <fix>3d</fix>
</trkpt>
<trkpt lat="40.0728663" lon="-105.2306098">
  <ele>1610.58</ele>
  <time>2026-08-27T18:31:20Z</time>
  <course>306.64</course>
  <speed>0.1</speed>
  <fix>3d</fix>
</trkpt>
<trkpt lat="40.0728662" lon="-105.2306098">
  <ele>1610.82</ele>
  <time>2026-08-27T18:31:20Z</time>
  <course>10.01</course>
  <speed>0.07211102550927978</speed>
  <fix>3d</fix>
</trkpt>
<trkpt lat="40.0728663" lon="-105.23061">
  <ele>1610.92</ele>
  <time>2026-08-27T18:31:20Z</time>
  <course>10.01</course>
  <speed>0.07211102550927978</speed>
  <fix>3d</fix>
</trkpt>
<trkpt lat="40.0728664" lon="-105.2306101">
  <ele>1610.7</ele>
  <time>2026-08-27T18:31:20Z</time>
  <course>306.58</course>
  <speed>0.1</speed>
  <fix>3d</fix>
</trkpt>
<trkpt lat="40.0728663" lon="-105.23061">
  <ele>1610.92</ele>
  <time>2026-08-27T18:31:20Z</time>
  <course>10.01</course>
  <speed>0.07211102550927978</speed>
  <fix>3d</fix>
</trkpt>
<trkpt lat="40.0728664" lon="-105.2306102">
  <ele>1611.05</ele>
  <time>2026-08-27T18:31:20Z</time>
  <course>10.01</course>
  <speed>0.07211102550927978</speed>
  <fix>3d</fix>
</trkpt>
<trkpt lat="40.0728665" lon="-105.2306103">
  <ele>1610.83</ele>
  <time>2026-08-27T18:31:20Z</time>
  <course>306.61</course>
  <speed>0.1</speed>
  <fix>3d</fix>
</trkpt>
<trkpt lat="40.0728664" lon="-105.2306102">
  <ele>1611.07</ele>
  <time>2026-08-27T18:31:20Z</time>
  <course>10.01</course>
  <speed>0.07211102550927978</speed>
  <fix>3d</fix>
</trkpt>
<trkpt lat="40.0728665" lon="-105.2306104">
  <ele>1611.17</ele>
  <time>2026-08-27T18:31:20Z</time>
  <course>10.01</course>
  <speed>0.07211102550927978</speed>
  <fix>3d</fix>
</trkpt>
<trkpt lat="40.0728666" lon="-105.2306104">
  <ele>1610.95</ele>
  <time>2026-08-27T18:31:20Z</time>
  <course>306.63</course>
  <speed>0.1</speed>
  <fix>3d</fix>
</trkpt>
<trkpt lat="40.0728665" lon="-105.2306104">
  <ele>1611.19</ele>
  <time>2026-08-27T18:31:20Z</time>
  <course>10.01</course>
  <speed>0.07211102550927978</speed>
  <fix>3d</fix>
</trkpt>
<trkpt lat="40.0728666" lon="-105.2306106">
  <ele>1611.3</ele>
  <time>2026-08-27T18:31:20Z</time>
  <course>10.01</course>
  <speed>0.07211102550927978</speed>
  <fix>3d</fix>
</trkpt>
<trkpt lat="40.0728668" lon="-105.2306107">
  <ele>1611.07</ele>
  <time>2026-08-27T18:31:20Z</time>
  <course>306.57</course>
  <speed>0.1</speed>
  <fix>3d</fix>
</trkpt>
<trkpt lat="40.0728666" lon="-105.2306106">
  <ele>1611.3</ele>
  <time>2026-08-27T18:31:20Z</time>
  <course>10.01</course>
  <speed>0.07211102550927978</speed>
  <fix>3d</fix>
</trkpt>
<trkpt lat="40.0728667" lon="-105.2306107">
  <ele>1611.43</ele>
  <time>2026-08-27T18:31:20Z</time>
  <course>10.01</course>
  <speed>0.07211102550927978</speed>
  <fix>3d</fix>
</trkpt>
<trkpt lat="40.0728669" lon="-105.2306108">
  <ele>1611.2</ele>
  <time>2026-08-27T18:31:20Z</time>
  <course>306.52</course>
  <speed>0.1</speed>
  <fix>3d</fix>
</trkpt>
<trkpt lat="40.0728668" lon="-105.2306108">
  <ele>1611.45</ele>
  <time>2026-08-27T18:31:20Z</time>
  <course>10.01</course>
  <speed>0.07211102550927978</speed>
  <fix>3d</fix>
</trkpt>
<trkpt lat="40.0728668" lon="-105.2306109">
  <ele>1611.55</ele>
  <time>2026-08-27T18:31:20Z</time>
  <course>10.01</course>
  <speed>0.07211102550927978</speed>
  <fix>3d</fix>
</trkpt>
<trkpt lat="40.072867" lon="-105.2306111">
  <ele>1611.32</ele>
  <time>2026-08-27T18:31:20Z</time>
  <course>306.49</course>
  <speed>0.1</speed>
  <fix>3d</fix>
</trkpt>
<trkpt lat="40.0728669" lon="-105.230611">
  <ele>1611.56</ele>
  <time>2026-08-27T18:31:20Z</time>
  <course>10.01</course>
  <speed>0.07211102550927978</speed>
  <fix>3d</fix>
</trkpt>
<trkpt lat="40.072867" lon="-105.2306111">
  <ele>1611.68</ele>
  <time>2026-08-27T18:31:20Z</time>
  <course>10.01</course>
  <speed>0.07211102550927978</speed>
  <fix>3d</fix>
</trkpt>
<trkpt lat="40.0728671" lon="-105.2306113">
  <ele>1611.44</ele>
  <time>2026-08-27T18:31:20Z</time>
  <course>306.54</course>
  <speed>0.1</speed>
  <fix>3d</fix>
</trkpt>
<trkpt lat="40.072867" lon="-105.2306112">
  <ele>1611.7</ele>
  <time>2026-08-27T18:31:20Z</time>
  <course>10.01</course>
  <speed>0.07211102550927978</speed>
  <fix>3d</fix>
</trkpt>
<trkpt lat="40.0728671" lon="-105.2306113">
  <ele>1611.8</ele>
  <time>2026-08-27T18:31:20Z</time>
  <course>10.01</course>
  <speed>0.07211102550927978</speed>
  <fix>3d</fix>
</trkpt>
<trkpt lat="40.0728672" lon="-105.2306116">
  <ele>1611.57</ele>
  <time>2026-08-27T18:31:20Z</time>
  <course>306.63</course>
  <speed>0.1</speed>
  <fix>3d</fix>
</trkpt>
<trkpt lat="40.0728671" lon="-105.2306114">
  <ele>1611.82</ele>
  <time>2026-08-27T18:31:20Z</time>
  <course>10.01</course>
  <speed>0.07211102550927978</speed>
  <fix>3d</fix>
</trkpt>
<trkpt lat="40.0728672" lon="-105.2306116">
  <ele>1611.92</ele>
  <time>2026-08-27T18:31:20Z</time>
  <course>10.01</course>
  <speed>0.07211102550927978</speed>
  <fix>3d</fix>
</trkpt>
<trkpt lat="40.0728673" lon="-105.2306117">
  <ele>1611.69</ele>
  <time>2026-08-27T18:31:20Z</time>
  <course>306.65</course>
  <speed>0.1</speed>
  <fix>3d</fix>
</trkpt>
<trkpt lat="40.0728672" lon="-105.2306116">
  <ele>1611.94</ele>
  <time>2026-08-27T18:31:20Z</time>
  <course>10.01</course>
  <speed>0.07211102550927978</speed>
  <fix>3d</fix>
</trkpt>
<trkpt lat="40.0728673" lon="-105.2306118">
  <ele>1612.05</ele>
  <time>2026-08-27T18:31:20Z</time>
  <course>10.01</course>
  <speed>0.07211102550927978</speed>
  <fix>3d</fix>
</trkpt>
<trkpt lat="40.0728674" lon="-105.2306118">
  <ele>1611.81</ele>
  <time>2026-08-27T18:31:20Z</time>
  <course>306.65</course>
  <speed>0.1</speed>
  <fix>3d</fix>
</trkpt>
<trkpt lat="40.0728673" lon="-105.2306118">
  <ele>1612.06</ele>
  <time>2026-08-27T18:31:20Z</time>
  <course>10.01</course>
  <speed>0.07211102550927978</speed>
  <fix>3d</fix>
</trkpt>
<trkpt lat="40.0728674" lon="-105.230612">
  <ele>1612.17</ele>
  <time>2026-08-27T18:31:20Z</time>
  <course>10.01</course>
  <speed>0.07211102550927978</speed>
  <fix>3d</fix>
</trkpt>
<trkpt lat="40.0728675" lon="-105.2306121">
  <ele>1611.94</ele>
  <time>2026-08-27T18:31:20Z</time>
  <course>306.61</course>
  <speed>0.1</speed>
  <fix>3d</fix>
</trkpt>
<trkpt lat="40.0728674" lon="-105.230612">
  <ele>1612.18</ele>
  <time>2026-08-27T18:31:20Z</time>
  <course>10.01</course>
  <speed>0.07211102550927978</speed>
  <fix>3d</fix>
</trkpt>
<trkpt lat="40.0728675" lon="-105.2306122">
  <ele>1612.3</ele>
  <time>2026-08-27T18:31:20Z</time>
  <course>10.01</course>
  <speed>0.07211102550927978</speed>
  <fix>3d</fix>
</trkpt>
<trkpt lat="40.0728677" lon="-105.2306122">
  <ele>1612.06</ele>
  <time>2026-08-27T18:31:20Z</time>
  <course>306.54</course>
  <speed>0.1</speed>
  <fix>3d</fix>
</trkpt>
<trkpt lat="40.0728675" lon="-105.2306122">
  <ele>1612.32</ele>
  <time>2026-08-27T18:31:20Z</time>
  <course>10.01</course>
  <speed>0.07211102550927978</speed>
  <fix>3d</fix>
</trkpt>
<trkpt lat="40.0728676" lon="-105.2306124">
  <ele>1612.42</ele>
  <time>2026-08-27T18:31:20Z</time>
  <course>10.01</course>
  <speed>0.07211102550927978</speed>
  <fix>3d</fix>
</trkpt>
<trkpt lat="40.0728678" lon="-105.2306125">
  <ele>1612.19</ele>
  <time>2026-08-27T18:31:20Z</time>
  <course>306.5</course>
  <speed>0.1</speed>
  <fix>3d</fix>
</trkpt>
<trkpt lat="40.0728677" lon="-105.2306124">
  <ele>1612.44</ele>
  <time>2026-08-27T18:31:20Z</time>
  <course>10.01</course>
  <speed>0.07211102550927978</speed>
  <fix>3d</fix>
</trkpt>
<trkpt lat="40.0728678" lon="-105.2306126">
  <ele>1612.54</ele>
  <time>2026-08-27T18:31:20Z</time>
  <course>10.01</course>
  <speed>0.07211102550927978</speed>
  <fix>3d</fix>
</trkpt>
<trkpt lat="40.0728679" lon="-105.2306127">
  <ele>1612.31</ele>
  <time>2026-08-27T18:31:20Z</time>
  <course>306.55</course>
  <speed>0.1</speed>
  <fix>3d</fix>
</trkpt>
<trkpt lat="40.0728678" lon="-105.2306126">
  <ele>1612.56</ele>
  <time>2026-08-27T18:31:20Z</time>
  <course>10.01</course>
  <speed>0.07211102550927978</speed>
  <fix>3d</fix>
</trkpt>
<trkpt lat="40.0728679" lon="-105.2306128">
  <ele>1612.67</ele>
  <time>2026-08-27T18:31:20Z</time>
  <course>10.01</course>
  <speed>0.07211102550927978</speed>
  <fix>3d</fix>
</trkpt>
<trkpt lat="40.072868" lon="-105.2306128">
  <ele>1612.43</ele>
  <time>2026-08-27T18:31:20Z</time>
  <course>306.55</course>
  <speed>0.1</speed>
  <fix>3d</fix>
</trkpt>
<trkpt lat="40.0728679" lon="-105.2306128">
  <ele>1612.69</ele>
  <time>2026-08-27T18:31:20Z</time>
  <course>10.01</course>
  <speed>0.07211102550927978</speed>
  <fix>3d</fix>
</trkpt>
<trkpt lat="40.072868" lon="-105.2306129">
  <ele>1612.79</ele>
  <time>2026-08-27T18:31:20Z</time>
  <course>10.01</course>
  <speed>0.07211102550927978</speed>
  <fix>3d</fix>
</trkpt>
<trkpt lat="40.0728681" lon="-105.2306131">
  <ele>1612.56</ele>
  <time>2026-08-27T18:31:20Z</time>
  <course>306.49</course>
  <speed>0.1</speed>
  <fix>3d</fix>
</trkpt>
<trkpt lat="40.072868" lon="-105.2306129">
  <ele>1612.79</ele>
  <time>2026-08-27T18:31:20Z</time>
  <course>10.01</course>
  <speed>0.07211102550927978</speed>
  <fix>3d</fix>
</trkpt>
<trkpt lat="40.0728681" lon="-105.2306131">
  <ele>1612.92</ele>
  <time>2026-08-27T18:31:20Z</time>
  <course>10.01</course>
  <speed>0.07211102550927978</speed>
  <fix>3d</fix>
</trkpt>
<trkpt lat="40.0728682" lon="-105.2306132">
  <ele>1612.69</ele>
  <time>2026-08-27T18:31:20Z</time>
  <course>306.46</course>
  <speed>0.1</speed>
  <fix>3d</fix>
</trkpt>
<trkpt lat="40.0728681" lon="-105.2306132">
  <ele>1612.94</ele>
  <time>2026-08-27T18:31:20Z</time>
  <course>10.01</course>
  <speed>0.07211102550927978</speed>
  <fix>3d</fix>
</trkpt>
<trkpt lat="40.0728682" lon="-105.2306133">
  <ele>1613.04</ele>
  <time>2026-08-27T18:31:20Z</time>
  <course>10.01</course>
  <speed>0.07211102550927978</speed>
  <fix>3d</fix>
</trkpt>
<trkpt lat="40.0728683" lon="-105.2306135">
  <ele>1612.81</ele>
  <time>2026-08-27T18:31:20Z</time>
  <course>306.45</course>
  <speed>0.1</speed>
  <fix>3d</fix>
</trkpt>
<trkpt lat="40.0728682" lon="-105.2306134">
  <ele>1613.06</ele>
  <time>2026-08-27T18:31:20Z</time>
  <course>10.01</course>
  <speed>0.07211102550927978</speed>
  <fix>3d</fix>
</trkpt>
<trkpt lat="40.0728683" lon="-105.2306135">
  <ele>1613.17</ele>
  <time>2026-08-27T18:31:20Z</time>
  <course>10.01</course>
  <speed>0.07211102550927978</speed>
  <fix>3d</fix>
</trkpt>
<trkpt lat="40.0728685" lon="-105.2306136">
  <ele>1612.94</ele>
  <time>2026-08-27T18:31:20Z</time>
  <course>306.43</course>
  <speed>0.1</speed>
  <fix>3d</fix>
</trkpt>
<trkpt lat="40.0728683" lon="-105.2306136">
  <ele>1613.19</ele>
  <time>2026-08-27T18:31:20Z</time>
  <course>10.01</course>
  <speed>0.07211102550927978</speed>
  <fix>3d</fix>
</trkpt>
<trkpt lat="40.0728684" lon="-105.2306137">
  <ele>1613.3</ele>
  <time>2026-08-27T18:31:20Z</time>
  <course>10.01</course>
  <speed>0.07211102550927978</speed>
  <fix>3d</fix>
</trkpt>
<trkpt lat="40.0728686" lon="-105.2306139">
  <ele>1613.06</ele>
  <time>2026-08-27T18:31:20Z</time>
  <course>306.43</course>
  <speed>0.1</speed>
  <fix>3d</fix>
</trkpt>
<trkpt lat="40.0728684" lon="-105.2306138">
  <ele>1613.31</ele>
  <time>2026-08-27T18:31:20Z</time>
  <course>10.01</course>
  <speed>0.07211102550927978</speed>
  <fix>3d</fix>
</trkpt>
<trkpt lat="40.0728685" lon="-105.2306139">
  <ele>1613.42</ele>
  <time>2026-08-27T18:31:20Z</time>
  <course>10.01</course>
  <speed>0.07211102550927978</speed>
  <fix>3d</fix>
</trkpt>
<trkpt lat="40.0728687" lon="-105.2306141">
  <ele>1613.19</ele>
  <time>2026-08-27T18:31:20Z</time>
  <course>306.45</course>
  <speed>0.1</speed>
  <fix>3d</fix>
</trkpt>
<trkpt lat="40.0728686" lon="-105.230614">
  <ele>1613.44</ele>
  <time>2026-08-27T18:31:20Z</time>
  <course>10.01</course>
  <speed>0.07211102550927978</speed>
  <fix>3d</fix>
</trkpt>
<trkpt lat="40.0728687" lon="-105.2306141">
  <ele>1613.55</ele>
  <time>2026-08-27T18:31:20Z</time>
  <course>10.01</course>
  <speed>0.07211102550927978</speed>
  <fix>3d</fix>
</trkpt>
<trkpt lat="40.0728688" lon="-105.2306142">
  <ele>1613.32</ele>
  <time>2026-08-27T18:31:20Z</time>
  <course>306.44</course>
  <speed>0.1</speed>
  <fix>3d</fix>
</trkpt>
<trkpt lat="40.0728687" lon="-105.2306141">
  <ele>1613.55</ele>
  <time>2026-08-27T18:31:20Z</time>
  <course>10.01</course>
  <speed>0.07211102550927978</speed>
  <fix>3d</fix>
</trkpt>
<trkpt lat="40.0728688" lon="-105.2306143">
  <ele>1613.67</ele>
  <time>2026-08-27T18:31:20Z</time>
  <course>10.01</course>
  <speed>0.07211102550927978</speed>
  <fix>3d</fix>
</trkpt>
<trkpt lat="40.0728689" lon="-105.2306145">
  <ele>1613.44</ele>
  <time>2026-08-27T18:31:20Z</time>
  <course>306.43</course>
  <speed>0.1</speed>
  <fix>3d</fix>
</trkpt>
<trkpt lat="40.0728688" lon="-105.2306144">
  <ele>1613.69</ele>
  <time>2026-08-27T18:31:20Z</time>
  <course>10.01</course>
  <speed>0.07211102550927978</speed>
  <fix>3d</fix>
</trkpt>
<trkpt lat="40.0728689" lon="-105.2306145">
  <ele>1613.8</ele>
  <time>2026-08-27T18:31:20Z</time>
  <course>10.01</course>
  <speed>0.07211102550927978</speed>
  <fix>3d</fix>
</trkpt>
<trkpt lat="40.072869" lon="-105.2306146">
  <ele>1613.57</ele>
  <time>2026-08-27T18:31:20Z</time>
  <course>306.42</course>
  <speed>0.1</speed>
  <fix>3d</fix>
</trkpt>
<trkpt lat="40.0728689" lon="-105.2306146">
  <ele>1613.82</ele>
  <time>2026-08-27T18:31:20Z</time>
  <course>10.01</course>
  <speed>0.07211102550927978</speed>
  <fix>3d</fix>
</trkpt>
<trkpt lat="40.072869" lon="-105.2306147">
  <ele>1613.93</ele>
  <time>2026-08-27T18:31:20Z</time>
  <course>10.01</course>
  <speed>0.07211102550927978</speed>
  <fix>3d</fix>
</trkpt>
<trkpt lat="40.0728691" lon="-105.2306149">
  <ele>1613.7</ele>
  <time>2026-08-27T18:31:20Z</time>
  <course>306.44</course>
  <speed>0.1</speed>
  <fix>3d</fix>
</trkpt>
<trkpt lat="40.072869" lon="-105.2306148">
  <ele>1613.95</ele>
  <time>2026-08-27T18:31:20Z</time>
  <course>10.01</course>
  <speed>0.07211102550927978</speed>
  <fix>3d</fix>
</trkpt>
<trkpt lat="40.0728691" lon="-105.2306149">
  <ele>1614.05</ele>
  <time>2026-08-27T18:31:20Z</time>
  <course>10.01</course>
  <speed>0.07211102550927978</speed>
  <fix>3d</fix>
</trkpt>
<trkpt lat="40.0728692" lon="-105.2306151">
  <ele>1613.82</ele>
  <time>2026-08-27T18:31:20Z</time>
  <course>306.54</course>
  <speed>0.1</speed>
  <fix>3d</fix>
</trkpt>
<trkpt lat="40.0728691" lon="-105.2306149">
  <ele>1614.05</ele>
  <time>2026-08-27T18:31:20Z</time>
  <course>10.01</course>
  <speed>0.07211102550927978</speed>
  <fix>3d</fix>
</trkpt>
<trkpt lat="40.0728692" lon="-105.2306151">
  <ele>1614.17</ele>
  <time>2026-08-27T18:31:20Z</time>
  <course>10.01</course>
  <speed>0.07211102550927978</speed>
  <fix>3d</fix>
</trkpt>
<trkpt lat="40.0728694" lon="-105.2306152">
  <ele>1613.95</ele>
  <time>2026-08-27T18:31:20Z</time>
  <course>306.64</course>
  <speed>0.1</speed>
  <fix>3d</fix>
</trkpt>
<trkpt lat="40.0728692" lon="-105.2306152">
  <ele>1614.19</ele>
  <time>2026-08-27T18:31:20Z</time>
  <course>10.01</course>
  <speed>0.07211102550927978</speed>
  <fix>3d</fix>
</trkpt>
<trkpt lat="40.0728693" lon="-105.2306153">
  <ele>1614.3</ele>
  <time>2026-08-27T18:31:20Z</time>
  <course>10.01</course>
  <speed>0.07211102550927978</speed>
  <fix>3d</fix>
</trkpt>
<trkpt lat="40.0728695" lon="-105.2306155">
  <ele>1614.08</ele>
  <time>2026-08-27T18:31:20Z</time>
  <course>306.62</course>
  <speed>0.1</speed>
  <fix>3d</fix>
</trkpt>
<trkpt lat="40.0728693" lon="-105.2306153">
  <ele>1614.3</ele>
  <time>2026-08-27T18:31:20Z</time>
  <course>10.01</course>
  <speed>0.07211102550927978</speed>
  <fix>3d</fix>
</trkpt>
<trkpt lat="40.0728694" lon="-105.2306155">
  <ele>1614.42</ele>
  <time>2026-08-27T18:31:20Z</time>
  <course>10.01</course>
  <speed>0.07211102550927978</speed>
  <fix>3d</fix>
</trkpt>
<trkpt lat="40.0728696" lon="-105.2306156">
  <ele>1614.2</ele>
  <time>2026-08-27T18:31:20Z</time>
  <course>306.61</course>
  <speed>0.1</speed>
  <fix>3d</fix>
</trkpt>
<trkpt lat="40.0728695" lon="-105.2306156">
  <ele>1614.44</ele>
  <time>2026-08-27T18:31:20Z</time>
  <course>10.01</course>
  <speed>0.07211102550927978</speed>
  <fix>3d</fix>
</trkpt>
<trkpt lat="40.0728696" lon="-105.2306157">
  <ele>1614.55</ele>
  <time>2026-08-27T18:31:20Z</time>
  <course>10.01</course>
  <speed>0.07211102550927978</speed>
  <fix>3d</fix>
</trkpt>
<trkpt lat="40.0728697" lon="-105.2306159">
  <ele>1614.33</ele>
  <time>2026-08-27T18:31:20Z</time>
  <course>306.6</course>
  <speed>0.1</speed>
  <fix>3d</fix>
</trkpt>
<trkpt lat="40.0728696" lon="-105.2306158">
  <ele>1614.56</ele>
  <time>2026-08-27T18:31:20Z</time>
  <course>10.01</course>
  <speed>0.07211102550927978</speed>
  <fix>3d</fix>
</trkpt>
<trkpt lat="40.0728697" lon="-105.2306159">
  <ele>1614.67</ele>
  <time>2026-08-27T18:31:20Z</time>
  <course>10.01</course>
  <speed>0.07211102550927978</speed>
  <fix>3d</fix>
</trkpt>
<trkpt lat="40.0728698" lon="-105.230616">
  <ele>1614.46</ele>
  <time>2026-08-27T18:31:20Z</time>
  <course>306.6</course>
  <speed>0.1</speed>
  <fix>3d</fix>
</trkpt>
<trkpt lat="40.0728697" lon="-105.2306159">
  <ele>1614.67</ele>
  <time>2026-08-27T18:31:20Z</time>
  <course>10.01</course>
  <speed>0.07211102550927978</speed>
  <fix>3d</fix>
</trkpt>
<trkpt lat="40.0728698" lon="-105.2306161">
  <ele>1614.8</ele>
  <time>2026-08-27T18:31:20Z</time>
  <course>10.01</course>
  <speed>0.07211102550927978</speed>
  <fix>3d</fix>
</trkpt>
<trkpt lat="40.0728699" lon="-105.2306163">
  <ele>1614.58</ele>
  <time>2026-08-27T18:31:20Z</time>
  <course>306.62</course>
  <speed>0.1</speed>
  <fix>3d</fix>
</trkpt>
<trkpt lat="40.0728698" lon="-105.2306162">
  <ele>1614.82</ele>
  <time>2026-08-27T18:31:20Z</time>
  <course>10.01</course>
  <speed>0.07211102550927978</speed>
  <fix>3d</fix>
</trkpt>
<trkpt lat="40.0728699" lon="-105.2306163">
  <ele>1614.92</ele>
  <time>2026-08-27T18:31:20Z</time>
  <course>10.01</course>
  <speed>0.07211102550927978</speed>
  <fix>3d</fix>
</trkpt>
<trkpt lat="40.07287" lon="-105.2306165">
  <ele>1614.71</ele>
  <time>2026-08-27T18:31:20Z</time>
  <course>306.61</course>
  <speed>0.1</speed>
  <fix>3d</fix>
</trkpt>
<trkpt lat="40.0728699" lon="-105.2306164">
  <ele>1614.94</ele>
  <time>2026-08-27T18:31:20Z</time>
  <course>10.01</course>
  <speed>0.07211102550927978</speed>
  <fix>3d</fix>
</trkpt>
<trkpt lat="40.07287" lon="-105.2306165">
  <ele>1615.06</ele>
  <time>2026-08-27T18:31:20Z</time>
  <course>10.01</course>
  <speed>0.07211102550927978</speed>
  <fix>3d</fix>
</trkpt>
<trkpt lat="40.0728701" lon="-105.2306166">
  <ele>1614.84</ele>
  <time>2026-08-27T18:31:20Z</time>
  <course>306.58</course>
  <speed>0.1</speed>
  <fix>3d</fix>
</trkpt>
<trkpt lat="40.07287" lon="-105.2306165">
  <ele>1615.06</ele>
  <time>2026-08-27T18:31:20Z</time>
  <course>10.01</course>
  <speed>0.07211102550927978</speed>
  <fix>3d</fix>
</trkpt>
<trkpt lat="40.0728701" lon="-105.2306167">
  <ele>1615.19</ele>
  <time>2026-08-27T18:31:20Z</time>
  <course>10.01</course>
  <speed>0.07211102550927978</speed>
  <fix>3d</fix>
</trkpt>
<trkpt lat="40.0728703" lon="-105.2306169">
  <ele>1614.97</ele>
  <time>2026-08-27T18:31:20Z</time>
  <course>306.56</course>
  <speed>0.1</speed>
  <fix>3d</fix>
</trkpt>
<trkpt lat="40.0728701" lon="-105.2306168">
  <ele>1615.21</ele>
  <time>2026-08-27T18:31:20Z</time>
  <course>10.01</course>
  <speed>0.07211102550927978</speed>
  <fix>3d</fix>
</trkpt>
<trkpt lat="40.0728702" lon="-105.2306169">
  <ele>1615.31</ele>
  <time>2026-08-27T18:31:20Z</time>
  <course>10.02</course>
  <speed>0.07211102550927978</speed>
  <fix>3d</fix>
</trkpt>
<trkpt lat="40.0728704" lon="-105.230617">
  <ele>1615.1</ele>
  <time>2026-08-27T18:31:20Z</time>
  <course>306.7</course>
  <speed>0.1</speed>
  <fix>3d</fix>
</trkpt>
<trkpt lat="40.0728703" lon="-105.2306171">
  <ele>1615.42</ele>
  <time>2026-08-27T18:31:20Z</time>
  <course>10.02</course>
  <speed>0.07211102550927978</speed>
  <fix>3d</fix>
</trkpt>
<trkpt lat="40.0728705" lon="-105.2306173">
  <ele>1615.22</ele>
  <time>2026-08-27T18:31:20Z</time>
  <course>306.81</course>
  <speed>0.1</speed>
  <fix>3d</fix>
</trkpt>
<trkpt lat="40.0728705" lon="-105.2306173">
  <ele>1615.5</ele>
  <time>2026-08-27T18:31:20Z</time>
  <course>10.01</course>
  <speed>0.07211102550927978</speed>
  <fix>3d</fix>
</trkpt>
<trkpt lat="40.0728706" lon="-105.2306174">
  <ele>1615.32</ele>
  <time>2026-08-27T18:31:20Z</time>
  <course>306.78</course>
  <speed>0.1</speed>
  <fix>3d</fix>
</trkpt>
<trkpt lat="40.0728706" lon="-105.2306175">
  <ele>1615.54</ele>
  <time>2026-08-27T18:31:20Z</time>
  <course>10.01</course>
  <speed>0.07211102550927978</speed>
  <fix>3d</fix>
</trkpt>
<trkpt lat="40.0728707" lon="-105.2306177">
  <ele>1615.38</ele>
  <time>2026-08-27T18:31:20Z</time>
  <course>306.76</course>
  <speed>0.1</speed>
  <fix>3d</fix>
</trkpt>
<trkpt lat="40.0728707" lon="-105.2306175">
  <ele>1615.57</ele>
  <time>2026-08-27T18:31:20Z</time>
  <course>10.0</course>
  <speed>0.22</speed>
  <fix>3d</fix>
</trkpt>
<trkpt lat="40.0728708" lon="-105.2306178">
  <ele>1615.42</ele>
  <time>2026-08-27T18:31:20Z</time>
  <course>345.07</course>
  <speed>0.06</speed>
  <fix>3d</fix>
</trkpt>
<trkpt lat="40.0728705" lon="-105.2306152">
  <ele>1615.57</ele>
  <time>2026-08-27T18:31:20Z</time>
  <course>9.17</course>
  <speed>2.467893838883674</speed>
  <fix>3d</fix>
</trkpt>
<trkpt lat="40.0728709" lon="-105.2306173">
  <ele>1615.44</ele>
  <time>2026-08-27T18:31:20Z</time>
  <course>84.49</course>
  <speed>0.76</speed>
  <fix>3d</fix>
</trkpt>
<trkpt lat="40.0728701" lon="-105.2306079">
  <ele>1615.42</ele>
  <time>2026-08-27T18:31:20Z</time>
  <course>9.37</course>
  <speed>1.6219741058352317</speed>
  <fix>3d</fix>
</trkpt>
<trkpt lat="40.0728711" lon="-105.230613">
  <ele>1615.38</ele>
  <time>2026-08-27T18:31:20Z</time>
  <course>86.81</course>
  <speed>2.09</speed>
  <fix>3d</fix>
</trkpt>
<trkpt lat="40.072871" lon="-105.2306079">
  <ele>1615.43</ele>
  <time>2026-08-27T18:31:20Z</time>
  <course>7.36</course>
  <speed>0.3590264614203248</speed>
  <fix>3d</fix>
</trkpt>
<trkpt lat="40.0728715" lon="-105.2306081">
  <ele>1615.3</ele>
  <time>2026-08-27T18:31:20Z</time>
  <course>76.61</course>
  <speed>1.5</speed>
  <fix>3d</fix>
</trkpt>
<trkpt lat="40.0728722" lon="-105.2306074">
  <ele>1615.5</ele>
  <time>2026-08-27T18:31:20Z</time>
  <course>8.37</course>
  <speed>0.5263078946776306</speed>
  <fix>3d</fix>
</trkpt>
<trkpt lat="40.0728723" lon="-105.2306068">
  <ele>1615.31</ele>
  <time>2026-08-27T18:31:20Z</time>
  <course>23.0</course>
  <speed>0.59</speed>
  <fix>3d</fix>
</trkpt>
<trkpt lat="40.0728724" lon="-105.2306072">
  <ele>1615.51</ele>
  <time>2026-08-27T18:31:20Z</time>
  <course>8.66</course>
  <speed>0.5456189146281496</speed>
  <fix>3d</fix>
</trkpt>
<trkpt lat="40.0728734" lon="-105.2306063">
  <ele>1615.56</ele>
  <time>2026-08-27T18:31:20Z</time>
  <course>9.97</course>
  <speed>0.5946427498927402</speed>
  <fix>3d</fix>
</trkpt>
<trkpt lat="40.0728733" lon="-105.2306062">
  <ele>1615.38</ele>
  <time>2026-08-27T18:31:20Z</time>
  <course>31.74</course>
  <speed>0.61</speed>
  <fix>3d</fix>
</trkpt>
<trkpt lat="40.0728745" lon="-105.2306054">
  <ele>1615.59</ele>
  <time>2026-08-27T18:31:20Z</time>
  <course>10.48</course>
  <speed>0.560357029044876</speed>
  <fix>3d</fix>
</trkpt>
<trkpt lat="40.0728742" lon="-105.2306053">
  <ele>1615.44</ele>
  <time>2026-08-27T18:31:20Z</time>
  <course>35.9</course>
  <speed>0.59</speed>
  <fix>3d</fix>
</trkpt>
<trkpt lat="40.0728755" lon="-105.2306047">
  <ele>1615.61</ele>
  <time>2026-08-27T18:31:20Z</time>
  <course>10.45</course>
  <speed>0.5189412298131648</speed>
  <fix>3d</fix>
</trkpt>
<trkpt lat="40.0728751" lon="-105.2306045">
  <ele>1615.48</ele>
  <time>2026-08-27T18:31:20Z</time>
  <course>29.14</course>
  <speed>0.53</speed>
  <fix>3d</fix>
</trkpt>
<trkpt lat="40.0728764" lon="-105.2306043">
  <ele>1615.6</ele>
  <time>2026-08-27T18:31:21Z</time>
  <course>10.28</course>
  <speed>0.48052055106935854</speed>
  <fix>3d</fix>
</trkpt>
<trkpt lat="40.0728759" lon="-105.230604">
  <ele>1615.49</ele>
  <time>2026-08-27T18:31:21Z</time>
  <course>18.07</course>
  <speed>0.48</speed>
  <fix>3d</fix>
</trkpt>
<trkpt lat="40.0728765" lon="-105.2306043">
  <ele>1615.6</ele>
  <time>2026-08-27T18:31:21Z</time>
  <course>10.26</course>
  <speed>0.47853944456021597</speed>
  <fix>3d</fix>
</trkpt>
<trkpt lat="40.0728772" lon="-105.2306042">
  <ele>1615.6</ele>
  <time>2026-08-27T18:31:21Z</time>
  <course>10.11</course>
  <speed>0.47</speed>
  <fix>3d</fix>
</trkpt>
<trkpt lat="40.0728768" lon="-105.2306038">
  <ele>1615.48</ele>
  <time>2026-08-27T18:31:21Z</time>
  <course>4.31</course>
  <speed>0.45</speed>
  <fix>3d</fix>
</trkpt>
<trkpt lat="40.0728781" lon="-105.2306043">
  <ele>1615.61</ele>
  <time>2026-08-27T18:31:21Z</time>
  <course>9.99</course>
  <speed>0.4707440918375928</speed>
  <fix>3d</fix>
</trkpt>
<trkpt lat="40.0728776" lon="-105.2306039">
  <ele>1615.48</ele>
  <time>2026-08-27T18:31:21Z</time>
  <course>350.2</course>
  <speed>0.45</speed>
  <fix>3d</fix>
</trkpt>
<trkpt lat="40.0728789" lon="-105.2306046">
  <ele>1615.61</ele>
  <time>2026-08-27T18:31:21Z</time>
  <course>9.96</course>
  <speed>0.49244289008980524</speed>
  <fix>3d</fix>
</trkpt>
<trkpt lat="40.0728783" lon="-105.2306041">
  <ele>1615.47</ele>
  <time>2026-08-27T18:31:21Z</time>
  <course>337.89</course>
  <speed>0.47</speed>
  <fix>3d</fix>
</trkpt>
<trkpt lat="40.072879" lon="-105.2306047">
  <ele>1615.61</ele>
  <time>2026-08-27T18:31:21Z</time>
  <course>9.96</course>
  <speed>0.4965883607174055</speed>
  <fix>3d</fix>
</trkpt>
<trkpt lat="40.0728796" lon="-105.2306052">
  <ele>1615.61</ele>
  <time>2026-08-27T18:31:21Z</time>
  <course>9.97</course>
  <speed>0.521536192416212</speed>
  <fix>3d</fix>
</trkpt>
<trkpt lat="40.0728792" lon="-105.2306046">
  <ele>1615.46</ele>
  <time>2026-08-27T18:31:21Z</time>
  <course>328.07</course>
  <speed>0.5</speed>
  <fix>3d</fix>
</trkpt>
<trkpt lat="40.0728804" lon="-105.230606">
  <ele>1615.6</ele>
  <time>2026-08-27T18:31:21Z</time>
  <course>10.0</course>
  <speed>0.5622277118748239</speed>
  <fix>3d</fix>
</trkpt>
<trkpt lat="40.0728799" lon="-105.2306054">
  <ele>1615.45</ele>
  <time>2026-08-27T18:31:21Z</time>
  <course>320.62</course>
  <speed>0.54</speed>
  <fix>3d</fix>
</trkpt>
<trkpt lat="40.0728811" lon="-105.2306069">
  <ele>1615.6</ele>
  <time>2026-08-27T18:31:21Z</time>
  <course>10.04</course>
  <speed>0.594138031100518</speed>
  <fix>3d</fix>
</trkpt>
<trkpt lat="40.0728807" lon="-105.2306062">
  <ele>1615.43</ele>
  <time>2026-08-27T18:31:21Z</time>
  <course>314.91</course>
  <speed>0.58</speed>
  <fix>3d</fix>
</trkpt>
<trkpt lat="40.0728812" lon="-105.2306071">
  <ele>1615.6</ele>
  <time>2026-08-27T18:31:21Z</time>
  <course>10.04</course>
  <speed>0.5939696961966999</speed>
  <fix>3d</fix>
</trkpt>
<trkpt lat="40.0728818" lon="-105.230608">
  <ele>1615.59</ele>
  <time>2026-08-27T18:31:21Z</time>
  <course>10.06</course>
  <speed>0.6228964600958975</speed>
  <fix>3d</fix>
</trkpt>
<trkpt lat="40.0728814" lon="-105.2306073">
  <ele>1615.42</ele>
  <time>2026-08-27T18:31:21Z</time>
  <course>310.43</course>
  <speed>0.61</speed>
  <fix>3d</fix>
</trkpt>
<trkpt lat="40.0728825" lon="-105.2306092">
  <ele>1615.58</ele>
  <time>2026-08-27T18:31:21Z</time>
  <course>10.08</course>
  <speed>0.6543699259593154</speed>
  <fix>3d</fix>
</trkpt>
<trkpt lat="40.0728821" lon="-105.2306084">
  <ele>1615.41</ele>
  <time>2026-08-27T18:31:21Z</time>
  <course>306.87</course>
  <speed>0.65</speed>
  <fix>3d</fix>
</trkpt>
<trkpt lat="40.0728832" lon="-105.2306105">
  <ele>1615.58</ele>
  <time>2026-08-27T18:31:21Z</time>
  <course>10.07</course>
  <speed>0.6800735254367721</speed>
  <fix>3d</fix>
</trkpt>
<trkpt lat="40.0728828" lon="-105.2306097">
  <ele>1615.4</ele>
  <time>2026-08-27T18:31:21Z</time>
  <course>303.98</course>
  <speed>0.68</speed>
  <fix>3d</fix>
</trkpt>
<trkpt lat="40.0728833" lon="-105.2306107">
  <ele>1615.58</ele>
  <time>2026-08-27T18:31:21Z</time>
  <course>10.07</course>
  <speed>0.6742403132415029</speed>
  <fix>3d</fix>
</trkpt>
<trkpt lat="40.0728839" lon="-105.2306119">
  <ele>1615.58</ele>
  <time>2026-08-27T18:31:21Z</time>
  <course>10.06</course>
  <speed>0.6989277502002621</speed>
  <fix>3d</fix>
</trkpt>
<trkpt lat="40.0728835" lon="-105.2306111">
  <ele>1615.39</ele>
  <time>2026-08-27T18:31:21Z</time>
  <course>301.63</course>
  <speed>0.7</speed>
  <fix>3d</fix>
</trkpt>
<trkpt lat="40.0728845" lon="-105.2306133">
  <ele>1615.57</ele>
  <time>2026-08-27T18:31:21Z</time>
  <course>10.06</course>
  <speed>0.7134423592694787</speed>
  <fix>3d</fix>
</trkpt>
<trkpt lat="40.0728841" lon="-105.2306126">
  <ele>1615.39</ele>
  <time>2026-08-27T18:31:21Z</time>
  <course>299.69</course>
  <speed>0.72</speed>
  <fix>3d</fix>
</trkpt>
<trkpt lat="40.0728852" lon="-105.2306149">
  <ele>1615.57</ele>
  <time>2026-08-27T18:31:21Z</time>
  <course>10.06</course>
  <speed>0.7256031973468694</speed>
  <fix>3d</fix>
</trkpt>
<trkpt lat="40.0728848" lon="-105.2306141">
  <ele>1615.38</ele>
  <time>2026-08-27T18:31:21Z</time>
  <course>298.05</course>
  <speed>0.73</speed>
  <fix>3d</fix>
</trkpt>
<trkpt lat="40.0728852" lon="-105.2306151">
  <ele>1615.57</ele>
  <time>2026-08-27T18:31:21Z</time>
  <course>10.06</course>
  <speed>0.7256031973468694</speed>
  <fix>3d</fix>
</trkpt>
<trkpt lat="40.0728858" lon="-105.2306164">
  <ele>1615.57</ele>
  <time>2026-08-27T18:31:21Z</time>
  <course>10.06</course>
  <speed>0.7382411530116699</speed>
  <fix>3d</fix>
</trkpt>
<trkpt lat="40.0728854" lon="-105.2306156">
  <ele>1615.37</ele>
  <time>2026-08-27T18:31:21Z</time>
  <course>296.64</course>
  <speed>0.75</speed>
  <fix>3d</fix>
</trkpt>
<trkpt lat="40.0728864" lon="-105.230618">
  <ele>1615.56</ele>
  <time>2026-08-27T18:31:21Z</time>
  <course>10.07</course>
  <speed>0.7424284477308234</speed>
  <fix>3d</fix>
</trkpt>
<trkpt lat="40.0728859" lon="-105.2306172">
  <ele>1615.37</ele>
  <time>2026-08-27T18:31:21Z</time>
  <course>295.41</course>
  <speed>0.75</speed>
  <fix>3d</fix>
</trkpt>
<trkpt lat="40.0728869" lon="-105.2306196">
  <ele>1615.55</ele>
  <time>2026-08-27T18:31:21Z</time>
  <course>10.06</course>
  <speed>0.7468600939935136</speed>
  <fix>3d</fix>
</trkpt>
<trkpt lat="40.0728865" lon="-105.2306189">
  <ele>1615.36</ele>
  <time>2026-08-27T18:31:21Z</time>
  <course>294.33</course>
  <speed>0.76</speed>
  <fix>3d</fix>
</trkpt>
<trkpt lat="40.072887" lon="-105.2306198">
  <ele>1615.55</ele>
  <time>2026-08-27T18:31:21Z</time>
  <course>10.06</course>
  <speed>0.7468600939935136</speed>
  <fix>3d</fix>
</trkpt>
<trkpt lat="40.0728875" lon="-105.2306213">
  <ele>1615.55</ele>
  <time>2026-08-27T18:31:21Z</time>
  <course>10.05</course>
  <speed>0.7424957912338628</speed>
  <fix>3d</fix>
</trkpt>
<trkpt lat="40.0728871" lon="-105.2306204">
  <ele>1615.36</ele>
  <time>2026-08-27T18:31:21Z</time>
  <course>293.37</course>
  <speed>0.76</speed>
  <fix>3d</fix>
</trkpt>
<trkpt lat="40.072888" lon="-105.2306229">
  <ele>1615.55</ele>
  <time>2026-08-27T18:31:21Z</time>
  <course>10.05</course>
  <speed>0.7473285756613351</speed>
  <fix>3d</fix>
</trkpt>
<trkpt lat="40.0728876" lon="-105.2306221">
  <ele>1615.36</ele>
  <time>2026-08-27T18:31:21Z</time>
  <course>292.51</course>
  <speed>0.76</speed>
  <fix>3d</fix>
</trkpt>
<trkpt lat="40.0728885" lon="-105.2306246">
  <ele>1615.54</ele>
  <time>2026-08-27T18:31:21Z</time>
  <course>10.06</course>
  <speed>0.7432361670424819</speed>
  <fix>3d</fix>
</trkpt>
<trkpt lat="40.0728881" lon="-105.2306238">
  <ele>1615.35</ele>
  <time>2026-08-27T18:31:21Z</time>
  <course>291.74</course>
  <speed>0.76</speed>
  <fix>3d</fix>
</trkpt>
<trkpt lat="40.0728886" lon="-105.2306248">
  <ele>1615.54</ele>
  <time>2026-08-27T18:31:21Z</time>
  <course>10.06</course>
  <speed>0.7392563831310488</speed>
  <fix>3d</fix>
</trkpt>
<trkpt lat="40.072889" lon="-105.2306262">
  <ele>1615.54</ele>
  <time>2026-08-27T18:31:21Z</time>
  <course>10.06</course>
  <speed>0.7392563831310488</speed>
  <fix>3d</fix>
</trkpt>
<trkpt lat="40.0728886" lon="-105.2306255">
  <ele>1615.35</ele>
  <time>2026-08-27T18:31:21Z</time>
  <course>291.03</course>
  <speed>0.75</speed>
  <fix>3d</fix>
</trkpt>
<trkpt lat="40.0728895" lon="-105.2306279">
  <ele>1615.53</ele>
  <time>2026-08-27T18:31:21Z</time>
  <course>10.06</course>
  <speed>0.722357252334328</speed>
  <fix>3d</fix>
</trkpt>
<trkpt lat="40.0728891" lon="-105.2306271">
  <ele>1615.35</ele>
  <time>2026-08-27T18:31:21Z</time>
  <course>290.37</course>
  <speed>0.74</speed>
  <fix>3d</fix>
</trkpt>
<trkpt lat="40.0728899" lon="-105.2306295">
  <ele>1615.53</ele>
  <time>2026-08-27T18:31:21Z</time>
  <course>10.06</course>
  <speed>0.718679344353238</speed>
  <fix>3d</fix>
</trkpt>
<trkpt lat="40.0728895" lon="-105.2306288">
  <ele>1615.35</ele>
  <time>2026-08-27T18:31:21Z</time>
  <course>289.77</course>
  <speed>0.73</speed>
  <fix>3d</fix>
</trkpt>
<trkpt lat="40.07289" lon="-105.2306297">
  <ele>1615.53</ele>
  <time>2026-08-27T18:31:21Z</time>
  <course>10.06</course>
  <speed>0.718679344353238</speed>
  <fix>3d</fix>
</trkpt>
<trkpt lat="40.0728903" lon="-105.2306311">
  <ele>1615.52</ele>
  <time>2026-08-27T18:31:21Z</time>
  <course>10.06</course>
  <speed>0.7057619995437555</speed>
  <fix>3d</fix>
</trkpt>
<trkpt lat="40.07289" lon="-105.2306304">
  <ele>1615.36</ele>
  <time>2026-08-27T18:31:21Z</time>
  <course>289.21</course>
  <speed>0.72</speed>
  <fix>3d</fix>
</trkpt>
<trkpt lat="40.0728907" lon="-105.2306327">
  <ele>1615.52</ele>
  <time>2026-08-27T18:31:21Z</time>
  <course>10.05</course>
  <speed>0.6928924880528002</speed>
  <fix>3d</fix>
</trkpt>
<trkpt lat="40.0728905" lon="-105.2306319">
  <ele>1615.36</ele>
  <time>2026-08-27T18:31:21Z</time>
  <course>288.68</course>
  <speed>0.71</speed>
  <fix>3d</fix>
</trkpt>
<trkpt lat="40.0728911" lon="-105.2306343">
  <ele>1615.53</ele>
  <time>2026-08-27T18:31:21Z</time>
  <course>10.05</course>
  <speed>0.6800735254367721</speed>
  <fix>3d</fix>
</trkpt>
<trkpt lat="40.0728909" lon="-105.2306336">
  <ele>1615.37</ele>
  <time>2026-08-27T18:31:21Z</time>
  <course>288.19</course>
  <speed>0.7</speed>
  <fix>3d</fix>
</trkpt>
<trkpt lat="40.0728912" lon="-105.2306345">
  <ele>1615.53</ele>
  <time>2026-08-27T18:31:21Z</time>
  <course>10.05</course>
  <speed>0.6800735254367721</speed>
  <fix>3d</fix>
</trkpt>
<trkpt lat="40.0728915" lon="-105.2306358">
  <ele>1615.54</ele>
  <time>2026-08-27T18:31:21Z</time>
  <course>10.04</course>
  <speed>0.6673080248281148</speed>
  <fix>3d</fix>
</trkpt>
<trkpt lat="40.0728912" lon="-105.2306351">
  <ele>1615.37</ele>
  <time>2026-08-27T18:31:21Z</time>
  <course>287.72</course>
  <speed>0.69</speed>
  <fix>3d</fix>
</trkpt>
<trkpt lat="40.0728919" lon="-105.2306373">
  <ele>1615.55</ele>
  <time>2026-08-27T18:31:21Z</time>
  <course>10.03</course>
  <speed>0.6545991139621257</speed>
  <fix>3d</fix>
</trkpt>
<trkpt lat="40.0728916" lon="-105.2306366">
  <ele>1615.38</ele>
  <time>2026-08-27T18:31:21Z</time>
  <course>287.27</course>
  <speed>0.67</speed>
  <fix>3d</fix>
</trkpt>
<trkpt lat="40.0728922" lon="-105.2306388">
  <ele>1615.56</ele>
  <time>2026-08-27T18:31:21Z</time>
  <course>10.03</course>
  <speed>0.6451356446515725</speed>
  <fix>3d</fix>
</trkpt>
<trkpt lat="40.0728919" lon="-105.2306381">
  <ele>1615.39</ele>
  <time>2026-08-27T18:31:21Z</time>
  <course>286.84</course>
  <speed>0.66</speed>
  <fix>3d</fix>
</trkpt>
<trkpt lat="40.0728923" lon="-105.2306391">
  <ele>1615.56</ele>
  <time>2026-08-27T18:31:21Z</time>
  <course>10.03</course>
  <speed>0.6324555320336759</speed>
  <fix>3d</fix>
</trkpt>
<trkpt lat="40.0728926" lon="-105.2306403">
  <ele>1615.55</ele>
  <time>2026-08-27T18:31:21Z</time>
  <course>10.05</course>
  <speed>0.6229767250869008</speed>
  <fix>3d</fix>
</trkpt>
<trkpt lat="40.0728923" lon="-105.2306396">
  <ele>1615.39</ele>
  <time>2026-08-27T18:31:21Z</time>
  <course>286.42</course>
  <speed>0.64</speed>
  <fix>3d</fix>
</trkpt>
<trkpt lat="40.0728929" lon="-105.2306417">
  <ele>1615.55</ele>
  <time>2026-08-27T18:31:21Z</time>
  <course>10.05</course>
  <speed>0.6103277807866851</speed>
  <fix>3d</fix>
</trkpt>
<trkpt lat="40.0728926" lon="-105.2306411">
  <ele>1615.39</ele>
  <time>2026-08-27T18:31:21Z</time>
  <course>286.02</course>
  <speed>0.63</speed>
  <fix>3d</fix>
</trkpt>
<trkpt lat="40.0728932" lon="-105.2306431">
  <ele>1615.55</ele>
  <time>2026-08-27T18:31:21Z</time>
  <course>10.04</course>
  <speed>0.5977457653551382</speed>
  <fix>3d</fix>
</trkpt>
<trkpt lat="40.0728929" lon="-105.2306424">
  <ele>1615.39</ele>
  <time>2026-08-27T18:31:21Z</time>
  <course>285.61</course>
  <speed>0.61</speed>
  <fix>3d</fix>
</trkpt>
<trkpt lat="40.0728932" lon="-105.2306433">
  <ele>1615.55</ele>
  <time>2026-08-27T18:31:21Z</time>
  <course>10.04</course>
  <speed>0.5882176467941097</speed>
  <fix>3d</fix>
</trkpt>
<trkpt lat="40.0728935" lon="-105.2306445">
  <ele>1615.56</ele>
  <time>2026-08-27T18:31:21Z</time>
  <course>10.04</course>
  <speed>0.5756735185849702</speed>
  <fix>3d</fix>
</trkpt>
<trkpt lat="40.0728932" lon="-105.2306438">
  <ele>1615.39</ele>
  <time>2026-08-27T18:31:21Z</time>
  <course>285.22</course>
  <speed>0.6</speed>
  <fix>3d</fix>
</trkpt>
<trkpt lat="40.0728937" lon="-105.2306458">
  <ele>1615.56</ele>
  <time>2026-08-27T18:31:21Z</time>
  <course>10.04</course>
  <speed>0.563205113613149</speed>
  <fix>3d</fix>
</trkpt>
<trkpt lat="40.0728935" lon="-105.2306452">
  <ele>1615.39</ele>
  <time>2026-08-27T18:31:21Z</time>
  <course>284.85</course>
  <speed>0.58</speed>
  <fix>3d</fix>
</trkpt>
<trkpt lat="40.072894" lon="-105.2306471">
  <ele>1615.56</ele>
  <time>2026-08-27T18:31:21Z</time>
  <course>10.04</course>
  <speed>0.5440588203494178</speed>
  <fix>3d</fix>
</trkpt>
<trkpt lat="40.0728938" lon="-105.2306465">
  <ele>1615.39</ele>
  <time>2026-08-27T18:31:21Z</time>
  <course>284.46</course>
  <speed>0.57</speed>
  <fix>3d</fix>
</trkpt>
<trkpt lat="40.072894" lon="-105.2306473">
  <ele>1615.56</ele>
  <time>2026-08-27T18:31:21Z</time>
  <course>10.04</course>
  <speed>0.5412023651093923</speed>
  <fix>3d</fix>
</trkpt>
<trkpt lat="40.0728942" lon="-105.2306483">
  <ele>1615.57</ele>
  <time>2026-08-27T18:31:21Z</time>
  <course>10.04</course>
  <speed>0.5316013544000805</speed>
  <fix>3d</fix>
</trkpt>
<trkpt lat="40.072894" lon="-105.2306478">
  <ele>1615.39</ele>
  <time>2026-08-27T18:31:21Z</time>
  <course>284.09</course>
  <speed>0.55</speed>
  <fix>3d</fix>
</trkpt>
<trkpt lat="40.0728945" lon="-105.2306496">
  <ele>1615.56</ele>
  <time>2026-08-27T18:31:21Z</time>
  <course>10.04</course>
  <speed>0.5096076922496363</speed>
  <fix>3d</fix>
</trkpt>
<trkpt lat="40.0728943" lon="-105.230649">
  <ele>1615.39</ele>
  <time>2026-08-27T18:31:21Z</time>
  <course>283.72</course>
  <speed>0.54</speed>
  <fix>3d</fix>
</trkpt>
<trkpt lat="40.0728947" lon="-105.2306508">
  <ele>1615.56</ele>
  <time>2026-08-27T18:31:21Z</time>
  <course>10.04</course>
  <speed>0.49729267036625424</speed>
  <fix>3d</fix>
</trkpt>
<trkpt lat="40.0728944" lon="-105.2306503">
  <ele>1615.38</ele>
  <time>2026-08-27T18:31:21Z</time>
  <course>283.33</course>
  <speed>0.52</speed>
  <fix>3d</fix>
</trkpt>
<trkpt lat="40.0728947" lon="-105.2306509">
  <ele>1615.56</ele>
  <time>2026-08-27T18:31:21Z</time>
  <course>10.04</course>
  <speed>0.49729267036625424</speed>
  <fix>3d</fix>
</trkpt>
<trkpt lat="40.0728949" lon="-105.2306519">
  <ele>1615.56</ele>
  <time>2026-08-27T18:31:21Z</time>
  <course>10.04</course>
  <speed>0.4876474136094644</speed>
  <fix>3d</fix>
</trkpt>
<trkpt lat="40.0728947" lon="-105.2306514">
  <ele>1615.38</ele>
  <time>2026-08-27T18:31:21Z</time>
  <course>282.93</course>
  <speed>0.51</speed>
  <fix>3d</fix>
</trkpt>
<trkpt lat="40.0728951" lon="-105.2306531">
  <ele>1615.56</ele>
  <time>2026-08-27T18:31:21Z</time>
  <course>10.04</course>
  <speed>0.4657252408878007</speed>
  <fix>3d</fix>
</trkpt>
<trkpt lat="40.0728948" lon="-105.2306526">
  <ele>1615.38</ele>
  <time>2026-08-27T18:31:21Z</time>
  <course>282.52</course>
  <speed>0.49</speed>
  <fix>3d</fix>
</trkpt>
<trkpt lat="40.0728953" lon="-105.2306542">
  <ele>1615.56</ele>
  <time>2026-08-27T18:31:21Z</time>
  <course>10.03</course>
  <speed>0.4535416188179427</speed>
  <fix>3d</fix>
</trkpt>
<trkpt lat="40.072895" lon="-105.2306538">
  <ele>1615.38</ele>
  <time>2026-08-27T18:31:21Z</time>
  <course>282.07</course>
  <speed>0.48</speed>
  <fix>3d</fix>
</trkpt>
<trkpt lat="40.0728953" lon="-105.2306543">
  <ele>1615.56</ele>
  <time>2026-08-27T18:31:21Z</time>
  <course>10.03</course>
  <speed>0.4535416188179427</speed>
  <fix>3d</fix>
</trkpt>
<trkpt lat="40.0728954" lon="-105.2306552">
  <ele>1615.56</ele>
  <time>2026-08-27T18:31:21Z</time>
  <course>10.04</course>
  <speed>0.4438468204234429</speed>
  <fix>3d</fix>
</trkpt>
<trkpt lat="40.0728953" lon="-105.2306548">
  <ele>1615.37</ele>
  <time>2026-08-27T18:31:21Z</time>
  <course>281.65</course>
  <speed>0.46</speed>
  <fix>3d</fix>
</trkpt>
<trkpt lat="40.0728956" lon="-105.2306563">
  <ele>1615.55</ele>
  <time>2026-08-27T18:31:21Z</time>
  <course>10.04</course>
  <speed>0.4220189569201838</speed>
  <fix>3d</fix>
</trkpt>
<trkpt lat="40.0728954" lon="-105.2306559">
  <ele>1615.37</ele>
  <time>2026-08-27T18:31:21Z</time>
  <course>281.28</course>
  <speed>0.45</speed>
  <fix>3d</fix>
</trkpt>
<trkpt lat="40.0728957" lon="-105.2306573">
  <ele>1615.55</ele>
  <time>2026-08-27T18:31:21Z</time>
  <course>10.03</course>
  <speed>0.41</speed>
  <fix>3d</fix>
</trkpt>
<trkpt lat="40.0728955" lon="-105.2306569">
  <ele>1615.37</ele>
  <time>2026-08-27T18:31:21Z</time>
  <course>280.89</course>
  <speed>0.43</speed>
  <fix>3d</fix>
</trkpt>
<trkpt lat="40.0728957" lon="-105.2306574">
  <ele>1615.55</ele>
  <time>2026-08-27T18:31:21Z</time>
  <course>10.03</course>
  <speed>0.41</speed>
  <fix>3d</fix>
</trkpt>
<trkpt lat="40.0728959" lon="-105.2306583">
  <ele>1615.55</ele>
  <time>2026-08-27T18:31:21Z</time>
  <course>10.03</course>
  <speed>0.40024992192379005</speed>
  <fix>3d</fix>
</trkpt>
<trkpt lat="40.0728957" lon="-105.2306579">
  <ele>1615.37</ele>
  <time>2026-08-27T18:31:21Z</time>
  <course>280.5</course>
  <speed>0.42</speed>
  <fix>3d</fix>
</trkpt>
<trkpt lat="40.072896" lon="-105.2306592">
  <ele>1615.55</ele>
  <time>2026-08-27T18:31:21Z</time>
  <course>10.02</course>
  <speed>0.388329756778952</speed>
  <fix>3d</fix>
</trkpt>
<trkpt lat="40.0728958" lon="-105.2306589">
  <ele>1615.37</ele>
  <time>2026-08-27T18:31:21Z</time>
  <course>280.11</course>
  <speed>0.41</speed>
  <fix>3d</fix>
</trkpt>
<trkpt lat="40.0728961" lon="-105.2306601">
  <ele>1615.55</ele>
  <time>2026-08-27T18:31:21Z</time>
  <course>10.03</course>
  <speed>0.3687817782917155</speed>
  <fix>3d</fix>
</trkpt>
<trkpt lat="40.072896" lon="-105.2306598">
  <ele>1615.37</ele>
  <time>2026-08-27T18:31:21Z</time>
  <course>279.72</course>
  <speed>0.39</speed>
  <fix>3d</fix>
</trkpt>
<trkpt lat="40.0728961" lon="-105.2306603">
  <ele>1615.55</ele>
  <time>2026-08-27T18:31:21Z</time>
  <course>10.03</course>
  <speed>0.3687817782917155</speed>
  <fix>3d</fix>
</trkpt>
<trkpt lat="40.0728962" lon="-105.230661">
  <ele>1615.55</ele>
  <time>2026-08-27T18:31:21Z</time>
  <course>10.03</course>
  <speed>0.3590264614203248</speed>
  <fix>3d</fix>
</trkpt>
<trkpt lat="40.0728961" lon="-105.2306607">
  <ele>1615.37</ele>
  <time>2026-08-27T18:31:21Z</time>
  <course>279.3</course>
  <speed>0.38</speed>
  <fix>3d</fix>
</trkpt>
<trkpt lat="40.0728963" lon="-105.2306619">
  <ele>1615.55</ele>
  <time>2026-08-27T18:31:21Z</time>
  <course>10.04</course>
  <speed>0.34713109915419565</speed>
  <fix>3d</fix>
</trkpt>
<trkpt lat="40.0728962" lon="-105.2306616">
  <ele>1615.37</ele>
  <time>2026-08-27T18:31:21Z</time>
  <course>278.87</course>
  <speed>0.37</speed>
  <fix>3d</fix>
</trkpt>
<trkpt lat="40.0728964" lon="-105.2306627">
  <ele>1615.55</ele>
  <time>2026-08-27T18:31:21Z</time>
  <course>10.04</course>
  <speed>0.33541019662496846</speed>
  <fix>3d</fix>
</trkpt>
<trkpt lat="40.0728963" lon="-105.2306624">
  <ele>1615.37</ele>
  <time>2026-08-27T18:31:21Z</time>
  <course>278.37</course>
  <speed>0.36</speed>
  <fix>3d</fix>
</trkpt>
<trkpt lat="40.0728964" lon="-105.2306628">
  <ele>1615.55</ele>
  <time>2026-08-27T18:31:21Z</time>
  <course>10.04</course>
  <speed>0.33541019662496846</speed>
  <fix>3d</fix>
</trkpt>
<trkpt lat="40.0728965" lon="-105.2306635">
  <ele>1615.55</ele>
  <time>2026-08-27T18:31:21Z</time>
  <course>10.03</course>
  <speed>0.3255764119219941</speed>
  <fix>3d</fix>
</trkpt>
<trkpt lat="40.0728964" lon="-105.2306633">
  <ele>1615.37</ele>
  <time>2026-08-27T18:31:21Z</time>
  <course>277.73</course>
  <speed>0.34</speed>
  <fix>3d</fix>
</trkpt>
<trkpt lat="40.0728966" lon="-105.2306643">
  <ele>1615.54</ele>
  <time>2026-08-27T18:31:21Z</time>
  <course>10.04</course>
  <speed>0.3059411708155671</speed>
  <fix>3d</fix>
</trkpt>
<trkpt lat="40.0728964" lon="-105.230664">
  <ele>1615.37</ele>
  <time>2026-08-27T18:31:21Z</time>
  <course>277.13</course>
  <speed>0.33</speed>
  <fix>3d</fix>
</trkpt>
<trkpt lat="40.0728967" lon="-105.2306651">
  <ele>1615.53</ele>
  <time>2026-08-27T18:31:21Z</time>
  <course>10.04</course>
  <speed>0.2942787793912432</speed>
  <fix>3d</fix>
</trkpt>
<trkpt lat="40.0728965" lon="-105.2306648">
  <ele>1615.37</ele>
  <time>2026-08-27T18:31:21Z</time>
  <course>276.68</course>
  <speed>0.32</speed>
  <fix>3d</fix>
</trkpt>
<trkpt lat="40.0728967" lon="-105.2306659">
  <ele>1615.39</ele>
  <time>2026-08-27T18:31:21Z</time>
  <course>10.03</course>
  <speed>0.447213595499958</speed>
  <fix>3d</fix>
</trkpt>
<trkpt lat="40.0728966" lon="-105.2306657">
  <ele>1615.32</ele>
  <time>2026-08-27T18:31:21Z</time>
  <course>276.62</course>
  <speed>0.35</speed>
  <fix>3d</fix>
</trkpt>
<trkpt lat="40.0728969" lon="-105.2306677">
  <ele>1615.04</ele>
  <time>2026-08-27T18:31:21Z</time>
  <course>10.03</course>
  <speed>1.1672617529928753</speed>
  <fix>3d</fix>
</trkpt>
<trkpt lat="40.0728967" lon="-105.2306668">
  <ele>1615.12</ele>
  <time>2026-08-27T18:31:21Z</time>
  <course>277.71</course>
  <speed>0.66</speed>
  <fix>3d</fix>
</trkpt>
<trkpt lat="40.072897" lon="-105.2306688">
  <ele>1614.46</ele>
  <time>2026-08-27T18:31:21Z</time>
  <course>10.03</course>
  <speed>1.5536408851468864</speed>
  <fix>3d</fix>
</trkpt>
<trkpt lat="40.0728969" lon="-105.2306687">
  <ele>1614.7</ele>
  <time>2026-08-27T18:31:21Z</time>
  <course>275.96</course>
  <speed>0.29</speed>
  <fix>3d</fix>
</trkpt>
<trkpt lat="40.0728961" lon="-105.2306617">
  <ele>1614.23</ele>
  <time>2026-08-27T18:31:21Z</time>
  <course>10.04</course>
  <speed>3.3818633916821654</speed>
  <fix>3d</fix>
</trkpt>
<trkpt lat="40.0728967" lon="-105.2306672">
  <ele>1614.23</ele>
  <time>2026-08-27T18:31:21Z</time>
  <course>99.62</course>
  <speed>1.84</speed>
  <fix>3d</fix>
</trkpt>
<trkpt lat="40.0728952" lon="-105.2306549">
  <ele>1614.33</ele>
  <time>2026-08-27T18:31:21Z</time>
  <course>10.06</course>
  <speed>2.7718766206308683</speed>
  <fix>3d</fix>
</trkpt>
<trkpt lat="40.072896" lon="-105.2306609">
  <ele>1614.07</ele>
  <time>2026-08-27T18:31:21Z</time>
  <course>99.47</course>
  <speed>3.13</speed>
  <fix>3d</fix>
</trkpt>
<trkpt lat="40.0728944" lon="-105.2306492">
  <ele>1614.53</ele>
  <time>2026-08-27T18:31:21Z</time>
  <course>10.05</course>
  <speed>2.47759964481754</speed>
  <fix>3d</fix>
</trkpt>
<trkpt lat="40.072895" lon="-105.2306541">
  <ele>1614.19</ele>
  <time>2026-08-27T18:31:21Z</time>
  <course>99.61</course>
  <speed>2.74</speed>
  <fix>3d</fix>
</trkpt>
<trkpt lat="40.0728937" lon="-105.2306437">
  <ele>1614.73</ele>
  <time>2026-08-27T18:31:21Z</time>
  <course>10.04</course>
  <speed>2.3657979626333265</speed>
  <fix>3d</fix>
</trkpt>
<trkpt lat="40.0728943" lon="-105.2306481">
  <ele>1614.4</ele>
  <time>2026-08-27T18:31:21Z</time>
  <course>99.74</course>
  <speed>2.49</speed>
  <fix>3d</fix>
</trkpt>
<trkpt lat="40.072893" lon="-105.2306384">
  <ele>1614.9</ele>
  <time>2026-08-27T18:31:21Z</time>
  <course>10.03</course>
  <speed>2.283549868078208</speed>
  <fix>3d</fix>
</trkpt>
<trkpt lat="40.0728936" lon="-105.2306424">
  <ele>1614.59</ele>
  <time>2026-08-27T18:31:21Z</time>
  <course>99.86</course>
  <speed>2.38</speed>
  <fix>3d</fix>
</trkpt>
<trkpt lat="40.0728923" lon="-105.2306332">
  <ele>1615.02</ele>
  <time>2026-08-27T18:31:21Z</time>
  <course>10.02</course>
  <speed>2.1520455385516355</speed>
  <fix>3d</fix>
</trkpt>
<trkpt lat="40.0728928" lon="-105.230637">
  <ele>1614.75</ele>
  <time>2026-08-27T18:31:21Z</time>
  <course>100.0</course>
  <speed>2.28</speed>
  <fix>3d</fix>
</trkpt>
<trkpt lat="40.0728917" lon="-105.2306284">
  <ele>1615.09</ele>
  <time>2026-08-27T18:31:21Z</time>
  <course>10.02</course>
  <speed>1.979419106707824</speed>
  <fix>3d</fix>
</trkpt>
<trkpt lat="40.0728921" lon="-105.2306318">
  <ele>1614.86</ele>
  <time>2026-08-27T18:31:21Z</time>
  <course>100.19</course>
  <speed>2.14</speed>
  <fix>3d</fix>
</trkpt>
<trkpt lat="40.0728911" lon="-105.2306241">
  <ele>1615.12</ele>
  <time>2026-08-27T18:31:21Z</time>
  <course>10.02</course>
  <speed>1.7772450590731714</speed>
  <fix>3d</fix>
</trkpt>
<trkpt lat="40.0728915" lon="-105.2306271">
  <ele>1614.91</ele>
  <time>2026-08-27T18:31:21Z</time>
  <course>100.43</course>
  <speed>1.96</speed>
  <fix>3d</fix>
</trkpt>
<trkpt lat="40.0728906" lon="-105.2306202">
  <ele>1615.11</ele>
  <time>2026-08-27T18:31:21Z</time>
  <course>10.02</course>
  <speed>1.5437940277122464</speed>
  <fix>3d</fix>
</trkpt>
<trkpt lat="40.0728909" lon="-105.2306228">
  <ele>1614.92</ele>
  <time>2026-08-27T18:31:21Z</time>
  <course>100.76</course>
  <speed>1.74</speed>
  <fix>3d</fix>
</trkpt>
<trkpt lat="40.0728901" lon="-105.2306169">
  <ele>1615.07</ele>
  <time>2026-08-27T18:31:21Z</time>
  <course>10.03</course>
  <speed>1.3004999038831184</speed>
  <fix>3d</fix>
</trkpt>
<trkpt lat="40.0728903" lon="-105.2306191">
  <ele>1614.9</ele>
  <time>2026-08-27T18:31:21Z</time>
  <course>101.19</course>
  <speed>1.5</speed>
  <fix>3d</fix>
</trkpt>
<trkpt lat="40.0728897" lon="-105.2306141">
  <ele>1615.01</ele>
  <time>2026-08-27T18:31:21Z</time>
  <course>10.03</course>
  <speed>1.035760590097924</speed>
  <fix>3d</fix>
</trkpt>
<trkpt lat="40.0728898" lon="-105.230616">
  <ele>1614.84</ele>
  <time>2026-08-27T18:31:21Z</time>
  <course>101.78</course>
  <speed>1.24</speed>
  <fix>3d</fix>
</trkpt>
<trkpt lat="40.0728893" lon="-105.230612">
  <ele>1614.93</ele>
  <time>2026-08-27T18:31:21Z</time>
  <course>10.04</course>
  <speed>0.7727871634544663</speed>
  <fix>3d</fix>
</trkpt>
<trkpt lat="40.0728893" lon="-105.2306134">
  <ele>1614.77</ele>
  <time>2026-08-27T18:31:21Z</time>
  <course>102.65</course>
  <speed>0.97</speed>
  <fix>3d</fix>
</trkpt>
<trkpt lat="40.0728891" lon="-105.2306105">
  <ele>1614.85</ele>
  <time>2026-08-27T18:31:21Z</time>
  <course>10.05</course>
  <speed>0.517880295048962</speed>
  <fix>3d</fix>
</trkpt>
<trkpt lat="40.072889" lon="-105.2306115">
  <ele>1614.69</ele>
  <time>2026-08-27T18:31:21Z</time>
  <course>104.07</course>
  <speed>0.71</speed>
  <fix>3d</fix>
</trkpt>
<trkpt lat="40.0728889" lon="-105.2306095">
  <ele>1614.76</ele>
  <time>2026-08-27T18:31:21Z</time>
  <course>10.05</course>
  <speed>0.26476404589747454</speed>
  <fix>3d</fix>
</trkpt>
<trkpt lat="40.0728888" lon="-105.2306102">
  <ele>1614.6</ele>
  <time>2026-08-27T18:31:21Z</time>
  <course>106.81</course>
  <speed>0.45</speed>
  <fix>3d</fix>
</trkpt>
<trkpt lat="40.0728888" lon="-105.2306092">
  <ele>1614.67</ele>
  <time>2026-08-27T18:31:21Z</time>
  <course>10.05</course>
  <speed>0.0412310562561766</speed>
  <fix>3d</fix>
</trkpt>
<trkpt lat="40.0728886" lon="-105.2306094">
  <ele>1614.51</ele>
  <time>2026-08-27T18:31:21Z</time>
  <course>115.17</course>
  <speed>0.2</speed>
  <fix>3d</fix>
</trkpt>
<trkpt lat="40.0728887" lon="-105.2306093">
  <ele>1614.58</ele>
  <time>2026-08-27T18:31:21Z</time>
  <course>10.04</course>
  <speed>0.1414213562373095</speed>
  <fix>3d</fix>
</trkpt>
<trkpt lat="40.0728885" lon="-105.2306092">
  <ele>1614.42</ele>
  <time>2026-08-27T18:31:21Z</time>
  <course>214.03</course>
  <speed>0.05</speed>
  <fix>3d</fix>
</trkpt>
<trkpt lat="40.0728886" lon="-105.2306098">
  <ele>1614.5</ele>
  <time>2026-08-27T18:31:21Z</time>
  <course>10.01</course>
  <speed>0.3125699921617557</speed>
  <fix>3d</fix>
</trkpt>
<trkpt lat="40.0728884" lon="-105.2306095">
  <ele>1614.33</ele>
  <time>2026-08-27T18:31:21Z</time>
  <course>266.02</course>
  <speed>0.22</speed>
  <fix>3d</fix>
</trkpt>
<trkpt lat="40.0728886" lon="-105.2306107">
  <ele>1614.42</ele>
  <time>2026-08-27T18:31:21Z</time>
  <course>9.95</course>
  <speed>0.42107006542854597</speed>
  <fix>3d</fix>
</trkpt>
<trkpt lat="40.0728883" lon="-105.2306103">
  <ele>1614.25</ele>
  <time>2026-08-27T18:31:21Z</time>
  <course>270.05</course>
  <speed>0.38</speed>
  <fix>3d</fix>
</trkpt>
<trkpt lat="40.0728886" lon="-105.2306118">
  <ele>1614.36</ele>
  <time>2026-08-27T18:31:21Z</time>
  <course>9.91</course>
  <speed>0.49</speed>
  <fix>3d</fix>
</trkpt>
<trkpt lat="40.0728883" lon="-105.2306112">
  <ele>1614.17</ele>
  <time>2026-08-27T18:31:21Z</time>
  <course>268.76</course>
  <speed>0.48</speed>
  <fix>3d</fix>
</trkpt>
<trkpt lat="40.0728885" lon="-105.230613">
  <ele>1614.31</ele>
  <time>2026-08-27T18:31:21Z</time>
  <course>9.87</course>
  <speed>0.5048762224545735</speed>
  <fix>3d</fix>
</trkpt>
<trkpt lat="40.0728883" lon="-105.2306124">
  <ele>1614.11</ele>
  <time>2026-08-27T18:31:21Z</time>
  <course>264.48</course>
  <speed>0.54</speed>
  <fix>3d</fix>
</trkpt>
<trkpt lat="40.0728883" lon="-105.2306143">
  <ele>1614.28</ele>
  <time>2026-08-27T18:31:21Z</time>
  <course>9.9</course>
  <speed>0.49040799340956914</speed>
  <fix>3d</fix>
</trkpt>
<trkpt lat="40.0728881" lon="-105.2306137">
  <ele>1614.06</ele>
  <time>2026-08-27T18:31:21Z</time>
  <course>256.93</course>
  <speed>0.55</speed>
  <fix>3d</fix>
</trkpt>
<trkpt lat="40.0728878" lon="-105.2306153">
  <ele>1614.28</ele>
  <time>2026-08-27T18:31:21Z</time>
  <course>9.97</course>
  <speed>0.49040799340956914</speed>
  <fix>3d</fix>
</trkpt>
<trkpt lat="40.0728879" lon="-105.230615">
  <ele>1614.04</ele>
  <time>2026-08-27T18:31:21Z</time>
  <course>244.89</course>
  <speed>0.54</speed>
  <fix>3d</fix>
</trkpt>
<trkpt lat="40.072887" lon="-105.2306162">
  <ele>1614.28</ele>
  <time>2026-08-27T18:31:21Z</time>
  <course>10.05</course>
  <speed>0.5323532661682466</speed>
  <fix>3d</fix>
</trkpt>
<trkpt lat="40.0728873" lon="-105.230616">
  <ele>1614.04</ele>
  <time>2026-08-27T18:31:21Z</time>
  <course>227.17</course>
  <speed>0.53</speed>
  <fix>3d</fix>
</trkpt>
<trkpt lat="40.072886" lon="-105.2306167">
  <ele>1614.29</ele>
  <time>2026-08-27T18:31:21Z</time>
  <course>10.11</course>
  <speed>0.6477653896280658</speed>
  <fix>3d</fix>
</trkpt>
<trkpt lat="40.0728865" lon="-105.2306167">
  <ele>1614.04</ele>
  <time>2026-08-27T18:31:21Z</time>
  <course>206.11</course>
  <speed>0.57</speed>
  <fix>3d</fix>
</trkpt>
<trkpt lat="40.0728847" lon="-105.2306169">
  <ele>1614.3</ele>
  <time>2026-08-27T18:31:21Z</time>
  <course>10.15</course>
  <speed>0.812219182240853</speed>
  <fix>3d</fix>
</trkpt>
<trkpt lat="40.0728855" lon="-105.2306171">
  <ele>1614.05</ele>
  <time>2026-08-27T18:31:21Z</time>
  <course>187.66</course>
  <speed>0.68</speed>
  <fix>3d</fix>
</trkpt>
<trkpt lat="40.0728831" lon="-105.2306166">
  <ele>1614.3</ele>
  <time>2026-08-27T18:31:21Z</time>
  <course>10.14</course>
  <speed>0.9968951800465282</speed>
  <fix>3d</fix>
</trkpt>
<trkpt lat="40.0728841" lon="-105.2306171">
  <ele>1614.06</ele>
  <time>2026-08-27T18:31:21Z</time>
  <course>174.47</course>
  <speed>0.84</speed>
  <fix>3d</fix>
</trkpt>
<trkpt lat="40.0728813" lon="-105.2306161">
  <ele>1614.29</ele>
  <time>2026-08-27T18:31:21Z</time>
  <course>11.69</course>
  <speed>1.179872874508097</speed>
  <fix>3d</fix>
</trkpt>
<trkpt lat="40.0728824" lon="-105.2306167">
  <ele>1614.07</ele>
  <time>2026-08-27T18:31:21Z</time>
  <course>165.48</course>
  <speed>1.02</speed>
  <fix>3d</fix>
</trkpt>
<trkpt lat="40.0728792" lon="-105.230615">
  <ele>1614.29</ele>
  <time>2026-08-27T18:31:21Z</time>
  <course>18.14</course>
  <speed>1.3382451195502265</speed>
  <fix>3d</fix>
</trkpt>
<trkpt lat="40.0728805" lon="-105.230616">
  <ele>1614.08</ele>
  <time>2026-08-27T18:31:21Z</time>
  <course>159.27</course>
  <speed>1.2</speed>
  <fix>3d</fix>
</trkpt>
<trkpt lat="40.072877" lon="-105.2306137">
  <ele>1614.29</ele>
  <time>2026-08-27T18:31:21Z</time>
  <course>27.98</course>
  <speed>1.4671059948074645</speed>
  <fix>3d</fix>
</trkpt>
<trkpt lat="40.0728783" lon="-105.2306148">
  <ele>1614.09</ele>
  <time>2026-08-27T18:31:21Z</time>
  <course>154.77</course>
  <speed>1.35</speed>
  <fix>3d</fix>
</trkpt>
<trkpt lat="40.0728746" lon="-105.230612">
  <ele>1614.28</ele>
  <time>2026-08-27T18:31:21Z</time>
  <course>39.65</course>
  <speed>1.572800050864699</speed>
  <fix>3d</fix>
</trkpt>
<trkpt lat="40.0728761" lon="-105.2306134">
  <ele>1614.1</ele>
  <time>2026-08-27T18:31:21Z</time>
  <course>151.35</course>
  <speed>1.47</speed>
  <fix>3d</fix>
</trkpt>
<trkpt lat="40.0728722" lon="-105.2306101">
  <ele>1614.28</ele>
  <time>2026-08-27T18:31:21Z</time>
  <course>52.24</course>
  <speed>1.6421023110634732</speed>
  <fix>3d</fix>
</trkpt>
<trkpt lat="40.0728737" lon="-105.2306116">
  <ele>1614.11</ele>
  <time>2026-08-27T18:31:21Z</time>
  <course>148.65</course>
  <speed>1.57</speed>
  <fix>3d</fix>
</trkpt>
<trkpt lat="40.0728697" lon="-105.230608">
  <ele>1614.29</ele>
  <time>2026-08-27T18:31:21Z</time>
  <course>65.23</course>
  <speed>1.681071087134628</speed>
  <fix>3d</fix>
</trkpt>
<trkpt lat="40.0728713" lon="-105.2306095">
  <ele>1614.12</ele>
  <time>2026-08-27T18:31:21Z</time>
  <course>146.34</course>
  <speed>1.63</speed>
  <fix>3d</fix>
</trkpt>
<trkpt lat="40.0728673" lon="-105.2306057">
  <ele>1614.29</ele>
  <time>2026-08-27T18:31:21Z</time>
  <course>78.31</course>
  <speed>1.694018890095385</speed>
  <fix>3d</fix>
</trkpt>
<trkpt lat="40.0728688" lon="-105.2306073">
  <ele>1614.13</ele>
  <time>2026-08-27T18:31:21Z</time>
  <course>144.28</course>
  <speed>1.67</speed>
  <fix>3d</fix>
</trkpt>
<trkpt lat="40.0728649" lon="-105.2306033">
  <ele>1614.3</ele>
  <time>2026-08-27T18:31:21Z</time>
  <course>91.32</course>
  <speed>1.7023806859806652</speed>
  <fix>3d</fix>
</trkpt>
<trkpt lat="40.0728664" lon="-105.230605">
  <ele>1614.15</ele>
  <time>2026-08-27T18:31:21Z</time>
  <course>142.5</course>
  <speed>1.68</speed>
  <fix>3d</fix>
</trkpt>
<trkpt lat="40.0728626" lon="-105.2306009">
  <ele>1614.31</ele>
  <time>2026-08-27T18:31:21Z</time>
  <course>104.17</course>
  <speed>1.6977926846349645</speed>
  <fix>3d</fix>
</trkpt>
<trkpt lat="40.072864" lon="-105.2306025">
  <ele>1614.16</ele>
  <time>2026-08-27T18:31:21Z</time>
  <course>141.08</course>
  <speed>1.68</speed>
  <fix>3d</fix>
</trkpt>
<trkpt lat="40.0728602" lon="-105.2305983">
  <ele>1614.33</ele>
  <time>2026-08-27T18:31:21Z</time>
  <course>116.86</course>
  <speed>1.7029386365926402</speed>
  <fix>3d</fix>
</trkpt>
<trkpt lat="40.0728617" lon="-105.2306">
  <ele>1614.17</ele>
  <time>2026-08-27T18:31:21Z</time>
  <course>140.06</course>
  <speed>1.68</speed>
  <fix>3d</fix>
</trkpt>
<trkpt lat="40.072858" lon="-105.2305958">
  <ele>1614.34</ele>
  <time>2026-08-27T18:31:21Z</time>
  <course>129.4</course>
  <speed>1.6801488029338352</speed>
  <fix>3d</fix>
</trkpt>
<trkpt lat="40.0728594" lon="-105.2305974">
  <ele>1614.19</ele>
  <time>2026-08-27T18:31:21Z</time>
  <course>139.32</course>
  <speed>1.67</speed>
  <fix>3d</fix>
</trkpt>
<trkpt lat="40.0728557" lon="-105.2305932">
  <ele>1614.36</ele>
  <time>2026-08-27T18:31:21Z</time>
  <course>139.31</course>
  <speed>1.6434719346554112</speed>
  <fix>3d</fix>
</trkpt>
<trkpt lat="40.0728572" lon="-105.2305949">
  <ele>1614.2</ele>
  <time>2026-08-27T18:31:21Z</time>
  <course>138.66</course>
  <speed>1.65</speed>
  <fix>3d</fix>
</trkpt>
<trkpt lat="40.0728536" lon="-105.2305907">
  <ele>1614.36</ele>
  <time>2026-08-27T18:31:21Z</time>
  <course>143.66</course>
  <speed>1.5854967675779097</speed>
  <fix>3d</fix>
</trkpt>
<trkpt lat="40.0728549" lon="-105.2305923">
  <ele>1614.21</ele>
  <time>2026-08-27T18:31:21Z</time>
  <course>138.06</course>
  <speed>1.61</speed>
  <fix>3d</fix>
</trkpt>
<trkpt lat="40.0728516" lon="-105.2305882">
  <ele>1614.37</ele>
  <time>2026-08-27T18:31:21Z</time>
  <course>144.01</course>
  <speed>1.4928161306738348</speed>
  <fix>3d</fix>
</trkpt>
<trkpt lat="40.0728529" lon="-105.2305898">
  <ele>1614.21</ele>
  <time>2026-08-27T18:31:21Z</time>
  <course>137.53</course>
  <speed>1.54</speed>
  <fix>3d</fix>
</trkpt>
<trkpt lat="40.0728497" lon="-105.2305859">
  <ele>1614.37</ele>
  <time>2026-08-27T18:31:21Z</time>
  <course>142.33</course>
  <speed>1.3862178760930766</speed>
  <fix>3d</fix>
</trkpt>
<trkpt lat="40.0728509" lon="-105.2305874">
  <ele>1614.22</ele>
  <time>2026-08-27T18:31:21Z</time>
  <course>137.05</course>
  <speed>1.45</speed>
  <fix>3d</fix>
</trkpt>
<trkpt lat="40.072848" lon="-105.2305838">
  <ele>1614.37</ele>
  <time>2026-08-27T18:31:21Z</time>
  <course>139.96</course>
  <speed>1.2515989773086265</speed>
  <fix>3d</fix>
</trkpt>
<trkpt lat="40.0728491" lon="-105.2305852">
  <ele>1614.22</ele>
  <time>2026-08-27T18:31:21Z</time>
  <course>136.57</course>
  <speed>1.34</speed>
  <fix>3d</fix>
</trkpt>
<trkpt lat="40.0728465" lon="-105.2305819">
  <ele>1614.37</ele>
  <time>2026-08-27T18:31:21Z</time>
  <course>137.66</course>
  <speed>1.0960383204979651</speed>
  <fix>3d</fix>
</trkpt>
<trkpt lat="40.0728474" lon="-105.2305831">
  <ele>1614.22</ele>
  <time>2026-08-27T18:31:21Z</time>
  <course>136.05</course>
  <speed>1.2</speed>
  <fix>3d</fix>
</trkpt>
<trkpt lat="40.0728453" lon="-105.2305802">
  <ele>1614.37</ele>
  <time>2026-08-27T18:31:21Z</time>
  <course>135.76</course>
  <speed>0.9196738552334734</speed>
  <fix>3d</fix>
</trkpt>
<trkpt lat="40.072846" lon="-105.2305813">
  <ele>1614.22</ele>
  <time>2026-08-27T18:31:21Z</time>
  <course>135.4</course>
  <speed>1.03</speed>
  <fix>3d</fix>
</trkpt>
<trkpt lat="40.0728443" lon="-105.2305788">
  <ele>1614.37</ele>
  <time>2026-08-27T18:31:21Z</time>
  <course>134.64</course>
  <speed>0.73</speed>
  <fix>3d</fix>
</trkpt>
<trkpt lat="40.0728447" lon="-105.2305797">
  <ele>1614.22</ele>
  <time>2026-08-27T18:31:21Z</time>
  <course>134.5</course>
  <speed>0.85</speed>
  <fix>3d</fix>
</trkpt>
<trkpt lat="40.0728435" lon="-105.2305776">
  <ele>1614.37</ele>
  <time>2026-08-27T18:31:21Z</time>
  <course>134.29</course>
  <speed>0.5544366510251645</speed>
  <fix>3d</fix>
</trkpt>
<trkpt lat="40.0728438" lon="-105.2305784">
  <ele>1614.22</ele>
  <time>2026-08-27T18:31:21Z</time>
  <course>133.16</course>
  <speed>0.67</speed>
  <fix>3d</fix>
</trkpt>
<trkpt lat="40.0728429" lon="-105.2305768">
  <ele>1614.37</ele>
  <time>2026-08-27T18:31:21Z</time>
  <course>134.4</course>
  <speed>0.3966106403010388</speed>
  <fix>3d</fix>
</trkpt>
<trkpt lat="40.0728431" lon="-105.2305774">
  <ele>1614.22</ele>
  <time>2026-08-27T18:31:21Z</time>
  <course>131.12</course>
  <speed>0.49</speed>
  <fix>3d</fix>
</trkpt>
<trkpt lat="40.0728426" lon="-105.2305761">
  <ele>1614.37</ele>
  <time>2026-08-27T18:31:21Z</time>
  <course>134.66</course>
  <speed>0.2683281572999748</speed>
  <fix>3d</fix>
</trkpt>
<trkpt lat="40.0728426" lon="-105.2305767">
  <ele>1614.22</ele>
  <time>2026-08-27T18:31:21Z</time>
  <course>127.86</course>
  <speed>0.34</speed>
  <fix>3d</fix>
</trkpt>
<trkpt lat="40.0728424" lon="-105.2305757">
  <ele>1614.37</ele>
  <time>2026-08-27T18:31:21Z</time>
  <course>134.89</course>
  <speed>0.1772004514666935</speed>
  <fix>3d</fix>
</trkpt>
<trkpt lat="40.0728423" lon="-105.2305761">
  <ele>1614.22</ele>
  <time>2026-08-27T18:31:21Z</time>
  <course>122.45</course>
  <speed>0.22</speed>
  <fix>3d</fix>
</trkpt>
<trkpt lat="40.0728423" lon="-105.2305754">
  <ele>1614.37</ele>
  <time>2026-08-27T18:31:21Z</time>
  <course>135.03</course>
  <speed>0.11045361017187261</speed>
  <fix>3d</fix>
</trkpt>
<trkpt lat="40.0728421" lon="-105.2305758">
  <ele>1614.22</ele>
  <time>2026-08-27T18:31:21Z</time>
  <course>112.86</course>
  <speed>0.13</speed>
  <fix>3d</fix>
</trkpt>
<trkpt lat="40.0728422" lon="-105.2305752">
  <ele>1614.37</ele>
  <time>2026-08-27T18:31:21Z</time>
  <course>135.06</course>
  <speed>0.08062257748298549</speed>
  <fix>3d</fix>
</trkpt>
<trkpt lat="40.0728421" lon="-105.2305756">
  <ele>1614.22</ele>
  <time>2026-08-27T18:31:21Z</time>
  <course>96.28</course>
  <speed>0.07</speed>
  <fix>3d</fix>
</trkpt>
<trkpt lat="40.0728422" lon="-105.2305751">
  <ele>1614.37</ele>
  <time>2026-08-27T18:31:21Z</time>
  <course>135.03</course>
  <speed>0.06082762530298219</speed>
  <fix>3d</fix>
</trkpt>
<trkpt lat="40.0728421" lon="-105.2305754">
  <ele>1614.22</ele>
  <time>2026-08-27T18:31:21Z</time>
  <course>77.34</course>
  <speed>0.05</speed>
  <fix>3d</fix>
</trkpt>
<trkpt lat="40.0728422" lon="-105.230575">
  <ele>1614.37</ele>
  <time>2026-08-27T18:31:21Z</time>
  <course>134.99</course>
  <speed>0.06</speed>
  <fix>3d</fix>
</trkpt>
<trkpt lat="40.0728421" lon="-105.2305753">
  <ele>1614.22</ele>
  <time>2026-08-27T18:31:21Z</time>
  <course>76.3</course>
  <speed>0.04</speed>
  <fix>3d</fix>
</trkpt>
<trkpt lat="40.0728422" lon="-105.2305749">
  <ele>1614.37</ele>
  <time>2026-08-27T18:31:21Z</time>
  <course>134.96</course>
  <speed>0.07615773105863909</speed>
  <fix>3d</fix>
</trkpt>
<trkpt lat="40.0728421" lon="-105.2305752">
  <ele>1614.22</ele>
  <time>2026-08-27T18:31:21Z</time>
  <course>99.66</course>
  <speed>0.04</speed>
  <fix>3d</fix>
</trkpt>
<trkpt lat="40.0728421" lon="-105.2305748">
  <ele>1614.36</ele>
  <time>2026-08-27T18:31:21Z</time>
  <course>134.25</course>
  <speed>0.1</speed>
  <fix>3d</fix>
</trkpt>
<trkpt lat="40.0728421" lon="-105.2305751">
  <ele>1614.22</ele>
  <time>2026-08-27T18:31:21Z</time>
  <course>119.9</course>
  <speed>0.07</speed>
  <fix>3d</fix>
</trkpt>
<trkpt lat="40.072842" lon="-105.2305746">
  <ele>1614.37</ele>
  <time>2026-08-27T18:31:21Z</time>
  <course>129.02</course>
  <speed>0.12727922061357855</speed>
  <fix>3d</fix>
</trkpt>
<trkpt lat="40.072842" lon="-105.2305748">
  <ele>1614.22</ele>
  <time>2026-08-27T18:31:21Z</time>
  <course>128.97</course>
  <speed>0.1</speed>
  <fix>3d</fix>
</trkpt>
<trkpt lat="40.0728418" lon="-105.2305744">
  <ele>1614.37</ele>
  <time>2026-08-27T18:31:21Z</time>
  <course>120.06</course>
  <speed>0.1345362404707371</speed>
  <fix>3d</fix>
</trkpt>
<trkpt lat="40.0728419" lon="-105.2305747">
  <ele>1614.22</ele>
  <time>2026-08-27T18:31:21Z</time>
  <course>133.31</course>
  <speed>0.13</speed>
  <fix>3d</fix>
</trkpt>
<trkpt lat="40.0728416" lon="-105.2305742">
  <ele>1614.37</ele>
  <time>2026-08-27T18:31:22Z</time>
  <course>108.93</course>
  <speed>0.15</speed>
  <fix>3d</fix>
</trkpt>
<trkpt lat="40.0728417" lon="-105.2305744">
  <ele>1614.22</ele>
  <time>2026-08-27T18:31:22Z</time>
  <course>136.13</course>
  <speed>0.14</speed>
  <fix>3d</fix>
</trkpt>
<trkpt lat="40.0728414" lon="-105.230574">
  <ele>1614.36</ele>
  <time>2026-08-27T18:31:22Z</time>
  <course>96.72</course>
  <speed>0.15</speed>
  <fix>3d</fix>
</trkpt>
<trkpt lat="40.0728414" lon="-105.2305742">
  <ele>1614.23</ele>
  <time>2026-08-27T18:31:22Z</time>
  <course>138.02</course>
  <speed>0.15</speed>
  <fix>3d</fix>
</trkpt>
<trkpt lat="40.0728412" lon="-105.2305738">
  <ele>1614.36</ele>
  <time>2026-08-27T18:31:22Z</time>
  <course>83.99</course>
  <speed>0.14422205101855956</speed>
  <fix>3d</fix>
</trkpt>
<trkpt lat="40.0728413" lon="-105.2305739">
  <ele>1614.23</ele>
  <time>2026-08-27T18:31:22Z</time>
  <course>139.35</course>
  <speed>0.15</speed>
  <fix>3d</fix>
</trkpt>
<trkpt lat="40.072841" lon="-105.2305736">
  <ele>1614.35</ele>
  <time>2026-08-27T18:31:22Z</time>
  <course>71.06</course>
  <speed>0.12529964086141668</speed>
  <fix>3d</fix>
</trkpt>
<trkpt lat="40.0728411" lon="-105.2305737">
  <ele>1614.23</ele>
  <time>2026-08-27T18:31:22Z</time>
  <course>140.07</course>
  <speed>0.14</speed>
  <fix>3d</fix>
</trkpt>
<trkpt lat="40.0728408" lon="-105.2305734">
  <ele>1614.35</ele>
  <time>2026-08-27T18:31:22Z</time>
  <course>58.09</course>
  <speed>0.1118033988749895</speed>
  <fix>3d</fix>
</trkpt>
<trkpt lat="40.0728409" lon="-105.2305734">
  <ele>1614.23</ele>
  <time>2026-08-27T18:31:22Z</time>
  <course>140.34</course>
  <speed>0.13</speed>
  <fix>3d</fix>
</trkpt>
<trkpt lat="40.0728406" lon="-105.2305733">
  <ele>1614.35</ele>
  <time>2026-08-27T18:31:22Z</time>
  <course>45.19</course>
  <speed>0.08944271909999159</speed>
  <fix>3d</fix>
</trkpt>
<trkpt lat="40.0728407" lon="-105.2305733">
  <ele>1614.23</ele>
  <time>2026-08-27T18:31:22Z</time>
  <course>140.14</course>
  <speed>0.11</speed>
  <fix>3d</fix>
</trkpt>
<trkpt lat="40.0728405" lon="-105.2305732">
  <ele>1614.36</ele>
  <time>2026-08-27T18:31:22Z</time>
  <course>32.38</course>
  <speed>0.0632455532033676</speed>
  <fix>3d</fix>
</trkpt>
<trkpt lat="40.0728406" lon="-105.2305732">
  <ele>1614.23</ele>
  <time>2026-08-27T18:31:22Z</time>
  <course>139.28</course>
  <speed>0.09</speed>
  <fix>3d</fix>
</trkpt>
<trkpt lat="40.0728404" lon="-105.2305731">
  <ele>1614.36</ele>
  <time>2026-08-27T18:31:22Z</time>
  <course>19.93</course>
  <speed>0.04</speed>
  <fix>3d</fix>
</trkpt>
<trkpt lat="40.0728404" lon="-105.230573">
  <ele>1614.24</ele>
  <time>2026-08-27T18:31:22Z</time>
  <course>137.5</course>
  <speed>0.07</speed>
  <fix>3d</fix>
</trkpt>
<trkpt lat="40.0728404" lon="-105.230573">
  <ele>1614.36</ele>
  <time>2026-08-27T18:31:22Z</time>
  <course>11.18</course>
  <speed>0.02</speed>
  <fix>3d</fix>
</trkpt>
<trkpt lat="40.0728403" lon="-105.2305729">
  <ele>1614.24</ele>
  <time>2026-08-27T18:31:22Z</time>
  <course>132.88</course>
  <speed>0.04</speed>
  <fix>3d</fix>
</trkpt>
<trkpt lat="40.0728403" lon="-105.2305729">
  <ele>1614.36</ele>
  <time>2026-08-27T18:31:22Z</time>
  <course>7.22</course>
  <speed>0.01</speed>
  <fix>3d</fix>
</trkpt>
<trkpt lat="40.0728403" lon="-105.2305729">
  <ele>1614.24</ele>
  <time>2026-08-27T18:31:22Z</time>
  <course>116.96</course>
  <speed>0.02</speed>
  <fix>3d</fix>
</trkpt>
<trkpt lat="40.0728403" lon="-105.2305729">
  <ele>1614.37</ele>
  <time>2026-08-27T18:31:22Z</time>
  <course>6.69</course>
  <speed>0.0316227766016838</speed>
  <fix>3d</fix>
</trkpt>
<trkpt lat="40.0728403" lon="-105.2305729">
  <ele>1614.25</ele>
  <time>2026-08-27T18:31:22Z</time>
  <course>24.85</course>
  <speed>0.01</speed>
  <fix>3d</fix>
</trkpt>
<trkpt lat="40.0728404" lon="-105.230573">
  <ele>1614.37</ele>
  <time>2026-08-27T18:31:22Z</time>
  <course>7.84</course>
  <speed>0.044721359549995794</speed>
  <fix>3d</fix>
</trkpt>
<trkpt lat="40.0728403" lon="-105.2305729">
  <ele>1614.25</ele>
  <time>2026-08-27T18:31:22Z</time>
  <course>344.57</course>
  <speed>0.03</speed>
  <fix>3d</fix>
</trkpt>
<trkpt lat="40.0728404" lon="-105.230573">
  <ele>1614.37</ele>
  <time>2026-08-27T18:31:22Z</time>
  <course>9.36</course>
  <speed>0.06403124237432849</speed>
  <fix>3d</fix>
</trkpt>
<trkpt lat="40.0728403" lon="-105.2305729">
  <ele>1614.25</ele>
  <time>2026-08-27T18:31:22Z</time>
  <course>336.45</course>
  <speed>0.05</speed>
  <fix>3d</fix>
</trkpt>
<trkpt lat="40.0728405" lon="-105.2305731">
  <ele>1614.37</ele>
  <time>2026-08-27T18:31:22Z</time>
  <course>10.53</course>
  <speed>0.07810249675906654</speed>
  <fix>3d</fix>
</trkpt>
<trkpt lat="40.0728404" lon="-105.2305729">
  <ele>1614.25</ele>
  <time>2026-08-27T18:31:22Z</time>
  <course>333.08</course>
  <speed>0.07</speed>
  <fix>3d</fix>
</trkpt>
<trkpt lat="40.0728406" lon="-105.2305732">
  <ele>1614.37</ele>
  <time>2026-08-27T18:31:22Z</time>
  <course>11.14</course>
  <speed>0.09219544457292887</speed>
  <fix>3d</fix>
</trkpt>
<trkpt lat="40.0728406" lon="-105.2305729">
  <ele>1614.25</ele>
  <time>2026-08-27T18:31:22Z</time>
  <course>331.26</course>
  <speed>0.09</speed>
  <fix>3d</fix>
</trkpt>
<trkpt lat="40.0728407" lon="-105.2305733">
  <ele>1614.37</ele>
  <time>2026-08-27T18:31:22Z</time>
  <course>11.3</course>
  <speed>0.1063014581273465</speed>
  <fix>3d</fix>
</trkpt>
<trkpt lat="40.0728407" lon="-105.230573">
  <ele>1614.25</ele>
  <time>2026-08-27T18:31:22Z</time>
  <course>329.79</course>
  <speed>0.1</speed>
  <fix>3d</fix>
</trkpt>
<trkpt lat="40.0728409" lon="-105.2305735">
  <ele>1614.38</ele>
  <time>2026-08-27T18:31:22Z</time>
  <course>11.22</course>
  <speed>0.1063014581273465</speed>
  <fix>3d</fix>
</trkpt>
<trkpt lat="40.0728409" lon="-105.2305732">
  <ele>1614.25</ele>
  <time>2026-08-27T18:31:22Z</time>
  <course>328.47</course>
  <speed>0.11</speed>
  <fix>3d</fix>
</trkpt>
<trkpt lat="40.0728411" lon="-105.2305736">
  <ele>1614.38</ele>
  <time>2026-08-27T18:31:22Z</time>
  <course>11.07</course>
  <speed>0.1063014581273465</speed>
  <fix>3d</fix>
</trkpt>
<trkpt lat="40.0728411" lon="-105.2305733">
  <ele>1614.25</ele>
  <time>2026-08-27T18:31:22Z</time>
  <course>327.46</course>
  <speed>0.12</speed>
  <fix>3d</fix>
</trkpt>
<trkpt lat="40.0728412" lon="-105.2305738">
  <ele>1614.39</ele>
  <time>2026-08-27T18:31:22Z</time>
  <course>10.93</course>
  <speed>0.1063014581273465</speed>
  <fix>3d</fix>
</trkpt>
<trkpt lat="40.0728413" lon="-105.2305734">
  <ele>1614.24</ele>
  <time>2026-08-27T18:31:22Z</time>
  <course>326.46</course>
  <speed>0.12</speed>
  <fix>3d</fix>
</trkpt>
<trkpt lat="40.0728414" lon="-105.2305739">
  <ele>1614.38</ele>
  <time>2026-08-27T18:31:22Z</time>
  <course>10.86</course>
  <speed>0.1063014581273465</speed>
  <fix>3d</fix>
</trkpt>
<trkpt lat="40.0728414" lon="-105.2305737">
  <ele>1614.24</ele>
  <time>2026-08-27T18:31:22Z</time>
  <course>325.35</course>
  <speed>0.12</speed>
  <fix>3d</fix>
</trkpt>
<trkpt lat="40.0728416" lon="-105.2305741">
  <ele>1614.37</ele>
  <time>2026-08-27T18:31:22Z</time>
  <course>10.84</course>
  <speed>0.1063014581273465</speed>
  <fix>3d</fix>
</trkpt>
<trkpt lat="40.0728417" lon="-105.2305738">
  <ele>1614.24</ele>
  <time>2026-08-27T18:31:22Z</time>
  <course>324.25</course>
  <speed>0.12</speed>
  <fix>3d</fix>
</trkpt>
<trkpt lat="40.0728418" lon="-105.2305742">
  <ele>1614.37</ele>
  <time>2026-08-27T18:31:22Z</time>
  <course>10.84</course>
  <speed>0.1</speed>
  <fix>3d</fix>
</trkpt>
<trkpt lat="40.0728419" lon="-105.2305739">
  <ele>1614.23</ele>
  <time>2026-08-27T18:31:22Z</time>
  <course>323.14</course>
  <speed>0.12</speed>
  <fix>3d</fix>
</trkpt>
<trkpt lat="40.0728419" lon="-105.2305744">
  <ele>1614.36</ele>
  <time>2026-08-27T18:31:22Z</time>
  <course>10.88</course>
  <speed>0.08602325267042626</speed>
  <fix>3d</fix>
</trkpt>
<trkpt lat="40.072842" lon="-105.2305742">
  <ele>1614.23</ele>
  <time>2026-08-27T18:31:22Z</time>
  <course>321.83</course>
  <speed>0.11</speed>
  <fix>3d</fix>
</trkpt>
<trkpt lat="40.0728421" lon="-105.2305745">
  <ele>1614.33</ele>
  <time>2026-08-27T18:31:22Z</time>
  <course>10.91</course>
  <speed>0.08062257748298549</speed>
  <fix>3d</fix>
</trkpt>
<trkpt lat="40.0728421" lon="-105.2305744">
  <ele>1614.22</ele>
  <time>2026-08-27T18:31:22Z</time>
  <course>320.33</course>
  <speed>0.1</speed>
  <fix>3d</fix>
</trkpt>
<trkpt lat="40.0728422" lon="-105.2305746">
  <ele>1614.27</ele>
  <time>2026-08-27T18:31:22Z</time>
  <course>10.93</course>
  <speed>0.0670820393249937</speed>
  <fix>3d</fix>
</trkpt>
<trkpt lat="40.0728423" lon="-105.2305745">
  <ele>1614.19</ele>
  <time>2026-08-27T18:31:22Z</time>
  <course>318.68</course>
  <speed>0.09</speed>
  <fix>3d</fix>
</trkpt>
<trkpt lat="40.0728423" lon="-105.2305748">
  <ele>1614.17</ele>
  <time>2026-08-27T18:31:22Z</time>
  <course>10.94</course>
  <speed>0.0670820393249937</speed>
  <fix>3d</fix>
</trkpt>
<trkpt lat="40.0728424" lon="-105.2305747">
  <ele>1614.12</ele>
  <time>2026-08-27T18:31:22Z</time>
  <course>316.92</course>
  <speed>0.08</speed>
  <fix>3d</fix>
</trkpt>
<trkpt lat="40.0728424" lon="-105.2305749">
  <ele>1614.02</ele>
  <time>2026-08-27T18:31:22Z</time>
  <course>10.95</course>
  <speed>0.053851648071345036</speed>
  <fix>3d</fix>
</trkpt>
<trkpt lat="40.0728425" lon="-105.2305748">
  <ele>1614.01</ele>
  <time>2026-08-27T18:31:22Z</time>
  <course>314.87</course>
  <speed>0.07</speed>
  <fix>3d</fix>
</trkpt>
<trkpt lat="40.0728425" lon="-105.230575">
  <ele>1613.83</ele>
  <time>2026-08-27T18:31:22Z</time>
  <course>10.96</course>
  <speed>0.04</speed>
  <fix>3d</fix>
</trkpt>
<trkpt lat="40.0728426" lon="-105.2305749">
  <ele>1613.85</ele>
  <time>2026-08-27T18:31:22Z</time>
  <course>312.28</course>
  <speed>0.06</speed>
  <fix>3d</fix>
</trkpt>
<trkpt lat="40.0728425" lon="-105.2305751">
  <ele>1613.59</ele>
  <time>2026-08-27T18:31:22Z</time>
  <course>10.96</course>
  <speed>0.03</speed>
  <fix>3d</fix>
</trkpt>
<trkpt lat="40.0728427" lon="-105.230575">
  <ele>1613.64</ele>
  <time>2026-08-27T18:31:22Z</time>
  <course>309.0</course>
  <speed>0.05</speed>
  <fix>3d</fix>
</trkpt>
<trkpt lat="40.0728425" lon="-105.2305751">
  <ele>1613.32</ele>
  <time>2026-08-27T18:31:22Z</time>
  <course>10.97</course>
  <speed>0.03</speed>
  <fix>3d</fix>
</trkpt>
<trkpt lat="40.0728427" lon="-105.2305751">
  <ele>1613.4</ele>
  <time>2026-08-27T18:31:22Z</time>
  <course>304.07</course>
  <speed>0.04</speed>
  <fix>3d</fix>
</trkpt>
<trkpt lat="40.0728426" lon="-105.2305752">
  <ele>1613.02</ele>
  <time>2026-08-27T18:31:22Z</time>
  <course>10.97</course>
  <speed>0.022360679774997897</speed>
  <fix>3d</fix>
</trkpt>
<trkpt lat="40.0728427" lon="-105.2305752">
  <ele>1613.12</ele>
  <time>2026-08-27T18:31:22Z</time>
  <course>296.43</course>
  <speed>0.03</speed>
  <fix>3d</fix>
</trkpt>
<trkpt lat="40.0728426" lon="-105.2305752">
  <ele>1612.72</ele>
  <time>2026-08-27T18:31:22Z</time>
  <course>10.98</course>
  <speed>0.022360679774997897</speed>
  <fix>3d</fix>
</trkpt>
<trkpt lat="40.0728428" lon="-105.2305753">
  <ele>1612.82</ele>
  <time>2026-08-27T18:31:22Z</time>
  <course>284.18</course>
  <speed>0.02</speed>
  <fix>3d</fix>
</trkpt>
<trkpt lat="40.0728426" lon="-105.2305753">
  <ele>1612.4</ele>
  <time>2026-08-27T18:31:22Z</time>
  <course>10.99</course>
  <speed>0.03</speed>
  <fix>3d</fix>
</trkpt>
<trkpt lat="40.0728429" lon="-105.2305753">
  <ele>1612.52</ele>
  <time>2026-08-27T18:31:22Z</time>
  <course>262.68</course>
  <speed>0.01</speed>
  <fix>3d</fix>
</trkpt>
<trkpt lat="40.0728425" lon="-105.2305753">
  <ele>1612.1</ele>
  <time>2026-08-27T18:31:22Z</time>
  <course>11.0</course>
  <speed>0.04</speed>
  <fix>3d</fix>
</trkpt>
<trkpt lat="40.0728428" lon="-105.2305753">
  <ele>1612.21</ele>
  <time>2026-08-27T18:31:22Z</time>
  <course>231.94</course>
  <speed>0.01</speed>
  <fix>3d</fix>
</trkpt>
<trkpt lat="40.0728426" lon="-105.2305753">
  <ele>1611.79</ele>
  <time>2026-08-27T18:31:22Z</time>
  <course>11.01</course>
  <speed>0.04</speed>
  <fix>3d</fix>
</trkpt>
<trkpt lat="40.0728427" lon="-105.2305753">
  <ele>1611.91</ele>
  <time>2026-08-27T18:31:22Z</time>
  <course>205.47</course>
  <speed>0.01</speed>
  <fix>3d</fix>
</trkpt>
<trkpt lat="40.0728426" lon="-105.2305753">
  <ele>1611.49</ele>
  <time>2026-08-27T18:31:22Z</time>
  <course>11.01</course>
  <speed>0.05</speed>
  <fix>3d</fix>
</trkpt>
<trkpt lat="40.0728427" lon="-105.2305753">
  <ele>1611.62</ele>
  <time>2026-08-27T18:31:22Z</time>
  <course>189.34</course>
  <speed>0.02</speed>
  <fix>3d</fix>
</trkpt>
<trkpt lat="40.0728425" lon="-105.2305753">
  <ele>1611.2</ele>
  <time>2026-08-27T18:31:22Z</time>
  <course>11.02</course>
  <speed>0.05099019513592785</speed>
  <fix>3d</fix>
</trkpt>
<trkpt lat="40.0728427" lon="-105.2305753">
  <ele>1611.32</ele>
  <time>2026-08-27T18:31:22Z</time>
  <course>181.98</course>
  <speed>0.02</speed>
  <fix>3d</fix>
</trkpt>
<trkpt lat="40.0728425" lon="-105.2305753">
  <ele>1610.9</ele>
  <time>2026-08-27T18:31:22Z</time>
  <course>11.03</course>
  <speed>0.05099019513592785</speed>
  <fix>3d</fix>
</trkpt>
<trkpt lat="40.0728427" lon="-105.2305753">
  <ele>1611.02</ele>
  <time>2026-08-27T18:31:22Z</time>
  <course>177.96</course>
  <speed>0.02</speed>
  <fix>3d</fix>
</trkpt>
<trkpt lat="40.0728424" lon="-105.2305753">
  <ele>1610.6</ele>
  <time>2026-08-27T18:31:22Z</time>
  <course>11.04</course>
  <speed>0.05099019513592785</speed>
  <fix>3d</fix>
</trkpt>
<trkpt lat="40.0728427" lon="-105.2305753">
  <ele>1610.73</ele>
  <time>2026-08-27T18:31:22Z</time>
  <course>174.46</course>
  <speed>0.02</speed>
  <fix>3d</fix>
</trkpt>
<trkpt lat="40.0728424" lon="-105.2305753">
  <ele>1610.29</ele>
  <time>2026-08-27T18:31:22Z</time>
  <course>11.05</course>
  <speed>0.05099019513592785</speed>
  <fix>3d</fix>
</trkpt>
<trkpt lat="40.0728426" lon="-105.2305753">
  <ele>1610.44</ele>
  <time>2026-08-27T18:31:22Z</time>
  <course>172.61</course>
  <speed>0.02</speed>
  <fix>3d</fix>
</trkpt>
<trkpt lat="40.0728424" lon="-105.2305753">
  <ele>1609.99</ele>
  <time>2026-08-27T18:31:22Z</time>
  <course>11.05</course>
  <speed>0.05099019513592785</speed>
  <fix>3d</fix>
</trkpt>
<trkpt lat="40.0728426" lon="-105.2305753">
  <ele>1610.14</ele>
  <time>2026-08-27T18:31:22Z</time>
  <course>171.93</course>
  <speed>0.02</speed>
  <fix>3d</fix>
</trkpt>
<trkpt lat="40.0728423" lon="-105.2305752">
  <ele>1609.69</ele>
  <time>2026-08-27T18:31:22Z</time>
  <course>11.06</course>
  <speed>0.053851648071345036</speed>
  <fix>3d</fix>
</trkpt>
<trkpt lat="40.0728426" lon="-105.2305753">
  <ele>1609.85</ele>
  <time>2026-08-27T18:31:22Z</time>
  <course>172.05</course>
  <speed>0.02</speed>
  <fix>3d</fix>
</trkpt>
<trkpt lat="40.0728423" lon="-105.2305752">
  <ele>1609.4</ele>
  <time>2026-08-27T18:31:22Z</time>
  <course>11.06</course>
  <speed>0.044721359549995794</speed>
  <fix>3d</fix>
</trkpt>
<trkpt lat="40.0728425" lon="-105.2305753">
  <ele>1609.56</ele>
  <time>2026-08-27T18:31:22Z</time>
  <course>172.9</course>
  <speed>0.02</speed>
  <fix>3d</fix>
</trkpt>
<trkpt lat="40.0728423" lon="-105.2305752">
  <ele>1609.1</ele>
  <time>2026-08-27T18:31:22Z</time>
  <course>11.07</course>
  <speed>0.044721359549995794</speed>
  <fix>3d</fix>
</trkpt>
<trkpt lat="40.0728425" lon="-105.2305753">
  <ele>1609.26</ele>
  <time>2026-08-27T18:31:22Z</time>
  <course>174.44</course>
  <speed>0.02</speed>
  <fix>3d</fix>
</trkpt>
<trkpt lat="40.0728422" lon="-105.2305752">
  <ele>1608.8</ele>
  <time>2026-08-27T18:31:22Z</time>
  <course>11.08</course>
  <speed>0.0412310562561766</speed>
  <fix>3d</fix>
</trkpt>
<trkpt lat="40.0728425" lon="-105.2305753">
  <ele>1608.97</ele>
  <time>2026-08-27T18:31:22Z</time>
  <course>176.7</course>
  <speed>0.02</speed>
  <fix>3d</fix>
</trkpt>
<trkpt lat="40.0728422" lon="-105.2305752">
  <ele>1608.5</ele>
  <time>2026-08-27T18:31:22Z</time>
  <course>11.08</course>
  <speed>0.0412310562561766</speed>
  <fix>3d</fix>
</trkpt>
<trkpt lat="40.0728424" lon="-105.2305753">
  <ele>1608.68</ele>
  <time>2026-08-27T18:31:22Z</time>
  <course>179.78</course>
  <speed>0.01</speed>
  <fix>3d</fix>
</trkpt>
<trkpt lat="40.0728422" lon="-105.2305752">
  <ele>1608.21</ele>
  <time>2026-08-27T18:31:22Z</time>
  <course>11.09</course>
  <speed>0.0316227766016838</speed>
  <fix>3d</fix>
</trkpt>
<trkpt lat="40.0728424" lon="-105.2305753">
  <ele>1608.39</ele>
  <time>2026-08-27T18:31:22Z</time>
  <course>183.82</course>
  <speed>0.01</speed>
  <fix>3d</fix>
</trkpt>
<trkpt lat="40.0728422" lon="-105.2305752">
  <ele>1607.91</ele>
  <time>2026-08-27T18:31:22Z</time>
  <course>11.09</course>
  <speed>0.0316227766016838</speed>
  <fix>3d</fix>
</trkpt>
<trkpt lat="40.0728424" lon="-105.2305753">
  <ele>1608.09</ele>
  <time>2026-08-27T18:31:22Z</time>
  <course>188.98</course>
  <speed>0.01</speed>
  <fix>3d</fix>
</trkpt>
<trkpt lat="40.0728422" lon="-105.2305752">
  <ele>1607.61</ele>
  <time>2026-08-27T18:31:22Z</time>
  <course>11.1</course>
  <speed>0.0316227766016838</speed>
  <fix>3d</fix>
</trkpt>
<trkpt lat="40.0728423" lon="-105.2305753">
  <ele>1607.8</ele>
  <time>2026-08-27T18:31:22Z</time>
  <course>195.5</course>
  <speed>0.01</speed>
  <fix>3d</fix>
</trkpt>
<trkpt lat="40.0728422" lon="-105.2305752">
  <ele>1607.32</ele>
  <time>2026-08-27T18:31:22Z</time>
  <course>11.1</course>
  <speed>0.0316227766016838</speed>
  <fix>3d</fix>
</trkpt>
<trkpt lat="40.0728423" lon="-105.2305753">
  <ele>1607.5</ele>
  <time>2026-08-27T18:31:22Z</time>
  <course>203.02</course>
  <speed>0.01</speed>
  <fix>3d</fix>
</trkpt>
<trkpt lat="40.0728421" lon="-105.2305752">
  <ele>1607.02</ele>
  <time>2026-08-27T18:31:22Z</time>
  <course>11.11</course>
  <speed>0.022360679774997897</speed>
  <fix>3d</fix>
</trkpt>
<trkpt lat="40.0728423" lon="-105.2305753">
  <ele>1607.21</ele>
  <time>2026-08-27T18:31:22Z</time>
  <course>212.84</course>
  <speed>0.01</speed>
  <fix>3d</fix>
</trkpt>
<trkpt lat="40.0728421" lon="-105.2305752">
  <ele>1606.72</ele>
  <time>2026-08-27T18:31:22Z</time>
  <course>11.12</course>
  <speed>0.022360679774997897</speed>
  <fix>3d</fix>
</trkpt>
<trkpt lat="40.0728423" lon="-105.2305753">
  <ele>1606.91</ele>
  <time>2026-08-27T18:31:22Z</time>
  <course>226.39</course>
  <speed>0.0</speed>
  <fix>3d</fix>
</trkpt>
<trkpt lat="40.0728421" lon="-105.2305752">
  <ele>1606.42</ele>
  <time>2026-08-27T18:31:22Z</time>
  <course>11.12</course>
  <speed>0.022360679774997897</speed>
  <fix>3d</fix>
</trkpt>
<trkpt lat="40.0728423" lon="-105.2305753">
  <ele>1606.61</ele>
  <time>2026-08-27T18:31:22Z</time>
  <course>241.71</course>
  <speed>0.0</speed>
  <fix>3d</fix>
</trkpt>
<trkpt lat="40.0728421" lon="-105.2305752">
  <ele>1606.12</ele>
  <time>2026-08-27T18:31:22Z</time>
  <course>11.13</course>
  <speed>0.022360679774997897</speed>
  <fix>3d</fix>
</trkpt>
<trkpt lat="40.0728423" lon="-105.2305754">
  <ele>1606.31</ele>
  <time>2026-08-27T18:31:22Z</time>
  <course>255.54</course>
  <speed>0.0</speed>
  <fix>3d</fix>
</trkpt>
<trkpt lat="40.0728422" lon="-105.2305752">
  <ele>1605.82</ele>
  <time>2026-08-27T18:31:22Z</time>
  <course>11.13</course>
  <speed>0.022360679774997897</speed>
  <fix>3d</fix>
</trkpt>
<trkpt lat="40.0728423" lon="-105.2305755">
  <ele>1606.02</ele>
  <time>2026-08-27T18:31:22Z</time>
  <course>265.45</course>
  <speed>0.0</speed>
  <fix>3d</fix>
</trkpt>
<trkpt lat="40.0728422" lon="-105.2305752">
  <ele>1605.52</ele>
  <time>2026-08-27T18:31:22Z</time>
  <course>11.14</course>
  <speed>0.01414213562373095</speed>
  <fix>3d</fix>
</trkpt>
<trkpt lat="40.0728423" lon="-105.2305755">
  <ele>1605.72</ele>
  <time>2026-08-27T18:31:22Z</time>
  <course>273.56</course>
  <speed>0.0</speed>
  <fix>3d</fix>
</trkpt>
<trkpt lat="40.0728422" lon="-105.2305752">
  <ele>1605.22</ele>
  <time>2026-08-27T18:31:22Z</time>
  <course>11.14</course>
  <speed>0.01414213562373095</speed>
  <fix>3d</fix>
</trkpt>
<trkpt lat="40.0728423" lon="-105.2305755">
  <ele>1605.42</ele>
  <time>2026-08-27T18:31:22Z</time>
  <course>280.52</course>
  <speed>0.0</speed>
  <fix>3d</fix>
</trkpt>
<trkpt lat="40.0728422" lon="-105.2305752">
  <ele>1604.92</ele>
  <time>2026-08-27T18:31:22Z</time>
  <course>11.15</course>
  <speed>0.01414213562373095</speed>
  <fix>3d</fix>
</trkpt>
<trkpt lat="40.0728423" lon="-105.2305755">
  <ele>1605.13</ele>
  <time>2026-08-27T18:31:22Z</time>
  <course>286.19</course>
  <speed>0.0</speed>
  <fix>3d</fix>
</trkpt>
<trkpt lat="40.0728422" lon="-105.2305752">
  <ele>1604.62</ele>
  <time>2026-08-27T18:31:22Z</time>
  <course>11.15</course>
  <speed>0.01414213562373095</speed>
  <fix>3d</fix>
</trkpt>
<trkpt lat="40.0728423" lon="-105.2305755">
  <ele>1604.83</ele>
  <time>2026-08-27T18:31:22Z</time>
  <course>292.18</course>
  <speed>0.0</speed>
  <fix>3d</fix>
</trkpt>
<trkpt lat="40.0728422" lon="-105.2305753">
  <ele>1604.32</ele>
  <time>2026-08-27T18:31:22Z</time>
  <course>11.16</course>
  <speed>0.01414213562373095</speed>
  <fix>3d</fix>
</trkpt>
<trkpt lat="40.0728423" lon="-105.2305756">
  <ele>1604.53</ele>
  <time>2026-08-27T18:31:22Z</time>
  <course>299.39</course>
  <speed>0.0</speed>
  <fix>3d</fix>
</trkpt>
<trkpt lat="40.0728422" lon="-105.2305753">
  <ele>1604.02</ele>
  <time>2026-08-27T18:31:22Z</time>
  <course>11.16</course>
  <speed>0.01414213562373095</speed>
  <fix>3d</fix>
</trkpt>
<trkpt lat="40.0728423" lon="-105.2305756">
  <ele>1604.23</ele>
  <time>2026-08-27T18:31:22Z</time>
  <course>306.7</course>
  <speed>0.0</speed>
  <fix>3d</fix>
</trkpt>
<trkpt lat="40.0728422" lon="-105.2305753">
  <ele>1603.72</ele>
  <time>2026-08-27T18:31:22Z</time>
  <course>11.17</course>
  <speed>0.01414213562373095</speed>
  <fix>3d</fix>
</trkpt>
<trkpt lat="40.0728423" lon="-105.2305756">
  <ele>1603.93</ele>
  <time>2026-08-27T18:31:22Z</time>
  <course>315.06</course>
  <speed>0.0</speed>
  <fix>3d</fix>
</trkpt>
<trkpt lat="40.0728422" lon="-105.2305753">
  <ele>1603.42</ele>
  <time>2026-08-27T18:31:22Z</time>
  <course>11.17</course>
  <speed>0.022360679774997897</speed>
  <fix>3d</fix>
</trkpt>
<trkpt lat="40.0728423" lon="-105.2305756">
  <ele>1603.64</ele>
  <time>2026-08-27T18:31:22Z</time>
  <course>326.34</course>
  <speed>0.0</speed>
  <fix>3d</fix>
</trkpt>
<trkpt lat="40.0728422" lon="-105.2305753">
  <ele>1603.12</ele>
  <time>2026-08-27T18:31:22Z</time>
  <course>11.17</course>
  <speed>0.022360679774997897</speed>
  <fix>3d</fix>
</trkpt>
<trkpt lat="40.0728423" lon="-105.2305756">
  <ele>1603.34</ele>
  <time>2026-08-27T18:31:22Z</time>
  <course>339.48</course>
  <speed>0.0</speed>
  <fix>3d</fix>
</trkpt>
<trkpt lat="40.0728422" lon="-105.2305754">
  <ele>1602.82</ele>
  <time>2026-08-27T18:31:22Z</time>
  <course>11.18</course>
  <speed>0.022360679774997897</speed>
  <fix>3d</fix>
</trkpt>
<trkpt lat="40.0728423" lon="-105.2305756">
  <ele>1603.04</ele>
  <time>2026-08-27T18:31:22Z</time>
  <course>353.49</course>
  <speed>0.0</speed>
  <fix>3d</fix>
</trkpt>
<trkpt lat="40.0728422" lon="-105.2305754">
  <ele>1602.52</ele>
  <time>2026-08-27T18:31:22Z</time>
  <course>11.18</course>
  <speed>0.022360679774997897</speed>
  <fix>3d</fix>
</trkpt>
<trkpt lat="40.0728423" lon="-105.2305756">
  <ele>1602.74</ele>
  <time>2026-08-27T18:31:22Z</time>
  <course>6.11</course>
  <speed>0.0</speed>
  <fix>3d</fix>
</trkpt>
<trkpt lat="40.0728422" lon="-105.2305754">
  <ele>1602.22</ele>
  <time>2026-08-27T18:31:22Z</time>
  <course>11.19</course>
  <speed>0.022360679774997897</speed>
  <fix>3d</fix>
</trkpt>
<trkpt lat="40.0728423" lon="-105.2305756">
  <ele>1602.44</ele>
  <time>2026-08-27T18:31:22Z</time>
  <course>18.16</course>
  <speed>0.0</speed>
  <fix>3d</fix>
</trkpt>
<trkpt lat="40.0728422" lon="-105.2305754">
  <ele>1601.92</ele>
  <time>2026-08-27T18:31:22Z</time>
  <course>11.19</course>
  <speed>0.022360679774997897</speed>
  <fix>3d</fix>
</trkpt>
<trkpt lat="40.0728423" lon="-105.2305756">
  <ele>1602.15</ele>
  <time>2026-08-27T18:31:22Z</time>
  <course>28.85</course>
  <speed>0.0</speed>
  <fix>3d</fix>
</trkpt>
<trkpt lat="40.0728422" lon="-105.2305754">
  <ele>1601.63</ele>
  <time>2026-08-27T18:31:22Z</time>
  <course>11.2</course>
  <speed>0.022360679774997897</speed>
  <fix>3d</fix>
</trkpt>
<trkpt lat="40.0728423" lon="-105.2305756">
  <ele>1601.85</ele>
  <time>2026-08-27T18:31:22Z</time>
  <course>36.63</course>
  <speed>0.0</speed>
  <fix>3d</fix>
</trkpt>
<trkpt lat="40.0728422" lon="-105.2305754">
  <ele>1601.33</ele>
  <time>2026-08-27T18:31:22Z</time>
  <course>11.2</course>
  <speed>0.022360679774997897</speed>
  <fix>3d</fix>
</trkpt>
<trkpt lat="40.0728423" lon="-105.2305756">
  <ele>1601.55</ele>
  <time>2026-08-27T18:31:22Z</time>
  <course>42.92</course>
  <speed>0.0</speed>
  <fix>3d</fix>
</trkpt>
<trkpt lat="40.0728422" lon="-105.2305754">
  <ele>1601.03</ele>
  <time>2026-08-27T18:31:22Z</time>
  <course>11.2</course>
  <speed>0.022360679774997897</speed>
  <fix>3d</fix>
</trkpt>
<trkpt lat="40.0728423" lon="-105.2305756">
  <ele>1601.25</ele>
  <time>2026-08-27T18:31:22Z</time>
  <course>47.22</course>
  <speed>0.0</speed>
  <fix>3d</fix>
</trkpt>
<trkpt lat="40.0728422" lon="-105.2305754">
  <ele>1600.74</ele>
  <time>2026-08-27T18:31:22Z</time>
  <course>11.21</course>
  <speed>0.0282842712474619</speed>
  <fix>3d</fix>
</trkpt>
<trkpt lat="40.0728423" lon="-105.2305756">
  <ele>1600.95</ele>
  <time>2026-08-27T18:31:22Z</time>
  <course>52.5</course>
  <speed>0.0</speed>
  <fix>3d</fix>
</trkpt>
<trkpt lat="40.0728422" lon="-105.2305754">
  <ele>1600.44</ele>
  <time>2026-08-27T18:31:22Z</time>
  <course>11.21</course>
  <speed>0.0282842712474619</speed>
  <fix>3d</fix>
</trkpt>
<trkpt lat="40.0728423" lon="-105.2305756">
  <ele>1600.65</ele>
  <time>2026-08-27T18:31:22Z</time>
  <course>61.18</course>
  <speed>0.0</speed>
  <fix>3d</fix>
</trkpt>
<trkpt lat="40.0728422" lon="-105.2305754">
  <ele>1600.14</ele>
  <time>2026-08-27T18:31:22Z</time>
  <course>11.21</course>
  <speed>0.0282842712474619</speed>
  <fix>3d</fix>
</trkpt>
<trkpt lat="40.0728423" lon="-105.2305756">
  <ele>1600.35</ele>
  <time>2026-08-27T18:31:22Z</time>
  <course>64.28</course>
  <speed>0.0</speed>
  <fix>3d</fix>
</trkpt>
<trkpt lat="40.0728422" lon="-105.2305754">
  <ele>1599.84</ele>
  <time>2026-08-27T18:31:22Z</time>
  <course>11.22</course>
  <speed>0.0282842712474619</speed>
  <fix>3d</fix>
</trkpt>
<trkpt lat="40.0728423" lon="-105.2305756">
  <ele>1600.05</ele>
  <time>2026-08-27T18:31:22Z</time>
  <course>62.52</course>
  <speed>0.0</speed>
  <fix>3d</fix>
</trkpt>
<trkpt lat="40.0728422" lon="-105.2305753">
  <ele>1599.55</ele>
  <time>2026-08-27T18:31:22Z</time>
  <course>11.22</course>
  <speed>0.0282842712474619</speed>
  <fix>3d</fix>
</trkpt>
<trkpt lat="40.0728423" lon="-105.2305756">
  <ele>1599.74</ele>
  <time>2026-08-27T18:31:22Z</time>
  <course>61.94</course>
  <speed>0.0</speed>
  <fix>3d</fix>
</trkpt>
<trkpt lat="40.0728422" lon="-105.2305753">
  <ele>1599.25</ele>
  <time>2026-08-27T18:31:22Z</time>
  <course>11.23</course>
  <speed>0.0282842712474619</speed>
  <fix>3d</fix>
</trkpt>
<trkpt lat="40.0728423" lon="-105.2305756">
  <ele>1599.44</ele>
  <time>2026-08-27T18:31:22Z</time>
  <course>62.04</course>
  <speed>0.0</speed>
  <fix>3d</fix>
</trkpt>
<trkpt lat="40.0728422" lon="-105.2305753">
  <ele>1598.94</ele>
  <time>2026-08-27T18:31:22Z</time>
  <course>11.23</course>
  <speed>0.0282842712474619</speed>
  <fix>3d</fix>
</trkpt>
<trkpt lat="40.0728423" lon="-105.2305756">
  <ele>1599.14</ele>
  <time>2026-08-27T18:31:22Z</time>
  <course>64.0</course>
  <speed>0.0</speed>
  <fix>3d</fix>
</trkpt>
<trkpt lat="40.0728422" lon="-105.2305753">
  <ele>1598.64</ele>
  <time>2026-08-27T18:31:22Z</time>
  <course>11.23</course>
  <speed>0.0282842712474619</speed>
  <fix>3d</fix>
</trkpt>
<trkpt lat="40.0728423" lon="-105.2305756">
  <ele>1598.83</ele>
  <time>2026-08-27T18:31:22Z</time>
  <course>65.35</course>
  <speed>0.0</speed>
  <fix>3d</fix>
</trkpt>
<trkpt lat="40.0728422" lon="-105.2305753">
  <ele>1598.33</ele>
  <time>2026-08-27T18:31:22Z</time>
  <course>11.23</course>
  <speed>0.0282842712474619</speed>
  <fix>3d</fix>
</trkpt>
<trkpt lat="40.0728423" lon="-105.2305755">
  <ele>1598.53</ele>
  <time>2026-08-27T18:31:22Z</time>
  <course>64.1</course>
  <speed>0.0</speed>
  <fix>3d</fix>
</trkpt>
<trkpt lat="40.0728422" lon="-105.2305753">
  <ele>1598.03</ele>
  <time>2026-08-27T18:31:22Z</time>
  <course>11.24</course>
  <speed>0.0282842712474619</speed>
  <fix>3d</fix>
</trkpt>
<trkpt lat="40.0728423" lon="-105.2305755">
  <ele>1598.22</ele>
  <time>2026-08-27T18:31:22Z</time>
  <course>62.53</course>
  <speed>0.0</speed>
  <fix>3d</fix>
</trkpt>
<trkpt lat="40.0728422" lon="-105.2305753">
  <ele>1597.73</ele>
  <time>2026-08-27T18:31:22Z</time>
  <course>11.24</course>
  <speed>0.0282842712474619</speed>
  <fix>3d</fix>
</trkpt>
<trkpt lat="40.0728423" lon="-105.2305755">
  <ele>1597.91</ele>
  <time>2026-08-27T18:31:22Z</time>
  <course>61.46</course>
  <speed>0.0</speed>
  <fix>3d</fix>
</trkpt>
<trkpt lat="40.0728422" lon="-105.2305753">
  <ele>1597.43</ele>
  <time>2026-08-27T18:31:22Z</time>
  <course>11.24</course>
  <speed>0.0282842712474619</speed>
  <fix>3d</fix>
</trkpt>
<trkpt lat="40.0728423" lon="-105.2305755">
  <ele>1597.62</ele>
  <time>2026-08-27T18:31:22Z</time>
  <course>59.57</course>
  <speed>0.0</speed>
  <fix>3d</fix>
</trkpt>
<trkpt lat="40.0728422" lon="-105.2305753">
  <ele>1597.16</ele>
  <time>2026-08-27T18:31:22Z</time>
  <course>11.25</course>
  <speed>0.0282842712474619</speed>
  <fix>3d</fix>
</trkpt>
<trkpt lat="40.0728423" lon="-105.2305755">
  <ele>1597.33</ele>
  <time>2026-08-27T18:31:22Z</time>
  <course>55.86</course>
  <speed>0.0</speed>
  <fix>3d</fix>
</trkpt>
<trkpt lat="40.0728422" lon="-105.2305753">
  <ele>1596.92</ele>
  <time>2026-08-27T18:31:22Z</time>
  <course>11.25</course>
  <speed>0.0282842712474619</speed>
  <fix>3d</fix>
</trkpt>
<trkpt lat="40.0728424" lon="-105.2305755">
  <ele>1597.07</ele>
  <time>2026-08-27T18:31:22Z</time>
  <course>50.82</course>
  <speed>0.0</speed>
  <fix>3d</fix>
</trkpt>
<trkpt lat="40.0728422" lon="-105.2305753">
  <ele>1596.73</ele>
  <time>2026-08-27T18:31:22Z</time>
  <course>11.25</course>
  <speed>0.0282842712474619</speed>
  <fix>3d</fix>
</trkpt>
<trkpt lat="40.0728424" lon="-105.2305755">
  <ele>1596.85</ele>
  <time>2026-08-27T18:31:22Z</time>
  <course>40.91</course>
  <speed>0.0</speed>
  <fix>3d</fix>
</trkpt>
<trkpt lat="40.0728422" lon="-105.2305753">
  <ele>1596.59</ele>
  <time>2026-08-27T18:31:22Z</time>
  <course>11.25</course>
  <speed>0.0282842712474619</speed>
  <fix>3d</fix>
</trkpt>
<trkpt lat="40.0728424" lon="-105.2305755">
  <ele>1596.66</ele>
  <time>2026-08-27T18:31:22Z</time>
  <course>33.78</course>
  <speed>0.0</speed>
  <fix>3d</fix>
</trkpt>
<trkpt lat="40.0728422" lon="-105.2305753">
  <ele>1596.48</ele>
  <time>2026-08-27T18:31:22Z</time>
  <course>11.26</course>
  <speed>0.0282842712474619</speed>
  <fix>3d</fix>
</trkpt>
<trkpt lat="40.0728424" lon="-105.2305755">
  <ele>1596.53</ele>
  <time>2026-08-27T18:31:22Z</time>
  <course>34.77</course>
  <speed>0.0</speed>
  <fix>3d</fix>
</trkpt>
<trkpt lat="40.0728422" lon="-105.2305753">
  <ele>1596.38</ele>
  <time>2026-08-27T18:31:22Z</time>
  <course>11.26</course>
  <speed>0.0282842712474619</speed>
  <fix>3d</fix>
</trkpt>
<trkpt lat="40.0728424" lon="-105.2305755">
  <ele>1596.42</ele>
  <time>2026-08-27T18:31:22Z</time>
  <course>38.4</course>
  <speed>0.0</speed>
  <fix>3d</fix>
</trkpt>
<trkpt lat="40.0728422" lon="-105.2305753">
  <ele>1596.29</ele>
  <time>2026-08-27T18:31:22Z</time>
  <course>11.26</course>
  <speed>0.0282842712474619</speed>
  <fix>3d</fix>
</trkpt>
<trkpt lat="40.0728424" lon="-105.2305755">
  <ele>1596.33</ele>
  <time>2026-08-27T18:31:22Z</time>
  <course>50.05</course>
  <speed>0.0</speed>
  <fix>3d</fix>
</trkpt>
<trkpt lat="40.0728422" lon="-105.2305753">
  <ele>1596.2</ele>
  <time>2026-08-27T18:31:22Z</time>
  <course>11.27</course>
  <speed>0.0282842712474619</speed>
  <fix>3d</fix>
</trkpt>
<trkpt lat="40.0728424" lon="-105.2305754">
  <ele>1596.23</ele>
  <time>2026-08-27T18:31:22Z</time>
  <course>67.86</course>
  <speed>0.0</speed>
  <fix>3d</fix>
</trkpt>
<trkpt lat="40.0728422" lon="-105.2305753">
  <ele>1596.1</ele>
  <time>2026-08-27T18:31:22Z</time>
  <course>11.27</course>
  <speed>0.0282842712474619</speed>
  <fix>3d</fix>
</trkpt>
<trkpt lat="40.0728424" lon="-105.2305753">
  <ele>1596.13</ele>
  <time>2026-08-27T18:31:22Z</time>
  <course>91.11</course>
  <speed>0.0</speed>
  <fix>3d</fix>
</trkpt>
<trkpt lat="40.0728422" lon="-105.2305753">
  <ele>1596.0</ele>
  <time>2026-08-27T18:31:22Z</time>
  <course>11.27</course>
  <speed>0.0282842712474619</speed>
  <fix>3d</fix>
</trkpt>
<trkpt lat="40.0728424" lon="-105.2305753">
  <ele>1596.04</ele>
  <time>2026-08-27T18:31:22Z</time>
  <course>132.55</course>
  <speed>0.0</speed>
  <fix>3d</fix>
</trkpt>
<trkpt lat="40.0728422" lon="-105.2305753">
  <ele>1595.9</ele>
  <time>2026-08-27T18:31:22Z</time>
  <course>11.27</course>
  <speed>0.0282842712474619</speed>
  <fix>3d</fix>
</trkpt>
<trkpt lat="40.0728424" lon="-105.2305753">
  <ele>1595.94</ele>
  <time>2026-08-27T18:31:22Z</time>
  <course>157.76</course>
  <speed>0.0</speed>
  <fix>3d</fix>
</trkpt>
<trkpt lat="40.0728422" lon="-105.2305753">
  <ele>1595.8</ele>
  <time>2026-08-27T18:31:22Z</time>
  <course>11.28</course>
  <speed>0.0282842712474619</speed>
  <fix>3d</fix>
</trkpt>
<trkpt lat="40.0728424" lon="-105.2305753">
  <ele>1595.84</ele>
  <time>2026-08-27T18:31:22Z</time>
  <course>174.16</course>
  <speed>0.0</speed>
  <fix>3d</fix>
</trkpt>
<trkpt lat="40.0728422" lon="-105.2305752">
  <ele>1595.7</ele>
  <time>2026-08-27T18:31:22Z</time>
  <course>11.28</course>
  <speed>0.022360679774997897</speed>
  <fix>3d</fix>
</trkpt>
<trkpt lat="40.0728424" lon="-105.2305753">
  <ele>1595.73</ele>
  <time>2026-08-27T18:31:22Z</time>
  <course>187.77</course>
  <speed>0.0</speed>
  <fix>3d</fix>
</trkpt>
<trkpt lat="40.0728422" lon="-105.2305752">
  <ele>1595.6</ele>
  <time>2026-08-27T18:31:22Z</time>
  <course>11.28</course>
  <speed>0.022360679774997897</speed>
  <fix>3d</fix>
</trkpt>
<trkpt lat="40.0728424" lon="-105.2305753">
  <ele>1595.63</ele>
  <time>2026-08-27T18:31:22Z</time>
  <course>196.04</course>
  <speed>0.0</speed>
  <fix>3d</fix>
</trkpt>
<trkpt lat="40.0728422" lon="-105.2305752">
  <ele>1595.49</ele>
  <time>2026-08-27T18:31:22Z</time>
  <course>11.28</course>
  <speed>0.022360679774997897</speed>
  <fix>3d</fix>
</trkpt>
<trkpt lat="40.0728424" lon="-105.2305753">
  <ele>1595.53</ele>
  <time>2026-08-27T18:31:22Z</time>
  <course>198.75</course>
  <speed>0.0</speed>
  <fix>3d</fix>
</trkpt>
<trkpt lat="40.0728422" lon="-105.2305752">
  <ele>1595.39</ele>
  <time>2026-08-27T18:31:22Z</time>
  <course>11.28</course>
  <speed>0.022360679774997897</speed>
  <fix>3d</fix>
</trkpt>
<trkpt lat="40.0728424" lon="-105.2305753">
  <ele>1595.42</ele>
  <time>2026-08-27T18:31:22Z</time>
  <course>201.56</course>
  <speed>0.0</speed>
  <fix>3d</fix>
</trkpt>
<trkpt lat="40.0728422" lon="-105.2305752">
  <ele>1595.29</ele>
  <time>2026-08-27T18:31:22Z</time>
  <course>11.28</course>
  <speed>0.022360679774997897</speed>
  <fix>3d</fix>
</trkpt>
<trkpt lat="40.0728424" lon="-105.2305753">
  <ele>1595.33</ele>
  <time>2026-08-27T18:31:22Z</time>
  <course>208.26</course>
  <speed>0.0</speed>
  <fix>3d</fix>
</trkpt>
<trkpt lat="40.0728422" lon="-105.2305752">
  <ele>1595.19</ele>
  <time>2026-08-27T18:31:22Z</time>
  <course>11.28</course>
  <speed>0.022360679774997897</speed>
  <fix>3d</fix>
</trkpt>
<trkpt lat="40.0728424" lon="-105.2305753">
  <ele>1595.22</ele>
  <time>2026-08-27T18:31:22Z</time>
  <course>215.74</course>
  <speed>0.0</speed>
  <fix>3d</fix>
</trkpt>
<trkpt lat="40.0728422" lon="-105.2305752">
  <ele>1595.09</ele>
  <time>2026-08-27T18:31:22Z</time>
  <course>11.29</course>
  <speed>0.022360679774997897</speed>
  <fix>3d</fix>
</trkpt>
<trkpt lat="40.0728424" lon="-105.2305753">
  <ele>1595.12</ele>
  <time>2026-08-27T18:31:22Z</time>
  <course>220.41</course>
  <speed>0.0</speed>
  <fix>3d</fix>
</trkpt>
<trkpt lat="40.0728422" lon="-105.2305752">
  <ele>1594.99</ele>
  <time>2026-08-27T18:31:22Z</time>
  <course>11.29</course>
  <speed>0.022360679774997897</speed>
  <fix>3d</fix>
</trkpt>
<trkpt lat="40.0728424" lon="-105.2305753">
  <ele>1595.02</ele>
  <time>2026-08-27T18:31:22Z</time>
  <course>222.86</course>
  <speed>0.0</speed>
  <fix>3d</fix>
</trkpt>
<trkpt lat="40.0728422" lon="-105.2305752">
  <ele>1594.89</ele>
  <time>2026-08-27T18:31:22Z</time>
  <course>11.3</course>
  <speed>0.022360679774997897</speed>
  <fix>3d</fix>
</trkpt>
<trkpt lat="40.0728424" lon="-105.2305753">
  <ele>1594.91</ele>
  <time>2026-08-27T18:31:22Z</time>
  <course>229.26</course>
  <speed>0.0</speed>
  <fix>3d</fix>
</trkpt>
<trkpt lat="40.0728422" lon="-105.2305752">
  <ele>1594.79</ele>
  <time>2026-08-27T18:31:22Z</time>
  <course>11.3</course>
  <speed>0.022360679774997897</speed>
  <fix>3d</fix>
</trkpt>
<trkpt lat="40.0728424" lon="-105.2305753">
  <ele>1594.82</ele>
  <time>2026-08-27T18:31:22Z</time>
  <course>235.2</course>
  <speed>0.0</speed>
  <fix>3d</fix>
</trkpt>
<trkpt lat="40.0728422" lon="-105.2305752">
  <ele>1594.69</ele>
  <time>2026-08-27T18:31:22Z</time>
  <course>11.3</course>
  <speed>0.022360679774997897</speed>
  <fix>3d</fix>
</trkpt>
<trkpt lat="40.0728424" lon="-105.2305754">
  <ele>1594.72</ele>
  <time>2026-08-27T18:31:22Z</time>
  <course>234.69</course>
  <speed>0.01</speed>
  <fix>3d</fix>
</trkpt>
<trkpt lat="40.0728422" lon="-105.2305752">
  <ele>1594.59</ele>
  <time>2026-08-27T18:31:22Z</time>
  <course>11.3</course>
  <speed>0.022360679774997897</speed>
  <fix>3d</fix>
</trkpt>
<trkpt lat="40.0728424" lon="-105.2305755">
  <ele>1594.62</ele>
  <time>2026-08-27T18:31:22Z</time>
  <course>232.03</course>
  <speed>0.01</speed>
  <fix>3d</fix>
</trkpt>
<trkpt lat="40.0728422" lon="-105.2305752">
  <ele>1594.49</ele>
  <time>2026-08-27T18:31:22Z</time>
  <course>11.3</course>
  <speed>0.022360679774997897</speed>
  <fix>3d</fix>
</trkpt>
<trkpt lat="40.0728423" lon="-105.2305755">
  <ele>1594.52</ele>
  <time>2026-08-27T18:31:22Z</time>
  <course>229.87</course>
  <speed>0.01</speed>
  <fix>3d</fix>
</trkpt>
<trkpt lat="40.0728422" lon="-105.2305752">
  <ele>1594.39</ele>
  <time>2026-08-27T18:31:22Z</time>
  <course>11.3</course>
  <speed>0.022360679774997897</speed>
  <fix>3d</fix>
</trkpt>
<trkpt lat="40.0728423" lon="-105.2305755">
  <ele>1594.41</ele>
  <time>2026-08-27T18:31:22Z</time>
  <course>227.42</course>
  <speed>0.0</speed>
  <fix>3d</fix>
</trkpt>
<trkpt lat="40.0728422" lon="-105.2305752">
  <ele>1594.29</ele>
  <time>2026-08-27T18:31:22Z</time>
  <course>11.3</course>
  <speed>0.022360679774997897</speed>
  <fix>3d</fix>
</trkpt>
<trkpt lat="40.0728423" lon="-105.2305755">
  <ele>1594.31</ele>
  <time>2026-08-27T18:31:22Z</time>
  <course>223.64</course>
  <speed>0.0</speed>
  <fix>3d</fix>
</trkpt>
<trkpt lat="40.0728422" lon="-105.2305753">
  <ele>1594.19</ele>
  <time>2026-08-27T18:31:22Z</time>
  <course>11.3</course>
  <speed>0.022360679774997897</speed>
  <fix>3d</fix>
</trkpt>
<trkpt lat="40.0728423" lon="-105.2305755">
  <ele>1594.21</ele>
  <time>2026-08-27T18:31:22Z</time>
  <course>221.88</course>
  <speed>0.0</speed>
  <fix>3d</fix>
</trkpt>
<trkpt lat="40.0728422" lon="-105.2305753">
  <ele>1594.1</ele>
  <time>2026-08-27T18:31:22Z</time>
  <course>11.3</course>
  <speed>0.022360679774997897</speed>
  <fix>3d</fix>
</trkpt>
<trkpt lat="40.0728423" lon="-105.2305755">
  <ele>1594.11</ele>
  <time>2026-08-27T18:31:22Z</time>
  <course>217.85</course>
  <speed>0.0</speed>
  <fix>3d</fix>
</trkpt>
<trkpt lat="40.0728422" lon="-105.2305753">
  <ele>1593.99</ele>
  <time>2026-08-27T18:31:22Z</time>
  <course>11.3</course>
  <speed>0.022360679774997897</speed>
  <fix>3d</fix>
</trkpt>
<trkpt lat="40.0728423" lon="-105.2305755">
  <ele>1594.01</ele>
  <time>2026-08-27T18:31:22Z</time>
  <course>210.49</course>
  <speed>0.0</speed>
  <fix>3d</fix>
</trkpt>
<trkpt lat="40.0728422" lon="-105.2305753">
  <ele>1593.9</ele>
  <time>2026-08-27T18:31:22Z</time>
  <course>11.3</course>
  <speed>0.022360679774997897</speed>
  <fix>3d</fix>
</trkpt>
<trkpt lat="40.0728423" lon="-105.2305756">
  <ele>1593.9</ele>
  <time>2026-08-27T18:31:22Z</time>
  <course>210.49</course>
  <speed>0.0</speed>
  <fix>3d</fix>
</trkpt>
<trkpt lat="40.0728422" lon="-105.2305753">
  <ele>1593.79</ele>
  <time>2026-08-27T18:31:22Z</time>
  <course>11.3</course>
  <speed>0.0282842712474619</speed>
  <fix>3d</fix>
</trkpt>
<trkpt lat="40.0728423" lon="-105.2305756">
  <ele>1593.8</ele>
  <time>2026-08-27T18:31:22Z</time>
  <course>205.44</course>
  <speed>0.0</speed>
  <fix>3d</fix>
</trkpt>
<trkpt lat="40.0728422" lon="-105.2305753">
  <ele>1593.69</ele>
  <time>2026-08-27T18:31:23Z</time>
  <course>11.3</course>
  <speed>0.0282842712474619</speed>
  <fix>3d</fix>
</trkpt>
<trkpt lat="40.0728423" lon="-105.2305756">
  <ele>1593.7</ele>
  <time>2026-08-27T18:31:23Z</time>
  <course>189.54</course>
  <speed>0.0</speed>
  <fix>3d</fix>
</trkpt>
<trkpt lat="40.0728422" lon="-105.2305753">
  <ele>1593.59</ele>
  <time>2026-08-27T18:31:23Z</time>
  <course>11.3</course>
  <speed>0.0282842712474619</speed>
  <fix>3d</fix>
</trkpt>
<trkpt lat="40.0728423" lon="-105.2305756">
  <ele>1593.6</ele>
  <time>2026-08-27T18:31:23Z</time>
  <course>168.73</course>
  <speed>0.0</speed>
  <fix>3d</fix>
</trkpt>
<trkpt lat="40.0728422" lon="-105.2305753">
  <ele>1593.49</ele>
  <time>2026-08-27T18:31:23Z</time>
  <course>11.31</course>
  <speed>0.022360679774997897</speed>
  <fix>3d</fix>
</trkpt>
<trkpt lat="40.0728423" lon="-105.2305756">
  <ele>1593.49</ele>
  <time>2026-08-27T18:31:23Z</time>
  <course>145.33</course>
  <speed>0.0</speed>
  <fix>3d</fix>
</trkpt>
<trkpt lat="40.0728422" lon="-105.2305753">
  <ele>1593.39</ele>
  <time>2026-08-27T18:31:23Z</time>
  <course>11.32</course>
  <speed>0.022360679774997897</speed>
  <fix>3d</fix>
</trkpt>
<trkpt lat="40.0728423" lon="-105.2305756">
  <ele>1593.38</ele>
  <time>2026-08-27T18:31:23Z</time>
  <course>122.62</course>
  <speed>0.0</speed>
  <fix>3d</fix>
</trkpt>
<trkpt lat="40.0728422" lon="-105.2305753">
  <ele>1593.28</ele>
  <time>2026-08-27T18:31:23Z</time>
  <course>11.33</course>
  <speed>0.022360679774997897</speed>
  <fix>3d</fix>
</trkpt>
<trkpt lat="40.0728423" lon="-105.2305756">
  <ele>1593.29</ele>
  <time>2026-08-27T18:31:23Z</time>
  <course>107.88</course>
  <speed>0.0</speed>
  <fix>3d</fix>
</trkpt>
<trkpt lat="40.0728422" lon="-105.2305753">
  <ele>1593.19</ele>
  <time>2026-08-27T18:31:23Z</time>
  <course>11.33</course>
  <speed>0.022360679774997897</speed>
  <fix>3d</fix>
</trkpt>
<trkpt lat="40.0728422" lon="-105.2305756">
  <ele>1593.19</ele>
  <time>2026-08-27T18:31:23Z</time>
  <course>99.4</course>
  <speed>0.0</speed>
  <fix>3d</fix>
</trkpt>
<trkpt lat="40.0728422" lon="-105.2305753">
  <ele>1593.09</ele>
  <time>2026-08-27T18:31:23Z</time>
  <course>11.33</course>
  <speed>0.022360679774997897</speed>
  <fix>3d</fix>
</trkpt>
<trkpt lat="40.0728421" lon="-105.2305756">
  <ele>1593.09</ele>
  <time>2026-08-27T18:31:23Z</time>
  <course>91.11</course>
  <speed>0.0</speed>
  <fix>3d</fix>
</trkpt>
<trkpt lat="40.0728422" lon="-105.2305753">
  <ele>1592.99</ele>
  <time>2026-08-27T18:31:23Z</time>
  <course>11.33</course>
  <speed>0.022360679774997897</speed>
  <fix>3d</fix>
</trkpt>
<trkpt lat="40.0728421" lon="-105.2305756">
  <ele>1592.99</ele>
  <time>2026-08-27T18:31:23Z</time>
  <course>85.3</course>
  <speed>0.0</speed>
  <fix>3d</fix>
</trkpt>
<trkpt lat="40.0728422" lon="-105.2305753">
  <ele>1592.9</ele>
  <time>2026-08-27T18:31:23Z</time>
  <course>11.33</course>
  <speed>0.022360679774997897</speed>
  <fix>3d</fix>
</trkpt>
<trkpt lat="40.0728421" lon="-105.2305756">
  <ele>1592.88</ele>
  <time>2026-08-27T18:31:23Z</time>
  <course>79.56</course>
  <speed>0.0</speed>
  <fix>3d</fix>
</trkpt>
<trkpt lat="40.0728422" lon="-105.2305753">
  <ele>1592.8</ele>
  <time>2026-08-27T18:31:23Z</time>
  <course>11.33</course>
  <speed>0.022360679774997897</speed>
  <fix>3d</fix>
</trkpt>
<trkpt lat="40.0728421" lon="-105.2305756">
  <ele>1592.79</ele>
  <time>2026-08-27T18:31:23Z</time>
  <course>71.23</course>
  <speed>0.0</speed>
  <fix>3d</fix>
</trkpt>
<trkpt lat="40.0728421" lon="-105.2305753">
  <ele>1592.69</ele>
  <time>2026-08-27T18:31:23Z</time>
  <course>11.33</course>
  <speed>0.022360679774997897</speed>
  <fix>3d</fix>
</trkpt>
<trkpt lat="40.0728421" lon="-105.2305755">
  <ele>1592.69</ele>
  <time>2026-08-27T18:31:23Z</time>
  <course>62.22</course>
  <speed>0.0</speed>
  <fix>3d</fix>
</trkpt>
<trkpt lat="40.0728421" lon="-105.2305753">
  <ele>1592.59</ele>
  <time>2026-08-27T18:31:23Z</time>
  <course>11.33</course>
  <speed>0.022360679774997897</speed>
  <fix>3d</fix>
</trkpt>
<trkpt lat="40.0728421" lon="-105.2305755">
  <ele>1592.58</ele>
  <time>2026-08-27T18:31:23Z</time>
  <course>53.93</course>
  <speed>0.0</speed>
  <fix>3d</fix>
</trkpt>
<trkpt lat="40.0728421" lon="-105.2305753">
  <ele>1592.49</ele>
  <time>2026-08-27T18:31:23Z</time>
  <course>11.33</course>
  <speed>0.022360679774997897</speed>
  <fix>3d</fix>
</trkpt>
<trkpt lat="40.0728421" lon="-105.2305755">
  <ele>1592.48</ele>
  <time>2026-08-27T18:31:23Z</time>
  <course>44.56</course>
  <speed>0.0</speed>
  <fix>3d</fix>
</trkpt>
<trkpt lat="40.0728421" lon="-105.2305753">
  <ele>1592.38</ele>
  <time>2026-08-27T18:31:23Z</time>
  <course>11.34</course>
  <speed>0.022360679774997897</speed>
  <fix>3d</fix>
</trkpt>
<trkpt lat="40.0728421" lon="-105.2305755">
  <ele>1592.38</ele>
  <time>2026-08-27T18:31:23Z</time>
  <course>38.35</course>
  <speed>0.01</speed>
  <fix>3d</fix>
</trkpt>
<trkpt lat="40.0728421" lon="-105.2305753">
  <ele>1592.28</ele>
  <time>2026-08-27T18:31:23Z</time>
  <course>11.34</course>
  <speed>0.022360679774997897</speed>
  <fix>3d</fix>
</trkpt>
<trkpt lat="40.0728421" lon="-105.2305755">
  <ele>1592.28</ele>
  <time>2026-08-27T18:31:23Z</time>
  <course>35.27</course>
  <speed>0.01</speed>
  <fix>3d</fix>
</trkpt>
<trkpt lat="40.0728421" lon="-105.2305753">
  <ele>1592.18</ele>
  <time>2026-08-27T18:31:23Z</time>
  <course>11.34</course>
  <speed>0.022360679774997897</speed>
  <fix>3d</fix>
</trkpt>
<trkpt lat="40.0728421" lon="-105.2305755">
  <ele>1592.17</ele>
  <time>2026-08-27T18:31:23Z</time>
  <course>31.69</course>
  <speed>0.01</speed>
  <fix>3d</fix>
</trkpt>
<trkpt lat="40.0728421" lon="-105.2305753">
  <ele>1592.08</ele>
  <time>2026-08-27T18:31:23Z</time>
  <course>11.34</course>
  <speed>0.022360679774997897</speed>
  <fix>3d</fix>
</trkpt>
<trkpt lat="40.0728422" lon="-105.2305754">
  <ele>1592.08</ele>
  <time>2026-08-27T18:31:23Z</time>
  <course>29.33</course>
  <speed>0.01</speed>
  <fix>3d</fix>
</trkpt>
<trkpt lat="40.0728421" lon="-105.2305753">
  <ele>1591.98</ele>
  <time>2026-08-27T18:31:23Z</time>
  <course>11.34</course>
  <speed>0.022360679774997897</speed>
  <fix>3d</fix>
</trkpt>
<trkpt lat="40.0728423" lon="-105.2305753">
  <ele>1591.98</ele>
  <time>2026-08-27T18:31:23Z</time>
  <course>27.63</course>
  <speed>0.01</speed>
  <fix>3d</fix>
</trkpt>
<trkpt lat="40.0728421" lon="-105.2305752">
  <ele>1591.88</ele>
  <time>2026-08-27T18:31:23Z</time>
  <course>11.34</course>
  <speed>0.02</speed>
  <fix>3d</fix>
</trkpt>
<trkpt lat="40.0728423" lon="-105.2305753">
  <ele>1591.88</ele>
  <time>2026-08-27T18:31:23Z</time>
  <course>25.03</course>
  <speed>0.01</speed>
  <fix>3d</fix>
</trkpt>
<trkpt lat="40.0728421" lon="-105.2305752">
  <ele>1591.79</ele>
  <time>2026-08-27T18:31:23Z</time>
  <course>11.34</course>
  <speed>0.022360679774997897</speed>
  <fix>3d</fix>
</trkpt>
<trkpt lat="40.0728423" lon="-105.2305753">
  <ele>1591.78</ele>
  <time>2026-08-27T18:31:23Z</time>
  <course>19.74</course>
  <speed>0.01</speed>
  <fix>3d</fix>
</trkpt>
<trkpt lat="40.0728421" lon="-105.2305752">
  <ele>1591.69</ele>
  <time>2026-08-27T18:31:23Z</time>
  <course>11.34</course>
  <speed>0.022360679774997897</speed>
  <fix>3d</fix>
</trkpt>
<trkpt lat="40.0728423" lon="-105.2305753">
  <ele>1591.67</ele>
  <time>2026-08-27T18:31:23Z</time>
  <course>14.91</course>
  <speed>0.01</speed>
  <fix>3d</fix>
</trkpt>
<trkpt lat="40.0728421" lon="-105.2305752">
  <ele>1591.59</ele>
  <time>2026-08-27T18:31:23Z</time>
  <course>11.34</course>
  <speed>0.01414213562373095</speed>
  <fix>3d</fix>
</trkpt>
<trkpt lat="40.0728423" lon="-105.2305753">
  <ele>1591.58</ele>
  <time>2026-08-27T18:31:23Z</time>
  <course>12.95</course>
  <speed>0.01</speed>
  <fix>3d</fix>
</trkpt>
<trkpt lat="40.0728422" lon="-105.2305752">
  <ele>1591.48</ele>
  <time>2026-08-27T18:31:23Z</time>
  <course>11.35</course>
  <speed>0.01414213562373095</speed>
  <fix>3d</fix>
</trkpt>
<trkpt lat="40.0728424" lon="-105.2305753">
  <ele>1591.48</ele>
  <time>2026-08-27T18:31:23Z</time>
  <course>8.85</course>
  <speed>0.0</speed>
  <fix>3d</fix>
</trkpt>
<trkpt lat="40.0728422" lon="-105.2305752">
  <ele>1591.38</ele>
  <time>2026-08-27T18:31:23Z</time>
  <course>11.35</course>
  <speed>0.01414213562373095</speed>
  <fix>3d</fix>
</trkpt>
<trkpt lat="40.0728424" lon="-105.2305753">
  <ele>1591.38</ele>
  <time>2026-08-27T18:31:23Z</time>
  <course>1.0</course>
  <speed>0.0</speed>
  <fix>3d</fix>
</trkpt>
<trkpt lat="40.0728422" lon="-105.2305752">
  <ele>1591.28</ele>
  <time>2026-08-27T18:31:23Z</time>
  <course>11.35</course>
  <speed>0.01414213562373095</speed>
  <fix>3d</fix>
</trkpt>
<trkpt lat="40.0728424" lon="-105.2305753">
  <ele>1591.28</ele>
  <time>2026-08-27T18:31:23Z</time>
  <course>345.24</course>
  <speed>0.0</speed>
  <fix>3d</fix>
</trkpt>
<trkpt lat="40.0728422" lon="-105.2305752">
  <ele>1591.18</ele>
  <time>2026-08-27T18:31:23Z</time>
  <course>11.35</course>
  <speed>0.01414213562373095</speed>
  <fix>3d</fix>
</trkpt>
<trkpt lat="40.0728424" lon="-105.2305753">
  <ele>1591.17</ele>
  <time>2026-08-27T18:31:23Z</time>
  <course>326.95</course>
  <speed>0.0</speed>
  <fix>3d</fix>
</trkpt>
<trkpt lat="40.0728422" lon="-105.2305752">
  <ele>1591.08</ele>
  <time>2026-08-27T18:31:23Z</time>
  <course>11.35</course>
  <speed>0.01414213562373095</speed>
  <fix>3d</fix>
</trkpt>
<trkpt lat="40.0728424" lon="-105.2305753">
  <ele>1591.08</ele>
  <time>2026-08-27T18:31:23Z</time>
  <course>306.19</course>
  <speed>0.0</speed>
  <fix>3d</fix>
</trkpt>
<trkpt lat="40.0728422" lon="-105.2305752">
  <ele>1590.98</ele>
  <time>2026-08-27T18:31:23Z</time>
  <course>11.35</course>
  <speed>0.022360679774997897</speed>
  <fix>3d</fix>
</trkpt>
<trkpt lat="40.0728424" lon="-105.2305753">
  <ele>1590.98</ele>
  <time>2026-08-27T18:31:23Z</time>
  <course>273.5</course>
  <speed>0.0</speed>
  <fix>3d</fix>
</trkpt>
<trkpt lat="40.0728422" lon="-105.2305752">
  <ele>1590.88</ele>
  <time>2026-08-27T18:31:23Z</time>
  <course>11.35</course>
  <speed>0.022360679774997897</speed>
  <fix>3d</fix>
</trkpt>
<trkpt lat="40.0728424" lon="-105.2305753">
  <ele>1590.88</ele>
  <time>2026-08-27T18:31:23Z</time>
  <course>250.58</course>
  <speed>0.0</speed>
  <fix>3d</fix>
</trkpt>
<trkpt lat="40.0728422" lon="-105.2305752">
  <ele>1590.78</ele>
  <time>2026-08-27T18:31:23Z</time>
  <course>11.35</course>
  <speed>0.022360679774997897</speed>
  <fix>3d</fix>
</trkpt>
<trkpt lat="40.0728424" lon="-105.2305753">
  <ele>1590.79</ele>
  <time>2026-08-27T18:31:23Z</time>
  <course>237.05</course>
  <speed>0.0</speed>
  <fix>3d</fix>
</trkpt>
<trkpt lat="40.0728422" lon="-105.2305752">
  <ele>1590.68</ele>
  <time>2026-08-27T18:31:23Z</time>
  <course>11.35</course>
  <speed>0.022360679774997897</speed>
  <fix>3d</fix>
</trkpt>
<trkpt lat="40.0728424" lon="-105.2305753">
  <ele>1590.69</ele>
  <time>2026-08-27T18:31:23Z</time>
  <course>229.73</course>
  <speed>0.0</speed>
  <fix>3d</fix>
</trkpt>
<trkpt lat="40.0728422" lon="-105.2305752">
  <ele>1590.58</ele>
  <time>2026-08-27T18:31:23Z</time>
  <course>11.35</course>
  <speed>0.022360679774997897</speed>
  <fix>3d</fix>
</trkpt>
<trkpt lat="40.0728424" lon="-105.2305753">
  <ele>1590.59</ele>
  <time>2026-08-27T18:31:23Z</time>
  <course>226.93</course>
  <speed>0.0</speed>
  <fix>3d</fix>
</trkpt>
<trkpt lat="40.0728422" lon="-105.2305752">
  <ele>1590.48</ele>
  <time>2026-08-27T18:31:23Z</time>
  <course>11.35</course>
  <speed>0.022360679774997897</speed>
  <fix>3d</fix>
</trkpt>
<trkpt lat="40.0728424" lon="-105.2305753">
  <ele>1590.49</ele>
  <time>2026-08-27T18:31:23Z</time>
  <course>222.9</course>
  <speed>0.0</speed>
  <fix>3d</fix>
</trkpt>
<trkpt lat="40.0728422" lon="-105.2305752">
  <ele>1590.38</ele>
  <time>2026-08-27T18:31:23Z</time>
  <course>11.35</course>
  <speed>0.022360679774997897</speed>
  <fix>3d</fix>
</trkpt>
<trkpt lat="40.0728424" lon="-105.2305753">
  <ele>1590.39</ele>
  <time>2026-08-27T18:31:23Z</time>
  <course>216.83</course>
  <speed>0.0</speed>
  <fix>3d</fix>
</trkpt>
<trkpt lat="40.0728422" lon="-105.2305752">
  <ele>1590.29</ele>
  <time>2026-08-27T18:31:23Z</time>
  <course>11.35</course>
  <speed>0.022360679774997897</speed>
  <fix>3d</fix>
</trkpt>
<trkpt lat="40.0728424" lon="-105.2305753">
  <ele>1590.3</ele>
  <time>2026-08-27T18:31:23Z</time>
  <course>215.68</course>
  <speed>0.0</speed>
  <fix>3d</fix>
</trkpt>
<trkpt lat="40.0728422" lon="-105.2305752">
  <ele>1590.19</ele>
  <time>2026-08-27T18:31:23Z</time>
  <course>11.35</course>
  <speed>0.022360679774997897</speed>
  <fix>3d</fix>
</trkpt>
<trkpt lat="40.0728424" lon="-105.2305753">
  <ele>1590.2</ele>
  <time>2026-08-27T18:31:23Z</time>
  <course>217.84</course>
  <speed>0.0</speed>
  <fix>3d</fix>
</trkpt>
<trkpt lat="40.0728422" lon="-105.2305752">
  <ele>1590.09</ele>
  <time>2026-08-27T18:31:23Z</time>
  <course>11.36</course>
  <speed>0.022360679774997897</speed>
  <fix>3d</fix>
</trkpt>
<trkpt lat="40.0728424" lon="-105.2305753">
  <ele>1590.1</ele>
  <time>2026-08-27T18:31:23Z</time>
  <course>218.51</course>
  <speed>0.0</speed>
  <fix>3d</fix>
</trkpt>
<trkpt lat="40.0728422" lon="-105.2305752">
  <ele>1589.99</ele>
  <time>2026-08-27T18:31:23Z</time>
  <course>11.36</course>
  <speed>0.022360679774997897</speed>
  <fix>3d</fix>
</trkpt>
<trkpt lat="40.0728424" lon="-105.2305753">
  <ele>1590.0</ele>
  <time>2026-08-27T18:31:23Z</time>
  <course>219.64</course>
  <speed>0.0</speed>
  <fix>3d</fix>
</trkpt>
<trkpt lat="40.0728422" lon="-105.2305752">
  <ele>1589.89</ele>
  <time>2026-08-27T18:31:23Z</time>
  <course>11.36</course>
  <speed>0.022360679774997897</speed>
  <fix>3d</fix>
</trkpt>
<trkpt lat="40.0728424" lon="-105.2305753">
  <ele>1589.89</ele>
  <time>2026-08-27T18:31:23Z</time>
  <course>220.04</course>
  <speed>0.0</speed>
  <fix>3d</fix>
</trkpt>
<trkpt lat="40.0728422" lon="-105.2305752">
  <ele>1589.8</ele>
  <time>2026-08-27T18:31:23Z</time>
  <course>11.36</course>
  <speed>0.022360679774997897</speed>
  <fix>3d</fix>
</trkpt>
<trkpt lat="40.0728424" lon="-105.2305753">
  <ele>1589.8</ele>
  <time>2026-08-27T18:31:23Z</time>
  <course>220.32</course>
  <speed>0.0</speed>
  <fix>3d</fix>
</trkpt>
<trkpt lat="40.0728422" lon="-105.2305752">
  <ele>1589.7</ele>
  <time>2026-08-27T18:31:23Z</time>
  <course>11.36</course>
  <speed>0.022360679774997897</speed>
  <fix>3d</fix>
</trkpt>
<trkpt lat="40.0728424" lon="-105.2305754">
  <ele>1589.69</ele>
  <time>2026-08-27T18:31:23Z</time>
  <course>221.27</course>
  <speed>0.0</speed>
  <fix>3d</fix>
</trkpt>
<trkpt lat="40.0728422" lon="-105.2305752">
  <ele>1589.59</ele>
  <time>2026-08-27T18:31:23Z</time>
  <course>11.36</course>
  <speed>0.022360679774997897</speed>
  <fix>3d</fix>
</trkpt>
<trkpt lat="40.0728424" lon="-105.2305755">
  <ele>1589.59</ele>
  <time>2026-08-27T18:31:23Z</time>
  <course>221.5</course>
  <speed>0.0</speed>
  <fix>3d</fix>
</trkpt>
<trkpt lat="40.0728422" lon="-105.2305752">
  <ele>1589.49</ele>
  <time>2026-08-27T18:31:23Z</time>
  <course>11.36</course>
  <speed>0.022360679774997897</speed>
  <fix>3d</fix>
</trkpt>
<trkpt lat="40.0728424" lon="-105.2305755">
  <ele>1589.49</ele>
  <time>2026-08-27T18:31:23Z</time>
  <course>223.67</course>
  <speed>0.0</speed>
  <fix>3d</fix>
</trkpt>
<trkpt lat="40.0728422" lon="-105.2305752">
  <ele>1589.39</ele>
  <time>2026-08-27T18:31:23Z</time>
  <course>11.36</course>
  <speed>0.022360679774997897</speed>
  <fix>3d</fix>
</trkpt>
<trkpt lat="40.0728424" lon="-105.2305755">
  <ele>1589.38</ele>
  <time>2026-08-27T18:31:23Z</time>
  <course>224.64</course>
  <speed>0.0</speed>
  <fix>3d</fix>
</trkpt>
<trkpt lat="40.0728422" lon="-105.2305752">
  <ele>1589.28</ele>
  <time>2026-08-27T18:31:23Z</time>
  <course>11.36</course>
  <speed>0.022360679774997897</speed>
  <fix>3d</fix>
</trkpt>
<trkpt lat="40.0728423" lon="-105.2305755">
  <ele>1589.29</ele>
  <time>2026-08-27T18:31:23Z</time>
  <course>218.02</course>
  <speed>0.0</speed>
  <fix>3d</fix>
</trkpt>
<trkpt lat="40.0728422" lon="-105.2305752">
  <ele>1589.18</ele>
  <time>2026-08-27T18:31:23Z</time>
  <course>11.36</course>
  <speed>0.022360679774997897</speed>
  <fix>3d</fix>
</trkpt>
<trkpt lat="40.0728423" lon="-105.2305755">
  <ele>1589.19</ele>
  <time>2026-08-27T18:31:23Z</time>
  <course>207.69</course>
  <speed>0.0</speed>
  <fix>3d</fix>
</trkpt>
<trkpt lat="40.0728422" lon="-105.2305752">
  <ele>1589.08</ele>
  <time>2026-08-27T18:31:23Z</time>
  <course>11.36</course>
  <speed>0.022360679774997897</speed>
  <fix>3d</fix>
</trkpt>
<trkpt lat="40.0728423" lon="-105.2305755">
  <ele>1589.09</ele>
  <time>2026-08-27T18:31:23Z</time>
  <course>198.74</course>
  <speed>0.0</speed>
  <fix>3d</fix>
</trkpt>
<trkpt lat="40.0728422" lon="-105.2305752">
  <ele>1588.98</ele>
  <time>2026-08-27T18:31:23Z</time>
  <course>11.36</course>
  <speed>0.022360679774997897</speed>
  <fix>3d</fix>
</trkpt>
<trkpt lat="40.0728423" lon="-105.2305755">
  <ele>1588.99</ele>
  <time>2026-08-27T18:31:23Z</time>
  <course>190.45</course>
  <speed>0.0</speed>
  <fix>3d</fix>
</trkpt>
<trkpt lat="40.0728422" lon="-105.2305752">
  <ele>1588.88</ele>
  <time>2026-08-27T18:31:23Z</time>
  <course>11.36</course>
  <speed>0.022360679774997897</speed>
  <fix>3d</fix>
</trkpt>
<trkpt lat="40.0728423" lon="-105.2305755">
  <ele>1588.88</ele>
  <time>2026-08-27T18:31:23Z</time>
  <course>184.29</course>
  <speed>0.0</speed>
  <fix>3d</fix>
</trkpt>
<trkpt lat="40.0728422" lon="-105.2305752">
  <ele>1588.78</ele>
  <time>2026-08-27T18:31:23Z</time>
  <course>11.36</course>
  <speed>0.0282842712474619</speed>
  <fix>3d</fix>
</trkpt>
<trkpt lat="40.0728423" lon="-105.2305755">
  <ele>1588.79</ele>
  <time>2026-08-27T18:31:23Z</time>
  <course>176.13</course>
  <speed>0.0</speed>
  <fix>3d</fix>
</trkpt>
<trkpt lat="40.0728422" lon="-105.2305753">
  <ele>1588.69</ele>
  <time>2026-08-27T18:31:23Z</time>
  <course>11.36</course>
  <speed>0.0282842712474619</speed>
  <fix>3d</fix>
</trkpt>
<trkpt lat="40.0728423" lon="-105.2305755">
  <ele>1588.69</ele>
  <time>2026-08-27T18:31:23Z</time>
  <course>157.82</course>
  <speed>0.0</speed>
  <fix>3d</fix>
</trkpt>
<trkpt lat="40.0728422" lon="-105.2305753">
  <ele>1588.59</ele>
  <time>2026-08-27T18:31:23Z</time>
  <course>11.36</course>
  <speed>0.022360679774997897</speed>
  <fix>3d</fix>
</trkpt>
<trkpt lat="40.0728423" lon="-105.2305755">
  <ele>1588.59</ele>
  <time>2026-08-27T18:31:23Z</time>
  <course>140.86</course>
  <speed>0.0</speed>
  <fix>3d</fix>
</trkpt>
<trkpt lat="40.0728422" lon="-105.2305753">
  <ele>1588.49</ele>
  <time>2026-08-27T18:31:23Z</time>
  <course>11.37</course>
  <speed>0.022360679774997897</speed>
  <fix>3d</fix>
</trkpt>
<trkpt lat="40.0728423" lon="-105.2305755">
  <ele>1588.5</ele>
  <time>2026-08-27T18:31:23Z</time>
  <course>131.55</course>
  <speed>0.0</speed>
  <fix>3d</fix>
</trkpt>
<trkpt lat="40.0728422" lon="-105.2305753">
  <ele>1588.39</ele>
  <time>2026-08-27T18:31:23Z</time>
  <course>11.37</course>
  <speed>0.022360679774997897</speed>
  <fix>3d</fix>
</trkpt>
<trkpt lat="40.0728422" lon="-105.2305755">
  <ele>1588.39</ele>
  <time>2026-08-27T18:31:23Z</time>
  <course>122.75</course>
  <speed>0.0</speed>
  <fix>3d</fix>
</trkpt>
<trkpt lat="40.0728422" lon="-105.2305753">
  <ele>1588.3</ele>
  <time>2026-08-27T18:31:23Z</time>
  <course>11.37</course>
  <speed>0.022360679774997897</speed>
  <fix>3d</fix>
</trkpt>
<trkpt lat="40.0728421" lon="-105.2305755">
  <ele>1588.3</ele>
  <time>2026-08-27T18:31:23Z</time>
  <course>115.42</course>
  <speed>0.0</speed>
  <fix>3d</fix>
</trkpt>
<trkpt lat="40.0728422" lon="-105.2305753">
  <ele>1588.2</ele>
  <time>2026-08-27T18:31:23Z</time>
  <course>11.37</course>
  <speed>0.022360679774997897</speed>
  <fix>3d</fix>
</trkpt>
<trkpt lat="40.0728421" lon="-105.2305755">
  <ele>1588.19</ele>
  <time>2026-08-27T18:31:23Z</time>
  <course>105.91</course>
  <speed>0.0</speed>
  <fix>3d</fix>
</trkpt>
<trkpt lat="40.0728422" lon="-105.2305753">
  <ele>1588.09</ele>
  <time>2026-08-27T18:31:23Z</time>
  <course>11.37</course>
  <speed>0.022360679774997897</speed>
  <fix>3d</fix>
</trkpt>
<trkpt lat="40.0728421" lon="-105.2305755">
  <ele>1588.09</ele>
  <time>2026-08-27T18:31:23Z</time>
  <course>91.81</course>
  <speed>0.0</speed>
  <fix>3d</fix>
</trkpt>
<trkpt lat="40.0728421" lon="-105.2305753">
  <ele>1587.99</ele>
  <time>2026-08-27T18:31:23Z</time>
  <course>11.37</course>
  <speed>0.022360679774997897</speed>
  <fix>3d</fix>
</trkpt>
<trkpt lat="40.0728421" lon="-105.2305755">
  <ele>1587.99</ele>
  <time>2026-08-27T18:31:23Z</time>
  <course>76.66</course>
  <speed>0.0</speed>
  <fix>3d</fix>
</trkpt>
<trkpt lat="40.0728421" lon="-105.2305753">
  <ele>1587.89</ele>
  <time>2026-08-27T18:31:23Z</time>
  <course>11.37</course>
  <speed>0.022360679774997897</speed>
  <fix>3d</fix>
</trkpt>
<trkpt lat="40.0728421" lon="-105.2305755">
  <ele>1587.88</ele>
  <time>2026-08-27T18:31:23Z</time>
  <course>64.98</course>
  <speed>0.0</speed>
  <fix>3d</fix>
</trkpt>
<trkpt lat="40.0728421" lon="-105.2305753">
  <ele>1587.79</ele>
  <time>2026-08-27T18:31:23Z</time>
  <course>11.37</course>
  <speed>0.022360679774997897</speed>
  <fix>3d</fix>
</trkpt>
<trkpt lat="40.0728421" lon="-105.2305755">
  <ele>1587.79</ele>
  <time>2026-08-27T18:31:23Z</time>
  <course>47.6</course>
  <speed>0.0</speed>
  <fix>3d</fix>
</trkpt>
<trkpt lat="40.0728421" lon="-105.2305753">
  <ele>1587.69</ele>
  <time>2026-08-27T18:31:23Z</time>
  <course>11.37</course>
  <speed>0.022360679774997897</speed>
  <fix>3d</fix>
</trkpt>
<trkpt lat="40.0728421" lon="-105.2305755">
  <ele>1587.69</ele>
  <time>2026-08-27T18:31:23Z</time>
  <course>31.9</course>
  <speed>0.0</speed>
  <fix>3d</fix>
</trkpt>
<trkpt lat="40.0728421" lon="-105.2305753">
  <ele>1587.59</ele>
  <time>2026-08-27T18:31:23Z</time>
  <course>11.37</course>
  <speed>0.022360679774997897</speed>
  <fix>3d</fix>
</trkpt>
<trkpt lat="40.0728421" lon="-105.2305755">
  <ele>1587.59</ele>
  <time>2026-08-27T18:31:23Z</time>
  <course>28.61</course>
  <speed>0.0</speed>
  <fix>3d</fix>
</trkpt>
<trkpt lat="40.0728421" lon="-105.2305753">
  <ele>1587.49</ele>
  <time>2026-08-27T18:31:23Z</time>
  <course>11.37</course>
  <speed>0.022360679774997897</speed>
  <fix>3d</fix>
</trkpt>
<trkpt lat="40.0728421" lon="-105.2305755">
  <ele>1587.49</ele>
  <time>2026-08-27T18:31:23Z</time>
  <course>27.15</course>
  <speed>0.0</speed>
  <fix>3d</fix>
</trkpt>
<trkpt lat="40.0728421" lon="-105.2305753">
  <ele>1587.39</ele>
  <time>2026-08-27T18:31:23Z</time>
  <course>11.36</course>
  <speed>0.022360679774997897</speed>
  <fix>3d</fix>
</trkpt>
<trkpt lat="40.0728421" lon="-105.2305755">
  <ele>1587.38</ele>
  <time>2026-08-27T18:31:23Z</time>
  <course>30.5</course>
  <speed>0.01</speed>
  <fix>3d</fix>
</trkpt>
<trkpt lat="40.0728421" lon="-105.2305753">
  <ele>1587.28</ele>
  <time>2026-08-27T18:31:23Z</time>
  <course>11.36</course>
  <speed>0.022360679774997897</speed>
  <fix>3d</fix>
</trkpt>
<trkpt lat="40.0728421" lon="-105.2305755">
  <ele>1587.29</ele>
  <time>2026-08-27T18:31:23Z</time>
  <course>31.8</course>
  <speed>0.01</speed>
  <fix>3d</fix>
</trkpt>
<trkpt lat="40.0728421" lon="-105.2305753">
  <ele>1587.18</ele>
  <time>2026-08-27T18:31:23Z</time>
  <course>11.36</course>
  <speed>0.022360679774997897</speed>
  <fix>3d</fix>
</trkpt>
<trkpt lat="40.0728422" lon="-105.2305755">
  <ele>1587.19</ele>
  <time>2026-08-27T18:31:23Z</time>
  <course>27.04</course>
  <speed>0.01</speed>
  <fix>3d</fix>
</trkpt>
<trkpt lat="40.0728421" lon="-105.2305753">
  <ele>1587.08</ele>
  <time>2026-08-27T18:31:23Z</time>
  <course>11.36</course>
  <speed>0.022360679774997897</speed>
  <fix>3d</fix>
</trkpt>
<trkpt lat="40.0728423" lon="-105.2305754">
  <ele>1587.09</ele>
  <time>2026-08-27T18:31:23Z</time>
  <course>24.26</course>
  <speed>0.01</speed>
  <fix>3d</fix>
</trkpt>
<trkpt lat="40.0728421" lon="-105.2305753">
  <ele>1586.98</ele>
  <time>2026-08-27T18:31:23Z</time>
  <course>11.35</course>
  <speed>0.022360679774997897</speed>
  <fix>3d</fix>
</trkpt>
<trkpt lat="40.0728423" lon="-105.2305753">
  <ele>1586.99</ele>
  <time>2026-08-27T18:31:23Z</time>
  <course>26.27</course>
  <speed>0.01</speed>
  <fix>3d</fix>
</trkpt>
<trkpt lat="40.0728421" lon="-105.2305753">
  <ele>1586.89</ele>
  <time>2026-08-27T18:31:23Z</time>
  <course>11.35</course>
  <speed>0.01414213562373095</speed>
  <fix>3d</fix>
</trkpt>
<trkpt lat="40.0728423" lon="-105.2305753">
  <ele>1586.88</ele>
  <time>2026-08-27T18:31:23Z</time>
  <course>27.52</course>
  <speed>0.01</speed>
  <fix>3d</fix>
</trkpt>
<trkpt lat="40.0728421" lon="-105.2305752">
  <ele>1586.79</ele>
  <time>2026-08-27T18:31:23Z</time>
  <course>11.36</course>
  <speed>0.01414213562373095</speed>
  <fix>3d</fix>
</trkpt>
<trkpt lat="40.0728423" lon="-105.2305753">
  <ele>1586.79</ele>
  <time>2026-08-27T18:31:23Z</time>
  <course>25.21</course>
  <speed>0.01</speed>
  <fix>3d</fix>
</trkpt>
<trkpt lat="40.0728421" lon="-105.2305752">
  <ele>1586.69</ele>
  <time>2026-08-27T18:31:23Z</time>
  <course>11.37</course>
  <speed>0.01414213562373095</speed>
  <fix>3d</fix>
</trkpt>
<trkpt lat="40.0728423" lon="-105.2305753">
  <ele>1586.69</ele>
  <time>2026-08-27T18:31:23Z</time>
  <course>22.76</course>
  <speed>0.01</speed>
  <fix>3d</fix>
</trkpt>
<trkpt lat="40.0728421" lon="-105.2305752">
  <ele>1586.59</ele>
  <time>2026-08-27T18:31:23Z</time>
  <course>11.38</course>
  <speed>0.01414213562373095</speed>
  <fix>3d</fix>
</trkpt>
<trkpt lat="40.0728423" lon="-105.2305753">
  <ele>1586.59</ele>
  <time>2026-08-27T18:31:23Z</time>
  <course>20.42</course>
  <speed>0.0</speed>
  <fix>3d</fix>
</trkpt>
<trkpt lat="40.0728422" lon="-105.2305752">
  <ele>1586.49</ele>
  <time>2026-08-27T18:31:23Z</time>
  <course>11.38</course>
  <speed>0.01414213562373095</speed>
  <fix>3d</fix>
</trkpt>
<trkpt lat="40.0728424" lon="-105.2305753">
  <ele>1586.49</ele>
  <time>2026-08-27T18:31:23Z</time>
  <course>16.86</course>
  <speed>0.0</speed>
  <fix>3d</fix>
</trkpt>
<trkpt lat="40.0728422" lon="-105.2305752">
  <ele>1586.39</ele>
  <time>2026-08-27T18:31:23Z</time>
  <course>11.39</course>
  <speed>0.01414213562373095</speed>
  <fix>3d</fix>
</trkpt>
<trkpt lat="40.0728424" lon="-105.2305753">
  <ele>1586.39</ele>
  <time>2026-08-27T18:31:23Z</time>
  <course>11.56</course>
  <speed>0.0</speed>
  <fix>3d</fix>
</trkpt>
<trkpt lat="40.0728422" lon="-105.2305752">
  <ele>1586.29</ele>
  <time>2026-08-27T18:31:23Z</time>
  <course>11.39</course>
  <speed>0.01414213562373095</speed>
  <fix>3d</fix>
</trkpt>
<trkpt lat="40.0728424" lon="-105.2305753">
  <ele>1586.29</ele>
  <time>2026-08-27T18:31:23Z</time>
  <course>5.32</course>
  <speed>0.0</speed>
  <fix>3d</fix>
</trkpt>
<trkpt lat="40.0728422" lon="-105.2305752">
  <ele>1586.19</ele>
  <time>2026-08-27T18:31:23Z</time>
  <course>11.39</course>
  <speed>0.01414213562373095</speed>
  <fix>3d</fix>
</trkpt>
<trkpt lat="40.0728424" lon="-105.2305753">
  <ele>1586.19</ele>
  <time>2026-08-27T18:31:23Z</time>
  <course>356.1</course>
  <speed>0.0</speed>
  <fix>3d</fix>
</trkpt>
<trkpt lat="40.0728422" lon="-105.2305752">
  <ele>1586.14</ele>
  <time>2026-08-27T18:31:23Z</time>
  <course>11.38</course>
  <speed>0.022360679774997897</speed>
  <fix>3d</fix>
</trkpt>
<trkpt lat="40.0728424" lon="-105.2305753">
  <ele>1586.1</ele>
  <time>2026-08-27T18:31:23Z</time>
  <course>343.02</course>
  <speed>0.0</speed>
  <fix>3d</fix>
</trkpt>
<trkpt lat="40.0728422" lon="-105.2305752">
  <ele>1586.17</ele>
  <time>2026-08-27T18:31:23Z</time>
  <course>11.38</course>
  <speed>0.022360679774997897</speed>
  <fix>3d</fix>
</trkpt>
<trkpt lat="40.0728424" lon="-105.2305753">
  <ele>1586.08</ele>
  <time>2026-08-27T18:31:23Z</time>
  <course>149.23</course>
  <speed>0.0</speed>
  <fix>3d</fix>
</trkpt>
<trkpt lat="40.0728422" lon="-105.2305752">
  <ele>1586.17</ele>
  <time>2026-08-27T18:31:23Z</time>
  <course>11.38</course>
  <speed>0.01414213562373095</speed>
  <fix>3d</fix>
</trkpt>
<trkpt lat="40.0728424" lon="-105.2305753">
  <ele>1586.09</ele>
  <time>2026-08-27T18:31:23Z</time>
  <course>149.48</course>
  <speed>0.0</speed>
  <fix>3d</fix>
</trkpt>
<trkpt lat="40.0728422" lon="-105.2305752">
  <ele>1586.17</ele>
  <time>2026-08-27T18:31:23Z</time>
  <course>11.37</course>
  <speed>0.01414213562373095</speed>
  <fix>3d</fix>
</trkpt>
<trkpt lat="40.0728424" lon="-105.2305753">
  <ele>1586.09</ele>
  <time>2026-08-27T18:31:23Z</time>
  <course>329.6</course>
  <speed>0.0</speed>
  <fix>3d</fix>
</trkpt>
<trkpt lat="40.0728422" lon="-105.2305752">
  <ele>1586.17</ele>
  <time>2026-08-27T18:31:23Z</time>
  <course>11.37</course>
  <speed>0.01414213562373095</speed>
  <fix>3d</fix>
</trkpt>
<trkpt lat="40.0728424" lon="-105.2305753">
  <ele>1586.09</ele>
  <time>2026-08-27T18:31:23Z</time>
  <course>329.63</course>
  <speed>0.0</speed>
  <fix>3d</fix>
</trkpt>
<trkpt lat="40.0728422" lon="-105.2305752">
  <ele>1586.17</ele>
  <time>2026-08-27T18:31:23Z</time>
  <course>11.37</course>
  <speed>0.01414213562373095</speed>
  <fix>3d</fix>
</trkpt>
<trkpt lat="40.0728424" lon="-105.2305753">
  <ele>1586.09</ele>
  <time>2026-08-27T18:31:23Z</time>
  <course>148.92</course>
  <speed>0.0</speed>
  <fix>3d</fix>
</trkpt>
<trkpt lat="40.0728422" lon="-105.2305752">
  <ele>1586.17</ele>
  <time>2026-08-27T18:31:23Z</time>
  <course>11.37</course>
  <speed>0.01414213562373095</speed>
  <fix>3d</fix>
</trkpt>
<trkpt lat="40.0728424" lon="-105.2305753">
  <ele>1586.09</ele>
  <time>2026-08-27T18:31:23Z</time>
  <course>148.12</course>
  <speed>0.0</speed>
  <fix>3d</fix>
</trkpt>
<trkpt lat="40.0728422" lon="-105.2305752">
  <ele>1586.17</ele>
  <time>2026-08-27T18:31:23Z</time>
  <course>11.36</course>
  <speed>0.01414213562373095</speed>
  <fix>3d</fix>
</trkpt>
<trkpt lat="40.0728424" lon="-105.2305753">
  <ele>1586.09</ele>
  <time>2026-08-27T18:31:23Z</time>
  <course>329.45</course>
  <speed>0.0</speed>
  <fix>3d</fix>
</trkpt>
<trkpt lat="40.0728422" lon="-105.2305752">
  <ele>1586.17</ele>
  <time>2026-08-27T18:31:23Z</time>
  <course>11.36</course>
  <speed>0.01414213562373095</speed>
  <fix>3d</fix>
</trkpt>
<trkpt lat="40.0728424" lon="-105.2305753">
  <ele>1586.09</ele>
  <time>2026-08-27T18:31:23Z</time>
  <course>310.35</course>
  <speed>0.0</speed>
  <fix>3d</fix>
</trkpt>
<trkpt lat="40.0728422" lon="-105.2305752">
  <ele>1586.17</ele>
  <time>2026-08-27T18:31:23Z</time>
  <course>11.36</course>
  <speed>0.01414213562373095</speed>
  <fix>3d</fix>
</trkpt>
<trkpt lat="40.0728424" lon="-105.2305753">
  <ele>1586.09</ele>
  <time>2026-08-27T18:31:23Z</time>
  <course>299.47</course>
  <speed>0.0</speed>
  <fix>3d</fix>
</trkpt>
<trkpt lat="40.0728422" lon="-105.2305752">
  <ele>1586.17</ele>
  <time>2026-08-27T18:31:23Z</time>
  <course>11.35</course>
  <speed>0.01414213562373095</speed>
  <fix>3d</fix>
</trkpt>
<trkpt lat="40.0728424" lon="-105.2305753">
  <ele>1586.09</ele>
  <time>2026-08-27T18:31:23Z</time>
  <course>127.31</course>
  <speed>0.0</speed>
  <fix>3d</fix>
</trkpt>
<trkpt lat="40.0728422" lon="-105.2305752">
  <ele>1586.18</ele>
  <time>2026-08-27T18:31:23Z</time>
  <course>11.35</course>
  <speed>0.01414213562373095</speed>
  <fix>3d</fix>
</trkpt>
<trkpt lat="40.0728424" lon="-105.2305753">
  <ele>1586.09</ele>
  <time>2026-08-27T18:31:23Z</time>
  <course>119.15</course>
  <speed>0.0</speed>
  <fix>3d</fix>
</trkpt>
<trkpt lat="40.0728422" lon="-105.2305752">
  <ele>1586.18</ele>
  <time>2026-08-27T18:31:23Z</time>
  <course>11.35</course>
  <speed>0.01414213562373095</speed>
  <fix>3d</fix>
</trkpt>
<trkpt lat="40.0728424" lon="-105.2305753">
  <ele>1586.09</ele>
  <time>2026-08-27T18:31:23Z</time>
  <course>301.46</course>
  <speed>0.0</speed>
  <fix>3d</fix>
</trkpt>
<trkpt lat="40.0728422" lon="-105.2305752">
  <ele>1586.18</ele>
  <time>2026-08-27T18:31:23Z</time>
  <course>11.35</course>
  <speed>0.01414213562373095</speed>
  <fix>3d</fix>
</trkpt>
<trkpt lat="40.0728424" lon="-105.2305753">
  <ele>1586.09</ele>
  <time>2026-08-27T18:31:23Z</time>
  <course>298.75</course>
  <speed>0.0</speed>
  <fix>3d</fix>
</trkpt>
<trkpt lat="40.0728422" lon="-105.2305752">
  <ele>1586.18</ele>
  <time>2026-08-27T18:31:23Z</time>
  <course>11.34</course>
  <speed>0.01414213562373095</speed>
  <fix>3d</fix>
</trkpt>
<trkpt lat="40.0728424" lon="-105.2305753">
  <ele>1586.09</ele>
  <time>2026-08-27T18:31:23Z</time>
  <course>120.43</course>
  <speed>0.0</speed>
  <fix>3d</fix>
</trkpt>
<trkpt lat="40.0728422" lon="-105.2305752">
  <ele>1586.18</ele>
  <time>2026-08-27T18:31:23Z</time>
  <course>11.34</course>
  <speed>0.01414213562373095</speed>
  <fix>3d</fix>
</trkpt>
<trkpt lat="40.0728424" lon="-105.2305753">
  <ele>1586.09</ele>
  <time>2026-08-27T18:31:23Z</time>
  <course>118.1</course>
  <speed>0.0</speed>
  <fix>3d</fix>
</trkpt>
<trkpt lat="40.0728422" lon="-105.2305752">
  <ele>1586.18</ele>
  <time>2026-08-27T18:31:23Z</time>
  <course>11.34</course>
  <speed>0.01414213562373095</speed>
  <fix>3d</fix>
</trkpt>
<trkpt lat="40.0728424" lon="-105.2305753">
  <ele>1586.09</ele>
  <time>2026-08-27T18:31:23Z</time>
  <course>299.93</course>
  <speed>0.0</speed>
  <fix>3d</fix>
</trkpt>
<trkpt lat="40.0728422" lon="-105.2305752">
  <ele>1586.18</ele>
  <time>2026-08-27T18:31:23Z</time>
  <course>11.34</course>
  <speed>0.01414213562373095</speed>
  <fix>3d</fix>
</trkpt>
<trkpt lat="40.0728424" lon="-105.2305753">
  <ele>1586.09</ele>
  <time>2026-08-27T18:31:23Z</time>
  <course>296.36</course>
  <speed>0.0</speed>
  <fix>3d</fix>
</trkpt>
<trkpt lat="40.0728422" lon="-105.2305752">
  <ele>1586.19</ele>
  <time>2026-08-27T18:31:23Z</time>
  <course>11.33</course>
  <speed>0.01414213562373095</speed>
  <fix>3d</fix>
</trkpt>
<trkpt lat="40.0728424" lon="-105.2305753">
  <ele>1586.09</ele>
  <time>2026-08-27T18:31:23Z</time>
  <course>119.57</course>
  <speed>0.0</speed>
  <fix>3d</fix>
</trkpt>
<trkpt lat="40.0728422" lon="-105.2305752">
  <ele>1586.19</ele>
  <time>2026-08-27T18:31:23Z</time>
  <course>11.33</course>
  <speed>0.01414213562373095</speed>
  <fix>3d</fix>
</trkpt>
<trkpt lat="40.0728424" lon="-105.2305753">
  <ele>1586.09</ele>
  <time>2026-08-27T18:31:23Z</time>
  <course>332.58</course>
  <speed>0.0</speed>
  <fix>3d</fix>
</trkpt>
<trkpt lat="40.0728422" lon="-105.2305752">
  <ele>1586.19</ele>
  <time>2026-08-27T18:31:23Z</time>
  <course>11.33</course>
  <speed>0.01414213562373095</speed>
  <fix>3d</fix>
</trkpt>
<trkpt lat="40.0728424" lon="-105.2305753">
  <ele>1586.09</ele>
  <time>2026-08-27T18:31:23Z</time>
  <course>299.25</course>
  <speed>0.0</speed>
  <fix>3d</fix>
</trkpt>
<trkpt lat="40.0728422" lon="-105.2305752">
  <ele>1586.19</ele>
  <time>2026-08-27T18:31:23Z</time>
  <course>11.33</course>
  <speed>0.01414213562373095</speed>
  <fix>3d</fix>
</trkpt>
<trkpt lat="40.0728424" lon="-105.2305753">
  <ele>1586.09</ele>
  <time>2026-08-27T18:31:23Z</time>
  <course>122.1</course>
  <speed>0.0</speed>
  <fix>3d</fix>
</trkpt>
<trkpt lat="40.0728422" lon="-105.2305752">
  <ele>1586.19</ele>
  <time>2026-08-27T18:31:23Z</time>
  <course>11.32</course>
  <speed>0.01414213562373095</speed>
  <fix>3d</fix>
</trkpt>
<trkpt lat="40.0728424" lon="-105.2305753">
  <ele>1586.09</ele>
  <time>2026-08-27T18:31:23Z</time>
  <course>118.88</course>
  <speed>0.0</speed>
  <fix>3d</fix>
</trkpt>
<trkpt lat="40.0728422" lon="-105.2305752">
  <ele>1586.19</ele>
  <time>2026-08-27T18:31:23Z</time>
  <course>11.32</course>
  <speed>0.01414213562373095</speed>
  <fix>3d</fix>
</trkpt>
<trkpt lat="40.0728424" lon="-105.2305753">
  <ele>1586.09</ele>
  <time>2026-08-27T18:31:23Z</time>
  <course>300.65</course>
  <speed>0.0</speed>
  <fix>3d</fix>
</trkpt>
<trkpt lat="40.0728422" lon="-105.2305752">
  <ele>1586.19</ele>
  <time>2026-08-27T18:31:23Z</time>
  <course>11.32</course>
  <speed>0.01414213562373095</speed>
  <fix>3d</fix>
</trkpt>
<trkpt lat="40.0728424" lon="-105.2305753">
  <ele>1586.09</ele>
  <time>2026-08-27T18:31:23Z</time>
  <course>298.34</course>
  <speed>0.0</speed>
  <fix>3d</fix>
</trkpt>
<trkpt lat="40.0728422" lon="-105.2305752">
  <ele>1586.19</ele>
  <time>2026-08-27T18:31:23Z</time>
  <course>11.32</course>
  <speed>0.01414213562373095</speed>
  <fix>3d</fix>
</trkpt>
<trkpt lat="40.0728424" lon="-105.2305753">
  <ele>1586.09</ele>
  <time>2026-08-27T18:31:23Z</time>
  <course>120.08</course>
  <speed>0.0</speed>
  <fix>3d</fix>
</trkpt>
<trkpt lat="40.0728422" lon="-105.2305752">
  <ele>1586.19</ele>
  <time>2026-08-27T18:31:23Z</time>
  <course>11.31</course>
  <speed>0.01414213562373095</speed>
  <fix>3d</fix>
</trkpt>
<trkpt lat="40.0728424" lon="-105.2305753">
  <ele>1586.09</ele>
  <time>2026-08-27T18:31:23Z</time>
  <course>117.28</course>
  <speed>0.0</speed>
  <fix>3d</fix>
</trkpt>
<trkpt lat="40.0728422" lon="-105.2305752">
  <ele>1586.19</ele>
  <time>2026-08-27T18:31:23Z</time>
  <course>11.31</course>
  <speed>0.01414213562373095</speed>
  <fix>3d</fix>
</trkpt>
<trkpt lat="40.0728424" lon="-105.2305753">
  <ele>1586.09</ele>
  <time>2026-08-27T18:31:23Z</time>
  <course>299.57</course>
  <speed>0.0</speed>
  <fix>3d</fix>
</trkpt>
<trkpt lat="40.0728422" lon="-105.2305752">
  <ele>1586.19</ele>
  <time>2026-08-27T18:31:23Z</time>
  <course>11.31</course>
  <speed>0.01414213562373095</speed>
  <fix>3d</fix>
</trkpt>
<trkpt lat="40.0728424" lon="-105.2305753">
  <ele>1586.09</ele>
  <time>2026-08-27T18:31:23Z</time>
  <course>285.24</course>
  <speed>0.0</speed>
  <fix>3d</fix>
</trkpt>
<trkpt lat="40.0728422" lon="-105.2305752">
  <ele>1586.19</ele>
  <time>2026-08-27T18:31:23Z</time>
  <course>11.31</course>
  <speed>0.01414213562373095</speed>
  <fix>3d</fix>
</trkpt>
<trkpt lat="40.0728424" lon="-105.2305753">
  <ele>1586.09</ele>
  <time>2026-08-27T18:31:23Z</time>
  <course>120.31</course>
  <speed>0.0</speed>
  <fix>3d</fix>
</trkpt>
<trkpt lat="40.0728422" lon="-105.2305752">
  <ele>1586.19</ele>
  <time>2026-08-27T18:31:23Z</time>
  <course>11.3</course>
  <speed>0.01414213562373095</speed>
  <fix>3d</fix>
</trkpt>
<trkpt lat="40.0728424" lon="-105.2305753">
  <ele>1586.09</ele>
  <time>2026-08-27T18:31:23Z</time>
  <course>291.39</course>
  <speed>0.0</speed>
  <fix>3d</fix>
</trkpt>
<trkpt lat="40.0728422" lon="-105.2305752">
  <ele>1586.19</ele>
  <time>2026-08-27T18:31:23Z</time>
  <course>11.3</course>
  <speed>0.01414213562373095</speed>
  <fix>3d</fix>
</trkpt>
<trkpt lat="40.0728424" lon="-105.2305753">
  <ele>1586.09</ele>
  <time>2026-08-27T18:31:23Z</time>
  <course>295.19</course>
  <speed>0.0</speed>
  <fix>3d</fix>
</trkpt>
<trkpt lat="40.0728422" lon="-105.2305752">
  <ele>1586.18</ele>
  <time>2026-08-27T18:31:23Z</time>
  <course>11.3</course>
  <speed>0.01414213562373095</speed>
  <fix>3d</fix>
</trkpt>
<trkpt lat="40.0728424" lon="-105.2305753">
  <ele>1586.09</ele>
  <time>2026-08-27T18:31:23Z</time>
  <course>296.38</course>
  <speed>0.0</speed>
  <fix>3d</fix>
</trkpt>
<trkpt lat="40.0728422" lon="-105.2305752">
  <ele>1586.18</ele>
  <time>2026-08-27T18:31:23Z</time>
  <course>11.3</course>
  <speed>0.01414213562373095</speed>
  <fix>3d</fix>
</trkpt>
<trkpt lat="40.0728424" lon="-105.2305753">
  <ele>1586.09</ele>
  <time>2026-08-27T18:31:23Z</time>
  <course>296.88</course>
  <speed>0.0</speed>
  <fix>3d</fix>
</trkpt>
<trkpt lat="40.0728422" lon="-105.2305752">
  <ele>1586.18</ele>
  <time>2026-08-27T18:31:23Z</time>
  <course>11.29</course>
  <speed>0.01414213562373095</speed>
  <fix>3d</fix>
</trkpt>
<trkpt lat="40.0728424" lon="-105.2305753">
  <ele>1586.09</ele>
  <time>2026-08-27T18:31:23Z</time>
  <course>296.95</course>
  <speed>0.0</speed>
  <fix>3d</fix>
</trkpt>
<trkpt lat="40.0728422" lon="-105.2305752">
  <ele>1586.18</ele>
  <time>2026-08-27T18:31:23Z</time>
  <course>11.29</course>
  <speed>0.01414213562373095</speed>
  <fix>3d</fix>
</trkpt>
<trkpt lat="40.0728424" lon="-105.2305753">
  <ele>1586.09</ele>
  <time>2026-08-27T18:31:23Z</time>
  <course>296.96</course>
  <speed>0.0</speed>
  <fix>3d</fix>
</trkpt>
<trkpt lat="40.0728422" lon="-105.2305752">
  <ele>1586.18</ele>
  <time>2026-08-27T18:31:23Z</time>
  <course>11.29</course>
  <speed>0.01414213562373095</speed>
  <fix>3d</fix>
</trkpt>
<trkpt lat="40.0728424" lon="-105.2305753">
  <ele>1586.09</ele>
  <time>2026-08-27T18:31:23Z</time>
  <course>296.96</course>
  <speed>0.0</speed>
  <fix>3d</fix>
</trkpt>
<trkpt lat="40.0728422" lon="-105.2305752">
  <ele>1586.18</ele>
  <time>2026-08-27T18:31:23Z</time>
  <course>11.29</course>
  <speed>0.01414213562373095</speed>
  <fix>3d</fix>
</trkpt>
<trkpt lat="40.0728424" lon="-105.2305753">
  <ele>1586.09</ele>
  <time>2026-08-27T18:31:23Z</time>
  <course>296.96</course>
  <speed>0.0</speed>
  <fix>3d</fix>
</trkpt>
<trkpt lat="40.0728422" lon="-105.2305752">
  <ele>1586.18</ele>
  <time>2026-08-27T18:31:23Z</time>
  <course>11.28</course>
  <speed>0.01414213562373095</speed>
  <fix>3d</fix>
</trkpt>
<trkpt lat="40.0728424" lon="-105.2305753">
  <ele>1586.09</ele>
  <time>2026-08-27T18:31:23Z</time>
  <course>296.96</course>
  <speed>0.0</speed>
  <fix>3d</fix>
</trkpt>
<trkpt lat="40.0728422" lon="-105.2305752">
  <ele>1586.18</ele>
  <time>2026-08-27T18:31:23Z</time>
  <course>11.28</course>
  <speed>0.01414213562373095</speed>
  <fix>3d</fix>
</trkpt>
<trkpt lat="40.0728424" lon="-105.2305753">
  <ele>1586.09</ele>
  <time>2026-08-27T18:31:23Z</time>
  <course>296.96</course>
  <speed>0.0</speed>
  <fix>3d</fix>
</trkpt>
<trkpt lat="40.0728422" lon="-105.2305752">
  <ele>1586.18</ele>
  <time>2026-08-27T18:31:23Z</time>
  <course>11.28</course>
  <speed>0.01414213562373095</speed>
  <fix>3d</fix>
</trkpt>
<trkpt lat="40.0728424" lon="-105.2305753">
  <ele>1586.09</ele>
  <time>2026-08-27T18:31:23Z</time>
  <course>296.96</course>
  <speed>0.0</speed>
  <fix>3d</fix>
</trkpt>
<trkpt lat="40.0728422" lon="-105.2305752">
  <ele>1586.18</ele>
  <time>2026-08-27T18:31:23Z</time>
  <course>11.28</course>
  <speed>0.01414213562373095</speed>
  <fix>3d</fix>
</trkpt>
<trkpt lat="40.0728424" lon="-105.2305753">
  <ele>1586.09</ele>
  <time>2026-08-27T18:31:23Z</time>
  <course>296.96</course>
  <speed>0.0</speed>
  <fix>3d</fix>
</trkpt>
<trkpt lat="40.0728422" lon="-105.2305752">
  <ele>1586.18</ele>
  <time>2026-08-27T18:31:23Z</time>
  <course>11.27</course>
  <speed>0.01414213562373095</speed>
  <fix>3d</fix>
</trkpt>
<trkpt lat="40.0728424" lon="-105.2305753">
  <ele>1586.09</ele>
  <time>2026-08-27T18:31:23Z</time>
  <course>296.96</course>
  <speed>0.0</speed>
  <fix>3d</fix>
</trkpt>
<trkpt lat="40.0728422" lon="-105.2305752">
  <ele>1586.18</ele>
  <time>2026-08-27T18:31:24Z</time>
  <course>11.27</course>
  <speed>0.01414213562373095</speed>
  <fix>3d</fix>
</trkpt>
<trkpt lat="40.0728424" lon="-105.2305753">
  <ele>1586.09</ele>
  <time>2026-08-27T18:31:24Z</time>
  <course>296.96</course>
  <speed>0.0</speed>
  <fix>3d</fix>
</trkpt>
<trkpt lat="40.0728422" lon="-105.2305752">
  <ele>1586.18</ele>
  <time>2026-08-27T18:31:24Z</time>
  <course>11.27</course>
  <speed>0.01414213562373095</speed>
  <fix>3d</fix>
</trkpt>
<trkpt lat="40.0728424" lon="-105.2305753">
  <ele>1586.09</ele>
  <time>2026-08-27T18:31:24Z</time>
  <course>296.96</course>
  <speed>0.0</speed>
  <fix>3d</fix>
</trkpt>
<trkpt lat="40.0728422" lon="-105.2305752">
  <ele>1586.18</ele>
  <time>2026-08-27T18:31:24Z</time>
  <course>11.27</course>
  <speed>0.01414213562373095</speed>
  <fix>3d</fix>
</trkpt>
<trkpt lat="40.0728424" lon="-105.2305753">
  <ele>1586.09</ele>
  <time>2026-08-27T18:31:24Z</time>
  <course>296.96</course>
  <speed>0.0</speed>
  <fix>3d</fix>
</trkpt>
<trkpt lat="40.0728422" lon="-105.2305752">
  <ele>1586.18</ele>
  <time>2026-08-27T18:31:24Z</time>
  <course>11.26</course>
  <speed>0.01414213562373095</speed>
  <fix>3d</fix>
</trkpt>
<trkpt lat="40.0728424" lon="-105.2305753">
  <ele>1586.09</ele>
  <time>2026-08-27T18:31:24Z</time>
  <course>296.96</course>
  <speed>0.0</speed>
  <fix>3d</fix>
</trkpt>
<trkpt lat="40.0728422" lon="-105.2305752">
  <ele>1586.18</ele>
  <time>2026-08-27T18:31:24Z</time>
  <course>11.26</course>
  <speed>0.01414213562373095</speed>
  <fix>3d</fix>
</trkpt>
<trkpt lat="40.0728424" lon="-105.2305753">
  <ele>1586.09</ele>
  <time>2026-08-27T18:31:24Z</time>
  <course>296.96</course>
  <speed>0.0</speed>
  <fix>3d</fix>
</trkpt>
<trkpt lat="40.0728422" lon="-105.2305752">
  <ele>1586.18</ele>
  <time>2026-08-27T18:31:24Z</time>
  <course>11.26</course>
  <speed>0.01414213562373095</speed>
  <fix>3d</fix>
</trkpt>
<trkpt lat="40.0728424" lon="-105.2305753">
  <ele>1586.09</ele>
  <time>2026-08-27T18:31:24Z</time>
  <course>296.96</course>
  <speed>0.0</speed>
  <fix>3d</fix>
</trkpt>
<trkpt lat="40.0728422" lon="-105.2305752">
  <ele>1586.18</ele>
  <time>2026-08-27T18:31:24Z</time>
  <course>11.26</course>
  <speed>0.01414213562373095</speed>
  <fix>3d</fix>
</trkpt>
<trkpt lat="40.0728424" lon="-105.2305753">
  <ele>1586.09</ele>
  <time>2026-08-27T18:31:24Z</time>
  <course>296.96</course>
  <speed>0.0</speed>
  <fix>3d</fix>
</trkpt>
<trkpt lat="40.0728422" lon="-105.2305752">
  <ele>1586.18</ele>
  <time>2026-08-27T18:31:24Z</time>
  <course>11.25</course>
  <speed>0.01414213562373095</speed>
  <fix>3d</fix>
</trkpt>
<trkpt lat="40.0728424" lon="-105.2305753">
  <ele>1586.09</ele>
  <time>2026-08-27T18:31:24Z</time>
  <course>296.96</course>
  <speed>0.0</speed>
  <fix>3d</fix>
</trkpt>
<trkpt lat="40.0728422" lon="-105.2305752">
  <ele>1586.18</ele>
  <time>2026-08-27T18:31:24Z</time>
  <course>11.25</course>
  <speed>0.01414213562373095</speed>
  <fix>3d</fix>
</trkpt>
<trkpt lat="40.0728424" lon="-105.2305753">
  <ele>1586.09</ele>
  <time>2026-08-27T18:31:24Z</time>
  <course>296.96</course>
  <speed>0.0</speed>
  <fix>3d</fix>
</trkpt>
<trkpt lat="40.0728422" lon="-105.2305752">
  <ele>1586.19</ele>
  <time>2026-08-27T18:31:24Z</time>
  <course>11.25</course>
  <speed>0.01414213562373095</speed>
  <fix>3d</fix>
</trkpt>
<trkpt lat="40.0728424" lon="-105.2305753">
  <ele>1586.09</ele>
  <time>2026-08-27T18:31:24Z</time>
  <course>296.96</course>
  <speed>0.0</speed>
  <fix>3d</fix>
</trkpt>
<trkpt lat="40.0728422" lon="-105.2305752">
  <ele>1586.19</ele>
  <time>2026-08-27T18:31:24Z</time>
  <course>11.25</course>
  <speed>0.01414213562373095</speed>
  <fix>3d</fix>
</trkpt>
<trkpt lat="40.0728424" lon="-105.2305753">
  <ele>1586.09</ele>
  <time>2026-08-27T18:31:24Z</time>
  <course>296.96</course>
  <speed>0.0</speed>
  <fix>3d</fix>
</trkpt>
<trkpt lat="40.0728422" lon="-105.2305752">
  <ele>1586.18</ele>
  <time>2026-08-27T18:31:24Z</time>
  <course>11.25</course>
  <speed>0.01414213562373095</speed>
  <fix>3d</fix>
</trkpt>
<trkpt lat="40.0728424" lon="-105.2305753">
  <ele>1586.09</ele>
  <time>2026-08-27T18:31:24Z</time>
  <course>296.96</course>
  <speed>0.0</speed>
  <fix>3d</fix>
</trkpt>
<trkpt lat="40.0728422" lon="-105.2305752">
  <ele>1586.18</ele>
  <time>2026-08-27T18:31:24Z</time>
  <course>11.24</course>
  <speed>0.01414213562373095</speed>
  <fix>3d</fix>
</trkpt>
<trkpt lat="40.0728424" lon="-105.2305753">
  <ele>1586.09</ele>
  <time>2026-08-27T18:31:24Z</time>
  <course>296.96</course>
  <speed>0.0</speed>
  <fix>3d</fix>
</trkpt>
<trkpt lat="40.0728422" lon="-105.2305752">
  <ele>1586.18</ele>
  <time>2026-08-27T18:31:24Z</time>
  <course>11.24</course>
  <speed>0.01414213562373095</speed>
  <fix>3d</fix>
</trkpt>
<trkpt lat="40.0728424" lon="-105.2305753">
  <ele>1586.09</ele>
  <time>2026-08-27T18:31:24Z</time>
  <course>296.96</course>
  <speed>0.0</speed>
  <fix>3d</fix>
</trkpt>
<trkpt lat="40.0728422" lon="-105.2305752">
  <ele>1586.18</ele>
  <time>2026-08-27T18:31:24Z</time>
  <course>11.24</course>
  <speed>0.01414213562373095</speed>
  <fix>3d</fix>
</trkpt>
<trkpt lat="40.0728424" lon="-105.2305753">
  <ele>1586.09</ele>
  <time>2026-08-27T18:31:24Z</time>
  <course>296.96</course>
  <speed>0.0</speed>
  <fix>3d</fix>
</trkpt>
<trkpt lat="40.0728422" lon="-105.2305752">
  <ele>1586.18</ele>
  <time>2026-08-27T18:31:24Z</time>
  <course>11.25</course>
  <speed>0.01414213562373095</speed>
  <fix>3d</fix>
</trkpt>
<trkpt lat="40.0728424" lon="-105.2305753">
  <ele>1586.09</ele>
  <time>2026-08-27T18:31:24Z</time>
  <course>296.96</course>
  <speed>0.0</speed>
  <fix>3d</fix>
</trkpt>
<trkpt lat="40.0728422" lon="-105.2305752">
  <ele>1586.19</ele>
  <time>2026-08-27T18:31:24Z</time>
  <course>11.29</course>
  <speed>0.01414213562373095</speed>
  <fix>3d</fix>
</trkpt>
<trkpt lat="40.0728424" lon="-105.2305753">
  <ele>1586.09</ele>
  <time>2026-08-27T18:31:24Z</time>
  <course>296.96</course>
  <speed>0.0</speed>
  <fix>3d</fix>
</trkpt>
<trkpt lat="40.0728422" lon="-105.2305752">
  <ele>1586.19</ele>
  <time>2026-08-27T18:31:24Z</time>
  <course>11.33</course>
  <speed>0.01414213562373095</speed>
  <fix>3d</fix>
</trkpt>
<trkpt lat="40.0728424" lon="-105.2305753">
  <ele>1586.09</ele>
  <time>2026-08-27T18:31:24Z</time>
  <course>296.96</course>
  <speed>0.0</speed>
  <fix>3d</fix>
</trkpt>
<trkpt lat="40.0728422" lon="-105.2305752">
  <ele>1586.18</ele>
  <time>2026-08-27T18:31:24Z</time>
  <course>11.37</course>
  <speed>0.01414213562373095</speed>
  <fix>3d</fix>
</trkpt>
<trkpt lat="40.0728424" lon="-105.2305753">
  <ele>1586.09</ele>
  <time>2026-08-27T18:31:24Z</time>
  <course>296.96</course>
  <speed>0.0</speed>
  <fix>3d</fix>
</trkpt>
<trkpt lat="40.0728422" lon="-105.2305752">
  <ele>1586.17</ele>
  <time>2026-08-27T18:31:24Z</time>
  <course>11.41</course>
  <speed>0.01414213562373095</speed>
  <fix>3d</fix>
</trkpt>
<trkpt lat="40.0728424" lon="-105.2305753">
  <ele>1586.09</ele>
  <time>2026-08-27T18:31:24Z</time>
  <course>296.96</course>
  <speed>0.0</speed>
  <fix>3d</fix>
</trkpt>
<trkpt lat="40.0728422" lon="-105.2305752">
  <ele>1586.17</ele>
  <time>2026-08-27T18:31:24Z</time>
  <course>11.44</course>
  <speed>0.01414213562373095</speed>
  <fix>3d</fix>
</trkpt>
<trkpt lat="40.0728424" lon="-105.2305753">
  <ele>1586.09</ele>
  <time>2026-08-27T18:31:24Z</time>
  <course>296.96</course>
  <speed>0.0</speed>
  <fix>3d</fix>
</trkpt>
<trkpt lat="40.0728422" lon="-105.2305752">
  <ele>1586.17</ele>
  <time>2026-08-27T18:31:24Z</time>
  <course>11.48</course>
  <speed>0.01414213562373095</speed>
  <fix>3d</fix>
</trkpt>
<trkpt lat="40.0728424" lon="-105.2305753">
  <ele>1586.09</ele>
  <time>2026-08-27T18:31:24Z</time>
  <course>296.96</course>
  <speed>0.0</speed>
  <fix>3d</fix>
</trkpt>
<trkpt lat="40.0728422" lon="-105.2305752">
  <ele>1586.17</ele>
  <time>2026-08-27T18:31:24Z</time>
  <course>11.52</course>
  <speed>0.01414213562373095</speed>
  <fix>3d</fix>
</trkpt>
<trkpt lat="40.0728424" lon="-105.2305753">
  <ele>1586.09</ele>
  <time>2026-08-27T18:31:24Z</time>
  <course>296.96</course>
  <speed>0.0</speed>
  <fix>3d</fix>
</trkpt>
<trkpt lat="40.0728422" lon="-105.2305752">
  <ele>1586.16</ele>
  <time>2026-08-27T18:31:24Z</time>
  <course>11.56</course>
  <speed>0.01414213562373095</speed>
  <fix>3d</fix>
</trkpt>
<trkpt lat="40.0728424" lon="-105.2305753">
  <ele>1586.09</ele>
  <time>2026-08-27T18:31:24Z</time>
  <course>296.96</course>
  <speed>0.0</speed>
  <fix>3d</fix>
</trkpt>
<trkpt lat="40.0728422" lon="-105.2305752">
  <ele>1586.16</ele>
  <time>2026-08-27T18:31:24Z</time>
  <course>11.6</course>
  <speed>0.01414213562373095</speed>
  <fix>3d</fix>
</trkpt>
<trkpt lat="40.0728424" lon="-105.2305753">
  <ele>1586.09</ele>
  <time>2026-08-27T18:31:24Z</time>
  <course>296.96</course>
  <speed>0.0</speed>
  <fix>3d</fix>
</trkpt>
<trkpt lat="40.0728422" lon="-105.2305752">
  <ele>1586.16</ele>
  <time>2026-08-27T18:31:24Z</time>
  <course>11.64</course>
  <speed>0.01414213562373095</speed>
  <fix>3d</fix>
</trkpt>
<trkpt lat="40.0728424" lon="-105.2305753">
  <ele>1586.09</ele>
  <time>2026-08-27T18:31:24Z</time>
  <course>296.96</course>
  <speed>0.0</speed>
  <fix>3d</fix>
</trkpt>
<trkpt lat="39.6562421" lon="-104.1365912">
  <ele>1569.6</ele>
  <time>2026-08-27T18:31:25Z</time>
  <course>1.18</course>
  <speed>0.0</speed>
  <fix>3d</fix>
</trkpt>
<trkpt lat="40.072842" lon="-105.230575">
  <ele>1586.09</ele>
  <time>2026-08-27T18:31:25Z</time>
  <course>2.03</course>
  <speed>0.0</speed>
  <fix>3d</fix>
</trkpt>
<trkpt lat="40.072842" lon="-105.230575">
  <ele>1586.09</ele>
  <time>2026-08-27T18:31:25Z</time>
  <course>317.1</course>
  <speed>0.0</speed>
  <fix>3d</fix>
</trkpt>
<trkpt lat="40.072842" lon="-105.230575">
  <ele>1586.09</ele>
  <time>2026-08-27T18:31:25Z</time>
  <course>2.51</course>
  <speed>0.0</speed>
  <fix>3d</fix>
</trkpt>
<trkpt lat="40.072842" lon="-105.230575">
  <ele>1586.09</ele>
  <time>2026-08-27T18:31:25Z</time>
  <course>265.93</course>
  <speed>0.0</speed>
  <fix>3d</fix>
</trkpt>
<trkpt lat="40.072842" lon="-105.230575">
  <ele>1586.09</ele>
  <time>2026-08-27T18:31:25Z</time>
  <course>3.26</course>
  <speed>0.0</speed>
  <fix>3d</fix>
</trkpt>
<trkpt lat="40.072842" lon="-105.230575">
  <ele>1586.09</ele>
  <time>2026-08-27T18:31:25Z</time>
  <course>160.8</course>
  <speed>0.0</speed>
  <fix>3d</fix>
</trkpt>
<trkpt lat="40.072842" lon="-105.230575">
  <ele>1586.09</ele>
  <time>2026-08-27T18:31:25Z</time>
  <course>3.93</course>
  <speed>0.0</speed>
  <fix>3d</fix>
</trkpt>
<trkpt lat="40.072842" lon="-105.230575">
  <ele>1586.09</ele>
  <time>2026-08-27T18:31:25Z</time>
  <course>56.31</course>
  <speed>0.0</speed>
  <fix>3d</fix>
</trkpt>
<trkpt lat="40.072842" lon="-105.230575">
  <ele>1586.09</ele>
  <time>2026-08-27T18:31:25Z</time>
  <course>4.55</course>
  <speed>0.0</speed>
  <fix>3d</fix>
</trkpt>
<trkpt lat="40.072842" lon="-105.230575">
  <ele>1586.09</ele>
  <time>2026-08-27T18:31:25Z</time>
  <course>328.2</course>
  <speed>0.0</speed>
  <fix>3d</fix>
</trkpt>
<trkpt lat="40.072842" lon="-105.230575">
  <ele>1586.09</ele>
  <time>2026-08-27T18:31:25Z</time>
  <course>5.14</course>
  <speed>0.0</speed>
  <fix>3d</fix>
</trkpt>
<trkpt lat="40.072842" lon="-105.230575">
  <ele>1586.09</ele>
  <time>2026-08-27T18:31:25Z</time>
  <course>210.22</course>
  <speed>0.0</speed>
  <fix>3d</fix>
</trkpt>
<trkpt lat="40.072842" lon="-105.230575">
  <ele>1586.09</ele>
  <time>2026-08-27T18:31:25Z</time>
  <course>5.69</course>
  <speed>0.0</speed>
  <fix>3d</fix>
</trkpt>
<trkpt lat="40.072842" lon="-105.230575">
  <ele>1586.09</ele>
  <time>2026-08-27T18:31:25Z</time>
  <course>80.69</course>
  <speed>0.0</speed>
  <fix>3d</fix>
</trkpt>
<trkpt lat="40.072842" lon="-105.230575">
  <ele>1586.09</ele>
  <time>2026-08-27T18:31:25Z</time>
  <course>6.21</course>
  <speed>0.0</speed>
  <fix>3d</fix>
</trkpt>
<trkpt lat="40.072842" lon="-105.230575">
  <ele>1586.09</ele>
  <time>2026-08-27T18:31:25Z</time>
  <course>223.94</course>
  <speed>0.0</speed>
  <fix>3d</fix>
</trkpt>
<trkpt lat="40.072842" lon="-105.230575">
  <ele>1586.09</ele>
  <time>2026-08-27T18:31:25Z</time>
  <course>6.7</course>
  <speed>0.0</speed>
  <fix>3d</fix>
</trkpt>
<trkpt lat="40.072842" lon="-105.230575">
  <ele>1586.09</ele>
  <time>2026-08-27T18:31:25Z</time>
  <course>212.56</course>
  <speed>0.0</speed>
  <fix>3d</fix>
</trkpt>
<trkpt lat="40.072842" lon="-105.230575">
  <ele>1586.09</ele>
  <time>2026-08-27T18:31:25Z</time>
  <course>7.16</course>
  <speed>0.0</speed>
  <fix>3d</fix>
</trkpt>
<trkpt lat="40.072842" lon="-105.230575">
  <ele>1586.09</ele>
  <time>2026-08-27T18:31:25Z</time>
  <course>191.66</course>
  <speed>0.0</speed>
  <fix>3d</fix>
</trkpt>
<trkpt lat="40.072842" lon="-105.230575">
  <ele>1586.09</ele>
  <time>2026-08-27T18:31:25Z</time>
  <course>7.58</course>
  <speed>0.0</speed>
  <fix>3d</fix>
</trkpt>
<trkpt lat="40.072842" lon="-105.230575">
  <ele>1586.09</ele>
  <time>2026-08-27T18:31:25Z</time>
  <course>180.34</course>
  <speed>0.0</speed>
  <fix>3d</fix>
</trkpt>
<trkpt lat="40.072842" lon="-105.230575">
  <ele>1586.09</ele>
  <time>2026-08-27T18:31:25Z</time>
  <course>7.97</course>
  <speed>0.0</speed>
  <fix>3d</fix>
</trkpt>
<trkpt lat="40.072842" lon="-105.230575">
  <ele>1586.09</ele>
  <time>2026-08-27T18:31:25Z</time>
  <course>293.97</course>
  <speed>0.0</speed>
  <fix>3d</fix>
</trkpt>
<trkpt lat="40.072842" lon="-105.230575">
  <ele>1586.09</ele>
  <time>2026-08-27T18:31:25Z</time>
  <course>8.33</course>
  <speed>0.0</speed>
  <fix>3d</fix>
</trkpt>
<trkpt lat="40.072842" lon="-105.230575">
  <ele>1586.09</ele>
  <time>2026-08-27T18:31:25Z</time>
  <course>316.78</course>
  <speed>0.0</speed>
  <fix>3d</fix>
</trkpt>
<trkpt lat="40.072842" lon="-105.230575">
  <ele>1586.09</ele>
  <time>2026-08-27T18:31:25Z</time>
  <course>8.66</course>
  <speed>0.0</speed>
  <fix>3d</fix>
</trkpt>
<trkpt lat="40.072842" lon="-105.230575">
  <ele>1586.09</ele>
  <time>2026-08-27T18:31:25Z</time>
  <course>55.64</course>
  <speed>0.0</speed>
  <fix>3d</fix>
</trkpt>
<trkpt lat="40.072842" lon="-105.230575">
  <ele>1586.09</ele>
  <time>2026-08-27T18:31:25Z</time>
  <course>8.97</course>
  <speed>0.0</speed>
  <fix>3d</fix>
</trkpt>
<trkpt lat="40.072842" lon="-105.230575">
  <ele>1586.09</ele>
  <time>2026-08-27T18:31:25Z</time>
  <course>10.67</course>
  <speed>0.0</speed>
  <fix>3d</fix>
</trkpt>
<trkpt lat="40.072842" lon="-105.230575">
  <ele>1586.09</ele>
  <time>2026-08-27T18:31:25Z</time>
  <course>9.25</course>
  <speed>0.0</speed>
  <fix>3d</fix>
</trkpt>
<trkpt lat="40.072842" lon="-105.230575">
  <ele>1586.09</ele>
  <time>2026-08-27T18:31:25Z</time>
  <course>234.67</course>
  <speed>0.0</speed>
  <fix>3d</fix>
</trkpt>
<trkpt lat="40.072842" lon="-105.230575">
  <ele>1586.09</ele>
  <time>2026-08-27T18:31:25Z</time>
  <course>9.52</course>
  <speed>0.0</speed>
  <fix>3d</fix>
</trkpt>
<trkpt lat="40.072842" lon="-105.230575">
  <ele>1586.09</ele>
  <time>2026-08-27T18:31:25Z</time>
  <course>152.9</course>
  <speed>0.0</speed>
  <fix>3d</fix>
</trkpt>
<trkpt lat="40.072842" lon="-105.230575">
  <ele>1586.09</ele>
  <time>2026-08-27T18:31:25Z</time>
  <course>9.76</course>
  <speed>0.0</speed>
  <fix>3d</fix>
</trkpt>
<trkpt lat="40.072842" lon="-105.230575">
  <ele>1586.09</ele>
  <time>2026-08-27T18:31:25Z</time>
  <course>325.89</course>
  <speed>0.0</speed>
  <fix>3d</fix>
</trkpt>
<trkpt lat="40.072842" lon="-105.230575">
  <ele>1586.09</ele>
  <time>2026-08-27T18:31:25Z</time>
  <course>9.98</course>
  <speed>0.0</speed>
  <fix>3d</fix>
</trkpt>
<trkpt lat="40.072842" lon="-105.230575">
  <ele>1586.09</ele>
  <time>2026-08-27T18:31:25Z</time>
  <course>287.37</course>
  <speed>0.0</speed>
  <fix>3d</fix>
</trkpt>
<trkpt lat="40.072842" lon="-105.230575">
  <ele>1586.09</ele>
  <time>2026-08-27T18:31:25Z</time>
  <course>10.18</course>
  <speed>0.0</speed>
  <fix>3d</fix>
</trkpt>
<trkpt lat="40.072842" lon="-105.230575">
  <ele>1586.09</ele>
  <time>2026-08-27T18:31:25Z</time>
  <course>209.74</course>
  <speed>0.0</speed>
  <fix>3d</fix>
</trkpt>
<trkpt lat="40.072842" lon="-105.230575">
  <ele>1586.09</ele>
  <time>2026-08-27T18:31:25Z</time>
  <course>10.37</course>
  <speed>0.0</speed>
  <fix>3d</fix>
</trkpt>
<trkpt lat="40.072842" lon="-105.230575">
  <ele>1586.09</ele>
  <time>2026-08-27T18:31:25Z</time>
  <course>260.62</course>
  <speed>0.0</speed>
  <fix>3d</fix>
</trkpt>
<trkpt lat="40.072842" lon="-105.230575">
  <ele>1586.09</ele>
  <time>2026-08-27T18:31:25Z</time>
  <course>10.54</course>
  <speed>0.0</speed>
  <fix>3d</fix>
</trkpt>
<trkpt lat="40.072842" lon="-105.230575">
  <ele>1586.09</ele>
  <time>2026-08-27T18:31:25Z</time>
  <course>272.28</course>
  <speed>0.0</speed>
  <fix>3d</fix>
</trkpt>
<trkpt lat="40.072842" lon="-105.230575">
  <ele>1586.09</ele>
  <time>2026-08-27T18:31:25Z</time>
  <course>10.69</course>
  <speed>0.0</speed>
  <fix>3d</fix>
</trkpt>
<trkpt lat="40.072842" lon="-105.230575">
  <ele>1586.09</ele>
  <time>2026-08-27T18:31:25Z</time>
  <course>265.77</course>
  <speed>0.0</speed>
  <fix>3d</fix>
</trkpt>
<trkpt lat="40.072842" lon="-105.230575">
  <ele>1586.09</ele>
  <time>2026-08-27T18:31:25Z</time>
  <course>10.83</course>
  <speed>0.0</speed>
  <fix>3d</fix>
</trkpt>
<trkpt lat="40.072842" lon="-105.230575">
  <ele>1586.09</ele>
  <time>2026-08-27T18:31:25Z</time>
  <course>265.13</course>
  <speed>0.0</speed>
  <fix>3d</fix>
</trkpt>
<trkpt lat="40.072842" lon="-105.230575">
  <ele>1586.09</ele>
  <time>2026-08-27T18:31:25Z</time>
  <course>10.96</course>
  <speed>0.0</speed>
  <fix>3d</fix>
</trkpt>
<trkpt lat="40.072842" lon="-105.230575">
  <ele>1586.09</ele>
  <time>2026-08-27T18:31:25Z</time>
  <course>266.18</course>
  <speed>0.0</speed>
  <fix>3d</fix>
</trkpt>
<trkpt lat="40.072842" lon="-105.230575">
  <ele>1586.09</ele>
  <time>2026-08-27T18:31:25Z</time>
  <course>11.08</course>
  <speed>0.0</speed>
  <fix>3d</fix>
</trkpt>
<trkpt lat="40.072842" lon="-105.230575">
  <ele>1586.09</ele>
  <time>2026-08-27T18:31:25Z</time>
  <course>266.14</course>
  <speed>0.0</speed>
  <fix>3d</fix>
</trkpt>
<trkpt lat="40.072842" lon="-105.230575">
  <ele>1586.09</ele>
  <time>2026-08-27T18:31:25Z</time>
  <course>11.19</course>
  <speed>0.0</speed>
  <fix>3d</fix>
</trkpt>
<trkpt lat="40.072842" lon="-105.230575">
  <ele>1586.09</ele>
  <time>2026-08-27T18:31:25Z</time>
  <course>266.0</course>
  <speed>0.0</speed>
  <fix>3d</fix>
</trkpt>
<trkpt lat="40.072842" lon="-105.230575">
  <ele>1586.09</ele>
  <time>2026-08-27T18:31:25Z</time>
  <course>11.29</course>
  <speed>0.0</speed>
  <fix>3d</fix>
</trkpt>
<trkpt lat="40.072842" lon="-105.230575">
  <ele>1586.09</ele>
  <time>2026-08-27T18:31:25Z</time>
  <course>266.02</course>
  <speed>0.0</speed>
  <fix>3d</fix>
</trkpt>
<trkpt lat="40.072842" lon="-105.230575">
  <ele>1586.09</ele>
  <time>2026-08-27T18:31:25Z</time>
  <course>11.38</course>
  <speed>0.0</speed>
  <fix>3d</fix>
</trkpt>
<trkpt lat="40.072842" lon="-105.230575">
  <ele>1586.09</ele>
  <time>2026-08-27T18:31:25Z</time>
  <course>266.04</course>
  <speed>0.0</speed>
  <fix>3d</fix>
</trkpt>
<trkpt lat="40.072842" lon="-105.230575">
  <ele>1586.09</ele>
  <time>2026-08-27T18:31:25Z</time>
  <course>11.46</course>
  <speed>0.0</speed>
  <fix>3d</fix>
</trkpt>
<trkpt lat="40.072842" lon="-105.230575">
  <ele>1586.09</ele>
  <time>2026-08-27T18:31:25Z</time>
  <course>266.03</course>
  <speed>0.0</speed>
  <fix>3d</fix>
</trkpt>
<trkpt lat="40.072842" lon="-105.230575">
  <ele>1586.09</ele>
  <time>2026-08-27T18:31:25Z</time>
  <course>11.53</course>
  <speed>0.0</speed>
  <fix>3d</fix>
</trkpt>
<trkpt lat="40.072842" lon="-105.230575">
  <ele>1586.09</ele>
  <time>2026-08-27T18:31:25Z</time>
  <course>266.03</course>
  <speed>0.0</speed>
  <fix>3d</fix>
</trkpt>
<trkpt lat="40.072842" lon="-105.230575">
  <ele>1586.09</ele>
  <time>2026-08-27T18:31:25Z</time>
  <course>11.6</course>
  <speed>0.0</speed>
  <fix>3d</fix>
</trkpt>
<trkpt lat="40.072842" lon="-105.230575">
  <ele>1586.09</ele>
  <time>2026-08-27T18:31:25Z</time>
  <course>266.03</course>
  <speed>0.0</speed>
  <fix>3d</fix>
</trkpt>
<trkpt lat="40.072842" lon="-105.230575">
  <ele>1586.09</ele>
  <time>2026-08-27T18:31:25Z</time>
  <course>11.66</course>
  <speed>0.0</speed>
  <fix>3d</fix>
</trkpt>
<trkpt lat="40.072842" lon="-105.230575">
  <ele>1586.09</ele>
  <time>2026-08-27T18:31:25Z</time>
  <course>266.03</course>
  <speed>0.0</speed>
  <fix>3d</fix>
</trkpt>
<trkpt lat="40.072842" lon="-105.230575">
  <ele>1586.09</ele>
  <time>2026-08-27T18:31:25Z</time>
  <course>11.72</course>
  <speed>0.0</speed>
  <fix>3d</fix>
</trkpt>
<trkpt lat="40.072842" lon="-105.230575">
  <ele>1586.09</ele>
  <time>2026-08-27T18:31:25Z</time>
  <course>266.03</course>
  <speed>0.0</speed>
  <fix>3d</fix>
</trkpt>
<trkpt lat="40.072842" lon="-105.230575">
  <ele>1586.09</ele>
  <time>2026-08-27T18:31:25Z</time>
  <course>11.77</course>
  <speed>0.0</speed>
  <fix>3d</fix>
</trkpt>
<trkpt lat="40.072842" lon="-105.230575">
  <ele>1586.09</ele>
  <time>2026-08-27T18:31:25Z</time>
  <course>266.03</course>
  <speed>0.0</speed>
  <fix>3d</fix>
</trkpt>
<trkpt lat="40.072842" lon="-105.230575">
  <ele>1586.09</ele>
  <time>2026-08-27T18:31:25Z</time>
  <course>11.82</course>
  <speed>0.0</speed>
  <fix>3d</fix>
</trkpt>
<trkpt lat="40.072842" lon="-105.230575">
  <ele>1586.09</ele>
  <time>2026-08-27T18:31:25Z</time>
  <course>266.03</course>
  <speed>0.0</speed>
  <fix>3d</fix>
</trkpt>
<trkpt lat="40.072842" lon="-105.230575">
  <ele>1586.09</ele>
  <time>2026-08-27T18:31:25Z</time>
  <course>11.86</course>
  <speed>0.0</speed>
  <fix>3d</fix>
</trkpt>
<trkpt lat="40.072842" lon="-105.230575">
  <ele>1586.09</ele>
  <time>2026-08-27T18:31:25Z</time>
  <course>266.03</course>
  <speed>0.0</speed>
  <fix>3d</fix>
</trkpt>
<trkpt lat="40.072842" lon="-105.230575">
  <ele>1586.09</ele>
  <time>2026-08-27T18:31:25Z</time>
  <course>11.89</course>
  <speed>0.0</speed>
  <fix>3d</fix>
</trkpt>
<trkpt lat="40.072842" lon="-105.230575">
  <ele>1586.09</ele>
  <time>2026-08-27T18:31:25Z</time>
  <course>266.03</course>
  <speed>0.0</speed>
  <fix>3d</fix>
</trkpt>
<trkpt lat="40.072842" lon="-105.230575">
  <ele>1586.09</ele>
  <time>2026-08-27T18:31:25Z</time>
  <course>11.93</course>
  <speed>0.0</speed>
  <fix>3d</fix>
</trkpt>
<trkpt lat="40.072842" lon="-105.230575">
  <ele>1586.09</ele>
  <time>2026-08-27T18:31:25Z</time>
  <course>266.03</course>
  <speed>0.0</speed>
  <fix>3d</fix>
</trkpt>
<trkpt lat="40.072842" lon="-105.230575">
  <ele>1586.09</ele>
  <time>2026-08-27T18:31:25Z</time>
  <course>11.96</course>
  <speed>0.0</speed>
  <fix>3d</fix>
</trkpt>
<trkpt lat="40.072842" lon="-105.230575">
  <ele>1586.09</ele>
  <time>2026-08-27T18:31:25Z</time>
  <course>266.03</course>
  <speed>0.0</speed>
  <fix>3d</fix>
</trkpt>
<trkpt lat="40.072842" lon="-105.230575">
  <ele>1586.09</ele>
  <time>2026-08-27T18:31:25Z</time>
  <course>11.98</course>
  <speed>0.0</speed>
  <fix>3d</fix>
</trkpt>
<trkpt lat="40.072842" lon="-105.230575">
  <ele>1586.09</ele>
  <time>2026-08-27T18:31:25Z</time>
  <course>266.03</course>
  <speed>0.0</speed>
  <fix>3d</fix>
</trkpt>
<trkpt lat="40.072842" lon="-105.230575">
  <ele>1586.09</ele>
  <time>2026-08-27T18:31:25Z</time>
  <course>12.0</course>
  <speed>0.0</speed>
  <fix>3d</fix>
</trkpt>
<trkpt lat="40.072842" lon="-105.230575">
  <ele>1586.09</ele>
  <time>2026-08-27T18:31:25Z</time>
  <course>266.03</course>
  <speed>0.0</speed>
  <fix>3d</fix>
</trkpt>
<trkpt lat="40.072842" lon="-105.230575">
  <ele>1586.09</ele>
  <time>2026-08-27T18:31:25Z</time>
  <course>12.02</course>
  <speed>0.0</speed>
  <fix>3d</fix>
</trkpt>
<trkpt lat="40.072842" lon="-105.230575">
  <ele>1586.09</ele>
  <time>2026-08-27T18:31:25Z</time>
  <course>266.03</course>
  <speed>0.0</speed>
  <fix>3d</fix>
</trkpt>
<trkpt lat="40.072842" lon="-105.230575">
  <ele>1586.09</ele>
  <time>2026-08-27T18:31:25Z</time>
  <course>12.04</course>
  <speed>0.0</speed>
  <fix>3d</fix>
</trkpt>
<trkpt lat="40.072842" lon="-105.230575">
  <ele>1586.09</ele>
  <time>2026-08-27T18:31:25Z</time>
  <course>266.03</course>
  <speed>0.0</speed>
  <fix>3d</fix>
</trkpt>
<trkpt lat="40.072842" lon="-105.230575">
  <ele>1586.09</ele>
  <time>2026-08-27T18:31:25Z</time>
  <course>12.06</course>
  <speed>0.0</speed>
  <fix>3d</fix>
</trkpt>
<trkpt lat="40.072842" lon="-105.230575">
  <ele>1586.09</ele>
  <time>2026-08-27T18:31:25Z</time>
  <course>266.03</course>
  <speed>0.0</speed>
  <fix>3d</fix>
</trkpt>
<trkpt lat="40.072842" lon="-105.230575">
  <ele>1586.09</ele>
  <time>2026-08-27T18:31:25Z</time>
  <course>12.07</course>
  <speed>0.0</speed>
  <fix>3d</fix>
</trkpt>
<trkpt lat="40.072842" lon="-105.230575">
  <ele>1586.09</ele>
  <time>2026-08-27T18:31:25Z</time>
  <course>266.03</course>
  <speed>0.0</speed>
  <fix>3d</fix>
</trkpt>
<trkpt lat="40.072842" lon="-105.230575">
  <ele>1586.09</ele>
  <time>2026-08-27T18:31:25Z</time>
  <course>12.08</course>
  <speed>0.0</speed>
  <fix>3d</fix>
</trkpt>
<trkpt lat="40.072842" lon="-105.230575">
  <ele>1586.09</ele>
  <time>2026-08-27T18:31:25Z</time>
  <course>266.03</course>
  <speed>0.0</speed>
  <fix>3d</fix>
</trkpt>
<trkpt lat="40.072842" lon="-105.230575">
  <ele>1586.09</ele>
  <time>2026-08-27T18:31:25Z</time>
  <course>12.09</course>
  <speed>0.0</speed>
  <fix>3d</fix>
</trkpt>
<trkpt lat="40.072842" lon="-105.230575">
  <ele>1586.09</ele>
  <time>2026-08-27T18:31:25Z</time>
  <course>266.03</course>
  <speed>0.0</speed>
  <fix>3d</fix>
</trkpt>
<trkpt lat="40.072842" lon="-105.230575">
  <ele>1586.09</ele>
  <time>2026-08-27T18:31:25Z</time>
  <course>12.1</course>
  <speed>0.0</speed>
  <fix>3d</fix>
</trkpt>
<trkpt lat="40.072842" lon="-105.230575">
  <ele>1586.09</ele>
  <time>2026-08-27T18:31:25Z</time>
  <course>266.03</course>
  <speed>0.0</speed>
  <fix>3d</fix>
</trkpt>
<trkpt lat="40.072842" lon="-105.230575">
  <ele>1586.09</ele>
  <time>2026-08-27T18:31:25Z</time>
  <course>12.11</course>
  <speed>0.0</speed>
  <fix>3d</fix>
</trkpt>
<trkpt lat="40.072842" lon="-105.230575">
  <ele>1586.09</ele>
  <time>2026-08-27T18:31:25Z</time>
  <course>266.03</course>
  <speed>0.0</speed>
  <fix>3d</fix>
</trkpt>
<trkpt lat="40.072842" lon="-105.230575">
  <ele>1586.09</ele>
  <time>2026-08-27T18:31:25Z</time>
  <course>12.11</course>
  <speed>0.0</speed>
  <fix>3d</fix>
</trkpt>
<trkpt lat="40.072842" lon="-105.230575">
  <ele>1586.09</ele>
  <time>2026-08-27T18:31:25Z</time>
  <course>266.03</course>
  <speed>0.0</speed>
  <fix>3d</fix>
</trkpt>
<trkpt lat="40.072842" lon="-105.230575">
  <ele>1586.09</ele>
  <time>2026-08-27T18:31:25Z</time>
  <course>12.12</course>
  <speed>0.0</speed>
  <fix>3d</fix>
</trkpt>
<trkpt lat="40.072842" lon="-105.230575">
  <ele>1586.09</ele>
  <time>2026-08-27T18:31:25Z</time>
  <course>266.03</course>
  <speed>0.0</speed>
  <fix>3d</fix>
</trkpt>
<trkpt lat="40.072842" lon="-105.230575">
  <ele>1586.09</ele>
  <time>2026-08-27T18:31:25Z</time>
  <course>12.12</course>
  <speed>0.0</speed>
  <fix>3d</fix>
</trkpt>
<trkpt lat="40.072842" lon="-105.230575">
  <ele>1586.09</ele>
  <time>2026-08-27T18:31:25Z</time>
  <course>266.03</course>
  <speed>0.0</speed>
  <fix>3d</fix>
</trkpt>
<trkpt lat="40.072842" lon="-105.230575">
  <ele>1586.09</ele>
  <time>2026-08-27T18:31:25Z</time>
  <course>12.12</course>
  <speed>0.0</speed>
  <fix>3d</fix>
</trkpt>
<trkpt lat="40.072842" lon="-105.230575">
  <ele>1586.09</ele>
  <time>2026-08-27T18:31:25Z</time>
  <course>266.03</course>
  <speed>0.0</speed>
  <fix>3d</fix>
</trkpt>
<trkpt lat="40.072842" lon="-105.230575">
  <ele>1586.09</ele>
  <time>2026-08-27T18:31:25Z</time>
  <course>12.12</course>
  <speed>0.0</speed>
  <fix>3d</fix>
</trkpt>
<trkpt lat="40.072842" lon="-105.230575">
  <ele>1586.09</ele>
  <time>2026-08-27T18:31:25Z</time>
  <course>266.03</course>
  <speed>0.0</speed>
  <fix>3d</fix>
</trkpt>
<trkpt lat="40.072842" lon="-105.230575">
  <ele>1586.09</ele>
  <time>2026-08-27T18:31:25Z</time>
  <course>12.12</course>
  <speed>0.0</speed>
  <fix>3d</fix>
</trkpt>
<trkpt lat="40.072842" lon="-105.230575">
  <ele>1586.09</ele>
  <time>2026-08-27T18:31:25Z</time>
  <course>266.03</course>
  <speed>0.0</speed>
  <fix>3d</fix>
</trkpt>
<trkpt lat="40.072842" lon="-105.230575">
  <ele>1586.09</ele>
  <time>2026-08-27T18:31:25Z</time>
  <course>12.12</course>
  <speed>0.01</speed>
  <fix>3d</fix>
</trkpt>
<trkpt lat="40.072842" lon="-105.230575">
  <ele>1586.09</ele>
  <time>2026-08-27T18:31:25Z</time>
  <course>266.03</course>
  <speed>0.0</speed>
  <fix>3d</fix>
</trkpt>
<trkpt lat="40.072842" lon="-105.230575">
  <ele>1586.09</ele>
  <time>2026-08-27T18:31:25Z</time>
  <course>12.12</course>
  <speed>0.01</speed>
  <fix>3d</fix>
</trkpt>
<trkpt lat="40.072842" lon="-105.230575">
  <ele>1586.09</ele>
  <time>2026-08-27T18:31:25Z</time>
  <course>266.03</course>
  <speed>0.0</speed>
  <fix>3d</fix>
</trkpt>
<trkpt lat="40.072842" lon="-105.230575">
  <ele>1586.09</ele>
  <time>2026-08-27T18:31:25Z</time>
  <course>12.12</course>
  <speed>0.01</speed>
  <fix>3d</fix>
</trkpt>
<trkpt lat="40.072842" lon="-105.230575">
  <ele>1586.09</ele>
  <time>2026-08-27T18:31:25Z</time>
  <course>266.03</course>
  <speed>0.0</speed>
  <fix>3d</fix>
</trkpt>
<trkpt lat="40.072842" lon="-105.230575">
  <ele>1586.09</ele>
  <time>2026-08-27T18:31:25Z</time>
  <course>12.12</course>
  <speed>0.01</speed>
  <fix>3d</fix>
</trkpt>
<trkpt lat="40.072842" lon="-105.230575">
  <ele>1586.09</ele>
  <time>2026-08-27T18:31:25Z</time>
  <course>266.03</course>
  <speed>0.0</speed>
  <fix>3d</fix>
</trkpt>
<trkpt lat="40.072842" lon="-105.230575">
  <ele>1586.09</ele>
  <time>2026-08-27T18:31:25Z</time>
  <course>12.11</course>
  <speed>0.01</speed>
  <fix>3d</fix>
</trkpt>
<trkpt lat="40.072842" lon="-105.230575">
  <ele>1586.09</ele>
  <time>2026-08-27T18:31:25Z</time>
  <course>266.03</course>
  <speed>0.0</speed>
  <fix>3d</fix>
</trkpt>
<trkpt lat="40.072842" lon="-105.230575">
  <ele>1586.09</ele>
  <time>2026-08-27T18:31:25Z</time>
  <course>12.11</course>
  <speed>0.01</speed>
  <fix>3d</fix>
</trkpt>
<trkpt lat="40.072842" lon="-105.230575">
  <ele>1586.09</ele>
  <time>2026-08-27T18:31:25Z</time>
  <course>266.03</course>
  <speed>0.0</speed>
  <fix>3d</fix>
</trkpt>
<trkpt lat="40.072842" lon="-105.230575">
  <ele>1586.09</ele>
  <time>2026-08-27T18:31:25Z</time>
  <course>12.11</course>
  <speed>0.01</speed>
  <fix>3d</fix>
</trkpt>
<trkpt lat="40.072842" lon="-105.230575">
  <ele>1586.09</ele>
  <time>2026-08-27T18:31:25Z</time>
  <course>266.03</course>
  <speed>0.0</speed>
  <fix>3d</fix>
</trkpt>
<trkpt lat="40.072842" lon="-105.230575">
  <ele>1586.09</ele>
  <time>2026-08-27T18:31:25Z</time>
  <course>12.1</course>
  <speed>0.01</speed>
  <fix>3d</fix>
</trkpt>
<trkpt lat="40.072842" lon="-105.230575">
  <ele>1586.09</ele>
  <time>2026-08-27T18:31:25Z</time>
  <course>266.03</course>
  <speed>0.0</speed>
  <fix>3d</fix>
</trkpt>
<trkpt lat="40.072842" lon="-105.230575">
  <ele>1586.09</ele>
  <time>2026-08-27T18:31:25Z</time>
  <course>12.1</course>
  <speed>0.01</speed>
  <fix>3d</fix>
</trkpt>
<trkpt lat="40.072842" lon="-105.230575">
  <ele>1586.09</ele>
  <time>2026-08-27T18:31:25Z</time>
  <course>266.03</course>
  <speed>0.0</speed>
  <fix>3d</fix>
</trkpt>
<trkpt lat="40.072842" lon="-105.230575">
  <ele>1586.09</ele>
  <time>2026-08-27T18:31:25Z</time>
  <course>12.09</course>
  <speed>0.01</speed>
  <fix>3d</fix>
</trkpt>
<trkpt lat="40.072842" lon="-105.230575">
  <ele>1586.09</ele>
  <time>2026-08-27T18:31:25Z</time>
  <course>266.03</course>
  <speed>0.0</speed>
  <fix>3d</fix>
</trkpt>
<trkpt lat="40.072842" lon="-105.230575">
  <ele>1586.09</ele>
  <time>2026-08-27T18:31:25Z</time>
  <course>12.09</course>
  <speed>0.01</speed>
  <fix>3d</fix>
</trkpt>
<trkpt lat="40.072842" lon="-105.230575">
  <ele>1586.09</ele>
  <time>2026-08-27T18:31:25Z</time>
  <course>266.03</course>
  <speed>0.0</speed>
  <fix>3d</fix>
</trkpt>
<trkpt lat="40.072842" lon="-105.230575">
  <ele>1586.09</ele>
  <time>2026-08-27T18:31:25Z</time>
  <course>12.08</course>
  <speed>0.01414213562373095</speed>
  <fix>3d</fix>
</trkpt>
<trkpt lat="40.072842" lon="-105.230575">
  <ele>1586.09</ele>
  <time>2026-08-27T18:31:25Z</time>
  <course>266.03</course>
  <speed>0.0</speed>
  <fix>3d</fix>
</trkpt>
<trkpt lat="40.072842" lon="-105.230575">
  <ele>1586.09</ele>
  <time>2026-08-27T18:31:25Z</time>
  <course>12.07</course>
  <speed>0.01414213562373095</speed>
  <fix>3d</fix>
</trkpt>
<trkpt lat="40.072842" lon="-105.230575">
  <ele>1586.09</ele>
  <time>2026-08-27T18:31:25Z</time>
  <course>266.03</course>
  <speed>0.0</speed>
  <fix>3d</fix>
</trkpt>
<trkpt lat="40.072842" lon="-105.230575">
  <ele>1586.09</ele>
  <time>2026-08-27T18:31:25Z</time>
  <course>12.07</course>
  <speed>0.01414213562373095</speed>
  <fix>3d</fix>
</trkpt>
<trkpt lat="40.072842" lon="-105.230575">
  <ele>1586.09</ele>
  <time>2026-08-27T18:31:25Z</time>
  <course>266.03</course>
  <speed>0.0</speed>
  <fix>3d</fix>
</trkpt>
<trkpt lat="40.072842" lon="-105.230575">
  <ele>1586.09</ele>
  <time>2026-08-27T18:31:25Z</time>
  <course>12.06</course>
  <speed>0.01414213562373095</speed>
  <fix>3d</fix>
</trkpt>
<trkpt lat="40.072842" lon="-105.230575">
  <ele>1586.09</ele>
  <time>2026-08-27T18:31:25Z</time>
  <course>266.03</course>
  <speed>0.0</speed>
  <fix>3d</fix>
</trkpt>
<trkpt lat="40.072842" lon="-105.230575">
  <ele>1586.09</ele>
  <time>2026-08-27T18:31:25Z</time>
  <course>12.05</course>
  <speed>0.01414213562373095</speed>
  <fix>3d</fix>
</trkpt>
<trkpt lat="40.072842" lon="-105.230575">
  <ele>1586.09</ele>
  <time>2026-08-27T18:31:25Z</time>
  <course>266.03</course>
  <speed>0.0</speed>
  <fix>3d</fix>
</trkpt>
<trkpt lat="40.072842" lon="-105.230575">
  <ele>1586.09</ele>
  <time>2026-08-27T18:31:26Z</time>
  <course>12.05</course>
  <speed>0.01414213562373095</speed>
  <fix>3d</fix>
</trkpt>
<trkpt lat="40.072842" lon="-105.230575">
  <ele>1586.09</ele>
  <time>2026-08-27T18:31:26Z</time>
  <course>266.03</course>
  <speed>0.0</speed>
  <fix>3d</fix>
</trkpt>
<trkpt lat="40.072842" lon="-105.230575">
  <ele>1586.09</ele>
  <time>2026-08-27T18:31:26Z</time>
  <course>12.04</course>
  <speed>0.01414213562373095</speed>
  <fix>3d</fix>
</trkpt>
<trkpt lat="40.072842" lon="-105.230575">
  <ele>1586.09</ele>
  <time>2026-08-27T18:31:26Z</time>
  <course>266.03</course>
  <speed>0.0</speed>
  <fix>3d</fix>
</trkpt>
<trkpt lat="40.072842" lon="-105.230575">
  <ele>1586.09</ele>
  <time>2026-08-27T18:31:26Z</time>
  <course>12.03</course>
  <speed>0.01414213562373095</speed>
  <fix>3d</fix>
</trkpt>
<trkpt lat="40.072842" lon="-105.230575">
  <ele>1586.09</ele>
  <time>2026-08-27T18:31:26Z</time>
  <course>266.03</course>
  <speed>0.0</speed>
  <fix>3d</fix>
</trkpt>
<trkpt lat="40.072842" lon="-105.230575">
  <ele>1586.09</ele>
  <time>2026-08-27T18:31:26Z</time>
  <course>12.03</course>
  <speed>0.01414213562373095</speed>
  <fix>3d</fix>
</trkpt>
<trkpt lat="40.072842" lon="-105.230575">
  <ele>1586.09</ele>
  <time>2026-08-27T18:31:26Z</time>
  <course>266.03</course>
  <speed>0.0</speed>
  <fix>3d</fix>
</trkpt>
<trkpt lat="40.072842" lon="-105.230575">
  <ele>1586.09</ele>
  <time>2026-08-27T18:31:26Z</time>
  <course>12.02</course>
  <speed>0.01414213562373095</speed>
  <fix>3d</fix>
</trkpt>
<trkpt lat="40.072842" lon="-105.230575">
  <ele>1586.09</ele>
  <time>2026-08-27T18:31:26Z</time>
  <course>266.03</course>
  <speed>0.0</speed>
  <fix>3d</fix>
</trkpt>
<trkpt lat="40.072842" lon="-105.230575">
  <ele>1586.09</ele>
  <time>2026-08-27T18:31:26Z</time>
  <course>12.01</course>
  <speed>0.01414213562373095</speed>
  <fix>3d</fix>
</trkpt>
<trkpt lat="40.072842" lon="-105.230575">
  <ele>1586.09</ele>
  <time>2026-08-27T18:31:26Z</time>
  <course>266.03</course>
  <speed>0.0</speed>
  <fix>3d</fix>
</trkpt>
<trkpt lat="40.072842" lon="-105.230575">
  <ele>1586.09</ele>
  <time>2026-08-27T18:31:26Z</time>
  <course>12.0</course>
  <speed>0.01414213562373095</speed>
  <fix>3d</fix>
</trkpt>
<trkpt lat="40.072842" lon="-105.230575">
  <ele>1586.09</ele>
  <time>2026-08-27T18:31:26Z</time>
  <course>266.03</course>
  <speed>0.0</speed>
  <fix>3d</fix>
</trkpt>
<trkpt lat="40.072842" lon="-105.230575">
  <ele>1586.09</ele>
  <time>2026-08-27T18:31:26Z</time>
  <course>11.99</course>
  <speed>0.01414213562373095</speed>
  <fix>3d</fix>
</trkpt>
<trkpt lat="40.072842" lon="-105.230575">
  <ele>1586.09</ele>
  <time>2026-08-27T18:31:26Z</time>
  <course>266.03</course>
  <speed>0.0</speed>
  <fix>3d</fix>
</trkpt>
<trkpt lat="40.072842" lon="-105.230575">
  <ele>1586.09</ele>
  <time>2026-08-27T18:31:26Z</time>
  <course>11.99</course>
  <speed>0.01414213562373095</speed>
  <fix>3d</fix>
</trkpt>
<trkpt lat="40.072842" lon="-105.230575">
  <ele>1586.09</ele>
  <time>2026-08-27T18:31:26Z</time>
  <course>266.03</course>
  <speed>0.0</speed>
  <fix>3d</fix>
</trkpt>
<trkpt lat="40.072842" lon="-105.230575">
  <ele>1586.09</ele>
  <time>2026-08-27T18:31:26Z</time>
  <course>11.98</course>
  <speed>0.01414213562373095</speed>
  <fix>3d</fix>
</trkpt>
<trkpt lat="40.072842" lon="-105.230575">
  <ele>1586.09</ele>
  <time>2026-08-27T18:31:26Z</time>
  <course>266.03</course>
  <speed>0.0</speed>
  <fix>3d</fix>
</trkpt>
<trkpt lat="40.072842" lon="-105.230575">
  <ele>1586.09</ele>
  <time>2026-08-27T18:31:26Z</time>
  <course>11.97</course>
  <speed>0.01414213562373095</speed>
  <fix>3d</fix>
</trkpt>
<trkpt lat="40.072842" lon="-105.230575">
  <ele>1586.09</ele>
  <time>2026-08-27T18:31:26Z</time>
  <course>266.03</course>
  <speed>0.0</speed>
  <fix>3d</fix>
</trkpt>
<trkpt lat="40.072842" lon="-105.230575">
  <ele>1586.09</ele>
  <time>2026-08-27T18:31:26Z</time>
  <course>11.96</course>
  <speed>0.022360679774997897</speed>
  <fix>3d</fix>
</trkpt>
<trkpt lat="40.072842" lon="-105.230575">
  <ele>1586.09</ele>
  <time>2026-08-27T18:31:26Z</time>
  <course>266.03</course>
  <speed>0.0</speed>
  <fix>3d</fix>
</trkpt>
<trkpt lat="40.072842" lon="-105.230575">
  <ele>1586.09</ele>
  <time>2026-08-27T18:31:26Z</time>
  <course>11.95</course>
  <speed>0.022360679774997897</speed>
  <fix>3d</fix>
</trkpt>
<trkpt lat="40.072842" lon="-105.230575">
  <ele>1586.09</ele>
  <time>2026-08-27T18:31:26Z</time>
  <course>266.03</course>
  <speed>0.0</speed>
  <fix>3d</fix>
</trkpt>
<trkpt lat="40.072842" lon="-105.230575">
  <ele>1586.09</ele>
  <time>2026-08-27T18:31:26Z</time>
  <course>11.95</course>
  <speed>0.022360679774997897</speed>
  <fix>3d</fix>
</trkpt>
<trkpt lat="40.072842" lon="-105.230575">
  <ele>1586.09</ele>
  <time>2026-08-27T18:31:26Z</time>
  <course>266.03</course>
  <speed>0.0</speed>
  <fix>3d</fix>
</trkpt>
<trkpt lat="40.072842" lon="-105.230575">
  <ele>1586.09</ele>
  <time>2026-08-27T18:31:26Z</time>
  <course>11.94</course>
  <speed>0.022360679774997897</speed>
  <fix>3d</fix>
</trkpt>
<trkpt lat="40.072842" lon="-105.230575">
  <ele>1586.09</ele>
  <time>2026-08-27T18:31:26Z</time>
  <course>266.03</course>
  <speed>0.0</speed>
  <fix>3d</fix>
</trkpt>
<trkpt lat="40.072842" lon="-105.230575">
  <ele>1586.09</ele>
  <time>2026-08-27T18:31:26Z</time>
  <course>11.93</course>
  <speed>0.022360679774997897</speed>
  <fix>3d</fix>
</trkpt>
<trkpt lat="40.072842" lon="-105.230575">
  <ele>1586.09</ele>
  <time>2026-08-27T18:31:26Z</time>
  <course>266.03</course>
  <speed>0.0</speed>
  <fix>3d</fix>
</trkpt>
<trkpt lat="40.072842" lon="-105.230575">
  <ele>1586.09</ele>
  <time>2026-08-27T18:31:26Z</time>
  <course>11.92</course>
  <speed>0.022360679774997897</speed>
  <fix>3d</fix>
</trkpt>
<trkpt lat="40.072842" lon="-105.230575">
  <ele>1586.09</ele>
  <time>2026-08-27T18:31:26Z</time>
  <course>266.03</course>
  <speed>0.0</speed>
  <fix>3d</fix>
</trkpt>
<trkpt lat="40.072842" lon="-105.230575">
  <ele>1586.09</ele>
  <time>2026-08-27T18:31:26Z</time>
  <course>11.91</course>
  <speed>0.022360679774997897</speed>
  <fix>3d</fix>
</trkpt>
<trkpt lat="40.072842" lon="-105.230575">
  <ele>1586.09</ele>
  <time>2026-08-27T18:31:26Z</time>
  <course>266.03</course>
  <speed>0.0</speed>
  <fix>3d</fix>
</trkpt>
<trkpt lat="40.072842" lon="-105.230575">
  <ele>1586.09</ele>
  <time>2026-08-27T18:31:26Z</time>
  <course>11.91</course>
  <speed>0.022360679774997897</speed>
  <fix>3d</fix>
</trkpt>
<trkpt lat="40.072842" lon="-105.230575">
  <ele>1586.09</ele>
  <time>2026-08-27T18:31:26Z</time>
  <course>266.03</course>
  <speed>0.0</speed>
  <fix>3d</fix>
</trkpt>
<trkpt lat="40.072842" lon="-105.230575">
  <ele>1586.09</ele>
  <time>2026-08-27T18:31:26Z</time>
  <course>11.9</course>
  <speed>0.022360679774997897</speed>
  <fix>3d</fix>
</trkpt>
<trkpt lat="40.072842" lon="-105.230575">
  <ele>1586.09</ele>
  <time>2026-08-27T18:31:26Z</time>
  <course>266.03</course>
  <speed>0.0</speed>
  <fix>3d</fix>
</trkpt>
<trkpt lat="40.072842" lon="-105.230575">
  <ele>1586.09</ele>
  <time>2026-08-27T18:31:26Z</time>
  <course>11.89</course>
  <speed>0.022360679774997897</speed>
  <fix>3d</fix>
</trkpt>
<trkpt lat="40.072842" lon="-105.230575">
  <ele>1586.09</ele>
  <time>2026-08-27T18:31:26Z</time>
  <course>266.03</course>
  <speed>0.0</speed>
  <fix>3d</fix>
</trkpt>
<trkpt lat="40.072842" lon="-105.230575">
  <ele>1586.09</ele>
  <time>2026-08-27T18:31:26Z</time>
  <course>11.88</course>
  <speed>0.022360679774997897</speed>
  <fix>3d</fix>
</trkpt>
<trkpt lat="40.072842" lon="-105.230575">
  <ele>1586.09</ele>
  <time>2026-08-27T18:31:26Z</time>
  <course>266.03</course>
  <speed>0.0</speed>
  <fix>3d</fix>
</trkpt>
<trkpt lat="40.072842" lon="-105.230575">
  <ele>1586.09</ele>
  <time>2026-08-27T18:31:26Z</time>
  <course>11.87</course>
  <speed>0.022360679774997897</speed>
  <fix>3d</fix>
</trkpt>
<trkpt lat="40.072842" lon="-105.230575">
  <ele>1586.09</ele>
  <time>2026-08-27T18:31:26Z</time>
  <course>266.03</course>
  <speed>0.0</speed>
  <fix>3d</fix>
</trkpt>
<trkpt lat="40.072842" lon="-105.230575">
  <ele>1586.09</ele>
  <time>2026-08-27T18:31:26Z</time>
  <course>11.86</course>
  <speed>0.022360679774997897</speed>
  <fix>3d</fix>
</trkpt>
<trkpt lat="40.072842" lon="-105.230575">
  <ele>1586.09</ele>
  <time>2026-08-27T18:31:26Z</time>
  <course>266.03</course>
  <speed>0.0</speed>
  <fix>3d</fix>
</trkpt>
<trkpt lat="40.072842" lon="-105.230575">
  <ele>1586.09</ele>
  <time>2026-08-27T18:31:26Z</time>
  <course>11.86</course>
  <speed>0.022360679774997897</speed>
  <fix>3d</fix>
</trkpt>
<trkpt lat="40.072842" lon="-105.230575">
  <ele>1586.09</ele>
  <time>2026-08-27T18:31:26Z</time>
  <course>266.03</course>
  <speed>0.0</speed>
  <fix>3d</fix>
</trkpt>
<trkpt lat="40.072842" lon="-105.230575">
  <ele>1586.09</ele>
  <time>2026-08-27T18:31:26Z</time>
  <course>11.85</course>
  <speed>0.022360679774997897</speed>
  <fix>3d</fix>
</trkpt>
<trkpt lat="40.072842" lon="-105.230575">
  <ele>1586.09</ele>
  <time>2026-08-27T18:31:26Z</time>
  <course>266.03</course>
  <speed>0.0</speed>
  <fix>3d</fix>
</trkpt>
<trkpt lat="40.072842" lon="-105.230575">
  <ele>1586.09</ele>
  <time>2026-08-27T18:31:26Z</time>
  <course>11.84</course>
  <speed>0.022360679774997897</speed>
  <fix>3d</fix>
</trkpt>
<trkpt lat="40.072842" lon="-105.230575">
  <ele>1586.09</ele>
  <time>2026-08-27T18:31:26Z</time>
  <course>266.03</course>
  <speed>0.0</speed>
  <fix>3d</fix>
</trkpt>
<trkpt lat="40.072842" lon="-105.230575">
  <ele>1586.09</ele>
  <time>2026-08-27T18:31:26Z</time>
  <course>11.83</course>
  <speed>0.022360679774997897</speed>
  <fix>3d</fix>
</trkpt>
<trkpt lat="40.072842" lon="-105.230575">
  <ele>1586.09</ele>
  <time>2026-08-27T18:31:26Z</time>
  <course>266.03</course>
  <speed>0.0</speed>
  <fix>3d</fix>
</trkpt>
<trkpt lat="40.072842" lon="-105.230575">
  <ele>1586.09</ele>
  <time>2026-08-27T18:31:26Z</time>
  <course>11.82</course>
  <speed>0.0282842712474619</speed>
  <fix>3d</fix>
</trkpt>
<trkpt lat="40.072842" lon="-105.230575">
  <ele>1586.09</ele>
  <time>2026-08-27T18:31:26Z</time>
  <course>266.03</course>
  <speed>0.0</speed>
  <fix>3d</fix>
</trkpt>
<trkpt lat="40.072842" lon="-105.230575">
  <ele>1586.09</ele>
  <time>2026-08-27T18:31:26Z</time>
  <course>11.82</course>
  <speed>0.0282842712474619</speed>
  <fix>3d</fix>
</trkpt>
<trkpt lat="40.072842" lon="-105.230575">
  <ele>1586.09</ele>
  <time>2026-08-27T18:31:26Z</time>
  <course>266.03</course>
  <speed>0.0</speed>
  <fix>3d</fix>
</trkpt>
<trkpt lat="40.072842" lon="-105.230575">
  <ele>1586.09</ele>
  <time>2026-08-27T18:31:26Z</time>
  <course>11.81</course>
  <speed>0.0282842712474619</speed>
  <fix>3d</fix>
</trkpt>
<trkpt lat="40.072842" lon="-105.230575">
  <ele>1586.09</ele>
  <time>2026-08-27T18:31:26Z</time>
  <course>266.03</course>
  <speed>0.0</speed>
  <fix>3d</fix>
</trkpt>
<trkpt lat="40.072842" lon="-105.230575">
  <ele>1586.09</ele>
  <time>2026-08-27T18:31:26Z</time>
  <course>11.8</course>
  <speed>0.0282842712474619</speed>
  <fix>3d</fix>
</trkpt>
<trkpt lat="40.072842" lon="-105.230575">
  <ele>1586.09</ele>
  <time>2026-08-27T18:31:26Z</time>
  <course>266.03</course>
  <speed>0.0</speed>
  <fix>3d</fix>
</trkpt>
<trkpt lat="40.072842" lon="-105.230575">
  <ele>1586.09</ele>
  <time>2026-08-27T18:31:26Z</time>
  <course>11.79</course>
  <speed>0.0282842712474619</speed>
  <fix>3d</fix>
</trkpt>
<trkpt lat="40.072842" lon="-105.230575">
  <ele>1586.09</ele>
  <time>2026-08-27T18:31:26Z</time>
  <course>266.03</course>
  <speed>0.0</speed>
  <fix>3d</fix>
</trkpt>
<trkpt lat="40.072842" lon="-105.230575">
  <ele>1586.09</ele>
  <time>2026-08-27T18:31:26Z</time>
  <course>11.78</course>
  <speed>0.0282842712474619</speed>
  <fix>3d</fix>
</trkpt>
<trkpt lat="40.072842" lon="-105.230575">
  <ele>1586.09</ele>
  <time>2026-08-27T18:31:26Z</time>
  <course>266.03</course>
  <speed>0.0</speed>
  <fix>3d</fix>
</trkpt>
<trkpt lat="40.072842" lon="-105.230575">
  <ele>1586.09</ele>
  <time>2026-08-27T18:31:26Z</time>
  <course>11.78</course>
  <speed>0.0282842712474619</speed>
  <fix>3d</fix>
</trkpt>
<trkpt lat="40.072842" lon="-105.230575">
  <ele>1586.09</ele>
  <time>2026-08-27T18:31:26Z</time>
  <course>266.03</course>
  <speed>0.0</speed>
  <fix>3d</fix>
</trkpt>
<trkpt lat="40.072842" lon="-105.230575">
  <ele>1586.09</ele>
  <time>2026-08-27T18:31:26Z</time>
  <course>11.77</course>
  <speed>0.0282842712474619</speed>
  <fix>3d</fix>
</trkpt>
<trkpt lat="40.072842" lon="-105.230575">
  <ele>1586.09</ele>
  <time>2026-08-27T18:31:26Z</time>
  <course>266.03</course>
  <speed>0.0</speed>
  <fix>3d</fix>
</trkpt>
<trkpt lat="40.072842" lon="-105.230575">
  <ele>1586.09</ele>
  <time>2026-08-27T18:31:26Z</time>
  <course>11.76</course>
  <speed>0.0282842712474619</speed>
  <fix>3d</fix>
</trkpt>
<trkpt lat="40.072842" lon="-105.230575">
  <ele>1586.09</ele>
  <time>2026-08-27T18:31:26Z</time>
  <course>266.03</course>
  <speed>0.0</speed>
  <fix>3d</fix>
</trkpt>
<trkpt lat="40.072842" lon="-105.230575">
  <ele>1586.09</ele>
  <time>2026-08-27T18:31:26Z</time>
  <course>11.76</course>
  <speed>0.0282842712474619</speed>
  <fix>3d</fix>
</trkpt>
<trkpt lat="40.072842" lon="-105.230575">
  <ele>1586.09</ele>
  <time>2026-08-27T18:31:26Z</time>
  <course>266.03</course>
  <speed>0.0</speed>
  <fix>3d</fix>
</trkpt>
<trkpt lat="40.072842" lon="-105.230575">
  <ele>1586.09</ele>
  <time>2026-08-27T18:31:26Z</time>
  <course>11.75</course>
  <speed>0.0282842712474619</speed>
  <fix>3d</fix>
</trkpt>
<trkpt lat="40.072842" lon="-105.230575">
  <ele>1586.09</ele>
  <time>2026-08-27T18:31:26Z</time>
  <course>266.03</course>
  <speed>0.0</speed>
  <fix>3d</fix>
</trkpt>
<trkpt lat="40.072842" lon="-105.230575">
  <ele>1586.09</ele>
  <time>2026-08-27T18:31:26Z</time>
  <course>11.74</course>
  <speed>0.03605551275463989</speed>
  <fix>3d</fix>
</trkpt>
<trkpt lat="40.072842" lon="-105.230575">
  <ele>1586.09</ele>
  <time>2026-08-27T18:31:26Z</time>
  <course>266.03</course>
  <speed>0.0</speed>
  <fix>3d</fix>
</trkpt>
<trkpt lat="40.072842" lon="-105.230575">
  <ele>1586.09</ele>
  <time>2026-08-27T18:31:26Z</time>
  <course>11.73</course>
  <speed>0.03605551275463989</speed>
  <fix>3d</fix>
</trkpt>
<trkpt lat="40.072842" lon="-105.230575">
  <ele>1586.09</ele>
  <time>2026-08-27T18:31:26Z</time>
  <course>266.03</course>
  <speed>0.0</speed>
  <fix>3d</fix>
</trkpt>
<trkpt lat="40.072842" lon="-105.230575">
  <ele>1586.09</ele>
  <time>2026-08-27T18:31:26Z</time>
  <course>11.73</course>
  <speed>0.03605551275463989</speed>
  <fix>3d</fix>
</trkpt>
<trkpt lat="40.072842" lon="-105.230575">
  <ele>1586.09</ele>
  <time>2026-08-27T18:31:26Z</time>
  <course>266.03</course>
  <speed>0.0</speed>
  <fix>3d</fix>
</trkpt>
<trkpt lat="40.072842" lon="-105.230575">
  <ele>1586.09</ele>
  <time>2026-08-27T18:31:26Z</time>
  <course>11.72</course>
  <speed>0.03605551275463989</speed>
  <fix>3d</fix>
</trkpt>
<trkpt lat="40.072842" lon="-105.230575">
  <ele>1586.09</ele>
  <time>2026-08-27T18:31:26Z</time>
  <course>266.03</course>
  <speed>0.0</speed>
  <fix>3d</fix>
</trkpt>
<trkpt lat="40.072842" lon="-105.230575">
  <ele>1586.09</ele>
  <time>2026-08-27T18:31:26Z</time>
  <course>11.71</course>
  <speed>0.03605551275463989</speed>
  <fix>3d</fix>
</trkpt>
<trkpt lat="40.072842" lon="-105.230575">
  <ele>1586.09</ele>
  <time>2026-08-27T18:31:26Z</time>
  <course>266.03</course>
  <speed>0.0</speed>
  <fix>3d</fix>
</trkpt>
<trkpt lat="40.072842" lon="-105.230575">
  <ele>1586.09</ele>
  <time>2026-08-27T18:31:26Z</time>
  <course>11.7</course>
  <speed>0.03605551275463989</speed>
  <fix>3d</fix>
</trkpt>
<trkpt lat="40.072842" lon="-105.230575">
  <ele>1586.09</ele>
  <time>2026-08-27T18:31:26Z</time>
  <course>266.03</course>
  <speed>0.0</speed>
  <fix>3d</fix>
</trkpt>
<trkpt lat="40.072842" lon="-105.230575">
  <ele>1586.09</ele>
  <time>2026-08-27T18:31:26Z</time>
  <course>11.69</course>
  <speed>0.03605551275463989</speed>
  <fix>3d</fix>
</trkpt>
<trkpt lat="40.072842" lon="-105.230575">
  <ele>1586.09</ele>
  <time>2026-08-27T18:31:26Z</time>
  <course>266.03</course>
  <speed>0.0</speed>
  <fix>3d</fix>
</trkpt>
<trkpt lat="40.072842" lon="-105.230575">
  <ele>1586.09</ele>
  <time>2026-08-27T18:31:26Z</time>
  <course>11.69</course>
  <speed>0.03605551275463989</speed>
  <fix>3d</fix>
</trkpt>
<trkpt lat="40.072842" lon="-105.230575">
  <ele>1586.09</ele>
  <time>2026-08-27T18:31:26Z</time>
  <course>266.03</course>
  <speed>0.0</speed>
  <fix>3d</fix>
</trkpt>
<trkpt lat="40.072842" lon="-105.230575">
  <ele>1586.09</ele>
  <time>2026-08-27T18:31:26Z</time>
  <course>11.68</course>
  <speed>0.03605551275463989</speed>
  <fix>3d</fix>
</trkpt>
<trkpt lat="40.072842" lon="-105.230575">
  <ele>1586.09</ele>
  <time>2026-08-27T18:31:26Z</time>
  <course>266.03</course>
  <speed>0.0</speed>
  <fix>3d</fix>
</trkpt>
<trkpt lat="40.072842" lon="-105.230575">
  <ele>1586.09</ele>
  <time>2026-08-27T18:31:26Z</time>
  <course>11.67</course>
  <speed>0.03605551275463989</speed>
  <fix>3d</fix>
</trkpt>
<trkpt lat="40.072842" lon="-105.230575">
  <ele>1586.09</ele>
  <time>2026-08-27T18:31:26Z</time>
  <course>266.03</course>
  <speed>0.0</speed>
  <fix>3d</fix>
</trkpt>
<trkpt lat="40.072842" lon="-105.230575">
  <ele>1586.09</ele>
  <time>2026-08-27T18:31:26Z</time>
  <course>11.67</course>
  <speed>0.03605551275463989</speed>
  <fix>3d</fix>
</trkpt>
<trkpt lat="40.072842" lon="-105.230575">
  <ele>1586.09</ele>
  <time>2026-08-27T18:31:26Z</time>
  <course>266.03</course>
  <speed>0.0</speed>
  <fix>3d</fix>
</trkpt>
<trkpt lat="40.072842" lon="-105.230575">
  <ele>1586.09</ele>
  <time>2026-08-27T18:31:26Z</time>
  <course>11.66</course>
  <speed>0.03605551275463989</speed>
  <fix>3d</fix>
</trkpt>
<trkpt lat="40.072842" lon="-105.230575">
  <ele>1586.09</ele>
  <time>2026-08-27T18:31:26Z</time>
  <course>266.03</course>
  <speed>0.0</speed>
  <fix>3d</fix>
</trkpt>
<trkpt lat="40.072842" lon="-105.230575">
  <ele>1586.09</ele>
  <time>2026-08-27T18:31:26Z</time>
  <course>11.65</course>
  <speed>0.03605551275463989</speed>
  <fix>3d</fix>
</trkpt>
<trkpt lat="40.072842" lon="-105.230575">
  <ele>1586.09</ele>
  <time>2026-08-27T18:31:26Z</time>
  <course>266.03</course>
  <speed>0.0</speed>
  <fix>3d</fix>
</trkpt>
<trkpt lat="40.072842" lon="-105.230575">
  <ele>1586.09</ele>
  <time>2026-08-27T18:31:26Z</time>
  <course>11.65</course>
  <speed>0.03605551275463989</speed>
  <fix>3d</fix>
</trkpt>
<trkpt lat="40.072842" lon="-105.230575">
  <ele>1586.09</ele>
  <time>2026-08-27T18:31:26Z</time>
  <course>266.03</course>
  <speed>0.0</speed>
  <fix>3d</fix>
</trkpt>
<trkpt lat="40.072842" lon="-105.230575">
  <ele>1586.09</ele>
  <time>2026-08-27T18:31:26Z</time>
  <course>11.64</course>
  <speed>0.03605551275463989</speed>
  <fix>3d</fix>
</trkpt>
<trkpt lat="40.072842" lon="-105.230575">
  <ele>1586.09</ele>
  <time>2026-08-27T18:31:26Z</time>
  <course>266.03</course>
  <speed>0.0</speed>
  <fix>3d</fix>
</trkpt>
<trkpt lat="40.072842" lon="-105.230575">
  <ele>1586.09</ele>
  <time>2026-08-27T18:31:26Z</time>
  <course>11.63</course>
  <speed>0.03605551275463989</speed>
  <fix>3d</fix>
</trkpt>
<trkpt lat="40.072842" lon="-105.230575">
  <ele>1586.09</ele>
  <time>2026-08-27T18:31:26Z</time>
  <course>266.03</course>
  <speed>0.0</speed>
  <fix>3d</fix>
</trkpt>
<trkpt lat="40.072842" lon="-105.230575">
  <ele>1586.09</ele>
  <time>2026-08-27T18:31:26Z</time>
  <course>11.62</course>
  <speed>0.03605551275463989</speed>
  <fix>3d</fix>
</trkpt>
<trkpt lat="40.072842" lon="-105.230575">
  <ele>1586.09</ele>
  <time>2026-08-27T18:31:26Z</time>
  <course>266.03</course>
  <speed>0.0</speed>
  <fix>3d</fix>
</trkpt>
<trkpt lat="40.072842" lon="-105.230575">
  <ele>1586.09</ele>
  <time>2026-08-27T18:31:26Z</time>
  <course>11.62</course>
  <speed>0.03605551275463989</speed>
  <fix>3d</fix>
</trkpt>
<trkpt lat="40.072842" lon="-105.230575">
  <ele>1586.09</ele>
  <time>2026-08-27T18:31:26Z</time>
  <course>266.03</course>
  <speed>0.0</speed>
  <fix>3d</fix>
</trkpt>
<trkpt lat="40.072842" lon="-105.230575">
  <ele>1586.09</ele>
  <time>2026-08-27T18:31:26Z</time>
  <course>11.61</course>
  <speed>0.03605551275463989</speed>
  <fix>3d</fix>
</trkpt>
<trkpt lat="40.072842" lon="-105.230575">
  <ele>1586.09</ele>
  <time>2026-08-27T18:31:26Z</time>
  <course>266.03</course>
  <speed>0.0</speed>
  <fix>3d</fix>
</trkpt>
<trkpt lat="40.072842" lon="-105.230575">
  <ele>1586.09</ele>
  <time>2026-08-27T18:31:26Z</time>
  <course>11.61</course>
  <speed>0.03605551275463989</speed>
  <fix>3d</fix>
</trkpt>
<trkpt lat="40.072842" lon="-105.230575">
  <ele>1586.09</ele>
  <time>2026-08-27T18:31:26Z</time>
  <course>266.03</course>
  <speed>0.0</speed>
  <fix>3d</fix>
</trkpt>
<trkpt lat="40.072842" lon="-105.230575">
  <ele>1586.09</ele>
  <time>2026-08-27T18:31:26Z</time>
  <course>11.6</course>
  <speed>0.03605551275463989</speed>
  <fix>3d</fix>
</trkpt>
<trkpt lat="40.072842" lon="-105.230575">
  <ele>1586.09</ele>
  <time>2026-08-27T18:31:26Z</time>
  <course>266.03</course>
  <speed>0.0</speed>
  <fix>3d</fix>
</trkpt>
<trkpt lat="40.072842" lon="-105.230575">
  <ele>1586.09</ele>
  <time>2026-08-27T18:31:26Z</time>
  <course>11.59</course>
  <speed>0.03605551275463989</speed>
  <fix>3d</fix>
</trkpt>
<trkpt lat="40.072842" lon="-105.230575">
  <ele>1586.09</ele>
  <time>2026-08-27T18:31:26Z</time>
  <course>266.03</course>
  <speed>0.0</speed>
  <fix>3d</fix>
</trkpt>
<trkpt lat="40.072842" lon="-105.230575">
  <ele>1586.09</ele>
  <time>2026-08-27T18:31:26Z</time>
  <course>11.59</course>
  <speed>0.03605551275463989</speed>
  <fix>3d</fix>
</trkpt>
<trkpt lat="40.072842" lon="-105.230575">
  <ele>1586.09</ele>
  <time>2026-08-27T18:31:26Z</time>
  <course>266.03</course>
  <speed>0.0</speed>
  <fix>3d</fix>
</trkpt>
<trkpt lat="40.072842" lon="-105.230575">
  <ele>1586.09</ele>
  <time>2026-08-27T18:31:26Z</time>
  <course>11.58</course>
  <speed>0.03605551275463989</speed>
  <fix>3d</fix>
</trkpt>
<trkpt lat="40.072842" lon="-105.230575">
  <ele>1586.09</ele>
  <time>2026-08-27T18:31:26Z</time>
  <course>266.03</course>
  <speed>0.0</speed>
  <fix>3d</fix>
</trkpt>
<trkpt lat="40.072842" lon="-105.230575">
  <ele>1586.09</ele>
  <time>2026-08-27T18:31:26Z</time>
  <course>11.57</course>
  <speed>0.03605551275463989</speed>
  <fix>3d</fix>
</trkpt>
<trkpt lat="40.072842" lon="-105.230575">
  <ele>1586.09</ele>
  <time>2026-08-27T18:31:26Z</time>
  <course>266.03</course>
  <speed>0.0</speed>
  <fix>3d</fix>
</trkpt>
<trkpt lat="40.072842" lon="-105.230575">
  <ele>1586.09</ele>
  <time>2026-08-27T18:31:26Z</time>
  <course>11.57</course>
  <speed>0.03605551275463989</speed>
  <fix>3d</fix>
</trkpt>
<trkpt lat="40.072842" lon="-105.230575">
  <ele>1586.09</ele>
  <time>2026-08-27T18:31:26Z</time>
  <course>266.03</course>
  <speed>0.0</speed>
  <fix>3d</fix>
</trkpt>
<trkpt lat="40.072842" lon="-105.230575">
  <ele>1586.09</ele>
  <time>2026-08-27T18:31:26Z</time>
  <course>11.56</course>
  <speed>0.03605551275463989</speed>
  <fix>3d</fix>
</trkpt>
<trkpt lat="40.072842" lon="-105.230575">
  <ele>1586.09</ele>
  <time>2026-08-27T18:31:26Z</time>
  <course>266.03</course>
  <speed>0.0</speed>
  <fix>3d</fix>
</trkpt>
<trkpt lat="40.072842" lon="-105.230575">
  <ele>1586.09</ele>
  <time>2026-08-27T18:31:26Z</time>
  <course>11.56</course>
  <speed>0.03605551275463989</speed>
  <fix>3d</fix>
</trkpt>
<trkpt lat="40.072842" lon="-105.230575">
  <ele>1586.09</ele>
  <time>2026-08-27T18:31:26Z</time>
  <course>266.03</course>
  <speed>0.0</speed>
  <fix>3d</fix>
</trkpt>
<trkpt lat="40.072842" lon="-105.230575">
  <ele>1586.09</ele>
  <time>2026-08-27T18:31:26Z</time>
  <course>11.55</course>
  <speed>0.03605551275463989</speed>
  <fix>3d</fix>
</trkpt>
<trkpt lat="40.072842" lon="-105.230575">
  <ele>1586.09</ele>
  <time>2026-08-27T18:31:26Z</time>
  <course>266.03</course>
  <speed>0.0</speed>
  <fix>3d</fix>
</trkpt>
<trkpt lat="40.072842" lon="-105.230575">
  <ele>1586.09</ele>
  <time>2026-08-27T18:31:26Z</time>
  <course>11.54</course>
  <speed>0.03605551275463989</speed>
  <fix>3d</fix>
</trkpt>
<trkpt lat="40.072842" lon="-105.230575">
  <ele>1586.09</ele>
  <time>2026-08-27T18:31:26Z</time>
  <course>266.03</course>
  <speed>0.0</speed>
  <fix>3d</fix>
</trkpt>
<trkpt lat="40.072842" lon="-105.230575">
  <ele>1586.09</ele>
  <time>2026-08-27T18:31:26Z</time>
  <course>11.54</course>
  <speed>0.03605551275463989</speed>
  <fix>3d</fix>
</trkpt>
<trkpt lat="40.072842" lon="-105.230575">
  <ele>1586.09</ele>
  <time>2026-08-27T18:31:26Z</time>
  <course>266.03</course>
  <speed>0.0</speed>
  <fix>3d</fix>
</trkpt>
<trkpt lat="40.072842" lon="-105.230575">
  <ele>1586.09</ele>
  <time>2026-08-27T18:31:26Z</time>
  <course>11.53</course>
  <speed>0.03605551275463989</speed>
  <fix>3d</fix>
</trkpt>
<trkpt lat="40.072842" lon="-105.230575">
  <ele>1586.09</ele>
  <time>2026-08-27T18:31:26Z</time>
  <course>266.03</course>
  <speed>0.0</speed>
  <fix>3d</fix>
</trkpt>
<trkpt lat="40.072842" lon="-105.230575">
  <ele>1586.09</ele>
  <time>2026-08-27T18:31:26Z</time>
  <course>11.53</course>
  <speed>0.03605551275463989</speed>
  <fix>3d</fix>
</trkpt>
<trkpt lat="40.072842" lon="-105.230575">
  <ele>1586.09</ele>
  <time>2026-08-27T18:31:26Z</time>
  <course>266.03</course>
  <speed>0.0</speed>
  <fix>3d</fix>
</trkpt>
<trkpt lat="40.072842" lon="-105.230575">
  <ele>1586.09</ele>
  <time>2026-08-27T18:31:26Z</time>
  <course>11.52</course>
  <speed>0.03605551275463989</speed>
  <fix>3d</fix>
</trkpt>
<trkpt lat="40.072842" lon="-105.230575">
  <ele>1586.09</ele>
  <time>2026-08-27T18:31:26Z</time>
  <course>266.03</course>
  <speed>0.0</speed>
  <fix>3d</fix>
</trkpt>
<trkpt lat="40.072842" lon="-105.230575">
  <ele>1586.09</ele>
  <time>2026-08-27T18:31:26Z</time>
  <course>11.51</course>
  <speed>0.03605551275463989</speed>
  <fix>3d</fix>
</trkpt>
<trkpt lat="40.072842" lon="-105.230575">
  <ele>1586.09</ele>
  <time>2026-08-27T18:31:26Z</time>
  <course>266.03</course>
  <speed>0.0</speed>
  <fix>3d</fix>
</trkpt>
<trkpt lat="40.072842" lon="-105.230575">
  <ele>1586.09</ele>
  <time>2026-08-27T18:31:26Z</time>
  <course>11.51</course>
  <speed>0.03605551275463989</speed>
  <fix>3d</fix>
</trkpt>
<trkpt lat="40.072842" lon="-105.230575">
  <ele>1586.09</ele>
  <time>2026-08-27T18:31:26Z</time>
  <course>266.03</course>
  <speed>0.0</speed>
  <fix>3d</fix>
</trkpt>
<trkpt lat="40.072842" lon="-105.230575">
  <ele>1586.09</ele>
  <time>2026-08-27T18:31:26Z</time>
  <course>11.5</course>
  <speed>0.03605551275463989</speed>
  <fix>3d</fix>
</trkpt>
<trkpt lat="40.072842" lon="-105.230575">
  <ele>1586.09</ele>
  <time>2026-08-27T18:31:26Z</time>
  <course>266.03</course>
  <speed>0.0</speed>
  <fix>3d</fix>
</trkpt>
<trkpt lat="40.072842" lon="-105.230575">
  <ele>1586.09</ele>
  <time>2026-08-27T18:31:26Z</time>
  <course>11.5</course>
  <speed>0.03605551275463989</speed>
  <fix>3d</fix>
</trkpt>
<trkpt lat="40.072842" lon="-105.230575">
  <ele>1586.09</ele>
  <time>2026-08-27T18:31:26Z</time>
  <course>266.03</course>
  <speed>0.0</speed>
  <fix>3d</fix>
</trkpt>
<trkpt lat="40.072842" lon="-105.230575">
  <ele>1586.09</ele>
  <time>2026-08-27T18:31:26Z</time>
  <course>11.49</course>
  <speed>0.044721359549995794</speed>
  <fix>3d</fix>
</trkpt>
<trkpt lat="40.072842" lon="-105.230575">
  <ele>1586.09</ele>
  <time>2026-08-27T18:31:26Z</time>
  <course>266.03</course>
  <speed>0.0</speed>
  <fix>3d</fix>
</trkpt>
<trkpt lat="40.072842" lon="-105.230575">
  <ele>1586.09</ele>
  <time>2026-08-27T18:31:26Z</time>
  <course>11.49</course>
  <speed>0.044721359549995794</speed>
  <fix>3d</fix>
</trkpt>
<trkpt lat="40.072842" lon="-105.230575">
  <ele>1586.09</ele>
  <time>2026-08-27T18:31:26Z</time>
  <course>266.03</course>
  <speed>0.0</speed>
  <fix>3d</fix>
</trkpt>
<trkpt lat="40.072842" lon="-105.230575">
  <ele>1586.09</ele>
  <time>2026-08-27T18:31:26Z</time>
  <course>11.48</course>
  <speed>0.044721359549995794</speed>
  <fix>3d</fix>
</trkpt>
<trkpt lat="40.072842" lon="-105.230575">
  <ele>1586.09</ele>
  <time>2026-08-27T18:31:26Z</time>
  <course>266.03</course>
  <speed>0.0</speed>
  <fix>3d</fix>
</trkpt>
<trkpt lat="40.072842" lon="-105.230575">
  <ele>1586.09</ele>
  <time>2026-08-27T18:31:26Z</time>
  <course>11.48</course>
  <speed>0.044721359549995794</speed>
  <fix>3d</fix>
</trkpt>
<trkpt lat="40.072842" lon="-105.230575">
  <ele>1586.09</ele>
  <time>2026-08-27T18:31:26Z</time>
  <course>266.03</course>
  <speed>0.0</speed>
  <fix>3d</fix>
</trkpt>
<trkpt lat="40.072842" lon="-105.230575">
  <ele>1586.09</ele>
  <time>2026-08-27T18:31:26Z</time>
  <course>11.47</course>
  <speed>0.044721359549995794</speed>
  <fix>3d</fix>
</trkpt>
<trkpt lat="40.072842" lon="-105.230575">
  <ele>1586.09</ele>
  <time>2026-08-27T18:31:26Z</time>
  <course>266.03</course>
  <speed>0.0</speed>
  <fix>3d</fix>
</trkpt>
<trkpt lat="40.072842" lon="-105.230575">
  <ele>1586.09</ele>
  <time>2026-08-27T18:31:26Z</time>
  <course>11.47</course>
  <speed>0.044721359549995794</speed>
  <fix>3d</fix>
</trkpt>
<trkpt lat="40.072842" lon="-105.230575">
  <ele>1586.09</ele>
  <time>2026-08-27T18:31:26Z</time>
  <course>266.03</course>
  <speed>0.0</speed>
  <fix>3d</fix>
</trkpt>
<trkpt lat="40.072842" lon="-105.230575">
  <ele>1586.09</ele>
  <time>2026-08-27T18:31:26Z</time>
  <course>11.46</course>
  <speed>0.044721359549995794</speed>
  <fix>3d</fix>
</trkpt>
<trkpt lat="40.072842" lon="-105.230575">
  <ele>1586.09</ele>
  <time>2026-08-27T18:31:26Z</time>
  <course>266.03</course>
  <speed>0.0</speed>
  <fix>3d</fix>
</trkpt>
<trkpt lat="40.072842" lon="-105.230575">
  <ele>1586.09</ele>
  <time>2026-08-27T18:31:26Z</time>
  <course>11.46</course>
  <speed>0.044721359549995794</speed>
  <fix>3d</fix>
</trkpt>
<trkpt lat="40.072842" lon="-105.230575">
  <ele>1586.09</ele>
  <time>2026-08-27T18:31:26Z</time>
  <course>266.03</course>
  <speed>0.0</speed>
  <fix>3d</fix>
</trkpt>
<trkpt lat="40.072842" lon="-105.230575">
  <ele>1586.15</ele>
  <time>2026-08-27T18:31:26Z</time>
  <course>11.45</course>
  <speed>0.0</speed>
  <fix>3d</fix>
</trkpt>
<trkpt lat="40.072842" lon="-105.230575">
  <ele>1586.09</ele>
  <time>2026-08-27T18:31:26Z</time>
  <course>266.03</course>
  <speed>0.0</speed>
  <fix>3d</fix>
</trkpt>
<trkpt lat="40.072842" lon="-105.230575">
  <ele>1586.15</ele>
  <time>2026-08-27T18:31:26Z</time>
  <course>11.45</course>
  <speed>0.0</speed>
  <fix>3d</fix>
</trkpt>
<trkpt lat="40.072842" lon="-105.230575">
  <ele>1586.09</ele>
  <time>2026-08-27T18:31:26Z</time>
  <course>266.03</course>
  <speed>0.0</speed>
  <fix>3d</fix>
</trkpt>
<trkpt lat="40.072842" lon="-105.230575">
  <ele>1586.14</ele>
  <time>2026-08-27T18:31:26Z</time>
  <course>11.44</course>
  <speed>0.0</speed>
  <fix>3d</fix>
</trkpt>
<trkpt lat="40.072842" lon="-105.230575">
  <ele>1586.09</ele>
  <time>2026-08-27T18:31:26Z</time>
  <course>281.49</course>
  <speed>0.0</speed>
  <fix>3d</fix>
</trkpt>
<trkpt lat="40.072842" lon="-105.230575">
  <ele>1586.14</ele>
  <time>2026-08-27T18:31:26Z</time>
  <course>11.44</course>
  <speed>0.0</speed>
  <fix>3d</fix>
</trkpt>
<trkpt lat="40.072842" lon="-105.230575">
  <ele>1586.09</ele>
  <time>2026-08-27T18:31:26Z</time>
  <course>269.42</course>
  <speed>0.0</speed>
  <fix>3d</fix>
</trkpt>
<trkpt lat="40.072842" lon="-105.230575">
  <ele>1586.14</ele>
  <time>2026-08-27T18:31:26Z</time>
  <course>11.43</course>
  <speed>0.0</speed>
  <fix>3d</fix>
</trkpt>
<trkpt lat="40.072842" lon="-105.230575">
  <ele>1586.09</ele>
  <time>2026-08-27T18:31:26Z</time>
  <course>211.84</course>
  <speed>0.0</speed>
  <fix>3d</fix>
</trkpt>
<trkpt lat="40.072842" lon="-105.230575">
  <ele>1586.14</ele>
  <time>2026-08-27T18:31:26Z</time>
  <course>11.43</course>
  <speed>0.01</speed>
  <fix>3d</fix>
</trkpt>
<trkpt lat="40.072842" lon="-105.230575">
  <ele>1586.09</ele>
  <time>2026-08-27T18:31:26Z</time>
  <course>76.8</course>
  <speed>0.0</speed>
  <fix>3d</fix>
</trkpt>
<trkpt lat="40.072842" lon="-105.230575">
  <ele>1586.14</ele>
  <time>2026-08-27T18:31:26Z</time>
  <course>11.42</course>
  <speed>0.01</speed>
  <fix>3d</fix>
</trkpt>
<trkpt lat="40.072842" lon="-105.230575">
  <ele>1586.09</ele>
  <time>2026-08-27T18:31:26Z</time>
  <course>283.66</course>
  <speed>0.0</speed>
  <fix>3d</fix>
</trkpt>
<trkpt lat="40.072842" lon="-105.230575">
  <ele>1586.14</ele>
  <time>2026-08-27T18:31:26Z</time>
  <course>11.42</course>
  <speed>0.01</speed>
  <fix>3d</fix>
</trkpt>
<trkpt lat="40.072842" lon="-105.230575">
  <ele>1586.09</ele>
  <time>2026-08-27T18:31:26Z</time>
  <course>262.24</course>
  <speed>0.0</speed>
  <fix>3d</fix>
</trkpt>
<trkpt lat="40.072842" lon="-105.230575">
  <ele>1586.14</ele>
  <time>2026-08-27T18:31:26Z</time>
  <course>11.42</course>
  <speed>0.01414213562373095</speed>
  <fix>3d</fix>
</trkpt>
<trkpt lat="40.072842" lon="-105.230575">
  <ele>1586.09</ele>
  <time>2026-08-27T18:31:26Z</time>
  <course>263.53</course>
  <speed>0.0</speed>
  <fix>3d</fix>
</trkpt>
<trkpt lat="40.072842" lon="-105.230575">
  <ele>1586.15</ele>
  <time>2026-08-27T18:31:26Z</time>
  <course>11.41</course>
  <speed>0.01414213562373095</speed>
  <fix>3d</fix>
</trkpt>
<trkpt lat="40.072842" lon="-105.230575">
  <ele>1586.09</ele>
  <time>2026-08-27T18:31:26Z</time>
  <course>267.07</course>
  <speed>0.0</speed>
  <fix>3d</fix>
</trkpt>
<trkpt lat="40.072842" lon="-105.230575">
  <ele>1586.15</ele>
  <time>2026-08-27T18:31:26Z</time>
  <course>11.41</course>
  <speed>0.01414213562373095</speed>
  <fix>3d</fix>
</trkpt>
<trkpt lat="40.072842" lon="-105.230575">
  <ele>1586.09</ele>
  <time>2026-08-27T18:31:26Z</time>
  <course>266.23</course>
  <speed>0.0</speed>
  <fix>3d</fix>
</trkpt>
<trkpt lat="40.072842" lon="-105.230575">
  <ele>1586.15</ele>
  <time>2026-08-27T18:31:26Z</time>
  <course>11.4</course>
  <speed>0.022360679774997897</speed>
  <fix>3d</fix>
</trkpt>
<trkpt lat="40.072842" lon="-105.230575">
  <ele>1586.09</ele>
  <time>2026-08-27T18:31:26Z</time>
  <course>265.88</course>
  <speed>0.0</speed>
  <fix>3d</fix>
</trkpt>
<trkpt lat="40.072842" lon="-105.230575">
  <ele>1586.15</ele>
  <time>2026-08-27T18:31:26Z</time>
  <course>11.4</course>
  <speed>0.022360679774997897</speed>
  <fix>3d</fix>
</trkpt>
<trkpt lat="40.072842" lon="-105.230575">
  <ele>1586.09</ele>
  <time>2026-08-27T18:31:26Z</time>
  <course>258.48</course>
  <speed>0.0</speed>
  <fix>3d</fix>
</trkpt>
<trkpt lat="40.072842" lon="-105.230575">
  <ele>1586.16</ele>
  <time>2026-08-27T18:31:26Z</time>
  <course>11.4</course>
  <speed>0.022360679774997897</speed>
  <fix>3d</fix>
</trkpt>
<trkpt lat="40.072842" lon="-105.230575">
  <ele>1586.09</ele>
  <time>2026-08-27T18:31:26Z</time>
  <course>264.06</course>
  <speed>0.0</speed>
  <fix>3d</fix>
</trkpt>
<trkpt lat="40.072842" lon="-105.230575">
  <ele>1586.16</ele>
  <time>2026-08-27T18:31:26Z</time>
  <course>11.39</course>
  <speed>0.022360679774997897</speed>
  <fix>3d</fix>
</trkpt>
<trkpt lat="40.072842" lon="-105.230575">
  <ele>1586.09</ele>
  <time>2026-08-27T18:31:26Z</time>
  <course>268.4</course>
  <speed>0.0</speed>
  <fix>3d</fix>
</trkpt>
<trkpt lat="40.072842" lon="-105.230575">
  <ele>1586.16</ele>
  <time>2026-08-27T18:31:26Z</time>
  <course>11.39</course>
  <speed>0.01414213562373095</speed>
  <fix>3d</fix>
</trkpt>
<trkpt lat="40.072842" lon="-105.230575">
  <ele>1586.09</ele>
  <time>2026-08-27T18:31:26Z</time>
  <course>264.13</course>
  <speed>0.0</speed>
  <fix>3d</fix>
</trkpt>
<trkpt lat="40.072842" lon="-105.230575">
  <ele>1586.16</ele>
  <time>2026-08-27T18:31:26Z</time>
  <course>11.39</course>
  <speed>0.01414213562373095</speed>
  <fix>3d</fix>
</trkpt>
<trkpt lat="40.072842" lon="-105.230575">
  <ele>1586.09</ele>
  <time>2026-08-27T18:31:26Z</time>
  <course>266.1</course>
  <speed>0.0</speed>
  <fix>3d</fix>
</trkpt>
<trkpt lat="40.072842" lon="-105.230575">
  <ele>1586.16</ele>
  <time>2026-08-27T18:31:26Z</time>
  <course>11.38</course>
  <speed>0.01</speed>
  <fix>3d</fix>
</trkpt>
<trkpt lat="40.072842" lon="-105.230575">
  <ele>1586.09</ele>
  <time>2026-08-27T18:31:26Z</time>
  <course>266.28</course>
  <speed>0.0</speed>
  <fix>3d</fix>
</trkpt>
<trkpt lat="40.072842" lon="-105.230575">
  <ele>1586.16</ele>
  <time>2026-08-27T18:31:26Z</time>
  <course>11.38</course>
  <speed>0.0</speed>
  <fix>3d</fix>
</trkpt>
<trkpt lat="40.072842" lon="-105.230575">
  <ele>1586.09</ele>
  <time>2026-08-27T18:31:26Z</time>
  <course>266.0</course>
  <speed>0.0</speed>
  <fix>3d</fix>
</trkpt>
<trkpt lat="40.072842" lon="-105.230575">
  <ele>1586.16</ele>
  <time>2026-08-27T18:31:26Z</time>
  <course>11.37</course>
  <speed>0.0</speed>
  <fix>3d</fix>
</trkpt>
<trkpt lat="40.072842" lon="-105.230575">
  <ele>1586.09</ele>
  <time>2026-08-27T18:31:26Z</time>
  <course>266.01</course>
  <speed>0.0</speed>
  <fix>3d</fix>
</trkpt>
<trkpt lat="40.072842" lon="-105.230575">
  <ele>1586.16</ele>
  <time>2026-08-27T18:31:26Z</time>
  <course>11.37</course>
  <speed>0.0</speed>
  <fix>3d</fix>
</trkpt>
<trkpt lat="40.072842" lon="-105.230575">
  <ele>1586.09</ele>
  <time>2026-08-27T18:31:26Z</time>
  <course>266.04</course>
  <speed>0.0</speed>
  <fix>3d</fix>
</trkpt>
<trkpt lat="40.072842" lon="-105.230575">
  <ele>1586.16</ele>
  <time>2026-08-27T18:31:26Z</time>
  <course>11.37</course>
  <speed>0.0</speed>
  <fix>3d</fix>
</trkpt>
<trkpt lat="40.072842" lon="-105.230575">
  <ele>1586.09</ele>
  <time>2026-08-27T18:31:26Z</time>
  <course>349.24</course>
  <speed>0.0</speed>
  <fix>3d</fix>
</trkpt>
<trkpt lat="40.072842" lon="-105.230575">
  <ele>1586.16</ele>
  <time>2026-08-27T18:31:26Z</time>
  <course>11.36</course>
  <speed>0.0</speed>
  <fix>3d</fix>
</trkpt>
<trkpt lat="40.072842" lon="-105.230575">
  <ele>1586.09</ele>
  <time>2026-08-27T18:31:26Z</time>
  <course>322.69</course>
  <speed>0.0</speed>
  <fix>3d</fix>
</trkpt>
<trkpt lat="40.072842" lon="-105.230575">
  <ele>1586.16</ele>
  <time>2026-08-27T18:31:26Z</time>
  <course>11.36</course>
  <speed>0.0</speed>
  <fix>3d</fix>
</trkpt>
<trkpt lat="40.072842" lon="-105.230575">
  <ele>1586.09</ele>
  <time>2026-08-27T18:31:26Z</time>
  <course>306.75</course>
  <speed>0.0</speed>
  <fix>3d</fix>
</trkpt>
<trkpt lat="40.072842" lon="-105.230575">
  <ele>1586.16</ele>
  <time>2026-08-27T18:31:26Z</time>
  <course>11.36</course>
  <speed>0.0</speed>
  <fix>3d</fix>
</trkpt>
<trkpt lat="40.072842" lon="-105.230575">
  <ele>1586.09</ele>
  <time>2026-08-27T18:31:26Z</time>
  <course>179.16</course>
  <speed>0.0</speed>
  <fix>3d</fix>
</trkpt>
<trkpt lat="40.072842" lon="-105.230575">
  <ele>1586.16</ele>
  <time>2026-08-27T18:31:26Z</time>
  <course>11.35</course>
  <speed>0.0</speed>
  <fix>3d</fix>
</trkpt>
<trkpt lat="40.072842" lon="-105.230575">
  <ele>1586.09</ele>
  <time>2026-08-27T18:31:26Z</time>
  <course>200.87</course>
  <speed>0.0</speed>
  <fix>3d</fix>
</trkpt>
<trkpt lat="40.072842" lon="-105.230575">
  <ele>1586.16</ele>
  <time>2026-08-27T18:31:26Z</time>
  <course>11.35</course>
  <speed>0.0</speed>
  <fix>3d</fix>
</trkpt>
<trkpt lat="40.072842" lon="-105.230575">
  <ele>1586.09</ele>
  <time>2026-08-27T18:31:26Z</time>
  <course>299.88</course>
  <speed>0.0</speed>
  <fix>3d</fix>
</trkpt>
<trkpt lat="40.072842" lon="-105.230575">
  <ele>1586.16</ele>
  <time>2026-08-27T18:31:26Z</time>
  <course>11.34</course>
  <speed>0.0</speed>
  <fix>3d</fix>
</trkpt>
<trkpt lat="40.072842" lon="-105.230575">
  <ele>1586.09</ele>
  <time>2026-08-27T18:31:26Z</time>
  <course>285.04</course>
  <speed>0.0</speed>
  <fix>3d</fix>
</trkpt>
<trkpt lat="40.072842" lon="-105.230575">
  <ele>1586.16</ele>
  <time>2026-08-27T18:31:26Z</time>
  <course>11.33</course>
  <speed>0.0</speed>
  <fix>3d</fix>
</trkpt>
<trkpt lat="40.072842" lon="-105.230575">
  <ele>1586.09</ele>
  <time>2026-08-27T18:31:26Z</time>
  <course>283.29</course>
  <speed>0.0</speed>
  <fix>3d</fix>
</trkpt>
<trkpt lat="40.072842" lon="-105.230575">
  <ele>1586.16</ele>
  <time>2026-08-27T18:31:26Z</time>
  <course>11.32</course>
  <speed>0.0</speed>
  <fix>3d</fix>
</trkpt>
<trkpt lat="40.072842" lon="-105.230575">
  <ele>1586.09</ele>
  <time>2026-08-27T18:31:26Z</time>
  <course>286.2</course>
  <speed>0.0</speed>
  <fix>3d</fix>
</trkpt>
<trkpt lat="40.072842" lon="-105.230575">
  <ele>1586.16</ele>
  <time>2026-08-27T18:31:26Z</time>
  <course>11.31</course>
  <speed>0.0</speed>
  <fix>3d</fix>
</trkpt>
<trkpt lat="40.072842" lon="-105.230575">
  <ele>1586.09</ele>
  <time>2026-08-27T18:31:26Z</time>
  <course>285.95</course>
  <speed>0.0</speed>
  <fix>3d</fix>
</trkpt>
<trkpt lat="40.072842" lon="-105.230575">
  <ele>1586.16</ele>
  <time>2026-08-27T18:31:26Z</time>
  <course>11.3</course>
  <speed>0.0</speed>
  <fix>3d</fix>
</trkpt>
<trkpt lat="40.072842" lon="-105.230575">
  <ele>1586.09</ele>
  <time>2026-08-27T18:31:26Z</time>
  <course>285.48</course>
  <speed>0.0</speed>
  <fix>3d</fix>
</trkpt>
<trkpt lat="40.072842" lon="-105.230575">
  <ele>1586.16</ele>
  <time>2026-08-27T18:31:26Z</time>
  <course>11.28</course>
  <speed>0.0</speed>
  <fix>3d</fix>
</trkpt>
<trkpt lat="40.072842" lon="-105.230575">
  <ele>1586.09</ele>
  <time>2026-08-27T18:31:26Z</time>
  <course>285.44</course>
  <speed>0.0</speed>
  <fix>3d</fix>
</trkpt>
<trkpt lat="40.072842" lon="-105.230575">
  <ele>1586.16</ele>
  <time>2026-08-27T18:31:26Z</time>
  <course>11.27</course>
  <speed>0.0</speed>
  <fix>3d</fix>
</trkpt>
<trkpt lat="40.072842" lon="-105.230575">
  <ele>1586.09</ele>
  <time>2026-08-27T18:31:26Z</time>
  <course>285.38</course>
  <speed>0.0</speed>
  <fix>3d</fix>
</trkpt>
<trkpt lat="40.072842" lon="-105.230575">
  <ele>1586.16</ele>
  <time>2026-08-27T18:31:26Z</time>
  <course>11.25</course>
  <speed>0.0</speed>
  <fix>3d</fix>
</trkpt>
<trkpt lat="40.072842" lon="-105.230575">
  <ele>1586.09</ele>
  <time>2026-08-27T18:31:26Z</time>
  <course>285.26</course>
  <speed>0.0</speed>
  <fix>3d</fix>
</trkpt>
<trkpt lat="40.072842" lon="-105.230575">
  <ele>1586.16</ele>
  <time>2026-08-27T18:31:26Z</time>
  <course>11.23</course>
  <speed>0.0</speed>
  <fix>3d</fix>
</trkpt>
<trkpt lat="40.072842" lon="-105.230575">
  <ele>1586.09</ele>
  <time>2026-08-27T18:31:26Z</time>
  <course>273.53</course>
  <speed>0.0</speed>
  <fix>3d</fix>
</trkpt>
<trkpt lat="40.072842" lon="-105.230575">
  <ele>1586.16</ele>
  <time>2026-08-27T18:31:26Z</time>
  <course>11.21</course>
  <speed>0.0</speed>
  <fix>3d</fix>
</trkpt>
<trkpt lat="40.072842" lon="-105.230575">
  <ele>1586.09</ele>
  <time>2026-08-27T18:31:26Z</time>
  <course>272.53</course>
  <speed>0.0</speed>
  <fix>3d</fix>
</trkpt>
<trkpt lat="40.072842" lon="-105.230575">
  <ele>1586.16</ele>
  <time>2026-08-27T18:31:26Z</time>
  <course>11.19</course>
  <speed>0.0</speed>
  <fix>3d</fix>
</trkpt>
<trkpt lat="40.072842" lon="-105.230575">
  <ele>1586.09</ele>
  <time>2026-08-27T18:31:26Z</time>
  <course>278.8</course>
  <speed>0.0</speed>
  <fix>3d</fix>
</trkpt>
<trkpt lat="40.072842" lon="-105.230575">
  <ele>1586.16</ele>
  <time>2026-08-27T18:31:26Z</time>
  <course>11.17</course>
  <speed>0.0</speed>
  <fix>3d</fix>
</trkpt>
<trkpt lat="40.072842" lon="-105.230575">
  <ele>1586.09</ele>
  <time>2026-08-27T18:31:26Z</time>
  <course>269.49</course>
  <speed>0.0</speed>
  <fix>3d</fix>
</trkpt>
<trkpt lat="40.072842" lon="-105.230575">
  <ele>1586.17</ele>
  <time>2026-08-27T18:31:26Z</time>
  <course>11.14</course>
  <speed>0.0</speed>
  <fix>3d</fix>
</trkpt>
<trkpt lat="40.072842" lon="-105.230575">
  <ele>1586.09</ele>
  <time>2026-08-27T18:31:26Z</time>
  <course>253.9</course>
  <speed>0.0</speed>
  <fix>3d</fix>
</trkpt>
<trkpt lat="40.072842" lon="-105.230575">
  <ele>1586.17</ele>
  <time>2026-08-27T18:31:26Z</time>
  <course>11.11</course>
  <speed>0.0</speed>
  <fix>3d</fix>
</trkpt>
<trkpt lat="40.072842" lon="-105.230575">
  <ele>1586.09</ele>
  <time>2026-08-27T18:31:26Z</time>
  <course>273.3</course>
  <speed>0.0</speed>
  <fix>3d</fix>
</trkpt>
<trkpt lat="40.072842" lon="-105.230575">
  <ele>1586.17</ele>
  <time>2026-08-27T18:31:26Z</time>
  <course>11.09</course>
  <speed>0.01</speed>
  <fix>3d</fix>
</trkpt>
<trkpt lat="40.072842" lon="-105.230575">
  <ele>1586.09</ele>
  <time>2026-08-27T18:31:26Z</time>
  <course>272.32</course>
  <speed>0.0</speed>
  <fix>3d</fix>
</trkpt>
<trkpt lat="40.072842" lon="-105.230575">
  <ele>1586.17</ele>
  <time>2026-08-27T18:31:26Z</time>
  <course>11.06</course>
  <speed>0.01</speed>
  <fix>3d</fix>
</trkpt>
<trkpt lat="40.072842" lon="-105.230575">
  <ele>1586.09</ele>
  <time>2026-08-27T18:31:26Z</time>
  <course>270.92</course>
  <speed>0.0</speed>
  <fix>3d</fix>
</trkpt>
<trkpt lat="40.072842" lon="-105.230575">
  <ele>1586.18</ele>
  <time>2026-08-27T18:31:26Z</time>
  <course>11.03</course>
  <speed>0.01</speed>
  <fix>3d</fix>
</trkpt>
<trkpt lat="40.072842" lon="-105.230575">
  <ele>1586.09</ele>
  <time>2026-08-27T18:31:26Z</time>
  <course>270.25</course>
  <speed>0.0</speed>
  <fix>3d</fix>
</trkpt>
<trkpt lat="40.072842" lon="-105.230575">
  <ele>1586.18</ele>
  <time>2026-08-27T18:31:26Z</time>
  <course>11.0</course>
  <speed>0.01</speed>
  <fix>3d</fix>
</trkpt>
<trkpt lat="40.072842" lon="-105.230575">
  <ele>1586.09</ele>
  <time>2026-08-27T18:31:26Z</time>
  <course>270.24</course>
  <speed>0.0</speed>
  <fix>3d</fix>
</trkpt>
<trkpt lat="40.072842" lon="-105.230575">
  <ele>1586.18</ele>
  <time>2026-08-27T18:31:26Z</time>
  <course>10.97</course>
  <speed>0.01</speed>
  <fix>3d</fix>
</trkpt>
<trkpt lat="40.072842" lon="-105.230575">
  <ele>1586.09</ele>
  <time>2026-08-27T18:31:26Z</time>
  <course>270.82</course>
  <speed>0.0</speed>
  <fix>3d</fix>
</trkpt>
<trkpt lat="40.072842" lon="-105.230575">
  <ele>1586.18</ele>
  <time>2026-08-27T18:31:27Z</time>
  <course>10.93</course>
  <speed>0.01414213562373095</speed>
  <fix>3d</fix>
</trkpt>
<trkpt lat="40.072842" lon="-105.230575">
  <ele>1586.09</ele>
  <time>2026-08-27T18:31:27Z</time>
  <course>270.01</course>
  <speed>0.0</speed>
  <fix>3d</fix>
</trkpt>
<trkpt lat="40.072842" lon="-105.230575">
  <ele>1586.18</ele>
  <time>2026-08-27T18:31:27Z</time>
  <course>10.9</course>
  <speed>0.01414213562373095</speed>
  <fix>3d</fix>
</trkpt>
<trkpt lat="40.072842" lon="-105.230575">
  <ele>1586.09</ele>
  <time>2026-08-27T18:31:27Z</time>
  <course>269.9</course>
  <speed>0.0</speed>
  <fix>3d</fix>
</trkpt>
<trkpt lat="40.072842" lon="-105.230575">
  <ele>1586.18</ele>
  <time>2026-08-27T18:31:27Z</time>
  <course>10.86</course>
  <speed>0.01414213562373095</speed>
  <fix>3d</fix>
</trkpt>
<trkpt lat="40.072842" lon="-105.230575">
  <ele>1586.09</ele>
  <time>2026-08-27T18:31:27Z</time>
  <course>270.21</course>
  <speed>0.0</speed>
  <fix>3d</fix>
</trkpt>
<trkpt lat="40.072842" lon="-105.230575">
  <ele>1586.18</ele>
  <time>2026-08-27T18:31:27Z</time>
  <course>10.83</course>
  <speed>0.01414213562373095</speed>
  <fix>3d</fix>
</trkpt>
<trkpt lat="40.072842" lon="-105.230575">
  <ele>1586.09</ele>
  <time>2026-08-27T18:31:27Z</time>
  <course>269.76</course>
  <speed>0.0</speed>
  <fix>3d</fix>
</trkpt>
<trkpt lat="40.072842" lon="-105.230575">
  <ele>1586.18</ele>
  <time>2026-08-27T18:31:27Z</time>
  <course>10.79</course>
  <speed>0.01414213562373095</speed>
  <fix>3d</fix>
</trkpt>
<trkpt lat="40.072842" lon="-105.230575">
  <ele>1586.09</ele>
  <time>2026-08-27T18:31:27Z</time>
  <course>269.67</course>
  <speed>0.0</speed>
  <fix>3d</fix>
</trkpt>
<trkpt lat="40.072842" lon="-105.230575">
  <ele>1586.18</ele>
  <time>2026-08-27T18:31:27Z</time>
  <course>10.75</course>
  <speed>0.01414213562373095</speed>
  <fix>3d</fix>
</trkpt>
<trkpt lat="40.072842" lon="-105.230575">
  <ele>1586.09</ele>
  <time>2026-08-27T18:31:27Z</time>
  <course>269.69</course>
  <speed>0.0</speed>
  <fix>3d</fix>
</trkpt>
<trkpt lat="40.0728419" lon="-105.230575">
  <ele>1586.17</ele>
  <time>2026-08-27T18:31:27Z</time>
  <course>10.71</course>
  <speed>0.01414213562373095</speed>
  <fix>3d</fix>
</trkpt>
<trkpt lat="40.072842" lon="-105.230575">
  <ele>1586.09</ele>
  <time>2026-08-27T18:31:27Z</time>
  <course>269.51</course>
  <speed>0.0</speed>
  <fix>3d</fix>
</trkpt>
<trkpt lat="40.0728419" lon="-105.230575">
  <ele>1586.17</ele>
  <time>2026-08-27T18:31:27Z</time>
  <course>10.67</course>
  <speed>0.022360679774997897</speed>
  <fix>3d</fix>
</trkpt>
<trkpt lat="40.072842" lon="-105.230575">
  <ele>1586.09</ele>
  <time>2026-08-27T18:31:27Z</time>
  <course>269.45</course>
  <speed>0.0</speed>
  <fix>3d</fix>
</trkpt>
<trkpt lat="40.0728419" lon="-105.2305749">
  <ele>1586.17</ele>
  <time>2026-08-27T18:31:27Z</time>
  <course>10.63</course>
  <speed>0.022360679774997897</speed>
  <fix>3d</fix>
</trkpt>
<trkpt lat="40.072842" lon="-105.230575">
  <ele>1586.09</ele>
  <time>2026-08-27T18:31:27Z</time>
  <course>269.33</course>
  <speed>0.0</speed>
  <fix>3d</fix>
</trkpt>
<trkpt lat="40.0728419" lon="-105.2305749">
  <ele>1586.17</ele>
  <time>2026-08-27T18:31:27Z</time>
  <course>10.58</course>
  <speed>0.022360679774997897</speed>
  <fix>3d</fix>
</trkpt>
<trkpt lat="40.072842" lon="-105.230575">
  <ele>1586.09</ele>
  <time>2026-08-27T18:31:27Z</time>
  <course>270.94</course>
  <speed>0.0</speed>
  <fix>3d</fix>
</trkpt>
<trkpt lat="40.0728419" lon="-105.2305749">
  <ele>1586.17</ele>
  <time>2026-08-27T18:31:27Z</time>
  <course>10.54</course>
  <speed>0.022360679774997897</speed>
  <fix>3d</fix>
</trkpt>
<trkpt lat="40.072842" lon="-105.230575">
  <ele>1586.09</ele>
  <time>2026-08-27T18:31:27Z</time>
  <course>273.01</course>
  <speed>0.0</speed>
  <fix>3d</fix>
</trkpt>
<trkpt lat="40.0728419" lon="-105.2305749">
  <ele>1586.17</ele>
  <time>2026-08-27T18:31:27Z</time>
  <course>10.49</course>
  <speed>0.022360679774997897</speed>
  <fix>3d</fix>
</trkpt>
<trkpt lat="40.072842" lon="-105.230575">
  <ele>1586.09</ele>
  <time>2026-08-27T18:31:27Z</time>
  <course>269.37</course>
  <speed>0.0</speed>
  <fix>3d</fix>
</trkpt>
<trkpt lat="40.0728419" lon="-105.2305749">
  <ele>1586.17</ele>
  <time>2026-08-27T18:31:27Z</time>
  <course>10.45</course>
  <speed>0.022360679774997897</speed>
  <fix>3d</fix>
</trkpt>
<trkpt lat="40.072842" lon="-105.230575">
  <ele>1586.09</ele>
  <time>2026-08-27T18:31:27Z</time>
  <course>263.49</course>
  <speed>0.0</speed>
  <fix>3d</fix>
</trkpt>
<trkpt lat="40.0728419" lon="-105.2305749">
  <ele>1586.18</ele>
  <time>2026-08-27T18:31:27Z</time>
  <course>10.4</course>
  <speed>0.022360679774997897</speed>
  <fix>3d</fix>
</trkpt>
<trkpt lat="40.072842" lon="-105.230575">
  <ele>1586.09</ele>
  <time>2026-08-27T18:31:27Z</time>
  <course>263.77</course>
  <speed>0.0</speed>
  <fix>3d</fix>
</trkpt>
<trkpt lat="40.0728419" lon="-105.2305749">
  <ele>1586.18</ele>
  <time>2026-08-27T18:31:27Z</time>
  <course>10.35</course>
  <speed>0.022360679774997897</speed>
  <fix>3d</fix>
</trkpt>
<trkpt lat="40.072842" lon="-105.230575">
  <ele>1586.09</ele>
  <time>2026-08-27T18:31:27Z</time>
  <course>267.38</course>
  <speed>0.0</speed>
  <fix>3d</fix>
</trkpt>
<trkpt lat="40.0728419" lon="-105.2305749">
  <ele>1586.18</ele>
  <time>2026-08-27T18:31:27Z</time>
  <course>10.3</course>
  <speed>0.022360679774997897</speed>
  <fix>3d</fix>
</trkpt>
<trkpt lat="40.072842" lon="-105.230575">
  <ele>1586.09</ele>
  <time>2026-08-27T18:31:27Z</time>
  <course>269.89</course>
  <speed>0.0</speed>
  <fix>3d</fix>
</trkpt>
<trkpt lat="40.0728419" lon="-105.2305749">
  <ele>1586.18</ele>
  <time>2026-08-27T18:31:27Z</time>
  <course>10.25</course>
  <speed>0.022360679774997897</speed>
  <fix>3d</fix>
</trkpt>
<trkpt lat="40.072842" lon="-105.230575">
  <ele>1586.09</ele>
  <time>2026-08-27T18:31:27Z</time>
  <course>268.7</course>
  <speed>0.0</speed>
  <fix>3d</fix>
</trkpt>
<trkpt lat="40.0728419" lon="-105.2305749">
  <ele>1586.18</ele>
  <time>2026-08-27T18:31:27Z</time>
  <course>10.2</course>
  <speed>0.022360679774997897</speed>
  <fix>3d</fix>
</trkpt>
<trkpt lat="40.072842" lon="-105.230575">
  <ele>1586.09</ele>
  <time>2026-08-27T18:31:27Z</time>
  <course>268.44</course>
  <speed>0.0</speed>
  <fix>3d</fix>
</trkpt>
<trkpt lat="40.0728419" lon="-105.2305749">
  <ele>1586.18</ele>
  <time>2026-08-27T18:31:27Z</time>
  <course>10.15</course>
  <speed>0.022360679774997897</speed>
  <fix>3d</fix>
</trkpt>
<trkpt lat="40.072842" lon="-105.230575">
  <ele>1586.09</ele>
  <time>2026-08-27T18:31:27Z</time>
  <course>268.56</course>
  <speed>0.0</speed>
  <fix>3d</fix>
</trkpt>
<trkpt lat="40.0728419" lon="-105.2305749">
  <ele>1586.18</ele>
  <time>2026-08-27T18:31:27Z</time>
  <course>10.1</course>
  <speed>0.022360679774997897</speed>
  <fix>3d</fix>
</trkpt>
<trkpt lat="40.072842" lon="-105.230575">
  <ele>1586.09</ele>
  <time>2026-08-27T18:31:27Z</time>
  <course>268.46</course>
  <speed>0.0</speed>
  <fix>3d</fix>
</trkpt>
<trkpt lat="40.0728419" lon="-105.2305749">
  <ele>1586.18</ele>
  <time>2026-08-27T18:31:27Z</time>
  <course>10.05</course>
  <speed>0.022360679774997897</speed>
  <fix>3d</fix>
</trkpt>
<trkpt lat="40.072842" lon="-105.230575">
  <ele>1586.09</ele>
  <time>2026-08-27T18:31:27Z</time>
  <course>268.27</course>
  <speed>0.0</speed>
  <fix>3d</fix>
</trkpt>
<trkpt lat="40.0728419" lon="-105.2305749">
  <ele>1586.18</ele>
  <time>2026-08-27T18:31:27Z</time>
  <course>10.0</course>
  <speed>0.022360679774997897</speed>
  <fix>3d</fix>
</trkpt>
<trkpt lat="40.072842" lon="-105.230575">
  <ele>1586.09</ele>
  <time>2026-08-27T18:31:27Z</time>
  <course>268.17</course>
  <speed>0.0</speed>
  <fix>3d</fix>
</trkpt>
<trkpt lat="40.0728419" lon="-105.2305749">
  <ele>1586.18</ele>
  <time>2026-08-27T18:31:27Z</time>
  <course>9.95</course>
  <speed>0.022360679774997897</speed>
  <fix>3d</fix>
</trkpt>
<trkpt lat="40.072842" lon="-105.230575">
  <ele>1586.09</ele>
  <time>2026-08-27T18:31:27Z</time>
  <course>268.14</course>
  <speed>0.0</speed>
  <fix>3d</fix>
</trkpt>
<trkpt lat="40.0728419" lon="-105.2305749">
  <ele>1586.18</ele>
  <time>2026-08-27T18:31:27Z</time>
  <course>9.9</course>
  <speed>0.022360679774997897</speed>
  <fix>3d</fix>
</trkpt>
<trkpt lat="40.072842" lon="-105.230575">
  <ele>1586.09</ele>
  <time>2026-08-27T18:31:27Z</time>
  <course>268.06</course>
  <speed>0.0</speed>
  <fix>3d</fix>
</trkpt>
<trkpt lat="40.0728419" lon="-105.2305749">
  <ele>1586.18</ele>
  <time>2026-08-27T18:31:27Z</time>
  <course>9.85</course>
  <speed>0.022360679774997897</speed>
  <fix>3d</fix>
</trkpt>
<trkpt lat="40.072842" lon="-105.230575">
  <ele>1586.09</ele>
  <time>2026-08-27T18:31:27Z</time>
  <course>267.99</course>
  <speed>0.0</speed>
  <fix>3d</fix>
</trkpt>
<trkpt lat="40.0728419" lon="-105.2305749">
  <ele>1586.18</ele>
  <time>2026-08-27T18:31:27Z</time>
  <course>9.8</course>
  <speed>0.022360679774997897</speed>
  <fix>3d</fix>
</trkpt>
<trkpt lat="40.072842" lon="-105.230575">
  <ele>1586.09</ele>
  <time>2026-08-27T18:31:27Z</time>
  <course>267.93</course>
  <speed>0.0</speed>
  <fix>3d</fix>
</trkpt>
<trkpt lat="40.0728419" lon="-105.2305749">
  <ele>1586.18</ele>
  <time>2026-08-27T18:31:27Z</time>
  <course>9.76</course>
  <speed>0.022360679774997897</speed>
  <fix>3d</fix>
</trkpt>
<trkpt lat="40.072842" lon="-105.230575">
  <ele>1586.09</ele>
  <time>2026-08-27T18:31:27Z</time>
  <course>267.82</course>
  <speed>0.0</speed>
  <fix>3d</fix>
</trkpt>
<trkpt lat="40.0728419" lon="-105.2305749">
  <ele>1586.18</ele>
  <time>2026-08-27T18:31:27Z</time>
  <course>9.71</course>
  <speed>0.022360679774997897</speed>
  <fix>3d</fix>
</trkpt>
<trkpt lat="40.072842" lon="-105.230575">
  <ele>1586.09</ele>
  <time>2026-08-27T18:31:27Z</time>
  <course>267.79</course>
  <speed>0.0</speed>
  <fix>3d</fix>
</trkpt>
<trkpt lat="40.0728419" lon="-105.2305749">
  <ele>1586.18</ele>
  <time>2026-08-27T18:31:27Z</time>
  <course>9.66</course>
  <speed>0.022360679774997897</speed>
  <fix>3d</fix>
</trkpt>
<trkpt lat="40.072842" lon="-105.230575">
  <ele>1586.09</ele>
  <time>2026-08-27T18:31:27Z</time>
  <course>267.71</course>
  <speed>0.0</speed>
  <fix>3d</fix>
</trkpt>
<trkpt lat="40.0728419" lon="-105.2305749">
  <ele>1586.18</ele>
  <time>2026-08-27T18:31:27Z</time>
  <course>9.62</course>
  <speed>0.022360679774997897</speed>
  <fix>3d</fix>
</trkpt>
<trkpt lat="40.072842" lon="-105.230575">
  <ele>1586.09</ele>
  <time>2026-08-27T18:31:27Z</time>
  <course>267.66</course>
  <speed>0.0</speed>
  <fix>3d</fix>
</trkpt>
<trkpt lat="40.0728419" lon="-105.2305749">
  <ele>1586.18</ele>
  <time>2026-08-27T18:31:27Z</time>
  <course>9.57</course>
  <speed>0.022360679774997897</speed>
  <fix>3d</fix>
</trkpt>
<trkpt lat="40.072842" lon="-105.230575">
  <ele>1586.09</ele>
  <time>2026-08-27T18:31:27Z</time>
  <course>267.53</course>
  <speed>0.0</speed>
  <fix>3d</fix>
</trkpt>
<trkpt lat="40.0728419" lon="-105.2305749">
  <ele>1586.18</ele>
  <time>2026-08-27T18:31:27Z</time>
  <course>9.53</course>
  <speed>0.022360679774997897</speed>
  <fix>3d</fix>
</trkpt>
<trkpt lat="40.072842" lon="-105.230575">
  <ele>1586.09</ele>
  <time>2026-08-27T18:31:27Z</time>
  <course>267.5</course>
  <speed>0.0</speed>
  <fix>3d</fix>
</trkpt>
<trkpt lat="40.0728419" lon="-105.2305749">
  <ele>1586.18</ele>
  <time>2026-08-27T18:31:27Z</time>
  <course>9.49</course>
  <speed>0.022360679774997897</speed>
  <fix>3d</fix>
</trkpt>
<trkpt lat="40.072842" lon="-105.230575">
  <ele>1586.09</ele>
  <time>2026-08-27T18:31:27Z</time>
  <course>267.28</course>
  <speed>0.0</speed>
  <fix>3d</fix>
</trkpt>
<trkpt lat="40.0728419" lon="-105.2305749">
  <ele>1586.18</ele>
  <time>2026-08-27T18:31:27Z</time>
  <course>9.44</course>
  <speed>0.022360679774997897</speed>
  <fix>3d</fix>
</trkpt>
<trkpt lat="40.072842" lon="-105.230575">
  <ele>1586.09</ele>
  <time>2026-08-27T18:31:27Z</time>
  <course>267.31</course>
  <speed>0.0</speed>
  <fix>3d</fix>
</trkpt>
<trkpt lat="40.0728419" lon="-105.2305749">
  <ele>1586.18</ele>
  <time>2026-08-27T18:31:27Z</time>
  <course>9.4</course>
  <speed>0.022360679774997897</speed>
  <fix>3d</fix>
</trkpt>
<trkpt lat="40.072842" lon="-105.230575">
  <ele>1586.09</ele>
  <time>2026-08-27T18:31:27Z</time>
  <course>267.32</course>
  <speed>0.0</speed>
  <fix>3d</fix>
</trkpt>
<trkpt lat="40.0728419" lon="-105.2305749">
  <ele>1586.17</ele>
  <time>2026-08-27T18:31:27Z</time>
  <course>9.36</course>
  <speed>0.022360679774997897</speed>
  <fix>3d</fix>
</trkpt>
<trkpt lat="40.072842" lon="-105.230575">
  <ele>1586.09</ele>
  <time>2026-08-27T18:31:27Z</time>
  <course>262.96</course>
  <speed>0.0</speed>
  <fix>3d</fix>
</trkpt>
<trkpt lat="40.0728419" lon="-105.2305749">
  <ele>1586.17</ele>
  <time>2026-08-27T18:31:27Z</time>
  <course>9.32</course>
  <speed>0.022360679774997897</speed>
  <fix>3d</fix>
</trkpt>
<trkpt lat="40.072842" lon="-105.230575">
  <ele>1586.09</ele>
  <time>2026-08-27T18:31:27Z</time>
  <course>266.71</course>
  <speed>0.0</speed>
  <fix>3d</fix>
</trkpt>
<trkpt lat="40.0728419" lon="-105.2305749">
  <ele>1586.17</ele>
  <time>2026-08-27T18:31:27Z</time>
  <course>9.27</course>
  <speed>0.022360679774997897</speed>
  <fix>3d</fix>
</trkpt>
<trkpt lat="40.072842" lon="-105.230575">
  <ele>1586.09</ele>
  <time>2026-08-27T18:31:27Z</time>
  <course>271.7</course>
  <speed>0.0</speed>
  <fix>3d</fix>
</trkpt>
<trkpt lat="40.0728419" lon="-105.2305749">
  <ele>1586.17</ele>
  <time>2026-08-27T18:31:27Z</time>
  <course>9.23</course>
  <speed>0.022360679774997897</speed>
  <fix>3d</fix>
</trkpt>
<trkpt lat="40.072842" lon="-105.230575">
  <ele>1586.09</ele>
  <time>2026-08-27T18:31:27Z</time>
  <course>267.17</course>
  <speed>0.0</speed>
  <fix>3d</fix>
</trkpt>
<trkpt lat="40.0728419" lon="-105.2305749">
  <ele>1586.17</ele>
  <time>2026-08-27T18:31:27Z</time>
  <course>9.19</course>
  <speed>0.022360679774997897</speed>
  <fix>3d</fix>
</trkpt>
<trkpt lat="40.072842" lon="-105.230575">
  <ele>1586.09</ele>
  <time>2026-08-27T18:31:27Z</time>
  <course>266.47</course>
  <speed>0.0</speed>
  <fix>3d</fix>
</trkpt>
<trkpt lat="40.0728419" lon="-105.2305749">
  <ele>1586.18</ele>
  <time>2026-08-27T18:31:27Z</time>
  <course>9.15</course>
  <speed>0.022360679774997897</speed>
  <fix>3d</fix>
</trkpt>
<trkpt lat="40.072842" lon="-105.230575">
  <ele>1586.09</ele>
  <time>2026-08-27T18:31:27Z</time>
  <course>267.2</course>
  <speed>0.0</speed>
  <fix>3d</fix>
</trkpt>
<trkpt lat="40.0728419" lon="-105.2305749">
  <ele>1586.18</ele>
  <time>2026-08-27T18:31:27Z</time>
  <course>9.11</course>
  <speed>0.022360679774997897</speed>
  <fix>3d</fix>
</trkpt>
<trkpt lat="40.072842" lon="-105.230575">
  <ele>1586.09</ele>
  <time>2026-08-27T18:31:27Z</time>
  <course>267.24</course>
  <speed>0.0</speed>
  <fix>3d</fix>
</trkpt>
<trkpt lat="40.0728419" lon="-105.2305749">
  <ele>1586.18</ele>
  <time>2026-08-27T18:31:27Z</time>
  <course>9.07</course>
  <speed>0.022360679774997897</speed>
  <fix>3d</fix>
</trkpt>
<trkpt lat="40.072842" lon="-105.230575">
  <ele>1586.09</ele>
  <time>2026-08-27T18:31:27Z</time>
  <course>267.03</course>
  <speed>0.0</speed>
  <fix>3d</fix>
</trkpt>
<trkpt lat="40.0728419" lon="-105.2305749">
  <ele>1586.18</ele>
  <time>2026-08-27T18:31:27Z</time>
  <course>9.04</course>
  <speed>0.022360679774997897</speed>
  <fix>3d</fix>
</trkpt>
<trkpt lat="40.072842" lon="-105.230575">
  <ele>1586.09</ele>
  <time>2026-08-27T18:31:27Z</time>
  <course>267.18</course>
  <speed>0.0</speed>
  <fix>3d</fix>
</trkpt>
<trkpt lat="40.0728419" lon="-105.2305749">
  <ele>1586.18</ele>
  <time>2026-08-27T18:31:27Z</time>
  <course>9.0</course>
  <speed>0.022360679774997897</speed>
  <fix>3d</fix>
</trkpt>
<trkpt lat="40.072842" lon="-105.230575">
  <ele>1586.09</ele>
  <time>2026-08-27T18:31:27Z</time>
  <course>266.67</course>
  <speed>0.0</speed>
  <fix>3d</fix>
</trkpt>
<trkpt lat="40.0728419" lon="-105.2305749">
  <ele>1586.18</ele>
  <time>2026-08-27T18:31:27Z</time>
  <course>8.96</course>
  <speed>0.022360679774997897</speed>
  <fix>3d</fix>
</trkpt>
<trkpt lat="40.072842" lon="-105.230575">
  <ele>1586.09</ele>
  <time>2026-08-27T18:31:27Z</time>
  <course>266.94</course>
  <speed>0.0</speed>
  <fix>3d</fix>
</trkpt>
<trkpt lat="40.0728419" lon="-105.2305749">
  <ele>1586.18</ele>
  <time>2026-08-27T18:31:27Z</time>
  <course>8.92</course>
  <speed>0.022360679774997897</speed>
  <fix>3d</fix>
</trkpt>
<trkpt lat="40.072842" lon="-105.230575">
  <ele>1586.09</ele>
  <time>2026-08-27T18:31:27Z</time>
  <course>267.0</course>
  <speed>0.0</speed>
  <fix>3d</fix>
</trkpt>
<trkpt lat="40.0728419" lon="-105.2305749">
  <ele>1586.19</ele>
  <time>2026-08-27T18:31:27Z</time>
  <course>8.89</course>
  <speed>0.022360679774997897</speed>
  <fix>3d</fix>
</trkpt>
<trkpt lat="40.072842" lon="-105.230575">
  <ele>1586.09</ele>
  <time>2026-08-27T18:31:27Z</time>
  <course>266.22</course>
  <speed>0.0</speed>
  <fix>3d</fix>
</trkpt>
<trkpt lat="40.0728419" lon="-105.2305749">
  <ele>1586.19</ele>
  <time>2026-08-27T18:31:27Z</time>
  <course>8.85</course>
  <speed>0.022360679774997897</speed>
  <fix>3d</fix>
</trkpt>
<trkpt lat="40.072842" lon="-105.230575">
  <ele>1586.09</ele>
  <time>2026-08-27T18:31:27Z</time>
  <course>266.87</course>
  <speed>0.0</speed>
  <fix>3d</fix>
</trkpt>
<trkpt lat="40.0728419" lon="-105.2305749">
  <ele>1586.19</ele>
  <time>2026-08-27T18:31:27Z</time>
  <course>8.81</course>
  <speed>0.022360679774997897</speed>
  <fix>3d</fix>
</trkpt>
<trkpt lat="40.072842" lon="-105.230575">
  <ele>1586.09</ele>
  <time>2026-08-27T18:31:27Z</time>
  <course>266.81</course>
  <speed>0.0</speed>
  <fix>3d</fix>
</trkpt>
<trkpt lat="40.0728419" lon="-105.2305749">
  <ele>1586.19</ele>
  <time>2026-08-27T18:31:27Z</time>
  <course>8.78</course>
  <speed>0.022360679774997897</speed>
  <fix>3d</fix>
</trkpt>
<trkpt lat="40.072842" lon="-105.230575">
  <ele>1586.09</ele>
  <time>2026-08-27T18:31:27Z</time>
  <course>266.78</course>
  <speed>0.0</speed>
  <fix>3d</fix>
</trkpt>
<trkpt lat="40.0728419" lon="-105.2305749">
  <ele>1586.19</ele>
  <time>2026-08-27T18:31:27Z</time>
  <course>8.74</course>
  <speed>0.022360679774997897</speed>
  <fix>3d</fix>
</trkpt>
<trkpt lat="40.072842" lon="-105.230575">
  <ele>1586.09</ele>
  <time>2026-08-27T18:31:27Z</time>
  <course>266.95</course>
  <speed>0.0</speed>
  <fix>3d</fix>
</trkpt>
<trkpt lat="40.0728419" lon="-105.2305749">
  <ele>1586.19</ele>
  <time>2026-08-27T18:31:27Z</time>
  <course>8.71</course>
  <speed>0.022360679774997897</speed>
  <fix>3d</fix>
</trkpt>
<trkpt lat="40.072842" lon="-105.230575">
  <ele>1586.09</ele>
  <time>2026-08-27T18:31:27Z</time>
  <course>266.4</course>
  <speed>0.0</speed>
  <fix>3d</fix>
</trkpt>
<trkpt lat="40.0728419" lon="-105.2305749">
  <ele>1586.18</ele>
  <time>2026-08-27T18:31:27Z</time>
  <course>8.67</course>
  <speed>0.01414213562373095</speed>
  <fix>3d</fix>
</trkpt>
<trkpt lat="40.072842" lon="-105.230575">
  <ele>1586.09</ele>
  <time>2026-08-27T18:31:27Z</time>
  <course>266.74</course>
  <speed>0.0</speed>
  <fix>3d</fix>
</trkpt>
<trkpt lat="40.0728419" lon="-105.2305749">
  <ele>1586.18</ele>
  <time>2026-08-27T18:31:27Z</time>
  <course>8.64</course>
  <speed>0.01414213562373095</speed>
  <fix>3d</fix>
</trkpt>
<trkpt lat="40.072842" lon="-105.230575">
  <ele>1586.09</ele>
  <time>2026-08-27T18:31:27Z</time>
  <course>266.85</course>
  <speed>0.0</speed>
  <fix>3d</fix>
</trkpt>
<trkpt lat="40.0728419" lon="-105.2305749">
  <ele>1586.18</ele>
  <time>2026-08-27T18:31:27Z</time>
  <course>8.61</course>
  <speed>0.01414213562373095</speed>
  <fix>3d</fix>
</trkpt>
<trkpt lat="40.072842" lon="-105.230575">
  <ele>1586.09</ele>
  <time>2026-08-27T18:31:27Z</time>
  <course>266.05</course>
  <speed>0.0</speed>
  <fix>3d</fix>
</trkpt>
<trkpt lat="40.0728419" lon="-105.2305749">
  <ele>1586.18</ele>
  <time>2026-08-27T18:31:27Z</time>
  <course>8.57</course>
  <speed>0.01414213562373095</speed>
  <fix>3d</fix>
</trkpt>
<trkpt lat="40.072842" lon="-105.230575">
  <ele>1586.09</ele>
  <time>2026-08-27T18:31:27Z</time>
  <course>266.66</course>
  <speed>0.0</speed>
  <fix>3d</fix>
</trkpt>
<trkpt lat="40.0728419" lon="-105.2305749">
  <ele>1586.18</ele>
  <time>2026-08-27T18:31:27Z</time>
  <course>8.54</course>
  <speed>0.01414213562373095</speed>
  <fix>3d</fix>
</trkpt>
<trkpt lat="40.072842" lon="-105.230575">
  <ele>1586.09</ele>
  <time>2026-08-27T18:31:27Z</time>
  <course>266.73</course>
  <speed>0.0</speed>
  <fix>3d</fix>
</trkpt>
<trkpt lat="40.0728419" lon="-105.2305749">
  <ele>1586.18</ele>
  <time>2026-08-27T18:31:27Z</time>
  <course>8.51</course>
  <speed>0.01414213562373095</speed>
  <fix>3d</fix>
</trkpt>
<trkpt lat="40.072842" lon="-105.230575">
  <ele>1586.09</ele>
  <time>2026-08-27T18:31:27Z</time>
  <course>265.87</course>
  <speed>0.0</speed>
  <fix>3d</fix>
</trkpt>
<trkpt lat="40.0728419" lon="-105.2305749">
  <ele>1586.18</ele>
  <time>2026-08-27T18:31:27Z</time>
  <course>8.48</course>
  <speed>0.01414213562373095</speed>
  <fix>3d</fix>
</trkpt>
<trkpt lat="40.072842" lon="-105.230575">
  <ele>1586.09</ele>
  <time>2026-08-27T18:31:27Z</time>
  <course>266.61</course>
  <speed>0.0</speed>
  <fix>3d</fix>
</trkpt>
<trkpt lat="40.0728419" lon="-105.2305749">
  <ele>1586.18</ele>
  <time>2026-08-27T18:31:27Z</time>
  <course>8.44</course>
  <speed>0.01414213562373095</speed>
  <fix>3d</fix>
</trkpt>
<trkpt lat="40.072842" lon="-105.230575">
  <ele>1586.09</ele>
  <time>2026-08-27T18:31:27Z</time>
  <course>266.72</course>
  <speed>0.0</speed>
  <fix>3d</fix>
</trkpt>
<trkpt lat="40.0728419" lon="-105.2305749">
  <ele>1586.19</ele>
  <time>2026-08-27T18:31:27Z</time>
  <course>8.41</course>
  <speed>0.01414213562373095</speed>
  <fix>3d</fix>
</trkpt>
<trkpt lat="40.072842" lon="-105.230575">
  <ele>1586.09</ele>
  <time>2026-08-27T18:31:27Z</time>
  <course>266.04</course>
  <speed>0.0</speed>
  <fix>3d</fix>
</trkpt>
<trkpt lat="40.0728419" lon="-105.2305749">
  <ele>1586.19</ele>
  <time>2026-08-27T18:31:27Z</time>
  <course>8.38</course>
  <speed>0.01414213562373095</speed>
  <fix>3d</fix>
</trkpt>
<trkpt lat="40.072842" lon="-105.230575">
  <ele>1586.09</ele>
  <time>2026-08-27T18:31:27Z</time>
  <course>266.51</course>
  <speed>0.0</speed>
  <fix>3d</fix>
</trkpt>
<trkpt lat="40.0728419" lon="-105.2305749">
  <ele>1586.19</ele>
  <time>2026-08-27T18:31:27Z</time>
  <course>8.35</course>
  <speed>0.01414213562373095</speed>
  <fix>3d</fix>
</trkpt>
<trkpt lat="40.072842" lon="-105.230575">
  <ele>1586.09</ele>
  <time>2026-08-27T18:31:27Z</time>
  <course>266.65</course>
  <speed>0.0</speed>
  <fix>3d</fix>
</trkpt>
<trkpt lat="40.0728419" lon="-105.2305749">
  <ele>1586.19</ele>
  <time>2026-08-27T18:31:27Z</time>
  <course>8.32</course>
  <speed>0.01414213562373095</speed>
  <fix>3d</fix>
</trkpt>
<trkpt lat="40.072842" lon="-105.230575">
  <ele>1586.09</ele>
  <time>2026-08-27T18:31:27Z</time>
  <course>266.09</course>
  <speed>0.0</speed>
  <fix>3d</fix>
</trkpt>
<trkpt lat="40.0728419" lon="-105.2305749">
  <ele>1586.19</ele>
  <time>2026-08-27T18:31:27Z</time>
  <course>8.29</course>
  <speed>0.01414213562373095</speed>
  <fix>3d</fix>
</trkpt>
<trkpt lat="40.072842" lon="-105.230575">
  <ele>1586.09</ele>
  <time>2026-08-27T18:31:27Z</time>
  <course>266.37</course>
  <speed>0.0</speed>
  <fix>3d</fix>
</trkpt>
<trkpt lat="40.0728419" lon="-105.2305749">
  <ele>1586.19</ele>
  <time>2026-08-27T18:31:27Z</time>
  <course>8.26</course>
  <speed>0.01414213562373095</speed>
  <fix>3d</fix>
</trkpt>
<trkpt lat="40.072842" lon="-105.230575">
  <ele>1586.09</ele>
  <time>2026-08-27T18:31:27Z</time>
  <course>266.58</course>
  <speed>0.0</speed>
  <fix>3d</fix>
</trkpt>
<trkpt lat="40.0728419" lon="-105.2305749">
  <ele>1586.19</ele>
  <time>2026-08-27T18:31:27Z</time>
  <course>8.23</course>
  <speed>0.01414213562373095</speed>
  <fix>3d</fix>
</trkpt>
<trkpt lat="40.072842" lon="-105.230575">
  <ele>1586.09</ele>
  <time>2026-08-27T18:31:27Z</time>
  <course>266.21</course>
  <speed>0.0</speed>
  <fix>3d</fix>
</trkpt>
<trkpt lat="40.0728419" lon="-105.2305749">
  <ele>1586.19</ele>
  <time>2026-08-27T18:31:27Z</time>
  <course>8.2</course>
  <speed>0.01414213562373095</speed>
  <fix>3d</fix>
</trkpt>
<trkpt lat="40.072842" lon="-105.230575">
  <ele>1586.09</ele>
  <time>2026-08-27T18:31:27Z</time>
  <course>265.63</course>
  <speed>0.0</speed>
  <fix>3d</fix>
</trkpt>
<trkpt lat="40.0728419" lon="-105.2305749">
  <ele>1586.19</ele>
  <time>2026-08-27T18:31:27Z</time>
  <course>8.18</course>
  <speed>0.01414213562373095</speed>
  <fix>3d</fix>
</trkpt>
<trkpt lat="40.072842" lon="-105.230575">
  <ele>1586.09</ele>
  <time>2026-08-27T18:31:27Z</time>
  <course>266.38</course>
  <speed>0.0</speed>
  <fix>3d</fix>
</trkpt>
<trkpt lat="40.0728419" lon="-105.2305749">
  <ele>1586.19</ele>
  <time>2026-08-27T18:31:27Z</time>
  <course>8.15</course>
  <speed>0.01414213562373095</speed>
  <fix>3d</fix>
</trkpt>
<trkpt lat="40.072842" lon="-105.230575">
  <ele>1586.09</ele>
  <time>2026-08-27T18:31:27Z</time>
  <course>266.36</course>
  <speed>0.0</speed>
  <fix>3d</fix>
</trkpt>
<trkpt lat="40.0728419" lon="-105.2305749">
  <ele>1586.19</ele>
  <time>2026-08-27T18:31:27Z</time>
  <course>8.12</course>
  <speed>0.01414213562373095</speed>
  <fix>3d</fix>
</trkpt>
<trkpt lat="40.072842" lon="-105.230575">
  <ele>1586.09</ele>
  <time>2026-08-27T18:31:27Z</time>
  <course>265.64</course>
  <speed>0.0</speed>
  <fix>3d</fix>
</trkpt>
<trkpt lat="40.0728419" lon="-105.2305749">
  <ele>1586.19</ele>
  <time>2026-08-27T18:31:27Z</time>
  <course>8.09</course>
  <speed>0.01414213562373095</speed>
  <fix>3d</fix>
</trkpt>
<trkpt lat="40.072842" lon="-105.230575">
  <ele>1586.09</ele>
  <time>2026-08-27T18:31:27Z</time>
  <course>266.23</course>
  <speed>0.0</speed>
  <fix>3d</fix>
</trkpt>
<trkpt lat="40.0728419" lon="-105.2305749">
  <ele>1586.18</ele>
  <time>2026-08-27T18:31:27Z</time>
  <course>8.07</course>
  <speed>0.01414213562373095</speed>
  <fix>3d</fix>
</trkpt>
<trkpt lat="40.072842" lon="-105.230575">
  <ele>1586.09</ele>
  <time>2026-08-27T18:31:27Z</time>
  <course>266.42</course>
  <speed>0.0</speed>
  <fix>3d</fix>
</trkpt>
<trkpt lat="40.0728419" lon="-105.2305749">
  <ele>1586.18</ele>
  <time>2026-08-27T18:31:27Z</time>
  <course>8.04</course>
  <speed>0.01414213562373095</speed>
  <fix>3d</fix>
</trkpt>
<trkpt lat="40.072842" lon="-105.230575">
  <ele>1586.09</ele>
  <time>2026-08-27T18:31:27Z</time>
  <course>266.16</course>
  <speed>0.0</speed>
  <fix>3d</fix>
</trkpt>
<trkpt lat="40.0728419" lon="-105.2305749">
  <ele>1586.18</ele>
  <time>2026-08-27T18:31:27Z</time>
  <course>8.01</course>
  <speed>0.01414213562373095</speed>
  <fix>3d</fix>
</trkpt>
<trkpt lat="40.072842" lon="-105.230575">
  <ele>1586.09</ele>
  <time>2026-08-27T18:31:27Z</time>
  <course>265.59</course>
  <speed>0.0</speed>
  <fix>3d</fix>
</trkpt>
<trkpt lat="40.0728419" lon="-105.2305749">
  <ele>1586.18</ele>
  <time>2026-08-27T18:31:27Z</time>
  <course>7.99</course>
  <speed>0.01414213562373095</speed>
  <fix>3d</fix>
</trkpt>
<trkpt lat="40.072842" lon="-105.230575">
  <ele>1586.09</ele>
  <time>2026-08-27T18:31:27Z</time>
  <course>266.31</course>
  <speed>0.0</speed>
  <fix>3d</fix>
</trkpt>
<trkpt lat="40.0728419" lon="-105.2305749">
  <ele>1586.18</ele>
  <time>2026-08-27T18:31:27Z</time>
  <course>7.96</course>
  <speed>0.01414213562373095</speed>
  <fix>3d</fix>
</trkpt>
<trkpt lat="40.072842" lon="-105.230575">
  <ele>1586.09</ele>
  <time>2026-08-27T18:31:27Z</time>
  <course>266.36</course>
  <speed>0.0</speed>
  <fix>3d</fix>
</trkpt>
<trkpt lat="40.0728419" lon="-105.2305749">
  <ele>1586.18</ele>
  <time>2026-08-27T18:31:27Z</time>
  <course>7.94</course>
  <speed>0.01414213562373095</speed>
  <fix>3d</fix>
</trkpt>
<trkpt lat="40.072842" lon="-105.230575">
  <ele>1586.09</ele>
  <time>2026-08-27T18:31:27Z</time>
  <course>265.85</course>
  <speed>0.0</speed>
  <fix>3d</fix>
</trkpt>
<trkpt lat="40.0728419" lon="-105.2305749">
  <ele>1586.18</ele>
  <time>2026-08-27T18:31:27Z</time>
  <course>7.91</course>
  <speed>0.01414213562373095</speed>
  <fix>3d</fix>
</trkpt>
<trkpt lat="40.072842" lon="-105.230575">
  <ele>1586.09</ele>
  <time>2026-08-27T18:31:27Z</time>
  <course>265.65</course>
  <speed>0.0</speed>
  <fix>3d</fix>
</trkpt>
<trkpt lat="40.0728419" lon="-105.2305749">
  <ele>1586.18</ele>
  <time>2026-08-27T18:31:27Z</time>
  <course>7.89</course>
  <speed>0.01414213562373095</speed>
  <fix>3d</fix>
</trkpt>
<trkpt lat="40.072842" lon="-105.230575">
  <ele>1586.09</ele>
  <time>2026-08-27T18:31:27Z</time>
  <course>256.81</course>
  <speed>0.0</speed>
  <fix>3d</fix>
</trkpt>
<trkpt lat="40.0728419" lon="-105.2305749">
  <ele>1586.17</ele>
  <time>2026-08-27T18:31:27Z</time>
  <course>7.86</course>
  <speed>0.01414213562373095</speed>
  <fix>3d</fix>
</trkpt>
<trkpt lat="40.072842" lon="-105.230575">
  <ele>1586.09</ele>
  <time>2026-08-27T18:31:27Z</time>
  <course>253.98</course>
  <speed>0.0</speed>
  <fix>3d</fix>
</trkpt>
<trkpt lat="40.0728419" lon="-105.2305749">
  <ele>1586.17</ele>
  <time>2026-08-27T18:31:27Z</time>
  <course>7.84</course>
  <speed>0.01414213562373095</speed>
  <fix>3d</fix>
</trkpt>
<trkpt lat="40.072842" lon="-105.230575">
  <ele>1586.09</ele>
  <time>2026-08-27T18:31:27Z</time>
  <course>264.37</course>
  <speed>0.0</speed>
  <fix>3d</fix>
</trkpt>
<trkpt lat="40.0728419" lon="-105.2305749">
  <ele>1586.17</ele>
  <time>2026-08-27T18:31:27Z</time>
  <course>7.81</course>
  <speed>0.01414213562373095</speed>
  <fix>3d</fix>
</trkpt>
<trkpt lat="40.072842" lon="-105.230575">
  <ele>1586.09</ele>
  <time>2026-08-27T18:31:27Z</time>
  <course>268.65</course>
  <speed>0.0</speed>
  <fix>3d</fix>
</trkpt>
<trkpt lat="40.0728419" lon="-105.2305749">
  <ele>1586.17</ele>
  <time>2026-08-27T18:31:27Z</time>
  <course>7.79</course>
  <speed>0.01414213562373095</speed>
  <fix>3d</fix>
</trkpt>
<trkpt lat="40.072842" lon="-105.230575">
  <ele>1586.09</ele>
  <time>2026-08-27T18:31:27Z</time>
  <course>275.56</course>
  <speed>0.0</speed>
  <fix>3d</fix>
</trkpt>
<trkpt lat="40.0728419" lon="-105.2305749">
  <ele>1586.17</ele>
  <time>2026-08-27T18:31:27Z</time>
  <course>7.77</course>
  <speed>0.01414213562373095</speed>
  <fix>3d</fix>
</trkpt>
<trkpt lat="40.072842" lon="-105.230575">
  <ele>1586.09</ele>
  <time>2026-08-27T18:31:27Z</time>
  <course>273.14</course>
  <speed>0.0</speed>
  <fix>3d</fix>
</trkpt>
<trkpt lat="40.0728419" lon="-105.2305749">
  <ele>1586.17</ele>
  <time>2026-08-27T18:31:27Z</time>
  <course>7.75</course>
  <speed>0.01414213562373095</speed>
  <fix>3d</fix>
</trkpt>
<trkpt lat="40.072842" lon="-105.230575">
  <ele>1586.09</ele>
  <time>2026-08-27T18:31:27Z</time>
  <course>265.62</course>
  <speed>0.0</speed>
  <fix>3d</fix>
</trkpt>
<trkpt lat="40.0728419" lon="-105.2305749">
  <ele>1586.17</ele>
  <time>2026-08-27T18:31:27Z</time>
  <course>7.75</course>
  <speed>0.01414213562373095</speed>
  <fix>3d</fix>
</trkpt>
<trkpt lat="40.0728419" lon="-105.2305749">
  <ele>1586.17</ele>
  <time>2026-08-27T18:31:27Z</time>
  <course>7.73</course>
  <speed>0.01414213562373095</speed>
  <fix>3d</fix>
</trkpt>
<trkpt lat="40.072842" lon="-105.230575">
  <ele>1586.09</ele>
  <time>2026-08-27T18:31:27Z</time>
  <course>265.41</course>
  <speed>0.0</speed>
  <fix>3d</fix>
</trkpt>
<trkpt lat="40.0728419" lon="-105.2305749">
  <ele>1586.17</ele>
  <time>2026-08-27T18:31:27Z</time>
  <course>7.73</course>
  <speed>0.01414213562373095</speed>
  <fix>3d</fix>
</trkpt>
<trkpt lat="40.0728419" lon="-105.2305749">
  <ele>1586.17</ele>
  <time>2026-08-27T18:31:27Z</time>
  <course>7.71</course>
  <speed>0.01414213562373095</speed>
  <fix>3d</fix>
</trkpt>
<trkpt lat="40.072842" lon="-105.230575">
  <ele>1586.09</ele>
  <time>2026-08-27T18:31:27Z</time>
  <course>267.22</course>
  <speed>0.0</speed>
  <fix>3d</fix>
</trkpt>
<trkpt lat="40.0728419" lon="-105.2305749">
  <ele>1586.17</ele>
  <time>2026-08-27T18:31:27Z</time>
  <course>7.71</course>
  <speed>0.01414213562373095</speed>
  <fix>3d</fix>
</trkpt>
<trkpt lat="40.0728419" lon="-105.2305749">
  <ele>1586.17</ele>
  <time>2026-08-27T18:31:27Z</time>
  <course>7.7</course>
  <speed>0.01414213562373095</speed>
  <fix>3d</fix>
</trkpt>
<trkpt lat="40.072842" lon="-105.230575">
  <ele>1586.09</ele>
  <time>2026-08-27T18:31:27Z</time>
  <course>268.22</course>
  <speed>0.0</speed>
  <fix>3d</fix>
</trkpt>
<trkpt lat="40.0728419" lon="-105.2305749">
  <ele>1586.17</ele>
  <time>2026-08-27T18:31:27Z</time>
  <course>7.7</course>
  <speed>0.01414213562373095</speed>
  <fix>3d</fix>
</trkpt>
<trkpt lat="40.0728419" lon="-105.2305749">
  <ele>1586.17</ele>
  <time>2026-08-27T18:31:27Z</time>
  <course>7.68</course>
  <speed>0.01414213562373095</speed>
  <fix>3d</fix>
</trkpt>
<trkpt lat="40.072842" lon="-105.230575">
  <ele>1586.09</ele>
  <time>2026-08-27T18:31:27Z</time>
  <course>266.88</course>
  <speed>0.0</speed>
  <fix>3d</fix>
</trkpt>
<trkpt lat="40.0728419" lon="-105.2305749">
  <ele>1586.17</ele>
  <time>2026-08-27T18:31:27Z</time>
  <course>7.67</course>
  <speed>0.01414213562373095</speed>
  <fix>3d</fix>
</trkpt>
<trkpt lat="40.0728419" lon="-105.2305749">
  <ele>1586.2</ele>
  <time>2026-08-27T18:31:27Z</time>
  <course>7.63</course>
  <speed>0.01414213562373095</speed>
  <fix>3d</fix>
</trkpt>
<trkpt lat="40.072842" lon="-105.230575">
  <ele>1586.09</ele>
  <time>2026-08-27T18:31:27Z</time>
  <course>265.43</course>
  <speed>0.0</speed>
  <fix>3d</fix>
</trkpt>
<trkpt lat="40.0728419" lon="-105.2305749">
  <ele>1586.21</ele>
  <time>2026-08-27T18:31:27Z</time>
  <course>7.62</course>
  <speed>0.01414213562373095</speed>
  <fix>3d</fix>
</trkpt>
<trkpt lat="40.0728419" lon="-105.2305749">
  <ele>1586.26</ele>
  <time>2026-08-27T18:31:27Z</time>
  <course>7.55</course>
  <speed>0.01414213562373095</speed>
  <fix>3d</fix>
</trkpt>
<trkpt lat="40.072842" lon="-105.230575">
  <ele>1586.12</ele>
  <time>2026-08-27T18:31:27Z</time>
  <course>266.9</course>
  <speed>0.0</speed>
  <fix>3d</fix>
</trkpt>
<trkpt lat="40.0728419" lon="-105.2305749">
  <ele>1586.26</ele>
  <time>2026-08-27T18:31:27Z</time>
  <course>7.54</course>
  <speed>0.01414213562373095</speed>
  <fix>3d</fix>
</trkpt>
<trkpt lat="40.0728419" lon="-105.2305749">
  <ele>1586.31</ele>
  <time>2026-08-27T18:31:27Z</time>
  <course>6.68</course>
  <speed>0.01</speed>
  <fix>3d</fix>
</trkpt>
<trkpt lat="40.072842" lon="-105.230575">
  <ele>1586.17</ele>
  <time>2026-08-27T18:31:27Z</time>
  <course>292.56</course>
  <speed>0.0</speed>
  <fix>3d</fix>
</trkpt>
<trkpt lat="40.0728419" lon="-105.2305749">
  <ele>1586.33</ele>
  <time>2026-08-27T18:31:27Z</time>
  <course>5.78</course>
  <speed>0.01</speed>
  <fix>3d</fix>
</trkpt>
<trkpt lat="40.0728419" lon="-105.230575">
  <ele>1586.5</ele>
  <time>2026-08-27T18:31:27Z</time>
  <course>2.33</course>
  <speed>0.130384048104053</speed>
  <fix>3d</fix>
</trkpt>
<trkpt lat="40.072842" lon="-105.230575">
  <ele>1586.26</ele>
  <time>2026-08-27T18:31:27Z</time>
  <course>264.08</course>
  <speed>0.03</speed>
  <fix>3d</fix>
</trkpt>
<trkpt lat="40.0728419" lon="-105.230575">
  <ele>1586.51</ele>
  <time>2026-08-27T18:31:27Z</time>
  <course>2.39</course>
  <speed>0.130384048104053</speed>
  <fix>3d</fix>
</trkpt>
<trkpt lat="40.0728419" lon="-105.2305754">
  <ele>1586.66</ele>
  <time>2026-08-27T18:31:27Z</time>
  <course>3.47</course>
  <speed>0.18027756377319945</speed>
  <fix>3d</fix>
</trkpt>
<trkpt lat="40.072842" lon="-105.2305752">
  <ele>1586.41</ele>
  <time>2026-08-27T18:31:27Z</time>
  <course>262.8</course>
  <speed>0.12</speed>
  <fix>3d</fix>
</trkpt>
<trkpt lat="40.0728419" lon="-105.2305755">
  <ele>1586.67</ele>
  <time>2026-08-27T18:31:27Z</time>
  <course>3.33</course>
  <speed>0.19026297590440447</speed>
  <fix>3d</fix>
</trkpt>
<trkpt lat="40.0728419" lon="-105.2305759">
  <ele>1586.76</ele>
  <time>2026-08-27T18:31:27Z</time>
  <course>2.49</course>
  <speed>0.22022715545545238</speed>
  <fix>3d</fix>
</trkpt>
<trkpt lat="40.072842" lon="-105.2305756">
  <ele>1586.57</ele>
  <time>2026-08-27T18:31:27Z</time>
  <course>261.43</course>
  <speed>0.2</speed>
  <fix>3d</fix>
</trkpt>
<trkpt lat="40.0728419" lon="-105.230576">
  <ele>1586.77</ele>
  <time>2026-08-27T18:31:27Z</time>
  <course>2.36</course>
  <speed>0.22090722034374521</speed>
  <fix>3d</fix>
</trkpt>
<trkpt lat="40.0728419" lon="-105.2305765">
  <ele>1586.86</ele>
  <time>2026-08-27T18:31:27Z</time>
  <course>1.88</course>
  <speed>0.24186773244895649</speed>
  <fix>3d</fix>
</trkpt>
<trkpt lat="40.0728419" lon="-105.2305761">
  <ele>1586.67</ele>
  <time>2026-08-27T18:31:27Z</time>
  <course>259.29</course>
  <speed>0.23</speed>
  <fix>3d</fix>
</trkpt>
<trkpt lat="40.0728419" lon="-105.2305766">
  <ele>1586.87</ele>
  <time>2026-08-27T18:31:27Z</time>
  <course>1.86</course>
  <speed>0.24186773244895649</speed>
  <fix>3d</fix>
</trkpt>
<trkpt lat="40.0728418" lon="-105.2305771">
  <ele>1586.96</ele>
  <time>2026-08-27T18:31:27Z</time>
  <course>1.83</course>
  <speed>0.24515301344262524</speed>
  <fix>3d</fix>
</trkpt>
<trkpt lat="40.0728418" lon="-105.2305767">
  <ele>1586.76</ele>
  <time>2026-08-27T18:31:27Z</time>
  <course>256.64</course>
  <speed>0.25</speed>
  <fix>3d</fix>
</trkpt>
<trkpt lat="40.0728417" lon="-105.2305772">
  <ele>1586.97</ele>
  <time>2026-08-27T18:31:27Z</time>
  <course>1.83</course>
  <speed>0.24515301344262524</speed>
  <fix>3d</fix>
</trkpt>
<trkpt lat="40.0728416" lon="-105.2305777">
  <ele>1587.05</ele>
  <time>2026-08-27T18:31:27Z</time>
  <course>1.85</course>
  <speed>0.24738633753705963</speed>
  <fix>3d</fix>
</trkpt>
<trkpt lat="40.0728417" lon="-105.2305772">
  <ele>1586.86</ele>
  <time>2026-08-27T18:31:27Z</time>
  <course>253.95</course>
  <speed>0.26</speed>
  <fix>3d</fix>
</trkpt>
<trkpt lat="40.0728416" lon="-105.2305777">
  <ele>1587.06</ele>
  <time>2026-08-27T18:31:27Z</time>
  <course>1.85</course>
  <speed>0.25</speed>
  <fix>3d</fix>
</trkpt>
<trkpt lat="40.0728415" lon="-105.2305783">
  <ele>1587.16</ele>
  <time>2026-08-27T18:31:27Z</time>
  <course>1.92</course>
  <speed>0.24351591323771843</speed>
  <fix>3d</fix>
</trkpt>
<trkpt lat="40.0728415" lon="-105.2305778">
  <ele>1586.96</ele>
  <time>2026-08-27T18:31:27Z</time>
  <course>251.28</course>
  <speed>0.26</speed>
  <fix>3d</fix>
</trkpt>
<trkpt lat="40.0728414" lon="-105.2305784">
  <ele>1587.19</ele>
  <time>2026-08-27T18:31:27Z</time>
  <course>1.94</course>
  <speed>0.24351591323771843</speed>
  <fix>3d</fix>
</trkpt>
<trkpt lat="40.0728413" lon="-105.2305788">
  <ele>1587.27</ele>
  <time>2026-08-27T18:31:27Z</time>
  <course>2.08</course>
  <speed>0.25079872407968906</speed>
  <fix>3d</fix>
</trkpt>
<trkpt lat="40.0728414" lon="-105.2305784">
  <ele>1587.06</ele>
  <time>2026-08-27T18:31:27Z</time>
  <course>248.68</course>
  <speed>0.26</speed>
  <fix>3d</fix>
</trkpt>
<trkpt lat="40.0728412" lon="-105.230579">
  <ele>1587.3</ele>
  <time>2026-08-27T18:31:27Z</time>
  <course>2.12</course>
  <speed>0.24166091947189144</speed>
  <fix>3d</fix>
</trkpt>
<trkpt lat="40.0728411" lon="-105.2305794">
  <ele>1587.39</ele>
  <time>2026-08-27T18:31:27Z</time>
  <course>2.28</course>
  <speed>0.24596747752497689</speed>
  <fix>3d</fix>
</trkpt>
<trkpt lat="40.0728412" lon="-105.230579">
  <ele>1587.17</ele>
  <time>2026-08-27T18:31:27Z</time>
  <course>246.19</course>
  <speed>0.25</speed>
  <fix>3d</fix>
</trkpt>
<trkpt lat="40.072841" lon="-105.2305795">
  <ele>1587.41</ele>
  <time>2026-08-27T18:31:27Z</time>
  <course>2.34</course>
  <speed>0.24596747752497689</speed>
  <fix>3d</fix>
</trkpt>
<trkpt lat="40.0728409" lon="-105.2305799">
  <ele>1587.5</ele>
  <time>2026-08-27T18:31:27Z</time>
  <course>2.5</course>
  <speed>0.24186773244895649</speed>
  <fix>3d</fix>
</trkpt>
<trkpt lat="40.0728409" lon="-105.2305796">
  <ele>1587.28</ele>
  <time>2026-08-27T18:31:27Z</time>
  <course>243.82</course>
  <speed>0.25</speed>
  <fix>3d</fix>
</trkpt>
<trkpt lat="40.0728408" lon="-105.23058">
  <ele>1587.53</ele>
  <time>2026-08-27T18:31:27Z</time>
  <course>2.58</course>
  <speed>0.24186773244895649</speed>
  <fix>3d</fix>
</trkpt>
<trkpt lat="40.0728406" lon="-105.2305804">
  <ele>1587.62</ele>
  <time>2026-08-27T18:31:27Z</time>
  <course>2.75</course>
  <speed>0.23853720883753127</speed>
  <fix>3d</fix>
</trkpt>
<trkpt lat="40.0728407" lon="-105.2305801">
  <ele>1587.39</ele>
  <time>2026-08-27T18:31:27Z</time>
  <course>241.6</course>
  <speed>0.25</speed>
  <fix>3d</fix>
</trkpt>
<trkpt lat="40.0728406" lon="-105.2305805">
  <ele>1587.63</ele>
  <time>2026-08-27T18:31:27Z</time>
  <course>2.77</course>
  <speed>0.23853720883753127</speed>
  <fix>3d</fix>
</trkpt>
<trkpt lat="40.0728404" lon="-105.2305809">
  <ele>1587.74</ele>
  <time>2026-08-27T18:31:27Z</time>
  <course>3.01</course>
  <speed>0.24413111231467405</speed>
  <fix>3d</fix>
</trkpt>
<trkpt lat="40.0728406" lon="-105.2305806">
  <ele>1587.52</ele>
  <time>2026-08-27T18:31:27Z</time>
  <course>239.5</course>
  <speed>0.24</speed>
  <fix>3d</fix>
</trkpt>
<trkpt lat="40.0728403" lon="-105.230581">
  <ele>1587.77</ele>
  <time>2026-08-27T18:31:27Z</time>
  <course>3.08</course>
  <speed>0.25</speed>
  <fix>3d</fix>
</trkpt>
<trkpt lat="40.0728401" lon="-105.2305814">
  <ele>1587.86</ele>
  <time>2026-08-27T18:31:27Z</time>
  <course>3.25</course>
  <speed>0.2420743687382041</speed>
  <fix>3d</fix>
</trkpt>
<trkpt lat="40.0728403" lon="-105.2305811">
  <ele>1587.63</ele>
  <time>2026-08-27T18:31:27Z</time>
  <course>237.55</course>
  <speed>0.24</speed>
  <fix>3d</fix>
</trkpt>
<trkpt lat="40.07284" lon="-105.2305815">
  <ele>1587.88</ele>
  <time>2026-08-27T18:31:27Z</time>
  <course>3.31</course>
  <speed>0.2420743687382041</speed>
  <fix>3d</fix>
</trkpt>
<trkpt lat="40.0728398" lon="-105.2305819">
  <ele>1587.98</ele>
  <time>2026-08-27T18:31:27Z</time>
  <course>3.5</course>
  <speed>0.24839484696748443</speed>
  <fix>3d</fix>
</trkpt>
<trkpt lat="40.0728401" lon="-105.2305815">
  <ele>1587.76</ele>
  <time>2026-08-27T18:31:27Z</time>
  <course>235.77</course>
  <speed>0.24</speed>
  <fix>3d</fix>
</trkpt>
<trkpt lat="40.0728398" lon="-105.230582">
  <ele>1588.0</ele>
  <time>2026-08-27T18:31:27Z</time>
  <course>3.54</course>
  <speed>0.24839484696748443</speed>
  <fix>3d</fix>
</trkpt>
<trkpt lat="40.0728395" lon="-105.2305823">
  <ele>1588.1</ele>
  <time>2026-08-27T18:31:27Z</time>
  <course>3.73</course>
  <speed>0.24758836806279894</speed>
  <fix>3d</fix>
</trkpt>
<trkpt lat="40.0728398" lon="-105.230582">
  <ele>1587.88</ele>
  <time>2026-08-27T18:31:27Z</time>
  <course>234.18</course>
  <speed>0.24</speed>
  <fix>3d</fix>
</trkpt>
<trkpt lat="40.0728395" lon="-105.2305824">
  <ele>1588.12</ele>
  <time>2026-08-27T18:31:27Z</time>
  <course>3.77</course>
  <speed>0.24758836806279894</speed>
  <fix>3d</fix>
</trkpt>
<trkpt lat="40.0728393" lon="-105.2305828">
  <ele>1588.23</ele>
  <time>2026-08-27T18:31:27Z</time>
  <course>3.98</course>
  <speed>0.2545584412271571</speed>
  <fix>3d</fix>
</trkpt>
<trkpt lat="40.0728395" lon="-105.2305825">
  <ele>1588.01</ele>
  <time>2026-08-27T18:31:27Z</time>
  <course>232.68</course>
  <speed>0.24</speed>
  <fix>3d</fix>
</trkpt>
<trkpt lat="40.0728392" lon="-105.2305829">
  <ele>1588.25</ele>
  <time>2026-08-27T18:31:27Z</time>
  <course>4.02</course>
  <speed>0.2545584412271571</speed>
  <fix>3d</fix>
</trkpt>
<trkpt lat="40.072839" lon="-105.2305832">
  <ele>1588.36</ele>
  <time>2026-08-27T18:31:27Z</time>
  <course>4.2</course>
  <speed>0.2545584412271571</speed>
  <fix>3d</fix>
</trkpt>
<trkpt lat="40.0728393" lon="-105.230583">
  <ele>1588.13</ele>
  <time>2026-08-27T18:31:27Z</time>
  <course>231.23</course>
  <speed>0.24</speed>
  <fix>3d</fix>
</trkpt>
<trkpt lat="40.072839" lon="-105.2305832">
  <ele>1588.36</ele>
  <time>2026-08-27T18:31:27Z</time>
  <course>4.2</course>
  <speed>0.2545584412271571</speed>
  <fix>3d</fix>
</trkpt>
<trkpt lat="40.0728387" lon="-105.2305837">
  <ele>1588.5</ele>
  <time>2026-08-27T18:31:27Z</time>
  <course>4.43</course>
  <speed>0.25495097567963926</speed>
  <fix>3d</fix>
</trkpt>
<trkpt lat="40.072839" lon="-105.2305834">
  <ele>1588.26</ele>
  <time>2026-08-27T18:31:27Z</time>
  <course>229.89</course>
  <speed>0.24</speed>
  <fix>3d</fix>
</trkpt>
<trkpt lat="40.0728386" lon="-105.2305837">
  <ele>1588.51</ele>
  <time>2026-08-27T18:31:27Z</time>
  <course>4.46</course>
  <speed>0.25495097567963926</speed>
  <fix>3d</fix>
</trkpt>
<trkpt lat="40.0728383" lon="-105.2305841">
  <ele>1588.62</ele>
  <time>2026-08-27T18:31:27Z</time>
  <course>4.67</course>
  <speed>0.25495097567963926</speed>
  <fix>3d</fix>
</trkpt>
<trkpt lat="40.0728387" lon="-105.2305839">
  <ele>1588.38</ele>
  <time>2026-08-27T18:31:27Z</time>
  <course>228.7</course>
  <speed>0.24</speed>
  <fix>3d</fix>
</trkpt>
<trkpt lat="40.0728383" lon="-105.2305842">
  <ele>1588.64</ele>
  <time>2026-08-27T18:31:27Z</time>
  <course>4.69</course>
  <speed>0.25495097567963926</speed>
  <fix>3d</fix>
</trkpt>
<trkpt lat="40.072838" lon="-105.2305845">
  <ele>1588.74</ele>
  <time>2026-08-27T18:31:27Z</time>
  <course>4.88</course>
  <speed>0.26248809496813374</speed>
  <fix>3d</fix>
</trkpt>
<trkpt lat="40.0728384" lon="-105.2305843">
  <ele>1588.51</ele>
  <time>2026-08-27T18:31:27Z</time>
  <course>227.64</course>
  <speed>0.24</speed>
  <fix>3d</fix>
</trkpt>
<trkpt lat="40.072838" lon="-105.2305846">
  <ele>1588.75</ele>
  <time>2026-08-27T18:31:27Z</time>
  <course>4.89</course>
  <speed>0.26248809496813374</speed>
  <fix>3d</fix>
</trkpt>
<trkpt lat="40.0728377" lon="-105.230585">
  <ele>1588.87</ele>
  <time>2026-08-27T18:31:27Z</time>
  <course>3.7</course>
  <speed>0.25612496949731395</speed>
  <fix>3d</fix>
</trkpt>
<trkpt lat="40.0728381" lon="-105.2305847">
  <ele>1588.62</ele>
  <time>2026-08-27T18:31:27Z</time>
  <course>226.64</course>
  <speed>0.24</speed>
  <fix>3d</fix>
</trkpt>
<trkpt lat="40.0728377" lon="-105.230585">
  <ele>1588.88</ele>
  <time>2026-08-27T18:31:27Z</time>
  <course>3.72</course>
  <speed>0.25612496949731395</speed>
  <fix>3d</fix>
</trkpt>
<trkpt lat="40.0728374" lon="-105.2305854">
  <ele>1588.99</ele>
  <time>2026-08-27T18:31:27Z</time>
  <course>3.94</course>
  <speed>0.25612496949731395</speed>
  <fix>3d</fix>
</trkpt>
<trkpt lat="40.0728378" lon="-105.2305851">
  <ele>1588.75</ele>
  <time>2026-08-27T18:31:27Z</time>
  <course>225.75</course>
  <speed>0.25</speed>
  <fix>3d</fix>
</trkpt>
<trkpt lat="40.0728373" lon="-105.2305854">
  <ele>1589.01</ele>
  <time>2026-08-27T18:31:27Z</time>
  <course>3.99</course>
  <speed>0.25612496949731395</speed>
  <fix>3d</fix>
</trkpt>
<trkpt lat="40.0728371" lon="-105.2305858">
  <ele>1589.11</ele>
  <time>2026-08-27T18:31:27Z</time>
  <course>4.23</course>
  <speed>0.25612496949731395</speed>
  <fix>3d</fix>
</trkpt>
<trkpt lat="40.0728375" lon="-105.2305856">
  <ele>1588.87</ele>
  <time>2026-08-27T18:31:27Z</time>
  <course>224.97</course>
  <speed>0.25</speed>
  <fix>3d</fix>
</trkpt>
<trkpt lat="40.0728371" lon="-105.2305858">
  <ele>1589.11</ele>
  <time>2026-08-27T18:31:27Z</time>
  <course>4.24</course>
  <speed>0.25612496949731395</speed>
  <fix>3d</fix>
</trkpt>
<trkpt lat="40.0728368" lon="-105.2305862">
  <ele>1589.23</ele>
  <time>2026-08-27T18:31:27Z</time>
  <course>4.4</course>
  <speed>0.25</speed>
  <fix>3d</fix>
</trkpt>
<trkpt lat="40.0728372" lon="-105.2305859">
  <ele>1589.0</ele>
  <time>2026-08-27T18:31:27Z</time>
  <course>224.22</course>
  <speed>0.25</speed>
  <fix>3d</fix>
</trkpt>
<trkpt lat="40.0728367" lon="-105.2305862">
  <ele>1589.25</ele>
  <time>2026-08-27T18:31:27Z</time>
  <course>4.42</course>
  <speed>0.25</speed>
  <fix>3d</fix>
</trkpt>
<trkpt lat="40.0728364" lon="-105.2305866">
  <ele>1589.36</ele>
  <time>2026-08-27T18:31:27Z</time>
  <course>4.54</course>
  <speed>0.25</speed>
  <fix>3d</fix>
</trkpt>
<trkpt lat="40.0728369" lon="-105.2305863">
  <ele>1589.12</ele>
  <time>2026-08-27T18:31:27Z</time>
  <course>223.46</course>
  <speed>0.25</speed>
  <fix>3d</fix>
</trkpt>
<trkpt lat="40.0728364" lon="-105.2305866">
  <ele>1589.38</ele>
  <time>2026-08-27T18:31:27Z</time>
  <course>4.55</course>
  <speed>0.2420743687382041</speed>
  <fix>3d</fix>
</trkpt>
<trkpt lat="40.0728361" lon="-105.2305869">
  <ele>1589.49</ele>
  <time>2026-08-27T18:31:27Z</time>
  <course>4.65</course>
  <speed>0.2420743687382041</speed>
  <fix>3d</fix>
</trkpt>
<trkpt lat="40.0728365" lon="-105.2305868">
  <ele>1589.25</ele>
  <time>2026-08-27T18:31:27Z</time>
  <course>222.6</course>
  <speed>0.25</speed>
  <fix>3d</fix>
</trkpt>
<trkpt lat="40.0728361" lon="-105.230587">
  <ele>1589.51</ele>
  <time>2026-08-27T18:31:27Z</time>
  <course>4.66</course>
  <speed>0.2420743687382041</speed>
  <fix>3d</fix>
</trkpt>
<trkpt lat="40.0728358" lon="-105.2305873">
  <ele>1589.61</ele>
  <time>2026-08-27T18:31:27Z</time>
  <course>4.75</course>
  <speed>0.2420743687382041</speed>
  <fix>3d</fix>
</trkpt>
<trkpt lat="40.0728362" lon="-105.2305872">
  <ele>1589.37</ele>
  <time>2026-08-27T18:31:27Z</time>
  <course>221.69</course>
  <speed>0.25</speed>
  <fix>3d</fix>
</trkpt>
<trkpt lat="40.0728358" lon="-105.2305874">
  <ele>1589.63</ele>
  <time>2026-08-27T18:31:27Z</time>
  <course>4.77</course>
  <speed>0.2420743687382041</speed>
  <fix>3d</fix>
</trkpt>
<trkpt lat="40.0728355" lon="-105.2305877">
  <ele>1589.73</ele>
  <time>2026-08-27T18:31:27Z</time>
  <course>4.86</course>
  <speed>0.2420743687382041</speed>
  <fix>3d</fix>
</trkpt>
<trkpt lat="40.0728358" lon="-105.2305875">
  <ele>1589.5</ele>
  <time>2026-08-27T18:31:27Z</time>
  <course>220.77</course>
  <speed>0.26</speed>
  <fix>3d</fix>
</trkpt>
<trkpt lat="40.0728355" lon="-105.2305877">
  <ele>1589.73</ele>
  <time>2026-08-27T18:31:27Z</time>
  <course>4.87</course>
  <speed>0.2420743687382041</speed>
  <fix>3d</fix>
</trkpt>
<trkpt lat="40.0728351" lon="-105.2305881">
  <ele>1589.85</ele>
  <time>2026-08-27T18:31:27Z</time>
  <course>4.96</course>
  <speed>0.25</speed>
  <fix>3d</fix>
</trkpt>
<trkpt lat="40.0728354" lon="-105.230588">
  <ele>1589.62</ele>
  <time>2026-08-27T18:31:27Z</time>
  <course>219.75</course>
  <speed>0.26</speed>
  <fix>3d</fix>
</trkpt>
<trkpt lat="40.0728351" lon="-105.2305882">
  <ele>1589.87</ele>
  <time>2026-08-27T18:31:27Z</time>
  <course>4.98</course>
  <speed>0.25</speed>
  <fix>3d</fix>
</trkpt>
<trkpt lat="40.0728348" lon="-105.2305885">
  <ele>1589.98</ele>
  <time>2026-08-27T18:31:27Z</time>
  <course>5.1</course>
  <speed>0.25</speed>
  <fix>3d</fix>
</trkpt>
<trkpt lat="40.0728351" lon="-105.2305883">
  <ele>1589.75</ele>
  <time>2026-08-27T18:31:27Z</time>
  <course>218.72</course>
  <speed>0.26</speed>
  <fix>3d</fix>
</trkpt>
<trkpt lat="40.0728347" lon="-105.2305886">
  <ele>1590.0</ele>
  <time>2026-08-27T18:31:27Z</time>
  <course>5.13</course>
  <speed>0.25</speed>
  <fix>3d</fix>
</trkpt>
<trkpt lat="40.0728344" lon="-105.2305889">
  <ele>1590.11</ele>
  <time>2026-08-27T18:31:27Z</time>
  <course>5.19</course>
  <speed>0.25</speed>
  <fix>3d</fix>
</trkpt>
<trkpt lat="40.0728347" lon="-105.2305887">
  <ele>1589.87</ele>
  <time>2026-08-27T18:31:27Z</time>
  <course>217.77</course>
  <speed>0.27</speed>
  <fix>3d</fix>
</trkpt>
<trkpt lat="40.0728344" lon="-105.2305889">
  <ele>1590.11</ele>
  <time>2026-08-27T18:31:27Z</time>
  <course>5.19</course>
  <speed>0.25</speed>
  <fix>3d</fix>
</trkpt>
<trkpt lat="40.072834" lon="-105.2305893">
  <ele>1590.23</ele>
  <time>2026-08-27T18:31:27Z</time>
  <course>5.32</course>
  <speed>0.2580697580112788</speed>
  <fix>3d</fix>
</trkpt>
<trkpt lat="40.0728344" lon="-105.2305892">
  <ele>1590.0</ele>
  <time>2026-08-27T18:31:27Z</time>
  <course>216.97</course>
  <speed>0.27</speed>
  <fix>3d</fix>
</trkpt>
<trkpt lat="40.072834" lon="-105.2305894">
  <ele>1590.25</ele>
  <time>2026-08-27T18:31:27Z</time>
  <course>5.34</course>
  <speed>0.2580697580112788</speed>
  <fix>3d</fix>
</trkpt>
<trkpt lat="40.0728336" lon="-105.2305897">
  <ele>1590.36</ele>
  <time>2026-08-27T18:31:27Z</time>
  <course>5.46</course>
  <speed>0.2580697580112788</speed>
  <fix>3d</fix>
</trkpt>
<trkpt lat="40.072834" lon="-105.2305896">
  <ele>1590.12</ele>
  <time>2026-08-27T18:31:27Z</time>
  <course>216.3</course>
  <speed>0.27</speed>
  <fix>3d</fix>
</trkpt>
<trkpt lat="40.0728336" lon="-105.2305898">
  <ele>1590.38</ele>
  <time>2026-08-27T18:31:27Z</time>
  <course>5.48</course>
  <speed>0.2580697580112788</speed>
  <fix>3d</fix>
</trkpt>
<trkpt lat="40.0728332" lon="-105.2305901">
  <ele>1590.49</ele>
  <time>2026-08-27T18:31:27Z</time>
  <course>5.59</course>
  <speed>0.266270539113887</speed>
  <fix>3d</fix>
</trkpt>
<trkpt lat="40.0728335" lon="-105.2305899">
  <ele>1590.25</ele>
  <time>2026-08-27T18:31:27Z</time>
  <course>215.68</course>
  <speed>0.28</speed>
  <fix>3d</fix>
</trkpt>
<trkpt lat="40.0728332" lon="-105.2305901">
  <ele>1590.49</ele>
  <time>2026-08-27T18:31:27Z</time>
  <course>5.59</course>
  <speed>0.266270539113887</speed>
  <fix>3d</fix>
</trkpt>
<trkpt lat="40.0728328" lon="-105.2305905">
  <ele>1590.62</ele>
  <time>2026-08-27T18:31:27Z</time>
  <course>5.69</course>
  <speed>0.266270539113887</speed>
  <fix>3d</fix>
</trkpt>
<trkpt lat="40.072833" lon="-105.2305904">
  <ele>1590.38</ele>
  <time>2026-08-27T18:31:27Z</time>
  <course>215.11</course>
  <speed>0.28</speed>
  <fix>3d</fix>
</trkpt>
<trkpt lat="40.0728327" lon="-105.2305906">
  <ele>1590.64</ele>
  <time>2026-08-27T18:31:27Z</time>
  <course>5.7</course>
  <speed>0.266270539113887</speed>
  <fix>3d</fix>
</trkpt>
<trkpt lat="40.0728324" lon="-105.2305909">
  <ele>1590.75</ele>
  <time>2026-08-27T18:31:27Z</time>
  <course>5.8</course>
  <speed>0.266270539113887</speed>
  <fix>3d</fix>
</trkpt>
<trkpt lat="40.0728327" lon="-105.2305907">
  <ele>1590.51</ele>
  <time>2026-08-27T18:31:28Z</time>
  <course>214.63</course>
  <speed>0.28</speed>
  <fix>3d</fix>
</trkpt>
<trkpt lat="40.0728324" lon="-105.2305909">
  <ele>1590.75</ele>
  <time>2026-08-27T18:31:28Z</time>
  <course>5.8</course>
  <speed>0.266270539113887</speed>
  <fix>3d</fix>
</trkpt>
<trkpt lat="40.072832" lon="-105.2305913">
  <ele>1590.87</ele>
  <time>2026-08-27T18:31:28Z</time>
  <course>5.9</course>
  <speed>0.2745906043549196</speed>
  <fix>3d</fix>
</trkpt>
<trkpt lat="40.0728323" lon="-105.2305911">
  <ele>1590.63</ele>
  <time>2026-08-27T18:31:28Z</time>
  <course>214.26</course>
  <speed>0.28</speed>
  <fix>3d</fix>
</trkpt>
<trkpt lat="40.0728319" lon="-105.2305913">
  <ele>1590.89</ele>
  <time>2026-08-27T18:31:28Z</time>
  <course>5.91</course>
  <speed>0.2745906043549196</speed>
  <fix>3d</fix>
</trkpt>
<trkpt lat="40.0728315" lon="-105.2305917">
  <ele>1591.0</ele>
  <time>2026-08-27T18:31:28Z</time>
  <course>6.0</course>
  <speed>0.2745906043549196</speed>
  <fix>3d</fix>
</trkpt>
<trkpt lat="40.0728318" lon="-105.2305915">
  <ele>1590.76</ele>
  <time>2026-08-27T18:31:28Z</time>
  <course>213.96</course>
  <speed>0.28</speed>
  <fix>3d</fix>
</trkpt>
<trkpt lat="40.0728315" lon="-105.2305917">
  <ele>1591.01</ele>
  <time>2026-08-27T18:31:28Z</time>
  <course>6.01</course>
  <speed>0.2745906043549196</speed>
  <fix>3d</fix>
</trkpt>
<trkpt lat="40.0728311" lon="-105.230592">
  <ele>1591.12</ele>
  <time>2026-08-27T18:31:28Z</time>
  <course>6.08</course>
  <speed>0.2745906043549196</speed>
  <fix>3d</fix>
</trkpt>
<trkpt lat="40.0728314" lon="-105.2305918">
  <ele>1590.88</ele>
  <time>2026-08-27T18:31:28Z</time>
  <course>213.7</course>
  <speed>0.29</speed>
  <fix>3d</fix>
</trkpt>
<trkpt lat="40.0728311" lon="-105.2305921">
  <ele>1591.12</ele>
  <time>2026-08-27T18:31:28Z</time>
  <course>6.08</course>
  <speed>0.2745906043549196</speed>
  <fix>3d</fix>
</trkpt>
<trkpt lat="40.0728306" lon="-105.2305924">
  <ele>1591.25</ele>
  <time>2026-08-27T18:31:28Z</time>
  <course>6.18</course>
  <speed>0.2745906043549196</speed>
  <fix>3d</fix>
</trkpt>
<trkpt lat="40.0728309" lon="-105.2305923">
  <ele>1591.01</ele>
  <time>2026-08-27T18:31:28Z</time>
  <course>213.53</course>
  <speed>0.29</speed>
  <fix>3d</fix>
</trkpt>
<trkpt lat="40.0728306" lon="-105.2305925">
  <ele>1591.27</ele>
  <time>2026-08-27T18:31:28Z</time>
  <course>6.19</course>
  <speed>0.2745906043549196</speed>
  <fix>3d</fix>
</trkpt>
<trkpt lat="40.0728302" lon="-105.2305928">
  <ele>1591.37</ele>
  <time>2026-08-27T18:31:28Z</time>
  <course>6.26</course>
  <speed>0.2745906043549196</speed>
  <fix>3d</fix>
</trkpt>
<trkpt lat="40.0728305" lon="-105.2305926">
  <ele>1591.13</ele>
  <time>2026-08-27T18:31:28Z</time>
  <course>213.44</course>
  <speed>0.29</speed>
  <fix>3d</fix>
</trkpt>
<trkpt lat="40.0728302" lon="-105.2305928">
  <ele>1591.37</ele>
  <time>2026-08-27T18:31:28Z</time>
  <course>6.26</course>
  <speed>0.2745906043549196</speed>
  <fix>3d</fix>
</trkpt>
<trkpt lat="40.0728298" lon="-105.2305932">
  <ele>1591.5</ele>
  <time>2026-08-27T18:31:28Z</time>
  <course>6.35</course>
  <speed>0.2778488797889961</speed>
  <fix>3d</fix>
</trkpt>
<trkpt lat="40.0728301" lon="-105.230593">
  <ele>1591.26</ele>
  <time>2026-08-27T18:31:28Z</time>
  <course>213.37</course>
  <speed>0.29</speed>
  <fix>3d</fix>
</trkpt>
<trkpt lat="40.0728298" lon="-105.2305932">
  <ele>1591.5</ele>
  <time>2026-08-27T18:31:28Z</time>
  <course>6.35</course>
  <speed>0.2778488797889961</speed>
  <fix>3d</fix>
</trkpt>
<trkpt lat="40.0728293" lon="-105.2305936">
  <ele>1591.63</ele>
  <time>2026-08-27T18:31:28Z</time>
  <course>6.42</course>
  <speed>0.2778488797889961</speed>
  <fix>3d</fix>
</trkpt>
<trkpt lat="40.0728297" lon="-105.2305934">
  <ele>1591.38</ele>
  <time>2026-08-27T18:31:28Z</time>
  <course>213.32</course>
  <speed>0.29</speed>
  <fix>3d</fix>
</trkpt>
<trkpt lat="40.0728293" lon="-105.2305936">
  <ele>1591.65</ele>
  <time>2026-08-27T18:31:28Z</time>
  <course>6.43</course>
  <speed>0.2778488797889961</speed>
  <fix>3d</fix>
</trkpt>
<trkpt lat="40.0728289" lon="-105.2305939">
  <ele>1591.75</ele>
  <time>2026-08-27T18:31:28Z</time>
  <course>6.5</course>
  <speed>0.2778488797889961</speed>
  <fix>3d</fix>
</trkpt>
<trkpt lat="40.0728292" lon="-105.2305938">
  <ele>1591.51</ele>
  <time>2026-08-27T18:31:28Z</time>
  <course>213.3</course>
  <speed>0.29</speed>
  <fix>3d</fix>
</trkpt>
<trkpt lat="40.0728288" lon="-105.230594">
  <ele>1591.77</ele>
  <time>2026-08-27T18:31:28Z</time>
  <course>6.51</course>
  <speed>0.2778488797889961</speed>
  <fix>3d</fix>
</trkpt>
<trkpt lat="40.0728284" lon="-105.2305943">
  <ele>1591.88</ele>
  <time>2026-08-27T18:31:28Z</time>
  <course>6.56</course>
  <speed>0.2778488797889961</speed>
  <fix>3d</fix>
</trkpt>
<trkpt lat="40.0728287" lon="-105.2305941">
  <ele>1591.63</ele>
  <time>2026-08-27T18:31:28Z</time>
  <course>213.29</course>
  <speed>0.29</speed>
  <fix>3d</fix>
</trkpt>
<trkpt lat="40.0728284" lon="-105.2305944">
  <ele>1591.9</ele>
  <time>2026-08-27T18:31:28Z</time>
  <course>6.58</course>
  <speed>0.2778488797889961</speed>
  <fix>3d</fix>
</trkpt>
<trkpt lat="40.072828" lon="-105.2305947">
  <ele>1592.0</ele>
  <time>2026-08-27T18:31:28Z</time>
  <course>6.63</course>
  <speed>0.2778488797889961</speed>
  <fix>3d</fix>
</trkpt>
<trkpt lat="40.0728283" lon="-105.2305945">
  <ele>1591.76</ele>
  <time>2026-08-27T18:31:28Z</time>
  <course>213.29</course>
  <speed>0.29</speed>
  <fix>3d</fix>
</trkpt>
<trkpt lat="40.072828" lon="-105.2305947">
  <ele>1592.0</ele>
  <time>2026-08-27T18:31:28Z</time>
  <course>6.63</course>
  <speed>0.2778488797889961</speed>
  <fix>3d</fix>
</trkpt>
<trkpt lat="40.0728275" lon="-105.2305951">
  <ele>1592.13</ele>
  <time>2026-08-27T18:31:28Z</time>
  <course>6.69</course>
  <speed>0.2778488797889961</speed>
  <fix>3d</fix>
</trkpt>
<trkpt lat="40.0728278" lon="-105.2305949">
  <ele>1591.87</ele>
  <time>2026-08-27T18:31:28Z</time>
  <course>213.31</course>
  <speed>0.29</speed>
  <fix>3d</fix>
</trkpt>
<trkpt lat="40.0728275" lon="-105.2305951">
  <ele>1592.14</ele>
  <time>2026-08-27T18:31:28Z</time>
  <course>6.7</course>
  <speed>0.2778488797889961</speed>
  <fix>3d</fix>
</trkpt>
<trkpt lat="40.0728271" lon="-105.2305954">
  <ele>1592.25</ele>
  <time>2026-08-27T18:31:28Z</time>
  <course>6.75</course>
  <speed>0.2778488797889961</speed>
  <fix>3d</fix>
</trkpt>
<trkpt lat="40.0728275" lon="-105.2305953">
  <ele>1592.0</ele>
  <time>2026-08-27T18:31:28Z</time>
  <course>213.4</course>
  <speed>0.29</speed>
  <fix>3d</fix>
</trkpt>
<trkpt lat="40.072827" lon="-105.2305955">
  <ele>1592.27</ele>
  <time>2026-08-27T18:31:28Z</time>
  <course>6.76</course>
  <speed>0.2778488797889961</speed>
  <fix>3d</fix>
</trkpt>
<trkpt lat="40.0728267" lon="-105.2305958">
  <ele>1592.37</ele>
  <time>2026-08-27T18:31:28Z</time>
  <course>6.82</course>
  <speed>0.2778488797889961</speed>
  <fix>3d</fix>
</trkpt>
<trkpt lat="40.072827" lon="-105.2305957">
  <ele>1592.12</ele>
  <time>2026-08-27T18:31:28Z</time>
  <course>213.58</course>
  <speed>0.29</speed>
  <fix>3d</fix>
</trkpt>
<trkpt lat="40.0728266" lon="-105.2305959">
  <ele>1592.39</ele>
  <time>2026-08-27T18:31:28Z</time>
  <course>6.82</course>
  <speed>0.2778488797889961</speed>
  <fix>3d</fix>
</trkpt>
<trkpt lat="40.0728262" lon="-105.2305962">
  <ele>1592.49</ele>
  <time>2026-08-27T18:31:28Z</time>
  <course>6.87</course>
  <speed>0.2778488797889961</speed>
  <fix>3d</fix>
</trkpt>
<trkpt lat="40.0728266" lon="-105.230596">
  <ele>1592.25</ele>
  <time>2026-08-27T18:31:28Z</time>
  <course>213.84</course>
  <speed>0.29</speed>
  <fix>3d</fix>
</trkpt>
<trkpt lat="40.0728262" lon="-105.2305962">
  <ele>1592.51</ele>
  <time>2026-08-27T18:31:28Z</time>
  <course>6.89</course>
  <speed>0.2778488797889961</speed>
  <fix>3d</fix>
</trkpt>
<trkpt lat="40.0728258" lon="-105.2305966">
  <ele>1592.62</ele>
  <time>2026-08-27T18:31:28Z</time>
  <course>6.92</course>
  <speed>0.2778488797889961</speed>
  <fix>3d</fix>
</trkpt>
<trkpt lat="40.0728261" lon="-105.2305964">
  <ele>1592.38</ele>
  <time>2026-08-27T18:31:28Z</time>
  <course>214.15</course>
  <speed>0.28</speed>
  <fix>3d</fix>
</trkpt>
<trkpt lat="40.0728258" lon="-105.2305966">
  <ele>1592.63</ele>
  <time>2026-08-27T18:31:28Z</time>
  <course>6.92</course>
  <speed>0.2778488797889961</speed>
  <fix>3d</fix>
</trkpt>
<trkpt lat="40.0728254" lon="-105.2305969">
  <ele>1592.75</ele>
  <time>2026-08-27T18:31:28Z</time>
  <course>7.0</course>
  <speed>0.2778488797889961</speed>
  <fix>3d</fix>
</trkpt>
<trkpt lat="40.0728257" lon="-105.2305968">
  <ele>1592.51</ele>
  <time>2026-08-27T18:31:28Z</time>
  <course>214.55</course>
  <speed>0.28</speed>
  <fix>3d</fix>
</trkpt>
<trkpt lat="40.0728253" lon="-105.230597">
  <ele>1592.77</ele>
  <time>2026-08-27T18:31:28Z</time>
  <course>7.01</course>
  <speed>0.2778488797889961</speed>
  <fix>3d</fix>
</trkpt>
<trkpt lat="40.0728249" lon="-105.2305973">
  <ele>1592.88</ele>
  <time>2026-08-27T18:31:28Z</time>
  <course>7.07</course>
  <speed>0.2778488797889961</speed>
  <fix>3d</fix>
</trkpt>
<trkpt lat="40.0728253" lon="-105.2305971">
  <ele>1592.63</ele>
  <time>2026-08-27T18:31:28Z</time>
  <course>214.97</course>
  <speed>0.28</speed>
  <fix>3d</fix>
</trkpt>
<trkpt lat="40.0728249" lon="-105.2305974">
  <ele>1592.89</ele>
  <time>2026-08-27T18:31:28Z</time>
  <course>7.08</course>
  <speed>0.2778488797889961</speed>
  <fix>3d</fix>
</trkpt>
<trkpt lat="40.0728245" lon="-105.2305977">
  <ele>1593.0</ele>
  <time>2026-08-27T18:31:28Z</time>
  <course>7.12</course>
  <speed>0.2692582403567252</speed>
  <fix>3d</fix>
</trkpt>
<trkpt lat="40.0728249" lon="-105.2305976">
  <ele>1592.76</ele>
  <time>2026-08-27T18:31:28Z</time>
  <course>215.33</course>
  <speed>0.28</speed>
  <fix>3d</fix>
</trkpt>
<trkpt lat="40.0728245" lon="-105.2305978">
  <ele>1593.02</ele>
  <time>2026-08-27T18:31:28Z</time>
  <course>7.13</course>
  <speed>0.2692582403567252</speed>
  <fix>3d</fix>
</trkpt>
<trkpt lat="40.0728241" lon="-105.2305981">
  <ele>1593.13</ele>
  <time>2026-08-27T18:31:28Z</time>
  <course>7.19</course>
  <speed>0.2692582403567252</speed>
  <fix>3d</fix>
</trkpt>
<trkpt lat="40.0728244" lon="-105.2305979">
  <ele>1592.88</ele>
  <time>2026-08-27T18:31:28Z</time>
  <course>215.76</course>
  <speed>0.28</speed>
  <fix>3d</fix>
</trkpt>
<trkpt lat="40.072824" lon="-105.2305981">
  <ele>1593.15</ele>
  <time>2026-08-27T18:31:28Z</time>
  <course>7.19</course>
  <speed>0.2692582403567252</speed>
  <fix>3d</fix>
</trkpt>
<trkpt lat="40.0728237" lon="-105.2305985">
  <ele>1593.25</ele>
  <time>2026-08-27T18:31:28Z</time>
  <course>7.24</course>
  <speed>0.2692582403567252</speed>
  <fix>3d</fix>
</trkpt>
<trkpt lat="40.0728241" lon="-105.2305983">
  <ele>1593.01</ele>
  <time>2026-08-27T18:31:28Z</time>
  <course>216.27</course>
  <speed>0.28</speed>
  <fix>3d</fix>
</trkpt>
<trkpt lat="40.0728237" lon="-105.2305985">
  <ele>1593.26</ele>
  <time>2026-08-27T18:31:28Z</time>
  <course>7.24</course>
  <speed>0.2692582403567252</speed>
  <fix>3d</fix>
</trkpt>
<trkpt lat="40.0728233" lon="-105.2305989">
  <ele>1593.38</ele>
  <time>2026-08-27T18:31:28Z</time>
  <course>7.3</course>
  <speed>0.2692582403567252</speed>
  <fix>3d</fix>
</trkpt>
<trkpt lat="40.0728237" lon="-105.2305988">
  <ele>1593.13</ele>
  <time>2026-08-27T18:31:28Z</time>
  <course>216.79</course>
  <speed>0.28</speed>
  <fix>3d</fix>
</trkpt>
<trkpt lat="40.0728232" lon="-105.2305989">
  <ele>1593.4</ele>
  <time>2026-08-27T18:31:28Z</time>
  <course>7.3</course>
  <speed>0.2692582403567252</speed>
  <fix>3d</fix>
</trkpt>
<trkpt lat="40.0728229" lon="-105.2305993">
  <ele>1593.5</ele>
  <time>2026-08-27T18:31:28Z</time>
  <course>7.31</course>
  <speed>0.2692582403567252</speed>
  <fix>3d</fix>
</trkpt>
<trkpt lat="40.0728232" lon="-105.2305992">
  <ele>1593.26</ele>
  <time>2026-08-27T18:31:28Z</time>
  <course>217.31</course>
  <speed>0.28</speed>
  <fix>3d</fix>
</trkpt>
<trkpt lat="40.0728228" lon="-105.2305993">
  <ele>1593.52</ele>
  <time>2026-08-27T18:31:28Z</time>
  <course>7.32</course>
  <speed>0.2692582403567252</speed>
  <fix>3d</fix>
</trkpt>
<trkpt lat="40.0728225" lon="-105.2305997">
  <ele>1593.63</ele>
  <time>2026-08-27T18:31:28Z</time>
  <course>7.37</course>
  <speed>0.260768096208106</speed>
  <fix>3d</fix>
</trkpt>
<trkpt lat="40.0728229" lon="-105.2305995">
  <ele>1593.38</ele>
  <time>2026-08-27T18:31:28Z</time>
  <course>217.87</course>
  <speed>0.27</speed>
  <fix>3d</fix>
</trkpt>
<trkpt lat="40.0728224" lon="-105.2305997">
  <ele>1593.65</ele>
  <time>2026-08-27T18:31:28Z</time>
  <course>7.37</course>
  <speed>0.260768096208106</speed>
  <fix>3d</fix>
</trkpt>
<trkpt lat="40.0728221" lon="-105.2306001">
  <ele>1593.76</ele>
  <time>2026-08-27T18:31:28Z</time>
  <course>7.45</course>
  <speed>0.260768096208106</speed>
  <fix>3d</fix>
</trkpt>
<trkpt lat="40.0728225" lon="-105.2306">
  <ele>1593.51</ele>
  <time>2026-08-27T18:31:28Z</time>
  <course>218.46</course>
  <speed>0.27</speed>
  <fix>3d</fix>
</trkpt>
<trkpt lat="40.072822" lon="-105.2306001">
  <ele>1593.78</ele>
  <time>2026-08-27T18:31:28Z</time>
  <course>7.46</course>
  <speed>0.260768096208106</speed>
  <fix>3d</fix>
</trkpt>
<trkpt lat="40.0728217" lon="-105.2306005">
  <ele>1593.88</ele>
  <time>2026-08-27T18:31:28Z</time>
  <course>7.49</course>
  <speed>0.260768096208106</speed>
  <fix>3d</fix>
</trkpt>
<trkpt lat="40.072822" lon="-105.2306003">
  <ele>1593.63</ele>
  <time>2026-08-27T18:31:28Z</time>
  <course>218.98</course>
  <speed>0.27</speed>
  <fix>3d</fix>
</trkpt>
<trkpt lat="40.0728217" lon="-105.2306005">
  <ele>1593.88</ele>
  <time>2026-08-27T18:31:28Z</time>
  <course>7.49</course>
  <speed>0.260768096208106</speed>
  <fix>3d</fix>
</trkpt>
<trkpt lat="40.0728213" lon="-105.2306009">
  <ele>1594.01</ele>
  <time>2026-08-27T18:31:28Z</time>
  <course>7.54</course>
  <speed>0.260768096208106</speed>
  <fix>3d</fix>
</trkpt>
<trkpt lat="40.0728217" lon="-105.2306007">
  <ele>1593.76</ele>
  <time>2026-08-27T18:31:28Z</time>
  <course>219.55</course>
  <speed>0.27</speed>
  <fix>3d</fix>
</trkpt>
<trkpt lat="40.0728213" lon="-105.2306009">
  <ele>1594.03</ele>
  <time>2026-08-27T18:31:28Z</time>
  <course>7.55</course>
  <speed>0.260768096208106</speed>
  <fix>3d</fix>
</trkpt>
<trkpt lat="40.072821" lon="-105.2306013">
  <ele>1594.13</ele>
  <time>2026-08-27T18:31:28Z</time>
  <course>7.59</course>
  <speed>0.260768096208106</speed>
  <fix>3d</fix>
</trkpt>
<trkpt lat="40.0728213" lon="-105.2306012">
  <ele>1593.88</ele>
  <time>2026-08-27T18:31:28Z</time>
  <course>220.16</course>
  <speed>0.27</speed>
  <fix>3d</fix>
</trkpt>
<trkpt lat="40.0728209" lon="-105.2306013">
  <ele>1594.15</ele>
  <time>2026-08-27T18:31:28Z</time>
  <course>7.61</course>
  <speed>0.25238858928247926</speed>
  <fix>3d</fix>
</trkpt>
<trkpt lat="40.0728206" lon="-105.2306017">
  <ele>1594.26</ele>
  <time>2026-08-27T18:31:28Z</time>
  <course>7.63</course>
  <speed>0.2580697580112788</speed>
  <fix>3d</fix>
</trkpt>
<trkpt lat="40.0728209" lon="-105.2306016">
  <ele>1594.01</ele>
  <time>2026-08-27T18:31:28Z</time>
  <course>220.66</course>
  <speed>0.27</speed>
  <fix>3d</fix>
</trkpt>
<trkpt lat="40.0728205" lon="-105.2306017">
  <ele>1594.28</ele>
  <time>2026-08-27T18:31:28Z</time>
  <course>7.64</course>
  <speed>0.2580697580112788</speed>
  <fix>3d</fix>
</trkpt>
<trkpt lat="40.0728202" lon="-105.2306021">
  <ele>1594.39</ele>
  <time>2026-08-27T18:31:28Z</time>
  <course>7.69</course>
  <speed>0.2580697580112788</speed>
  <fix>3d</fix>
</trkpt>
<trkpt lat="40.0728206" lon="-105.230602">
  <ele>1594.14</ele>
  <time>2026-08-27T18:31:28Z</time>
  <course>221.17</course>
  <speed>0.26</speed>
  <fix>3d</fix>
</trkpt>
<trkpt lat="40.0728202" lon="-105.2306021">
  <ele>1594.4</ele>
  <time>2026-08-27T18:31:28Z</time>
  <course>7.69</course>
  <speed>0.2580697580112788</speed>
  <fix>3d</fix>
</trkpt>
<trkpt lat="40.0728199" lon="-105.2306025">
  <ele>1594.51</ele>
  <time>2026-08-27T18:31:28Z</time>
  <course>7.74</course>
  <speed>0.2580697580112788</speed>
  <fix>3d</fix>
</trkpt>
<trkpt lat="40.0728201" lon="-105.2306024">
  <ele>1594.27</ele>
  <time>2026-08-27T18:31:28Z</time>
  <course>221.74</course>
  <speed>0.26</speed>
  <fix>3d</fix>
</trkpt>
<trkpt lat="40.0728198" lon="-105.2306026">
  <ele>1594.53</ele>
  <time>2026-08-27T18:31:28Z</time>
  <course>7.75</course>
  <speed>0.2580697580112788</speed>
  <fix>3d</fix>
</trkpt>
<trkpt lat="40.0728195" lon="-105.2306029">
  <ele>1594.64</ele>
  <time>2026-08-27T18:31:28Z</time>
  <course>7.79</course>
  <speed>0.2580697580112788</speed>
  <fix>3d</fix>
</trkpt>
<trkpt lat="40.0728198" lon="-105.2306028">
  <ele>1594.39</ele>
  <time>2026-08-27T18:31:28Z</time>
  <course>222.32</course>
  <speed>0.26</speed>
  <fix>3d</fix>
</trkpt>
<trkpt lat="40.0728195" lon="-105.2306029">
  <ele>1594.64</ele>
  <time>2026-08-27T18:31:28Z</time>
  <course>7.79</course>
  <speed>0.2580697580112788</speed>
  <fix>3d</fix>
</trkpt>
<trkpt lat="40.0728191" lon="-105.2306033">
  <ele>1594.77</ele>
  <time>2026-08-27T18:31:28Z</time>
  <course>7.83</course>
  <speed>0.25</speed>
  <fix>3d</fix>
</trkpt>
<trkpt lat="40.0728194" lon="-105.2306033">
  <ele>1594.52</ele>
  <time>2026-08-27T18:31:28Z</time>
  <course>222.93</course>
  <speed>0.26</speed>
  <fix>3d</fix>
</trkpt>
<trkpt lat="40.0728191" lon="-105.2306034">
  <ele>1594.79</ele>
  <time>2026-08-27T18:31:28Z</time>
  <course>7.84</course>
  <speed>0.25</speed>
  <fix>3d</fix>
</trkpt>
<trkpt lat="40.0728188" lon="-105.2306037">
  <ele>1594.9</ele>
  <time>2026-08-27T18:31:28Z</time>
  <course>7.88</course>
  <speed>0.25</speed>
  <fix>3d</fix>
</trkpt>
<trkpt lat="40.0728191" lon="-105.2306036">
  <ele>1594.64</ele>
  <time>2026-08-27T18:31:28Z</time>
  <course>223.57</course>
  <speed>0.26</speed>
  <fix>3d</fix>
</trkpt>
<trkpt lat="40.0728187" lon="-105.2306038">
  <ele>1594.92</ele>
  <time>2026-08-27T18:31:28Z</time>
  <course>7.89</course>
  <speed>0.25</speed>
  <fix>3d</fix>
</trkpt>
<trkpt lat="40.0728185" lon="-105.2306042">
  <ele>1595.03</ele>
  <time>2026-08-27T18:31:28Z</time>
  <course>7.92</course>
  <speed>0.25</speed>
  <fix>3d</fix>
</trkpt>
<trkpt lat="40.0728188" lon="-105.230604">
  <ele>1594.77</ele>
  <time>2026-08-27T18:31:28Z</time>
  <course>224.19</course>
  <speed>0.25</speed>
  <fix>3d</fix>
</trkpt>
<trkpt lat="40.0728184" lon="-105.2306042">
  <ele>1595.05</ele>
  <time>2026-08-27T18:31:28Z</time>
  <course>7.93</course>
  <speed>0.25</speed>
  <fix>3d</fix>
</trkpt>
<trkpt lat="40.0728181" lon="-105.2306046">
  <ele>1595.16</ele>
  <time>2026-08-27T18:31:28Z</time>
  <course>8.0</course>
  <speed>0.2420743687382041</speed>
  <fix>3d</fix>
</trkpt>
<trkpt lat="40.0728184" lon="-105.2306045">
  <ele>1594.89</ele>
  <time>2026-08-27T18:31:28Z</time>
  <course>224.81</course>
  <speed>0.25</speed>
  <fix>3d</fix>
</trkpt>
<trkpt lat="40.0728181" lon="-105.2306046">
  <ele>1595.17</ele>
  <time>2026-08-27T18:31:28Z</time>
  <course>8.01</course>
  <speed>0.2420743687382041</speed>
  <fix>3d</fix>
</trkpt>
<trkpt lat="40.0728178" lon="-105.230605">
  <ele>1595.28</ele>
  <time>2026-08-27T18:31:28Z</time>
  <course>8.05</course>
  <speed>0.2420743687382041</speed>
  <fix>3d</fix>
</trkpt>
<trkpt lat="40.0728181" lon="-105.230605">
  <ele>1595.02</ele>
  <time>2026-08-27T18:31:28Z</time>
  <course>225.39</course>
  <speed>0.25</speed>
  <fix>3d</fix>
</trkpt>
<trkpt lat="40.0728178" lon="-105.230605">
  <ele>1595.28</ele>
  <time>2026-08-27T18:31:28Z</time>
  <course>8.05</course>
  <speed>0.2420743687382041</speed>
  <fix>3d</fix>
</trkpt>
<trkpt lat="40.0728175" lon="-105.2306054">
  <ele>1595.4</ele>
  <time>2026-08-27T18:31:28Z</time>
  <course>8.07</course>
  <speed>0.2420743687382041</speed>
  <fix>3d</fix>
</trkpt>
<trkpt lat="40.0728178" lon="-105.2306054">
  <ele>1595.13</ele>
  <time>2026-08-27T18:31:28Z</time>
  <course>225.91</course>
  <speed>0.25</speed>
  <fix>3d</fix>
</trkpt>
<trkpt lat="40.0728174" lon="-105.2306055">
  <ele>1595.42</ele>
  <time>2026-08-27T18:31:28Z</time>
  <course>8.08</course>
  <speed>0.2420743687382041</speed>
  <fix>3d</fix>
</trkpt>
<trkpt lat="40.0728172" lon="-105.2306059">
  <ele>1595.52</ele>
  <time>2026-08-27T18:31:28Z</time>
  <course>8.09</course>
  <speed>0.2420743687382041</speed>
  <fix>3d</fix>
</trkpt>
<trkpt lat="40.0728175" lon="-105.2306058">
  <ele>1595.26</ele>
  <time>2026-08-27T18:31:28Z</time>
  <course>226.41</course>
  <speed>0.25</speed>
  <fix>3d</fix>
</trkpt>
<trkpt lat="40.0728172" lon="-105.2306059">
  <ele>1595.52</ele>
  <time>2026-08-27T18:31:28Z</time>
  <course>8.09</course>
  <speed>0.2420743687382041</speed>
  <fix>3d</fix>
</trkpt>
<trkpt lat="40.0728169" lon="-105.2306063">
  <ele>1595.64</ele>
  <time>2026-08-27T18:31:28Z</time>
  <course>8.12</course>
  <speed>0.23430749027719963</speed>
  <fix>3d</fix>
</trkpt>
<trkpt lat="40.0728172" lon="-105.2306062">
  <ele>1595.38</ele>
  <time>2026-08-27T18:31:28Z</time>
  <course>226.92</course>
  <speed>0.24</speed>
  <fix>3d</fix>
</trkpt>
<trkpt lat="40.0728168" lon="-105.2306063">
  <ele>1595.66</ele>
  <time>2026-08-27T18:31:28Z</time>
  <course>8.12</course>
  <speed>0.23430749027719963</speed>
  <fix>3d</fix>
</trkpt>
<trkpt lat="40.0728166" lon="-105.2306067">
  <ele>1595.76</ele>
  <time>2026-08-27T18:31:28Z</time>
  <course>8.14</course>
  <speed>0.23430749027719963</speed>
  <fix>3d</fix>
</trkpt>
<trkpt lat="40.0728169" lon="-105.2306067">
  <ele>1595.51</ele>
  <time>2026-08-27T18:31:28Z</time>
  <course>227.44</course>
  <speed>0.24</speed>
  <fix>3d</fix>
</trkpt>
<trkpt lat="40.0728166" lon="-105.2306067">
  <ele>1595.76</ele>
  <time>2026-08-27T18:31:28Z</time>
  <course>8.14</course>
  <speed>0.23430749027719963</speed>
  <fix>3d</fix>
</trkpt>
<trkpt lat="40.0728163" lon="-105.2306071">
  <ele>1595.88</ele>
  <time>2026-08-27T18:31:28Z</time>
  <course>8.18</course>
  <speed>0.23430749027719963</speed>
  <fix>3d</fix>
</trkpt>
<trkpt lat="40.0728166" lon="-105.230607">
  <ele>1595.62</ele>
  <time>2026-08-27T18:31:28Z</time>
  <course>227.99</course>
  <speed>0.24</speed>
  <fix>3d</fix>
</trkpt>
<trkpt lat="40.0728162" lon="-105.2306072">
  <ele>1595.9</ele>
  <time>2026-08-27T18:31:28Z</time>
  <course>8.17</course>
  <speed>0.23430749027719963</speed>
  <fix>3d</fix>
</trkpt>
<trkpt lat="40.072816" lon="-105.2306076">
  <ele>1596.0</ele>
  <time>2026-08-27T18:31:28Z</time>
  <course>8.2</course>
  <speed>0.22671568097509268</speed>
  <fix>3d</fix>
</trkpt>
<trkpt lat="40.0728163" lon="-105.2306075">
  <ele>1595.75</ele>
  <time>2026-08-27T18:31:28Z</time>
  <course>228.55</course>
  <speed>0.24</speed>
  <fix>3d</fix>
</trkpt>
<trkpt lat="40.072816" lon="-105.2306076">
  <ele>1596.0</ele>
  <time>2026-08-27T18:31:28Z</time>
  <course>8.2</course>
  <speed>0.22671568097509268</speed>
  <fix>3d</fix>
</trkpt>
<trkpt lat="40.0728157" lon="-105.230608">
  <ele>1596.13</ele>
  <time>2026-08-27T18:31:28Z</time>
  <course>8.21</course>
  <speed>0.22671568097509268</speed>
  <fix>3d</fix>
</trkpt>
<trkpt lat="40.072816" lon="-105.2306079">
  <ele>1595.88</ele>
  <time>2026-08-27T18:31:28Z</time>
  <course>229.08</course>
  <speed>0.24</speed>
  <fix>3d</fix>
</trkpt>
<trkpt lat="40.0728157" lon="-105.2306081">
  <ele>1596.15</ele>
  <time>2026-08-27T18:31:28Z</time>
  <course>8.22</course>
  <speed>0.22671568097509268</speed>
  <fix>3d</fix>
</trkpt>
<trkpt lat="40.0728154" lon="-105.2306084">
  <ele>1596.26</ele>
  <time>2026-08-27T18:31:28Z</time>
  <course>8.26</course>
  <speed>0.22671568097509268</speed>
  <fix>3d</fix>
</trkpt>
<trkpt lat="40.0728157" lon="-105.2306084">
  <ele>1596.01</ele>
  <time>2026-08-27T18:31:28Z</time>
  <course>229.67</course>
  <speed>0.23</speed>
  <fix>3d</fix>
</trkpt>
<trkpt lat="40.0728154" lon="-105.2306085">
  <ele>1596.28</ele>
  <time>2026-08-27T18:31:28Z</time>
  <course>8.27</course>
  <speed>0.22671568097509268</speed>
  <fix>3d</fix>
</trkpt>
<trkpt lat="40.0728151" lon="-105.2306089">
  <ele>1596.39</ele>
  <time>2026-08-27T18:31:28Z</time>
  <course>8.33</course>
  <speed>0.2193171219946131</speed>
  <fix>3d</fix>
</trkpt>
<trkpt lat="40.0728155" lon="-105.2306088">
  <ele>1596.13</ele>
  <time>2026-08-27T18:31:28Z</time>
  <course>230.3</course>
  <speed>0.23</speed>
  <fix>3d</fix>
</trkpt>
<trkpt lat="40.0728151" lon="-105.2306089">
  <ele>1596.4</ele>
  <time>2026-08-27T18:31:28Z</time>
  <course>8.33</course>
  <speed>0.2193171219946131</speed>
  <fix>3d</fix>
</trkpt>
<trkpt lat="40.0728149" lon="-105.2306093">
  <ele>1596.52</ele>
  <time>2026-08-27T18:31:28Z</time>
  <course>8.37</course>
  <speed>0.2193171219946131</speed>
  <fix>3d</fix>
</trkpt>
<trkpt lat="40.0728152" lon="-105.2306092">
  <ele>1596.26</ele>
  <time>2026-08-27T18:31:28Z</time>
  <course>230.91</course>
  <speed>0.23</speed>
  <fix>3d</fix>
</trkpt>
<trkpt lat="40.0728148" lon="-105.2306094">
  <ele>1596.54</ele>
  <time>2026-08-27T18:31:28Z</time>
  <course>8.38</course>
  <speed>0.2193171219946131</speed>
  <fix>3d</fix>
</trkpt>
<trkpt lat="40.0728146" lon="-105.2306097">
  <ele>1596.64</ele>
  <time>2026-08-27T18:31:28Z</time>
  <course>8.39</course>
  <speed>0.2262741699796952</speed>
  <fix>3d</fix>
</trkpt>
<trkpt lat="40.0728149" lon="-105.2306097">
  <ele>1596.39</ele>
  <time>2026-08-27T18:31:28Z</time>
  <course>231.51</course>
  <speed>0.23</speed>
  <fix>3d</fix>
</trkpt>
<trkpt lat="40.0728146" lon="-105.2306097">
  <ele>1596.64</ele>
  <time>2026-08-27T18:31:28Z</time>
  <course>8.4</course>
  <speed>0.2262741699796952</speed>
  <fix>3d</fix>
</trkpt>
<trkpt lat="40.0728144" lon="-105.2306101">
  <ele>1596.76</ele>
  <time>2026-08-27T18:31:28Z</time>
  <course>8.42</course>
  <speed>0.2262741699796952</speed>
  <fix>3d</fix>
</trkpt>
<trkpt lat="40.0728146" lon="-105.23061">
  <ele>1596.52</ele>
  <time>2026-08-27T18:31:28Z</time>
  <course>232.07</course>
  <speed>0.23</speed>
  <fix>3d</fix>
</trkpt>
<trkpt lat="40.0728143" lon="-105.2306102">
  <ele>1596.78</ele>
  <time>2026-08-27T18:31:28Z</time>
  <course>8.43</course>
  <speed>0.2262741699796952</speed>
  <fix>3d</fix>
</trkpt>
<trkpt lat="40.0728141" lon="-105.2306106">
  <ele>1596.89</ele>
  <time>2026-08-27T18:31:28Z</time>
  <course>8.44</course>
  <speed>0.2193171219946131</speed>
  <fix>3d</fix>
</trkpt>
<trkpt lat="40.0728144" lon="-105.2306105">
  <ele>1596.64</ele>
  <time>2026-08-27T18:31:28Z</time>
  <course>232.56</course>
  <speed>0.22</speed>
  <fix>3d</fix>
</trkpt>
<trkpt lat="40.0728141" lon="-105.2306106">
  <ele>1596.91</ele>
  <time>2026-08-27T18:31:28Z</time>
  <course>8.45</course>
  <speed>0.2193171219946131</speed>
  <fix>3d</fix>
</trkpt>
<trkpt lat="40.0728139" lon="-105.230611">
  <ele>1597.02</ele>
  <time>2026-08-27T18:31:28Z</time>
  <course>8.48</course>
  <speed>0.2193171219946131</speed>
  <fix>3d</fix>
</trkpt>
<trkpt lat="40.0728141" lon="-105.230611">
  <ele>1596.77</ele>
  <time>2026-08-27T18:31:28Z</time>
  <course>233.02</course>
  <speed>0.22</speed>
  <fix>3d</fix>
</trkpt>
<trkpt lat="40.0728139" lon="-105.230611">
  <ele>1597.02</ele>
  <time>2026-08-27T18:31:28Z</time>
  <course>8.48</course>
  <speed>0.2193171219946131</speed>
  <fix>3d</fix>
</trkpt>
<trkpt lat="40.0728136" lon="-105.2306114">
  <ele>1597.14</ele>
  <time>2026-08-27T18:31:28Z</time>
  <course>8.51</course>
  <speed>0.2193171219946131</speed>
  <fix>3d</fix>
</trkpt>
<trkpt lat="40.0728139" lon="-105.2306113">
  <ele>1596.9</ele>
  <time>2026-08-27T18:31:28Z</time>
  <course>233.55</course>
  <speed>0.22</speed>
  <fix>3d</fix>
</trkpt>
<trkpt lat="40.0728136" lon="-105.2306115">
  <ele>1597.16</ele>
  <time>2026-08-27T18:31:28Z</time>
  <course>8.51</course>
  <speed>0.2193171219946131</speed>
  <fix>3d</fix>
</trkpt>
<trkpt lat="40.0728134" lon="-105.2306119">
  <ele>1597.27</ele>
  <time>2026-08-27T18:31:28Z</time>
  <course>8.55</course>
  <speed>0.212602916254693</speed>
  <fix>3d</fix>
</trkpt>
<trkpt lat="40.0728137" lon="-105.2306117">
  <ele>1597.03</ele>
  <time>2026-08-27T18:31:28Z</time>
  <course>234.14</course>
  <speed>0.22</speed>
  <fix>3d</fix>
</trkpt>
<trkpt lat="40.0728133" lon="-105.2306119">
  <ele>1597.29</ele>
  <time>2026-08-27T18:31:28Z</time>
  <course>8.55</course>
  <speed>0.212602916254693</speed>
  <fix>3d</fix>
</trkpt>
<trkpt lat="40.0728132" lon="-105.2306123">
  <ele>1597.39</ele>
  <time>2026-08-27T18:31:28Z</time>
  <course>8.57</course>
  <speed>0.212602916254693</speed>
  <fix>3d</fix>
</trkpt>
<trkpt lat="40.0728134" lon="-105.2306122">
  <ele>1597.15</ele>
  <time>2026-08-27T18:31:28Z</time>
  <course>234.69</course>
  <speed>0.22</speed>
  <fix>3d</fix>
</trkpt>
<trkpt lat="40.0728131" lon="-105.2306124">
  <ele>1597.41</ele>
  <time>2026-08-27T18:31:28Z</time>
  <course>8.58</course>
  <speed>0.212602916254693</speed>
  <fix>3d</fix>
</trkpt>
<trkpt lat="40.0728129" lon="-105.2306127">
  <ele>1597.52</ele>
  <time>2026-08-27T18:31:28Z</time>
  <course>8.59</course>
  <speed>0.212602916254693</speed>
  <fix>3d</fix>
</trkpt>
<trkpt lat="40.0728132" lon="-105.2306127">
  <ele>1597.28</ele>
  <time>2026-08-27T18:31:28Z</time>
  <course>235.19</course>
  <speed>0.22</speed>
  <fix>3d</fix>
</trkpt>
<trkpt lat="40.0728129" lon="-105.2306128">
  <ele>1597.54</ele>
  <time>2026-08-27T18:31:28Z</time>
  <course>8.6</course>
  <speed>0.212602916254693</speed>
  <fix>3d</fix>
</trkpt>
<trkpt lat="40.0728127" lon="-105.2306132">
  <ele>1597.65</ele>
  <time>2026-08-27T18:31:28Z</time>
  <course>8.62</course>
  <speed>0.212602916254693</speed>
  <fix>3d</fix>
</trkpt>
<trkpt lat="40.0728129" lon="-105.2306131">
  <ele>1597.41</ele>
  <time>2026-08-27T18:31:28Z</time>
  <course>235.72</course>
  <speed>0.21</speed>
  <fix>3d</fix>
</trkpt>
<trkpt lat="40.0728127" lon="-105.2306132">
  <ele>1597.65</ele>
  <time>2026-08-27T18:31:28Z</time>
  <course>8.62</course>
  <speed>0.212602916254693</speed>
  <fix>3d</fix>
</trkpt>
<trkpt lat="40.0728125" lon="-105.2306136">
  <ele>1597.77</ele>
  <time>2026-08-27T18:31:28Z</time>
  <course>8.67</course>
  <speed>0.20615528128088303</speed>
  <fix>3d</fix>
</trkpt>
<trkpt lat="40.0728127" lon="-105.2306135">
  <ele>1597.54</ele>
  <time>2026-08-27T18:31:28Z</time>
  <course>236.3</course>
  <speed>0.21</speed>
  <fix>3d</fix>
</trkpt>
<trkpt lat="40.0728125" lon="-105.2306136">
  <ele>1597.79</ele>
  <time>2026-08-27T18:31:28Z</time>
  <course>8.67</course>
  <speed>0.20615528128088303</speed>
  <fix>3d</fix>
</trkpt>
<trkpt lat="40.0728123" lon="-105.230614">
  <ele>1597.9</ele>
  <time>2026-08-27T18:31:28Z</time>
  <course>8.69</course>
  <speed>0.20615528128088303</speed>
  <fix>3d</fix>
</trkpt>
<trkpt lat="40.0728126" lon="-105.2306139">
  <ele>1597.66</ele>
  <time>2026-08-27T18:31:28Z</time>
  <course>236.86</course>
  <speed>0.21</speed>
  <fix>3d</fix>
</trkpt>
<trkpt lat="40.0728122" lon="-105.2306141">
  <ele>1597.92</ele>
  <time>2026-08-27T18:31:28Z</time>
  <course>8.7</course>
  <speed>0.20615528128088303</speed>
  <fix>3d</fix>
</trkpt>
<trkpt lat="40.0728121" lon="-105.2306144">
  <ele>1598.03</ele>
  <time>2026-08-27T18:31:28Z</time>
  <course>8.7</course>
  <speed>0.20615528128088303</speed>
  <fix>3d</fix>
</trkpt>
<trkpt lat="40.0728123" lon="-105.2306143">
  <ele>1597.79</ele>
  <time>2026-08-27T18:31:28Z</time>
  <course>237.4</course>
  <speed>0.21</speed>
  <fix>3d</fix>
</trkpt>
<trkpt lat="40.0728121" lon="-105.2306144">
  <ele>1598.03</ele>
  <time>2026-08-27T18:31:28Z</time>
  <course>8.7</course>
  <speed>0.20615528128088303</speed>
  <fix>3d</fix>
</trkpt>
<trkpt lat="40.0728119" lon="-105.2306149">
  <ele>1598.16</ele>
  <time>2026-08-27T18:31:28Z</time>
  <course>8.76</course>
  <speed>0.2</speed>
  <fix>3d</fix>
</trkpt>
<trkpt lat="40.0728122" lon="-105.2306148">
  <ele>1597.92</ele>
  <time>2026-08-27T18:31:28Z</time>
  <course>237.99</course>
  <speed>0.21</speed>
  <fix>3d</fix>
</trkpt>
<trkpt lat="40.0728118" lon="-105.2306149">
  <ele>1598.18</ele>
  <time>2026-08-27T18:31:28Z</time>
  <course>8.76</course>
  <speed>0.2</speed>
  <fix>3d</fix>
</trkpt>
<trkpt lat="40.0728117" lon="-105.2306153">
  <ele>1598.29</ele>
  <time>2026-08-27T18:31:28Z</time>
  <course>8.79</course>
  <speed>0.2</speed>
  <fix>3d</fix>
</trkpt>
<trkpt lat="40.072812" lon="-105.2306151">
  <ele>1598.05</ele>
  <time>2026-08-27T18:31:28Z</time>
  <course>238.6</course>
  <speed>0.2</speed>
  <fix>3d</fix>
</trkpt>
<trkpt lat="40.0728117" lon="-105.2306153">
  <ele>1598.29</ele>
  <time>2026-08-27T18:31:28Z</time>
  <course>8.79</course>
  <speed>0.2</speed>
  <fix>3d</fix>
</trkpt>
<trkpt lat="40.0728115" lon="-105.2306157">
  <ele>1598.41</ele>
  <time>2026-08-27T18:31:28Z</time>
  <course>8.81</course>
  <speed>0.19209372712298545</speed>
  <fix>3d</fix>
</trkpt>
<trkpt lat="40.0728117" lon="-105.2306155">
  <ele>1598.17</ele>
  <time>2026-08-27T18:31:28Z</time>
  <course>239.16</course>
  <speed>0.2</speed>
  <fix>3d</fix>
</trkpt>
<trkpt lat="40.0728115" lon="-105.2306158">
  <ele>1598.43</ele>
  <time>2026-08-27T18:31:28Z</time>
  <course>8.82</course>
  <speed>0.19209372712298545</speed>
  <fix>3d</fix>
</trkpt>
<trkpt lat="40.0728113" lon="-105.2306161">
  <ele>1598.53</ele>
  <time>2026-08-27T18:31:28Z</time>
  <course>8.83</course>
  <speed>0.19209372712298545</speed>
  <fix>3d</fix>
</trkpt>
<trkpt lat="40.0728115" lon="-105.230616">
  <ele>1598.3</ele>
  <time>2026-08-27T18:31:28Z</time>
  <course>239.72</course>
  <speed>0.2</speed>
  <fix>3d</fix>
</trkpt>
<trkpt lat="40.0728113" lon="-105.2306162">
  <ele>1598.55</ele>
  <time>2026-08-27T18:31:28Z</time>
  <course>8.83</course>
  <speed>0.19209372712298545</speed>
  <fix>3d</fix>
</trkpt>
<trkpt lat="40.0728111" lon="-105.2306165">
  <ele>1598.66</ele>
  <time>2026-08-27T18:31:28Z</time>
  <course>8.86</course>
  <speed>0.18601075237738274</speed>
  <fix>3d</fix>
</trkpt>
<trkpt lat="40.0728114" lon="-105.2306164">
  <ele>1598.42</ele>
  <time>2026-08-27T18:31:28Z</time>
  <course>240.25</course>
  <speed>0.2</speed>
  <fix>3d</fix>
</trkpt>
<trkpt lat="40.0728111" lon="-105.2306166">
  <ele>1598.68</ele>
  <time>2026-08-27T18:31:28Z</time>
  <course>8.86</course>
  <speed>0.18601075237738274</speed>
  <fix>3d</fix>
</trkpt>
<trkpt lat="40.072811" lon="-105.2306169">
  <ele>1598.78</ele>
  <time>2026-08-27T18:31:28Z</time>
  <course>8.89</course>
  <speed>0.18601075237738274</speed>
  <fix>3d</fix>
</trkpt>
<trkpt lat="40.0728112" lon="-105.2306169">
  <ele>1598.55</ele>
  <time>2026-08-27T18:31:28Z</time>
  <course>240.77</course>
  <speed>0.2</speed>
  <fix>3d</fix>
</trkpt>
<trkpt lat="40.0728109" lon="-105.230617">
  <ele>1598.8</ele>
  <time>2026-08-27T18:31:28Z</time>
  <course>8.89</course>
  <speed>0.18601075237738274</speed>
  <fix>3d</fix>
</trkpt>
<trkpt lat="40.0728108" lon="-105.2306174">
  <ele>1598.91</ele>
  <time>2026-08-27T18:31:28Z</time>
  <course>8.89</course>
  <speed>0.18601075237738274</speed>
  <fix>3d</fix>
</trkpt>
<trkpt lat="40.072811" lon="-105.2306172">
  <ele>1598.67</ele>
  <time>2026-08-27T18:31:28Z</time>
  <course>241.28</course>
  <speed>0.2</speed>
  <fix>3d</fix>
</trkpt>
<trkpt lat="40.0728108" lon="-105.2306174">
  <ele>1598.91</ele>
  <time>2026-08-27T18:31:28Z</time>
  <course>8.89</course>
  <speed>0.18601075237738274</speed>
  <fix>3d</fix>
</trkpt>
<trkpt lat="40.0728106" lon="-105.2306178">
  <ele>1599.03</ele>
  <time>2026-08-27T18:31:28Z</time>
  <course>8.93</course>
  <speed>0.18601075237738274</speed>
  <fix>3d</fix>
</trkpt>
<trkpt lat="40.0728109" lon="-105.2306177">
  <ele>1598.8</ele>
  <time>2026-08-27T18:31:28Z</time>
  <course>241.82</course>
  <speed>0.2</speed>
  <fix>3d</fix>
</trkpt>
<trkpt lat="40.0728106" lon="-105.2306178">
  <ele>1599.05</ele>
  <time>2026-08-27T18:31:28Z</time>
  <course>8.92</course>
  <speed>0.18601075237738274</speed>
  <fix>3d</fix>
</trkpt>
<trkpt lat="40.0728105" lon="-105.2306182">
  <ele>1599.16</ele>
  <time>2026-08-27T18:31:28Z</time>
  <course>8.95</course>
  <speed>0.18027756377319945</speed>
  <fix>3d</fix>
</trkpt>
<trkpt lat="40.0728107" lon="-105.230618">
  <ele>1598.92</ele>
  <time>2026-08-27T18:31:28Z</time>
  <course>242.37</course>
  <speed>0.19</speed>
  <fix>3d</fix>
</trkpt>
<trkpt lat="40.0728104" lon="-105.2306183">
  <ele>1599.18</ele>
  <time>2026-08-27T18:31:28Z</time>
  <course>8.94</course>
  <speed>0.18027756377319945</speed>
  <fix>3d</fix>
</trkpt>
<trkpt lat="40.0728103" lon="-105.2306186">
  <ele>1599.28</ele>
  <time>2026-08-27T18:31:28Z</time>
  <course>8.96</course>
  <speed>0.18027756377319945</speed>
  <fix>3d</fix>
</trkpt>
<trkpt lat="40.0728105" lon="-105.2306184">
  <ele>1599.05</ele>
  <time>2026-08-27T18:31:28Z</time>
  <course>242.91</course>
  <speed>0.19</speed>
  <fix>3d</fix>
</trkpt>
<trkpt lat="40.0728103" lon="-105.2306187">
  <ele>1599.3</ele>
  <time>2026-08-27T18:31:28Z</time>
  <course>8.97</course>
  <speed>0.18027756377319945</speed>
  <fix>3d</fix>
</trkpt>
<trkpt lat="40.0728101" lon="-105.230619">
  <ele>1599.41</ele>
  <time>2026-08-27T18:31:28Z</time>
  <course>8.96</course>
  <speed>0.18027756377319945</speed>
  <fix>3d</fix>
</trkpt>
<trkpt lat="40.0728103" lon="-105.2306189">
  <ele>1599.17</ele>
  <time>2026-08-27T18:31:28Z</time>
  <course>243.43</course>
  <speed>0.19</speed>
  <fix>3d</fix>
</trkpt>
<trkpt lat="40.0728101" lon="-105.2306191">
  <ele>1599.43</ele>
  <time>2026-08-27T18:31:28Z</time>
  <course>8.97</course>
  <speed>0.18027756377319945</speed>
  <fix>3d</fix>
</trkpt>
<trkpt lat="40.07281" lon="-105.2306194">
  <ele>1599.54</ele>
  <time>2026-08-27T18:31:28Z</time>
  <course>9.01</course>
  <speed>0.18027756377319945</speed>
  <fix>3d</fix>
</trkpt>
<trkpt lat="40.0728102" lon="-105.2306193">
  <ele>1599.3</ele>
  <time>2026-08-27T18:31:28Z</time>
  <course>243.94</course>
  <speed>0.19</speed>
  <fix>3d</fix>
</trkpt>
<trkpt lat="40.07281" lon="-105.2306194">
  <ele>1599.54</ele>
  <time>2026-08-27T18:31:28Z</time>
  <course>9.01</course>
  <speed>0.18027756377319945</speed>
  <fix>3d</fix>
</trkpt>
<trkpt lat="40.0728098" lon="-105.2306198">
  <ele>1599.67</ele>
  <time>2026-08-27T18:31:28Z</time>
  <course>9.04</course>
  <speed>0.17492855684535902</speed>
  <fix>3d</fix>
</trkpt>
<trkpt lat="40.0728101" lon="-105.2306198">
  <ele>1599.42</ele>
  <time>2026-08-27T18:31:28Z</time>
  <course>244.45</course>
  <speed>0.19</speed>
  <fix>3d</fix>
</trkpt>
<trkpt lat="40.0728098" lon="-105.2306199">
  <ele>1599.69</ele>
  <time>2026-08-27T18:31:28Z</time>
  <course>9.05</course>
  <speed>0.17492855684535902</speed>
  <fix>3d</fix>
</trkpt>
<trkpt lat="40.0728097" lon="-105.2306202">
  <ele>1599.8</ele>
  <time>2026-08-27T18:31:28Z</time>
  <course>9.06</course>
  <speed>0.17492855684535902</speed>
  <fix>3d</fix>
</trkpt>
<trkpt lat="40.0728099" lon="-105.2306202">
  <ele>1599.55</ele>
  <time>2026-08-27T18:31:28Z</time>
  <course>244.92</course>
  <speed>0.19</speed>
  <fix>3d</fix>
</trkpt>
<trkpt lat="40.0728097" lon="-105.2306203">
  <ele>1599.82</ele>
  <time>2026-08-27T18:31:28Z</time>
  <course>9.07</course>
  <speed>0.17492855684535902</speed>
  <fix>3d</fix>
</trkpt>
<trkpt lat="40.0728096" lon="-105.2306207">
  <ele>1599.92</ele>
  <time>2026-08-27T18:31:28Z</time>
  <course>9.1</course>
  <speed>0.17492855684535902</speed>
  <fix>3d</fix>
</trkpt>
<trkpt lat="40.0728098" lon="-105.2306206">
  <ele>1599.67</ele>
  <time>2026-08-27T18:31:28Z</time>
  <course>245.43</course>
  <speed>0.19</speed>
  <fix>3d</fix>
</trkpt>
<trkpt lat="40.0728095" lon="-105.2306207">
  <ele>1599.94</ele>
  <time>2026-08-27T18:31:28Z</time>
  <course>9.1</course>
  <speed>0.17492855684535902</speed>
  <fix>3d</fix>
</trkpt>
<trkpt lat="40.0728094" lon="-105.2306211">
  <ele>1600.04</ele>
  <time>2026-08-27T18:31:28Z</time>
  <course>9.11</course>
  <speed>0.17492855684535902</speed>
  <fix>3d</fix>
</trkpt>
<trkpt lat="40.0728096" lon="-105.230621">
  <ele>1599.8</ele>
  <time>2026-08-27T18:31:28Z</time>
  <course>245.97</course>
  <speed>0.19</speed>
  <fix>3d</fix>
</trkpt>
<trkpt lat="40.0728094" lon="-105.2306211">
  <ele>1600.06</ele>
  <time>2026-08-27T18:31:28Z</time>
  <course>9.11</course>
  <speed>0.17492855684535902</speed>
  <fix>3d</fix>
</trkpt>
<trkpt lat="40.0728093" lon="-105.2306215">
  <ele>1600.17</ele>
  <time>2026-08-27T18:31:28Z</time>
  <course>9.12</course>
  <speed>0.17</speed>
  <fix>3d</fix>
</trkpt>
<trkpt lat="40.0728095" lon="-105.2306213">
  <ele>1599.92</ele>
  <time>2026-08-27T18:31:28Z</time>
  <course>246.53</course>
  <speed>0.18</speed>
  <fix>3d</fix>
</trkpt>
<trkpt lat="40.0728093" lon="-105.2306215">
  <ele>1600.17</ele>
  <time>2026-08-27T18:31:28Z</time>
  <course>9.12</course>
  <speed>0.17</speed>
  <fix>3d</fix>
</trkpt>
<trkpt lat="40.0728092" lon="-105.2306219">
  <ele>1600.29</ele>
  <time>2026-08-27T18:31:28Z</time>
  <course>9.12</course>
  <speed>0.17</speed>
  <fix>3d</fix>
</trkpt>
<trkpt lat="40.0728094" lon="-105.2306218">
  <ele>1600.05</ele>
  <time>2026-08-27T18:31:28Z</time>
  <course>247.2</course>
  <speed>0.18</speed>
  <fix>3d</fix>
</trkpt>
<trkpt lat="40.0728092" lon="-105.230622">
  <ele>1600.31</ele>
  <time>2026-08-27T18:31:28Z</time>
  <course>9.12</course>
  <speed>0.17</speed>
  <fix>3d</fix>
</trkpt>
<trkpt lat="40.0728091" lon="-105.2306223">
  <ele>1600.41</ele>
  <time>2026-08-27T18:31:28Z</time>
  <course>9.13</course>
  <speed>0.17</speed>
  <fix>3d</fix>
</trkpt>
<trkpt lat="40.0728092" lon="-105.2306222">
  <ele>1600.17</ele>
  <time>2026-08-27T18:31:28Z</time>
  <course>247.76</course>
  <speed>0.18</speed>
  <fix>3d</fix>
</trkpt>
<trkpt lat="40.072809" lon="-105.2306224">
  <ele>1600.43</ele>
  <time>2026-08-27T18:31:28Z</time>
  <course>9.13</course>
  <speed>0.17</speed>
  <fix>3d</fix>
</trkpt>
<trkpt lat="40.0728089" lon="-105.2306227">
  <ele>1600.53</ele>
  <time>2026-08-27T18:31:28Z</time>
  <course>9.15</course>
  <speed>0.17</speed>
  <fix>3d</fix>
</trkpt>
<trkpt lat="40.0728091" lon="-105.2306226">
  <ele>1600.3</ele>
  <time>2026-08-27T18:31:28Z</time>
  <course>248.17</course>
  <speed>0.18</speed>
  <fix>3d</fix>
</trkpt>
<trkpt lat="40.0728089" lon="-105.2306228">
  <ele>1600.55</ele>
  <time>2026-08-27T18:31:28Z</time>
  <course>9.14</course>
  <speed>0.17</speed>
  <fix>3d</fix>
</trkpt>
<trkpt lat="40.0728088" lon="-105.2306231">
  <ele>1600.65</ele>
  <time>2026-08-27T18:31:28Z</time>
  <course>9.16</course>
  <speed>0.17</speed>
  <fix>3d</fix>
</trkpt>
<trkpt lat="40.072809" lon="-105.230623">
  <ele>1600.42</ele>
  <time>2026-08-27T18:31:28Z</time>
  <course>248.6</course>
  <speed>0.18</speed>
  <fix>3d</fix>
</trkpt>
<trkpt lat="40.0728088" lon="-105.2306232">
  <ele>1600.67</ele>
  <time>2026-08-27T18:31:28Z</time>
  <course>9.16</course>
  <speed>0.17</speed>
  <fix>3d</fix>
</trkpt>
<trkpt lat="40.0728087" lon="-105.2306235">
  <ele>1600.78</ele>
  <time>2026-08-27T18:31:28Z</time>
  <course>9.17</course>
  <speed>0.17</speed>
  <fix>3d</fix>
</trkpt>
<trkpt lat="40.0728089" lon="-105.2306234">
  <ele>1600.55</ele>
  <time>2026-08-27T18:31:28Z</time>
  <course>249.06</course>
  <speed>0.18</speed>
  <fix>3d</fix>
</trkpt>
<trkpt lat="40.0728087" lon="-105.2306236">
  <ele>1600.8</ele>
  <time>2026-08-27T18:31:28Z</time>
  <course>9.18</course>
  <speed>0.17</speed>
  <fix>3d</fix>
</trkpt>
<trkpt lat="40.0728086" lon="-105.2306239">
  <ele>1600.9</ele>
  <time>2026-08-27T18:31:28Z</time>
  <course>9.18</course>
  <speed>0.16552945357246848</speed>
  <fix>3d</fix>
</trkpt>
<trkpt lat="40.0728087" lon="-105.2306237">
  <ele>1600.68</ele>
  <time>2026-08-27T18:31:28Z</time>
  <course>249.51</course>
  <speed>0.18</speed>
  <fix>3d</fix>
</trkpt>
<trkpt lat="40.0728086" lon="-105.2306239">
  <ele>1600.9</ele>
  <time>2026-08-27T18:31:28Z</time>
  <course>9.18</course>
  <speed>0.16552945357246848</speed>
  <fix>3d</fix>
</trkpt>
<trkpt lat="40.0728085" lon="-105.2306243">
  <ele>1601.03</ele>
  <time>2026-08-27T18:31:28Z</time>
  <course>9.19</course>
  <speed>0.16552945357246848</speed>
  <fix>3d</fix>
</trkpt>
<trkpt lat="40.0728086" lon="-105.2306242">
  <ele>1600.81</ele>
  <time>2026-08-27T18:31:28Z</time>
  <course>249.98</course>
  <speed>0.18</speed>
  <fix>3d</fix>
</trkpt>
<trkpt lat="40.0728085" lon="-105.2306244">
  <ele>1601.05</ele>
  <time>2026-08-27T18:31:28Z</time>
  <course>9.19</course>
  <speed>0.16552945357246848</speed>
  <fix>3d</fix>
</trkpt>
<trkpt lat="40.0728084" lon="-105.2306247">
  <ele>1601.17</ele>
  <time>2026-08-27T18:31:28Z</time>
  <course>9.22</course>
  <speed>0.16552945357246848</speed>
  <fix>3d</fix>
</trkpt>
<trkpt lat="40.0728085" lon="-105.2306246">
  <ele>1600.94</ele>
  <time>2026-08-27T18:31:28Z</time>
  <course>250.46</course>
  <speed>0.18</speed>
  <fix>3d</fix>
</trkpt>
<trkpt lat="40.0728083" lon="-105.2306248">
  <ele>1601.19</ele>
  <time>2026-08-27T18:31:28Z</time>
  <course>9.22</course>
  <speed>0.16552945357246848</speed>
  <fix>3d</fix>
</trkpt>
<trkpt lat="40.0728082" lon="-105.2306252">
  <ele>1601.3</ele>
  <time>2026-08-27T18:31:28Z</time>
  <course>9.27</course>
  <speed>0.16552945357246848</speed>
  <fix>3d</fix>
</trkpt>
<trkpt lat="40.0728084" lon="-105.2306251">
  <ele>1601.07</ele>
  <time>2026-08-27T18:31:28Z</time>
  <course>250.94</course>
  <speed>0.18</speed>
  <fix>3d</fix>
</trkpt>
<trkpt lat="40.0728082" lon="-105.2306252">
  <ele>1601.32</ele>
  <time>2026-08-27T18:31:28Z</time>
  <course>9.27</course>
  <speed>0.16552945357246848</speed>
  <fix>3d</fix>
</trkpt>
<trkpt lat="40.0728081" lon="-105.2306256">
  <ele>1601.43</ele>
  <time>2026-08-27T18:31:28Z</time>
  <course>9.29</course>
  <speed>0.16552945357246848</speed>
  <fix>3d</fix>
</trkpt>
<trkpt lat="40.0728083" lon="-105.2306255">
  <ele>1601.19</ele>
  <time>2026-08-27T18:31:28Z</time>
  <course>251.37</course>
  <speed>0.18</speed>
  <fix>3d</fix>
</trkpt>
<trkpt lat="40.0728081" lon="-105.2306256">
  <ele>1601.45</ele>
  <time>2026-08-27T18:31:28Z</time>
  <course>9.3</course>
  <speed>0.16552945357246848</speed>
  <fix>3d</fix>
</trkpt>
<trkpt lat="40.072808" lon="-105.230626">
  <ele>1601.56</ele>
  <time>2026-08-27T18:31:28Z</time>
  <course>9.31</course>
  <speed>0.16552945357246848</speed>
  <fix>3d</fix>
</trkpt>
<trkpt lat="40.0728082" lon="-105.2306258">
  <ele>1601.32</ele>
  <time>2026-08-27T18:31:28Z</time>
  <course>251.84</course>
  <speed>0.18</speed>
  <fix>3d</fix>
</trkpt>
<trkpt lat="40.072808" lon="-105.230626">
  <ele>1601.56</ele>
  <time>2026-08-27T18:31:28Z</time>
  <course>9.31</course>
  <speed>0.16552945357246848</speed>
  <fix>3d</fix>
</trkpt>
<trkpt lat="40.0728079" lon="-105.2306264">
  <ele>1601.69</ele>
  <time>2026-08-27T18:31:28Z</time>
  <course>9.32</course>
  <speed>0.1615549442140351</speed>
  <fix>3d</fix>
</trkpt>
<trkpt lat="40.0728081" lon="-105.2306263">
  <ele>1601.45</ele>
  <time>2026-08-27T18:31:28Z</time>
  <course>252.36</course>
  <speed>0.18</speed>
  <fix>3d</fix>
</trkpt>
<trkpt lat="40.0728079" lon="-105.2306264">
  <ele>1601.71</ele>
  <time>2026-08-27T18:31:28Z</time>
  <course>9.33</course>
  <speed>0.1615549442140351</speed>
  <fix>3d</fix>
</trkpt>
<trkpt lat="40.0728079" lon="-105.2306268">
  <ele>1601.82</ele>
  <time>2026-08-27T18:31:28Z</time>
  <course>9.37</course>
  <speed>0.1615549442140351</speed>
  <fix>3d</fix>
</trkpt>
<trkpt lat="40.072808" lon="-105.2306266">
  <ele>1601.57</ele>
  <time>2026-08-27T18:31:28Z</time>
  <course>252.83</course>
  <speed>0.18</speed>
  <fix>3d</fix>
</trkpt>
<trkpt lat="40.0728078" lon="-105.2306268">
  <ele>1601.84</ele>
  <time>2026-08-27T18:31:28Z</time>
  <course>9.37</course>
  <speed>0.1615549442140351</speed>
  <fix>3d</fix>
</trkpt>
<trkpt lat="40.0728078" lon="-105.2306272">
  <ele>1601.94</ele>
  <time>2026-08-27T18:31:28Z</time>
  <course>9.4</course>
  <speed>0.1615549442140351</speed>
  <fix>3d</fix>
</trkpt>
<trkpt lat="40.0728079" lon="-105.230627">
  <ele>1601.7</ele>
  <time>2026-08-27T18:31:28Z</time>
  <course>253.26</course>
  <speed>0.18</speed>
  <fix>3d</fix>
</trkpt>
<trkpt lat="40.0728077" lon="-105.2306272">
  <ele>1601.96</ele>
  <time>2026-08-27T18:31:28Z</time>
  <course>9.4</course>
  <speed>0.1615549442140351</speed>
  <fix>3d</fix>
</trkpt>
<trkpt lat="40.0728077" lon="-105.2306276">
  <ele>1602.07</ele>
  <time>2026-08-27T18:31:28Z</time>
  <course>9.39</course>
  <speed>0.1615549442140351</speed>
  <fix>3d</fix>
</trkpt>
<trkpt lat="40.0728078" lon="-105.2306275">
  <ele>1601.82</ele>
  <time>2026-08-27T18:31:28Z</time>
  <course>253.69</course>
  <speed>0.18</speed>
  <fix>3d</fix>
</trkpt>
<trkpt lat="40.0728077" lon="-105.2306276">
  <ele>1602.07</ele>
  <time>2026-08-27T18:31:28Z</time>
  <course>9.39</course>
  <speed>0.1615549442140351</speed>
  <fix>3d</fix>
</trkpt>
<trkpt lat="40.0728076" lon="-105.230628">
  <ele>1602.19</ele>
  <time>2026-08-27T18:31:28Z</time>
  <course>9.4</course>
  <speed>0.1615549442140351</speed>
  <fix>3d</fix>
</trkpt>
<trkpt lat="40.0728077" lon="-105.2306279">
  <ele>1601.94</ele>
  <time>2026-08-27T18:31:28Z</time>
  <course>254.11</course>
  <speed>0.17</speed>
  <fix>3d</fix>
</trkpt>
<trkpt lat="40.0728076" lon="-105.2306281">
  <ele>1602.21</ele>
  <time>2026-08-27T18:31:28Z</time>
  <course>9.41</course>
  <speed>0.1615549442140351</speed>
  <fix>3d</fix>
</trkpt>
<trkpt lat="40.0728075" lon="-105.2306284">
  <ele>1602.31</ele>
  <time>2026-08-27T18:31:28Z</time>
  <course>9.39</course>
  <speed>0.1615549442140351</speed>
  <fix>3d</fix>
</trkpt>
<trkpt lat="40.0728076" lon="-105.2306282">
  <ele>1602.06</ele>
  <time>2026-08-27T18:31:28Z</time>
  <course>254.52</course>
  <speed>0.17</speed>
  <fix>3d</fix>
</trkpt>
<trkpt lat="40.0728075" lon="-105.2306284">
  <ele>1602.31</ele>
  <time>2026-08-27T18:31:28Z</time>
  <course>9.39</course>
  <speed>0.1615549442140351</speed>
  <fix>3d</fix>
</trkpt>
<trkpt lat="40.0728074" lon="-105.2306288">
  <ele>1602.43</ele>
  <time>2026-08-27T18:31:28Z</time>
  <course>9.4</course>
  <speed>0.1615549442140351</speed>
  <fix>3d</fix>
</trkpt>
<trkpt lat="40.0728075" lon="-105.2306287">
  <ele>1602.17</ele>
  <time>2026-08-27T18:31:28Z</time>
  <course>254.92</course>
  <speed>0.17</speed>
  <fix>3d</fix>
</trkpt>
<trkpt lat="40.0728074" lon="-105.2306289">
  <ele>1602.45</ele>
  <time>2026-08-27T18:31:28Z</time>
  <course>9.4</course>
  <speed>0.1615549442140351</speed>
  <fix>3d</fix>
</trkpt>
<trkpt lat="40.0728073" lon="-105.2306292">
  <ele>1602.55</ele>
  <time>2026-08-27T18:31:28Z</time>
  <course>9.41</course>
  <speed>0.1615549442140351</speed>
  <fix>3d</fix>
</trkpt>
<trkpt lat="40.0728074" lon="-105.230629">
  <ele>1602.3</ele>
  <time>2026-08-27T18:31:28Z</time>
  <course>255.3</course>
  <speed>0.17</speed>
  <fix>3d</fix>
</trkpt>
<trkpt lat="40.0728073" lon="-105.2306293">
  <ele>1602.57</ele>
  <time>2026-08-27T18:31:28Z</time>
  <course>9.42</course>
  <speed>0.1615549442140351</speed>
  <fix>3d</fix>
</trkpt>
<trkpt lat="40.0728072" lon="-105.2306296">
  <ele>1602.67</ele>
  <time>2026-08-27T18:31:28Z</time>
  <course>9.41</course>
  <speed>0.15811388300841897</speed>
  <fix>3d</fix>
</trkpt>
<trkpt lat="40.0728074" lon="-105.2306294">
  <ele>1602.42</ele>
  <time>2026-08-27T18:31:28Z</time>
  <course>255.67</course>
  <speed>0.17</speed>
  <fix>3d</fix>
</trkpt>
<trkpt lat="40.0728072" lon="-105.2306296">
  <ele>1602.67</ele>
  <time>2026-08-27T18:31:28Z</time>
  <course>9.41</course>
  <speed>0.15811388300841897</speed>
  <fix>3d</fix>
</trkpt>
<trkpt lat="40.0728072" lon="-105.23063">
  <ele>1602.8</ele>
  <time>2026-08-27T18:31:28Z</time>
  <course>9.44</course>
  <speed>0.15811388300841897</speed>
  <fix>3d</fix>
</trkpt>
<trkpt lat="40.0728073" lon="-105.2306299">
  <ele>1602.55</ele>
  <time>2026-08-27T18:31:28Z</time>
  <course>256.08</course>
  <speed>0.17</speed>
  <fix>3d</fix>
</trkpt>
<trkpt lat="40.0728072" lon="-105.23063">
  <ele>1602.82</ele>
  <time>2026-08-27T18:31:28Z</time>
  <course>9.44</course>
  <speed>0.15811388300841897</speed>
  <fix>3d</fix>
</trkpt>
<trkpt lat="40.0728071" lon="-105.2306304">
  <ele>1602.92</ele>
  <time>2026-08-27T18:31:28Z</time>
  <course>9.42</course>
  <speed>0.15811388300841897</speed>
  <fix>3d</fix>
</trkpt>
<trkpt lat="40.0728072" lon="-105.2306303">
  <ele>1602.67</ele>
  <time>2026-08-27T18:31:28Z</time>
  <course>256.54</course>
  <speed>0.17</speed>
  <fix>3d</fix>
</trkpt>
<trkpt lat="40.0728071" lon="-105.2306304">
  <ele>1602.92</ele>
  <time>2026-08-27T18:31:28Z</time>
  <course>9.42</course>
  <speed>0.15811388300841897</speed>
  <fix>3d</fix>
</trkpt>
<trkpt lat="40.072807" lon="-105.2306308">
  <ele>1603.05</ele>
  <time>2026-08-27T18:31:28Z</time>
  <course>9.43</course>
  <speed>0.15811388300841897</speed>
  <fix>3d</fix>
</trkpt>
<trkpt lat="40.0728072" lon="-105.2306306">
  <ele>1602.8</ele>
  <time>2026-08-27T18:31:28Z</time>
  <course>257.03</course>
  <speed>0.17</speed>
  <fix>3d</fix>
</trkpt>
<trkpt lat="40.072807" lon="-105.2306308">
  <ele>1603.07</ele>
  <time>2026-08-27T18:31:28Z</time>
  <course>9.43</course>
  <speed>0.15811388300841897</speed>
  <fix>3d</fix>
</trkpt>
<trkpt lat="40.072807" lon="-105.2306312">
  <ele>1603.17</ele>
  <time>2026-08-27T18:31:28Z</time>
  <course>9.46</course>
  <speed>0.15811388300841897</speed>
  <fix>3d</fix>
</trkpt>
<trkpt lat="40.0728071" lon="-105.2306311">
  <ele>1602.92</ele>
  <time>2026-08-27T18:31:28Z</time>
  <course>257.54</course>
  <speed>0.17</speed>
  <fix>3d</fix>
</trkpt>
<trkpt lat="40.072807" lon="-105.2306312">
  <ele>1603.2</ele>
  <time>2026-08-27T18:31:28Z</time>
  <course>9.47</course>
  <speed>0.15811388300841897</speed>
  <fix>3d</fix>
</trkpt>
<trkpt lat="40.0728069" lon="-105.2306316">
  <ele>1603.3</ele>
  <time>2026-08-27T18:31:28Z</time>
  <course>9.45</course>
  <speed>0.15811388300841897</speed>
  <fix>3d</fix>
</trkpt>
<trkpt lat="40.072807" lon="-105.2306314">
  <ele>1603.05</ele>
  <time>2026-08-27T18:31:28Z</time>
  <course>258.06</course>
  <speed>0.17</speed>
  <fix>3d</fix>
</trkpt>
<trkpt lat="40.0728069" lon="-105.2306316">
  <ele>1603.3</ele>
  <time>2026-08-27T18:31:28Z</time>
  <course>9.45</course>
  <speed>0.15811388300841897</speed>
  <fix>3d</fix>
</trkpt>
<trkpt lat="40.0728068" lon="-105.230632">
  <ele>1603.43</ele>
  <time>2026-08-27T18:31:28Z</time>
  <course>9.49</course>
  <speed>0.15524174696260024</speed>
  <fix>3d</fix>
</trkpt>
<trkpt lat="40.072807" lon="-105.2306318">
  <ele>1603.18</ele>
  <time>2026-08-27T18:31:28Z</time>
  <course>258.61</course>
  <speed>0.17</speed>
  <fix>3d</fix>
</trkpt>
<trkpt lat="40.0728068" lon="-105.230632">
  <ele>1603.43</ele>
  <time>2026-08-27T18:31:28Z</time>
  <course>9.49</course>
  <speed>0.15524174696260024</speed>
  <fix>3d</fix>
</trkpt>
<trkpt lat="40.0728068" lon="-105.2306324">
  <ele>1603.56</ele>
  <time>2026-08-27T18:31:28Z</time>
  <course>9.51</course>
  <speed>0.15524174696260024</speed>
  <fix>3d</fix>
</trkpt>
<trkpt lat="40.0728069" lon="-105.2306323">
  <ele>1603.31</ele>
  <time>2026-08-27T18:31:28Z</time>
  <course>259.17</course>
  <speed>0.17</speed>
  <fix>3d</fix>
</trkpt>
<trkpt lat="40.0728068" lon="-105.2306324">
  <ele>1603.58</ele>
  <time>2026-08-27T18:31:28Z</time>
  <course>9.51</course>
  <speed>0.15524174696260024</speed>
  <fix>3d</fix>
</trkpt>
<trkpt lat="40.0728067" lon="-105.2306328">
  <ele>1603.69</ele>
  <time>2026-08-27T18:31:28Z</time>
  <course>9.51</course>
  <speed>0.15524174696260024</speed>
  <fix>3d</fix>
</trkpt>
<trkpt lat="40.0728068" lon="-105.2306327">
  <ele>1603.43</ele>
  <time>2026-08-27T18:31:28Z</time>
  <course>259.69</course>
  <speed>0.17</speed>
  <fix>3d</fix>
</trkpt>
<trkpt lat="40.0728067" lon="-105.2306328">
  <ele>1603.69</ele>
  <time>2026-08-27T18:31:28Z</time>
  <course>9.51</course>
  <speed>0.15524174696260024</speed>
  <fix>3d</fix>
</trkpt>
<trkpt lat="40.0728067" lon="-105.2306332">
  <ele>1603.81</ele>
  <time>2026-08-27T18:31:28Z</time>
  <course>9.52</course>
  <speed>0.15524174696260024</speed>
  <fix>3d</fix>
</trkpt>
<trkpt lat="40.0728068" lon="-105.2306332">
  <ele>1603.56</ele>
  <time>2026-08-27T18:31:28Z</time>
  <course>260.2</course>
  <speed>0.17</speed>
  <fix>3d</fix>
</trkpt>
<trkpt lat="40.0728067" lon="-105.2306332">
  <ele>1603.83</ele>
  <time>2026-08-27T18:31:28Z</time>
  <course>9.52</course>
  <speed>0.15524174696260024</speed>
  <fix>3d</fix>
</trkpt>
<trkpt lat="40.0728066" lon="-105.2306336">
  <ele>1603.94</ele>
  <time>2026-08-27T18:31:28Z</time>
  <course>9.54</course>
  <speed>0.15524174696260024</speed>
  <fix>3d</fix>
</trkpt>
<trkpt lat="40.0728067" lon="-105.2306336">
  <ele>1603.68</ele>
  <time>2026-08-27T18:31:28Z</time>
  <course>260.71</course>
  <speed>0.17</speed>
  <fix>3d</fix>
</trkpt>
<trkpt lat="40.0728066" lon="-105.2306337">
  <ele>1603.95</ele>
  <time>2026-08-27T18:31:28Z</time>
  <course>9.53</course>
  <speed>0.15524174696260024</speed>
  <fix>3d</fix>
</trkpt>
<trkpt lat="40.0728066" lon="-105.230634">
  <ele>1604.06</ele>
  <time>2026-08-27T18:31:28Z</time>
  <course>9.55</course>
  <speed>0.15524174696260024</speed>
  <fix>3d</fix>
</trkpt>
<trkpt lat="40.0728067" lon="-105.230634">
  <ele>1603.81</ele>
  <time>2026-08-27T18:31:28Z</time>
  <course>261.21</course>
  <speed>0.17</speed>
  <fix>3d</fix>
</trkpt>
<trkpt lat="40.0728066" lon="-105.230634">
  <ele>1604.06</ele>
  <time>2026-08-27T18:31:28Z</time>
  <course>9.55</course>
  <speed>0.15524174696260024</speed>
  <fix>3d</fix>
</trkpt>
<trkpt lat="40.0728065" lon="-105.2306344">
  <ele>1604.19</ele>
  <time>2026-08-27T18:31:28Z</time>
  <course>9.55</course>
  <speed>0.15524174696260024</speed>
  <fix>3d</fix>
</trkpt>
<trkpt lat="40.0728067" lon="-105.2306344">
  <ele>1603.92</ele>
  <time>2026-08-27T18:31:28Z</time>
  <course>261.68</course>
  <speed>0.17</speed>
  <fix>3d</fix>
</trkpt>
<trkpt lat="40.0728065" lon="-105.2306345">
  <ele>1604.21</ele>
  <time>2026-08-27T18:31:28Z</time>
  <course>9.56</course>
  <speed>0.15524174696260024</speed>
  <fix>3d</fix>
</trkpt>
<trkpt lat="40.0728065" lon="-105.2306348">
  <ele>1604.31</ele>
  <time>2026-08-27T18:31:28Z</time>
  <course>9.56</course>
  <speed>0.15297058540778355</speed>
  <fix>3d</fix>
</trkpt>
<trkpt lat="40.0728066" lon="-105.2306347">
  <ele>1604.05</ele>
  <time>2026-08-27T18:31:28Z</time>
  <course>262.15</course>
  <speed>0.17</speed>
  <fix>3d</fix>
</trkpt>
<trkpt lat="40.0728065" lon="-105.2306348">
  <ele>1604.32</ele>
  <time>2026-08-27T18:31:28Z</time>
  <course>9.56</course>
  <speed>0.15297058540778355</speed>
  <fix>3d</fix>
</trkpt>
<trkpt lat="40.0728065" lon="-105.2306352">
  <ele>1604.44</ele>
  <time>2026-08-27T18:31:28Z</time>
  <course>9.58</course>
  <speed>0.15297058540778355</speed>
  <fix>3d</fix>
</trkpt>
<trkpt lat="40.0728066" lon="-105.2306352">
  <ele>1604.17</ele>
  <time>2026-08-27T18:31:28Z</time>
  <course>262.62</course>
  <speed>0.17</speed>
  <fix>3d</fix>
</trkpt>
<trkpt lat="40.0728065" lon="-105.2306353">
  <ele>1604.47</ele>
  <time>2026-08-27T18:31:28Z</time>
  <course>9.58</course>
  <speed>0.15297058540778355</speed>
  <fix>3d</fix>
</trkpt>
<trkpt lat="40.0728064" lon="-105.2306356">
  <ele>1604.57</ele>
  <time>2026-08-27T18:31:28Z</time>
  <course>9.59</course>
  <speed>0.15297058540778355</speed>
  <fix>3d</fix>
</trkpt>
<trkpt lat="40.0728065" lon="-105.2306356">
  <ele>1604.3</ele>
  <time>2026-08-27T18:31:28Z</time>
  <course>263.07</course>
  <speed>0.17</speed>
  <fix>3d</fix>
</trkpt>
<trkpt lat="40.0728064" lon="-105.2306357">
  <ele>1604.57</ele>
  <time>2026-08-27T18:31:28Z</time>
  <course>9.59</course>
  <speed>0.15297058540778355</speed>
  <fix>3d</fix>
</trkpt>
<trkpt lat="40.0728064" lon="-105.2306361">
  <ele>1604.69</ele>
  <time>2026-08-27T18:31:28Z</time>
  <course>9.6</course>
  <speed>0.15297058540778355</speed>
  <fix>3d</fix>
</trkpt>
<trkpt lat="40.0728065" lon="-105.230636">
  <ele>1604.42</ele>
  <time>2026-08-27T18:31:28Z</time>
  <course>263.53</course>
  <speed>0.17</speed>
  <fix>3d</fix>
</trkpt>
<trkpt lat="40.0728064" lon="-105.2306361">
  <ele>1604.71</ele>
  <time>2026-08-27T18:31:28Z</time>
  <course>9.59</course>
  <speed>0.15297058540778355</speed>
  <fix>3d</fix>
</trkpt>
<trkpt lat="40.0728064" lon="-105.2306365">
  <ele>1604.81</ele>
  <time>2026-08-27T18:31:28Z</time>
  <course>9.61</course>
  <speed>0.15297058540778355</speed>
  <fix>3d</fix>
</trkpt>
<trkpt lat="40.0728065" lon="-105.2306364">
  <ele>1604.55</ele>
  <time>2026-08-27T18:31:28Z</time>
  <course>263.99</course>
  <speed>0.17</speed>
  <fix>3d</fix>
</trkpt>
<trkpt lat="40.0728064" lon="-105.2306365">
  <ele>1604.83</ele>
  <time>2026-08-27T18:31:28Z</time>
  <course>9.61</course>
  <speed>0.15297058540778355</speed>
  <fix>3d</fix>
</trkpt>
<trkpt lat="40.0728063" lon="-105.2306369">
  <ele>1604.93</ele>
  <time>2026-08-27T18:31:28Z</time>
  <course>9.6</course>
  <speed>0.15297058540778355</speed>
  <fix>3d</fix>
</trkpt>
<trkpt lat="40.0728064" lon="-105.2306368">
  <ele>1604.67</ele>
  <time>2026-08-27T18:31:28Z</time>
  <course>264.42</course>
  <speed>0.17</speed>
  <fix>3d</fix>
</trkpt>
<trkpt lat="40.0728063" lon="-105.230637">
  <ele>1604.95</ele>
  <time>2026-08-27T18:31:28Z</time>
  <course>9.6</course>
  <speed>0.15297058540778355</speed>
  <fix>3d</fix>
</trkpt>
<trkpt lat="40.0728063" lon="-105.2306373">
  <ele>1605.05</ele>
  <time>2026-08-27T18:31:28Z</time>
  <course>9.6</course>
  <speed>0.15297058540778355</speed>
  <fix>3d</fix>
</trkpt>
<trkpt lat="40.0728064" lon="-105.2306371">
  <ele>1604.8</ele>
  <time>2026-08-27T18:31:28Z</time>
  <course>264.78</course>
  <speed>0.17</speed>
  <fix>3d</fix>
</trkpt>
<trkpt lat="40.0728063" lon="-105.2306374">
  <ele>1605.07</ele>
  <time>2026-08-27T18:31:28Z</time>
  <course>9.6</course>
  <speed>0.15297058540778355</speed>
  <fix>3d</fix>
</trkpt>
<trkpt lat="40.0728063" lon="-105.2306377">
  <ele>1605.17</ele>
  <time>2026-08-27T18:31:28Z</time>
  <course>9.59</course>
  <speed>0.15297058540778355</speed>
  <fix>3d</fix>
</trkpt>
<trkpt lat="40.0728064" lon="-105.2306376">
  <ele>1604.92</ele>
  <time>2026-08-27T18:31:28Z</time>
  <course>265.05</course>
  <speed>0.17</speed>
  <fix>3d</fix>
</trkpt>
<trkpt lat="40.0728063" lon="-105.2306377">
  <ele>1605.18</ele>
  <time>2026-08-27T18:31:28Z</time>
  <course>9.59</course>
  <speed>0.15297058540778355</speed>
  <fix>3d</fix>
</trkpt>
<trkpt lat="40.0728063" lon="-105.2306381">
  <ele>1605.3</ele>
  <time>2026-08-27T18:31:28Z</time>
  <course>9.6</course>
  <speed>0.15132745950421556</speed>
  <fix>3d</fix>
</trkpt>
<trkpt lat="40.0728064" lon="-105.230638">
  <ele>1605.05</ele>
  <time>2026-08-27T18:31:28Z</time>
  <course>265.35</course>
  <speed>0.17</speed>
  <fix>3d</fix>
</trkpt>
<trkpt lat="40.0728063" lon="-105.2306382">
  <ele>1605.32</ele>
  <time>2026-08-27T18:31:28Z</time>
  <course>9.59</course>
  <speed>0.15132745950421556</speed>
  <fix>3d</fix>
</trkpt>
<trkpt lat="40.0728062" lon="-105.2306385">
  <ele>1605.43</ele>
  <time>2026-08-27T18:31:28Z</time>
  <course>9.62</course>
  <speed>0.15132745950421556</speed>
  <fix>3d</fix>
</trkpt>
<trkpt lat="40.0728063" lon="-105.2306384">
  <ele>1605.18</ele>
  <time>2026-08-27T18:31:28Z</time>
  <course>265.69</course>
  <speed>0.17</speed>
  <fix>3d</fix>
</trkpt>
<trkpt lat="40.0728062" lon="-105.2306386">
  <ele>1605.45</ele>
  <time>2026-08-27T18:31:28Z</time>
  <course>9.61</course>
  <speed>0.15132745950421556</speed>
  <fix>3d</fix>
</trkpt>
<trkpt lat="40.0728062" lon="-105.2306389">
  <ele>1605.56</ele>
  <time>2026-08-27T18:31:28Z</time>
  <course>9.64</course>
  <speed>0.15132745950421556</speed>
  <fix>3d</fix>
</trkpt>
<trkpt lat="40.0728062" lon="-105.2306388">
  <ele>1605.31</ele>
  <time>2026-08-27T18:31:28Z</time>
  <course>266.0</course>
  <speed>0.17</speed>
  <fix>3d</fix>
</trkpt>
<trkpt lat="40.0728062" lon="-105.230639">
  <ele>1605.58</ele>
  <time>2026-08-27T18:31:28Z</time>
  <course>9.64</course>
  <speed>0.15132745950421556</speed>
  <fix>3d</fix>
</trkpt>
<trkpt lat="40.0728062" lon="-105.2306393">
  <ele>1605.69</ele>
  <time>2026-08-27T18:31:28Z</time>
  <course>9.64</course>
  <speed>0.15132745950421556</speed>
  <fix>3d</fix>
</trkpt>
<trkpt lat="40.0728062" lon="-105.2306392">
  <ele>1605.44</ele>
  <time>2026-08-27T18:31:28Z</time>
  <course>266.31</course>
  <speed>0.17</speed>
  <fix>3d</fix>
</trkpt>
<trkpt lat="40.0728062" lon="-105.2306394">
  <ele>1605.71</ele>
  <time>2026-08-27T18:31:28Z</time>
  <course>9.65</course>
  <speed>0.15132745950421556</speed>
  <fix>3d</fix>
</trkpt>
<trkpt lat="40.0728062" lon="-105.2306397">
  <ele>1605.82</ele>
  <time>2026-08-27T18:31:28Z</time>
  <course>9.66</course>
  <speed>0.15132745950421556</speed>
  <fix>3d</fix>
</trkpt>
<trkpt lat="40.0728062" lon="-105.2306396">
  <ele>1605.56</ele>
  <time>2026-08-27T18:31:28Z</time>
  <course>266.69</course>
  <speed>0.17</speed>
  <fix>3d</fix>
</trkpt>
<trkpt lat="40.0728062" lon="-105.2306397">
  <ele>1605.82</ele>
  <time>2026-08-27T18:31:28Z</time>
  <course>9.66</course>
  <speed>0.15132745950421556</speed>
  <fix>3d</fix>
</trkpt>
<trkpt lat="40.0728061" lon="-105.2306401">
  <ele>1605.94</ele>
  <time>2026-08-27T18:31:28Z</time>
  <course>9.68</course>
  <speed>0.15132745950421556</speed>
  <fix>3d</fix>
</trkpt>
<trkpt lat="40.0728062" lon="-105.23064">
  <ele>1605.69</ele>
  <time>2026-08-27T18:31:28Z</time>
  <course>267.1</course>
  <speed>0.17</speed>
  <fix>3d</fix>
</trkpt>
<trkpt lat="40.0728061" lon="-105.2306402">
  <ele>1605.96</ele>
  <time>2026-08-27T18:31:28Z</time>
  <course>9.68</course>
  <speed>0.15132745950421556</speed>
  <fix>3d</fix>
</trkpt>
<trkpt lat="40.0728061" lon="-105.2306405">
  <ele>1606.07</ele>
  <time>2026-08-27T18:31:28Z</time>
  <course>9.68</course>
  <speed>0.15132745950421556</speed>
  <fix>3d</fix>
</trkpt>
<trkpt lat="40.0728062" lon="-105.2306404">
  <ele>1605.82</ele>
  <time>2026-08-27T18:31:28Z</time>
  <course>267.49</course>
  <speed>0.17</speed>
  <fix>3d</fix>
</trkpt>
<trkpt lat="40.0728061" lon="-105.2306406">
  <ele>1606.09</ele>
  <time>2026-08-27T18:31:28Z</time>
  <course>9.69</course>
  <speed>0.15132745950421556</speed>
  <fix>3d</fix>
</trkpt>
<trkpt lat="40.0728061" lon="-105.2306409">
  <ele>1606.19</ele>
  <time>2026-08-27T18:31:28Z</time>
  <course>9.68</course>
  <speed>0.15132745950421556</speed>
  <fix>3d</fix>
</trkpt>
<trkpt lat="40.0728061" lon="-105.2306409">
  <ele>1605.94</ele>
  <time>2026-08-27T18:31:28Z</time>
  <course>267.88</course>
  <speed>0.17</speed>
  <fix>3d</fix>
</trkpt>
<trkpt lat="40.0728061" lon="-105.230641">
  <ele>1606.21</ele>
  <time>2026-08-27T18:31:28Z</time>
  <course>9.68</course>
  <speed>0.15132745950421556</speed>
  <fix>3d</fix>
</trkpt>
<trkpt lat="40.0728061" lon="-105.2306414">
  <ele>1606.32</ele>
  <time>2026-08-27T18:31:29Z</time>
  <course>9.68</course>
  <speed>0.15132745950421556</speed>
  <fix>3d</fix>
</trkpt>
<trkpt lat="40.0728061" lon="-105.2306413">
  <ele>1606.07</ele>
  <time>2026-08-27T18:31:29Z</time>
  <course>268.27</course>
  <speed>0.17</speed>
  <fix>3d</fix>
</trkpt>
<trkpt lat="40.0728061" lon="-105.2306414">
  <ele>1606.34</ele>
  <time>2026-08-27T18:31:29Z</time>
  <course>9.69</course>
  <speed>0.15132745950421556</speed>
  <fix>3d</fix>
</trkpt>
<trkpt lat="40.0728061" lon="-105.2306418">
  <ele>1606.44</ele>
  <time>2026-08-27T18:31:29Z</time>
  <course>9.69</course>
  <speed>0.15132745950421556</speed>
  <fix>3d</fix>
</trkpt>
<trkpt lat="40.0728061" lon="-105.2306416">
  <ele>1606.19</ele>
  <time>2026-08-27T18:31:29Z</time>
  <course>268.68</course>
  <speed>0.17</speed>
  <fix>3d</fix>
</trkpt>
<trkpt lat="40.0728061" lon="-105.2306418">
  <ele>1606.44</ele>
  <time>2026-08-27T18:31:29Z</time>
  <course>9.69</course>
  <speed>0.15132745950421556</speed>
  <fix>3d</fix>
</trkpt>
<trkpt lat="40.0728061" lon="-105.2306422">
  <ele>1606.57</ele>
  <time>2026-08-27T18:31:29Z</time>
  <course>9.71</course>
  <speed>0.15132745950421556</speed>
  <fix>3d</fix>
</trkpt>
<trkpt lat="40.0728061" lon="-105.2306421">
  <ele>1606.32</ele>
  <time>2026-08-27T18:31:29Z</time>
  <course>269.03</course>
  <speed>0.17</speed>
  <fix>3d</fix>
</trkpt>
<trkpt lat="40.0728061" lon="-105.2306423">
  <ele>1606.59</ele>
  <time>2026-08-27T18:31:29Z</time>
  <course>9.71</course>
  <speed>0.15132745950421556</speed>
  <fix>3d</fix>
</trkpt>
<trkpt lat="40.0728061" lon="-105.2306426">
  <ele>1606.69</ele>
  <time>2026-08-27T18:31:29Z</time>
  <course>9.71</course>
  <speed>0.15132745950421556</speed>
  <fix>3d</fix>
</trkpt>
<trkpt lat="40.0728061" lon="-105.2306424">
  <ele>1606.44</ele>
  <time>2026-08-27T18:31:29Z</time>
  <course>269.26</course>
  <speed>0.17</speed>
  <fix>3d</fix>
</trkpt>
<trkpt lat="40.0728061" lon="-105.2306427">
  <ele>1606.71</ele>
  <time>2026-08-27T18:31:29Z</time>
  <course>9.71</course>
  <speed>0.15132745950421556</speed>
  <fix>3d</fix>
</trkpt>
<trkpt lat="40.0728061" lon="-105.230643">
  <ele>1606.82</ele>
  <time>2026-08-27T18:31:29Z</time>
  <course>9.69</course>
  <speed>0.15033296378372907</speed>
  <fix>3d</fix>
</trkpt>
<trkpt lat="40.0728061" lon="-105.2306428">
  <ele>1606.57</ele>
  <time>2026-08-27T18:31:29Z</time>
  <course>269.48</course>
  <speed>0.17</speed>
  <fix>3d</fix>
</trkpt>
<trkpt lat="40.0728061" lon="-105.2306431">
  <ele>1606.85</ele>
  <time>2026-08-27T18:31:29Z</time>
  <course>9.7</course>
  <speed>0.15033296378372907</speed>
  <fix>3d</fix>
</trkpt>
<trkpt lat="40.072806" lon="-105.2306434">
  <ele>1606.95</ele>
  <time>2026-08-27T18:31:29Z</time>
  <course>9.73</course>
  <speed>0.15033296378372907</speed>
  <fix>3d</fix>
</trkpt>
<trkpt lat="40.0728061" lon="-105.2306433">
  <ele>1606.7</ele>
  <time>2026-08-27T18:31:29Z</time>
  <course>269.74</course>
  <speed>0.17</speed>
  <fix>3d</fix>
</trkpt>
<trkpt lat="40.072806" lon="-105.2306435">
  <ele>1606.97</ele>
  <time>2026-08-27T18:31:29Z</time>
  <course>9.73</course>
  <speed>0.15033296378372907</speed>
  <fix>3d</fix>
</trkpt>
<trkpt lat="40.072806" lon="-105.2306438">
  <ele>1607.07</ele>
  <time>2026-08-27T18:31:29Z</time>
  <course>9.74</course>
  <speed>0.15033296378372907</speed>
  <fix>3d</fix>
</trkpt>
<trkpt lat="40.0728061" lon="-105.2306437">
  <ele>1606.82</ele>
  <time>2026-08-27T18:31:29Z</time>
  <course>269.99</course>
  <speed>0.17</speed>
  <fix>3d</fix>
</trkpt>
<trkpt lat="40.072806" lon="-105.2306438">
  <ele>1607.07</ele>
  <time>2026-08-27T18:31:29Z</time>
  <course>9.74</course>
  <speed>0.15033296378372907</speed>
  <fix>3d</fix>
</trkpt>
<trkpt lat="40.072806" lon="-105.2306442">
  <ele>1607.19</ele>
  <time>2026-08-27T18:31:29Z</time>
  <course>9.73</course>
  <speed>0.15033296378372907</speed>
  <fix>3d</fix>
</trkpt>
<trkpt lat="40.0728061" lon="-105.2306441">
  <ele>1606.95</ele>
  <time>2026-08-27T18:31:29Z</time>
  <course>270.23</course>
  <speed>0.17</speed>
  <fix>3d</fix>
</trkpt>
<trkpt lat="40.072806" lon="-105.2306442">
  <ele>1607.2</ele>
  <time>2026-08-27T18:31:29Z</time>
  <course>9.73</course>
  <speed>0.15033296378372907</speed>
  <fix>3d</fix>
</trkpt>
<trkpt lat="40.072806" lon="-105.2306446">
  <ele>1607.32</ele>
  <time>2026-08-27T18:31:29Z</time>
  <course>9.75</course>
  <speed>0.15033296378372907</speed>
  <fix>3d</fix>
</trkpt>
<trkpt lat="40.0728061" lon="-105.2306445">
  <ele>1607.07</ele>
  <time>2026-08-27T18:31:29Z</time>
  <course>270.49</course>
  <speed>0.17</speed>
  <fix>3d</fix>
</trkpt>
<trkpt lat="40.072806" lon="-105.2306447">
  <ele>1607.34</ele>
  <time>2026-08-27T18:31:29Z</time>
  <course>9.75</course>
  <speed>0.15033296378372907</speed>
  <fix>3d</fix>
</trkpt>
<trkpt lat="40.072806" lon="-105.230645">
  <ele>1607.45</ele>
  <time>2026-08-27T18:31:29Z</time>
  <course>9.72</course>
  <speed>0.15033296378372907</speed>
  <fix>3d</fix>
</trkpt>
<trkpt lat="40.0728061" lon="-105.230645">
  <ele>1607.2</ele>
  <time>2026-08-27T18:31:29Z</time>
  <course>270.75</course>
  <speed>0.17</speed>
  <fix>3d</fix>
</trkpt>
<trkpt lat="40.072806" lon="-105.2306451">
  <ele>1607.47</ele>
  <time>2026-08-27T18:31:29Z</time>
  <course>9.73</course>
  <speed>0.15033296378372907</speed>
  <fix>3d</fix>
</trkpt>
<trkpt lat="40.072806" lon="-105.2306454">
  <ele>1607.58</ele>
  <time>2026-08-27T18:31:29Z</time>
  <course>9.75</course>
  <speed>0.15033296378372907</speed>
  <fix>3d</fix>
</trkpt>
<trkpt lat="40.0728061" lon="-105.2306453">
  <ele>1607.33</ele>
  <time>2026-08-27T18:31:29Z</time>
  <course>271.02</course>
  <speed>0.17</speed>
  <fix>3d</fix>
</trkpt>
<trkpt lat="40.072806" lon="-105.2306455">
  <ele>1607.6</ele>
  <time>2026-08-27T18:31:29Z</time>
  <course>9.74</course>
  <speed>0.15033296378372907</speed>
  <fix>3d</fix>
</trkpt>
<trkpt lat="40.0728061" lon="-105.2306458">
  <ele>1607.71</ele>
  <time>2026-08-27T18:31:29Z</time>
  <course>9.77</course>
  <speed>0.15033296378372907</speed>
  <fix>3d</fix>
</trkpt>
<trkpt lat="40.0728061" lon="-105.2306457">
  <ele>1607.45</ele>
  <time>2026-08-27T18:31:29Z</time>
  <course>271.34</course>
  <speed>0.17</speed>
  <fix>3d</fix>
</trkpt>
<trkpt lat="40.0728061" lon="-105.2306459">
  <ele>1607.73</ele>
  <time>2026-08-27T18:31:29Z</time>
  <course>9.77</course>
  <speed>0.15033296378372907</speed>
  <fix>3d</fix>
</trkpt>
<trkpt lat="40.0728061" lon="-105.2306463">
  <ele>1607.83</ele>
  <time>2026-08-27T18:31:29Z</time>
  <course>9.77</course>
  <speed>0.15033296378372907</speed>
  <fix>3d</fix>
</trkpt>
<trkpt lat="40.0728061" lon="-105.2306462">
  <ele>1607.58</ele>
  <time>2026-08-27T18:31:29Z</time>
  <course>271.77</course>
  <speed>0.17</speed>
  <fix>3d</fix>
</trkpt>
<trkpt lat="40.0728061" lon="-105.2306463">
  <ele>1607.83</ele>
  <time>2026-08-27T18:31:29Z</time>
  <course>9.77</course>
  <speed>0.15033296378372907</speed>
  <fix>3d</fix>
</trkpt>
<trkpt lat="40.0728061" lon="-105.2306467">
  <ele>1607.95</ele>
  <time>2026-08-27T18:31:29Z</time>
  <course>9.77</course>
  <speed>0.15033296378372907</speed>
  <fix>3d</fix>
</trkpt>
<trkpt lat="40.0728061" lon="-105.2306466">
  <ele>1607.71</ele>
  <time>2026-08-27T18:31:29Z</time>
  <course>272.23</course>
  <speed>0.17</speed>
  <fix>3d</fix>
</trkpt>
<trkpt lat="40.0728061" lon="-105.2306467">
  <ele>1607.97</ele>
  <time>2026-08-27T18:31:29Z</time>
  <course>9.77</course>
  <speed>0.15033296378372907</speed>
  <fix>3d</fix>
</trkpt>
<trkpt lat="40.0728061" lon="-105.2306471">
  <ele>1608.08</ele>
  <time>2026-08-27T18:31:29Z</time>
  <course>9.78</course>
  <speed>0.15</speed>
  <fix>3d</fix>
</trkpt>
<trkpt lat="40.0728061" lon="-105.2306469">
  <ele>1607.83</ele>
  <time>2026-08-27T18:31:29Z</time>
  <course>272.66</course>
  <speed>0.17</speed>
  <fix>3d</fix>
</trkpt>
<trkpt lat="40.0728061" lon="-105.2306471">
  <ele>1608.1</ele>
  <time>2026-08-27T18:31:29Z</time>
  <course>9.77</course>
  <speed>0.15</speed>
  <fix>3d</fix>
</trkpt>
<trkpt lat="40.0728061" lon="-105.2306475">
  <ele>1608.21</ele>
  <time>2026-08-27T18:31:29Z</time>
  <course>9.79</course>
  <speed>0.15</speed>
  <fix>3d</fix>
</trkpt>
<trkpt lat="40.0728061" lon="-105.2306474">
  <ele>1607.96</ele>
  <time>2026-08-27T18:31:29Z</time>
  <course>273.0</course>
  <speed>0.17</speed>
  <fix>3d</fix>
</trkpt>
<trkpt lat="40.0728061" lon="-105.2306475">
  <ele>1608.23</ele>
  <time>2026-08-27T18:31:29Z</time>
  <course>9.79</course>
  <speed>0.15</speed>
  <fix>3d</fix>
</trkpt>
<trkpt lat="40.0728061" lon="-105.2306479">
  <ele>1608.34</ele>
  <time>2026-08-27T18:31:29Z</time>
  <course>9.8</course>
  <speed>0.15</speed>
  <fix>3d</fix>
</trkpt>
<trkpt lat="40.0728061" lon="-105.2306478">
  <ele>1608.08</ele>
  <time>2026-08-27T18:31:29Z</time>
  <course>273.24</course>
  <speed>0.17</speed>
  <fix>3d</fix>
</trkpt>
<trkpt lat="40.0728061" lon="-105.230648">
  <ele>1608.36</ele>
  <time>2026-08-27T18:31:29Z</time>
  <course>9.8</course>
  <speed>0.15</speed>
  <fix>3d</fix>
</trkpt>
<trkpt lat="40.0728061" lon="-105.2306483">
  <ele>1608.46</ele>
  <time>2026-08-27T18:31:29Z</time>
  <course>9.79</course>
  <speed>0.15</speed>
  <fix>3d</fix>
</trkpt>
<trkpt lat="40.0728061" lon="-105.2306481">
  <ele>1608.21</ele>
  <time>2026-08-27T18:31:29Z</time>
  <course>273.44</course>
  <speed>0.17</speed>
  <fix>3d</fix>
</trkpt>
<trkpt lat="40.0728061" lon="-105.2306483">
  <ele>1608.46</ele>
  <time>2026-08-27T18:31:29Z</time>
  <course>9.79</course>
  <speed>0.15</speed>
  <fix>3d</fix>
</trkpt>
<trkpt lat="40.0728061" lon="-105.2306487">
  <ele>1608.59</ele>
  <time>2026-08-27T18:31:29Z</time>
  <course>9.8</course>
  <speed>0.15</speed>
  <fix>3d</fix>
</trkpt>
<trkpt lat="40.0728061" lon="-105.2306486">
  <ele>1608.33</ele>
  <time>2026-08-27T18:31:29Z</time>
  <course>273.64</course>
  <speed>0.17</speed>
  <fix>3d</fix>
</trkpt>
<trkpt lat="40.0728061" lon="-105.2306488">
  <ele>1608.6</ele>
  <time>2026-08-27T18:31:29Z</time>
  <course>9.8</course>
  <speed>0.15</speed>
  <fix>3d</fix>
</trkpt>
<trkpt lat="40.0728061" lon="-105.2306491">
  <ele>1608.71</ele>
  <time>2026-08-27T18:31:29Z</time>
  <course>9.81</course>
  <speed>0.15</speed>
  <fix>3d</fix>
</trkpt>
<trkpt lat="40.0728062" lon="-105.230649">
  <ele>1608.46</ele>
  <time>2026-08-27T18:31:29Z</time>
  <course>273.83</course>
  <speed>0.17</speed>
  <fix>3d</fix>
</trkpt>
<trkpt lat="40.0728061" lon="-105.2306492">
  <ele>1608.73</ele>
  <time>2026-08-27T18:31:29Z</time>
  <course>9.81</course>
  <speed>0.15</speed>
  <fix>3d</fix>
</trkpt>
<trkpt lat="40.0728061" lon="-105.2306495">
  <ele>1608.83</ele>
  <time>2026-08-27T18:31:29Z</time>
  <course>9.81</course>
  <speed>0.15</speed>
  <fix>3d</fix>
</trkpt>
<trkpt lat="40.0728062" lon="-105.2306495">
  <ele>1608.58</ele>
  <time>2026-08-27T18:31:29Z</time>
  <course>274.02</course>
  <speed>0.17</speed>
  <fix>3d</fix>
</trkpt>
<trkpt lat="40.0728061" lon="-105.2306496">
  <ele>1608.85</ele>
  <time>2026-08-27T18:31:29Z</time>
  <course>9.82</course>
  <speed>0.15</speed>
  <fix>3d</fix>
</trkpt>
<trkpt lat="40.0728061" lon="-105.2306499">
  <ele>1608.95</ele>
  <time>2026-08-27T18:31:29Z</time>
  <course>9.81</course>
  <speed>0.15</speed>
  <fix>3d</fix>
</trkpt>
<trkpt lat="40.0728062" lon="-105.2306499">
  <ele>1608.7</ele>
  <time>2026-08-27T18:31:29Z</time>
  <course>274.21</course>
  <speed>0.17</speed>
  <fix>3d</fix>
</trkpt>
<trkpt lat="40.0728061" lon="-105.2306499">
  <ele>1608.95</ele>
  <time>2026-08-27T18:31:29Z</time>
  <course>9.81</course>
  <speed>0.15</speed>
  <fix>3d</fix>
</trkpt>
<trkpt lat="40.0728061" lon="-105.2306503">
  <ele>1609.07</ele>
  <time>2026-08-27T18:31:29Z</time>
  <course>9.79</course>
  <speed>0.15</speed>
  <fix>3d</fix>
</trkpt>
<trkpt lat="40.0728062" lon="-105.2306502">
  <ele>1608.83</ele>
  <time>2026-08-27T18:31:29Z</time>
  <course>274.39</course>
  <speed>0.17</speed>
  <fix>3d</fix>
</trkpt>
<trkpt lat="40.0728061" lon="-105.2306504">
  <ele>1609.09</ele>
  <time>2026-08-27T18:31:29Z</time>
  <course>9.8</course>
  <speed>0.15</speed>
  <fix>3d</fix>
</trkpt>
<trkpt lat="40.0728061" lon="-105.2306507">
  <ele>1609.19</ele>
  <time>2026-08-27T18:31:29Z</time>
  <course>9.78</course>
  <speed>0.15</speed>
  <fix>3d</fix>
</trkpt>
<trkpt lat="40.0728063" lon="-105.2306507">
  <ele>1608.95</ele>
  <time>2026-08-27T18:31:29Z</time>
  <course>274.53</course>
  <speed>0.17</speed>
  <fix>3d</fix>
</trkpt>
<trkpt lat="40.0728061" lon="-105.2306508">
  <ele>1609.21</ele>
  <time>2026-08-27T18:31:29Z</time>
  <course>9.78</course>
  <speed>0.15</speed>
  <fix>3d</fix>
</trkpt>
<trkpt lat="40.0728061" lon="-105.2306512">
  <ele>1609.32</ele>
  <time>2026-08-27T18:31:29Z</time>
  <course>9.79</course>
  <speed>0.15</speed>
  <fix>3d</fix>
</trkpt>
<trkpt lat="40.0728064" lon="-105.230651">
  <ele>1609.08</ele>
  <time>2026-08-27T18:31:29Z</time>
  <course>274.63</course>
  <speed>0.17</speed>
  <fix>3d</fix>
</trkpt>
<trkpt lat="40.0728061" lon="-105.2306512">
  <ele>1609.32</ele>
  <time>2026-08-27T18:31:29Z</time>
  <course>9.79</course>
  <speed>0.15</speed>
  <fix>3d</fix>
</trkpt>
<trkpt lat="40.0728062" lon="-105.2306516">
  <ele>1609.45</ele>
  <time>2026-08-27T18:31:29Z</time>
  <course>9.8</course>
  <speed>0.15</speed>
  <fix>3d</fix>
</trkpt>
<trkpt lat="40.0728064" lon="-105.2306514">
  <ele>1609.21</ele>
  <time>2026-08-27T18:31:29Z</time>
  <course>274.72</course>
  <speed>0.17</speed>
  <fix>3d</fix>
</trkpt>
<trkpt lat="40.0728062" lon="-105.2306516">
  <ele>1609.47</ele>
  <time>2026-08-27T18:31:29Z</time>
  <course>9.81</course>
  <speed>0.15</speed>
  <fix>3d</fix>
</trkpt>
<trkpt lat="40.0728062" lon="-105.230652">
  <ele>1609.58</ele>
  <time>2026-08-27T18:31:29Z</time>
  <course>9.82</course>
  <speed>0.15</speed>
  <fix>3d</fix>
</trkpt>
<trkpt lat="40.0728064" lon="-105.2306519">
  <ele>1609.34</ele>
  <time>2026-08-27T18:31:29Z</time>
  <course>274.81</course>
  <speed>0.17</speed>
  <fix>3d</fix>
</trkpt>
<trkpt lat="40.0728062" lon="-105.230652">
  <ele>1609.58</ele>
  <time>2026-08-27T18:31:29Z</time>
  <course>9.82</course>
  <speed>0.15</speed>
  <fix>3d</fix>
</trkpt>
<trkpt lat="40.0728062" lon="-105.2306524">
  <ele>1609.7</ele>
  <time>2026-08-27T18:31:29Z</time>
  <course>9.82</course>
  <speed>0.15</speed>
  <fix>3d</fix>
</trkpt>
<trkpt lat="40.0728064" lon="-105.2306523">
  <ele>1609.46</ele>
  <time>2026-08-27T18:31:29Z</time>
  <course>274.9</course>
  <speed>0.17</speed>
  <fix>3d</fix>
</trkpt>
<trkpt lat="40.0728062" lon="-105.2306524">
  <ele>1609.72</ele>
  <time>2026-08-27T18:31:29Z</time>
  <course>9.82</course>
  <speed>0.15</speed>
  <fix>3d</fix>
</trkpt>
<trkpt lat="40.0728063" lon="-105.2306528">
  <ele>1609.83</ele>
  <time>2026-08-27T18:31:29Z</time>
  <course>9.84</course>
  <speed>0.15</speed>
  <fix>3d</fix>
</trkpt>
<trkpt lat="40.0728065" lon="-105.2306526">
  <ele>1609.59</ele>
  <time>2026-08-27T18:31:29Z</time>
  <course>275.0</course>
  <speed>0.17</speed>
  <fix>3d</fix>
</trkpt>
<trkpt lat="40.0728063" lon="-105.2306528">
  <ele>1609.83</ele>
  <time>2026-08-27T18:31:29Z</time>
  <course>9.84</course>
  <speed>0.15</speed>
  <fix>3d</fix>
</trkpt>
<trkpt lat="40.0728063" lon="-105.2306532">
  <ele>1609.96</ele>
  <time>2026-08-27T18:31:29Z</time>
  <course>9.83</course>
  <speed>0.15</speed>
  <fix>3d</fix>
</trkpt>
<trkpt lat="40.0728065" lon="-105.2306531">
  <ele>1609.72</ele>
  <time>2026-08-27T18:31:29Z</time>
  <course>275.12</course>
  <speed>0.17</speed>
  <fix>3d</fix>
</trkpt>
<trkpt lat="40.0728063" lon="-105.2306533">
  <ele>1609.98</ele>
  <time>2026-08-27T18:31:29Z</time>
  <course>9.84</course>
  <speed>0.15</speed>
  <fix>3d</fix>
</trkpt>
<trkpt lat="40.0728063" lon="-105.2306536">
  <ele>1610.09</ele>
  <time>2026-08-27T18:31:29Z</time>
  <course>9.85</course>
  <speed>0.15</speed>
  <fix>3d</fix>
</trkpt>
<trkpt lat="40.0728065" lon="-105.2306534">
  <ele>1609.85</ele>
  <time>2026-08-27T18:31:29Z</time>
  <course>275.23</course>
  <speed>0.17</speed>
  <fix>3d</fix>
</trkpt>
<trkpt lat="40.0728063" lon="-105.2306537">
  <ele>1610.11</ele>
  <time>2026-08-27T18:31:29Z</time>
  <course>9.85</course>
  <speed>0.15</speed>
  <fix>3d</fix>
</trkpt>
<trkpt lat="40.0728064" lon="-105.230654">
  <ele>1610.21</ele>
  <time>2026-08-27T18:31:29Z</time>
  <course>9.85</course>
  <speed>0.15</speed>
  <fix>3d</fix>
</trkpt>
<trkpt lat="40.0728065" lon="-105.2306538">
  <ele>1609.98</ele>
  <time>2026-08-27T18:31:29Z</time>
  <course>275.33</course>
  <speed>0.17</speed>
  <fix>3d</fix>
</trkpt>
<trkpt lat="40.0728064" lon="-105.230654">
  <ele>1610.21</ele>
  <time>2026-08-27T18:31:29Z</time>
  <course>9.85</course>
  <speed>0.15</speed>
  <fix>3d</fix>
</trkpt>
<trkpt lat="40.0728064" lon="-105.2306544">
  <ele>1610.34</ele>
  <time>2026-08-27T18:31:29Z</time>
  <course>9.87</course>
  <speed>0.15</speed>
  <fix>3d</fix>
</trkpt>
<trkpt lat="40.0728066" lon="-105.2306543">
  <ele>1610.1</ele>
  <time>2026-08-27T18:31:29Z</time>
  <course>275.48</course>
  <speed>0.17</speed>
  <fix>3d</fix>
</trkpt>
<trkpt lat="40.0728064" lon="-105.2306545">
  <ele>1610.36</ele>
  <time>2026-08-27T18:31:29Z</time>
  <course>9.86</course>
  <speed>0.15</speed>
  <fix>3d</fix>
</trkpt>
<trkpt lat="40.0728064" lon="-105.2306548">
  <ele>1610.47</ele>
  <time>2026-08-27T18:31:29Z</time>
  <course>9.86</course>
  <speed>0.15</speed>
  <fix>3d</fix>
</trkpt>
<trkpt lat="40.0728066" lon="-105.2306548">
  <ele>1610.23</ele>
  <time>2026-08-27T18:31:29Z</time>
  <course>275.68</course>
  <speed>0.17</speed>
  <fix>3d</fix>
</trkpt>
<trkpt lat="40.0728064" lon="-105.2306549">
  <ele>1610.5</ele>
  <time>2026-08-27T18:31:29Z</time>
  <course>9.87</course>
  <speed>0.15</speed>
  <fix>3d</fix>
</trkpt>
<trkpt lat="40.0728065" lon="-105.2306552">
  <ele>1610.6</ele>
  <time>2026-08-27T18:31:29Z</time>
  <course>9.86</course>
  <speed>0.15</speed>
  <fix>3d</fix>
</trkpt>
<trkpt lat="40.0728066" lon="-105.2306552">
  <ele>1610.35</ele>
  <time>2026-08-27T18:31:29Z</time>
  <course>275.83</course>
  <speed>0.17</speed>
  <fix>3d</fix>
</trkpt>
<trkpt lat="40.0728065" lon="-105.2306552">
  <ele>1610.6</ele>
  <time>2026-08-27T18:31:29Z</time>
  <course>9.86</course>
  <speed>0.15</speed>
  <fix>3d</fix>
</trkpt>
<trkpt lat="40.0728065" lon="-105.2306556">
  <ele>1610.73</ele>
  <time>2026-08-27T18:31:29Z</time>
  <course>9.87</course>
  <speed>0.15</speed>
  <fix>3d</fix>
</trkpt>
<trkpt lat="40.0728067" lon="-105.2306555">
  <ele>1610.48</ele>
  <time>2026-08-27T18:31:29Z</time>
  <course>275.89</course>
  <speed>0.17</speed>
  <fix>3d</fix>
</trkpt>
<trkpt lat="40.0728065" lon="-105.2306557">
  <ele>1610.74</ele>
  <time>2026-08-27T18:31:29Z</time>
  <course>9.87</course>
  <speed>0.15</speed>
  <fix>3d</fix>
</trkpt>
<trkpt lat="40.0728065" lon="-105.2306561">
  <ele>1610.85</ele>
  <time>2026-08-27T18:31:29Z</time>
  <course>9.89</course>
  <speed>0.15</speed>
  <fix>3d</fix>
</trkpt>
<trkpt lat="40.0728067" lon="-105.230656">
  <ele>1610.6</ele>
  <time>2026-08-27T18:31:29Z</time>
  <course>275.95</course>
  <speed>0.17</speed>
  <fix>3d</fix>
</trkpt>
<trkpt lat="40.0728065" lon="-105.2306561">
  <ele>1610.85</ele>
  <time>2026-08-27T18:31:29Z</time>
  <course>9.89</course>
  <speed>0.15</speed>
  <fix>3d</fix>
</trkpt>
<trkpt lat="40.0728066" lon="-105.2306565">
  <ele>1610.98</ele>
  <time>2026-08-27T18:31:29Z</time>
  <course>9.88</course>
  <speed>0.15</speed>
  <fix>3d</fix>
</trkpt>
<trkpt lat="40.0728067" lon="-105.2306563">
  <ele>1610.73</ele>
  <time>2026-08-27T18:31:29Z</time>
  <course>276.07</course>
  <speed>0.17</speed>
  <fix>3d</fix>
</trkpt>
<trkpt lat="40.0728066" lon="-105.2306565">
  <ele>1611.0</ele>
  <time>2026-08-27T18:31:29Z</time>
  <course>9.88</course>
  <speed>0.15</speed>
  <fix>3d</fix>
</trkpt>
<trkpt lat="40.0728066" lon="-105.2306569">
  <ele>1611.1</ele>
  <time>2026-08-27T18:31:29Z</time>
  <course>9.9</course>
  <speed>0.15</speed>
  <fix>3d</fix>
</trkpt>
<trkpt lat="40.0728067" lon="-105.2306567">
  <ele>1610.85</ele>
  <time>2026-08-27T18:31:29Z</time>
  <course>276.31</course>
  <speed>0.17</speed>
  <fix>3d</fix>
</trkpt>
<trkpt lat="40.0728066" lon="-105.2306569">
  <ele>1611.12</ele>
  <time>2026-08-27T18:31:29Z</time>
  <course>9.9</course>
  <speed>0.15</speed>
  <fix>3d</fix>
</trkpt>
<trkpt lat="40.0728066" lon="-105.2306573">
  <ele>1611.23</ele>
  <time>2026-08-27T18:31:29Z</time>
  <course>9.91</course>
  <speed>0.15</speed>
  <fix>3d</fix>
</trkpt>
<trkpt lat="40.0728067" lon="-105.2306572">
  <ele>1610.98</ele>
  <time>2026-08-27T18:31:29Z</time>
  <course>276.5</course>
  <speed>0.17</speed>
  <fix>3d</fix>
</trkpt>
<trkpt lat="40.0728066" lon="-105.2306573">
  <ele>1611.25</ele>
  <time>2026-08-27T18:31:29Z</time>
  <course>9.91</course>
  <speed>0.15</speed>
  <fix>3d</fix>
</trkpt>
<trkpt lat="40.0728067" lon="-105.2306577">
  <ele>1611.35</ele>
  <time>2026-08-27T18:31:29Z</time>
  <course>9.89</course>
  <speed>0.15</speed>
  <fix>3d</fix>
</trkpt>
<trkpt lat="40.0728068" lon="-105.2306576">
  <ele>1611.1</ele>
  <time>2026-08-27T18:31:29Z</time>
  <course>276.65</course>
  <speed>0.17</speed>
  <fix>3d</fix>
</trkpt>
<trkpt lat="40.0728067" lon="-105.2306577">
  <ele>1611.37</ele>
  <time>2026-08-27T18:31:29Z</time>
  <course>9.89</course>
  <speed>0.15</speed>
  <fix>3d</fix>
</trkpt>
<trkpt lat="40.0728067" lon="-105.2306581">
  <ele>1611.48</ele>
  <time>2026-08-27T18:31:29Z</time>
  <course>9.91</course>
  <speed>0.15</speed>
  <fix>3d</fix>
</trkpt>
<trkpt lat="40.0728068" lon="-105.2306579">
  <ele>1611.22</ele>
  <time>2026-08-27T18:31:29Z</time>
  <course>276.79</course>
  <speed>0.17</speed>
  <fix>3d</fix>
</trkpt>
<trkpt lat="40.0728067" lon="-105.2306581">
  <ele>1611.48</ele>
  <time>2026-08-27T18:31:29Z</time>
  <course>9.91</course>
  <speed>0.15</speed>
  <fix>3d</fix>
</trkpt>
<trkpt lat="40.0728067" lon="-105.2306585">
  <ele>1611.61</ele>
  <time>2026-08-27T18:31:29Z</time>
  <course>9.89</course>
  <speed>0.15</speed>
  <fix>3d</fix>
</trkpt>
<trkpt lat="40.0728068" lon="-105.2306584">
  <ele>1611.35</ele>
  <time>2026-08-27T18:31:29Z</time>
  <course>276.92</course>
  <speed>0.17</speed>
  <fix>3d</fix>
</trkpt>
<trkpt lat="40.0728067" lon="-105.2306586">
  <ele>1611.63</ele>
  <time>2026-08-27T18:31:29Z</time>
  <course>9.89</course>
  <speed>0.15</speed>
  <fix>3d</fix>
</trkpt>
<trkpt lat="40.0728068" lon="-105.2306589">
  <ele>1611.73</ele>
  <time>2026-08-27T18:31:29Z</time>
  <course>9.92</course>
  <speed>0.15</speed>
  <fix>3d</fix>
</trkpt>
<trkpt lat="40.0728069" lon="-105.2306587">
  <ele>1611.47</ele>
  <time>2026-08-27T18:31:29Z</time>
  <course>277.05</course>
  <speed>0.17</speed>
  <fix>3d</fix>
</trkpt>
<trkpt lat="40.0728068" lon="-105.2306589">
  <ele>1611.74</ele>
  <time>2026-08-27T18:31:29Z</time>
  <course>9.92</course>
  <speed>0.15</speed>
  <fix>3d</fix>
</trkpt>
<trkpt lat="40.0728068" lon="-105.2306593">
  <ele>1611.85</ele>
  <time>2026-08-27T18:31:29Z</time>
  <course>9.91</course>
  <speed>0.15</speed>
  <fix>3d</fix>
</trkpt>
<trkpt lat="40.072807" lon="-105.2306592">
  <ele>1611.59</ele>
  <time>2026-08-27T18:31:29Z</time>
  <course>277.17</course>
  <speed>0.17</speed>
  <fix>3d</fix>
</trkpt>
<trkpt lat="40.0728068" lon="-105.2306594">
  <ele>1611.87</ele>
  <time>2026-08-27T18:31:29Z</time>
  <course>9.91</course>
  <speed>0.15</speed>
  <fix>3d</fix>
</trkpt>
<trkpt lat="40.0728068" lon="-105.2306597">
  <ele>1611.97</ele>
  <time>2026-08-27T18:31:29Z</time>
  <course>9.87</course>
  <speed>0.15</speed>
  <fix>3d</fix>
</trkpt>
<trkpt lat="40.072807" lon="-105.2306596">
  <ele>1611.71</ele>
  <time>2026-08-27T18:31:29Z</time>
  <course>277.33</course>
  <speed>0.17</speed>
  <fix>3d</fix>
</trkpt>
<trkpt lat="40.0728069" lon="-105.2306598">
  <ele>1612.0</ele>
  <time>2026-08-27T18:31:29Z</time>
  <course>9.87</course>
  <speed>0.15</speed>
  <fix>3d</fix>
</trkpt>
<trkpt lat="40.0728069" lon="-105.2306601">
  <ele>1612.1</ele>
  <time>2026-08-27T18:31:29Z</time>
  <course>9.9</course>
  <speed>0.15</speed>
  <fix>3d</fix>
</trkpt>
<trkpt lat="40.0728071" lon="-105.2306601">
  <ele>1611.84</ele>
  <time>2026-08-27T18:31:29Z</time>
  <course>277.47</course>
  <speed>0.17</speed>
  <fix>3d</fix>
</trkpt>
<trkpt lat="40.0728069" lon="-105.2306601">
  <ele>1612.1</ele>
  <time>2026-08-27T18:31:29Z</time>
  <course>9.9</course>
  <speed>0.15</speed>
  <fix>3d</fix>
</trkpt>
<trkpt lat="40.0728069" lon="-105.2306605">
  <ele>1612.23</ele>
  <time>2026-08-27T18:31:29Z</time>
  <course>9.91</course>
  <speed>0.15</speed>
  <fix>3d</fix>
</trkpt>
<trkpt lat="40.0728071" lon="-105.2306605">
  <ele>1611.96</ele>
  <time>2026-08-27T18:31:29Z</time>
  <course>277.58</course>
  <speed>0.17</speed>
  <fix>3d</fix>
</trkpt>
<trkpt lat="40.0728069" lon="-105.2306606">
  <ele>1612.25</ele>
  <time>2026-08-27T18:31:29Z</time>
  <course>9.91</course>
  <speed>0.15</speed>
  <fix>3d</fix>
</trkpt>
<trkpt lat="40.072807" lon="-105.2306609">
  <ele>1612.35</ele>
  <time>2026-08-27T18:31:29Z</time>
  <course>9.9</course>
  <speed>0.15</speed>
  <fix>3d</fix>
</trkpt>
<trkpt lat="40.0728071" lon="-105.2306609">
  <ele>1612.09</ele>
  <time>2026-08-27T18:31:29Z</time>
  <course>277.7</course>
  <speed>0.17</speed>
  <fix>3d</fix>
</trkpt>
<trkpt lat="40.072807" lon="-105.230661">
  <ele>1612.37</ele>
  <time>2026-08-27T18:31:29Z</time>
  <course>9.9</course>
  <speed>0.15</speed>
  <fix>3d</fix>
</trkpt>
<trkpt lat="40.072807" lon="-105.2306613">
  <ele>1612.47</ele>
  <time>2026-08-27T18:31:29Z</time>
  <course>9.91</course>
  <speed>0.15</speed>
  <fix>3d</fix>
</trkpt>
<trkpt lat="40.0728072" lon="-105.2306613">
  <ele>1612.21</ele>
  <time>2026-08-27T18:31:29Z</time>
  <course>277.81</course>
  <speed>0.17</speed>
  <fix>3d</fix>
</trkpt>
<trkpt lat="40.072807" lon="-105.2306614">
  <ele>1612.51</ele>
  <time>2026-08-27T18:31:29Z</time>
  <course>9.9</course>
  <speed>0.15</speed>
  <fix>3d</fix>
</trkpt>
<trkpt lat="40.0728071" lon="-105.2306618">
  <ele>1612.6</ele>
  <time>2026-08-27T18:31:29Z</time>
  <course>9.92</course>
  <speed>0.15</speed>
  <fix>3d</fix>
</trkpt>
<trkpt lat="40.0728072" lon="-105.2306617">
  <ele>1612.34</ele>
  <time>2026-08-27T18:31:29Z</time>
  <course>277.92</course>
  <speed>0.17</speed>
  <fix>3d</fix>
</trkpt>
<trkpt lat="40.0728071" lon="-105.2306618">
  <ele>1612.62</ele>
  <time>2026-08-27T18:31:29Z</time>
  <course>9.92</course>
  <speed>0.15</speed>
  <fix>3d</fix>
</trkpt>
<trkpt lat="40.0728071" lon="-105.2306622">
  <ele>1612.72</ele>
  <time>2026-08-27T18:31:29Z</time>
  <course>9.89</course>
  <speed>0.15</speed>
  <fix>3d</fix>
</trkpt>
<trkpt lat="40.0728073" lon="-105.230662">
  <ele>1612.46</ele>
  <time>2026-08-27T18:31:29Z</time>
  <course>278.05</course>
  <speed>0.17</speed>
  <fix>3d</fix>
</trkpt>
<trkpt lat="40.0728071" lon="-105.2306622">
  <ele>1612.72</ele>
  <time>2026-08-27T18:31:29Z</time>
  <course>9.89</course>
  <speed>0.15</speed>
  <fix>3d</fix>
</trkpt>
<trkpt lat="40.0728072" lon="-105.2306626">
  <ele>1612.85</ele>
  <time>2026-08-27T18:31:29Z</time>
  <course>9.91</course>
  <speed>0.15</speed>
  <fix>3d</fix>
</trkpt>
<trkpt lat="40.0728073" lon="-105.2306624">
  <ele>1612.59</ele>
  <time>2026-08-27T18:31:29Z</time>
  <course>278.18</course>
  <speed>0.17</speed>
  <fix>3d</fix>
</trkpt>
<trkpt lat="40.0728072" lon="-105.2306626">
  <ele>1612.87</ele>
  <time>2026-08-27T18:31:29Z</time>
  <course>9.91</course>
  <speed>0.15</speed>
  <fix>3d</fix>
</trkpt>
<trkpt lat="40.0728072" lon="-105.230663">
  <ele>1612.98</ele>
  <time>2026-08-27T18:31:29Z</time>
  <course>9.92</course>
  <speed>0.15</speed>
  <fix>3d</fix>
</trkpt>
<trkpt lat="40.0728073" lon="-105.2306629">
  <ele>1612.71</ele>
  <time>2026-08-27T18:31:29Z</time>
  <course>278.25</course>
  <speed>0.17</speed>
  <fix>3d</fix>
</trkpt>
<trkpt lat="40.0728072" lon="-105.230663">
  <ele>1612.99</ele>
  <time>2026-08-27T18:31:29Z</time>
  <course>9.92</course>
  <speed>0.15</speed>
  <fix>3d</fix>
</trkpt>
<trkpt lat="40.0728072" lon="-105.2306634">
  <ele>1613.1</ele>
  <time>2026-08-27T18:31:29Z</time>
  <course>9.91</course>
  <speed>0.15</speed>
  <fix>3d</fix>
</trkpt>
<trkpt lat="40.0728073" lon="-105.2306633">
  <ele>1612.84</ele>
  <time>2026-08-27T18:31:29Z</time>
  <course>278.24</course>
  <speed>0.17</speed>
  <fix>3d</fix>
</trkpt>
<trkpt lat="40.0728073" lon="-105.2306635">
  <ele>1613.12</ele>
  <time>2026-08-27T18:31:29Z</time>
  <course>9.91</course>
  <speed>0.15</speed>
  <fix>3d</fix>
</trkpt>
<trkpt lat="40.0728073" lon="-105.2306638">
  <ele>1613.23</ele>
  <time>2026-08-27T18:31:29Z</time>
  <course>9.91</course>
  <speed>0.15</speed>
  <fix>3d</fix>
</trkpt>
<trkpt lat="40.0728074" lon="-105.2306636">
  <ele>1612.96</ele>
  <time>2026-08-27T18:31:29Z</time>
  <course>278.29</course>
  <speed>0.17</speed>
  <fix>3d</fix>
</trkpt>
<trkpt lat="40.0728073" lon="-105.2306638">
  <ele>1613.25</ele>
  <time>2026-08-27T18:31:29Z</time>
  <course>9.91</course>
  <speed>0.15</speed>
  <fix>3d</fix>
</trkpt>
<trkpt lat="40.0728073" lon="-105.2306642">
  <ele>1613.35</ele>
  <time>2026-08-27T18:31:29Z</time>
  <course>9.93</course>
  <speed>0.15</speed>
  <fix>3d</fix>
</trkpt>
<trkpt lat="40.0728074" lon="-105.2306641">
  <ele>1613.09</ele>
  <time>2026-08-27T18:31:29Z</time>
  <course>278.46</course>
  <speed>0.17</speed>
  <fix>3d</fix>
</trkpt>
<trkpt lat="40.0728073" lon="-105.2306642">
  <ele>1613.35</ele>
  <time>2026-08-27T18:31:29Z</time>
  <course>9.93</course>
  <speed>0.15</speed>
  <fix>3d</fix>
</trkpt>
<trkpt lat="40.0728074" lon="-105.2306646">
  <ele>1613.48</ele>
  <time>2026-08-27T18:31:29Z</time>
  <course>9.91</course>
  <speed>0.15</speed>
  <fix>3d</fix>
</trkpt>
<trkpt lat="40.0728075" lon="-105.2306644">
  <ele>1613.21</ele>
  <time>2026-08-27T18:31:29Z</time>
  <course>278.61</course>
  <speed>0.17</speed>
  <fix>3d</fix>
</trkpt>
<trkpt lat="40.0728074" lon="-105.2306647">
  <ele>1613.5</ele>
  <time>2026-08-27T18:31:29Z</time>
  <course>9.92</course>
  <speed>0.15</speed>
  <fix>3d</fix>
</trkpt>
<trkpt lat="40.0728074" lon="-105.230665">
  <ele>1613.6</ele>
  <time>2026-08-27T18:31:29Z</time>
  <course>9.93</course>
  <speed>0.15</speed>
  <fix>3d</fix>
</trkpt>
<trkpt lat="40.0728076" lon="-105.2306649">
  <ele>1613.34</ele>
  <time>2026-08-27T18:31:29Z</time>
  <course>278.72</course>
  <speed>0.17</speed>
  <fix>3d</fix>
</trkpt>
<trkpt lat="40.0728074" lon="-105.230665">
  <ele>1613.62</ele>
  <time>2026-08-27T18:31:29Z</time>
  <course>9.93</course>
  <speed>0.15</speed>
  <fix>3d</fix>
</trkpt>
<trkpt lat="40.0728075" lon="-105.2306654">
  <ele>1613.73</ele>
  <time>2026-08-27T18:31:29Z</time>
  <course>9.92</course>
  <speed>0.15</speed>
  <fix>3d</fix>
</trkpt>
<trkpt lat="40.0728076" lon="-105.2306653">
  <ele>1613.46</ele>
  <time>2026-08-27T18:31:29Z</time>
  <course>278.83</course>
  <speed>0.17</speed>
  <fix>3d</fix>
</trkpt>
<trkpt lat="40.0728075" lon="-105.2306655">
  <ele>1613.75</ele>
  <time>2026-08-27T18:31:29Z</time>
  <course>9.93</course>
  <speed>0.15</speed>
  <fix>3d</fix>
</trkpt>
<trkpt lat="40.0728075" lon="-105.2306658">
  <ele>1613.86</ele>
  <time>2026-08-27T18:31:29Z</time>
  <course>9.93</course>
  <speed>0.15</speed>
  <fix>3d</fix>
</trkpt>
<trkpt lat="40.0728077" lon="-105.2306658">
  <ele>1613.59</ele>
  <time>2026-08-27T18:31:29Z</time>
  <course>278.99</course>
  <speed>0.17</speed>
  <fix>3d</fix>
</trkpt>
<trkpt lat="40.0728075" lon="-105.2306659">
  <ele>1613.87</ele>
  <time>2026-08-27T18:31:29Z</time>
  <course>9.93</course>
  <speed>0.15033296378372907</speed>
  <fix>3d</fix>
</trkpt>
<trkpt lat="40.0728076" lon="-105.2306662">
  <ele>1613.98</ele>
  <time>2026-08-27T18:31:29Z</time>
  <course>9.94</course>
  <speed>0.15033296378372907</speed>
  <fix>3d</fix>
</trkpt>
<trkpt lat="40.0728077" lon="-105.2306662">
  <ele>1613.72</ele>
  <time>2026-08-27T18:31:29Z</time>
  <course>279.14</course>
  <speed>0.17</speed>
  <fix>3d</fix>
</trkpt>
<trkpt lat="40.0728076" lon="-105.2306663">
  <ele>1614.0</ele>
  <time>2026-08-27T18:31:29Z</time>
  <course>9.94</course>
  <speed>0.15033296378372907</speed>
  <fix>3d</fix>
</trkpt>
<trkpt lat="40.0728076" lon="-105.2306666">
  <ele>1614.1</ele>
  <time>2026-08-27T18:31:29Z</time>
  <course>9.94</course>
  <speed>0.15033296378372907</speed>
  <fix>3d</fix>
</trkpt>
<trkpt lat="40.0728078" lon="-105.2306665">
  <ele>1613.84</ele>
  <time>2026-08-27T18:31:29Z</time>
  <course>279.3</course>
  <speed>0.17</speed>
  <fix>3d</fix>
</trkpt>
<trkpt lat="40.0728076" lon="-105.2306666">
  <ele>1614.1</ele>
  <time>2026-08-27T18:31:29Z</time>
  <course>9.94</course>
  <speed>0.15033296378372907</speed>
  <fix>3d</fix>
</trkpt>
<trkpt lat="40.0728077" lon="-105.230667">
  <ele>1614.23</ele>
  <time>2026-08-27T18:31:29Z</time>
  <course>9.93</course>
  <speed>0.15033296378372907</speed>
  <fix>3d</fix>
</trkpt>
<trkpt lat="40.0728078" lon="-105.230667">
  <ele>1613.97</ele>
  <time>2026-08-27T18:31:29Z</time>
  <course>279.47</course>
  <speed>0.17</speed>
  <fix>3d</fix>
</trkpt>
<trkpt lat="40.0728077" lon="-105.2306671">
  <ele>1614.25</ele>
  <time>2026-08-27T18:31:29Z</time>
  <course>9.94</course>
  <speed>0.15033296378372907</speed>
  <fix>3d</fix>
</trkpt>
<trkpt lat="40.0728077" lon="-105.2306675">
  <ele>1614.35</ele>
  <time>2026-08-27T18:31:29Z</time>
  <course>9.92</course>
  <speed>0.15033296378372907</speed>
  <fix>3d</fix>
</trkpt>
<trkpt lat="40.0728079" lon="-105.2306673">
  <ele>1614.09</ele>
  <time>2026-08-27T18:31:29Z</time>
  <course>279.62</course>
  <speed>0.17</speed>
  <fix>3d</fix>
</trkpt>
<trkpt lat="40.0728077" lon="-105.2306675">
  <ele>1614.37</ele>
  <time>2026-08-27T18:31:29Z</time>
  <course>9.92</course>
  <speed>0.15033296378372907</speed>
  <fix>3d</fix>
</trkpt>
<trkpt lat="40.0728078" lon="-105.2306679">
  <ele>1614.47</ele>
  <time>2026-08-27T18:31:29Z</time>
  <course>9.94</course>
  <speed>0.15033296378372907</speed>
  <fix>3d</fix>
</trkpt>
<trkpt lat="40.0728079" lon="-105.2306677">
  <ele>1614.22</ele>
  <time>2026-08-27T18:31:29Z</time>
  <course>279.75</course>
  <speed>0.17</speed>
  <fix>3d</fix>
</trkpt>
<trkpt lat="40.0728078" lon="-105.2306679">
  <ele>1614.49</ele>
  <time>2026-08-27T18:31:29Z</time>
  <course>9.94</course>
  <speed>0.15033296378372907</speed>
  <fix>3d</fix>
</trkpt>
<trkpt lat="40.0728078" lon="-105.2306683">
  <ele>1614.6</ele>
  <time>2026-08-27T18:31:29Z</time>
  <course>9.91</course>
  <speed>0.15033296378372907</speed>
  <fix>3d</fix>
</trkpt>
<trkpt lat="40.0728079" lon="-105.2306682">
  <ele>1614.35</ele>
  <time>2026-08-27T18:31:29Z</time>
  <course>279.9</course>
  <speed>0.17</speed>
  <fix>3d</fix>
</trkpt>
<trkpt lat="40.0728078" lon="-105.2306683">
  <ele>1614.62</ele>
  <time>2026-08-27T18:31:29Z</time>
  <course>9.92</course>
  <speed>0.15033296378372907</speed>
  <fix>3d</fix>
</trkpt>
<trkpt lat="40.0728079" lon="-105.2306687">
  <ele>1614.73</ele>
  <time>2026-08-27T18:31:29Z</time>
  <course>9.92</course>
  <speed>0.15033296378372907</speed>
  <fix>3d</fix>
</trkpt>
<trkpt lat="40.072808" lon="-105.2306686">
  <ele>1614.47</ele>
  <time>2026-08-27T18:31:29Z</time>
  <course>280.03</course>
  <speed>0.17</speed>
  <fix>3d</fix>
</trkpt>
<trkpt lat="40.0728079" lon="-105.2306687">
  <ele>1614.73</ele>
  <time>2026-08-27T18:31:29Z</time>
  <course>9.92</course>
  <speed>0.15033296378372907</speed>
  <fix>3d</fix>
</trkpt>
<trkpt lat="40.0728079" lon="-105.2306691">
  <ele>1614.85</ele>
  <time>2026-08-27T18:31:29Z</time>
  <course>9.92</course>
  <speed>0.15033296378372907</speed>
  <fix>3d</fix>
</trkpt>
<trkpt lat="40.0728081" lon="-105.2306689">
  <ele>1614.6</ele>
  <time>2026-08-27T18:31:29Z</time>
  <course>280.12</course>
  <speed>0.17</speed>
  <fix>3d</fix>
</trkpt>
<trkpt lat="40.072808" lon="-105.2306691">
  <ele>1614.87</ele>
  <time>2026-08-27T18:31:29Z</time>
  <course>9.92</course>
  <speed>0.15033296378372907</speed>
  <fix>3d</fix>
</trkpt>
<trkpt lat="40.072808" lon="-105.2306695">
  <ele>1614.98</ele>
  <time>2026-08-27T18:31:29Z</time>
  <course>9.94</course>
  <speed>0.15033296378372907</speed>
  <fix>3d</fix>
</trkpt>
<trkpt lat="40.0728082" lon="-105.2306694">
  <ele>1614.73</ele>
  <time>2026-08-27T18:31:29Z</time>
  <course>280.21</course>
  <speed>0.17</speed>
  <fix>3d</fix>
</trkpt>
<trkpt lat="40.072808" lon="-105.2306695">
  <ele>1615.0</ele>
  <time>2026-08-27T18:31:29Z</time>
  <course>9.94</course>
  <speed>0.15033296378372907</speed>
  <fix>3d</fix>
</trkpt>
<trkpt lat="40.0728081" lon="-105.2306699">
  <ele>1615.11</ele>
  <time>2026-08-27T18:31:29Z</time>
  <course>9.95</course>
  <speed>0.15033296378372907</speed>
  <fix>3d</fix>
</trkpt>
<trkpt lat="40.0728082" lon="-105.2306699">
  <ele>1614.85</ele>
  <time>2026-08-27T18:31:29Z</time>
  <course>280.35</course>
  <speed>0.17</speed>
  <fix>3d</fix>
</trkpt>
<trkpt lat="40.0728081" lon="-105.2306699">
  <ele>1615.12</ele>
  <time>2026-08-27T18:31:29Z</time>
  <course>9.95</course>
  <speed>0.15033296378372907</speed>
  <fix>3d</fix>
</trkpt>
<trkpt lat="40.0728081" lon="-105.2306703">
  <ele>1615.24</ele>
  <time>2026-08-27T18:31:29Z</time>
  <course>9.95</course>
  <speed>0.15033296378372907</speed>
  <fix>3d</fix>
</trkpt>
<trkpt lat="40.0728083" lon="-105.2306703">
  <ele>1614.98</ele>
  <time>2026-08-27T18:31:29Z</time>
  <course>280.54</course>
  <speed>0.17</speed>
  <fix>3d</fix>
</trkpt>
<trkpt lat="40.0728081" lon="-105.2306703">
  <ele>1615.24</ele>
  <time>2026-08-27T18:31:29Z</time>
  <course>9.95</course>
  <speed>0.15033296378372907</speed>
  <fix>3d</fix>
</trkpt>
<trkpt lat="40.0728082" lon="-105.2306707">
  <ele>1615.36</ele>
  <time>2026-08-27T18:31:29Z</time>
  <course>9.97</course>
  <speed>0.15033296378372907</speed>
  <fix>3d</fix>
</trkpt>
<trkpt lat="40.0728083" lon="-105.2306706">
  <ele>1615.11</ele>
  <time>2026-08-27T18:31:29Z</time>
  <course>280.73</course>
  <speed>0.17</speed>
  <fix>3d</fix>
</trkpt>
<trkpt lat="40.0728083" lon="-105.2306711">
  <ele>1615.47</ele>
  <time>2026-08-27T18:31:29Z</time>
  <course>10.42</course>
  <speed>0.15033296378372907</speed>
  <fix>3d</fix>
</trkpt>
<trkpt lat="40.0728084" lon="-105.2306711">
  <ele>1615.24</ele>
  <time>2026-08-27T18:31:29Z</time>
  <course>280.83</course>
  <speed>0.17</speed>
  <fix>3d</fix>
</trkpt>
<trkpt lat="40.0728083" lon="-105.2306716">
  <ele>1615.55</ele>
  <time>2026-08-27T18:31:29Z</time>
  <course>10.71</course>
  <speed>0.15033296378372907</speed>
  <fix>3d</fix>
</trkpt>
<trkpt lat="40.0728085" lon="-105.2306715">
  <ele>1615.34</ele>
  <time>2026-08-27T18:31:29Z</time>
  <course>281.1</course>
  <speed>0.17</speed>
  <fix>3d</fix>
</trkpt>
<trkpt lat="40.0728084" lon="-105.230672">
  <ele>1615.6</ele>
  <time>2026-08-27T18:31:29Z</time>
  <course>10.83</course>
  <speed>0.140356688476182</speed>
  <fix>3d</fix>
</trkpt>
<trkpt lat="40.0728085" lon="-105.2306719">
  <ele>1615.41</ele>
  <time>2026-08-27T18:31:29Z</time>
  <course>281.75</course>
  <speed>0.17</speed>
  <fix>3d</fix>
</trkpt>
<trkpt lat="40.0728084" lon="-105.2306723">
  <ele>1615.63</ele>
  <time>2026-08-27T18:31:29Z</time>
  <course>11.06</course>
  <speed>0.0316227766016838</speed>
  <fix>3d</fix>
</trkpt>
<trkpt lat="40.0728085" lon="-105.2306723">
  <ele>1615.46</ele>
  <time>2026-08-27T18:31:29Z</time>
  <course>282.91</course>
  <speed>0.16</speed>
  <fix>3d</fix>
</trkpt>
<trkpt lat="40.0728083" lon="-105.2306719">
  <ele>1615.64</ele>
  <time>2026-08-27T18:31:29Z</time>
  <course>12.28</course>
  <speed>0.551543289325507</speed>
  <fix>3d</fix>
</trkpt>
<trkpt lat="40.0728086" lon="-105.2306725">
  <ele>1615.49</ele>
  <time>2026-08-27T18:31:29Z</time>
  <course>58.87</course>
  <speed>0.01</speed>
  <fix>3d</fix>
</trkpt>
<trkpt lat="40.0728078" lon="-105.2306694">
  <ele>1615.62</ele>
  <time>2026-08-27T18:31:29Z</time>
  <course>12.2</course>
  <speed>1.9132433196015608</speed>
  <fix>3d</fix>
</trkpt>
<trkpt lat="40.0728086" lon="-105.2306719">
  <ele>1615.5</ele>
  <time>2026-08-27T18:31:29Z</time>
  <course>97.73</course>
  <speed>0.64</speed>
  <fix>3d</fix>
</trkpt>
<trkpt lat="40.0728065" lon="-105.2306623">
  <ele>1615.54</ele>
  <time>2026-08-27T18:31:29Z</time>
  <course>9.56</course>
  <speed>4.518462127759842</speed>
  <fix>3d</fix>
</trkpt>
<trkpt lat="40.0728084" lon="-105.2306689">
  <ele>1615.47</ele>
  <time>2026-08-27T18:31:29Z</time>
  <course>97.48</course>
  <speed>2.14</speed>
  <fix>3d</fix>
</trkpt>
<trkpt lat="40.0728049" lon="-105.2306494">
  <ele>1615.27</ele>
  <time>2026-08-27T18:31:29Z</time>
  <course>13.2</course>
  <speed>6.185563838487159</speed>
  <fix>3d</fix>
</trkpt>
<trkpt lat="40.0728076" lon="-105.2306613">
  <ele>1615.38</ele>
  <time>2026-08-27T18:31:29Z</time>
  <course>97.37</course>
  <speed>4.46</speed>
  <fix>3d</fix>
</trkpt>
<trkpt lat="40.0728048" lon="-105.2306423">
  <ele>1614.89</ele>
  <time>2026-08-27T18:31:29Z</time>
  <course>19.09</course>
  <speed>0.6937578828380979</speed>
  <fix>3d</fix>
</trkpt>
<trkpt lat="40.0728065" lon="-105.2306498">
  <ele>1615.11</ele>
  <time>2026-08-27T18:31:29Z</time>
  <course>96.23</course>
  <speed>4.33</speed>
  <fix>3d</fix>
</trkpt>
<trkpt lat="40.0728068" lon="-105.2306451">
  <ele>1614.75</ele>
  <time>2026-08-27T18:31:29Z</time>
  <course>22.91</course>
  <speed>2.4328584011405185</speed>
  <fix>3d</fix>
</trkpt>
<trkpt lat="40.0728062" lon="-105.2306428">
  <ele>1614.77</ele>
  <time>2026-08-27T18:31:29Z</time>
  <course>71.29</course>
  <speed>0.93</speed>
  <fix>3d</fix>
</trkpt>
<trkpt lat="40.0728093" lon="-105.2306511">
  <ele>1614.89</ele>
  <time>2026-08-27T18:31:29Z</time>
  <course>20.79</course>
  <speed>3.2020774506560583</speed>
  <fix>3d</fix>
</trkpt>
<trkpt lat="40.0728074" lon="-105.2306446">
  <ele>1614.64</ele>
  <time>2026-08-27T18:31:29Z</time>
  <course>298.26</course>
  <speed>2.2</speed>
  <fix>3d</fix>
</trkpt>
<trkpt lat="40.0728121" lon="-105.2306574">
  <ele>1615.08</ele>
  <time>2026-08-27T18:31:29Z</time>
  <course>14.27</course>
  <speed>3.2067740799750766</speed>
  <fix>3d</fix>
</trkpt>
<trkpt lat="40.0728096" lon="-105.2306505">
  <ele>1614.74</ele>
  <time>2026-08-27T18:31:29Z</time>
  <course>295.28</course>
  <speed>3.15</speed>
  <fix>3d</fix>
</trkpt>
<trkpt lat="40.0728126" lon="-105.2306586">
  <ele>1615.12</ele>
  <time>2026-08-27T18:31:29Z</time>
  <course>13.23</course>
  <speed>3.166654385941099</speed>
  <fix>3d</fix>
</trkpt>
<trkpt lat="40.0728146" lon="-105.2306636">
  <ele>1615.26</ele>
  <time>2026-08-27T18:31:29Z</time>
  <course>10.24</course>
  <speed>3.0059274775017446</speed>
  <fix>3d</fix>
</trkpt>
<trkpt lat="40.0728121" lon="-105.2306572">
  <ele>1614.92</ele>
  <time>2026-08-27T18:31:29Z</time>
  <course>295.57</course>
  <speed>3.21</speed>
  <fix>3d</fix>
</trkpt>
<trkpt lat="40.072817" lon="-105.2306695">
  <ele>1615.41</ele>
  <time>2026-08-27T18:31:29Z</time>
  <course>8.97</course>
  <speed>2.755884612969128</speed>
  <fix>3d</fix>
</trkpt>
<trkpt lat="40.0728146" lon="-105.2306639">
  <ele>1615.1</ele>
  <time>2026-08-27T18:31:29Z</time>
  <course>295.94</course>
  <speed>3.05</speed>
  <fix>3d</fix>
</trkpt>
<trkpt lat="40.0728191" lon="-105.2306751">
  <ele>1615.5</ele>
  <time>2026-08-27T18:31:29Z</time>
  <course>8.5</course>
  <speed>2.5188290930509756</speed>
  <fix>3d</fix>
</trkpt>
<trkpt lat="40.0728169" lon="-105.2306701">
  <ele>1615.23</ele>
  <time>2026-08-27T18:31:29Z</time>
  <course>296.21</course>
  <speed>2.81</speed>
  <fix>3d</fix>
</trkpt>
<trkpt lat="40.072821" lon="-105.2306802">
  <ele>1615.55</ele>
  <time>2026-08-27T18:31:29Z</time>
  <course>8.38</course>
  <speed>2.2953213282675695</speed>
  <fix>3d</fix>
</trkpt>
<trkpt lat="40.072819" lon="-105.2306758">
  <ele>1615.31</ele>
  <time>2026-08-27T18:31:29Z</time>
  <course>296.41</course>
  <speed>2.57</speed>
  <fix>3d</fix>
</trkpt>
<trkpt lat="40.0728213" lon="-105.230681">
  <ele>1615.56</ele>
  <time>2026-08-27T18:31:29Z</time>
  <course>8.37</course>
  <speed>2.2594247055390007</speed>
  <fix>3d</fix>
</trkpt>
<trkpt lat="40.0728228" lon="-105.2306848">
  <ele>1615.58</ele>
  <time>2026-08-27T18:31:29Z</time>
  <course>8.39</course>
  <speed>2.0894257584322062</speed>
  <fix>3d</fix>
</trkpt>
<trkpt lat="40.072821" lon="-105.2306809">
  <ele>1615.37</ele>
  <time>2026-08-27T18:31:29Z</time>
  <course>296.51</course>
  <speed>2.34</speed>
  <fix>3d</fix>
</trkpt>
<trkpt lat="40.0728244" lon="-105.2306892">
  <ele>1615.59</ele>
  <time>2026-08-27T18:31:29Z</time>
  <course>8.43</course>
  <speed>1.9058856209122308</speed>
  <fix>3d</fix>
</trkpt>
<trkpt lat="40.0728228" lon="-105.2306856">
  <ele>1615.39</ele>
  <time>2026-08-27T18:31:29Z</time>
  <course>296.57</course>
  <speed>2.13</speed>
  <fix>3d</fix>
</trkpt>
<trkpt lat="40.0728247" lon="-105.2306898">
  <ele>1615.59</ele>
  <time>2026-08-27T18:31:29Z</time>
  <course>8.45</course>
  <speed>1.8835339126227593</speed>
  <fix>3d</fix>
</trkpt>
<trkpt lat="40.0728259" lon="-105.2306931">
  <ele>1615.59</ele>
  <time>2026-08-27T18:31:29Z</time>
  <course>8.52</course>
  <speed>1.735885940953495</speed>
  <fix>3d</fix>
</trkpt>
<trkpt lat="40.0728244" lon="-105.2306899">
  <ele>1615.4</ele>
  <time>2026-08-27T18:31:29Z</time>
  <course>296.58</course>
  <speed>1.94</speed>
  <fix>3d</fix>
</trkpt>
<trkpt lat="40.0728272" lon="-105.2306967">
  <ele>1615.58</ele>
  <time>2026-08-27T18:31:29Z</time>
  <course>8.58</course>
  <speed>1.588238017426859</speed>
  <fix>3d</fix>
</trkpt>
<trkpt lat="40.0728259" lon="-105.2306938">
  <ele>1615.4</ele>
  <time>2026-08-27T18:31:29Z</time>
  <course>296.59</course>
  <speed>1.76</speed>
  <fix>3d</fix>
</trkpt>
<trkpt lat="40.0728275" lon="-105.2306973">
  <ele>1615.58</ele>
  <time>2026-08-27T18:31:29Z</time>
  <course>8.59</course>
  <speed>1.5611854470241517</speed>
  <fix>3d</fix>
</trkpt>
<trkpt lat="40.0728285" lon="-105.2307">
  <ele>1615.58</ele>
  <time>2026-08-27T18:31:29Z</time>
  <course>8.65</course>
  <speed>1.449413674559475</speed>
  <fix>3d</fix>
</trkpt>
<trkpt lat="40.0728272" lon="-105.2306973">
  <ele>1615.4</ele>
  <time>2026-08-27T18:31:29Z</time>
  <course>296.57</course>
  <speed>1.6</speed>
  <fix>3d</fix>
</trkpt>
<trkpt lat="40.0728296" lon="-105.2307029">
  <ele>1615.57</ele>
  <time>2026-08-27T18:31:29Z</time>
  <course>8.7</course>
  <speed>1.3106105447462264</speed>
  <fix>3d</fix>
</trkpt>
<trkpt lat="40.0728285" lon="-105.2307005">
  <ele>1615.4</ele>
  <time>2026-08-27T18:31:29Z</time>
  <course>296.54</course>
  <speed>1.45</speed>
  <fix>3d</fix>
</trkpt>
<trkpt lat="40.0728297" lon="-105.2307034">
  <ele>1615.57</ele>
  <time>2026-08-27T18:31:29Z</time>
  <course>8.71</course>
  <speed>1.2882546332150333</speed>
  <fix>3d</fix>
</trkpt>
<trkpt lat="40.0728306" lon="-105.2307057">
  <ele>1615.57</ele>
  <time>2026-08-27T18:31:29Z</time>
  <course>8.76</course>
  <speed>1.1988327656516566</speed>
  <fix>3d</fix>
</trkpt>
<trkpt lat="40.0728296" lon="-105.2307035">
  <ele>1615.39</ele>
  <time>2026-08-27T18:31:29Z</time>
  <course>296.51</course>
  <speed>1.32</speed>
  <fix>3d</fix>
</trkpt>
<trkpt lat="40.0728315" lon="-105.2307081">
  <ele>1615.57</ele>
  <time>2026-08-27T18:31:29Z</time>
  <course>8.76</course>
  <speed>1.0824047302187847</speed>
  <fix>3d</fix>
</trkpt>
<trkpt lat="40.0728305" lon="-105.2307061">
  <ele>1615.39</ele>
  <time>2026-08-27T18:31:29Z</time>
  <course>296.45</course>
  <speed>1.19</speed>
  <fix>3d</fix>
</trkpt>
<trkpt lat="40.0728316" lon="-105.2307085">
  <ele>1615.57</ele>
  <time>2026-08-27T18:31:29Z</time>
  <course>8.77</course>
  <speed>1.0735455276791945</speed>
  <fix>3d</fix>
</trkpt>
<trkpt lat="40.0728323" lon="-105.2307103">
  <ele>1615.57</ele>
  <time>2026-08-27T18:31:29Z</time>
  <course>8.78</course>
  <speed>0.9929753269845127</speed>
  <fix>3d</fix>
</trkpt>
<trkpt lat="40.0728315" lon="-105.2307085">
  <ele>1615.39</ele>
  <time>2026-08-27T18:31:29Z</time>
  <course>296.4</course>
  <speed>1.08</speed>
  <fix>3d</fix>
</trkpt>
<trkpt lat="40.072833" lon="-105.2307123">
  <ele>1615.58</ele>
  <time>2026-08-27T18:31:29Z</time>
  <course>8.81</course>
  <speed>0.8989438247187641</speed>
  <fix>3d</fix>
</trkpt>
<trkpt lat="40.0728323" lon="-105.2307107">
  <ele>1615.39</ele>
  <time>2026-08-27T18:31:29Z</time>
  <course>296.34</course>
  <speed>0.98</speed>
  <fix>3d</fix>
</trkpt>
<trkpt lat="40.0728332" lon="-105.2307126">
  <ele>1615.58</ele>
  <time>2026-08-27T18:31:29Z</time>
  <course>8.81</course>
  <speed>0.8811923740024082</speed>
  <fix>3d</fix>
</trkpt>
<trkpt lat="40.0728337" lon="-105.2307142">
  <ele>1615.58</ele>
  <time>2026-08-27T18:31:29Z</time>
  <course>8.83</course>
  <speed>0.8095060222135473</speed>
  <fix>3d</fix>
</trkpt>
<trkpt lat="40.0728331" lon="-105.2307126">
  <ele>1615.39</ele>
  <time>2026-08-27T18:31:29Z</time>
  <course>296.24</course>
  <speed>0.88</speed>
  <fix>3d</fix>
</trkpt>
<trkpt lat="40.0728343" lon="-105.2307158">
  <ele>1615.58</ele>
  <time>2026-08-27T18:31:29Z</time>
  <course>8.85</course>
  <speed>0.7335529974037323</speed>
  <fix>3d</fix>
</trkpt>
<trkpt lat="40.0728338" lon="-105.2307144">
  <ele>1615.39</ele>
  <time>2026-08-27T18:31:29Z</time>
  <course>296.13</course>
  <speed>0.8</speed>
  <fix>3d</fix>
</trkpt>
<trkpt lat="40.0728344" lon="-105.230716">
  <ele>1615.58</ele>
  <time>2026-08-27T18:31:29Z</time>
  <course>8.86</course>
  <speed>0.7200694410957876</speed>
  <fix>3d</fix>
</trkpt>
<trkpt lat="40.0728349" lon="-105.2307173">
  <ele>1615.57</ele>
  <time>2026-08-27T18:31:29Z</time>
  <course>8.87</course>
  <speed>0.6664833081180653</speed>
  <fix>3d</fix>
</trkpt>
<trkpt lat="40.0728344" lon="-105.230716">
  <ele>1615.39</ele>
  <time>2026-08-27T18:31:29Z</time>
  <course>296.03</course>
  <speed>0.72</speed>
  <fix>3d</fix>
</trkpt>
<trkpt lat="40.0728354" lon="-105.2307186">
  <ele>1615.57</ele>
  <time>2026-08-27T18:31:29Z</time>
  <course>8.91</course>
  <speed>0.608276253029822</speed>
  <fix>3d</fix>
</trkpt>
<trkpt lat="40.0728349" lon="-105.2307175">
  <ele>1615.39</ele>
  <time>2026-08-27T18:31:29Z</time>
  <course>295.92</course>
  <speed>0.65</speed>
  <fix>3d</fix>
</trkpt>
<trkpt lat="40.0728354" lon="-105.2307187">
  <ele>1615.57</ele>
  <time>2026-08-27T18:31:29Z</time>
  <course>8.91</course>
  <speed>0.5948108943185221</speed>
  <fix>3d</fix>
</trkpt>
<trkpt lat="40.0728358" lon="-105.2307198">
  <ele>1615.57</ele>
  <time>2026-08-27T18:31:29Z</time>
  <course>8.91</course>
  <speed>0.5412023651093923</speed>
  <fix>3d</fix>
</trkpt>
<trkpt lat="40.0728354" lon="-105.2307188">
  <ele>1615.39</ele>
  <time>2026-08-27T18:31:29Z</time>
  <course>295.79</course>
  <speed>0.58</speed>
  <fix>3d</fix>
</trkpt>
<trkpt lat="40.0728362" lon="-105.2307209">
  <ele>1615.57</ele>
  <time>2026-08-27T18:31:29Z</time>
  <course>8.97</course>
  <speed>0.49648766349225637</speed>
  <fix>3d</fix>
</trkpt>
<trkpt lat="40.0728358" lon="-105.2307199">
  <ele>1615.39</ele>
  <time>2026-08-27T18:31:29Z</time>
  <course>295.63</course>
  <speed>0.53</speed>
  <fix>3d</fix>
</trkpt>
<trkpt lat="40.0728363" lon="-105.2307211">
  <ele>1615.57</ele>
  <time>2026-08-27T18:31:29Z</time>
  <course>8.97</course>
  <speed>0.4830113870293329</speed>
  <fix>3d</fix>
</trkpt>
<trkpt lat="40.0728366" lon="-105.2307219">
  <ele>1615.56</ele>
  <time>2026-08-27T18:31:29Z</time>
  <course>8.98</course>
  <speed>0.442944691807002</speed>
  <fix>3d</fix>
</trkpt>
<trkpt lat="40.0728362" lon="-105.2307211">
  <ele>1615.39</ele>
  <time>2026-08-27T18:31:29Z</time>
  <course>295.43</course>
  <speed>0.47</speed>
  <fix>3d</fix>
</trkpt>
<trkpt lat="40.0728369" lon="-105.2307228">
  <ele>1615.57</ele>
  <time>2026-08-27T18:31:29Z</time>
  <course>8.99</course>
  <speed>0.4070626487409524</speed>
  <fix>3d</fix>
</trkpt>
<trkpt lat="40.0728366" lon="-105.230722">
  <ele>1615.39</ele>
  <time>2026-08-27T18:31:29Z</time>
  <course>295.16</course>
  <speed>0.43</speed>
  <fix>3d</fix>
</trkpt>
<trkpt lat="40.0728369" lon="-105.2307229">
  <ele>1615.57</ele>
  <time>2026-08-27T18:31:29Z</time>
  <course>9.0</course>
  <speed>0.3935733730830886</speed>
  <fix>3d</fix>
</trkpt>
<trkpt lat="40.0728372" lon="-105.2307236">
  <ele>1615.57</ele>
  <time>2026-08-27T18:31:29Z</time>
  <course>9.05</course>
  <speed>0.36235341863986875</speed>
  <fix>3d</fix>
</trkpt>
<trkpt lat="40.0728369" lon="-105.2307228">
  <ele>1615.39</ele>
  <time>2026-08-27T18:31:29Z</time>
  <course>294.84</course>
  <speed>0.38</speed>
  <fix>3d</fix>
</trkpt>
<trkpt lat="40.0728374" lon="-105.2307243">
  <ele>1615.57</ele>
  <time>2026-08-27T18:31:29Z</time>
  <course>9.07</course>
  <speed>0.32649655434629016</speed>
  <fix>3d</fix>
</trkpt>
<trkpt lat="40.0728371" lon="-105.2307237">
  <ele>1615.4</ele>
  <time>2026-08-27T18:31:29Z</time>
  <course>294.47</course>
  <speed>0.35</speed>
  <fix>3d</fix>
</trkpt>
<trkpt lat="40.0728375" lon="-105.2307244">
  <ele>1615.57</ele>
  <time>2026-08-27T18:31:29Z</time>
  <course>9.07</course>
  <speed>0.3176476034853718</speed>
  <fix>3d</fix>
</trkpt>
<trkpt lat="40.0728377" lon="-105.2307249">
  <ele>1615.57</ele>
  <time>2026-08-27T18:31:29Z</time>
  <course>9.06</course>
  <speed>0.295296461204668</speed>
  <fix>3d</fix>
</trkpt>
<trkpt lat="40.0728374" lon="-105.2307243">
  <ele>1615.4</ele>
  <time>2026-08-27T18:31:29Z</time>
  <course>294.0</course>
  <speed>0.31</speed>
  <fix>3d</fix>
</trkpt>
<trkpt lat="40.0728378" lon="-105.2307255">
  <ele>1615.57</ele>
  <time>2026-08-27T18:31:29Z</time>
  <course>9.07</course>
  <speed>0.25942243542145693</speed>
  <fix>3d</fix>
</trkpt>
<trkpt lat="40.0728376" lon="-105.230725">
  <ele>1615.4</ele>
  <time>2026-08-27T18:31:29Z</time>
  <course>293.42</course>
  <speed>0.28</speed>
  <fix>3d</fix>
</trkpt>
<trkpt lat="40.0728379" lon="-105.2307256">
  <ele>1615.57</ele>
  <time>2026-08-27T18:31:29Z</time>
  <course>9.08</course>
  <speed>0.25942243542145693</speed>
  <fix>3d</fix>
</trkpt>
<trkpt lat="40.072838" lon="-105.230726">
  <ele>1615.57</ele>
  <time>2026-08-27T18:31:29Z</time>
  <course>9.1</course>
  <speed>0.23706539182259395</speed>
  <fix>3d</fix>
</trkpt>
<trkpt lat="40.0728378" lon="-105.2307256">
  <ele>1615.4</ele>
  <time>2026-08-27T18:31:29Z</time>
  <course>292.67</course>
  <speed>0.25</speed>
  <fix>3d</fix>
</trkpt>
<trkpt lat="40.0728382" lon="-105.2307265">
  <ele>1615.57</ele>
  <time>2026-08-27T18:31:29Z</time>
  <course>9.12</course>
  <speed>0.21470910553583888</speed>
  <fix>3d</fix>
</trkpt>
<trkpt lat="40.072838" lon="-105.2307261">
  <ele>1615.41</ele>
  <time>2026-08-27T18:31:29Z</time>
  <course>291.79</course>
  <speed>0.23</speed>
  <fix>3d</fix>
</trkpt>
<trkpt lat="40.0728382" lon="-105.2307265">
  <ele>1615.57</ele>
  <time>2026-08-27T18:31:29Z</time>
  <course>9.12</course>
  <speed>0.20591260281974003</speed>
  <fix>3d</fix>
</trkpt>
<trkpt lat="40.0728383" lon="-105.2307269">
  <ele>1615.57</ele>
  <time>2026-08-27T18:31:29Z</time>
  <course>9.13</course>
  <speed>0.19235384061671343</speed>
  <fix>3d</fix>
</trkpt>
<trkpt lat="40.0728381" lon="-105.2307266">
  <ele>1615.41</ele>
  <time>2026-08-27T18:31:29Z</time>
  <course>290.75</course>
  <speed>0.2</speed>
  <fix>3d</fix>
</trkpt>
<trkpt lat="40.0728384" lon="-105.2307273">
  <ele>1615.58</ele>
  <time>2026-08-27T18:31:29Z</time>
  <course>9.13</course>
  <speed>0.17</speed>
  <fix>3d</fix>
</trkpt>
<trkpt lat="40.0728382" lon="-105.2307271">
  <ele>1615.41</ele>
  <time>2026-08-27T18:31:29Z</time>
  <course>289.5</course>
  <speed>0.18</speed>
  <fix>3d</fix>
</trkpt>
<trkpt lat="40.0728384" lon="-105.2307273">
  <ele>1615.58</ele>
  <time>2026-08-27T18:31:29Z</time>
  <course>9.14</course>
  <speed>0.17</speed>
  <fix>3d</fix>
</trkpt>
<trkpt lat="40.0728385" lon="-105.2307277">
  <ele>1615.58</ele>
  <time>2026-08-27T18:31:29Z</time>
  <course>9.16</course>
  <speed>0.147648230602334</speed>
  <fix>3d</fix>
</trkpt>
<trkpt lat="40.0728383" lon="-105.2307275">
  <ele>1615.41</ele>
  <time>2026-08-27T18:31:29Z</time>
  <course>287.96</course>
  <speed>0.16</speed>
  <fix>3d</fix>
</trkpt>
<trkpt lat="40.0728386" lon="-105.230728">
  <ele>1615.58</ele>
  <time>2026-08-27T18:31:29Z</time>
  <course>9.18</course>
  <speed>0.1341640786499874</speed>
  <fix>3d</fix>
</trkpt>
<trkpt lat="40.0728384" lon="-105.2307278">
  <ele>1615.41</ele>
  <time>2026-08-27T18:31:29Z</time>
  <course>286.18</course>
  <speed>0.15</speed>
  <fix>3d</fix>
</trkpt>
<trkpt lat="40.0728386" lon="-105.230728">
  <ele>1615.58</ele>
  <time>2026-08-27T18:31:29Z</time>
  <course>9.18</course>
  <speed>0.1341640786499874</speed>
  <fix>3d</fix>
</trkpt>
<trkpt lat="40.0728386" lon="-105.2307283">
  <ele>1615.58</ele>
  <time>2026-08-27T18:31:29Z</time>
  <course>9.19</course>
  <speed>0.12083045973594572</speed>
  <fix>3d</fix>
</trkpt>
<trkpt lat="40.0728384" lon="-105.2307281">
  <ele>1615.41</ele>
  <time>2026-08-27T18:31:29Z</time>
  <course>284.22</course>
  <speed>0.13</speed>
  <fix>3d</fix>
</trkpt>
<trkpt lat="40.0728387" lon="-105.2307285">
  <ele>1615.58</ele>
  <time>2026-08-27T18:31:29Z</time>
  <course>9.2</course>
  <speed>0.1118033988749895</speed>
  <fix>3d</fix>
</trkpt>
<trkpt lat="40.0728385" lon="-105.2307284">
  <ele>1615.42</ele>
  <time>2026-08-27T18:31:29Z</time>
  <course>282.0</course>
  <speed>0.12</speed>
  <fix>3d</fix>
</trkpt>
<trkpt lat="40.0728387" lon="-105.2307286">
  <ele>1615.58</ele>
  <time>2026-08-27T18:31:29Z</time>
  <course>9.21</course>
  <speed>0.09848857801796104</speed>
  <fix>3d</fix>
</trkpt>
<trkpt lat="40.0728387" lon="-105.2307288">
  <ele>1615.58</ele>
  <time>2026-08-27T18:31:29Z</time>
  <course>9.21</course>
  <speed>0.08944271909999159</speed>
  <fix>3d</fix>
</trkpt>
<trkpt lat="40.0728386" lon="-105.2307286">
  <ele>1615.42</ele>
  <time>2026-08-27T18:31:29Z</time>
  <course>279.22</course>
  <speed>0.11</speed>
  <fix>3d</fix>
</trkpt>
<trkpt lat="40.0728387" lon="-105.230729">
  <ele>1615.58</ele>
  <time>2026-08-27T18:31:29Z</time>
  <course>9.23</course>
  <speed>0.07615773105863909</speed>
  <fix>3d</fix>
</trkpt>
<trkpt lat="40.0728386" lon="-105.2307289">
  <ele>1615.42</ele>
  <time>2026-08-27T18:31:29Z</time>
  <course>275.96</course>
  <speed>0.1</speed>
  <fix>3d</fix>
</trkpt>
<trkpt lat="40.0728387" lon="-105.230729">
  <ele>1615.58</ele>
  <time>2026-08-27T18:31:29Z</time>
  <course>9.23</course>
  <speed>0.07615773105863909</speed>
  <fix>3d</fix>
</trkpt>
<trkpt lat="40.0728387" lon="-105.2307292">
  <ele>1615.57</ele>
  <time>2026-08-27T18:31:29Z</time>
  <course>9.26</course>
  <speed>0.07615773105863909</speed>
  <fix>3d</fix>
</trkpt>
<trkpt lat="40.0728386" lon="-105.2307291">
  <ele>1615.42</ele>
  <time>2026-08-27T18:31:29Z</time>
  <course>272.61</course>
  <speed>0.09</speed>
  <fix>3d</fix>
</trkpt>
<trkpt lat="40.0728387" lon="-105.2307294">
  <ele>1615.57</ele>
  <time>2026-08-27T18:31:30Z</time>
  <course>9.28</course>
  <speed>0.0632455532033676</speed>
  <fix>3d</fix>
</trkpt>
<trkpt lat="40.0728386" lon="-105.2307294">
  <ele>1615.42</ele>
  <time>2026-08-27T18:31:30Z</time>
  <course>269.14</course>
  <speed>0.08</speed>
  <fix>3d</fix>
</trkpt>
<trkpt lat="40.0728387" lon="-105.2307294">
  <ele>1615.57</ele>
  <time>2026-08-27T18:31:30Z</time>
  <course>9.3</course>
  <speed>0.0632455532033676</speed>
  <fix>3d</fix>
</trkpt>
<trkpt lat="40.0728387" lon="-105.2307295">
  <ele>1615.57</ele>
  <time>2026-08-27T18:31:30Z</time>
  <course>9.31</course>
  <speed>0.053851648071345036</speed>
  <fix>3d</fix>
</trkpt>
<trkpt lat="40.0728386" lon="-105.2307295">
  <ele>1615.42</ele>
  <time>2026-08-27T18:31:30Z</time>
  <course>265.51</course>
  <speed>0.08</speed>
  <fix>3d</fix>
</trkpt>
<trkpt lat="40.0728387" lon="-105.2307297">
  <ele>1615.57</ele>
  <time>2026-08-27T18:31:30Z</time>
  <course>9.3</course>
  <speed>0.05099019513592785</speed>
  <fix>3d</fix>
</trkpt>
<trkpt lat="40.0728386" lon="-105.2307298">
  <ele>1615.42</ele>
  <time>2026-08-27T18:31:30Z</time>
  <course>261.78</course>
  <speed>0.07</speed>
  <fix>3d</fix>
</trkpt>
<trkpt lat="40.0728387" lon="-105.2307297">
  <ele>1615.57</ele>
  <time>2026-08-27T18:31:30Z</time>
  <course>9.3</course>
  <speed>0.05099019513592785</speed>
  <fix>3d</fix>
</trkpt>
<trkpt lat="40.0728387" lon="-105.2307299">
  <ele>1615.57</ele>
  <time>2026-08-27T18:31:30Z</time>
  <course>9.34</course>
  <speed>0.0412310562561766</speed>
  <fix>3d</fix>
</trkpt>
<trkpt lat="40.0728386" lon="-105.23073">
  <ele>1615.42</ele>
  <time>2026-08-27T18:31:30Z</time>
  <course>258.01</course>
  <speed>0.07</speed>
  <fix>3d</fix>
</trkpt>
<trkpt lat="40.0728387" lon="-105.23073">
  <ele>1615.57</ele>
  <time>2026-08-27T18:31:30Z</time>
  <course>9.34</course>
  <speed>0.0412310562561766</speed>
  <fix>3d</fix>
</trkpt>
<trkpt lat="40.0728386" lon="-105.2307301">
  <ele>1615.42</ele>
  <time>2026-08-27T18:31:30Z</time>
  <course>254.29</course>
  <speed>0.07</speed>
  <fix>3d</fix>
</trkpt>
<trkpt lat="40.0728387" lon="-105.23073">
  <ele>1615.57</ele>
  <time>2026-08-27T18:31:30Z</time>
  <course>9.35</course>
  <speed>0.04</speed>
  <fix>3d</fix>
</trkpt>
<trkpt lat="40.0728387" lon="-105.2307302">
  <ele>1615.57</ele>
  <time>2026-08-27T18:31:30Z</time>
  <course>9.35</course>
  <speed>0.04</speed>
  <fix>3d</fix>
</trkpt>
<trkpt lat="40.0728386" lon="-105.2307303">
  <ele>1615.43</ele>
  <time>2026-08-27T18:31:30Z</time>
  <course>250.61</course>
  <speed>0.07</speed>
  <fix>3d</fix>
</trkpt>
<trkpt lat="40.0728387" lon="-105.2307303">
  <ele>1615.57</ele>
  <time>2026-08-27T18:31:30Z</time>
  <course>9.38</course>
  <speed>0.03</speed>
  <fix>3d</fix>
</trkpt>
<trkpt lat="40.0728386" lon="-105.2307304">
  <ele>1615.43</ele>
  <time>2026-08-27T18:31:30Z</time>
  <course>247.18</course>
  <speed>0.06</speed>
  <fix>3d</fix>
</trkpt>
<trkpt lat="40.0728387" lon="-105.2307303">
  <ele>1615.57</ele>
  <time>2026-08-27T18:31:30Z</time>
  <course>9.38</course>
  <speed>0.03</speed>
  <fix>3d</fix>
</trkpt>
<trkpt lat="40.0728387" lon="-105.2307304">
  <ele>1615.57</ele>
  <time>2026-08-27T18:31:30Z</time>
  <course>9.39</course>
  <speed>0.03</speed>
  <fix>3d</fix>
</trkpt>
<trkpt lat="40.0728385" lon="-105.2307305">
  <ele>1615.43</ele>
  <time>2026-08-27T18:31:30Z</time>
  <course>243.98</course>
  <speed>0.06</speed>
  <fix>3d</fix>
</trkpt>
<trkpt lat="40.0728386" lon="-105.2307306">
  <ele>1615.57</ele>
  <time>2026-08-27T18:31:30Z</time>
  <course>9.39</course>
  <speed>0.03</speed>
  <fix>3d</fix>
</trkpt>
<trkpt lat="40.0728384" lon="-105.2307307">
  <ele>1615.44</ele>
  <time>2026-08-27T18:31:30Z</time>
  <course>241.1</course>
  <speed>0.06</speed>
  <fix>3d</fix>
</trkpt>
<trkpt lat="40.0728386" lon="-105.2307306">
  <ele>1615.57</ele>
  <time>2026-08-27T18:31:30Z</time>
  <course>9.39</course>
  <speed>0.03</speed>
  <fix>3d</fix>
</trkpt>
<trkpt lat="40.0728385" lon="-105.2307307">
  <ele>1615.58</ele>
  <time>2026-08-27T18:31:30Z</time>
  <course>9.41</course>
  <speed>0.03</speed>
  <fix>3d</fix>
</trkpt>
<trkpt lat="40.0728383" lon="-105.2307308">
  <ele>1615.44</ele>
  <time>2026-08-27T18:31:30Z</time>
  <course>238.52</course>
  <speed>0.06</speed>
  <fix>3d</fix>
</trkpt>
<trkpt lat="40.0728385" lon="-105.2307308">
  <ele>1615.57</ele>
  <time>2026-08-27T18:31:30Z</time>
  <course>9.41</course>
  <speed>0.02</speed>
  <fix>3d</fix>
</trkpt>
<trkpt lat="40.0728383" lon="-105.2307309">
  <ele>1615.44</ele>
  <time>2026-08-27T18:31:30Z</time>
  <course>236.35</course>
  <speed>0.06</speed>
  <fix>3d</fix>
</trkpt>
<trkpt lat="40.0728385" lon="-105.2307308">
  <ele>1615.57</ele>
  <time>2026-08-27T18:31:30Z</time>
  <course>9.41</course>
  <speed>0.02</speed>
  <fix>3d</fix>
</trkpt>
<trkpt lat="40.0728384" lon="-105.2307309">
  <ele>1615.57</ele>
  <time>2026-08-27T18:31:30Z</time>
  <course>9.44</course>
  <speed>0.02</speed>
  <fix>3d</fix>
</trkpt>
<trkpt lat="40.0728382" lon="-105.2307311">
  <ele>1615.44</ele>
  <time>2026-08-27T18:31:30Z</time>
  <course>234.58</course>
  <speed>0.06</speed>
  <fix>3d</fix>
</trkpt>
<trkpt lat="40.0728383" lon="-105.230731">
  <ele>1615.57</ele>
  <time>2026-08-27T18:31:30Z</time>
  <course>9.44</course>
  <speed>0.022360679774997897</speed>
  <fix>3d</fix>
</trkpt>
<trkpt lat="40.0728382" lon="-105.2307312">
  <ele>1615.45</ele>
  <time>2026-08-27T18:31:30Z</time>
  <course>232.52</course>
  <speed>0.06</speed>
  <fix>3d</fix>
</trkpt>
<trkpt lat="40.0728383" lon="-105.2307311">
  <ele>1615.58</ele>
  <time>2026-08-27T18:31:30Z</time>
  <course>9.45</course>
  <speed>0.022360679774997897</speed>
  <fix>3d</fix>
</trkpt>
<trkpt lat="40.0728383" lon="-105.2307312">
  <ele>1615.58</ele>
  <time>2026-08-27T18:31:30Z</time>
  <course>9.44</course>
  <speed>0.022360679774997897</speed>
  <fix>3d</fix>
</trkpt>
<trkpt lat="40.0728381" lon="-105.2307314">
  <ele>1615.45</ele>
  <time>2026-08-27T18:31:30Z</time>
  <course>230.55</course>
  <speed>0.06</speed>
  <fix>3d</fix>
</trkpt>
<trkpt lat="40.0728382" lon="-105.2307313">
  <ele>1615.59</ele>
  <time>2026-08-27T18:31:30Z</time>
  <course>9.45</course>
  <speed>0.022360679774997897</speed>
  <fix>3d</fix>
</trkpt>
<trkpt lat="40.072838" lon="-105.2307315">
  <ele>1615.45</ele>
  <time>2026-08-27T18:31:30Z</time>
  <course>229.33</course>
  <speed>0.07</speed>
  <fix>3d</fix>
</trkpt>
<trkpt lat="40.0728382" lon="-105.2307313">
  <ele>1615.58</ele>
  <time>2026-08-27T18:31:30Z</time>
  <course>9.45</course>
  <speed>0.022360679774997897</speed>
  <fix>3d</fix>
</trkpt>
<trkpt lat="40.0728381" lon="-105.2307314">
  <ele>1615.59</ele>
  <time>2026-08-27T18:31:30Z</time>
  <course>9.44</course>
  <speed>0.022360679774997897</speed>
  <fix>3d</fix>
</trkpt>
<trkpt lat="40.0728379" lon="-105.2307316">
  <ele>1615.45</ele>
  <time>2026-08-27T18:31:30Z</time>
  <course>228.25</course>
  <speed>0.07</speed>
  <fix>3d</fix>
</trkpt>
<trkpt lat="40.072838" lon="-105.2307315">
  <ele>1615.59</ele>
  <time>2026-08-27T18:31:30Z</time>
  <course>9.46</course>
  <speed>0.022360679774997897</speed>
  <fix>3d</fix>
</trkpt>
<trkpt lat="40.0728378" lon="-105.2307317">
  <ele>1615.45</ele>
  <time>2026-08-27T18:31:30Z</time>
  <course>227.19</course>
  <speed>0.07</speed>
  <fix>3d</fix>
</trkpt>
<trkpt lat="40.072838" lon="-105.2307315">
  <ele>1615.59</ele>
  <time>2026-08-27T18:31:30Z</time>
  <course>9.45</course>
  <speed>0.022360679774997897</speed>
  <fix>3d</fix>
</trkpt>
<trkpt lat="40.0728379" lon="-105.2307317">
  <ele>1615.59</ele>
  <time>2026-08-27T18:31:30Z</time>
  <course>9.45</course>
  <speed>0.022360679774997897</speed>
  <fix>3d</fix>
</trkpt>
<trkpt lat="40.0728377" lon="-105.2307319">
  <ele>1615.45</ele>
  <time>2026-08-27T18:31:30Z</time>
  <course>226.3</course>
  <speed>0.07</speed>
  <fix>3d</fix>
</trkpt>
<trkpt lat="40.0728378" lon="-105.2307318">
  <ele>1615.59</ele>
  <time>2026-08-27T18:31:30Z</time>
  <course>9.11</course>
  <speed>0.02</speed>
  <fix>3d</fix>
</trkpt>
<trkpt lat="40.0728376" lon="-105.230732">
  <ele>1615.45</ele>
  <time>2026-08-27T18:31:30Z</time>
  <course>225.57</course>
  <speed>0.07</speed>
  <fix>3d</fix>
</trkpt>
<trkpt lat="40.0728377" lon="-105.2307318">
  <ele>1615.44</ele>
  <time>2026-08-27T18:31:30Z</time>
  <course>6.91</course>
  <speed>0.053851648071345036</speed>
  <fix>3d</fix>
</trkpt>
<trkpt lat="40.0728376" lon="-105.2307321">
  <ele>1615.41</ele>
  <time>2026-08-27T18:31:30Z</time>
  <course>214.0</course>
  <speed>0.06</speed>
  <fix>3d</fix>
</trkpt>
<trkpt lat="40.0728376" lon="-105.2307315">
  <ele>1615.15</ele>
  <time>2026-08-27T18:31:30Z</time>
  <course>5.64</course>
  <speed>0.4301162633521314</speed>
  <fix>3d</fix>
</trkpt>
<trkpt lat="40.0728375" lon="-105.2307321">
  <ele>1615.26</ele>
  <time>2026-08-27T18:31:30Z</time>
  <course>123.78</course>
  <speed>0.09</speed>
  <fix>3d</fix>
</trkpt>
<trkpt lat="40.0728375" lon="-105.2307297">
  <ele>1614.73</ele>
  <time>2026-08-27T18:31:30Z</time>
  <course>4.2</course>
  <speed>1.1703845521878697</speed>
  <fix>3d</fix>
</trkpt>
<trkpt lat="40.0728374" lon="-105.2307316">
  <ele>1614.96</ele>
  <time>2026-08-27T18:31:30Z</time>
  <course>95.56</course>
  <speed>0.48</speed>
  <fix>3d</fix>
</trkpt>
<trkpt lat="40.0728374" lon="-105.2307262">
  <ele>1614.09</ele>
  <time>2026-08-27T18:31:30Z</time>
  <course>4.13</course>
  <speed>1.8517289218457436</speed>
  <fix>3d</fix>
</trkpt>
<trkpt lat="40.0728373" lon="-105.2307297">
  <ele>1614.51</ele>
  <time>2026-08-27T18:31:30Z</time>
  <course>92.91</course>
  <speed>1.16</speed>
  <fix>3d</fix>
</trkpt>
<trkpt lat="40.0728372" lon="-105.2307217">
  <ele>1613.15</ele>
  <time>2026-08-27T18:31:30Z</time>
  <course>5.33</course>
  <speed>1.9625493624365222</speed>
  <fix>3d</fix>
</trkpt>
<trkpt lat="40.0728371" lon="-105.2307262">
  <ele>1613.85</ele>
  <time>2026-08-27T18:31:30Z</time>
  <course>92.93</course>
  <speed>1.76</speed>
  <fix>3d</fix>
</trkpt>
<trkpt lat="40.0728372" lon="-105.2307215">
  <ele>1611.99</ele>
  <time>2026-08-27T18:31:30Z</time>
  <course>4.38</course>
  <speed>2.0640009689920205</speed>
  <fix>3d</fix>
</trkpt>
<trkpt lat="40.072837" lon="-105.2307221">
  <ele>1612.9</ele>
  <time>2026-08-27T18:31:30Z</time>
  <course>92.3</course>
  <speed>1.06</speed>
  <fix>3d</fix>
</trkpt>
<trkpt lat="40.0728379" lon="-105.2307312">
  <ele>1610.96</ele>
  <time>2026-08-27T18:31:30Z</time>
  <course>359.92</course>
  <speed>5.612165357506851</speed>
  <fix>3d</fix>
</trkpt>
<trkpt lat="40.072837" lon="-105.2307227">
  <ele>1611.78</ele>
  <time>2026-08-27T18:31:30Z</time>
  <course>275.99</course>
  <speed>2.03</speed>
  <fix>3d</fix>
</trkpt>
<trkpt lat="40.072839" lon="-105.2307463">
  <ele>1610.35</ele>
  <time>2026-08-27T18:31:30Z</time>
  <course>357.01</course>
  <speed>7.299897259550986</speed>
  <fix>3d</fix>
</trkpt>
<trkpt lat="40.0728376" lon="-105.2307318">
  <ele>1610.8</ele>
  <time>2026-08-27T18:31:30Z</time>
  <course>275.17</course>
  <speed>5.47</speed>
  <fix>3d</fix>
</trkpt>
<trkpt lat="40.07284" lon="-105.2307635">
  <ele>1610.22</ele>
  <time>2026-08-27T18:31:30Z</time>
  <course>356.31</course>
  <speed>7.64280707593748</speed>
  <fix>3d</fix>
</trkpt>
<trkpt lat="40.0728387" lon="-105.2307469">
  <ele>1610.2</ele>
  <time>2026-08-27T18:31:30Z</time>
  <course>274.47</course>
  <speed>7.2</speed>
  <fix>3d</fix>
</trkpt>
<trkpt lat="40.0728409" lon="-105.2307808">
  <ele>1610.45</ele>
  <time>2026-08-27T18:31:30Z</time>
  <course>358.78</course>
  <speed>7.342942189613098</speed>
  <fix>3d</fix>
</trkpt>
<trkpt lat="40.0728396" lon="-105.2307645">
  <ele>1610.07</ele>
  <time>2026-08-27T18:31:30Z</time>
  <course>273.94</course>
  <speed>7.66</speed>
  <fix>3d</fix>
</trkpt>
<trkpt lat="40.0728418" lon="-105.2307973">
  <ele>1610.83</ele>
  <time>2026-08-27T18:31:30Z</time>
  <course>3.74</course>
  <speed>6.875361808661418</speed>
  <fix>3d</fix>
</trkpt>
<trkpt lat="40.0728406" lon="-105.2307823">
  <ele>1610.29</ele>
  <time>2026-08-27T18:31:30Z</time>
  <course>274.08</course>
  <speed>7.44</speed>
  <fix>3d</fix>
</trkpt>
<trkpt lat="40.0728428" lon="-105.2308127">
  <ele>1611.16</ele>
  <time>2026-08-27T18:31:30Z</time>
  <course>8.42</course>
  <speed>6.367393501268789</speed>
  <fix>3d</fix>
</trkpt>
<trkpt lat="40.0728415" lon="-105.2307992">
  <ele>1610.65</ele>
  <time>2026-08-27T18:31:30Z</time>
  <course>274.53</course>
  <speed>6.99</speed>
  <fix>3d</fix>
</trkpt>
<trkpt lat="40.0728438" lon="-105.2308273">
  <ele>1611.47</ele>
  <time>2026-08-27T18:31:30Z</time>
  <course>9.52</course>
  <speed>5.938392038254127</speed>
  <fix>3d</fix>
</trkpt>
<trkpt lat="40.0728426" lon="-105.230815">
  <ele>1611.0</ele>
  <time>2026-08-27T18:31:30Z</time>
  <course>274.96</course>
  <speed>6.5</speed>
  <fix>3d</fix>
</trkpt>
<trkpt lat="40.0728447" lon="-105.230841">
  <ele>1611.74</ele>
  <time>2026-08-27T18:31:30Z</time>
  <course>9.89</course>
  <speed>5.559298516899412</speed>
  <fix>3d</fix>
</trkpt>
<trkpt lat="40.0728436" lon="-105.2308297">
  <ele>1611.31</ele>
  <time>2026-08-27T18:31:30Z</time>
  <course>275.4</course>
  <speed>6.04</speed>
  <fix>3d</fix>
</trkpt>
<trkpt lat="40.0728457" lon="-105.2308539">
  <ele>1611.98</ele>
  <time>2026-08-27T18:31:30Z</time>
  <course>10.49</course>
  <speed>5.188178871241815</speed>
  <fix>3d</fix>
</trkpt>
<trkpt lat="40.0728445" lon="-105.2308434">
  <ele>1611.58</ele>
  <time>2026-08-27T18:31:30Z</time>
  <course>275.74</course>
  <speed>5.64</speed>
  <fix>3d</fix>
</trkpt>
<trkpt lat="40.0728466" lon="-105.2308658">
  <ele>1612.15</ele>
  <time>2026-08-27T18:31:30Z</time>
  <course>11.09</course>
  <speed>4.814997403945302</speed>
  <fix>3d</fix>
</trkpt>
<trkpt lat="40.0728455" lon="-105.230856">
  <ele>1611.81</ele>
  <time>2026-08-27T18:31:30Z</time>
  <course>275.94</course>
  <speed>5.25</speed>
  <fix>3d</fix>
</trkpt>
<trkpt lat="40.0728474" lon="-105.230877">
  <ele>1612.27</ele>
  <time>2026-08-27T18:31:30Z</time>
  <course>11.61</course>
  <speed>4.4119950135964565</speed>
  <fix>3d</fix>
</trkpt>
<trkpt lat="40.0728465" lon="-105.2308678">
  <ele>1611.98</ele>
  <time>2026-08-27T18:31:30Z</time>
  <course>276.0</course>
  <speed>4.85</speed>
  <fix>3d</fix>
</trkpt>
<trkpt lat="40.0728481" lon="-105.230887">
  <ele>1612.32</ele>
  <time>2026-08-27T18:31:30Z</time>
  <course>11.95</course>
  <speed>3.988144932170846</speed>
  <fix>3d</fix>
</trkpt>
<trkpt lat="40.0728474" lon="-105.2308787">
  <ele>1612.08</ele>
  <time>2026-08-27T18:31:30Z</time>
  <course>275.97</course>
  <speed>4.44</speed>
  <fix>3d</fix>
</trkpt>
<trkpt lat="40.0728488" lon="-105.230896">
  <ele>1612.32</ele>
  <time>2026-08-27T18:31:30Z</time>
  <course>12.15</course>
  <speed>3.5453913747286068</speed>
  <fix>3d</fix>
</trkpt>
<trkpt lat="40.0728482" lon="-105.2308885">
  <ele>1612.13</ele>
  <time>2026-08-27T18:31:30Z</time>
  <course>275.9</course>
  <speed>4.01</speed>
  <fix>3d</fix>
</trkpt>
<trkpt lat="40.0728493" lon="-105.2309039">
  <ele>1612.27</ele>
  <time>2026-08-27T18:31:30Z</time>
  <course>12.22</course>
  <speed>3.061061907247222</speed>
  <fix>3d</fix>
</trkpt>
<trkpt lat="40.0728488" lon="-105.2308974">
  <ele>1612.12</ele>
  <time>2026-08-27T18:31:30Z</time>
  <course>275.81</course>
  <speed>3.55</speed>
  <fix>3d</fix>
</trkpt>
<trkpt lat="40.0728498" lon="-105.2309106">
  <ele>1612.19</ele>
  <time>2026-08-27T18:31:30Z</time>
  <course>12.19</course>
  <speed>2.547861848688033</speed>
  <fix>3d</fix>
</trkpt>
<trkpt lat="40.0728495" lon="-105.2309051">
  <ele>1612.07</ele>
  <time>2026-08-27T18:31:30Z</time>
  <course>275.69</course>
  <speed>3.05</speed>
  <fix>3d</fix>
</trkpt>
<trkpt lat="40.0728502" lon="-105.230916">
  <ele>1612.08</ele>
  <time>2026-08-27T18:31:30Z</time>
  <course>12.05</course>
  <speed>2.0355343278854328</speed>
  <fix>3d</fix>
</trkpt>
<trkpt lat="40.07285" lon="-105.2309117">
  <ele>1611.99</ele>
  <time>2026-08-27T18:31:30Z</time>
  <course>275.63</course>
  <speed>2.53</speed>
  <fix>3d</fix>
</trkpt>
<trkpt lat="40.0728505" lon="-105.2309203">
  <ele>1611.95</ele>
  <time>2026-08-27T18:31:30Z</time>
  <course>11.92</course>
  <speed>1.5339491516996253</speed>
  <fix>3d</fix>
</trkpt>
<trkpt lat="40.0728503" lon="-105.230917">
  <ele>1611.88</ele>
  <time>2026-08-27T18:31:30Z</time>
  <course>275.77</course>
  <speed>2.0</speed>
  <fix>3d</fix>
</trkpt>
<trkpt lat="40.0728507" lon="-105.2309234">
  <ele>1611.81</ele>
  <time>2026-08-27T18:31:30Z</time>
  <course>11.79</course>
  <speed>1.0829589096544707</speed>
  <fix>3d</fix>
</trkpt>
<trkpt lat="40.0728507" lon="-105.230921">
  <ele>1611.75</ele>
  <time>2026-08-27T18:31:30Z</time>
  <course>276.29</course>
  <speed>1.5</speed>
  <fix>3d</fix>
</trkpt>
<trkpt lat="40.0728509" lon="-105.2309256">
  <ele>1611.67</ele>
  <time>2026-08-27T18:31:30Z</time>
  <course>11.69</course>
  <speed>0.6818357573492314</speed>
  <fix>3d</fix>
</trkpt>
<trkpt lat="40.072851" lon="-105.2309241">
  <ele>1611.6</ele>
  <time>2026-08-27T18:31:30Z</time>
  <course>277.4</course>
  <speed>1.04</speed>
  <fix>3d</fix>
</trkpt>
<trkpt lat="40.0728511" lon="-105.2309268">
  <ele>1611.52</ele>
  <time>2026-08-27T18:31:30Z</time>
  <course>11.61</course>
  <speed>0.3306055050963308</speed>
  <fix>3d</fix>
</trkpt>
<trkpt lat="40.0728512" lon="-105.230926">
  <ele>1611.45</ele>
  <time>2026-08-27T18:31:30Z</time>
  <course>279.6</course>
  <speed>0.64</speed>
  <fix>3d</fix>
</trkpt>
<trkpt lat="40.0728512" lon="-105.2309273">
  <ele>1611.37</ele>
  <time>2026-08-27T18:31:30Z</time>
  <course>11.57</course>
  <speed>0.05</speed>
  <fix>3d</fix>
</trkpt>
<trkpt lat="40.0728514" lon="-105.2309271">
  <ele>1611.3</ele>
  <time>2026-08-27T18:31:30Z</time>
  <course>285.5</course>
  <speed>0.29</speed>
  <fix>3d</fix>
</trkpt>
<trkpt lat="40.0728512" lon="-105.2309271">
  <ele>1611.22</ele>
  <time>2026-08-27T18:31:30Z</time>
  <course>11.54</course>
  <speed>0.1711724276862369</speed>
  <fix>3d</fix>
</trkpt>
<trkpt lat="40.0728515" lon="-105.2309274">
  <ele>1611.14</ele>
  <time>2026-08-27T18:31:30Z</time>
  <course>4.09</course>
  <speed>0.05</speed>
  <fix>3d</fix>
</trkpt>
<trkpt lat="40.0728513" lon="-105.2309265">
  <ele>1611.07</ele>
  <time>2026-08-27T18:31:30Z</time>
  <course>11.53</course>
  <speed>0.3535533905932738</speed>
  <fix>3d</fix>
</trkpt>
<trkpt lat="40.0728516" lon="-105.2309271">
  <ele>1610.99</ele>
  <time>2026-08-27T18:31:30Z</time>
  <course>84.76</course>
  <speed>0.23</speed>
  <fix>3d</fix>
</trkpt>
<trkpt lat="40.0728513" lon="-105.2309255">
  <ele>1610.92</ele>
  <time>2026-08-27T18:31:30Z</time>
  <course>11.45</course>
  <speed>0.5048762224545735</speed>
  <fix>3d</fix>
</trkpt>
<trkpt lat="40.0728516" lon="-105.2309263">
  <ele>1610.84</ele>
  <time>2026-08-27T18:31:30Z</time>
  <course>91.02</course>
  <speed>0.41</speed>
  <fix>3d</fix>
</trkpt>
<trkpt lat="40.0728512" lon="-105.2309241">
  <ele>1610.78</ele>
  <time>2026-08-27T18:31:30Z</time>
  <course>11.32</course>
  <speed>0.6280127387243033</speed>
  <fix>3d</fix>
</trkpt>
<trkpt lat="40.0728516" lon="-105.2309252">
  <ele>1610.69</ele>
  <time>2026-08-27T18:31:30Z</time>
  <course>93.82</course>
  <speed>0.56</speed>
  <fix>3d</fix>
</trkpt>
<trkpt lat="40.0728511" lon="-105.2309224">
  <ele>1610.66</ele>
  <time>2026-08-27T18:31:30Z</time>
  <course>11.12</course>
  <speed>0.7414849964766651</speed>
  <fix>3d</fix>
</trkpt>
<trkpt lat="40.0728515" lon="-105.2309238">
  <ele>1610.55</ele>
  <time>2026-08-27T18:31:30Z</time>
  <course>95.74</course>
  <speed>0.69</speed>
  <fix>3d</fix>
</trkpt>
<trkpt lat="40.0728509" lon="-105.2309205">
  <ele>1610.55</ele>
  <time>2026-08-27T18:31:30Z</time>
  <course>10.86</course>
  <speed>0.8631338250816034</speed>
  <fix>3d</fix>
</trkpt>
<trkpt lat="40.0728514" lon="-105.230922">
  <ele>1610.42</ele>
  <time>2026-08-27T18:31:30Z</time>
  <course>97.11</course>
  <speed>0.8</speed>
  <fix>3d</fix>
</trkpt>
<trkpt lat="40.0728507" lon="-105.2309183">
  <ele>1610.47</ele>
  <time>2026-08-27T18:31:30Z</time>
  <course>10.57</course>
  <speed>0.9847842403288144</speed>
  <fix>3d</fix>
</trkpt>
<trkpt lat="40.0728512" lon="-105.23092">
  <ele>1610.32</ele>
  <time>2026-08-27T18:31:30Z</time>
  <course>97.92</course>
  <speed>0.92</speed>
  <fix>3d</fix>
</trkpt>
<trkpt lat="40.0728504" lon="-105.2309158">
  <ele>1610.41</ele>
  <time>2026-08-27T18:31:30Z</time>
  <course>14.52</course>
  <speed>1.0538026380684382</speed>
  <fix>3d</fix>
</trkpt>
<trkpt lat="40.0728509" lon="-105.2309177">
  <ele>1610.24</ele>
  <time>2026-08-27T18:31:30Z</time>
  <course>98.21</course>
  <speed>1.04</speed>
  <fix>3d</fix>
</trkpt>
<trkpt lat="40.0728502" lon="-105.2309131">
  <ele>1610.38</ele>
  <time>2026-08-27T18:31:30Z</time>
  <course>28.16</course>
  <speed>1.2205326705991937</speed>
  <fix>3d</fix>
</trkpt>
<trkpt lat="40.0728506" lon="-105.2309152">
  <ele>1610.19</ele>
  <time>2026-08-27T18:31:30Z</time>
  <course>97.67</course>
  <speed>1.14</speed>
  <fix>3d</fix>
</trkpt>
<trkpt lat="40.07285" lon="-105.2309099">
  <ele>1610.37</ele>
  <time>2026-08-27T18:31:30Z</time>
  <course>39.99</course>
  <speed>1.424254190796011</speed>
  <fix>3d</fix>
</trkpt>
<trkpt lat="40.0728504" lon="-105.2309123">
  <ele>1610.16</ele>
  <time>2026-08-27T18:31:30Z</time>
  <course>96.02</course>
  <speed>1.28</speed>
  <fix>3d</fix>
</trkpt>
<trkpt lat="40.0728499" lon="-105.2309062">
  <ele>1610.38</ele>
  <time>2026-08-27T18:31:30Z</time>
  <course>52.01</course>
  <speed>1.670748335327616</speed>
  <fix>3d</fix>
</trkpt>
<trkpt lat="40.0728502" lon="-105.2309091">
  <ele>1610.15</ele>
  <time>2026-08-27T18:31:30Z</time>
  <course>93.65</course>
  <speed>1.48</speed>
  <fix>3d</fix>
</trkpt>
<trkpt lat="40.0728499" lon="-105.2309019">
  <ele>1610.39</ele>
  <time>2026-08-27T18:31:30Z</time>
  <course>63.98</course>
  <speed>1.96</speed>
  <fix>3d</fix>
</trkpt>
<trkpt lat="40.07285" lon="-105.2309053">
  <ele>1610.15</ele>
  <time>2026-08-27T18:31:30Z</time>
  <course>91.24</course>
  <speed>1.73</speed>
  <fix>3d</fix>
</trkpt>
<trkpt lat="40.0728499" lon="-105.2308968">
  <ele>1610.39</ele>
  <time>2026-08-27T18:31:30Z</time>
  <course>76.05</course>
  <speed>2.2901964981197573</speed>
  <fix>3d</fix>
</trkpt>
<trkpt lat="40.07285" lon="-105.230901">
  <ele>1610.17</ele>
  <time>2026-08-27T18:31:30Z</time>
  <course>89.49</course>
  <speed>2.01</speed>
  <fix>3d</fix>
</trkpt>
<trkpt lat="40.07285" lon="-105.230891">
  <ele>1610.4</ele>
  <time>2026-08-27T18:31:30Z</time>
  <course>88.02</course>
  <speed>2.6701685340067955</speed>
  <fix>3d</fix>
</trkpt>
<trkpt lat="40.07285" lon="-105.2308959">
  <ele>1610.18</ele>
  <time>2026-08-27T18:31:30Z</time>
  <course>88.67</course>
  <speed>2.34</speed>
  <fix>3d</fix>
</trkpt>
<trkpt lat="40.07285" lon="-105.2308842">
  <ele>1610.4</ele>
  <time>2026-08-27T18:31:30Z</time>
  <course>90.51</course>
  <speed>3.080146100430952</speed>
  <fix>3d</fix>
</trkpt>
<trkpt lat="40.0728501" lon="-105.2308899">
  <ele>1610.19</ele>
  <time>2026-08-27T18:31:30Z</time>
  <course>89.28</course>
  <speed>2.72</speed>
  <fix>3d</fix>
</trkpt>
<trkpt lat="40.0728499" lon="-105.2308766">
  <ele>1610.4</ele>
  <time>2026-08-27T18:31:30Z</time>
  <course>89.98</course>
  <speed>3.480229877464993</speed>
  <fix>3d</fix>
</trkpt>
<trkpt lat="40.0728502" lon="-105.2308831">
  <ele>1610.2</ele>
  <time>2026-08-27T18:31:30Z</time>
  <course>90.11</course>
  <speed>3.12</speed>
  <fix>3d</fix>
</trkpt>
<trkpt lat="40.07285" lon="-105.230868">
  <ele>1610.4</ele>
  <time>2026-08-27T18:31:30Z</time>
  <course>89.48</course>
  <speed>3.8701162773229436</speed>
  <fix>3d</fix>
</trkpt>
<trkpt lat="40.0728501" lon="-105.2308752">
  <ele>1610.21</ele>
  <time>2026-08-27T18:31:30Z</time>
  <course>90.22</course>
  <speed>3.53</speed>
  <fix>3d</fix>
</trkpt>
<trkpt lat="40.07285" lon="-105.2308585">
  <ele>1610.41</ele>
  <time>2026-08-27T18:31:30Z</time>
  <course>89.14</course>
  <speed>4.2200473930988025</speed>
  <fix>3d</fix>
</trkpt>
<trkpt lat="40.07285" lon="-105.2308664">
  <ele>1610.22</ele>
  <time>2026-08-27T18:31:30Z</time>
  <course>90.11</course>
  <speed>3.91</speed>
  <fix>3d</fix>
</trkpt>
<trkpt lat="40.07285" lon="-105.2308483">
  <ele>1610.41</ele>
  <time>2026-08-27T18:31:30Z</time>
  <course>89.09</course>
  <speed>4.500044444224968</speed>
  <fix>3d</fix>
</trkpt>
<trkpt lat="40.07285" lon="-105.2308568">
  <ele>1610.24</ele>
  <time>2026-08-27T18:31:30Z</time>
  <course>90.01</course>
  <speed>4.26</speed>
  <fix>3d</fix>
</trkpt>
<trkpt lat="40.07285" lon="-105.2308375">
  <ele>1610.43</ele>
  <time>2026-08-27T18:31:30Z</time>
  <course>89.25</course>
  <speed>4.720095338020197</speed>
  <fix>3d</fix>
</trkpt>
<trkpt lat="40.07285" lon="-105.2308465">
  <ele>1610.25</ele>
  <time>2026-08-27T18:31:30Z</time>
  <course>90.0</course>
  <speed>4.54</speed>
  <fix>3d</fix>
</trkpt>
<trkpt lat="40.0728499" lon="-105.2308261">
  <ele>1610.44</ele>
  <time>2026-08-27T18:31:30Z</time>
  <course>89.62</course>
  <speed>4.900163262586258</speed>
  <fix>3d</fix>
</trkpt>
<trkpt lat="40.07285" lon="-105.2308356">
  <ele>1610.27</ele>
  <time>2026-08-27T18:31:30Z</time>
  <course>90.12</course>
  <speed>4.76</speed>
  <fix>3d</fix>
</trkpt>
<trkpt lat="40.0728499" lon="-105.2308144">
  <ele>1610.46</ele>
  <time>2026-08-27T18:31:30Z</time>
  <course>90.1</course>
  <speed>5.03048705395412</speed>
  <fix>3d</fix>
</trkpt>
<trkpt lat="40.07285" lon="-105.2308242">
  <ele>1610.29</ele>
  <time>2026-08-27T18:31:30Z</time>
  <course>90.37</course>
  <speed>4.94</speed>
  <fix>3d</fix>
</trkpt>
<trkpt lat="40.0728497" lon="-105.2308025">
  <ele>1610.48</ele>
  <time>2026-08-27T18:31:30Z</time>
  <course>90.68</course>
  <speed>5.121181504301522</speed>
  <fix>3d</fix>
</trkpt>
<trkpt lat="40.07285" lon="-105.2308124">
  <ele>1610.31</ele>
  <time>2026-08-27T18:31:30Z</time>
  <course>90.74</course>
  <speed>5.07</speed>
  <fix>3d</fix>
</trkpt>
<trkpt lat="40.0728495" lon="-105.2307903">
  <ele>1610.49</ele>
  <time>2026-08-27T18:31:30Z</time>
  <course>91.27</course>
  <speed>5.192167177585868</speed>
  <fix>3d</fix>
</trkpt>
<trkpt lat="40.0728498" lon="-105.2308003">
  <ele>1610.32</ele>
  <time>2026-08-27T18:31:30Z</time>
  <course>91.17</course>
  <speed>5.16</speed>
  <fix>3d</fix>
</trkpt>
<trkpt lat="40.0728492" lon="-105.230778">
  <ele>1610.5</ele>
  <time>2026-08-27T18:31:30Z</time>
  <course>91.87</course>
  <speed>5.223456709880919</speed>
  <fix>3d</fix>
</trkpt>
<trkpt lat="40.0728497" lon="-105.2307882">
  <ele>1610.33</ele>
  <time>2026-08-27T18:31:30Z</time>
  <course>91.64</course>
  <speed>5.23</speed>
  <fix>3d</fix>
</trkpt>
<trkpt lat="40.0728489" lon="-105.2307657">
  <ele>1610.51</ele>
  <time>2026-08-27T18:31:30Z</time>
  <course>92.4</course>
  <speed>5.235054918527599</speed>
  <fix>3d</fix>
</trkpt>
<trkpt lat="40.0728493" lon="-105.2307759">
  <ele>1610.34</ele>
  <time>2026-08-27T18:31:30Z</time>
  <course>92.12</course>
  <speed>5.26</speed>
  <fix>3d</fix>
</trkpt>
<trkpt lat="40.0728485" lon="-105.2307534">
  <ele>1610.52</ele>
  <time>2026-08-27T18:31:30Z</time>
  <course>92.94</course>
  <speed>5.226471084776036</speed>
  <fix>3d</fix>
</trkpt>
<trkpt lat="40.072849" lon="-105.2307635">
  <ele>1610.35</ele>
  <time>2026-08-27T18:31:30Z</time>
  <course>92.59</course>
  <speed>5.27</speed>
  <fix>3d</fix>
</trkpt>
<trkpt lat="40.072848" lon="-105.2307411">
  <ele>1610.52</ele>
  <time>2026-08-27T18:31:30Z</time>
  <course>93.44</course>
  <speed>5.188111409752107</speed>
  <fix>3d</fix>
</trkpt>
<trkpt lat="40.0728485" lon="-105.230751">
  <ele>1610.36</ele>
  <time>2026-08-27T18:31:30Z</time>
  <course>93.01</course>
  <speed>5.25</speed>
  <fix>3d</fix>
</trkpt>
<trkpt lat="40.0728475" lon="-105.2307289">
  <ele>1610.53</ele>
  <time>2026-08-27T18:31:30Z</time>
  <course>93.9</course>
  <speed>5.129376180394649</speed>
  <fix>3d</fix>
</trkpt>
<trkpt lat="40.0728479" lon="-105.2307387">
  <ele>1610.37</ele>
  <time>2026-08-27T18:31:30Z</time>
  <course>93.39</course>
  <speed>5.21</speed>
  <fix>3d</fix>
</trkpt>
<trkpt lat="40.0728469" lon="-105.2307169">
  <ele>1610.54</ele>
  <time>2026-08-27T18:31:30Z</time>
  <course>94.21</course>
  <speed>5.080728294250736</speed>
  <fix>3d</fix>
</trkpt>
<trkpt lat="40.0728474" lon="-105.2307266">
  <ele>1610.38</ele>
  <time>2026-08-27T18:31:30Z</time>
  <course>93.72</course>
  <speed>5.15</speed>
  <fix>3d</fix>
</trkpt>
<trkpt lat="40.0728462" lon="-105.2307049">
  <ele>1610.55</ele>
  <time>2026-08-27T18:31:30Z</time>
  <course>94.38</course>
  <speed>5.042162234597376</speed>
  <fix>3d</fix>
</trkpt>
<trkpt lat="40.0728467" lon="-105.2307146">
  <ele>1610.39</ele>
  <time>2026-08-27T18:31:30Z</time>
  <course>94.01</course>
  <speed>5.1</speed>
  <fix>3d</fix>
</trkpt>
<trkpt lat="40.0728456" lon="-105.2306929">
  <ele>1610.55</ele>
  <time>2026-08-27T18:31:30Z</time>
  <course>94.51</course>
  <speed>5.002259489470734</speed>
  <fix>3d</fix>
</trkpt>
<trkpt lat="40.0728461" lon="-105.2307027">
  <ele>1610.39</ele>
  <time>2026-08-27T18:31:30Z</time>
  <course>94.22</course>
  <speed>5.06</speed>
  <fix>3d</fix>
</trkpt>
<trkpt lat="40.0728449" lon="-105.2306812">
  <ele>1610.55</ele>
  <time>2026-08-27T18:31:30Z</time>
  <course>94.56</course>
  <speed>4.941710230274535</speed>
  <fix>3d</fix>
</trkpt>
<trkpt lat="40.0728454" lon="-105.2306909">
  <ele>1610.39</ele>
  <time>2026-08-27T18:31:30Z</time>
  <course>94.32</course>
  <speed>5.01</speed>
  <fix>3d</fix>
</trkpt>
<trkpt lat="40.0728443" lon="-105.2306697">
  <ele>1610.55</ele>
  <time>2026-08-27T18:31:30Z</time>
  <course>94.52</course>
  <speed>4.840588807159724</speed>
  <fix>3d</fix>
</trkpt>
<trkpt lat="40.0728448" lon="-105.2306792">
  <ele>1610.39</ele>
  <time>2026-08-27T18:31:30Z</time>
  <course>94.28</course>
  <speed>4.94</speed>
  <fix>3d</fix>
</trkpt>
<trkpt lat="40.0728437" lon="-105.2306585">
  <ele>1610.55</ele>
  <time>2026-08-27T18:31:30Z</time>
  <course>94.44</course>
  <speed>4.688976434148501</speed>
  <fix>3d</fix>
</trkpt>
<trkpt lat="40.0728441" lon="-105.2306678">
  <ele>1610.4</ele>
  <time>2026-08-27T18:31:30Z</time>
  <course>94.13</course>
  <speed>4.83</speed>
  <fix>3d</fix>
</trkpt>
<trkpt lat="40.0728432" lon="-105.2306476">
  <ele>1610.55</ele>
  <time>2026-08-27T18:31:30Z</time>
  <course>94.32</course>
  <speed>4.5069390943299865</speed>
  <fix>3d</fix>
</trkpt>
<trkpt lat="40.0728435" lon="-105.2306567">
  <ele>1610.4</ele>
  <time>2026-08-27T18:31:30Z</time>
  <course>93.92</course>
  <speed>4.68</speed>
  <fix>3d</fix>
</trkpt>
<trkpt lat="40.0728427" lon="-105.2306374">
  <ele>1610.55</ele>
  <time>2026-08-27T18:31:30Z</time>
  <course>94.2</course>
  <speed>4.2856504757154426</speed>
  <fix>3d</fix>
</trkpt>
<trkpt lat="40.0728429" lon="-105.2306459">
  <ele>1610.41</ele>
  <time>2026-08-27T18:31:30Z</time>
  <course>93.69</course>
  <speed>4.49</speed>
  <fix>3d</fix>
</trkpt>
<trkpt lat="40.0728423" lon="-105.2306276">
  <ele>1610.55</ele>
  <time>2026-08-27T18:31:30Z</time>
  <course>94.02</course>
  <speed>4.024487545017378</speed>
  <fix>3d</fix>
</trkpt>
<trkpt lat="40.0728424" lon="-105.2306356">
  <ele>1610.41</ele>
  <time>2026-08-27T18:31:30Z</time>
  <course>93.47</course>
  <speed>4.26</speed>
  <fix>3d</fix>
</trkpt>
<trkpt lat="40.0728419" lon="-105.2306184">
  <ele>1610.55</ele>
  <time>2026-08-27T18:31:30Z</time>
  <course>93.83</course>
  <speed>3.723022965279693</speed>
  <fix>3d</fix>
</trkpt>
<trkpt lat="40.0728421" lon="-105.230626">
  <ele>1610.42</ele>
  <time>2026-08-27T18:31:30Z</time>
  <course>93.25</course>
  <speed>3.99</speed>
  <fix>3d</fix>
</trkpt>
<trkpt lat="40.0728416" lon="-105.23061">
  <ele>1610.55</ele>
  <time>2026-08-27T18:31:30Z</time>
  <course>93.6</course>
  <speed>3.372135821701137</speed>
  <fix>3d</fix>
</trkpt>
<trkpt lat="40.0728417" lon="-105.2306169">
  <ele>1610.42</ele>
  <time>2026-08-27T18:31:30Z</time>
  <course>93.02</course>
  <speed>3.68</speed>
  <fix>3d</fix>
</trkpt>
<trkpt lat="40.0728414" lon="-105.2306025">
  <ele>1610.54</ele>
  <time>2026-08-27T18:31:30Z</time>
  <course>93.28</course>
  <speed>2.9810736320996836</speed>
  <fix>3d</fix>
</trkpt>
<trkpt lat="40.0728413" lon="-105.2306087">
  <ele>1610.43</ele>
  <time>2026-08-27T18:31:30Z</time>
  <course>92.77</course>
  <speed>3.33</speed>
  <fix>3d</fix>
</trkpt>
<trkpt lat="40.0728412" lon="-105.2305959">
  <ele>1610.53</ele>
  <time>2026-08-27T18:31:30Z</time>
  <course>92.83</course>
  <speed>2.5403149411047443</speed>
  <fix>3d</fix>
</trkpt>
<trkpt lat="40.0728411" lon="-105.2306013">
  <ele>1610.43</ele>
  <time>2026-08-27T18:31:30Z</time>
  <course>92.51</course>
  <speed>2.93</speed>
  <fix>3d</fix>
</trkpt>
<trkpt lat="40.072841" lon="-105.2305905">
  <ele>1610.52</ele>
  <time>2026-08-27T18:31:30Z</time>
  <course>92.24</course>
  <speed>2.090023923308056</speed>
  <fix>3d</fix>
</trkpt>
<trkpt lat="40.0728409" lon="-105.2305949">
  <ele>1610.42</ele>
  <time>2026-08-27T18:31:30Z</time>
  <course>92.24</course>
  <speed>2.5</speed>
  <fix>3d</fix>
</trkpt>
<trkpt lat="40.0728409" lon="-105.230586">
  <ele>1610.51</ele>
  <time>2026-08-27T18:31:30Z</time>
  <course>91.51</course>
  <speed>1.65</speed>
  <fix>3d</fix>
</trkpt>
<trkpt lat="40.0728407" lon="-105.2305896">
  <ele>1610.42</ele>
  <time>2026-08-27T18:31:30Z</time>
  <course>91.97</course>
  <speed>2.05</speed>
  <fix>3d</fix>
</trkpt>
<trkpt lat="40.0728409" lon="-105.2305826">
  <ele>1610.51</ele>
  <time>2026-08-27T18:31:30Z</time>
  <course>90.66</course>
  <speed>1.2400403219250575</speed>
  <fix>3d</fix>
</trkpt>
<trkpt lat="40.0728406" lon="-105.2305853">
  <ele>1610.41</ele>
  <time>2026-08-27T18:31:30Z</time>
  <course>91.77</course>
  <speed>1.61</speed>
  <fix>3d</fix>
</trkpt>
<trkpt lat="40.0728408" lon="-105.23058">
  <ele>1610.51</ele>
  <time>2026-08-27T18:31:30Z</time>
  <course>89.78</course>
  <speed>0.8902246907382428</speed>
  <fix>3d</fix>
</trkpt>
<trkpt lat="40.0728405" lon="-105.230582">
  <ele>1610.41</ele>
  <time>2026-08-27T18:31:30Z</time>
  <course>91.7</course>
  <speed>1.2</speed>
  <fix>3d</fix>
</trkpt>
<trkpt lat="40.0728408" lon="-105.2305783">
  <ele>1610.5</ele>
  <time>2026-08-27T18:31:30Z</time>
  <course>89.45</course>
  <speed>0.6007495318350236</speed>
  <fix>3d</fix>
</trkpt>
<trkpt lat="40.0728405" lon="-105.2305796">
  <ele>1610.4</ele>
  <time>2026-08-27T18:31:30Z</time>
  <course>91.68</course>
  <speed>0.85</speed>
  <fix>3d</fix>
</trkpt>
<trkpt lat="40.0728408" lon="-105.2305771">
  <ele>1610.5</ele>
  <time>2026-08-27T18:31:30Z</time>
  <course>89.41</course>
  <speed>0.3712142238654117</speed>
  <fix>3d</fix>
</trkpt>
<trkpt lat="40.0728405" lon="-105.230578">
  <ele>1610.39</ele>
  <time>2026-08-27T18:31:30Z</time>
  <course>91.53</course>
  <speed>0.56</speed>
  <fix>3d</fix>
</trkpt>
<trkpt lat="40.0728408" lon="-105.2305765">
  <ele>1610.49</ele>
  <time>2026-08-27T18:31:30Z</time>
  <course>89.33</course>
  <speed>0.194164878389476</speed>
  <fix>3d</fix>
</trkpt>
<trkpt lat="40.0728405" lon="-105.230577">
  <ele>1610.39</ele>
  <time>2026-08-27T18:31:30Z</time>
  <course>90.71</course>
  <speed>0.32</speed>
  <fix>3d</fix>
</trkpt>
<trkpt lat="40.0728408" lon="-105.2305762">
  <ele>1610.49</ele>
  <time>2026-08-27T18:31:30Z</time>
  <course>89.24</course>
  <speed>0.07810249675906654</speed>
  <fix>3d</fix>
</trkpt>
<trkpt lat="40.0728405" lon="-105.2305763">
  <ele>1610.39</ele>
  <time>2026-08-27T18:31:30Z</time>
  <course>86.09</course>
  <speed>0.14</speed>
  <fix>3d</fix>
</trkpt>
<trkpt lat="40.0728408" lon="-105.2305762">
  <ele>1610.49</ele>
  <time>2026-08-27T18:31:30Z</time>
  <course>89.18</course>
  <speed>0.06082762530298219</speed>
  <fix>3d</fix>
</trkpt>
<trkpt lat="40.0728405" lon="-105.2305762">
  <ele>1610.39</ele>
  <time>2026-08-27T18:31:30Z</time>
  <course>36.57</course>
  <speed>0.03</speed>
  <fix>3d</fix>
</trkpt>
<trkpt lat="40.0728408" lon="-105.2305763">
  <ele>1610.5</ele>
  <time>2026-08-27T18:31:30Z</time>
  <course>89.15</course>
  <speed>0.08602325267042626</speed>
  <fix>3d</fix>
</trkpt>
<trkpt lat="40.0728405" lon="-105.2305763">
  <ele>1610.39</ele>
  <time>2026-08-27T18:31:30Z</time>
  <course>306.92</course>
  <speed>0.07</speed>
  <fix>3d</fix>
</trkpt>
<trkpt lat="40.0728409" lon="-105.2305764">
  <ele>1610.51</ele>
  <time>2026-08-27T18:31:30Z</time>
  <course>89.12</course>
  <speed>0.09433981132056603</speed>
  <fix>3d</fix>
</trkpt>
<trkpt lat="40.0728405" lon="-105.2305764">
  <ele>1610.39</ele>
  <time>2026-08-27T18:31:30Z</time>
  <course>302.9</course>
  <speed>0.11</speed>
  <fix>3d</fix>
</trkpt>
<trkpt lat="40.072841" lon="-105.2305766">
  <ele>1610.52</ele>
  <time>2026-08-27T18:31:30Z</time>
  <course>89.12</course>
  <speed>0.0824621125123532</speed>
  <fix>3d</fix>
</trkpt>
<trkpt lat="40.0728407" lon="-105.2305766">
  <ele>1610.4</ele>
  <time>2026-08-27T18:31:30Z</time>
  <course>310.03</course>
  <speed>0.12</speed>
  <fix>3d</fix>
</trkpt>
<trkpt lat="40.0728411" lon="-105.2305766">
  <ele>1610.53</ele>
  <time>2026-08-27T18:31:30Z</time>
  <course>89.11</course>
  <speed>0.09486832980505139</speed>
  <fix>3d</fix>
</trkpt>
<trkpt lat="40.0728408" lon="-105.2305768">
  <ele>1610.41</ele>
  <time>2026-08-27T18:31:30Z</time>
  <course>328.3</course>
  <speed>0.11</speed>
  <fix>3d</fix>
</trkpt>
<trkpt lat="40.0728413" lon="-105.2305765">
  <ele>1610.54</ele>
  <time>2026-08-27T18:31:30Z</time>
  <course>89.08</course>
  <speed>0.1345362404707371</speed>
  <fix>3d</fix>
</trkpt>
<trkpt lat="40.0728409" lon="-105.2305768">
  <ele>1610.41</ele>
  <time>2026-08-27T18:31:30Z</time>
  <course>0.94</course>
  <speed>0.11</speed>
  <fix>3d</fix>
</trkpt>
<trkpt lat="40.0728414" lon="-105.2305764">
  <ele>1610.54</ele>
  <time>2026-08-27T18:31:30Z</time>
  <course>81.78</course>
  <speed>0.17262676501632068</speed>
  <fix>3d</fix>
</trkpt>
<trkpt lat="40.0728412" lon="-105.2305768">
  <ele>1610.42</ele>
  <time>2026-08-27T18:31:30Z</time>
  <course>35.61</course>
  <speed>0.13</speed>
  <fix>3d</fix>
</trkpt>
<trkpt lat="40.0728415" lon="-105.230576">
  <ele>1610.54</ele>
  <time>2026-08-27T18:31:30Z</time>
  <course>68.4</course>
  <speed>0.208806130178211</speed>
  <fix>3d</fix>
</trkpt>
<trkpt lat="40.0728414" lon="-105.2305765">
  <ele>1610.42</ele>
  <time>2026-08-27T18:31:30Z</time>
  <course>56.59</course>
  <speed>0.17</speed>
  <fix>3d</fix>
</trkpt>
<trkpt lat="40.0728416" lon="-105.2305756">
  <ele>1610.54</ele>
  <time>2026-08-27T18:31:30Z</time>
  <course>56.15</course>
  <speed>0.20615528128088303</speed>
  <fix>3d</fix>
</trkpt>
<trkpt lat="40.0728415" lon="-105.2305762">
  <ele>1610.42</ele>
  <time>2026-08-27T18:31:30Z</time>
  <course>58.92</course>
  <speed>0.2</speed>
  <fix>3d</fix>
</trkpt>
<trkpt lat="40.0728418" lon="-105.2305752">
  <ele>1610.53</ele>
  <time>2026-08-27T18:31:30Z</time>
  <course>44.11</course>
  <speed>0.16552945357246848</speed>
  <fix>3d</fix>
</trkpt>
<trkpt lat="40.0728418" lon="-105.2305758">
  <ele>1610.42</ele>
  <time>2026-08-27T18:31:30Z</time>
  <course>54.16</course>
  <speed>0.21</speed>
  <fix>3d</fix>
</trkpt>
<trkpt lat="40.072842" lon="-105.230575">
  <ele>1610.53</ele>
  <time>2026-08-27T18:31:30Z</time>
  <course>32.06</course>
  <speed>0.10770329614269007</speed>
  <fix>3d</fix>
</trkpt>
<trkpt lat="40.072842" lon="-105.2305754">
  <ele>1610.42</ele>
  <time>2026-08-27T18:31:30Z</time>
  <course>49.88</course>
  <speed>0.18</speed>
  <fix>3d</fix>
</trkpt>
<trkpt lat="40.0728421" lon="-105.2305749">
  <ele>1610.53</ele>
  <time>2026-08-27T18:31:30Z</time>
  <course>19.99</course>
  <speed>0.04</speed>
  <fix>3d</fix>
</trkpt>
<trkpt lat="40.0728422" lon="-105.2305751">
  <ele>1610.42</ele>
  <time>2026-08-27T18:31:30Z</time>
  <course>47.8</course>
  <speed>0.13</speed>
  <fix>3d</fix>
</trkpt>
<trkpt lat="40.0728421" lon="-105.2305748">
  <ele>1610.54</ele>
  <time>2026-08-27T18:31:30Z</time>
  <course>9.51</course>
  <speed>0.0670820393249937</speed>
  <fix>3d</fix>
</trkpt>
<trkpt lat="40.0728423" lon="-105.2305749">
  <ele>1610.42</ele>
  <time>2026-08-27T18:31:30Z</time>
  <course>53.56</course>
  <speed>0.06</speed>
  <fix>3d</fix>
</trkpt>
<trkpt lat="40.0728421" lon="-105.230575">
  <ele>1610.54</ele>
  <time>2026-08-27T18:31:30Z</time>
  <course>11.22</course>
  <speed>0.130384048104053</speed>
  <fix>3d</fix>
</trkpt>
<trkpt lat="40.0728424" lon="-105.2305748">
  <ele>1610.42</ele>
  <time>2026-08-27T18:31:30Z</time>
  <course>228.15</course>
  <speed>0.02</speed>
  <fix>3d</fix>
</trkpt>
<trkpt lat="40.072842" lon="-105.230575">
  <ele>1610.55</ele>
  <time>2026-08-27T18:31:30Z</time>
  <course>11.44</course>
  <speed>0.16552945357246848</speed>
  <fix>3d</fix>
</trkpt>
<trkpt lat="40.0728423" lon="-105.2305749">
  <ele>1610.42</ele>
  <time>2026-08-27T18:31:30Z</time>
  <course>223.31</course>
  <speed>0.09</speed>
  <fix>3d</fix>
</trkpt>
<trkpt lat="40.0728417" lon="-105.2305752">
  <ele>1610.55</ele>
  <time>2026-08-27T18:31:31Z</time>
  <course>11.53</course>
  <speed>0.18027756377319945</speed>
  <fix>3d</fix>
</trkpt>
<trkpt lat="40.0728422" lon="-105.230575">
  <ele>1610.42</ele>
  <time>2026-08-27T18:31:31Z</time>
  <course>207.59</course>
  <speed>0.11</speed>
  <fix>3d</fix>
</trkpt>
<trkpt lat="40.0728415" lon="-105.2305753">
  <ele>1610.54</ele>
  <time>2026-08-27T18:31:31Z</time>
  <course>11.52</course>
  <speed>0.18027756377319945</speed>
  <fix>3d</fix>
</trkpt>
<trkpt lat="40.072842" lon="-105.2305751">
  <ele>1610.41</ele>
  <time>2026-08-27T18:31:31Z</time>
  <course>200.83</course>
  <speed>0.13</speed>
  <fix>3d</fix>
</trkpt>
<trkpt lat="40.0728413" lon="-105.2305754">
  <ele>1610.54</ele>
  <time>2026-08-27T18:31:31Z</time>
  <course>11.51</course>
  <speed>0.1708800749063506</speed>
  <fix>3d</fix>
</trkpt>
<trkpt lat="40.0728418" lon="-105.2305752">
  <ele>1610.41</ele>
  <time>2026-08-27T18:31:31Z</time>
  <course>197.92</course>
  <speed>0.13</speed>
  <fix>3d</fix>
</trkpt>
<trkpt lat="40.0728411" lon="-105.2305755">
  <ele>1610.53</ele>
  <time>2026-08-27T18:31:31Z</time>
  <course>11.49</course>
  <speed>0.1615549442140351</speed>
  <fix>3d</fix>
</trkpt>
<trkpt lat="40.0728415" lon="-105.2305753">
  <ele>1610.41</ele>
  <time>2026-08-27T18:31:31Z</time>
  <course>197.49</course>
  <speed>0.13</speed>
  <fix>3d</fix>
</trkpt>
<trkpt lat="40.0728409" lon="-105.2305756">
  <ele>1610.53</ele>
  <time>2026-08-27T18:31:31Z</time>
  <course>11.49</course>
  <speed>0.15231546211727817</speed>
  <fix>3d</fix>
</trkpt>
<trkpt lat="40.0728414" lon="-105.2305754">
  <ele>1610.4</ele>
  <time>2026-08-27T18:31:31Z</time>
  <course>198.16</course>
  <speed>0.12</speed>
  <fix>3d</fix>
</trkpt>
<trkpt lat="40.0728408" lon="-105.2305757">
  <ele>1610.53</ele>
  <time>2026-08-27T18:31:31Z</time>
  <course>11.49</course>
  <speed>0.13</speed>
  <fix>3d</fix>
</trkpt>
<trkpt lat="40.0728412" lon="-105.2305755">
  <ele>1610.4</ele>
  <time>2026-08-27T18:31:31Z</time>
  <course>199.06</course>
  <speed>0.1</speed>
  <fix>3d</fix>
</trkpt>
<trkpt lat="40.0728406" lon="-105.2305757">
  <ele>1610.53</ele>
  <time>2026-08-27T18:31:31Z</time>
  <course>11.46</course>
  <speed>0.1118033988749895</speed>
  <fix>3d</fix>
</trkpt>
<trkpt lat="40.0728409" lon="-105.2305756">
  <ele>1610.4</ele>
  <time>2026-08-27T18:31:31Z</time>
  <course>199.6</course>
  <speed>0.09</speed>
  <fix>3d</fix>
</trkpt>
<trkpt lat="40.0728405" lon="-105.2305758">
  <ele>1610.53</ele>
  <time>2026-08-27T18:31:31Z</time>
  <course>11.46</course>
  <speed>0.08944271909999159</speed>
  <fix>3d</fix>
</trkpt>
<trkpt lat="40.0728408" lon="-105.2305756">
  <ele>1610.4</ele>
  <time>2026-08-27T18:31:31Z</time>
  <course>200.16</course>
  <speed>0.07</speed>
  <fix>3d</fix>
</trkpt>
<trkpt lat="40.0728405" lon="-105.2305758">
  <ele>1610.53</ele>
  <time>2026-08-27T18:31:31Z</time>
  <course>11.46</course>
  <speed>0.05830951894845301</speed>
  <fix>3d</fix>
</trkpt>
<trkpt lat="40.0728407" lon="-105.2305757">
  <ele>1610.4</ele>
  <time>2026-08-27T18:31:31Z</time>
  <course>201.37</course>
  <speed>0.04</speed>
  <fix>3d</fix>
</trkpt>
<trkpt lat="40.0728405" lon="-105.2305758">
  <ele>1610.53</ele>
  <time>2026-08-27T18:31:31Z</time>
  <course>11.47</course>
  <speed>0.03605551275463989</speed>
  <fix>3d</fix>
</trkpt>
<trkpt lat="40.0728407" lon="-105.2305758">
  <ele>1610.4</ele>
  <time>2026-08-27T18:31:31Z</time>
  <course>205.35</course>
  <speed>0.02</speed>
  <fix>3d</fix>
</trkpt>
<trkpt lat="40.0728405" lon="-105.2305758">
  <ele>1610.52</ele>
  <time>2026-08-27T18:31:31Z</time>
  <course>11.47</course>
  <speed>0.01</speed>
  <fix>3d</fix>
</trkpt>
<trkpt lat="40.0728407" lon="-105.2305758">
  <ele>1610.4</ele>
  <time>2026-08-27T18:31:31Z</time>
  <course>288.39</course>
  <speed>0.0</speed>
  <fix>3d</fix>
</trkpt>
<trkpt lat="40.0728405" lon="-105.2305758">
  <ele>1610.52</ele>
  <time>2026-08-27T18:31:31Z</time>
  <course>11.44</course>
  <speed>0.01</speed>
  <fix>3d</fix>
</trkpt>
<trkpt lat="40.0728407" lon="-105.2305758">
  <ele>1610.4</ele>
  <time>2026-08-27T18:31:31Z</time>
  <course>9.89</course>
  <speed>0.02</speed>
  <fix>3d</fix>
</trkpt>
<trkpt lat="40.0728406" lon="-105.2305758">
  <ele>1610.52</ele>
  <time>2026-08-27T18:31:31Z</time>
  <course>11.44</course>
  <speed>0.03</speed>
  <fix>3d</fix>
</trkpt>
<trkpt lat="40.0728407" lon="-105.2305758">
  <ele>1610.4</ele>
  <time>2026-08-27T18:31:31Z</time>
  <course>13.65</course>
  <speed>0.04</speed>
  <fix>3d</fix>
</trkpt>
<trkpt lat="40.0728407" lon="-105.2305758">
  <ele>1610.52</ele>
  <time>2026-08-27T18:31:31Z</time>
  <course>11.44</course>
  <speed>0.04</speed>
  <fix>3d</fix>
</trkpt>
<trkpt lat="40.0728408" lon="-105.2305758">
  <ele>1610.4</ele>
  <time>2026-08-27T18:31:31Z</time>
  <course>15.1</course>
  <speed>0.06</speed>
  <fix>3d</fix>
</trkpt>
<trkpt lat="40.0728408" lon="-105.2305758">
  <ele>1610.52</ele>
  <time>2026-08-27T18:31:31Z</time>
  <course>11.45</course>
  <speed>0.05099019513592785</speed>
  <fix>3d</fix>
</trkpt>
<trkpt lat="40.0728409" lon="-105.2305758">
  <ele>1610.4</ele>
  <time>2026-08-27T18:31:31Z</time>
  <course>16.22</course>
  <speed>0.07</speed>
  <fix>3d</fix>
</trkpt>
<trkpt lat="40.072841" lon="-105.2305758">
  <ele>1610.52</ele>
  <time>2026-08-27T18:31:31Z</time>
  <course>11.44</course>
  <speed>0.06082762530298219</speed>
  <fix>3d</fix>
</trkpt>
<trkpt lat="40.072841" lon="-105.2305757">
  <ele>1610.4</ele>
  <time>2026-08-27T18:31:31Z</time>
  <course>17.16</course>
  <speed>0.08</speed>
  <fix>3d</fix>
</trkpt>
<trkpt lat="40.0728411" lon="-105.2305757">
  <ele>1610.52</ele>
  <time>2026-08-27T18:31:31Z</time>
  <course>11.58</course>
  <speed>0.06082762530298219</speed>
  <fix>3d</fix>
</trkpt>
<trkpt lat="40.0728412" lon="-105.2305756">
  <ele>1610.4</ele>
  <time>2026-08-27T18:31:31Z</time>
  <course>17.91</course>
  <speed>0.09</speed>
  <fix>3d</fix>
</trkpt>
<trkpt lat="40.0728413" lon="-105.2305756">
  <ele>1610.49</ele>
  <time>2026-08-27T18:31:31Z</time>
  <course>12.12</course>
  <speed>0.07071067811865475</speed>
  <fix>3d</fix>
</trkpt>
<trkpt lat="40.0728413" lon="-105.2305756">
  <ele>1610.39</ele>
  <time>2026-08-27T18:31:31Z</time>
  <course>17.37</course>
  <speed>0.09</speed>
  <fix>3d</fix>
</trkpt>
<trkpt lat="40.0728415" lon="-105.2305755">
  <ele>1610.42</ele>
  <time>2026-08-27T18:31:31Z</time>
  <course>12.44</course>
  <speed>0.07280109889280519</speed>
  <fix>3d</fix>
</trkpt>
<trkpt lat="40.0728414" lon="-105.2305755">
  <ele>1610.36</ele>
  <time>2026-08-27T18:31:31Z</time>
  <course>17.53</course>
  <speed>0.1</speed>
  <fix>3d</fix>
</trkpt>
<trkpt lat="40.0728416" lon="-105.2305755">
  <ele>1610.3</ele>
  <time>2026-08-27T18:31:31Z</time>
  <course>12.73</course>
  <speed>0.0632455532033676</speed>
  <fix>3d</fix>
</trkpt>
<trkpt lat="40.0728417" lon="-105.2305754">
  <ele>1610.29</ele>
  <time>2026-08-27T18:31:31Z</time>
  <course>19.67</course>
  <speed>0.1</speed>
  <fix>3d</fix>
</trkpt>
<trkpt lat="40.0728418" lon="-105.2305754">
  <ele>1610.14</ele>
  <time>2026-08-27T18:31:31Z</time>
  <course>12.98</course>
  <speed>0.0670820393249937</speed>
  <fix>3d</fix>
</trkpt>
<trkpt lat="40.0728418" lon="-105.2305753">
  <ele>1610.16</ele>
  <time>2026-08-27T18:31:31Z</time>
  <course>22.62</course>
  <speed>0.09</speed>
  <fix>3d</fix>
</trkpt>
<trkpt lat="40.0728419" lon="-105.2305753">
  <ele>1609.94</ele>
  <time>2026-08-27T18:31:31Z</time>
  <course>13.21</course>
  <speed>0.06403124237432849</speed>
  <fix>3d</fix>
</trkpt>
<trkpt lat="40.0728419" lon="-105.2305752">
  <ele>1610.0</ele>
  <time>2026-08-27T18:31:31Z</time>
  <course>26.55</course>
  <speed>0.09</speed>
  <fix>3d</fix>
</trkpt>
<trkpt lat="40.0728421" lon="-105.2305751">
  <ele>1609.69</ele>
  <time>2026-08-27T18:31:31Z</time>
  <course>13.4</course>
  <speed>0.0565685424949238</speed>
  <fix>3d</fix>
</trkpt>
<trkpt lat="40.0728421" lon="-105.2305751">
  <ele>1609.8</ele>
  <time>2026-08-27T18:31:31Z</time>
  <course>31.25</course>
  <speed>0.09</speed>
  <fix>3d</fix>
</trkpt>
<trkpt lat="40.0728422" lon="-105.230575">
  <ele>1609.41</ele>
  <time>2026-08-27T18:31:31Z</time>
  <course>13.5</course>
  <speed>0.05830951894845301</speed>
  <fix>3d</fix>
</trkpt>
<trkpt lat="40.0728423" lon="-105.230575">
  <ele>1609.55</ele>
  <time>2026-08-27T18:31:31Z</time>
  <course>36.85</course>
  <speed>0.08</speed>
  <fix>3d</fix>
</trkpt>
<trkpt lat="40.0728423" lon="-105.2305749">
  <ele>1609.1</ele>
  <time>2026-08-27T18:31:31Z</time>
  <course>13.39</course>
  <speed>0.053851648071345036</speed>
  <fix>3d</fix>
</trkpt>
<trkpt lat="40.0728424" lon="-105.2305749">
  <ele>1609.27</ele>
  <time>2026-08-27T18:31:31Z</time>
  <course>44.27</course>
  <speed>0.07</speed>
  <fix>3d</fix>
</trkpt>
<trkpt lat="40.0728423" lon="-105.2305747">
  <ele>1608.78</ele>
  <time>2026-08-27T18:31:31Z</time>
  <course>13.27</course>
  <speed>0.05099019513592785</speed>
  <fix>3d</fix>
</trkpt>
<trkpt lat="40.0728425" lon="-105.2305748">
  <ele>1608.96</ele>
  <time>2026-08-27T18:31:31Z</time>
  <course>53.14</course>
  <speed>0.07</speed>
  <fix>3d</fix>
</trkpt>
<trkpt lat="40.0728424" lon="-105.2305746">
  <ele>1608.45</ele>
  <time>2026-08-27T18:31:31Z</time>
  <course>13.18</course>
  <speed>0.05</speed>
  <fix>3d</fix>
</trkpt>
<trkpt lat="40.0728425" lon="-105.2305747">
  <ele>1608.64</ele>
  <time>2026-08-27T18:31:31Z</time>
  <course>62.47</course>
  <speed>0.06</speed>
  <fix>3d</fix>
</trkpt>
<trkpt lat="40.0728424" lon="-105.2305745">
  <ele>1608.12</ele>
  <time>2026-08-27T18:31:31Z</time>
  <course>13.08</course>
  <speed>0.0412310562561766</speed>
  <fix>3d</fix>
</trkpt>
<trkpt lat="40.0728426" lon="-105.2305745">
  <ele>1608.33</ele>
  <time>2026-08-27T18:31:31Z</time>
  <course>72.95</course>
  <speed>0.05</speed>
  <fix>3d</fix>
</trkpt>
<trkpt lat="40.0728424" lon="-105.2305744">
  <ele>1607.8</ele>
  <time>2026-08-27T18:31:31Z</time>
  <course>12.98</course>
  <speed>0.044721359549995794</speed>
  <fix>3d</fix>
</trkpt>
<trkpt lat="40.0728426" lon="-105.2305744">
  <ele>1608.02</ele>
  <time>2026-08-27T18:31:31Z</time>
  <course>85.87</course>
  <speed>0.04</speed>
  <fix>3d</fix>
</trkpt>
<trkpt lat="40.0728424" lon="-105.2305743">
  <ele>1607.5</ele>
  <time>2026-08-27T18:31:31Z</time>
  <course>12.94</course>
  <speed>0.04242640687119285</speed>
  <fix>3d</fix>
</trkpt>
<trkpt lat="40.0728426" lon="-105.2305743">
  <ele>1607.71</ele>
  <time>2026-08-27T18:31:31Z</time>
  <course>102.48</course>
  <speed>0.03</speed>
  <fix>3d</fix>
</trkpt>
<trkpt lat="40.0728424" lon="-105.2305742">
  <ele>1607.2</ele>
  <time>2026-08-27T18:31:31Z</time>
  <course>12.88</course>
  <speed>0.044721359549995794</speed>
  <fix>3d</fix>
</trkpt>
<trkpt lat="40.0728426" lon="-105.2305742">
  <ele>1607.41</ele>
  <time>2026-08-27T18:31:31Z</time>
  <course>123.76</course>
  <speed>0.03</speed>
  <fix>3d</fix>
</trkpt>
<trkpt lat="40.0728424" lon="-105.2305742">
  <ele>1606.91</ele>
  <time>2026-08-27T18:31:31Z</time>
  <course>12.88</course>
  <speed>0.0412310562561766</speed>
  <fix>3d</fix>
</trkpt>
<trkpt lat="40.0728426" lon="-105.2305741">
  <ele>1607.12</ele>
  <time>2026-08-27T18:31:31Z</time>
  <course>148.64</course>
  <speed>0.03</speed>
  <fix>3d</fix>
</trkpt>
<trkpt lat="40.0728424" lon="-105.2305741">
  <ele>1606.61</ele>
  <time>2026-08-27T18:31:31Z</time>
  <course>12.89</course>
  <speed>0.05</speed>
  <fix>3d</fix>
</trkpt>
<trkpt lat="40.0728426" lon="-105.2305741">
  <ele>1606.82</ele>
  <time>2026-08-27T18:31:31Z</time>
  <course>171.75</course>
  <speed>0.03</speed>
  <fix>3d</fix>
</trkpt>
<trkpt lat="40.0728423" lon="-105.2305741">
  <ele>1606.31</ele>
  <time>2026-08-27T18:31:31Z</time>
  <course>12.83</course>
  <speed>0.05</speed>
  <fix>3d</fix>
</trkpt>
<trkpt lat="40.0728425" lon="-105.2305741">
  <ele>1606.53</ele>
  <time>2026-08-27T18:31:31Z</time>
  <course>188.77</course>
  <speed>0.03</speed>
  <fix>3d</fix>
</trkpt>
<trkpt lat="40.0728422" lon="-105.2305742">
  <ele>1606.01</ele>
  <time>2026-08-27T18:31:31Z</time>
  <course>12.81</course>
  <speed>0.05</speed>
  <fix>3d</fix>
</trkpt>
<trkpt lat="40.0728424" lon="-105.2305741">
  <ele>1606.23</ele>
  <time>2026-08-27T18:31:31Z</time>
  <course>201.57</course>
  <speed>0.04</speed>
  <fix>3d</fix>
</trkpt>
<trkpt lat="40.0728422" lon="-105.2305742">
  <ele>1605.71</ele>
  <time>2026-08-27T18:31:31Z</time>
  <course>12.79</course>
  <speed>0.05099019513592785</speed>
  <fix>3d</fix>
</trkpt>
<trkpt lat="40.0728424" lon="-105.2305741">
  <ele>1605.94</ele>
  <time>2026-08-27T18:31:31Z</time>
  <course>212.12</course>
  <speed>0.04</speed>
  <fix>3d</fix>
</trkpt>
<trkpt lat="40.0728421" lon="-105.2305742">
  <ele>1605.41</ele>
  <time>2026-08-27T18:31:31Z</time>
  <course>12.74</course>
  <speed>0.053851648071345036</speed>
  <fix>3d</fix>
</trkpt>
<trkpt lat="40.0728423" lon="-105.2305742">
  <ele>1605.64</ele>
  <time>2026-08-27T18:31:31Z</time>
  <course>220.33</course>
  <speed>0.05</speed>
  <fix>3d</fix>
</trkpt>
<trkpt lat="40.0728421" lon="-105.2305743">
  <ele>1605.11</ele>
  <time>2026-08-27T18:31:31Z</time>
  <course>12.73</course>
  <speed>0.044721359549995794</speed>
  <fix>3d</fix>
</trkpt>
<trkpt lat="40.0728422" lon="-105.2305743">
  <ele>1605.35</ele>
  <time>2026-08-27T18:31:31Z</time>
  <course>227.01</course>
  <speed>0.05</speed>
  <fix>3d</fix>
</trkpt>
<trkpt lat="40.072842" lon="-105.2305744">
  <ele>1604.82</ele>
  <time>2026-08-27T18:31:31Z</time>
  <course>12.7</course>
  <speed>0.05</speed>
  <fix>3d</fix>
</trkpt>
<trkpt lat="40.0728421" lon="-105.2305744">
  <ele>1605.06</ele>
  <time>2026-08-27T18:31:31Z</time>
  <course>232.96</course>
  <speed>0.06</speed>
  <fix>3d</fix>
</trkpt>
<trkpt lat="40.072842" lon="-105.2305745">
  <ele>1604.52</ele>
  <time>2026-08-27T18:31:31Z</time>
  <course>12.69</course>
  <speed>0.05</speed>
  <fix>3d</fix>
</trkpt>
<trkpt lat="40.072842" lon="-105.2305745">
  <ele>1604.76</ele>
  <time>2026-08-27T18:31:31Z</time>
  <course>238.47</course>
  <speed>0.06</speed>
  <fix>3d</fix>
</trkpt>
<trkpt lat="40.0728419" lon="-105.2305746">
  <ele>1604.22</ele>
  <time>2026-08-27T18:31:31Z</time>
  <course>12.65</course>
  <speed>0.04242640687119285</speed>
  <fix>3d</fix>
</trkpt>
<trkpt lat="40.072842" lon="-105.2305746">
  <ele>1604.47</ele>
  <time>2026-08-27T18:31:31Z</time>
  <course>243.44</course>
  <speed>0.06</speed>
  <fix>3d</fix>
</trkpt>
<trkpt lat="40.0728419" lon="-105.2305747">
  <ele>1603.92</ele>
  <time>2026-08-27T18:31:31Z</time>
  <course>12.64</course>
  <speed>0.04242640687119285</speed>
  <fix>3d</fix>
</trkpt>
<trkpt lat="40.072842" lon="-105.2305748">
  <ele>1604.17</ele>
  <time>2026-08-27T18:31:31Z</time>
  <course>248.32</course>
  <speed>0.06</speed>
  <fix>3d</fix>
</trkpt>
<trkpt lat="40.0728419" lon="-105.2305748">
  <ele>1603.63</ele>
  <time>2026-08-27T18:31:31Z</time>
  <course>12.62</course>
  <speed>0.0282842712474619</speed>
  <fix>3d</fix>
</trkpt>
<trkpt lat="40.072842" lon="-105.2305749">
  <ele>1603.88</ele>
  <time>2026-08-27T18:31:31Z</time>
  <course>253.7</course>
  <speed>0.05</speed>
  <fix>3d</fix>
</trkpt>
<trkpt lat="40.0728418" lon="-105.2305749">
  <ele>1603.33</ele>
  <time>2026-08-27T18:31:31Z</time>
  <course>12.59</course>
  <speed>0.022360679774997897</speed>
  <fix>3d</fix>
</trkpt>
<trkpt lat="40.0728419" lon="-105.230575">
  <ele>1603.58</ele>
  <time>2026-08-27T18:31:31Z</time>
  <course>259.44</course>
  <speed>0.05</speed>
  <fix>3d</fix>
</trkpt>
<trkpt lat="40.0728419" lon="-105.230575">
  <ele>1603.03</ele>
  <time>2026-08-27T18:31:31Z</time>
  <course>12.57</course>
  <speed>0.022360679774997897</speed>
  <fix>3d</fix>
</trkpt>
<trkpt lat="40.0728419" lon="-105.2305752">
  <ele>1603.28</ele>
  <time>2026-08-27T18:31:31Z</time>
  <course>265.83</course>
  <speed>0.05</speed>
  <fix>3d</fix>
</trkpt>
<trkpt lat="40.0728419" lon="-105.2305751">
  <ele>1602.73</ele>
  <time>2026-08-27T18:31:31Z</time>
  <course>12.56</course>
  <speed>0.01</speed>
  <fix>3d</fix>
</trkpt>
<trkpt lat="40.0728419" lon="-105.2305753">
  <ele>1602.98</ele>
  <time>2026-08-27T18:31:31Z</time>
  <course>273.07</course>
  <speed>0.04</speed>
  <fix>3d</fix>
</trkpt>
<trkpt lat="40.0728419" lon="-105.2305752">
  <ele>1602.43</ele>
  <time>2026-08-27T18:31:31Z</time>
  <course>12.53</course>
  <speed>0.01</speed>
  <fix>3d</fix>
</trkpt>
<trkpt lat="40.0728419" lon="-105.2305754">
  <ele>1602.68</ele>
  <time>2026-08-27T18:31:31Z</time>
  <course>280.65</course>
  <speed>0.04</speed>
  <fix>3d</fix>
</trkpt>
<trkpt lat="40.0728419" lon="-105.2305753">
  <ele>1602.13</ele>
  <time>2026-08-27T18:31:31Z</time>
  <course>12.51</course>
  <speed>0.0</speed>
  <fix>3d</fix>
</trkpt>
<trkpt lat="40.072842" lon="-105.2305755">
  <ele>1602.39</ele>
  <time>2026-08-27T18:31:31Z</time>
  <course>288.23</course>
  <speed>0.04</speed>
  <fix>3d</fix>
</trkpt>
<trkpt lat="40.0728419" lon="-105.2305754">
  <ele>1601.83</ele>
  <time>2026-08-27T18:31:31Z</time>
  <course>12.47</course>
  <speed>0.0</speed>
  <fix>3d</fix>
</trkpt>
<trkpt lat="40.072842" lon="-105.2305756">
  <ele>1602.09</ele>
  <time>2026-08-27T18:31:31Z</time>
  <course>296.06</course>
  <speed>0.03</speed>
  <fix>3d</fix>
</trkpt>
<trkpt lat="40.0728419" lon="-105.2305754">
  <ele>1601.52</ele>
  <time>2026-08-27T18:31:31Z</time>
  <course>12.45</course>
  <speed>0.0</speed>
  <fix>3d</fix>
</trkpt>
<trkpt lat="40.072842" lon="-105.2305756">
  <ele>1601.79</ele>
  <time>2026-08-27T18:31:31Z</time>
  <course>304.43</course>
  <speed>0.03</speed>
  <fix>3d</fix>
</trkpt>
<trkpt lat="40.0728419" lon="-105.2305755">
  <ele>1601.22</ele>
  <time>2026-08-27T18:31:31Z</time>
  <course>12.44</course>
  <speed>0.01</speed>
  <fix>3d</fix>
</trkpt>
<trkpt lat="40.072842" lon="-105.2305757">
  <ele>1601.49</ele>
  <time>2026-08-27T18:31:31Z</time>
  <course>312.98</course>
  <speed>0.03</speed>
  <fix>3d</fix>
</trkpt>
<trkpt lat="40.072842" lon="-105.2305756">
  <ele>1600.92</ele>
  <time>2026-08-27T18:31:31Z</time>
  <course>12.41</course>
  <speed>0.01</speed>
  <fix>3d</fix>
</trkpt>
<trkpt lat="40.072842" lon="-105.2305758">
  <ele>1601.19</ele>
  <time>2026-08-27T18:31:31Z</time>
  <course>321.69</course>
  <speed>0.03</speed>
  <fix>3d</fix>
</trkpt>
<trkpt lat="40.072842" lon="-105.2305756">
  <ele>1600.62</ele>
  <time>2026-08-27T18:31:31Z</time>
  <course>12.39</course>
  <speed>0.01</speed>
  <fix>3d</fix>
</trkpt>
<trkpt lat="40.072842" lon="-105.2305758">
  <ele>1600.89</ele>
  <time>2026-08-27T18:31:31Z</time>
  <course>330.45</course>
  <speed>0.02</speed>
  <fix>3d</fix>
</trkpt>
<trkpt lat="40.072842" lon="-105.2305756">
  <ele>1600.32</ele>
  <time>2026-08-27T18:31:31Z</time>
  <course>12.37</course>
  <speed>0.02</speed>
  <fix>3d</fix>
</trkpt>
<trkpt lat="40.072842" lon="-105.2305758">
  <ele>1600.59</ele>
  <time>2026-08-27T18:31:31Z</time>
  <course>339.1</course>
  <speed>0.02</speed>
  <fix>3d</fix>
</trkpt>
<trkpt lat="40.0728421" lon="-105.2305756">
  <ele>1600.02</ele>
  <time>2026-08-27T18:31:31Z</time>
  <course>12.37</course>
  <speed>0.02</speed>
  <fix>3d</fix>
</trkpt>
<trkpt lat="40.0728421" lon="-105.2305758">
  <ele>1600.3</ele>
  <time>2026-08-27T18:31:31Z</time>
  <course>348.42</course>
  <speed>0.02</speed>
  <fix>3d</fix>
</trkpt>
<trkpt lat="40.0728421" lon="-105.2305756">
  <ele>1599.72</ele>
  <time>2026-08-27T18:31:31Z</time>
  <course>12.33</course>
  <speed>0.03</speed>
  <fix>3d</fix>
</trkpt>
<trkpt lat="40.0728421" lon="-105.2305758">
  <ele>1600.0</ele>
  <time>2026-08-27T18:31:31Z</time>
  <course>358.4</course>
  <speed>0.02</speed>
  <fix>3d</fix>
</trkpt>
<trkpt lat="40.0728421" lon="-105.2305756">
  <ele>1599.42</ele>
  <time>2026-08-27T18:31:31Z</time>
  <course>12.32</course>
  <speed>0.03</speed>
  <fix>3d</fix>
</trkpt>
<trkpt lat="40.0728422" lon="-105.2305758">
  <ele>1599.7</ele>
  <time>2026-08-27T18:31:31Z</time>
  <course>8.01</course>
  <speed>0.02</speed>
  <fix>3d</fix>
</trkpt>
<trkpt lat="40.0728421" lon="-105.2305756">
  <ele>1599.12</ele>
  <time>2026-08-27T18:31:31Z</time>
  <course>12.3</course>
  <speed>0.03</speed>
  <fix>3d</fix>
</trkpt>
<trkpt lat="40.0728423" lon="-105.2305758">
  <ele>1599.4</ele>
  <time>2026-08-27T18:31:31Z</time>
  <course>17.3</course>
  <speed>0.02</speed>
  <fix>3d</fix>
</trkpt>
<trkpt lat="40.0728422" lon="-105.2305756">
  <ele>1598.82</ele>
  <time>2026-08-27T18:31:31Z</time>
  <course>12.27</course>
  <speed>0.03</speed>
  <fix>3d</fix>
</trkpt>
<trkpt lat="40.0728423" lon="-105.2305758">
  <ele>1599.11</ele>
  <time>2026-08-27T18:31:31Z</time>
  <course>26.57</course>
  <speed>0.02</speed>
  <fix>3d</fix>
</trkpt>
<trkpt lat="40.0728422" lon="-105.2305755">
  <ele>1598.53</ele>
  <time>2026-08-27T18:31:31Z</time>
  <course>12.28</course>
  <speed>0.03</speed>
  <fix>3d</fix>
</trkpt>
<trkpt lat="40.0728423" lon="-105.2305758">
  <ele>1598.81</ele>
  <time>2026-08-27T18:31:31Z</time>
  <course>34.12</course>
  <speed>0.02</speed>
  <fix>3d</fix>
</trkpt>
<trkpt lat="40.0728422" lon="-105.2305755">
  <ele>1598.23</ele>
  <time>2026-08-27T18:31:31Z</time>
  <course>12.26</course>
  <speed>0.03</speed>
  <fix>3d</fix>
</trkpt>
<trkpt lat="40.0728424" lon="-105.2305758">
  <ele>1598.51</ele>
  <time>2026-08-27T18:31:31Z</time>
  <course>41.43</course>
  <speed>0.01</speed>
  <fix>3d</fix>
</trkpt>
<trkpt lat="40.0728422" lon="-105.2305755">
  <ele>1597.93</ele>
  <time>2026-08-27T18:31:31Z</time>
  <course>12.25</course>
  <speed>0.0316227766016838</speed>
  <fix>3d</fix>
</trkpt>
<trkpt lat="40.0728424" lon="-105.2305758">
  <ele>1598.22</ele>
  <time>2026-08-27T18:31:31Z</time>
  <course>50.79</course>
  <speed>0.01</speed>
  <fix>3d</fix>
</trkpt>
<trkpt lat="40.0728422" lon="-105.2305755">
  <ele>1597.63</ele>
  <time>2026-08-27T18:31:31Z</time>
  <course>12.24</course>
  <speed>0.0316227766016838</speed>
  <fix>3d</fix>
</trkpt>
<trkpt lat="40.0728424" lon="-105.2305758">
  <ele>1597.91</ele>
  <time>2026-08-27T18:31:31Z</time>
  <course>62.67</course>
  <speed>0.01</speed>
  <fix>3d</fix>
</trkpt>
<trkpt lat="40.0728422" lon="-105.2305754">
  <ele>1597.34</ele>
  <time>2026-08-27T18:31:31Z</time>
  <course>12.05</course>
  <speed>0.044721359549995794</speed>
  <fix>3d</fix>
</trkpt>
<trkpt lat="40.0728424" lon="-105.2305758">
  <ele>1597.62</ele>
  <time>2026-08-27T18:31:31Z</time>
  <course>77.6</course>
  <speed>0.01</speed>
  <fix>3d</fix>
</trkpt>
<trkpt lat="40.0728422" lon="-105.2305754">
  <ele>1597.07</ele>
  <time>2026-08-27T18:31:31Z</time>
  <course>11.67</course>
  <speed>0.03605551275463989</speed>
  <fix>3d</fix>
</trkpt>
<trkpt lat="40.0728424" lon="-105.2305758">
  <ele>1597.33</ele>
  <time>2026-08-27T18:31:31Z</time>
  <course>92.76</course>
  <speed>0.01</speed>
  <fix>3d</fix>
</trkpt>
<trkpt lat="40.0728422" lon="-105.2305754">
  <ele>1596.84</ele>
  <time>2026-08-27T18:31:31Z</time>
  <course>11.32</course>
  <speed>0.03605551275463989</speed>
  <fix>3d</fix>
</trkpt>
<trkpt lat="40.0728424" lon="-105.2305758">
  <ele>1597.06</ele>
  <time>2026-08-27T18:31:31Z</time>
  <course>105.81</course>
  <speed>0.01</speed>
  <fix>3d</fix>
</trkpt>
<trkpt lat="40.0728422" lon="-105.2305754">
  <ele>1596.65</ele>
  <time>2026-08-27T18:31:31Z</time>
  <course>11.0</course>
  <speed>0.03605551275463989</speed>
  <fix>3d</fix>
</trkpt>
<trkpt lat="40.0728424" lon="-105.2305757">
  <ele>1596.84</ele>
  <time>2026-08-27T18:31:31Z</time>
  <course>120.57</course>
  <speed>0.01</speed>
  <fix>3d</fix>
</trkpt>
<trkpt lat="40.0728422" lon="-105.2305754">
  <ele>1596.51</ele>
  <time>2026-08-27T18:31:31Z</time>
  <course>10.72</course>
  <speed>0.03605551275463989</speed>
  <fix>3d</fix>
</trkpt>
<trkpt lat="40.0728424" lon="-105.2305756">
  <ele>1596.65</ele>
  <time>2026-08-27T18:31:31Z</time>
  <course>143.76</course>
  <speed>0.01</speed>
  <fix>3d</fix>
</trkpt>
<trkpt lat="40.0728422" lon="-105.2305754">
  <ele>1596.4</ele>
  <time>2026-08-27T18:31:31Z</time>
  <course>10.72</course>
  <speed>0.0316227766016838</speed>
  <fix>3d</fix>
</trkpt>
<trkpt lat="40.0728424" lon="-105.2305756">
  <ele>1596.51</ele>
  <time>2026-08-27T18:31:31Z</time>
  <course>182.12</course>
  <speed>0.01</speed>
  <fix>3d</fix>
</trkpt>
<trkpt lat="40.0728422" lon="-105.2305755">
  <ele>1596.31</ele>
  <time>2026-08-27T18:31:31Z</time>
  <course>10.82</course>
  <speed>0.03</speed>
  <fix>3d</fix>
</trkpt>
<trkpt lat="40.0728424" lon="-105.2305756">
  <ele>1596.4</ele>
  <time>2026-08-27T18:31:31Z</time>
  <course>214.42</course>
  <speed>0.01</speed>
  <fix>3d</fix>
</trkpt>
<trkpt lat="40.0728422" lon="-105.2305755">
  <ele>1596.22</ele>
  <time>2026-08-27T18:31:31Z</time>
  <course>10.89</course>
  <speed>0.02</speed>
  <fix>3d</fix>
</trkpt>
<trkpt lat="40.0728424" lon="-105.2305756">
  <ele>1596.31</ele>
  <time>2026-08-27T18:31:31Z</time>
  <course>229.16</course>
  <speed>0.01</speed>
  <fix>3d</fix>
</trkpt>
<trkpt lat="40.0728422" lon="-105.2305755">
  <ele>1596.13</ele>
  <time>2026-08-27T18:31:31Z</time>
  <course>10.95</course>
  <speed>0.02</speed>
  <fix>3d</fix>
</trkpt>
<trkpt lat="40.0728424" lon="-105.2305756">
  <ele>1596.22</ele>
  <time>2026-08-27T18:31:31Z</time>
  <course>236.54</course>
  <speed>0.02</speed>
  <fix>3d</fix>
</trkpt>
<trkpt lat="40.0728422" lon="-105.2305755">
  <ele>1596.04</ele>
  <time>2026-08-27T18:31:31Z</time>
  <course>11.02</course>
  <speed>0.02</speed>
  <fix>3d</fix>
</trkpt>
<trkpt lat="40.0728424" lon="-105.2305756">
  <ele>1596.13</ele>
  <time>2026-08-27T18:31:31Z</time>
  <course>240.76</course>
  <speed>0.02</speed>
  <fix>3d</fix>
</trkpt>
<trkpt lat="40.0728422" lon="-105.2305755">
  <ele>1595.95</ele>
  <time>2026-08-27T18:31:31Z</time>
  <course>11.04</course>
  <speed>0.02</speed>
  <fix>3d</fix>
</trkpt>
<trkpt lat="40.0728424" lon="-105.2305757">
  <ele>1596.04</ele>
  <time>2026-08-27T18:31:31Z</time>
  <course>243.05</course>
  <speed>0.02</speed>
  <fix>3d</fix>
</trkpt>
<trkpt lat="40.0728422" lon="-105.2305755">
  <ele>1595.86</ele>
  <time>2026-08-27T18:31:31Z</time>
  <course>11.07</course>
  <speed>0.02</speed>
  <fix>3d</fix>
</trkpt>
<trkpt lat="40.0728423" lon="-105.2305758">
  <ele>1595.95</ele>
  <time>2026-08-27T18:31:31Z</time>
  <course>244.05</course>
  <speed>0.02</speed>
  <fix>3d</fix>
</trkpt>
<trkpt lat="40.0728422" lon="-105.2305756">
  <ele>1595.76</ele>
  <time>2026-08-27T18:31:31Z</time>
  <course>11.08</course>
  <speed>0.02</speed>
  <fix>3d</fix>
</trkpt>
<trkpt lat="40.0728423" lon="-105.2305758">
  <ele>1595.86</ele>
  <time>2026-08-27T18:31:31Z</time>
  <course>243.54</course>
  <speed>0.01</speed>
  <fix>3d</fix>
</trkpt>
<trkpt lat="40.0728422" lon="-105.2305756">
  <ele>1595.67</ele>
  <time>2026-08-27T18:31:31Z</time>
  <course>11.08</course>
  <speed>0.022360679774997897</speed>
  <fix>3d</fix>
</trkpt>
<trkpt lat="40.0728423" lon="-105.2305758">
  <ele>1595.76</ele>
  <time>2026-08-27T18:31:31Z</time>
  <course>241.06</course>
  <speed>0.01</speed>
  <fix>3d</fix>
</trkpt>
<trkpt lat="40.0728422" lon="-105.2305756">
  <ele>1595.57</ele>
  <time>2026-08-27T18:31:31Z</time>
  <course>11.08</course>
  <speed>0.01414213562373095</speed>
  <fix>3d</fix>
</trkpt>
<trkpt lat="40.0728423" lon="-105.2305758">
  <ele>1595.65</ele>
  <time>2026-08-27T18:31:31Z</time>
  <course>236.09</course>
  <speed>0.01</speed>
  <fix>3d</fix>
</trkpt>
<trkpt lat="40.0728422" lon="-105.2305756">
  <ele>1595.48</ele>
  <time>2026-08-27T18:31:31Z</time>
  <course>11.1</course>
  <speed>0.01414213562373095</speed>
  <fix>3d</fix>
</trkpt>
<trkpt lat="40.0728423" lon="-105.2305758">
  <ele>1595.56</ele>
  <time>2026-08-27T18:31:31Z</time>
  <course>227.78</course>
  <speed>0.0</speed>
  <fix>3d</fix>
</trkpt>
<trkpt lat="40.0728422" lon="-105.2305756">
  <ele>1595.38</ele>
  <time>2026-08-27T18:31:31Z</time>
  <course>11.11</course>
  <speed>0.022360679774997897</speed>
  <fix>3d</fix>
</trkpt>
<trkpt lat="40.0728423" lon="-105.2305759">
  <ele>1595.46</ele>
  <time>2026-08-27T18:31:31Z</time>
  <course>212.73</course>
  <speed>0.0</speed>
  <fix>3d</fix>
</trkpt>
<trkpt lat="40.0728422" lon="-105.2305756">
  <ele>1595.28</ele>
  <time>2026-08-27T18:31:31Z</time>
  <course>11.12</course>
  <speed>0.022360679774997897</speed>
  <fix>3d</fix>
</trkpt>
<trkpt lat="40.0728423" lon="-105.230576">
  <ele>1595.36</ele>
  <time>2026-08-27T18:31:31Z</time>
  <course>183.73</course>
  <speed>0.0</speed>
  <fix>3d</fix>
</trkpt>
<trkpt lat="40.0728422" lon="-105.2305757">
  <ele>1595.18</ele>
  <time>2026-08-27T18:31:31Z</time>
  <course>11.13</course>
  <speed>0.022360679774997897</speed>
  <fix>3d</fix>
</trkpt>
<trkpt lat="40.0728423" lon="-105.2305759">
  <ele>1595.26</ele>
  <time>2026-08-27T18:31:31Z</time>
  <course>145.44</course>
  <speed>0.0</speed>
  <fix>3d</fix>
</trkpt>
<trkpt lat="40.0728422" lon="-105.2305757">
  <ele>1595.08</ele>
  <time>2026-08-27T18:31:31Z</time>
  <course>11.14</course>
  <speed>0.0316227766016838</speed>
  <fix>3d</fix>
</trkpt>
<trkpt lat="40.0728423" lon="-105.2305758">
  <ele>1595.15</ele>
  <time>2026-08-27T18:31:31Z</time>
  <course>119.91</course>
  <speed>0.0</speed>
  <fix>3d</fix>
</trkpt>
<trkpt lat="40.0728422" lon="-105.2305757">
  <ele>1594.98</ele>
  <time>2026-08-27T18:31:31Z</time>
  <course>11.14</course>
  <speed>0.0316227766016838</speed>
  <fix>3d</fix>
</trkpt>
<trkpt lat="40.0728423" lon="-105.2305758">
  <ele>1595.05</ele>
  <time>2026-08-27T18:31:31Z</time>
  <course>107.91</course>
  <speed>0.0</speed>
  <fix>3d</fix>
</trkpt>
<trkpt lat="40.0728422" lon="-105.2305756">
  <ele>1594.87</ele>
  <time>2026-08-27T18:31:31Z</time>
  <course>11.15</course>
  <speed>0.0316227766016838</speed>
  <fix>3d</fix>
</trkpt>
<trkpt lat="40.0728423" lon="-105.2305758">
  <ele>1594.95</ele>
  <time>2026-08-27T18:31:31Z</time>
  <course>102.08</course>
  <speed>0.0</speed>
  <fix>3d</fix>
</trkpt>
<trkpt lat="40.0728422" lon="-105.2305756">
  <ele>1594.77</ele>
  <time>2026-08-27T18:31:31Z</time>
  <course>11.14</course>
  <speed>0.0316227766016838</speed>
  <fix>3d</fix>
</trkpt>
<trkpt lat="40.0728423" lon="-105.2305758">
  <ele>1594.84</ele>
  <time>2026-08-27T18:31:31Z</time>
  <course>100.18</course>
  <speed>0.01</speed>
  <fix>3d</fix>
</trkpt>
<trkpt lat="40.0728422" lon="-105.2305756">
  <ele>1594.67</ele>
  <time>2026-08-27T18:31:31Z</time>
  <course>11.14</course>
  <speed>0.0316227766016838</speed>
  <fix>3d</fix>
</trkpt>
<trkpt lat="40.0728422" lon="-105.2305758">
  <ele>1594.74</ele>
  <time>2026-08-27T18:31:31Z</time>
  <course>99.25</course>
  <speed>0.01</speed>
  <fix>3d</fix>
</trkpt>
<trkpt lat="40.0728422" lon="-105.2305755">
  <ele>1594.57</ele>
  <time>2026-08-27T18:31:31Z</time>
  <course>11.14</course>
  <speed>0.0316227766016838</speed>
  <fix>3d</fix>
</trkpt>
<trkpt lat="40.0728421" lon="-105.2305758">
  <ele>1594.63</ele>
  <time>2026-08-27T18:31:31Z</time>
  <course>98.57</course>
  <speed>0.01</speed>
  <fix>3d</fix>
</trkpt>
<trkpt lat="40.0728422" lon="-105.2305755">
  <ele>1594.47</ele>
  <time>2026-08-27T18:31:31Z</time>
  <course>11.15</course>
  <speed>0.0316227766016838</speed>
  <fix>3d</fix>
</trkpt>
<trkpt lat="40.0728421" lon="-105.2305758">
  <ele>1594.54</ele>
  <time>2026-08-27T18:31:31Z</time>
  <course>98.43</course>
  <speed>0.01</speed>
  <fix>3d</fix>
</trkpt>
<trkpt lat="40.0728422" lon="-105.2305755">
  <ele>1594.36</ele>
  <time>2026-08-27T18:31:31Z</time>
  <course>11.14</course>
  <speed>0.0316227766016838</speed>
  <fix>3d</fix>
</trkpt>
<trkpt lat="40.0728421" lon="-105.2305758">
  <ele>1594.43</ele>
  <time>2026-08-27T18:31:31Z</time>
  <course>97.18</course>
  <speed>0.01</speed>
  <fix>3d</fix>
</trkpt>
<trkpt lat="40.0728422" lon="-105.2305755">
  <ele>1594.26</ele>
  <time>2026-08-27T18:31:31Z</time>
  <course>11.16</course>
  <speed>0.0316227766016838</speed>
  <fix>3d</fix>
</trkpt>
<trkpt lat="40.0728421" lon="-105.2305758">
  <ele>1594.33</ele>
  <time>2026-08-27T18:31:31Z</time>
  <course>94.02</course>
  <speed>0.01</speed>
  <fix>3d</fix>
</trkpt>
<trkpt lat="40.0728421" lon="-105.2305755">
  <ele>1594.16</ele>
  <time>2026-08-27T18:31:31Z</time>
  <course>11.17</course>
  <speed>0.0316227766016838</speed>
  <fix>3d</fix>
</trkpt>
<trkpt lat="40.0728421" lon="-105.2305758">
  <ele>1594.23</ele>
  <time>2026-08-27T18:31:31Z</time>
  <course>88.96</course>
  <speed>0.01</speed>
  <fix>3d</fix>
</trkpt>
<trkpt lat="40.0728421" lon="-105.2305754">
  <ele>1594.06</ele>
  <time>2026-08-27T18:31:31Z</time>
  <course>11.17</course>
  <speed>0.0316227766016838</speed>
  <fix>3d</fix>
</trkpt>
<trkpt lat="40.0728421" lon="-105.2305757">
  <ele>1594.13</ele>
  <time>2026-08-27T18:31:31Z</time>
  <course>82.85</course>
  <speed>0.01</speed>
  <fix>3d</fix>
</trkpt>
<trkpt lat="40.0728421" lon="-105.2305754">
  <ele>1593.96</ele>
  <time>2026-08-27T18:31:31Z</time>
  <course>11.18</course>
  <speed>0.0316227766016838</speed>
  <fix>3d</fix>
</trkpt>
<trkpt lat="40.0728421" lon="-105.2305756">
  <ele>1594.03</ele>
  <time>2026-08-27T18:31:31Z</time>
  <course>76.12</course>
  <speed>0.01</speed>
  <fix>3d</fix>
</trkpt>
<trkpt lat="40.0728421" lon="-105.2305754">
  <ele>1593.86</ele>
  <time>2026-08-27T18:31:31Z</time>
  <course>11.17</course>
  <speed>0.0316227766016838</speed>
  <fix>3d</fix>
</trkpt>
<trkpt lat="40.0728421" lon="-105.2305756">
  <ele>1593.92</ele>
  <time>2026-08-27T18:31:31Z</time>
  <course>69.44</course>
  <speed>0.01</speed>
  <fix>3d</fix>
</trkpt>
<trkpt lat="40.0728421" lon="-105.2305754">
  <ele>1593.76</ele>
  <time>2026-08-27T18:31:31Z</time>
  <course>11.18</course>
  <speed>0.03</speed>
  <fix>3d</fix>
</trkpt>
<trkpt lat="40.0728421" lon="-105.2305756">
  <ele>1593.83</ele>
  <time>2026-08-27T18:31:31Z</time>
  <course>63.45</course>
  <speed>0.01</speed>
  <fix>3d</fix>
</trkpt>
<trkpt lat="40.0728421" lon="-105.2305753">
  <ele>1593.66</ele>
  <time>2026-08-27T18:31:31Z</time>
  <course>11.18</course>
  <speed>0.03</speed>
  <fix>3d</fix>
</trkpt>
<trkpt lat="40.0728421" lon="-105.2305756">
  <ele>1593.73</ele>
  <time>2026-08-27T18:31:31Z</time>
  <course>57.51</course>
  <speed>0.01</speed>
  <fix>3d</fix>
</trkpt>
<trkpt lat="40.0728421" lon="-105.2305753">
  <ele>1593.57</ele>
  <time>2026-08-27T18:31:31Z</time>
  <course>11.2</course>
  <speed>0.02</speed>
  <fix>3d</fix>
</trkpt>
<trkpt lat="40.0728421" lon="-105.2305756">
  <ele>1593.63</ele>
  <time>2026-08-27T18:31:31Z</time>
  <course>51.73</course>
  <speed>0.01</speed>
  <fix>3d</fix>
</trkpt>
<trkpt lat="40.0728421" lon="-105.2305753">
  <ele>1593.47</ele>
  <time>2026-08-27T18:31:31Z</time>
  <course>11.2</course>
  <speed>0.02</speed>
  <fix>3d</fix>
</trkpt>
<trkpt lat="40.0728421" lon="-105.2305756">
  <ele>1593.52</ele>
  <time>2026-08-27T18:31:31Z</time>
  <course>46.57</course>
  <speed>0.01</speed>
  <fix>3d</fix>
</trkpt>
<trkpt lat="40.0728421" lon="-105.2305753">
  <ele>1593.37</ele>
  <time>2026-08-27T18:31:31Z</time>
  <course>11.22</course>
  <speed>0.02</speed>
  <fix>3d</fix>
</trkpt>
<trkpt lat="40.0728421" lon="-105.2305756">
  <ele>1593.41</ele>
  <time>2026-08-27T18:31:31Z</time>
  <course>42.37</course>
  <speed>0.01</speed>
  <fix>3d</fix>
</trkpt>
<trkpt lat="40.0728421" lon="-105.2305753">
  <ele>1593.27</ele>
  <time>2026-08-27T18:31:31Z</time>
  <course>11.21</course>
  <speed>0.02</speed>
  <fix>3d</fix>
</trkpt>
<trkpt lat="40.0728421" lon="-105.2305755">
  <ele>1593.32</ele>
  <time>2026-08-27T18:31:31Z</time>
  <course>39.28</course>
  <speed>0.01</speed>
  <fix>3d</fix>
</trkpt>
<trkpt lat="40.0728421" lon="-105.2305753">
  <ele>1593.17</ele>
  <time>2026-08-27T18:31:31Z</time>
  <course>11.21</course>
  <speed>0.02</speed>
  <fix>3d</fix>
</trkpt>
<trkpt lat="40.0728422" lon="-105.2305755">
  <ele>1593.22</ele>
  <time>2026-08-27T18:31:31Z</time>
  <course>37.33</course>
  <speed>0.01</speed>
  <fix>3d</fix>
</trkpt>
<trkpt lat="40.0728421" lon="-105.2305753">
  <ele>1593.06</ele>
  <time>2026-08-27T18:31:31Z</time>
  <course>11.22</course>
  <speed>0.02</speed>
  <fix>3d</fix>
</trkpt>
<trkpt lat="40.0728423" lon="-105.2305755">
  <ele>1593.12</ele>
  <time>2026-08-27T18:31:31Z</time>
  <course>34.91</course>
  <speed>0.01</speed>
  <fix>3d</fix>
</trkpt>
<trkpt lat="40.0728421" lon="-105.2305753">
  <ele>1592.96</ele>
  <time>2026-08-27T18:31:31Z</time>
  <course>11.23</course>
  <speed>0.02</speed>
  <fix>3d</fix>
</trkpt>
<trkpt lat="40.0728423" lon="-105.2305755">
  <ele>1593.02</ele>
  <time>2026-08-27T18:31:31Z</time>
  <course>31.62</course>
  <speed>0.01</speed>
  <fix>3d</fix>
</trkpt>
<trkpt lat="40.0728421" lon="-105.2305753">
  <ele>1592.86</ele>
  <time>2026-08-27T18:31:31Z</time>
  <course>11.23</course>
  <speed>0.02</speed>
  <fix>3d</fix>
</trkpt>
<trkpt lat="40.0728423" lon="-105.2305755">
  <ele>1592.91</ele>
  <time>2026-08-27T18:31:31Z</time>
  <course>28.84</course>
  <speed>0.01</speed>
  <fix>3d</fix>
</trkpt>
<trkpt lat="40.0728421" lon="-105.2305753">
  <ele>1592.76</ele>
  <time>2026-08-27T18:31:31Z</time>
  <course>11.23</course>
  <speed>0.022360679774997897</speed>
  <fix>3d</fix>
</trkpt>
<trkpt lat="40.0728423" lon="-105.2305755">
  <ele>1592.81</ele>
  <time>2026-08-27T18:31:31Z</time>
  <course>27.8</course>
  <speed>0.0</speed>
  <fix>3d</fix>
</trkpt>
<trkpt lat="40.0728422" lon="-105.2305753">
  <ele>1592.66</ele>
  <time>2026-08-27T18:31:31Z</time>
  <course>11.23</course>
  <speed>0.022360679774997897</speed>
  <fix>3d</fix>
</trkpt>
<trkpt lat="40.0728423" lon="-105.2305755">
  <ele>1592.71</ele>
  <time>2026-08-27T18:31:31Z</time>
  <course>29.85</course>
  <speed>0.0</speed>
  <fix>3d</fix>
</trkpt>
<trkpt lat="40.0728422" lon="-105.2305753">
  <ele>1592.56</ele>
  <time>2026-08-27T18:31:31Z</time>
  <course>11.23</course>
  <speed>0.022360679774997897</speed>
  <fix>3d</fix>
</trkpt>
<trkpt lat="40.0728423" lon="-105.2305754">
  <ele>1592.61</ele>
  <time>2026-08-27T18:31:31Z</time>
  <course>34.6</course>
  <speed>0.0</speed>
  <fix>3d</fix>
</trkpt>
<trkpt lat="40.0728422" lon="-105.2305753">
  <ele>1592.46</ele>
  <time>2026-08-27T18:31:31Z</time>
  <course>11.25</course>
  <speed>0.022360679774997897</speed>
  <fix>3d</fix>
</trkpt>
<trkpt lat="40.0728424" lon="-105.2305753">
  <ele>1592.51</ele>
  <time>2026-08-27T18:31:31Z</time>
  <course>43.97</course>
  <speed>0.0</speed>
  <fix>3d</fix>
</trkpt>
<trkpt lat="40.0728422" lon="-105.2305753">
  <ele>1592.36</ele>
  <time>2026-08-27T18:31:31Z</time>
  <course>11.23</course>
  <speed>0.022360679774997897</speed>
  <fix>3d</fix>
</trkpt>
<trkpt lat="40.0728424" lon="-105.2305753">
  <ele>1592.4</ele>
  <time>2026-08-27T18:31:31Z</time>
  <course>61.62</course>
  <speed>0.0</speed>
  <fix>3d</fix>
</trkpt>
<trkpt lat="40.0728422" lon="-105.2305752">
  <ele>1592.26</ele>
  <time>2026-08-27T18:31:31Z</time>
  <course>11.25</course>
  <speed>0.022360679774997897</speed>
  <fix>3d</fix>
</trkpt>
<trkpt lat="40.0728424" lon="-105.2305753">
  <ele>1592.31</ele>
  <time>2026-08-27T18:31:31Z</time>
  <course>87.77</course>
  <speed>0.0</speed>
  <fix>3d</fix>
</trkpt>
<trkpt lat="40.0728422" lon="-105.2305752">
  <ele>1592.16</ele>
  <time>2026-08-27T18:31:31Z</time>
  <course>11.23</course>
  <speed>0.01414213562373095</speed>
  <fix>3d</fix>
</trkpt>
<trkpt lat="40.0728424" lon="-105.2305753">
  <ele>1592.21</ele>
  <time>2026-08-27T18:31:31Z</time>
  <course>152.41</course>
  <speed>0.0</speed>
  <fix>3d</fix>
</trkpt>
<trkpt lat="40.0728422" lon="-105.2305752">
  <ele>1592.06</ele>
  <time>2026-08-27T18:31:31Z</time>
  <course>11.26</course>
  <speed>0.01414213562373095</speed>
  <fix>3d</fix>
</trkpt>
<trkpt lat="40.0728424" lon="-105.2305753">
  <ele>1592.11</ele>
  <time>2026-08-27T18:31:31Z</time>
  <course>196.37</course>
  <speed>0.0</speed>
  <fix>3d</fix>
</trkpt>
<trkpt lat="40.0728422" lon="-105.2305752">
  <ele>1591.96</ele>
  <time>2026-08-27T18:31:31Z</time>
  <course>11.24</course>
  <speed>0.022360679774997897</speed>
  <fix>3d</fix>
</trkpt>
<trkpt lat="40.0728424" lon="-105.2305753">
  <ele>1592.01</ele>
  <time>2026-08-27T18:31:31Z</time>
  <course>207.33</course>
  <speed>0.0</speed>
  <fix>3d</fix>
</trkpt>
<trkpt lat="40.0728422" lon="-105.2305752">
  <ele>1591.87</ele>
  <time>2026-08-27T18:31:31Z</time>
  <course>11.25</course>
  <speed>0.022360679774997897</speed>
  <fix>3d</fix>
</trkpt>
<trkpt lat="40.0728424" lon="-105.2305753">
  <ele>1591.9</ele>
  <time>2026-08-27T18:31:31Z</time>
  <course>209.9</course>
  <speed>0.0</speed>
  <fix>3d</fix>
</trkpt>
<trkpt lat="40.0728422" lon="-105.2305752">
  <ele>1591.77</ele>
  <time>2026-08-27T18:31:31Z</time>
  <course>11.27</course>
  <speed>0.022360679774997897</speed>
  <fix>3d</fix>
</trkpt>
<trkpt lat="40.0728424" lon="-105.2305753">
  <ele>1591.81</ele>
  <time>2026-08-27T18:31:31Z</time>
  <course>211.34</course>
  <speed>0.0</speed>
  <fix>3d</fix>
</trkpt>
<trkpt lat="40.0728422" lon="-105.2305752">
  <ele>1591.67</ele>
  <time>2026-08-27T18:31:31Z</time>
  <course>11.28</course>
  <speed>0.022360679774997897</speed>
  <fix>3d</fix>
</trkpt>
<trkpt lat="40.0728424" lon="-105.2305753">
  <ele>1591.7</ele>
  <time>2026-08-27T18:31:31Z</time>
  <course>209.79</course>
  <speed>0.0</speed>
  <fix>3d</fix>
</trkpt>
<trkpt lat="40.0728422" lon="-105.2305752">
  <ele>1591.57</ele>
  <time>2026-08-27T18:31:31Z</time>
  <course>11.28</course>
  <speed>0.022360679774997897</speed>
  <fix>3d</fix>
</trkpt>
<trkpt lat="40.0728424" lon="-105.2305753">
  <ele>1591.6</ele>
  <time>2026-08-27T18:31:31Z</time>
  <course>209.24</course>
  <speed>0.01</speed>
  <fix>3d</fix>
</trkpt>
<trkpt lat="40.0728422" lon="-105.2305752">
  <ele>1591.47</ele>
  <time>2026-08-27T18:31:31Z</time>
  <course>11.28</course>
  <speed>0.022360679774997897</speed>
  <fix>3d</fix>
</trkpt>
<trkpt lat="40.0728424" lon="-105.2305753">
  <ele>1591.5</ele>
  <time>2026-08-27T18:31:31Z</time>
  <course>210.42</course>
  <speed>0.01</speed>
  <fix>3d</fix>
</trkpt>
<trkpt lat="40.0728422" lon="-105.2305752">
  <ele>1591.36</ele>
  <time>2026-08-27T18:31:31Z</time>
  <course>11.28</course>
  <speed>0.022360679774997897</speed>
  <fix>3d</fix>
</trkpt>
<trkpt lat="40.0728424" lon="-105.2305753">
  <ele>1591.39</ele>
  <time>2026-08-27T18:31:31Z</time>
  <course>212.91</course>
  <speed>0.01</speed>
  <fix>3d</fix>
</trkpt>
<trkpt lat="40.0728422" lon="-105.2305752">
  <ele>1591.26</ele>
  <time>2026-08-27T18:31:31Z</time>
  <course>11.28</course>
  <speed>0.022360679774997897</speed>
  <fix>3d</fix>
</trkpt>
<trkpt lat="40.0728423" lon="-105.2305753">
  <ele>1591.3</ele>
  <time>2026-08-27T18:31:31Z</time>
  <course>215.73</course>
  <speed>0.01</speed>
  <fix>3d</fix>
</trkpt>
<trkpt lat="40.0728422" lon="-105.2305752">
  <ele>1591.16</ele>
  <time>2026-08-27T18:31:31Z</time>
  <course>11.25</course>
  <speed>0.022360679774997897</speed>
  <fix>3d</fix>
</trkpt>
<trkpt lat="40.0728423" lon="-105.2305753">
  <ele>1591.19</ele>
  <time>2026-08-27T18:31:31Z</time>
  <course>216.92</course>
  <speed>0.01</speed>
  <fix>3d</fix>
</trkpt>
<trkpt lat="40.0728422" lon="-105.2305752">
  <ele>1591.06</ele>
  <time>2026-08-27T18:31:32Z</time>
  <course>11.25</course>
  <speed>0.022360679774997897</speed>
  <fix>3d</fix>
</trkpt>
<trkpt lat="40.0728423" lon="-105.2305754">
  <ele>1591.09</ele>
  <time>2026-08-27T18:31:32Z</time>
  <course>218.69</course>
  <speed>0.01</speed>
  <fix>3d</fix>
</trkpt>
<trkpt lat="40.0728422" lon="-105.2305752">
  <ele>1590.96</ele>
  <time>2026-08-27T18:31:32Z</time>
  <course>11.28</course>
  <speed>0.022360679774997897</speed>
  <fix>3d</fix>
</trkpt>
<trkpt lat="40.0728423" lon="-105.2305755">
  <ele>1590.99</ele>
  <time>2026-08-27T18:31:32Z</time>
  <course>221.81</course>
  <speed>0.01</speed>
  <fix>3d</fix>
</trkpt>
<trkpt lat="40.0728422" lon="-105.2305752">
  <ele>1590.86</ele>
  <time>2026-08-27T18:31:32Z</time>
  <course>11.26</course>
  <speed>0.022360679774997897</speed>
  <fix>3d</fix>
</trkpt>
<trkpt lat="40.0728423" lon="-105.2305755">
  <ele>1590.88</ele>
  <time>2026-08-27T18:31:32Z</time>
  <course>223.47</course>
  <speed>0.01</speed>
  <fix>3d</fix>
</trkpt>
<trkpt lat="40.0728422" lon="-105.2305752">
  <ele>1590.76</ele>
  <time>2026-08-27T18:31:32Z</time>
  <course>11.28</course>
  <speed>0.022360679774997897</speed>
  <fix>3d</fix>
</trkpt>
<trkpt lat="40.0728423" lon="-105.2305755">
  <ele>1590.79</ele>
  <time>2026-08-27T18:31:32Z</time>
  <course>223.84</course>
  <speed>0.01</speed>
  <fix>3d</fix>
</trkpt>
<trkpt lat="40.0728422" lon="-105.2305753">
  <ele>1590.67</ele>
  <time>2026-08-27T18:31:32Z</time>
  <course>11.28</course>
  <speed>0.022360679774997897</speed>
  <fix>3d</fix>
</trkpt>
<trkpt lat="40.0728422" lon="-105.2305755">
  <ele>1590.69</ele>
  <time>2026-08-27T18:31:32Z</time>
  <course>223.91</course>
  <speed>0.01</speed>
  <fix>3d</fix>
</trkpt>
<trkpt lat="40.0728422" lon="-105.2305753">
  <ele>1590.57</ele>
  <time>2026-08-27T18:31:32Z</time>
  <course>11.29</course>
  <speed>0.01414213562373095</speed>
  <fix>3d</fix>
</trkpt>
<trkpt lat="40.0728421" lon="-105.2305755">
  <ele>1590.59</ele>
  <time>2026-08-27T18:31:32Z</time>
  <course>222.94</course>
  <speed>0.0</speed>
  <fix>3d</fix>
</trkpt>
<trkpt lat="40.0728421" lon="-105.2305753">
  <ele>1590.47</ele>
  <time>2026-08-27T18:31:32Z</time>
  <course>11.3</course>
  <speed>0.01414213562373095</speed>
  <fix>3d</fix>
</trkpt>
<trkpt lat="40.0728421" lon="-105.2305756">
  <ele>1590.49</ele>
  <time>2026-08-27T18:31:32Z</time>
  <course>222.29</course>
  <speed>0.0</speed>
  <fix>3d</fix>
</trkpt>
<trkpt lat="40.0728421" lon="-105.2305753">
  <ele>1590.37</ele>
  <time>2026-08-27T18:31:32Z</time>
  <course>11.3</course>
  <speed>0.01414213562373095</speed>
  <fix>3d</fix>
</trkpt>
<trkpt lat="40.0728421" lon="-105.2305756">
  <ele>1590.38</ele>
  <time>2026-08-27T18:31:32Z</time>
  <course>224.51</course>
  <speed>0.0</speed>
  <fix>3d</fix>
</trkpt>
<trkpt lat="40.0728421" lon="-105.2305753">
  <ele>1590.27</ele>
  <time>2026-08-27T18:31:32Z</time>
  <course>11.29</course>
  <speed>0.022360679774997897</speed>
  <fix>3d</fix>
</trkpt>
<trkpt lat="40.0728421" lon="-105.2305756">
  <ele>1590.29</ele>
  <time>2026-08-27T18:31:32Z</time>
  <course>231.67</course>
  <speed>0.0</speed>
  <fix>3d</fix>
</trkpt>
<trkpt lat="40.0728421" lon="-105.2305753">
  <ele>1590.17</ele>
  <time>2026-08-27T18:31:32Z</time>
  <course>11.3</course>
  <speed>0.022360679774997897</speed>
  <fix>3d</fix>
</trkpt>
<trkpt lat="40.0728421" lon="-105.2305756">
  <ele>1590.19</ele>
  <time>2026-08-27T18:31:32Z</time>
  <course>257.78</course>
  <speed>0.0</speed>
  <fix>3d</fix>
</trkpt>
<trkpt lat="40.0728421" lon="-105.2305753">
  <ele>1590.07</ele>
  <time>2026-08-27T18:31:32Z</time>
  <course>11.31</course>
  <speed>0.022360679774997897</speed>
  <fix>3d</fix>
</trkpt>
<trkpt lat="40.0728421" lon="-105.2305756">
  <ele>1590.08</ele>
  <time>2026-08-27T18:31:32Z</time>
  <course>0.04</course>
  <speed>0.0</speed>
  <fix>3d</fix>
</trkpt>
<trkpt lat="40.0728421" lon="-105.2305753">
  <ele>1589.97</ele>
  <time>2026-08-27T18:31:32Z</time>
  <course>11.31</course>
  <speed>0.022360679774997897</speed>
  <fix>3d</fix>
</trkpt>
<trkpt lat="40.0728421" lon="-105.2305756">
  <ele>1589.98</ele>
  <time>2026-08-27T18:31:32Z</time>
  <course>19.26</course>
  <speed>0.0</speed>
  <fix>3d</fix>
</trkpt>
<trkpt lat="40.0728421" lon="-105.2305753">
  <ele>1589.87</ele>
  <time>2026-08-27T18:31:32Z</time>
  <course>11.3</course>
  <speed>0.02</speed>
  <fix>3d</fix>
</trkpt>
<trkpt lat="40.0728421" lon="-105.2305756">
  <ele>1589.88</ele>
  <time>2026-08-27T18:31:32Z</time>
  <course>20.95</course>
  <speed>0.0</speed>
  <fix>3d</fix>
</trkpt>
<trkpt lat="40.0728421" lon="-105.2305753">
  <ele>1589.77</ele>
  <time>2026-08-27T18:31:32Z</time>
  <course>11.32</course>
  <speed>0.02</speed>
  <fix>3d</fix>
</trkpt>
<trkpt lat="40.0728421" lon="-105.2305756">
  <ele>1589.78</ele>
  <time>2026-08-27T18:31:32Z</time>
  <course>21.42</course>
  <speed>0.0</speed>
  <fix>3d</fix>
</trkpt>
<trkpt lat="40.0728421" lon="-105.2305753">
  <ele>1589.67</ele>
  <time>2026-08-27T18:31:32Z</time>
  <course>11.32</course>
  <speed>0.02</speed>
  <fix>3d</fix>
</trkpt>
<trkpt lat="40.0728421" lon="-105.2305756">
  <ele>1589.67</ele>
  <time>2026-08-27T18:31:32Z</time>
  <course>22.99</course>
  <speed>0.0</speed>
  <fix>3d</fix>
</trkpt>
<trkpt lat="40.0728421" lon="-105.2305753">
  <ele>1589.57</ele>
  <time>2026-08-27T18:31:32Z</time>
  <course>11.32</course>
  <speed>0.02</speed>
  <fix>3d</fix>
</trkpt>
<trkpt lat="40.0728421" lon="-105.2305756">
  <ele>1589.58</ele>
  <time>2026-08-27T18:31:32Z</time>
  <course>25.8</course>
  <speed>0.01</speed>
  <fix>3d</fix>
</trkpt>
<trkpt lat="40.0728421" lon="-105.2305753">
  <ele>1589.47</ele>
  <time>2026-08-27T18:31:32Z</time>
  <course>11.32</course>
  <speed>0.02</speed>
  <fix>3d</fix>
</trkpt>
<trkpt lat="40.0728421" lon="-105.2305756">
  <ele>1589.47</ele>
  <time>2026-08-27T18:31:32Z</time>
  <course>28.8</course>
  <speed>0.01</speed>
  <fix>3d</fix>
</trkpt>
<trkpt lat="40.0728421" lon="-105.2305753">
  <ele>1589.37</ele>
  <time>2026-08-27T18:31:32Z</time>
  <course>11.31</course>
  <speed>0.02</speed>
  <fix>3d</fix>
</trkpt>
<trkpt lat="40.0728421" lon="-105.2305756">
  <ele>1589.37</ele>
  <time>2026-08-27T18:31:32Z</time>
  <course>29.85</course>
  <speed>0.01</speed>
  <fix>3d</fix>
</trkpt>
<trkpt lat="40.0728421" lon="-105.2305753">
  <ele>1589.27</ele>
  <time>2026-08-27T18:31:32Z</time>
  <course>11.33</course>
  <speed>0.02</speed>
  <fix>3d</fix>
</trkpt>
<trkpt lat="40.0728421" lon="-105.2305756">
  <ele>1589.27</ele>
  <time>2026-08-27T18:31:32Z</time>
  <course>29.32</course>
  <speed>0.01</speed>
  <fix>3d</fix>
</trkpt>
<trkpt lat="40.0728421" lon="-105.2305753">
  <ele>1589.16</ele>
  <time>2026-08-27T18:31:32Z</time>
  <course>11.3</course>
  <speed>0.02</speed>
  <fix>3d</fix>
</trkpt>
<trkpt lat="40.0728421" lon="-105.2305756">
  <ele>1589.16</ele>
  <time>2026-08-27T18:31:32Z</time>
  <course>30.16</course>
  <speed>0.01</speed>
  <fix>3d</fix>
</trkpt>
<trkpt lat="40.0728421" lon="-105.2305753">
  <ele>1589.06</ele>
  <time>2026-08-27T18:31:32Z</time>
  <course>11.29</course>
  <speed>0.02</speed>
  <fix>3d</fix>
</trkpt>
<trkpt lat="40.0728422" lon="-105.2305756">
  <ele>1589.07</ele>
  <time>2026-08-27T18:31:32Z</time>
  <course>31.31</course>
  <speed>0.01</speed>
  <fix>3d</fix>
</trkpt>
<trkpt lat="40.0728421" lon="-105.2305753">
  <ele>1588.96</ele>
  <time>2026-08-27T18:31:32Z</time>
  <course>11.31</course>
  <speed>0.02</speed>
  <fix>3d</fix>
</trkpt>
<trkpt lat="40.0728423" lon="-105.2305756">
  <ele>1588.96</ele>
  <time>2026-08-27T18:31:32Z</time>
  <course>30.94</course>
  <speed>0.01</speed>
  <fix>3d</fix>
</trkpt>
<trkpt lat="40.0728421" lon="-105.2305753">
  <ele>1588.85</ele>
  <time>2026-08-27T18:31:32Z</time>
  <course>11.33</course>
  <speed>0.02</speed>
  <fix>3d</fix>
</trkpt>
<trkpt lat="40.0728423" lon="-105.2305755">
  <ele>1588.86</ele>
  <time>2026-08-27T18:31:32Z</time>
  <course>30.41</course>
  <speed>0.01</speed>
  <fix>3d</fix>
</trkpt>
<trkpt lat="40.0728421" lon="-105.2305753">
  <ele>1588.75</ele>
  <time>2026-08-27T18:31:32Z</time>
  <course>11.29</course>
  <speed>0.02</speed>
  <fix>3d</fix>
</trkpt>
<trkpt lat="40.0728423" lon="-105.2305755">
  <ele>1588.76</ele>
  <time>2026-08-27T18:31:32Z</time>
  <course>32.17</course>
  <speed>0.01</speed>
  <fix>3d</fix>
</trkpt>
<trkpt lat="40.0728421" lon="-105.2305753">
  <ele>1588.66</ele>
  <time>2026-08-27T18:31:32Z</time>
  <course>11.29</course>
  <speed>0.022360679774997897</speed>
  <fix>3d</fix>
</trkpt>
<trkpt lat="40.0728423" lon="-105.2305755">
  <ele>1588.66</ele>
  <time>2026-08-27T18:31:32Z</time>
  <course>34.44</course>
  <speed>0.01</speed>
  <fix>3d</fix>
</trkpt>
<trkpt lat="40.0728422" lon="-105.2305753">
  <ele>1588.56</ele>
  <time>2026-08-27T18:31:32Z</time>
  <course>11.34</course>
  <speed>0.022360679774997897</speed>
  <fix>3d</fix>
</trkpt>
<trkpt lat="40.0728424" lon="-105.2305755">
  <ele>1588.57</ele>
  <time>2026-08-27T18:31:32Z</time>
  <course>36.89</course>
  <speed>0.01</speed>
  <fix>3d</fix>
</trkpt>
<trkpt lat="40.0728422" lon="-105.2305753">
  <ele>1588.46</ele>
  <time>2026-08-27T18:31:32Z</time>
  <course>11.33</course>
  <speed>0.022360679774997897</speed>
  <fix>3d</fix>
</trkpt>
<trkpt lat="40.0728424" lon="-105.2305755">
  <ele>1588.47</ele>
  <time>2026-08-27T18:31:32Z</time>
  <course>43.13</course>
  <speed>0.0</speed>
  <fix>3d</fix>
</trkpt>
<trkpt lat="40.0728422" lon="-105.2305753">
  <ele>1588.36</ele>
  <time>2026-08-27T18:31:32Z</time>
  <course>11.34</course>
  <speed>0.022360679774997897</speed>
  <fix>3d</fix>
</trkpt>
<trkpt lat="40.0728424" lon="-105.2305755">
  <ele>1588.37</ele>
  <time>2026-08-27T18:31:32Z</time>
  <course>52.77</course>
  <speed>0.0</speed>
  <fix>3d</fix>
</trkpt>
<trkpt lat="40.0728422" lon="-105.2305753">
  <ele>1588.26</ele>
  <time>2026-08-27T18:31:32Z</time>
  <course>11.32</course>
  <speed>0.022360679774997897</speed>
  <fix>3d</fix>
</trkpt>
<trkpt lat="40.0728424" lon="-105.2305754">
  <ele>1588.27</ele>
  <time>2026-08-27T18:31:32Z</time>
  <course>67.0</course>
  <speed>0.0</speed>
  <fix>3d</fix>
</trkpt>
<trkpt lat="40.0728422" lon="-105.2305753">
  <ele>1588.16</ele>
  <time>2026-08-27T18:31:32Z</time>
  <course>11.34</course>
  <speed>0.022360679774997897</speed>
  <fix>3d</fix>
</trkpt>
<trkpt lat="40.0728424" lon="-105.2305753">
  <ele>1588.16</ele>
  <time>2026-08-27T18:31:32Z</time>
  <course>86.9</course>
  <speed>0.0</speed>
  <fix>3d</fix>
</trkpt>
<trkpt lat="40.0728422" lon="-105.2305753">
  <ele>1588.06</ele>
  <time>2026-08-27T18:31:32Z</time>
  <course>11.32</course>
  <speed>0.0282842712474619</speed>
  <fix>3d</fix>
</trkpt>
<trkpt lat="40.0728424" lon="-105.2305753">
  <ele>1588.07</ele>
  <time>2026-08-27T18:31:32Z</time>
  <course>109.19</course>
  <speed>0.0</speed>
  <fix>3d</fix>
</trkpt>
<trkpt lat="40.0728422" lon="-105.2305752">
  <ele>1587.96</ele>
  <time>2026-08-27T18:31:32Z</time>
  <course>11.34</course>
  <speed>0.0282842712474619</speed>
  <fix>3d</fix>
</trkpt>
<trkpt lat="40.0728424" lon="-105.2305753">
  <ele>1587.97</ele>
  <time>2026-08-27T18:31:32Z</time>
  <course>129.06</course>
  <speed>0.0</speed>
  <fix>3d</fix>
</trkpt>
<trkpt lat="40.0728422" lon="-105.2305752">
  <ele>1587.86</ele>
  <time>2026-08-27T18:31:32Z</time>
  <course>11.35</course>
  <speed>0.0282842712474619</speed>
  <fix>3d</fix>
</trkpt>
<trkpt lat="40.0728424" lon="-105.2305753">
  <ele>1587.87</ele>
  <time>2026-08-27T18:31:32Z</time>
  <course>145.84</course>
  <speed>0.0</speed>
  <fix>3d</fix>
</trkpt>
<trkpt lat="40.0728422" lon="-105.2305752">
  <ele>1587.76</ele>
  <time>2026-08-27T18:31:32Z</time>
  <course>11.35</course>
  <speed>0.022360679774997897</speed>
  <fix>3d</fix>
</trkpt>
<trkpt lat="40.0728424" lon="-105.2305753">
  <ele>1587.77</ele>
  <time>2026-08-27T18:31:32Z</time>
  <course>160.13</course>
  <speed>0.0</speed>
  <fix>3d</fix>
</trkpt>
<trkpt lat="40.0728422" lon="-105.2305752">
  <ele>1587.66</ele>
  <time>2026-08-27T18:31:32Z</time>
  <course>11.33</course>
  <speed>0.022360679774997897</speed>
  <fix>3d</fix>
</trkpt>
<trkpt lat="40.0728424" lon="-105.2305753">
  <ele>1587.66</ele>
  <time>2026-08-27T18:31:32Z</time>
  <course>173.76</course>
  <speed>0.0</speed>
  <fix>3d</fix>
</trkpt>
<trkpt lat="40.0728422" lon="-105.2305752">
  <ele>1587.56</ele>
  <time>2026-08-27T18:31:32Z</time>
  <course>11.34</course>
  <speed>0.022360679774997897</speed>
  <fix>3d</fix>
</trkpt>
<trkpt lat="40.0728424" lon="-105.2305753">
  <ele>1587.57</ele>
  <time>2026-08-27T18:31:32Z</time>
  <course>185.41</course>
  <speed>0.0</speed>
  <fix>3d</fix>
</trkpt>
<trkpt lat="40.0728422" lon="-105.2305752">
  <ele>1587.45</ele>
  <time>2026-08-27T18:31:32Z</time>
  <course>11.32</course>
  <speed>0.022360679774997897</speed>
  <fix>3d</fix>
</trkpt>
<trkpt lat="40.0728424" lon="-105.2305753">
  <ele>1587.47</ele>
  <time>2026-08-27T18:31:32Z</time>
  <course>192.98</course>
  <speed>0.0</speed>
  <fix>3d</fix>
</trkpt>
<trkpt lat="40.0728422" lon="-105.2305752">
  <ele>1587.35</ele>
  <time>2026-08-27T18:31:32Z</time>
  <course>11.33</course>
  <speed>0.022360679774997897</speed>
  <fix>3d</fix>
</trkpt>
<trkpt lat="40.0728424" lon="-105.2305753">
  <ele>1587.37</ele>
  <time>2026-08-27T18:31:32Z</time>
  <course>197.49</course>
  <speed>0.01</speed>
  <fix>3d</fix>
</trkpt>
<trkpt lat="40.0728422" lon="-105.2305752">
  <ele>1587.26</ele>
  <time>2026-08-27T18:31:32Z</time>
  <course>11.36</course>
  <speed>0.022360679774997897</speed>
  <fix>3d</fix>
</trkpt>
<trkpt lat="40.0728424" lon="-105.2305753">
  <ele>1587.27</ele>
  <time>2026-08-27T18:31:32Z</time>
  <course>202.04</course>
  <speed>0.01</speed>
  <fix>3d</fix>
</trkpt>
<trkpt lat="40.0728422" lon="-105.2305752">
  <ele>1587.16</ele>
  <time>2026-08-27T18:31:32Z</time>
  <course>11.31</course>
  <speed>0.022360679774997897</speed>
  <fix>3d</fix>
</trkpt>
<trkpt lat="40.0728424" lon="-105.2305753">
  <ele>1587.16</ele>
  <time>2026-08-27T18:31:32Z</time>
  <course>204.34</course>
  <speed>0.01</speed>
  <fix>3d</fix>
</trkpt>
<trkpt lat="40.0728422" lon="-105.2305752">
  <ele>1587.06</ele>
  <time>2026-08-27T18:31:32Z</time>
  <course>11.33</course>
  <speed>0.022360679774997897</speed>
  <fix>3d</fix>
</trkpt>
<trkpt lat="40.0728423" lon="-105.2305753">
  <ele>1587.07</ele>
  <time>2026-08-27T18:31:32Z</time>
  <course>206.26</course>
  <speed>0.01</speed>
  <fix>3d</fix>
</trkpt>
<trkpt lat="40.0728422" lon="-105.2305752">
  <ele>1586.96</ele>
  <time>2026-08-27T18:31:32Z</time>
  <course>11.34</course>
  <speed>0.022360679774997897</speed>
  <fix>3d</fix>
</trkpt>
<trkpt lat="40.0728423" lon="-105.2305753">
  <ele>1586.97</ele>
  <time>2026-08-27T18:31:32Z</time>
  <course>209.24</course>
  <speed>0.01</speed>
  <fix>3d</fix>
</trkpt>
<trkpt lat="40.0728422" lon="-105.2305752">
  <ele>1586.86</ele>
  <time>2026-08-27T18:31:32Z</time>
  <course>11.34</course>
  <speed>0.022360679774997897</speed>
  <fix>3d</fix>
</trkpt>
<trkpt lat="40.0728423" lon="-105.2305753">
  <ele>1586.87</ele>
  <time>2026-08-27T18:31:32Z</time>
  <course>211.2</course>
  <speed>0.01</speed>
  <fix>3d</fix>
</trkpt>
<trkpt lat="40.0728422" lon="-105.2305752">
  <ele>1586.76</ele>
  <time>2026-08-27T18:31:32Z</time>
  <course>11.37</course>
  <speed>0.022360679774997897</speed>
  <fix>3d</fix>
</trkpt>
<trkpt lat="40.0728423" lon="-105.2305753">
  <ele>1586.77</ele>
  <time>2026-08-27T18:31:32Z</time>
  <course>212.92</course>
  <speed>0.01</speed>
  <fix>3d</fix>
</trkpt>
<trkpt lat="40.0728422" lon="-105.2305752">
  <ele>1586.66</ele>
  <time>2026-08-27T18:31:32Z</time>
  <course>11.33</course>
  <speed>0.022360679774997897</speed>
  <fix>3d</fix>
</trkpt>
<trkpt lat="40.0728423" lon="-105.2305753">
  <ele>1586.67</ele>
  <time>2026-08-27T18:31:32Z</time>
  <course>214.67</course>
  <speed>0.01</speed>
  <fix>3d</fix>
</trkpt>
<trkpt lat="40.0728422" lon="-105.2305752">
  <ele>1586.56</ele>
  <time>2026-08-27T18:31:32Z</time>
  <course>11.36</course>
  <speed>0.022360679774997897</speed>
  <fix>3d</fix>
</trkpt>
<trkpt lat="40.0728423" lon="-105.2305753">
  <ele>1586.58</ele>
  <time>2026-08-27T18:31:32Z</time>
  <course>218.86</course>
  <speed>0.0</speed>
  <fix>3d</fix>
</trkpt>
<trkpt lat="40.0728422" lon="-105.2305752">
  <ele>1586.46</ele>
  <time>2026-08-27T18:31:32Z</time>
  <course>11.34</course>
  <speed>0.01414213562373095</speed>
  <fix>3d</fix>
</trkpt>
<trkpt lat="40.0728423" lon="-105.2305753">
  <ele>1586.48</ele>
  <time>2026-08-27T18:31:32Z</time>
  <course>224.45</course>
  <speed>0.0</speed>
  <fix>3d</fix>
</trkpt>
<trkpt lat="40.0728422" lon="-105.2305752">
  <ele>1586.36</ele>
  <time>2026-08-27T18:31:32Z</time>
  <course>11.35</course>
  <speed>0.01414213562373095</speed>
  <fix>3d</fix>
</trkpt>
<trkpt lat="40.0728422" lon="-105.2305753">
  <ele>1586.38</ele>
  <time>2026-08-27T18:31:32Z</time>
  <course>230.2</course>
  <speed>0.0</speed>
  <fix>3d</fix>
</trkpt>
<trkpt lat="40.0728422" lon="-105.2305752">
  <ele>1586.26</ele>
  <time>2026-08-27T18:31:32Z</time>
  <course>11.37</course>
  <speed>0.01414213562373095</speed>
  <fix>3d</fix>
</trkpt>
<trkpt lat="40.0728421" lon="-105.2305754">
  <ele>1586.28</ele>
  <time>2026-08-27T18:31:32Z</time>
  <course>236.76</course>
  <speed>0.0</speed>
  <fix>3d</fix>
</trkpt>
<trkpt lat="40.0728421" lon="-105.2305752">
  <ele>1586.17</ele>
  <time>2026-08-27T18:31:32Z</time>
  <course>11.34</course>
  <speed>0.01</speed>
  <fix>3d</fix>
</trkpt>
<trkpt lat="40.0728421" lon="-105.2305755">
  <ele>1586.17</ele>
  <time>2026-08-27T18:31:32Z</time>
  <course>241.41</course>
  <speed>0.0</speed>
  <fix>3d</fix>
</trkpt>
<trkpt lat="40.0728421" lon="-105.2305752">
  <ele>1586.16</ele>
  <time>2026-08-27T18:31:32Z</time>
  <course>11.36</course>
  <speed>0.01414213562373095</speed>
  <fix>3d</fix>
</trkpt>
<trkpt lat="40.0728421" lon="-105.2305755">
  <ele>1586.1</ele>
  <time>2026-08-27T18:31:32Z</time>
  <course>272.4</course>
  <speed>0.01</speed>
  <fix>3d</fix>
</trkpt>
<trkpt lat="40.0728421" lon="-105.2305752">
  <ele>1586.18</ele>
  <time>2026-08-27T18:31:32Z</time>
  <course>11.42</course>
  <speed>0.022360679774997897</speed>
  <fix>3d</fix>
</trkpt>
<trkpt lat="40.0728421" lon="-105.2305755">
  <ele>1586.08</ele>
  <time>2026-08-27T18:31:32Z</time>
  <course>290.27</course>
  <speed>0.01</speed>
  <fix>3d</fix>
</trkpt>
<trkpt lat="40.0728421" lon="-105.2305752">
  <ele>1586.17</ele>
  <time>2026-08-27T18:31:32Z</time>
  <course>11.46</course>
  <speed>0.022360679774997897</speed>
  <fix>3d</fix>
</trkpt>
<trkpt lat="40.0728421" lon="-105.2305755">
  <ele>1586.09</ele>
  <time>2026-08-27T18:31:32Z</time>
  <course>60.5</course>
  <speed>0.0</speed>
  <fix>3d</fix>
</trkpt>
<trkpt lat="40.0728421" lon="-105.2305752">
  <ele>1586.17</ele>
  <time>2026-08-27T18:31:32Z</time>
  <course>11.48</course>
  <speed>0.01414213562373095</speed>
  <fix>3d</fix>
</trkpt>
<trkpt lat="40.0728421" lon="-105.2305755">
  <ele>1586.09</ele>
  <time>2026-08-27T18:31:32Z</time>
  <course>101.37</course>
  <speed>0.0</speed>
  <fix>3d</fix>
</trkpt>
<trkpt lat="40.0728421" lon="-105.2305752">
  <ele>1586.17</ele>
  <time>2026-08-27T18:31:32Z</time>
  <course>11.51</course>
  <speed>0.01414213562373095</speed>
  <fix>3d</fix>
</trkpt>
<trkpt lat="40.0728421" lon="-105.2305755">
  <ele>1586.09</ele>
  <time>2026-08-27T18:31:32Z</time>
  <course>315.41</course>
  <speed>0.0</speed>
  <fix>3d</fix>
</trkpt>
<trkpt lat="40.0728421" lon="-105.2305753">
  <ele>1586.17</ele>
  <time>2026-08-27T18:31:32Z</time>
  <course>11.53</course>
  <speed>0.01414213562373095</speed>
  <fix>3d</fix>
</trkpt>
<trkpt lat="40.0728421" lon="-105.2305755">
  <ele>1586.09</ele>
  <time>2026-08-27T18:31:32Z</time>
  <course>327.69</course>
  <speed>0.0</speed>
  <fix>3d</fix>
</trkpt>
<trkpt lat="40.0728421" lon="-105.2305753">
  <ele>1586.17</ele>
  <time>2026-08-27T18:31:32Z</time>
  <course>11.55</course>
  <speed>0.01414213562373095</speed>
  <fix>3d</fix>
</trkpt>
<trkpt lat="40.0728421" lon="-105.2305755">
  <ele>1586.09</ele>
  <time>2026-08-27T18:31:32Z</time>
  <course>330.4</course>
  <speed>0.0</speed>
  <fix>3d</fix>
</trkpt>
<trkpt lat="40.0728421" lon="-105.2305753">
  <ele>1586.17</ele>
  <time>2026-08-27T18:31:32Z</time>
  <course>11.58</course>
  <speed>0.022360679774997897</speed>
  <fix>3d</fix>
</trkpt>
<trkpt lat="40.0728421" lon="-105.2305755">
  <ele>1586.09</ele>
  <time>2026-08-27T18:31:32Z</time>
  <course>26.72</course>
  <speed>0.0</speed>
  <fix>3d</fix>
</trkpt>
<trkpt lat="40.0728421" lon="-105.2305753">
  <ele>1586.17</ele>
  <time>2026-08-27T18:31:32Z</time>
  <course>11.58</course>
  <speed>0.03605551275463989</speed>
  <fix>3d</fix>
</trkpt>
<trkpt lat="40.0728421" lon="-105.2305755">
  <ele>1586.09</ele>
  <time>2026-08-27T18:31:32Z</time>
  <course>98.15</course>
  <speed>0.0</speed>
  <fix>3d</fix>
</trkpt>
<trkpt lat="40.072842" lon="-105.2305753">
  <ele>1586.17</ele>
  <time>2026-08-27T18:31:32Z</time>
  <course>11.56</course>
  <speed>0.0282842712474619</speed>
  <fix>3d</fix>
</trkpt>
<trkpt lat="40.0728421" lon="-105.2305755">
  <ele>1586.09</ele>
  <time>2026-08-27T18:31:32Z</time>
  <course>103.0</course>
  <speed>0.01</speed>
  <fix>3d</fix>
</trkpt>
<trkpt lat="40.072842" lon="-105.2305753">
  <ele>1586.18</ele>
  <time>2026-08-27T18:31:32Z</time>
  <course>11.54</course>
  <speed>0.01414213562373095</speed>
  <fix>3d</fix>
</trkpt>
<trkpt lat="40.0728421" lon="-105.2305755">
  <ele>1586.09</ele>
  <time>2026-08-27T18:31:32Z</time>
  <course>109.44</course>
  <speed>0.0</speed>
  <fix>3d</fix>
</trkpt>
<trkpt lat="40.072842" lon="-105.2305753">
  <ele>1586.18</ele>
  <time>2026-08-27T18:31:32Z</time>
  <course>11.53</course>
  <speed>0.01414213562373095</speed>
  <fix>3d</fix>
</trkpt>
<trkpt lat="40.0728421" lon="-105.2305755">
  <ele>1586.09</ele>
  <time>2026-08-27T18:31:32Z</time>
  <course>242.38</course>
  <speed>0.0</speed>
  <fix>3d</fix>
</trkpt>
<trkpt lat="40.072842" lon="-105.2305753">
  <ele>1586.18</ele>
  <time>2026-08-27T18:31:32Z</time>
  <course>11.53</course>
  <speed>0.01414213562373095</speed>
  <fix>3d</fix>
</trkpt>
<trkpt lat="40.0728421" lon="-105.2305755">
  <ele>1586.09</ele>
  <time>2026-08-27T18:31:32Z</time>
  <course>255.88</course>
  <speed>0.0</speed>
  <fix>3d</fix>
</trkpt>
<trkpt lat="40.072842" lon="-105.2305753">
  <ele>1586.18</ele>
  <time>2026-08-27T18:31:32Z</time>
  <course>11.52</course>
  <speed>0.01414213562373095</speed>
  <fix>3d</fix>
</trkpt>
<trkpt lat="40.0728421" lon="-105.2305755">
  <ele>1586.09</ele>
  <time>2026-08-27T18:31:32Z</time>
  <course>235.37</course>
  <speed>0.0</speed>
  <fix>3d</fix>
</trkpt>
<trkpt lat="40.072842" lon="-105.2305753">
  <ele>1586.18</ele>
  <time>2026-08-27T18:31:32Z</time>
  <course>11.52</course>
  <speed>0.01414213562373095</speed>
  <fix>3d</fix>
</trkpt>
<trkpt lat="40.0728421" lon="-105.2305755">
  <ele>1586.09</ele>
  <time>2026-08-27T18:31:32Z</time>
  <course>226.93</course>
  <speed>0.0</speed>
  <fix>3d</fix>
</trkpt>
<trkpt lat="40.072842" lon="-105.2305753">
  <ele>1586.18</ele>
  <time>2026-08-27T18:31:32Z</time>
  <course>11.52</course>
  <speed>0.01414213562373095</speed>
  <fix>3d</fix>
</trkpt>
<trkpt lat="40.0728421" lon="-105.2305755">
  <ele>1586.09</ele>
  <time>2026-08-27T18:31:32Z</time>
  <course>235.33</course>
  <speed>0.0</speed>
  <fix>3d</fix>
</trkpt>
<trkpt lat="40.072842" lon="-105.2305753">
  <ele>1586.18</ele>
  <time>2026-08-27T18:31:32Z</time>
  <course>11.51</course>
  <speed>0.01414213562373095</speed>
  <fix>3d</fix>
</trkpt>
<trkpt lat="40.0728421" lon="-105.2305755">
  <ele>1586.09</ele>
  <time>2026-08-27T18:31:32Z</time>
  <course>235.67</course>
  <speed>0.0</speed>
  <fix>3d</fix>
</trkpt>
<trkpt lat="40.072842" lon="-105.2305753">
  <ele>1586.18</ele>
  <time>2026-08-27T18:31:32Z</time>
  <course>11.51</course>
  <speed>0.01414213562373095</speed>
  <fix>3d</fix>
</trkpt>
<trkpt lat="40.0728421" lon="-105.2305755">
  <ele>1586.09</ele>
  <time>2026-08-27T18:31:32Z</time>
  <course>122.64</course>
  <speed>0.0</speed>
  <fix>3d</fix>
</trkpt>
<trkpt lat="40.072842" lon="-105.2305753">
  <ele>1586.18</ele>
  <time>2026-08-27T18:31:32Z</time>
  <course>11.51</course>
  <speed>0.01414213562373095</speed>
  <fix>3d</fix>
</trkpt>
<trkpt lat="40.0728421" lon="-105.2305755">
  <ele>1586.09</ele>
  <time>2026-08-27T18:31:32Z</time>
  <course>309.25</course>
  <speed>0.0</speed>
  <fix>3d</fix>
</trkpt>
<trkpt lat="40.072842" lon="-105.2305753">
  <ele>1586.18</ele>
  <time>2026-08-27T18:31:32Z</time>
  <course>11.51</course>
  <speed>0.01414213562373095</speed>
  <fix>3d</fix>
</trkpt>
<trkpt lat="40.0728421" lon="-105.2305755">
  <ele>1586.09</ele>
  <time>2026-08-27T18:31:32Z</time>
  <course>283.3</course>
  <speed>0.0</speed>
  <fix>3d</fix>
</trkpt>
<trkpt lat="40.072842" lon="-105.2305753">
  <ele>1586.18</ele>
  <time>2026-08-27T18:31:32Z</time>
  <course>11.5</course>
  <speed>0.01414213562373095</speed>
  <fix>3d</fix>
</trkpt>
<trkpt lat="40.0728421" lon="-105.2305755">
  <ele>1586.09</ele>
  <time>2026-08-27T18:31:32Z</time>
  <course>280.4</course>
  <speed>0.0</speed>
  <fix>3d</fix>
</trkpt>
<trkpt lat="40.072842" lon="-105.2305753">
  <ele>1586.18</ele>
  <time>2026-08-27T18:31:32Z</time>
  <course>11.5</course>
  <speed>0.01414213562373095</speed>
  <fix>3d</fix>
</trkpt>
<trkpt lat="40.0728421" lon="-105.2305755">
  <ele>1586.09</ele>
  <time>2026-08-27T18:31:32Z</time>
  <course>281.2</course>
  <speed>0.0</speed>
  <fix>3d</fix>
</trkpt>
<trkpt lat="40.072842" lon="-105.2305753">
  <ele>1586.18</ele>
  <time>2026-08-27T18:31:32Z</time>
  <course>11.5</course>
  <speed>0.01414213562373095</speed>
  <fix>3d</fix>
</trkpt>
<trkpt lat="40.0728421" lon="-105.2305755">
  <ele>1586.09</ele>
  <time>2026-08-27T18:31:32Z</time>
  <course>284.01</course>
  <speed>0.0</speed>
  <fix>3d</fix>
</trkpt>
<trkpt lat="40.072842" lon="-105.2305753">
  <ele>1586.18</ele>
  <time>2026-08-27T18:31:32Z</time>
  <course>11.5</course>
  <speed>0.01414213562373095</speed>
  <fix>3d</fix>
</trkpt>
<trkpt lat="40.0728421" lon="-105.2305755">
  <ele>1586.09</ele>
  <time>2026-08-27T18:31:32Z</time>
  <course>80.01</course>
  <speed>0.0</speed>
  <fix>3d</fix>
</trkpt>
<trkpt lat="40.072842" lon="-105.2305753">
  <ele>1586.17</ele>
  <time>2026-08-27T18:31:32Z</time>
  <course>11.49</course>
  <speed>0.01414213562373095</speed>
  <fix>3d</fix>
</trkpt>
<trkpt lat="40.0728421" lon="-105.2305755">
  <ele>1586.09</ele>
  <time>2026-08-27T18:31:32Z</time>
  <course>299.61</course>
  <speed>0.0</speed>
  <fix>3d</fix>
</trkpt>
<trkpt lat="40.072842" lon="-105.2305753">
  <ele>1586.17</ele>
  <time>2026-08-27T18:31:32Z</time>
  <course>11.49</course>
  <speed>0.01414213562373095</speed>
  <fix>3d</fix>
</trkpt>
<trkpt lat="40.0728421" lon="-105.2305755">
  <ele>1586.09</ele>
  <time>2026-08-27T18:31:32Z</time>
  <course>292.66</course>
  <speed>0.0</speed>
  <fix>3d</fix>
</trkpt>
<trkpt lat="40.072842" lon="-105.2305753">
  <ele>1586.17</ele>
  <time>2026-08-27T18:31:32Z</time>
  <course>11.49</course>
  <speed>0.01414213562373095</speed>
  <fix>3d</fix>
</trkpt>
<trkpt lat="40.0728421" lon="-105.2305755">
  <ele>1586.09</ele>
  <time>2026-08-27T18:31:32Z</time>
  <course>295.94</course>
  <speed>0.0</speed>
  <fix>3d</fix>
</trkpt>
<trkpt lat="40.072842" lon="-105.2305753">
  <ele>1586.17</ele>
  <time>2026-08-27T18:31:32Z</time>
  <course>11.49</course>
  <speed>0.01414213562373095</speed>
  <fix>3d</fix>
</trkpt>
<trkpt lat="40.0728421" lon="-105.2305755">
  <ele>1586.09</ele>
  <time>2026-08-27T18:31:32Z</time>
  <course>296.42</course>
  <speed>0.0</speed>
  <fix>3d</fix>
</trkpt>
<trkpt lat="40.072842" lon="-105.2305753">
  <ele>1586.17</ele>
  <time>2026-08-27T18:31:32Z</time>
  <course>11.49</course>
  <speed>0.01414213562373095</speed>
  <fix>3d</fix>
</trkpt>
<trkpt lat="40.0728421" lon="-105.2305755">
  <ele>1586.09</ele>
  <time>2026-08-27T18:31:32Z</time>
  <course>295.8</course>
  <speed>0.0</speed>
  <fix>3d</fix>
</trkpt>
<trkpt lat="40.072842" lon="-105.2305753">
  <ele>1586.17</ele>
  <time>2026-08-27T18:31:32Z</time>
  <course>11.48</course>
  <speed>0.01414213562373095</speed>
  <fix>3d</fix>
</trkpt>
<trkpt lat="40.0728421" lon="-105.2305755">
  <ele>1586.09</ele>
  <time>2026-08-27T18:31:32Z</time>
  <course>295.81</course>
  <speed>0.0</speed>
  <fix>3d</fix>
</trkpt>
<trkpt lat="40.072842" lon="-105.2305753">
  <ele>1586.17</ele>
  <time>2026-08-27T18:31:32Z</time>
  <course>11.48</course>
  <speed>0.01414213562373095</speed>
  <fix>3d</fix>
</trkpt>
<trkpt lat="40.0728421" lon="-105.2305755">
  <ele>1586.09</ele>
  <time>2026-08-27T18:31:32Z</time>
  <course>295.89</course>
  <speed>0.0</speed>
  <fix>3d</fix>
</trkpt>
<trkpt lat="40.072842" lon="-105.2305753">
  <ele>1586.16</ele>
  <time>2026-08-27T18:31:32Z</time>
  <course>11.48</course>
  <speed>0.01414213562373095</speed>
  <fix>3d</fix>
</trkpt>
<trkpt lat="40.0728421" lon="-105.2305755">
  <ele>1586.09</ele>
  <time>2026-08-27T18:31:32Z</time>
  <course>295.88</course>
  <speed>0.0</speed>
  <fix>3d</fix>
</trkpt>
<trkpt lat="40.072842" lon="-105.2305753">
  <ele>1586.16</ele>
  <time>2026-08-27T18:31:32Z</time>
  <course>11.48</course>
  <speed>0.01414213562373095</speed>
  <fix>3d</fix>
</trkpt>
<trkpt lat="40.0728421" lon="-105.2305755">
  <ele>1586.09</ele>
  <time>2026-08-27T18:31:32Z</time>
  <course>295.87</course>
  <speed>0.0</speed>
  <fix>3d</fix>
</trkpt>
<trkpt lat="40.072842" lon="-105.2305753">
  <ele>1586.16</ele>
  <time>2026-08-27T18:31:32Z</time>
  <course>11.47</course>
  <speed>0.01414213562373095</speed>
  <fix>3d</fix>
</trkpt>
<trkpt lat="40.0728421" lon="-105.2305755">
  <ele>1586.09</ele>
  <time>2026-08-27T18:31:32Z</time>
  <course>295.87</course>
  <speed>0.0</speed>
  <fix>3d</fix>
</trkpt>
<trkpt lat="40.072842" lon="-105.2305753">
  <ele>1586.17</ele>
  <time>2026-08-27T18:31:32Z</time>
  <course>11.47</course>
  <speed>0.01414213562373095</speed>
  <fix>3d</fix>
</trkpt>
<trkpt lat="40.0728421" lon="-105.2305755">
  <ele>1586.09</ele>
  <time>2026-08-27T18:31:32Z</time>
  <course>295.88</course>
  <speed>0.0</speed>
  <fix>3d</fix>
</trkpt>
<trkpt lat="40.072842" lon="-105.2305753">
  <ele>1586.17</ele>
  <time>2026-08-27T18:31:32Z</time>
  <course>11.47</course>
  <speed>0.01414213562373095</speed>
  <fix>3d</fix>
</trkpt>
<trkpt lat="40.0728421" lon="-105.2305755">
  <ele>1586.09</ele>
  <time>2026-08-27T18:31:32Z</time>
  <course>295.88</course>
  <speed>0.0</speed>
  <fix>3d</fix>
</trkpt>
<trkpt lat="40.072842" lon="-105.2305753">
  <ele>1586.17</ele>
  <time>2026-08-27T18:31:32Z</time>
  <course>11.47</course>
  <speed>0.01414213562373095</speed>
  <fix>3d</fix>
</trkpt>
<trkpt lat="40.0728421" lon="-105.2305755">
  <ele>1586.09</ele>
  <time>2026-08-27T18:31:32Z</time>
  <course>295.88</course>
  <speed>0.0</speed>
  <fix>3d</fix>
</trkpt>
<trkpt lat="40.072842" lon="-105.2305753">
  <ele>1586.18</ele>
  <time>2026-08-27T18:31:32Z</time>
  <course>11.47</course>
  <speed>0.01414213562373095</speed>
  <fix>3d</fix>
</trkpt>
<trkpt lat="40.0728421" lon="-105.2305755">
  <ele>1586.09</ele>
  <time>2026-08-27T18:31:32Z</time>
  <course>295.88</course>
  <speed>0.0</speed>
  <fix>3d</fix>
</trkpt>
<trkpt lat="40.072842" lon="-105.2305753">
  <ele>1586.18</ele>
  <time>2026-08-27T18:31:32Z</time>
  <course>11.46</course>
  <speed>0.01414213562373095</speed>
  <fix>3d</fix>
</trkpt>
<trkpt lat="40.0728421" lon="-105.2305755">
  <ele>1586.09</ele>
  <time>2026-08-27T18:31:32Z</time>
  <course>295.88</course>
  <speed>0.0</speed>
  <fix>3d</fix>
</trkpt>
<trkpt lat="40.072842" lon="-105.2305753">
  <ele>1586.18</ele>
  <time>2026-08-27T18:31:32Z</time>
  <course>11.46</course>
  <speed>0.01414213562373095</speed>
  <fix>3d</fix>
</trkpt>
<trkpt lat="40.0728421" lon="-105.2305755">
  <ele>1586.09</ele>
  <time>2026-08-27T18:31:32Z</time>
  <course>295.88</course>
  <speed>0.0</speed>
  <fix>3d</fix>
</trkpt>
<trkpt lat="40.072842" lon="-105.2305753">
  <ele>1586.18</ele>
  <time>2026-08-27T18:31:32Z</time>
  <course>11.46</course>
  <speed>0.01414213562373095</speed>
  <fix>3d</fix>
</trkpt>
<trkpt lat="40.0728421" lon="-105.2305755">
  <ele>1586.09</ele>
  <time>2026-08-27T18:31:32Z</time>
  <course>295.88</course>
  <speed>0.0</speed>
  <fix>3d</fix>
</trkpt>
<trkpt lat="40.072842" lon="-105.2305753">
  <ele>1586.18</ele>
  <time>2026-08-27T18:31:32Z</time>
  <course>11.46</course>
  <speed>0.01414213562373095</speed>
  <fix>3d</fix>
</trkpt>
<trkpt lat="40.0728421" lon="-105.2305755">
  <ele>1586.09</ele>
  <time>2026-08-27T18:31:32Z</time>
  <course>295.88</course>
  <speed>0.0</speed>
  <fix>3d</fix>
</trkpt>
<trkpt lat="40.072842" lon="-105.2305753">
  <ele>1586.18</ele>
  <time>2026-08-27T18:31:32Z</time>
  <course>11.45</course>
  <speed>0.01414213562373095</speed>
  <fix>3d</fix>
</trkpt>
<trkpt lat="40.0728421" lon="-105.2305755">
  <ele>1586.09</ele>
  <time>2026-08-27T18:31:32Z</time>
  <course>295.88</course>
  <speed>0.0</speed>
  <fix>3d</fix>
</trkpt>
<trkpt lat="40.072842" lon="-105.2305753">
  <ele>1586.18</ele>
  <time>2026-08-27T18:31:32Z</time>
  <course>11.45</course>
  <speed>0.01414213562373095</speed>
  <fix>3d</fix>
</trkpt>
<trkpt lat="40.0728421" lon="-105.2305755">
  <ele>1586.09</ele>
  <time>2026-08-27T18:31:32Z</time>
  <course>295.88</course>
  <speed>0.0</speed>
  <fix>3d</fix>
</trkpt>
<trkpt lat="40.072842" lon="-105.2305753">
  <ele>1586.18</ele>
  <time>2026-08-27T18:31:32Z</time>
  <course>11.45</course>
  <speed>0.01414213562373095</speed>
  <fix>3d</fix>
</trkpt>
<trkpt lat="40.0728421" lon="-105.2305755">
  <ele>1586.09</ele>
  <time>2026-08-27T18:31:32Z</time>
  <course>295.88</course>
  <speed>0.0</speed>
  <fix>3d</fix>
</trkpt>
<trkpt lat="40.072842" lon="-105.2305753">
  <ele>1586.18</ele>
  <time>2026-08-27T18:31:32Z</time>
  <course>11.45</course>
  <speed>0.01414213562373095</speed>
  <fix>3d</fix>
</trkpt>
<trkpt lat="40.0728421" lon="-105.2305755">
  <ele>1586.09</ele>
  <time>2026-08-27T18:31:32Z</time>
  <course>295.88</course>
  <speed>0.0</speed>
  <fix>3d</fix>
</trkpt>
<trkpt lat="40.072842" lon="-105.2305753">
  <ele>1586.18</ele>
  <time>2026-08-27T18:31:32Z</time>
  <course>11.44</course>
  <speed>0.01414213562373095</speed>
  <fix>3d</fix>
</trkpt>
<trkpt lat="40.0728421" lon="-105.2305755">
  <ele>1586.09</ele>
  <time>2026-08-27T18:31:32Z</time>
  <course>295.88</course>
  <speed>0.0</speed>
  <fix>3d</fix>
</trkpt>
<trkpt lat="40.072842" lon="-105.2305753">
  <ele>1586.18</ele>
  <time>2026-08-27T18:31:32Z</time>
  <course>11.44</course>
  <speed>0.01414213562373095</speed>
  <fix>3d</fix>
</trkpt>
<trkpt lat="40.0728421" lon="-105.2305755">
  <ele>1586.09</ele>
  <time>2026-08-27T18:31:32Z</time>
  <course>295.88</course>
  <speed>0.0</speed>
  <fix>3d</fix>
</trkpt>
<trkpt lat="40.072842" lon="-105.2305753">
  <ele>1586.18</ele>
  <time>2026-08-27T18:31:32Z</time>
  <course>11.44</course>
  <speed>0.01414213562373095</speed>
  <fix>3d</fix>
</trkpt>
<trkpt lat="40.0728421" lon="-105.2305755">
  <ele>1586.09</ele>
  <time>2026-08-27T18:31:32Z</time>
  <course>295.88</course>
  <speed>0.0</speed>
  <fix>3d</fix>
</trkpt>
<trkpt lat="40.072842" lon="-105.2305753">
  <ele>1586.18</ele>
  <time>2026-08-27T18:31:32Z</time>
  <course>11.44</course>
  <speed>0.01414213562373095</speed>
  <fix>3d</fix>
</trkpt>
<trkpt lat="40.0728421" lon="-105.2305755">
  <ele>1586.09</ele>
  <time>2026-08-27T18:31:32Z</time>
  <course>295.88</course>
  <speed>0.0</speed>
  <fix>3d</fix>
</trkpt>
<trkpt lat="40.072842" lon="-105.2305753">
  <ele>1586.18</ele>
  <time>2026-08-27T18:31:32Z</time>
  <course>11.44</course>
  <speed>0.01414213562373095</speed>
  <fix>3d</fix>
</trkpt>
<trkpt lat="40.0728421" lon="-105.2305755">
  <ele>1586.09</ele>
  <time>2026-08-27T18:31:32Z</time>
  <course>295.88</course>
  <speed>0.0</speed>
  <fix>3d</fix>
</trkpt>
<trkpt lat="40.072842" lon="-105.2305753">
  <ele>1586.18</ele>
  <time>2026-08-27T18:31:32Z</time>
  <course>11.43</course>
  <speed>0.01414213562373095</speed>
  <fix>3d</fix>
</trkpt>
<trkpt lat="40.0728421" lon="-105.2305755">
  <ele>1586.09</ele>
  <time>2026-08-27T18:31:32Z</time>
  <course>295.88</course>
  <speed>0.0</speed>
  <fix>3d</fix>
</trkpt>
<trkpt lat="40.072842" lon="-105.2305753">
  <ele>1586.17</ele>
  <time>2026-08-27T18:31:32Z</time>
  <course>11.43</course>
  <speed>0.01414213562373095</speed>
  <fix>3d</fix>
</trkpt>
<trkpt lat="40.0728421" lon="-105.2305755">
  <ele>1586.09</ele>
  <time>2026-08-27T18:31:32Z</time>
  <course>295.88</course>
  <speed>0.0</speed>
  <fix>3d</fix>
</trkpt>
<trkpt lat="40.072842" lon="-105.2305753">
  <ele>1586.17</ele>
  <time>2026-08-27T18:31:32Z</time>
  <course>11.43</course>
  <speed>0.01414213562373095</speed>
  <fix>3d</fix>
</trkpt>
<trkpt lat="40.0728421" lon="-105.2305755">
  <ele>1586.09</ele>
  <time>2026-08-27T18:31:32Z</time>
  <course>295.88</course>
  <speed>0.0</speed>
  <fix>3d</fix>
</trkpt>
<trkpt lat="40.072842" lon="-105.2305753">
  <ele>1586.17</ele>
  <time>2026-08-27T18:31:32Z</time>
  <course>11.43</course>
  <speed>0.01414213562373095</speed>
  <fix>3d</fix>
</trkpt>
<trkpt lat="40.0728421" lon="-105.2305755">
  <ele>1586.09</ele>
  <time>2026-08-27T18:31:32Z</time>
  <course>295.88</course>
  <speed>0.0</speed>
  <fix>3d</fix>
</trkpt>
<trkpt lat="40.072842" lon="-105.2305753">
  <ele>1586.17</ele>
  <time>2026-08-27T18:31:32Z</time>
  <course>11.42</course>
  <speed>0.01414213562373095</speed>
  <fix>3d</fix>
</trkpt>
<trkpt lat="40.0728421" lon="-105.2305755">
  <ele>1586.09</ele>
  <time>2026-08-27T18:31:32Z</time>
  <course>295.88</course>
  <speed>0.0</speed>
  <fix>3d</fix>
</trkpt>
<trkpt lat="40.072842" lon="-105.2305753">
  <ele>1586.17</ele>
  <time>2026-08-27T18:31:32Z</time>
  <course>11.42</course>
  <speed>0.01414213562373095</speed>
  <fix>3d</fix>
</trkpt>
<trkpt lat="40.0728421" lon="-105.2305755">
  <ele>1586.09</ele>
  <time>2026-08-27T18:31:32Z</time>
  <course>295.88</course>
  <speed>0.0</speed>
  <fix>3d</fix>
</trkpt>
<trkpt lat="40.072842" lon="-105.2305753">
  <ele>1586.17</ele>
  <time>2026-08-27T18:31:32Z</time>
  <course>11.43</course>
  <speed>0.01414213562373095</speed>
  <fix>3d</fix>
</trkpt>
<trkpt lat="40.0728421" lon="-105.2305755">
  <ele>1586.09</ele>
  <time>2026-08-27T18:31:32Z</time>
  <course>295.88</course>
  <speed>0.0</speed>
  <fix>3d</fix>
</trkpt>
<trkpt lat="40.072842" lon="-105.2305753">
  <ele>1586.17</ele>
  <time>2026-08-27T18:31:32Z</time>
  <course>11.46</course>
  <speed>0.01414213562373095</speed>
  <fix>3d</fix>
</trkpt>
<trkpt lat="40.0728421" lon="-105.2305755">
  <ele>1586.09</ele>
  <time>2026-08-27T18:31:32Z</time>
  <course>295.88</course>
  <speed>0.0</speed>
  <fix>3d</fix>
</trkpt>
<trkpt lat="40.072842" lon="-105.2305753">
  <ele>1586.17</ele>
  <time>2026-08-27T18:31:32Z</time>
  <course>11.5</course>
  <speed>0.01414213562373095</speed>
  <fix>3d</fix>
</trkpt>
<trkpt lat="40.0728421" lon="-105.2305755">
  <ele>1586.09</ele>
  <time>2026-08-27T18:31:32Z</time>
  <course>295.88</course>
  <speed>0.0</speed>
  <fix>3d</fix>
</trkpt>
<trkpt lat="40.072842" lon="-105.2305753">
  <ele>1586.16</ele>
  <time>2026-08-27T18:31:32Z</time>
  <course>11.54</course>
  <speed>0.01414213562373095</speed>
  <fix>3d</fix>
</trkpt>
<trkpt lat="40.0728421" lon="-105.2305755">
  <ele>1586.09</ele>
  <time>2026-08-27T18:31:32Z</time>
  <course>295.88</course>
  <speed>0.0</speed>
  <fix>3d</fix>
</trkpt>
<trkpt lat="40.072842" lon="-105.2305753">
  <ele>1586.15</ele>
  <time>2026-08-27T18:31:32Z</time>
  <course>11.58</course>
  <speed>0.01414213562373095</speed>
  <fix>3d</fix>
</trkpt>
<trkpt lat="40.0728421" lon="-105.2305755">
  <ele>1586.09</ele>
  <time>2026-08-27T18:31:32Z</time>
  <course>291.97</course>
  <speed>0.0</speed>
  <fix>3d</fix>
</trkpt>
<trkpt lat="40.072842" lon="-105.2305753">
  <ele>1586.15</ele>
  <time>2026-08-27T18:31:32Z</time>
  <course>11.62</course>
  <speed>0.01414213562373095</speed>
  <fix>3d</fix>
</trkpt>
<trkpt lat="40.0728421" lon="-105.2305755">
  <ele>1586.09</ele>
  <time>2026-08-27T18:31:32Z</time>
  <course>280.23</course>
  <speed>0.0</speed>
  <fix>3d</fix>
</trkpt>
<trkpt lat="40.072842" lon="-105.2305753">
  <ele>1586.15</ele>
  <time>2026-08-27T18:31:32Z</time>
  <course>11.66</course>
  <speed>0.01414213562373095</speed>
  <fix>3d</fix>
</trkpt>
<trkpt lat="40.0728421" lon="-105.2305755">
  <ele>1586.09</ele>
  <time>2026-08-27T18:31:32Z</time>
  <course>342.07</course>
  <speed>0.0</speed>
  <fix>3d</fix>
</trkpt>
<trkpt lat="40.072842" lon="-105.2305753">
  <ele>1586.15</ele>
  <time>2026-08-27T18:31:32Z</time>
  <course>11.7</course>
  <speed>0.01414213562373095</speed>
  <fix>3d</fix>
</trkpt>
<trkpt lat="40.0728421" lon="-105.2305755">
  <ele>1586.09</ele>
  <time>2026-08-27T18:31:32Z</time>
  <course>344.91</course>
  <speed>0.0</speed>
  <fix>3d</fix>
</trkpt>
<trkpt lat="40.072842" lon="-105.2305753">
  <ele>1586.15</ele>
  <time>2026-08-27T18:31:32Z</time>
  <course>11.74</course>
  <speed>0.01414213562373095</speed>
  <fix>3d</fix>
</trkpt>
<trkpt lat="40.0728421" lon="-105.2305755">
  <ele>1586.09</ele>
  <time>2026-08-27T18:31:32Z</time>
  <course>298.15</course>
  <speed>0.0</speed>
  <fix>3d</fix>
</trkpt>
<trkpt lat="40.072842" lon="-105.2305753">
  <ele>1586.15</ele>
  <time>2026-08-27T18:31:32Z</time>
  <course>11.78</course>
  <speed>0.01414213562373095</speed>
  <fix>3d</fix>
</trkpt>
<trkpt lat="40.0728421" lon="-105.2305755">
  <ele>1586.09</ele>
  <time>2026-08-27T18:31:32Z</time>
  <course>195.12</course>
  <speed>0.0</speed>
  <fix>3d</fix>
</trkpt>
<trkpt lat="40.072842" lon="-105.2305753">
  <ele>1586.15</ele>
  <time>2026-08-27T18:31:32Z</time>
  <course>11.82</course>
  <speed>0.01414213562373095</speed>
  <fix>3d</fix>
</trkpt>
<trkpt lat="40.0728421" lon="-105.2305755">
  <ele>1586.09</ele>
  <time>2026-08-27T18:31:32Z</time>
  <course>311.85</course>
  <speed>0.0</speed>
  <fix>3d</fix>
</trkpt>
<trkpt lat="40.072842" lon="-105.2305753">
  <ele>1586.15</ele>
  <time>2026-08-27T18:31:32Z</time>
  <course>11.86</course>
  <speed>0.01414213562373095</speed>
  <fix>3d</fix>
</trkpt>
<trkpt lat="40.0728421" lon="-105.2305755">
  <ele>1586.09</ele>
  <time>2026-08-27T18:31:32Z</time>
  <course>301.06</course>
  <speed>0.0</speed>
  <fix>3d</fix>
</trkpt>
<trkpt lat="40.072842" lon="-105.2305753">
  <ele>1586.16</ele>
  <time>2026-08-27T18:31:32Z</time>
  <course>11.9</course>
  <speed>0.01414213562373095</speed>
  <fix>3d</fix>
</trkpt>
<trkpt lat="40.0728421" lon="-105.2305755">
  <ele>1586.09</ele>
  <time>2026-08-27T18:31:32Z</time>
  <course>286.8</course>
  <speed>0.0</speed>
  <fix>3d</fix>
</trkpt>
<trkpt lat="39.654938" lon="-104.1331666">
  <ele>1569.54</ele>
  <time>2026-08-27T18:31:35Z</time>
  <course>168.11</course>
  <speed>0.0</speed>
  <fix>3d</fix>
</trkpt>
<trkpt lat="40.072842" lon="-105.230575">
  <ele>1586.09</ele>
  <time>2026-08-27T18:31:35Z</time>
  <course>2.03</course>
  <speed>0.0</speed>
  <fix>3d</fix>
</trkpt>
<trkpt lat="40.072842" lon="-105.230575">
  <ele>1586.09</ele>
  <time>2026-08-27T18:31:35Z</time>
  <course>238.4</course>
  <speed>0.0</speed>
  <fix>3d</fix>
</trkpt>
<trkpt lat="40.072842" lon="-105.230575">
  <ele>1586.09</ele>
  <time>2026-08-27T18:31:35Z</time>
  <course>2.42</course>
  <speed>0.0</speed>
  <fix>3d</fix>
</trkpt>
<trkpt lat="40.072842" lon="-105.230575">
  <ele>1586.09</ele>
  <time>2026-08-27T18:31:35Z</time>
  <course>194.29</course>
  <speed>0.0</speed>
  <fix>3d</fix>
</trkpt>
<trkpt lat="40.072842" lon="-105.230575">
  <ele>1586.09</ele>
  <time>2026-08-27T18:31:35Z</time>
  <course>3.15</course>
  <speed>0.0</speed>
  <fix>3d</fix>
</trkpt>
<trkpt lat="40.072842" lon="-105.230575">
  <ele>1586.09</ele>
  <time>2026-08-27T18:31:35Z</time>
  <course>193.66</course>
  <speed>0.0</speed>
  <fix>3d</fix>
</trkpt>
<trkpt lat="40.072842" lon="-105.230575">
  <ele>1586.09</ele>
  <time>2026-08-27T18:31:35Z</time>
  <course>3.84</course>
  <speed>0.0</speed>
  <fix>3d</fix>
</trkpt>
<trkpt lat="40.072842" lon="-105.230575">
  <ele>1586.09</ele>
  <time>2026-08-27T18:31:35Z</time>
  <course>303.54</course>
  <speed>0.0</speed>
  <fix>3d</fix>
</trkpt>
<trkpt lat="40.072842" lon="-105.230575">
  <ele>1586.09</ele>
  <time>2026-08-27T18:31:35Z</time>
  <course>4.47</course>
  <speed>0.0</speed>
  <fix>3d</fix>
</trkpt>
<trkpt lat="40.072842" lon="-105.230575">
  <ele>1586.09</ele>
  <time>2026-08-27T18:31:35Z</time>
  <course>110.94</course>
  <speed>0.0</speed>
  <fix>3d</fix>
</trkpt>
<trkpt lat="40.072842" lon="-105.230575">
  <ele>1586.09</ele>
  <time>2026-08-27T18:31:35Z</time>
  <course>5.05</course>
  <speed>0.0</speed>
  <fix>3d</fix>
</trkpt>
<trkpt lat="40.072842" lon="-105.230575">
  <ele>1586.09</ele>
  <time>2026-08-27T18:31:35Z</time>
  <course>191.21</course>
  <speed>0.0</speed>
  <fix>3d</fix>
</trkpt>
<trkpt lat="40.072842" lon="-105.230575">
  <ele>1586.09</ele>
  <time>2026-08-27T18:31:35Z</time>
  <course>5.61</course>
  <speed>0.0</speed>
  <fix>3d</fix>
</trkpt>
<trkpt lat="40.072842" lon="-105.230575">
  <ele>1586.09</ele>
  <time>2026-08-27T18:31:35Z</time>
  <course>252.23</course>
  <speed>0.0</speed>
  <fix>3d</fix>
</trkpt>
<trkpt lat="40.072842" lon="-105.230575">
  <ele>1586.09</ele>
  <time>2026-08-27T18:31:35Z</time>
  <course>6.14</course>
  <speed>0.0</speed>
  <fix>3d</fix>
</trkpt>
<trkpt lat="40.072842" lon="-105.230575">
  <ele>1586.09</ele>
  <time>2026-08-27T18:31:35Z</time>
  <course>170.36</course>
  <speed>0.0</speed>
  <fix>3d</fix>
</trkpt>
<trkpt lat="40.072842" lon="-105.230575">
  <ele>1586.09</ele>
  <time>2026-08-27T18:31:35Z</time>
  <course>6.64</course>
  <speed>0.0</speed>
  <fix>3d</fix>
</trkpt>
<trkpt lat="40.072842" lon="-105.230575">
  <ele>1586.09</ele>
  <time>2026-08-27T18:31:35Z</time>
  <course>179.36</course>
  <speed>0.0</speed>
  <fix>3d</fix>
</trkpt>
<trkpt lat="40.072842" lon="-105.230575">
  <ele>1586.09</ele>
  <time>2026-08-27T18:31:35Z</time>
  <course>7.09</course>
  <speed>0.0</speed>
  <fix>3d</fix>
</trkpt>
<trkpt lat="40.072842" lon="-105.230575">
  <ele>1586.09</ele>
  <time>2026-08-27T18:31:35Z</time>
  <course>19.98</course>
  <speed>0.0</speed>
  <fix>3d</fix>
</trkpt>
<trkpt lat="40.072842" lon="-105.230575">
  <ele>1586.09</ele>
  <time>2026-08-27T18:31:35Z</time>
  <course>7.52</course>
  <speed>0.0</speed>
  <fix>3d</fix>
</trkpt>
<trkpt lat="40.072842" lon="-105.230575">
  <ele>1586.09</ele>
  <time>2026-08-27T18:31:35Z</time>
  <course>17.49</course>
  <speed>0.0</speed>
  <fix>3d</fix>
</trkpt>
<trkpt lat="40.072842" lon="-105.230575">
  <ele>1586.09</ele>
  <time>2026-08-27T18:31:35Z</time>
  <course>7.92</course>
  <speed>0.0</speed>
  <fix>3d</fix>
</trkpt>
<trkpt lat="40.072842" lon="-105.230575">
  <ele>1586.09</ele>
  <time>2026-08-27T18:31:35Z</time>
  <course>356.19</course>
  <speed>0.0</speed>
  <fix>3d</fix>
</trkpt>
<trkpt lat="40.072842" lon="-105.230575">
  <ele>1586.09</ele>
  <time>2026-08-27T18:31:35Z</time>
  <course>8.28</course>
  <speed>0.0</speed>
  <fix>3d</fix>
</trkpt>
<trkpt lat="40.072842" lon="-105.230575">
  <ele>1586.09</ele>
  <time>2026-08-27T18:31:35Z</time>
  <course>77.32</course>
  <speed>0.0</speed>
  <fix>3d</fix>
</trkpt>
<trkpt lat="40.072842" lon="-105.230575">
  <ele>1586.09</ele>
  <time>2026-08-27T18:31:35Z</time>
  <course>8.62</course>
  <speed>0.0</speed>
  <fix>3d</fix>
</trkpt>
<trkpt lat="40.072842" lon="-105.230575">
  <ele>1586.09</ele>
  <time>2026-08-27T18:31:35Z</time>
  <course>290.54</course>
  <speed>0.0</speed>
  <fix>3d</fix>
</trkpt>
<trkpt lat="40.072842" lon="-105.230575">
  <ele>1586.09</ele>
  <time>2026-08-27T18:31:35Z</time>
  <course>8.93</course>
  <speed>0.0</speed>
  <fix>3d</fix>
</trkpt>
<trkpt lat="40.072842" lon="-105.230575">
  <ele>1586.09</ele>
  <time>2026-08-27T18:31:35Z</time>
  <course>338.69</course>
  <speed>0.0</speed>
  <fix>3d</fix>
</trkpt>
<trkpt lat="40.072842" lon="-105.230575">
  <ele>1586.09</ele>
  <time>2026-08-27T18:31:35Z</time>
  <course>9.22</course>
  <speed>0.0</speed>
  <fix>3d</fix>
</trkpt>
<trkpt lat="40.072842" lon="-105.230575">
  <ele>1586.09</ele>
  <time>2026-08-27T18:31:35Z</time>
  <course>326.81</course>
  <speed>0.0</speed>
  <fix>3d</fix>
</trkpt>
<trkpt lat="40.072842" lon="-105.230575">
  <ele>1586.09</ele>
  <time>2026-08-27T18:31:35Z</time>
  <course>9.48</course>
  <speed>0.0</speed>
  <fix>3d</fix>
</trkpt>
<trkpt lat="40.072842" lon="-105.230575">
  <ele>1586.09</ele>
  <time>2026-08-27T18:31:35Z</time>
  <course>262.23</course>
  <speed>0.0</speed>
  <fix>3d</fix>
</trkpt>
<trkpt lat="40.072842" lon="-105.230575">
  <ele>1586.09</ele>
  <time>2026-08-27T18:31:35Z</time>
  <course>9.73</course>
  <speed>0.0</speed>
  <fix>3d</fix>
</trkpt>
<trkpt lat="40.072842" lon="-105.230575">
  <ele>1586.09</ele>
  <time>2026-08-27T18:31:35Z</time>
  <course>159.08</course>
  <speed>0.0</speed>
  <fix>3d</fix>
</trkpt>
<trkpt lat="40.072842" lon="-105.230575">
  <ele>1586.09</ele>
  <time>2026-08-27T18:31:35Z</time>
  <course>9.95</course>
  <speed>0.0</speed>
  <fix>3d</fix>
</trkpt>
<trkpt lat="40.072842" lon="-105.230575">
  <ele>1586.09</ele>
  <time>2026-08-27T18:31:35Z</time>
  <course>287.98</course>
  <speed>0.0</speed>
  <fix>3d</fix>
</trkpt>
<trkpt lat="40.072842" lon="-105.230575">
  <ele>1586.09</ele>
  <time>2026-08-27T18:31:35Z</time>
  <course>10.16</course>
  <speed>0.0</speed>
  <fix>3d</fix>
</trkpt>
<trkpt lat="40.072842" lon="-105.230575">
  <ele>1586.09</ele>
  <time>2026-08-27T18:31:35Z</time>
  <course>278.3</course>
  <speed>0.0</speed>
  <fix>3d</fix>
</trkpt>
<trkpt lat="40.072842" lon="-105.230575">
  <ele>1586.09</ele>
  <time>2026-08-27T18:31:35Z</time>
  <course>10.34</course>
  <speed>0.0</speed>
  <fix>3d</fix>
</trkpt>
<trkpt lat="40.072842" lon="-105.230575">
  <ele>1586.09</ele>
  <time>2026-08-27T18:31:35Z</time>
  <course>261.72</course>
  <speed>0.0</speed>
  <fix>3d</fix>
</trkpt>
<trkpt lat="40.072842" lon="-105.230575">
  <ele>1586.09</ele>
  <time>2026-08-27T18:31:35Z</time>
  <course>10.51</course>
  <speed>0.0</speed>
  <fix>3d</fix>
</trkpt>
<trkpt lat="40.072842" lon="-105.230575">
  <ele>1586.09</ele>
  <time>2026-08-27T18:31:35Z</time>
  <course>264.4</course>
  <speed>0.0</speed>
  <fix>3d</fix>
</trkpt>
<trkpt lat="40.072842" lon="-105.230575">
  <ele>1586.09</ele>
  <time>2026-08-27T18:31:35Z</time>
  <course>10.67</course>
  <speed>0.0</speed>
  <fix>3d</fix>
</trkpt>
<trkpt lat="40.072842" lon="-105.230575">
  <ele>1586.09</ele>
  <time>2026-08-27T18:31:35Z</time>
  <course>266.8</course>
  <speed>0.0</speed>
  <fix>3d</fix>
</trkpt>
<trkpt lat="40.072842" lon="-105.230575">
  <ele>1586.09</ele>
  <time>2026-08-27T18:31:35Z</time>
  <course>10.81</course>
  <speed>0.0</speed>
  <fix>3d</fix>
</trkpt>
<trkpt lat="40.072842" lon="-105.230575">
  <ele>1586.09</ele>
  <time>2026-08-27T18:31:35Z</time>
  <course>266.15</course>
  <speed>0.0</speed>
  <fix>3d</fix>
</trkpt>
<trkpt lat="40.072842" lon="-105.230575">
  <ele>1586.09</ele>
  <time>2026-08-27T18:31:35Z</time>
  <course>10.95</course>
  <speed>0.0</speed>
  <fix>3d</fix>
</trkpt>
<trkpt lat="40.072842" lon="-105.230575">
  <ele>1586.09</ele>
  <time>2026-08-27T18:31:35Z</time>
  <course>265.92</course>
  <speed>0.0</speed>
  <fix>3d</fix>
</trkpt>
<trkpt lat="40.072842" lon="-105.230575">
  <ele>1586.09</ele>
  <time>2026-08-27T18:31:35Z</time>
  <course>11.07</course>
  <speed>0.0</speed>
  <fix>3d</fix>
</trkpt>
<trkpt lat="40.072842" lon="-105.230575">
  <ele>1586.09</ele>
  <time>2026-08-27T18:31:35Z</time>
  <course>266.03</course>
  <speed>0.0</speed>
  <fix>3d</fix>
</trkpt>
<trkpt lat="40.072842" lon="-105.230575">
  <ele>1586.09</ele>
  <time>2026-08-27T18:31:35Z</time>
  <course>11.18</course>
  <speed>0.0</speed>
  <fix>3d</fix>
</trkpt>
<trkpt lat="40.072842" lon="-105.230575">
  <ele>1586.09</ele>
  <time>2026-08-27T18:31:35Z</time>
  <course>266.05</course>
  <speed>0.0</speed>
  <fix>3d</fix>
</trkpt>
<trkpt lat="40.072842" lon="-105.230575">
  <ele>1586.09</ele>
  <time>2026-08-27T18:31:35Z</time>
  <course>11.28</course>
  <speed>0.0</speed>
  <fix>3d</fix>
</trkpt>
<trkpt lat="40.072842" lon="-105.230575">
  <ele>1586.09</ele>
  <time>2026-08-27T18:31:35Z</time>
  <course>266.03</course>
  <speed>0.0</speed>
  <fix>3d</fix>
</trkpt>
<trkpt lat="40.072842" lon="-105.230575">
  <ele>1586.09</ele>
  <time>2026-08-27T18:31:35Z</time>
  <course>11.37</course>
  <speed>0.0</speed>
  <fix>3d</fix>
</trkpt>
<trkpt lat="40.072842" lon="-105.230575">
  <ele>1586.09</ele>
  <time>2026-08-27T18:31:35Z</time>
  <course>266.03</course>
  <speed>0.0</speed>
  <fix>3d</fix>
</trkpt>
<trkpt lat="40.072842" lon="-105.230575">
  <ele>1586.09</ele>
  <time>2026-08-27T18:31:35Z</time>
  <course>11.45</course>
  <speed>0.0</speed>
  <fix>3d</fix>
</trkpt>
<trkpt lat="40.072842" lon="-105.230575">
  <ele>1586.09</ele>
  <time>2026-08-27T18:31:35Z</time>
  <course>266.03</course>
  <speed>0.0</speed>
  <fix>3d</fix>
</trkpt>
<trkpt lat="40.072842" lon="-105.230575">
  <ele>1586.09</ele>
  <time>2026-08-27T18:31:35Z</time>
  <course>11.53</course>
  <speed>0.0</speed>
  <fix>3d</fix>
</trkpt>
<trkpt lat="40.072842" lon="-105.230575">
  <ele>1586.09</ele>
  <time>2026-08-27T18:31:35Z</time>
  <course>266.03</course>
  <speed>0.0</speed>
  <fix>3d</fix>
</trkpt>
<trkpt lat="40.072842" lon="-105.230575">
  <ele>1586.09</ele>
  <time>2026-08-27T18:31:35Z</time>
  <course>11.59</course>
  <speed>0.0</speed>
  <fix>3d</fix>
</trkpt>
<trkpt lat="40.072842" lon="-105.230575">
  <ele>1586.09</ele>
  <time>2026-08-27T18:31:35Z</time>
  <course>266.03</course>
  <speed>0.0</speed>
  <fix>3d</fix>
</trkpt>
<trkpt lat="40.072842" lon="-105.230575">
  <ele>1586.09</ele>
  <time>2026-08-27T18:31:35Z</time>
  <course>11.66</course>
  <speed>0.0</speed>
  <fix>3d</fix>
</trkpt>
<trkpt lat="40.072842" lon="-105.230575">
  <ele>1586.09</ele>
  <time>2026-08-27T18:31:35Z</time>
  <course>266.03</course>
  <speed>0.0</speed>
  <fix>3d</fix>
</trkpt>
<trkpt lat="40.072842" lon="-105.230575">
  <ele>1586.09</ele>
  <time>2026-08-27T18:31:35Z</time>
  <course>11.71</course>
  <speed>0.0</speed>
  <fix>3d</fix>
</trkpt>
<trkpt lat="40.072842" lon="-105.230575">
  <ele>1586.09</ele>
  <time>2026-08-27T18:31:35Z</time>
  <course>266.03</course>
  <speed>0.0</speed>
  <fix>3d</fix>
</trkpt>
<trkpt lat="40.072842" lon="-105.230575">
  <ele>1586.09</ele>
  <time>2026-08-27T18:31:35Z</time>
  <course>11.76</course>
  <speed>0.0</speed>
  <fix>3d</fix>
</trkpt>
<trkpt lat="40.072842" lon="-105.230575">
  <ele>1586.09</ele>
  <time>2026-08-27T18:31:35Z</time>
  <course>266.03</course>
  <speed>0.0</speed>
  <fix>3d</fix>
</trkpt>
<trkpt lat="40.072842" lon="-105.230575">
  <ele>1586.09</ele>
  <time>2026-08-27T18:31:35Z</time>
  <course>11.81</course>
  <speed>0.0</speed>
  <fix>3d</fix>
</trkpt>
<trkpt lat="40.072842" lon="-105.230575">
  <ele>1586.09</ele>
  <time>2026-08-27T18:31:35Z</time>
  <course>266.03</course>
  <speed>0.0</speed>
  <fix>3d</fix>
</trkpt>
<trkpt lat="40.072842" lon="-105.230575">
  <ele>1586.09</ele>
  <time>2026-08-27T18:31:35Z</time>
  <course>11.85</course>
  <speed>0.0</speed>
  <fix>3d</fix>
</trkpt>
<trkpt lat="40.072842" lon="-105.230575">
  <ele>1586.09</ele>
  <time>2026-08-27T18:31:35Z</time>
  <course>266.03</course>
  <speed>0.0</speed>
  <fix>3d</fix>
</trkpt>
<trkpt lat="40.072842" lon="-105.230575">
  <ele>1586.09</ele>
  <time>2026-08-27T18:31:35Z</time>
  <course>11.88</course>
  <speed>0.0</speed>
  <fix>3d</fix>
</trkpt>
<trkpt lat="40.072842" lon="-105.230575">
  <ele>1586.09</ele>
  <time>2026-08-27T18:31:35Z</time>
  <course>266.03</course>
  <speed>0.0</speed>
  <fix>3d</fix>
</trkpt>
<trkpt lat="40.072842" lon="-105.230575">
  <ele>1586.09</ele>
  <time>2026-08-27T18:31:35Z</time>
  <course>11.92</course>
  <speed>0.0</speed>
  <fix>3d</fix>
</trkpt>
<trkpt lat="40.072842" lon="-105.230575">
  <ele>1586.09</ele>
  <time>2026-08-27T18:31:35Z</time>
  <course>266.03</course>
  <speed>0.0</speed>
  <fix>3d</fix>
</trkpt>
<trkpt lat="40.072842" lon="-105.230575">
  <ele>1586.09</ele>
  <time>2026-08-27T18:31:35Z</time>
  <course>11.95</course>
  <speed>0.0</speed>
  <fix>3d</fix>
</trkpt>
<trkpt lat="40.072842" lon="-105.230575">
  <ele>1586.09</ele>
  <time>2026-08-27T18:31:35Z</time>
  <course>266.03</course>
  <speed>0.0</speed>
  <fix>3d</fix>
</trkpt>
<trkpt lat="40.072842" lon="-105.230575">
  <ele>1586.09</ele>
  <time>2026-08-27T18:31:35Z</time>
  <course>11.97</course>
  <speed>0.0</speed>
  <fix>3d</fix>
</trkpt>
<trkpt lat="40.072842" lon="-105.230575">
  <ele>1586.09</ele>
  <time>2026-08-27T18:31:35Z</time>
  <course>266.03</course>
  <speed>0.0</speed>
  <fix>3d</fix>
</trkpt>
<trkpt lat="40.072842" lon="-105.230575">
  <ele>1586.09</ele>
  <time>2026-08-27T18:31:35Z</time>
  <course>12.0</course>
  <speed>0.0</speed>
  <fix>3d</fix>
</trkpt>
<trkpt lat="40.072842" lon="-105.230575">
  <ele>1586.09</ele>
  <time>2026-08-27T18:31:35Z</time>
  <course>266.03</course>
  <speed>0.0</speed>
  <fix>3d</fix>
</trkpt>
<trkpt lat="40.072842" lon="-105.230575">
  <ele>1586.09</ele>
  <time>2026-08-27T18:31:35Z</time>
  <course>12.02</course>
  <speed>0.0</speed>
  <fix>3d</fix>
</trkpt>
<trkpt lat="40.072842" lon="-105.230575">
  <ele>1586.09</ele>
  <time>2026-08-27T18:31:35Z</time>
  <course>266.03</course>
  <speed>0.0</speed>
  <fix>3d</fix>
</trkpt>
<trkpt lat="40.072842" lon="-105.230575">
  <ele>1586.09</ele>
  <time>2026-08-27T18:31:35Z</time>
  <course>12.04</course>
  <speed>0.0</speed>
  <fix>3d</fix>
</trkpt>
<trkpt lat="40.072842" lon="-105.230575">
  <ele>1586.09</ele>
  <time>2026-08-27T18:31:35Z</time>
  <course>266.03</course>
  <speed>0.0</speed>
  <fix>3d</fix>
</trkpt>
<trkpt lat="40.072842" lon="-105.230575">
  <ele>1586.09</ele>
  <time>2026-08-27T18:31:35Z</time>
  <course>12.05</course>
  <speed>0.0</speed>
  <fix>3d</fix>
</trkpt>
<trkpt lat="40.072842" lon="-105.230575">
  <ele>1586.09</ele>
  <time>2026-08-27T18:31:35Z</time>
  <course>266.03</course>
  <speed>0.0</speed>
  <fix>3d</fix>
</trkpt>
<trkpt lat="40.072842" lon="-105.230575">
  <ele>1586.09</ele>
  <time>2026-08-27T18:31:35Z</time>
  <course>12.07</course>
  <speed>0.0</speed>
  <fix>3d</fix>
</trkpt>
<trkpt lat="40.072842" lon="-105.230575">
  <ele>1586.09</ele>
  <time>2026-08-27T18:31:35Z</time>
  <course>266.03</course>
  <speed>0.0</speed>
  <fix>3d</fix>
</trkpt>
<trkpt lat="40.072842" lon="-105.230575">
  <ele>1586.09</ele>
  <time>2026-08-27T18:31:35Z</time>
  <course>12.08</course>
  <speed>0.0</speed>
  <fix>3d</fix>
</trkpt>
<trkpt lat="40.072842" lon="-105.230575">
  <ele>1586.09</ele>
  <time>2026-08-27T18:31:35Z</time>
  <course>266.03</course>
  <speed>0.0</speed>
  <fix>3d</fix>
</trkpt>
<trkpt lat="40.072842" lon="-105.230575">
  <ele>1586.09</ele>
  <time>2026-08-27T18:31:35Z</time>
  <course>12.09</course>
  <speed>0.0</speed>
  <fix>3d</fix>
</trkpt>
<trkpt lat="40.072842" lon="-105.230575">
  <ele>1586.09</ele>
  <time>2026-08-27T18:31:35Z</time>
  <course>266.03</course>
  <speed>0.0</speed>
  <fix>3d</fix>
</trkpt>
<trkpt lat="40.072842" lon="-105.230575">
  <ele>1586.09</ele>
  <time>2026-08-27T18:31:35Z</time>
  <course>12.1</course>
  <speed>0.0</speed>
  <fix>3d</fix>
</trkpt>
<trkpt lat="40.072842" lon="-105.230575">
  <ele>1586.09</ele>
  <time>2026-08-27T18:31:35Z</time>
  <course>266.03</course>
  <speed>0.0</speed>
  <fix>3d</fix>
</trkpt>
<trkpt lat="40.072842" lon="-105.230575">
  <ele>1586.09</ele>
  <time>2026-08-27T18:31:35Z</time>
  <course>12.1</course>
  <speed>0.0</speed>
  <fix>3d</fix>
</trkpt>
<trkpt lat="40.072842" lon="-105.230575">
  <ele>1586.09</ele>
  <time>2026-08-27T18:31:35Z</time>
  <course>266.03</course>
  <speed>0.0</speed>
  <fix>3d</fix>
</trkpt>
<trkpt lat="40.072842" lon="-105.230575">
  <ele>1586.09</ele>
  <time>2026-08-27T18:31:35Z</time>
  <course>12.11</course>
  <speed>0.0</speed>
  <fix>3d</fix>
</trkpt>
<trkpt lat="40.072842" lon="-105.230575">
  <ele>1586.09</ele>
  <time>2026-08-27T18:31:35Z</time>
  <course>266.03</course>
  <speed>0.0</speed>
  <fix>3d</fix>
</trkpt>
<trkpt lat="40.072842" lon="-105.230575">
  <ele>1586.09</ele>
  <time>2026-08-27T18:31:35Z</time>
  <course>12.12</course>
  <speed>0.0</speed>
  <fix>3d</fix>
</trkpt>
<trkpt lat="40.072842" lon="-105.230575">
  <ele>1586.09</ele>
  <time>2026-08-27T18:31:35Z</time>
  <course>266.03</course>
  <speed>0.0</speed>
  <fix>3d</fix>
</trkpt>
<trkpt lat="40.072842" lon="-105.230575">
  <ele>1586.09</ele>
  <time>2026-08-27T18:31:35Z</time>
  <course>12.12</course>
  <speed>0.0</speed>
  <fix>3d</fix>
</trkpt>
<trkpt lat="40.072842" lon="-105.230575">
  <ele>1586.09</ele>
  <time>2026-08-27T18:31:35Z</time>
  <course>266.03</course>
  <speed>0.0</speed>
  <fix>3d</fix>
</trkpt>
<trkpt lat="40.072842" lon="-105.230575">
  <ele>1586.09</ele>
  <time>2026-08-27T18:31:35Z</time>
  <course>12.12</course>
  <speed>0.0</speed>
  <fix>3d</fix>
</trkpt>
<trkpt lat="40.072842" lon="-105.230575">
  <ele>1586.09</ele>
  <time>2026-08-27T18:31:35Z</time>
  <course>266.03</course>
  <speed>0.0</speed>
  <fix>3d</fix>
</trkpt>
<trkpt lat="40.072842" lon="-105.230575">
  <ele>1586.09</ele>
  <time>2026-08-27T18:31:35Z</time>
  <course>12.13</course>
  <speed>0.0</speed>
  <fix>3d</fix>
</trkpt>
<trkpt lat="40.072842" lon="-105.230575">
  <ele>1586.09</ele>
  <time>2026-08-27T18:31:35Z</time>
  <course>266.03</course>
  <speed>0.0</speed>
  <fix>3d</fix>
</trkpt>
<trkpt lat="40.072842" lon="-105.230575">
  <ele>1586.09</ele>
  <time>2026-08-27T18:31:35Z</time>
  <course>12.13</course>
  <speed>0.0</speed>
  <fix>3d</fix>
</trkpt>
<trkpt lat="40.072842" lon="-105.230575">
  <ele>1586.09</ele>
  <time>2026-08-27T18:31:35Z</time>
  <course>266.03</course>
  <speed>0.0</speed>
  <fix>3d</fix>
</trkpt>
<trkpt lat="40.072842" lon="-105.230575">
  <ele>1586.09</ele>
  <time>2026-08-27T18:31:35Z</time>
  <course>12.13</course>
  <speed>0.0</speed>
  <fix>3d</fix>
</trkpt>
<trkpt lat="40.072842" lon="-105.230575">
  <ele>1586.09</ele>
  <time>2026-08-27T18:31:35Z</time>
  <course>266.03</course>
  <speed>0.0</speed>
  <fix>3d</fix>
</trkpt>
<trkpt lat="40.072842" lon="-105.230575">
  <ele>1586.09</ele>
  <time>2026-08-27T18:31:35Z</time>
  <course>12.12</course>
  <speed>0.01</speed>
  <fix>3d</fix>
</trkpt>
<trkpt lat="40.072842" lon="-105.230575">
  <ele>1586.09</ele>
  <time>2026-08-27T18:31:35Z</time>
  <course>266.03</course>
  <speed>0.0</speed>
  <fix>3d</fix>
</trkpt>
<trkpt lat="40.072842" lon="-105.230575">
  <ele>1586.09</ele>
  <time>2026-08-27T18:31:35Z</time>
  <course>12.12</course>
  <speed>0.01</speed>
  <fix>3d</fix>
</trkpt>
<trkpt lat="40.072842" lon="-105.230575">
  <ele>1586.09</ele>
  <time>2026-08-27T18:31:35Z</time>
  <course>266.03</course>
  <speed>0.0</speed>
  <fix>3d</fix>
</trkpt>
<trkpt lat="40.072842" lon="-105.230575">
  <ele>1586.09</ele>
  <time>2026-08-27T18:31:35Z</time>
  <course>12.12</course>
  <speed>0.01</speed>
  <fix>3d</fix>
</trkpt>
<trkpt lat="40.072842" lon="-105.230575">
  <ele>1586.09</ele>
  <time>2026-08-27T18:31:35Z</time>
  <course>266.03</course>
  <speed>0.0</speed>
  <fix>3d</fix>
</trkpt>
<trkpt lat="40.072842" lon="-105.230575">
  <ele>1586.09</ele>
  <time>2026-08-27T18:31:35Z</time>
  <course>12.12</course>
  <speed>0.01</speed>
  <fix>3d</fix>
</trkpt>
<trkpt lat="40.072842" lon="-105.230575">
  <ele>1586.09</ele>
  <time>2026-08-27T18:31:35Z</time>
  <course>266.03</course>
  <speed>0.0</speed>
  <fix>3d</fix>
</trkpt>
<trkpt lat="40.072842" lon="-105.230575">
  <ele>1586.09</ele>
  <time>2026-08-27T18:31:35Z</time>
  <course>12.11</course>
  <speed>0.01</speed>
  <fix>3d</fix>
</trkpt>
<trkpt lat="40.072842" lon="-105.230575">
  <ele>1586.09</ele>
  <time>2026-08-27T18:31:35Z</time>
  <course>266.03</course>
  <speed>0.0</speed>
  <fix>3d</fix>
</trkpt>
<trkpt lat="40.072842" lon="-105.230575">
  <ele>1586.09</ele>
  <time>2026-08-27T18:31:35Z</time>
  <course>12.11</course>
  <speed>0.01</speed>
  <fix>3d</fix>
</trkpt>
<trkpt lat="40.072842" lon="-105.230575">
  <ele>1586.09</ele>
  <time>2026-08-27T18:31:35Z</time>
  <course>266.03</course>
  <speed>0.0</speed>
  <fix>3d</fix>
</trkpt>
<trkpt lat="40.072842" lon="-105.230575">
  <ele>1586.09</ele>
  <time>2026-08-27T18:31:35Z</time>
  <course>12.1</course>
  <speed>0.01</speed>
  <fix>3d</fix>
</trkpt>
<trkpt lat="40.072842" lon="-105.230575">
  <ele>1586.09</ele>
  <time>2026-08-27T18:31:35Z</time>
  <course>266.03</course>
  <speed>0.0</speed>
  <fix>3d</fix>
</trkpt>
<trkpt lat="40.072842" lon="-105.230575">
  <ele>1586.09</ele>
  <time>2026-08-27T18:31:35Z</time>
  <course>12.1</course>
  <speed>0.01</speed>
  <fix>3d</fix>
</trkpt>
<trkpt lat="40.072842" lon="-105.230575">
  <ele>1586.09</ele>
  <time>2026-08-27T18:31:35Z</time>
  <course>266.03</course>
  <speed>0.0</speed>
  <fix>3d</fix>
</trkpt>
<trkpt lat="40.072842" lon="-105.230575">
  <ele>1586.09</ele>
  <time>2026-08-27T18:31:35Z</time>
  <course>12.09</course>
  <speed>0.01</speed>
  <fix>3d</fix>
</trkpt>
<trkpt lat="40.072842" lon="-105.230575">
  <ele>1586.09</ele>
  <time>2026-08-27T18:31:35Z</time>
  <course>266.03</course>
  <speed>0.0</speed>
  <fix>3d</fix>
</trkpt>
<trkpt lat="40.072842" lon="-105.230575">
  <ele>1586.09</ele>
  <time>2026-08-27T18:31:35Z</time>
  <course>12.09</course>
  <speed>0.01</speed>
  <fix>3d</fix>
</trkpt>
<trkpt lat="40.072842" lon="-105.230575">
  <ele>1586.09</ele>
  <time>2026-08-27T18:31:35Z</time>
  <course>266.03</course>
  <speed>0.0</speed>
  <fix>3d</fix>
</trkpt>
<trkpt lat="40.072842" lon="-105.230575">
  <ele>1586.09</ele>
  <time>2026-08-27T18:31:35Z</time>
  <course>12.08</course>
  <speed>0.01</speed>
  <fix>3d</fix>
</trkpt>
<trkpt lat="40.072842" lon="-105.230575">
  <ele>1586.09</ele>
  <time>2026-08-27T18:31:35Z</time>
  <course>266.03</course>
  <speed>0.0</speed>
  <fix>3d</fix>
</trkpt>
<trkpt lat="40.072842" lon="-105.230575">
  <ele>1586.09</ele>
  <time>2026-08-27T18:31:35Z</time>
  <course>12.08</course>
  <speed>0.01414213562373095</speed>
  <fix>3d</fix>
</trkpt>
<trkpt lat="40.072842" lon="-105.230575">
  <ele>1586.09</ele>
  <time>2026-08-27T18:31:35Z</time>
  <course>266.03</course>
  <speed>0.0</speed>
  <fix>3d</fix>
</trkpt>
<trkpt lat="40.072842" lon="-105.230575">
  <ele>1586.09</ele>
  <time>2026-08-27T18:31:35Z</time>
  <course>12.07</course>
  <speed>0.01414213562373095</speed>
  <fix>3d</fix>
</trkpt>
<trkpt lat="40.072842" lon="-105.230575">
  <ele>1586.09</ele>
  <time>2026-08-27T18:31:35Z</time>
  <course>266.03</course>
  <speed>0.0</speed>
  <fix>3d</fix>
</trkpt>
<trkpt lat="40.072842" lon="-105.230575">
  <ele>1586.09</ele>
  <time>2026-08-27T18:31:35Z</time>
  <course>12.06</course>
  <speed>0.01414213562373095</speed>
  <fix>3d</fix>
</trkpt>
<trkpt lat="40.072842" lon="-105.230575">
  <ele>1586.09</ele>
  <time>2026-08-27T18:31:35Z</time>
  <course>266.03</course>
  <speed>0.0</speed>
  <fix>3d</fix>
</trkpt>
<trkpt lat="40.072842" lon="-105.230575">
  <ele>1586.09</ele>
  <time>2026-08-27T18:31:35Z</time>
  <course>12.05</course>
  <speed>0.01414213562373095</speed>
  <fix>3d</fix>
</trkpt>
<trkpt lat="40.072842" lon="-105.230575">
  <ele>1586.09</ele>
  <time>2026-08-27T18:31:35Z</time>
  <course>266.03</course>
  <speed>0.0</speed>
  <fix>3d</fix>
</trkpt>
<trkpt lat="40.072842" lon="-105.230575">
  <ele>1586.09</ele>
  <time>2026-08-27T18:31:35Z</time>
  <course>12.05</course>
  <speed>0.01414213562373095</speed>
  <fix>3d</fix>
</trkpt>
<trkpt lat="40.072842" lon="-105.230575">
  <ele>1586.09</ele>
  <time>2026-08-27T18:31:35Z</time>
  <course>266.03</course>
  <speed>0.0</speed>
  <fix>3d</fix>
</trkpt>
<trkpt lat="40.072842" lon="-105.230575">
  <ele>1586.09</ele>
  <time>2026-08-27T18:31:35Z</time>
  <course>12.04</course>
  <speed>0.01414213562373095</speed>
  <fix>3d</fix>
</trkpt>
<trkpt lat="40.072842" lon="-105.230575">
  <ele>1586.09</ele>
  <time>2026-08-27T18:31:35Z</time>
  <course>266.03</course>
  <speed>0.0</speed>
  <fix>3d</fix>
</trkpt>
<trkpt lat="40.072842" lon="-105.230575">
  <ele>1586.09</ele>
  <time>2026-08-27T18:31:35Z</time>
  <course>12.03</course>
  <speed>0.01414213562373095</speed>
  <fix>3d</fix>
</trkpt>
<trkpt lat="40.072842" lon="-105.230575">
  <ele>1586.09</ele>
  <time>2026-08-27T18:31:35Z</time>
  <course>266.03</course>
  <speed>0.0</speed>
  <fix>3d</fix>
</trkpt>
<trkpt lat="40.072842" lon="-105.230575">
  <ele>1586.09</ele>
  <time>2026-08-27T18:31:35Z</time>
  <course>12.03</course>
  <speed>0.01414213562373095</speed>
  <fix>3d</fix>
</trkpt>
<trkpt lat="40.072842" lon="-105.230575">
  <ele>1586.09</ele>
  <time>2026-08-27T18:31:35Z</time>
  <course>266.03</course>
  <speed>0.0</speed>
  <fix>3d</fix>
</trkpt>
<trkpt lat="40.072842" lon="-105.230575">
  <ele>1586.09</ele>
  <time>2026-08-27T18:31:35Z</time>
  <course>12.02</course>
  <speed>0.01414213562373095</speed>
  <fix>3d</fix>
</trkpt>
<trkpt lat="40.072842" lon="-105.230575">
  <ele>1586.09</ele>
  <time>2026-08-27T18:31:35Z</time>
  <course>266.03</course>
  <speed>0.0</speed>
  <fix>3d</fix>
</trkpt>
<trkpt lat="40.072842" lon="-105.230575">
  <ele>1586.09</ele>
  <time>2026-08-27T18:31:35Z</time>
  <course>12.01</course>
  <speed>0.01414213562373095</speed>
  <fix>3d</fix>
</trkpt>
<trkpt lat="40.072842" lon="-105.230575">
  <ele>1586.09</ele>
  <time>2026-08-27T18:31:35Z</time>
  <course>266.03</course>
  <speed>0.0</speed>
  <fix>3d</fix>
</trkpt>
<trkpt lat="40.072842" lon="-105.230575">
  <ele>1586.09</ele>
  <time>2026-08-27T18:31:35Z</time>
  <course>12.01</course>
  <speed>0.01414213562373095</speed>
  <fix>3d</fix>
</trkpt>
<trkpt lat="40.072842" lon="-105.230575">
  <ele>1586.09</ele>
  <time>2026-08-27T18:31:35Z</time>
  <course>266.03</course>
  <speed>0.0</speed>
  <fix>3d</fix>
</trkpt>
<trkpt lat="40.072842" lon="-105.230575">
  <ele>1586.09</ele>
  <time>2026-08-27T18:31:35Z</time>
  <course>12.0</course>
  <speed>0.01414213562373095</speed>
  <fix>3d</fix>
</trkpt>
<trkpt lat="40.072842" lon="-105.230575">
  <ele>1586.09</ele>
  <time>2026-08-27T18:31:35Z</time>
  <course>266.03</course>
  <speed>0.0</speed>
  <fix>3d</fix>
</trkpt>
<trkpt lat="40.072842" lon="-105.230575">
  <ele>1586.09</ele>
  <time>2026-08-27T18:31:35Z</time>
  <course>11.99</course>
  <speed>0.01414213562373095</speed>
  <fix>3d</fix>
</trkpt>
<trkpt lat="40.072842" lon="-105.230575">
  <ele>1586.09</ele>
  <time>2026-08-27T18:31:35Z</time>
  <course>266.03</course>
  <speed>0.0</speed>
  <fix>3d</fix>
</trkpt>
<trkpt lat="40.072842" lon="-105.230575">
  <ele>1586.09</ele>
  <time>2026-08-27T18:31:35Z</time>
  <course>11.98</course>
  <speed>0.01414213562373095</speed>
  <fix>3d</fix>
</trkpt>
<trkpt lat="40.072842" lon="-105.230575">
  <ele>1586.09</ele>
  <time>2026-08-27T18:31:35Z</time>
  <course>266.03</course>
  <speed>0.0</speed>
  <fix>3d</fix>
</trkpt>
<trkpt lat="40.072842" lon="-105.230575">
  <ele>1586.09</ele>
  <time>2026-08-27T18:31:35Z</time>
  <course>11.98</course>
  <speed>0.01414213562373095</speed>
  <fix>3d</fix>
</trkpt>
<trkpt lat="40.072842" lon="-105.230575">
  <ele>1586.09</ele>
  <time>2026-08-27T18:31:35Z</time>
  <course>266.03</course>
  <speed>0.0</speed>
  <fix>3d</fix>
</trkpt>
<trkpt lat="40.072842" lon="-105.230575">
  <ele>1586.09</ele>
  <time>2026-08-27T18:31:35Z</time>
  <course>11.97</course>
  <speed>0.022360679774997897</speed>
  <fix>3d</fix>
</trkpt>
<trkpt lat="40.072842" lon="-105.230575">
  <ele>1586.09</ele>
  <time>2026-08-27T18:31:35Z</time>
  <course>266.03</course>
  <speed>0.0</speed>
  <fix>3d</fix>
</trkpt>
<trkpt lat="40.072842" lon="-105.230575">
  <ele>1586.09</ele>
  <time>2026-08-27T18:31:35Z</time>
  <course>11.96</course>
  <speed>0.022360679774997897</speed>
  <fix>3d</fix>
</trkpt>
<trkpt lat="40.072842" lon="-105.230575">
  <ele>1586.09</ele>
  <time>2026-08-27T18:31:35Z</time>
  <course>266.03</course>
  <speed>0.0</speed>
  <fix>3d</fix>
</trkpt>
<trkpt lat="40.072842" lon="-105.230575">
  <ele>1586.09</ele>
  <time>2026-08-27T18:31:35Z</time>
  <course>11.95</course>
  <speed>0.022360679774997897</speed>
  <fix>3d</fix>
</trkpt>
<trkpt lat="40.072842" lon="-105.230575">
  <ele>1586.09</ele>
  <time>2026-08-27T18:31:35Z</time>
  <course>266.03</course>
  <speed>0.0</speed>
  <fix>3d</fix>
</trkpt>
<trkpt lat="40.072842" lon="-105.230575">
  <ele>1586.09</ele>
  <time>2026-08-27T18:31:35Z</time>
  <course>11.94</course>
  <speed>0.022360679774997897</speed>
  <fix>3d</fix>
</trkpt>
<trkpt lat="40.072842" lon="-105.230575">
  <ele>1586.09</ele>
  <time>2026-08-27T18:31:35Z</time>
  <course>266.03</course>
  <speed>0.0</speed>
  <fix>3d</fix>
</trkpt>
<trkpt lat="40.072842" lon="-105.230575">
  <ele>1586.09</ele>
  <time>2026-08-27T18:31:35Z</time>
  <course>11.93</course>
  <speed>0.022360679774997897</speed>
  <fix>3d</fix>
</trkpt>
<trkpt lat="40.072842" lon="-105.230575">
  <ele>1586.09</ele>
  <time>2026-08-27T18:31:35Z</time>
  <course>266.03</course>
  <speed>0.0</speed>
  <fix>3d</fix>
</trkpt>
<trkpt lat="40.072842" lon="-105.230575">
  <ele>1586.09</ele>
  <time>2026-08-27T18:31:35Z</time>
  <course>11.92</course>
  <speed>0.022360679774997897</speed>
  <fix>3d</fix>
</trkpt>
<trkpt lat="40.072842" lon="-105.230575">
  <ele>1586.09</ele>
  <time>2026-08-27T18:31:35Z</time>
  <course>266.03</course>
  <speed>0.0</speed>
  <fix>3d</fix>
</trkpt>
<trkpt lat="40.072842" lon="-105.230575">
  <ele>1586.09</ele>
  <time>2026-08-27T18:31:35Z</time>
  <course>11.92</course>
  <speed>0.022360679774997897</speed>
  <fix>3d</fix>
</trkpt>
<trkpt lat="40.072842" lon="-105.230575">
  <ele>1586.09</ele>
  <time>2026-08-27T18:31:35Z</time>
  <course>266.03</course>
  <speed>0.0</speed>
  <fix>3d</fix>
</trkpt>
<trkpt lat="40.072842" lon="-105.230575">
  <ele>1586.09</ele>
  <time>2026-08-27T18:31:35Z</time>
  <course>11.91</course>
  <speed>0.022360679774997897</speed>
  <fix>3d</fix>
</trkpt>
<trkpt lat="40.072842" lon="-105.230575">
  <ele>1586.09</ele>
  <time>2026-08-27T18:31:35Z</time>
  <course>266.03</course>
  <speed>0.0</speed>
  <fix>3d</fix>
</trkpt>
<trkpt lat="40.072842" lon="-105.230575">
  <ele>1586.09</ele>
  <time>2026-08-27T18:31:35Z</time>
  <course>11.9</course>
  <speed>0.022360679774997897</speed>
  <fix>3d</fix>
</trkpt>
<trkpt lat="40.072842" lon="-105.230575">
  <ele>1586.09</ele>
  <time>2026-08-27T18:31:35Z</time>
  <course>266.03</course>
  <speed>0.0</speed>
  <fix>3d</fix>
</trkpt>
<trkpt lat="40.072842" lon="-105.230575">
  <ele>1586.09</ele>
  <time>2026-08-27T18:31:35Z</time>
  <course>11.89</course>
  <speed>0.022360679774997897</speed>
  <fix>3d</fix>
</trkpt>
<trkpt lat="40.072842" lon="-105.230575">
  <ele>1586.09</ele>
  <time>2026-08-27T18:31:35Z</time>
  <course>266.03</course>
  <speed>0.0</speed>
  <fix>3d</fix>
</trkpt>
<trkpt lat="40.072842" lon="-105.230575">
  <ele>1586.09</ele>
  <time>2026-08-27T18:31:35Z</time>
  <course>11.88</course>
  <speed>0.022360679774997897</speed>
  <fix>3d</fix>
</trkpt>
<trkpt lat="40.072842" lon="-105.230575">
  <ele>1586.09</ele>
  <time>2026-08-27T18:31:35Z</time>
  <course>266.03</course>
  <speed>0.0</speed>
  <fix>3d</fix>
</trkpt>
<trkpt lat="40.072842" lon="-105.230575">
  <ele>1586.09</ele>
  <time>2026-08-27T18:31:35Z</time>
  <course>11.87</course>
  <speed>0.022360679774997897</speed>
  <fix>3d</fix>
</trkpt>
<trkpt lat="40.072842" lon="-105.230575">
  <ele>1586.09</ele>
  <time>2026-08-27T18:31:35Z</time>
  <course>266.03</course>
  <speed>0.0</speed>
  <fix>3d</fix>
</trkpt>
<trkpt lat="40.072842" lon="-105.230575">
  <ele>1586.09</ele>
  <time>2026-08-27T18:31:35Z</time>
  <course>11.87</course>
  <speed>0.022360679774997897</speed>
  <fix>3d</fix>
</trkpt>
<trkpt lat="40.072842" lon="-105.230575">
  <ele>1586.09</ele>
  <time>2026-08-27T18:31:35Z</time>
  <course>266.03</course>
  <speed>0.0</speed>
  <fix>3d</fix>
</trkpt>
<trkpt lat="40.072842" lon="-105.230575">
  <ele>1586.09</ele>
  <time>2026-08-27T18:31:35Z</time>
  <course>11.86</course>
  <speed>0.022360679774997897</speed>
  <fix>3d</fix>
</trkpt>
<trkpt lat="40.072842" lon="-105.230575">
  <ele>1586.09</ele>
  <time>2026-08-27T18:31:35Z</time>
  <course>266.03</course>
  <speed>0.0</speed>
  <fix>3d</fix>
</trkpt>
<trkpt lat="40.072842" lon="-105.230575">
  <ele>1586.09</ele>
  <time>2026-08-27T18:31:35Z</time>
  <course>11.85</course>
  <speed>0.022360679774997897</speed>
  <fix>3d</fix>
</trkpt>
<trkpt lat="40.072842" lon="-105.230575">
  <ele>1586.09</ele>
  <time>2026-08-27T18:31:35Z</time>
  <course>266.03</course>
  <speed>0.0</speed>
  <fix>3d</fix>
</trkpt>
<trkpt lat="40.072842" lon="-105.230575">
  <ele>1586.09</ele>
  <time>2026-08-27T18:31:35Z</time>
  <course>11.84</course>
  <speed>0.0282842712474619</speed>
  <fix>3d</fix>
</trkpt>
<trkpt lat="40.072842" lon="-105.230575">
  <ele>1586.09</ele>
  <time>2026-08-27T18:31:35Z</time>
  <course>266.03</course>
  <speed>0.0</speed>
  <fix>3d</fix>
</trkpt>
<trkpt lat="40.072842" lon="-105.230575">
  <ele>1586.09</ele>
  <time>2026-08-27T18:31:35Z</time>
  <course>11.83</course>
  <speed>0.0282842712474619</speed>
  <fix>3d</fix>
</trkpt>
<trkpt lat="40.072842" lon="-105.230575">
  <ele>1586.09</ele>
  <time>2026-08-27T18:31:35Z</time>
  <course>266.03</course>
  <speed>0.0</speed>
  <fix>3d</fix>
</trkpt>
<trkpt lat="40.072842" lon="-105.230575">
  <ele>1586.09</ele>
  <time>2026-08-27T18:31:35Z</time>
  <course>11.83</course>
  <speed>0.0282842712474619</speed>
  <fix>3d</fix>
</trkpt>
<trkpt lat="40.072842" lon="-105.230575">
  <ele>1586.09</ele>
  <time>2026-08-27T18:31:35Z</time>
  <course>266.03</course>
  <speed>0.0</speed>
  <fix>3d</fix>
</trkpt>
<trkpt lat="40.072842" lon="-105.230575">
  <ele>1586.09</ele>
  <time>2026-08-27T18:31:35Z</time>
  <course>11.82</course>
  <speed>0.0282842712474619</speed>
  <fix>3d</fix>
</trkpt>
<trkpt lat="40.072842" lon="-105.230575">
  <ele>1586.09</ele>
  <time>2026-08-27T18:31:35Z</time>
  <course>266.03</course>
  <speed>0.0</speed>
  <fix>3d</fix>
</trkpt>
<trkpt lat="40.072842" lon="-105.230575">
  <ele>1586.09</ele>
  <time>2026-08-27T18:31:35Z</time>
  <course>11.81</course>
  <speed>0.0282842712474619</speed>
  <fix>3d</fix>
</trkpt>
<trkpt lat="40.072842" lon="-105.230575">
  <ele>1586.09</ele>
  <time>2026-08-27T18:31:35Z</time>
  <course>266.03</course>
  <speed>0.0</speed>
  <fix>3d</fix>
</trkpt>
<trkpt lat="40.072842" lon="-105.230575">
  <ele>1586.09</ele>
  <time>2026-08-27T18:31:35Z</time>
  <course>11.8</course>
  <speed>0.0282842712474619</speed>
  <fix>3d</fix>
</trkpt>
<trkpt lat="40.072842" lon="-105.230575">
  <ele>1586.09</ele>
  <time>2026-08-27T18:31:35Z</time>
  <course>266.03</course>
  <speed>0.0</speed>
  <fix>3d</fix>
</trkpt>
<trkpt lat="40.072842" lon="-105.230575">
  <ele>1586.09</ele>
  <time>2026-08-27T18:31:35Z</time>
  <course>11.79</course>
  <speed>0.0282842712474619</speed>
  <fix>3d</fix>
</trkpt>
<trkpt lat="40.072842" lon="-105.230575">
  <ele>1586.09</ele>
  <time>2026-08-27T18:31:35Z</time>
  <course>266.03</course>
  <speed>0.0</speed>
  <fix>3d</fix>
</trkpt>
<trkpt lat="40.072842" lon="-105.230575">
  <ele>1586.09</ele>
  <time>2026-08-27T18:31:35Z</time>
  <course>11.79</course>
  <speed>0.0282842712474619</speed>
  <fix>3d</fix>
</trkpt>
<trkpt lat="40.072842" lon="-105.230575">
  <ele>1586.09</ele>
  <time>2026-08-27T18:31:35Z</time>
  <course>266.03</course>
  <speed>0.0</speed>
  <fix>3d</fix>
</trkpt>
<trkpt lat="40.072842" lon="-105.230575">
  <ele>1586.09</ele>
  <time>2026-08-27T18:31:35Z</time>
  <course>11.78</course>
  <speed>0.0282842712474619</speed>
  <fix>3d</fix>
</trkpt>
<trkpt lat="40.072842" lon="-105.230575">
  <ele>1586.09</ele>
  <time>2026-08-27T18:31:35Z</time>
  <course>266.03</course>
  <speed>0.0</speed>
  <fix>3d</fix>
</trkpt>
<trkpt lat="40.072842" lon="-105.230575">
  <ele>1586.09</ele>
  <time>2026-08-27T18:31:35Z</time>
  <course>11.77</course>
  <speed>0.0282842712474619</speed>
  <fix>3d</fix>
</trkpt>
<trkpt lat="40.072842" lon="-105.230575">
  <ele>1586.09</ele>
  <time>2026-08-27T18:31:35Z</time>
  <course>266.03</course>
  <speed>0.0</speed>
  <fix>3d</fix>
</trkpt>
<trkpt lat="40.072842" lon="-105.230575">
  <ele>1586.09</ele>
  <time>2026-08-27T18:31:35Z</time>
  <course>11.77</course>
  <speed>0.0282842712474619</speed>
  <fix>3d</fix>
</trkpt>
<trkpt lat="40.072842" lon="-105.230575">
  <ele>1586.09</ele>
  <time>2026-08-27T18:31:35Z</time>
  <course>266.03</course>
  <speed>0.0</speed>
  <fix>3d</fix>
</trkpt>
<trkpt lat="40.072842" lon="-105.230575">
  <ele>1586.09</ele>
  <time>2026-08-27T18:31:35Z</time>
  <course>11.76</course>
  <speed>0.0282842712474619</speed>
  <fix>3d</fix>
</trkpt>
<trkpt lat="40.072842" lon="-105.230575">
  <ele>1586.09</ele>
  <time>2026-08-27T18:31:35Z</time>
  <course>266.03</course>
  <speed>0.0</speed>
  <fix>3d</fix>
</trkpt>
<trkpt lat="40.072842" lon="-105.230575">
  <ele>1586.09</ele>
  <time>2026-08-27T18:31:35Z</time>
  <course>11.75</course>
  <speed>0.0282842712474619</speed>
  <fix>3d</fix>
</trkpt>
<trkpt lat="40.072842" lon="-105.230575">
  <ele>1586.09</ele>
  <time>2026-08-27T18:31:35Z</time>
  <course>266.03</course>
  <speed>0.0</speed>
  <fix>3d</fix>
</trkpt>
<trkpt lat="40.072842" lon="-105.230575">
  <ele>1586.09</ele>
  <time>2026-08-27T18:31:35Z</time>
  <course>11.74</course>
  <speed>0.03605551275463989</speed>
  <fix>3d</fix>
</trkpt>
<trkpt lat="40.072842" lon="-105.230575">
  <ele>1586.09</ele>
  <time>2026-08-27T18:31:35Z</time>
  <course>266.03</course>
  <speed>0.0</speed>
  <fix>3d</fix>
</trkpt>
<trkpt lat="40.072842" lon="-105.230575">
  <ele>1586.09</ele>
  <time>2026-08-27T18:31:35Z</time>
  <course>11.73</course>
  <speed>0.03605551275463989</speed>
  <fix>3d</fix>
</trkpt>
<trkpt lat="40.072842" lon="-105.230575">
  <ele>1586.09</ele>
  <time>2026-08-27T18:31:35Z</time>
  <course>266.03</course>
  <speed>0.0</speed>
  <fix>3d</fix>
</trkpt>
<trkpt lat="40.072842" lon="-105.230575">
  <ele>1586.09</ele>
  <time>2026-08-27T18:31:35Z</time>
  <course>11.73</course>
  <speed>0.03605551275463989</speed>
  <fix>3d</fix>
</trkpt>
<trkpt lat="40.072842" lon="-105.230575">
  <ele>1586.09</ele>
  <time>2026-08-27T18:31:35Z</time>
  <course>266.03</course>
  <speed>0.0</speed>
  <fix>3d</fix>
</trkpt>
<trkpt lat="40.072842" lon="-105.230575">
  <ele>1586.09</ele>
  <time>2026-08-27T18:31:35Z</time>
  <course>11.72</course>
  <speed>0.03605551275463989</speed>
  <fix>3d</fix>
</trkpt>
<trkpt lat="40.072842" lon="-105.230575">
  <ele>1586.09</ele>
  <time>2026-08-27T18:31:35Z</time>
  <course>266.03</course>
  <speed>0.0</speed>
  <fix>3d</fix>
</trkpt>
<trkpt lat="40.072842" lon="-105.230575">
  <ele>1586.09</ele>
  <time>2026-08-27T18:31:35Z</time>
  <course>11.71</course>
  <speed>0.03605551275463989</speed>
  <fix>3d</fix>
</trkpt>
<trkpt lat="40.072842" lon="-105.230575">
  <ele>1586.09</ele>
  <time>2026-08-27T18:31:35Z</time>
  <course>266.03</course>
  <speed>0.0</speed>
  <fix>3d</fix>
</trkpt>
<trkpt lat="40.072842" lon="-105.230575">
  <ele>1586.09</ele>
  <time>2026-08-27T18:31:35Z</time>
  <course>11.71</course>
  <speed>0.03605551275463989</speed>
  <fix>3d</fix>
</trkpt>
<trkpt lat="40.072842" lon="-105.230575">
  <ele>1586.09</ele>
  <time>2026-08-27T18:31:35Z</time>
  <course>266.03</course>
  <speed>0.0</speed>
  <fix>3d</fix>
</trkpt>
<trkpt lat="40.072842" lon="-105.230575">
  <ele>1586.09</ele>
  <time>2026-08-27T18:31:35Z</time>
  <course>11.7</course>
  <speed>0.03605551275463989</speed>
  <fix>3d</fix>
</trkpt>
<trkpt lat="40.072842" lon="-105.230575">
  <ele>1586.09</ele>
  <time>2026-08-27T18:31:35Z</time>
  <course>266.03</course>
  <speed>0.0</speed>
  <fix>3d</fix>
</trkpt>
<trkpt lat="40.072842" lon="-105.230575">
  <ele>1586.09</ele>
  <time>2026-08-27T18:31:35Z</time>
  <course>11.69</course>
  <speed>0.03605551275463989</speed>
  <fix>3d</fix>
</trkpt>
<trkpt lat="40.072842" lon="-105.230575">
  <ele>1586.09</ele>
  <time>2026-08-27T18:31:35Z</time>
  <course>266.03</course>
  <speed>0.0</speed>
  <fix>3d</fix>
</trkpt>
<trkpt lat="40.072842" lon="-105.230575">
  <ele>1586.09</ele>
  <time>2026-08-27T18:31:35Z</time>
  <course>11.68</course>
  <speed>0.03605551275463989</speed>
  <fix>3d</fix>
</trkpt>
<trkpt lat="40.072842" lon="-105.230575">
  <ele>1586.09</ele>
  <time>2026-08-27T18:31:35Z</time>
  <course>266.03</course>
  <speed>0.0</speed>
  <fix>3d</fix>
</trkpt>
<trkpt lat="40.072842" lon="-105.230575">
  <ele>1586.09</ele>
  <time>2026-08-27T18:31:35Z</time>
  <course>11.68</course>
  <speed>0.03605551275463989</speed>
  <fix>3d</fix>
</trkpt>
<trkpt lat="40.072842" lon="-105.230575">
  <ele>1586.09</ele>
  <time>2026-08-27T18:31:35Z</time>
  <course>266.03</course>
  <speed>0.0</speed>
  <fix>3d</fix>
</trkpt>
<trkpt lat="40.072842" lon="-105.230575">
  <ele>1586.09</ele>
  <time>2026-08-27T18:31:35Z</time>
  <course>11.67</course>
  <speed>0.03605551275463989</speed>
  <fix>3d</fix>
</trkpt>
<trkpt lat="40.072842" lon="-105.230575">
  <ele>1586.09</ele>
  <time>2026-08-27T18:31:35Z</time>
  <course>266.03</course>
  <speed>0.0</speed>
  <fix>3d</fix>
</trkpt>
<trkpt lat="40.072842" lon="-105.230575">
  <ele>1586.09</ele>
  <time>2026-08-27T18:31:35Z</time>
  <course>11.66</course>
  <speed>0.03605551275463989</speed>
  <fix>3d</fix>
</trkpt>
<trkpt lat="40.072842" lon="-105.230575">
  <ele>1586.09</ele>
  <time>2026-08-27T18:31:35Z</time>
  <course>266.03</course>
  <speed>0.0</speed>
  <fix>3d</fix>
</trkpt>
<trkpt lat="40.072842" lon="-105.230575">
  <ele>1586.09</ele>
  <time>2026-08-27T18:31:35Z</time>
  <course>11.65</course>
  <speed>0.03605551275463989</speed>
  <fix>3d</fix>
</trkpt>
<trkpt lat="40.072842" lon="-105.230575">
  <ele>1586.09</ele>
  <time>2026-08-27T18:31:35Z</time>
  <course>266.03</course>
  <speed>0.0</speed>
  <fix>3d</fix>
</trkpt>
<trkpt lat="40.072842" lon="-105.230575">
  <ele>1586.09</ele>
  <time>2026-08-27T18:31:35Z</time>
  <course>11.65</course>
  <speed>0.03605551275463989</speed>
  <fix>3d</fix>
</trkpt>
<trkpt lat="40.072842" lon="-105.230575">
  <ele>1586.09</ele>
  <time>2026-08-27T18:31:35Z</time>
  <course>266.03</course>
  <speed>0.0</speed>
  <fix>3d</fix>
</trkpt>
<trkpt lat="40.072842" lon="-105.230575">
  <ele>1586.09</ele>
  <time>2026-08-27T18:31:36Z</time>
  <course>11.64</course>
  <speed>0.03605551275463989</speed>
  <fix>3d</fix>
</trkpt>
<trkpt lat="40.072842" lon="-105.230575">
  <ele>1586.09</ele>
  <time>2026-08-27T18:31:36Z</time>
  <course>266.03</course>
  <speed>0.0</speed>
  <fix>3d</fix>
</trkpt>
<trkpt lat="40.072842" lon="-105.230575">
  <ele>1586.09</ele>
  <time>2026-08-27T18:31:36Z</time>
  <course>11.63</course>
  <speed>0.03605551275463989</speed>
  <fix>3d</fix>
</trkpt>
<trkpt lat="40.072842" lon="-105.230575">
  <ele>1586.09</ele>
  <time>2026-08-27T18:31:36Z</time>
  <course>266.03</course>
  <speed>0.0</speed>
  <fix>3d</fix>
</trkpt>
<trkpt lat="40.072842" lon="-105.230575">
  <ele>1586.09</ele>
  <time>2026-08-27T18:31:36Z</time>
  <course>11.63</course>
  <speed>0.03605551275463989</speed>
  <fix>3d</fix>
</trkpt>
<trkpt lat="40.072842" lon="-105.230575">
  <ele>1586.09</ele>
  <time>2026-08-27T18:31:36Z</time>
  <course>266.03</course>
  <speed>0.0</speed>
  <fix>3d</fix>
</trkpt>
<trkpt lat="40.072842" lon="-105.230575">
  <ele>1586.09</ele>
  <time>2026-08-27T18:31:36Z</time>
  <course>11.62</course>
  <speed>0.03605551275463989</speed>
  <fix>3d</fix>
</trkpt>
<trkpt lat="40.072842" lon="-105.230575">
  <ele>1586.09</ele>
  <time>2026-08-27T18:31:36Z</time>
  <course>266.03</course>
  <speed>0.0</speed>
  <fix>3d</fix>
</trkpt>
<trkpt lat="40.072842" lon="-105.230575">
  <ele>1586.09</ele>
  <time>2026-08-27T18:31:36Z</time>
  <course>11.61</course>
  <speed>0.03605551275463989</speed>
  <fix>3d</fix>
</trkpt>
<trkpt lat="40.072842" lon="-105.230575">
  <ele>1586.09</ele>
  <time>2026-08-27T18:31:36Z</time>
  <course>266.03</course>
  <speed>0.0</speed>
  <fix>3d</fix>
</trkpt>
<trkpt lat="40.072842" lon="-105.230575">
  <ele>1586.09</ele>
  <time>2026-08-27T18:31:36Z</time>
  <course>11.61</course>
  <speed>0.03605551275463989</speed>
  <fix>3d</fix>
</trkpt>
<trkpt lat="40.072842" lon="-105.230575">
  <ele>1586.09</ele>
  <time>2026-08-27T18:31:36Z</time>
  <course>266.03</course>
  <speed>0.0</speed>
  <fix>3d</fix>
</trkpt>
<trkpt lat="40.072842" lon="-105.230575">
  <ele>1586.09</ele>
  <time>2026-08-27T18:31:36Z</time>
  <course>11.6</course>
  <speed>0.03605551275463989</speed>
  <fix>3d</fix>
</trkpt>
<trkpt lat="40.072842" lon="-105.230575">
  <ele>1586.09</ele>
  <time>2026-08-27T18:31:36Z</time>
  <course>266.03</course>
  <speed>0.0</speed>
  <fix>3d</fix>
</trkpt>
<trkpt lat="40.072842" lon="-105.230575">
  <ele>1586.09</ele>
  <time>2026-08-27T18:31:36Z</time>
  <course>11.6</course>
  <speed>0.03605551275463989</speed>
  <fix>3d</fix>
</trkpt>
<trkpt lat="40.072842" lon="-105.230575">
  <ele>1586.09</ele>
  <time>2026-08-27T18:31:36Z</time>
  <course>266.03</course>
  <speed>0.0</speed>
  <fix>3d</fix>
</trkpt>
<trkpt lat="40.072842" lon="-105.230575">
  <ele>1586.09</ele>
  <time>2026-08-27T18:31:36Z</time>
  <course>11.59</course>
  <speed>0.03605551275463989</speed>
  <fix>3d</fix>
</trkpt>
<trkpt lat="40.072842" lon="-105.230575">
  <ele>1586.09</ele>
  <time>2026-08-27T18:31:36Z</time>
  <course>266.03</course>
  <speed>0.0</speed>
  <fix>3d</fix>
</trkpt>
<trkpt lat="40.072842" lon="-105.230575">
  <ele>1586.09</ele>
  <time>2026-08-27T18:31:36Z</time>
  <course>11.58</course>
  <speed>0.03605551275463989</speed>
  <fix>3d</fix>
</trkpt>
<trkpt lat="40.072842" lon="-105.230575">
  <ele>1586.09</ele>
  <time>2026-08-27T18:31:36Z</time>
  <course>266.03</course>
  <speed>0.0</speed>
  <fix>3d</fix>
</trkpt>
<trkpt lat="40.072842" lon="-105.230575">
  <ele>1586.09</ele>
  <time>2026-08-27T18:31:36Z</time>
  <course>11.58</course>
  <speed>0.03605551275463989</speed>
  <fix>3d</fix>
</trkpt>
<trkpt lat="40.072842" lon="-105.230575">
  <ele>1586.09</ele>
  <time>2026-08-27T18:31:36Z</time>
  <course>266.03</course>
  <speed>0.0</speed>
  <fix>3d</fix>
</trkpt>
<trkpt lat="40.072842" lon="-105.230575">
  <ele>1586.09</ele>
  <time>2026-08-27T18:31:36Z</time>
  <course>11.57</course>
  <speed>0.03605551275463989</speed>
  <fix>3d</fix>
</trkpt>
<trkpt lat="40.072842" lon="-105.230575">
  <ele>1586.09</ele>
  <time>2026-08-27T18:31:36Z</time>
  <course>266.03</course>
  <speed>0.0</speed>
  <fix>3d</fix>
</trkpt>
<trkpt lat="40.072842" lon="-105.230575">
  <ele>1586.09</ele>
  <time>2026-08-27T18:31:36Z</time>
  <course>11.56</course>
  <speed>0.03605551275463989</speed>
  <fix>3d</fix>
</trkpt>
<trkpt lat="40.072842" lon="-105.230575">
  <ele>1586.09</ele>
  <time>2026-08-27T18:31:36Z</time>
  <course>266.03</course>
  <speed>0.0</speed>
  <fix>3d</fix>
</trkpt>
<trkpt lat="40.072842" lon="-105.230575">
  <ele>1586.09</ele>
  <time>2026-08-27T18:31:36Z</time>
  <course>11.56</course>
  <speed>0.03605551275463989</speed>
  <fix>3d</fix>
</trkpt>
<trkpt lat="40.072842" lon="-105.230575">
  <ele>1586.09</ele>
  <time>2026-08-27T18:31:36Z</time>
  <course>266.03</course>
  <speed>0.0</speed>
  <fix>3d</fix>
</trkpt>
<trkpt lat="40.072842" lon="-105.230575">
  <ele>1586.09</ele>
  <time>2026-08-27T18:31:36Z</time>
  <course>11.55</course>
  <speed>0.03605551275463989</speed>
  <fix>3d</fix>
</trkpt>
<trkpt lat="40.072842" lon="-105.230575">
  <ele>1586.09</ele>
  <time>2026-08-27T18:31:36Z</time>
  <course>266.03</course>
  <speed>0.0</speed>
  <fix>3d</fix>
</trkpt>
<trkpt lat="40.072842" lon="-105.230575">
  <ele>1586.09</ele>
  <time>2026-08-27T18:31:36Z</time>
  <course>11.55</course>
  <speed>0.03605551275463989</speed>
  <fix>3d</fix>
</trkpt>
<trkpt lat="40.072842" lon="-105.230575">
  <ele>1586.09</ele>
  <time>2026-08-27T18:31:36Z</time>
  <course>266.03</course>
  <speed>0.0</speed>
  <fix>3d</fix>
</trkpt>
<trkpt lat="40.072842" lon="-105.230575">
  <ele>1586.09</ele>
  <time>2026-08-27T18:31:36Z</time>
  <course>11.54</course>
  <speed>0.03605551275463989</speed>
  <fix>3d</fix>
</trkpt>
<trkpt lat="40.072842" lon="-105.230575">
  <ele>1586.09</ele>
  <time>2026-08-27T18:31:36Z</time>
  <course>266.03</course>
  <speed>0.0</speed>
  <fix>3d</fix>
</trkpt>
<trkpt lat="40.072842" lon="-105.230575">
  <ele>1586.09</ele>
  <time>2026-08-27T18:31:36Z</time>
  <course>11.53</course>
  <speed>0.03605551275463989</speed>
  <fix>3d</fix>
</trkpt>
<trkpt lat="40.072842" lon="-105.230575">
  <ele>1586.09</ele>
  <time>2026-08-27T18:31:36Z</time>
  <course>266.03</course>
  <speed>0.0</speed>
  <fix>3d</fix>
</trkpt>
<trkpt lat="40.072842" lon="-105.230575">
  <ele>1586.09</ele>
  <time>2026-08-27T18:31:36Z</time>
  <course>11.53</course>
  <speed>0.03605551275463989</speed>
  <fix>3d</fix>
</trkpt>
<trkpt lat="40.072842" lon="-105.230575">
  <ele>1586.09</ele>
  <time>2026-08-27T18:31:36Z</time>
  <course>266.03</course>
  <speed>0.0</speed>
  <fix>3d</fix>
</trkpt>
<trkpt lat="40.072842" lon="-105.230575">
  <ele>1586.09</ele>
  <time>2026-08-27T18:31:36Z</time>
  <course>11.52</course>
  <speed>0.03605551275463989</speed>
  <fix>3d</fix>
</trkpt>
<trkpt lat="40.072842" lon="-105.230575">
  <ele>1586.09</ele>
  <time>2026-08-27T18:31:36Z</time>
  <course>266.03</course>
  <speed>0.0</speed>
  <fix>3d</fix>
</trkpt>
<trkpt lat="40.072842" lon="-105.230575">
  <ele>1586.09</ele>
  <time>2026-08-27T18:31:36Z</time>
  <course>11.52</course>
  <speed>0.03605551275463989</speed>
  <fix>3d</fix>
</trkpt>
<trkpt lat="40.072842" lon="-105.230575">
  <ele>1586.09</ele>
  <time>2026-08-27T18:31:36Z</time>
  <course>266.03</course>
  <speed>0.0</speed>
  <fix>3d</fix>
</trkpt>
<trkpt lat="40.072842" lon="-105.230575">
  <ele>1586.09</ele>
  <time>2026-08-27T18:31:36Z</time>
  <course>11.51</course>
  <speed>0.03605551275463989</speed>
  <fix>3d</fix>
</trkpt>
<trkpt lat="40.072842" lon="-105.230575">
  <ele>1586.09</ele>
  <time>2026-08-27T18:31:36Z</time>
  <course>266.03</course>
  <speed>0.0</speed>
  <fix>3d</fix>
</trkpt>
<trkpt lat="40.072842" lon="-105.230575">
  <ele>1586.09</ele>
  <time>2026-08-27T18:31:36Z</time>
  <course>11.51</course>
  <speed>0.03605551275463989</speed>
  <fix>3d</fix>
</trkpt>
<trkpt lat="40.072842" lon="-105.230575">
  <ele>1586.09</ele>
  <time>2026-08-27T18:31:36Z</time>
  <course>266.03</course>
  <speed>0.0</speed>
  <fix>3d</fix>
</trkpt>
<trkpt lat="40.072842" lon="-105.230575">
  <ele>1586.09</ele>
  <time>2026-08-27T18:31:36Z</time>
  <course>11.5</course>
  <speed>0.044721359549995794</speed>
  <fix>3d</fix>
</trkpt>
<trkpt lat="40.072842" lon="-105.230575">
  <ele>1586.09</ele>
  <time>2026-08-27T18:31:36Z</time>
  <course>266.03</course>
  <speed>0.0</speed>
  <fix>3d</fix>
</trkpt>
<trkpt lat="40.072842" lon="-105.230575">
  <ele>1586.09</ele>
  <time>2026-08-27T18:31:36Z</time>
  <course>11.49</course>
  <speed>0.044721359549995794</speed>
  <fix>3d</fix>
</trkpt>
<trkpt lat="40.072842" lon="-105.230575">
  <ele>1586.09</ele>
  <time>2026-08-27T18:31:36Z</time>
  <course>266.03</course>
  <speed>0.0</speed>
  <fix>3d</fix>
</trkpt>
<trkpt lat="40.072842" lon="-105.230575">
  <ele>1586.09</ele>
  <time>2026-08-27T18:31:36Z</time>
  <course>11.49</course>
  <speed>0.044721359549995794</speed>
  <fix>3d</fix>
</trkpt>
<trkpt lat="40.072842" lon="-105.230575">
  <ele>1586.09</ele>
  <time>2026-08-27T18:31:36Z</time>
  <course>266.03</course>
  <speed>0.0</speed>
  <fix>3d</fix>
</trkpt>
<trkpt lat="40.072842" lon="-105.230575">
  <ele>1586.09</ele>
  <time>2026-08-27T18:31:36Z</time>
  <course>11.48</course>
  <speed>0.044721359549995794</speed>
  <fix>3d</fix>
</trkpt>
<trkpt lat="40.072842" lon="-105.230575">
  <ele>1586.09</ele>
  <time>2026-08-27T18:31:36Z</time>
  <course>266.03</course>
  <speed>0.0</speed>
  <fix>3d</fix>
</trkpt>
<trkpt lat="40.072842" lon="-105.230575">
  <ele>1586.09</ele>
  <time>2026-08-27T18:31:36Z</time>
  <course>11.48</course>
  <speed>0.044721359549995794</speed>
  <fix>3d</fix>
</trkpt>
<trkpt lat="40.072842" lon="-105.230575">
  <ele>1586.09</ele>
  <time>2026-08-27T18:31:36Z</time>
  <course>266.03</course>
  <speed>0.0</speed>
  <fix>3d</fix>
</trkpt>
<trkpt lat="40.072842" lon="-105.230575">
  <ele>1586.09</ele>
  <time>2026-08-27T18:31:36Z</time>
  <course>11.47</course>
  <speed>0.044721359549995794</speed>
  <fix>3d</fix>
</trkpt>
<trkpt lat="40.072842" lon="-105.230575">
  <ele>1586.09</ele>
  <time>2026-08-27T18:31:36Z</time>
  <course>266.03</course>
  <speed>0.0</speed>
  <fix>3d</fix>
</trkpt>
<trkpt lat="40.072842" lon="-105.230575">
  <ele>1586.09</ele>
  <time>2026-08-27T18:31:36Z</time>
  <course>11.47</course>
  <speed>0.044721359549995794</speed>
  <fix>3d</fix>
</trkpt>
<trkpt lat="40.072842" lon="-105.230575">
  <ele>1586.09</ele>
  <time>2026-08-27T18:31:36Z</time>
  <course>266.03</course>
  <speed>0.0</speed>
  <fix>3d</fix>
</trkpt>
<trkpt lat="40.072842" lon="-105.230575">
  <ele>1586.09</ele>
  <time>2026-08-27T18:31:36Z</time>
  <course>11.47</course>
  <speed>0.044721359549995794</speed>
  <fix>3d</fix>
</trkpt>
<trkpt lat="40.072842" lon="-105.230575">
  <ele>1586.09</ele>
  <time>2026-08-27T18:31:36Z</time>
  <course>266.03</course>
  <speed>0.0</speed>
  <fix>3d</fix>
</trkpt>
<trkpt lat="40.072842" lon="-105.230575">
  <ele>1586.09</ele>
  <time>2026-08-27T18:31:36Z</time>
  <course>11.46</course>
  <speed>0.044721359549995794</speed>
  <fix>3d</fix>
</trkpt>
<trkpt lat="40.072842" lon="-105.230575">
  <ele>1586.09</ele>
  <time>2026-08-27T18:31:36Z</time>
  <course>266.03</course>
  <speed>0.0</speed>
  <fix>3d</fix>
</trkpt>
<trkpt lat="40.072842" lon="-105.230575">
  <ele>1586.16</ele>
  <time>2026-08-27T18:31:36Z</time>
  <course>11.45</course>
  <speed>0.0</speed>
  <fix>3d</fix>
</trkpt>
<trkpt lat="40.072842" lon="-105.230575">
  <ele>1586.09</ele>
  <time>2026-08-27T18:31:36Z</time>
  <course>297.19</course>
  <speed>0.0</speed>
  <fix>3d</fix>
</trkpt>
<trkpt lat="40.072842" lon="-105.230575">
  <ele>1586.16</ele>
  <time>2026-08-27T18:31:36Z</time>
  <course>11.45</course>
  <speed>0.0</speed>
  <fix>3d</fix>
</trkpt>
<trkpt lat="40.072842" lon="-105.230575">
  <ele>1586.09</ele>
  <time>2026-08-27T18:31:36Z</time>
  <course>269.87</course>
  <speed>0.0</speed>
  <fix>3d</fix>
</trkpt>
<trkpt lat="40.072842" lon="-105.230575">
  <ele>1586.16</ele>
  <time>2026-08-27T18:31:36Z</time>
  <course>11.44</course>
  <speed>0.0</speed>
  <fix>3d</fix>
</trkpt>
<trkpt lat="40.072842" lon="-105.230575">
  <ele>1586.09</ele>
  <time>2026-08-27T18:31:36Z</time>
  <course>241.23</course>
  <speed>0.0</speed>
  <fix>3d</fix>
</trkpt>
<trkpt lat="40.072842" lon="-105.230575">
  <ele>1586.16</ele>
  <time>2026-08-27T18:31:36Z</time>
  <course>11.44</course>
  <speed>0.0</speed>
  <fix>3d</fix>
</trkpt>
<trkpt lat="40.072842" lon="-105.230575">
  <ele>1586.09</ele>
  <time>2026-08-27T18:31:36Z</time>
  <course>93.08</course>
  <speed>0.0</speed>
  <fix>3d</fix>
</trkpt>
<trkpt lat="40.072842" lon="-105.230575">
  <ele>1586.17</ele>
  <time>2026-08-27T18:31:36Z</time>
  <course>11.44</course>
  <speed>0.0</speed>
  <fix>3d</fix>
</trkpt>
<trkpt lat="40.072842" lon="-105.230575">
  <ele>1586.09</ele>
  <time>2026-08-27T18:31:36Z</time>
  <course>317.31</course>
  <speed>0.0</speed>
  <fix>3d</fix>
</trkpt>
<trkpt lat="40.072842" lon="-105.230575">
  <ele>1586.17</ele>
  <time>2026-08-27T18:31:36Z</time>
  <course>11.43</course>
  <speed>0.01</speed>
  <fix>3d</fix>
</trkpt>
<trkpt lat="40.072842" lon="-105.230575">
  <ele>1586.09</ele>
  <time>2026-08-27T18:31:36Z</time>
  <course>265.24</course>
  <speed>0.0</speed>
  <fix>3d</fix>
</trkpt>
<trkpt lat="40.072842" lon="-105.230575">
  <ele>1586.17</ele>
  <time>2026-08-27T18:31:36Z</time>
  <course>11.43</course>
  <speed>0.01</speed>
  <fix>3d</fix>
</trkpt>
<trkpt lat="40.072842" lon="-105.230575">
  <ele>1586.09</ele>
  <time>2026-08-27T18:31:36Z</time>
  <course>261.76</course>
  <speed>0.0</speed>
  <fix>3d</fix>
</trkpt>
<trkpt lat="40.072842" lon="-105.230575">
  <ele>1586.17</ele>
  <time>2026-08-27T18:31:36Z</time>
  <course>11.42</course>
  <speed>0.01</speed>
  <fix>3d</fix>
</trkpt>
<trkpt lat="40.072842" lon="-105.230575">
  <ele>1586.09</ele>
  <time>2026-08-27T18:31:36Z</time>
  <course>266.78</course>
  <speed>0.0</speed>
  <fix>3d</fix>
</trkpt>
<trkpt lat="40.072842" lon="-105.230575">
  <ele>1586.17</ele>
  <time>2026-08-27T18:31:36Z</time>
  <course>11.42</course>
  <speed>0.01414213562373095</speed>
  <fix>3d</fix>
</trkpt>
<trkpt lat="40.072842" lon="-105.230575">
  <ele>1586.09</ele>
  <time>2026-08-27T18:31:36Z</time>
  <course>266.53</course>
  <speed>0.0</speed>
  <fix>3d</fix>
</trkpt>
<trkpt lat="40.072842" lon="-105.230575">
  <ele>1586.17</ele>
  <time>2026-08-27T18:31:36Z</time>
  <course>11.42</course>
  <speed>0.01414213562373095</speed>
  <fix>3d</fix>
</trkpt>
<trkpt lat="40.072842" lon="-105.230575">
  <ele>1586.09</ele>
  <time>2026-08-27T18:31:36Z</time>
  <course>265.88</course>
  <speed>0.0</speed>
  <fix>3d</fix>
</trkpt>
<trkpt lat="40.072842" lon="-105.230575">
  <ele>1586.17</ele>
  <time>2026-08-27T18:31:36Z</time>
  <course>11.41</course>
  <speed>0.01414213562373095</speed>
  <fix>3d</fix>
</trkpt>
<trkpt lat="40.072842" lon="-105.230575">
  <ele>1586.09</ele>
  <time>2026-08-27T18:31:36Z</time>
  <course>265.99</course>
  <speed>0.0</speed>
  <fix>3d</fix>
</trkpt>
<trkpt lat="40.072842" lon="-105.230575">
  <ele>1586.17</ele>
  <time>2026-08-27T18:31:36Z</time>
  <course>11.41</course>
  <speed>0.022360679774997897</speed>
  <fix>3d</fix>
</trkpt>
<trkpt lat="40.072842" lon="-105.230575">
  <ele>1586.09</ele>
  <time>2026-08-27T18:31:36Z</time>
  <course>266.06</course>
  <speed>0.0</speed>
  <fix>3d</fix>
</trkpt>
<trkpt lat="40.072842" lon="-105.230575">
  <ele>1586.17</ele>
  <time>2026-08-27T18:31:36Z</time>
  <course>11.4</course>
  <speed>0.022360679774997897</speed>
  <fix>3d</fix>
</trkpt>
<trkpt lat="40.072842" lon="-105.230575">
  <ele>1586.09</ele>
  <time>2026-08-27T18:31:36Z</time>
  <course>266.04</course>
  <speed>0.0</speed>
  <fix>3d</fix>
</trkpt>
<trkpt lat="40.072842" lon="-105.230575">
  <ele>1586.17</ele>
  <time>2026-08-27T18:31:36Z</time>
  <course>11.4</course>
  <speed>0.022360679774997897</speed>
  <fix>3d</fix>
</trkpt>
<trkpt lat="40.072842" lon="-105.230575">
  <ele>1586.09</ele>
  <time>2026-08-27T18:31:36Z</time>
  <course>266.03</course>
  <speed>0.0</speed>
  <fix>3d</fix>
</trkpt>
<trkpt lat="40.072842" lon="-105.230575">
  <ele>1586.17</ele>
  <time>2026-08-27T18:31:36Z</time>
  <course>11.4</course>
  <speed>0.022360679774997897</speed>
  <fix>3d</fix>
</trkpt>
<trkpt lat="40.072842" lon="-105.230575">
  <ele>1586.09</ele>
  <time>2026-08-27T18:31:36Z</time>
  <course>266.04</course>
  <speed>0.0</speed>
  <fix>3d</fix>
</trkpt>
<trkpt lat="40.0728419" lon="-105.230575">
  <ele>1586.17</ele>
  <time>2026-08-27T18:31:36Z</time>
  <course>11.39</course>
  <speed>0.022360679774997897</speed>
  <fix>3d</fix>
</trkpt>
<trkpt lat="40.072842" lon="-105.230575">
  <ele>1586.09</ele>
  <time>2026-08-27T18:31:36Z</time>
  <course>223.26</course>
  <speed>0.0</speed>
  <fix>3d</fix>
</trkpt>
<trkpt lat="40.0728419" lon="-105.2305749">
  <ele>1586.17</ele>
  <time>2026-08-27T18:31:36Z</time>
  <course>11.39</course>
  <speed>0.022360679774997897</speed>
  <fix>3d</fix>
</trkpt>
<trkpt lat="40.072842" lon="-105.230575">
  <ele>1586.09</ele>
  <time>2026-08-27T18:31:36Z</time>
  <course>208.38</course>
  <speed>0.0</speed>
  <fix>3d</fix>
</trkpt>
<trkpt lat="40.0728419" lon="-105.2305749">
  <ele>1586.17</ele>
  <time>2026-08-27T18:31:36Z</time>
  <course>11.38</course>
  <speed>0.022360679774997897</speed>
  <fix>3d</fix>
</trkpt>
<trkpt lat="40.072842" lon="-105.230575">
  <ele>1586.09</ele>
  <time>2026-08-27T18:31:36Z</time>
  <course>165.97</course>
  <speed>0.0</speed>
  <fix>3d</fix>
</trkpt>
<trkpt lat="40.0728419" lon="-105.2305749">
  <ele>1586.18</ele>
  <time>2026-08-27T18:31:36Z</time>
  <course>11.38</course>
  <speed>0.022360679774997897</speed>
  <fix>3d</fix>
</trkpt>
<trkpt lat="40.072842" lon="-105.230575">
  <ele>1586.09</ele>
  <time>2026-08-27T18:31:36Z</time>
  <course>357.7</course>
  <speed>0.0</speed>
  <fix>3d</fix>
</trkpt>
<trkpt lat="40.0728419" lon="-105.2305749">
  <ele>1586.18</ele>
  <time>2026-08-27T18:31:36Z</time>
  <course>11.37</course>
  <speed>0.022360679774997897</speed>
  <fix>3d</fix>
</trkpt>
<trkpt lat="40.072842" lon="-105.230575">
  <ele>1586.09</ele>
  <time>2026-08-27T18:31:36Z</time>
  <course>254.86</course>
  <speed>0.0</speed>
  <fix>3d</fix>
</trkpt>
<trkpt lat="40.0728419" lon="-105.2305749">
  <ele>1586.18</ele>
  <time>2026-08-27T18:31:36Z</time>
  <course>11.37</course>
  <speed>0.022360679774997897</speed>
  <fix>3d</fix>
</trkpt>
<trkpt lat="40.072842" lon="-105.230575">
  <ele>1586.09</ele>
  <time>2026-08-27T18:31:36Z</time>
  <course>46.25</course>
  <speed>0.0</speed>
  <fix>3d</fix>
</trkpt>
<trkpt lat="40.0728419" lon="-105.2305749">
  <ele>1586.17</ele>
  <time>2026-08-27T18:31:36Z</time>
  <course>11.37</course>
  <speed>0.022360679774997897</speed>
  <fix>3d</fix>
</trkpt>
<trkpt lat="40.072842" lon="-105.230575">
  <ele>1586.09</ele>
  <time>2026-08-27T18:31:36Z</time>
  <course>24.38</course>
  <speed>0.0</speed>
  <fix>3d</fix>
</trkpt>
<trkpt lat="40.0728419" lon="-105.2305749">
  <ele>1586.17</ele>
  <time>2026-08-27T18:31:36Z</time>
  <course>11.36</course>
  <speed>0.022360679774997897</speed>
  <fix>3d</fix>
</trkpt>
<trkpt lat="40.072842" lon="-105.230575">
  <ele>1586.09</ele>
  <time>2026-08-27T18:31:36Z</time>
  <course>336.73</course>
  <speed>0.0</speed>
  <fix>3d</fix>
</trkpt>
<trkpt lat="40.0728419" lon="-105.2305749">
  <ele>1586.17</ele>
  <time>2026-08-27T18:31:36Z</time>
  <course>11.36</course>
  <speed>0.022360679774997897</speed>
  <fix>3d</fix>
</trkpt>
<trkpt lat="40.072842" lon="-105.230575">
  <ele>1586.09</ele>
  <time>2026-08-27T18:31:36Z</time>
  <course>213.83</course>
  <speed>0.0</speed>
  <fix>3d</fix>
</trkpt>
<trkpt lat="40.0728419" lon="-105.2305749">
  <ele>1586.17</ele>
  <time>2026-08-27T18:31:36Z</time>
  <course>11.35</course>
  <speed>0.022360679774997897</speed>
  <fix>3d</fix>
</trkpt>
<trkpt lat="40.072842" lon="-105.230575">
  <ele>1586.09</ele>
  <time>2026-08-27T18:31:36Z</time>
  <course>231.44</course>
  <speed>0.0</speed>
  <fix>3d</fix>
</trkpt>
<trkpt lat="40.0728419" lon="-105.2305749">
  <ele>1586.16</ele>
  <time>2026-08-27T18:31:36Z</time>
  <course>11.35</course>
  <speed>0.01414213562373095</speed>
  <fix>3d</fix>
</trkpt>
<trkpt lat="40.072842" lon="-105.230575">
  <ele>1586.09</ele>
  <time>2026-08-27T18:31:36Z</time>
  <course>297.82</course>
  <speed>0.0</speed>
  <fix>3d</fix>
</trkpt>
<trkpt lat="40.0728419" lon="-105.2305749">
  <ele>1586.16</ele>
  <time>2026-08-27T18:31:36Z</time>
  <course>11.34</course>
  <speed>0.01414213562373095</speed>
  <fix>3d</fix>
</trkpt>
<trkpt lat="40.072842" lon="-105.230575">
  <ele>1586.09</ele>
  <time>2026-08-27T18:31:36Z</time>
  <course>265.92</course>
  <speed>0.0</speed>
  <fix>3d</fix>
</trkpt>
<trkpt lat="40.0728419" lon="-105.2305749">
  <ele>1586.16</ele>
  <time>2026-08-27T18:31:36Z</time>
  <course>11.34</course>
  <speed>0.01414213562373095</speed>
  <fix>3d</fix>
</trkpt>
<trkpt lat="40.072842" lon="-105.230575">
  <ele>1586.09</ele>
  <time>2026-08-27T18:31:36Z</time>
  <course>113.24</course>
  <speed>0.0</speed>
  <fix>3d</fix>
</trkpt>
<trkpt lat="40.0728419" lon="-105.2305749">
  <ele>1586.16</ele>
  <time>2026-08-27T18:31:36Z</time>
  <course>11.33</course>
  <speed>0.01414213562373095</speed>
  <fix>3d</fix>
</trkpt>
<trkpt lat="40.072842" lon="-105.230575">
  <ele>1586.09</ele>
  <time>2026-08-27T18:31:36Z</time>
  <course>92.1</course>
  <speed>0.0</speed>
  <fix>3d</fix>
</trkpt>
<trkpt lat="40.0728419" lon="-105.2305749">
  <ele>1586.16</ele>
  <time>2026-08-27T18:31:36Z</time>
  <course>11.33</course>
  <speed>0.01414213562373095</speed>
  <fix>3d</fix>
</trkpt>
<trkpt lat="40.072842" lon="-105.230575">
  <ele>1586.09</ele>
  <time>2026-08-27T18:31:36Z</time>
  <course>40.65</course>
  <speed>0.0</speed>
  <fix>3d</fix>
</trkpt>
<trkpt lat="40.0728419" lon="-105.2305749">
  <ele>1586.15</ele>
  <time>2026-08-27T18:31:36Z</time>
  <course>11.32</course>
  <speed>0.01414213562373095</speed>
  <fix>3d</fix>
</trkpt>
<trkpt lat="40.072842" lon="-105.230575">
  <ele>1586.09</ele>
  <time>2026-08-27T18:31:36Z</time>
  <course>266.79</course>
  <speed>0.0</speed>
  <fix>3d</fix>
</trkpt>
<trkpt lat="40.0728419" lon="-105.2305749">
  <ele>1586.15</ele>
  <time>2026-08-27T18:31:36Z</time>
  <course>11.32</course>
  <speed>0.01</speed>
  <fix>3d</fix>
</trkpt>
<trkpt lat="40.072842" lon="-105.230575">
  <ele>1586.09</ele>
  <time>2026-08-27T18:31:36Z</time>
  <course>228.24</course>
  <speed>0.0</speed>
  <fix>3d</fix>
</trkpt>
<trkpt lat="40.0728419" lon="-105.2305749">
  <ele>1586.15</ele>
  <time>2026-08-27T18:31:36Z</time>
  <course>11.31</course>
  <speed>0.01</speed>
  <fix>3d</fix>
</trkpt>
<trkpt lat="40.072842" lon="-105.230575">
  <ele>1586.09</ele>
  <time>2026-08-27T18:31:36Z</time>
  <course>34.28</course>
  <speed>0.0</speed>
  <fix>3d</fix>
</trkpt>
<trkpt lat="40.0728419" lon="-105.2305749">
  <ele>1586.15</ele>
  <time>2026-08-27T18:31:36Z</time>
  <course>11.31</course>
  <speed>0.0</speed>
  <fix>3d</fix>
</trkpt>
<trkpt lat="40.072842" lon="-105.230575">
  <ele>1586.09</ele>
  <time>2026-08-27T18:31:36Z</time>
  <course>273.13</course>
  <speed>0.0</speed>
  <fix>3d</fix>
</trkpt>
<trkpt lat="40.0728419" lon="-105.2305749">
  <ele>1586.15</ele>
  <time>2026-08-27T18:31:36Z</time>
  <course>11.31</course>
  <speed>0.0</speed>
  <fix>3d</fix>
</trkpt>
<trkpt lat="40.072842" lon="-105.230575">
  <ele>1586.09</ele>
  <time>2026-08-27T18:31:36Z</time>
  <course>264.4</course>
  <speed>0.0</speed>
  <fix>3d</fix>
</trkpt>
<trkpt lat="40.0728419" lon="-105.2305749">
  <ele>1586.15</ele>
  <time>2026-08-27T18:31:36Z</time>
  <course>11.3</course>
  <speed>0.0</speed>
  <fix>3d</fix>
</trkpt>
<trkpt lat="40.072842" lon="-105.230575">
  <ele>1586.09</ele>
  <time>2026-08-27T18:31:36Z</time>
  <course>265.21</course>
  <speed>0.0</speed>
  <fix>3d</fix>
</trkpt>
<trkpt lat="40.0728419" lon="-105.2305749">
  <ele>1586.16</ele>
  <time>2026-08-27T18:31:36Z</time>
  <course>11.3</course>
  <speed>0.0</speed>
  <fix>3d</fix>
</trkpt>
<trkpt lat="40.072842" lon="-105.230575">
  <ele>1586.09</ele>
  <time>2026-08-27T18:31:36Z</time>
  <course>266.38</course>
  <speed>0.0</speed>
  <fix>3d</fix>
</trkpt>
<trkpt lat="40.0728419" lon="-105.2305749">
  <ele>1586.16</ele>
  <time>2026-08-27T18:31:36Z</time>
  <course>11.29</course>
  <speed>0.0</speed>
  <fix>3d</fix>
</trkpt>
<trkpt lat="40.072842" lon="-105.230575">
  <ele>1586.09</ele>
  <time>2026-08-27T18:31:36Z</time>
  <course>266.1</course>
  <speed>0.0</speed>
  <fix>3d</fix>
</trkpt>
<trkpt lat="40.0728419" lon="-105.2305749">
  <ele>1586.16</ele>
  <time>2026-08-27T18:31:36Z</time>
  <course>11.29</course>
  <speed>0.0</speed>
  <fix>3d</fix>
</trkpt>
<trkpt lat="40.072842" lon="-105.230575">
  <ele>1586.09</ele>
  <time>2026-08-27T18:31:36Z</time>
  <course>265.98</course>
  <speed>0.0</speed>
  <fix>3d</fix>
</trkpt>
<trkpt lat="40.0728419" lon="-105.2305749">
  <ele>1586.16</ele>
  <time>2026-08-27T18:31:36Z</time>
  <course>11.28</course>
  <speed>0.0</speed>
  <fix>3d</fix>
</trkpt>
<trkpt lat="40.072842" lon="-105.230575">
  <ele>1586.09</ele>
  <time>2026-08-27T18:31:36Z</time>
  <course>266.03</course>
  <speed>0.0</speed>
  <fix>3d</fix>
</trkpt>
<trkpt lat="40.0728419" lon="-105.2305749">
  <ele>1586.15</ele>
  <time>2026-08-27T18:31:36Z</time>
  <course>11.28</course>
  <speed>0.0</speed>
  <fix>3d</fix>
</trkpt>
<trkpt lat="40.072842" lon="-105.230575">
  <ele>1586.09</ele>
  <time>2026-08-27T18:31:36Z</time>
  <course>291.92</course>
  <speed>0.0</speed>
  <fix>3d</fix>
</trkpt>
<trkpt lat="40.0728419" lon="-105.2305749">
  <ele>1586.15</ele>
  <time>2026-08-27T18:31:36Z</time>
  <course>11.28</course>
  <speed>0.0</speed>
  <fix>3d</fix>
</trkpt>
<trkpt lat="40.072842" lon="-105.230575">
  <ele>1586.09</ele>
  <time>2026-08-27T18:31:36Z</time>
  <course>271.42</course>
  <speed>0.0</speed>
  <fix>3d</fix>
</trkpt>
<trkpt lat="40.0728419" lon="-105.2305749">
  <ele>1586.14</ele>
  <time>2026-08-27T18:31:36Z</time>
  <course>11.27</course>
  <speed>0.0</speed>
  <fix>3d</fix>
</trkpt>
<trkpt lat="40.072842" lon="-105.230575">
  <ele>1586.09</ele>
  <time>2026-08-27T18:31:36Z</time>
  <course>234.21</course>
  <speed>0.0</speed>
  <fix>3d</fix>
</trkpt>
<trkpt lat="40.0728419" lon="-105.2305749">
  <ele>1586.14</ele>
  <time>2026-08-27T18:31:36Z</time>
  <course>11.27</course>
  <speed>0.0</speed>
  <fix>3d</fix>
</trkpt>
<trkpt lat="40.072842" lon="-105.230575">
  <ele>1586.09</ele>
  <time>2026-08-27T18:31:36Z</time>
  <course>87.29</course>
  <speed>0.0</speed>
  <fix>3d</fix>
</trkpt>
<trkpt lat="40.0728419" lon="-105.2305749">
  <ele>1586.15</ele>
  <time>2026-08-27T18:31:36Z</time>
  <course>11.27</course>
  <speed>0.0</speed>
  <fix>3d</fix>
</trkpt>
<trkpt lat="40.072842" lon="-105.230575">
  <ele>1586.09</ele>
  <time>2026-08-27T18:31:36Z</time>
  <course>300.8</course>
  <speed>0.0</speed>
  <fix>3d</fix>
</trkpt>
<trkpt lat="40.0728419" lon="-105.2305749">
  <ele>1586.15</ele>
  <time>2026-08-27T18:31:36Z</time>
  <course>11.26</course>
  <speed>0.0</speed>
  <fix>3d</fix>
</trkpt>
<trkpt lat="40.072842" lon="-105.230575">
  <ele>1586.09</ele>
  <time>2026-08-27T18:31:36Z</time>
  <course>264.05</course>
  <speed>0.0</speed>
  <fix>3d</fix>
</trkpt>
<trkpt lat="40.0728419" lon="-105.2305749">
  <ele>1586.16</ele>
  <time>2026-08-27T18:31:36Z</time>
  <course>11.26</course>
  <speed>0.0</speed>
  <fix>3d</fix>
</trkpt>
<trkpt lat="40.072842" lon="-105.230575">
  <ele>1586.09</ele>
  <time>2026-08-27T18:31:36Z</time>
  <course>262.26</course>
  <speed>0.0</speed>
  <fix>3d</fix>
</trkpt>
<trkpt lat="40.0728419" lon="-105.2305749">
  <ele>1586.17</ele>
  <time>2026-08-27T18:31:36Z</time>
  <course>11.26</course>
  <speed>0.0</speed>
  <fix>3d</fix>
</trkpt>
<trkpt lat="40.072842" lon="-105.230575">
  <ele>1586.09</ele>
  <time>2026-08-27T18:31:36Z</time>
  <course>266.93</course>
  <speed>0.0</speed>
  <fix>3d</fix>
</trkpt>
<trkpt lat="40.0728419" lon="-105.2305749">
  <ele>1586.17</ele>
  <time>2026-08-27T18:31:36Z</time>
  <course>11.25</course>
  <speed>0.0</speed>
  <fix>3d</fix>
</trkpt>
<trkpt lat="40.072842" lon="-105.230575">
  <ele>1586.09</ele>
  <time>2026-08-27T18:31:36Z</time>
  <course>266.42</course>
  <speed>0.0</speed>
  <fix>3d</fix>
</trkpt>
<trkpt lat="40.0728419" lon="-105.2305749">
  <ele>1586.17</ele>
  <time>2026-08-27T18:31:36Z</time>
  <course>11.25</course>
  <speed>0.0</speed>
  <fix>3d</fix>
</trkpt>
<trkpt lat="40.072842" lon="-105.230575">
  <ele>1586.09</ele>
  <time>2026-08-27T18:31:36Z</time>
  <course>265.88</course>
  <speed>0.0</speed>
  <fix>3d</fix>
</trkpt>
<trkpt lat="40.0728419" lon="-105.2305749">
  <ele>1586.17</ele>
  <time>2026-08-27T18:31:36Z</time>
  <course>11.25</course>
  <speed>0.0</speed>
  <fix>3d</fix>
</trkpt>
<trkpt lat="40.072842" lon="-105.230575">
  <ele>1586.09</ele>
  <time>2026-08-27T18:31:36Z</time>
  <course>259.65</course>
  <speed>0.0</speed>
  <fix>3d</fix>
</trkpt>
<trkpt lat="40.0728419" lon="-105.2305749">
  <ele>1586.17</ele>
  <time>2026-08-27T18:31:36Z</time>
  <course>11.25</course>
  <speed>0.0</speed>
  <fix>3d</fix>
</trkpt>
<trkpt lat="40.072842" lon="-105.230575">
  <ele>1586.09</ele>
  <time>2026-08-27T18:31:36Z</time>
  <course>200.75</course>
  <speed>0.0</speed>
  <fix>3d</fix>
</trkpt>
<trkpt lat="40.0728419" lon="-105.2305749">
  <ele>1586.17</ele>
  <time>2026-08-27T18:31:36Z</time>
  <course>11.25</course>
  <speed>0.0</speed>
  <fix>3d</fix>
</trkpt>
<trkpt lat="40.072842" lon="-105.230575">
  <ele>1586.09</ele>
  <time>2026-08-27T18:31:36Z</time>
  <course>192.46</course>
  <speed>0.0</speed>
  <fix>3d</fix>
</trkpt>
<trkpt lat="40.0728419" lon="-105.2305749">
  <ele>1586.17</ele>
  <time>2026-08-27T18:31:36Z</time>
  <course>11.24</course>
  <speed>0.0</speed>
  <fix>3d</fix>
</trkpt>
<trkpt lat="40.072842" lon="-105.230575">
  <ele>1586.09</ele>
  <time>2026-08-27T18:31:36Z</time>
  <course>28.41</course>
  <speed>0.0</speed>
  <fix>3d</fix>
</trkpt>
<trkpt lat="40.0728419" lon="-105.2305749">
  <ele>1586.17</ele>
  <time>2026-08-27T18:31:36Z</time>
  <course>11.24</course>
  <speed>0.01</speed>
  <fix>3d</fix>
</trkpt>
<trkpt lat="40.072842" lon="-105.230575">
  <ele>1586.09</ele>
  <time>2026-08-27T18:31:36Z</time>
  <course>308.49</course>
  <speed>0.0</speed>
  <fix>3d</fix>
</trkpt>
<trkpt lat="40.0728419" lon="-105.2305749">
  <ele>1586.17</ele>
  <time>2026-08-27T18:31:36Z</time>
  <course>11.24</course>
  <speed>0.01</speed>
  <fix>3d</fix>
</trkpt>
<trkpt lat="40.072842" lon="-105.230575">
  <ele>1586.09</ele>
  <time>2026-08-27T18:31:36Z</time>
  <course>233.47</course>
  <speed>0.0</speed>
  <fix>3d</fix>
</trkpt>
<trkpt lat="40.0728419" lon="-105.2305749">
  <ele>1586.17</ele>
  <time>2026-08-27T18:31:36Z</time>
  <course>11.24</course>
  <speed>0.01</speed>
  <fix>3d</fix>
</trkpt>
<trkpt lat="40.072842" lon="-105.230575">
  <ele>1586.09</ele>
  <time>2026-08-27T18:31:36Z</time>
  <course>238.46</course>
  <speed>0.0</speed>
  <fix>3d</fix>
</trkpt>
<trkpt lat="40.0728419" lon="-105.2305749">
  <ele>1586.17</ele>
  <time>2026-08-27T18:31:36Z</time>
  <course>11.24</course>
  <speed>0.01</speed>
  <fix>3d</fix>
</trkpt>
<trkpt lat="40.072842" lon="-105.230575">
  <ele>1586.09</ele>
  <time>2026-08-27T18:31:36Z</time>
  <course>248.18</course>
  <speed>0.0</speed>
  <fix>3d</fix>
</trkpt>
<trkpt lat="40.0728419" lon="-105.2305749">
  <ele>1586.17</ele>
  <time>2026-08-27T18:31:36Z</time>
  <course>11.23</course>
  <speed>0.01</speed>
  <fix>3d</fix>
</trkpt>
<trkpt lat="40.072842" lon="-105.230575">
  <ele>1586.09</ele>
  <time>2026-08-27T18:31:36Z</time>
  <course>245.57</course>
  <speed>0.0</speed>
  <fix>3d</fix>
</trkpt>
<trkpt lat="40.0728419" lon="-105.2305749">
  <ele>1586.16</ele>
  <time>2026-08-27T18:31:36Z</time>
  <course>11.23</course>
  <speed>0.01</speed>
  <fix>3d</fix>
</trkpt>
<trkpt lat="40.072842" lon="-105.230575">
  <ele>1586.09</ele>
  <time>2026-08-27T18:31:36Z</time>
  <course>292.61</course>
  <speed>0.0</speed>
  <fix>3d</fix>
</trkpt>
<trkpt lat="40.0728419" lon="-105.2305749">
  <ele>1586.16</ele>
  <time>2026-08-27T18:31:36Z</time>
  <course>11.23</course>
  <speed>0.01</speed>
  <fix>3d</fix>
</trkpt>
<trkpt lat="40.072842" lon="-105.230575">
  <ele>1586.09</ele>
  <time>2026-08-27T18:31:36Z</time>
  <course>267.56</course>
  <speed>0.0</speed>
  <fix>3d</fix>
</trkpt>
<trkpt lat="40.0728419" lon="-105.2305749">
  <ele>1586.15</ele>
  <time>2026-08-27T18:31:36Z</time>
  <course>11.23</course>
  <speed>0.01</speed>
  <fix>3d</fix>
</trkpt>
<trkpt lat="40.072842" lon="-105.230575">
  <ele>1586.09</ele>
  <time>2026-08-27T18:31:36Z</time>
  <course>241.99</course>
  <speed>0.0</speed>
  <fix>3d</fix>
</trkpt>
<trkpt lat="40.0728419" lon="-105.2305749">
  <ele>1586.15</ele>
  <time>2026-08-27T18:31:36Z</time>
  <course>11.23</course>
  <speed>0.01</speed>
  <fix>3d</fix>
</trkpt>
<trkpt lat="40.072842" lon="-105.230575">
  <ele>1586.09</ele>
  <time>2026-08-27T18:31:36Z</time>
  <course>109.71</course>
  <speed>0.0</speed>
  <fix>3d</fix>
</trkpt>
<trkpt lat="40.0728419" lon="-105.2305749">
  <ele>1586.16</ele>
  <time>2026-08-27T18:31:36Z</time>
  <course>11.22</course>
  <speed>0.01</speed>
  <fix>3d</fix>
</trkpt>
<trkpt lat="40.072842" lon="-105.230575">
  <ele>1586.09</ele>
  <time>2026-08-27T18:31:36Z</time>
  <course>272.39</course>
  <speed>0.0</speed>
  <fix>3d</fix>
</trkpt>
<trkpt lat="40.0728419" lon="-105.2305749">
  <ele>1586.16</ele>
  <time>2026-08-27T18:31:36Z</time>
  <course>11.22</course>
  <speed>0.01414213562373095</speed>
  <fix>3d</fix>
</trkpt>
<trkpt lat="40.072842" lon="-105.230575">
  <ele>1586.09</ele>
  <time>2026-08-27T18:31:36Z</time>
  <course>254.18</course>
  <speed>0.0</speed>
  <fix>3d</fix>
</trkpt>
<trkpt lat="40.0728419" lon="-105.2305749">
  <ele>1586.16</ele>
  <time>2026-08-27T18:31:36Z</time>
  <course>11.22</course>
  <speed>0.01414213562373095</speed>
  <fix>3d</fix>
</trkpt>
<trkpt lat="40.072842" lon="-105.230575">
  <ele>1586.09</ele>
  <time>2026-08-27T18:31:36Z</time>
  <course>248.54</course>
  <speed>0.0</speed>
  <fix>3d</fix>
</trkpt>
<trkpt lat="40.0728419" lon="-105.2305749">
  <ele>1586.16</ele>
  <time>2026-08-27T18:31:36Z</time>
  <course>11.22</course>
  <speed>0.01414213562373095</speed>
  <fix>3d</fix>
</trkpt>
<trkpt lat="40.072842" lon="-105.230575">
  <ele>1586.09</ele>
  <time>2026-08-27T18:31:36Z</time>
  <course>250.46</course>
  <speed>0.0</speed>
  <fix>3d</fix>
</trkpt>
<trkpt lat="40.0728419" lon="-105.2305749">
  <ele>1586.16</ele>
  <time>2026-08-27T18:31:36Z</time>
  <course>11.22</course>
  <speed>0.01414213562373095</speed>
  <fix>3d</fix>
</trkpt>
<trkpt lat="40.072842" lon="-105.230575">
  <ele>1586.09</ele>
  <time>2026-08-27T18:31:36Z</time>
  <course>251.14</course>
  <speed>0.0</speed>
  <fix>3d</fix>
</trkpt>
<trkpt lat="40.0728419" lon="-105.2305749">
  <ele>1586.17</ele>
  <time>2026-08-27T18:31:36Z</time>
  <course>11.22</course>
  <speed>0.01414213562373095</speed>
  <fix>3d</fix>
</trkpt>
<trkpt lat="40.072842" lon="-105.230575">
  <ele>1586.09</ele>
  <time>2026-08-27T18:31:36Z</time>
  <course>250.8</course>
  <speed>0.0</speed>
  <fix>3d</fix>
</trkpt>
<trkpt lat="40.0728419" lon="-105.2305749">
  <ele>1586.18</ele>
  <time>2026-08-27T18:31:36Z</time>
  <course>11.21</course>
  <speed>0.01414213562373095</speed>
  <fix>3d</fix>
</trkpt>
<trkpt lat="40.072842" lon="-105.230575">
  <ele>1586.09</ele>
  <time>2026-08-27T18:31:36Z</time>
  <course>250.75</course>
  <speed>0.0</speed>
  <fix>3d</fix>
</trkpt>
<trkpt lat="40.0728419" lon="-105.2305749">
  <ele>1586.18</ele>
  <time>2026-08-27T18:31:36Z</time>
  <course>11.21</course>
  <speed>0.01414213562373095</speed>
  <fix>3d</fix>
</trkpt>
<trkpt lat="40.072842" lon="-105.230575">
  <ele>1586.09</ele>
  <time>2026-08-27T18:31:36Z</time>
  <course>250.8</course>
  <speed>0.0</speed>
  <fix>3d</fix>
</trkpt>
<trkpt lat="40.0728419" lon="-105.2305749">
  <ele>1586.18</ele>
  <time>2026-08-27T18:31:36Z</time>
  <course>11.21</course>
  <speed>0.01414213562373095</speed>
  <fix>3d</fix>
</trkpt>
<trkpt lat="40.072842" lon="-105.230575">
  <ele>1586.09</ele>
  <time>2026-08-27T18:31:36Z</time>
  <course>250.8</course>
  <speed>0.0</speed>
  <fix>3d</fix>
</trkpt>
<trkpt lat="40.0728419" lon="-105.2305749">
  <ele>1586.18</ele>
  <time>2026-08-27T18:31:36Z</time>
  <course>11.21</course>
  <speed>0.01414213562373095</speed>
  <fix>3d</fix>
</trkpt>
<trkpt lat="40.072842" lon="-105.230575">
  <ele>1586.09</ele>
  <time>2026-08-27T18:31:36Z</time>
  <course>250.8</course>
  <speed>0.0</speed>
  <fix>3d</fix>
</trkpt>
<trkpt lat="40.0728419" lon="-105.2305749">
  <ele>1586.18</ele>
  <time>2026-08-27T18:31:36Z</time>
  <course>11.21</course>
  <speed>0.01414213562373095</speed>
  <fix>3d</fix>
</trkpt>
<trkpt lat="40.072842" lon="-105.230575">
  <ele>1586.09</ele>
  <time>2026-08-27T18:31:36Z</time>
  <course>250.8</course>
  <speed>0.0</speed>
  <fix>3d</fix>
</trkpt>
<trkpt lat="40.0728419" lon="-105.2305749">
  <ele>1586.17</ele>
  <time>2026-08-27T18:31:36Z</time>
  <course>11.21</course>
  <speed>0.01414213562373095</speed>
  <fix>3d</fix>
</trkpt>
<trkpt lat="40.072842" lon="-105.230575">
  <ele>1586.09</ele>
  <time>2026-08-27T18:31:36Z</time>
  <course>250.8</course>
  <speed>0.0</speed>
  <fix>3d</fix>
</trkpt>
<trkpt lat="40.0728419" lon="-105.2305749">
  <ele>1586.17</ele>
  <time>2026-08-27T18:31:36Z</time>
  <course>11.21</course>
  <speed>0.01414213562373095</speed>
  <fix>3d</fix>
</trkpt>
<trkpt lat="40.072842" lon="-105.230575">
  <ele>1586.09</ele>
  <time>2026-08-27T18:31:36Z</time>
  <course>250.8</course>
  <speed>0.0</speed>
  <fix>3d</fix>
</trkpt>
<trkpt lat="40.0728419" lon="-105.2305749">
  <ele>1586.17</ele>
  <time>2026-08-27T18:31:36Z</time>
  <course>11.2</course>
  <speed>0.01414213562373095</speed>
  <fix>3d</fix>
</trkpt>
<trkpt lat="40.072842" lon="-105.230575">
  <ele>1586.09</ele>
  <time>2026-08-27T18:31:36Z</time>
  <course>250.8</course>
  <speed>0.0</speed>
  <fix>3d</fix>
</trkpt>
<trkpt lat="40.0728419" lon="-105.2305749">
  <ele>1586.17</ele>
  <time>2026-08-27T18:31:36Z</time>
  <course>11.2</course>
  <speed>0.01414213562373095</speed>
  <fix>3d</fix>
</trkpt>
<trkpt lat="40.072842" lon="-105.230575">
  <ele>1586.09</ele>
  <time>2026-08-27T18:31:36Z</time>
  <course>250.8</course>
  <speed>0.0</speed>
  <fix>3d</fix>
</trkpt>
<trkpt lat="40.0728419" lon="-105.2305749">
  <ele>1586.17</ele>
  <time>2026-08-27T18:31:36Z</time>
  <course>11.2</course>
  <speed>0.022360679774997897</speed>
  <fix>3d</fix>
</trkpt>
<trkpt lat="40.072842" lon="-105.230575">
  <ele>1586.09</ele>
  <time>2026-08-27T18:31:36Z</time>
  <course>250.8</course>
  <speed>0.0</speed>
  <fix>3d</fix>
</trkpt>
<trkpt lat="40.0728419" lon="-105.2305749">
  <ele>1586.17</ele>
  <time>2026-08-27T18:31:36Z</time>
  <course>11.2</course>
  <speed>0.022360679774997897</speed>
  <fix>3d</fix>
</trkpt>
<trkpt lat="40.072842" lon="-105.230575">
  <ele>1586.09</ele>
  <time>2026-08-27T18:31:36Z</time>
  <course>250.8</course>
  <speed>0.0</speed>
  <fix>3d</fix>
</trkpt>
<trkpt lat="40.0728419" lon="-105.2305749">
  <ele>1586.17</ele>
  <time>2026-08-27T18:31:36Z</time>
  <course>11.2</course>
  <speed>0.022360679774997897</speed>
  <fix>3d</fix>
</trkpt>
<trkpt lat="40.072842" lon="-105.230575">
  <ele>1586.09</ele>
  <time>2026-08-27T18:31:36Z</time>
  <course>250.8</course>
  <speed>0.0</speed>
  <fix>3d</fix>
</trkpt>
<trkpt lat="40.0728419" lon="-105.2305749">
  <ele>1586.17</ele>
  <time>2026-08-27T18:31:36Z</time>
  <course>11.2</course>
  <speed>0.022360679774997897</speed>
  <fix>3d</fix>
</trkpt>
<trkpt lat="40.072842" lon="-105.230575">
  <ele>1586.09</ele>
  <time>2026-08-27T18:31:36Z</time>
  <course>250.8</course>
  <speed>0.0</speed>
  <fix>3d</fix>
</trkpt>
<trkpt lat="40.0728419" lon="-105.2305749">
  <ele>1586.16</ele>
  <time>2026-08-27T18:31:36Z</time>
  <course>11.2</course>
  <speed>0.022360679774997897</speed>
  <fix>3d</fix>
</trkpt>
<trkpt lat="40.072842" lon="-105.230575">
  <ele>1586.09</ele>
  <time>2026-08-27T18:31:36Z</time>
  <course>250.8</course>
  <speed>0.0</speed>
  <fix>3d</fix>
</trkpt>
<trkpt lat="40.0728419" lon="-105.2305749">
  <ele>1586.16</ele>
  <time>2026-08-27T18:31:36Z</time>
  <course>11.2</course>
  <speed>0.022360679774997897</speed>
  <fix>3d</fix>
</trkpt>
<trkpt lat="40.072842" lon="-105.230575">
  <ele>1586.09</ele>
  <time>2026-08-27T18:31:36Z</time>
  <course>250.8</course>
  <speed>0.0</speed>
  <fix>3d</fix>
</trkpt>
<trkpt lat="40.0728419" lon="-105.2305749">
  <ele>1586.16</ele>
  <time>2026-08-27T18:31:36Z</time>
  <course>11.2</course>
  <speed>0.022360679774997897</speed>
  <fix>3d</fix>
</trkpt>
<trkpt lat="40.072842" lon="-105.230575">
  <ele>1586.09</ele>
  <time>2026-08-27T18:31:36Z</time>
  <course>250.8</course>
  <speed>0.0</speed>
  <fix>3d</fix>
</trkpt>
<trkpt lat="40.0728419" lon="-105.2305749">
  <ele>1586.16</ele>
  <time>2026-08-27T18:31:36Z</time>
  <course>11.2</course>
  <speed>0.022360679774997897</speed>
  <fix>3d</fix>
</trkpt>
<trkpt lat="40.072842" lon="-105.230575">
  <ele>1586.09</ele>
  <time>2026-08-27T18:31:36Z</time>
  <course>250.8</course>
  <speed>0.0</speed>
  <fix>3d</fix>
</trkpt>
<trkpt lat="40.0728419" lon="-105.2305749">
  <ele>1586.16</ele>
  <time>2026-08-27T18:31:36Z</time>
  <course>11.19</course>
  <speed>0.022360679774997897</speed>
  <fix>3d</fix>
</trkpt>
<trkpt lat="40.072842" lon="-105.230575">
  <ele>1586.09</ele>
  <time>2026-08-27T18:31:36Z</time>
  <course>250.8</course>
  <speed>0.0</speed>
  <fix>3d</fix>
</trkpt>
<trkpt lat="40.0728419" lon="-105.2305749">
  <ele>1586.16</ele>
  <time>2026-08-27T18:31:36Z</time>
  <course>11.19</course>
  <speed>0.022360679774997897</speed>
  <fix>3d</fix>
</trkpt>
<trkpt lat="40.072842" lon="-105.230575">
  <ele>1586.09</ele>
  <time>2026-08-27T18:31:36Z</time>
  <course>250.8</course>
  <speed>0.0</speed>
  <fix>3d</fix>
</trkpt>
<trkpt lat="40.0728419" lon="-105.2305749">
  <ele>1586.16</ele>
  <time>2026-08-27T18:31:36Z</time>
  <course>11.19</course>
  <speed>0.022360679774997897</speed>
  <fix>3d</fix>
</trkpt>
<trkpt lat="40.072842" lon="-105.230575">
  <ele>1586.09</ele>
  <time>2026-08-27T18:31:36Z</time>
  <course>250.8</course>
  <speed>0.0</speed>
  <fix>3d</fix>
</trkpt>
<trkpt lat="40.0728419" lon="-105.2305749">
  <ele>1586.16</ele>
  <time>2026-08-27T18:31:36Z</time>
  <course>11.19</course>
  <speed>0.022360679774997897</speed>
  <fix>3d</fix>
</trkpt>
<trkpt lat="40.072842" lon="-105.230575">
  <ele>1586.09</ele>
  <time>2026-08-27T18:31:36Z</time>
  <course>250.8</course>
  <speed>0.0</speed>
  <fix>3d</fix>
</trkpt>
<trkpt lat="40.0728419" lon="-105.2305749">
  <ele>1586.15</ele>
  <time>2026-08-27T18:31:36Z</time>
  <course>11.19</course>
  <speed>0.022360679774997897</speed>
  <fix>3d</fix>
</trkpt>
<trkpt lat="40.072842" lon="-105.230575">
  <ele>1586.09</ele>
  <time>2026-08-27T18:31:36Z</time>
  <course>250.8</course>
  <speed>0.0</speed>
  <fix>3d</fix>
</trkpt>
<trkpt lat="40.0728419" lon="-105.2305749">
  <ele>1586.15</ele>
  <time>2026-08-27T18:31:36Z</time>
  <course>11.19</course>
  <speed>0.022360679774997897</speed>
  <fix>3d</fix>
</trkpt>
<trkpt lat="40.072842" lon="-105.230575">
  <ele>1586.09</ele>
  <time>2026-08-27T18:31:36Z</time>
  <course>250.8</course>
  <speed>0.0</speed>
  <fix>3d</fix>
</trkpt>
<trkpt lat="40.0728419" lon="-105.2305749">
  <ele>1586.15</ele>
  <time>2026-08-27T18:31:36Z</time>
  <course>11.19</course>
  <speed>0.022360679774997897</speed>
  <fix>3d</fix>
</trkpt>
<trkpt lat="40.072842" lon="-105.230575">
  <ele>1586.09</ele>
  <time>2026-08-27T18:31:36Z</time>
  <course>250.8</course>
  <speed>0.0</speed>
  <fix>3d</fix>
</trkpt>
<trkpt lat="40.0728419" lon="-105.2305749">
  <ele>1586.15</ele>
  <time>2026-08-27T18:31:36Z</time>
  <course>11.19</course>
  <speed>0.022360679774997897</speed>
  <fix>3d</fix>
</trkpt>
<trkpt lat="40.072842" lon="-105.230575">
  <ele>1586.09</ele>
  <time>2026-08-27T18:31:36Z</time>
  <course>250.8</course>
  <speed>0.0</speed>
  <fix>3d</fix>
</trkpt>
<trkpt lat="40.0728419" lon="-105.2305749">
  <ele>1586.14</ele>
  <time>2026-08-27T18:31:36Z</time>
  <course>11.19</course>
  <speed>0.022360679774997897</speed>
  <fix>3d</fix>
</trkpt>
<trkpt lat="40.072842" lon="-105.230575">
  <ele>1586.09</ele>
  <time>2026-08-27T18:31:36Z</time>
  <course>250.8</course>
  <speed>0.0</speed>
  <fix>3d</fix>
</trkpt>
<trkpt lat="40.0728419" lon="-105.2305749">
  <ele>1586.14</ele>
  <time>2026-08-27T18:31:36Z</time>
  <course>11.19</course>
  <speed>0.022360679774997897</speed>
  <fix>3d</fix>
</trkpt>
<trkpt lat="40.072842" lon="-105.230575">
  <ele>1586.09</ele>
  <time>2026-08-27T18:31:36Z</time>
  <course>250.8</course>
  <speed>0.0</speed>
  <fix>3d</fix>
</trkpt>
<trkpt lat="40.0728419" lon="-105.2305749">
  <ele>1586.15</ele>
  <time>2026-08-27T18:31:36Z</time>
  <course>11.18</course>
  <speed>0.022360679774997897</speed>
  <fix>3d</fix>
</trkpt>
<trkpt lat="40.072842" lon="-105.230575">
  <ele>1586.09</ele>
  <time>2026-08-27T18:31:36Z</time>
  <course>250.8</course>
  <speed>0.0</speed>
  <fix>3d</fix>
</trkpt>
<trkpt lat="40.0728419" lon="-105.2305749">
  <ele>1586.15</ele>
  <time>2026-08-27T18:31:36Z</time>
  <course>11.18</course>
  <speed>0.022360679774997897</speed>
  <fix>3d</fix>
</trkpt>
<trkpt lat="40.072842" lon="-105.230575">
  <ele>1586.09</ele>
  <time>2026-08-27T18:31:36Z</time>
  <course>250.8</course>
  <speed>0.0</speed>
  <fix>3d</fix>
</trkpt>
<trkpt lat="40.0728419" lon="-105.2305749">
  <ele>1586.15</ele>
  <time>2026-08-27T18:31:37Z</time>
  <course>11.18</course>
  <speed>0.022360679774997897</speed>
  <fix>3d</fix>
</trkpt>
<trkpt lat="40.072842" lon="-105.230575">
  <ele>1586.09</ele>
  <time>2026-08-27T18:31:37Z</time>
  <course>250.8</course>
  <speed>0.0</speed>
  <fix>3d</fix>
</trkpt>
<trkpt lat="40.0728419" lon="-105.2305749">
  <ele>1586.16</ele>
  <time>2026-08-27T18:31:37Z</time>
  <course>11.18</course>
  <speed>0.022360679774997897</speed>
  <fix>3d</fix>
</trkpt>
<trkpt lat="40.072842" lon="-105.230575">
  <ele>1586.09</ele>
  <time>2026-08-27T18:31:37Z</time>
  <course>250.8</course>
  <speed>0.0</speed>
  <fix>3d</fix>
</trkpt>
<trkpt lat="40.0728419" lon="-105.2305749">
  <ele>1586.16</ele>
  <time>2026-08-27T18:31:37Z</time>
  <course>11.18</course>
  <speed>0.022360679774997897</speed>
  <fix>3d</fix>
</trkpt>
<trkpt lat="40.072842" lon="-105.230575">
  <ele>1586.09</ele>
  <time>2026-08-27T18:31:37Z</time>
  <course>250.8</course>
  <speed>0.0</speed>
  <fix>3d</fix>
</trkpt>
<trkpt lat="40.0728419" lon="-105.2305749">
  <ele>1586.16</ele>
  <time>2026-08-27T18:31:37Z</time>
  <course>11.18</course>
  <speed>0.022360679774997897</speed>
  <fix>3d</fix>
</trkpt>
<trkpt lat="40.072842" lon="-105.230575">
  <ele>1586.09</ele>
  <time>2026-08-27T18:31:37Z</time>
  <course>250.8</course>
  <speed>0.0</speed>
  <fix>3d</fix>
</trkpt>
<trkpt lat="40.0728419" lon="-105.2305749">
  <ele>1586.17</ele>
  <time>2026-08-27T18:31:37Z</time>
  <course>11.18</course>
  <speed>0.022360679774997897</speed>
  <fix>3d</fix>
</trkpt>
<trkpt lat="40.072842" lon="-105.230575">
  <ele>1586.09</ele>
  <time>2026-08-27T18:31:37Z</time>
  <course>250.8</course>
  <speed>0.0</speed>
  <fix>3d</fix>
</trkpt>
<trkpt lat="40.0728419" lon="-105.2305749">
  <ele>1586.18</ele>
  <time>2026-08-27T18:31:37Z</time>
  <course>11.18</course>
  <speed>0.022360679774997897</speed>
  <fix>3d</fix>
</trkpt>
<trkpt lat="40.072842" lon="-105.230575">
  <ele>1586.09</ele>
  <time>2026-08-27T18:31:37Z</time>
  <course>250.8</course>
  <speed>0.0</speed>
  <fix>3d</fix>
</trkpt>
<trkpt lat="40.0728419" lon="-105.2305749">
  <ele>1586.18</ele>
  <time>2026-08-27T18:31:37Z</time>
  <course>11.18</course>
  <speed>0.022360679774997897</speed>
  <fix>3d</fix>
</trkpt>
<trkpt lat="40.072842" lon="-105.230575">
  <ele>1586.09</ele>
  <time>2026-08-27T18:31:37Z</time>
  <course>250.8</course>
  <speed>0.0</speed>
  <fix>3d</fix>
</trkpt>
<trkpt lat="40.0728419" lon="-105.2305749">
  <ele>1586.18</ele>
  <time>2026-08-27T18:31:37Z</time>
  <course>11.18</course>
  <speed>0.022360679774997897</speed>
  <fix>3d</fix>
</trkpt>
<trkpt lat="40.072842" lon="-105.230575">
  <ele>1586.09</ele>
  <time>2026-08-27T18:31:37Z</time>
  <course>250.8</course>
  <speed>0.0</speed>
  <fix>3d</fix>
</trkpt>
<trkpt lat="40.0728419" lon="-105.2305749">
  <ele>1586.18</ele>
  <time>2026-08-27T18:31:37Z</time>
  <course>11.18</course>
  <speed>0.022360679774997897</speed>
  <fix>3d</fix>
</trkpt>
<trkpt lat="40.072842" lon="-105.230575">
  <ele>1586.09</ele>
  <time>2026-08-27T18:31:37Z</time>
  <course>47.71</course>
  <speed>0.0</speed>
  <fix>3d</fix>
</trkpt>
<trkpt lat="40.0728419" lon="-105.2305749">
  <ele>1586.18</ele>
  <time>2026-08-27T18:31:37Z</time>
  <course>11.17</course>
  <speed>0.022360679774997897</speed>
  <fix>3d</fix>
</trkpt>
<trkpt lat="40.072842" lon="-105.230575">
  <ele>1586.09</ele>
  <time>2026-08-27T18:31:37Z</time>
  <course>55.33</course>
  <speed>0.0</speed>
  <fix>3d</fix>
</trkpt>
<trkpt lat="40.0728419" lon="-105.2305749">
  <ele>1586.19</ele>
  <time>2026-08-27T18:31:37Z</time>
  <course>11.17</course>
  <speed>0.022360679774997897</speed>
  <fix>3d</fix>
</trkpt>
<trkpt lat="40.072842" lon="-105.230575">
  <ele>1586.09</ele>
  <time>2026-08-27T18:31:37Z</time>
  <course>18.91</course>
  <speed>0.0</speed>
  <fix>3d</fix>
</trkpt>
<trkpt lat="40.0728419" lon="-105.2305749">
  <ele>1586.19</ele>
  <time>2026-08-27T18:31:37Z</time>
  <course>11.17</course>
  <speed>0.022360679774997897</speed>
  <fix>3d</fix>
</trkpt>
<trkpt lat="40.072842" lon="-105.230575">
  <ele>1586.09</ele>
  <time>2026-08-27T18:31:37Z</time>
  <course>305.71</course>
  <speed>0.0</speed>
  <fix>3d</fix>
</trkpt>
<trkpt lat="40.0728419" lon="-105.2305749">
  <ele>1586.18</ele>
  <time>2026-08-27T18:31:37Z</time>
  <course>11.17</course>
  <speed>0.022360679774997897</speed>
  <fix>3d</fix>
</trkpt>
<trkpt lat="40.072842" lon="-105.230575">
  <ele>1586.09</ele>
  <time>2026-08-27T18:31:37Z</time>
  <course>210.04</course>
  <speed>0.0</speed>
  <fix>3d</fix>
</trkpt>
<trkpt lat="40.0728419" lon="-105.2305749">
  <ele>1586.18</ele>
  <time>2026-08-27T18:31:37Z</time>
  <course>11.17</course>
  <speed>0.022360679774997897</speed>
  <fix>3d</fix>
</trkpt>
<trkpt lat="40.072842" lon="-105.230575">
  <ele>1586.09</ele>
  <time>2026-08-27T18:31:37Z</time>
  <course>86.78</course>
  <speed>0.0</speed>
  <fix>3d</fix>
</trkpt>
<trkpt lat="40.0728419" lon="-105.2305749">
  <ele>1586.18</ele>
  <time>2026-08-27T18:31:37Z</time>
  <course>11.17</course>
  <speed>0.022360679774997897</speed>
  <fix>3d</fix>
</trkpt>
<trkpt lat="40.072842" lon="-105.230575">
  <ele>1586.09</ele>
  <time>2026-08-27T18:31:37Z</time>
  <course>309.58</course>
  <speed>0.0</speed>
  <fix>3d</fix>
</trkpt>
<trkpt lat="40.0728419" lon="-105.2305749">
  <ele>1586.18</ele>
  <time>2026-08-27T18:31:37Z</time>
  <course>11.17</course>
  <speed>0.022360679774997897</speed>
  <fix>3d</fix>
</trkpt>
<trkpt lat="40.072842" lon="-105.230575">
  <ele>1586.09</ele>
  <time>2026-08-27T18:31:37Z</time>
  <course>282.82</course>
  <speed>0.0</speed>
  <fix>3d</fix>
</trkpt>
<trkpt lat="40.0728419" lon="-105.2305749">
  <ele>1586.18</ele>
  <time>2026-08-27T18:31:37Z</time>
  <course>11.17</course>
  <speed>0.022360679774997897</speed>
  <fix>3d</fix>
</trkpt>
<trkpt lat="40.072842" lon="-105.230575">
  <ele>1586.09</ele>
  <time>2026-08-27T18:31:37Z</time>
  <course>282.71</course>
  <speed>0.0</speed>
  <fix>3d</fix>
</trkpt>
<trkpt lat="40.0728419" lon="-105.2305749">
  <ele>1586.18</ele>
  <time>2026-08-27T18:31:37Z</time>
  <course>11.17</course>
  <speed>0.022360679774997897</speed>
  <fix>3d</fix>
</trkpt>
<trkpt lat="40.072842" lon="-105.230575">
  <ele>1586.09</ele>
  <time>2026-08-27T18:31:37Z</time>
  <course>287.12</course>
  <speed>0.0</speed>
  <fix>3d</fix>
</trkpt>
<trkpt lat="40.0728419" lon="-105.2305749">
  <ele>1586.18</ele>
  <time>2026-08-27T18:31:37Z</time>
  <course>11.17</course>
  <speed>0.022360679774997897</speed>
  <fix>3d</fix>
</trkpt>
<trkpt lat="40.072842" lon="-105.230575">
  <ele>1586.09</ele>
  <time>2026-08-27T18:31:37Z</time>
  <course>170.21</course>
  <speed>0.0</speed>
  <fix>3d</fix>
</trkpt>
<trkpt lat="40.0728419" lon="-105.2305749">
  <ele>1586.18</ele>
  <time>2026-08-27T18:31:37Z</time>
  <course>11.17</course>
  <speed>0.022360679774997897</speed>
  <fix>3d</fix>
</trkpt>
<trkpt lat="40.072842" lon="-105.230575">
  <ele>1586.09</ele>
  <time>2026-08-27T18:31:37Z</time>
  <course>208.61</course>
  <speed>0.0</speed>
  <fix>3d</fix>
</trkpt>
<trkpt lat="40.0728419" lon="-105.2305749">
  <ele>1586.18</ele>
  <time>2026-08-27T18:31:37Z</time>
  <course>11.16</course>
  <speed>0.022360679774997897</speed>
  <fix>3d</fix>
</trkpt>
<trkpt lat="40.072842" lon="-105.230575">
  <ele>1586.09</ele>
  <time>2026-08-27T18:31:37Z</time>
  <course>218.43</course>
  <speed>0.0</speed>
  <fix>3d</fix>
</trkpt>
<trkpt lat="40.0728419" lon="-105.2305749">
  <ele>1586.18</ele>
  <time>2026-08-27T18:31:37Z</time>
  <course>11.16</course>
  <speed>0.022360679774997897</speed>
  <fix>3d</fix>
</trkpt>
<trkpt lat="40.072842" lon="-105.230575">
  <ele>1586.09</ele>
  <time>2026-08-27T18:31:37Z</time>
  <course>88.85</course>
  <speed>0.0</speed>
  <fix>3d</fix>
</trkpt>
<trkpt lat="40.0728419" lon="-105.2305749">
  <ele>1586.18</ele>
  <time>2026-08-27T18:31:37Z</time>
  <course>11.16</course>
  <speed>0.022360679774997897</speed>
  <fix>3d</fix>
</trkpt>
<trkpt lat="40.072842" lon="-105.230575">
  <ele>1586.09</ele>
  <time>2026-08-27T18:31:37Z</time>
  <course>347.71</course>
  <speed>0.0</speed>
  <fix>3d</fix>
</trkpt>
<trkpt lat="40.0728419" lon="-105.2305749">
  <ele>1586.18</ele>
  <time>2026-08-27T18:31:37Z</time>
  <course>11.16</course>
  <speed>0.022360679774997897</speed>
  <fix>3d</fix>
</trkpt>
<trkpt lat="40.072842" lon="-105.230575">
  <ele>1586.09</ele>
  <time>2026-08-27T18:31:37Z</time>
  <course>247.47</course>
  <speed>0.0</speed>
  <fix>3d</fix>
</trkpt>
<trkpt lat="40.0728419" lon="-105.2305749">
  <ele>1586.17</ele>
  <time>2026-08-27T18:31:37Z</time>
  <course>11.16</course>
  <speed>0.022360679774997897</speed>
  <fix>3d</fix>
</trkpt>
<trkpt lat="40.072842" lon="-105.230575">
  <ele>1586.09</ele>
  <time>2026-08-27T18:31:37Z</time>
  <course>242.52</course>
  <speed>0.0</speed>
  <fix>3d</fix>
</trkpt>
<trkpt lat="40.0728419" lon="-105.2305749">
  <ele>1586.16</ele>
  <time>2026-08-27T18:31:37Z</time>
  <course>11.16</course>
  <speed>0.022360679774997897</speed>
  <fix>3d</fix>
</trkpt>
<trkpt lat="40.072842" lon="-105.230575">
  <ele>1586.09</ele>
  <time>2026-08-27T18:31:37Z</time>
  <course>252.7</course>
  <speed>0.0</speed>
  <fix>3d</fix>
</trkpt>
<trkpt lat="40.0728419" lon="-105.2305749">
  <ele>1586.16</ele>
  <time>2026-08-27T18:31:37Z</time>
  <course>11.16</course>
  <speed>0.022360679774997897</speed>
  <fix>3d</fix>
</trkpt>
<trkpt lat="40.072842" lon="-105.230575">
  <ele>1586.09</ele>
  <time>2026-08-27T18:31:37Z</time>
  <course>251.82</course>
  <speed>0.0</speed>
  <fix>3d</fix>
</trkpt>
<trkpt lat="40.0728419" lon="-105.2305749">
  <ele>1586.16</ele>
  <time>2026-08-27T18:31:37Z</time>
  <course>11.16</course>
  <speed>0.022360679774997897</speed>
  <fix>3d</fix>
</trkpt>
<trkpt lat="40.072842" lon="-105.230575">
  <ele>1586.09</ele>
  <time>2026-08-27T18:31:37Z</time>
  <course>250.44</course>
  <speed>0.0</speed>
  <fix>3d</fix>
</trkpt>
<trkpt lat="40.0728419" lon="-105.2305749">
  <ele>1586.16</ele>
  <time>2026-08-27T18:31:37Z</time>
  <course>11.16</course>
  <speed>0.022360679774997897</speed>
  <fix>3d</fix>
</trkpt>
<trkpt lat="40.072842" lon="-105.230575">
  <ele>1586.09</ele>
  <time>2026-08-27T18:31:37Z</time>
  <course>250.7</course>
  <speed>0.0</speed>
  <fix>3d</fix>
</trkpt>
<trkpt lat="40.0728419" lon="-105.2305749">
  <ele>1586.16</ele>
  <time>2026-08-27T18:31:37Z</time>
  <course>11.16</course>
  <speed>0.022360679774997897</speed>
  <fix>3d</fix>
</trkpt>
<trkpt lat="40.072842" lon="-105.230575">
  <ele>1586.09</ele>
  <time>2026-08-27T18:31:37Z</time>
  <course>250.86</course>
  <speed>0.0</speed>
  <fix>3d</fix>
</trkpt>
<trkpt lat="40.0728419" lon="-105.2305749">
  <ele>1586.17</ele>
  <time>2026-08-27T18:31:37Z</time>
  <course>11.16</course>
  <speed>0.022360679774997897</speed>
  <fix>3d</fix>
</trkpt>
<trkpt lat="40.072842" lon="-105.230575">
  <ele>1586.09</ele>
  <time>2026-08-27T18:31:37Z</time>
  <course>250.8</course>
  <speed>0.0</speed>
  <fix>3d</fix>
</trkpt>
<trkpt lat="40.0728419" lon="-105.2305749">
  <ele>1586.17</ele>
  <time>2026-08-27T18:31:37Z</time>
  <course>11.16</course>
  <speed>0.022360679774997897</speed>
  <fix>3d</fix>
</trkpt>
<trkpt lat="40.072842" lon="-105.230575">
  <ele>1586.09</ele>
  <time>2026-08-27T18:31:37Z</time>
  <course>250.79</course>
  <speed>0.0</speed>
  <fix>3d</fix>
</trkpt>
<trkpt lat="40.0728419" lon="-105.2305749">
  <ele>1586.17</ele>
  <time>2026-08-27T18:31:37Z</time>
  <course>11.16</course>
  <speed>0.022360679774997897</speed>
  <fix>3d</fix>
</trkpt>
<trkpt lat="40.072842" lon="-105.230575">
  <ele>1586.09</ele>
  <time>2026-08-27T18:31:37Z</time>
  <course>242.22</course>
  <speed>0.0</speed>
  <fix>3d</fix>
</trkpt>
<trkpt lat="40.0728419" lon="-105.2305749">
  <ele>1586.17</ele>
  <time>2026-08-27T18:31:37Z</time>
  <course>11.15</course>
  <speed>0.022360679774997897</speed>
  <fix>3d</fix>
</trkpt>
<trkpt lat="40.072842" lon="-105.230575">
  <ele>1586.09</ele>
  <time>2026-08-27T18:31:37Z</time>
  <course>257.44</course>
  <speed>0.0</speed>
  <fix>3d</fix>
</trkpt>
<trkpt lat="40.0728419" lon="-105.2305749">
  <ele>1586.18</ele>
  <time>2026-08-27T18:31:37Z</time>
  <course>11.15</course>
  <speed>0.01414213562373095</speed>
  <fix>3d</fix>
</trkpt>
<trkpt lat="40.072842" lon="-105.230575">
  <ele>1586.09</ele>
  <time>2026-08-27T18:31:37Z</time>
  <course>257.56</course>
  <speed>0.0</speed>
  <fix>3d</fix>
</trkpt>
<trkpt lat="40.0728419" lon="-105.2305749">
  <ele>1586.19</ele>
  <time>2026-08-27T18:31:37Z</time>
  <course>11.15</course>
  <speed>0.01414213562373095</speed>
  <fix>3d</fix>
</trkpt>
<trkpt lat="40.072842" lon="-105.230575">
  <ele>1586.09</ele>
  <time>2026-08-27T18:31:37Z</time>
  <course>245.3</course>
  <speed>0.0</speed>
  <fix>3d</fix>
</trkpt>
<trkpt lat="40.0728419" lon="-105.2305749">
  <ele>1586.19</ele>
  <time>2026-08-27T18:31:37Z</time>
  <course>11.15</course>
  <speed>0.01414213562373095</speed>
  <fix>3d</fix>
</trkpt>
<trkpt lat="40.072842" lon="-105.230575">
  <ele>1586.09</ele>
  <time>2026-08-27T18:31:37Z</time>
  <course>250.75</course>
  <speed>0.0</speed>
  <fix>3d</fix>
</trkpt>
<trkpt lat="40.0728419" lon="-105.2305749">
  <ele>1586.2</ele>
  <time>2026-08-27T18:31:37Z</time>
  <course>11.15</course>
  <speed>0.01</speed>
  <fix>3d</fix>
</trkpt>
<trkpt lat="40.072842" lon="-105.230575">
  <ele>1586.09</ele>
  <time>2026-08-27T18:31:37Z</time>
  <course>251.6</course>
  <speed>0.0</speed>
  <fix>3d</fix>
</trkpt>
<trkpt lat="40.0728419" lon="-105.2305749">
  <ele>1586.2</ele>
  <time>2026-08-27T18:31:37Z</time>
  <course>11.15</course>
  <speed>0.0</speed>
  <fix>3d</fix>
</trkpt>
<trkpt lat="40.072842" lon="-105.230575">
  <ele>1586.09</ele>
  <time>2026-08-27T18:31:37Z</time>
  <course>250.71</course>
  <speed>0.0</speed>
  <fix>3d</fix>
</trkpt>
<trkpt lat="40.0728419" lon="-105.2305749">
  <ele>1586.2</ele>
  <time>2026-08-27T18:31:37Z</time>
  <course>11.15</course>
  <speed>0.0</speed>
  <fix>3d</fix>
</trkpt>
<trkpt lat="40.072842" lon="-105.230575">
  <ele>1586.09</ele>
  <time>2026-08-27T18:31:37Z</time>
  <course>50.87</course>
  <speed>0.0</speed>
  <fix>3d</fix>
</trkpt>
<trkpt lat="40.0728419" lon="-105.2305749">
  <ele>1586.2</ele>
  <time>2026-08-27T18:31:37Z</time>
  <course>11.15</course>
  <speed>0.0</speed>
  <fix>3d</fix>
</trkpt>
<trkpt lat="40.072842" lon="-105.230575">
  <ele>1586.09</ele>
  <time>2026-08-27T18:31:37Z</time>
  <course>2.14</course>
  <speed>0.0</speed>
  <fix>3d</fix>
</trkpt>
<trkpt lat="40.0728419" lon="-105.2305749">
  <ele>1586.2</ele>
  <time>2026-08-27T18:31:37Z</time>
  <course>11.15</course>
  <speed>0.0</speed>
  <fix>3d</fix>
</trkpt>
<trkpt lat="40.072842" lon="-105.230575">
  <ele>1586.09</ele>
  <time>2026-08-27T18:31:37Z</time>
  <course>342.46</course>
  <speed>0.0</speed>
  <fix>3d</fix>
</trkpt>
<trkpt lat="40.0728419" lon="-105.2305749">
  <ele>1586.21</ele>
  <time>2026-08-27T18:31:37Z</time>
  <course>11.15</course>
  <speed>0.0</speed>
  <fix>3d</fix>
</trkpt>
<trkpt lat="40.072842" lon="-105.230575">
  <ele>1586.09</ele>
  <time>2026-08-27T18:31:37Z</time>
  <course>264.79</course>
  <speed>0.0</speed>
  <fix>3d</fix>
</trkpt>
<trkpt lat="40.0728419" lon="-105.2305749">
  <ele>1586.21</ele>
  <time>2026-08-27T18:31:37Z</time>
  <course>11.15</course>
  <speed>0.0</speed>
  <fix>3d</fix>
</trkpt>
<trkpt lat="40.072842" lon="-105.230575">
  <ele>1586.09</ele>
  <time>2026-08-27T18:31:37Z</time>
  <course>267.56</course>
  <speed>0.0</speed>
  <fix>3d</fix>
</trkpt>
<trkpt lat="40.0728419" lon="-105.2305749">
  <ele>1586.21</ele>
  <time>2026-08-27T18:31:37Z</time>
  <course>11.15</course>
  <speed>0.0</speed>
  <fix>3d</fix>
</trkpt>
<trkpt lat="40.072842" lon="-105.230575">
  <ele>1586.09</ele>
  <time>2026-08-27T18:31:37Z</time>
  <course>254.94</course>
  <speed>0.0</speed>
  <fix>3d</fix>
</trkpt>
<trkpt lat="40.0728419" lon="-105.2305749">
  <ele>1586.21</ele>
  <time>2026-08-27T18:31:37Z</time>
  <course>11.15</course>
  <speed>0.0</speed>
  <fix>3d</fix>
</trkpt>
<trkpt lat="40.072842" lon="-105.230575">
  <ele>1586.09</ele>
  <time>2026-08-27T18:31:37Z</time>
  <course>338.15</course>
  <speed>0.0</speed>
  <fix>3d</fix>
</trkpt>
<trkpt lat="40.0728419" lon="-105.2305749">
  <ele>1586.2</ele>
  <time>2026-08-27T18:31:37Z</time>
  <course>11.15</course>
  <speed>0.0</speed>
  <fix>3d</fix>
</trkpt>
<trkpt lat="40.072842" lon="-105.230575">
  <ele>1586.09</ele>
  <time>2026-08-27T18:31:37Z</time>
  <course>285.55</course>
  <speed>0.0</speed>
  <fix>3d</fix>
</trkpt>
<trkpt lat="40.0728419" lon="-105.2305749">
  <ele>1586.2</ele>
  <time>2026-08-27T18:31:37Z</time>
  <course>11.15</course>
  <speed>0.0</speed>
  <fix>3d</fix>
</trkpt>
<trkpt lat="40.072842" lon="-105.230575">
  <ele>1586.09</ele>
  <time>2026-08-27T18:31:37Z</time>
  <course>277.59</course>
  <speed>0.0</speed>
  <fix>3d</fix>
</trkpt>
<trkpt lat="40.0728419" lon="-105.2305749">
  <ele>1586.2</ele>
  <time>2026-08-27T18:31:37Z</time>
  <course>11.15</course>
  <speed>0.0</speed>
  <fix>3d</fix>
</trkpt>
<trkpt lat="40.072842" lon="-105.230575">
  <ele>1586.09</ele>
  <time>2026-08-27T18:31:37Z</time>
  <course>280.63</course>
  <speed>0.0</speed>
  <fix>3d</fix>
</trkpt>
<trkpt lat="40.0728419" lon="-105.2305749">
  <ele>1586.19</ele>
  <time>2026-08-27T18:31:37Z</time>
  <course>11.15</course>
  <speed>0.0</speed>
  <fix>3d</fix>
</trkpt>
<trkpt lat="40.072842" lon="-105.230575">
  <ele>1586.09</ele>
  <time>2026-08-27T18:31:37Z</time>
  <course>281.32</course>
  <speed>0.0</speed>
  <fix>3d</fix>
</trkpt>
<trkpt lat="40.0728419" lon="-105.2305749">
  <ele>1586.19</ele>
  <time>2026-08-27T18:31:37Z</time>
  <course>11.15</course>
  <speed>0.0</speed>
  <fix>3d</fix>
</trkpt>
<trkpt lat="40.072842" lon="-105.230575">
  <ele>1586.09</ele>
  <time>2026-08-27T18:31:37Z</time>
  <course>280.78</course>
  <speed>0.0</speed>
  <fix>3d</fix>
</trkpt>
<trkpt lat="40.0728419" lon="-105.2305749">
  <ele>1586.19</ele>
  <time>2026-08-27T18:31:37Z</time>
  <course>11.15</course>
  <speed>0.0</speed>
  <fix>3d</fix>
</trkpt>
<trkpt lat="40.072842" lon="-105.230575">
  <ele>1586.09</ele>
  <time>2026-08-27T18:31:37Z</time>
  <course>280.75</course>
  <speed>0.0</speed>
  <fix>3d</fix>
</trkpt>
<trkpt lat="40.0728419" lon="-105.2305749">
  <ele>1586.2</ele>
  <time>2026-08-27T18:31:37Z</time>
  <course>11.15</course>
  <speed>0.0</speed>
  <fix>3d</fix>
</trkpt>
<trkpt lat="40.072842" lon="-105.230575">
  <ele>1586.09</ele>
  <time>2026-08-27T18:31:37Z</time>
  <course>280.83</course>
  <speed>0.0</speed>
  <fix>3d</fix>
</trkpt>
<trkpt lat="40.0728419" lon="-105.2305749">
  <ele>1586.2</ele>
  <time>2026-08-27T18:31:37Z</time>
  <course>11.15</course>
  <speed>0.0</speed>
  <fix>3d</fix>
</trkpt>
<trkpt lat="40.072842" lon="-105.230575">
  <ele>1586.09</ele>
  <time>2026-08-27T18:31:37Z</time>
  <course>280.82</course>
  <speed>0.0</speed>
  <fix>3d</fix>
</trkpt>
<trkpt lat="40.0728419" lon="-105.2305749">
  <ele>1586.2</ele>
  <time>2026-08-27T18:31:37Z</time>
  <course>11.15</course>
  <speed>0.0</speed>
  <fix>3d</fix>
</trkpt>
<trkpt lat="40.072842" lon="-105.230575">
  <ele>1586.09</ele>
  <time>2026-08-27T18:31:37Z</time>
  <course>280.81</course>
  <speed>0.0</speed>
  <fix>3d</fix>
</trkpt>
<trkpt lat="40.0728419" lon="-105.2305749">
  <ele>1586.2</ele>
  <time>2026-08-27T18:31:37Z</time>
  <course>11.15</course>
  <speed>0.0</speed>
  <fix>3d</fix>
</trkpt>
<trkpt lat="40.072842" lon="-105.230575">
  <ele>1586.09</ele>
  <time>2026-08-27T18:31:37Z</time>
  <course>280.81</course>
  <speed>0.0</speed>
  <fix>3d</fix>
</trkpt>
<trkpt lat="40.0728419" lon="-105.2305749">
  <ele>1586.19</ele>
  <time>2026-08-27T18:31:37Z</time>
  <course>11.16</course>
  <speed>0.01</speed>
  <fix>3d</fix>
</trkpt>
<trkpt lat="40.072842" lon="-105.230575">
  <ele>1586.09</ele>
  <time>2026-08-27T18:31:37Z</time>
  <course>280.81</course>
  <speed>0.0</speed>
  <fix>3d</fix>
</trkpt>
<trkpt lat="40.0728419" lon="-105.2305749">
  <ele>1586.18</ele>
  <time>2026-08-27T18:31:37Z</time>
  <course>11.16</course>
  <speed>0.01</speed>
  <fix>3d</fix>
</trkpt>
<trkpt lat="40.072842" lon="-105.230575">
  <ele>1586.09</ele>
  <time>2026-08-27T18:31:37Z</time>
  <course>280.81</course>
  <speed>0.0</speed>
  <fix>3d</fix>
</trkpt>
</trkseg>
</trk>
</gpx>
